<?xml version="1.0" encoding="UTF-8"?>
<TrainingCenterDatabase xmlns="http://www.garmin.com/xmlschemas/TrainingCenterDatabase/v2" xmlns:xsi="http://www.w3.org/2001/XMLSchema-instance" xsi:schemaLocation="http://www.garmin.com/xmlschemas/TrainingCenterDatabase/v2 http://www.garmin.com/xmlschemas/TrainingCenterDatabasev2.xsd">
  <Activities>
    <Activity Sport="Other">
      <Id>2022-07-04T07:10:56.000Z</Id>
      <Lap StartTime="2022-07-04T07:10:56.000Z">
        <TotalTimeSeconds>584495</TotalTimeSeconds>
        <DistanceMeters>965070</DistanceMeters>
        <Track>
          <Trackpoint>
            <Time>2022-07-04T07:10:56.000Z</Time>
            <Position>
              <LatitudeDegrees>44.82253893278539180755615234375</LatitudeDegrees>
              <LongitudeDegrees>-0.55472549982368946075439453125</LongitudeDegrees>
            </Position>
            <AltitudeMeters>6.400000095367431640625</AltitudeMeters>
            <DistanceMeters>0</DistanceMeters>
          </Trackpoint>
          <Trackpoint>
            <Time>2022-07-04T07:10:57.000Z</Time>
            <Position>
              <LatitudeDegrees>44.8225398547947406768798828125</LatitudeDegrees>
              <LongitudeDegrees>-0.554724074900150299072265625</LongitudeDegrees>
            </Position>
            <AltitudeMeters>6.400000095367431640625</AltitudeMeters>
            <DistanceMeters>0.19005342873997</DistanceMeters>
          </Trackpoint>
          <Trackpoint>
            <Time>2022-07-04T07:12:18.000Z</Time>
            <Position>
              <LatitudeDegrees>44.822438769042491912841796875</LatitudeDegrees>
              <LongitudeDegrees>-0.55483077652752399444580078125</LongitudeDegrees>
            </Position>
            <AltitudeMeters>6.400000095367431640625</AltitudeMeters>
            <DistanceMeters>14.245336505379</DistanceMeters>
          </Trackpoint>
          <Trackpoint>
            <Time>2022-07-04T07:12:20.000Z</Time>
            <Position>
              <LatitudeDegrees>44.8224265314638614654541015625</LatitudeDegrees>
              <LongitudeDegrees>-0.5548791401088237762451171875</LongitudeDegrees>
            </Position>
            <AltitudeMeters>6.599999904632568359375</AltitudeMeters>
            <DistanceMeters>18.299314690816</DistanceMeters>
          </Trackpoint>
          <Trackpoint>
            <Time>2022-07-04T07:12:22.000Z</Time>
            <Position>
              <LatitudeDegrees>44.82242728583514690399169921875</LatitudeDegrees>
              <LongitudeDegrees>-0.55492046289145946502685546875</LongitudeDegrees>
            </Position>
            <AltitudeMeters>6.599999904632568359375</AltitudeMeters>
            <DistanceMeters>21.564972401035</DistanceMeters>
          </Trackpoint>
          <Trackpoint>
            <Time>2022-07-04T07:12:25.000Z</Time>
            <Position>
              <LatitudeDegrees>44.82242963276803493499755859375</LatitudeDegrees>
              <LongitudeDegrees>-0.55495415814220905303955078125</LongitudeDegrees>
            </Position>
            <AltitudeMeters>6.599999904632568359375</AltitudeMeters>
            <DistanceMeters>24.239261193146</DistanceMeters>
          </Trackpoint>
          <Trackpoint>
            <Time>2022-07-04T07:12:26.000Z</Time>
            <Position>
              <LatitudeDegrees>44.82241789810359477996826171875</LatitudeDegrees>
              <LongitudeDegrees>-0.5549579299986362457275390625</LongitudeDegrees>
            </Position>
            <AltitudeMeters>6.599999904632568359375</AltitudeMeters>
            <DistanceMeters>25.579777963779</DistanceMeters>
          </Trackpoint>
          <Trackpoint>
            <Time>2022-07-04T07:12:35.000Z</Time>
            <Position>
              <LatitudeDegrees>44.82223534025251865386962890625</LatitudeDegrees>
              <LongitudeDegrees>-0.55494309403002262115478515625</LongitudeDegrees>
            </Position>
            <AltitudeMeters>6.400000095367431640625</AltitudeMeters>
            <DistanceMeters>45.932805423847</DistanceMeters>
          </Trackpoint>
          <Trackpoint>
            <Time>2022-07-04T07:12:41.000Z</Time>
            <Position>
              <LatitudeDegrees>44.822109527885913848876953125</LatitudeDegrees>
              <LongitudeDegrees>-0.55501752533018589019775390625</LongitudeDegrees>
            </Position>
            <AltitudeMeters>6</AltitudeMeters>
            <DistanceMeters>61.119251761905</DistanceMeters>
          </Trackpoint>
          <Trackpoint>
            <Time>2022-07-04T07:12:44.000Z</Time>
            <Position>
              <LatitudeDegrees>44.82207256369292736053466796875</LatitudeDegrees>
              <LongitudeDegrees>-0.55504451505839824676513671875</LongitudeDegrees>
            </Position>
            <AltitudeMeters>5.80000019073486328125</AltitudeMeters>
            <DistanceMeters>65.753204910538</DistanceMeters>
          </Trackpoint>
          <Trackpoint>
            <Time>2022-07-04T07:12:45.000Z</Time>
            <Position>
              <LatitudeDegrees>44.82206024229526519775390625</LatitudeDegrees>
              <LongitudeDegrees>-0.55503713898360729217529296875</LongitudeDegrees>
            </Position>
            <AltitudeMeters>5.80000019073486328125</AltitudeMeters>
            <DistanceMeters>67.243640687488</DistanceMeters>
          </Trackpoint>
          <Trackpoint>
            <Time>2022-07-04T07:12:48.000Z</Time>
            <Position>
              <LatitudeDegrees>44.8220235295593738555908203125</LatitudeDegrees>
              <LongitudeDegrees>-0.55500470101833343505859375</LongitudeDegrees>
            </Position>
            <AltitudeMeters>6</AltitudeMeters>
            <DistanceMeters>72.065719787128</DistanceMeters>
          </Trackpoint>
          <Trackpoint>
            <Time>2022-07-04T07:12:50.000Z</Time>
            <Position>
              <LatitudeDegrees>44.82201606966555118560791015625</LatitudeDegrees>
              <LongitudeDegrees>-0.55497628636658191680908203125</LongitudeDegrees>
            </Position>
            <AltitudeMeters>6</AltitudeMeters>
            <DistanceMeters>74.458431317059</DistanceMeters>
          </Trackpoint>
          <Trackpoint>
            <Time>2022-07-04T07:12:55.000Z</Time>
            <Position>
              <LatitudeDegrees>44.8219993896782398223876953125</LatitudeDegrees>
              <LongitudeDegrees>-0.55494443513453006744384765625</LongitudeDegrees>
            </Position>
            <AltitudeMeters>5.80000019073486328125</AltitudeMeters>
            <DistanceMeters>77.584218052004</DistanceMeters>
          </Trackpoint>
          <Trackpoint>
            <Time>2022-07-04T07:13:01.000Z</Time>
            <Position>
              <LatitudeDegrees>44.82196996919810771942138671875</LatitudeDegrees>
              <LongitudeDegrees>-0.55490235798060894012451171875</LongitudeDegrees>
            </Position>
            <AltitudeMeters>6</AltitudeMeters>
            <DistanceMeters>82.25021358419</DistanceMeters>
          </Trackpoint>
          <Trackpoint>
            <Time>2022-07-04T07:13:04.000Z</Time>
            <Position>
              <LatitudeDegrees>44.82192638330161571502685546875</LatitudeDegrees>
              <LongitudeDegrees>-0.5548586882650852203369140625</LongitudeDegrees>
            </Position>
            <AltitudeMeters>6</AltitudeMeters>
            <DistanceMeters>88.20210319083</DistanceMeters>
          </Trackpoint>
          <Trackpoint>
            <Time>2022-07-04T07:13:07.000Z</Time>
            <Position>
              <LatitudeDegrees>44.82189235277473926544189453125</LatitudeDegrees>
              <LongitudeDegrees>-0.55482340045273303985595703125</LongitudeDegrees>
            </Position>
            <AltitudeMeters>6.19999980926513671875</AltitudeMeters>
            <DistanceMeters>92.903765358064</DistanceMeters>
          </Trackpoint>
          <Trackpoint>
            <Time>2022-07-04T07:13:10.000Z</Time>
            <Position>
              <LatitudeDegrees>44.8218865692615509033203125</LatitudeDegrees>
              <LongitudeDegrees>-0.5548218078911304473876953125</LongitudeDegrees>
            </Position>
            <AltitudeMeters>6</AltitudeMeters>
            <DistanceMeters>93.562129747525</DistanceMeters>
          </Trackpoint>
          <Trackpoint>
            <Time>2022-07-04T07:13:29.000Z</Time>
            <Position>
              <LatitudeDegrees>44.8218394629657268524169921875</LatitudeDegrees>
              <LongitudeDegrees>-0.55481049232184886932373046875</LongitudeDegrees>
            </Position>
            <AltitudeMeters>6.19999980926513671875</AltitudeMeters>
            <DistanceMeters>98.881928575991</DistanceMeters>
          </Trackpoint>
          <Trackpoint>
            <Time>2022-07-04T07:13:31.000Z</Time>
            <Position>
              <LatitudeDegrees>44.82179797254502773284912109375</LatitudeDegrees>
              <LongitudeDegrees>-0.55480278097093105316162109375</LongitudeDegrees>
            </Position>
            <AltitudeMeters>6.19999980926513671875</AltitudeMeters>
            <DistanceMeters>103.53920713953</DistanceMeters>
          </Trackpoint>
          <Trackpoint>
            <Time>2022-07-04T07:13:33.000Z</Time>
            <Position>
              <LatitudeDegrees>44.8217787779867649078369140625</LatitudeDegrees>
              <LongitudeDegrees>-0.55482323281466960906982421875</LongitudeDegrees>
            </Position>
            <AltitudeMeters>6.400000095367431640625</AltitudeMeters>
            <DistanceMeters>106.21687042988</DistanceMeters>
          </Trackpoint>
          <Trackpoint>
            <Time>2022-07-04T07:13:35.000Z</Time>
            <Position>
              <LatitudeDegrees>44.8217576555907726287841796875</LatitudeDegrees>
              <LongitudeDegrees>-0.55487369187176227569580078125</LongitudeDegrees>
            </Position>
            <AltitudeMeters>6.400000095367431640625</AltitudeMeters>
            <DistanceMeters>110.84302230505</DistanceMeters>
          </Trackpoint>
          <Trackpoint>
            <Time>2022-07-04T07:13:40.000Z</Time>
            <Position>
              <LatitudeDegrees>44.82166721485555171966552734375</LatitudeDegrees>
              <LongitudeDegrees>-0.55496421642601490020751953125</LongitudeDegrees>
            </Position>
            <AltitudeMeters>6.80000019073486328125</AltitudeMeters>
            <DistanceMeters>123.18845183266</DistanceMeters>
          </Trackpoint>
          <Trackpoint>
            <Time>2022-07-04T07:13:44.000Z</Time>
            <Position>
              <LatitudeDegrees>44.82158037833869457244873046875</LatitudeDegrees>
              <LongitudeDegrees>-0.55499003268778324127197265625</LongitudeDegrees>
            </Position>
            <AltitudeMeters>7</AltitudeMeters>
            <DistanceMeters>133.06620339751</DistanceMeters>
          </Trackpoint>
          <Trackpoint>
            <Time>2022-07-04T07:13:48.000Z</Time>
            <Position>
              <LatitudeDegrees>44.82150829397141933441162109375</LatitudeDegrees>
              <LongitudeDegrees>-0.5550075508654117584228515625</LongitudeDegrees>
            </Position>
            <AltitudeMeters>7.19999980926513671875</AltitudeMeters>
            <DistanceMeters>141.2080576811</DistanceMeters>
          </Trackpoint>
          <Trackpoint>
            <Time>2022-07-04T07:13:51.000Z</Time>
            <Position>
              <LatitudeDegrees>44.8214481957256793975830078125</LatitudeDegrees>
              <LongitudeDegrees>-0.5550134181976318359375</LongitudeDegrees>
            </Position>
            <AltitudeMeters>7.400000095367431640625</AltitudeMeters>
            <DistanceMeters>147.91333549894</DistanceMeters>
          </Trackpoint>
          <Trackpoint>
            <Time>2022-07-04T07:13:56.000Z</Time>
            <Position>
              <LatitudeDegrees>44.82132774777710437774658203125</LatitudeDegrees>
              <LongitudeDegrees>-0.555010735988616943359375</LongitudeDegrees>
            </Position>
            <AltitudeMeters>7.80000019073486328125</AltitudeMeters>
            <DistanceMeters>161.32119744059</DistanceMeters>
          </Trackpoint>
          <Trackpoint>
            <Time>2022-07-04T07:14:00.000Z</Time>
            <Position>
              <LatitudeDegrees>44.82122917659580707550048828125</LatitudeDegrees>
              <LongitudeDegrees>-0.5550155974924564361572265625</LongitudeDegrees>
            </Position>
            <AltitudeMeters>7.80000019073486328125</AltitudeMeters>
            <DistanceMeters>172.29914807907</DistanceMeters>
          </Trackpoint>
          <Trackpoint>
            <Time>2022-07-04T07:14:05.000Z</Time>
            <Position>
              <LatitudeDegrees>44.821113087236881256103515625</LatitudeDegrees>
              <LongitudeDegrees>-0.555026829242706298828125</LongitudeDegrees>
            </Position>
            <AltitudeMeters>8.19999980926513671875</AltitudeMeters>
            <DistanceMeters>185.250351496</DistanceMeters>
          </Trackpoint>
          <Trackpoint>
            <Time>2022-07-04T07:14:08.000Z</Time>
            <Position>
              <LatitudeDegrees>44.82104041613638401031494140625</LatitudeDegrees>
              <LongitudeDegrees>-0.5550253205001354217529296875</LongitudeDegrees>
            </Position>
            <AltitudeMeters>8.6000003814697265625</AltitudeMeters>
            <DistanceMeters>193.339910445</DistanceMeters>
          </Trackpoint>
          <Trackpoint>
            <Time>2022-07-04T07:14:15.000Z</Time>
            <Position>
              <LatitudeDegrees>44.82088677585124969482421875</LatitudeDegrees>
              <LongitudeDegrees>-0.55501517839729785919189453125</LongitudeDegrees>
            </Position>
            <AltitudeMeters>9</AltitudeMeters>
            <DistanceMeters>210.4592308459</DistanceMeters>
          </Trackpoint>
          <Trackpoint>
            <Time>2022-07-04T07:14:19.000Z</Time>
            <Position>
              <LatitudeDegrees>44.8207991011440753936767578125</LatitudeDegrees>
              <LongitudeDegrees>-0.55503881536424160003662109375</LongitudeDegrees>
            </Position>
            <AltitudeMeters>9.6000003814697265625</AltitudeMeters>
            <DistanceMeters>220.39440903297</DistanceMeters>
          </Trackpoint>
          <Trackpoint>
            <Time>2022-07-04T07:14:20.000Z</Time>
            <Position>
              <LatitudeDegrees>44.82077219523489475250244140625</LatitudeDegrees>
              <LongitudeDegrees>-0.5550469458103179931640625</LongitudeDegrees>
            </Position>
            <AltitudeMeters>9.80000019073486328125</AltitudeMeters>
            <DistanceMeters>223.45892848987</DistanceMeters>
          </Trackpoint>
          <Trackpoint>
            <Time>2022-07-04T07:14:25.000Z</Time>
            <Position>
              <LatitudeDegrees>44.82068301178514957427978515625</LatitudeDegrees>
              <LongitudeDegrees>-0.55515297688543796539306640625</LongitudeDegrees>
            </Position>
            <AltitudeMeters>10.3999996185302734375</AltitudeMeters>
            <DistanceMeters>236.44390393696</DistanceMeters>
          </Trackpoint>
          <Trackpoint>
            <Time>2022-07-04T07:14:28.000Z</Time>
            <Position>
              <LatitudeDegrees>44.820664823055267333984375</LatitudeDegrees>
              <LongitudeDegrees>-0.5552469380199909210205078125</LongitudeDegrees>
            </Position>
            <AltitudeMeters>10.6000003814697265625</AltitudeMeters>
            <DistanceMeters>244.13343841929</DistanceMeters>
          </Trackpoint>
          <Trackpoint>
            <Time>2022-07-04T07:14:32.000Z</Time>
            <Position>
              <LatitudeDegrees>44.82067462988197803497314453125</LatitudeDegrees>
              <LongitudeDegrees>-0.55536705069243907928466796875</LongitudeDegrees>
            </Position>
            <AltitudeMeters>11</AltitudeMeters>
            <DistanceMeters>253.67877609376</DistanceMeters>
          </Trackpoint>
          <Trackpoint>
            <Time>2022-07-04T07:14:40.000Z</Time>
            <Position>
              <LatitudeDegrees>44.82071603648364543914794921875</LatitudeDegrees>
              <LongitudeDegrees>-0.5555994808673858642578125</LongitudeDegrees>
            </Position>
            <AltitudeMeters>12</AltitudeMeters>
            <DistanceMeters>272.5986402665</DistanceMeters>
          </Trackpoint>
          <Trackpoint>
            <Time>2022-07-04T07:14:43.000Z</Time>
            <Position>
              <LatitudeDegrees>44.82073179446160793304443359375</LatitudeDegrees>
              <LongitudeDegrees>-0.5556827969849109649658203125</LongitudeDegrees>
            </Position>
            <AltitudeMeters>12.19999980926513671875</AltitudeMeters>
            <DistanceMeters>279.40616201163</DistanceMeters>
          </Trackpoint>
          <Trackpoint>
            <Time>2022-07-04T07:14:49.000Z</Time>
            <Position>
              <LatitudeDegrees>44.82076599262654781341552734375</LatitudeDegrees>
              <LongitudeDegrees>-0.55586032569408416748046875</LongitudeDegrees>
            </Position>
            <AltitudeMeters>12.80000019073486328125</AltitudeMeters>
            <DistanceMeters>293.92940288886</DistanceMeters>
          </Trackpoint>
          <Trackpoint>
            <Time>2022-07-04T07:14:50.000Z</Time>
            <Position>
              <LatitudeDegrees>44.82077169232070446014404296875</LatitudeDegrees>
              <LongitudeDegrees>-0.555890500545501708984375</LongitudeDegrees>
            </Position>
            <AltitudeMeters>13.19999980926513671875</AltitudeMeters>
            <DistanceMeters>296.39277686987</DistanceMeters>
          </Trackpoint>
          <Trackpoint>
            <Time>2022-07-04T07:14:53.000Z</Time>
            <Position>
              <LatitudeDegrees>44.820793569087982177734375</LatitudeDegrees>
              <LongitudeDegrees>-0.55596895515918731689453125</LongitudeDegrees>
            </Position>
            <AltitudeMeters>13.6000003814697265625</AltitudeMeters>
            <DistanceMeters>303.04736137089</DistanceMeters>
          </Trackpoint>
          <Trackpoint>
            <Time>2022-07-04T07:14:58.000Z</Time>
            <Position>
              <LatitudeDegrees>44.82081460766494274139404296875</LatitudeDegrees>
              <LongitudeDegrees>-0.55610281415283679962158203125</LongitudeDegrees>
            </Position>
            <AltitudeMeters>14.19999980926513671875</AltitudeMeters>
            <DistanceMeters>313.87206792288</DistanceMeters>
          </Trackpoint>
          <Trackpoint>
            <Time>2022-07-04T07:15:03.000Z</Time>
            <Position>
              <LatitudeDegrees>44.820833466947078704833984375</LatitudeDegrees>
              <LongitudeDegrees>-0.55624815635383129119873046875</LongitudeDegrees>
            </Position>
            <AltitudeMeters>14.6000003814697265625</AltitudeMeters>
            <DistanceMeters>325.53754056699</DistanceMeters>
          </Trackpoint>
          <Trackpoint>
            <Time>2022-07-04T07:15:05.000Z</Time>
            <Position>
              <LatitudeDegrees>44.82084813527762889862060546875</LatitudeDegrees>
              <LongitudeDegrees>-0.556307919323444366455078125</LongitudeDegrees>
            </Position>
            <AltitudeMeters>14.80000019073486328125</AltitudeMeters>
            <DistanceMeters>330.52983572907</DistanceMeters>
          </Trackpoint>
          <Trackpoint>
            <Time>2022-07-04T07:15:09.000Z</Time>
            <Position>
              <LatitudeDegrees>44.820883758366107940673828125</LatitudeDegrees>
              <LongitudeDegrees>-0.55641579441726207733154296875</LongitudeDegrees>
            </Position>
            <AltitudeMeters>15.19999980926513671875</AltitudeMeters>
            <DistanceMeters>339.92403271906</DistanceMeters>
          </Trackpoint>
          <Trackpoint>
            <Time>2022-07-04T07:15:13.000Z</Time>
            <Position>
              <LatitudeDegrees>44.82090848498046398162841796875</LatitudeDegrees>
              <LongitudeDegrees>-0.55653087794780731201171875</LongitudeDegrees>
            </Position>
            <AltitudeMeters>15.6000003814697265625</AltitudeMeters>
            <DistanceMeters>349.41719672853</DistanceMeters>
          </Trackpoint>
          <Trackpoint>
            <Time>2022-07-04T07:15:23.000Z</Time>
            <Position>
              <LatitudeDegrees>44.82096749357879161834716796875</LatitudeDegrees>
              <LongitudeDegrees>-0.5568332970142364501953125</LongitudeDegrees>
            </Position>
            <AltitudeMeters>15.80000019073486328125</AltitudeMeters>
            <DistanceMeters>374.1796342267</DistanceMeters>
          </Trackpoint>
          <Trackpoint>
            <Time>2022-07-04T07:15:30.000Z</Time>
            <Position>
              <LatitudeDegrees>44.8210130073130130767822265625</LatitudeDegrees>
              <LongitudeDegrees>-0.5570728518068790435791015625</LongitudeDegrees>
            </Position>
            <AltitudeMeters>16.200000762939453125</AltitudeMeters>
            <DistanceMeters>393.75859679173</DistanceMeters>
          </Trackpoint>
          <Trackpoint>
            <Time>2022-07-04T07:15:32.000Z</Time>
            <Position>
              <LatitudeDegrees>44.8210270889103412628173828125</LatitudeDegrees>
              <LongitudeDegrees>-0.55714183486998081207275390625</LongitudeDegrees>
            </Position>
            <AltitudeMeters>16.200000762939453125</AltitudeMeters>
            <DistanceMeters>399.42524940458</DistanceMeters>
          </Trackpoint>
          <Trackpoint>
            <Time>2022-07-04T07:15:34.000Z</Time>
            <Position>
              <LatitudeDegrees>44.82103756628930568695068359375</LatitudeDegrees>
              <LongitudeDegrees>-0.55721819400787353515625</LongitudeDegrees>
            </Position>
            <AltitudeMeters>16.200000762939453125</AltitudeMeters>
            <DistanceMeters>405.56459294253</DistanceMeters>
          </Trackpoint>
          <Trackpoint>
            <Time>2022-07-04T07:15:40.000Z</Time>
            <Position>
              <LatitudeDegrees>44.82108232565224170684814453125</LatitudeDegrees>
              <LongitudeDegrees>-0.55744743905961513519287109375</LongitudeDegrees>
            </Position>
            <AltitudeMeters>15.80000019073486328125</AltitudeMeters>
            <DistanceMeters>424.33615768808</DistanceMeters>
          </Trackpoint>
          <Trackpoint>
            <Time>2022-07-04T07:15:43.000Z</Time>
            <Position>
              <LatitudeDegrees>44.82111115939915180206298828125</LatitudeDegrees>
              <LongitudeDegrees>-0.55757216177880764007568359375</LongitudeDegrees>
            </Position>
            <AltitudeMeters>15.6000003814697265625</AltitudeMeters>
            <DistanceMeters>434.69276176477</DistanceMeters>
          </Trackpoint>
          <Trackpoint>
            <Time>2022-07-04T07:15:50.000Z</Time>
            <Position>
              <LatitudeDegrees>44.8211677372455596923828125</LatitudeDegrees>
              <LongitudeDegrees>-0.5578889138996601104736328125</LongitudeDegrees>
            </Position>
            <AltitudeMeters>15.19999980926513671875</AltitudeMeters>
            <DistanceMeters>460.48021781391</DistanceMeters>
          </Trackpoint>
          <Trackpoint>
            <Time>2022-07-04T07:15:52.000Z</Time>
            <Position>
              <LatitudeDegrees>44.82118709944188594818115234375</LatitudeDegrees>
              <LongitudeDegrees>-0.5579851381480693817138671875</LongitudeDegrees>
            </Position>
            <AltitudeMeters>15</AltitudeMeters>
            <DistanceMeters>468.37716076179</DistanceMeters>
          </Trackpoint>
          <Trackpoint>
            <Time>2022-07-04T07:15:57.000Z</Time>
            <Position>
              <LatitudeDegrees>44.82122850604355335235595703125</LatitudeDegrees>
              <LongitudeDegrees>-0.558241792023181915283203125</LongitudeDegrees>
            </Position>
            <AltitudeMeters>14.19999980926513671875</AltitudeMeters>
            <DistanceMeters>489.1565287802</DistanceMeters>
          </Trackpoint>
          <Trackpoint>
            <Time>2022-07-04T07:16:00.000Z</Time>
            <Position>
              <LatitudeDegrees>44.8212681524455547332763671875</LatitudeDegrees>
              <LongitudeDegrees>-0.5583710409700870513916015625</LongitudeDegrees>
            </Position>
            <AltitudeMeters>13.80000019073486328125</AltitudeMeters>
            <DistanceMeters>500.274248257</DistanceMeters>
          </Trackpoint>
          <Trackpoint>
            <Time>2022-07-04T07:16:04.000Z</Time>
            <Position>
              <LatitudeDegrees>44.8213412426412105560302734375</LatitudeDegrees>
              <LongitudeDegrees>-0.55846131406724452972412109375</LongitudeDegrees>
            </Position>
            <AltitudeMeters>13.6000003814697265625</AltitudeMeters>
            <DistanceMeters>511.08977460827</DistanceMeters>
          </Trackpoint>
          <Trackpoint>
            <Time>2022-07-04T07:16:08.000Z</Time>
            <Position>
              <LatitudeDegrees>44.82143788598477840423583984375</LatitudeDegrees>
              <LongitudeDegrees>-0.5585212446749210357666015625</LongitudeDegrees>
            </Position>
            <AltitudeMeters>13</AltitudeMeters>
            <DistanceMeters>522.84085664275</DistanceMeters>
          </Trackpoint>
          <Trackpoint>
            <Time>2022-07-04T07:16:10.000Z</Time>
            <Position>
              <LatitudeDegrees>44.8214887641370296478271484375</LatitudeDegrees>
              <LongitudeDegrees>-0.5585753917694091796875</LongitudeDegrees>
            </Position>
            <AltitudeMeters>12.80000019073486328125</AltitudeMeters>
            <DistanceMeters>529.93611394429</DistanceMeters>
          </Trackpoint>
          <Trackpoint>
            <Time>2022-07-04T07:16:18.000Z</Time>
            <Position>
              <LatitudeDegrees>44.82169923372566699981689453125</LatitudeDegrees>
              <LongitudeDegrees>-0.5588813312351703643798828125</LongitudeDegrees>
            </Position>
            <AltitudeMeters>12.3999996185302734375</AltitudeMeters>
            <DistanceMeters>563.5833546051</DistanceMeters>
          </Trackpoint>
          <Trackpoint>
            <Time>2022-07-04T07:16:24.000Z</Time>
            <Position>
              <LatitudeDegrees>44.82187072746455669403076171875</LatitudeDegrees>
              <LongitudeDegrees>-0.55911610834300518035888671875</LongitudeDegrees>
            </Position>
            <AltitudeMeters>12.19999980926513671875</AltitudeMeters>
            <DistanceMeters>590.18947706959</DistanceMeters>
          </Trackpoint>
          <Trackpoint>
            <Time>2022-07-04T07:16:28.000Z</Time>
            <Position>
              <LatitudeDegrees>44.82198086567223072052001953125</LatitudeDegrees>
              <LongitudeDegrees>-0.55928559042513370513916015625</LongitudeDegrees>
            </Position>
            <AltitudeMeters>12</AltitudeMeters>
            <DistanceMeters>608.33609652562</DistanceMeters>
          </Trackpoint>
          <Trackpoint>
            <Time>2022-07-04T07:16:29.000Z</Time>
            <Position>
              <LatitudeDegrees>44.822004921734333038330078125</LatitudeDegrees>
              <LongitudeDegrees>-0.5593336187303066253662109375</LongitudeDegrees>
            </Position>
            <AltitudeMeters>12</AltitudeMeters>
            <DistanceMeters>612.9778378363</DistanceMeters>
          </Trackpoint>
          <Trackpoint>
            <Time>2022-07-04T07:16:34.000Z</Time>
            <Position>
              <LatitudeDegrees>44.82213400304317474365234375</LatitudeDegrees>
              <LongitudeDegrees>-0.55950083769857883453369140625</LongitudeDegrees>
            </Position>
            <AltitudeMeters>11</AltitudeMeters>
            <DistanceMeters>632.48911567053</DistanceMeters>
          </Trackpoint>
          <Trackpoint>
            <Time>2022-07-04T07:16:35.000Z</Time>
            <Position>
              <LatitudeDegrees>44.82214967720210552215576171875</LatitudeDegrees>
              <LongitudeDegrees>-0.55950544774532318115234375</LongitudeDegrees>
            </Position>
            <AltitudeMeters>10.80000019073486328125</AltitudeMeters>
            <DistanceMeters>634.27197486527</DistanceMeters>
          </Trackpoint>
          <Trackpoint>
            <Time>2022-07-04T07:16:38.000Z</Time>
            <Position>
              <LatitudeDegrees>44.8221831209957599639892578125</LatitudeDegrees>
              <LongitudeDegrees>-0.5594911985099315643310546875</LongitudeDegrees>
            </Position>
            <AltitudeMeters>10.3999996185302734375</AltitudeMeters>
            <DistanceMeters>638.16227152749</DistanceMeters>
          </Trackpoint>
          <Trackpoint>
            <Time>2022-07-04T07:16:41.000Z</Time>
            <Position>
              <LatitudeDegrees>44.8222008906304836273193359375</LatitudeDegrees>
              <LongitudeDegrees>-0.559484660625457763671875</LongitudeDegrees>
            </Position>
            <AltitudeMeters>10.19999980926513671875</AltitudeMeters>
            <DistanceMeters>640.20700265738</DistanceMeters>
          </Trackpoint>
          <Trackpoint>
            <Time>2022-07-04T07:16:42.000Z</Time>
            <Position>
              <LatitudeDegrees>44.8222005553543567657470703125</LatitudeDegrees>
              <LongitudeDegrees>-0.55948675610125064849853515625</LongitudeDegrees>
            </Position>
            <AltitudeMeters>10.19999980926513671875</AltitudeMeters>
            <DistanceMeters>640.34139072563</DistanceMeters>
          </Trackpoint>
          <Trackpoint>
            <Time>2022-07-04T07:18:22.000Z</Time>
            <Position>
              <LatitudeDegrees>44.8222629167139530181884765625</LatitudeDegrees>
              <LongitudeDegrees>-0.55946194566786289215087890625</LongitudeDegrees>
            </Position>
            <AltitudeMeters>10.80000019073486328125</AltitudeMeters>
            <DistanceMeters>647.55341126895</DistanceMeters>
          </Trackpoint>
          <Trackpoint>
            <Time>2022-07-04T07:18:23.000Z</Time>
            <Position>
              <LatitudeDegrees>44.82228244654834270477294921875</LatitudeDegrees>
              <LongitudeDegrees>-0.5594533123075962066650390625</LongitudeDegrees>
            </Position>
            <AltitudeMeters>10.80000019073486328125</AltitudeMeters>
            <DistanceMeters>649.8300895244</DistanceMeters>
          </Trackpoint>
          <Trackpoint>
            <Time>2022-07-04T07:18:25.000Z</Time>
            <Position>
              <LatitudeDegrees>44.8223344981670379638671875</LatitudeDegrees>
              <LongitudeDegrees>-0.5594321899116039276123046875</LongitudeDegrees>
            </Position>
            <AltitudeMeters>10.6000003814697265625</AltitudeMeters>
            <DistanceMeters>655.8596075618</DistanceMeters>
          </Trackpoint>
          <Trackpoint>
            <Time>2022-07-04T07:18:31.000Z</Time>
            <Position>
              <LatitudeDegrees>44.8225007951259613037109375</LatitudeDegrees>
              <LongitudeDegrees>-0.55928626097738742828369140625</LongitudeDegrees>
            </Position>
            <AltitudeMeters>10.19999980926513671875</AltitudeMeters>
            <DistanceMeters>677.6613536795</DistanceMeters>
          </Trackpoint>
          <Trackpoint>
            <Time>2022-07-04T07:18:41.000Z</Time>
            <Position>
              <LatitudeDegrees>44.8227946646511554718017578125</LatitudeDegrees>
              <LongitudeDegrees>-0.55901049636304378509521484375</LongitudeDegrees>
            </Position>
            <AltitudeMeters>10</AltitudeMeters>
            <DistanceMeters>716.95245825725</DistanceMeters>
          </Trackpoint>
          <Trackpoint>
            <Time>2022-07-04T07:18:42.000Z</Time>
            <Position>
              <LatitudeDegrees>44.82282492332160472869873046875</LatitudeDegrees>
              <LongitudeDegrees>-0.55898266844451427459716796875</LongitudeDegrees>
            </Position>
            <AltitudeMeters>9.80000019073486328125</AltitudeMeters>
            <DistanceMeters>720.97288570153</DistanceMeters>
          </Trackpoint>
          <Trackpoint>
            <Time>2022-07-04T07:18:51.000Z</Time>
            <Position>
              <LatitudeDegrees>44.823087863624095916748046875</LatitudeDegrees>
              <LongitudeDegrees>-0.558748729526996612548828125</LongitudeDegrees>
            </Position>
            <AltitudeMeters>9.6000003814697265625</AltitudeMeters>
            <DistanceMeters>755.57879181595</DistanceMeters>
          </Trackpoint>
          <Trackpoint>
            <Time>2022-07-04T07:18:54.000Z</Time>
            <Position>
              <LatitudeDegrees>44.823167324066162109375</LatitudeDegrees>
              <LongitudeDegrees>-0.55868427269160747528076171875</LongitudeDegrees>
            </Position>
            <AltitudeMeters>9.6000003814697265625</AltitudeMeters>
            <DistanceMeters>765.78255491585</DistanceMeters>
          </Trackpoint>
          <Trackpoint>
            <Time>2022-07-04T07:18:57.000Z</Time>
            <Position>
              <LatitudeDegrees>44.82324309647083282470703125</LatitudeDegrees>
              <LongitudeDegrees>-0.55866231210529804229736328125</LongitudeDegrees>
            </Position>
            <AltitudeMeters>9.6000003814697265625</AltitudeMeters>
            <DistanceMeters>774.39283526</DistanceMeters>
          </Trackpoint>
          <Trackpoint>
            <Time>2022-07-04T07:18:58.000Z</Time>
            <Position>
              <LatitudeDegrees>44.8232732713222503662109375</LatitudeDegrees>
              <LongitudeDegrees>-0.5586429499089717864990234375</LongitudeDegrees>
            </Position>
            <AltitudeMeters>9.6000003814697265625</AltitudeMeters>
            <DistanceMeters>778.08300534788</DistanceMeters>
          </Trackpoint>
          <Trackpoint>
            <Time>2022-07-04T07:19:01.000Z</Time>
            <Position>
              <LatitudeDegrees>44.82335214503109455108642578125</LatitudeDegrees>
              <LongitudeDegrees>-0.5585866235196590423583984375</LongitudeDegrees>
            </Position>
            <AltitudeMeters>9.3999996185302734375</AltitudeMeters>
            <DistanceMeters>787.92366283531</DistanceMeters>
          </Trackpoint>
          <Trackpoint>
            <Time>2022-07-04T07:19:03.000Z</Time>
            <Position>
              <LatitudeDegrees>44.8234035260975360870361328125</LatitudeDegrees>
              <LongitudeDegrees>-0.55849517695605754852294921875</LongitudeDegrees>
            </Position>
            <AltitudeMeters>9.3999996185302734375</AltitudeMeters>
            <DistanceMeters>797.13341353976</DistanceMeters>
          </Trackpoint>
          <Trackpoint>
            <Time>2022-07-04T07:19:05.000Z</Time>
            <Position>
              <LatitudeDegrees>44.82347133569419384002685546875</LatitudeDegrees>
              <LongitudeDegrees>-0.55841789580881595611572265625</LongitudeDegrees>
            </Position>
            <AltitudeMeters>9.3999996185302734375</AltitudeMeters>
            <DistanceMeters>806.83824209623</DistanceMeters>
          </Trackpoint>
          <Trackpoint>
            <Time>2022-07-04T07:19:07.000Z</Time>
            <Position>
              <LatitudeDegrees>44.8235282488167285919189453125</LatitudeDegrees>
              <LongitudeDegrees>-0.55834882892668247222900390625</LongitudeDegrees>
            </Position>
            <AltitudeMeters>9.3999996185302734375</AltitudeMeters>
            <DistanceMeters>815.19627244856</DistanceMeters>
          </Trackpoint>
          <Trackpoint>
            <Time>2022-07-04T07:19:15.000Z</Time>
            <Position>
              <LatitudeDegrees>44.8237136565148830413818359375</LatitudeDegrees>
              <LongitudeDegrees>-0.558096952736377716064453125</LongitudeDegrees>
            </Position>
            <AltitudeMeters>9.3999996185302734375</AltitudeMeters>
            <DistanceMeters>843.8534054545</DistanceMeters>
          </Trackpoint>
          <Trackpoint>
            <Time>2022-07-04T07:19:21.000Z</Time>
            <Position>
              <LatitudeDegrees>44.8238092102110385894775390625</LatitudeDegrees>
              <LongitudeDegrees>-0.55796510539948940277099609375</LongitudeDegrees>
            </Position>
            <AltitudeMeters>9.6000003814697265625</AltitudeMeters>
            <DistanceMeters>858.73472242282</DistanceMeters>
          </Trackpoint>
          <Trackpoint>
            <Time>2022-07-04T07:19:24.000Z</Time>
            <Position>
              <LatitudeDegrees>44.8238424025475978851318359375</LatitudeDegrees>
              <LongitudeDegrees>-0.55788941681385040283203125</LongitudeDegrees>
            </Position>
            <AltitudeMeters>9.80000019073486328125</AltitudeMeters>
            <DistanceMeters>865.76027562828</DistanceMeters>
          </Trackpoint>
          <Trackpoint>
            <Time>2022-07-04T07:19:26.000Z</Time>
            <Position>
              <LatitudeDegrees>44.8238660395145416259765625</LatitudeDegrees>
              <LongitudeDegrees>-0.55785655975341796875</LongitudeDegrees>
            </Position>
            <AltitudeMeters>9.6000003814697265625</AltitudeMeters>
            <DistanceMeters>869.45289196773</DistanceMeters>
          </Trackpoint>
          <Trackpoint>
            <Time>2022-07-04T07:19:28.000Z</Time>
            <Position>
              <LatitudeDegrees>44.82390149496495723724365234375</LatitudeDegrees>
              <LongitudeDegrees>-0.5578315816819667816162109375</LongitudeDegrees>
            </Position>
            <AltitudeMeters>9.6000003814697265625</AltitudeMeters>
            <DistanceMeters>873.86524336048</DistanceMeters>
          </Trackpoint>
          <Trackpoint>
            <Time>2022-07-04T07:19:30.000Z</Time>
            <Position>
              <LatitudeDegrees>44.823939464986324310302734375</LatitudeDegrees>
              <LongitudeDegrees>-0.55784205906093120574951171875</LongitudeDegrees>
            </Position>
            <AltitudeMeters>9.6000003814697265625</AltitudeMeters>
            <DistanceMeters>878.17195637807</DistanceMeters>
          </Trackpoint>
          <Trackpoint>
            <Time>2022-07-04T07:19:32.000Z</Time>
            <Position>
              <LatitudeDegrees>44.82396871782839298248291015625</LatitudeDegrees>
              <LongitudeDegrees>-0.55790140293538570404052734375</LongitudeDegrees>
            </Position>
            <AltitudeMeters>9.6000003814697265625</AltitudeMeters>
            <DistanceMeters>883.87672591803</DistanceMeters>
          </Trackpoint>
          <Trackpoint>
            <Time>2022-07-04T07:19:38.000Z</Time>
            <Position>
              <LatitudeDegrees>44.8240234516561031341552734375</LatitudeDegrees>
              <LongitudeDegrees>-0.55817884393036365509033203125</LongitudeDegrees>
            </Position>
            <AltitudeMeters>9.3999996185302734375</AltitudeMeters>
            <DistanceMeters>906.61036542246</DistanceMeters>
          </Trackpoint>
          <Trackpoint>
            <Time>2022-07-04T07:19:46.000Z</Time>
            <Position>
              <LatitudeDegrees>44.82411615550518035888671875</LatitudeDegrees>
              <LongitudeDegrees>-0.558536164462566375732421875</LongitudeDegrees>
            </Position>
            <AltitudeMeters>9.6000003814697265625</AltitudeMeters>
            <DistanceMeters>936.64662479949</DistanceMeters>
          </Trackpoint>
          <Trackpoint>
            <Time>2022-07-04T07:19:56.000Z</Time>
            <Position>
              <LatitudeDegrees>44.82424749992787837982177734375</LatitudeDegrees>
              <LongitudeDegrees>-0.55896339006721973419189453125</LongitudeDegrees>
            </Position>
            <AltitudeMeters>9.6000003814697265625</AltitudeMeters>
            <DistanceMeters>973.40538509712</DistanceMeters>
          </Trackpoint>
          <Trackpoint>
            <Time>2022-07-04T07:20:06.000Z</Time>
            <Position>
              <LatitudeDegrees>44.824375323951244354248046875</LatitudeDegrees>
              <LongitudeDegrees>-0.55938701145350933074951171875</LongitudeDegrees>
            </Position>
            <AltitudeMeters>9.80000019073486328125</AltitudeMeters>
            <DistanceMeters>1009.7481032282</DistanceMeters>
          </Trackpoint>
          <Trackpoint>
            <Time>2022-07-04T07:20:16.000Z</Time>
            <Position>
              <LatitudeDegrees>44.82448152266442775726318359375</LatitudeDegrees>
              <LongitudeDegrees>-0.55979646742343902587890625</LongitudeDegrees>
            </Position>
            <AltitudeMeters>10.19999980926513671875</AltitudeMeters>
            <DistanceMeters>1044.1653571536</DistanceMeters>
          </Trackpoint>
          <Trackpoint>
            <Time>2022-07-04T07:20:18.000Z</Time>
            <Position>
              <LatitudeDegrees>44.8245028965175151824951171875</LatitudeDegrees>
              <LongitudeDegrees>-0.55987198837101459503173828125</LongitudeDegrees>
            </Position>
            <AltitudeMeters>10.19999980926513671875</AltitudeMeters>
            <DistanceMeters>1050.5844099509</DistanceMeters>
          </Trackpoint>
          <Trackpoint>
            <Time>2022-07-04T07:20:27.000Z</Time>
            <Position>
              <LatitudeDegrees>44.8246135376393795013427734375</LatitudeDegrees>
              <LongitudeDegrees>-0.56021355092525482177734375</LongitudeDegrees>
            </Position>
            <AltitudeMeters>10.19999980926513671875</AltitudeMeters>
            <DistanceMeters>1080.2272620169</DistanceMeters>
          </Trackpoint>
          <Trackpoint>
            <Time>2022-07-04T07:20:37.000Z</Time>
            <Position>
              <LatitudeDegrees>44.82472644187510013580322265625</LatitudeDegrees>
              <LongitudeDegrees>-0.56066022254526615142822265625</LongitudeDegrees>
            </Position>
            <AltitudeMeters>10.19999980926513671875</AltitudeMeters>
            <DistanceMeters>1117.6611543159</DistanceMeters>
          </Trackpoint>
          <Trackpoint>
            <Time>2022-07-04T07:20:42.000Z</Time>
            <Position>
              <LatitudeDegrees>44.82478528283536434173583984375</LatitudeDegrees>
              <LongitudeDegrees>-0.56086893193423748016357421875</LongitudeDegrees>
            </Position>
            <AltitudeMeters>10</AltitudeMeters>
            <DistanceMeters>1135.3912141344</DistanceMeters>
          </Trackpoint>
          <Trackpoint>
            <Time>2022-07-04T07:20:45.000Z</Time>
            <Position>
              <LatitudeDegrees>44.8248244263231754302978515625</LatitudeDegrees>
              <LongitudeDegrees>-0.56098896078765392303466796875</LongitudeDegrees>
            </Position>
            <AltitudeMeters>10</AltitudeMeters>
            <DistanceMeters>1145.8199360451</DistanceMeters>
          </Trackpoint>
          <Trackpoint>
            <Time>2022-07-04T07:20:46.000Z</Time>
            <Position>
              <LatitudeDegrees>44.8248369991779327392578125</LatitudeDegrees>
              <LongitudeDegrees>-0.56102734990417957305908203125</LongitudeDegrees>
            </Position>
            <AltitudeMeters>10</AltitudeMeters>
            <DistanceMeters>1149.1580664098</DistanceMeters>
          </Trackpoint>
          <Trackpoint>
            <Time>2022-07-04T07:20:49.000Z</Time>
            <Position>
              <LatitudeDegrees>44.82487077824771404266357421875</LatitudeDegrees>
              <LongitudeDegrees>-0.5611481331288814544677734375</LongitudeDegrees>
            </Position>
            <AltitudeMeters>9.80000019073486328125</AltitudeMeters>
            <DistanceMeters>1159.4077449096</DistanceMeters>
          </Trackpoint>
          <Trackpoint>
            <Time>2022-07-04T07:20:56.000Z</Time>
            <Position>
              <LatitudeDegrees>44.824953339993953704833984375</LatitudeDegrees>
              <LongitudeDegrees>-0.56143906898796558380126953125</LongitudeDegrees>
            </Position>
            <AltitudeMeters>9.80000019073486328125</AltitudeMeters>
            <DistanceMeters>1184.1450074967</DistanceMeters>
          </Trackpoint>
          <Trackpoint>
            <Time>2022-07-04T07:21:00.000Z</Time>
            <Position>
              <LatitudeDegrees>44.8250111751258373260498046875</LatitudeDegrees>
              <LongitudeDegrees>-0.561605952680110931396484375</LongitudeDegrees>
            </Position>
            <AltitudeMeters>9.6000003814697265625</AltitudeMeters>
            <DistanceMeters>1198.8077865667</DistanceMeters>
          </Trackpoint>
          <Trackpoint>
            <Time>2022-07-04T07:21:03.000Z</Time>
            <Position>
              <LatitudeDegrees>44.82504679821431636810302734375</LatitudeDegrees>
              <LongitudeDegrees>-0.56173025630414485931396484375</LongitudeDegrees>
            </Position>
            <AltitudeMeters>9.6000003814697265625</AltitudeMeters>
            <DistanceMeters>1209.3912202349</DistanceMeters>
          </Trackpoint>
          <Trackpoint>
            <Time>2022-07-04T07:21:04.000Z</Time>
            <Position>
              <LatitudeDegrees>44.8250597901642322540283203125</LatitudeDegrees>
              <LongitudeDegrees>-0.5617734231054782867431640625</LongitudeDegrees>
            </Position>
            <AltitudeMeters>9.6000003814697265625</AltitudeMeters>
            <DistanceMeters>1213.0923857224</DistanceMeters>
          </Trackpoint>
          <Trackpoint>
            <Time>2022-07-04T07:21:12.000Z</Time>
            <Position>
              <LatitudeDegrees>44.82515844516456127166748046875</LatitudeDegrees>
              <LongitudeDegrees>-0.562134347856044769287109375</LongitudeDegrees>
            </Position>
            <AltitudeMeters>9.6000003814697265625</AltitudeMeters>
            <DistanceMeters>1243.6274723138</DistanceMeters>
          </Trackpoint>
          <Trackpoint>
            <Time>2022-07-04T07:21:15.000Z</Time>
            <Position>
              <LatitudeDegrees>44.8252019472420215606689453125</LatitudeDegrees>
              <LongitudeDegrees>-0.5622615851461887359619140625</LongitudeDegrees>
            </Position>
            <AltitudeMeters>9.6000003814697265625</AltitudeMeters>
            <DistanceMeters>1254.7780383334</DistanceMeters>
          </Trackpoint>
          <Trackpoint>
            <Time>2022-07-04T07:21:20.000Z</Time>
            <Position>
              <LatitudeDegrees>44.82526824809610843658447265625</LatitudeDegrees>
              <LongitudeDegrees>-0.56246367283165454864501953125</LongitudeDegrees>
            </Position>
            <AltitudeMeters>9.19999980926513671875</AltitudeMeters>
            <DistanceMeters>1272.3551551463</DistanceMeters>
          </Trackpoint>
          <Trackpoint>
            <Time>2022-07-04T07:21:24.000Z</Time>
            <Position>
              <LatitudeDegrees>44.82532180845737457275390625</LatitudeDegrees>
              <LongitudeDegrees>-0.56261270307004451751708984375</LongitudeDegrees>
            </Position>
            <AltitudeMeters>9</AltitudeMeters>
            <DistanceMeters>1285.5436854838</DistanceMeters>
          </Trackpoint>
          <Trackpoint>
            <Time>2022-07-04T07:21:27.000Z</Time>
            <Position>
              <LatitudeDegrees>44.8253373987972736358642578125</LatitudeDegrees>
              <LongitudeDegrees>-0.56269233115017414093017578125</LongitudeDegrees>
            </Position>
            <AltitudeMeters>8.80000019073486328125</AltitudeMeters>
            <DistanceMeters>1292.065315652</DistanceMeters>
          </Trackpoint>
          <Trackpoint>
            <Time>2022-07-04T07:21:31.000Z</Time>
            <Position>
              <LatitudeDegrees>44.8253491334617137908935546875</LatitudeDegrees>
              <LongitudeDegrees>-0.56271412409842014312744140625</LongitudeDegrees>
            </Position>
            <AltitudeMeters>8.6000003814697265625</AltitudeMeters>
            <DistanceMeters>1294.2239076572</DistanceMeters>
          </Trackpoint>
          <Trackpoint>
            <Time>2022-07-04T07:21:32.000Z</Time>
            <Position>
              <LatitudeDegrees>44.825346283614635467529296875</LatitudeDegrees>
              <LongitudeDegrees>-0.562711022794246673583984375</LongitudeDegrees>
            </Position>
            <AltitudeMeters>8.6000003814697265625</AltitudeMeters>
            <DistanceMeters>1294.627071862</DistanceMeters>
          </Trackpoint>
          <Trackpoint>
            <Time>2022-07-04T07:21:51.000Z</Time>
            <Position>
              <LatitudeDegrees>44.82534016482532024383544921875</LatitudeDegrees>
              <LongitudeDegrees>-0.5627936683595180511474609375</LongitudeDegrees>
            </Position>
            <AltitudeMeters>8.80000019073486328125</AltitudeMeters>
            <DistanceMeters>1301.1859806263</DistanceMeters>
          </Trackpoint>
          <Trackpoint>
            <Time>2022-07-04T07:21:52.000Z</Time>
            <Position>
              <LatitudeDegrees>44.825352989137172698974609375</LatitudeDegrees>
              <LongitudeDegrees>-0.56282158009707927703857421875</LongitudeDegrees>
            </Position>
            <AltitudeMeters>8.6000003814697265625</AltitudeMeters>
            <DistanceMeters>1303.8125712688</DistanceMeters>
          </Trackpoint>
          <Trackpoint>
            <Time>2022-07-04T07:21:53.000Z</Time>
            <Position>
              <LatitudeDegrees>44.82536732219159603118896484375</LatitudeDegrees>
              <LongitudeDegrees>-0.56285276077687740325927734375</LongitudeDegrees>
            </Position>
            <AltitudeMeters>8.80000019073486328125</AltitudeMeters>
            <DistanceMeters>1306.7445727652</DistanceMeters>
          </Trackpoint>
          <Trackpoint>
            <Time>2022-07-04T07:21:58.000Z</Time>
            <Position>
              <LatitudeDegrees>44.8254544101655483245849609375</LatitudeDegrees>
              <LongitudeDegrees>-0.56303716264665126800537109375</LongitudeDegrees>
            </Position>
            <AltitudeMeters>9</AltitudeMeters>
            <DistanceMeters>1324.2331029823</DistanceMeters>
          </Trackpoint>
          <Trackpoint>
            <Time>2022-07-04T07:22:05.000Z</Time>
            <Position>
              <LatitudeDegrees>44.82564308680593967437744140625</LatitudeDegrees>
              <LongitudeDegrees>-0.56330747902393341064453125</LongitudeDegrees>
            </Position>
            <AltitudeMeters>8.19999980926513671875</AltitudeMeters>
            <DistanceMeters>1354.1724000371</DistanceMeters>
          </Trackpoint>
          <Trackpoint>
            <Time>2022-07-04T07:22:08.000Z</Time>
            <Position>
              <LatitudeDegrees>44.82572137378156185150146484375</LatitudeDegrees>
              <LongitudeDegrees>-0.56343882344663143157958984375</LongitudeDegrees>
            </Position>
            <AltitudeMeters>8.19999980926513671875</AltitudeMeters>
            <DistanceMeters>1367.7162906481</DistanceMeters>
          </Trackpoint>
          <Trackpoint>
            <Time>2022-07-04T07:22:10.000Z</Time>
            <Position>
              <LatitudeDegrees>44.82577803544700145721435546875</LatitudeDegrees>
              <LongitudeDegrees>-0.56352549232542514801025390625</LongitudeDegrees>
            </Position>
            <AltitudeMeters>8</AltitudeMeters>
            <DistanceMeters>1377.02114814</DistanceMeters>
          </Trackpoint>
          <Trackpoint>
            <Time>2022-07-04T07:22:12.000Z</Time>
            <Position>
              <LatitudeDegrees>44.82583251781761646270751953125</LatitudeDegrees>
              <LongitudeDegrees>-0.5636157654225826263427734375</LongitudeDegrees>
            </Position>
            <AltitudeMeters>8</AltitudeMeters>
            <DistanceMeters>1386.3777816759</DistanceMeters>
          </Trackpoint>
          <Trackpoint>
            <Time>2022-07-04T07:22:13.000Z</Time>
            <Position>
              <LatitudeDegrees>44.82586017809808254241943359375</LatitudeDegrees>
              <LongitudeDegrees>-0.56365348398685455322265625</LongitudeDegrees>
            </Position>
            <AltitudeMeters>7.80000019073486328125</AltitudeMeters>
            <DistanceMeters>1390.6613684129</DistanceMeters>
          </Trackpoint>
          <Trackpoint>
            <Time>2022-07-04T07:22:18.000Z</Time>
            <Position>
              <LatitudeDegrees>44.8259854875504970550537109375</LatitudeDegrees>
              <LongitudeDegrees>-0.5638539791107177734375</LongitudeDegrees>
            </Position>
            <AltitudeMeters>7.400000095367431640625</AltitudeMeters>
            <DistanceMeters>1411.7568709505</DistanceMeters>
          </Trackpoint>
          <Trackpoint>
            <Time>2022-07-04T07:22:23.000Z</Time>
            <Position>
              <LatitudeDegrees>44.8261132277548313140869140625</LatitudeDegrees>
              <LongitudeDegrees>-0.56406059302389621734619140625</LongitudeDegrees>
            </Position>
            <AltitudeMeters>6.80000019073486328125</AltitudeMeters>
            <DistanceMeters>1433.3941846311</DistanceMeters>
          </Trackpoint>
          <Trackpoint>
            <Time>2022-07-04T07:22:26.000Z</Time>
            <Position>
              <LatitudeDegrees>44.8261822946369647979736328125</LatitudeDegrees>
              <LongitudeDegrees>-0.56418280117213726043701171875</LongitudeDegrees>
            </Position>
            <AltitudeMeters>6.599999904632568359375</AltitudeMeters>
            <DistanceMeters>1445.7297356183</DistanceMeters>
          </Trackpoint>
          <Trackpoint>
            <Time>2022-07-04T07:22:32.000Z</Time>
            <Position>
              <LatitudeDegrees>44.82631715945899486541748046875</LatitudeDegrees>
              <LongitudeDegrees>-0.564396791160106658935546875</LongitudeDegrees>
            </Position>
            <AltitudeMeters>6.400000095367431640625</AltitudeMeters>
            <DistanceMeters>1468.3279194642</DistanceMeters>
          </Trackpoint>
          <Trackpoint>
            <Time>2022-07-04T07:22:35.000Z</Time>
            <Position>
              <LatitudeDegrees>44.8263777606189250946044921875</LatitudeDegrees>
              <LongitudeDegrees>-0.5644351802766323089599609375</LongitudeDegrees>
            </Position>
            <AltitudeMeters>6.400000095367431640625</AltitudeMeters>
            <DistanceMeters>1475.7223168615</DistanceMeters>
          </Trackpoint>
          <Trackpoint>
            <Time>2022-07-04T07:22:36.000Z</Time>
            <Position>
              <LatitudeDegrees>44.82640416361391544342041015625</LatitudeDegrees>
              <LongitudeDegrees>-0.56442537344992160797119140625</LongitudeDegrees>
            </Position>
            <AltitudeMeters>6.19999980926513671875</AltitudeMeters>
            <DistanceMeters>1478.7602006851</DistanceMeters>
          </Trackpoint>
          <Trackpoint>
            <Time>2022-07-04T07:22:41.000Z</Time>
            <Position>
              <LatitudeDegrees>44.82653416693210601806640625</LatitudeDegrees>
              <LongitudeDegrees>-0.56426368653774261474609375</LongitudeDegrees>
            </Position>
            <AltitudeMeters>6.19999980926513671875</AltitudeMeters>
            <DistanceMeters>1498.054602243</DistanceMeters>
          </Trackpoint>
          <Trackpoint>
            <Time>2022-07-04T07:22:47.000Z</Time>
            <Position>
              <LatitudeDegrees>44.82666450552642345428466796875</LatitudeDegrees>
              <LongitudeDegrees>-0.56410677731037139892578125</LongitudeDegrees>
            </Position>
            <AltitudeMeters>6.400000095367431640625</AltitudeMeters>
            <DistanceMeters>1517.1298985791</DistanceMeters>
          </Trackpoint>
          <Trackpoint>
            <Time>2022-07-04T07:22:51.000Z</Time>
            <Position>
              <LatitudeDegrees>44.82672368176281452178955078125</LatitudeDegrees>
              <LongitudeDegrees>-0.56395615451037883758544921875</LongitudeDegrees>
            </Position>
            <AltitudeMeters>6.19999980926513671875</AltitudeMeters>
            <DistanceMeters>1530.7223731162</DistanceMeters>
          </Trackpoint>
          <Trackpoint>
            <Time>2022-07-04T07:22:52.000Z</Time>
            <Position>
              <LatitudeDegrees>44.82674061320722103118896484375</LatitudeDegrees>
              <LongitudeDegrees>-0.56392262689769268035888671875</LongitudeDegrees>
            </Position>
            <AltitudeMeters>6.19999980926513671875</AltitudeMeters>
            <DistanceMeters>1533.9727868498</DistanceMeters>
          </Trackpoint>
          <Trackpoint>
            <Time>2022-07-04T07:22:58.000Z</Time>
            <Position>
              <LatitudeDegrees>44.8268092609941959381103515625</LatitudeDegrees>
              <LongitudeDegrees>-0.5638152547180652618408203125</LongitudeDegrees>
            </Position>
            <AltitudeMeters>6</AltitudeMeters>
            <DistanceMeters>1545.3847000319</DistanceMeters>
          </Trackpoint>
          <Trackpoint>
            <Time>2022-07-04T07:23:00.000Z</Time>
            <Position>
              <LatitudeDegrees>44.82681043446063995361328125</LatitudeDegrees>
              <LongitudeDegrees>-0.56381416507065296173095703125</LongitudeDegrees>
            </Position>
            <AltitudeMeters>6</AltitudeMeters>
            <DistanceMeters>1545.5492911292</DistanceMeters>
          </Trackpoint>
          <Trackpoint>
            <Time>2022-07-04T07:23:59.000Z</Time>
            <Position>
              <LatitudeDegrees>44.82688243500888347625732421875</LatitudeDegrees>
              <LongitudeDegrees>-0.56378331966698169708251953125</LongitudeDegrees>
            </Position>
            <AltitudeMeters>6</AltitudeMeters>
            <DistanceMeters>1553.9245901577</DistanceMeters>
          </Trackpoint>
          <Trackpoint>
            <Time>2022-07-04T07:24:00.000Z</Time>
            <Position>
              <LatitudeDegrees>44.82690020464360713958740234375</LatitudeDegrees>
              <LongitudeDegrees>-0.563765801489353179931640625</LongitudeDegrees>
            </Position>
            <AltitudeMeters>6</AltitudeMeters>
            <DistanceMeters>1556.3398394995</DistanceMeters>
          </Trackpoint>
          <Trackpoint>
            <Time>2022-07-04T07:24:01.000Z</Time>
            <Position>
              <LatitudeDegrees>44.8269183933734893798828125</LatitudeDegrees>
              <LongitudeDegrees>-0.5637461878359317779541015625</LongitudeDegrees>
            </Position>
            <AltitudeMeters>6.19999980926513671875</AltitudeMeters>
            <DistanceMeters>1558.8879024821</DistanceMeters>
          </Trackpoint>
          <Trackpoint>
            <Time>2022-07-04T07:24:08.000Z</Time>
            <Position>
              <LatitudeDegrees>44.8270788230001926422119140625</LatitudeDegrees>
              <LongitudeDegrees>-0.56356689892709255218505859375</LongitudeDegrees>
            </Position>
            <AltitudeMeters>6</AltitudeMeters>
            <DistanceMeters>1581.6725265686</DistanceMeters>
          </Trackpoint>
          <Trackpoint>
            <Time>2022-07-04T07:24:11.000Z</Time>
            <Position>
              <LatitudeDegrees>44.82714830897748470306396484375</LatitudeDegrees>
              <LongitudeDegrees>-0.56347972713410854339599609375</LongitudeDegrees>
            </Position>
            <AltitudeMeters>5.80000019073486328125</AltitudeMeters>
            <DistanceMeters>1592.024334003</DistanceMeters>
          </Trackpoint>
          <Trackpoint>
            <Time>2022-07-04T07:24:13.000Z</Time>
            <Position>
              <LatitudeDegrees>44.82718820683658123016357421875</LatitudeDegrees>
              <LongitudeDegrees>-0.5634259991347789764404296875</LongitudeDegrees>
            </Position>
            <AltitudeMeters>5.599999904632568359375</AltitudeMeters>
            <DistanceMeters>1598.1651482186</DistanceMeters>
          </Trackpoint>
          <Trackpoint>
            <Time>2022-07-04T07:24:15.000Z</Time>
            <Position>
              <LatitudeDegrees>44.8272119276225566864013671875</LatitudeDegrees>
              <LongitudeDegrees>-0.5633713491261005401611328125</LongitudeDegrees>
            </Position>
            <AltitudeMeters>5.80000019073486328125</AltitudeMeters>
            <DistanceMeters>1603.2221410493</DistanceMeters>
          </Trackpoint>
          <Trackpoint>
            <Time>2022-07-04T07:24:16.000Z</Time>
            <Position>
              <LatitudeDegrees>44.8272273503243923187255859375</LatitudeDegrees>
              <LongitudeDegrees>-0.563346035778522491455078125</LongitudeDegrees>
            </Position>
            <AltitudeMeters>5.80000019073486328125</AltitudeMeters>
            <DistanceMeters>1605.8555986071</DistanceMeters>
          </Trackpoint>
          <Trackpoint>
            <Time>2022-07-04T07:24:19.000Z</Time>
            <Position>
              <LatitudeDegrees>44.827311672270298004150390625</LatitudeDegrees>
              <LongitudeDegrees>-0.563289709389209747314453125</LongitudeDegrees>
            </Position>
            <AltitudeMeters>6</AltitudeMeters>
            <DistanceMeters>1616.2409360136</DistanceMeters>
          </Trackpoint>
          <Trackpoint>
            <Time>2022-07-04T07:24:25.000Z</Time>
            <Position>
              <LatitudeDegrees>44.8274546675384044647216796875</LatitudeDegrees>
              <LongitudeDegrees>-0.563138164579868316650390625</LongitudeDegrees>
            </Position>
            <AltitudeMeters>6.19999980926513671875</AltitudeMeters>
            <DistanceMeters>1636.1512437935</DistanceMeters>
          </Trackpoint>
          <Trackpoint>
            <Time>2022-07-04T07:24:26.000Z</Time>
            <Position>
              <LatitudeDegrees>44.827481992542743682861328125</LatitudeDegrees>
              <LongitudeDegrees>-0.563107989728450775146484375</LongitudeDegrees>
            </Position>
            <AltitudeMeters>6.19999980926513671875</AltitudeMeters>
            <DistanceMeters>1640.013585866</DistanceMeters>
          </Trackpoint>
          <Trackpoint>
            <Time>2022-07-04T07:24:28.000Z</Time>
            <Position>
              <LatitudeDegrees>44.82753337360918521881103515625</LatitudeDegrees>
              <LongitudeDegrees>-0.56305409409105777740478515625</LongitudeDegrees>
            </Position>
            <AltitudeMeters>6.19999980926513671875</AltitudeMeters>
            <DistanceMeters>1647.141222927</DistanceMeters>
          </Trackpoint>
          <Trackpoint>
            <Time>2022-07-04T07:24:33.000Z</Time>
            <Position>
              <LatitudeDegrees>44.827661700546741485595703125</LatitudeDegrees>
              <LongitudeDegrees>-0.5630028806626796722412109375</LongitudeDegrees>
            </Position>
            <AltitudeMeters>6</AltitudeMeters>
            <DistanceMeters>1661.985478563</DistanceMeters>
          </Trackpoint>
          <Trackpoint>
            <Time>2022-07-04T07:24:34.000Z</Time>
            <Position>
              <LatitudeDegrees>44.8276799730956554412841796875</LatitudeDegrees>
              <LongitudeDegrees>-0.5630048923194408416748046875</LongitudeDegrees>
            </Position>
            <AltitudeMeters>6</AltitudeMeters>
            <DistanceMeters>1664.0257886474</DistanceMeters>
          </Trackpoint>
          <Trackpoint>
            <Time>2022-07-04T07:24:38.000Z</Time>
            <Position>
              <LatitudeDegrees>44.827779047191143035888671875</LatitudeDegrees>
              <LongitudeDegrees>-0.5629787407815456390380859375</LongitudeDegrees>
            </Position>
            <AltitudeMeters>5.80000019073486328125</AltitudeMeters>
            <DistanceMeters>1675.2445767048</DistanceMeters>
          </Trackpoint>
          <Trackpoint>
            <Time>2022-07-04T07:24:43.000Z</Time>
            <Position>
              <LatitudeDegrees>44.82791441492736339569091796875</LatitudeDegrees>
              <LongitudeDegrees>-0.56284748017787933349609375</LongitudeDegrees>
            </Position>
            <AltitudeMeters>5.80000019073486328125</AltitudeMeters>
            <DistanceMeters>1693.5304920673</DistanceMeters>
          </Trackpoint>
          <Trackpoint>
            <Time>2022-07-04T07:24:50.000Z</Time>
            <Position>
              <LatitudeDegrees>44.82811876572668552398681640625</LatitudeDegrees>
              <LongitudeDegrees>-0.56256526149809360504150390625</LongitudeDegrees>
            </Position>
            <AltitudeMeters>6.19999980926513671875</AltitudeMeters>
            <DistanceMeters>1725.3679869567</DistanceMeters>
          </Trackpoint>
          <Trackpoint>
            <Time>2022-07-04T07:24:58.000Z</Time>
            <Position>
              <LatitudeDegrees>44.82833149842917919158935546875</LatitudeDegrees>
              <LongitudeDegrees>-0.56232302449643611907958984375</LongitudeDegrees>
            </Position>
            <AltitudeMeters>6</AltitudeMeters>
            <DistanceMeters>1755.8026566825</DistanceMeters>
          </Trackpoint>
          <Trackpoint>
            <Time>2022-07-04T07:25:03.000Z</Time>
            <Position>
              <LatitudeDegrees>44.8284566402435302734375</LatitudeDegrees>
              <LongitudeDegrees>-0.56219260208308696746826171875</LongitudeDegrees>
            </Position>
            <AltitudeMeters>5.80000019073486328125</AltitudeMeters>
            <DistanceMeters>1773.123083918</DistanceMeters>
          </Trackpoint>
          <Trackpoint>
            <Time>2022-07-04T07:25:04.000Z</Time>
            <Position>
              <LatitudeDegrees>44.82847315259277820587158203125</LatitudeDegrees>
              <LongitudeDegrees>-0.5621816217899322509765625</LongitudeDegrees>
            </Position>
            <AltitudeMeters>5.80000019073486328125</AltitudeMeters>
            <DistanceMeters>1775.1567444136</DistanceMeters>
          </Trackpoint>
          <Trackpoint>
            <Time>2022-07-04T07:25:05.000Z</Time>
            <Position>
              <LatitudeDegrees>44.82847633771598339080810546875</LatitudeDegrees>
              <LongitudeDegrees>-0.56219302117824554443359375</LongitudeDegrees>
            </Position>
            <AltitudeMeters>5.80000019073486328125</AltitudeMeters>
            <DistanceMeters>1776.1258305554</DistanceMeters>
          </Trackpoint>
          <Trackpoint>
            <Time>2022-07-04T07:25:08.000Z</Time>
            <Position>
              <LatitudeDegrees>44.82848689891397953033447265625</LatitudeDegrees>
              <LongitudeDegrees>-0.562235601246356964111328125</LongitudeDegrees>
            </Position>
            <AltitudeMeters>6</AltitudeMeters>
            <DistanceMeters>1779.6864804016</DistanceMeters>
          </Trackpoint>
          <Trackpoint>
            <Time>2022-07-04T07:25:10.000Z</Time>
            <Position>
              <LatitudeDegrees>44.8284826241433620452880859375</LatitudeDegrees>
              <LongitudeDegrees>-0.56225144304335117340087890625</LongitudeDegrees>
            </Position>
            <AltitudeMeters>6</AltitudeMeters>
            <DistanceMeters>1781.0236247976</DistanceMeters>
          </Trackpoint>
          <Trackpoint>
            <Time>2022-07-04T07:25:14.000Z</Time>
            <Position>
              <LatitudeDegrees>44.8285443149507045745849609375</LatitudeDegrees>
              <LongitudeDegrees>-0.562409944832324981689453125</LongitudeDegrees>
            </Position>
            <AltitudeMeters>6</AltitudeMeters>
            <DistanceMeters>1795.2953592497</DistanceMeters>
          </Trackpoint>
          <Trackpoint>
            <Time>2022-07-04T07:25:21.000Z</Time>
            <Position>
              <LatitudeDegrees>44.82863659970462322235107421875</LatitudeDegrees>
              <LongitudeDegrees>-0.562739856541156768798828125</LongitudeDegrees>
            </Position>
            <AltitudeMeters>6.599999904632568359375</AltitudeMeters>
            <DistanceMeters>1823.2900422166</DistanceMeters>
          </Trackpoint>
          <Trackpoint>
            <Time>2022-07-04T07:25:24.000Z</Time>
            <Position>
              <LatitudeDegrees>44.82867213897407054901123046875</LatitudeDegrees>
              <LongitudeDegrees>-0.56283499114215373992919921875</LongitudeDegrees>
            </Position>
            <AltitudeMeters>6.80000019073486328125</AltitudeMeters>
            <DistanceMeters>1831.7772631866</DistanceMeters>
          </Trackpoint>
          <Trackpoint>
            <Time>2022-07-04T07:25:30.000Z</Time>
            <Position>
              <LatitudeDegrees>44.82870952226221561431884765625</LatitudeDegrees>
              <LongitudeDegrees>-0.5630595423281192779541015625</LongitudeDegrees>
            </Position>
            <AltitudeMeters>7</AltitudeMeters>
            <DistanceMeters>1849.9842427895</DistanceMeters>
          </Trackpoint>
          <Trackpoint>
            <Time>2022-07-04T07:25:33.000Z</Time>
            <Position>
              <LatitudeDegrees>44.82873248867690563201904296875</LatitudeDegrees>
              <LongitudeDegrees>-0.56311033666133880615234375</LongitudeDegrees>
            </Position>
            <AltitudeMeters>7.19999980926513671875</AltitudeMeters>
            <DistanceMeters>1854.7393780573</DistanceMeters>
          </Trackpoint>
          <Trackpoint>
            <Time>2022-07-04T07:25:34.000Z</Time>
            <Position>
              <LatitudeDegrees>44.828735925257205963134765625</LatitudeDegrees>
              <LongitudeDegrees>-0.56314562447369098663330078125</LongitudeDegrees>
            </Position>
            <AltitudeMeters>7.19999980926513671875</AltitudeMeters>
            <DistanceMeters>1857.5486994722</DistanceMeters>
          </Trackpoint>
          <Trackpoint>
            <Time>2022-07-04T07:25:37.000Z</Time>
            <Position>
              <LatitudeDegrees>44.8287736438214778900146484375</LatitudeDegrees>
              <LongitudeDegrees>-0.56327168829739093780517578125</LongitudeDegrees>
            </Position>
            <AltitudeMeters>7.400000095367431640625</AltitudeMeters>
            <DistanceMeters>1868.3491868456</DistanceMeters>
          </Trackpoint>
          <Trackpoint>
            <Time>2022-07-04T07:25:40.000Z</Time>
            <Position>
              <LatitudeDegrees>44.82879719696938991546630859375</LatitudeDegrees>
              <LongitudeDegrees>-0.5633673258125782012939453125</LongitudeDegrees>
            </Position>
            <AltitudeMeters>7.599999904632568359375</AltitudeMeters>
            <DistanceMeters>1876.3410408663</DistanceMeters>
          </Trackpoint>
          <Trackpoint>
            <Time>2022-07-04T07:25:46.000Z</Time>
            <Position>
              <LatitudeDegrees>44.82881949283182621002197265625</LatitudeDegrees>
              <LongitudeDegrees>-0.563608221709728240966796875</LongitudeDegrees>
            </Position>
            <AltitudeMeters>7.80000019073486328125</AltitudeMeters>
            <DistanceMeters>1895.5176107656</DistanceMeters>
          </Trackpoint>
          <Trackpoint>
            <Time>2022-07-04T07:25:54.000Z</Time>
            <Position>
              <LatitudeDegrees>44.82889157719910144805908203125</LatitudeDegrees>
              <LongitudeDegrees>-0.5639121495187282562255859375</LongitudeDegrees>
            </Position>
            <AltitudeMeters>8.19999980926513671875</AltitudeMeters>
            <DistanceMeters>1920.8147145016</DistanceMeters>
          </Trackpoint>
          <Trackpoint>
            <Time>2022-07-04T07:26:02.000Z</Time>
            <Position>
              <LatitudeDegrees>44.82897589914500713348388671875</LatitudeDegrees>
              <LongitudeDegrees>-0.564227811992168426513671875</LongitudeDegrees>
            </Position>
            <AltitudeMeters>8.3999996185302734375</AltitudeMeters>
            <DistanceMeters>1947.4411930853</DistanceMeters>
          </Trackpoint>
          <Trackpoint>
            <Time>2022-07-04T07:26:10.000Z</Time>
            <Position>
              <LatitudeDegrees>44.82902300544083118438720703125</LatitudeDegrees>
              <LongitudeDegrees>-0.564487315714359283447265625</LongitudeDegrees>
            </Position>
            <AltitudeMeters>8.6000003814697265625</AltitudeMeters>
            <DistanceMeters>1968.5858648703</DistanceMeters>
          </Trackpoint>
          <Trackpoint>
            <Time>2022-07-04T07:26:12.000Z</Time>
            <Position>
              <LatitudeDegrees>44.82904228381812572479248046875</LatitudeDegrees>
              <LongitudeDegrees>-0.56455546058714389801025390625</LongitudeDegrees>
            </Position>
            <AltitudeMeters>8.80000019073486328125</AltitudeMeters>
            <DistanceMeters>1974.3778191164</DistanceMeters>
          </Trackpoint>
          <Trackpoint>
            <Time>2022-07-04T07:26:18.000Z</Time>
            <Position>
              <LatitudeDegrees>44.829085953533649444580078125</LatitudeDegrees>
              <LongitudeDegrees>-0.56477129459381103515625</LongitudeDegrees>
            </Position>
            <AltitudeMeters>9.3999996185302734375</AltitudeMeters>
            <DistanceMeters>1992.0951416383</DistanceMeters>
          </Trackpoint>
          <Trackpoint>
            <Time>2022-07-04T07:26:25.000Z</Time>
            <Position>
              <LatitudeDegrees>44.82914035208523273468017578125</LatitudeDegrees>
              <LongitudeDegrees>-0.56500121019780635833740234375</LongitudeDegrees>
            </Position>
            <AltitudeMeters>9.6000003814697265625</AltitudeMeters>
            <DistanceMeters>2011.227396569</DistanceMeters>
          </Trackpoint>
          <Trackpoint>
            <Time>2022-07-04T07:26:27.000Z</Time>
            <Position>
              <LatitudeDegrees>44.8291605524718761444091796875</LatitudeDegrees>
              <LongitudeDegrees>-0.56508016772568225860595703125</LongitudeDegrees>
            </Position>
            <AltitudeMeters>9.6000003814697265625</AltitudeMeters>
            <DistanceMeters>2017.8527419633</DistanceMeters>
          </Trackpoint>
          <Trackpoint>
            <Time>2022-07-04T07:26:31.000Z</Time>
            <Position>
              <LatitudeDegrees>44.82919785194098949432373046875</LatitudeDegrees>
              <LongitudeDegrees>-0.56522450409829616546630859375</LongitudeDegrees>
            </Position>
            <AltitudeMeters>9.80000019073486328125</AltitudeMeters>
            <DistanceMeters>2029.9789847785</DistanceMeters>
          </Trackpoint>
          <Trackpoint>
            <Time>2022-07-04T07:26:32.000Z</Time>
            <Position>
              <LatitudeDegrees>44.829205982387065887451171875</LatitudeDegrees>
              <LongitudeDegrees>-0.56525317020714282989501953125</LongitudeDegrees>
            </Position>
            <AltitudeMeters>9.6000003814697265625</AltitudeMeters>
            <DistanceMeters>2032.4165635568</DistanceMeters>
          </Trackpoint>
          <Trackpoint>
            <Time>2022-07-04T07:26:34.000Z</Time>
            <Position>
              <LatitudeDegrees>44.82922266237437725067138671875</LatitudeDegrees>
              <LongitudeDegrees>-0.56532382965087890625</LongitudeDegrees>
            </Position>
            <AltitudeMeters>9.80000019073486328125</AltitudeMeters>
            <DistanceMeters>2038.2951775559</DistanceMeters>
          </Trackpoint>
          <Trackpoint>
            <Time>2022-07-04T07:26:36.000Z</Time>
            <Position>
              <LatitudeDegrees>44.82923892326653003692626953125</LatitudeDegrees>
              <LongitudeDegrees>-0.56539826095104217529296875</LongitudeDegrees>
            </Position>
            <AltitudeMeters>9.80000019073486328125</AltitudeMeters>
            <DistanceMeters>2044.4433398825</DistanceMeters>
          </Trackpoint>
          <Trackpoint>
            <Time>2022-07-04T07:26:41.000Z</Time>
            <Position>
              <LatitudeDegrees>44.8292695172131061553955078125</LatitudeDegrees>
              <LongitudeDegrees>-0.5655885301530361175537109375</LongitudeDegrees>
            </Position>
            <AltitudeMeters>10</AltitudeMeters>
            <DistanceMeters>2059.84411869</DistanceMeters>
          </Trackpoint>
          <Trackpoint>
            <Time>2022-07-04T07:26:44.000Z</Time>
            <Position>
              <LatitudeDegrees>44.82929340563714504241943359375</LatitudeDegrees>
              <LongitudeDegrees>-0.56569908745586872100830078125</LongitudeDegrees>
            </Position>
            <AltitudeMeters>10</AltitudeMeters>
            <DistanceMeters>2068.9676730774</DistanceMeters>
          </Trackpoint>
          <Trackpoint>
            <Time>2022-07-04T07:26:45.000Z</Time>
            <Position>
              <LatitudeDegrees>44.82930446974933147430419921875</LatitudeDegrees>
              <LongitudeDegrees>-0.56573529727756977081298828125</LongitudeDegrees>
            </Position>
            <AltitudeMeters>10.19999980926513671875</AltitudeMeters>
            <DistanceMeters>2072.0804326288</DistanceMeters>
          </Trackpoint>
          <Trackpoint>
            <Time>2022-07-04T07:26:52.000Z</Time>
            <Position>
              <LatitudeDegrees>44.829367585480213165283203125</LatitudeDegrees>
              <LongitudeDegrees>-0.56600184179842472076416015625</LongitudeDegrees>
            </Position>
            <AltitudeMeters>10.3999996185302734375</AltitudeMeters>
            <DistanceMeters>2094.2622000353</DistanceMeters>
          </Trackpoint>
          <Trackpoint>
            <Time>2022-07-04T07:27:01.000Z</Time>
            <Position>
              <LatitudeDegrees>44.8294396698474884033203125</LatitudeDegrees>
              <LongitudeDegrees>-0.56631767190992832183837890625</LongitudeDegrees>
            </Position>
            <AltitudeMeters>10.80000019073486328125</AltitudeMeters>
            <DistanceMeters>2120.452017647</DistanceMeters>
          </Trackpoint>
          <Trackpoint>
            <Time>2022-07-04T07:27:06.000Z</Time>
            <Position>
              <LatitudeDegrees>44.82946942560374736785888671875</LatitudeDegrees>
              <LongitudeDegrees>-0.566429905593395233154296875</LongitudeDegrees>
            </Position>
            <AltitudeMeters>10.80000019073486328125</AltitudeMeters>
            <DistanceMeters>2129.909921075</DistanceMeters>
          </Trackpoint>
          <Trackpoint>
            <Time>2022-07-04T07:27:09.000Z</Time>
            <Position>
              <LatitudeDegrees>44.82947118580341339111328125</LatitudeDegrees>
              <LongitudeDegrees>-0.56643434800207614898681640625</LongitudeDegrees>
            </Position>
            <AltitudeMeters>10.6000003814697265625</AltitudeMeters>
            <DistanceMeters>2130.3130852797</DistanceMeters>
          </Trackpoint>
          <Trackpoint>
            <Time>2022-07-04T07:27:28.000Z</Time>
            <Position>
              <LatitudeDegrees>44.8294975049793720245361328125</LatitudeDegrees>
              <LongitudeDegrees>-0.566610284149646759033203125</LongitudeDegrees>
            </Position>
            <AltitudeMeters>11</AltitudeMeters>
            <DistanceMeters>2144.5061450384</DistanceMeters>
          </Trackpoint>
          <Trackpoint>
            <Time>2022-07-04T07:27:30.000Z</Time>
            <Position>
              <LatitudeDegrees>44.829515777528285980224609375</LatitudeDegrees>
              <LongitudeDegrees>-0.56666635908186435699462890625</LongitudeDegrees>
            </Position>
            <AltitudeMeters>11</AltitudeMeters>
            <DistanceMeters>2149.3775966593</DistanceMeters>
          </Trackpoint>
          <Trackpoint>
            <Time>2022-07-04T07:27:34.000Z</Time>
            <Position>
              <LatitudeDegrees>44.82955039478838443756103515625</LatitudeDegrees>
              <LongitudeDegrees>-0.56679024361073970794677734375</LongitudeDegrees>
            </Position>
            <AltitudeMeters>11.19999980926513671875</AltitudeMeters>
            <DistanceMeters>2159.888255783</DistanceMeters>
          </Trackpoint>
          <Trackpoint>
            <Time>2022-07-04T07:27:40.000Z</Time>
            <Position>
              <LatitudeDegrees>44.82959984801709651947021484375</LatitudeDegrees>
              <LongitudeDegrees>-0.56696332991123199462890625</LongitudeDegrees>
            </Position>
            <AltitudeMeters>11.3999996185302734375</AltitudeMeters>
            <DistanceMeters>2174.6180095732</DistanceMeters>
          </Trackpoint>
          <Trackpoint>
            <Time>2022-07-04T07:27:41.000Z</Time>
            <Position>
              <LatitudeDegrees>44.82960068620741367340087890625</LatitudeDegrees>
              <LongitudeDegrees>-0.5669973604381084442138671875</LongitudeDegrees>
            </Position>
            <AltitudeMeters>11.3999996185302734375</AltitudeMeters>
            <DistanceMeters>2177.3057709382</DistanceMeters>
          </Trackpoint>
          <Trackpoint>
            <Time>2022-07-04T07:27:43.000Z</Time>
            <Position>
              <LatitudeDegrees>44.82960772700607776641845703125</LatitudeDegrees>
              <LongitudeDegrees>-0.56706969626247882843017578125</LongitudeDegrees>
            </Position>
            <AltitudeMeters>11.3999996185302734375</AltitudeMeters>
            <DistanceMeters>2183.0688101677</DistanceMeters>
          </Trackpoint>
          <Trackpoint>
            <Time>2022-07-04T07:27:45.000Z</Time>
            <Position>
              <LatitudeDegrees>44.8296289332211017608642578125</LatitudeDegrees>
              <LongitudeDegrees>-0.5671485699713230133056640625</LongitudeDegrees>
            </Position>
            <AltitudeMeters>11.3999996185302734375</AltitudeMeters>
            <DistanceMeters>2189.7274643365</DistanceMeters>
          </Trackpoint>
          <Trackpoint>
            <Time>2022-07-04T07:27:50.000Z</Time>
            <Position>
              <LatitudeDegrees>44.8296798951923847198486328125</LatitudeDegrees>
              <LongitudeDegrees>-0.56738016195595264434814453125</LongitudeDegrees>
            </Position>
            <AltitudeMeters>11.6000003814697265625</AltitudeMeters>
            <DistanceMeters>2208.8682130544</DistanceMeters>
          </Trackpoint>
          <Trackpoint>
            <Time>2022-07-04T07:27:51.000Z</Time>
            <Position>
              <LatitudeDegrees>44.82969121076166629791259765625</LatitudeDegrees>
              <LongitudeDegrees>-0.5674409307539463043212890625</LongitudeDegrees>
            </Position>
            <AltitudeMeters>11.6000003814697265625</AltitudeMeters>
            <DistanceMeters>2213.8269324614</DistanceMeters>
          </Trackpoint>
          <Trackpoint>
            <Time>2022-07-04T07:27:56.000Z</Time>
            <Position>
              <LatitudeDegrees>44.8297385685145854949951171875</LatitudeDegrees>
              <LongitudeDegrees>-0.5676957406103610992431640625</LongitudeDegrees>
            </Position>
            <AltitudeMeters>11.80000019073486328125</AltitudeMeters>
            <DistanceMeters>2234.6197677655</DistanceMeters>
          </Trackpoint>
          <Trackpoint>
            <Time>2022-07-04T07:27:57.000Z</Time>
            <Position>
              <LatitudeDegrees>44.829746447503566741943359375</LatitudeDegrees>
              <LongitudeDegrees>-0.5677363090217113494873046875</LongitudeDegrees>
            </Position>
            <AltitudeMeters>12</AltitudeMeters>
            <DistanceMeters>2237.9416276985</DistanceMeters>
          </Trackpoint>
          <Trackpoint>
            <Time>2022-07-04T07:28:02.000Z</Time>
            <Position>
              <LatitudeDegrees>44.8298113234341144561767578125</LatitudeDegrees>
              <LongitudeDegrees>-0.5679733492434024810791015625</LongitudeDegrees>
            </Position>
            <AltitudeMeters>12</AltitudeMeters>
            <DistanceMeters>2257.9978931852</DistanceMeters>
          </Trackpoint>
          <Trackpoint>
            <Time>2022-07-04T07:28:04.000Z</Time>
            <Position>
              <LatitudeDegrees>44.82982967980206012725830078125</LatitudeDegrees>
              <LongitudeDegrees>-0.568065382540225982666015625</LongitudeDegrees>
            </Position>
            <AltitudeMeters>12.19999980926513671875</AltitudeMeters>
            <DistanceMeters>2265.54459393</DistanceMeters>
          </Trackpoint>
          <Trackpoint>
            <Time>2022-07-04T07:28:11.000Z</Time>
            <Position>
              <LatitudeDegrees>44.82991081662476062774658203125</LatitudeDegrees>
              <LongitudeDegrees>-0.5683820508420467376708984375</LongitudeDegrees>
            </Position>
            <AltitudeMeters>12.3999996185302734375</AltitudeMeters>
            <DistanceMeters>2292.1223615155</DistanceMeters>
          </Trackpoint>
          <Trackpoint>
            <Time>2022-07-04T07:28:13.000Z</Time>
            <Position>
              <LatitudeDegrees>44.8299340344965457916259765625</LatitudeDegrees>
              <LongitudeDegrees>-0.5684745870530605316162109375</LongitudeDegrees>
            </Position>
            <AltitudeMeters>12.3999996185302734375</AltitudeMeters>
            <DistanceMeters>2299.8703901809</DistanceMeters>
          </Trackpoint>
          <Trackpoint>
            <Time>2022-07-04T07:28:19.000Z</Time>
            <Position>
              <LatitudeDegrees>44.829979129135608673095703125</LatitudeDegrees>
              <LongitudeDegrees>-0.5687396228313446044921875</LongitudeDegrees>
            </Position>
            <AltitudeMeters>12.19999980926513671875</AltitudeMeters>
            <DistanceMeters>2321.3846565724</DistanceMeters>
          </Trackpoint>
          <Trackpoint>
            <Time>2022-07-04T07:28:20.000Z</Time>
            <Position>
              <LatitudeDegrees>44.82998885214328765869140625</LatitudeDegrees>
              <LongitudeDegrees>-0.568781532347202301025390625</LongitudeDegrees>
            </Position>
            <AltitudeMeters>12.3999996185302734375</AltitudeMeters>
            <DistanceMeters>2324.8658004344</DistanceMeters>
          </Trackpoint>
          <Trackpoint>
            <Time>2022-07-04T07:28:27.000Z</Time>
            <Position>
              <LatitudeDegrees>44.830050878226757049560546875</LatitudeDegrees>
              <LongitudeDegrees>-0.56906358338892459869384765625</LongitudeDegrees>
            </Position>
            <AltitudeMeters>12.6000003814697265625</AltitudeMeters>
            <DistanceMeters>2348.1754486435</DistanceMeters>
          </Trackpoint>
          <Trackpoint>
            <Time>2022-07-04T07:28:35.000Z</Time>
            <Position>
              <LatitudeDegrees>44.830129332840442657470703125</LatitudeDegrees>
              <LongitudeDegrees>-0.56936583481729030609130859375</LongitudeDegrees>
            </Position>
            <AltitudeMeters>13</AltitudeMeters>
            <DistanceMeters>2373.5815476006</DistanceMeters>
          </Trackpoint>
          <Trackpoint>
            <Time>2022-07-04T07:28:42.000Z</Time>
            <Position>
              <LatitudeDegrees>44.83019270002841949462890625</LatitudeDegrees>
              <LongitudeDegrees>-0.56967772543430328369140625</LongitudeDegrees>
            </Position>
            <AltitudeMeters>13</AltitudeMeters>
            <DistanceMeters>2399.1912030478</DistanceMeters>
          </Trackpoint>
          <Trackpoint>
            <Time>2022-07-04T07:28:52.000Z</Time>
            <Position>
              <LatitudeDegrees>44.830292277038097381591796875</LatitudeDegrees>
              <LongitudeDegrees>-0.570128671824932098388671875</LongitudeDegrees>
            </Position>
            <AltitudeMeters>13.3999996185302734375</AltitudeMeters>
            <DistanceMeters>2436.4723279775</DistanceMeters>
          </Trackpoint>
          <Trackpoint>
            <Time>2022-07-04T07:28:58.000Z</Time>
            <Position>
              <LatitudeDegrees>44.83034382574260234832763671875</LatitudeDegrees>
              <LongitudeDegrees>-0.57040301151573657989501953125</LongitudeDegrees>
            </Position>
            <AltitudeMeters>13.6000003814697265625</AltitudeMeters>
            <DistanceMeters>2458.8746617516</DistanceMeters>
          </Trackpoint>
          <Trackpoint>
            <Time>2022-07-04T07:29:06.000Z</Time>
            <Position>
              <LatitudeDegrees>44.83042202889919281005859375</LatitudeDegrees>
              <LongitudeDegrees>-0.57075706310570240020751953125</LongitudeDegrees>
            </Position>
            <AltitudeMeters>13.80000019073486328125</AltitudeMeters>
            <DistanceMeters>2488.1458206497</DistanceMeters>
          </Trackpoint>
          <Trackpoint>
            <Time>2022-07-04T07:29:11.000Z</Time>
            <Position>
              <LatitudeDegrees>44.83046754263341426849365234375</LatitudeDegrees>
              <LongitudeDegrees>-0.57098387740552425384521484375</LongitudeDegrees>
            </Position>
            <AltitudeMeters>14.19999980926513671875</AltitudeMeters>
            <DistanceMeters>2506.7526239985</DistanceMeters>
          </Trackpoint>
          <Trackpoint>
            <Time>2022-07-04T07:29:14.000Z</Time>
            <Position>
              <LatitudeDegrees>44.83050509355962276458740234375</LatitudeDegrees>
              <LongitudeDegrees>-0.5711160600185394287109375</LongitudeDegrees>
            </Position>
            <AltitudeMeters>14.19999980926513671875</AltitudeMeters>
            <DistanceMeters>2517.9927218418</DistanceMeters>
          </Trackpoint>
          <Trackpoint>
            <Time>2022-07-04T07:29:23.000Z</Time>
            <Position>
              <LatitudeDegrees>44.8305898346006870269775390625</LatitudeDegrees>
              <LongitudeDegrees>-0.5714957602322101593017578125</LongitudeDegrees>
            </Position>
            <AltitudeMeters>14.3999996185302734375</AltitudeMeters>
            <DistanceMeters>2549.4133879331</DistanceMeters>
          </Trackpoint>
          <Trackpoint>
            <Time>2022-07-04T07:29:31.000Z</Time>
            <Position>
              <LatitudeDegrees>44.83063283376395702362060546875</LatitudeDegrees>
              <LongitudeDegrees>-0.57182407937943935394287109375</LongitudeDegrees>
            </Position>
            <AltitudeMeters>14.80000019073486328125</AltitudeMeters>
            <DistanceMeters>2575.7675014566</DistanceMeters>
          </Trackpoint>
          <Trackpoint>
            <Time>2022-07-04T07:29:36.000Z</Time>
            <Position>
              <LatitudeDegrees>44.830702655017375946044921875</LatitudeDegrees>
              <LongitudeDegrees>-0.57203044183552265167236328125</LongitudeDegrees>
            </Position>
            <AltitudeMeters>14.6000003814697265625</AltitudeMeters>
            <DistanceMeters>2593.8155738602</DistanceMeters>
          </Trackpoint>
          <Trackpoint>
            <Time>2022-07-04T07:29:37.000Z</Time>
            <Position>
              <LatitudeDegrees>44.83072788454592227935791015625</LatitudeDegrees>
              <LongitudeDegrees>-0.57204519398510456085205078125</LongitudeDegrees>
            </Position>
            <AltitudeMeters>14.6000003814697265625</AltitudeMeters>
            <DistanceMeters>2596.8564287201</DistanceMeters>
          </Trackpoint>
          <Trackpoint>
            <Time>2022-07-04T07:29:40.000Z</Time>
            <Position>
              <LatitudeDegrees>44.83080432750284671783447265625</LatitudeDegrees>
              <LongitudeDegrees>-0.57203345932066440582275390625</LongitudeDegrees>
            </Position>
            <AltitudeMeters>14.6000003814697265625</AltitudeMeters>
            <DistanceMeters>2605.4151657831</DistanceMeters>
          </Trackpoint>
          <Trackpoint>
            <Time>2022-07-04T07:29:43.000Z</Time>
            <Position>
              <LatitudeDegrees>44.83085378073155879974365234375</LatitudeDegrees>
              <LongitudeDegrees>-0.57201434858143329620361328125</LongitudeDegrees>
            </Position>
            <AltitudeMeters>14.19999980926513671875</AltitudeMeters>
            <DistanceMeters>2611.1215180029</DistanceMeters>
          </Trackpoint>
          <Trackpoint>
            <Time>2022-07-04T07:29:45.000Z</Time>
            <Position>
              <LatitudeDegrees>44.83086920343339443206787109375</LatitudeDegrees>
              <LongitudeDegrees>-0.57203245349228382110595703125</LongitudeDegrees>
            </Position>
            <AltitudeMeters>14.19999980926513671875</AltitudeMeters>
            <DistanceMeters>2613.3541402721</DistanceMeters>
          </Trackpoint>
          <Trackpoint>
            <Time>2022-07-04T07:29:47.000Z</Time>
            <Position>
              <LatitudeDegrees>44.83088093809783458709716796875</LatitudeDegrees>
              <LongitudeDegrees>-0.5720575153827667236328125</LongitudeDegrees>
            </Position>
            <AltitudeMeters>14.19999980926513671875</AltitudeMeters>
            <DistanceMeters>2615.7279068363</DistanceMeters>
          </Trackpoint>
          <Trackpoint>
            <Time>2022-07-04T07:29:51.000Z</Time>
            <Position>
              <LatitudeDegrees>44.83089099638164043426513671875</LatitudeDegrees>
              <LongitudeDegrees>-0.57212515734136104583740234375</LongitudeDegrees>
            </Position>
            <AltitudeMeters>14.3999996185302734375</AltitudeMeters>
            <DistanceMeters>2621.1834665655</DistanceMeters>
          </Trackpoint>
          <Trackpoint>
            <Time>2022-07-04T07:29:59.000Z</Time>
            <Position>
              <LatitudeDegrees>44.83088915236294269561767578125</LatitudeDegrees>
              <LongitudeDegrees>-0.5722155980765819549560546875</LongitudeDegrees>
            </Position>
            <AltitudeMeters>14.19999980926513671875</AltitudeMeters>
            <DistanceMeters>2628.3262903704</DistanceMeters>
          </Trackpoint>
          <Trackpoint>
            <Time>2022-07-04T07:34:39.000Z</Time>
            <Position>
              <LatitudeDegrees>44.831071794033050537109375</LatitudeDegrees>
              <LongitudeDegrees>-0.57263779453933238983154296875</LongitudeDegrees>
            </Position>
            <AltitudeMeters>12.80000019073486328125</AltitudeMeters>
            <DistanceMeters>2667.362727965</DistanceMeters>
          </Trackpoint>
          <Trackpoint>
            <Time>2022-07-04T07:34:41.000Z</Time>
            <Position>
              <LatitudeDegrees>44.8311138711869716644287109375</LatitudeDegrees>
              <LongitudeDegrees>-0.57265874929726123809814453125</LongitudeDegrees>
            </Position>
            <AltitudeMeters>12.80000019073486328125</AltitudeMeters>
            <DistanceMeters>2672.3296353373</DistanceMeters>
          </Trackpoint>
          <Trackpoint>
            <Time>2022-07-04T07:34:45.000Z</Time>
            <Position>
              <LatitudeDegrees>44.831217639148235321044921875</LatitudeDegrees>
              <LongitudeDegrees>-0.5726866610348224639892578125</LongitudeDegrees>
            </Position>
            <AltitudeMeters>12.6000003814697265625</AltitudeMeters>
            <DistanceMeters>2684.0876313552</DistanceMeters>
          </Trackpoint>
          <Trackpoint>
            <Time>2022-07-04T07:34:48.000Z</Time>
            <Position>
              <LatitudeDegrees>44.8312976025044918060302734375</LatitudeDegrees>
              <LongitudeDegrees>-0.5726913549005985260009765625</LongitudeDegrees>
            </Position>
            <AltitudeMeters>12.19999980926513671875</AltitudeMeters>
            <DistanceMeters>2692.9958473264</DistanceMeters>
          </Trackpoint>
          <Trackpoint>
            <Time>2022-07-04T07:34:54.000Z</Time>
            <Position>
              <LatitudeDegrees>44.83146004378795623779296875</LatitudeDegrees>
              <LongitudeDegrees>-0.5727352760732173919677734375</LongitudeDegrees>
            </Position>
            <AltitudeMeters>12</AltitudeMeters>
            <DistanceMeters>2711.4052959607</DistanceMeters>
          </Trackpoint>
          <Trackpoint>
            <Time>2022-07-04T07:34:57.000Z</Time>
            <Position>
              <LatitudeDegrees>44.831530116498470306396484375</LatitudeDegrees>
              <LongitudeDegrees>-0.5727661214768886566162109375</LongitudeDegrees>
            </Position>
            <AltitudeMeters>11.80000019073486328125</AltitudeMeters>
            <DistanceMeters>2719.575383174</DistanceMeters>
          </Trackpoint>
          <Trackpoint>
            <Time>2022-07-04T07:35:04.000Z</Time>
            <Position>
              <LatitudeDegrees>44.83168543316423892974853515625</LatitudeDegrees>
              <LongitudeDegrees>-0.5728197656571865081787109375</LongitudeDegrees>
            </Position>
            <AltitudeMeters>11.80000019073486328125</AltitudeMeters>
            <DistanceMeters>2737.3735595316</DistanceMeters>
          </Trackpoint>
          <Trackpoint>
            <Time>2022-07-04T07:35:10.000Z</Time>
            <Position>
              <LatitudeDegrees>44.8318571783602237701416015625</LatitudeDegrees>
              <LongitudeDegrees>-0.5729055963456630706787109375</LongitudeDegrees>
            </Position>
            <AltitudeMeters>11.80000019073486328125</AltitudeMeters>
            <DistanceMeters>2757.654139451</DistanceMeters>
          </Trackpoint>
          <Trackpoint>
            <Time>2022-07-04T07:35:16.000Z</Time>
            <Position>
              <LatitudeDegrees>44.83203127048909664154052734375</LatitudeDegrees>
              <LongitudeDegrees>-0.57288791052997112274169921875</LongitudeDegrees>
            </Position>
            <AltitudeMeters>11.6000003814697265625</AltitudeMeters>
            <DistanceMeters>2777.0810026795</DistanceMeters>
          </Trackpoint>
          <Trackpoint>
            <Time>2022-07-04T07:35:19.000Z</Time>
            <Position>
              <LatitudeDegrees>44.83212280087172985076904296875</LatitudeDegrees>
              <LongitudeDegrees>-0.57291925884783267974853515625</LongitudeDegrees>
            </Position>
            <AltitudeMeters>11.19999980926513671875</AltitudeMeters>
            <DistanceMeters>2787.5649947854</DistanceMeters>
          </Trackpoint>
          <Trackpoint>
            <Time>2022-07-04T07:35:21.000Z</Time>
            <Position>
              <LatitudeDegrees>44.8322050273418426513671875</LatitudeDegrees>
              <LongitudeDegrees>-0.57291506789624691009521484375</LongitudeDegrees>
            </Position>
            <AltitudeMeters>11.19999980926513671875</AltitudeMeters>
            <DistanceMeters>2796.7231250537</DistanceMeters>
          </Trackpoint>
          <Trackpoint>
            <Time>2022-07-04T07:35:28.000Z</Time>
            <Position>
              <LatitudeDegrees>44.83245355077087879180908203125</LatitudeDegrees>
              <LongitudeDegrees>-0.57299570180475711822509765625</LongitudeDegrees>
            </Position>
            <AltitudeMeters>11.19999980926513671875</AltitudeMeters>
            <DistanceMeters>2825.1070176722</DistanceMeters>
          </Trackpoint>
          <Trackpoint>
            <Time>2022-07-04T07:35:34.000Z</Time>
            <Position>
              <LatitudeDegrees>44.8326953686773777008056640625</LatitudeDegrees>
              <LongitudeDegrees>-0.57305806316435337066650390625</LongitudeDegrees>
            </Position>
            <AltitudeMeters>11</AltitudeMeters>
            <DistanceMeters>2852.4681115376</DistanceMeters>
          </Trackpoint>
          <Trackpoint>
            <Time>2022-07-04T07:35:35.000Z</Time>
            <Position>
              <LatitudeDegrees>44.83273099176585674285888671875</LatitudeDegrees>
              <LongitudeDegrees>-0.57306191883981227874755859375</LongitudeDegrees>
            </Position>
            <AltitudeMeters>11</AltitudeMeters>
            <DistanceMeters>2856.4456351302</DistanceMeters>
          </Trackpoint>
          <Trackpoint>
            <Time>2022-07-04T07:35:39.000Z</Time>
            <Position>
              <LatitudeDegrees>44.83284699730575084686279296875</LatitudeDegrees>
              <LongitudeDegrees>-0.573067031800746917724609375</LongitudeDegrees>
            </Position>
            <AltitudeMeters>10.80000019073486328125</AltitudeMeters>
            <DistanceMeters>2869.3636772684</DistanceMeters>
          </Trackpoint>
          <Trackpoint>
            <Time>2022-07-04T07:35:46.000Z</Time>
            <Position>
              <LatitudeDegrees>44.83309493400156497955322265625</LatitudeDegrees>
              <LongitudeDegrees>-0.57309561409056186676025390625</LongitudeDegrees>
            </Position>
            <AltitudeMeters>11</AltitudeMeters>
            <DistanceMeters>2897.0515332668</DistanceMeters>
          </Trackpoint>
          <Trackpoint>
            <Time>2022-07-04T07:35:47.000Z</Time>
            <Position>
              <LatitudeDegrees>44.83313315548002719879150390625</LatitudeDegrees>
              <LongitudeDegrees>-0.57311338372528553009033203125</LongitudeDegrees>
            </Position>
            <AltitudeMeters>10.80000019073486328125</AltitudeMeters>
            <DistanceMeters>2901.5309115561</DistanceMeters>
          </Trackpoint>
          <Trackpoint>
            <Time>2022-07-04T07:35:50.000Z</Time>
            <Position>
              <LatitudeDegrees>44.83319786377251148223876953125</LatitudeDegrees>
              <LongitudeDegrees>-0.57317339815199375152587890625</LongitudeDegrees>
            </Position>
            <AltitudeMeters>10.6000003814697265625</AltitudeMeters>
            <DistanceMeters>2910.1511493171</DistanceMeters>
          </Trackpoint>
          <Trackpoint>
            <Time>2022-07-04T07:35:51.000Z</Time>
            <Position>
              <LatitudeDegrees>44.83320406638085842132568359375</LatitudeDegrees>
              <LongitudeDegrees>-0.573178343474864959716796875</LongitudeDegrees>
            </Position>
            <AltitudeMeters>10.6000003814697265625</AltitudeMeters>
            <DistanceMeters>2910.9461998508</DistanceMeters>
          </Trackpoint>
          <Trackpoint>
            <Time>2022-07-04T07:35:53.000Z</Time>
            <Position>
              <LatitudeDegrees>44.833240024745464324951171875</LatitudeDegrees>
              <LongitudeDegrees>-0.57316736318171024322509765625</LongitudeDegrees>
            </Position>
            <AltitudeMeters>10.6000003814697265625</AltitudeMeters>
            <DistanceMeters>2915.0422811528</DistanceMeters>
          </Trackpoint>
          <Trackpoint>
            <Time>2022-07-04T07:35:54.000Z</Time>
            <Position>
              <LatitudeDegrees>44.83326206915080547332763671875</LatitudeDegrees>
              <LongitudeDegrees>-0.57314909063279628753662109375</LongitudeDegrees>
            </Position>
            <AltitudeMeters>10.6000003814697265625</AltitudeMeters>
            <DistanceMeters>2917.8867404149</DistanceMeters>
          </Trackpoint>
          <Trackpoint>
            <Time>2022-07-04T07:35:56.000Z</Time>
            <Position>
              <LatitudeDegrees>44.83332040719687938690185546875</LatitudeDegrees>
              <LongitudeDegrees>-0.573145486414432525634765625</LongitudeDegrees>
            </Position>
            <AltitudeMeters>10.6000003814697265625</AltitudeMeters>
            <DistanceMeters>2924.386178668</DistanceMeters>
          </Trackpoint>
          <Trackpoint>
            <Time>2022-07-04T07:36:01.000Z</Time>
            <Position>
              <LatitudeDegrees>44.83345133252441883087158203125</LatitudeDegrees>
              <LongitudeDegrees>-0.57313383556902408599853515625</LongitudeDegrees>
            </Position>
            <AltitudeMeters>10.6000003814697265625</AltitudeMeters>
            <DistanceMeters>2938.9875520569</DistanceMeters>
          </Trackpoint>
          <Trackpoint>
            <Time>2022-07-04T07:36:03.000Z</Time>
            <Position>
              <LatitudeDegrees>44.8335251770913600921630859375</LatitudeDegrees>
              <LongitudeDegrees>-0.57311254553496837615966796875</LongitudeDegrees>
            </Position>
            <AltitudeMeters>10.80000019073486328125</AltitudeMeters>
            <DistanceMeters>2947.3768557112</DistanceMeters>
          </Trackpoint>
          <Trackpoint>
            <Time>2022-07-04T07:36:05.000Z</Time>
            <Position>
              <LatitudeDegrees>44.83356834389269351959228515625</LatitudeDegrees>
              <LongitudeDegrees>-0.57315051555633544921875</LongitudeDegrees>
            </Position>
            <AltitudeMeters>10.80000019073486328125</AltitudeMeters>
            <DistanceMeters>2953.0395230555</DistanceMeters>
          </Trackpoint>
          <Trackpoint>
            <Time>2022-07-04T07:36:07.000Z</Time>
            <Position>
              <LatitudeDegrees>44.83362014405429363250732421875</LatitudeDegrees>
              <LongitudeDegrees>-0.5731894075870513916015625</LongitudeDegrees>
            </Position>
            <AltitudeMeters>10.80000019073486328125</AltitudeMeters>
            <DistanceMeters>2959.5715297301</DistanceMeters>
          </Trackpoint>
          <Trackpoint>
            <Time>2022-07-04T07:36:10.000Z</Time>
            <Position>
              <LatitudeDegrees>44.8337166197597980499267578125</LatitudeDegrees>
              <LongitudeDegrees>-0.5732361786067485809326171875</LongitudeDegrees>
            </Position>
            <AltitudeMeters>10.6000003814697265625</AltitudeMeters>
            <DistanceMeters>2970.9263274592</DistanceMeters>
          </Trackpoint>
          <Trackpoint>
            <Time>2022-07-04T07:36:12.000Z</Time>
            <Position>
              <LatitudeDegrees>44.83379951678216457366943359375</LatitudeDegrees>
              <LongitudeDegrees>-0.57329334318637847900390625</LongitudeDegrees>
            </Position>
            <AltitudeMeters>10.6000003814697265625</AltitudeMeters>
            <DistanceMeters>2981.1971284512</DistanceMeters>
          </Trackpoint>
          <Trackpoint>
            <Time>2022-07-04T07:36:15.000Z</Time>
            <Position>
              <LatitudeDegrees>44.8339221440255641937255859375</LatitudeDegrees>
              <LongitudeDegrees>-0.5732911638915538787841796875</LongitudeDegrees>
            </Position>
            <AltitudeMeters>10.6000003814697265625</AltitudeMeters>
            <DistanceMeters>2994.8472785363</DistanceMeters>
          </Trackpoint>
          <Trackpoint>
            <Time>2022-07-04T07:36:23.000Z</Time>
            <Position>
              <LatitudeDegrees>44.8342369683086872100830078125</LatitudeDegrees>
              <LongitudeDegrees>-0.57325202040374279022216796875</LongitudeDegrees>
            </Position>
            <AltitudeMeters>10.19999980926513671875</AltitudeMeters>
            <DistanceMeters>3030.0238527742</DistanceMeters>
          </Trackpoint>
          <Trackpoint>
            <Time>2022-07-04T07:36:28.000Z</Time>
            <Position>
              <LatitudeDegrees>44.83438876457512378692626953125</LatitudeDegrees>
              <LongitudeDegrees>-0.57330130599439144134521484375</LongitudeDegrees>
            </Position>
            <AltitudeMeters>10.19999980926513671875</AltitudeMeters>
            <DistanceMeters>3047.3609553151</DistanceMeters>
          </Trackpoint>
          <Trackpoint>
            <Time>2022-07-04T07:36:31.000Z</Time>
            <Position>
              <LatitudeDegrees>44.8344756849110126495361328125</LatitudeDegrees>
              <LongitudeDegrees>-0.57329208590090274810791015625</LongitudeDegrees>
            </Position>
            <AltitudeMeters>10.19999980926513671875</AltitudeMeters>
            <DistanceMeters>3057.0629920524</DistanceMeters>
          </Trackpoint>
          <Trackpoint>
            <Time>2022-07-04T07:36:34.000Z</Time>
            <Position>
              <LatitudeDegrees>44.8345373757183551788330078125</LatitudeDegrees>
              <LongitudeDegrees>-0.5733223445713520050048828125</LongitudeDegrees>
            </Position>
            <AltitudeMeters>10</AltitudeMeters>
            <DistanceMeters>3064.3336225273</DistanceMeters>
          </Trackpoint>
          <Trackpoint>
            <Time>2022-07-04T07:36:37.000Z</Time>
            <Position>
              <LatitudeDegrees>44.83456612564623355865478515625</LatitudeDegrees>
              <LongitudeDegrees>-0.57335042394697666168212890625</LongitudeDegrees>
            </Position>
            <AltitudeMeters>9.80000019073486328125</AltitudeMeters>
            <DistanceMeters>3068.2262396769</DistanceMeters>
          </Trackpoint>
          <Trackpoint>
            <Time>2022-07-04T07:36:39.000Z</Time>
            <Position>
              <LatitudeDegrees>44.83458104543387889862060546875</LatitudeDegrees>
              <LongitudeDegrees>-0.57334237731993198394775390625</LongitudeDegrees>
            </Position>
            <AltitudeMeters>9.80000019073486328125</AltitudeMeters>
            <DistanceMeters>3070.0040267157</DistanceMeters>
          </Trackpoint>
          <Trackpoint>
            <Time>2022-07-04T07:36:40.000Z</Time>
            <Position>
              <LatitudeDegrees>44.83459956943988800048828125</LatitudeDegrees>
              <LongitudeDegrees>-0.57331957854330539703369140625</LongitudeDegrees>
            </Position>
            <AltitudeMeters>9.80000019073486328125</AltitudeMeters>
            <DistanceMeters>3072.7417198045</DistanceMeters>
          </Trackpoint>
          <Trackpoint>
            <Time>2022-07-04T07:36:44.000Z</Time>
            <Position>
              <LatitudeDegrees>44.8346942849457263946533203125</LatitudeDegrees>
              <LongitudeDegrees>-0.573303066194057464599609375</LongitudeDegrees>
            </Position>
            <AltitudeMeters>9.6000003814697265625</AltitudeMeters>
            <DistanceMeters>3083.3639043805</DistanceMeters>
          </Trackpoint>
          <Trackpoint>
            <Time>2022-07-04T07:36:45.000Z</Time>
            <Position>
              <LatitudeDegrees>44.83471482060849666595458984375</LatitudeDegrees>
              <LongitudeDegrees>-0.57330164127051830291748046875</LongitudeDegrees>
            </Position>
            <AltitudeMeters>9.6000003814697265625</AltitudeMeters>
            <DistanceMeters>3085.6544227529</DistanceMeters>
          </Trackpoint>
          <Trackpoint>
            <Time>2022-07-04T07:36:46.000Z</Time>
            <Position>
              <LatitudeDegrees>44.834724962711334228515625</LatitudeDegrees>
              <LongitudeDegrees>-0.57330700568854808807373046875</LongitudeDegrees>
            </Position>
            <AltitudeMeters>9.6000003814697265625</AltitudeMeters>
            <DistanceMeters>3086.8601765866</DistanceMeters>
          </Trackpoint>
          <Trackpoint>
            <Time>2022-07-04T07:36:49.000Z</Time>
            <Position>
              <LatitudeDegrees>44.83474499545991420745849609375</LatitudeDegrees>
              <LongitudeDegrees>-0.57332217693328857421875</LongitudeDegrees>
            </Position>
            <AltitudeMeters>9.3999996185302734375</AltitudeMeters>
            <DistanceMeters>3089.3922418059</DistanceMeters>
          </Trackpoint>
          <Trackpoint>
            <Time>2022-07-04T07:36:50.000Z</Time>
            <Position>
              <LatitudeDegrees>44.83475186862051486968994140625</LatitudeDegrees>
              <LongitudeDegrees>-0.5733250267803668975830078125</LongitudeDegrees>
            </Position>
            <AltitudeMeters>9.3999996185302734375</AltitudeMeters>
            <DistanceMeters>3090.1929511337</DistanceMeters>
          </Trackpoint>
          <Trackpoint>
            <Time>2022-07-04T07:37:42.000Z</Time>
            <Position>
              <LatitudeDegrees>44.834923446178436279296875</LatitudeDegrees>
              <LongitudeDegrees>-0.5731181614100933074951171875</LongitudeDegrees>
            </Position>
            <AltitudeMeters>9.3999996185302734375</AltitudeMeters>
            <DistanceMeters>3115.3181294225</DistanceMeters>
          </Trackpoint>
          <Trackpoint>
            <Time>2022-07-04T07:37:43.000Z</Time>
            <Position>
              <LatitudeDegrees>44.83494029380381107330322265625</LatitudeDegrees>
              <LongitudeDegrees>-0.573083795607089996337890625</LongitudeDegrees>
            </Position>
            <AltitudeMeters>9.3999996185302734375</AltitudeMeters>
            <DistanceMeters>3118.6154331753</DistanceMeters>
          </Trackpoint>
          <Trackpoint>
            <Time>2022-07-04T07:37:44.000Z</Time>
            <Position>
              <LatitudeDegrees>44.834953285753726959228515625</LatitudeDegrees>
              <LongitudeDegrees>-0.573039539158344268798828125</LongitudeDegrees>
            </Position>
            <AltitudeMeters>9.3999996185302734375</AltitudeMeters>
            <DistanceMeters>3122.3950602647</DistanceMeters>
          </Trackpoint>
          <Trackpoint>
            <Time>2022-07-04T07:37:48.000Z</Time>
            <Position>
              <LatitudeDegrees>44.834950268268585205078125</LatitudeDegrees>
              <LongitudeDegrees>-0.57290375232696533203125</LongitudeDegrees>
            </Position>
            <AltitudeMeters>10</AltitudeMeters>
            <DistanceMeters>3133.1175102312</DistanceMeters>
          </Trackpoint>
          <Trackpoint>
            <Time>2022-07-04T07:37:52.000Z</Time>
            <Position>
              <LatitudeDegrees>44.83496166765689849853515625</LatitudeDegrees>
              <LongitudeDegrees>-0.5728472582995891571044921875</LongitudeDegrees>
            </Position>
            <AltitudeMeters>10</AltitudeMeters>
            <DistanceMeters>3137.7534116469</DistanceMeters>
          </Trackpoint>
          <Trackpoint>
            <Time>2022-07-04T07:37:54.000Z</Time>
            <Position>
              <LatitudeDegrees>44.83495638705790042877197265625</LatitudeDegrees>
              <LongitudeDegrees>-0.572854466736316680908203125</LongitudeDegrees>
            </Position>
            <AltitudeMeters>10</AltitudeMeters>
            <DistanceMeters>3138.570862353</DistanceMeters>
          </Trackpoint>
          <Trackpoint>
            <Time>2022-07-04T07:37:55.000Z</Time>
            <Position>
              <LatitudeDegrees>44.83495630323886871337890625</LatitudeDegrees>
              <LongitudeDegrees>-0.57285924442112445831298828125</LongitudeDegrees>
            </Position>
            <AltitudeMeters>10</AltitudeMeters>
            <DistanceMeters>3138.9509692105</DistanceMeters>
          </Trackpoint>
          <Trackpoint>
            <Time>2022-07-04T07:37:59.000Z</Time>
            <Position>
              <LatitudeDegrees>44.834984131157398223876953125</LatitudeDegrees>
              <LongitudeDegrees>-0.5728809535503387451171875</LongitudeDegrees>
            </Position>
            <AltitudeMeters>10</AltitudeMeters>
            <DistanceMeters>3142.4899967644</DistanceMeters>
          </Trackpoint>
          <Trackpoint>
            <Time>2022-07-04T07:38:04.000Z</Time>
            <Position>
              <LatitudeDegrees>44.83495336957275867462158203125</LatitudeDegrees>
              <LongitudeDegrees>-0.5728683806955814361572265625</LongitudeDegrees>
            </Position>
            <AltitudeMeters>9.6000003814697265625</AltitudeMeters>
            <DistanceMeters>3146.0544486938</DistanceMeters>
          </Trackpoint>
          <Trackpoint>
            <Time>2022-07-04T07:38:05.000Z</Time>
            <Position>
              <LatitudeDegrees>44.83495336957275867462158203125</LatitudeDegrees>
              <LongitudeDegrees>-0.5728683806955814361572265625</LongitudeDegrees>
            </Position>
            <AltitudeMeters>9.6000003814697265625</AltitudeMeters>
            <DistanceMeters>3146.0544486938</DistanceMeters>
          </Trackpoint>
          <Trackpoint>
            <Time>2022-07-04T07:39:07.000Z</Time>
            <Position>
              <LatitudeDegrees>44.83503148891031742095947265625</LatitudeDegrees>
              <LongitudeDegrees>-0.57277978397905826568603515625</LongitudeDegrees>
            </Position>
            <AltitudeMeters>9.80000019073486328125</AltitudeMeters>
            <DistanceMeters>3157.2118961553</DistanceMeters>
          </Trackpoint>
          <Trackpoint>
            <Time>2022-07-04T07:39:09.000Z</Time>
            <Position>
              <LatitudeDegrees>44.835028387606143951416015625</LatitudeDegrees>
              <LongitudeDegrees>-0.57270853780210018157958984375</LongitudeDegrees>
            </Position>
            <AltitudeMeters>10</AltitudeMeters>
            <DistanceMeters>3162.8457863477</DistanceMeters>
          </Trackpoint>
          <Trackpoint>
            <Time>2022-07-04T07:39:15.000Z</Time>
            <Position>
              <LatitudeDegrees>44.8349876515567302703857421875</LatitudeDegrees>
              <LongitudeDegrees>-0.57253025472164154052734375</LongitudeDegrees>
            </Position>
            <AltitudeMeters>10.19999980926513671875</AltitudeMeters>
            <DistanceMeters>3177.6300009135</DistanceMeters>
          </Trackpoint>
          <Trackpoint>
            <Time>2022-07-04T07:39:22.000Z</Time>
            <Position>
              <LatitudeDegrees>44.8349873162806034088134765625</LatitudeDegrees>
              <LongitudeDegrees>-0.57231609709560871124267578125</LongitudeDegrees>
            </Position>
            <AltitudeMeters>10.3999996185302734375</AltitudeMeters>
            <DistanceMeters>3194.5335413367</DistanceMeters>
          </Trackpoint>
          <Trackpoint>
            <Time>2022-07-04T07:39:24.000Z</Time>
            <Position>
              <LatitudeDegrees>44.83496627770364284515380859375</LatitudeDegrees>
              <LongitudeDegrees>-0.5722789652645587921142578125</LongitudeDegrees>
            </Position>
            <AltitudeMeters>10.6000003814697265625</AltitudeMeters>
            <DistanceMeters>3198.2843891208</DistanceMeters>
          </Trackpoint>
          <Trackpoint>
            <Time>2022-07-04T07:39:25.000Z</Time>
            <Position>
              <LatitudeDegrees>44.83495839871466159820556640625</LatitudeDegrees>
              <LongitudeDegrees>-0.57225759141147136688232421875</LongitudeDegrees>
            </Position>
            <AltitudeMeters>10.6000003814697265625</AltitudeMeters>
            <DistanceMeters>3200.1849234082</DistanceMeters>
          </Trackpoint>
          <Trackpoint>
            <Time>2022-07-04T07:39:26.000Z</Time>
            <Position>
              <LatitudeDegrees>44.834950603544712066650390625</LatitudeDegrees>
              <LongitudeDegrees>-0.57222959585487842559814453125</LongitudeDegrees>
            </Position>
            <AltitudeMeters>10.6000003814697265625</AltitudeMeters>
            <DistanceMeters>3202.5586899724</DistanceMeters>
          </Trackpoint>
          <Trackpoint>
            <Time>2022-07-04T07:39:27.000Z</Time>
            <Position>
              <LatitudeDegrees>44.83494867570698261260986328125</LatitudeDegrees>
              <LongitudeDegrees>-0.5721790529787540435791015625</LongitudeDegrees>
            </Position>
            <AltitudeMeters>10.6000003814697265625</AltitudeMeters>
            <DistanceMeters>3206.5543344952</DistanceMeters>
          </Trackpoint>
          <Trackpoint>
            <Time>2022-07-04T07:39:31.000Z</Time>
            <Position>
              <LatitudeDegrees>44.83494951389729976654052734375</LatitudeDegrees>
              <LongitudeDegrees>-0.5720332078635692596435546875</LongitudeDegrees>
            </Position>
            <AltitudeMeters>10.6000003814697265625</AltitudeMeters>
            <DistanceMeters>3218.0659100527</DistanceMeters>
          </Trackpoint>
          <Trackpoint>
            <Time>2022-07-04T07:39:38.000Z</Time>
            <Position>
              <LatitudeDegrees>44.834975413978099822998046875</LatitudeDegrees>
              <LongitudeDegrees>-0.57173606939613819122314453125</LongitudeDegrees>
            </Position>
            <AltitudeMeters>10.80000019073486328125</AltitudeMeters>
            <DistanceMeters>3241.6949097465</DistanceMeters>
          </Trackpoint>
          <Trackpoint>
            <Time>2022-07-04T07:39:40.000Z</Time>
            <Position>
              <LatitudeDegrees>44.83500055968761444091796875</LatitudeDegrees>
              <LongitudeDegrees>-0.57164990343153476715087890625</LongitudeDegrees>
            </Position>
            <AltitudeMeters>10.80000019073486328125</AltitudeMeters>
            <DistanceMeters>3249.0482829688</DistanceMeters>
          </Trackpoint>
          <Trackpoint>
            <Time>2022-07-04T07:39:43.000Z</Time>
            <Position>
              <LatitudeDegrees>44.83503987081348896026611328125</LatitudeDegrees>
              <LongitudeDegrees>-0.57153758592903614044189453125</LongitudeDegrees>
            </Position>
            <AltitudeMeters>10.80000019073486328125</AltitudeMeters>
            <DistanceMeters>3258.9338020385</DistanceMeters>
          </Trackpoint>
          <Trackpoint>
            <Time>2022-07-04T07:39:49.000Z</Time>
            <Position>
              <LatitudeDegrees>44.83507700264453887939453125</LatitudeDegrees>
              <LongitudeDegrees>-0.57147790677845478057861328125</LongitudeDegrees>
            </Position>
            <AltitudeMeters>10.6000003814697265625</AltitudeMeters>
            <DistanceMeters>3265.1998033454</DistanceMeters>
          </Trackpoint>
          <Trackpoint>
            <Time>2022-07-04T07:39:53.000Z</Time>
            <Position>
              <LatitudeDegrees>44.83506283722817897796630859375</LatitudeDegrees>
              <LongitudeDegrees>-0.57144253514707088470458984375</LongitudeDegrees>
            </Position>
            <AltitudeMeters>10.19999980926513671875</AltitudeMeters>
            <DistanceMeters>3268.4054588155</DistanceMeters>
          </Trackpoint>
          <Trackpoint>
            <Time>2022-07-04T07:40:00.000Z</Time>
            <Position>
              <LatitudeDegrees>44.835153110325336456298828125</LatitudeDegrees>
              <LongitudeDegrees>-0.57136081159114837646484375</LongitudeDegrees>
            </Position>
            <AltitudeMeters>10.19999980926513671875</AltitudeMeters>
            <DistanceMeters>3280.3452166364</DistanceMeters>
          </Trackpoint>
          <Trackpoint>
            <Time>2022-07-04T07:40:04.000Z</Time>
            <Position>
              <LatitudeDegrees>44.83519879169762134552001953125</LatitudeDegrees>
              <LongitudeDegrees>-0.5713733844459056854248046875</LongitudeDegrees>
            </Position>
            <AltitudeMeters>10.6000003814697265625</AltitudeMeters>
            <DistanceMeters>3285.5256980031</DistanceMeters>
          </Trackpoint>
          <Trackpoint>
            <Time>2022-07-04T07:40:06.000Z</Time>
            <Position>
              <LatitudeDegrees>44.83523651026189327239990234375</LatitudeDegrees>
              <LongitudeDegrees>-0.57138838805258274078369140625</LongitudeDegrees>
            </Position>
            <AltitudeMeters>10.19999980926513671875</AltitudeMeters>
            <DistanceMeters>3289.8876208667</DistanceMeters>
          </Trackpoint>
          <Trackpoint>
            <Time>2022-07-04T07:40:07.000Z</Time>
            <Position>
              <LatitudeDegrees>44.83524464070796966552734375</LatitudeDegrees>
              <LongitudeDegrees>-0.57139140553772449493408203125</LongitudeDegrees>
            </Position>
            <AltitudeMeters>10</AltitudeMeters>
            <DistanceMeters>3290.8283373444</DistanceMeters>
          </Trackpoint>
          <Trackpoint>
            <Time>2022-07-04T07:40:10.000Z</Time>
            <Position>
              <LatitudeDegrees>44.83525528572499752044677734375</LatitudeDegrees>
              <LongitudeDegrees>-0.5713928304612636566162109375</LongitudeDegrees>
            </Position>
            <AltitudeMeters>9.80000019073486328125</AltitudeMeters>
            <DistanceMeters>3292.0228046224</DistanceMeters>
          </Trackpoint>
          <Trackpoint>
            <Time>2022-07-04T07:40:34.000Z</Time>
            <Position>
              <LatitudeDegrees>44.83527741394937038421630859375</LatitudeDegrees>
              <LongitudeDegrees>-0.571301467716693878173828125</LongitudeDegrees>
            </Position>
            <AltitudeMeters>9.6000003814697265625</AltitudeMeters>
            <DistanceMeters>3299.6427384498</DistanceMeters>
          </Trackpoint>
          <Trackpoint>
            <Time>2022-07-04T07:40:36.000Z</Time>
            <Position>
              <LatitudeDegrees>44.83527791686356067657470703125</LatitudeDegrees>
              <LongitudeDegrees>-0.5712868832051753997802734375</LongitudeDegrees>
            </Position>
            <AltitudeMeters>9.6000003814697265625</AltitudeMeters>
            <DistanceMeters>3300.7987883249</DistanceMeters>
          </Trackpoint>
          <Trackpoint>
            <Time>2022-07-04T07:40:39.000Z</Time>
            <Position>
              <LatitudeDegrees>44.83528529293835163116455078125</LatitudeDegrees>
              <LongitudeDegrees>-0.5713002942502498626708984375</LongitudeDegrees>
            </Position>
            <AltitudeMeters>10.19999980926513671875</AltitudeMeters>
            <DistanceMeters>3302.135932721</DistanceMeters>
          </Trackpoint>
          <Trackpoint>
            <Time>2022-07-04T07:42:37.000Z</Time>
            <Position>
              <LatitudeDegrees>44.835079349577426910400390625</LatitudeDegrees>
              <LongitudeDegrees>-0.5713522620499134063720703125</LongitudeDegrees>
            </Position>
            <AltitudeMeters>10</AltitudeMeters>
            <DistanceMeters>3325.4219377521</DistanceMeters>
          </Trackpoint>
          <Trackpoint>
            <Time>2022-07-04T07:42:38.000Z</Time>
            <Position>
              <LatitudeDegrees>44.835065267980098724365234375</LatitudeDegrees>
              <LongitudeDegrees>-0.5713411979377269744873046875</LongitudeDegrees>
            </Position>
            <AltitudeMeters>10</AltitudeMeters>
            <DistanceMeters>3327.2148982129</DistanceMeters>
          </Trackpoint>
          <Trackpoint>
            <Time>2022-07-04T07:42:40.000Z</Time>
            <Position>
              <LatitudeDegrees>44.83503869734704494476318359375</LatitudeDegrees>
              <LongitudeDegrees>-0.5713080056011676788330078125</LongitudeDegrees>
            </Position>
            <AltitudeMeters>10</AltitudeMeters>
            <DistanceMeters>3331.167369876</DistanceMeters>
          </Trackpoint>
          <Trackpoint>
            <Time>2022-07-04T07:42:44.000Z</Time>
            <Position>
              <LatitudeDegrees>44.83502277173101902008056640625</LatitudeDegrees>
              <LongitudeDegrees>-0.57127472944557666778564453125</LongitudeDegrees>
            </Position>
            <AltitudeMeters>9.80000019073486328125</AltitudeMeters>
            <DistanceMeters>3334.3361937913</DistanceMeters>
          </Trackpoint>
          <Trackpoint>
            <Time>2022-07-04T07:42:45.000Z</Time>
            <Position>
              <LatitudeDegrees>44.83501690439879894256591796875</LatitudeDegrees>
              <LongitudeDegrees>-0.57127003557980060577392578125</LongitudeDegrees>
            </Position>
            <AltitudeMeters>9.80000019073486328125</AltitudeMeters>
            <DistanceMeters>3335.0844348884</DistanceMeters>
          </Trackpoint>
          <Trackpoint>
            <Time>2022-07-04T07:43:08.000Z</Time>
            <Position>
              <LatitudeDegrees>44.83497801236808300018310546875</LatitudeDegrees>
              <LongitudeDegrees>-0.5711034871637821197509765625</LongitudeDegrees>
            </Position>
            <AltitudeMeters>9.80000019073486328125</AltitudeMeters>
            <DistanceMeters>3348.924448672</DistanceMeters>
          </Trackpoint>
          <Trackpoint>
            <Time>2022-07-04T07:43:09.000Z</Time>
            <Position>
              <LatitudeDegrees>44.83497784473001956939697265625</LatitudeDegrees>
              <LongitudeDegrees>-0.571072809398174285888671875</LongitudeDegrees>
            </Position>
            <AltitudeMeters>9.80000019073486328125</AltitudeMeters>
            <DistanceMeters>3351.3434339005</DistanceMeters>
          </Trackpoint>
          <Trackpoint>
            <Time>2022-07-04T07:43:10.000Z</Time>
            <Position>
              <LatitudeDegrees>44.83497331850230693817138671875</LatitudeDegrees>
              <LongitudeDegrees>-0.57104674167931079864501953125</LongitudeDegrees>
            </Position>
            <AltitudeMeters>9.80000019073486328125</AltitudeMeters>
            <DistanceMeters>3353.4619116541</DistanceMeters>
          </Trackpoint>
          <Trackpoint>
            <Time>2022-07-04T07:43:12.000Z</Time>
            <Position>
              <LatitudeDegrees>44.83496728353202342987060546875</LatitudeDegrees>
              <LongitudeDegrees>-0.5709831230342388153076171875</LongitudeDegrees>
            </Position>
            <AltitudeMeters>10</AltitudeMeters>
            <DistanceMeters>3358.5278249236</DistanceMeters>
          </Trackpoint>
          <Trackpoint>
            <Time>2022-07-04T07:43:14.000Z</Time>
            <Position>
              <LatitudeDegrees>44.83496778644621372222900390625</LatitudeDegrees>
              <LongitudeDegrees>-0.57091045193374156951904296875</LongitudeDegrees>
            </Position>
            <AltitudeMeters>10</AltitudeMeters>
            <DistanceMeters>3364.264165095</DistanceMeters>
          </Trackpoint>
          <Trackpoint>
            <Time>2022-07-04T07:43:15.000Z</Time>
            <Position>
              <LatitudeDegrees>44.83497105538845062255859375</LatitudeDegrees>
              <LongitudeDegrees>-0.57086703367531299591064453125</LongitudeDegrees>
            </Position>
            <AltitudeMeters>10</AltitudeMeters>
            <DistanceMeters>3367.7088015703</DistanceMeters>
          </Trackpoint>
          <Trackpoint>
            <Time>2022-07-04T07:43:20.000Z</Time>
            <Position>
              <LatitudeDegrees>44.8350171558558940887451171875</LatitudeDegrees>
              <LongitudeDegrees>-0.57064558379352092742919921875</LongitudeDegrees>
            </Position>
            <AltitudeMeters>10</AltitudeMeters>
            <DistanceMeters>3385.9249542675</DistanceMeters>
          </Trackpoint>
          <Trackpoint>
            <Time>2022-07-04T07:43:25.000Z</Time>
            <Position>
              <LatitudeDegrees>44.8350768350064754486083984375</LatitudeDegrees>
              <LongitudeDegrees>-0.57042748667299747467041015625</LongitudeDegrees>
            </Position>
            <AltitudeMeters>10</AltitudeMeters>
            <DistanceMeters>3404.3760494115</DistanceMeters>
          </Trackpoint>
          <Trackpoint>
            <Time>2022-07-04T07:43:33.000Z</Time>
            <Position>
              <LatitudeDegrees>44.8352079279720783233642578125</LatitudeDegrees>
              <LongitudeDegrees>-0.5700215511023998260498046875</LongitudeDegrees>
            </Position>
            <AltitudeMeters>9.80000019073486328125</AltitudeMeters>
            <DistanceMeters>3439.5818760961</DistanceMeters>
          </Trackpoint>
          <Trackpoint>
            <Time>2022-07-04T07:43:41.000Z</Time>
            <Position>
              <LatitudeDegrees>44.83537464402616024017333984375</LatitudeDegrees>
              <LongitudeDegrees>-0.569535233080387115478515625</LongitudeDegrees>
            </Position>
            <AltitudeMeters>9.3999996185302734375</AltitudeMeters>
            <DistanceMeters>3482.2159480036</DistanceMeters>
          </Trackpoint>
          <Trackpoint>
            <Time>2022-07-04T07:43:50.000Z</Time>
            <Position>
              <LatitudeDegrees>44.83545829541981220245361328125</LatitudeDegrees>
              <LongitudeDegrees>-0.56914790533483028411865234375</LongitudeDegrees>
            </Position>
            <AltitudeMeters>9.19999980926513671875</AltitudeMeters>
            <DistanceMeters>3514.1731932777</DistanceMeters>
          </Trackpoint>
          <Trackpoint>
            <Time>2022-07-04T07:43:51.000Z</Time>
            <Position>
              <LatitudeDegrees>44.83547396957874298095703125</LatitudeDegrees>
              <LongitudeDegrees>-0.56909308768808841705322265625</LongitudeDegrees>
            </Position>
            <AltitudeMeters>9.19999980926513671875</AltitudeMeters>
            <DistanceMeters>3518.8382210621</DistanceMeters>
          </Trackpoint>
          <Trackpoint>
            <Time>2022-07-04T07:43:59.000Z</Time>
            <Position>
              <LatitudeDegrees>44.83557899482548236846923828125</LatitudeDegrees>
              <LongitudeDegrees>-0.5686764232814311981201171875</LongitudeDegrees>
            </Position>
            <AltitudeMeters>8.6000003814697265625</AltitudeMeters>
            <DistanceMeters>3553.7405902145</DistanceMeters>
          </Trackpoint>
          <Trackpoint>
            <Time>2022-07-04T07:44:00.000Z</Time>
            <Position>
              <LatitudeDegrees>44.8355924896895885467529296875</LatitudeDegrees>
              <LongitudeDegrees>-0.568626634776592254638671875</LongitudeDegrees>
            </Position>
            <AltitudeMeters>8.6000003814697265625</AltitudeMeters>
            <DistanceMeters>3557.9476021981</DistanceMeters>
          </Trackpoint>
          <Trackpoint>
            <Time>2022-07-04T07:44:07.000Z</Time>
            <Position>
              <LatitudeDegrees>44.83567572198808193206787109375</LatitudeDegrees>
              <LongitudeDegrees>-0.56828591041266918182373046875</LongitudeDegrees>
            </Position>
            <AltitudeMeters>8</AltitudeMeters>
            <DistanceMeters>3586.3910836806</DistanceMeters>
          </Trackpoint>
          <Trackpoint>
            <Time>2022-07-04T07:44:12.000Z</Time>
            <Position>
              <LatitudeDegrees>44.83572936616837978363037109375</LatitudeDegrees>
              <LongitudeDegrees>-0.5680181086063385009765625</LongitudeDegrees>
            </Position>
            <AltitudeMeters>7.599999904632568359375</AltitudeMeters>
            <DistanceMeters>3608.3552090659</DistanceMeters>
          </Trackpoint>
          <Trackpoint>
            <Time>2022-07-04T07:44:15.000Z</Time>
            <Position>
              <LatitudeDegrees>44.83575987629592418670654296875</LatitudeDegrees>
              <LongitudeDegrees>-0.56787620298564434051513671875</LongitudeDegrees>
            </Position>
            <AltitudeMeters>7.400000095367431640625</AltitudeMeters>
            <DistanceMeters>3620.058936232</DistanceMeters>
          </Trackpoint>
          <Trackpoint>
            <Time>2022-07-04T07:44:21.000Z</Time>
            <Position>
              <LatitudeDegrees>44.8358526639640331268310546875</LatitudeDegrees>
              <LongitudeDegrees>-0.5675817467272281646728515625</LongitudeDegrees>
            </Position>
            <AltitudeMeters>6.80000019073486328125</AltitudeMeters>
            <DistanceMeters>3645.4909683052</DistanceMeters>
          </Trackpoint>
          <Trackpoint>
            <Time>2022-07-04T07:44:22.000Z</Time>
            <Position>
              <LatitudeDegrees>44.8358716070652008056640625</LatitudeDegrees>
              <LongitudeDegrees>-0.5675331316888332366943359375</LongitudeDegrees>
            </Position>
            <AltitudeMeters>6.599999904632568359375</AltitudeMeters>
            <DistanceMeters>3649.8683901737</DistanceMeters>
          </Trackpoint>
          <Trackpoint>
            <Time>2022-07-04T07:44:28.000Z</Time>
            <Position>
              <LatitudeDegrees>44.83597814105451107025146484375</LatitudeDegrees>
              <LongitudeDegrees>-0.56720447726547718048095703125</LongitudeDegrees>
            </Position>
            <AltitudeMeters>6.19999980926513671875</AltitudeMeters>
            <DistanceMeters>3678.3898634255</DistanceMeters>
          </Trackpoint>
          <Trackpoint>
            <Time>2022-07-04T07:44:34.000Z</Time>
            <Position>
              <LatitudeDegrees>44.83609347604215145111083984375</LatitudeDegrees>
              <LongitudeDegrees>-0.56692301295697689056396484375</LongitudeDegrees>
            </Position>
            <AltitudeMeters>5.599999904632568359375</AltitudeMeters>
            <DistanceMeters>3704.0474282538</DistanceMeters>
          </Trackpoint>
          <Trackpoint>
            <Time>2022-07-04T07:44:35.000Z</Time>
            <Position>
              <LatitudeDegrees>44.836115352809429168701171875</LatitudeDegrees>
              <LongitudeDegrees>-0.56686702184379100799560546875</LongitudeDegrees>
            </Position>
            <AltitudeMeters>5.19999980926513671875</AltitudeMeters>
            <DistanceMeters>3709.0936957429</DistanceMeters>
          </Trackpoint>
          <Trackpoint>
            <Time>2022-07-04T07:44:41.000Z</Time>
            <Position>
              <LatitudeDegrees>44.83622255735099315643310546875</LatitudeDegrees>
              <LongitudeDegrees>-0.5665977112948894500732421875</LongitudeDegrees>
            </Position>
            <AltitudeMeters>4.400000095367431640625</AltitudeMeters>
            <DistanceMeters>3733.4698539752</DistanceMeters>
          </Trackpoint>
          <Trackpoint>
            <Time>2022-07-04T07:44:46.000Z</Time>
            <Position>
              <LatitudeDegrees>44.83626790344715118408203125</LatitudeDegrees>
              <LongitudeDegrees>-0.56632353924214839935302734375</LongitudeDegrees>
            </Position>
            <AltitudeMeters>4</AltitudeMeters>
            <DistanceMeters>3755.6900585136</DistanceMeters>
          </Trackpoint>
          <Trackpoint>
            <Time>2022-07-04T07:44:52.000Z</Time>
            <Position>
              <LatitudeDegrees>44.83636446297168731689453125</LatitudeDegrees>
              <LongitudeDegrees>-0.56606881320476531982421875</LongitudeDegrees>
            </Position>
            <AltitudeMeters>3.599999904632568359375</AltitudeMeters>
            <DistanceMeters>3778.4869653104</DistanceMeters>
          </Trackpoint>
          <Trackpoint>
            <Time>2022-07-04T07:44:57.000Z</Time>
            <Position>
              <LatitudeDegrees>44.83639136888086795806884765625</LatitudeDegrees>
              <LongitudeDegrees>-0.565932691097259521484375</LongitudeDegrees>
            </Position>
            <AltitudeMeters>3.599999904632568359375</AltitudeMeters>
            <DistanceMeters>3789.6403653791</DistanceMeters>
          </Trackpoint>
          <Trackpoint>
            <Time>2022-07-04T07:45:02.000Z</Time>
            <Position>
              <LatitudeDegrees>44.83645540662109851837158203125</LatitudeDegrees>
              <LongitudeDegrees>-0.56581199169158935546875</LongitudeDegrees>
            </Position>
            <AltitudeMeters>4</AltitudeMeters>
            <DistanceMeters>3801.5380743323</DistanceMeters>
          </Trackpoint>
          <Trackpoint>
            <Time>2022-07-04T07:45:03.000Z</Time>
            <Position>
              <LatitudeDegrees>44.8364632017910480499267578125</LatitudeDegrees>
              <LongitudeDegrees>-0.5657896958291530609130859375</LongitudeDegrees>
            </Position>
            <AltitudeMeters>4.19999980926513671875</AltitudeMeters>
            <DistanceMeters>3803.5017042978</DistanceMeters>
          </Trackpoint>
          <Trackpoint>
            <Time>2022-07-04T07:45:10.000Z</Time>
            <Position>
              <LatitudeDegrees>44.83653201721608638763427734375</LatitudeDegrees>
              <LongitudeDegrees>-0.56561728008091449737548828125</LongitudeDegrees>
            </Position>
            <AltitudeMeters>4.599999904632568359375</AltitudeMeters>
            <DistanceMeters>3819.1173433911</DistanceMeters>
          </Trackpoint>
          <Trackpoint>
            <Time>2022-07-04T07:45:11.000Z</Time>
            <Position>
              <LatitudeDegrees>44.83654551208019256591796875</LatitudeDegrees>
              <LongitudeDegrees>-0.5655878596007823944091796875</LongitudeDegrees>
            </Position>
            <AltitudeMeters>4.80000019073486328125</AltitudeMeters>
            <DistanceMeters>3821.8829309866</DistanceMeters>
          </Trackpoint>
          <Trackpoint>
            <Time>2022-07-04T07:45:20.000Z</Time>
            <Position>
              <LatitudeDegrees>44.83665690757334232330322265625</LatitudeDegrees>
              <LongitudeDegrees>-0.5653773061931133270263671875</LongitudeDegrees>
            </Position>
            <AltitudeMeters>5.599999904632568359375</AltitudeMeters>
            <DistanceMeters>3842.6168367756</DistanceMeters>
          </Trackpoint>
          <Trackpoint>
            <Time>2022-07-04T07:45:22.000Z</Time>
            <Position>
              <LatitudeDegrees>44.83667802996933460235595703125</LatitudeDegrees>
              <LongitudeDegrees>-0.56533631868660449981689453125</LongitudeDegrees>
            </Position>
            <AltitudeMeters>5.80000019073486328125</AltitudeMeters>
            <DistanceMeters>3846.6147406396</DistanceMeters>
          </Trackpoint>
          <Trackpoint>
            <Time>2022-07-04T07:45:29.000Z</Time>
            <Position>
              <LatitudeDegrees>44.8367833904922008514404296875</LatitudeDegrees>
              <LongitudeDegrees>-0.56519667617976665496826171875</LongitudeDegrees>
            </Position>
            <AltitudeMeters>6.400000095367431640625</AltitudeMeters>
            <DistanceMeters>3862.7076767425</DistanceMeters>
          </Trackpoint>
          <Trackpoint>
            <Time>2022-07-04T07:45:30.000Z</Time>
            <Position>
              <LatitudeDegrees>44.83679755590856075286865234375</LatitudeDegrees>
              <LongitudeDegrees>-0.56517890654504299163818359375</LongitudeDegrees>
            </Position>
            <AltitudeMeters>6.599999904632568359375</AltitudeMeters>
            <DistanceMeters>3864.8197510223</DistanceMeters>
          </Trackpoint>
          <Trackpoint>
            <Time>2022-07-04T07:45:32.000Z</Time>
            <Position>
              <LatitudeDegrees>44.83682454563677310943603515625</LatitudeDegrees>
              <LongitudeDegrees>-0.565142445266246795654296875</LongitudeDegrees>
            </Position>
            <AltitudeMeters>6.80000019073486328125</AltitudeMeters>
            <DistanceMeters>3868.9814437812</DistanceMeters>
          </Trackpoint>
          <Trackpoint>
            <Time>2022-07-04T07:45:37.000Z</Time>
            <Position>
              <LatitudeDegrees>44.836860336363315582275390625</LatitudeDegrees>
              <LongitudeDegrees>-0.56509257294237613677978515625</LongitudeDegrees>
            </Position>
            <AltitudeMeters>7.19999980926513671875</AltitudeMeters>
            <DistanceMeters>3874.5823799142</DistanceMeters>
          </Trackpoint>
          <Trackpoint>
            <Time>2022-07-04T07:45:41.000Z</Time>
            <Position>
              <LatitudeDegrees>44.83684591948986053466796875</LatitudeDegrees>
              <LongitudeDegrees>-0.565094836056232452392578125</LongitudeDegrees>
            </Position>
            <AltitudeMeters>7</AltitudeMeters>
            <DistanceMeters>3876.2006265483</DistanceMeters>
          </Trackpoint>
          <Trackpoint>
            <Time>2022-07-04T07:53:51.000Z</Time>
            <Position>
              <LatitudeDegrees>44.837018586695194244384765625</LatitudeDegrees>
              <LongitudeDegrees>-0.56528015993535518646240234375</LongitudeDegrees>
            </Position>
            <AltitudeMeters>5.599999904632568359375</AltitudeMeters>
            <DistanceMeters>3900.3519983069</DistanceMeters>
          </Trackpoint>
          <Trackpoint>
            <Time>2022-07-04T07:53:52.000Z</Time>
            <Position>
              <LatitudeDegrees>44.83703241683542728424072265625</LatitudeDegrees>
              <LongitudeDegrees>-0.565300025045871734619140625</LongitudeDegrees>
            </Position>
            <AltitudeMeters>5.599999904632568359375</AltitudeMeters>
            <DistanceMeters>3902.5479174359</DistanceMeters>
          </Trackpoint>
          <Trackpoint>
            <Time>2022-07-04T07:53:58.000Z</Time>
            <Position>
              <LatitudeDegrees>44.83709326945245265960693359375</LatitudeDegrees>
              <LongitudeDegrees>-0.5654302798211574554443359375</LongitudeDegrees>
            </Position>
            <AltitudeMeters>5.19999980926513671875</AltitudeMeters>
            <DistanceMeters>3914.8589207677</DistanceMeters>
          </Trackpoint>
          <Trackpoint>
            <Time>2022-07-04T07:53:59.000Z</Time>
            <Position>
              <LatitudeDegrees>44.837106429040431976318359375</LatitudeDegrees>
              <LongitudeDegrees>-0.565464310348033905029296875</LongitudeDegrees>
            </Position>
            <AltitudeMeters>5.19999980926513671875</AltitudeMeters>
            <DistanceMeters>3917.9175412404</DistanceMeters>
          </Trackpoint>
          <Trackpoint>
            <Time>2022-07-04T07:54:02.000Z</Time>
            <Position>
              <LatitudeDegrees>44.8371709696948528289794921875</LatitudeDegrees>
              <LongitudeDegrees>-0.56556195951998233795166015625</LongitudeDegrees>
            </Position>
            <AltitudeMeters>4.400000095367431640625</AltitudeMeters>
            <DistanceMeters>3928.4530858229</DistanceMeters>
          </Trackpoint>
          <Trackpoint>
            <Time>2022-07-04T07:54:04.000Z</Time>
            <Position>
              <LatitudeDegrees>44.83722385950386524200439453125</LatitudeDegrees>
              <LongitudeDegrees>-0.5656217224895954132080078125</LongitudeDegrees>
            </Position>
            <AltitudeMeters>3.7999999523162841796875</AltitudeMeters>
            <DistanceMeters>3935.9967945758</DistanceMeters>
          </Trackpoint>
          <Trackpoint>
            <Time>2022-07-04T07:54:08.000Z</Time>
            <Position>
              <LatitudeDegrees>44.8373389430344104766845703125</LatitudeDegrees>
              <LongitudeDegrees>-0.56577452458441257476806640625</LongitudeDegrees>
            </Position>
            <AltitudeMeters>3.400000095367431640625</AltitudeMeters>
            <DistanceMeters>3953.5895734955</DistanceMeters>
          </Trackpoint>
          <Trackpoint>
            <Time>2022-07-04T07:54:09.000Z</Time>
            <Position>
              <LatitudeDegrees>44.83737205155193805694580078125</LatitudeDegrees>
              <LongitudeDegrees>-0.56581576354801654815673828125</LongitudeDegrees>
            </Position>
            <AltitudeMeters>3.599999904632568359375</AltitudeMeters>
            <DistanceMeters>3958.5053119511</DistanceMeters>
          </Trackpoint>
          <Trackpoint>
            <Time>2022-07-04T07:54:15.000Z</Time>
            <Position>
              <LatitudeDegrees>44.8375793360173702239990234375</LatitudeDegrees>
              <LongitudeDegrees>-0.56607208214700222015380859375</LongitudeDegrees>
            </Position>
            <AltitudeMeters>4.19999980926513671875</AltitudeMeters>
            <DistanceMeters>3989.1895248371</DistanceMeters>
          </Trackpoint>
          <Trackpoint>
            <Time>2022-07-04T07:54:23.000Z</Time>
            <Position>
              <LatitudeDegrees>44.83789307065308094024658203125</LatitudeDegrees>
              <LongitudeDegrees>-0.5664642713963985443115234375</LongitudeDegrees>
            </Position>
            <AltitudeMeters>2.400000095367431640625</AltitudeMeters>
            <DistanceMeters>4035.8529635595</DistanceMeters>
          </Trackpoint>
          <Trackpoint>
            <Time>2022-07-04T07:54:24.000Z</Time>
            <Position>
              <LatitudeDegrees>44.83793749473989009857177734375</LatitudeDegrees>
              <LongitudeDegrees>-0.5665148980915546417236328125</LongitudeDegrees>
            </Position>
            <AltitudeMeters>2</AltitudeMeters>
            <DistanceMeters>4042.2105277285</DistanceMeters>
          </Trackpoint>
          <Trackpoint>
            <Time>2022-07-04T07:54:31.000Z</Time>
            <Position>
              <LatitudeDegrees>44.83822348527610301971435546875</LatitudeDegrees>
              <LongitudeDegrees>-0.56686232797801494598388671875</LongitudeDegrees>
            </Position>
            <AltitudeMeters>2.2000000476837158203125</AltitudeMeters>
            <DistanceMeters>4084.2239434747</DistanceMeters>
          </Trackpoint>
          <Trackpoint>
            <Time>2022-07-04T07:54:35.000Z</Time>
            <Position>
              <LatitudeDegrees>44.83836547471582889556884765625</LatitudeDegrees>
              <LongitudeDegrees>-0.56701286695897579193115234375</LongitudeDegrees>
            </Position>
            <AltitudeMeters>1.7999999523162841796875</AltitudeMeters>
            <DistanceMeters>4103.9954383412</DistanceMeters>
          </Trackpoint>
          <Trackpoint>
            <Time>2022-07-04T07:54:36.000Z</Time>
            <Position>
              <LatitudeDegrees>44.83840118162333965301513671875</LatitudeDegrees>
              <LongitudeDegrees>-0.56703038513660430908203125</LongitudeDegrees>
            </Position>
            <AltitudeMeters>1.7999999523162841796875</AltitudeMeters>
            <DistanceMeters>4108.2045962122</DistanceMeters>
          </Trackpoint>
          <Trackpoint>
            <Time>2022-07-04T07:54:39.000Z</Time>
            <Position>
              <LatitudeDegrees>44.8385073803365230560302734375</LatitudeDegrees>
              <LongitudeDegrees>-0.5670221708714962005615234375</LongitudeDegrees>
            </Position>
            <AltitudeMeters>1.39999997615814208984375</AltitudeMeters>
            <DistanceMeters>4120.0429570114</DistanceMeters>
          </Trackpoint>
          <Trackpoint>
            <Time>2022-07-04T07:54:40.000Z</Time>
            <Position>
              <LatitudeDegrees>44.83853965066373348236083984375</LatitudeDegrees>
              <LongitudeDegrees>-0.56701362133026123046875</LongitudeDegrees>
            </Position>
            <AltitudeMeters>1.2000000476837158203125</AltitudeMeters>
            <DistanceMeters>4123.6987077054</DistanceMeters>
          </Trackpoint>
          <Trackpoint>
            <Time>2022-07-04T07:54:44.000Z</Time>
            <Position>
              <LatitudeDegrees>44.83866713941097259521484375</LatitudeDegrees>
              <LongitudeDegrees>-0.5669970251619815826416015625</LongitudeDegrees>
            </Position>
            <AltitudeMeters>1</AltitudeMeters>
            <DistanceMeters>4137.9489132854</DistanceMeters>
          </Trackpoint>
          <Trackpoint>
            <Time>2022-07-04T07:54:46.000Z</Time>
            <Position>
              <LatitudeDegrees>44.8387186042964458465576171875</LatitudeDegrees>
              <LongitudeDegrees>-0.5670069158077239990234375</LongitudeDegrees>
            </Position>
            <AltitudeMeters>1</AltitudeMeters>
            <DistanceMeters>4143.7299437229</DistanceMeters>
          </Trackpoint>
          <Trackpoint>
            <Time>2022-07-04T07:54:53.000Z</Time>
            <Position>
              <LatitudeDegrees>44.83890141360461711883544921875</LatitudeDegrees>
              <LongitudeDegrees>-0.56707589887082576751708984375</LongitudeDegrees>
            </Position>
            <AltitudeMeters>1</AltitudeMeters>
            <DistanceMeters>4164.7928888088</DistanceMeters>
          </Trackpoint>
          <Trackpoint>
            <Time>2022-07-04T07:54:59.000Z</Time>
            <Position>
              <LatitudeDegrees>44.8390501923859119415283203125</LatitudeDegrees>
              <LongitudeDegrees>-0.56709836237132549285888671875</LongitudeDegrees>
            </Position>
            <AltitudeMeters>1</AltitudeMeters>
            <DistanceMeters>4181.4469813381</DistanceMeters>
          </Trackpoint>
          <Trackpoint>
            <Time>2022-07-04T07:55:07.000Z</Time>
            <Position>
              <LatitudeDegrees>44.8392029106616973876953125</LatitudeDegrees>
              <LongitudeDegrees>-0.56715770624577999114990234375</LongitudeDegrees>
            </Position>
            <AltitudeMeters>0.60000002384185791015625</AltitudeMeters>
            <DistanceMeters>4199.0784705452</DistanceMeters>
          </Trackpoint>
          <Trackpoint>
            <Time>2022-07-04T07:55:12.000Z</Time>
            <Position>
              <LatitudeDegrees>44.8392201773822307586669921875</LatitudeDegrees>
              <LongitudeDegrees>-0.5672347359359264373779296875</LongitudeDegrees>
            </Position>
            <AltitudeMeters>0.4000000059604644775390625</AltitudeMeters>
            <DistanceMeters>4205.4558888554</DistanceMeters>
          </Trackpoint>
          <Trackpoint>
            <Time>2022-07-04T07:55:13.000Z</Time>
            <Position>
              <LatitudeDegrees>44.8392171598970890045166015625</LatitudeDegrees>
              <LongitudeDegrees>-0.5672484822571277618408203125</LongitudeDegrees>
            </Position>
            <AltitudeMeters>0.4000000059604644775390625</AltitudeMeters>
            <DistanceMeters>4206.5882628462</DistanceMeters>
          </Trackpoint>
          <Trackpoint>
            <Time>2022-07-04T07:55:15.000Z</Time>
            <Position>
              <LatitudeDegrees>44.839204587042331695556640625</LatitudeDegrees>
              <LongitudeDegrees>-0.5672697722911834716796875</LongitudeDegrees>
            </Position>
            <AltitudeMeters>0.20000000298023223876953125</AltitudeMeters>
            <DistanceMeters>4208.7759420995</DistanceMeters>
          </Trackpoint>
          <Trackpoint>
            <Time>2022-07-04T07:55:19.000Z</Time>
            <Position>
              <LatitudeDegrees>44.83916125260293483734130859375</LatitudeDegrees>
              <LongitudeDegrees>-0.5673276074230670928955078125</LongitudeDegrees>
            </Position>
            <AltitudeMeters>0.60000002384185791015625</AltitudeMeters>
            <DistanceMeters>4215.4169430295</DistanceMeters>
          </Trackpoint>
          <Trackpoint>
            <Time>2022-07-04T07:55:20.000Z</Time>
            <Position>
              <LatitudeDegrees>44.83915806747972965240478515625</LatitudeDegrees>
              <LongitudeDegrees>-0.567346550524234771728515625</LongitudeDegrees>
            </Position>
            <AltitudeMeters>0.60000002384185791015625</AltitudeMeters>
            <DistanceMeters>4216.949202758</DistanceMeters>
          </Trackpoint>
          <Trackpoint>
            <Time>2022-07-04T07:55:21.000Z</Time>
            <Position>
              <LatitudeDegrees>44.8391618393361568450927734375</LatitudeDegrees>
              <LongitudeDegrees>-0.56736675091087818145751953125</LongitudeDegrees>
            </Position>
            <AltitudeMeters>0.60000002384185791015625</AltitudeMeters>
            <DistanceMeters>4218.600590988</DistanceMeters>
          </Trackpoint>
          <Trackpoint>
            <Time>2022-07-04T07:55:22.000Z</Time>
            <Position>
              <LatitudeDegrees>44.83917114324867725372314453125</LatitudeDegrees>
              <LongitudeDegrees>-0.56738586165010929107666015625</LongitudeDegrees>
            </Position>
            <AltitudeMeters>0.800000011920928955078125</AltitudeMeters>
            <DistanceMeters>4220.4309347701</DistanceMeters>
          </Trackpoint>
          <Trackpoint>
            <Time>2022-07-04T07:55:24.000Z</Time>
            <Position>
              <LatitudeDegrees>44.8392034135758876800537109375</LatitudeDegrees>
              <LongitudeDegrees>-0.56739876978099346160888671875</LongitudeDegrees>
            </Position>
            <AltitudeMeters>1</AltitudeMeters>
            <DistanceMeters>4224.1648921921</DistanceMeters>
          </Trackpoint>
          <Trackpoint>
            <Time>2022-07-04T07:55:25.000Z</Time>
            <Position>
              <LatitudeDegrees>44.83922160230576992034912109375</LatitudeDegrees>
              <LongitudeDegrees>-0.56738954968750476837158203125</LongitudeDegrees>
            </Position>
            <AltitudeMeters>1</AltitudeMeters>
            <DistanceMeters>4226.3151012841</DistanceMeters>
          </Trackpoint>
          <Trackpoint>
            <Time>2022-07-04T07:55:27.000Z</Time>
            <Position>
              <LatitudeDegrees>44.83924448490142822265625</LatitudeDegrees>
              <LongitudeDegrees>-0.56735199876129627227783203125</LongitudeDegrees>
            </Position>
            <AltitudeMeters>1</AltitudeMeters>
            <DistanceMeters>4230.2216124117</DistanceMeters>
          </Trackpoint>
          <Trackpoint>
            <Time>2022-07-04T07:55:29.000Z</Time>
            <Position>
              <LatitudeDegrees>44.839228726923465728759765625</LatitudeDegrees>
              <LongitudeDegrees>-0.56730656884610652923583984375</LongitudeDegrees>
            </Position>
            <AltitudeMeters>1.2000000476837158203125</AltitudeMeters>
            <DistanceMeters>4234.2127344152</DistanceMeters>
          </Trackpoint>
          <Trackpoint>
            <Time>2022-07-04T07:55:33.000Z</Time>
            <Position>
              <LatitudeDegrees>44.8391640186309814453125</LatitudeDegrees>
              <LongitudeDegrees>-0.56735317222774028778076171875</LongitudeDegrees>
            </Position>
            <AltitudeMeters>1.2000000476837158203125</AltitudeMeters>
            <DistanceMeters>4242.2995022249</DistanceMeters>
          </Trackpoint>
          <Trackpoint>
            <Time>2022-07-04T07:55:34.000Z</Time>
            <Position>
              <LatitudeDegrees>44.83916276134550571441650390625</LatitudeDegrees>
              <LongitudeDegrees>-0.5673755519092082977294921875</LongitudeDegrees>
            </Position>
            <AltitudeMeters>1.39999997615814208984375</AltitudeMeters>
            <DistanceMeters>4244.0671012885</DistanceMeters>
          </Trackpoint>
          <Trackpoint>
            <Time>2022-07-04T07:55:35.000Z</Time>
            <Position>
              <LatitudeDegrees>44.83916829340159893035888671875</LatitudeDegrees>
              <LongitudeDegrees>-0.56739793159067630767822265625</LongitudeDegrees>
            </Position>
            <AltitudeMeters>1.39999997615814208984375</AltitudeMeters>
            <DistanceMeters>4245.9340799995</DistanceMeters>
          </Trackpoint>
          <Trackpoint>
            <Time>2022-07-04T07:55:37.000Z</Time>
            <Position>
              <LatitudeDegrees>44.83919729478657245635986328125</LatitudeDegrees>
              <LongitudeDegrees>-0.567422993481159210205078125</LongitudeDegrees>
            </Position>
            <AltitudeMeters>1.2000000476837158203125</AltitudeMeters>
            <DistanceMeters>4249.7184823618</DistanceMeters>
          </Trackpoint>
          <Trackpoint>
            <Time>2022-07-04T07:55:42.000Z</Time>
            <Position>
              <LatitudeDegrees>44.83930055983364582061767578125</LatitudeDegrees>
              <LongitudeDegrees>-0.5674191378057003021240234375</LongitudeDegrees>
            </Position>
            <AltitudeMeters>1</AltitudeMeters>
            <DistanceMeters>4261.215929429</DistanceMeters>
          </Trackpoint>
          <Trackpoint>
            <Time>2022-07-04T07:55:44.000Z</Time>
            <Position>
              <LatitudeDegrees>44.839346408843994140625</LatitudeDegrees>
              <LongitudeDegrees>-0.5674006976187229156494140625</LongitudeDegrees>
            </Position>
            <AltitudeMeters>1.60000002384185791015625</AltitudeMeters>
            <DistanceMeters>4266.5221313054</DistanceMeters>
          </Trackpoint>
          <Trackpoint>
            <Time>2022-07-04T07:55:46.000Z</Time>
            <Position>
              <LatitudeDegrees>44.83939209021627902984619140625</LatitudeDegrees>
              <LongitudeDegrees>-0.56739809922873973846435546875</LongitudeDegrees>
            </Position>
            <AltitudeMeters>1.7999999523162841796875</AltitudeMeters>
            <DistanceMeters>4271.6111645378</DistanceMeters>
          </Trackpoint>
          <Trackpoint>
            <Time>2022-07-04T07:55:49.000Z</Time>
            <Position>
              <LatitudeDegrees>44.8394528590142726898193359375</LatitudeDegrees>
              <LongitudeDegrees>-0.56743347086012363433837890625</LongitudeDegrees>
            </Position>
            <AltitudeMeters>1.7999999523162841796875</AltitudeMeters>
            <DistanceMeters>4278.9288385749</DistanceMeters>
          </Trackpoint>
          <Trackpoint>
            <Time>2022-07-04T07:55:53.000Z</Time>
            <Position>
              <LatitudeDegrees>44.83954489231109619140625</LatitudeDegrees>
              <LongitudeDegrees>-0.56750555522739887237548828125</LongitudeDegrees>
            </Position>
            <AltitudeMeters>2</AltitudeMeters>
            <DistanceMeters>4290.6460601847</DistanceMeters>
          </Trackpoint>
          <Trackpoint>
            <Time>2022-07-04T07:55:54.000Z</Time>
            <Position>
              <LatitudeDegrees>44.83957062475383281707763671875</LatitudeDegrees>
              <LongitudeDegrees>-0.567526929080486297607421875</LongitudeDegrees>
            </Position>
            <AltitudeMeters>2</AltitudeMeters>
            <DistanceMeters>4293.970637386</DistanceMeters>
          </Trackpoint>
          <Trackpoint>
            <Time>2022-07-04T07:55:55.000Z</Time>
            <Position>
              <LatitudeDegrees>44.83959644101560115814208984375</LatitudeDegrees>
              <LongitudeDegrees>-0.5675468780100345611572265625</LongitudeDegrees>
            </Position>
            <AltitudeMeters>2.2000000476837158203125</AltitudeMeters>
            <DistanceMeters>4297.248714714</DistanceMeters>
          </Trackpoint>
          <Trackpoint>
            <Time>2022-07-04T07:55:58.000Z</Time>
            <Position>
              <LatitudeDegrees>44.839669279754161834716796875</LatitudeDegrees>
              <LongitudeDegrees>-0.56760060600936412811279296875</LongitudeDegrees>
            </Position>
            <AltitudeMeters>2.2000000476837158203125</AltitudeMeters>
            <DistanceMeters>4306.3979665214</DistanceMeters>
          </Trackpoint>
          <Trackpoint>
            <Time>2022-07-04T07:56:01.000Z</Time>
            <Position>
              <LatitudeDegrees>44.83974010683596134185791015625</LatitudeDegrees>
              <LongitudeDegrees>-0.5676531605422496795654296875</LongitudeDegrees>
            </Position>
            <AltitudeMeters>2.400000095367431640625</AltitudeMeters>
            <DistanceMeters>4315.3056756384</DistanceMeters>
          </Trackpoint>
          <Trackpoint>
            <Time>2022-07-04T07:56:11.000Z</Time>
            <Position>
              <LatitudeDegrees>44.83997069299221038818359375</LatitudeDegrees>
              <LongitudeDegrees>-0.56783999316394329071044921875</LongitudeDegrees>
            </Position>
            <AltitudeMeters>2.400000095367431640625</AltitudeMeters>
            <DistanceMeters>4344.9044760621</DistanceMeters>
          </Trackpoint>
          <Trackpoint>
            <Time>2022-07-04T07:56:22.000Z</Time>
            <Position>
              <LatitudeDegrees>44.84025207348167896270751953125</LatitudeDegrees>
              <LongitudeDegrees>-0.56804551742970943450927734375</LongitudeDegrees>
            </Position>
            <AltitudeMeters>2.2000000476837158203125</AltitudeMeters>
            <DistanceMeters>4380.1738558477</DistanceMeters>
          </Trackpoint>
          <Trackpoint>
            <Time>2022-07-04T07:56:32.000Z</Time>
            <Position>
              <LatitudeDegrees>44.8405136726796627044677734375</LatitudeDegrees>
              <LongitudeDegrees>-0.56816889904439449310302734375</LongitudeDegrees>
            </Position>
            <AltitudeMeters>2.2000000476837158203125</AltitudeMeters>
            <DistanceMeters>4410.8752799087</DistanceMeters>
          </Trackpoint>
          <Trackpoint>
            <Time>2022-07-04T07:56:43.000Z</Time>
            <Position>
              <LatitudeDegrees>44.84078868292272090911865234375</LatitudeDegrees>
              <LongitudeDegrees>-0.56829697452485561370849609375</LongitudeDegrees>
            </Position>
            <AltitudeMeters>2</AltitudeMeters>
            <DistanceMeters>4443.1102127675</DistanceMeters>
          </Trackpoint>
          <Trackpoint>
            <Time>2022-07-04T07:56:46.000Z</Time>
            <Position>
              <LatitudeDegrees>44.84086998738348484039306640625</LatitudeDegrees>
              <LongitudeDegrees>-0.56832262314856052398681640625</LongitudeDegrees>
            </Position>
            <AltitudeMeters>2</AltitudeMeters>
            <DistanceMeters>4452.3829894767</DistanceMeters>
          </Trackpoint>
          <Trackpoint>
            <Time>2022-07-04T07:56:53.000Z</Time>
            <Position>
              <LatitudeDegrees>44.8410501144826412200927734375</LatitudeDegrees>
              <LongitudeDegrees>-0.5684150755405426025390625</LongitudeDegrees>
            </Position>
            <AltitudeMeters>2</AltitudeMeters>
            <DistanceMeters>4473.7181270058</DistanceMeters>
          </Trackpoint>
          <Trackpoint>
            <Time>2022-07-04T07:56:59.000Z</Time>
            <Position>
              <LatitudeDegrees>44.8411501944065093994140625</LatitudeDegrees>
              <LongitudeDegrees>-0.5685406364500522613525390625</LongitudeDegrees>
            </Position>
            <AltitudeMeters>2</AltitudeMeters>
            <DistanceMeters>4488.6267252495</DistanceMeters>
          </Trackpoint>
          <Trackpoint>
            <Time>2022-07-04T07:57:04.000Z</Time>
            <Position>
              <LatitudeDegrees>44.841131754219532012939453125</LatitudeDegrees>
              <LongitudeDegrees>-0.5687076039612293243408203125</LongitudeDegrees>
            </Position>
            <AltitudeMeters>2.2000000476837158203125</AltitudeMeters>
            <DistanceMeters>4501.9630060519</DistanceMeters>
          </Trackpoint>
          <Trackpoint>
            <Time>2022-07-04T07:57:12.000Z</Time>
            <Position>
              <LatitudeDegrees>44.841063022613525390625</LatitudeDegrees>
              <LongitudeDegrees>-0.56897289119660854339599609375</LongitudeDegrees>
            </Position>
            <AltitudeMeters>2.400000095367431640625</AltitudeMeters>
            <DistanceMeters>4524.2534052448</DistanceMeters>
          </Trackpoint>
          <Trackpoint>
            <Time>2022-07-04T07:57:14.000Z</Time>
            <Position>
              <LatitudeDegrees>44.8410440795123577117919921875</LatitudeDegrees>
              <LongitudeDegrees>-0.56904329918324947357177734375</LongitudeDegrees>
            </Position>
            <AltitudeMeters>2.400000095367431640625</AltitudeMeters>
            <DistanceMeters>4530.1954250104</DistanceMeters>
          </Trackpoint>
          <Trackpoint>
            <Time>2022-07-04T07:57:17.000Z</Time>
            <Position>
              <LatitudeDegrees>44.84103863127529621124267578125</LatitudeDegrees>
              <LongitudeDegrees>-0.56912259198725223541259765625</LongitudeDegrees>
            </Position>
            <AltitudeMeters>2.400000095367431640625</AltitudeMeters>
            <DistanceMeters>4536.4815696571</DistanceMeters>
          </Trackpoint>
          <Trackpoint>
            <Time>2022-07-04T07:57:21.000Z</Time>
            <Position>
              <LatitudeDegrees>44.84109990298748016357421875</LatitudeDegrees>
              <LongitudeDegrees>-0.5691632442176342010498046875</LongitudeDegrees>
            </Position>
            <AltitudeMeters>2.400000095367431640625</AltitudeMeters>
            <DistanceMeters>4544.0180927834</DistanceMeters>
          </Trackpoint>
          <Trackpoint>
            <Time>2022-07-04T07:57:25.000Z</Time>
            <Position>
              <LatitudeDegrees>44.841148518025875091552734375</LatitudeDegrees>
              <LongitudeDegrees>-0.569179840385913848876953125</LongitudeDegrees>
            </Position>
            <AltitudeMeters>2.2000000476837158203125</AltitudeMeters>
            <DistanceMeters>4549.5850688346</DistanceMeters>
          </Trackpoint>
          <Trackpoint>
            <Time>2022-07-04T07:57:27.000Z</Time>
            <Position>
              <LatitudeDegrees>44.8411527089774608612060546875</LatitudeDegrees>
              <LongitudeDegrees>-0.56920289061963558197021484375</LongitudeDegrees>
            </Position>
            <AltitudeMeters>2.2000000476837158203125</AltitudeMeters>
            <DistanceMeters>4551.4616960787</DistanceMeters>
          </Trackpoint>
          <Trackpoint>
            <Time>2022-07-04T07:57:33.000Z</Time>
            <Position>
              <LatitudeDegrees>44.84114172868430614471435546875</LatitudeDegrees>
              <LongitudeDegrees>-0.56934890337288379669189453125</LongitudeDegrees>
            </Position>
            <AltitudeMeters>2.599999904632568359375</AltitudeMeters>
            <DistanceMeters>4563.0495015966</DistanceMeters>
          </Trackpoint>
          <Trackpoint>
            <Time>2022-07-04T07:57:40.000Z</Time>
            <Position>
              <LatitudeDegrees>44.8411483503878116607666015625</LatitudeDegrees>
              <LongitudeDegrees>-0.5695286951959133148193359375</LongitudeDegrees>
            </Position>
            <AltitudeMeters>2.2000000476837158203125</AltitudeMeters>
            <DistanceMeters>4577.2575049365</DistanceMeters>
          </Trackpoint>
          <Trackpoint>
            <Time>2022-07-04T07:57:46.000Z</Time>
            <Position>
              <LatitudeDegrees>44.8411916010081768035888671875</LatitudeDegrees>
              <LongitudeDegrees>-0.569648556411266326904296875</LongitudeDegrees>
            </Position>
            <AltitudeMeters>1.7999999523162841796875</AltitudeMeters>
            <DistanceMeters>4587.8711849598</DistanceMeters>
          </Trackpoint>
          <Trackpoint>
            <Time>2022-07-04T07:57:47.000Z</Time>
            <Position>
              <LatitudeDegrees>44.84119587577879428863525390625</LatitudeDegrees>
              <LongitudeDegrees>-0.5696701817214488983154296875</LongitudeDegrees>
            </Position>
            <AltitudeMeters>1.7999999523162841796875</AltitudeMeters>
            <DistanceMeters>4589.64388533</DistanceMeters>
          </Trackpoint>
          <Trackpoint>
            <Time>2022-07-04T07:57:52.000Z</Time>
            <Position>
              <LatitudeDegrees>44.8412107117474079132080078125</LatitudeDegrees>
              <LongitudeDegrees>-0.569752492010593414306640625</LongitudeDegrees>
            </Position>
            <AltitudeMeters>1.60000002384185791015625</AltitudeMeters>
            <DistanceMeters>4596.3464691832</DistanceMeters>
          </Trackpoint>
          <Trackpoint>
            <Time>2022-07-04T07:57:53.000Z</Time>
            <Position>
              <LatitudeDegrees>44.84121398068964481353759765625</LatitudeDegrees>
              <LongitudeDegrees>-0.5697633884847164154052734375</LongitudeDegrees>
            </Position>
            <AltitudeMeters>1.60000002384185791015625</AltitudeMeters>
            <DistanceMeters>4597.2775370318</DistanceMeters>
          </Trackpoint>
          <Trackpoint>
            <Time>2022-07-04T07:57:55.000Z</Time>
            <Position>
              <LatitudeDegrees>44.84123937785625457763671875</LatitudeDegrees>
              <LongitudeDegrees>-0.56978442706167697906494140625</LongitudeDegrees>
            </Position>
            <AltitudeMeters>1.7999999523162841796875</AltitudeMeters>
            <DistanceMeters>4600.5556143598</DistanceMeters>
          </Trackpoint>
          <Trackpoint>
            <Time>2022-07-04T07:57:58.000Z</Time>
            <Position>
              <LatitudeDegrees>44.841271229088306427001953125</LatitudeDegrees>
              <LongitudeDegrees>-0.5697898752987384796142578125</LongitudeDegrees>
            </Position>
            <AltitudeMeters>1.60000002384185791015625</AltitudeMeters>
            <DistanceMeters>4604.1276583146</DistanceMeters>
          </Trackpoint>
          <Trackpoint>
            <Time>2022-07-04T07:58:01.000Z</Time>
            <Position>
              <LatitudeDegrees>44.841294027864933013916015625</LatitudeDegrees>
              <LongitudeDegrees>-0.56982315145432949066162109375</LongitudeDegrees>
            </Position>
            <AltitudeMeters>1.60000002384185791015625</AltitudeMeters>
            <DistanceMeters>4607.7797019764</DistanceMeters>
          </Trackpoint>
          <Trackpoint>
            <Time>2022-07-04T07:58:04.000Z</Time>
            <Position>
              <LatitudeDegrees>44.8413297347724437713623046875</LatitudeDegrees>
              <LongitudeDegrees>-0.56981091387569904327392578125</LongitudeDegrees>
            </Position>
            <AltitudeMeters>2</AltitudeMeters>
            <DistanceMeters>4611.8691642362</DistanceMeters>
          </Trackpoint>
          <Trackpoint>
            <Time>2022-07-04T07:58:05.000Z</Time>
            <Position>
              <LatitudeDegrees>44.84133861958980560302734375</LatitudeDegrees>
              <LongitudeDegrees>-0.56979431770741939544677734375</LongitudeDegrees>
            </Position>
            <AltitudeMeters>2.2000000476837158203125</AltitudeMeters>
            <DistanceMeters>4613.5095796654</DistanceMeters>
          </Trackpoint>
          <Trackpoint>
            <Time>2022-07-04T07:58:06.000Z</Time>
            <Position>
              <LatitudeDegrees>44.8413488455116748809814453125</LatitudeDegrees>
              <LongitudeDegrees>-0.56977202184498310089111328125</LongitudeDegrees>
            </Position>
            <AltitudeMeters>2.2000000476837158203125</AltitudeMeters>
            <DistanceMeters>4615.6044823246</DistanceMeters>
          </Trackpoint>
          <Trackpoint>
            <Time>2022-07-04T07:58:09.000Z</Time>
            <Position>
              <LatitudeDegrees>44.84138949774205684661865234375</LatitudeDegrees>
              <LongitudeDegrees>-0.5697063915431499481201171875</LongitudeDegrees>
            </Position>
            <AltitudeMeters>2.400000095367431640625</AltitudeMeters>
            <DistanceMeters>4622.4819484578</DistanceMeters>
          </Trackpoint>
          <Trackpoint>
            <Time>2022-07-04T07:58:10.000Z</Time>
            <Position>
              <LatitudeDegrees>44.84140676446259021759033203125</LatitudeDegrees>
              <LongitudeDegrees>-0.569705553352832794189453125</LongitudeDegrees>
            </Position>
            <AltitudeMeters>2.400000095367431640625</AltitudeMeters>
            <DistanceMeters>4624.4060927721</DistanceMeters>
          </Trackpoint>
          <Trackpoint>
            <Time>2022-07-04T07:58:14.000Z</Time>
            <Position>
              <LatitudeDegrees>44.84147616662085056304931640625</LatitudeDegrees>
              <LongitudeDegrees>-0.56973145343363285064697265625</LongitudeDegrees>
            </Position>
            <AltitudeMeters>2.599999904632568359375</AltitudeMeters>
            <DistanceMeters>4632.3973818178</DistanceMeters>
          </Trackpoint>
          <Trackpoint>
            <Time>2022-07-04T07:58:17.000Z</Time>
            <Position>
              <LatitudeDegrees>44.84153031371533870697021484375</LatitudeDegrees>
              <LongitudeDegrees>-0.56975014507770538330078125</LongitudeDegrees>
            </Position>
            <AltitudeMeters>2.7999999523162841796875</AltitudeMeters>
            <DistanceMeters>4638.6025607803</DistanceMeters>
          </Trackpoint>
          <Trackpoint>
            <Time>2022-07-04T07:58:25.000Z</Time>
            <Position>
              <LatitudeDegrees>44.84168336726725101470947265625</LatitudeDegrees>
              <LongitudeDegrees>-0.56981225498020648956298828125</LongitudeDegrees>
            </Position>
            <AltitudeMeters>2.2000000476837158203125</AltitudeMeters>
            <DistanceMeters>4656.3290550783</DistanceMeters>
          </Trackpoint>
          <Trackpoint>
            <Time>2022-07-04T07:58:33.000Z</Time>
            <Position>
              <LatitudeDegrees>44.84180088154971599578857421875</LatitudeDegrees>
              <LongitudeDegrees>-0.56987830437719821929931640625</LongitudeDegrees>
            </Position>
            <AltitudeMeters>2.2000000476837158203125</AltitudeMeters>
            <DistanceMeters>4670.409051465</DistanceMeters>
          </Trackpoint>
          <Trackpoint>
            <Time>2022-07-04T07:58:41.000Z</Time>
            <Position>
              <LatitudeDegrees>44.84196357429027557373046875</LatitudeDegrees>
              <LongitudeDegrees>-0.5698849260807037353515625</LongitudeDegrees>
            </Position>
            <AltitudeMeters>2.400000095367431640625</AltitudeMeters>
            <DistanceMeters>4688.5245431262</DistanceMeters>
          </Trackpoint>
          <Trackpoint>
            <Time>2022-07-04T07:58:42.000Z</Time>
            <Position>
              <LatitudeDegrees>44.8419857025146484375</LatitudeDegrees>
              <LongitudeDegrees>-0.5698934756219387054443359375</LongitudeDegrees>
            </Position>
            <AltitudeMeters>2.400000095367431640625</AltitudeMeters>
            <DistanceMeters>4691.077916423</DistanceMeters>
          </Trackpoint>
          <Trackpoint>
            <Time>2022-07-04T07:58:50.000Z</Time>
            <Position>
              <LatitudeDegrees>44.84213481657207012176513671875</LatitudeDegrees>
              <LongitudeDegrees>-0.569990538060665130615234375</LongitudeDegrees>
            </Position>
            <AltitudeMeters>3</AltitudeMeters>
            <DistanceMeters>4709.3566698932</DistanceMeters>
          </Trackpoint>
          <Trackpoint>
            <Time>2022-07-04T07:58:51.000Z</Time>
            <Position>
              <LatitudeDegrees>44.84214537777006626129150390625</LatitudeDegrees>
              <LongitudeDegrees>-0.5700081400573253631591796875</LongitudeDegrees>
            </Position>
            <AltitudeMeters>2.7999999523162841796875</AltitudeMeters>
            <DistanceMeters>4711.1746379838</DistanceMeters>
          </Trackpoint>
          <Trackpoint>
            <Time>2022-07-04T07:58:54.000Z</Time>
            <Position>
              <LatitudeDegrees>44.84218577854335308074951171875</LatitudeDegrees>
              <LongitudeDegrees>-0.57008097879588603973388671875</LongitudeDegrees>
            </Position>
            <AltitudeMeters>2.400000095367431640625</AltitudeMeters>
            <DistanceMeters>4718.4725411667</DistanceMeters>
          </Trackpoint>
          <Trackpoint>
            <Time>2022-07-04T07:58:56.000Z</Time>
            <Position>
              <LatitudeDegrees>44.842222742736339569091796875</LatitudeDegrees>
              <LongitudeDegrees>-0.57010243646800518035888671875</LongitudeDegrees>
            </Position>
            <AltitudeMeters>2.400000095367431640625</AltitudeMeters>
            <DistanceMeters>4722.9215778675</DistanceMeters>
          </Trackpoint>
          <Trackpoint>
            <Time>2022-07-04T07:59:04.000Z</Time>
            <Position>
              <LatitudeDegrees>44.84236598946154117584228515625</LatitudeDegrees>
              <LongitudeDegrees>-0.57019178755581378936767578125</LongitudeDegrees>
            </Position>
            <AltitudeMeters>2</AltitudeMeters>
            <DistanceMeters>4740.3552898346</DistanceMeters>
          </Trackpoint>
          <Trackpoint>
            <Time>2022-07-04T07:59:11.000Z</Time>
            <Position>
              <LatitudeDegrees>44.8425114154815673828125</LatitudeDegrees>
              <LongitudeDegrees>-0.57030041702091693878173828125</LongitudeDegrees>
            </Position>
            <AltitudeMeters>1.7999999523162841796875</AltitudeMeters>
            <DistanceMeters>4758.6715503712</DistanceMeters>
          </Trackpoint>
          <Trackpoint>
            <Time>2022-07-04T07:59:17.000Z</Time>
            <Position>
              <LatitudeDegrees>44.84263739548623561859130859375</LatitudeDegrees>
              <LongitudeDegrees>-0.57036302983760833740234375</LongitudeDegrees>
            </Position>
            <AltitudeMeters>1.7999999523162841796875</AltitudeMeters>
            <DistanceMeters>4773.5386005534</DistanceMeters>
          </Trackpoint>
          <Trackpoint>
            <Time>2022-07-04T07:59:25.000Z</Time>
            <Position>
              <LatitudeDegrees>44.84284912236034870147705078125</LatitudeDegrees>
              <LongitudeDegrees>-0.5704302527010440826416015625</LongitudeDegrees>
            </Position>
            <AltitudeMeters>2</AltitudeMeters>
            <DistanceMeters>4797.6938978901</DistanceMeters>
          </Trackpoint>
          <Trackpoint>
            <Time>2022-07-04T07:59:34.000Z</Time>
            <Position>
              <LatitudeDegrees>44.84309546649456024169921875</LatitudeDegrees>
              <LongitudeDegrees>-0.5705204419791698455810546875</LongitudeDegrees>
            </Position>
            <AltitudeMeters>2.2000000476837158203125</AltitudeMeters>
            <DistanceMeters>4826.0211048291</DistanceMeters>
          </Trackpoint>
          <Trackpoint>
            <Time>2022-07-04T07:59:36.000Z</Time>
            <Position>
              <LatitudeDegrees>44.843149445950984954833984375</LatitudeDegrees>
              <LongitudeDegrees>-0.570539720356464385986328125</LongitudeDegrees>
            </Position>
            <AltitudeMeters>2.2000000476837158203125</AltitudeMeters>
            <DistanceMeters>4832.2175461497</DistanceMeters>
          </Trackpoint>
          <Trackpoint>
            <Time>2022-07-04T07:59:44.000Z</Time>
            <Position>
              <LatitudeDegrees>44.8433195985853672027587890625</LatitudeDegrees>
              <LongitudeDegrees>-0.57058372534811496734619140625</LongitudeDegrees>
            </Position>
            <AltitudeMeters>2.400000095367431640625</AltitudeMeters>
            <DistanceMeters>4851.4716563169</DistanceMeters>
          </Trackpoint>
          <Trackpoint>
            <Time>2022-07-04T07:59:53.000Z</Time>
            <Position>
              <LatitudeDegrees>44.843508861958980560302734375</LatitudeDegrees>
              <LongitudeDegrees>-0.5706278979778289794921875</LongitudeDegrees>
            </Position>
            <AltitudeMeters>2.2000000476837158203125</AltitudeMeters>
            <DistanceMeters>4872.8235056379</DistanceMeters>
          </Trackpoint>
          <Trackpoint>
            <Time>2022-07-04T07:59:58.000Z</Time>
            <Position>
              <LatitudeDegrees>44.843614138662815093994140625</LatitudeDegrees>
              <LongitudeDegrees>-0.570678524672985076904296875</LongitudeDegrees>
            </Position>
            <AltitudeMeters>2.2000000476837158203125</AltitudeMeters>
            <DistanceMeters>4885.2036303337</DistanceMeters>
          </Trackpoint>
          <Trackpoint>
            <Time>2022-07-04T07:59:59.000Z</Time>
            <Position>
              <LatitudeDegrees>44.84363853000104427337646484375</LatitudeDegrees>
              <LongitudeDegrees>-0.57068497873842716217041015625</LongitudeDegrees>
            </Position>
            <AltitudeMeters>2.2000000476837158203125</AltitudeMeters>
            <DistanceMeters>4887.9675848687</DistanceMeters>
          </Trackpoint>
          <Trackpoint>
            <Time>2022-07-04T08:00:01.000Z</Time>
            <Position>
              <LatitudeDegrees>44.843673817813396453857421875</LatitudeDegrees>
              <LongitudeDegrees>-0.57069294154644012451171875</LongitudeDegrees>
            </Position>
            <AltitudeMeters>2.2000000476837158203125</AltitudeMeters>
            <DistanceMeters>4891.9451084613</DistanceMeters>
          </Trackpoint>
          <Trackpoint>
            <Time>2022-07-04T08:00:08.000Z</Time>
            <Position>
              <LatitudeDegrees>44.84379828907549381256103515625</LatitudeDegrees>
              <LongitudeDegrees>-0.57078673504292964935302734375</LongitudeDegrees>
            </Position>
            <AltitudeMeters>2</AltitudeMeters>
            <DistanceMeters>4907.6524235916</DistanceMeters>
          </Trackpoint>
          <Trackpoint>
            <Time>2022-07-04T08:00:10.000Z</Time>
            <Position>
              <LatitudeDegrees>44.84383349306881427764892578125</LatitudeDegrees>
              <LongitudeDegrees>-0.5707648582756519317626953125</LongitudeDegrees>
            </Position>
            <AltitudeMeters>2</AltitudeMeters>
            <DistanceMeters>4911.9339017454</DistanceMeters>
          </Trackpoint>
          <Trackpoint>
            <Time>2022-07-04T08:00:12.000Z</Time>
            <Position>
              <LatitudeDegrees>44.8438657633960247039794921875</LatitudeDegrees>
              <LongitudeDegrees>-0.5707806162536144256591796875</LongitudeDegrees>
            </Position>
            <AltitudeMeters>2</AltitudeMeters>
            <DistanceMeters>4915.7349703202</DistanceMeters>
          </Trackpoint>
          <Trackpoint>
            <Time>2022-07-04T08:00:13.000Z</Time>
            <Position>
              <LatitudeDegrees>44.84388160519301891326904296875</LatitudeDegrees>
              <LongitudeDegrees>-0.5707829631865024566650390625</LongitudeDegrees>
            </Position>
            <AltitudeMeters>2</AltitudeMeters>
            <DistanceMeters>4917.5076706903</DistanceMeters>
          </Trackpoint>
          <Trackpoint>
            <Time>2022-07-04T08:00:17.000Z</Time>
            <Position>
              <LatitudeDegrees>44.84392737038433551788330078125</LatitudeDegrees>
              <LongitudeDegrees>-0.5707772634923458099365234375</LongitudeDegrees>
            </Position>
            <AltitudeMeters>2.2000000476837158203125</AltitudeMeters>
            <DistanceMeters>4922.6214854486</DistanceMeters>
          </Trackpoint>
          <Trackpoint>
            <Time>2022-07-04T08:00:20.000Z</Time>
            <Position>
              <LatitudeDegrees>44.843969531357288360595703125</LatitudeDegrees>
              <LongitudeDegrees>-0.57077131234109401702880859375</LongitudeDegrees>
            </Position>
            <AltitudeMeters>2.2000000476837158203125</AltitudeMeters>
            <DistanceMeters>4927.3384875005</DistanceMeters>
          </Trackpoint>
          <Trackpoint>
            <Time>2022-07-04T08:00:22.000Z</Time>
            <Position>
              <LatitudeDegrees>44.844005070626735687255859375</LatitudeDegrees>
              <LongitudeDegrees>-0.5707900039851665496826171875</LongitudeDegrees>
            </Position>
            <AltitudeMeters>2.2000000476837158203125</AltitudeMeters>
            <DistanceMeters>4931.5604977919</DistanceMeters>
          </Trackpoint>
          <Trackpoint>
            <Time>2022-07-04T08:00:26.000Z</Time>
            <Position>
              <LatitudeDegrees>44.8440282046794891357421875</LatitudeDegrees>
              <LongitudeDegrees>-0.57079696096479892730712890625</LongitudeDegrees>
            </Position>
            <AltitudeMeters>2.2000000476837158203125</AltitudeMeters>
            <DistanceMeters>4934.1939553497</DistanceMeters>
          </Trackpoint>
          <Trackpoint>
            <Time>2022-07-04T08:00:38.000Z</Time>
            <Position>
              <LatitudeDegrees>44.84414152801036834716796875</LatitudeDegrees>
              <LongitudeDegrees>-0.5708030797541141510009765625</LongitudeDegrees>
            </Position>
            <AltitudeMeters>2.2000000476837158203125</AltitudeMeters>
            <DistanceMeters>4946.8164221759</DistanceMeters>
          </Trackpoint>
          <Trackpoint>
            <Time>2022-07-04T08:00:39.000Z</Time>
            <Position>
              <LatitudeDegrees>44.84416038729250431060791015625</LatitudeDegrees>
              <LongitudeDegrees>-0.570806600153446197509765625</LongitudeDegrees>
            </Position>
            <AltitudeMeters>2.2000000476837158203125</AltitudeMeters>
            <DistanceMeters>4948.9370301239</DistanceMeters>
          </Trackpoint>
          <Trackpoint>
            <Time>2022-07-04T08:00:44.000Z</Time>
            <Position>
              <LatitudeDegrees>44.8442359082400798797607421875</LatitudeDegrees>
              <LongitudeDegrees>-0.5708091147243976593017578125</LongitudeDegrees>
            </Position>
            <AltitudeMeters>2.400000095367431640625</AltitudeMeters>
            <DistanceMeters>4957.3456862921</DistanceMeters>
          </Trackpoint>
          <Trackpoint>
            <Time>2022-07-04T08:00:50.000Z</Time>
            <Position>
              <LatitudeDegrees>44.844324588775634765625</LatitudeDegrees>
              <LongitudeDegrees>-0.57079327292740345001220703125</LongitudeDegrees>
            </Position>
            <AltitudeMeters>2.599999904632568359375</AltitudeMeters>
            <DistanceMeters>4967.2944886272</DistanceMeters>
          </Trackpoint>
          <Trackpoint>
            <Time>2022-07-04T08:00:57.000Z</Time>
            <Position>
              <LatitudeDegrees>44.8444270156323909759521484375</LatitudeDegrees>
              <LongitudeDegrees>-0.57084716856479644775390625</LongitudeDegrees>
            </Position>
            <AltitudeMeters>2.2000000476837158203125</AltitudeMeters>
            <DistanceMeters>4979.4623616285</DistanceMeters>
          </Trackpoint>
          <Trackpoint>
            <Time>2022-07-04T08:01:03.000Z</Time>
            <Position>
              <LatitudeDegrees>44.84444822184741497039794921875</LatitudeDegrees>
              <LongitudeDegrees>-0.5708510242402553558349609375</LongitudeDegrees>
            </Position>
            <AltitudeMeters>1.7999999523162841796875</AltitudeMeters>
            <DistanceMeters>4981.8399292624</DistanceMeters>
          </Trackpoint>
          <Trackpoint>
            <Time>2022-07-04T08:01:40.000Z</Time>
            <Position>
              <LatitudeDegrees>44.84443028457462787628173828125</LatitudeDegrees>
              <LongitudeDegrees>-0.57090072892606258392333984375</LongitudeDegrees>
            </Position>
            <AltitudeMeters>1.60000002384185791015625</AltitudeMeters>
            <DistanceMeters>4986.2420360363</DistanceMeters>
          </Trackpoint>
          <Trackpoint>
            <Time>2022-07-04T08:01:41.000Z</Time>
            <Position>
              <LatitudeDegrees>44.84441787935793399810791015625</LatitudeDegrees>
              <LongitudeDegrees>-0.57092503644526004791259765625</LongitudeDegrees>
            </Position>
            <AltitudeMeters>1.60000002384185791015625</AltitudeMeters>
            <DistanceMeters>4988.60627319</DistanceMeters>
          </Trackpoint>
          <Trackpoint>
            <Time>2022-07-04T08:01:42.000Z</Time>
            <Position>
              <LatitudeDegrees>44.84440547414124011993408203125</LatitudeDegrees>
              <LongitudeDegrees>-0.570955462753772735595703125</LongitudeDegrees>
            </Position>
            <AltitudeMeters>1.60000002384185791015625</AltitudeMeters>
            <DistanceMeters>4991.3767541911</DistanceMeters>
          </Trackpoint>
          <Trackpoint>
            <Time>2022-07-04T08:01:45.000Z</Time>
            <Position>
              <LatitudeDegrees>44.844377227127552032470703125</LatitudeDegrees>
              <LongitudeDegrees>-0.5710461549460887908935546875</LongitudeDegrees>
            </Position>
            <AltitudeMeters>2.2000000476837158203125</AltitudeMeters>
            <DistanceMeters>4999.1943981694</DistanceMeters>
          </Trackpoint>
          <Trackpoint>
            <Time>2022-07-04T08:01:47.000Z</Time>
            <Position>
              <LatitudeDegrees>44.84435551799833774566650390625</LatitudeDegrees>
              <LongitudeDegrees>-0.57108999229967594146728515625</LongitudeDegrees>
            </Position>
            <AltitudeMeters>2.400000095367431640625</AltitudeMeters>
            <DistanceMeters>5003.4142691091</DistanceMeters>
          </Trackpoint>
          <Trackpoint>
            <Time>2022-07-04T08:01:51.000Z</Time>
            <Position>
              <LatitudeDegrees>44.84434294514358043670654296875</LatitudeDegrees>
              <LongitudeDegrees>-0.571190156042575836181640625</LongitudeDegrees>
            </Position>
            <AltitudeMeters>2.599999904632568359375</AltitudeMeters>
            <DistanceMeters>5011.4416363926</DistanceMeters>
          </Trackpoint>
          <Trackpoint>
            <Time>2022-07-04T08:01:53.000Z</Time>
            <Position>
              <LatitudeDegrees>44.84434830956161022186279296875</LatitudeDegrees>
              <LongitudeDegrees>-0.57122762314975261688232421875</LongitudeDegrees>
            </Position>
            <AltitudeMeters>2.599999904632568359375</AltitudeMeters>
            <DistanceMeters>5014.4586410422</DistanceMeters>
          </Trackpoint>
          <Trackpoint>
            <Time>2022-07-04T08:01:58.000Z</Time>
            <Position>
              <LatitudeDegrees>44.8443398438394069671630859375</LatitudeDegrees>
              <LongitudeDegrees>-0.57137346826493740081787109375</LongitudeDegrees>
            </Position>
            <AltitudeMeters>2.7999999523162841796875</AltitudeMeters>
            <DistanceMeters>5026.0066351937</DistanceMeters>
          </Trackpoint>
          <Trackpoint>
            <Time>2022-07-04T08:01:59.000Z</Time>
            <Position>
              <LatitudeDegrees>44.844339005649089813232421875</LatitudeDegrees>
              <LongitudeDegrees>-0.5713988654315471649169921875</LongitudeDegrees>
            </Position>
            <AltitudeMeters>2.7999999523162841796875</AltitudeMeters>
            <DistanceMeters>5028.0134770146</DistanceMeters>
          </Trackpoint>
          <Trackpoint>
            <Time>2022-07-04T08:02:04.000Z</Time>
            <Position>
              <LatitudeDegrees>44.844347052276134490966796875</LatitudeDegrees>
              <LongitudeDegrees>-0.57148260064423084259033203125</LongitudeDegrees>
            </Position>
            <AltitudeMeters>3</AltitudeMeters>
            <DistanceMeters>5034.6816174158</DistanceMeters>
          </Trackpoint>
          <Trackpoint>
            <Time>2022-07-04T08:02:05.000Z</Time>
            <Position>
              <LatitudeDegrees>44.84434948302805423736572265625</LatitudeDegrees>
              <LongitudeDegrees>-0.57149634696543216705322265625</LongitudeDegrees>
            </Position>
            <AltitudeMeters>3</AltitudeMeters>
            <DistanceMeters>5035.7979285504</DistanceMeters>
          </Trackpoint>
          <Trackpoint>
            <Time>2022-07-04T08:02:07.000Z</Time>
            <Position>
              <LatitudeDegrees>44.84434001147747039794921875</LatitudeDegrees>
              <LongitudeDegrees>-0.5715581215918064117431640625</LongitudeDegrees>
            </Position>
            <AltitudeMeters>3</AltitudeMeters>
            <DistanceMeters>5040.7866047956</DistanceMeters>
          </Trackpoint>
          <Trackpoint>
            <Time>2022-07-04T08:02:11.000Z</Time>
            <Position>
              <LatitudeDegrees>44.84434495680034160614013671875</LatitudeDegrees>
              <LongitudeDegrees>-0.57171695865690708160400390625</LongitudeDegrees>
            </Position>
            <AltitudeMeters>3</AltitudeMeters>
            <DistanceMeters>5053.3337300729</DistanceMeters>
          </Trackpoint>
          <Trackpoint>
            <Time>2022-07-04T08:02:12.000Z</Time>
            <Position>
              <LatitudeDegrees>44.84434126876294612884521484375</LatitudeDegrees>
              <LongitudeDegrees>-0.57174495421350002288818359375</LongitudeDegrees>
            </Position>
            <AltitudeMeters>3</AltitudeMeters>
            <DistanceMeters>5055.5804638649</DistanceMeters>
          </Trackpoint>
          <Trackpoint>
            <Time>2022-07-04T08:02:15.000Z</Time>
            <Position>
              <LatitudeDegrees>44.8443217389285564422607421875</LatitudeDegrees>
              <LongitudeDegrees>-0.57180681265890598297119140625</LongitudeDegrees>
            </Position>
            <AltitudeMeters>3.2000000476837158203125</AltitudeMeters>
            <DistanceMeters>5060.9239741078</DistanceMeters>
          </Trackpoint>
          <Trackpoint>
            <Time>2022-07-04T08:02:17.000Z</Time>
            <Position>
              <LatitudeDegrees>44.84430522657930850982666015625</LatitudeDegrees>
              <LongitudeDegrees>-0.5718360655009746551513671875</LongitudeDegrees>
            </Position>
            <AltitudeMeters>3.400000095367431640625</AltitudeMeters>
            <DistanceMeters>5063.8728660379</DistanceMeters>
          </Trackpoint>
          <Trackpoint>
            <Time>2022-07-04T08:02:18.000Z</Time>
            <Position>
              <LatitudeDegrees>44.8442991077899932861328125</LatitudeDegrees>
              <LongitudeDegrees>-0.5718451179563999176025390625</LongitudeDegrees>
            </Position>
            <AltitudeMeters>3.400000095367431640625</AltitudeMeters>
            <DistanceMeters>5064.8604126221</DistanceMeters>
          </Trackpoint>
          <Trackpoint>
            <Time>2022-07-04T08:02:20.000Z</Time>
            <Position>
              <LatitudeDegrees>44.8442878760397434234619140625</LatitudeDegrees>
              <LongitudeDegrees>-0.57186196558177471160888671875</LongitudeDegrees>
            </Position>
            <AltitudeMeters>3.400000095367431640625</AltitudeMeters>
            <DistanceMeters>5066.6882879691</DistanceMeters>
          </Trackpoint>
          <Trackpoint>
            <Time>2022-07-04T08:02:23.000Z</Time>
            <Position>
              <LatitudeDegrees>44.84423213638365268707275390625</LatitudeDegrees>
              <LongitudeDegrees>-0.5718987621366977691650390625</LongitudeDegrees>
            </Position>
            <AltitudeMeters>3.400000095367431640625</AltitudeMeters>
            <DistanceMeters>5073.539443883</DistanceMeters>
          </Trackpoint>
          <Trackpoint>
            <Time>2022-07-04T08:02:25.000Z</Time>
            <Position>
              <LatitudeDegrees>44.84419341199100017547607421875</LatitudeDegrees>
              <LongitudeDegrees>-0.57195668108761310577392578125</LongitudeDegrees>
            </Position>
            <AltitudeMeters>3.400000095367431640625</AltitudeMeters>
            <DistanceMeters>5079.8227148634</DistanceMeters>
          </Trackpoint>
          <Trackpoint>
            <Time>2022-07-04T08:02:26.000Z</Time>
            <Position>
              <LatitudeDegrees>44.84415829181671142578125</LatitudeDegrees>
              <LongitudeDegrees>-0.57196355424821376800537109375</LongitudeDegrees>
            </Position>
            <AltitudeMeters>3.400000095367431640625</AltitudeMeters>
            <DistanceMeters>5083.7694707294</DistanceMeters>
          </Trackpoint>
          <Trackpoint>
            <Time>2022-07-04T08:02:28.000Z</Time>
            <Position>
              <LatitudeDegrees>44.84410221688449382781982421875</LatitudeDegrees>
              <LongitudeDegrees>-0.57198098860681056976318359375</LongitudeDegrees>
            </Position>
            <AltitudeMeters>3.2000000476837158203125</AltitudeMeters>
            <DistanceMeters>5090.1610328101</DistanceMeters>
          </Trackpoint>
          <Trackpoint>
            <Time>2022-07-04T08:02:29.000Z</Time>
            <Position>
              <LatitudeDegrees>44.844091236591339111328125</LatitudeDegrees>
              <LongitudeDegrees>-0.571996159851551055908203125</LongitudeDegrees>
            </Position>
            <AltitudeMeters>3.2000000476837158203125</AltitudeMeters>
            <DistanceMeters>5091.8741512661</DistanceMeters>
          </Trackpoint>
          <Trackpoint>
            <Time>2022-07-04T08:02:31.000Z</Time>
            <Position>
              <LatitudeDegrees>44.84408243559300899505615234375</LatitudeDegrees>
              <LongitudeDegrees>-0.5720472894608974456787109375</LongitudeDegrees>
            </Position>
            <AltitudeMeters>3.2000000476837158203125</AltitudeMeters>
            <DistanceMeters>5096.0260684054</DistanceMeters>
          </Trackpoint>
          <Trackpoint>
            <Time>2022-07-04T08:02:33.000Z</Time>
            <Position>
              <LatitudeDegrees>44.8440652526915073394775390625</LatitudeDegrees>
              <LongitudeDegrees>-0.57211727835237979888916015625</LongitudeDegrees>
            </Position>
            <AltitudeMeters>3.400000095367431640625</AltitudeMeters>
            <DistanceMeters>5101.8715631889</DistanceMeters>
          </Trackpoint>
          <Trackpoint>
            <Time>2022-07-04T08:02:37.000Z</Time>
            <Position>
              <LatitudeDegrees>44.84404589049518108367919921875</LatitudeDegrees>
              <LongitudeDegrees>-0.5722337029874324798583984375</LongitudeDegrees>
            </Position>
            <AltitudeMeters>3.599999904632568359375</AltitudeMeters>
            <DistanceMeters>5111.3084384075</DistanceMeters>
          </Trackpoint>
          <Trackpoint>
            <Time>2022-07-04T08:02:39.000Z</Time>
            <Position>
              <LatitudeDegrees>44.84403851442039012908935546875</LatitudeDegrees>
              <LongitudeDegrees>-0.572291202843189239501953125</LongitudeDegrees>
            </Position>
            <AltitudeMeters>3.7999999523162841796875</AltitudeMeters>
            <DistanceMeters>5115.9189481351</DistanceMeters>
          </Trackpoint>
          <Trackpoint>
            <Time>2022-07-04T08:02:40.000Z</Time>
            <Position>
              <LatitudeDegrees>44.84403583221137523651123046875</LatitudeDegrees>
              <LongitudeDegrees>-0.57231727056205272674560546875</LongitudeDegrees>
            </Position>
            <AltitudeMeters>3.7999999523162841796875</AltitudeMeters>
            <DistanceMeters>5117.9987093274</DistanceMeters>
          </Trackpoint>
          <Trackpoint>
            <Time>2022-07-04T08:02:41.000Z</Time>
            <Position>
              <LatitudeDegrees>44.844032227993011474609375</LatitudeDegrees>
              <LongitudeDegrees>-0.572336800396442413330078125</LongitudeDegrees>
            </Position>
            <AltitudeMeters>3.7999999523162841796875</AltitudeMeters>
            <DistanceMeters>5119.5916473302</DistanceMeters>
          </Trackpoint>
          <Trackpoint>
            <Time>2022-07-04T08:02:43.000Z</Time>
            <Position>
              <LatitudeDegrees>44.844031222164630889892578125</LatitudeDegrees>
              <LongitudeDegrees>-0.57237359695136547088623046875</LongitudeDegrees>
            </Position>
            <AltitudeMeters>3.7999999523162841796875</AltitudeMeters>
            <DistanceMeters>5122.4989057555</DistanceMeters>
          </Trackpoint>
          <Trackpoint>
            <Time>2022-07-04T08:02:45.000Z</Time>
            <Position>
              <LatitudeDegrees>44.84402007423341274261474609375</LatitudeDegrees>
              <LongitudeDegrees>-0.57243981398642063140869140625</LongitudeDegrees>
            </Position>
            <AltitudeMeters>3.7999999523162841796875</AltitudeMeters>
            <DistanceMeters>5127.8693865684</DistanceMeters>
          </Trackpoint>
          <Trackpoint>
            <Time>2022-07-04T08:02:47.000Z</Time>
            <Position>
              <LatitudeDegrees>44.84402527101337909698486328125</LatitudeDegrees>
              <LongitudeDegrees>-0.57256017811596393585205078125</LongitudeDegrees>
            </Position>
            <AltitudeMeters>4</AltitudeMeters>
            <DistanceMeters>5137.3853524458</DistanceMeters>
          </Trackpoint>
          <Trackpoint>
            <Time>2022-07-04T08:02:49.000Z</Time>
            <Position>
              <LatitudeDegrees>44.844049997627735137939453125</LatitudeDegrees>
              <LongitudeDegrees>-0.57263494469225406646728515625</LongitudeDegrees>
            </Position>
            <AltitudeMeters>4</AltitudeMeters>
            <DistanceMeters>5143.8958961119</DistanceMeters>
          </Trackpoint>
          <Trackpoint>
            <Time>2022-07-04T08:02:51.000Z</Time>
            <Position>
              <LatitudeDegrees>44.8440535180270671844482421875</LatitudeDegrees>
              <LongitudeDegrees>-0.57272412814199924468994140625</LongitudeDegrees>
            </Position>
            <AltitudeMeters>4.19999980926513671875</AltitudeMeters>
            <DistanceMeters>5150.9445470888</DistanceMeters>
          </Trackpoint>
          <Trackpoint>
            <Time>2022-07-04T08:02:53.000Z</Time>
            <Position>
              <LatitudeDegrees>44.84405812807381153106689453125</LatitudeDegrees>
              <LongitudeDegrees>-0.57277324609458446502685546875</LongitudeDegrees>
            </Position>
            <AltitudeMeters>4.19999980926513671875</AltitudeMeters>
            <DistanceMeters>5154.853369078</DistanceMeters>
          </Trackpoint>
          <Trackpoint>
            <Time>2022-07-04T08:02:54.000Z</Time>
            <Position>
              <LatitudeDegrees>44.84405393712222576141357421875</LatitudeDegrees>
              <LongitudeDegrees>-0.57279034517705440521240234375</LongitudeDegrees>
            </Position>
            <AltitudeMeters>4.19999980926513671875</AltitudeMeters>
            <DistanceMeters>5156.281933839</DistanceMeters>
          </Trackpoint>
          <Trackpoint>
            <Time>2022-07-04T08:02:55.000Z</Time>
            <Position>
              <LatitudeDegrees>44.84404941089451313018798828125</LatitudeDegrees>
              <LongitudeDegrees>-0.5728140659630298614501953125</LongitudeDegrees>
            </Position>
            <AltitudeMeters>4.19999980926513671875</AltitudeMeters>
            <DistanceMeters>5158.2201061225</DistanceMeters>
          </Trackpoint>
          <Trackpoint>
            <Time>2022-07-04T08:02:58.000Z</Time>
            <Position>
              <LatitudeDegrees>44.84405108727514743804931640625</LatitudeDegrees>
              <LongitudeDegrees>-0.57292110286653041839599609375</LongitudeDegrees>
            </Position>
            <AltitudeMeters>4.19999980926513671875</AltitudeMeters>
            <DistanceMeters>5166.6684032417</DistanceMeters>
          </Trackpoint>
          <Trackpoint>
            <Time>2022-07-04T08:02:59.000Z</Time>
            <Position>
              <LatitudeDegrees>44.84404496848583221435546875</LatitudeDegrees>
              <LongitudeDegrees>-0.57295412756502628326416015625</LongitudeDegrees>
            </Position>
            <AltitudeMeters>4.400000095367431640625</AltitudeMeters>
            <DistanceMeters>5169.3628756317</DistanceMeters>
          </Trackpoint>
          <Trackpoint>
            <Time>2022-07-04T08:03:01.000Z</Time>
            <Position>
              <LatitudeDegrees>44.844026863574981689453125</LatitudeDegrees>
              <LongitudeDegrees>-0.57301975786685943603515625</LongitudeDegrees>
            </Position>
            <AltitudeMeters>4.400000095367431640625</AltitudeMeters>
            <DistanceMeters>5174.9201106851</DistanceMeters>
          </Trackpoint>
          <Trackpoint>
            <Time>2022-07-04T08:03:06.000Z</Time>
            <Position>
              <LatitudeDegrees>44.84391429461538791656494140625</LatitudeDegrees>
              <LongitudeDegrees>-0.5731858871877193450927734375</LongitudeDegrees>
            </Position>
            <AltitudeMeters>4.599999904632568359375</AltitudeMeters>
            <DistanceMeters>5193.0545344128</DistanceMeters>
          </Trackpoint>
          <Trackpoint>
            <Time>2022-07-04T08:03:08.000Z</Time>
            <Position>
              <LatitudeDegrees>44.8439810983836650848388671875</LatitudeDegrees>
              <LongitudeDegrees>-0.57319485582411289215087890625</LongitudeDegrees>
            </Position>
            <AltitudeMeters>4.599999904632568359375</AltitudeMeters>
            <DistanceMeters>5200.5236583421</DistanceMeters>
          </Trackpoint>
          <Trackpoint>
            <Time>2022-07-04T08:03:11.000Z</Time>
            <Position>
              <LatitudeDegrees>44.8438949324190616607666015625</LatitudeDegrees>
              <LongitudeDegrees>-0.57320876978337764739990234375</LongitudeDegrees>
            </Position>
            <AltitudeMeters>4.80000019073486328125</AltitudeMeters>
            <DistanceMeters>5210.1771752609</DistanceMeters>
          </Trackpoint>
          <Trackpoint>
            <Time>2022-07-04T08:03:12.000Z</Time>
            <Position>
              <LatitudeDegrees>44.8438892327249050140380859375</LatitudeDegrees>
              <LongitudeDegrees>-0.57320424355566501617431640625</LongitudeDegrees>
            </Position>
            <AltitudeMeters>4.80000019073486328125</AltitudeMeters>
            <DistanceMeters>5210.9070893039</DistanceMeters>
          </Trackpoint>
          <Trackpoint>
            <Time>2022-07-04T08:03:16.000Z</Time>
            <Position>
              <LatitudeDegrees>44.8436746560037136077880859375</LatitudeDegrees>
              <LongitudeDegrees>-0.5732633359730243682861328125</LongitudeDegrees>
            </Position>
            <AltitudeMeters>4.80000019073486328125</AltitudeMeters>
            <DistanceMeters>5235.2409799245</DistanceMeters>
          </Trackpoint>
          <Trackpoint>
            <Time>2022-07-04T08:03:20.000Z</Time>
            <Position>
              <LatitudeDegrees>44.8434567265212535858154296875</LatitudeDegrees>
              <LongitudeDegrees>-0.5732492543756961822509765625</LongitudeDegrees>
            </Position>
            <AltitudeMeters>4.400000095367431640625</AltitudeMeters>
            <DistanceMeters>5259.5224904043</DistanceMeters>
          </Trackpoint>
          <Trackpoint>
            <Time>2022-07-04T08:03:21.000Z</Time>
            <Position>
              <LatitudeDegrees>44.8433916829526424407958984375</LatitudeDegrees>
              <LongitudeDegrees>-0.57325755245983600616455078125</LongitudeDegrees>
            </Position>
            <AltitudeMeters>4.400000095367431640625</AltitudeMeters>
            <DistanceMeters>5266.7912576501</DistanceMeters>
          </Trackpoint>
          <Trackpoint>
            <Time>2022-07-04T08:03:22.000Z</Time>
            <Position>
              <LatitudeDegrees>44.84335371293127536773681640625</LatitudeDegrees>
              <LongitudeDegrees>-0.5732613243162631988525390625</LongitudeDegrees>
            </Position>
            <AltitudeMeters>4.400000095367431640625</AltitudeMeters>
            <DistanceMeters>5271.0282131574</DistanceMeters>
          </Trackpoint>
          <Trackpoint>
            <Time>2022-07-04T08:03:23.000Z</Time>
            <Position>
              <LatitudeDegrees>44.843324460089206695556640625</LatitudeDegrees>
              <LongitudeDegrees>-0.57326124049723148345947265625</LongitudeDegrees>
            </Position>
            <AltitudeMeters>4.400000095367431640625</AltitudeMeters>
            <DistanceMeters>5274.285564815</DistanceMeters>
          </Trackpoint>
          <Trackpoint>
            <Time>2022-07-04T08:03:24.000Z</Time>
            <Position>
              <LatitudeDegrees>44.84329118393361568450927734375</LatitudeDegrees>
              <LongitudeDegrees>-0.573258809745311737060546875</LongitudeDegrees>
            </Position>
            <AltitudeMeters>4.400000095367431640625</AltitudeMeters>
            <DistanceMeters>5277.9940424574</DistanceMeters>
          </Trackpoint>
          <Trackpoint>
            <Time>2022-07-04T08:03:26.000Z</Time>
            <Position>
              <LatitudeDegrees>44.84324340708553791046142578125</LatitudeDegrees>
              <LongitudeDegrees>-0.57318513281643390655517578125</LongitudeDegrees>
            </Position>
            <AltitudeMeters>4.400000095367431640625</AltitudeMeters>
            <DistanceMeters>5285.8738143849</DistanceMeters>
          </Trackpoint>
          <Trackpoint>
            <Time>2022-07-04T08:03:27.000Z</Time>
            <Position>
              <LatitudeDegrees>44.843180291354656219482421875</LatitudeDegrees>
              <LongitudeDegrees>-0.57319368235766887664794921875</LongitudeDegrees>
            </Position>
            <AltitudeMeters>4.400000095367431640625</AltitudeMeters>
            <DistanceMeters>5292.9314274137</DistanceMeters>
          </Trackpoint>
          <Trackpoint>
            <Time>2022-07-04T08:03:31.000Z</Time>
            <Position>
              <LatitudeDegrees>44.8430275730788707733154296875</LatitudeDegrees>
              <LongitudeDegrees>-0.5731989629566669464111328125</LongitudeDegrees>
            </Position>
            <AltitudeMeters>4.19999980926513671875</AltitudeMeters>
            <DistanceMeters>5309.9345720473</DistanceMeters>
          </Trackpoint>
          <Trackpoint>
            <Time>2022-07-04T08:03:34.000Z</Time>
            <Position>
              <LatitudeDegrees>44.84301072545349597930908203125</LatitudeDegrees>
              <LongitudeDegrees>-0.5731956101953983306884765625</LongitudeDegrees>
            </Position>
            <AltitudeMeters>4</AltitudeMeters>
            <DistanceMeters>5311.8303490449</DistanceMeters>
          </Trackpoint>
          <Trackpoint>
            <Time>2022-07-04T08:03:36.000Z</Time>
            <Position>
              <LatitudeDegrees>44.843013994395732879638671875</LatitudeDegrees>
              <LongitudeDegrees>-0.57317398488521575927734375</LongitudeDegrees>
            </Position>
            <AltitudeMeters>4</AltitudeMeters>
            <DistanceMeters>5313.5773939321</DistanceMeters>
          </Trackpoint>
          <Trackpoint>
            <Time>2022-07-04T08:03:37.000Z</Time>
            <Position>
              <LatitudeDegrees>44.84300485812127590179443359375</LatitudeDegrees>
              <LongitudeDegrees>-0.5731758289039134979248046875</LongitudeDegrees>
            </Position>
            <AltitudeMeters>4</AltitudeMeters>
            <DistanceMeters>5314.6096482711</DistanceMeters>
          </Trackpoint>
          <Trackpoint>
            <Time>2022-07-04T08:03:41.000Z</Time>
            <Position>
              <LatitudeDegrees>44.84294836409389972686767578125</LatitudeDegrees>
              <LongitudeDegrees>-0.5731654353439807891845703125</LongitudeDegrees>
            </Position>
            <AltitudeMeters>4</AltitudeMeters>
            <DistanceMeters>5320.950145123</DistanceMeters>
          </Trackpoint>
          <Trackpoint>
            <Time>2022-07-04T08:03:45.000Z</Time>
            <Position>
              <LatitudeDegrees>44.8428689874708652496337890625</LatitudeDegrees>
              <LongitudeDegrees>-0.573152862489223480224609375</LongitudeDegrees>
            </Position>
            <AltitudeMeters>4.19999980926513671875</AltitudeMeters>
            <DistanceMeters>5329.8400961374</DistanceMeters>
          </Trackpoint>
          <Trackpoint>
            <Time>2022-07-04T08:03:46.000Z</Time>
            <Position>
              <LatitudeDegrees>44.84284996055066585540771484375</LatitudeDegrees>
              <LongitudeDegrees>-0.57315143756568431854248046875</LongitudeDegrees>
            </Position>
            <AltitudeMeters>4.19999980926513671875</AltitudeMeters>
            <DistanceMeters>5331.9607040854</DistanceMeters>
          </Trackpoint>
          <Trackpoint>
            <Time>2022-07-04T08:03:47.000Z</Time>
            <Position>
              <LatitudeDegrees>44.84284291975200176239013671875</LatitudeDegrees>
              <LongitudeDegrees>-0.573141463100910186767578125</LongitudeDegrees>
            </Position>
            <AltitudeMeters>4.19999980926513671875</AltitudeMeters>
            <DistanceMeters>5333.0688964858</DistanceMeters>
          </Trackpoint>
          <Trackpoint>
            <Time>2022-07-04T08:03:49.000Z</Time>
            <Position>
              <LatitudeDegrees>44.842820204794406890869140625</LatitudeDegrees>
              <LongitudeDegrees>-0.57308488525450229644775390625</LongitudeDegrees>
            </Position>
            <AltitudeMeters>4.19999980926513671875</AltitudeMeters>
            <DistanceMeters>5338.2003390618</DistanceMeters>
          </Trackpoint>
          <Trackpoint>
            <Time>2022-07-04T08:03:50.000Z</Time>
            <Position>
              <LatitudeDegrees>44.84278508462011814117431640625</LatitudeDegrees>
              <LongitudeDegrees>-0.57306133210659027099609375</LongitudeDegrees>
            </Position>
            <AltitudeMeters>4.19999980926513671875</AltitudeMeters>
            <DistanceMeters>5342.5300548374</DistanceMeters>
          </Trackpoint>
          <Trackpoint>
            <Time>2022-07-04T08:03:53.000Z</Time>
            <Position>
              <LatitudeDegrees>44.8427841626107692718505859375</LatitudeDegrees>
              <LongitudeDegrees>-0.57305839844048023223876953125</LongitudeDegrees>
            </Position>
            <AltitudeMeters>4.19999980926513671875</AltitudeMeters>
            <DistanceMeters>5342.7814718915</DistanceMeters>
          </Trackpoint>
          <Trackpoint>
            <Time>2022-07-04T08:03:54.000Z</Time>
            <Position>
              <LatitudeDegrees>44.842763878405094146728515625</LatitudeDegrees>
              <LongitudeDegrees>-0.57307248003780841827392578125</LongitudeDegrees>
            </Position>
            <AltitudeMeters>4.19999980926513671875</AltitudeMeters>
            <DistanceMeters>5345.2992315432</DistanceMeters>
          </Trackpoint>
          <Trackpoint>
            <Time>2022-07-04T08:03:55.000Z</Time>
            <Position>
              <LatitudeDegrees>44.842733033001422882080078125</LatitudeDegrees>
              <LongitudeDegrees>-0.5730628408491611480712890625</LongitudeDegrees>
            </Position>
            <AltitudeMeters>4.400000095367431640625</AltitudeMeters>
            <DistanceMeters>5348.8165038853</DistanceMeters>
          </Trackpoint>
          <Trackpoint>
            <Time>2022-07-04T08:04:01.000Z</Time>
            <Position>
              <LatitudeDegrees>44.84242868609726428985595703125</LatitudeDegrees>
              <LongitudeDegrees>-0.57307801209390163421630859375</LongitudeDegrees>
            </Position>
            <AltitudeMeters>4.400000095367431640625</AltitudeMeters>
            <DistanceMeters>5382.7121479435</DistanceMeters>
          </Trackpoint>
          <Trackpoint>
            <Time>2022-07-04T08:04:05.000Z</Time>
            <Position>
              <LatitudeDegrees>44.842353165149688720703125</LatitudeDegrees>
              <LongitudeDegrees>-0.573124699294567108154296875</LongitudeDegrees>
            </Position>
            <AltitudeMeters>4.599999904632568359375</AltitudeMeters>
            <DistanceMeters>5391.8899773747</DistanceMeters>
          </Trackpoint>
          <Trackpoint>
            <Time>2022-07-04T08:04:06.000Z</Time>
            <Position>
              <LatitudeDegrees>44.8423442803323268890380859375</LatitudeDegrees>
              <LongitudeDegrees>-0.57314984500408172607421875</LongitudeDegrees>
            </Position>
            <AltitudeMeters>4.80000019073486328125</AltitudeMeters>
            <DistanceMeters>5394.1083983586</DistanceMeters>
          </Trackpoint>
          <Trackpoint>
            <Time>2022-07-04T08:04:07.000Z</Time>
            <Position>
              <LatitudeDegrees>44.842342436313629150390625</LatitudeDegrees>
              <LongitudeDegrees>-0.57317624799907207489013671875</LongitudeDegrees>
            </Position>
            <AltitudeMeters>4.80000019073486328125</AltitudeMeters>
            <DistanceMeters>5396.2033010179</DistanceMeters>
          </Trackpoint>
          <Trackpoint>
            <Time>2022-07-04T08:04:11.000Z</Time>
            <Position>
              <LatitudeDegrees>44.84237453900277614593505859375</LatitudeDegrees>
              <LongitudeDegrees>-0.57329007424414157867431640625</LongitudeDegrees>
            </Position>
            <AltitudeMeters>5</AltitudeMeters>
            <DistanceMeters>5405.8708390289</DistanceMeters>
          </Trackpoint>
          <Trackpoint>
            <Time>2022-07-04T08:04:15.000Z</Time>
            <Position>
              <LatitudeDegrees>44.84235383570194244384765625</LatitudeDegrees>
              <LongitudeDegrees>-0.573392920196056365966796875</LongitudeDegrees>
            </Position>
            <AltitudeMeters>5.400000095367431640625</AltitudeMeters>
            <DistanceMeters>5414.3084407429</DistanceMeters>
          </Trackpoint>
          <Trackpoint>
            <Time>2022-07-04T08:04:16.000Z</Time>
            <Position>
              <LatitudeDegrees>44.842346124351024627685546875</LatitudeDegrees>
              <LongitudeDegrees>-0.5734281241893768310546875</LongitudeDegrees>
            </Position>
            <AltitudeMeters>5.599999904632568359375</AltitudeMeters>
            <DistanceMeters>5417.2188035561</DistanceMeters>
          </Trackpoint>
          <Trackpoint>
            <Time>2022-07-04T08:04:17.000Z</Time>
            <Position>
              <LatitudeDegrees>44.8423412628471851348876953125</LatitudeDegrees>
              <LongitudeDegrees>-0.573466680943965911865234375</LongitudeDegrees>
            </Position>
            <AltitudeMeters>5.599999904632568359375</AltitudeMeters>
            <DistanceMeters>5420.3097291259</DistanceMeters>
          </Trackpoint>
          <Trackpoint>
            <Time>2022-07-04T08:04:18.000Z</Time>
            <Position>
              <LatitudeDegrees>44.84234067611396312713623046875</LatitudeDegrees>
              <LongitudeDegrees>-0.5734817683696746826171875</LongitudeDegrees>
            </Position>
            <AltitudeMeters>5.599999904632568359375</AltitudeMeters>
            <DistanceMeters>5421.5004104442</DistanceMeters>
          </Trackpoint>
          <Trackpoint>
            <Time>2022-07-04T08:04:23.000Z</Time>
            <Position>
              <LatitudeDegrees>44.84231871552765369415283203125</LatitudeDegrees>
              <LongitudeDegrees>-0.5736158788204193115234375</LongitudeDegrees>
            </Position>
            <AltitudeMeters>5.80000019073486328125</AltitudeMeters>
            <DistanceMeters>5432.3625915703</DistanceMeters>
          </Trackpoint>
          <Trackpoint>
            <Time>2022-07-04T08:04:27.000Z</Time>
            <Position>
              <LatitudeDegrees>44.84230949543416500091552734375</LatitudeDegrees>
              <LongitudeDegrees>-0.57372517883777618408203125</LongitudeDegrees>
            </Position>
            <AltitudeMeters>6.19999980926513671875</AltitudeMeters>
            <DistanceMeters>5441.0490936722</DistanceMeters>
          </Trackpoint>
          <Trackpoint>
            <Time>2022-07-04T08:04:29.000Z</Time>
            <Position>
              <LatitudeDegrees>44.84231150709092617034912109375</LatitudeDegrees>
              <LongitudeDegrees>-0.573785193264484405517578125</LongitudeDegrees>
            </Position>
            <AltitudeMeters>6.19999980926513671875</AltitudeMeters>
            <DistanceMeters>5445.7899649285</DistanceMeters>
          </Trackpoint>
          <Trackpoint>
            <Time>2022-07-04T08:04:31.000Z</Time>
            <Position>
              <LatitudeDegrees>44.84230949543416500091552734375</LatitudeDegrees>
              <LongitudeDegrees>-0.5738400109112262725830078125</LongitudeDegrees>
            </Position>
            <AltitudeMeters>6.400000095367431640625</AltitudeMeters>
            <DistanceMeters>5450.120723381</DistanceMeters>
          </Trackpoint>
          <Trackpoint>
            <Time>2022-07-04T08:04:32.000Z</Time>
            <Position>
              <LatitudeDegrees>44.842297174036502838134765625</LatitudeDegrees>
              <LongitudeDegrees>-0.5738651566207408905029296875</LongitudeDegrees>
            </Position>
            <AltitudeMeters>6.599999904632568359375</AltitudeMeters>
            <DistanceMeters>5452.5322310484</DistanceMeters>
          </Trackpoint>
          <Trackpoint>
            <Time>2022-07-04T08:04:34.000Z</Time>
            <Position>
              <LatitudeDegrees>44.84229340218007564544677734375</LatitudeDegrees>
              <LongitudeDegrees>-0.57392223738133907318115234375</LongitudeDegrees>
            </Position>
            <AltitudeMeters>6.599999904632568359375</AltitudeMeters>
            <DistanceMeters>5457.056740226</DistanceMeters>
          </Trackpoint>
          <Trackpoint>
            <Time>2022-07-04T08:04:35.000Z</Time>
            <Position>
              <LatitudeDegrees>44.842291809618473052978515625</LatitudeDegrees>
              <LongitudeDegrees>-0.57394973002374172210693359375</LongitudeDegrees>
            </Position>
            <AltitudeMeters>6.80000019073486328125</AltitudeMeters>
            <DistanceMeters>5459.2320011429</DistanceMeters>
          </Trackpoint>
          <Trackpoint>
            <Time>2022-07-04T08:04:37.000Z</Time>
            <Position>
              <LatitudeDegrees>44.84227948822081089019775390625</LatitudeDegrees>
              <LongitudeDegrees>-0.57401075027883052825927734375</LongitudeDegrees>
            </Position>
            <AltitudeMeters>6.80000019073486328125</AltitudeMeters>
            <DistanceMeters>5464.2387458147</DistanceMeters>
          </Trackpoint>
          <Trackpoint>
            <Time>2022-07-04T08:04:38.000Z</Time>
            <Position>
              <LatitudeDegrees>44.8422794044017791748046875</LatitudeDegrees>
              <LongitudeDegrees>-0.57403489015996456146240234375</LongitudeDegrees>
            </Position>
            <AltitudeMeters>6.80000019073486328125</AltitudeMeters>
            <DistanceMeters>5466.1440255135</DistanceMeters>
          </Trackpoint>
          <Trackpoint>
            <Time>2022-07-04T08:04:41.000Z</Time>
            <Position>
              <LatitudeDegrees>44.84226775355637073516845703125</LatitudeDegrees>
              <LongitudeDegrees>-0.5740904621779918670654296875</LongitudeDegrees>
            </Position>
            <AltitudeMeters>7</AltitudeMeters>
            <DistanceMeters>5470.7171707161</DistanceMeters>
          </Trackpoint>
          <Trackpoint>
            <Time>2022-07-04T08:04:42.000Z</Time>
            <Position>
              <LatitudeDegrees>44.84225316904485225677490234375</LatitudeDegrees>
              <LongitudeDegrees>-0.574101023375988006591796875</LongitudeDegrees>
            </Position>
            <AltitudeMeters>7.19999980926513671875</AltitudeMeters>
            <DistanceMeters>5472.5400991654</DistanceMeters>
          </Trackpoint>
          <Trackpoint>
            <Time>2022-07-04T08:04:47.000Z</Time>
            <Position>
              <LatitudeDegrees>44.842246882617473602294921875</LatitudeDegrees>
              <LongitudeDegrees>-0.5741957388818264007568359375</LongitudeDegrees>
            </Position>
            <AltitudeMeters>7.19999980926513671875</AltitudeMeters>
            <DistanceMeters>5480.0478110114</DistanceMeters>
          </Trackpoint>
          <Trackpoint>
            <Time>2022-07-04T08:04:48.000Z</Time>
            <Position>
              <LatitudeDegrees>44.84225702472031116485595703125</LatitudeDegrees>
              <LongitudeDegrees>-0.57421694509685039520263671875</LongitudeDegrees>
            </Position>
            <AltitudeMeters>7.19999980926513671875</AltitudeMeters>
            <DistanceMeters>5482.0681066712</DistanceMeters>
          </Trackpoint>
          <Trackpoint>
            <Time>2022-07-04T08:04:51.000Z</Time>
            <Position>
              <LatitudeDegrees>44.8422708548605442047119140625</LatitudeDegrees>
              <LongitudeDegrees>-0.57426857762038707733154296875</LongitudeDegrees>
            </Position>
            <AltitudeMeters>7.19999980926513671875</AltitudeMeters>
            <DistanceMeters>5486.4238144907</DistanceMeters>
          </Trackpoint>
          <Trackpoint>
            <Time>2022-07-04T08:04:52.000Z</Time>
            <Position>
              <LatitudeDegrees>44.842271022498607635498046875</LatitudeDegrees>
              <LongitudeDegrees>-0.57428634725511074066162109375</LongitudeDegrees>
            </Position>
            <AltitudeMeters>7.19999980926513671875</AltitudeMeters>
            <DistanceMeters>5487.8236454048</DistanceMeters>
          </Trackpoint>
          <Trackpoint>
            <Time>2022-07-04T08:04:54.000Z</Time>
            <Position>
              <LatitudeDegrees>44.84229885041713714599609375</LatitudeDegrees>
              <LongitudeDegrees>-0.57429456152021884918212890625</LongitudeDegrees>
            </Position>
            <AltitudeMeters>7.19999980926513671875</AltitudeMeters>
            <DistanceMeters>5490.9867648619</DistanceMeters>
          </Trackpoint>
          <Trackpoint>
            <Time>2022-07-04T08:04:56.000Z</Time>
            <Position>
              <LatitudeDegrees>44.84231603331863880157470703125</LatitudeDegrees>
              <LongitudeDegrees>-0.57429221458733081817626953125</LongitudeDegrees>
            </Position>
            <AltitudeMeters>7.400000095367431640625</AltitudeMeters>
            <DistanceMeters>5492.9109091762</DistanceMeters>
          </Trackpoint>
          <Trackpoint>
            <Time>2022-07-04T08:04:57.000Z</Time>
            <Position>
              <LatitudeDegrees>44.84232910908758640289306640625</LatitudeDegrees>
              <LongitudeDegrees>-0.5742916278541088104248046875</LongitudeDegrees>
            </Position>
            <AltitudeMeters>7.400000095367431640625</AltitudeMeters>
            <DistanceMeters>5494.3645383888</DistanceMeters>
          </Trackpoint>
          <Trackpoint>
            <Time>2022-07-04T08:05:01.000Z</Time>
            <Position>
              <LatitudeDegrees>44.84229885041713714599609375</LatitudeDegrees>
              <LongitudeDegrees>-0.57431283406913280487060546875</LongitudeDegrees>
            </Position>
            <AltitudeMeters>7.400000095367431640625</AltitudeMeters>
            <DistanceMeters>5498.1250037472</DistanceMeters>
          </Trackpoint>
          <Trackpoint>
            <Time>2022-07-04T08:05:05.000Z</Time>
            <Position>
              <LatitudeDegrees>44.84230614267289638519287109375</LatitudeDegrees>
              <LongitudeDegrees>-0.57432062923908233642578125</LongitudeDegrees>
            </Position>
            <AltitudeMeters>7.400000095367431640625</AltitudeMeters>
            <DistanceMeters>5499.1440517299</DistanceMeters>
          </Trackpoint>
          <Trackpoint>
            <Time>2022-07-04T08:05:09.000Z</Time>
            <Position>
              <LatitudeDegrees>44.8423543386161327362060546875</LatitudeDegrees>
              <LongitudeDegrees>-0.57435105554759502410888671875</LongitudeDegrees>
            </Position>
            <AltitudeMeters>7.400000095367431640625</AltitudeMeters>
            <DistanceMeters>5505.0203611433</DistanceMeters>
          </Trackpoint>
          <Trackpoint>
            <Time>2022-07-04T08:05:10.000Z</Time>
            <Position>
              <LatitudeDegrees>44.8423613794147968292236328125</LatitudeDegrees>
              <LongitudeDegrees>-0.5743556655943393707275390625</LongitudeDegrees>
            </Position>
            <AltitudeMeters>7.400000095367431640625</AltitudeMeters>
            <DistanceMeters>5505.8912953665</DistanceMeters>
          </Trackpoint>
          <Trackpoint>
            <Time>2022-07-04T08:05:15.000Z</Time>
            <Position>
              <LatitudeDegrees>44.8424242436885833740234375</LatitudeDegrees>
              <LongitudeDegrees>-0.57437050156295299530029296875</LongitudeDegrees>
            </Position>
            <AltitudeMeters>7.599999904632568359375</AltitudeMeters>
            <DistanceMeters>5512.9859162936</DistanceMeters>
          </Trackpoint>
          <Trackpoint>
            <Time>2022-07-04T08:05:16.000Z</Time>
            <Position>
              <LatitudeDegrees>44.84243790619075298309326171875</LatitudeDegrees>
              <LongitudeDegrees>-0.574369244277477264404296875</LongitudeDegrees>
            </Position>
            <AltitudeMeters>7.599999904632568359375</AltitudeMeters>
            <DistanceMeters>5514.509310414</DistanceMeters>
          </Trackpoint>
          <Trackpoint>
            <Time>2022-07-04T08:05:24.000Z</Time>
            <Position>
              <LatitudeDegrees>44.84257151372730731964111328125</LatitudeDegrees>
              <LongitudeDegrees>-0.574379302561283111572265625</LongitudeDegrees>
            </Position>
            <AltitudeMeters>7.599999904632568359375</AltitudeMeters>
            <DistanceMeters>5529.400939516</DistanceMeters>
          </Trackpoint>
          <Trackpoint>
            <Time>2022-07-04T08:05:26.000Z</Time>
            <Position>
              <LatitudeDegrees>44.84260185621678829193115234375</LatitudeDegrees>
              <LongitudeDegrees>-0.5744086392223834991455078125</LongitudeDegrees>
            </Position>
            <AltitudeMeters>7.400000095367431640625</AltitudeMeters>
            <DistanceMeters>5533.4948156597</DistanceMeters>
          </Trackpoint>
          <Trackpoint>
            <Time>2022-07-04T08:05:30.000Z</Time>
            <Position>
              <LatitudeDegrees>44.84263823367655277252197265625</LatitudeDegrees>
              <LongitudeDegrees>-0.57439296506345272064208984375</LongitudeDegrees>
            </Position>
            <AltitudeMeters>7.19999980926513671875</AltitudeMeters>
            <DistanceMeters>5537.72750649</DistanceMeters>
          </Trackpoint>
          <Trackpoint>
            <Time>2022-07-04T08:05:31.000Z</Time>
            <Position>
              <LatitudeDegrees>44.84263823367655277252197265625</LatitudeDegrees>
              <LongitudeDegrees>-0.57439296506345272064208984375</LongitudeDegrees>
            </Position>
            <AltitudeMeters>7.19999980926513671875</AltitudeMeters>
            <DistanceMeters>5537.8618945582</DistanceMeters>
          </Trackpoint>
          <Trackpoint>
            <Time>2022-07-04T08:05:39.000Z</Time>
            <Position>
              <LatitudeDegrees>44.8426111601293087005615234375</LatitudeDegrees>
              <LongitudeDegrees>-0.57438810355961322784423828125</LongitudeDegrees>
            </Position>
            <AltitudeMeters>7</AltitudeMeters>
            <DistanceMeters>5540.8997783818</DistanceMeters>
          </Trackpoint>
          <Trackpoint>
            <Time>2022-07-04T08:05:41.000Z</Time>
            <Position>
              <LatitudeDegrees>44.8425712622702121734619140625</LatitudeDegrees>
              <LongitudeDegrees>-0.57436429895460605621337890625</LongitudeDegrees>
            </Position>
            <AltitudeMeters>7.19999980926513671875</AltitudeMeters>
            <DistanceMeters>5545.7218574815</DistanceMeters>
          </Trackpoint>
          <Trackpoint>
            <Time>2022-07-04T08:05:44.000Z</Time>
            <Position>
              <LatitudeDegrees>44.84250647015869617462158203125</LatitudeDegrees>
              <LongitudeDegrees>-0.57435189373791217803955078125</LongitudeDegrees>
            </Position>
            <AltitudeMeters>7.400000095367431640625</AltitudeMeters>
            <DistanceMeters>5552.9993157152</DistanceMeters>
          </Trackpoint>
          <Trackpoint>
            <Time>2022-07-04T08:05:49.000Z</Time>
            <Position>
              <LatitudeDegrees>44.84239180572330951690673828125</LatitudeDegrees>
              <LongitudeDegrees>-0.57432733476161956787109375</LongitudeDegrees>
            </Position>
            <AltitudeMeters>7.19999980926513671875</AltitudeMeters>
            <DistanceMeters>5565.9079175225</DistanceMeters>
          </Trackpoint>
          <Trackpoint>
            <Time>2022-07-04T08:05:56.000Z</Time>
            <Position>
              <LatitudeDegrees>44.8422728665173053741455078125</LatitudeDegrees>
              <LongitudeDegrees>-0.5742902867496013641357421875</LongitudeDegrees>
            </Position>
            <AltitudeMeters>7.19999980926513671875</AltitudeMeters>
            <DistanceMeters>5579.4651361141</DistanceMeters>
          </Trackpoint>
          <Trackpoint>
            <Time>2022-07-04T08:06:02.000Z</Time>
            <Position>
              <LatitudeDegrees>44.8422135226428508758544921875</LatitudeDegrees>
              <LongitudeDegrees>-0.57424594648182392120361328125</LongitudeDegrees>
            </Position>
            <AltitudeMeters>7</AltitudeMeters>
            <DistanceMeters>5586.9396985066</DistanceMeters>
          </Trackpoint>
          <Trackpoint>
            <Time>2022-07-04T08:06:03.000Z</Time>
            <Position>
              <LatitudeDegrees>44.84220203943550586700439453125</LatitudeDegrees>
              <LongitudeDegrees>-0.57424091733992099761962890625</LongitudeDegrees>
            </Position>
            <AltitudeMeters>7</AltitudeMeters>
            <DistanceMeters>5588.2768429026</DistanceMeters>
          </Trackpoint>
          <Trackpoint>
            <Time>2022-07-04T08:06:05.000Z</Time>
            <Position>
              <LatitudeDegrees>44.84218041412532329559326171875</LatitudeDegrees>
              <LongitudeDegrees>-0.57422281242907047271728515625</LongitudeDegrees>
            </Position>
            <AltitudeMeters>7</AltitudeMeters>
            <DistanceMeters>5591.076504731</DistanceMeters>
          </Trackpoint>
          <Trackpoint>
            <Time>2022-07-04T08:06:07.000Z</Time>
            <Position>
              <LatitudeDegrees>44.84216951765120029449462890625</LatitudeDegrees>
              <LongitudeDegrees>-0.5742406658828258514404296875</LongitudeDegrees>
            </Position>
            <AltitudeMeters>7</AltitudeMeters>
            <DistanceMeters>5592.9362141917</DistanceMeters>
          </Trackpoint>
          <Trackpoint>
            <Time>2022-07-04T08:06:08.000Z</Time>
            <Position>
              <LatitudeDegrees>44.84216935001313686370849609375</LatitudeDegrees>
              <LongitudeDegrees>-0.57426203973591327667236328125</LongitudeDegrees>
            </Position>
            <AltitudeMeters>7.19999980926513671875</AltitudeMeters>
            <DistanceMeters>5594.6227710629</DistanceMeters>
          </Trackpoint>
          <Trackpoint>
            <Time>2022-07-04T08:06:10.000Z</Time>
            <Position>
              <LatitudeDegrees>44.84217991121113300323486328125</LatitudeDegrees>
              <LongitudeDegrees>-0.574303530156612396240234375</LongitudeDegrees>
            </Position>
            <AltitudeMeters>7.19999980926513671875</AltitudeMeters>
            <DistanceMeters>5598.1013199608</DistanceMeters>
          </Trackpoint>
          <Trackpoint>
            <Time>2022-07-04T08:06:12.000Z</Time>
            <Position>
              <LatitudeDegrees>44.84221846796572208404541015625</LatitudeDegrees>
              <LongitudeDegrees>-0.57432574220001697540283203125</LongitudeDegrees>
            </Position>
            <AltitudeMeters>7.19999980926513671875</AltitudeMeters>
            <DistanceMeters>5602.7362473453</DistanceMeters>
          </Trackpoint>
          <Trackpoint>
            <Time>2022-07-04T08:06:13.000Z</Time>
            <Position>
              <LatitudeDegrees>44.84223439358174800872802734375</LatitudeDegrees>
              <LongitudeDegrees>-0.57434284128248691558837890625</LongitudeDegrees>
            </Position>
            <AltitudeMeters>7.19999980926513671875</AltitudeMeters>
            <DistanceMeters>5604.9648213388</DistanceMeters>
          </Trackpoint>
          <Trackpoint>
            <Time>2022-07-04T08:06:15.000Z</Time>
            <Position>
              <LatitudeDegrees>44.84222098253667354583740234375</LatitudeDegrees>
              <LongitudeDegrees>-0.5743697471916675567626953125</LongitudeDegrees>
            </Position>
            <AltitudeMeters>7.19999980926513671875</AltitudeMeters>
            <DistanceMeters>5607.5602860423</DistanceMeters>
          </Trackpoint>
          <Trackpoint>
            <Time>2022-07-04T08:06:16.000Z</Time>
            <Position>
              <LatitudeDegrees>44.8421799950301647186279296875</LatitudeDegrees>
              <LongitudeDegrees>-0.574372597038745880126953125</LongitudeDegrees>
            </Position>
            <AltitudeMeters>7.19999980926513671875</AltitudeMeters>
            <DistanceMeters>5612.1275036401</DistanceMeters>
          </Trackpoint>
          <Trackpoint>
            <Time>2022-07-04T08:06:24.000Z</Time>
            <Position>
              <LatitudeDegrees>44.84211537055671215057373046875</LatitudeDegrees>
              <LongitudeDegrees>-0.574461780488491058349609375</LongitudeDegrees>
            </Position>
            <AltitudeMeters>7.400000095367431640625</AltitudeMeters>
            <DistanceMeters>5622.1904692687</DistanceMeters>
          </Trackpoint>
          <Trackpoint>
            <Time>2022-07-04T08:06:25.000Z</Time>
            <Position>
              <LatitudeDegrees>44.842115454375743865966796875</LatitudeDegrees>
              <LongitudeDegrees>-0.57448231615126132965087890625</LongitudeDegrees>
            </Position>
            <AltitudeMeters>7.400000095367431640625</AltitudeMeters>
            <DistanceMeters>5623.8087159028</DistanceMeters>
          </Trackpoint>
          <Trackpoint>
            <Time>2022-07-04T08:06:29.000Z</Time>
            <Position>
              <LatitudeDegrees>44.8421528376638889312744140625</LatitudeDegrees>
              <LongitudeDegrees>-0.57453428395092487335205078125</LongitudeDegrees>
            </Position>
            <AltitudeMeters>7.599999904632568359375</AltitudeMeters>
            <DistanceMeters>5629.6511202844</DistanceMeters>
          </Trackpoint>
          <Trackpoint>
            <Time>2022-07-04T08:06:30.000Z</Time>
            <Position>
              <LatitudeDegrees>44.8421602137386798858642578125</LatitudeDegrees>
              <LongitudeDegrees>-0.5745387263596057891845703125</LongitudeDegrees>
            </Position>
            <AltitudeMeters>7.599999904632568359375</AltitudeMeters>
            <DistanceMeters>5630.5526228523</DistanceMeters>
          </Trackpoint>
          <Trackpoint>
            <Time>2022-07-04T08:06:32.000Z</Time>
            <Position>
              <LatitudeDegrees>44.84217974357306957244873046875</LatitudeDegrees>
              <LongitudeDegrees>-0.5745380558073520660400390625</LongitudeDegrees>
            </Position>
            <AltitudeMeters>7.599999904632568359375</AltitudeMeters>
            <DistanceMeters>5632.7278837692</DistanceMeters>
          </Trackpoint>
          <Trackpoint>
            <Time>2022-07-04T08:06:35.000Z</Time>
            <Position>
              <LatitudeDegrees>44.8422219045460224151611328125</LatitudeDegrees>
              <LongitudeDegrees>-0.57453788816928863525390625</LongitudeDegrees>
            </Position>
            <AltitudeMeters>7.400000095367431640625</AltitudeMeters>
            <DistanceMeters>5637.4199330411</DistanceMeters>
          </Trackpoint>
          <Trackpoint>
            <Time>2022-07-04T08:06:43.000Z</Time>
            <Position>
              <LatitudeDegrees>44.84229893423616886138916015625</LatitudeDegrees>
              <LongitudeDegrees>-0.5745492875576019287109375</LongitudeDegrees>
            </Position>
            <AltitudeMeters>7.400000095367431640625</AltitudeMeters>
            <DistanceMeters>5646.0401708022</DistanceMeters>
          </Trackpoint>
          <Trackpoint>
            <Time>2022-07-04T08:06:48.000Z</Time>
            <Position>
              <LatitudeDegrees>44.84238870441913604736328125</LatitudeDegrees>
              <LongitudeDegrees>-0.5745491199195384979248046875</LongitudeDegrees>
            </Position>
            <AltitudeMeters>7.400000095367431640625</AltitudeMeters>
            <DistanceMeters>5656.0319937172</DistanceMeters>
          </Trackpoint>
          <Trackpoint>
            <Time>2022-07-04T08:06:49.000Z</Time>
            <Position>
              <LatitudeDegrees>44.8424041271209716796875</LatitudeDegrees>
              <LongitudeDegrees>-0.57455289177596569061279296875</LongitudeDegrees>
            </Position>
            <AltitudeMeters>7.400000095367431640625</AltitudeMeters>
            <DistanceMeters>5657.7764523041</DistanceMeters>
          </Trackpoint>
          <Trackpoint>
            <Time>2022-07-04T08:06:55.000Z</Time>
            <Position>
              <LatitudeDegrees>44.8425528220832347869873046875</LatitudeDegrees>
              <LongitudeDegrees>-0.5745980702340602874755859375</LongitudeDegrees>
            </Position>
            <AltitudeMeters>7.19999980926513671875</AltitudeMeters>
            <DistanceMeters>5674.7061488853</DistanceMeters>
          </Trackpoint>
          <Trackpoint>
            <Time>2022-07-04T08:07:00.000Z</Time>
            <Position>
              <LatitudeDegrees>44.84261266887187957763671875</LatitudeDegrees>
              <LongitudeDegrees>-0.5746218748390674591064453125</LongitudeDegrees>
            </Position>
            <AltitudeMeters>7.19999980926513671875</AltitudeMeters>
            <DistanceMeters>5681.6268082079</DistanceMeters>
          </Trackpoint>
          <Trackpoint>
            <Time>2022-07-04T08:07:04.000Z</Time>
            <Position>
              <LatitudeDegrees>44.84268031083047389984130859375</LatitudeDegrees>
              <LongitudeDegrees>-0.57464794255793094635009765625</LongitudeDegrees>
            </Position>
            <AltitudeMeters>7.599999904632568359375</AltitudeMeters>
            <DistanceMeters>5689.4311573553</DistanceMeters>
          </Trackpoint>
          <Trackpoint>
            <Time>2022-07-04T08:07:05.000Z</Time>
            <Position>
              <LatitudeDegrees>44.84269439242780208587646484375</LatitudeDegrees>
              <LongitudeDegrees>-0.5746471881866455078125</LongitudeDegrees>
            </Position>
            <AltitudeMeters>7.599999904632568359375</AltitudeMeters>
            <DistanceMeters>5691.0012563551</DistanceMeters>
          </Trackpoint>
          <Trackpoint>
            <Time>2022-07-04T08:07:07.000Z</Time>
            <Position>
              <LatitudeDegrees>44.84271886758506298065185546875</LatitudeDegrees>
              <LongitudeDegrees>-0.5746232159435749053955078125</LongitudeDegrees>
            </Position>
            <AltitudeMeters>7.400000095367431640625</AltitudeMeters>
            <DistanceMeters>5694.3176750724</DistanceMeters>
          </Trackpoint>
          <Trackpoint>
            <Time>2022-07-04T08:07:08.000Z</Time>
            <Position>
              <LatitudeDegrees>44.84273211099207401275634765625</LatitudeDegrees>
              <LongitudeDegrees>-0.57460871525108814239501953125</LongitudeDegrees>
            </Position>
            <AltitudeMeters>7.400000095367431640625</AltitudeMeters>
            <DistanceMeters>5696.1822338489</DistanceMeters>
          </Trackpoint>
          <Trackpoint>
            <Time>2022-07-04T08:07:10.000Z</Time>
            <Position>
              <LatitudeDegrees>44.84275759197771549224853515625</LatitudeDegrees>
              <LongitudeDegrees>-0.57458558119833469390869140625</LongitudeDegrees>
            </Position>
            <AltitudeMeters>7.400000095367431640625</AltitudeMeters>
            <DistanceMeters>5699.5553475913</DistanceMeters>
          </Trackpoint>
          <Trackpoint>
            <Time>2022-07-04T08:07:14.000Z</Time>
            <Position>
              <LatitudeDegrees>44.8428086377680301666259765625</LatitudeDegrees>
              <LongitudeDegrees>-0.57454199530184268951416015625</LongitudeDegrees>
            </Position>
            <AltitudeMeters>7</AltitudeMeters>
            <DistanceMeters>5706.1970283597</DistanceMeters>
          </Trackpoint>
          <Trackpoint>
            <Time>2022-07-04T08:07:15.000Z</Time>
            <Position>
              <LatitudeDegrees>44.84282498247921466827392578125</LatitudeDegrees>
              <LongitudeDegrees>-0.5745300091803073883056640625</LongitudeDegrees>
            </Position>
            <AltitudeMeters>7</AltitudeMeters>
            <DistanceMeters>5708.2483731924</DistanceMeters>
          </Trackpoint>
          <Trackpoint>
            <Time>2022-07-04T08:07:21.000Z</Time>
            <Position>
              <LatitudeDegrees>44.842921458184719085693359375</LatitudeDegrees>
              <LongitudeDegrees>-0.5745165981352329254150390625</LongitudeDegrees>
            </Position>
            <AltitudeMeters>7</AltitudeMeters>
            <DistanceMeters>5719.038822936</DistanceMeters>
          </Trackpoint>
          <Trackpoint>
            <Time>2022-07-04T08:07:29.000Z</Time>
            <Position>
              <LatitudeDegrees>44.84303369186818599700927734375</LatitudeDegrees>
              <LongitudeDegrees>-0.57457409799098968505859375</LongitudeDegrees>
            </Position>
            <AltitudeMeters>7.19999980926513671875</AltitudeMeters>
            <DistanceMeters>5732.3293204933</DistanceMeters>
          </Trackpoint>
          <Trackpoint>
            <Time>2022-07-04T08:07:36.000Z</Time>
            <Position>
              <LatitudeDegrees>44.84318775124847888946533203125</LatitudeDegrees>
              <LongitudeDegrees>-0.57461743243038654327392578125</LongitudeDegrees>
            </Position>
            <AltitudeMeters>7.400000095367431640625</AltitudeMeters>
            <DistanceMeters>5749.8142359374</DistanceMeters>
          </Trackpoint>
          <Trackpoint>
            <Time>2022-07-04T08:07:40.000Z</Time>
            <Position>
              <LatitudeDegrees>44.843246676027774810791015625</LatitudeDegrees>
              <LongitudeDegrees>-0.57462380267679691314697265625</LongitudeDegrees>
            </Position>
            <AltitudeMeters>7</AltitudeMeters>
            <DistanceMeters>5756.3917047699</DistanceMeters>
          </Trackpoint>
          <Trackpoint>
            <Time>2022-07-04T08:07:47.000Z</Time>
            <Position>
              <LatitudeDegrees>44.843380786478519439697265625</LatitudeDegrees>
              <LongitudeDegrees>-0.574632771313190460205078125</LongitudeDegrees>
            </Position>
            <AltitudeMeters>7.19999980926513671875</AltitudeMeters>
            <DistanceMeters>5771.3350899414</DistanceMeters>
          </Trackpoint>
          <Trackpoint>
            <Time>2022-07-04T08:07:53.000Z</Time>
            <Position>
              <LatitudeDegrees>44.843449853360652923583984375</LatitudeDegrees>
              <LongitudeDegrees>-0.57463570497930049896240234375</LongitudeDegrees>
            </Position>
            <AltitudeMeters>7</AltitudeMeters>
            <DistanceMeters>5779.0257986674</DistanceMeters>
          </Trackpoint>
          <Trackpoint>
            <Time>2022-07-04T08:07:59.000Z</Time>
            <Position>
              <LatitudeDegrees>44.84355789609253406524658203125</LatitudeDegrees>
              <LongitudeDegrees>-0.57459295727312564849853515625</LongitudeDegrees>
            </Position>
            <AltitudeMeters>6.599999904632568359375</AltitudeMeters>
            <DistanceMeters>5791.5152158072</DistanceMeters>
          </Trackpoint>
          <Trackpoint>
            <Time>2022-07-04T08:08:04.000Z</Time>
            <Position>
              <LatitudeDegrees>44.843683205544948577880859375</LatitudeDegrees>
              <LongitudeDegrees>-0.5746309272944927215576171875</LongitudeDegrees>
            </Position>
            <AltitudeMeters>6.19999980926513671875</AltitudeMeters>
            <DistanceMeters>5805.7803051047</DistanceMeters>
          </Trackpoint>
          <Trackpoint>
            <Time>2022-07-04T08:08:05.000Z</Time>
            <Position>
              <LatitudeDegrees>44.84370038844645023345947265625</LatitudeDegrees>
              <LongitudeDegrees>-0.57461827062070369720458984375</LongitudeDegrees>
            </Position>
            <AltitudeMeters>6.19999980926513671875</AltitudeMeters>
            <DistanceMeters>5807.9368044366</DistanceMeters>
          </Trackpoint>
          <Trackpoint>
            <Time>2022-07-04T08:08:11.000Z</Time>
            <Position>
              <LatitudeDegrees>44.8438587225973606109619140625</LatitudeDegrees>
              <LongitudeDegrees>-0.5745036900043487548828125</LongitudeDegrees>
            </Position>
            <AltitudeMeters>6</AltitudeMeters>
            <DistanceMeters>5827.7441195313</DistanceMeters>
          </Trackpoint>
          <Trackpoint>
            <Time>2022-07-04T08:08:14.000Z</Time>
            <Position>
              <LatitudeDegrees>44.84403801150619983673095703125</LatitudeDegrees>
              <LongitudeDegrees>-0.57450109161436557769775390625</LongitudeDegrees>
            </Position>
            <AltitudeMeters>5.80000019073486328125</AltitudeMeters>
            <DistanceMeters>5847.7004082997</DistanceMeters>
          </Trackpoint>
          <Trackpoint>
            <Time>2022-07-04T08:08:16.000Z</Time>
            <Position>
              <LatitudeDegrees>44.844098947942256927490234375</LatitudeDegrees>
              <LongitudeDegrees>-0.5744743533432483673095703125</LongitudeDegrees>
            </Position>
            <AltitudeMeters>5.80000019073486328125</AltitudeMeters>
            <DistanceMeters>5854.8039332816</DistanceMeters>
          </Trackpoint>
          <Trackpoint>
            <Time>2022-07-04T08:08:17.000Z</Time>
            <Position>
              <LatitudeDegrees>44.8441245965659618377685546875</LatitudeDegrees>
              <LongitudeDegrees>-0.5744629539549350738525390625</LongitudeDegrees>
            </Position>
            <AltitudeMeters>5.599999904632568359375</AltitudeMeters>
            <DistanceMeters>5857.7953887394</DistanceMeters>
          </Trackpoint>
          <Trackpoint>
            <Time>2022-07-04T08:08:18.000Z</Time>
            <Position>
              <LatitudeDegrees>44.84414647333323955535888671875</LatitudeDegrees>
              <LongitudeDegrees>-0.57445432059466838836669921875</LongitudeDegrees>
            </Position>
            <AltitudeMeters>5.599999904632568359375</AltitudeMeters>
            <DistanceMeters>5860.3220988625</DistanceMeters>
          </Trackpoint>
          <Trackpoint>
            <Time>2022-07-04T08:08:20.000Z</Time>
            <Position>
              <LatitudeDegrees>44.84419860877096652984619140625</LatitudeDegrees>
              <LongitudeDegrees>-0.57447091676294803619384765625</LongitudeDegrees>
            </Position>
            <AltitudeMeters>5.400000095367431640625</AltitudeMeters>
            <DistanceMeters>5866.2709533391</DistanceMeters>
          </Trackpoint>
          <Trackpoint>
            <Time>2022-07-04T08:08:22.000Z</Time>
            <Position>
              <LatitudeDegrees>44.84424001537263393402099609375</LatitudeDegrees>
              <LongitudeDegrees>-0.5745095573365688323974609375</LongitudeDegrees>
            </Position>
            <AltitudeMeters>5.19999980926513671875</AltitudeMeters>
            <DistanceMeters>5871.7972286248</DistanceMeters>
          </Trackpoint>
          <Trackpoint>
            <Time>2022-07-04T08:08:25.000Z</Time>
            <Position>
              <LatitudeDegrees>44.84430690295994281768798828125</LatitudeDegrees>
              <LongitudeDegrees>-0.5744927935302257537841796875</LongitudeDegrees>
            </Position>
            <AltitudeMeters>5.19999980926513671875</AltitudeMeters>
            <DistanceMeters>5879.3588715708</DistanceMeters>
          </Trackpoint>
          <Trackpoint>
            <Time>2022-07-04T08:08:29.000Z</Time>
            <Position>
              <LatitudeDegrees>44.84438116662204265594482421875</LatitudeDegrees>
              <LongitudeDegrees>-0.5744924582540988922119140625</LongitudeDegrees>
            </Position>
            <AltitudeMeters>5.400000095367431640625</AltitudeMeters>
            <DistanceMeters>5887.624557167</DistanceMeters>
          </Trackpoint>
          <Trackpoint>
            <Time>2022-07-04T08:08:31.000Z</Time>
            <Position>
              <LatitudeDegrees>44.8444305360317230224609375</LatitudeDegrees>
              <LongitudeDegrees>-0.5745082162320613861083984375</LongitudeDegrees>
            </Position>
            <AltitudeMeters>5.19999980926513671875</AltitudeMeters>
            <DistanceMeters>5893.2584473594</DistanceMeters>
          </Trackpoint>
          <Trackpoint>
            <Time>2022-07-04T08:08:38.000Z</Time>
            <Position>
              <LatitudeDegrees>44.84461803920567035675048828125</LatitudeDegrees>
              <LongitudeDegrees>-0.57452539913356304168701171875</LongitudeDegrees>
            </Position>
            <AltitudeMeters>5.400000095367431640625</AltitudeMeters>
            <DistanceMeters>5914.1720979886</DistanceMeters>
          </Trackpoint>
          <Trackpoint>
            <Time>2022-07-04T08:08:44.000Z</Time>
            <Position>
              <LatitudeDegrees>44.84477997757494449615478515625</LatitudeDegrees>
              <LongitudeDegrees>-0.5745202861726284027099609375</LongitudeDegrees>
            </Position>
            <AltitudeMeters>5.599999904632568359375</AltitudeMeters>
            <DistanceMeters>5932.20064678</DistanceMeters>
          </Trackpoint>
          <Trackpoint>
            <Time>2022-07-04T08:08:53.000Z</Time>
            <Position>
              <LatitudeDegrees>44.844950549304485321044921875</LatitudeDegrees>
              <LongitudeDegrees>-0.57455976493656635284423828125</LongitudeDegrees>
            </Position>
            <AltitudeMeters>5.80000019073486328125</AltitudeMeters>
            <DistanceMeters>5951.4397432619</DistanceMeters>
          </Trackpoint>
          <Trackpoint>
            <Time>2022-07-04T08:08:56.000Z</Time>
            <Position>
              <LatitudeDegrees>44.8449684865772724151611328125</LatitudeDegrees>
              <LongitudeDegrees>-0.5745642073452472686767578125</LongitudeDegrees>
            </Position>
            <AltitudeMeters>5.599999904632568359375</AltitudeMeters>
            <DistanceMeters>5953.4689585926</DistanceMeters>
          </Trackpoint>
          <Trackpoint>
            <Time>2022-07-04T08:11:09.000Z</Time>
            <Position>
              <LatitudeDegrees>44.84509463422000408172607421875</LatitudeDegrees>
              <LongitudeDegrees>-0.57461072690784931182861328125</LongitudeDegrees>
            </Position>
            <AltitudeMeters>5.400000095367431640625</AltitudeMeters>
            <DistanceMeters>5967.9816255763</DistanceMeters>
          </Trackpoint>
          <Trackpoint>
            <Time>2022-07-04T08:11:16.000Z</Time>
            <Position>
              <LatitudeDegrees>44.84526135027408599853515625</LatitudeDegrees>
              <LongitudeDegrees>-0.57463436387479305267333984375</LongitudeDegrees>
            </Position>
            <AltitudeMeters>5.80000019073486328125</AltitudeMeters>
            <DistanceMeters>5986.6310873464</DistanceMeters>
          </Trackpoint>
          <Trackpoint>
            <Time>2022-07-04T08:11:23.000Z</Time>
            <Position>
              <LatitudeDegrees>44.84544617123901844024658203125</LatitudeDegrees>
              <LongitudeDegrees>-0.574634782969951629638671875</LongitudeDegrees>
            </Position>
            <AltitudeMeters>5.80000019073486328125</AltitudeMeters>
            <DistanceMeters>6007.2021214069</DistanceMeters>
          </Trackpoint>
          <Trackpoint>
            <Time>2022-07-04T08:11:31.000Z</Time>
            <Position>
              <LatitudeDegrees>44.84564892947673797607421875</LatitudeDegrees>
              <LongitudeDegrees>-0.57470711879432201385498046875</LongitudeDegrees>
            </Position>
            <AltitudeMeters>5.80000019073486328125</AltitudeMeters>
            <DistanceMeters>6030.4803693489</DistanceMeters>
          </Trackpoint>
          <Trackpoint>
            <Time>2022-07-04T08:11:36.000Z</Time>
            <Position>
              <LatitudeDegrees>44.84571707434952259063720703125</LatitudeDegrees>
              <LongitudeDegrees>-0.57473142631351947784423828125</LongitudeDegrees>
            </Position>
            <AltitudeMeters>5.400000095367431640625</AltitudeMeters>
            <DistanceMeters>6038.3043637388</DistanceMeters>
          </Trackpoint>
          <Trackpoint>
            <Time>2022-07-04T08:11:42.000Z</Time>
            <Position>
              <LatitudeDegrees>44.84586174599826335906982421875</LatitudeDegrees>
              <LongitudeDegrees>-0.57475456036627292633056640625</LongitudeDegrees>
            </Position>
            <AltitudeMeters>5.19999980926513671875</AltitudeMeters>
            <DistanceMeters>6054.509692589</DistanceMeters>
          </Trackpoint>
          <Trackpoint>
            <Time>2022-07-04T08:11:47.000Z</Time>
            <Position>
              <LatitudeDegrees>44.84597825445234775543212890625</LatitudeDegrees>
              <LongitudeDegrees>-0.57477165944874286651611328125</LongitudeDegrees>
            </Position>
            <AltitudeMeters>4.400000095367431640625</AltitudeMeters>
            <DistanceMeters>6067.5474132096</DistanceMeters>
          </Trackpoint>
          <Trackpoint>
            <Time>2022-07-04T08:11:49.000Z</Time>
            <Position>
              <LatitudeDegrees>44.84600926749408245086669921875</LatitudeDegrees>
              <LongitudeDegrees>-0.5747848190367221832275390625</LongitudeDegrees>
            </Position>
            <AltitudeMeters>4.19999980926513671875</AltitudeMeters>
            <DistanceMeters>6071.1534234813</DistanceMeters>
          </Trackpoint>
          <Trackpoint>
            <Time>2022-07-04T08:11:54.000Z</Time>
            <Position>
              <LatitudeDegrees>44.84604011289775371551513671875</LatitudeDegrees>
              <LongitudeDegrees>-0.57479244656860828399658203125</LongitudeDegrees>
            </Position>
            <AltitudeMeters>3.7999999523162841796875</AltitudeMeters>
            <DistanceMeters>6074.6384561665</DistanceMeters>
          </Trackpoint>
          <Trackpoint>
            <Time>2022-07-04T08:12:42.000Z</Time>
            <Position>
              <LatitudeDegrees>44.846085794270038604736328125</LatitudeDegrees>
              <LongitudeDegrees>-0.574822537600994110107421875</LongitudeDegrees>
            </Position>
            <AltitudeMeters>4.19999980926513671875</AltitudeMeters>
            <DistanceMeters>6080.2490574251</DistanceMeters>
          </Trackpoint>
          <Trackpoint>
            <Time>2022-07-04T08:12:43.000Z</Time>
            <Position>
              <LatitudeDegrees>44.84610834158957004547119140625</LatitudeDegrees>
              <LongitudeDegrees>-0.574839971959590911865234375</LongitudeDegrees>
            </Position>
            <AltitudeMeters>4.400000095367431640625</AltitudeMeters>
            <DistanceMeters>6083.1109238327</DistanceMeters>
          </Trackpoint>
          <Trackpoint>
            <Time>2022-07-04T08:12:44.000Z</Time>
            <Position>
              <LatitudeDegrees>44.84612359665334224700927734375</LatitudeDegrees>
              <LongitudeDegrees>-0.5748485215008258819580078125</LongitudeDegrees>
            </Position>
            <AltitudeMeters>4.400000095367431640625</AltitudeMeters>
            <DistanceMeters>6084.933852282</DistanceMeters>
          </Trackpoint>
          <Trackpoint>
            <Time>2022-07-04T08:12:50.000Z</Time>
            <Position>
              <LatitudeDegrees>44.84621345065534114837646484375</LatitudeDegrees>
              <LongitudeDegrees>-0.57487358339130878448486328125</LongitudeDegrees>
            </Position>
            <AltitudeMeters>4.19999980926513671875</AltitudeMeters>
            <DistanceMeters>6095.1283189083</DistanceMeters>
          </Trackpoint>
          <Trackpoint>
            <Time>2022-07-04T08:12:55.000Z</Time>
            <Position>
              <LatitudeDegrees>44.84632509760558605194091796875</LatitudeDegrees>
              <LongitudeDegrees>-0.57490141130983829498291015625</LongitudeDegrees>
            </Position>
            <AltitudeMeters>4.19999980926513671875</AltitudeMeters>
            <DistanceMeters>6107.7472082418</DistanceMeters>
          </Trackpoint>
          <Trackpoint>
            <Time>2022-07-04T08:13:01.000Z</Time>
            <Position>
              <LatitudeDegrees>44.84649181365966796875</LatitudeDegrees>
              <LongitudeDegrees>-0.57494348846375942230224609375</LongitudeDegrees>
            </Position>
            <AltitudeMeters>4.19999980926513671875</AltitudeMeters>
            <DistanceMeters>6126.5979792665</DistanceMeters>
          </Trackpoint>
          <Trackpoint>
            <Time>2022-07-04T08:13:05.000Z</Time>
            <Position>
              <LatitudeDegrees>44.846647046506404876708984375</LatitudeDegrees>
              <LongitudeDegrees>-0.5749621801078319549560546875</LongitudeDegrees>
            </Position>
            <AltitudeMeters>3.400000095367431640625</AltitudeMeters>
            <DistanceMeters>6143.9387273929</DistanceMeters>
          </Trackpoint>
          <Trackpoint>
            <Time>2022-07-04T08:13:07.000Z</Time>
            <Position>
              <LatitudeDegrees>44.846706725656986236572265625</LatitudeDegrees>
              <LongitudeDegrees>-0.5749836377799510955810546875</LongitudeDegrees>
            </Position>
            <AltitudeMeters>3.400000095367431640625</AltitudeMeters>
            <DistanceMeters>6150.7938362771</DistanceMeters>
          </Trackpoint>
          <Trackpoint>
            <Time>2022-07-04T08:13:13.000Z</Time>
            <Position>
              <LatitudeDegrees>44.84688634984195232391357421875</LatitudeDegrees>
              <LongitudeDegrees>-0.57504775933921337127685546875</LongitudeDegrees>
            </Position>
            <AltitudeMeters>3.7999999523162841796875</AltitudeMeters>
            <DistanceMeters>6171.4170416659</DistanceMeters>
          </Trackpoint>
          <Trackpoint>
            <Time>2022-07-04T08:13:15.000Z</Time>
            <Position>
              <LatitudeDegrees>44.84694334678351879119873046875</LatitudeDegrees>
              <LongitudeDegrees>-0.57505530305206775665283203125</LongitudeDegrees>
            </Position>
            <AltitudeMeters>3.599999904632568359375</AltitudeMeters>
            <DistanceMeters>6177.7887936771</DistanceMeters>
          </Trackpoint>
          <Trackpoint>
            <Time>2022-07-04T08:13:19.000Z</Time>
            <Position>
              <LatitudeDegrees>44.8470626212656497955322265625</LatitudeDegrees>
              <LongitudeDegrees>-0.57503946125507354736328125</LongitudeDegrees>
            </Position>
            <AltitudeMeters>3.400000095367431640625</AltitudeMeters>
            <DistanceMeters>6191.1230430066</DistanceMeters>
          </Trackpoint>
          <Trackpoint>
            <Time>2022-07-04T08:13:20.000Z</Time>
            <Position>
              <LatitudeDegrees>44.8470907844603061676025390625</LatitudeDegrees>
              <LongitudeDegrees>-0.57505060918629169464111328125</LongitudeDegrees>
            </Position>
            <AltitudeMeters>3.400000095367431640625</AltitudeMeters>
            <DistanceMeters>6194.3762336854</DistanceMeters>
          </Trackpoint>
          <Trackpoint>
            <Time>2022-07-04T08:13:26.000Z</Time>
            <Position>
              <LatitudeDegrees>44.847227744758129119873046875</LatitudeDegrees>
              <LongitudeDegrees>-0.57510559447109699249267578125</LongitudeDegrees>
            </Position>
            <AltitudeMeters>3.400000095367431640625</AltitudeMeters>
            <DistanceMeters>6210.2254818227</DistanceMeters>
          </Trackpoint>
          <Trackpoint>
            <Time>2022-07-04T08:13:33.000Z</Time>
            <Position>
              <LatitudeDegrees>44.84741793014109134674072265625</LatitudeDegrees>
              <LongitudeDegrees>-0.57526099495589733123779296875</LongitudeDegrees>
            </Position>
            <AltitudeMeters>3.2000000476837158203125</AltitudeMeters>
            <DistanceMeters>6234.6889093472</DistanceMeters>
          </Trackpoint>
          <Trackpoint>
            <Time>2022-07-04T08:13:38.000Z</Time>
            <Position>
              <LatitudeDegrees>44.84754617325961589813232421875</LatitudeDegrees>
              <LongitudeDegrees>-0.57529100216925144195556640625</LongitudeDegrees>
            </Position>
            <AltitudeMeters>3</AltitudeMeters>
            <DistanceMeters>6249.1579553516</DistanceMeters>
          </Trackpoint>
          <Trackpoint>
            <Time>2022-07-04T08:13:43.000Z</Time>
            <Position>
              <LatitudeDegrees>44.8477496020495891571044921875</LatitudeDegrees>
              <LongitudeDegrees>-0.57525764219462871551513671875</LongitudeDegrees>
            </Position>
            <AltitudeMeters>2.7999999523162841796875</AltitudeMeters>
            <DistanceMeters>6271.9524853662</DistanceMeters>
          </Trackpoint>
          <Trackpoint>
            <Time>2022-07-04T08:13:49.000Z</Time>
            <Position>
              <LatitudeDegrees>44.84798915684223175048828125</LatitudeDegrees>
              <LongitudeDegrees>-0.57524456642568111419677734375</LongitudeDegrees>
            </Position>
            <AltitudeMeters>2.599999904632568359375</AltitudeMeters>
            <DistanceMeters>6298.6353708403</DistanceMeters>
          </Trackpoint>
          <Trackpoint>
            <Time>2022-07-04T08:13:55.000Z</Time>
            <Position>
              <LatitudeDegrees>44.84813709743320941925048828125</LatitudeDegrees>
              <LongitudeDegrees>-0.57530038990080356597900390625</LongitudeDegrees>
            </Position>
            <AltitudeMeters>2.400000095367431640625</AltitudeMeters>
            <DistanceMeters>6315.6804193737</DistanceMeters>
          </Trackpoint>
          <Trackpoint>
            <Time>2022-07-04T08:13:58.000Z</Time>
            <Position>
              <LatitudeDegrees>44.84820247627794742584228515625</LatitudeDegrees>
              <LongitudeDegrees>-0.5753450654447078704833984375</LongitudeDegrees>
            </Position>
            <AltitudeMeters>2.2000000476837158203125</AltitudeMeters>
            <DistanceMeters>6323.7660704579</DistanceMeters>
          </Trackpoint>
          <Trackpoint>
            <Time>2022-07-04T08:14:00.000Z</Time>
            <Position>
              <LatitudeDegrees>44.8482437990605831146240234375</LatitudeDegrees>
              <LongitudeDegrees>-0.575390495359897613525390625</LongitudeDegrees>
            </Position>
            <AltitudeMeters>2.2000000476837158203125</AltitudeMeters>
            <DistanceMeters>6329.5976455356</DistanceMeters>
          </Trackpoint>
          <Trackpoint>
            <Time>2022-07-04T08:14:08.000Z</Time>
            <Position>
              <LatitudeDegrees>44.84840548597276210784912109375</LatitudeDegrees>
              <LongitudeDegrees>-0.5755080096423625946044921875</LongitudeDegrees>
            </Position>
            <AltitudeMeters>1.7999999523162841796875</AltitudeMeters>
            <DistanceMeters>6349.8425735335</DistanceMeters>
          </Trackpoint>
          <Trackpoint>
            <Time>2022-07-04T08:14:13.000Z</Time>
            <Position>
              <LatitudeDegrees>44.8485173843801021575927734375</LatitudeDegrees>
              <LongitudeDegrees>-0.57550809346139430999755859375</LongitudeDegrees>
            </Position>
            <AltitudeMeters>1.60000002384185791015625</AltitudeMeters>
            <DistanceMeters>6362.2972374452</DistanceMeters>
          </Trackpoint>
          <Trackpoint>
            <Time>2022-07-04T08:14:20.000Z</Time>
            <Position>
              <LatitudeDegrees>44.84873254783451557159423828125</LatitudeDegrees>
              <LongitudeDegrees>-0.57535923086106777191162109375</LongitudeDegrees>
            </Position>
            <AltitudeMeters>1.39999997615814208984375</AltitudeMeters>
            <DistanceMeters>6388.9713224951</DistanceMeters>
          </Trackpoint>
          <Trackpoint>
            <Time>2022-07-04T08:14:22.000Z</Time>
            <Position>
              <LatitudeDegrees>44.848778732120990753173828125</LatitudeDegrees>
              <LongitudeDegrees>-0.57537205517292022705078125</LongitudeDegrees>
            </Position>
            <AltitudeMeters>1.39999997615814208984375</AltitudeMeters>
            <DistanceMeters>6394.2107339497</DistanceMeters>
          </Trackpoint>
          <Trackpoint>
            <Time>2022-07-04T08:14:24.000Z</Time>
            <Position>
              <LatitudeDegrees>44.84881888143718242645263671875</LatitudeDegrees>
              <LongitudeDegrees>-0.575408935546875</LongitudeDegrees>
            </Position>
            <AltitudeMeters>1.39999997615814208984375</AltitudeMeters>
            <DistanceMeters>6399.5424016668</DistanceMeters>
          </Trackpoint>
          <Trackpoint>
            <Time>2022-07-04T08:14:25.000Z</Time>
            <Position>
              <LatitudeDegrees>44.848824329674243927001953125</LatitudeDegrees>
              <LongitudeDegrees>-0.5754352547228336334228515625</LongitudeDegrees>
            </Position>
            <AltitudeMeters>1.39999997615814208984375</AltitudeMeters>
            <DistanceMeters>6401.7072595546</DistanceMeters>
          </Trackpoint>
          <Trackpoint>
            <Time>2022-07-04T08:14:29.000Z</Time>
            <Position>
              <LatitudeDegrees>44.8488132655620574951171875</LatitudeDegrees>
              <LongitudeDegrees>-0.5755723826587200164794921875</LongitudeDegrees>
            </Position>
            <AltitudeMeters>1.39999997615814208984375</AltitudeMeters>
            <DistanceMeters>6412.5984984266</DistanceMeters>
          </Trackpoint>
          <Trackpoint>
            <Time>2022-07-04T08:14:34.000Z</Time>
            <Position>
              <LatitudeDegrees>44.84891577623784542083740234375</LatitudeDegrees>
              <LongitudeDegrees>-0.57559325359761714935302734375</LongitudeDegrees>
            </Position>
            <AltitudeMeters>1.60000002384185791015625</AltitudeMeters>
            <DistanceMeters>6424.1265353378</DistanceMeters>
          </Trackpoint>
          <Trackpoint>
            <Time>2022-07-04T08:14:39.000Z</Time>
            <Position>
              <LatitudeDegrees>44.84902909956872463226318359375</LatitudeDegrees>
              <LongitudeDegrees>-0.575661398470401763916015625</LongitudeDegrees>
            </Position>
            <AltitudeMeters>1.39999997615814208984375</AltitudeMeters>
            <DistanceMeters>6437.8380703198</DistanceMeters>
          </Trackpoint>
          <Trackpoint>
            <Time>2022-07-04T08:14:40.000Z</Time>
            <Position>
              <LatitudeDegrees>44.84904988668859004974365234375</LatitudeDegrees>
              <LongitudeDegrees>-0.57566768489778041839599609375</LongitudeDegrees>
            </Position>
            <AltitudeMeters>1.39999997615814208984375</AltitudeMeters>
            <DistanceMeters>6440.2042164259</DistanceMeters>
          </Trackpoint>
          <Trackpoint>
            <Time>2022-07-04T08:14:42.000Z</Time>
            <Position>
              <LatitudeDegrees>44.8490900360047817230224609375</LatitudeDegrees>
              <LongitudeDegrees>-0.57564706541597843170166015625</LongitudeDegrees>
            </Position>
            <AltitudeMeters>1.39999997615814208984375</AltitudeMeters>
            <DistanceMeters>6444.9593516937</DistanceMeters>
          </Trackpoint>
          <Trackpoint>
            <Time>2022-07-04T08:14:47.000Z</Time>
            <Position>
              <LatitudeDegrees>44.84921970404684543609619140625</LatitudeDegrees>
              <LongitudeDegrees>-0.575555451214313507080078125</LongitudeDegrees>
            </Position>
            <AltitudeMeters>1.2000000476837158203125</AltitudeMeters>
            <DistanceMeters>6461.1007517457</DistanceMeters>
          </Trackpoint>
          <Trackpoint>
            <Time>2022-07-04T08:14:48.000Z</Time>
            <Position>
              <LatitudeDegrees>44.84924199990928173065185546875</LatitudeDegrees>
              <LongitudeDegrees>-0.5755344964563846588134765625</LongitudeDegrees>
            </Position>
            <AltitudeMeters>1.2000000476837158203125</AltitudeMeters>
            <DistanceMeters>6464.0816232996</DistanceMeters>
          </Trackpoint>
          <Trackpoint>
            <Time>2022-07-04T08:14:54.000Z</Time>
            <Position>
              <LatitudeDegrees>44.84939396381378173828125</LatitudeDegrees>
              <LongitudeDegrees>-0.5753725580871105194091796875</LongitudeDegrees>
            </Position>
            <AltitudeMeters>1.2000000476837158203125</AltitudeMeters>
            <DistanceMeters>6485.2800365458</DistanceMeters>
          </Trackpoint>
          <Trackpoint>
            <Time>2022-07-04T08:14:56.000Z</Time>
            <Position>
              <LatitudeDegrees>44.84949463047087192535400390625</LatitudeDegrees>
              <LongitudeDegrees>-0.5753735639154911041259765625</LongitudeDegrees>
            </Position>
            <AltitudeMeters>1.2000000476837158203125</AltitudeMeters>
            <DistanceMeters>6496.4843269171</DistanceMeters>
          </Trackpoint>
          <Trackpoint>
            <Time>2022-07-04T08:14:57.000Z</Time>
            <Position>
              <LatitudeDegrees>44.84955715946853160858154296875</LatitudeDegrees>
              <LongitudeDegrees>-0.5753765814006328582763671875</LongitudeDegrees>
            </Position>
            <AltitudeMeters>1.2000000476837158203125</AltitudeMeters>
            <DistanceMeters>6503.4479115187</DistanceMeters>
          </Trackpoint>
          <Trackpoint>
            <Time>2022-07-04T08:14:58.000Z</Time>
            <Position>
              <LatitudeDegrees>44.84959269873797893524169921875</LatitudeDegrees>
              <LongitudeDegrees>-0.575363337993621826171875</LongitudeDegrees>
            </Position>
            <AltitudeMeters>1.2000000476837158203125</AltitudeMeters>
            <DistanceMeters>6507.5395813157</DistanceMeters>
          </Trackpoint>
          <Trackpoint>
            <Time>2022-07-04T08:15:00.000Z</Time>
            <Position>
              <LatitudeDegrees>44.84963729046285152435302734375</LatitudeDegrees>
              <LongitudeDegrees>-0.5753083527088165283203125</LongitudeDegrees>
            </Position>
            <AltitudeMeters>1.2000000476837158203125</AltitudeMeters>
            <DistanceMeters>6514.132819367</DistanceMeters>
          </Trackpoint>
          <Trackpoint>
            <Time>2022-07-04T08:15:03.000Z</Time>
            <Position>
              <LatitudeDegrees>44.84971976839005947113037109375</LatitudeDegrees>
              <LongitudeDegrees>-0.5752595700323581695556640625</LongitudeDegrees>
            </Position>
            <AltitudeMeters>1.2000000476837158203125</AltitudeMeters>
            <DistanceMeters>6524.0875197088</DistanceMeters>
          </Trackpoint>
          <Trackpoint>
            <Time>2022-07-04T08:15:05.000Z</Time>
            <Position>
              <LatitudeDegrees>44.8497786931693553924560546875</LatitudeDegrees>
              <LongitudeDegrees>-0.57522243820130825042724609375</LongitudeDegrees>
            </Position>
            <AltitudeMeters>1.2000000476837158203125</AltitudeMeters>
            <DistanceMeters>6531.2706845267</DistanceMeters>
          </Trackpoint>
          <Trackpoint>
            <Time>2022-07-04T08:15:07.000Z</Time>
            <Position>
              <LatitudeDegrees>44.84982672147452831268310546875</LatitudeDegrees>
              <LongitudeDegrees>-0.5751660279929637908935546875</LongitudeDegrees>
            </Position>
            <AltitudeMeters>1.2000000476837158203125</AltitudeMeters>
            <DistanceMeters>6538.2264842353</DistanceMeters>
          </Trackpoint>
          <Trackpoint>
            <Time>2022-07-04T08:15:09.000Z</Time>
            <Position>
              <LatitudeDegrees>44.849895872175693511962890625</LatitudeDegrees>
              <LongitudeDegrees>-0.57513912208378314971923828125</LongitudeDegrees>
            </Position>
            <AltitudeMeters>1.2000000476837158203125</AltitudeMeters>
            <DistanceMeters>6546.2109904627</DistanceMeters>
          </Trackpoint>
          <Trackpoint>
            <Time>2022-07-04T08:15:13.000Z</Time>
            <Position>
              <LatitudeDegrees>44.84996971674263477325439453125</LatitudeDegrees>
              <LongitudeDegrees>-0.57505932636559009552001953125</LongitudeDegrees>
            </Position>
            <AltitudeMeters>1.2000000476837158203125</AltitudeMeters>
            <DistanceMeters>6556.5649784645</DistanceMeters>
          </Trackpoint>
          <Trackpoint>
            <Time>2022-07-04T08:15:14.000Z</Time>
            <Position>
              <LatitudeDegrees>44.8499768413603305816650390625</LatitudeDegrees>
              <LongitudeDegrees>-0.57503535412251949310302734375</LongitudeDegrees>
            </Position>
            <AltitudeMeters>1.2000000476837158203125</AltitudeMeters>
            <DistanceMeters>6558.6163232973</DistanceMeters>
          </Trackpoint>
          <Trackpoint>
            <Time>2022-07-04T08:15:19.000Z</Time>
            <Position>
              <LatitudeDegrees>44.85008387826383113861083984375</LatitudeDegrees>
              <LongitudeDegrees>-0.574923455715179443359375</LongitudeDegrees>
            </Position>
            <AltitudeMeters>1</AltitudeMeters>
            <DistanceMeters>6573.4453631031</DistanceMeters>
          </Trackpoint>
          <Trackpoint>
            <Time>2022-07-04T08:15:20.000Z</Time>
            <Position>
              <LatitudeDegrees>44.8501136340200901031494140625</LatitudeDegrees>
              <LongitudeDegrees>-0.57490778155624866485595703125</LongitudeDegrees>
            </Position>
            <AltitudeMeters>1</AltitudeMeters>
            <DistanceMeters>6576.9805612303</DistanceMeters>
          </Trackpoint>
          <Trackpoint>
            <Time>2022-07-04T08:15:23.000Z</Time>
            <Position>
              <LatitudeDegrees>44.850200302898883819580078125</LatitudeDegrees>
              <LongitudeDegrees>-0.574874170124530792236328125</LongitudeDegrees>
            </Position>
            <AltitudeMeters>0.800000011920928955078125</AltitudeMeters>
            <DistanceMeters>6586.9850285977</DistanceMeters>
          </Trackpoint>
          <Trackpoint>
            <Time>2022-07-04T08:15:28.000Z</Time>
            <Position>
              <LatitudeDegrees>44.85034908168017864227294921875</LatitudeDegrees>
              <LongitudeDegrees>-0.574756152927875518798828125</LongitudeDegrees>
            </Position>
            <AltitudeMeters>0.800000011920928955078125</AltitudeMeters>
            <DistanceMeters>6605.9834807857</DistanceMeters>
          </Trackpoint>
          <Trackpoint>
            <Time>2022-07-04T08:15:33.000Z</Time>
            <Position>
              <LatitudeDegrees>44.850476570427417755126953125</LatitudeDegrees>
              <LongitudeDegrees>-0.57465858757495880126953125</LongitudeDegrees>
            </Position>
            <AltitudeMeters>0.800000011920928955078125</AltitudeMeters>
            <DistanceMeters>6622.1271184256</DistanceMeters>
          </Trackpoint>
          <Trackpoint>
            <Time>2022-07-04T08:15:36.000Z</Time>
            <Position>
              <LatitudeDegrees>44.85054169781506061553955078125</LatitudeDegrees>
              <LongitudeDegrees>-0.5746051110327243804931640625</LongitudeDegrees>
            </Position>
            <AltitudeMeters>1</AltitudeMeters>
            <DistanceMeters>6630.5142690442</DistanceMeters>
          </Trackpoint>
          <Trackpoint>
            <Time>2022-07-04T08:15:38.000Z</Time>
            <Position>
              <LatitudeDegrees>44.85057656653225421905517578125</LatitudeDegrees>
              <LongitudeDegrees>-0.574557669460773468017578125</LongitudeDegrees>
            </Position>
            <AltitudeMeters>1</AltitudeMeters>
            <DistanceMeters>6635.9065641168</DistanceMeters>
          </Trackpoint>
          <Trackpoint>
            <Time>2022-07-04T08:15:40.000Z</Time>
            <Position>
              <LatitudeDegrees>44.8506299592554569244384765625</LatitudeDegrees>
              <LongitudeDegrees>-0.57451969943940639495849609375</LongitudeDegrees>
            </Position>
            <AltitudeMeters>1</AltitudeMeters>
            <DistanceMeters>6642.5625054502</DistanceMeters>
          </Trackpoint>
          <Trackpoint>
            <Time>2022-07-04T08:15:44.000Z</Time>
            <Position>
              <LatitudeDegrees>44.85075292177498340606689453125</LatitudeDegrees>
              <LongitudeDegrees>-0.5744451843202114105224609375</LongitudeDegrees>
            </Position>
            <AltitudeMeters>1</AltitudeMeters>
            <DistanceMeters>6657.4577724242</DistanceMeters>
          </Trackpoint>
          <Trackpoint>
            <Time>2022-07-04T08:15:46.000Z</Time>
            <Position>
              <LatitudeDegrees>44.8508356511592864990234375</LatitudeDegrees>
              <LongitudeDegrees>-0.57447074912488460540771484375</LongitudeDegrees>
            </Position>
            <AltitudeMeters>1</AltitudeMeters>
            <DistanceMeters>6666.884115947</DistanceMeters>
          </Trackpoint>
          <Trackpoint>
            <Time>2022-07-04T08:15:48.000Z</Time>
            <Position>
              <LatitudeDegrees>44.85091871581971645355224609375</LatitudeDegrees>
              <LongitudeDegrees>-0.57444677688181400299072265625</LongitudeDegrees>
            </Position>
            <AltitudeMeters>1</AltitudeMeters>
            <DistanceMeters>6676.3209911655</DistanceMeters>
          </Trackpoint>
          <Trackpoint>
            <Time>2022-07-04T08:15:52.000Z</Time>
            <Position>
              <LatitudeDegrees>44.851047880947589874267578125</LatitudeDegrees>
              <LongitudeDegrees>-0.5743454396724700927734375</LongitudeDegrees>
            </Position>
            <AltitudeMeters>1</AltitudeMeters>
            <DistanceMeters>6692.7713203681</DistanceMeters>
          </Trackpoint>
          <Trackpoint>
            <Time>2022-07-04T08:15:53.000Z</Time>
            <Position>
              <LatitudeDegrees>44.851078726351261138916015625</LatitudeDegrees>
              <LongitudeDegrees>-0.57431920431554317474365234375</LongitudeDegrees>
            </Position>
            <AltitudeMeters>1</AltitudeMeters>
            <DistanceMeters>6696.7805018394</DistanceMeters>
          </Trackpoint>
          <Trackpoint>
            <Time>2022-07-04T08:15:54.000Z</Time>
            <Position>
              <LatitudeDegrees>44.851106218993663787841796875</LatitudeDegrees>
              <LongitudeDegrees>-0.57428953237831592559814453125</LongitudeDegrees>
            </Position>
            <AltitudeMeters>1</AltitudeMeters>
            <DistanceMeters>6700.6346522971</DistanceMeters>
          </Trackpoint>
          <Trackpoint>
            <Time>2022-07-04T08:15:57.000Z</Time>
            <Position>
              <LatitudeDegrees>44.85117302276194095611572265625</LatitudeDegrees>
              <LongitudeDegrees>-0.57423555292189121246337890625</LongitudeDegrees>
            </Position>
            <AltitudeMeters>1</AltitudeMeters>
            <DistanceMeters>6709.2034066736</DistanceMeters>
          </Trackpoint>
          <Trackpoint>
            <Time>2022-07-04T08:15:59.000Z</Time>
            <Position>
              <LatitudeDegrees>44.85117520205676555633544921875</LatitudeDegrees>
              <LongitudeDegrees>-0.57417176663875579833984375</LongitudeDegrees>
            </Position>
            <AltitudeMeters>1</AltitudeMeters>
            <DistanceMeters>6714.2407189339</DistanceMeters>
          </Trackpoint>
          <Trackpoint>
            <Time>2022-07-04T08:16:05.000Z</Time>
            <Position>
              <LatitudeDegrees>44.85131199471652507781982421875</LatitudeDegrees>
              <LongitudeDegrees>-0.57406892068684101104736328125</LongitudeDegrees>
            </Position>
            <AltitudeMeters>1</AltitudeMeters>
            <DistanceMeters>6731.493760402</DistanceMeters>
          </Trackpoint>
          <Trackpoint>
            <Time>2022-07-04T08:16:10.000Z</Time>
            <Position>
              <LatitudeDegrees>44.85139782540500164031982421875</LatitudeDegrees>
              <LongitudeDegrees>-0.57400681078433990478515625</LongitudeDegrees>
            </Position>
            <AltitudeMeters>0.800000011920928955078125</AltitudeMeters>
            <DistanceMeters>6742.2305176351</DistanceMeters>
          </Trackpoint>
          <Trackpoint>
            <Time>2022-07-04T08:16:14.000Z</Time>
            <Position>
              <LatitudeDegrees>44.851419366896152496337890625</LatitudeDegrees>
              <LongitudeDegrees>-0.573941431939601898193359375</LongitudeDegrees>
            </Position>
            <AltitudeMeters>0.800000011920928955078125</AltitudeMeters>
            <DistanceMeters>6747.9194361593</DistanceMeters>
          </Trackpoint>
          <Trackpoint>
            <Time>2022-07-04T08:16:15.000Z</Time>
            <Position>
              <LatitudeDegrees>44.85143520869314670562744140625</LatitudeDegrees>
              <LongitudeDegrees>-0.573917292058467864990234375</LongitudeDegrees>
            </Position>
            <AltitudeMeters>0.800000011920928955078125</AltitudeMeters>
            <DistanceMeters>6750.5149008628</DistanceMeters>
          </Trackpoint>
          <Trackpoint>
            <Time>2022-07-04T08:16:21.000Z</Time>
            <Position>
              <LatitudeDegrees>44.8516012541949748992919921875</LatitudeDegrees>
              <LongitudeDegrees>-0.57382182218134403228759765625</LongitudeDegrees>
            </Position>
            <AltitudeMeters>1.2000000476837158203125</AltitudeMeters>
            <DistanceMeters>6770.4723208311</DistanceMeters>
          </Trackpoint>
          <Trackpoint>
            <Time>2022-07-04T08:16:26.000Z</Time>
            <Position>
              <LatitudeDegrees>44.8517668806016445159912109375</LatitudeDegrees>
              <LongitudeDegrees>-0.5737508274614810943603515625</LongitudeDegrees>
            </Position>
            <AltitudeMeters>1</AltitudeMeters>
            <DistanceMeters>6789.7390896951</DistanceMeters>
          </Trackpoint>
          <Trackpoint>
            <Time>2022-07-04T08:16:28.000Z</Time>
            <Position>
              <LatitudeDegrees>44.8518349416553974151611328125</LatitudeDegrees>
              <LongitudeDegrees>-0.5737178027629852294921875</LongitudeDegrees>
            </Position>
            <AltitudeMeters>1</AltitudeMeters>
            <DistanceMeters>6797.7495655368</DistanceMeters>
          </Trackpoint>
          <Trackpoint>
            <Time>2022-07-04T08:16:39.000Z</Time>
            <Position>
              <LatitudeDegrees>44.85221992246806621551513671875</LatitudeDegrees>
              <LongitudeDegrees>-0.57353331707417964935302734375</LongitudeDegrees>
            </Position>
            <AltitudeMeters>0.800000011920928955078125</AltitudeMeters>
            <DistanceMeters>6843.003837124</DistanceMeters>
          </Trackpoint>
          <Trackpoint>
            <Time>2022-07-04T08:16:44.000Z</Time>
            <Position>
              <LatitudeDegrees>44.8523945175111293792724609375</LatitudeDegrees>
              <LongitudeDegrees>-0.57343759573996067047119140625</LongitudeDegrees>
            </Position>
            <AltitudeMeters>1.2000000476837158203125</AltitudeMeters>
            <DistanceMeters>6863.8526202949</DistanceMeters>
          </Trackpoint>
          <Trackpoint>
            <Time>2022-07-04T08:16:45.000Z</Time>
            <Position>
              <LatitudeDegrees>44.85242494381964206695556640625</LatitudeDegrees>
              <LongitudeDegrees>-0.57341261766850948333740234375</LongitudeDegrees>
            </Position>
            <AltitudeMeters>1.2000000476837158203125</AltitudeMeters>
            <DistanceMeters>6867.7706721009</DistanceMeters>
          </Trackpoint>
          <Trackpoint>
            <Time>2022-07-04T08:16:46.000Z</Time>
            <Position>
              <LatitudeDegrees>44.8524501733481884002685546875</LatitudeDegrees>
              <LongitudeDegrees>-0.5733940936625003814697265625</LongitudeDegrees>
            </Position>
            <AltitudeMeters>1.2000000476837158203125</AltitudeMeters>
            <DistanceMeters>6870.9366450719</DistanceMeters>
          </Trackpoint>
          <Trackpoint>
            <Time>2022-07-04T08:16:52.000Z</Time>
            <Position>
              <LatitudeDegrees>44.852636754512786865234375</LatitudeDegrees>
              <LongitudeDegrees>-0.573258139193058013916015625</LongitudeDegrees>
            </Position>
            <AltitudeMeters>1</AltitudeMeters>
            <DistanceMeters>6894.3108989673</DistanceMeters>
          </Trackpoint>
          <Trackpoint>
            <Time>2022-07-04T08:16:53.000Z</Time>
            <Position>
              <LatitudeDegrees>44.85266567207872867584228515625</LatitudeDegrees>
              <LongitudeDegrees>-0.57324246503412723541259765625</LongitudeDegrees>
            </Position>
            <AltitudeMeters>1</AltitudeMeters>
            <DistanceMeters>6897.7594654342</DistanceMeters>
          </Trackpoint>
          <Trackpoint>
            <Time>2022-07-04T08:17:00.000Z</Time>
            <Position>
              <LatitudeDegrees>44.8528929054737091064453125</LatitudeDegrees>
              <LongitudeDegrees>-0.57312143035233020782470703125</LongitudeDegrees>
            </Position>
            <AltitudeMeters>1</AltitudeMeters>
            <DistanceMeters>6924.7941899051</DistanceMeters>
          </Trackpoint>
          <Trackpoint>
            <Time>2022-07-04T08:17:07.000Z</Time>
            <Position>
              <LatitudeDegrees>44.853109829127788543701171875</LatitudeDegrees>
              <LongitudeDegrees>-0.5729857273399829864501953125</LongitudeDegrees>
            </Position>
            <AltitudeMeters>0.800000011920928955078125</AltitudeMeters>
            <DistanceMeters>6951.205975823</DistanceMeters>
          </Trackpoint>
          <Trackpoint>
            <Time>2022-07-04T08:17:11.000Z</Time>
            <Position>
              <LatitudeDegrees>44.8532397486269474029541015625</LatitudeDegrees>
              <LongitudeDegrees>-0.5728958733379840850830078125</LongitudeDegrees>
            </Position>
            <AltitudeMeters>0.60000002384185791015625</AltitudeMeters>
            <DistanceMeters>6967.3106911457</DistanceMeters>
          </Trackpoint>
          <Trackpoint>
            <Time>2022-07-04T08:17:15.000Z</Time>
            <Position>
              <LatitudeDegrees>44.8533581010997295379638671875</LatitudeDegrees>
              <LongitudeDegrees>-0.5728408880531787872314453125</LongitudeDegrees>
            </Position>
            <AltitudeMeters>0.4000000059604644775390625</AltitudeMeters>
            <DistanceMeters>6981.1797090753</DistanceMeters>
          </Trackpoint>
          <Trackpoint>
            <Time>2022-07-04T08:17:22.000Z</Time>
            <Position>
              <LatitudeDegrees>44.85354493372142314910888671875</LatitudeDegrees>
              <LongitudeDegrees>-0.5727201886475086212158203125</LongitudeDegrees>
            </Position>
            <AltitudeMeters>0.60000002384185791015625</AltitudeMeters>
            <DistanceMeters>7004.0517528964</DistanceMeters>
          </Trackpoint>
          <Trackpoint>
            <Time>2022-07-04T08:17:31.000Z</Time>
            <Position>
              <LatitudeDegrees>44.853752553462982177734375</LatitudeDegrees>
              <LongitudeDegrees>-0.5725589208304882049560546875</LongitudeDegrees>
            </Position>
            <AltitudeMeters>0.800000011920928955078125</AltitudeMeters>
            <DistanceMeters>7030.4322368075</DistanceMeters>
          </Trackpoint>
          <Trackpoint>
            <Time>2022-07-04T08:17:35.000Z</Time>
            <Position>
              <LatitudeDegrees>44.853834696114063262939453125</LatitudeDegrees>
              <LongitudeDegrees>-0.572490692138671875</LongitudeDegrees>
            </Position>
            <AltitudeMeters>0.800000011920928955078125</AltitudeMeters>
            <DistanceMeters>7041.0420875581</DistanceMeters>
          </Trackpoint>
          <Trackpoint>
            <Time>2022-07-04T08:17:37.000Z</Time>
            <Position>
              <LatitudeDegrees>44.85386964865028858184814453125</LatitudeDegrees>
              <LongitudeDegrees>-0.57246630080044269561767578125</LongitudeDegrees>
            </Position>
            <AltitudeMeters>0.800000011920928955078125</AltitudeMeters>
            <DistanceMeters>7045.3822188305</DistanceMeters>
          </Trackpoint>
          <Trackpoint>
            <Time>2022-07-04T08:17:38.000Z</Time>
            <Position>
              <LatitudeDegrees>44.8538821376860141754150390625</LatitudeDegrees>
              <LongitudeDegrees>-0.57245775125920772552490234375</LongitudeDegrees>
            </Position>
            <AltitudeMeters>0.60000002384185791015625</AltitudeMeters>
            <DistanceMeters>7046.9262201845</DistanceMeters>
          </Trackpoint>
          <Trackpoint>
            <Time>2022-07-04T08:17:41.000Z</Time>
            <Position>
              <LatitudeDegrees>44.85388624481856822967529296875</LatitudeDegrees>
              <LongitudeDegrees>-0.5724563263356685638427734375</LongitudeDegrees>
            </Position>
            <AltitudeMeters>0.4000000059604644775390625</AltitudeMeters>
            <DistanceMeters>7047.4013537564</DistanceMeters>
          </Trackpoint>
          <Trackpoint>
            <Time>2022-07-04T08:18:02.000Z</Time>
            <Position>
              <LatitudeDegrees>44.85393687151372432708740234375</LatitudeDegrees>
              <LongitudeDegrees>-0.5724415741860866546630859375</LongitudeDegrees>
            </Position>
            <AltitudeMeters>0.60000002384185791015625</AltitudeMeters>
            <DistanceMeters>7053.1557686111</DistanceMeters>
          </Trackpoint>
          <Trackpoint>
            <Time>2022-07-04T08:18:03.000Z</Time>
            <Position>
              <LatitudeDegrees>44.85396235249936580657958984375</LatitudeDegrees>
              <LongitudeDegrees>-0.572426319122314453125</LongitudeDegrees>
            </Position>
            <AltitudeMeters>0.60000002384185791015625</AltitudeMeters>
            <DistanceMeters>7056.2379172803</DistanceMeters>
          </Trackpoint>
          <Trackpoint>
            <Time>2022-07-04T08:18:04.000Z</Time>
            <Position>
              <LatitudeDegrees>44.8539926111698150634765625</LatitudeDegrees>
              <LongitudeDegrees>-0.572403855621814727783203125</LongitudeDegrees>
            </Position>
            <AltitudeMeters>0.60000002384185791015625</AltitudeMeters>
            <DistanceMeters>7060.0437342249</DistanceMeters>
          </Trackpoint>
          <Trackpoint>
            <Time>2022-07-04T08:18:09.000Z</Time>
            <Position>
              <LatitudeDegrees>44.8541429825127124786376953125</LatitudeDegrees>
              <LongitudeDegrees>-0.57230494916439056396484375</LongitudeDegrees>
            </Position>
            <AltitudeMeters>1</AltitudeMeters>
            <DistanceMeters>7078.5104837198</DistanceMeters>
          </Trackpoint>
          <Trackpoint>
            <Time>2022-07-04T08:18:11.000Z</Time>
            <Position>
              <LatitudeDegrees>44.85419712960720062255859375</LatitudeDegrees>
              <LongitudeDegrees>-0.57225658558309078216552734375</LongitudeDegrees>
            </Position>
            <AltitudeMeters>1</AltitudeMeters>
            <DistanceMeters>7085.6438195987</DistanceMeters>
          </Trackpoint>
          <Trackpoint>
            <Time>2022-07-04T08:18:16.000Z</Time>
            <Position>
              <LatitudeDegrees>44.8543200083076953887939453125</LatitudeDegrees>
              <LongitudeDegrees>-0.57219506241381168365478515625</LongitudeDegrees>
            </Position>
            <AltitudeMeters>1.2000000476837158203125</AltitudeMeters>
            <DistanceMeters>7100.1564865824</DistanceMeters>
          </Trackpoint>
          <Trackpoint>
            <Time>2022-07-04T08:18:19.000Z</Time>
            <Position>
              <LatitudeDegrees>44.8543840460479259490966796875</LatitudeDegrees>
              <LongitudeDegrees>-0.5721301026642322540283203125</LongitudeDegrees>
            </Position>
            <AltitudeMeters>1.2000000476837158203125</AltitudeMeters>
            <DistanceMeters>7108.9350213333</DistanceMeters>
          </Trackpoint>
          <Trackpoint>
            <Time>2022-07-04T08:18:20.000Z</Time>
            <Position>
              <LatitudeDegrees>44.85440977849066257476806640625</LatitudeDegrees>
              <LongitudeDegrees>-0.5721069686114788055419921875</LongitudeDegrees>
            </Position>
            <AltitudeMeters>1.2000000476837158203125</AltitudeMeters>
            <DistanceMeters>7112.3308139682</DistanceMeters>
          </Trackpoint>
          <Trackpoint>
            <Time>2022-07-04T08:18:30.000Z</Time>
            <Position>
              <LatitudeDegrees>44.85470817424356937408447265625</LatitudeDegrees>
              <LongitudeDegrees>-0.57193212211132049560546875</LongitudeDegrees>
            </Position>
            <AltitudeMeters>1.2000000476837158203125</AltitudeMeters>
            <DistanceMeters>7148.2941256749</DistanceMeters>
          </Trackpoint>
          <Trackpoint>
            <Time>2022-07-04T08:18:31.000Z</Time>
            <Position>
              <LatitudeDegrees>44.85473549924790859222412109375</LatitudeDegrees>
              <LongitudeDegrees>-0.57191527448594570159912109375</LongitudeDegrees>
            </Position>
            <AltitudeMeters>1.2000000476837158203125</AltitudeMeters>
            <DistanceMeters>7151.6132661151</DistanceMeters>
          </Trackpoint>
          <Trackpoint>
            <Time>2022-07-04T08:18:35.000Z</Time>
            <Position>
              <LatitudeDegrees>44.85480925999581813812255859375</LatitudeDegrees>
              <LongitudeDegrees>-0.5718575231730937957763671875</LongitudeDegrees>
            </Position>
            <AltitudeMeters>1</AltitudeMeters>
            <DistanceMeters>7161.0031365295</DistanceMeters>
          </Trackpoint>
          <Trackpoint>
            <Time>2022-07-04T08:18:40.000Z</Time>
            <Position>
              <LatitudeDegrees>44.85481160692870616912841796875</LatitudeDegrees>
              <LongitudeDegrees>-0.57185391895473003387451171875</LongitudeDegrees>
            </Position>
            <AltitudeMeters>0.800000011920928955078125</AltitudeMeters>
            <DistanceMeters>7161.383243387</DistanceMeters>
          </Trackpoint>
          <Trackpoint>
            <Time>2022-07-04T08:18:41.000Z</Time>
            <Position>
              <LatitudeDegrees>44.85482552088797092437744140625</LatitudeDegrees>
              <LongitudeDegrees>-0.571854673326015472412109375</LongitudeDegrees>
            </Position>
            <AltitudeMeters>1</AltitudeMeters>
            <DistanceMeters>7162.933082196</DistanceMeters>
          </Trackpoint>
          <Trackpoint>
            <Time>2022-07-04T08:18:44.000Z</Time>
            <Position>
              <LatitudeDegrees>44.854884445667266845703125</LatitudeDegrees>
              <LongitudeDegrees>-0.57180647738277912139892578125</LongitudeDegrees>
            </Position>
            <AltitudeMeters>1.2000000476837158203125</AltitudeMeters>
            <DistanceMeters>7170.5149992783</DistanceMeters>
          </Trackpoint>
          <Trackpoint>
            <Time>2022-07-04T08:18:46.000Z</Time>
            <Position>
              <LatitudeDegrees>44.85492576844990253448486328125</LatitudeDegrees>
              <LongitudeDegrees>-0.57177160866558551788330078125</LongitudeDegrees>
            </Position>
            <AltitudeMeters>1.2000000476837158203125</AltitudeMeters>
            <DistanceMeters>7175.8736971697</DistanceMeters>
          </Trackpoint>
          <Trackpoint>
            <Time>2022-07-04T08:18:50.000Z</Time>
            <Position>
              <LatitudeDegrees>44.8550043068826198577880859375</LatitudeDegrees>
              <LongitudeDegrees>-0.5716932378709316253662109375</LongitudeDegrees>
            </Position>
            <AltitudeMeters>1.39999997615814208984375</AltitudeMeters>
            <DistanceMeters>7186.5809774282</DistanceMeters>
          </Trackpoint>
          <Trackpoint>
            <Time>2022-07-04T08:18:52.000Z</Time>
            <Position>
              <LatitudeDegrees>44.8550324700772762298583984375</LatitudeDegrees>
              <LongitudeDegrees>-0.57167991064488887786865234375</LongitudeDegrees>
            </Position>
            <AltitudeMeters>1.39999997615814208984375</AltitudeMeters>
            <DistanceMeters>7189.8892175419</DistanceMeters>
          </Trackpoint>
          <Trackpoint>
            <Time>2022-07-04T08:18:57.000Z</Time>
            <Position>
              <LatitudeDegrees>44.8550606332719326019287109375</LatitudeDegrees>
              <LongitudeDegrees>-0.57161159813404083251953125</LongitudeDegrees>
            </Position>
            <AltitudeMeters>1.2000000476837158203125</AltitudeMeters>
            <DistanceMeters>7196.1248818343</DistanceMeters>
          </Trackpoint>
          <Trackpoint>
            <Time>2022-07-04T08:19:04.000Z</Time>
            <Position>
              <LatitudeDegrees>44.8551722802221775054931640625</LatitudeDegrees>
              <LongitudeDegrees>-0.5714652501046657562255859375</LongitudeDegrees>
            </Position>
            <AltitudeMeters>1.2000000476837158203125</AltitudeMeters>
            <DistanceMeters>7213.0881484997</DistanceMeters>
          </Trackpoint>
          <Trackpoint>
            <Time>2022-07-04T08:19:12.000Z</Time>
            <Position>
              <LatitudeDegrees>44.85530161298811435699462890625</LatitudeDegrees>
              <LongitudeDegrees>-0.5712667666375637054443359375</LongitudeDegrees>
            </Position>
            <AltitudeMeters>1</AltitudeMeters>
            <DistanceMeters>7234.3597039307</DistanceMeters>
          </Trackpoint>
          <Trackpoint>
            <Time>2022-07-04T08:19:13.000Z</Time>
            <Position>
              <LatitudeDegrees>44.85531820915639400482177734375</LatitudeDegrees>
              <LongitudeDegrees>-0.571251846849918365478515625</LongitudeDegrees>
            </Position>
            <AltitudeMeters>1</AltitudeMeters>
            <DistanceMeters>7236.5494460598</DistanceMeters>
          </Trackpoint>
          <Trackpoint>
            <Time>2022-07-04T08:19:14.000Z</Time>
            <Position>
              <LatitudeDegrees>44.855328015983104705810546875</LatitudeDegrees>
              <LongitudeDegrees>-0.5712493322789669036865234375</LongitudeDegrees>
            </Position>
            <AltitudeMeters>0.800000011920928955078125</AltitudeMeters>
            <DistanceMeters>7237.6576384602</DistanceMeters>
          </Trackpoint>
          <Trackpoint>
            <Time>2022-07-04T08:19:17.000Z</Time>
            <Position>
              <LatitudeDegrees>44.85533866100013256072998046875</LatitudeDegrees>
              <LongitudeDegrees>-0.5712694488465785980224609375</LongitudeDegrees>
            </Position>
            <AltitudeMeters>0.60000002384185791015625</AltitudeMeters>
            <DistanceMeters>7239.6372983241</DistanceMeters>
          </Trackpoint>
          <Trackpoint>
            <Time>2022-07-04T08:19:19.000Z</Time>
            <Position>
              <LatitudeDegrees>44.8553415946662425994873046875</LatitudeDegrees>
              <LongitudeDegrees>-0.57131521403789520263671875</LongitudeDegrees>
            </Position>
            <AltitudeMeters>0.60000002384185791015625</AltitudeMeters>
            <DistanceMeters>7243.2632866449</DistanceMeters>
          </Trackpoint>
          <Trackpoint>
            <Time>2022-07-04T08:19:22.000Z</Time>
            <Position>
              <LatitudeDegrees>44.8553607054054737091064453125</LatitudeDegrees>
              <LongitudeDegrees>-0.571366846561431884765625</LongitudeDegrees>
            </Position>
            <AltitudeMeters>0.800000011920928955078125</AltitudeMeters>
            <DistanceMeters>7247.8581009748</DistanceMeters>
          </Trackpoint>
          <Trackpoint>
            <Time>2022-07-04T08:19:23.000Z</Time>
            <Position>
              <LatitudeDegrees>44.8553536646068096160888671875</LatitudeDegrees>
              <LongitudeDegrees>-0.57137765921652317047119140625</LongitudeDegrees>
            </Position>
            <AltitudeMeters>0.800000011920928955078125</AltitudeMeters>
            <DistanceMeters>7249.0141508498</DistanceMeters>
          </Trackpoint>
          <Trackpoint>
            <Time>2022-07-04T08:19:25.000Z</Time>
            <Position>
              <LatitudeDegrees>44.8553647287189960479736328125</LatitudeDegrees>
              <LongitudeDegrees>-0.57139492593705654144287109375</LongitudeDegrees>
            </Position>
            <AltitudeMeters>1</AltitudeMeters>
            <DistanceMeters>7250.8518800437</DistanceMeters>
          </Trackpoint>
          <Trackpoint>
            <Time>2022-07-04T08:19:27.000Z</Time>
            <Position>
              <LatitudeDegrees>44.855366237461566925048828125</LatitudeDegrees>
              <LongitudeDegrees>-0.57141453959047794342041015625</LongitudeDegrees>
            </Position>
            <AltitudeMeters>1.2000000476837158203125</AltitudeMeters>
            <DistanceMeters>7252.4075344035</DistanceMeters>
          </Trackpoint>
          <Trackpoint>
            <Time>2022-07-04T08:19:29.000Z</Time>
            <Position>
              <LatitudeDegrees>44.85536615364253520965576171875</LatitudeDegrees>
              <LongitudeDegrees>-0.5714209936559200286865234375</LongitudeDegrees>
            </Position>
            <AltitudeMeters>1.2000000476837158203125</AltitudeMeters>
            <DistanceMeters>7252.9192689214</DistanceMeters>
          </Trackpoint>
          <Trackpoint>
            <Time>2022-07-04T08:19:30.000Z</Time>
            <Position>
              <LatitudeDegrees>44.85536615364253520965576171875</LatitudeDegrees>
              <LongitudeDegrees>-0.5714209936559200286865234375</LongitudeDegrees>
            </Position>
            <AltitudeMeters>1.2000000476837158203125</AltitudeMeters>
            <DistanceMeters>7252.9192689214</DistanceMeters>
          </Trackpoint>
          <Trackpoint>
            <Time>2022-07-04T08:20:59.000Z</Time>
            <Position>
              <LatitudeDegrees>44.85539347864687442779541015625</LatitudeDegrees>
              <LongitudeDegrees>-0.57139090262353420257568359375</LongitudeDegrees>
            </Position>
            <AltitudeMeters>0.800000011920928955078125</AltitudeMeters>
            <DistanceMeters>7256.7769322011</DistanceMeters>
          </Trackpoint>
          <Trackpoint>
            <Time>2022-07-04T08:21:01.000Z</Time>
            <Position>
              <LatitudeDegrees>44.8554264195263385772705078125</LatitudeDegrees>
              <LongitudeDegrees>-0.57137028314173221588134765625</LongitudeDegrees>
            </Position>
            <AltitudeMeters>0.60000002384185791015625</AltitudeMeters>
            <DistanceMeters>7260.7883653893</DistanceMeters>
          </Trackpoint>
          <Trackpoint>
            <Time>2022-07-04T08:21:05.000Z</Time>
            <Position>
              <LatitudeDegrees>44.85548316501080989837646484375</LatitudeDegrees>
              <LongitudeDegrees>-0.57135033421218395233154296875</LongitudeDegrees>
            </Position>
            <AltitudeMeters>0.4000000059604644775390625</AltitudeMeters>
            <DistanceMeters>7267.2975219149</DistanceMeters>
          </Trackpoint>
          <Trackpoint>
            <Time>2022-07-04T08:21:07.000Z</Time>
            <Position>
              <LatitudeDegrees>44.85550512559711933135986328125</LatitudeDegrees>
              <LongitudeDegrees>-0.5713663436472415924072265625</LongitudeDegrees>
            </Position>
            <AltitudeMeters>0.4000000059604644775390625</AltitudeMeters>
            <DistanceMeters>7270.0516577527</DistanceMeters>
          </Trackpoint>
          <Trackpoint>
            <Time>2022-07-04T08:21:09.000Z</Time>
            <Position>
              <LatitudeDegrees>44.85550713725388050079345703125</LatitudeDegrees>
              <LongitudeDegrees>-0.57137849740684032440185546875</LongitudeDegrees>
            </Position>
            <AltitudeMeters>0.20000000298023223876953125</AltitudeMeters>
            <DistanceMeters>7271.0392043369</DistanceMeters>
          </Trackpoint>
          <Trackpoint>
            <Time>2022-07-04T08:21:12.000Z</Time>
            <Position>
              <LatitudeDegrees>44.85550872981548309326171875</LatitudeDegrees>
              <LongitudeDegrees>-0.571404062211513519287109375</LongitudeDegrees>
            </Position>
            <AltitudeMeters>0.20000000298023223876953125</AltitudeMeters>
            <DistanceMeters>7273.0639647438</DistanceMeters>
          </Trackpoint>
          <Trackpoint>
            <Time>2022-07-04T08:21:13.000Z</Time>
            <Position>
              <LatitudeDegrees>44.85550495795905590057373046875</LatitudeDegrees>
              <LongitudeDegrees>-0.57142878882586956024169921875</LongitudeDegrees>
            </Position>
            <AltitudeMeters>0</AltitudeMeters>
            <DistanceMeters>7275.0595257456</DistanceMeters>
          </Trackpoint>
          <Trackpoint>
            <Time>2022-07-04T08:21:16.000Z</Time>
            <Position>
              <LatitudeDegrees>44.8554519005119800567626953125</LatitudeDegrees>
              <LongitudeDegrees>-0.57149249128997325897216796875</LongitudeDegrees>
            </Position>
            <AltitudeMeters>0</AltitudeMeters>
            <DistanceMeters>7282.8139618335</DistanceMeters>
          </Trackpoint>
          <Trackpoint>
            <Time>2022-07-04T08:21:17.000Z</Time>
            <Position>
              <LatitudeDegrees>44.85542382113635540008544921875</LatitudeDegrees>
              <LongitudeDegrees>-0.57150204665958881378173828125</LongitudeDegrees>
            </Position>
            <AltitudeMeters>0</AltitudeMeters>
            <DistanceMeters>7286.0280569552</DistanceMeters>
          </Trackpoint>
          <Trackpoint>
            <Time>2022-07-04T08:21:20.000Z</Time>
            <Position>
              <LatitudeDegrees>44.85533799044787883758544921875</LatitudeDegrees>
              <LongitudeDegrees>-0.5715507455170154571533203125</LongitudeDegrees>
            </Position>
            <AltitudeMeters>0</AltitudeMeters>
            <DistanceMeters>7296.3252001321</DistanceMeters>
          </Trackpoint>
          <Trackpoint>
            <Time>2022-07-04T08:21:22.000Z</Time>
            <Position>
              <LatitudeDegrees>44.85525215975940227508544921875</LatitudeDegrees>
              <LongitudeDegrees>-0.57158050127327442169189453125</LongitudeDegrees>
            </Position>
            <AltitudeMeters>0</AltitudeMeters>
            <DistanceMeters>7306.1631043462</DistanceMeters>
          </Trackpoint>
          <Trackpoint>
            <Time>2022-07-04T08:21:24.000Z</Time>
            <Position>
              <LatitudeDegrees>44.85518359579145908355712890625</LatitudeDegrees>
              <LongitudeDegrees>-0.5715936608612537384033203125</LongitudeDegrees>
            </Position>
            <AltitudeMeters>0.20000000298023223876953125</AltitudeMeters>
            <DistanceMeters>7313.8655456629</DistanceMeters>
          </Trackpoint>
          <Trackpoint>
            <Time>2022-07-04T08:21:25.000Z</Time>
            <Position>
              <LatitudeDegrees>44.85515040345489978790283203125</LatitudeDegrees>
              <LongitudeDegrees>-0.57161838747560977935791015625</LongitudeDegrees>
            </Position>
            <AltitudeMeters>0.20000000298023223876953125</AltitudeMeters>
            <DistanceMeters>7318.0445608391</DistanceMeters>
          </Trackpoint>
          <Trackpoint>
            <Time>2022-07-04T08:21:29.000Z</Time>
            <Position>
              <LatitudeDegrees>44.8550455458462238311767578125</LatitudeDegrees>
              <LongitudeDegrees>-0.57174478657543659210205078125</LongitudeDegrees>
            </Position>
            <AltitudeMeters>0.20000000298023223876953125</AltitudeMeters>
            <DistanceMeters>7333.3960081661</DistanceMeters>
          </Trackpoint>
          <Trackpoint>
            <Time>2022-07-04T08:21:36.000Z</Time>
            <Position>
              <LatitudeDegrees>44.85487296245992183685302734375</LatitudeDegrees>
              <LongitudeDegrees>-0.57189381681382656097412109375</LongitudeDegrees>
            </Position>
            <AltitudeMeters>0.4000000059604644775390625</AltitudeMeters>
            <DistanceMeters>7355.9181413707</DistanceMeters>
          </Trackpoint>
          <Trackpoint>
            <Time>2022-07-04T08:21:38.000Z</Time>
            <Position>
              <LatitudeDegrees>44.854815714061260223388671875</LatitudeDegrees>
              <LongitudeDegrees>-0.5719379894435405731201171875</LongitudeDegrees>
            </Position>
            <AltitudeMeters>0.4000000059604644775390625</AltitudeMeters>
            <DistanceMeters>7363.1813160613</DistanceMeters>
          </Trackpoint>
          <Trackpoint>
            <Time>2022-07-04T08:21:40.000Z</Time>
            <Position>
              <LatitudeDegrees>44.8547592200338840484619140625</LatitudeDegrees>
              <LongitudeDegrees>-0.57197235524654388427734375</LongitudeDegrees>
            </Position>
            <AltitudeMeters>0.4000000059604644775390625</AltitudeMeters>
            <DistanceMeters>7370.0298353939</DistanceMeters>
          </Trackpoint>
          <Trackpoint>
            <Time>2022-07-04T08:21:42.000Z</Time>
            <Position>
              <LatitudeDegrees>44.8547055758535861968994140625</LatitudeDegrees>
              <LongitudeDegrees>-0.57200445793569087982177734375</LongitudeDegrees>
            </Position>
            <AltitudeMeters>0.4000000059604644775390625</AltitudeMeters>
            <DistanceMeters>7376.5167573319</DistanceMeters>
          </Trackpoint>
          <Trackpoint>
            <Time>2022-07-04T08:21:43.000Z</Time>
            <Position>
              <LatitudeDegrees>44.8546613194048404693603515625</LatitudeDegrees>
              <LongitudeDegrees>-0.57202239520847797393798828125</LongitudeDegrees>
            </Position>
            <AltitudeMeters>0.4000000059604644775390625</AltitudeMeters>
            <DistanceMeters>7381.6411560575</DistanceMeters>
          </Trackpoint>
          <Trackpoint>
            <Time>2022-07-04T08:21:47.000Z</Time>
            <Position>
              <LatitudeDegrees>44.85453483648598194122314453125</LatitudeDegrees>
              <LongitudeDegrees>-0.5720932222902774810791015625</LongitudeDegrees>
            </Position>
            <AltitudeMeters>0.20000000298023223876953125</AltitudeMeters>
            <DistanceMeters>7396.7877108517</DistanceMeters>
          </Trackpoint>
          <Trackpoint>
            <Time>2022-07-04T08:21:52.000Z</Time>
            <Position>
              <LatitudeDegrees>44.85435026697814464569091796875</LatitudeDegrees>
              <LongitudeDegrees>-0.5721914581954479217529296875</LongitudeDegrees>
            </Position>
            <AltitudeMeters>0.4000000059604644775390625</AltitudeMeters>
            <DistanceMeters>7418.7444346782</DistanceMeters>
          </Trackpoint>
          <Trackpoint>
            <Time>2022-07-04T08:21:53.000Z</Time>
            <Position>
              <LatitudeDegrees>44.8543273843824863433837890625</LatitudeDegrees>
              <LongitudeDegrees>-0.57223211042582988739013671875</LongitudeDegrees>
            </Position>
            <AltitudeMeters>0.4000000059604644775390625</AltitudeMeters>
            <DistanceMeters>7422.8394135495</DistanceMeters>
          </Trackpoint>
          <Trackpoint>
            <Time>2022-07-04T08:21:56.000Z</Time>
            <Position>
              <LatitudeDegrees>44.85425622202455997467041015625</LatitudeDegrees>
              <LongitudeDegrees>-0.5723088048398494720458984375</LongitudeDegrees>
            </Position>
            <AltitudeMeters>0.4000000059604644775390625</AltitudeMeters>
            <DistanceMeters>7432.8068054368</DistanceMeters>
          </Trackpoint>
          <Trackpoint>
            <Time>2022-07-04T08:22:00.000Z</Time>
            <Position>
              <LatitudeDegrees>44.85411976464092731475830078125</LatitudeDegrees>
              <LongitudeDegrees>-0.57237066328525543212890625</LongitudeDegrees>
            </Position>
            <AltitudeMeters>0.4000000059604644775390625</AltitudeMeters>
            <DistanceMeters>7448.7599767359</DistanceMeters>
          </Trackpoint>
          <Trackpoint>
            <Time>2022-07-04T08:22:04.000Z</Time>
            <Position>
              <LatitudeDegrees>44.8539786972105503082275390625</LatitudeDegrees>
              <LongitudeDegrees>-0.57245205156505107879638671875</LongitudeDegrees>
            </Position>
            <AltitudeMeters>0.4000000059604644775390625</AltitudeMeters>
            <DistanceMeters>7465.7237757242</DistanceMeters>
          </Trackpoint>
          <Trackpoint>
            <Time>2022-07-04T08:22:07.000Z</Time>
            <Position>
              <LatitudeDegrees>44.8538616858422756195068359375</LatitudeDegrees>
              <LongitudeDegrees>-0.57251751422882080078125</LongitudeDegrees>
            </Position>
            <AltitudeMeters>0.4000000059604644775390625</AltitudeMeters>
            <DistanceMeters>7479.7340138258</DistanceMeters>
          </Trackpoint>
          <Trackpoint>
            <Time>2022-07-04T08:22:14.000Z</Time>
            <Position>
              <LatitudeDegrees>44.8536226339638233184814453125</LatitudeDegrees>
              <LongitudeDegrees>-0.57264131493866443634033203125</LongitudeDegrees>
            </Position>
            <AltitudeMeters>0.60000002384185791015625</AltitudeMeters>
            <DistanceMeters>7508.077473755</DistanceMeters>
          </Trackpoint>
          <Trackpoint>
            <Time>2022-07-04T08:22:16.000Z</Time>
            <Position>
              <LatitudeDegrees>44.8535361327230930328369140625</LatitudeDegrees>
              <LongitudeDegrees>-0.57267375290393829345703125</LongitudeDegrees>
            </Position>
            <AltitudeMeters>0.60000002384185791015625</AltitudeMeters>
            <DistanceMeters>7518.0398816063</DistanceMeters>
          </Trackpoint>
          <Trackpoint>
            <Time>2022-07-04T08:22:17.000Z</Time>
            <Position>
              <LatitudeDegrees>44.8534955643117427825927734375</LatitudeDegrees>
              <LongitudeDegrees>-0.5726900137960910797119140625</LongitudeDegrees>
            </Position>
            <AltitudeMeters>0.60000002384185791015625</AltitudeMeters>
            <DistanceMeters>7522.7338550322</DistanceMeters>
          </Trackpoint>
          <Trackpoint>
            <Time>2022-07-04T08:22:24.000Z</Time>
            <Position>
              <LatitudeDegrees>44.85326682217419147491455078125</LatitudeDegrees>
              <LongitudeDegrees>-0.5728831328451633453369140625</LongitudeDegrees>
            </Position>
            <AltitudeMeters>0.20000000298023223876953125</AltitudeMeters>
            <DistanceMeters>7552.4050240828</DistanceMeters>
          </Trackpoint>
          <Trackpoint>
            <Time>2022-07-04T08:22:31.000Z</Time>
            <Position>
              <LatitudeDegrees>44.853057526051998138427734375</LatitudeDegrees>
              <LongitudeDegrees>-0.57304532267153263092041015625</LongitudeDegrees>
            </Position>
            <AltitudeMeters>0.20000000298023223876953125</AltitudeMeters>
            <DistanceMeters>7578.9839808036</DistanceMeters>
          </Trackpoint>
          <Trackpoint>
            <Time>2022-07-04T08:22:38.000Z</Time>
            <Position>
              <LatitudeDegrees>44.852804057300090789794921875</LatitudeDegrees>
              <LongitudeDegrees>-0.57314657606184482574462890625</LongitudeDegrees>
            </Position>
            <AltitudeMeters>1</AltitudeMeters>
            <DistanceMeters>7608.3052276747</DistanceMeters>
          </Trackpoint>
          <Trackpoint>
            <Time>2022-07-04T08:22:42.000Z</Time>
            <Position>
              <LatitudeDegrees>44.85265754163265228271484375</LatitudeDegrees>
              <LongitudeDegrees>-0.57320726104080677032470703125</LongitudeDegrees>
            </Position>
            <AltitudeMeters>1.2000000476837158203125</AltitudeMeters>
            <DistanceMeters>7625.3012011792</DistanceMeters>
          </Trackpoint>
          <Trackpoint>
            <Time>2022-07-04T08:22:44.000Z</Time>
            <Position>
              <LatitudeDegrees>44.85256391577422618865966796875</LatitudeDegrees>
              <LongitudeDegrees>-0.57325973175466060638427734375</LongitudeDegrees>
            </Position>
            <AltitudeMeters>1.2000000476837158203125</AltitudeMeters>
            <DistanceMeters>7636.5135481348</DistanceMeters>
          </Trackpoint>
          <Trackpoint>
            <Time>2022-07-04T08:22:50.000Z</Time>
            <Position>
              <LatitudeDegrees>44.85237699933350086212158203125</LatitudeDegrees>
              <LongitudeDegrees>-0.57335562072694301605224609375</LongitudeDegrees>
            </Position>
            <AltitudeMeters>1.2000000476837158203125</AltitudeMeters>
            <DistanceMeters>7658.6506938076</DistanceMeters>
          </Trackpoint>
          <Trackpoint>
            <Time>2022-07-04T08:22:55.000Z</Time>
            <Position>
              <LatitudeDegrees>44.85222528688609600067138671875</LatitudeDegrees>
              <LongitudeDegrees>-0.57340524159371852874755859375</LongitudeDegrees>
            </Position>
            <AltitudeMeters>1.39999997615814208984375</AltitudeMeters>
            <DistanceMeters>7675.9846709507</DistanceMeters>
          </Trackpoint>
          <Trackpoint>
            <Time>2022-07-04T08:22:59.000Z</Time>
            <Position>
              <LatitudeDegrees>44.85211816616356372833251953125</LatitudeDegrees>
              <LongitudeDegrees>-0.57350968010723590850830078125</LongitudeDegrees>
            </Position>
            <AltitudeMeters>1.39999997615814208984375</AltitudeMeters>
            <DistanceMeters>7690.4780362686</DistanceMeters>
          </Trackpoint>
          <Trackpoint>
            <Time>2022-07-04T08:23:00.000Z</Time>
            <Position>
              <LatitudeDegrees>44.8521075211465358734130859375</LatitudeDegrees>
              <LongitudeDegrees>-0.5735556967556476593017578125</LongitudeDegrees>
            </Position>
            <AltitudeMeters>1.39999997615814208984375</AltitudeMeters>
            <DistanceMeters>7694.298062909</DistanceMeters>
          </Trackpoint>
          <Trackpoint>
            <Time>2022-07-04T08:23:06.000Z</Time>
            <Position>
              <LatitudeDegrees>44.85202278010547161102294921875</LatitudeDegrees>
              <LongitudeDegrees>-0.573670528829097747802734375</LongitudeDegrees>
            </Position>
            <AltitudeMeters>1.7999999523162841796875</AltitudeMeters>
            <DistanceMeters>7707.3772742061</DistanceMeters>
          </Trackpoint>
          <Trackpoint>
            <Time>2022-07-04T08:23:14.000Z</Time>
            <Position>
              <LatitudeDegrees>44.8518198542296886444091796875</LatitudeDegrees>
              <LongitudeDegrees>-0.57381629012525081634521484375</LongitudeDegrees>
            </Position>
            <AltitudeMeters>1.7999999523162841796875</AltitudeMeters>
            <DistanceMeters>7732.7232344045</DistanceMeters>
          </Trackpoint>
          <Trackpoint>
            <Time>2022-07-04T08:23:15.000Z</Time>
            <Position>
              <LatitudeDegrees>44.8517994023859500885009765625</LatitudeDegrees>
              <LongitudeDegrees>-0.57382819242775440216064453125</LongitudeDegrees>
            </Position>
            <AltitudeMeters>1.60000002384185791015625</AltitudeMeters>
            <DistanceMeters>7735.1866083855</DistanceMeters>
          </Trackpoint>
          <Trackpoint>
            <Time>2022-07-04T08:23:27.000Z</Time>
            <Position>
              <LatitudeDegrees>44.851498492062091827392578125</LatitudeDegrees>
              <LongitudeDegrees>-0.57407394982874393463134765625</LongitudeDegrees>
            </Position>
            <AltitudeMeters>1.7999999523162841796875</AltitudeMeters>
            <DistanceMeters>7773.8873388586</DistanceMeters>
          </Trackpoint>
          <Trackpoint>
            <Time>2022-07-04T08:23:32.000Z</Time>
            <Position>
              <LatitudeDegrees>44.85137804411351680755615234375</LatitudeDegrees>
              <LongitudeDegrees>-0.574175454676151275634765625</LongitudeDegrees>
            </Position>
            <AltitudeMeters>1.60000002384185791015625</AltitudeMeters>
            <DistanceMeters>7789.5035562125</DistanceMeters>
          </Trackpoint>
          <Trackpoint>
            <Time>2022-07-04T08:23:37.000Z</Time>
            <Position>
              <LatitudeDegrees>44.85124535858631134033203125</LatitudeDegrees>
              <LongitudeDegrees>-0.57422901503741741180419921875</LongitudeDegrees>
            </Position>
            <AltitudeMeters>1.7999999523162841796875</AltitudeMeters>
            <DistanceMeters>7804.8644122265</DistanceMeters>
          </Trackpoint>
          <Trackpoint>
            <Time>2022-07-04T08:23:42.000Z</Time>
            <Position>
              <LatitudeDegrees>44.85105835832655429840087890625</LatitudeDegrees>
              <LongitudeDegrees>-0.57427276857197284698486328125</LongitudeDegrees>
            </Position>
            <AltitudeMeters>1</AltitudeMeters>
            <DistanceMeters>7825.9620549402</DistanceMeters>
          </Trackpoint>
          <Trackpoint>
            <Time>2022-07-04T08:23:49.000Z</Time>
            <Position>
              <LatitudeDegrees>44.85080136917531490325927734375</LatitudeDegrees>
              <LongitudeDegrees>-0.57438860647380352020263671875</LongitudeDegrees>
            </Position>
            <AltitudeMeters>1</AltitudeMeters>
            <DistanceMeters>7855.9901959622</DistanceMeters>
          </Trackpoint>
          <Trackpoint>
            <Time>2022-07-04T08:23:56.000Z</Time>
            <Position>
              <LatitudeDegrees>44.85062015242874622344970703125</LatitudeDegrees>
              <LongitudeDegrees>-0.57452405802905559539794921875</LongitudeDegrees>
            </Position>
            <AltitudeMeters>1</AltitudeMeters>
            <DistanceMeters>7878.816791656</DistanceMeters>
          </Trackpoint>
          <Trackpoint>
            <Time>2022-07-04T08:24:01.000Z</Time>
            <Position>
              <LatitudeDegrees>44.8504800908267498016357421875</LatitudeDegrees>
              <LongitudeDegrees>-0.5746010877192020416259765625</LongitudeDegrees>
            </Position>
            <AltitudeMeters>1</AltitudeMeters>
            <DistanceMeters>7895.5490506209</DistanceMeters>
          </Trackpoint>
          <Trackpoint>
            <Time>2022-07-04T08:24:06.000Z</Time>
            <Position>
              <LatitudeDegrees>44.85033877193927764892578125</LatitudeDegrees>
              <LongitudeDegrees>-0.5746711604297161102294921875</LongitudeDegrees>
            </Position>
            <AltitudeMeters>1</AltitudeMeters>
            <DistanceMeters>7912.2218390275</DistanceMeters>
          </Trackpoint>
          <Trackpoint>
            <Time>2022-07-04T08:24:09.000Z</Time>
            <Position>
              <LatitudeDegrees>44.8502576351165771484375</LatitudeDegrees>
              <LongitudeDegrees>-0.57471147738397121429443359375</LongitudeDegrees>
            </Position>
            <AltitudeMeters>1</AltitudeMeters>
            <DistanceMeters>7921.7964583964</DistanceMeters>
          </Trackpoint>
          <Trackpoint>
            <Time>2022-07-04T08:24:14.000Z</Time>
            <Position>
              <LatitudeDegrees>44.85014976002275943756103515625</LatitudeDegrees>
              <LongitudeDegrees>-0.57481407187879085540771484375</LongitudeDegrees>
            </Position>
            <AltitudeMeters>1</AltitudeMeters>
            <DistanceMeters>7936.2773573733</DistanceMeters>
          </Trackpoint>
          <Trackpoint>
            <Time>2022-07-04T08:24:16.000Z</Time>
            <Position>
              <LatitudeDegrees>44.85009779222309589385986328125</LatitudeDegrees>
              <LongitudeDegrees>-0.57484743185341358184814453125</LongitudeDegrees>
            </Position>
            <AltitudeMeters>1.2000000476837158203125</AltitudeMeters>
            <DistanceMeters>7942.6320801728</DistanceMeters>
          </Trackpoint>
          <Trackpoint>
            <Time>2022-07-04T08:24:23.000Z</Time>
            <Position>
              <LatitudeDegrees>44.849898554384708404541015625</LatitudeDegrees>
              <LongitudeDegrees>-0.57495539076626300811767578125</LongitudeDegrees>
            </Position>
            <AltitudeMeters>1.2000000476837158203125</AltitudeMeters>
            <DistanceMeters>7966.3876184173</DistanceMeters>
          </Trackpoint>
          <Trackpoint>
            <Time>2022-07-04T08:24:31.000Z</Time>
            <Position>
              <LatitudeDegrees>44.8496938683092594146728515625</LatitudeDegrees>
              <LongitudeDegrees>-0.57508430443704128265380859375</LongitudeDegrees>
            </Position>
            <AltitudeMeters>1.2000000476837158203125</AltitudeMeters>
            <DistanceMeters>7991.3375152055</DistanceMeters>
          </Trackpoint>
          <Trackpoint>
            <Time>2022-07-04T08:24:35.000Z</Time>
            <Position>
              <LatitudeDegrees>44.84964139759540557861328125</LatitudeDegrees>
              <LongitudeDegrees>-0.5752126313745975494384765625</LongitudeDegrees>
            </Position>
            <AltitudeMeters>1</AltitudeMeters>
            <DistanceMeters>8003.0273461207</DistanceMeters>
          </Trackpoint>
          <Trackpoint>
            <Time>2022-07-04T08:24:38.000Z</Time>
            <Position>
              <LatitudeDegrees>44.849637709558010101318359375</LatitudeDegrees>
              <LongitudeDegrees>-0.575215481221675872802734375</LongitudeDegrees>
            </Position>
            <AltitudeMeters>1.2000000476837158203125</AltitudeMeters>
            <DistanceMeters>8003.5118891916</DistanceMeters>
          </Trackpoint>
          <Trackpoint>
            <Time>2022-07-04T08:24:43.000Z</Time>
            <Position>
              <LatitudeDegrees>44.84959571622312068939208984375</LatitudeDegrees>
              <LongitudeDegrees>-0.57526032440364360809326171875</LongitudeDegrees>
            </Position>
            <AltitudeMeters>1.60000002384185791015625</AltitudeMeters>
            <DistanceMeters>8009.3743520653</DistanceMeters>
          </Trackpoint>
          <Trackpoint>
            <Time>2022-07-04T08:24:44.000Z</Time>
            <Position>
              <LatitudeDegrees>44.84957442618906497955322265625</LatitudeDegrees>
              <LongitudeDegrees>-0.57526954449713230133056640625</LongitudeDegrees>
            </Position>
            <AltitudeMeters>1.60000002384185791015625</AltitudeMeters>
            <DistanceMeters>8011.8541669895</DistanceMeters>
          </Trackpoint>
          <Trackpoint>
            <Time>2022-07-04T08:24:48.000Z</Time>
            <Position>
              <LatitudeDegrees>44.84951424412429332733154296875</LatitudeDegrees>
              <LongitudeDegrees>-0.5753162316977977752685546875</LongitudeDegrees>
            </Position>
            <AltitudeMeters>1.60000002384185791015625</AltitudeMeters>
            <DistanceMeters>8019.4989465642</DistanceMeters>
          </Trackpoint>
          <Trackpoint>
            <Time>2022-07-04T08:24:55.000Z</Time>
            <Position>
              <LatitudeDegrees>44.8493522219359874725341796875</LatitudeDegrees>
              <LongitudeDegrees>-0.57547221891582012176513671875</LongitudeDegrees>
            </Position>
            <AltitudeMeters>1.39999997615814208984375</AltitudeMeters>
            <DistanceMeters>8041.3327688505</DistanceMeters>
          </Trackpoint>
          <Trackpoint>
            <Time>2022-07-04T08:24:58.000Z</Time>
            <Position>
              <LatitudeDegrees>44.84933696687221527099609375</LatitudeDegrees>
              <LongitudeDegrees>-0.57551211677491664886474609375</LongitudeDegrees>
            </Position>
            <AltitudeMeters>1.39999997615814208984375</AltitudeMeters>
            <DistanceMeters>8044.9111271888</DistanceMeters>
          </Trackpoint>
          <Trackpoint>
            <Time>2022-07-04T08:24:59.000Z</Time>
            <Position>
              <LatitudeDegrees>44.8493341170251369476318359375</LatitudeDegrees>
              <LongitudeDegrees>-0.57553105987608432769775390625</LongitudeDegrees>
            </Position>
            <AltitudeMeters>1.39999997615814208984375</AltitudeMeters>
            <DistanceMeters>8046.4404374252</DistanceMeters>
          </Trackpoint>
          <Trackpoint>
            <Time>2022-07-04T08:25:00.000Z</Time>
            <Position>
              <LatitudeDegrees>44.84933420084416866302490234375</LatitudeDegrees>
              <LongitudeDegrees>-0.57555872015655040740966796875</LongitudeDegrees>
            </Position>
            <AltitudeMeters>1.60000002384185791015625</AltitudeMeters>
            <DistanceMeters>8048.6239850804</DistanceMeters>
          </Trackpoint>
          <Trackpoint>
            <Time>2022-07-04T08:25:04.000Z</Time>
            <Position>
              <LatitudeDegrees>44.849352054297924041748046875</LatitudeDegrees>
              <LongitudeDegrees>-0.57569048367440700531005859375</LongitudeDegrees>
            </Position>
            <AltitudeMeters>1.7999999523162841796875</AltitudeMeters>
            <DistanceMeters>8059.2095516024</DistanceMeters>
          </Trackpoint>
          <Trackpoint>
            <Time>2022-07-04T08:25:09.000Z</Time>
            <Position>
              <LatitudeDegrees>44.8493699915707111358642578125</LatitudeDegrees>
              <LongitudeDegrees>-0.5758302100002765655517578125</LongitudeDegrees>
            </Position>
            <AltitudeMeters>2</AltitudeMeters>
            <DistanceMeters>8070.4146478928</DistanceMeters>
          </Trackpoint>
          <Trackpoint>
            <Time>2022-07-04T08:25:11.000Z</Time>
            <Position>
              <LatitudeDegrees>44.84936806373298168182373046875</LatitudeDegrees>
              <LongitudeDegrees>-0.575875304639339447021484375</LongitudeDegrees>
            </Position>
            <AltitudeMeters>2</AltitudeMeters>
            <DistanceMeters>8073.9803662823</DistanceMeters>
          </Trackpoint>
          <Trackpoint>
            <Time>2022-07-04T08:25:15.000Z</Time>
            <Position>
              <LatitudeDegrees>44.849385917186737060546875</LatitudeDegrees>
              <LongitudeDegrees>-0.5759770609438419342041015625</LongitudeDegrees>
            </Position>
            <AltitudeMeters>2.2000000476837158203125</AltitudeMeters>
            <DistanceMeters>8082.2526041471</DistanceMeters>
          </Trackpoint>
          <Trackpoint>
            <Time>2022-07-04T08:25:18.000Z</Time>
            <Position>
              <LatitudeDegrees>44.849414415657520294189453125</LatitudeDegrees>
              <LongitudeDegrees>-0.57605911977589130401611328125</LongitudeDegrees>
            </Position>
            <AltitudeMeters>2.2000000476837158203125</AltitudeMeters>
            <DistanceMeters>8089.4621200817</DistanceMeters>
          </Trackpoint>
          <Trackpoint>
            <Time>2022-07-04T08:25:19.000Z</Time>
            <Position>
              <LatitudeDegrees>44.84942204318940639495849609375</LatitudeDegrees>
              <LongitudeDegrees>-0.57609113864600658416748046875</LongitudeDegrees>
            </Position>
            <AltitudeMeters>2.2000000476837158203125</AltitudeMeters>
            <DistanceMeters>8092.1262597336</DistanceMeters>
          </Trackpoint>
          <Trackpoint>
            <Time>2022-07-04T08:25:21.000Z</Time>
            <Position>
              <LatitudeDegrees>44.8494462668895721435546875</LatitudeDegrees>
              <LongitudeDegrees>-0.576169006526470184326171875</LongitudeDegrees>
            </Position>
            <AltitudeMeters>2.2000000476837158203125</AltitudeMeters>
            <DistanceMeters>8098.8362493871</DistanceMeters>
          </Trackpoint>
          <Trackpoint>
            <Time>2022-07-04T08:25:24.000Z</Time>
            <Position>
              <LatitudeDegrees>44.8494970612227916717529296875</LatitudeDegrees>
              <LongitudeDegrees>-0.57627570815384387969970703125</LongitudeDegrees>
            </Position>
            <AltitudeMeters>2.2000000476837158203125</AltitudeMeters>
            <DistanceMeters>8108.9783202197</DistanceMeters>
          </Trackpoint>
          <Trackpoint>
            <Time>2022-07-04T08:25:28.000Z</Time>
            <Position>
              <LatitudeDegrees>44.8495322652161121368408203125</LatitudeDegrees>
              <LongitudeDegrees>-0.57635868899524211883544921875</LongitudeDegrees>
            </Position>
            <AltitudeMeters>2.400000095367431640625</AltitudeMeters>
            <DistanceMeters>8116.6089121306</DistanceMeters>
          </Trackpoint>
          <Trackpoint>
            <Time>2022-07-04T08:25:33.000Z</Time>
            <Position>
              <LatitudeDegrees>44.84963896684348583221435546875</LatitudeDegrees>
              <LongitudeDegrees>-0.57662037201225757598876953125</LongitudeDegrees>
            </Position>
            <AltitudeMeters>2.400000095367431640625</AltitudeMeters>
            <DistanceMeters>8140.4295526239</DistanceMeters>
          </Trackpoint>
          <Trackpoint>
            <Time>2022-07-04T08:25:37.000Z</Time>
            <Position>
              <LatitudeDegrees>44.8497146554291248321533203125</LatitudeDegrees>
              <LongitudeDegrees>-0.57679253630340099334716796875</LongitudeDegrees>
            </Position>
            <AltitudeMeters>2.2000000476837158203125</AltitudeMeters>
            <DistanceMeters>8156.4146729905</DistanceMeters>
          </Trackpoint>
          <Trackpoint>
            <Time>2022-07-04T08:25:42.000Z</Time>
            <Position>
              <LatitudeDegrees>44.849782548844814300537109375</LatitudeDegrees>
              <LongitudeDegrees>-0.57701214216649532318115234375</LongitudeDegrees>
            </Position>
            <AltitudeMeters>2</AltitudeMeters>
            <DistanceMeters>8175.319496859</DistanceMeters>
          </Trackpoint>
          <Trackpoint>
            <Time>2022-07-04T08:25:48.000Z</Time>
            <Position>
              <LatitudeDegrees>44.8497682996094226837158203125</LatitudeDegrees>
              <LongitudeDegrees>-0.5772350169718265533447265625</LongitudeDegrees>
            </Position>
            <AltitudeMeters>2.2000000476837158203125</AltitudeMeters>
            <DistanceMeters>8192.9775981048</DistanceMeters>
          </Trackpoint>
          <Trackpoint>
            <Time>2022-07-04T08:25:53.000Z</Time>
            <Position>
              <LatitudeDegrees>44.84963309951126575469970703125</LatitudeDegrees>
              <LongitudeDegrees>-0.57735060341656208038330078125</LongitudeDegrees>
            </Position>
            <AltitudeMeters>2.2000000476837158203125</AltitudeMeters>
            <DistanceMeters>8210.5739696395</DistanceMeters>
          </Trackpoint>
          <Trackpoint>
            <Time>2022-07-04T08:25:58.000Z</Time>
            <Position>
              <LatitudeDegrees>44.8495714925229549407958984375</LatitudeDegrees>
              <LongitudeDegrees>-0.5773674510419368743896484375</LongitudeDegrees>
            </Position>
            <AltitudeMeters>3.2000000476837158203125</AltitudeMeters>
            <DistanceMeters>8217.5582715338</DistanceMeters>
          </Trackpoint>
          <Trackpoint>
            <Time>2022-07-04T08:26:03.000Z</Time>
            <Position>
              <LatitudeDegrees>44.84948909841477870941162109375</LatitudeDegrees>
              <LongitudeDegrees>-0.57738999836146831512451171875</LongitudeDegrees>
            </Position>
            <AltitudeMeters>3</AltitudeMeters>
            <DistanceMeters>8226.8994507248</DistanceMeters>
          </Trackpoint>
          <Trackpoint>
            <Time>2022-07-04T08:26:05.000Z</Time>
            <Position>
              <LatitudeDegrees>44.8494635336101055145263671875</LatitudeDegrees>
              <LongitudeDegrees>-0.5773905850946903228759765625</LongitudeDegrees>
            </Position>
            <AltitudeMeters>2.599999904632568359375</AltitudeMeters>
            <DistanceMeters>8229.7439099869</DistanceMeters>
          </Trackpoint>
          <Trackpoint>
            <Time>2022-07-04T08:26:13.000Z</Time>
            <Position>
              <LatitudeDegrees>44.8493652977049350738525390625</LatitudeDegrees>
              <LongitudeDegrees>-0.5774090252816677093505859375</LongitudeDegrees>
            </Position>
            <AltitudeMeters>1.7999999523162841796875</AltitudeMeters>
            <DistanceMeters>8240.7743791521</DistanceMeters>
          </Trackpoint>
          <Trackpoint>
            <Time>2022-07-04T08:26:15.000Z</Time>
            <Position>
              <LatitudeDegrees>44.84933772124350070953369140625</LatitudeDegrees>
              <LongitudeDegrees>-0.577418245375156402587890625</LongitudeDegrees>
            </Position>
            <AltitudeMeters>2</AltitudeMeters>
            <DistanceMeters>8243.930353537</DistanceMeters>
          </Trackpoint>
          <Trackpoint>
            <Time>2022-07-04T08:26:16.000Z</Time>
            <Position>
              <LatitudeDegrees>44.84932246617972850799560546875</LatitudeDegrees>
              <LongitudeDegrees>-0.57742285542190074920654296875</LongitudeDegrees>
            </Position>
            <AltitudeMeters>2</AltitudeMeters>
            <DistanceMeters>8245.6670301137</DistanceMeters>
          </Trackpoint>
          <Trackpoint>
            <Time>2022-07-04T08:26:20.000Z</Time>
            <Position>
              <LatitudeDegrees>44.8492613621056079864501953125</LatitudeDegrees>
              <LongitudeDegrees>-0.57739955373108386993408203125</LongitudeDegrees>
            </Position>
            <AltitudeMeters>2</AltitudeMeters>
            <DistanceMeters>8252.7118367212</DistanceMeters>
          </Trackpoint>
          <Trackpoint>
            <Time>2022-07-04T08:26:23.000Z</Time>
            <Position>
              <LatitudeDegrees>44.8492083884775638580322265625</LatitudeDegrees>
              <LongitudeDegrees>-0.57735412381589412689208984375</LongitudeDegrees>
            </Position>
            <AltitudeMeters>2</AltitudeMeters>
            <DistanceMeters>8259.6128962895</DistanceMeters>
          </Trackpoint>
          <Trackpoint>
            <Time>2022-07-04T08:26:27.000Z</Time>
            <Position>
              <LatitudeDegrees>44.849136136472225189208984375</LatitudeDegrees>
              <LongitudeDegrees>-0.57726494036614894866943359375</LongitudeDegrees>
            </Position>
            <AltitudeMeters>2</AltitudeMeters>
            <DistanceMeters>8270.2990717845</DistanceMeters>
          </Trackpoint>
          <Trackpoint>
            <Time>2022-07-04T08:26:33.000Z</Time>
            <Position>
              <LatitudeDegrees>44.84898559749126434326171875</LatitudeDegrees>
              <LongitudeDegrees>-0.57716469280421733856201171875</LongitudeDegrees>
            </Position>
            <AltitudeMeters>2</AltitudeMeters>
            <DistanceMeters>8288.8280627554</DistanceMeters>
          </Trackpoint>
          <Trackpoint>
            <Time>2022-07-04T08:26:41.000Z</Time>
            <Position>
              <LatitudeDegrees>44.8488318733870983123779296875</LatitudeDegrees>
              <LongitudeDegrees>-0.57704181410372257232666015625</LongitudeDegrees>
            </Position>
            <AltitudeMeters>2.2000000476837158203125</AltitudeMeters>
            <DistanceMeters>8308.4946901797</DistanceMeters>
          </Trackpoint>
          <Trackpoint>
            <Time>2022-07-04T08:26:46.000Z</Time>
            <Position>
              <LatitudeDegrees>44.848710000514984130859375</LatitudeDegrees>
              <LongitudeDegrees>-0.577023960649967193603515625</LongitudeDegrees>
            </Position>
            <AltitudeMeters>2</AltitudeMeters>
            <DistanceMeters>8322.1322652735</DistanceMeters>
          </Trackpoint>
          <Trackpoint>
            <Time>2022-07-04T08:26:49.000Z</Time>
            <Position>
              <LatitudeDegrees>44.84866213984787464141845703125</LatitudeDegrees>
              <LongitudeDegrees>-0.5770076997578144073486328125</LongitudeDegrees>
            </Position>
            <AltitudeMeters>2.2000000476837158203125</AltitudeMeters>
            <DistanceMeters>8327.6117729317</DistanceMeters>
          </Trackpoint>
          <Trackpoint>
            <Time>2022-07-04T08:26:55.000Z</Time>
            <Position>
              <LatitudeDegrees>44.84859625808894634246826171875</LatitudeDegrees>
              <LongitudeDegrees>-0.5769766867160797119140625</LongitudeDegrees>
            </Position>
            <AltitudeMeters>3</AltitudeMeters>
            <DistanceMeters>8335.3422998159</DistanceMeters>
          </Trackpoint>
          <Trackpoint>
            <Time>2022-07-04T08:27:03.000Z</Time>
            <Position>
              <LatitudeDegrees>44.848478995263576507568359375</LatitudeDegrees>
              <LongitudeDegrees>-0.57693301700055599212646484375</LongitudeDegrees>
            </Position>
            <AltitudeMeters>2.2000000476837158203125</AltitudeMeters>
            <DistanceMeters>8348.8411113399</DistanceMeters>
          </Trackpoint>
          <Trackpoint>
            <Time>2022-07-04T08:27:04.000Z</Time>
            <Position>
              <LatitudeDegrees>44.84846315346658229827880859375</LatitudeDegrees>
              <LongitudeDegrees>-0.57694257237017154693603515625</LongitudeDegrees>
            </Position>
            <AltitudeMeters>2.2000000476837158203125</AltitudeMeters>
            <DistanceMeters>8350.7582031772</DistanceMeters>
          </Trackpoint>
          <Trackpoint>
            <Time>2022-07-04T08:27:08.000Z</Time>
            <Position>
              <LatitudeDegrees>44.84841688536107540130615234375</LatitudeDegrees>
              <LongitudeDegrees>-0.57702488265931606292724609375</LongitudeDegrees>
            </Position>
            <AltitudeMeters>2.2000000476837158203125</AltitudeMeters>
            <DistanceMeters>8359.0467990526</DistanceMeters>
          </Trackpoint>
          <Trackpoint>
            <Time>2022-07-04T08:27:14.000Z</Time>
            <Position>
              <LatitudeDegrees>44.84842761419713497161865234375</LatitudeDegrees>
              <LongitudeDegrees>-0.5771783553063869476318359375</LongitudeDegrees>
            </Position>
            <AltitudeMeters>2.400000095367431640625</AltitudeMeters>
            <DistanceMeters>8371.2161562124</DistanceMeters>
          </Trackpoint>
          <Trackpoint>
            <Time>2022-07-04T08:27:18.000Z</Time>
            <Position>
              <LatitudeDegrees>44.84846315346658229827880859375</LatitudeDegrees>
              <LongitudeDegrees>-0.577292181551456451416015625</LongitudeDegrees>
            </Position>
            <AltitudeMeters>2.2000000476837158203125</AltitudeMeters>
            <DistanceMeters>8381.0310864467</DistanceMeters>
          </Trackpoint>
          <Trackpoint>
            <Time>2022-07-04T08:27:21.000Z</Time>
            <Position>
              <LatitudeDegrees>44.84850908629596233367919921875</LatitudeDegrees>
              <LongitudeDegrees>-0.57736183516681194305419921875</LongitudeDegrees>
            </Position>
            <AltitudeMeters>2.2000000476837158203125</AltitudeMeters>
            <DistanceMeters>8388.5375954229</DistanceMeters>
          </Trackpoint>
          <Trackpoint>
            <Time>2022-07-04T08:27:27.000Z</Time>
            <Position>
              <LatitudeDegrees>44.84857630915939807891845703125</LatitudeDegrees>
              <LongitudeDegrees>-0.57751740328967571258544921875</LongitudeDegrees>
            </Position>
            <AltitudeMeters>2</AltitudeMeters>
            <DistanceMeters>8402.9139784746</DistanceMeters>
          </Trackpoint>
          <Trackpoint>
            <Time>2022-07-04T08:27:32.000Z</Time>
            <Position>
              <LatitudeDegrees>44.84861369244754314422607421875</LatitudeDegrees>
              <LongitudeDegrees>-0.5776356719434261322021484375</LongitudeDegrees>
            </Position>
            <AltitudeMeters>1.7999999523162841796875</AltitudeMeters>
            <DistanceMeters>8413.1318913655</DistanceMeters>
          </Trackpoint>
          <Trackpoint>
            <Time>2022-07-04T08:27:33.000Z</Time>
            <Position>
              <LatitudeDegrees>44.848605729639530181884765625</LatitudeDegrees>
              <LongitudeDegrees>-0.57765570469200611114501953125</LongitudeDegrees>
            </Position>
            <AltitudeMeters>1.7999999523162841796875</AltitudeMeters>
            <DistanceMeters>8414.9448855258</DistanceMeters>
          </Trackpoint>
          <Trackpoint>
            <Time>2022-07-04T08:27:34.000Z</Time>
            <Position>
              <LatitudeDegrees>44.84859240241348743438720703125</LatitudeDegrees>
              <LongitudeDegrees>-0.57767079211771488189697265625</LongitudeDegrees>
            </Position>
            <AltitudeMeters>1.7999999523162841796875</AltitudeMeters>
            <DistanceMeters>8416.8454198132</DistanceMeters>
          </Trackpoint>
          <Trackpoint>
            <Time>2022-07-04T08:27:38.000Z</Time>
            <Position>
              <LatitudeDegrees>44.84850120730698108673095703125</LatitudeDegrees>
              <LongitudeDegrees>-0.57768655009567737579345703125</LongitudeDegrees>
            </Position>
            <AltitudeMeters>2</AltitudeMeters>
            <DistanceMeters>8427.0712833573</DistanceMeters>
          </Trackpoint>
          <Trackpoint>
            <Time>2022-07-04T08:27:45.000Z</Time>
            <Position>
              <LatitudeDegrees>44.8483571223914623260498046875</LatitudeDegrees>
              <LongitudeDegrees>-0.577703900635242462158203125</LongitudeDegrees>
            </Position>
            <AltitudeMeters>1.7999999523162841796875</AltitudeMeters>
            <DistanceMeters>8443.1667443044</DistanceMeters>
          </Trackpoint>
          <Trackpoint>
            <Time>2022-07-04T08:27:54.000Z</Time>
            <Position>
              <LatitudeDegrees>44.8481794260442256927490234375</LatitudeDegrees>
              <LongitudeDegrees>-0.5777084268629550933837890625</LongitudeDegrees>
            </Position>
            <AltitudeMeters>2</AltitudeMeters>
            <DistanceMeters>8462.9478280075</DistanceMeters>
          </Trackpoint>
          <Trackpoint>
            <Time>2022-07-04T08:28:03.000Z</Time>
            <Position>
              <LatitudeDegrees>44.8479963652789592742919921875</LatitudeDegrees>
              <LongitudeDegrees>-0.57777908630669116973876953125</LongitudeDegrees>
            </Position>
            <AltitudeMeters>2</AltitudeMeters>
            <DistanceMeters>8484.0719908916</DistanceMeters>
          </Trackpoint>
          <Trackpoint>
            <Time>2022-07-04T08:28:09.000Z</Time>
            <Position>
              <LatitudeDegrees>44.8478927649557590484619140625</LatitudeDegrees>
              <LongitudeDegrees>-0.57784848846495151519775390625</LongitudeDegrees>
            </Position>
            <AltitudeMeters>2.2000000476837158203125</AltitudeMeters>
            <DistanceMeters>8496.8374426857</DistanceMeters>
          </Trackpoint>
          <Trackpoint>
            <Time>2022-07-04T08:28:10.000Z</Time>
            <Position>
              <LatitudeDegrees>44.84787675552070140838623046875</LatitudeDegrees>
              <LongitudeDegrees>-0.57785938493907451629638671875</LongitudeDegrees>
            </Position>
            <AltitudeMeters>2.400000095367431640625</AltitudeMeters>
            <DistanceMeters>8498.8171025496</DistanceMeters>
          </Trackpoint>
          <Trackpoint>
            <Time>2022-07-04T08:28:17.000Z</Time>
            <Position>
              <LatitudeDegrees>44.8477496020495891571044921875</LatitudeDegrees>
              <LongitudeDegrees>-0.57796734385192394256591796875</LongitudeDegrees>
            </Position>
            <AltitudeMeters>2.599999904632568359375</AltitudeMeters>
            <DistanceMeters>8515.3356321424</DistanceMeters>
          </Trackpoint>
          <Trackpoint>
            <Time>2022-07-04T08:28:22.000Z</Time>
            <Position>
              <LatitudeDegrees>44.8476902581751346588134765625</LatitudeDegrees>
              <LongitudeDegrees>-0.578059963881969451904296875</LongitudeDegrees>
            </Position>
            <AltitudeMeters>2.7999999523162841796875</AltitudeMeters>
            <DistanceMeters>8525.1872950284</DistanceMeters>
          </Trackpoint>
          <Trackpoint>
            <Time>2022-07-04T08:28:23.000Z</Time>
            <Position>
              <LatitudeDegrees>44.84768967144191265106201171875</LatitudeDegrees>
              <LongitudeDegrees>-0.57809256948530673980712890625</LongitudeDegrees>
            </Position>
            <AltitudeMeters>3</AltitudeMeters>
            <DistanceMeters>8527.7618000507</DistanceMeters>
          </Trackpoint>
          <Trackpoint>
            <Time>2022-07-04T08:28:30.000Z</Time>
            <Position>
              <LatitudeDegrees>44.84772370196878910064697265625</LatitudeDegrees>
              <LongitudeDegrees>-0.57831888087093830108642578125</LongitudeDegrees>
            </Position>
            <AltitudeMeters>3.2000000476837158203125</AltitudeMeters>
            <DistanceMeters>8546.0178144403</DistanceMeters>
          </Trackpoint>
          <Trackpoint>
            <Time>2022-07-04T08:28:33.000Z</Time>
            <Position>
              <LatitudeDegrees>44.847746752202510833740234375</LatitudeDegrees>
              <LongitudeDegrees>-0.57842466048896312713623046875</LongitudeDegrees>
            </Position>
            <AltitudeMeters>3.2000000476837158203125</AltitudeMeters>
            <DistanceMeters>8554.7499370627</DistanceMeters>
          </Trackpoint>
          <Trackpoint>
            <Time>2022-07-04T08:28:38.000Z</Time>
            <Position>
              <LatitudeDegrees>44.84781372360885143280029296875</LatitudeDegrees>
              <LongitudeDegrees>-0.57857939042150974273681640625</LongitudeDegrees>
            </Position>
            <AltitudeMeters>3.2000000476837158203125</AltitudeMeters>
            <DistanceMeters>8569.0554822271</DistanceMeters>
          </Trackpoint>
          <Trackpoint>
            <Time>2022-07-04T08:28:41.000Z</Time>
            <Position>
              <LatitudeDegrees>44.84787625260651111602783203125</LatitudeDegrees>
              <LongitudeDegrees>-0.57865868322551250457763671875</LongitudeDegrees>
            </Position>
            <AltitudeMeters>3</AltitudeMeters>
            <DistanceMeters>8578.4140457616</DistanceMeters>
          </Trackpoint>
          <Trackpoint>
            <Time>2022-07-04T08:28:46.000Z</Time>
            <Position>
              <LatitudeDegrees>44.847990162670612335205078125</LatitudeDegrees>
              <LongitudeDegrees>-0.57875842787325382232666015625</LongitudeDegrees>
            </Position>
            <AltitudeMeters>3</AltitudeMeters>
            <DistanceMeters>8593.3371736261</DistanceMeters>
          </Trackpoint>
          <Trackpoint>
            <Time>2022-07-04T08:28:52.000Z</Time>
            <Position>
              <LatitudeDegrees>44.8481301404535770416259765625</LatitudeDegrees>
              <LongitudeDegrees>-0.57880553416907787322998046875</LongitudeDegrees>
            </Position>
            <AltitudeMeters>2.599999904632568359375</AltitudeMeters>
            <DistanceMeters>8609.3541793317</DistanceMeters>
          </Trackpoint>
          <Trackpoint>
            <Time>2022-07-04T08:29:00.000Z</Time>
            <Position>
              <LatitudeDegrees>44.84829886816442012786865234375</LatitudeDegrees>
              <LongitudeDegrees>-0.57879597879946231842041015625</LongitudeDegrees>
            </Position>
            <AltitudeMeters>2.400000095367431640625</AltitudeMeters>
            <DistanceMeters>8628.1488203322</DistanceMeters>
          </Trackpoint>
          <Trackpoint>
            <Time>2022-07-04T08:29:02.000Z</Time>
            <Position>
              <LatitudeDegrees>44.84832082875072956085205078125</LatitudeDegrees>
              <LongitudeDegrees>-0.5788064561784267425537109375</LongitudeDegrees>
            </Position>
            <AltitudeMeters>2.2000000476837158203125</AltitudeMeters>
            <DistanceMeters>8630.7303308233</DistanceMeters>
          </Trackpoint>
          <Trackpoint>
            <Time>2022-07-04T08:29:04.000Z</Time>
            <Position>
              <LatitudeDegrees>44.848330803215503692626953125</LatitudeDegrees>
              <LongitudeDegrees>-0.5788145028054714202880859375</LongitudeDegrees>
            </Position>
            <AltitudeMeters>2</AltitudeMeters>
            <DistanceMeters>8632.0087845128</DistanceMeters>
          </Trackpoint>
          <Trackpoint>
            <Time>2022-07-04T08:29:10.000Z</Time>
            <Position>
              <LatitudeDegrees>44.84831948764622211456298828125</LatitudeDegrees>
              <LongitudeDegrees>-0.57881534099578857421875</LongitudeDegrees>
            </Position>
            <AltitudeMeters>1.7999999523162841796875</AltitudeMeters>
            <DistanceMeters>8633.2694563393</DistanceMeters>
          </Trackpoint>
          <Trackpoint>
            <Time>2022-07-04T08:29:16.000Z</Time>
            <Position>
              <LatitudeDegrees>44.84832116402685642242431640625</LatitudeDegrees>
              <LongitudeDegrees>-0.57881676591932773590087890625</LongitudeDegrees>
            </Position>
            <AltitudeMeters>2</AltitudeMeters>
            <DistanceMeters>8633.4819425323</DistanceMeters>
          </Trackpoint>
          <Trackpoint>
            <Time>2022-07-04T08:39:40.000Z</Time>
            <Position>
              <LatitudeDegrees>44.84822519123554229736328125</LatitudeDegrees>
              <LongitudeDegrees>-0.57891030795872211456298828125</LongitudeDegrees>
            </Position>
            <AltitudeMeters>1</AltitudeMeters>
            <DistanceMeters>8646.4655270549</DistanceMeters>
          </Trackpoint>
          <Trackpoint>
            <Time>2022-07-04T08:39:46.000Z</Time>
            <Position>
              <LatitudeDegrees>44.8480935953557491302490234375</LatitudeDegrees>
              <LongitudeDegrees>-0.57884576730430126190185546875</LongitudeDegrees>
            </Position>
            <AltitudeMeters>1.60000002384185791015625</AltitudeMeters>
            <DistanceMeters>8661.9726523753</DistanceMeters>
          </Trackpoint>
          <Trackpoint>
            <Time>2022-07-04T08:39:47.000Z</Time>
            <Position>
              <LatitudeDegrees>44.8480694554746150970458984375</LatitudeDegrees>
              <LongitudeDegrees>-0.57883881032466888427734375</LongitudeDegrees>
            </Position>
            <AltitudeMeters>1.60000002384185791015625</AltitudeMeters>
            <DistanceMeters>8664.7152886396</DistanceMeters>
          </Trackpoint>
          <Trackpoint>
            <Time>2022-07-04T08:39:55.000Z</Time>
            <Position>
              <LatitudeDegrees>44.84788455069065093994140625</LatitudeDegrees>
              <LongitudeDegrees>-0.578713081777095794677734375</LongitudeDegrees>
            </Position>
            <AltitudeMeters>1.7999999523162841796875</AltitudeMeters>
            <DistanceMeters>8687.5620507464</DistanceMeters>
          </Trackpoint>
          <Trackpoint>
            <Time>2022-07-04T08:39:57.000Z</Time>
            <Position>
              <LatitudeDegrees>44.8478414677083492279052734375</LatitudeDegrees>
              <LongitudeDegrees>-0.57867276482284069061279296875</LongitudeDegrees>
            </Position>
            <AltitudeMeters>1.7999999523162841796875</AltitudeMeters>
            <DistanceMeters>8693.3164656011</DistanceMeters>
          </Trackpoint>
          <Trackpoint>
            <Time>2022-07-04T08:39:59.000Z</Time>
            <Position>
              <LatitudeDegrees>44.84780408442020416259765625</LatitudeDegrees>
              <LongitudeDegrees>-0.5786166898906230926513671875</LongitudeDegrees>
            </Position>
            <AltitudeMeters>1.7999999523162841796875</AltitudeMeters>
            <DistanceMeters>8699.390746822</DistanceMeters>
          </Trackpoint>
          <Trackpoint>
            <Time>2022-07-04T08:40:00.000Z</Time>
            <Position>
              <LatitudeDegrees>44.84778237529098987579345703125</LatitudeDegrees>
              <LongitudeDegrees>-0.57859296910464763641357421875</LongitudeDegrees>
            </Position>
            <AltitudeMeters>1.7999999523162841796875</AltitudeMeters>
            <DistanceMeters>8702.446413532</DistanceMeters>
          </Trackpoint>
          <Trackpoint>
            <Time>2022-07-04T08:40:02.000Z</Time>
            <Position>
              <LatitudeDegrees>44.8477452434599399566650390625</LatitudeDegrees>
              <LongitudeDegrees>-0.578539073467254638671875</LongitudeDegrees>
            </Position>
            <AltitudeMeters>1.7999999523162841796875</AltitudeMeters>
            <DistanceMeters>8708.3762632496</DistanceMeters>
          </Trackpoint>
          <Trackpoint>
            <Time>2022-07-04T08:40:04.000Z</Time>
            <Position>
              <LatitudeDegrees>44.8477177508175373077392578125</LatitudeDegrees>
              <LongitudeDegrees>-0.578475706279277801513671875</LongitudeDegrees>
            </Position>
            <AltitudeMeters>1.7999999523162841796875</AltitudeMeters>
            <DistanceMeters>8714.2387261233</DistanceMeters>
          </Trackpoint>
          <Trackpoint>
            <Time>2022-07-04T08:40:13.000Z</Time>
            <Position>
              <LatitudeDegrees>44.84760702587664127349853515625</LatitudeDegrees>
              <LongitudeDegrees>-0.5781890451908111572265625</LongitudeDegrees>
            </Position>
            <AltitudeMeters>2</AltitudeMeters>
            <DistanceMeters>8739.9986789083</DistanceMeters>
          </Trackpoint>
          <Trackpoint>
            <Time>2022-07-04T08:40:20.000Z</Time>
            <Position>
              <LatitudeDegrees>44.8475551418960094451904296875</LatitudeDegrees>
              <LongitudeDegrees>-0.57795292697846889495849609375</LongitudeDegrees>
            </Position>
            <AltitudeMeters>1.60000002384185791015625</AltitudeMeters>
            <DistanceMeters>8759.5053280617</DistanceMeters>
          </Trackpoint>
          <Trackpoint>
            <Time>2022-07-04T08:40:26.000Z</Time>
            <Position>
              <LatitudeDegrees>44.84749638475477695465087890625</LatitudeDegrees>
              <LongitudeDegrees>-0.577789060771465301513671875</LongitudeDegrees>
            </Position>
            <AltitudeMeters>1</AltitudeMeters>
            <DistanceMeters>8773.9962009695</DistanceMeters>
          </Trackpoint>
          <Trackpoint>
            <Time>2022-07-04T08:40:29.000Z</Time>
            <Position>
              <LatitudeDegrees>44.84746520407497882843017578125</LatitudeDegrees>
              <LongitudeDegrees>-0.57770431973040103912353515625</LongitudeDegrees>
            </Position>
            <AltitudeMeters>0.800000011920928955078125</AltitudeMeters>
            <DistanceMeters>8781.5303273639</DistanceMeters>
          </Trackpoint>
          <Trackpoint>
            <Time>2022-07-04T08:40:32.000Z</Time>
            <Position>
              <LatitudeDegrees>44.84744844026863574981689453125</LatitudeDegrees>
              <LongitudeDegrees>-0.57763516902923583984375</LongitudeDegrees>
            </Position>
            <AltitudeMeters>1</AltitudeMeters>
            <DistanceMeters>8787.2972825001</DistanceMeters>
          </Trackpoint>
          <Trackpoint>
            <Time>2022-07-04T08:40:33.000Z</Time>
            <Position>
              <LatitudeDegrees>44.84744776971638202667236328125</LatitudeDegrees>
              <LongitudeDegrees>-0.57761295698583126068115234375</LongitudeDegrees>
            </Position>
            <AltitudeMeters>1</AltitudeMeters>
            <DistanceMeters>8789.0494885356</DistanceMeters>
          </Trackpoint>
          <Trackpoint>
            <Time>2022-07-04T08:40:40.000Z</Time>
            <Position>
              <LatitudeDegrees>44.84739731065928936004638671875</LatitudeDegrees>
              <LongitudeDegrees>-0.5774541199207305908203125</LongitudeDegrees>
            </Position>
            <AltitudeMeters>1.2000000476837158203125</AltitudeMeters>
            <DistanceMeters>8802.7847117616</DistanceMeters>
          </Trackpoint>
          <Trackpoint>
            <Time>2022-07-04T08:40:42.000Z</Time>
            <Position>
              <LatitudeDegrees>44.84738222323358058929443359375</LatitudeDegrees>
              <LongitudeDegrees>-0.577418915927410125732421875</LongitudeDegrees>
            </Position>
            <AltitudeMeters>1.2000000476837158203125</AltitudeMeters>
            <DistanceMeters>8806.0323461755</DistanceMeters>
          </Trackpoint>
          <Trackpoint>
            <Time>2022-07-04T08:40:45.000Z</Time>
            <Position>
              <LatitudeDegrees>44.847361184656620025634765625</LatitudeDegrees>
              <LongitudeDegrees>-0.57734775356948375701904296875</LongitudeDegrees>
            </Position>
            <AltitudeMeters>1.2000000476837158203125</AltitudeMeters>
            <DistanceMeters>8812.1155405064</DistanceMeters>
          </Trackpoint>
          <Trackpoint>
            <Time>2022-07-04T08:40:54.000Z</Time>
            <Position>
              <LatitudeDegrees>44.847332350909709930419921875</LatitudeDegrees>
              <LongitudeDegrees>-0.5771297402679920196533203125</LongitudeDegrees>
            </Position>
            <AltitudeMeters>1.7999999523162841796875</AltitudeMeters>
            <DistanceMeters>8829.6159425781</DistanceMeters>
          </Trackpoint>
          <Trackpoint>
            <Time>2022-07-04T08:40:59.000Z</Time>
            <Position>
              <LatitudeDegrees>44.84730108641088008880615234375</LatitudeDegrees>
              <LongitudeDegrees>-0.5770160816609859466552734375</LongitudeDegrees>
            </Position>
            <AltitudeMeters>2.2000000476837158203125</AltitudeMeters>
            <DistanceMeters>8839.2361948344</DistanceMeters>
          </Trackpoint>
          <Trackpoint>
            <Time>2022-07-04T08:41:00.000Z</Time>
            <Position>
              <LatitudeDegrees>44.84729312360286712646484375</LatitudeDegrees>
              <LongitudeDegrees>-0.57699537836015224456787109375</LongitudeDegrees>
            </Position>
            <AltitudeMeters>2.2000000476837158203125</AltitudeMeters>
            <DistanceMeters>8841.0959042951</DistanceMeters>
          </Trackpoint>
          <Trackpoint>
            <Time>2022-07-04T08:41:06.000Z</Time>
            <Position>
              <LatitudeDegrees>44.84726353548467159271240234375</LatitudeDegrees>
              <LongitudeDegrees>-0.57688557542860507965087890625</LongitudeDegrees>
            </Position>
            <AltitudeMeters>2</AltitudeMeters>
            <DistanceMeters>8850.3657590642</DistanceMeters>
          </Trackpoint>
          <Trackpoint>
            <Time>2022-07-04T08:41:11.000Z</Time>
            <Position>
              <LatitudeDegrees>44.847243838012218475341796875</LatitudeDegrees>
              <LongitudeDegrees>-0.57686269283294677734375</LongitudeDegrees>
            </Position>
            <AltitudeMeters>1.7999999523162841796875</AltitudeMeters>
            <DistanceMeters>8853.207041933</DistanceMeters>
          </Trackpoint>
          <Trackpoint>
            <Time>2022-07-04T08:41:13.000Z</Time>
            <Position>
              <LatitudeDegrees>44.84721274115145206451416015625</LatitudeDegrees>
              <LongitudeDegrees>-0.5768578313291072845458984375</LongitudeDegrees>
            </Position>
            <AltitudeMeters>1.7999999523162841796875</AltitudeMeters>
            <DistanceMeters>8856.6907788262</DistanceMeters>
          </Trackpoint>
          <Trackpoint>
            <Time>2022-07-04T08:41:16.000Z</Time>
            <Position>
              <LatitudeDegrees>44.8471628688275814056396484375</LatitudeDegrees>
              <LongitudeDegrees>-0.57688104920089244842529296875</LongitudeDegrees>
            </Position>
            <AltitudeMeters>1.7999999523162841796875</AltitudeMeters>
            <DistanceMeters>8862.5378181981</DistanceMeters>
          </Trackpoint>
          <Trackpoint>
            <Time>2022-07-04T08:41:20.000Z</Time>
            <Position>
              <LatitudeDegrees>44.84707091934978961944580078125</LatitudeDegrees>
              <LongitudeDegrees>-0.57691566646099090576171875</LongitudeDegrees>
            </Position>
            <AltitudeMeters>1.7999999523162841796875</AltitudeMeters>
            <DistanceMeters>8873.1306332108</DistanceMeters>
          </Trackpoint>
          <Trackpoint>
            <Time>2022-07-04T08:41:25.000Z</Time>
            <Position>
              <LatitudeDegrees>44.8469140939414501190185546875</LatitudeDegrees>
              <LongitudeDegrees>-0.57696822099387645721435546875</LongitudeDegrees>
            </Position>
            <AltitudeMeters>1.7999999523162841796875</AltitudeMeters>
            <DistanceMeters>8891.0718178127</DistanceMeters>
          </Trackpoint>
          <Trackpoint>
            <Time>2022-07-04T08:41:26.000Z</Time>
            <Position>
              <LatitudeDegrees>44.84689221717417240142822265625</LatitudeDegrees>
              <LongitudeDegrees>-0.57697467505931854248046875</LongitudeDegrees>
            </Position>
            <AltitudeMeters>1.7999999523162841796875</AltitudeMeters>
            <DistanceMeters>8893.557088882</DistanceMeters>
          </Trackpoint>
          <Trackpoint>
            <Time>2022-07-04T08:41:32.000Z</Time>
            <Position>
              <LatitudeDegrees>44.8467182926833629608154296875</LatitudeDegrees>
              <LongitudeDegrees>-0.57703636586666107177734375</LongitudeDegrees>
            </Position>
            <AltitudeMeters>2</AltitudeMeters>
            <DistanceMeters>8913.5179020652</DistanceMeters>
          </Trackpoint>
          <Trackpoint>
            <Time>2022-07-04T08:41:36.000Z</Time>
            <Position>
              <LatitudeDegrees>44.8466187156736850738525390625</LatitudeDegrees>
              <LongitudeDegrees>-0.577061511576175689697265625</LongitudeDegrees>
            </Position>
            <AltitudeMeters>2.2000000476837158203125</AltitudeMeters>
            <DistanceMeters>8924.7776655296</DistanceMeters>
          </Trackpoint>
          <Trackpoint>
            <Time>2022-07-04T08:41:38.000Z</Time>
            <Position>
              <LatitudeDegrees>44.84656834043562412261962890625</LatitudeDegrees>
              <LongitudeDegrees>-0.5770653672516345977783203125</LongitudeDegrees>
            </Position>
            <AltitudeMeters>2.2000000476837158203125</AltitudeMeters>
            <DistanceMeters>8930.3930931128</DistanceMeters>
          </Trackpoint>
          <Trackpoint>
            <Time>2022-07-04T08:41:42.000Z</Time>
            <Position>
              <LatitudeDegrees>44.8464671708643436431884765625</LatitudeDegrees>
              <LongitudeDegrees>-0.5771522037684917449951171875</LongitudeDegrees>
            </Position>
            <AltitudeMeters>2.599999904632568359375</AltitudeMeters>
            <DistanceMeters>8943.5747747557</DistanceMeters>
          </Trackpoint>
          <Trackpoint>
            <Time>2022-07-04T08:41:45.000Z</Time>
            <Position>
              <LatitudeDegrees>44.84639299102127552032470703125</LatitudeDegrees>
              <LongitudeDegrees>-0.577211715281009674072265625</LongitudeDegrees>
            </Position>
            <AltitudeMeters>2.7999999523162841796875</AltitudeMeters>
            <DistanceMeters>8953.0736443636</DistanceMeters>
          </Trackpoint>
          <Trackpoint>
            <Time>2022-07-04T08:41:52.000Z</Time>
            <Position>
              <LatitudeDegrees>44.8462277837097644805908203125</LatitudeDegrees>
              <LongitudeDegrees>-0.57733987458050251007080078125</LongitudeDegrees>
            </Position>
            <AltitudeMeters>3</AltitudeMeters>
            <DistanceMeters>8974.0592782157</DistanceMeters>
          </Trackpoint>
          <Trackpoint>
            <Time>2022-07-04T08:41:56.000Z</Time>
            <Position>
              <LatitudeDegrees>44.84613549895584583282470703125</LatitudeDegrees>
              <LongitudeDegrees>-0.57739787735044956207275390625</LongitudeDegrees>
            </Position>
            <AltitudeMeters>3</AltitudeMeters>
            <DistanceMeters>8985.3045968204</DistanceMeters>
          </Trackpoint>
          <Trackpoint>
            <Time>2022-07-04T08:42:00.000Z</Time>
            <Position>
              <LatitudeDegrees>44.84605771489441394805908203125</LatitudeDegrees>
              <LongitudeDegrees>-0.57745303027331829071044921875</LongitudeDegrees>
            </Position>
            <AltitudeMeters>3.2000000476837158203125</AltitudeMeters>
            <DistanceMeters>8994.9945263797</DistanceMeters>
          </Trackpoint>
          <Trackpoint>
            <Time>2022-07-04T08:42:02.000Z</Time>
            <Position>
              <LatitudeDegrees>44.846006669104099273681640625</LatitudeDegrees>
              <LongitudeDegrees>-0.57745872996747493743896484375</LongitudeDegrees>
            </Position>
            <AltitudeMeters>3.400000095367431640625</AltitudeMeters>
            <DistanceMeters>9000.6945452433</DistanceMeters>
          </Trackpoint>
          <Trackpoint>
            <Time>2022-07-04T08:42:07.000Z</Time>
            <Position>
              <LatitudeDegrees>44.8459166474640369415283203125</LatitudeDegrees>
              <LongitudeDegrees>-0.57746417820453643798828125</LongitudeDegrees>
            </Position>
            <AltitudeMeters>3.599999904632568359375</AltitudeMeters>
            <DistanceMeters>9010.7233533196</DistanceMeters>
          </Trackpoint>
          <Trackpoint>
            <Time>2022-07-04T08:42:08.000Z</Time>
            <Position>
              <LatitudeDegrees>44.845898039638996124267578125</LatitudeDegrees>
              <LongitudeDegrees>-0.57746610604226589202880859375</LongitudeDegrees>
            </Position>
            <AltitudeMeters>3.599999904632568359375</AltitudeMeters>
            <DistanceMeters>9012.8009424369</DistanceMeters>
          </Trackpoint>
          <Trackpoint>
            <Time>2022-07-04T08:42:10.000Z</Time>
            <Position>
              <LatitudeDegrees>44.8458723910152912139892578125</LatitudeDegrees>
              <LongitudeDegrees>-0.57749242521822452545166015625</LongitudeDegrees>
            </Position>
            <AltitudeMeters>3.7999999523162841796875</AltitudeMeters>
            <DistanceMeters>9016.3323069846</DistanceMeters>
          </Trackpoint>
          <Trackpoint>
            <Time>2022-07-04T08:42:12.000Z</Time>
            <Position>
              <LatitudeDegrees>44.8458378575742244720458984375</LatitudeDegrees>
              <LongitudeDegrees>-0.57752092368900775909423828125</LongitudeDegrees>
            </Position>
            <AltitudeMeters>3.7999999523162841796875</AltitudeMeters>
            <DistanceMeters>9020.7854011753</DistanceMeters>
          </Trackpoint>
          <Trackpoint>
            <Time>2022-07-04T08:42:14.000Z</Time>
            <Position>
              <LatitudeDegrees>44.845802150666713714599609375</LatitudeDegrees>
              <LongitudeDegrees>-0.57755109854042530059814453125</LongitudeDegrees>
            </Position>
            <AltitudeMeters>3.7999999523162841796875</AltitudeMeters>
            <DistanceMeters>9025.4183798831</DistanceMeters>
          </Trackpoint>
          <Trackpoint>
            <Time>2022-07-04T08:42:16.000Z</Time>
            <Position>
              <LatitudeDegrees>44.84577373601496219635009765625</LatitudeDegrees>
              <LongitudeDegrees>-0.57759158313274383544921875</LongitudeDegrees>
            </Position>
            <AltitudeMeters>4</AltitudeMeters>
            <DistanceMeters>9029.9138566189</DistanceMeters>
          </Trackpoint>
          <Trackpoint>
            <Time>2022-07-04T08:42:19.000Z</Time>
            <Position>
              <LatitudeDegrees>44.8457228578627109527587890625</LatitudeDegrees>
              <LongitudeDegrees>-0.57766140438616275787353515625</LongitudeDegrees>
            </Position>
            <AltitudeMeters>4.19999980926513671875</AltitudeMeters>
            <DistanceMeters>9037.8153722035</DistanceMeters>
          </Trackpoint>
          <Trackpoint>
            <Time>2022-07-04T08:42:21.000Z</Time>
            <Position>
              <LatitudeDegrees>44.845674745738506317138671875</LatitudeDegrees>
              <LongitudeDegrees>-0.577685795724391937255859375</LongitudeDegrees>
            </Position>
            <AltitudeMeters>4.19999980926513671875</AltitudeMeters>
            <DistanceMeters>9043.5050843273</DistanceMeters>
          </Trackpoint>
          <Trackpoint>
            <Time>2022-07-04T08:42:25.000Z</Time>
            <Position>
              <LatitudeDegrees>44.84556083567440509796142578125</LatitudeDegrees>
              <LongitudeDegrees>-0.577722676098346710205078125</LongitudeDegrees>
            </Position>
            <AltitudeMeters>4.400000095367431640625</AltitudeMeters>
            <DistanceMeters>9056.5133356503</DistanceMeters>
          </Trackpoint>
          <Trackpoint>
            <Time>2022-07-04T08:42:29.000Z</Time>
            <Position>
              <LatitudeDegrees>44.8454589955508708953857421875</LatitudeDegrees>
              <LongitudeDegrees>-0.57777036912739276885986328125</LongitudeDegrees>
            </Position>
            <AltitudeMeters>4.80000019073486328125</AltitudeMeters>
            <DistanceMeters>9068.4572524141</DistanceMeters>
          </Trackpoint>
          <Trackpoint>
            <Time>2022-07-04T08:42:31.000Z</Time>
            <Position>
              <LatitudeDegrees>44.8454100452363491058349609375</LatitudeDegrees>
              <LongitudeDegrees>-0.5777813494205474853515625</LongitudeDegrees>
            </Position>
            <AltitudeMeters>4.80000019073486328125</AltitudeMeters>
            <DistanceMeters>9073.9737148328</DistanceMeters>
          </Trackpoint>
          <Trackpoint>
            <Time>2022-07-04T08:42:33.000Z</Time>
            <Position>
              <LatitudeDegrees>44.84538716264069080352783203125</LatitudeDegrees>
              <LongitudeDegrees>-0.57793281041085720062255859375</LongitudeDegrees>
            </Position>
            <AltitudeMeters>5</AltitudeMeters>
            <DistanceMeters>9086.1941650794</DistanceMeters>
          </Trackpoint>
          <Trackpoint>
            <Time>2022-07-04T08:42:37.000Z</Time>
            <Position>
              <LatitudeDegrees>44.84535933472216129302978515625</LatitudeDegrees>
              <LongitudeDegrees>-0.57810120284557342529296875</LongitudeDegrees>
            </Position>
            <AltitudeMeters>5</AltitudeMeters>
            <DistanceMeters>9099.8383600343</DistanceMeters>
          </Trackpoint>
          <Trackpoint>
            <Time>2022-07-04T08:42:42.000Z</Time>
            <Position>
              <LatitudeDegrees>44.84528171829879283905029296875</LatitudeDegrees>
              <LongitudeDegrees>-0.5782227404415607452392578125</LongitudeDegrees>
            </Position>
            <AltitudeMeters>5.19999980926513671875</AltitudeMeters>
            <DistanceMeters>9112.7466120672</DistanceMeters>
          </Trackpoint>
          <Trackpoint>
            <Time>2022-07-04T08:42:46.000Z</Time>
            <Position>
              <LatitudeDegrees>44.845215417444705963134765625</LatitudeDegrees>
              <LongitudeDegrees>-0.5782847665250301361083984375</LongitudeDegrees>
            </Position>
            <AltitudeMeters>5.19999980926513671875</AltitudeMeters>
            <DistanceMeters>9121.6019598209</DistanceMeters>
          </Trackpoint>
          <Trackpoint>
            <Time>2022-07-04T08:42:49.000Z</Time>
            <Position>
              <LatitudeDegrees>44.8451585881412029266357421875</LatitudeDegrees>
              <LongitudeDegrees>-0.57829675264656543731689453125</LongitudeDegrees>
            </Position>
            <AltitudeMeters>5.400000095367431640625</AltitudeMeters>
            <DistanceMeters>9127.9977589337</DistanceMeters>
          </Trackpoint>
          <Trackpoint>
            <Time>2022-07-04T08:42:52.000Z</Time>
            <Position>
              <LatitudeDegrees>44.84510041773319244384765625</LatitudeDegrees>
              <LongitudeDegrees>-0.5783072300255298614501953125</LongitudeDegrees>
            </Position>
            <AltitudeMeters>5.599999904632568359375</AltitudeMeters>
            <DistanceMeters>9134.5249252915</DistanceMeters>
          </Trackpoint>
          <Trackpoint>
            <Time>2022-07-04T08:42:59.000Z</Time>
            <Position>
              <LatitudeDegrees>44.84498634003102779388427734375</LatitudeDegrees>
              <LongitudeDegrees>-0.5782539211213588714599609375</LongitudeDegrees>
            </Position>
            <AltitudeMeters>6</AltitudeMeters>
            <DistanceMeters>9147.9010956949</DistanceMeters>
          </Trackpoint>
          <Trackpoint>
            <Time>2022-07-04T08:43:03.000Z</Time>
            <Position>
              <LatitudeDegrees>44.84494091011583805084228515625</LatitudeDegrees>
              <LongitudeDegrees>-0.57820740155875682830810546875</LongitudeDegrees>
            </Position>
            <AltitudeMeters>6</AltitudeMeters>
            <DistanceMeters>9154.1497795998</DistanceMeters>
          </Trackpoint>
          <Trackpoint>
            <Time>2022-07-04T08:43:06.000Z</Time>
            <Position>
              <LatitudeDegrees>44.84492112882435321807861328125</LatitudeDegrees>
              <LongitudeDegrees>-0.5782006122171878814697265625</LongitudeDegrees>
            </Position>
            <AltitudeMeters>5.80000019073486328125</AltitudeMeters>
            <DistanceMeters>9156.4145275814</DistanceMeters>
          </Trackpoint>
          <Trackpoint>
            <Time>2022-07-04T08:43:09.000Z</Time>
            <Position>
              <LatitudeDegrees>44.8448786325752735137939453125</LatitudeDegrees>
              <LongitudeDegrees>-0.57824210263788700103759765625</LongitudeDegrees>
            </Position>
            <AltitudeMeters>6</AltitudeMeters>
            <DistanceMeters>9162.1673729789</DistanceMeters>
          </Trackpoint>
          <Trackpoint>
            <Time>2022-07-04T08:43:12.000Z</Time>
            <Position>
              <LatitudeDegrees>44.8448221385478973388671875</LatitudeDegrees>
              <LongitudeDegrees>-0.5782480537891387939453125</LongitudeDegrees>
            </Position>
            <AltitudeMeters>6.19999980926513671875</AltitudeMeters>
            <DistanceMeters>9168.4728806177</DistanceMeters>
          </Trackpoint>
          <Trackpoint>
            <Time>2022-07-04T08:43:16.000Z</Time>
            <Position>
              <LatitudeDegrees>44.84474795870482921600341796875</LatitudeDegrees>
              <LongitudeDegrees>-0.5782773904502391815185546875</LongitudeDegrees>
            </Position>
            <AltitudeMeters>6.19999980926513671875</AltitudeMeters>
            <DistanceMeters>9177.0474291426</DistanceMeters>
          </Trackpoint>
          <Trackpoint>
            <Time>2022-07-04T08:43:17.000Z</Time>
            <Position>
              <LatitudeDegrees>44.84473295509815216064453125</LatitudeDegrees>
              <LongitudeDegrees>-0.57829507626593112945556640625</LongitudeDegrees>
            </Position>
            <AltitudeMeters>6.19999980926513671875</AltitudeMeters>
            <DistanceMeters>9179.2226900595</DistanceMeters>
          </Trackpoint>
          <Trackpoint>
            <Time>2022-07-04T08:43:20.000Z</Time>
            <Position>
              <LatitudeDegrees>44.84466682188212871551513671875</LatitudeDegrees>
              <LongitudeDegrees>-0.57833782397210597991943359375</LongitudeDegrees>
            </Position>
            <AltitudeMeters>6.400000095367431640625</AltitudeMeters>
            <DistanceMeters>9187.3195014679</DistanceMeters>
          </Trackpoint>
          <Trackpoint>
            <Time>2022-07-04T08:43:25.000Z</Time>
            <Position>
              <LatitudeDegrees>44.84455970115959644317626953125</LatitudeDegrees>
              <LongitudeDegrees>-0.57838694192469120025634765625</LongitudeDegrees>
            </Position>
            <AltitudeMeters>6.599999904632568359375</AltitudeMeters>
            <DistanceMeters>9199.8565469964</DistanceMeters>
          </Trackpoint>
          <Trackpoint>
            <Time>2022-07-04T08:43:29.000Z</Time>
            <Position>
              <LatitudeDegrees>44.84447387047111988067626953125</LatitudeDegrees>
              <LongitudeDegrees>-0.5784198828041553497314453125</LongitudeDegrees>
            </Position>
            <AltitudeMeters>6.80000019073486328125</AltitudeMeters>
            <DistanceMeters>9209.7571267673</DistanceMeters>
          </Trackpoint>
          <Trackpoint>
            <Time>2022-07-04T08:43:32.000Z</Time>
            <Position>
              <LatitudeDegrees>44.84441050328314304351806640625</LatitudeDegrees>
              <LongitudeDegrees>-0.57845659554004669189453125</LongitudeDegrees>
            </Position>
            <AltitudeMeters>7</AltitudeMeters>
            <DistanceMeters>9217.38179936</DistanceMeters>
          </Trackpoint>
          <Trackpoint>
            <Time>2022-07-04T08:43:36.000Z</Time>
            <Position>
              <LatitudeDegrees>44.84431712888181209564208984375</LatitudeDegrees>
              <LongitudeDegrees>-0.57849372737109661102294921875</LongitudeDegrees>
            </Position>
            <AltitudeMeters>7.400000095367431640625</AltitudeMeters>
            <DistanceMeters>9228.1793600553</DistanceMeters>
          </Trackpoint>
          <Trackpoint>
            <Time>2022-07-04T08:43:38.000Z</Time>
            <Position>
              <LatitudeDegrees>44.84427387826144695281982421875</LatitudeDegrees>
              <LongitudeDegrees>-0.578522980213165283203125</LongitudeDegrees>
            </Position>
            <AltitudeMeters>7.599999904632568359375</AltitudeMeters>
            <DistanceMeters>9233.5177981468</DistanceMeters>
          </Trackpoint>
          <Trackpoint>
            <Time>2022-07-04T08:43:39.000Z</Time>
            <Position>
              <LatitudeDegrees>44.84424470923840999603271484375</LatitudeDegrees>
              <LongitudeDegrees>-0.578539073467254638671875</LongitudeDegrees>
            </Position>
            <AltitudeMeters>7.599999904632568359375</AltitudeMeters>
            <DistanceMeters>9237.0041261425</DistanceMeters>
          </Trackpoint>
          <Trackpoint>
            <Time>2022-07-04T08:43:46.000Z</Time>
            <Position>
              <LatitudeDegrees>44.84405159018933773040771484375</LatitudeDegrees>
              <LongitudeDegrees>-0.57858777232468128204345703125</LongitudeDegrees>
            </Position>
            <AltitudeMeters>8</AltitudeMeters>
            <DistanceMeters>9258.8396026942</DistanceMeters>
          </Trackpoint>
          <Trackpoint>
            <Time>2022-07-04T08:43:52.000Z</Time>
            <Position>
              <LatitudeDegrees>44.84391689300537109375</LatitudeDegrees>
              <LongitudeDegrees>-0.578701011836528778076171875</LongitudeDegrees>
            </Position>
            <AltitudeMeters>8.19999980926513671875</AltitudeMeters>
            <DistanceMeters>9276.2929862848</DistanceMeters>
          </Trackpoint>
          <Trackpoint>
            <Time>2022-07-04T08:43:57.000Z</Time>
            <Position>
              <LatitudeDegrees>44.8438109457492828369140625</LatitudeDegrees>
              <LongitudeDegrees>-0.57876127772033214569091796875</LongitudeDegrees>
            </Position>
            <AltitudeMeters>8.3999996185302734375</AltitudeMeters>
            <DistanceMeters>9289.0081146229</DistanceMeters>
          </Trackpoint>
          <Trackpoint>
            <Time>2022-07-04T08:43:59.000Z</Time>
            <Position>
              <LatitudeDegrees>44.84375956468284130096435546875</LatitudeDegrees>
              <LongitudeDegrees>-0.5787856690585613250732421875</LongitudeDegrees>
            </Position>
            <AltitudeMeters>8.6000003814697265625</AltitudeMeters>
            <DistanceMeters>9295.042123922</DistanceMeters>
          </Trackpoint>
          <Trackpoint>
            <Time>2022-07-04T08:44:00.000Z</Time>
            <Position>
              <LatitudeDegrees>44.84374112449586391448974609375</LatitudeDegrees>
              <LongitudeDegrees>-0.57879480533301830291748046875</LongitudeDegrees>
            </Position>
            <AltitudeMeters>8.80000019073486328125</AltitudeMeters>
            <DistanceMeters>9297.2194594802</DistanceMeters>
          </Trackpoint>
          <Trackpoint>
            <Time>2022-07-04T08:44:07.000Z</Time>
            <Position>
              <LatitudeDegrees>44.8435573093593120574951171875</LatitudeDegrees>
              <LongitudeDegrees>-0.578886084258556365966796875</LongitudeDegrees>
            </Position>
            <AltitudeMeters>9.19999980926513671875</AltitudeMeters>
            <DistanceMeters>9318.9095021877</DistanceMeters>
          </Trackpoint>
          <Trackpoint>
            <Time>2022-07-04T08:44:10.000Z</Time>
            <Position>
              <LatitudeDegrees>44.84349570237100124359130859375</LatitudeDegrees>
              <LongitudeDegrees>-0.57893210090696811676025390625</LongitudeDegrees>
            </Position>
            <AltitudeMeters>9.3999996185302734375</AltitudeMeters>
            <DistanceMeters>9326.6680129711</DistanceMeters>
          </Trackpoint>
          <Trackpoint>
            <Time>2022-07-04T08:44:14.000Z</Time>
            <Position>
              <LatitudeDegrees>44.84340651892125606536865234375</LatitudeDegrees>
              <LongitudeDegrees>-0.57899060659110546112060546875</LongitudeDegrees>
            </Position>
            <AltitudeMeters>9.3999996185302734375</AltitudeMeters>
            <DistanceMeters>9337.615486404</DistanceMeters>
          </Trackpoint>
          <Trackpoint>
            <Time>2022-07-04T08:44:18.000Z</Time>
            <Position>
              <LatitudeDegrees>44.843315742909908294677734375</LatitudeDegrees>
              <LongitudeDegrees>-0.579039640724658966064453125</LongitudeDegrees>
            </Position>
            <AltitudeMeters>9.6000003814697265625</AltitudeMeters>
            <DistanceMeters>9348.4343519114</DistanceMeters>
          </Trackpoint>
          <Trackpoint>
            <Time>2022-07-04T08:44:24.000Z</Time>
            <Position>
              <LatitudeDegrees>44.8431874997913837432861328125</LatitudeDegrees>
              <LongitudeDegrees>-0.57910024188458919525146484375</LongitudeDegrees>
            </Position>
            <AltitudeMeters>9.80000019073486328125</AltitudeMeters>
            <DistanceMeters>9363.4879152225</DistanceMeters>
          </Trackpoint>
          <Trackpoint>
            <Time>2022-07-04T08:44:32.000Z</Time>
            <Position>
              <LatitudeDegrees>44.84305498190224170684814453125</LatitudeDegrees>
              <LongitudeDegrees>-0.57924340479075908660888671875</LongitudeDegrees>
            </Position>
            <AltitudeMeters>10.19999980926513671875</AltitudeMeters>
            <DistanceMeters>9382.0670352809</DistanceMeters>
          </Trackpoint>
          <Trackpoint>
            <Time>2022-07-04T08:44:39.000Z</Time>
            <Position>
              <LatitudeDegrees>44.84301692806184291839599609375</LatitudeDegrees>
              <LongitudeDegrees>-0.57928766123950481414794921875</LongitudeDegrees>
            </Position>
            <AltitudeMeters>10.3999996185302734375</AltitudeMeters>
            <DistanceMeters>9387.5572443088</DistanceMeters>
          </Trackpoint>
          <Trackpoint>
            <Time>2022-07-04T08:44:42.000Z</Time>
            <Position>
              <LatitudeDegrees>44.842969067394733428955078125</LatitudeDegrees>
              <LongitudeDegrees>-0.579313896596431732177734375</LongitudeDegrees>
            </Position>
            <AltitudeMeters>10.3999996185302734375</AltitudeMeters>
            <DistanceMeters>9393.2730834051</DistanceMeters>
          </Trackpoint>
          <Trackpoint>
            <Time>2022-07-04T08:44:44.000Z</Time>
            <Position>
              <LatitudeDegrees>44.8429202847182750701904296875</LatitudeDegrees>
              <LongitudeDegrees>-0.57932739146053791046142578125</LongitudeDegrees>
            </Position>
            <AltitudeMeters>10.6000003814697265625</AltitudeMeters>
            <DistanceMeters>9398.8075227893</DistanceMeters>
          </Trackpoint>
          <Trackpoint>
            <Time>2022-07-04T08:44:49.000Z</Time>
            <Position>
              <LatitudeDegrees>44.84280436299741268157958984375</LatitudeDegrees>
              <LongitudeDegrees>-0.57943417690694332122802734375</LongitudeDegrees>
            </Position>
            <AltitudeMeters>11</AltitudeMeters>
            <DistanceMeters>9414.2182661353</DistanceMeters>
          </Trackpoint>
          <Trackpoint>
            <Time>2022-07-04T08:44:55.000Z</Time>
            <Position>
              <LatitudeDegrees>44.84264477156102657318115234375</LatitudeDegrees>
              <LongitudeDegrees>-0.5795212648808956146240234375</LongitudeDegrees>
            </Position>
            <AltitudeMeters>11.19999980926513671875</AltitudeMeters>
            <DistanceMeters>9433.2644266646</DistanceMeters>
          </Trackpoint>
          <Trackpoint>
            <Time>2022-07-04T08:44:56.000Z</Time>
            <Position>
              <LatitudeDegrees>44.84262063167989253997802734375</LatitudeDegrees>
              <LongitudeDegrees>-0.57953308336436748504638671875</LongitudeDegrees>
            </Position>
            <AltitudeMeters>11.19999980926513671875</AltitudeMeters>
            <DistanceMeters>9436.1088859267</DistanceMeters>
          </Trackpoint>
          <Trackpoint>
            <Time>2022-07-04T08:45:01.000Z</Time>
            <Position>
              <LatitudeDegrees>44.842500351369380950927734375</LatitudeDegrees>
              <LongitudeDegrees>-0.5795960314571857452392578125</LongitudeDegrees>
            </Position>
            <AltitudeMeters>11.3999996185302734375</AltitudeMeters>
            <DistanceMeters>9450.388527245</DistanceMeters>
          </Trackpoint>
          <Trackpoint>
            <Time>2022-07-04T08:45:03.000Z</Time>
            <Position>
              <LatitudeDegrees>44.84245668165385723114013671875</LatitudeDegrees>
              <LongitudeDegrees>-0.57962763123214244842529296875</LongitudeDegrees>
            </Position>
            <AltitudeMeters>11.3999996185302734375</AltitudeMeters>
            <DistanceMeters>9455.8523567376</DistanceMeters>
          </Trackpoint>
          <Trackpoint>
            <Time>2022-07-04T08:45:10.000Z</Time>
            <Position>
              <LatitudeDegrees>44.84228049404919147491455078125</LatitudeDegrees>
              <LongitudeDegrees>-0.57971589267253875732421875</LongitudeDegrees>
            </Position>
            <AltitudeMeters>11.80000019073486328125</AltitudeMeters>
            <DistanceMeters>9476.6625563066</DistanceMeters>
          </Trackpoint>
          <Trackpoint>
            <Time>2022-07-04T08:45:11.000Z</Time>
            <Position>
              <LatitudeDegrees>44.84225585125386714935302734375</LatitudeDegrees>
              <LongitudeDegrees>-0.57973064482212066650390625</LongitudeDegrees>
            </Position>
            <AltitudeMeters>11.80000019073486328125</AltitudeMeters>
            <DistanceMeters>9479.6403969786</DistanceMeters>
          </Trackpoint>
          <Trackpoint>
            <Time>2022-07-04T08:45:19.000Z</Time>
            <Position>
              <LatitudeDegrees>44.84206457622349262237548828125</LatitudeDegrees>
              <LongitudeDegrees>-0.5798116140067577362060546875</LongitudeDegrees>
            </Position>
            <AltitudeMeters>12</AltitudeMeters>
            <DistanceMeters>9501.8681184667</DistanceMeters>
          </Trackpoint>
          <Trackpoint>
            <Time>2022-07-04T08:45:23.000Z</Time>
            <Position>
              <LatitudeDegrees>44.84199576079845428466796875</LatitudeDegrees>
              <LongitudeDegrees>-0.5798448063433170318603515625</LongitudeDegrees>
            </Position>
            <AltitudeMeters>12.19999980926513671875</AltitudeMeters>
            <DistanceMeters>9509.9626990412</DistanceMeters>
          </Trackpoint>
          <Trackpoint>
            <Time>2022-07-04T08:45:25.000Z</Time>
            <Position>
              <LatitudeDegrees>44.841956198215484619140625</LatitudeDegrees>
              <LongitudeDegrees>-0.579875819385051727294921875</LongitudeDegrees>
            </Position>
            <AltitudeMeters>12.19999980926513671875</AltitudeMeters>
            <DistanceMeters>9515.0000113015</DistanceMeters>
          </Trackpoint>
          <Trackpoint>
            <Time>2022-07-04T08:45:28.000Z</Time>
            <Position>
              <LatitudeDegrees>44.84190196730196475982666015625</LatitudeDegrees>
              <LongitudeDegrees>-0.5799420364201068878173828125</LongitudeDegrees>
            </Position>
            <AltitudeMeters>12.19999980926513671875</AltitudeMeters>
            <DistanceMeters>9522.9839520339</DistanceMeters>
          </Trackpoint>
          <Trackpoint>
            <Time>2022-07-04T08:45:29.000Z</Time>
            <Position>
              <LatitudeDegrees>44.84189157374203205108642578125</LatitudeDegrees>
              <LongitudeDegrees>-0.57994664646685123443603515625</LongitudeDegrees>
            </Position>
            <AltitudeMeters>12.19999980926513671875</AltitudeMeters>
            <DistanceMeters>9524.1971719069</DistanceMeters>
          </Trackpoint>
          <Trackpoint>
            <Time>2022-07-04T08:45:34.000Z</Time>
            <Position>
              <LatitudeDegrees>44.8417826928198337554931640625</LatitudeDegrees>
              <LongitudeDegrees>-0.57992887683212757110595703125</LongitudeDegrees>
            </Position>
            <AltitudeMeters>12.19999980926513671875</AltitudeMeters>
            <DistanceMeters>9536.3965444266</DistanceMeters>
          </Trackpoint>
          <Trackpoint>
            <Time>2022-07-04T08:45:39.000Z</Time>
            <Position>
              <LatitudeDegrees>44.8416893184185028076171875</LatitudeDegrees>
              <LongitudeDegrees>-0.5799986980855464935302734375</LongitudeDegrees>
            </Position>
            <AltitudeMeters>12.3999996185302734375</AltitudeMeters>
            <DistanceMeters>9548.159147509</DistanceMeters>
          </Trackpoint>
          <Trackpoint>
            <Time>2022-07-04T08:45:40.000Z</Time>
            <Position>
              <LatitudeDegrees>44.8416812717914581298828125</LatitudeDegrees>
              <LongitudeDegrees>-0.58000154793262481689453125</LongitudeDegrees>
            </Position>
            <AltitudeMeters>12.3999996185302734375</AltitudeMeters>
            <DistanceMeters>9549.0804656873</DistanceMeters>
          </Trackpoint>
          <Trackpoint>
            <Time>2022-07-04T08:45:41.000Z</Time>
            <Position>
              <LatitudeDegrees>44.84167666174471378326416015625</LatitudeDegrees>
              <LongitudeDegrees>-0.5799970217049121856689453125</LongitudeDegrees>
            </Position>
            <AltitudeMeters>12.3999996185302734375</AltitudeMeters>
            <DistanceMeters>9549.703597525</DistanceMeters>
          </Trackpoint>
          <Trackpoint>
            <Time>2022-07-04T08:45:44.000Z</Time>
            <Position>
              <LatitudeDegrees>44.841699711978435516357421875</LatitudeDegrees>
              <LongitudeDegrees>-0.57995167560875415802001953125</LongitudeDegrees>
            </Position>
            <AltitudeMeters>12.3999996185302734375</AltitudeMeters>
            <DistanceMeters>9554.1067298334</DistanceMeters>
          </Trackpoint>
          <Trackpoint>
            <Time>2022-07-04T08:45:51.000Z</Time>
            <Position>
              <LatitudeDegrees>44.84177942387759685516357421875</LatitudeDegrees>
              <LongitudeDegrees>-0.57980700396001338958740234375</LongitudeDegrees>
            </Position>
            <AltitudeMeters>12.6000003814697265625</AltitudeMeters>
            <DistanceMeters>9568.566099111</DistanceMeters>
          </Trackpoint>
          <Trackpoint>
            <Time>2022-07-04T08:45:57.000Z</Time>
            <Position>
              <LatitudeDegrees>44.8417937569320201873779296875</LatitudeDegrees>
              <LongitudeDegrees>-0.57967406697571277618408203125</LongitudeDegrees>
            </Position>
            <AltitudeMeters>12.6000003814697265625</AltitudeMeters>
            <DistanceMeters>9579.1776519312</DistanceMeters>
          </Trackpoint>
          <Trackpoint>
            <Time>2022-07-04T08:46:03.000Z</Time>
            <Position>
              <LatitudeDegrees>44.84181337058544158935546875</LatitudeDegrees>
              <LongitudeDegrees>-0.5795239470899105072021484375</LongitudeDegrees>
            </Position>
            <AltitudeMeters>12.6000003814697265625</AltitudeMeters>
            <DistanceMeters>9591.2243261001</DistanceMeters>
          </Trackpoint>
          <Trackpoint>
            <Time>2022-07-04T08:46:06.000Z</Time>
            <Position>
              <LatitudeDegrees>44.84180222265422344207763671875</LatitudeDegrees>
              <LongitudeDegrees>-0.579470135271549224853515625</LongitudeDegrees>
            </Position>
            <AltitudeMeters>12.3999996185302734375</AltitudeMeters>
            <DistanceMeters>9595.6468983807</DistanceMeters>
          </Trackpoint>
          <Trackpoint>
            <Time>2022-07-04T08:46:09.000Z</Time>
            <Position>
              <LatitudeDegrees>44.8418132029473781585693359375</LatitudeDegrees>
              <LongitudeDegrees>-0.57942646555602550506591796875</LongitudeDegrees>
            </Position>
            <AltitudeMeters>12.19999980926513671875</AltitudeMeters>
            <DistanceMeters>9599.3026490748</DistanceMeters>
          </Trackpoint>
          <Trackpoint>
            <Time>2022-07-04T08:46:18.000Z</Time>
            <Position>
              <LatitudeDegrees>44.8418591357767581939697265625</LatitudeDegrees>
              <LongitudeDegrees>-0.5791732482612133026123046875</LongitudeDegrees>
            </Position>
            <AltitudeMeters>12.19999980926513671875</AltitudeMeters>
            <DistanceMeters>9619.9300137141</DistanceMeters>
          </Trackpoint>
          <Trackpoint>
            <Time>2022-07-04T08:46:24.000Z</Time>
            <Position>
              <LatitudeDegrees>44.84185519628226757049560546875</LatitudeDegrees>
              <LongitudeDegrees>-0.57898658327758312225341796875</LongitudeDegrees>
            </Position>
            <AltitudeMeters>12.19999980926513671875</AltitudeMeters>
            <DistanceMeters>9634.6677350002</DistanceMeters>
          </Trackpoint>
          <Trackpoint>
            <Time>2022-07-04T08:46:25.000Z</Time>
            <Position>
              <LatitudeDegrees>44.84185536392033100128173828125</LatitudeDegrees>
              <LongitudeDegrees>-0.5789543129503726959228515625</LongitudeDegrees>
            </Position>
            <AltitudeMeters>12.19999980926513671875</AltitudeMeters>
            <DistanceMeters>9637.214025417</DistanceMeters>
          </Trackpoint>
          <Trackpoint>
            <Time>2022-07-04T08:46:29.000Z</Time>
            <Position>
              <LatitudeDegrees>44.8418319784104824066162109375</LatitudeDegrees>
              <LongitudeDegrees>-0.5788252316415309906005859375</LongitudeDegrees>
            </Position>
            <AltitudeMeters>12</AltitudeMeters>
            <DistanceMeters>9647.7281205196</DistanceMeters>
          </Trackpoint>
          <Trackpoint>
            <Time>2022-07-04T08:46:31.000Z</Time>
            <Position>
              <LatitudeDegrees>44.8417964391410350799560546875</LatitudeDegrees>
              <LongitudeDegrees>-0.57879296131432056427001953125</LongitudeDegrees>
            </Position>
            <AltitudeMeters>11.80000019073486328125</AltitudeMeters>
            <DistanceMeters>9652.4317029083</DistanceMeters>
          </Trackpoint>
          <Trackpoint>
            <Time>2022-07-04T08:46:37.000Z</Time>
            <Position>
              <LatitudeDegrees>44.8416455648839473724365234375</LatitudeDegrees>
              <LongitudeDegrees>-0.57874225080013275146484375</LongitudeDegrees>
            </Position>
            <AltitudeMeters>11.19999980926513671875</AltitudeMeters>
            <DistanceMeters>9669.6946859299</DistanceMeters>
          </Trackpoint>
          <Trackpoint>
            <Time>2022-07-04T08:46:43.000Z</Time>
            <Position>
              <LatitudeDegrees>44.8415084369480609893798828125</LatitudeDegrees>
              <LongitudeDegrees>-0.5786572583019733428955078125</LongitudeDegrees>
            </Position>
            <AltitudeMeters>11</AltitudeMeters>
            <DistanceMeters>9686.3661202674</DistanceMeters>
          </Trackpoint>
          <Trackpoint>
            <Time>2022-07-04T08:46:46.000Z</Time>
            <Position>
              <LatitudeDegrees>44.8414371907711029052734375</LatitudeDegrees>
              <LongitudeDegrees>-0.57863152585923671722412109375</LongitudeDegrees>
            </Position>
            <AltitudeMeters>10.80000019073486328125</AltitudeMeters>
            <DistanceMeters>9694.5516665054</DistanceMeters>
          </Trackpoint>
          <Trackpoint>
            <Time>2022-07-04T08:46:48.000Z</Time>
            <Position>
              <LatitudeDegrees>44.84137482941150665283203125</LatitudeDegrees>
              <LongitudeDegrees>-0.57861082255840301513671875</LongitudeDegrees>
            </Position>
            <AltitudeMeters>10.80000019073486328125</AltitudeMeters>
            <DistanceMeters>9701.6824701386</DistanceMeters>
          </Trackpoint>
          <Trackpoint>
            <Time>2022-07-04T08:46:52.000Z</Time>
            <Position>
              <LatitudeDegrees>44.84128958545625209808349609375</LatitudeDegrees>
              <LongitudeDegrees>-0.578514598309993743896484375</LongitudeDegrees>
            </Position>
            <AltitudeMeters>10.6000003814697265625</AltitudeMeters>
            <DistanceMeters>9713.8351200653</DistanceMeters>
          </Trackpoint>
          <Trackpoint>
            <Time>2022-07-04T08:46:54.000Z</Time>
            <Position>
              <LatitudeDegrees>44.84124046750366687774658203125</LatitudeDegrees>
              <LongitudeDegrees>-0.57847528718411922454833984375</LongitudeDegrees>
            </Position>
            <AltitudeMeters>10.6000003814697265625</AltitudeMeters>
            <DistanceMeters>9720.121264712</DistanceMeters>
          </Trackpoint>
          <Trackpoint>
            <Time>2022-07-04T08:46:58.000Z</Time>
            <Position>
              <LatitudeDegrees>44.8411426506936550140380859375</LatitudeDegrees>
              <LongitudeDegrees>-0.57847042568027973175048828125</LongitudeDegrees>
            </Position>
            <AltitudeMeters>10.6000003814697265625</AltitudeMeters>
            <DistanceMeters>9731.0149906415</DistanceMeters>
          </Trackpoint>
          <Trackpoint>
            <Time>2022-07-04T08:47:01.000Z</Time>
            <Position>
              <LatitudeDegrees>44.8410762660205364227294921875</LatitudeDegrees>
              <LongitudeDegrees>-0.57844745926558971405029296875</LongitudeDegrees>
            </Position>
            <AltitudeMeters>10.3999996185302734375</AltitudeMeters>
            <DistanceMeters>9738.6230646425</DistanceMeters>
          </Trackpoint>
          <Trackpoint>
            <Time>2022-07-04T08:47:03.000Z</Time>
            <Position>
              <LatitudeDegrees>44.841020442545413970947265625</LatitudeDegrees>
              <LongitudeDegrees>-0.57843522168695926666259765625</LongitudeDegrees>
            </Position>
            <AltitudeMeters>10.3999996185302734375</AltitudeMeters>
            <DistanceMeters>9744.9106456298</DistanceMeters>
          </Trackpoint>
          <Trackpoint>
            <Time>2022-07-04T08:47:11.000Z</Time>
            <Position>
              <LatitudeDegrees>44.8408516310155391693115234375</LatitudeDegrees>
              <LongitudeDegrees>-0.57840622030198574066162109375</LongitudeDegrees>
            </Position>
            <AltitudeMeters>10</AltitudeMeters>
            <DistanceMeters>9763.8383832875</DistanceMeters>
          </Trackpoint>
          <Trackpoint>
            <Time>2022-07-04T08:47:17.000Z</Time>
            <Position>
              <LatitudeDegrees>44.84083570539951324462890625</LatitudeDegrees>
              <LongitudeDegrees>-0.5784198828041553497314453125</LongitudeDegrees>
            </Position>
            <AltitudeMeters>10</AltitudeMeters>
            <DistanceMeters>9765.911621428</DistanceMeters>
          </Trackpoint>
          <Trackpoint>
            <Time>2022-07-04T08:47:18.000Z</Time>
            <Position>
              <LatitudeDegrees>44.84082237817347049713134765625</LatitudeDegrees>
              <LongitudeDegrees>-0.57841862551867961883544921875</LongitudeDegrees>
            </Position>
            <AltitudeMeters>10</AltitudeMeters>
            <DistanceMeters>9767.3959861582</DistanceMeters>
          </Trackpoint>
          <Trackpoint>
            <Time>2022-07-04T08:47:21.000Z</Time>
            <Position>
              <LatitudeDegrees>44.8407352901995182037353515625</LatitudeDegrees>
              <LongitudeDegrees>-0.57840806432068347930908203125</LongitudeDegrees>
            </Position>
            <AltitudeMeters>10</AltitudeMeters>
            <DistanceMeters>9777.1249769222</DistanceMeters>
          </Trackpoint>
          <Trackpoint>
            <Time>2022-07-04T08:47:26.000Z</Time>
            <Position>
              <LatitudeDegrees>44.84058952890336513519287109375</LatitudeDegrees>
              <LongitudeDegrees>-0.578426420688629150390625</LongitudeDegrees>
            </Position>
            <AltitudeMeters>9.6000003814697265625</AltitudeMeters>
            <DistanceMeters>9793.4128440584</DistanceMeters>
          </Trackpoint>
          <Trackpoint>
            <Time>2022-07-04T08:47:27.000Z</Time>
            <Position>
              <LatitudeDegrees>44.8405596055090427398681640625</LatitudeDegrees>
              <LongitudeDegrees>-0.5784277617931365966796875</LongitudeDegrees>
            </Position>
            <AltitudeMeters>9.6000003814697265625</AltitudeMeters>
            <DistanceMeters>9796.7455597718</DistanceMeters>
          </Trackpoint>
          <Trackpoint>
            <Time>2022-07-04T08:47:31.000Z</Time>
            <Position>
              <LatitudeDegrees>44.8404528200626373291015625</LatitudeDegrees>
              <LongitudeDegrees>-0.57842130772769451141357421875</LongitudeDegrees>
            </Position>
            <AltitudeMeters>9.19999980926513671875</AltitudeMeters>
            <DistanceMeters>9808.641750676</DistanceMeters>
          </Trackpoint>
          <Trackpoint>
            <Time>2022-07-04T08:47:35.000Z</Time>
            <Position>
              <LatitudeDegrees>44.8404072225093841552734375</LatitudeDegrees>
              <LongitudeDegrees>-0.57837939821183681488037109375</LongitudeDegrees>
            </Position>
            <AltitudeMeters>9</AltitudeMeters>
            <DistanceMeters>9814.6996571352</DistanceMeters>
          </Trackpoint>
          <Trackpoint>
            <Time>2022-07-04T08:47:36.000Z</Time>
            <Position>
              <LatitudeDegrees>44.840400852262973785400390625</LatitudeDegrees>
              <LongitudeDegrees>-0.5783739499747753143310546875</LongitudeDegrees>
            </Position>
            <AltitudeMeters>8.80000019073486328125</AltitudeMeters>
            <DistanceMeters>9815.5389103524</DistanceMeters>
          </Trackpoint>
          <Trackpoint>
            <Time>2022-07-04T08:47:37.000Z</Time>
            <Position>
              <LatitudeDegrees>44.84039054252207279205322265625</LatitudeDegrees>
              <LongitudeDegrees>-0.5783809907734394073486328125</LongitudeDegrees>
            </Position>
            <AltitudeMeters>8.80000019073486328125</AltitudeMeters>
            <DistanceMeters>9816.8138275105</DistanceMeters>
          </Trackpoint>
          <Trackpoint>
            <Time>2022-07-04T08:47:39.000Z</Time>
            <Position>
              <LatitudeDegrees>44.8403420113027095794677734375</LatitudeDegrees>
              <LongitudeDegrees>-0.5783816613256931304931640625</LongitudeDegrees>
            </Position>
            <AltitudeMeters>8.6000003814697265625</AltitudeMeters>
            <DistanceMeters>9822.2169966864</DistanceMeters>
          </Trackpoint>
          <Trackpoint>
            <Time>2022-07-04T08:47:40.000Z</Time>
            <Position>
              <LatitudeDegrees>44.8403187096118927001953125</LatitudeDegrees>
              <LongitudeDegrees>-0.5783716030418872833251953125</LongitudeDegrees>
            </Position>
            <AltitudeMeters>8.6000003814697265625</AltitudeMeters>
            <DistanceMeters>9824.9315026043</DistanceMeters>
          </Trackpoint>
          <Trackpoint>
            <Time>2022-07-04T08:47:41.000Z</Time>
            <Position>
              <LatitudeDegrees>44.84029515646398067474365234375</LatitudeDegrees>
              <LongitudeDegrees>-0.57835576124489307403564453125</LongitudeDegrees>
            </Position>
            <AltitudeMeters>8.6000003814697265625</AltitudeMeters>
            <DistanceMeters>9827.8356533233</DistanceMeters>
          </Trackpoint>
          <Trackpoint>
            <Time>2022-07-04T08:47:46.000Z</Time>
            <Position>
              <LatitudeDegrees>44.84014042653143405914306640625</LatitudeDegrees>
              <LongitudeDegrees>-0.57831041514873504638671875</LongitudeDegrees>
            </Position>
            <AltitudeMeters>8.19999980926513671875</AltitudeMeters>
            <DistanceMeters>9845.4250955862</DistanceMeters>
          </Trackpoint>
          <Trackpoint>
            <Time>2022-07-04T08:47:50.000Z</Time>
            <Position>
              <LatitudeDegrees>44.84001419506967067718505859375</LatitudeDegrees>
              <LongitudeDegrees>-0.5782700143754482269287109375</LongitudeDegrees>
            </Position>
            <AltitudeMeters>8</AltitudeMeters>
            <DistanceMeters>9859.8322235839</DistanceMeters>
          </Trackpoint>
          <Trackpoint>
            <Time>2022-07-04T08:47:51.000Z</Time>
            <Position>
              <LatitudeDegrees>44.8400010354816913604736328125</LatitudeDegrees>
              <LongitudeDegrees>-0.57824528776109218597412109375</LongitudeDegrees>
            </Position>
            <AltitudeMeters>8</AltitudeMeters>
            <DistanceMeters>9862.2735040784</DistanceMeters>
          </Trackpoint>
          <Trackpoint>
            <Time>2022-07-04T08:47:55.000Z</Time>
            <Position>
              <LatitudeDegrees>44.83983817510306835174560546875</LatitudeDegrees>
              <LongitudeDegrees>-0.57816666550934314727783203125</LongitudeDegrees>
            </Position>
            <AltitudeMeters>7.80000019073486328125</AltitudeMeters>
            <DistanceMeters>9881.4331143981</DistanceMeters>
          </Trackpoint>
          <Trackpoint>
            <Time>2022-07-04T08:47:56.000Z</Time>
            <Position>
              <LatitudeDegrees>44.839810431003570556640625</LatitudeDegrees>
              <LongitudeDegrees>-0.57816230691969394683837890625</LongitudeDegrees>
            </Position>
            <AltitudeMeters>7.599999904632568359375</AltitudeMeters>
            <DistanceMeters>9884.5400665571</DistanceMeters>
          </Trackpoint>
          <Trackpoint>
            <Time>2022-07-04T08:48:01.000Z</Time>
            <Position>
              <LatitudeDegrees>44.8396278731524944305419921875</LatitudeDegrees>
              <LongitudeDegrees>-0.5781030468642711639404296875</LongitudeDegrees>
            </Position>
            <AltitudeMeters>7</AltitudeMeters>
            <DistanceMeters>9905.3903656015</DistanceMeters>
          </Trackpoint>
          <Trackpoint>
            <Time>2022-07-04T08:48:03.000Z</Time>
            <Position>
              <LatitudeDegrees>44.8395515978336334228515625</LatitudeDegrees>
              <LongitudeDegrees>-0.5780976824462413787841796875</LongitudeDegrees>
            </Position>
            <AltitudeMeters>6.400000095367431640625</AltitudeMeters>
            <DistanceMeters>9913.8908756865</DistanceMeters>
          </Trackpoint>
          <Trackpoint>
            <Time>2022-07-04T08:48:06.000Z</Time>
            <Position>
              <LatitudeDegrees>44.83942695893347263336181640625</LatitudeDegrees>
              <LongitudeDegrees>-0.578068010509014129638671875</LongitudeDegrees>
            </Position>
            <AltitudeMeters>6.19999980926513671875</AltitudeMeters>
            <DistanceMeters>9927.9599650547</DistanceMeters>
          </Trackpoint>
          <Trackpoint>
            <Time>2022-07-04T08:48:07.000Z</Time>
            <Position>
              <LatitudeDegrees>44.83938203193247318267822265625</LatitudeDegrees>
              <LongitudeDegrees>-0.57805686257779598236083984375</LongitudeDegrees>
            </Position>
            <AltitudeMeters>6.400000095367431640625</AltitudeMeters>
            <DistanceMeters>9933.0365621602</DistanceMeters>
          </Trackpoint>
          <Trackpoint>
            <Time>2022-07-04T08:48:08.000Z</Time>
            <Position>
              <LatitudeDegrees>44.83933844603598117828369140625</LatitudeDegrees>
              <LongitudeDegrees>-0.57804831303656101226806640625</LongitudeDegrees>
            </Position>
            <AltitudeMeters>6.400000095367431640625</AltitudeMeters>
            <DistanceMeters>9937.9348182898</DistanceMeters>
          </Trackpoint>
          <Trackpoint>
            <Time>2022-07-04T08:48:11.000Z</Time>
            <Position>
              <LatitudeDegrees>44.8391963727772235870361328125</LatitudeDegrees>
              <LongitudeDegrees>-0.57805828750133514404296875</LongitudeDegrees>
            </Position>
            <AltitudeMeters>6.400000095367431640625</AltitudeMeters>
            <DistanceMeters>9953.7672499416</DistanceMeters>
          </Trackpoint>
          <Trackpoint>
            <Time>2022-07-04T08:48:16.000Z</Time>
            <Position>
              <LatitudeDegrees>44.83898087404668331146240234375</LatitudeDegrees>
              <LongitudeDegrees>-0.57809642516076564788818359375</LongitudeDegrees>
            </Position>
            <AltitudeMeters>6</AltitudeMeters>
            <DistanceMeters>9977.940671438</DistanceMeters>
          </Trackpoint>
          <Trackpoint>
            <Time>2022-07-04T08:48:18.000Z</Time>
            <Position>
              <LatitudeDegrees>44.83892119489610195159912109375</LatitudeDegrees>
              <LongitudeDegrees>-0.5781281925737857818603515625</LongitudeDegrees>
            </Position>
            <AltitudeMeters>5.80000019073486328125</AltitudeMeters>
            <DistanceMeters>9985.0397457885</DistanceMeters>
          </Trackpoint>
          <Trackpoint>
            <Time>2022-07-04T08:48:23.000Z</Time>
            <Position>
              <LatitudeDegrees>44.83880217187106609344482421875</LatitudeDegrees>
              <LongitudeDegrees>-0.57808871380984783172607421875</LongitudeDegrees>
            </Position>
            <AltitudeMeters>5.400000095367431640625</AltitudeMeters>
            <DistanceMeters>9998.6481552368</DistanceMeters>
          </Trackpoint>
          <Trackpoint>
            <Time>2022-07-04T08:48:27.000Z</Time>
            <Position>
              <LatitudeDegrees>44.838684909045696258544921875</LatitudeDegrees>
              <LongitudeDegrees>-0.5780252628028392791748046875</LongitudeDegrees>
            </Position>
            <AltitudeMeters>5</AltitudeMeters>
            <DistanceMeters>10012.627098482</DistanceMeters>
          </Trackpoint>
          <Trackpoint>
            <Time>2022-07-04T08:48:29.000Z</Time>
            <Position>
              <LatitudeDegrees>44.83862330205738544464111328125</LatitudeDegrees>
              <LongitudeDegrees>-0.57796348817646503448486328125</LongitudeDegrees>
            </Position>
            <AltitudeMeters>4.80000019073486328125</AltitudeMeters>
            <DistanceMeters>10021.040049163</DistanceMeters>
          </Trackpoint>
          <Trackpoint>
            <Time>2022-07-04T08:48:31.000Z</Time>
            <Position>
              <LatitudeDegrees>44.83857736922800540924072265625</LatitudeDegrees>
              <LongitudeDegrees>-0.5779310502111911773681640625</LongitudeDegrees>
            </Position>
            <AltitudeMeters>4.80000019073486328125</AltitudeMeters>
            <DistanceMeters>10026.757467875</DistanceMeters>
          </Trackpoint>
          <Trackpoint>
            <Time>2022-07-04T08:48:33.000Z</Time>
            <Position>
              <LatitudeDegrees>44.838533364236354827880859375</LatitudeDegrees>
              <LongitudeDegrees>-0.57791772298514842987060546875</LongitudeDegrees>
            </Position>
            <AltitudeMeters>4.599999904632568359375</AltitudeMeters>
            <DistanceMeters>10031.767818413</DistanceMeters>
          </Trackpoint>
          <Trackpoint>
            <Time>2022-07-04T08:48:37.000Z</Time>
            <Position>
              <LatitudeDegrees>44.8384988307952880859375</LatitudeDegrees>
              <LongitudeDegrees>-0.5778643302619457244873046875</LongitudeDegrees>
            </Position>
            <AltitudeMeters>4.80000019073486328125</AltitudeMeters>
            <DistanceMeters>10037.472587953</DistanceMeters>
          </Trackpoint>
          <Trackpoint>
            <Time>2022-07-04T08:48:38.000Z</Time>
            <Position>
              <LatitudeDegrees>44.8384778760373592376708984375</LatitudeDegrees>
              <LongitudeDegrees>-0.57785770855844020843505859375</LongitudeDegrees>
            </Position>
            <AltitudeMeters>4.80000019073486328125</AltitudeMeters>
            <DistanceMeters>10039.865299483</DistanceMeters>
          </Trackpoint>
          <Trackpoint>
            <Time>2022-07-04T08:48:40.000Z</Time>
            <Position>
              <LatitudeDegrees>44.83842900954186916351318359375</LatitudeDegrees>
              <LongitudeDegrees>-0.577825605869293212890625</LongitudeDegrees>
            </Position>
            <AltitudeMeters>4.80000019073486328125</AltitudeMeters>
            <DistanceMeters>10045.865542377</DistanceMeters>
          </Trackpoint>
          <Trackpoint>
            <Time>2022-07-04T08:48:44.000Z</Time>
            <Position>
              <LatitudeDegrees>44.838359020650386810302734375</LatitudeDegrees>
              <LongitudeDegrees>-0.5777798406779766082763671875</LongitudeDegrees>
            </Position>
            <AltitudeMeters>5</AltitudeMeters>
            <DistanceMeters>10054.452193305</DistanceMeters>
          </Trackpoint>
          <Trackpoint>
            <Time>2022-07-04T08:48:46.000Z</Time>
            <Position>
              <LatitudeDegrees>44.83834602870047092437744140625</LatitudeDegrees>
              <LongitudeDegrees>-0.5777788348495960235595703125</LongitudeDegrees>
            </Position>
            <AltitudeMeters>5</AltitudeMeters>
            <DistanceMeters>10055.905822518</DistanceMeters>
          </Trackpoint>
          <Trackpoint>
            <Time>2022-07-04T08:48:49.000Z</Time>
            <Position>
              <LatitudeDegrees>44.8382802307605743408203125</LatitudeDegrees>
              <LongitudeDegrees>-0.57779165916144847869873046875</LongitudeDegrees>
            </Position>
            <AltitudeMeters>5.19999980926513671875</AltitudeMeters>
            <DistanceMeters>10063.299609287</DistanceMeters>
          </Trackpoint>
          <Trackpoint>
            <Time>2022-07-04T08:48:52.000Z</Time>
            <Position>
              <LatitudeDegrees>44.838218875229358673095703125</LatitudeDegrees>
              <LongitudeDegrees>-0.577812530100345611572265625</LongitudeDegrees>
            </Position>
            <AltitudeMeters>5.19999980926513671875</AltitudeMeters>
            <DistanceMeters>10070.325162492</DistanceMeters>
          </Trackpoint>
          <Trackpoint>
            <Time>2022-07-04T08:48:55.000Z</Time>
            <Position>
              <LatitudeDegrees>44.8381432704627513885498046875</LatitudeDegrees>
              <LongitudeDegrees>-0.57780574075877666473388671875</LongitudeDegrees>
            </Position>
            <AltitudeMeters>5.19999980926513671875</AltitudeMeters>
            <DistanceMeters>10078.757411417</DistanceMeters>
          </Trackpoint>
          <Trackpoint>
            <Time>2022-07-04T08:49:01.000Z</Time>
            <Position>
              <LatitudeDegrees>44.83805266208946704864501953125</LatitudeDegrees>
              <LongitudeDegrees>-0.57783029973506927490234375</LongitudeDegrees>
            </Position>
            <AltitudeMeters>5.400000095367431640625</AltitudeMeters>
            <DistanceMeters>10089.026893526</DistanceMeters>
          </Trackpoint>
          <Trackpoint>
            <Time>2022-07-04T08:49:02.000Z</Time>
            <Position>
              <LatitudeDegrees>44.8380366526544094085693359375</LatitudeDegrees>
              <LongitudeDegrees>-0.5778229236602783203125</LongitudeDegrees>
            </Position>
            <AltitudeMeters>5.400000095367431640625</AltitudeMeters>
            <DistanceMeters>10090.901113293</DistanceMeters>
          </Trackpoint>
          <Trackpoint>
            <Time>2022-07-04T08:49:07.000Z</Time>
            <Position>
              <LatitudeDegrees>44.83799968846142292022705078125</LatitudeDegrees>
              <LongitudeDegrees>-0.57780272327363491058349609375</LongitudeDegrees>
            </Position>
            <AltitudeMeters>5.19999980926513671875</AltitudeMeters>
            <DistanceMeters>10095.313464686</DistanceMeters>
          </Trackpoint>
          <Trackpoint>
            <Time>2022-07-04T08:49:08.000Z</Time>
            <Position>
              <LatitudeDegrees>44.83799968846142292022705078125</LatitudeDegrees>
              <LongitudeDegrees>-0.57780272327363491058349609375</LongitudeDegrees>
            </Position>
            <AltitudeMeters>5.19999980926513671875</AltitudeMeters>
            <DistanceMeters>10095.313464686</DistanceMeters>
          </Trackpoint>
          <Trackpoint>
            <Time>2022-07-04T08:49:12.000Z</Time>
            <Position>
              <LatitudeDegrees>44.83804226852953433990478515625</LatitudeDegrees>
              <LongitudeDegrees>-0.5778160504996776580810546875</LongitudeDegrees>
            </Position>
            <AltitudeMeters>5.19999980926513671875</AltitudeMeters>
            <DistanceMeters>10100.168204588</DistanceMeters>
          </Trackpoint>
          <Trackpoint>
            <Time>2022-07-04T08:49:17.000Z</Time>
            <Position>
              <LatitudeDegrees>44.83810228295624256134033203125</LatitudeDegrees>
              <LongitudeDegrees>-0.5778348259627819061279296875</LongitudeDegrees>
            </Position>
            <AltitudeMeters>5.400000095367431640625</AltitudeMeters>
            <DistanceMeters>10107.010128023</DistanceMeters>
          </Trackpoint>
          <Trackpoint>
            <Time>2022-07-04T08:49:37.000Z</Time>
            <Position>
              <LatitudeDegrees>44.8382234014570713043212890625</LatitudeDegrees>
              <LongitudeDegrees>-0.577868856489658355712890625</LongitudeDegrees>
            </Position>
            <AltitudeMeters>5.19999980926513671875</AltitudeMeters>
            <DistanceMeters>10120.755537782</DistanceMeters>
          </Trackpoint>
          <Trackpoint>
            <Time>2022-07-04T08:49:38.000Z</Time>
            <Position>
              <LatitudeDegrees>44.838255755603313446044921875</LatitudeDegrees>
              <LongitudeDegrees>-0.57787497527897357940673828125</LongitudeDegrees>
            </Position>
            <AltitudeMeters>5.19999980926513671875</AltitudeMeters>
            <DistanceMeters>10124.388989551</DistanceMeters>
          </Trackpoint>
          <Trackpoint>
            <Time>2022-07-04T08:49:43.000Z</Time>
            <Position>
              <LatitudeDegrees>44.8383112438023090362548828125</LatitudeDegrees>
              <LongitudeDegrees>-0.57787480764091014862060546875</LongitudeDegrees>
            </Position>
            <AltitudeMeters>5.19999980926513671875</AltitudeMeters>
            <DistanceMeters>10130.564994967</DistanceMeters>
          </Trackpoint>
          <Trackpoint>
            <Time>2022-07-04T08:49:46.000Z</Time>
            <Position>
              <LatitudeDegrees>44.8383025266230106353759765625</LatitudeDegrees>
              <LongitudeDegrees>-0.577868856489658355712890625</LongitudeDegrees>
            </Position>
            <AltitudeMeters>5</AltitudeMeters>
            <DistanceMeters>10131.64429097</DistanceMeters>
          </Trackpoint>
          <Trackpoint>
            <Time>2022-07-04T08:49:48.000Z</Time>
            <Position>
              <LatitudeDegrees>44.8382857628166675567626953125</LatitudeDegrees>
              <LongitudeDegrees>-0.57785519398748874664306640625</LongitudeDegrees>
            </Position>
            <AltitudeMeters>5</AltitudeMeters>
            <DistanceMeters>10133.798695596</DistanceMeters>
          </Trackpoint>
          <Trackpoint>
            <Time>2022-07-04T08:49:50.000Z</Time>
            <Position>
              <LatitudeDegrees>44.8382867686450481414794921875</LatitudeDegrees>
              <LongitudeDegrees>-0.5778546072542667388916015625</LongitudeDegrees>
            </Position>
            <AltitudeMeters>4.80000019073486328125</AltitudeMeters>
            <DistanceMeters>10133.933083664</DistanceMeters>
          </Trackpoint>
          <Trackpoint>
            <Time>2022-07-04T08:49:52.000Z</Time>
            <Position>
              <LatitudeDegrees>44.83827285468578338623046875</LatitudeDegrees>
              <LongitudeDegrees>-0.577849410474300384521484375</LongitudeDegrees>
            </Position>
            <AltitudeMeters>4.599999904632568359375</AltitudeMeters>
            <DistanceMeters>10135.534502319</DistanceMeters>
          </Trackpoint>
          <Trackpoint>
            <Time>2022-07-04T08:49:53.000Z</Time>
            <Position>
              <LatitudeDegrees>44.83827285468578338623046875</LatitudeDegrees>
              <LongitudeDegrees>-0.577849410474300384521484375</LongitudeDegrees>
            </Position>
            <AltitudeMeters>4.599999904632568359375</AltitudeMeters>
            <DistanceMeters>10135.534502319</DistanceMeters>
          </Trackpoint>
          <Trackpoint>
            <Time>2022-07-04T08:50:08.000Z</Time>
            <Position>
              <LatitudeDegrees>44.83835642226040363311767578125</LatitudeDegrees>
              <LongitudeDegrees>-0.577870197594165802001953125</LongitudeDegrees>
            </Position>
            <AltitudeMeters>4.400000095367431640625</AltitudeMeters>
            <DistanceMeters>10144.979029577</DistanceMeters>
          </Trackpoint>
          <Trackpoint>
            <Time>2022-07-04T08:50:10.000Z</Time>
            <Position>
              <LatitudeDegrees>44.83836061321198940277099609375</LatitudeDegrees>
              <LongitudeDegrees>-0.57787078432738780975341796875</LongitudeDegrees>
            </Position>
            <AltitudeMeters>4.400000095367431640625</AltitudeMeters>
            <DistanceMeters>10145.444563501</DistanceMeters>
          </Trackpoint>
          <Trackpoint>
            <Time>2022-07-04T08:50:16.000Z</Time>
            <Position>
              <LatitudeDegrees>44.8386180214583873748779296875</LatitudeDegrees>
              <LongitudeDegrees>-0.577892996370792388916015625</LongitudeDegrees>
            </Position>
            <AltitudeMeters>4.400000095367431640625</AltitudeMeters>
            <DistanceMeters>10174.148294526</DistanceMeters>
          </Trackpoint>
          <Trackpoint>
            <Time>2022-07-04T08:50:22.000Z</Time>
            <Position>
              <LatitudeDegrees>44.83862212859094142913818359375</LatitudeDegrees>
              <LongitudeDegrees>-0.577895008027553558349609375</LongitudeDegrees>
            </Position>
            <AltitudeMeters>4.400000095367431640625</AltitudeMeters>
            <DistanceMeters>10174.632837597</DistanceMeters>
          </Trackpoint>
          <Trackpoint>
            <Time>2022-07-04T08:50:23.000Z</Time>
            <Position>
              <LatitudeDegrees>44.83862212859094142913818359375</LatitudeDegrees>
              <LongitudeDegrees>-0.577895008027553558349609375</LongitudeDegrees>
            </Position>
            <AltitudeMeters>4.400000095367431640625</AltitudeMeters>
            <DistanceMeters>10174.632837597</DistanceMeters>
          </Trackpoint>
          <Trackpoint>
            <Time>2022-07-04T08:51:09.000Z</Time>
            <Position>
              <LatitudeDegrees>44.83859245665371417999267578125</LatitudeDegrees>
              <LongitudeDegrees>-0.5778596363961696624755859375</LongitudeDegrees>
            </Position>
            <AltitudeMeters>4.599999904632568359375</AltitudeMeters>
            <DistanceMeters>10178.95629203</DistanceMeters>
          </Trackpoint>
          <Trackpoint>
            <Time>2022-07-04T08:51:10.000Z</Time>
            <Position>
              <LatitudeDegrees>44.8385794647037982940673828125</LatitudeDegrees>
              <LongitudeDegrees>-0.5778542719781398773193359375</LongitudeDegrees>
            </Position>
            <AltitudeMeters>4.599999904632568359375</AltitudeMeters>
            <DistanceMeters>10180.45879631</DistanceMeters>
          </Trackpoint>
          <Trackpoint>
            <Time>2022-07-04T08:51:12.000Z</Time>
            <Position>
              <LatitudeDegrees>44.8385794647037982940673828125</LatitudeDegrees>
              <LongitudeDegrees>-0.5778542719781398773193359375</LongitudeDegrees>
            </Position>
            <AltitudeMeters>4.599999904632568359375</AltitudeMeters>
            <DistanceMeters>10180.45879631</DistanceMeters>
          </Trackpoint>
          <Trackpoint>
            <Time>2022-07-04T08:51:57.000Z</Time>
            <Position>
              <LatitudeDegrees>44.83857317827641963958740234375</LatitudeDegrees>
              <LongitudeDegrees>-0.57791386730968952178955078125</LongitudeDegrees>
            </Position>
            <AltitudeMeters>4.599999904632568359375</AltitudeMeters>
            <DistanceMeters>10185.213931578</DistanceMeters>
          </Trackpoint>
          <Trackpoint>
            <Time>2022-07-04T08:51:58.000Z</Time>
            <Position>
              <LatitudeDegrees>44.83853881247341632843017578125</LatitudeDegrees>
              <LongitudeDegrees>-0.57790665887296199798583984375</LongitudeDegrees>
            </Position>
            <AltitudeMeters>4.400000095367431640625</AltitudeMeters>
            <DistanceMeters>10189.080946782</DistanceMeters>
          </Trackpoint>
          <Trackpoint>
            <Time>2022-07-04T08:52:02.000Z</Time>
            <Position>
              <LatitudeDegrees>44.838352985680103302001953125</LatitudeDegrees>
              <LongitudeDegrees>-0.57786307297646999359130859375</LongitudeDegrees>
            </Position>
            <AltitudeMeters>4.400000095367431640625</AltitudeMeters>
            <DistanceMeters>10210.047638974</DistanceMeters>
          </Trackpoint>
          <Trackpoint>
            <Time>2022-07-04T08:52:04.000Z</Time>
            <Position>
              <LatitudeDegrees>44.83831920661032199859619140625</LatitudeDegrees>
              <LongitudeDegrees>-0.57786357589066028594970703125</LongitudeDegrees>
            </Position>
            <AltitudeMeters>4.400000095367431640625</AltitudeMeters>
            <DistanceMeters>10213.806903481</DistanceMeters>
          </Trackpoint>
          <Trackpoint>
            <Time>2022-07-04T08:55:51.000Z</Time>
            <Position>
              <LatitudeDegrees>44.8382666520774364471435546875</LatitudeDegrees>
              <LongitudeDegrees>-0.5778971873223781585693359375</LongitudeDegrees>
            </Position>
            <AltitudeMeters>1.39999997615814208984375</AltitudeMeters>
            <DistanceMeters>10220.229472219</DistanceMeters>
          </Trackpoint>
          <Trackpoint>
            <Time>2022-07-04T08:55:52.000Z</Time>
            <Position>
              <LatitudeDegrees>44.8382579348981380462646484375</LatitudeDegrees>
              <LongitudeDegrees>-0.577919483184814453125</LongitudeDegrees>
            </Position>
            <AltitudeMeters>1.39999997615814208984375</AltitudeMeters>
            <DistanceMeters>10222.23631404</DistanceMeters>
          </Trackpoint>
          <Trackpoint>
            <Time>2022-07-04T08:55:56.000Z</Time>
            <Position>
              <LatitudeDegrees>44.83820303343236446380615234375</LatitudeDegrees>
              <LongitudeDegrees>-0.57801537215709686279296875</LongitudeDegrees>
            </Position>
            <AltitudeMeters>1.7999999523162841796875</AltitudeMeters>
            <DistanceMeters>10231.963448303</DistanceMeters>
          </Trackpoint>
          <Trackpoint>
            <Time>2022-07-04T08:55:58.000Z</Time>
            <Position>
              <LatitudeDegrees>44.83818710781633853912353515625</LatitudeDegrees>
              <LongitudeDegrees>-0.57807446457445621490478515625</LongitudeDegrees>
            </Position>
            <AltitudeMeters>1.7999999523162841796875</AltitudeMeters>
            <DistanceMeters>10236.953934335</DistanceMeters>
          </Trackpoint>
          <Trackpoint>
            <Time>2022-07-04T08:56:05.000Z</Time>
            <Position>
              <LatitudeDegrees>44.8381100781261920928955078125</LatitudeDegrees>
              <LongitudeDegrees>-0.57828384451568126678466796875</LongitudeDegrees>
            </Position>
            <AltitudeMeters>2</AltitudeMeters>
            <DistanceMeters>10255.570441363</DistanceMeters>
          </Trackpoint>
          <Trackpoint>
            <Time>2022-07-04T08:56:12.000Z</Time>
            <Position>
              <LatitudeDegrees>44.83806456439197063446044921875</LatitudeDegrees>
              <LongitudeDegrees>-0.57849238626658916473388671875</LongitudeDegrees>
            </Position>
            <AltitudeMeters>2.400000095367431640625</AltitudeMeters>
            <DistanceMeters>10272.791264238</DistanceMeters>
          </Trackpoint>
          <Trackpoint>
            <Time>2022-07-04T08:56:17.000Z</Time>
            <Position>
              <LatitudeDegrees>44.8379866965115070343017578125</LatitudeDegrees>
              <LongitudeDegrees>-0.5786230601370334625244140625</LongitudeDegrees>
            </Position>
            <AltitudeMeters>2.599999904632568359375</AltitudeMeters>
            <DistanceMeters>10286.262620751</DistanceMeters>
          </Trackpoint>
          <Trackpoint>
            <Time>2022-07-04T08:56:19.000Z</Time>
            <Position>
              <LatitudeDegrees>44.837949313223361968994140625</LatitudeDegrees>
              <LongitudeDegrees>-0.5786723457276821136474609375</LongitudeDegrees>
            </Position>
            <AltitudeMeters>2.599999904632568359375</AltitudeMeters>
            <DistanceMeters>10291.957884975</DistanceMeters>
          </Trackpoint>
          <Trackpoint>
            <Time>2022-07-04T08:56:22.000Z</Time>
            <Position>
              <LatitudeDegrees>44.837888292968273162841796875</LatitudeDegrees>
              <LongitudeDegrees>-0.578727163374423980712890625</LongitudeDegrees>
            </Position>
            <AltitudeMeters>2.599999904632568359375</AltitudeMeters>
            <DistanceMeters>10300.010522987</DistanceMeters>
          </Trackpoint>
          <Trackpoint>
            <Time>2022-07-04T08:56:24.000Z</Time>
            <Position>
              <LatitudeDegrees>44.8378442041575908660888671875</LatitudeDegrees>
              <LongitudeDegrees>-0.57874149642884731292724609375</LongitudeDegrees>
            </Position>
            <AltitudeMeters>2.400000095367431640625</AltitudeMeters>
            <DistanceMeters>10305.04604229</DistanceMeters>
          </Trackpoint>
          <Trackpoint>
            <Time>2022-07-04T08:56:26.000Z</Time>
            <Position>
              <LatitudeDegrees>44.837785698473453521728515625</LatitudeDegrees>
              <LongitudeDegrees>-0.57873998768627643585205078125</LongitudeDegrees>
            </Position>
            <AltitudeMeters>2.2000000476837158203125</AltitudeMeters>
            <DistanceMeters>10311.559359351</DistanceMeters>
          </Trackpoint>
          <Trackpoint>
            <Time>2022-07-04T08:56:29.000Z</Time>
            <Position>
              <LatitudeDegrees>44.83770598657429218292236328125</LatitudeDegrees>
              <LongitudeDegrees>-0.57873194105923175811767578125</LongitudeDegrees>
            </Position>
            <AltitudeMeters>2.2000000476837158203125</AltitudeMeters>
            <DistanceMeters>10320.454387726</DistanceMeters>
          </Trackpoint>
          <Trackpoint>
            <Time>2022-07-04T08:56:31.000Z</Time>
            <Position>
              <LatitudeDegrees>44.8376794159412384033203125</LatitudeDegrees>
              <LongitudeDegrees>-0.57872758246958255767822265625</LongitudeDegrees>
            </Position>
            <AltitudeMeters>2.2000000476837158203125</AltitudeMeters>
            <DistanceMeters>10323.432228398</DistanceMeters>
          </Trackpoint>
          <Trackpoint>
            <Time>2022-07-04T08:56:33.000Z</Time>
            <Position>
              <LatitudeDegrees>44.8376762308180332183837890625</LatitudeDegrees>
              <LongitudeDegrees>-0.57872615754604339599609375</LongitudeDegrees>
            </Position>
            <AltitudeMeters>2</AltitudeMeters>
            <DistanceMeters>10323.812335256</DistanceMeters>
          </Trackpoint>
          <Trackpoint>
            <Time>2022-07-04T08:56:35.000Z</Time>
            <Position>
              <LatitudeDegrees>44.8376762308180332183837890625</LatitudeDegrees>
              <LongitudeDegrees>-0.57872615754604339599609375</LongitudeDegrees>
            </Position>
            <AltitudeMeters>1.7999999523162841796875</AltitudeMeters>
            <DistanceMeters>10323.812335256</DistanceMeters>
          </Trackpoint>
          <Trackpoint>
            <Time>2022-07-04T08:59:45.000Z</Time>
            <Position>
              <LatitudeDegrees>44.8376333154737949371337890625</LatitudeDegrees>
              <LongitudeDegrees>-0.5787266604602336883544921875</LongitudeDegrees>
            </Position>
            <AltitudeMeters>1.2000000476837158203125</AltitudeMeters>
            <DistanceMeters>10328.588314014</DistanceMeters>
          </Trackpoint>
          <Trackpoint>
            <Time>2022-07-04T08:59:46.000Z</Time>
            <Position>
              <LatitudeDegrees>44.83760791830718517303466796875</LatitudeDegrees>
              <LongitudeDegrees>-0.578726492822170257568359375</LongitudeDegrees>
            </Position>
            <AltitudeMeters>1.2000000476837158203125</AltitudeMeters>
            <DistanceMeters>10331.41685564</DistanceMeters>
          </Trackpoint>
          <Trackpoint>
            <Time>2022-07-04T08:59:47.000Z</Time>
            <Position>
              <LatitudeDegrees>44.83758076094090938568115234375</LatitudeDegrees>
              <LongitudeDegrees>-0.578723810613155364990234375</LongitudeDegrees>
            </Position>
            <AltitudeMeters>1.2000000476837158203125</AltitudeMeters>
            <DistanceMeters>10334.447299129</DistanceMeters>
          </Trackpoint>
          <Trackpoint>
            <Time>2022-07-04T08:59:54.000Z</Time>
            <Position>
              <LatitudeDegrees>44.837371967732906341552734375</LatitudeDegrees>
              <LongitudeDegrees>-0.57874199934303760528564453125</LongitudeDegrees>
            </Position>
            <AltitudeMeters>1.60000002384185791015625</AltitudeMeters>
            <DistanceMeters>10357.73078339</DistanceMeters>
          </Trackpoint>
          <Trackpoint>
            <Time>2022-07-04T09:00:00.000Z</Time>
            <Position>
              <LatitudeDegrees>44.837251603603363037109375</LatitudeDegrees>
              <LongitudeDegrees>-0.57876639068126678466796875</LongitudeDegrees>
            </Position>
            <AltitudeMeters>1.39999997615814208984375</AltitudeMeters>
            <DistanceMeters>10371.265336606</DistanceMeters>
          </Trackpoint>
          <Trackpoint>
            <Time>2022-07-04T09:00:04.000Z</Time>
            <Position>
              <LatitudeDegrees>44.83718697912991046905517578125</LatitudeDegrees>
              <LongitudeDegrees>-0.57879430241882801055908203125</LongitudeDegrees>
            </Position>
            <AltitudeMeters>1.2000000476837158203125</AltitudeMeters>
            <DistanceMeters>10378.788068096</DistanceMeters>
          </Trackpoint>
          <Trackpoint>
            <Time>2022-07-04T09:00:05.000Z</Time>
            <Position>
              <LatitudeDegrees>44.8371773399412631988525390625</LatitudeDegrees>
              <LongitudeDegrees>-0.57883076369762420654296875</LongitudeDegrees>
            </Position>
            <AltitudeMeters>1.2000000476837158203125</AltitudeMeters>
            <DistanceMeters>10381.858475204</DistanceMeters>
          </Trackpoint>
          <Trackpoint>
            <Time>2022-07-04T09:00:12.000Z</Time>
            <Position>
              <LatitudeDegrees>44.83707793056964874267578125</LatitudeDegrees>
              <LongitudeDegrees>-0.5790768563747406005859375</LongitudeDegrees>
            </Position>
            <AltitudeMeters>1</AltitudeMeters>
            <DistanceMeters>10404.211780327</DistanceMeters>
          </Trackpoint>
          <Trackpoint>
            <Time>2022-07-04T09:00:17.000Z</Time>
            <Position>
              <LatitudeDegrees>44.83700475655496120452880859375</LatitudeDegrees>
              <LongitudeDegrees>-0.57926771230995655059814453125</LongitudeDegrees>
            </Position>
            <AltitudeMeters>1</AltitudeMeters>
            <DistanceMeters>10421.335847378</DistanceMeters>
          </Trackpoint>
          <Trackpoint>
            <Time>2022-07-04T09:00:24.000Z</Time>
            <Position>
              <LatitudeDegrees>44.83691138215363025665283203125</LatitudeDegrees>
              <LongitudeDegrees>-0.579580105841159820556640625</LongitudeDegrees>
            </Position>
            <AltitudeMeters>0.800000011920928955078125</AltitudeMeters>
            <DistanceMeters>10448.092575889</DistanceMeters>
          </Trackpoint>
          <Trackpoint>
            <Time>2022-07-04T09:00:27.000Z</Time>
            <Position>
              <LatitudeDegrees>44.83686360530555248260498046875</LatitudeDegrees>
              <LongitudeDegrees>-0.57972033508121967315673828125</LongitudeDegrees>
            </Position>
            <AltitudeMeters>0.800000011920928955078125</AltitudeMeters>
            <DistanceMeters>10460.371630673</DistanceMeters>
          </Trackpoint>
          <Trackpoint>
            <Time>2022-07-04T09:00:33.000Z</Time>
            <Position>
              <LatitudeDegrees>44.8367763496935367584228515625</LatitudeDegrees>
              <LongitudeDegrees>-0.5800168029963970184326171875</LongitudeDegrees>
            </Position>
            <AltitudeMeters>0.60000002384185791015625</AltitudeMeters>
            <DistanceMeters>10485.706187577</DistanceMeters>
          </Trackpoint>
          <Trackpoint>
            <Time>2022-07-04T09:00:42.000Z</Time>
            <Position>
              <LatitudeDegrees>44.836649112403392791748046875</LatitudeDegrees>
              <LongitudeDegrees>-0.580464564263820648193359375</LongitudeDegrees>
            </Position>
            <AltitudeMeters>0.60000002384185791015625</AltitudeMeters>
            <DistanceMeters>10523.77823481</DistanceMeters>
          </Trackpoint>
          <Trackpoint>
            <Time>2022-07-04T09:00:50.000Z</Time>
            <Position>
              <LatitudeDegrees>44.8365497030317783355712890625</LatitudeDegrees>
              <LongitudeDegrees>-0.58080025948584079742431640625</LongitudeDegrees>
            </Position>
            <AltitudeMeters>1</AltitudeMeters>
            <DistanceMeters>10552.491087667</DistanceMeters>
          </Trackpoint>
          <Trackpoint>
            <Time>2022-07-04T09:00:52.000Z</Time>
            <Position>
              <LatitudeDegrees>44.8365191929042339324951171875</LatitudeDegrees>
              <LongitudeDegrees>-0.58084669522941112518310546875</LongitudeDegrees>
            </Position>
            <AltitudeMeters>1.2000000476837158203125</AltitudeMeters>
            <DistanceMeters>10557.48790279</DistanceMeters>
          </Trackpoint>
          <Trackpoint>
            <Time>2022-07-04T09:00:54.000Z</Time>
            <Position>
              <LatitudeDegrees>44.83648650348186492919921875</LatitudeDegrees>
              <LongitudeDegrees>-0.5808576755225658416748046875</LongitudeDegrees>
            </Position>
            <AltitudeMeters>1.2000000476837158203125</AltitudeMeters>
            <DistanceMeters>10561.22790124</DistanceMeters>
          </Trackpoint>
          <Trackpoint>
            <Time>2022-07-04T09:01:00.000Z</Time>
            <Position>
              <LatitudeDegrees>44.8364241421222686767578125</LatitudeDegrees>
              <LongitudeDegrees>-0.58085306547582149505615234375</LongitudeDegrees>
            </Position>
            <AltitudeMeters>1.39999997615814208984375</AltitudeMeters>
            <DistanceMeters>10568.178506176</DistanceMeters>
          </Trackpoint>
          <Trackpoint>
            <Time>2022-07-04T09:01:02.000Z</Time>
            <Position>
              <LatitudeDegrees>44.83640477992594242095947265625</LatitudeDegrees>
              <LongitudeDegrees>-0.58084753341972827911376953125</LongitudeDegrees>
            </Position>
            <AltitudeMeters>1.60000002384185791015625</AltitudeMeters>
            <DistanceMeters>10570.37853367</DistanceMeters>
          </Trackpoint>
          <Trackpoint>
            <Time>2022-07-04T09:01:05.000Z</Time>
            <Position>
              <LatitudeDegrees>44.83640025369822978973388671875</LatitudeDegrees>
              <LongitudeDegrees>-0.58084887452423572540283203125</LongitudeDegrees>
            </Position>
            <AltitudeMeters>1.60000002384185791015625</AltitudeMeters>
            <DistanceMeters>10570.890268188</DistanceMeters>
          </Trackpoint>
          <Trackpoint>
            <Time>2022-07-04T09:01:09.000Z</Time>
            <Position>
              <LatitudeDegrees>44.83640025369822978973388671875</LatitudeDegrees>
              <LongitudeDegrees>-0.58084887452423572540283203125</LongitudeDegrees>
            </Position>
            <AltitudeMeters>1.7999999523162841796875</AltitudeMeters>
            <DistanceMeters>10570.890268188</DistanceMeters>
          </Trackpoint>
          <Trackpoint>
            <Time>2022-07-04T09:01:24.000Z</Time>
            <Position>
              <LatitudeDegrees>44.83636320568621158599853515625</LatitudeDegrees>
              <LongitudeDegrees>-0.5809146724641323089599609375</LongitudeDegrees>
            </Position>
            <AltitudeMeters>1.7999999523162841796875</AltitudeMeters>
            <DistanceMeters>10577.520382224</DistanceMeters>
          </Trackpoint>
          <Trackpoint>
            <Time>2022-07-04T09:01:26.000Z</Time>
            <Position>
              <LatitudeDegrees>44.83630805276334285736083984375</LatitudeDegrees>
              <LongitudeDegrees>-0.5809247307479381561279296875</LongitudeDegrees>
            </Position>
            <AltitudeMeters>2</AltitudeMeters>
            <DistanceMeters>10583.710262219</DistanceMeters>
          </Trackpoint>
          <Trackpoint>
            <Time>2022-07-04T09:01:32.000Z</Time>
            <Position>
              <LatitudeDegrees>44.8361755348742008209228515625</LatitudeDegrees>
              <LongitudeDegrees>-0.580889023840427398681640625</LongitudeDegrees>
            </Position>
            <AltitudeMeters>2.2000000476837158203125</AltitudeMeters>
            <DistanceMeters>10598.726587964</DistanceMeters>
          </Trackpoint>
          <Trackpoint>
            <Time>2022-07-04T09:01:34.000Z</Time>
            <Position>
              <LatitudeDegrees>44.8361198790371417999267578125</LatitudeDegrees>
              <LongitudeDegrees>-0.58086647652089595794677734375</LongitudeDegrees>
            </Position>
            <AltitudeMeters>2.2000000476837158203125</AltitudeMeters>
            <DistanceMeters>10605.171613305</DistanceMeters>
          </Trackpoint>
          <Trackpoint>
            <Time>2022-07-04T09:01:38.000Z</Time>
            <Position>
              <LatitudeDegrees>44.83602373860776424407958984375</LatitudeDegrees>
              <LongitudeDegrees>-0.580810569226741790771484375</LongitudeDegrees>
            </Position>
            <AltitudeMeters>2.400000095367431640625</AltitudeMeters>
            <DistanceMeters>10616.746553659</DistanceMeters>
          </Trackpoint>
          <Trackpoint>
            <Time>2022-07-04T09:01:43.000Z</Time>
            <Position>
              <LatitudeDegrees>44.83583849854767322540283203125</LatitudeDegrees>
              <LongitudeDegrees>-0.580740831792354583740234375</LongitudeDegrees>
            </Position>
            <AltitudeMeters>2.599999904632568359375</AltitudeMeters>
            <DistanceMeters>10638.08613484</DistanceMeters>
          </Trackpoint>
          <Trackpoint>
            <Time>2022-07-04T09:01:48.000Z</Time>
            <Position>
              <LatitudeDegrees>44.83569097705185413360595703125</LatitudeDegrees>
              <LongitudeDegrees>-0.5806581862270832061767578125</LongitudeDegrees>
            </Position>
            <AltitudeMeters>3</AltitudeMeters>
            <DistanceMeters>10655.753694163</DistanceMeters>
          </Trackpoint>
          <Trackpoint>
            <Time>2022-07-04T09:01:50.000Z</Time>
            <Position>
              <LatitudeDegrees>44.83563481830060482025146484375</LatitudeDegrees>
              <LongitudeDegrees>-0.58066229335963726043701171875</LongitudeDegrees>
            </Position>
            <AltitudeMeters>2.7999999523162841796875</AltitudeMeters>
            <DistanceMeters>10662.012485709</DistanceMeters>
          </Trackpoint>
          <Trackpoint>
            <Time>2022-07-04T09:01:51.000Z</Time>
            <Position>
              <LatitudeDegrees>44.83561134897172451019287109375</LatitudeDegrees>
              <LongitudeDegrees>-0.58067704550921916961669921875</LongitudeDegrees>
            </Position>
            <AltitudeMeters>2.7999999523162841796875</AltitudeMeters>
            <DistanceMeters>10664.872774026</DistanceMeters>
          </Trackpoint>
          <Trackpoint>
            <Time>2022-07-04T09:01:56.000Z</Time>
            <Position>
              <LatitudeDegrees>44.83550473116338253021240234375</LatitudeDegrees>
              <LongitudeDegrees>-0.580641590058803558349609375</LongitudeDegrees>
            </Position>
            <AltitudeMeters>3</AltitudeMeters>
            <DistanceMeters>10677.064371882</DistanceMeters>
          </Trackpoint>
          <Trackpoint>
            <Time>2022-07-04T09:01:57.000Z</Time>
            <Position>
              <LatitudeDegrees>44.835472293198108673095703125</LatitudeDegrees>
              <LongitudeDegrees>-0.58063513599336147308349609375</LongitudeDegrees>
            </Position>
            <AltitudeMeters>3.2000000476837158203125</AltitudeMeters>
            <DistanceMeters>10680.71022878</DistanceMeters>
          </Trackpoint>
          <Trackpoint>
            <Time>2022-07-04T09:01:59.000Z</Time>
            <Position>
              <LatitudeDegrees>44.8353725485503673553466796875</LatitudeDegrees>
              <LongitudeDegrees>-0.5805827490985393524169921875</LongitudeDegrees>
            </Position>
            <AltitudeMeters>3.2000000476837158203125</AltitudeMeters>
            <DistanceMeters>10692.556977199</DistanceMeters>
          </Trackpoint>
          <Trackpoint>
            <Time>2022-07-04T09:02:01.000Z</Time>
            <Position>
              <LatitudeDegrees>44.8353048227727413177490234375</LatitudeDegrees>
              <LongitudeDegrees>-0.580566823482513427734375</LongitudeDegrees>
            </Position>
            <AltitudeMeters>3.2000000476837158203125</AltitudeMeters>
            <DistanceMeters>10700.199393992</DistanceMeters>
          </Trackpoint>
          <Trackpoint>
            <Time>2022-07-04T09:02:05.000Z</Time>
            <Position>
              <LatitudeDegrees>44.83521689660847187042236328125</LatitudeDegrees>
              <LongitudeDegrees>-0.58055399917066097259521484375</LongitudeDegrees>
            </Position>
            <AltitudeMeters>3.400000095367431640625</AltitudeMeters>
            <DistanceMeters>10710.038216049</DistanceMeters>
          </Trackpoint>
          <Trackpoint>
            <Time>2022-07-04T09:02:08.000Z</Time>
            <Position>
              <LatitudeDegrees>44.83518186025321483612060546875</LatitudeDegrees>
              <LongitudeDegrees>-0.58058098889887332916259765625</LongitudeDegrees>
            </Position>
            <AltitudeMeters>3.7999999523162841796875</AltitudeMeters>
            <DistanceMeters>10714.481159568</DistanceMeters>
          </Trackpoint>
          <Trackpoint>
            <Time>2022-07-04T09:02:13.000Z</Time>
            <Position>
              <LatitudeDegrees>44.83509820885956287384033203125</LatitudeDegrees>
              <LongitudeDegrees>-0.5805616267025470733642578125</LongitudeDegrees>
            </Position>
            <AltitudeMeters>4</AltitudeMeters>
            <DistanceMeters>10723.916120807</DistanceMeters>
          </Trackpoint>
          <Trackpoint>
            <Time>2022-07-04T09:02:16.000Z</Time>
            <Position>
              <LatitudeDegrees>44.83504481613636016845703125</LatitudeDegrees>
              <LongitudeDegrees>-0.580534972250461578369140625</LongitudeDegrees>
            </Position>
            <AltitudeMeters>4.19999980926513671875</AltitudeMeters>
            <DistanceMeters>10730.219479939</DistanceMeters>
          </Trackpoint>
          <Trackpoint>
            <Time>2022-07-04T09:02:18.000Z</Time>
            <Position>
              <LatitudeDegrees>44.83499460853636264801025390625</LatitudeDegrees>
              <LongitudeDegrees>-0.58052399195730686187744140625</LongitudeDegrees>
            </Position>
            <AltitudeMeters>4.400000095367431640625</AltitudeMeters>
            <DistanceMeters>10735.874168321</DistanceMeters>
          </Trackpoint>
          <Trackpoint>
            <Time>2022-07-04T09:02:19.000Z</Time>
            <Position>
              <LatitudeDegrees>44.83496510423719882965087890625</LatitudeDegrees>
              <LongitudeDegrees>-0.58052902109920978546142578125</LongitudeDegrees>
            </Position>
            <AltitudeMeters>4.400000095367431640625</AltitudeMeters>
            <DistanceMeters>10739.182408434</DistanceMeters>
          </Trackpoint>
          <Trackpoint>
            <Time>2022-07-04T09:02:22.000Z</Time>
            <Position>
              <LatitudeDegrees>44.83488564379513263702392578125</LatitudeDegrees>
              <LongitudeDegrees>-0.58060093782842159271240234375</LongitudeDegrees>
            </Position>
            <AltitudeMeters>4.599999904632568359375</AltitudeMeters>
            <DistanceMeters>10749.691349147</DistanceMeters>
          </Trackpoint>
          <Trackpoint>
            <Time>2022-07-04T09:02:24.000Z</Time>
            <Position>
              <LatitudeDegrees>44.83485312201082706451416015625</LatitudeDegrees>
              <LongitudeDegrees>-0.58069079183042049407958984375</LongitudeDegrees>
            </Position>
            <AltitudeMeters>4.599999904632568359375</AltitudeMeters>
            <DistanceMeters>10757.653204248</DistanceMeters>
          </Trackpoint>
          <Trackpoint>
            <Time>2022-07-04T09:02:25.000Z</Time>
            <Position>
              <LatitudeDegrees>44.83483853749930858612060546875</LatitudeDegrees>
              <LongitudeDegrees>-0.5807275883853435516357421875</LongitudeDegrees>
            </Position>
            <AltitudeMeters>4.599999904632568359375</AltitudeMeters>
            <DistanceMeters>10760.980496498</DistanceMeters>
          </Trackpoint>
          <Trackpoint>
            <Time>2022-07-04T09:02:28.000Z</Time>
            <Position>
              <LatitudeDegrees>44.83478070236742496490478515625</LatitudeDegrees>
              <LongitudeDegrees>-0.58083127252757549285888671875</LongitudeDegrees>
            </Position>
            <AltitudeMeters>4.400000095367431640625</AltitudeMeters>
            <DistanceMeters>10771.392753592</DistanceMeters>
          </Trackpoint>
          <Trackpoint>
            <Time>2022-07-04T09:02:31.000Z</Time>
            <Position>
              <LatitudeDegrees>44.8347048461437225341796875</LatitudeDegrees>
              <LongitudeDegrees>-0.58092213235795497894287109375</LongitudeDegrees>
            </Position>
            <AltitudeMeters>4.400000095367431640625</AltitudeMeters>
            <DistanceMeters>10782.471010176</DistanceMeters>
          </Trackpoint>
          <Trackpoint>
            <Time>2022-07-04T09:02:37.000Z</Time>
            <Position>
              <LatitudeDegrees>44.83456067740917205810546875</LatitudeDegrees>
              <LongitudeDegrees>-0.581157915294170379638671875</LongitudeDegrees>
            </Position>
            <AltitudeMeters>4</AltitudeMeters>
            <DistanceMeters>10807.04400718</DistanceMeters>
          </Trackpoint>
          <Trackpoint>
            <Time>2022-07-04T09:02:38.000Z</Time>
            <Position>
              <LatitudeDegrees>44.8345330171287059783935546875</LatitudeDegrees>
              <LongitudeDegrees>-0.58119270019233226776123046875</LongitudeDegrees>
            </Position>
            <AltitudeMeters>4</AltitudeMeters>
            <DistanceMeters>10811.168648257</DistanceMeters>
          </Trackpoint>
          <Trackpoint>
            <Time>2022-07-04T09:02:40.000Z</Time>
            <Position>
              <LatitudeDegrees>44.83450300991535186767578125</LatitudeDegrees>
              <LongitudeDegrees>-0.58126444928348064422607421875</LongitudeDegrees>
            </Position>
            <AltitudeMeters>3.7999999523162841796875</AltitudeMeters>
            <DistanceMeters>10817.742683994</DistanceMeters>
          </Trackpoint>
          <Trackpoint>
            <Time>2022-07-04T09:02:43.000Z</Time>
            <Position>
              <LatitudeDegrees>44.83445464633405208587646484375</LatitudeDegrees>
              <LongitudeDegrees>-0.58136276900768280029296875</LongitudeDegrees>
            </Position>
            <AltitudeMeters>4</AltitudeMeters>
            <DistanceMeters>10827.187211251</DistanceMeters>
          </Trackpoint>
          <Trackpoint>
            <Time>2022-07-04T09:02:50.000Z</Time>
            <Position>
              <LatitudeDegrees>44.83430176042020320892333984375</LatitudeDegrees>
              <LongitudeDegrees>-0.58163761161267757415771484375</LongitudeDegrees>
            </Position>
            <AltitudeMeters>4.19999980926513671875</AltitudeMeters>
            <DistanceMeters>10854.758062436</DistanceMeters>
          </Trackpoint>
          <Trackpoint>
            <Time>2022-07-04T09:02:55.000Z</Time>
            <Position>
              <LatitudeDegrees>44.83419748954474925994873046875</LatitudeDegrees>
              <LongitudeDegrees>-0.58184732683002948760986328125</LongitudeDegrees>
            </Position>
            <AltitudeMeters>4</AltitudeMeters>
            <DistanceMeters>10874.973976951</DistanceMeters>
          </Trackpoint>
          <Trackpoint>
            <Time>2022-07-04T09:03:01.000Z</Time>
            <Position>
              <LatitudeDegrees>44.83412213623523712158203125</LatitudeDegrees>
              <LongitudeDegrees>-0.5820412002503871917724609375</LongitudeDegrees>
            </Position>
            <AltitudeMeters>4</AltitudeMeters>
            <DistanceMeters>10892.42425597</DistanceMeters>
          </Trackpoint>
          <Trackpoint>
            <Time>2022-07-04T09:03:05.000Z</Time>
            <Position>
              <LatitudeDegrees>44.83401342295110225677490234375</LatitudeDegrees>
              <LongitudeDegrees>-0.582125186920166015625</LongitudeDegrees>
            </Position>
            <AltitudeMeters>4</AltitudeMeters>
            <DistanceMeters>10906.221467338</DistanceMeters>
          </Trackpoint>
          <Trackpoint>
            <Time>2022-07-04T09:03:06.000Z</Time>
            <Position>
              <LatitudeDegrees>44.8339898698031902313232421875</LatitudeDegrees>
              <LongitudeDegrees>-0.58215267956256866455078125</LongitudeDegrees>
            </Position>
            <AltitudeMeters>3.7999999523162841796875</AltitudeMeters>
            <DistanceMeters>10909.62522821</DistanceMeters>
          </Trackpoint>
          <Trackpoint>
            <Time>2022-07-04T09:03:11.000Z</Time>
            <Position>
              <LatitudeDegrees>44.83388115651905536651611328125</LatitudeDegrees>
              <LongitudeDegrees>-0.58235694654285907745361328125</LongitudeDegrees>
            </Position>
            <AltitudeMeters>3.599999904632568359375</AltitudeMeters>
            <DistanceMeters>10929.783438448</DistanceMeters>
          </Trackpoint>
          <Trackpoint>
            <Time>2022-07-04T09:03:18.000Z</Time>
            <Position>
              <LatitudeDegrees>44.833737909793853759765625</LatitudeDegrees>
              <LongitudeDegrees>-0.58264779858291149139404296875</LongitudeDegrees>
            </Position>
            <AltitudeMeters>3.599999904632568359375</AltitudeMeters>
            <DistanceMeters>10957.734218287</DistanceMeters>
          </Trackpoint>
          <Trackpoint>
            <Time>2022-07-04T09:03:21.000Z</Time>
            <Position>
              <LatitudeDegrees>44.83368099667131900787353515625</LatitudeDegrees>
              <LongitudeDegrees>-0.58279766701161861419677734375</LongitudeDegrees>
            </Position>
            <AltitudeMeters>3.2000000476837158203125</AltitudeMeters>
            <DistanceMeters>10971.15285176</DistanceMeters>
          </Trackpoint>
          <Trackpoint>
            <Time>2022-07-04T09:03:24.000Z</Time>
            <Position>
              <LatitudeDegrees>44.83361930586397647857666015625</LatitudeDegrees>
              <LongitudeDegrees>-0.5829135887324810028076171875</LongitudeDegrees>
            </Position>
            <AltitudeMeters>3</AltitudeMeters>
            <DistanceMeters>10982.592426395</DistanceMeters>
          </Trackpoint>
          <Trackpoint>
            <Time>2022-07-04T09:03:27.000Z</Time>
            <Position>
              <LatitudeDegrees>44.83355945907533168792724609375</LatitudeDegrees>
              <LongitudeDegrees>-0.5830265767872333526611328125</LongitudeDegrees>
            </Position>
            <AltitudeMeters>2.7999999523162841796875</AltitudeMeters>
            <DistanceMeters>10993.723945113</DistanceMeters>
          </Trackpoint>
          <Trackpoint>
            <Time>2022-07-04T09:03:28.000Z</Time>
            <Position>
              <LatitudeDegrees>44.8335345648229122161865234375</LatitudeDegrees>
              <LongitudeDegrees>-0.58305935002863407135009765625</LongitudeDegrees>
            </Position>
            <AltitudeMeters>2.599999904632568359375</AltitudeMeters>
            <DistanceMeters>10997.514308106</DistanceMeters>
          </Trackpoint>
          <Trackpoint>
            <Time>2022-07-04T09:03:33.000Z</Time>
            <Position>
              <LatitudeDegrees>44.8334363289177417755126953125</LatitudeDegrees>
              <LongitudeDegrees>-0.58324945159256458282470703125</LongitudeDegrees>
            </Position>
            <AltitudeMeters>2.599999904632568359375</AltitudeMeters>
            <DistanceMeters>11016.08030062</DistanceMeters>
          </Trackpoint>
          <Trackpoint>
            <Time>2022-07-04T09:03:37.000Z</Time>
            <Position>
              <LatitudeDegrees>44.83337840996682643890380859375</LatitudeDegrees>
              <LongitudeDegrees>-0.583363361656665802001953125</LongitudeDegrees>
            </Position>
            <AltitudeMeters>2.400000095367431640625</AltitudeMeters>
            <DistanceMeters>11027.143467261</DistanceMeters>
          </Trackpoint>
          <Trackpoint>
            <Time>2022-07-04T09:03:39.000Z</Time>
            <Position>
              <LatitudeDegrees>44.8333561979234218597412109375</LatitudeDegrees>
              <LongitudeDegrees>-0.58339747600257396697998046875</LongitudeDegrees>
            </Position>
            <AltitudeMeters>2.400000095367431640625</AltitudeMeters>
            <DistanceMeters>11030.796747018</DistanceMeters>
          </Trackpoint>
          <Trackpoint>
            <Time>2022-07-04T09:03:43.000Z</Time>
            <Position>
              <LatitudeDegrees>44.8333208262920379638671875</LatitudeDegrees>
              <LongitudeDegrees>-0.5834916047751903533935546875</LongitudeDegrees>
            </Position>
            <AltitudeMeters>2.7999999523162841796875</AltitudeMeters>
            <DistanceMeters>11039.205403186</DistanceMeters>
          </Trackpoint>
          <Trackpoint>
            <Time>2022-07-04T09:03:44.000Z</Time>
            <Position>
              <LatitudeDegrees>44.833314456045627593994140625</LatitudeDegrees>
              <LongitudeDegrees>-0.58351834304630756378173828125</LongitudeDegrees>
            </Position>
            <AltitudeMeters>2.7999999523162841796875</AltitudeMeters>
            <DistanceMeters>11041.43397718</DistanceMeters>
          </Trackpoint>
          <Trackpoint>
            <Time>2022-07-04T09:03:47.000Z</Time>
            <Position>
              <LatitudeDegrees>44.83327413909137248992919921875</LatitudeDegrees>
              <LongitudeDegrees>-0.5835908465087413787841796875</LongitudeDegrees>
            </Position>
            <AltitudeMeters>3</AltitudeMeters>
            <DistanceMeters>11048.706470406</DistanceMeters>
          </Trackpoint>
          <Trackpoint>
            <Time>2022-07-04T09:03:50.000Z</Time>
            <Position>
              <LatitudeDegrees>44.83324027620255947113037109375</LatitudeDegrees>
              <LongitudeDegrees>-0.58364055119454860687255859375</LongitudeDegrees>
            </Position>
            <AltitudeMeters>3.2000000476837158203125</AltitudeMeters>
            <DistanceMeters>11054.14628295</DistanceMeters>
          </Trackpoint>
          <Trackpoint>
            <Time>2022-07-04T09:03:52.000Z</Time>
            <Position>
              <LatitudeDegrees>44.833216555416584014892578125</LatitudeDegrees>
              <LongitudeDegrees>-0.58368480764329433441162109375</LongitudeDegrees>
            </Position>
            <AltitudeMeters>3.2000000476837158203125</AltitudeMeters>
            <DistanceMeters>11058.525767208</DistanceMeters>
          </Trackpoint>
          <Trackpoint>
            <Time>2022-07-04T09:04:00.000Z</Time>
            <Position>
              <LatitudeDegrees>44.83309141360223293304443359375</LatitudeDegrees>
              <LongitudeDegrees>-0.58389502577483654022216796875</LongitudeDegrees>
            </Position>
            <AltitudeMeters>3.400000095367431640625</AltitudeMeters>
            <DistanceMeters>11080.189774065</DistanceMeters>
          </Trackpoint>
          <Trackpoint>
            <Time>2022-07-04T09:04:02.000Z</Time>
            <Position>
              <LatitudeDegrees>44.8330574668943881988525390625</LatitudeDegrees>
              <LongitudeDegrees>-0.58394565246999263763427734375</LongitudeDegrees>
            </Position>
            <AltitudeMeters>3.400000095367431640625</AltitudeMeters>
            <DistanceMeters>11085.6898428</DistanceMeters>
          </Trackpoint>
          <Trackpoint>
            <Time>2022-07-04T09:04:07.000Z</Time>
            <Position>
              <LatitudeDegrees>44.832981526851654052734375</LatitudeDegrees>
              <LongitudeDegrees>-0.58406216092407703399658203125</LongitudeDegrees>
            </Position>
            <AltitudeMeters>3.599999904632568359375</AltitudeMeters>
            <DistanceMeters>11098.18034442</DistanceMeters>
          </Trackpoint>
          <Trackpoint>
            <Time>2022-07-04T09:04:08.000Z</Time>
            <Position>
              <LatitudeDegrees>44.83297683298587799072265625</LatitudeDegrees>
              <LongitudeDegrees>-0.58407288976013660430908203125</LongitudeDegrees>
            </Position>
            <AltitudeMeters>3.599999904632568359375</AltitudeMeters>
            <DistanceMeters>11099.176993008</DistanceMeters>
          </Trackpoint>
          <Trackpoint>
            <Time>2022-07-04T09:04:09.000Z</Time>
            <Position>
              <LatitudeDegrees>44.83297792263329029083251953125</LatitudeDegrees>
              <LongitudeDegrees>-0.58408177457749843597412109375</LongitudeDegrees>
            </Position>
            <AltitudeMeters>3.599999904632568359375</AltitudeMeters>
            <DistanceMeters>11099.888107824</DistanceMeters>
          </Trackpoint>
          <Trackpoint>
            <Time>2022-07-04T09:04:10.000Z</Time>
            <Position>
              <LatitudeDegrees>44.83297725208103656768798828125</LatitudeDegrees>
              <LongitudeDegrees>-0.5840957723557949066162109375</LongitudeDegrees>
            </Position>
            <AltitudeMeters>3.599999904632568359375</AltitudeMeters>
            <DistanceMeters>11100.996300224</DistanceMeters>
          </Trackpoint>
          <Trackpoint>
            <Time>2022-07-04T09:04:11.000Z</Time>
            <Position>
              <LatitudeDegrees>44.83297146856784820556640625</LatitudeDegrees>
              <LongitudeDegrees>-0.58411739766597747802734375</LongitudeDegrees>
            </Position>
            <AltitudeMeters>3.599999904632568359375</AltitudeMeters>
            <DistanceMeters>11102.819228673</DistanceMeters>
          </Trackpoint>
          <Trackpoint>
            <Time>2022-07-04T09:04:13.000Z</Time>
            <Position>
              <LatitudeDegrees>44.832938276231288909912109375</LatitudeDegrees>
              <LongitudeDegrees>-0.58416274376213550567626953125</LongitudeDegrees>
            </Position>
            <AltitudeMeters>3.7999999523162841796875</AltitudeMeters>
            <DistanceMeters>11107.962974777</DistanceMeters>
          </Trackpoint>
          <Trackpoint>
            <Time>2022-07-04T09:04:14.000Z</Time>
            <Position>
              <LatitudeDegrees>44.83291237615048885345458984375</LatitudeDegrees>
              <LongitudeDegrees>-0.58418621309101581573486328125</LongitudeDegrees>
            </Position>
            <AltitudeMeters>3.7999999523162841796875</AltitudeMeters>
            <DistanceMeters>11111.389211689</DistanceMeters>
          </Trackpoint>
          <Trackpoint>
            <Time>2022-07-04T09:04:16.000Z</Time>
            <Position>
              <LatitudeDegrees>44.8328648507595062255859375</LatitudeDegrees>
              <LongitudeDegrees>-0.58424756862223148345947265625</LongitudeDegrees>
            </Position>
            <AltitudeMeters>4</AltitudeMeters>
            <DistanceMeters>11118.561053533</DistanceMeters>
          </Trackpoint>
          <Trackpoint>
            <Time>2022-07-04T09:04:22.000Z</Time>
            <Position>
              <LatitudeDegrees>44.83274004422128200531005859375</LatitudeDegrees>
              <LongitudeDegrees>-0.5844236724078655242919921875</LongitudeDegrees>
            </Position>
            <AltitudeMeters>4</AltitudeMeters>
            <DistanceMeters>11138.212522923</DistanceMeters>
          </Trackpoint>
          <Trackpoint>
            <Time>2022-07-04T09:04:28.000Z</Time>
            <Position>
              <LatitudeDegrees>44.8326383717358112335205078125</LatitudeDegrees>
              <LongitudeDegrees>-0.5846315436065196990966796875</LongitudeDegrees>
            </Position>
            <AltitudeMeters>4.19999980926513671875</AltitudeMeters>
            <DistanceMeters>11158.144362104</DistanceMeters>
          </Trackpoint>
          <Trackpoint>
            <Time>2022-07-04T09:04:31.000Z</Time>
            <Position>
              <LatitudeDegrees>44.8325874097645282745361328125</LatitudeDegrees>
              <LongitudeDegrees>-0.58474042452871799468994140625</LongitudeDegrees>
            </Position>
            <AltitudeMeters>4.19999980926513671875</AltitudeMeters>
            <DistanceMeters>11168.441943747</DistanceMeters>
          </Trackpoint>
          <Trackpoint>
            <Time>2022-07-04T09:04:35.000Z</Time>
            <Position>
              <LatitudeDegrees>44.8325121402740478515625</LatitudeDegrees>
              <LongitudeDegrees>-0.58486447669565677642822265625</LongitudeDegrees>
            </Position>
            <AltitudeMeters>4.400000095367431640625</AltitudeMeters>
            <DistanceMeters>11181.328491221</DistanceMeters>
          </Trackpoint>
          <Trackpoint>
            <Time>2022-07-04T09:04:42.000Z</Time>
            <Position>
              <LatitudeDegrees>44.83236654661595821380615234375</LatitudeDegrees>
              <LongitudeDegrees>-0.5850767903029918670654296875</LongitudeDegrees>
            </Position>
            <AltitudeMeters>4.599999904632568359375</AltitudeMeters>
            <DistanceMeters>11204.640270013</DistanceMeters>
          </Trackpoint>
          <Trackpoint>
            <Time>2022-07-04T09:04:48.000Z</Time>
            <Position>
              <LatitudeDegrees>44.8322719149291515350341796875</LatitudeDegrees>
              <LongitudeDegrees>-0.5852809734642505645751953125</LongitudeDegrees>
            </Position>
            <AltitudeMeters>4.80000019073486328125</AltitudeMeters>
            <DistanceMeters>11223.893207658</DistanceMeters>
          </Trackpoint>
          <Trackpoint>
            <Time>2022-07-04T09:04:49.000Z</Time>
            <Position>
              <LatitudeDegrees>44.8322559893131256103515625</LatitudeDegrees>
              <LongitudeDegrees>-0.58531357906758785247802734375</LongitudeDegrees>
            </Position>
            <AltitudeMeters>5</AltitudeMeters>
            <DistanceMeters>11227.01610416</DistanceMeters>
          </Trackpoint>
          <Trackpoint>
            <Time>2022-07-04T09:04:56.000Z</Time>
            <Position>
              <LatitudeDegrees>44.83214593492448329925537109375</LatitudeDegrees>
              <LongitudeDegrees>-0.58557710610330104827880859375</LongitudeDegrees>
            </Position>
            <AltitudeMeters>5.19999980926513671875</AltitudeMeters>
            <DistanceMeters>11251.155695354</DistanceMeters>
          </Trackpoint>
          <Trackpoint>
            <Time>2022-07-04T09:05:06.000Z</Time>
            <Position>
              <LatitudeDegrees>44.83196455053985118865966796875</LatitudeDegrees>
              <LongitudeDegrees>-0.58593937195837497711181640625</LongitudeDegrees>
            </Position>
            <AltitudeMeters>5.400000095367431640625</AltitudeMeters>
            <DistanceMeters>11286.158950376</DistanceMeters>
          </Trackpoint>
          <Trackpoint>
            <Time>2022-07-04T09:05:14.000Z</Time>
            <Position>
              <LatitudeDegrees>44.83180244453251361846923828125</LatitudeDegrees>
              <LongitudeDegrees>-0.5862197466194629669189453125</LongitudeDegrees>
            </Position>
            <AltitudeMeters>5.80000019073486328125</AltitudeMeters>
            <DistanceMeters>11314.712541078</DistanceMeters>
          </Trackpoint>
          <Trackpoint>
            <Time>2022-07-04T09:05:16.000Z</Time>
            <Position>
              <LatitudeDegrees>44.83175818808376789093017578125</LatitudeDegrees>
              <LongitudeDegrees>-0.586290657520294189453125</LongitudeDegrees>
            </Position>
            <AltitudeMeters>5.80000019073486328125</AltitudeMeters>
            <DistanceMeters>11322.168354285</DistanceMeters>
          </Trackpoint>
          <Trackpoint>
            <Time>2022-07-04T09:05:23.000Z</Time>
            <Position>
              <LatitudeDegrees>44.83161670155823230743408203125</LatitudeDegrees>
              <LongitudeDegrees>-0.58653616346418857574462890625</LongitudeDegrees>
            </Position>
            <AltitudeMeters>6.19999980926513671875</AltitudeMeters>
            <DistanceMeters>11347.138691656</DistanceMeters>
          </Trackpoint>
          <Trackpoint>
            <Time>2022-07-04T09:05:26.000Z</Time>
            <Position>
              <LatitudeDegrees>44.831551574170589447021484375</LatitudeDegrees>
              <LongitudeDegrees>-0.5866318009793758392333984375</LongitudeDegrees>
            </Position>
            <AltitudeMeters>6.19999980926513671875</AltitudeMeters>
            <DistanceMeters>11357.604580403</DistanceMeters>
          </Trackpoint>
          <Trackpoint>
            <Time>2022-07-04T09:05:27.000Z</Time>
            <Position>
              <LatitudeDegrees>44.83153590001165866851806640625</LatitudeDegrees>
              <LongitudeDegrees>-0.5866659991443157196044921875</LongitudeDegrees>
            </Position>
            <AltitudeMeters>6.400000095367431640625</AltitudeMeters>
            <DistanceMeters>11360.818675524</DistanceMeters>
          </Trackpoint>
          <Trackpoint>
            <Time>2022-07-04T09:05:28.000Z</Time>
            <Position>
              <LatitudeDegrees>44.8315168730914592742919921875</LatitudeDegrees>
              <LongitudeDegrees>-0.5867012031376361846923828125</LongitudeDegrees>
            </Position>
            <AltitudeMeters>6.400000095367431640625</AltitudeMeters>
            <DistanceMeters>11364.312765299</DistanceMeters>
          </Trackpoint>
          <Trackpoint>
            <Time>2022-07-04T09:05:34.000Z</Time>
            <Position>
              <LatitudeDegrees>44.8314072377979755401611328125</LatitudeDegrees>
              <LongitudeDegrees>-0.586912594735622406005859375</LongitudeDegrees>
            </Position>
            <AltitudeMeters>6.599999904632568359375</AltitudeMeters>
            <DistanceMeters>11384.98451601</DistanceMeters>
          </Trackpoint>
          <Trackpoint>
            <Time>2022-07-04T09:05:38.000Z</Time>
            <Position>
              <LatitudeDegrees>44.8313294537365436553955078125</LatitudeDegrees>
              <LongitudeDegrees>-0.58702935464680194854736328125</LongitudeDegrees>
            </Position>
            <AltitudeMeters>6.599999904632568359375</AltitudeMeters>
            <DistanceMeters>11397.629854822</DistanceMeters>
          </Trackpoint>
          <Trackpoint>
            <Time>2022-07-04T09:05:41.000Z</Time>
            <Position>
              <LatitudeDegrees>44.83127773739397525787353515625</LatitudeDegrees>
              <LongitudeDegrees>-0.587125159800052642822265625</LongitudeDegrees>
            </Position>
            <AltitudeMeters>6.80000019073486328125</AltitudeMeters>
            <DistanceMeters>11407.133476479</DistanceMeters>
          </Trackpoint>
          <Trackpoint>
            <Time>2022-07-04T09:05:47.000Z</Time>
            <Position>
              <LatitudeDegrees>44.8312097601592540740966796875</LatitudeDegrees>
              <LongitudeDegrees>-0.5872922949492931365966796875</LongitudeDegrees>
            </Position>
            <AltitudeMeters>7</AltitudeMeters>
            <DistanceMeters>11422.341313863</DistanceMeters>
          </Trackpoint>
          <Trackpoint>
            <Time>2022-07-04T09:05:49.000Z</Time>
            <Position>
              <LatitudeDegrees>44.8311792500317096710205078125</LatitudeDegrees>
              <LongitudeDegrees>-0.58734686113893985748291015625</LongitudeDegrees>
            </Position>
            <AltitudeMeters>7</AltitudeMeters>
            <DistanceMeters>11427.826586391</DistanceMeters>
          </Trackpoint>
          <Trackpoint>
            <Time>2022-07-04T09:05:54.000Z</Time>
            <Position>
              <LatitudeDegrees>44.831087887287139892578125</LatitudeDegrees>
              <LongitudeDegrees>-0.5875041894614696502685546875</LongitudeDegrees>
            </Position>
            <AltitudeMeters>7.400000095367431640625</AltitudeMeters>
            <DistanceMeters>11443.877383285</DistanceMeters>
          </Trackpoint>
          <Trackpoint>
            <Time>2022-07-04T09:05:55.000Z</Time>
            <Position>
              <LatitudeDegrees>44.831068776547908782958984375</LatitudeDegrees>
              <LongitudeDegrees>-0.58753176592290401458740234375</LongitudeDegrees>
            </Position>
            <AltitudeMeters>7.400000095367431640625</AltitudeMeters>
            <DistanceMeters>11446.921206281</DistanceMeters>
          </Trackpoint>
          <Trackpoint>
            <Time>2022-07-04T09:06:02.000Z</Time>
            <Position>
              <LatitudeDegrees>44.83095151372253894805908203125</LatitudeDegrees>
              <LongitudeDegrees>-0.58769538067281246185302734375</LongitudeDegrees>
            </Position>
            <AltitudeMeters>7.80000019073486328125</AltitudeMeters>
            <DistanceMeters>11465.282275803</DistanceMeters>
          </Trackpoint>
          <Trackpoint>
            <Time>2022-07-04T09:06:05.000Z</Time>
            <Position>
              <LatitudeDegrees>44.83088932000100612640380859375</LatitudeDegrees>
              <LongitudeDegrees>-0.5877717398107051849365234375</LongitudeDegrees>
            </Position>
            <AltitudeMeters>7.80000019073486328125</AltitudeMeters>
            <DistanceMeters>11474.461089082</DistanceMeters>
          </Trackpoint>
          <Trackpoint>
            <Time>2022-07-04T09:06:13.000Z</Time>
            <Position>
              <LatitudeDegrees>44.83077297918498516082763671875</LatitudeDegrees>
              <LongitudeDegrees>-0.5880139768123626708984375</LongitudeDegrees>
            </Position>
            <AltitudeMeters>8.19999980926513671875</AltitudeMeters>
            <DistanceMeters>11497.553949331</DistanceMeters>
          </Trackpoint>
          <Trackpoint>
            <Time>2022-07-04T09:06:20.000Z</Time>
            <Position>
              <LatitudeDegrees>44.83067943714559078216552734375</LatitudeDegrees>
              <LongitudeDegrees>-0.58820349164307117462158203125</LongitudeDegrees>
            </Position>
            <AltitudeMeters>8.3999996185302734375</AltitudeMeters>
            <DistanceMeters>11515.779765968</DistanceMeters>
          </Trackpoint>
          <Trackpoint>
            <Time>2022-07-04T09:06:29.000Z</Time>
            <Position>
              <LatitudeDegrees>44.830541051924228668212890625</LatitudeDegrees>
              <LongitudeDegrees>-0.588497109711170196533203125</LongitudeDegrees>
            </Position>
            <AltitudeMeters>8.80000019073486328125</AltitudeMeters>
            <DistanceMeters>11543.60750816</DistanceMeters>
          </Trackpoint>
          <Trackpoint>
            <Time>2022-07-04T09:06:35.000Z</Time>
            <Position>
              <LatitudeDegrees>44.8304238729178905487060546875</LatitudeDegrees>
              <LongitudeDegrees>-0.58869785629212856292724609375</LongitudeDegrees>
            </Position>
            <AltitudeMeters>9</AltitudeMeters>
            <DistanceMeters>11564.130638663</DistanceMeters>
          </Trackpoint>
          <Trackpoint>
            <Time>2022-07-04T09:06:43.000Z</Time>
            <Position>
              <LatitudeDegrees>44.8302783630788326263427734375</LatitudeDegrees>
              <LongitudeDegrees>-0.58894076384603977203369140625</LongitudeDegrees>
            </Position>
            <AltitudeMeters>9.19999980926513671875</AltitudeMeters>
            <DistanceMeters>11589.229207004</DistanceMeters>
          </Trackpoint>
          <Trackpoint>
            <Time>2022-07-04T09:06:46.000Z</Time>
            <Position>
              <LatitudeDegrees>44.8302284069359302520751953125</LatitudeDegrees>
              <LongitudeDegrees>-0.5890394188463687896728515625</LongitudeDegrees>
            </Position>
            <AltitudeMeters>9.3999996185302734375</AltitudeMeters>
            <DistanceMeters>11598.797694087</DistanceMeters>
          </Trackpoint>
          <Trackpoint>
            <Time>2022-07-04T09:06:49.000Z</Time>
            <Position>
              <LatitudeDegrees>44.83017400838434696197509765625</LatitudeDegrees>
              <LongitudeDegrees>-0.589124076068401336669921875</LongitudeDegrees>
            </Position>
            <AltitudeMeters>9.6000003814697265625</AltitudeMeters>
            <DistanceMeters>11607.814722883</DistanceMeters>
          </Trackpoint>
          <Trackpoint>
            <Time>2022-07-04T09:06:53.000Z</Time>
            <Position>
              <LatitudeDegrees>44.83012522570788860321044921875</LatitudeDegrees>
              <LongitudeDegrees>-0.5892583541572093963623046875</LongitudeDegrees>
            </Position>
            <AltitudeMeters>9.80000019073486328125</AltitudeMeters>
            <DistanceMeters>11619.72305276</DistanceMeters>
          </Trackpoint>
          <Trackpoint>
            <Time>2022-07-04T09:06:59.000Z</Time>
            <Position>
              <LatitudeDegrees>44.83002129010856151580810546875</LatitudeDegrees>
              <LongitudeDegrees>-0.589446611702442169189453125</LongitudeDegrees>
            </Position>
            <AltitudeMeters>10.19999980926513671875</AltitudeMeters>
            <DistanceMeters>11638.555132366</DistanceMeters>
          </Trackpoint>
          <Trackpoint>
            <Time>2022-07-04T09:07:04.000Z</Time>
            <Position>
              <LatitudeDegrees>44.8299310170114040374755859375</LatitudeDegrees>
              <LongitudeDegrees>-0.58958801440894603729248046875</LongitudeDegrees>
            </Position>
            <AltitudeMeters>10.3999996185302734375</AltitudeMeters>
            <DistanceMeters>11653.572961412</DistanceMeters>
          </Trackpoint>
          <Trackpoint>
            <Time>2022-07-04T09:07:06.000Z</Time>
            <Position>
              <LatitudeDegrees>44.82989975251257419586181640625</LatitudeDegrees>
              <LongitudeDegrees>-0.5896367132663726806640625</LongitudeDegrees>
            </Position>
            <AltitudeMeters>10.3999996185302734375</AltitudeMeters>
            <DistanceMeters>11658.757798687</DistanceMeters>
          </Trackpoint>
          <Trackpoint>
            <Time>2022-07-04T09:07:15.000Z</Time>
            <Position>
              <LatitudeDegrees>44.82974854297935962677001953125</LatitudeDegrees>
              <LongitudeDegrees>-0.589900575578212738037109375</LongitudeDegrees>
            </Position>
            <AltitudeMeters>10.80000019073486328125</AltitudeMeters>
            <DistanceMeters>11685.535780506</DistanceMeters>
          </Trackpoint>
          <Trackpoint>
            <Time>2022-07-04T09:07:17.000Z</Time>
            <Position>
              <LatitudeDegrees>44.82971820048987865447998046875</LatitudeDegrees>
              <LongitudeDegrees>-0.589960254728794097900390625</LongitudeDegrees>
            </Position>
            <AltitudeMeters>11</AltitudeMeters>
            <DistanceMeters>11691.332410082</DistanceMeters>
          </Trackpoint>
          <Trackpoint>
            <Time>2022-07-04T09:07:23.000Z</Time>
            <Position>
              <LatitudeDegrees>44.8296289332211017608642578125</LatitudeDegrees>
              <LongitudeDegrees>-0.5901330895721912384033203125</LongitudeDegrees>
            </Position>
            <AltitudeMeters>11.19999980926513671875</AltitudeMeters>
            <DistanceMeters>11708.209753811</DistanceMeters>
          </Trackpoint>
          <Trackpoint>
            <Time>2022-07-04T09:07:30.000Z</Time>
            <Position>
              <LatitudeDegrees>44.82952239923179149627685546875</LatitudeDegrees>
              <LongitudeDegrees>-0.5903697945177555084228515625</LongitudeDegrees>
            </Position>
            <AltitudeMeters>11.3999996185302734375</AltitudeMeters>
            <DistanceMeters>11730.33894371</DistanceMeters>
          </Trackpoint>
          <Trackpoint>
            <Time>2022-07-04T09:07:32.000Z</Time>
            <Position>
              <LatitudeDegrees>44.82949071563780307769775390625</LatitudeDegrees>
              <LongitudeDegrees>-0.5904261209070682525634765625</LongitudeDegrees>
            </Position>
            <AltitudeMeters>11.3999996185302734375</AltitudeMeters>
            <DistanceMeters>11736.012762752</DistanceMeters>
          </Trackpoint>
          <Trackpoint>
            <Time>2022-07-04T09:07:36.000Z</Time>
            <Position>
              <LatitudeDegrees>44.8294324614107608795166015625</LatitudeDegrees>
              <LongitudeDegrees>-0.5905528552830219268798828125</LongitudeDegrees>
            </Position>
            <AltitudeMeters>11.80000019073486328125</AltitudeMeters>
            <DistanceMeters>11747.933976745</DistanceMeters>
          </Trackpoint>
          <Trackpoint>
            <Time>2022-07-04T09:07:43.000Z</Time>
            <Position>
              <LatitudeDegrees>44.8293243348598480224609375</LatitudeDegrees>
              <LongitudeDegrees>-0.59076097793877124786376953125</LongitudeDegrees>
            </Position>
            <AltitudeMeters>12</AltitudeMeters>
            <DistanceMeters>11768.29875813</DistanceMeters>
          </Trackpoint>
          <Trackpoint>
            <Time>2022-07-04T09:07:50.000Z</Time>
            <Position>
              <LatitudeDegrees>44.8292185552418231964111328125</LatitudeDegrees>
              <LongitudeDegrees>-0.5909535102546215057373046875</LongitudeDegrees>
            </Position>
            <AltitudeMeters>12.19999980926513671875</AltitudeMeters>
            <DistanceMeters>11787.523298923</DistanceMeters>
          </Trackpoint>
          <Trackpoint>
            <Time>2022-07-04T09:07:55.000Z</Time>
            <Position>
              <LatitudeDegrees>44.8291360773146152496337890625</LatitudeDegrees>
              <LongitudeDegrees>-0.591089464724063873291015625</LongitudeDegrees>
            </Position>
            <AltitudeMeters>12.3999996185302734375</AltitudeMeters>
            <DistanceMeters>11801.645560368</DistanceMeters>
          </Trackpoint>
          <Trackpoint>
            <Time>2022-07-04T09:07:57.000Z</Time>
            <Position>
              <LatitudeDegrees>44.829094670712947845458984375</LatitudeDegrees>
              <LongitudeDegrees>-0.5911402590572834014892578125</LongitudeDegrees>
            </Position>
            <AltitudeMeters>12.3999996185302734375</AltitudeMeters>
            <DistanceMeters>11807.754676994</DistanceMeters>
          </Trackpoint>
          <Trackpoint>
            <Time>2022-07-04T09:08:01.000Z</Time>
            <Position>
              <LatitudeDegrees>44.82903172262012958526611328125</LatitudeDegrees>
              <LongitudeDegrees>-0.591259114444255828857421875</LongitudeDegrees>
            </Position>
            <AltitudeMeters>12.6000003814697265625</AltitudeMeters>
            <DistanceMeters>11819.463803804</DistanceMeters>
          </Trackpoint>
          <Trackpoint>
            <Time>2022-07-04T09:08:08.000Z</Time>
            <Position>
              <LatitudeDegrees>44.82893264852464199066162109375</LatitudeDegrees>
              <LongitudeDegrees>-0.591487772762775421142578125</LongitudeDegrees>
            </Position>
            <AltitudeMeters>12.80000019073486328125</AltitudeMeters>
            <DistanceMeters>11840.61530747</DistanceMeters>
          </Trackpoint>
          <Trackpoint>
            <Time>2022-07-04T09:08:09.000Z</Time>
            <Position>
              <LatitudeDegrees>44.82891823165118694305419921875</LatitudeDegrees>
              <LongitudeDegrees>-0.5915134213864803314208984375</LongitudeDegrees>
            </Position>
            <AltitudeMeters>12.80000019073486328125</AltitudeMeters>
            <DistanceMeters>11843.196817961</DistanceMeters>
          </Trackpoint>
          <Trackpoint>
            <Time>2022-07-04T09:08:18.000Z</Time>
            <Position>
              <LatitudeDegrees>44.828772805631160736083984375</LatitudeDegrees>
              <LongitudeDegrees>-0.59175859205424785614013671875</LongitudeDegrees>
            </Position>
            <AltitudeMeters>12.6000003814697265625</AltitudeMeters>
            <DistanceMeters>11868.426365887</DistanceMeters>
          </Trackpoint>
          <Trackpoint>
            <Time>2022-07-04T09:08:23.000Z</Time>
            <Position>
              <LatitudeDegrees>44.82868437655270099639892578125</LatitudeDegrees>
              <LongitudeDegrees>-0.5919033475220203399658203125</LongitudeDegrees>
            </Position>
            <AltitudeMeters>13</AltitudeMeters>
            <DistanceMeters>11883.507198268</DistanceMeters>
          </Trackpoint>
          <Trackpoint>
            <Time>2022-07-04T09:08:24.000Z</Time>
            <Position>
              <LatitudeDegrees>44.8286744020879268646240234375</LatitudeDegrees>
              <LongitudeDegrees>-0.59193327091634273529052734375</LongitudeDegrees>
            </Position>
            <AltitudeMeters>13.19999980926513671875</AltitudeMeters>
            <DistanceMeters>11886.116542561</DistanceMeters>
          </Trackpoint>
          <Trackpoint>
            <Time>2022-07-04T09:08:26.000Z</Time>
            <Position>
              <LatitudeDegrees>44.8286492563784122467041015625</LatitudeDegrees>
              <LongitudeDegrees>-0.5919943749904632568359375</LongitudeDegrees>
            </Position>
            <AltitudeMeters>13.6000003814697265625</AltitudeMeters>
            <DistanceMeters>11891.693242595</DistanceMeters>
          </Trackpoint>
          <Trackpoint>
            <Time>2022-07-04T09:08:32.000Z</Time>
            <Position>
              <LatitudeDegrees>44.82854959554970264434814453125</LatitudeDegrees>
              <LongitudeDegrees>-0.59216176159679889678955078125</LongitudeDegrees>
            </Position>
            <AltitudeMeters>13.80000019073486328125</AltitudeMeters>
            <DistanceMeters>11908.945237251</DistanceMeters>
          </Trackpoint>
          <Trackpoint>
            <Time>2022-07-04T09:08:38.000Z</Time>
            <Position>
              <LatitudeDegrees>44.82844918034970760345458984375</LatitudeDegrees>
              <LongitudeDegrees>-0.5923234485089778900146484375</LongitudeDegrees>
            </Position>
            <AltitudeMeters>14</AltitudeMeters>
            <DistanceMeters>11925.910100835</DistanceMeters>
          </Trackpoint>
          <Trackpoint>
            <Time>2022-07-04T09:08:45.000Z</Time>
            <Position>
              <LatitudeDegrees>44.82833250425755977630615234375</LatitudeDegrees>
              <LongitudeDegrees>-0.592486225068569183349609375</LongitudeDegrees>
            </Position>
            <AltitudeMeters>14.3999996185302734375</AltitudeMeters>
            <DistanceMeters>11944.178476931</DistanceMeters>
          </Trackpoint>
          <Trackpoint>
            <Time>2022-07-04T09:08:46.000Z</Time>
            <Position>
              <LatitudeDegrees>44.82831641100347042083740234375</LatitudeDegrees>
              <LongitudeDegrees>-0.5925112031400203704833984375</LongitudeDegrees>
            </Position>
            <AltitudeMeters>14.6000003814697265625</AltitudeMeters>
            <DistanceMeters>11946.84431079</DistanceMeters>
          </Trackpoint>
          <Trackpoint>
            <Time>2022-07-04T09:08:52.000Z</Time>
            <Position>
              <LatitudeDegrees>44.8282207734882831573486328125</LatitudeDegrees>
              <LongitudeDegrees>-0.59266920201480388641357421875</LongitudeDegrees>
            </Position>
            <AltitudeMeters>14.6000003814697265625</AltitudeMeters>
            <DistanceMeters>11963.241307346</DistanceMeters>
          </Trackpoint>
          <Trackpoint>
            <Time>2022-07-04T09:08:58.000Z</Time>
            <Position>
              <LatitudeDegrees>44.82814617455005645751953125</LatitudeDegrees>
              <LongitudeDegrees>-0.59278571046888828277587890625</LongitudeDegrees>
            </Position>
            <AltitudeMeters>15</AltitudeMeters>
            <DistanceMeters>11975.631639449</DistanceMeters>
          </Trackpoint>
          <Trackpoint>
            <Time>2022-07-04T09:09:01.000Z</Time>
            <Position>
              <LatitudeDegrees>44.8281066119670867919921875</LatitudeDegrees>
              <LongitudeDegrees>-0.59285813011229038238525390625</LongitudeDegrees>
            </Position>
            <AltitudeMeters>15.19999980926513671875</AltitudeMeters>
            <DistanceMeters>11982.847415275</DistanceMeters>
          </Trackpoint>
          <Trackpoint>
            <Time>2022-07-04T09:09:02.000Z</Time>
            <Position>
              <LatitudeDegrees>44.8280953802168369293212890625</LatitudeDegrees>
              <LongitudeDegrees>-0.5928783304989337921142578125</LongitudeDegrees>
            </Position>
            <AltitudeMeters>15.19999980926513671875</AltitudeMeters>
            <DistanceMeters>11984.876630606</DistanceMeters>
          </Trackpoint>
          <Trackpoint>
            <Time>2022-07-04T09:09:06.000Z</Time>
            <Position>
              <LatitudeDegrees>44.82806361280381679534912109375</LatitudeDegrees>
              <LongitudeDegrees>-0.59293524362146854400634765625</LongitudeDegrees>
            </Position>
            <AltitudeMeters>15.19999980926513671875</AltitudeMeters>
            <DistanceMeters>11990.594049318</DistanceMeters>
          </Trackpoint>
          <Trackpoint>
            <Time>2022-07-04T09:09:08.000Z</Time>
            <Position>
              <LatitudeDegrees>44.82806361280381679534912109375</LatitudeDegrees>
              <LongitudeDegrees>-0.59293524362146854400634765625</LongitudeDegrees>
            </Position>
            <AltitudeMeters>15.19999980926513671875</AltitudeMeters>
            <DistanceMeters>11990.594049318</DistanceMeters>
          </Trackpoint>
          <Trackpoint>
            <Time>2022-07-04T09:09:49.000Z</Time>
            <Position>
              <LatitudeDegrees>44.82804165221750736236572265625</LatitudeDegrees>
              <LongitudeDegrees>-0.59298084117472171783447265625</LongitudeDegrees>
            </Position>
            <AltitudeMeters>15.19999980926513671875</AltitudeMeters>
            <DistanceMeters>11994.944571151</DistanceMeters>
          </Trackpoint>
          <Trackpoint>
            <Time>2022-07-04T09:09:50.000Z</Time>
            <Position>
              <LatitudeDegrees>44.82802974991500377655029296875</LatitudeDegrees>
              <LongitudeDegrees>-0.5930054001510143280029296875</LongitudeDegrees>
            </Position>
            <AltitudeMeters>15.19999980926513671875</AltitudeMeters>
            <DistanceMeters>11997.291557864</DistanceMeters>
          </Trackpoint>
          <Trackpoint>
            <Time>2022-07-04T09:09:55.000Z</Time>
            <Position>
              <LatitudeDegrees>44.82793637551367282867431640625</LatitudeDegrees>
              <LongitudeDegrees>-0.5931773968040943145751953125</LongitudeDegrees>
            </Position>
            <AltitudeMeters>15.3999996185302734375</AltitudeMeters>
            <DistanceMeters>12014.390030163</DistanceMeters>
          </Trackpoint>
          <Trackpoint>
            <Time>2022-07-04T09:10:01.000Z</Time>
            <Position>
              <LatitudeDegrees>44.82781282626092433929443359375</LatitudeDegrees>
              <LongitudeDegrees>-0.593376047909259796142578125</LongitudeDegrees>
            </Position>
            <AltitudeMeters>14.80000019073486328125</AltitudeMeters>
            <DistanceMeters>12035.246608081</DistanceMeters>
          </Trackpoint>
          <Trackpoint>
            <Time>2022-07-04T09:10:06.000Z</Time>
            <Position>
              <LatitudeDegrees>44.82776387594640254974365234375</LatitudeDegrees>
              <LongitudeDegrees>-0.5935200490057468414306640625</LongitudeDegrees>
            </Position>
            <AltitudeMeters>14.80000019073486328125</AltitudeMeters>
            <DistanceMeters>12047.852610035</DistanceMeters>
          </Trackpoint>
          <Trackpoint>
            <Time>2022-07-04T09:10:10.000Z</Time>
            <Position>
              <LatitudeDegrees>44.82768475078046321868896484375</LatitudeDegrees>
              <LongitudeDegrees>-0.59364887885749340057373046875</LongitudeDegrees>
            </Position>
            <AltitudeMeters>15.6000003814697265625</AltitudeMeters>
            <DistanceMeters>12061.305520207</DistanceMeters>
          </Trackpoint>
          <Trackpoint>
            <Time>2022-07-04T09:10:13.000Z</Time>
            <Position>
              <LatitudeDegrees>44.82764594256877899169921875</LatitudeDegrees>
              <LongitudeDegrees>-0.5937661416828632354736328125</LongitudeDegrees>
            </Position>
            <AltitudeMeters>16</AltitudeMeters>
            <DistanceMeters>12071.520781505</DistanceMeters>
          </Trackpoint>
          <Trackpoint>
            <Time>2022-07-04T09:10:19.000Z</Time>
            <Position>
              <LatitudeDegrees>44.82754745520651340484619140625</LatitudeDegrees>
              <LongitudeDegrees>-0.59394258074462413787841796875</LongitudeDegrees>
            </Position>
            <AltitudeMeters>16</AltitudeMeters>
            <DistanceMeters>12089.244728563</DistanceMeters>
          </Trackpoint>
          <Trackpoint>
            <Time>2022-07-04T09:10:27.000Z</Time>
            <Position>
              <LatitudeDegrees>44.82740127481520175933837890625</LatitudeDegrees>
              <LongitudeDegrees>-0.59417140670120716094970703125</LongitudeDegrees>
            </Position>
            <AltitudeMeters>16.6000003814697265625</AltitudeMeters>
            <DistanceMeters>12113.555229239</DistanceMeters>
          </Trackpoint>
          <Trackpoint>
            <Time>2022-07-04T09:10:31.000Z</Time>
            <Position>
              <LatitudeDegrees>44.82733539305627346038818359375</LatitudeDegrees>
              <LongitudeDegrees>-0.5942903459072113037109375</LongitudeDegrees>
            </Position>
            <AltitudeMeters>16.6000003814697265625</AltitudeMeters>
            <DistanceMeters>12125.468108043</DistanceMeters>
          </Trackpoint>
          <Trackpoint>
            <Time>2022-07-04T09:10:32.000Z</Time>
            <Position>
              <LatitudeDegrees>44.8273165337741374969482421875</LatitudeDegrees>
              <LongitudeDegrees>-0.59432010166347026824951171875</LongitudeDegrees>
            </Position>
            <AltitudeMeters>16.799999237060546875</AltitudeMeters>
            <DistanceMeters>12128.616921142</DistanceMeters>
          </Trackpoint>
          <Trackpoint>
            <Time>2022-07-04T09:10:34.000Z</Time>
            <Position>
              <LatitudeDegrees>44.8272836767137050628662109375</LatitudeDegrees>
              <LongitudeDegrees>-0.5943880788981914520263671875</LongitudeDegrees>
            </Position>
            <AltitudeMeters>16.799999237060546875</AltitudeMeters>
            <DistanceMeters>12135.110799567</DistanceMeters>
          </Trackpoint>
          <Trackpoint>
            <Time>2022-07-04T09:10:41.000Z</Time>
            <Position>
              <LatitudeDegrees>44.82720580883324146270751953125</LatitudeDegrees>
              <LongitudeDegrees>-0.59470902197062969207763671875</LongitudeDegrees>
            </Position>
            <AltitudeMeters>16.799999237060546875</AltitudeMeters>
            <DistanceMeters>12161.88743247</DistanceMeters>
          </Trackpoint>
          <Trackpoint>
            <Time>2022-07-04T09:10:44.000Z</Time>
            <Position>
              <LatitudeDegrees>44.82717923820018768310546875</LatitudeDegrees>
              <LongitudeDegrees>-0.59485201723873615264892578125</LongitudeDegrees>
            </Position>
            <AltitudeMeters>16.6000003814697265625</AltitudeMeters>
            <DistanceMeters>12173.556774902</DistanceMeters>
          </Trackpoint>
          <Trackpoint>
            <Time>2022-07-04T09:10:47.000Z</Time>
            <Position>
              <LatitudeDegrees>44.82714948244392871856689453125</LatitudeDegrees>
              <LongitudeDegrees>-0.5949992872774600982666015625</LongitudeDegrees>
            </Position>
            <AltitudeMeters>16.6000003814697265625</AltitudeMeters>
            <DistanceMeters>12185.645353275</DistanceMeters>
          </Trackpoint>
          <Trackpoint>
            <Time>2022-07-04T09:10:49.000Z</Time>
            <Position>
              <LatitudeDegrees>44.82712961733341217041015625</LatitudeDegrees>
              <LongitudeDegrees>-0.59509676881134510040283203125</LongitudeDegrees>
            </Position>
            <AltitudeMeters>16.3999996185302734375</AltitudeMeters>
            <DistanceMeters>12193.652446552</DistanceMeters>
          </Trackpoint>
          <Trackpoint>
            <Time>2022-07-04T09:10:59.000Z</Time>
            <Position>
              <LatitudeDegrees>44.82703096233308315277099609375</LatitudeDegrees>
              <LongitudeDegrees>-0.59562466107308864593505859375</LongitudeDegrees>
            </Position>
            <AltitudeMeters>16</AltitudeMeters>
            <DistanceMeters>12236.7464067</DistanceMeters>
          </Trackpoint>
          <Trackpoint>
            <Time>2022-07-04T09:11:01.000Z</Time>
            <Position>
              <LatitudeDegrees>44.8270074091851711273193359375</LatitudeDegrees>
              <LongitudeDegrees>-0.59574720449745655059814453125</LongitudeDegrees>
            </Position>
            <AltitudeMeters>15.6000003814697265625</AltitudeMeters>
            <DistanceMeters>12246.768909898</DistanceMeters>
          </Trackpoint>
          <Trackpoint>
            <Time>2022-07-04T09:11:05.000Z</Time>
            <Position>
              <LatitudeDegrees>44.826958961784839630126953125</LatitudeDegrees>
              <LongitudeDegrees>-0.59600972570478916168212890625</LongitudeDegrees>
            </Position>
            <AltitudeMeters>15.3999996185302734375</AltitudeMeters>
            <DistanceMeters>12268.182416191</DistanceMeters>
          </Trackpoint>
          <Trackpoint>
            <Time>2022-07-04T09:11:10.000Z</Time>
            <Position>
              <LatitudeDegrees>44.8269192315638065338134765625</LatitudeDegrees>
              <LongitudeDegrees>-0.59635388664901256561279296875</LongitudeDegrees>
            </Position>
            <AltitudeMeters>14.6000003814697265625</AltitudeMeters>
            <DistanceMeters>12295.707868119</DistanceMeters>
          </Trackpoint>
          <Trackpoint>
            <Time>2022-07-04T09:11:11.000Z</Time>
            <Position>
              <LatitudeDegrees>44.8269185610115528106689453125</LatitudeDegrees>
              <LongitudeDegrees>-0.59643016196787357330322265625</LongitudeDegrees>
            </Position>
            <AltitudeMeters>14.3999996185302734375</AltitudeMeters>
            <DistanceMeters>12301.728393582</DistanceMeters>
          </Trackpoint>
          <Trackpoint>
            <Time>2022-07-04T09:11:13.000Z</Time>
            <Position>
              <LatitudeDegrees>44.82692233286798000335693359375</LatitudeDegrees>
              <LongitudeDegrees>-0.596554465591907501220703125</LongitudeDegrees>
            </Position>
            <AltitudeMeters>13.80000019073486328125</AltitudeMeters>
            <DistanceMeters>12311.549761948</DistanceMeters>
          </Trackpoint>
          <Trackpoint>
            <Time>2022-07-04T09:11:14.000Z</Time>
            <Position>
              <LatitudeDegrees>44.82691428624093532562255859375</LatitudeDegrees>
              <LongitudeDegrees>-0.596633590757846832275390625</LongitudeDegrees>
            </Position>
            <AltitudeMeters>13.6000003814697265625</AltitudeMeters>
            <DistanceMeters>12317.858848804</DistanceMeters>
          </Trackpoint>
          <Trackpoint>
            <Time>2022-07-04T09:11:15.000Z</Time>
            <Position>
              <LatitudeDegrees>44.826898612082004547119140625</LatitudeDegrees>
              <LongitudeDegrees>-0.59668279252946376800537109375</LongitudeDegrees>
            </Position>
            <AltitudeMeters>13.3999996185302734375</AltitudeMeters>
            <DistanceMeters>12322.11706363</DistanceMeters>
          </Trackpoint>
          <Trackpoint>
            <Time>2022-07-04T09:11:16.000Z</Time>
            <Position>
              <LatitudeDegrees>44.82687019743025302886962890625</LatitudeDegrees>
              <LongitudeDegrees>-0.59673777781426906585693359375</LongitudeDegrees>
            </Position>
            <AltitudeMeters>13.19999980926513671875</AltitudeMeters>
            <DistanceMeters>12327.488385091</DistanceMeters>
          </Trackpoint>
          <Trackpoint>
            <Time>2022-07-04T09:11:17.000Z</Time>
            <Position>
              <LatitudeDegrees>44.82683189213275909423828125</LatitudeDegrees>
              <LongitudeDegrees>-0.59678555466234683990478515625</LongitudeDegrees>
            </Position>
            <AltitudeMeters>13.19999980926513671875</AltitudeMeters>
            <DistanceMeters>12333.18047735</DistanceMeters>
          </Trackpoint>
          <Trackpoint>
            <Time>2022-07-04T09:11:19.000Z</Time>
            <Position>
              <LatitudeDegrees>44.82675536535680294036865234375</LatitudeDegrees>
              <LongitudeDegrees>-0.59680759906768798828125</LongitudeDegrees>
            </Position>
            <AltitudeMeters>13</AltitudeMeters>
            <DistanceMeters>12341.874253275</DistanceMeters>
          </Trackpoint>
          <Trackpoint>
            <Time>2022-07-04T09:11:23.000Z</Time>
            <Position>
              <LatitudeDegrees>44.8266201652586460113525390625</LatitudeDegrees>
              <LongitudeDegrees>-0.596851520240306854248046875</LongitudeDegrees>
            </Position>
            <AltitudeMeters>13.19999980926513671875</AltitudeMeters>
            <DistanceMeters>12357.316606034</DistanceMeters>
          </Trackpoint>
          <Trackpoint>
            <Time>2022-07-04T09:11:28.000Z</Time>
            <Position>
              <LatitudeDegrees>44.82651346363127231597900390625</LatitudeDegrees>
              <LongitudeDegrees>-0.59695922769606113433837890625</LongitudeDegrees>
            </Position>
            <AltitudeMeters>13.6000003814697265625</AltitudeMeters>
            <DistanceMeters>12371.922926106</DistanceMeters>
          </Trackpoint>
          <Trackpoint>
            <Time>2022-07-04T09:11:34.000Z</Time>
            <Position>
              <LatitudeDegrees>44.826390333473682403564453125</LatitudeDegrees>
              <LongitudeDegrees>-0.59710809029638767242431640625</LongitudeDegrees>
            </Position>
            <AltitudeMeters>14.19999980926513671875</AltitudeMeters>
            <DistanceMeters>12389.976001163</DistanceMeters>
          </Trackpoint>
          <Trackpoint>
            <Time>2022-07-04T09:11:35.000Z</Time>
            <Position>
              <LatitudeDegrees>44.82637055218219757080078125</LatitudeDegrees>
              <LongitudeDegrees>-0.5971349962055683135986328125</LongitudeDegrees>
            </Position>
            <AltitudeMeters>14.3999996185302734375</AltitudeMeters>
            <DistanceMeters>12393.037572549</DistanceMeters>
          </Trackpoint>
          <Trackpoint>
            <Time>2022-07-04T09:11:36.000Z</Time>
            <Position>
              <LatitudeDegrees>44.8263549618422985076904296875</LatitudeDegrees>
              <LongitudeDegrees>-0.597153604030609130859375</LongitudeDegrees>
            </Position>
            <AltitudeMeters>14.6000003814697265625</AltitudeMeters>
            <DistanceMeters>12395.312266771</DistanceMeters>
          </Trackpoint>
          <Trackpoint>
            <Time>2022-07-04T09:11:41.000Z</Time>
            <Position>
              <LatitudeDegrees>44.8262456618249416351318359375</LatitudeDegrees>
              <LongitudeDegrees>-0.59726416133344173431396484375</LongitudeDegrees>
            </Position>
            <AltitudeMeters>15</AltitudeMeters>
            <DistanceMeters>12410.284328006</DistanceMeters>
          </Trackpoint>
          <Trackpoint>
            <Time>2022-07-04T09:11:42.000Z</Time>
            <Position>
              <LatitudeDegrees>44.82622437179088592529296875</LatitudeDegrees>
              <LongitudeDegrees>-0.597286038100719451904296875</LongitudeDegrees>
            </Position>
            <AltitudeMeters>15</AltitudeMeters>
            <DistanceMeters>12413.216329503</DistanceMeters>
          </Trackpoint>
          <Trackpoint>
            <Time>2022-07-04T09:11:48.000Z</Time>
            <Position>
              <LatitudeDegrees>44.82608095742762088775634765625</LatitudeDegrees>
              <LongitudeDegrees>-0.5974364094436168670654296875</LongitudeDegrees>
            </Position>
            <AltitudeMeters>15.3999996185302734375</AltitudeMeters>
            <DistanceMeters>12433.1084875</DistanceMeters>
          </Trackpoint>
          <Trackpoint>
            <Time>2022-07-04T09:11:50.000Z</Time>
            <Position>
              <LatitudeDegrees>44.82603435404598712921142578125</LatitudeDegrees>
              <LongitudeDegrees>-0.59748678468167781829833984375</LongitudeDegrees>
            </Position>
            <AltitudeMeters>15.80000019073486328125</AltitudeMeters>
            <DistanceMeters>12439.643949349</DistanceMeters>
          </Trackpoint>
          <Trackpoint>
            <Time>2022-07-04T09:11:58.000Z</Time>
            <Position>
              <LatitudeDegrees>44.82584886252880096435546875</LatitudeDegrees>
              <LongitudeDegrees>-0.5976898781955242156982421875</LongitudeDegrees>
            </Position>
            <AltitudeMeters>16.200000762939453125</AltitudeMeters>
            <DistanceMeters>12465.783724106</DistanceMeters>
          </Trackpoint>
          <Trackpoint>
            <Time>2022-07-04T09:11:59.000Z</Time>
            <Position>
              <LatitudeDegrees>44.8258218728005886077880859375</LatitudeDegrees>
              <LongitudeDegrees>-0.59772768057882785797119140625</LongitudeDegrees>
            </Position>
            <AltitudeMeters>16.200000762939453125</AltitudeMeters>
            <DistanceMeters>12470.018547812</DistanceMeters>
          </Trackpoint>
          <Trackpoint>
            <Time>2022-07-04T09:12:07.000Z</Time>
            <Position>
              <LatitudeDegrees>44.82569220475852489471435546875</LatitudeDegrees>
              <LongitudeDegrees>-0.59803093783557415008544921875</LongitudeDegrees>
            </Position>
            <AltitudeMeters>16.3999996185302734375</AltitudeMeters>
            <DistanceMeters>12497.972073616</DistanceMeters>
          </Trackpoint>
          <Trackpoint>
            <Time>2022-07-04T09:12:12.000Z</Time>
            <Position>
              <LatitudeDegrees>44.825723469257354736328125</LatitudeDegrees>
              <LongitudeDegrees>-0.5982782877981662750244140625</LongitudeDegrees>
            </Position>
            <AltitudeMeters>15.80000019073486328125</AltitudeMeters>
            <DistanceMeters>12517.806040698</DistanceMeters>
          </Trackpoint>
          <Trackpoint>
            <Time>2022-07-04T09:12:16.000Z</Time>
            <Position>
              <LatitudeDegrees>44.8256753571331501007080078125</LatitudeDegrees>
              <LongitudeDegrees>-0.5984358675777912139892578125</LongitudeDegrees>
            </Position>
            <AltitudeMeters>15.80000019073486328125</AltitudeMeters>
            <DistanceMeters>12531.349931309</DistanceMeters>
          </Trackpoint>
          <Trackpoint>
            <Time>2022-07-04T09:12:19.000Z</Time>
            <Position>
              <LatitudeDegrees>44.825654067099094390869140625</LatitudeDegrees>
              <LongitudeDegrees>-0.59852815233170986175537109375</LongitudeDegrees>
            </Position>
            <AltitudeMeters>15.80000019073486328125</AltitudeMeters>
            <DistanceMeters>12539.011229952</DistanceMeters>
          </Trackpoint>
          <Trackpoint>
            <Time>2022-07-04T09:12:23.000Z</Time>
            <Position>
              <LatitudeDegrees>44.82573377899825572967529296875</LatitudeDegrees>
              <LongitudeDegrees>-0.59852932579815387725830078125</LongitudeDegrees>
            </Position>
            <AltitudeMeters>15.80000019073486328125</AltitudeMeters>
            <DistanceMeters>12547.884405061</DistanceMeters>
          </Trackpoint>
          <Trackpoint>
            <Time>2022-07-04T09:12:29.000Z</Time>
            <Position>
              <LatitudeDegrees>44.82581977732479572296142578125</LatitudeDegrees>
              <LongitudeDegrees>-0.59850870631635189056396484375</LongitudeDegrees>
            </Position>
            <AltitudeMeters>15.19999980926513671875</AltitudeMeters>
            <DistanceMeters>12557.592954794</DistanceMeters>
          </Trackpoint>
          <Trackpoint>
            <Time>2022-07-04T09:12:32.000Z</Time>
            <Position>
              <LatitudeDegrees>44.82582162134349346160888671875</LatitudeDegrees>
              <LongitudeDegrees>-0.59850987978279590606689453125</LongitudeDegrees>
            </Position>
            <AltitudeMeters>15.19999980926513671875</AltitudeMeters>
            <DistanceMeters>12557.805440987</DistanceMeters>
          </Trackpoint>
          <Trackpoint>
            <Time>2022-07-04T09:16:49.000Z</Time>
            <Position>
              <LatitudeDegrees>44.82577552087604999542236328125</LatitudeDegrees>
              <LongitudeDegrees>-0.5984875001013278961181640625</LongitudeDegrees>
            </Position>
            <AltitudeMeters>15.3999996185302734375</AltitudeMeters>
            <DistanceMeters>12563.232789267</DistanceMeters>
          </Trackpoint>
          <Trackpoint>
            <Time>2022-07-04T09:16:50.000Z</Time>
            <Position>
              <LatitudeDegrees>44.8257591761648654937744140625</LatitudeDegrees>
              <LongitudeDegrees>-0.59850099496543407440185546875</LongitudeDegrees>
            </Position>
            <AltitudeMeters>15.3999996185302734375</AltitudeMeters>
            <DistanceMeters>12565.340583757</DistanceMeters>
          </Trackpoint>
          <Trackpoint>
            <Time>2022-07-04T09:16:52.000Z</Time>
            <Position>
              <LatitudeDegrees>44.8257248103618621826171875</LatitudeDegrees>
              <LongitudeDegrees>-0.5985280685126781463623046875</LongitudeDegrees>
            </Position>
            <AltitudeMeters>14.80000019073486328125</AltitudeMeters>
            <DistanceMeters>12569.722129434</DistanceMeters>
          </Trackpoint>
          <Trackpoint>
            <Time>2022-07-04T09:16:58.000Z</Time>
            <Position>
              <LatitudeDegrees>44.825611822307109832763671875</LatitudeDegrees>
              <LongitudeDegrees>-0.59860912151634693145751953125</LongitudeDegrees>
            </Position>
            <AltitudeMeters>14</AltitudeMeters>
            <DistanceMeters>12583.832236643</DistanceMeters>
          </Trackpoint>
          <Trackpoint>
            <Time>2022-07-04T09:17:03.000Z</Time>
            <Position>
              <LatitudeDegrees>44.8255187831819057464599609375</LatitudeDegrees>
              <LongitudeDegrees>-0.5986001528799533843994140625</LongitudeDegrees>
            </Position>
            <AltitudeMeters>14.19999980926513671875</AltitudeMeters>
            <DistanceMeters>12594.211485747</DistanceMeters>
          </Trackpoint>
          <Trackpoint>
            <Time>2022-07-04T09:17:11.000Z</Time>
            <Position>
              <LatitudeDegrees>44.82534301467239856719970703125</LatitudeDegrees>
              <LongitudeDegrees>-0.59864264912903308868408203125</LongitudeDegrees>
            </Position>
            <AltitudeMeters>14.3999996185302734375</AltitudeMeters>
            <DistanceMeters>12614.060698964</DistanceMeters>
          </Trackpoint>
          <Trackpoint>
            <Time>2022-07-04T09:17:15.000Z</Time>
            <Position>
              <LatitudeDegrees>44.8252488858997821807861328125</LatitudeDegrees>
              <LongitudeDegrees>-0.5987242050468921661376953125</LongitudeDegrees>
            </Position>
            <AltitudeMeters>14.80000019073486328125</AltitudeMeters>
            <DistanceMeters>12626.357390798</DistanceMeters>
          </Trackpoint>
          <Trackpoint>
            <Time>2022-07-04T09:17:17.000Z</Time>
            <Position>
              <LatitudeDegrees>44.82519666664302349090576171875</LatitudeDegrees>
              <LongitudeDegrees>-0.59877424500882625579833984375</LongitudeDegrees>
            </Position>
            <AltitudeMeters>14.80000019073486328125</AltitudeMeters>
            <DistanceMeters>12633.384229205</DistanceMeters>
          </Trackpoint>
          <Trackpoint>
            <Time>2022-07-04T09:17:21.000Z</Time>
            <Position>
              <LatitudeDegrees>44.82510429807007312774658203125</LatitudeDegrees>
              <LongitudeDegrees>-0.59886661358177661895751953125</LongitudeDegrees>
            </Position>
            <AltitudeMeters>14.80000019073486328125</AltitudeMeters>
            <DistanceMeters>12645.988081981</DistanceMeters>
          </Trackpoint>
          <Trackpoint>
            <Time>2022-07-04T09:17:25.000Z</Time>
            <Position>
              <LatitudeDegrees>44.82498778961598873138427734375</LatitudeDegrees>
              <LongitudeDegrees>-0.5989260412752628326416015625</LongitudeDegrees>
            </Position>
            <AltitudeMeters>14.6000003814697265625</AltitudeMeters>
            <DistanceMeters>12659.778092127</DistanceMeters>
          </Trackpoint>
          <Trackpoint>
            <Time>2022-07-04T09:17:32.000Z</Time>
            <Position>
              <LatitudeDegrees>44.82478561811149120330810546875</LatitudeDegrees>
              <LongitudeDegrees>-0.599109269678592681884765625</LongitudeDegrees>
            </Position>
            <AltitudeMeters>14.3999996185302734375</AltitudeMeters>
            <DistanceMeters>12686.528070026</DistanceMeters>
          </Trackpoint>
          <Trackpoint>
            <Time>2022-07-04T09:17:43.000Z</Time>
            <Position>
              <LatitudeDegrees>44.824455790221691131591796875</LatitudeDegrees>
              <LongitudeDegrees>-0.59940062463283538818359375</LongitudeDegrees>
            </Position>
            <AltitudeMeters>14.6000003814697265625</AltitudeMeters>
            <DistanceMeters>12729.848788707</DistanceMeters>
          </Trackpoint>
          <Trackpoint>
            <Time>2022-07-04T09:17:50.000Z</Time>
            <Position>
              <LatitudeDegrees>44.82424624264240264892578125</LatitudeDegrees>
              <LongitudeDegrees>-0.59960271231830120086669921875</LongitudeDegrees>
            </Position>
            <AltitudeMeters>14</AltitudeMeters>
            <DistanceMeters>12758.106416697</DistanceMeters>
          </Trackpoint>
          <Trackpoint>
            <Time>2022-07-04T09:17:52.000Z</Time>
            <Position>
              <LatitudeDegrees>44.82418932951986789703369140625</LatitudeDegrees>
              <LongitudeDegrees>-0.59964998625218868255615234375</LongitudeDegrees>
            </Position>
            <AltitudeMeters>13.80000019073486328125</AltitudeMeters>
            <DistanceMeters>12765.458561798</DistanceMeters>
          </Trackpoint>
          <Trackpoint>
            <Time>2022-07-04T09:17:53.000Z</Time>
            <Position>
              <LatitudeDegrees>44.82416401617228984832763671875</LatitudeDegrees>
              <LongitudeDegrees>-0.5996700190007686614990234375</LongitudeDegrees>
            </Position>
            <AltitudeMeters>13.6000003814697265625</AltitudeMeters>
            <DistanceMeters>12768.689470087</DistanceMeters>
          </Trackpoint>
          <Trackpoint>
            <Time>2022-07-04T09:17:58.000Z</Time>
            <Position>
              <LatitudeDegrees>44.8240432329475879669189453125</LatitudeDegrees>
              <LongitudeDegrees>-0.5997695960104465484619140625</LongitudeDegrees>
            </Position>
            <AltitudeMeters>13.6000003814697265625</AltitudeMeters>
            <DistanceMeters>12784.262258308</DistanceMeters>
          </Trackpoint>
          <Trackpoint>
            <Time>2022-07-04T09:18:05.000Z</Time>
            <Position>
              <LatitudeDegrees>44.82385598123073577880859375</LatitudeDegrees>
              <LongitudeDegrees>-0.599934048950672149658203125</LongitudeDegrees>
            </Position>
            <AltitudeMeters>13.80000019073486328125</AltitudeMeters>
            <DistanceMeters>12808.816322816</DistanceMeters>
          </Trackpoint>
          <Trackpoint>
            <Time>2022-07-04T09:18:07.000Z</Time>
            <Position>
              <LatitudeDegrees>44.823802672326564788818359375</LatitudeDegrees>
              <LongitudeDegrees>-0.5999778024852275848388671875</LongitudeDegrees>
            </Position>
            <AltitudeMeters>14</AltitudeMeters>
            <DistanceMeters>12815.681304168</DistanceMeters>
          </Trackpoint>
          <Trackpoint>
            <Time>2022-07-04T09:18:14.000Z</Time>
            <Position>
              <LatitudeDegrees>44.823628999292850494384765625</LatitudeDegrees>
              <LongitudeDegrees>-0.60017100535333156585693359375</LongitudeDegrees>
            </Position>
            <AltitudeMeters>14</AltitudeMeters>
            <DistanceMeters>12840.304227685</DistanceMeters>
          </Trackpoint>
          <Trackpoint>
            <Time>2022-07-04T09:18:25.000Z</Time>
            <Position>
              <LatitudeDegrees>44.82337343506515026092529296875</LatitudeDegrees>
              <LongitudeDegrees>-0.60056294314563274383544921875</LongitudeDegrees>
            </Position>
            <AltitudeMeters>14.3999996185302734375</AltitudeMeters>
            <DistanceMeters>12882.333652902</DistanceMeters>
          </Trackpoint>
          <Trackpoint>
            <Time>2022-07-04T09:18:37.000Z</Time>
            <Position>
              <LatitudeDegrees>44.82312901876866817474365234375</LatitudeDegrees>
              <LongitudeDegrees>-0.6010386161506175994873046875</LongitudeDegrees>
            </Position>
            <AltitudeMeters>14.6000003814697265625</AltitudeMeters>
            <DistanceMeters>12928.703963258</DistanceMeters>
          </Trackpoint>
          <Trackpoint>
            <Time>2022-07-04T09:18:40.000Z</Time>
            <Position>
              <LatitudeDegrees>44.8230588622391223907470703125</LatitudeDegrees>
              <LongitudeDegrees>-0.60115185566246509552001953125</LongitudeDegrees>
            </Position>
            <AltitudeMeters>14.3999996185302734375</AltitudeMeters>
            <DistanceMeters>12940.573556877</DistanceMeters>
          </Trackpoint>
          <Trackpoint>
            <Time>2022-07-04T09:18:41.000Z</Time>
            <Position>
              <LatitudeDegrees>44.82302340678870677947998046875</LatitudeDegrees>
              <LongitudeDegrees>-0.601167865097522735595703125</LongitudeDegrees>
            </Position>
            <AltitudeMeters>14.3999996185302734375</AltitudeMeters>
            <DistanceMeters>12944.717854814</DistanceMeters>
          </Trackpoint>
          <Trackpoint>
            <Time>2022-07-04T09:18:43.000Z</Time>
            <Position>
              <LatitudeDegrees>44.82294478453695774078369140625</LatitudeDegrees>
              <LongitudeDegrees>-0.60117364861071109771728515625</LongitudeDegrees>
            </Position>
            <AltitudeMeters>14.6000003814697265625</AltitudeMeters>
            <DistanceMeters>12953.480946168</DistanceMeters>
          </Trackpoint>
          <Trackpoint>
            <Time>2022-07-04T09:18:45.000Z</Time>
            <Position>
              <LatitudeDegrees>44.8228821717202663421630859375</LatitudeDegrees>
              <LongitudeDegrees>-0.6011539511382579803466796875</LongitudeDegrees>
            </Position>
            <AltitudeMeters>14.6000003814697265625</AltitudeMeters>
            <DistanceMeters>12960.621241093</DistanceMeters>
          </Trackpoint>
          <Trackpoint>
            <Time>2022-07-04T09:18:50.000Z</Time>
            <Position>
              <LatitudeDegrees>44.82270799577236175537109375</LatitudeDegrees>
              <LongitudeDegrees>-0.6011475808918476104736328125</LongitudeDegrees>
            </Position>
            <AltitudeMeters>14.6000003814697265625</AltitudeMeters>
            <DistanceMeters>12980.013909647</DistanceMeters>
          </Trackpoint>
          <Trackpoint>
            <Time>2022-07-04T09:18:59.000Z</Time>
            <Position>
              <LatitudeDegrees>44.8223856277763843536376953125</LatitudeDegrees>
              <LongitudeDegrees>-0.60128353536128997802734375</LongitudeDegrees>
            </Position>
            <AltitudeMeters>14.3999996185302734375</AltitudeMeters>
            <DistanceMeters>13017.465045726</DistanceMeters>
          </Trackpoint>
          <Trackpoint>
            <Time>2022-07-04T09:19:04.000Z</Time>
            <Position>
              <LatitudeDegrees>44.82220617122948169708251953125</LatitudeDegrees>
              <LongitudeDegrees>-0.6013997085392475128173828125</LongitudeDegrees>
            </Position>
            <AltitudeMeters>14.19999980926513671875</AltitudeMeters>
            <DistanceMeters>13039.443966751</DistanceMeters>
          </Trackpoint>
          <Trackpoint>
            <Time>2022-07-04T09:19:08.000Z</Time>
            <Position>
              <LatitudeDegrees>44.82207323424518108367919921875</LatitudeDegrees>
              <LongitudeDegrees>-0.60151160694658756256103515625</LongitudeDegrees>
            </Position>
            <AltitudeMeters>14.19999980926513671875</AltitudeMeters>
            <DistanceMeters>13056.676845907</DistanceMeters>
          </Trackpoint>
          <Trackpoint>
            <Time>2022-07-04T09:19:10.000Z</Time>
            <Position>
              <LatitudeDegrees>44.82200986705720424652099609375</LatitudeDegrees>
              <LongitudeDegrees>-0.60156139545142650604248046875</LongitudeDegrees>
            </Position>
            <AltitudeMeters>14.19999980926513671875</AltitudeMeters>
            <DistanceMeters>13064.751321242</DistanceMeters>
          </Trackpoint>
          <Trackpoint>
            <Time>2022-07-04T09:19:11.000Z</Time>
            <Position>
              <LatitudeDegrees>44.82196611352264881134033203125</LatitudeDegrees>
              <LongitudeDegrees>-0.60159358195960521697998046875</LongitudeDegrees>
            </Position>
            <AltitudeMeters>14.19999980926513671875</AltitudeMeters>
            <DistanceMeters>13070.243996856</DistanceMeters>
          </Trackpoint>
          <Trackpoint>
            <Time>2022-07-04T09:19:12.000Z</Time>
            <Position>
              <LatitudeDegrees>44.82192638330161571502685546875</LatitudeDegrees>
              <LongitudeDegrees>-0.60162258334457874298095703125</LongitudeDegrees>
            </Position>
            <AltitudeMeters>14</AltitudeMeters>
            <DistanceMeters>13075.224520924</DistanceMeters>
          </Trackpoint>
          <Trackpoint>
            <Time>2022-07-04T09:19:16.000Z</Time>
            <Position>
              <LatitudeDegrees>44.8217861540615558624267578125</LatitudeDegrees>
              <LongitudeDegrees>-0.60173607431352138519287109375</LongitudeDegrees>
            </Position>
            <AltitudeMeters>13.80000019073486328125</AltitudeMeters>
            <DistanceMeters>13093.220985069</DistanceMeters>
          </Trackpoint>
          <Trackpoint>
            <Time>2022-07-04T09:19:20.000Z</Time>
            <Position>
              <LatitudeDegrees>44.82163838110864162445068359375</LatitudeDegrees>
              <LongitudeDegrees>-0.60183615423738956451416015625</LongitudeDegrees>
            </Position>
            <AltitudeMeters>13.80000019073486328125</AltitudeMeters>
            <DistanceMeters>13111.46759896</DistanceMeters>
          </Trackpoint>
          <Trackpoint>
            <Time>2022-07-04T09:19:23.000Z</Time>
            <Position>
              <LatitudeDegrees>44.82153964228928089141845703125</LatitudeDegrees>
              <LongitudeDegrees>-0.6019093282520771026611328125</LongitudeDegrees>
            </Position>
            <AltitudeMeters>14</AltitudeMeters>
            <DistanceMeters>13123.883776514</DistanceMeters>
          </Trackpoint>
          <Trackpoint>
            <Time>2022-07-04T09:19:32.000Z</Time>
            <Position>
              <LatitudeDegrees>44.82121140696108341217041015625</LatitudeDegrees>
              <LongitudeDegrees>-0.602012090384960174560546875</LongitudeDegrees>
            </Position>
            <AltitudeMeters>14.3999996185302734375</AltitudeMeters>
            <DistanceMeters>13161.307053307</DistanceMeters>
          </Trackpoint>
          <Trackpoint>
            <Time>2022-07-04T09:19:40.000Z</Time>
            <Position>
              <LatitudeDegrees>44.82094586826860904693603515625</LatitudeDegrees>
              <LongitudeDegrees>-0.60205458663403987884521484375</LongitudeDegrees>
            </Position>
            <AltitudeMeters>14.6000003814697265625</AltitudeMeters>
            <DistanceMeters>13191.051932865</DistanceMeters>
          </Trackpoint>
          <Trackpoint>
            <Time>2022-07-04T09:19:41.000Z</Time>
            <Position>
              <LatitudeDegrees>44.82091401703655719757080078125</LatitudeDegrees>
              <LongitudeDegrees>-0.60206179507076740264892578125</LongitudeDegrees>
            </Position>
            <AltitudeMeters>14.6000003814697265625</AltitudeMeters>
            <DistanceMeters>13194.64288666</DistanceMeters>
          </Trackpoint>
          <Trackpoint>
            <Time>2022-07-04T09:19:45.000Z</Time>
            <Position>
              <LatitudeDegrees>44.82085953466594219207763671875</LatitudeDegrees>
              <LongitudeDegrees>-0.60209758579730987548828125</LongitudeDegrees>
            </Position>
            <AltitudeMeters>14.6000003814697265625</AltitudeMeters>
            <DistanceMeters>13201.334009063</DistanceMeters>
          </Trackpoint>
          <Trackpoint>
            <Time>2022-07-04T09:19:51.000Z</Time>
            <Position>
              <LatitudeDegrees>44.82073254883289337158203125</LatitudeDegrees>
              <LongitudeDegrees>-0.60210119001567363739013671875</LongitudeDegrees>
            </Position>
            <AltitudeMeters>15</AltitudeMeters>
            <DistanceMeters>13215.470969552</DistanceMeters>
          </Trackpoint>
          <Trackpoint>
            <Time>2022-07-04T09:19:58.000Z</Time>
            <Position>
              <LatitudeDegrees>44.820541441440582275390625</LatitudeDegrees>
              <LongitudeDegrees>-0.60212868265807628631591796875</LongitudeDegrees>
            </Position>
            <AltitudeMeters>15.3999996185302734375</AltitudeMeters>
            <DistanceMeters>13236.852191455</DistanceMeters>
          </Trackpoint>
          <Trackpoint>
            <Time>2022-07-04T09:20:03.000Z</Time>
            <Position>
              <LatitudeDegrees>44.82040188275277614593505859375</LatitudeDegrees>
              <LongitudeDegrees>-0.60213781893253326416015625</LongitudeDegrees>
            </Position>
            <AltitudeMeters>15.6000003814697265625</AltitudeMeters>
            <DistanceMeters>13252.402058237</DistanceMeters>
          </Trackpoint>
          <Trackpoint>
            <Time>2022-07-04T09:20:08.000Z</Time>
            <Position>
              <LatitudeDegrees>44.82023902237415313720703125</LatitudeDegrees>
              <LongitudeDegrees>-0.6021379865705966949462890625</LongitudeDegrees>
            </Position>
            <AltitudeMeters>15.6000003814697265625</AltitudeMeters>
            <DistanceMeters>13270.528512978</DistanceMeters>
          </Trackpoint>
          <Trackpoint>
            <Time>2022-07-04T09:20:10.000Z</Time>
            <Position>
              <LatitudeDegrees>44.820181690156459808349609375</LatitudeDegrees>
              <LongitudeDegrees>-0.60213890857994556427001953125</LongitudeDegrees>
            </Position>
            <AltitudeMeters>15.6000003814697265625</AltitudeMeters>
            <DistanceMeters>13276.910177711</DistanceMeters>
          </Trackpoint>
          <Trackpoint>
            <Time>2022-07-04T09:20:14.000Z</Time>
            <Position>
              <LatitudeDegrees>44.82005420140922069549560546875</LatitudeDegrees>
              <LongitudeDegrees>-0.60214041732251644134521484375</LongitudeDegrees>
            </Position>
            <AltitudeMeters>16</AltitudeMeters>
            <DistanceMeters>13291.100692314</DistanceMeters>
          </Trackpoint>
          <Trackpoint>
            <Time>2022-07-04T09:20:18.000Z</Time>
            <Position>
              <LatitudeDegrees>44.8199414648115634918212890625</LatitudeDegrees>
              <LongitudeDegrees>-0.60214494355022907257080078125</LongitudeDegrees>
            </Position>
            <AltitudeMeters>16.200000762939453125</AltitudeMeters>
            <DistanceMeters>13303.653573814</DistanceMeters>
          </Trackpoint>
          <Trackpoint>
            <Time>2022-07-04T09:20:21.000Z</Time>
            <Position>
              <LatitudeDegrees>44.819845072925090789794921875</LatitudeDegrees>
              <LongitudeDegrees>-0.60215600766241550445556640625</LongitudeDegrees>
            </Position>
            <AltitudeMeters>16.200000762939453125</AltitudeMeters>
            <DistanceMeters>13314.418049692</DistanceMeters>
          </Trackpoint>
          <Trackpoint>
            <Time>2022-07-04T09:20:24.000Z</Time>
            <Position>
              <LatitudeDegrees>44.81975748203694820404052734375</LatitudeDegrees>
              <LongitudeDegrees>-0.60217930935323238372802734375</LongitudeDegrees>
            </Position>
            <AltitudeMeters>16.3999996185302734375</AltitudeMeters>
            <DistanceMeters>13324.339129937</DistanceMeters>
          </Trackpoint>
          <Trackpoint>
            <Time>2022-07-04T09:20:30.000Z</Time>
            <Position>
              <LatitudeDegrees>44.8195723257958889007568359375</LatitudeDegrees>
              <LongitudeDegrees>-0.6022298522293567657470703125</LongitudeDegrees>
            </Position>
            <AltitudeMeters>16.3999996185302734375</AltitudeMeters>
            <DistanceMeters>13345.330356918</DistanceMeters>
          </Trackpoint>
          <Trackpoint>
            <Time>2022-07-04T09:20:39.000Z</Time>
            <Position>
              <LatitudeDegrees>44.81928356923162937164306640625</LatitudeDegrees>
              <LongitudeDegrees>-0.6023113243281841278076171875</LongitudeDegrees>
            </Position>
            <AltitudeMeters>16.3999996185302734375</AltitudeMeters>
            <DistanceMeters>13378.106997907</DistanceMeters>
          </Trackpoint>
          <Trackpoint>
            <Time>2022-07-04T09:20:48.000Z</Time>
            <Position>
              <LatitudeDegrees>44.8189845867455005645751953125</LatitudeDegrees>
              <LongitudeDegrees>-0.6024062074720859527587890625</LongitudeDegrees>
            </Position>
            <AltitudeMeters>16.6000003814697265625</AltitudeMeters>
            <DistanceMeters>13412.217220563</DistanceMeters>
          </Trackpoint>
          <Trackpoint>
            <Time>2022-07-04T09:20:50.000Z</Time>
            <Position>
              <LatitudeDegrees>44.818929098546504974365234375</LatitudeDegrees>
              <LongitudeDegrees>-0.6024216301739215850830078125</LongitudeDegrees>
            </Position>
            <AltitudeMeters>16.799999237060546875</AltitudeMeters>
            <DistanceMeters>13418.511978338</DistanceMeters>
          </Trackpoint>
          <Trackpoint>
            <Time>2022-07-04T09:20:57.000Z</Time>
            <Position>
              <LatitudeDegrees>44.81872868724167346954345703125</LatitudeDegrees>
              <LongitudeDegrees>-0.6024415791034698486328125</LongitudeDegrees>
            </Position>
            <AltitudeMeters>17.200000762939453125</AltitudeMeters>
            <DistanceMeters>13440.873765233</DistanceMeters>
          </Trackpoint>
          <Trackpoint>
            <Time>2022-07-04T09:21:04.000Z</Time>
            <Position>
              <LatitudeDegrees>44.81854361481964588165283203125</LatitudeDegrees>
              <LongitudeDegrees>-0.6025393120944499969482421875</LongitudeDegrees>
            </Position>
            <AltitudeMeters>17.3999996185302734375</AltitudeMeters>
            <DistanceMeters>13462.870345786</DistanceMeters>
          </Trackpoint>
          <Trackpoint>
            <Time>2022-07-04T09:21:10.000Z</Time>
            <Position>
              <LatitudeDegrees>44.81847840361297130584716796875</LatitudeDegrees>
              <LongitudeDegrees>-0.60275732539594173431396484375</LongitudeDegrees>
            </Position>
            <AltitudeMeters>17.6000003814697265625</AltitudeMeters>
            <DistanceMeters>13481.550770677</DistanceMeters>
          </Trackpoint>
          <Trackpoint>
            <Time>2022-07-04T09:21:11.000Z</Time>
            <Position>
              <LatitudeDegrees>44.81847002170979976654052734375</LatitudeDegrees>
              <LongitudeDegrees>-0.6027947925031185150146484375</LongitudeDegrees>
            </Position>
            <AltitudeMeters>17.799999237060546875</AltitudeMeters>
            <DistanceMeters>13484.653360158</DistanceMeters>
          </Trackpoint>
          <Trackpoint>
            <Time>2022-07-04T09:21:16.000Z</Time>
            <Position>
              <LatitudeDegrees>44.81842358596622943878173828125</LatitudeDegrees>
              <LongitudeDegrees>-0.6029788590967655181884765625</LongitudeDegrees>
            </Position>
            <AltitudeMeters>17.799999237060546875</AltitudeMeters>
            <DistanceMeters>13500.077281965</DistanceMeters>
          </Trackpoint>
          <Trackpoint>
            <Time>2022-07-04T09:21:17.000Z</Time>
            <Position>
              <LatitudeDegrees>44.8184082470834255218505859375</LatitudeDegrees>
              <LongitudeDegrees>-0.60301850549876689910888671875</LongitudeDegrees>
            </Position>
            <AltitudeMeters>18</AltitudeMeters>
            <DistanceMeters>13503.641733895</DistanceMeters>
          </Trackpoint>
          <Trackpoint>
            <Time>2022-07-04T09:21:27.000Z</Time>
            <Position>
              <LatitudeDegrees>44.8182731308043003082275390625</LatitudeDegrees>
              <LongitudeDegrees>-0.603342466056346893310546875</LongitudeDegrees>
            </Position>
            <AltitudeMeters>18.3999996185302734375</AltitudeMeters>
            <DistanceMeters>13533.312598605</DistanceMeters>
          </Trackpoint>
          <Trackpoint>
            <Time>2022-07-04T09:21:33.000Z</Time>
            <Position>
              <LatitudeDegrees>44.81818838976323604583740234375</LatitudeDegrees>
              <LongitudeDegrees>-0.60354463756084442138671875</LongitudeDegrees>
            </Position>
            <AltitudeMeters>18.6000003814697265625</AltitudeMeters>
            <DistanceMeters>13551.852795204</DistanceMeters>
          </Trackpoint>
          <Trackpoint>
            <Time>2022-07-04T09:21:35.000Z</Time>
            <Position>
              <LatitudeDegrees>44.8181534372270107269287109375</LatitudeDegrees>
              <LongitudeDegrees>-0.6036041490733623504638671875</LongitudeDegrees>
            </Position>
            <AltitudeMeters>18.6000003814697265625</AltitudeMeters>
            <DistanceMeters>13557.953036595</DistanceMeters>
          </Trackpoint>
          <Trackpoint>
            <Time>2022-07-04T09:21:37.000Z</Time>
            <Position>
              <LatitudeDegrees>44.81812401674687862396240234375</LatitudeDegrees>
              <LongitudeDegrees>-0.6036619842052459716796875</LongitudeDegrees>
            </Position>
            <AltitudeMeters>18.799999237060546875</AltitudeMeters>
            <DistanceMeters>13563.571679424</DistanceMeters>
          </Trackpoint>
          <Trackpoint>
            <Time>2022-07-04T09:21:46.000Z</Time>
            <Position>
              <LatitudeDegrees>44.81796459294855594635009765625</LatitudeDegrees>
              <LongitudeDegrees>-0.60393934138119220733642578125</LongitudeDegrees>
            </Position>
            <AltitudeMeters>19</AltitudeMeters>
            <DistanceMeters>13591.756353004</DistanceMeters>
          </Trackpoint>
          <Trackpoint>
            <Time>2022-07-04T09:21:51.000Z</Time>
            <Position>
              <LatitudeDegrees>44.8178634233772754669189453125</LatitudeDegrees>
              <LongitudeDegrees>-0.6040956638753414154052734375</LongitudeDegrees>
            </Position>
            <AltitudeMeters>19</AltitudeMeters>
            <DistanceMeters>13608.463768215</DistanceMeters>
          </Trackpoint>
          <Trackpoint>
            <Time>2022-07-04T09:21:54.000Z</Time>
            <Position>
              <LatitudeDegrees>44.817801229655742645263671875</LatitudeDegrees>
              <LongitudeDegrees>-0.6041930615901947021484375</LongitudeDegrees>
            </Position>
            <AltitudeMeters>19.200000762939453125</AltitudeMeters>
            <DistanceMeters>13618.810776784</DistanceMeters>
          </Trackpoint>
          <Trackpoint>
            <Time>2022-07-04T09:22:02.000Z</Time>
            <Position>
              <LatitudeDegrees>44.81765882112085819244384765625</LatitudeDegrees>
              <LongitudeDegrees>-0.60444644652307033538818359375</LongitudeDegrees>
            </Position>
            <AltitudeMeters>19.200000762939453125</AltitudeMeters>
            <DistanceMeters>13644.334428656</DistanceMeters>
          </Trackpoint>
          <Trackpoint>
            <Time>2022-07-04T09:22:07.000Z</Time>
            <Position>
              <LatitudeDegrees>44.81756511144340038299560546875</LatitudeDegrees>
              <LongitudeDegrees>-0.60463990084826946258544921875</LongitudeDegrees>
            </Position>
            <AltitudeMeters>19.200000762939453125</AltitudeMeters>
            <DistanceMeters>13662.829762009</DistanceMeters>
          </Trackpoint>
          <Trackpoint>
            <Time>2022-07-04T09:22:10.000Z</Time>
            <Position>
              <LatitudeDegrees>44.81751792132854461669921875</LatitudeDegrees>
              <LongitudeDegrees>-0.6047528050839900970458984375</LongitudeDegrees>
            </Position>
            <AltitudeMeters>19.200000762939453125</AltitudeMeters>
            <DistanceMeters>13673.176770578</DistanceMeters>
          </Trackpoint>
          <Trackpoint>
            <Time>2022-07-04T09:22:17.000Z</Time>
            <Position>
              <LatitudeDegrees>44.8174191825091838836669921875</LatitudeDegrees>
              <LongitudeDegrees>-0.60497635044157505035400390625</LongitudeDegrees>
            </Position>
            <AltitudeMeters>19.200000762939453125</AltitudeMeters>
            <DistanceMeters>13693.968085819</DistanceMeters>
          </Trackpoint>
          <Trackpoint>
            <Time>2022-07-04T09:22:27.000Z</Time>
            <Position>
              <LatitudeDegrees>44.8172964714467525482177734375</LatitudeDegrees>
              <LongitudeDegrees>-0.60529653914272785186767578125</LongitudeDegrees>
            </Position>
            <AltitudeMeters>19.799999237060546875</AltitudeMeters>
            <DistanceMeters>13722.701373642</DistanceMeters>
          </Trackpoint>
          <Trackpoint>
            <Time>2022-07-04T09:22:37.000Z</Time>
            <Position>
              <LatitudeDegrees>44.817195720970630645751953125</LatitudeDegrees>
              <LongitudeDegrees>-0.60561572201550006866455078125</LongitudeDegrees>
            </Position>
            <AltitudeMeters>20.200000762939453125</AltitudeMeters>
            <DistanceMeters>13750.28417681</DistanceMeters>
          </Trackpoint>
          <Trackpoint>
            <Time>2022-07-04T09:22:44.000Z</Time>
            <Position>
              <LatitudeDegrees>44.8171375505626201629638671875</LatitudeDegrees>
              <LongitudeDegrees>-0.605871118605136871337890625</LongitudeDegrees>
            </Position>
            <AltitudeMeters>20.3999996185302734375</AltitudeMeters>
            <DistanceMeters>13771.462772775</DistanceMeters>
          </Trackpoint>
          <Trackpoint>
            <Time>2022-07-04T09:22:47.000Z</Time>
            <Position>
              <LatitudeDegrees>44.81712137348949909210205078125</LatitudeDegrees>
              <LongitudeDegrees>-0.6059794127941131591796875</LongitudeDegrees>
            </Position>
            <AltitudeMeters>20.6000003814697265625</AltitudeMeters>
            <DistanceMeters>13780.200064476</DistanceMeters>
          </Trackpoint>
          <Trackpoint>
            <Time>2022-07-04T09:22:49.000Z</Time>
            <Position>
              <LatitudeDegrees>44.8171015083789825439453125</LatitudeDegrees>
              <LongitudeDegrees>-0.606051497161388397216796875</LongitudeDegrees>
            </Position>
            <AltitudeMeters>20.799999237060546875</AltitudeMeters>
            <DistanceMeters>13786.305484655</DistanceMeters>
          </Trackpoint>
          <Trackpoint>
            <Time>2022-07-04T09:22:54.000Z</Time>
            <Position>
              <LatitudeDegrees>44.81706404127180576324462890625</LatitudeDegrees>
              <LongitudeDegrees>-0.6062447838485240936279296875</LongitudeDegrees>
            </Position>
            <AltitudeMeters>20.799999237060546875</AltitudeMeters>
            <DistanceMeters>13802.125648962</DistanceMeters>
          </Trackpoint>
          <Trackpoint>
            <Time>2022-07-04T09:23:06.000Z</Time>
            <Position>
              <LatitudeDegrees>44.8169539868831634521484375</LatitudeDegrees>
              <LongitudeDegrees>-0.60668885707855224609375</LongitudeDegrees>
            </Position>
            <AltitudeMeters>21.3999996185302734375</AltitudeMeters>
            <DistanceMeters>13839.264928932</DistanceMeters>
          </Trackpoint>
          <Trackpoint>
            <Time>2022-07-04T09:23:16.000Z</Time>
            <Position>
              <LatitudeDegrees>44.81683052144944667816162109375</LatitudeDegrees>
              <LongitudeDegrees>-0.60705791227519512176513671875</LongitudeDegrees>
            </Position>
            <AltitudeMeters>21.799999237060546875</AltitudeMeters>
            <DistanceMeters>13871.480807098</DistanceMeters>
          </Trackpoint>
          <Trackpoint>
            <Time>2022-07-04T09:23:18.000Z</Time>
            <Position>
              <LatitudeDegrees>44.81679950840771198272705078125</LatitudeDegrees>
              <LongitudeDegrees>-0.6071379594504833221435546875</LongitudeDegrees>
            </Position>
            <AltitudeMeters>21.799999237060546875</AltitudeMeters>
            <DistanceMeters>13878.681550042</DistanceMeters>
          </Trackpoint>
          <Trackpoint>
            <Time>2022-07-04T09:23:26.000Z</Time>
            <Position>
              <LatitudeDegrees>44.81667461805045604705810546875</LatitudeDegrees>
              <LongitudeDegrees>-0.60740408487617969512939453125</LongitudeDegrees>
            </Position>
            <AltitudeMeters>22</AltitudeMeters>
            <DistanceMeters>13903.87510166</DistanceMeters>
          </Trackpoint>
          <Trackpoint>
            <Time>2022-07-04T09:23:27.000Z</Time>
            <Position>
              <LatitudeDegrees>44.8166634701192378997802734375</LatitudeDegrees>
              <LongitudeDegrees>-0.6074313260614871978759765625</LongitudeDegrees>
            </Position>
            <AltitudeMeters>22</AltitudeMeters>
            <DistanceMeters>13906.356736633</DistanceMeters>
          </Trackpoint>
          <Trackpoint>
            <Time>2022-07-04T09:23:33.000Z</Time>
            <Position>
              <LatitudeDegrees>44.81655928306281566619873046875</LatitudeDegrees>
              <LongitudeDegrees>-0.60766694135963916778564453125</LongitudeDegrees>
            </Position>
            <AltitudeMeters>22</AltitudeMeters>
            <DistanceMeters>13928.277651027</DistanceMeters>
          </Trackpoint>
          <Trackpoint>
            <Time>2022-07-04T09:23:37.000Z</Time>
            <Position>
              <LatitudeDegrees>44.816498346626758575439453125</LatitudeDegrees>
              <LongitudeDegrees>-0.607802309095859527587890625</LongitudeDegrees>
            </Position>
            <AltitudeMeters>22.200000762939453125</AltitudeMeters>
            <DistanceMeters>13940.93583717</DistanceMeters>
          </Trackpoint>
          <Trackpoint>
            <Time>2022-07-04T09:23:44.000Z</Time>
            <Position>
              <LatitudeDegrees>44.816376976668834686279296875</LatitudeDegrees>
              <LongitudeDegrees>-0.6080797500908374786376953125</LongitudeDegrees>
            </Position>
            <AltitudeMeters>22.3999996185302734375</AltitudeMeters>
            <DistanceMeters>13966.6714154</DistanceMeters>
          </Trackpoint>
          <Trackpoint>
            <Time>2022-07-04T09:23:45.000Z</Time>
            <Position>
              <LatitudeDegrees>44.81636113487184047698974609375</LatitudeDegrees>
              <LongitudeDegrees>-0.60811721719801425933837890625</LongitudeDegrees>
            </Position>
            <AltitudeMeters>22.3999996185302734375</AltitudeMeters>
            <DistanceMeters>13970.116051875</DistanceMeters>
          </Trackpoint>
          <Trackpoint>
            <Time>2022-07-04T09:23:55.000Z</Time>
            <Position>
              <LatitudeDegrees>44.81621344573795795440673828125</LatitudeDegrees>
              <LongitudeDegrees>-0.60847898013889789581298828125</LongitudeDegrees>
            </Position>
            <AltitudeMeters>22.6000003814697265625</AltitudeMeters>
            <DistanceMeters>14003.071283538</DistanceMeters>
          </Trackpoint>
          <Trackpoint>
            <Time>2022-07-04T09:24:03.000Z</Time>
            <Position>
              <LatitudeDegrees>44.8160536028444766998291015625</LatitudeDegrees>
              <LongitudeDegrees>-0.60875709168612957000732421875</LongitudeDegrees>
            </Position>
            <AltitudeMeters>22.6000003814697265625</AltitudeMeters>
            <DistanceMeters>14031.332106972</DistanceMeters>
          </Trackpoint>
          <Trackpoint>
            <Time>2022-07-04T09:24:05.000Z</Time>
            <Position>
              <LatitudeDegrees>44.816008508205413818359375</LatitudeDegrees>
              <LongitudeDegrees>-0.60883303172886371612548828125</LongitudeDegrees>
            </Position>
            <AltitudeMeters>22.6000003814697265625</AltitudeMeters>
            <DistanceMeters>14039.150905954</DistanceMeters>
          </Trackpoint>
          <Trackpoint>
            <Time>2022-07-04T09:24:13.000Z</Time>
            <Position>
              <LatitudeDegrees>44.81581614352762699127197265625</LatitudeDegrees>
              <LongitudeDegrees>-0.60915539972484111785888671875</LongitudeDegrees>
            </Position>
            <AltitudeMeters>22.3999996185302734375</AltitudeMeters>
            <DistanceMeters>14072.411206237</DistanceMeters>
          </Trackpoint>
          <Trackpoint>
            <Time>2022-07-04T09:24:21.000Z</Time>
            <Position>
              <LatitudeDegrees>44.815608523786067962646484375</LatitudeDegrees>
              <LongitudeDegrees>-0.60948631726205348968505859375</LongitudeDegrees>
            </Position>
            <AltitudeMeters>22.200000762939453125</AltitudeMeters>
            <DistanceMeters>14107.291835813</DistanceMeters>
          </Trackpoint>
          <Trackpoint>
            <Time>2022-07-04T09:24:29.000Z</Time>
            <Position>
              <LatitudeDegrees>44.81537911109626293182373046875</LatitudeDegrees>
              <LongitudeDegrees>-0.60985746793448925018310546875</LongitudeDegrees>
            </Position>
            <AltitudeMeters>22</AltitudeMeters>
            <DistanceMeters>14146.160085312</DistanceMeters>
          </Trackpoint>
          <Trackpoint>
            <Time>2022-07-04T09:24:32.000Z</Time>
            <Position>
              <LatitudeDegrees>44.815299399197101593017578125</LatitudeDegrees>
              <LongitudeDegrees>-0.60999945737421512603759765625</LongitudeDegrees>
            </Position>
            <AltitudeMeters>21.6000003814697265625</AltitudeMeters>
            <DistanceMeters>14160.456790538</DistanceMeters>
          </Trackpoint>
          <Trackpoint>
            <Time>2022-07-04T09:24:38.000Z</Time>
            <Position>
              <LatitudeDegrees>44.81510820798575878143310546875</LatitudeDegrees>
              <LongitudeDegrees>-0.610334314405918121337890625</LongitudeDegrees>
            </Position>
            <AltitudeMeters>21.200000762939453125</AltitudeMeters>
            <DistanceMeters>14194.395831347</DistanceMeters>
          </Trackpoint>
          <Trackpoint>
            <Time>2022-07-04T09:24:43.000Z</Time>
            <Position>
              <LatitudeDegrees>44.81492556631565093994140625</LatitudeDegrees>
              <LongitudeDegrees>-0.61061468906700611114501953125</LongitudeDegrees>
            </Position>
            <AltitudeMeters>20.799999237060546875</AltitudeMeters>
            <DistanceMeters>14224.450874799</DistanceMeters>
          </Trackpoint>
          <Trackpoint>
            <Time>2022-07-04T09:24:47.000Z</Time>
            <Position>
              <LatitudeDegrees>44.81478047557175159454345703125</LatitudeDegrees>
              <LongitudeDegrees>-0.6108471192419528961181640625</LongitudeDegrees>
            </Position>
            <AltitudeMeters>20.3999996185302734375</AltitudeMeters>
            <DistanceMeters>14248.89620848</DistanceMeters>
          </Trackpoint>
          <Trackpoint>
            <Time>2022-07-04T09:24:50.000Z</Time>
            <Position>
              <LatitudeDegrees>44.814662374556064605712890625</LatitudeDegrees>
              <LongitudeDegrees>-0.6110110692679882049560546875</LongitudeDegrees>
            </Position>
            <AltitudeMeters>20</AltitudeMeters>
            <DistanceMeters>14267.345101166</DistanceMeters>
          </Trackpoint>
          <Trackpoint>
            <Time>2022-07-04T09:24:51.000Z</Time>
            <Position>
              <LatitudeDegrees>44.8146231472492218017578125</LatitudeDegrees>
              <LongitudeDegrees>-0.61107284389436244964599609375</LongitudeDegrees>
            </Position>
            <AltitudeMeters>19.799999237060546875</AltitudeMeters>
            <DistanceMeters>14273.891607318</DistanceMeters>
          </Trackpoint>
          <Trackpoint>
            <Time>2022-07-04T09:24:54.000Z</Time>
            <Position>
              <LatitudeDegrees>44.81449683196842670440673828125</LatitudeDegrees>
              <LongitudeDegrees>-0.61127652414143085479736328125</LongitudeDegrees>
            </Position>
            <AltitudeMeters>19.200000762939453125</AltitudeMeters>
            <DistanceMeters>14295.252547436</DistanceMeters>
          </Trackpoint>
          <Trackpoint>
            <Time>2022-07-04T09:24:57.000Z</Time>
            <Position>
              <LatitudeDegrees>44.8143839277327060699462890625</LatitudeDegrees>
              <LongitudeDegrees>-0.61145103536546230316162109375</LongitudeDegrees>
            </Position>
            <AltitudeMeters>18.799999237060546875</AltitudeMeters>
            <DistanceMeters>14313.901282891</DistanceMeters>
          </Trackpoint>
          <Trackpoint>
            <Time>2022-07-04T09:25:00.000Z</Time>
            <Position>
              <LatitudeDegrees>44.814280830323696136474609375</LatitudeDegrees>
              <LongitudeDegrees>-0.61162604950368404388427734375</LongitudeDegrees>
            </Position>
            <AltitudeMeters>18.799999237060546875</AltitudeMeters>
            <DistanceMeters>14331.863342942</DistanceMeters>
          </Trackpoint>
          <Trackpoint>
            <Time>2022-07-04T09:25:07.000Z</Time>
            <Position>
              <LatitudeDegrees>44.8140070773661136627197265625</LatitudeDegrees>
              <LongitudeDegrees>-0.61200960539281368255615234375</LongitudeDegrees>
            </Position>
            <AltitudeMeters>18</AltitudeMeters>
            <DistanceMeters>14374.82298567</DistanceMeters>
          </Trackpoint>
          <Trackpoint>
            <Time>2022-07-04T09:25:12.000Z</Time>
            <Position>
              <LatitudeDegrees>44.81382510624825954437255859375</LatitudeDegrees>
              <LongitudeDegrees>-0.61224631033837795257568359375</LongitudeDegrees>
            </Position>
            <AltitudeMeters>17.6000003814697265625</AltitudeMeters>
            <DistanceMeters>14402.382043519</DistanceMeters>
          </Trackpoint>
          <Trackpoint>
            <Time>2022-07-04T09:25:15.000Z</Time>
            <Position>
              <LatitudeDegrees>44.8137267865240573883056640625</LatitudeDegrees>
              <LongitudeDegrees>-0.6123753078281879425048828125</LongitudeDegrees>
            </Position>
            <AltitudeMeters>17.3999996185302734375</AltitudeMeters>
            <DistanceMeters>14417.331470328</DistanceMeters>
          </Trackpoint>
          <Trackpoint>
            <Time>2022-07-04T09:25:22.000Z</Time>
            <Position>
              <LatitudeDegrees>44.81348010711371898651123046875</LatitudeDegrees>
              <LongitudeDegrees>-0.61271619983017444610595703125</LongitudeDegrees>
            </Position>
            <AltitudeMeters>17.3999996185302734375</AltitudeMeters>
            <DistanceMeters>14455.780317055</DistanceMeters>
          </Trackpoint>
          <Trackpoint>
            <Time>2022-07-04T09:25:31.000Z</Time>
            <Position>
              <LatitudeDegrees>44.813216663897037506103515625</LatitudeDegrees>
              <LongitudeDegrees>-0.61315038241446018218994140625</LongitudeDegrees>
            </Position>
            <AltitudeMeters>17.200000762939453125</AltitudeMeters>
            <DistanceMeters>14500.891791401</DistanceMeters>
          </Trackpoint>
          <Trackpoint>
            <Time>2022-07-04T09:25:39.000Z</Time>
            <Position>
              <LatitudeDegrees>44.81303804554045200347900390625</LatitudeDegrees>
              <LongitudeDegrees>-0.6135688908398151397705078125</LongitudeDegrees>
            </Position>
            <AltitudeMeters>17.200000762939453125</AltitudeMeters>
            <DistanceMeters>14539.456015883</DistanceMeters>
          </Trackpoint>
          <Trackpoint>
            <Time>2022-07-04T09:25:40.000Z</Time>
            <Position>
              <LatitudeDegrees>44.813016168773174285888671875</LatitudeDegrees>
              <LongitudeDegrees>-0.61362010426819324493408203125</LongitudeDegrees>
            </Position>
            <AltitudeMeters>17.200000762939453125</AltitudeMeters>
            <DistanceMeters>14544.176845117</DistanceMeters>
          </Trackpoint>
          <Trackpoint>
            <Time>2022-07-04T09:25:48.000Z</Time>
            <Position>
              <LatitudeDegrees>44.81286923401057720184326171875</LatitudeDegrees>
              <LongitudeDegrees>-0.614028386771678924560546875</LongitudeDegrees>
            </Position>
            <AltitudeMeters>17.200000762939453125</AltitudeMeters>
            <DistanceMeters>14580.325486891</DistanceMeters>
          </Trackpoint>
          <Trackpoint>
            <Time>2022-07-04T09:26:01.000Z</Time>
            <Position>
              <LatitudeDegrees>44.81264979578554630279541015625</LatitudeDegrees>
              <LongitudeDegrees>-0.6147426925599575042724609375</LongitudeDegrees>
            </Position>
            <AltitudeMeters>17.200000762939453125</AltitudeMeters>
            <DistanceMeters>14641.787719679</DistanceMeters>
          </Trackpoint>
          <Trackpoint>
            <Time>2022-07-04T09:26:02.000Z</Time>
            <Position>
              <LatitudeDegrees>44.8126329481601715087890625</LatitudeDegrees>
              <LongitudeDegrees>-0.61479776166379451751708984375</LongitudeDegrees>
            </Position>
            <AltitudeMeters>17.200000762939453125</AltitudeMeters>
            <DistanceMeters>14646.523826718</DistanceMeters>
          </Trackpoint>
          <Trackpoint>
            <Time>2022-07-04T09:26:06.000Z</Time>
            <Position>
              <LatitudeDegrees>44.81256983242928981781005859375</LatitudeDegrees>
              <LongitudeDegrees>-0.614998005330562591552734375</LongitudeDegrees>
            </Position>
            <AltitudeMeters>17.3999996185302734375</AltitudeMeters>
            <DistanceMeters>14663.825475024</DistanceMeters>
          </Trackpoint>
          <Trackpoint>
            <Time>2022-07-04T09:26:10.000Z</Time>
            <Position>
              <LatitudeDegrees>44.8124969936907291412353515625</LatitudeDegrees>
              <LongitudeDegrees>-0.61518349684774875640869140625</LongitudeDegrees>
            </Position>
            <AltitudeMeters>17.3999996185302734375</AltitudeMeters>
            <DistanceMeters>14680.565827242</DistanceMeters>
          </Trackpoint>
          <Trackpoint>
            <Time>2022-07-04T09:26:13.000Z</Time>
            <Position>
              <LatitudeDegrees>44.8124577663838863372802734375</LatitudeDegrees>
              <LongitudeDegrees>-0.61534493230283260345458984375</LongitudeDegrees>
            </Position>
            <AltitudeMeters>17.3999996185302734375</AltitudeMeters>
            <DistanceMeters>14694.039864755</DistanceMeters>
          </Trackpoint>
          <Trackpoint>
            <Time>2022-07-04T09:26:17.000Z</Time>
            <Position>
              <LatitudeDegrees>44.8123947344720363616943359375</LatitudeDegrees>
              <LongitudeDegrees>-0.615549199283123016357421875</LongitudeDegrees>
            </Position>
            <AltitudeMeters>17.3999996185302734375</AltitudeMeters>
            <DistanceMeters>14711.628280227</DistanceMeters>
          </Trackpoint>
          <Trackpoint>
            <Time>2022-07-04T09:26:21.000Z</Time>
            <Position>
              <LatitudeDegrees>44.81231820769608020782470703125</LatitudeDegrees>
              <LongitudeDegrees>-0.6157672964036464691162109375</LongitudeDegrees>
            </Position>
            <AltitudeMeters>17.3999996185302734375</AltitudeMeters>
            <DistanceMeters>14730.840134499</DistanceMeters>
          </Trackpoint>
          <Trackpoint>
            <Time>2022-07-04T09:26:31.000Z</Time>
            <Position>
              <LatitudeDegrees>44.81216716580092906951904296875</LatitudeDegrees>
              <LongitudeDegrees>-0.6162594817578792572021484375</LongitudeDegrees>
            </Position>
            <AltitudeMeters>17.6000003814697265625</AltitudeMeters>
            <DistanceMeters>14773.183360264</DistanceMeters>
          </Trackpoint>
          <Trackpoint>
            <Time>2022-07-04T09:26:39.000Z</Time>
            <Position>
              <LatitudeDegrees>44.8120383359491825103759765625</LatitudeDegrees>
              <LongitudeDegrees>-0.6166420318186283111572265625</LongitudeDegrees>
            </Position>
            <AltitudeMeters>17.6000003814697265625</AltitudeMeters>
            <DistanceMeters>14806.620073089</DistanceMeters>
          </Trackpoint>
          <Trackpoint>
            <Time>2022-07-04T09:26:42.000Z</Time>
            <Position>
              <LatitudeDegrees>44.811990894377231597900390625</LatitudeDegrees>
              <LongitudeDegrees>-0.61678477562963962554931640625</LongitudeDegrees>
            </Position>
            <AltitudeMeters>17.6000003814697265625</AltitudeMeters>
            <DistanceMeters>14819.066759052</DistanceMeters>
          </Trackpoint>
          <Trackpoint>
            <Time>2022-07-04T09:26:53.000Z</Time>
            <Position>
              <LatitudeDegrees>44.8118234239518642425537109375</LatitudeDegrees>
              <LongitudeDegrees>-0.61732356436550617218017578125</LongitudeDegrees>
            </Position>
            <AltitudeMeters>17.6000003814697265625</AltitudeMeters>
            <DistanceMeters>14865.514024558</DistanceMeters>
          </Trackpoint>
          <Trackpoint>
            <Time>2022-07-04T09:27:02.000Z</Time>
            <Position>
              <LatitudeDegrees>44.811684451997280120849609375</LatitudeDegrees>
              <LongitudeDegrees>-0.61778247356414794921875</LongitudeDegrees>
            </Position>
            <AltitudeMeters>17.799999237060546875</AltitudeMeters>
            <DistanceMeters>14904.913113391</DistanceMeters>
          </Trackpoint>
          <Trackpoint>
            <Time>2022-07-04T09:27:07.000Z</Time>
            <Position>
              <LatitudeDegrees>44.81160960160195827484130859375</LatitudeDegrees>
              <LongitudeDegrees>-0.6180072762072086334228515625</LongitudeDegrees>
            </Position>
            <AltitudeMeters>17.799999237060546875</AltitudeMeters>
            <DistanceMeters>14924.521341124</DistanceMeters>
          </Trackpoint>
          <Trackpoint>
            <Time>2022-07-04T09:27:12.000Z</Time>
            <Position>
              <LatitudeDegrees>44.811534583568572998046875</LatitudeDegrees>
              <LongitudeDegrees>-0.6182550452649593353271484375</LongitudeDegrees>
            </Position>
            <AltitudeMeters>17.6000003814697265625</AltitudeMeters>
            <DistanceMeters>14945.792896555</DistanceMeters>
          </Trackpoint>
          <Trackpoint>
            <Time>2022-07-04T09:27:21.000Z</Time>
            <Position>
              <LatitudeDegrees>44.81139016337692737579345703125</LatitudeDegrees>
              <LongitudeDegrees>-0.61867288313806056976318359375</LongitudeDegrees>
            </Position>
            <AltitudeMeters>17.6000003814697265625</AltitudeMeters>
            <DistanceMeters>14982.493143724</DistanceMeters>
          </Trackpoint>
          <Trackpoint>
            <Time>2022-07-04T09:27:23.000Z</Time>
            <Position>
              <LatitudeDegrees>44.81138999573886394500732421875</LatitudeDegrees>
              <LongitudeDegrees>-0.6187435425817966461181640625</LongitudeDegrees>
            </Position>
            <AltitudeMeters>17.6000003814697265625</AltitudeMeters>
            <DistanceMeters>14988.072272106</DistanceMeters>
          </Trackpoint>
          <Trackpoint>
            <Time>2022-07-04T09:27:26.000Z</Time>
            <Position>
              <LatitudeDegrees>44.8114415444433689117431640625</LatitudeDegrees>
              <LongitudeDegrees>-0.61876307241618633270263671875</LongitudeDegrees>
            </Position>
            <AltitudeMeters>17.6000003814697265625</AltitudeMeters>
            <DistanceMeters>14994.013531974</DistanceMeters>
          </Trackpoint>
          <Trackpoint>
            <Time>2022-07-04T09:27:30.000Z</Time>
            <Position>
              <LatitudeDegrees>44.81149761937558650970458984375</LatitudeDegrees>
              <LongitudeDegrees>-0.61865075491368770599365234375</LongitudeDegrees>
            </Position>
            <AltitudeMeters>17.799999237060546875</AltitudeMeters>
            <DistanceMeters>15004.85824108</DistanceMeters>
          </Trackpoint>
          <Trackpoint>
            <Time>2022-07-04T09:27:35.000Z</Time>
            <Position>
              <LatitudeDegrees>44.8115672729909420013427734375</LatitudeDegrees>
              <LongitudeDegrees>-0.6185407005250453948974609375</LongitudeDegrees>
            </Position>
            <AltitudeMeters>17.6000003814697265625</AltitudeMeters>
            <DistanceMeters>15016.503957809</DistanceMeters>
          </Trackpoint>
          <Trackpoint>
            <Time>2022-07-04T09:27:36.000Z</Time>
            <Position>
              <LatitudeDegrees>44.8115810193121433258056640625</LatitudeDegrees>
              <LongitudeDegrees>-0.6185396946966648101806640625</LongitudeDegrees>
            </Position>
            <AltitudeMeters>17.6000003814697265625</AltitudeMeters>
            <DistanceMeters>15018.036217537</DistanceMeters>
          </Trackpoint>
          <Trackpoint>
            <Time>2022-07-04T09:27:38.000Z</Time>
            <Position>
              <LatitudeDegrees>44.8116034828126430511474609375</LatitudeDegrees>
              <LongitudeDegrees>-0.618532486259937286376953125</LongitudeDegrees>
            </Position>
            <AltitudeMeters>17.6000003814697265625</AltitudeMeters>
            <DistanceMeters>15020.600178467</DistanceMeters>
          </Trackpoint>
          <Trackpoint>
            <Time>2022-07-04T09:27:39.000Z</Time>
            <Position>
              <LatitudeDegrees>44.81160742230713367462158203125</LatitudeDegrees>
              <LongitudeDegrees>-0.61852804385125637054443359375</LongitudeDegrees>
            </Position>
            <AltitudeMeters>17.6000003814697265625</AltitudeMeters>
            <DistanceMeters>15021.154274667</DistanceMeters>
          </Trackpoint>
          <Trackpoint>
            <Time>2022-07-04T09:27:41.000Z</Time>
            <Position>
              <LatitudeDegrees>44.81160742230713367462158203125</LatitudeDegrees>
              <LongitudeDegrees>-0.61852804385125637054443359375</LongitudeDegrees>
            </Position>
            <AltitudeMeters>17.799999237060546875</AltitudeMeters>
            <DistanceMeters>15021.154274667</DistanceMeters>
          </Trackpoint>
          <Trackpoint>
            <Time>2022-07-04T09:27:50.000Z</Time>
            <Position>
              <LatitudeDegrees>44.8115853779017925262451171875</LatitudeDegrees>
              <LongitudeDegrees>-0.61845545656979084014892578125</LongitudeDegrees>
            </Position>
            <AltitudeMeters>17.799999237060546875</AltitudeMeters>
            <DistanceMeters>15027.388490658</DistanceMeters>
          </Trackpoint>
          <Trackpoint>
            <Time>2022-07-04T09:27:52.000Z</Time>
            <Position>
              <LatitudeDegrees>44.8115508444607257843017578125</LatitudeDegrees>
              <LongitudeDegrees>-0.61842645518481731414794921875</LongitudeDegrees>
            </Position>
            <AltitudeMeters>17.6000003814697265625</AltitudeMeters>
            <DistanceMeters>15031.861817093</DistanceMeters>
          </Trackpoint>
          <Trackpoint>
            <Time>2022-07-04T09:27:54.000Z</Time>
            <Position>
              <LatitudeDegrees>44.811510108411312103271484375</LatitudeDegrees>
              <LongitudeDegrees>-0.61840851791203022003173828125</LongitudeDegrees>
            </Position>
            <AltitudeMeters>17.6000003814697265625</AltitudeMeters>
            <DistanceMeters>15036.611251897</DistanceMeters>
          </Trackpoint>
          <Trackpoint>
            <Time>2022-07-04T09:27:56.000Z</Time>
            <Position>
              <LatitudeDegrees>44.8114723898470401763916015625</LatitudeDegrees>
              <LongitudeDegrees>-0.6184317357838153839111328125</LongitudeDegrees>
            </Position>
            <AltitudeMeters>17.6000003814697265625</AltitudeMeters>
            <DistanceMeters>15041.192288642</DistanceMeters>
          </Trackpoint>
          <Trackpoint>
            <Time>2022-07-04T09:27:57.000Z</Time>
            <Position>
              <LatitudeDegrees>44.811458475887775421142578125</LatitudeDegrees>
              <LongitudeDegrees>-0.61845696531236171722412109375</LongitudeDegrees>
            </Position>
            <AltitudeMeters>17.3999996185302734375</AltitudeMeters>
            <DistanceMeters>15043.713632295</DistanceMeters>
          </Trackpoint>
          <Trackpoint>
            <Time>2022-07-04T09:28:02.000Z</Time>
            <Position>
              <LatitudeDegrees>44.811398796737194061279296875</LatitudeDegrees>
              <LongitudeDegrees>-0.618640445172786712646484375</LongitudeDegrees>
            </Position>
            <AltitudeMeters>17.3999996185302734375</AltitudeMeters>
            <DistanceMeters>15059.651513282</DistanceMeters>
          </Trackpoint>
          <Trackpoint>
            <Time>2022-07-04T09:28:10.000Z</Time>
            <Position>
              <LatitudeDegrees>44.81128941290080547332763671875</LatitudeDegrees>
              <LongitudeDegrees>-0.61890623532235622406005859375</LongitudeDegrees>
            </Position>
            <AltitudeMeters>17.799999237060546875</AltitudeMeters>
            <DistanceMeters>15083.914422084</DistanceMeters>
          </Trackpoint>
          <Trackpoint>
            <Time>2022-07-04T09:28:17.000Z</Time>
            <Position>
              <LatitudeDegrees>44.81123828329145908355712890625</LatitudeDegrees>
              <LongitudeDegrees>-0.6191284395754337310791015625</LongitudeDegrees>
            </Position>
            <AltitudeMeters>17.6000003814697265625</AltitudeMeters>
            <DistanceMeters>15102.359643422</DistanceMeters>
          </Trackpoint>
          <Trackpoint>
            <Time>2022-07-04T09:28:26.000Z</Time>
            <Position>
              <LatitudeDegrees>44.8111324198544025421142578125</LatitudeDegrees>
              <LongitudeDegrees>-0.6194828264415264129638671875</LongitudeDegrees>
            </Position>
            <AltitudeMeters>17.799999237060546875</AltitudeMeters>
            <DistanceMeters>15132.722128566</DistanceMeters>
          </Trackpoint>
          <Trackpoint>
            <Time>2022-07-04T09:28:34.000Z</Time>
            <Position>
              <LatitudeDegrees>44.811019264161586761474609375</LatitudeDegrees>
              <LongitudeDegrees>-0.6197802163660526275634765625</LongitudeDegrees>
            </Position>
            <AltitudeMeters>17.6000003814697265625</AltitudeMeters>
            <DistanceMeters>15159.368608837</DistanceMeters>
          </Trackpoint>
          <Trackpoint>
            <Time>2022-07-04T09:28:39.000Z</Time>
            <Position>
              <LatitudeDegrees>44.81098297052085399627685546875</LatitudeDegrees>
              <LongitudeDegrees>-0.6199971400201320648193359375</LongitudeDegrees>
            </Position>
            <AltitudeMeters>17.6000003814697265625</AltitudeMeters>
            <DistanceMeters>15176.966776404</DistanceMeters>
          </Trackpoint>
          <Trackpoint>
            <Time>2022-07-04T09:28:44.000Z</Time>
            <Position>
              <LatitudeDegrees>44.81095463968813419342041015625</LatitudeDegrees>
              <LongitudeDegrees>-0.62018061988055706024169921875</LongitudeDegrees>
            </Position>
            <AltitudeMeters>17.6000003814697265625</AltitudeMeters>
            <DistanceMeters>15191.793380228</DistanceMeters>
          </Trackpoint>
          <Trackpoint>
            <Time>2022-07-04T09:28:52.000Z</Time>
            <Position>
              <LatitudeDegrees>44.81086495332419872283935546875</LatitudeDegrees>
              <LongitudeDegrees>-0.62058060429990291595458984375</LongitudeDegrees>
            </Position>
            <AltitudeMeters>17.6000003814697265625</AltitudeMeters>
            <DistanceMeters>15224.916699626</DistanceMeters>
          </Trackpoint>
          <Trackpoint>
            <Time>2022-07-04T09:28:53.000Z</Time>
            <Position>
              <LatitudeDegrees>44.810858666896820068359375</LatitudeDegrees>
              <LongitudeDegrees>-0.62062435783445835113525390625</LongitudeDegrees>
            </Position>
            <AltitudeMeters>17.6000003814697265625</AltitudeMeters>
            <DistanceMeters>15228.441665609</DistanceMeters>
          </Trackpoint>
          <Trackpoint>
            <Time>2022-07-04T09:28:56.000Z</Time>
            <Position>
              <LatitudeDegrees>44.81082539074122905731201171875</LatitudeDegrees>
              <LongitudeDegrees>-0.620783865451812744140625</LongitudeDegrees>
            </Position>
            <AltitudeMeters>17.6000003814697265625</AltitudeMeters>
            <DistanceMeters>15241.569804815</DistanceMeters>
          </Trackpoint>
          <Trackpoint>
            <Time>2022-07-04T09:29:03.000Z</Time>
            <Position>
              <LatitudeDegrees>44.81076353229582309722900390625</LatitudeDegrees>
              <LongitudeDegrees>-0.62113079242408275604248046875</LongitudeDegrees>
            </Position>
            <AltitudeMeters>17.3999996185302734375</AltitudeMeters>
            <DistanceMeters>15269.815926215</DistanceMeters>
          </Trackpoint>
          <Trackpoint>
            <Time>2022-07-04T09:29:10.000Z</Time>
            <Position>
              <LatitudeDegrees>44.810692369937896728515625</LatitudeDegrees>
              <LongitudeDegrees>-0.621483586728572845458984375</LongitudeDegrees>
            </Position>
            <AltitudeMeters>17.6000003814697265625</AltitudeMeters>
            <DistanceMeters>15298.777412375</DistanceMeters>
          </Trackpoint>
          <Trackpoint>
            <Time>2022-07-04T09:29:16.000Z</Time>
            <Position>
              <LatitudeDegrees>44.81062866747379302978515625</LatitudeDegrees>
              <LongitudeDegrees>-0.62178558669984340667724609375</LongitudeDegrees>
            </Position>
            <AltitudeMeters>17.6000003814697265625</AltitudeMeters>
            <DistanceMeters>15323.655544127</DistanceMeters>
          </Trackpoint>
          <Trackpoint>
            <Time>2022-07-04T09:29:21.000Z</Time>
            <Position>
              <LatitudeDegrees>44.81058198027312755584716796875</LatitudeDegrees>
              <LongitudeDegrees>-0.62202832661569118499755859375</LongitudeDegrees>
            </Position>
            <AltitudeMeters>17.3999996185302734375</AltitudeMeters>
            <DistanceMeters>15343.51453601</DistanceMeters>
          </Trackpoint>
          <Trackpoint>
            <Time>2022-07-04T09:29:30.000Z</Time>
            <Position>
              <LatitudeDegrees>44.8104769550263881683349609375</LatitudeDegrees>
              <LongitudeDegrees>-0.622452534735202789306640625</LongitudeDegrees>
            </Position>
            <AltitudeMeters>17.3999996185302734375</AltitudeMeters>
            <DistanceMeters>15378.991967922</DistanceMeters>
          </Trackpoint>
          <Trackpoint>
            <Time>2022-07-04T09:29:39.000Z</Time>
            <Position>
              <LatitudeDegrees>44.81036757118999958038330078125</LatitudeDegrees>
              <LongitudeDegrees>-0.6228882260620594024658203125</LongitudeDegrees>
            </Position>
            <AltitudeMeters>17.200000762939453125</AltitudeMeters>
            <DistanceMeters>15415.485690591</DistanceMeters>
          </Trackpoint>
          <Trackpoint>
            <Time>2022-07-04T09:29:44.000Z</Time>
            <Position>
              <LatitudeDegrees>44.8102994263172149658203125</LatitudeDegrees>
              <LongitudeDegrees>-0.6231229193508625030517578125</LongitudeDegrees>
            </Position>
            <AltitudeMeters>17.3999996185302734375</AltitudeMeters>
            <DistanceMeters>15435.50951276</DistanceMeters>
          </Trackpoint>
          <Trackpoint>
            <Time>2022-07-04T09:29:46.000Z</Time>
            <Position>
              <LatitudeDegrees>44.8102737776935100555419921875</LatitudeDegrees>
              <LongitudeDegrees>-0.62321671284735202789306640625</LongitudeDegrees>
            </Position>
            <AltitudeMeters>17.3999996185302734375</AltitudeMeters>
            <DistanceMeters>15443.446376957</DistanceMeters>
          </Trackpoint>
          <Trackpoint>
            <Time>2022-07-04T09:29:50.000Z</Time>
            <Position>
              <LatitudeDegrees>44.810231365263462066650390625</LatitudeDegrees>
              <LongitudeDegrees>-0.623396672308444976806640625</LongitudeDegrees>
            </Position>
            <AltitudeMeters>17.3999996185302734375</AltitudeMeters>
            <DistanceMeters>15458.419945938</DistanceMeters>
          </Trackpoint>
          <Trackpoint>
            <Time>2022-07-04T09:29:53.000Z</Time>
            <Position>
              <LatitudeDegrees>44.81020663864910602569580078125</LatitudeDegrees>
              <LongitudeDegrees>-0.6235678307712078094482421875</LongitudeDegrees>
            </Position>
            <AltitudeMeters>17.200000762939453125</AltitudeMeters>
            <DistanceMeters>15472.212247789</DistanceMeters>
          </Trackpoint>
          <Trackpoint>
            <Time>2022-07-04T09:29:56.000Z</Time>
            <Position>
              <LatitudeDegrees>44.81016791425645351409912109375</LatitudeDegrees>
              <LongitudeDegrees>-0.62371426261961460113525390625</LongitudeDegrees>
            </Position>
            <AltitudeMeters>17.200000762939453125</AltitudeMeters>
            <DistanceMeters>15484.551824322</DistanceMeters>
          </Trackpoint>
          <Trackpoint>
            <Time>2022-07-04T09:30:01.000Z</Time>
            <Position>
              <LatitudeDegrees>44.8101279325783252716064453125</LatitudeDegrees>
              <LongitudeDegrees>-0.62392984516918659210205078125</LongitudeDegrees>
            </Position>
            <AltitudeMeters>17.200000762939453125</AltitudeMeters>
            <DistanceMeters>15502.146912864</DistanceMeters>
          </Trackpoint>
          <Trackpoint>
            <Time>2022-07-04T09:30:08.000Z</Time>
            <Position>
              <LatitudeDegrees>44.81004889123141765594482421875</LatitudeDegrees>
              <LongitudeDegrees>-0.62426763586699962615966796875</LongitudeDegrees>
            </Position>
            <AltitudeMeters>17.3999996185302734375</AltitudeMeters>
            <DistanceMeters>15530.233376116</DistanceMeters>
          </Trackpoint>
          <Trackpoint>
            <Time>2022-07-04T09:30:10.000Z</Time>
            <Position>
              <LatitudeDegrees>44.81002248823642730712890625</LatitudeDegrees>
              <LongitudeDegrees>-0.6243671290576457977294921875</LongitudeDegrees>
            </Position>
            <AltitudeMeters>17.3999996185302734375</AltitudeMeters>
            <DistanceMeters>15538.621603321</DistanceMeters>
          </Trackpoint>
          <Trackpoint>
            <Time>2022-07-04T09:30:14.000Z</Time>
            <Position>
              <LatitudeDegrees>44.80998401530086994171142578125</LatitudeDegrees>
              <LongitudeDegrees>-0.62456217594444751739501953125</LongitudeDegrees>
            </Position>
            <AltitudeMeters>17.6000003814697265625</AltitudeMeters>
            <DistanceMeters>15554.607571023</DistanceMeters>
          </Trackpoint>
          <Trackpoint>
            <Time>2022-07-04T09:30:19.000Z</Time>
            <Position>
              <LatitudeDegrees>44.80993707664310932159423828125</LatitudeDegrees>
              <LongitudeDegrees>-0.62479083426296710968017578125</LongitudeDegrees>
            </Position>
            <AltitudeMeters>17.6000003814697265625</AltitudeMeters>
            <DistanceMeters>15573.403653349</DistanceMeters>
          </Trackpoint>
          <Trackpoint>
            <Time>2022-07-04T09:30:28.000Z</Time>
            <Position>
              <LatitudeDegrees>44.80982392095029354095458984375</LatitudeDegrees>
              <LongitudeDegrees>-0.62523809261620044708251953125</LongitudeDegrees>
            </Position>
            <AltitudeMeters>17.799999237060546875</AltitudeMeters>
            <DistanceMeters>15610.899248981</DistanceMeters>
          </Trackpoint>
          <Trackpoint>
            <Time>2022-07-04T09:30:35.000Z</Time>
            <Position>
              <LatitudeDegrees>44.8097500763833522796630859375</LatitudeDegrees>
              <LongitudeDegrees>-0.625563561916351318359375</LongitudeDegrees>
            </Position>
            <AltitudeMeters>17.799999237060546875</AltitudeMeters>
            <DistanceMeters>15637.881816378</DistanceMeters>
          </Trackpoint>
          <Trackpoint>
            <Time>2022-07-04T09:30:44.000Z</Time>
            <Position>
              <LatitudeDegrees>44.80966500006616115570068359375</LatitudeDegrees>
              <LongitudeDegrees>-0.6259953975677490234375</LongitudeDegrees>
            </Position>
            <AltitudeMeters>17.799999237060546875</AltitudeMeters>
            <DistanceMeters>15673.27145402</DistanceMeters>
          </Trackpoint>
          <Trackpoint>
            <Time>2022-07-04T09:30:51.000Z</Time>
            <Position>
              <LatitudeDegrees>44.809604398906230926513671875</LatitudeDegrees>
              <LongitudeDegrees>-0.626298822462558746337890625</LongitudeDegrees>
            </Position>
            <AltitudeMeters>18</AltitudeMeters>
            <DistanceMeters>15698.162286566</DistanceMeters>
          </Trackpoint>
          <Trackpoint>
            <Time>2022-07-04T09:30:59.000Z</Time>
            <Position>
              <LatitudeDegrees>44.8095455579459667205810546875</LatitudeDegrees>
              <LongitudeDegrees>-0.6266319192945957183837890625</LongitudeDegrees>
            </Position>
            <AltitudeMeters>18.3999996185302734375</AltitudeMeters>
            <DistanceMeters>15725.267730292</DistanceMeters>
          </Trackpoint>
          <Trackpoint>
            <Time>2022-07-04T09:31:03.000Z</Time>
            <Position>
              <LatitudeDegrees>44.8095029778778553009033203125</LatitudeDegrees>
              <LongitudeDegrees>-0.62680215574800968170166015625</LongitudeDegrees>
            </Position>
            <AltitudeMeters>18.799999237060546875</AltitudeMeters>
            <DistanceMeters>15739.521103922</DistanceMeters>
          </Trackpoint>
          <Trackpoint>
            <Time>2022-07-04T09:31:07.000Z</Time>
            <Position>
              <LatitudeDegrees>44.80945813469588756561279296875</LatitudeDegrees>
              <LongitudeDegrees>-0.6269722245633602142333984375</LongitudeDegrees>
            </Position>
            <AltitudeMeters>19</AltitudeMeters>
            <DistanceMeters>15753.847779656</DistanceMeters>
          </Trackpoint>
          <Trackpoint>
            <Time>2022-07-04T09:31:15.000Z</Time>
            <Position>
              <LatitudeDegrees>44.809372723102569580078125</LatitudeDegrees>
              <LongitudeDegrees>-0.62727774493396282196044921875</LongitudeDegrees>
            </Position>
            <AltitudeMeters>19.6000003814697265625</AltitudeMeters>
            <DistanceMeters>15779.778061028</DistanceMeters>
          </Trackpoint>
          <Trackpoint>
            <Time>2022-07-04T09:31:17.000Z</Time>
            <Position>
              <LatitudeDegrees>44.809356294572353363037109375</LatitudeDegrees>
              <LongitudeDegrees>-0.6273447163403034210205078125</LongitudeDegrees>
            </Position>
            <AltitudeMeters>19.799999237060546875</AltitudeMeters>
            <DistanceMeters>15785.374158338</DistanceMeters>
          </Trackpoint>
          <Trackpoint>
            <Time>2022-07-04T09:31:23.000Z</Time>
            <Position>
              <LatitudeDegrees>44.80930876918137073516845703125</LatitudeDegrees>
              <LongitudeDegrees>-0.62755283899605274200439453125</LongitudeDegrees>
            </Position>
            <AltitudeMeters>20.3999996185302734375</AltitudeMeters>
            <DistanceMeters>15802.638710555</DistanceMeters>
          </Trackpoint>
          <Trackpoint>
            <Time>2022-07-04T09:31:29.000Z</Time>
            <Position>
              <LatitudeDegrees>44.80925948359072208404541015625</LatitudeDegrees>
              <LongitudeDegrees>-0.62776339240372180938720703125</LongitudeDegrees>
            </Position>
            <AltitudeMeters>20.799999237060546875</AltitudeMeters>
            <DistanceMeters>15820.14659292</DistanceMeters>
          </Trackpoint>
          <Trackpoint>
            <Time>2022-07-04T09:31:31.000Z</Time>
            <Position>
              <LatitudeDegrees>44.80924867093563079833984375</LatitudeDegrees>
              <LongitudeDegrees>-0.62783698551356792449951171875</LongitudeDegrees>
            </Position>
            <AltitudeMeters>21</AltitudeMeters>
            <DistanceMeters>15826.081770104</DistanceMeters>
          </Trackpoint>
          <Trackpoint>
            <Time>2022-07-04T09:31:39.000Z</Time>
            <Position>
              <LatitudeDegrees>44.80918295681476593017578125</LatitudeDegrees>
              <LongitudeDegrees>-0.62810336239635944366455078125</LongitudeDegrees>
            </Position>
            <AltitudeMeters>21.799999237060546875</AltitudeMeters>
            <DistanceMeters>15848.351296329</DistanceMeters>
          </Trackpoint>
          <Trackpoint>
            <Time>2022-07-04T09:31:40.000Z</Time>
            <Position>
              <LatitudeDegrees>44.8091791011393070220947265625</LatitudeDegrees>
              <LongitudeDegrees>-0.62813521362841129302978515625</LongitudeDegrees>
            </Position>
            <AltitudeMeters>22</AltitudeMeters>
            <DistanceMeters>15850.904669626</DistanceMeters>
          </Trackpoint>
          <Trackpoint>
            <Time>2022-07-04T09:31:44.000Z</Time>
            <Position>
              <LatitudeDegrees>44.80915605090558528900146484375</LatitudeDegrees>
              <LongitudeDegrees>-0.62826253473758697509765625</LongitudeDegrees>
            </Position>
            <AltitudeMeters>22.3999996185302734375</AltitudeMeters>
            <DistanceMeters>15861.281308365</DistanceMeters>
          </Trackpoint>
          <Trackpoint>
            <Time>2022-07-04T09:31:50.000Z</Time>
            <Position>
              <LatitudeDegrees>44.8091110400855541229248046875</LatitudeDegrees>
              <LongitudeDegrees>-0.6284658797085285186767578125</LongitudeDegrees>
            </Position>
            <AltitudeMeters>23.200000762939453125</AltitudeMeters>
            <DistanceMeters>15878.1018421</DistanceMeters>
          </Trackpoint>
          <Trackpoint>
            <Time>2022-07-04T09:31:51.000Z</Time>
            <Position>
              <LatitudeDegrees>44.80910475365817546844482421875</LatitudeDegrees>
              <LongitudeDegrees>-0.62849680893123149871826171875</LongitudeDegrees>
            </Position>
            <AltitudeMeters>23.200000762939453125</AltitudeMeters>
            <DistanceMeters>15880.64102988</DistanceMeters>
          </Trackpoint>
          <Trackpoint>
            <Time>2022-07-04T09:31:55.000Z</Time>
            <Position>
              <LatitudeDegrees>44.8090946115553379058837890625</LatitudeDegrees>
              <LongitudeDegrees>-0.6286408938467502593994140625</LongitudeDegrees>
            </Position>
            <AltitudeMeters>23.6000003814697265625</AltitudeMeters>
            <DistanceMeters>15892.074287797</DistanceMeters>
          </Trackpoint>
          <Trackpoint>
            <Time>2022-07-04T09:31:57.000Z</Time>
            <Position>
              <LatitudeDegrees>44.8091140575706958770751953125</LatitudeDegrees>
              <LongitudeDegrees>-0.6287102960050106048583984375</LongitudeDegrees>
            </Position>
            <AltitudeMeters>23.799999237060546875</AltitudeMeters>
            <DistanceMeters>15897.965944088</DistanceMeters>
          </Trackpoint>
          <Trackpoint>
            <Time>2022-07-04T09:32:03.000Z</Time>
            <Position>
              <LatitudeDegrees>44.80914942920207977294921875</LatitudeDegrees>
              <LongitudeDegrees>-0.6289195083081722259521484375</LongitudeDegrees>
            </Position>
            <AltitudeMeters>24.200000762939453125</AltitudeMeters>
            <DistanceMeters>15914.948895588</DistanceMeters>
          </Trackpoint>
          <Trackpoint>
            <Time>2022-07-04T09:32:05.000Z</Time>
            <Position>
              <LatitudeDegrees>44.80914431624114513397216796875</LatitudeDegrees>
              <LongitudeDegrees>-0.6289915926754474639892578125</LongitudeDegrees>
            </Position>
            <AltitudeMeters>24.3999996185302734375</AltitudeMeters>
            <DistanceMeters>15920.669472222</DistanceMeters>
          </Trackpoint>
          <Trackpoint>
            <Time>2022-07-04T09:32:11.000Z</Time>
            <Position>
              <LatitudeDegrees>44.80913006700575351715087890625</LatitudeDegrees>
              <LongitudeDegrees>-0.62919787131249904632568359375</LongitudeDegrees>
            </Position>
            <AltitudeMeters>25.200000762939453125</AltitudeMeters>
            <DistanceMeters>15937.03449612</DistanceMeters>
          </Trackpoint>
          <Trackpoint>
            <Time>2022-07-04T09:32:12.000Z</Time>
            <Position>
              <LatitudeDegrees>44.80912805534899234771728515625</LatitudeDegrees>
              <LongitudeDegrees>-0.6292370148003101348876953125</LongitudeDegrees>
            </Position>
            <AltitudeMeters>25.3999996185302734375</AltitudeMeters>
            <DistanceMeters>15940.131259137</DistanceMeters>
          </Trackpoint>
          <Trackpoint>
            <Time>2022-07-04T09:32:18.000Z</Time>
            <Position>
              <LatitudeDegrees>44.809063263237476348876953125</LatitudeDegrees>
              <LongitudeDegrees>-0.62946944497525691986083984375</LongitudeDegrees>
            </Position>
            <AltitudeMeters>25.6000003814697265625</AltitudeMeters>
            <DistanceMeters>15959.851076884</DistanceMeters>
          </Trackpoint>
          <Trackpoint>
            <Time>2022-07-04T09:32:25.000Z</Time>
            <Position>
              <LatitudeDegrees>44.80904155410826206207275390625</LatitudeDegrees>
              <LongitudeDegrees>-0.6297851912677288055419921875</LongitudeDegrees>
            </Position>
            <AltitudeMeters>25.6000003814697265625</AltitudeMeters>
            <DistanceMeters>15984.90066674</DistanceMeters>
          </Trackpoint>
          <Trackpoint>
            <Time>2022-07-04T09:32:32.000Z</Time>
            <Position>
              <LatitudeDegrees>44.80896762572228908538818359375</LatitudeDegrees>
              <LongitudeDegrees>-0.6301112473011016845703125</LongitudeDegrees>
            </Position>
            <AltitudeMeters>25.799999237060546875</AltitudeMeters>
            <DistanceMeters>16011.930380481</DistanceMeters>
          </Trackpoint>
          <Trackpoint>
            <Time>2022-07-04T09:32:41.000Z</Time>
            <Position>
              <LatitudeDegrees>44.808809794485569000244140625</LatitudeDegrees>
              <LongitudeDegrees>-0.63051156699657440185546875</LongitudeDegrees>
            </Position>
            <AltitudeMeters>25.200000762939453125</AltitudeMeters>
            <DistanceMeters>16048.094631636</DistanceMeters>
          </Trackpoint>
          <Trackpoint>
            <Time>2022-07-04T09:32:51.000Z</Time>
            <Position>
              <LatitudeDegrees>44.80859396047890186309814453125</LatitudeDegrees>
              <LongitudeDegrees>-0.63095270656049251556396484375</LongitudeDegrees>
            </Position>
            <AltitudeMeters>25.200000762939453125</AltitudeMeters>
            <DistanceMeters>16090.409377739</DistanceMeters>
          </Trackpoint>
          <Trackpoint>
            <Time>2022-07-04T09:32:56.000Z</Time>
            <Position>
              <LatitudeDegrees>44.80855389498174190521240234375</LatitudeDegrees>
              <LongitudeDegrees>-0.63124674372375011444091796875</LongitudeDegrees>
            </Position>
            <AltitudeMeters>25</AltitudeMeters>
            <DistanceMeters>16114.052322186</DistanceMeters>
          </Trackpoint>
          <Trackpoint>
            <Time>2022-07-04T09:32:58.000Z</Time>
            <Position>
              <LatitudeDegrees>44.80856831185519695281982421875</LatitudeDegrees>
              <LongitudeDegrees>-0.63138621859252452850341796875</LongitudeDegrees>
            </Position>
            <AltitudeMeters>24.799999237060546875</AltitudeMeters>
            <DistanceMeters>16125.182218352</DistanceMeters>
          </Trackpoint>
          <Trackpoint>
            <Time>2022-07-04T09:33:01.000Z</Time>
            <Position>
              <LatitudeDegrees>44.80861927382647991180419921875</LatitudeDegrees>
              <LongitudeDegrees>-0.63155218027532100677490234375</LongitudeDegrees>
            </Position>
            <AltitudeMeters>24.6000003814697265625</AltitudeMeters>
            <DistanceMeters>16139.462175854</DistanceMeters>
          </Trackpoint>
          <Trackpoint>
            <Time>2022-07-04T09:33:06.000Z</Time>
            <Position>
              <LatitudeDegrees>44.80877718888223171234130859375</LatitudeDegrees>
              <LongitudeDegrees>-0.6318085826933383941650390625</LongitudeDegrees>
            </Position>
            <AltitudeMeters>24.3999996185302734375</AltitudeMeters>
            <DistanceMeters>16166.273521687</DistanceMeters>
          </Trackpoint>
          <Trackpoint>
            <Time>2022-07-04T09:33:08.000Z</Time>
            <Position>
              <LatitudeDegrees>44.80886050499975681304931640625</LatitudeDegrees>
              <LongitudeDegrees>-0.63191360794007778167724609375</LongitudeDegrees>
            </Position>
            <AltitudeMeters>24.200000762939453125</AltitudeMeters>
            <DistanceMeters>16178.714402293</DistanceMeters>
          </Trackpoint>
          <Trackpoint>
            <Time>2022-07-04T09:33:09.000Z</Time>
            <Position>
              <LatitudeDegrees>44.80889461934566497802734375</LatitudeDegrees>
              <LongitudeDegrees>-0.63196591101586818695068359375</LongitudeDegrees>
            </Position>
            <AltitudeMeters>24.200000762939453125</AltitudeMeters>
            <DistanceMeters>16184.325003551</DistanceMeters>
          </Trackpoint>
          <Trackpoint>
            <Time>2022-07-04T09:33:13.000Z</Time>
            <Position>
              <LatitudeDegrees>44.80901322327554225921630859375</LatitudeDegrees>
              <LongitudeDegrees>-0.6321736983954906463623046875</LongitudeDegrees>
            </Position>
            <AltitudeMeters>23.6000003814697265625</AltitudeMeters>
            <DistanceMeters>16205.384089816</DistanceMeters>
          </Trackpoint>
          <Trackpoint>
            <Time>2022-07-04T09:33:15.000Z</Time>
            <Position>
              <LatitudeDegrees>44.80906250886619091033935546875</LatitudeDegrees>
              <LongitudeDegrees>-0.63228962011635303497314453125</LongitudeDegrees>
            </Position>
            <AltitudeMeters>23.3999996185302734375</AltitudeMeters>
            <DistanceMeters>16216.055467142</DistanceMeters>
          </Trackpoint>
          <Trackpoint>
            <Time>2022-07-04T09:33:16.000Z</Time>
            <Position>
              <LatitudeDegrees>44.80908363126218318939208984375</LatitudeDegrees>
              <LongitudeDegrees>-0.6323500536382198333740234375</LongitudeDegrees>
            </Position>
            <AltitudeMeters>23.200000762939453125</AltitudeMeters>
            <DistanceMeters>16221.375265971</DistanceMeters>
          </Trackpoint>
          <Trackpoint>
            <Time>2022-07-04T09:33:18.000Z</Time>
            <Position>
              <LatitudeDegrees>44.80911129154264926910400390625</LatitudeDegrees>
              <LongitudeDegrees>-0.63246865756809711456298828125</LongitudeDegrees>
            </Position>
            <AltitudeMeters>23</AltitudeMeters>
            <DistanceMeters>16231.233342999</DistanceMeters>
          </Trackpoint>
          <Trackpoint>
            <Time>2022-07-04T09:33:20.000Z</Time>
            <Position>
              <LatitudeDegrees>44.80913107283413410186767578125</LatitudeDegrees>
              <LongitudeDegrees>-0.63257644884288311004638671875</LongitudeDegrees>
            </Position>
            <AltitudeMeters>23</AltitudeMeters>
            <DistanceMeters>16240.025240084</DistanceMeters>
          </Trackpoint>
          <Trackpoint>
            <Time>2022-07-04T09:33:25.000Z</Time>
            <Position>
              <LatitudeDegrees>44.8091516084969043731689453125</LatitudeDegrees>
              <LongitudeDegrees>-0.63273436389863491058349609375</LongitudeDegrees>
            </Position>
            <AltitudeMeters>22.3999996185302734375</AltitudeMeters>
            <DistanceMeters>16252.702672811</DistanceMeters>
          </Trackpoint>
          <Trackpoint>
            <Time>2022-07-04T09:33:27.000Z</Time>
            <Position>
              <LatitudeDegrees>44.80915018357336521148681640625</LatitudeDegrees>
              <LongitudeDegrees>-0.632774345576763153076171875</LongitudeDegrees>
            </Position>
            <AltitudeMeters>22.3999996185302734375</AltitudeMeters>
            <DistanceMeters>16255.864364546</DistanceMeters>
          </Trackpoint>
          <Trackpoint>
            <Time>2022-07-04T09:33:29.000Z</Time>
            <Position>
              <LatitudeDegrees>44.80916761793196201324462890625</LatitudeDegrees>
              <LongitudeDegrees>-0.6328093819320201873779296875</LongitudeDegrees>
            </Position>
            <AltitudeMeters>22.3999996185302734375</AltitudeMeters>
            <DistanceMeters>16259.244164348</DistanceMeters>
          </Trackpoint>
          <Trackpoint>
            <Time>2022-07-04T09:33:35.000Z</Time>
            <Position>
              <LatitudeDegrees>44.80919846333563327789306640625</LatitudeDegrees>
              <LongitudeDegrees>-0.63302571885287761688232421875</LongitudeDegrees>
            </Position>
            <AltitudeMeters>22.6000003814697265625</AltitudeMeters>
            <DistanceMeters>16276.668550426</DistanceMeters>
          </Trackpoint>
          <Trackpoint>
            <Time>2022-07-04T09:33:39.000Z</Time>
            <Position>
              <LatitudeDegrees>44.809185974299907684326171875</LatitudeDegrees>
              <LongitudeDegrees>-0.633241720497608184814453125</LongitudeDegrees>
            </Position>
            <AltitudeMeters>22.799999237060546875</AltitudeMeters>
            <DistanceMeters>16293.781803747</DistanceMeters>
          </Trackpoint>
          <Trackpoint>
            <Time>2022-07-04T09:33:42.000Z</Time>
            <Position>
              <LatitudeDegrees>44.8091770894825458526611328125</LatitudeDegrees>
              <LongitudeDegrees>-0.63338966108858585357666015625</LongitudeDegrees>
            </Position>
            <AltitudeMeters>22.799999237060546875</AltitudeMeters>
            <DistanceMeters>16305.505189072</DistanceMeters>
          </Trackpoint>
          <Trackpoint>
            <Time>2022-07-04T09:33:51.000Z</Time>
            <Position>
              <LatitudeDegrees>44.80915219523012638092041015625</LatitudeDegrees>
              <LongitudeDegrees>-0.63380909152328968048095703125</LongitudeDegrees>
            </Position>
            <AltitudeMeters>22.799999237060546875</AltitudeMeters>
            <DistanceMeters>16338.740909782</DistanceMeters>
          </Trackpoint>
          <Trackpoint>
            <Time>2022-07-04T09:34:00.000Z</Time>
            <Position>
              <LatitudeDegrees>44.8090972937643527984619140625</LatitudeDegrees>
              <LongitudeDegrees>-0.6342391669750213623046875</LongitudeDegrees>
            </Position>
            <AltitudeMeters>23</AltitudeMeters>
            <DistanceMeters>16373.246992718</DistanceMeters>
          </Trackpoint>
          <Trackpoint>
            <Time>2022-07-04T09:34:06.000Z</Time>
            <Position>
              <LatitudeDegrees>44.80903300456702709197998046875</LatitudeDegrees>
              <LongitudeDegrees>-0.6345073878765106201171875</LongitudeDegrees>
            </Position>
            <AltitudeMeters>23.3999996185302734375</AltitudeMeters>
            <DistanceMeters>16395.603125456</DistanceMeters>
          </Trackpoint>
          <Trackpoint>
            <Time>2022-07-04T09:34:07.000Z</Time>
            <Position>
              <LatitudeDegrees>44.80902562849223613739013671875</LatitudeDegrees>
              <LongitudeDegrees>-0.6345451064407825469970703125</LongitudeDegrees>
            </Position>
            <AltitudeMeters>23.3999996185302734375</AltitudeMeters>
            <DistanceMeters>16398.694051026</DistanceMeters>
          </Trackpoint>
          <Trackpoint>
            <Time>2022-07-04T09:34:13.000Z</Time>
            <Position>
              <LatitudeDegrees>44.80897852219641208648681640625</LatitudeDegrees>
              <LongitudeDegrees>-0.63479631207883358001708984375</LongitudeDegrees>
            </Position>
            <AltitudeMeters>23.200000762939453125</AltitudeMeters>
            <DistanceMeters>16419.211460796</DistanceMeters>
          </Trackpoint>
          <Trackpoint>
            <Time>2022-07-04T09:34:15.000Z</Time>
            <Position>
              <LatitudeDegrees>44.80895505286753177642822265625</LatitudeDegrees>
              <LongitudeDegrees>-0.63488432206213474273681640625</LongitudeDegrees>
            </Position>
            <AltitudeMeters>23.3999996185302734375</AltitudeMeters>
            <DistanceMeters>16426.635717433</DistanceMeters>
          </Trackpoint>
          <Trackpoint>
            <Time>2022-07-04T09:34:17.000Z</Time>
            <Position>
              <LatitudeDegrees>44.808937199413776397705078125</LatitudeDegrees>
              <LongitudeDegrees>-0.634970404207706451416015625</LongitudeDegrees>
            </Position>
            <AltitudeMeters>23.6000003814697265625</AltitudeMeters>
            <DistanceMeters>16433.718236381</DistanceMeters>
          </Trackpoint>
          <Trackpoint>
            <Time>2022-07-04T09:34:21.000Z</Time>
            <Position>
              <LatitudeDegrees>44.8088951222598552703857421875</LatitudeDegrees>
              <LongitudeDegrees>-0.63515472225844860076904296875</LongitudeDegrees>
            </Position>
            <AltitudeMeters>23.6000003814697265625</AltitudeMeters>
            <DistanceMeters>16449.00779553</DistanceMeters>
          </Trackpoint>
          <Trackpoint>
            <Time>2022-07-04T09:34:23.000Z</Time>
            <Position>
              <LatitudeDegrees>44.8088803701102733612060546875</LatitudeDegrees>
              <LongitudeDegrees>-0.63524105586111545562744140625</LongitudeDegrees>
            </Position>
            <AltitudeMeters>23.6000003814697265625</AltitudeMeters>
            <DistanceMeters>16456.020483767</DistanceMeters>
          </Trackpoint>
          <Trackpoint>
            <Time>2022-07-04T09:34:26.000Z</Time>
            <Position>
              <LatitudeDegrees>44.80884508229792118072509765625</LatitudeDegrees>
              <LongitudeDegrees>-0.63537080772221088409423828125</LongitudeDegrees>
            </Position>
            <AltitudeMeters>23.799999237060546875</AltitudeMeters>
            <DistanceMeters>16466.993086432</DistanceMeters>
          </Trackpoint>
          <Trackpoint>
            <Time>2022-07-04T09:34:30.000Z</Time>
            <Position>
              <LatitudeDegrees>44.80880049057304859161376953125</LatitudeDegrees>
              <LongitudeDegrees>-0.63555386848747730255126953125</LongitudeDegrees>
            </Position>
            <AltitudeMeters>24.200000762939453125</AltitudeMeters>
            <DistanceMeters>16482.276738399</DistanceMeters>
          </Trackpoint>
          <Trackpoint>
            <Time>2022-07-04T09:34:35.000Z</Time>
            <Position>
              <LatitudeDegrees>44.80875170789659023284912109375</LatitudeDegrees>
              <LongitudeDegrees>-0.63580314628779888153076171875</LongitudeDegrees>
            </Position>
            <AltitudeMeters>24.3999996185302734375</AltitudeMeters>
            <DistanceMeters>16502.696208268</DistanceMeters>
          </Trackpoint>
          <Trackpoint>
            <Time>2022-07-04T09:34:47.000Z</Time>
            <Position>
              <LatitudeDegrees>44.8086399771273136138916015625</LatitudeDegrees>
              <LongitudeDegrees>-0.63634696416556835174560546875</LongitudeDegrees>
            </Position>
            <AltitudeMeters>24.799999237060546875</AltitudeMeters>
            <DistanceMeters>16547.4030205</DistanceMeters>
          </Trackpoint>
          <Trackpoint>
            <Time>2022-07-04T09:34:53.000Z</Time>
            <Position>
              <LatitudeDegrees>44.80861441232264041900634765625</LatitudeDegrees>
              <LongitudeDegrees>-0.6365802325308322906494140625</LongitudeDegrees>
            </Position>
            <AltitudeMeters>24.799999237060546875</AltitudeMeters>
            <DistanceMeters>16566.041584577</DistanceMeters>
          </Trackpoint>
          <Trackpoint>
            <Time>2022-07-04T09:34:58.000Z</Time>
            <Position>
              <LatitudeDegrees>44.80861608870327472686767578125</LatitudeDegrees>
              <LongitudeDegrees>-0.6367079727351665496826171875</LongitudeDegrees>
            </Position>
            <AltitudeMeters>24.799999237060546875</AltitudeMeters>
            <DistanceMeters>16576.130987521</DistanceMeters>
          </Trackpoint>
          <Trackpoint>
            <Time>2022-07-04T09:35:01.000Z</Time>
            <Position>
              <LatitudeDegrees>44.80861701071262359619140625</LatitudeDegrees>
              <LongitudeDegrees>-0.6367156840860843658447265625</LongitudeDegrees>
            </Position>
            <AltitudeMeters>24.799999237060546875</AltitudeMeters>
            <DistanceMeters>16576.754119358</DistanceMeters>
          </Trackpoint>
          <Trackpoint>
            <Time>2022-07-04T09:40:35.000Z</Time>
            <Position>
              <LatitudeDegrees>44.8085479438304901123046875</LatitudeDegrees>
              <LongitudeDegrees>-0.636908300220966339111328125</LongitudeDegrees>
            </Position>
            <AltitudeMeters>21.3999996185302734375</AltitudeMeters>
            <DistanceMeters>16593.795988933</DistanceMeters>
          </Trackpoint>
          <Trackpoint>
            <Time>2022-07-04T09:40:36.000Z</Time>
            <Position>
              <LatitudeDegrees>44.8085326887667179107666015625</LatitudeDegrees>
              <LongitudeDegrees>-0.63693637959659099578857421875</LongitudeDegrees>
            </Position>
            <AltitudeMeters>21.3999996185302734375</AltitudeMeters>
            <DistanceMeters>16596.589192478</DistanceMeters>
          </Trackpoint>
          <Trackpoint>
            <Time>2022-07-04T09:40:41.000Z</Time>
            <Position>
              <LatitudeDegrees>44.808465801179409027099609375</LatitudeDegrees>
              <LongitudeDegrees>-0.6371082924306392669677734375</LongitudeDegrees>
            </Position>
            <AltitudeMeters>21.799999237060546875</AltitudeMeters>
            <DistanceMeters>16612.07184113</DistanceMeters>
          </Trackpoint>
          <Trackpoint>
            <Time>2022-07-04T09:40:47.000Z</Time>
            <Position>
              <LatitudeDegrees>44.80840151198208332061767578125</LatitudeDegrees>
              <LongitudeDegrees>-0.63734717667102813720703125</LongitudeDegrees>
            </Position>
            <AltitudeMeters>21.799999237060546875</AltitudeMeters>
            <DistanceMeters>16632.246842883</DistanceMeters>
          </Trackpoint>
          <Trackpoint>
            <Time>2022-07-04T09:40:52.000Z</Time>
            <Position>
              <LatitudeDegrees>44.8083352111279964447021484375</LatitudeDegrees>
              <LongitudeDegrees>-0.63756166957318782806396484375</LongitudeDegrees>
            </Position>
            <AltitudeMeters>21.799999237060546875</AltitudeMeters>
            <DistanceMeters>16650.72214774</DistanceMeters>
          </Trackpoint>
          <Trackpoint>
            <Time>2022-07-04T09:40:56.000Z</Time>
            <Position>
              <LatitudeDegrees>44.80827460996806621551513671875</LatitudeDegrees>
              <LongitudeDegrees>-0.637730397284030914306640625</LongitudeDegrees>
            </Position>
            <AltitudeMeters>21.799999237060546875</AltitudeMeters>
            <DistanceMeters>16665.655861208</DistanceMeters>
          </Trackpoint>
          <Trackpoint>
            <Time>2022-07-04T09:41:05.000Z</Time>
            <Position>
              <LatitudeDegrees>44.80813798494637012481689453125</LatitudeDegrees>
              <LongitudeDegrees>-0.63815108500421047210693359375</LongitudeDegrees>
            </Position>
            <AltitudeMeters>22</AltitudeMeters>
            <DistanceMeters>16702.190759726</DistanceMeters>
          </Trackpoint>
          <Trackpoint>
            <Time>2022-07-04T09:41:06.000Z</Time>
            <Position>
              <LatitudeDegrees>44.80812155641615390777587890625</LatitudeDegrees>
              <LongitudeDegrees>-0.63819718547165393829345703125</LongitudeDegrees>
            </Position>
            <AltitudeMeters>22</AltitudeMeters>
            <DistanceMeters>16706.264735733</DistanceMeters>
          </Trackpoint>
          <Trackpoint>
            <Time>2022-07-04T09:41:16.000Z</Time>
            <Position>
              <LatitudeDegrees>44.80796431191265583038330078125</LatitudeDegrees>
              <LongitudeDegrees>-0.63863455317914485931396484375</LongitudeDegrees>
            </Position>
            <AltitudeMeters>22.3999996185302734375</AltitudeMeters>
            <DistanceMeters>16744.983195294</DistanceMeters>
          </Trackpoint>
          <Trackpoint>
            <Time>2022-07-04T09:41:17.000Z</Time>
            <Position>
              <LatitudeDegrees>44.80795240961015224456787109375</LatitudeDegrees>
              <LongitudeDegrees>-0.6386696733534336090087890625</LongitudeDegrees>
            </Position>
            <AltitudeMeters>22.3999996185302734375</AltitudeMeters>
            <DistanceMeters>16748.056541997</DistanceMeters>
          </Trackpoint>
          <Trackpoint>
            <Time>2022-07-04T09:41:18.000Z</Time>
            <Position>
              <LatitudeDegrees>44.80793279595673084259033203125</LatitudeDegrees>
              <LongitudeDegrees>-0.6387263350188732147216796875</LongitudeDegrees>
            </Position>
            <AltitudeMeters>22.3999996185302734375</AltitudeMeters>
            <DistanceMeters>16753.035252658</DistanceMeters>
          </Trackpoint>
          <Trackpoint>
            <Time>2022-07-04T09:41:23.000Z</Time>
            <Position>
              <LatitudeDegrees>44.80784662999212741851806640625</LatitudeDegrees>
              <LongitudeDegrees>-0.6389492936432361602783203125</LongitudeDegrees>
            </Position>
            <AltitudeMeters>22.6000003814697265625</AltitudeMeters>
            <DistanceMeters>16773.083862651</DistanceMeters>
          </Trackpoint>
          <Trackpoint>
            <Time>2022-07-04T09:41:26.000Z</Time>
            <Position>
              <LatitudeDegrees>44.80780187062919139862060546875</LatitudeDegrees>
              <LongitudeDegrees>-0.63907728530466556549072265625</LongitudeDegrees>
            </Position>
            <AltitudeMeters>22.6000003814697265625</AltitudeMeters>
            <DistanceMeters>16784.351643036</DistanceMeters>
          </Trackpoint>
          <Trackpoint>
            <Time>2022-07-04T09:41:36.000Z</Time>
            <Position>
              <LatitudeDegrees>44.80763741768896579742431640625</LatitudeDegrees>
              <LongitudeDegrees>-0.63950576819479465484619140625</LongitudeDegrees>
            </Position>
            <AltitudeMeters>22.799999237060546875</AltitudeMeters>
            <DistanceMeters>16822.82103448</DistanceMeters>
          </Trackpoint>
          <Trackpoint>
            <Time>2022-07-04T09:41:44.000Z</Time>
            <Position>
              <LatitudeDegrees>44.8074681870639324188232421875</LatitudeDegrees>
              <LongitudeDegrees>-0.6397767551243305206298828125</LongitudeDegrees>
            </Position>
            <AltitudeMeters>23.3999996185302734375</AltitudeMeters>
            <DistanceMeters>16851.328732033</DistanceMeters>
          </Trackpoint>
          <Trackpoint>
            <Time>2022-07-04T09:41:46.000Z</Time>
            <Position>
              <LatitudeDegrees>44.807413704693317413330078125</LatitudeDegrees>
              <LongitudeDegrees>-0.6398347578942775726318359375</LongitudeDegrees>
            </Position>
            <AltitudeMeters>23.3999996185302734375</AltitudeMeters>
            <DistanceMeters>16858.928493144</DistanceMeters>
          </Trackpoint>
          <Trackpoint>
            <Time>2022-07-04T09:41:52.000Z</Time>
            <Position>
              <LatitudeDegrees>44.8072309792041778564453125</LatitudeDegrees>
              <LongitudeDegrees>-0.639996193349361419677734375</LongitudeDegrees>
            </Position>
            <AltitudeMeters>23.200000762939453125</AltitudeMeters>
            <DistanceMeters>16882.931345834</DistanceMeters>
          </Trackpoint>
          <Trackpoint>
            <Time>2022-07-04T09:41:59.000Z</Time>
            <Position>
              <LatitudeDegrees>44.80702972970902919769287109375</LatitudeDegrees>
              <LongitudeDegrees>-0.6402364186942577362060546875</LongitudeDegrees>
            </Position>
            <AltitudeMeters>23.200000762939453125</AltitudeMeters>
            <DistanceMeters>16912.284296517</DistanceMeters>
          </Trackpoint>
          <Trackpoint>
            <Time>2022-07-04T09:42:05.000Z</Time>
            <Position>
              <LatitudeDegrees>44.80691120959818363189697265625</LatitudeDegrees>
              <LongitudeDegrees>-0.640505142509937286376953125</LongitudeDegrees>
            </Position>
            <AltitudeMeters>23</AltitudeMeters>
            <DistanceMeters>16937.270721335</DistanceMeters>
          </Trackpoint>
          <Trackpoint>
            <Time>2022-07-04T09:42:08.000Z</Time>
            <Position>
              <LatitudeDegrees>44.80690668337047100067138671875</LatitudeDegrees>
              <LongitudeDegrees>-0.640562474727630615234375</LongitudeDegrees>
            </Position>
            <AltitudeMeters>22.799999237060546875</AltitudeMeters>
            <DistanceMeters>16941.827051629</DistanceMeters>
          </Trackpoint>
          <Trackpoint>
            <Time>2022-07-04T09:42:09.000Z</Time>
            <Position>
              <LatitudeDegrees>44.8069143109023571014404296875</LatitudeDegrees>
              <LongitudeDegrees>-0.64056188799440860748291015625</LongitudeDegrees>
            </Position>
            <AltitudeMeters>22.799999237060546875</AltitudeMeters>
            <DistanceMeters>16942.676996401</DistanceMeters>
          </Trackpoint>
          <Trackpoint>
            <Time>2022-07-04T09:42:16.000Z</Time>
            <Position>
              <LatitudeDegrees>44.80694758705794811248779296875</LatitudeDegrees>
              <LongitudeDegrees>-0.64051914028823375701904296875</LongitudeDegrees>
            </Position>
            <AltitudeMeters>23</AltitudeMeters>
            <DistanceMeters>16947.689148899</DistanceMeters>
          </Trackpoint>
          <Trackpoint>
            <Time>2022-07-04T09:42:22.000Z</Time>
            <Position>
              <LatitudeDegrees>44.80699620209634304046630859375</LatitudeDegrees>
              <LongitudeDegrees>-0.64035116694867610931396484375</LongitudeDegrees>
            </Position>
            <AltitudeMeters>23</AltitudeMeters>
            <DistanceMeters>16962.014563981</DistanceMeters>
          </Trackpoint>
          <Trackpoint>
            <Time>2022-07-04T09:42:26.000Z</Time>
            <Position>
              <LatitudeDegrees>44.80703308247029781341552734375</LatitudeDegrees>
              <LongitudeDegrees>-0.6402830220758914947509765625</LongitudeDegrees>
            </Position>
            <AltitudeMeters>23</AltitudeMeters>
            <DistanceMeters>16968.782841295</DistanceMeters>
          </Trackpoint>
          <Trackpoint>
            <Time>2022-07-04T09:42:28.000Z</Time>
            <Position>
              <LatitudeDegrees>44.8070378601551055908203125</LatitudeDegrees>
              <LongitudeDegrees>-0.6402796693146228790283203125</LongitudeDegrees>
            </Position>
            <AltitudeMeters>23</AltitudeMeters>
            <DistanceMeters>16969.383843007</DistanceMeters>
          </Trackpoint>
          <Trackpoint>
            <Time>2022-07-04T09:42:30.000Z</Time>
            <Position>
              <LatitudeDegrees>44.8070378601551055908203125</LatitudeDegrees>
              <LongitudeDegrees>-0.6402796693146228790283203125</LongitudeDegrees>
            </Position>
            <AltitudeMeters>23</AltitudeMeters>
            <DistanceMeters>16969.383843007</DistanceMeters>
          </Trackpoint>
          <Trackpoint>
            <Time>2022-07-04T09:43:20.000Z</Time>
            <Position>
              <LatitudeDegrees>44.8069988004863262176513671875</LatitudeDegrees>
              <LongitudeDegrees>-0.64034278504550457000732421875</LongitudeDegrees>
            </Position>
            <AltitudeMeters>23</AltitudeMeters>
            <DistanceMeters>16975.9975931</DistanceMeters>
          </Trackpoint>
          <Trackpoint>
            <Time>2022-07-04T09:43:21.000Z</Time>
            <Position>
              <LatitudeDegrees>44.806985892355442047119140625</LatitudeDegrees>
              <LongitudeDegrees>-0.64037279225885868072509765625</LongitudeDegrees>
            </Position>
            <AltitudeMeters>23</AltitudeMeters>
            <DistanceMeters>16978.769703317</DistanceMeters>
          </Trackpoint>
          <Trackpoint>
            <Time>2022-07-04T09:43:26.000Z</Time>
            <Position>
              <LatitudeDegrees>44.80693132616579532623291015625</LatitudeDegrees>
              <LongitudeDegrees>-0.640587620437145233154296875</LongitudeDegrees>
            </Position>
            <AltitudeMeters>23.200000762939453125</AltitudeMeters>
            <DistanceMeters>16996.788231794</DistanceMeters>
          </Trackpoint>
          <Trackpoint>
            <Time>2022-07-04T09:43:33.000Z</Time>
            <Position>
              <LatitudeDegrees>44.806916154921054840087890625</LatitudeDegrees>
              <LongitudeDegrees>-0.64091661013662815093994140625</LongitudeDegrees>
            </Position>
            <AltitudeMeters>23.200000762939453125</AltitudeMeters>
            <DistanceMeters>17022.822430029</DistanceMeters>
          </Trackpoint>
          <Trackpoint>
            <Time>2022-07-04T09:43:41.000Z</Time>
            <Position>
              <LatitudeDegrees>44.80691783130168914794921875</LatitudeDegrees>
              <LongitudeDegrees>-0.6413086317479610443115234375</LongitudeDegrees>
            </Position>
            <AltitudeMeters>23.6000003814697265625</AltitudeMeters>
            <DistanceMeters>17053.779852612</DistanceMeters>
          </Trackpoint>
          <Trackpoint>
            <Time>2022-07-04T09:43:46.000Z</Time>
            <Position>
              <LatitudeDegrees>44.8069064319133758544921875</LatitudeDegrees>
              <LongitudeDegrees>-0.64156235195696353912353515625</LongitudeDegrees>
            </Position>
            <AltitudeMeters>23.3999996185302734375</AltitudeMeters>
            <DistanceMeters>17073.855468962</DistanceMeters>
          </Trackpoint>
          <Trackpoint>
            <Time>2022-07-04T09:43:52.000Z</Time>
            <Position>
              <LatitudeDegrees>44.806889332830905914306640625</LatitudeDegrees>
              <LongitudeDegrees>-0.6418809480965137481689453125</LongitudeDegrees>
            </Position>
            <AltitudeMeters>23.3999996185302734375</AltitudeMeters>
            <DistanceMeters>17099.085911664</DistanceMeters>
          </Trackpoint>
          <Trackpoint>
            <Time>2022-07-04T09:43:56.000Z</Time>
            <Position>
              <LatitudeDegrees>44.8068703897297382354736328125</LatitudeDegrees>
              <LongitudeDegrees>-0.64208454452455043792724609375</LongitudeDegrees>
            </Position>
            <AltitudeMeters>23.6000003814697265625</AltitudeMeters>
            <DistanceMeters>17115.300989086</DistanceMeters>
          </Trackpoint>
          <Trackpoint>
            <Time>2022-07-04T09:44:01.000Z</Time>
            <Position>
              <LatitudeDegrees>44.8068626783788204193115234375</LatitudeDegrees>
              <LongitudeDegrees>-0.64235486090183258056640625</LongitudeDegrees>
            </Position>
            <AltitudeMeters>23.6000003814697265625</AltitudeMeters>
            <DistanceMeters>17136.66446548</DistanceMeters>
          </Trackpoint>
          <Trackpoint>
            <Time>2022-07-04T09:44:08.000Z</Time>
            <Position>
              <LatitudeDegrees>44.806855805218219757080078125</LatitudeDegrees>
              <LongitudeDegrees>-0.64274244010448455810546875</LongitudeDegrees>
            </Position>
            <AltitudeMeters>23.799999237060546875</AltitudeMeters>
            <DistanceMeters>17167.280179336</DistanceMeters>
          </Trackpoint>
          <Trackpoint>
            <Time>2022-07-04T09:44:16.000Z</Time>
            <Position>
              <LatitudeDegrees>44.80683878995478153228759765625</LatitudeDegrees>
              <LongitudeDegrees>-0.64317435957491397857666015625</LongitudeDegrees>
            </Position>
            <AltitudeMeters>24.200000762939453125</AltitudeMeters>
            <DistanceMeters>17201.440135401</DistanceMeters>
          </Trackpoint>
          <Trackpoint>
            <Time>2022-07-04T09:44:19.000Z</Time>
            <Position>
              <LatitudeDegrees>44.80683602392673492431640625</LatitudeDegrees>
              <LongitudeDegrees>-0.6433331966400146484375</LongitudeDegrees>
            </Position>
            <AltitudeMeters>24.200000762939453125</AltitudeMeters>
            <DistanceMeters>17213.986540965</DistanceMeters>
          </Trackpoint>
          <Trackpoint>
            <Time>2022-07-04T09:44:23.000Z</Time>
            <Position>
              <LatitudeDegrees>44.8068335093557834625244140625</LatitudeDegrees>
              <LongitudeDegrees>-0.643538050353527069091796875</LongitudeDegrees>
            </Position>
            <AltitudeMeters>24.3999996185302734375</AltitudeMeters>
            <DistanceMeters>17230.165658863</DistanceMeters>
          </Trackpoint>
          <Trackpoint>
            <Time>2022-07-04T09:44:24.000Z</Time>
            <Position>
              <LatitudeDegrees>44.80683459900319576263427734375</LatitudeDegrees>
              <LongitudeDegrees>-0.64357819966971874237060546875</LongitudeDegrees>
            </Position>
            <AltitudeMeters>24.3999996185302734375</AltitudeMeters>
            <DistanceMeters>17233.33733116</DistanceMeters>
          </Trackpoint>
          <Trackpoint>
            <Time>2022-07-04T09:44:29.000Z</Time>
            <Position>
              <LatitudeDegrees>44.80683225207030773162841796875</LatitudeDegrees>
              <LongitudeDegrees>-0.643829070031642913818359375</LongitudeDegrees>
            </Position>
            <AltitudeMeters>24.6000003814697265625</AltitudeMeters>
            <DistanceMeters>17253.149432585</DistanceMeters>
          </Trackpoint>
          <Trackpoint>
            <Time>2022-07-04T09:44:33.000Z</Time>
            <Position>
              <LatitudeDegrees>44.80682588182389736175537109375</LatitudeDegrees>
              <LongitudeDegrees>-0.64401648938655853271484375</LongitudeDegrees>
            </Position>
            <AltitudeMeters>25</AltitudeMeters>
            <DistanceMeters>17267.966288476</DistanceMeters>
          </Trackpoint>
          <Trackpoint>
            <Time>2022-07-04T09:44:34.000Z</Time>
            <Position>
              <LatitudeDegrees>44.80682252906262874603271484375</LatitudeDegrees>
              <LongitudeDegrees>-0.6440612487494945526123046875</LongitudeDegrees>
            </Position>
            <AltitudeMeters>25</AltitudeMeters>
            <DistanceMeters>17271.520592479</DistanceMeters>
          </Trackpoint>
          <Trackpoint>
            <Time>2022-07-04T09:44:40.000Z</Time>
            <Position>
              <LatitudeDegrees>44.806824624538421630859375</LatitudeDegrees>
              <LongitudeDegrees>-0.64433022402226924896240234375</LongitudeDegrees>
            </Position>
            <AltitudeMeters>25.3999996185302734375</AltitudeMeters>
            <DistanceMeters>17292.761986021</DistanceMeters>
          </Trackpoint>
          <Trackpoint>
            <Time>2022-07-04T09:44:41.000Z</Time>
            <Position>
              <LatitudeDegrees>44.8068227805197238922119140625</LatitudeDegrees>
              <LongitudeDegrees>-0.6443760730326175689697265625</LongitudeDegrees>
            </Position>
            <AltitudeMeters>25.6000003814697265625</AltitudeMeters>
            <DistanceMeters>17296.389219316</DistanceMeters>
          </Trackpoint>
          <Trackpoint>
            <Time>2022-07-04T09:44:49.000Z</Time>
            <Position>
              <LatitudeDegrees>44.8068046756088733673095703125</LatitudeDegrees>
              <LongitudeDegrees>-0.64473758451640605926513671875</LongitudeDegrees>
            </Position>
            <AltitudeMeters>26.200000762939453125</AltitudeMeters>
            <DistanceMeters>17325.007883392</DistanceMeters>
          </Trackpoint>
          <Trackpoint>
            <Time>2022-07-04T09:44:53.000Z</Time>
            <Position>
              <LatitudeDegrees>44.8067922703921794891357421875</LatitudeDegrees>
              <LongitudeDegrees>-0.644920058548450469970703125</LongitudeDegrees>
            </Position>
            <AltitudeMeters>26.6000003814697265625</AltitudeMeters>
            <DistanceMeters>17339.483480923</DistanceMeters>
          </Trackpoint>
          <Trackpoint>
            <Time>2022-07-04T09:44:55.000Z</Time>
            <Position>
              <LatitudeDegrees>44.8067862354218959808349609375</LatitudeDegrees>
              <LongitudeDegrees>-0.64501217566430568695068359375</LongitudeDegrees>
            </Position>
            <AltitudeMeters>26.799999237060546875</AltitudeMeters>
            <DistanceMeters>17346.788804446</DistanceMeters>
          </Trackpoint>
          <Trackpoint>
            <Time>2022-07-04T09:45:03.000Z</Time>
            <Position>
              <LatitudeDegrees>44.806787073612213134765625</LatitudeDegrees>
              <LongitudeDegrees>-0.64535499550402164459228515625</LongitudeDegrees>
            </Position>
            <AltitudeMeters>27.6000003814697265625</AltitudeMeters>
            <DistanceMeters>17373.860579493</DistanceMeters>
          </Trackpoint>
          <Trackpoint>
            <Time>2022-07-04T09:45:08.000Z</Time>
            <Position>
              <LatitudeDegrees>44.80676972307264804840087890625</LatitudeDegrees>
              <LongitudeDegrees>-0.64554643817245960235595703125</LongitudeDegrees>
            </Position>
            <AltitudeMeters>28</AltitudeMeters>
            <DistanceMeters>17389.101335917</DistanceMeters>
          </Trackpoint>
          <Trackpoint>
            <Time>2022-07-04T09:45:15.000Z</Time>
            <Position>
              <LatitudeDegrees>44.806751199066638946533203125</LatitudeDegrees>
              <LongitudeDegrees>-0.645843409001827239990234375</LongitudeDegrees>
            </Position>
            <AltitudeMeters>28.3999996185302734375</AltitudeMeters>
            <DistanceMeters>17412.642849921</DistanceMeters>
          </Trackpoint>
          <Trackpoint>
            <Time>2022-07-04T09:45:18.000Z</Time>
            <Position>
              <LatitudeDegrees>44.80674390681087970733642578125</LatitudeDegrees>
              <LongitudeDegrees>-0.645970143377780914306640625</LongitudeDegrees>
            </Position>
            <AltitudeMeters>28.799999237060546875</AltitudeMeters>
            <DistanceMeters>17422.683356553</DistanceMeters>
          </Trackpoint>
          <Trackpoint>
            <Time>2022-07-04T09:45:23.000Z</Time>
            <Position>
              <LatitudeDegrees>44.8067347705364227294921875</LatitudeDegrees>
              <LongitudeDegrees>-0.64618346281349658966064453125</LongitudeDegrees>
            </Position>
            <AltitudeMeters>28.799999237060546875</AltitudeMeters>
            <DistanceMeters>17439.559095081</DistanceMeters>
          </Trackpoint>
          <Trackpoint>
            <Time>2022-07-04T09:45:31.000Z</Time>
            <Position>
              <LatitudeDegrees>44.806690514087677001953125</LatitudeDegrees>
              <LongitudeDegrees>-0.646485798060894012451171875</LongitudeDegrees>
            </Position>
            <AltitudeMeters>29.200000762939453125</AltitudeMeters>
            <DistanceMeters>17463.936364629</DistanceMeters>
          </Trackpoint>
          <Trackpoint>
            <Time>2022-07-04T09:45:38.000Z</Time>
            <Position>
              <LatitudeDegrees>44.806620441377162933349609375</LatitudeDegrees>
              <LongitudeDegrees>-0.6467441283166408538818359375</LongitudeDegrees>
            </Position>
            <AltitudeMeters>29.6000003814697265625</AltitudeMeters>
            <DistanceMeters>17485.775976297</DistanceMeters>
          </Trackpoint>
          <Trackpoint>
            <Time>2022-07-04T09:45:41.000Z</Time>
            <Position>
              <LatitudeDegrees>44.80658532120287418365478515625</LatitudeDegrees>
              <LongitudeDegrees>-0.64685267396271228790283203125</LongitudeDegrees>
            </Position>
            <AltitudeMeters>29.799999237060546875</AltitudeMeters>
            <DistanceMeters>17495.197049556</DistanceMeters>
          </Trackpoint>
          <Trackpoint>
            <Time>2022-07-04T09:45:47.000Z</Time>
            <Position>
              <LatitudeDegrees>44.8064911924302577972412109375</LatitudeDegrees>
              <LongitudeDegrees>-0.647053420543670654296875</LongitudeDegrees>
            </Position>
            <AltitudeMeters>30.200000762939453125</AltitudeMeters>
            <DistanceMeters>17514.198590982</DistanceMeters>
          </Trackpoint>
          <Trackpoint>
            <Time>2022-07-04T09:45:56.000Z</Time>
            <Position>
              <LatitudeDegrees>44.8063399828970432281494140625</LatitudeDegrees>
              <LongitudeDegrees>-0.6473104096949100494384765625</LongitudeDegrees>
            </Position>
            <AltitudeMeters>30.6000003814697265625</AltitudeMeters>
            <DistanceMeters>17540.563153073</DistanceMeters>
          </Trackpoint>
          <Trackpoint>
            <Time>2022-07-04T09:46:00.000Z</Time>
            <Position>
              <LatitudeDegrees>44.806263037025928497314453125</LatitudeDegrees>
              <LongitudeDegrees>-0.64741845242679119110107421875</LongitudeDegrees>
            </Position>
            <AltitudeMeters>30.799999237060546875</AltitudeMeters>
            <DistanceMeters>17552.651357945</DistanceMeters>
          </Trackpoint>
          <Trackpoint>
            <Time>2022-07-04T09:46:01.000Z</Time>
            <Position>
              <LatitudeDegrees>44.8062439262866973876953125</LatitudeDegrees>
              <LongitudeDegrees>-0.64744628034532070159912109375</LongitudeDegrees>
            </Position>
            <AltitudeMeters>30.799999237060546875</AltitudeMeters>
            <DistanceMeters>17555.709978417</DistanceMeters>
          </Trackpoint>
          <Trackpoint>
            <Time>2022-07-04T09:46:05.000Z</Time>
            <Position>
              <LatitudeDegrees>44.80618399567902088165283203125</LatitudeDegrees>
              <LongitudeDegrees>-0.64754753373563289642333984375</LongitudeDegrees>
            </Position>
            <AltitudeMeters>31.200000762939453125</AltitudeMeters>
            <DistanceMeters>17566.123102729</DistanceMeters>
          </Trackpoint>
          <Trackpoint>
            <Time>2022-07-04T09:46:15.000Z</Time>
            <Position>
              <LatitudeDegrees>44.80600646696984767913818359375</LatitudeDegrees>
              <LongitudeDegrees>-0.64779463224112987518310546875</LongitudeDegrees>
            </Position>
            <AltitudeMeters>31.6000003814697265625</AltitudeMeters>
            <DistanceMeters>17593.89334919</DistanceMeters>
          </Trackpoint>
          <Trackpoint>
            <Time>2022-07-04T09:46:17.000Z</Time>
            <Position>
              <LatitudeDegrees>44.80597562156617641448974609375</LatitudeDegrees>
              <LongitudeDegrees>-0.64785280264914035797119140625</LongitudeDegrees>
            </Position>
            <AltitudeMeters>31.799999237060546875</AltitudeMeters>
            <DistanceMeters>17599.628114957</DistanceMeters>
          </Trackpoint>
          <Trackpoint>
            <Time>2022-07-04T09:46:24.000Z</Time>
            <Position>
              <LatitudeDegrees>44.80586715973913669586181640625</LatitudeDegrees>
              <LongitudeDegrees>-0.6480835564434528350830078125</LongitudeDegrees>
            </Position>
            <AltitudeMeters>32.200000762939453125</AltitudeMeters>
            <DistanceMeters>17621.486324963</DistanceMeters>
          </Trackpoint>
          <Trackpoint>
            <Time>2022-07-04T09:46:32.000Z</Time>
            <Position>
              <LatitudeDegrees>44.8057659901678562164306640625</LatitudeDegrees>
              <LongitudeDegrees>-0.64836778677999973297119140625</LongitudeDegrees>
            </Position>
            <AltitudeMeters>32</AltitudeMeters>
            <DistanceMeters>17646.597662406</DistanceMeters>
          </Trackpoint>
          <Trackpoint>
            <Time>2022-07-04T09:46:38.000Z</Time>
            <Position>
              <LatitudeDegrees>44.80570404790341854095458984375</LatitudeDegrees>
              <LongitudeDegrees>-0.6485660187900066375732421875</LongitudeDegrees>
            </Position>
            <AltitudeMeters>32.200000762939453125</AltitudeMeters>
            <DistanceMeters>17663.702470992</DistanceMeters>
          </Trackpoint>
          <Trackpoint>
            <Time>2022-07-04T09:46:40.000Z</Time>
            <Position>
              <LatitudeDegrees>44.80568527244031429290771484375</LatitudeDegrees>
              <LongitudeDegrees>-0.64863734878599643707275390625</LongitudeDegrees>
            </Position>
            <AltitudeMeters>32.200000762939453125</AltitudeMeters>
            <DistanceMeters>17669.710985419</DistanceMeters>
          </Trackpoint>
          <Trackpoint>
            <Time>2022-07-04T09:46:48.000Z</Time>
            <Position>
              <LatitudeDegrees>44.80562073178589344024658203125</LatitudeDegrees>
              <LongitudeDegrees>-0.6489861197769641876220703125</LongitudeDegrees>
            </Position>
            <AltitudeMeters>32.200000762939453125</AltitudeMeters>
            <DistanceMeters>17698.174302134</DistanceMeters>
          </Trackpoint>
          <Trackpoint>
            <Time>2022-07-04T09:47:00.000Z</Time>
            <Position>
              <LatitudeDegrees>44.8055564425885677337646484375</LatitudeDegrees>
              <LongitudeDegrees>-0.6495467014610767364501953125</LongitudeDegrees>
            </Position>
            <AltitudeMeters>32.59999847412109375</AltitudeMeters>
            <DistanceMeters>17743.017447913</DistanceMeters>
          </Trackpoint>
          <Trackpoint>
            <Time>2022-07-04T09:47:09.000Z</Time>
            <Position>
              <LatitudeDegrees>44.80552651919424533843994140625</LatitudeDegrees>
              <LongitudeDegrees>-0.6500345282256603240966796875</LongitudeDegrees>
            </Position>
            <AltitudeMeters>32.799999237060546875</AltitudeMeters>
            <DistanceMeters>17781.684330603</DistanceMeters>
          </Trackpoint>
          <Trackpoint>
            <Time>2022-07-04T09:47:12.000Z</Time>
            <Position>
              <LatitudeDegrees>44.80551444925367832183837890625</LatitudeDegrees>
              <LongitudeDegrees>-0.65020225010812282562255859375</LongitudeDegrees>
            </Position>
            <AltitudeMeters>32.799999237060546875</AltitudeMeters>
            <DistanceMeters>17794.9968916</DistanceMeters>
          </Trackpoint>
          <Trackpoint>
            <Time>2022-07-04T09:47:18.000Z</Time>
            <Position>
              <LatitudeDegrees>44.805487878620624542236328125</LatitudeDegrees>
              <LongitudeDegrees>-0.650530569255352020263671875</LongitudeDegrees>
            </Position>
            <AltitudeMeters>33</AltitudeMeters>
            <DistanceMeters>17821.092064805</DistanceMeters>
          </Trackpoint>
          <Trackpoint>
            <Time>2022-07-04T09:47:27.000Z</Time>
            <Position>
              <LatitudeDegrees>44.80545007623732089996337890625</LatitudeDegrees>
              <LongitudeDegrees>-0.65104119479656219482421875</LongitudeDegrees>
            </Position>
            <AltitudeMeters>33.40000152587890625</AltitudeMeters>
            <DistanceMeters>17861.634519524</DistanceMeters>
          </Trackpoint>
          <Trackpoint>
            <Time>2022-07-04T09:47:33.000Z</Time>
            <Position>
              <LatitudeDegrees>44.80541973374783992767333984375</LatitudeDegrees>
              <LongitudeDegrees>-0.6513865292072296142578125</LongitudeDegrees>
            </Position>
            <AltitudeMeters>33.200000762939453125</AltitudeMeters>
            <DistanceMeters>17889.113839974</DistanceMeters>
          </Trackpoint>
          <Trackpoint>
            <Time>2022-07-04T09:47:38.000Z</Time>
            <Position>
              <LatitudeDegrees>44.8053990304470062255859375</LatitudeDegrees>
              <LongitudeDegrees>-0.65166153945028781890869140625</LongitudeDegrees>
            </Position>
            <AltitudeMeters>33.59999847412109375</AltitudeMeters>
            <DistanceMeters>17910.953244904</DistanceMeters>
          </Trackpoint>
          <Trackpoint>
            <Time>2022-07-04T09:47:48.000Z</Time>
            <Position>
              <LatitudeDegrees>44.80535410344600677490234375</LatitudeDegrees>
              <LongitudeDegrees>-0.65221625380218029022216796875</LongitudeDegrees>
            </Position>
            <AltitudeMeters>33.59999847412109375</AltitudeMeters>
            <DistanceMeters>17955.043080311</DistanceMeters>
          </Trackpoint>
          <Trackpoint>
            <Time>2022-07-04T09:47:52.000Z</Time>
            <Position>
              <LatitudeDegrees>44.80534362606704235076904296875</LatitudeDegrees>
              <LongitudeDegrees>-0.65243535675108432769775390625</LongitudeDegrees>
            </Position>
            <AltitudeMeters>34</AltitudeMeters>
            <DistanceMeters>17972.384869892</DistanceMeters>
          </Trackpoint>
          <Trackpoint>
            <Time>2022-07-04T09:47:56.000Z</Time>
            <Position>
              <LatitudeDegrees>44.8053227551281452178955078125</LatitudeDegrees>
              <LongitudeDegrees>-0.65265244804322719573974609375</LongitudeDegrees>
            </Position>
            <AltitudeMeters>34.200000762939453125</AltitudeMeters>
            <DistanceMeters>17989.684952368</DistanceMeters>
          </Trackpoint>
          <Trackpoint>
            <Time>2022-07-04T09:48:04.000Z</Time>
            <Position>
              <LatitudeDegrees>44.80528034269809722900390625</LatitudeDegrees>
              <LongitudeDegrees>-0.65309970639646053314208984375</LongitudeDegrees>
            </Position>
            <AltitudeMeters>34.200000762939453125</AltitudeMeters>
            <DistanceMeters>18025.318829918</DistanceMeters>
          </Trackpoint>
          <Trackpoint>
            <Time>2022-07-04T09:48:06.000Z</Time>
            <Position>
              <LatitudeDegrees>44.805271290242671966552734375</LatitudeDegrees>
              <LongitudeDegrees>-0.65320733003318309783935546875</LongitudeDegrees>
            </Position>
            <AltitudeMeters>34.40000152587890625</AltitudeMeters>
            <DistanceMeters>18033.877566981</DistanceMeters>
          </Trackpoint>
          <Trackpoint>
            <Time>2022-07-04T09:48:08.000Z</Time>
            <Position>
              <LatitudeDegrees>44.80526852421462535858154296875</LatitudeDegrees>
              <LongitudeDegrees>-0.65330539830029010772705078125</LongitudeDegrees>
            </Position>
            <AltitudeMeters>34.40000152587890625</AltitudeMeters>
            <DistanceMeters>18041.627926231</DistanceMeters>
          </Trackpoint>
          <Trackpoint>
            <Time>2022-07-04T09:48:12.000Z</Time>
            <Position>
              <LatitudeDegrees>44.8051940090954303741455078125</LatitudeDegrees>
              <LongitudeDegrees>-0.6534825079143047332763671875</LongitudeDegrees>
            </Position>
            <AltitudeMeters>34.40000152587890625</AltitudeMeters>
            <DistanceMeters>18057.888604825</DistanceMeters>
          </Trackpoint>
          <Trackpoint>
            <Time>2022-07-04T09:48:15.000Z</Time>
            <Position>
              <LatitudeDegrees>44.805124104022979736328125</LatitudeDegrees>
              <LongitudeDegrees>-0.6535931490361690521240234375</LongitudeDegrees>
            </Position>
            <AltitudeMeters>34.40000152587890625</AltitudeMeters>
            <DistanceMeters>18069.588473577</DistanceMeters>
          </Trackpoint>
          <Trackpoint>
            <Time>2022-07-04T09:48:16.000Z</Time>
            <Position>
              <LatitudeDegrees>44.8051215894520282745361328125</LatitudeDegrees>
              <LongitudeDegrees>-0.65364520065486431121826171875</LongitudeDegrees>
            </Position>
            <AltitudeMeters>34.40000152587890625</AltitudeMeters>
            <DistanceMeters>18073.709829397</DistanceMeters>
          </Trackpoint>
          <Trackpoint>
            <Time>2022-07-04T09:48:20.000Z</Time>
            <Position>
              <LatitudeDegrees>44.80510826222598552703857421875</LatitudeDegrees>
              <LongitudeDegrees>-0.653835721313953399658203125</LongitudeDegrees>
            </Position>
            <AltitudeMeters>34.40000152587890625</AltitudeMeters>
            <DistanceMeters>18088.828337754</DistanceMeters>
          </Trackpoint>
          <Trackpoint>
            <Time>2022-07-04T09:48:21.000Z</Time>
            <Position>
              <LatitudeDegrees>44.8050917498767375946044921875</LatitudeDegrees>
              <LongitudeDegrees>-0.65388006158173084259033203125</LongitudeDegrees>
            </Position>
            <AltitudeMeters>34.40000152587890625</AltitudeMeters>
            <DistanceMeters>18092.783093423</DistanceMeters>
          </Trackpoint>
          <Trackpoint>
            <Time>2022-07-04T09:48:22.000Z</Time>
            <Position>
              <LatitudeDegrees>44.80506978929042816162109375</LatitudeDegrees>
              <LongitudeDegrees>-0.65392113290727138519287109375</LongitudeDegrees>
            </Position>
            <AltitudeMeters>34.40000152587890625</AltitudeMeters>
            <DistanceMeters>18096.843748492</DistanceMeters>
          </Trackpoint>
          <Trackpoint>
            <Time>2022-07-04T09:48:27.000Z</Time>
            <Position>
              <LatitudeDegrees>44.8049457371234893798828125</LatitudeDegrees>
              <LongitudeDegrees>-0.6540982425212860107421875</LongitudeDegrees>
            </Position>
            <AltitudeMeters>34.799999237060546875</AltitudeMeters>
            <DistanceMeters>18116.497055842</DistanceMeters>
          </Trackpoint>
          <Trackpoint>
            <Time>2022-07-04T09:48:33.000Z</Time>
            <Position>
              <LatitudeDegrees>44.80477767996490001678466796875</LatitudeDegrees>
              <LongitudeDegrees>-0.65432379953563213348388671875</LongitudeDegrees>
            </Position>
            <AltitudeMeters>35</AltitudeMeters>
            <DistanceMeters>18142.32614889</DistanceMeters>
          </Trackpoint>
          <Trackpoint>
            <Time>2022-07-04T09:48:35.000Z</Time>
            <Position>
              <LatitudeDegrees>44.80472219176590442657470703125</LatitudeDegrees>
              <LongitudeDegrees>-0.65440342761576175689697265625</LongitudeDegrees>
            </Position>
            <AltitudeMeters>35.200000762939453125</AltitudeMeters>
            <DistanceMeters>18151.140100765</DistanceMeters>
          </Trackpoint>
          <Trackpoint>
            <Time>2022-07-04T09:48:43.000Z</Time>
            <Position>
              <LatitudeDegrees>44.80451147072017192840576171875</LatitudeDegrees>
              <LongitudeDegrees>-0.65471582114696502685546875</LongitudeDegrees>
            </Position>
            <AltitudeMeters>35.40000152587890625</AltitudeMeters>
            <DistanceMeters>18185.179433878</DistanceMeters>
          </Trackpoint>
          <Trackpoint>
            <Time>2022-07-04T09:48:49.000Z</Time>
            <Position>
              <LatitudeDegrees>44.8043155856430530548095703125</LatitudeDegrees>
              <LongitudeDegrees>-0.6549158133566379547119140625</LongitudeDegrees>
            </Position>
            <AltitudeMeters>35.40000152587890625</AltitudeMeters>
            <DistanceMeters>18212.101023644</DistanceMeters>
          </Trackpoint>
          <Trackpoint>
            <Time>2022-07-04T09:48:56.000Z</Time>
            <Position>
              <LatitudeDegrees>44.80413503944873809814453125</LatitudeDegrees>
              <LongitudeDegrees>-0.6551686115562915802001953125</LongitudeDegrees>
            </Position>
            <AltitudeMeters>35.799999237060546875</AltitudeMeters>
            <DistanceMeters>18240.42711484</DistanceMeters>
          </Trackpoint>
          <Trackpoint>
            <Time>2022-07-04T09:49:04.000Z</Time>
            <Position>
              <LatitudeDegrees>44.80390705168247222900390625</LatitudeDegrees>
              <LongitudeDegrees>-0.65544211305677890777587890625</LongitudeDegrees>
            </Position>
            <AltitudeMeters>36</AltitudeMeters>
            <DistanceMeters>18273.750207438</DistanceMeters>
          </Trackpoint>
          <Trackpoint>
            <Time>2022-07-04T09:49:05.000Z</Time>
            <Position>
              <LatitudeDegrees>44.8038782179355621337890625</LatitudeDegrees>
              <LongitudeDegrees>-0.65547354519367218017578125</LongitudeDegrees>
            </Position>
            <AltitudeMeters>36</AltitudeMeters>
            <DistanceMeters>18277.806412472</DistanceMeters>
          </Trackpoint>
          <Trackpoint>
            <Time>2022-07-04T09:49:11.000Z</Time>
            <Position>
              <LatitudeDegrees>44.80372239835560321807861328125</LatitudeDegrees>
              <LongitudeDegrees>-0.6556882895529270172119140625</LongitudeDegrees>
            </Position>
            <AltitudeMeters>36.40000152587890625</AltitudeMeters>
            <DistanceMeters>18302.062993454</DistanceMeters>
          </Trackpoint>
          <Trackpoint>
            <Time>2022-07-04T09:49:15.000Z</Time>
            <Position>
              <LatitudeDegrees>44.80361846275627613067626953125</LatitudeDegrees>
              <LongitudeDegrees>-0.65581527538597583770751953125</LongitudeDegrees>
            </Position>
            <AltitudeMeters>36.40000152587890625</AltitudeMeters>
            <DistanceMeters>18317.372619974</DistanceMeters>
          </Trackpoint>
          <Trackpoint>
            <Time>2022-07-04T09:49:22.000Z</Time>
            <Position>
              <LatitudeDegrees>44.80344328097999095916748046875</LatitudeDegrees>
              <LongitudeDegrees>-0.656083412468433380126953125</LongitudeDegrees>
            </Position>
            <AltitudeMeters>36.59999847412109375</AltitudeMeters>
            <DistanceMeters>18346.157245456</DistanceMeters>
          </Trackpoint>
          <Trackpoint>
            <Time>2022-07-04T09:49:28.000Z</Time>
            <Position>
              <LatitudeDegrees>44.80329240672290325164794921875</LatitudeDegrees>
              <LongitudeDegrees>-0.65627762116491794586181640625</LongitudeDegrees>
            </Position>
            <AltitudeMeters>36.799999237060546875</AltitudeMeters>
            <DistanceMeters>18368.899621947</DistanceMeters>
          </Trackpoint>
          <Trackpoint>
            <Time>2022-07-04T09:49:37.000Z</Time>
            <Position>
              <LatitudeDegrees>44.8030469007790088653564453125</LatitudeDegrees>
              <LongitudeDegrees>-0.65662479959428310394287109375</LongitudeDegrees>
            </Position>
            <AltitudeMeters>37</AltitudeMeters>
            <DistanceMeters>18407.608518141</DistanceMeters>
          </Trackpoint>
          <Trackpoint>
            <Time>2022-07-04T09:49:38.000Z</Time>
            <Position>
              <LatitudeDegrees>44.8030177317559719085693359375</LatitudeDegrees>
              <LongitudeDegrees>-0.6566612608730792999267578125</LongitudeDegrees>
            </Position>
            <AltitudeMeters>37</AltitudeMeters>
            <DistanceMeters>18411.947608988</DistanceMeters>
          </Trackpoint>
          <Trackpoint>
            <Time>2022-07-04T09:49:46.000Z</Time>
            <Position>
              <LatitudeDegrees>44.8027920909225940704345703125</LatitudeDegrees>
              <LongitudeDegrees>-0.65693157725036144256591796875</LongitudeDegrees>
            </Position>
            <AltitudeMeters>37.40000152587890625</AltitudeMeters>
            <DistanceMeters>18444.908868328</DistanceMeters>
          </Trackpoint>
          <Trackpoint>
            <Time>2022-07-04T09:49:56.000Z</Time>
            <Position>
              <LatitudeDegrees>44.80249260552227497100830078125</LatitudeDegrees>
              <LongitudeDegrees>-0.65718035213649272918701171875</LongitudeDegrees>
            </Position>
            <AltitudeMeters>37.799999237060546875</AltitudeMeters>
            <DistanceMeters>18483.600964595</DistanceMeters>
          </Trackpoint>
          <Trackpoint>
            <Time>2022-07-04T09:49:59.000Z</Time>
            <Position>
              <LatitudeDegrees>44.80240409262478351593017578125</LatitudeDegrees>
              <LongitudeDegrees>-0.6572292186319828033447265625</LongitudeDegrees>
            </Position>
            <AltitudeMeters>38</AltitudeMeters>
            <DistanceMeters>18494.180984803</DistanceMeters>
          </Trackpoint>
          <Trackpoint>
            <Time>2022-07-04T09:50:04.000Z</Time>
            <Position>
              <LatitudeDegrees>44.802257828414440155029296875</LatitudeDegrees>
              <LongitudeDegrees>-0.65733407624065876007080078125</LongitudeDegrees>
            </Position>
            <AltitudeMeters>38.200000762939453125</AltitudeMeters>
            <DistanceMeters>18512.445406064</DistanceMeters>
          </Trackpoint>
          <Trackpoint>
            <Time>2022-07-04T09:50:05.000Z</Time>
            <Position>
              <LatitudeDegrees>44.8022365383803844451904296875</LatitudeDegrees>
              <LongitudeDegrees>-0.657332651317119598388671875</LongitudeDegrees>
            </Position>
            <AltitudeMeters>38.200000762939453125</AltitudeMeters>
            <DistanceMeters>18514.819172628</DistanceMeters>
          </Trackpoint>
          <Trackpoint>
            <Time>2022-07-04T09:50:07.000Z</Time>
            <Position>
              <LatitudeDegrees>44.80220745317637920379638671875</LatitudeDegrees>
              <LongitudeDegrees>-0.65729702822864055633544921875</LongitudeDegrees>
            </Position>
            <AltitudeMeters>38.200000762939453125</AltitudeMeters>
            <DistanceMeters>18519.109078896</DistanceMeters>
          </Trackpoint>
          <Trackpoint>
            <Time>2022-07-04T09:50:13.000Z</Time>
            <Position>
              <LatitudeDegrees>44.80211961083114147186279296875</LatitudeDegrees>
              <LongitudeDegrees>-0.65713861025869846343994140625</LongitudeDegrees>
            </Position>
            <AltitudeMeters>39</AltitudeMeters>
            <DistanceMeters>18534.986788875</DistanceMeters>
          </Trackpoint>
          <Trackpoint>
            <Time>2022-07-04T09:50:16.000Z</Time>
            <Position>
              <LatitudeDegrees>44.80204568244516849517822265625</LatitudeDegrees>
              <LongitudeDegrees>-0.6570728123188018798828125</LongitudeDegrees>
            </Position>
            <AltitudeMeters>39.200000762939453125</AltitudeMeters>
            <DistanceMeters>18544.718099766</DistanceMeters>
          </Trackpoint>
          <Trackpoint>
            <Time>2022-07-04T09:50:20.000Z</Time>
            <Position>
              <LatitudeDegrees>44.8019374720752239227294921875</LatitudeDegrees>
              <LongitudeDegrees>-0.6569723971188068389892578125</LongitudeDegrees>
            </Position>
            <AltitudeMeters>39.40000152587890625</AltitudeMeters>
            <DistanceMeters>18559.138384103</DistanceMeters>
          </Trackpoint>
          <Trackpoint>
            <Time>2022-07-04T09:50:27.000Z</Time>
            <Position>
              <LatitudeDegrees>44.80174460448324680328369140625</LatitudeDegrees>
              <LongitudeDegrees>-0.65677617676556110382080078125</LongitudeDegrees>
            </Position>
            <AltitudeMeters>39.59999847412109375</AltitudeMeters>
            <DistanceMeters>18585.613856788</DistanceMeters>
          </Trackpoint>
          <Trackpoint>
            <Time>2022-07-04T09:50:31.000Z</Time>
            <Position>
              <LatitudeDegrees>44.80164133943617343902587890625</LatitudeDegrees>
              <LongitudeDegrees>-0.6566579081118106842041015625</LongitudeDegrees>
            </Position>
            <AltitudeMeters>39.59999847412109375</AltitudeMeters>
            <DistanceMeters>18600.424007254</DistanceMeters>
          </Trackpoint>
          <Trackpoint>
            <Time>2022-07-04T09:50:35.000Z</Time>
            <Position>
              <LatitudeDegrees>44.801536314189434051513671875</LatitudeDegrees>
              <LongitudeDegrees>-0.656521283090114593505859375</LongitudeDegrees>
            </Position>
            <AltitudeMeters>39.59999847412109375</AltitudeMeters>
            <DistanceMeters>18616.332398826</DistanceMeters>
          </Trackpoint>
          <Trackpoint>
            <Time>2022-07-04T09:50:42.000Z</Time>
            <Position>
              <LatitudeDegrees>44.80139608494937419891357421875</LatitudeDegrees>
              <LongitudeDegrees>-0.65625364892184734344482421875</LongitudeDegrees>
            </Position>
            <AltitudeMeters>39.799999237060546875</AltitudeMeters>
            <DistanceMeters>18642.60689871</DistanceMeters>
          </Trackpoint>
          <Trackpoint>
            <Time>2022-07-04T09:50:49.000Z</Time>
            <Position>
              <LatitudeDegrees>44.80126767419278621673583984375</LatitudeDegrees>
              <LongitudeDegrees>-0.65598090179264545440673828125</LongitudeDegrees>
            </Position>
            <AltitudeMeters>39.40000152587890625</AltitudeMeters>
            <DistanceMeters>18668.457309094</DistanceMeters>
          </Trackpoint>
          <Trackpoint>
            <Time>2022-07-04T09:50:55.000Z</Time>
            <Position>
              <LatitudeDegrees>44.8011767305433750152587890625</LatitudeDegrees>
              <LongitudeDegrees>-0.6558148562908172607421875</LongitudeDegrees>
            </Position>
            <AltitudeMeters>39.40000152587890625</AltitudeMeters>
            <DistanceMeters>18685.023057587</DistanceMeters>
          </Trackpoint>
          <Trackpoint>
            <Time>2022-07-04T09:50:58.000Z</Time>
            <Position>
              <LatitudeDegrees>44.8011302947998046875</LatitudeDegrees>
              <LongitudeDegrees>-0.65583941526710987091064453125</LongitudeDegrees>
            </Position>
            <AltitudeMeters>39.799999237060546875</AltitudeMeters>
            <DistanceMeters>18690.542792899</DistanceMeters>
          </Trackpoint>
          <Trackpoint>
            <Time>2022-07-04T09:50:59.000Z</Time>
            <Position>
              <LatitudeDegrees>44.80111797340214252471923828125</LatitudeDegrees>
              <LongitudeDegrees>-0.65583907999098300933837890625</LongitudeDegrees>
            </Position>
            <AltitudeMeters>39.799999237060546875</AltitudeMeters>
            <DistanceMeters>18691.913287664</DistanceMeters>
          </Trackpoint>
          <Trackpoint>
            <Time>2022-07-04T09:51:00.000Z</Time>
            <Position>
              <LatitudeDegrees>44.80110389180481433868408203125</LatitudeDegrees>
              <LongitudeDegrees>-0.6558445282280445098876953125</LongitudeDegrees>
            </Position>
            <AltitudeMeters>40</AltitudeMeters>
            <DistanceMeters>18693.539883003</DistanceMeters>
          </Trackpoint>
          <Trackpoint>
            <Time>2022-07-04T09:51:02.000Z</Time>
            <Position>
              <LatitudeDegrees>44.801078997552394866943359375</LatitudeDegrees>
              <LongitudeDegrees>-0.655880905687808990478515625</LongitudeDegrees>
            </Position>
            <AltitudeMeters>40.200000762939453125</AltitudeMeters>
            <DistanceMeters>18697.531005007</DistanceMeters>
          </Trackpoint>
          <Trackpoint>
            <Time>2022-07-04T09:51:03.000Z</Time>
            <Position>
              <LatitudeDegrees>44.80107002891600131988525390625</LatitudeDegrees>
              <LongitudeDegrees>-0.65591502003371715545654296875</LongitudeDegrees>
            </Position>
            <AltitudeMeters>40.40000152587890625</AltitudeMeters>
            <DistanceMeters>18700.403893774</DistanceMeters>
          </Trackpoint>
          <Trackpoint>
            <Time>2022-07-04T09:51:11.000Z</Time>
            <Position>
              <LatitudeDegrees>44.800993837416172027587890625</LatitudeDegrees>
              <LongitudeDegrees>-0.65620738081634044647216796875</LongitudeDegrees>
            </Position>
            <AltitudeMeters>40.799999237060546875</AltitudeMeters>
            <DistanceMeters>18725.001316036</DistanceMeters>
          </Trackpoint>
          <Trackpoint>
            <Time>2022-07-04T09:51:18.000Z</Time>
            <Position>
              <LatitudeDegrees>44.800929129123687744140625</LatitudeDegrees>
              <LongitudeDegrees>-0.65650208853185176849365234375</LongitudeDegrees>
            </Position>
            <AltitudeMeters>41.200000762939453125</AltitudeMeters>
            <DistanceMeters>18749.364875812</DistanceMeters>
          </Trackpoint>
          <Trackpoint>
            <Time>2022-07-04T09:51:20.000Z</Time>
            <Position>
              <LatitudeDegrees>44.80090758763253688812255859375</LatitudeDegrees>
              <LongitudeDegrees>-0.6565928645431995391845703125</LongitudeDegrees>
            </Position>
            <AltitudeMeters>41.200000762939453125</AltitudeMeters>
            <DistanceMeters>18756.92412999</DistanceMeters>
          </Trackpoint>
          <Trackpoint>
            <Time>2022-07-04T09:51:32.000Z</Time>
            <Position>
              <LatitudeDegrees>44.8007588088512420654296875</LatitudeDegrees>
              <LongitudeDegrees>-0.6571675278246402740478515625</LongitudeDegrees>
            </Position>
            <AltitudeMeters>41</AltitudeMeters>
            <DistanceMeters>18805.235005039</DistanceMeters>
          </Trackpoint>
          <Trackpoint>
            <Time>2022-07-04T09:51:39.000Z</Time>
            <Position>
              <LatitudeDegrees>44.8006570525467395782470703125</LatitudeDegrees>
              <LongitudeDegrees>-0.6575420312583446502685546875</LongitudeDegrees>
            </Position>
            <AltitudeMeters>40.59999847412109375</AltitudeMeters>
            <DistanceMeters>18836.905856484</DistanceMeters>
          </Trackpoint>
          <Trackpoint>
            <Time>2022-07-04T09:51:42.000Z</Time>
            <Position>
              <LatitudeDegrees>44.8006208427250385284423828125</LatitudeDegrees>
              <LongitudeDegrees>-0.65771193243563175201416015625</LongitudeDegrees>
            </Position>
            <AltitudeMeters>40.59999847412109375</AltitudeMeters>
            <DistanceMeters>18850.916094585</DistanceMeters>
          </Trackpoint>
          <Trackpoint>
            <Time>2022-07-04T09:51:45.000Z</Time>
            <Position>
              <LatitudeDegrees>44.80059008114039897918701171875</LatitudeDegrees>
              <LongitudeDegrees>-0.6578863598406314849853515625</LongitudeDegrees>
            </Position>
            <AltitudeMeters>40.40000152587890625</AltitudeMeters>
            <DistanceMeters>18865.111062911</DistanceMeters>
          </Trackpoint>
          <Trackpoint>
            <Time>2022-07-04T09:51:47.000Z</Time>
            <Position>
              <LatitudeDegrees>44.80056141503155231475830078125</LatitudeDegrees>
              <LongitudeDegrees>-0.65799926407635211944580078125</LongitudeDegrees>
            </Position>
            <AltitudeMeters>40.200000762939453125</AltitudeMeters>
            <DistanceMeters>18874.581370152</DistanceMeters>
          </Trackpoint>
          <Trackpoint>
            <Time>2022-07-04T09:51:48.000Z</Time>
            <Position>
              <LatitudeDegrees>44.800551943480968475341796875</LatitudeDegrees>
              <LongitudeDegrees>-0.65805659629404544830322265625</LongitudeDegrees>
            </Position>
            <AltitudeMeters>40</AltitudeMeters>
            <DistanceMeters>18879.22894402</DistanceMeters>
          </Trackpoint>
          <Trackpoint>
            <Time>2022-07-04T09:51:53.000Z</Time>
            <Position>
              <LatitudeDegrees>44.8004874028265476226806640625</LatitudeDegrees>
              <LongitudeDegrees>-0.6583768688142299652099609375</LongitudeDegrees>
            </Position>
            <AltitudeMeters>39.799999237060546875</AltitudeMeters>
            <DistanceMeters>18905.523026488</DistanceMeters>
          </Trackpoint>
          <Trackpoint>
            <Time>2022-07-04T09:51:55.000Z</Time>
            <Position>
              <LatitudeDegrees>44.80046954937279224395751953125</LatitudeDegrees>
              <LongitudeDegrees>-0.65849664621055126190185546875</LongitudeDegrees>
            </Position>
            <AltitudeMeters>39.799999237060546875</AltitudeMeters>
            <DistanceMeters>18915.189630392</DistanceMeters>
          </Trackpoint>
          <Trackpoint>
            <Time>2022-07-04T09:51:57.000Z</Time>
            <Position>
              <LatitudeDegrees>44.8004476726055145263671875</LatitudeDegrees>
              <LongitudeDegrees>-0.6586172617971897125244140625</LongitudeDegrees>
            </Position>
            <AltitudeMeters>39.799999237060546875</AltitudeMeters>
            <DistanceMeters>18925.022025747</DistanceMeters>
          </Trackpoint>
          <Trackpoint>
            <Time>2022-07-04T09:51:59.000Z</Time>
            <Position>
              <LatitudeDegrees>44.8004213534295558929443359375</LatitudeDegrees>
              <LongitudeDegrees>-0.65873955376446247100830078125</LongitudeDegrees>
            </Position>
            <AltitudeMeters>39.799999237060546875</AltitudeMeters>
            <DistanceMeters>18935.114560725</DistanceMeters>
          </Trackpoint>
          <Trackpoint>
            <Time>2022-07-04T09:52:08.000Z</Time>
            <Position>
              <LatitudeDegrees>44.80032823048532009124755859375</LatitudeDegrees>
              <LongitudeDegrees>-0.6592534482479095458984375</LongitudeDegrees>
            </Position>
            <AltitudeMeters>40.200000762939453125</AltitudeMeters>
            <DistanceMeters>18977.002590801</DistanceMeters>
          </Trackpoint>
          <Trackpoint>
            <Time>2022-07-04T09:52:15.000Z</Time>
            <Position>
              <LatitudeDegrees>44.80026000179350376129150390625</LatitudeDegrees>
              <LongitudeDegrees>-0.65962384454905986785888671875</LongitudeDegrees>
            </Position>
            <AltitudeMeters>40</AltitudeMeters>
            <DistanceMeters>19007.224671671</DistanceMeters>
          </Trackpoint>
          <Trackpoint>
            <Time>2022-07-04T09:52:18.000Z</Time>
            <Position>
              <LatitudeDegrees>44.80023552663624286651611328125</LatitudeDegrees>
              <LongitudeDegrees>-0.65977371297776699066162109375</LongitudeDegrees>
            </Position>
            <AltitudeMeters>39.799999237060546875</AltitudeMeters>
            <DistanceMeters>19019.370260533</DistanceMeters>
          </Trackpoint>
          <Trackpoint>
            <Time>2022-07-04T09:52:23.000Z</Time>
            <Position>
              <LatitudeDegrees>44.80018774978816509246826171875</LatitudeDegrees>
              <LongitudeDegrees>-0.66000270657241344451904296875</LongitudeDegrees>
            </Position>
            <AltitudeMeters>40.200000762939453125</AltitudeMeters>
            <DistanceMeters>19038.221031557</DistanceMeters>
          </Trackpoint>
          <Trackpoint>
            <Time>2022-07-04T09:52:25.000Z</Time>
            <Position>
              <LatitudeDegrees>44.80016310699284076690673828125</LatitudeDegrees>
              <LongitudeDegrees>-0.6600983440876007080078125</LongitudeDegrees>
            </Position>
            <AltitudeMeters>40.40000152587890625</AltitudeMeters>
            <DistanceMeters>19046.256269362</DistanceMeters>
          </Trackpoint>
          <Trackpoint>
            <Time>2022-07-04T09:52:26.000Z</Time>
            <Position>
              <LatitudeDegrees>44.80015103705227375030517578125</LatitudeDegrees>
              <LongitudeDegrees>-0.6601420976221561431884765625</LongitudeDegrees>
            </Position>
            <AltitudeMeters>40.40000152587890625</AltitudeMeters>
            <DistanceMeters>19049.962311222</DistanceMeters>
          </Trackpoint>
          <Trackpoint>
            <Time>2022-07-04T09:52:30.000Z</Time>
            <Position>
              <LatitudeDegrees>44.8001031763851642608642578125</LatitudeDegrees>
              <LongitudeDegrees>-0.66029540263116359710693359375</LongitudeDegrees>
            </Position>
            <AltitudeMeters>40.200000762939453125</AltitudeMeters>
            <DistanceMeters>19063.189811409</DistanceMeters>
          </Trackpoint>
          <Trackpoint>
            <Time>2022-07-04T09:52:32.000Z</Time>
            <Position>
              <LatitudeDegrees>44.8000736720860004425048828125</LatitudeDegrees>
              <LongitudeDegrees>-0.66035508178174495697021484375</LongitudeDegrees>
            </Position>
            <AltitudeMeters>40.200000762939453125</AltitudeMeters>
            <DistanceMeters>19068.934017126</DistanceMeters>
          </Trackpoint>
          <Trackpoint>
            <Time>2022-07-04T09:52:38.000Z</Time>
            <Position>
              <LatitudeDegrees>44.79994500987231731414794921875</LatitudeDegrees>
              <LongitudeDegrees>-0.6604497134685516357421875</LongitudeDegrees>
            </Position>
            <AltitudeMeters>40.40000152587890625</AltitudeMeters>
            <DistanceMeters>19085.08688154</DistanceMeters>
          </Trackpoint>
          <Trackpoint>
            <Time>2022-07-04T09:52:42.000Z</Time>
            <Position>
              <LatitudeDegrees>44.799925982952117919921875</LatitudeDegrees>
              <LongitudeDegrees>-0.6604971550405025482177734375</LongitudeDegrees>
            </Position>
            <AltitudeMeters>40.40000152587890625</AltitudeMeters>
            <DistanceMeters>19089.391497303</DistanceMeters>
          </Trackpoint>
          <Trackpoint>
            <Time>2022-07-04T09:52:45.000Z</Time>
            <Position>
              <LatitudeDegrees>44.7999244742095470428466796875</LatitudeDegrees>
              <LongitudeDegrees>-0.66049975343048572540283203125</LongitudeDegrees>
            </Position>
            <AltitudeMeters>40.40000152587890625</AltitudeMeters>
            <DistanceMeters>19089.676577446</DistanceMeters>
          </Trackpoint>
          <Trackpoint>
            <Time>2022-07-04T09:53:04.000Z</Time>
            <Position>
              <LatitudeDegrees>44.7999331913888454437255859375</LatitudeDegrees>
              <LongitudeDegrees>-0.6605722568929195404052734375</LongitudeDegrees>
            </Position>
            <AltitudeMeters>40.59999847412109375</AltitudeMeters>
            <DistanceMeters>19095.483323991</DistanceMeters>
          </Trackpoint>
          <Trackpoint>
            <Time>2022-07-04T09:53:05.000Z</Time>
            <Position>
              <LatitudeDegrees>44.79993444867432117462158203125</LatitudeDegrees>
              <LongitudeDegrees>-0.66060804761946201324462890625</LongitudeDegrees>
            </Position>
            <AltitudeMeters>40.59999847412109375</AltitudeMeters>
            <DistanceMeters>19098.315056302</DistanceMeters>
          </Trackpoint>
          <Trackpoint>
            <Time>2022-07-04T09:53:11.000Z</Time>
            <Position>
              <LatitudeDegrees>44.7999085485935211181640625</LatitudeDegrees>
              <LongitudeDegrees>-0.66085405647754669189453125</LongitudeDegrees>
            </Position>
            <AltitudeMeters>41.200000762939453125</AltitudeMeters>
            <DistanceMeters>19117.95687358</DistanceMeters>
          </Trackpoint>
          <Trackpoint>
            <Time>2022-07-04T09:53:18.000Z</Time>
            <Position>
              <LatitudeDegrees>44.7998658008873462677001953125</LatitudeDegrees>
              <LongitudeDegrees>-0.661108195781707763671875</LongitudeDegrees>
            </Position>
            <AltitudeMeters>41.200000762939453125</AltitudeMeters>
            <DistanceMeters>19138.584019333</DistanceMeters>
          </Trackpoint>
          <Trackpoint>
            <Time>2022-07-04T09:53:24.000Z</Time>
            <Position>
              <LatitudeDegrees>44.799856245517730712890625</LatitudeDegrees>
              <LongitudeDegrees>-0.66129888407886028289794921875</LongitudeDegrees>
            </Position>
            <AltitudeMeters>41.200000762939453125</AltitudeMeters>
            <DistanceMeters>19153.6816082</DistanceMeters>
          </Trackpoint>
          <Trackpoint>
            <Time>2022-07-04T09:53:30.000Z</Time>
            <Position>
              <LatitudeDegrees>44.7998560778796672821044921875</LatitudeDegrees>
              <LongitudeDegrees>-0.66152402199804782867431640625</LongitudeDegrees>
            </Position>
            <AltitudeMeters>41.40000152587890625</AltitudeMeters>
            <DistanceMeters>19171.462272034</DistanceMeters>
          </Trackpoint>
          <Trackpoint>
            <Time>2022-07-04T09:53:34.000Z</Time>
            <Position>
              <LatitudeDegrees>44.79981877841055393218994140625</LatitudeDegrees>
              <LongitudeDegrees>-0.6616808474063873291015625</LongitudeDegrees>
            </Position>
            <AltitudeMeters>41.40000152587890625</AltitudeMeters>
            <DistanceMeters>19184.524902875</DistanceMeters>
          </Trackpoint>
          <Trackpoint>
            <Time>2022-07-04T09:53:37.000Z</Time>
            <Position>
              <LatitudeDegrees>44.799791537225246429443359375</LatitudeDegrees>
              <LongitudeDegrees>-0.661785788834095001220703125</LongitudeDegrees>
            </Position>
            <AltitudeMeters>41.40000152587890625</AltitudeMeters>
            <DistanceMeters>19193.350628874</DistanceMeters>
          </Trackpoint>
          <Trackpoint>
            <Time>2022-07-04T09:53:38.000Z</Time>
            <Position>
              <LatitudeDegrees>44.79977670125663280487060546875</LatitudeDegrees>
              <LongitudeDegrees>-0.66182292066514492034912109375</LongitudeDegrees>
            </Position>
            <AltitudeMeters>41.40000152587890625</AltitudeMeters>
            <DistanceMeters>19196.718384211</DistanceMeters>
          </Trackpoint>
          <Trackpoint>
            <Time>2022-07-04T09:53:46.000Z</Time>
            <Position>
              <LatitudeDegrees>44.7996552474796772003173828125</LatitudeDegrees>
              <LongitudeDegrees>-0.66216909326612949371337890625</LongitudeDegrees>
            </Position>
            <AltitudeMeters>41.799999237060546875</AltitudeMeters>
            <DistanceMeters>19227.2175187</DistanceMeters>
          </Trackpoint>
          <Trackpoint>
            <Time>2022-07-04T09:53:51.000Z</Time>
            <Position>
              <LatitudeDegrees>44.79958333075046539306640625</LatitudeDegrees>
              <LongitudeDegrees>-0.6624132581055164337158203125</LongitudeDegrees>
            </Position>
            <AltitudeMeters>42</AltitudeMeters>
            <DistanceMeters>19248.096598431</DistanceMeters>
          </Trackpoint>
          <Trackpoint>
            <Time>2022-07-04T09:53:55.000Z</Time>
            <Position>
              <LatitudeDegrees>44.7995432652533054351806640625</LatitudeDegrees>
              <LongitudeDegrees>-0.6625865958631038665771484375</LongitudeDegrees>
            </Position>
            <AltitudeMeters>41.799999237060546875</AltitudeMeters>
            <DistanceMeters>19262.494321683</DistanceMeters>
          </Trackpoint>
          <Trackpoint>
            <Time>2022-07-04T09:54:03.000Z</Time>
            <Position>
              <LatitudeDegrees>44.79943270795047283172607421875</LatitudeDegrees>
              <LongitudeDegrees>-0.66285154782235622406005859375</LongitudeDegrees>
            </Position>
            <AltitudeMeters>41.799999237060546875</AltitudeMeters>
            <DistanceMeters>19286.769509192</DistanceMeters>
          </Trackpoint>
          <Trackpoint>
            <Time>2022-07-04T09:54:09.000Z</Time>
            <Position>
              <LatitudeDegrees>44.79936984367668628692626953125</LatitudeDegrees>
              <LongitudeDegrees>-0.66300124861299991607666015625</LongitudeDegrees>
            </Position>
            <AltitudeMeters>41.59999847412109375</AltitudeMeters>
            <DistanceMeters>19300.508019221</DistanceMeters>
          </Trackpoint>
          <Trackpoint>
            <Time>2022-07-04T09:54:10.000Z</Time>
            <Position>
              <LatitudeDegrees>44.7993578575551509857177734375</LatitudeDegrees>
              <LongitudeDegrees>-0.66301248036324977874755859375</LongitudeDegrees>
            </Position>
            <AltitudeMeters>41.59999847412109375</AltitudeMeters>
            <DistanceMeters>19302.109437877</DistanceMeters>
          </Trackpoint>
          <Trackpoint>
            <Time>2022-07-04T09:54:11.000Z</Time>
            <Position>
              <LatitudeDegrees>44.79934385977685451507568359375</LatitudeDegrees>
              <LongitudeDegrees>-0.663019604980945587158203125</LongitudeDegrees>
            </Position>
            <AltitudeMeters>41.59999847412109375</AltitudeMeters>
            <DistanceMeters>19303.766285256</DistanceMeters>
          </Trackpoint>
          <Trackpoint>
            <Time>2022-07-04T09:54:15.000Z</Time>
            <Position>
              <LatitudeDegrees>44.7992619685828685760498046875</LatitudeDegrees>
              <LongitudeDegrees>-0.66297844983637332916259765625</LongitudeDegrees>
            </Position>
            <AltitudeMeters>41.59999847412109375</AltitudeMeters>
            <DistanceMeters>19313.443159376</DistanceMeters>
          </Trackpoint>
          <Trackpoint>
            <Time>2022-07-04T09:54:17.000Z</Time>
            <Position>
              <LatitudeDegrees>44.79922047816216945648193359375</LatitudeDegrees>
              <LongitudeDegrees>-0.66295246593654155731201171875</LongitudeDegrees>
            </Position>
            <AltitudeMeters>41.59999847412109375</AltitudeMeters>
            <DistanceMeters>19318.495686081</DistanceMeters>
          </Trackpoint>
          <Trackpoint>
            <Time>2022-07-04T09:54:20.000Z</Time>
            <Position>
              <LatitudeDegrees>44.79917253367602825164794921875</LatitudeDegrees>
              <LongitudeDegrees>-0.6629721634089946746826171875</LongitudeDegrees>
            </Position>
            <AltitudeMeters>41.59999847412109375</AltitudeMeters>
            <DistanceMeters>19324.053733536</DistanceMeters>
          </Trackpoint>
          <Trackpoint>
            <Time>2022-07-04T09:54:27.000Z</Time>
            <Position>
              <LatitudeDegrees>44.79902283288538455963134765625</LatitudeDegrees>
              <LongitudeDegrees>-0.66295430995523929595947265625</LongitudeDegrees>
            </Position>
            <AltitudeMeters>41.59999847412109375</AltitudeMeters>
            <DistanceMeters>19340.775195404</DistanceMeters>
          </Trackpoint>
          <Trackpoint>
            <Time>2022-07-04T09:54:28.000Z</Time>
            <Position>
              <LatitudeDegrees>44.7990028001368045806884765625</LatitudeDegrees>
              <LongitudeDegrees>-0.66297174431383609771728515625</LongitudeDegrees>
            </Position>
            <AltitudeMeters>41.59999847412109375</AltitudeMeters>
            <DistanceMeters>19343.396624056</DistanceMeters>
          </Trackpoint>
          <Trackpoint>
            <Time>2022-07-04T09:54:29.000Z</Time>
            <Position>
              <LatitudeDegrees>44.79898863472044467926025390625</LatitudeDegrees>
              <LongitudeDegrees>-0.66299973987042903900146484375</LongitudeDegrees>
            </Position>
            <AltitudeMeters>41.59999847412109375</AltitudeMeters>
            <DistanceMeters>19346.112792764</DistanceMeters>
          </Trackpoint>
          <Trackpoint>
            <Time>2022-07-04T09:54:33.000Z</Time>
            <Position>
              <LatitudeDegrees>44.7989598847925662994384765625</LatitudeDegrees>
              <LongitudeDegrees>-0.66314206458628177642822265625</LongitudeDegrees>
            </Position>
            <AltitudeMeters>41.59999847412109375</AltitudeMeters>
            <DistanceMeters>19357.800306032</DistanceMeters>
          </Trackpoint>
          <Trackpoint>
            <Time>2022-07-04T09:54:35.000Z</Time>
            <Position>
              <LatitudeDegrees>44.79893767274916172027587890625</LatitudeDegrees>
              <LongitudeDegrees>-0.663208030164241790771484375</LongitudeDegrees>
            </Position>
            <AltitudeMeters>41.59999847412109375</AltitudeMeters>
            <DistanceMeters>19363.567261168</DistanceMeters>
          </Trackpoint>
          <Trackpoint>
            <Time>2022-07-04T09:54:37.000Z</Time>
            <Position>
              <LatitudeDegrees>44.79889727197587490081787109375</LatitudeDegrees>
              <LongitudeDegrees>-0.66324063576757907867431640625</LongitudeDegrees>
            </Position>
            <AltitudeMeters>41.59999847412109375</AltitudeMeters>
            <DistanceMeters>19368.749485337</DistanceMeters>
          </Trackpoint>
          <Trackpoint>
            <Time>2022-07-04T09:54:42.000Z</Time>
            <Position>
              <LatitudeDegrees>44.79877321980893611907958984375</LatitudeDegrees>
              <LongitudeDegrees>-0.66322722472250461578369140625</LongitudeDegrees>
            </Position>
            <AltitudeMeters>41.59999847412109375</AltitudeMeters>
            <DistanceMeters>19382.597326446</DistanceMeters>
          </Trackpoint>
          <Trackpoint>
            <Time>2022-07-04T09:54:49.000Z</Time>
            <Position>
              <LatitudeDegrees>44.7986264526844024658203125</LatitudeDegrees>
              <LongitudeDegrees>-0.66326393745839595794677734375</LongitudeDegrees>
            </Position>
            <AltitudeMeters>41.799999237060546875</AltitudeMeters>
            <DistanceMeters>19399.188130832</DistanceMeters>
          </Trackpoint>
          <Trackpoint>
            <Time>2022-07-04T09:54:53.000Z</Time>
            <Position>
              <LatitudeDegrees>44.7985629178583621978759765625</LatitudeDegrees>
              <LongitudeDegrees>-0.6632916815578937530517578125</LongitudeDegrees>
            </Position>
            <AltitudeMeters>41.799999237060546875</AltitudeMeters>
            <DistanceMeters>19406.591681602</DistanceMeters>
          </Trackpoint>
          <Trackpoint>
            <Time>2022-07-04T09:54:54.000Z</Time>
            <Position>
              <LatitudeDegrees>44.7985521890223026275634765625</LatitudeDegrees>
              <LongitudeDegrees>-0.66329620778560638427734375</LongitudeDegrees>
            </Position>
            <AltitudeMeters>41.799999237060546875</AltitudeMeters>
            <DistanceMeters>19407.841562887</DistanceMeters>
          </Trackpoint>
          <Trackpoint>
            <Time>2022-07-04T09:54:55.000Z</Time>
            <Position>
              <LatitudeDegrees>44.798539616167545318603515625</LatitudeDegrees>
              <LongitudeDegrees>-0.663294531404972076416015625</LongitudeDegrees>
            </Position>
            <AltitudeMeters>41.799999237060546875</AltitudeMeters>
            <DistanceMeters>19409.251036837</DistanceMeters>
          </Trackpoint>
          <Trackpoint>
            <Time>2022-07-04T09:54:58.000Z</Time>
            <Position>
              <LatitudeDegrees>44.7984891571104526519775390625</LatitudeDegrees>
              <LongitudeDegrees>-0.66326946951448917388916015625</LongitudeDegrees>
            </Position>
            <AltitudeMeters>41.799999237060546875</AltitudeMeters>
            <DistanceMeters>19415.205960027</DistanceMeters>
          </Trackpoint>
          <Trackpoint>
            <Time>2022-07-04T09:54:59.000Z</Time>
            <Position>
              <LatitudeDegrees>44.7984816133975982666015625</LatitudeDegrees>
              <LongitudeDegrees>-0.663250274956226348876953125</LongitudeDegrees>
            </Position>
            <AltitudeMeters>41.799999237060546875</AltitudeMeters>
            <DistanceMeters>19416.937429166</DistanceMeters>
          </Trackpoint>
          <Trackpoint>
            <Time>2022-07-04T09:55:03.000Z</Time>
            <Position>
              <LatitudeDegrees>44.79841833002865314483642578125</LatitudeDegrees>
              <LongitudeDegrees>-0.66316436044871807098388671875</LongitudeDegrees>
            </Position>
            <AltitudeMeters>41.799999237060546875</AltitudeMeters>
            <DistanceMeters>19426.718258878</DistanceMeters>
          </Trackpoint>
          <Trackpoint>
            <Time>2022-07-04T09:55:04.000Z</Time>
            <Position>
              <LatitudeDegrees>44.798398800194263458251953125</LatitudeDegrees>
              <LongitudeDegrees>-0.663142316043376922607421875</LongitudeDegrees>
            </Position>
            <AltitudeMeters>41.799999237060546875</AltitudeMeters>
            <DistanceMeters>19429.504989173</DistanceMeters>
          </Trackpoint>
          <Trackpoint>
            <Time>2022-07-04T09:55:05.000Z</Time>
            <Position>
              <LatitudeDegrees>44.79838036000728607177734375</LatitudeDegrees>
              <LongitudeDegrees>-0.6631341017782688140869140625</LongitudeDegrees>
            </Position>
            <AltitudeMeters>41.799999237060546875</AltitudeMeters>
            <DistanceMeters>19431.659393799</DistanceMeters>
          </Trackpoint>
          <Trackpoint>
            <Time>2022-07-04T09:55:08.000Z</Time>
            <Position>
              <LatitudeDegrees>44.79832579381763935089111328125</LatitudeDegrees>
              <LongitudeDegrees>-0.66313887946307659149169921875</LongitudeDegrees>
            </Position>
            <AltitudeMeters>41.799999237060546875</AltitudeMeters>
            <DistanceMeters>19437.744814368</DistanceMeters>
          </Trackpoint>
          <Trackpoint>
            <Time>2022-07-04T09:55:09.000Z</Time>
            <Position>
              <LatitudeDegrees>44.79831322096288204193115234375</LatitudeDegrees>
              <LongitudeDegrees>-0.66315061412751674652099609375</LongitudeDegrees>
            </Position>
            <AltitudeMeters>41.799999237060546875</AltitudeMeters>
            <DistanceMeters>19439.423320802</DistanceMeters>
          </Trackpoint>
          <Trackpoint>
            <Time>2022-07-04T09:55:13.000Z</Time>
            <Position>
              <LatitudeDegrees>44.79831506498157978057861328125</LatitudeDegrees>
              <LongitudeDegrees>-0.66316075623035430908203125</LongitudeDegrees>
            </Position>
            <AltitudeMeters>42</AltitudeMeters>
            <DistanceMeters>19440.251744492</DistanceMeters>
          </Trackpoint>
          <Trackpoint>
            <Time>2022-07-04T09:55:23.000Z</Time>
            <Position>
              <LatitudeDegrees>44.79835127480328083038330078125</LatitudeDegrees>
              <LongitudeDegrees>-0.6631314195692539215087890625</LongitudeDegrees>
            </Position>
            <AltitudeMeters>41.799999237060546875</AltitudeMeters>
            <DistanceMeters>19444.901260919</DistanceMeters>
          </Trackpoint>
          <Trackpoint>
            <Time>2022-07-04T09:55:25.000Z</Time>
            <Position>
              <LatitudeDegrees>44.7983728162944316864013671875</LatitudeDegrees>
              <LongitudeDegrees>-0.6631334312260150909423828125</LongitudeDegrees>
            </Position>
            <AltitudeMeters>41.799999237060546875</AltitudeMeters>
            <DistanceMeters>19447.305267767</DistanceMeters>
          </Trackpoint>
          <Trackpoint>
            <Time>2022-07-04T09:55:26.000Z</Time>
            <Position>
              <LatitudeDegrees>44.79838664643466472625732421875</LatitudeDegrees>
              <LongitudeDegrees>-0.66314726136624813079833984375</LongitudeDegrees>
            </Position>
            <AltitudeMeters>41.799999237060546875</AltitudeMeters>
            <DistanceMeters>19449.19149419</DistanceMeters>
          </Trackpoint>
          <Trackpoint>
            <Time>2022-07-04T09:55:30.000Z</Time>
            <Position>
              <LatitudeDegrees>44.7984643466770648956298828125</LatitudeDegrees>
              <LongitudeDegrees>-0.66325463354587554931640625</LongitudeDegrees>
            </Position>
            <AltitudeMeters>41.799999237060546875</AltitudeMeters>
            <DistanceMeters>19461.303952734</DistanceMeters>
          </Trackpoint>
          <Trackpoint>
            <Time>2022-07-04T09:55:36.000Z</Time>
            <Position>
              <LatitudeDegrees>44.79853131808340549468994140625</LatitudeDegrees>
              <LongitudeDegrees>-0.6634043343365192413330078125</LongitudeDegrees>
            </Position>
            <AltitudeMeters>42</AltitudeMeters>
            <DistanceMeters>19475.280634877</DistanceMeters>
          </Trackpoint>
          <Trackpoint>
            <Time>2022-07-04T09:55:41.000Z</Time>
            <Position>
              <LatitudeDegrees>44.79857641272246837615966796875</LatitudeDegrees>
              <LongitudeDegrees>-0.663560740649700164794921875</LongitudeDegrees>
            </Position>
            <AltitudeMeters>42</AltitudeMeters>
            <DistanceMeters>19488.61420698</DistanceMeters>
          </Trackpoint>
          <Trackpoint>
            <Time>2022-07-04T09:55:42.000Z</Time>
            <Position>
              <LatitudeDegrees>44.798577167093753814697265625</LatitudeDegrees>
              <LongitudeDegrees>-0.66358161158859729766845703125</LongitudeDegrees>
            </Position>
            <AltitudeMeters>42</AltitudeMeters>
            <DistanceMeters>19490.26559521</DistanceMeters>
          </Trackpoint>
          <Trackpoint>
            <Time>2022-07-04T09:55:44.000Z</Time>
            <Position>
              <LatitudeDegrees>44.7985729761421680450439453125</LatitudeDegrees>
              <LongitudeDegrees>-0.66362075507640838623046875</LongitudeDegrees>
            </Position>
            <AltitudeMeters>41.799999237060546875</AltitudeMeters>
            <DistanceMeters>19493.391381945</DistanceMeters>
          </Trackpoint>
          <Trackpoint>
            <Time>2022-07-04T09:55:45.000Z</Time>
            <Position>
              <LatitudeDegrees>44.79857574217021465301513671875</LatitudeDegrees>
              <LongitudeDegrees>-0.663646571338176727294921875</LongitudeDegrees>
            </Position>
            <AltitudeMeters>41.799999237060546875</AltitudeMeters>
            <DistanceMeters>19495.45151202</DistanceMeters>
          </Trackpoint>
          <Trackpoint>
            <Time>2022-07-04T09:55:51.000Z</Time>
            <Position>
              <LatitudeDegrees>44.79853316210210323333740234375</LatitudeDegrees>
              <LongitudeDegrees>-0.66383575089275836944580078125</LongitudeDegrees>
            </Position>
            <AltitudeMeters>41.799999237060546875</AltitudeMeters>
            <DistanceMeters>19511.1265999</DistanceMeters>
          </Trackpoint>
          <Trackpoint>
            <Time>2022-07-04T09:55:58.000Z</Time>
            <Position>
              <LatitudeDegrees>44.7983885742723941802978515625</LatitudeDegrees>
              <LongitudeDegrees>-0.66403859294950962066650390625</LongitudeDegrees>
            </Position>
            <AltitudeMeters>42</AltitudeMeters>
            <DistanceMeters>19533.834207108</DistanceMeters>
          </Trackpoint>
          <Trackpoint>
            <Time>2022-07-04T09:56:01.000Z</Time>
            <Position>
              <LatitudeDegrees>44.79832763783633708953857421875</LatitudeDegrees>
              <LongitudeDegrees>-0.6641245074570178985595703125</LongitudeDegrees>
            </Position>
            <AltitudeMeters>41.799999237060546875</AltitudeMeters>
            <DistanceMeters>19543.427670462</DistanceMeters>
          </Trackpoint>
          <Trackpoint>
            <Time>2022-07-04T09:56:05.000Z</Time>
            <Position>
              <LatitudeDegrees>44.79825538583099842071533203125</LatitudeDegrees>
              <LongitudeDegrees>-0.66421159543097019195556640625</LongitudeDegrees>
            </Position>
            <AltitudeMeters>41.59999847412109375</AltitudeMeters>
            <DistanceMeters>19554.009824211</DistanceMeters>
          </Trackpoint>
          <Trackpoint>
            <Time>2022-07-04T09:56:06.000Z</Time>
            <Position>
              <LatitudeDegrees>44.798242561519145965576171875</LatitudeDegrees>
              <LongitudeDegrees>-0.66421209834516048431396484375</LongitudeDegrees>
            </Position>
            <AltitudeMeters>41.59999847412109375</AltitudeMeters>
            <DistanceMeters>19555.438388972</DistanceMeters>
          </Trackpoint>
          <Trackpoint>
            <Time>2022-07-04T09:56:07.000Z</Time>
            <Position>
              <LatitudeDegrees>44.79822822846472263336181640625</LatitudeDegrees>
              <LongitudeDegrees>-0.6642101705074310302734375</LongitudeDegrees>
            </Position>
            <AltitudeMeters>41.59999847412109375</AltitudeMeters>
            <DistanceMeters>19557.042624549</DistanceMeters>
          </Trackpoint>
          <Trackpoint>
            <Time>2022-07-04T09:56:09.000Z</Time>
            <Position>
              <LatitudeDegrees>44.79820341803133487701416015625</LatitudeDegrees>
              <LongitudeDegrees>-0.664233304560184478759765625</LongitudeDegrees>
            </Position>
            <AltitudeMeters>41.59999847412109375</AltitudeMeters>
            <DistanceMeters>19560.354956489</DistanceMeters>
          </Trackpoint>
          <Trackpoint>
            <Time>2022-07-04T09:56:10.000Z</Time>
            <Position>
              <LatitudeDegrees>44.79819956235587596893310546875</LatitudeDegrees>
              <LongitudeDegrees>-0.66425920464098453521728515625</LongitudeDegrees>
            </Position>
            <AltitudeMeters>41.59999847412109375</AltitudeMeters>
            <DistanceMeters>19562.445544205</DistanceMeters>
          </Trackpoint>
          <Trackpoint>
            <Time>2022-07-04T09:56:16.000Z</Time>
            <Position>
              <LatitudeDegrees>44.79824046604335308074951171875</LatitudeDegrees>
              <LongitudeDegrees>-0.66440722905099391937255859375</LongitudeDegrees>
            </Position>
            <AltitudeMeters>42</AltitudeMeters>
            <DistanceMeters>19574.991230014</DistanceMeters>
          </Trackpoint>
          <Trackpoint>
            <Time>2022-07-04T09:56:17.000Z</Time>
            <Position>
              <LatitudeDegrees>44.79824767448008060455322265625</LatitudeDegrees>
              <LongitudeDegrees>-0.664439834654331207275390625</LongitudeDegrees>
            </Position>
            <AltitudeMeters>42.200000762939453125</AltitudeMeters>
            <DistanceMeters>19577.685702404</DistanceMeters>
          </Trackpoint>
          <Trackpoint>
            <Time>2022-07-04T09:56:19.000Z</Time>
            <Position>
              <LatitudeDegrees>44.79823225177824497222900390625</LatitudeDegrees>
              <LongitudeDegrees>-0.66450865007936954498291015625</LongitudeDegrees>
            </Position>
            <AltitudeMeters>42.200000762939453125</AltitudeMeters>
            <DistanceMeters>19583.385721268</DistanceMeters>
          </Trackpoint>
          <Trackpoint>
            <Time>2022-07-04T09:56:22.000Z</Time>
            <Position>
              <LatitudeDegrees>44.798181541264057159423828125</LatitudeDegrees>
              <LongitudeDegrees>-0.66459171473979949951171875</LongitudeDegrees>
            </Position>
            <AltitudeMeters>42.200000762939453125</AltitudeMeters>
            <DistanceMeters>19592.039937236</DistanceMeters>
          </Trackpoint>
          <Trackpoint>
            <Time>2022-07-04T09:56:24.000Z</Time>
            <Position>
              <LatitudeDegrees>44.7981481812894344329833984375</LatitudeDegrees>
              <LongitudeDegrees>-0.66463756375014781951904296875</LongitudeDegrees>
            </Position>
            <AltitudeMeters>42.200000762939453125</AltitudeMeters>
            <DistanceMeters>19597.225645254</DistanceMeters>
          </Trackpoint>
          <Trackpoint>
            <Time>2022-07-04T09:56:30.000Z</Time>
            <Position>
              <LatitudeDegrees>44.798019267618656158447265625</LatitudeDegrees>
              <LongitudeDegrees>-0.66480738110840320587158203125</LongitudeDegrees>
            </Position>
            <AltitudeMeters>42.200000762939453125</AltitudeMeters>
            <DistanceMeters>19616.866313156</DistanceMeters>
          </Trackpoint>
          <Trackpoint>
            <Time>2022-07-04T09:56:32.000Z</Time>
            <Position>
              <LatitudeDegrees>44.79796453379094600677490234375</LatitudeDegrees>
              <LongitudeDegrees>-0.6648718379437923431396484375</LongitudeDegrees>
            </Position>
            <AltitudeMeters>42.40000152587890625</AltitudeMeters>
            <DistanceMeters>19624.805452503</DistanceMeters>
          </Trackpoint>
          <Trackpoint>
            <Time>2022-07-04T09:56:41.000Z</Time>
            <Position>
              <LatitudeDegrees>44.79771760292351245880126953125</LatitudeDegrees>
              <LongitudeDegrees>-0.665176771581172943115234375</LongitudeDegrees>
            </Position>
            <AltitudeMeters>42.200000762939453125</AltitudeMeters>
            <DistanceMeters>19661.348382937</DistanceMeters>
          </Trackpoint>
          <Trackpoint>
            <Time>2022-07-04T09:56:45.000Z</Time>
            <Position>
              <LatitudeDegrees>44.797602184116840362548828125</LatitudeDegrees>
              <LongitudeDegrees>-0.66531322896480560302734375</LongitudeDegrees>
            </Position>
            <AltitudeMeters>42</AltitudeMeters>
            <DistanceMeters>19678.11676152</DistanceMeters>
          </Trackpoint>
          <Trackpoint>
            <Time>2022-07-04T09:56:48.000Z</Time>
            <Position>
              <LatitudeDegrees>44.79752347804605960845947265625</LatitudeDegrees>
              <LongitudeDegrees>-0.66544675268232822418212890625</LongitudeDegrees>
            </Position>
            <AltitudeMeters>42.200000762939453125</AltitudeMeters>
            <DistanceMeters>19691.826649966</DistanceMeters>
          </Trackpoint>
          <Trackpoint>
            <Time>2022-07-04T09:56:54.000Z</Time>
            <Position>
              <LatitudeDegrees>44.7973475418984889984130859375</LatitudeDegrees>
              <LongitudeDegrees>-0.665646158158779144287109375</LongitudeDegrees>
            </Position>
            <AltitudeMeters>42</AltitudeMeters>
            <DistanceMeters>19716.956140726</DistanceMeters>
          </Trackpoint>
          <Trackpoint>
            <Time>2022-07-04T09:57:00.000Z</Time>
            <Position>
              <LatitudeDegrees>44.79715769179165363311767578125</LatitudeDegrees>
              <LongitudeDegrees>-0.665882527828216552734375</LongitudeDegrees>
            </Position>
            <AltitudeMeters>42</AltitudeMeters>
            <DistanceMeters>19745.152185842</DistanceMeters>
          </Trackpoint>
          <Trackpoint>
            <Time>2022-07-04T09:57:05.000Z</Time>
            <Position>
              <LatitudeDegrees>44.7970213182270526885986328125</LatitudeDegrees>
              <LongitudeDegrees>-0.66606734879314899444580078125</LongitudeDegrees>
            </Position>
            <AltitudeMeters>42</AltitudeMeters>
            <DistanceMeters>19766.211057708</DistanceMeters>
          </Trackpoint>
          <Trackpoint>
            <Time>2022-07-04T09:57:12.000Z</Time>
            <Position>
              <LatitudeDegrees>44.79683674871921539306640625</LatitudeDegrees>
              <LongitudeDegrees>-0.66632484085857868194580078125</LongitudeDegrees>
            </Position>
            <AltitudeMeters>42.200000762939453125</AltitudeMeters>
            <DistanceMeters>19795.117928064</DistanceMeters>
          </Trackpoint>
          <Trackpoint>
            <Time>2022-07-04T09:57:22.000Z</Time>
            <Position>
              <LatitudeDegrees>44.7965670190751552581787109375</LatitudeDegrees>
              <LongitudeDegrees>-0.66667319275438785552978515625</LongitudeDegrees>
            </Position>
            <AltitudeMeters>42.200000762939453125</AltitudeMeters>
            <DistanceMeters>19835.839730309</DistanceMeters>
          </Trackpoint>
          <Trackpoint>
            <Time>2022-07-04T09:57:31.000Z</Time>
            <Position>
              <LatitudeDegrees>44.79633341543376445770263671875</LatitudeDegrees>
              <LongitudeDegrees>-0.66695365123450756072998046875</LongitudeDegrees>
            </Position>
            <AltitudeMeters>42</AltitudeMeters>
            <DistanceMeters>19869.99664625</DistanceMeters>
          </Trackpoint>
          <Trackpoint>
            <Time>2022-07-04T09:57:32.000Z</Time>
            <Position>
              <LatitudeDegrees>44.79630625806748867034912109375</LatitudeDegrees>
              <LongitudeDegrees>-0.6669887714087963104248046875</LongitudeDegrees>
            </Position>
            <AltitudeMeters>41.799999237060546875</AltitudeMeters>
            <DistanceMeters>19874.099335916</DistanceMeters>
          </Trackpoint>
          <Trackpoint>
            <Time>2022-07-04T09:57:33.000Z</Time>
            <Position>
              <LatitudeDegrees>44.7962813638150691986083984375</LatitudeDegrees>
              <LongitudeDegrees>-0.66702313721179962158203125</LongitudeDegrees>
            </Position>
            <AltitudeMeters>41.799999237060546875</AltitudeMeters>
            <DistanceMeters>19877.978009317</DistanceMeters>
          </Trackpoint>
          <Trackpoint>
            <Time>2022-07-04T09:57:42.000Z</Time>
            <Position>
              <LatitudeDegrees>44.79605195112526416778564453125</LatitudeDegrees>
              <LongitudeDegrees>-0.66732362844049930572509765625</LongitudeDegrees>
            </Position>
            <AltitudeMeters>41.59999847412109375</AltitudeMeters>
            <DistanceMeters>19912.838440004</DistanceMeters>
          </Trackpoint>
          <Trackpoint>
            <Time>2022-07-04T09:57:45.000Z</Time>
            <Position>
              <LatitudeDegrees>44.795972406864166259765625</LatitudeDegrees>
              <LongitudeDegrees>-0.66742236725986003875732421875</LongitudeDegrees>
            </Position>
            <AltitudeMeters>41.799999237060546875</AltitudeMeters>
            <DistanceMeters>19924.636686839</DistanceMeters>
          </Trackpoint>
          <Trackpoint>
            <Time>2022-07-04T09:57:52.000Z</Time>
            <Position>
              <LatitudeDegrees>44.7958082892000675201416015625</LatitudeDegrees>
              <LongitudeDegrees>-0.66763677634298801422119140625</LongitudeDegrees>
            </Position>
            <AltitudeMeters>42.200000762939453125</AltitudeMeters>
            <DistanceMeters>19949.545289617</DistanceMeters>
          </Trackpoint>
          <Trackpoint>
            <Time>2022-07-04T09:57:57.000Z</Time>
            <Position>
              <LatitudeDegrees>44.79568230919539928436279296875</LatitudeDegrees>
              <LongitudeDegrees>-0.66778731532394886016845703125</LongitudeDegrees>
            </Position>
            <AltitudeMeters>42.200000762939453125</AltitudeMeters>
            <DistanceMeters>19967.929459468</DistanceMeters>
          </Trackpoint>
          <Trackpoint>
            <Time>2022-07-04T09:58:01.000Z</Time>
            <Position>
              <LatitudeDegrees>44.79558390565216541290283203125</LatitudeDegrees>
              <LongitudeDegrees>-0.66793299280107021331787109375</LongitudeDegrees>
            </Position>
            <AltitudeMeters>42</AltitudeMeters>
            <DistanceMeters>19983.814845401</DistanceMeters>
          </Trackpoint>
          <Trackpoint>
            <Time>2022-07-04T09:58:05.000Z</Time>
            <Position>
              <LatitudeDegrees>44.795469157397747039794921875</LatitudeDegrees>
              <LongitudeDegrees>-0.6680995412170886993408203125</LongitudeDegrees>
            </Position>
            <AltitudeMeters>42.200000762939453125</AltitudeMeters>
            <DistanceMeters>20002.149338187</DistanceMeters>
          </Trackpoint>
          <Trackpoint>
            <Time>2022-07-04T09:58:07.000Z</Time>
            <Position>
              <LatitudeDegrees>44.79540704749524593353271484375</LatitudeDegrees>
              <LongitudeDegrees>-0.66817154176533222198486328125</LongitudeDegrees>
            </Position>
            <AltitudeMeters>42.200000762939453125</AltitudeMeters>
            <DistanceMeters>20011.100531866</DistanceMeters>
          </Trackpoint>
          <Trackpoint>
            <Time>2022-07-04T09:58:09.000Z</Time>
            <Position>
              <LatitudeDegrees>44.79534049518406391143798828125</LatitudeDegrees>
              <LongitudeDegrees>-0.668253265321254730224609375</LongitudeDegrees>
            </Position>
            <AltitudeMeters>42.40000152587890625</AltitudeMeters>
            <DistanceMeters>20020.92557727</DistanceMeters>
          </Trackpoint>
          <Trackpoint>
            <Time>2022-07-04T09:58:16.000Z</Time>
            <Position>
              <LatitudeDegrees>44.79515927843749523162841796875</LatitudeDegrees>
              <LongitudeDegrees>-0.6684820912778377532958984375</LongitudeDegrees>
            </Position>
            <AltitudeMeters>42.59999847412109375</AltitudeMeters>
            <DistanceMeters>20048.008024151</DistanceMeters>
          </Trackpoint>
          <Trackpoint>
            <Time>2022-07-04T09:58:20.000Z</Time>
            <Position>
              <LatitudeDegrees>44.795062802731990814208984375</LatitudeDegrees>
              <LongitudeDegrees>-0.66858108155429363250732421875</LongitudeDegrees>
            </Position>
            <AltitudeMeters>42.59999847412109375</AltitudeMeters>
            <DistanceMeters>20061.291385688</DistanceMeters>
          </Trackpoint>
          <Trackpoint>
            <Time>2022-07-04T09:58:21.000Z</Time>
            <Position>
              <LatitudeDegrees>44.79503832757472991943359375</LatitudeDegrees>
              <LongitudeDegrees>-0.6686175428330898284912109375</LongitudeDegrees>
            </Position>
            <AltitudeMeters>42.59999847412109375</AltitudeMeters>
            <DistanceMeters>20065.255264219</DistanceMeters>
          </Trackpoint>
          <Trackpoint>
            <Time>2022-07-04T09:58:23.000Z</Time>
            <Position>
              <LatitudeDegrees>44.79498426429927349090576171875</LatitudeDegrees>
              <LongitudeDegrees>-0.668709240853786468505859375</LongitudeDegrees>
            </Position>
            <AltitudeMeters>42.59999847412109375</AltitudeMeters>
            <DistanceMeters>20074.671064266</DistanceMeters>
          </Trackpoint>
          <Trackpoint>
            <Time>2022-07-04T09:58:28.000Z</Time>
            <Position>
              <LatitudeDegrees>44.794852249324321746826171875</LatitudeDegrees>
              <LongitudeDegrees>-0.66888014785945415496826171875</LongitudeDegrees>
            </Position>
            <AltitudeMeters>42.799999237060546875</AltitudeMeters>
            <DistanceMeters>20094.623732764</DistanceMeters>
          </Trackpoint>
          <Trackpoint>
            <Time>2022-07-04T09:58:33.000Z</Time>
            <Position>
              <LatitudeDegrees>44.794707410037517547607421875</LatitudeDegrees>
              <LongitudeDegrees>-0.6690596044063568115234375</LongitudeDegrees>
            </Position>
            <AltitudeMeters>42.799999237060546875</AltitudeMeters>
            <DistanceMeters>20116.089676507</DistanceMeters>
          </Trackpoint>
          <Trackpoint>
            <Time>2022-07-04T09:58:35.000Z</Time>
            <Position>
              <LatitudeDegrees>44.79465669952332973480224609375</LatitudeDegrees>
              <LongitudeDegrees>-0.66912464797496795654296875</LongitudeDegrees>
            </Position>
            <AltitudeMeters>43</AltitudeMeters>
            <DistanceMeters>20123.721451731</DistanceMeters>
          </Trackpoint>
          <Trackpoint>
            <Time>2022-07-04T09:58:36.000Z</Time>
            <Position>
              <LatitudeDegrees>44.79463004507124423980712890625</LatitudeDegrees>
              <LongitudeDegrees>-0.6691590137779712677001953125</LongitudeDegrees>
            </Position>
            <AltitudeMeters>43</AltitudeMeters>
            <DistanceMeters>20127.741879175</DistanceMeters>
          </Trackpoint>
          <Trackpoint>
            <Time>2022-07-04T09:58:40.000Z</Time>
            <Position>
              <LatitudeDegrees>44.7945335693657398223876953125</LatitudeDegrees>
              <LongitudeDegrees>-0.6692974828183650970458984375</LongitudeDegrees>
            </Position>
            <AltitudeMeters>43.40000152587890625</AltitudeMeters>
            <DistanceMeters>20143.068895802</DistanceMeters>
          </Trackpoint>
          <Trackpoint>
            <Time>2022-07-04T09:58:43.000Z</Time>
            <Position>
              <LatitudeDegrees>44.79445234872400760650634765625</LatitudeDegrees>
              <LongitudeDegrees>-0.6694054417312145233154296875</LongitudeDegrees>
            </Position>
            <AltitudeMeters>43.59999847412109375</AltitudeMeters>
            <DistanceMeters>20155.495977815</DistanceMeters>
          </Trackpoint>
          <Trackpoint>
            <Time>2022-07-04T09:58:48.000Z</Time>
            <Position>
              <LatitudeDegrees>44.79431455023586750030517578125</LatitudeDegrees>
              <LongitudeDegrees>-0.66956561990082263946533203125</LongitudeDegrees>
            </Position>
            <AltitudeMeters>43.799999237060546875</AltitudeMeters>
            <DistanceMeters>20175.377919278</DistanceMeters>
          </Trackpoint>
          <Trackpoint>
            <Time>2022-07-04T09:58:50.000Z</Time>
            <Position>
              <LatitudeDegrees>44.79427180252969264984130859375</LatitudeDegrees>
              <LongitudeDegrees>-0.66962647251784801483154296875</LongitudeDegrees>
            </Position>
            <AltitudeMeters>43.799999237060546875</AltitudeMeters>
            <DistanceMeters>20182.141525362</DistanceMeters>
          </Trackpoint>
          <Trackpoint>
            <Time>2022-07-04T09:59:01.000Z</Time>
            <Position>
              <LatitudeDegrees>44.7939666174352169036865234375</LatitudeDegrees>
              <LongitudeDegrees>-0.6700474955141544342041015625</LongitudeDegrees>
            </Position>
            <AltitudeMeters>43.200000762939453125</AltitudeMeters>
            <DistanceMeters>20229.677303562</DistanceMeters>
          </Trackpoint>
          <Trackpoint>
            <Time>2022-07-04T09:59:08.000Z</Time>
            <Position>
              <LatitudeDegrees>44.7937567345798015594482421875</LatitudeDegrees>
              <LongitudeDegrees>-0.670310519635677337646484375</LongitudeDegrees>
            </Position>
            <AltitudeMeters>43.40000152587890625</AltitudeMeters>
            <DistanceMeters>20260.939215106</DistanceMeters>
          </Trackpoint>
          <Trackpoint>
            <Time>2022-07-04T09:59:15.000Z</Time>
            <Position>
              <LatitudeDegrees>44.79356311261653900146484375</LatitudeDegrees>
              <LongitudeDegrees>-0.67058167420327663421630859375</LongitudeDegrees>
            </Position>
            <AltitudeMeters>43.59999847412109375</AltitudeMeters>
            <DistanceMeters>20291.322214542</DistanceMeters>
          </Trackpoint>
          <Trackpoint>
            <Time>2022-07-04T09:59:20.000Z</Time>
            <Position>
              <LatitudeDegrees>44.7934103943407535552978515625</LatitudeDegrees>
              <LongitudeDegrees>-0.67075668834149837493896484375</LongitudeDegrees>
            </Position>
            <AltitudeMeters>43.40000152587890625</AltitudeMeters>
            <DistanceMeters>20313.231179452</DistanceMeters>
          </Trackpoint>
          <Trackpoint>
            <Time>2022-07-04T09:59:24.000Z</Time>
            <Position>
              <LatitudeDegrees>44.79329128749668598175048828125</LatitudeDegrees>
              <LongitudeDegrees>-0.67091493867337703704833984375</LongitudeDegrees>
            </Position>
            <AltitudeMeters>43.40000152587890625</AltitudeMeters>
            <DistanceMeters>20331.451545266</DistanceMeters>
          </Trackpoint>
          <Trackpoint>
            <Time>2022-07-04T09:59:35.000Z</Time>
            <Position>
              <LatitudeDegrees>44.792965315282344818115234375</LatitudeDegrees>
              <LongitudeDegrees>-0.671302266418933868408203125</LongitudeDegrees>
            </Position>
            <AltitudeMeters>43.40000152587890625</AltitudeMeters>
            <DistanceMeters>20378.90985009</DistanceMeters>
          </Trackpoint>
          <Trackpoint>
            <Time>2022-07-04T09:59:43.000Z</Time>
            <Position>
              <LatitudeDegrees>44.7927297838032245635986328125</LatitudeDegrees>
              <LongitudeDegrees>-0.6715341098606586456298828125</LongitudeDegrees>
            </Position>
            <AltitudeMeters>43.40000152587890625</AltitudeMeters>
            <DistanceMeters>20410.887716133</DistanceMeters>
          </Trackpoint>
          <Trackpoint>
            <Time>2022-07-04T09:59:51.000Z</Time>
            <Position>
              <LatitudeDegrees>44.79253582656383514404296875</LatitudeDegrees>
              <LongitudeDegrees>-0.6716709025204181671142578125</LongitudeDegrees>
            </Position>
            <AltitudeMeters>43.40000152587890625</AltitudeMeters>
            <DistanceMeters>20435.028616562</DistanceMeters>
          </Trackpoint>
          <Trackpoint>
            <Time>2022-07-04T09:59:59.000Z</Time>
            <Position>
              <LatitudeDegrees>44.79232384823262691497802734375</LatitudeDegrees>
              <LongitudeDegrees>-0.6718284823000431060791015625</LongitudeDegrees>
            </Position>
            <AltitudeMeters>43.59999847412109375</AltitudeMeters>
            <DistanceMeters>20461.70422497</DistanceMeters>
          </Trackpoint>
          <Trackpoint>
            <Time>2022-07-04T10:00:07.000Z</Time>
            <Position>
              <LatitudeDegrees>44.7920857183635234832763671875</LatitudeDegrees>
              <LongitudeDegrees>-0.672002322971820831298828125</LongitudeDegrees>
            </Position>
            <AltitudeMeters>44</AltitudeMeters>
            <DistanceMeters>20491.55441363</DistanceMeters>
          </Trackpoint>
          <Trackpoint>
            <Time>2022-07-04T10:00:11.000Z</Time>
            <Position>
              <LatitudeDegrees>44.79196191765367984771728515625</LatitudeDegrees>
              <LongitudeDegrees>-0.67211070097982883453369140625</LongitudeDegrees>
            </Position>
            <AltitudeMeters>44</AltitudeMeters>
            <DistanceMeters>20507.776172402</DistanceMeters>
          </Trackpoint>
          <Trackpoint>
            <Time>2022-07-04T10:00:16.000Z</Time>
            <Position>
              <LatitudeDegrees>44.7918010689318180084228515625</LatitudeDegrees>
              <LongitudeDegrees>-0.67225570790469646453857421875</LongitudeDegrees>
            </Position>
            <AltitudeMeters>43.799999237060546875</AltitudeMeters>
            <DistanceMeters>20529.029253444</DistanceMeters>
          </Trackpoint>
          <Trackpoint>
            <Time>2022-07-04T10:00:28.000Z</Time>
            <Position>
              <LatitudeDegrees>44.7913806326687335968017578125</LatitudeDegrees>
              <LongitudeDegrees>-0.672598779201507568359375</LongitudeDegrees>
            </Position>
            <AltitudeMeters>44.200000762939453125</AltitudeMeters>
            <DistanceMeters>20583.10454738</DistanceMeters>
          </Trackpoint>
          <Trackpoint>
            <Time>2022-07-04T10:00:37.000Z</Time>
            <Position>
              <LatitudeDegrees>44.79109824635088443756103515625</LatitudeDegrees>
              <LongitudeDegrees>-0.6728403456509113311767578125</LongitudeDegrees>
            </Position>
            <AltitudeMeters>43.799999237060546875</AltitudeMeters>
            <DistanceMeters>20619.873132677</DistanceMeters>
          </Trackpoint>
          <Trackpoint>
            <Time>2022-07-04T10:00:40.000Z</Time>
            <Position>
              <LatitudeDegrees>44.79101710952818393707275390625</LatitudeDegrees>
              <LongitudeDegrees>-0.67290966399013996124267578125</LongitudeDegrees>
            </Position>
            <AltitudeMeters>43.799999237060546875</AltitudeMeters>
            <DistanceMeters>20630.433931613</DistanceMeters>
          </Trackpoint>
          <Trackpoint>
            <Time>2022-07-04T10:00:49.000Z</Time>
            <Position>
              <LatitudeDegrees>44.7907622158527374267578125</LatitudeDegrees>
              <LongitudeDegrees>-0.67311175167560577392578125</LongitudeDegrees>
            </Position>
            <AltitudeMeters>44</AltitudeMeters>
            <DistanceMeters>20662.986649943</DistanceMeters>
          </Trackpoint>
          <Trackpoint>
            <Time>2022-07-04T10:00:55.000Z</Time>
            <Position>
              <LatitudeDegrees>44.79058259166777133941650390625</LatitudeDegrees>
              <LongitudeDegrees>-0.6732497178018093109130859375</LongitudeDegrees>
            </Position>
            <AltitudeMeters>44</AltitudeMeters>
            <DistanceMeters>20685.756605347</DistanceMeters>
          </Trackpoint>
          <Trackpoint>
            <Time>2022-07-04T10:00:58.000Z</Time>
            <Position>
              <LatitudeDegrees>44.79049642570316791534423828125</LatitudeDegrees>
              <LongitudeDegrees>-0.67333638668060302734375</LongitudeDegrees>
            </Position>
            <AltitudeMeters>43.799999237060546875</AltitudeMeters>
            <DistanceMeters>20697.539917929</DistanceMeters>
          </Trackpoint>
          <Trackpoint>
            <Time>2022-07-04T10:01:05.000Z</Time>
            <Position>
              <LatitudeDegrees>44.7903048992156982421875</LatitudeDegrees>
              <LongitudeDegrees>-0.67346856929361820220947265625</LongitudeDegrees>
            </Position>
            <AltitudeMeters>44</AltitudeMeters>
            <DistanceMeters>20721.276822736</DistanceMeters>
          </Trackpoint>
          <Trackpoint>
            <Time>2022-07-04T10:01:12.000Z</Time>
            <Position>
              <LatitudeDegrees>44.790081940591335296630859375</LatitudeDegrees>
              <LongitudeDegrees>-0.6736379675567150115966796875</LongitudeDegrees>
            </Position>
            <AltitudeMeters>44</AltitudeMeters>
            <DistanceMeters>20749.470145507</DistanceMeters>
          </Trackpoint>
          <Trackpoint>
            <Time>2022-07-04T10:01:14.000Z</Time>
            <Position>
              <LatitudeDegrees>44.7900117002427577972412109375</LatitudeDegrees>
              <LongitudeDegrees>-0.67370410077273845672607421875</LongitudeDegrees>
            </Position>
            <AltitudeMeters>44.200000762939453125</AltitudeMeters>
            <DistanceMeters>20758.872509486</DistanceMeters>
          </Trackpoint>
          <Trackpoint>
            <Time>2022-07-04T10:01:17.000Z</Time>
            <Position>
              <LatitudeDegrees>44.7899146378040313720703125</LatitudeDegrees>
              <LongitudeDegrees>-0.67379613406956195831298828125</LongitudeDegrees>
            </Position>
            <AltitudeMeters>44.200000762939453125</AltitudeMeters>
            <DistanceMeters>20771.894290296</DistanceMeters>
          </Trackpoint>
          <Trackpoint>
            <Time>2022-07-04T10:01:20.000Z</Time>
            <Position>
              <LatitudeDegrees>44.78982604108750820159912109375</LatitudeDegrees>
              <LongitudeDegrees>-0.673877187073230743408203125</LongitudeDegrees>
            </Position>
            <AltitudeMeters>44.40000152587890625</AltitudeMeters>
            <DistanceMeters>20783.65190231</DistanceMeters>
          </Trackpoint>
          <Trackpoint>
            <Time>2022-07-04T10:01:22.000Z</Time>
            <Position>
              <LatitudeDegrees>44.789760410785675048828125</LatitudeDegrees>
              <LongitudeDegrees>-0.673930160701274871826171875</LongitudeDegrees>
            </Position>
            <AltitudeMeters>44.40000152587890625</AltitudeMeters>
            <DistanceMeters>20792.070218053</DistanceMeters>
          </Trackpoint>
          <Trackpoint>
            <Time>2022-07-04T10:01:26.000Z</Time>
            <Position>
              <LatitudeDegrees>44.7896368615329265594482421875</LatitudeDegrees>
              <LongitudeDegrees>-0.67404641769826412200927734375</LongitudeDegrees>
            </Position>
            <AltitudeMeters>44.59999847412109375</AltitudeMeters>
            <DistanceMeters>20808.605958578</DistanceMeters>
          </Trackpoint>
          <Trackpoint>
            <Time>2022-07-04T10:01:31.000Z</Time>
            <Position>
              <LatitudeDegrees>44.78950266726315021514892578125</LatitudeDegrees>
              <LongitudeDegrees>-0.674197375774383544921875</LongitudeDegrees>
            </Position>
            <AltitudeMeters>44.59999847412109375</AltitudeMeters>
            <DistanceMeters>20827.717907515</DistanceMeters>
          </Trackpoint>
          <Trackpoint>
            <Time>2022-07-04T10:01:38.000Z</Time>
            <Position>
              <LatitudeDegrees>44.78933737613260746002197265625</LatitudeDegrees>
              <LongitudeDegrees>-0.67445914261043071746826171875</LongitudeDegrees>
            </Position>
            <AltitudeMeters>45</AltitudeMeters>
            <DistanceMeters>20855.394835716</DistanceMeters>
          </Trackpoint>
          <Trackpoint>
            <Time>2022-07-04T10:01:45.000Z</Time>
            <Position>
              <LatitudeDegrees>44.7892046906054019927978515625</LatitudeDegrees>
              <LongitudeDegrees>-0.674716047942638397216796875</LongitudeDegrees>
            </Position>
            <AltitudeMeters>45.200000762939453125</AltitudeMeters>
            <DistanceMeters>20880.493044269</DistanceMeters>
          </Trackpoint>
          <Trackpoint>
            <Time>2022-07-04T10:01:48.000Z</Time>
            <Position>
              <LatitudeDegrees>44.78915498591959476470947265625</LatitudeDegrees>
              <LongitudeDegrees>-0.67484621889889240264892578125</LongitudeDegrees>
            </Position>
            <AltitudeMeters>45.40000152587890625</AltitudeMeters>
            <DistanceMeters>20892.169349085</DistanceMeters>
          </Trackpoint>
          <Trackpoint>
            <Time>2022-07-04T10:01:52.000Z</Time>
            <Position>
              <LatitudeDegrees>44.78907535783946514129638671875</LatitudeDegrees>
              <LongitudeDegrees>-0.674996674060821533203125</LongitudeDegrees>
            </Position>
            <AltitudeMeters>45.59999847412109375</AltitudeMeters>
            <DistanceMeters>20906.994734768</DistanceMeters>
          </Trackpoint>
          <Trackpoint>
            <Time>2022-07-04T10:02:00.000Z</Time>
            <Position>
              <LatitudeDegrees>44.78892146609723567962646484375</LatitudeDegrees>
              <LongitudeDegrees>-0.6753210537135601043701171875</LongitudeDegrees>
            </Position>
            <AltitudeMeters>45.799999237060546875</AltitudeMeters>
            <DistanceMeters>20937.815781987</DistanceMeters>
          </Trackpoint>
          <Trackpoint>
            <Time>2022-07-04T10:02:07.000Z</Time>
            <Position>
              <LatitudeDegrees>44.78877897374331951141357421875</LatitudeDegrees>
              <LongitudeDegrees>-0.67558650858700275421142578125</LongitudeDegrees>
            </Position>
            <AltitudeMeters>45.799999237060546875</AltitudeMeters>
            <DistanceMeters>20964.106773438</DistanceMeters>
          </Trackpoint>
          <Trackpoint>
            <Time>2022-07-04T10:02:12.000Z</Time>
            <Position>
              <LatitudeDegrees>44.78870001621544361114501953125</LatitudeDegrees>
              <LongitudeDegrees>-0.6757914461195468902587890625</LongitudeDegrees>
            </Position>
            <AltitudeMeters>45.799999237060546875</AltitudeMeters>
            <DistanceMeters>20982.526765086</DistanceMeters>
          </Trackpoint>
          <Trackpoint>
            <Time>2022-07-04T10:02:19.000Z</Time>
            <Position>
              <LatitudeDegrees>44.78855903260409832000732421875</LatitudeDegrees>
              <LongitudeDegrees>-0.67606645636260509490966796875</LongitudeDegrees>
            </Position>
            <AltitudeMeters>46</AltitudeMeters>
            <DistanceMeters>21009.324972478</DistanceMeters>
          </Trackpoint>
          <Trackpoint>
            <Time>2022-07-04T10:02:28.000Z</Time>
            <Position>
              <LatitudeDegrees>44.78837949223816394805908203125</LatitudeDegrees>
              <LongitudeDegrees>-0.6764435581862926483154296875</LongitudeDegrees>
            </Position>
            <AltitudeMeters>46</AltitudeMeters>
            <DistanceMeters>21045.195008332</DistanceMeters>
          </Trackpoint>
          <Trackpoint>
            <Time>2022-07-04T10:02:35.000Z</Time>
            <Position>
              <LatitudeDegrees>44.78823398239910602569580078125</LatitudeDegrees>
              <LongitudeDegrees>-0.6767379306256771087646484375</LongitudeDegrees>
            </Position>
            <AltitudeMeters>46</AltitudeMeters>
            <DistanceMeters>21073.532254984</DistanceMeters>
          </Trackpoint>
          <Trackpoint>
            <Time>2022-07-04T10:02:42.000Z</Time>
            <Position>
              <LatitudeDegrees>44.78811085224151611328125</LatitudeDegrees>
              <LongitudeDegrees>-0.67700204439461231231689453125</LongitudeDegrees>
            </Position>
            <AltitudeMeters>46.200000762939453125</AltitudeMeters>
            <DistanceMeters>21098.493730794</DistanceMeters>
          </Trackpoint>
          <Trackpoint>
            <Time>2022-07-04T10:02:48.000Z</Time>
            <Position>
              <LatitudeDegrees>44.78801286779344081878662109375</LatitudeDegrees>
              <LongitudeDegrees>-0.67722952924668788909912109375</LongitudeDegrees>
            </Position>
            <AltitudeMeters>46.200000762939453125</AltitudeMeters>
            <DistanceMeters>21119.514189889</DistanceMeters>
          </Trackpoint>
          <Trackpoint>
            <Time>2022-07-04T10:02:57.000Z</Time>
            <Position>
              <LatitudeDegrees>44.78783525526523590087890625</LatitudeDegrees>
              <LongitudeDegrees>-0.6776029430329799652099609375</LongitudeDegrees>
            </Position>
            <AltitudeMeters>46.200000762939453125</AltitudeMeters>
            <DistanceMeters>21155.023169514</DistanceMeters>
          </Trackpoint>
          <Trackpoint>
            <Time>2022-07-04T10:03:05.000Z</Time>
            <Position>
              <LatitudeDegrees>44.78767977096140384674072265625</LatitudeDegrees>
              <LongitudeDegrees>-0.67795624025166034698486328125</LongitudeDegrees>
            </Position>
            <AltitudeMeters>46.200000762939453125</AltitudeMeters>
            <DistanceMeters>21187.86146528</DistanceMeters>
          </Trackpoint>
          <Trackpoint>
            <Time>2022-07-04T10:03:14.000Z</Time>
            <Position>
              <LatitudeDegrees>44.78748497553169727325439453125</LatitudeDegrees>
              <LongitudeDegrees>-0.6783234514296054840087890625</LongitudeDegrees>
            </Position>
            <AltitudeMeters>46</AltitudeMeters>
            <DistanceMeters>21224.075870595</DistanceMeters>
          </Trackpoint>
          <Trackpoint>
            <Time>2022-07-04T10:03:23.000Z</Time>
            <Position>
              <LatitudeDegrees>44.7872912697494029998779296875</LatitudeDegrees>
              <LongitudeDegrees>-0.67872284911572933197021484375</LongitudeDegrees>
            </Position>
            <AltitudeMeters>45.799999237060546875</AltitudeMeters>
            <DistanceMeters>21262.288899808</DistanceMeters>
          </Trackpoint>
          <Trackpoint>
            <Time>2022-07-04T10:03:30.000Z</Time>
            <Position>
              <LatitudeDegrees>44.78713385760784149169921875</LatitudeDegrees>
              <LongitudeDegrees>-0.679045133292675018310546875</LongitudeDegrees>
            </Position>
            <AltitudeMeters>46</AltitudeMeters>
            <DistanceMeters>21293.19362688</DistanceMeters>
          </Trackpoint>
          <Trackpoint>
            <Time>2022-07-04T10:03:36.000Z</Time>
            <Position>
              <LatitudeDegrees>44.78700184263288974761962890625</LatitudeDegrees>
              <LongitudeDegrees>-0.67932014353573322296142578125</LongitudeDegrees>
            </Position>
            <AltitudeMeters>46.200000762939453125</AltitudeMeters>
            <DistanceMeters>21319.420483591</DistanceMeters>
          </Trackpoint>
          <Trackpoint>
            <Time>2022-07-04T10:03:45.000Z</Time>
            <Position>
              <LatitudeDegrees>44.78682699613273143768310546875</LatitudeDegrees>
              <LongitudeDegrees>-0.67970017902553081512451171875</LongitudeDegrees>
            </Position>
            <AltitudeMeters>46.200000762939453125</AltitudeMeters>
            <DistanceMeters>21355.197126608</DistanceMeters>
          </Trackpoint>
          <Trackpoint>
            <Time>2022-07-04T10:03:50.000Z</Time>
            <Position>
              <LatitudeDegrees>44.78672188706696033477783203125</LatitudeDegrees>
              <LongitudeDegrees>-0.67994945682585239410400390625</LongitudeDegrees>
            </Position>
            <AltitudeMeters>46.40000152587890625</AltitudeMeters>
            <DistanceMeters>21378.101916091</DistanceMeters>
          </Trackpoint>
          <Trackpoint>
            <Time>2022-07-04T10:03:53.000Z</Time>
            <Position>
              <LatitudeDegrees>44.78667679242789745330810546875</LatitudeDegrees>
              <LongitudeDegrees>-0.68008323200047016143798828125</LongitudeDegrees>
            </Position>
            <AltitudeMeters>46.200000762939453125</AltitudeMeters>
            <DistanceMeters>21389.801013007</DistanceMeters>
          </Trackpoint>
          <Trackpoint>
            <Time>2022-07-04T10:03:59.000Z</Time>
            <Position>
              <LatitudeDegrees>44.78653438389301300048828125</LatitudeDegrees>
              <LongitudeDegrees>-0.68032312206923961639404296875</LongitudeDegrees>
            </Position>
            <AltitudeMeters>46</AltitudeMeters>
            <DistanceMeters>21414.506131239</DistanceMeters>
          </Trackpoint>
          <Trackpoint>
            <Time>2022-07-04T10:04:00.000Z</Time>
            <Position>
              <LatitudeDegrees>44.7865053825080394744873046875</LatitudeDegrees>
              <LongitudeDegrees>-0.680371485650539398193359375</LongitudeDegrees>
            </Position>
            <AltitudeMeters>46</AltitudeMeters>
            <DistanceMeters>21419.507462237</DistanceMeters>
          </Trackpoint>
          <Trackpoint>
            <Time>2022-07-04T10:04:06.000Z</Time>
            <Position>
              <LatitudeDegrees>44.78638225235044956207275390625</LatitudeDegrees>
              <LongitudeDegrees>-0.68060047924518585205078125</LongitudeDegrees>
            </Position>
            <AltitudeMeters>46.200000762939453125</AltitudeMeters>
            <DistanceMeters>21442.201942624</DistanceMeters>
          </Trackpoint>
          <Trackpoint>
            <Time>2022-07-04T10:04:08.000Z</Time>
            <Position>
              <LatitudeDegrees>44.78634067811071872711181640625</LatitudeDegrees>
              <LongitudeDegrees>-0.68068069405853748321533203125</LongitudeDegrees>
            </Position>
            <AltitudeMeters>46</AltitudeMeters>
            <DistanceMeters>21450.048410696</DistanceMeters>
          </Trackpoint>
          <Trackpoint>
            <Time>2022-07-04T10:04:12.000Z</Time>
            <Position>
              <LatitudeDegrees>44.7862887941300868988037109375</LatitudeDegrees>
              <LongitudeDegrees>-0.68087917752563953399658203125</LongitudeDegrees>
            </Position>
            <AltitudeMeters>46.200000762939453125</AltitudeMeters>
            <DistanceMeters>21466.757447277</DistanceMeters>
          </Trackpoint>
          <Trackpoint>
            <Time>2022-07-04T10:04:18.000Z</Time>
            <Position>
              <LatitudeDegrees>44.78627596981823444366455078125</LatitudeDegrees>
              <LongitudeDegrees>-0.68121395073831081390380859375</LongitudeDegrees>
            </Position>
            <AltitudeMeters>46</AltitudeMeters>
            <DistanceMeters>21493.241615903</DistanceMeters>
          </Trackpoint>
          <Trackpoint>
            <Time>2022-07-04T10:04:19.000Z</Time>
            <Position>
              <LatitudeDegrees>44.78625266812741756439208984375</LatitudeDegrees>
              <LongitudeDegrees>-0.6812675110995769500732421875</LongitudeDegrees>
            </Position>
            <AltitudeMeters>46</AltitudeMeters>
            <DistanceMeters>21498.204885847</DistanceMeters>
          </Trackpoint>
          <Trackpoint>
            <Time>2022-07-04T10:04:22.000Z</Time>
            <Position>
              <LatitudeDegrees>44.7861473076045513153076171875</LatitudeDegrees>
              <LongitudeDegrees>-0.681380331516265869140625</LongitudeDegrees>
            </Position>
            <AltitudeMeters>46</AltitudeMeters>
            <DistanceMeters>21512.934026574</DistanceMeters>
          </Trackpoint>
          <Trackpoint>
            <Time>2022-07-04T10:04:26.000Z</Time>
            <Position>
              <LatitudeDegrees>44.78599660098552703857421875</LatitudeDegrees>
              <LongitudeDegrees>-0.6814512424170970916748046875</LongitudeDegrees>
            </Position>
            <AltitudeMeters>46.200000762939453125</AltitudeMeters>
            <DistanceMeters>21530.618444503</DistanceMeters>
          </Trackpoint>
          <Trackpoint>
            <Time>2022-07-04T10:04:27.000Z</Time>
            <Position>
              <LatitudeDegrees>44.78597355075180530548095703125</LatitudeDegrees>
              <LongitudeDegrees>-0.68146859295666217803955078125</LongitudeDegrees>
            </Position>
            <AltitudeMeters>46.200000762939453125</AltitudeMeters>
            <DistanceMeters>21533.525702929</DistanceMeters>
          </Trackpoint>
          <Trackpoint>
            <Time>2022-07-04T10:04:29.000Z</Time>
            <Position>
              <LatitudeDegrees>44.7859369218349456787109375</LatitudeDegrees>
              <LongitudeDegrees>-0.681530870497226715087890625</LongitudeDegrees>
            </Position>
            <AltitudeMeters>46.59999847412109375</AltitudeMeters>
            <DistanceMeters>21539.91514544</DistanceMeters>
          </Trackpoint>
          <Trackpoint>
            <Time>2022-07-04T10:04:32.000Z</Time>
            <Position>
              <LatitudeDegrees>44.78586274199187755584716796875</LatitudeDegrees>
              <LongitudeDegrees>-0.6816695071756839752197265625</LongitudeDegrees>
            </Position>
            <AltitudeMeters>46.59999847412109375</AltitudeMeters>
            <DistanceMeters>21553.630631304</DistanceMeters>
          </Trackpoint>
          <Trackpoint>
            <Time>2022-07-04T10:04:40.000Z</Time>
            <Position>
              <LatitudeDegrees>44.78567465208470821380615234375</LatitudeDegrees>
              <LongitudeDegrees>-0.6820146739482879638671875</LongitudeDegrees>
            </Position>
            <AltitudeMeters>46.59999847412109375</AltitudeMeters>
            <DistanceMeters>21588.007193727</DistanceMeters>
          </Trackpoint>
          <Trackpoint>
            <Time>2022-07-04T10:04:48.000Z</Time>
            <Position>
              <LatitudeDegrees>44.78549594990909099578857421875</LatitudeDegrees>
              <LongitudeDegrees>-0.6824268959462642669677734375</LongitudeDegrees>
            </Position>
            <AltitudeMeters>46</AltitudeMeters>
            <DistanceMeters>21626.165123257</DistanceMeters>
          </Trackpoint>
          <Trackpoint>
            <Time>2022-07-04T10:04:57.000Z</Time>
            <Position>
              <LatitudeDegrees>44.785282127559185028076171875</LatitudeDegrees>
              <LongitudeDegrees>-0.682857893407344818115234375</LongitudeDegrees>
            </Position>
            <AltitudeMeters>46</AltitudeMeters>
            <DistanceMeters>21667.705603371</DistanceMeters>
          </Trackpoint>
          <Trackpoint>
            <Time>2022-07-04T10:05:03.000Z</Time>
            <Position>
              <LatitudeDegrees>44.7851180098950862884521484375</LatitudeDegrees>
              <LongitudeDegrees>-0.68318554200232028961181640625</LongitudeDegrees>
            </Position>
            <AltitudeMeters>46.200000762939453125</AltitudeMeters>
            <DistanceMeters>21699.385292385</DistanceMeters>
          </Trackpoint>
          <Trackpoint>
            <Time>2022-07-04T10:05:05.000Z</Time>
            <Position>
              <LatitudeDegrees>44.78507467545568943023681640625</LatitudeDegrees>
              <LongitudeDegrees>-0.68327791057527065277099609375</LongitudeDegrees>
            </Position>
            <AltitudeMeters>46</AltitudeMeters>
            <DistanceMeters>21708.131880727</DistanceMeters>
          </Trackpoint>
          <Trackpoint>
            <Time>2022-07-04T10:05:06.000Z</Time>
            <Position>
              <LatitudeDegrees>44.78505003266036510467529296875</LatitudeDegrees>
              <LongitudeDegrees>-0.68332484923303127288818359375</LongitudeDegrees>
            </Position>
            <AltitudeMeters>45.799999237060546875</AltitudeMeters>
            <DistanceMeters>21712.744348624</DistanceMeters>
          </Trackpoint>
          <Trackpoint>
            <Time>2022-07-04T10:05:13.000Z</Time>
            <Position>
              <LatitudeDegrees>44.7848836518824100494384765625</LatitudeDegrees>
              <LongitudeDegrees>-0.68368426524102687835693359375</LongitudeDegrees>
            </Position>
            <AltitudeMeters>45.799999237060546875</AltitudeMeters>
            <DistanceMeters>21746.642656659</DistanceMeters>
          </Trackpoint>
          <Trackpoint>
            <Time>2022-07-04T10:05:17.000Z</Time>
            <Position>
              <LatitudeDegrees>44.78479388169944286346435546875</LatitudeDegrees>
              <LongitudeDegrees>-0.68389154970645904541015625</LongitudeDegrees>
            </Position>
            <AltitudeMeters>45.59999847412109375</AltitudeMeters>
            <DistanceMeters>21765.825347167</DistanceMeters>
          </Trackpoint>
          <Trackpoint>
            <Time>2022-07-04T10:05:18.000Z</Time>
            <Position>
              <LatitudeDegrees>44.78476890362799167633056640625</LatitudeDegrees>
              <LongitudeDegrees>-0.68394091911613941192626953125</LongitudeDegrees>
            </Position>
            <AltitudeMeters>45.40000152587890625</AltitudeMeters>
            <DistanceMeters>21770.615485395</DistanceMeters>
          </Trackpoint>
          <Trackpoint>
            <Time>2022-07-04T10:05:24.000Z</Time>
            <Position>
              <LatitudeDegrees>44.78463311679661273956298828125</LatitudeDegrees>
              <LongitudeDegrees>-0.6842229701578617095947265625</LongitudeDegrees>
            </Position>
            <AltitudeMeters>45.40000152587890625</AltitudeMeters>
            <DistanceMeters>21797.538752216</DistanceMeters>
          </Trackpoint>
          <Trackpoint>
            <Time>2022-07-04T10:05:28.000Z</Time>
            <Position>
              <LatitudeDegrees>44.784541167318820953369140625</LatitudeDegrees>
              <LongitudeDegrees>-0.6843986548483371734619140625</LongitudeDegrees>
            </Position>
            <AltitudeMeters>45.799999237060546875</AltitudeMeters>
            <DistanceMeters>21814.782631919</DistanceMeters>
          </Trackpoint>
          <Trackpoint>
            <Time>2022-07-04T10:05:32.000Z</Time>
            <Position>
              <LatitudeDegrees>44.784453995525836944580078125</LatitudeDegrees>
              <LongitudeDegrees>-0.68458297289907932281494140625</LongitudeDegrees>
            </Position>
            <AltitudeMeters>46</AltitudeMeters>
            <DistanceMeters>21832.279937762</DistanceMeters>
          </Trackpoint>
          <Trackpoint>
            <Time>2022-07-04T10:05:35.000Z</Time>
            <Position>
              <LatitudeDegrees>44.7843891195952892303466796875</LatitudeDegrees>
              <LongitudeDegrees>-0.684692524373531341552734375</LongitudeDegrees>
            </Position>
            <AltitudeMeters>45.799999237060546875</AltitudeMeters>
            <DistanceMeters>21843.550923318</DistanceMeters>
          </Trackpoint>
          <Trackpoint>
            <Time>2022-07-04T10:05:40.000Z</Time>
            <Position>
              <LatitudeDegrees>44.78428007103502750396728515625</LatitudeDegrees>
              <LongitudeDegrees>-0.68496434949338436126708984375</LongitudeDegrees>
            </Position>
            <AltitudeMeters>45.799999237060546875</AltitudeMeters>
            <DistanceMeters>21868.217449639</DistanceMeters>
          </Trackpoint>
          <Trackpoint>
            <Time>2022-07-04T10:05:48.000Z</Time>
            <Position>
              <LatitudeDegrees>44.78410086594521999359130859375</LatitudeDegrees>
              <LongitudeDegrees>-0.6853434629738330841064453125</LongitudeDegrees>
            </Position>
            <AltitudeMeters>46</AltitudeMeters>
            <DistanceMeters>21904.200592094</DistanceMeters>
          </Trackpoint>
          <Trackpoint>
            <Time>2022-07-04T10:05:53.000Z</Time>
            <Position>
              <LatitudeDegrees>44.783983938395977020263671875</LatitudeDegrees>
              <LongitudeDegrees>-0.6855905614793300628662109375</LongitudeDegrees>
            </Position>
            <AltitudeMeters>45.799999237060546875</AltitudeMeters>
            <DistanceMeters>21927.661415812</DistanceMeters>
          </Trackpoint>
          <Trackpoint>
            <Time>2022-07-04T10:05:56.000Z</Time>
            <Position>
              <LatitudeDegrees>44.78391109965741634368896484375</LatitudeDegrees>
              <LongitudeDegrees>-0.6857421062886714935302734375</LongitudeDegrees>
            </Position>
            <AltitudeMeters>45.799999237060546875</AltitudeMeters>
            <DistanceMeters>21942.119848288</DistanceMeters>
          </Trackpoint>
          <Trackpoint>
            <Time>2022-07-04T10:06:05.000Z</Time>
            <Position>
              <LatitudeDegrees>44.7836823575198650360107421875</LatitudeDegrees>
              <LongitudeDegrees>-0.68617503158748149871826171875</LongitudeDegrees>
            </Position>
            <AltitudeMeters>45.799999237060546875</AltitudeMeters>
            <DistanceMeters>21984.756249978</DistanceMeters>
          </Trackpoint>
          <Trackpoint>
            <Time>2022-07-04T10:06:12.000Z</Time>
            <Position>
              <LatitudeDegrees>44.7835398651659488677978515625</LatitudeDegrees>
              <LongitudeDegrees>-0.68647258915007114410400390625</LongitudeDegrees>
            </Position>
            <AltitudeMeters>45.59999847412109375</AltitudeMeters>
            <DistanceMeters>22013.113087728</DistanceMeters>
          </Trackpoint>
          <Trackpoint>
            <Time>2022-07-04T10:06:13.000Z</Time>
            <Position>
              <LatitudeDegrees>44.783524610102176666259765625</LatitudeDegrees>
              <LongitudeDegrees>-0.68650309927761554718017578125</LongitudeDegrees>
            </Position>
            <AltitudeMeters>45.799999237060546875</AltitudeMeters>
            <DistanceMeters>22016.060448164</DistanceMeters>
          </Trackpoint>
          <Trackpoint>
            <Time>2022-07-04T10:06:19.000Z</Time>
            <Position>
              <LatitudeDegrees>44.78339997120201587677001953125</LatitudeDegrees>
              <LongitudeDegrees>-0.6867502816021442413330078125</LongitudeDegrees>
            </Position>
            <AltitudeMeters>46.200000762939453125</AltitudeMeters>
            <DistanceMeters>22040.01358986</DistanceMeters>
          </Trackpoint>
          <Trackpoint>
            <Time>2022-07-04T10:06:20.000Z</Time>
            <Position>
              <LatitudeDegrees>44.78337164036929607391357421875</LatitudeDegrees>
              <LongitudeDegrees>-0.68679462186992168426513671875</LongitudeDegrees>
            </Position>
            <AltitudeMeters>46.200000762939453125</AltitudeMeters>
            <DistanceMeters>22044.726761621</DistanceMeters>
          </Trackpoint>
          <Trackpoint>
            <Time>2022-07-04T10:06:27.000Z</Time>
            <Position>
              <LatitudeDegrees>44.7832498513162136077880859375</LatitudeDegrees>
              <LongitudeDegrees>-0.6870466656982898712158203125</LongitudeDegrees>
            </Position>
            <AltitudeMeters>46.200000762939453125</AltitudeMeters>
            <DistanceMeters>22068.814487372</DistanceMeters>
          </Trackpoint>
          <Trackpoint>
            <Time>2022-07-04T10:06:34.000Z</Time>
            <Position>
              <LatitudeDegrees>44.783114232122898101806640625</LatitudeDegrees>
              <LongitudeDegrees>-0.6873093545436859130859375</LongitudeDegrees>
            </Position>
            <AltitudeMeters>46.40000152587890625</AltitudeMeters>
            <DistanceMeters>22094.475923314</DistanceMeters>
          </Trackpoint>
          <Trackpoint>
            <Time>2022-07-04T10:06:37.000Z</Time>
            <Position>
              <LatitudeDegrees>44.783073328435420989990234375</LatitudeDegrees>
              <LongitudeDegrees>-0.68742728792130947113037109375</LongitudeDegrees>
            </Position>
            <AltitudeMeters>46.59999847412109375</AltitudeMeters>
            <DistanceMeters>22104.844727012</DistanceMeters>
          </Trackpoint>
          <Trackpoint>
            <Time>2022-07-04T10:06:43.000Z</Time>
            <Position>
              <LatitudeDegrees>44.7829662077128887176513671875</LatitudeDegrees>
              <LongitudeDegrees>-0.6876634061336517333984375</LongitudeDegrees>
            </Position>
            <AltitudeMeters>47</AltitudeMeters>
            <DistanceMeters>22126.98289245</DistanceMeters>
          </Trackpoint>
          <Trackpoint>
            <Time>2022-07-04T10:06:49.000Z</Time>
            <Position>
              <LatitudeDegrees>44.7828577458858489990234375</LatitudeDegrees>
              <LongitudeDegrees>-0.687929280102252960205078125</LongitudeDegrees>
            </Position>
            <AltitudeMeters>46.799999237060546875</AltitudeMeters>
            <DistanceMeters>22151.208927792</DistanceMeters>
          </Trackpoint>
          <Trackpoint>
            <Time>2022-07-04T10:06:57.000Z</Time>
            <Position>
              <LatitudeDegrees>44.7827088832855224609375</LatitudeDegrees>
              <LongitudeDegrees>-0.68826564587652683258056640625</LongitudeDegrees>
            </Position>
            <AltitudeMeters>46.799999237060546875</AltitudeMeters>
            <DistanceMeters>22182.524231425</DistanceMeters>
          </Trackpoint>
          <Trackpoint>
            <Time>2022-07-04T10:07:02.000Z</Time>
            <Position>
              <LatitudeDegrees>44.7826088033616542816162109375</LatitudeDegrees>
              <LongitudeDegrees>-0.6884373910725116729736328125</LongitudeDegrees>
            </Position>
            <AltitudeMeters>46.59999847412109375</AltitudeMeters>
            <DistanceMeters>22200.078986303</DistanceMeters>
          </Trackpoint>
          <Trackpoint>
            <Time>2022-07-04T10:07:09.000Z</Time>
            <Position>
              <LatitudeDegrees>44.78251048363745212554931640625</LatitudeDegrees>
              <LongitudeDegrees>-0.68871860392391681671142578125</LongitudeDegrees>
            </Position>
            <AltitudeMeters>46.40000152587890625</AltitudeMeters>
            <DistanceMeters>22224.843976347</DistanceMeters>
          </Trackpoint>
          <Trackpoint>
            <Time>2022-07-04T10:07:15.000Z</Time>
            <Position>
              <LatitudeDegrees>44.782414846122264862060546875</LatitudeDegrees>
              <LongitudeDegrees>-0.68891071714460849761962890625</LongitudeDegrees>
            </Position>
            <AltitudeMeters>46.200000762939453125</AltitudeMeters>
            <DistanceMeters>22243.381737516</DistanceMeters>
          </Trackpoint>
          <Trackpoint>
            <Time>2022-07-04T10:07:22.000Z</Time>
            <Position>
              <LatitudeDegrees>44.7823563404381275177001953125</LatitudeDegrees>
              <LongitudeDegrees>-0.6892081908881664276123046875</LongitudeDegrees>
            </Position>
            <AltitudeMeters>46.40000152587890625</AltitudeMeters>
            <DistanceMeters>22267.767895768</DistanceMeters>
          </Trackpoint>
          <Trackpoint>
            <Time>2022-07-04T10:07:29.000Z</Time>
            <Position>
              <LatitudeDegrees>44.78223203681409358978271484375</LatitudeDegrees>
              <LongitudeDegrees>-0.68948353640735149383544921875</LongitudeDegrees>
            </Position>
            <AltitudeMeters>46.200000762939453125</AltitudeMeters>
            <DistanceMeters>22293.547296575</DistanceMeters>
          </Trackpoint>
          <Trackpoint>
            <Time>2022-07-04T10:07:35.000Z</Time>
            <Position>
              <LatitudeDegrees>44.78211670182645320892333984375</LatitudeDegrees>
              <LongitudeDegrees>-0.68971672095358371734619140625</LongitudeDegrees>
            </Position>
            <AltitudeMeters>46.40000152587890625</AltitudeMeters>
            <DistanceMeters>22316.000965051</DistanceMeters>
          </Trackpoint>
          <Trackpoint>
            <Time>2022-07-04T10:07:37.000Z</Time>
            <Position>
              <LatitudeDegrees>44.7820787318050861358642578125</LatitudeDegrees>
              <LongitudeDegrees>-0.6897969357669353485107421875</LongitudeDegrees>
            </Position>
            <AltitudeMeters>46.40000152587890625</AltitudeMeters>
            <DistanceMeters>22323.61734287</DistanceMeters>
          </Trackpoint>
          <Trackpoint>
            <Time>2022-07-04T10:07:46.000Z</Time>
            <Position>
              <LatitudeDegrees>44.78187463246285915374755859375</LatitudeDegrees>
              <LongitudeDegrees>-0.69019968621432781219482421875</LongitudeDegrees>
            </Position>
            <AltitudeMeters>46.59999847412109375</AltitudeMeters>
            <DistanceMeters>22362.712261705</DistanceMeters>
          </Trackpoint>
          <Trackpoint>
            <Time>2022-07-04T10:07:53.000Z</Time>
            <Position>
              <LatitudeDegrees>44.78169836103916168212890625</LatitudeDegrees>
              <LongitudeDegrees>-0.690539069473743438720703125</LongitudeDegrees>
            </Position>
            <AltitudeMeters>47</AltitudeMeters>
            <DistanceMeters>22395.935753758</DistanceMeters>
          </Trackpoint>
          <Trackpoint>
            <Time>2022-07-04T10:07:54.000Z</Time>
            <Position>
              <LatitudeDegrees>44.78167380206286907196044921875</LatitudeDegrees>
              <LongitudeDegrees>-0.69058634340763092041015625</LongitudeDegrees>
            </Position>
            <AltitudeMeters>47</AltitudeMeters>
            <DistanceMeters>22400.564832652</DistanceMeters>
          </Trackpoint>
          <Trackpoint>
            <Time>2022-07-04T10:07:57.000Z</Time>
            <Position>
              <LatitudeDegrees>44.7815997898578643798828125</LatitudeDegrees>
              <LongitudeDegrees>-0.69074719212949275970458984375</LongitudeDegrees>
            </Position>
            <AltitudeMeters>47.200000762939453125</AltitudeMeters>
            <DistanceMeters>22415.709002537</DistanceMeters>
          </Trackpoint>
          <Trackpoint>
            <Time>2022-07-04T10:08:00.000Z</Time>
            <Position>
              <LatitudeDegrees>44.78153407573699951171875</LatitudeDegrees>
              <LongitudeDegrees>-0.690888427197933197021484375</LongitudeDegrees>
            </Position>
            <AltitudeMeters>47</AltitudeMeters>
            <DistanceMeters>22429.050699089</DistanceMeters>
          </Trackpoint>
          <Trackpoint>
            <Time>2022-07-04T10:08:02.000Z</Time>
            <Position>
              <LatitudeDegrees>44.781485460698604583740234375</LatitudeDegrees>
              <LongitudeDegrees>-0.69098423235118389129638671875</LongitudeDegrees>
            </Position>
            <AltitudeMeters>47</AltitudeMeters>
            <DistanceMeters>22438.355071333</DistanceMeters>
          </Trackpoint>
          <Trackpoint>
            <Time>2022-07-04T10:08:11.000Z</Time>
            <Position>
              <LatitudeDegrees>44.7813008911907672882080078125</LatitudeDegrees>
              <LongitudeDegrees>-0.69141187705099582672119140625</LongitudeDegrees>
            </Position>
            <AltitudeMeters>47.200000762939453125</AltitudeMeters>
            <DistanceMeters>22477.895206451</DistanceMeters>
          </Trackpoint>
          <Trackpoint>
            <Time>2022-07-04T10:08:18.000Z</Time>
            <Position>
              <LatitudeDegrees>44.7811563871800899505615234375</LatitudeDegrees>
              <LongitudeDegrees>-0.6917338259518146514892578125</LongitudeDegrees>
            </Position>
            <AltitudeMeters>46.799999237060546875</AltitudeMeters>
            <DistanceMeters>22507.98853306</DistanceMeters>
          </Trackpoint>
          <Trackpoint>
            <Time>2022-07-04T10:08:25.000Z</Time>
            <Position>
              <LatitudeDegrees>44.781029485166072845458984375</LatitudeDegrees>
              <LongitudeDegrees>-0.69207119755446910858154296875</LongitudeDegrees>
            </Position>
            <AltitudeMeters>46.799999237060546875</AltitudeMeters>
            <DistanceMeters>22538.153191567</DistanceMeters>
          </Trackpoint>
          <Trackpoint>
            <Time>2022-07-04T10:08:26.000Z</Time>
            <Position>
              <LatitudeDegrees>44.78101037442684173583984375</LatitudeDegrees>
              <LongitudeDegrees>-0.69212869741022586822509765625</LongitudeDegrees>
            </Position>
            <AltitudeMeters>46.799999237060546875</AltitudeMeters>
            <DistanceMeters>22543.168946044</DistanceMeters>
          </Trackpoint>
          <Trackpoint>
            <Time>2022-07-04T10:08:32.000Z</Time>
            <Position>
              <LatitudeDegrees>44.78096720762550830841064453125</LatitudeDegrees>
              <LongitudeDegrees>-0.69241158664226531982421875</LongitudeDegrees>
            </Position>
            <AltitudeMeters>46.799999237060546875</AltitudeMeters>
            <DistanceMeters>22566.028747526</DistanceMeters>
          </Trackpoint>
          <Trackpoint>
            <Time>2022-07-04T10:08:36.000Z</Time>
            <Position>
              <LatitudeDegrees>44.78085237555205821990966796875</LatitudeDegrees>
              <LongitudeDegrees>-0.69255181588232517242431640625</LongitudeDegrees>
            </Position>
            <AltitudeMeters>46.59999847412109375</AltitudeMeters>
            <DistanceMeters>22582.942968817</DistanceMeters>
          </Trackpoint>
          <Trackpoint>
            <Time>2022-07-04T10:08:39.000Z</Time>
            <Position>
              <LatitudeDegrees>44.78074659593403339385986328125</LatitudeDegrees>
              <LongitudeDegrees>-0.69260261021554470062255859375</LongitudeDegrees>
            </Position>
            <AltitudeMeters>46.799999237060546875</AltitudeMeters>
            <DistanceMeters>22595.382034693</DistanceMeters>
          </Trackpoint>
          <Trackpoint>
            <Time>2022-07-04T10:08:40.000Z</Time>
            <Position>
              <LatitudeDegrees>44.7807255573570728302001953125</LatitudeDegrees>
              <LongitudeDegrees>-0.69264586083590984344482421875</LongitudeDegrees>
            </Position>
            <AltitudeMeters>46.799999237060546875</AltitudeMeters>
            <DistanceMeters>22599.524153142</DistanceMeters>
          </Trackpoint>
          <Trackpoint>
            <Time>2022-07-04T10:08:47.000Z</Time>
            <Position>
              <LatitudeDegrees>44.78062522597610950469970703125</LatitudeDegrees>
              <LongitudeDegrees>-0.6929542310535907745361328125</LongitudeDegrees>
            </Position>
            <AltitudeMeters>47</AltitudeMeters>
            <DistanceMeters>22626.323708363</DistanceMeters>
          </Trackpoint>
          <Trackpoint>
            <Time>2022-07-04T10:08:50.000Z</Time>
            <Position>
              <LatitudeDegrees>44.7805807180702686309814453125</LatitudeDegrees>
              <LongitudeDegrees>-0.69295967929065227508544921875</LongitudeDegrees>
            </Position>
            <AltitudeMeters>46.59999847412109375</AltitudeMeters>
            <DistanceMeters>22631.296066888</DistanceMeters>
          </Trackpoint>
          <Trackpoint>
            <Time>2022-07-04T10:08:52.000Z</Time>
            <Position>
              <LatitudeDegrees>44.78053218685090541839599609375</LatitudeDegrees>
              <LongitudeDegrees>-0.69296219386160373687744140625</LongitudeDegrees>
            </Position>
            <AltitudeMeters>46.59999847412109375</AltitudeMeters>
            <DistanceMeters>22636.701742366</DistanceMeters>
          </Trackpoint>
          <Trackpoint>
            <Time>2022-07-04T10:08:54.000Z</Time>
            <Position>
              <LatitudeDegrees>44.780497737228870391845703125</LatitudeDegrees>
              <LongitudeDegrees>-0.69300846196711063385009765625</LongitudeDegrees>
            </Position>
            <AltitudeMeters>47</AltitudeMeters>
            <DistanceMeters>22641.999428426</DistanceMeters>
          </Trackpoint>
          <Trackpoint>
            <Time>2022-07-04T10:08:59.000Z</Time>
            <Position>
              <LatitudeDegrees>44.78040017187595367431640625</LatitudeDegrees>
              <LongitudeDegrees>-0.693230330944061279296875</LongitudeDegrees>
            </Position>
            <AltitudeMeters>47.200000762939453125</AltitudeMeters>
            <DistanceMeters>22662.618911669</DistanceMeters>
          </Trackpoint>
          <Trackpoint>
            <Time>2022-07-04T10:09:05.000Z</Time>
            <Position>
              <LatitudeDegrees>44.7802679054439067840576171875</LatitudeDegrees>
              <LongitudeDegrees>-0.6935067661106586456298828125</LongitudeDegrees>
            </Position>
            <AltitudeMeters>47</AltitudeMeters>
            <DistanceMeters>22688.956744578</DistanceMeters>
          </Trackpoint>
          <Trackpoint>
            <Time>2022-07-04T10:09:13.000Z</Time>
            <Position>
              <LatitudeDegrees>44.78011392988264560699462890625</LatitudeDegrees>
              <LongitudeDegrees>-0.69387749768793582916259765625</LongitudeDegrees>
            </Position>
            <AltitudeMeters>46.799999237060546875</AltitudeMeters>
            <DistanceMeters>22722.89152804</DistanceMeters>
          </Trackpoint>
          <Trackpoint>
            <Time>2022-07-04T10:09:21.000Z</Time>
            <Position>
              <LatitudeDegrees>44.77991779334843158721923828125</LatitudeDegrees>
              <LongitudeDegrees>-0.6942410208284854888916015625</LongitudeDegrees>
            </Position>
            <AltitudeMeters>47</AltitudeMeters>
            <DistanceMeters>22758.966277199</DistanceMeters>
          </Trackpoint>
          <Trackpoint>
            <Time>2022-07-04T10:09:27.000Z</Time>
            <Position>
              <LatitudeDegrees>44.779794998466968536376953125</LatitudeDegrees>
              <LongitudeDegrees>-0.69452407769858837127685546875</LongitudeDegrees>
            </Position>
            <AltitudeMeters>47</AltitudeMeters>
            <DistanceMeters>22785.174707041</DistanceMeters>
          </Trackpoint>
          <Trackpoint>
            <Time>2022-07-04T10:09:30.000Z</Time>
            <Position>
              <LatitudeDegrees>44.77972961962223052978515625</LatitudeDegrees>
              <LongitudeDegrees>-0.6946919672191143035888671875</LongitudeDegrees>
            </Position>
            <AltitudeMeters>47</AltitudeMeters>
            <DistanceMeters>22800.303365856</DistanceMeters>
          </Trackpoint>
          <Trackpoint>
            <Time>2022-07-04T10:09:35.000Z</Time>
            <Position>
              <LatitudeDegrees>44.779608584940433502197265625</LatitudeDegrees>
              <LongitudeDegrees>-0.69497552700340747833251953125</LongitudeDegrees>
            </Position>
            <AltitudeMeters>46.799999237060546875</AltitudeMeters>
            <DistanceMeters>22826.444349673</DistanceMeters>
          </Trackpoint>
          <Trackpoint>
            <Time>2022-07-04T10:09:37.000Z</Time>
            <Position>
              <LatitudeDegrees>44.779571034014225006103515625</LatitudeDegrees>
              <LongitudeDegrees>-0.69507258944213390350341796875</LongitudeDegrees>
            </Position>
            <AltitudeMeters>46.799999237060546875</AltitudeMeters>
            <DistanceMeters>22835.177506356</DistanceMeters>
          </Trackpoint>
          <Trackpoint>
            <Time>2022-07-04T10:09:38.000Z</Time>
            <Position>
              <LatitudeDegrees>44.7795500792562961578369140625</LatitudeDegrees>
              <LongitudeDegrees>-0.69512120448052883148193359375</LongitudeDegrees>
            </Position>
            <AltitudeMeters>46.799999237060546875</AltitudeMeters>
            <DistanceMeters>22839.67097394</DistanceMeters>
          </Trackpoint>
          <Trackpoint>
            <Time>2022-07-04T10:09:44.000Z</Time>
            <Position>
              <LatitudeDegrees>44.77943633683025836944580078125</LatitudeDegrees>
              <LongitudeDegrees>-0.69540669210255146026611328125</LongitudeDegrees>
            </Position>
            <AltitudeMeters>46.799999237060546875</AltitudeMeters>
            <DistanceMeters>22865.535702496</DistanceMeters>
          </Trackpoint>
          <Trackpoint>
            <Time>2022-07-04T10:09:54.000Z</Time>
            <Position>
              <LatitudeDegrees>44.77921329438686370849609375</LatitudeDegrees>
              <LongitudeDegrees>-0.695880688726902008056640625</LongitudeDegrees>
            </Position>
            <AltitudeMeters>46.799999237060546875</AltitudeMeters>
            <DistanceMeters>22910.465052578</DistanceMeters>
          </Trackpoint>
          <Trackpoint>
            <Time>2022-07-04T10:10:01.000Z</Time>
            <Position>
              <LatitudeDegrees>44.7790381126105785369873046875</LatitudeDegrees>
              <LongitudeDegrees>-0.69623298011720180511474609375</LongitudeDegrees>
            </Position>
            <AltitudeMeters>46.59999847412109375</AltitudeMeters>
            <DistanceMeters>22944.447966171</DistanceMeters>
          </Trackpoint>
          <Trackpoint>
            <Time>2022-07-04T10:10:04.000Z</Time>
            <Position>
              <LatitudeDegrees>44.7789737395942211151123046875</LatitudeDegrees>
              <LongitudeDegrees>-0.69638536311686038970947265625</LongitudeDegrees>
            </Position>
            <AltitudeMeters>46.40000152587890625</AltitudeMeters>
            <DistanceMeters>22958.457882002</DistanceMeters>
          </Trackpoint>
          <Trackpoint>
            <Time>2022-07-04T10:10:09.000Z</Time>
            <Position>
              <LatitudeDegrees>44.7788520343601703643798828125</LatitudeDegrees>
              <LongitudeDegrees>-0.6966446153819561004638671875</LongitudeDegrees>
            </Position>
            <AltitudeMeters>46</AltitudeMeters>
            <DistanceMeters>22983.014336853</DistanceMeters>
          </Trackpoint>
          <Trackpoint>
            <Time>2022-07-04T10:10:11.000Z</Time>
            <Position>
              <LatitudeDegrees>44.7788144834339618682861328125</LatitudeDegrees>
              <LongitudeDegrees>-0.6967472098767757415771484375</LongitudeDegrees>
            </Position>
            <AltitudeMeters>46</AltitudeMeters>
            <DistanceMeters>22992.133931364</DistanceMeters>
          </Trackpoint>
          <Trackpoint>
            <Time>2022-07-04T10:10:15.000Z</Time>
            <Position>
              <LatitudeDegrees>44.77872152812778949737548828125</LatitudeDegrees>
              <LongitudeDegrees>-0.6969466991722583770751953125</LongitudeDegrees>
            </Position>
            <AltitudeMeters>45.799999237060546875</AltitudeMeters>
            <DistanceMeters>23010.987097384</DistanceMeters>
          </Trackpoint>
          <Trackpoint>
            <Time>2022-07-04T10:10:22.000Z</Time>
            <Position>
              <LatitudeDegrees>44.778554476797580718994140625</LatitudeDegrees>
              <LongitudeDegrees>-0.6973305903375148773193359375</LongitudeDegrees>
            </Position>
            <AltitudeMeters>45.799999237060546875</AltitudeMeters>
            <DistanceMeters>23046.562261528</DistanceMeters>
          </Trackpoint>
          <Trackpoint>
            <Time>2022-07-04T10:10:24.000Z</Time>
            <Position>
              <LatitudeDegrees>44.77851466275751590728759765625</LatitudeDegrees>
              <LongitudeDegrees>-0.697424970567226409912109375</LongitudeDegrees>
            </Position>
            <AltitudeMeters>45.799999237060546875</AltitudeMeters>
            <DistanceMeters>23055.236280028</DistanceMeters>
          </Trackpoint>
          <Trackpoint>
            <Time>2022-07-04T10:10:25.000Z</Time>
            <Position>
              <LatitudeDegrees>44.7784882597625255584716796875</LatitudeDegrees>
              <LongitudeDegrees>-0.6974767707288265228271484375</LongitudeDegrees>
            </Position>
            <AltitudeMeters>45.799999237060546875</AltitudeMeters>
            <DistanceMeters>23060.275384607</DistanceMeters>
          </Trackpoint>
          <Trackpoint>
            <Time>2022-07-04T10:10:29.000Z</Time>
            <Position>
              <LatitudeDegrees>44.7783866710960865020751953125</LatitudeDegrees>
              <LongitudeDegrees>-0.697692520916461944580078125</LongitudeDegrees>
            </Position>
            <AltitudeMeters>45.40000152587890625</AltitudeMeters>
            <DistanceMeters>23080.73020218</DistanceMeters>
          </Trackpoint>
          <Trackpoint>
            <Time>2022-07-04T10:10:34.000Z</Time>
            <Position>
              <LatitudeDegrees>44.77827913127839565277099609375</LatitudeDegrees>
              <LongitudeDegrees>-0.6979374401271343231201171875</LongitudeDegrees>
            </Position>
            <AltitudeMeters>45.200000762939453125</AltitudeMeters>
            <DistanceMeters>23103.483098315</DistanceMeters>
          </Trackpoint>
          <Trackpoint>
            <Time>2022-07-04T10:10:41.000Z</Time>
            <Position>
              <LatitudeDegrees>44.778092466294765472412109375</LatitudeDegrees>
              <LongitudeDegrees>-0.69831789471209049224853515625</LongitudeDegrees>
            </Position>
            <AltitudeMeters>45.59999847412109375</AltitudeMeters>
            <DistanceMeters>23140.022816194</DistanceMeters>
          </Trackpoint>
          <Trackpoint>
            <Time>2022-07-04T10:10:44.000Z</Time>
            <Position>
              <LatitudeDegrees>44.77801728062331676483154296875</LatitudeDegrees>
              <LongitudeDegrees>-0.6984842754900455474853515625</LongitudeDegrees>
            </Position>
            <AltitudeMeters>45.59999847412109375</AltitudeMeters>
            <DistanceMeters>23155.605748706</DistanceMeters>
          </Trackpoint>
          <Trackpoint>
            <Time>2022-07-04T10:10:45.000Z</Time>
            <Position>
              <LatitudeDegrees>44.7779883630573749542236328125</LatitudeDegrees>
              <LongitudeDegrees>-0.69855493493378162384033203125</LongitudeDegrees>
            </Position>
            <AltitudeMeters>45.59999847412109375</AltitudeMeters>
            <DistanceMeters>23162.049372802</DistanceMeters>
          </Trackpoint>
          <Trackpoint>
            <Time>2022-07-04T10:10:53.000Z</Time>
            <Position>
              <LatitudeDegrees>44.77779398672282695770263671875</LatitudeDegrees>
              <LongitudeDegrees>-0.69897604174911975860595703125</LongitudeDegrees>
            </Position>
            <AltitudeMeters>45.799999237060546875</AltitudeMeters>
            <DistanceMeters>23201.735172817</DistanceMeters>
          </Trackpoint>
          <Trackpoint>
            <Time>2022-07-04T10:10:57.000Z</Time>
            <Position>
              <LatitudeDegrees>44.77769114077091217041015625</LatitudeDegrees>
              <LongitudeDegrees>-0.6992218829691410064697265625</LongitudeDegrees>
            </Position>
            <AltitudeMeters>45.799999237060546875</AltitudeMeters>
            <DistanceMeters>23224.280348418</DistanceMeters>
          </Trackpoint>
          <Trackpoint>
            <Time>2022-07-04T10:11:02.000Z</Time>
            <Position>
              <LatitudeDegrees>44.77757371030747890472412109375</LatitudeDegrees>
              <LongitudeDegrees>-0.6995038501918315887451171875</LongitudeDegrees>
            </Position>
            <AltitudeMeters>45.59999847412109375</AltitudeMeters>
            <DistanceMeters>23250.108917047</DistanceMeters>
          </Trackpoint>
          <Trackpoint>
            <Time>2022-07-04T10:11:09.000Z</Time>
            <Position>
              <LatitudeDegrees>44.7774147056043148040771484375</LatitudeDegrees>
              <LongitudeDegrees>-0.69989553652703762054443359375</LongitudeDegrees>
            </Position>
            <AltitudeMeters>45.799999237060546875</AltitudeMeters>
            <DistanceMeters>23285.757996115</DistanceMeters>
          </Trackpoint>
          <Trackpoint>
            <Time>2022-07-04T10:11:12.000Z</Time>
            <Position>
              <LatitudeDegrees>44.777349494397640228271484375</LatitudeDegrees>
              <LongitudeDegrees>-0.70007675327360630035400390625</LongitudeDegrees>
            </Position>
            <AltitudeMeters>45.59999847412109375</AltitudeMeters>
            <DistanceMeters>23301.809918158</DistanceMeters>
          </Trackpoint>
          <Trackpoint>
            <Time>2022-07-04T10:11:19.000Z</Time>
            <Position>
              <LatitudeDegrees>44.77721144445240497589111328125</LatitudeDegrees>
              <LongitudeDegrees>-0.7004469819366931915283203125</LongitudeDegrees>
            </Position>
            <AltitudeMeters>45.40000152587890625</AltitudeMeters>
            <DistanceMeters>23334.850803766</DistanceMeters>
          </Trackpoint>
          <Trackpoint>
            <Time>2022-07-04T10:11:22.000Z</Time>
            <Position>
              <LatitudeDegrees>44.777142964303493499755859375</LatitudeDegrees>
              <LongitudeDegrees>-0.70061587728559970855712890625</LongitudeDegrees>
            </Position>
            <AltitudeMeters>45.40000152587890625</AltitudeMeters>
            <DistanceMeters>23350.21812491</DistanceMeters>
          </Trackpoint>
          <Trackpoint>
            <Time>2022-07-04T10:11:29.000Z</Time>
            <Position>
              <LatitudeDegrees>44.7770049981772899627685546875</LatitudeDegrees>
              <LongitudeDegrees>-0.70101602934300899505615234375</LongitudeDegrees>
            </Position>
            <AltitudeMeters>45.40000152587890625</AltitudeMeters>
            <DistanceMeters>23385.365422356</DistanceMeters>
          </Trackpoint>
          <Trackpoint>
            <Time>2022-07-04T10:11:30.000Z</Time>
            <Position>
              <LatitudeDegrees>44.77698848582804203033447265625</LatitudeDegrees>
              <LongitudeDegrees>-0.70107805542647838592529296875</LongitudeDegrees>
            </Position>
            <AltitudeMeters>45.40000152587890625</AltitudeMeters>
            <DistanceMeters>23390.599660784</DistanceMeters>
          </Trackpoint>
          <Trackpoint>
            <Time>2022-07-04T10:11:33.000Z</Time>
            <Position>
              <LatitudeDegrees>44.77692495100200176239013671875</LatitudeDegrees>
              <LongitudeDegrees>-0.70123965851962566375732421875</LongitudeDegrees>
            </Position>
            <AltitudeMeters>45.40000152587890625</AltitudeMeters>
            <DistanceMeters>23405.19546715</DistanceMeters>
          </Trackpoint>
          <Trackpoint>
            <Time>2022-07-04T10:11:34.000Z</Time>
            <Position>
              <LatitudeDegrees>44.7769057564437389373779296875</LatitudeDegrees>
              <LongitudeDegrees>-0.70129632018506526947021484375</LongitudeDegrees>
            </Position>
            <AltitudeMeters>45.40000152587890625</AltitudeMeters>
            <DistanceMeters>23410.155096999</DistanceMeters>
          </Trackpoint>
          <Trackpoint>
            <Time>2022-07-04T10:11:36.000Z</Time>
            <Position>
              <LatitudeDegrees>44.776859991252422332763671875</LatitudeDegrees>
              <LongitudeDegrees>-0.7014159299433231353759765625</LongitudeDegrees>
            </Position>
            <AltitudeMeters>45.40000152587890625</AltitudeMeters>
            <DistanceMeters>23420.890592593</DistanceMeters>
          </Trackpoint>
          <Trackpoint>
            <Time>2022-07-04T10:11:40.000Z</Time>
            <Position>
              <LatitudeDegrees>44.776772148907184600830078125</LatitudeDegrees>
              <LongitudeDegrees>-0.701644420623779296875</LongitudeDegrees>
            </Position>
            <AltitudeMeters>45.59999847412109375</AltitudeMeters>
            <DistanceMeters>23441.42076181</DistanceMeters>
          </Trackpoint>
          <Trackpoint>
            <Time>2022-07-04T10:11:41.000Z</Time>
            <Position>
              <LatitudeDegrees>44.77674960158765316009521484375</LatitudeDegrees>
              <LongitudeDegrees>-0.7017009146511554718017578125</LongitudeDegrees>
            </Position>
            <AltitudeMeters>45.59999847412109375</AltitudeMeters>
            <DistanceMeters>23446.541634977</DistanceMeters>
          </Trackpoint>
          <Trackpoint>
            <Time>2022-07-04T10:11:42.000Z</Time>
            <Position>
              <LatitudeDegrees>44.77672965265810489654541015625</LatitudeDegrees>
              <LongitudeDegrees>-0.7017584145069122314453125</LongitudeDegrees>
            </Position>
            <AltitudeMeters>45.59999847412109375</AltitudeMeters>
            <DistanceMeters>23451.598627808</DistanceMeters>
          </Trackpoint>
          <Trackpoint>
            <Time>2022-07-04T10:11:43.000Z</Time>
            <Position>
              <LatitudeDegrees>44.7767045907676219940185546875</LatitudeDegrees>
              <LongitudeDegrees>-0.701811052858829498291015625</LongitudeDegrees>
            </Position>
            <AltitudeMeters>45.59999847412109375</AltitudeMeters>
            <DistanceMeters>23456.60537248</DistanceMeters>
          </Trackpoint>
          <Trackpoint>
            <Time>2022-07-04T10:11:44.000Z</Time>
            <Position>
              <LatitudeDegrees>44.77667734958231449127197265625</LatitudeDegrees>
              <LongitudeDegrees>-0.7018668763339519500732421875</LongitudeDegrees>
            </Position>
            <AltitudeMeters>45.40000152587890625</AltitudeMeters>
            <DistanceMeters>23461.957325626</DistanceMeters>
          </Trackpoint>
          <Trackpoint>
            <Time>2022-07-04T10:11:46.000Z</Time>
            <Position>
              <LatitudeDegrees>44.77663577534258365631103515625</LatitudeDegrees>
              <LongitudeDegrees>-0.70197500288486480712890625</LongitudeDegrees>
            </Position>
            <AltitudeMeters>45.40000152587890625</AltitudeMeters>
            <DistanceMeters>23471.672383989</DistanceMeters>
          </Trackpoint>
          <Trackpoint>
            <Time>2022-07-04T10:11:48.000Z</Time>
            <Position>
              <LatitudeDegrees>44.7765895910561084747314453125</LatitudeDegrees>
              <LongitudeDegrees>-0.702092014253139495849609375</LongitudeDegrees>
            </Position>
            <AltitudeMeters>45.40000152587890625</AltitudeMeters>
            <DistanceMeters>23482.250697054</DistanceMeters>
          </Trackpoint>
          <Trackpoint>
            <Time>2022-07-04T10:11:49.000Z</Time>
            <Position>
              <LatitudeDegrees>44.7765718214213848114013671875</LatitudeDegrees>
              <LongitudeDegrees>-0.7021526992321014404296875</LongitudeDegrees>
            </Position>
            <AltitudeMeters>45.40000152587890625</AltitudeMeters>
            <DistanceMeters>23487.437275668</DistanceMeters>
          </Trackpoint>
          <Trackpoint>
            <Time>2022-07-04T10:11:50.000Z</Time>
            <Position>
              <LatitudeDegrees>44.77655447088181972503662109375</LatitudeDegrees>
              <LongitudeDegrees>-0.7022112049162387847900390625</LongitudeDegrees>
            </Position>
            <AltitudeMeters>45.40000152587890625</AltitudeMeters>
            <DistanceMeters>23492.445823598</DistanceMeters>
          </Trackpoint>
          <Trackpoint>
            <Time>2022-07-04T10:11:53.000Z</Time>
            <Position>
              <LatitudeDegrees>44.77649227716028690338134765625</LatitudeDegrees>
              <LongitudeDegrees>-0.70236082188785076141357421875</LongitudeDegrees>
            </Position>
            <AltitudeMeters>45.59999847412109375</AltitudeMeters>
            <DistanceMeters>23506.144510344</DistanceMeters>
          </Trackpoint>
          <Trackpoint>
            <Time>2022-07-04T10:11:55.000Z</Time>
            <Position>
              <LatitudeDegrees>44.77645137347280979156494140625</LatitudeDegrees>
              <LongitudeDegrees>-0.702462159097194671630859375</LongitudeDegrees>
            </Position>
            <AltitudeMeters>45.59999847412109375</AltitudeMeters>
            <DistanceMeters>23515.355241487</DistanceMeters>
          </Trackpoint>
          <Trackpoint>
            <Time>2022-07-04T10:11:57.000Z</Time>
            <Position>
              <LatitudeDegrees>44.776407368481159210205078125</LatitudeDegrees>
              <LongitudeDegrees>-0.70256131701171398162841796875</LongitudeDegrees>
            </Position>
            <AltitudeMeters>45.59999847412109375</AltitudeMeters>
            <DistanceMeters>23524.594848768</DistanceMeters>
          </Trackpoint>
          <Trackpoint>
            <Time>2022-07-04T10:12:00.000Z</Time>
            <Position>
              <LatitudeDegrees>44.77633536793291568756103515625</LatitudeDegrees>
              <LongitudeDegrees>-0.70272476412355899810791015625</LongitudeDegrees>
            </Position>
            <AltitudeMeters>45.59999847412109375</AltitudeMeters>
            <DistanceMeters>23539.793182737</DistanceMeters>
          </Trackpoint>
          <Trackpoint>
            <Time>2022-07-04T10:12:02.000Z</Time>
            <Position>
              <LatitudeDegrees>44.77629094384610652923583984375</LatitudeDegrees>
              <LongitudeDegrees>-0.70282098837196826934814453125</LongitudeDegrees>
            </Position>
            <AltitudeMeters>45.59999847412109375</AltitudeMeters>
            <DistanceMeters>23548.862137266</DistanceMeters>
          </Trackpoint>
          <Trackpoint>
            <Time>2022-07-04T10:12:03.000Z</Time>
            <Position>
              <LatitudeDegrees>44.77627091109752655029296875</LatitudeDegrees>
              <LongitudeDegrees>-0.7028683461248874664306640625</LongitudeDegrees>
            </Position>
            <AltitudeMeters>45.59999847412109375</AltitudeMeters>
            <DistanceMeters>23553.218881542</DistanceMeters>
          </Trackpoint>
          <Trackpoint>
            <Time>2022-07-04T10:12:04.000Z</Time>
            <Position>
              <LatitudeDegrees>44.77625054307281970977783203125</LatitudeDegrees>
              <LongitudeDegrees>-0.7029333896934986114501953125</LongitudeDegrees>
            </Position>
            <AltitudeMeters>45.59999847412109375</AltitudeMeters>
            <DistanceMeters>23558.835916979</DistanceMeters>
          </Trackpoint>
          <Trackpoint>
            <Time>2022-07-04T10:12:08.000Z</Time>
            <Position>
              <LatitudeDegrees>44.776166640222072601318359375</LatitudeDegrees>
              <LongitudeDegrees>-0.70316858589649200439453125</LongitudeDegrees>
            </Position>
            <AltitudeMeters>45.40000152587890625</AltitudeMeters>
            <DistanceMeters>23579.633094708</DistanceMeters>
          </Trackpoint>
          <Trackpoint>
            <Time>2022-07-04T10:12:10.000Z</Time>
            <Position>
              <LatitudeDegrees>44.776125065982341766357421875</LatitudeDegrees>
              <LongitudeDegrees>-0.70328350178897380828857421875</LongitudeDegrees>
            </Position>
            <AltitudeMeters>45.40000152587890625</AltitudeMeters>
            <DistanceMeters>23589.823574535</DistanceMeters>
          </Trackpoint>
          <Trackpoint>
            <Time>2022-07-04T10:12:12.000Z</Time>
            <Position>
              <LatitudeDegrees>44.77608541958034038543701171875</LatitudeDegrees>
              <LongitudeDegrees>-0.7033997587859630584716796875</LongitudeDegrees>
            </Position>
            <AltitudeMeters>45.59999847412109375</AltitudeMeters>
            <DistanceMeters>23600.014054362</DistanceMeters>
          </Trackpoint>
          <Trackpoint>
            <Time>2022-07-04T10:12:15.000Z</Time>
            <Position>
              <LatitudeDegrees>44.77602775208652019500732421875</LatitudeDegrees>
              <LongitudeDegrees>-0.7035741023719310760498046875</LongitudeDegrees>
            </Position>
            <AltitudeMeters>45.59999847412109375</AltitudeMeters>
            <DistanceMeters>23615.21060578</DistanceMeters>
          </Trackpoint>
          <Trackpoint>
            <Time>2022-07-04T10:12:18.000Z</Time>
            <Position>
              <LatitudeDegrees>44.77597746066749095916748046875</LatitudeDegrees>
              <LongitudeDegrees>-0.70372941903769969940185546875</LongitudeDegrees>
            </Position>
            <AltitudeMeters>45.59999847412109375</AltitudeMeters>
            <DistanceMeters>23628.698375056</DistanceMeters>
          </Trackpoint>
          <Trackpoint>
            <Time>2022-07-04T10:12:24.000Z</Time>
            <Position>
              <LatitudeDegrees>44.775852821767330169677734375</LatitudeDegrees>
              <LongitudeDegrees>-0.70403468795120716094970703125</LongitudeDegrees>
            </Position>
            <AltitudeMeters>45.40000152587890625</AltitudeMeters>
            <DistanceMeters>23656.522385258</DistanceMeters>
          </Trackpoint>
          <Trackpoint>
            <Time>2022-07-04T10:12:26.000Z</Time>
            <Position>
              <LatitudeDegrees>44.77581921033561229705810546875</LatitudeDegrees>
              <LongitudeDegrees>-0.70414113812148571014404296875</LongitudeDegrees>
            </Position>
            <AltitudeMeters>45.40000152587890625</AltitudeMeters>
            <DistanceMeters>23665.727722697</DistanceMeters>
          </Trackpoint>
          <Trackpoint>
            <Time>2022-07-04T10:12:33.000Z</Time>
            <Position>
              <LatitudeDegrees>44.7756987623870372772216796875</LatitudeDegrees>
              <LongitudeDegrees>-0.7045041583478450775146484375</LongitudeDegrees>
            </Position>
            <AltitudeMeters>45.59999847412109375</AltitudeMeters>
            <DistanceMeters>23697.388308063</DistanceMeters>
          </Trackpoint>
          <Trackpoint>
            <Time>2022-07-04T10:12:38.000Z</Time>
            <Position>
              <LatitudeDegrees>44.77559658698737621307373046875</LatitudeDegrees>
              <LongitudeDegrees>-0.7047623209655284881591796875</LongitudeDegrees>
            </Position>
            <AltitudeMeters>45.799999237060546875</AltitudeMeters>
            <DistanceMeters>23720.742077717</DistanceMeters>
          </Trackpoint>
          <Trackpoint>
            <Time>2022-07-04T10:12:40.000Z</Time>
            <Position>
              <LatitudeDegrees>44.775553755462169647216796875</LatitudeDegrees>
              <LongitudeDegrees>-0.7048645801842212677001953125</LongitudeDegrees>
            </Position>
            <AltitudeMeters>45.799999237060546875</AltitudeMeters>
            <DistanceMeters>23730.123288994</DistanceMeters>
          </Trackpoint>
          <Trackpoint>
            <Time>2022-07-04T10:12:47.000Z</Time>
            <Position>
              <LatitudeDegrees>44.77543699555099010467529296875</LatitudeDegrees>
              <LongitudeDegrees>-0.7052478007972240447998046875</LongitudeDegrees>
            </Position>
            <AltitudeMeters>45.799999237060546875</AltitudeMeters>
            <DistanceMeters>23763.072765935</DistanceMeters>
          </Trackpoint>
          <Trackpoint>
            <Time>2022-07-04T10:12:51.000Z</Time>
            <Position>
              <LatitudeDegrees>44.77540246210992336273193359375</LatitudeDegrees>
              <LongitudeDegrees>-0.7054670713841915130615234375</LongitudeDegrees>
            </Position>
            <AltitudeMeters>46</AltitudeMeters>
            <DistanceMeters>23780.818607305</DistanceMeters>
          </Trackpoint>
          <Trackpoint>
            <Time>2022-07-04T10:12:53.000Z</Time>
            <Position>
              <LatitudeDegrees>44.7754146158695220947265625</LatitudeDegrees>
              <LongitudeDegrees>-0.7055864296853542327880859375</LongitudeDegrees>
            </Position>
            <AltitudeMeters>46</AltitudeMeters>
            <DistanceMeters>23790.345953652</DistanceMeters>
          </Trackpoint>
          <Trackpoint>
            <Time>2022-07-04T10:12:55.000Z</Time>
            <Position>
              <LatitudeDegrees>44.7754235006868839263916015625</LatitudeDegrees>
              <LongitudeDegrees>-0.70569547824561595916748046875</LongitudeDegrees>
            </Position>
            <AltitudeMeters>46</AltitudeMeters>
            <DistanceMeters>23799.018410438</DistanceMeters>
          </Trackpoint>
          <Trackpoint>
            <Time>2022-07-04T10:12:57.000Z</Time>
            <Position>
              <LatitudeDegrees>44.77540950290858745574951171875</LatitudeDegrees>
              <LongitudeDegrees>-0.7057869248092174530029296875</LongitudeDegrees>
            </Position>
            <AltitudeMeters>46</AltitudeMeters>
            <DistanceMeters>23806.409754191</DistanceMeters>
          </Trackpoint>
          <Trackpoint>
            <Time>2022-07-04T10:12:58.000Z</Time>
            <Position>
              <LatitudeDegrees>44.775385446846485137939453125</LatitudeDegrees>
              <LongitudeDegrees>-0.7058273255825042724609375</LongitudeDegrees>
            </Position>
            <AltitudeMeters>46</AltitudeMeters>
            <DistanceMeters>23810.575784307</DistanceMeters>
          </Trackpoint>
          <Trackpoint>
            <Time>2022-07-04T10:12:59.000Z</Time>
            <Position>
              <LatitudeDegrees>44.7753534279763698577880859375</LatitudeDegrees>
              <LongitudeDegrees>-0.70585842244327068328857421875</LongitudeDegrees>
            </Position>
            <AltitudeMeters>46</AltitudeMeters>
            <DistanceMeters>23814.903413975</DistanceMeters>
          </Trackpoint>
          <Trackpoint>
            <Time>2022-07-04T10:13:02.000Z</Time>
            <Position>
              <LatitudeDegrees>44.775234572589397430419921875</LatitudeDegrees>
              <LongitudeDegrees>-0.70593201555311679840087890625</LongitudeDegrees>
            </Position>
            <AltitudeMeters>46</AltitudeMeters>
            <DistanceMeters>23829.353412508</DistanceMeters>
          </Trackpoint>
          <Trackpoint>
            <Time>2022-07-04T10:13:03.000Z</Time>
            <Position>
              <LatitudeDegrees>44.77520599029958248138427734375</LatitudeDegrees>
              <LongitudeDegrees>-0.70595883764326572418212890625</LongitudeDegrees>
            </Position>
            <AltitudeMeters>46</AltitudeMeters>
            <DistanceMeters>23833.175802296</DistanceMeters>
          </Trackpoint>
          <Trackpoint>
            <Time>2022-07-04T10:13:04.000Z</Time>
            <Position>
              <LatitudeDegrees>44.77517045103013515472412109375</LatitudeDegrees>
              <LongitudeDegrees>-0.70601047016680240631103515625</LongitudeDegrees>
            </Position>
            <AltitudeMeters>46</AltitudeMeters>
            <DistanceMeters>23838.857573436</DistanceMeters>
          </Trackpoint>
          <Trackpoint>
            <Time>2022-07-04T10:13:08.000Z</Time>
            <Position>
              <LatitudeDegrees>44.7750699520111083984375</LatitudeDegrees>
              <LongitudeDegrees>-0.7062147371470928192138671875</LongitudeDegrees>
            </Position>
            <AltitudeMeters>46.200000762939453125</AltitudeMeters>
            <DistanceMeters>23858.493873091</DistanceMeters>
          </Trackpoint>
          <Trackpoint>
            <Time>2022-07-04T10:13:12.000Z</Time>
            <Position>
              <LatitudeDegrees>44.77495738305151462554931640625</LatitudeDegrees>
              <LongitudeDegrees>-0.706415735185146331787109375</LongitudeDegrees>
            </Position>
            <AltitudeMeters>46.200000762939453125</AltitudeMeters>
            <DistanceMeters>23878.722290824</DistanceMeters>
          </Trackpoint>
          <Trackpoint>
            <Time>2022-07-04T10:13:13.000Z</Time>
            <Position>
              <LatitudeDegrees>44.77493475191295146942138671875</LatitudeDegrees>
              <LongitudeDegrees>-0.70647264830768108367919921875</LongitudeDegrees>
            </Position>
            <AltitudeMeters>46.200000762939453125</AltitudeMeters>
            <DistanceMeters>23883.876559434</DistanceMeters>
          </Trackpoint>
          <Trackpoint>
            <Time>2022-07-04T10:13:14.000Z</Time>
            <Position>
              <LatitudeDegrees>44.774910695850849151611328125</LatitudeDegrees>
              <LongitudeDegrees>-0.7065345905721187591552734375</LongitudeDegrees>
            </Position>
            <AltitudeMeters>46.200000762939453125</AltitudeMeters>
            <DistanceMeters>23889.455687816</DistanceMeters>
          </Trackpoint>
          <Trackpoint>
            <Time>2022-07-04T10:13:19.000Z</Time>
            <Position>
              <LatitudeDegrees>44.774801395833492279052734375</LatitudeDegrees>
              <LongitudeDegrees>-0.70681429468095302581787109375</LongitudeDegrees>
            </Position>
            <AltitudeMeters>46.200000762939453125</AltitudeMeters>
            <DistanceMeters>23914.682551223</DistanceMeters>
          </Trackpoint>
          <Trackpoint>
            <Time>2022-07-04T10:13:22.000Z</Time>
            <Position>
              <LatitudeDegrees>44.7747392021119594573974609375</LatitudeDegrees>
              <LongitudeDegrees>-0.7069674320518970489501953125</LongitudeDegrees>
            </Position>
            <AltitudeMeters>46.200000762939453125</AltitudeMeters>
            <DistanceMeters>23928.622034174</DistanceMeters>
          </Trackpoint>
          <Trackpoint>
            <Time>2022-07-04T10:13:23.000Z</Time>
            <Position>
              <LatitudeDegrees>44.774715565145015716552734375</LatitudeDegrees>
              <LongitudeDegrees>-0.7070240937173366546630859375</LongitudeDegrees>
            </Position>
            <AltitudeMeters>46.200000762939453125</AltitudeMeters>
            <DistanceMeters>23933.814702877</DistanceMeters>
          </Trackpoint>
          <Trackpoint>
            <Time>2022-07-04T10:13:27.000Z</Time>
            <Position>
              <LatitudeDegrees>44.774618335068225860595703125</LatitudeDegrees>
              <LongitudeDegrees>-0.70723079144954681396484375</LongitudeDegrees>
            </Position>
            <AltitudeMeters>46</AltitudeMeters>
            <DistanceMeters>23953.4063447</DistanceMeters>
          </Trackpoint>
          <Trackpoint>
            <Time>2022-07-04T10:13:30.000Z</Time>
            <Position>
              <LatitudeDegrees>44.7745407186448574066162109375</LatitudeDegrees>
              <LongitudeDegrees>-0.70738174952566623687744140625</LongitudeDegrees>
            </Position>
            <AltitudeMeters>46</AltitudeMeters>
            <DistanceMeters>23968.133952659</DistanceMeters>
          </Trackpoint>
          <Trackpoint>
            <Time>2022-07-04T10:13:37.000Z</Time>
            <Position>
              <LatitudeDegrees>44.77440300397574901580810546875</LatitudeDegrees>
              <LongitudeDegrees>-0.70777318440377712249755859375</LongitudeDegrees>
            </Position>
            <AltitudeMeters>45.799999237060546875</AltitudeMeters>
            <DistanceMeters>24002.65180987</DistanceMeters>
          </Trackpoint>
          <Trackpoint>
            <Time>2022-07-04T10:13:44.000Z</Time>
            <Position>
              <LatitudeDegrees>44.7742564044892787933349609375</LatitudeDegrees>
              <LongitudeDegrees>-0.70817450992763042449951171875</LongitudeDegrees>
            </Position>
            <AltitudeMeters>46.200000762939453125</AltitudeMeters>
            <DistanceMeters>24038.313045488</DistanceMeters>
          </Trackpoint>
          <Trackpoint>
            <Time>2022-07-04T10:13:45.000Z</Time>
            <Position>
              <LatitudeDegrees>44.77423385716974735260009765625</LatitudeDegrees>
              <LongitudeDegrees>-0.70822999812662601470947265625</LongitudeDegrees>
            </Position>
            <AltitudeMeters>46.200000762939453125</AltitudeMeters>
            <DistanceMeters>24043.365572193</DistanceMeters>
          </Trackpoint>
          <Trackpoint>
            <Time>2022-07-04T10:13:54.000Z</Time>
            <Position>
              <LatitudeDegrees>44.77402565069496631622314453125</LatitudeDegrees>
              <LongitudeDegrees>-0.708750598132610321044921875</LongitudeDegrees>
            </Position>
            <AltitudeMeters>46</AltitudeMeters>
            <DistanceMeters>24090.577881283</DistanceMeters>
          </Trackpoint>
          <Trackpoint>
            <Time>2022-07-04T10:13:55.000Z</Time>
            <Position>
              <LatitudeDegrees>44.7740032710134983062744140625</LatitudeDegrees>
              <LongitudeDegrees>-0.70880918763577938079833984375</LongitudeDegrees>
            </Position>
            <AltitudeMeters>46</AltitudeMeters>
            <DistanceMeters>24095.834499389</DistanceMeters>
          </Trackpoint>
          <Trackpoint>
            <Time>2022-07-04T10:13:56.000Z</Time>
            <Position>
              <LatitudeDegrees>44.77398055605590343475341796875</LatitudeDegrees>
              <LongitudeDegrees>-0.708867944777011871337890625</LongitudeDegrees>
            </Position>
            <AltitudeMeters>46</AltitudeMeters>
            <DistanceMeters>24101.12109438</DistanceMeters>
          </Trackpoint>
          <Trackpoint>
            <Time>2022-07-04T10:14:05.000Z</Time>
            <Position>
              <LatitudeDegrees>44.77378316223621368408203125</LatitudeDegrees>
              <LongitudeDegrees>-0.7093938253819942474365234375</LongitudeDegrees>
            </Position>
            <AltitudeMeters>45.799999237060546875</AltitudeMeters>
            <DistanceMeters>24148.122925001</DistanceMeters>
          </Trackpoint>
          <Trackpoint>
            <Time>2022-07-04T10:14:07.000Z</Time>
            <Position>
              <LatitudeDegrees>44.77373865433037281036376953125</LatitudeDegrees>
              <LongitudeDegrees>-0.70950689725577831268310546875</LongitudeDegrees>
            </Position>
            <AltitudeMeters>45.799999237060546875</AltitudeMeters>
            <DistanceMeters>24158.338628279</DistanceMeters>
          </Trackpoint>
          <Trackpoint>
            <Time>2022-07-04T10:14:14.000Z</Time>
            <Position>
              <LatitudeDegrees>44.773585684597492218017578125</LatitudeDegrees>
              <LongitudeDegrees>-0.70988827385008335113525390625</LongitudeDegrees>
            </Position>
            <AltitudeMeters>46.200000762939453125</AltitudeMeters>
            <DistanceMeters>24192.949491904</DistanceMeters>
          </Trackpoint>
          <Trackpoint>
            <Time>2022-07-04T10:14:25.000Z</Time>
            <Position>
              <LatitudeDegrees>44.77335937321186065673828125</LatitudeDegrees>
              <LongitudeDegrees>-0.71048942394554615020751953125</LongitudeDegrees>
            </Position>
            <AltitudeMeters>46.200000762939453125</AltitudeMeters>
            <DistanceMeters>24246.713789634</DistanceMeters>
          </Trackpoint>
          <Trackpoint>
            <Time>2022-07-04T10:14:33.000Z</Time>
            <Position>
              <LatitudeDegrees>44.7731949202716350555419921875</LatitudeDegrees>
              <LongitudeDegrees>-0.7109173201024532318115234375</LongitudeDegrees>
            </Position>
            <AltitudeMeters>46.40000152587890625</AltitudeMeters>
            <DistanceMeters>24285.160052819</DistanceMeters>
          </Trackpoint>
          <Trackpoint>
            <Time>2022-07-04T10:14:35.000Z</Time>
            <Position>
              <LatitudeDegrees>44.7731496579945087432861328125</LatitudeDegrees>
              <LongitudeDegrees>-0.71102075278759002685546875</LongitudeDegrees>
            </Position>
            <AltitudeMeters>46.40000152587890625</AltitudeMeters>
            <DistanceMeters>24294.761043411</DistanceMeters>
          </Trackpoint>
          <Trackpoint>
            <Time>2022-07-04T10:14:37.000Z</Time>
            <Position>
              <LatitudeDegrees>44.7731077484786510467529296875</LatitudeDegrees>
              <LongitudeDegrees>-0.711128711700439453125</LongitudeDegrees>
            </Position>
            <AltitudeMeters>46.59999847412109375</AltitudeMeters>
            <DistanceMeters>24304.483534872</DistanceMeters>
          </Trackpoint>
          <Trackpoint>
            <Time>2022-07-04T10:14:41.000Z</Time>
            <Position>
              <LatitudeDegrees>44.7730249352753162384033203125</LatitudeDegrees>
              <LongitudeDegrees>-0.71134136058390140533447265625</LongitudeDegrees>
            </Position>
            <AltitudeMeters>46.59999847412109375</AltitudeMeters>
            <DistanceMeters>24323.648093286</DistanceMeters>
          </Trackpoint>
          <Trackpoint>
            <Time>2022-07-04T10:14:48.000Z</Time>
            <Position>
              <LatitudeDegrees>44.77287950925529003143310546875</LatitudeDegrees>
              <LongitudeDegrees>-0.7117213122546672821044921875</LongitudeDegrees>
            </Position>
            <AltitudeMeters>46.59999847412109375</AltitudeMeters>
            <DistanceMeters>24357.75487425</DistanceMeters>
          </Trackpoint>
          <Trackpoint>
            <Time>2022-07-04T10:14:49.000Z</Time>
            <Position>
              <LatitudeDegrees>44.77286257781088352203369140625</LatitudeDegrees>
              <LongitudeDegrees>-0.7117635570466518402099609375</LongitudeDegrees>
            </Position>
            <AltitudeMeters>46.59999847412109375</AltitudeMeters>
            <DistanceMeters>24361.586702051</DistanceMeters>
          </Trackpoint>
          <Trackpoint>
            <Time>2022-07-04T10:14:55.000Z</Time>
            <Position>
              <LatitudeDegrees>44.77272628806531429290771484375</LatitudeDegrees>
              <LongitudeDegrees>-0.71207427419722080230712890625</LongitudeDegrees>
            </Position>
            <AltitudeMeters>46.59999847412109375</AltitudeMeters>
            <DistanceMeters>24390.446050806</DistanceMeters>
          </Trackpoint>
          <Trackpoint>
            <Time>2022-07-04T10:14:59.000Z</Time>
            <Position>
              <LatitudeDegrees>44.7726412117481231689453125</LatitudeDegrees>
              <LongitudeDegrees>-0.71229538880288600921630859375</LongitudeDegrees>
            </Position>
            <AltitudeMeters>46.59999847412109375</AltitudeMeters>
            <DistanceMeters>24410.318224896</DistanceMeters>
          </Trackpoint>
          <Trackpoint>
            <Time>2022-07-04T10:15:07.000Z</Time>
            <Position>
              <LatitudeDegrees>44.772486649453639984130859375</LatitudeDegrees>
              <LongitudeDegrees>-0.71273292414844036102294921875</LongitudeDegrees>
            </Position>
            <AltitudeMeters>46.799999237060546875</AltitudeMeters>
            <DistanceMeters>24448.933461826</DistanceMeters>
          </Trackpoint>
          <Trackpoint>
            <Time>2022-07-04T10:15:16.000Z</Time>
            <Position>
              <LatitudeDegrees>44.77228514850139617919921875</LatitudeDegrees>
              <LongitudeDegrees>-0.71326182223856449127197265625</LongitudeDegrees>
            </Position>
            <AltitudeMeters>47</AltitudeMeters>
            <DistanceMeters>24496.361789044</DistanceMeters>
          </Trackpoint>
          <Trackpoint>
            <Time>2022-07-04T10:15:26.000Z</Time>
            <Position>
              <LatitudeDegrees>44.7720170952379703521728515625</LatitudeDegrees>
              <LongitudeDegrees>-0.71383447386324405670166015625</LongitudeDegrees>
            </Position>
            <AltitudeMeters>47.200000762939453125</AltitudeMeters>
            <DistanceMeters>24550.560515296</DistanceMeters>
          </Trackpoint>
          <Trackpoint>
            <Time>2022-07-04T10:15:35.000Z</Time>
            <Position>
              <LatitudeDegrees>44.771730266511440277099609375</LatitudeDegrees>
              <LongitudeDegrees>-0.71432699449360370635986328125</LongitudeDegrees>
            </Position>
            <AltitudeMeters>46.200000762939453125</AltitudeMeters>
            <DistanceMeters>24600.896247524</DistanceMeters>
          </Trackpoint>
          <Trackpoint>
            <Time>2022-07-04T10:15:46.000Z</Time>
            <Position>
              <LatitudeDegrees>44.77138015441596508026123046875</LatitudeDegrees>
              <LongitudeDegrees>-0.7148822955787181854248046875</LongitudeDegrees>
            </Position>
            <AltitudeMeters>46.200000762939453125</AltitudeMeters>
            <DistanceMeters>24659.579687036</DistanceMeters>
          </Trackpoint>
          <Trackpoint>
            <Time>2022-07-04T10:15:53.000Z</Time>
            <Position>
              <LatitudeDegrees>44.77117697708308696746826171875</LatitudeDegrees>
              <LongitudeDegrees>-0.71520097553730010986328125</LongitudeDegrees>
            </Position>
            <AltitudeMeters>46.40000152587890625</AltitudeMeters>
            <DistanceMeters>24693.424408883</DistanceMeters>
          </Trackpoint>
          <Trackpoint>
            <Time>2022-07-04T10:15:56.000Z</Time>
            <Position>
              <LatitudeDegrees>44.77108561433851718902587890625</LatitudeDegrees>
              <LongitudeDegrees>-0.7153352536261081695556640625</LongitudeDegrees>
            </Position>
            <AltitudeMeters>46.40000152587890625</AltitudeMeters>
            <DistanceMeters>24708.120713466</DistanceMeters>
          </Trackpoint>
          <Trackpoint>
            <Time>2022-07-04T10:16:01.000Z</Time>
            <Position>
              <LatitudeDegrees>44.77093105204403400421142578125</LatitudeDegrees>
              <LongitudeDegrees>-0.7155702821910381317138671875</LongitudeDegrees>
            </Position>
            <AltitudeMeters>46.40000152587890625</AltitudeMeters>
            <DistanceMeters>24733.435302242</DistanceMeters>
          </Trackpoint>
          <Trackpoint>
            <Time>2022-07-04T10:16:06.000Z</Time>
            <Position>
              <LatitudeDegrees>44.77078218944370746612548828125</LatitudeDegrees>
              <LongitudeDegrees>-0.7157912291586399078369140625</LongitudeDegrees>
            </Position>
            <AltitudeMeters>46.59999847412109375</AltitudeMeters>
            <DistanceMeters>24757.504464136</DistanceMeters>
          </Trackpoint>
          <Trackpoint>
            <Time>2022-07-04T10:16:07.000Z</Time>
            <Position>
              <LatitudeDegrees>44.7707537747919559478759765625</LatitudeDegrees>
              <LongitudeDegrees>-0.7158297859132289886474609375</LongitudeDegrees>
            </Position>
            <AltitudeMeters>46.59999847412109375</AltitudeMeters>
            <DistanceMeters>24761.896302394</DistanceMeters>
          </Trackpoint>
          <Trackpoint>
            <Time>2022-07-04T10:16:11.000Z</Time>
            <Position>
              <LatitudeDegrees>44.7706354223191738128662109375</LatitudeDegrees>
              <LongitudeDegrees>-0.71600035764276981353759765625</LongitudeDegrees>
            </Position>
            <AltitudeMeters>46.59999847412109375</AltitudeMeters>
            <DistanceMeters>24780.74276166</DistanceMeters>
          </Trackpoint>
          <Trackpoint>
            <Time>2022-07-04T10:16:12.000Z</Time>
            <Position>
              <LatitudeDegrees>44.7706106118857860565185546875</LatitudeDegrees>
              <LongitudeDegrees>-0.7160527445375919342041015625</LongitudeDegrees>
            </Position>
            <AltitudeMeters>46.59999847412109375</AltitudeMeters>
            <DistanceMeters>24785.718750969</DistanceMeters>
          </Trackpoint>
          <Trackpoint>
            <Time>2022-07-04T10:16:20.000Z</Time>
            <Position>
              <LatitudeDegrees>44.77041640318930149078369140625</LatitudeDegrees>
              <LongitudeDegrees>-0.716376788914203643798828125</LongitudeDegrees>
            </Position>
            <AltitudeMeters>45.799999237060546875</AltitudeMeters>
            <DistanceMeters>24819.227762973</DistanceMeters>
          </Trackpoint>
          <Trackpoint>
            <Time>2022-07-04T10:16:25.000Z</Time>
            <Position>
              <LatitudeDegrees>44.77034163661301136016845703125</LatitudeDegrees>
              <LongitudeDegrees>-0.71649237535893917083740234375</LongitudeDegrees>
            </Position>
            <AltitudeMeters>45.799999237060546875</AltitudeMeters>
            <DistanceMeters>24831.583428571</DistanceMeters>
          </Trackpoint>
          <Trackpoint>
            <Time>2022-07-04T10:16:28.000Z</Time>
            <Position>
              <LatitudeDegrees>44.77033744566142559051513671875</LatitudeDegrees>
              <LongitudeDegrees>-0.716500170528888702392578125</LongitudeDegrees>
            </Position>
            <AltitudeMeters>45.59999847412109375</AltitudeMeters>
            <DistanceMeters>24832.355429248</DistanceMeters>
          </Trackpoint>
          <Trackpoint>
            <Time>2022-07-04T10:23:59.000Z</Time>
            <Position>
              <LatitudeDegrees>44.77022697217762470245361328125</LatitudeDegrees>
              <LongitudeDegrees>-0.71661776863038539886474609375</LongitudeDegrees>
            </Position>
            <AltitudeMeters>42.59999847412109375</AltitudeMeters>
            <DistanceMeters>24847.767637424</DistanceMeters>
          </Trackpoint>
          <Trackpoint>
            <Time>2022-07-04T10:24:00.000Z</Time>
            <Position>
              <LatitudeDegrees>44.7702156566083431243896484375</LatitudeDegrees>
              <LongitudeDegrees>-0.71663386188447475433349609375</LongitudeDegrees>
            </Position>
            <AltitudeMeters>42.40000152587890625</AltitudeMeters>
            <DistanceMeters>24849.560597885</DistanceMeters>
          </Trackpoint>
          <Trackpoint>
            <Time>2022-07-04T10:24:06.000Z</Time>
            <Position>
              <LatitudeDegrees>44.7700976394116878509521484375</LatitudeDegrees>
              <LongitudeDegrees>-0.71677601896226406097412109375</LongitudeDegrees>
            </Position>
            <AltitudeMeters>42.200000762939453125</AltitudeMeters>
            <DistanceMeters>24866.843969337</DistanceMeters>
          </Trackpoint>
          <Trackpoint>
            <Time>2022-07-04T10:24:09.000Z</Time>
            <Position>
              <LatitudeDegrees>44.7700198553502559661865234375</LatitudeDegrees>
              <LongitudeDegrees>-0.71687291376292705535888671875</LongitudeDegrees>
            </Position>
            <AltitudeMeters>42.40000152587890625</AltitudeMeters>
            <DistanceMeters>24878.401343207</DistanceMeters>
          </Trackpoint>
          <Trackpoint>
            <Time>2022-07-04T10:24:12.000Z</Time>
            <Position>
              <LatitudeDegrees>44.76993662305176258087158203125</LatitudeDegrees>
              <LongitudeDegrees>-0.71699000895023345947265625</LongitudeDegrees>
            </Position>
            <AltitudeMeters>42.40000152587890625</AltitudeMeters>
            <DistanceMeters>24891.49470035</DistanceMeters>
          </Trackpoint>
          <Trackpoint>
            <Time>2022-07-04T10:24:22.000Z</Time>
            <Position>
              <LatitudeDegrees>44.76964308880269527435302734375</LatitudeDegrees>
              <LongitudeDegrees>-0.7174213416874408721923828125</LongitudeDegrees>
            </Position>
            <AltitudeMeters>42</AltitudeMeters>
            <DistanceMeters>24938.707583233</DistanceMeters>
          </Trackpoint>
          <Trackpoint>
            <Time>2022-07-04T10:24:32.000Z</Time>
            <Position>
              <LatitudeDegrees>44.76932910270988941192626953125</LatitudeDegrees>
              <LongitudeDegrees>-0.7179079949855804443359375</LongitudeDegrees>
            </Position>
            <AltitudeMeters>42.40000152587890625</AltitudeMeters>
            <DistanceMeters>24990.669733856</DistanceMeters>
          </Trackpoint>
          <Trackpoint>
            <Time>2022-07-04T10:24:41.000Z</Time>
            <Position>
              <LatitudeDegrees>44.76903322152793407440185546875</LatitudeDegrees>
              <LongitudeDegrees>-0.71835097856819629669189453125</LongitudeDegrees>
            </Position>
            <AltitudeMeters>42</AltitudeMeters>
            <DistanceMeters>25038.730240342</DistanceMeters>
          </Trackpoint>
          <Trackpoint>
            <Time>2022-07-04T10:24:49.000Z</Time>
            <Position>
              <LatitudeDegrees>44.76877681910991668701171875</LatitudeDegrees>
              <LongitudeDegrees>-0.7187460176646709442138671875</LongitudeDegrees>
            </Position>
            <AltitudeMeters>42.200000762939453125</AltitudeMeters>
            <DistanceMeters>25081.024921844</DistanceMeters>
          </Trackpoint>
          <Trackpoint>
            <Time>2022-07-04T10:24:51.000Z</Time>
            <Position>
              <LatitudeDegrees>44.76870833896100521087646484375</LatitudeDegrees>
              <LongitudeDegrees>-0.718841068446636199951171875</LongitudeDegrees>
            </Position>
            <AltitudeMeters>42</AltitudeMeters>
            <DistanceMeters>25091.725875044</DistanceMeters>
          </Trackpoint>
          <Trackpoint>
            <Time>2022-07-04T10:25:02.000Z</Time>
            <Position>
              <LatitudeDegrees>44.76834590546786785125732421875</LatitudeDegrees>
              <LongitudeDegrees>-0.71936887688934803009033203125</LongitudeDegrees>
            </Position>
            <AltitudeMeters>42</AltitudeMeters>
            <DistanceMeters>25149.749781336</DistanceMeters>
          </Trackpoint>
          <Trackpoint>
            <Time>2022-07-04T10:25:03.000Z</Time>
            <Position>
              <LatitudeDegrees>44.7683136351406574249267578125</LatitudeDegrees>
              <LongitudeDegrees>-0.7194175757467746734619140625</LongitudeDegrees>
            </Position>
            <AltitudeMeters>42</AltitudeMeters>
            <DistanceMeters>25155.014124088</DistanceMeters>
          </Trackpoint>
          <Trackpoint>
            <Time>2022-07-04T10:25:09.000Z</Time>
            <Position>
              <LatitudeDegrees>44.76811355911195278167724609375</LatitudeDegrees>
              <LongitudeDegrees>-0.71969275362789630889892578125</LongitudeDegrees>
            </Position>
            <AltitudeMeters>41.799999237060546875</AltitudeMeters>
            <DistanceMeters>25186.138528351</DistanceMeters>
          </Trackpoint>
          <Trackpoint>
            <Time>2022-07-04T10:25:16.000Z</Time>
            <Position>
              <LatitudeDegrees>44.76789630018174648284912109375</LatitudeDegrees>
              <LongitudeDegrees>-0.72001830674707889556884765625</LongitudeDegrees>
            </Position>
            <AltitudeMeters>42</AltitudeMeters>
            <DistanceMeters>25221.44475744</DistanceMeters>
          </Trackpoint>
          <Trackpoint>
            <Time>2022-07-04T10:25:17.000Z</Time>
            <Position>
              <LatitudeDegrees>44.76787098683416843414306640625</LatitudeDegrees>
              <LongitudeDegrees>-0.7200716994702816009521484375</LongitudeDegrees>
            </Position>
            <AltitudeMeters>42</AltitudeMeters>
            <DistanceMeters>25226.517795767</DistanceMeters>
          </Trackpoint>
          <Trackpoint>
            <Time>2022-07-04T10:25:18.000Z</Time>
            <Position>
              <LatitudeDegrees>44.76785807870328426361083984375</LatitudeDegrees>
              <LongitudeDegrees>-0.7201302051544189453125</LongitudeDegrees>
            </Position>
            <AltitudeMeters>42</AltitudeMeters>
            <DistanceMeters>25231.359497787</DistanceMeters>
          </Trackpoint>
          <Trackpoint>
            <Time>2022-07-04T10:25:20.000Z</Time>
            <Position>
              <LatitudeDegrees>44.7678579948842525482177734375</LatitudeDegrees>
              <LongitudeDegrees>-0.720241852104663848876953125</LongitudeDegrees>
            </Position>
            <AltitudeMeters>41.799999237060546875</AltitudeMeters>
            <DistanceMeters>25240.18113022</DistanceMeters>
          </Trackpoint>
          <Trackpoint>
            <Time>2022-07-04T10:25:24.000Z</Time>
            <Position>
              <LatitudeDegrees>44.76788456551730632781982421875</LatitudeDegrees>
              <LongitudeDegrees>-0.7204599492251873016357421875</LongitudeDegrees>
            </Position>
            <AltitudeMeters>41.59999847412109375</AltitudeMeters>
            <DistanceMeters>25257.667078533</DistanceMeters>
          </Trackpoint>
          <Trackpoint>
            <Time>2022-07-04T10:25:26.000Z</Time>
            <Position>
              <LatitudeDegrees>44.76790535263717174530029296875</LatitudeDegrees>
              <LongitudeDegrees>-0.72057000361382961273193359375</LongitudeDegrees>
            </Position>
            <AltitudeMeters>41.59999847412109375</AltitudeMeters>
            <DistanceMeters>25266.665561487</DistanceMeters>
          </Trackpoint>
          <Trackpoint>
            <Time>2022-07-04T10:25:37.000Z</Time>
            <Position>
              <LatitudeDegrees>44.76799738593399524688720703125</LatitudeDegrees>
              <LongitudeDegrees>-0.721162520349025726318359375</LongitudeDegrees>
            </Position>
            <AltitudeMeters>41.59999847412109375</AltitudeMeters>
            <DistanceMeters>25314.594082082</DistanceMeters>
          </Trackpoint>
          <Trackpoint>
            <Time>2022-07-04T10:25:45.000Z</Time>
            <Position>
              <LatitudeDegrees>44.7680467553436756134033203125</LatitudeDegrees>
              <LongitudeDegrees>-0.7216159813106060028076171875</LongitudeDegrees>
            </Position>
            <AltitudeMeters>42</AltitudeMeters>
            <DistanceMeters>25350.845621568</DistanceMeters>
          </Trackpoint>
          <Trackpoint>
            <Time>2022-07-04T10:25:52.000Z</Time>
            <Position>
              <LatitudeDegrees>44.76809159852564334869384765625</LatitudeDegrees>
              <LongitudeDegrees>-0.72204203344881534576416015625</LongitudeDegrees>
            </Position>
            <AltitudeMeters>42</AltitudeMeters>
            <DistanceMeters>25384.880444561</DistanceMeters>
          </Trackpoint>
          <Trackpoint>
            <Time>2022-07-04T10:25:54.000Z</Time>
            <Position>
              <LatitudeDegrees>44.76809822022914886474609375</LatitudeDegrees>
              <LongitudeDegrees>-0.72216876782476902008056640625</LongitudeDegrees>
            </Position>
            <AltitudeMeters>42</AltitudeMeters>
            <DistanceMeters>25394.921850517</DistanceMeters>
          </Trackpoint>
          <Trackpoint>
            <Time>2022-07-04T10:26:01.000Z</Time>
            <Position>
              <LatitudeDegrees>44.76814876310527324676513671875</LatitudeDegrees>
              <LongitudeDegrees>-0.7226325385272502899169921875</LongitudeDegrees>
            </Position>
            <AltitudeMeters>42</AltitudeMeters>
            <DistanceMeters>25431.998347078</DistanceMeters>
          </Trackpoint>
          <Trackpoint>
            <Time>2022-07-04T10:26:04.000Z</Time>
            <Position>
              <LatitudeDegrees>44.768165610730648040771484375</LatitudeDegrees>
              <LongitudeDegrees>-0.722829513251781463623046875</LongitudeDegrees>
            </Position>
            <AltitudeMeters>42</AltitudeMeters>
            <DistanceMeters>25447.675739101</DistanceMeters>
          </Trackpoint>
          <Trackpoint>
            <Time>2022-07-04T10:26:06.000Z</Time>
            <Position>
              <LatitudeDegrees>44.76817340590059757232666015625</LatitudeDegrees>
              <LongitudeDegrees>-0.722950212657451629638671875</LongitudeDegrees>
            </Position>
            <AltitudeMeters>42.200000762939453125</AltitudeMeters>
            <DistanceMeters>25457.253187431</DistanceMeters>
          </Trackpoint>
          <Trackpoint>
            <Time>2022-07-04T10:26:10.000Z</Time>
            <Position>
              <LatitudeDegrees>44.76820022799074649810791015625</LatitudeDegrees>
              <LongitudeDegrees>-0.72320334613323211669921875</LongitudeDegrees>
            </Position>
            <AltitudeMeters>42.40000152587890625</AltitudeMeters>
            <DistanceMeters>25477.477363868</DistanceMeters>
          </Trackpoint>
          <Trackpoint>
            <Time>2022-07-04T10:26:11.000Z</Time>
            <Position>
              <LatitudeDegrees>44.7682060115039348602294921875</LatitudeDegrees>
              <LongitudeDegrees>-0.7232675515115261077880859375</LongitudeDegrees>
            </Position>
            <AltitudeMeters>42.59999847412109375</AltitudeMeters>
            <DistanceMeters>25482.59206146</DistanceMeters>
          </Trackpoint>
          <Trackpoint>
            <Time>2022-07-04T10:26:17.000Z</Time>
            <Position>
              <LatitudeDegrees>44.768244065344333648681640625</LatitudeDegrees>
              <LongitudeDegrees>-0.72365261614322662353515625</LongitudeDegrees>
            </Position>
            <AltitudeMeters>43</AltitudeMeters>
            <DistanceMeters>25513.313332587</DistanceMeters>
          </Trackpoint>
          <Trackpoint>
            <Time>2022-07-04T10:26:18.000Z</Time>
            <Position>
              <LatitudeDegrees>44.7682506032288074493408203125</LatitudeDegrees>
              <LongitudeDegrees>-0.72371221147477626800537109375</LongitudeDegrees>
            </Position>
            <AltitudeMeters>43</AltitudeMeters>
            <DistanceMeters>25518.078900996</DistanceMeters>
          </Trackpoint>
          <Trackpoint>
            <Time>2022-07-04T10:26:22.000Z</Time>
            <Position>
              <LatitudeDegrees>44.7682744078338146209716796875</LatitudeDegrees>
              <LongitudeDegrees>-0.72396819479763507843017578125</LongitudeDegrees>
            </Position>
            <AltitudeMeters>43</AltitudeMeters>
            <DistanceMeters>25538.479346166</DistanceMeters>
          </Trackpoint>
          <Trackpoint>
            <Time>2022-07-04T10:26:27.000Z</Time>
            <Position>
              <LatitudeDegrees>44.768307097256183624267578125</LatitudeDegrees>
              <LongitudeDegrees>-0.72429575957357883453369140625</LongitudeDegrees>
            </Position>
            <AltitudeMeters>43</AltitudeMeters>
            <DistanceMeters>25564.617739073</DistanceMeters>
          </Trackpoint>
          <Trackpoint>
            <Time>2022-07-04T10:26:31.000Z</Time>
            <Position>
              <LatitudeDegrees>44.76834154687821865081787109375</LatitudeDegrees>
              <LongitudeDegrees>-0.7245536707341670989990234375</LongitudeDegrees>
            </Position>
            <AltitudeMeters>43</AltitudeMeters>
            <DistanceMeters>25585.355128747</DistanceMeters>
          </Trackpoint>
          <Trackpoint>
            <Time>2022-07-04T10:26:33.000Z</Time>
            <Position>
              <LatitudeDegrees>44.7683609090745449066162109375</LatitudeDegrees>
              <LongitudeDegrees>-0.72468535043299198150634765625</LongitudeDegrees>
            </Position>
            <AltitudeMeters>42.200000762939453125</AltitudeMeters>
            <DistanceMeters>25595.981138151</DistanceMeters>
          </Trackpoint>
          <Trackpoint>
            <Time>2022-07-04T10:26:35.000Z</Time>
            <Position>
              <LatitudeDegrees>44.76836903952062129974365234375</LatitudeDegrees>
              <LongitudeDegrees>-0.7247910462319850921630859375</LongitudeDegrees>
            </Position>
            <AltitudeMeters>41.799999237060546875</AltitudeMeters>
            <DistanceMeters>25604.382273639</DistanceMeters>
          </Trackpoint>
          <Trackpoint>
            <Time>2022-07-04T10:26:36.000Z</Time>
            <Position>
              <LatitudeDegrees>44.768374823033809661865234375</LatitudeDegrees>
              <LongitudeDegrees>-0.72485751472413539886474609375</LongitudeDegrees>
            </Position>
            <AltitudeMeters>41.59999847412109375</AltitudeMeters>
            <DistanceMeters>25609.673137177</DistanceMeters>
          </Trackpoint>
          <Trackpoint>
            <Time>2022-07-04T10:26:39.000Z</Time>
            <Position>
              <LatitudeDegrees>44.76839334703981876373291015625</LatitudeDegrees>
              <LongitudeDegrees>-0.72493831627070903778076171875</LongitudeDegrees>
            </Position>
            <AltitudeMeters>42.40000152587890625</AltitudeMeters>
            <DistanceMeters>25616.38312683</DistanceMeters>
          </Trackpoint>
          <Trackpoint>
            <Time>2022-07-04T10:26:41.000Z</Time>
            <Position>
              <LatitudeDegrees>44.76839334703981876373291015625</LatitudeDegrees>
              <LongitudeDegrees>-0.72493831627070903778076171875</LongitudeDegrees>
            </Position>
            <AltitudeMeters>42.59999847412109375</AltitudeMeters>
            <DistanceMeters>NAN</DistanceMeters>
          </Trackpoint>
          <Trackpoint>
            <Time>2022-07-04T10:27:13.000Z</Time>
            <Position>
              <LatitudeDegrees>44.76839368231594562530517578125</LatitudeDegrees>
              <LongitudeDegrees>-0.72500067763030529022216796875</LongitudeDegrees>
            </Position>
            <AltitudeMeters>43.200000762939453125</AltitudeMeters>
            <DistanceMeters>NAN</DistanceMeters>
          </Trackpoint>
          <Trackpoint>
            <Time>2022-07-04T10:27:19.000Z</Time>
            <Position>
              <LatitudeDegrees>44.76840927265584468841552734375</LatitudeDegrees>
              <LongitudeDegrees>-0.72523419745266437530517578125</LongitudeDegrees>
            </Position>
            <AltitudeMeters>43.40000152587890625</AltitudeMeters>
            <DistanceMeters>NAN</DistanceMeters>
          </Trackpoint>
          <Trackpoint>
            <Time>2022-07-04T10:27:24.000Z</Time>
            <Position>
              <LatitudeDegrees>44.7684289701282978057861328125</LatitudeDegrees>
              <LongitudeDegrees>-0.72549018077552318572998046875</LongitudeDegrees>
            </Position>
            <AltitudeMeters>43.59999847412109375</AltitudeMeters>
            <DistanceMeters>NAN</DistanceMeters>
          </Trackpoint>
          <Trackpoint>
            <Time>2022-07-04T10:27:26.000Z</Time>
            <Position>
              <LatitudeDegrees>44.7684380225837230682373046875</LatitudeDegrees>
              <LongitudeDegrees>-0.72559344582259654998779296875</LongitudeDegrees>
            </Position>
            <AltitudeMeters>44</AltitudeMeters>
            <DistanceMeters>NAN</DistanceMeters>
          </Trackpoint>
          <Trackpoint>
            <Time>2022-07-04T10:27:34.000Z</Time>
            <Position>
              <LatitudeDegrees>44.7684829495847225189208984375</LatitudeDegrees>
              <LongitudeDegrees>-0.72600114159286022186279296875</LongitudeDegrees>
            </Position>
            <AltitudeMeters>44</AltitudeMeters>
            <DistanceMeters>NAN</DistanceMeters>
          </Trackpoint>
          <Trackpoint>
            <Time>2022-07-04T10:27:42.000Z</Time>
            <Position>
              <LatitudeDegrees>44.76854723878204822540283203125</LatitudeDegrees>
              <LongitudeDegrees>-0.726430378854274749755859375</LongitudeDegrees>
            </Position>
            <AltitudeMeters>44</AltitudeMeters>
            <DistanceMeters>NAN</DistanceMeters>
          </Trackpoint>
          <Trackpoint>
            <Time>2022-07-04T10:27:49.000Z</Time>
            <Position>
              <LatitudeDegrees>44.76858898065984249114990234375</LatitudeDegrees>
              <LongitudeDegrees>-0.7268342189490795135498046875</LongitudeDegrees>
            </Position>
            <AltitudeMeters>44</AltitudeMeters>
            <DistanceMeters>NAN</DistanceMeters>
          </Trackpoint>
          <Trackpoint>
            <Time>2022-07-04T10:27:50.000Z</Time>
            <Position>
              <LatitudeDegrees>44.768597446382045745849609375</LatitudeDegrees>
              <LongitudeDegrees>-0.72689096443355083465576171875</LongitudeDegrees>
            </Position>
            <AltitudeMeters>44</AltitudeMeters>
            <DistanceMeters>NAN</DistanceMeters>
          </Trackpoint>
          <Trackpoint>
            <Time>2022-07-04T10:27:53.000Z</Time>
            <Position>
              <LatitudeDegrees>44.768607504665851593017578125</LatitudeDegrees>
              <LongitudeDegrees>-0.7270484603941440582275390625</LongitudeDegrees>
            </Position>
            <AltitudeMeters>44.200000762939453125</AltitudeMeters>
            <DistanceMeters>NAN</DistanceMeters>
          </Trackpoint>
          <Trackpoint>
            <Time>2022-07-04T10:27:58.000Z</Time>
            <Position>
              <LatitudeDegrees>44.76864547468721866607666015625</LatitudeDegrees>
              <LongitudeDegrees>-0.7273532263934612274169921875</LongitudeDegrees>
            </Position>
            <AltitudeMeters>44.200000762939453125</AltitudeMeters>
            <DistanceMeters>NAN</DistanceMeters>
          </Trackpoint>
          <Trackpoint>
            <Time>2022-07-04T10:28:04.000Z</Time>
            <Position>
              <LatitudeDegrees>44.76869476027786731719970703125</LatitudeDegrees>
              <LongitudeDegrees>-0.72767752222716808319091796875</LongitudeDegrees>
            </Position>
            <AltitudeMeters>44</AltitudeMeters>
            <DistanceMeters>NAN</DistanceMeters>
          </Trackpoint>
          <Trackpoint>
            <Time>2022-07-04T10:28:06.000Z</Time>
            <Position>
              <LatitudeDegrees>44.7687032260000705718994140625</LatitudeDegrees>
              <LongitudeDegrees>-0.72780207730829715728759765625</LongitudeDegrees>
            </Position>
            <AltitudeMeters>44</AltitudeMeters>
            <DistanceMeters>NAN</DistanceMeters>
          </Trackpoint>
          <Trackpoint>
            <Time>2022-07-04T10:28:13.000Z</Time>
            <Position>
              <LatitudeDegrees>44.7687478177249431610107421875</LatitudeDegrees>
              <LongitudeDegrees>-0.72819921188056468963623046875</LongitudeDegrees>
            </Position>
            <AltitudeMeters>44.59999847412109375</AltitudeMeters>
            <DistanceMeters>NAN</DistanceMeters>
          </Trackpoint>
          <Trackpoint>
            <Time>2022-07-04T10:28:20.000Z</Time>
            <Position>
              <LatitudeDegrees>44.76879291236400604248046875</LatitudeDegrees>
              <LongitudeDegrees>-0.7286108471453189849853515625</LongitudeDegrees>
            </Position>
            <AltitudeMeters>44.59999847412109375</AltitudeMeters>
            <DistanceMeters>NAN</DistanceMeters>
          </Trackpoint>
          <Trackpoint>
            <Time>2022-07-04T10:28:29.000Z</Time>
            <Position>
              <LatitudeDegrees>44.76884781382977962493896484375</LatitudeDegrees>
              <LongitudeDegrees>-0.72913195006549358367919921875</LongitudeDegrees>
            </Position>
            <AltitudeMeters>44.59999847412109375</AltitudeMeters>
            <DistanceMeters>NAN</DistanceMeters>
          </Trackpoint>
          <Trackpoint>
            <Time>2022-07-04T10:28:36.000Z</Time>
            <Position>
              <LatitudeDegrees>44.76889022625982761383056640625</LatitudeDegrees>
              <LongitudeDegrees>-0.72954115457832813262939453125</LongitudeDegrees>
            </Position>
            <AltitudeMeters>44.799999237060546875</AltitudeMeters>
            <DistanceMeters>NAN</DistanceMeters>
          </Trackpoint>
          <Trackpoint>
            <Time>2022-07-04T10:28:43.000Z</Time>
            <Position>
              <LatitudeDegrees>44.768928699195384979248046875</LatitudeDegrees>
              <LongitudeDegrees>-0.72993694804608821868896484375</LongitudeDegrees>
            </Position>
            <AltitudeMeters>44.59999847412109375</AltitudeMeters>
            <DistanceMeters>NAN</DistanceMeters>
          </Trackpoint>
          <Trackpoint>
            <Time>2022-07-04T10:28:49.000Z</Time>
            <Position>
              <LatitudeDegrees>44.7689665853977203369140625</LatitudeDegrees>
              <LongitudeDegrees>-0.73028965853154659271240234375</LongitudeDegrees>
            </Position>
            <AltitudeMeters>44.799999237060546875</AltitudeMeters>
            <DistanceMeters>NAN</DistanceMeters>
          </Trackpoint>
          <Trackpoint>
            <Time>2022-07-04T10:28:53.000Z</Time>
            <Position>
              <LatitudeDegrees>44.768988378345966339111328125</LatitudeDegrees>
              <LongitudeDegrees>-0.730513371527194976806640625</LongitudeDegrees>
            </Position>
            <AltitudeMeters>44.799999237060546875</AltitudeMeters>
            <DistanceMeters>NAN</DistanceMeters>
          </Trackpoint>
          <Trackpoint>
            <Time>2022-07-04T10:29:01.000Z</Time>
            <Position>
              <LatitudeDegrees>44.769040681421756744384765625</LatitudeDegrees>
              <LongitudeDegrees>-0.7309433631598949432373046875</LongitudeDegrees>
            </Position>
            <AltitudeMeters>45</AltitudeMeters>
            <DistanceMeters>NAN</DistanceMeters>
          </Trackpoint>
          <Trackpoint>
            <Time>2022-07-04T10:29:08.000Z</Time>
            <Position>
              <LatitudeDegrees>44.76907798089087009429931640625</LatitudeDegrees>
              <LongitudeDegrees>-0.73127822019159793853759765625</LongitudeDegrees>
            </Position>
            <AltitudeMeters>44.799999237060546875</AltitudeMeters>
            <DistanceMeters>NAN</DistanceMeters>
          </Trackpoint>
          <Trackpoint>
            <Time>2022-07-04T10:29:15.000Z</Time>
            <Position>
              <LatitudeDegrees>44.7691060602664947509765625</LatitudeDegrees>
              <LongitudeDegrees>-0.731603018939495086669921875</LongitudeDegrees>
            </Position>
            <AltitudeMeters>45.200000762939453125</AltitudeMeters>
            <DistanceMeters>NAN</DistanceMeters>
          </Trackpoint>
          <Trackpoint>
            <Time>2022-07-04T10:29:19.000Z</Time>
            <Position>
              <LatitudeDegrees>44.76913212798535823822021484375</LatitudeDegrees>
              <LongitudeDegrees>-0.731808207929134368896484375</LongitudeDegrees>
            </Position>
            <AltitudeMeters>45.200000762939453125</AltitudeMeters>
            <DistanceMeters>NAN</DistanceMeters>
          </Trackpoint>
          <Trackpoint>
            <Time>2022-07-04T10:29:27.000Z</Time>
            <Position>
              <LatitudeDegrees>44.7691752947866916656494140625</LatitudeDegrees>
              <LongitudeDegrees>-0.73219536803662776947021484375</LongitudeDegrees>
            </Position>
            <AltitudeMeters>45.40000152587890625</AltitudeMeters>
            <DistanceMeters>NAN</DistanceMeters>
          </Trackpoint>
          <Trackpoint>
            <Time>2022-07-04T10:29:36.000Z</Time>
            <Position>
              <LatitudeDegrees>44.76921929977834224700927734375</LatitudeDegrees>
              <LongitudeDegrees>-0.73264162056148052215576171875</LongitudeDegrees>
            </Position>
            <AltitudeMeters>45.200000762939453125</AltitudeMeters>
            <DistanceMeters>NAN</DistanceMeters>
          </Trackpoint>
          <Trackpoint>
            <Time>2022-07-04T10:29:45.000Z</Time>
            <Position>
              <LatitudeDegrees>44.76926607079803943634033203125</LatitudeDegrees>
              <LongitudeDegrees>-0.7330866158008575439453125</LongitudeDegrees>
            </Position>
            <AltitudeMeters>45.200000762939453125</AltitudeMeters>
            <DistanceMeters>NAN</DistanceMeters>
          </Trackpoint>
          <Trackpoint>
            <Time>2022-07-04T10:29:54.000Z</Time>
            <Position>
              <LatitudeDegrees>44.769321978092193603515625</LatitudeDegrees>
              <LongitudeDegrees>-0.7335353828966617584228515625</LongitudeDegrees>
            </Position>
            <AltitudeMeters>45.200000762939453125</AltitudeMeters>
            <DistanceMeters>NAN</DistanceMeters>
          </Trackpoint>
          <Trackpoint>
            <Time>2022-07-04T10:30:00.000Z</Time>
            <Position>
              <LatitudeDegrees>44.76934519596397876739501953125</LatitudeDegrees>
              <LongitudeDegrees>-0.73374233208596706390380859375</LongitudeDegrees>
            </Position>
            <AltitudeMeters>45.200000762939453125</AltitudeMeters>
            <DistanceMeters>NAN</DistanceMeters>
          </Trackpoint>
          <Trackpoint>
            <Time>2022-07-04T10:30:06.000Z</Time>
            <Position>
              <LatitudeDegrees>44.76936824619770050048828125</LatitudeDegrees>
              <LongitudeDegrees>-0.7339162565767765045166015625</LongitudeDegrees>
            </Position>
            <AltitudeMeters>45.200000762939453125</AltitudeMeters>
            <DistanceMeters>NAN</DistanceMeters>
          </Trackpoint>
          <Trackpoint>
            <Time>2022-07-04T10:30:12.000Z</Time>
            <Position>
              <LatitudeDegrees>44.76939230225980281829833984375</LatitudeDegrees>
              <LongitudeDegrees>-0.7341553084552288055419921875</LongitudeDegrees>
            </Position>
            <AltitudeMeters>45.59999847412109375</AltitudeMeters>
            <DistanceMeters>NAN</DistanceMeters>
          </Trackpoint>
          <Trackpoint>
            <Time>2022-07-04T10:30:13.000Z</Time>
            <Position>
              <LatitudeDegrees>44.76939783431589603424072265625</LatitudeDegrees>
              <LongitudeDegrees>-0.734200738370418548583984375</LongitudeDegrees>
            </Position>
            <AltitudeMeters>45.59999847412109375</AltitudeMeters>
            <DistanceMeters>NAN</DistanceMeters>
          </Trackpoint>
          <Trackpoint>
            <Time>2022-07-04T10:30:19.000Z</Time>
            <Position>
              <LatitudeDegrees>44.76942650042474269866943359375</LatitudeDegrees>
              <LongitudeDegrees>-0.73448010720312595367431640625</LongitudeDegrees>
            </Position>
            <AltitudeMeters>45.59999847412109375</AltitudeMeters>
            <DistanceMeters>NAN</DistanceMeters>
          </Trackpoint>
          <Trackpoint>
            <Time>2022-07-04T10:30:21.000Z</Time>
            <Position>
              <LatitudeDegrees>44.76943622343242168426513671875</LatitudeDegrees>
              <LongitudeDegrees>-0.73457415215671062469482421875</LongitudeDegrees>
            </Position>
            <AltitudeMeters>45.59999847412109375</AltitudeMeters>
            <DistanceMeters>NAN</DistanceMeters>
          </Trackpoint>
          <Trackpoint>
            <Time>2022-07-04T10:30:26.000Z</Time>
            <Position>
              <LatitudeDegrees>44.76946053095161914825439453125</LatitudeDegrees>
              <LongitudeDegrees>-0.734817646443843841552734375</LongitudeDegrees>
            </Position>
            <AltitudeMeters>45.799999237060546875</AltitudeMeters>
            <DistanceMeters>NAN</DistanceMeters>
          </Trackpoint>
          <Trackpoint>
            <Time>2022-07-04T10:30:31.000Z</Time>
            <Position>
              <LatitudeDegrees>44.76949020288884639739990234375</LatitudeDegrees>
              <LongitudeDegrees>-0.73506130836904048919677734375</LongitudeDegrees>
            </Position>
            <AltitudeMeters>45.799999237060546875</AltitudeMeters>
            <DistanceMeters>NAN</DistanceMeters>
          </Trackpoint>
          <Trackpoint>
            <Time>2022-07-04T10:30:39.000Z</Time>
            <Position>
              <LatitudeDegrees>44.769536890089511871337890625</LatitudeDegrees>
              <LongitudeDegrees>-0.735445953905582427978515625</LongitudeDegrees>
            </Position>
            <AltitudeMeters>45.59999847412109375</AltitudeMeters>
            <DistanceMeters>NAN</DistanceMeters>
          </Trackpoint>
          <Trackpoint>
            <Time>2022-07-04T10:30:49.000Z</Time>
            <Position>
              <LatitudeDegrees>44.7695863433182239532470703125</LatitudeDegrees>
              <LongitudeDegrees>-0.73590385727584362030029296875</LongitudeDegrees>
            </Position>
            <AltitudeMeters>45.799999237060546875</AltitudeMeters>
            <DistanceMeters>NAN</DistanceMeters>
          </Trackpoint>
          <Trackpoint>
            <Time>2022-07-04T10:30:58.000Z</Time>
            <Position>
              <LatitudeDegrees>44.76962313987314701080322265625</LatitudeDegrees>
              <LongitudeDegrees>-0.7363044284284114837646484375</LongitudeDegrees>
            </Position>
            <AltitudeMeters>45.59999847412109375</AltitudeMeters>
            <DistanceMeters>NAN</DistanceMeters>
          </Trackpoint>
          <Trackpoint>
            <Time>2022-07-04T10:31:03.000Z</Time>
            <Position>
              <LatitudeDegrees>44.7696389816701412200927734375</LatitudeDegrees>
              <LongitudeDegrees>-0.73645991273224353790283203125</LongitudeDegrees>
            </Position>
            <AltitudeMeters>45.40000152587890625</AltitudeMeters>
            <DistanceMeters>NAN</DistanceMeters>
          </Trackpoint>
          <Trackpoint>
            <Time>2022-07-04T10:31:10.000Z</Time>
            <Position>
              <LatitudeDegrees>44.7696604393422603607177734375</LatitudeDegrees>
              <LongitudeDegrees>-0.7367339171469211578369140625</LongitudeDegrees>
            </Position>
            <AltitudeMeters>45.59999847412109375</AltitudeMeters>
            <DistanceMeters>NAN</DistanceMeters>
          </Trackpoint>
          <Trackpoint>
            <Time>2022-07-04T10:31:11.000Z</Time>
            <Position>
              <LatitudeDegrees>44.769664295017719268798828125</LatitudeDegrees>
              <LongitudeDegrees>-0.73677272535860538482666015625</LongitudeDegrees>
            </Position>
            <AltitudeMeters>45.59999847412109375</AltitudeMeters>
            <DistanceMeters>NAN</DistanceMeters>
          </Trackpoint>
          <Trackpoint>
            <Time>2022-07-04T10:31:21.000Z</Time>
            <Position>
              <LatitudeDegrees>44.7697160951793193817138671875</LatitudeDegrees>
              <LongitudeDegrees>-0.73719182051718235015869140625</LongitudeDegrees>
            </Position>
            <AltitudeMeters>45.799999237060546875</AltitudeMeters>
            <DistanceMeters>NAN</DistanceMeters>
          </Trackpoint>
          <Trackpoint>
            <Time>2022-07-04T10:31:31.000Z</Time>
            <Position>
              <LatitudeDegrees>44.76975523866713047027587890625</LatitudeDegrees>
              <LongitudeDegrees>-0.73766045272350311279296875</LongitudeDegrees>
            </Position>
            <AltitudeMeters>45.799999237060546875</AltitudeMeters>
            <DistanceMeters>NAN</DistanceMeters>
          </Trackpoint>
          <Trackpoint>
            <Time>2022-07-04T10:31:39.000Z</Time>
            <Position>
              <LatitudeDegrees>44.76978591643273830413818359375</LatitudeDegrees>
              <LongitudeDegrees>-0.73804275132715702056884765625</LongitudeDegrees>
            </Position>
            <AltitudeMeters>46</AltitudeMeters>
            <DistanceMeters>NAN</DistanceMeters>
          </Trackpoint>
          <Trackpoint>
            <Time>2022-07-04T10:31:41.000Z</Time>
            <Position>
              <LatitudeDegrees>44.7698009200394153594970703125</LatitudeDegrees>
              <LongitudeDegrees>-0.7381370477378368377685546875</LongitudeDegrees>
            </Position>
            <AltitudeMeters>46</AltitudeMeters>
            <DistanceMeters>NAN</DistanceMeters>
          </Trackpoint>
          <Trackpoint>
            <Time>2022-07-04T10:31:44.000Z</Time>
            <Position>
              <LatitudeDegrees>44.76981944404542446136474609375</LatitudeDegrees>
              <LongitudeDegrees>-0.7382761873304843902587890625</LongitudeDegrees>
            </Position>
            <AltitudeMeters>46</AltitudeMeters>
            <DistanceMeters>NAN</DistanceMeters>
          </Trackpoint>
          <Trackpoint>
            <Time>2022-07-04T10:31:48.000Z</Time>
            <Position>
              <LatitudeDegrees>44.76984576322138309478759765625</LatitudeDegrees>
              <LongitudeDegrees>-0.73845983482897281646728515625</LongitudeDegrees>
            </Position>
            <AltitudeMeters>46</AltitudeMeters>
            <DistanceMeters>NAN</DistanceMeters>
          </Trackpoint>
          <Trackpoint>
            <Time>2022-07-04T10:31:51.000Z</Time>
            <Position>
              <LatitudeDegrees>44.76985246874392032623291015625</LatitudeDegrees>
              <LongitudeDegrees>-0.73860266245901584625244140625</LongitudeDegrees>
            </Position>
            <AltitudeMeters>46.200000762939453125</AltitudeMeters>
            <DistanceMeters>NAN</DistanceMeters>
          </Trackpoint>
          <Trackpoint>
            <Time>2022-07-04T10:31:57.000Z</Time>
            <Position>
              <LatitudeDegrees>44.76987945847213268280029296875</LatitudeDegrees>
              <LongitudeDegrees>-0.73888764716684818267822265625</LongitudeDegrees>
            </Position>
            <AltitudeMeters>46.200000762939453125</AltitudeMeters>
            <DistanceMeters>NAN</DistanceMeters>
          </Trackpoint>
          <Trackpoint>
            <Time>2022-07-04T10:32:03.000Z</Time>
            <Position>
              <LatitudeDegrees>44.7699041850864887237548828125</LatitudeDegrees>
              <LongitudeDegrees>-0.73909769766032695770263671875</LongitudeDegrees>
            </Position>
            <AltitudeMeters>46</AltitudeMeters>
            <DistanceMeters>NAN</DistanceMeters>
          </Trackpoint>
          <Trackpoint>
            <Time>2022-07-04T10:32:05.000Z</Time>
            <Position>
              <LatitudeDegrees>44.76991248317062854766845703125</LatitudeDegrees>
              <LongitudeDegrees>-0.7391334883868694305419921875</LongitudeDegrees>
            </Position>
            <AltitudeMeters>46</AltitudeMeters>
            <DistanceMeters>NAN</DistanceMeters>
          </Trackpoint>
          <Trackpoint>
            <Time>2022-07-04T10:32:07.000Z</Time>
            <Position>
              <LatitudeDegrees>44.769924469292163848876953125</LatitudeDegrees>
              <LongitudeDegrees>-0.7391572929918766021728515625</LongitudeDegrees>
            </Position>
            <AltitudeMeters>45.799999237060546875</AltitudeMeters>
            <DistanceMeters>NAN</DistanceMeters>
          </Trackpoint>
          <Trackpoint>
            <Time>2022-07-04T10:32:13.000Z</Time>
            <Position>
              <LatitudeDegrees>44.76993477903306484222412109375</LatitudeDegrees>
              <LongitudeDegrees>-0.739317722618579864501953125</LongitudeDegrees>
            </Position>
            <AltitudeMeters>45.799999237060546875</AltitudeMeters>
            <DistanceMeters>NAN</DistanceMeters>
          </Trackpoint>
          <Trackpoint>
            <Time>2022-07-04T10:32:19.000Z</Time>
            <Position>
              <LatitudeDegrees>44.76996344514191150665283203125</LatitudeDegrees>
              <LongitudeDegrees>-0.73955484665930271148681640625</LongitudeDegrees>
            </Position>
            <AltitudeMeters>46.200000762939453125</AltitudeMeters>
            <DistanceMeters>NAN</DistanceMeters>
          </Trackpoint>
          <Trackpoint>
            <Time>2022-07-04T10:32:31.000Z</Time>
            <Position>
              <LatitudeDegrees>44.77002597413957118988037109375</LatitudeDegrees>
              <LongitudeDegrees>-0.74008089490234851837158203125</LongitudeDegrees>
            </Position>
            <AltitudeMeters>46</AltitudeMeters>
            <DistanceMeters>NAN</DistanceMeters>
          </Trackpoint>
          <Trackpoint>
            <Time>2022-07-04T10:32:37.000Z</Time>
            <Position>
              <LatitudeDegrees>44.770051538944244384765625</LatitudeDegrees>
              <LongitudeDegrees>-0.74034207500517368316650390625</LongitudeDegrees>
            </Position>
            <AltitudeMeters>46</AltitudeMeters>
            <DistanceMeters>NAN</DistanceMeters>
          </Trackpoint>
          <Trackpoint>
            <Time>2022-07-04T10:32:39.000Z</Time>
            <Position>
              <LatitudeDegrees>44.77006419561803340911865234375</LatitudeDegrees>
              <LongitudeDegrees>-0.74042857624590396881103515625</LongitudeDegrees>
            </Position>
            <AltitudeMeters>46.200000762939453125</AltitudeMeters>
            <DistanceMeters>NAN</DistanceMeters>
          </Trackpoint>
          <Trackpoint>
            <Time>2022-07-04T10:32:43.000Z</Time>
            <Position>
              <LatitudeDegrees>44.7700805403292179107666015625</LatitudeDegrees>
              <LongitudeDegrees>-0.74058934114873409271240234375</LongitudeDegrees>
            </Position>
            <AltitudeMeters>46.200000762939453125</AltitudeMeters>
            <DistanceMeters>NAN</DistanceMeters>
          </Trackpoint>
          <Trackpoint>
            <Time>2022-07-04T10:32:47.000Z</Time>
            <Position>
              <LatitudeDegrees>44.77009755559265613555908203125</LatitudeDegrees>
              <LongitudeDegrees>-0.74076351709663867950439453125</LongitudeDegrees>
            </Position>
            <AltitudeMeters>46.200000762939453125</AltitudeMeters>
            <DistanceMeters>NAN</DistanceMeters>
          </Trackpoint>
          <Trackpoint>
            <Time>2022-07-04T10:32:55.000Z</Time>
            <Position>
              <LatitudeDegrees>44.77013292722404003143310546875</LatitudeDegrees>
              <LongitudeDegrees>-0.7411332428455352783203125</LongitudeDegrees>
            </Position>
            <AltitudeMeters>46.200000762939453125</AltitudeMeters>
            <DistanceMeters>NAN</DistanceMeters>
          </Trackpoint>
          <Trackpoint>
            <Time>2022-07-04T10:32:57.000Z</Time>
            <Position>
              <LatitudeDegrees>44.77014231495559215545654296875</LatitudeDegrees>
              <LongitudeDegrees>-0.7412313111126422882080078125</LongitudeDegrees>
            </Position>
            <AltitudeMeters>46.200000762939453125</AltitudeMeters>
            <DistanceMeters>NAN</DistanceMeters>
          </Trackpoint>
          <Trackpoint>
            <Time>2022-07-04T10:33:04.000Z</Time>
            <Position>
              <LatitudeDegrees>44.7701673768460750579833984375</LatitudeDegrees>
              <LongitudeDegrees>-0.74155242182314395904541015625</LongitudeDegrees>
            </Position>
            <AltitudeMeters>46.200000762939453125</AltitudeMeters>
            <DistanceMeters>NAN</DistanceMeters>
          </Trackpoint>
          <Trackpoint>
            <Time>2022-07-04T10:33:07.000Z</Time>
            <Position>
              <LatitudeDegrees>44.77017852477729320526123046875</LatitudeDegrees>
              <LongitudeDegrees>-0.74167295359075069427490234375</LongitudeDegrees>
            </Position>
            <AltitudeMeters>46</AltitudeMeters>
            <DistanceMeters>NAN</DistanceMeters>
          </Trackpoint>
          <Trackpoint>
            <Time>2022-07-04T10:33:10.000Z</Time>
            <Position>
              <LatitudeDegrees>44.7701895050704479217529296875</LatitudeDegrees>
              <LongitudeDegrees>-0.74174218811094760894775390625</LongitudeDegrees>
            </Position>
            <AltitudeMeters>45.799999237060546875</AltitudeMeters>
            <DistanceMeters>NAN</DistanceMeters>
          </Trackpoint>
          <Trackpoint>
            <Time>2022-07-04T10:33:17.000Z</Time>
            <Position>
              <LatitudeDegrees>44.77020786143839359283447265625</LatitudeDegrees>
              <LongitudeDegrees>-0.74189993552863597869873046875</LongitudeDegrees>
            </Position>
            <AltitudeMeters>45.799999237060546875</AltitudeMeters>
            <DistanceMeters>NAN</DistanceMeters>
          </Trackpoint>
          <Trackpoint>
            <Time>2022-07-04T10:33:22.000Z</Time>
            <Position>
              <LatitudeDegrees>44.7702263854444026947021484375</LatitudeDegrees>
              <LongitudeDegrees>-0.74204963631927967071533203125</LongitudeDegrees>
            </Position>
            <AltitudeMeters>46</AltitudeMeters>
            <DistanceMeters>NAN</DistanceMeters>
          </Trackpoint>
          <Trackpoint>
            <Time>2022-07-04T10:33:24.000Z</Time>
            <Position>
              <LatitudeDegrees>44.77023200131952762603759765625</LatitudeDegrees>
              <LongitudeDegrees>-0.74211694300174713134765625</LongitudeDegrees>
            </Position>
            <AltitudeMeters>46</AltitudeMeters>
            <DistanceMeters>NAN</DistanceMeters>
          </Trackpoint>
          <Trackpoint>
            <Time>2022-07-04T10:33:25.000Z</Time>
            <Position>
              <LatitudeDegrees>44.77023250423371791839599609375</LatitudeDegrees>
              <LongitudeDegrees>-0.7421593554317951202392578125</LongitudeDegrees>
            </Position>
            <AltitudeMeters>46</AltitudeMeters>
            <DistanceMeters>NAN</DistanceMeters>
          </Trackpoint>
          <Trackpoint>
            <Time>2022-07-04T10:33:27.000Z</Time>
            <Position>
              <LatitudeDegrees>44.77023803628981113433837890625</LatitudeDegrees>
              <LongitudeDegrees>-0.74223839677870273590087890625</LongitudeDegrees>
            </Position>
            <AltitudeMeters>46</AltitudeMeters>
            <DistanceMeters>NAN</DistanceMeters>
          </Trackpoint>
          <Trackpoint>
            <Time>2022-07-04T10:33:34.000Z</Time>
            <Position>
              <LatitudeDegrees>44.77027374319732189178466796875</LatitudeDegrees>
              <LongitudeDegrees>-0.74251416139304637908935546875</LongitudeDegrees>
            </Position>
            <AltitudeMeters>46</AltitudeMeters>
            <DistanceMeters>NAN</DistanceMeters>
          </Trackpoint>
          <Trackpoint>
            <Time>2022-07-04T10:33:42.000Z</Time>
            <Position>
              <LatitudeDegrees>44.77031867019832134246826171875</LatitudeDegrees>
              <LongitudeDegrees>-0.74284155853092670440673828125</LongitudeDegrees>
            </Position>
            <AltitudeMeters>45.799999237060546875</AltitudeMeters>
            <DistanceMeters>NAN</DistanceMeters>
          </Trackpoint>
          <Trackpoint>
            <Time>2022-07-04T10:33:50.000Z</Time>
            <Position>
              <LatitudeDegrees>44.77035420946776866912841796875</LatitudeDegrees>
              <LongitudeDegrees>-0.74317381717264652252197265625</LongitudeDegrees>
            </Position>
            <AltitudeMeters>45.799999237060546875</AltitudeMeters>
            <DistanceMeters>NAN</DistanceMeters>
          </Trackpoint>
          <Trackpoint>
            <Time>2022-07-04T10:33:57.000Z</Time>
            <Position>
              <LatitudeDegrees>44.770375080406665802001953125</LatitudeDegrees>
              <LongitudeDegrees>-0.743495933711528778076171875</LongitudeDegrees>
            </Position>
            <AltitudeMeters>45.799999237060546875</AltitudeMeters>
            <DistanceMeters>NAN</DistanceMeters>
          </Trackpoint>
          <Trackpoint>
            <Time>2022-07-04T10:34:04.000Z</Time>
            <Position>
              <LatitudeDegrees>44.770418666303157806396484375</LatitudeDegrees>
              <LongitudeDegrees>-0.743815787136554718017578125</LongitudeDegrees>
            </Position>
            <AltitudeMeters>45.799999237060546875</AltitudeMeters>
            <DistanceMeters>NAN</DistanceMeters>
          </Trackpoint>
          <Trackpoint>
            <Time>2022-07-04T10:34:10.000Z</Time>
            <Position>
              <LatitudeDegrees>44.77043014951050281524658203125</LatitudeDegrees>
              <LongitudeDegrees>-0.74407671578228473663330078125</LongitudeDegrees>
            </Position>
            <AltitudeMeters>45.799999237060546875</AltitudeMeters>
            <DistanceMeters>NAN</DistanceMeters>
          </Trackpoint>
          <Trackpoint>
            <Time>2022-07-04T10:34:17.000Z</Time>
            <Position>
              <LatitudeDegrees>44.77044037543237209320068359375</LatitudeDegrees>
              <LongitudeDegrees>-0.744342841207981109619140625</LongitudeDegrees>
            </Position>
            <AltitudeMeters>45.40000152587890625</AltitudeMeters>
            <DistanceMeters>NAN</DistanceMeters>
          </Trackpoint>
          <Trackpoint>
            <Time>2022-07-04T10:34:19.000Z</Time>
            <Position>
              <LatitudeDegrees>44.77043786086142063140869140625</LatitudeDegrees>
              <LongitudeDegrees>-0.74435566551983356475830078125</LongitudeDegrees>
            </Position>
            <AltitudeMeters>45.200000762939453125</AltitudeMeters>
            <DistanceMeters>NAN</DistanceMeters>
          </Trackpoint>
          <Trackpoint>
            <Time>2022-07-04T10:34:22.000Z</Time>
            <Position>
              <LatitudeDegrees>44.77043786086142063140869140625</LatitudeDegrees>
              <LongitudeDegrees>-0.74435566551983356475830078125</LongitudeDegrees>
            </Position>
            <AltitudeMeters>44.59999847412109375</AltitudeMeters>
            <DistanceMeters>NAN</DistanceMeters>
          </Trackpoint>
          <Trackpoint>
            <Time>2022-07-04T10:34:37.000Z</Time>
            <Position>
              <LatitudeDegrees>44.77043953724205493927001953125</LatitudeDegrees>
              <LongitudeDegrees>-0.74446253478527069091796875</LongitudeDegrees>
            </Position>
            <AltitudeMeters>45</AltitudeMeters>
            <DistanceMeters>NAN</DistanceMeters>
          </Trackpoint>
          <Trackpoint>
            <Time>2022-07-04T10:34:39.000Z</Time>
            <Position>
              <LatitudeDegrees>44.7704349271953105926513671875</LatitudeDegrees>
              <LongitudeDegrees>-0.74451156891882419586181640625</LongitudeDegrees>
            </Position>
            <AltitudeMeters>45</AltitudeMeters>
            <DistanceMeters>NAN</DistanceMeters>
          </Trackpoint>
          <Trackpoint>
            <Time>2022-07-04T10:34:45.000Z</Time>
            <Position>
              <LatitudeDegrees>44.77041623555123805999755859375</LatitudeDegrees>
              <LongitudeDegrees>-0.74472078122198581695556640625</LongitudeDegrees>
            </Position>
            <AltitudeMeters>44.59999847412109375</AltitudeMeters>
            <DistanceMeters>NAN</DistanceMeters>
          </Trackpoint>
          <Trackpoint>
            <Time>2022-07-04T10:34:52.000Z</Time>
            <Position>
              <LatitudeDegrees>44.77040148340165615081787109375</LatitudeDegrees>
              <LongitudeDegrees>-0.74502579867839813232421875</LongitudeDegrees>
            </Position>
            <AltitudeMeters>45.200000762939453125</AltitudeMeters>
            <DistanceMeters>NAN</DistanceMeters>
          </Trackpoint>
          <Trackpoint>
            <Time>2022-07-04T10:34:59.000Z</Time>
            <Position>
              <LatitudeDegrees>44.77038002572953701019287109375</LatitudeDegrees>
              <LongitudeDegrees>-0.745407678186893463134765625</LongitudeDegrees>
            </Position>
            <AltitudeMeters>45.40000152587890625</AltitudeMeters>
            <DistanceMeters>NAN</DistanceMeters>
          </Trackpoint>
          <Trackpoint>
            <Time>2022-07-04T10:35:08.000Z</Time>
            <Position>
              <LatitudeDegrees>44.77033627219498157501220703125</LatitudeDegrees>
              <LongitudeDegrees>-0.745934732258319854736328125</LongitudeDegrees>
            </Position>
            <AltitudeMeters>45.40000152587890625</AltitudeMeters>
            <DistanceMeters>NAN</DistanceMeters>
          </Trackpoint>
          <Trackpoint>
            <Time>2022-07-04T10:35:18.000Z</Time>
            <Position>
              <LatitudeDegrees>44.77030442096292972564697265625</LatitudeDegrees>
              <LongitudeDegrees>-0.7464780472218990325927734375</LongitudeDegrees>
            </Position>
            <AltitudeMeters>45.40000152587890625</AltitudeMeters>
            <DistanceMeters>NAN</DistanceMeters>
          </Trackpoint>
          <Trackpoint>
            <Time>2022-07-04T10:35:27.000Z</Time>
            <Position>
              <LatitudeDegrees>44.7702719829976558685302734375</LatitudeDegrees>
              <LongitudeDegrees>-0.74698104523122310638427734375</LongitudeDegrees>
            </Position>
            <AltitudeMeters>45.59999847412109375</AltitudeMeters>
            <DistanceMeters>NAN</DistanceMeters>
          </Trackpoint>
          <Trackpoint>
            <Time>2022-07-04T10:35:36.000Z</Time>
            <Position>
              <LatitudeDegrees>44.77023367770016193389892578125</LatitudeDegrees>
              <LongitudeDegrees>-0.7475194148719310760498046875</LongitudeDegrees>
            </Position>
            <AltitudeMeters>45.59999847412109375</AltitudeMeters>
            <DistanceMeters>NAN</DistanceMeters>
          </Trackpoint>
          <Trackpoint>
            <Time>2022-07-04T10:35:45.000Z</Time>
            <Position>
              <LatitudeDegrees>44.7702129743993282318115234375</LatitudeDegrees>
              <LongitudeDegrees>-0.74805242009460926055908203125</LongitudeDegrees>
            </Position>
            <AltitudeMeters>45.59999847412109375</AltitudeMeters>
            <DistanceMeters>NAN</DistanceMeters>
          </Trackpoint>
          <Trackpoint>
            <Time>2022-07-04T10:35:53.000Z</Time>
            <Position>
              <LatitudeDegrees>44.7701817937195301055908203125</LatitudeDegrees>
              <LongitudeDegrees>-0.74850060045719146728515625</LongitudeDegrees>
            </Position>
            <AltitudeMeters>45.799999237060546875</AltitudeMeters>
            <DistanceMeters>NAN</DistanceMeters>
          </Trackpoint>
          <Trackpoint>
            <Time>2022-07-04T10:35:56.000Z</Time>
            <Position>
              <LatitudeDegrees>44.770168550312519073486328125</LatitudeDegrees>
              <LongitudeDegrees>-0.74867083691060543060302734375</LongitudeDegrees>
            </Position>
            <AltitudeMeters>45.799999237060546875</AltitudeMeters>
            <DistanceMeters>NAN</DistanceMeters>
          </Trackpoint>
          <Trackpoint>
            <Time>2022-07-04T10:36:06.000Z</Time>
            <Position>
              <LatitudeDegrees>44.7701204381883144378662109375</LatitudeDegrees>
              <LongitudeDegrees>-0.74922018684446811676025390625</LongitudeDegrees>
            </Position>
            <AltitudeMeters>45.59999847412109375</AltitudeMeters>
            <DistanceMeters>NAN</DistanceMeters>
          </Trackpoint>
          <Trackpoint>
            <Time>2022-07-04T10:36:16.000Z</Time>
            <Position>
              <LatitudeDegrees>44.7700808756053447723388671875</LatitudeDegrees>
              <LongitudeDegrees>-0.7497661001980304718017578125</LongitudeDegrees>
            </Position>
            <AltitudeMeters>45.59999847412109375</AltitudeMeters>
            <DistanceMeters>NAN</DistanceMeters>
          </Trackpoint>
          <Trackpoint>
            <Time>2022-07-04T10:36:24.000Z</Time>
            <Position>
              <LatitudeDegrees>44.77004173211753368377685546875</LatitudeDegrees>
              <LongitudeDegrees>-0.75020355172455310821533203125</LongitudeDegrees>
            </Position>
            <AltitudeMeters>45.59999847412109375</AltitudeMeters>
            <DistanceMeters>NAN</DistanceMeters>
          </Trackpoint>
          <Trackpoint>
            <Time>2022-07-04T10:36:25.000Z</Time>
            <Position>
              <LatitudeDegrees>44.770037792623043060302734375</LatitudeDegrees>
              <LongitudeDegrees>-0.75025836937129497528076171875</LongitudeDegrees>
            </Position>
            <AltitudeMeters>45.40000152587890625</AltitudeMeters>
            <DistanceMeters>NAN</DistanceMeters>
          </Trackpoint>
          <Trackpoint>
            <Time>2022-07-04T10:36:33.000Z</Time>
            <Position>
              <LatitudeDegrees>44.77000703103840351104736328125</LatitudeDegrees>
              <LongitudeDegrees>-0.750701017677783966064453125</LongitudeDegrees>
            </Position>
            <AltitudeMeters>45.40000152587890625</AltitudeMeters>
            <DistanceMeters>NAN</DistanceMeters>
          </Trackpoint>
          <Trackpoint>
            <Time>2022-07-04T10:36:37.000Z</Time>
            <Position>
              <LatitudeDegrees>44.770003259181976318359375</LatitudeDegrees>
              <LongitudeDegrees>-0.75091400183737277984619140625</LongitudeDegrees>
            </Position>
            <AltitudeMeters>45.200000762939453125</AltitudeMeters>
            <DistanceMeters>NAN</DistanceMeters>
          </Trackpoint>
          <Trackpoint>
            <Time>2022-07-04T10:36:40.000Z</Time>
            <Position>
              <LatitudeDegrees>44.7700061090290546417236328125</LatitudeDegrees>
              <LongitudeDegrees>-0.751066468656063079833984375</LongitudeDegrees>
            </Position>
            <AltitudeMeters>45.200000762939453125</AltitudeMeters>
            <DistanceMeters>NAN</DistanceMeters>
          </Trackpoint>
          <Trackpoint>
            <Time>2022-07-04T10:36:47.000Z</Time>
            <Position>
              <LatitudeDegrees>44.7699913568794727325439453125</LatitudeDegrees>
              <LongitudeDegrees>-0.7514329254627227783203125</LongitudeDegrees>
            </Position>
            <AltitudeMeters>45</AltitudeMeters>
            <DistanceMeters>NAN</DistanceMeters>
          </Trackpoint>
          <Trackpoint>
            <Time>2022-07-04T10:36:54.000Z</Time>
            <Position>
              <LatitudeDegrees>44.76999194361269474029541015625</LatitudeDegrees>
              <LongitudeDegrees>-0.75178538449108600616455078125</LongitudeDegrees>
            </Position>
            <AltitudeMeters>45</AltitudeMeters>
            <DistanceMeters>NAN</DistanceMeters>
          </Trackpoint>
          <Trackpoint>
            <Time>2022-07-04T10:37:00.000Z</Time>
            <Position>
              <LatitudeDegrees>44.76996931247413158416748046875</LatitudeDegrees>
              <LongitudeDegrees>-0.7520992867648601531982421875</LongitudeDegrees>
            </Position>
            <AltitudeMeters>45</AltitudeMeters>
            <DistanceMeters>NAN</DistanceMeters>
          </Trackpoint>
          <Trackpoint>
            <Time>2022-07-04T10:37:09.000Z</Time>
            <Position>
              <LatitudeDegrees>44.7699350304901599884033203125</LatitudeDegrees>
              <LongitudeDegrees>-0.75254763476550579071044921875</LongitudeDegrees>
            </Position>
            <AltitudeMeters>45</AltitudeMeters>
            <DistanceMeters>NAN</DistanceMeters>
          </Trackpoint>
          <Trackpoint>
            <Time>2022-07-04T10:37:16.000Z</Time>
            <Position>
              <LatitudeDegrees>44.76988566108047962188720703125</LatitudeDegrees>
              <LongitudeDegrees>-0.75286849401891231536865234375</LongitudeDegrees>
            </Position>
            <AltitudeMeters>45.200000762939453125</AltitudeMeters>
            <DistanceMeters>NAN</DistanceMeters>
          </Trackpoint>
          <Trackpoint>
            <Time>2022-07-04T10:37:25.000Z</Time>
            <Position>
              <LatitudeDegrees>44.769858084619045257568359375</LatitudeDegrees>
              <LongitudeDegrees>-0.75324945151805877685546875</LongitudeDegrees>
            </Position>
            <AltitudeMeters>45</AltitudeMeters>
            <DistanceMeters>NAN</DistanceMeters>
          </Trackpoint>
          <Trackpoint>
            <Time>2022-07-04T10:37:32.000Z</Time>
            <Position>
              <LatitudeDegrees>44.76987090893089771270751953125</LatitudeDegrees>
              <LongitudeDegrees>-0.75361020863056182861328125</LongitudeDegrees>
            </Position>
            <AltitudeMeters>45.200000762939453125</AltitudeMeters>
            <DistanceMeters>NAN</DistanceMeters>
          </Trackpoint>
          <Trackpoint>
            <Time>2022-07-04T10:37:38.000Z</Time>
            <Position>
              <LatitudeDegrees>44.7698401473462581634521484375</LatitudeDegrees>
              <LongitudeDegrees>-0.75391019694507122039794921875</LongitudeDegrees>
            </Position>
            <AltitudeMeters>45.200000762939453125</AltitudeMeters>
            <DistanceMeters>NAN</DistanceMeters>
          </Trackpoint>
          <Trackpoint>
            <Time>2022-07-04T10:37:44.000Z</Time>
            <Position>
              <LatitudeDegrees>44.76981022395193576812744140625</LatitudeDegrees>
              <LongitudeDegrees>-0.75420297682285308837890625</LongitudeDegrees>
            </Position>
            <AltitudeMeters>45.200000762939453125</AltitudeMeters>
            <DistanceMeters>NAN</DistanceMeters>
          </Trackpoint>
          <Trackpoint>
            <Time>2022-07-04T10:37:54.000Z</Time>
            <Position>
              <LatitudeDegrees>44.769792370498180389404296875</LatitudeDegrees>
              <LongitudeDegrees>-0.75467898510396480560302734375</LongitudeDegrees>
            </Position>
            <AltitudeMeters>45</AltitudeMeters>
            <DistanceMeters>NAN</DistanceMeters>
          </Trackpoint>
          <Trackpoint>
            <Time>2022-07-04T10:37:59.000Z</Time>
            <Position>
              <LatitudeDegrees>44.76976714096963405609130859375</LatitudeDegrees>
              <LongitudeDegrees>-0.75492122210562229156494140625</LongitudeDegrees>
            </Position>
            <AltitudeMeters>45</AltitudeMeters>
            <DistanceMeters>NAN</DistanceMeters>
          </Trackpoint>
          <Trackpoint>
            <Time>2022-07-04T10:38:01.000Z</Time>
            <Position>
              <LatitudeDegrees>44.76976529695093631744384765625</LatitudeDegrees>
              <LongitudeDegrees>-0.75501744635403156280517578125</LongitudeDegrees>
            </Position>
            <AltitudeMeters>45</AltitudeMeters>
            <DistanceMeters>NAN</DistanceMeters>
          </Trackpoint>
          <Trackpoint>
            <Time>2022-07-04T10:38:07.000Z</Time>
            <Position>
              <LatitudeDegrees>44.76975406520068645477294921875</LatitudeDegrees>
              <LongitudeDegrees>-0.755285918712615966796875</LongitudeDegrees>
            </Position>
            <AltitudeMeters>45.200000762939453125</AltitudeMeters>
            <DistanceMeters>NAN</DistanceMeters>
          </Trackpoint>
          <Trackpoint>
            <Time>2022-07-04T10:38:14.000Z</Time>
            <Position>
              <LatitudeDegrees>44.76969354785978794097900390625</LatitudeDegrees>
              <LongitudeDegrees>-0.75561038218438625335693359375</LongitudeDegrees>
            </Position>
            <AltitudeMeters>45.200000762939453125</AltitudeMeters>
            <DistanceMeters>NAN</DistanceMeters>
          </Trackpoint>
          <Trackpoint>
            <Time>2022-07-04T10:38:19.000Z</Time>
            <Position>
              <LatitudeDegrees>44.7696880996227264404296875</LatitudeDegrees>
              <LongitudeDegrees>-0.75585965998470783233642578125</LongitudeDegrees>
            </Position>
            <AltitudeMeters>45.200000762939453125</AltitudeMeters>
            <DistanceMeters>NAN</DistanceMeters>
          </Trackpoint>
          <Trackpoint>
            <Time>2022-07-04T10:38:26.000Z</Time>
            <Position>
              <LatitudeDegrees>44.76965884678065776824951171875</LatitudeDegrees>
              <LongitudeDegrees>-0.75617850758135318756103515625</LongitudeDegrees>
            </Position>
            <AltitudeMeters>45.200000762939453125</AltitudeMeters>
            <DistanceMeters>NAN</DistanceMeters>
          </Trackpoint>
          <Trackpoint>
            <Time>2022-07-04T10:38:33.000Z</Time>
            <Position>
              <LatitudeDegrees>44.769638143479824066162109375</LatitudeDegrees>
              <LongitudeDegrees>-0.75651529245078563690185546875</LongitudeDegrees>
            </Position>
            <AltitudeMeters>45.200000762939453125</AltitudeMeters>
            <DistanceMeters>NAN</DistanceMeters>
          </Trackpoint>
          <Trackpoint>
            <Time>2022-07-04T10:38:34.000Z</Time>
            <Position>
              <LatitudeDegrees>44.7696332819759845733642578125</LatitudeDegrees>
              <LongitudeDegrees>-0.75656508095562458038330078125</LongitudeDegrees>
            </Position>
            <AltitudeMeters>45</AltitudeMeters>
            <DistanceMeters>NAN</DistanceMeters>
          </Trackpoint>
          <Trackpoint>
            <Time>2022-07-04T10:38:40.000Z</Time>
            <Position>
              <LatitudeDegrees>44.7695994190871715545654296875</LatitudeDegrees>
              <LongitudeDegrees>-0.756843946874141693115234375</LongitudeDegrees>
            </Position>
            <AltitudeMeters>45</AltitudeMeters>
            <DistanceMeters>NAN</DistanceMeters>
          </Trackpoint>
          <Trackpoint>
            <Time>2022-07-04T10:38:46.000Z</Time>
            <Position>
              <LatitudeDegrees>44.76963001303374767303466796875</LatitudeDegrees>
              <LongitudeDegrees>-0.7571153528988361358642578125</LongitudeDegrees>
            </Position>
            <AltitudeMeters>45.200000762939453125</AltitudeMeters>
            <DistanceMeters>NAN</DistanceMeters>
          </Trackpoint>
          <Trackpoint>
            <Time>2022-07-04T10:38:48.000Z</Time>
            <Position>
              <LatitudeDegrees>44.76963085122406482696533203125</LatitudeDegrees>
              <LongitudeDegrees>-0.75721249915659427642822265625</LongitudeDegrees>
            </Position>
            <AltitudeMeters>45</AltitudeMeters>
            <DistanceMeters>NAN</DistanceMeters>
          </Trackpoint>
          <Trackpoint>
            <Time>2022-07-04T10:38:54.000Z</Time>
            <Position>
              <LatitudeDegrees>44.7696151770651340484619140625</LatitudeDegrees>
              <LongitudeDegrees>-0.75751659460365772247314453125</LongitudeDegrees>
            </Position>
            <AltitudeMeters>45</AltitudeMeters>
            <DistanceMeters>NAN</DistanceMeters>
          </Trackpoint>
          <Trackpoint>
            <Time>2022-07-04T10:39:01.000Z</Time>
            <Position>
              <LatitudeDegrees>44.76963537745177745819091796875</LatitudeDegrees>
              <LongitudeDegrees>-0.75786511413753032684326171875</LongitudeDegrees>
            </Position>
            <AltitudeMeters>45</AltitudeMeters>
            <DistanceMeters>NAN</DistanceMeters>
          </Trackpoint>
          <Trackpoint>
            <Time>2022-07-04T10:39:06.000Z</Time>
            <Position>
              <LatitudeDegrees>44.76964141242206096649169921875</LatitudeDegrees>
              <LongitudeDegrees>-0.75811740942299365997314453125</LongitudeDegrees>
            </Position>
            <AltitudeMeters>45.200000762939453125</AltitudeMeters>
            <DistanceMeters>NAN</DistanceMeters>
          </Trackpoint>
          <Trackpoint>
            <Time>2022-07-04T10:39:08.000Z</Time>
            <Position>
              <LatitudeDegrees>44.76963780820369720458984375</LatitudeDegrees>
              <LongitudeDegrees>-0.7582194171845912933349609375</LongitudeDegrees>
            </Position>
            <AltitudeMeters>45.200000762939453125</AltitudeMeters>
            <DistanceMeters>NAN</DistanceMeters>
          </Trackpoint>
          <Trackpoint>
            <Time>2022-07-04T10:39:14.000Z</Time>
            <Position>
              <LatitudeDegrees>44.76961643435060977935791015625</LatitudeDegrees>
              <LongitudeDegrees>-0.7585402764379978179931640625</LongitudeDegrees>
            </Position>
            <AltitudeMeters>45.200000762939453125</AltitudeMeters>
            <DistanceMeters>NAN</DistanceMeters>
          </Trackpoint>
          <Trackpoint>
            <Time>2022-07-04T10:39:17.000Z</Time>
            <Position>
              <LatitudeDegrees>44.76963319815695285797119140625</LatitudeDegrees>
              <LongitudeDegrees>-0.75869676657021045684814453125</LongitudeDegrees>
            </Position>
            <AltitudeMeters>45.200000762939453125</AltitudeMeters>
            <DistanceMeters>NAN</DistanceMeters>
          </Trackpoint>
          <Trackpoint>
            <Time>2022-07-04T10:39:25.000Z</Time>
            <Position>
              <LatitudeDegrees>44.7696470282971858978271484375</LatitudeDegrees>
              <LongitudeDegrees>-0.75910546816885471343994140625</LongitudeDegrees>
            </Position>
            <AltitudeMeters>45.200000762939453125</AltitudeMeters>
            <DistanceMeters>NAN</DistanceMeters>
          </Trackpoint>
          <Trackpoint>
            <Time>2022-07-04T10:39:33.000Z</Time>
            <Position>
              <LatitudeDegrees>44.7696507163345813751220703125</LatitudeDegrees>
              <LongitudeDegrees>-0.7595155946910381317138671875</LongitudeDegrees>
            </Position>
            <AltitudeMeters>45</AltitudeMeters>
            <DistanceMeters>NAN</DistanceMeters>
          </Trackpoint>
          <Trackpoint>
            <Time>2022-07-04T10:39:39.000Z</Time>
            <Position>
              <LatitudeDegrees>44.76966421119868755340576171875</LatitudeDegrees>
              <LongitudeDegrees>-0.75981684029102325439453125</LongitudeDegrees>
            </Position>
            <AltitudeMeters>45</AltitudeMeters>
            <DistanceMeters>NAN</DistanceMeters>
          </Trackpoint>
          <Trackpoint>
            <Time>2022-07-04T10:39:44.000Z</Time>
            <Position>
              <LatitudeDegrees>44.76965432055294513702392578125</LatitudeDegrees>
              <LongitudeDegrees>-0.76007022522389888763427734375</LongitudeDegrees>
            </Position>
            <AltitudeMeters>45.200000762939453125</AltitudeMeters>
            <DistanceMeters>NAN</DistanceMeters>
          </Trackpoint>
          <Trackpoint>
            <Time>2022-07-04T10:39:53.000Z</Time>
            <Position>
              <LatitudeDegrees>44.769659601151943206787109375</LatitudeDegrees>
              <LongitudeDegrees>-0.7605170644819736480712890625</LongitudeDegrees>
            </Position>
            <AltitudeMeters>45.200000762939453125</AltitudeMeters>
            <DistanceMeters>NAN</DistanceMeters>
          </Trackpoint>
          <Trackpoint>
            <Time>2022-07-04T10:40:00.000Z</Time>
            <Position>
              <LatitudeDegrees>44.7696822322905063629150390625</LatitudeDegrees>
              <LongitudeDegrees>-0.7608528435230255126953125</LongitudeDegrees>
            </Position>
            <AltitudeMeters>45</AltitudeMeters>
            <DistanceMeters>NAN</DistanceMeters>
          </Trackpoint>
          <Trackpoint>
            <Time>2022-07-04T10:40:06.000Z</Time>
            <Position>
              <LatitudeDegrees>44.76970293559134006500244140625</LatitudeDegrees>
              <LongitudeDegrees>-0.76116138137876987457275390625</LongitudeDegrees>
            </Position>
            <AltitudeMeters>44.799999237060546875</AltitudeMeters>
            <DistanceMeters>NAN</DistanceMeters>
          </Trackpoint>
          <Trackpoint>
            <Time>2022-07-04T10:40:12.000Z</Time>
            <Position>
              <LatitudeDegrees>44.769705198705196380615234375</LatitudeDegrees>
              <LongitudeDegrees>-0.76145164668560028076171875</LongitudeDegrees>
            </Position>
            <AltitudeMeters>45.200000762939453125</AltitudeMeters>
            <DistanceMeters>NAN</DistanceMeters>
          </Trackpoint>
          <Trackpoint>
            <Time>2022-07-04T10:40:16.000Z</Time>
            <Position>
              <LatitudeDegrees>44.76969639770686626434326171875</LatitudeDegrees>
              <LongitudeDegrees>-0.76163294725120067596435546875</LongitudeDegrees>
            </Position>
            <AltitudeMeters>45.200000762939453125</AltitudeMeters>
            <DistanceMeters>NAN</DistanceMeters>
          </Trackpoint>
          <Trackpoint>
            <Time>2022-07-04T10:40:22.000Z</Time>
            <Position>
              <LatitudeDegrees>44.76968918927013874053955078125</LatitudeDegrees>
              <LongitudeDegrees>-0.7619208656251430511474609375</LongitudeDegrees>
            </Position>
            <AltitudeMeters>45.40000152587890625</AltitudeMeters>
            <DistanceMeters>NAN</DistanceMeters>
          </Trackpoint>
          <Trackpoint>
            <Time>2022-07-04T10:40:24.000Z</Time>
            <Position>
              <LatitudeDegrees>44.76967963390052318572998046875</LatitudeDegrees>
              <LongitudeDegrees>-0.76202404685318470001220703125</LongitudeDegrees>
            </Position>
            <AltitudeMeters>45.40000152587890625</AltitudeMeters>
            <DistanceMeters>NAN</DistanceMeters>
          </Trackpoint>
          <Trackpoint>
            <Time>2022-07-04T10:40:26.000Z</Time>
            <Position>
              <LatitudeDegrees>44.76968281902372837066650390625</LatitudeDegrees>
              <LongitudeDegrees>-0.7621228694915771484375</LongitudeDegrees>
            </Position>
            <AltitudeMeters>45.40000152587890625</AltitudeMeters>
            <DistanceMeters>NAN</DistanceMeters>
          </Trackpoint>
          <Trackpoint>
            <Time>2022-07-04T10:40:27.000Z</Time>
            <Position>
              <LatitudeDegrees>44.76968684233725070953369140625</LatitudeDegrees>
              <LongitudeDegrees>-0.76216913759708404541015625</LongitudeDegrees>
            </Position>
            <AltitudeMeters>45.40000152587890625</AltitudeMeters>
            <DistanceMeters>NAN</DistanceMeters>
          </Trackpoint>
          <Trackpoint>
            <Time>2022-07-04T10:40:32.000Z</Time>
            <Position>
              <LatitudeDegrees>44.76967846043407917022705078125</LatitudeDegrees>
              <LongitudeDegrees>-0.762412548065185546875</LongitudeDegrees>
            </Position>
            <AltitudeMeters>45</AltitudeMeters>
            <DistanceMeters>NAN</DistanceMeters>
          </Trackpoint>
          <Trackpoint>
            <Time>2022-07-04T10:40:37.000Z</Time>
            <Position>
              <LatitudeDegrees>44.7696829028427600860595703125</LatitudeDegrees>
              <LongitudeDegrees>-0.76263852417469024658203125</LongitudeDegrees>
            </Position>
            <AltitudeMeters>45.200000762939453125</AltitudeMeters>
            <DistanceMeters>NAN</DistanceMeters>
          </Trackpoint>
          <Trackpoint>
            <Time>2022-07-04T10:40:38.000Z</Time>
            <Position>
              <LatitudeDegrees>44.76968013681471347808837890625</LatitudeDegrees>
              <LongitudeDegrees>-0.7626847922801971435546875</LongitudeDegrees>
            </Position>
            <AltitudeMeters>45.200000762939453125</AltitudeMeters>
            <DistanceMeters>NAN</DistanceMeters>
          </Trackpoint>
          <Trackpoint>
            <Time>2022-07-04T10:40:43.000Z</Time>
            <Position>
              <LatitudeDegrees>44.769681394100189208984375</LatitudeDegrees>
              <LongitudeDegrees>-0.76289660297334194183349609375</LongitudeDegrees>
            </Position>
            <AltitudeMeters>45.40000152587890625</AltitudeMeters>
            <DistanceMeters>NAN</DistanceMeters>
          </Trackpoint>
          <Trackpoint>
            <Time>2022-07-04T10:40:46.000Z</Time>
            <Position>
              <LatitudeDegrees>44.76968365721404552459716796875</LatitudeDegrees>
              <LongitudeDegrees>-0.7630383409559726715087890625</LongitudeDegrees>
            </Position>
            <AltitudeMeters>45.200000762939453125</AltitudeMeters>
            <DistanceMeters>NAN</DistanceMeters>
          </Trackpoint>
          <Trackpoint>
            <Time>2022-07-04T10:40:52.000Z</Time>
            <Position>
              <LatitudeDegrees>44.769685752689838409423828125</LatitudeDegrees>
              <LongitudeDegrees>-0.7633179612457752227783203125</LongitudeDegrees>
            </Position>
            <AltitudeMeters>45.40000152587890625</AltitudeMeters>
            <DistanceMeters>NAN</DistanceMeters>
          </Trackpoint>
          <Trackpoint>
            <Time>2022-07-04T10:41:00.000Z</Time>
            <Position>
              <LatitudeDegrees>44.76971383206546306610107421875</LatitudeDegrees>
              <LongitudeDegrees>-0.763676874339580535888671875</LongitudeDegrees>
            </Position>
            <AltitudeMeters>45.200000762939453125</AltitudeMeters>
            <DistanceMeters>NAN</DistanceMeters>
          </Trackpoint>
          <Trackpoint>
            <Time>2022-07-04T10:41:06.000Z</Time>
            <Position>
              <LatitudeDegrees>44.76971550844609737396240234375</LatitudeDegrees>
              <LongitudeDegrees>-0.7639020122587680816650390625</LongitudeDegrees>
            </Position>
            <AltitudeMeters>45.40000152587890625</AltitudeMeters>
            <DistanceMeters>NAN</DistanceMeters>
          </Trackpoint>
          <Trackpoint>
            <Time>2022-07-04T10:41:10.000Z</Time>
            <Position>
              <LatitudeDegrees>44.76969690062105655670166015625</LatitudeDegrees>
              <LongitudeDegrees>-0.76412580907344818115234375</LongitudeDegrees>
            </Position>
            <AltitudeMeters>45.200000762939453125</AltitudeMeters>
            <DistanceMeters>NAN</DistanceMeters>
          </Trackpoint>
          <Trackpoint>
            <Time>2022-07-04T10:41:12.000Z</Time>
            <Position>
              <LatitudeDegrees>44.769697487354278564453125</LatitudeDegrees>
              <LongitudeDegrees>-0.76420719735324382781982421875</LongitudeDegrees>
            </Position>
            <AltitudeMeters>45.40000152587890625</AltitudeMeters>
            <DistanceMeters>NAN</DistanceMeters>
          </Trackpoint>
          <Trackpoint>
            <Time>2022-07-04T10:41:20.000Z</Time>
            <Position>
              <LatitudeDegrees>44.76971089839935302734375</LatitudeDegrees>
              <LongitudeDegrees>-0.76452679932117462158203125</LongitudeDegrees>
            </Position>
            <AltitudeMeters>45.200000762939453125</AltitudeMeters>
            <DistanceMeters>NAN</DistanceMeters>
          </Trackpoint>
          <Trackpoint>
            <Time>2022-07-04T10:41:25.000Z</Time>
            <Position>
              <LatitudeDegrees>44.7697217948734760284423828125</LatitudeDegrees>
              <LongitudeDegrees>-0.76473123393952846527099609375</LongitudeDegrees>
            </Position>
            <AltitudeMeters>45.200000762939453125</AltitudeMeters>
            <DistanceMeters>NAN</DistanceMeters>
          </Trackpoint>
          <Trackpoint>
            <Time>2022-07-04T10:41:27.000Z</Time>
            <Position>
              <LatitudeDegrees>44.76971433497965335845947265625</LatitudeDegrees>
              <LongitudeDegrees>-0.76480600051581859588623046875</LongitudeDegrees>
            </Position>
            <AltitudeMeters>45.200000762939453125</AltitudeMeters>
            <DistanceMeters>NAN</DistanceMeters>
          </Trackpoint>
          <Trackpoint>
            <Time>2022-07-04T10:41:30.000Z</Time>
            <Position>
              <LatitudeDegrees>44.76970846764743328094482421875</LatitudeDegrees>
              <LongitudeDegrees>-0.76493139378726482391357421875</LongitudeDegrees>
            </Position>
            <AltitudeMeters>45.200000762939453125</AltitudeMeters>
            <DistanceMeters>NAN</DistanceMeters>
          </Trackpoint>
          <Trackpoint>
            <Time>2022-07-04T10:41:35.000Z</Time>
            <Position>
              <LatitudeDegrees>44.7697310149669647216796875</LatitudeDegrees>
              <LongitudeDegrees>-0.76512535102665424346923828125</LongitudeDegrees>
            </Position>
            <AltitudeMeters>45.200000762939453125</AltitudeMeters>
            <DistanceMeters>NAN</DistanceMeters>
          </Trackpoint>
          <Trackpoint>
            <Time>2022-07-04T10:41:40.000Z</Time>
            <Position>
              <LatitudeDegrees>44.7697285003960132598876953125</LatitudeDegrees>
              <LongitudeDegrees>-0.7653433643281459808349609375</LongitudeDegrees>
            </Position>
            <AltitudeMeters>45.40000152587890625</AltitudeMeters>
            <DistanceMeters>NAN</DistanceMeters>
          </Trackpoint>
          <Trackpoint>
            <Time>2022-07-04T10:41:46.000Z</Time>
            <Position>
              <LatitudeDegrees>44.7697355411946773529052734375</LatitudeDegrees>
              <LongitudeDegrees>-0.7656011916697025299072265625</LongitudeDegrees>
            </Position>
            <AltitudeMeters>45.200000762939453125</AltitudeMeters>
            <DistanceMeters>NAN</DistanceMeters>
          </Trackpoint>
          <Trackpoint>
            <Time>2022-07-04T10:41:53.000Z</Time>
            <Position>
              <LatitudeDegrees>44.76975691504776477813720703125</LatitudeDegrees>
              <LongitudeDegrees>-0.76590989716351032257080078125</LongitudeDegrees>
            </Position>
            <AltitudeMeters>45.200000762939453125</AltitudeMeters>
            <DistanceMeters>NAN</DistanceMeters>
          </Trackpoint>
          <Trackpoint>
            <Time>2022-07-04T10:42:01.000Z</Time>
            <Position>
              <LatitudeDegrees>44.76976311765611171722412109375</LatitudeDegrees>
              <LongitudeDegrees>-0.76627551577985286712646484375</LongitudeDegrees>
            </Position>
            <AltitudeMeters>45.40000152587890625</AltitudeMeters>
            <DistanceMeters>NAN</DistanceMeters>
          </Trackpoint>
          <Trackpoint>
            <Time>2022-07-04T10:42:07.000Z</Time>
            <Position>
              <LatitudeDegrees>44.769756495952606201171875</LatitudeDegrees>
              <LongitudeDegrees>-0.7665584050118923187255859375</LongitudeDegrees>
            </Position>
            <AltitudeMeters>45.200000762939453125</AltitudeMeters>
            <DistanceMeters>NAN</DistanceMeters>
          </Trackpoint>
          <Trackpoint>
            <Time>2022-07-04T10:42:13.000Z</Time>
            <Position>
              <LatitudeDegrees>44.76974836550652980804443359375</LatitudeDegrees>
              <LongitudeDegrees>-0.76681665144860744476318359375</LongitudeDegrees>
            </Position>
            <AltitudeMeters>45.200000762939453125</AltitudeMeters>
            <DistanceMeters>NAN</DistanceMeters>
          </Trackpoint>
          <Trackpoint>
            <Time>2022-07-04T10:42:19.000Z</Time>
            <Position>
              <LatitudeDegrees>44.76975448429584503173828125</LatitudeDegrees>
              <LongitudeDegrees>-0.76710113324224948883056640625</LongitudeDegrees>
            </Position>
            <AltitudeMeters>45.40000152587890625</AltitudeMeters>
            <DistanceMeters>NAN</DistanceMeters>
          </Trackpoint>
          <Trackpoint>
            <Time>2022-07-04T10:42:27.000Z</Time>
            <Position>
              <LatitudeDegrees>44.76976412348449230194091796875</LatitudeDegrees>
              <LongitudeDegrees>-0.767469517886638641357421875</LongitudeDegrees>
            </Position>
            <AltitudeMeters>45.40000152587890625</AltitudeMeters>
            <DistanceMeters>NAN</DistanceMeters>
          </Trackpoint>
          <Trackpoint>
            <Time>2022-07-04T10:42:33.000Z</Time>
            <Position>
              <LatitudeDegrees>44.76976311765611171722412109375</LatitudeDegrees>
              <LongitudeDegrees>-0.7677509821951389312744140625</LongitudeDegrees>
            </Position>
            <AltitudeMeters>45.59999847412109375</AltitudeMeters>
            <DistanceMeters>NAN</DistanceMeters>
          </Trackpoint>
          <Trackpoint>
            <Time>2022-07-04T10:42:34.000Z</Time>
            <Position>
              <LatitudeDegrees>44.769766218960285186767578125</LatitudeDegrees>
              <LongitudeDegrees>-0.76779414899647235870361328125</LongitudeDegrees>
            </Position>
            <AltitudeMeters>45.59999847412109375</AltitudeMeters>
            <DistanceMeters>NAN</DistanceMeters>
          </Trackpoint>
          <Trackpoint>
            <Time>2022-07-04T10:42:42.000Z</Time>
            <Position>
              <LatitudeDegrees>44.76978524588048458099365234375</LatitudeDegrees>
              <LongitudeDegrees>-0.768212489783763885498046875</LongitudeDegrees>
            </Position>
            <AltitudeMeters>46</AltitudeMeters>
            <DistanceMeters>NAN</DistanceMeters>
          </Trackpoint>
          <Trackpoint>
            <Time>2022-07-04T10:42:51.000Z</Time>
            <Position>
              <LatitudeDegrees>44.76976848207414150238037109375</LatitudeDegrees>
              <LongitudeDegrees>-0.76870224438607692718505859375</LongitudeDegrees>
            </Position>
            <AltitudeMeters>46.200000762939453125</AltitudeMeters>
            <DistanceMeters>NAN</DistanceMeters>
          </Trackpoint>
          <Trackpoint>
            <Time>2022-07-04T10:42:53.000Z</Time>
            <Position>
              <LatitudeDegrees>44.76976948790252208709716796875</LatitudeDegrees>
              <LongitudeDegrees>-0.7688121311366558074951171875</LongitudeDegrees>
            </Position>
            <AltitudeMeters>46.200000762939453125</AltitudeMeters>
            <DistanceMeters>NAN</DistanceMeters>
          </Trackpoint>
          <Trackpoint>
            <Time>2022-07-04T10:42:59.000Z</Time>
            <Position>
              <LatitudeDegrees>44.7697808034718036651611328125</LatitudeDegrees>
              <LongitudeDegrees>-0.76914397068321704864501953125</LongitudeDegrees>
            </Position>
            <AltitudeMeters>46.200000762939453125</AltitudeMeters>
            <DistanceMeters>NAN</DistanceMeters>
          </Trackpoint>
          <Trackpoint>
            <Time>2022-07-04T10:43:04.000Z</Time>
            <Position>
              <LatitudeDegrees>44.76978667080402374267578125</LatitudeDegrees>
              <LongitudeDegrees>-0.76942057348787784576416015625</LongitudeDegrees>
            </Position>
            <AltitudeMeters>46.200000762939453125</AltitudeMeters>
            <DistanceMeters>NAN</DistanceMeters>
          </Trackpoint>
          <Trackpoint>
            <Time>2022-07-04T10:43:07.000Z</Time>
            <Position>
              <LatitudeDegrees>44.769785664975643157958984375</LatitudeDegrees>
              <LongitudeDegrees>-0.769589133560657501220703125</LongitudeDegrees>
            </Position>
            <AltitudeMeters>46.200000762939453125</AltitudeMeters>
            <DistanceMeters>NAN</DistanceMeters>
          </Trackpoint>
          <Trackpoint>
            <Time>2022-07-04T10:43:11.000Z</Time>
            <Position>
              <LatitudeDegrees>44.769787006080150604248046875</LatitudeDegrees>
              <LongitudeDegrees>-0.76981150545179843902587890625</LongitudeDegrees>
            </Position>
            <AltitudeMeters>46.200000762939453125</AltitudeMeters>
            <DistanceMeters>NAN</DistanceMeters>
          </Trackpoint>
          <Trackpoint>
            <Time>2022-07-04T10:43:13.000Z</Time>
            <Position>
              <LatitudeDegrees>44.76978675462305545806884765625</LatitudeDegrees>
              <LongitudeDegrees>-0.76993036083877086639404296875</LongitudeDegrees>
            </Position>
            <AltitudeMeters>46.200000762939453125</AltitudeMeters>
            <DistanceMeters>NAN</DistanceMeters>
          </Trackpoint>
          <Trackpoint>
            <Time>2022-07-04T10:43:14.000Z</Time>
            <Position>
              <LatitudeDegrees>44.76978600025177001953125</LatitudeDegrees>
              <LongitudeDegrees>-0.7699882797896862030029296875</LongitudeDegrees>
            </Position>
            <AltitudeMeters>46.200000762939453125</AltitudeMeters>
            <DistanceMeters>NAN</DistanceMeters>
          </Trackpoint>
          <Trackpoint>
            <Time>2022-07-04T10:43:16.000Z</Time>
            <Position>
              <LatitudeDegrees>44.769789017736911773681640625</LatitudeDegrees>
              <LongitudeDegrees>-0.7701019383966922760009765625</LongitudeDegrees>
            </Position>
            <AltitudeMeters>46</AltitudeMeters>
            <DistanceMeters>NAN</DistanceMeters>
          </Trackpoint>
          <Trackpoint>
            <Time>2022-07-04T10:43:19.000Z</Time>
            <Position>
              <LatitudeDegrees>44.76979480125010013580322265625</LatitudeDegrees>
              <LongitudeDegrees>-0.7702668942511081695556640625</LongitudeDegrees>
            </Position>
            <AltitudeMeters>45.799999237060546875</AltitudeMeters>
            <DistanceMeters>NAN</DistanceMeters>
          </Trackpoint>
          <Trackpoint>
            <Time>2022-07-04T10:43:22.000Z</Time>
            <Position>
              <LatitudeDegrees>44.76979069411754608154296875</LatitudeDegrees>
              <LongitudeDegrees>-0.77044107019901275634765625</LongitudeDegrees>
            </Position>
            <AltitudeMeters>45.799999237060546875</AltitudeMeters>
            <DistanceMeters>NAN</DistanceMeters>
          </Trackpoint>
          <Trackpoint>
            <Time>2022-07-04T10:43:25.000Z</Time>
            <Position>
              <LatitudeDegrees>44.76979203522205352783203125</LatitudeDegrees>
              <LongitudeDegrees>-0.770602338016033172607421875</LongitudeDegrees>
            </Position>
            <AltitudeMeters>45.59999847412109375</AltitudeMeters>
            <DistanceMeters>NAN</DistanceMeters>
          </Trackpoint>
          <Trackpoint>
            <Time>2022-07-04T10:43:28.000Z</Time>
            <Position>
              <LatitudeDegrees>44.76979547180235385894775390625</LatitudeDegrees>
              <LongitudeDegrees>-0.77070032246410846710205078125</LongitudeDegrees>
            </Position>
            <AltitudeMeters>45.40000152587890625</AltitudeMeters>
            <DistanceMeters>NAN</DistanceMeters>
          </Trackpoint>
          <Trackpoint>
            <Time>2022-07-04T10:43:30.000Z</Time>
            <Position>
              <LatitudeDegrees>44.7697962261736392974853515625</LatitudeDegrees>
              <LongitudeDegrees>-0.77070635743439197540283203125</LongitudeDegrees>
            </Position>
            <AltitudeMeters>45.200000762939453125</AltitudeMeters>
            <DistanceMeters>NAN</DistanceMeters>
          </Trackpoint>
          <Trackpoint>
            <Time>2022-07-04T10:43:31.000Z</Time>
            <Position>
              <LatitudeDegrees>44.7697962261736392974853515625</LatitudeDegrees>
              <LongitudeDegrees>-0.77070635743439197540283203125</LongitudeDegrees>
            </Position>
            <AltitudeMeters>45.200000762939453125</AltitudeMeters>
            <DistanceMeters>NAN</DistanceMeters>
          </Trackpoint>
          <Trackpoint>
            <Time>2022-07-04T10:45:46.000Z</Time>
            <Position>
              <LatitudeDegrees>44.76981215178966522216796875</LatitudeDegrees>
              <LongitudeDegrees>-0.77078380621969699859619140625</LongitudeDegrees>
            </Position>
            <AltitudeMeters>44.59999847412109375</AltitudeMeters>
            <DistanceMeters>NAN</DistanceMeters>
          </Trackpoint>
          <Trackpoint>
            <Time>2022-07-04T10:45:47.000Z</Time>
            <Position>
              <LatitudeDegrees>44.76980888284742832183837890625</LatitudeDegrees>
              <LongitudeDegrees>-0.77081196941435337066650390625</LongitudeDegrees>
            </Position>
            <AltitudeMeters>44.59999847412109375</AltitudeMeters>
            <DistanceMeters>NAN</DistanceMeters>
          </Trackpoint>
          <Trackpoint>
            <Time>2022-07-04T10:45:52.000Z</Time>
            <Position>
              <LatitudeDegrees>44.76980368606746196746826171875</LatitudeDegrees>
              <LongitudeDegrees>-0.7709984667599201202392578125</LongitudeDegrees>
            </Position>
            <AltitudeMeters>44.799999237060546875</AltitudeMeters>
            <DistanceMeters>NAN</DistanceMeters>
          </Trackpoint>
          <Trackpoint>
            <Time>2022-07-04T10:45:59.000Z</Time>
            <Position>
              <LatitudeDegrees>44.76980754174292087554931640625</LatitudeDegrees>
              <LongitudeDegrees>-0.771253444254398345947265625</LongitudeDegrees>
            </Position>
            <AltitudeMeters>45</AltitudeMeters>
            <DistanceMeters>NAN</DistanceMeters>
          </Trackpoint>
          <Trackpoint>
            <Time>2022-07-04T10:46:05.000Z</Time>
            <Position>
              <LatitudeDegrees>44.76980821229517459869384765625</LatitudeDegrees>
              <LongitudeDegrees>-0.77140909619629383087158203125</LongitudeDegrees>
            </Position>
            <AltitudeMeters>45</AltitudeMeters>
            <DistanceMeters>NAN</DistanceMeters>
          </Trackpoint>
          <Trackpoint>
            <Time>2022-07-04T10:46:10.000Z</Time>
            <Position>
              <LatitudeDegrees>44.76979178376495838165283203125</LatitudeDegrees>
              <LongitudeDegrees>-0.77163272537291049957275390625</LongitudeDegrees>
            </Position>
            <AltitudeMeters>45.200000762939453125</AltitudeMeters>
            <DistanceMeters>NAN</DistanceMeters>
          </Trackpoint>
          <Trackpoint>
            <Time>2022-07-04T10:46:16.000Z</Time>
            <Position>
              <LatitudeDegrees>44.7697952203452587127685546875</LatitudeDegrees>
              <LongitudeDegrees>-0.77194537036120891571044921875</LongitudeDegrees>
            </Position>
            <AltitudeMeters>45</AltitudeMeters>
            <DistanceMeters>NAN</DistanceMeters>
          </Trackpoint>
          <Trackpoint>
            <Time>2022-07-04T10:46:18.000Z</Time>
            <Position>
              <LatitudeDegrees>44.76979999803006649017333984375</LatitudeDegrees>
              <LongitudeDegrees>-0.772050060331821441650390625</LongitudeDegrees>
            </Position>
            <AltitudeMeters>45.200000762939453125</AltitudeMeters>
            <DistanceMeters>NAN</DistanceMeters>
          </Trackpoint>
          <Trackpoint>
            <Time>2022-07-04T10:46:24.000Z</Time>
            <Position>
              <LatitudeDegrees>44.7697948850691318511962890625</LatitudeDegrees>
              <LongitudeDegrees>-0.77234351076185703277587890625</LongitudeDegrees>
            </Position>
            <AltitudeMeters>44.799999237060546875</AltitudeMeters>
            <DistanceMeters>NAN</DistanceMeters>
          </Trackpoint>
          <Trackpoint>
            <Time>2022-07-04T10:46:28.000Z</Time>
            <Position>
              <LatitudeDegrees>44.76978977210819721221923828125</LatitudeDegrees>
              <LongitudeDegrees>-0.7725553214550018310546875</LongitudeDegrees>
            </Position>
            <AltitudeMeters>44.799999237060546875</AltitudeMeters>
            <DistanceMeters>NAN</DistanceMeters>
          </Trackpoint>
          <Trackpoint>
            <Time>2022-07-04T10:46:36.000Z</Time>
            <Position>
              <LatitudeDegrees>44.76981676183640956878662109375</LatitudeDegrees>
              <LongitudeDegrees>-0.772971399128437042236328125</LongitudeDegrees>
            </Position>
            <AltitudeMeters>44.799999237060546875</AltitudeMeters>
            <DistanceMeters>NAN</DistanceMeters>
          </Trackpoint>
          <Trackpoint>
            <Time>2022-07-04T10:46:43.000Z</Time>
            <Position>
              <LatitudeDegrees>44.76981961168348789215087890625</LatitudeDegrees>
              <LongitudeDegrees>-0.7732324115931987762451171875</LongitudeDegrees>
            </Position>
            <AltitudeMeters>44.799999237060546875</AltitudeMeters>
            <DistanceMeters>NAN</DistanceMeters>
          </Trackpoint>
          <Trackpoint>
            <Time>2022-07-04T10:46:51.000Z</Time>
            <Position>
              <LatitudeDegrees>44.76981961168348789215087890625</LatitudeDegrees>
              <LongitudeDegrees>-0.77347733080387115478515625</LongitudeDegrees>
            </Position>
            <AltitudeMeters>44.59999847412109375</AltitudeMeters>
            <DistanceMeters>NAN</DistanceMeters>
          </Trackpoint>
          <Trackpoint>
            <Time>2022-07-04T10:46:55.000Z</Time>
            <Position>
              <LatitudeDegrees>44.769823551177978515625</LatitudeDegrees>
              <LongitudeDegrees>-0.77350054867565631866455078125</LongitudeDegrees>
            </Position>
            <AltitudeMeters>44.59999847412109375</AltitudeMeters>
            <DistanceMeters>NAN</DistanceMeters>
          </Trackpoint>
          <Trackpoint>
            <Time>2022-07-04T10:52:24.000Z</Time>
            <Position>
              <LatitudeDegrees>44.76981676183640956878662109375</LatitudeDegrees>
              <LongitudeDegrees>-0.7735613174736499786376953125</LongitudeDegrees>
            </Position>
            <AltitudeMeters>44.59999847412109375</AltitudeMeters>
            <DistanceMeters>NAN</DistanceMeters>
          </Trackpoint>
          <Trackpoint>
            <Time>2022-07-04T10:52:26.000Z</Time>
            <Position>
              <LatitudeDegrees>44.769817180931568145751953125</LatitudeDegrees>
              <LongitudeDegrees>-0.77362091280519962310791015625</LongitudeDegrees>
            </Position>
            <AltitudeMeters>44.59999847412109375</AltitudeMeters>
            <DistanceMeters>NAN</DistanceMeters>
          </Trackpoint>
          <Trackpoint>
            <Time>2022-07-04T10:52:27.000Z</Time>
            <Position>
              <LatitudeDegrees>44.76981743238866329193115234375</LatitudeDegrees>
              <LongitudeDegrees>-0.77365376986563205718994140625</LongitudeDegrees>
            </Position>
            <AltitudeMeters>43</AltitudeMeters>
            <DistanceMeters>NAN</DistanceMeters>
          </Trackpoint>
          <Trackpoint>
            <Time>2022-07-04T10:52:28.000Z</Time>
            <Position>
              <LatitudeDegrees>44.76981676183640956878662109375</LatitudeDegrees>
              <LongitudeDegrees>-0.77369031496345996856689453125</LongitudeDegrees>
            </Position>
            <AltitudeMeters>42.200000762939453125</AltitudeMeters>
            <DistanceMeters>NAN</DistanceMeters>
          </Trackpoint>
          <Trackpoint>
            <Time>2022-07-04T10:52:29.000Z</Time>
            <Position>
              <LatitudeDegrees>44.76981089450418949127197265625</LatitudeDegrees>
              <LongitudeDegrees>-0.77373239211738109588623046875</LongitudeDegrees>
            </Position>
            <AltitudeMeters>41.799999237060546875</AltitudeMeters>
            <DistanceMeters>NAN</DistanceMeters>
          </Trackpoint>
          <Trackpoint>
            <Time>2022-07-04T10:52:30.000Z</Time>
            <Position>
              <LatitudeDegrees>44.7698076255619525909423828125</LatitudeDegrees>
              <LongitudeDegrees>-0.7737758941948413848876953125</LongitudeDegrees>
            </Position>
            <AltitudeMeters>41.59999847412109375</AltitudeMeters>
            <DistanceMeters>NAN</DistanceMeters>
          </Trackpoint>
          <Trackpoint>
            <Time>2022-07-04T10:52:32.000Z</Time>
            <Position>
              <LatitudeDegrees>44.769803769886493682861328125</LatitudeDegrees>
              <LongitudeDegrees>-0.77386491000652313232421875</LongitudeDegrees>
            </Position>
            <AltitudeMeters>41.40000152587890625</AltitudeMeters>
            <DistanceMeters>NAN</DistanceMeters>
          </Trackpoint>
          <Trackpoint>
            <Time>2022-07-04T10:52:34.000Z</Time>
            <Position>
              <LatitudeDegrees>44.7698072902858257293701171875</LatitudeDegrees>
              <LongitudeDegrees>-0.77395501546561717987060546875</LongitudeDegrees>
            </Position>
            <AltitudeMeters>41.40000152587890625</AltitudeMeters>
            <DistanceMeters>NAN</DistanceMeters>
          </Trackpoint>
          <Trackpoint>
            <Time>2022-07-04T10:52:38.000Z</Time>
            <Position>
              <LatitudeDegrees>44.7698066197335720062255859375</LatitudeDegrees>
              <LongitudeDegrees>-0.77413757331669330596923828125</LongitudeDegrees>
            </Position>
            <AltitudeMeters>41.40000152587890625</AltitudeMeters>
            <DistanceMeters>NAN</DistanceMeters>
          </Trackpoint>
          <Trackpoint>
            <Time>2022-07-04T10:52:42.000Z</Time>
            <Position>
              <LatitudeDegrees>44.76979698054492473602294921875</LatitudeDegrees>
              <LongitudeDegrees>-0.77433052472770214080810546875</LongitudeDegrees>
            </Position>
            <AltitudeMeters>41.200000762939453125</AltitudeMeters>
            <DistanceMeters>NAN</DistanceMeters>
          </Trackpoint>
          <Trackpoint>
            <Time>2022-07-04T10:52:43.000Z</Time>
            <Position>
              <LatitudeDegrees>44.76980008184909820556640625</LatitudeDegrees>
              <LongitudeDegrees>-0.77438198961317539215087890625</LongitudeDegrees>
            </Position>
            <AltitudeMeters>41.200000762939453125</AltitudeMeters>
            <DistanceMeters>NAN</DistanceMeters>
          </Trackpoint>
          <Trackpoint>
            <Time>2022-07-04T10:52:46.000Z</Time>
            <Position>
              <LatitudeDegrees>44.76980251260101795196533203125</LatitudeDegrees>
              <LongitudeDegrees>-0.7745352946221828460693359375</LongitudeDegrees>
            </Position>
            <AltitudeMeters>41.200000762939453125</AltitudeMeters>
            <DistanceMeters>NAN</DistanceMeters>
          </Trackpoint>
          <Trackpoint>
            <Time>2022-07-04T10:52:53.000Z</Time>
            <Position>
              <LatitudeDegrees>44.769809804856777191162109375</LatitudeDegrees>
              <LongitudeDegrees>-0.77490116469562053680419921875</LongitudeDegrees>
            </Position>
            <AltitudeMeters>41.40000152587890625</AltitudeMeters>
            <DistanceMeters>NAN</DistanceMeters>
          </Trackpoint>
          <Trackpoint>
            <Time>2022-07-04T10:53:01.000Z</Time>
            <Position>
              <LatitudeDegrees>44.76982397027313709259033203125</LatitudeDegrees>
              <LongitudeDegrees>-0.77532243914902210235595703125</LongitudeDegrees>
            </Position>
            <AltitudeMeters>41.200000762939453125</AltitudeMeters>
            <DistanceMeters>NAN</DistanceMeters>
          </Trackpoint>
          <Trackpoint>
            <Time>2022-07-04T10:53:08.000Z</Time>
            <Position>
              <LatitudeDegrees>44.76982958614826202392578125</LatitudeDegrees>
              <LongitudeDegrees>-0.77561563812196254730224609375</LongitudeDegrees>
            </Position>
            <AltitudeMeters>41.200000762939453125</AltitudeMeters>
            <DistanceMeters>NAN</DistanceMeters>
          </Trackpoint>
          <Trackpoint>
            <Time>2022-07-04T10:53:14.000Z</Time>
            <Position>
              <LatitudeDegrees>44.76982782594859600067138671875</LatitudeDegrees>
              <LongitudeDegrees>-0.77589106746017932891845703125</LongitudeDegrees>
            </Position>
            <AltitudeMeters>41.59999847412109375</AltitudeMeters>
            <DistanceMeters>NAN</DistanceMeters>
          </Trackpoint>
          <Trackpoint>
            <Time>2022-07-04T10:53:18.000Z</Time>
            <Position>
              <LatitudeDegrees>44.76983419619500637054443359375</LatitudeDegrees>
              <LongitudeDegrees>-0.7760758884251117706298828125</LongitudeDegrees>
            </Position>
            <AltitudeMeters>41.40000152587890625</AltitudeMeters>
            <DistanceMeters>NAN</DistanceMeters>
          </Trackpoint>
          <Trackpoint>
            <Time>2022-07-04T10:53:27.000Z</Time>
            <Position>
              <LatitudeDegrees>44.7698435001075267791748046875</LatitudeDegrees>
              <LongitudeDegrees>-0.77650529332458972930908203125</LongitudeDegrees>
            </Position>
            <AltitudeMeters>41.59999847412109375</AltitudeMeters>
            <DistanceMeters>NAN</DistanceMeters>
          </Trackpoint>
          <Trackpoint>
            <Time>2022-07-04T10:53:37.000Z</Time>
            <Position>
              <LatitudeDegrees>44.76984844543039798736572265625</LatitudeDegrees>
              <LongitudeDegrees>-0.77702731825411319732666015625</LongitudeDegrees>
            </Position>
            <AltitudeMeters>41.59999847412109375</AltitudeMeters>
            <DistanceMeters>NAN</DistanceMeters>
          </Trackpoint>
          <Trackpoint>
            <Time>2022-07-04T10:53:46.000Z</Time>
            <Position>
              <LatitudeDegrees>44.7698616050183773040771484375</LatitudeDegrees>
              <LongitudeDegrees>-0.77747910283505916595458984375</LongitudeDegrees>
            </Position>
            <AltitudeMeters>41.59999847412109375</AltitudeMeters>
            <DistanceMeters>NAN</DistanceMeters>
          </Trackpoint>
          <Trackpoint>
            <Time>2022-07-04T10:53:54.000Z</Time>
            <Position>
              <LatitudeDegrees>44.7698525525629520416259765625</LatitudeDegrees>
              <LongitudeDegrees>-0.77786785550415515899658203125</LongitudeDegrees>
            </Position>
            <AltitudeMeters>42</AltitudeMeters>
            <DistanceMeters>NAN</DistanceMeters>
          </Trackpoint>
          <Trackpoint>
            <Time>2022-07-04T10:54:03.000Z</Time>
            <Position>
              <LatitudeDegrees>44.7698505409061908721923828125</LatitudeDegrees>
              <LongitudeDegrees>-0.77830656431615352630615234375</LongitudeDegrees>
            </Position>
            <AltitudeMeters>42</AltitudeMeters>
            <DistanceMeters>NAN</DistanceMeters>
          </Trackpoint>
          <Trackpoint>
            <Time>2022-07-04T10:54:10.000Z</Time>
            <Position>
              <LatitudeDegrees>44.76986185647547245025634765625</LatitudeDegrees>
              <LongitudeDegrees>-0.7786441035568714141845703125</LongitudeDegrees>
            </Position>
            <AltitudeMeters>42.40000152587890625</AltitudeMeters>
            <DistanceMeters>NAN</DistanceMeters>
          </Trackpoint>
          <Trackpoint>
            <Time>2022-07-04T10:54:20.000Z</Time>
            <Position>
              <LatitudeDegrees>44.7698502056300640106201171875</LatitudeDegrees>
              <LongitudeDegrees>-0.7791269011795520782470703125</LongitudeDegrees>
            </Position>
            <AltitudeMeters>42.40000152587890625</AltitudeMeters>
            <DistanceMeters>NAN</DistanceMeters>
          </Trackpoint>
          <Trackpoint>
            <Time>2022-07-04T10:54:27.000Z</Time>
            <Position>
              <LatitudeDegrees>44.769862778484821319580078125</LatitudeDegrees>
              <LongitudeDegrees>-0.77947072684764862060546875</LongitudeDegrees>
            </Position>
            <AltitudeMeters>42.59999847412109375</AltitudeMeters>
            <DistanceMeters>NAN</DistanceMeters>
          </Trackpoint>
          <Trackpoint>
            <Time>2022-07-04T10:54:35.000Z</Time>
            <Position>
              <LatitudeDegrees>44.7698780335485935211181640625</LatitudeDegrees>
              <LongitudeDegrees>-0.77992175705730915069580078125</LongitudeDegrees>
            </Position>
            <AltitudeMeters>42.799999237060546875</AltitudeMeters>
            <DistanceMeters>NAN</DistanceMeters>
          </Trackpoint>
          <Trackpoint>
            <Time>2022-07-04T10:54:36.000Z</Time>
            <Position>
              <LatitudeDegrees>44.7698803804814815521240234375</LatitudeDegrees>
              <LongitudeDegrees>-0.7799932546913623809814453125</LongitudeDegrees>
            </Position>
            <AltitudeMeters>42.799999237060546875</AltitudeMeters>
            <DistanceMeters>NAN</DistanceMeters>
          </Trackpoint>
          <Trackpoint>
            <Time>2022-07-04T10:54:41.000Z</Time>
            <Position>
              <LatitudeDegrees>44.76988666690886020660400390625</LatitudeDegrees>
              <LongitudeDegrees>-0.7802827656269073486328125</LongitudeDegrees>
            </Position>
            <AltitudeMeters>43</AltitudeMeters>
            <DistanceMeters>NAN</DistanceMeters>
          </Trackpoint>
          <Trackpoint>
            <Time>2022-07-04T10:54:46.000Z</Time>
            <Position>
              <LatitudeDegrees>44.76989136077463626861572265625</LatitudeDegrees>
              <LongitudeDegrees>-0.7805950753390789031982421875</LongitudeDegrees>
            </Position>
            <AltitudeMeters>43.200000762939453125</AltitudeMeters>
            <DistanceMeters>NAN</DistanceMeters>
          </Trackpoint>
          <Trackpoint>
            <Time>2022-07-04T10:54:48.000Z</Time>
            <Position>
              <LatitudeDegrees>44.76989722810685634613037109375</LatitudeDegrees>
              <LongitudeDegrees>-0.78071619383990764617919921875</LongitudeDegrees>
            </Position>
            <AltitudeMeters>43.200000762939453125</AltitudeMeters>
            <DistanceMeters>NAN</DistanceMeters>
          </Trackpoint>
          <Trackpoint>
            <Time>2022-07-04T10:54:54.000Z</Time>
            <Position>
              <LatitudeDegrees>44.76990343071520328521728515625</LatitudeDegrees>
              <LongitudeDegrees>-0.7810413278639316558837890625</LongitudeDegrees>
            </Position>
            <AltitudeMeters>43.200000762939453125</AltitudeMeters>
            <DistanceMeters>NAN</DistanceMeters>
          </Trackpoint>
          <Trackpoint>
            <Time>2022-07-04T10:55:01.000Z</Time>
            <Position>
              <LatitudeDegrees>44.76991164498031139373779296875</LatitudeDegrees>
              <LongitudeDegrees>-0.78143619932234287261962890625</LongitudeDegrees>
            </Position>
            <AltitudeMeters>43.200000762939453125</AltitudeMeters>
            <DistanceMeters>NAN</DistanceMeters>
          </Trackpoint>
          <Trackpoint>
            <Time>2022-07-04T10:55:08.000Z</Time>
            <Position>
              <LatitudeDegrees>44.769915752112865447998046875</LatitudeDegrees>
              <LongitudeDegrees>-0.781784467399120330810546875</LongitudeDegrees>
            </Position>
            <AltitudeMeters>43.40000152587890625</AltitudeMeters>
            <DistanceMeters>NAN</DistanceMeters>
          </Trackpoint>
          <Trackpoint>
            <Time>2022-07-04T10:55:17.000Z</Time>
            <Position>
              <LatitudeDegrees>44.76992136798799037933349609375</LatitudeDegrees>
              <LongitudeDegrees>-0.782225690782070159912109375</LongitudeDegrees>
            </Position>
            <AltitudeMeters>43.59999847412109375</AltitudeMeters>
            <DistanceMeters>NAN</DistanceMeters>
          </Trackpoint>
          <Trackpoint>
            <Time>2022-07-04T10:55:23.000Z</Time>
            <Position>
              <LatitudeDegrees>44.76993419229984283447265625</LatitudeDegrees>
              <LongitudeDegrees>-0.7825041376054286956787109375</LongitudeDegrees>
            </Position>
            <AltitudeMeters>43.59999847412109375</AltitudeMeters>
            <DistanceMeters>NAN</DistanceMeters>
          </Trackpoint>
          <Trackpoint>
            <Time>2022-07-04T10:55:27.000Z</Time>
            <Position>
              <LatitudeDegrees>44.76994332857429981231689453125</LatitudeDegrees>
              <LongitudeDegrees>-0.782686360180377960205078125</LongitudeDegrees>
            </Position>
            <AltitudeMeters>43.799999237060546875</AltitudeMeters>
            <DistanceMeters>NAN</DistanceMeters>
          </Trackpoint>
          <Trackpoint>
            <Time>2022-07-04T10:55:31.000Z</Time>
            <Position>
              <LatitudeDegrees>44.76994534023106098175048828125</LatitudeDegrees>
              <LongitudeDegrees>-0.78287218697369098663330078125</LongitudeDegrees>
            </Position>
            <AltitudeMeters>44</AltitudeMeters>
            <DistanceMeters>NAN</DistanceMeters>
          </Trackpoint>
          <Trackpoint>
            <Time>2022-07-04T10:55:39.000Z</Time>
            <Position>
              <LatitudeDegrees>44.76995372213423252105712890625</LatitudeDegrees>
              <LongitudeDegrees>-0.7832492887973785400390625</LongitudeDegrees>
            </Position>
            <AltitudeMeters>44</AltitudeMeters>
            <DistanceMeters>NAN</DistanceMeters>
          </Trackpoint>
          <Trackpoint>
            <Time>2022-07-04T10:55:41.000Z</Time>
            <Position>
              <LatitudeDegrees>44.7699460946023464202880859375</LatitudeDegrees>
              <LongitudeDegrees>-0.78334241174161434173583984375</LongitudeDegrees>
            </Position>
            <AltitudeMeters>44</AltitudeMeters>
            <DistanceMeters>NAN</DistanceMeters>
          </Trackpoint>
          <Trackpoint>
            <Time>2022-07-04T10:55:49.000Z</Time>
            <Position>
              <LatitudeDegrees>44.76995724253356456756591796875</LatitudeDegrees>
              <LongitudeDegrees>-0.783714316785335540771484375</LongitudeDegrees>
            </Position>
            <AltitudeMeters>44.200000762939453125</AltitudeMeters>
            <DistanceMeters>NAN</DistanceMeters>
          </Trackpoint>
          <Trackpoint>
            <Time>2022-07-04T10:55:56.000Z</Time>
            <Position>
              <LatitudeDegrees>44.76995036937296390533447265625</LatitudeDegrees>
              <LongitudeDegrees>-0.78403986990451812744140625</LongitudeDegrees>
            </Position>
            <AltitudeMeters>44.200000762939453125</AltitudeMeters>
            <DistanceMeters>NAN</DistanceMeters>
          </Trackpoint>
          <Trackpoint>
            <Time>2022-07-04T10:56:04.000Z</Time>
            <Position>
              <LatitudeDegrees>44.76994919590651988983154296875</LatitudeDegrees>
              <LongitudeDegrees>-0.78443021513521671295166015625</LongitudeDegrees>
            </Position>
            <AltitudeMeters>44.40000152587890625</AltitudeMeters>
            <DistanceMeters>NAN</DistanceMeters>
          </Trackpoint>
          <Trackpoint>
            <Time>2022-07-04T10:56:13.000Z</Time>
            <Position>
              <LatitudeDegrees>44.769951961934566497802734375</LatitudeDegrees>
              <LongitudeDegrees>-0.78487076796591281890869140625</LongitudeDegrees>
            </Position>
            <AltitudeMeters>44.59999847412109375</AltitudeMeters>
            <DistanceMeters>NAN</DistanceMeters>
          </Trackpoint>
          <Trackpoint>
            <Time>2022-07-04T10:56:20.000Z</Time>
            <Position>
              <LatitudeDegrees>44.769956655800342559814453125</LatitudeDegrees>
              <LongitudeDegrees>-0.78518022783100605010986328125</LongitudeDegrees>
            </Position>
            <AltitudeMeters>44.40000152587890625</AltitudeMeters>
            <DistanceMeters>NAN</DistanceMeters>
          </Trackpoint>
          <Trackpoint>
            <Time>2022-07-04T10:56:27.000Z</Time>
            <Position>
              <LatitudeDegrees>44.7699504531919956207275390625</LatitudeDegrees>
              <LongitudeDegrees>-0.78551013953983783721923828125</LongitudeDegrees>
            </Position>
            <AltitudeMeters>44.799999237060546875</AltitudeMeters>
            <DistanceMeters>NAN</DistanceMeters>
          </Trackpoint>
          <Trackpoint>
            <Time>2022-07-04T10:56:28.000Z</Time>
            <Position>
              <LatitudeDegrees>44.76994760334491729736328125</LatitudeDegrees>
              <LongitudeDegrees>-0.78555556945502758026123046875</LongitudeDegrees>
            </Position>
            <AltitudeMeters>44.799999237060546875</AltitudeMeters>
            <DistanceMeters>NAN</DistanceMeters>
          </Trackpoint>
          <Trackpoint>
            <Time>2022-07-04T10:56:36.000Z</Time>
            <Position>
              <LatitudeDegrees>44.769951291382312774658203125</LatitudeDegrees>
              <LongitudeDegrees>-0.78595555387437343597412109375</LongitudeDegrees>
            </Position>
            <AltitudeMeters>44.799999237060546875</AltitudeMeters>
            <DistanceMeters>NAN</DistanceMeters>
          </Trackpoint>
          <Trackpoint>
            <Time>2022-07-04T10:56:44.000Z</Time>
            <Position>
              <LatitudeDegrees>44.7699538059532642364501953125</LatitudeDegrees>
              <LongitudeDegrees>-0.78631061129271984100341796875</LongitudeDegrees>
            </Position>
            <AltitudeMeters>45</AltitudeMeters>
            <DistanceMeters>NAN</DistanceMeters>
          </Trackpoint>
          <Trackpoint>
            <Time>2022-07-04T10:56:51.000Z</Time>
            <Position>
              <LatitudeDegrees>44.769960008561611175537109375</LatitudeDegrees>
              <LongitudeDegrees>-0.786640606820583343505859375</LongitudeDegrees>
            </Position>
            <AltitudeMeters>45.200000762939453125</AltitudeMeters>
            <DistanceMeters>NAN</DistanceMeters>
          </Trackpoint>
          <Trackpoint>
            <Time>2022-07-04T10:56:55.000Z</Time>
            <Position>
              <LatitudeDegrees>44.769971407949924468994140625</LatitudeDegrees>
              <LongitudeDegrees>-0.78683816827833652496337890625</LongitudeDegrees>
            </Position>
            <AltitudeMeters>45.200000762939453125</AltitudeMeters>
            <DistanceMeters>NAN</DistanceMeters>
          </Trackpoint>
          <Trackpoint>
            <Time>2022-07-04T10:56:59.000Z</Time>
            <Position>
              <LatitudeDegrees>44.7699831426143646240234375</LatitudeDegrees>
              <LongitudeDegrees>-0.78702944330871105194091796875</LongitudeDegrees>
            </Position>
            <AltitudeMeters>45.200000762939453125</AltitudeMeters>
            <DistanceMeters>NAN</DistanceMeters>
          </Trackpoint>
          <Trackpoint>
            <Time>2022-07-04T10:57:06.000Z</Time>
            <Position>
              <LatitudeDegrees>44.7699953801929950714111328125</LatitudeDegrees>
              <LongitudeDegrees>-0.78735332004725933074951171875</LongitudeDegrees>
            </Position>
            <AltitudeMeters>45.200000762939453125</AltitudeMeters>
            <DistanceMeters>NAN</DistanceMeters>
          </Trackpoint>
          <Trackpoint>
            <Time>2022-07-04T10:57:14.000Z</Time>
            <Position>
              <LatitudeDegrees>44.76999579928815364837646484375</LatitudeDegrees>
              <LongitudeDegrees>-0.7877538911998271942138671875</LongitudeDegrees>
            </Position>
            <AltitudeMeters>45.40000152587890625</AltitudeMeters>
            <DistanceMeters>NAN</DistanceMeters>
          </Trackpoint>
          <Trackpoint>
            <Time>2022-07-04T10:57:15.000Z</Time>
            <Position>
              <LatitudeDegrees>44.7699970565736293792724609375</LatitudeDegrees>
              <LongitudeDegrees>-0.7877941243350505828857421875</LongitudeDegrees>
            </Position>
            <AltitudeMeters>45.40000152587890625</AltitudeMeters>
            <DistanceMeters>NAN</DistanceMeters>
          </Trackpoint>
          <Trackpoint>
            <Time>2022-07-04T10:57:24.000Z</Time>
            <Position>
              <LatitudeDegrees>44.77000392973423004150390625</LatitudeDegrees>
              <LongitudeDegrees>-0.7881998084485530853271484375</LongitudeDegrees>
            </Position>
            <AltitudeMeters>45.40000152587890625</AltitudeMeters>
            <DistanceMeters>NAN</DistanceMeters>
          </Trackpoint>
          <Trackpoint>
            <Time>2022-07-04T10:57:30.000Z</Time>
            <Position>
              <LatitudeDegrees>44.76999563165009021759033203125</LatitudeDegrees>
              <LongitudeDegrees>-0.788482613861560821533203125</LongitudeDegrees>
            </Position>
            <AltitudeMeters>45.40000152587890625</AltitudeMeters>
            <DistanceMeters>NAN</DistanceMeters>
          </Trackpoint>
          <Trackpoint>
            <Time>2022-07-04T10:57:35.000Z</Time>
            <Position>
              <LatitudeDegrees>44.769983477890491485595703125</LatitudeDegrees>
              <LongitudeDegrees>-0.78869274817407131195068359375</LongitudeDegrees>
            </Position>
            <AltitudeMeters>45.40000152587890625</AltitudeMeters>
            <DistanceMeters>NAN</DistanceMeters>
          </Trackpoint>
          <Trackpoint>
            <Time>2022-07-04T10:57:38.000Z</Time>
            <Position>
              <LatitudeDegrees>44.76999680511653423309326171875</LatitudeDegrees>
              <LongitudeDegrees>-0.78881512396037578582763671875</LongitudeDegrees>
            </Position>
            <AltitudeMeters>45.40000152587890625</AltitudeMeters>
            <DistanceMeters>NAN</DistanceMeters>
          </Trackpoint>
          <Trackpoint>
            <Time>2022-07-04T10:57:45.000Z</Time>
            <Position>
              <LatitudeDegrees>44.77000652812421321868896484375</LatitudeDegrees>
              <LongitudeDegrees>-0.7891447842121124267578125</LongitudeDegrees>
            </Position>
            <AltitudeMeters>45.59999847412109375</AltitudeMeters>
            <DistanceMeters>NAN</DistanceMeters>
          </Trackpoint>
          <Trackpoint>
            <Time>2022-07-04T10:57:53.000Z</Time>
            <Position>
              <LatitudeDegrees>44.770012311637401580810546875</LatitudeDegrees>
              <LongitudeDegrees>-0.78952272422611713409423828125</LongitudeDegrees>
            </Position>
            <AltitudeMeters>45.40000152587890625</AltitudeMeters>
            <DistanceMeters>NAN</DistanceMeters>
          </Trackpoint>
          <Trackpoint>
            <Time>2022-07-04T10:57:59.000Z</Time>
            <Position>
              <LatitudeDegrees>44.77003133855760097503662109375</LatitudeDegrees>
              <LongitudeDegrees>-0.7898067869246006011962890625</LongitudeDegrees>
            </Position>
            <AltitudeMeters>45.59999847412109375</AltitudeMeters>
            <DistanceMeters>NAN</DistanceMeters>
          </Trackpoint>
          <Trackpoint>
            <Time>2022-07-04T10:58:06.000Z</Time>
            <Position>
              <LatitudeDegrees>44.77003234438598155975341796875</LatitudeDegrees>
              <LongitudeDegrees>-0.7901501096785068511962890625</LongitudeDegrees>
            </Position>
            <AltitudeMeters>45.799999237060546875</AltitudeMeters>
            <DistanceMeters>NAN</DistanceMeters>
          </Trackpoint>
          <Trackpoint>
            <Time>2022-07-04T10:58:14.000Z</Time>
            <Position>
              <LatitudeDegrees>44.77004282176494598388671875</LatitudeDegrees>
              <LongitudeDegrees>-0.790525786578655242919921875</LongitudeDegrees>
            </Position>
            <AltitudeMeters>45.59999847412109375</AltitudeMeters>
            <DistanceMeters>NAN</DistanceMeters>
          </Trackpoint>
          <Trackpoint>
            <Time>2022-07-04T10:58:23.000Z</Time>
            <Position>
              <LatitudeDegrees>44.77005564607679843902587890625</LatitudeDegrees>
              <LongitudeDegrees>-0.79098503105342388153076171875</LongitudeDegrees>
            </Position>
            <AltitudeMeters>45.799999237060546875</AltitudeMeters>
            <DistanceMeters>NAN</DistanceMeters>
          </Trackpoint>
          <Trackpoint>
            <Time>2022-07-04T10:58:24.000Z</Time>
            <Position>
              <LatitudeDegrees>44.77005648426711559295654296875</LatitudeDegrees>
              <LongitudeDegrees>-0.79102023504674434661865234375</LongitudeDegrees>
            </Position>
            <AltitudeMeters>45.799999237060546875</AltitudeMeters>
            <DistanceMeters>NAN</DistanceMeters>
          </Trackpoint>
          <Trackpoint>
            <Time>2022-07-04T10:58:30.000Z</Time>
            <Position>
              <LatitudeDegrees>44.7700564004480838775634765625</LatitudeDegrees>
              <LongitudeDegrees>-0.79130823723971843719482421875</LongitudeDegrees>
            </Position>
            <AltitudeMeters>45.799999237060546875</AltitudeMeters>
            <DistanceMeters>NAN</DistanceMeters>
          </Trackpoint>
          <Trackpoint>
            <Time>2022-07-04T10:58:36.000Z</Time>
            <Position>
              <LatitudeDegrees>44.77005531080067157745361328125</LatitudeDegrees>
              <LongitudeDegrees>-0.79159590415656566619873046875</LongitudeDegrees>
            </Position>
            <AltitudeMeters>45.799999237060546875</AltitudeMeters>
            <DistanceMeters>NAN</DistanceMeters>
          </Trackpoint>
          <Trackpoint>
            <Time>2022-07-04T10:58:42.000Z</Time>
            <Position>
              <LatitudeDegrees>44.7700689733028411865234375</LatitudeDegrees>
              <LongitudeDegrees>-0.7918868400156497955322265625</LongitudeDegrees>
            </Position>
            <AltitudeMeters>46</AltitudeMeters>
            <DistanceMeters>NAN</DistanceMeters>
          </Trackpoint>
          <Trackpoint>
            <Time>2022-07-04T10:58:51.000Z</Time>
            <Position>
              <LatitudeDegrees>44.77008079178631305694580078125</LatitudeDegrees>
              <LongitudeDegrees>-0.79231590963900089263916015625</LongitudeDegrees>
            </Position>
            <AltitudeMeters>46</AltitudeMeters>
            <DistanceMeters>NAN</DistanceMeters>
          </Trackpoint>
          <Trackpoint>
            <Time>2022-07-04T10:59:01.000Z</Time>
            <Position>
              <LatitudeDegrees>44.77010241709649562835693359375</LatitudeDegrees>
              <LongitudeDegrees>-0.7927773334085941314697265625</LongitudeDegrees>
            </Position>
            <AltitudeMeters>45.799999237060546875</AltitudeMeters>
            <DistanceMeters>NAN</DistanceMeters>
          </Trackpoint>
          <Trackpoint>
            <Time>2022-07-04T10:59:07.000Z</Time>
            <Position>
              <LatitudeDegrees>44.77010778151452541351318359375</LatitudeDegrees>
              <LongitudeDegrees>-0.79308385960757732391357421875</LongitudeDegrees>
            </Position>
            <AltitudeMeters>45.799999237060546875</AltitudeMeters>
            <DistanceMeters>NAN</DistanceMeters>
          </Trackpoint>
          <Trackpoint>
            <Time>2022-07-04T10:59:14.000Z</Time>
            <Position>
              <LatitudeDegrees>44.77010853588581085205078125</LatitudeDegrees>
              <LongitudeDegrees>-0.7934183813631534576416015625</LongitudeDegrees>
            </Position>
            <AltitudeMeters>45.799999237060546875</AltitudeMeters>
            <DistanceMeters>NAN</DistanceMeters>
          </Trackpoint>
          <Trackpoint>
            <Time>2022-07-04T10:59:21.000Z</Time>
            <Position>
              <LatitudeDegrees>44.77011515758931636810302734375</LatitudeDegrees>
              <LongitudeDegrees>-0.7937553338706493377685546875</LongitudeDegrees>
            </Position>
            <AltitudeMeters>45.799999237060546875</AltitudeMeters>
            <DistanceMeters>NAN</DistanceMeters>
          </Trackpoint>
          <Trackpoint>
            <Time>2022-07-04T10:59:29.000Z</Time>
            <Position>
              <LatitudeDegrees>44.77012370713055133819580078125</LatitudeDegrees>
              <LongitudeDegrees>-0.79414534382522106170654296875</LongitudeDegrees>
            </Position>
            <AltitudeMeters>45.799999237060546875</AltitudeMeters>
            <DistanceMeters>NAN</DistanceMeters>
          </Trackpoint>
          <Trackpoint>
            <Time>2022-07-04T10:59:37.000Z</Time>
            <Position>
              <LatitudeDegrees>44.7701234556734561920166015625</LatitudeDegrees>
              <LongitudeDegrees>-0.79452185891568660736083984375</LongitudeDegrees>
            </Position>
            <AltitudeMeters>45.799999237060546875</AltitudeMeters>
            <DistanceMeters>NAN</DistanceMeters>
          </Trackpoint>
          <Trackpoint>
            <Time>2022-07-04T10:59:39.000Z</Time>
            <Position>
              <LatitudeDegrees>44.77012571878731250762939453125</LatitudeDegrees>
              <LongitudeDegrees>-0.7946065999567508697509765625</LongitudeDegrees>
            </Position>
            <AltitudeMeters>45.799999237060546875</AltitudeMeters>
            <DistanceMeters>NAN</DistanceMeters>
          </Trackpoint>
          <Trackpoint>
            <Time>2022-07-04T10:59:50.000Z</Time>
            <Position>
              <LatitudeDegrees>44.77013862691819667816162109375</LatitudeDegrees>
              <LongitudeDegrees>-0.79513616859912872314453125</LongitudeDegrees>
            </Position>
            <AltitudeMeters>45.799999237060546875</AltitudeMeters>
            <DistanceMeters>NAN</DistanceMeters>
          </Trackpoint>
          <Trackpoint>
            <Time>2022-07-04T10:59:58.000Z</Time>
            <Position>
              <LatitudeDegrees>44.77013946510851383209228515625</LatitudeDegrees>
              <LongitudeDegrees>-0.795522741973400115966796875</LongitudeDegrees>
            </Position>
            <AltitudeMeters>45.799999237060546875</AltitudeMeters>
            <DistanceMeters>NAN</DistanceMeters>
          </Trackpoint>
          <Trackpoint>
            <Time>2022-07-04T11:00:07.000Z</Time>
            <Position>
              <LatitudeDegrees>44.7701529599726200103759765625</LatitudeDegrees>
              <LongitudeDegrees>-0.7959594391286373138427734375</LongitudeDegrees>
            </Position>
            <AltitudeMeters>46</AltitudeMeters>
            <DistanceMeters>NAN</DistanceMeters>
          </Trackpoint>
          <Trackpoint>
            <Time>2022-07-04T11:00:11.000Z</Time>
            <Position>
              <LatitudeDegrees>44.7701683826744556427001953125</LatitudeDegrees>
              <LongitudeDegrees>-0.79614627175033092498779296875</LongitudeDegrees>
            </Position>
            <AltitudeMeters>46</AltitudeMeters>
            <DistanceMeters>NAN</DistanceMeters>
          </Trackpoint>
          <Trackpoint>
            <Time>2022-07-04T11:00:17.000Z</Time>
            <Position>
              <LatitudeDegrees>44.7701387107372283935546875</LatitudeDegrees>
              <LongitudeDegrees>-0.7964305020868778228759765625</LongitudeDegrees>
            </Position>
            <AltitudeMeters>45.799999237060546875</AltitudeMeters>
            <DistanceMeters>NAN</DistanceMeters>
          </Trackpoint>
          <Trackpoint>
            <Time>2022-07-04T11:00:24.000Z</Time>
            <Position>
              <LatitudeDegrees>44.77012571878731250762939453125</LatitudeDegrees>
              <LongitudeDegrees>-0.79675932414829730987548828125</LongitudeDegrees>
            </Position>
            <AltitudeMeters>46</AltitudeMeters>
            <DistanceMeters>NAN</DistanceMeters>
          </Trackpoint>
          <Trackpoint>
            <Time>2022-07-04T11:00:29.000Z</Time>
            <Position>
              <LatitudeDegrees>44.77010895498096942901611328125</LatitudeDegrees>
              <LongitudeDegrees>-0.79698261804878711700439453125</LongitudeDegrees>
            </Position>
            <AltitudeMeters>46</AltitudeMeters>
            <DistanceMeters>NAN</DistanceMeters>
          </Trackpoint>
          <Trackpoint>
            <Time>2022-07-04T11:00:33.000Z</Time>
            <Position>
              <LatitudeDegrees>44.7700952924787998199462890625</LatitudeDegrees>
              <LongitudeDegrees>-0.7971453107893466949462890625</LongitudeDegrees>
            </Position>
            <AltitudeMeters>46</AltitudeMeters>
            <DistanceMeters>NAN</DistanceMeters>
          </Trackpoint>
          <Trackpoint>
            <Time>2022-07-04T11:00:40.000Z</Time>
            <Position>
              <LatitudeDegrees>44.77007123641669750213623046875</LatitudeDegrees>
              <LongitudeDegrees>-0.79747094772756099700927734375</LongitudeDegrees>
            </Position>
            <AltitudeMeters>45.799999237060546875</AltitudeMeters>
            <DistanceMeters>NAN</DistanceMeters>
          </Trackpoint>
          <Trackpoint>
            <Time>2022-07-04T11:00:46.000Z</Time>
            <Position>
              <LatitudeDegrees>44.7700607590377330780029296875</LatitudeDegrees>
              <LongitudeDegrees>-0.7977397553622722625732421875</LongitudeDegrees>
            </Position>
            <AltitudeMeters>46</AltitudeMeters>
            <DistanceMeters>NAN</DistanceMeters>
          </Trackpoint>
          <Trackpoint>
            <Time>2022-07-04T11:00:58.000Z</Time>
            <Position>
              <LatitudeDegrees>44.769997559487819671630859375</LatitudeDegrees>
              <LongitudeDegrees>-0.798300169408321380615234375</LongitudeDegrees>
            </Position>
            <AltitudeMeters>46.200000762939453125</AltitudeMeters>
            <DistanceMeters>NAN</DistanceMeters>
          </Trackpoint>
          <Trackpoint>
            <Time>2022-07-04T11:01:06.000Z</Time>
            <Position>
              <LatitudeDegrees>44.769966043531894683837890625</LatitudeDegrees>
              <LongitudeDegrees>-0.79868280328810214996337890625</LongitudeDegrees>
            </Position>
            <AltitudeMeters>45.799999237060546875</AltitudeMeters>
            <DistanceMeters>NAN</DistanceMeters>
          </Trackpoint>
          <Trackpoint>
            <Time>2022-07-04T11:01:15.000Z</Time>
            <Position>
              <LatitudeDegrees>44.76995103992521762847900390625</LatitudeDegrees>
              <LongitudeDegrees>-0.79913576133549213409423828125</LongitudeDegrees>
            </Position>
            <AltitudeMeters>46</AltitudeMeters>
            <DistanceMeters>NAN</DistanceMeters>
          </Trackpoint>
          <Trackpoint>
            <Time>2022-07-04T11:01:20.000Z</Time>
            <Position>
              <LatitudeDegrees>44.7699286602437496185302734375</LatitudeDegrees>
              <LongitudeDegrees>-0.7993795908987522125244140625</LongitudeDegrees>
            </Position>
            <AltitudeMeters>46</AltitudeMeters>
            <DistanceMeters>NAN</DistanceMeters>
          </Trackpoint>
          <Trackpoint>
            <Time>2022-07-04T11:01:22.000Z</Time>
            <Position>
              <LatitudeDegrees>44.7699115611612796783447265625</LatitudeDegrees>
              <LongitudeDegrees>-0.79948042519390583038330078125</LongitudeDegrees>
            </Position>
            <AltitudeMeters>46</AltitudeMeters>
            <DistanceMeters>NAN</DistanceMeters>
          </Trackpoint>
          <Trackpoint>
            <Time>2022-07-04T11:01:23.000Z</Time>
            <Position>
              <LatitudeDegrees>44.7699045203626155853271484375</LatitudeDegrees>
              <LongitudeDegrees>-0.7995304651558399200439453125</LongitudeDegrees>
            </Position>
            <AltitudeMeters>45.799999237060546875</AltitudeMeters>
            <DistanceMeters>NAN</DistanceMeters>
          </Trackpoint>
          <Trackpoint>
            <Time>2022-07-04T11:01:28.000Z</Time>
            <Position>
              <LatitudeDegrees>44.769892282783985137939453125</LatitudeDegrees>
              <LongitudeDegrees>-0.799791477620601654052734375</LongitudeDegrees>
            </Position>
            <AltitudeMeters>46</AltitudeMeters>
            <DistanceMeters>NAN</DistanceMeters>
          </Trackpoint>
          <Trackpoint>
            <Time>2022-07-04T11:01:31.000Z</Time>
            <Position>
              <LatitudeDegrees>44.76988465525209903717041015625</LatitudeDegrees>
              <LongitudeDegrees>-0.7999532483518123626708984375</LongitudeDegrees>
            </Position>
            <AltitudeMeters>46.200000762939453125</AltitudeMeters>
            <DistanceMeters>NAN</DistanceMeters>
          </Trackpoint>
          <Trackpoint>
            <Time>2022-07-04T11:01:40.000Z</Time>
            <Position>
              <LatitudeDegrees>44.7698557376861572265625</LatitudeDegrees>
              <LongitudeDegrees>-0.8004380576312541961669921875</LongitudeDegrees>
            </Position>
            <AltitudeMeters>46</AltitudeMeters>
            <DistanceMeters>NAN</DistanceMeters>
          </Trackpoint>
          <Trackpoint>
            <Time>2022-07-04T11:01:41.000Z</Time>
            <Position>
              <LatitudeDegrees>44.769853390753269195556640625</LatitudeDegrees>
              <LongitudeDegrees>-0.80049119889736175537109375</LongitudeDegrees>
            </Position>
            <AltitudeMeters>46</AltitudeMeters>
            <DistanceMeters>NAN</DistanceMeters>
          </Trackpoint>
          <Trackpoint>
            <Time>2022-07-04T11:01:51.000Z</Time>
            <Position>
              <LatitudeDegrees>44.76981592364609241485595703125</LatitudeDegrees>
              <LongitudeDegrees>-0.80105689354240894317626953125</LongitudeDegrees>
            </Position>
            <AltitudeMeters>46.200000762939453125</AltitudeMeters>
            <DistanceMeters>NAN</DistanceMeters>
          </Trackpoint>
          <Trackpoint>
            <Time>2022-07-04T11:02:02.000Z</Time>
            <Position>
              <LatitudeDegrees>44.7697663865983486175537109375</LatitudeDegrees>
              <LongitudeDegrees>-0.80166357569396495819091796875</LongitudeDegrees>
            </Position>
            <AltitudeMeters>46.200000762939453125</AltitudeMeters>
            <DistanceMeters>NAN</DistanceMeters>
          </Trackpoint>
          <Trackpoint>
            <Time>2022-07-04T11:02:10.000Z</Time>
            <Position>
              <LatitudeDegrees>44.76974400691688060760498046875</LatitudeDegrees>
              <LongitudeDegrees>-0.8020346425473690032958984375</LongitudeDegrees>
            </Position>
            <AltitudeMeters>46.200000762939453125</AltitudeMeters>
            <DistanceMeters>NAN</DistanceMeters>
          </Trackpoint>
          <Trackpoint>
            <Time>2022-07-04T11:02:13.000Z</Time>
            <Position>
              <LatitudeDegrees>44.76972741074860095977783203125</LatitudeDegrees>
              <LongitudeDegrees>-0.8021791465580463409423828125</LongitudeDegrees>
            </Position>
            <AltitudeMeters>46.200000762939453125</AltitudeMeters>
            <DistanceMeters>NAN</DistanceMeters>
          </Trackpoint>
          <Trackpoint>
            <Time>2022-07-04T11:02:21.000Z</Time>
            <Position>
              <LatitudeDegrees>44.7697191126644611358642578125</LatitudeDegrees>
              <LongitudeDegrees>-0.8025955595076084136962890625</LongitudeDegrees>
            </Position>
            <AltitudeMeters>46.200000762939453125</AltitudeMeters>
            <DistanceMeters>NAN</DistanceMeters>
          </Trackpoint>
          <Trackpoint>
            <Time>2022-07-04T11:02:29.000Z</Time>
            <Position>
              <LatitudeDegrees>44.7697020135819911956787109375</LatitudeDegrees>
              <LongitudeDegrees>-0.80301440320909023284912109375</LongitudeDegrees>
            </Position>
            <AltitudeMeters>46.200000762939453125</AltitudeMeters>
            <DistanceMeters>NAN</DistanceMeters>
          </Trackpoint>
          <Trackpoint>
            <Time>2022-07-04T11:02:35.000Z</Time>
            <Position>
              <LatitudeDegrees>44.7696765325963497161865234375</LatitudeDegrees>
              <LongitudeDegrees>-0.8033190853893756866455078125</LongitudeDegrees>
            </Position>
            <AltitudeMeters>46.200000762939453125</AltitudeMeters>
            <DistanceMeters>NAN</DistanceMeters>
          </Trackpoint>
          <Trackpoint>
            <Time>2022-07-04T11:02:43.000Z</Time>
            <Position>
              <LatitudeDegrees>44.76965297944843769073486328125</LatitudeDegrees>
              <LongitudeDegrees>-0.80372015945613384246826171875</LongitudeDegrees>
            </Position>
            <AltitudeMeters>46.200000762939453125</AltitudeMeters>
            <DistanceMeters>NAN</DistanceMeters>
          </Trackpoint>
          <Trackpoint>
            <Time>2022-07-04T11:02:50.000Z</Time>
            <Position>
              <LatitudeDegrees>44.7696478664875030517578125</LatitudeDegrees>
              <LongitudeDegrees>-0.80408133566379547119140625</LongitudeDegrees>
            </Position>
            <AltitudeMeters>46.40000152587890625</AltitudeMeters>
            <DistanceMeters>NAN</DistanceMeters>
          </Trackpoint>
          <Trackpoint>
            <Time>2022-07-04T11:02:52.000Z</Time>
            <Position>
              <LatitudeDegrees>44.7696451842784881591796875</LatitudeDegrees>
              <LongitudeDegrees>-0.804184935986995697021484375</LongitudeDegrees>
            </Position>
            <AltitudeMeters>46.200000762939453125</AltitudeMeters>
            <DistanceMeters>NAN</DistanceMeters>
          </Trackpoint>
          <Trackpoint>
            <Time>2022-07-04T11:03:01.000Z</Time>
            <Position>
              <LatitudeDegrees>44.76963101886212825775146484375</LatitudeDegrees>
              <LongitudeDegrees>-0.804641582071781158447265625</LongitudeDegrees>
            </Position>
            <AltitudeMeters>46.200000762939453125</AltitudeMeters>
            <DistanceMeters>NAN</DistanceMeters>
          </Trackpoint>
          <Trackpoint>
            <Time>2022-07-04T11:03:11.000Z</Time>
            <Position>
              <LatitudeDegrees>44.769618026912212371826171875</LatitudeDegrees>
              <LongitudeDegrees>-0.8051289059221744537353515625</LongitudeDegrees>
            </Position>
            <AltitudeMeters>46.200000762939453125</AltitudeMeters>
            <DistanceMeters>NAN</DistanceMeters>
          </Trackpoint>
          <Trackpoint>
            <Time>2022-07-04T11:03:20.000Z</Time>
            <Position>
              <LatitudeDegrees>44.7695886902511119842529296875</LatitudeDegrees>
              <LongitudeDegrees>-0.8055531978607177734375</LongitudeDegrees>
            </Position>
            <AltitudeMeters>46.40000152587890625</AltitudeMeters>
            <DistanceMeters>NAN</DistanceMeters>
          </Trackpoint>
          <Trackpoint>
            <Time>2022-07-04T11:03:27.000Z</Time>
            <Position>
              <LatitudeDegrees>44.76955994032323360443115234375</LatitudeDegrees>
              <LongitudeDegrees>-0.8058970235288143157958984375</LongitudeDegrees>
            </Position>
            <AltitudeMeters>46.40000152587890625</AltitudeMeters>
            <DistanceMeters>NAN</DistanceMeters>
          </Trackpoint>
          <Trackpoint>
            <Time>2022-07-04T11:03:32.000Z</Time>
            <Position>
              <LatitudeDegrees>44.769554995000362396240234375</LatitudeDegrees>
              <LongitudeDegrees>-0.8061548508703708648681640625</LongitudeDegrees>
            </Position>
            <AltitudeMeters>46.40000152587890625</AltitudeMeters>
            <DistanceMeters>NAN</DistanceMeters>
          </Trackpoint>
          <Trackpoint>
            <Time>2022-07-04T11:03:36.000Z</Time>
            <Position>
              <LatitudeDegrees>44.76953378878533840179443359375</LatitudeDegrees>
              <LongitudeDegrees>-0.8063499815762042999267578125</LongitudeDegrees>
            </Position>
            <AltitudeMeters>46.200000762939453125</AltitudeMeters>
            <DistanceMeters>NAN</DistanceMeters>
          </Trackpoint>
          <Trackpoint>
            <Time>2022-07-04T11:03:43.000Z</Time>
            <Position>
              <LatitudeDegrees>44.769503362476825714111328125</LatitudeDegrees>
              <LongitudeDegrees>-0.80670344643294811248779296875</LongitudeDegrees>
            </Position>
            <AltitudeMeters>46.40000152587890625</AltitudeMeters>
            <DistanceMeters>NAN</DistanceMeters>
          </Trackpoint>
          <Trackpoint>
            <Time>2022-07-04T11:03:50.000Z</Time>
            <Position>
              <LatitudeDegrees>44.76949204690754413604736328125</LatitudeDegrees>
              <LongitudeDegrees>-0.8070423267781734466552734375</LongitudeDegrees>
            </Position>
            <AltitudeMeters>46.200000762939453125</AltitudeMeters>
            <DistanceMeters>NAN</DistanceMeters>
          </Trackpoint>
          <Trackpoint>
            <Time>2022-07-04T11:03:56.000Z</Time>
            <Position>
              <LatitudeDegrees>44.7694760374724864959716796875</LatitudeDegrees>
              <LongitudeDegrees>-0.80733887851238250732421875</LongitudeDegrees>
            </Position>
            <AltitudeMeters>46.40000152587890625</AltitudeMeters>
            <DistanceMeters>NAN</DistanceMeters>
          </Trackpoint>
          <Trackpoint>
            <Time>2022-07-04T11:04:04.000Z</Time>
            <Position>
              <LatitudeDegrees>44.76944209076464176177978515625</LatitudeDegrees>
              <LongitudeDegrees>-0.807744227349758148193359375</LongitudeDegrees>
            </Position>
            <AltitudeMeters>46.59999847412109375</AltitudeMeters>
            <DistanceMeters>NAN</DistanceMeters>
          </Trackpoint>
          <Trackpoint>
            <Time>2022-07-04T11:04:08.000Z</Time>
            <Position>
              <LatitudeDegrees>44.7694203816354274749755859375</LatitudeDegrees>
              <LongitudeDegrees>-0.807940699160099029541015625</LongitudeDegrees>
            </Position>
            <AltitudeMeters>46.59999847412109375</AltitudeMeters>
            <DistanceMeters>NAN</DistanceMeters>
          </Trackpoint>
          <Trackpoint>
            <Time>2022-07-04T11:04:12.000Z</Time>
            <Position>
              <LatitudeDegrees>44.76939984597265720367431640625</LatitudeDegrees>
              <LongitudeDegrees>-0.80813557840883731842041015625</LongitudeDegrees>
            </Position>
            <AltitudeMeters>46.799999237060546875</AltitudeMeters>
            <DistanceMeters>NAN</DistanceMeters>
          </Trackpoint>
          <Trackpoint>
            <Time>2022-07-04T11:04:14.000Z</Time>
            <Position>
              <LatitudeDegrees>44.76939372718334197998046875</LatitudeDegrees>
              <LongitudeDegrees>-0.8082332275807857513427734375</LongitudeDegrees>
            </Position>
            <AltitudeMeters>47</AltitudeMeters>
            <DistanceMeters>NAN</DistanceMeters>
          </Trackpoint>
          <Trackpoint>
            <Time>2022-07-04T11:04:22.000Z</Time>
            <Position>
              <LatitudeDegrees>44.7693623788654804229736328125</LatitudeDegrees>
              <LongitudeDegrees>-0.808587111532688140869140625</LongitudeDegrees>
            </Position>
            <AltitudeMeters>46.59999847412109375</AltitudeMeters>
            <DistanceMeters>NAN</DistanceMeters>
          </Trackpoint>
          <Trackpoint>
            <Time>2022-07-04T11:04:30.000Z</Time>
            <Position>
              <LatitudeDegrees>44.76931200362741947174072265625</LatitudeDegrees>
              <LongitudeDegrees>-0.808932781219482421875</LongitudeDegrees>
            </Position>
            <AltitudeMeters>46.59999847412109375</AltitudeMeters>
            <DistanceMeters>NAN</DistanceMeters>
          </Trackpoint>
          <Trackpoint>
            <Time>2022-07-04T11:04:32.000Z</Time>
            <Position>
              <LatitudeDegrees>44.769284762442111968994140625</LatitudeDegrees>
              <LongitudeDegrees>-0.808996148407459259033203125</LongitudeDegrees>
            </Position>
            <AltitudeMeters>46.59999847412109375</AltitudeMeters>
            <DistanceMeters>NAN</DistanceMeters>
          </Trackpoint>
          <Trackpoint>
            <Time>2022-07-04T11:04:34.000Z</Time>
            <Position>
              <LatitudeDegrees>44.7692289389669895172119140625</LatitudeDegrees>
              <LongitudeDegrees>-0.80903847701847553253173828125</LongitudeDegrees>
            </Position>
            <AltitudeMeters>46.59999847412109375</AltitudeMeters>
            <DistanceMeters>NAN</DistanceMeters>
          </Trackpoint>
          <Trackpoint>
            <Time>2022-07-04T11:04:41.000Z</Time>
            <Position>
              <LatitudeDegrees>44.7690026275813579559326171875</LatitudeDegrees>
              <LongitudeDegrees>-0.8091790415346622467041015625</LongitudeDegrees>
            </Position>
            <AltitudeMeters>46.799999237060546875</AltitudeMeters>
            <DistanceMeters>NAN</DistanceMeters>
          </Trackpoint>
          <Trackpoint>
            <Time>2022-07-04T11:04:45.000Z</Time>
            <Position>
              <LatitudeDegrees>44.7688762284815311431884765625</LatitudeDegrees>
              <LongitudeDegrees>-0.80926344729959964752197265625</LongitudeDegrees>
            </Position>
            <AltitudeMeters>46.799999237060546875</AltitudeMeters>
            <DistanceMeters>NAN</DistanceMeters>
          </Trackpoint>
          <Trackpoint>
            <Time>2022-07-04T11:04:51.000Z</Time>
            <Position>
              <LatitudeDegrees>44.76866944693028926849365234375</LatitudeDegrees>
              <LongitudeDegrees>-0.80939739011228084564208984375</LongitudeDegrees>
            </Position>
            <AltitudeMeters>47</AltitudeMeters>
            <DistanceMeters>NAN</DistanceMeters>
          </Trackpoint>
          <Trackpoint>
            <Time>2022-07-04T11:05:01.000Z</Time>
            <Position>
              <LatitudeDegrees>44.7683458216488361358642578125</LatitudeDegrees>
              <LongitudeDegrees>-0.80959939397871494293212890625</LongitudeDegrees>
            </Position>
            <AltitudeMeters>47</AltitudeMeters>
            <DistanceMeters>NAN</DistanceMeters>
          </Trackpoint>
          <Trackpoint>
            <Time>2022-07-04T11:05:12.000Z</Time>
            <Position>
              <LatitudeDegrees>44.76800761185586452484130859375</LatitudeDegrees>
              <LongitudeDegrees>-0.80985839478671550750732421875</LongitudeDegrees>
            </Position>
            <AltitudeMeters>47</AltitudeMeters>
            <DistanceMeters>NAN</DistanceMeters>
          </Trackpoint>
          <Trackpoint>
            <Time>2022-07-04T11:05:18.000Z</Time>
            <Position>
              <LatitudeDegrees>44.7678385488688945770263671875</LatitudeDegrees>
              <LongitudeDegrees>-0.8100561238825321197509765625</LongitudeDegrees>
            </Position>
            <AltitudeMeters>47.200000762939453125</AltitudeMeters>
            <DistanceMeters>NAN</DistanceMeters>
          </Trackpoint>
          <Trackpoint>
            <Time>2022-07-04T11:05:24.000Z</Time>
            <Position>
              <LatitudeDegrees>44.7677419893443584442138671875</LatitudeDegrees>
              <LongitudeDegrees>-0.81036306917667388916015625</LongitudeDegrees>
            </Position>
            <AltitudeMeters>47.200000762939453125</AltitudeMeters>
            <DistanceMeters>NAN</DistanceMeters>
          </Trackpoint>
          <Trackpoint>
            <Time>2022-07-04T11:05:32.000Z</Time>
            <Position>
              <LatitudeDegrees>44.7676353715360164642333984375</LatitudeDegrees>
              <LongitudeDegrees>-0.8107648976147174835205078125</LongitudeDegrees>
            </Position>
            <AltitudeMeters>47.200000762939453125</AltitudeMeters>
            <DistanceMeters>NAN</DistanceMeters>
          </Trackpoint>
          <Trackpoint>
            <Time>2022-07-04T11:05:38.000Z</Time>
            <Position>
              <LatitudeDegrees>44.7675611078739166259765625</LatitudeDegrees>
              <LongitudeDegrees>-0.81107678823173046112060546875</LongitudeDegrees>
            </Position>
            <AltitudeMeters>47.40000152587890625</AltitudeMeters>
            <DistanceMeters>NAN</DistanceMeters>
          </Trackpoint>
          <Trackpoint>
            <Time>2022-07-04T11:05:42.000Z</Time>
            <Position>
              <LatitudeDegrees>44.7675181925296783447265625</LatitudeDegrees>
              <LongitudeDegrees>-0.8113040216267108917236328125</LongitudeDegrees>
            </Position>
            <AltitudeMeters>47.40000152587890625</AltitudeMeters>
            <DistanceMeters>NAN</DistanceMeters>
          </Trackpoint>
          <Trackpoint>
            <Time>2022-07-04T11:05:45.000Z</Time>
            <Position>
              <LatitudeDegrees>44.76748893968760967254638671875</LatitudeDegrees>
              <LongitudeDegrees>-0.81143586896359920501708984375</LongitudeDegrees>
            </Position>
            <AltitudeMeters>47.40000152587890625</AltitudeMeters>
            <DistanceMeters>NAN</DistanceMeters>
          </Trackpoint>
          <Trackpoint>
            <Time>2022-07-04T11:05:49.000Z</Time>
            <Position>
              <LatitudeDegrees>44.767423979938030242919921875</LatitudeDegrees>
              <LongitudeDegrees>-0.811629407107830047607421875</LongitudeDegrees>
            </Position>
            <AltitudeMeters>47.40000152587890625</AltitudeMeters>
            <DistanceMeters>NAN</DistanceMeters>
          </Trackpoint>
          <Trackpoint>
            <Time>2022-07-04T11:05:54.000Z</Time>
            <Position>
              <LatitudeDegrees>44.76736505515873432159423828125</LatitudeDegrees>
              <LongitudeDegrees>-0.81189368851482868194580078125</LongitudeDegrees>
            </Position>
            <AltitudeMeters>47.40000152587890625</AltitudeMeters>
            <DistanceMeters>NAN</DistanceMeters>
          </Trackpoint>
          <Trackpoint>
            <Time>2022-07-04T11:06:03.000Z</Time>
            <Position>
              <LatitudeDegrees>44.76723681204020977020263671875</LatitudeDegrees>
              <LongitudeDegrees>-0.8123973570764064788818359375</LongitudeDegrees>
            </Position>
            <AltitudeMeters>47.799999237060546875</AltitudeMeters>
            <DistanceMeters>NAN</DistanceMeters>
          </Trackpoint>
          <Trackpoint>
            <Time>2022-07-04T11:06:08.000Z</Time>
            <Position>
              <LatitudeDegrees>44.76717880927026271820068359375</LatitudeDegrees>
              <LongitudeDegrees>-0.81264956854283809661865234375</LongitudeDegrees>
            </Position>
            <AltitudeMeters>47.799999237060546875</AltitudeMeters>
            <DistanceMeters>NAN</DistanceMeters>
          </Trackpoint>
          <Trackpoint>
            <Time>2022-07-04T11:06:10.000Z</Time>
            <Position>
              <LatitudeDegrees>44.76716154254972934722900390625</LatitudeDegrees>
              <LongitudeDegrees>-0.8127509057521820068359375</LongitudeDegrees>
            </Position>
            <AltitudeMeters>47.799999237060546875</AltitudeMeters>
            <DistanceMeters>NAN</DistanceMeters>
          </Trackpoint>
          <Trackpoint>
            <Time>2022-07-04T11:06:17.000Z</Time>
            <Position>
              <LatitudeDegrees>44.7670617140829563140869140625</LatitudeDegrees>
              <LongitudeDegrees>-0.81309749744832515716552734375</LongitudeDegrees>
            </Position>
            <AltitudeMeters>48</AltitudeMeters>
            <DistanceMeters>NAN</DistanceMeters>
          </Trackpoint>
          <Trackpoint>
            <Time>2022-07-04T11:06:22.000Z</Time>
            <Position>
              <LatitudeDegrees>44.7669978439807891845703125</LatitudeDegrees>
              <LongitudeDegrees>-0.8133475296199321746826171875</LongitudeDegrees>
            </Position>
            <AltitudeMeters>48.200000762939453125</AltitudeMeters>
            <DistanceMeters>NAN</DistanceMeters>
          </Trackpoint>
          <Trackpoint>
            <Time>2022-07-04T11:06:24.000Z</Time>
            <Position>
              <LatitudeDegrees>44.7669799067080020904541015625</LatitudeDegrees>
              <LongitudeDegrees>-0.8134541474282741546630859375</LongitudeDegrees>
            </Position>
            <AltitudeMeters>48</AltitudeMeters>
            <DistanceMeters>NAN</DistanceMeters>
          </Trackpoint>
          <Trackpoint>
            <Time>2022-07-04T11:06:29.000Z</Time>
            <Position>
              <LatitudeDegrees>44.76693523116409778594970703125</LatitudeDegrees>
              <LongitudeDegrees>-0.813720859587192535400390625</LongitudeDegrees>
            </Position>
            <AltitudeMeters>48</AltitudeMeters>
            <DistanceMeters>NAN</DistanceMeters>
          </Trackpoint>
          <Trackpoint>
            <Time>2022-07-04T11:06:35.000Z</Time>
            <Position>
              <LatitudeDegrees>44.766882844269275665283203125</LatitudeDegrees>
              <LongitudeDegrees>-0.81406745128333568572998046875</LongitudeDegrees>
            </Position>
            <AltitudeMeters>48.200000762939453125</AltitudeMeters>
            <DistanceMeters>NAN</DistanceMeters>
          </Trackpoint>
          <Trackpoint>
            <Time>2022-07-04T11:06:37.000Z</Time>
            <Position>
              <LatitudeDegrees>44.76685258559882640838623046875</LatitudeDegrees>
              <LongitudeDegrees>-0.8141847141087055206298828125</LongitudeDegrees>
            </Position>
            <AltitudeMeters>48.200000762939453125</AltitudeMeters>
            <DistanceMeters>NAN</DistanceMeters>
          </Trackpoint>
          <Trackpoint>
            <Time>2022-07-04T11:06:42.000Z</Time>
            <Position>
              <LatitudeDegrees>44.7668156214058399200439453125</LatitudeDegrees>
              <LongitudeDegrees>-0.81443172879517078399658203125</LongitudeDegrees>
            </Position>
            <AltitudeMeters>48.40000152587890625</AltitudeMeters>
            <DistanceMeters>NAN</DistanceMeters>
          </Trackpoint>
          <Trackpoint>
            <Time>2022-07-04T11:06:50.000Z</Time>
            <Position>
              <LatitudeDegrees>44.76670070551335811614990234375</LatitudeDegrees>
              <LongitudeDegrees>-0.8148686774075031280517578125</LongitudeDegrees>
            </Position>
            <AltitudeMeters>48.59999847412109375</AltitudeMeters>
            <DistanceMeters>NAN</DistanceMeters>
          </Trackpoint>
          <Trackpoint>
            <Time>2022-07-04T11:06:55.000Z</Time>
            <Position>
              <LatitudeDegrees>44.76663063280284404754638671875</LatitudeDegrees>
              <LongitudeDegrees>-0.81515751779079437255859375</LongitudeDegrees>
            </Position>
            <AltitudeMeters>48.59999847412109375</AltitudeMeters>
            <DistanceMeters>NAN</DistanceMeters>
          </Trackpoint>
          <Trackpoint>
            <Time>2022-07-04T11:06:57.000Z</Time>
            <Position>
              <LatitudeDegrees>44.76659559644758701324462890625</LatitudeDegrees>
              <LongitudeDegrees>-0.8152592740952968597412109375</LongitudeDegrees>
            </Position>
            <AltitudeMeters>48.59999847412109375</AltitudeMeters>
            <DistanceMeters>NAN</DistanceMeters>
          </Trackpoint>
          <Trackpoint>
            <Time>2022-07-04T11:07:00.000Z</Time>
            <Position>
              <LatitudeDegrees>44.766552262008190155029296875</LatitudeDegrees>
              <LongitudeDegrees>-0.81543755717575550079345703125</LongitudeDegrees>
            </Position>
            <AltitudeMeters>48.59999847412109375</AltitudeMeters>
            <DistanceMeters>NAN</DistanceMeters>
          </Trackpoint>
          <Trackpoint>
            <Time>2022-07-04T11:07:03.000Z</Time>
            <Position>
              <LatitudeDegrees>44.76650373078882694244384765625</LatitudeDegrees>
              <LongitudeDegrees>-0.8155989088118076324462890625</LongitudeDegrees>
            </Position>
            <AltitudeMeters>48.799999237060546875</AltitudeMeters>
            <DistanceMeters>NAN</DistanceMeters>
          </Trackpoint>
          <Trackpoint>
            <Time>2022-07-04T11:07:08.000Z</Time>
            <Position>
              <LatitudeDegrees>44.7664397768676280975341796875</LatitudeDegrees>
              <LongitudeDegrees>-0.8158597536385059356689453125</LongitudeDegrees>
            </Position>
            <AltitudeMeters>48.799999237060546875</AltitudeMeters>
            <DistanceMeters>NAN</DistanceMeters>
          </Trackpoint>
          <Trackpoint>
            <Time>2022-07-04T11:07:09.000Z</Time>
            <Position>
              <LatitudeDegrees>44.7664236836135387420654296875</LatitudeDegrees>
              <LongitudeDegrees>-0.8159060217440128326416015625</LongitudeDegrees>
            </Position>
            <AltitudeMeters>48.799999237060546875</AltitudeMeters>
            <DistanceMeters>NAN</DistanceMeters>
          </Trackpoint>
          <Trackpoint>
            <Time>2022-07-04T11:07:12.000Z</Time>
            <Position>
              <LatitudeDegrees>44.7663874737918376922607421875</LatitudeDegrees>
              <LongitudeDegrees>-0.816049687564373016357421875</LongitudeDegrees>
            </Position>
            <AltitudeMeters>49</AltitudeMeters>
            <DistanceMeters>NAN</DistanceMeters>
          </Trackpoint>
          <Trackpoint>
            <Time>2022-07-04T11:07:19.000Z</Time>
            <Position>
              <LatitudeDegrees>44.76631195284426212310791015625</LatitudeDegrees>
              <LongitudeDegrees>-0.81642041914165019989013671875</LongitudeDegrees>
            </Position>
            <AltitudeMeters>49</AltitudeMeters>
            <DistanceMeters>NAN</DistanceMeters>
          </Trackpoint>
          <Trackpoint>
            <Time>2022-07-04T11:07:24.000Z</Time>
            <Position>
              <LatitudeDegrees>44.76619812659919261932373046875</LatitudeDegrees>
              <LongitudeDegrees>-0.81664622761309146881103515625</LongitudeDegrees>
            </Position>
            <AltitudeMeters>48.799999237060546875</AltitudeMeters>
            <DistanceMeters>NAN</DistanceMeters>
          </Trackpoint>
          <Trackpoint>
            <Time>2022-07-04T11:07:26.000Z</Time>
            <Position>
              <LatitudeDegrees>44.7661524452269077301025390625</LatitudeDegrees>
              <LongitudeDegrees>-0.816741026937961578369140625</LongitudeDegrees>
            </Position>
            <AltitudeMeters>48.799999237060546875</AltitudeMeters>
            <DistanceMeters>NAN</DistanceMeters>
          </Trackpoint>
          <Trackpoint>
            <Time>2022-07-04T11:07:35.000Z</Time>
            <Position>
              <LatitudeDegrees>44.76597684435546398162841796875</LatitudeDegrees>
              <LongitudeDegrees>-0.8171046338975429534912109375</LongitudeDegrees>
            </Position>
            <AltitudeMeters>48.799999237060546875</AltitudeMeters>
            <DistanceMeters>NAN</DistanceMeters>
          </Trackpoint>
          <Trackpoint>
            <Time>2022-07-04T11:07:41.000Z</Time>
            <Position>
              <LatitudeDegrees>44.76586352102458477020263671875</LatitudeDegrees>
              <LongitudeDegrees>-0.81734309904277324676513671875</LongitudeDegrees>
            </Position>
            <AltitudeMeters>49</AltitudeMeters>
            <DistanceMeters>NAN</DistanceMeters>
          </Trackpoint>
          <Trackpoint>
            <Time>2022-07-04T11:07:51.000Z</Time>
            <Position>
              <LatitudeDegrees>44.76565933786332607269287109375</LatitudeDegrees>
              <LongitudeDegrees>-0.817723385989665985107421875</LongitudeDegrees>
            </Position>
            <AltitudeMeters>49</AltitudeMeters>
            <DistanceMeters>NAN</DistanceMeters>
          </Trackpoint>
          <Trackpoint>
            <Time>2022-07-04T11:08:00.000Z</Time>
            <Position>
              <LatitudeDegrees>44.76546286605298519134521484375</LatitudeDegrees>
              <LongitudeDegrees>-0.81806662492454051971435546875</LongitudeDegrees>
            </Position>
            <AltitudeMeters>49</AltitudeMeters>
            <DistanceMeters>NAN</DistanceMeters>
          </Trackpoint>
          <Trackpoint>
            <Time>2022-07-04T11:08:09.000Z</Time>
            <Position>
              <LatitudeDegrees>44.765270166099071502685546875</LatitudeDegrees>
              <LongitudeDegrees>-0.81843190826475620269775390625</LongitudeDegrees>
            </Position>
            <AltitudeMeters>49</AltitudeMeters>
            <DistanceMeters>NAN</DistanceMeters>
          </Trackpoint>
          <Trackpoint>
            <Time>2022-07-04T11:08:17.000Z</Time>
            <Position>
              <LatitudeDegrees>44.76509959436953067779541015625</LatitudeDegrees>
              <LongitudeDegrees>-0.8187536895275115966796875</LongitudeDegrees>
            </Position>
            <AltitudeMeters>49</AltitudeMeters>
            <DistanceMeters>NAN</DistanceMeters>
          </Trackpoint>
          <Trackpoint>
            <Time>2022-07-04T11:08:19.000Z</Time>
            <Position>
              <LatitudeDegrees>44.76504779420793056488037109375</LatitudeDegrees>
              <LongitudeDegrees>-0.818836502730846405029296875</LongitudeDegrees>
            </Position>
            <AltitudeMeters>49</AltitudeMeters>
            <DistanceMeters>NAN</DistanceMeters>
          </Trackpoint>
          <Trackpoint>
            <Time>2022-07-04T11:08:22.000Z</Time>
            <Position>
              <LatitudeDegrees>44.7649809904396533966064453125</LatitudeDegrees>
              <LongitudeDegrees>-0.8189466409385204315185546875</LongitudeDegrees>
            </Position>
            <AltitudeMeters>49</AltitudeMeters>
            <DistanceMeters>NAN</DistanceMeters>
          </Trackpoint>
          <Trackpoint>
            <Time>2022-07-04T11:08:25.000Z</Time>
            <Position>
              <LatitudeDegrees>44.76491183973848819732666015625</LatitudeDegrees>
              <LongitudeDegrees>-0.8190777339041233062744140625</LongitudeDegrees>
            </Position>
            <AltitudeMeters>48.799999237060546875</AltitudeMeters>
            <DistanceMeters>NAN</DistanceMeters>
          </Trackpoint>
          <Trackpoint>
            <Time>2022-07-04T11:08:34.000Z</Time>
            <Position>
              <LatitudeDegrees>44.76472291164100170135498046875</LatitudeDegrees>
              <LongitudeDegrees>-0.81945768557488918304443359375</LongitudeDegrees>
            </Position>
            <AltitudeMeters>49</AltitudeMeters>
            <DistanceMeters>NAN</DistanceMeters>
          </Trackpoint>
          <Trackpoint>
            <Time>2022-07-04T11:08:41.000Z</Time>
            <Position>
              <LatitudeDegrees>44.7645665891468524932861328125</LatitudeDegrees>
              <LongitudeDegrees>-0.8197449333965778350830078125</LongitudeDegrees>
            </Position>
            <AltitudeMeters>49.200000762939453125</AltitudeMeters>
            <DistanceMeters>NAN</DistanceMeters>
          </Trackpoint>
          <Trackpoint>
            <Time>2022-07-04T11:08:45.000Z</Time>
            <Position>
              <LatitudeDegrees>44.76446759887039661407470703125</LatitudeDegrees>
              <LongitudeDegrees>-0.8199097216129302978515625</LongitudeDegrees>
            </Position>
            <AltitudeMeters>49</AltitudeMeters>
            <DistanceMeters>NAN</DistanceMeters>
          </Trackpoint>
          <Trackpoint>
            <Time>2022-07-04T11:08:46.000Z</Time>
            <Position>
              <LatitudeDegrees>44.7644438780844211578369140625</LatitudeDegrees>
              <LongitudeDegrees>-0.81995188258588314056396484375</LongitudeDegrees>
            </Position>
            <AltitudeMeters>49</AltitudeMeters>
            <DistanceMeters>NAN</DistanceMeters>
          </Trackpoint>
          <Trackpoint>
            <Time>2022-07-04T11:08:53.000Z</Time>
            <Position>
              <LatitudeDegrees>44.764287471771240234375</LatitudeDegrees>
              <LongitudeDegrees>-0.82023183815181255340576171875</LongitudeDegrees>
            </Position>
            <AltitudeMeters>49.200000762939453125</AltitudeMeters>
            <DistanceMeters>NAN</DistanceMeters>
          </Trackpoint>
          <Trackpoint>
            <Time>2022-07-04T11:08:55.000Z</Time>
            <Position>
              <LatitudeDegrees>44.76427146233618259429931640625</LatitudeDegrees>
              <LongitudeDegrees>-0.82026435993611812591552734375</LongitudeDegrees>
            </Position>
            <AltitudeMeters>49.200000762939453125</AltitudeMeters>
            <DistanceMeters>NAN</DistanceMeters>
          </Trackpoint>
          <Trackpoint>
            <Time>2022-07-04T11:09:03.000Z</Time>
            <Position>
              <LatitudeDegrees>44.76404900662600994110107421875</LatitudeDegrees>
              <LongitudeDegrees>-0.82064707763493061065673828125</LongitudeDegrees>
            </Position>
            <AltitudeMeters>49.200000762939453125</AltitudeMeters>
            <DistanceMeters>NAN</DistanceMeters>
          </Trackpoint>
          <Trackpoint>
            <Time>2022-07-04T11:09:10.000Z</Time>
            <Position>
              <LatitudeDegrees>44.76389243267476558685302734375</LatitudeDegrees>
              <LongitudeDegrees>-0.8209375105798244476318359375</LongitudeDegrees>
            </Position>
            <AltitudeMeters>49</AltitudeMeters>
            <DistanceMeters>NAN</DistanceMeters>
          </Trackpoint>
          <Trackpoint>
            <Time>2022-07-04T11:09:17.000Z</Time>
            <Position>
              <LatitudeDegrees>44.76375211961567401885986328125</LatitudeDegrees>
              <LongitudeDegrees>-0.82118385471403598785400390625</LongitudeDegrees>
            </Position>
            <AltitudeMeters>49.200000762939453125</AltitudeMeters>
            <DistanceMeters>NAN</DistanceMeters>
          </Trackpoint>
          <Trackpoint>
            <Time>2022-07-04T11:09:27.000Z</Time>
            <Position>
              <LatitudeDegrees>44.76350099779665470123291015625</LatitudeDegrees>
              <LongitudeDegrees>-0.82164335064589977264404296875</LongitudeDegrees>
            </Position>
            <AltitudeMeters>49</AltitudeMeters>
            <DistanceMeters>NAN</DistanceMeters>
          </Trackpoint>
          <Trackpoint>
            <Time>2022-07-04T11:09:32.000Z</Time>
            <Position>
              <LatitudeDegrees>44.76339362561702728271484375</LatitudeDegrees>
              <LongitudeDegrees>-0.82184619270265102386474609375</LongitudeDegrees>
            </Position>
            <AltitudeMeters>48.799999237060546875</AltitudeMeters>
            <DistanceMeters>NAN</DistanceMeters>
          </Trackpoint>
          <Trackpoint>
            <Time>2022-07-04T11:09:36.000Z</Time>
            <Position>
              <LatitudeDegrees>44.76330033503472805023193359375</LatitudeDegrees>
              <LongitudeDegrees>-0.82202355377376079559326171875</LongitudeDegrees>
            </Position>
            <AltitudeMeters>48.799999237060546875</AltitudeMeters>
            <DistanceMeters>NAN</DistanceMeters>
          </Trackpoint>
          <Trackpoint>
            <Time>2022-07-04T11:09:44.000Z</Time>
            <Position>
              <LatitudeDegrees>44.763118363916873931884765625</LatitudeDegrees>
              <LongitudeDegrees>-0.82232974469661712646484375</LongitudeDegrees>
            </Position>
            <AltitudeMeters>48.59999847412109375</AltitudeMeters>
            <DistanceMeters>NAN</DistanceMeters>
          </Trackpoint>
          <Trackpoint>
            <Time>2022-07-04T11:09:52.000Z</Time>
            <Position>
              <LatitudeDegrees>44.7629364766180515289306640625</LatitudeDegrees>
              <LongitudeDegrees>-0.82264666445553302764892578125</LongitudeDegrees>
            </Position>
            <AltitudeMeters>48.59999847412109375</AltitudeMeters>
            <DistanceMeters>NAN</DistanceMeters>
          </Trackpoint>
          <Trackpoint>
            <Time>2022-07-04T11:09:53.000Z</Time>
            <Position>
              <LatitudeDegrees>44.76291954517364501953125</LatitudeDegrees>
              <LongitudeDegrees>-0.8226839639246463775634765625</LongitudeDegrees>
            </Position>
            <AltitudeMeters>48.59999847412109375</AltitudeMeters>
            <DistanceMeters>NAN</DistanceMeters>
          </Trackpoint>
          <Trackpoint>
            <Time>2022-07-04T11:10:02.000Z</Time>
            <Position>
              <LatitudeDegrees>44.76272483356297016143798828125</LatitudeDegrees>
              <LongitudeDegrees>-0.823029465973377227783203125</LongitudeDegrees>
            </Position>
            <AltitudeMeters>48.59999847412109375</AltitudeMeters>
            <DistanceMeters>NAN</DistanceMeters>
          </Trackpoint>
          <Trackpoint>
            <Time>2022-07-04T11:10:12.000Z</Time>
            <Position>
              <LatitudeDegrees>44.76251092739403247833251953125</LatitudeDegrees>
              <LongitudeDegrees>-0.82341092638671398162841796875</LongitudeDegrees>
            </Position>
            <AltitudeMeters>48.59999847412109375</AltitudeMeters>
            <DistanceMeters>NAN</DistanceMeters>
          </Trackpoint>
          <Trackpoint>
            <Time>2022-07-04T11:10:14.000Z</Time>
            <Position>
              <LatitudeDegrees>44.76246499456465244293212890625</LatitudeDegrees>
              <LongitudeDegrees>-0.82349206320941448211669921875</LongitudeDegrees>
            </Position>
            <AltitudeMeters>48.799999237060546875</AltitudeMeters>
            <DistanceMeters>NAN</DistanceMeters>
          </Trackpoint>
          <Trackpoint>
            <Time>2022-07-04T11:10:19.000Z</Time>
            <Position>
              <LatitudeDegrees>44.76236357353627681732177734375</LatitudeDegrees>
              <LongitudeDegrees>-0.82366975955665111541748046875</LongitudeDegrees>
            </Position>
            <AltitudeMeters>48.59999847412109375</AltitudeMeters>
            <DistanceMeters>NAN</DistanceMeters>
          </Trackpoint>
          <Trackpoint>
            <Time>2022-07-04T11:10:24.000Z</Time>
            <Position>
              <LatitudeDegrees>44.7622664272785186767578125</LatitudeDegrees>
              <LongitudeDegrees>-0.82387075759470462799072265625</LongitudeDegrees>
            </Position>
            <AltitudeMeters>48.59999847412109375</AltitudeMeters>
            <DistanceMeters>NAN</DistanceMeters>
          </Trackpoint>
          <Trackpoint>
            <Time>2022-07-04T11:10:27.000Z</Time>
            <Position>
              <LatitudeDegrees>44.76221387274563312530517578125</LatitudeDegrees>
              <LongitudeDegrees>-0.82399732433259487152099609375</LongitudeDegrees>
            </Position>
            <AltitudeMeters>48.40000152587890625</AltitudeMeters>
            <DistanceMeters>NAN</DistanceMeters>
          </Trackpoint>
          <Trackpoint>
            <Time>2022-07-04T11:10:37.000Z</Time>
            <Position>
              <LatitudeDegrees>44.76199292577803134918212890625</LatitudeDegrees>
              <LongitudeDegrees>-0.8243916928768157958984375</LongitudeDegrees>
            </Position>
            <AltitudeMeters>48.40000152587890625</AltitudeMeters>
            <DistanceMeters>NAN</DistanceMeters>
          </Trackpoint>
          <Trackpoint>
            <Time>2022-07-04T11:10:42.000Z</Time>
            <Position>
              <LatitudeDegrees>44.7618894092738628387451171875</LatitudeDegrees>
              <LongitudeDegrees>-0.824613980948925018310546875</LongitudeDegrees>
            </Position>
            <AltitudeMeters>48.40000152587890625</AltitudeMeters>
            <DistanceMeters>NAN</DistanceMeters>
          </Trackpoint>
          <Trackpoint>
            <Time>2022-07-04T11:10:43.000Z</Time>
            <Position>
              <LatitudeDegrees>44.76186451502144336700439453125</LatitudeDegrees>
              <LongitudeDegrees>-0.8246580697596073150634765625</LongitudeDegrees>
            </Position>
            <AltitudeMeters>48.40000152587890625</AltitudeMeters>
            <DistanceMeters>NAN</DistanceMeters>
          </Trackpoint>
          <Trackpoint>
            <Time>2022-07-04T11:10:49.000Z</Time>
            <Position>
              <LatitudeDegrees>44.76170358248054981231689453125</LatitudeDegrees>
              <LongitudeDegrees>-0.8249055035412311553955078125</LongitudeDegrees>
            </Position>
            <AltitudeMeters>48.40000152587890625</AltitudeMeters>
            <DistanceMeters>NAN</DistanceMeters>
          </Trackpoint>
          <Trackpoint>
            <Time>2022-07-04T11:10:54.000Z</Time>
            <Position>
              <LatitudeDegrees>44.761596880853176116943359375</LatitudeDegrees>
              <LongitudeDegrees>-0.8251284621655941009521484375</LongitudeDegrees>
            </Position>
            <AltitudeMeters>48.40000152587890625</AltitudeMeters>
            <DistanceMeters>NAN</DistanceMeters>
          </Trackpoint>
          <Trackpoint>
            <Time>2022-07-04T11:11:02.000Z</Time>
            <Position>
              <LatitudeDegrees>44.76137987338006496429443359375</LatitudeDegrees>
              <LongitudeDegrees>-0.82544571720063686370849609375</LongitudeDegrees>
            </Position>
            <AltitudeMeters>48.59999847412109375</AltitudeMeters>
            <DistanceMeters>NAN</DistanceMeters>
          </Trackpoint>
          <Trackpoint>
            <Time>2022-07-04T11:11:08.000Z</Time>
            <Position>
              <LatitudeDegrees>44.761254228651523590087890625</LatitudeDegrees>
              <LongitudeDegrees>-0.82569784484803676605224609375</LongitudeDegrees>
            </Position>
            <AltitudeMeters>48.59999847412109375</AltitudeMeters>
            <DistanceMeters>NAN</DistanceMeters>
          </Trackpoint>
          <Trackpoint>
            <Time>2022-07-04T11:11:14.000Z</Time>
            <Position>
              <LatitudeDegrees>44.76113897748291492462158203125</LatitudeDegrees>
              <LongitudeDegrees>-0.8259441889822483062744140625</LongitudeDegrees>
            </Position>
            <AltitudeMeters>48.59999847412109375</AltitudeMeters>
            <DistanceMeters>NAN</DistanceMeters>
          </Trackpoint>
          <Trackpoint>
            <Time>2022-07-04T11:11:21.000Z</Time>
            <Position>
              <LatitudeDegrees>44.76097821258008480072021484375</LatitudeDegrees>
              <LongitudeDegrees>-0.826241075992584228515625</LongitudeDegrees>
            </Position>
            <AltitudeMeters>48.40000152587890625</AltitudeMeters>
            <DistanceMeters>NAN</DistanceMeters>
          </Trackpoint>
          <Trackpoint>
            <Time>2022-07-04T11:11:27.000Z</Time>
            <Position>
              <LatitudeDegrees>44.7608507238328456878662109375</LatitudeDegrees>
              <LongitudeDegrees>-0.82648574374616146087646484375</LongitudeDegrees>
            </Position>
            <AltitudeMeters>48.40000152587890625</AltitudeMeters>
            <DistanceMeters>NAN</DistanceMeters>
          </Trackpoint>
          <Trackpoint>
            <Time>2022-07-04T11:11:29.000Z</Time>
            <Position>
              <LatitudeDegrees>44.76080923341214656829833984375</LatitudeDegrees>
              <LongitudeDegrees>-0.8265634439885616302490234375</LongitudeDegrees>
            </Position>
            <AltitudeMeters>48.59999847412109375</AltitudeMeters>
            <DistanceMeters>NAN</DistanceMeters>
          </Trackpoint>
          <Trackpoint>
            <Time>2022-07-04T11:11:37.000Z</Time>
            <Position>
              <LatitudeDegrees>44.7606287710368633270263671875</LatitudeDegrees>
              <LongitudeDegrees>-0.8268695510923862457275390625</LongitudeDegrees>
            </Position>
            <AltitudeMeters>48.59999847412109375</AltitudeMeters>
            <DistanceMeters>NAN</DistanceMeters>
          </Trackpoint>
          <Trackpoint>
            <Time>2022-07-04T11:11:45.000Z</Time>
            <Position>
              <LatitudeDegrees>44.76046264171600341796875</LatitudeDegrees>
              <LongitudeDegrees>-0.82716769538819789886474609375</LongitudeDegrees>
            </Position>
            <AltitudeMeters>48.40000152587890625</AltitudeMeters>
            <DistanceMeters>NAN</DistanceMeters>
          </Trackpoint>
          <Trackpoint>
            <Time>2022-07-04T11:11:50.000Z</Time>
            <Position>
              <LatitudeDegrees>44.760400950908660888671875</LatitudeDegrees>
              <LongitudeDegrees>-0.82734388299286365509033203125</LongitudeDegrees>
            </Position>
            <AltitudeMeters>48</AltitudeMeters>
            <DistanceMeters>NAN</DistanceMeters>
          </Trackpoint>
          <Trackpoint>
            <Time>2022-07-04T11:11:55.000Z</Time>
            <Position>
              <LatitudeDegrees>44.76029709912836551666259765625</LatitudeDegrees>
              <LongitudeDegrees>-0.82752711139619350433349609375</LongitudeDegrees>
            </Position>
            <AltitudeMeters>48</AltitudeMeters>
            <DistanceMeters>NAN</DistanceMeters>
          </Trackpoint>
          <Trackpoint>
            <Time>2022-07-04T11:12:02.000Z</Time>
            <Position>
              <LatitudeDegrees>44.76011462509632110595703125</LatitudeDegrees>
              <LongitudeDegrees>-0.82776985131204128265380859375</LongitudeDegrees>
            </Position>
            <AltitudeMeters>48.200000762939453125</AltitudeMeters>
            <DistanceMeters>NAN</DistanceMeters>
          </Trackpoint>
          <Trackpoint>
            <Time>2022-07-04T11:12:09.000Z</Time>
            <Position>
              <LatitudeDegrees>44.759965427219867706298828125</LatitudeDegrees>
              <LongitudeDegrees>-0.8280165307223796844482421875</LongitudeDegrees>
            </Position>
            <AltitudeMeters>48.40000152587890625</AltitudeMeters>
            <DistanceMeters>NAN</DistanceMeters>
          </Trackpoint>
          <Trackpoint>
            <Time>2022-07-04T11:12:15.000Z</Time>
            <Position>
              <LatitudeDegrees>44.759853444993495941162109375</LatitudeDegrees>
              <LongitudeDegrees>-0.82824611105024814605712890625</LongitudeDegrees>
            </Position>
            <AltitudeMeters>48.40000152587890625</AltitudeMeters>
            <DistanceMeters>NAN</DistanceMeters>
          </Trackpoint>
          <Trackpoint>
            <Time>2022-07-04T11:12:23.000Z</Time>
            <Position>
              <LatitudeDegrees>44.75969175808131694793701171875</LatitudeDegrees>
              <LongitudeDegrees>-0.82854970358312129974365234375</LongitudeDegrees>
            </Position>
            <AltitudeMeters>48.40000152587890625</AltitudeMeters>
            <DistanceMeters>NAN</DistanceMeters>
          </Trackpoint>
          <Trackpoint>
            <Time>2022-07-04T11:12:31.000Z</Time>
            <Position>
              <LatitudeDegrees>44.75954172201454639434814453125</LatitudeDegrees>
              <LongitudeDegrees>-0.82886134274303913116455078125</LongitudeDegrees>
            </Position>
            <AltitudeMeters>48.40000152587890625</AltitudeMeters>
            <DistanceMeters>NAN</DistanceMeters>
          </Trackpoint>
          <Trackpoint>
            <Time>2022-07-04T11:12:38.000Z</Time>
            <Position>
              <LatitudeDegrees>44.75937425158917903900146484375</LatitudeDegrees>
              <LongitudeDegrees>-0.82912067882716655731201171875</LongitudeDegrees>
            </Position>
            <AltitudeMeters>48.59999847412109375</AltitudeMeters>
            <DistanceMeters>NAN</DistanceMeters>
          </Trackpoint>
          <Trackpoint>
            <Time>2022-07-04T11:12:46.000Z</Time>
            <Position>
              <LatitudeDegrees>44.75920275785028934478759765625</LatitudeDegrees>
              <LongitudeDegrees>-0.82943030633032321929931640625</LongitudeDegrees>
            </Position>
            <AltitudeMeters>48.40000152587890625</AltitudeMeters>
            <DistanceMeters>NAN</DistanceMeters>
          </Trackpoint>
          <Trackpoint>
            <Time>2022-07-04T11:12:53.000Z</Time>
            <Position>
              <LatitudeDegrees>44.7590398974716663360595703125</LatitudeDegrees>
              <LongitudeDegrees>-0.82971260882914066314697265625</LongitudeDegrees>
            </Position>
            <AltitudeMeters>48.799999237060546875</AltitudeMeters>
            <DistanceMeters>NAN</DistanceMeters>
          </Trackpoint>
          <Trackpoint>
            <Time>2022-07-04T11:13:00.000Z</Time>
            <Position>
              <LatitudeDegrees>44.75888575427234172821044921875</LatitudeDegrees>
              <LongitudeDegrees>-0.83000094629824161529541015625</LongitudeDegrees>
            </Position>
            <AltitudeMeters>48.59999847412109375</AltitudeMeters>
            <DistanceMeters>NAN</DistanceMeters>
          </Trackpoint>
          <Trackpoint>
            <Time>2022-07-04T11:13:09.000Z</Time>
            <Position>
              <LatitudeDegrees>44.7586935572326183319091796875</LatitudeDegrees>
              <LongitudeDegrees>-0.83034007810056209564208984375</LongitudeDegrees>
            </Position>
            <AltitudeMeters>48.59999847412109375</AltitudeMeters>
            <DistanceMeters>NAN</DistanceMeters>
          </Trackpoint>
          <Trackpoint>
            <Time>2022-07-04T11:13:15.000Z</Time>
            <Position>
              <LatitudeDegrees>44.75856204517185688018798828125</LatitudeDegrees>
              <LongitudeDegrees>-0.83059036172926425933837890625</LongitudeDegrees>
            </Position>
            <AltitudeMeters>48.59999847412109375</AltitudeMeters>
            <DistanceMeters>NAN</DistanceMeters>
          </Trackpoint>
          <Trackpoint>
            <Time>2022-07-04T11:13:22.000Z</Time>
            <Position>
              <LatitudeDegrees>44.7584397532045841217041015625</LatitudeDegrees>
              <LongitudeDegrees>-0.83086880855262279510498046875</LongitudeDegrees>
            </Position>
            <AltitudeMeters>48.799999237060546875</AltitudeMeters>
            <DistanceMeters>NAN</DistanceMeters>
          </Trackpoint>
          <Trackpoint>
            <Time>2022-07-04T11:13:28.000Z</Time>
            <Position>
              <LatitudeDegrees>44.758301116526126861572265625</LatitudeDegrees>
              <LongitudeDegrees>-0.83112093620002269744873046875</LongitudeDegrees>
            </Position>
            <AltitudeMeters>48.799999237060546875</AltitudeMeters>
            <DistanceMeters>NAN</DistanceMeters>
          </Trackpoint>
          <Trackpoint>
            <Time>2022-07-04T11:13:30.000Z</Time>
            <Position>
              <LatitudeDegrees>44.75825459696352481842041015625</LatitudeDegrees>
              <LongitudeDegrees>-0.8311962895095348358154296875</LongitudeDegrees>
            </Position>
            <AltitudeMeters>48.799999237060546875</AltitudeMeters>
            <DistanceMeters>NAN</DistanceMeters>
          </Trackpoint>
          <Trackpoint>
            <Time>2022-07-04T11:13:35.000Z</Time>
            <Position>
              <LatitudeDegrees>44.7581507451832294464111328125</LatitudeDegrees>
              <LongitudeDegrees>-0.83139284513890743255615234375</LongitudeDegrees>
            </Position>
            <AltitudeMeters>48.799999237060546875</AltitudeMeters>
            <DistanceMeters>NAN</DistanceMeters>
          </Trackpoint>
          <Trackpoint>
            <Time>2022-07-04T11:13:37.000Z</Time>
            <Position>
              <LatitudeDegrees>44.75811210460960865020751953125</LatitudeDegrees>
              <LongitudeDegrees>-0.83147565834224224090576171875</LongitudeDegrees>
            </Position>
            <AltitudeMeters>48.799999237060546875</AltitudeMeters>
            <DistanceMeters>NAN</DistanceMeters>
          </Trackpoint>
          <Trackpoint>
            <Time>2022-07-04T11:13:44.000Z</Time>
            <Position>
              <LatitudeDegrees>44.75795678794384002685546875</LatitudeDegrees>
              <LongitudeDegrees>-0.8317474834620952606201171875</LongitudeDegrees>
            </Position>
            <AltitudeMeters>49</AltitudeMeters>
            <DistanceMeters>NAN</DistanceMeters>
          </Trackpoint>
          <Trackpoint>
            <Time>2022-07-04T11:13:50.000Z</Time>
            <Position>
              <LatitudeDegrees>44.75782401859760284423828125</LatitudeDegrees>
              <LongitudeDegrees>-0.83199013955891132354736328125</LongitudeDegrees>
            </Position>
            <AltitudeMeters>49</AltitudeMeters>
            <DistanceMeters>NAN</DistanceMeters>
          </Trackpoint>
          <Trackpoint>
            <Time>2022-07-04T11:13:58.000Z</Time>
            <Position>
              <LatitudeDegrees>44.7576367668807506561279296875</LatitudeDegrees>
              <LongitudeDegrees>-0.83234435878694057464599609375</LongitudeDegrees>
            </Position>
            <AltitudeMeters>49</AltitudeMeters>
            <DistanceMeters>NAN</DistanceMeters>
          </Trackpoint>
          <Trackpoint>
            <Time>2022-07-04T11:14:04.000Z</Time>
            <Position>
              <LatitudeDegrees>44.75746787153184413909912109375</LatitudeDegrees>
              <LongitudeDegrees>-0.832583494484424591064453125</LongitudeDegrees>
            </Position>
            <AltitudeMeters>49</AltitudeMeters>
            <DistanceMeters>NAN</DistanceMeters>
          </Trackpoint>
          <Trackpoint>
            <Time>2022-07-04T11:14:05.000Z</Time>
            <Position>
              <LatitudeDegrees>44.75743887014687061309814453125</LatitudeDegrees>
              <LongitudeDegrees>-0.83262431435286998748779296875</LongitudeDegrees>
            </Position>
            <AltitudeMeters>49</AltitudeMeters>
            <DistanceMeters>NAN</DistanceMeters>
          </Trackpoint>
          <Trackpoint>
            <Time>2022-07-04T11:14:10.000Z</Time>
            <Position>
              <LatitudeDegrees>44.757314063608646392822265625</LatitudeDegrees>
              <LongitudeDegrees>-0.8328299224376678466796875</LongitudeDegrees>
            </Position>
            <AltitudeMeters>49.200000762939453125</AltitudeMeters>
            <DistanceMeters>NAN</DistanceMeters>
          </Trackpoint>
          <Trackpoint>
            <Time>2022-07-04T11:14:13.000Z</Time>
            <Position>
              <LatitudeDegrees>44.75722965784370899200439453125</LatitudeDegrees>
              <LongitudeDegrees>-0.83297484554350376129150390625</LongitudeDegrees>
            </Position>
            <AltitudeMeters>49.200000762939453125</AltitudeMeters>
            <DistanceMeters>NAN</DistanceMeters>
          </Trackpoint>
          <Trackpoint>
            <Time>2022-07-04T11:14:21.000Z</Time>
            <Position>
              <LatitudeDegrees>44.75705782882869243621826171875</LatitudeDegrees>
              <LongitudeDegrees>-0.83328782580792903900146484375</LongitudeDegrees>
            </Position>
            <AltitudeMeters>49.200000762939453125</AltitudeMeters>
            <DistanceMeters>NAN</DistanceMeters>
          </Trackpoint>
          <Trackpoint>
            <Time>2022-07-04T11:14:27.000Z</Time>
            <Position>
              <LatitudeDegrees>44.7569367103278636932373046875</LatitudeDegrees>
              <LongitudeDegrees>-0.833537690341472625732421875</LongitudeDegrees>
            </Position>
            <AltitudeMeters>49.200000762939453125</AltitudeMeters>
            <DistanceMeters>NAN</DistanceMeters>
          </Trackpoint>
          <Trackpoint>
            <Time>2022-07-04T11:14:34.000Z</Time>
            <Position>
              <LatitudeDegrees>44.75675758905708789825439453125</LatitudeDegrees>
              <LongitudeDegrees>-0.83381655625998973846435546875</LongitudeDegrees>
            </Position>
            <AltitudeMeters>49.200000762939453125</AltitudeMeters>
            <DistanceMeters>NAN</DistanceMeters>
          </Trackpoint>
          <Trackpoint>
            <Time>2022-07-04T11:14:40.000Z</Time>
            <Position>
              <LatitudeDegrees>44.75662951357662677764892578125</LatitudeDegrees>
              <LongitudeDegrees>-0.83405326120555400848388671875</LongitudeDegrees>
            </Position>
            <AltitudeMeters>49.200000762939453125</AltitudeMeters>
            <DistanceMeters>NAN</DistanceMeters>
          </Trackpoint>
          <Trackpoint>
            <Time>2022-07-04T11:14:43.000Z</Time>
            <Position>
              <LatitudeDegrees>44.756587184965610504150390625</LatitudeDegrees>
              <LongitudeDegrees>-0.834131799638271331787109375</LongitudeDegrees>
            </Position>
            <AltitudeMeters>49</AltitudeMeters>
            <DistanceMeters>NAN</DistanceMeters>
          </Trackpoint>
          <Trackpoint>
            <Time>2022-07-04T11:14:44.000Z</Time>
            <Position>
              <LatitudeDegrees>44.75658944807946681976318359375</LatitudeDegrees>
              <LongitudeDegrees>-0.834148228168487548828125</LongitudeDegrees>
            </Position>
            <AltitudeMeters>49</AltitudeMeters>
            <DistanceMeters>NAN</DistanceMeters>
          </Trackpoint>
          <Trackpoint>
            <Time>2022-07-04T11:14:46.000Z</Time>
            <Position>
              <LatitudeDegrees>44.75661207921802997589111328125</LatitudeDegrees>
              <LongitudeDegrees>-0.83416943438351154327392578125</LongitudeDegrees>
            </Position>
            <AltitudeMeters>48.799999237060546875</AltitudeMeters>
            <DistanceMeters>NAN</DistanceMeters>
          </Trackpoint>
          <Trackpoint>
            <Time>2022-07-04T11:14:49.000Z</Time>
            <Position>
              <LatitudeDegrees>44.75661610253155231475830078125</LatitudeDegrees>
              <LongitudeDegrees>-0.83417111076414585113525390625</LongitudeDegrees>
            </Position>
            <AltitudeMeters>48.799999237060546875</AltitudeMeters>
            <DistanceMeters>NAN</DistanceMeters>
          </Trackpoint>
          <Trackpoint>
            <Time>2022-07-04T11:24:00.000Z</Time>
            <Position>
              <LatitudeDegrees>44.75658525712788105010986328125</LatitudeDegrees>
              <LongitudeDegrees>-0.83410891704261302947998046875</LongitudeDegrees>
            </Position>
            <AltitudeMeters>46.799999237060546875</AltitudeMeters>
            <DistanceMeters>NAN</DistanceMeters>
          </Trackpoint>
          <Trackpoint>
            <Time>2022-07-04T11:24:01.000Z</Time>
            <Position>
              <LatitudeDegrees>44.75656874477863311767578125</LatitudeDegrees>
              <LongitudeDegrees>-0.83411931060254573822021484375</LongitudeDegrees>
            </Position>
            <AltitudeMeters>46.799999237060546875</AltitudeMeters>
            <DistanceMeters>NAN</DistanceMeters>
          </Trackpoint>
          <Trackpoint>
            <Time>2022-07-04T11:24:02.000Z</Time>
            <Position>
              <LatitudeDegrees>44.75655122660100460052490234375</LatitudeDegrees>
              <LongitudeDegrees>-0.83413816988468170166015625</LongitudeDegrees>
            </Position>
            <AltitudeMeters>46.799999237060546875</AltitudeMeters>
            <DistanceMeters>NAN</DistanceMeters>
          </Trackpoint>
          <Trackpoint>
            <Time>2022-07-04T11:24:06.000Z</Time>
            <Position>
              <LatitudeDegrees>44.75649498403072357177734375</LatitudeDegrees>
              <LongitudeDegrees>-0.83424135111272335052490234375</LongitudeDegrees>
            </Position>
            <AltitudeMeters>46.59999847412109375</AltitudeMeters>
            <DistanceMeters>NAN</DistanceMeters>
          </Trackpoint>
          <Trackpoint>
            <Time>2022-07-04T11:24:08.000Z</Time>
            <Position>
              <LatitudeDegrees>44.75646279752254486083984375</LatitudeDegrees>
              <LongitudeDegrees>-0.8343069814145565032958984375</LongitudeDegrees>
            </Position>
            <AltitudeMeters>46.59999847412109375</AltitudeMeters>
            <DistanceMeters>NAN</DistanceMeters>
          </Trackpoint>
          <Trackpoint>
            <Time>2022-07-04T11:24:12.000Z</Time>
            <Position>
              <LatitudeDegrees>44.75638140924274921417236328125</LatitudeDegrees>
              <LongitudeDegrees>-0.83446011878550052642822265625</LongitudeDegrees>
            </Position>
            <AltitudeMeters>46.59999847412109375</AltitudeMeters>
            <DistanceMeters>NAN</DistanceMeters>
          </Trackpoint>
          <Trackpoint>
            <Time>2022-07-04T11:24:14.000Z</Time>
            <Position>
              <LatitudeDegrees>44.75634084083139896392822265625</LatitudeDegrees>
              <LongitudeDegrees>-0.83452415652573108673095703125</LongitudeDegrees>
            </Position>
            <AltitudeMeters>46.59999847412109375</AltitudeMeters>
            <DistanceMeters>NAN</DistanceMeters>
          </Trackpoint>
          <Trackpoint>
            <Time>2022-07-04T11:24:15.000Z</Time>
            <Position>
              <LatitudeDegrees>44.75632927380502223968505859375</LatitudeDegrees>
              <LongitudeDegrees>-0.83455014042556285858154296875</LongitudeDegrees>
            </Position>
            <AltitudeMeters>46.59999847412109375</AltitudeMeters>
            <DistanceMeters>NAN</DistanceMeters>
          </Trackpoint>
          <Trackpoint>
            <Time>2022-07-04T11:24:21.000Z</Time>
            <Position>
              <LatitudeDegrees>44.7562151961028575897216796875</LatitudeDegrees>
              <LongitudeDegrees>-0.83477653563022613525390625</LongitudeDegrees>
            </Position>
            <AltitudeMeters>46.59999847412109375</AltitudeMeters>
            <DistanceMeters>NAN</DistanceMeters>
          </Trackpoint>
          <Trackpoint>
            <Time>2022-07-04T11:24:26.000Z</Time>
            <Position>
              <LatitudeDegrees>44.75608971901237964630126953125</LatitudeDegrees>
              <LongitudeDegrees>-0.83499806933104991912841796875</LongitudeDegrees>
            </Position>
            <AltitudeMeters>46.40000152587890625</AltitudeMeters>
            <DistanceMeters>NAN</DistanceMeters>
          </Trackpoint>
          <Trackpoint>
            <Time>2022-07-04T11:24:33.000Z</Time>
            <Position>
              <LatitudeDegrees>44.75592358969151973724365234375</LatitudeDegrees>
              <LongitudeDegrees>-0.8353312499821186065673828125</LongitudeDegrees>
            </Position>
            <AltitudeMeters>46.200000762939453125</AltitudeMeters>
            <DistanceMeters>NAN</DistanceMeters>
          </Trackpoint>
          <Trackpoint>
            <Time>2022-07-04T11:24:34.000Z</Time>
            <Position>
              <LatitudeDegrees>44.75590565241873264312744140625</LatitudeDegrees>
              <LongitudeDegrees>-0.835381038486957550048828125</LongitudeDegrees>
            </Position>
            <AltitudeMeters>46.200000762939453125</AltitudeMeters>
            <DistanceMeters>NAN</DistanceMeters>
          </Trackpoint>
          <Trackpoint>
            <Time>2022-07-04T11:24:35.000Z</Time>
            <Position>
              <LatitudeDegrees>44.755876064300537109375</LatitudeDegrees>
              <LongitudeDegrees>-0.83542822860181331634521484375</LongitudeDegrees>
            </Position>
            <AltitudeMeters>46.200000762939453125</AltitudeMeters>
            <DistanceMeters>NAN</DistanceMeters>
          </Trackpoint>
          <Trackpoint>
            <Time>2022-07-04T11:24:39.000Z</Time>
            <Position>
              <LatitudeDegrees>44.7557719610631465911865234375</LatitudeDegrees>
              <LongitudeDegrees>-0.83561338484287261962890625</LongitudeDegrees>
            </Position>
            <AltitudeMeters>46.200000762939453125</AltitudeMeters>
            <DistanceMeters>NAN</DistanceMeters>
          </Trackpoint>
          <Trackpoint>
            <Time>2022-07-04T11:24:40.000Z</Time>
            <Position>
              <LatitudeDegrees>44.75574539043009281158447265625</LatitudeDegrees>
              <LongitudeDegrees>-0.83564615808427333831787109375</LongitudeDegrees>
            </Position>
            <AltitudeMeters>46.200000762939453125</AltitudeMeters>
            <DistanceMeters>NAN</DistanceMeters>
          </Trackpoint>
          <Trackpoint>
            <Time>2022-07-04T11:24:42.000Z</Time>
            <Position>
              <LatitudeDegrees>44.75569644011557102203369140625</LatitudeDegrees>
              <LongitudeDegrees>-0.8357369340956211090087890625</LongitudeDegrees>
            </Position>
            <AltitudeMeters>46.200000762939453125</AltitudeMeters>
            <DistanceMeters>NAN</DistanceMeters>
          </Trackpoint>
          <Trackpoint>
            <Time>2022-07-04T11:24:45.000Z</Time>
            <Position>
              <LatitudeDegrees>44.75561647675931453704833984375</LatitudeDegrees>
              <LongitudeDegrees>-0.83587087690830230712890625</LongitudeDegrees>
            </Position>
            <AltitudeMeters>46.40000152587890625</AltitudeMeters>
            <DistanceMeters>NAN</DistanceMeters>
          </Trackpoint>
          <Trackpoint>
            <Time>2022-07-04T11:24:47.000Z</Time>
            <Position>
              <LatitudeDegrees>44.75556316785514354705810546875</LatitudeDegrees>
              <LongitudeDegrees>-0.83594623021781444549560546875</LongitudeDegrees>
            </Position>
            <AltitudeMeters>46.40000152587890625</AltitudeMeters>
            <DistanceMeters>NAN</DistanceMeters>
          </Trackpoint>
          <Trackpoint>
            <Time>2022-07-04T11:24:56.000Z</Time>
            <Position>
              <LatitudeDegrees>44.75527985952794551849365234375</LatitudeDegrees>
              <LongitudeDegrees>-0.8362918160855770111083984375</LongitudeDegrees>
            </Position>
            <AltitudeMeters>46.799999237060546875</AltitudeMeters>
            <DistanceMeters>NAN</DistanceMeters>
          </Trackpoint>
          <Trackpoint>
            <Time>2022-07-04T11:24:58.000Z</Time>
            <Position>
              <LatitudeDegrees>44.7552200965583324432373046875</LatitudeDegrees>
              <LongitudeDegrees>-0.83637001924216747283935546875</LongitudeDegrees>
            </Position>
            <AltitudeMeters>46.799999237060546875</AltitudeMeters>
            <DistanceMeters>NAN</DistanceMeters>
          </Trackpoint>
          <Trackpoint>
            <Time>2022-07-04T11:25:04.000Z</Time>
            <Position>
              <LatitudeDegrees>44.75500040687620639801025390625</LatitudeDegrees>
              <LongitudeDegrees>-0.83662457764148712158203125</LongitudeDegrees>
            </Position>
            <AltitudeMeters>46.59999847412109375</AltitudeMeters>
            <DistanceMeters>NAN</DistanceMeters>
          </Trackpoint>
          <Trackpoint>
            <Time>2022-07-04T11:25:06.000Z</Time>
            <Position>
              <LatitudeDegrees>44.75493133999407291412353515625</LatitudeDegrees>
              <LongitudeDegrees>-0.836706049740314483642578125</LongitudeDegrees>
            </Position>
            <AltitudeMeters>46.59999847412109375</AltitudeMeters>
            <DistanceMeters>NAN</DistanceMeters>
          </Trackpoint>
          <Trackpoint>
            <Time>2022-07-04T11:25:12.000Z</Time>
            <Position>
              <LatitudeDegrees>44.75474358536303043365478515625</LatitudeDegrees>
              <LongitudeDegrees>-0.836927331984043121337890625</LongitudeDegrees>
            </Position>
            <AltitudeMeters>46.59999847412109375</AltitudeMeters>
            <DistanceMeters>NAN</DistanceMeters>
          </Trackpoint>
          <Trackpoint>
            <Time>2022-07-04T11:25:14.000Z</Time>
            <Position>
              <LatitudeDegrees>44.75468038581311702728271484375</LatitudeDegrees>
              <LongitudeDegrees>-0.8370019309222698211669921875</LongitudeDegrees>
            </Position>
            <AltitudeMeters>46.59999847412109375</AltitudeMeters>
            <DistanceMeters>NAN</DistanceMeters>
          </Trackpoint>
          <Trackpoint>
            <Time>2022-07-04T11:25:16.000Z</Time>
            <Position>
              <LatitudeDegrees>44.754600338637828826904296875</LatitudeDegrees>
              <LongitudeDegrees>-0.83708214573562145233154296875</LongitudeDegrees>
            </Position>
            <AltitudeMeters>46.59999847412109375</AltitudeMeters>
            <DistanceMeters>NAN</DistanceMeters>
          </Trackpoint>
          <Trackpoint>
            <Time>2022-07-04T11:25:19.000Z</Time>
            <Position>
              <LatitudeDegrees>44.75451358594000339508056640625</LatitudeDegrees>
              <LongitudeDegrees>-0.8371890150010585784912109375</LongitudeDegrees>
            </Position>
            <AltitudeMeters>46.40000152587890625</AltitudeMeters>
            <DistanceMeters>NAN</DistanceMeters>
          </Trackpoint>
          <Trackpoint>
            <Time>2022-07-04T11:25:21.000Z</Time>
            <Position>
              <LatitudeDegrees>44.75444871000945568084716796875</LatitudeDegrees>
              <LongitudeDegrees>-0.837264619767665863037109375</LongitudeDegrees>
            </Position>
            <AltitudeMeters>46.59999847412109375</AltitudeMeters>
            <DistanceMeters>NAN</DistanceMeters>
          </Trackpoint>
          <Trackpoint>
            <Time>2022-07-04T11:25:22.000Z</Time>
            <Position>
              <LatitudeDegrees>44.75441199727356433868408203125</LatitudeDegrees>
              <LongitudeDegrees>-0.83730460144579410552978515625</LongitudeDegrees>
            </Position>
            <AltitudeMeters>46.59999847412109375</AltitudeMeters>
            <DistanceMeters>NAN</DistanceMeters>
          </Trackpoint>
          <Trackpoint>
            <Time>2022-07-04T11:25:23.000Z</Time>
            <Position>
              <LatitudeDegrees>44.75437863729894161224365234375</LatitudeDegrees>
              <LongitudeDegrees>-0.83734299056231975555419921875</LongitudeDegrees>
            </Position>
            <AltitudeMeters>46.59999847412109375</AltitudeMeters>
            <DistanceMeters>NAN</DistanceMeters>
          </Trackpoint>
          <Trackpoint>
            <Time>2022-07-04T11:25:27.000Z</Time>
            <Position>
              <LatitudeDegrees>44.75425575859844684600830078125</LatitudeDegrees>
              <LongitudeDegrees>-0.83749386481940746307373046875</LongitudeDegrees>
            </Position>
            <AltitudeMeters>46.40000152587890625</AltitudeMeters>
            <DistanceMeters>NAN</DistanceMeters>
          </Trackpoint>
          <Trackpoint>
            <Time>2022-07-04T11:25:28.000Z</Time>
            <Position>
              <LatitudeDegrees>44.7542253322899341583251953125</LatitudeDegrees>
              <LongitudeDegrees>-0.83753116428852081298828125</LongitudeDegrees>
            </Position>
            <AltitudeMeters>46.40000152587890625</AltitudeMeters>
            <DistanceMeters>NAN</DistanceMeters>
          </Trackpoint>
          <Trackpoint>
            <Time>2022-07-04T11:25:36.000Z</Time>
            <Position>
              <LatitudeDegrees>44.75396138615906238555908203125</LatitudeDegrees>
              <LongitudeDegrees>-0.8378376066684722900390625</LongitudeDegrees>
            </Position>
            <AltitudeMeters>46.40000152587890625</AltitudeMeters>
            <DistanceMeters>NAN</DistanceMeters>
          </Trackpoint>
          <Trackpoint>
            <Time>2022-07-04T11:25:38.000Z</Time>
            <Position>
              <LatitudeDegrees>44.75389433093369007110595703125</LatitudeDegrees>
              <LongitudeDegrees>-0.83791673183441162109375</LongitudeDegrees>
            </Position>
            <AltitudeMeters>46.40000152587890625</AltitudeMeters>
            <DistanceMeters>NAN</DistanceMeters>
          </Trackpoint>
          <Trackpoint>
            <Time>2022-07-04T11:25:45.000Z</Time>
            <Position>
              <LatitudeDegrees>44.7536617331206798553466796875</LatitudeDegrees>
              <LongitudeDegrees>-0.83818562328815460205078125</LongitudeDegrees>
            </Position>
            <AltitudeMeters>46.59999847412109375</AltitudeMeters>
            <DistanceMeters>NAN</DistanceMeters>
          </Trackpoint>
          <Trackpoint>
            <Time>2022-07-04T11:25:53.000Z</Time>
            <Position>
              <LatitudeDegrees>44.7534122876822948455810546875</LatitudeDegrees>
              <LongitudeDegrees>-0.83848494105041027069091796875</LongitudeDegrees>
            </Position>
            <AltitudeMeters>46.799999237060546875</AltitudeMeters>
            <DistanceMeters>NAN</DistanceMeters>
          </Trackpoint>
          <Trackpoint>
            <Time>2022-07-04T11:25:56.000Z</Time>
            <Position>
              <LatitudeDegrees>44.7533103637397289276123046875</LatitudeDegrees>
              <LongitudeDegrees>-0.8385931514203548431396484375</LongitudeDegrees>
            </Position>
            <AltitudeMeters>46.799999237060546875</AltitudeMeters>
            <DistanceMeters>NAN</DistanceMeters>
          </Trackpoint>
          <Trackpoint>
            <Time>2022-07-04T11:26:03.000Z</Time>
            <Position>
              <LatitudeDegrees>44.7530959546566009521484375</LatitudeDegrees>
              <LongitudeDegrees>-0.838837735354900360107421875</LongitudeDegrees>
            </Position>
            <AltitudeMeters>46.799999237060546875</AltitudeMeters>
            <DistanceMeters>NAN</DistanceMeters>
          </Trackpoint>
          <Trackpoint>
            <Time>2022-07-04T11:26:11.000Z</Time>
            <Position>
              <LatitudeDegrees>44.7528486885130405426025390625</LatitudeDegrees>
              <LongitudeDegrees>-0.8391111530363559722900390625</LongitudeDegrees>
            </Position>
            <AltitudeMeters>47</AltitudeMeters>
            <DistanceMeters>NAN</DistanceMeters>
          </Trackpoint>
          <Trackpoint>
            <Time>2022-07-04T11:26:18.000Z</Time>
            <Position>
              <LatitudeDegrees>44.75263872183859348297119140625</LatitudeDegrees>
              <LongitudeDegrees>-0.83935372531414031982421875</LongitudeDegrees>
            </Position>
            <AltitudeMeters>47</AltitudeMeters>
            <DistanceMeters>NAN</DistanceMeters>
          </Trackpoint>
          <Trackpoint>
            <Time>2022-07-04T11:26:20.000Z</Time>
            <Position>
              <LatitudeDegrees>44.75258675403892993927001953125</LatitudeDegrees>
              <LongitudeDegrees>-0.8394236303865909576416015625</LongitudeDegrees>
            </Position>
            <AltitudeMeters>46.799999237060546875</AltitudeMeters>
            <DistanceMeters>NAN</DistanceMeters>
          </Trackpoint>
          <Trackpoint>
            <Time>2022-07-04T11:26:29.000Z</Time>
            <Position>
              <LatitudeDegrees>44.7523189522325992584228515625</LatitudeDegrees>
              <LongitudeDegrees>-0.839753039181232452392578125</LongitudeDegrees>
            </Position>
            <AltitudeMeters>46.799999237060546875</AltitudeMeters>
            <DistanceMeters>NAN</DistanceMeters>
          </Trackpoint>
          <Trackpoint>
            <Time>2022-07-04T11:26:37.000Z</Time>
            <Position>
              <LatitudeDegrees>44.7521010227501392364501953125</LatitudeDegrees>
              <LongitudeDegrees>-0.8400267921388149261474609375</LongitudeDegrees>
            </Position>
            <AltitudeMeters>47</AltitudeMeters>
            <DistanceMeters>NAN</DistanceMeters>
          </Trackpoint>
          <Trackpoint>
            <Time>2022-07-04T11:26:44.000Z</Time>
            <Position>
              <LatitudeDegrees>44.7518706880509853363037109375</LatitudeDegrees>
              <LongitudeDegrees>-0.8402759023010730743408203125</LongitudeDegrees>
            </Position>
            <AltitudeMeters>47</AltitudeMeters>
            <DistanceMeters>NAN</DistanceMeters>
          </Trackpoint>
          <Trackpoint>
            <Time>2022-07-04T11:26:46.000Z</Time>
            <Position>
              <LatitudeDegrees>44.7518019564449787139892578125</LatitudeDegrees>
              <LongitudeDegrees>-0.8403442986309528350830078125</LongitudeDegrees>
            </Position>
            <AltitudeMeters>47</AltitudeMeters>
            <DistanceMeters>NAN</DistanceMeters>
          </Trackpoint>
          <Trackpoint>
            <Time>2022-07-04T11:26:47.000Z</Time>
            <Position>
              <LatitudeDegrees>44.75177303887903690338134765625</LatitudeDegrees>
              <LongitudeDegrees>-0.84038109518587589263916015625</LongitudeDegrees>
            </Position>
            <AltitudeMeters>46.799999237060546875</AltitudeMeters>
            <DistanceMeters>NAN</DistanceMeters>
          </Trackpoint>
          <Trackpoint>
            <Time>2022-07-04T11:26:50.000Z</Time>
            <Position>
              <LatitudeDegrees>44.75167832337319850921630859375</LatitudeDegrees>
              <LongitudeDegrees>-0.84048486314713954925537109375</LongitudeDegrees>
            </Position>
            <AltitudeMeters>47</AltitudeMeters>
            <DistanceMeters>NAN</DistanceMeters>
          </Trackpoint>
          <Trackpoint>
            <Time>2022-07-04T11:26:53.000Z</Time>
            <Position>
              <LatitudeDegrees>44.751592241227626800537109375</LatitudeDegrees>
              <LongitudeDegrees>-0.8405895531177520751953125</LongitudeDegrees>
            </Position>
            <AltitudeMeters>47</AltitudeMeters>
            <DistanceMeters>NAN</DistanceMeters>
          </Trackpoint>
          <Trackpoint>
            <Time>2022-07-04T11:27:02.000Z</Time>
            <Position>
              <LatitudeDegrees>44.751334749162197113037109375</LatitudeDegrees>
              <LongitudeDegrees>-0.8408958278596401214599609375</LongitudeDegrees>
            </Position>
            <AltitudeMeters>46.799999237060546875</AltitudeMeters>
            <DistanceMeters>NAN</DistanceMeters>
          </Trackpoint>
          <Trackpoint>
            <Time>2022-07-04T11:27:08.000Z</Time>
            <Position>
              <LatitudeDegrees>44.7511417977511882781982421875</LatitudeDegrees>
              <LongitudeDegrees>-0.84111861884593963623046875</LongitudeDegrees>
            </Position>
            <AltitudeMeters>46.799999237060546875</AltitudeMeters>
            <DistanceMeters>NAN</DistanceMeters>
          </Trackpoint>
          <Trackpoint>
            <Time>2022-07-04T11:27:10.000Z</Time>
            <Position>
              <LatitudeDegrees>44.751063175499439239501953125</LatitudeDegrees>
              <LongitudeDegrees>-0.84119330160319805145263671875</LongitudeDegrees>
            </Position>
            <AltitudeMeters>46.799999237060546875</AltitudeMeters>
            <DistanceMeters>NAN</DistanceMeters>
          </Trackpoint>
          <Trackpoint>
            <Time>2022-07-04T11:27:12.000Z</Time>
            <Position>
              <LatitudeDegrees>44.75100207142531871795654296875</LatitudeDegrees>
              <LongitudeDegrees>-0.8412565849721431732177734375</LongitudeDegrees>
            </Position>
            <AltitudeMeters>46.799999237060546875</AltitudeMeters>
            <DistanceMeters>NAN</DistanceMeters>
          </Trackpoint>
          <Trackpoint>
            <Time>2022-07-04T11:27:15.000Z</Time>
            <Position>
              <LatitudeDegrees>44.7509097866714000701904296875</LatitudeDegrees>
              <LongitudeDegrees>-0.8413595147430896759033203125</LongitudeDegrees>
            </Position>
            <AltitudeMeters>46.799999237060546875</AltitudeMeters>
            <DistanceMeters>NAN</DistanceMeters>
          </Trackpoint>
          <Trackpoint>
            <Time>2022-07-04T11:27:17.000Z</Time>
            <Position>
              <LatitudeDegrees>44.7508484311401844024658203125</LatitudeDegrees>
              <LongitudeDegrees>-0.84143453277647495269775390625</LongitudeDegrees>
            </Position>
            <AltitudeMeters>46.799999237060546875</AltitudeMeters>
            <DistanceMeters>NAN</DistanceMeters>
          </Trackpoint>
          <Trackpoint>
            <Time>2022-07-04T11:27:29.000Z</Time>
            <Position>
              <LatitudeDegrees>44.75046864710748195648193359375</LatitudeDegrees>
              <LongitudeDegrees>-0.84184641949832439422607421875</LongitudeDegrees>
            </Position>
            <AltitudeMeters>46.799999237060546875</AltitudeMeters>
            <DistanceMeters>NAN</DistanceMeters>
          </Trackpoint>
          <Trackpoint>
            <Time>2022-07-04T11:27:38.000Z</Time>
            <Position>
              <LatitudeDegrees>44.75021182559430599212646484375</LatitudeDegrees>
              <LongitudeDegrees>-0.84216878749430179595947265625</LongitudeDegrees>
            </Position>
            <AltitudeMeters>46.799999237060546875</AltitudeMeters>
            <DistanceMeters>NAN</DistanceMeters>
          </Trackpoint>
          <Trackpoint>
            <Time>2022-07-04T11:27:48.000Z</Time>
            <Position>
              <LatitudeDegrees>44.74994276650249958038330078125</LatitudeDegrees>
              <LongitudeDegrees>-0.8424920774996280670166015625</LongitudeDegrees>
            </Position>
            <AltitudeMeters>46.799999237060546875</AltitudeMeters>
            <DistanceMeters>NAN</DistanceMeters>
          </Trackpoint>
          <Trackpoint>
            <Time>2022-07-04T11:27:58.000Z</Time>
            <Position>
              <LatitudeDegrees>44.7496404312551021575927734375</LatitudeDegrees>
              <LongitudeDegrees>-0.84283657371997833251953125</LongitudeDegrees>
            </Position>
            <AltitudeMeters>46.799999237060546875</AltitudeMeters>
            <DistanceMeters>NAN</DistanceMeters>
          </Trackpoint>
          <Trackpoint>
            <Time>2022-07-04T11:28:01.000Z</Time>
            <Position>
              <LatitudeDegrees>44.7495502419769763946533203125</LatitudeDegrees>
              <LongitudeDegrees>-0.84295031614601612091064453125</LongitudeDegrees>
            </Position>
            <AltitudeMeters>46.59999847412109375</AltitudeMeters>
            <DistanceMeters>NAN</DistanceMeters>
          </Trackpoint>
          <Trackpoint>
            <Time>2022-07-04T11:28:06.000Z</Time>
            <Position>
              <LatitudeDegrees>44.74937682040035724639892578125</LatitudeDegrees>
              <LongitudeDegrees>-0.84312952123582363128662109375</LongitudeDegrees>
            </Position>
            <AltitudeMeters>46.59999847412109375</AltitudeMeters>
            <DistanceMeters>NAN</DistanceMeters>
          </Trackpoint>
          <Trackpoint>
            <Time>2022-07-04T11:28:14.000Z</Time>
            <Position>
              <LatitudeDegrees>44.7491499222815036773681640625</LatitudeDegrees>
              <LongitudeDegrees>-0.84336454980075359344482421875</LongitudeDegrees>
            </Position>
            <AltitudeMeters>46.799999237060546875</AltitudeMeters>
            <DistanceMeters>NAN</DistanceMeters>
          </Trackpoint>
          <Trackpoint>
            <Time>2022-07-04T11:28:22.000Z</Time>
            <Position>
              <LatitudeDegrees>44.74898220039904117584228515625</LatitudeDegrees>
              <LongitudeDegrees>-0.8435418270528316497802734375</LongitudeDegrees>
            </Position>
            <AltitudeMeters>46.799999237060546875</AltitudeMeters>
            <DistanceMeters>NAN</DistanceMeters>
          </Trackpoint>
          <Trackpoint>
            <Time>2022-07-04T11:28:27.000Z</Time>
            <Position>
              <LatitudeDegrees>44.7489561326801776885986328125</LatitudeDegrees>
              <LongitudeDegrees>-0.8435703255236148834228515625</LongitudeDegrees>
            </Position>
            <AltitudeMeters>46.799999237060546875</AltitudeMeters>
            <DistanceMeters>NAN</DistanceMeters>
          </Trackpoint>
          <Trackpoint>
            <Time>2022-07-04T11:29:07.000Z</Time>
            <Position>
              <LatitudeDegrees>44.7488676197826862335205078125</LatitudeDegrees>
              <LongitudeDegrees>-0.8434915356338024139404296875</LongitudeDegrees>
            </Position>
            <AltitudeMeters>46.40000152587890625</AltitudeMeters>
            <DistanceMeters>NAN</DistanceMeters>
          </Trackpoint>
          <Trackpoint>
            <Time>2022-07-04T11:29:08.000Z</Time>
            <Position>
              <LatitudeDegrees>44.74884641356766223907470703125</LatitudeDegrees>
              <LongitudeDegrees>-0.8434516377747058868408203125</LongitudeDegrees>
            </Position>
            <AltitudeMeters>46.40000152587890625</AltitudeMeters>
            <DistanceMeters>NAN</DistanceMeters>
          </Trackpoint>
          <Trackpoint>
            <Time>2022-07-04T11:29:09.000Z</Time>
            <Position>
              <LatitudeDegrees>44.74882981739938259124755859375</LatitudeDegrees>
              <LongitudeDegrees>-0.84341098554432392120361328125</LongitudeDegrees>
            </Position>
            <AltitudeMeters>46.200000762939453125</AltitudeMeters>
            <DistanceMeters>NAN</DistanceMeters>
          </Trackpoint>
          <Trackpoint>
            <Time>2022-07-04T11:29:13.000Z</Time>
            <Position>
              <LatitudeDegrees>44.7487435676157474517822265625</LatitudeDegrees>
              <LongitudeDegrees>-0.8432395756244659423828125</LongitudeDegrees>
            </Position>
            <AltitudeMeters>46.200000762939453125</AltitudeMeters>
            <DistanceMeters>NAN</DistanceMeters>
          </Trackpoint>
          <Trackpoint>
            <Time>2022-07-04T11:29:16.000Z</Time>
            <Position>
              <LatitudeDegrees>44.748688749969005584716796875</LatitudeDegrees>
              <LongitudeDegrees>-0.84309498779475688934326171875</LongitudeDegrees>
            </Position>
            <AltitudeMeters>46.200000762939453125</AltitudeMeters>
            <DistanceMeters>NAN</DistanceMeters>
          </Trackpoint>
          <Trackpoint>
            <Time>2022-07-04T11:29:23.000Z</Time>
            <Position>
              <LatitudeDegrees>44.74854449741542339324951171875</LatitudeDegrees>
              <LongitudeDegrees>-0.84274127148091793060302734375</LongitudeDegrees>
            </Position>
            <AltitudeMeters>46.200000762939453125</AltitudeMeters>
            <DistanceMeters>NAN</DistanceMeters>
          </Trackpoint>
          <Trackpoint>
            <Time>2022-07-04T11:29:31.000Z</Time>
            <Position>
              <LatitudeDegrees>44.7484052740037441253662109375</LatitudeDegrees>
              <LongitudeDegrees>-0.84236039780080318450927734375</LongitudeDegrees>
            </Position>
            <AltitudeMeters>46.200000762939453125</AltitudeMeters>
            <DistanceMeters>NAN</DistanceMeters>
          </Trackpoint>
          <Trackpoint>
            <Time>2022-07-04T11:29:33.000Z</Time>
            <Position>
              <LatitudeDegrees>44.74836361594498157501220703125</LatitudeDegrees>
              <LongitudeDegrees>-0.84226165898144245147705078125</LongitudeDegrees>
            </Position>
            <AltitudeMeters>46.200000762939453125</AltitudeMeters>
            <DistanceMeters>NAN</DistanceMeters>
          </Trackpoint>
          <Trackpoint>
            <Time>2022-07-04T11:29:39.000Z</Time>
            <Position>
              <LatitudeDegrees>44.74824626930058002471923828125</LatitudeDegrees>
              <LongitudeDegrees>-0.84195437841117382049560546875</LongitudeDegrees>
            </Position>
            <AltitudeMeters>46.200000762939453125</AltitudeMeters>
            <DistanceMeters>NAN</DistanceMeters>
          </Trackpoint>
          <Trackpoint>
            <Time>2022-07-04T11:29:45.000Z</Time>
            <Position>
              <LatitudeDegrees>44.7481249831616878509521484375</LatitudeDegrees>
              <LongitudeDegrees>-0.84167693741619586944580078125</LongitudeDegrees>
            </Position>
            <AltitudeMeters>46.200000762939453125</AltitudeMeters>
            <DistanceMeters>NAN</DistanceMeters>
          </Trackpoint>
          <Trackpoint>
            <Time>2022-07-04T11:29:49.000Z</Time>
            <Position>
              <LatitudeDegrees>44.74803923629224300384521484375</LatitudeDegrees>
              <LongitudeDegrees>-0.84147803485393524169921875</LongitudeDegrees>
            </Position>
            <AltitudeMeters>45.799999237060546875</AltitudeMeters>
            <DistanceMeters>NAN</DistanceMeters>
          </Trackpoint>
          <Trackpoint>
            <Time>2022-07-04T11:29:54.000Z</Time>
            <Position>
              <LatitudeDegrees>44.747949801385402679443359375</LatitudeDegrees>
              <LongitudeDegrees>-0.8412445150315761566162109375</LongitudeDegrees>
            </Position>
            <AltitudeMeters>46.200000762939453125</AltitudeMeters>
            <DistanceMeters>NAN</DistanceMeters>
          </Trackpoint>
          <Trackpoint>
            <Time>2022-07-04T11:30:03.000Z</Time>
            <Position>
              <LatitudeDegrees>44.7478155232965946197509765625</LatitudeDegrees>
              <LongitudeDegrees>-0.840848721563816070556640625</LongitudeDegrees>
            </Position>
            <AltitudeMeters>46.59999847412109375</AltitudeMeters>
            <DistanceMeters>NAN</DistanceMeters>
          </Trackpoint>
          <Trackpoint>
            <Time>2022-07-04T11:30:08.000Z</Time>
            <Position>
              <LatitudeDegrees>44.7477360628545284271240234375</LatitudeDegrees>
              <LongitudeDegrees>-0.84063841961324214935302734375</LongitudeDegrees>
            </Position>
            <AltitudeMeters>46.59999847412109375</AltitudeMeters>
            <DistanceMeters>NAN</DistanceMeters>
          </Trackpoint>
          <Trackpoint>
            <Time>2022-07-04T11:30:13.000Z</Time>
            <Position>
              <LatitudeDegrees>44.7476576082408428192138671875</LatitudeDegrees>
              <LongitudeDegrees>-0.84039710462093353271484375</LongitudeDegrees>
            </Position>
            <AltitudeMeters>46.59999847412109375</AltitudeMeters>
            <DistanceMeters>NAN</DistanceMeters>
          </Trackpoint>
          <Trackpoint>
            <Time>2022-07-04T11:30:19.000Z</Time>
            <Position>
              <LatitudeDegrees>44.7475308738648891448974609375</LatitudeDegrees>
              <LongitudeDegrees>-0.840095020830631256103515625</LongitudeDegrees>
            </Position>
            <AltitudeMeters>46.799999237060546875</AltitudeMeters>
            <DistanceMeters>NAN</DistanceMeters>
          </Trackpoint>
          <Trackpoint>
            <Time>2022-07-04T11:30:22.000Z</Time>
            <Position>
              <LatitudeDegrees>44.7474738769233226776123046875</LatitudeDegrees>
              <LongitudeDegrees>-0.83993534557521343231201171875</LongitudeDegrees>
            </Position>
            <AltitudeMeters>46.799999237060546875</AltitudeMeters>
            <DistanceMeters>NAN</DistanceMeters>
          </Trackpoint>
          <Trackpoint>
            <Time>2022-07-04T11:30:27.000Z</Time>
            <Position>
              <LatitudeDegrees>44.74736851640045642852783203125</LatitudeDegrees>
              <LongitudeDegrees>-0.8396519534289836883544921875</LongitudeDegrees>
            </Position>
            <AltitudeMeters>47</AltitudeMeters>
            <DistanceMeters>NAN</DistanceMeters>
          </Trackpoint>
          <Trackpoint>
            <Time>2022-07-04T11:30:31.000Z</Time>
            <Position>
              <LatitudeDegrees>44.7472864575684070587158203125</LatitudeDegrees>
              <LongitudeDegrees>-0.83942119963467121124267578125</LongitudeDegrees>
            </Position>
            <AltitudeMeters>47</AltitudeMeters>
            <DistanceMeters>NAN</DistanceMeters>
          </Trackpoint>
          <Trackpoint>
            <Time>2022-07-04T11:30:43.000Z</Time>
            <Position>
              <LatitudeDegrees>44.7470420412719249725341796875</LatitudeDegrees>
              <LongitudeDegrees>-0.83874729461967945098876953125</LongitudeDegrees>
            </Position>
            <AltitudeMeters>47</AltitudeMeters>
            <DistanceMeters>NAN</DistanceMeters>
          </Trackpoint>
          <Trackpoint>
            <Time>2022-07-04T11:30:54.000Z</Time>
            <Position>
              <LatitudeDegrees>44.74679351784288883209228515625</LatitudeDegrees>
              <LongitudeDegrees>-0.838107168674468994140625</LongitudeDegrees>
            </Position>
            <AltitudeMeters>47</AltitudeMeters>
            <DistanceMeters>NAN</DistanceMeters>
          </Trackpoint>
          <Trackpoint>
            <Time>2022-07-04T11:30:56.000Z</Time>
            <Position>
              <LatitudeDegrees>44.746772982180118560791015625</LatitudeDegrees>
              <LongitudeDegrees>-0.83804992027580738067626953125</LongitudeDegrees>
            </Position>
            <AltitudeMeters>47</AltitudeMeters>
            <DistanceMeters>NAN</DistanceMeters>
          </Trackpoint>
          <Trackpoint>
            <Time>2022-07-04T11:30:58.000Z</Time>
            <Position>
              <LatitudeDegrees>44.7467034123837947845458984375</LatitudeDegrees>
              <LongitudeDegrees>-0.83787540905177593231201171875</LongitudeDegrees>
            </Position>
            <AltitudeMeters>47.200000762939453125</AltitudeMeters>
            <DistanceMeters>NAN</DistanceMeters>
          </Trackpoint>
          <Trackpoint>
            <Time>2022-07-04T11:31:05.000Z</Time>
            <Position>
              <LatitudeDegrees>44.74655547179281711578369140625</LatitudeDegrees>
              <LongitudeDegrees>-0.8374636061489582061767578125</LongitudeDegrees>
            </Position>
            <AltitudeMeters>47.200000762939453125</AltitudeMeters>
            <DistanceMeters>NAN</DistanceMeters>
          </Trackpoint>
          <Trackpoint>
            <Time>2022-07-04T11:31:16.000Z</Time>
            <Position>
              <LatitudeDegrees>44.74631809629499912261962890625</LatitudeDegrees>
              <LongitudeDegrees>-0.8368423394858837127685546875</LongitudeDegrees>
            </Position>
            <AltitudeMeters>47.40000152587890625</AltitudeMeters>
            <DistanceMeters>NAN</DistanceMeters>
          </Trackpoint>
          <Trackpoint>
            <Time>2022-07-04T11:31:21.000Z</Time>
            <Position>
              <LatitudeDegrees>44.74621131084859371185302734375</LatitudeDegrees>
              <LongitudeDegrees>-0.8365506492555141448974609375</LongitudeDegrees>
            </Position>
            <AltitudeMeters>47.200000762939453125</AltitudeMeters>
            <DistanceMeters>NAN</DistanceMeters>
          </Trackpoint>
          <Trackpoint>
            <Time>2022-07-04T11:31:26.000Z</Time>
            <Position>
              <LatitudeDegrees>44.74610754288733005523681640625</LatitudeDegrees>
              <LongitudeDegrees>-0.8362432010471820831298828125</LongitudeDegrees>
            </Position>
            <AltitudeMeters>47</AltitudeMeters>
            <DistanceMeters>NAN</DistanceMeters>
          </Trackpoint>
          <Trackpoint>
            <Time>2022-07-04T11:31:34.000Z</Time>
            <Position>
              <LatitudeDegrees>44.74595599807798862457275390625</LatitudeDegrees>
              <LongitudeDegrees>-0.83581262268126010894775390625</LongitudeDegrees>
            </Position>
            <AltitudeMeters>47</AltitudeMeters>
            <DistanceMeters>NAN</DistanceMeters>
          </Trackpoint>
          <Trackpoint>
            <Time>2022-07-04T11:31:39.000Z</Time>
            <Position>
              <LatitudeDegrees>44.74586069583892822265625</LatitudeDegrees>
              <LongitudeDegrees>-0.8355416357517242431640625</LongitudeDegrees>
            </Position>
            <AltitudeMeters>47.200000762939453125</AltitudeMeters>
            <DistanceMeters>NAN</DistanceMeters>
          </Trackpoint>
          <Trackpoint>
            <Time>2022-07-04T11:31:44.000Z</Time>
            <Position>
              <LatitudeDegrees>44.74575533531606197357177734375</LatitudeDegrees>
              <LongitudeDegrees>-0.8352519571781158447265625</LongitudeDegrees>
            </Position>
            <AltitudeMeters>47.40000152587890625</AltitudeMeters>
            <DistanceMeters>NAN</DistanceMeters>
          </Trackpoint>
          <Trackpoint>
            <Time>2022-07-04T11:31:53.000Z</Time>
            <Position>
              <LatitudeDegrees>44.74554344080388545989990234375</LatitudeDegrees>
              <LongitudeDegrees>-0.8347026072442531585693359375</LongitudeDegrees>
            </Position>
            <AltitudeMeters>47.59999847412109375</AltitudeMeters>
            <DistanceMeters>NAN</DistanceMeters>
          </Trackpoint>
          <Trackpoint>
            <Time>2022-07-04T11:31:59.000Z</Time>
            <Position>
              <LatitudeDegrees>44.7453824244439601898193359375</LatitudeDegrees>
              <LongitudeDegrees>-0.8343026228249073028564453125</LongitudeDegrees>
            </Position>
            <AltitudeMeters>47.59999847412109375</AltitudeMeters>
            <DistanceMeters>NAN</DistanceMeters>
          </Trackpoint>
          <Trackpoint>
            <Time>2022-07-04T11:32:00.000Z</Time>
            <Position>
              <LatitudeDegrees>44.74535652436316013336181640625</LatitudeDegrees>
              <LongitudeDegrees>-0.83423883654177188873291015625</LongitudeDegrees>
            </Position>
            <AltitudeMeters>47.40000152587890625</AltitudeMeters>
            <DistanceMeters>NAN</DistanceMeters>
          </Trackpoint>
          <Trackpoint>
            <Time>2022-07-04T11:32:06.000Z</Time>
            <Position>
              <LatitudeDegrees>44.74519827403128147125244140625</LatitudeDegrees>
              <LongitudeDegrees>-0.83382912911474704742431640625</LongitudeDegrees>
            </Position>
            <AltitudeMeters>47.59999847412109375</AltitudeMeters>
            <DistanceMeters>NAN</DistanceMeters>
          </Trackpoint>
          <Trackpoint>
            <Time>2022-07-04T11:32:09.000Z</Time>
            <Position>
              <LatitudeDegrees>44.74512434564530849456787109375</LatitudeDegrees>
              <LongitudeDegrees>-0.83364036865532398223876953125</LongitudeDegrees>
            </Position>
            <AltitudeMeters>47.799999237060546875</AltitudeMeters>
            <DistanceMeters>NAN</DistanceMeters>
          </Trackpoint>
          <Trackpoint>
            <Time>2022-07-04T11:32:11.000Z</Time>
            <Position>
              <LatitudeDegrees>44.745081178843975067138671875</LatitudeDegrees>
              <LongitudeDegrees>-0.83351665176451206207275390625</LongitudeDegrees>
            </Position>
            <AltitudeMeters>47.799999237060546875</AltitudeMeters>
            <DistanceMeters>NAN</DistanceMeters>
          </Trackpoint>
          <Trackpoint>
            <Time>2022-07-04T11:32:16.000Z</Time>
            <Position>
              <LatitudeDegrees>44.74496148526668548583984375</LatitudeDegrees>
              <LongitudeDegrees>-0.833190344274044036865234375</LongitudeDegrees>
            </Position>
            <AltitudeMeters>47.799999237060546875</AltitudeMeters>
            <DistanceMeters>NAN</DistanceMeters>
          </Trackpoint>
          <Trackpoint>
            <Time>2022-07-04T11:32:26.000Z</Time>
            <Position>
              <LatitudeDegrees>44.74471380002796649932861328125</LatitudeDegrees>
              <LongitudeDegrees>-0.83254359662532806396484375</LongitudeDegrees>
            </Position>
            <AltitudeMeters>48</AltitudeMeters>
            <DistanceMeters>NAN</DistanceMeters>
          </Trackpoint>
          <Trackpoint>
            <Time>2022-07-04T11:32:31.000Z</Time>
            <Position>
              <LatitudeDegrees>44.74458488635718822479248046875</LatitudeDegrees>
              <LongitudeDegrees>-0.8322141878306865692138671875</LongitudeDegrees>
            </Position>
            <AltitudeMeters>48</AltitudeMeters>
            <DistanceMeters>NAN</DistanceMeters>
          </Trackpoint>
          <Trackpoint>
            <Time>2022-07-04T11:32:34.000Z</Time>
            <Position>
              <LatitudeDegrees>44.744519926607608795166015625</LatitudeDegrees>
              <LongitudeDegrees>-0.83202048204839229583740234375</LongitudeDegrees>
            </Position>
            <AltitudeMeters>48</AltitudeMeters>
            <DistanceMeters>NAN</DistanceMeters>
          </Trackpoint>
          <Trackpoint>
            <Time>2022-07-04T11:32:41.000Z</Time>
            <Position>
              <LatitudeDegrees>44.7443641908466815948486328125</LatitudeDegrees>
              <LongitudeDegrees>-0.83158730529248714447021484375</LongitudeDegrees>
            </Position>
            <AltitudeMeters>48</AltitudeMeters>
            <DistanceMeters>NAN</DistanceMeters>
          </Trackpoint>
          <Trackpoint>
            <Time>2022-07-04T11:32:47.000Z</Time>
            <Position>
              <LatitudeDegrees>44.7442290745675563812255859375</LatitudeDegrees>
              <LongitudeDegrees>-0.831210203468799591064453125</LongitudeDegrees>
            </Position>
            <AltitudeMeters>48</AltitudeMeters>
            <DistanceMeters>NAN</DistanceMeters>
          </Trackpoint>
          <Trackpoint>
            <Time>2022-07-04T11:32:50.000Z</Time>
            <Position>
              <LatitudeDegrees>44.74418020807206630706787109375</LatitudeDegrees>
              <LongitudeDegrees>-0.83107776939868927001953125</LongitudeDegrees>
            </Position>
            <AltitudeMeters>48</AltitudeMeters>
            <DistanceMeters>NAN</DistanceMeters>
          </Trackpoint>
          <Trackpoint>
            <Time>2022-07-04T11:32:57.000Z</Time>
            <Position>
              <LatitudeDegrees>44.74398205988109111785888671875</LatitudeDegrees>
              <LongitudeDegrees>-0.83057083189487457275390625</LongitudeDegrees>
            </Position>
            <AltitudeMeters>47.799999237060546875</AltitudeMeters>
            <DistanceMeters>NAN</DistanceMeters>
          </Trackpoint>
          <Trackpoint>
            <Time>2022-07-04T11:32:59.000Z</Time>
            <Position>
              <LatitudeDegrees>44.7439362108707427978515625</LatitudeDegrees>
              <LongitudeDegrees>-0.83044334314763545989990234375</LongitudeDegrees>
            </Position>
            <AltitudeMeters>47.799999237060546875</AltitudeMeters>
            <DistanceMeters>NAN</DistanceMeters>
          </Trackpoint>
          <Trackpoint>
            <Time>2022-07-04T11:33:05.000Z</Time>
            <Position>
              <LatitudeDegrees>44.74379564635455608367919921875</LatitudeDegrees>
              <LongitudeDegrees>-0.83007202483713626861572265625</LongitudeDegrees>
            </Position>
            <AltitudeMeters>48</AltitudeMeters>
            <DistanceMeters>NAN</DistanceMeters>
          </Trackpoint>
          <Trackpoint>
            <Time>2022-07-04T11:33:06.000Z</Time>
            <Position>
              <LatitudeDegrees>44.74377050064504146575927734375</LatitudeDegrees>
              <LongitudeDegrees>-0.8300110884010791778564453125</LongitudeDegrees>
            </Position>
            <AltitudeMeters>48</AltitudeMeters>
            <DistanceMeters>NAN</DistanceMeters>
          </Trackpoint>
          <Trackpoint>
            <Time>2022-07-04T11:33:08.000Z</Time>
            <Position>
              <LatitudeDegrees>44.7437281720340251922607421875</LatitudeDegrees>
              <LongitudeDegrees>-0.82989349029958248138427734375</LongitudeDegrees>
            </Position>
            <AltitudeMeters>48</AltitudeMeters>
            <DistanceMeters>NAN</DistanceMeters>
          </Trackpoint>
          <Trackpoint>
            <Time>2022-07-04T11:33:13.000Z</Time>
            <Position>
              <LatitudeDegrees>44.7436265833675861358642578125</LatitudeDegrees>
              <LongitudeDegrees>-0.8295817673206329345703125</LongitudeDegrees>
            </Position>
            <AltitudeMeters>48.200000762939453125</AltitudeMeters>
            <DistanceMeters>NAN</DistanceMeters>
          </Trackpoint>
          <Trackpoint>
            <Time>2022-07-04T11:33:15.000Z</Time>
            <Position>
              <LatitudeDegrees>44.7435766272246837615966796875</LatitudeDegrees>
              <LongitudeDegrees>-0.829462744295597076416015625</LongitudeDegrees>
            </Position>
            <AltitudeMeters>48.200000762939453125</AltitudeMeters>
            <DistanceMeters>NAN</DistanceMeters>
          </Trackpoint>
          <Trackpoint>
            <Time>2022-07-04T11:33:21.000Z</Time>
            <Position>
              <LatitudeDegrees>44.7434304468333721160888671875</LatitudeDegrees>
              <LongitudeDegrees>-0.82908488810062408447265625</LongitudeDegrees>
            </Position>
            <AltitudeMeters>48</AltitudeMeters>
            <DistanceMeters>NAN</DistanceMeters>
          </Trackpoint>
          <Trackpoint>
            <Time>2022-07-04T11:33:23.000Z</Time>
            <Position>
              <LatitudeDegrees>44.74338375963270664215087890625</LatitudeDegrees>
              <LongitudeDegrees>-0.82894968800246715545654296875</LongitudeDegrees>
            </Position>
            <AltitudeMeters>48</AltitudeMeters>
            <DistanceMeters>NAN</DistanceMeters>
          </Trackpoint>
          <Trackpoint>
            <Time>2022-07-04T11:33:27.000Z</Time>
            <Position>
              <LatitudeDegrees>44.74330882541835308074951171875</LatitudeDegrees>
              <LongitudeDegrees>-0.82872874103486537933349609375</LongitudeDegrees>
            </Position>
            <AltitudeMeters>48</AltitudeMeters>
            <DistanceMeters>NAN</DistanceMeters>
          </Trackpoint>
          <Trackpoint>
            <Time>2022-07-04T11:33:29.000Z</Time>
            <Position>
              <LatitudeDegrees>44.7432678379118442535400390625</LatitudeDegrees>
              <LongitudeDegrees>-0.82860502414405345916748046875</LongitudeDegrees>
            </Position>
            <AltitudeMeters>48.200000762939453125</AltitudeMeters>
            <DistanceMeters>NAN</DistanceMeters>
          </Trackpoint>
          <Trackpoint>
            <Time>2022-07-04T11:33:30.000Z</Time>
            <Position>
              <LatitudeDegrees>44.74324411712586879730224609375</LatitudeDegrees>
              <LongitudeDegrees>-0.82854199223220348358154296875</LongitudeDegrees>
            </Position>
            <AltitudeMeters>48.200000762939453125</AltitudeMeters>
            <DistanceMeters>NAN</DistanceMeters>
          </Trackpoint>
          <Trackpoint>
            <Time>2022-07-04T11:33:31.000Z</Time>
            <Position>
              <LatitudeDegrees>44.74321612156927585601806640625</LatitudeDegrees>
              <LongitudeDegrees>-0.82846823148429393768310546875</LongitudeDegrees>
            </Position>
            <AltitudeMeters>48.200000762939453125</AltitudeMeters>
            <DistanceMeters>NAN</DistanceMeters>
          </Trackpoint>
          <Trackpoint>
            <Time>2022-07-04T11:33:32.000Z</Time>
            <Position>
              <LatitudeDegrees>44.74319994449615478515625</LatitudeDegrees>
              <LongitudeDegrees>-0.8284208737313747406005859375</LongitudeDegrees>
            </Position>
            <AltitudeMeters>48.40000152587890625</AltitudeMeters>
            <DistanceMeters>NAN</DistanceMeters>
          </Trackpoint>
          <Trackpoint>
            <Time>2022-07-04T11:33:33.000Z</Time>
            <Position>
              <LatitudeDegrees>44.74317722953855991363525390625</LatitudeDegrees>
              <LongitudeDegrees>-0.82835742272436618804931640625</LongitudeDegrees>
            </Position>
            <AltitudeMeters>48.40000152587890625</AltitudeMeters>
            <DistanceMeters>NAN</DistanceMeters>
          </Trackpoint>
          <Trackpoint>
            <Time>2022-07-04T11:33:35.000Z</Time>
            <Position>
              <LatitudeDegrees>44.7431300394237041473388671875</LatitudeDegrees>
              <LongitudeDegrees>-0.8282307721674442291259765625</LongitudeDegrees>
            </Position>
            <AltitudeMeters>48.40000152587890625</AltitudeMeters>
            <DistanceMeters>NAN</DistanceMeters>
          </Trackpoint>
          <Trackpoint>
            <Time>2022-07-04T11:33:39.000Z</Time>
            <Position>
              <LatitudeDegrees>44.7430391795933246612548828125</LatitudeDegrees>
              <LongitudeDegrees>-0.82798828370869159698486328125</LongitudeDegrees>
            </Position>
            <AltitudeMeters>48.40000152587890625</AltitudeMeters>
            <DistanceMeters>NAN</DistanceMeters>
          </Trackpoint>
          <Trackpoint>
            <Time>2022-07-04T11:33:46.000Z</Time>
            <Position>
              <LatitudeDegrees>44.7428785823285579681396484375</LatitudeDegrees>
              <LongitudeDegrees>-0.827544294297695159912109375</LongitudeDegrees>
            </Position>
            <AltitudeMeters>48.200000762939453125</AltitudeMeters>
            <DistanceMeters>NAN</DistanceMeters>
          </Trackpoint>
          <Trackpoint>
            <Time>2022-07-04T11:33:47.000Z</Time>
            <Position>
              <LatitudeDegrees>44.74285989068448543548583984375</LatitudeDegrees>
              <LongitudeDegrees>-0.82749224267899990081787109375</LongitudeDegrees>
            </Position>
            <AltitudeMeters>48.200000762939453125</AltitudeMeters>
            <DistanceMeters>NAN</DistanceMeters>
          </Trackpoint>
          <Trackpoint>
            <Time>2022-07-04T11:33:56.000Z</Time>
            <Position>
              <LatitudeDegrees>44.74265553988516330718994140625</LatitudeDegrees>
              <LongitudeDegrees>-0.8269282244145870208740234375</LongitudeDegrees>
            </Position>
            <AltitudeMeters>48.200000762939453125</AltitudeMeters>
            <DistanceMeters>NAN</DistanceMeters>
          </Trackpoint>
          <Trackpoint>
            <Time>2022-07-04T11:33:59.000Z</Time>
            <Position>
              <LatitudeDegrees>44.7425870597362518310546875</LatitudeDegrees>
              <LongitudeDegrees>-0.826756060123443603515625</LongitudeDegrees>
            </Position>
            <AltitudeMeters>48.200000762939453125</AltitudeMeters>
            <DistanceMeters>NAN</DistanceMeters>
          </Trackpoint>
          <Trackpoint>
            <Time>2022-07-04T11:34:02.000Z</Time>
            <Position>
              <LatitudeDegrees>44.74250785075128078460693359375</LatitudeDegrees>
              <LongitudeDegrees>-0.82655698992311954498291015625</LongitudeDegrees>
            </Position>
            <AltitudeMeters>48.40000152587890625</AltitudeMeters>
            <DistanceMeters>NAN</DistanceMeters>
          </Trackpoint>
          <Trackpoint>
            <Time>2022-07-04T11:34:07.000Z</Time>
            <Position>
              <LatitudeDegrees>44.7423993051052093505859375</LatitudeDegrees>
              <LongitudeDegrees>-0.82625205628573894500732421875</LongitudeDegrees>
            </Position>
            <AltitudeMeters>48.40000152587890625</AltitudeMeters>
            <DistanceMeters>NAN</DistanceMeters>
          </Trackpoint>
          <Trackpoint>
            <Time>2022-07-04T11:34:15.000Z</Time>
            <Position>
              <LatitudeDegrees>44.74221867509186267852783203125</LatitudeDegrees>
              <LongitudeDegrees>-0.82577370107173919677734375</LongitudeDegrees>
            </Position>
            <AltitudeMeters>48.40000152587890625</AltitudeMeters>
            <DistanceMeters>NAN</DistanceMeters>
          </Trackpoint>
          <Trackpoint>
            <Time>2022-07-04T11:34:16.000Z</Time>
            <Position>
              <LatitudeDegrees>44.74219302646815776824951171875</LatitudeDegrees>
              <LongitudeDegrees>-0.825699269771575927734375</LongitudeDegrees>
            </Position>
            <AltitudeMeters>48.40000152587890625</AltitudeMeters>
            <DistanceMeters>NAN</DistanceMeters>
          </Trackpoint>
          <Trackpoint>
            <Time>2022-07-04T11:34:23.000Z</Time>
            <Position>
              <LatitudeDegrees>44.7420372068881988525390625</LatitudeDegrees>
              <LongitudeDegrees>-0.8252850361168384552001953125</LongitudeDegrees>
            </Position>
            <AltitudeMeters>48.59999847412109375</AltitudeMeters>
            <DistanceMeters>NAN</DistanceMeters>
          </Trackpoint>
          <Trackpoint>
            <Time>2022-07-04T11:34:26.000Z</Time>
            <Position>
              <LatitudeDegrees>44.7419807128608226776123046875</LatitudeDegrees>
              <LongitudeDegrees>-0.82512452267110347747802734375</LongitudeDegrees>
            </Position>
            <AltitudeMeters>48.59999847412109375</AltitudeMeters>
            <DistanceMeters>NAN</DistanceMeters>
          </Trackpoint>
          <Trackpoint>
            <Time>2022-07-04T11:34:35.000Z</Time>
            <Position>
              <LatitudeDegrees>44.74176437593996524810791015625</LatitudeDegrees>
              <LongitudeDegrees>-0.824594199657440185546875</LongitudeDegrees>
            </Position>
            <AltitudeMeters>48.59999847412109375</AltitudeMeters>
            <DistanceMeters>NAN</DistanceMeters>
          </Trackpoint>
          <Trackpoint>
            <Time>2022-07-04T11:34:44.000Z</Time>
            <Position>
              <LatitudeDegrees>44.74155952222645282745361328125</LatitudeDegrees>
              <LongitudeDegrees>-0.8240706659853458404541015625</LongitudeDegrees>
            </Position>
            <AltitudeMeters>48.59999847412109375</AltitudeMeters>
            <DistanceMeters>NAN</DistanceMeters>
          </Trackpoint>
          <Trackpoint>
            <Time>2022-07-04T11:34:47.000Z</Time>
            <Position>
              <LatitudeDegrees>44.741503112018108367919921875</LatitudeDegrees>
              <LongitudeDegrees>-0.8238949812948703765869140625</LongitudeDegrees>
            </Position>
            <AltitudeMeters>48.59999847412109375</AltitudeMeters>
            <DistanceMeters>NAN</DistanceMeters>
          </Trackpoint>
          <Trackpoint>
            <Time>2022-07-04T11:34:51.000Z</Time>
            <Position>
              <LatitudeDegrees>44.74141602404415607452392578125</LatitudeDegrees>
              <LongitudeDegrees>-0.82367596216499805450439453125</LongitudeDegrees>
            </Position>
            <AltitudeMeters>48.59999847412109375</AltitudeMeters>
            <DistanceMeters>NAN</DistanceMeters>
          </Trackpoint>
          <Trackpoint>
            <Time>2022-07-04T11:35:00.000Z</Time>
            <Position>
              <LatitudeDegrees>44.7412115894258022308349609375</LatitudeDegrees>
              <LongitudeDegrees>-0.82313767634332180023193359375</LongitudeDegrees>
            </Position>
            <AltitudeMeters>48.59999847412109375</AltitudeMeters>
            <DistanceMeters>NAN</DistanceMeters>
          </Trackpoint>
          <Trackpoint>
            <Time>2022-07-04T11:35:04.000Z</Time>
            <Position>
              <LatitudeDegrees>44.74113372154533863067626953125</LatitudeDegrees>
              <LongitudeDegrees>-0.82292024977505207061767578125</LongitudeDegrees>
            </Position>
            <AltitudeMeters>48.799999237060546875</AltitudeMeters>
            <DistanceMeters>NAN</DistanceMeters>
          </Trackpoint>
          <Trackpoint>
            <Time>2022-07-04T11:35:05.000Z</Time>
            <Position>
              <LatitudeDegrees>44.74111109040677547454833984375</LatitudeDegrees>
              <LongitudeDegrees>-0.82285369746387004852294921875</LongitudeDegrees>
            </Position>
            <AltitudeMeters>48.799999237060546875</AltitudeMeters>
            <DistanceMeters>NAN</DistanceMeters>
          </Trackpoint>
          <Trackpoint>
            <Time>2022-07-04T11:35:07.000Z</Time>
            <Position>
              <LatitudeDegrees>44.74108745343983173370361328125</LatitudeDegrees>
              <LongitudeDegrees>-0.8227563835680484771728515625</LongitudeDegrees>
            </Position>
            <AltitudeMeters>48.799999237060546875</AltitudeMeters>
            <DistanceMeters>NAN</DistanceMeters>
          </Trackpoint>
          <Trackpoint>
            <Time>2022-07-04T11:35:16.000Z</Time>
            <Position>
              <LatitudeDegrees>44.74089391529560089111328125</LatitudeDegrees>
              <LongitudeDegrees>-0.82225807942450046539306640625</LongitudeDegrees>
            </Position>
            <AltitudeMeters>48.799999237060546875</AltitudeMeters>
            <DistanceMeters>NAN</DistanceMeters>
          </Trackpoint>
          <Trackpoint>
            <Time>2022-07-04T11:35:25.000Z</Time>
            <Position>
              <LatitudeDegrees>44.7407066635787487030029296875</LatitudeDegrees>
              <LongitudeDegrees>-0.82174745388329029083251953125</LongitudeDegrees>
            </Position>
            <AltitudeMeters>48.59999847412109375</AltitudeMeters>
            <DistanceMeters>NAN</DistanceMeters>
          </Trackpoint>
          <Trackpoint>
            <Time>2022-07-04T11:35:34.000Z</Time>
            <Position>
              <LatitudeDegrees>44.74052620120346546173095703125</LatitudeDegrees>
              <LongitudeDegrees>-0.82123515196144580841064453125</LongitudeDegrees>
            </Position>
            <AltitudeMeters>48.59999847412109375</AltitudeMeters>
            <DistanceMeters>NAN</DistanceMeters>
          </Trackpoint>
          <Trackpoint>
            <Time>2022-07-04T11:35:42.000Z</Time>
            <Position>
              <LatitudeDegrees>44.74034833721816539764404296875</LatitudeDegrees>
              <LongitudeDegrees>-0.82076643593609333038330078125</LongitudeDegrees>
            </Position>
            <AltitudeMeters>48.59999847412109375</AltitudeMeters>
            <DistanceMeters>NAN</DistanceMeters>
          </Trackpoint>
          <Trackpoint>
            <Time>2022-07-04T11:35:46.000Z</Time>
            <Position>
              <LatitudeDegrees>44.74026359617710113525390625</LatitudeDegrees>
              <LongitudeDegrees>-0.8205371908843517303466796875</LongitudeDegrees>
            </Position>
            <AltitudeMeters>48.59999847412109375</AltitudeMeters>
            <DistanceMeters>NAN</DistanceMeters>
          </Trackpoint>
          <Trackpoint>
            <Time>2022-07-04T11:35:51.000Z</Time>
            <Position>
              <LatitudeDegrees>44.7401561401784420013427734375</LatitudeDegrees>
              <LongitudeDegrees>-0.8202545531094074249267578125</LongitudeDegrees>
            </Position>
            <AltitudeMeters>48.59999847412109375</AltitudeMeters>
            <DistanceMeters>NAN</DistanceMeters>
          </Trackpoint>
          <Trackpoint>
            <Time>2022-07-04T11:36:02.000Z</Time>
            <Position>
              <LatitudeDegrees>44.73989009857177734375</LatitudeDegrees>
              <LongitudeDegrees>-0.81963001750409603118896484375</LongitudeDegrees>
            </Position>
            <AltitudeMeters>48.799999237060546875</AltitudeMeters>
            <DistanceMeters>NAN</DistanceMeters>
          </Trackpoint>
          <Trackpoint>
            <Time>2022-07-04T11:36:03.000Z</Time>
            <Position>
              <LatitudeDegrees>44.73985866643488407135009765625</LatitudeDegrees>
              <LongitudeDegrees>-0.8195762895047664642333984375</LongitudeDegrees>
            </Position>
            <AltitudeMeters>48.799999237060546875</AltitudeMeters>
            <DistanceMeters>NAN</DistanceMeters>
          </Trackpoint>
          <Trackpoint>
            <Time>2022-07-04T11:36:07.000Z</Time>
            <Position>
              <LatitudeDegrees>44.73972388543188571929931640625</LatitudeDegrees>
              <LongitudeDegrees>-0.81938710995018482208251953125</LongitudeDegrees>
            </Position>
            <AltitudeMeters>49</AltitudeMeters>
            <DistanceMeters>NAN</DistanceMeters>
          </Trackpoint>
          <Trackpoint>
            <Time>2022-07-04T11:36:09.000Z</Time>
            <Position>
              <LatitudeDegrees>44.73965615965425968170166015625</LatitudeDegrees>
              <LongitudeDegrees>-0.8193196356296539306640625</LongitudeDegrees>
            </Position>
            <AltitudeMeters>49.200000762939453125</AltitudeMeters>
            <DistanceMeters>NAN</DistanceMeters>
          </Trackpoint>
          <Trackpoint>
            <Time>2022-07-04T11:36:13.000Z</Time>
            <Position>
              <LatitudeDegrees>44.73950109444558620452880859375</LatitudeDegrees>
              <LongitudeDegrees>-0.81915157847106456756591796875</LongitudeDegrees>
            </Position>
            <AltitudeMeters>49.40000152587890625</AltitudeMeters>
            <DistanceMeters>NAN</DistanceMeters>
          </Trackpoint>
          <Trackpoint>
            <Time>2022-07-04T11:36:15.000Z</Time>
            <Position>
              <LatitudeDegrees>44.73943412303924560546875</LatitudeDegrees>
              <LongitudeDegrees>-0.81907010637223720550537109375</LongitudeDegrees>
            </Position>
            <AltitudeMeters>49.40000152587890625</AltitudeMeters>
            <DistanceMeters>NAN</DistanceMeters>
          </Trackpoint>
          <Trackpoint>
            <Time>2022-07-04T11:36:17.000Z</Time>
            <Position>
              <LatitudeDegrees>44.739355333149433135986328125</LatitudeDegrees>
              <LongitudeDegrees>-0.81898427568376064300537109375</LongitudeDegrees>
            </Position>
            <AltitudeMeters>49.40000152587890625</AltitudeMeters>
            <DistanceMeters>NAN</DistanceMeters>
          </Trackpoint>
          <Trackpoint>
            <Time>2022-07-04T11:36:19.000Z</Time>
            <Position>
              <LatitudeDegrees>44.7392907924950122833251953125</LatitudeDegrees>
              <LongitudeDegrees>-0.81891596317291259765625</LongitudeDegrees>
            </Position>
            <AltitudeMeters>49.40000152587890625</AltitudeMeters>
            <DistanceMeters>NAN</DistanceMeters>
          </Trackpoint>
          <Trackpoint>
            <Time>2022-07-04T11:36:22.000Z</Time>
            <Position>
              <LatitudeDegrees>44.73918559961020946502685546875</LatitudeDegrees>
              <LongitudeDegrees>-0.8187997899949550628662109375</LongitudeDegrees>
            </Position>
            <AltitudeMeters>49.40000152587890625</AltitudeMeters>
            <DistanceMeters>NAN</DistanceMeters>
          </Trackpoint>
          <Trackpoint>
            <Time>2022-07-04T11:36:25.000Z</Time>
            <Position>
              <LatitudeDegrees>44.73908744752407073974609375</LatitudeDegrees>
              <LongitudeDegrees>-0.8186961896717548370361328125</LongitudeDegrees>
            </Position>
            <AltitudeMeters>49.40000152587890625</AltitudeMeters>
            <DistanceMeters>NAN</DistanceMeters>
          </Trackpoint>
          <Trackpoint>
            <Time>2022-07-04T11:36:26.000Z</Time>
            <Position>
              <LatitudeDegrees>44.7390550933778285980224609375</LatitudeDegrees>
              <LongitudeDegrees>-0.81865419633686542510986328125</LongitudeDegrees>
            </Position>
            <AltitudeMeters>49.40000152587890625</AltitudeMeters>
            <DistanceMeters>NAN</DistanceMeters>
          </Trackpoint>
          <Trackpoint>
            <Time>2022-07-04T11:36:33.000Z</Time>
            <Position>
              <LatitudeDegrees>44.73881654441356658935546875</LatitudeDegrees>
              <LongitudeDegrees>-0.81836284138262271881103515625</LongitudeDegrees>
            </Position>
            <AltitudeMeters>49.40000152587890625</AltitudeMeters>
            <DistanceMeters>NAN</DistanceMeters>
          </Trackpoint>
          <Trackpoint>
            <Time>2022-07-04T11:36:41.000Z</Time>
            <Position>
              <LatitudeDegrees>44.7385454736649990081787109375</LatitudeDegrees>
              <LongitudeDegrees>-0.8180752582848072052001953125</LongitudeDegrees>
            </Position>
            <AltitudeMeters>49.59999847412109375</AltitudeMeters>
            <DistanceMeters>NAN</DistanceMeters>
          </Trackpoint>
          <Trackpoint>
            <Time>2022-07-04T11:36:49.000Z</Time>
            <Position>
              <LatitudeDegrees>44.73825990222394466400146484375</LatitudeDegrees>
              <LongitudeDegrees>-0.81773939542472362518310546875</LongitudeDegrees>
            </Position>
            <AltitudeMeters>49</AltitudeMeters>
            <DistanceMeters>NAN</DistanceMeters>
          </Trackpoint>
          <Trackpoint>
            <Time>2022-07-04T11:36:55.000Z</Time>
            <Position>
              <LatitudeDegrees>44.73804649896919727325439453125</LatitudeDegrees>
              <LongitudeDegrees>-0.8175029419362545013427734375</LongitudeDegrees>
            </Position>
            <AltitudeMeters>49.200000762939453125</AltitudeMeters>
            <DistanceMeters>NAN</DistanceMeters>
          </Trackpoint>
          <Trackpoint>
            <Time>2022-07-04T11:36:58.000Z</Time>
            <Position>
              <LatitudeDegrees>44.7379548847675323486328125</LatitudeDegrees>
              <LongitudeDegrees>-0.81738702021539211273193359375</LongitudeDegrees>
            </Position>
            <AltitudeMeters>49.40000152587890625</AltitudeMeters>
            <DistanceMeters>NAN</DistanceMeters>
          </Trackpoint>
          <Trackpoint>
            <Time>2022-07-04T11:37:05.000Z</Time>
            <Position>
              <LatitudeDegrees>44.73769479431211948394775390625</LatitudeDegrees>
              <LongitudeDegrees>-0.81711946986615657806396484375</LongitudeDegrees>
            </Position>
            <AltitudeMeters>49.40000152587890625</AltitudeMeters>
            <DistanceMeters>NAN</DistanceMeters>
          </Trackpoint>
          <Trackpoint>
            <Time>2022-07-04T11:37:13.000Z</Time>
            <Position>
              <LatitudeDegrees>44.737442247569561004638671875</LatitudeDegrees>
              <LongitudeDegrees>-0.8167851157486438751220703125</LongitudeDegrees>
            </Position>
            <AltitudeMeters>49.40000152587890625</AltitudeMeters>
            <DistanceMeters>NAN</DistanceMeters>
          </Trackpoint>
          <Trackpoint>
            <Time>2022-07-04T11:37:19.000Z</Time>
            <Position>
              <LatitudeDegrees>44.73722171969711780548095703125</LatitudeDegrees>
              <LongitudeDegrees>-0.8165591396391391754150390625</LongitudeDegrees>
            </Position>
            <AltitudeMeters>49.40000152587890625</AltitudeMeters>
            <DistanceMeters>NAN</DistanceMeters>
          </Trackpoint>
          <Trackpoint>
            <Time>2022-07-04T11:37:21.000Z</Time>
            <Position>
              <LatitudeDegrees>44.73715919069945812225341796875</LatitudeDegrees>
              <LongitudeDegrees>-0.81648655235767364501953125</LongitudeDegrees>
            </Position>
            <AltitudeMeters>49.40000152587890625</AltitudeMeters>
            <DistanceMeters>NAN</DistanceMeters>
          </Trackpoint>
          <Trackpoint>
            <Time>2022-07-04T11:37:32.000Z</Time>
            <Position>
              <LatitudeDegrees>44.73679608665406703948974609375</LatitudeDegrees>
              <LongitudeDegrees>-0.816041640937328338623046875</LongitudeDegrees>
            </Position>
            <AltitudeMeters>49.59999847412109375</AltitudeMeters>
            <DistanceMeters>NAN</DistanceMeters>
          </Trackpoint>
          <Trackpoint>
            <Time>2022-07-04T11:37:38.000Z</Time>
            <Position>
              <LatitudeDegrees>44.7365988604724407196044921875</LatitudeDegrees>
              <LongitudeDegrees>-0.81582941114902496337890625</LongitudeDegrees>
            </Position>
            <AltitudeMeters>49.59999847412109375</AltitudeMeters>
            <DistanceMeters>NAN</DistanceMeters>
          </Trackpoint>
          <Trackpoint>
            <Time>2022-07-04T11:37:41.000Z</Time>
            <Position>
              <LatitudeDegrees>44.7364892251789569854736328125</LatitudeDegrees>
              <LongitudeDegrees>-0.81570158712565898895263671875</LongitudeDegrees>
            </Position>
            <AltitudeMeters>50</AltitudeMeters>
            <DistanceMeters>NAN</DistanceMeters>
          </Trackpoint>
          <Trackpoint>
            <Time>2022-07-04T11:37:47.000Z</Time>
            <Position>
              <LatitudeDegrees>44.73628588020801544189453125</LatitudeDegrees>
              <LongitudeDegrees>-0.81545784138143062591552734375</LongitudeDegrees>
            </Position>
            <AltitudeMeters>50.200000762939453125</AltitudeMeters>
            <DistanceMeters>NAN</DistanceMeters>
          </Trackpoint>
          <Trackpoint>
            <Time>2022-07-04T11:37:48.000Z</Time>
            <Position>
              <LatitudeDegrees>44.7362565435469150543212890625</LatitudeDegrees>
              <LongitudeDegrees>-0.81542565487325191497802734375</LongitudeDegrees>
            </Position>
            <AltitudeMeters>50.200000762939453125</AltitudeMeters>
            <DistanceMeters>NAN</DistanceMeters>
          </Trackpoint>
          <Trackpoint>
            <Time>2022-07-04T11:37:55.000Z</Time>
            <Position>
              <LatitudeDegrees>44.73602578975260257720947265625</LatitudeDegrees>
              <LongitudeDegrees>-0.81512658856809139251708984375</LongitudeDegrees>
            </Position>
            <AltitudeMeters>50.40000152587890625</AltitudeMeters>
            <DistanceMeters>NAN</DistanceMeters>
          </Trackpoint>
          <Trackpoint>
            <Time>2022-07-04T11:37:59.000Z</Time>
            <Position>
              <LatitudeDegrees>44.73588715307414531707763671875</LatitudeDegrees>
              <LongitudeDegrees>-0.814984180033206939697265625</LongitudeDegrees>
            </Position>
            <AltitudeMeters>50.40000152587890625</AltitudeMeters>
            <DistanceMeters>NAN</DistanceMeters>
          </Trackpoint>
          <Trackpoint>
            <Time>2022-07-04T11:38:01.000Z</Time>
            <Position>
              <LatitudeDegrees>44.735813140869140625</LatitudeDegrees>
              <LongitudeDegrees>-0.81489457748830318450927734375</LongitudeDegrees>
            </Position>
            <AltitudeMeters>49.799999237060546875</AltitudeMeters>
            <DistanceMeters>NAN</DistanceMeters>
          </Trackpoint>
          <Trackpoint>
            <Time>2022-07-04T11:38:07.000Z</Time>
            <Position>
              <LatitudeDegrees>44.73560702987015247344970703125</LatitudeDegrees>
              <LongitudeDegrees>-0.814642868936061859130859375</LongitudeDegrees>
            </Position>
            <AltitudeMeters>50.200000762939453125</AltitudeMeters>
            <DistanceMeters>NAN</DistanceMeters>
          </Trackpoint>
          <Trackpoint>
            <Time>2022-07-04T11:38:09.000Z</Time>
            <Position>
              <LatitudeDegrees>44.73554600961506366729736328125</LatitudeDegrees>
              <LongitudeDegrees>-0.81456550396978855133056640625</LongitudeDegrees>
            </Position>
            <AltitudeMeters>50.200000762939453125</AltitudeMeters>
            <DistanceMeters>NAN</DistanceMeters>
          </Trackpoint>
          <Trackpoint>
            <Time>2022-07-04T11:38:17.000Z</Time>
            <Position>
              <LatitudeDegrees>44.73524861969053745269775390625</LatitudeDegrees>
              <LongitudeDegrees>-0.814223103225231170654296875</LongitudeDegrees>
            </Position>
            <AltitudeMeters>50.40000152587890625</AltitudeMeters>
            <DistanceMeters>NAN</DistanceMeters>
          </Trackpoint>
          <Trackpoint>
            <Time>2022-07-04T11:38:24.000Z</Time>
            <Position>
              <LatitudeDegrees>44.734999425709247589111328125</LatitudeDegrees>
              <LongitudeDegrees>-0.8139550499618053436279296875</LongitudeDegrees>
            </Position>
            <AltitudeMeters>50.40000152587890625</AltitudeMeters>
            <DistanceMeters>NAN</DistanceMeters>
          </Trackpoint>
          <Trackpoint>
            <Time>2022-07-04T11:38:33.000Z</Time>
            <Position>
              <LatitudeDegrees>44.73465643823146820068359375</LatitudeDegrees>
              <LongitudeDegrees>-0.813560597598552703857421875</LongitudeDegrees>
            </Position>
            <AltitudeMeters>50.200000762939453125</AltitudeMeters>
            <DistanceMeters>NAN</DistanceMeters>
          </Trackpoint>
          <Trackpoint>
            <Time>2022-07-04T11:38:43.000Z</Time>
            <Position>
              <LatitudeDegrees>44.73429325036704540252685546875</LatitudeDegrees>
              <LongitudeDegrees>-0.81313018687069416046142578125</LongitudeDegrees>
            </Position>
            <AltitudeMeters>50.200000762939453125</AltitudeMeters>
            <DistanceMeters>NAN</DistanceMeters>
          </Trackpoint>
          <Trackpoint>
            <Time>2022-07-04T11:38:44.000Z</Time>
            <Position>
              <LatitudeDegrees>44.73425636999309062957763671875</LatitudeDegrees>
              <LongitudeDegrees>-0.8130873553454875946044921875</LongitudeDegrees>
            </Position>
            <AltitudeMeters>50.200000762939453125</AltitudeMeters>
            <DistanceMeters>NAN</DistanceMeters>
          </Trackpoint>
          <Trackpoint>
            <Time>2022-07-04T11:38:56.000Z</Time>
            <Position>
              <LatitudeDegrees>44.73382034339010715484619140625</LatitudeDegrees>
              <LongitudeDegrees>-0.81257480196654796600341796875</LongitudeDegrees>
            </Position>
            <AltitudeMeters>50.200000762939453125</AltitudeMeters>
            <DistanceMeters>NAN</DistanceMeters>
          </Trackpoint>
          <Trackpoint>
            <Time>2022-07-04T11:39:01.000Z</Time>
            <Position>
              <LatitudeDegrees>44.73363879136741161346435546875</LatitudeDegrees>
              <LongitudeDegrees>-0.81236558966338634490966796875</LongitudeDegrees>
            </Position>
            <AltitudeMeters>50.200000762939453125</AltitudeMeters>
            <DistanceMeters>NAN</DistanceMeters>
          </Trackpoint>
          <Trackpoint>
            <Time>2022-07-04T11:39:05.000Z</Time>
            <Position>
              <LatitudeDegrees>44.73349797539412975311279296875</LatitudeDegrees>
              <LongitudeDegrees>-0.81220038235187530517578125</LongitudeDegrees>
            </Position>
            <AltitudeMeters>50.40000152587890625</AltitudeMeters>
            <DistanceMeters>NAN</DistanceMeters>
          </Trackpoint>
          <Trackpoint>
            <Time>2022-07-04T11:39:14.000Z</Time>
            <Position>
              <LatitudeDegrees>44.73316990770399570465087890625</LatitudeDegrees>
              <LongitudeDegrees>-0.81182026304304599761962890625</LongitudeDegrees>
            </Position>
            <AltitudeMeters>50.40000152587890625</AltitudeMeters>
            <DistanceMeters>NAN</DistanceMeters>
          </Trackpoint>
          <Trackpoint>
            <Time>2022-07-04T11:39:22.000Z</Time>
            <Position>
              <LatitudeDegrees>44.7328772954642772674560546875</LatitudeDegrees>
              <LongitudeDegrees>-0.81148867495357990264892578125</LongitudeDegrees>
            </Position>
            <AltitudeMeters>50.40000152587890625</AltitudeMeters>
            <DistanceMeters>NAN</DistanceMeters>
          </Trackpoint>
          <Trackpoint>
            <Time>2022-07-04T11:39:28.000Z</Time>
            <Position>
              <LatitudeDegrees>44.7326684184372425079345703125</LatitudeDegrees>
              <LongitudeDegrees>-0.8112356252968311309814453125</LongitudeDegrees>
            </Position>
            <AltitudeMeters>50.40000152587890625</AltitudeMeters>
            <DistanceMeters>NAN</DistanceMeters>
          </Trackpoint>
          <Trackpoint>
            <Time>2022-07-04T11:39:32.000Z</Time>
            <Position>
              <LatitudeDegrees>44.73253422416746616363525390625</LatitudeDegrees>
              <LongitudeDegrees>-0.81107209436595439910888671875</LongitudeDegrees>
            </Position>
            <AltitudeMeters>50.40000152587890625</AltitudeMeters>
            <DistanceMeters>NAN</DistanceMeters>
          </Trackpoint>
          <Trackpoint>
            <Time>2022-07-04T11:39:41.000Z</Time>
            <Position>
              <LatitudeDegrees>44.73219819366931915283203125</LatitudeDegrees>
              <LongitudeDegrees>-0.81069926731288433074951171875</LongitudeDegrees>
            </Position>
            <AltitudeMeters>50.200000762939453125</AltitudeMeters>
            <DistanceMeters>NAN</DistanceMeters>
          </Trackpoint>
          <Trackpoint>
            <Time>2022-07-04T11:39:47.000Z</Time>
            <Position>
              <LatitudeDegrees>44.73196157254278659820556640625</LatitudeDegrees>
              <LongitudeDegrees>-0.8104380033910274505615234375</LongitudeDegrees>
            </Position>
            <AltitudeMeters>50.40000152587890625</AltitudeMeters>
            <DistanceMeters>NAN</DistanceMeters>
          </Trackpoint>
          <Trackpoint>
            <Time>2022-07-04T11:39:49.000Z</Time>
            <Position>
              <LatitudeDegrees>44.7318855486810207366943359375</LatitudeDegrees>
              <LongitudeDegrees>-0.8103503286838531494140625</LongitudeDegrees>
            </Position>
            <AltitudeMeters>50.40000152587890625</AltitudeMeters>
            <DistanceMeters>NAN</DistanceMeters>
          </Trackpoint>
          <Trackpoint>
            <Time>2022-07-04T11:39:55.000Z</Time>
            <Position>
              <LatitudeDegrees>44.73167717456817626953125</LatitudeDegrees>
              <LongitudeDegrees>-0.8100812695920467376708984375</LongitudeDegrees>
            </Position>
            <AltitudeMeters>50.40000152587890625</AltitudeMeters>
            <DistanceMeters>NAN</DistanceMeters>
          </Trackpoint>
          <Trackpoint>
            <Time>2022-07-04T11:39:57.000Z</Time>
            <Position>
              <LatitudeDegrees>44.73160651512444019317626953125</LatitudeDegrees>
              <LongitudeDegrees>-0.80999518744647502899169921875</LongitudeDegrees>
            </Position>
            <AltitudeMeters>50.40000152587890625</AltitudeMeters>
            <DistanceMeters>NAN</DistanceMeters>
          </Trackpoint>
          <Trackpoint>
            <Time>2022-07-04T11:39:59.000Z</Time>
            <Position>
              <LatitudeDegrees>44.73153769969940185546875</LatitudeDegrees>
              <LongitudeDegrees>-0.80991153605282306671142578125</LongitudeDegrees>
            </Position>
            <AltitudeMeters>50.59999847412109375</AltitudeMeters>
            <DistanceMeters>NAN</DistanceMeters>
          </Trackpoint>
          <Trackpoint>
            <Time>2022-07-04T11:40:00.000Z</Time>
            <Position>
              <LatitudeDegrees>44.73150157369673252105712890625</LatitudeDegrees>
              <LongitudeDegrees>-0.80986929126083850860595703125</LongitudeDegrees>
            </Position>
            <AltitudeMeters>50.59999847412109375</AltitudeMeters>
            <DistanceMeters>NAN</DistanceMeters>
          </Trackpoint>
          <Trackpoint>
            <Time>2022-07-04T11:40:01.000Z</Time>
            <Position>
              <LatitudeDegrees>44.73146335221827030181884765625</LatitudeDegrees>
              <LongitudeDegrees>-0.8098244480788707733154296875</LongitudeDegrees>
            </Position>
            <AltitudeMeters>50.59999847412109375</AltitudeMeters>
            <DistanceMeters>NAN</DistanceMeters>
          </Trackpoint>
          <Trackpoint>
            <Time>2022-07-04T11:40:02.000Z</Time>
            <Position>
              <LatitudeDegrees>44.73142630420625209808349609375</LatitudeDegrees>
              <LongitudeDegrees>-0.80978463403880596160888671875</LongitudeDegrees>
            </Position>
            <AltitudeMeters>50.59999847412109375</AltitudeMeters>
            <DistanceMeters>NAN</DistanceMeters>
          </Trackpoint>
          <Trackpoint>
            <Time>2022-07-04T11:40:05.000Z</Time>
            <Position>
              <LatitudeDegrees>44.73131298087537288665771484375</LatitudeDegrees>
              <LongitudeDegrees>-0.8096708916127681732177734375</LongitudeDegrees>
            </Position>
            <AltitudeMeters>50.59999847412109375</AltitudeMeters>
            <DistanceMeters>NAN</DistanceMeters>
          </Trackpoint>
          <Trackpoint>
            <Time>2022-07-04T11:40:07.000Z</Time>
            <Position>
              <LatitudeDegrees>44.73123972304165363311767578125</LatitudeDegrees>
              <LongitudeDegrees>-0.80959101207554340362548828125</LongitudeDegrees>
            </Position>
            <AltitudeMeters>50.59999847412109375</AltitudeMeters>
            <DistanceMeters>NAN</DistanceMeters>
          </Trackpoint>
          <Trackpoint>
            <Time>2022-07-04T11:40:10.000Z</Time>
            <Position>
              <LatitudeDegrees>44.73113603889942169189453125</LatitudeDegrees>
              <LongitudeDegrees>-0.8094774372875690460205078125</LongitudeDegrees>
            </Position>
            <AltitudeMeters>50.799999237060546875</AltitudeMeters>
            <DistanceMeters>NAN</DistanceMeters>
          </Trackpoint>
          <Trackpoint>
            <Time>2022-07-04T11:40:13.000Z</Time>
            <Position>
              <LatitudeDegrees>44.7310329414904117584228515625</LatitudeDegrees>
              <LongitudeDegrees>-0.80935598351061344146728515625</LongitudeDegrees>
            </Position>
            <AltitudeMeters>50.799999237060546875</AltitudeMeters>
            <DistanceMeters>NAN</DistanceMeters>
          </Trackpoint>
          <Trackpoint>
            <Time>2022-07-04T11:40:19.000Z</Time>
            <Position>
              <LatitudeDegrees>44.7308183647692203521728515625</LatitudeDegrees>
              <LongitudeDegrees>-0.80910670571029186248779296875</LongitudeDegrees>
            </Position>
            <AltitudeMeters>50.799999237060546875</AltitudeMeters>
            <DistanceMeters>NAN</DistanceMeters>
          </Trackpoint>
          <Trackpoint>
            <Time>2022-07-04T11:40:21.000Z</Time>
            <Position>
              <LatitudeDegrees>44.73075223155319690704345703125</LatitudeDegrees>
              <LongitudeDegrees>-0.80902422778308391571044921875</LongitudeDegrees>
            </Position>
            <AltitudeMeters>50.799999237060546875</AltitudeMeters>
            <DistanceMeters>NAN</DistanceMeters>
          </Trackpoint>
          <Trackpoint>
            <Time>2022-07-04T11:40:22.000Z</Time>
            <Position>
              <LatitudeDegrees>44.73071300424635410308837890625</LatitudeDegrees>
              <LongitudeDegrees>-0.80897636711597442626953125</LongitudeDegrees>
            </Position>
            <AltitudeMeters>51</AltitudeMeters>
            <DistanceMeters>NAN</DistanceMeters>
          </Trackpoint>
          <Trackpoint>
            <Time>2022-07-04T11:40:24.000Z</Time>
            <Position>
              <LatitudeDegrees>44.730638153851032257080078125</LatitudeDegrees>
              <LongitudeDegrees>-0.80889011733233928680419921875</LongitudeDegrees>
            </Position>
            <AltitudeMeters>51</AltitudeMeters>
            <DistanceMeters>NAN</DistanceMeters>
          </Trackpoint>
          <Trackpoint>
            <Time>2022-07-04T11:40:30.000Z</Time>
            <Position>
              <LatitudeDegrees>44.73043539561331272125244140625</LatitudeDegrees>
              <LongitudeDegrees>-0.8086586929857730865478515625</LongitudeDegrees>
            </Position>
            <AltitudeMeters>50.799999237060546875</AltitudeMeters>
            <DistanceMeters>NAN</DistanceMeters>
          </Trackpoint>
          <Trackpoint>
            <Time>2022-07-04T11:40:38.000Z</Time>
            <Position>
              <LatitudeDegrees>44.73015627823770046234130859375</LatitudeDegrees>
              <LongitudeDegrees>-0.808339677751064300537109375</LongitudeDegrees>
            </Position>
            <AltitudeMeters>51.200000762939453125</AltitudeMeters>
            <DistanceMeters>NAN</DistanceMeters>
          </Trackpoint>
          <Trackpoint>
            <Time>2022-07-04T11:40:48.000Z</Time>
            <Position>
              <LatitudeDegrees>44.72980742342770099639892578125</LatitudeDegrees>
              <LongitudeDegrees>-0.80794430337846279144287109375</LongitudeDegrees>
            </Position>
            <AltitudeMeters>50.799999237060546875</AltitudeMeters>
            <DistanceMeters>NAN</DistanceMeters>
          </Trackpoint>
          <Trackpoint>
            <Time>2022-07-04T11:40:59.000Z</Time>
            <Position>
              <LatitudeDegrees>44.7294205985963344573974609375</LatitudeDegrees>
              <LongitudeDegrees>-0.80750106833875179290771484375</LongitudeDegrees>
            </Position>
            <AltitudeMeters>50.799999237060546875</AltitudeMeters>
            <DistanceMeters>NAN</DistanceMeters>
          </Trackpoint>
          <Trackpoint>
            <Time>2022-07-04T11:41:04.000Z</Time>
            <Position>
              <LatitudeDegrees>44.729249775409698486328125</LatitudeDegrees>
              <LongitudeDegrees>-0.8073058538138866424560546875</LongitudeDegrees>
            </Position>
            <AltitudeMeters>51</AltitudeMeters>
            <DistanceMeters>NAN</DistanceMeters>
          </Trackpoint>
          <Trackpoint>
            <Time>2022-07-04T11:41:11.000Z</Time>
            <Position>
              <LatitudeDegrees>44.72902053035795688629150390625</LatitudeDegrees>
              <LongitudeDegrees>-0.8070312626659870147705078125</LongitudeDegrees>
            </Position>
            <AltitudeMeters>50.799999237060546875</AltitudeMeters>
            <DistanceMeters>NAN</DistanceMeters>
          </Trackpoint>
          <Trackpoint>
            <Time>2022-07-04T11:41:21.000Z</Time>
            <Position>
              <LatitudeDegrees>44.7286732681095600128173828125</LatitudeDegrees>
              <LongitudeDegrees>-0.80665357410907745361328125</LongitudeDegrees>
            </Position>
            <AltitudeMeters>50.799999237060546875</AltitudeMeters>
            <DistanceMeters>NAN</DistanceMeters>
          </Trackpoint>
          <Trackpoint>
            <Time>2022-07-04T11:41:28.000Z</Time>
            <Position>
              <LatitudeDegrees>44.7284154407680034637451171875</LatitudeDegrees>
              <LongitudeDegrees>-0.8063392527401447296142578125</LongitudeDegrees>
            </Position>
            <AltitudeMeters>50.59999847412109375</AltitudeMeters>
            <DistanceMeters>NAN</DistanceMeters>
          </Trackpoint>
          <Trackpoint>
            <Time>2022-07-04T11:41:29.000Z</Time>
            <Position>
              <LatitudeDegrees>44.72837730310857295989990234375</LatitudeDegrees>
              <LongitudeDegrees>-0.80629658885300159454345703125</LongitudeDegrees>
            </Position>
            <AltitudeMeters>50.59999847412109375</AltitudeMeters>
            <DistanceMeters>NAN</DistanceMeters>
          </Trackpoint>
          <Trackpoint>
            <Time>2022-07-04T11:41:38.000Z</Time>
            <Position>
              <LatitudeDegrees>44.72801218740642070770263671875</LatitudeDegrees>
              <LongitudeDegrees>-0.80588738434016704559326171875</LongitudeDegrees>
            </Position>
            <AltitudeMeters>50.799999237060546875</AltitudeMeters>
            <DistanceMeters>NAN</DistanceMeters>
          </Trackpoint>
          <Trackpoint>
            <Time>2022-07-04T11:41:47.000Z</Time>
            <Position>
              <LatitudeDegrees>44.7276409529149532318115234375</LatitudeDegrees>
              <LongitudeDegrees>-0.80546267330646514892578125</LongitudeDegrees>
            </Position>
            <AltitudeMeters>51</AltitudeMeters>
            <DistanceMeters>NAN</DistanceMeters>
          </Trackpoint>
          <Trackpoint>
            <Time>2022-07-04T11:41:55.000Z</Time>
            <Position>
              <LatitudeDegrees>44.727314226329326629638671875</LatitudeDegrees>
              <LongitudeDegrees>-0.805096216499805450439453125</LongitudeDegrees>
            </Position>
            <AltitudeMeters>50.799999237060546875</AltitudeMeters>
            <DistanceMeters>NAN</DistanceMeters>
          </Trackpoint>
          <Trackpoint>
            <Time>2022-07-04T11:42:03.000Z</Time>
            <Position>
              <LatitudeDegrees>44.72699848003685474395751953125</LatitudeDegrees>
              <LongitudeDegrees>-0.80473738722503185272216796875</LongitudeDegrees>
            </Position>
            <AltitudeMeters>50.799999237060546875</AltitudeMeters>
            <DistanceMeters>NAN</DistanceMeters>
          </Trackpoint>
          <Trackpoint>
            <Time>2022-07-04T11:42:11.000Z</Time>
            <Position>
              <LatitudeDegrees>44.72669170238077640533447265625</LatitudeDegrees>
              <LongitudeDegrees>-0.80439138226211071014404296875</LongitudeDegrees>
            </Position>
            <AltitudeMeters>50.799999237060546875</AltitudeMeters>
            <DistanceMeters>NAN</DistanceMeters>
          </Trackpoint>
          <Trackpoint>
            <Time>2022-07-04T11:42:15.000Z</Time>
            <Position>
              <LatitudeDegrees>44.7265385650098323822021484375</LatitudeDegrees>
              <LongitudeDegrees>-0.80421821214258670806884765625</LongitudeDegrees>
            </Position>
            <AltitudeMeters>50.59999847412109375</AltitudeMeters>
            <DistanceMeters>NAN</DistanceMeters>
          </Trackpoint>
          <Trackpoint>
            <Time>2022-07-04T11:42:23.000Z</Time>
            <Position>
              <LatitudeDegrees>44.72624226473271846771240234375</LatitudeDegrees>
              <LongitudeDegrees>-0.80389668233692646026611328125</LongitudeDegrees>
            </Position>
            <AltitudeMeters>50.200000762939453125</AltitudeMeters>
            <DistanceMeters>NAN</DistanceMeters>
          </Trackpoint>
          <Trackpoint>
            <Time>2022-07-04T11:42:25.000Z</Time>
            <Position>
              <LatitudeDegrees>44.72616816870868206024169921875</LatitudeDegrees>
              <LongitudeDegrees>-0.80380900762975215911865234375</LongitudeDegrees>
            </Position>
            <AltitudeMeters>50.40000152587890625</AltitudeMeters>
            <DistanceMeters>NAN</DistanceMeters>
          </Trackpoint>
          <Trackpoint>
            <Time>2022-07-04T11:42:30.000Z</Time>
            <Position>
              <LatitudeDegrees>44.72597010433673858642578125</LatitudeDegrees>
              <LongitudeDegrees>-0.80359040759503841400146484375</LongitudeDegrees>
            </Position>
            <AltitudeMeters>51</AltitudeMeters>
            <DistanceMeters>NAN</DistanceMeters>
          </Trackpoint>
          <Trackpoint>
            <Time>2022-07-04T11:42:31.000Z</Time>
            <Position>
              <LatitudeDegrees>44.72593389451503753662109375</LatitudeDegrees>
              <LongitudeDegrees>-0.803543217480182647705078125</LongitudeDegrees>
            </Position>
            <AltitudeMeters>51</AltitudeMeters>
            <DistanceMeters>NAN</DistanceMeters>
          </Trackpoint>
          <Trackpoint>
            <Time>2022-07-04T11:42:32.000Z</Time>
            <Position>
              <LatitudeDegrees>44.72589542157948017120361328125</LatitudeDegrees>
              <LongitudeDegrees>-0.80350399017333984375</LongitudeDegrees>
            </Position>
            <AltitudeMeters>51</AltitudeMeters>
            <DistanceMeters>NAN</DistanceMeters>
          </Trackpoint>
          <Trackpoint>
            <Time>2022-07-04T11:42:35.000Z</Time>
            <Position>
              <LatitudeDegrees>44.72577338106930255889892578125</LatitudeDegrees>
              <LongitudeDegrees>-0.80338421277701854705810546875</LongitudeDegrees>
            </Position>
            <AltitudeMeters>50.799999237060546875</AltitudeMeters>
            <DistanceMeters>NAN</DistanceMeters>
          </Trackpoint>
          <Trackpoint>
            <Time>2022-07-04T11:42:37.000Z</Time>
            <Position>
              <LatitudeDegrees>44.72568570636212825775146484375</LatitudeDegrees>
              <LongitudeDegrees>-0.8032989688217639923095703125</LongitudeDegrees>
            </Position>
            <AltitudeMeters>51</AltitudeMeters>
            <DistanceMeters>NAN</DistanceMeters>
          </Trackpoint>
          <Trackpoint>
            <Time>2022-07-04T11:42:38.000Z</Time>
            <Position>
              <LatitudeDegrees>44.72565083764493465423583984375</LatitudeDegrees>
              <LongitudeDegrees>-0.803249180316925048828125</LongitudeDegrees>
            </Position>
            <AltitudeMeters>51</AltitudeMeters>
            <DistanceMeters>NAN</DistanceMeters>
          </Trackpoint>
          <Trackpoint>
            <Time>2022-07-04T11:42:39.000Z</Time>
            <Position>
              <LatitudeDegrees>44.7256158851087093353271484375</LatitudeDegrees>
              <LongitudeDegrees>-0.80320131964981555938720703125</LongitudeDegrees>
            </Position>
            <AltitudeMeters>51.200000762939453125</AltitudeMeters>
            <DistanceMeters>NAN</DistanceMeters>
          </Trackpoint>
          <Trackpoint>
            <Time>2022-07-04T11:42:44.000Z</Time>
            <Position>
              <LatitudeDegrees>44.72544045187532901763916015625</LatitudeDegrees>
              <LongitudeDegrees>-0.802983976900577545166015625</LongitudeDegrees>
            </Position>
            <AltitudeMeters>51.40000152587890625</AltitudeMeters>
            <DistanceMeters>NAN</DistanceMeters>
          </Trackpoint>
          <Trackpoint>
            <Time>2022-07-04T11:42:47.000Z</Time>
            <Position>
              <LatitudeDegrees>44.7253255359828472137451171875</LatitudeDegrees>
              <LongitudeDegrees>-0.80286562442779541015625</LongitudeDegrees>
            </Position>
            <AltitudeMeters>51.59999847412109375</AltitudeMeters>
            <DistanceMeters>NAN</DistanceMeters>
          </Trackpoint>
          <Trackpoint>
            <Time>2022-07-04T11:42:52.000Z</Time>
            <Position>
              <LatitudeDegrees>44.72512780688703060150146484375</LatitudeDegrees>
              <LongitudeDegrees>-0.80265683121979236602783203125</LongitudeDegrees>
            </Position>
            <AltitudeMeters>51.59999847412109375</AltitudeMeters>
            <DistanceMeters>NAN</DistanceMeters>
          </Trackpoint>
          <Trackpoint>
            <Time>2022-07-04T11:42:54.000Z</Time>
            <Position>
              <LatitudeDegrees>44.72503979690372943878173828125</LatitudeDegrees>
              <LongitudeDegrees>-0.8025606907904148101806640625</LongitudeDegrees>
            </Position>
            <AltitudeMeters>51.59999847412109375</AltitudeMeters>
            <DistanceMeters>NAN</DistanceMeters>
          </Trackpoint>
          <Trackpoint>
            <Time>2022-07-04T11:42:55.000Z</Time>
            <Position>
              <LatitudeDegrees>44.72500224597752094268798828125</LatitudeDegrees>
              <LongitudeDegrees>-0.80251350067555904388427734375</LongitudeDegrees>
            </Position>
            <AltitudeMeters>51.59999847412109375</AltitudeMeters>
            <DistanceMeters>NAN</DistanceMeters>
          </Trackpoint>
          <Trackpoint>
            <Time>2022-07-04T11:43:00.000Z</Time>
            <Position>
              <LatitudeDegrees>44.72480912692844867706298828125</LatitudeDegrees>
              <LongitudeDegrees>-0.802289284765720367431640625</LongitudeDegrees>
            </Position>
            <AltitudeMeters>51.799999237060546875</AltitudeMeters>
            <DistanceMeters>NAN</DistanceMeters>
          </Trackpoint>
          <Trackpoint>
            <Time>2022-07-04T11:43:04.000Z</Time>
            <Position>
              <LatitudeDegrees>44.7246559895575046539306640625</LatitudeDegrees>
              <LongitudeDegrees>-0.8021067269146442413330078125</LongitudeDegrees>
            </Position>
            <AltitudeMeters>52</AltitudeMeters>
            <DistanceMeters>NAN</DistanceMeters>
          </Trackpoint>
          <Trackpoint>
            <Time>2022-07-04T11:43:07.000Z</Time>
            <Position>
              <LatitudeDegrees>44.72453051246702671051025390625</LatitudeDegrees>
              <LongitudeDegrees>-0.80196498893201351165771484375</LongitudeDegrees>
            </Position>
            <AltitudeMeters>52</AltitudeMeters>
            <DistanceMeters>NAN</DistanceMeters>
          </Trackpoint>
          <Trackpoint>
            <Time>2022-07-04T11:43:11.000Z</Time>
            <Position>
              <LatitudeDegrees>44.724375866353511810302734375</LatitudeDegrees>
              <LongitudeDegrees>-0.801811851561069488525390625</LongitudeDegrees>
            </Position>
            <AltitudeMeters>52</AltitudeMeters>
            <DistanceMeters>NAN</DistanceMeters>
          </Trackpoint>
          <Trackpoint>
            <Time>2022-07-04T11:43:17.000Z</Time>
            <Position>
              <LatitudeDegrees>44.7241815738379955291748046875</LatitudeDegrees>
              <LongitudeDegrees>-0.80159836448729038238525390625</LongitudeDegrees>
            </Position>
            <AltitudeMeters>52</AltitudeMeters>
            <DistanceMeters>NAN</DistanceMeters>
          </Trackpoint>
          <Trackpoint>
            <Time>2022-07-04T11:43:20.000Z</Time>
            <Position>
              <LatitudeDegrees>44.7240717709064483642578125</LatitudeDegrees>
              <LongitudeDegrees>-0.80148906446993350982666015625</LongitudeDegrees>
            </Position>
            <AltitudeMeters>52</AltitudeMeters>
            <DistanceMeters>NAN</DistanceMeters>
          </Trackpoint>
          <Trackpoint>
            <Time>2022-07-04T11:43:22.000Z</Time>
            <Position>
              <LatitudeDegrees>44.72399256192147731781005859375</LatitudeDegrees>
              <LongitudeDegrees>-0.80141345970332622528076171875</LongitudeDegrees>
            </Position>
            <AltitudeMeters>51.799999237060546875</AltitudeMeters>
            <DistanceMeters>NAN</DistanceMeters>
          </Trackpoint>
          <Trackpoint>
            <Time>2022-07-04T11:43:29.000Z</Time>
            <Position>
              <LatitudeDegrees>44.72373959608376026153564453125</LatitudeDegrees>
              <LongitudeDegrees>-0.80116149969398975372314453125</LongitudeDegrees>
            </Position>
            <AltitudeMeters>51.799999237060546875</AltitudeMeters>
            <DistanceMeters>NAN</DistanceMeters>
          </Trackpoint>
          <Trackpoint>
            <Time>2022-07-04T11:43:30.000Z</Time>
            <Position>
              <LatitudeDegrees>44.72370238043367862701416015625</LatitudeDegrees>
              <LongitudeDegrees>-0.80112663097679615020751953125</LongitudeDegrees>
            </Position>
            <AltitudeMeters>51.799999237060546875</AltitudeMeters>
            <DistanceMeters>NAN</DistanceMeters>
          </Trackpoint>
          <Trackpoint>
            <Time>2022-07-04T11:43:32.000Z</Time>
            <Position>
              <LatitudeDegrees>44.72362996079027652740478515625</LatitudeDegrees>
              <LongitudeDegrees>-0.80105437897145748138427734375</LongitudeDegrees>
            </Position>
            <AltitudeMeters>51.799999237060546875</AltitudeMeters>
            <DistanceMeters>NAN</DistanceMeters>
          </Trackpoint>
          <Trackpoint>
            <Time>2022-07-04T11:43:36.000Z</Time>
            <Position>
              <LatitudeDegrees>44.7234868817031383514404296875</LatitudeDegrees>
              <LongitudeDegrees>-0.8009024150669574737548828125</LongitudeDegrees>
            </Position>
            <AltitudeMeters>51.799999237060546875</AltitudeMeters>
            <DistanceMeters>NAN</DistanceMeters>
          </Trackpoint>
          <Trackpoint>
            <Time>2022-07-04T11:43:37.000Z</Time>
            <Position>
              <LatitudeDegrees>44.72345477901399135589599609375</LatitudeDegrees>
              <LongitudeDegrees>-0.80086125992238521575927734375</LongitudeDegrees>
            </Position>
            <AltitudeMeters>51.799999237060546875</AltitudeMeters>
            <DistanceMeters>NAN</DistanceMeters>
          </Trackpoint>
          <Trackpoint>
            <Time>2022-07-04T11:43:42.000Z</Time>
            <Position>
              <LatitudeDegrees>44.7232912480831146240234375</LatitudeDegrees>
              <LongitudeDegrees>-0.80064618028700351715087890625</LongitudeDegrees>
            </Position>
            <AltitudeMeters>52</AltitudeMeters>
            <DistanceMeters>NAN</DistanceMeters>
          </Trackpoint>
          <Trackpoint>
            <Time>2022-07-04T11:43:46.000Z</Time>
            <Position>
              <LatitudeDegrees>44.72316853702068328857421875</LatitudeDegrees>
              <LongitudeDegrees>-0.80047921277582645416259765625</LongitudeDegrees>
            </Position>
            <AltitudeMeters>52.200000762939453125</AltitudeMeters>
            <DistanceMeters>NAN</DistanceMeters>
          </Trackpoint>
          <Trackpoint>
            <Time>2022-07-04T11:43:54.000Z</Time>
            <Position>
              <LatitudeDegrees>44.72291045822203159332275390625</LatitudeDegrees>
              <LongitudeDegrees>-0.80018735490739345550537109375</LongitudeDegrees>
            </Position>
            <AltitudeMeters>52</AltitudeMeters>
            <DistanceMeters>NAN</DistanceMeters>
          </Trackpoint>
          <Trackpoint>
            <Time>2022-07-04T11:44:01.000Z</Time>
            <Position>
              <LatitudeDegrees>44.72266118042171001434326171875</LatitudeDegrees>
              <LongitudeDegrees>-0.79990404658019542694091796875</LongitudeDegrees>
            </Position>
            <AltitudeMeters>51.799999237060546875</AltitudeMeters>
            <DistanceMeters>NAN</DistanceMeters>
          </Trackpoint>
          <Trackpoint>
            <Time>2022-07-04T11:44:03.000Z</Time>
            <Position>
              <LatitudeDegrees>44.72259596921503543853759765625</LatitudeDegrees>
              <LongitudeDegrees>-0.79982869327068328857421875</LongitudeDegrees>
            </Position>
            <AltitudeMeters>52</AltitudeMeters>
            <DistanceMeters>NAN</DistanceMeters>
          </Trackpoint>
          <Trackpoint>
            <Time>2022-07-04T11:44:09.000Z</Time>
            <Position>
              <LatitudeDegrees>44.7223905287683010101318359375</LatitudeDegrees>
              <LongitudeDegrees>-0.79961369745433330535888671875</LongitudeDegrees>
            </Position>
            <AltitudeMeters>52</AltitudeMeters>
            <DistanceMeters>NAN</DistanceMeters>
          </Trackpoint>
          <Trackpoint>
            <Time>2022-07-04T11:44:10.000Z</Time>
            <Position>
              <LatitudeDegrees>44.72235180437564849853515625</LatitudeDegrees>
              <LongitudeDegrees>-0.79957061447203159332275390625</LongitudeDegrees>
            </Position>
            <AltitudeMeters>52</AltitudeMeters>
            <DistanceMeters>NAN</DistanceMeters>
          </Trackpoint>
          <Trackpoint>
            <Time>2022-07-04T11:44:16.000Z</Time>
            <Position>
              <LatitudeDegrees>44.7221555002033710479736328125</LatitudeDegrees>
              <LongitudeDegrees>-0.79933994449675083160400390625</LongitudeDegrees>
            </Position>
            <AltitudeMeters>52</AltitudeMeters>
            <DistanceMeters>NAN</DistanceMeters>
          </Trackpoint>
          <Trackpoint>
            <Time>2022-07-04T11:44:18.000Z</Time>
            <Position>
              <LatitudeDegrees>44.72209020517766475677490234375</LatitudeDegrees>
              <LongitudeDegrees>-0.79927557148039340972900390625</LongitudeDegrees>
            </Position>
            <AltitudeMeters>52</AltitudeMeters>
            <DistanceMeters>NAN</DistanceMeters>
          </Trackpoint>
          <Trackpoint>
            <Time>2022-07-04T11:44:23.000Z</Time>
            <Position>
              <LatitudeDegrees>44.72194251604378223419189453125</LatitudeDegrees>
              <LongitudeDegrees>-0.79911933280527591705322265625</LongitudeDegrees>
            </Position>
            <AltitudeMeters>52</AltitudeMeters>
            <DistanceMeters>NAN</DistanceMeters>
          </Trackpoint>
          <Trackpoint>
            <Time>2022-07-04T11:44:29.000Z</Time>
            <Position>
              <LatitudeDegrees>44.72176934592425823211669921875</LatitudeDegrees>
              <LongitudeDegrees>-0.79897432588040828704833984375</LongitudeDegrees>
            </Position>
            <AltitudeMeters>52</AltitudeMeters>
            <DistanceMeters>NAN</DistanceMeters>
          </Trackpoint>
          <Trackpoint>
            <Time>2022-07-04T11:44:32.000Z</Time>
            <Position>
              <LatitudeDegrees>44.72169826738536357879638671875</LatitudeDegrees>
              <LongitudeDegrees>-0.79901807941496372222900390625</LongitudeDegrees>
            </Position>
            <AltitudeMeters>52</AltitudeMeters>
            <DistanceMeters>NAN</DistanceMeters>
          </Trackpoint>
          <Trackpoint>
            <Time>2022-07-04T11:44:35.000Z</Time>
            <Position>
              <LatitudeDegrees>44.72169575281441211700439453125</LatitudeDegrees>
              <LongitudeDegrees>-0.7990231923758983612060546875</LongitudeDegrees>
            </Position>
            <AltitudeMeters>51.799999237060546875</AltitudeMeters>
            <DistanceMeters>NAN</DistanceMeters>
          </Trackpoint>
          <Trackpoint>
            <Time>2022-07-04T11:45:39.000Z</Time>
            <Position>
              <LatitudeDegrees>44.72167496569454669952392578125</LatitudeDegrees>
              <LongitudeDegrees>-0.79906518571078777313232421875</LongitudeDegrees>
            </Position>
            <AltitudeMeters>51.799999237060546875</AltitudeMeters>
            <DistanceMeters>NAN</DistanceMeters>
          </Trackpoint>
          <Trackpoint>
            <Time>2022-07-04T11:45:40.000Z</Time>
            <Position>
              <LatitudeDegrees>44.72166306339204311370849609375</LatitudeDegrees>
              <LongitudeDegrees>-0.79909150488674640655517578125</LongitudeDegrees>
            </Position>
            <AltitudeMeters>51.799999237060546875</AltitudeMeters>
            <DistanceMeters>NAN</DistanceMeters>
          </Trackpoint>
          <Trackpoint>
            <Time>2022-07-04T11:45:45.000Z</Time>
            <Position>
              <LatitudeDegrees>44.7215764783322811126708984375</LatitudeDegrees>
              <LongitudeDegrees>-0.79925201833248138427734375</LongitudeDegrees>
            </Position>
            <AltitudeMeters>51.40000152587890625</AltitudeMeters>
            <DistanceMeters>NAN</DistanceMeters>
          </Trackpoint>
          <Trackpoint>
            <Time>2022-07-04T11:45:50.000Z</Time>
            <Position>
              <LatitudeDegrees>44.7214611433446407318115234375</LatitudeDegrees>
              <LongitudeDegrees>-0.7994768209755420684814453125</LongitudeDegrees>
            </Position>
            <AltitudeMeters>51.40000152587890625</AltitudeMeters>
            <DistanceMeters>NAN</DistanceMeters>
          </Trackpoint>
          <Trackpoint>
            <Time>2022-07-04T11:45:59.000Z</Time>
            <Position>
              <LatitudeDegrees>44.7212539426982402801513671875</LatitudeDegrees>
              <LongitudeDegrees>-0.799884013831615447998046875</LongitudeDegrees>
            </Position>
            <AltitudeMeters>51.40000152587890625</AltitudeMeters>
            <DistanceMeters>NAN</DistanceMeters>
          </Trackpoint>
          <Trackpoint>
            <Time>2022-07-04T11:46:06.000Z</Time>
            <Position>
              <LatitudeDegrees>44.72105805762112140655517578125</LatitudeDegrees>
              <LongitudeDegrees>-0.800239406526088714599609375</LongitudeDegrees>
            </Position>
            <AltitudeMeters>51.40000152587890625</AltitudeMeters>
            <DistanceMeters>NAN</DistanceMeters>
          </Trackpoint>
          <Trackpoint>
            <Time>2022-07-04T11:46:13.000Z</Time>
            <Position>
              <LatitudeDegrees>44.7208526171743869781494140625</LatitudeDegrees>
              <LongitudeDegrees>-0.80061994493007659912109375</LongitudeDegrees>
            </Position>
            <AltitudeMeters>51.40000152587890625</AltitudeMeters>
            <DistanceMeters>NAN</DistanceMeters>
          </Trackpoint>
          <Trackpoint>
            <Time>2022-07-04T11:46:15.000Z</Time>
            <Position>
              <LatitudeDegrees>44.72079888917505741119384765625</LatitudeDegrees>
              <LongitudeDegrees>-0.80072832293808460235595703125</LongitudeDegrees>
            </Position>
            <AltitudeMeters>51.200000762939453125</AltitudeMeters>
            <DistanceMeters>NAN</DistanceMeters>
          </Trackpoint>
          <Trackpoint>
            <Time>2022-07-04T11:46:19.000Z</Time>
            <Position>
              <LatitudeDegrees>44.7206762619316577911376953125</LatitudeDegrees>
              <LongitudeDegrees>-0.80093518830835819244384765625</LongitudeDegrees>
            </Position>
            <AltitudeMeters>51</AltitudeMeters>
            <DistanceMeters>NAN</DistanceMeters>
          </Trackpoint>
          <Trackpoint>
            <Time>2022-07-04T11:46:25.000Z</Time>
            <Position>
              <LatitudeDegrees>44.72049931995570659637451171875</LatitudeDegrees>
              <LongitudeDegrees>-0.80125537700951099395751953125</LongitudeDegrees>
            </Position>
            <AltitudeMeters>50.799999237060546875</AltitudeMeters>
            <DistanceMeters>NAN</DistanceMeters>
          </Trackpoint>
          <Trackpoint>
            <Time>2022-07-04T11:46:35.000Z</Time>
            <Position>
              <LatitudeDegrees>44.72021869383752346038818359375</LatitudeDegrees>
              <LongitudeDegrees>-0.801767595112323760986328125</LongitudeDegrees>
            </Position>
            <AltitudeMeters>50.59999847412109375</AltitudeMeters>
            <DistanceMeters>NAN</DistanceMeters>
          </Trackpoint>
          <Trackpoint>
            <Time>2022-07-04T11:46:44.000Z</Time>
            <Position>
              <LatitudeDegrees>44.71999053843319416046142578125</LatitudeDegrees>
              <LongitudeDegrees>-0.802212841808795928955078125</LongitudeDegrees>
            </Position>
            <AltitudeMeters>50.40000152587890625</AltitudeMeters>
            <DistanceMeters>NAN</DistanceMeters>
          </Trackpoint>
          <Trackpoint>
            <Time>2022-07-04T11:46:52.000Z</Time>
            <Position>
              <LatitudeDegrees>44.7197542525827884674072265625</LatitudeDegrees>
              <LongitudeDegrees>-0.80264492891728878021240234375</LongitudeDegrees>
            </Position>
            <AltitudeMeters>50.200000762939453125</AltitudeMeters>
            <DistanceMeters>NAN</DistanceMeters>
          </Trackpoint>
          <Trackpoint>
            <Time>2022-07-04T11:47:00.000Z</Time>
            <Position>
              <LatitudeDegrees>44.7195255942642688751220703125</LatitudeDegrees>
              <LongitudeDegrees>-0.80307140015065670013427734375</LongitudeDegrees>
            </Position>
            <AltitudeMeters>50.59999847412109375</AltitudeMeters>
            <DistanceMeters>NAN</DistanceMeters>
          </Trackpoint>
          <Trackpoint>
            <Time>2022-07-04T11:47:04.000Z</Time>
            <Position>
              <LatitudeDegrees>44.71942744217813014984130859375</LatitudeDegrees>
              <LongitudeDegrees>-0.803285725414752960205078125</LongitudeDegrees>
            </Position>
            <AltitudeMeters>50.40000152587890625</AltitudeMeters>
            <DistanceMeters>NAN</DistanceMeters>
          </Trackpoint>
          <Trackpoint>
            <Time>2022-07-04T11:47:07.000Z</Time>
            <Position>
              <LatitudeDegrees>44.71933758817613124847412109375</LatitudeDegrees>
              <LongitudeDegrees>-0.80344221554696559906005859375</LongitudeDegrees>
            </Position>
            <AltitudeMeters>50.40000152587890625</AltitudeMeters>
            <DistanceMeters>NAN</DistanceMeters>
          </Trackpoint>
          <Trackpoint>
            <Time>2022-07-04T11:47:16.000Z</Time>
            <Position>
              <LatitudeDegrees>44.7190950997173786163330078125</LatitudeDegrees>
              <LongitudeDegrees>-0.8038598857820034027099609375</LongitudeDegrees>
            </Position>
            <AltitudeMeters>50.40000152587890625</AltitudeMeters>
            <DistanceMeters>NAN</DistanceMeters>
          </Trackpoint>
          <Trackpoint>
            <Time>2022-07-04T11:47:18.000Z</Time>
            <Position>
              <LatitudeDegrees>44.71903667785227298736572265625</LatitudeDegrees>
              <LongitudeDegrees>-0.80396038480103015899658203125</LongitudeDegrees>
            </Position>
            <AltitudeMeters>50.40000152587890625</AltitudeMeters>
            <DistanceMeters>NAN</DistanceMeters>
          </Trackpoint>
          <Trackpoint>
            <Time>2022-07-04T11:47:20.000Z</Time>
            <Position>
              <LatitudeDegrees>44.71898772753775119781494140625</LatitudeDegrees>
              <LongitudeDegrees>-0.80405727960169315338134765625</LongitudeDegrees>
            </Position>
            <AltitudeMeters>50.59999847412109375</AltitudeMeters>
            <DistanceMeters>NAN</DistanceMeters>
          </Trackpoint>
          <Trackpoint>
            <Time>2022-07-04T11:47:22.000Z</Time>
            <Position>
              <LatitudeDegrees>44.718927629292011260986328125</LatitudeDegrees>
              <LongitudeDegrees>-0.8041515760123729705810546875</LongitudeDegrees>
            </Position>
            <AltitudeMeters>50.59999847412109375</AltitudeMeters>
            <DistanceMeters>NAN</DistanceMeters>
          </Trackpoint>
          <Trackpoint>
            <Time>2022-07-04T11:47:23.000Z</Time>
            <Position>
              <LatitudeDegrees>44.71889938227832317352294921875</LatitudeDegrees>
              <LongitudeDegrees>-0.80420027486979961395263671875</LongitudeDegrees>
            </Position>
            <AltitudeMeters>50.59999847412109375</AltitudeMeters>
            <DistanceMeters>NAN</DistanceMeters>
          </Trackpoint>
          <Trackpoint>
            <Time>2022-07-04T11:47:30.000Z</Time>
            <Position>
              <LatitudeDegrees>44.7187061794102191925048828125</LatitudeDegrees>
              <LongitudeDegrees>-0.80456203781068325042724609375</LongitudeDegrees>
            </Position>
            <AltitudeMeters>50.40000152587890625</AltitudeMeters>
            <DistanceMeters>NAN</DistanceMeters>
          </Trackpoint>
          <Trackpoint>
            <Time>2022-07-04T11:47:40.000Z</Time>
            <Position>
              <LatitudeDegrees>44.718440137803554534912109375</LatitudeDegrees>
              <LongitudeDegrees>-0.80508875660598278045654296875</LongitudeDegrees>
            </Position>
            <AltitudeMeters>50.200000762939453125</AltitudeMeters>
            <DistanceMeters>NAN</DistanceMeters>
          </Trackpoint>
          <Trackpoint>
            <Time>2022-07-04T11:47:51.000Z</Time>
            <Position>
              <LatitudeDegrees>44.71814811229705810546875</LatitudeDegrees>
              <LongitudeDegrees>-0.80566744320094585418701171875</LongitudeDegrees>
            </Position>
            <AltitudeMeters>50.200000762939453125</AltitudeMeters>
            <DistanceMeters>NAN</DistanceMeters>
          </Trackpoint>
          <Trackpoint>
            <Time>2022-07-04T11:47:57.000Z</Time>
            <Position>
              <LatitudeDegrees>44.71798491664230823516845703125</LatitudeDegrees>
              <LongitudeDegrees>-0.805981345474720001220703125</LongitudeDegrees>
            </Position>
            <AltitudeMeters>50</AltitudeMeters>
            <DistanceMeters>NAN</DistanceMeters>
          </Trackpoint>
          <Trackpoint>
            <Time>2022-07-04T11:47:58.000Z</Time>
            <Position>
              <LatitudeDegrees>44.71795566380023956298828125</LatitudeDegrees>
              <LongitudeDegrees>-0.80603540875017642974853515625</LongitudeDegrees>
            </Position>
            <AltitudeMeters>50</AltitudeMeters>
            <DistanceMeters>NAN</DistanceMeters>
          </Trackpoint>
          <Trackpoint>
            <Time>2022-07-04T11:48:08.000Z</Time>
            <Position>
              <LatitudeDegrees>44.71765718422830104827880859375</LatitudeDegrees>
              <LongitudeDegrees>-0.8065789751708507537841796875</LongitudeDegrees>
            </Position>
            <AltitudeMeters>50.200000762939453125</AltitudeMeters>
            <DistanceMeters>NAN</DistanceMeters>
          </Trackpoint>
          <Trackpoint>
            <Time>2022-07-04T11:48:12.000Z</Time>
            <Position>
              <LatitudeDegrees>44.7175303660333156585693359375</LatitudeDegrees>
              <LongitudeDegrees>-0.8067764528095722198486328125</LongitudeDegrees>
            </Position>
            <AltitudeMeters>50.200000762939453125</AltitudeMeters>
            <DistanceMeters>NAN</DistanceMeters>
          </Trackpoint>
          <Trackpoint>
            <Time>2022-07-04T11:48:15.000Z</Time>
            <Position>
              <LatitudeDegrees>44.71744277514517307281494140625</LatitudeDegrees>
              <LongitudeDegrees>-0.80694903619587421417236328125</LongitudeDegrees>
            </Position>
            <AltitudeMeters>50.200000762939453125</AltitudeMeters>
            <DistanceMeters>NAN</DistanceMeters>
          </Trackpoint>
          <Trackpoint>
            <Time>2022-07-04T11:48:22.000Z</Time>
            <Position>
              <LatitudeDegrees>44.7172473929822444915771484375</LatitudeDegrees>
              <LongitudeDegrees>-0.80733762122690677642822265625</LongitudeDegrees>
            </Position>
            <AltitudeMeters>50.200000762939453125</AltitudeMeters>
            <DistanceMeters>NAN</DistanceMeters>
          </Trackpoint>
          <Trackpoint>
            <Time>2022-07-04T11:48:28.000Z</Time>
            <Position>
              <LatitudeDegrees>44.71707321703433990478515625</LatitudeDegrees>
              <LongitudeDegrees>-0.8076521940529346466064453125</LongitudeDegrees>
            </Position>
            <AltitudeMeters>50</AltitudeMeters>
            <DistanceMeters>NAN</DistanceMeters>
          </Trackpoint>
          <Trackpoint>
            <Time>2022-07-04T11:48:31.000Z</Time>
            <Position>
              <LatitudeDegrees>44.7169915772974491119384765625</LatitudeDegrees>
              <LongitudeDegrees>-0.8078107796609401702880859375</LongitudeDegrees>
            </Position>
            <AltitudeMeters>50</AltitudeMeters>
            <DistanceMeters>NAN</DistanceMeters>
          </Trackpoint>
          <Trackpoint>
            <Time>2022-07-04T11:48:41.000Z</Time>
            <Position>
              <LatitudeDegrees>44.71671111881732940673828125</LatitudeDegrees>
              <LongitudeDegrees>-0.808352418243885040283203125</LongitudeDegrees>
            </Position>
            <AltitudeMeters>50</AltitudeMeters>
            <DistanceMeters>NAN</DistanceMeters>
          </Trackpoint>
          <Trackpoint>
            <Time>2022-07-04T11:48:49.000Z</Time>
            <Position>
              <LatitudeDegrees>44.71649159677326679229736328125</LatitudeDegrees>
              <LongitudeDegrees>-0.80876522697508335113525390625</LongitudeDegrees>
            </Position>
            <AltitudeMeters>50</AltitudeMeters>
            <DistanceMeters>NAN</DistanceMeters>
          </Trackpoint>
          <Trackpoint>
            <Time>2022-07-04T11:48:51.000Z</Time>
            <Position>
              <LatitudeDegrees>44.71643057651817798614501953125</LatitudeDegrees>
              <LongitudeDegrees>-0.80884753726422786712646484375</LongitudeDegrees>
            </Position>
            <AltitudeMeters>50</AltitudeMeters>
            <DistanceMeters>NAN</DistanceMeters>
          </Trackpoint>
          <Trackpoint>
            <Time>2022-07-04T11:48:55.000Z</Time>
            <Position>
              <LatitudeDegrees>44.71632027067244052886962890625</LatitudeDegrees>
              <LongitudeDegrees>-0.80905674956738948822021484375</LongitudeDegrees>
            </Position>
            <AltitudeMeters>50</AltitudeMeters>
            <DistanceMeters>NAN</DistanceMeters>
          </Trackpoint>
          <Trackpoint>
            <Time>2022-07-04T11:49:00.000Z</Time>
            <Position>
              <LatitudeDegrees>44.71617861650884151458740234375</LatitudeDegrees>
              <LongitudeDegrees>-0.8093148283660411834716796875</LongitudeDegrees>
            </Position>
            <AltitudeMeters>50</AltitudeMeters>
            <DistanceMeters>NAN</DistanceMeters>
          </Trackpoint>
          <Trackpoint>
            <Time>2022-07-04T11:49:03.000Z</Time>
            <Position>
              <LatitudeDegrees>44.71609211526811122894287109375</LatitudeDegrees>
              <LongitudeDegrees>-0.8094697259366512298583984375</LongitudeDegrees>
            </Position>
            <AltitudeMeters>49.799999237060546875</AltitudeMeters>
            <DistanceMeters>NAN</DistanceMeters>
          </Trackpoint>
          <Trackpoint>
            <Time>2022-07-04T11:49:10.000Z</Time>
            <Position>
              <LatitudeDegrees>44.71591659821569919586181640625</LatitudeDegrees>
              <LongitudeDegrees>-0.80980961211025714874267578125</LongitudeDegrees>
            </Position>
            <AltitudeMeters>50</AltitudeMeters>
            <DistanceMeters>NAN</DistanceMeters>
          </Trackpoint>
          <Trackpoint>
            <Time>2022-07-04T11:49:18.000Z</Time>
            <Position>
              <LatitudeDegrees>44.7156980820000171661376953125</LatitudeDegrees>
              <LongitudeDegrees>-0.810233317315578460693359375</LongitudeDegrees>
            </Position>
            <AltitudeMeters>50</AltitudeMeters>
            <DistanceMeters>NAN</DistanceMeters>
          </Trackpoint>
          <Trackpoint>
            <Time>2022-07-04T11:49:19.000Z</Time>
            <Position>
              <LatitudeDegrees>44.7156737744808197021484375</LatitudeDegrees>
              <LongitudeDegrees>-0.81028402782976627349853515625</LongitudeDegrees>
            </Position>
            <AltitudeMeters>50</AltitudeMeters>
            <DistanceMeters>NAN</DistanceMeters>
          </Trackpoint>
          <Trackpoint>
            <Time>2022-07-04T11:49:20.000Z</Time>
            <Position>
              <LatitudeDegrees>44.71564888022840023040771484375</LatitudeDegrees>
              <LongitudeDegrees>-0.81033498980104923248291015625</LongitudeDegrees>
            </Position>
            <AltitudeMeters>50</AltitudeMeters>
            <DistanceMeters>NAN</DistanceMeters>
          </Trackpoint>
          <Trackpoint>
            <Time>2022-07-04T11:49:22.000Z</Time>
            <Position>
              <LatitudeDegrees>44.7155894525349140167236328125</LatitudeDegrees>
              <LongitudeDegrees>-0.8104334771633148193359375</LongitudeDegrees>
            </Position>
            <AltitudeMeters>50</AltitudeMeters>
            <DistanceMeters>NAN</DistanceMeters>
          </Trackpoint>
          <Trackpoint>
            <Time>2022-07-04T11:49:26.000Z</Time>
            <Position>
              <LatitudeDegrees>44.7154819965362548828125</LatitudeDegrees>
              <LongitudeDegrees>-0.81066171638667583465576171875</LongitudeDegrees>
            </Position>
            <AltitudeMeters>49.799999237060546875</AltitudeMeters>
            <DistanceMeters>NAN</DistanceMeters>
          </Trackpoint>
          <Trackpoint>
            <Time>2022-07-04T11:49:29.000Z</Time>
            <Position>
              <LatitudeDegrees>44.71539323218166828155517578125</LatitudeDegrees>
              <LongitudeDegrees>-0.8108249120414257049560546875</LongitudeDegrees>
            </Position>
            <AltitudeMeters>49.59999847412109375</AltitudeMeters>
            <DistanceMeters>NAN</DistanceMeters>
          </Trackpoint>
          <Trackpoint>
            <Time>2022-07-04T11:49:34.000Z</Time>
            <Position>
              <LatitudeDegrees>44.71525870263576507568359375</LatitudeDegrees>
              <LongitudeDegrees>-0.8110713399946689605712890625</LongitudeDegrees>
            </Position>
            <AltitudeMeters>49.40000152587890625</AltitudeMeters>
            <DistanceMeters>NAN</DistanceMeters>
          </Trackpoint>
          <Trackpoint>
            <Time>2022-07-04T11:49:42.000Z</Time>
            <Position>
              <LatitudeDegrees>44.715054519474506378173828125</LatitudeDegrees>
              <LongitudeDegrees>-0.81147492863237857818603515625</LongitudeDegrees>
            </Position>
            <AltitudeMeters>49.40000152587890625</AltitudeMeters>
            <DistanceMeters>NAN</DistanceMeters>
          </Trackpoint>
          <Trackpoint>
            <Time>2022-07-04T11:49:45.000Z</Time>
            <Position>
              <LatitudeDegrees>44.71497665159404277801513671875</LatitudeDegrees>
              <LongitudeDegrees>-0.811606943607330322265625</LongitudeDegrees>
            </Position>
            <AltitudeMeters>49.40000152587890625</AltitudeMeters>
            <DistanceMeters>NAN</DistanceMeters>
          </Trackpoint>
          <Trackpoint>
            <Time>2022-07-04T11:49:48.000Z</Time>
            <Position>
              <LatitudeDegrees>44.7148981131613254547119140625</LatitudeDegrees>
              <LongitudeDegrees>-0.8117412216961383819580078125</LongitudeDegrees>
            </Position>
            <AltitudeMeters>49.59999847412109375</AltitudeMeters>
            <DistanceMeters>NAN</DistanceMeters>
          </Trackpoint>
          <Trackpoint>
            <Time>2022-07-04T11:49:55.000Z</Time>
            <Position>
              <LatitudeDegrees>44.71471865661442279815673828125</LatitudeDegrees>
              <LongitudeDegrees>-0.81207306124269962310791015625</LongitudeDegrees>
            </Position>
            <AltitudeMeters>49.59999847412109375</AltitudeMeters>
            <DistanceMeters>NAN</DistanceMeters>
          </Trackpoint>
          <Trackpoint>
            <Time>2022-07-04T11:50:00.000Z</Time>
            <Position>
              <LatitudeDegrees>44.71464154310524463653564453125</LatitudeDegrees>
              <LongitudeDegrees>-0.81225913949310779571533203125</LongitudeDegrees>
            </Position>
            <AltitudeMeters>49.59999847412109375</AltitudeMeters>
            <DistanceMeters>NAN</DistanceMeters>
          </Trackpoint>
          <Trackpoint>
            <Time>2022-07-04T11:50:04.000Z</Time>
            <Position>
              <LatitudeDegrees>44.7146285511553287506103515625</LatitudeDegrees>
              <LongitudeDegrees>-0.8123118616640567779541015625</LongitudeDegrees>
            </Position>
            <AltitudeMeters>49</AltitudeMeters>
            <DistanceMeters>NAN</DistanceMeters>
          </Trackpoint>
          <Trackpoint>
            <Time>2022-07-04T11:50:05.000Z</Time>
            <Position>
              <LatitudeDegrees>44.7146285511553287506103515625</LatitudeDegrees>
              <LongitudeDegrees>-0.8123118616640567779541015625</LongitudeDegrees>
            </Position>
            <AltitudeMeters>48.799999237060546875</AltitudeMeters>
            <DistanceMeters>NAN</DistanceMeters>
          </Trackpoint>
          <Trackpoint>
            <Time>2022-07-04T11:52:19.000Z</Time>
            <Position>
              <LatitudeDegrees>44.71458018757402896881103515625</LatitudeDegrees>
              <LongitudeDegrees>-0.81236131489276885986328125</LongitudeDegrees>
            </Position>
            <AltitudeMeters>48.40000152587890625</AltitudeMeters>
            <DistanceMeters>NAN</DistanceMeters>
          </Trackpoint>
          <Trackpoint>
            <Time>2022-07-04T11:52:20.000Z</Time>
            <Position>
              <LatitudeDegrees>44.71457029692828655242919921875</LatitudeDegrees>
              <LongitudeDegrees>-0.81237648613750934600830078125</LongitudeDegrees>
            </Position>
            <AltitudeMeters>48.59999847412109375</AltitudeMeters>
            <DistanceMeters>NAN</DistanceMeters>
          </Trackpoint>
          <Trackpoint>
            <Time>2022-07-04T11:52:22.000Z</Time>
            <Position>
              <LatitudeDegrees>44.71453844569623470306396484375</LatitudeDegrees>
              <LongitudeDegrees>-0.81242032349109649658203125</LongitudeDegrees>
            </Position>
            <AltitudeMeters>48.799999237060546875</AltitudeMeters>
            <DistanceMeters>NAN</DistanceMeters>
          </Trackpoint>
          <Trackpoint>
            <Time>2022-07-04T11:52:26.000Z</Time>
            <Position>
              <LatitudeDegrees>44.7144679538905620574951171875</LatitudeDegrees>
              <LongitudeDegrees>-0.81254102289676666259765625</LongitudeDegrees>
            </Position>
            <AltitudeMeters>49</AltitudeMeters>
            <DistanceMeters>NAN</DistanceMeters>
          </Trackpoint>
          <Trackpoint>
            <Time>2022-07-04T11:52:29.000Z</Time>
            <Position>
              <LatitudeDegrees>44.71440232358872890472412109375</LatitudeDegrees>
              <LongitudeDegrees>-0.81265493296086788177490234375</LongitudeDegrees>
            </Position>
            <AltitudeMeters>49.200000762939453125</AltitudeMeters>
            <DistanceMeters>NAN</DistanceMeters>
          </Trackpoint>
          <Trackpoint>
            <Time>2022-07-04T11:52:38.000Z</Time>
            <Position>
              <LatitudeDegrees>44.71420861780643463134765625</LatitudeDegrees>
              <LongitudeDegrees>-0.81302742473781108856201171875</LongitudeDegrees>
            </Position>
            <AltitudeMeters>48.799999237060546875</AltitudeMeters>
            <DistanceMeters>NAN</DistanceMeters>
          </Trackpoint>
          <Trackpoint>
            <Time>2022-07-04T11:52:40.000Z</Time>
            <Position>
              <LatitudeDegrees>44.7141591645777225494384765625</LatitudeDegrees>
              <LongitudeDegrees>-0.81312415190041065216064453125</LongitudeDegrees>
            </Position>
            <AltitudeMeters>48.799999237060546875</AltitudeMeters>
            <DistanceMeters>NAN</DistanceMeters>
          </Trackpoint>
          <Trackpoint>
            <Time>2022-07-04T11:52:48.000Z</Time>
            <Position>
              <LatitudeDegrees>44.71397333778440952301025390625</LatitudeDegrees>
              <LongitudeDegrees>-0.81348717212677001953125</LongitudeDegrees>
            </Position>
            <AltitudeMeters>49.200000762939453125</AltitudeMeters>
            <DistanceMeters>NAN</DistanceMeters>
          </Trackpoint>
          <Trackpoint>
            <Time>2022-07-04T11:52:54.000Z</Time>
            <Position>
              <LatitudeDegrees>44.71381701529026031494140625</LatitudeDegrees>
              <LongitudeDegrees>-0.8137914352118968963623046875</LongitudeDegrees>
            </Position>
            <AltitudeMeters>48.799999237060546875</AltitudeMeters>
            <DistanceMeters>NAN</DistanceMeters>
          </Trackpoint>
          <Trackpoint>
            <Time>2022-07-04T11:52:58.000Z</Time>
            <Position>
              <LatitudeDegrees>44.7137103974819183349609375</LatitudeDegrees>
              <LongitudeDegrees>-0.81401229836046695709228515625</LongitudeDegrees>
            </Position>
            <AltitudeMeters>48.40000152587890625</AltitudeMeters>
            <DistanceMeters>NAN</DistanceMeters>
          </Trackpoint>
          <Trackpoint>
            <Time>2022-07-04T11:52:59.000Z</Time>
            <Position>
              <LatitudeDegrees>44.713687933981418609619140625</LatitudeDegrees>
              <LongitudeDegrees>-0.81406896002590656280517578125</LongitudeDegrees>
            </Position>
            <AltitudeMeters>48.40000152587890625</AltitudeMeters>
            <DistanceMeters>NAN</DistanceMeters>
          </Trackpoint>
          <Trackpoint>
            <Time>2022-07-04T11:53:08.000Z</Time>
            <Position>
              <LatitudeDegrees>44.7134450264275074005126953125</LatitudeDegrees>
              <LongitudeDegrees>-0.814518146216869354248046875</LongitudeDegrees>
            </Position>
            <AltitudeMeters>48.40000152587890625</AltitudeMeters>
            <DistanceMeters>NAN</DistanceMeters>
          </Trackpoint>
          <Trackpoint>
            <Time>2022-07-04T11:53:13.000Z</Time>
            <Position>
              <LatitudeDegrees>44.71331871114671230316162109375</LatitudeDegrees>
              <LongitudeDegrees>-0.81475778482854366302490234375</LongitudeDegrees>
            </Position>
            <AltitudeMeters>48</AltitudeMeters>
            <DistanceMeters>NAN</DistanceMeters>
          </Trackpoint>
          <Trackpoint>
            <Time>2022-07-04T11:53:18.000Z</Time>
            <Position>
              <LatitudeDegrees>44.713194407522678375244140625</LatitudeDegrees>
              <LongitudeDegrees>-0.81499465741217136383056640625</LongitudeDegrees>
            </Position>
            <AltitudeMeters>48</AltitudeMeters>
            <DistanceMeters>NAN</DistanceMeters>
          </Trackpoint>
          <Trackpoint>
            <Time>2022-07-04T11:53:21.000Z</Time>
            <Position>
              <LatitudeDegrees>44.713107235729694366455078125</LatitudeDegrees>
              <LongitudeDegrees>-0.81514067016541957855224609375</LongitudeDegrees>
            </Position>
            <AltitudeMeters>48</AltitudeMeters>
            <DistanceMeters>NAN</DistanceMeters>
          </Trackpoint>
          <Trackpoint>
            <Time>2022-07-04T11:53:25.000Z</Time>
            <Position>
              <LatitudeDegrees>44.7129937447607517242431640625</LatitudeDegrees>
              <LongitudeDegrees>-0.81532876007258892059326171875</LongitudeDegrees>
            </Position>
            <AltitudeMeters>48</AltitudeMeters>
            <DistanceMeters>NAN</DistanceMeters>
          </Trackpoint>
          <Trackpoint>
            <Time>2022-07-04T11:53:29.000Z</Time>
            <Position>
              <LatitudeDegrees>44.71289525739848613739013671875</LatitudeDegrees>
              <LongitudeDegrees>-0.81551232375204563140869140625</LongitudeDegrees>
            </Position>
            <AltitudeMeters>48.200000762939453125</AltitudeMeters>
            <DistanceMeters>NAN</DistanceMeters>
          </Trackpoint>
          <Trackpoint>
            <Time>2022-07-04T11:53:36.000Z</Time>
            <Position>
              <LatitudeDegrees>44.71272208727896213531494140625</LatitudeDegrees>
              <LongitudeDegrees>-0.81587190739810466766357421875</LongitudeDegrees>
            </Position>
            <AltitudeMeters>48.200000762939453125</AltitudeMeters>
            <DistanceMeters>NAN</DistanceMeters>
          </Trackpoint>
          <Trackpoint>
            <Time>2022-07-04T11:53:37.000Z</Time>
            <Position>
              <LatitudeDegrees>44.71270012669265270233154296875</LatitudeDegrees>
              <LongitudeDegrees>-0.81591130234301090240478515625</LongitudeDegrees>
            </Position>
            <AltitudeMeters>48.200000762939453125</AltitudeMeters>
            <DistanceMeters>NAN</DistanceMeters>
          </Trackpoint>
          <Trackpoint>
            <Time>2022-07-04T11:53:43.000Z</Time>
            <Position>
              <LatitudeDegrees>44.71254036761820316314697265625</LatitudeDegrees>
              <LongitudeDegrees>-0.8162245340645313262939453125</LongitudeDegrees>
            </Position>
            <AltitudeMeters>47.799999237060546875</AltitudeMeters>
            <DistanceMeters>NAN</DistanceMeters>
          </Trackpoint>
          <Trackpoint>
            <Time>2022-07-04T11:53:46.000Z</Time>
            <Position>
              <LatitudeDegrees>44.71245520748198032379150390625</LatitudeDegrees>
              <LongitudeDegrees>-0.8163826167583465576171875</LongitudeDegrees>
            </Position>
            <AltitudeMeters>47.799999237060546875</AltitudeMeters>
            <DistanceMeters>NAN</DistanceMeters>
          </Trackpoint>
          <Trackpoint>
            <Time>2022-07-04T11:53:56.000Z</Time>
            <Position>
              <LatitudeDegrees>44.71218162216246128082275390625</LatitudeDegrees>
              <LongitudeDegrees>-0.8168732933700084686279296875</LongitudeDegrees>
            </Position>
            <AltitudeMeters>48</AltitudeMeters>
            <DistanceMeters>NAN</DistanceMeters>
          </Trackpoint>
          <Trackpoint>
            <Time>2022-07-04T11:53:59.000Z</Time>
            <Position>
              <LatitudeDegrees>44.71210819669067859649658203125</LatitudeDegrees>
              <LongitudeDegrees>-0.81702861003577709197998046875</LongitudeDegrees>
            </Position>
            <AltitudeMeters>48</AltitudeMeters>
            <DistanceMeters>NAN</DistanceMeters>
          </Trackpoint>
          <Trackpoint>
            <Time>2022-07-04T11:54:08.000Z</Time>
            <Position>
              <LatitudeDegrees>44.71187383867800235748291015625</LatitudeDegrees>
              <LongitudeDegrees>-0.81745742820203304290771484375</LongitudeDegrees>
            </Position>
            <AltitudeMeters>47.59999847412109375</AltitudeMeters>
            <DistanceMeters>NAN</DistanceMeters>
          </Trackpoint>
          <Trackpoint>
            <Time>2022-07-04T11:54:16.000Z</Time>
            <Position>
              <LatitudeDegrees>44.71165456809103488922119140625</LatitudeDegrees>
              <LongitudeDegrees>-0.81784240901470184326171875</LongitudeDegrees>
            </Position>
            <AltitudeMeters>47.40000152587890625</AltitudeMeters>
            <DistanceMeters>NAN</DistanceMeters>
          </Trackpoint>
          <Trackpoint>
            <Time>2022-07-04T11:54:20.000Z</Time>
            <Position>
              <LatitudeDegrees>44.71155901439487934112548828125</LatitudeDegrees>
              <LongitudeDegrees>-0.81804315559566020965576171875</LongitudeDegrees>
            </Position>
            <AltitudeMeters>47.40000152587890625</AltitudeMeters>
            <DistanceMeters>NAN</DistanceMeters>
          </Trackpoint>
          <Trackpoint>
            <Time>2022-07-04T11:54:22.000Z</Time>
            <Position>
              <LatitudeDegrees>44.7115088067948818206787109375</LatitudeDegrees>
              <LongitudeDegrees>-0.818143151700496673583984375</LongitudeDegrees>
            </Position>
            <AltitudeMeters>47.40000152587890625</AltitudeMeters>
            <DistanceMeters>NAN</DistanceMeters>
          </Trackpoint>
          <Trackpoint>
            <Time>2022-07-04T11:54:25.000Z</Time>
            <Position>
              <LatitudeDegrees>44.7114293463528156280517578125</LatitudeDegrees>
              <LongitudeDegrees>-0.81830048002302646636962890625</LongitudeDegrees>
            </Position>
            <AltitudeMeters>47.40000152587890625</AltitudeMeters>
            <DistanceMeters>NAN</DistanceMeters>
          </Trackpoint>
          <Trackpoint>
            <Time>2022-07-04T11:54:35.000Z</Time>
            <Position>
              <LatitudeDegrees>44.71116296947002410888671875</LatitudeDegrees>
              <LongitudeDegrees>-0.81881529651582241058349609375</LongitudeDegrees>
            </Position>
            <AltitudeMeters>47.40000152587890625</AltitudeMeters>
            <DistanceMeters>NAN</DistanceMeters>
          </Trackpoint>
          <Trackpoint>
            <Time>2022-07-04T11:54:39.000Z</Time>
            <Position>
              <LatitudeDegrees>44.71105299890041351318359375</LatitudeDegrees>
              <LongitudeDegrees>-0.81901193596422672271728515625</LongitudeDegrees>
            </Position>
            <AltitudeMeters>47.200000762939453125</AltitudeMeters>
            <DistanceMeters>NAN</DistanceMeters>
          </Trackpoint>
          <Trackpoint>
            <Time>2022-07-04T11:54:43.000Z</Time>
            <Position>
              <LatitudeDegrees>44.710938669741153717041015625</LatitudeDegrees>
              <LongitudeDegrees>-0.8191769756376743316650390625</LongitudeDegrees>
            </Position>
            <AltitudeMeters>47</AltitudeMeters>
            <DistanceMeters>NAN</DistanceMeters>
          </Trackpoint>
          <Trackpoint>
            <Time>2022-07-04T11:54:49.000Z</Time>
            <Position>
              <LatitudeDegrees>44.71079341135919094085693359375</LatitudeDegrees>
              <LongitudeDegrees>-0.8194269239902496337890625</LongitudeDegrees>
            </Position>
            <AltitudeMeters>47.40000152587890625</AltitudeMeters>
            <DistanceMeters>NAN</DistanceMeters>
          </Trackpoint>
          <Trackpoint>
            <Time>2022-07-04T11:54:54.000Z</Time>
            <Position>
              <LatitudeDegrees>44.71067304722964763641357421875</LatitudeDegrees>
              <LongitudeDegrees>-0.8196584321558475494384765625</LongitudeDegrees>
            </Position>
            <AltitudeMeters>47.799999237060546875</AltitudeMeters>
            <DistanceMeters>NAN</DistanceMeters>
          </Trackpoint>
          <Trackpoint>
            <Time>2022-07-04T11:55:00.000Z</Time>
            <Position>
              <LatitudeDegrees>44.71051999367773532867431640625</LatitudeDegrees>
              <LongitudeDegrees>-0.8199115656316280364990234375</LongitudeDegrees>
            </Position>
            <AltitudeMeters>47.40000152587890625</AltitudeMeters>
            <DistanceMeters>NAN</DistanceMeters>
          </Trackpoint>
          <Trackpoint>
            <Time>2022-07-04T11:55:03.000Z</Time>
            <Position>
              <LatitudeDegrees>44.71042997203767299652099609375</LatitudeDegrees>
              <LongitudeDegrees>-0.81992003135383129119873046875</LongitudeDegrees>
            </Position>
            <AltitudeMeters>47</AltitudeMeters>
            <DistanceMeters>NAN</DistanceMeters>
          </Trackpoint>
          <Trackpoint>
            <Time>2022-07-04T11:55:06.000Z</Time>
            <Position>
              <LatitudeDegrees>44.710333831608295440673828125</LatitudeDegrees>
              <LongitudeDegrees>-0.819871164858341217041015625</LongitudeDegrees>
            </Position>
            <AltitudeMeters>46.799999237060546875</AltitudeMeters>
            <DistanceMeters>NAN</DistanceMeters>
          </Trackpoint>
          <Trackpoint>
            <Time>2022-07-04T11:55:07.000Z</Time>
            <Position>
              <LatitudeDegrees>44.71030742861330509185791015625</LatitudeDegrees>
              <LongitudeDegrees>-0.81988080404698848724365234375</LongitudeDegrees>
            </Position>
            <AltitudeMeters>46.799999237060546875</AltitudeMeters>
            <DistanceMeters>NAN</DistanceMeters>
          </Trackpoint>
          <Trackpoint>
            <Time>2022-07-04T11:55:08.000Z</Time>
            <Position>
              <LatitudeDegrees>44.71028362400829792022705078125</LatitudeDegrees>
              <LongitudeDegrees>-0.819909386336803436279296875</LongitudeDegrees>
            </Position>
            <AltitudeMeters>46.59999847412109375</AltitudeMeters>
            <DistanceMeters>NAN</DistanceMeters>
          </Trackpoint>
          <Trackpoint>
            <Time>2022-07-04T11:55:10.000Z</Time>
            <Position>
              <LatitudeDegrees>44.71026979386806488037109375</LatitudeDegrees>
              <LongitudeDegrees>-0.81999488174915313720703125</LongitudeDegrees>
            </Position>
            <AltitudeMeters>46.59999847412109375</AltitudeMeters>
            <DistanceMeters>NAN</DistanceMeters>
          </Trackpoint>
          <Trackpoint>
            <Time>2022-07-04T11:55:14.000Z</Time>
            <Position>
              <LatitudeDegrees>44.71020751632750034332275390625</LatitudeDegrees>
              <LongitudeDegrees>-0.8201660402119159698486328125</LongitudeDegrees>
            </Position>
            <AltitudeMeters>46.59999847412109375</AltitudeMeters>
            <DistanceMeters>NAN</DistanceMeters>
          </Trackpoint>
          <Trackpoint>
            <Time>2022-07-04T11:55:20.000Z</Time>
            <Position>
              <LatitudeDegrees>44.71006921492516994476318359375</LatitudeDegrees>
              <LongitudeDegrees>-0.8204376138746738433837890625</LongitudeDegrees>
            </Position>
            <AltitudeMeters>47</AltitudeMeters>
            <DistanceMeters>NAN</DistanceMeters>
          </Trackpoint>
          <Trackpoint>
            <Time>2022-07-04T11:55:27.000Z</Time>
            <Position>
              <LatitudeDegrees>44.70990358851850032806396484375</LatitudeDegrees>
              <LongitudeDegrees>-0.82073785364627838134765625</LongitudeDegrees>
            </Position>
            <AltitudeMeters>47</AltitudeMeters>
            <DistanceMeters>NAN</DistanceMeters>
          </Trackpoint>
          <Trackpoint>
            <Time>2022-07-04T11:55:30.000Z</Time>
            <Position>
              <LatitudeDegrees>44.70982798375189304351806640625</LatitudeDegrees>
              <LongitudeDegrees>-0.82088805735111236572265625</LongitudeDegrees>
            </Position>
            <AltitudeMeters>47</AltitudeMeters>
            <DistanceMeters>NAN</DistanceMeters>
          </Trackpoint>
          <Trackpoint>
            <Time>2022-07-04T11:55:38.000Z</Time>
            <Position>
              <LatitudeDegrees>44.709646515548229217529296875</LatitudeDegrees>
              <LongitudeDegrees>-0.821230709552764892578125</LongitudeDegrees>
            </Position>
            <AltitudeMeters>46.799999237060546875</AltitudeMeters>
            <DistanceMeters>NAN</DistanceMeters>
          </Trackpoint>
          <Trackpoint>
            <Time>2022-07-04T11:55:47.000Z</Time>
            <Position>
              <LatitudeDegrees>44.70943219028413295745849609375</LatitudeDegrees>
              <LongitudeDegrees>-0.8216513134539127349853515625</LongitudeDegrees>
            </Position>
            <AltitudeMeters>47.200000762939453125</AltitudeMeters>
            <DistanceMeters>NAN</DistanceMeters>
          </Trackpoint>
          <Trackpoint>
            <Time>2022-07-04T11:55:54.000Z</Time>
            <Position>
              <LatitudeDegrees>44.7092654742300510406494140625</LatitudeDegrees>
              <LongitudeDegrees>-0.8219829015433788299560546875</LongitudeDegrees>
            </Position>
            <AltitudeMeters>47.40000152587890625</AltitudeMeters>
            <DistanceMeters>NAN</DistanceMeters>
          </Trackpoint>
          <Trackpoint>
            <Time>2022-07-04T11:56:05.000Z</Time>
            <Position>
              <LatitudeDegrees>44.70900907181203365325927734375</LatitudeDegrees>
              <LongitudeDegrees>-0.82245605997741222381591796875</LongitudeDegrees>
            </Position>
            <AltitudeMeters>47.59999847412109375</AltitudeMeters>
            <DistanceMeters>NAN</DistanceMeters>
          </Trackpoint>
          <Trackpoint>
            <Time>2022-07-04T11:56:13.000Z</Time>
            <Position>
              <LatitudeDegrees>44.70882969908416271209716796875</LatitudeDegrees>
              <LongitudeDegrees>-0.82281782291829586029052734375</LongitudeDegrees>
            </Position>
            <AltitudeMeters>47.59999847412109375</AltitudeMeters>
            <DistanceMeters>NAN</DistanceMeters>
          </Trackpoint>
          <Trackpoint>
            <Time>2022-07-04T11:56:17.000Z</Time>
            <Position>
              <LatitudeDegrees>44.708739928901195526123046875</LatitudeDegrees>
              <LongitudeDegrees>-0.82302535884082317352294921875</LongitudeDegrees>
            </Position>
            <AltitudeMeters>47.59999847412109375</AltitudeMeters>
            <DistanceMeters>NAN</DistanceMeters>
          </Trackpoint>
          <Trackpoint>
            <Time>2022-07-04T11:56:19.000Z</Time>
            <Position>
              <LatitudeDegrees>44.70868519507348537445068359375</LatitudeDegrees>
              <LongitudeDegrees>-0.8231278695166110992431640625</LongitudeDegrees>
            </Position>
            <AltitudeMeters>47.59999847412109375</AltitudeMeters>
            <DistanceMeters>NAN</DistanceMeters>
          </Trackpoint>
          <Trackpoint>
            <Time>2022-07-04T11:56:20.000Z</Time>
            <Position>
              <LatitudeDegrees>44.70865719951689243316650390625</LatitudeDegrees>
              <LongitudeDegrees>-0.82317740656435489654541015625</LongitudeDegrees>
            </Position>
            <AltitudeMeters>47.799999237060546875</AltitudeMeters>
            <DistanceMeters>NAN</DistanceMeters>
          </Trackpoint>
          <Trackpoint>
            <Time>2022-07-04T11:56:29.000Z</Time>
            <Position>
              <LatitudeDegrees>44.708441533148288726806640625</LatitudeDegrees>
              <LongitudeDegrees>-0.8235821686685085296630859375</LongitudeDegrees>
            </Position>
            <AltitudeMeters>47.799999237060546875</AltitudeMeters>
            <DistanceMeters>NAN</DistanceMeters>
          </Trackpoint>
          <Trackpoint>
            <Time>2022-07-04T11:56:36.000Z</Time>
            <Position>
              <LatitudeDegrees>44.70831890590488910675048828125</LatitudeDegrees>
              <LongitudeDegrees>-0.82381434738636016845703125</LongitudeDegrees>
            </Position>
            <AltitudeMeters>47.200000762939453125</AltitudeMeters>
            <DistanceMeters>NAN</DistanceMeters>
          </Trackpoint>
          <Trackpoint>
            <Time>2022-07-04T11:56:38.000Z</Time>
            <Position>
              <LatitudeDegrees>44.7083173133432865142822265625</LatitudeDegrees>
              <LongitudeDegrees>-0.82381610758602619171142578125</LongitudeDegrees>
            </Position>
            <AltitudeMeters>47</AltitudeMeters>
            <DistanceMeters>NAN</DistanceMeters>
          </Trackpoint>
          <Trackpoint>
            <Time>2022-07-04T11:59:01.000Z</Time>
            <Position>
              <LatitudeDegrees>44.70825553871691226959228515625</LatitudeDegrees>
              <LongitudeDegrees>-0.8239033631980419158935546875</LongitudeDegrees>
            </Position>
            <AltitudeMeters>47.40000152587890625</AltitudeMeters>
            <DistanceMeters>NAN</DistanceMeters>
          </Trackpoint>
          <Trackpoint>
            <Time>2022-07-04T11:59:02.000Z</Time>
            <Position>
              <LatitudeDegrees>44.7082435525953769683837890625</LatitudeDegrees>
              <LongitudeDegrees>-0.823933370411396026611328125</LongitudeDegrees>
            </Position>
            <AltitudeMeters>47.40000152587890625</AltitudeMeters>
            <DistanceMeters>NAN</DistanceMeters>
          </Trackpoint>
          <Trackpoint>
            <Time>2022-07-04T11:59:07.000Z</Time>
            <Position>
              <LatitudeDegrees>44.7081536985933780670166015625</LatitudeDegrees>
              <LongitudeDegrees>-0.82411182112991809844970703125</LongitudeDegrees>
            </Position>
            <AltitudeMeters>47.799999237060546875</AltitudeMeters>
            <DistanceMeters>NAN</DistanceMeters>
          </Trackpoint>
          <Trackpoint>
            <Time>2022-07-04T11:59:14.000Z</Time>
            <Position>
              <LatitudeDegrees>44.708022773265838623046875</LatitudeDegrees>
              <LongitudeDegrees>-0.82439906895160675048828125</LongitudeDegrees>
            </Position>
            <AltitudeMeters>47.799999237060546875</AltitudeMeters>
            <DistanceMeters>NAN</DistanceMeters>
          </Trackpoint>
          <Trackpoint>
            <Time>2022-07-04T11:59:22.000Z</Time>
            <Position>
              <LatitudeDegrees>44.7078358568251132965087890625</LatitudeDegrees>
              <LongitudeDegrees>-0.824754796922206878662109375</LongitudeDegrees>
            </Position>
            <AltitudeMeters>48</AltitudeMeters>
            <DistanceMeters>NAN</DistanceMeters>
          </Trackpoint>
          <Trackpoint>
            <Time>2022-07-04T11:59:29.000Z</Time>
            <Position>
              <LatitudeDegrees>44.70767266117036342620849609375</LatitudeDegrees>
              <LongitudeDegrees>-0.8250865526497364044189453125</LongitudeDegrees>
            </Position>
            <AltitudeMeters>47.799999237060546875</AltitudeMeters>
            <DistanceMeters>NAN</DistanceMeters>
          </Trackpoint>
          <Trackpoint>
            <Time>2022-07-04T11:59:36.000Z</Time>
            <Position>
              <LatitudeDegrees>44.70748306252062320709228515625</LatitudeDegrees>
              <LongitudeDegrees>-0.8254540152847766876220703125</LongitudeDegrees>
            </Position>
            <AltitudeMeters>47.59999847412109375</AltitudeMeters>
            <DistanceMeters>NAN</DistanceMeters>
          </Trackpoint>
          <Trackpoint>
            <Time>2022-07-04T11:59:37.000Z</Time>
            <Position>
              <LatitudeDegrees>44.70744408667087554931640625</LatitudeDegrees>
              <LongitudeDegrees>-0.825516879558563232421875</LongitudeDegrees>
            </Position>
            <AltitudeMeters>47.59999847412109375</AltitudeMeters>
            <DistanceMeters>NAN</DistanceMeters>
          </Trackpoint>
          <Trackpoint>
            <Time>2022-07-04T11:59:40.000Z</Time>
            <Position>
              <LatitudeDegrees>44.70736839808523654937744140625</LatitudeDegrees>
              <LongitudeDegrees>-0.82566297613084316253662109375</LongitudeDegrees>
            </Position>
            <AltitudeMeters>47.59999847412109375</AltitudeMeters>
            <DistanceMeters>NAN</DistanceMeters>
          </Trackpoint>
          <Trackpoint>
            <Time>2022-07-04T11:59:42.000Z</Time>
            <Position>
              <LatitudeDegrees>44.70733554102480411529541015625</LatitudeDegrees>
              <LongitudeDegrees>-0.825764648616313934326171875</LongitudeDegrees>
            </Position>
            <AltitudeMeters>47.59999847412109375</AltitudeMeters>
            <DistanceMeters>NAN</DistanceMeters>
          </Trackpoint>
          <Trackpoint>
            <Time>2022-07-04T11:59:48.000Z</Time>
            <Position>
              <LatitudeDegrees>44.70718550495803356170654296875</LatitudeDegrees>
              <LongitudeDegrees>-0.82605206407606601715087890625</LongitudeDegrees>
            </Position>
            <AltitudeMeters>47.799999237060546875</AltitudeMeters>
            <DistanceMeters>NAN</DistanceMeters>
          </Trackpoint>
          <Trackpoint>
            <Time>2022-07-04T11:59:52.000Z</Time>
            <Position>
              <LatitudeDegrees>44.70708601176738739013671875</LatitudeDegrees>
              <LongitudeDegrees>-0.8262295089662075042724609375</LongitudeDegrees>
            </Position>
            <AltitudeMeters>47.799999237060546875</AltitudeMeters>
            <DistanceMeters>NAN</DistanceMeters>
          </Trackpoint>
          <Trackpoint>
            <Time>2022-07-04T11:59:55.000Z</Time>
            <Position>
              <LatitudeDegrees>44.70702842809259891510009765625</LatitudeDegrees>
              <LongitudeDegrees>-0.8263671398162841796875</LongitudeDegrees>
            </Position>
            <AltitudeMeters>47.799999237060546875</AltitudeMeters>
            <DistanceMeters>NAN</DistanceMeters>
          </Trackpoint>
          <Trackpoint>
            <Time>2022-07-04T12:00:02.000Z</Time>
            <Position>
              <LatitudeDegrees>44.70683715306222438812255859375</LatitudeDegrees>
              <LongitudeDegrees>-0.8267319202423095703125</LongitudeDegrees>
            </Position>
            <AltitudeMeters>47.799999237060546875</AltitudeMeters>
            <DistanceMeters>NAN</DistanceMeters>
          </Trackpoint>
          <Trackpoint>
            <Time>2022-07-04T12:00:11.000Z</Time>
            <Position>
              <LatitudeDegrees>44.70659575425088405609130859375</LatitudeDegrees>
              <LongitudeDegrees>-0.82719703204929828643798828125</LongitudeDegrees>
            </Position>
            <AltitudeMeters>48</AltitudeMeters>
            <DistanceMeters>NAN</DistanceMeters>
          </Trackpoint>
          <Trackpoint>
            <Time>2022-07-04T12:00:19.000Z</Time>
            <Position>
              <LatitudeDegrees>44.70639525912702083587646484375</LatitudeDegrees>
              <LongitudeDegrees>-0.82758109085261821746826171875</LongitudeDegrees>
            </Position>
            <AltitudeMeters>47.59999847412109375</AltitudeMeters>
            <DistanceMeters>NAN</DistanceMeters>
          </Trackpoint>
          <Trackpoint>
            <Time>2022-07-04T12:00:28.000Z</Time>
            <Position>
              <LatitudeDegrees>44.70613877288997173309326171875</LatitudeDegrees>
              <LongitudeDegrees>-0.8280582726001739501953125</LongitudeDegrees>
            </Position>
            <AltitudeMeters>47.59999847412109375</AltitudeMeters>
            <DistanceMeters>NAN</DistanceMeters>
          </Trackpoint>
          <Trackpoint>
            <Time>2022-07-04T12:00:35.000Z</Time>
            <Position>
              <LatitudeDegrees>44.70594163052737712860107421875</LatitudeDegrees>
              <LongitudeDegrees>-0.8284057863056659698486328125</LongitudeDegrees>
            </Position>
            <AltitudeMeters>47.59999847412109375</AltitudeMeters>
            <DistanceMeters>NAN</DistanceMeters>
          </Trackpoint>
          <Trackpoint>
            <Time>2022-07-04T12:00:36.000Z</Time>
            <Position>
              <LatitudeDegrees>44.7059190832078456878662109375</LatitudeDegrees>
              <LongitudeDegrees>-0.8284579217433929443359375</LongitudeDegrees>
            </Position>
            <AltitudeMeters>47.799999237060546875</AltitudeMeters>
            <DistanceMeters>NAN</DistanceMeters>
          </Trackpoint>
          <Trackpoint>
            <Time>2022-07-04T12:00:43.000Z</Time>
            <Position>
              <LatitudeDegrees>44.70572747290134429931640625</LatitudeDegrees>
              <LongitudeDegrees>-0.82882178016006946563720703125</LongitudeDegrees>
            </Position>
            <AltitudeMeters>48</AltitudeMeters>
            <DistanceMeters>NAN</DistanceMeters>
          </Trackpoint>
          <Trackpoint>
            <Time>2022-07-04T12:00:45.000Z</Time>
            <Position>
              <LatitudeDegrees>44.70568430610001087188720703125</LatitudeDegrees>
              <LongitudeDegrees>-0.8289103768765926361083984375</LongitudeDegrees>
            </Position>
            <AltitudeMeters>48</AltitudeMeters>
            <DistanceMeters>NAN</DistanceMeters>
          </Trackpoint>
          <Trackpoint>
            <Time>2022-07-04T12:00:47.000Z</Time>
            <Position>
              <LatitudeDegrees>44.70563200302422046661376953125</LatitudeDegrees>
              <LongitudeDegrees>-0.82901942543685436248779296875</LongitudeDegrees>
            </Position>
            <AltitudeMeters>48.200000762939453125</AltitudeMeters>
            <DistanceMeters>NAN</DistanceMeters>
          </Trackpoint>
          <Trackpoint>
            <Time>2022-07-04T12:00:48.000Z</Time>
            <Position>
              <LatitudeDegrees>44.70560987479984760284423828125</LatitudeDegrees>
              <LongitudeDegrees>-0.82906871102750301361083984375</LongitudeDegrees>
            </Position>
            <AltitudeMeters>48.200000762939453125</AltitudeMeters>
            <DistanceMeters>NAN</DistanceMeters>
          </Trackpoint>
          <Trackpoint>
            <Time>2022-07-04T12:00:55.000Z</Time>
            <Position>
              <LatitudeDegrees>44.70545011572539806365966796875</LatitudeDegrees>
              <LongitudeDegrees>-0.8294022269546985626220703125</LongitudeDegrees>
            </Position>
            <AltitudeMeters>48</AltitudeMeters>
            <DistanceMeters>NAN</DistanceMeters>
          </Trackpoint>
          <Trackpoint>
            <Time>2022-07-04T12:00:58.000Z</Time>
            <Position>
              <LatitudeDegrees>44.70536394976079463958740234375</LatitudeDegrees>
              <LongitudeDegrees>-0.8295688591897487640380859375</LongitudeDegrees>
            </Position>
            <AltitudeMeters>47.799999237060546875</AltitudeMeters>
            <DistanceMeters>NAN</DistanceMeters>
          </Trackpoint>
          <Trackpoint>
            <Time>2022-07-04T12:01:01.000Z</Time>
            <Position>
              <LatitudeDegrees>44.7052763588726520538330078125</LatitudeDegrees>
              <LongitudeDegrees>-0.8296976052224636077880859375</LongitudeDegrees>
            </Position>
            <AltitudeMeters>47.799999237060546875</AltitudeMeters>
            <DistanceMeters>NAN</DistanceMeters>
          </Trackpoint>
          <Trackpoint>
            <Time>2022-07-04T12:01:02.000Z</Time>
            <Position>
              <LatitudeDegrees>44.7052471898496150970458984375</LatitudeDegrees>
              <LongitudeDegrees>-0.8297505788505077362060546875</LongitudeDegrees>
            </Position>
            <AltitudeMeters>47.799999237060546875</AltitudeMeters>
            <DistanceMeters>NAN</DistanceMeters>
          </Trackpoint>
          <Trackpoint>
            <Time>2022-07-04T12:01:07.000Z</Time>
            <Position>
              <LatitudeDegrees>44.70512690953910350799560546875</LatitudeDegrees>
              <LongitudeDegrees>-0.83000094629824161529541015625</LongitudeDegrees>
            </Position>
            <AltitudeMeters>48.40000152587890625</AltitudeMeters>
            <DistanceMeters>NAN</DistanceMeters>
          </Trackpoint>
          <Trackpoint>
            <Time>2022-07-04T12:01:09.000Z</Time>
            <Position>
              <LatitudeDegrees>44.7050785459578037261962890625</LatitudeDegrees>
              <LongitudeDegrees>-0.83009448833763599395751953125</LongitudeDegrees>
            </Position>
            <AltitudeMeters>48.40000152587890625</AltitudeMeters>
            <DistanceMeters>NAN</DistanceMeters>
          </Trackpoint>
          <Trackpoint>
            <Time>2022-07-04T12:01:14.000Z</Time>
            <Position>
              <LatitudeDegrees>44.70494854263961315155029296875</LatitudeDegrees>
              <LongitudeDegrees>-0.8303705044090747833251953125</LongitudeDegrees>
            </Position>
            <AltitudeMeters>48.40000152587890625</AltitudeMeters>
            <DistanceMeters>NAN</DistanceMeters>
          </Trackpoint>
          <Trackpoint>
            <Time>2022-07-04T12:01:16.000Z</Time>
            <Position>
              <LatitudeDegrees>44.7049001790583133697509765625</LatitudeDegrees>
              <LongitudeDegrees>-0.83048768341541290283203125</LongitudeDegrees>
            </Position>
            <AltitudeMeters>48.40000152587890625</AltitudeMeters>
            <DistanceMeters>NAN</DistanceMeters>
          </Trackpoint>
          <Trackpoint>
            <Time>2022-07-04T12:01:20.000Z</Time>
            <Position>
              <LatitudeDegrees>44.70477662980556488037109375</LatitudeDegrees>
              <LongitudeDegrees>-0.8307047747075557708740234375</LongitudeDegrees>
            </Position>
            <AltitudeMeters>48.200000762939453125</AltitudeMeters>
            <DistanceMeters>NAN</DistanceMeters>
          </Trackpoint>
          <Trackpoint>
            <Time>2022-07-04T12:01:21.000Z</Time>
            <Position>
              <LatitudeDegrees>44.70474310219287872314453125</LatitudeDegrees>
              <LongitudeDegrees>-0.83075364120304584503173828125</LongitudeDegrees>
            </Position>
            <AltitudeMeters>48</AltitudeMeters>
            <DistanceMeters>NAN</DistanceMeters>
          </Trackpoint>
          <Trackpoint>
            <Time>2022-07-04T12:01:25.000Z</Time>
            <Position>
              <LatitudeDegrees>44.70463321544229984283447265625</LatitudeDegrees>
              <LongitudeDegrees>-0.83096972666680812835693359375</LongitudeDegrees>
            </Position>
            <AltitudeMeters>48</AltitudeMeters>
            <DistanceMeters>NAN</DistanceMeters>
          </Trackpoint>
          <Trackpoint>
            <Time>2022-07-04T12:01:26.000Z</Time>
            <Position>
              <LatitudeDegrees>44.704611338675022125244140625</LatitudeDegrees>
              <LongitudeDegrees>-0.8310175873339176177978515625</LongitudeDegrees>
            </Position>
            <AltitudeMeters>48</AltitudeMeters>
            <DistanceMeters>NAN</DistanceMeters>
          </Trackpoint>
          <Trackpoint>
            <Time>2022-07-04T12:01:34.000Z</Time>
            <Position>
              <LatitudeDegrees>44.704386703670024871826171875</LatitudeDegrees>
              <LongitudeDegrees>-0.83138077519834041595458984375</LongitudeDegrees>
            </Position>
            <AltitudeMeters>48</AltitudeMeters>
            <DistanceMeters>NAN</DistanceMeters>
          </Trackpoint>
          <Trackpoint>
            <Time>2022-07-04T12:01:36.000Z</Time>
            <Position>
              <LatitudeDegrees>44.7043392620980739593505859375</LatitudeDegrees>
              <LongitudeDegrees>-0.83149795420467853546142578125</LongitudeDegrees>
            </Position>
            <AltitudeMeters>48</AltitudeMeters>
            <DistanceMeters>NAN</DistanceMeters>
          </Trackpoint>
          <Trackpoint>
            <Time>2022-07-04T12:01:38.000Z</Time>
            <Position>
              <LatitudeDegrees>44.7042822651565074920654296875</LatitudeDegrees>
              <LongitudeDegrees>-0.8316046558320522308349609375</LongitudeDegrees>
            </Position>
            <AltitudeMeters>48.200000762939453125</AltitudeMeters>
            <DistanceMeters>NAN</DistanceMeters>
          </Trackpoint>
          <Trackpoint>
            <Time>2022-07-04T12:01:42.000Z</Time>
            <Position>
              <LatitudeDegrees>44.70418386161327362060546875</LatitudeDegrees>
              <LongitudeDegrees>-0.831804983317852020263671875</LongitudeDegrees>
            </Position>
            <AltitudeMeters>48.200000762939453125</AltitudeMeters>
            <DistanceMeters>NAN</DistanceMeters>
          </Trackpoint>
          <Trackpoint>
            <Time>2022-07-04T12:01:44.000Z</Time>
            <Position>
              <LatitudeDegrees>44.70413667149841785430908203125</LatitudeDegrees>
              <LongitudeDegrees>-0.83188151009380817413330078125</LongitudeDegrees>
            </Position>
            <AltitudeMeters>48.200000762939453125</AltitudeMeters>
            <DistanceMeters>NAN</DistanceMeters>
          </Trackpoint>
          <Trackpoint>
            <Time>2022-07-04T12:01:49.000Z</Time>
            <Position>
              <LatitudeDegrees>44.70399568788707256317138671875</LatitudeDegrees>
              <LongitudeDegrees>-0.83213950507342815399169921875</LongitudeDegrees>
            </Position>
            <AltitudeMeters>48.200000762939453125</AltitudeMeters>
            <DistanceMeters>NAN</DistanceMeters>
          </Trackpoint>
          <Trackpoint>
            <Time>2022-07-04T12:01:51.000Z</Time>
            <Position>
              <LatitudeDegrees>44.7039473243057727813720703125</LatitudeDegrees>
              <LongitudeDegrees>-0.83223757334053516387939453125</LongitudeDegrees>
            </Position>
            <AltitudeMeters>48.200000762939453125</AltitudeMeters>
            <DistanceMeters>NAN</DistanceMeters>
          </Trackpoint>
          <Trackpoint>
            <Time>2022-07-04T12:01:53.000Z</Time>
            <Position>
              <LatitudeDegrees>44.703899212181568145751953125</LatitudeDegrees>
              <LongitudeDegrees>-0.83233430050313472747802734375</LongitudeDegrees>
            </Position>
            <AltitudeMeters>48.40000152587890625</AltitudeMeters>
            <DistanceMeters>NAN</DistanceMeters>
          </Trackpoint>
          <Trackpoint>
            <Time>2022-07-04T12:01:56.000Z</Time>
            <Position>
              <LatitudeDegrees>44.70382704399526119232177734375</LatitudeDegrees>
              <LongitudeDegrees>-0.83249288611114025115966796875</LongitudeDegrees>
            </Position>
            <AltitudeMeters>48.40000152587890625</AltitudeMeters>
            <DistanceMeters>NAN</DistanceMeters>
          </Trackpoint>
          <Trackpoint>
            <Time>2022-07-04T12:01:58.000Z</Time>
            <Position>
              <LatitudeDegrees>44.70377373509109020233154296875</LatitudeDegrees>
              <LongitudeDegrees>-0.832592546939849853515625</LongitudeDegrees>
            </Position>
            <AltitudeMeters>48.40000152587890625</AltitudeMeters>
            <DistanceMeters>NAN</DistanceMeters>
          </Trackpoint>
          <Trackpoint>
            <Time>2022-07-04T12:02:02.000Z</Time>
            <Position>
              <LatitudeDegrees>44.703670553863048553466796875</LatitudeDegrees>
              <LongitudeDegrees>-0.832801759243011474609375</LongitudeDegrees>
            </Position>
            <AltitudeMeters>48.40000152587890625</AltitudeMeters>
            <DistanceMeters>NAN</DistanceMeters>
          </Trackpoint>
          <Trackpoint>
            <Time>2022-07-04T12:02:05.000Z</Time>
            <Position>
              <LatitudeDegrees>44.703590758144855499267578125</LatitudeDegrees>
              <LongitudeDegrees>-0.8329528011381626129150390625</LongitudeDegrees>
            </Position>
            <AltitudeMeters>48.40000152587890625</AltitudeMeters>
            <DistanceMeters>NAN</DistanceMeters>
          </Trackpoint>
          <Trackpoint>
            <Time>2022-07-04T12:02:08.000Z</Time>
            <Position>
              <LatitudeDegrees>44.7035087831318378448486328125</LatitudeDegrees>
              <LongitudeDegrees>-0.8331016637384891510009765625</LongitudeDegrees>
            </Position>
            <AltitudeMeters>48.59999847412109375</AltitudeMeters>
            <DistanceMeters>NAN</DistanceMeters>
          </Trackpoint>
          <Trackpoint>
            <Time>2022-07-04T12:02:15.000Z</Time>
            <Position>
              <LatitudeDegrees>44.7033297456800937652587890625</LatitudeDegrees>
              <LongitudeDegrees>-0.8334409631788730621337890625</LongitudeDegrees>
            </Position>
            <AltitudeMeters>48.799999237060546875</AltitudeMeters>
            <DistanceMeters>NAN</DistanceMeters>
          </Trackpoint>
          <Trackpoint>
            <Time>2022-07-04T12:02:16.000Z</Time>
            <Position>
              <LatitudeDegrees>44.703312478959560394287109375</LatitudeDegrees>
              <LongitudeDegrees>-0.83349309861660003662109375</LongitudeDegrees>
            </Position>
            <AltitudeMeters>48.799999237060546875</AltitudeMeters>
            <DistanceMeters>NAN</DistanceMeters>
          </Trackpoint>
          <Trackpoint>
            <Time>2022-07-04T12:02:20.000Z</Time>
            <Position>
              <LatitudeDegrees>44.70320225693285465240478515625</LatitudeDegrees>
              <LongitudeDegrees>-0.83367951214313507080078125</LongitudeDegrees>
            </Position>
            <AltitudeMeters>48.799999237060546875</AltitudeMeters>
            <DistanceMeters>NAN</DistanceMeters>
          </Trackpoint>
          <Trackpoint>
            <Time>2022-07-04T12:02:22.000Z</Time>
            <Position>
              <LatitudeDegrees>44.703151546418666839599609375</LatitudeDegrees>
              <LongitudeDegrees>-0.8337660133838653564453125</LongitudeDegrees>
            </Position>
            <AltitudeMeters>48.59999847412109375</AltitudeMeters>
            <DistanceMeters>NAN</DistanceMeters>
          </Trackpoint>
          <Trackpoint>
            <Time>2022-07-04T12:02:28.000Z</Time>
            <Position>
              <LatitudeDegrees>44.70297125168144702911376953125</LatitudeDegrees>
              <LongitudeDegrees>-0.83411478437483310699462890625</LongitudeDegrees>
            </Position>
            <AltitudeMeters>48.59999847412109375</AltitudeMeters>
            <DistanceMeters>NAN</DistanceMeters>
          </Trackpoint>
          <Trackpoint>
            <Time>2022-07-04T12:02:35.000Z</Time>
            <Position>
              <LatitudeDegrees>44.70278802327811717987060546875</LatitudeDegrees>
              <LongitudeDegrees>-0.8344840072095394134521484375</LongitudeDegrees>
            </Position>
            <AltitudeMeters>48.59999847412109375</AltitudeMeters>
            <DistanceMeters>NAN</DistanceMeters>
          </Trackpoint>
          <Trackpoint>
            <Time>2022-07-04T12:02:38.000Z</Time>
            <Position>
              <LatitudeDegrees>44.70270420424640178680419921875</LatitudeDegrees>
              <LongitudeDegrees>-0.83464317955076694488525390625</LongitudeDegrees>
            </Position>
            <AltitudeMeters>48.59999847412109375</AltitudeMeters>
            <DistanceMeters>NAN</DistanceMeters>
          </Trackpoint>
          <Trackpoint>
            <Time>2022-07-04T12:02:41.000Z</Time>
            <Position>
              <LatitudeDegrees>44.70262642018496990203857421875</LatitudeDegrees>
              <LongitudeDegrees>-0.834788940846920013427734375</LongitudeDegrees>
            </Position>
            <AltitudeMeters>48.59999847412109375</AltitudeMeters>
            <DistanceMeters>NAN</DistanceMeters>
          </Trackpoint>
          <Trackpoint>
            <Time>2022-07-04T12:02:48.000Z</Time>
            <Position>
              <LatitudeDegrees>44.702462889254093170166015625</LatitudeDegrees>
              <LongitudeDegrees>-0.83514005877077579498291015625</LongitudeDegrees>
            </Position>
            <AltitudeMeters>48.59999847412109375</AltitudeMeters>
            <DistanceMeters>NAN</DistanceMeters>
          </Trackpoint>
          <Trackpoint>
            <Time>2022-07-04T12:02:49.000Z</Time>
            <Position>
              <LatitudeDegrees>44.70243397168815135955810546875</LatitudeDegrees>
              <LongitudeDegrees>-0.83519219420850276947021484375</LongitudeDegrees>
            </Position>
            <AltitudeMeters>48.59999847412109375</AltitudeMeters>
            <DistanceMeters>NAN</DistanceMeters>
          </Trackpoint>
          <Trackpoint>
            <Time>2022-07-04T12:02:56.000Z</Time>
            <Position>
              <LatitudeDegrees>44.70221302472054958343505859375</LatitudeDegrees>
              <LongitudeDegrees>-0.83555881865322589874267578125</LongitudeDegrees>
            </Position>
            <AltitudeMeters>48.59999847412109375</AltitudeMeters>
            <DistanceMeters>NAN</DistanceMeters>
          </Trackpoint>
          <Trackpoint>
            <Time>2022-07-04T12:02:57.000Z</Time>
            <Position>
              <LatitudeDegrees>44.70218536444008350372314453125</LatitudeDegrees>
              <LongitudeDegrees>-0.83561581559479236602783203125</LongitudeDegrees>
            </Position>
            <AltitudeMeters>48.59999847412109375</AltitudeMeters>
            <DistanceMeters>NAN</DistanceMeters>
          </Trackpoint>
          <Trackpoint>
            <Time>2022-07-04T12:03:00.000Z</Time>
            <Position>
              <LatitudeDegrees>44.702139683067798614501953125</LatitudeDegrees>
              <LongitudeDegrees>-0.83577431738376617431640625</LongitudeDegrees>
            </Position>
            <AltitudeMeters>48.59999847412109375</AltitudeMeters>
            <DistanceMeters>NAN</DistanceMeters>
          </Trackpoint>
          <Trackpoint>
            <Time>2022-07-04T12:03:02.000Z</Time>
            <Position>
              <LatitudeDegrees>44.702096097171306610107421875</LatitudeDegrees>
              <LongitudeDegrees>-0.83586626686155796051025390625</LongitudeDegrees>
            </Position>
            <AltitudeMeters>48.59999847412109375</AltitudeMeters>
            <DistanceMeters>NAN</DistanceMeters>
          </Trackpoint>
          <Trackpoint>
            <Time>2022-07-04T12:03:07.000Z</Time>
            <Position>
              <LatitudeDegrees>44.70195251516997814178466796875</LatitudeDegrees>
              <LongitudeDegrees>-0.83610800094902515411376953125</LongitudeDegrees>
            </Position>
            <AltitudeMeters>48.59999847412109375</AltitudeMeters>
            <DistanceMeters>NAN</DistanceMeters>
          </Trackpoint>
          <Trackpoint>
            <Time>2022-07-04T12:03:10.000Z</Time>
            <Position>
              <LatitudeDegrees>44.70188931562006473541259765625</LatitudeDegrees>
              <LongitudeDegrees>-0.83625066094100475311279296875</LongitudeDegrees>
            </Position>
            <AltitudeMeters>48.799999237060546875</AltitudeMeters>
            <DistanceMeters>NAN</DistanceMeters>
          </Trackpoint>
          <Trackpoint>
            <Time>2022-07-04T12:03:11.000Z</Time>
            <Position>
              <LatitudeDegrees>44.7018666006624698638916015625</LatitudeDegrees>
              <LongitudeDegrees>-0.83629374392330646514892578125</LongitudeDegrees>
            </Position>
            <AltitudeMeters>48.799999237060546875</AltitudeMeters>
            <DistanceMeters>NAN</DistanceMeters>
          </Trackpoint>
          <Trackpoint>
            <Time>2022-07-04T12:03:17.000Z</Time>
            <Position>
              <LatitudeDegrees>44.70175168476998805999755859375</LatitudeDegrees>
              <LongitudeDegrees>-0.8365938998758792877197265625</LongitudeDegrees>
            </Position>
            <AltitudeMeters>48.799999237060546875</AltitudeMeters>
            <DistanceMeters>NAN</DistanceMeters>
          </Trackpoint>
          <Trackpoint>
            <Time>2022-07-04T12:03:23.000Z</Time>
            <Position>
              <LatitudeDegrees>44.7016288898885250091552734375</LatitudeDegrees>
              <LongitudeDegrees>-0.8369342051446437835693359375</LongitudeDegrees>
            </Position>
            <AltitudeMeters>48.799999237060546875</AltitudeMeters>
            <DistanceMeters>NAN</DistanceMeters>
          </Trackpoint>
          <Trackpoint>
            <Time>2022-07-04T12:03:30.000Z</Time>
            <Position>
              <LatitudeDegrees>44.70144859515130519866943359375</LatitudeDegrees>
              <LongitudeDegrees>-0.83726822398602962493896484375</LongitudeDegrees>
            </Position>
            <AltitudeMeters>48.40000152587890625</AltitudeMeters>
            <DistanceMeters>NAN</DistanceMeters>
          </Trackpoint>
          <Trackpoint>
            <Time>2022-07-04T12:03:31.000Z</Time>
            <Position>
              <LatitudeDegrees>44.7014136426150798797607421875</LatitudeDegrees>
              <LongitudeDegrees>-0.8373160846531391143798828125</LongitudeDegrees>
            </Position>
            <AltitudeMeters>48.40000152587890625</AltitudeMeters>
            <DistanceMeters>NAN</DistanceMeters>
          </Trackpoint>
          <Trackpoint>
            <Time>2022-07-04T12:03:32.000Z</Time>
            <Position>
              <LatitudeDegrees>44.70138573087751865386962890625</LatitudeDegrees>
              <LongitudeDegrees>-0.83733997307717800140380859375</LongitudeDegrees>
            </Position>
            <AltitudeMeters>48.40000152587890625</AltitudeMeters>
            <DistanceMeters>NAN</DistanceMeters>
          </Trackpoint>
          <Trackpoint>
            <Time>2022-07-04T12:03:33.000Z</Time>
            <Position>
              <LatitudeDegrees>44.70135119743645191192626953125</LatitudeDegrees>
              <LongitudeDegrees>-0.837363861501216888427734375</LongitudeDegrees>
            </Position>
            <AltitudeMeters>48.40000152587890625</AltitudeMeters>
            <DistanceMeters>NAN</DistanceMeters>
          </Trackpoint>
          <Trackpoint>
            <Time>2022-07-04T12:03:35.000Z</Time>
            <Position>
              <LatitudeDegrees>44.7012822143733501434326171875</LatitudeDegrees>
              <LongitudeDegrees>-0.83739168941974639892578125</LongitudeDegrees>
            </Position>
            <AltitudeMeters>48.40000152587890625</AltitudeMeters>
            <DistanceMeters>NAN</DistanceMeters>
          </Trackpoint>
          <Trackpoint>
            <Time>2022-07-04T12:03:36.000Z</Time>
            <Position>
              <LatitudeDegrees>44.70124608837068080902099609375</LatitudeDegrees>
              <LongitudeDegrees>-0.837416164577007293701171875</LongitudeDegrees>
            </Position>
            <AltitudeMeters>48.40000152587890625</AltitudeMeters>
            <DistanceMeters>NAN</DistanceMeters>
          </Trackpoint>
          <Trackpoint>
            <Time>2022-07-04T12:03:38.000Z</Time>
            <Position>
              <LatitudeDegrees>44.70120920799672603607177734375</LatitudeDegrees>
              <LongitudeDegrees>-0.83749973215162754058837890625</LongitudeDegrees>
            </Position>
            <AltitudeMeters>48.40000152587890625</AltitudeMeters>
            <DistanceMeters>NAN</DistanceMeters>
          </Trackpoint>
          <Trackpoint>
            <Time>2022-07-04T12:03:39.000Z</Time>
            <Position>
              <LatitudeDegrees>44.701206274330615997314453125</LatitudeDegrees>
              <LongitudeDegrees>-0.83755203522741794586181640625</LongitudeDegrees>
            </Position>
            <AltitudeMeters>48.40000152587890625</AltitudeMeters>
            <DistanceMeters>NAN</DistanceMeters>
          </Trackpoint>
          <Trackpoint>
            <Time>2022-07-04T12:03:44.000Z</Time>
            <Position>
              <LatitudeDegrees>44.7011403925716876983642578125</LatitudeDegrees>
              <LongitudeDegrees>-0.83783215843141078948974609375</LongitudeDegrees>
            </Position>
            <AltitudeMeters>48.59999847412109375</AltitudeMeters>
            <DistanceMeters>NAN</DistanceMeters>
          </Trackpoint>
          <Trackpoint>
            <Time>2022-07-04T12:03:54.000Z</Time>
            <Position>
              <LatitudeDegrees>44.7008751891553401947021484375</LatitudeDegrees>
              <LongitudeDegrees>-0.83836105652153491973876953125</LongitudeDegrees>
            </Position>
            <AltitudeMeters>48.59999847412109375</AltitudeMeters>
            <DistanceMeters>NAN</DistanceMeters>
          </Trackpoint>
          <Trackpoint>
            <Time>2022-07-04T12:03:55.000Z</Time>
            <Position>
              <LatitudeDegrees>44.700850546360015869140625</LatitudeDegrees>
              <LongitudeDegrees>-0.83840045146644115447998046875</LongitudeDegrees>
            </Position>
            <AltitudeMeters>48.59999847412109375</AltitudeMeters>
            <DistanceMeters>NAN</DistanceMeters>
          </Trackpoint>
          <Trackpoint>
            <Time>2022-07-04T12:04:01.000Z</Time>
            <Position>
              <LatitudeDegrees>44.70067813061177730560302734375</LatitudeDegrees>
              <LongitudeDegrees>-0.83870471455156803131103515625</LongitudeDegrees>
            </Position>
            <AltitudeMeters>48.59999847412109375</AltitudeMeters>
            <DistanceMeters>NAN</DistanceMeters>
          </Trackpoint>
          <Trackpoint>
            <Time>2022-07-04T12:04:05.000Z</Time>
            <Position>
              <LatitudeDegrees>44.70057151280343532562255859375</LatitudeDegrees>
              <LongitudeDegrees>-0.8389106579124927520751953125</LongitudeDegrees>
            </Position>
            <AltitudeMeters>48.40000152587890625</AltitudeMeters>
            <DistanceMeters>NAN</DistanceMeters>
          </Trackpoint>
          <Trackpoint>
            <Time>2022-07-04T12:04:08.000Z</Time>
            <Position>
              <LatitudeDegrees>44.70050194300711154937744140625</LatitudeDegrees>
              <LongitudeDegrees>-0.83906966261565685272216796875</LongitudeDegrees>
            </Position>
            <AltitudeMeters>48.40000152587890625</AltitudeMeters>
            <DistanceMeters>NAN</DistanceMeters>
          </Trackpoint>
          <Trackpoint>
            <Time>2022-07-04T12:04:11.000Z</Time>
            <Position>
              <LatitudeDegrees>44.7004227340221405029296875</LatitudeDegrees>
              <LongitudeDegrees>-0.83923034369945526123046875</LongitudeDegrees>
            </Position>
            <AltitudeMeters>48.200000762939453125</AltitudeMeters>
            <DistanceMeters>NAN</DistanceMeters>
          </Trackpoint>
          <Trackpoint>
            <Time>2022-07-04T12:04:12.000Z</Time>
            <Position>
              <LatitudeDegrees>44.7003932297229766845703125</LatitudeDegrees>
              <LongitudeDegrees>-0.83927728235721588134765625</LongitudeDegrees>
            </Position>
            <AltitudeMeters>48.200000762939453125</AltitudeMeters>
            <DistanceMeters>NAN</DistanceMeters>
          </Trackpoint>
          <Trackpoint>
            <Time>2022-07-04T12:04:14.000Z</Time>
            <Position>
              <LatitudeDegrees>44.70032810233533382415771484375</LatitudeDegrees>
              <LongitudeDegrees>-0.8393431641161441802978515625</LongitudeDegrees>
            </Position>
            <AltitudeMeters>48.200000762939453125</AltitudeMeters>
            <DistanceMeters>NAN</DistanceMeters>
          </Trackpoint>
          <Trackpoint>
            <Time>2022-07-04T12:04:15.000Z</Time>
            <Position>
              <LatitudeDegrees>44.7002975083887577056884765625</LatitudeDegrees>
              <LongitudeDegrees>-0.839357413351535797119140625</LongitudeDegrees>
            </Position>
            <AltitudeMeters>48.200000762939453125</AltitudeMeters>
            <DistanceMeters>NAN</DistanceMeters>
          </Trackpoint>
          <Trackpoint>
            <Time>2022-07-04T12:04:19.000Z</Time>
            <Position>
              <LatitudeDegrees>44.700164236128330230712890625</LatitudeDegrees>
              <LongitudeDegrees>-0.83937644027173519134521484375</LongitudeDegrees>
            </Position>
            <AltitudeMeters>48.200000762939453125</AltitudeMeters>
            <DistanceMeters>NAN</DistanceMeters>
          </Trackpoint>
          <Trackpoint>
            <Time>2022-07-04T12:04:23.000Z</Time>
            <Position>
              <LatitudeDegrees>44.70004655420780181884765625</LatitudeDegrees>
              <LongitudeDegrees>-0.83955178968608379364013671875</LongitudeDegrees>
            </Position>
            <AltitudeMeters>48.40000152587890625</AltitudeMeters>
            <DistanceMeters>NAN</DistanceMeters>
          </Trackpoint>
          <Trackpoint>
            <Time>2022-07-04T12:04:28.000Z</Time>
            <Position>
              <LatitudeDegrees>44.70000288449227809906005859375</LatitudeDegrees>
              <LongitudeDegrees>-0.83984683267772197723388671875</LongitudeDegrees>
            </Position>
            <AltitudeMeters>48.200000762939453125</AltitudeMeters>
            <DistanceMeters>NAN</DistanceMeters>
          </Trackpoint>
          <Trackpoint>
            <Time>2022-07-04T12:04:30.000Z</Time>
            <Position>
              <LatitudeDegrees>44.69997304491698741912841796875</LatitudeDegrees>
              <LongitudeDegrees>-0.83995051681995391845703125</LongitudeDegrees>
            </Position>
            <AltitudeMeters>48</AltitudeMeters>
            <DistanceMeters>NAN</DistanceMeters>
          </Trackpoint>
          <Trackpoint>
            <Time>2022-07-04T12:04:31.000Z</Time>
            <Position>
              <LatitudeDegrees>44.699946306645870208740234375</LatitudeDegrees>
              <LongitudeDegrees>-0.8399748243391513824462890625</LongitudeDegrees>
            </Position>
            <AltitudeMeters>48</AltitudeMeters>
            <DistanceMeters>NAN</DistanceMeters>
          </Trackpoint>
          <Trackpoint>
            <Time>2022-07-04T12:04:34.000Z</Time>
            <Position>
              <LatitudeDegrees>44.69984396360814571380615234375</LatitudeDegrees>
              <LongitudeDegrees>-0.8400576375424861907958984375</LongitudeDegrees>
            </Position>
            <AltitudeMeters>48</AltitudeMeters>
            <DistanceMeters>NAN</DistanceMeters>
          </Trackpoint>
          <Trackpoint>
            <Time>2022-07-04T12:04:35.000Z</Time>
            <Position>
              <LatitudeDegrees>44.699814878404140472412109375</LatitudeDegrees>
              <LongitudeDegrees>-0.8401012234389781951904296875</LongitudeDegrees>
            </Position>
            <AltitudeMeters>48</AltitudeMeters>
            <DistanceMeters>NAN</DistanceMeters>
          </Trackpoint>
          <Trackpoint>
            <Time>2022-07-04T12:04:38.000Z</Time>
            <Position>
              <LatitudeDegrees>44.699715636670589447021484375</LatitudeDegrees>
              <LongitudeDegrees>-0.840218067169189453125</LongitudeDegrees>
            </Position>
            <AltitudeMeters>48</AltitudeMeters>
            <DistanceMeters>NAN</DistanceMeters>
          </Trackpoint>
          <Trackpoint>
            <Time>2022-07-04T12:04:40.000Z</Time>
            <Position>
              <LatitudeDegrees>44.69965620897710323333740234375</LatitudeDegrees>
              <LongitudeDegrees>-0.840282775461673736572265625</LongitudeDegrees>
            </Position>
            <AltitudeMeters>48</AltitudeMeters>
            <DistanceMeters>NAN</DistanceMeters>
          </Trackpoint>
          <Trackpoint>
            <Time>2022-07-04T12:04:42.000Z</Time>
            <Position>
              <LatitudeDegrees>44.6996046602725982666015625</LatitudeDegrees>
              <LongitudeDegrees>-0.84038863889873027801513671875</LongitudeDegrees>
            </Position>
            <AltitudeMeters>48.200000762939453125</AltitudeMeters>
            <DistanceMeters>NAN</DistanceMeters>
          </Trackpoint>
          <Trackpoint>
            <Time>2022-07-04T12:04:44.000Z</Time>
            <Position>
              <LatitudeDegrees>44.69956568442285060882568359375</LatitudeDegrees>
              <LongitudeDegrees>-0.84050732664763927459716796875</LongitudeDegrees>
            </Position>
            <AltitudeMeters>48.200000762939453125</AltitudeMeters>
            <DistanceMeters>NAN</DistanceMeters>
          </Trackpoint>
          <Trackpoint>
            <Time>2022-07-04T12:04:45.000Z</Time>
            <Position>
              <LatitudeDegrees>44.6995548717677593231201171875</LatitudeDegrees>
              <LongitudeDegrees>-0.84056482650339603424072265625</LongitudeDegrees>
            </Position>
            <AltitudeMeters>48.200000762939453125</AltitudeMeters>
            <DistanceMeters>NAN</DistanceMeters>
          </Trackpoint>
          <Trackpoint>
            <Time>2022-07-04T12:04:49.000Z</Time>
            <Position>
              <LatitudeDegrees>44.699524529278278350830078125</LatitudeDegrees>
              <LongitudeDegrees>-0.8408046327531337738037109375</LongitudeDegrees>
            </Position>
            <AltitudeMeters>48</AltitudeMeters>
            <DistanceMeters>NAN</DistanceMeters>
          </Trackpoint>
          <Trackpoint>
            <Time>2022-07-04T12:04:55.000Z</Time>
            <Position>
              <LatitudeDegrees>44.6994732320308685302734375</LatitudeDegrees>
              <LongitudeDegrees>-0.8410896174609661102294921875</LongitudeDegrees>
            </Position>
            <AltitudeMeters>48.200000762939453125</AltitudeMeters>
            <DistanceMeters>NAN</DistanceMeters>
          </Trackpoint>
          <Trackpoint>
            <Time>2022-07-04T12:05:03.000Z</Time>
            <Position>
              <LatitudeDegrees>44.69927902333438396453857421875</LatitudeDegrees>
              <LongitudeDegrees>-0.841466300189495086669921875</LongitudeDegrees>
            </Position>
            <AltitudeMeters>48</AltitudeMeters>
            <DistanceMeters>NAN</DistanceMeters>
          </Trackpoint>
          <Trackpoint>
            <Time>2022-07-04T12:05:15.000Z</Time>
            <Position>
              <LatitudeDegrees>44.69898515380918979644775390625</LatitudeDegrees>
              <LongitudeDegrees>-0.8420149795711040496826171875</LongitudeDegrees>
            </Position>
            <AltitudeMeters>47.799999237060546875</AltitudeMeters>
            <DistanceMeters>NAN</DistanceMeters>
          </Trackpoint>
          <Trackpoint>
            <Time>2022-07-04T12:05:23.000Z</Time>
            <Position>
              <LatitudeDegrees>44.69880226068198680877685546875</LatitudeDegrees>
              <LongitudeDegrees>-0.842370204627513885498046875</LongitudeDegrees>
            </Position>
            <AltitudeMeters>48</AltitudeMeters>
            <DistanceMeters>NAN</DistanceMeters>
          </Trackpoint>
          <Trackpoint>
            <Time>2022-07-04T12:05:24.000Z</Time>
            <Position>
              <LatitudeDegrees>44.6987817250192165374755859375</LatitudeDegrees>
              <LongitudeDegrees>-0.8424186520278453826904296875</LongitudeDegrees>
            </Position>
            <AltitudeMeters>48</AltitudeMeters>
            <DistanceMeters>NAN</DistanceMeters>
          </Trackpoint>
          <Trackpoint>
            <Time>2022-07-04T12:05:25.000Z</Time>
            <Position>
              <LatitudeDegrees>44.69875901006162166595458984375</LatitudeDegrees>
              <LongitudeDegrees>-0.84246919490396976470947265625</LongitudeDegrees>
            </Position>
            <AltitudeMeters>47.799999237060546875</AltitudeMeters>
            <DistanceMeters>NAN</DistanceMeters>
          </Trackpoint>
          <Trackpoint>
            <Time>2022-07-04T12:05:26.000Z</Time>
            <Position>
              <LatitudeDegrees>44.69873151741921901702880859375</LatitudeDegrees>
              <LongitudeDegrees>-0.84251747466623783111572265625</LongitudeDegrees>
            </Position>
            <AltitudeMeters>47.799999237060546875</AltitudeMeters>
            <DistanceMeters>NAN</DistanceMeters>
          </Trackpoint>
          <Trackpoint>
            <Time>2022-07-04T12:05:33.000Z</Time>
            <Position>
              <LatitudeDegrees>44.69854560680687427520751953125</LatitudeDegrees>
              <LongitudeDegrees>-0.84286515600979328155517578125</LongitudeDegrees>
            </Position>
            <AltitudeMeters>47.799999237060546875</AltitudeMeters>
            <DistanceMeters>NAN</DistanceMeters>
          </Trackpoint>
          <Trackpoint>
            <Time>2022-07-04T12:05:42.000Z</Time>
            <Position>
              <LatitudeDegrees>44.698316194117069244384765625</LatitudeDegrees>
              <LongitudeDegrees>-0.84330453537404537200927734375</LongitudeDegrees>
            </Position>
            <AltitudeMeters>47.799999237060546875</AltitudeMeters>
            <DistanceMeters>NAN</DistanceMeters>
          </Trackpoint>
          <Trackpoint>
            <Time>2022-07-04T12:05:45.000Z</Time>
            <Position>
              <LatitudeDegrees>44.6982369013130664825439453125</LatitudeDegrees>
              <LongitudeDegrees>-0.84344652481377124786376953125</LongitudeDegrees>
            </Position>
            <AltitudeMeters>47.799999237060546875</AltitudeMeters>
            <DistanceMeters>NAN</DistanceMeters>
          </Trackpoint>
          <Trackpoint>
            <Time>2022-07-04T12:05:49.000Z</Time>
            <Position>
              <LatitudeDegrees>44.69813455827534198760986328125</LatitudeDegrees>
              <LongitudeDegrees>-0.84363075904548168182373046875</LongitudeDegrees>
            </Position>
            <AltitudeMeters>47.59999847412109375</AltitudeMeters>
            <DistanceMeters>NAN</DistanceMeters>
          </Trackpoint>
          <Trackpoint>
            <Time>2022-07-04T12:05:51.000Z</Time>
            <Position>
              <LatitudeDegrees>44.69808577559888362884521484375</LatitudeDegrees>
              <LongitudeDegrees>-0.8437181822955608367919921875</LongitudeDegrees>
            </Position>
            <AltitudeMeters>47.40000152587890625</AltitudeMeters>
            <DistanceMeters>NAN</DistanceMeters>
          </Trackpoint>
          <Trackpoint>
            <Time>2022-07-04T12:06:00.000Z</Time>
            <Position>
              <LatitudeDegrees>44.69788997434079647064208984375</LatitudeDegrees>
              <LongitudeDegrees>-0.84414549171924591064453125</LongitudeDegrees>
            </Position>
            <AltitudeMeters>47.200000762939453125</AltitudeMeters>
            <DistanceMeters>NAN</DistanceMeters>
          </Trackpoint>
          <Trackpoint>
            <Time>2022-07-04T12:06:07.000Z</Time>
            <Position>
              <LatitudeDegrees>44.69772686250507831573486328125</LatitudeDegrees>
              <LongitudeDegrees>-0.8444594778120517730712890625</LongitudeDegrees>
            </Position>
            <AltitudeMeters>47.59999847412109375</AltitudeMeters>
            <DistanceMeters>NAN</DistanceMeters>
          </Trackpoint>
          <Trackpoint>
            <Time>2022-07-04T12:06:08.000Z</Time>
            <Position>
              <LatitudeDegrees>44.69770372845232486724853515625</LatitudeDegrees>
              <LongitudeDegrees>-0.844502560794353485107421875</LongitudeDegrees>
            </Position>
            <AltitudeMeters>47.59999847412109375</AltitudeMeters>
            <DistanceMeters>NAN</DistanceMeters>
          </Trackpoint>
          <Trackpoint>
            <Time>2022-07-04T12:06:13.000Z</Time>
            <Position>
              <LatitudeDegrees>44.69755872152745723724365234375</LatitudeDegrees>
              <LongitudeDegrees>-0.84467313252389430999755859375</LongitudeDegrees>
            </Position>
            <AltitudeMeters>47.40000152587890625</AltitudeMeters>
            <DistanceMeters>NAN</DistanceMeters>
          </Trackpoint>
          <Trackpoint>
            <Time>2022-07-04T12:06:14.000Z</Time>
            <Position>
              <LatitudeDegrees>44.6975217573344707489013671875</LatitudeDegrees>
              <LongitudeDegrees>-0.84467899985611438751220703125</LongitudeDegrees>
            </Position>
            <AltitudeMeters>47.40000152587890625</AltitudeMeters>
            <DistanceMeters>NAN</DistanceMeters>
          </Trackpoint>
          <Trackpoint>
            <Time>2022-07-04T12:06:18.000Z</Time>
            <Position>
              <LatitudeDegrees>44.6973886527121067047119140625</LatitudeDegrees>
              <LongitudeDegrees>-0.844746641814708709716796875</LongitudeDegrees>
            </Position>
            <AltitudeMeters>47.40000152587890625</AltitudeMeters>
            <DistanceMeters>NAN</DistanceMeters>
          </Trackpoint>
          <Trackpoint>
            <Time>2022-07-04T12:06:22.000Z</Time>
            <Position>
              <LatitudeDegrees>44.6973430551588535308837890625</LatitudeDegrees>
              <LongitudeDegrees>-0.8449325524270534515380859375</LongitudeDegrees>
            </Position>
            <AltitudeMeters>48</AltitudeMeters>
            <DistanceMeters>NAN</DistanceMeters>
          </Trackpoint>
          <Trackpoint>
            <Time>2022-07-04T12:06:27.000Z</Time>
            <Position>
              <LatitudeDegrees>44.69732654280960559844970703125</LatitudeDegrees>
              <LongitudeDegrees>-0.8451612107455730438232421875</LongitudeDegrees>
            </Position>
            <AltitudeMeters>47.59999847412109375</AltitudeMeters>
            <DistanceMeters>NAN</DistanceMeters>
          </Trackpoint>
          <Trackpoint>
            <Time>2022-07-04T12:06:35.000Z</Time>
            <Position>
              <LatitudeDegrees>44.6971666999161243438720703125</LatitudeDegrees>
              <LongitudeDegrees>-0.84549732506275177001953125</LongitudeDegrees>
            </Position>
            <AltitudeMeters>47.799999237060546875</AltitudeMeters>
            <DistanceMeters>NAN</DistanceMeters>
          </Trackpoint>
          <Trackpoint>
            <Time>2022-07-04T12:06:42.000Z</Time>
            <Position>
              <LatitudeDegrees>44.69707332551479339599609375</LatitudeDegrees>
              <LongitudeDegrees>-0.84582723677158355712890625</LongitudeDegrees>
            </Position>
            <AltitudeMeters>47.59999847412109375</AltitudeMeters>
            <DistanceMeters>NAN</DistanceMeters>
          </Trackpoint>
          <Trackpoint>
            <Time>2022-07-04T12:06:48.000Z</Time>
            <Position>
              <LatitudeDegrees>44.69698003493249416351318359375</LatitudeDegrees>
              <LongitudeDegrees>-0.84614667110145092010498046875</LongitudeDegrees>
            </Position>
            <AltitudeMeters>47.40000152587890625</AltitudeMeters>
            <DistanceMeters>NAN</DistanceMeters>
          </Trackpoint>
          <Trackpoint>
            <Time>2022-07-04T12:06:57.000Z</Time>
            <Position>
              <LatitudeDegrees>44.69674743711948394775390625</LatitudeDegrees>
              <LongitudeDegrees>-0.8465697057545185089111328125</LongitudeDegrees>
            </Position>
            <AltitudeMeters>47.59999847412109375</AltitudeMeters>
            <DistanceMeters>NAN</DistanceMeters>
          </Trackpoint>
          <Trackpoint>
            <Time>2022-07-04T12:06:58.000Z</Time>
            <Position>
              <LatitudeDegrees>44.6967241354286670684814453125</LatitudeDegrees>
              <LongitudeDegrees>-0.8466166444122791290283203125</LongitudeDegrees>
            </Position>
            <AltitudeMeters>47.59999847412109375</AltitudeMeters>
            <DistanceMeters>NAN</DistanceMeters>
          </Trackpoint>
          <Trackpoint>
            <Time>2022-07-04T12:07:03.000Z</Time>
            <Position>
              <LatitudeDegrees>44.6966017596423625946044921875</LatitudeDegrees>
              <LongitudeDegrees>-0.84683784283697605133056640625</LongitudeDegrees>
            </Position>
            <AltitudeMeters>47.40000152587890625</AltitudeMeters>
            <DistanceMeters>NAN</DistanceMeters>
          </Trackpoint>
          <Trackpoint>
            <Time>2022-07-04T12:07:07.000Z</Time>
            <Position>
              <LatitudeDegrees>44.69650603830814361572265625</LatitudeDegrees>
              <LongitudeDegrees>-0.84700816310942173004150390625</LongitudeDegrees>
            </Position>
            <AltitudeMeters>47.40000152587890625</AltitudeMeters>
            <DistanceMeters>NAN</DistanceMeters>
          </Trackpoint>
          <Trackpoint>
            <Time>2022-07-04T12:07:13.000Z</Time>
            <Position>
              <LatitudeDegrees>44.69636346213519573211669921875</LatitudeDegrees>
              <LongitudeDegrees>-0.84726800210773944854736328125</LongitudeDegrees>
            </Position>
            <AltitudeMeters>47</AltitudeMeters>
            <DistanceMeters>NAN</DistanceMeters>
          </Trackpoint>
          <Trackpoint>
            <Time>2022-07-04T12:07:19.000Z</Time>
            <Position>
              <LatitudeDegrees>44.6962406672537326812744140625</LatitudeDegrees>
              <LongitudeDegrees>-0.8475104905664920806884765625</LongitudeDegrees>
            </Position>
            <AltitudeMeters>47</AltitudeMeters>
            <DistanceMeters>NAN</DistanceMeters>
          </Trackpoint>
          <Trackpoint>
            <Time>2022-07-04T12:07:21.000Z</Time>
            <Position>
              <LatitudeDegrees>44.69619180075824260711669921875</LatitudeDegrees>
              <LongitudeDegrees>-0.84760244004428386688232421875</LongitudeDegrees>
            </Position>
            <AltitudeMeters>47</AltitudeMeters>
            <DistanceMeters>NAN</DistanceMeters>
          </Trackpoint>
          <Trackpoint>
            <Time>2022-07-04T12:07:25.000Z</Time>
            <Position>
              <LatitudeDegrees>44.6960954926908016204833984375</LatitudeDegrees>
              <LongitudeDegrees>-0.84781416691839694976806640625</LongitudeDegrees>
            </Position>
            <AltitudeMeters>47</AltitudeMeters>
            <DistanceMeters>NAN</DistanceMeters>
          </Trackpoint>
          <Trackpoint>
            <Time>2022-07-04T12:07:29.000Z</Time>
            <Position>
              <LatitudeDegrees>44.6959918923676013946533203125</LatitudeDegrees>
              <LongitudeDegrees>-0.8480031788349151611328125</LongitudeDegrees>
            </Position>
            <AltitudeMeters>47</AltitudeMeters>
            <DistanceMeters>NAN</DistanceMeters>
          </Trackpoint>
          <Trackpoint>
            <Time>2022-07-04T12:07:33.000Z</Time>
            <Position>
              <LatitudeDegrees>44.69588376581668853759765625</LatitudeDegrees>
              <LongitudeDegrees>-0.8481988124549388885498046875</LongitudeDegrees>
            </Position>
            <AltitudeMeters>47</AltitudeMeters>
            <DistanceMeters>NAN</DistanceMeters>
          </Trackpoint>
          <Trackpoint>
            <Time>2022-07-04T12:07:35.000Z</Time>
            <Position>
              <LatitudeDegrees>44.695840515196323394775390625</LatitudeDegrees>
              <LongitudeDegrees>-0.84828070364892482757568359375</LongitudeDegrees>
            </Position>
            <AltitudeMeters>46.799999237060546875</AltitudeMeters>
            <DistanceMeters>NAN</DistanceMeters>
          </Trackpoint>
          <Trackpoint>
            <Time>2022-07-04T12:07:36.000Z</Time>
            <Position>
              <LatitudeDegrees>44.69581377692520618438720703125</LatitudeDegrees>
              <LongitudeDegrees>-0.84832395426928997039794921875</LongitudeDegrees>
            </Position>
            <AltitudeMeters>46.799999237060546875</AltitudeMeters>
            <DistanceMeters>NAN</DistanceMeters>
          </Trackpoint>
          <Trackpoint>
            <Time>2022-07-04T12:07:38.000Z</Time>
            <Position>
              <LatitudeDegrees>44.695772118866443634033203125</LatitudeDegrees>
              <LongitudeDegrees>-0.84841246716678142547607421875</LongitudeDegrees>
            </Position>
            <AltitudeMeters>46.799999237060546875</AltitudeMeters>
            <DistanceMeters>NAN</DistanceMeters>
          </Trackpoint>
          <Trackpoint>
            <Time>2022-07-04T12:07:42.000Z</Time>
            <Position>
              <LatitudeDegrees>44.69566809944808483123779296875</LatitudeDegrees>
              <LongitudeDegrees>-0.848629139363765716552734375</LongitudeDegrees>
            </Position>
            <AltitudeMeters>46.799999237060546875</AltitudeMeters>
            <DistanceMeters>NAN</DistanceMeters>
          </Trackpoint>
          <Trackpoint>
            <Time>2022-07-04T12:07:51.000Z</Time>
            <Position>
              <LatitudeDegrees>44.69544832594692707061767578125</LatitudeDegrees>
              <LongitudeDegrees>-0.84904722869396209716796875</LongitudeDegrees>
            </Position>
            <AltitudeMeters>46.799999237060546875</AltitudeMeters>
            <DistanceMeters>NAN</DistanceMeters>
          </Trackpoint>
          <Trackpoint>
            <Time>2022-07-04T12:07:52.000Z</Time>
            <Position>
              <LatitudeDegrees>44.695419408380985260009765625</LatitudeDegrees>
              <LongitudeDegrees>-0.84910414181649684906005859375</LongitudeDegrees>
            </Position>
            <AltitudeMeters>46.799999237060546875</AltitudeMeters>
            <DistanceMeters>NAN</DistanceMeters>
          </Trackpoint>
          <Trackpoint>
            <Time>2022-07-04T12:07:59.000Z</Time>
            <Position>
              <LatitudeDegrees>44.695264510810375213623046875</LatitudeDegrees>
              <LongitudeDegrees>-0.84942650981247425079345703125</LongitudeDegrees>
            </Position>
            <AltitudeMeters>46.799999237060546875</AltitudeMeters>
            <DistanceMeters>NAN</DistanceMeters>
          </Trackpoint>
          <Trackpoint>
            <Time>2022-07-04T12:08:10.000Z</Time>
            <Position>
              <LatitudeDegrees>44.6949914284050464630126953125</LatitudeDegrees>
              <LongitudeDegrees>-0.8499519713222980499267578125</LongitudeDegrees>
            </Position>
            <AltitudeMeters>46.40000152587890625</AltitudeMeters>
            <DistanceMeters>NAN</DistanceMeters>
          </Trackpoint>
          <Trackpoint>
            <Time>2022-07-04T12:08:18.000Z</Time>
            <Position>
              <LatitudeDegrees>44.69478540122509002685546875</LatitudeDegrees>
              <LongitudeDegrees>-0.850324966013431549072265625</LongitudeDegrees>
            </Position>
            <AltitudeMeters>46.40000152587890625</AltitudeMeters>
            <DistanceMeters>NAN</DistanceMeters>
          </Trackpoint>
          <Trackpoint>
            <Time>2022-07-04T12:08:19.000Z</Time>
            <Position>
              <LatitudeDegrees>44.6947614289820194244384765625</LatitudeDegrees>
              <LongitudeDegrees>-0.850372575223445892333984375</LongitudeDegrees>
            </Position>
            <AltitudeMeters>46.40000152587890625</AltitudeMeters>
            <DistanceMeters>NAN</DistanceMeters>
          </Trackpoint>
          <Trackpoint>
            <Time>2022-07-04T12:08:21.000Z</Time>
            <Position>
              <LatitudeDegrees>44.6947114728391170501708984375</LatitudeDegrees>
              <LongitudeDegrees>-0.85045832209289073944091796875</LongitudeDegrees>
            </Position>
            <AltitudeMeters>46.200000762939453125</AltitudeMeters>
            <DistanceMeters>NAN</DistanceMeters>
          </Trackpoint>
          <Trackpoint>
            <Time>2022-07-04T12:08:25.000Z</Time>
            <Position>
              <LatitudeDegrees>44.69462472014129161834716796875</LatitudeDegrees>
              <LongitudeDegrees>-0.85062663070857524871826171875</LongitudeDegrees>
            </Position>
            <AltitudeMeters>46.40000152587890625</AltitudeMeters>
            <DistanceMeters>NAN</DistanceMeters>
          </Trackpoint>
          <Trackpoint>
            <Time>2022-07-04T12:08:30.000Z</Time>
            <Position>
              <LatitudeDegrees>44.694550372660160064697265625</LatitudeDegrees>
              <LongitudeDegrees>-0.85085780359804630279541015625</LongitudeDegrees>
            </Position>
            <AltitudeMeters>46.40000152587890625</AltitudeMeters>
            <DistanceMeters>NAN</DistanceMeters>
          </Trackpoint>
          <Trackpoint>
            <Time>2022-07-04T12:08:34.000Z</Time>
            <Position>
              <LatitudeDegrees>44.6944601833820343017578125</LatitudeDegrees>
              <LongitudeDegrees>-0.85101437754929065704345703125</LongitudeDegrees>
            </Position>
            <AltitudeMeters>46.40000152587890625</AltitudeMeters>
            <DistanceMeters>NAN</DistanceMeters>
          </Trackpoint>
          <Trackpoint>
            <Time>2022-07-04T12:08:40.000Z</Time>
            <Position>
              <LatitudeDegrees>44.694292880594730377197265625</LatitudeDegrees>
              <LongitudeDegrees>-0.8512340672314167022705078125</LongitudeDegrees>
            </Position>
            <AltitudeMeters>46.200000762939453125</AltitudeMeters>
            <DistanceMeters>NAN</DistanceMeters>
          </Trackpoint>
          <Trackpoint>
            <Time>2022-07-04T12:08:49.000Z</Time>
            <Position>
              <LatitudeDegrees>44.69410286284983158111572265625</LatitudeDegrees>
              <LongitudeDegrees>-0.85163882933557033538818359375</LongitudeDegrees>
            </Position>
            <AltitudeMeters>46.200000762939453125</AltitudeMeters>
            <DistanceMeters>NAN</DistanceMeters>
          </Trackpoint>
          <Trackpoint>
            <Time>2022-07-04T12:08:55.000Z</Time>
            <Position>
              <LatitudeDegrees>44.69396104104816913604736328125</LatitudeDegrees>
              <LongitudeDegrees>-0.851912833750247955322265625</LongitudeDegrees>
            </Position>
            <AltitudeMeters>45.799999237060546875</AltitudeMeters>
            <DistanceMeters>NAN</DistanceMeters>
          </Trackpoint>
          <Trackpoint>
            <Time>2022-07-04T12:08:58.000Z</Time>
            <Position>
              <LatitudeDegrees>44.69390622340142726898193359375</LatitudeDegrees>
              <LongitudeDegrees>-0.85205138660967350006103515625</LongitudeDegrees>
            </Position>
            <AltitudeMeters>45.799999237060546875</AltitudeMeters>
            <DistanceMeters>NAN</DistanceMeters>
          </Trackpoint>
          <Trackpoint>
            <Time>2022-07-04T12:09:06.000Z</Time>
            <Position>
              <LatitudeDegrees>44.693711511790752410888671875</LatitudeDegrees>
              <LongitudeDegrees>-0.85237911902368068695068359375</LongitudeDegrees>
            </Position>
            <AltitudeMeters>45.59999847412109375</AltitudeMeters>
            <DistanceMeters>NAN</DistanceMeters>
          </Trackpoint>
          <Trackpoint>
            <Time>2022-07-04T12:09:13.000Z</Time>
            <Position>
              <LatitudeDegrees>44.69355116598308086395263671875</LatitudeDegrees>
              <LongitudeDegrees>-0.85270307958126068115234375</LongitudeDegrees>
            </Position>
            <AltitudeMeters>45.59999847412109375</AltitudeMeters>
            <DistanceMeters>NAN</DistanceMeters>
          </Trackpoint>
          <Trackpoint>
            <Time>2022-07-04T12:09:21.000Z</Time>
            <Position>
              <LatitudeDegrees>44.6933604776859283447265625</LatitudeDegrees>
              <LongitudeDegrees>-0.85308621637523174285888671875</LongitudeDegrees>
            </Position>
            <AltitudeMeters>45.40000152587890625</AltitudeMeters>
            <DistanceMeters>NAN</DistanceMeters>
          </Trackpoint>
          <Trackpoint>
            <Time>2022-07-04T12:09:29.000Z</Time>
            <Position>
              <LatitudeDegrees>44.6931727230548858642578125</LatitudeDegrees>
              <LongitudeDegrees>-0.85344647057354450225830078125</LongitudeDegrees>
            </Position>
            <AltitudeMeters>45.40000152587890625</AltitudeMeters>
            <DistanceMeters>NAN</DistanceMeters>
          </Trackpoint>
          <Trackpoint>
            <Time>2022-07-04T12:09:36.000Z</Time>
            <Position>
              <LatitudeDegrees>44.69300215132534503936767578125</LatitudeDegrees>
              <LongitudeDegrees>-0.85376548580825328826904296875</LongitudeDegrees>
            </Position>
            <AltitudeMeters>45.40000152587890625</AltitudeMeters>
            <DistanceMeters>NAN</DistanceMeters>
          </Trackpoint>
          <Trackpoint>
            <Time>2022-07-04T12:09:40.000Z</Time>
            <Position>
              <LatitudeDegrees>44.692908190190792083740234375</LatitudeDegrees>
              <LongitudeDegrees>-0.8539457805454730987548828125</LongitudeDegrees>
            </Position>
            <AltitudeMeters>45.40000152587890625</AltitudeMeters>
            <DistanceMeters>NAN</DistanceMeters>
          </Trackpoint>
          <Trackpoint>
            <Time>2022-07-04T12:09:48.000Z</Time>
            <Position>
              <LatitudeDegrees>44.69273258931934833526611328125</LatitudeDegrees>
              <LongitudeDegrees>-0.854318439960479736328125</LongitudeDegrees>
            </Position>
            <AltitudeMeters>45</AltitudeMeters>
            <DistanceMeters>NAN</DistanceMeters>
          </Trackpoint>
          <Trackpoint>
            <Time>2022-07-04T12:09:57.000Z</Time>
            <Position>
              <LatitudeDegrees>44.69255874864757061004638671875</LatitudeDegrees>
              <LongitudeDegrees>-0.8546693064272403717041015625</LongitudeDegrees>
            </Position>
            <AltitudeMeters>45</AltitudeMeters>
            <DistanceMeters>NAN</DistanceMeters>
          </Trackpoint>
          <Trackpoint>
            <Time>2022-07-04T12:10:02.000Z</Time>
            <Position>
              <LatitudeDegrees>44.6925201080739498138427734375</LatitudeDegrees>
              <LongitudeDegrees>-0.85483216680586338043212890625</LongitudeDegrees>
            </Position>
            <AltitudeMeters>45</AltitudeMeters>
            <DistanceMeters>NAN</DistanceMeters>
          </Trackpoint>
          <Trackpoint>
            <Time>2022-07-04T12:10:04.000Z</Time>
            <Position>
              <LatitudeDegrees>44.69252672977745532989501953125</LatitudeDegrees>
              <LongitudeDegrees>-0.85488262586295604705810546875</LongitudeDegrees>
            </Position>
            <AltitudeMeters>44.799999237060546875</AltitudeMeters>
            <DistanceMeters>NAN</DistanceMeters>
          </Trackpoint>
          <Trackpoint>
            <Time>2022-07-04T12:10:05.000Z</Time>
            <Position>
              <LatitudeDegrees>44.69253100454807281494140625</LatitudeDegrees>
              <LongitudeDegrees>-0.85490006022155284881591796875</LongitudeDegrees>
            </Position>
            <AltitudeMeters>44.59999847412109375</AltitudeMeters>
            <DistanceMeters>NAN</DistanceMeters>
          </Trackpoint>
          <Trackpoint>
            <Time>2022-07-04T12:10:07.000Z</Time>
            <Position>
              <LatitudeDegrees>44.692541062831878662109375</LatitudeDegrees>
              <LongitudeDegrees>-0.85491380654275417327880859375</LongitudeDegrees>
            </Position>
            <AltitudeMeters>44.59999847412109375</AltitudeMeters>
            <DistanceMeters>NAN</DistanceMeters>
          </Trackpoint>
          <Trackpoint>
            <Time>2022-07-04T12:10:09.000Z</Time>
            <Position>
              <LatitudeDegrees>44.692541062831878662109375</LatitudeDegrees>
              <LongitudeDegrees>-0.85491380654275417327880859375</LongitudeDegrees>
            </Position>
            <AltitudeMeters>44.59999847412109375</AltitudeMeters>
            <DistanceMeters>NAN</DistanceMeters>
          </Trackpoint>
          <Trackpoint>
            <Time>2022-07-04T12:10:38.000Z</Time>
            <Position>
              <LatitudeDegrees>44.69253729097545146942138671875</LatitudeDegrees>
              <LongitudeDegrees>-0.85498639382421970367431640625</LongitudeDegrees>
            </Position>
            <AltitudeMeters>44.40000152587890625</AltitudeMeters>
            <DistanceMeters>NAN</DistanceMeters>
          </Trackpoint>
          <Trackpoint>
            <Time>2022-07-04T12:10:40.000Z</Time>
            <Position>
              <LatitudeDegrees>44.69250560738146305084228515625</LatitudeDegrees>
              <LongitudeDegrees>-0.85503249429166316986083984375</LongitudeDegrees>
            </Position>
            <AltitudeMeters>44.59999847412109375</AltitudeMeters>
            <DistanceMeters>NAN</DistanceMeters>
          </Trackpoint>
          <Trackpoint>
            <Time>2022-07-04T12:10:46.000Z</Time>
            <Position>
              <LatitudeDegrees>44.6923487819731235504150390625</LatitudeDegrees>
              <LongitudeDegrees>-0.85509024560451507568359375</LongitudeDegrees>
            </Position>
            <AltitudeMeters>44.799999237060546875</AltitudeMeters>
            <DistanceMeters>NAN</DistanceMeters>
          </Trackpoint>
          <Trackpoint>
            <Time>2022-07-04T12:10:50.000Z</Time>
            <Position>
              <LatitudeDegrees>44.69223939813673496246337890625</LatitudeDegrees>
              <LongitudeDegrees>-0.85519175045192241668701171875</LongitudeDegrees>
            </Position>
            <AltitudeMeters>44.799999237060546875</AltitudeMeters>
            <DistanceMeters>NAN</DistanceMeters>
          </Trackpoint>
          <Trackpoint>
            <Time>2022-07-04T12:10:56.000Z</Time>
            <Position>
              <LatitudeDegrees>44.69210495240986347198486328125</LatitudeDegrees>
              <LongitudeDegrees>-0.85543851368129253387451171875</LongitudeDegrees>
            </Position>
            <AltitudeMeters>44.59999847412109375</AltitudeMeters>
            <DistanceMeters>NAN</DistanceMeters>
          </Trackpoint>
          <Trackpoint>
            <Time>2022-07-04T12:11:01.000Z</Time>
            <Position>
              <LatitudeDegrees>44.692002274096012115478515625</LatitudeDegrees>
              <LongitudeDegrees>-0.85564822889864444732666015625</LongitudeDegrees>
            </Position>
            <AltitudeMeters>44.40000152587890625</AltitudeMeters>
            <DistanceMeters>NAN</DistanceMeters>
          </Trackpoint>
          <Trackpoint>
            <Time>2022-07-04T12:11:05.000Z</Time>
            <Position>
              <LatitudeDegrees>44.6919223107397556304931640625</LatitudeDegrees>
              <LongitudeDegrees>-0.85581536404788494110107421875</LongitudeDegrees>
            </Position>
            <AltitudeMeters>44.40000152587890625</AltitudeMeters>
            <DistanceMeters>NAN</DistanceMeters>
          </Trackpoint>
          <Trackpoint>
            <Time>2022-07-04T12:11:14.000Z</Time>
            <Position>
              <LatitudeDegrees>44.69174235127866268157958984375</LatitudeDegrees>
              <LongitudeDegrees>-0.85619389079511165618896484375</LongitudeDegrees>
            </Position>
            <AltitudeMeters>44.40000152587890625</AltitudeMeters>
            <DistanceMeters>NAN</DistanceMeters>
          </Trackpoint>
          <Trackpoint>
            <Time>2022-07-04T12:11:22.000Z</Time>
            <Position>
              <LatitudeDegrees>44.69156297855079174041748046875</LatitudeDegrees>
              <LongitudeDegrees>-0.85653754882514476776123046875</LongitudeDegrees>
            </Position>
            <AltitudeMeters>44</AltitudeMeters>
            <DistanceMeters>NAN</DistanceMeters>
          </Trackpoint>
          <Trackpoint>
            <Time>2022-07-04T12:11:24.000Z</Time>
            <Position>
              <LatitudeDegrees>44.69151754863560199737548828125</LatitudeDegrees>
              <LongitudeDegrees>-0.85662782192230224609375</LongitudeDegrees>
            </Position>
            <AltitudeMeters>44</AltitudeMeters>
            <DistanceMeters>NAN</DistanceMeters>
          </Trackpoint>
          <Trackpoint>
            <Time>2022-07-04T12:11:31.000Z</Time>
            <Position>
              <LatitudeDegrees>44.69139081425964832305908203125</LatitudeDegrees>
              <LongitudeDegrees>-0.85687257349491119384765625</LongitudeDegrees>
            </Position>
            <AltitudeMeters>44</AltitudeMeters>
            <DistanceMeters>NAN</DistanceMeters>
          </Trackpoint>
          <Trackpoint>
            <Time>2022-07-04T12:11:32.000Z</Time>
            <Position>
              <LatitudeDegrees>44.691374637186527252197265625</LatitudeDegrees>
              <LongitudeDegrees>-0.8568786084651947021484375</LongitudeDegrees>
            </Position>
            <AltitudeMeters>43.799999237060546875</AltitudeMeters>
            <DistanceMeters>NAN</DistanceMeters>
          </Trackpoint>
          <Trackpoint>
            <Time>2022-07-04T12:11:33.000Z</Time>
            <Position>
              <LatitudeDegrees>44.691362567245960235595703125</LatitudeDegrees>
              <LongitudeDegrees>-0.85687349550426006317138671875</LongitudeDegrees>
            </Position>
            <AltitudeMeters>43.59999847412109375</AltitudeMeters>
            <DistanceMeters>NAN</DistanceMeters>
          </Trackpoint>
          <Trackpoint>
            <Time>2022-07-04T12:11:35.000Z</Time>
            <Position>
              <LatitudeDegrees>44.6913515031337738037109375</LatitudeDegrees>
              <LongitudeDegrees>-0.8568281494081020355224609375</LongitudeDegrees>
            </Position>
            <AltitudeMeters>43.59999847412109375</AltitudeMeters>
            <DistanceMeters>NAN</DistanceMeters>
          </Trackpoint>
          <Trackpoint>
            <Time>2022-07-04T12:11:36.000Z</Time>
            <Position>
              <LatitudeDegrees>44.6913563646376132965087890625</LatitudeDegrees>
              <LongitudeDegrees>-0.85679587908089160919189453125</LongitudeDegrees>
            </Position>
            <AltitudeMeters>43.59999847412109375</AltitudeMeters>
            <DistanceMeters>NAN</DistanceMeters>
          </Trackpoint>
          <Trackpoint>
            <Time>2022-07-04T12:11:41.000Z</Time>
            <Position>
              <LatitudeDegrees>44.6913684345781803131103515625</LatitudeDegrees>
              <LongitudeDegrees>-0.8567297458648681640625</LongitudeDegrees>
            </Position>
            <AltitudeMeters>43.799999237060546875</AltitudeMeters>
            <DistanceMeters>NAN</DistanceMeters>
          </Trackpoint>
          <Trackpoint>
            <Time>2022-07-04T12:11:53.000Z</Time>
            <Position>
              <LatitudeDegrees>44.69140036962926387786865234375</LatitudeDegrees>
              <LongitudeDegrees>-0.8566640317440032958984375</LongitudeDegrees>
            </Position>
            <AltitudeMeters>43.799999237060546875</AltitudeMeters>
            <DistanceMeters>NAN</DistanceMeters>
          </Trackpoint>
          <Trackpoint>
            <Time>2022-07-04T12:11:56.000Z</Time>
            <Position>
              <LatitudeDegrees>44.69142853282392024993896484375</LatitudeDegrees>
              <LongitudeDegrees>-0.8566102199256420135498046875</LongitudeDegrees>
            </Position>
            <AltitudeMeters>43.799999237060546875</AltitudeMeters>
            <DistanceMeters>NAN</DistanceMeters>
          </Trackpoint>
          <Trackpoint>
            <Time>2022-07-04T12:11:59.000Z</Time>
            <Position>
              <LatitudeDegrees>44.69145677983760833740234375</LatitudeDegrees>
              <LongitudeDegrees>-0.85654492489993572235107421875</LongitudeDegrees>
            </Position>
            <AltitudeMeters>43.799999237060546875</AltitudeMeters>
            <DistanceMeters>NAN</DistanceMeters>
          </Trackpoint>
          <Trackpoint>
            <Time>2022-07-04T12:12:02.000Z</Time>
            <Position>
              <LatitudeDegrees>44.69146993942558765411376953125</LatitudeDegrees>
              <LongitudeDegrees>-0.85653235204517841339111328125</LongitudeDegrees>
            </Position>
            <AltitudeMeters>43.59999847412109375</AltitudeMeters>
            <DistanceMeters>NAN</DistanceMeters>
          </Trackpoint>
          <Trackpoint>
            <Time>2022-07-04T12:12:03.000Z</Time>
            <Position>
              <LatitudeDegrees>44.69146993942558765411376953125</LatitudeDegrees>
              <LongitudeDegrees>-0.85653235204517841339111328125</LongitudeDegrees>
            </Position>
            <AltitudeMeters>43.59999847412109375</AltitudeMeters>
            <DistanceMeters>NAN</DistanceMeters>
          </Trackpoint>
          <Trackpoint>
            <Time>2022-07-04T12:12:14.000Z</Time>
            <Position>
              <LatitudeDegrees>44.69145954586565494537353515625</LatitudeDegrees>
              <LongitudeDegrees>-0.85659840144217014312744140625</LongitudeDegrees>
            </Position>
            <AltitudeMeters>43.59999847412109375</AltitudeMeters>
            <DistanceMeters>NAN</DistanceMeters>
          </Trackpoint>
          <Trackpoint>
            <Time>2022-07-04T12:12:16.000Z</Time>
            <Position>
              <LatitudeDegrees>44.691453762352466583251953125</LatitudeDegrees>
              <LongitudeDegrees>-0.856655649840831756591796875</LongitudeDegrees>
            </Position>
            <AltitudeMeters>43.799999237060546875</AltitudeMeters>
            <DistanceMeters>NAN</DistanceMeters>
          </Trackpoint>
          <Trackpoint>
            <Time>2022-07-04T12:12:21.000Z</Time>
            <Position>
              <LatitudeDegrees>44.6913878805935382843017578125</LatitudeDegrees>
              <LongitudeDegrees>-0.8568920195102691650390625</LongitudeDegrees>
            </Position>
            <AltitudeMeters>44</AltitudeMeters>
            <DistanceMeters>NAN</DistanceMeters>
          </Trackpoint>
          <Trackpoint>
            <Time>2022-07-04T12:12:29.000Z</Time>
            <Position>
              <LatitudeDegrees>44.6911917440593242645263671875</LatitudeDegrees>
              <LongitudeDegrees>-0.857277251780033111572265625</LongitudeDegrees>
            </Position>
            <AltitudeMeters>44.200000762939453125</AltitudeMeters>
            <DistanceMeters>NAN</DistanceMeters>
          </Trackpoint>
          <Trackpoint>
            <Time>2022-07-04T12:12:30.000Z</Time>
            <Position>
              <LatitudeDegrees>44.69116802327334880828857421875</LatitudeDegrees>
              <LongitudeDegrees>-0.857325531542301177978515625</LongitudeDegrees>
            </Position>
            <AltitudeMeters>44.200000762939453125</AltitudeMeters>
            <DistanceMeters>NAN</DistanceMeters>
          </Trackpoint>
          <Trackpoint>
            <Time>2022-07-04T12:12:32.000Z</Time>
            <Position>
              <LatitudeDegrees>44.691119827330112457275390625</LatitudeDegrees>
              <LongitudeDegrees>-0.857417397201061248779296875</LongitudeDegrees>
            </Position>
            <AltitudeMeters>44</AltitudeMeters>
            <DistanceMeters>NAN</DistanceMeters>
          </Trackpoint>
          <Trackpoint>
            <Time>2022-07-04T12:12:37.000Z</Time>
            <Position>
              <LatitudeDegrees>44.6909885667264461517333984375</LatitudeDegrees>
              <LongitudeDegrees>-0.85766256786882877349853515625</LongitudeDegrees>
            </Position>
            <AltitudeMeters>44</AltitudeMeters>
            <DistanceMeters>NAN</DistanceMeters>
          </Trackpoint>
          <Trackpoint>
            <Time>2022-07-04T12:12:38.000Z</Time>
            <Position>
              <LatitudeDegrees>44.69096082262694835662841796875</LatitudeDegrees>
              <LongitudeDegrees>-0.85771252401173114776611328125</LongitudeDegrees>
            </Position>
            <AltitudeMeters>43.799999237060546875</AltitudeMeters>
            <DistanceMeters>NAN</DistanceMeters>
          </Trackpoint>
          <Trackpoint>
            <Time>2022-07-04T12:12:45.000Z</Time>
            <Position>
              <LatitudeDegrees>44.690771140158176422119140625</LatitudeDegrees>
              <LongitudeDegrees>-0.8580619655549526214599609375</LongitudeDegrees>
            </Position>
            <AltitudeMeters>43.799999237060546875</AltitudeMeters>
            <DistanceMeters>NAN</DistanceMeters>
          </Trackpoint>
          <Trackpoint>
            <Time>2022-07-04T12:12:48.000Z</Time>
            <Position>
              <LatitudeDegrees>44.69069712795317173004150390625</LatitudeDegrees>
              <LongitudeDegrees>-0.85822851397097110748291015625</LongitudeDegrees>
            </Position>
            <AltitudeMeters>43.59999847412109375</AltitudeMeters>
            <DistanceMeters>NAN</DistanceMeters>
          </Trackpoint>
          <Trackpoint>
            <Time>2022-07-04T12:12:58.000Z</Time>
            <Position>
              <LatitudeDegrees>44.69045899808406829833984375</LatitudeDegrees>
              <LongitudeDegrees>-0.8587264828383922576904296875</LongitudeDegrees>
            </Position>
            <AltitudeMeters>43.200000762939453125</AltitudeMeters>
            <DistanceMeters>NAN</DistanceMeters>
          </Trackpoint>
          <Trackpoint>
            <Time>2022-07-04T12:13:01.000Z</Time>
            <Position>
              <LatitudeDegrees>44.69040158204734325408935546875</LatitudeDegrees>
              <LongitudeDegrees>-0.85885732434689998626708984375</LongitudeDegrees>
            </Position>
            <AltitudeMeters>43</AltitudeMeters>
            <DistanceMeters>NAN</DistanceMeters>
          </Trackpoint>
          <Trackpoint>
            <Time>2022-07-04T12:13:03.000Z</Time>
            <Position>
              <LatitudeDegrees>44.69035246409475803375244140625</LatitudeDegrees>
              <LongitudeDegrees>-0.8589279837906360626220703125</LongitudeDegrees>
            </Position>
            <AltitudeMeters>42.799999237060546875</AltitudeMeters>
            <DistanceMeters>NAN</DistanceMeters>
          </Trackpoint>
          <Trackpoint>
            <Time>2022-07-04T12:13:07.000Z</Time>
            <Position>
              <LatitudeDegrees>44.690291695296764373779296875</LatitudeDegrees>
              <LongitudeDegrees>-0.85906662046909332275390625</LongitudeDegrees>
            </Position>
            <AltitudeMeters>42.59999847412109375</AltitudeMeters>
            <DistanceMeters>NAN</DistanceMeters>
          </Trackpoint>
          <Trackpoint>
            <Time>2022-07-04T12:13:09.000Z</Time>
            <Position>
              <LatitudeDegrees>44.69029060564935207366943359375</LatitudeDegrees>
              <LongitudeDegrees>-0.85907039232552051544189453125</LongitudeDegrees>
            </Position>
            <AltitudeMeters>42.59999847412109375</AltitudeMeters>
            <DistanceMeters>NAN</DistanceMeters>
          </Trackpoint>
          <Trackpoint>
            <Time>2022-07-04T12:14:49.000Z</Time>
            <Position>
              <LatitudeDegrees>44.69026210717856884002685546875</LatitudeDegrees>
              <LongitudeDegrees>-0.85914331488311290740966796875</LongitudeDegrees>
            </Position>
            <AltitudeMeters>42.59999847412109375</AltitudeMeters>
            <DistanceMeters>NAN</DistanceMeters>
          </Trackpoint>
          <Trackpoint>
            <Time>2022-07-04T12:14:50.000Z</Time>
            <Position>
              <LatitudeDegrees>44.690247438848018646240234375</LatitudeDegrees>
              <LongitudeDegrees>-0.859173573553562164306640625</LongitudeDegrees>
            </Position>
            <AltitudeMeters>42.59999847412109375</AltitudeMeters>
            <DistanceMeters>NAN</DistanceMeters>
          </Trackpoint>
          <Trackpoint>
            <Time>2022-07-04T12:14:55.000Z</Time>
            <Position>
              <LatitudeDegrees>44.6901604346930980682373046875</LatitudeDegrees>
              <LongitudeDegrees>-0.85932939313352108001708984375</LongitudeDegrees>
            </Position>
            <AltitudeMeters>42.59999847412109375</AltitudeMeters>
            <DistanceMeters>NAN</DistanceMeters>
          </Trackpoint>
          <Trackpoint>
            <Time>2022-07-04T12:14:59.000Z</Time>
            <Position>
              <LatitudeDegrees>44.69011341221630573272705078125</LatitudeDegrees>
              <LongitudeDegrees>-0.85941002704203128814697265625</LongitudeDegrees>
            </Position>
            <AltitudeMeters>42.200000762939453125</AltitudeMeters>
            <DistanceMeters>NAN</DistanceMeters>
          </Trackpoint>
          <Trackpoint>
            <Time>2022-07-04T12:15:00.000Z</Time>
            <Position>
              <LatitudeDegrees>44.690111316740512847900390625</LatitudeDegrees>
              <LongitudeDegrees>-0.85941237397491931915283203125</LongitudeDegrees>
            </Position>
            <AltitudeMeters>42.200000762939453125</AltitudeMeters>
            <DistanceMeters>NAN</DistanceMeters>
          </Trackpoint>
          <Trackpoint>
            <Time>2022-07-04T12:15:01.000Z</Time>
            <Position>
              <LatitudeDegrees>44.690111316740512847900390625</LatitudeDegrees>
              <LongitudeDegrees>-0.85941237397491931915283203125</LongitudeDegrees>
            </Position>
            <AltitudeMeters>42</AltitudeMeters>
            <DistanceMeters>NAN</DistanceMeters>
          </Trackpoint>
          <Trackpoint>
            <Time>2022-07-04T12:15:21.000Z</Time>
            <Position>
              <LatitudeDegrees>44.690073430538177490234375</LatitudeDegrees>
              <LongitudeDegrees>-0.859452523291110992431640625</LongitudeDegrees>
            </Position>
            <AltitudeMeters>42</AltitudeMeters>
            <DistanceMeters>NAN</DistanceMeters>
          </Trackpoint>
          <Trackpoint>
            <Time>2022-07-04T12:15:23.000Z</Time>
            <Position>
              <LatitudeDegrees>44.69004099257290363311767578125</LatitudeDegrees>
              <LongitudeDegrees>-0.8595160581171512603759765625</LongitudeDegrees>
            </Position>
            <AltitudeMeters>42.200000762939453125</AltitudeMeters>
            <DistanceMeters>NAN</DistanceMeters>
          </Trackpoint>
          <Trackpoint>
            <Time>2022-07-04T12:15:28.000Z</Time>
            <Position>
              <LatitudeDegrees>44.68992716632783412933349609375</LatitudeDegrees>
              <LongitudeDegrees>-0.85972954519093036651611328125</LongitudeDegrees>
            </Position>
            <AltitudeMeters>42.200000762939453125</AltitudeMeters>
            <DistanceMeters>NAN</DistanceMeters>
          </Trackpoint>
          <Trackpoint>
            <Time>2022-07-04T12:15:36.000Z</Time>
            <Position>
              <LatitudeDegrees>44.68974259681999683380126953125</LatitudeDegrees>
              <LongitudeDegrees>-0.860090553760528564453125</LongitudeDegrees>
            </Position>
            <AltitudeMeters>42.200000762939453125</AltitudeMeters>
            <DistanceMeters>NAN</DistanceMeters>
          </Trackpoint>
          <Trackpoint>
            <Time>2022-07-04T12:15:38.000Z</Time>
            <Position>
              <LatitudeDegrees>44.68969431705772876739501953125</LatitudeDegrees>
              <LongitudeDegrees>-0.86018535308539867401123046875</LongitudeDegrees>
            </Position>
            <AltitudeMeters>42</AltitudeMeters>
            <DistanceMeters>NAN</DistanceMeters>
          </Trackpoint>
          <Trackpoint>
            <Time>2022-07-04T12:15:41.000Z</Time>
            <Position>
              <LatitudeDegrees>44.6896260045468807220458984375</LatitudeDegrees>
              <LongitudeDegrees>-0.860326588153839111328125</LongitudeDegrees>
            </Position>
            <AltitudeMeters>42.200000762939453125</AltitudeMeters>
            <DistanceMeters>NAN</DistanceMeters>
          </Trackpoint>
          <Trackpoint>
            <Time>2022-07-04T12:15:43.000Z</Time>
            <Position>
              <LatitudeDegrees>44.6895981766283512115478515625</LatitudeDegrees>
              <LongitudeDegrees>-0.86043228395283222198486328125</LongitudeDegrees>
            </Position>
            <AltitudeMeters>42.200000762939453125</AltitudeMeters>
            <DistanceMeters>NAN</DistanceMeters>
          </Trackpoint>
          <Trackpoint>
            <Time>2022-07-04T12:15:44.000Z</Time>
            <Position>
              <LatitudeDegrees>44.68959457240998744964599609375</LatitudeDegrees>
              <LongitudeDegrees>-0.860483832657337188720703125</LongitudeDegrees>
            </Position>
            <AltitudeMeters>42.200000762939453125</AltitudeMeters>
            <DistanceMeters>NAN</DistanceMeters>
          </Trackpoint>
          <Trackpoint>
            <Time>2022-07-04T12:15:53.000Z</Time>
            <Position>
              <LatitudeDegrees>44.68960194848477840423583984375</LatitudeDegrees>
              <LongitudeDegrees>-0.86099538020789623260498046875</LongitudeDegrees>
            </Position>
            <AltitudeMeters>42.200000762939453125</AltitudeMeters>
            <DistanceMeters>NAN</DistanceMeters>
          </Trackpoint>
          <Trackpoint>
            <Time>2022-07-04T12:16:02.000Z</Time>
            <Position>
              <LatitudeDegrees>44.6895887888967990875244140625</LatitudeDegrees>
              <LongitudeDegrees>-0.861501395702362060546875</LongitudeDegrees>
            </Position>
            <AltitudeMeters>42.200000762939453125</AltitudeMeters>
            <DistanceMeters>NAN</DistanceMeters>
          </Trackpoint>
          <Trackpoint>
            <Time>2022-07-04T12:16:04.000Z</Time>
            <Position>
              <LatitudeDegrees>44.6895844303071498870849609375</LatitudeDegrees>
              <LongitudeDegrees>-0.86162452585995197296142578125</LongitudeDegrees>
            </Position>
            <AltitudeMeters>42.200000762939453125</AltitudeMeters>
            <DistanceMeters>NAN</DistanceMeters>
          </Trackpoint>
          <Trackpoint>
            <Time>2022-07-04T12:16:06.000Z</Time>
            <Position>
              <LatitudeDegrees>44.68958032317459583282470703125</LatitudeDegrees>
              <LongitudeDegrees>-0.86174078285694122314453125</LongitudeDegrees>
            </Position>
            <AltitudeMeters>42</AltitudeMeters>
            <DistanceMeters>NAN</DistanceMeters>
          </Trackpoint>
          <Trackpoint>
            <Time>2022-07-04T12:16:10.000Z</Time>
            <Position>
              <LatitudeDegrees>44.68957261182367801666259765625</LatitudeDegrees>
              <LongitudeDegrees>-0.8619910664856433868408203125</LongitudeDegrees>
            </Position>
            <AltitudeMeters>42</AltitudeMeters>
            <DistanceMeters>NAN</DistanceMeters>
          </Trackpoint>
          <Trackpoint>
            <Time>2022-07-04T12:16:12.000Z</Time>
            <Position>
              <LatitudeDegrees>44.6895693428814411163330078125</LatitudeDegrees>
              <LongitudeDegrees>-0.86210212670266628265380859375</LongitudeDegrees>
            </Position>
            <AltitudeMeters>42</AltitudeMeters>
            <DistanceMeters>NAN</DistanceMeters>
          </Trackpoint>
          <Trackpoint>
            <Time>2022-07-04T12:16:14.000Z</Time>
            <Position>
              <LatitudeDegrees>44.68956674449145793914794921875</LatitudeDegrees>
              <LongitudeDegrees>-0.86222131736576557159423828125</LongitudeDegrees>
            </Position>
            <AltitudeMeters>42</AltitudeMeters>
            <DistanceMeters>NAN</DistanceMeters>
          </Trackpoint>
          <Trackpoint>
            <Time>2022-07-04T12:16:20.000Z</Time>
            <Position>
              <LatitudeDegrees>44.68955802731215953826904296875</LatitudeDegrees>
              <LongitudeDegrees>-0.86258970201015472412109375</LongitudeDegrees>
            </Position>
            <AltitudeMeters>42</AltitudeMeters>
            <DistanceMeters>NAN</DistanceMeters>
          </Trackpoint>
          <Trackpoint>
            <Time>2022-07-04T12:16:26.000Z</Time>
            <Position>
              <LatitudeDegrees>44.6895490586757659912109375</LatitudeDegrees>
              <LongitudeDegrees>-0.86295221932232379913330078125</LongitudeDegrees>
            </Position>
            <AltitudeMeters>41.799999237060546875</AltitudeMeters>
            <DistanceMeters>NAN</DistanceMeters>
          </Trackpoint>
          <Trackpoint>
            <Time>2022-07-04T12:16:30.000Z</Time>
            <Position>
              <LatitudeDegrees>44.68955316580832004547119140625</LatitudeDegrees>
              <LongitudeDegrees>-0.8631863258779048919677734375</LongitudeDegrees>
            </Position>
            <AltitudeMeters>41.59999847412109375</AltitudeMeters>
            <DistanceMeters>NAN</DistanceMeters>
          </Trackpoint>
          <Trackpoint>
            <Time>2022-07-04T12:16:38.000Z</Time>
            <Position>
              <LatitudeDegrees>44.68954545445740222930908203125</LatitudeDegrees>
              <LongitudeDegrees>-0.8636302314698696136474609375</LongitudeDegrees>
            </Position>
            <AltitudeMeters>41.59999847412109375</AltitudeMeters>
            <DistanceMeters>NAN</DistanceMeters>
          </Trackpoint>
          <Trackpoint>
            <Time>2022-07-04T12:16:39.000Z</Time>
            <Position>
              <LatitudeDegrees>44.68954461626708507537841796875</LatitudeDegrees>
              <LongitudeDegrees>-0.86369569413363933563232421875</LongitudeDegrees>
            </Position>
            <AltitudeMeters>41.59999847412109375</AltitudeMeters>
            <DistanceMeters>NAN</DistanceMeters>
          </Trackpoint>
          <Trackpoint>
            <Time>2022-07-04T12:16:49.000Z</Time>
            <Position>
              <LatitudeDegrees>44.68954302370548248291015625</LatitudeDegrees>
              <LongitudeDegrees>-0.86421034298837184906005859375</LongitudeDegrees>
            </Position>
            <AltitudeMeters>41</AltitudeMeters>
            <DistanceMeters>NAN</DistanceMeters>
          </Trackpoint>
          <Trackpoint>
            <Time>2022-07-04T12:16:53.000Z</Time>
            <Position>
              <LatitudeDegrees>44.68955199234187602996826171875</LatitudeDegrees>
              <LongitudeDegrees>-0.86432215757668018341064453125</LongitudeDegrees>
            </Position>
            <AltitudeMeters>40.799999237060546875</AltitudeMeters>
            <DistanceMeters>NAN</DistanceMeters>
          </Trackpoint>
          <Trackpoint>
            <Time>2022-07-04T12:16:57.000Z</Time>
            <Position>
              <LatitudeDegrees>44.68955509364604949951171875</LatitudeDegrees>
              <LongitudeDegrees>-0.86434680037200450897216796875</LongitudeDegrees>
            </Position>
            <AltitudeMeters>40.799999237060546875</AltitudeMeters>
            <DistanceMeters>NAN</DistanceMeters>
          </Trackpoint>
          <Trackpoint>
            <Time>2022-07-04T12:17:26.000Z</Time>
            <Position>
              <LatitudeDegrees>44.68953187577426433563232421875</LatitudeDegrees>
              <LongitudeDegrees>-0.86447973735630512237548828125</LongitudeDegrees>
            </Position>
            <AltitudeMeters>40.799999237060546875</AltitudeMeters>
            <DistanceMeters>NAN</DistanceMeters>
          </Trackpoint>
          <Trackpoint>
            <Time>2022-07-04T12:17:30.000Z</Time>
            <Position>
              <LatitudeDegrees>44.689542353153228759765625</LatitudeDegrees>
              <LongitudeDegrees>-0.86465709842741489410400390625</LongitudeDegrees>
            </Position>
            <AltitudeMeters>41</AltitudeMeters>
            <DistanceMeters>NAN</DistanceMeters>
          </Trackpoint>
          <Trackpoint>
            <Time>2022-07-04T12:17:34.000Z</Time>
            <Position>
              <LatitudeDegrees>44.68954746611416339874267578125</LatitudeDegrees>
              <LongitudeDegrees>-0.8648715913295745849609375</LongitudeDegrees>
            </Position>
            <AltitudeMeters>41.200000762939453125</AltitudeMeters>
            <DistanceMeters>NAN</DistanceMeters>
          </Trackpoint>
          <Trackpoint>
            <Time>2022-07-04T12:17:38.000Z</Time>
            <Position>
              <LatitudeDegrees>44.68955450691282749176025390625</LatitudeDegrees>
              <LongitudeDegrees>-0.86511055938899517059326171875</LongitudeDegrees>
            </Position>
            <AltitudeMeters>41.40000152587890625</AltitudeMeters>
            <DistanceMeters>NAN</DistanceMeters>
          </Trackpoint>
          <Trackpoint>
            <Time>2022-07-04T12:17:44.000Z</Time>
            <Position>
              <LatitudeDegrees>44.6895197220146656036376953125</LatitudeDegrees>
              <LongitudeDegrees>-0.86549813859164714813232421875</LongitudeDegrees>
            </Position>
            <AltitudeMeters>41.40000152587890625</AltitudeMeters>
            <DistanceMeters>NAN</DistanceMeters>
          </Trackpoint>
          <Trackpoint>
            <Time>2022-07-04T12:17:48.000Z</Time>
            <Position>
              <LatitudeDegrees>44.68947571702301502227783203125</LatitudeDegrees>
              <LongitudeDegrees>-0.86576300673186779022216796875</LongitudeDegrees>
            </Position>
            <AltitudeMeters>41.200000762939453125</AltitudeMeters>
            <DistanceMeters>NAN</DistanceMeters>
          </Trackpoint>
          <Trackpoint>
            <Time>2022-07-04T12:17:49.000Z</Time>
            <Position>
              <LatitudeDegrees>44.68948191963136196136474609375</LatitudeDegrees>
              <LongitudeDegrees>-0.86582721211016178131103515625</LongitudeDegrees>
            </Position>
            <AltitudeMeters>41.200000762939453125</AltitudeMeters>
            <DistanceMeters>NAN</DistanceMeters>
          </Trackpoint>
          <Trackpoint>
            <Time>2022-07-04T12:17:53.000Z</Time>
            <Position>
              <LatitudeDegrees>44.68947789631783962249755859375</LatitudeDegrees>
              <LongitudeDegrees>-0.86607255041599273681640625</LongitudeDegrees>
            </Position>
            <AltitudeMeters>41.40000152587890625</AltitudeMeters>
            <DistanceMeters>NAN</DistanceMeters>
          </Trackpoint>
          <Trackpoint>
            <Time>2022-07-04T12:17:56.000Z</Time>
            <Position>
              <LatitudeDegrees>44.68947999179363250732421875</LatitudeDegrees>
              <LongitudeDegrees>-0.86624563671648502349853515625</LongitudeDegrees>
            </Position>
            <AltitudeMeters>41.40000152587890625</AltitudeMeters>
            <DistanceMeters>NAN</DistanceMeters>
          </Trackpoint>
          <Trackpoint>
            <Time>2022-07-04T12:17:57.000Z</Time>
            <Position>
              <LatitudeDegrees>44.68948401510715484619140625</LatitudeDegrees>
              <LongitudeDegrees>-0.86630280129611492156982421875</LongitudeDegrees>
            </Position>
            <AltitudeMeters>41.40000152587890625</AltitudeMeters>
            <DistanceMeters>NAN</DistanceMeters>
          </Trackpoint>
          <Trackpoint>
            <Time>2022-07-04T12:18:05.000Z</Time>
            <Position>
              <LatitudeDegrees>44.689473621547222137451171875</LatitudeDegrees>
              <LongitudeDegrees>-0.86675156839191913604736328125</LongitudeDegrees>
            </Position>
            <AltitudeMeters>41.59999847412109375</AltitudeMeters>
            <DistanceMeters>NAN</DistanceMeters>
          </Trackpoint>
          <Trackpoint>
            <Time>2022-07-04T12:18:06.000Z</Time>
            <Position>
              <LatitudeDegrees>44.68947521410882472991943359375</LatitudeDegrees>
              <LongitudeDegrees>-0.86680957116186618804931640625</LongitudeDegrees>
            </Position>
            <AltitudeMeters>41.59999847412109375</AltitudeMeters>
            <DistanceMeters>NAN</DistanceMeters>
          </Trackpoint>
          <Trackpoint>
            <Time>2022-07-04T12:18:13.000Z</Time>
            <Position>
              <LatitudeDegrees>44.6894781477749347686767578125</LatitudeDegrees>
              <LongitudeDegrees>-0.86723419837653636932373046875</LongitudeDegrees>
            </Position>
            <AltitudeMeters>41.40000152587890625</AltitudeMeters>
            <DistanceMeters>NAN</DistanceMeters>
          </Trackpoint>
          <Trackpoint>
            <Time>2022-07-04T12:18:14.000Z</Time>
            <Position>
              <LatitudeDegrees>44.689478985965251922607421875</LatitudeDegrees>
              <LongitudeDegrees>-0.8672934584319591522216796875</LongitudeDegrees>
            </Position>
            <AltitudeMeters>41.40000152587890625</AltitudeMeters>
            <DistanceMeters>NAN</DistanceMeters>
          </Trackpoint>
          <Trackpoint>
            <Time>2022-07-04T12:18:16.000Z</Time>
            <Position>
              <LatitudeDegrees>44.689477644860744476318359375</LatitudeDegrees>
              <LongitudeDegrees>-0.8674305863678455352783203125</LongitudeDegrees>
            </Position>
            <AltitudeMeters>41.40000152587890625</AltitudeMeters>
            <DistanceMeters>NAN</DistanceMeters>
          </Trackpoint>
          <Trackpoint>
            <Time>2022-07-04T12:18:19.000Z</Time>
            <Position>
              <LatitudeDegrees>44.68947923742234706878662109375</LatitudeDegrees>
              <LongitudeDegrees>-0.86760702542960643768310546875</LongitudeDegrees>
            </Position>
            <AltitudeMeters>41.200000762939453125</AltitudeMeters>
            <DistanceMeters>NAN</DistanceMeters>
          </Trackpoint>
          <Trackpoint>
            <Time>2022-07-04T12:18:22.000Z</Time>
            <Position>
              <LatitudeDegrees>44.68948158435523509979248046875</LatitudeDegrees>
              <LongitudeDegrees>-0.867781452834606170654296875</LongitudeDegrees>
            </Position>
            <AltitudeMeters>41.200000762939453125</AltitudeMeters>
            <DistanceMeters>NAN</DistanceMeters>
          </Trackpoint>
          <Trackpoint>
            <Time>2022-07-04T12:18:26.000Z</Time>
            <Position>
              <LatitudeDegrees>44.68949072062969207763671875</LatitudeDegrees>
              <LongitudeDegrees>-0.8680136315524578094482421875</LongitudeDegrees>
            </Position>
            <AltitudeMeters>41.200000762939453125</AltitudeMeters>
            <DistanceMeters>NAN</DistanceMeters>
          </Trackpoint>
          <Trackpoint>
            <Time>2022-07-04T12:18:33.000Z</Time>
            <Position>
              <LatitudeDegrees>44.68948669731616973876953125</LatitudeDegrees>
              <LongitudeDegrees>-0.86843079887330532073974609375</LongitudeDegrees>
            </Position>
            <AltitudeMeters>41.40000152587890625</AltitudeMeters>
            <DistanceMeters>NAN</DistanceMeters>
          </Trackpoint>
          <Trackpoint>
            <Time>2022-07-04T12:18:36.000Z</Time>
            <Position>
              <LatitudeDegrees>44.68949474394321441650390625</LatitudeDegrees>
              <LongitudeDegrees>-0.86860195733606815338134765625</LongitudeDegrees>
            </Position>
            <AltitudeMeters>41.40000152587890625</AltitudeMeters>
            <DistanceMeters>NAN</DistanceMeters>
          </Trackpoint>
          <Trackpoint>
            <Time>2022-07-04T12:18:38.000Z</Time>
            <Position>
              <LatitudeDegrees>44.68948979862034320831298828125</LatitudeDegrees>
              <LongitudeDegrees>-0.86871452629566192626953125</LongitudeDegrees>
            </Position>
            <AltitudeMeters>41.200000762939453125</AltitudeMeters>
            <DistanceMeters>NAN</DistanceMeters>
          </Trackpoint>
          <Trackpoint>
            <Time>2022-07-04T12:18:43.000Z</Time>
            <Position>
              <LatitudeDegrees>44.6894798241555690765380859375</LatitudeDegrees>
              <LongitudeDegrees>-0.868993811309337615966796875</LongitudeDegrees>
            </Position>
            <AltitudeMeters>41.40000152587890625</AltitudeMeters>
            <DistanceMeters>NAN</DistanceMeters>
          </Trackpoint>
          <Trackpoint>
            <Time>2022-07-04T12:18:50.000Z</Time>
            <Position>
              <LatitudeDegrees>44.689477980136871337890625</LatitudeDegrees>
              <LongitudeDegrees>-0.8694274909794330596923828125</LongitudeDegrees>
            </Position>
            <AltitudeMeters>41.59999847412109375</AltitudeMeters>
            <DistanceMeters>NAN</DistanceMeters>
          </Trackpoint>
          <Trackpoint>
            <Time>2022-07-04T12:18:52.000Z</Time>
            <Position>
              <LatitudeDegrees>44.689480327069759368896484375</LatitudeDegrees>
              <LongitudeDegrees>-0.86952187120914459228515625</LongitudeDegrees>
            </Position>
            <AltitudeMeters>41.59999847412109375</AltitudeMeters>
            <DistanceMeters>NAN</DistanceMeters>
          </Trackpoint>
          <Trackpoint>
            <Time>2022-07-04T12:18:54.000Z</Time>
            <Position>
              <LatitudeDegrees>44.68947730958461761474609375</LatitudeDegrees>
              <LongitudeDegrees>-0.8696219511330127716064453125</LongitudeDegrees>
            </Position>
            <AltitudeMeters>41.59999847412109375</AltitudeMeters>
            <DistanceMeters>NAN</DistanceMeters>
          </Trackpoint>
          <Trackpoint>
            <Time>2022-07-04T12:18:55.000Z</Time>
            <Position>
              <LatitudeDegrees>44.68947605229914188385009765625</LatitudeDegrees>
              <LongitudeDegrees>-0.869689844548702239990234375</LongitudeDegrees>
            </Position>
            <AltitudeMeters>41.59999847412109375</AltitudeMeters>
            <DistanceMeters>NAN</DistanceMeters>
          </Trackpoint>
          <Trackpoint>
            <Time>2022-07-04T12:19:03.000Z</Time>
            <Position>
              <LatitudeDegrees>44.68947269953787326812744140625</LatitudeDegrees>
              <LongitudeDegrees>-0.8701463229954242706298828125</LongitudeDegrees>
            </Position>
            <AltitudeMeters>41.59999847412109375</AltitudeMeters>
            <DistanceMeters>NAN</DistanceMeters>
          </Trackpoint>
          <Trackpoint>
            <Time>2022-07-04T12:19:05.000Z</Time>
            <Position>
              <LatitudeDegrees>44.68947705812752246856689453125</LatitudeDegrees>
              <LongitudeDegrees>-0.8702750690281391143798828125</LongitudeDegrees>
            </Position>
            <AltitudeMeters>41.59999847412109375</AltitudeMeters>
            <DistanceMeters>NAN</DistanceMeters>
          </Trackpoint>
          <Trackpoint>
            <Time>2022-07-04T12:19:12.000Z</Time>
            <Position>
              <LatitudeDegrees>44.68947588466107845306396484375</LatitudeDegrees>
              <LongitudeDegrees>-0.8706904761493206024169921875</LongitudeDegrees>
            </Position>
            <AltitudeMeters>41.40000152587890625</AltitudeMeters>
            <DistanceMeters>NAN</DistanceMeters>
          </Trackpoint>
          <Trackpoint>
            <Time>2022-07-04T12:19:22.000Z</Time>
            <Position>
              <LatitudeDegrees>44.68946984969079494476318359375</LatitudeDegrees>
              <LongitudeDegrees>-0.87130478583276271820068359375</LongitudeDegrees>
            </Position>
            <AltitudeMeters>41.40000152587890625</AltitudeMeters>
            <DistanceMeters>NAN</DistanceMeters>
          </Trackpoint>
          <Trackpoint>
            <Time>2022-07-04T12:19:28.000Z</Time>
            <Position>
              <LatitudeDegrees>44.68948066234588623046875</LatitudeDegrees>
              <LongitudeDegrees>-0.8716604299843311309814453125</LongitudeDegrees>
            </Position>
            <AltitudeMeters>41.40000152587890625</AltitudeMeters>
            <DistanceMeters>NAN</DistanceMeters>
          </Trackpoint>
          <Trackpoint>
            <Time>2022-07-04T12:19:29.000Z</Time>
            <Position>
              <LatitudeDegrees>44.68948024325072765350341796875</LatitudeDegrees>
              <LongitudeDegrees>-0.87172153405845165252685546875</LongitudeDegrees>
            </Position>
            <AltitudeMeters>41.40000152587890625</AltitudeMeters>
            <DistanceMeters>NAN</DistanceMeters>
          </Trackpoint>
          <Trackpoint>
            <Time>2022-07-04T12:19:37.000Z</Time>
            <Position>
              <LatitudeDegrees>44.6894687600433826446533203125</LatitudeDegrees>
              <LongitudeDegrees>-0.87216912768781185150146484375</LongitudeDegrees>
            </Position>
            <AltitudeMeters>41.40000152587890625</AltitudeMeters>
            <DistanceMeters>NAN</DistanceMeters>
          </Trackpoint>
          <Trackpoint>
            <Time>2022-07-04T12:19:43.000Z</Time>
            <Position>
              <LatitudeDegrees>44.6894647367298603057861328125</LatitudeDegrees>
              <LongitudeDegrees>-0.87245679460465908050537109375</LongitudeDegrees>
            </Position>
            <AltitudeMeters>41.200000762939453125</AltitudeMeters>
            <DistanceMeters>NAN</DistanceMeters>
          </Trackpoint>
          <Trackpoint>
            <Time>2022-07-04T12:19:50.000Z</Time>
            <Position>
              <LatitudeDegrees>44.6894664131104946136474609375</LatitudeDegrees>
              <LongitudeDegrees>-0.87277941405773162841796875</LongitudeDegrees>
            </Position>
            <AltitudeMeters>41.200000762939453125</AltitudeMeters>
            <DistanceMeters>NAN</DistanceMeters>
          </Trackpoint>
          <Trackpoint>
            <Time>2022-07-04T12:19:56.000Z</Time>
            <Position>
              <LatitudeDegrees>44.689475633203983306884765625</LatitudeDegrees>
              <LongitudeDegrees>-0.87310756556689739227294921875</LongitudeDegrees>
            </Position>
            <AltitudeMeters>41.40000152587890625</AltitudeMeters>
            <DistanceMeters>NAN</DistanceMeters>
          </Trackpoint>
          <Trackpoint>
            <Time>2022-07-04T12:20:03.000Z</Time>
            <Position>
              <LatitudeDegrees>44.68945777975022792816162109375</LatitudeDegrees>
              <LongitudeDegrees>-0.87350419722497463226318359375</LongitudeDegrees>
            </Position>
            <AltitudeMeters>41.59999847412109375</AltitudeMeters>
            <DistanceMeters>NAN</DistanceMeters>
          </Trackpoint>
          <Trackpoint>
            <Time>2022-07-04T12:20:11.000Z</Time>
            <Position>
              <LatitudeDegrees>44.6894637309014797210693359375</LatitudeDegrees>
              <LongitudeDegrees>-0.87394977919757366180419921875</LongitudeDegrees>
            </Position>
            <AltitudeMeters>41.59999847412109375</AltitudeMeters>
            <DistanceMeters>NAN</DistanceMeters>
          </Trackpoint>
          <Trackpoint>
            <Time>2022-07-04T12:20:17.000Z</Time>
            <Position>
              <LatitudeDegrees>44.6894610486924648284912109375</LatitudeDegrees>
              <LongitudeDegrees>-0.8742836304008960723876953125</LongitudeDegrees>
            </Position>
            <AltitudeMeters>41.799999237060546875</AltitudeMeters>
            <DistanceMeters>NAN</DistanceMeters>
          </Trackpoint>
          <Trackpoint>
            <Time>2022-07-04T12:20:19.000Z</Time>
            <Position>
              <LatitudeDegrees>44.68946683220565319061279296875</LatitudeDegrees>
              <LongitudeDegrees>-0.87441715411841869354248046875</LongitudeDegrees>
            </Position>
            <AltitudeMeters>42</AltitudeMeters>
            <DistanceMeters>NAN</DistanceMeters>
          </Trackpoint>
          <Trackpoint>
            <Time>2022-07-04T12:20:26.000Z</Time>
            <Position>
              <LatitudeDegrees>44.68945375643670558929443359375</LatitudeDegrees>
              <LongitudeDegrees>-0.8748663403093814849853515625</LongitudeDegrees>
            </Position>
            <AltitudeMeters>41.59999847412109375</AltitudeMeters>
            <DistanceMeters>NAN</DistanceMeters>
          </Trackpoint>
          <Trackpoint>
            <Time>2022-07-04T12:20:32.000Z</Time>
            <Position>
              <LatitudeDegrees>44.6894600428640842437744140625</LatitudeDegrees>
              <LongitudeDegrees>-0.8751902170479297637939453125</LongitudeDegrees>
            </Position>
            <AltitudeMeters>41.59999847412109375</AltitudeMeters>
            <DistanceMeters>NAN</DistanceMeters>
          </Trackpoint>
          <Trackpoint>
            <Time>2022-07-04T12:20:34.000Z</Time>
            <Position>
              <LatitudeDegrees>44.68945727683603763580322265625</LatitudeDegrees>
              <LongitudeDegrees>-0.8753162808716297149658203125</LongitudeDegrees>
            </Position>
            <AltitudeMeters>41.59999847412109375</AltitudeMeters>
            <DistanceMeters>NAN</DistanceMeters>
          </Trackpoint>
          <Trackpoint>
            <Time>2022-07-04T12:20:42.000Z</Time>
            <Position>
              <LatitudeDegrees>44.689460881054401397705078125</LatitudeDegrees>
              <LongitudeDegrees>-0.87576664052903652191162109375</LongitudeDegrees>
            </Position>
            <AltitudeMeters>41.40000152587890625</AltitudeMeters>
            <DistanceMeters>NAN</DistanceMeters>
          </Trackpoint>
          <Trackpoint>
            <Time>2022-07-04T12:20:51.000Z</Time>
            <Position>
              <LatitudeDegrees>44.68946834094822406768798828125</LatitudeDegrees>
              <LongitudeDegrees>-0.8762889169156551361083984375</LongitudeDegrees>
            </Position>
            <AltitudeMeters>41.59999847412109375</AltitudeMeters>
            <DistanceMeters>NAN</DistanceMeters>
          </Trackpoint>
          <Trackpoint>
            <Time>2022-07-04T12:21:00.000Z</Time>
            <Position>
              <LatitudeDegrees>44.68946993350982666015625</LatitudeDegrees>
              <LongitudeDegrees>-0.87678923271596431732177734375</LongitudeDegrees>
            </Position>
            <AltitudeMeters>41.40000152587890625</AltitudeMeters>
            <DistanceMeters>NAN</DistanceMeters>
          </Trackpoint>
          <Trackpoint>
            <Time>2022-07-04T12:21:01.000Z</Time>
            <Position>
              <LatitudeDegrees>44.68947152607142925262451171875</LatitudeDegrees>
              <LongitudeDegrees>-0.87684857659041881561279296875</LongitudeDegrees>
            </Position>
            <AltitudeMeters>41.40000152587890625</AltitudeMeters>
            <DistanceMeters>NAN</DistanceMeters>
          </Trackpoint>
          <Trackpoint>
            <Time>2022-07-04T12:21:05.000Z</Time>
            <Position>
              <LatitudeDegrees>44.68947328627109527587890625</LatitudeDegrees>
              <LongitudeDegrees>-0.87706767953932285308837890625</LongitudeDegrees>
            </Position>
            <AltitudeMeters>41.59999847412109375</AltitudeMeters>
            <DistanceMeters>NAN</DistanceMeters>
          </Trackpoint>
          <Trackpoint>
            <Time>2022-07-04T12:21:08.000Z</Time>
            <Position>
              <LatitudeDegrees>44.689470939338207244873046875</LatitudeDegrees>
              <LongitudeDegrees>-0.87723514996469020843505859375</LongitudeDegrees>
            </Position>
            <AltitudeMeters>41.59999847412109375</AltitudeMeters>
            <DistanceMeters>NAN</DistanceMeters>
          </Trackpoint>
          <Trackpoint>
            <Time>2022-07-04T12:21:15.000Z</Time>
            <Position>
              <LatitudeDegrees>44.68946817331016063690185546875</LatitudeDegrees>
              <LongitudeDegrees>-0.87763882242143154144287109375</LongitudeDegrees>
            </Position>
            <AltitudeMeters>41.40000152587890625</AltitudeMeters>
            <DistanceMeters>NAN</DistanceMeters>
          </Trackpoint>
          <Trackpoint>
            <Time>2022-07-04T12:21:24.000Z</Time>
            <Position>
              <LatitudeDegrees>44.68946666456758975982666015625</LatitudeDegrees>
              <LongitudeDegrees>-0.878128744661808013916015625</LongitudeDegrees>
            </Position>
            <AltitudeMeters>41</AltitudeMeters>
            <DistanceMeters>NAN</DistanceMeters>
          </Trackpoint>
          <Trackpoint>
            <Time>2022-07-04T12:21:33.000Z</Time>
            <Position>
              <LatitudeDegrees>44.689456857740879058837890625</LatitudeDegrees>
              <LongitudeDegrees>-0.87863895110785961151123046875</LongitudeDegrees>
            </Position>
            <AltitudeMeters>41.200000762939453125</AltitudeMeters>
            <DistanceMeters>NAN</DistanceMeters>
          </Trackpoint>
          <Trackpoint>
            <Time>2022-07-04T12:21:41.000Z</Time>
            <Position>
              <LatitudeDegrees>44.68945585191249847412109375</LatitudeDegrees>
              <LongitudeDegrees>-0.87910029105842113494873046875</LongitudeDegrees>
            </Position>
            <AltitudeMeters>41</AltitudeMeters>
            <DistanceMeters>NAN</DistanceMeters>
          </Trackpoint>
          <Trackpoint>
            <Time>2022-07-04T12:21:48.000Z</Time>
            <Position>
              <LatitudeDegrees>44.68943967483937740325927734375</LatitudeDegrees>
              <LongitudeDegrees>-0.879502706229686737060546875</LongitudeDegrees>
            </Position>
            <AltitudeMeters>40.59999847412109375</AltitudeMeters>
            <DistanceMeters>NAN</DistanceMeters>
          </Trackpoint>
          <Trackpoint>
            <Time>2022-07-04T12:21:51.000Z</Time>
            <Position>
              <LatitudeDegrees>44.6894308738410472869873046875</LatitudeDegrees>
              <LongitudeDegrees>-0.87967881001532077789306640625</LongitudeDegrees>
            </Position>
            <AltitudeMeters>40.59999847412109375</AltitudeMeters>
            <DistanceMeters>NAN</DistanceMeters>
          </Trackpoint>
          <Trackpoint>
            <Time>2022-07-04T12:21:56.000Z</Time>
            <Position>
              <LatitudeDegrees>44.6894188039004802703857421875</LatitudeDegrees>
              <LongitudeDegrees>-0.879959352314472198486328125</LongitudeDegrees>
            </Position>
            <AltitudeMeters>40.40000152587890625</AltitudeMeters>
            <DistanceMeters>NAN</DistanceMeters>
          </Trackpoint>
          <Trackpoint>
            <Time>2022-07-04T12:22:02.000Z</Time>
            <Position>
              <LatitudeDegrees>44.68941084109246730804443359375</LatitudeDegrees>
              <LongitudeDegrees>-0.88029068894684314727783203125</LongitudeDegrees>
            </Position>
            <AltitudeMeters>40.59999847412109375</AltitudeMeters>
            <DistanceMeters>NAN</DistanceMeters>
          </Trackpoint>
          <Trackpoint>
            <Time>2022-07-04T12:22:09.000Z</Time>
            <Position>
              <LatitudeDegrees>44.68941771425306797027587890625</LatitudeDegrees>
              <LongitudeDegrees>-0.88069134391844272613525390625</LongitudeDegrees>
            </Position>
            <AltitudeMeters>40.200000762939453125</AltitudeMeters>
            <DistanceMeters>NAN</DistanceMeters>
          </Trackpoint>
          <Trackpoint>
            <Time>2022-07-04T12:22:14.000Z</Time>
            <Position>
              <LatitudeDegrees>44.6894285269081592559814453125</LatitudeDegrees>
              <LongitudeDegrees>-0.880975238978862762451171875</LongitudeDegrees>
            </Position>
            <AltitudeMeters>40</AltitudeMeters>
            <DistanceMeters>NAN</DistanceMeters>
          </Trackpoint>
          <Trackpoint>
            <Time>2022-07-04T12:22:16.000Z</Time>
            <Position>
              <LatitudeDegrees>44.6894288621842861175537109375</LatitudeDegrees>
              <LongitudeDegrees>-0.8810935914516448974609375</LongitudeDegrees>
            </Position>
            <AltitudeMeters>39.799999237060546875</AltitudeMeters>
            <DistanceMeters>NAN</DistanceMeters>
          </Trackpoint>
          <Trackpoint>
            <Time>2022-07-04T12:22:18.000Z</Time>
            <Position>
              <LatitudeDegrees>44.68942710198462009429931640625</LatitudeDegrees>
              <LongitudeDegrees>-0.88120959699153900146484375</LongitudeDegrees>
            </Position>
            <AltitudeMeters>39.799999237060546875</AltitudeMeters>
            <DistanceMeters>NAN</DistanceMeters>
          </Trackpoint>
          <Trackpoint>
            <Time>2022-07-04T12:22:28.000Z</Time>
            <Position>
              <LatitudeDegrees>44.6894315443933010101318359375</LatitudeDegrees>
              <LongitudeDegrees>-0.88178467936813831329345703125</LongitudeDegrees>
            </Position>
            <AltitudeMeters>39.799999237060546875</AltitudeMeters>
            <DistanceMeters>NAN</DistanceMeters>
          </Trackpoint>
          <Trackpoint>
            <Time>2022-07-04T12:22:33.000Z</Time>
            <Position>
              <LatitudeDegrees>44.68942073173820972442626953125</LatitudeDegrees>
              <LongitudeDegrees>-0.88205357082188129425048828125</LongitudeDegrees>
            </Position>
            <AltitudeMeters>39.799999237060546875</AltitudeMeters>
            <DistanceMeters>NAN</DistanceMeters>
          </Trackpoint>
          <Trackpoint>
            <Time>2022-07-04T12:22:36.000Z</Time>
            <Position>
              <LatitudeDegrees>44.68942475505173206329345703125</LatitudeDegrees>
              <LongitudeDegrees>-0.88223311118781566619873046875</LongitudeDegrees>
            </Position>
            <AltitudeMeters>39.59999847412109375</AltitudeMeters>
            <DistanceMeters>NAN</DistanceMeters>
          </Trackpoint>
          <Trackpoint>
            <Time>2022-07-04T12:22:37.000Z</Time>
            <Position>
              <LatitudeDegrees>44.68942425213754177093505859375</LatitudeDegrees>
              <LongitudeDegrees>-0.88229496963322162628173828125</LongitudeDegrees>
            </Position>
            <AltitudeMeters>39.59999847412109375</AltitudeMeters>
            <DistanceMeters>NAN</DistanceMeters>
          </Trackpoint>
          <Trackpoint>
            <Time>2022-07-04T12:22:41.000Z</Time>
            <Position>
              <LatitudeDegrees>44.689424335956573486328125</LatitudeDegrees>
              <LongitudeDegrees>-0.8825294114649295806884765625</LongitudeDegrees>
            </Position>
            <AltitudeMeters>40</AltitudeMeters>
            <DistanceMeters>NAN</DistanceMeters>
          </Trackpoint>
          <Trackpoint>
            <Time>2022-07-04T12:22:46.000Z</Time>
            <Position>
              <LatitudeDegrees>44.68943213112652301788330078125</LatitudeDegrees>
              <LongitudeDegrees>-0.882809199392795562744140625</LongitudeDegrees>
            </Position>
            <AltitudeMeters>40</AltitudeMeters>
            <DistanceMeters>NAN</DistanceMeters>
          </Trackpoint>
          <Trackpoint>
            <Time>2022-07-04T12:22:47.000Z</Time>
            <Position>
              <LatitudeDegrees>44.6894338913261890411376953125</LatitudeDegrees>
              <LongitudeDegrees>-0.8828643523156642913818359375</LongitudeDegrees>
            </Position>
            <AltitudeMeters>40</AltitudeMeters>
            <DistanceMeters>NAN</DistanceMeters>
          </Trackpoint>
          <Trackpoint>
            <Time>2022-07-04T12:22:56.000Z</Time>
            <Position>
              <LatitudeDegrees>44.68943615444004535675048828125</LatitudeDegrees>
              <LongitudeDegrees>-0.8833662606775760650634765625</LongitudeDegrees>
            </Position>
            <AltitudeMeters>39.799999237060546875</AltitudeMeters>
            <DistanceMeters>NAN</DistanceMeters>
          </Trackpoint>
          <Trackpoint>
            <Time>2022-07-04T12:23:03.000Z</Time>
            <Position>
              <LatitudeDegrees>44.6894308738410472869873046875</LatitudeDegrees>
              <LongitudeDegrees>-0.88376280851662158966064453125</LongitudeDegrees>
            </Position>
            <AltitudeMeters>39.59999847412109375</AltitudeMeters>
            <DistanceMeters>NAN</DistanceMeters>
          </Trackpoint>
          <Trackpoint>
            <Time>2022-07-04T12:23:08.000Z</Time>
            <Position>
              <LatitudeDegrees>44.68943011946976184844970703125</LatitudeDegrees>
              <LongitudeDegrees>-0.88403102941811084747314453125</LongitudeDegrees>
            </Position>
            <AltitudeMeters>39.40000152587890625</AltitudeMeters>
            <DistanceMeters>NAN</DistanceMeters>
          </Trackpoint>
          <Trackpoint>
            <Time>2022-07-04T12:23:11.000Z</Time>
            <Position>
              <LatitudeDegrees>44.6894372440874576568603515625</LatitudeDegrees>
              <LongitudeDegrees>-0.88418693281710147857666015625</LongitudeDegrees>
            </Position>
            <AltitudeMeters>39.40000152587890625</AltitudeMeters>
            <DistanceMeters>NAN</DistanceMeters>
          </Trackpoint>
          <Trackpoint>
            <Time>2022-07-04T12:23:14.000Z</Time>
            <Position>
              <LatitudeDegrees>44.6894315443933010101318359375</LatitudeDegrees>
              <LongitudeDegrees>-0.88436462916433811187744140625</LongitudeDegrees>
            </Position>
            <AltitudeMeters>39.59999847412109375</AltitudeMeters>
            <DistanceMeters>NAN</DistanceMeters>
          </Trackpoint>
          <Trackpoint>
            <Time>2022-07-04T12:23:18.000Z</Time>
            <Position>
              <LatitudeDegrees>44.68942576088011264801025390625</LatitudeDegrees>
              <LongitudeDegrees>-0.88458071462810039520263671875</LongitudeDegrees>
            </Position>
            <AltitudeMeters>39.59999847412109375</AltitudeMeters>
            <DistanceMeters>NAN</DistanceMeters>
          </Trackpoint>
          <Trackpoint>
            <Time>2022-07-04T12:23:24.000Z</Time>
            <Position>
              <LatitudeDegrees>44.68943037092685699462890625</LatitudeDegrees>
              <LongitudeDegrees>-0.884931497275829315185546875</LongitudeDegrees>
            </Position>
            <AltitudeMeters>39.40000152587890625</AltitudeMeters>
            <DistanceMeters>NAN</DistanceMeters>
          </Trackpoint>
          <Trackpoint>
            <Time>2022-07-04T12:23:29.000Z</Time>
            <Position>
              <LatitudeDegrees>44.6894255094230175018310546875</LatitudeDegrees>
              <LongitudeDegrees>-0.88521555997431278228759765625</LongitudeDegrees>
            </Position>
            <AltitudeMeters>39.40000152587890625</AltitudeMeters>
            <DistanceMeters>NAN</DistanceMeters>
          </Trackpoint>
          <Trackpoint>
            <Time>2022-07-04T12:23:36.000Z</Time>
            <Position>
              <LatitudeDegrees>44.689424000680446624755859375</LatitudeDegrees>
              <LongitudeDegrees>-0.88557623326778411865234375</LongitudeDegrees>
            </Position>
            <AltitudeMeters>39.200000762939453125</AltitudeMeters>
            <DistanceMeters>NAN</DistanceMeters>
          </Trackpoint>
          <Trackpoint>
            <Time>2022-07-04T12:23:46.000Z</Time>
            <Position>
              <LatitudeDegrees>44.689421318471431732177734375</LatitudeDegrees>
              <LongitudeDegrees>-0.886141173541545867919921875</LongitudeDegrees>
            </Position>
            <AltitudeMeters>39.40000152587890625</AltitudeMeters>
            <DistanceMeters>NAN</DistanceMeters>
          </Trackpoint>
          <Trackpoint>
            <Time>2022-07-04T12:23:56.000Z</Time>
            <Position>
              <LatitudeDegrees>44.68940665014088153839111328125</LatitudeDegrees>
              <LongitudeDegrees>-0.88666914962232112884521484375</LongitudeDegrees>
            </Position>
            <AltitudeMeters>39</AltitudeMeters>
            <DistanceMeters>NAN</DistanceMeters>
          </Trackpoint>
          <Trackpoint>
            <Time>2022-07-04T12:23:59.000Z</Time>
            <Position>
              <LatitudeDegrees>44.68939122743904590606689453125</LatitudeDegrees>
              <LongitudeDegrees>-0.88681750930845737457275390625</LongitudeDegrees>
            </Position>
            <AltitudeMeters>39.200000762939453125</AltitudeMeters>
            <DistanceMeters>NAN</DistanceMeters>
          </Trackpoint>
          <Trackpoint>
            <Time>2022-07-04T12:24:02.000Z</Time>
            <Position>
              <LatitudeDegrees>44.689350239932537078857421875</LatitudeDegrees>
              <LongitudeDegrees>-0.886966623365879058837890625</LongitudeDegrees>
            </Position>
            <AltitudeMeters>39</AltitudeMeters>
            <DistanceMeters>NAN</DistanceMeters>
          </Trackpoint>
          <Trackpoint>
            <Time>2022-07-04T12:24:07.000Z</Time>
            <Position>
              <LatitudeDegrees>44.68921671621501445770263671875</LatitudeDegrees>
              <LongitudeDegrees>-0.8871733210980892181396484375</LongitudeDegrees>
            </Position>
            <AltitudeMeters>38.799999237060546875</AltitudeMeters>
            <DistanceMeters>NAN</DistanceMeters>
          </Trackpoint>
          <Trackpoint>
            <Time>2022-07-04T12:24:13.000Z</Time>
            <Position>
              <LatitudeDegrees>44.6890191547572612762451171875</LatitudeDegrees>
              <LongitudeDegrees>-0.88732360862195491790771484375</LongitudeDegrees>
            </Position>
            <AltitudeMeters>38.59999847412109375</AltitudeMeters>
            <DistanceMeters>NAN</DistanceMeters>
          </Trackpoint>
          <Trackpoint>
            <Time>2022-07-04T12:24:18.000Z</Time>
            <Position>
              <LatitudeDegrees>44.68883584253489971160888671875</LatitudeDegrees>
              <LongitudeDegrees>-0.88741798885166645050048828125</LongitudeDegrees>
            </Position>
            <AltitudeMeters>38.59999847412109375</AltitudeMeters>
            <DistanceMeters>NAN</DistanceMeters>
          </Trackpoint>
          <Trackpoint>
            <Time>2022-07-04T12:24:20.000Z</Time>
            <Position>
              <LatitudeDegrees>44.6887631714344024658203125</LatitudeDegrees>
              <LongitudeDegrees>-0.88746056891977787017822265625</LongitudeDegrees>
            </Position>
            <AltitudeMeters>38.40000152587890625</AltitudeMeters>
            <DistanceMeters>NAN</DistanceMeters>
          </Trackpoint>
          <Trackpoint>
            <Time>2022-07-04T12:24:23.000Z</Time>
            <Position>
              <LatitudeDegrees>44.688656888902187347412109375</LatitudeDegrees>
              <LongitudeDegrees>-0.88750608265399932861328125</LongitudeDegrees>
            </Position>
            <AltitudeMeters>38.59999847412109375</AltitudeMeters>
            <DistanceMeters>NAN</DistanceMeters>
          </Trackpoint>
          <Trackpoint>
            <Time>2022-07-04T12:24:27.000Z</Time>
            <Position>
              <LatitudeDegrees>44.68849201686680316925048828125</LatitudeDegrees>
              <LongitudeDegrees>-0.88757858611643314361572265625</LongitudeDegrees>
            </Position>
            <AltitudeMeters>38.40000152587890625</AltitudeMeters>
            <DistanceMeters>NAN</DistanceMeters>
          </Trackpoint>
          <Trackpoint>
            <Time>2022-07-04T12:24:32.000Z</Time>
            <Position>
              <LatitudeDegrees>44.68831717036664485931396484375</LatitudeDegrees>
              <LongitudeDegrees>-0.8876601420342922210693359375</LongitudeDegrees>
            </Position>
            <AltitudeMeters>38.40000152587890625</AltitudeMeters>
            <DistanceMeters>NAN</DistanceMeters>
          </Trackpoint>
          <Trackpoint>
            <Time>2022-07-04T12:24:39.000Z</Time>
            <Position>
              <LatitudeDegrees>44.688037969172000885009765625</LatitudeDegrees>
              <LongitudeDegrees>-0.887728370726108551025390625</LongitudeDegrees>
            </Position>
            <AltitudeMeters>38.200000762939453125</AltitudeMeters>
            <DistanceMeters>NAN</DistanceMeters>
          </Trackpoint>
          <Trackpoint>
            <Time>2022-07-04T12:24:44.000Z</Time>
            <Position>
              <LatitudeDegrees>44.68786169774830341339111328125</LatitudeDegrees>
              <LongitudeDegrees>-0.88779416866600513458251953125</LongitudeDegrees>
            </Position>
            <AltitudeMeters>38.200000762939453125</AltitudeMeters>
            <DistanceMeters>NAN</DistanceMeters>
          </Trackpoint>
          <Trackpoint>
            <Time>2022-07-04T12:24:51.000Z</Time>
            <Position>
              <LatitudeDegrees>44.6876535750925540924072265625</LatitudeDegrees>
              <LongitudeDegrees>-0.8879206515848636627197265625</LongitudeDegrees>
            </Position>
            <AltitudeMeters>38.200000762939453125</AltitudeMeters>
            <DistanceMeters>NAN</DistanceMeters>
          </Trackpoint>
          <Trackpoint>
            <Time>2022-07-04T12:24:57.000Z</Time>
            <Position>
              <LatitudeDegrees>44.6873927302658557891845703125</LatitudeDegrees>
              <LongitudeDegrees>-0.88800120167434215545654296875</LongitudeDegrees>
            </Position>
            <AltitudeMeters>38</AltitudeMeters>
            <DistanceMeters>NAN</DistanceMeters>
          </Trackpoint>
          <Trackpoint>
            <Time>2022-07-04T12:25:02.000Z</Time>
            <Position>
              <LatitudeDegrees>44.68719935975968837738037109375</LatitudeDegrees>
              <LongitudeDegrees>-0.88808401487767696380615234375</LongitudeDegrees>
            </Position>
            <AltitudeMeters>38</AltitudeMeters>
            <DistanceMeters>NAN</DistanceMeters>
          </Trackpoint>
          <Trackpoint>
            <Time>2022-07-04T12:25:08.000Z</Time>
            <Position>
              <LatitudeDegrees>44.68696248717606067657470703125</LatitudeDegrees>
              <LongitudeDegrees>-0.88829155080020427703857421875</LongitudeDegrees>
            </Position>
            <AltitudeMeters>38</AltitudeMeters>
            <DistanceMeters>NAN</DistanceMeters>
          </Trackpoint>
          <Trackpoint>
            <Time>2022-07-04T12:25:09.000Z</Time>
            <Position>
              <LatitudeDegrees>44.68693365342915058135986328125</LatitudeDegrees>
              <LongitudeDegrees>-0.8883229829370975494384765625</LongitudeDegrees>
            </Position>
            <AltitudeMeters>38</AltitudeMeters>
            <DistanceMeters>NAN</DistanceMeters>
          </Trackpoint>
          <Trackpoint>
            <Time>2022-07-04T12:25:15.000Z</Time>
            <Position>
              <LatitudeDegrees>44.68672460876405239105224609375</LatitudeDegrees>
              <LongitudeDegrees>-0.8886056207120418548583984375</LongitudeDegrees>
            </Position>
            <AltitudeMeters>38</AltitudeMeters>
            <DistanceMeters>NAN</DistanceMeters>
          </Trackpoint>
          <Trackpoint>
            <Time>2022-07-04T12:25:22.000Z</Time>
            <Position>
              <LatitudeDegrees>44.68659653328359127044677734375</LatitudeDegrees>
              <LongitudeDegrees>-0.88894282467663288116455078125</LongitudeDegrees>
            </Position>
            <AltitudeMeters>38.200000762939453125</AltitudeMeters>
            <DistanceMeters>NAN</DistanceMeters>
          </Trackpoint>
          <Trackpoint>
            <Time>2022-07-04T12:25:28.000Z</Time>
            <Position>
              <LatitudeDegrees>44.6865691244602203369140625</LatitudeDegrees>
              <LongitudeDegrees>-0.8892687968909740447998046875</LongitudeDegrees>
            </Position>
            <AltitudeMeters>37.799999237060546875</AltitudeMeters>
            <DistanceMeters>NAN</DistanceMeters>
          </Trackpoint>
          <Trackpoint>
            <Time>2022-07-04T12:25:35.000Z</Time>
            <Position>
              <LatitudeDegrees>44.6866576373577117919921875</LatitudeDegrees>
              <LongitudeDegrees>-0.8896664343774318695068359375</LongitudeDegrees>
            </Position>
            <AltitudeMeters>37.799999237060546875</AltitudeMeters>
            <DistanceMeters>NAN</DistanceMeters>
          </Trackpoint>
          <Trackpoint>
            <Time>2022-07-04T12:25:40.000Z</Time>
            <Position>
              <LatitudeDegrees>44.6867191605269908905029296875</LatitudeDegrees>
              <LongitudeDegrees>-0.88993524201214313507080078125</LongitudeDegrees>
            </Position>
            <AltitudeMeters>37.59999847412109375</AltitudeMeters>
            <DistanceMeters>NAN</DistanceMeters>
          </Trackpoint>
          <Trackpoint>
            <Time>2022-07-04T12:25:46.000Z</Time>
            <Position>
              <LatitudeDegrees>44.6868019737303256988525390625</LatitudeDegrees>
              <LongitudeDegrees>-0.8902454562485218048095703125</LongitudeDegrees>
            </Position>
            <AltitudeMeters>37.799999237060546875</AltitudeMeters>
            <DistanceMeters>NAN</DistanceMeters>
          </Trackpoint>
          <Trackpoint>
            <Time>2022-07-04T12:25:53.000Z</Time>
            <Position>
              <LatitudeDegrees>44.6868831105530261993408203125</LatitudeDegrees>
              <LongitudeDegrees>-0.89062876068055629730224609375</LongitudeDegrees>
            </Position>
            <AltitudeMeters>37.59999847412109375</AltitudeMeters>
            <DistanceMeters>NAN</DistanceMeters>
          </Trackpoint>
          <Trackpoint>
            <Time>2022-07-04T12:25:55.000Z</Time>
            <Position>
              <LatitudeDegrees>44.68690574169158935546875</LatitudeDegrees>
              <LongitudeDegrees>-0.89073454029858112335205078125</LongitudeDegrees>
            </Position>
            <AltitudeMeters>37.59999847412109375</AltitudeMeters>
            <DistanceMeters>NAN</DistanceMeters>
          </Trackpoint>
          <Trackpoint>
            <Time>2022-07-04T12:26:00.000Z</Time>
            <Position>
              <LatitudeDegrees>44.68697288073599338531494140625</LatitudeDegrees>
              <LongitudeDegrees>-0.8909981511533260345458984375</LongitudeDegrees>
            </Position>
            <AltitudeMeters>37.59999847412109375</AltitudeMeters>
            <DistanceMeters>NAN</DistanceMeters>
          </Trackpoint>
          <Trackpoint>
            <Time>2022-07-04T12:26:05.000Z</Time>
            <Position>
              <LatitudeDegrees>44.68701965175569057464599609375</LatitudeDegrees>
              <LongitudeDegrees>-0.89125690050423145294189453125</LongitudeDegrees>
            </Position>
            <AltitudeMeters>37.59999847412109375</AltitudeMeters>
            <DistanceMeters>NAN</DistanceMeters>
          </Trackpoint>
          <Trackpoint>
            <Time>2022-07-04T12:26:08.000Z</Time>
            <Position>
              <LatitudeDegrees>44.68705452047288417816162109375</LatitudeDegrees>
              <LongitudeDegrees>-0.891390256583690643310546875</LongitudeDegrees>
            </Position>
            <AltitudeMeters>37.59999847412109375</AltitudeMeters>
            <DistanceMeters>NAN</DistanceMeters>
          </Trackpoint>
          <Trackpoint>
            <Time>2022-07-04T12:26:09.000Z</Time>
            <Position>
              <LatitudeDegrees>44.68706600368022918701171875</LatitudeDegrees>
              <LongitudeDegrees>-0.89142613112926483154296875</LongitudeDegrees>
            </Position>
            <AltitudeMeters>37.40000152587890625</AltitudeMeters>
            <DistanceMeters>NAN</DistanceMeters>
          </Trackpoint>
          <Trackpoint>
            <Time>2022-07-04T12:26:16.000Z</Time>
            <Position>
              <LatitudeDegrees>44.6871377527713775634765625</LatitudeDegrees>
              <LongitudeDegrees>-0.89171404950320720672607421875</LongitudeDegrees>
            </Position>
            <AltitudeMeters>37.59999847412109375</AltitudeMeters>
            <DistanceMeters>NAN</DistanceMeters>
          </Trackpoint>
          <Trackpoint>
            <Time>2022-07-04T12:26:22.000Z</Time>
            <Position>
              <LatitudeDegrees>44.6871878765523433685302734375</LatitudeDegrees>
              <LongitudeDegrees>-0.89193172752857208251953125</LongitudeDegrees>
            </Position>
            <AltitudeMeters>37.59999847412109375</AltitudeMeters>
            <DistanceMeters>NAN</DistanceMeters>
          </Trackpoint>
          <Trackpoint>
            <Time>2022-07-04T12:26:28.000Z</Time>
            <Position>
              <LatitudeDegrees>44.687250070273876190185546875</LatitudeDegrees>
              <LongitudeDegrees>-0.89215879328548908233642578125</LongitudeDegrees>
            </Position>
            <AltitudeMeters>37.59999847412109375</AltitudeMeters>
            <DistanceMeters>NAN</DistanceMeters>
          </Trackpoint>
          <Trackpoint>
            <Time>2022-07-04T12:26:34.000Z</Time>
            <Position>
              <LatitudeDegrees>44.6873112581670284271240234375</LatitudeDegrees>
              <LongitudeDegrees>-0.8924006111919879913330078125</LongitudeDegrees>
            </Position>
            <AltitudeMeters>37.59999847412109375</AltitudeMeters>
            <DistanceMeters>NAN</DistanceMeters>
          </Trackpoint>
          <Trackpoint>
            <Time>2022-07-04T12:26:35.000Z</Time>
            <Position>
              <LatitudeDegrees>44.687322489917278289794921875</LatitudeDegrees>
              <LongitudeDegrees>-0.892455764114856719970703125</LongitudeDegrees>
            </Position>
            <AltitudeMeters>37.59999847412109375</AltitudeMeters>
            <DistanceMeters>NAN</DistanceMeters>
          </Trackpoint>
          <Trackpoint>
            <Time>2022-07-04T12:26:41.000Z</Time>
            <Position>
              <LatitudeDegrees>44.68741561286151409149169921875</LatitudeDegrees>
              <LongitudeDegrees>-0.89271585457026958465576171875</LongitudeDegrees>
            </Position>
            <AltitudeMeters>37.59999847412109375</AltitudeMeters>
            <DistanceMeters>NAN</DistanceMeters>
          </Trackpoint>
          <Trackpoint>
            <Time>2022-07-04T12:26:49.000Z</Time>
            <Position>
              <LatitudeDegrees>44.6875033713877201080322265625</LatitudeDegrees>
              <LongitudeDegrees>-0.89311768300831317901611328125</LongitudeDegrees>
            </Position>
            <AltitudeMeters>37.40000152587890625</AltitudeMeters>
            <DistanceMeters>NAN</DistanceMeters>
          </Trackpoint>
          <Trackpoint>
            <Time>2022-07-04T12:26:54.000Z</Time>
            <Position>
              <LatitudeDegrees>44.6875347197055816650390625</LatitudeDegrees>
              <LongitudeDegrees>-0.89332421310245990753173828125</LongitudeDegrees>
            </Position>
            <AltitudeMeters>37.200000762939453125</AltitudeMeters>
            <DistanceMeters>NAN</DistanceMeters>
          </Trackpoint>
          <Trackpoint>
            <Time>2022-07-04T12:26:59.000Z</Time>
            <Position>
              <LatitudeDegrees>44.6875399164855480194091796875</LatitudeDegrees>
              <LongitudeDegrees>-0.89339353144168853759765625</LongitudeDegrees>
            </Position>
            <AltitudeMeters>37</AltitudeMeters>
            <DistanceMeters>NAN</DistanceMeters>
          </Trackpoint>
          <Trackpoint>
            <Time>2022-07-04T12:27:00.000Z</Time>
            <Position>
              <LatitudeDegrees>44.68753899447619915008544921875</LatitudeDegrees>
              <LongitudeDegrees>-0.8933963812887668609619140625</LongitudeDegrees>
            </Position>
            <AltitudeMeters>37</AltitudeMeters>
            <DistanceMeters>NAN</DistanceMeters>
          </Trackpoint>
          <Trackpoint>
            <Time>2022-07-04T12:27:04.000Z</Time>
            <Position>
              <LatitudeDegrees>44.68755290843546390533447265625</LatitudeDegrees>
              <LongitudeDegrees>-0.89348011650145053863525390625</LongitudeDegrees>
            </Position>
            <AltitudeMeters>36.799999237060546875</AltitudeMeters>
            <DistanceMeters>NAN</DistanceMeters>
          </Trackpoint>
          <Trackpoint>
            <Time>2022-07-04T12:27:06.000Z</Time>
            <Position>
              <LatitudeDegrees>44.68758828006684780120849609375</LatitudeDegrees>
              <LongitudeDegrees>-0.89354281313717365264892578125</LongitudeDegrees>
            </Position>
            <AltitudeMeters>36.799999237060546875</AltitudeMeters>
            <DistanceMeters>NAN</DistanceMeters>
          </Trackpoint>
          <Trackpoint>
            <Time>2022-07-04T12:27:12.000Z</Time>
            <Position>
              <LatitudeDegrees>44.68766069971024990081787109375</LatitudeDegrees>
              <LongitudeDegrees>-0.89360919781029224395751953125</LongitudeDegrees>
            </Position>
            <AltitudeMeters>36.59999847412109375</AltitudeMeters>
            <DistanceMeters>NAN</DistanceMeters>
          </Trackpoint>
          <Trackpoint>
            <Time>2022-07-04T12:29:18.000Z</Time>
            <Position>
              <LatitudeDegrees>44.687669835984706878662109375</LatitudeDegrees>
              <LongitudeDegrees>-0.89366443455219268798828125</LongitudeDegrees>
            </Position>
            <AltitudeMeters>35.200000762939453125</AltitudeMeters>
            <DistanceMeters>NAN</DistanceMeters>
          </Trackpoint>
          <Trackpoint>
            <Time>2022-07-04T12:29:20.000Z</Time>
            <Position>
              <LatitudeDegrees>44.68767008744180202484130859375</LatitudeDegrees>
              <LongitudeDegrees>-0.89373123832046985626220703125</LongitudeDegrees>
            </Position>
            <AltitudeMeters>35.200000762939453125</AltitudeMeters>
            <DistanceMeters>NAN</DistanceMeters>
          </Trackpoint>
          <Trackpoint>
            <Time>2022-07-04T12:29:23.000Z</Time>
            <Position>
              <LatitudeDegrees>44.68766438774764537811279296875</LatitudeDegrees>
              <LongitudeDegrees>-0.89379292912781238555908203125</LongitudeDegrees>
            </Position>
            <AltitudeMeters>35</AltitudeMeters>
            <DistanceMeters>NAN</DistanceMeters>
          </Trackpoint>
          <Trackpoint>
            <Time>2022-07-04T12:29:26.000Z</Time>
            <Position>
              <LatitudeDegrees>44.6876465342938899993896484375</LatitudeDegrees>
              <LongitudeDegrees>-0.8938788436353206634521484375</LongitudeDegrees>
            </Position>
            <AltitudeMeters>35.200000762939453125</AltitudeMeters>
            <DistanceMeters>NAN</DistanceMeters>
          </Trackpoint>
          <Trackpoint>
            <Time>2022-07-04T12:29:29.000Z</Time>
            <Position>
              <LatitudeDegrees>44.687623567879199981689453125</LatitudeDegrees>
              <LongitudeDegrees>-0.89396878145635128021240234375</LongitudeDegrees>
            </Position>
            <AltitudeMeters>35.200000762939453125</AltitudeMeters>
            <DistanceMeters>NAN</DistanceMeters>
          </Trackpoint>
          <Trackpoint>
            <Time>2022-07-04T12:29:32.000Z</Time>
            <Position>
              <LatitudeDegrees>44.6876036189496517181396484375</LatitudeDegrees>
              <LongitudeDegrees>-0.89409149251878261566162109375</LongitudeDegrees>
            </Position>
            <AltitudeMeters>35.200000762939453125</AltitudeMeters>
            <DistanceMeters>NAN</DistanceMeters>
          </Trackpoint>
          <Trackpoint>
            <Time>2022-07-04T12:29:38.000Z</Time>
            <Position>
              <LatitudeDegrees>44.68758358620107173919677734375</LatitudeDegrees>
              <LongitudeDegrees>-0.89435703121125698089599609375</LongitudeDegrees>
            </Position>
            <AltitudeMeters>35.200000762939453125</AltitudeMeters>
            <DistanceMeters>NAN</DistanceMeters>
          </Trackpoint>
          <Trackpoint>
            <Time>2022-07-04T12:29:43.000Z</Time>
            <Position>
              <LatitudeDegrees>44.68756212852895259857177734375</LatitudeDegrees>
              <LongitudeDegrees>-0.89457227848470211029052734375</LongitudeDegrees>
            </Position>
            <AltitudeMeters>35.200000762939453125</AltitudeMeters>
            <DistanceMeters>NAN</DistanceMeters>
          </Trackpoint>
          <Trackpoint>
            <Time>2022-07-04T12:29:46.000Z</Time>
            <Position>
              <LatitudeDegrees>44.6875506453216075897216796875</LatitudeDegrees>
              <LongitudeDegrees>-0.89470513164997100830078125</LongitudeDegrees>
            </Position>
            <AltitudeMeters>35.200000762939453125</AltitudeMeters>
            <DistanceMeters>NAN</DistanceMeters>
          </Trackpoint>
          <Trackpoint>
            <Time>2022-07-04T12:29:48.000Z</Time>
            <Position>
              <LatitudeDegrees>44.68753916211426258087158203125</LatitudeDegrees>
              <LongitudeDegrees>-0.89480361901223659515380859375</LongitudeDegrees>
            </Position>
            <AltitudeMeters>35</AltitudeMeters>
            <DistanceMeters>NAN</DistanceMeters>
          </Trackpoint>
          <Trackpoint>
            <Time>2022-07-04T12:29:54.000Z</Time>
            <Position>
              <LatitudeDegrees>44.68751837499439716339111328125</LatitudeDegrees>
              <LongitudeDegrees>-0.89509815908968448638916015625</LongitudeDegrees>
            </Position>
            <AltitudeMeters>34.799999237060546875</AltitudeMeters>
            <DistanceMeters>NAN</DistanceMeters>
          </Trackpoint>
          <Trackpoint>
            <Time>2022-07-04T12:29:59.000Z</Time>
            <Position>
              <LatitudeDegrees>44.68749457038938999176025390625</LatitudeDegrees>
              <LongitudeDegrees>-0.89530854485929012298583984375</LongitudeDegrees>
            </Position>
            <AltitudeMeters>35</AltitudeMeters>
            <DistanceMeters>NAN</DistanceMeters>
          </Trackpoint>
          <Trackpoint>
            <Time>2022-07-04T12:30:02.000Z</Time>
            <Position>
              <LatitudeDegrees>44.68746908940374851226806640625</LatitudeDegrees>
              <LongitudeDegrees>-0.89544919319450855255126953125</LongitudeDegrees>
            </Position>
            <AltitudeMeters>35</AltitudeMeters>
            <DistanceMeters>NAN</DistanceMeters>
          </Trackpoint>
          <Trackpoint>
            <Time>2022-07-04T12:30:08.000Z</Time>
            <Position>
              <LatitudeDegrees>44.6874517388641834259033203125</LatitudeDegrees>
              <LongitudeDegrees>-0.8957288973033428192138671875</LongitudeDegrees>
            </Position>
            <AltitudeMeters>34.799999237060546875</AltitudeMeters>
            <DistanceMeters>NAN</DistanceMeters>
          </Trackpoint>
          <Trackpoint>
            <Time>2022-07-04T12:30:11.000Z</Time>
            <Position>
              <LatitudeDegrees>44.6874554269015789031982421875</LatitudeDegrees>
              <LongitudeDegrees>-0.8958318270742893218994140625</LongitudeDegrees>
            </Position>
            <AltitudeMeters>34.40000152587890625</AltitudeMeters>
            <DistanceMeters>NAN</DistanceMeters>
          </Trackpoint>
          <Trackpoint>
            <Time>2022-07-04T12:30:12.000Z</Time>
            <Position>
              <LatitudeDegrees>44.68745668418705463409423828125</LatitudeDegrees>
              <LongitudeDegrees>-0.895840711891651153564453125</LongitudeDegrees>
            </Position>
            <AltitudeMeters>34.40000152587890625</AltitudeMeters>
            <DistanceMeters>NAN</DistanceMeters>
          </Trackpoint>
          <Trackpoint>
            <Time>2022-07-04T12:30:14.000Z</Time>
            <Position>
              <LatitudeDegrees>44.6874631382524967193603515625</LatitudeDegrees>
              <LongitudeDegrees>-0.89584783650934696197509765625</LongitudeDegrees>
            </Position>
            <AltitudeMeters>34.40000152587890625</AltitudeMeters>
            <DistanceMeters>NAN</DistanceMeters>
          </Trackpoint>
          <Trackpoint>
            <Time>2022-07-04T12:30:17.000Z</Time>
            <Position>
              <LatitudeDegrees>44.6874661557376384735107421875</LatitudeDegrees>
              <LongitudeDegrees>-0.89593182317912578582763671875</LongitudeDegrees>
            </Position>
            <AltitudeMeters>34.40000152587890625</AltitudeMeters>
            <DistanceMeters>NAN</DistanceMeters>
          </Trackpoint>
          <Trackpoint>
            <Time>2022-07-04T12:30:22.000Z</Time>
            <Position>
              <LatitudeDegrees>44.68748669140040874481201171875</LatitudeDegrees>
              <LongitudeDegrees>-0.8961473219096660614013671875</LongitudeDegrees>
            </Position>
            <AltitudeMeters>34.40000152587890625</AltitudeMeters>
            <DistanceMeters>NAN</DistanceMeters>
          </Trackpoint>
          <Trackpoint>
            <Time>2022-07-04T12:30:27.000Z</Time>
            <Position>
              <LatitudeDegrees>44.68750010244548320770263671875</LatitudeDegrees>
              <LongitudeDegrees>-0.8962606452405452728271484375</LongitudeDegrees>
            </Position>
            <AltitudeMeters>34.200000762939453125</AltitudeMeters>
            <DistanceMeters>NAN</DistanceMeters>
          </Trackpoint>
          <Trackpoint>
            <Time>2022-07-04T12:30:28.000Z</Time>
            <Position>
              <LatitudeDegrees>44.68750010244548320770263671875</LatitudeDegrees>
              <LongitudeDegrees>-0.8962606452405452728271484375</LongitudeDegrees>
            </Position>
            <AltitudeMeters>34.200000762939453125</AltitudeMeters>
            <DistanceMeters>NAN</DistanceMeters>
          </Trackpoint>
          <Trackpoint>
            <Time>2022-07-04T12:31:04.000Z</Time>
            <Position>
              <LatitudeDegrees>44.68749674968421459197998046875</LatitudeDegrees>
              <LongitudeDegrees>-0.896224938333034515380859375</LongitudeDegrees>
            </Position>
            <AltitudeMeters>34</AltitudeMeters>
            <DistanceMeters>NAN</DistanceMeters>
          </Trackpoint>
          <Trackpoint>
            <Time>2022-07-04T12:31:05.000Z</Time>
            <Position>
              <LatitudeDegrees>44.6874918043613433837890625</LatitudeDegrees>
              <LongitudeDegrees>-0.89619149453938007354736328125</LongitudeDegrees>
            </Position>
            <AltitudeMeters>34</AltitudeMeters>
            <DistanceMeters>NAN</DistanceMeters>
          </Trackpoint>
          <Trackpoint>
            <Time>2022-07-04T12:31:06.000Z</Time>
            <Position>
              <LatitudeDegrees>44.68748250044882297515869140625</LatitudeDegrees>
              <LongitudeDegrees>-0.8961496688425540924072265625</LongitudeDegrees>
            </Position>
            <AltitudeMeters>34</AltitudeMeters>
            <DistanceMeters>NAN</DistanceMeters>
          </Trackpoint>
          <Trackpoint>
            <Time>2022-07-04T12:31:08.000Z</Time>
            <Position>
              <LatitudeDegrees>44.6874705143272876739501953125</LatitudeDegrees>
              <LongitudeDegrees>-0.89606878347694873809814453125</LongitudeDegrees>
            </Position>
            <AltitudeMeters>34</AltitudeMeters>
            <DistanceMeters>NAN</DistanceMeters>
          </Trackpoint>
          <Trackpoint>
            <Time>2022-07-04T12:31:13.000Z</Time>
            <Position>
              <LatitudeDegrees>44.6874503977596759796142578125</LatitudeDegrees>
              <LongitudeDegrees>-0.89587616734206676483154296875</LongitudeDegrees>
            </Position>
            <AltitudeMeters>34.200000762939453125</AltitudeMeters>
            <DistanceMeters>NAN</DistanceMeters>
          </Trackpoint>
          <Trackpoint>
            <Time>2022-07-04T12:31:14.000Z</Time>
            <Position>
              <LatitudeDegrees>44.68744821846485137939453125</LatitudeDegrees>
              <LongitudeDegrees>-0.89584716595709323883056640625</LongitudeDegrees>
            </Position>
            <AltitudeMeters>34.200000762939453125</AltitudeMeters>
            <DistanceMeters>NAN</DistanceMeters>
          </Trackpoint>
          <Trackpoint>
            <Time>2022-07-04T12:31:18.000Z</Time>
            <Position>
              <LatitudeDegrees>44.68744746409356594085693359375</LatitudeDegrees>
              <LongitudeDegrees>-0.89577876962721347808837890625</LongitudeDegrees>
            </Position>
            <AltitudeMeters>34</AltitudeMeters>
            <DistanceMeters>NAN</DistanceMeters>
          </Trackpoint>
          <Trackpoint>
            <Time>2022-07-04T12:31:19.000Z</Time>
            <Position>
              <LatitudeDegrees>44.6874520741403102874755859375</LatitudeDegrees>
              <LongitudeDegrees>-0.89576636441051959991455078125</LongitudeDegrees>
            </Position>
            <AltitudeMeters>34</AltitudeMeters>
            <DistanceMeters>NAN</DistanceMeters>
          </Trackpoint>
          <Trackpoint>
            <Time>2022-07-04T12:31:22.000Z</Time>
            <Position>
              <LatitudeDegrees>44.68746087513864040374755859375</LatitudeDegrees>
              <LongitudeDegrees>-0.89571037329733371734619140625</LongitudeDegrees>
            </Position>
            <AltitudeMeters>34</AltitudeMeters>
            <DistanceMeters>NAN</DistanceMeters>
          </Trackpoint>
          <Trackpoint>
            <Time>2022-07-04T12:31:24.000Z</Time>
            <Position>
              <LatitudeDegrees>44.68746020458638668060302734375</LatitudeDegrees>
              <LongitudeDegrees>-0.8956645242869853973388671875</LongitudeDegrees>
            </Position>
            <AltitudeMeters>33.799999237060546875</AltitudeMeters>
            <DistanceMeters>NAN</DistanceMeters>
          </Trackpoint>
          <Trackpoint>
            <Time>2022-07-04T12:31:29.000Z</Time>
            <Position>
              <LatitudeDegrees>44.68746640719473361968994140625</LatitudeDegrees>
              <LongitudeDegrees>-0.89548054151237010955810546875</LongitudeDegrees>
            </Position>
            <AltitudeMeters>33.799999237060546875</AltitudeMeters>
            <DistanceMeters>NAN</DistanceMeters>
          </Trackpoint>
          <Trackpoint>
            <Time>2022-07-04T12:31:37.000Z</Time>
            <Position>
              <LatitudeDegrees>44.68749691732227802276611328125</LatitudeDegrees>
              <LongitudeDegrees>-0.89519840665161609649658203125</LongitudeDegrees>
            </Position>
            <AltitudeMeters>33.59999847412109375</AltitudeMeters>
            <DistanceMeters>NAN</DistanceMeters>
          </Trackpoint>
          <Trackpoint>
            <Time>2022-07-04T12:31:44.000Z</Time>
            <Position>
              <LatitudeDegrees>44.68754184432327747344970703125</LatitudeDegrees>
              <LongitudeDegrees>-0.8949684910476207733154296875</LongitudeDegrees>
            </Position>
            <AltitudeMeters>33.799999237060546875</AltitudeMeters>
            <DistanceMeters>NAN</DistanceMeters>
          </Trackpoint>
          <Trackpoint>
            <Time>2022-07-04T12:31:52.000Z</Time>
            <Position>
              <LatitudeDegrees>44.687560535967350006103515625</LatitudeDegrees>
              <LongitudeDegrees>-0.894698090851306915283203125</LongitudeDegrees>
            </Position>
            <AltitudeMeters>33.799999237060546875</AltitudeMeters>
            <DistanceMeters>NAN</DistanceMeters>
          </Trackpoint>
          <Trackpoint>
            <Time>2022-07-04T12:32:00.000Z</Time>
            <Position>
              <LatitudeDegrees>44.68759532086551189422607421875</LatitudeDegrees>
              <LongitudeDegrees>-0.8943693526089191436767578125</LongitudeDegrees>
            </Position>
            <AltitudeMeters>34</AltitudeMeters>
            <DistanceMeters>NAN</DistanceMeters>
          </Trackpoint>
          <Trackpoint>
            <Time>2022-07-04T12:32:05.000Z</Time>
            <Position>
              <LatitudeDegrees>44.6876290999352931976318359375</LatitudeDegrees>
              <LongitudeDegrees>-0.89418805204331874847412109375</LongitudeDegrees>
            </Position>
            <AltitudeMeters>33.799999237060546875</AltitudeMeters>
            <DistanceMeters>NAN</DistanceMeters>
          </Trackpoint>
          <Trackpoint>
            <Time>2022-07-04T12:32:06.000Z</Time>
            <Position>
              <LatitudeDegrees>44.687636308372020721435546875</LatitudeDegrees>
              <LongitudeDegrees>-0.89414857327938079833984375</LongitudeDegrees>
            </Position>
            <AltitudeMeters>33.799999237060546875</AltitudeMeters>
            <DistanceMeters>NAN</DistanceMeters>
          </Trackpoint>
          <Trackpoint>
            <Time>2022-07-04T12:32:12.000Z</Time>
            <Position>
              <LatitudeDegrees>44.68767427839338779449462890625</LatitudeDegrees>
              <LongitudeDegrees>-0.89391329325735569000244140625</LongitudeDegrees>
            </Position>
            <AltitudeMeters>33.799999237060546875</AltitudeMeters>
            <DistanceMeters>NAN</DistanceMeters>
          </Trackpoint>
          <Trackpoint>
            <Time>2022-07-04T12:32:19.000Z</Time>
            <Position>
              <LatitudeDegrees>44.68769120983779430389404296875</LatitudeDegrees>
              <LongitudeDegrees>-0.8936307393014430999755859375</LongitudeDegrees>
            </Position>
            <AltitudeMeters>34</AltitudeMeters>
            <DistanceMeters>NAN</DistanceMeters>
          </Trackpoint>
          <Trackpoint>
            <Time>2022-07-04T12:32:24.000Z</Time>
            <Position>
              <LatitudeDegrees>44.687597751617431640625</LatitudeDegrees>
              <LongitudeDegrees>-0.893460921943187713623046875</LongitudeDegrees>
            </Position>
            <AltitudeMeters>34.200000762939453125</AltitudeMeters>
            <DistanceMeters>NAN</DistanceMeters>
          </Trackpoint>
          <Trackpoint>
            <Time>2022-07-04T12:32:31.000Z</Time>
            <Position>
              <LatitudeDegrees>44.6873820014297962188720703125</LatitudeDegrees>
              <LongitudeDegrees>-0.8932735025882720947265625</LongitudeDegrees>
            </Position>
            <AltitudeMeters>34</AltitudeMeters>
            <DistanceMeters>NAN</DistanceMeters>
          </Trackpoint>
          <Trackpoint>
            <Time>2022-07-04T12:32:39.000Z</Time>
            <Position>
              <LatitudeDegrees>44.687124677002429962158203125</LatitudeDegrees>
              <LongitudeDegrees>-0.8930146694183349609375</LongitudeDegrees>
            </Position>
            <AltitudeMeters>34.40000152587890625</AltitudeMeters>
            <DistanceMeters>NAN</DistanceMeters>
          </Trackpoint>
          <Trackpoint>
            <Time>2022-07-04T12:32:46.000Z</Time>
            <Position>
              <LatitudeDegrees>44.68691051937639713287353515625</LatitudeDegrees>
              <LongitudeDegrees>-0.892821885645389556884765625</LongitudeDegrees>
            </Position>
            <AltitudeMeters>34.200000762939453125</AltitudeMeters>
            <DistanceMeters>NAN</DistanceMeters>
          </Trackpoint>
          <Trackpoint>
            <Time>2022-07-04T12:32:48.000Z</Time>
            <Position>
              <LatitudeDegrees>44.68685276806354522705078125</LatitudeDegrees>
              <LongitudeDegrees>-0.892768912017345428466796875</LongitudeDegrees>
            </Position>
            <AltitudeMeters>34.200000762939453125</AltitudeMeters>
            <DistanceMeters>NAN</DistanceMeters>
          </Trackpoint>
          <Trackpoint>
            <Time>2022-07-04T12:32:56.000Z</Time>
            <Position>
              <LatitudeDegrees>44.68662570230662822723388671875</LatitudeDegrees>
              <LongitudeDegrees>-0.89258040301501750946044921875</LongitudeDegrees>
            </Position>
            <AltitudeMeters>34</AltitudeMeters>
            <DistanceMeters>NAN</DistanceMeters>
          </Trackpoint>
          <Trackpoint>
            <Time>2022-07-04T12:33:06.000Z</Time>
            <Position>
              <LatitudeDegrees>44.68632076866924762725830078125</LatitudeDegrees>
              <LongitudeDegrees>-0.89229390956461429595947265625</LongitudeDegrees>
            </Position>
            <AltitudeMeters>34</AltitudeMeters>
            <DistanceMeters>NAN</DistanceMeters>
          </Trackpoint>
          <Trackpoint>
            <Time>2022-07-04T12:33:15.000Z</Time>
            <Position>
              <LatitudeDegrees>44.6860626898705959320068359375</LatitudeDegrees>
              <LongitudeDegrees>-0.89202602393925189971923828125</LongitudeDegrees>
            </Position>
            <AltitudeMeters>33.799999237060546875</AltitudeMeters>
            <DistanceMeters>NAN</DistanceMeters>
          </Trackpoint>
          <Trackpoint>
            <Time>2022-07-04T12:33:20.000Z</Time>
            <Position>
              <LatitudeDegrees>44.68591776676476001739501953125</LatitudeDegrees>
              <LongitudeDegrees>-0.89189040474593639373779296875</LongitudeDegrees>
            </Position>
            <AltitudeMeters>33.799999237060546875</AltitudeMeters>
            <DistanceMeters>NAN</DistanceMeters>
          </Trackpoint>
          <Trackpoint>
            <Time>2022-07-04T12:33:24.000Z</Time>
            <Position>
              <LatitudeDegrees>44.68580444343388080596923828125</LatitudeDegrees>
              <LongitudeDegrees>-0.89177020825445652008056640625</LongitudeDegrees>
            </Position>
            <AltitudeMeters>33.799999237060546875</AltitudeMeters>
            <DistanceMeters>NAN</DistanceMeters>
          </Trackpoint>
          <Trackpoint>
            <Time>2022-07-04T12:33:34.000Z</Time>
            <Position>
              <LatitudeDegrees>44.685509987175464630126953125</LatitudeDegrees>
              <LongitudeDegrees>-0.891488827764987945556640625</LongitudeDegrees>
            </Position>
            <AltitudeMeters>33.799999237060546875</AltitudeMeters>
            <DistanceMeters>NAN</DistanceMeters>
          </Trackpoint>
          <Trackpoint>
            <Time>2022-07-04T12:33:44.000Z</Time>
            <Position>
              <LatitudeDegrees>44.68522340990602970123291015625</LatitudeDegrees>
              <LongitudeDegrees>-0.891204513609409332275390625</LongitudeDegrees>
            </Position>
            <AltitudeMeters>33.799999237060546875</AltitudeMeters>
            <DistanceMeters>NAN</DistanceMeters>
          </Trackpoint>
          <Trackpoint>
            <Time>2022-07-04T12:33:49.000Z</Time>
            <Position>
              <LatitudeDegrees>44.68512902967631816864013671875</LatitudeDegrees>
              <LongitudeDegrees>-0.89109278284013271331787109375</LongitudeDegrees>
            </Position>
            <AltitudeMeters>33.799999237060546875</AltitudeMeters>
            <DistanceMeters>NAN</DistanceMeters>
          </Trackpoint>
          <Trackpoint>
            <Time>2022-07-04T12:33:55.000Z</Time>
            <Position>
              <LatitudeDegrees>44.68500673770904541015625</LatitudeDegrees>
              <LongitudeDegrees>-0.89093855582177639007568359375</LongitudeDegrees>
            </Position>
            <AltitudeMeters>33.59999847412109375</AltitudeMeters>
            <DistanceMeters>NAN</DistanceMeters>
          </Trackpoint>
          <Trackpoint>
            <Time>2022-07-04T12:33:59.000Z</Time>
            <Position>
              <LatitudeDegrees>44.684930630028247833251953125</LatitudeDegrees>
              <LongitudeDegrees>-0.89084819890558719635009765625</LongitudeDegrees>
            </Position>
            <AltitudeMeters>33.59999847412109375</AltitudeMeters>
            <DistanceMeters>NAN</DistanceMeters>
          </Trackpoint>
          <Trackpoint>
            <Time>2022-07-04T12:34:06.000Z</Time>
            <Position>
              <LatitudeDegrees>44.6847531013190746307373046875</LatitudeDegrees>
              <LongitudeDegrees>-0.89069925248622894287109375</LongitudeDegrees>
            </Position>
            <AltitudeMeters>33.799999237060546875</AltitudeMeters>
            <DistanceMeters>NAN</DistanceMeters>
          </Trackpoint>
          <Trackpoint>
            <Time>2022-07-04T12:34:11.000Z</Time>
            <Position>
              <LatitudeDegrees>44.6846032328903675079345703125</LatitudeDegrees>
              <LongitudeDegrees>-0.89054997079074382781982421875</LongitudeDegrees>
            </Position>
            <AltitudeMeters>34</AltitudeMeters>
            <DistanceMeters>NAN</DistanceMeters>
          </Trackpoint>
          <Trackpoint>
            <Time>2022-07-04T12:34:19.000Z</Time>
            <Position>
              <LatitudeDegrees>44.6843333356082439422607421875</LatitudeDegrees>
              <LongitudeDegrees>-0.89030421338975429534912109375</LongitudeDegrees>
            </Position>
            <AltitudeMeters>33.799999237060546875</AltitudeMeters>
            <DistanceMeters>NAN</DistanceMeters>
          </Trackpoint>
          <Trackpoint>
            <Time>2022-07-04T12:34:28.000Z</Time>
            <Position>
              <LatitudeDegrees>44.68406938947737216949462890625</LatitudeDegrees>
              <LongitudeDegrees>-0.8900808356702327728271484375</LongitudeDegrees>
            </Position>
            <AltitudeMeters>33.799999237060546875</AltitudeMeters>
            <DistanceMeters>NAN</DistanceMeters>
          </Trackpoint>
          <Trackpoint>
            <Time>2022-07-04T12:34:30.000Z</Time>
            <Position>
              <LatitudeDegrees>44.6840151585638523101806640625</LatitudeDegrees>
              <LongitudeDegrees>-0.890024006366729736328125</LongitudeDegrees>
            </Position>
            <AltitudeMeters>34</AltitudeMeters>
            <DistanceMeters>NAN</DistanceMeters>
          </Trackpoint>
          <Trackpoint>
            <Time>2022-07-04T12:34:36.000Z</Time>
            <Position>
              <LatitudeDegrees>44.68383218161761760711669921875</LatitudeDegrees>
              <LongitudeDegrees>-0.88984823785722255706787109375</LongitudeDegrees>
            </Position>
            <AltitudeMeters>33.799999237060546875</AltitudeMeters>
            <DistanceMeters>NAN</DistanceMeters>
          </Trackpoint>
          <Trackpoint>
            <Time>2022-07-04T12:34:43.000Z</Time>
            <Position>
              <LatitudeDegrees>44.6836664713919162750244140625</LatitudeDegrees>
              <LongitudeDegrees>-0.88967490009963512420654296875</LongitudeDegrees>
            </Position>
            <AltitudeMeters>33.40000152587890625</AltitudeMeters>
            <DistanceMeters>NAN</DistanceMeters>
          </Trackpoint>
          <Trackpoint>
            <Time>2022-07-04T12:34:44.000Z</Time>
            <Position>
              <LatitudeDegrees>44.683655239641666412353515625</LatitudeDegrees>
              <LongitudeDegrees>-0.889659561216831207275390625</LongitudeDegrees>
            </Position>
            <AltitudeMeters>33.40000152587890625</AltitudeMeters>
            <DistanceMeters>NAN</DistanceMeters>
          </Trackpoint>
          <Trackpoint>
            <Time>2022-07-04T12:34:50.000Z</Time>
            <Position>
              <LatitudeDegrees>44.6836057864129543304443359375</LatitudeDegrees>
              <LongitudeDegrees>-0.8895960263907909393310546875</LongitudeDegrees>
            </Position>
            <AltitudeMeters>33.40000152587890625</AltitudeMeters>
            <DistanceMeters>NAN</DistanceMeters>
          </Trackpoint>
          <Trackpoint>
            <Time>2022-07-04T12:34:51.000Z</Time>
            <Position>
              <LatitudeDegrees>44.6836057864129543304443359375</LatitudeDegrees>
              <LongitudeDegrees>-0.8895960263907909393310546875</LongitudeDegrees>
            </Position>
            <AltitudeMeters>33.200000762939453125</AltitudeMeters>
            <DistanceMeters>NAN</DistanceMeters>
          </Trackpoint>
          <Trackpoint>
            <Time>2022-07-04T12:39:33.000Z</Time>
            <Position>
              <LatitudeDegrees>44.683568067848682403564453125</LatitudeDegrees>
              <LongitudeDegrees>-0.8895641751587390899658203125</LongitudeDegrees>
            </Position>
            <AltitudeMeters>32.59999847412109375</AltitudeMeters>
            <DistanceMeters>NAN</DistanceMeters>
          </Trackpoint>
          <Trackpoint>
            <Time>2022-07-04T12:39:34.000Z</Time>
            <Position>
              <LatitudeDegrees>44.68355172313749790191650390625</LatitudeDegrees>
              <LongitudeDegrees>-0.8895557932555675506591796875</LongitudeDegrees>
            </Position>
            <AltitudeMeters>32.59999847412109375</AltitudeMeters>
            <DistanceMeters>NAN</DistanceMeters>
          </Trackpoint>
          <Trackpoint>
            <Time>2022-07-04T12:39:35.000Z</Time>
            <Position>
              <LatitudeDegrees>44.683537892997264862060546875</LatitudeDegrees>
              <LongitudeDegrees>-0.88954816572368144989013671875</LongitudeDegrees>
            </Position>
            <AltitudeMeters>32.59999847412109375</AltitudeMeters>
            <DistanceMeters>NAN</DistanceMeters>
          </Trackpoint>
          <Trackpoint>
            <Time>2022-07-04T12:39:42.000Z</Time>
            <Position>
              <LatitudeDegrees>44.68342968262732028961181640625</LatitudeDegrees>
              <LongitudeDegrees>-0.8894464932382106781005859375</LongitudeDegrees>
            </Position>
            <AltitudeMeters>32</AltitudeMeters>
            <DistanceMeters>NAN</DistanceMeters>
          </Trackpoint>
          <Trackpoint>
            <Time>2022-07-04T12:39:43.000Z</Time>
            <Position>
              <LatitudeDegrees>44.6834093146026134490966796875</LatitudeDegrees>
              <LongitudeDegrees>-0.88943249545991420745849609375</LongitudeDegrees>
            </Position>
            <AltitudeMeters>32</AltitudeMeters>
            <DistanceMeters>NAN</DistanceMeters>
          </Trackpoint>
          <Trackpoint>
            <Time>2022-07-04T12:39:51.000Z</Time>
            <Position>
              <LatitudeDegrees>44.683315269649028778076171875</LatitudeDegrees>
              <LongitudeDegrees>-0.88934264145791530609130859375</LongitudeDegrees>
            </Position>
            <AltitudeMeters>31.799999237060546875</AltitudeMeters>
            <DistanceMeters>NAN</DistanceMeters>
          </Trackpoint>
          <Trackpoint>
            <Time>2022-07-04T12:39:52.000Z</Time>
            <Position>
              <LatitudeDegrees>44.683315269649028778076171875</LatitudeDegrees>
              <LongitudeDegrees>-0.88934264145791530609130859375</LongitudeDegrees>
            </Position>
            <AltitudeMeters>31.799999237060546875</AltitudeMeters>
            <DistanceMeters>NAN</DistanceMeters>
          </Trackpoint>
          <Trackpoint>
            <Time>2022-07-04T12:41:36.000Z</Time>
            <Position>
              <LatitudeDegrees>44.68325969763100147247314453125</LatitudeDegrees>
              <LongitudeDegrees>-0.889253877103328704833984375</LongitudeDegrees>
            </Position>
            <AltitudeMeters>31</AltitudeMeters>
            <DistanceMeters>NAN</DistanceMeters>
          </Trackpoint>
          <Trackpoint>
            <Time>2022-07-04T12:41:38.000Z</Time>
            <Position>
              <LatitudeDegrees>44.68324108980596065521240234375</LatitudeDegrees>
              <LongitudeDegrees>-0.889237783849239349365234375</LongitudeDegrees>
            </Position>
            <AltitudeMeters>31</AltitudeMeters>
            <DistanceMeters>NAN</DistanceMeters>
          </Trackpoint>
          <Trackpoint>
            <Time>2022-07-04T12:41:39.000Z</Time>
            <Position>
              <LatitudeDegrees>44.68324108980596065521240234375</LatitudeDegrees>
              <LongitudeDegrees>-0.889237783849239349365234375</LongitudeDegrees>
            </Position>
            <AltitudeMeters>31</AltitudeMeters>
            <DistanceMeters>NAN</DistanceMeters>
          </Trackpoint>
          <Trackpoint>
            <Time>2022-07-04T12:43:12.000Z</Time>
            <Position>
              <LatitudeDegrees>44.683217704296112060546875</LatitudeDegrees>
              <LongitudeDegrees>-0.88921171613037586212158203125</LongitudeDegrees>
            </Position>
            <AltitudeMeters>29.799999237060546875</AltitudeMeters>
            <DistanceMeters>NAN</DistanceMeters>
          </Trackpoint>
          <Trackpoint>
            <Time>2022-07-04T12:43:13.000Z</Time>
            <Position>
              <LatitudeDegrees>44.6832011081278324127197265625</LatitudeDegrees>
              <LongitudeDegrees>-0.88919344358146190643310546875</LongitudeDegrees>
            </Position>
            <AltitudeMeters>29.799999237060546875</AltitudeMeters>
            <DistanceMeters>NAN</DistanceMeters>
          </Trackpoint>
          <Trackpoint>
            <Time>2022-07-04T12:43:15.000Z</Time>
            <Position>
              <LatitudeDegrees>44.68316045589745044708251953125</LatitudeDegrees>
              <LongitudeDegrees>-0.889156647026538848876953125</LongitudeDegrees>
            </Position>
            <AltitudeMeters>29.799999237060546875</AltitudeMeters>
            <DistanceMeters>NAN</DistanceMeters>
          </Trackpoint>
          <Trackpoint>
            <Time>2022-07-04T12:43:22.000Z</Time>
            <Position>
              <LatitudeDegrees>44.683078229427337646484375</LatitudeDegrees>
              <LongitudeDegrees>-0.88907517492771148681640625</LongitudeDegrees>
            </Position>
            <AltitudeMeters>29.6000003814697265625</AltitudeMeters>
            <DistanceMeters>NAN</DistanceMeters>
          </Trackpoint>
          <Trackpoint>
            <Time>2022-07-04T12:48:58.000Z</Time>
            <Position>
              <LatitudeDegrees>44.6830167062580585479736328125</LatitudeDegrees>
              <LongitudeDegrees>-0.8890382945537567138671875</LongitudeDegrees>
            </Position>
            <AltitudeMeters>27.6000003814697265625</AltitudeMeters>
            <DistanceMeters>NAN</DistanceMeters>
          </Trackpoint>
          <Trackpoint>
            <Time>2022-07-04T12:48:59.000Z</Time>
            <Position>
              <LatitudeDegrees>44.68300002627074718475341796875</LatitudeDegrees>
              <LongitudeDegrees>-0.88901909999549388885498046875</LongitudeDegrees>
            </Position>
            <AltitudeMeters>27.6000003814697265625</AltitudeMeters>
            <DistanceMeters>NAN</DistanceMeters>
          </Trackpoint>
          <Trackpoint>
            <Time>2022-07-04T12:49:01.000Z</Time>
            <Position>
              <LatitudeDegrees>44.68295375816524028778076171875</LatitudeDegrees>
              <LongitudeDegrees>-0.88897484354674816131591796875</LongitudeDegrees>
            </Position>
            <AltitudeMeters>27.3999996185302734375</AltitudeMeters>
            <DistanceMeters>NAN</DistanceMeters>
          </Trackpoint>
          <Trackpoint>
            <Time>2022-07-04T12:49:08.000Z</Time>
            <Position>
              <LatitudeDegrees>44.6828061528503894805908203125</LatitudeDegrees>
              <LongitudeDegrees>-0.888840816915035247802734375</LongitudeDegrees>
            </Position>
            <AltitudeMeters>26.799999237060546875</AltitudeMeters>
            <DistanceMeters>NAN</DistanceMeters>
          </Trackpoint>
          <Trackpoint>
            <Time>2022-07-04T12:49:15.000Z</Time>
            <Position>
              <LatitudeDegrees>44.6826599724590778350830078125</LatitudeDegrees>
              <LongitudeDegrees>-0.88870226405560970306396484375</LongitudeDegrees>
            </Position>
            <AltitudeMeters>27</AltitudeMeters>
            <DistanceMeters>NAN</DistanceMeters>
          </Trackpoint>
          <Trackpoint>
            <Time>2022-07-04T12:49:17.000Z</Time>
            <Position>
              <LatitudeDegrees>44.68260339461266994476318359375</LatitudeDegrees>
              <LongitudeDegrees>-0.88864979334175586700439453125</LongitudeDegrees>
            </Position>
            <AltitudeMeters>27</AltitudeMeters>
            <DistanceMeters>NAN</DistanceMeters>
          </Trackpoint>
          <Trackpoint>
            <Time>2022-07-04T12:49:24.000Z</Time>
            <Position>
              <LatitudeDegrees>44.6824266202747821807861328125</LatitudeDegrees>
              <LongitudeDegrees>-0.8884643018245697021484375</LongitudeDegrees>
            </Position>
            <AltitudeMeters>27.200000762939453125</AltitudeMeters>
            <DistanceMeters>NAN</DistanceMeters>
          </Trackpoint>
          <Trackpoint>
            <Time>2022-07-04T12:49:26.000Z</Time>
            <Position>
              <LatitudeDegrees>44.6823739819228649139404296875</LatitudeDegrees>
              <LongitudeDegrees>-0.88840940035879611968994140625</LongitudeDegrees>
            </Position>
            <AltitudeMeters>27.200000762939453125</AltitudeMeters>
            <DistanceMeters>NAN</DistanceMeters>
          </Trackpoint>
          <Trackpoint>
            <Time>2022-07-04T12:49:36.000Z</Time>
            <Position>
              <LatitudeDegrees>44.6820812858641147613525390625</LatitudeDegrees>
              <LongitudeDegrees>-0.88812726549804210662841796875</LongitudeDegrees>
            </Position>
            <AltitudeMeters>27.200000762939453125</AltitudeMeters>
            <DistanceMeters>NAN</DistanceMeters>
          </Trackpoint>
          <Trackpoint>
            <Time>2022-07-04T12:49:40.000Z</Time>
            <Position>
              <LatitudeDegrees>44.6819582395255565643310546875</LatitudeDegrees>
              <LongitudeDegrees>-0.88801260106265544891357421875</LongitudeDegrees>
            </Position>
            <AltitudeMeters>27.3999996185302734375</AltitudeMeters>
            <DistanceMeters>NAN</DistanceMeters>
          </Trackpoint>
          <Trackpoint>
            <Time>2022-07-04T12:49:45.000Z</Time>
            <Position>
              <LatitudeDegrees>44.68180811963975429534912109375</LatitudeDegrees>
              <LongitudeDegrees>-0.88785904459655284881591796875</LongitudeDegrees>
            </Position>
            <AltitudeMeters>27.3999996185302734375</AltitudeMeters>
            <DistanceMeters>NAN</DistanceMeters>
          </Trackpoint>
          <Trackpoint>
            <Time>2022-07-04T12:49:53.000Z</Time>
            <Position>
              <LatitudeDegrees>44.6816031821072101593017578125</LatitudeDegrees>
              <LongitudeDegrees>-0.88765787892043590545654296875</LongitudeDegrees>
            </Position>
            <AltitudeMeters>27.3999996185302734375</AltitudeMeters>
            <DistanceMeters>NAN</DistanceMeters>
          </Trackpoint>
          <Trackpoint>
            <Time>2022-07-04T12:50:03.000Z</Time>
            <Position>
              <LatitudeDegrees>44.68127821572124958038330078125</LatitudeDegrees>
              <LongitudeDegrees>-0.88734556920826435089111328125</LongitudeDegrees>
            </Position>
            <AltitudeMeters>27.6000003814697265625</AltitudeMeters>
            <DistanceMeters>NAN</DistanceMeters>
          </Trackpoint>
          <Trackpoint>
            <Time>2022-07-04T12:50:09.000Z</Time>
            <Position>
              <LatitudeDegrees>44.68107931315898895263671875</LatitudeDegrees>
              <LongitudeDegrees>-0.8871498517692089080810546875</LongitudeDegrees>
            </Position>
            <AltitudeMeters>27.799999237060546875</AltitudeMeters>
            <DistanceMeters>NAN</DistanceMeters>
          </Trackpoint>
          <Trackpoint>
            <Time>2022-07-04T12:50:20.000Z</Time>
            <Position>
              <LatitudeDegrees>44.6807609684765338897705078125</LatitudeDegrees>
              <LongitudeDegrees>-0.88683511130511760711669921875</LongitudeDegrees>
            </Position>
            <AltitudeMeters>27.6000003814697265625</AltitudeMeters>
            <DistanceMeters>NAN</DistanceMeters>
          </Trackpoint>
          <Trackpoint>
            <Time>2022-07-04T12:50:27.000Z</Time>
            <Position>
              <LatitudeDegrees>44.6805819310247898101806640625</LatitudeDegrees>
              <LongitudeDegrees>-0.886659510433673858642578125</LongitudeDegrees>
            </Position>
            <AltitudeMeters>28</AltitudeMeters>
            <DistanceMeters>NAN</DistanceMeters>
          </Trackpoint>
          <Trackpoint>
            <Time>2022-07-04T12:50:37.000Z</Time>
            <Position>
              <LatitudeDegrees>44.6802922524511814117431640625</LatitudeDegrees>
              <LongitudeDegrees>-0.8863753639161586761474609375</LongitudeDegrees>
            </Position>
            <AltitudeMeters>28.3999996185302734375</AltitudeMeters>
            <DistanceMeters>NAN</DistanceMeters>
          </Trackpoint>
          <Trackpoint>
            <Time>2022-07-04T12:50:44.000Z</Time>
            <Position>
              <LatitudeDegrees>44.6800833754241466522216796875</LatitudeDegrees>
              <LongitudeDegrees>-0.88616690598428249359130859375</LongitudeDegrees>
            </Position>
            <AltitudeMeters>28.6000003814697265625</AltitudeMeters>
            <DistanceMeters>NAN</DistanceMeters>
          </Trackpoint>
          <Trackpoint>
            <Time>2022-07-04T12:50:47.000Z</Time>
            <Position>
              <LatitudeDegrees>44.68000181950628757476806640625</LatitudeDegrees>
              <LongitudeDegrees>-0.8860813267529010772705078125</LongitudeDegrees>
            </Position>
            <AltitudeMeters>28.6000003814697265625</AltitudeMeters>
            <DistanceMeters>NAN</DistanceMeters>
          </Trackpoint>
          <Trackpoint>
            <Time>2022-07-04T12:50:55.000Z</Time>
            <Position>
              <LatitudeDegrees>44.679811634123325347900390625</LatitudeDegrees>
              <LongitudeDegrees>-0.88592332787811756134033203125</LongitudeDegrees>
            </Position>
            <AltitudeMeters>28.3999996185302734375</AltitudeMeters>
            <DistanceMeters>NAN</DistanceMeters>
          </Trackpoint>
          <Trackpoint>
            <Time>2022-07-04T12:51:01.000Z</Time>
            <Position>
              <LatitudeDegrees>44.67971633188426494598388671875</LatitudeDegrees>
              <LongitudeDegrees>-0.88581704534590244293212890625</LongitudeDegrees>
            </Position>
            <AltitudeMeters>28.6000003814697265625</AltitudeMeters>
            <DistanceMeters>NAN</DistanceMeters>
          </Trackpoint>
          <Trackpoint>
            <Time>2022-07-04T12:51:06.000Z</Time>
            <Position>
              <LatitudeDegrees>44.67970342375338077545166015625</LatitudeDegrees>
              <LongitudeDegrees>-0.88579743169248104095458984375</LongitudeDegrees>
            </Position>
            <AltitudeMeters>28.200000762939453125</AltitudeMeters>
            <DistanceMeters>NAN</DistanceMeters>
          </Trackpoint>
          <Trackpoint>
            <Time>2022-07-04T12:51:24.000Z</Time>
            <Position>
              <LatitudeDegrees>44.67951566912233829498291015625</LatitudeDegrees>
              <LongitudeDegrees>-0.88562811724841594696044921875</LongitudeDegrees>
            </Position>
            <AltitudeMeters>28.6000003814697265625</AltitudeMeters>
            <DistanceMeters>NAN</DistanceMeters>
          </Trackpoint>
          <Trackpoint>
            <Time>2022-07-04T12:51:28.000Z</Time>
            <Position>
              <LatitudeDegrees>44.67947526834905147552490234375</LatitudeDegrees>
              <LongitudeDegrees>-0.8855831064283847808837890625</LongitudeDegrees>
            </Position>
            <AltitudeMeters>28.6000003814697265625</AltitudeMeters>
            <DistanceMeters>NAN</DistanceMeters>
          </Trackpoint>
          <Trackpoint>
            <Time>2022-07-04T12:51:32.000Z</Time>
            <Position>
              <LatitudeDegrees>44.6794530563056468963623046875</LatitudeDegrees>
              <LongitudeDegrees>-0.88556525297462940216064453125</LongitudeDegrees>
            </Position>
            <AltitudeMeters>28.6000003814697265625</AltitudeMeters>
            <DistanceMeters>NAN</DistanceMeters>
          </Trackpoint>
          <Trackpoint>
            <Time>2022-07-04T12:51:39.000Z</Time>
            <Position>
              <LatitudeDegrees>44.67938273213803768157958984375</LatitudeDegrees>
              <LongitudeDegrees>-0.8855187334120273590087890625</LongitudeDegrees>
            </Position>
            <AltitudeMeters>28.799999237060546875</AltitudeMeters>
            <DistanceMeters>NAN</DistanceMeters>
          </Trackpoint>
          <Trackpoint>
            <Time>2022-07-04T12:51:44.000Z</Time>
            <Position>
              <LatitudeDegrees>44.67928835190832614898681640625</LatitudeDegrees>
              <LongitudeDegrees>-0.88542460463941097259521484375</LongitudeDegrees>
            </Position>
            <AltitudeMeters>29</AltitudeMeters>
            <DistanceMeters>NAN</DistanceMeters>
          </Trackpoint>
          <Trackpoint>
            <Time>2022-07-04T12:51:47.000Z</Time>
            <Position>
              <LatitudeDegrees>44.6792237274348735809326171875</LatitudeDegrees>
              <LongitudeDegrees>-0.88534615002572536468505859375</LongitudeDegrees>
            </Position>
            <AltitudeMeters>29.200000762939453125</AltitudeMeters>
            <DistanceMeters>NAN</DistanceMeters>
          </Trackpoint>
          <Trackpoint>
            <Time>2022-07-04T12:51:52.000Z</Time>
            <Position>
              <LatitudeDegrees>44.67909003607928752899169921875</LatitudeDegrees>
              <LongitudeDegrees>-0.88521254248917102813720703125</LongitudeDegrees>
            </Position>
            <AltitudeMeters>29.6000003814697265625</AltitudeMeters>
            <DistanceMeters>NAN</DistanceMeters>
          </Trackpoint>
          <Trackpoint>
            <Time>2022-07-04T12:51:55.000Z</Time>
            <Position>
              <LatitudeDegrees>44.67901241965591907501220703125</LatitudeDegrees>
              <LongitudeDegrees>-0.8851301483809947967529296875</LongitudeDegrees>
            </Position>
            <AltitudeMeters>29.6000003814697265625</AltitudeMeters>
            <DistanceMeters>NAN</DistanceMeters>
          </Trackpoint>
          <Trackpoint>
            <Time>2022-07-04T12:52:06.000Z</Time>
            <Position>
              <LatitudeDegrees>44.67870530672371387481689453125</LatitudeDegrees>
              <LongitudeDegrees>-0.88481188751757144927978515625</LongitudeDegrees>
            </Position>
            <AltitudeMeters>30</AltitudeMeters>
            <DistanceMeters>NAN</DistanceMeters>
          </Trackpoint>
          <Trackpoint>
            <Time>2022-07-04T12:52:15.000Z</Time>
            <Position>
              <LatitudeDegrees>44.67843557707965373992919921875</LatitudeDegrees>
              <LongitudeDegrees>-0.88454400189220905303955078125</LongitudeDegrees>
            </Position>
            <AltitudeMeters>30</AltitudeMeters>
            <DistanceMeters>NAN</DistanceMeters>
          </Trackpoint>
          <Trackpoint>
            <Time>2022-07-04T12:52:20.000Z</Time>
            <Position>
              <LatitudeDegrees>44.6782809309661388397216796875</LatitudeDegrees>
              <LongitudeDegrees>-0.88441257365047931671142578125</LongitudeDegrees>
            </Position>
            <AltitudeMeters>30</AltitudeMeters>
            <DistanceMeters>NAN</DistanceMeters>
          </Trackpoint>
          <Trackpoint>
            <Time>2022-07-04T12:52:27.000Z</Time>
            <Position>
              <LatitudeDegrees>44.6780640073120594024658203125</LatitudeDegrees>
              <LongitudeDegrees>-0.88421593420207500457763671875</LongitudeDegrees>
            </Position>
            <AltitudeMeters>30</AltitudeMeters>
            <DistanceMeters>NAN</DistanceMeters>
          </Trackpoint>
          <Trackpoint>
            <Time>2022-07-04T12:52:33.000Z</Time>
            <Position>
              <LatitudeDegrees>44.677915982902050018310546875</LatitudeDegrees>
              <LongitudeDegrees>-0.88405282236635684967041015625</LongitudeDegrees>
            </Position>
            <AltitudeMeters>30</AltitudeMeters>
            <DistanceMeters>NAN</DistanceMeters>
          </Trackpoint>
          <Trackpoint>
            <Time>2022-07-04T12:52:38.000Z</Time>
            <Position>
              <LatitudeDegrees>44.6778098680078983306884765625</LatitudeDegrees>
              <LongitudeDegrees>-0.88393379934132099151611328125</LongitudeDegrees>
            </Position>
            <AltitudeMeters>30</AltitudeMeters>
            <DistanceMeters>NAN</DistanceMeters>
          </Trackpoint>
          <Trackpoint>
            <Time>2022-07-04T12:52:40.000Z</Time>
            <Position>
              <LatitudeDegrees>44.67776142060756683349609375</LatitudeDegrees>
              <LongitudeDegrees>-0.8838943205773830413818359375</LongitudeDegrees>
            </Position>
            <AltitudeMeters>30</AltitudeMeters>
            <DistanceMeters>NAN</DistanceMeters>
          </Trackpoint>
          <Trackpoint>
            <Time>2022-07-04T12:52:46.000Z</Time>
            <Position>
              <LatitudeDegrees>44.67766083776950836181640625</LatitudeDegrees>
              <LongitudeDegrees>-0.883763395249843597412109375</LongitudeDegrees>
            </Position>
            <AltitudeMeters>30.200000762939453125</AltitudeMeters>
            <DistanceMeters>NAN</DistanceMeters>
          </Trackpoint>
          <Trackpoint>
            <Time>2022-07-04T12:52:51.000Z</Time>
            <Position>
              <LatitudeDegrees>44.6775734983384609222412109375</LatitudeDegrees>
              <LongitudeDegrees>-0.88373280130326747894287109375</LongitudeDegrees>
            </Position>
            <AltitudeMeters>30.200000762939453125</AltitudeMeters>
            <DistanceMeters>NAN</DistanceMeters>
          </Trackpoint>
          <Trackpoint>
            <Time>2022-07-04T12:52:54.000Z</Time>
            <Position>
              <LatitudeDegrees>44.67756888829171657562255859375</LatitudeDegrees>
              <LongitudeDegrees>-0.88373087346553802490234375</LongitudeDegrees>
            </Position>
            <AltitudeMeters>30.200000762939453125</AltitudeMeters>
            <DistanceMeters>NAN</DistanceMeters>
          </Trackpoint>
          <Trackpoint>
            <Time>2022-07-04T12:53:03.000Z</Time>
            <Position>
              <LatitudeDegrees>44.6774925291538238525390625</LatitudeDegrees>
              <LongitudeDegrees>-0.88374269194900989532470703125</LongitudeDegrees>
            </Position>
            <AltitudeMeters>30.799999237060546875</AltitudeMeters>
            <DistanceMeters>NAN</DistanceMeters>
          </Trackpoint>
          <Trackpoint>
            <Time>2022-07-04T12:53:04.000Z</Time>
            <Position>
              <LatitudeDegrees>44.677469730377197265625</LatitudeDegrees>
              <LongitudeDegrees>-0.88374721817672252655029296875</LongitudeDegrees>
            </Position>
            <AltitudeMeters>30.799999237060546875</AltitudeMeters>
            <DistanceMeters>NAN</DistanceMeters>
          </Trackpoint>
          <Trackpoint>
            <Time>2022-07-04T12:53:10.000Z</Time>
            <Position>
              <LatitudeDegrees>44.67735665850341320037841796875</LatitudeDegrees>
              <LongitudeDegrees>-0.88375710882246494293212890625</LongitudeDegrees>
            </Position>
            <AltitudeMeters>30.799999237060546875</AltitudeMeters>
            <DistanceMeters>NAN</DistanceMeters>
          </Trackpoint>
          <Trackpoint>
            <Time>2022-07-04T12:53:15.000Z</Time>
            <Position>
              <LatitudeDegrees>44.67727200128138065338134765625</LatitudeDegrees>
              <LongitudeDegrees>-0.883919633924961090087890625</LongitudeDegrees>
            </Position>
            <AltitudeMeters>30.799999237060546875</AltitudeMeters>
            <DistanceMeters>NAN</DistanceMeters>
          </Trackpoint>
          <Trackpoint>
            <Time>2022-07-04T12:53:22.000Z</Time>
            <Position>
              <LatitudeDegrees>44.67712615616619586944580078125</LatitudeDegrees>
              <LongitudeDegrees>-0.88422331027686595916748046875</LongitudeDegrees>
            </Position>
            <AltitudeMeters>31</AltitudeMeters>
            <DistanceMeters>NAN</DistanceMeters>
          </Trackpoint>
          <Trackpoint>
            <Time>2022-07-04T12:53:29.000Z</Time>
            <Position>
              <LatitudeDegrees>44.6769646368920803070068359375</LatitudeDegrees>
              <LongitudeDegrees>-0.88452623225748538970947265625</LongitudeDegrees>
            </Position>
            <AltitudeMeters>31</AltitudeMeters>
            <DistanceMeters>NAN</DistanceMeters>
          </Trackpoint>
          <Trackpoint>
            <Time>2022-07-04T12:53:31.000Z</Time>
            <Position>
              <LatitudeDegrees>44.676924236118793487548828125</LatitudeDegrees>
              <LongitudeDegrees>-0.8846064470708370208740234375</LongitudeDegrees>
            </Position>
            <AltitudeMeters>31</AltitudeMeters>
            <DistanceMeters>NAN</DistanceMeters>
          </Trackpoint>
          <Trackpoint>
            <Time>2022-07-04T12:53:36.000Z</Time>
            <Position>
              <LatitudeDegrees>44.6768201328814029693603515625</LatitudeDegrees>
              <LongitudeDegrees>-0.88481406681239604949951171875</LongitudeDegrees>
            </Position>
            <AltitudeMeters>30.799999237060546875</AltitudeMeters>
            <DistanceMeters>NAN</DistanceMeters>
          </Trackpoint>
          <Trackpoint>
            <Time>2022-07-04T12:53:39.000Z</Time>
            <Position>
              <LatitudeDegrees>44.6767664887011051177978515625</LatitudeDegrees>
              <LongitudeDegrees>-0.8849316649138927459716796875</LongitudeDegrees>
            </Position>
            <AltitudeMeters>30.799999237060546875</AltitudeMeters>
            <DistanceMeters>NAN</DistanceMeters>
          </Trackpoint>
          <Trackpoint>
            <Time>2022-07-04T12:53:46.000Z</Time>
            <Position>
              <LatitudeDegrees>44.67661167494952678680419921875</LatitudeDegrees>
              <LongitudeDegrees>-0.8852381072938442230224609375</LongitudeDegrees>
            </Position>
            <AltitudeMeters>31</AltitudeMeters>
            <DistanceMeters>NAN</DistanceMeters>
          </Trackpoint>
          <Trackpoint>
            <Time>2022-07-04T12:53:53.000Z</Time>
            <Position>
              <LatitudeDegrees>44.67643129639327526092529296875</LatitudeDegrees>
              <LongitudeDegrees>-0.8855916559696197509765625</LongitudeDegrees>
            </Position>
            <AltitudeMeters>31.6000003814697265625</AltitudeMeters>
            <DistanceMeters>NAN</DistanceMeters>
          </Trackpoint>
          <Trackpoint>
            <Time>2022-07-04T12:53:54.000Z</Time>
            <Position>
              <LatitudeDegrees>44.67639148235321044921875</LatitudeDegrees>
              <LongitudeDegrees>-0.8856538496911525726318359375</LongitudeDegrees>
            </Position>
            <AltitudeMeters>31.799999237060546875</AltitudeMeters>
            <DistanceMeters>NAN</DistanceMeters>
          </Trackpoint>
          <Trackpoint>
            <Time>2022-07-04T12:53:58.000Z</Time>
            <Position>
              <LatitudeDegrees>44.67626080848276615142822265625</LatitudeDegrees>
              <LongitudeDegrees>-0.88587664067745208740234375</LongitudeDegrees>
            </Position>
            <AltitudeMeters>31.6000003814697265625</AltitudeMeters>
            <DistanceMeters>NAN</DistanceMeters>
          </Trackpoint>
          <Trackpoint>
            <Time>2022-07-04T12:54:07.000Z</Time>
            <Position>
              <LatitudeDegrees>44.67605126090347766876220703125</LatitudeDegrees>
              <LongitudeDegrees>-0.8862989209592342376708984375</LongitudeDegrees>
            </Position>
            <AltitudeMeters>31.6000003814697265625</AltitudeMeters>
            <DistanceMeters>NAN</DistanceMeters>
          </Trackpoint>
          <Trackpoint>
            <Time>2022-07-04T12:54:17.000Z</Time>
            <Position>
              <LatitudeDegrees>44.67581103555858135223388671875</LatitudeDegrees>
              <LongitudeDegrees>-0.8867503702640533447265625</LongitudeDegrees>
            </Position>
            <AltitudeMeters>31</AltitudeMeters>
            <DistanceMeters>NAN</DistanceMeters>
          </Trackpoint>
          <Trackpoint>
            <Time>2022-07-04T12:54:20.000Z</Time>
            <Position>
              <LatitudeDegrees>44.67577197588980197906494140625</LatitudeDegrees>
              <LongitudeDegrees>-0.88686746545135974884033203125</LongitudeDegrees>
            </Position>
            <AltitudeMeters>31.200000762939453125</AltitudeMeters>
            <DistanceMeters>NAN</DistanceMeters>
          </Trackpoint>
          <Trackpoint>
            <Time>2022-07-04T12:54:21.000Z</Time>
            <Position>
              <LatitudeDegrees>44.6757744066417217254638671875</LatitudeDegrees>
              <LongitudeDegrees>-0.8869014121592044830322265625</LongitudeDegrees>
            </Position>
            <AltitudeMeters>31.200000762939453125</AltitudeMeters>
            <DistanceMeters>NAN</DistanceMeters>
          </Trackpoint>
          <Trackpoint>
            <Time>2022-07-04T12:54:27.000Z</Time>
            <Position>
              <LatitudeDegrees>44.67578689567744731903076171875</LatitudeDegrees>
              <LongitudeDegrees>-0.88712713681161403656005859375</LongitudeDegrees>
            </Position>
            <AltitudeMeters>31.3999996185302734375</AltitudeMeters>
            <DistanceMeters>NAN</DistanceMeters>
          </Trackpoint>
          <Trackpoint>
            <Time>2022-07-04T12:54:32.000Z</Time>
            <Position>
              <LatitudeDegrees>44.67567172832787036895751953125</LatitudeDegrees>
              <LongitudeDegrees>-0.8873610757291316986083984375</LongitudeDegrees>
            </Position>
            <AltitudeMeters>31.799999237060546875</AltitudeMeters>
            <DistanceMeters>NAN</DistanceMeters>
          </Trackpoint>
          <Trackpoint>
            <Time>2022-07-04T12:54:41.000Z</Time>
            <Position>
              <LatitudeDegrees>44.6754491887986660003662109375</LatitudeDegrees>
              <LongitudeDegrees>-0.887814201414585113525390625</LongitudeDegrees>
            </Position>
            <AltitudeMeters>31.799999237060546875</AltitudeMeters>
            <DistanceMeters>NAN</DistanceMeters>
          </Trackpoint>
          <Trackpoint>
            <Time>2022-07-04T12:54:51.000Z</Time>
            <Position>
              <LatitudeDegrees>44.675201587378978729248046875</LatitudeDegrees>
              <LongitudeDegrees>-0.88830479420721530914306640625</LongitudeDegrees>
            </Position>
            <AltitudeMeters>31.799999237060546875</AltitudeMeters>
            <DistanceMeters>NAN</DistanceMeters>
          </Trackpoint>
          <Trackpoint>
            <Time>2022-07-04T12:55:03.000Z</Time>
            <Position>
              <LatitudeDegrees>44.67492724768817424774169921875</LatitudeDegrees>
              <LongitudeDegrees>-0.888868309557437896728515625</LongitudeDegrees>
            </Position>
            <AltitudeMeters>31.3999996185302734375</AltitudeMeters>
            <DistanceMeters>NAN</DistanceMeters>
          </Trackpoint>
          <Trackpoint>
            <Time>2022-07-04T12:55:12.000Z</Time>
            <Position>
              <LatitudeDegrees>44.67470127157866954803466796875</LatitudeDegrees>
              <LongitudeDegrees>-0.88932906277477741241455078125</LongitudeDegrees>
            </Position>
            <AltitudeMeters>31.6000003814697265625</AltitudeMeters>
            <DistanceMeters>NAN</DistanceMeters>
          </Trackpoint>
          <Trackpoint>
            <Time>2022-07-04T12:55:22.000Z</Time>
            <Position>
              <LatitudeDegrees>44.67443908564746379852294921875</LatitudeDegrees>
              <LongitudeDegrees>-0.88983063586056232452392578125</LongitudeDegrees>
            </Position>
            <AltitudeMeters>31.200000762939453125</AltitudeMeters>
            <DistanceMeters>NAN</DistanceMeters>
          </Trackpoint>
          <Trackpoint>
            <Time>2022-07-04T12:55:28.000Z</Time>
            <Position>
              <LatitudeDegrees>44.6742871217429637908935546875</LatitudeDegrees>
              <LongitudeDegrees>-0.89016054756939411163330078125</LongitudeDegrees>
            </Position>
            <AltitudeMeters>31.3999996185302734375</AltitudeMeters>
            <DistanceMeters>NAN</DistanceMeters>
          </Trackpoint>
          <Trackpoint>
            <Time>2022-07-04T12:55:31.000Z</Time>
            <Position>
              <LatitudeDegrees>44.67420925386250019073486328125</LatitudeDegrees>
              <LongitudeDegrees>-0.89031980372965335845947265625</LongitudeDegrees>
            </Position>
            <AltitudeMeters>31.6000003814697265625</AltitudeMeters>
            <DistanceMeters>NAN</DistanceMeters>
          </Trackpoint>
          <Trackpoint>
            <Time>2022-07-04T12:55:39.000Z</Time>
            <Position>
              <LatitudeDegrees>44.67400632798671722412109375</LatitudeDegrees>
              <LongitudeDegrees>-0.89072967879474163055419921875</LongitudeDegrees>
            </Position>
            <AltitudeMeters>31.3999996185302734375</AltitudeMeters>
            <DistanceMeters>NAN</DistanceMeters>
          </Trackpoint>
          <Trackpoint>
            <Time>2022-07-04T12:55:41.000Z</Time>
            <Position>
              <LatitudeDegrees>44.67395293526351451873779296875</LatitudeDegrees>
              <LongitudeDegrees>-0.89084568433463573455810546875</LongitudeDegrees>
            </Position>
            <AltitudeMeters>31.799999237060546875</AltitudeMeters>
            <DistanceMeters>NAN</DistanceMeters>
          </Trackpoint>
          <Trackpoint>
            <Time>2022-07-04T12:55:49.000Z</Time>
            <Position>
              <LatitudeDegrees>44.6737449802458286285400390625</LatitudeDegrees>
              <LongitudeDegrees>-0.89128422550857067108154296875</LongitudeDegrees>
            </Position>
            <AltitudeMeters>31.799999237060546875</AltitudeMeters>
            <DistanceMeters>NAN</DistanceMeters>
          </Trackpoint>
          <Trackpoint>
            <Time>2022-07-04T12:55:54.000Z</Time>
            <Position>
              <LatitudeDegrees>44.67361799441277980804443359375</LatitudeDegrees>
              <LongitudeDegrees>-0.891553871333599090576171875</LongitudeDegrees>
            </Position>
            <AltitudeMeters>31.799999237060546875</AltitudeMeters>
            <DistanceMeters>NAN</DistanceMeters>
          </Trackpoint>
          <Trackpoint>
            <Time>2022-07-04T12:55:56.000Z</Time>
            <Position>
              <LatitudeDegrees>44.6735630929470062255859375</LatitudeDegrees>
              <LongitudeDegrees>-0.89166241697967052459716796875</LongitudeDegrees>
            </Position>
            <AltitudeMeters>31.799999237060546875</AltitudeMeters>
            <DistanceMeters>NAN</DistanceMeters>
          </Trackpoint>
          <Trackpoint>
            <Time>2022-07-04T12:55:59.000Z</Time>
            <Position>
              <LatitudeDegrees>44.673484973609447479248046875</LatitudeDegrees>
              <LongitudeDegrees>-0.89182385243475437164306640625</LongitudeDegrees>
            </Position>
            <AltitudeMeters>32</AltitudeMeters>
            <DistanceMeters>NAN</DistanceMeters>
          </Trackpoint>
          <Trackpoint>
            <Time>2022-07-04T12:56:00.000Z</Time>
            <Position>
              <LatitudeDegrees>44.67345722950994968414306640625</LatitudeDegrees>
              <LongitudeDegrees>-0.8918779157102108001708984375</LongitudeDegrees>
            </Position>
            <AltitudeMeters>31.799999237060546875</AltitudeMeters>
            <DistanceMeters>NAN</DistanceMeters>
          </Trackpoint>
          <Trackpoint>
            <Time>2022-07-04T12:56:12.000Z</Time>
            <Position>
              <LatitudeDegrees>44.673137627542018890380859375</LatitudeDegrees>
              <LongitudeDegrees>-0.89252525009214878082275390625</LongitudeDegrees>
            </Position>
            <AltitudeMeters>31.799999237060546875</AltitudeMeters>
            <DistanceMeters>NAN</DistanceMeters>
          </Trackpoint>
          <Trackpoint>
            <Time>2022-07-04T12:56:22.000Z</Time>
            <Position>
              <LatitudeDegrees>44.67288658954203128814697265625</LatitudeDegrees>
              <LongitudeDegrees>-0.89303872548043727874755859375</LongitudeDegrees>
            </Position>
            <AltitudeMeters>32</AltitudeMeters>
            <DistanceMeters>NAN</DistanceMeters>
          </Trackpoint>
          <Trackpoint>
            <Time>2022-07-04T12:56:33.000Z</Time>
            <Position>
              <LatitudeDegrees>44.6726063825190067291259765625</LatitudeDegrees>
              <LongitudeDegrees>-0.893620513379573822021484375</LongitudeDegrees>
            </Position>
            <AltitudeMeters>31.200000762939453125</AltitudeMeters>
            <DistanceMeters>NAN</DistanceMeters>
          </Trackpoint>
          <Trackpoint>
            <Time>2022-07-04T12:56:40.000Z</Time>
            <Position>
              <LatitudeDegrees>44.672392308712005615234375</LatitudeDegrees>
              <LongitudeDegrees>-0.8940183185040950775146484375</LongitudeDegrees>
            </Position>
            <AltitudeMeters>32</AltitudeMeters>
            <DistanceMeters>NAN</DistanceMeters>
          </Trackpoint>
          <Trackpoint>
            <Time>2022-07-04T12:56:47.000Z</Time>
            <Position>
              <LatitudeDegrees>44.67216993682086467742919921875</LatitudeDegrees>
              <LongitudeDegrees>-0.894493572413921356201171875</LongitudeDegrees>
            </Position>
            <AltitudeMeters>31.799999237060546875</AltitudeMeters>
            <DistanceMeters>NAN</DistanceMeters>
          </Trackpoint>
          <Trackpoint>
            <Time>2022-07-04T12:56:57.000Z</Time>
            <Position>
              <LatitudeDegrees>44.67186952941119670867919921875</LatitudeDegrees>
              <LongitudeDegrees>-0.89511810801923274993896484375</LongitudeDegrees>
            </Position>
            <AltitudeMeters>31.3999996185302734375</AltitudeMeters>
            <DistanceMeters>NAN</DistanceMeters>
          </Trackpoint>
          <Trackpoint>
            <Time>2022-07-04T12:57:08.000Z</Time>
            <Position>
              <LatitudeDegrees>44.67154548503458499908447265625</LatitudeDegrees>
              <LongitudeDegrees>-0.89577860198915004730224609375</LongitudeDegrees>
            </Position>
            <AltitudeMeters>31.3999996185302734375</AltitudeMeters>
            <DistanceMeters>NAN</DistanceMeters>
          </Trackpoint>
          <Trackpoint>
            <Time>2022-07-04T12:57:10.000Z</Time>
            <Position>
              <LatitudeDegrees>44.671495445072650909423828125</LatitudeDegrees>
              <LongitudeDegrees>-0.89589460752904415130615234375</LongitudeDegrees>
            </Position>
            <AltitudeMeters>31.3999996185302734375</AltitudeMeters>
            <DistanceMeters>NAN</DistanceMeters>
          </Trackpoint>
          <Trackpoint>
            <Time>2022-07-04T12:57:19.000Z</Time>
            <Position>
              <LatitudeDegrees>44.6712471731007099151611328125</LatitudeDegrees>
              <LongitudeDegrees>-0.8964135311543941497802734375</LongitudeDegrees>
            </Position>
            <AltitudeMeters>31.6000003814697265625</AltitudeMeters>
            <DistanceMeters>NAN</DistanceMeters>
          </Trackpoint>
          <Trackpoint>
            <Time>2022-07-04T12:57:22.000Z</Time>
            <Position>
              <LatitudeDegrees>44.67116813175380229949951171875</LatitudeDegrees>
              <LongitudeDegrees>-0.89658158831298351287841796875</LongitudeDegrees>
            </Position>
            <AltitudeMeters>31.6000003814697265625</AltitudeMeters>
            <DistanceMeters>NAN</DistanceMeters>
          </Trackpoint>
          <Trackpoint>
            <Time>2022-07-04T12:57:25.000Z</Time>
            <Position>
              <LatitudeDegrees>44.67108850367367267608642578125</LatitudeDegrees>
              <LongitudeDegrees>-0.89674285613000392913818359375</LongitudeDegrees>
            </Position>
            <AltitudeMeters>31.6000003814697265625</AltitudeMeters>
            <DistanceMeters>NAN</DistanceMeters>
          </Trackpoint>
          <Trackpoint>
            <Time>2022-07-04T12:57:26.000Z</Time>
            <Position>
              <LatitudeDegrees>44.67106126248836517333984375</LatitudeDegrees>
              <LongitudeDegrees>-0.896796919405460357666015625</LongitudeDegrees>
            </Position>
            <AltitudeMeters>31.6000003814697265625</AltitudeMeters>
            <DistanceMeters>NAN</DistanceMeters>
          </Trackpoint>
          <Trackpoint>
            <Time>2022-07-04T12:57:35.000Z</Time>
            <Position>
              <LatitudeDegrees>44.6708180196583271026611328125</LatitudeDegrees>
              <LongitudeDegrees>-0.8972855843603610992431640625</LongitudeDegrees>
            </Position>
            <AltitudeMeters>31.200000762939453125</AltitudeMeters>
            <DistanceMeters>NAN</DistanceMeters>
          </Trackpoint>
          <Trackpoint>
            <Time>2022-07-04T12:57:45.000Z</Time>
            <Position>
              <LatitudeDegrees>44.67053848318755626678466796875</LatitudeDegrees>
              <LongitudeDegrees>-0.8978495188057422637939453125</LongitudeDegrees>
            </Position>
            <AltitudeMeters>31.200000762939453125</AltitudeMeters>
            <DistanceMeters>NAN</DistanceMeters>
          </Trackpoint>
          <Trackpoint>
            <Time>2022-07-04T12:57:46.000Z</Time>
            <Position>
              <LatitudeDegrees>44.67051099054515361785888671875</LatitudeDegrees>
              <LongitudeDegrees>-0.89790525846183300018310546875</LongitudeDegrees>
            </Position>
            <AltitudeMeters>31</AltitudeMeters>
            <DistanceMeters>NAN</DistanceMeters>
          </Trackpoint>
          <Trackpoint>
            <Time>2022-07-04T12:57:49.000Z</Time>
            <Position>
              <LatitudeDegrees>44.6704317815601825714111328125</LatitudeDegrees>
              <LongitudeDegrees>-0.8980738185346126556396484375</LongitudeDegrees>
            </Position>
            <AltitudeMeters>30.799999237060546875</AltitudeMeters>
            <DistanceMeters>NAN</DistanceMeters>
          </Trackpoint>
          <Trackpoint>
            <Time>2022-07-04T12:57:55.000Z</Time>
            <Position>
              <LatitudeDegrees>44.67025970108807086944580078125</LatitudeDegrees>
              <LongitudeDegrees>-0.89840616099536418914794921875</LongitudeDegrees>
            </Position>
            <AltitudeMeters>30.799999237060546875</AltitudeMeters>
            <DistanceMeters>NAN</DistanceMeters>
          </Trackpoint>
          <Trackpoint>
            <Time>2022-07-04T12:57:59.000Z</Time>
            <Position>
              <LatitudeDegrees>44.670140929520130157470703125</LatitudeDegrees>
              <LongitudeDegrees>-0.8986260183155536651611328125</LongitudeDegrees>
            </Position>
            <AltitudeMeters>30.799999237060546875</AltitudeMeters>
            <DistanceMeters>NAN</DistanceMeters>
          </Trackpoint>
          <Trackpoint>
            <Time>2022-07-04T12:58:03.000Z</Time>
            <Position>
              <LatitudeDegrees>44.6700378321111202239990234375</LatitudeDegrees>
              <LongitudeDegrees>-0.89885911904275417327880859375</LongitudeDegrees>
            </Position>
            <AltitudeMeters>31</AltitudeMeters>
            <DistanceMeters>NAN</DistanceMeters>
          </Trackpoint>
          <Trackpoint>
            <Time>2022-07-04T12:58:12.000Z</Time>
            <Position>
              <LatitudeDegrees>44.669801294803619384765625</LatitudeDegrees>
              <LongitudeDegrees>-0.899390280246734619140625</LongitudeDegrees>
            </Position>
            <AltitudeMeters>31</AltitudeMeters>
            <DistanceMeters>NAN</DistanceMeters>
          </Trackpoint>
          <Trackpoint>
            <Time>2022-07-04T12:58:13.000Z</Time>
            <Position>
              <LatitudeDegrees>44.66977220959961414337158203125</LatitudeDegrees>
              <LongitudeDegrees>-0.89944803155958652496337890625</LongitudeDegrees>
            </Position>
            <AltitudeMeters>30.799999237060546875</AltitudeMeters>
            <DistanceMeters>NAN</DistanceMeters>
          </Trackpoint>
          <Trackpoint>
            <Time>2022-07-04T12:58:24.000Z</Time>
            <Position>
              <LatitudeDegrees>44.66946945525705814361572265625</LatitudeDegrees>
              <LongitudeDegrees>-0.900081954896450042724609375</LongitudeDegrees>
            </Position>
            <AltitudeMeters>30.6000003814697265625</AltitudeMeters>
            <DistanceMeters>NAN</DistanceMeters>
          </Trackpoint>
          <Trackpoint>
            <Time>2022-07-04T12:58:25.000Z</Time>
            <Position>
              <LatitudeDegrees>44.66944246552884578704833984375</LatitudeDegrees>
              <LongitudeDegrees>-0.90013819746673107147216796875</LongitudeDegrees>
            </Position>
            <AltitudeMeters>30.6000003814697265625</AltitudeMeters>
            <DistanceMeters>NAN</DistanceMeters>
          </Trackpoint>
          <Trackpoint>
            <Time>2022-07-04T12:58:28.000Z</Time>
            <Position>
              <LatitudeDegrees>44.6693627536296844482421875</LatitudeDegrees>
              <LongitudeDegrees>-0.90031790547072887420654296875</LongitudeDegrees>
            </Position>
            <AltitudeMeters>30.3999996185302734375</AltitudeMeters>
            <DistanceMeters>NAN</DistanceMeters>
          </Trackpoint>
          <Trackpoint>
            <Time>2022-07-04T12:58:30.000Z</Time>
            <Position>
              <LatitudeDegrees>44.6693052537739276885986328125</LatitudeDegrees>
              <LongitudeDegrees>-0.90043223462998867034912109375</LongitudeDegrees>
            </Position>
            <AltitudeMeters>30.3999996185302734375</AltitudeMeters>
            <DistanceMeters>NAN</DistanceMeters>
          </Trackpoint>
          <Trackpoint>
            <Time>2022-07-04T12:58:33.000Z</Time>
            <Position>
              <LatitudeDegrees>44.66922202147543430328369140625</LatitudeDegrees>
              <LongitudeDegrees>-0.90058763511478900909423828125</LongitudeDegrees>
            </Position>
            <AltitudeMeters>30.6000003814697265625</AltitudeMeters>
            <DistanceMeters>NAN</DistanceMeters>
          </Trackpoint>
          <Trackpoint>
            <Time>2022-07-04T12:58:34.000Z</Time>
            <Position>
              <LatitudeDegrees>44.66919503174722194671630859375</LatitudeDegrees>
              <LongitudeDegrees>-0.9006403572857379913330078125</LongitudeDegrees>
            </Position>
            <AltitudeMeters>30.6000003814697265625</AltitudeMeters>
            <DistanceMeters>NAN</DistanceMeters>
          </Trackpoint>
          <Trackpoint>
            <Time>2022-07-04T12:58:42.000Z</Time>
            <Position>
              <LatitudeDegrees>44.66899788938462734222412109375</LatitudeDegrees>
              <LongitudeDegrees>-0.90109004639089107513427734375</LongitudeDegrees>
            </Position>
            <AltitudeMeters>30.799999237060546875</AltitudeMeters>
            <DistanceMeters>NAN</DistanceMeters>
          </Trackpoint>
          <Trackpoint>
            <Time>2022-07-04T12:58:50.000Z</Time>
            <Position>
              <LatitudeDegrees>44.6687833964824676513671875</LatitudeDegrees>
              <LongitudeDegrees>-0.9015328623354434967041015625</LongitudeDegrees>
            </Position>
            <AltitudeMeters>30.6000003814697265625</AltitudeMeters>
            <DistanceMeters>NAN</DistanceMeters>
          </Trackpoint>
          <Trackpoint>
            <Time>2022-07-04T12:58:51.000Z</Time>
            <Position>
              <LatitudeDegrees>44.6687537245452404022216796875</LatitudeDegrees>
              <LongitudeDegrees>-0.90157561004161834716796875</LongitudeDegrees>
            </Position>
            <AltitudeMeters>30.6000003814697265625</AltitudeMeters>
            <DistanceMeters>NAN</DistanceMeters>
          </Trackpoint>
          <Trackpoint>
            <Time>2022-07-04T12:58:52.000Z</Time>
            <Position>
              <LatitudeDegrees>44.6687222085893154144287109375</LatitudeDegrees>
              <LongitudeDegrees>-0.901614837348461151123046875</LongitudeDegrees>
            </Position>
            <AltitudeMeters>30.6000003814697265625</AltitudeMeters>
            <DistanceMeters>NAN</DistanceMeters>
          </Trackpoint>
          <Trackpoint>
            <Time>2022-07-04T12:58:57.000Z</Time>
            <Position>
              <LatitudeDegrees>44.66856923885643482208251953125</LatitudeDegrees>
              <LongitudeDegrees>-0.9018708206713199615478515625</LongitudeDegrees>
            </Position>
            <AltitudeMeters>30.6000003814697265625</AltitudeMeters>
            <DistanceMeters>NAN</DistanceMeters>
          </Trackpoint>
          <Trackpoint>
            <Time>2022-07-04T12:59:00.000Z</Time>
            <Position>
              <LatitudeDegrees>44.668488688766956329345703125</LatitudeDegrees>
              <LongitudeDegrees>-0.90205245651304721832275390625</LongitudeDegrees>
            </Position>
            <AltitudeMeters>30.799999237060546875</AltitudeMeters>
            <DistanceMeters>NAN</DistanceMeters>
          </Trackpoint>
          <Trackpoint>
            <Time>2022-07-04T12:59:04.000Z</Time>
            <Position>
              <LatitudeDegrees>44.66838844120502471923828125</LatitudeDegrees>
              <LongitudeDegrees>-0.90228044427931308746337890625</LongitudeDegrees>
            </Position>
            <AltitudeMeters>30.3999996185302734375</AltitudeMeters>
            <DistanceMeters>NAN</DistanceMeters>
          </Trackpoint>
          <Trackpoint>
            <Time>2022-07-04T12:59:11.000Z</Time>
            <Position>
              <LatitudeDegrees>44.668207056820392608642578125</LatitudeDegrees>
              <LongitudeDegrees>-0.90268847532570362091064453125</LongitudeDegrees>
            </Position>
            <AltitudeMeters>30.3999996185302734375</AltitudeMeters>
            <DistanceMeters>NAN</DistanceMeters>
          </Trackpoint>
          <Trackpoint>
            <Time>2022-07-04T12:59:18.000Z</Time>
            <Position>
              <LatitudeDegrees>44.6680151112377643585205078125</LatitudeDegrees>
              <LongitudeDegrees>-0.90312886051833629608154296875</LongitudeDegrees>
            </Position>
            <AltitudeMeters>30.6000003814697265625</AltitudeMeters>
            <DistanceMeters>NAN</DistanceMeters>
          </Trackpoint>
          <Trackpoint>
            <Time>2022-07-04T12:59:25.000Z</Time>
            <Position>
              <LatitudeDegrees>44.66782224364578723907470703125</LatitudeDegrees>
              <LongitudeDegrees>-0.90356907807290554046630859375</LongitudeDegrees>
            </Position>
            <AltitudeMeters>30.3999996185302734375</AltitudeMeters>
            <DistanceMeters>NAN</DistanceMeters>
          </Trackpoint>
          <Trackpoint>
            <Time>2022-07-04T12:59:26.000Z</Time>
            <Position>
              <LatitudeDegrees>44.6677944995462894439697265625</LatitudeDegrees>
              <LongitudeDegrees>-0.9036269970238208770751953125</LongitudeDegrees>
            </Position>
            <AltitudeMeters>30.3999996185302734375</AltitudeMeters>
            <DistanceMeters>NAN</DistanceMeters>
          </Trackpoint>
          <Trackpoint>
            <Time>2022-07-04T12:59:34.000Z</Time>
            <Position>
              <LatitudeDegrees>44.6675710380077362060546875</LatitudeDegrees>
              <LongitudeDegrees>-0.9040973894298076629638671875</LongitudeDegrees>
            </Position>
            <AltitudeMeters>30.200000762939453125</AltitudeMeters>
            <DistanceMeters>NAN</DistanceMeters>
          </Trackpoint>
          <Trackpoint>
            <Time>2022-07-04T12:59:45.000Z</Time>
            <Position>
              <LatitudeDegrees>44.6672446466982364654541015625</LatitudeDegrees>
              <LongitudeDegrees>-0.90474690310657024383544921875</LongitudeDegrees>
            </Position>
            <AltitudeMeters>30.200000762939453125</AltitudeMeters>
            <DistanceMeters>NAN</DistanceMeters>
          </Trackpoint>
          <Trackpoint>
            <Time>2022-07-04T12:59:55.000Z</Time>
            <Position>
              <LatitudeDegrees>44.666982628405094146728515625</LatitudeDegrees>
              <LongitudeDegrees>-0.905317962169647216796875</LongitudeDegrees>
            </Position>
            <AltitudeMeters>29.799999237060546875</AltitudeMeters>
            <DistanceMeters>NAN</DistanceMeters>
          </Trackpoint>
          <Trackpoint>
            <Time>2022-07-04T13:00:02.000Z</Time>
            <Position>
              <LatitudeDegrees>44.666786156594753265380859375</LatitudeDegrees>
              <LongitudeDegrees>-0.9057335369288921356201171875</LongitudeDegrees>
            </Position>
            <AltitudeMeters>29.799999237060546875</AltitudeMeters>
            <DistanceMeters>NAN</DistanceMeters>
          </Trackpoint>
          <Trackpoint>
            <Time>2022-07-04T13:00:07.000Z</Time>
            <Position>
              <LatitudeDegrees>44.666650705039501190185546875</LatitudeDegrees>
              <LongitudeDegrees>-0.90601810254156589508056640625</LongitudeDegrees>
            </Position>
            <AltitudeMeters>29.799999237060546875</AltitudeMeters>
            <DistanceMeters>NAN</DistanceMeters>
          </Trackpoint>
          <Trackpoint>
            <Time>2022-07-04T13:00:17.000Z</Time>
            <Position>
              <LatitudeDegrees>44.66636463068425655364990234375</LatitudeDegrees>
              <LongitudeDegrees>-0.90658656321465969085693359375</LongitudeDegrees>
            </Position>
            <AltitudeMeters>29.3999996185302734375</AltitudeMeters>
            <DistanceMeters>NAN</DistanceMeters>
          </Trackpoint>
          <Trackpoint>
            <Time>2022-07-04T13:00:28.000Z</Time>
            <Position>
              <LatitudeDegrees>44.66605416499078273773193359375</LatitudeDegrees>
              <LongitudeDegrees>-0.90723180212080478668212890625</LongitudeDegrees>
            </Position>
            <AltitudeMeters>29</AltitudeMeters>
            <DistanceMeters>NAN</DistanceMeters>
          </Trackpoint>
          <Trackpoint>
            <Time>2022-07-04T13:00:37.000Z</Time>
            <Position>
              <LatitudeDegrees>44.66580002568662166595458984375</LatitudeDegrees>
              <LongitudeDegrees>-0.907773859798908233642578125</LongitudeDegrees>
            </Position>
            <AltitudeMeters>28.6000003814697265625</AltitudeMeters>
            <DistanceMeters>NAN</DistanceMeters>
          </Trackpoint>
          <Trackpoint>
            <Time>2022-07-04T13:00:39.000Z</Time>
            <Position>
              <LatitudeDegrees>44.66573975980281829833984375</LatitudeDegrees>
              <LongitudeDegrees>-0.90789489448070526123046875</LongitudeDegrees>
            </Position>
            <AltitudeMeters>28.6000003814697265625</AltitudeMeters>
            <DistanceMeters>NAN</DistanceMeters>
          </Trackpoint>
          <Trackpoint>
            <Time>2022-07-04T13:00:47.000Z</Time>
            <Position>
              <LatitudeDegrees>44.66554152779281139373779296875</LatitudeDegrees>
              <LongitudeDegrees>-0.9083547256886959075927734375</LongitudeDegrees>
            </Position>
            <AltitudeMeters>28.6000003814697265625</AltitudeMeters>
            <DistanceMeters>NAN</DistanceMeters>
          </Trackpoint>
          <Trackpoint>
            <Time>2022-07-04T13:00:48.000Z</Time>
            <Position>
              <LatitudeDegrees>44.66551520861685276031494140625</LatitudeDegrees>
              <LongitudeDegrees>-0.90841163881123065948486328125</LongitudeDegrees>
            </Position>
            <AltitudeMeters>28.3999996185302734375</AltitudeMeters>
            <DistanceMeters>NAN</DistanceMeters>
          </Trackpoint>
          <Trackpoint>
            <Time>2022-07-04T13:00:54.000Z</Time>
            <Position>
              <LatitudeDegrees>44.6653796732425689697265625</LatitudeDegrees>
              <LongitudeDegrees>-0.9087325818836688995361328125</LongitudeDegrees>
            </Position>
            <AltitudeMeters>28.3999996185302734375</AltitudeMeters>
            <DistanceMeters>NAN</DistanceMeters>
          </Trackpoint>
          <Trackpoint>
            <Time>2022-07-04T13:00:58.000Z</Time>
            <Position>
              <LatitudeDegrees>44.66528587974607944488525390625</LatitudeDegrees>
              <LongitudeDegrees>-0.9089538641273975372314453125</LongitudeDegrees>
            </Position>
            <AltitudeMeters>28.3999996185302734375</AltitudeMeters>
            <DistanceMeters>NAN</DistanceMeters>
          </Trackpoint>
          <Trackpoint>
            <Time>2022-07-04T13:01:07.000Z</Time>
            <Position>
              <LatitudeDegrees>44.6650469116866588592529296875</LatitudeDegrees>
              <LongitudeDegrees>-0.9094547666609287261962890625</LongitudeDegrees>
            </Position>
            <AltitudeMeters>27.799999237060546875</AltitudeMeters>
            <DistanceMeters>NAN</DistanceMeters>
          </Trackpoint>
          <Trackpoint>
            <Time>2022-07-04T13:01:16.000Z</Time>
            <Position>
              <LatitudeDegrees>44.664816744625568389892578125</LatitudeDegrees>
              <LongitudeDegrees>-0.90995323844254016876220703125</LongitudeDegrees>
            </Position>
            <AltitudeMeters>27.799999237060546875</AltitudeMeters>
            <DistanceMeters>NAN</DistanceMeters>
          </Trackpoint>
          <Trackpoint>
            <Time>2022-07-04T13:01:23.000Z</Time>
            <Position>
              <LatitudeDegrees>44.66462085954844951629638671875</LatitudeDegrees>
              <LongitudeDegrees>-0.91033193282783031463623046875</LongitudeDegrees>
            </Position>
            <AltitudeMeters>27.6000003814697265625</AltitudeMeters>
            <DistanceMeters>NAN</DistanceMeters>
          </Trackpoint>
          <Trackpoint>
            <Time>2022-07-04T13:01:24.000Z</Time>
            <Position>
              <LatitudeDegrees>44.66459336690604686737060546875</LatitudeDegrees>
              <LongitudeDegrees>-0.91038691811263561248779296875</LongitudeDegrees>
            </Position>
            <AltitudeMeters>27.6000003814697265625</AltitudeMeters>
            <DistanceMeters>NAN</DistanceMeters>
          </Trackpoint>
          <Trackpoint>
            <Time>2022-07-04T13:01:34.000Z</Time>
            <Position>
              <LatitudeDegrees>44.6643202006816864013671875</LatitudeDegrees>
              <LongitudeDegrees>-0.9109519422054290771484375</LongitudeDegrees>
            </Position>
            <AltitudeMeters>27.3999996185302734375</AltitudeMeters>
            <DistanceMeters>NAN</DistanceMeters>
          </Trackpoint>
          <Trackpoint>
            <Time>2022-07-04T13:01:36.000Z</Time>
            <Position>
              <LatitudeDegrees>44.6642650477588176727294921875</LatitudeDegrees>
              <LongitudeDegrees>-0.91106601990759372711181640625</LongitudeDegrees>
            </Position>
            <AltitudeMeters>27.3999996185302734375</AltitudeMeters>
            <DistanceMeters>NAN</DistanceMeters>
          </Trackpoint>
          <Trackpoint>
            <Time>2022-07-04T13:01:44.000Z</Time>
            <Position>
              <LatitudeDegrees>44.66405273415148258209228515625</LatitudeDegrees>
              <LongitudeDegrees>-0.91151830740272998809814453125</LongitudeDegrees>
            </Position>
            <AltitudeMeters>27.3999996185302734375</AltitudeMeters>
            <DistanceMeters>NAN</DistanceMeters>
          </Trackpoint>
          <Trackpoint>
            <Time>2022-07-04T13:01:47.000Z</Time>
            <Position>
              <LatitudeDegrees>44.66397142969071865081787109375</LatitudeDegrees>
              <LongitudeDegrees>-0.91167823411524295806884765625</LongitudeDegrees>
            </Position>
            <AltitudeMeters>27.3999996185302734375</AltitudeMeters>
            <DistanceMeters>NAN</DistanceMeters>
          </Trackpoint>
          <Trackpoint>
            <Time>2022-07-04T13:01:50.000Z</Time>
            <Position>
              <LatitudeDegrees>44.6638902090489864349365234375</LatitudeDegrees>
              <LongitudeDegrees>-0.9118479676544666290283203125</LongitudeDegrees>
            </Position>
            <AltitudeMeters>27.3999996185302734375</AltitudeMeters>
            <DistanceMeters>NAN</DistanceMeters>
          </Trackpoint>
          <Trackpoint>
            <Time>2022-07-04T13:01:58.000Z</Time>
            <Position>
              <LatitudeDegrees>44.6636709384620189666748046875</LatitudeDegrees>
              <LongitudeDegrees>-0.91229111887514591217041015625</LongitudeDegrees>
            </Position>
            <AltitudeMeters>26.799999237060546875</AltitudeMeters>
            <DistanceMeters>NAN</DistanceMeters>
          </Trackpoint>
          <Trackpoint>
            <Time>2022-07-04T13:02:00.000Z</Time>
            <Position>
              <LatitudeDegrees>44.6636082418262958526611328125</LatitudeDegrees>
              <LongitudeDegrees>-0.91239237226545810699462890625</LongitudeDegrees>
            </Position>
            <AltitudeMeters>26.799999237060546875</AltitudeMeters>
            <DistanceMeters>NAN</DistanceMeters>
          </Trackpoint>
          <Trackpoint>
            <Time>2022-07-04T13:02:04.000Z</Time>
            <Position>
              <LatitudeDegrees>44.6634940803050994873046875</LatitudeDegrees>
              <LongitudeDegrees>-0.912632010877132415771484375</LongitudeDegrees>
            </Position>
            <AltitudeMeters>26.799999237060546875</AltitudeMeters>
            <DistanceMeters>NAN</DistanceMeters>
          </Trackpoint>
          <Trackpoint>
            <Time>2022-07-04T13:02:07.000Z</Time>
            <Position>
              <LatitudeDegrees>44.66340414248406887054443359375</LatitudeDegrees>
              <LongitudeDegrees>-0.9128195978701114654541015625</LongitudeDegrees>
            </Position>
            <AltitudeMeters>26.6000003814697265625</AltitudeMeters>
            <DistanceMeters>NAN</DistanceMeters>
          </Trackpoint>
          <Trackpoint>
            <Time>2022-07-04T13:02:13.000Z</Time>
            <Position>
              <LatitudeDegrees>44.663226194679737091064453125</LatitudeDegrees>
              <LongitudeDegrees>-0.913182534277439117431640625</LongitudeDegrees>
            </Position>
            <AltitudeMeters>26.799999237060546875</AltitudeMeters>
            <DistanceMeters>NAN</DistanceMeters>
          </Trackpoint>
          <Trackpoint>
            <Time>2022-07-04T13:02:21.000Z</Time>
            <Position>
              <LatitudeDegrees>44.66297574341297149658203125</LatitudeDegrees>
              <LongitudeDegrees>-0.91364555060863494873046875</LongitudeDegrees>
            </Position>
            <AltitudeMeters>26.3999996185302734375</AltitudeMeters>
            <DistanceMeters>NAN</DistanceMeters>
          </Trackpoint>
          <Trackpoint>
            <Time>2022-07-04T13:02:24.000Z</Time>
            <Position>
              <LatitudeDegrees>44.6628853864967823028564453125</LatitudeDegrees>
              <LongitudeDegrees>-0.913829617202281951904296875</LongitudeDegrees>
            </Position>
            <AltitudeMeters>26.3999996185302734375</AltitudeMeters>
            <DistanceMeters>NAN</DistanceMeters>
          </Trackpoint>
          <Trackpoint>
            <Time>2022-07-04T13:02:26.000Z</Time>
            <Position>
              <LatitudeDegrees>44.6628247015178203582763671875</LatitudeDegrees>
              <LongitudeDegrees>-0.91395760886371135711669921875</LongitudeDegrees>
            </Position>
            <AltitudeMeters>26.6000003814697265625</AltitudeMeters>
            <DistanceMeters>NAN</DistanceMeters>
          </Trackpoint>
          <Trackpoint>
            <Time>2022-07-04T13:02:28.000Z</Time>
            <Position>
              <LatitudeDegrees>44.66276862658560276031494140625</LatitudeDegrees>
              <LongitudeDegrees>-0.9140874445438385009765625</LongitudeDegrees>
            </Position>
            <AltitudeMeters>26.6000003814697265625</AltitudeMeters>
            <DistanceMeters>NAN</DistanceMeters>
          </Trackpoint>
          <Trackpoint>
            <Time>2022-07-04T13:02:29.000Z</Time>
            <Position>
              <LatitudeDegrees>44.6627378650009632110595703125</LatitudeDegrees>
              <LongitudeDegrees>-0.9141392447054386138916015625</LongitudeDegrees>
            </Position>
            <AltitudeMeters>26.6000003814697265625</AltitudeMeters>
            <DistanceMeters>NAN</DistanceMeters>
          </Trackpoint>
          <Trackpoint>
            <Time>2022-07-04T13:02:32.000Z</Time>
            <Position>
              <LatitudeDegrees>44.66263887472450733184814453125</LatitudeDegrees>
              <LongitudeDegrees>-0.91430596075952053070068359375</LongitudeDegrees>
            </Position>
            <AltitudeMeters>26.6000003814697265625</AltitudeMeters>
            <DistanceMeters>NAN</DistanceMeters>
          </Trackpoint>
          <Trackpoint>
            <Time>2022-07-04T13:02:36.000Z</Time>
            <Position>
              <LatitudeDegrees>44.66249906457960605621337890625</LatitudeDegrees>
              <LongitudeDegrees>-0.9145140834152698516845703125</LongitudeDegrees>
            </Position>
            <AltitudeMeters>26.200000762939453125</AltitudeMeters>
            <DistanceMeters>NAN</DistanceMeters>
          </Trackpoint>
          <Trackpoint>
            <Time>2022-07-04T13:02:38.000Z</Time>
            <Position>
              <LatitudeDegrees>44.66243259608745574951171875</LatitudeDegrees>
              <LongitudeDegrees>-0.9146300889551639556884765625</LongitudeDegrees>
            </Position>
            <AltitudeMeters>26.200000762939453125</AltitudeMeters>
            <DistanceMeters>NAN</DistanceMeters>
          </Trackpoint>
          <Trackpoint>
            <Time>2022-07-04T13:02:42.000Z</Time>
            <Position>
              <LatitudeDegrees>44.662320278584957122802734375</LatitudeDegrees>
              <LongitudeDegrees>-0.91488397680222988128662109375</LongitudeDegrees>
            </Position>
            <AltitudeMeters>26.3999996185302734375</AltitudeMeters>
            <DistanceMeters>NAN</DistanceMeters>
          </Trackpoint>
          <Trackpoint>
            <Time>2022-07-04T13:02:45.000Z</Time>
            <Position>
              <LatitudeDegrees>44.6622269041836261749267578125</LatitudeDegrees>
              <LongitudeDegrees>-0.91506402008235454559326171875</LongitudeDegrees>
            </Position>
            <AltitudeMeters>26.3999996185302734375</AltitudeMeters>
            <DistanceMeters>NAN</DistanceMeters>
          </Trackpoint>
          <Trackpoint>
            <Time>2022-07-04T13:02:48.000Z</Time>
            <Position>
              <LatitudeDegrees>44.66214023530483245849609375</LatitudeDegrees>
              <LongitudeDegrees>-0.91522805392742156982421875</LongitudeDegrees>
            </Position>
            <AltitudeMeters>26.200000762939453125</AltitudeMeters>
            <DistanceMeters>NAN</DistanceMeters>
          </Trackpoint>
          <Trackpoint>
            <Time>2022-07-04T13:02:51.000Z</Time>
            <Position>
              <LatitudeDegrees>44.66205650009214878082275390625</LatitudeDegrees>
              <LongitudeDegrees>-0.91538353823125362396240234375</LongitudeDegrees>
            </Position>
            <AltitudeMeters>26.200000762939453125</AltitudeMeters>
            <DistanceMeters>NAN</DistanceMeters>
          </Trackpoint>
          <Trackpoint>
            <Time>2022-07-04T13:02:53.000Z</Time>
            <Position>
              <LatitudeDegrees>44.66199648566544055938720703125</LatitudeDegrees>
              <LongitudeDegrees>-0.915489904582500457763671875</LongitudeDegrees>
            </Position>
            <AltitudeMeters>26</AltitudeMeters>
            <DistanceMeters>NAN</DistanceMeters>
          </Trackpoint>
          <Trackpoint>
            <Time>2022-07-04T13:02:56.000Z</Time>
            <Position>
              <LatitudeDegrees>44.66191484592854976654052734375</LatitudeDegrees>
              <LongitudeDegrees>-0.9156513400375843048095703125</LongitudeDegrees>
            </Position>
            <AltitudeMeters>26</AltitudeMeters>
            <DistanceMeters>NAN</DistanceMeters>
          </Trackpoint>
          <Trackpoint>
            <Time>2022-07-04T13:03:01.000Z</Time>
            <Position>
              <LatitudeDegrees>44.6617786400020122528076171875</LatitudeDegrees>
              <LongitudeDegrees>-0.9159128554165363311767578125</LongitudeDegrees>
            </Position>
            <AltitudeMeters>25.799999237060546875</AltitudeMeters>
            <DistanceMeters>NAN</DistanceMeters>
          </Trackpoint>
          <Trackpoint>
            <Time>2022-07-04T13:03:05.000Z</Time>
            <Position>
              <LatitudeDegrees>44.66167110018432140350341796875</LatitudeDegrees>
              <LongitudeDegrees>-0.9161348082125186920166015625</LongitudeDegrees>
            </Position>
            <AltitudeMeters>25.799999237060546875</AltitudeMeters>
            <DistanceMeters>NAN</DistanceMeters>
          </Trackpoint>
          <Trackpoint>
            <Time>2022-07-04T13:03:08.000Z</Time>
            <Position>
              <LatitudeDegrees>44.66158241964876651763916015625</LatitudeDegrees>
              <LongitudeDegrees>-0.91629825532436370849609375</LongitudeDegrees>
            </Position>
            <AltitudeMeters>25.799999237060546875</AltitudeMeters>
            <DistanceMeters>NAN</DistanceMeters>
          </Trackpoint>
          <Trackpoint>
            <Time>2022-07-04T13:03:13.000Z</Time>
            <Position>
              <LatitudeDegrees>44.6614504046738147735595703125</LatitudeDegrees>
              <LongitudeDegrees>-0.91656890697777271270751953125</LongitudeDegrees>
            </Position>
            <AltitudeMeters>25.6000003814697265625</AltitudeMeters>
            <DistanceMeters>NAN</DistanceMeters>
          </Trackpoint>
          <Trackpoint>
            <Time>2022-07-04T13:03:17.000Z</Time>
            <Position>
              <LatitudeDegrees>44.66134353540837764739990234375</LatitudeDegrees>
              <LongitudeDegrees>-0.91678599826991558074951171875</LongitudeDegrees>
            </Position>
            <AltitudeMeters>25.6000003814697265625</AltitudeMeters>
            <DistanceMeters>NAN</DistanceMeters>
          </Trackpoint>
          <Trackpoint>
            <Time>2022-07-04T13:03:23.000Z</Time>
            <Position>
              <LatitudeDegrees>44.66116868890821933746337890625</LatitudeDegrees>
              <LongitudeDegrees>-0.91712144203484058380126953125</LongitudeDegrees>
            </Position>
            <AltitudeMeters>25.6000003814697265625</AltitudeMeters>
            <DistanceMeters>NAN</DistanceMeters>
          </Trackpoint>
          <Trackpoint>
            <Time>2022-07-04T13:03:24.000Z</Time>
            <Position>
              <LatitudeDegrees>44.66113918460905551910400390625</LatitudeDegrees>
              <LongitudeDegrees>-0.91717760078608989715576171875</LongitudeDegrees>
            </Position>
            <AltitudeMeters>25.3999996185302734375</AltitudeMeters>
            <DistanceMeters>NAN</DistanceMeters>
          </Trackpoint>
          <Trackpoint>
            <Time>2022-07-04T13:03:30.000Z</Time>
            <Position>
              <LatitudeDegrees>44.660961739718914031982421875</LatitudeDegrees>
              <LongitudeDegrees>-0.9174980409443378448486328125</LongitudeDegrees>
            </Position>
            <AltitudeMeters>25</AltitudeMeters>
            <DistanceMeters>NAN</DistanceMeters>
          </Trackpoint>
          <Trackpoint>
            <Time>2022-07-04T13:03:38.000Z</Time>
            <Position>
              <LatitudeDegrees>44.6607282198965549468994140625</LatitudeDegrees>
              <LongitudeDegrees>-0.9180214069783687591552734375</LongitudeDegrees>
            </Position>
            <AltitudeMeters>25.200000762939453125</AltitudeMeters>
            <DistanceMeters>NAN</DistanceMeters>
          </Trackpoint>
          <Trackpoint>
            <Time>2022-07-04T13:03:46.000Z</Time>
            <Position>
              <LatitudeDegrees>44.66048371978104114532470703125</LatitudeDegrees>
              <LongitudeDegrees>-0.91852926649153232574462890625</LongitudeDegrees>
            </Position>
            <AltitudeMeters>24.799999237060546875</AltitudeMeters>
            <DistanceMeters>NAN</DistanceMeters>
          </Trackpoint>
          <Trackpoint>
            <Time>2022-07-04T13:03:54.000Z</Time>
            <Position>
              <LatitudeDegrees>44.6602621860802173614501953125</LatitudeDegrees>
              <LongitudeDegrees>-0.9190171770751476287841796875</LongitudeDegrees>
            </Position>
            <AltitudeMeters>24.6000003814697265625</AltitudeMeters>
            <DistanceMeters>NAN</DistanceMeters>
          </Trackpoint>
          <Trackpoint>
            <Time>2022-07-04T13:03:59.000Z</Time>
            <Position>
              <LatitudeDegrees>44.6601233817636966705322265625</LatitudeDegrees>
              <LongitudeDegrees>-0.91931850649416446685791015625</LongitudeDegrees>
            </Position>
            <AltitudeMeters>24.3999996185302734375</AltitudeMeters>
            <DistanceMeters>NAN</DistanceMeters>
          </Trackpoint>
          <Trackpoint>
            <Time>2022-07-04T13:04:00.000Z</Time>
            <Position>
              <LatitudeDegrees>44.660094045102596282958984375</LatitudeDegrees>
              <LongitudeDegrees>-0.9193802811205387115478515625</LongitudeDegrees>
            </Position>
            <AltitudeMeters>24.3999996185302734375</AltitudeMeters>
            <DistanceMeters>NAN</DistanceMeters>
          </Trackpoint>
          <Trackpoint>
            <Time>2022-07-04T13:04:03.000Z</Time>
            <Position>
              <LatitudeDegrees>44.66000762768089771270751953125</LatitudeDegrees>
              <LongitudeDegrees>-0.91954641044139862060546875</LongitudeDegrees>
            </Position>
            <AltitudeMeters>24.3999996185302734375</AltitudeMeters>
            <DistanceMeters>NAN</DistanceMeters>
          </Trackpoint>
          <Trackpoint>
            <Time>2022-07-04T13:04:04.000Z</Time>
            <Position>
              <LatitudeDegrees>44.65997837483882904052734375</LatitudeDegrees>
              <LongitudeDegrees>-0.9195975400507450103759765625</LongitudeDegrees>
            </Position>
            <AltitudeMeters>24.6000003814697265625</AltitudeMeters>
            <DistanceMeters>NAN</DistanceMeters>
          </Trackpoint>
          <Trackpoint>
            <Time>2022-07-04T13:04:07.000Z</Time>
            <Position>
              <LatitudeDegrees>44.659905619919300079345703125</LatitudeDegrees>
              <LongitudeDegrees>-0.91975151561200618743896484375</LongitudeDegrees>
            </Position>
            <AltitudeMeters>24.6000003814697265625</AltitudeMeters>
            <DistanceMeters>NAN</DistanceMeters>
          </Trackpoint>
          <Trackpoint>
            <Time>2022-07-04T13:04:09.000Z</Time>
            <Position>
              <LatitudeDegrees>44.65986496768891811370849609375</LatitudeDegrees>
              <LongitudeDegrees>-0.919849835336208343505859375</LongitudeDegrees>
            </Position>
            <AltitudeMeters>24.3999996185302734375</AltitudeMeters>
            <DistanceMeters>NAN</DistanceMeters>
          </Trackpoint>
          <Trackpoint>
            <Time>2022-07-04T13:04:11.000Z</Time>
            <Position>
              <LatitudeDegrees>44.65981165878474712371826171875</LatitudeDegrees>
              <LongitudeDegrees>-0.919947735965251922607421875</LongitudeDegrees>
            </Position>
            <AltitudeMeters>24.200000762939453125</AltitudeMeters>
            <DistanceMeters>NAN</DistanceMeters>
          </Trackpoint>
          <Trackpoint>
            <Time>2022-07-04T13:04:18.000Z</Time>
            <Position>
              <LatitudeDegrees>44.65963278897106647491455078125</LatitudeDegrees>
              <LongitudeDegrees>-0.92029784806072711944580078125</LongitudeDegrees>
            </Position>
            <AltitudeMeters>24.3999996185302734375</AltitudeMeters>
            <DistanceMeters>NAN</DistanceMeters>
          </Trackpoint>
          <Trackpoint>
            <Time>2022-07-04T13:04:20.000Z</Time>
            <Position>
              <LatitudeDegrees>44.6595953218638896942138671875</LatitudeDegrees>
              <LongitudeDegrees>-0.9204008616507053375244140625</LongitudeDegrees>
            </Position>
            <AltitudeMeters>24.3999996185302734375</AltitudeMeters>
            <DistanceMeters>NAN</DistanceMeters>
          </Trackpoint>
          <Trackpoint>
            <Time>2022-07-04T13:04:21.000Z</Time>
            <Position>
              <LatitudeDegrees>44.65957243926823139190673828125</LatitudeDegrees>
              <LongitudeDegrees>-0.92045123688876628875732421875</LongitudeDegrees>
            </Position>
            <AltitudeMeters>24.3999996185302734375</AltitudeMeters>
            <DistanceMeters>NAN</DistanceMeters>
          </Trackpoint>
          <Trackpoint>
            <Time>2022-07-04T13:04:26.000Z</Time>
            <Position>
              <LatitudeDegrees>44.6594417653977870941162109375</LatitudeDegrees>
              <LongitudeDegrees>-0.92070101760327816009521484375</LongitudeDegrees>
            </Position>
            <AltitudeMeters>24.3999996185302734375</AltitudeMeters>
            <DistanceMeters>NAN</DistanceMeters>
          </Trackpoint>
          <Trackpoint>
            <Time>2022-07-04T13:04:27.000Z</Time>
            <Position>
              <LatitudeDegrees>44.65942047536373138427734375</LatitudeDegrees>
              <LongitudeDegrees>-0.92074669897556304931640625</LongitudeDegrees>
            </Position>
            <AltitudeMeters>24.3999996185302734375</AltitudeMeters>
            <DistanceMeters>NAN</DistanceMeters>
          </Trackpoint>
          <Trackpoint>
            <Time>2022-07-04T13:04:29.000Z</Time>
            <Position>
              <LatitudeDegrees>44.6594032086431980133056640625</LatitudeDegrees>
              <LongitudeDegrees>-0.92084635980427265167236328125</LongitudeDegrees>
            </Position>
            <AltitudeMeters>24.3999996185302734375</AltitudeMeters>
            <DistanceMeters>NAN</DistanceMeters>
          </Trackpoint>
          <Trackpoint>
            <Time>2022-07-04T13:04:30.000Z</Time>
            <Position>
              <LatitudeDegrees>44.6594112552702426910400390625</LatitudeDegrees>
              <LongitudeDegrees>-0.92090000398457050323486328125</LongitudeDegrees>
            </Position>
            <AltitudeMeters>24.200000762939453125</AltitudeMeters>
            <DistanceMeters>NAN</DistanceMeters>
          </Trackpoint>
          <Trackpoint>
            <Time>2022-07-04T13:04:35.000Z</Time>
            <Position>
              <LatitudeDegrees>44.65948216617107391357421875</LatitudeDegrees>
              <LongitudeDegrees>-0.92112958431243896484375</LongitudeDegrees>
            </Position>
            <AltitudeMeters>23.799999237060546875</AltitudeMeters>
            <DistanceMeters>NAN</DistanceMeters>
          </Trackpoint>
          <Trackpoint>
            <Time>2022-07-04T13:04:41.000Z</Time>
            <Position>
              <LatitudeDegrees>44.65957872569561004638671875</LatitudeDegrees>
              <LongitudeDegrees>-0.921443067491054534912109375</LongitudeDegrees>
            </Position>
            <AltitudeMeters>23.6000003814697265625</AltitudeMeters>
            <DistanceMeters>NAN</DistanceMeters>
          </Trackpoint>
          <Trackpoint>
            <Time>2022-07-04T13:04:48.000Z</Time>
            <Position>
              <LatitudeDegrees>44.65972968377172946929931640625</LatitudeDegrees>
              <LongitudeDegrees>-0.92187188565731048583984375</LongitudeDegrees>
            </Position>
            <AltitudeMeters>23.799999237060546875</AltitudeMeters>
            <DistanceMeters>NAN</DistanceMeters>
          </Trackpoint>
          <Trackpoint>
            <Time>2022-07-04T13:04:56.000Z</Time>
            <Position>
              <LatitudeDegrees>44.65985641814768314361572265625</LatitudeDegrees>
              <LongitudeDegrees>-0.9223525039851665496826171875</LongitudeDegrees>
            </Position>
            <AltitudeMeters>23.6000003814697265625</AltitudeMeters>
            <DistanceMeters>NAN</DistanceMeters>
          </Trackpoint>
          <Trackpoint>
            <Time>2022-07-04T13:05:03.000Z</Time>
            <Position>
              <LatitudeDegrees>44.65995817445218563079833984375</LatitudeDegrees>
              <LongitudeDegrees>-0.92272482812404632568359375</LongitudeDegrees>
            </Position>
            <AltitudeMeters>23.799999237060546875</AltitudeMeters>
            <DistanceMeters>NAN</DistanceMeters>
          </Trackpoint>
          <Trackpoint>
            <Time>2022-07-04T13:05:11.000Z</Time>
            <Position>
              <LatitudeDegrees>44.66008490882813930511474609375</LatitudeDegrees>
              <LongitudeDegrees>-0.923196561634540557861328125</LongitudeDegrees>
            </Position>
            <AltitudeMeters>23.6000003814697265625</AltitudeMeters>
            <DistanceMeters>NAN</DistanceMeters>
          </Trackpoint>
          <Trackpoint>
            <Time>2022-07-04T13:05:21.000Z</Time>
            <Position>
              <LatitudeDegrees>44.66025061905384063720703125</LatitudeDegrees>
              <LongitudeDegrees>-0.9237579815089702606201171875</LongitudeDegrees>
            </Position>
            <AltitudeMeters>23.6000003814697265625</AltitudeMeters>
            <DistanceMeters>NAN</DistanceMeters>
          </Trackpoint>
          <Trackpoint>
            <Time>2022-07-04T13:05:30.000Z</Time>
            <Position>
              <LatitudeDegrees>44.66039705090224742889404296875</LatitudeDegrees>
              <LongitudeDegrees>-0.92430339194834232330322265625</LongitudeDegrees>
            </Position>
            <AltitudeMeters>23.799999237060546875</AltitudeMeters>
            <DistanceMeters>NAN</DistanceMeters>
          </Trackpoint>
          <Trackpoint>
            <Time>2022-07-04T13:05:31.000Z</Time>
            <Position>
              <LatitudeDegrees>44.66041557490825653076171875</LatitudeDegrees>
              <LongitudeDegrees>-0.92435359954833984375</LongitudeDegrees>
            </Position>
            <AltitudeMeters>23.799999237060546875</AltitudeMeters>
            <DistanceMeters>NAN</DistanceMeters>
          </Trackpoint>
          <Trackpoint>
            <Time>2022-07-04T13:05:35.000Z</Time>
            <Position>
              <LatitudeDegrees>44.66048958711326122283935546875</LatitudeDegrees>
              <LongitudeDegrees>-0.92458988539874553680419921875</LongitudeDegrees>
            </Position>
            <AltitudeMeters>23.6000003814697265625</AltitudeMeters>
            <DistanceMeters>NAN</DistanceMeters>
          </Trackpoint>
          <Trackpoint>
            <Time>2022-07-04T13:05:36.000Z</Time>
            <Position>
              <LatitudeDegrees>44.660510458052158355712890625</LatitudeDegrees>
              <LongitudeDegrees>-0.924646295607089996337890625</LongitudeDegrees>
            </Position>
            <AltitudeMeters>23.6000003814697265625</AltitudeMeters>
            <DistanceMeters>NAN</DistanceMeters>
          </Trackpoint>
          <Trackpoint>
            <Time>2022-07-04T13:05:44.000Z</Time>
            <Position>
              <LatitudeDegrees>44.660614393651485443115234375</LatitudeDegrees>
              <LongitudeDegrees>-0.92498861253261566162109375</LongitudeDegrees>
            </Position>
            <AltitudeMeters>23.200000762939453125</AltitudeMeters>
            <DistanceMeters>NAN</DistanceMeters>
          </Trackpoint>
          <Trackpoint>
            <Time>2022-07-04T13:05:46.000Z</Time>
            <Position>
              <LatitudeDegrees>44.660614393651485443115234375</LatitudeDegrees>
              <LongitudeDegrees>-0.92498861253261566162109375</LongitudeDegrees>
            </Position>
            <AltitudeMeters>22.799999237060546875</AltitudeMeters>
            <DistanceMeters>NAN</DistanceMeters>
          </Trackpoint>
          <Trackpoint>
            <Time>2022-07-04T13:06:29.000Z</Time>
            <Position>
              <LatitudeDegrees>44.66063325293362140655517578125</LatitudeDegrees>
              <LongitudeDegrees>-0.9250578470528125762939453125</LongitudeDegrees>
            </Position>
            <AltitudeMeters>23</AltitudeMeters>
            <DistanceMeters>NAN</DistanceMeters>
          </Trackpoint>
          <Trackpoint>
            <Time>2022-07-04T13:06:30.000Z</Time>
            <Position>
              <LatitudeDegrees>44.66064247302711009979248046875</LatitudeDegrees>
              <LongitudeDegrees>-0.92508927918970584869384765625</LongitudeDegrees>
            </Position>
            <AltitudeMeters>23</AltitudeMeters>
            <DistanceMeters>NAN</DistanceMeters>
          </Trackpoint>
          <Trackpoint>
            <Time>2022-07-04T13:06:36.000Z</Time>
            <Position>
              <LatitudeDegrees>44.660737775266170501708984375</LatitudeDegrees>
              <LongitudeDegrees>-0.925408042967319488525390625</LongitudeDegrees>
            </Position>
            <AltitudeMeters>23.3999996185302734375</AltitudeMeters>
            <DistanceMeters>NAN</DistanceMeters>
          </Trackpoint>
          <Trackpoint>
            <Time>2022-07-04T13:06:44.000Z</Time>
            <Position>
              <LatitudeDegrees>44.66084741055965423583984375</LatitudeDegrees>
              <LongitudeDegrees>-0.92583476565778255462646484375</LongitudeDegrees>
            </Position>
            <AltitudeMeters>23.200000762939453125</AltitudeMeters>
            <DistanceMeters>NAN</DistanceMeters>
          </Trackpoint>
          <Trackpoint>
            <Time>2022-07-04T13:06:51.000Z</Time>
            <Position>
              <LatitudeDegrees>44.66092117130756378173828125</LatitudeDegrees>
              <LongitudeDegrees>-0.9261749871075153350830078125</LongitudeDegrees>
            </Position>
            <AltitudeMeters>22.799999237060546875</AltitudeMeters>
            <DistanceMeters>NAN</DistanceMeters>
          </Trackpoint>
          <Trackpoint>
            <Time>2022-07-04T13:06:53.000Z</Time>
            <Position>
              <LatitudeDegrees>44.66094237752258777618408203125</LatitudeDegrees>
              <LongitudeDegrees>-0.926281102001667022705078125</LongitudeDegrees>
            </Position>
            <AltitudeMeters>23</AltitudeMeters>
            <DistanceMeters>NAN</DistanceMeters>
          </Trackpoint>
          <Trackpoint>
            <Time>2022-07-04T13:06:59.000Z</Time>
            <Position>
              <LatitudeDegrees>44.66104731895029544830322265625</LatitudeDegrees>
              <LongitudeDegrees>-0.9266054816544055938720703125</LongitudeDegrees>
            </Position>
            <AltitudeMeters>22.799999237060546875</AltitudeMeters>
            <DistanceMeters>NAN</DistanceMeters>
          </Trackpoint>
          <Trackpoint>
            <Time>2022-07-04T13:07:01.000Z</Time>
            <Position>
              <LatitudeDegrees>44.661079756915569305419921875</LatitudeDegrees>
              <LongitudeDegrees>-0.926712267100811004638671875</LongitudeDegrees>
            </Position>
            <AltitudeMeters>22.799999237060546875</AltitudeMeters>
            <DistanceMeters>NAN</DistanceMeters>
          </Trackpoint>
          <Trackpoint>
            <Time>2022-07-04T13:07:03.000Z</Time>
            <Position>
              <LatitudeDegrees>44.66111705638468265533447265625</LatitudeDegrees>
              <LongitudeDegrees>-0.9268425218760967254638671875</LongitudeDegrees>
            </Position>
            <AltitudeMeters>22.799999237060546875</AltitudeMeters>
            <DistanceMeters>NAN</DistanceMeters>
          </Trackpoint>
          <Trackpoint>
            <Time>2022-07-04T13:07:11.000Z</Time>
            <Position>
              <LatitudeDegrees>44.6612571179866790771484375</LatitudeDegrees>
              <LongitudeDegrees>-0.9273055382072925567626953125</LongitudeDegrees>
            </Position>
            <AltitudeMeters>22.799999237060546875</AltitudeMeters>
            <DistanceMeters>NAN</DistanceMeters>
          </Trackpoint>
          <Trackpoint>
            <Time>2022-07-04T13:07:12.000Z</Time>
            <Position>
              <LatitudeDegrees>44.66127698309719562530517578125</LatitudeDegrees>
              <LongitudeDegrees>-0.92737636528909206390380859375</LongitudeDegrees>
            </Position>
            <AltitudeMeters>22.799999237060546875</AltitudeMeters>
            <DistanceMeters>NAN</DistanceMeters>
          </Trackpoint>
          <Trackpoint>
            <Time>2022-07-04T13:07:17.000Z</Time>
            <Position>
              <LatitudeDegrees>44.66136298142373561859130859375</LatitudeDegrees>
              <LongitudeDegrees>-0.92765338718891143798828125</LongitudeDegrees>
            </Position>
            <AltitudeMeters>22.799999237060546875</AltitudeMeters>
            <DistanceMeters>NAN</DistanceMeters>
          </Trackpoint>
          <Trackpoint>
            <Time>2022-07-04T13:07:23.000Z</Time>
            <Position>
              <LatitudeDegrees>44.6614701859652996063232421875</LatitudeDegrees>
              <LongitudeDegrees>-0.92800450511276721954345703125</LongitudeDegrees>
            </Position>
            <AltitudeMeters>22.6000003814697265625</AltitudeMeters>
            <DistanceMeters>NAN</DistanceMeters>
          </Trackpoint>
          <Trackpoint>
            <Time>2022-07-04T13:07:27.000Z</Time>
            <Position>
              <LatitudeDegrees>44.6615198068320751190185546875</LatitudeDegrees>
              <LongitudeDegrees>-0.928213298320770263671875</LongitudeDegrees>
            </Position>
            <AltitudeMeters>22.6000003814697265625</AltitudeMeters>
            <DistanceMeters>NAN</DistanceMeters>
          </Trackpoint>
          <Trackpoint>
            <Time>2022-07-04T13:07:31.000Z</Time>
            <Position>
              <LatitudeDegrees>44.6615426056087017059326171875</LatitudeDegrees>
              <LongitudeDegrees>-0.92835051007568836212158203125</LongitudeDegrees>
            </Position>
            <AltitudeMeters>22.200000762939453125</AltitudeMeters>
            <DistanceMeters>NAN</DistanceMeters>
          </Trackpoint>
          <Trackpoint>
            <Time>2022-07-04T13:07:32.000Z</Time>
            <Position>
              <LatitudeDegrees>44.6615426056087017059326171875</LatitudeDegrees>
              <LongitudeDegrees>-0.92835051007568836212158203125</LongitudeDegrees>
            </Position>
            <AltitudeMeters>22</AltitudeMeters>
            <DistanceMeters>NAN</DistanceMeters>
          </Trackpoint>
          <Trackpoint>
            <Time>2022-07-04T13:07:33.000Z</Time>
            <Position>
              <LatitudeDegrees>44.6615426056087017059326171875</LatitudeDegrees>
              <LongitudeDegrees>-0.92835051007568836212158203125</LongitudeDegrees>
            </Position>
            <AltitudeMeters>21.799999237060546875</AltitudeMeters>
            <DistanceMeters>NAN</DistanceMeters>
          </Trackpoint>
          <Trackpoint>
            <Time>2022-07-04T13:07:44.000Z</Time>
            <Position>
              <LatitudeDegrees>44.6615221537649631500244140625</LatitudeDegrees>
              <LongitudeDegrees>-0.928286723792552947998046875</LongitudeDegrees>
            </Position>
            <AltitudeMeters>21.3999996185302734375</AltitudeMeters>
            <DistanceMeters>NAN</DistanceMeters>
          </Trackpoint>
          <Trackpoint>
            <Time>2022-07-04T13:07:46.000Z</Time>
            <Position>
              <LatitudeDegrees>44.6615164540708065032958984375</LatitudeDegrees>
              <LongitudeDegrees>-0.9282268770039081573486328125</LongitudeDegrees>
            </Position>
            <AltitudeMeters>21.3999996185302734375</AltitudeMeters>
            <DistanceMeters>NAN</DistanceMeters>
          </Trackpoint>
          <Trackpoint>
            <Time>2022-07-04T13:07:52.000Z</Time>
            <Position>
              <LatitudeDegrees>44.66146892867982387542724609375</LatitudeDegrees>
              <LongitudeDegrees>-0.9279995597898960113525390625</LongitudeDegrees>
            </Position>
            <AltitudeMeters>21.200000762939453125</AltitudeMeters>
            <DistanceMeters>NAN</DistanceMeters>
          </Trackpoint>
          <Trackpoint>
            <Time>2022-07-04T13:07:54.000Z</Time>
            <Position>
              <LatitudeDegrees>44.66144780628383159637451171875</LatitudeDegrees>
              <LongitudeDegrees>-0.92791632749140262603759765625</LongitudeDegrees>
            </Position>
            <AltitudeMeters>21.200000762939453125</AltitudeMeters>
            <DistanceMeters>NAN</DistanceMeters>
          </Trackpoint>
          <Trackpoint>
            <Time>2022-07-04T13:07:59.000Z</Time>
            <Position>
              <LatitudeDegrees>44.66138695366680622100830078125</LatitudeDegrees>
              <LongitudeDegrees>-0.92767945490777492523193359375</LongitudeDegrees>
            </Position>
            <AltitudeMeters>21.799999237060546875</AltitudeMeters>
            <DistanceMeters>NAN</DistanceMeters>
          </Trackpoint>
          <Trackpoint>
            <Time>2022-07-04T13:08:05.000Z</Time>
            <Position>
              <LatitudeDegrees>44.66129894368350505828857421875</LatitudeDegrees>
              <LongitudeDegrees>-0.92736764810979366302490234375</LongitudeDegrees>
            </Position>
            <AltitudeMeters>21.799999237060546875</AltitudeMeters>
            <DistanceMeters>NAN</DistanceMeters>
          </Trackpoint>
          <Trackpoint>
            <Time>2022-07-04T13:08:13.000Z</Time>
            <Position>
              <LatitudeDegrees>44.66115712188184261322021484375</LatitudeDegrees>
              <LongitudeDegrees>-0.92694084160029888153076171875</LongitudeDegrees>
            </Position>
            <AltitudeMeters>21.6000003814697265625</AltitudeMeters>
            <DistanceMeters>NAN</DistanceMeters>
          </Trackpoint>
          <Trackpoint>
            <Time>2022-07-04T13:08:20.000Z</Time>
            <Position>
              <LatitudeDegrees>44.66105519793927669525146484375</LatitudeDegrees>
              <LongitudeDegrees>-0.9265763126313686370849609375</LongitudeDegrees>
            </Position>
            <AltitudeMeters>21.6000003814697265625</AltitudeMeters>
            <DistanceMeters>NAN</DistanceMeters>
          </Trackpoint>
          <Trackpoint>
            <Time>2022-07-04T13:08:27.000Z</Time>
            <Position>
              <LatitudeDegrees>44.66096769087016582489013671875</LatitudeDegrees>
              <LongitudeDegrees>-0.92623718082904815673828125</LongitudeDegrees>
            </Position>
            <AltitudeMeters>21.6000003814697265625</AltitudeMeters>
            <DistanceMeters>NAN</DistanceMeters>
          </Trackpoint>
          <Trackpoint>
            <Time>2022-07-04T13:08:36.000Z</Time>
            <Position>
              <LatitudeDegrees>44.6608190797269344329833984375</LatitudeDegrees>
              <LongitudeDegrees>-0.925770141184329986572265625</LongitudeDegrees>
            </Position>
            <AltitudeMeters>21.799999237060546875</AltitudeMeters>
            <DistanceMeters>NAN</DistanceMeters>
          </Trackpoint>
          <Trackpoint>
            <Time>2022-07-04T13:08:38.000Z</Time>
            <Position>
              <LatitudeDegrees>44.6607811935245990753173828125</LatitudeDegrees>
              <LongitudeDegrees>-0.92566394247114658355712890625</LongitudeDegrees>
            </Position>
            <AltitudeMeters>21.6000003814697265625</AltitudeMeters>
            <DistanceMeters>NAN</DistanceMeters>
          </Trackpoint>
          <Trackpoint>
            <Time>2022-07-04T13:08:41.000Z</Time>
            <Position>
              <LatitudeDegrees>44.6607412956655025482177734375</LatitudeDegrees>
              <LongitudeDegrees>-0.92549194581806659698486328125</LongitudeDegrees>
            </Position>
            <AltitudeMeters>21.6000003814697265625</AltitudeMeters>
            <DistanceMeters>NAN</DistanceMeters>
          </Trackpoint>
          <Trackpoint>
            <Time>2022-07-04T13:08:43.000Z</Time>
            <Position>
              <LatitudeDegrees>44.66071137227118015289306640625</LatitudeDegrees>
              <LongitudeDegrees>-0.92537979595363140106201171875</LongitudeDegrees>
            </Position>
            <AltitudeMeters>21.799999237060546875</AltitudeMeters>
            <DistanceMeters>NAN</DistanceMeters>
          </Trackpoint>
          <Trackpoint>
            <Time>2022-07-04T13:08:48.000Z</Time>
            <Position>
              <LatitudeDegrees>44.6606375277042388916015625</LatitudeDegrees>
              <LongitudeDegrees>-0.9251249022781848907470703125</LongitudeDegrees>
            </Position>
            <AltitudeMeters>21.799999237060546875</AltitudeMeters>
            <DistanceMeters>NAN</DistanceMeters>
          </Trackpoint>
          <Trackpoint>
            <Time>2022-07-04T13:08:50.000Z</Time>
            <Position>
              <LatitudeDegrees>44.6606091968715190887451171875</LatitudeDegrees>
              <LongitudeDegrees>-0.9250306896865367889404296875</LongitudeDegrees>
            </Position>
            <AltitudeMeters>21.799999237060546875</AltitudeMeters>
            <DistanceMeters>NAN</DistanceMeters>
          </Trackpoint>
          <Trackpoint>
            <Time>2022-07-04T13:08:58.000Z</Time>
            <Position>
              <LatitudeDegrees>44.6604891680181026458740234375</LatitudeDegrees>
              <LongitudeDegrees>-0.92460639774799346923828125</LongitudeDegrees>
            </Position>
            <AltitudeMeters>22.200000762939453125</AltitudeMeters>
            <DistanceMeters>NAN</DistanceMeters>
          </Trackpoint>
          <Trackpoint>
            <Time>2022-07-04T13:09:00.000Z</Time>
            <Position>
              <LatitudeDegrees>44.66045924462378025054931640625</LatitudeDegrees>
              <LongitudeDegrees>-0.92449567280709743499755859375</LongitudeDegrees>
            </Position>
            <AltitudeMeters>22.3999996185302734375</AltitudeMeters>
            <DistanceMeters>NAN</DistanceMeters>
          </Trackpoint>
          <Trackpoint>
            <Time>2022-07-04T13:09:04.000Z</Time>
            <Position>
              <LatitudeDegrees>44.66039671562612056732177734375</LatitudeDegrees>
              <LongitudeDegrees>-0.92429132200777530670166015625</LongitudeDegrees>
            </Position>
            <AltitudeMeters>22.200000762939453125</AltitudeMeters>
            <DistanceMeters>NAN</DistanceMeters>
          </Trackpoint>
          <Trackpoint>
            <Time>2022-07-04T13:09:08.000Z</Time>
            <Position>
              <LatitudeDegrees>44.660338461399078369140625</LatitudeDegrees>
              <LongitudeDegrees>-0.92407205142080783843994140625</LongitudeDegrees>
            </Position>
            <AltitudeMeters>22.200000762939453125</AltitudeMeters>
            <DistanceMeters>NAN</DistanceMeters>
          </Trackpoint>
          <Trackpoint>
            <Time>2022-07-04T13:09:14.000Z</Time>
            <Position>
              <LatitudeDegrees>44.66024835593998432159423828125</LatitudeDegrees>
              <LongitudeDegrees>-0.92374130152165889739990234375</LongitudeDegrees>
            </Position>
            <AltitudeMeters>22</AltitudeMeters>
            <DistanceMeters>NAN</DistanceMeters>
          </Trackpoint>
          <Trackpoint>
            <Time>2022-07-04T13:09:16.000Z</Time>
            <Position>
              <LatitudeDegrees>44.66022354550659656524658203125</LatitudeDegrees>
              <LongitudeDegrees>-0.92363283969461917877197265625</LongitudeDegrees>
            </Position>
            <AltitudeMeters>22</AltitudeMeters>
            <DistanceMeters>NAN</DistanceMeters>
          </Trackpoint>
          <Trackpoint>
            <Time>2022-07-04T13:09:17.000Z</Time>
            <Position>
              <LatitudeDegrees>44.660204350948333740234375</LatitudeDegrees>
              <LongitudeDegrees>-0.9235826320946216583251953125</LongitudeDegrees>
            </Position>
            <AltitudeMeters>22.200000762939453125</AltitudeMeters>
            <DistanceMeters>NAN</DistanceMeters>
          </Trackpoint>
          <Trackpoint>
            <Time>2022-07-04T13:09:20.000Z</Time>
            <Position>
              <LatitudeDegrees>44.66016478836536407470703125</LatitudeDegrees>
              <LongitudeDegrees>-0.92341859824955463409423828125</LongitudeDegrees>
            </Position>
            <AltitudeMeters>22.200000762939453125</AltitudeMeters>
            <DistanceMeters>NAN</DistanceMeters>
          </Trackpoint>
          <Trackpoint>
            <Time>2022-07-04T13:09:22.000Z</Time>
            <Position>
              <LatitudeDegrees>44.66014056466519832611083984375</LatitudeDegrees>
              <LongitudeDegrees>-0.92330611310899257659912109375</LongitudeDegrees>
            </Position>
            <AltitudeMeters>22.200000762939453125</AltitudeMeters>
            <DistanceMeters>NAN</DistanceMeters>
          </Trackpoint>
          <Trackpoint>
            <Time>2022-07-04T13:09:23.000Z</Time>
            <Position>
              <LatitudeDegrees>44.66013050638139247894287109375</LatitudeDegrees>
              <LongitudeDegrees>-0.9232498705387115478515625</LongitudeDegrees>
            </Position>
            <AltitudeMeters>22.200000762939453125</AltitudeMeters>
            <DistanceMeters>NAN</DistanceMeters>
          </Trackpoint>
          <Trackpoint>
            <Time>2022-07-04T13:09:25.000Z</Time>
            <Position>
              <LatitudeDegrees>44.66010988689959049224853515625</LatitudeDegrees>
              <LongitudeDegrees>-0.92313411645591259002685546875</LongitudeDegrees>
            </Position>
            <AltitudeMeters>22.200000762939453125</AltitudeMeters>
            <DistanceMeters>NAN</DistanceMeters>
          </Trackpoint>
          <Trackpoint>
            <Time>2022-07-04T13:09:31.000Z</Time>
            <Position>
              <LatitudeDegrees>44.6600077114999294281005859375</LatitudeDegrees>
              <LongitudeDegrees>-0.9228088147938251495361328125</LongitudeDegrees>
            </Position>
            <AltitudeMeters>22.200000762939453125</AltitudeMeters>
            <DistanceMeters>NAN</DistanceMeters>
          </Trackpoint>
          <Trackpoint>
            <Time>2022-07-04T13:09:32.000Z</Time>
            <Position>
              <LatitudeDegrees>44.6599919535219669342041015625</LatitudeDegrees>
              <LongitudeDegrees>-0.92275206930935382843017578125</LongitudeDegrees>
            </Position>
            <AltitudeMeters>22.200000762939453125</AltitudeMeters>
            <DistanceMeters>NAN</DistanceMeters>
          </Trackpoint>
          <Trackpoint>
            <Time>2022-07-04T13:09:36.000Z</Time>
            <Position>
              <LatitudeDegrees>44.6599332801997661590576171875</LatitudeDegrees>
              <LongitudeDegrees>-0.9225328825414180755615234375</LongitudeDegrees>
            </Position>
            <AltitudeMeters>22.200000762939453125</AltitudeMeters>
            <DistanceMeters>NAN</DistanceMeters>
          </Trackpoint>
          <Trackpoint>
            <Time>2022-07-04T13:09:38.000Z</Time>
            <Position>
              <LatitudeDegrees>44.65990302152931690216064453125</LatitudeDegrees>
              <LongitudeDegrees>-0.92242819257080554962158203125</LongitudeDegrees>
            </Position>
            <AltitudeMeters>22.200000762939453125</AltitudeMeters>
            <DistanceMeters>NAN</DistanceMeters>
          </Trackpoint>
          <Trackpoint>
            <Time>2022-07-04T13:09:47.000Z</Time>
            <Position>
              <LatitudeDegrees>44.6597696654498577117919921875</LatitudeDegrees>
              <LongitudeDegrees>-0.92197783291339874267578125</LongitudeDegrees>
            </Position>
            <AltitudeMeters>22.3999996185302734375</AltitudeMeters>
            <DistanceMeters>NAN</DistanceMeters>
          </Trackpoint>
          <Trackpoint>
            <Time>2022-07-04T13:09:56.000Z</Time>
            <Position>
              <LatitudeDegrees>44.659633375704288482666015625</LatitudeDegrees>
              <LongitudeDegrees>-0.9215319156646728515625</LongitudeDegrees>
            </Position>
            <AltitudeMeters>22.6000003814697265625</AltitudeMeters>
            <DistanceMeters>NAN</DistanceMeters>
          </Trackpoint>
          <Trackpoint>
            <Time>2022-07-04T13:09:57.000Z</Time>
            <Position>
              <LatitudeDegrees>44.6596177853643894195556640625</LatitudeDegrees>
              <LongitudeDegrees>-0.9214811213314533233642578125</LongitudeDegrees>
            </Position>
            <AltitudeMeters>22.6000003814697265625</AltitudeMeters>
            <DistanceMeters>NAN</DistanceMeters>
          </Trackpoint>
          <Trackpoint>
            <Time>2022-07-04T13:10:04.000Z</Time>
            <Position>
              <LatitudeDegrees>44.6595217287540435791015625</LatitudeDegrees>
              <LongitudeDegrees>-0.92116638086736202239990234375</LongitudeDegrees>
            </Position>
            <AltitudeMeters>22.3999996185302734375</AltitudeMeters>
            <DistanceMeters>NAN</DistanceMeters>
          </Trackpoint>
          <Trackpoint>
            <Time>2022-07-04T13:10:10.000Z</Time>
            <Position>
              <LatitudeDegrees>44.6594478003680706024169921875</LatitudeDegrees>
              <LongitudeDegrees>-0.92095582745969295501708984375</LongitudeDegrees>
            </Position>
            <AltitudeMeters>22</AltitudeMeters>
            <DistanceMeters>NAN</DistanceMeters>
          </Trackpoint>
          <Trackpoint>
            <Time>2022-07-04T13:10:16.000Z</Time>
            <Position>
              <LatitudeDegrees>44.659410752356052398681640625</LatitudeDegrees>
              <LongitudeDegrees>-0.92078424990177154541015625</LongitudeDegrees>
            </Position>
            <AltitudeMeters>22.200000762939453125</AltitudeMeters>
            <DistanceMeters>NAN</DistanceMeters>
          </Trackpoint>
          <Trackpoint>
            <Time>2022-07-04T13:10:22.000Z</Time>
            <Position>
              <LatitudeDegrees>44.659460373222827911376953125</LatitudeDegrees>
              <LongitudeDegrees>-0.9205118380486965179443359375</LongitudeDegrees>
            </Position>
            <AltitudeMeters>21.799999237060546875</AltitudeMeters>
            <DistanceMeters>NAN</DistanceMeters>
          </Trackpoint>
          <Trackpoint>
            <Time>2022-07-04T13:10:28.000Z</Time>
            <Position>
              <LatitudeDegrees>44.6595892868936061859130859375</LatitudeDegrees>
              <LongitudeDegrees>-0.9202436171472072601318359375</LongitudeDegrees>
            </Position>
            <AltitudeMeters>22.6000003814697265625</AltitudeMeters>
            <DistanceMeters>NAN</DistanceMeters>
          </Trackpoint>
          <Trackpoint>
            <Time>2022-07-04T13:10:31.000Z</Time>
            <Position>
              <LatitudeDegrees>44.65966522693634033203125</LatitudeDegrees>
              <LongitudeDegrees>-0.920090563595294952392578125</LongitudeDegrees>
            </Position>
            <AltitudeMeters>22.799999237060546875</AltitudeMeters>
            <DistanceMeters>NAN</DistanceMeters>
          </Trackpoint>
          <Trackpoint>
            <Time>2022-07-04T13:10:33.000Z</Time>
            <Position>
              <LatitudeDegrees>44.6597207151353359222412109375</LatitudeDegrees>
              <LongitudeDegrees>-0.91998151503503322601318359375</LongitudeDegrees>
            </Position>
            <AltitudeMeters>22.799999237060546875</AltitudeMeters>
            <DistanceMeters>NAN</DistanceMeters>
          </Trackpoint>
          <Trackpoint>
            <Time>2022-07-04T13:10:35.000Z</Time>
            <Position>
              <LatitudeDegrees>44.65978131629526615142822265625</LatitudeDegrees>
              <LongitudeDegrees>-0.91987338848412036895751953125</LongitudeDegrees>
            </Position>
            <AltitudeMeters>23</AltitudeMeters>
            <DistanceMeters>NAN</DistanceMeters>
          </Trackpoint>
          <Trackpoint>
            <Time>2022-07-04T13:10:36.000Z</Time>
            <Position>
              <LatitudeDegrees>44.65980805456638336181640625</LatitudeDegrees>
              <LongitudeDegrees>-0.919818989932537078857421875</LongitudeDegrees>
            </Position>
            <AltitudeMeters>23</AltitudeMeters>
            <DistanceMeters>NAN</DistanceMeters>
          </Trackpoint>
          <Trackpoint>
            <Time>2022-07-04T13:10:38.000Z</Time>
            <Position>
              <LatitudeDegrees>44.6598531492054462432861328125</LatitudeDegrees>
              <LongitudeDegrees>-0.91971262358129024505615234375</LongitudeDegrees>
            </Position>
            <AltitudeMeters>23.200000762939453125</AltitudeMeters>
            <DistanceMeters>NAN</DistanceMeters>
          </Trackpoint>
          <Trackpoint>
            <Time>2022-07-04T13:10:39.000Z</Time>
            <Position>
              <LatitudeDegrees>44.6598766185343265533447265625</LatitudeDegrees>
              <LongitudeDegrees>-0.91965964995324611663818359375</LongitudeDegrees>
            </Position>
            <AltitudeMeters>23.200000762939453125</AltitudeMeters>
            <DistanceMeters>NAN</DistanceMeters>
          </Trackpoint>
          <Trackpoint>
            <Time>2022-07-04T13:10:40.000Z</Time>
            <Position>
              <LatitudeDegrees>44.65990302152931690216064453125</LatitudeDegrees>
              <LongitudeDegrees>-0.91960801742970943450927734375</LongitudeDegrees>
            </Position>
            <AltitudeMeters>23.3999996185302734375</AltitudeMeters>
            <DistanceMeters>NAN</DistanceMeters>
          </Trackpoint>
          <Trackpoint>
            <Time>2022-07-04T13:10:41.000Z</Time>
            <Position>
              <LatitudeDegrees>44.6599321067333221435546875</LatitudeDegrees>
              <LongitudeDegrees>-0.91955638490617275238037109375</LongitudeDegrees>
            </Position>
            <AltitudeMeters>23.3999996185302734375</AltitudeMeters>
            <DistanceMeters>NAN</DistanceMeters>
          </Trackpoint>
          <Trackpoint>
            <Time>2022-07-04T13:10:44.000Z</Time>
            <Position>
              <LatitudeDegrees>44.6600080467760562896728515625</LatitudeDegrees>
              <LongitudeDegrees>-0.91941439546644687652587890625</LongitudeDegrees>
            </Position>
            <AltitudeMeters>23.3999996185302734375</AltitudeMeters>
            <DistanceMeters>NAN</DistanceMeters>
          </Trackpoint>
          <Trackpoint>
            <Time>2022-07-04T13:10:46.000Z</Time>
            <Position>
              <LatitudeDegrees>44.66006294824182987213134765625</LatitudeDegrees>
              <LongitudeDegrees>-0.91931230388581752777099609375</LongitudeDegrees>
            </Position>
            <AltitudeMeters>23.3999996185302734375</AltitudeMeters>
            <DistanceMeters>NAN</DistanceMeters>
          </Trackpoint>
          <Trackpoint>
            <Time>2022-07-04T13:10:50.000Z</Time>
            <Position>
              <LatitudeDegrees>44.66017342172563076019287109375</LatitudeDegrees>
              <LongitudeDegrees>-0.9190952964127063751220703125</LongitudeDegrees>
            </Position>
            <AltitudeMeters>23.200000762939453125</AltitudeMeters>
            <DistanceMeters>NAN</DistanceMeters>
          </Trackpoint>
          <Trackpoint>
            <Time>2022-07-04T13:10:51.000Z</Time>
            <Position>
              <LatitudeDegrees>44.6601790376007556915283203125</LatitudeDegrees>
              <LongitudeDegrees>-0.9190359525382518768310546875</LongitudeDegrees>
            </Position>
            <AltitudeMeters>23.200000762939453125</AltitudeMeters>
            <DistanceMeters>NAN</DistanceMeters>
          </Trackpoint>
          <Trackpoint>
            <Time>2022-07-04T13:10:52.000Z</Time>
            <Position>
              <LatitudeDegrees>44.66017560102045536041259765625</LatitudeDegrees>
              <LongitudeDegrees>-0.91897778213024139404296875</LongitudeDegrees>
            </Position>
            <AltitudeMeters>23.200000762939453125</AltitudeMeters>
            <DistanceMeters>NAN</DistanceMeters>
          </Trackpoint>
          <Trackpoint>
            <Time>2022-07-04T13:10:54.000Z</Time>
            <Position>
              <LatitudeDegrees>44.66014928184449672698974609375</LatitudeDegrees>
              <LongitudeDegrees>-0.9188709966838359832763671875</LongitudeDegrees>
            </Position>
            <AltitudeMeters>23.3999996185302734375</AltitudeMeters>
            <DistanceMeters>NAN</DistanceMeters>
          </Trackpoint>
          <Trackpoint>
            <Time>2022-07-04T13:10:58.000Z</Time>
            <Position>
              <LatitudeDegrees>44.6600586734712123870849609375</LatitudeDegrees>
              <LongitudeDegrees>-0.91871299780905246734619140625</LongitudeDegrees>
            </Position>
            <AltitudeMeters>23.6000003814697265625</AltitudeMeters>
            <DistanceMeters>NAN</DistanceMeters>
          </Trackpoint>
          <Trackpoint>
            <Time>2022-07-04T13:11:05.000Z</Time>
            <Position>
              <LatitudeDegrees>44.65986496768891811370849609375</LatitudeDegrees>
              <LongitudeDegrees>-0.91838233172893524169921875</LongitudeDegrees>
            </Position>
            <AltitudeMeters>24</AltitudeMeters>
            <DistanceMeters>NAN</DistanceMeters>
          </Trackpoint>
          <Trackpoint>
            <Time>2022-07-04T13:11:09.000Z</Time>
            <Position>
              <LatitudeDegrees>44.65973521582782268524169921875</LatitudeDegrees>
              <LongitudeDegrees>-0.91817068867385387420654296875</LongitudeDegrees>
            </Position>
            <AltitudeMeters>24.3999996185302734375</AltitudeMeters>
            <DistanceMeters>NAN</DistanceMeters>
          </Trackpoint>
          <Trackpoint>
            <Time>2022-07-04T13:11:11.000Z</Time>
            <Position>
              <LatitudeDegrees>44.6596566773951053619384765625</LatitudeDegrees>
              <LongitudeDegrees>-0.91807999648153781890869140625</LongitudeDegrees>
            </Position>
            <AltitudeMeters>24.6000003814697265625</AltitudeMeters>
            <DistanceMeters>NAN</DistanceMeters>
          </Trackpoint>
          <Trackpoint>
            <Time>2022-07-04T13:11:12.000Z</Time>
            <Position>
              <LatitudeDegrees>44.65962524525821208953857421875</LatitudeDegrees>
              <LongitudeDegrees>-0.918036662042140960693359375</LongitudeDegrees>
            </Position>
            <AltitudeMeters>24.799999237060546875</AltitudeMeters>
            <DistanceMeters>NAN</DistanceMeters>
          </Trackpoint>
          <Trackpoint>
            <Time>2022-07-04T13:11:16.000Z</Time>
            <Position>
              <LatitudeDegrees>44.65949499048292636871337890625</LatitudeDegrees>
              <LongitudeDegrees>-0.9178728796541690826416015625</LongitudeDegrees>
            </Position>
            <AltitudeMeters>25.3999996185302734375</AltitudeMeters>
            <DistanceMeters>NAN</DistanceMeters>
          </Trackpoint>
          <Trackpoint>
            <Time>2022-07-04T13:11:17.000Z</Time>
            <Position>
              <LatitudeDegrees>44.6594732813537120819091796875</LatitudeDegrees>
              <LongitudeDegrees>-0.9178282879292964935302734375</LongitudeDegrees>
            </Position>
            <AltitudeMeters>25.6000003814697265625</AltitudeMeters>
            <DistanceMeters>NAN</DistanceMeters>
          </Trackpoint>
          <Trackpoint>
            <Time>2022-07-04T13:11:18.000Z</Time>
            <Position>
              <LatitudeDegrees>44.659452326595783233642578125</LatitudeDegrees>
              <LongitudeDegrees>-0.9177808463573455810546875</LongitudeDegrees>
            </Position>
            <AltitudeMeters>26</AltitudeMeters>
            <DistanceMeters>NAN</DistanceMeters>
          </Trackpoint>
          <Trackpoint>
            <Time>2022-07-04T13:11:20.000Z</Time>
            <Position>
              <LatitudeDegrees>44.65940346010029315948486328125</LatitudeDegrees>
              <LongitudeDegrees>-0.91770507395267486572265625</LongitudeDegrees>
            </Position>
            <AltitudeMeters>26.3999996185302734375</AltitudeMeters>
            <DistanceMeters>NAN</DistanceMeters>
          </Trackpoint>
          <Trackpoint>
            <Time>2022-07-04T13:11:22.000Z</Time>
            <Position>
              <LatitudeDegrees>44.6593607962131500244140625</LatitudeDegrees>
              <LongitudeDegrees>-0.91763542033731937408447265625</LongitudeDegrees>
            </Position>
            <AltitudeMeters>26.799999237060546875</AltitudeMeters>
            <DistanceMeters>NAN</DistanceMeters>
          </Trackpoint>
          <Trackpoint>
            <Time>2022-07-04T13:11:26.000Z</Time>
            <Position>
              <LatitudeDegrees>44.65928502380847930908203125</LatitudeDegrees>
              <LongitudeDegrees>-0.91749343089759349822998046875</LongitudeDegrees>
            </Position>
            <AltitudeMeters>27.6000003814697265625</AltitudeMeters>
            <DistanceMeters>NAN</DistanceMeters>
          </Trackpoint>
          <Trackpoint>
            <Time>2022-07-04T13:11:28.000Z</Time>
            <Position>
              <LatitudeDegrees>44.659242443740367889404296875</LatitudeDegrees>
              <LongitudeDegrees>-0.91742604039609432220458984375</LongitudeDegrees>
            </Position>
            <AltitudeMeters>27.799999237060546875</AltitudeMeters>
            <DistanceMeters>NAN</DistanceMeters>
          </Trackpoint>
          <Trackpoint>
            <Time>2022-07-04T13:11:32.000Z</Time>
            <Position>
              <LatitudeDegrees>44.65916725806891918182373046875</LatitudeDegrees>
              <LongitudeDegrees>-0.91728405095636844635009765625</LongitudeDegrees>
            </Position>
            <AltitudeMeters>28.3999996185302734375</AltitudeMeters>
            <DistanceMeters>NAN</DistanceMeters>
          </Trackpoint>
          <Trackpoint>
            <Time>2022-07-04T13:11:37.000Z</Time>
            <Position>
              <LatitudeDegrees>44.65907002799212932586669921875</LatitudeDegrees>
              <LongitudeDegrees>-0.91714717447757720947265625</LongitudeDegrees>
            </Position>
            <AltitudeMeters>29</AltitudeMeters>
            <DistanceMeters>NAN</DistanceMeters>
          </Trackpoint>
          <Trackpoint>
            <Time>2022-07-04T13:11:40.000Z</Time>
            <Position>
              <LatitudeDegrees>44.6590174734592437744140625</LatitudeDegrees>
              <LongitudeDegrees>-0.91706997714936733245849609375</LongitudeDegrees>
            </Position>
            <AltitudeMeters>29.3999996185302734375</AltitudeMeters>
            <DistanceMeters>NAN</DistanceMeters>
          </Trackpoint>
          <Trackpoint>
            <Time>2022-07-04T13:11:44.000Z</Time>
            <Position>
              <LatitudeDegrees>44.65894530527293682098388671875</LatitudeDegrees>
              <LongitudeDegrees>-0.91695941984653472900390625</LongitudeDegrees>
            </Position>
            <AltitudeMeters>29.6000003814697265625</AltitudeMeters>
            <DistanceMeters>NAN</DistanceMeters>
          </Trackpoint>
          <Trackpoint>
            <Time>2022-07-04T13:11:49.000Z</Time>
            <Position>
              <LatitudeDegrees>44.65888001024723052978515625</LatitudeDegrees>
              <LongitudeDegrees>-0.9168429113924503326416015625</LongitudeDegrees>
            </Position>
            <AltitudeMeters>29.6000003814697265625</AltitudeMeters>
            <DistanceMeters>NAN</DistanceMeters>
          </Trackpoint>
          <Trackpoint>
            <Time>2022-07-04T13:11:54.000Z</Time>
            <Position>
              <LatitudeDegrees>44.65882100164890289306640625</LatitudeDegrees>
              <LongitudeDegrees>-0.91675632633268833160400390625</LongitudeDegrees>
            </Position>
            <AltitudeMeters>29.6000003814697265625</AltitudeMeters>
            <DistanceMeters>NAN</DistanceMeters>
          </Trackpoint>
          <Trackpoint>
            <Time>2022-07-04T13:11:55.000Z</Time>
            <Position>
              <LatitudeDegrees>44.6588194929063320159912109375</LatitudeDegrees>
              <LongitudeDegrees>-0.91673822142183780670166015625</LongitudeDegrees>
            </Position>
            <AltitudeMeters>29.6000003814697265625</AltitudeMeters>
            <DistanceMeters>NAN</DistanceMeters>
          </Trackpoint>
          <Trackpoint>
            <Time>2022-07-04T13:11:56.000Z</Time>
            <Position>
              <LatitudeDegrees>44.65882209129631519317626953125</LatitudeDegrees>
              <LongitudeDegrees>-0.91672631911933422088623046875</LongitudeDegrees>
            </Position>
            <AltitudeMeters>29.6000003814697265625</AltitudeMeters>
            <DistanceMeters>NAN</DistanceMeters>
          </Trackpoint>
          <Trackpoint>
            <Time>2022-07-04T13:12:00.000Z</Time>
            <Position>
              <LatitudeDegrees>44.65887590311467647552490234375</LatitudeDegrees>
              <LongitudeDegrees>-0.91678599826991558074951171875</LongitudeDegrees>
            </Position>
            <AltitudeMeters>29.799999237060546875</AltitudeMeters>
            <DistanceMeters>NAN</DistanceMeters>
          </Trackpoint>
          <Trackpoint>
            <Time>2022-07-04T13:12:03.000Z</Time>
            <Position>
              <LatitudeDegrees>44.6589338220655918121337890625</LatitudeDegrees>
              <LongitudeDegrees>-0.9169019199907779693603515625</LongitudeDegrees>
            </Position>
            <AltitudeMeters>30</AltitudeMeters>
            <DistanceMeters>NAN</DistanceMeters>
          </Trackpoint>
          <Trackpoint>
            <Time>2022-07-04T13:12:06.000Z</Time>
            <Position>
              <LatitudeDegrees>44.65901814401149749755859375</LatitudeDegrees>
              <LongitudeDegrees>-0.91704600490629673004150390625</LongitudeDegrees>
            </Position>
            <AltitudeMeters>30</AltitudeMeters>
            <DistanceMeters>NAN</DistanceMeters>
          </Trackpoint>
          <Trackpoint>
            <Time>2022-07-04T13:12:14.000Z</Time>
            <Position>
              <LatitudeDegrees>44.6592835150659084320068359375</LatitudeDegrees>
              <LongitudeDegrees>-0.91748253442347049713134765625</LongitudeDegrees>
            </Position>
            <AltitudeMeters>29.799999237060546875</AltitudeMeters>
            <DistanceMeters>NAN</DistanceMeters>
          </Trackpoint>
          <Trackpoint>
            <Time>2022-07-04T13:12:18.000Z</Time>
            <Position>
              <LatitudeDegrees>44.6594367362558841705322265625</LatitudeDegrees>
              <LongitudeDegrees>-0.917743630707263946533203125</LongitudeDegrees>
            </Position>
            <AltitudeMeters>28.799999237060546875</AltitudeMeters>
            <DistanceMeters>NAN</DistanceMeters>
          </Trackpoint>
          <Trackpoint>
            <Time>2022-07-04T13:12:20.000Z</Time>
            <Position>
              <LatitudeDegrees>44.6595235727727413177490234375</LatitudeDegrees>
              <LongitudeDegrees>-0.917889811098575592041015625</LongitudeDegrees>
            </Position>
            <AltitudeMeters>28</AltitudeMeters>
            <DistanceMeters>NAN</DistanceMeters>
          </Trackpoint>
          <Trackpoint>
            <Time>2022-07-04T13:12:21.000Z</Time>
            <Position>
              <LatitudeDegrees>44.6595691703259944915771484375</LatitudeDegrees>
              <LongitudeDegrees>-0.91796801425516605377197265625</LongitudeDegrees>
            </Position>
            <AltitudeMeters>27.6000003814697265625</AltitudeMeters>
            <DistanceMeters>NAN</DistanceMeters>
          </Trackpoint>
          <Trackpoint>
            <Time>2022-07-04T13:12:24.000Z</Time>
            <Position>
              <LatitudeDegrees>44.65971208177506923675537109375</LatitudeDegrees>
              <LongitudeDegrees>-0.91821561567485332489013671875</LongitudeDegrees>
            </Position>
            <AltitudeMeters>26.6000003814697265625</AltitudeMeters>
            <DistanceMeters>NAN</DistanceMeters>
          </Trackpoint>
          <Trackpoint>
            <Time>2022-07-04T13:12:26.000Z</Time>
            <Position>
              <LatitudeDegrees>44.65980998240411281585693359375</LatitudeDegrees>
              <LongitudeDegrees>-0.9183771349489688873291015625</LongitudeDegrees>
            </Position>
            <AltitudeMeters>25.799999237060546875</AltitudeMeters>
            <DistanceMeters>NAN</DistanceMeters>
          </Trackpoint>
          <Trackpoint>
            <Time>2022-07-04T13:12:29.000Z</Time>
            <Position>
              <LatitudeDegrees>44.65996186248958110809326171875</LatitudeDegrees>
              <LongitudeDegrees>-0.9186069667339324951171875</LongitudeDegrees>
            </Position>
            <AltitudeMeters>25.3999996185302734375</AltitudeMeters>
            <DistanceMeters>NAN</DistanceMeters>
          </Trackpoint>
          <Trackpoint>
            <Time>2022-07-04T13:12:33.000Z</Time>
            <Position>
              <LatitudeDegrees>44.66014190576970577239990234375</LatitudeDegrees>
              <LongitudeDegrees>-0.91884057037532329559326171875</LongitudeDegrees>
            </Position>
            <AltitudeMeters>24.799999237060546875</AltitudeMeters>
            <DistanceMeters>NAN</DistanceMeters>
          </Trackpoint>
          <Trackpoint>
            <Time>2022-07-04T13:12:35.000Z</Time>
            <Position>
              <LatitudeDegrees>44.6601840667426586151123046875</LatitudeDegrees>
              <LongitudeDegrees>-0.91890913434326648712158203125</LongitudeDegrees>
            </Position>
            <AltitudeMeters>24.200000762939453125</AltitudeMeters>
            <DistanceMeters>NAN</DistanceMeters>
          </Trackpoint>
          <Trackpoint>
            <Time>2022-07-04T13:12:36.000Z</Time>
            <Position>
              <LatitudeDegrees>44.660189934074878692626953125</LatitudeDegrees>
              <LongitudeDegrees>-0.9189279936254024505615234375</LongitudeDegrees>
            </Position>
            <AltitudeMeters>23.799999237060546875</AltitudeMeters>
            <DistanceMeters>NAN</DistanceMeters>
          </Trackpoint>
          <Trackpoint>
            <Time>2022-07-04T13:12:41.000Z</Time>
            <Position>
              <LatitudeDegrees>44.66022337786853313446044921875</LatitudeDegrees>
              <LongitudeDegrees>-0.91906101442873477935791015625</LongitudeDegrees>
            </Position>
            <AltitudeMeters>23.6000003814697265625</AltitudeMeters>
            <DistanceMeters>NAN</DistanceMeters>
          </Trackpoint>
          <Trackpoint>
            <Time>2022-07-04T13:12:45.000Z</Time>
            <Position>
              <LatitudeDegrees>44.6601788699626922607421875</LatitudeDegrees>
              <LongitudeDegrees>-0.919227562844753265380859375</LongitudeDegrees>
            </Position>
            <AltitudeMeters>23.6000003814697265625</AltitudeMeters>
            <DistanceMeters>NAN</DistanceMeters>
          </Trackpoint>
          <Trackpoint>
            <Time>2022-07-04T13:12:50.000Z</Time>
            <Position>
              <LatitudeDegrees>44.66004006564617156982421875</LatitudeDegrees>
              <LongitudeDegrees>-0.9194835461676120758056640625</LongitudeDegrees>
            </Position>
            <AltitudeMeters>23.6000003814697265625</AltitudeMeters>
            <DistanceMeters>NAN</DistanceMeters>
          </Trackpoint>
          <Trackpoint>
            <Time>2022-07-04T13:12:51.000Z</Time>
            <Position>
              <LatitudeDegrees>44.660012908279895782470703125</LatitudeDegrees>
              <LongitudeDegrees>-0.91953895054757595062255859375</LongitudeDegrees>
            </Position>
            <AltitudeMeters>23.6000003814697265625</AltitudeMeters>
            <DistanceMeters>NAN</DistanceMeters>
          </Trackpoint>
          <Trackpoint>
            <Time>2022-07-04T13:12:57.000Z</Time>
            <Position>
              <LatitudeDegrees>44.65984066016972064971923828125</LatitudeDegrees>
              <LongitudeDegrees>-0.91986282728612422943115234375</LongitudeDegrees>
            </Position>
            <AltitudeMeters>23.6000003814697265625</AltitudeMeters>
            <DistanceMeters>NAN</DistanceMeters>
          </Trackpoint>
          <Trackpoint>
            <Time>2022-07-04T13:13:01.000Z</Time>
            <Position>
              <LatitudeDegrees>44.65973186306655406951904296875</LatitudeDegrees>
              <LongitudeDegrees>-0.92007346451282501220703125</LongitudeDegrees>
            </Position>
            <AltitudeMeters>23.3999996185302734375</AltitudeMeters>
            <DistanceMeters>NAN</DistanceMeters>
          </Trackpoint>
          <Trackpoint>
            <Time>2022-07-04T13:13:02.000Z</Time>
            <Position>
              <LatitudeDegrees>44.6597012691199779510498046875</LatitudeDegrees>
              <LongitudeDegrees>-0.92012752778828144073486328125</LongitudeDegrees>
            </Position>
            <AltitudeMeters>23.3999996185302734375</AltitudeMeters>
            <DistanceMeters>NAN</DistanceMeters>
          </Trackpoint>
          <Trackpoint>
            <Time>2022-07-04T13:13:11.000Z</Time>
            <Position>
              <LatitudeDegrees>44.6594300307333469390869140625</LatitudeDegrees>
              <LongitudeDegrees>-0.92072658240795135498046875</LongitudeDegrees>
            </Position>
            <AltitudeMeters>23.200000762939453125</AltitudeMeters>
            <DistanceMeters>NAN</DistanceMeters>
          </Trackpoint>
          <Trackpoint>
            <Time>2022-07-04T13:13:19.000Z</Time>
            <Position>
              <LatitudeDegrees>44.6592025458812713623046875</LatitudeDegrees>
              <LongitudeDegrees>-0.921274758875370025634765625</LongitudeDegrees>
            </Position>
            <AltitudeMeters>23.3999996185302734375</AltitudeMeters>
            <DistanceMeters>NAN</DistanceMeters>
          </Trackpoint>
          <Trackpoint>
            <Time>2022-07-04T13:13:25.000Z</Time>
            <Position>
              <LatitudeDegrees>44.659039266407489776611328125</LatitudeDegrees>
              <LongitudeDegrees>-0.92163140885531902313232421875</LongitudeDegrees>
            </Position>
            <AltitudeMeters>23.200000762939453125</AltitudeMeters>
            <DistanceMeters>NAN</DistanceMeters>
          </Trackpoint>
          <Trackpoint>
            <Time>2022-07-04T13:13:26.000Z</Time>
            <Position>
              <LatitudeDegrees>44.659009762108325958251953125</LatitudeDegrees>
              <LongitudeDegrees>-0.9216876514256000518798828125</LongitudeDegrees>
            </Position>
            <AltitudeMeters>23.200000762939453125</AltitudeMeters>
            <DistanceMeters>NAN</DistanceMeters>
          </Trackpoint>
          <Trackpoint>
            <Time>2022-07-04T13:13:27.000Z</Time>
            <Position>
              <LatitudeDegrees>44.658981598913669586181640625</LatitudeDegrees>
              <LongitudeDegrees>-0.921744816005229949951171875</LongitudeDegrees>
            </Position>
            <AltitudeMeters>23.200000762939453125</AltitudeMeters>
            <DistanceMeters>NAN</DistanceMeters>
          </Trackpoint>
          <Trackpoint>
            <Time>2022-07-04T13:13:35.000Z</Time>
            <Position>
              <LatitudeDegrees>44.65875453315675258636474609375</LatitudeDegrees>
              <LongitudeDegrees>-0.922225601971149444580078125</LongitudeDegrees>
            </Position>
            <AltitudeMeters>23.200000762939453125</AltitudeMeters>
            <DistanceMeters>NAN</DistanceMeters>
          </Trackpoint>
          <Trackpoint>
            <Time>2022-07-04T13:13:43.000Z</Time>
            <Position>
              <LatitudeDegrees>44.658516906201839447021484375</LatitudeDegrees>
              <LongitudeDegrees>-0.92275508679449558258056640625</LongitudeDegrees>
            </Position>
            <AltitudeMeters>23</AltitudeMeters>
            <DistanceMeters>NAN</DistanceMeters>
          </Trackpoint>
          <Trackpoint>
            <Time>2022-07-04T13:13:48.000Z</Time>
            <Position>
              <LatitudeDegrees>44.65836510993540287017822265625</LatitudeDegrees>
              <LongitudeDegrees>-0.9230800531804561614990234375</LongitudeDegrees>
            </Position>
            <AltitudeMeters>23.3999996185302734375</AltitudeMeters>
            <DistanceMeters>NAN</DistanceMeters>
          </Trackpoint>
          <Trackpoint>
            <Time>2022-07-04T13:13:51.000Z</Time>
            <Position>
              <LatitudeDegrees>44.65827190317213535308837890625</LatitudeDegrees>
              <LongitudeDegrees>-0.923263616859912872314453125</LongitudeDegrees>
            </Position>
            <AltitudeMeters>23</AltitudeMeters>
            <DistanceMeters>NAN</DistanceMeters>
          </Trackpoint>
          <Trackpoint>
            <Time>2022-07-04T13:13:59.000Z</Time>
            <Position>
              <LatitudeDegrees>44.65802229009568691253662109375</LatitudeDegrees>
              <LongitudeDegrees>-0.92380584217607975006103515625</LongitudeDegrees>
            </Position>
            <AltitudeMeters>22.799999237060546875</AltitudeMeters>
            <DistanceMeters>NAN</DistanceMeters>
          </Trackpoint>
          <Trackpoint>
            <Time>2022-07-04T13:14:07.000Z</Time>
            <Position>
              <LatitudeDegrees>44.6577573381364345550537109375</LatitudeDegrees>
              <LongitudeDegrees>-0.92435468919575214385986328125</LongitudeDegrees>
            </Position>
            <AltitudeMeters>23</AltitudeMeters>
            <DistanceMeters>NAN</DistanceMeters>
          </Trackpoint>
          <Trackpoint>
            <Time>2022-07-04T13:14:15.000Z</Time>
            <Position>
              <LatitudeDegrees>44.6574985049664974212646484375</LatitudeDegrees>
              <LongitudeDegrees>-0.9249086491763591766357421875</LongitudeDegrees>
            </Position>
            <AltitudeMeters>22.6000003814697265625</AltitudeMeters>
            <DistanceMeters>NAN</DistanceMeters>
          </Trackpoint>
          <Trackpoint>
            <Time>2022-07-04T13:14:22.000Z</Time>
            <Position>
              <LatitudeDegrees>44.6572785638272762298583984375</LatitudeDegrees>
              <LongitudeDegrees>-0.92540192417800426483154296875</LongitudeDegrees>
            </Position>
            <AltitudeMeters>22.6000003814697265625</AltitudeMeters>
            <DistanceMeters>NAN</DistanceMeters>
          </Trackpoint>
          <Trackpoint>
            <Time>2022-07-04T13:14:26.000Z</Time>
            <Position>
              <LatitudeDegrees>44.65715375728905200958251953125</LatitudeDegrees>
              <LongitudeDegrees>-0.92567525804042816162109375</LongitudeDegrees>
            </Position>
            <AltitudeMeters>22.6000003814697265625</AltitudeMeters>
            <DistanceMeters>NAN</DistanceMeters>
          </Trackpoint>
          <Trackpoint>
            <Time>2022-07-04T13:14:27.000Z</Time>
            <Position>
              <LatitudeDegrees>44.65712249279022216796875</LatitudeDegrees>
              <LongitudeDegrees>-0.92573988251388072967529296875</LongitudeDegrees>
            </Position>
            <AltitudeMeters>22.6000003814697265625</AltitudeMeters>
            <DistanceMeters>NAN</DistanceMeters>
          </Trackpoint>
          <Trackpoint>
            <Time>2022-07-04T13:14:28.000Z</Time>
            <Position>
              <LatitudeDegrees>44.65708686970174312591552734375</LatitudeDegrees>
              <LongitudeDegrees>-0.92580442316830158233642578125</LongitudeDegrees>
            </Position>
            <AltitudeMeters>22.6000003814697265625</AltitudeMeters>
            <DistanceMeters>NAN</DistanceMeters>
          </Trackpoint>
          <Trackpoint>
            <Time>2022-07-04T13:14:31.000Z</Time>
            <Position>
              <LatitudeDegrees>44.65698259882628917694091796875</LatitudeDegrees>
              <LongitudeDegrees>-0.9259979613125324249267578125</LongitudeDegrees>
            </Position>
            <AltitudeMeters>22.6000003814697265625</AltitudeMeters>
            <DistanceMeters>NAN</DistanceMeters>
          </Trackpoint>
          <Trackpoint>
            <Time>2022-07-04T13:14:33.000Z</Time>
            <Position>
              <LatitudeDegrees>44.65692258439958095550537109375</LatitudeDegrees>
              <LongitudeDegrees>-0.92612989246845245361328125</LongitudeDegrees>
            </Position>
            <AltitudeMeters>22.6000003814697265625</AltitudeMeters>
            <DistanceMeters>NAN</DistanceMeters>
          </Trackpoint>
          <Trackpoint>
            <Time>2022-07-04T13:14:35.000Z</Time>
            <Position>
              <LatitudeDegrees>44.65686357580125331878662109375</LatitudeDegrees>
              <LongitudeDegrees>-0.92626408673822879791259765625</LongitudeDegrees>
            </Position>
            <AltitudeMeters>22.3999996185302734375</AltitudeMeters>
            <DistanceMeters>NAN</DistanceMeters>
          </Trackpoint>
          <Trackpoint>
            <Time>2022-07-04T13:14:45.000Z</Time>
            <Position>
              <LatitudeDegrees>44.65656802989542484283447265625</LatitudeDegrees>
              <LongitudeDegrees>-0.9269058890640735626220703125</LongitudeDegrees>
            </Position>
            <AltitudeMeters>22.200000762939453125</AltitudeMeters>
            <DistanceMeters>NAN</DistanceMeters>
          </Trackpoint>
          <Trackpoint>
            <Time>2022-07-04T13:14:50.000Z</Time>
            <Position>
              <LatitudeDegrees>44.65642369352281093597412109375</LatitudeDegrees>
              <LongitudeDegrees>-0.9272311069071292877197265625</LongitudeDegrees>
            </Position>
            <AltitudeMeters>22.200000762939453125</AltitudeMeters>
            <DistanceMeters>NAN</DistanceMeters>
          </Trackpoint>
          <Trackpoint>
            <Time>2022-07-04T13:14:54.000Z</Time>
            <Position>
              <LatitudeDegrees>44.6563122980296611785888671875</LatitudeDegrees>
              <LongitudeDegrees>-0.92747326008975505828857421875</LongitudeDegrees>
            </Position>
            <AltitudeMeters>22</AltitudeMeters>
            <DistanceMeters>NAN</DistanceMeters>
          </Trackpoint>
          <Trackpoint>
            <Time>2022-07-04T13:14:55.000Z</Time>
            <Position>
              <LatitudeDegrees>44.6562837995588779449462890625</LatitudeDegrees>
              <LongitudeDegrees>-0.9275345318019390106201171875</LongitudeDegrees>
            </Position>
            <AltitudeMeters>22</AltitudeMeters>
            <DistanceMeters>NAN</DistanceMeters>
          </Trackpoint>
          <Trackpoint>
            <Time>2022-07-04T13:14:59.000Z</Time>
            <Position>
              <LatitudeDegrees>44.65617005713284015655517578125</LatitudeDegrees>
              <LongitudeDegrees>-0.92778473161160945892333984375</LongitudeDegrees>
            </Position>
            <AltitudeMeters>21.6000003814697265625</AltitudeMeters>
            <DistanceMeters>NAN</DistanceMeters>
          </Trackpoint>
          <Trackpoint>
            <Time>2022-07-04T13:15:06.000Z</Time>
            <Position>
              <LatitudeDegrees>44.65596587397158145904541015625</LatitudeDegrees>
              <LongitudeDegrees>-0.9282734803855419158935546875</LongitudeDegrees>
            </Position>
            <AltitudeMeters>21.3999996185302734375</AltitudeMeters>
            <DistanceMeters>NAN</DistanceMeters>
          </Trackpoint>
          <Trackpoint>
            <Time>2022-07-04T13:15:09.000Z</Time>
            <Position>
              <LatitudeDegrees>44.65587182901799678802490234375</LatitudeDegrees>
              <LongitudeDegrees>-0.9284729696810245513916015625</LongitudeDegrees>
            </Position>
            <AltitudeMeters>21.799999237060546875</AltitudeMeters>
            <DistanceMeters>NAN</DistanceMeters>
          </Trackpoint>
          <Trackpoint>
            <Time>2022-07-04T13:15:13.000Z</Time>
            <Position>
              <LatitudeDegrees>44.65575163252651691436767578125</LatitudeDegrees>
              <LongitudeDegrees>-0.928725264966487884521484375</LongitudeDegrees>
            </Position>
            <AltitudeMeters>21.799999237060546875</AltitudeMeters>
            <DistanceMeters>NAN</DistanceMeters>
          </Trackpoint>
          <Trackpoint>
            <Time>2022-07-04T13:15:17.000Z</Time>
            <Position>
              <LatitudeDegrees>44.65564300306141376495361328125</LatitudeDegrees>
              <LongitudeDegrees>-0.92896825633943080902099609375</LongitudeDegrees>
            </Position>
            <AltitudeMeters>21.6000003814697265625</AltitudeMeters>
            <DistanceMeters>NAN</DistanceMeters>
          </Trackpoint>
          <Trackpoint>
            <Time>2022-07-04T13:15:19.000Z</Time>
            <Position>
              <LatitudeDegrees>44.6555850841104984283447265625</LatitudeDegrees>
              <LongitudeDegrees>-0.9290902130305767059326171875</LongitudeDegrees>
            </Position>
            <AltitudeMeters>21.6000003814697265625</AltitudeMeters>
            <DistanceMeters>NAN</DistanceMeters>
          </Trackpoint>
          <Trackpoint>
            <Time>2022-07-04T13:15:26.000Z</Time>
            <Position>
              <LatitudeDegrees>44.655388109385967254638671875</LatitudeDegrees>
              <LongitudeDegrees>-0.9295450150966644287109375</LongitudeDegrees>
            </Position>
            <AltitudeMeters>21</AltitudeMeters>
            <DistanceMeters>NAN</DistanceMeters>
          </Trackpoint>
          <Trackpoint>
            <Time>2022-07-04T13:15:30.000Z</Time>
            <Position>
              <LatitudeDegrees>44.65526699088513851165771484375</LatitudeDegrees>
              <LongitudeDegrees>-0.92979303561151027679443359375</LongitudeDegrees>
            </Position>
            <AltitudeMeters>21</AltitudeMeters>
            <DistanceMeters>NAN</DistanceMeters>
          </Trackpoint>
          <Trackpoint>
            <Time>2022-07-04T13:15:34.000Z</Time>
            <Position>
              <LatitudeDegrees>44.655143357813358306884765625</LatitudeDegrees>
              <LongitudeDegrees>-0.93004801310598850250244140625</LongitudeDegrees>
            </Position>
            <AltitudeMeters>20.799999237060546875</AltitudeMeters>
            <DistanceMeters>NAN</DistanceMeters>
          </Trackpoint>
          <Trackpoint>
            <Time>2022-07-04T13:15:35.000Z</Time>
            <Position>
              <LatitudeDegrees>44.6551160328090190887451171875</LatitudeDegrees>
              <LongitudeDegrees>-0.93011297285556793212890625</LongitudeDegrees>
            </Position>
            <AltitudeMeters>20.799999237060546875</AltitudeMeters>
            <DistanceMeters>NAN</DistanceMeters>
          </Trackpoint>
          <Trackpoint>
            <Time>2022-07-04T13:15:36.000Z</Time>
            <Position>
              <LatitudeDegrees>44.655086360871791839599609375</LatitudeDegrees>
              <LongitudeDegrees>-0.9301801957190036773681640625</LongitudeDegrees>
            </Position>
            <AltitudeMeters>20.799999237060546875</AltitudeMeters>
            <DistanceMeters>NAN</DistanceMeters>
          </Trackpoint>
          <Trackpoint>
            <Time>2022-07-04T13:15:44.000Z</Time>
            <Position>
              <LatitudeDegrees>44.65485158376395702362060546875</LatitudeDegrees>
              <LongitudeDegrees>-0.9307169727981090545654296875</LongitudeDegrees>
            </Position>
            <AltitudeMeters>21</AltitudeMeters>
            <DistanceMeters>NAN</DistanceMeters>
          </Trackpoint>
          <Trackpoint>
            <Time>2022-07-04T13:15:51.000Z</Time>
            <Position>
              <LatitudeDegrees>44.65464706532657146453857421875</LatitudeDegrees>
              <LongitudeDegrees>-0.931186191737651824951171875</LongitudeDegrees>
            </Position>
            <AltitudeMeters>20.799999237060546875</AltitudeMeters>
            <DistanceMeters>NAN</DistanceMeters>
          </Trackpoint>
          <Trackpoint>
            <Time>2022-07-04T13:15:53.000Z</Time>
            <Position>
              <LatitudeDegrees>44.65459275059401988983154296875</LatitudeDegrees>
              <LongitudeDegrees>-0.931322984397411346435546875</LongitudeDegrees>
            </Position>
            <AltitudeMeters>20.6000003814697265625</AltitudeMeters>
            <DistanceMeters>NAN</DistanceMeters>
          </Trackpoint>
          <Trackpoint>
            <Time>2022-07-04T13:15:57.000Z</Time>
            <Position>
              <LatitudeDegrees>44.6544684469699859619140625</LatitudeDegrees>
              <LongitudeDegrees>-0.9315861761569976806640625</LongitudeDegrees>
            </Position>
            <AltitudeMeters>20.6000003814697265625</AltitudeMeters>
            <DistanceMeters>NAN</DistanceMeters>
          </Trackpoint>
          <Trackpoint>
            <Time>2022-07-04T13:16:01.000Z</Time>
            <Position>
              <LatitudeDegrees>44.65434917248785495758056640625</LatitudeDegrees>
              <LongitudeDegrees>-0.93184375204145908355712890625</LongitudeDegrees>
            </Position>
            <AltitudeMeters>20.6000003814697265625</AltitudeMeters>
            <DistanceMeters>NAN</DistanceMeters>
          </Trackpoint>
          <Trackpoint>
            <Time>2022-07-04T13:16:03.000Z</Time>
            <Position>
              <LatitudeDegrees>44.6542862243950366973876953125</LatitudeDegrees>
              <LongitudeDegrees>-0.9319709055125713348388671875</LongitudeDegrees>
            </Position>
            <AltitudeMeters>20.3999996185302734375</AltitudeMeters>
            <DistanceMeters>NAN</DistanceMeters>
          </Trackpoint>
          <Trackpoint>
            <Time>2022-07-04T13:16:05.000Z</Time>
            <Position>
              <LatitudeDegrees>44.6542203426361083984375</LatitudeDegrees>
              <LongitudeDegrees>-0.9320865757763385772705078125</LongitudeDegrees>
            </Position>
            <AltitudeMeters>20.3999996185302734375</AltitudeMeters>
            <DistanceMeters>NAN</DistanceMeters>
          </Trackpoint>
          <Trackpoint>
            <Time>2022-07-04T13:16:09.000Z</Time>
            <Position>
              <LatitudeDegrees>44.65409838594496250152587890625</LatitudeDegrees>
              <LongitudeDegrees>-0.9323323331773281097412109375</LongitudeDegrees>
            </Position>
            <AltitudeMeters>20.3999996185302734375</AltitudeMeters>
            <DistanceMeters>NAN</DistanceMeters>
          </Trackpoint>
          <Trackpoint>
            <Time>2022-07-04T13:16:11.000Z</Time>
            <Position>
              <LatitudeDegrees>44.65403635986149311065673828125</LatitudeDegrees>
              <LongitudeDegrees>-0.9324594028294086456298828125</LongitudeDegrees>
            </Position>
            <AltitudeMeters>20.200000762939453125</AltitudeMeters>
            <DistanceMeters>NAN</DistanceMeters>
          </Trackpoint>
          <Trackpoint>
            <Time>2022-07-04T13:16:15.000Z</Time>
            <Position>
              <LatitudeDegrees>44.6539264731109142303466796875</LatitudeDegrees>
              <LongitudeDegrees>-0.9327142126858234405517578125</LongitudeDegrees>
            </Position>
            <AltitudeMeters>20.200000762939453125</AltitudeMeters>
            <DistanceMeters>NAN</DistanceMeters>
          </Trackpoint>
          <Trackpoint>
            <Time>2022-07-04T13:16:22.000Z</Time>
            <Position>
              <LatitudeDegrees>44.65371868573129177093505859375</LatitudeDegrees>
              <LongitudeDegrees>-0.93314076773822307586669921875</LongitudeDegrees>
            </Position>
            <AltitudeMeters>20.3999996185302734375</AltitudeMeters>
            <DistanceMeters>NAN</DistanceMeters>
          </Trackpoint>
          <Trackpoint>
            <Time>2022-07-04T13:16:28.000Z</Time>
            <Position>
              <LatitudeDegrees>44.6535368822515010833740234375</LatitudeDegrees>
              <LongitudeDegrees>-0.93348509632050991058349609375</LongitudeDegrees>
            </Position>
            <AltitudeMeters>20</AltitudeMeters>
            <DistanceMeters>NAN</DistanceMeters>
          </Trackpoint>
          <Trackpoint>
            <Time>2022-07-04T13:16:29.000Z</Time>
            <Position>
              <LatitudeDegrees>44.6535082161426544189453125</LatitudeDegrees>
              <LongitudeDegrees>-0.9335426799952983856201171875</LongitudeDegrees>
            </Position>
            <AltitudeMeters>20</AltitudeMeters>
            <DistanceMeters>NAN</DistanceMeters>
          </Trackpoint>
          <Trackpoint>
            <Time>2022-07-04T13:16:32.000Z</Time>
            <Position>
              <LatitudeDegrees>44.65342632494866847991943359375</LatitudeDegrees>
              <LongitudeDegrees>-0.93371115624904632568359375</LongitudeDegrees>
            </Position>
            <AltitudeMeters>20</AltitudeMeters>
            <DistanceMeters>NAN</DistanceMeters>
          </Trackpoint>
          <Trackpoint>
            <Time>2022-07-04T13:16:37.000Z</Time>
            <Position>
              <LatitudeDegrees>44.65329942293465137481689453125</LatitudeDegrees>
              <LongitudeDegrees>-0.93399907462298870086669921875</LongitudeDegrees>
            </Position>
            <AltitudeMeters>19.799999237060546875</AltitudeMeters>
            <DistanceMeters>NAN</DistanceMeters>
          </Trackpoint>
          <Trackpoint>
            <Time>2022-07-04T13:16:48.000Z</Time>
            <Position>
              <LatitudeDegrees>44.65301108546555042266845703125</LatitudeDegrees>
              <LongitudeDegrees>-0.9346118755638599395751953125</LongitudeDegrees>
            </Position>
            <AltitudeMeters>20.200000762939453125</AltitudeMeters>
            <DistanceMeters>NAN</DistanceMeters>
          </Trackpoint>
          <Trackpoint>
            <Time>2022-07-04T13:16:58.000Z</Time>
            <Position>
              <LatitudeDegrees>44.6527479775249958038330078125</LatitudeDegrees>
              <LongitudeDegrees>-0.93515016138553619384765625</LongitudeDegrees>
            </Position>
            <AltitudeMeters>20.200000762939453125</AltitudeMeters>
            <DistanceMeters>NAN</DistanceMeters>
          </Trackpoint>
          <Trackpoint>
            <Time>2022-07-04T13:17:06.000Z</Time>
            <Position>
              <LatitudeDegrees>44.65253398753702640533447265625</LatitudeDegrees>
              <LongitudeDegrees>-0.93559649772942066192626953125</LongitudeDegrees>
            </Position>
            <AltitudeMeters>20</AltitudeMeters>
            <DistanceMeters>NAN</DistanceMeters>
          </Trackpoint>
          <Trackpoint>
            <Time>2022-07-04T13:17:07.000Z</Time>
            <Position>
              <LatitudeDegrees>44.65250842273235321044921875</LatitudeDegrees>
              <LongitudeDegrees>-0.9356525726616382598876953125</LongitudeDegrees>
            </Position>
            <AltitudeMeters>19.799999237060546875</AltitudeMeters>
            <DistanceMeters>NAN</DistanceMeters>
          </Trackpoint>
          <Trackpoint>
            <Time>2022-07-04T13:17:13.000Z</Time>
            <Position>
              <LatitudeDegrees>44.65233818627893924713134765625</LatitudeDegrees>
              <LongitudeDegrees>-0.93601123429834842681884765625</LongitudeDegrees>
            </Position>
            <AltitudeMeters>19.799999237060546875</AltitudeMeters>
            <DistanceMeters>NAN</DistanceMeters>
          </Trackpoint>
          <Trackpoint>
            <Time>2022-07-04T13:17:16.000Z</Time>
            <Position>
              <LatitudeDegrees>44.65225805528461933135986328125</LatitudeDegrees>
              <LongitudeDegrees>-0.93619211576879024505615234375</LongitudeDegrees>
            </Position>
            <AltitudeMeters>19.799999237060546875</AltitudeMeters>
            <DistanceMeters>NAN</DistanceMeters>
          </Trackpoint>
          <Trackpoint>
            <Time>2022-07-04T13:17:26.000Z</Time>
            <Position>
              <LatitudeDegrees>44.65197407640516757965087890625</LatitudeDegrees>
              <LongitudeDegrees>-0.9367975406348705291748046875</LongitudeDegrees>
            </Position>
            <AltitudeMeters>19.6000003814697265625</AltitudeMeters>
            <DistanceMeters>NAN</DistanceMeters>
          </Trackpoint>
          <Trackpoint>
            <Time>2022-07-04T13:17:37.000Z</Time>
            <Position>
              <LatitudeDegrees>44.6516727469861507415771484375</LatitudeDegrees>
              <LongitudeDegrees>-0.93745124526321887969970703125</LongitudeDegrees>
            </Position>
            <AltitudeMeters>19.200000762939453125</AltitudeMeters>
            <DistanceMeters>NAN</DistanceMeters>
          </Trackpoint>
          <Trackpoint>
            <Time>2022-07-04T13:17:39.000Z</Time>
            <Position>
              <LatitudeDegrees>44.65161113999783992767333984375</LatitudeDegrees>
              <LongitudeDegrees>-0.93756356276571750640869140625</LongitudeDegrees>
            </Position>
            <AltitudeMeters>19.200000762939453125</AltitudeMeters>
            <DistanceMeters>NAN</DistanceMeters>
          </Trackpoint>
          <Trackpoint>
            <Time>2022-07-04T13:17:43.000Z</Time>
            <Position>
              <LatitudeDegrees>44.65150251053273677825927734375</LatitudeDegrees>
              <LongitudeDegrees>-0.9378097392618656158447265625</LongitudeDegrees>
            </Position>
            <AltitudeMeters>19</AltitudeMeters>
            <DistanceMeters>NAN</DistanceMeters>
          </Trackpoint>
          <Trackpoint>
            <Time>2022-07-04T13:17:48.000Z</Time>
            <Position>
              <LatitudeDegrees>44.65136169455945491790771484375</LatitudeDegrees>
              <LongitudeDegrees>-0.93813252635300159454345703125</LongitudeDegrees>
            </Position>
            <AltitudeMeters>18.799999237060546875</AltitudeMeters>
            <DistanceMeters>NAN</DistanceMeters>
          </Trackpoint>
          <Trackpoint>
            <Time>2022-07-04T13:17:53.000Z</Time>
            <Position>
              <LatitudeDegrees>44.65121693909168243408203125</LatitudeDegrees>
              <LongitudeDegrees>-0.9384383819997310638427734375</LongitudeDegrees>
            </Position>
            <AltitudeMeters>18.3999996185302734375</AltitudeMeters>
            <DistanceMeters>NAN</DistanceMeters>
          </Trackpoint>
          <Trackpoint>
            <Time>2022-07-04T13:17:58.000Z</Time>
            <Position>
              <LatitudeDegrees>44.6510781347751617431640625</LatitudeDegrees>
              <LongitudeDegrees>-0.9387320838868618011474609375</LongitudeDegrees>
            </Position>
            <AltitudeMeters>18.200000762939453125</AltitudeMeters>
            <DistanceMeters>NAN</DistanceMeters>
          </Trackpoint>
          <Trackpoint>
            <Time>2022-07-04T13:18:02.000Z</Time>
            <Position>
              <LatitudeDegrees>44.65096405707299709320068359375</LatitudeDegrees>
              <LongitudeDegrees>-0.9389684535562992095947265625</LongitudeDegrees>
            </Position>
            <AltitudeMeters>18</AltitudeMeters>
            <DistanceMeters>NAN</DistanceMeters>
          </Trackpoint>
          <Trackpoint>
            <Time>2022-07-04T13:18:06.000Z</Time>
            <Position>
              <LatitudeDegrees>44.65085894800722599029541015625</LatitudeDegrees>
              <LongitudeDegrees>-0.93921639025211334228515625</LongitudeDegrees>
            </Position>
            <AltitudeMeters>17.799999237060546875</AltitudeMeters>
            <DistanceMeters>NAN</DistanceMeters>
          </Trackpoint>
          <Trackpoint>
            <Time>2022-07-04T13:18:10.000Z</Time>
            <Position>
              <LatitudeDegrees>44.65074059553444385528564453125</LatitudeDegrees>
              <LongitudeDegrees>-0.93946021981537342071533203125</LongitudeDegrees>
            </Position>
            <AltitudeMeters>17.3999996185302734375</AltitudeMeters>
            <DistanceMeters>NAN</DistanceMeters>
          </Trackpoint>
          <Trackpoint>
            <Time>2022-07-04T13:18:14.000Z</Time>
            <Position>
              <LatitudeDegrees>44.650629200041294097900390625</LatitudeDegrees>
              <LongitudeDegrees>-0.939718969166278839111328125</LongitudeDegrees>
            </Position>
            <AltitudeMeters>17.6000003814697265625</AltitudeMeters>
            <DistanceMeters>NAN</DistanceMeters>
          </Trackpoint>
          <Trackpoint>
            <Time>2022-07-04T13:18:24.000Z</Time>
            <Position>
              <LatitudeDegrees>44.65036072768270969390869140625</LatitudeDegrees>
              <LongitudeDegrees>-0.94033059664070606231689453125</LongitudeDegrees>
            </Position>
            <AltitudeMeters>17</AltitudeMeters>
            <DistanceMeters>NAN</DistanceMeters>
          </Trackpoint>
          <Trackpoint>
            <Time>2022-07-04T13:18:30.000Z</Time>
            <Position>
              <LatitudeDegrees>44.65020499192178249359130859375</LatitudeDegrees>
              <LongitudeDegrees>-0.94068758189678192138671875</LongitudeDegrees>
            </Position>
            <AltitudeMeters>17</AltitudeMeters>
            <DistanceMeters>NAN</DistanceMeters>
          </Trackpoint>
          <Trackpoint>
            <Time>2022-07-04T13:18:33.000Z</Time>
            <Position>
              <LatitudeDegrees>44.6501187421381473541259765625</LatitudeDegrees>
              <LongitudeDegrees>-0.940879695117473602294921875</LongitudeDegrees>
            </Position>
            <AltitudeMeters>17</AltitudeMeters>
            <DistanceMeters>NAN</DistanceMeters>
          </Trackpoint>
          <Trackpoint>
            <Time>2022-07-04T13:18:34.000Z</Time>
            <Position>
              <LatitudeDegrees>44.650089405477046966552734375</LatitudeDegrees>
              <LongitudeDegrees>-0.94093895517289638519287109375</LongitudeDegrees>
            </Position>
            <AltitudeMeters>16.799999237060546875</AltitudeMeters>
            <DistanceMeters>NAN</DistanceMeters>
          </Trackpoint>
          <Trackpoint>
            <Time>2022-07-04T13:18:41.000Z</Time>
            <Position>
              <LatitudeDegrees>44.6498957835137844085693359375</LatitudeDegrees>
              <LongitudeDegrees>-0.94136978499591350555419921875</LongitudeDegrees>
            </Position>
            <AltitudeMeters>16.6000003814697265625</AltitudeMeters>
            <DistanceMeters>NAN</DistanceMeters>
          </Trackpoint>
          <Trackpoint>
            <Time>2022-07-04T13:18:43.000Z</Time>
            <Position>
              <LatitudeDegrees>44.6498387865722179412841796875</LatitudeDegrees>
              <LongitudeDegrees>-0.94148394651710987091064453125</LongitudeDegrees>
            </Position>
            <AltitudeMeters>16.3999996185302734375</AltitudeMeters>
            <DistanceMeters>NAN</DistanceMeters>
          </Trackpoint>
          <Trackpoint>
            <Time>2022-07-04T13:18:51.000Z</Time>
            <Position>
              <LatitudeDegrees>44.64964340440928936004638671875</LatitudeDegrees>
              <LongitudeDegrees>-0.94191913492977619171142578125</LongitudeDegrees>
            </Position>
            <AltitudeMeters>16.200000762939453125</AltitudeMeters>
            <DistanceMeters>NAN</DistanceMeters>
          </Trackpoint>
          <Trackpoint>
            <Time>2022-07-04T13:18:52.000Z</Time>
            <Position>
              <LatitudeDegrees>44.64961742050945758819580078125</LatitudeDegrees>
              <LongitudeDegrees>-0.94197479076683521270751953125</LongitudeDegrees>
            </Position>
            <AltitudeMeters>16.200000762939453125</AltitudeMeters>
            <DistanceMeters>NAN</DistanceMeters>
          </Trackpoint>
          <Trackpoint>
            <Time>2022-07-04T13:18:54.000Z</Time>
            <Position>
              <LatitudeDegrees>44.64956847019493579864501953125</LatitudeDegrees>
              <LongitudeDegrees>-0.94208492897450923919677734375</LongitudeDegrees>
            </Position>
            <AltitudeMeters>16.200000762939453125</AltitudeMeters>
            <DistanceMeters>NAN</DistanceMeters>
          </Trackpoint>
          <Trackpoint>
            <Time>2022-07-04T13:18:58.000Z</Time>
            <Position>
              <LatitudeDegrees>44.64947928674519062042236328125</LatitudeDegrees>
              <LongitudeDegrees>-0.94233403913676738739013671875</LongitudeDegrees>
            </Position>
            <AltitudeMeters>16</AltitudeMeters>
            <DistanceMeters>NAN</DistanceMeters>
          </Trackpoint>
          <Trackpoint>
            <Time>2022-07-04T13:18:59.000Z</Time>
            <Position>
              <LatitudeDegrees>44.6494522131979465484619140625</LatitudeDegrees>
              <LongitudeDegrees>-0.94239749014377593994140625</LongitudeDegrees>
            </Position>
            <AltitudeMeters>16</AltitudeMeters>
            <DistanceMeters>NAN</DistanceMeters>
          </Trackpoint>
          <Trackpoint>
            <Time>2022-07-04T13:19:01.000Z</Time>
            <Position>
              <LatitudeDegrees>44.64939764700829982757568359375</LatitudeDegrees>
              <LongitudeDegrees>-0.942523889243602752685546875</LongitudeDegrees>
            </Position>
            <AltitudeMeters>16.200000762939453125</AltitudeMeters>
            <DistanceMeters>NAN</DistanceMeters>
          </Trackpoint>
          <Trackpoint>
            <Time>2022-07-04T13:19:04.000Z</Time>
            <Position>
              <LatitudeDegrees>44.64931282214820384979248046875</LatitudeDegrees>
              <LongitudeDegrees>-0.942697562277317047119140625</LongitudeDegrees>
            </Position>
            <AltitudeMeters>16.3999996185302734375</AltitudeMeters>
            <DistanceMeters>NAN</DistanceMeters>
          </Trackpoint>
          <Trackpoint>
            <Time>2022-07-04T13:19:11.000Z</Time>
            <Position>
              <LatitudeDegrees>44.64914987795054912567138671875</LatitudeDegrees>
              <LongitudeDegrees>-0.9430936910212039947509765625</LongitudeDegrees>
            </Position>
            <AltitudeMeters>16.200000762939453125</AltitudeMeters>
            <DistanceMeters>NAN</DistanceMeters>
          </Trackpoint>
          <Trackpoint>
            <Time>2022-07-04T13:19:15.000Z</Time>
            <Position>
              <LatitudeDegrees>44.6490525640547275543212890625</LatitudeDegrees>
              <LongitudeDegrees>-0.9433181583881378173828125</LongitudeDegrees>
            </Position>
            <AltitudeMeters>16</AltitudeMeters>
            <DistanceMeters>NAN</DistanceMeters>
          </Trackpoint>
          <Trackpoint>
            <Time>2022-07-04T13:19:19.000Z</Time>
            <Position>
              <LatitudeDegrees>44.6489573456346988677978515625</LatitudeDegrees>
              <LongitudeDegrees>-0.94354354776442050933837890625</LongitudeDegrees>
            </Position>
            <AltitudeMeters>15.80000019073486328125</AltitudeMeters>
            <DistanceMeters>NAN</DistanceMeters>
          </Trackpoint>
          <Trackpoint>
            <Time>2022-07-04T13:19:21.000Z</Time>
            <Position>
              <LatitudeDegrees>44.6489001810550689697265625</LatitudeDegrees>
              <LongitudeDegrees>-0.94366994686424732208251953125</LongitudeDegrees>
            </Position>
            <AltitudeMeters>15.80000019073486328125</AltitudeMeters>
            <DistanceMeters>NAN</DistanceMeters>
          </Trackpoint>
          <Trackpoint>
            <Time>2022-07-04T13:19:24.000Z</Time>
            <Position>
              <LatitudeDegrees>44.64882466010749340057373046875</LatitudeDegrees>
              <LongitudeDegrees>-0.94382987357676029205322265625</LongitudeDegrees>
            </Position>
            <AltitudeMeters>15.80000019073486328125</AltitudeMeters>
            <DistanceMeters>NAN</DistanceMeters>
          </Trackpoint>
          <Trackpoint>
            <Time>2022-07-04T13:19:27.000Z</Time>
            <Position>
              <LatitudeDegrees>44.64874872006475925445556640625</LatitudeDegrees>
              <LongitudeDegrees>-0.9439996071159839630126953125</LongitudeDegrees>
            </Position>
            <AltitudeMeters>15.80000019073486328125</AltitudeMeters>
            <DistanceMeters>NAN</DistanceMeters>
          </Trackpoint>
          <Trackpoint>
            <Time>2022-07-04T13:19:31.000Z</Time>
            <Position>
              <LatitudeDegrees>44.64864729903638362884521484375</LatitudeDegrees>
              <LongitudeDegrees>-0.9442158602178096771240234375</LongitudeDegrees>
            </Position>
            <AltitudeMeters>15.80000019073486328125</AltitudeMeters>
            <DistanceMeters>NAN</DistanceMeters>
          </Trackpoint>
          <Trackpoint>
            <Time>2022-07-04T13:19:41.000Z</Time>
            <Position>
              <LatitudeDegrees>44.64840372093021869659423828125</LatitudeDegrees>
              <LongitudeDegrees>-0.9447492845356464385986328125</LongitudeDegrees>
            </Position>
            <AltitudeMeters>15.6000003814697265625</AltitudeMeters>
            <DistanceMeters>NAN</DistanceMeters>
          </Trackpoint>
          <Trackpoint>
            <Time>2022-07-04T13:19:44.000Z</Time>
            <Position>
              <LatitudeDegrees>44.64833767153322696685791015625</LatitudeDegrees>
              <LongitudeDegrees>-0.944905690848827362060546875</LongitudeDegrees>
            </Position>
            <AltitudeMeters>15.6000003814697265625</AltitudeMeters>
            <DistanceMeters>NAN</DistanceMeters>
          </Trackpoint>
          <Trackpoint>
            <Time>2022-07-04T13:19:48.000Z</Time>
            <Position>
              <LatitudeDegrees>44.64823122136294841766357421875</LatitudeDegrees>
              <LongitudeDegrees>-0.945140384137630462646484375</LongitudeDegrees>
            </Position>
            <AltitudeMeters>15.3999996185302734375</AltitudeMeters>
            <DistanceMeters>NAN</DistanceMeters>
          </Trackpoint>
          <Trackpoint>
            <Time>2022-07-04T13:19:50.000Z</Time>
            <Position>
              <LatitudeDegrees>44.6481835283339023590087890625</LatitudeDegrees>
              <LongitudeDegrees>-0.9452359378337860107421875</LongitudeDegrees>
            </Position>
            <AltitudeMeters>15.3999996185302734375</AltitudeMeters>
            <DistanceMeters>NAN</DistanceMeters>
          </Trackpoint>
          <Trackpoint>
            <Time>2022-07-04T13:19:53.000Z</Time>
            <Position>
              <LatitudeDegrees>44.648093841969966888427734375</LatitudeDegrees>
              <LongitudeDegrees>-0.94540533609688282012939453125</LongitudeDegrees>
            </Position>
            <AltitudeMeters>15.3999996185302734375</AltitudeMeters>
            <DistanceMeters>NAN</DistanceMeters>
          </Trackpoint>
          <Trackpoint>
            <Time>2022-07-04T13:19:57.000Z</Time>
            <Position>
              <LatitudeDegrees>44.64799535460770130157470703125</LatitudeDegrees>
              <LongitudeDegrees>-0.94562578015029430389404296875</LongitudeDegrees>
            </Position>
            <AltitudeMeters>15.6000003814697265625</AltitudeMeters>
            <DistanceMeters>NAN</DistanceMeters>
          </Trackpoint>
          <Trackpoint>
            <Time>2022-07-04T13:20:08.000Z</Time>
            <Position>
              <LatitudeDegrees>44.647725708782672882080078125</LatitudeDegrees>
              <LongitudeDegrees>-0.9462275169789791107177734375</LongitudeDegrees>
            </Position>
            <AltitudeMeters>15.3999996185302734375</AltitudeMeters>
            <DistanceMeters>NAN</DistanceMeters>
          </Trackpoint>
          <Trackpoint>
            <Time>2022-07-04T13:20:13.000Z</Time>
            <Position>
              <LatitudeDegrees>44.6475974656641483306884765625</LatitudeDegrees>
              <LongitudeDegrees>-0.94652532599866390228271484375</LongitudeDegrees>
            </Position>
            <AltitudeMeters>15.3999996185302734375</AltitudeMeters>
            <DistanceMeters>NAN</DistanceMeters>
          </Trackpoint>
          <Trackpoint>
            <Time>2022-07-04T13:20:16.000Z</Time>
            <Position>
              <LatitudeDegrees>44.64751825667917728424072265625</LatitudeDegrees>
              <LongitudeDegrees>-0.94669531099498271942138671875</LongitudeDegrees>
            </Position>
            <AltitudeMeters>15.19999980926513671875</AltitudeMeters>
            <DistanceMeters>NAN</DistanceMeters>
          </Trackpoint>
          <Trackpoint>
            <Time>2022-07-04T13:20:23.000Z</Time>
            <Position>
              <LatitudeDegrees>44.6473310887813568115234375</LatitudeDegrees>
              <LongitudeDegrees>-0.947096049785614013671875</LongitudeDegrees>
            </Position>
            <AltitudeMeters>14.80000019073486328125</AltitudeMeters>
            <DistanceMeters>NAN</DistanceMeters>
          </Trackpoint>
          <Trackpoint>
            <Time>2022-07-04T13:20:27.000Z</Time>
            <Position>
              <LatitudeDegrees>44.6472300030291080474853515625</LatitudeDegrees>
              <LongitudeDegrees>-0.9473305754363536834716796875</LongitudeDegrees>
            </Position>
            <AltitudeMeters>14.80000019073486328125</AltitudeMeters>
            <DistanceMeters>NAN</DistanceMeters>
          </Trackpoint>
          <Trackpoint>
            <Time>2022-07-04T13:20:29.000Z</Time>
            <Position>
              <LatitudeDegrees>44.64718381874263286590576171875</LatitudeDegrees>
              <LongitudeDegrees>-0.94742663204669952392578125</LongitudeDegrees>
            </Position>
            <AltitudeMeters>14.80000019073486328125</AltitudeMeters>
            <DistanceMeters>NAN</DistanceMeters>
          </Trackpoint>
          <Trackpoint>
            <Time>2022-07-04T13:20:31.000Z</Time>
            <Position>
              <LatitudeDegrees>44.64713738299906253814697265625</LatitudeDegrees>
              <LongitudeDegrees>-0.9475464932620525360107421875</LongitudeDegrees>
            </Position>
            <AltitudeMeters>14.80000019073486328125</AltitudeMeters>
            <DistanceMeters>NAN</DistanceMeters>
          </Trackpoint>
          <Trackpoint>
            <Time>2022-07-04T13:20:33.000Z</Time>
            <Position>
              <LatitudeDegrees>44.647088348865509033203125</LatitudeDegrees>
              <LongitudeDegrees>-0.94765889458358287811279296875</LongitudeDegrees>
            </Position>
            <AltitudeMeters>14.80000019073486328125</AltitudeMeters>
            <DistanceMeters>NAN</DistanceMeters>
          </Trackpoint>
          <Trackpoint>
            <Time>2022-07-04T13:20:38.000Z</Time>
            <Position>
              <LatitudeDegrees>44.64698365889489650726318359375</LatitudeDegrees>
              <LongitudeDegrees>-0.94794320873916149139404296875</LongitudeDegrees>
            </Position>
            <AltitudeMeters>14.6000003814697265625</AltitudeMeters>
            <DistanceMeters>NAN</DistanceMeters>
          </Trackpoint>
          <Trackpoint>
            <Time>2022-07-04T13:20:40.000Z</Time>
            <Position>
              <LatitudeDegrees>44.64693345129489898681640625</LatitudeDegrees>
              <LongitudeDegrees>-0.94804630614817142486572265625</LongitudeDegrees>
            </Position>
            <AltitudeMeters>14.80000019073486328125</AltitudeMeters>
            <DistanceMeters>NAN</DistanceMeters>
          </Trackpoint>
          <Trackpoint>
            <Time>2022-07-04T13:20:47.000Z</Time>
            <Position>
              <LatitudeDegrees>44.64675910770893096923828125</LatitudeDegrees>
              <LongitudeDegrees>-0.94847311265766620635986328125</LongitudeDegrees>
            </Position>
            <AltitudeMeters>14.3999996185302734375</AltitudeMeters>
            <DistanceMeters>NAN</DistanceMeters>
          </Trackpoint>
          <Trackpoint>
            <Time>2022-07-04T13:20:48.000Z</Time>
            <Position>
              <LatitudeDegrees>44.64673153124749660491943359375</LatitudeDegrees>
              <LongitudeDegrees>-0.94853036105632781982421875</LongitudeDegrees>
            </Position>
            <AltitudeMeters>14.3999996185302734375</AltitudeMeters>
            <DistanceMeters>NAN</DistanceMeters>
          </Trackpoint>
          <Trackpoint>
            <Time>2022-07-04T13:20:57.000Z</Time>
            <Position>
              <LatitudeDegrees>44.64648426510393619537353515625</LatitudeDegrees>
              <LongitudeDegrees>-0.94901240430772304534912109375</LongitudeDegrees>
            </Position>
            <AltitudeMeters>14</AltitudeMeters>
            <DistanceMeters>NAN</DistanceMeters>
          </Trackpoint>
          <Trackpoint>
            <Time>2022-07-04T13:21:01.000Z</Time>
            <Position>
              <LatitudeDegrees>44.64640296064317226409912109375</LatitudeDegrees>
              <LongitudeDegrees>-0.94923553057014942169189453125</LongitudeDegrees>
            </Position>
            <AltitudeMeters>14</AltitudeMeters>
            <DistanceMeters>NAN</DistanceMeters>
          </Trackpoint>
          <Trackpoint>
            <Time>2022-07-04T13:21:03.000Z</Time>
            <Position>
              <LatitudeDegrees>44.64635266922414302825927734375</LatitudeDegrees>
              <LongitudeDegrees>-0.9493328444659709930419921875</LongitudeDegrees>
            </Position>
            <AltitudeMeters>13.80000019073486328125</AltitudeMeters>
            <DistanceMeters>NAN</DistanceMeters>
          </Trackpoint>
          <Trackpoint>
            <Time>2022-07-04T13:21:08.000Z</Time>
            <Position>
              <LatitudeDegrees>44.646243117749691009521484375</LatitudeDegrees>
              <LongitudeDegrees>-0.9495703876018524169921875</LongitudeDegrees>
            </Position>
            <AltitudeMeters>14</AltitudeMeters>
            <DistanceMeters>NAN</DistanceMeters>
          </Trackpoint>
          <Trackpoint>
            <Time>2022-07-04T13:21:10.000Z</Time>
            <Position>
              <LatitudeDegrees>44.64620917104184627532958984375</LatitudeDegrees>
              <LongitudeDegrees>-0.94966300763189792633056640625</LongitudeDegrees>
            </Position>
            <AltitudeMeters>14</AltitudeMeters>
            <DistanceMeters>NAN</DistanceMeters>
          </Trackpoint>
          <Trackpoint>
            <Time>2022-07-04T13:21:11.000Z</Time>
            <Position>
              <LatitudeDegrees>44.64619307778775691986083984375</LatitudeDegrees>
              <LongitudeDegrees>-0.94969888217747211456298828125</LongitudeDegrees>
            </Position>
            <AltitudeMeters>13.80000019073486328125</AltitudeMeters>
            <DistanceMeters>NAN</DistanceMeters>
          </Trackpoint>
          <Trackpoint>
            <Time>2022-07-04T13:21:16.000Z</Time>
            <Position>
              <LatitudeDegrees>44.64616374112665653228759765625</LatitudeDegrees>
              <LongitudeDegrees>-0.949946232140064239501953125</LongitudeDegrees>
            </Position>
            <AltitudeMeters>13.3999996185302734375</AltitudeMeters>
            <DistanceMeters>NAN</DistanceMeters>
          </Trackpoint>
          <Trackpoint>
            <Time>2022-07-04T13:21:20.000Z</Time>
            <Position>
              <LatitudeDegrees>44.64616793207824230194091796875</LatitudeDegrees>
              <LongitudeDegrees>-0.94998856075108051300048828125</LongitudeDegrees>
            </Position>
            <AltitudeMeters>12.80000019073486328125</AltitudeMeters>
            <DistanceMeters>NAN</DistanceMeters>
          </Trackpoint>
          <Trackpoint>
            <Time>2022-07-04T13:23:11.000Z</Time>
            <Position>
              <LatitudeDegrees>44.6461956761777400970458984375</LatitudeDegrees>
              <LongitudeDegrees>-0.95009417273104190826416015625</LongitudeDegrees>
            </Position>
            <AltitudeMeters>12.6000003814697265625</AltitudeMeters>
            <DistanceMeters>NAN</DistanceMeters>
          </Trackpoint>
          <Trackpoint>
            <Time>2022-07-04T13:23:12.000Z</Time>
            <Position>
              <LatitudeDegrees>44.64621973223984241485595703125</LatitudeDegrees>
              <LongitudeDegrees>-0.95011445693671703338623046875</LongitudeDegrees>
            </Position>
            <AltitudeMeters>12.6000003814697265625</AltitudeMeters>
            <DistanceMeters>NAN</DistanceMeters>
          </Trackpoint>
          <Trackpoint>
            <Time>2022-07-04T13:23:13.000Z</Time>
            <Position>
              <LatitudeDegrees>44.64624219574034214019775390625</LatitudeDegrees>
              <LongitudeDegrees>-0.95013021491467952728271484375</LongitudeDegrees>
            </Position>
            <AltitudeMeters>12.6000003814697265625</AltitudeMeters>
            <DistanceMeters>NAN</DistanceMeters>
          </Trackpoint>
          <Trackpoint>
            <Time>2022-07-04T13:23:18.000Z</Time>
            <Position>
              <LatitudeDegrees>44.6463794074952602386474609375</LatitudeDegrees>
              <LongitudeDegrees>-0.9502851963043212890625</LongitudeDegrees>
            </Position>
            <AltitudeMeters>12.6000003814697265625</AltitudeMeters>
            <DistanceMeters>NAN</DistanceMeters>
          </Trackpoint>
          <Trackpoint>
            <Time>2022-07-04T13:23:21.000Z</Time>
            <Position>
              <LatitudeDegrees>44.64642123319208621978759765625</LatitudeDegrees>
              <LongitudeDegrees>-0.950431711971759796142578125</LongitudeDegrees>
            </Position>
            <AltitudeMeters>12.6000003814697265625</AltitudeMeters>
            <DistanceMeters>NAN</DistanceMeters>
          </Trackpoint>
          <Trackpoint>
            <Time>2022-07-04T13:23:23.000Z</Time>
            <Position>
              <LatitudeDegrees>44.64642626233398914337158203125</LatitudeDegrees>
              <LongitudeDegrees>-0.95053539611399173736572265625</LongitudeDegrees>
            </Position>
            <AltitudeMeters>12.6000003814697265625</AltitudeMeters>
            <DistanceMeters>NAN</DistanceMeters>
          </Trackpoint>
          <Trackpoint>
            <Time>2022-07-04T13:23:29.000Z</Time>
            <Position>
              <LatitudeDegrees>44.6463520824909210205078125</LatitudeDegrees>
              <LongitudeDegrees>-0.9508529864251613616943359375</LongitudeDegrees>
            </Position>
            <AltitudeMeters>12</AltitudeMeters>
            <DistanceMeters>NAN</DistanceMeters>
          </Trackpoint>
          <Trackpoint>
            <Time>2022-07-04T13:23:31.000Z</Time>
            <Position>
              <LatitudeDegrees>44.646283350884914398193359375</LatitudeDegrees>
              <LongitudeDegrees>-0.9509465284645557403564453125</LongitudeDegrees>
            </Position>
            <AltitudeMeters>12.19999980926513671875</AltitudeMeters>
            <DistanceMeters>NAN</DistanceMeters>
          </Trackpoint>
          <Trackpoint>
            <Time>2022-07-04T13:23:33.000Z</Time>
            <Position>
              <LatitudeDegrees>44.6462047286331653594970703125</LatitudeDegrees>
              <LongitudeDegrees>-0.95098332501947879791259765625</LongitudeDegrees>
            </Position>
            <AltitudeMeters>12.3999996185302734375</AltitudeMeters>
            <DistanceMeters>NAN</DistanceMeters>
          </Trackpoint>
          <Trackpoint>
            <Time>2022-07-04T13:23:34.000Z</Time>
            <Position>
              <LatitudeDegrees>44.64615452103316783905029296875</LatitudeDegrees>
              <LongitudeDegrees>-0.95099573023617267608642578125</LongitudeDegrees>
            </Position>
            <AltitudeMeters>12.3999996185302734375</AltitudeMeters>
            <DistanceMeters>NAN</DistanceMeters>
          </Trackpoint>
          <Trackpoint>
            <Time>2022-07-04T13:23:36.000Z</Time>
            <Position>
              <LatitudeDegrees>44.64604438282549381256103515625</LatitudeDegrees>
              <LongitudeDegrees>-0.9509988315403461456298828125</LongitudeDegrees>
            </Position>
            <AltitudeMeters>12.3999996185302734375</AltitudeMeters>
            <DistanceMeters>NAN</DistanceMeters>
          </Trackpoint>
          <Trackpoint>
            <Time>2022-07-04T13:23:37.000Z</Time>
            <Position>
              <LatitudeDegrees>44.64599870145320892333984375</LatitudeDegrees>
              <LongitudeDegrees>-0.9509854204952716827392578125</LongitudeDegrees>
            </Position>
            <AltitudeMeters>12.3999996185302734375</AltitudeMeters>
            <DistanceMeters>NAN</DistanceMeters>
          </Trackpoint>
          <Trackpoint>
            <Time>2022-07-04T13:23:38.000Z</Time>
            <Position>
              <LatitudeDegrees>44.64595310389995574951171875</LatitudeDegrees>
              <LongitudeDegrees>-0.9509636275470256805419921875</LongitudeDegrees>
            </Position>
            <AltitudeMeters>12.3999996185302734375</AltitudeMeters>
            <DistanceMeters>NAN</DistanceMeters>
          </Trackpoint>
          <Trackpoint>
            <Time>2022-07-04T13:23:39.000Z</Time>
            <Position>
              <LatitudeDegrees>44.64591555297374725341796875</LatitudeDegrees>
              <LongitudeDegrees>-0.95093739219009876251220703125</LongitudeDegrees>
            </Position>
            <AltitudeMeters>12.3999996185302734375</AltitudeMeters>
            <DistanceMeters>NAN</DistanceMeters>
          </Trackpoint>
          <Trackpoint>
            <Time>2022-07-04T13:23:40.000Z</Time>
            <Position>
              <LatitudeDegrees>44.6458694525063037872314453125</LatitudeDegrees>
              <LongitudeDegrees>-0.95089212991297245025634765625</LongitudeDegrees>
            </Position>
            <AltitudeMeters>12.3999996185302734375</AltitudeMeters>
            <DistanceMeters>NAN</DistanceMeters>
          </Trackpoint>
          <Trackpoint>
            <Time>2022-07-04T13:23:42.000Z</Time>
            <Position>
              <LatitudeDegrees>44.64580281637609004974365234375</LatitudeDegrees>
              <LongitudeDegrees>-0.95079741440713405609130859375</LongitudeDegrees>
            </Position>
            <AltitudeMeters>12.6000003814697265625</AltitudeMeters>
            <DistanceMeters>NAN</DistanceMeters>
          </Trackpoint>
          <Trackpoint>
            <Time>2022-07-04T13:23:44.000Z</Time>
            <Position>
              <LatitudeDegrees>44.6457593142986297607421875</LatitudeDegrees>
              <LongitudeDegrees>-0.95069180242717266082763671875</LongitudeDegrees>
            </Position>
            <AltitudeMeters>12.80000019073486328125</AltitudeMeters>
            <DistanceMeters>NAN</DistanceMeters>
          </Trackpoint>
          <Trackpoint>
            <Time>2022-07-04T13:23:46.000Z</Time>
            <Position>
              <LatitudeDegrees>44.64571447111666202545166015625</LatitudeDegrees>
              <LongitudeDegrees>-0.9505582787096500396728515625</LongitudeDegrees>
            </Position>
            <AltitudeMeters>12.80000019073486328125</AltitudeMeters>
            <DistanceMeters>NAN</DistanceMeters>
          </Trackpoint>
          <Trackpoint>
            <Time>2022-07-04T13:23:47.000Z</Time>
            <Position>
              <LatitudeDegrees>44.64568513445556163787841796875</LatitudeDegrees>
              <LongitudeDegrees>-0.95050974749028682708740234375</LongitudeDegrees>
            </Position>
            <AltitudeMeters>12.80000019073486328125</AltitudeMeters>
            <DistanceMeters>NAN</DistanceMeters>
          </Trackpoint>
          <Trackpoint>
            <Time>2022-07-04T13:23:48.000Z</Time>
            <Position>
              <LatitudeDegrees>44.6456545405089855194091796875</LatitudeDegrees>
              <LongitudeDegrees>-0.9504791535437107086181640625</LongitudeDegrees>
            </Position>
            <AltitudeMeters>12.80000019073486328125</AltitudeMeters>
            <DistanceMeters>NAN</DistanceMeters>
          </Trackpoint>
          <Trackpoint>
            <Time>2022-07-04T13:23:50.000Z</Time>
            <Position>
              <LatitudeDegrees>44.6455556340515613555908203125</LatitudeDegrees>
              <LongitudeDegrees>-0.9504429437220096588134765625</LongitudeDegrees>
            </Position>
            <AltitudeMeters>12.80000019073486328125</AltitudeMeters>
            <DistanceMeters>NAN</DistanceMeters>
          </Trackpoint>
          <Trackpoint>
            <Time>2022-07-04T13:23:51.000Z</Time>
            <Position>
              <LatitudeDegrees>44.64551565237343311309814453125</LatitudeDegrees>
              <LongitudeDegrees>-0.95044545829296112060546875</LongitudeDegrees>
            </Position>
            <AltitudeMeters>13</AltitudeMeters>
            <DistanceMeters>NAN</DistanceMeters>
          </Trackpoint>
          <Trackpoint>
            <Time>2022-07-04T13:23:54.000Z</Time>
            <Position>
              <LatitudeDegrees>44.64541305787861347198486328125</LatitudeDegrees>
              <LongitudeDegrees>-0.950505472719669342041015625</LongitudeDegrees>
            </Position>
            <AltitudeMeters>13.6000003814697265625</AltitudeMeters>
            <DistanceMeters>NAN</DistanceMeters>
          </Trackpoint>
          <Trackpoint>
            <Time>2022-07-04T13:23:55.000Z</Time>
            <Position>
              <LatitudeDegrees>44.64537642896175384521484375</LatitudeDegrees>
              <LongitudeDegrees>-0.95053925178945064544677734375</LongitudeDegrees>
            </Position>
            <AltitudeMeters>13.80000019073486328125</AltitudeMeters>
            <DistanceMeters>NAN</DistanceMeters>
          </Trackpoint>
          <Trackpoint>
            <Time>2022-07-04T13:23:57.000Z</Time>
            <Position>
              <LatitudeDegrees>44.6453229524195194244384765625</LatitudeDegrees>
              <LongitudeDegrees>-0.95059021376073360443115234375</LongitudeDegrees>
            </Position>
            <AltitudeMeters>14</AltitudeMeters>
            <DistanceMeters>NAN</DistanceMeters>
          </Trackpoint>
          <Trackpoint>
            <Time>2022-07-04T13:24:02.000Z</Time>
            <Position>
              <LatitudeDegrees>44.645213820040225982666015625</LatitudeDegrees>
              <LongitudeDegrees>-0.95069825649261474609375</LongitudeDegrees>
            </Position>
            <AltitudeMeters>14.19999980926513671875</AltitudeMeters>
            <DistanceMeters>NAN</DistanceMeters>
          </Trackpoint>
          <Trackpoint>
            <Time>2022-07-04T13:24:07.000Z</Time>
            <Position>
              <LatitudeDegrees>44.64511164464056491851806640625</LatitudeDegrees>
              <LongitudeDegrees>-0.95079741440713405609130859375</LongitudeDegrees>
            </Position>
            <AltitudeMeters>15</AltitudeMeters>
            <DistanceMeters>NAN</DistanceMeters>
          </Trackpoint>
          <Trackpoint>
            <Time>2022-07-04T13:24:08.000Z</Time>
            <Position>
              <LatitudeDegrees>44.6450882591307163238525390625</LatitudeDegrees>
              <LongitudeDegrees>-0.95081015489995479583740234375</LongitudeDegrees>
            </Position>
            <AltitudeMeters>15</AltitudeMeters>
            <DistanceMeters>NAN</DistanceMeters>
          </Trackpoint>
          <Trackpoint>
            <Time>2022-07-04T13:24:14.000Z</Time>
            <Position>
              <LatitudeDegrees>44.64493478648364543914794921875</LatitudeDegrees>
              <LongitudeDegrees>-0.950864218175411224365234375</LongitudeDegrees>
            </Position>
            <AltitudeMeters>16</AltitudeMeters>
            <DistanceMeters>NAN</DistanceMeters>
          </Trackpoint>
          <Trackpoint>
            <Time>2022-07-04T13:24:16.000Z</Time>
            <Position>
              <LatitudeDegrees>44.64488868601620197296142578125</LatitudeDegrees>
              <LongitudeDegrees>-0.95088173635303974151611328125</LongitudeDegrees>
            </Position>
            <AltitudeMeters>16.200000762939453125</AltitudeMeters>
            <DistanceMeters>NAN</DistanceMeters>
          </Trackpoint>
          <Trackpoint>
            <Time>2022-07-04T13:24:21.000Z</Time>
            <Position>
              <LatitudeDegrees>44.644760526716709136962890625</LatitudeDegrees>
              <LongitudeDegrees>-0.95088928006589412689208984375</LongitudeDegrees>
            </Position>
            <AltitudeMeters>17</AltitudeMeters>
            <DistanceMeters>NAN</DistanceMeters>
          </Trackpoint>
          <Trackpoint>
            <Time>2022-07-04T13:24:25.000Z</Time>
            <Position>
              <LatitudeDegrees>44.64465768076479434967041015625</LatitudeDegrees>
              <LongitudeDegrees>-0.950873605906963348388671875</LongitudeDegrees>
            </Position>
            <AltitudeMeters>17.6000003814697265625</AltitudeMeters>
            <DistanceMeters>NAN</DistanceMeters>
          </Trackpoint>
          <Trackpoint>
            <Time>2022-07-04T13:24:29.000Z</Time>
            <Position>
              <LatitudeDegrees>44.6445467881858348846435546875</LatitudeDegrees>
              <LongitudeDegrees>-0.9508417546749114990234375</LongitudeDegrees>
            </Position>
            <AltitudeMeters>18.200000762939453125</AltitudeMeters>
            <DistanceMeters>NAN</DistanceMeters>
          </Trackpoint>
          <Trackpoint>
            <Time>2022-07-04T13:24:36.000Z</Time>
            <Position>
              <LatitudeDegrees>44.6443109214305877685546875</LatitudeDegrees>
              <LongitudeDegrees>-0.95076673664152622222900390625</LongitudeDegrees>
            </Position>
            <AltitudeMeters>17.799999237060546875</AltitudeMeters>
            <DistanceMeters>NAN</DistanceMeters>
          </Trackpoint>
          <Trackpoint>
            <Time>2022-07-04T13:24:40.000Z</Time>
            <Position>
              <LatitudeDegrees>44.64415979571640491485595703125</LatitudeDegrees>
              <LongitudeDegrees>-0.95073086209595203399658203125</LongitudeDegrees>
            </Position>
            <AltitudeMeters>17.6000003814697265625</AltitudeMeters>
            <DistanceMeters>NAN</DistanceMeters>
          </Trackpoint>
          <Trackpoint>
            <Time>2022-07-04T13:24:43.000Z</Time>
            <Position>
              <LatitudeDegrees>44.64403909631073474884033203125</LatitudeDegrees>
              <LongitudeDegrees>-0.950695909559726715087890625</LongitudeDegrees>
            </Position>
            <AltitudeMeters>17.6000003814697265625</AltitudeMeters>
            <DistanceMeters>NAN</DistanceMeters>
          </Trackpoint>
          <Trackpoint>
            <Time>2022-07-04T13:24:51.000Z</Time>
            <Position>
              <LatitudeDegrees>44.6437028981745243072509765625</LatitudeDegrees>
              <LongitudeDegrees>-0.95060261897742748260498046875</LongitudeDegrees>
            </Position>
            <AltitudeMeters>17.3999996185302734375</AltitudeMeters>
            <DistanceMeters>NAN</DistanceMeters>
          </Trackpoint>
          <Trackpoint>
            <Time>2022-07-04T13:24:52.000Z</Time>
            <Position>
              <LatitudeDegrees>44.64365755207836627960205078125</LatitudeDegrees>
              <LongitudeDegrees>-0.95059021376073360443115234375</LongitudeDegrees>
            </Position>
            <AltitudeMeters>17.3999996185302734375</AltitudeMeters>
            <DistanceMeters>NAN</DistanceMeters>
          </Trackpoint>
          <Trackpoint>
            <Time>2022-07-04T13:24:56.000Z</Time>
            <Position>
              <LatitudeDegrees>44.643481113016605377197265625</LatitudeDegrees>
              <LongitudeDegrees>-0.9505498968064785003662109375</LongitudeDegrees>
            </Position>
            <AltitudeMeters>17.200000762939453125</AltitudeMeters>
            <DistanceMeters>NAN</DistanceMeters>
          </Trackpoint>
          <Trackpoint>
            <Time>2022-07-04T13:25:01.000Z</Time>
            <Position>
              <LatitudeDegrees>44.64323108084499835968017578125</LatitudeDegrees>
              <LongitudeDegrees>-0.95051947049796581268310546875</LongitudeDegrees>
            </Position>
            <AltitudeMeters>16.6000003814697265625</AltitudeMeters>
            <DistanceMeters>NAN</DistanceMeters>
          </Trackpoint>
          <Trackpoint>
            <Time>2022-07-04T13:25:08.000Z</Time>
            <Position>
              <LatitudeDegrees>44.6428533084690570831298828125</LatitudeDegrees>
              <LongitudeDegrees>-0.95055408775806427001953125</LongitudeDegrees>
            </Position>
            <AltitudeMeters>16</AltitudeMeters>
            <DistanceMeters>NAN</DistanceMeters>
          </Trackpoint>
          <Trackpoint>
            <Time>2022-07-04T13:25:09.000Z</Time>
            <Position>
              <LatitudeDegrees>44.6427922882139682769775390625</LatitudeDegrees>
              <LongitudeDegrees>-0.95056758262217044830322265625</LongitudeDegrees>
            </Position>
            <AltitudeMeters>15.80000019073486328125</AltitudeMeters>
            <DistanceMeters>NAN</DistanceMeters>
          </Trackpoint>
          <Trackpoint>
            <Time>2022-07-04T13:25:13.000Z</Time>
            <Position>
              <LatitudeDegrees>44.64256220497190952301025390625</LatitudeDegrees>
              <LongitudeDegrees>-0.95064603723585605621337890625</LongitudeDegrees>
            </Position>
            <AltitudeMeters>15</AltitudeMeters>
            <DistanceMeters>NAN</DistanceMeters>
          </Trackpoint>
          <Trackpoint>
            <Time>2022-07-04T13:25:16.000Z</Time>
            <Position>
              <LatitudeDegrees>44.64240127243101596832275390625</LatitudeDegrees>
              <LongitudeDegrees>-0.9507359750568866729736328125</LongitudeDegrees>
            </Position>
            <AltitudeMeters>14.3999996185302734375</AltitudeMeters>
            <DistanceMeters>NAN</DistanceMeters>
          </Trackpoint>
          <Trackpoint>
            <Time>2022-07-04T13:25:19.000Z</Time>
            <Position>
              <LatitudeDegrees>44.64223380200564861297607421875</LatitudeDegrees>
              <LongitudeDegrees>-0.950836725533008575439453125</LongitudeDegrees>
            </Position>
            <AltitudeMeters>13.80000019073486328125</AltitudeMeters>
            <DistanceMeters>NAN</DistanceMeters>
          </Trackpoint>
          <Trackpoint>
            <Time>2022-07-04T13:25:21.000Z</Time>
            <Position>
              <LatitudeDegrees>44.64212768711149692535400390625</LatitudeDegrees>
              <LongitudeDegrees>-0.9509193710982799530029296875</LongitudeDegrees>
            </Position>
            <AltitudeMeters>13.3999996185302734375</AltitudeMeters>
            <DistanceMeters>NAN</DistanceMeters>
          </Trackpoint>
          <Trackpoint>
            <Time>2022-07-04T13:25:24.000Z</Time>
            <Position>
              <LatitudeDegrees>44.6419688500463962554931640625</LatitudeDegrees>
              <LongitudeDegrees>-0.95106127671897411346435546875</LongitudeDegrees>
            </Position>
            <AltitudeMeters>12.80000019073486328125</AltitudeMeters>
            <DistanceMeters>NAN</DistanceMeters>
          </Trackpoint>
          <Trackpoint>
            <Time>2022-07-04T13:25:25.000Z</Time>
            <Position>
              <LatitudeDegrees>44.64191612787544727325439453125</LatitudeDegrees>
              <LongitudeDegrees>-0.95111374743282794952392578125</LongitudeDegrees>
            </Position>
            <AltitudeMeters>12.80000019073486328125</AltitudeMeters>
            <DistanceMeters>NAN</DistanceMeters>
          </Trackpoint>
          <Trackpoint>
            <Time>2022-07-04T13:25:32.000Z</Time>
            <Position>
              <LatitudeDegrees>44.64159208349883556365966796875</LatitudeDegrees>
              <LongitudeDegrees>-0.95148347318172454833984375</LongitudeDegrees>
            </Position>
            <AltitudeMeters>11.3999996185302734375</AltitudeMeters>
            <DistanceMeters>NAN</DistanceMeters>
          </Trackpoint>
          <Trackpoint>
            <Time>2022-07-04T13:25:37.000Z</Time>
            <Position>
              <LatitudeDegrees>44.64145277626812458038330078125</LatitudeDegrees>
              <LongitudeDegrees>-0.951736271381378173828125</LongitudeDegrees>
            </Position>
            <AltitudeMeters>10.3999996185302734375</AltitudeMeters>
            <DistanceMeters>NAN</DistanceMeters>
          </Trackpoint>
          <Trackpoint>
            <Time>2022-07-04T13:25:41.000Z</Time>
            <Position>
              <LatitudeDegrees>44.64144271798431873321533203125</LatitudeDegrees>
              <LongitudeDegrees>-0.9519362635910511016845703125</LongitudeDegrees>
            </Position>
            <AltitudeMeters>9.80000019073486328125</AltitudeMeters>
            <DistanceMeters>NAN</DistanceMeters>
          </Trackpoint>
          <Trackpoint>
            <Time>2022-07-04T13:25:45.000Z</Time>
            <Position>
              <LatitudeDegrees>44.6414233557879924774169921875</LatitudeDegrees>
              <LongitudeDegrees>-0.952160060405731201171875</LongitudeDegrees>
            </Position>
            <AltitudeMeters>9.6000003814697265625</AltitudeMeters>
            <DistanceMeters>NAN</DistanceMeters>
          </Trackpoint>
          <Trackpoint>
            <Time>2022-07-04T13:25:50.000Z</Time>
            <Position>
              <LatitudeDegrees>44.64129972271621227264404296875</LatitudeDegrees>
              <LongitudeDegrees>-0.9523754753172397613525390625</LongitudeDegrees>
            </Position>
            <AltitudeMeters>9.6000003814697265625</AltitudeMeters>
            <DistanceMeters>NAN</DistanceMeters>
          </Trackpoint>
          <Trackpoint>
            <Time>2022-07-04T13:25:54.000Z</Time>
            <Position>
              <LatitudeDegrees>44.64128580875694751739501953125</LatitudeDegrees>
              <LongitudeDegrees>-0.95254738815128803253173828125</LongitudeDegrees>
            </Position>
            <AltitudeMeters>9.3999996185302734375</AltitudeMeters>
            <DistanceMeters>NAN</DistanceMeters>
          </Trackpoint>
          <Trackpoint>
            <Time>2022-07-04T13:25:55.000Z</Time>
            <Position>
              <LatitudeDegrees>44.64129268191754817962646484375</LatitudeDegrees>
              <LongitudeDegrees>-0.95257689245045185089111328125</LongitudeDegrees>
            </Position>
            <AltitudeMeters>9.19999980926513671875</AltitudeMeters>
            <DistanceMeters>NAN</DistanceMeters>
          </Trackpoint>
          <Trackpoint>
            <Time>2022-07-04T13:25:56.000Z</Time>
            <Position>
              <LatitudeDegrees>44.64130274020135402679443359375</LatitudeDegrees>
              <LongitudeDegrees>-0.95259684138000011444091796875</LongitudeDegrees>
            </Position>
            <AltitudeMeters>9.19999980926513671875</AltitudeMeters>
            <DistanceMeters>NAN</DistanceMeters>
          </Trackpoint>
          <Trackpoint>
            <Time>2022-07-04T13:25:58.000Z</Time>
            <Position>
              <LatitudeDegrees>44.6413254551589488983154296875</LatitudeDegrees>
              <LongitudeDegrees>-0.95261494629085063934326171875</LongitudeDegrees>
            </Position>
            <AltitudeMeters>8.80000019073486328125</AltitudeMeters>
            <DistanceMeters>NAN</DistanceMeters>
          </Trackpoint>
          <Trackpoint>
            <Time>2022-07-04T13:26:01.000Z</Time>
            <Position>
              <LatitudeDegrees>44.641330651938915252685546875</LatitudeDegrees>
              <LongitudeDegrees>-0.95261863432824611663818359375</LongitudeDegrees>
            </Position>
            <AltitudeMeters>8.6000003814697265625</AltitudeMeters>
            <DistanceMeters>NAN</DistanceMeters>
          </Trackpoint>
          <Trackpoint>
            <Time>2022-07-04T13:26:11.000Z</Time>
            <Position>
              <LatitudeDegrees>44.64139795862138271331787109375</LatitudeDegrees>
              <LongitudeDegrees>-0.952702201902866363525390625</LongitudeDegrees>
            </Position>
            <AltitudeMeters>8.80000019073486328125</AltitudeMeters>
            <DistanceMeters>NAN</DistanceMeters>
          </Trackpoint>
          <Trackpoint>
            <Time>2022-07-04T13:26:12.000Z</Time>
            <Position>
              <LatitudeDegrees>44.641409777104854583740234375</LatitudeDegrees>
              <LongitudeDegrees>-0.95271435566246509552001953125</LongitudeDegrees>
            </Position>
            <AltitudeMeters>8.6000003814697265625</AltitudeMeters>
            <DistanceMeters>NAN</DistanceMeters>
          </Trackpoint>
          <Trackpoint>
            <Time>2022-07-04T13:26:13.000Z</Time>
            <Position>
              <LatitudeDegrees>44.6414213441312313079833984375</LatitudeDegrees>
              <LongitudeDegrees>-0.95272131264209747314453125</LongitudeDegrees>
            </Position>
            <AltitudeMeters>8.6000003814697265625</AltitudeMeters>
            <DistanceMeters>NAN</DistanceMeters>
          </Trackpoint>
          <Trackpoint>
            <Time>2022-07-04T13:26:16.000Z</Time>
            <Position>
              <LatitudeDegrees>44.6414350904524326324462890625</LatitudeDegrees>
              <LongitudeDegrees>-0.95272592268884181976318359375</LongitudeDegrees>
            </Position>
            <AltitudeMeters>8.6000003814697265625</AltitudeMeters>
            <DistanceMeters>NAN</DistanceMeters>
          </Trackpoint>
          <Trackpoint>
            <Time>2022-07-04T13:44:31.000Z</Time>
            <Position>
              <LatitudeDegrees>44.6413851343095302581787109375</LatitudeDegrees>
              <LongitudeDegrees>-0.9527623839676380157470703125</LongitudeDegrees>
            </Position>
            <AltitudeMeters>6.80000019073486328125</AltitudeMeters>
            <DistanceMeters>NAN</DistanceMeters>
          </Trackpoint>
          <Trackpoint>
            <Time>2022-07-04T13:44:32.000Z</Time>
            <Position>
              <LatitudeDegrees>44.641375243663787841796875</LatitudeDegrees>
              <LongitudeDegrees>-0.95275484025478363037109375</LongitudeDegrees>
            </Position>
            <AltitudeMeters>6.80000019073486328125</AltitudeMeters>
            <DistanceMeters>NAN</DistanceMeters>
          </Trackpoint>
          <Trackpoint>
            <Time>2022-07-04T13:44:34.000Z</Time>
            <Position>
              <LatitudeDegrees>44.6413529478013515472412109375</LatitudeDegrees>
              <LongitudeDegrees>-0.9527278505265712738037109375</LongitudeDegrees>
            </Position>
            <AltitudeMeters>6.80000019073486328125</AltitudeMeters>
            <DistanceMeters>NAN</DistanceMeters>
          </Trackpoint>
          <Trackpoint>
            <Time>2022-07-04T13:44:38.000Z</Time>
            <Position>
              <LatitudeDegrees>44.64133056811988353729248046875</LatitudeDegrees>
              <LongitudeDegrees>-0.95268912613391876220703125</LongitudeDegrees>
            </Position>
            <AltitudeMeters>6.80000019073486328125</AltitudeMeters>
            <DistanceMeters>NAN</DistanceMeters>
          </Trackpoint>
          <Trackpoint>
            <Time>2022-07-04T13:44:40.000Z</Time>
            <Position>
              <LatitudeDegrees>44.64132922701537609100341796875</LatitudeDegrees>
              <LongitudeDegrees>-0.95268242061138153076171875</LongitudeDegrees>
            </Position>
            <AltitudeMeters>6.599999904632568359375</AltitudeMeters>
            <DistanceMeters>NAN</DistanceMeters>
          </Trackpoint>
          <Trackpoint>
            <Time>2022-07-04T14:02:08.000Z</Time>
            <Position>
              <LatitudeDegrees>44.6414035744965076446533203125</LatitudeDegrees>
              <LongitudeDegrees>-0.9527335502207279205322265625</LongitudeDegrees>
            </Position>
            <AltitudeMeters>6.19999980926513671875</AltitudeMeters>
            <DistanceMeters>NAN</DistanceMeters>
          </Trackpoint>
          <Trackpoint>
            <Time>2022-07-04T14:02:09.000Z</Time>
            <Position>
              <LatitudeDegrees>44.641408436000347137451171875</LatitudeDegrees>
              <LongitudeDegrees>-0.9527432732284069061279296875</LongitudeDegrees>
            </Position>
            <AltitudeMeters>6.19999980926513671875</AltitudeMeters>
            <DistanceMeters>NAN</DistanceMeters>
          </Trackpoint>
          <Trackpoint>
            <Time>2022-07-04T14:02:14.000Z</Time>
            <Position>
              <LatitudeDegrees>44.641435928642749786376953125</LatitudeDegrees>
              <LongitudeDegrees>-0.95277219079434871673583984375</LongitudeDegrees>
            </Position>
            <AltitudeMeters>7.400000095367431640625</AltitudeMeters>
            <DistanceMeters>NAN</DistanceMeters>
          </Trackpoint>
          <Trackpoint>
            <Time>2022-07-04T14:02:20.000Z</Time>
            <Position>
              <LatitudeDegrees>44.641461074352264404296875</LatitudeDegrees>
              <LongitudeDegrees>-0.95276355743408203125</LongitudeDegrees>
            </Position>
            <AltitudeMeters>7.80000019073486328125</AltitudeMeters>
            <DistanceMeters>NAN</DistanceMeters>
          </Trackpoint>
          <Trackpoint>
            <Time>2022-07-04T14:02:21.000Z</Time>
            <Position>
              <LatitudeDegrees>44.64145998470485210418701171875</LatitudeDegrees>
              <LongitudeDegrees>-0.95277101732790470123291015625</LongitudeDegrees>
            </Position>
            <AltitudeMeters>8</AltitudeMeters>
            <DistanceMeters>NAN</DistanceMeters>
          </Trackpoint>
          <Trackpoint>
            <Time>2022-07-04T14:02:23.000Z</Time>
            <Position>
              <LatitudeDegrees>44.641446657478809356689453125</LatitudeDegrees>
              <LongitudeDegrees>-0.9527744539082050323486328125</LongitudeDegrees>
            </Position>
            <AltitudeMeters>8.19999980926513671875</AltitudeMeters>
            <DistanceMeters>NAN</DistanceMeters>
          </Trackpoint>
          <Trackpoint>
            <Time>2022-07-04T14:03:02.000Z</Time>
            <Position>
              <LatitudeDegrees>44.641393013298511505126953125</LatitudeDegrees>
              <LongitudeDegrees>-0.9528723545372486114501953125</LongitudeDegrees>
            </Position>
            <AltitudeMeters>7.80000019073486328125</AltitudeMeters>
            <DistanceMeters>NAN</DistanceMeters>
          </Trackpoint>
          <Trackpoint>
            <Time>2022-07-04T14:03:03.000Z</Time>
            <Position>
              <LatitudeDegrees>44.64138664305210113525390625</LatitudeDegrees>
              <LongitudeDegrees>-0.9528790600597858428955078125</LongitudeDegrees>
            </Position>
            <AltitudeMeters>7.80000019073486328125</AltitudeMeters>
            <DistanceMeters>NAN</DistanceMeters>
          </Trackpoint>
          <Trackpoint>
            <Time>2022-07-04T14:03:05.000Z</Time>
            <Position>
              <LatitudeDegrees>44.64138220064342021942138671875</LatitudeDegrees>
              <LongitudeDegrees>-0.95286573283374309539794921875</LongitudeDegrees>
            </Position>
            <AltitudeMeters>8</AltitudeMeters>
            <DistanceMeters>NAN</DistanceMeters>
          </Trackpoint>
          <Trackpoint>
            <Time>2022-07-04T14:03:06.000Z</Time>
            <Position>
              <LatitudeDegrees>44.64137046597898006439208984375</LatitudeDegrees>
              <LongitudeDegrees>-0.952863804996013641357421875</LongitudeDegrees>
            </Position>
            <AltitudeMeters>8</AltitudeMeters>
            <DistanceMeters>NAN</DistanceMeters>
          </Trackpoint>
          <Trackpoint>
            <Time>2022-07-04T14:03:07.000Z</Time>
            <Position>
              <LatitudeDegrees>44.64136786758899688720703125</LatitudeDegrees>
              <LongitudeDegrees>-0.95286472700536251068115234375</LongitudeDegrees>
            </Position>
            <AltitudeMeters>8</AltitudeMeters>
            <DistanceMeters>NAN</DistanceMeters>
          </Trackpoint>
          <Trackpoint>
            <Time>2022-07-04T14:05:20.000Z</Time>
            <Position>
              <LatitudeDegrees>44.641340710222721099853515625</LatitudeDegrees>
              <LongitudeDegrees>-0.952943600714206695556640625</LongitudeDegrees>
            </Position>
            <AltitudeMeters>7.599999904632568359375</AltitudeMeters>
            <DistanceMeters>NAN</DistanceMeters>
          </Trackpoint>
          <Trackpoint>
            <Time>2022-07-04T14:05:21.000Z</Time>
            <Position>
              <LatitudeDegrees>44.6413392014801502227783203125</LatitudeDegrees>
              <LongitudeDegrees>-0.95294536091387271881103515625</LongitudeDegrees>
            </Position>
            <AltitudeMeters>7.599999904632568359375</AltitudeMeters>
            <DistanceMeters>NAN</DistanceMeters>
          </Trackpoint>
          <Trackpoint>
            <Time>2022-07-04T14:05:22.000Z</Time>
            <Position>
              <LatitudeDegrees>44.64134666137397289276123046875</LatitudeDegrees>
              <LongitudeDegrees>-0.9529459476470947265625</LongitudeDegrees>
            </Position>
            <AltitudeMeters>7.599999904632568359375</AltitudeMeters>
            <DistanceMeters>NAN</DistanceMeters>
          </Trackpoint>
          <Trackpoint>
            <Time>2022-07-04T14:05:26.000Z</Time>
            <Position>
              <LatitudeDegrees>44.641323946416378021240234375</LatitudeDegrees>
              <LongitudeDegrees>-0.95297033898532390594482421875</LongitudeDegrees>
            </Position>
            <AltitudeMeters>7.19999980926513671875</AltitudeMeters>
            <DistanceMeters>NAN</DistanceMeters>
          </Trackpoint>
          <Trackpoint>
            <Time>2022-07-04T14:05:27.000Z</Time>
            <Position>
              <LatitudeDegrees>44.64132118038833141326904296875</LatitudeDegrees>
              <LongitudeDegrees>-0.95295961014926433563232421875</LongitudeDegrees>
            </Position>
            <AltitudeMeters>7</AltitudeMeters>
            <DistanceMeters>NAN</DistanceMeters>
          </Trackpoint>
          <Trackpoint>
            <Time>2022-07-04T14:05:28.000Z</Time>
            <Position>
              <LatitudeDegrees>44.6413164027035236358642578125</LatitudeDegrees>
              <LongitudeDegrees>-0.95295759849250316619873046875</LongitudeDegrees>
            </Position>
            <AltitudeMeters>6.80000019073486328125</AltitudeMeters>
            <DistanceMeters>NAN</DistanceMeters>
          </Trackpoint>
          <Trackpoint>
            <Time>2022-07-04T14:05:30.000Z</Time>
            <Position>
              <LatitudeDegrees>44.64132788591086864471435546875</LatitudeDegrees>
              <LongitudeDegrees>-0.95297402702271938323974609375</LongitudeDegrees>
            </Position>
            <AltitudeMeters>6.80000019073486328125</AltitudeMeters>
            <DistanceMeters>NAN</DistanceMeters>
          </Trackpoint>
          <Trackpoint>
            <Time>2022-07-04T14:05:34.000Z</Time>
            <Position>
              <LatitudeDegrees>44.64135101996362209320068359375</LatitudeDegrees>
              <LongitudeDegrees>-0.95298073254525661468505859375</LongitudeDegrees>
            </Position>
            <AltitudeMeters>6.400000095367431640625</AltitudeMeters>
            <DistanceMeters>NAN</DistanceMeters>
          </Trackpoint>
          <Trackpoint>
            <Time>2022-07-04T14:05:35.000Z</Time>
            <Position>
              <LatitudeDegrees>44.64135185815393924713134765625</LatitudeDegrees>
              <LongitudeDegrees>-0.9529826603829860687255859375</LongitudeDegrees>
            </Position>
            <AltitudeMeters>6.400000095367431640625</AltitudeMeters>
            <DistanceMeters>NAN</DistanceMeters>
          </Trackpoint>
          <Trackpoint>
            <Time>2022-07-04T14:05:36.000Z</Time>
            <Position>
              <LatitudeDegrees>44.64135185815393924713134765625</LatitudeDegrees>
              <LongitudeDegrees>-0.9529826603829860687255859375</LongitudeDegrees>
            </Position>
            <AltitudeMeters>6.599999904632568359375</AltitudeMeters>
            <DistanceMeters>NAN</DistanceMeters>
          </Trackpoint>
          <Trackpoint>
            <Time>2022-07-04T14:09:59.000Z</Time>
            <Position>
              <LatitudeDegrees>44.6416126191616058349609375</LatitudeDegrees>
              <LongitudeDegrees>-0.95272072590887546539306640625</LongitudeDegrees>
            </Position>
            <AltitudeMeters>6.80000019073486328125</AltitudeMeters>
            <DistanceMeters>NAN</DistanceMeters>
          </Trackpoint>
          <Trackpoint>
            <Time>2022-07-04T14:10:00.000Z</Time>
            <Position>
              <LatitudeDegrees>44.64161002077162265777587890625</LatitudeDegrees>
              <LongitudeDegrees>-0.952723324298858642578125</LongitudeDegrees>
            </Position>
            <AltitudeMeters>6.80000019073486328125</AltitudeMeters>
            <DistanceMeters>NAN</DistanceMeters>
          </Trackpoint>
          <Trackpoint>
            <Time>2022-07-04T14:10:01.000Z</Time>
            <Position>
              <LatitudeDegrees>44.64160080067813396453857421875</LatitudeDegrees>
              <LongitudeDegrees>-0.95273313112556934356689453125</LongitudeDegrees>
            </Position>
            <AltitudeMeters>6.80000019073486328125</AltitudeMeters>
            <DistanceMeters>NAN</DistanceMeters>
          </Trackpoint>
          <Trackpoint>
            <Time>2022-07-04T14:10:03.000Z</Time>
            <Position>
              <LatitudeDegrees>44.64159660972654819488525390625</LatitudeDegrees>
              <LongitudeDegrees>-0.95274235121905803680419921875</LongitudeDegrees>
            </Position>
            <AltitudeMeters>7</AltitudeMeters>
            <DistanceMeters>NAN</DistanceMeters>
          </Trackpoint>
          <Trackpoint>
            <Time>2022-07-04T14:10:05.000Z</Time>
            <Position>
              <LatitudeDegrees>44.64159191586077213287353515625</LatitudeDegrees>
              <LongitudeDegrees>-0.9527434408664703369140625</LongitudeDegrees>
            </Position>
            <AltitudeMeters>7.19999980926513671875</AltitudeMeters>
            <DistanceMeters>NAN</DistanceMeters>
          </Trackpoint>
          <Trackpoint>
            <Time>2022-07-04T14:10:09.000Z</Time>
            <Position>
              <LatitudeDegrees>44.64158034883439540863037109375</LatitudeDegrees>
              <LongitudeDegrees>-0.9527405910193920135498046875</LongitudeDegrees>
            </Position>
            <AltitudeMeters>7.19999980926513671875</AltitudeMeters>
            <DistanceMeters>NAN</DistanceMeters>
          </Trackpoint>
          <Trackpoint>
            <Time>2022-07-04T14:12:09.000Z</Time>
            <Position>
              <LatitudeDegrees>44.64134967885911464691162109375</LatitudeDegrees>
              <LongitudeDegrees>-0.95287042669951915740966796875</LongitudeDegrees>
            </Position>
            <AltitudeMeters>6.599999904632568359375</AltitudeMeters>
            <DistanceMeters>NAN</DistanceMeters>
          </Trackpoint>
          <Trackpoint>
            <Time>2022-07-04T14:12:10.000Z</Time>
            <Position>
              <LatitudeDegrees>44.64134146459400653839111328125</LatitudeDegrees>
              <LongitudeDegrees>-0.9528760425746440887451171875</LongitudeDegrees>
            </Position>
            <AltitudeMeters>6.599999904632568359375</AltitudeMeters>
            <DistanceMeters>NAN</DistanceMeters>
          </Trackpoint>
          <Trackpoint>
            <Time>2022-07-04T14:12:11.000Z</Time>
            <Position>
              <LatitudeDegrees>44.6413378603756427764892578125</LatitudeDegrees>
              <LongitudeDegrees>-0.95288299955427646636962890625</LongitudeDegrees>
            </Position>
            <AltitudeMeters>6.80000019073486328125</AltitudeMeters>
            <DistanceMeters>NAN</DistanceMeters>
          </Trackpoint>
          <Trackpoint>
            <Time>2022-07-04T14:12:16.000Z</Time>
            <Position>
              <LatitudeDegrees>44.64134129695594310760498046875</LatitudeDegrees>
              <LongitudeDegrees>-0.95288819633424282073974609375</LongitudeDegrees>
            </Position>
            <AltitudeMeters>7</AltitudeMeters>
            <DistanceMeters>NAN</DistanceMeters>
          </Trackpoint>
          <Trackpoint>
            <Time>2022-07-04T14:12:19.000Z</Time>
            <Position>
              <LatitudeDegrees>44.6413402073085308074951171875</LatitudeDegrees>
              <LongitudeDegrees>-0.9528911300003528594970703125</LongitudeDegrees>
            </Position>
            <AltitudeMeters>7</AltitudeMeters>
            <DistanceMeters>NAN</DistanceMeters>
          </Trackpoint>
          <Trackpoint>
            <Time>2022-07-04T14:17:43.000Z</Time>
            <Position>
              <LatitudeDegrees>44.6413864754140377044677734375</LatitudeDegrees>
              <LongitudeDegrees>-0.95283622853457927703857421875</LongitudeDegrees>
            </Position>
            <AltitudeMeters>6.19999980926513671875</AltitudeMeters>
            <DistanceMeters>NAN</DistanceMeters>
          </Trackpoint>
          <Trackpoint>
            <Time>2022-07-04T14:17:45.000Z</Time>
            <Position>
              <LatitudeDegrees>44.6413573063910007476806640625</LatitudeDegrees>
              <LongitudeDegrees>-0.95281510613858699798583984375</LongitudeDegrees>
            </Position>
            <AltitudeMeters>7.19999980926513671875</AltitudeMeters>
            <DistanceMeters>NAN</DistanceMeters>
          </Trackpoint>
          <Trackpoint>
            <Time>2022-07-04T14:17:46.000Z</Time>
            <Position>
              <LatitudeDegrees>44.64134481735527515411376953125</LatitudeDegrees>
              <LongitudeDegrees>-0.9528052993118762969970703125</LongitudeDegrees>
            </Position>
            <AltitudeMeters>7.80000019073486328125</AltitudeMeters>
            <DistanceMeters>NAN</DistanceMeters>
          </Trackpoint>
          <Trackpoint>
            <Time>2022-07-04T14:17:47.000Z</Time>
            <Position>
              <LatitudeDegrees>44.64132872410118579864501953125</LatitudeDegrees>
              <LongitudeDegrees>-0.95279515720903873443603515625</LongitudeDegrees>
            </Position>
            <AltitudeMeters>8</AltitudeMeters>
            <DistanceMeters>NAN</DistanceMeters>
          </Trackpoint>
          <Trackpoint>
            <Time>2022-07-04T14:17:49.000Z</Time>
            <Position>
              <LatitudeDegrees>44.641317911446094512939453125</LatitudeDegrees>
              <LongitudeDegrees>-0.95277034677565097808837890625</LongitudeDegrees>
            </Position>
            <AltitudeMeters>8.19999980926513671875</AltitudeMeters>
            <DistanceMeters>NAN</DistanceMeters>
          </Trackpoint>
          <Trackpoint>
            <Time>2022-07-04T14:17:54.000Z</Time>
            <Position>
              <LatitudeDegrees>44.64132118038833141326904296875</LatitudeDegrees>
              <LongitudeDegrees>-0.9527154453098773956298828125</LongitudeDegrees>
            </Position>
            <AltitudeMeters>8.6000003814697265625</AltitudeMeters>
            <DistanceMeters>NAN</DistanceMeters>
          </Trackpoint>
          <Trackpoint>
            <Time>2022-07-04T14:17:55.000Z</Time>
            <Position>
              <LatitudeDegrees>44.64131011627614498138427734375</LatitudeDegrees>
              <LongitudeDegrees>-0.9527016989886760711669921875</LongitudeDegrees>
            </Position>
            <AltitudeMeters>8.6000003814697265625</AltitudeMeters>
            <DistanceMeters>NAN</DistanceMeters>
          </Trackpoint>
          <Trackpoint>
            <Time>2022-07-04T14:17:57.000Z</Time>
            <Position>
              <LatitudeDegrees>44.64129486121237277984619140625</LatitudeDegrees>
              <LongitudeDegrees>-0.95265853218734264373779296875</LongitudeDegrees>
            </Position>
            <AltitudeMeters>8.3999996185302734375</AltitudeMeters>
            <DistanceMeters>NAN</DistanceMeters>
          </Trackpoint>
          <Trackpoint>
            <Time>2022-07-04T14:17:59.000Z</Time>
            <Position>
              <LatitudeDegrees>44.6413039974868297576904296875</LatitudeDegrees>
              <LongitudeDegrees>-0.9525970928370952606201171875</LongitudeDegrees>
            </Position>
            <AltitudeMeters>9.19999980926513671875</AltitudeMeters>
            <DistanceMeters>NAN</DistanceMeters>
          </Trackpoint>
          <Trackpoint>
            <Time>2022-07-04T14:18:00.000Z</Time>
            <Position>
              <LatitudeDegrees>44.6413090266287326812744140625</LatitudeDegrees>
              <LongitudeDegrees>-0.95256331376731395721435546875</LongitudeDegrees>
            </Position>
            <AltitudeMeters>9.19999980926513671875</AltitudeMeters>
            <DistanceMeters>NAN</DistanceMeters>
          </Trackpoint>
          <Trackpoint>
            <Time>2022-07-04T14:18:02.000Z</Time>
            <Position>
              <LatitudeDegrees>44.641311205923557281494140625</LatitudeDegrees>
              <LongitudeDegrees>-0.95251536928117275238037109375</LongitudeDegrees>
            </Position>
            <AltitudeMeters>9.19999980926513671875</AltitudeMeters>
            <DistanceMeters>NAN</DistanceMeters>
          </Trackpoint>
          <Trackpoint>
            <Time>2022-07-04T14:18:03.000Z</Time>
            <Position>
              <LatitudeDegrees>44.641303159296512603759765625</LatitudeDegrees>
              <LongitudeDegrees>-0.9524978511035442352294921875</LongitudeDegrees>
            </Position>
            <AltitudeMeters>9.19999980926513671875</AltitudeMeters>
            <DistanceMeters>NAN</DistanceMeters>
          </Trackpoint>
          <Trackpoint>
            <Time>2022-07-04T14:18:05.000Z</Time>
            <Position>
              <LatitudeDegrees>44.6412798576056957244873046875</LatitudeDegrees>
              <LongitudeDegrees>-0.9524537622928619384765625</LongitudeDegrees>
            </Position>
            <AltitudeMeters>9.19999980926513671875</AltitudeMeters>
            <DistanceMeters>NAN</DistanceMeters>
          </Trackpoint>
          <Trackpoint>
            <Time>2022-07-04T14:18:10.000Z</Time>
            <Position>
              <LatitudeDegrees>44.6411752514541149139404296875</LatitudeDegrees>
              <LongitudeDegrees>-0.95232828520238399505615234375</LongitudeDegrees>
            </Position>
            <AltitudeMeters>9.19999980926513671875</AltitudeMeters>
            <DistanceMeters>NAN</DistanceMeters>
          </Trackpoint>
          <Trackpoint>
            <Time>2022-07-04T14:18:12.000Z</Time>
            <Position>
              <LatitudeDegrees>44.64111984707415103912353515625</LatitudeDegrees>
              <LongitudeDegrees>-0.9523062407970428466796875</LongitudeDegrees>
            </Position>
            <AltitudeMeters>9.19999980926513671875</AltitudeMeters>
            <DistanceMeters>NAN</DistanceMeters>
          </Trackpoint>
          <Trackpoint>
            <Time>2022-07-04T14:18:14.000Z</Time>
            <Position>
              <LatitudeDegrees>44.64106318540871143341064453125</LatitudeDegrees>
              <LongitudeDegrees>-0.95231738872826099395751953125</LongitudeDegrees>
            </Position>
            <AltitudeMeters>9.19999980926513671875</AltitudeMeters>
            <DistanceMeters>NAN</DistanceMeters>
          </Trackpoint>
          <Trackpoint>
            <Time>2022-07-04T14:18:16.000Z</Time>
            <Position>
              <LatitudeDegrees>44.6410230360925197601318359375</LatitudeDegrees>
              <LongitudeDegrees>-0.95236935652792453765869140625</LongitudeDegrees>
            </Position>
            <AltitudeMeters>9</AltitudeMeters>
            <DistanceMeters>NAN</DistanceMeters>
          </Trackpoint>
          <Trackpoint>
            <Time>2022-07-04T14:18:23.000Z</Time>
            <Position>
              <LatitudeDegrees>44.6408547274768352508544921875</LatitudeDegrees>
              <LongitudeDegrees>-0.95261561684310436248779296875</LongitudeDegrees>
            </Position>
            <AltitudeMeters>8.80000019073486328125</AltitudeMeters>
            <DistanceMeters>NAN</DistanceMeters>
          </Trackpoint>
          <Trackpoint>
            <Time>2022-07-04T14:18:33.000Z</Time>
            <Position>
              <LatitudeDegrees>44.64060670696198940277099609375</LatitudeDegrees>
              <LongitudeDegrees>-0.95303420908749103546142578125</LongitudeDegrees>
            </Position>
            <AltitudeMeters>8.80000019073486328125</AltitudeMeters>
            <DistanceMeters>NAN</DistanceMeters>
          </Trackpoint>
          <Trackpoint>
            <Time>2022-07-04T14:18:36.000Z</Time>
            <Position>
              <LatitudeDegrees>44.64052355848252773284912109375</LatitudeDegrees>
              <LongitudeDegrees>-0.95315675251185894012451171875</LongitudeDegrees>
            </Position>
            <AltitudeMeters>8.19999980926513671875</AltitudeMeters>
            <DistanceMeters>NAN</DistanceMeters>
          </Trackpoint>
          <Trackpoint>
            <Time>2022-07-04T14:18:37.000Z</Time>
            <Position>
              <LatitudeDegrees>44.64049279689788818359375</LatitudeDegrees>
              <LongitudeDegrees>-0.95319480635225772857666015625</LongitudeDegrees>
            </Position>
            <AltitudeMeters>8</AltitudeMeters>
            <DistanceMeters>NAN</DistanceMeters>
          </Trackpoint>
          <Trackpoint>
            <Time>2022-07-04T14:18:40.000Z</Time>
            <Position>
              <LatitudeDegrees>44.640418030321598052978515625</LatitudeDegrees>
              <LongitudeDegrees>-0.95330494455993175506591796875</LongitudeDegrees>
            </Position>
            <AltitudeMeters>7.599999904632568359375</AltitudeMeters>
            <DistanceMeters>NAN</DistanceMeters>
          </Trackpoint>
          <Trackpoint>
            <Time>2022-07-04T14:18:46.000Z</Time>
            <Position>
              <LatitudeDegrees>44.64025701396167278289794921875</LatitudeDegrees>
              <LongitudeDegrees>-0.95355623401701450347900390625</LongitudeDegrees>
            </Position>
            <AltitudeMeters>7.400000095367431640625</AltitudeMeters>
            <DistanceMeters>NAN</DistanceMeters>
          </Trackpoint>
          <Trackpoint>
            <Time>2022-07-04T14:18:49.000Z</Time>
            <Position>
              <LatitudeDegrees>44.64017093181610107421875</LatitudeDegrees>
              <LongitudeDegrees>-0.95368447713553905487060546875</LongitudeDegrees>
            </Position>
            <AltitudeMeters>7.400000095367431640625</AltitudeMeters>
            <DistanceMeters>NAN</DistanceMeters>
          </Trackpoint>
          <Trackpoint>
            <Time>2022-07-04T14:18:55.000Z</Time>
            <Position>
              <LatitudeDegrees>44.64000186882913112640380859375</LatitudeDegrees>
              <LongitudeDegrees>-0.9539569728076457977294921875</LongitudeDegrees>
            </Position>
            <AltitudeMeters>7.19999980926513671875</AltitudeMeters>
            <DistanceMeters>NAN</DistanceMeters>
          </Trackpoint>
          <Trackpoint>
            <Time>2022-07-04T14:18:58.000Z</Time>
            <Position>
              <LatitudeDegrees>44.63990581221878528594970703125</LatitudeDegrees>
              <LongitudeDegrees>-0.9540979564189910888671875</LongitudeDegrees>
            </Position>
            <AltitudeMeters>7.19999980926513671875</AltitudeMeters>
            <DistanceMeters>NAN</DistanceMeters>
          </Trackpoint>
          <Trackpoint>
            <Time>2022-07-04T14:18:59.000Z</Time>
            <Position>
              <LatitudeDegrees>44.63987463153898715972900390625</LatitudeDegrees>
              <LongitudeDegrees>-0.954143889248371124267578125</LongitudeDegrees>
            </Position>
            <AltitudeMeters>7.19999980926513671875</AltitudeMeters>
            <DistanceMeters>NAN</DistanceMeters>
          </Trackpoint>
          <Trackpoint>
            <Time>2022-07-04T14:19:00.000Z</Time>
            <Position>
              <LatitudeDegrees>44.6398445405066013336181640625</LatitudeDegrees>
              <LongitudeDegrees>-0.95418990589678287506103515625</LongitudeDegrees>
            </Position>
            <AltitudeMeters>7</AltitudeMeters>
            <DistanceMeters>NAN</DistanceMeters>
          </Trackpoint>
          <Trackpoint>
            <Time>2022-07-04T14:19:09.000Z</Time>
            <Position>
              <LatitudeDegrees>44.6395647525787353515625</LatitudeDegrees>
              <LongitudeDegrees>-0.9546102583408355712890625</LongitudeDegrees>
            </Position>
            <AltitudeMeters>7</AltitudeMeters>
            <DistanceMeters>NAN</DistanceMeters>
          </Trackpoint>
          <Trackpoint>
            <Time>2022-07-04T14:19:11.000Z</Time>
            <Position>
              <LatitudeDegrees>44.6394958533346652984619140625</LatitudeDegrees>
              <LongitudeDegrees>-0.95470254309475421905517578125</LongitudeDegrees>
            </Position>
            <AltitudeMeters>7</AltitudeMeters>
            <DistanceMeters>NAN</DistanceMeters>
          </Trackpoint>
          <Trackpoint>
            <Time>2022-07-04T14:19:13.000Z</Time>
            <Position>
              <LatitudeDegrees>44.63943399488925933837890625</LatitudeDegrees>
              <LongitudeDegrees>-0.95479742623865604400634765625</LongitudeDegrees>
            </Position>
            <AltitudeMeters>7</AltitudeMeters>
            <DistanceMeters>NAN</DistanceMeters>
          </Trackpoint>
          <Trackpoint>
            <Time>2022-07-04T14:19:16.000Z</Time>
            <Position>
              <LatitudeDegrees>44.63933768682181835174560546875</LatitudeDegrees>
              <LongitudeDegrees>-0.95493991859257221221923828125</LongitudeDegrees>
            </Position>
            <AltitudeMeters>6.80000019073486328125</AltitudeMeters>
            <DistanceMeters>NAN</DistanceMeters>
          </Trackpoint>
          <Trackpoint>
            <Time>2022-07-04T14:19:18.000Z</Time>
            <Position>
              <LatitudeDegrees>44.63927968405187129974365234375</LatitudeDegrees>
              <LongitudeDegrees>-0.95503471791744232177734375</LongitudeDegrees>
            </Position>
            <AltitudeMeters>6.80000019073486328125</AltitudeMeters>
            <DistanceMeters>NAN</DistanceMeters>
          </Trackpoint>
          <Trackpoint>
            <Time>2022-07-04T14:19:19.000Z</Time>
            <Position>
              <LatitudeDegrees>44.63925068266689777374267578125</LatitudeDegrees>
              <LongitudeDegrees>-0.9550791420042514801025390625</LongitudeDegrees>
            </Position>
            <AltitudeMeters>6.80000019073486328125</AltitudeMeters>
            <DistanceMeters>NAN</DistanceMeters>
          </Trackpoint>
          <Trackpoint>
            <Time>2022-07-04T14:19:20.000Z</Time>
            <Position>
              <LatitudeDegrees>44.6392195858061313629150390625</LatitudeDegrees>
              <LongitudeDegrees>-0.95512633211910724639892578125</LongitudeDegrees>
            </Position>
            <AltitudeMeters>6.599999904632568359375</AltitudeMeters>
            <DistanceMeters>NAN</DistanceMeters>
          </Trackpoint>
          <Trackpoint>
            <Time>2022-07-04T14:19:21.000Z</Time>
            <Position>
              <LatitudeDegrees>44.6391880698502063751220703125</LatitudeDegrees>
              <LongitudeDegrees>-0.9551708400249481201171875</LongitudeDegrees>
            </Position>
            <AltitudeMeters>6.599999904632568359375</AltitudeMeters>
            <DistanceMeters>NAN</DistanceMeters>
          </Trackpoint>
          <Trackpoint>
            <Time>2022-07-04T14:19:24.000Z</Time>
            <Position>
              <LatitudeDegrees>44.6390925161540508270263671875</LatitudeDegrees>
              <LongitudeDegrees>-0.9553103148937225341796875</LongitudeDegrees>
            </Position>
            <AltitudeMeters>6.400000095367431640625</AltitudeMeters>
            <DistanceMeters>NAN</DistanceMeters>
          </Trackpoint>
          <Trackpoint>
            <Time>2022-07-04T14:19:29.000Z</Time>
            <Position>
              <LatitudeDegrees>44.63894524611532688140869140625</LatitudeDegrees>
              <LongitudeDegrees>-0.955542661249637603759765625</LongitudeDegrees>
            </Position>
            <AltitudeMeters>6.599999904632568359375</AltitudeMeters>
            <DistanceMeters>NAN</DistanceMeters>
          </Trackpoint>
          <Trackpoint>
            <Time>2022-07-04T14:19:37.000Z</Time>
            <Position>
              <LatitudeDegrees>44.63870971463620662689208984375</LatitudeDegrees>
              <LongitudeDegrees>-0.95587952993810176849365234375</LongitudeDegrees>
            </Position>
            <AltitudeMeters>6</AltitudeMeters>
            <DistanceMeters>NAN</DistanceMeters>
          </Trackpoint>
          <Trackpoint>
            <Time>2022-07-04T14:19:38.000Z</Time>
            <Position>
              <LatitudeDegrees>44.63868238963186740875244140625</LatitudeDegrees>
              <LongitudeDegrees>-0.9559230320155620574951171875</LongitudeDegrees>
            </Position>
            <AltitudeMeters>5.80000019073486328125</AltitudeMeters>
            <DistanceMeters>NAN</DistanceMeters>
          </Trackpoint>
          <Trackpoint>
            <Time>2022-07-04T14:19:40.000Z</Time>
            <Position>
              <LatitudeDegrees>44.6386385522782802581787109375</LatitudeDegrees>
              <LongitudeDegrees>-0.95599989406764507293701171875</LongitudeDegrees>
            </Position>
            <AltitudeMeters>5.400000095367431640625</AltitudeMeters>
            <DistanceMeters>NAN</DistanceMeters>
          </Trackpoint>
          <Trackpoint>
            <Time>2022-07-04T14:19:42.000Z</Time>
            <Position>
              <LatitudeDegrees>44.6386167593300342559814453125</LatitudeDegrees>
              <LongitudeDegrees>-0.95603928901255130767822265625</LongitudeDegrees>
            </Position>
            <AltitudeMeters>5.19999980926513671875</AltitudeMeters>
            <DistanceMeters>NAN</DistanceMeters>
          </Trackpoint>
          <Trackpoint>
            <Time>2022-07-04T14:19:43.000Z</Time>
            <Position>
              <LatitudeDegrees>44.638612568378448486328125</LatitudeDegrees>
              <LongitudeDegrees>-0.9560430608689785003662109375</LongitudeDegrees>
            </Position>
            <AltitudeMeters>5.19999980926513671875</AltitudeMeters>
            <DistanceMeters>NAN</DistanceMeters>
          </Trackpoint>
          <Trackpoint>
            <Time>2022-07-04T14:19:44.000Z</Time>
            <Position>
              <LatitudeDegrees>44.638612568378448486328125</LatitudeDegrees>
              <LongitudeDegrees>-0.9560430608689785003662109375</LongitudeDegrees>
            </Position>
            <AltitudeMeters>5</AltitudeMeters>
            <DistanceMeters>NAN</DistanceMeters>
          </Trackpoint>
          <Trackpoint>
            <Time>2022-07-04T14:19:49.000Z</Time>
            <Position>
              <LatitudeDegrees>44.63858197443187236785888671875</LatitudeDegrees>
              <LongitudeDegrees>-0.95606393180787563323974609375</LongitudeDegrees>
            </Position>
            <AltitudeMeters>4.80000019073486328125</AltitudeMeters>
            <DistanceMeters>NAN</DistanceMeters>
          </Trackpoint>
          <Trackpoint>
            <Time>2022-07-04T14:19:52.000Z</Time>
            <Position>
              <LatitudeDegrees>44.63854727335274219512939453125</LatitudeDegrees>
              <LongitudeDegrees>-0.95614238642156124114990234375</LongitudeDegrees>
            </Position>
            <AltitudeMeters>4.80000019073486328125</AltitudeMeters>
            <DistanceMeters>NAN</DistanceMeters>
          </Trackpoint>
          <Trackpoint>
            <Time>2022-07-04T14:19:56.000Z</Time>
            <Position>
              <LatitudeDegrees>44.638457335531711578369140625</LatitudeDegrees>
              <LongitudeDegrees>-0.956281609833240509033203125</LongitudeDegrees>
            </Position>
            <AltitudeMeters>4.80000019073486328125</AltitudeMeters>
            <DistanceMeters>NAN</DistanceMeters>
          </Trackpoint>
          <Trackpoint>
            <Time>2022-07-04T14:19:57.000Z</Time>
            <Position>
              <LatitudeDegrees>44.63842908851802349090576171875</LatitudeDegrees>
              <LongitudeDegrees>-0.95631790347397327423095703125</LongitudeDegrees>
            </Position>
            <AltitudeMeters>4.80000019073486328125</AltitudeMeters>
            <DistanceMeters>NAN</DistanceMeters>
          </Trackpoint>
          <Trackpoint>
            <Time>2022-07-04T14:20:05.000Z</Time>
            <Position>
              <LatitudeDegrees>44.6382305212318897247314453125</LatitudeDegrees>
              <LongitudeDegrees>-0.9566165506839752197265625</LongitudeDegrees>
            </Position>
            <AltitudeMeters>4.400000095367431640625</AltitudeMeters>
            <DistanceMeters>NAN</DistanceMeters>
          </Trackpoint>
          <Trackpoint>
            <Time>2022-07-04T14:20:13.000Z</Time>
            <Position>
              <LatitudeDegrees>44.6380206383764743804931640625</LatitudeDegrees>
              <LongitudeDegrees>-0.95693095587193965911865234375</LongitudeDegrees>
            </Position>
            <AltitudeMeters>4.80000019073486328125</AltitudeMeters>
            <DistanceMeters>NAN</DistanceMeters>
          </Trackpoint>
          <Trackpoint>
            <Time>2022-07-04T14:20:23.000Z</Time>
            <Position>
              <LatitudeDegrees>44.637756608426570892333984375</LatitudeDegrees>
              <LongitudeDegrees>-0.95733697526156902313232421875</LongitudeDegrees>
            </Position>
            <AltitudeMeters>4.400000095367431640625</AltitudeMeters>
            <DistanceMeters>NAN</DistanceMeters>
          </Trackpoint>
          <Trackpoint>
            <Time>2022-07-04T14:20:28.000Z</Time>
            <Position>
              <LatitudeDegrees>44.6376240067183971405029296875</LatitudeDegrees>
              <LongitudeDegrees>-0.957554318010807037353515625</LongitudeDegrees>
            </Position>
            <AltitudeMeters>4</AltitudeMeters>
            <DistanceMeters>NAN</DistanceMeters>
          </Trackpoint>
          <Trackpoint>
            <Time>2022-07-04T14:20:32.000Z</Time>
            <Position>
              <LatitudeDegrees>44.637518227100372314453125</LatitudeDegrees>
              <LongitudeDegrees>-0.9577296674251556396484375</LongitudeDegrees>
            </Position>
            <AltitudeMeters>3.7999999523162841796875</AltitudeMeters>
            <DistanceMeters>NAN</DistanceMeters>
          </Trackpoint>
          <Trackpoint>
            <Time>2022-07-04T14:20:34.000Z</Time>
            <Position>
              <LatitudeDegrees>44.637470282614231109619140625</LatitudeDegrees>
              <LongitudeDegrees>-0.95781424082815647125244140625</LongitudeDegrees>
            </Position>
            <AltitudeMeters>3.7999999523162841796875</AltitudeMeters>
            <DistanceMeters>NAN</DistanceMeters>
          </Trackpoint>
          <Trackpoint>
            <Time>2022-07-04T14:20:36.000Z</Time>
            <Position>
              <LatitudeDegrees>44.6374235115945339202880859375</LatitudeDegrees>
              <LongitudeDegrees>-0.95790660940110683441162109375</LongitudeDegrees>
            </Position>
            <AltitudeMeters>3.7999999523162841796875</AltitudeMeters>
            <DistanceMeters>NAN</DistanceMeters>
          </Trackpoint>
          <Trackpoint>
            <Time>2022-07-04T14:20:38.000Z</Time>
            <Position>
              <LatitudeDegrees>44.63738101534545421600341796875</LatitudeDegrees>
              <LongitudeDegrees>-0.95800526440143585205078125</LongitudeDegrees>
            </Position>
            <AltitudeMeters>3.599999904632568359375</AltitudeMeters>
            <DistanceMeters>NAN</DistanceMeters>
          </Trackpoint>
          <Trackpoint>
            <Time>2022-07-04T14:20:39.000Z</Time>
            <Position>
              <LatitudeDegrees>44.6373624913394451141357421875</LatitudeDegrees>
              <LongitudeDegrees>-0.95805362798273563385009765625</LongitudeDegrees>
            </Position>
            <AltitudeMeters>3.400000095367431640625</AltitudeMeters>
            <DistanceMeters>NAN</DistanceMeters>
          </Trackpoint>
          <Trackpoint>
            <Time>2022-07-04T14:20:42.000Z</Time>
            <Position>
              <LatitudeDegrees>44.63734312914311885833740234375</LatitudeDegrees>
              <LongitudeDegrees>-0.95817516557872295379638671875</LongitudeDegrees>
            </Position>
            <AltitudeMeters>3.2000000476837158203125</AltitudeMeters>
            <DistanceMeters>NAN</DistanceMeters>
          </Trackpoint>
          <Trackpoint>
            <Time>2022-07-04T14:20:44.000Z</Time>
            <Position>
              <LatitudeDegrees>44.63734715245664119720458984375</LatitudeDegrees>
              <LongitudeDegrees>-0.95823903568089008331298828125</LongitudeDegrees>
            </Position>
            <AltitudeMeters>3</AltitudeMeters>
            <DistanceMeters>NAN</DistanceMeters>
          </Trackpoint>
          <Trackpoint>
            <Time>2022-07-04T14:20:49.000Z</Time>
            <Position>
              <LatitudeDegrees>44.63735000230371952056884765625</LatitudeDegrees>
              <LongitudeDegrees>-0.958404578268527984619140625</LongitudeDegrees>
            </Position>
            <AltitudeMeters>3.2000000476837158203125</AltitudeMeters>
            <DistanceMeters>NAN</DistanceMeters>
          </Trackpoint>
          <Trackpoint>
            <Time>2022-07-04T14:20:54.000Z</Time>
            <Position>
              <LatitudeDegrees>44.6373041532933712005615234375</LatitudeDegrees>
              <LongitudeDegrees>-0.95853357575833797454833984375</LongitudeDegrees>
            </Position>
            <AltitudeMeters>3</AltitudeMeters>
            <DistanceMeters>NAN</DistanceMeters>
          </Trackpoint>
          <Trackpoint>
            <Time>2022-07-04T14:20:55.000Z</Time>
            <Position>
              <LatitudeDegrees>44.63730960153043270111083984375</LatitudeDegrees>
              <LongitudeDegrees>-0.95855176448822021484375</LongitudeDegrees>
            </Position>
            <AltitudeMeters>2.7999999523162841796875</AltitudeMeters>
            <DistanceMeters>NAN</DistanceMeters>
          </Trackpoint>
          <Trackpoint>
            <Time>2022-07-04T14:20:58.000Z</Time>
            <Position>
              <LatitudeDegrees>44.63736542500555515289306640625</LatitudeDegrees>
              <LongitudeDegrees>-0.95857531763613224029541015625</LongitudeDegrees>
            </Position>
            <AltitudeMeters>2.599999904632568359375</AltitudeMeters>
            <DistanceMeters>NAN</DistanceMeters>
          </Trackpoint>
          <Trackpoint>
            <Time>2022-07-04T14:21:00.000Z</Time>
            <Position>
              <LatitudeDegrees>44.63739979080855846405029296875</LatitudeDegrees>
              <LongitudeDegrees>-0.958608090877532958984375</LongitudeDegrees>
            </Position>
            <AltitudeMeters>2.599999904632568359375</AltitudeMeters>
            <DistanceMeters>NAN</DistanceMeters>
          </Trackpoint>
          <Trackpoint>
            <Time>2022-07-04T14:21:03.000Z</Time>
            <Position>
              <LatitudeDegrees>44.63740565814077854156494140625</LatitudeDegrees>
              <LongitudeDegrees>-0.958613455295562744140625</LongitudeDegrees>
            </Position>
            <AltitudeMeters>2.400000095367431640625</AltitudeMeters>
            <DistanceMeters>NAN</DistanceMeters>
          </Trackpoint>
          <Trackpoint>
            <Time>2022-07-04T14:21:37.000Z</Time>
            <Position>
              <LatitudeDegrees>44.6373728848993778228759765625</LatitudeDegrees>
              <LongitudeDegrees>-0.95859593711793422698974609375</LongitudeDegrees>
            </Position>
            <AltitudeMeters>2.400000095367431640625</AltitudeMeters>
            <DistanceMeters>NAN</DistanceMeters>
          </Trackpoint>
          <Trackpoint>
            <Time>2022-07-04T14:21:43.000Z</Time>
            <Position>
              <LatitudeDegrees>44.6372364275157451629638671875</LatitudeDegrees>
              <LongitudeDegrees>-0.95855385996401309967041015625</LongitudeDegrees>
            </Position>
            <AltitudeMeters>2.599999904632568359375</AltitudeMeters>
            <DistanceMeters>NAN</DistanceMeters>
          </Trackpoint>
          <Trackpoint>
            <Time>2022-07-04T14:21:48.000Z</Time>
            <Position>
              <LatitudeDegrees>44.6371147222816944122314453125</LatitudeDegrees>
              <LongitudeDegrees>-0.9585817717015743255615234375</LongitudeDegrees>
            </Position>
            <AltitudeMeters>2.400000095367431640625</AltitudeMeters>
            <DistanceMeters>NAN</DistanceMeters>
          </Trackpoint>
          <Trackpoint>
            <Time>2022-07-04T14:21:49.000Z</Time>
            <Position>
              <LatitudeDegrees>44.63707901537418365478515625</LatitudeDegrees>
              <LongitudeDegrees>-0.958582945168018341064453125</LongitudeDegrees>
            </Position>
            <AltitudeMeters>2.400000095367431640625</AltitudeMeters>
            <DistanceMeters>NAN</DistanceMeters>
          </Trackpoint>
          <Trackpoint>
            <Time>2022-07-04T14:21:54.000Z</Time>
            <Position>
              <LatitudeDegrees>44.6369053423404693603515625</LatitudeDegrees>
              <LongitudeDegrees>-0.9586853720247745513916015625</LongitudeDegrees>
            </Position>
            <AltitudeMeters>2.599999904632568359375</AltitudeMeters>
            <DistanceMeters>NAN</DistanceMeters>
          </Trackpoint>
          <Trackpoint>
            <Time>2022-07-04T14:22:04.000Z</Time>
            <Position>
              <LatitudeDegrees>44.63661767542362213134765625</LatitudeDegrees>
              <LongitudeDegrees>-0.9590662457048892974853515625</LongitudeDegrees>
            </Position>
            <AltitudeMeters>2.599999904632568359375</AltitudeMeters>
            <DistanceMeters>NAN</DistanceMeters>
          </Trackpoint>
          <Trackpoint>
            <Time>2022-07-04T14:22:13.000Z</Time>
            <Position>
              <LatitudeDegrees>44.6363653801381587982177734375</LatitudeDegrees>
              <LongitudeDegrees>-0.9594511426985263824462890625</LongitudeDegrees>
            </Position>
            <AltitudeMeters>2.400000095367431640625</AltitudeMeters>
            <DistanceMeters>NAN</DistanceMeters>
          </Trackpoint>
          <Trackpoint>
            <Time>2022-07-04T14:22:21.000Z</Time>
            <Position>
              <LatitudeDegrees>44.63611450977623462677001953125</LatitudeDegrees>
              <LongitudeDegrees>-0.95977426506578922271728515625</LongitudeDegrees>
            </Position>
            <AltitudeMeters>2.2000000476837158203125</AltitudeMeters>
            <DistanceMeters>NAN</DistanceMeters>
          </Trackpoint>
          <Trackpoint>
            <Time>2022-07-04T14:22:24.000Z</Time>
            <Position>
              <LatitudeDegrees>44.63601308874785900115966796875</LatitudeDegrees>
              <LongitudeDegrees>-0.95990854315459728240966796875</LongitudeDegrees>
            </Position>
            <AltitudeMeters>2.2000000476837158203125</AltitudeMeters>
            <DistanceMeters>NAN</DistanceMeters>
          </Trackpoint>
          <Trackpoint>
            <Time>2022-07-04T14:22:26.000Z</Time>
            <Position>
              <LatitudeDegrees>44.63595382869243621826171875</LatitudeDegrees>
              <LongitudeDegrees>-0.95999202691018581390380859375</LongitudeDegrees>
            </Position>
            <AltitudeMeters>2.2000000476837158203125</AltitudeMeters>
            <DistanceMeters>NAN</DistanceMeters>
          </Trackpoint>
          <Trackpoint>
            <Time>2022-07-04T14:22:27.000Z</Time>
            <Position>
              <LatitudeDegrees>44.63591895997524261474609375</LatitudeDegrees>
              <LongitudeDegrees>-0.96003192476928234100341796875</LongitudeDegrees>
            </Position>
            <AltitudeMeters>2.2000000476837158203125</AltitudeMeters>
            <DistanceMeters>NAN</DistanceMeters>
          </Trackpoint>
          <Trackpoint>
            <Time>2022-07-04T14:22:28.000Z</Time>
            <Position>
              <LatitudeDegrees>44.635882079601287841796875</LatitudeDegrees>
              <LongitudeDegrees>-0.96006981097161769866943359375</LongitudeDegrees>
            </Position>
            <AltitudeMeters>2.2000000476837158203125</AltitudeMeters>
            <DistanceMeters>NAN</DistanceMeters>
          </Trackpoint>
          <Trackpoint>
            <Time>2022-07-04T14:22:29.000Z</Time>
            <Position>
              <LatitudeDegrees>44.63584612123668193817138671875</LatitudeDegrees>
              <LongitudeDegrees>-0.96010677516460418701171875</LongitudeDegrees>
            </Position>
            <AltitudeMeters>2</AltitudeMeters>
            <DistanceMeters>NAN</DistanceMeters>
          </Trackpoint>
          <Trackpoint>
            <Time>2022-07-04T14:22:33.000Z</Time>
            <Position>
              <LatitudeDegrees>44.63570312596857547760009765625</LatitudeDegrees>
              <LongitudeDegrees>-0.96026862971484661102294921875</LongitudeDegrees>
            </Position>
            <AltitudeMeters>2</AltitudeMeters>
            <DistanceMeters>NAN</DistanceMeters>
          </Trackpoint>
          <Trackpoint>
            <Time>2022-07-04T14:22:42.000Z</Time>
            <Position>
              <LatitudeDegrees>44.6353515051305294036865234375</LatitudeDegrees>
              <LongitudeDegrees>-0.96052729524672031402587890625</LongitudeDegrees>
            </Position>
            <AltitudeMeters>1.7999999523162841796875</AltitudeMeters>
            <DistanceMeters>NAN</DistanceMeters>
          </Trackpoint>
          <Trackpoint>
            <Time>2022-07-04T14:22:47.000Z</Time>
            <Position>
              <LatitudeDegrees>44.6351627446711063385009765625</LatitudeDegrees>
              <LongitudeDegrees>-0.9606640040874481201171875</LongitudeDegrees>
            </Position>
            <AltitudeMeters>1.7999999523162841796875</AltitudeMeters>
            <DistanceMeters>NAN</DistanceMeters>
          </Trackpoint>
          <Trackpoint>
            <Time>2022-07-04T14:22:48.000Z</Time>
            <Position>
              <LatitudeDegrees>44.635125696659088134765625</LatitudeDegrees>
              <LongitudeDegrees>-0.96069543622434139251708984375</LongitudeDegrees>
            </Position>
            <AltitudeMeters>1.7999999523162841796875</AltitudeMeters>
            <DistanceMeters>NAN</DistanceMeters>
          </Trackpoint>
          <Trackpoint>
            <Time>2022-07-04T14:22:49.000Z</Time>
            <Position>
              <LatitudeDegrees>44.63508890010416507720947265625</LatitudeDegrees>
              <LongitudeDegrees>-0.96072510816156864166259765625</LongitudeDegrees>
            </Position>
            <AltitudeMeters>1.7999999523162841796875</AltitudeMeters>
            <DistanceMeters>NAN</DistanceMeters>
          </Trackpoint>
          <Trackpoint>
            <Time>2022-07-04T14:22:51.000Z</Time>
            <Position>
              <LatitudeDegrees>44.6350170671939849853515625</LatitudeDegrees>
              <LongitudeDegrees>-0.9607791714370250701904296875</LongitudeDegrees>
            </Position>
            <AltitudeMeters>2.2000000476837158203125</AltitudeMeters>
            <DistanceMeters>NAN</DistanceMeters>
          </Trackpoint>
          <Trackpoint>
            <Time>2022-07-04T14:22:54.000Z</Time>
            <Position>
              <LatitudeDegrees>44.63490885682404041290283203125</LatitudeDegrees>
              <LongitudeDegrees>-0.9608576260507106781005859375</LongitudeDegrees>
            </Position>
            <AltitudeMeters>2.2000000476837158203125</AltitudeMeters>
            <DistanceMeters>NAN</DistanceMeters>
          </Trackpoint>
          <Trackpoint>
            <Time>2022-07-04T14:23:02.000Z</Time>
            <Position>
              <LatitudeDegrees>44.63460610248148441314697265625</LatitudeDegrees>
              <LongitudeDegrees>-0.961070694029331207275390625</LongitudeDegrees>
            </Position>
            <AltitudeMeters>2.400000095367431640625</AltitudeMeters>
            <DistanceMeters>NAN</DistanceMeters>
          </Trackpoint>
          <Trackpoint>
            <Time>2022-07-04T14:23:11.000Z</Time>
            <Position>
              <LatitudeDegrees>44.6342732571065425872802734375</LatitudeDegrees>
              <LongitudeDegrees>-0.96131519414484500885009765625</LongitudeDegrees>
            </Position>
            <AltitudeMeters>2.7999999523162841796875</AltitudeMeters>
            <DistanceMeters>NAN</DistanceMeters>
          </Trackpoint>
          <Trackpoint>
            <Time>2022-07-04T14:23:17.000Z</Time>
            <Position>
              <LatitudeDegrees>44.63405474089086055755615234375</LatitudeDegrees>
              <LongitudeDegrees>-0.9614634700119495391845703125</LongitudeDegrees>
            </Position>
            <AltitudeMeters>2.7999999523162841796875</AltitudeMeters>
            <DistanceMeters>NAN</DistanceMeters>
          </Trackpoint>
          <Trackpoint>
            <Time>2022-07-04T14:23:19.000Z</Time>
            <Position>
              <LatitudeDegrees>44.6339805610477924346923828125</LatitudeDegrees>
              <LongitudeDegrees>-0.961515940725803375244140625</LongitudeDegrees>
            </Position>
            <AltitudeMeters>2.7999999523162841796875</AltitudeMeters>
            <DistanceMeters>NAN</DistanceMeters>
          </Trackpoint>
          <Trackpoint>
            <Time>2022-07-04T14:23:30.000Z</Time>
            <Position>
              <LatitudeDegrees>44.6335755474865436553955078125</LatitudeDegrees>
              <LongitudeDegrees>-0.9618188627064228057861328125</LongitudeDegrees>
            </Position>
            <AltitudeMeters>3</AltitudeMeters>
            <DistanceMeters>NAN</DistanceMeters>
          </Trackpoint>
          <Trackpoint>
            <Time>2022-07-04T14:23:34.000Z</Time>
            <Position>
              <LatitudeDegrees>44.63349600322544574737548828125</LatitudeDegrees>
              <LongitudeDegrees>-0.96190544776618480682373046875</LongitudeDegrees>
            </Position>
            <AltitudeMeters>2.599999904632568359375</AltitudeMeters>
            <DistanceMeters>NAN</DistanceMeters>
          </Trackpoint>
          <Trackpoint>
            <Time>2022-07-04T14:23:39.000Z</Time>
            <Position>
              <LatitudeDegrees>44.6333542652428150177001953125</LatitudeDegrees>
              <LongitudeDegrees>-0.9619975648820400238037109375</LongitudeDegrees>
            </Position>
            <AltitudeMeters>2.599999904632568359375</AltitudeMeters>
            <DistanceMeters>NAN</DistanceMeters>
          </Trackpoint>
          <Trackpoint>
            <Time>2022-07-04T14:23:45.000Z</Time>
            <Position>
              <LatitudeDegrees>44.6332288719713687896728515625</LatitudeDegrees>
              <LongitudeDegrees>-0.962161011993885040283203125</LongitudeDegrees>
            </Position>
            <AltitudeMeters>2.599999904632568359375</AltitudeMeters>
            <DistanceMeters>NAN</DistanceMeters>
          </Trackpoint>
          <Trackpoint>
            <Time>2022-07-04T14:23:49.000Z</Time>
            <Position>
              <LatitudeDegrees>44.63321386836469173431396484375</LatitudeDegrees>
              <LongitudeDegrees>-0.96231331117451190948486328125</LongitudeDegrees>
            </Position>
            <AltitudeMeters>2.400000095367431640625</AltitudeMeters>
            <DistanceMeters>NAN</DistanceMeters>
          </Trackpoint>
          <Trackpoint>
            <Time>2022-07-04T14:23:53.000Z</Time>
            <Position>
              <LatitudeDegrees>44.6331738866865634918212890625</LatitudeDegrees>
              <LongitudeDegrees>-0.962505340576171875</LongitudeDegrees>
            </Position>
            <AltitudeMeters>2.400000095367431640625</AltitudeMeters>
            <DistanceMeters>NAN</DistanceMeters>
          </Trackpoint>
          <Trackpoint>
            <Time>2022-07-04T14:23:54.000Z</Time>
            <Position>
              <LatitudeDegrees>44.63316525332629680633544921875</LatitudeDegrees>
              <LongitudeDegrees>-0.962562672793865203857421875</LongitudeDegrees>
            </Position>
            <AltitudeMeters>2.2000000476837158203125</AltitudeMeters>
            <DistanceMeters>NAN</DistanceMeters>
          </Trackpoint>
          <Trackpoint>
            <Time>2022-07-04T14:23:58.000Z</Time>
            <Position>
              <LatitudeDegrees>44.6331883035600185394287109375</LatitudeDegrees>
              <LongitudeDegrees>-0.96278001554310321807861328125</LongitudeDegrees>
            </Position>
            <AltitudeMeters>2.2000000476837158203125</AltitudeMeters>
            <DistanceMeters>NAN</DistanceMeters>
          </Trackpoint>
          <Trackpoint>
            <Time>2022-07-04T14:24:00.000Z</Time>
            <Position>
              <LatitudeDegrees>44.6332494914531707763671875</LatitudeDegrees>
              <LongitudeDegrees>-0.96288286149501800537109375</LongitudeDegrees>
            </Position>
            <AltitudeMeters>2.2000000476837158203125</AltitudeMeters>
            <DistanceMeters>NAN</DistanceMeters>
          </Trackpoint>
          <Trackpoint>
            <Time>2022-07-04T14:24:02.000Z</Time>
            <Position>
              <LatitudeDegrees>44.63331813924014568328857421875</LatitudeDegrees>
              <LongitudeDegrees>-0.962953604757785797119140625</LongitudeDegrees>
            </Position>
            <AltitudeMeters>2.2000000476837158203125</AltitudeMeters>
            <DistanceMeters>NAN</DistanceMeters>
          </Trackpoint>
          <Trackpoint>
            <Time>2022-07-04T14:24:03.000Z</Time>
            <Position>
              <LatitudeDegrees>44.63334781117737293243408203125</LatitudeDegrees>
              <LongitudeDegrees>-0.96297807991504669189453125</LongitudeDegrees>
            </Position>
            <AltitudeMeters>2.2000000476837158203125</AltitudeMeters>
            <DistanceMeters>NAN</DistanceMeters>
          </Trackpoint>
          <Trackpoint>
            <Time>2022-07-04T14:24:10.000Z</Time>
            <Position>
              <LatitudeDegrees>44.63358677923679351806640625</LatitudeDegrees>
              <LongitudeDegrees>-0.96318704076111316680908203125</LongitudeDegrees>
            </Position>
            <AltitudeMeters>2</AltitudeMeters>
            <DistanceMeters>NAN</DistanceMeters>
          </Trackpoint>
          <Trackpoint>
            <Time>2022-07-04T14:24:18.000Z</Time>
            <Position>
              <LatitudeDegrees>44.63389799930155277252197265625</LatitudeDegrees>
              <LongitudeDegrees>-0.963460542261600494384765625</LongitudeDegrees>
            </Position>
            <AltitudeMeters>2.2000000476837158203125</AltitudeMeters>
            <DistanceMeters>NAN</DistanceMeters>
          </Trackpoint>
          <Trackpoint>
            <Time>2022-07-04T14:24:22.000Z</Time>
            <Position>
              <LatitudeDegrees>44.63403948582708835601806640625</LatitudeDegrees>
              <LongitudeDegrees>-0.963579230010509490966796875</LongitudeDegrees>
            </Position>
            <AltitudeMeters>2.2000000476837158203125</AltitudeMeters>
            <DistanceMeters>NAN</DistanceMeters>
          </Trackpoint>
          <Trackpoint>
            <Time>2022-07-04T14:24:28.000Z</Time>
            <Position>
              <LatitudeDegrees>44.6342635340988636016845703125</LatitudeDegrees>
              <LongitudeDegrees>-0.9637936390936374664306640625</LongitudeDegrees>
            </Position>
            <AltitudeMeters>2.2000000476837158203125</AltitudeMeters>
            <DistanceMeters>NAN</DistanceMeters>
          </Trackpoint>
          <Trackpoint>
            <Time>2022-07-04T14:24:30.000Z</Time>
            <Position>
              <LatitudeDegrees>44.63434006087481975555419921875</LatitudeDegrees>
              <LongitudeDegrees>-0.9638553299009799957275390625</LongitudeDegrees>
            </Position>
            <AltitudeMeters>2.2000000476837158203125</AltitudeMeters>
            <DistanceMeters>NAN</DistanceMeters>
          </Trackpoint>
          <Trackpoint>
            <Time>2022-07-04T14:24:33.000Z</Time>
            <Position>
              <LatitudeDegrees>44.63444315828382968902587890625</LatitudeDegrees>
              <LongitudeDegrees>-0.96394677646458148956298828125</LongitudeDegrees>
            </Position>
            <AltitudeMeters>2.400000095367431640625</AltitudeMeters>
            <DistanceMeters>NAN</DistanceMeters>
          </Trackpoint>
          <Trackpoint>
            <Time>2022-07-04T14:24:34.000Z</Time>
            <Position>
              <LatitudeDegrees>44.63447182439267635345458984375</LatitudeDegrees>
              <LongitudeDegrees>-0.96397594548761844635009765625</LongitudeDegrees>
            </Position>
            <AltitudeMeters>2.400000095367431640625</AltitudeMeters>
            <DistanceMeters>NAN</DistanceMeters>
          </Trackpoint>
          <Trackpoint>
            <Time>2022-07-04T14:24:41.000Z</Time>
            <Position>
              <LatitudeDegrees>44.634688161313533782958984375</LatitudeDegrees>
              <LongitudeDegrees>-0.9641631133854389190673828125</LongitudeDegrees>
            </Position>
            <AltitudeMeters>2.599999904632568359375</AltitudeMeters>
            <DistanceMeters>NAN</DistanceMeters>
          </Trackpoint>
          <Trackpoint>
            <Time>2022-07-04T14:24:44.000Z</Time>
            <Position>
              <LatitudeDegrees>44.6347795240581035614013671875</LatitudeDegrees>
              <LongitudeDegrees>-0.9642553143203258514404296875</LongitudeDegrees>
            </Position>
            <AltitudeMeters>2.599999904632568359375</AltitudeMeters>
            <DistanceMeters>NAN</DistanceMeters>
          </Trackpoint>
          <Trackpoint>
            <Time>2022-07-04T14:24:48.000Z</Time>
            <Position>
              <LatitudeDegrees>44.634906090795993804931640625</LatitudeDegrees>
              <LongitudeDegrees>-0.96437416970729827880859375</LongitudeDegrees>
            </Position>
            <AltitudeMeters>2.599999904632568359375</AltitudeMeters>
            <DistanceMeters>NAN</DistanceMeters>
          </Trackpoint>
          <Trackpoint>
            <Time>2022-07-04T14:24:59.000Z</Time>
            <Position>
              <LatitudeDegrees>44.63526986539363861083984375</LatitudeDegrees>
              <LongitudeDegrees>-0.9647008962929248809814453125</LongitudeDegrees>
            </Position>
            <AltitudeMeters>2.599999904632568359375</AltitudeMeters>
            <DistanceMeters>NAN</DistanceMeters>
          </Trackpoint>
          <Trackpoint>
            <Time>2022-07-04T14:25:08.000Z</Time>
            <Position>
              <LatitudeDegrees>44.63553850539028644561767578125</LatitudeDegrees>
              <LongitudeDegrees>-0.9649469889700412750244140625</LongitudeDegrees>
            </Position>
            <AltitudeMeters>3</AltitudeMeters>
            <DistanceMeters>NAN</DistanceMeters>
          </Trackpoint>
          <Trackpoint>
            <Time>2022-07-04T14:25:11.000Z</Time>
            <Position>
              <LatitudeDegrees>44.63563221506774425506591796875</LatitudeDegrees>
              <LongitudeDegrees>-0.96503189764916896820068359375</LongitudeDegrees>
            </Position>
            <AltitudeMeters>3</AltitudeMeters>
            <DistanceMeters>NAN</DistanceMeters>
          </Trackpoint>
          <Trackpoint>
            <Time>2022-07-04T14:25:13.000Z</Time>
            <Position>
              <LatitudeDegrees>44.6356887929141521453857421875</LatitudeDegrees>
              <LongitudeDegrees>-0.965091325342655181884765625</LongitudeDegrees>
            </Position>
            <AltitudeMeters>3</AltitudeMeters>
            <DistanceMeters>NAN</DistanceMeters>
          </Trackpoint>
          <Trackpoint>
            <Time>2022-07-04T14:25:20.000Z</Time>
            <Position>
              <LatitudeDegrees>44.6358835883438587188720703125</LatitudeDegrees>
              <LongitudeDegrees>-0.96527346409857273101806640625</LongitudeDegrees>
            </Position>
            <AltitudeMeters>2.599999904632568359375</AltitudeMeters>
            <DistanceMeters>NAN</DistanceMeters>
          </Trackpoint>
          <Trackpoint>
            <Time>2022-07-04T14:25:31.000Z</Time>
            <Position>
              <LatitudeDegrees>44.63620059192180633544921875</LatitudeDegrees>
              <LongitudeDegrees>-0.96559683792293071746826171875</LongitudeDegrees>
            </Position>
            <AltitudeMeters>3.400000095367431640625</AltitudeMeters>
            <DistanceMeters>NAN</DistanceMeters>
          </Trackpoint>
          <Trackpoint>
            <Time>2022-07-04T14:25:39.000Z</Time>
            <Position>
              <LatitudeDegrees>44.63636697269976139068603515625</LatitudeDegrees>
              <LongitudeDegrees>-0.96580320037901401519775390625</LongitudeDegrees>
            </Position>
            <AltitudeMeters>2.7999999523162841796875</AltitudeMeters>
            <DistanceMeters>NAN</DistanceMeters>
          </Trackpoint>
          <Trackpoint>
            <Time>2022-07-04T14:25:46.000Z</Time>
            <Position>
              <LatitudeDegrees>44.63651399128139019012451171875</LatitudeDegrees>
              <LongitudeDegrees>-0.9659568406641483306884765625</LongitudeDegrees>
            </Position>
            <AltitudeMeters>3.400000095367431640625</AltitudeMeters>
            <DistanceMeters>NAN</DistanceMeters>
          </Trackpoint>
          <Trackpoint>
            <Time>2022-07-04T14:25:51.000Z</Time>
            <Position>
              <LatitudeDegrees>44.63659076951444149017333984375</LatitudeDegrees>
              <LongitudeDegrees>-0.96600671298801898956298828125</LongitudeDegrees>
            </Position>
            <AltitudeMeters>3.400000095367431640625</AltitudeMeters>
            <DistanceMeters>NAN</DistanceMeters>
          </Trackpoint>
          <Trackpoint>
            <Time>2022-07-04T14:25:54.000Z</Time>
            <Position>
              <LatitudeDegrees>44.63660602457821369171142578125</LatitudeDegrees>
              <LongitudeDegrees>-0.96605323255062103271484375</LongitudeDegrees>
            </Position>
            <AltitudeMeters>3.400000095367431640625</AltitudeMeters>
            <DistanceMeters>NAN</DistanceMeters>
          </Trackpoint>
          <Trackpoint>
            <Time>2022-07-04T14:25:56.000Z</Time>
            <Position>
              <LatitudeDegrees>44.636600911617279052734375</LatitudeDegrees>
              <LongitudeDegrees>-0.9661008417606353759765625</LongitudeDegrees>
            </Position>
            <AltitudeMeters>3.400000095367431640625</AltitudeMeters>
            <DistanceMeters>NAN</DistanceMeters>
          </Trackpoint>
          <Trackpoint>
            <Time>2022-07-04T14:25:57.000Z</Time>
            <Position>
              <LatitudeDegrees>44.63660485111176967620849609375</LatitudeDegrees>
              <LongitudeDegrees>-0.96612892113626003265380859375</LongitudeDegrees>
            </Position>
            <AltitudeMeters>3.2000000476837158203125</AltitudeMeters>
            <DistanceMeters>NAN</DistanceMeters>
          </Trackpoint>
          <Trackpoint>
            <Time>2022-07-04T14:26:00.000Z</Time>
            <Position>
              <LatitudeDegrees>44.6366590820252895355224609375</LatitudeDegrees>
              <LongitudeDegrees>-0.966213159263134002685546875</LongitudeDegrees>
            </Position>
            <AltitudeMeters>3</AltitudeMeters>
            <DistanceMeters>NAN</DistanceMeters>
          </Trackpoint>
          <Trackpoint>
            <Time>2022-07-04T14:26:05.000Z</Time>
            <Position>
              <LatitudeDegrees>44.6367895044386386871337890625</LatitudeDegrees>
              <LongitudeDegrees>-0.96642010845243930816650390625</LongitudeDegrees>
            </Position>
            <AltitudeMeters>2.2000000476837158203125</AltitudeMeters>
            <DistanceMeters>NAN</DistanceMeters>
          </Trackpoint>
          <Trackpoint>
            <Time>2022-07-04T14:26:08.000Z</Time>
            <Position>
              <LatitudeDegrees>44.63686670176684856414794921875</LatitudeDegrees>
              <LongitudeDegrees>-0.966542065143585205078125</LongitudeDegrees>
            </Position>
            <AltitudeMeters>1.39999997615814208984375</AltitudeMeters>
            <DistanceMeters>NAN</DistanceMeters>
          </Trackpoint>
          <Trackpoint>
            <Time>2022-07-04T14:26:14.000Z</Time>
            <Position>
              <LatitudeDegrees>44.63696460239589214324951171875</LatitudeDegrees>
              <LongitudeDegrees>-0.96679025329649448394775390625</LongitudeDegrees>
            </Position>
            <AltitudeMeters>1.2000000476837158203125</AltitudeMeters>
            <DistanceMeters>NAN</DistanceMeters>
          </Trackpoint>
          <Trackpoint>
            <Time>2022-07-04T14:26:19.000Z</Time>
            <Position>
              <LatitudeDegrees>44.637075327336788177490234375</LatitudeDegrees>
              <LongitudeDegrees>-0.96694095991551876068115234375</LongitudeDegrees>
            </Position>
            <AltitudeMeters>1.39999997615814208984375</AltitudeMeters>
            <DistanceMeters>NAN</DistanceMeters>
          </Trackpoint>
          <Trackpoint>
            <Time>2022-07-04T14:26:20.000Z</Time>
            <Position>
              <LatitudeDegrees>44.6370879001915454864501953125</LatitudeDegrees>
              <LongitudeDegrees>-0.96696677617728710174560546875</LongitudeDegrees>
            </Position>
            <AltitudeMeters>1.60000002384185791015625</AltitudeMeters>
            <DistanceMeters>NAN</DistanceMeters>
          </Trackpoint>
          <Trackpoint>
            <Time>2022-07-04T14:26:25.000Z</Time>
            <Position>
              <LatitudeDegrees>44.63713794015347957611083984375</LatitudeDegrees>
              <LongitudeDegrees>-0.96707607619464397430419921875</LongitudeDegrees>
            </Position>
            <AltitudeMeters>1.7999999523162841796875</AltitudeMeters>
            <DistanceMeters>NAN</DistanceMeters>
          </Trackpoint>
          <Trackpoint>
            <Time>2022-07-04T14:26:26.000Z</Time>
            <Position>
              <LatitudeDegrees>44.63714875280857086181640625</LatitudeDegrees>
              <LongitudeDegrees>-0.96710088662803173065185546875</LongitudeDegrees>
            </Position>
            <AltitudeMeters>2</AltitudeMeters>
            <DistanceMeters>NAN</DistanceMeters>
          </Trackpoint>
          <Trackpoint>
            <Time>2022-07-04T14:26:28.000Z</Time>
            <Position>
              <LatitudeDegrees>44.6371767483651638031005859375</LatitudeDegrees>
              <LongitudeDegrees>-0.9671442210674285888671875</LongitudeDegrees>
            </Position>
            <AltitudeMeters>2.2000000476837158203125</AltitudeMeters>
            <DistanceMeters>NAN</DistanceMeters>
          </Trackpoint>
          <Trackpoint>
            <Time>2022-07-04T14:26:29.000Z</Time>
            <Position>
              <LatitudeDegrees>44.63718772865831851959228515625</LatitudeDegrees>
              <LongitudeDegrees>-0.96716458909213542938232421875</LongitudeDegrees>
            </Position>
            <AltitudeMeters>2.400000095367431640625</AltitudeMeters>
            <DistanceMeters>NAN</DistanceMeters>
          </Trackpoint>
          <Trackpoint>
            <Time>2022-07-04T14:26:33.000Z</Time>
            <Position>
              <LatitudeDegrees>44.63723986409604549407958984375</LatitudeDegrees>
              <LongitudeDegrees>-0.96723566763103008270263671875</LongitudeDegrees>
            </Position>
            <AltitudeMeters>3</AltitudeMeters>
            <DistanceMeters>NAN</DistanceMeters>
          </Trackpoint>
          <Trackpoint>
            <Time>2022-07-04T14:26:37.000Z</Time>
            <Position>
              <LatitudeDegrees>44.637293927371501922607421875</LatitudeDegrees>
              <LongitudeDegrees>-0.96727321855723857879638671875</LongitudeDegrees>
            </Position>
            <AltitudeMeters>3.2000000476837158203125</AltitudeMeters>
            <DistanceMeters>NAN</DistanceMeters>
          </Trackpoint>
          <Trackpoint>
            <Time>2022-07-04T14:26:40.000Z</Time>
            <Position>
              <LatitudeDegrees>44.63729501701891422271728515625</LatitudeDegrees>
              <LongitudeDegrees>-0.9673373401165008544921875</LongitudeDegrees>
            </Position>
            <AltitudeMeters>3.599999904632568359375</AltitudeMeters>
            <DistanceMeters>NAN</DistanceMeters>
          </Trackpoint>
          <Trackpoint>
            <Time>2022-07-04T14:26:42.000Z</Time>
            <Position>
              <LatitudeDegrees>44.6372930891811847686767578125</LatitudeDegrees>
              <LongitudeDegrees>-0.96734412945806980133056640625</LongitudeDegrees>
            </Position>
            <AltitudeMeters>3.7999999523162841796875</AltitudeMeters>
            <DistanceMeters>NAN</DistanceMeters>
          </Trackpoint>
          <Trackpoint>
            <Time>2022-07-04T14:26:44.000Z</Time>
            <Position>
              <LatitudeDegrees>44.6372930891811847686767578125</LatitudeDegrees>
              <LongitudeDegrees>-0.96734412945806980133056640625</LongitudeDegrees>
            </Position>
            <AltitudeMeters>3.7999999523162841796875</AltitudeMeters>
            <DistanceMeters>NAN</DistanceMeters>
          </Trackpoint>
          <Trackpoint>
            <Time>2022-07-04T14:26:55.000Z</Time>
            <Position>
              <LatitudeDegrees>44.637300968170166015625</LatitudeDegrees>
              <LongitudeDegrees>-0.96741219051182270050048828125</LongitudeDegrees>
            </Position>
            <AltitudeMeters>3.7999999523162841796875</AltitudeMeters>
            <DistanceMeters>NAN</DistanceMeters>
          </Trackpoint>
          <Trackpoint>
            <Time>2022-07-04T14:26:56.000Z</Time>
            <Position>
              <LatitudeDegrees>44.63731144554913043975830078125</LatitudeDegrees>
              <LongitudeDegrees>-0.96744119189679622650146484375</LongitudeDegrees>
            </Position>
            <AltitudeMeters>3.7999999523162841796875</AltitudeMeters>
            <DistanceMeters>NAN</DistanceMeters>
          </Trackpoint>
          <Trackpoint>
            <Time>2022-07-04T14:26:57.000Z</Time>
            <Position>
              <LatitudeDegrees>44.6373237669467926025390625</LatitudeDegrees>
              <LongitudeDegrees>-0.9674727916717529296875</LongitudeDegrees>
            </Position>
            <AltitudeMeters>3.7999999523162841796875</AltitudeMeters>
            <DistanceMeters>NAN</DistanceMeters>
          </Trackpoint>
          <Trackpoint>
            <Time>2022-07-04T14:26:58.000Z</Time>
            <Position>
              <LatitudeDegrees>44.637338183820247650146484375</LatitudeDegrees>
              <LongitudeDegrees>-0.9675078280270099639892578125</LongitudeDegrees>
            </Position>
            <AltitudeMeters>3.7999999523162841796875</AltitudeMeters>
            <DistanceMeters>NAN</DistanceMeters>
          </Trackpoint>
          <Trackpoint>
            <Time>2022-07-04T14:27:03.000Z</Time>
            <Position>
              <LatitudeDegrees>44.637410938739776611328125</LatitudeDegrees>
              <LongitudeDegrees>-0.96766666509211063385009765625</LongitudeDegrees>
            </Position>
            <AltitudeMeters>4.19999980926513671875</AltitudeMeters>
            <DistanceMeters>NAN</DistanceMeters>
          </Trackpoint>
          <Trackpoint>
            <Time>2022-07-04T14:27:09.000Z</Time>
            <Position>
              <LatitudeDegrees>44.6375190652906894683837890625</LatitudeDegrees>
              <LongitudeDegrees>-0.96791560761630535125732421875</LongitudeDegrees>
            </Position>
            <AltitudeMeters>3.7999999523162841796875</AltitudeMeters>
            <DistanceMeters>NAN</DistanceMeters>
          </Trackpoint>
          <Trackpoint>
            <Time>2022-07-04T14:27:16.000Z</Time>
            <Position>
              <LatitudeDegrees>44.637658037245273590087890625</LatitudeDegrees>
              <LongitudeDegrees>-0.96815901808440685272216796875</LongitudeDegrees>
            </Position>
            <AltitudeMeters>3.7999999523162841796875</AltitudeMeters>
            <DistanceMeters>NAN</DistanceMeters>
          </Trackpoint>
          <Trackpoint>
            <Time>2022-07-04T14:27:23.000Z</Time>
            <Position>
              <LatitudeDegrees>44.63782877661287784576416015625</LatitudeDegrees>
              <LongitudeDegrees>-0.96826513297855854034423828125</LongitudeDegrees>
            </Position>
            <AltitudeMeters>3.599999904632568359375</AltitudeMeters>
            <DistanceMeters>NAN</DistanceMeters>
          </Trackpoint>
          <Trackpoint>
            <Time>2022-07-04T14:27:28.000Z</Time>
            <Position>
              <LatitudeDegrees>44.6378375776112079620361328125</LatitudeDegrees>
              <LongitudeDegrees>-0.96844668500125408172607421875</LongitudeDegrees>
            </Position>
            <AltitudeMeters>3.599999904632568359375</AltitudeMeters>
            <DistanceMeters>NAN</DistanceMeters>
          </Trackpoint>
          <Trackpoint>
            <Time>2022-07-04T14:27:32.000Z</Time>
            <Position>
              <LatitudeDegrees>44.6377306245267391204833984375</LatitudeDegrees>
              <LongitudeDegrees>-0.96857224591076374053955078125</LongitudeDegrees>
            </Position>
            <AltitudeMeters>3.7999999523162841796875</AltitudeMeters>
            <DistanceMeters>NAN</DistanceMeters>
          </Trackpoint>
          <Trackpoint>
            <Time>2022-07-04T14:27:36.000Z</Time>
            <Position>
              <LatitudeDegrees>44.6376186423003673553466796875</LatitudeDegrees>
              <LongitudeDegrees>-0.9687134809792041778564453125</LongitudeDegrees>
            </Position>
            <AltitudeMeters>3.599999904632568359375</AltitudeMeters>
            <DistanceMeters>NAN</DistanceMeters>
          </Trackpoint>
          <Trackpoint>
            <Time>2022-07-04T14:27:42.000Z</Time>
            <Position>
              <LatitudeDegrees>44.6374915726482868194580078125</LatitudeDegrees>
              <LongitudeDegrees>-0.96899469383060932159423828125</LongitudeDegrees>
            </Position>
            <AltitudeMeters>3.400000095367431640625</AltitudeMeters>
            <DistanceMeters>NAN</DistanceMeters>
          </Trackpoint>
          <Trackpoint>
            <Time>2022-07-04T14:27:47.000Z</Time>
            <Position>
              <LatitudeDegrees>44.637381769716739654541015625</LatitudeDegrees>
              <LongitudeDegrees>-0.9692234359681606292724609375</LongitudeDegrees>
            </Position>
            <AltitudeMeters>3</AltitudeMeters>
            <DistanceMeters>NAN</DistanceMeters>
          </Trackpoint>
          <Trackpoint>
            <Time>2022-07-04T14:27:55.000Z</Time>
            <Position>
              <LatitudeDegrees>44.63719971477985382080078125</LatitudeDegrees>
              <LongitudeDegrees>-0.9696341492235660552978515625</LongitudeDegrees>
            </Position>
            <AltitudeMeters>3.2000000476837158203125</AltitudeMeters>
            <DistanceMeters>NAN</DistanceMeters>
          </Trackpoint>
          <Trackpoint>
            <Time>2022-07-04T14:28:03.000Z</Time>
            <Position>
              <LatitudeDegrees>44.6370017342269420623779296875</LatitudeDegrees>
              <LongitudeDegrees>-0.97007260657846927642822265625</LongitudeDegrees>
            </Position>
            <AltitudeMeters>3.2000000476837158203125</AltitudeMeters>
            <DistanceMeters>NAN</DistanceMeters>
          </Trackpoint>
          <Trackpoint>
            <Time>2022-07-04T14:28:11.000Z</Time>
            <Position>
              <LatitudeDegrees>44.63680702261626720428466796875</LatitudeDegrees>
              <LongitudeDegrees>-0.97051600925624370574951171875</LongitudeDegrees>
            </Position>
            <AltitudeMeters>2.7999999523162841796875</AltitudeMeters>
            <DistanceMeters>NAN</DistanceMeters>
          </Trackpoint>
          <Trackpoint>
            <Time>2022-07-04T14:28:20.000Z</Time>
            <Position>
              <LatitudeDegrees>44.6365876682102680206298828125</LatitudeDegrees>
              <LongitudeDegrees>-0.9710185043513774871826171875</LongitudeDegrees>
            </Position>
            <AltitudeMeters>2.7999999523162841796875</AltitudeMeters>
            <DistanceMeters>NAN</DistanceMeters>
          </Trackpoint>
          <Trackpoint>
            <Time>2022-07-04T14:28:24.000Z</Time>
            <Position>
              <LatitudeDegrees>44.63648281060159206390380859375</LatitudeDegrees>
              <LongitudeDegrees>-0.9712345898151397705078125</LongitudeDegrees>
            </Position>
            <AltitudeMeters>2.599999904632568359375</AltitudeMeters>
            <DistanceMeters>NAN</DistanceMeters>
          </Trackpoint>
          <Trackpoint>
            <Time>2022-07-04T14:28:31.000Z</Time>
            <Position>
              <LatitudeDegrees>44.636328332126140594482421875</LatitudeDegrees>
              <LongitudeDegrees>-0.9716052375733852386474609375</LongitudeDegrees>
            </Position>
            <AltitudeMeters>2</AltitudeMeters>
            <DistanceMeters>NAN</DistanceMeters>
          </Trackpoint>
          <Trackpoint>
            <Time>2022-07-04T14:28:33.000Z</Time>
            <Position>
              <LatitudeDegrees>44.636281393468379974365234375</LatitudeDegrees>
              <LongitudeDegrees>-0.971703641116619110107421875</LongitudeDegrees>
            </Position>
            <AltitudeMeters>2</AltitudeMeters>
            <DistanceMeters>NAN</DistanceMeters>
          </Trackpoint>
          <Trackpoint>
            <Time>2022-07-04T14:28:37.000Z</Time>
            <Position>
              <LatitudeDegrees>44.6362027712166309356689453125</LatitudeDegrees>
              <LongitudeDegrees>-0.971896760165691375732421875</LongitudeDegrees>
            </Position>
            <AltitudeMeters>2</AltitudeMeters>
            <DistanceMeters>NAN</DistanceMeters>
          </Trackpoint>
          <Trackpoint>
            <Time>2022-07-04T14:28:44.000Z</Time>
            <Position>
              <LatitudeDegrees>44.63604359887540340423583984375</LatitudeDegrees>
              <LongitudeDegrees>-0.97223061136901378631591796875</LongitudeDegrees>
            </Position>
            <AltitudeMeters>1.39999997615814208984375</AltitudeMeters>
            <DistanceMeters>NAN</DistanceMeters>
          </Trackpoint>
          <Trackpoint>
            <Time>2022-07-04T14:28:56.000Z</Time>
            <Position>
              <LatitudeDegrees>44.6357843466103076934814453125</LatitudeDegrees>
              <LongitudeDegrees>-0.9727914445102214813232421875</LongitudeDegrees>
            </Position>
            <AltitudeMeters>1.60000002384185791015625</AltitudeMeters>
            <DistanceMeters>NAN</DistanceMeters>
          </Trackpoint>
          <Trackpoint>
            <Time>2022-07-04T14:29:04.000Z</Time>
            <Position>
              <LatitudeDegrees>44.63564797304570674896240234375</LatitudeDegrees>
              <LongitudeDegrees>-0.9731159918010234832763671875</LongitudeDegrees>
            </Position>
            <AltitudeMeters>1.60000002384185791015625</AltitudeMeters>
            <DistanceMeters>NAN</DistanceMeters>
          </Trackpoint>
          <Trackpoint>
            <Time>2022-07-04T14:29:10.000Z</Time>
            <Position>
              <LatitudeDegrees>44.63554345071315765380859375</LatitudeDegrees>
              <LongitudeDegrees>-0.97336837090551853179931640625</LongitudeDegrees>
            </Position>
            <AltitudeMeters>1.39999997615814208984375</AltitudeMeters>
            <DistanceMeters>NAN</DistanceMeters>
          </Trackpoint>
          <Trackpoint>
            <Time>2022-07-04T14:29:13.000Z</Time>
            <Position>
              <LatitudeDegrees>44.63549424894154071807861328125</LatitudeDegrees>
              <LongitudeDegrees>-0.97348001785576343536376953125</LongitudeDegrees>
            </Position>
            <AltitudeMeters>1.2000000476837158203125</AltitudeMeters>
            <DistanceMeters>NAN</DistanceMeters>
          </Trackpoint>
          <Trackpoint>
            <Time>2022-07-04T14:29:15.000Z</Time>
            <Position>
              <LatitudeDegrees>44.635453931987285614013671875</LatitudeDegrees>
              <LongitudeDegrees>-0.9735474921762943267822265625</LongitudeDegrees>
            </Position>
            <AltitudeMeters>1.2000000476837158203125</AltitudeMeters>
            <DistanceMeters>NAN</DistanceMeters>
          </Trackpoint>
          <Trackpoint>
            <Time>2022-07-04T14:29:17.000Z</Time>
            <Position>
              <LatitudeDegrees>44.6354185603559017181396484375</LatitudeDegrees>
              <LongitudeDegrees>-0.97361505031585693359375</LongitudeDegrees>
            </Position>
            <AltitudeMeters>1.2000000476837158203125</AltitudeMeters>
            <DistanceMeters>NAN</DistanceMeters>
          </Trackpoint>
          <Trackpoint>
            <Time>2022-07-04T14:29:19.000Z</Time>
            <Position>
              <LatitudeDegrees>44.63538922369480133056640625</LatitudeDegrees>
              <LongitudeDegrees>-0.97368353046476840972900390625</LongitudeDegrees>
            </Position>
            <AltitudeMeters>1</AltitudeMeters>
            <DistanceMeters>NAN</DistanceMeters>
          </Trackpoint>
          <Trackpoint>
            <Time>2022-07-04T14:29:27.000Z</Time>
            <Position>
              <LatitudeDegrees>44.6352821029722690582275390625</LatitudeDegrees>
              <LongitudeDegrees>-0.97391352988779544830322265625</LongitudeDegrees>
            </Position>
            <AltitudeMeters>0.800000011920928955078125</AltitudeMeters>
            <DistanceMeters>NAN</DistanceMeters>
          </Trackpoint>
          <Trackpoint>
            <Time>2022-07-04T14:29:30.000Z</Time>
            <Position>
              <LatitudeDegrees>44.6352556161582469940185546875</LatitudeDegrees>
              <LongitudeDegrees>-0.97397605888545513153076171875</LongitudeDegrees>
            </Position>
            <AltitudeMeters>0.800000011920928955078125</AltitudeMeters>
            <DistanceMeters>NAN</DistanceMeters>
          </Trackpoint>
          <Trackpoint>
            <Time>2022-07-04T14:29:31.000Z</Time>
            <Position>
              <LatitudeDegrees>44.6352517604827880859375</LatitudeDegrees>
              <LongitudeDegrees>-0.97397941164672374725341796875</LongitudeDegrees>
            </Position>
            <AltitudeMeters>0.800000011920928955078125</AltitudeMeters>
            <DistanceMeters>NAN</DistanceMeters>
          </Trackpoint>
          <Trackpoint>
            <Time>2022-07-04T14:29:32.000Z</Time>
            <Position>
              <LatitudeDegrees>44.6352517604827880859375</LatitudeDegrees>
              <LongitudeDegrees>-0.97397941164672374725341796875</LongitudeDegrees>
            </Position>
            <AltitudeMeters>0.60000002384185791015625</AltitudeMeters>
            <DistanceMeters>NAN</DistanceMeters>
          </Trackpoint>
          <Trackpoint>
            <Time>2022-07-04T14:29:33.000Z</Time>
            <Position>
              <LatitudeDegrees>44.6352517604827880859375</LatitudeDegrees>
              <LongitudeDegrees>-0.97397941164672374725341796875</LongitudeDegrees>
            </Position>
            <AltitudeMeters>0.60000002384185791015625</AltitudeMeters>
            <DistanceMeters>NAN</DistanceMeters>
          </Trackpoint>
          <Trackpoint>
            <Time>2022-07-04T14:29:55.000Z</Time>
            <Position>
              <LatitudeDegrees>44.63523625396192073822021484375</LatitudeDegrees>
              <LongitudeDegrees>-0.97402366809546947479248046875</LongitudeDegrees>
            </Position>
            <AltitudeMeters>0.60000002384185791015625</AltitudeMeters>
            <DistanceMeters>NAN</DistanceMeters>
          </Trackpoint>
          <Trackpoint>
            <Time>2022-07-04T14:29:57.000Z</Time>
            <Position>
              <LatitudeDegrees>44.63520943187177181243896484375</LatitudeDegrees>
              <LongitudeDegrees>-0.9740789048373699188232421875</LongitudeDegrees>
            </Position>
            <AltitudeMeters>0.60000002384185791015625</AltitudeMeters>
            <DistanceMeters>NAN</DistanceMeters>
          </Trackpoint>
          <Trackpoint>
            <Time>2022-07-04T14:30:04.000Z</Time>
            <Position>
              <LatitudeDegrees>44.63510700501501560211181640625</LatitudeDegrees>
              <LongitudeDegrees>-0.9743035398423671722412109375</LongitudeDegrees>
            </Position>
            <AltitudeMeters>0.60000002384185791015625</AltitudeMeters>
            <DistanceMeters>NAN</DistanceMeters>
          </Trackpoint>
          <Trackpoint>
            <Time>2022-07-04T14:30:06.000Z</Time>
            <Position>
              <LatitudeDegrees>44.6350725553929805755615234375</LatitudeDegrees>
              <LongitudeDegrees>-0.97438015043735504150390625</LongitudeDegrees>
            </Position>
            <AltitudeMeters>0.60000002384185791015625</AltitudeMeters>
            <DistanceMeters>NAN</DistanceMeters>
          </Trackpoint>
          <Trackpoint>
            <Time>2022-07-04T14:30:10.000Z</Time>
            <Position>
              <LatitudeDegrees>44.63500139303505420684814453125</LatitudeDegrees>
              <LongitudeDegrees>-0.9745546616613864898681640625</LongitudeDegrees>
            </Position>
            <AltitudeMeters>1.2000000476837158203125</AltitudeMeters>
            <DistanceMeters>NAN</DistanceMeters>
          </Trackpoint>
          <Trackpoint>
            <Time>2022-07-04T14:30:11.000Z</Time>
            <Position>
              <LatitudeDegrees>44.63498010300099849700927734375</LatitudeDegrees>
              <LongitudeDegrees>-0.974599756300449371337890625</LongitudeDegrees>
            </Position>
            <AltitudeMeters>1.2000000476837158203125</AltitudeMeters>
            <DistanceMeters>NAN</DistanceMeters>
          </Trackpoint>
          <Trackpoint>
            <Time>2022-07-04T14:30:18.000Z</Time>
            <Position>
              <LatitudeDegrees>44.63482604362070560455322265625</LatitudeDegrees>
              <LongitudeDegrees>-0.97489320673048496246337890625</LongitudeDegrees>
            </Position>
            <AltitudeMeters>1</AltitudeMeters>
            <DistanceMeters>NAN</DistanceMeters>
          </Trackpoint>
          <Trackpoint>
            <Time>2022-07-04T14:30:19.000Z</Time>
            <Position>
              <LatitudeDegrees>44.63481330312788486480712890625</LatitudeDegrees>
              <LongitudeDegrees>-0.97494081594049930572509765625</LongitudeDegrees>
            </Position>
            <AltitudeMeters>1</AltitudeMeters>
            <DistanceMeters>NAN</DistanceMeters>
          </Trackpoint>
          <Trackpoint>
            <Time>2022-07-04T14:30:23.000Z</Time>
            <Position>
              <LatitudeDegrees>44.63480240665376186370849609375</LatitudeDegrees>
              <LongitudeDegrees>-0.9751571528613567352294921875</LongitudeDegrees>
            </Position>
            <AltitudeMeters>0.800000011920928955078125</AltitudeMeters>
            <DistanceMeters>NAN</DistanceMeters>
          </Trackpoint>
          <Trackpoint>
            <Time>2022-07-04T14:30:26.000Z</Time>
            <Position>
              <LatitudeDegrees>44.63477441109716892242431640625</LatitudeDegrees>
              <LongitudeDegrees>-0.9752684645354747772216796875</LongitudeDegrees>
            </Position>
            <AltitudeMeters>0.60000002384185791015625</AltitudeMeters>
            <DistanceMeters>NAN</DistanceMeters>
          </Trackpoint>
          <Trackpoint>
            <Time>2022-07-04T14:30:29.000Z</Time>
            <Position>
              <LatitudeDegrees>44.63468405418097972869873046875</LatitudeDegrees>
              <LongitudeDegrees>-0.97531397826969623565673828125</LongitudeDegrees>
            </Position>
            <AltitudeMeters>0.4000000059604644775390625</AltitudeMeters>
            <DistanceMeters>NAN</DistanceMeters>
          </Trackpoint>
          <Trackpoint>
            <Time>2022-07-04T14:30:30.000Z</Time>
            <Position>
              <LatitudeDegrees>44.6346464194357395172119140625</LatitudeDegrees>
              <LongitudeDegrees>-0.97532738931477069854736328125</LongitudeDegrees>
            </Position>
            <AltitudeMeters>0.60000002384185791015625</AltitudeMeters>
            <DistanceMeters>NAN</DistanceMeters>
          </Trackpoint>
          <Trackpoint>
            <Time>2022-07-04T14:30:31.000Z</Time>
            <Position>
              <LatitudeDegrees>44.634615741670131683349609375</LatitudeDegrees>
              <LongitudeDegrees>-0.97535337321460247039794921875</LongitudeDegrees>
            </Position>
            <AltitudeMeters>0.60000002384185791015625</AltitudeMeters>
            <DistanceMeters>NAN</DistanceMeters>
          </Trackpoint>
          <Trackpoint>
            <Time>2022-07-04T14:30:32.000Z</Time>
            <Position>
              <LatitudeDegrees>44.63458900339901447296142578125</LatitudeDegrees>
              <LongitudeDegrees>-0.9753915108740329742431640625</LongitudeDegrees>
            </Position>
            <AltitudeMeters>0.60000002384185791015625</AltitudeMeters>
            <DistanceMeters>NAN</DistanceMeters>
          </Trackpoint>
          <Trackpoint>
            <Time>2022-07-04T14:30:36.000Z</Time>
            <Position>
              <LatitudeDegrees>44.6345045976340770721435546875</LatitudeDegrees>
              <LongitudeDegrees>-0.97558655776083469390869140625</LongitudeDegrees>
            </Position>
            <AltitudeMeters>1</AltitudeMeters>
            <DistanceMeters>NAN</DistanceMeters>
          </Trackpoint>
          <Trackpoint>
            <Time>2022-07-04T14:30:40.000Z</Time>
            <Position>
              <LatitudeDegrees>44.63440443389117717742919921875</LatitudeDegrees>
              <LongitudeDegrees>-0.975799374282360076904296875</LongitudeDegrees>
            </Position>
            <AltitudeMeters>0.800000011920928955078125</AltitudeMeters>
            <DistanceMeters>NAN</DistanceMeters>
          </Trackpoint>
          <Trackpoint>
            <Time>2022-07-04T14:30:45.000Z</Time>
            <Position>
              <LatitudeDegrees>44.6342849917709827423095703125</LatitudeDegrees>
              <LongitudeDegrees>-0.976080335676670074462890625</LongitudeDegrees>
            </Position>
            <AltitudeMeters>0.4000000059604644775390625</AltitudeMeters>
            <DistanceMeters>NAN</DistanceMeters>
          </Trackpoint>
          <Trackpoint>
            <Time>2022-07-04T14:30:54.000Z</Time>
            <Position>
              <LatitudeDegrees>44.6340702474117279052734375</LatitudeDegrees>
              <LongitudeDegrees>-0.976591296494007110595703125</LongitudeDegrees>
            </Position>
            <AltitudeMeters>0.60000002384185791015625</AltitudeMeters>
            <DistanceMeters>NAN</DistanceMeters>
          </Trackpoint>
          <Trackpoint>
            <Time>2022-07-04T14:30:59.000Z</Time>
            <Position>
              <LatitudeDegrees>44.6339309401810169219970703125</LatitudeDegrees>
              <LongitudeDegrees>-0.9769079647958278656005859375</LongitudeDegrees>
            </Position>
            <AltitudeMeters>0.60000002384185791015625</AltitudeMeters>
            <DistanceMeters>NAN</DistanceMeters>
          </Trackpoint>
          <Trackpoint>
            <Time>2022-07-04T14:31:02.000Z</Time>
            <Position>
              <LatitudeDegrees>44.63384234346449375152587890625</LatitudeDegrees>
              <LongitudeDegrees>-0.9771061129868030548095703125</LongitudeDegrees>
            </Position>
            <AltitudeMeters>0.60000002384185791015625</AltitudeMeters>
            <DistanceMeters>NAN</DistanceMeters>
          </Trackpoint>
          <Trackpoint>
            <Time>2022-07-04T14:31:09.000Z</Time>
            <Position>
              <LatitudeDegrees>44.6336513198912143707275390625</LatitudeDegrees>
              <LongitudeDegrees>-0.97752462141215801239013671875</LongitudeDegrees>
            </Position>
            <AltitudeMeters>0.20000000298023223876953125</AltitudeMeters>
            <DistanceMeters>NAN</DistanceMeters>
          </Trackpoint>
          <Trackpoint>
            <Time>2022-07-04T14:31:12.000Z</Time>
            <Position>
              <LatitudeDegrees>44.63357429020106792449951171875</LatitudeDegrees>
              <LongitudeDegrees>-0.9776904992759227752685546875</LongitudeDegrees>
            </Position>
            <AltitudeMeters>0.20000000298023223876953125</AltitudeMeters>
            <DistanceMeters>NAN</DistanceMeters>
          </Trackpoint>
          <Trackpoint>
            <Time>2022-07-04T14:31:15.000Z</Time>
            <Position>
              <LatitudeDegrees>44.6334774792194366455078125</LatitudeDegrees>
              <LongitudeDegrees>-0.977838523685932159423828125</LongitudeDegrees>
            </Position>
            <AltitudeMeters>0.20000000298023223876953125</AltitudeMeters>
            <DistanceMeters>NAN</DistanceMeters>
          </Trackpoint>
          <Trackpoint>
            <Time>2022-07-04T14:31:22.000Z</Time>
            <Position>
              <LatitudeDegrees>44.63328930549323558807373046875</LatitudeDegrees>
              <LongitudeDegrees>-0.9782410226762294769287109375</LongitudeDegrees>
            </Position>
            <AltitudeMeters>0.20000000298023223876953125</AltitudeMeters>
            <DistanceMeters>NAN</DistanceMeters>
          </Trackpoint>
          <Trackpoint>
            <Time>2022-07-04T14:31:23.000Z</Time>
            <Position>
              <LatitudeDegrees>44.6332607232034206390380859375</LatitudeDegrees>
              <LongitudeDegrees>-0.9783003665506839752197265625</LongitudeDegrees>
            </Position>
            <AltitudeMeters>0.20000000298023223876953125</AltitudeMeters>
            <DistanceMeters>NAN</DistanceMeters>
          </Trackpoint>
          <Trackpoint>
            <Time>2022-07-04T14:31:32.000Z</Time>
            <Position>
              <LatitudeDegrees>44.63302242569625377655029296875</LatitudeDegrees>
              <LongitudeDegrees>-0.978849045932292938232421875</LongitudeDegrees>
            </Position>
            <AltitudeMeters>-0.20000000298023223876953125</AltitudeMeters>
            <DistanceMeters>NAN</DistanceMeters>
          </Trackpoint>
          <Trackpoint>
            <Time>2022-07-04T14:31:39.000Z</Time>
            <Position>
              <LatitudeDegrees>44.63282167911529541015625</LatitudeDegrees>
              <LongitudeDegrees>-0.97928767092525959014892578125</LongitudeDegrees>
            </Position>
            <AltitudeMeters>-0.60000002384185791015625</AltitudeMeters>
            <DistanceMeters>NAN</DistanceMeters>
          </Trackpoint>
          <Trackpoint>
            <Time>2022-07-04T14:31:40.000Z</Time>
            <Position>
              <LatitudeDegrees>44.632792174816131591796875</LatitudeDegrees>
              <LongitudeDegrees>-0.97934919409453868865966796875</LongitudeDegrees>
            </Position>
            <AltitudeMeters>-0.60000002384185791015625</AltitudeMeters>
            <DistanceMeters>NAN</DistanceMeters>
          </Trackpoint>
          <Trackpoint>
            <Time>2022-07-04T14:31:43.000Z</Time>
            <Position>
              <LatitudeDegrees>44.63272310793399810791015625</LatitudeDegrees>
              <LongitudeDegrees>-0.9795341826975345611572265625</LongitudeDegrees>
            </Position>
            <AltitudeMeters>-0.60000002384185791015625</AltitudeMeters>
            <DistanceMeters>NAN</DistanceMeters>
          </Trackpoint>
          <Trackpoint>
            <Time>2022-07-04T14:31:45.000Z</Time>
            <Position>
              <LatitudeDegrees>44.6326988004148006439208984375</LatitudeDegrees>
              <LongitudeDegrees>-0.97966854460537433624267578125</LongitudeDegrees>
            </Position>
            <AltitudeMeters>-0.60000002384185791015625</AltitudeMeters>
            <DistanceMeters>NAN</DistanceMeters>
          </Trackpoint>
          <Trackpoint>
            <Time>2022-07-04T14:31:46.000Z</Time>
            <Position>
              <LatitudeDegrees>44.6326870657503604888916015625</LatitudeDegrees>
              <LongitudeDegrees>-0.9797306545078754425048828125</LongitudeDegrees>
            </Position>
            <AltitudeMeters>-0.60000002384185791015625</AltitudeMeters>
            <DistanceMeters>NAN</DistanceMeters>
          </Trackpoint>
          <Trackpoint>
            <Time>2022-07-04T14:31:48.000Z</Time>
            <Position>
              <LatitudeDegrees>44.63264624588191509246826171875</LatitudeDegrees>
              <LongitudeDegrees>-0.97983174026012420654296875</LongitudeDegrees>
            </Position>
            <AltitudeMeters>-0.4000000059604644775390625</AltitudeMeters>
            <DistanceMeters>NAN</DistanceMeters>
          </Trackpoint>
          <Trackpoint>
            <Time>2022-07-04T14:31:49.000Z</Time>
            <Position>
              <LatitudeDegrees>44.63261271826922893524169921875</LatitudeDegrees>
              <LongitudeDegrees>-0.97987608052790164947509765625</LongitudeDegrees>
            </Position>
            <AltitudeMeters>-0.4000000059604644775390625</AltitudeMeters>
            <DistanceMeters>NAN</DistanceMeters>
          </Trackpoint>
          <Trackpoint>
            <Time>2022-07-04T14:31:51.000Z</Time>
            <Position>
              <LatitudeDegrees>44.63254717178642749786376953125</LatitudeDegrees>
              <LongitudeDegrees>-0.9799710474908351898193359375</LongitudeDegrees>
            </Position>
            <AltitudeMeters>-0.4000000059604644775390625</AltitudeMeters>
            <DistanceMeters>NAN</DistanceMeters>
          </Trackpoint>
          <Trackpoint>
            <Time>2022-07-04T14:31:53.000Z</Time>
            <Position>
              <LatitudeDegrees>44.6325103752315044403076171875</LatitudeDegrees>
              <LongitudeDegrees>-0.9800883941352367401123046875</LongitudeDegrees>
            </Position>
            <AltitudeMeters>-0.800000011920928955078125</AltitudeMeters>
            <DistanceMeters>NAN</DistanceMeters>
          </Trackpoint>
          <Trackpoint>
            <Time>2022-07-04T14:31:54.000Z</Time>
            <Position>
              <LatitudeDegrees>44.63249118067324161529541015625</LatitudeDegrees>
              <LongitudeDegrees>-0.9801400266587734222412109375</LongitudeDegrees>
            </Position>
            <AltitudeMeters>-0.800000011920928955078125</AltitudeMeters>
            <DistanceMeters>NAN</DistanceMeters>
          </Trackpoint>
          <Trackpoint>
            <Time>2022-07-04T14:31:58.000Z</Time>
            <Position>
              <LatitudeDegrees>44.63238783180713653564453125</LatitudeDegrees>
              <LongitudeDegrees>-0.98035703413188457489013671875</LongitudeDegrees>
            </Position>
            <AltitudeMeters>-0.800000011920928955078125</AltitudeMeters>
            <DistanceMeters>NAN</DistanceMeters>
          </Trackpoint>
          <Trackpoint>
            <Time>2022-07-04T14:32:07.000Z</Time>
            <Position>
              <LatitudeDegrees>44.6321673877537250518798828125</LatitudeDegrees>
              <LongitudeDegrees>-0.98086765967309474945068359375</LongitudeDegrees>
            </Position>
            <AltitudeMeters>-0.800000011920928955078125</AltitudeMeters>
            <DistanceMeters>NAN</DistanceMeters>
          </Trackpoint>
          <Trackpoint>
            <Time>2022-07-04T14:32:11.000Z</Time>
            <Position>
              <LatitudeDegrees>44.63206286542117595672607421875</LatitudeDegrees>
              <LongitudeDegrees>-0.9810975752770900726318359375</LongitudeDegrees>
            </Position>
            <AltitudeMeters>-1</AltitudeMeters>
            <DistanceMeters>NAN</DistanceMeters>
          </Trackpoint>
          <Trackpoint>
            <Time>2022-07-04T14:32:15.000Z</Time>
            <Position>
              <LatitudeDegrees>44.63195272721350193023681640625</LatitudeDegrees>
              <LongitudeDegrees>-0.9813168458640575408935546875</LongitudeDegrees>
            </Position>
            <AltitudeMeters>-1.39999997615814208984375</AltitudeMeters>
            <DistanceMeters>NAN</DistanceMeters>
          </Trackpoint>
          <Trackpoint>
            <Time>2022-07-04T14:32:19.000Z</Time>
            <Position>
              <LatitudeDegrees>44.6318547427654266357421875</LatitudeDegrees>
              <LongitudeDegrees>-0.98153494298458099365234375</LongitudeDegrees>
            </Position>
            <AltitudeMeters>-1.39999997615814208984375</AltitudeMeters>
            <DistanceMeters>NAN</DistanceMeters>
          </Trackpoint>
          <Trackpoint>
            <Time>2022-07-04T14:32:22.000Z</Time>
            <Position>
              <LatitudeDegrees>44.63177151046693325042724609375</LatitudeDegrees>
              <LongitudeDegrees>-0.98170467652380466461181640625</LongitudeDegrees>
            </Position>
            <AltitudeMeters>-1.2000000476837158203125</AltitudeMeters>
            <DistanceMeters>NAN</DistanceMeters>
          </Trackpoint>
          <Trackpoint>
            <Time>2022-07-04T14:32:23.000Z</Time>
            <Position>
              <LatitudeDegrees>44.63174234144389629364013671875</LatitudeDegrees>
              <LongitudeDegrees>-0.98175580613315105438232421875</LongitudeDegrees>
            </Position>
            <AltitudeMeters>-1.2000000476837158203125</AltitudeMeters>
            <DistanceMeters>NAN</DistanceMeters>
          </Trackpoint>
          <Trackpoint>
            <Time>2022-07-04T14:32:30.000Z</Time>
            <Position>
              <LatitudeDegrees>44.631560705602169036865234375</LatitudeDegrees>
              <LongitudeDegrees>-0.982182025909423828125</LongitudeDegrees>
            </Position>
            <AltitudeMeters>-1.60000002384185791015625</AltitudeMeters>
            <DistanceMeters>NAN</DistanceMeters>
          </Trackpoint>
          <Trackpoint>
            <Time>2022-07-04T14:32:31.000Z</Time>
            <Position>
              <LatitudeDegrees>44.63153488934040069580078125</LatitudeDegrees>
              <LongitudeDegrees>-0.98224480636417865753173828125</LongitudeDegrees>
            </Position>
            <AltitudeMeters>-1.60000002384185791015625</AltitudeMeters>
            <DistanceMeters>NAN</DistanceMeters>
          </Trackpoint>
          <Trackpoint>
            <Time>2022-07-04T14:32:34.000Z</Time>
            <Position>
              <LatitudeDegrees>44.63145785965025424957275390625</LatitudeDegrees>
              <LongitudeDegrees>-0.98242954351007938385009765625</LongitudeDegrees>
            </Position>
            <AltitudeMeters>-1.60000002384185791015625</AltitudeMeters>
            <DistanceMeters>NAN</DistanceMeters>
          </Trackpoint>
          <Trackpoint>
            <Time>2022-07-04T14:32:37.000Z</Time>
            <Position>
              <LatitudeDegrees>44.63137605227530002593994140625</LatitudeDegrees>
              <LongitudeDegrees>-0.98260204307734966278076171875</LongitudeDegrees>
            </Position>
            <AltitudeMeters>-1.7999999523162841796875</AltitudeMeters>
            <DistanceMeters>NAN</DistanceMeters>
          </Trackpoint>
          <Trackpoint>
            <Time>2022-07-04T14:32:39.000Z</Time>
            <Position>
              <LatitudeDegrees>44.6313198097050189971923828125</LatitudeDegrees>
              <LongitudeDegrees>-0.982715785503387451171875</LongitudeDegrees>
            </Position>
            <AltitudeMeters>-1.7999999523162841796875</AltitudeMeters>
            <DistanceMeters>NAN</DistanceMeters>
          </Trackpoint>
          <Trackpoint>
            <Time>2022-07-04T14:32:44.000Z</Time>
            <Position>
              <LatitudeDegrees>44.63119936175644397735595703125</LatitudeDegrees>
              <LongitudeDegrees>-0.98299297504127025604248046875</LongitudeDegrees>
            </Position>
            <AltitudeMeters>-2.2000000476837158203125</AltitudeMeters>
            <DistanceMeters>NAN</DistanceMeters>
          </Trackpoint>
          <Trackpoint>
            <Time>2022-07-04T14:32:45.000Z</Time>
            <Position>
              <LatitudeDegrees>44.6311761438846588134765625</LatitudeDegrees>
              <LongitudeDegrees>-0.98305282182991504669189453125</LongitudeDegrees>
            </Position>
            <AltitudeMeters>-2.400000095367431640625</AltitudeMeters>
            <DistanceMeters>NAN</DistanceMeters>
          </Trackpoint>
          <Trackpoint>
            <Time>2022-07-04T14:32:48.000Z</Time>
            <Position>
              <LatitudeDegrees>44.63114739395678043365478515625</LatitudeDegrees>
              <LongitudeDegrees>-0.98321710713207721710205078125</LongitudeDegrees>
            </Position>
            <AltitudeMeters>-2.599999904632568359375</AltitudeMeters>
            <DistanceMeters>NAN</DistanceMeters>
          </Trackpoint>
          <Trackpoint>
            <Time>2022-07-04T14:32:50.000Z</Time>
            <Position>
              <LatitudeDegrees>44.63110707700252532958984375</LatitudeDegrees>
              <LongitudeDegrees>-0.98330930806696414947509765625</LongitudeDegrees>
            </Position>
            <AltitudeMeters>-2.599999904632568359375</AltitudeMeters>
            <DistanceMeters>NAN</DistanceMeters>
          </Trackpoint>
          <Trackpoint>
            <Time>2022-07-04T14:32:53.000Z</Time>
            <Position>
              <LatitudeDegrees>44.6310271136462688446044921875</LatitudeDegrees>
              <LongitudeDegrees>-0.98342447541654109954833984375</LongitudeDegrees>
            </Position>
            <AltitudeMeters>-2.599999904632568359375</AltitudeMeters>
            <DistanceMeters>NAN</DistanceMeters>
          </Trackpoint>
          <Trackpoint>
            <Time>2022-07-04T14:33:00.000Z</Time>
            <Position>
              <LatitudeDegrees>44.63087372481822967529296875</LatitudeDegrees>
              <LongitudeDegrees>-0.98374298773705959320068359375</LongitudeDegrees>
            </Position>
            <AltitudeMeters>-2.400000095367431640625</AltitudeMeters>
            <DistanceMeters>NAN</DistanceMeters>
          </Trackpoint>
          <Trackpoint>
            <Time>2022-07-04T14:33:06.000Z</Time>
            <Position>
              <LatitudeDegrees>44.6307022310793399810791015625</LatitudeDegrees>
              <LongitudeDegrees>-0.98409703932702541351318359375</LongitudeDegrees>
            </Position>
            <AltitudeMeters>-2.400000095367431640625</AltitudeMeters>
            <DistanceMeters>NAN</DistanceMeters>
          </Trackpoint>
          <Trackpoint>
            <Time>2022-07-04T14:33:14.000Z</Time>
            <Position>
              <LatitudeDegrees>44.63047013618052005767822265625</LatitudeDegrees>
              <LongitudeDegrees>-0.98457531072199344635009765625</LongitudeDegrees>
            </Position>
            <AltitudeMeters>-2.400000095367431640625</AltitudeMeters>
            <DistanceMeters>NAN</DistanceMeters>
          </Trackpoint>
          <Trackpoint>
            <Time>2022-07-04T14:33:16.000Z</Time>
            <Position>
              <LatitudeDegrees>44.6304197609424591064453125</LatitudeDegrees>
              <LongitudeDegrees>-0.984690226614475250244140625</LongitudeDegrees>
            </Position>
            <AltitudeMeters>-2.599999904632568359375</AltitudeMeters>
            <DistanceMeters>NAN</DistanceMeters>
          </Trackpoint>
          <Trackpoint>
            <Time>2022-07-04T14:33:19.000Z</Time>
            <Position>
              <LatitudeDegrees>44.63035765103995800018310546875</LatitudeDegrees>
              <LongitudeDegrees>-0.984841100871562957763671875</LongitudeDegrees>
            </Position>
            <AltitudeMeters>-2.599999904632568359375</AltitudeMeters>
            <DistanceMeters>NAN</DistanceMeters>
          </Trackpoint>
          <Trackpoint>
            <Time>2022-07-04T14:33:21.000Z</Time>
            <Position>
              <LatitudeDegrees>44.630313478410243988037109375</LatitudeDegrees>
              <LongitudeDegrees>-0.9849445335566997528076171875</LongitudeDegrees>
            </Position>
            <AltitudeMeters>-2.599999904632568359375</AltitudeMeters>
            <DistanceMeters>NAN</DistanceMeters>
          </Trackpoint>
          <Trackpoint>
            <Time>2022-07-04T14:33:29.000Z</Time>
            <Position>
              <LatitudeDegrees>44.63015447370707988739013671875</LatitudeDegrees>
              <LongitudeDegrees>-0.9853076376020908355712890625</LongitudeDegrees>
            </Position>
            <AltitudeMeters>-2.599999904632568359375</AltitudeMeters>
            <DistanceMeters>NAN</DistanceMeters>
          </Trackpoint>
          <Trackpoint>
            <Time>2022-07-04T14:33:36.000Z</Time>
            <Position>
              <LatitudeDegrees>44.63005657307803630828857421875</LatitudeDegrees>
              <LongitudeDegrees>-0.985546521842479705810546875</LongitudeDegrees>
            </Position>
            <AltitudeMeters>-2.400000095367431640625</AltitudeMeters>
            <DistanceMeters>NAN</DistanceMeters>
          </Trackpoint>
          <Trackpoint>
            <Time>2022-07-04T14:33:44.000Z</Time>
            <Position>
              <LatitudeDegrees>44.62991709820926189422607421875</LatitudeDegrees>
              <LongitudeDegrees>-0.985824130475521087646484375</LongitudeDegrees>
            </Position>
            <AltitudeMeters>-2</AltitudeMeters>
            <DistanceMeters>NAN</DistanceMeters>
          </Trackpoint>
          <Trackpoint>
            <Time>2022-07-04T14:33:50.000Z</Time>
            <Position>
              <LatitudeDegrees>44.62978868745267391204833984375</LatitudeDegrees>
              <LongitudeDegrees>-0.98605890758335590362548828125</LongitudeDegrees>
            </Position>
            <AltitudeMeters>-2</AltitudeMeters>
            <DistanceMeters>NAN</DistanceMeters>
          </Trackpoint>
          <Trackpoint>
            <Time>2022-07-04T14:33:54.000Z</Time>
            <Position>
              <LatitudeDegrees>44.6296960674226284027099609375</LatitudeDegrees>
              <LongitudeDegrees>-0.9862534515559673309326171875</LongitudeDegrees>
            </Position>
            <AltitudeMeters>-1.60000002384185791015625</AltitudeMeters>
            <DistanceMeters>NAN</DistanceMeters>
          </Trackpoint>
          <Trackpoint>
            <Time>2022-07-04T14:33:57.000Z</Time>
            <Position>
              <LatitudeDegrees>44.62962959893047809600830078125</LatitudeDegrees>
              <LongitudeDegrees>-0.9864009730517864227294921875</LongitudeDegrees>
            </Position>
            <AltitudeMeters>-1.39999997615814208984375</AltitudeMeters>
            <DistanceMeters>NAN</DistanceMeters>
          </Trackpoint>
          <Trackpoint>
            <Time>2022-07-04T14:33:58.000Z</Time>
            <Position>
              <LatitudeDegrees>44.62961065582931041717529296875</LatitudeDegrees>
              <LongitudeDegrees>-0.986454784870147705078125</LongitudeDegrees>
            </Position>
            <AltitudeMeters>-1.39999997615814208984375</AltitudeMeters>
            <DistanceMeters>NAN</DistanceMeters>
          </Trackpoint>
          <Trackpoint>
            <Time>2022-07-04T14:34:03.000Z</Time>
            <Position>
              <LatitudeDegrees>44.62950319983065128326416015625</LatitudeDegrees>
              <LongitudeDegrees>-0.986717641353607177734375</LongitudeDegrees>
            </Position>
            <AltitudeMeters>-1.2000000476837158203125</AltitudeMeters>
            <DistanceMeters>NAN</DistanceMeters>
          </Trackpoint>
          <Trackpoint>
            <Time>2022-07-04T14:34:07.000Z</Time>
            <Position>
              <LatitudeDegrees>44.62940789759159088134765625</LatitudeDegrees>
              <LongitudeDegrees>-0.9869099222123622894287109375</LongitudeDegrees>
            </Position>
            <AltitudeMeters>-1.39999997615814208984375</AltitudeMeters>
            <DistanceMeters>NAN</DistanceMeters>
          </Trackpoint>
          <Trackpoint>
            <Time>2022-07-04T14:34:16.000Z</Time>
            <Position>
              <LatitudeDegrees>44.6291814185678958892822265625</LatitudeDegrees>
              <LongitudeDegrees>-0.9874339587986469268798828125</LongitudeDegrees>
            </Position>
            <AltitudeMeters>-1.7999999523162841796875</AltitudeMeters>
            <DistanceMeters>NAN</DistanceMeters>
          </Trackpoint>
          <Trackpoint>
            <Time>2022-07-04T14:34:17.000Z</Time>
            <Position>
              <LatitudeDegrees>44.629156775772571563720703125</LatitudeDegrees>
              <LongitudeDegrees>-0.98749749362468719482421875</LongitudeDegrees>
            </Position>
            <AltitudeMeters>-1.7999999523162841796875</AltitudeMeters>
            <DistanceMeters>NAN</DistanceMeters>
          </Trackpoint>
          <Trackpoint>
            <Time>2022-07-04T14:34:22.000Z</Time>
            <Position>
              <LatitudeDegrees>44.62902341969311237335205078125</LatitudeDegrees>
              <LongitudeDegrees>-0.987785495817661285400390625</LongitudeDegrees>
            </Position>
            <AltitudeMeters>-2</AltitudeMeters>
            <DistanceMeters>NAN</DistanceMeters>
          </Trackpoint>
          <Trackpoint>
            <Time>2022-07-04T14:34:30.000Z</Time>
            <Position>
              <LatitudeDegrees>44.6288038976490497589111328125</LatitudeDegrees>
              <LongitudeDegrees>-0.98830224014818668365478515625</LongitudeDegrees>
            </Position>
            <AltitudeMeters>-2.599999904632568359375</AltitudeMeters>
            <DistanceMeters>NAN</DistanceMeters>
          </Trackpoint>
          <Trackpoint>
            <Time>2022-07-04T14:34:31.000Z</Time>
            <Position>
              <LatitudeDegrees>44.62878151796758174896240234375</LatitudeDegrees>
              <LongitudeDegrees>-0.98836778663098812103271484375</LongitudeDegrees>
            </Position>
            <AltitudeMeters>-2.599999904632568359375</AltitudeMeters>
            <DistanceMeters>NAN</DistanceMeters>
          </Trackpoint>
          <Trackpoint>
            <Time>2022-07-04T14:34:32.000Z</Time>
            <Position>
              <LatitudeDegrees>44.62876073084771633148193359375</LatitudeDegrees>
              <LongitudeDegrees>-0.9884220175445079803466796875</LongitudeDegrees>
            </Position>
            <AltitudeMeters>-2.599999904632568359375</AltitudeMeters>
            <DistanceMeters>NAN</DistanceMeters>
          </Trackpoint>
          <Trackpoint>
            <Time>2022-07-04T14:34:36.000Z</Time>
            <Position>
              <LatitudeDegrees>44.62867003865540027618408203125</LatitudeDegrees>
              <LongitudeDegrees>-0.9886426292359828948974609375</LongitudeDegrees>
            </Position>
            <AltitudeMeters>-2.7999999523162841796875</AltitudeMeters>
            <DistanceMeters>NAN</DistanceMeters>
          </Trackpoint>
          <Trackpoint>
            <Time>2022-07-04T14:34:37.000Z</Time>
            <Position>
              <LatitudeDegrees>44.62864522822201251983642578125</LatitudeDegrees>
              <LongitudeDegrees>-0.98869233392179012298583984375</LongitudeDegrees>
            </Position>
            <AltitudeMeters>-2.7999999523162841796875</AltitudeMeters>
            <DistanceMeters>NAN</DistanceMeters>
          </Trackpoint>
          <Trackpoint>
            <Time>2022-07-04T14:34:39.000Z</Time>
            <Position>
              <LatitudeDegrees>44.62859510444104671478271484375</LatitudeDegrees>
              <LongitudeDegrees>-0.98880548961460590362548828125</LongitudeDegrees>
            </Position>
            <AltitudeMeters>-2.7999999523162841796875</AltitudeMeters>
            <DistanceMeters>NAN</DistanceMeters>
          </Trackpoint>
          <Trackpoint>
            <Time>2022-07-04T14:34:41.000Z</Time>
            <Position>
              <LatitudeDegrees>44.62854967452585697174072265625</LatitudeDegrees>
              <LongitudeDegrees>-0.9889272786676883697509765625</LongitudeDegrees>
            </Position>
            <AltitudeMeters>-2.7999999523162841796875</AltitudeMeters>
            <DistanceMeters>NAN</DistanceMeters>
          </Trackpoint>
          <Trackpoint>
            <Time>2022-07-04T14:34:46.000Z</Time>
            <Position>
              <LatitudeDegrees>44.62839662097394466400146484375</LatitudeDegrees>
              <LongitudeDegrees>-0.98923715762794017791748046875</LongitudeDegrees>
            </Position>
            <AltitudeMeters>-2.7999999523162841796875</AltitudeMeters>
            <DistanceMeters>NAN</DistanceMeters>
          </Trackpoint>
          <Trackpoint>
            <Time>2022-07-04T14:34:48.000Z</Time>
            <Position>
              <LatitudeDegrees>44.6283204294741153717041015625</LatitudeDegrees>
              <LongitudeDegrees>-0.98935835994780063629150390625</LongitudeDegrees>
            </Position>
            <AltitudeMeters>-2.7999999523162841796875</AltitudeMeters>
            <DistanceMeters>NAN</DistanceMeters>
          </Trackpoint>
          <Trackpoint>
            <Time>2022-07-04T14:34:50.000Z</Time>
            <Position>
              <LatitudeDegrees>44.6282672882080078125</LatitudeDegrees>
              <LongitudeDegrees>-0.989488698542118072509765625</LongitudeDegrees>
            </Position>
            <AltitudeMeters>-2.7999999523162841796875</AltitudeMeters>
            <DistanceMeters>NAN</DistanceMeters>
          </Trackpoint>
          <Trackpoint>
            <Time>2022-07-04T14:34:52.000Z</Time>
            <Position>
              <LatitudeDegrees>44.6282074414193630218505859375</LatitudeDegrees>
              <LongitudeDegrees>-0.98959556780755519866943359375</LongitudeDegrees>
            </Position>
            <AltitudeMeters>-2.7999999523162841796875</AltitudeMeters>
            <DistanceMeters>NAN</DistanceMeters>
          </Trackpoint>
          <Trackpoint>
            <Time>2022-07-04T14:34:54.000Z</Time>
            <Position>
              <LatitudeDegrees>44.62816393934190273284912109375</LatitudeDegrees>
              <LongitudeDegrees>-0.98971568048000335693359375</LongitudeDegrees>
            </Position>
            <AltitudeMeters>-2.7999999523162841796875</AltitudeMeters>
            <DistanceMeters>NAN</DistanceMeters>
          </Trackpoint>
          <Trackpoint>
            <Time>2022-07-04T14:34:56.000Z</Time>
            <Position>
              <LatitudeDegrees>44.62811901234090328216552734375</LatitudeDegrees>
              <LongitudeDegrees>-0.9898533113300800323486328125</LongitudeDegrees>
            </Position>
            <AltitudeMeters>-2.7999999523162841796875</AltitudeMeters>
            <DistanceMeters>NAN</DistanceMeters>
          </Trackpoint>
          <Trackpoint>
            <Time>2022-07-04T14:34:57.000Z</Time>
            <Position>
              <LatitudeDegrees>44.62809319607913494110107421875</LatitudeDegrees>
              <LongitudeDegrees>-0.98990670405328273773193359375</LongitudeDegrees>
            </Position>
            <AltitudeMeters>-2.7999999523162841796875</AltitudeMeters>
            <DistanceMeters>NAN</DistanceMeters>
          </Trackpoint>
          <Trackpoint>
            <Time>2022-07-04T14:34:58.000Z</Time>
            <Position>
              <LatitudeDegrees>44.6280686371028423309326171875</LatitudeDegrees>
              <LongitudeDegrees>-0.9899599291384220123291015625</LongitudeDegrees>
            </Position>
            <AltitudeMeters>-2.7999999523162841796875</AltitudeMeters>
            <DistanceMeters>NAN</DistanceMeters>
          </Trackpoint>
          <Trackpoint>
            <Time>2022-07-04T14:35:03.000Z</Time>
            <Position>
              <LatitudeDegrees>44.6279244683682918548583984375</LatitudeDegrees>
              <LongitudeDegrees>-0.99027534015476703643798828125</LongitudeDegrees>
            </Position>
            <AltitudeMeters>-2.7999999523162841796875</AltitudeMeters>
            <DistanceMeters>NAN</DistanceMeters>
          </Trackpoint>
          <Trackpoint>
            <Time>2022-07-04T14:35:05.000Z</Time>
            <Position>
              <LatitudeDegrees>44.6278895996510982513427734375</LatitudeDegrees>
              <LongitudeDegrees>-0.99037692882120609283447265625</LongitudeDegrees>
            </Position>
            <AltitudeMeters>-2.7999999523162841796875</AltitudeMeters>
            <DistanceMeters>NAN</DistanceMeters>
          </Trackpoint>
          <Trackpoint>
            <Time>2022-07-04T14:35:07.000Z</Time>
            <Position>
              <LatitudeDegrees>44.62784056551754474639892578125</LatitudeDegrees>
              <LongitudeDegrees>-0.99048011004924774169921875</LongitudeDegrees>
            </Position>
            <AltitudeMeters>-2.7999999523162841796875</AltitudeMeters>
            <DistanceMeters>NAN</DistanceMeters>
          </Trackpoint>
          <Trackpoint>
            <Time>2022-07-04T14:35:08.000Z</Time>
            <Position>
              <LatitudeDegrees>44.627818353474140167236328125</LatitudeDegrees>
              <LongitudeDegrees>-0.990536101162433624267578125</LongitudeDegrees>
            </Position>
            <AltitudeMeters>-2.7999999523162841796875</AltitudeMeters>
            <DistanceMeters>NAN</DistanceMeters>
          </Trackpoint>
          <Trackpoint>
            <Time>2022-07-04T14:35:13.000Z</Time>
            <Position>
              <LatitudeDegrees>44.627688936889171600341796875</LatitudeDegrees>
              <LongitudeDegrees>-0.99082209169864654541015625</LongitudeDegrees>
            </Position>
            <AltitudeMeters>-2.599999904632568359375</AltitudeMeters>
            <DistanceMeters>NAN</DistanceMeters>
          </Trackpoint>
          <Trackpoint>
            <Time>2022-07-04T14:35:15.000Z</Time>
            <Position>
              <LatitudeDegrees>44.62764526717364788055419921875</LatitudeDegrees>
              <LongitudeDegrees>-0.9909221716225147247314453125</LongitudeDegrees>
            </Position>
            <AltitudeMeters>-2.599999904632568359375</AltitudeMeters>
            <DistanceMeters>NAN</DistanceMeters>
          </Trackpoint>
          <Trackpoint>
            <Time>2022-07-04T14:35:20.000Z</Time>
            <Position>
              <LatitudeDegrees>44.62754108011722564697265625</LatitudeDegrees>
              <LongitudeDegrees>-0.99115678109228610992431640625</LongitudeDegrees>
            </Position>
            <AltitudeMeters>-2.7999999523162841796875</AltitudeMeters>
            <DistanceMeters>NAN</DistanceMeters>
          </Trackpoint>
          <Trackpoint>
            <Time>2022-07-04T14:35:25.000Z</Time>
            <Position>
              <LatitudeDegrees>44.62747813202440738677978515625</LatitudeDegrees>
              <LongitudeDegrees>-0.9913607127964496612548828125</LongitudeDegrees>
            </Position>
            <AltitudeMeters>-2.7999999523162841796875</AltitudeMeters>
            <DistanceMeters>NAN</DistanceMeters>
          </Trackpoint>
          <Trackpoint>
            <Time>2022-07-04T14:35:29.000Z</Time>
            <Position>
              <LatitudeDegrees>44.62732289917767047882080078125</LatitudeDegrees>
              <LongitudeDegrees>-0.99158710800111293792724609375</LongitudeDegrees>
            </Position>
            <AltitudeMeters>-2.400000095367431640625</AltitudeMeters>
            <DistanceMeters>NAN</DistanceMeters>
          </Trackpoint>
          <Trackpoint>
            <Time>2022-07-04T14:35:35.000Z</Time>
            <Position>
              <LatitudeDegrees>44.62715484201908111572265625</LatitudeDegrees>
              <LongitudeDegrees>-0.99193411879241466522216796875</LongitudeDegrees>
            </Position>
            <AltitudeMeters>-2.400000095367431640625</AltitudeMeters>
            <DistanceMeters>NAN</DistanceMeters>
          </Trackpoint>
          <Trackpoint>
            <Time>2022-07-04T14:35:37.000Z</Time>
            <Position>
              <LatitudeDegrees>44.62710614316165447235107421875</LatitudeDegrees>
              <LongitudeDegrees>-0.99203721620142459869384765625</LongitudeDegrees>
            </Position>
            <AltitudeMeters>-2.2000000476837158203125</AltitudeMeters>
            <DistanceMeters>NAN</DistanceMeters>
          </Trackpoint>
          <Trackpoint>
            <Time>2022-07-04T14:35:40.000Z</Time>
            <Position>
              <LatitudeDegrees>44.627025425434112548828125</LatitudeDegrees>
              <LongitudeDegrees>-0.9922079555690288543701171875</LongitudeDegrees>
            </Position>
            <AltitudeMeters>-2</AltitudeMeters>
            <DistanceMeters>NAN</DistanceMeters>
          </Trackpoint>
          <Trackpoint>
            <Time>2022-07-04T14:35:41.000Z</Time>
            <Position>
              <LatitudeDegrees>44.6269887126982212066650390625</LatitudeDegrees>
              <LongitudeDegrees>-0.9922672994434833526611328125</LongitudeDegrees>
            </Position>
            <AltitudeMeters>-1.7999999523162841796875</AltitudeMeters>
            <DistanceMeters>NAN</DistanceMeters>
          </Trackpoint>
          <Trackpoint>
            <Time>2022-07-04T14:35:45.000Z</Time>
            <Position>
              <LatitudeDegrees>44.62688134051859378814697265625</LatitudeDegrees>
              <LongitudeDegrees>-0.9925100393593311309814453125</LongitudeDegrees>
            </Position>
            <AltitudeMeters>-1.7999999523162841796875</AltitudeMeters>
            <DistanceMeters>NAN</DistanceMeters>
          </Trackpoint>
          <Trackpoint>
            <Time>2022-07-04T14:35:48.000Z</Time>
            <Position>
              <LatitudeDegrees>44.62684571743011474609375</LatitudeDegrees>
              <LongitudeDegrees>-0.99269318394362926483154296875</LongitudeDegrees>
            </Position>
            <AltitudeMeters>-1.7999999523162841796875</AltitudeMeters>
            <DistanceMeters>NAN</DistanceMeters>
          </Trackpoint>
          <Trackpoint>
            <Time>2022-07-04T14:35:49.000Z</Time>
            <Position>
              <LatitudeDegrees>44.62683389894664287567138671875</LatitudeDegrees>
              <LongitudeDegrees>-0.9927544556558132171630859375</LongitudeDegrees>
            </Position>
            <AltitudeMeters>-1.7999999523162841796875</AltitudeMeters>
            <DistanceMeters>NAN</DistanceMeters>
          </Trackpoint>
          <Trackpoint>
            <Time>2022-07-04T14:35:56.000Z</Time>
            <Position>
              <LatitudeDegrees>44.6267469786107540130615234375</LatitudeDegrees>
              <LongitudeDegrees>-0.9932179749011993408203125</LongitudeDegrees>
            </Position>
            <AltitudeMeters>-1.60000002384185791015625</AltitudeMeters>
            <DistanceMeters>NAN</DistanceMeters>
          </Trackpoint>
          <Trackpoint>
            <Time>2022-07-04T14:35:57.000Z</Time>
            <Position>
              <LatitudeDegrees>44.6267402730882167816162109375</LatitudeDegrees>
              <LongitudeDegrees>-0.99328947253525257110595703125</LongitudeDegrees>
            </Position>
            <AltitudeMeters>-1.60000002384185791015625</AltitudeMeters>
            <DistanceMeters>NAN</DistanceMeters>
          </Trackpoint>
          <Trackpoint>
            <Time>2022-07-04T14:35:58.000Z</Time>
            <Position>
              <LatitudeDegrees>44.6267298795282840728759765625</LatitudeDegrees>
              <LongitudeDegrees>-0.99336214363574981689453125</LongitudeDegrees>
            </Position>
            <AltitudeMeters>-1.60000002384185791015625</AltitudeMeters>
            <DistanceMeters>NAN</DistanceMeters>
          </Trackpoint>
          <Trackpoint>
            <Time>2022-07-04T14:36:02.000Z</Time>
            <Position>
              <LatitudeDegrees>44.626700878143310546875</LatitudeDegrees>
              <LongitudeDegrees>-0.99360010586678981781005859375</LongitudeDegrees>
            </Position>
            <AltitudeMeters>-1.60000002384185791015625</AltitudeMeters>
            <DistanceMeters>NAN</DistanceMeters>
          </Trackpoint>
          <Trackpoint>
            <Time>2022-07-04T14:36:10.000Z</Time>
            <Position>
              <LatitudeDegrees>44.6266460604965686798095703125</LatitudeDegrees>
              <LongitudeDegrees>-0.994115173816680908203125</LongitudeDegrees>
            </Position>
            <AltitudeMeters>-1.60000002384185791015625</AltitudeMeters>
            <DistanceMeters>NAN</DistanceMeters>
          </Trackpoint>
          <Trackpoint>
            <Time>2022-07-04T14:36:19.000Z</Time>
            <Position>
              <LatitudeDegrees>44.626587219536304473876953125</LatitudeDegrees>
              <LongitudeDegrees>-0.99465019069612026214599609375</LongitudeDegrees>
            </Position>
            <AltitudeMeters>-0.800000011920928955078125</AltitudeMeters>
            <DistanceMeters>NAN</DistanceMeters>
          </Trackpoint>
          <Trackpoint>
            <Time>2022-07-04T14:36:21.000Z</Time>
            <Position>
              <LatitudeDegrees>44.62657137773931026458740234375</LatitudeDegrees>
              <LongitudeDegrees>-0.994771979749202728271484375</LongitudeDegrees>
            </Position>
            <AltitudeMeters>-0.800000011920928955078125</AltitudeMeters>
            <DistanceMeters>NAN</DistanceMeters>
          </Trackpoint>
          <Trackpoint>
            <Time>2022-07-04T14:36:30.000Z</Time>
            <Position>
              <LatitudeDegrees>44.62653768248856067657470703125</LatitudeDegrees>
              <LongitudeDegrees>-0.995325185358524322509765625</LongitudeDegrees>
            </Position>
            <AltitudeMeters>-0.60000002384185791015625</AltitudeMeters>
            <DistanceMeters>NAN</DistanceMeters>
          </Trackpoint>
          <Trackpoint>
            <Time>2022-07-04T14:36:31.000Z</Time>
            <Position>
              <LatitudeDegrees>44.62653701193630695343017578125</LatitudeDegrees>
              <LongitudeDegrees>-0.9953857026994228363037109375</LongitudeDegrees>
            </Position>
            <AltitudeMeters>-0.60000002384185791015625</AltitudeMeters>
            <DistanceMeters>NAN</DistanceMeters>
          </Trackpoint>
          <Trackpoint>
            <Time>2022-07-04T14:36:38.000Z</Time>
            <Position>
              <LatitudeDegrees>44.6265198290348052978515625</LatitudeDegrees>
              <LongitudeDegrees>-0.99576213397085666656494140625</LongitudeDegrees>
            </Position>
            <AltitudeMeters>-0.4000000059604644775390625</AltitudeMeters>
            <DistanceMeters>NAN</DistanceMeters>
          </Trackpoint>
          <Trackpoint>
            <Time>2022-07-04T14:36:39.000Z</Time>
            <Position>
              <LatitudeDegrees>44.62651220150291919708251953125</LatitudeDegrees>
              <LongitudeDegrees>-0.9958165325224399566650390625</LongitudeDegrees>
            </Position>
            <AltitudeMeters>-0.4000000059604644775390625</AltitudeMeters>
            <DistanceMeters>NAN</DistanceMeters>
          </Trackpoint>
          <Trackpoint>
            <Time>2022-07-04T14:36:50.000Z</Time>
            <Position>
              <LatitudeDegrees>44.626448415219783782958984375</LatitudeDegrees>
              <LongitudeDegrees>-0.99634434096515178680419921875</LongitudeDegrees>
            </Position>
            <AltitudeMeters>0</AltitudeMeters>
            <DistanceMeters>NAN</DistanceMeters>
          </Trackpoint>
          <Trackpoint>
            <Time>2022-07-04T14:36:59.000Z</Time>
            <Position>
              <LatitudeDegrees>44.62639653123915195465087890625</LatitudeDegrees>
              <LongitudeDegrees>-0.99681682884693145751953125</LongitudeDegrees>
            </Position>
            <AltitudeMeters>0</AltitudeMeters>
            <DistanceMeters>NAN</DistanceMeters>
          </Trackpoint>
          <Trackpoint>
            <Time>2022-07-04T14:37:03.000Z</Time>
            <Position>
              <LatitudeDegrees>44.62637121789157390594482421875</LatitudeDegrees>
              <LongitudeDegrees>-0.9970855526626110076904296875</LongitudeDegrees>
            </Position>
            <AltitudeMeters>-0.20000000298023223876953125</AltitudeMeters>
            <DistanceMeters>NAN</DistanceMeters>
          </Trackpoint>
          <Trackpoint>
            <Time>2022-07-04T14:37:05.000Z</Time>
            <Position>
              <LatitudeDegrees>44.62635545991361141204833984375</LatitudeDegrees>
              <LongitudeDegrees>-0.99721622653305530548095703125</LongitudeDegrees>
            </Position>
            <AltitudeMeters>-0.4000000059604644775390625</AltitudeMeters>
            <DistanceMeters>NAN</DistanceMeters>
          </Trackpoint>
          <Trackpoint>
            <Time>2022-07-04T14:37:07.000Z</Time>
            <Position>
              <LatitudeDegrees>44.62634154595434665679931640625</LatitudeDegrees>
              <LongitudeDegrees>-0.99735385738313198089599609375</LongitudeDegrees>
            </Position>
            <AltitudeMeters>-0.4000000059604644775390625</AltitudeMeters>
            <DistanceMeters>NAN</DistanceMeters>
          </Trackpoint>
          <Trackpoint>
            <Time>2022-07-04T14:37:09.000Z</Time>
            <Position>
              <LatitudeDegrees>44.62632964365184307098388671875</LatitudeDegrees>
              <LongitudeDegrees>-0.99748746491968631744384765625</LongitudeDegrees>
            </Position>
            <AltitudeMeters>-0.4000000059604644775390625</AltitudeMeters>
            <DistanceMeters>NAN</DistanceMeters>
          </Trackpoint>
          <Trackpoint>
            <Time>2022-07-04T14:37:14.000Z</Time>
            <Position>
              <LatitudeDegrees>44.626302234828472137451171875</LatitudeDegrees>
              <LongitudeDegrees>-0.997821986675262451171875</LongitudeDegrees>
            </Position>
            <AltitudeMeters>-0.60000002384185791015625</AltitudeMeters>
            <DistanceMeters>NAN</DistanceMeters>
          </Trackpoint>
          <Trackpoint>
            <Time>2022-07-04T14:37:15.000Z</Time>
            <Position>
              <LatitudeDegrees>44.62629728950560092926025390625</LatitudeDegrees>
              <LongitudeDegrees>-0.99788862280547618865966796875</LongitudeDegrees>
            </Position>
            <AltitudeMeters>-0.800000011920928955078125</AltitudeMeters>
            <DistanceMeters>NAN</DistanceMeters>
          </Trackpoint>
          <Trackpoint>
            <Time>2022-07-04T14:37:16.000Z</Time>
            <Position>
              <LatitudeDegrees>44.62629578076303005218505859375</LatitudeDegrees>
              <LongitudeDegrees>-0.99795584566891193389892578125</LongitudeDegrees>
            </Position>
            <AltitudeMeters>-0.800000011920928955078125</AltitudeMeters>
            <DistanceMeters>NAN</DistanceMeters>
          </Trackpoint>
          <Trackpoint>
            <Time>2022-07-04T14:37:18.000Z</Time>
            <Position>
              <LatitudeDegrees>44.626296870410442352294921875</LatitudeDegrees>
              <LongitudeDegrees>-0.998089201748371124267578125</LongitudeDegrees>
            </Position>
            <AltitudeMeters>-0.800000011920928955078125</AltitudeMeters>
            <DistanceMeters>NAN</DistanceMeters>
          </Trackpoint>
          <Trackpoint>
            <Time>2022-07-04T14:37:22.000Z</Time>
            <Position>
              <LatitudeDegrees>44.62628186680376529693603515625</LatitudeDegrees>
              <LongitudeDegrees>-0.998377539217472076416015625</LongitudeDegrees>
            </Position>
            <AltitudeMeters>-1.2000000476837158203125</AltitudeMeters>
            <DistanceMeters>NAN</DistanceMeters>
          </Trackpoint>
          <Trackpoint>
            <Time>2022-07-04T14:37:27.000Z</Time>
            <Position>
              <LatitudeDegrees>44.626275412738323211669921875</LatitudeDegrees>
              <LongitudeDegrees>-0.9987387992441654205322265625</LongitudeDegrees>
            </Position>
            <AltitudeMeters>-1.7999999523162841796875</AltitudeMeters>
            <DistanceMeters>NAN</DistanceMeters>
          </Trackpoint>
          <Trackpoint>
            <Time>2022-07-04T14:37:28.000Z</Time>
            <Position>
              <LatitudeDegrees>44.62628739885985851287841796875</LatitudeDegrees>
              <LongitudeDegrees>-0.99880560301244258880615234375</LongitudeDegrees>
            </Position>
            <AltitudeMeters>-2</AltitudeMeters>
            <DistanceMeters>NAN</DistanceMeters>
          </Trackpoint>
          <Trackpoint>
            <Time>2022-07-04T14:37:29.000Z</Time>
            <Position>
              <LatitudeDegrees>44.6263117901980876922607421875</LatitudeDegrees>
              <LongitudeDegrees>-0.9988672100007534027099609375</LongitudeDegrees>
            </Position>
            <AltitudeMeters>-2</AltitudeMeters>
            <DistanceMeters>NAN</DistanceMeters>
          </Trackpoint>
          <Trackpoint>
            <Time>2022-07-04T14:37:32.000Z</Time>
            <Position>
              <LatitudeDegrees>44.62640591897070407867431640625</LatitudeDegrees>
              <LongitudeDegrees>-0.99903224967420101165771484375</LongitudeDegrees>
            </Position>
            <AltitudeMeters>-2.599999904632568359375</AltitudeMeters>
            <DistanceMeters>NAN</DistanceMeters>
          </Trackpoint>
          <Trackpoint>
            <Time>2022-07-04T14:37:34.000Z</Time>
            <Position>
              <LatitudeDegrees>44.6264660172164440155029296875</LatitudeDegrees>
              <LongitudeDegrees>-0.99912143312394618988037109375</LongitudeDegrees>
            </Position>
            <AltitudeMeters>-2.599999904632568359375</AltitudeMeters>
            <DistanceMeters>NAN</DistanceMeters>
          </Trackpoint>
          <Trackpoint>
            <Time>2022-07-04T14:37:38.000Z</Time>
            <Position>
              <LatitudeDegrees>44.62651438079774379730224609375</LatitudeDegrees>
              <LongitudeDegrees>-0.999375320971012115478515625</LongitudeDegrees>
            </Position>
            <AltitudeMeters>-2.599999904632568359375</AltitudeMeters>
            <DistanceMeters>NAN</DistanceMeters>
          </Trackpoint>
          <Trackpoint>
            <Time>2022-07-04T14:37:41.000Z</Time>
            <Position>
              <LatitudeDegrees>44.626495353877544403076171875</LatitudeDegrees>
              <LongitudeDegrees>-0.9995774924755096435546875</LongitudeDegrees>
            </Position>
            <AltitudeMeters>-2.7999999523162841796875</AltitudeMeters>
            <DistanceMeters>NAN</DistanceMeters>
          </Trackpoint>
          <Trackpoint>
            <Time>2022-07-04T14:37:42.000Z</Time>
            <Position>
              <LatitudeDegrees>44.62647766806185245513916015625</LatitudeDegrees>
              <LongitudeDegrees>-0.99964597262442111968994140625</LongitudeDegrees>
            </Position>
            <AltitudeMeters>-2.7999999523162841796875</AltitudeMeters>
            <DistanceMeters>NAN</DistanceMeters>
          </Trackpoint>
          <Trackpoint>
            <Time>2022-07-04T14:37:43.000Z</Time>
            <Position>
              <LatitudeDegrees>44.62645503692328929901123046875</LatitudeDegrees>
              <LongitudeDegrees>-0.99971151910722255706787109375</LongitudeDegrees>
            </Position>
            <AltitudeMeters>-2.7999999523162841796875</AltitudeMeters>
            <DistanceMeters>NAN</DistanceMeters>
          </Trackpoint>
          <Trackpoint>
            <Time>2022-07-04T14:37:47.000Z</Time>
            <Position>
              <LatitudeDegrees>44.62637406773865222930908203125</LatitudeDegrees>
              <LongitudeDegrees>-0.9999655745923519134521484375</LongitudeDegrees>
            </Position>
            <AltitudeMeters>-3.400000095367431640625</AltitudeMeters>
            <DistanceMeters>NAN</DistanceMeters>
          </Trackpoint>
          <Trackpoint>
            <Time>2022-07-04T14:37:49.000Z</Time>
            <Position>
              <LatitudeDegrees>44.62633886374533176422119140625</LatitudeDegrees>
              <LongitudeDegrees>-1.00008283741772174835205078125</LongitudeDegrees>
            </Position>
            <AltitudeMeters>-3.400000095367431640625</AltitudeMeters>
            <DistanceMeters>NAN</DistanceMeters>
          </Trackpoint>
          <Trackpoint>
            <Time>2022-07-04T14:37:50.000Z</Time>
            <Position>
              <LatitudeDegrees>44.62631673552095890045166015625</LatitudeDegrees>
              <LongitudeDegrees>-1.000133045017719268798828125</LongitudeDegrees>
            </Position>
            <AltitudeMeters>-3.400000095367431640625</AltitudeMeters>
            <DistanceMeters>NAN</DistanceMeters>
          </Trackpoint>
          <Trackpoint>
            <Time>2022-07-04T14:37:51.000Z</Time>
            <Position>
              <LatitudeDegrees>44.62628974579274654388427734375</LatitudeDegrees>
              <LongitudeDegrees>-1.0001764632761478424072265625</LongitudeDegrees>
            </Position>
            <AltitudeMeters>-3.400000095367431640625</AltitudeMeters>
            <DistanceMeters>NAN</DistanceMeters>
          </Trackpoint>
          <Trackpoint>
            <Time>2022-07-04T14:37:54.000Z</Time>
            <Position>
              <LatitudeDegrees>44.62618522346019744873046875</LatitudeDegrees>
              <LongitudeDegrees>-1.0002917982637882232666015625</LongitudeDegrees>
            </Position>
            <AltitudeMeters>-3</AltitudeMeters>
            <DistanceMeters>NAN</DistanceMeters>
          </Trackpoint>
          <Trackpoint>
            <Time>2022-07-04T14:37:55.000Z</Time>
            <Position>
              <LatitudeDegrees>44.626158066093921661376953125</LatitudeDegrees>
              <LongitudeDegrees>-1.00033747963607311248779296875</LongitudeDegrees>
            </Position>
            <AltitudeMeters>-3</AltitudeMeters>
            <DistanceMeters>NAN</DistanceMeters>
          </Trackpoint>
          <Trackpoint>
            <Time>2022-07-04T14:37:57.000Z</Time>
            <Position>
              <LatitudeDegrees>44.62612076662480831146240234375</LatitudeDegrees>
              <LongitudeDegrees>-1.0004493780434131622314453125</LongitudeDegrees>
            </Position>
            <AltitudeMeters>-3</AltitudeMeters>
            <DistanceMeters>NAN</DistanceMeters>
          </Trackpoint>
          <Trackpoint>
            <Time>2022-07-04T14:37:58.000Z</Time>
            <Position>
              <LatitudeDegrees>44.62611121125519275665283203125</LatitudeDegrees>
              <LongitudeDegrees>-1.00051023066043853759765625</LongitudeDegrees>
            </Position>
            <AltitudeMeters>-3</AltitudeMeters>
            <DistanceMeters>NAN</DistanceMeters>
          </Trackpoint>
          <Trackpoint>
            <Time>2022-07-04T14:37:59.000Z</Time>
            <Position>
              <LatitudeDegrees>44.6260982193052768707275390625</LatitudeDegrees>
              <LongitudeDegrees>-1.00057384930551052093505859375</LongitudeDegrees>
            </Position>
            <AltitudeMeters>-3</AltitudeMeters>
            <DistanceMeters>NAN</DistanceMeters>
          </Trackpoint>
          <Trackpoint>
            <Time>2022-07-04T14:38:00.000Z</Time>
            <Position>
              <LatitudeDegrees>44.62608204223215579986572265625</LatitudeDegrees>
              <LongitudeDegrees>-1.0006314329802989959716796875</LongitudeDegrees>
            </Position>
            <AltitudeMeters>-3</AltitudeMeters>
            <DistanceMeters>NAN</DistanceMeters>
          </Trackpoint>
          <Trackpoint>
            <Time>2022-07-04T14:38:04.000Z</Time>
            <Position>
              <LatitudeDegrees>44.6260249614715576171875</LatitudeDegrees>
              <LongitudeDegrees>-1.0008671320974826812744140625</LongitudeDegrees>
            </Position>
            <AltitudeMeters>-3</AltitudeMeters>
            <DistanceMeters>NAN</DistanceMeters>
          </Trackpoint>
          <Trackpoint>
            <Time>2022-07-04T14:38:12.000Z</Time>
            <Position>
              <LatitudeDegrees>44.62595312856137752532958984375</LatitudeDegrees>
              <LongitudeDegrees>-1.001408100128173828125</LongitudeDegrees>
            </Position>
            <AltitudeMeters>-2.7999999523162841796875</AltitudeMeters>
            <DistanceMeters>NAN</DistanceMeters>
          </Trackpoint>
          <Trackpoint>
            <Time>2022-07-04T14:38:15.000Z</Time>
            <Position>
              <LatitudeDegrees>44.625938795506954193115234375</LatitudeDegrees>
              <LongitudeDegrees>-1.0016151331365108489990234375</LongitudeDegrees>
            </Position>
            <AltitudeMeters>-2.599999904632568359375</AltitudeMeters>
            <DistanceMeters>NAN</DistanceMeters>
          </Trackpoint>
          <Trackpoint>
            <Time>2022-07-04T14:38:19.000Z</Time>
            <Position>
              <LatitudeDegrees>44.62592764757573604583740234375</LatitudeDegrees>
              <LongitudeDegrees>-1.0018846951425075531005859375</LongitudeDegrees>
            </Position>
            <AltitudeMeters>-2.400000095367431640625</AltitudeMeters>
            <DistanceMeters>NAN</DistanceMeters>
          </Trackpoint>
          <Trackpoint>
            <Time>2022-07-04T14:38:26.000Z</Time>
            <Position>
              <LatitudeDegrees>44.6258538030087947845458984375</LatitudeDegrees>
              <LongitudeDegrees>-1.0023252479732036590576171875</LongitudeDegrees>
            </Position>
            <AltitudeMeters>-2.400000095367431640625</AltitudeMeters>
            <DistanceMeters>NAN</DistanceMeters>
          </Trackpoint>
          <Trackpoint>
            <Time>2022-07-04T14:38:28.000Z</Time>
            <Position>
              <LatitudeDegrees>44.62584064342081546783447265625</LatitudeDegrees>
              <LongitudeDegrees>-1.00245089270174503326416015625</LongitudeDegrees>
            </Position>
            <AltitudeMeters>-2.400000095367431640625</AltitudeMeters>
            <DistanceMeters>NAN</DistanceMeters>
          </Trackpoint>
          <Trackpoint>
            <Time>2022-07-04T14:38:31.000Z</Time>
            <Position>
              <LatitudeDegrees>44.62582580745220184326171875</LatitudeDegrees>
              <LongitudeDegrees>-1.00264635868370532989501953125</LongitudeDegrees>
            </Position>
            <AltitudeMeters>-2.2000000476837158203125</AltitudeMeters>
            <DistanceMeters>NAN</DistanceMeters>
          </Trackpoint>
          <Trackpoint>
            <Time>2022-07-04T14:38:33.000Z</Time>
            <Position>
              <LatitudeDegrees>44.62580275721848011016845703125</LatitudeDegrees>
              <LongitudeDegrees>-1.00275314413011074066162109375</LongitudeDegrees>
            </Position>
            <AltitudeMeters>-2</AltitudeMeters>
            <DistanceMeters>NAN</DistanceMeters>
          </Trackpoint>
          <Trackpoint>
            <Time>2022-07-04T14:38:35.000Z</Time>
            <Position>
              <LatitudeDegrees>44.62578532285988330841064453125</LatitudeDegrees>
              <LongitudeDegrees>-1.002881638705730438232421875</LongitudeDegrees>
            </Position>
            <AltitudeMeters>-2</AltitudeMeters>
            <DistanceMeters>NAN</DistanceMeters>
          </Trackpoint>
          <Trackpoint>
            <Time>2022-07-04T14:38:39.000Z</Time>
            <Position>
              <LatitudeDegrees>44.6257515437901020050048828125</LatitudeDegrees>
              <LongitudeDegrees>-1.00313116796314716339111328125</LongitudeDegrees>
            </Position>
            <AltitudeMeters>-1.7999999523162841796875</AltitudeMeters>
            <DistanceMeters>NAN</DistanceMeters>
          </Trackpoint>
          <Trackpoint>
            <Time>2022-07-04T14:38:42.000Z</Time>
            <Position>
              <LatitudeDegrees>44.62573804892599582672119140625</LatitudeDegrees>
              <LongitudeDegrees>-1.00331892259418964385986328125</LongitudeDegrees>
            </Position>
            <AltitudeMeters>-1.7999999523162841796875</AltitudeMeters>
            <DistanceMeters>NAN</DistanceMeters>
          </Trackpoint>
          <Trackpoint>
            <Time>2022-07-04T14:38:44.000Z</Time>
            <Position>
              <LatitudeDegrees>44.625730253756046295166015625</LatitudeDegrees>
              <LongitudeDegrees>-1.00344079546630382537841796875</LongitudeDegrees>
            </Position>
            <AltitudeMeters>-1.7999999523162841796875</AltitudeMeters>
            <DistanceMeters>NAN</DistanceMeters>
          </Trackpoint>
          <Trackpoint>
            <Time>2022-07-04T14:38:48.000Z</Time>
            <Position>
              <LatitudeDegrees>44.62573436088860034942626953125</LatitudeDegrees>
              <LongitudeDegrees>-1.00368856452405452728271484375</LongitudeDegrees>
            </Position>
            <AltitudeMeters>-1.60000002384185791015625</AltitudeMeters>
            <DistanceMeters>NAN</DistanceMeters>
          </Trackpoint>
          <Trackpoint>
            <Time>2022-07-04T14:38:50.000Z</Time>
            <Position>
              <LatitudeDegrees>44.62575380690395832061767578125</LatitudeDegrees>
              <LongitudeDegrees>-1.003801636397838592529296875</LongitudeDegrees>
            </Position>
            <AltitudeMeters>-1.60000002384185791015625</AltitudeMeters>
            <DistanceMeters>NAN</DistanceMeters>
          </Trackpoint>
          <Trackpoint>
            <Time>2022-07-04T14:38:54.000Z</Time>
            <Position>
              <LatitudeDegrees>44.625792615115642547607421875</LatitudeDegrees>
              <LongitudeDegrees>-1.00403104908764362335205078125</LongitudeDegrees>
            </Position>
            <AltitudeMeters>-1.39999997615814208984375</AltitudeMeters>
            <DistanceMeters>NAN</DistanceMeters>
          </Trackpoint>
          <Trackpoint>
            <Time>2022-07-04T14:38:55.000Z</Time>
            <Position>
              <LatitudeDegrees>44.62579839862883090972900390625</LatitudeDegrees>
              <LongitudeDegrees>-1.00408972240984439849853515625</LongitudeDegrees>
            </Position>
            <AltitudeMeters>-1.39999997615814208984375</AltitudeMeters>
            <DistanceMeters>NAN</DistanceMeters>
          </Trackpoint>
          <Trackpoint>
            <Time>2022-07-04T14:39:02.000Z</Time>
            <Position>
              <LatitudeDegrees>44.62589244358241558074951171875</LatitudeDegrees>
              <LongitudeDegrees>-1.004494316875934600830078125</LongitudeDegrees>
            </Position>
            <AltitudeMeters>-1.2000000476837158203125</AltitudeMeters>
            <DistanceMeters>NAN</DistanceMeters>
          </Trackpoint>
          <Trackpoint>
            <Time>2022-07-04T14:39:03.000Z</Time>
            <Position>
              <LatitudeDegrees>44.6259104646742343902587890625</LatitudeDegrees>
              <LongitudeDegrees>-1.0045610368251800537109375</LongitudeDegrees>
            </Position>
            <AltitudeMeters>-1.2000000476837158203125</AltitudeMeters>
            <DistanceMeters>NAN</DistanceMeters>
          </Trackpoint>
          <Trackpoint>
            <Time>2022-07-04T14:39:11.000Z</Time>
            <Position>
              <LatitudeDegrees>44.62605513632297515869140625</LatitudeDegrees>
              <LongitudeDegrees>-1.00505280308425426483154296875</LongitudeDegrees>
            </Position>
            <AltitudeMeters>-1.60000002384185791015625</AltitudeMeters>
            <DistanceMeters>NAN</DistanceMeters>
          </Trackpoint>
          <Trackpoint>
            <Time>2022-07-04T14:39:14.000Z</Time>
            <Position>
              <LatitudeDegrees>44.626108109951019287109375</LatitudeDegrees>
              <LongitudeDegrees>-1.00523293018341064453125</LongitudeDegrees>
            </Position>
            <AltitudeMeters>-1.7999999523162841796875</AltitudeMeters>
            <DistanceMeters>NAN</DistanceMeters>
          </Trackpoint>
          <Trackpoint>
            <Time>2022-07-04T14:39:17.000Z</Time>
            <Position>
              <LatitudeDegrees>44.62615043856203556060791015625</LatitudeDegrees>
              <LongitudeDegrees>-1.00539679639041423797607421875</LongitudeDegrees>
            </Position>
            <AltitudeMeters>-1.39999997615814208984375</AltitudeMeters>
            <DistanceMeters>NAN</DistanceMeters>
          </Trackpoint>
          <Trackpoint>
            <Time>2022-07-04T14:39:18.000Z</Time>
            <Position>
              <LatitudeDegrees>44.62616753764450550079345703125</LatitudeDegrees>
              <LongitudeDegrees>-1.0054530389606952667236328125</LongitudeDegrees>
            </Position>
            <AltitudeMeters>-1.39999997615814208984375</AltitudeMeters>
            <DistanceMeters>NAN</DistanceMeters>
          </Trackpoint>
          <Trackpoint>
            <Time>2022-07-04T14:39:24.000Z</Time>
            <Position>
              <LatitudeDegrees>44.62626175023615360260009765625</LatitudeDegrees>
              <LongitudeDegrees>-1.0057869739830493927001953125</LongitudeDegrees>
            </Position>
            <AltitudeMeters>-1</AltitudeMeters>
            <DistanceMeters>NAN</DistanceMeters>
          </Trackpoint>
          <Trackpoint>
            <Time>2022-07-04T14:39:31.000Z</Time>
            <Position>
              <LatitudeDegrees>44.62637976743280887603759765625</LatitudeDegrees>
              <LongitudeDegrees>-1.006168685853481292724609375</LongitudeDegrees>
            </Position>
            <AltitudeMeters>-1.60000002384185791015625</AltitudeMeters>
            <DistanceMeters>NAN</DistanceMeters>
          </Trackpoint>
          <Trackpoint>
            <Time>2022-07-04T14:39:35.000Z</Time>
            <Position>
              <LatitudeDegrees>44.6264529414474964141845703125</LatitudeDegrees>
              <LongitudeDegrees>-1.00640899501740932464599609375</LongitudeDegrees>
            </Position>
            <AltitudeMeters>-1.7999999523162841796875</AltitudeMeters>
            <DistanceMeters>NAN</DistanceMeters>
          </Trackpoint>
          <Trackpoint>
            <Time>2022-07-04T14:39:38.000Z</Time>
            <Position>
              <LatitudeDegrees>44.62649376131594181060791015625</LatitudeDegrees>
              <LongitudeDegrees>-1.006590463221073150634765625</LongitudeDegrees>
            </Position>
            <AltitudeMeters>-1.7999999523162841796875</AltitudeMeters>
            <DistanceMeters>NAN</DistanceMeters>
          </Trackpoint>
          <Trackpoint>
            <Time>2022-07-04T14:39:42.000Z</Time>
            <Position>
              <LatitudeDegrees>44.62654463946819305419921875</LatitudeDegrees>
              <LongitudeDegrees>-1.0067443549633026123046875</LongitudeDegrees>
            </Position>
            <AltitudeMeters>-2.2000000476837158203125</AltitudeMeters>
            <DistanceMeters>NAN</DistanceMeters>
          </Trackpoint>
          <Trackpoint>
            <Time>2022-07-04T14:39:43.000Z</Time>
            <Position>
              <LatitudeDegrees>44.6265441365540027618408203125</LatitudeDegrees>
              <LongitudeDegrees>-1.00675097666680812835693359375</LongitudeDegrees>
            </Position>
            <AltitudeMeters>-2.2000000476837158203125</AltitudeMeters>
            <DistanceMeters>NAN</DistanceMeters>
          </Trackpoint>
          <Trackpoint>
            <Time>2022-07-04T14:39:45.000Z</Time>
            <Position>
              <LatitudeDegrees>44.62654422037303447723388671875</LatitudeDegrees>
              <LongitudeDegrees>-1.00675097666680812835693359375</LongitudeDegrees>
            </Position>
            <AltitudeMeters>-2.400000095367431640625</AltitudeMeters>
            <DistanceMeters>NAN</DistanceMeters>
          </Trackpoint>
          <Trackpoint>
            <Time>2022-07-04T14:42:46.000Z</Time>
            <Position>
              <LatitudeDegrees>44.62655645795166492462158203125</LatitudeDegrees>
              <LongitudeDegrees>-1.0068176127970218658447265625</LongitudeDegrees>
            </Position>
            <AltitudeMeters>-2.400000095367431640625</AltitudeMeters>
            <DistanceMeters>NAN</DistanceMeters>
          </Trackpoint>
          <Trackpoint>
            <Time>2022-07-04T14:42:47.000Z</Time>
            <Position>
              <LatitudeDegrees>44.6265625767409801483154296875</LatitudeDegrees>
              <LongitudeDegrees>-1.00684518925845623016357421875</LongitudeDegrees>
            </Position>
            <AltitudeMeters>-2.400000095367431640625</AltitudeMeters>
            <DistanceMeters>NAN</DistanceMeters>
          </Trackpoint>
          <Trackpoint>
            <Time>2022-07-04T14:42:53.000Z</Time>
            <Position>
              <LatitudeDegrees>44.6266056597232818603515625</LatitudeDegrees>
              <LongitudeDegrees>-1.00705607794225215911865234375</LongitudeDegrees>
            </Position>
            <AltitudeMeters>-1.2000000476837158203125</AltitudeMeters>
            <DistanceMeters>NAN</DistanceMeters>
          </Trackpoint>
          <Trackpoint>
            <Time>2022-07-04T14:42:59.000Z</Time>
            <Position>
              <LatitudeDegrees>44.62666190229356288909912109375</LatitudeDegrees>
              <LongitudeDegrees>-1.00733972154557704925537109375</LongitudeDegrees>
            </Position>
            <AltitudeMeters>-0.800000011920928955078125</AltitudeMeters>
            <DistanceMeters>NAN</DistanceMeters>
          </Trackpoint>
          <Trackpoint>
            <Time>2022-07-04T14:43:00.000Z</Time>
            <Position>
              <LatitudeDegrees>44.626675732433795928955078125</LatitudeDegrees>
              <LongitudeDegrees>-1.00739152170717716217041015625</LongitudeDegrees>
            </Position>
            <AltitudeMeters>-0.800000011920928955078125</AltitudeMeters>
            <DistanceMeters>NAN</DistanceMeters>
          </Trackpoint>
          <Trackpoint>
            <Time>2022-07-04T14:43:01.000Z</Time>
            <Position>
              <LatitudeDegrees>44.62668838910758495330810546875</LatitudeDegrees>
              <LongitudeDegrees>-1.00744281895458698272705078125</LongitudeDegrees>
            </Position>
            <AltitudeMeters>-0.60000002384185791015625</AltitudeMeters>
            <DistanceMeters>NAN</DistanceMeters>
          </Trackpoint>
          <Trackpoint>
            <Time>2022-07-04T14:43:07.000Z</Time>
            <Position>
              <LatitudeDegrees>44.6267972700297832489013671875</LatitudeDegrees>
              <LongitudeDegrees>-1.007776670157909393310546875</LongitudeDegrees>
            </Position>
            <AltitudeMeters>-0.20000000298023223876953125</AltitudeMeters>
            <DistanceMeters>NAN</DistanceMeters>
          </Trackpoint>
          <Trackpoint>
            <Time>2022-07-04T14:43:14.000Z</Time>
            <Position>
              <LatitudeDegrees>44.62692861445248126983642578125</LatitudeDegrees>
              <LongitudeDegrees>-1.00815184414386749267578125</LongitudeDegrees>
            </Position>
            <AltitudeMeters>-0.20000000298023223876953125</AltitudeMeters>
            <DistanceMeters>NAN</DistanceMeters>
          </Trackpoint>
          <Trackpoint>
            <Time>2022-07-04T14:43:20.000Z</Time>
            <Position>
              <LatitudeDegrees>44.62701142765581607818603515625</LatitudeDegrees>
              <LongitudeDegrees>-1.0084483958780765533447265625</LongitudeDegrees>
            </Position>
            <AltitudeMeters>-0.20000000298023223876953125</AltitudeMeters>
            <DistanceMeters>NAN</DistanceMeters>
          </Trackpoint>
          <Trackpoint>
            <Time>2022-07-04T14:43:21.000Z</Time>
            <Position>
              <LatitudeDegrees>44.6270267665386199951171875</LatitudeDegrees>
              <LongitudeDegrees>-1.00850279442965984344482421875</LongitudeDegrees>
            </Position>
            <AltitudeMeters>-0.4000000059604644775390625</AltitudeMeters>
            <DistanceMeters>NAN</DistanceMeters>
          </Trackpoint>
          <Trackpoint>
            <Time>2022-07-04T14:43:22.000Z</Time>
            <Position>
              <LatitudeDegrees>44.627044200897216796875</LatitudeDegrees>
              <LongitudeDegrees>-1.0085519962012767791748046875</LongitudeDegrees>
            </Position>
            <AltitudeMeters>-0.4000000059604644775390625</AltitudeMeters>
            <DistanceMeters>NAN</DistanceMeters>
          </Trackpoint>
          <Trackpoint>
            <Time>2022-07-04T14:43:28.000Z</Time>
            <Position>
              <LatitudeDegrees>44.62717453949153423309326171875</LatitudeDegrees>
              <LongitudeDegrees>-1.0088899545371532440185546875</LongitudeDegrees>
            </Position>
            <AltitudeMeters>-0.4000000059604644775390625</AltitudeMeters>
            <DistanceMeters>NAN</DistanceMeters>
          </Trackpoint>
          <Trackpoint>
            <Time>2022-07-04T14:43:30.000Z</Time>
            <Position>
              <LatitudeDegrees>44.6272096596658229827880859375</LatitudeDegrees>
              <LongitudeDegrees>-1.00899665616452693939208984375</LongitudeDegrees>
            </Position>
            <AltitudeMeters>-0.4000000059604644775390625</AltitudeMeters>
            <DistanceMeters>NAN</DistanceMeters>
          </Trackpoint>
          <Trackpoint>
            <Time>2022-07-04T14:43:32.000Z</Time>
            <Position>
              <LatitudeDegrees>44.627234302461147308349609375</LatitudeDegrees>
              <LongitudeDegrees>-1.009089946746826171875</LongitudeDegrees>
            </Position>
            <AltitudeMeters>-0.20000000298023223876953125</AltitudeMeters>
            <DistanceMeters>NAN</DistanceMeters>
          </Trackpoint>
          <Trackpoint>
            <Time>2022-07-04T14:43:35.000Z</Time>
            <Position>
              <LatitudeDegrees>44.62726372294127941131591796875</LatitudeDegrees>
              <LongitudeDegrees>-1.00922279991209506988525390625</LongitudeDegrees>
            </Position>
            <AltitudeMeters>-0.20000000298023223876953125</AltitudeMeters>
            <DistanceMeters>NAN</DistanceMeters>
          </Trackpoint>
          <Trackpoint>
            <Time>2022-07-04T14:43:41.000Z</Time>
            <Position>
              <LatitudeDegrees>44.6273759566247463226318359375</LatitudeDegrees>
              <LongitudeDegrees>-1.00955053232610225677490234375</LongitudeDegrees>
            </Position>
            <AltitudeMeters>0</AltitudeMeters>
            <DistanceMeters>NAN</DistanceMeters>
          </Trackpoint>
          <Trackpoint>
            <Time>2022-07-04T14:43:48.000Z</Time>
            <Position>
              <LatitudeDegrees>44.62748609483242034912109375</LatitudeDegrees>
              <LongitudeDegrees>-1.00993123836815357208251953125</LongitudeDegrees>
            </Position>
            <AltitudeMeters>0</AltitudeMeters>
            <DistanceMeters>NAN</DistanceMeters>
          </Trackpoint>
          <Trackpoint>
            <Time>2022-07-04T14:43:56.000Z</Time>
            <Position>
              <LatitudeDegrees>44.62755985558032989501953125</LatitudeDegrees>
              <LongitudeDegrees>-1.0103658400475978851318359375</LongitudeDegrees>
            </Position>
            <AltitudeMeters>0</AltitudeMeters>
            <DistanceMeters>NAN</DistanceMeters>
          </Trackpoint>
          <Trackpoint>
            <Time>2022-07-04T14:44:00.000Z</Time>
            <Position>
              <LatitudeDegrees>44.6276679821312427520751953125</LatitudeDegrees>
              <LongitudeDegrees>-1.01059801876544952392578125</LongitudeDegrees>
            </Position>
            <AltitudeMeters>0</AltitudeMeters>
            <DistanceMeters>NAN</DistanceMeters>
          </Trackpoint>
          <Trackpoint>
            <Time>2022-07-04T14:44:04.000Z</Time>
            <Position>
              <LatitudeDegrees>44.6277940459549427032470703125</LatitudeDegrees>
              <LongitudeDegrees>-1.01067136041820049285888671875</LongitudeDegrees>
            </Position>
            <AltitudeMeters>0</AltitudeMeters>
            <DistanceMeters>NAN</DistanceMeters>
          </Trackpoint>
          <Trackpoint>
            <Time>2022-07-04T14:44:08.000Z</Time>
            <Position>
              <LatitudeDegrees>44.62799697183072566986083984375</LatitudeDegrees>
              <LongitudeDegrees>-1.01060782559216022491455078125</LongitudeDegrees>
            </Position>
            <AltitudeMeters>0.4000000059604644775390625</AltitudeMeters>
            <DistanceMeters>NAN</DistanceMeters>
          </Trackpoint>
          <Trackpoint>
            <Time>2022-07-04T14:44:10.000Z</Time>
            <Position>
              <LatitudeDegrees>44.62810526601970195770263671875</LatitudeDegrees>
              <LongitudeDegrees>-1.01056155748665332794189453125</LongitudeDegrees>
            </Position>
            <AltitudeMeters>0.60000002384185791015625</AltitudeMeters>
            <DistanceMeters>NAN</DistanceMeters>
          </Trackpoint>
          <Trackpoint>
            <Time>2022-07-04T14:44:15.000Z</Time>
            <Position>
              <LatitudeDegrees>44.62834280915558338165283203125</LatitudeDegrees>
              <LongitudeDegrees>-1.0104231722652912139892578125</LongitudeDegrees>
            </Position>
            <AltitudeMeters>0.800000011920928955078125</AltitudeMeters>
            <DistanceMeters>NAN</DistanceMeters>
          </Trackpoint>
          <Trackpoint>
            <Time>2022-07-04T14:44:23.000Z</Time>
            <Position>
              <LatitudeDegrees>44.62864154018461704254150390625</LatitudeDegrees>
              <LongitudeDegrees>-1.01010675542056560516357421875</LongitudeDegrees>
            </Position>
            <AltitudeMeters>0.20000000298023223876953125</AltitudeMeters>
            <DistanceMeters>NAN</DistanceMeters>
          </Trackpoint>
          <Trackpoint>
            <Time>2022-07-04T14:44:27.000Z</Time>
            <Position>
              <LatitudeDegrees>44.62878562510013580322265625</LatitudeDegrees>
              <LongitudeDegrees>-1.00998454727232456207275390625</LongitudeDegrees>
            </Position>
            <AltitudeMeters>0.20000000298023223876953125</AltitudeMeters>
            <DistanceMeters>NAN</DistanceMeters>
          </Trackpoint>
          <Trackpoint>
            <Time>2022-07-04T14:44:29.000Z</Time>
            <Position>
              <LatitudeDegrees>44.62885594926774501800537109375</LatitudeDegrees>
              <LongitudeDegrees>-1.00994599051773548126220703125</LongitudeDegrees>
            </Position>
            <AltitudeMeters>0.20000000298023223876953125</AltitudeMeters>
            <DistanceMeters>NAN</DistanceMeters>
          </Trackpoint>
          <Trackpoint>
            <Time>2022-07-04T14:44:36.000Z</Time>
            <Position>
              <LatitudeDegrees>44.62908980436623096466064453125</LatitudeDegrees>
              <LongitudeDegrees>-1.0098669491708278656005859375</LongitudeDegrees>
            </Position>
            <AltitudeMeters>0</AltitudeMeters>
            <DistanceMeters>NAN</DistanceMeters>
          </Trackpoint>
          <Trackpoint>
            <Time>2022-07-04T14:44:38.000Z</Time>
            <Position>
              <LatitudeDegrees>44.6291512437164783477783203125</LatitudeDegrees>
              <LongitudeDegrees>-1.0098411329090595245361328125</LongitudeDegrees>
            </Position>
            <AltitudeMeters>0</AltitudeMeters>
            <DistanceMeters>NAN</DistanceMeters>
          </Trackpoint>
          <Trackpoint>
            <Time>2022-07-04T14:44:40.000Z</Time>
            <Position>
              <LatitudeDegrees>44.629209749400615692138671875</LatitudeDegrees>
              <LongitudeDegrees>-1.0098334215581417083740234375</LongitudeDegrees>
            </Position>
            <AltitudeMeters>-0.20000000298023223876953125</AltitudeMeters>
            <DistanceMeters>NAN</DistanceMeters>
          </Trackpoint>
          <Trackpoint>
            <Time>2022-07-04T14:44:46.000Z</Time>
            <Position>
              <LatitudeDegrees>44.62939046323299407958984375</LatitudeDegrees>
              <LongitudeDegrees>-1.00986041128635406494140625</LongitudeDegrees>
            </Position>
            <AltitudeMeters>0</AltitudeMeters>
            <DistanceMeters>NAN</DistanceMeters>
          </Trackpoint>
          <Trackpoint>
            <Time>2022-07-04T14:44:53.000Z</Time>
            <Position>
              <LatitudeDegrees>44.62963596917688846588134765625</LatitudeDegrees>
              <LongitudeDegrees>-1.00984926335513591766357421875</LongitudeDegrees>
            </Position>
            <AltitudeMeters>0</AltitudeMeters>
            <DistanceMeters>NAN</DistanceMeters>
          </Trackpoint>
          <Trackpoint>
            <Time>2022-07-04T14:44:59.000Z</Time>
            <Position>
              <LatitudeDegrees>44.6298727579414844512939453125</LatitudeDegrees>
              <LongitudeDegrees>-1.009762175381183624267578125</LongitudeDegrees>
            </Position>
            <AltitudeMeters>0</AltitudeMeters>
            <DistanceMeters>NAN</DistanceMeters>
          </Trackpoint>
          <Trackpoint>
            <Time>2022-07-04T14:45:03.000Z</Time>
            <Position>
              <LatitudeDegrees>44.63001047261059284210205078125</LatitudeDegrees>
              <LongitudeDegrees>-1.00967533886432647705078125</LongitudeDegrees>
            </Position>
            <AltitudeMeters>0</AltitudeMeters>
            <DistanceMeters>NAN</DistanceMeters>
          </Trackpoint>
          <Trackpoint>
            <Time>2022-07-04T14:45:05.000Z</Time>
            <Position>
              <LatitudeDegrees>44.63008389808237552642822265625</LatitudeDegrees>
              <LongitudeDegrees>-1.00959763862192630767822265625</LongitudeDegrees>
            </Position>
            <AltitudeMeters>0</AltitudeMeters>
            <DistanceMeters>NAN</DistanceMeters>
          </Trackpoint>
          <Trackpoint>
            <Time>2022-07-04T14:45:10.000Z</Time>
            <Position>
              <LatitudeDegrees>44.630260504782199859619140625</LatitudeDegrees>
              <LongitudeDegrees>-1.00939102470874786376953125</LongitudeDegrees>
            </Position>
            <AltitudeMeters>0.4000000059604644775390625</AltitudeMeters>
            <DistanceMeters>NAN</DistanceMeters>
          </Trackpoint>
          <Trackpoint>
            <Time>2022-07-04T14:45:11.000Z</Time>
            <Position>
              <LatitudeDegrees>44.63028875179588794708251953125</LatitudeDegrees>
              <LongitudeDegrees>-1.00935204885900020599365234375</LongitudeDegrees>
            </Position>
            <AltitudeMeters>0.4000000059604644775390625</AltitudeMeters>
            <DistanceMeters>NAN</DistanceMeters>
          </Trackpoint>
          <Trackpoint>
            <Time>2022-07-04T14:45:18.000Z</Time>
            <Position>
              <LatitudeDegrees>44.63050634600222110748291015625</LatitudeDegrees>
              <LongitudeDegrees>-1.0090907849371433258056640625</LongitudeDegrees>
            </Position>
            <AltitudeMeters>0.4000000059604644775390625</AltitudeMeters>
            <DistanceMeters>NAN</DistanceMeters>
          </Trackpoint>
          <Trackpoint>
            <Time>2022-07-04T14:45:20.000Z</Time>
            <Position>
              <LatitudeDegrees>44.63057222776114940643310546875</LatitudeDegrees>
              <LongitudeDegrees>-1.00903236307203769683837890625</LongitudeDegrees>
            </Position>
            <AltitudeMeters>0.4000000059604644775390625</AltitudeMeters>
            <DistanceMeters>NAN</DistanceMeters>
          </Trackpoint>
          <Trackpoint>
            <Time>2022-07-04T14:45:22.000Z</Time>
            <Position>
              <LatitudeDegrees>44.63063366711139678955078125</LatitudeDegrees>
              <LongitudeDegrees>-1.00895843468606472015380859375</LongitudeDegrees>
            </Position>
            <AltitudeMeters>0.4000000059604644775390625</AltitudeMeters>
            <DistanceMeters>NAN</DistanceMeters>
          </Trackpoint>
          <Trackpoint>
            <Time>2022-07-04T14:45:23.000Z</Time>
            <Position>
              <LatitudeDegrees>44.63066987693309783935546875</LatitudeDegrees>
              <LongitudeDegrees>-1.0089244879782199859619140625</LongitudeDegrees>
            </Position>
            <AltitudeMeters>0.60000002384185791015625</AltitudeMeters>
            <DistanceMeters>NAN</DistanceMeters>
          </Trackpoint>
          <Trackpoint>
            <Time>2022-07-04T14:45:29.000Z</Time>
            <Position>
              <LatitudeDegrees>44.6309047378599643707275390625</LatitudeDegrees>
              <LongitudeDegrees>-1.00872047245502471923828125</LongitudeDegrees>
            </Position>
            <AltitudeMeters>0.800000011920928955078125</AltitudeMeters>
            <DistanceMeters>NAN</DistanceMeters>
          </Trackpoint>
          <Trackpoint>
            <Time>2022-07-04T14:45:31.000Z</Time>
            <Position>
              <LatitudeDegrees>44.6309878863394260406494140625</LatitudeDegrees>
              <LongitudeDegrees>-1.00864193402230739593505859375</LongitudeDegrees>
            </Position>
            <AltitudeMeters>0.800000011920928955078125</AltitudeMeters>
            <DistanceMeters>NAN</DistanceMeters>
          </Trackpoint>
          <Trackpoint>
            <Time>2022-07-04T14:45:33.000Z</Time>
            <Position>
              <LatitudeDegrees>44.63106206618249416351318359375</LatitudeDegrees>
              <LongitudeDegrees>-1.00855417549610137939453125</LongitudeDegrees>
            </Position>
            <AltitudeMeters>0.60000002384185791015625</AltitudeMeters>
            <DistanceMeters>NAN</DistanceMeters>
          </Trackpoint>
          <Trackpoint>
            <Time>2022-07-04T14:45:36.000Z</Time>
            <Position>
              <LatitudeDegrees>44.6311843581497669219970703125</LatitudeDegrees>
              <LongitudeDegrees>-1.00843959487974643707275390625</LongitudeDegrees>
            </Position>
            <AltitudeMeters>0.60000002384185791015625</AltitudeMeters>
            <DistanceMeters>NAN</DistanceMeters>
          </Trackpoint>
          <Trackpoint>
            <Time>2022-07-04T14:45:37.000Z</Time>
            <Position>
              <LatitudeDegrees>44.63122844696044921875</LatitudeDegrees>
              <LongitudeDegrees>-1.0084141977131366729736328125</LongitudeDegrees>
            </Position>
            <AltitudeMeters>0.60000002384185791015625</AltitudeMeters>
            <DistanceMeters>NAN</DistanceMeters>
          </Trackpoint>
          <Trackpoint>
            <Time>2022-07-04T14:45:42.000Z</Time>
            <Position>
              <LatitudeDegrees>44.63143430650234222412109375</LatitudeDegrees>
              <LongitudeDegrees>-1.00833968259394168853759765625</LongitudeDegrees>
            </Position>
            <AltitudeMeters>0.800000011920928955078125</AltitudeMeters>
            <DistanceMeters>NAN</DistanceMeters>
          </Trackpoint>
          <Trackpoint>
            <Time>2022-07-04T14:45:43.000Z</Time>
            <Position>
              <LatitudeDegrees>44.631477557122707366943359375</LatitudeDegrees>
              <LongitudeDegrees>-1.00832375697791576385498046875</LongitudeDegrees>
            </Position>
            <AltitudeMeters>0.800000011920928955078125</AltitudeMeters>
            <DistanceMeters>NAN</DistanceMeters>
          </Trackpoint>
          <Trackpoint>
            <Time>2022-07-04T14:45:49.000Z</Time>
            <Position>
              <LatitudeDegrees>44.63174535892903804779052734375</LatitudeDegrees>
              <LongitudeDegrees>-1.008295007050037384033203125</LongitudeDegrees>
            </Position>
            <AltitudeMeters>1</AltitudeMeters>
            <DistanceMeters>NAN</DistanceMeters>
          </Trackpoint>
          <Trackpoint>
            <Time>2022-07-04T14:45:53.000Z</Time>
            <Position>
              <LatitudeDegrees>44.631932862102985382080078125</LatitudeDegrees>
              <LongitudeDegrees>-1.008310429751873016357421875</LongitudeDegrees>
            </Position>
            <AltitudeMeters>1</AltitudeMeters>
            <DistanceMeters>NAN</DistanceMeters>
          </Trackpoint>
          <Trackpoint>
            <Time>2022-07-04T14:45:56.000Z</Time>
            <Position>
              <LatitudeDegrees>44.63206286542117595672607421875</LatitudeDegrees>
              <LongitudeDegrees>-1.00833297707140445709228515625</LongitudeDegrees>
            </Position>
            <AltitudeMeters>1</AltitudeMeters>
            <DistanceMeters>NAN</DistanceMeters>
          </Trackpoint>
          <Trackpoint>
            <Time>2022-07-04T14:46:00.000Z</Time>
            <Position>
              <LatitudeDegrees>44.63223494589328765869140625</LatitudeDegrees>
              <LongitudeDegrees>-1.00834898650646209716796875</LongitudeDegrees>
            </Position>
            <AltitudeMeters>1</AltitudeMeters>
            <DistanceMeters>NAN</DistanceMeters>
          </Trackpoint>
          <Trackpoint>
            <Time>2022-07-04T14:46:03.000Z</Time>
            <Position>
              <LatitudeDegrees>44.6323574893176555633544921875</LatitudeDegrees>
              <LongitudeDegrees>-1.0083883814513683319091796875</LongitudeDegrees>
            </Position>
            <AltitudeMeters>1.2000000476837158203125</AltitudeMeters>
            <DistanceMeters>NAN</DistanceMeters>
          </Trackpoint>
          <Trackpoint>
            <Time>2022-07-04T14:46:06.000Z</Time>
            <Position>
              <LatitudeDegrees>44.63247575797140598297119140625</LatitudeDegrees>
              <LongitudeDegrees>-1.008433140814304351806640625</LongitudeDegrees>
            </Position>
            <AltitudeMeters>1.2000000476837158203125</AltitudeMeters>
            <DistanceMeters>NAN</DistanceMeters>
          </Trackpoint>
          <Trackpoint>
            <Time>2022-07-04T14:46:08.000Z</Time>
            <Position>
              <LatitudeDegrees>44.63257516734302043914794921875</LatitudeDegrees>
              <LongitudeDegrees>-1.00845887325704097747802734375</LongitudeDegrees>
            </Position>
            <AltitudeMeters>1.60000002384185791015625</AltitudeMeters>
            <DistanceMeters>NAN</DistanceMeters>
          </Trackpoint>
          <Trackpoint>
            <Time>2022-07-04T14:46:09.000Z</Time>
            <Position>
              <LatitudeDegrees>44.6326183341443538665771484375</LatitudeDegrees>
              <LongitudeDegrees>-1.0084762237966060638427734375</LongitudeDegrees>
            </Position>
            <AltitudeMeters>1.60000002384185791015625</AltitudeMeters>
            <DistanceMeters>NAN</DistanceMeters>
          </Trackpoint>
          <Trackpoint>
            <Time>2022-07-04T14:46:12.000Z</Time>
            <Position>
              <LatitudeDegrees>44.632762335240840911865234375</LatitudeDegrees>
              <LongitudeDegrees>-1.00853783078491687774658203125</LongitudeDegrees>
            </Position>
            <AltitudeMeters>1.60000002384185791015625</AltitudeMeters>
            <DistanceMeters>NAN</DistanceMeters>
          </Trackpoint>
          <Trackpoint>
            <Time>2022-07-04T14:46:14.000Z</Time>
            <Position>
              <LatitudeDegrees>44.63286920450627803802490234375</LatitudeDegrees>
              <LongitudeDegrees>-1.0085731185972690582275390625</LongitudeDegrees>
            </Position>
            <AltitudeMeters>1.60000002384185791015625</AltitudeMeters>
            <DistanceMeters>NAN</DistanceMeters>
          </Trackpoint>
          <Trackpoint>
            <Time>2022-07-04T14:46:16.000Z</Time>
            <Position>
              <LatitudeDegrees>44.6329445578157901763916015625</LatitudeDegrees>
              <LongitudeDegrees>-1.00862793624401092529296875</LongitudeDegrees>
            </Position>
            <AltitudeMeters>1.60000002384185791015625</AltitudeMeters>
            <DistanceMeters>NAN</DistanceMeters>
          </Trackpoint>
          <Trackpoint>
            <Time>2022-07-04T14:46:20.000Z</Time>
            <Position>
              <LatitudeDegrees>44.633100964128971099853515625</LatitudeDegrees>
              <LongitudeDegrees>-1.00871133618056774139404296875</LongitudeDegrees>
            </Position>
            <AltitudeMeters>1.39999997615814208984375</AltitudeMeters>
            <DistanceMeters>NAN</DistanceMeters>
          </Trackpoint>
          <Trackpoint>
            <Time>2022-07-04T14:46:21.000Z</Time>
            <Position>
              <LatitudeDegrees>44.63312753476202487945556640625</LatitudeDegrees>
              <LongitudeDegrees>-1.008748300373554229736328125</LongitudeDegrees>
            </Position>
            <AltitudeMeters>1.2000000476837158203125</AltitudeMeters>
            <DistanceMeters>NAN</DistanceMeters>
          </Trackpoint>
          <Trackpoint>
            <Time>2022-07-04T14:46:22.000Z</Time>
            <Position>
              <LatitudeDegrees>44.6331467293202877044677734375</LatitudeDegrees>
              <LongitudeDegrees>-1.0088016092777252197265625</LongitudeDegrees>
            </Position>
            <AltitudeMeters>1.2000000476837158203125</AltitudeMeters>
            <DistanceMeters>NAN</DistanceMeters>
          </Trackpoint>
          <Trackpoint>
            <Time>2022-07-04T14:46:24.000Z</Time>
            <Position>
              <LatitudeDegrees>44.633172042667865753173828125</LatitudeDegrees>
              <LongitudeDegrees>-1.0089305229485034942626953125</LongitudeDegrees>
            </Position>
            <AltitudeMeters>1.2000000476837158203125</AltitudeMeters>
            <DistanceMeters>NAN</DistanceMeters>
          </Trackpoint>
          <Trackpoint>
            <Time>2022-07-04T14:46:26.000Z</Time>
            <Position>
              <LatitudeDegrees>44.633187465369701385498046875</LatitudeDegrees>
              <LongitudeDegrees>-1.00908298976719379425048828125</LongitudeDegrees>
            </Position>
            <AltitudeMeters>1.2000000476837158203125</AltitudeMeters>
            <DistanceMeters>NAN</DistanceMeters>
          </Trackpoint>
          <Trackpoint>
            <Time>2022-07-04T14:46:29.000Z</Time>
            <Position>
              <LatitudeDegrees>44.63320883922278881072998046875</LatitudeDegrees>
              <LongitudeDegrees>-1.009313575923442840576171875</LongitudeDegrees>
            </Position>
            <AltitudeMeters>1.2000000476837158203125</AltitudeMeters>
            <DistanceMeters>NAN</DistanceMeters>
          </Trackpoint>
          <Trackpoint>
            <Time>2022-07-04T14:46:32.000Z</Time>
            <Position>
              <LatitudeDegrees>44.63323809206485748291015625</LatitudeDegrees>
              <LongitudeDegrees>-1.00953661836683750152587890625</LongitudeDegrees>
            </Position>
            <AltitudeMeters>1.2000000476837158203125</AltitudeMeters>
            <DistanceMeters>NAN</DistanceMeters>
          </Trackpoint>
          <Trackpoint>
            <Time>2022-07-04T14:46:34.000Z</Time>
            <Position>
              <LatitudeDegrees>44.63327966630458831787109375</LatitudeDegrees>
              <LongitudeDegrees>-1.009650863707065582275390625</LongitudeDegrees>
            </Position>
            <AltitudeMeters>1.2000000476837158203125</AltitudeMeters>
            <DistanceMeters>NAN</DistanceMeters>
          </Trackpoint>
          <Trackpoint>
            <Time>2022-07-04T14:46:36.000Z</Time>
            <Position>
              <LatitudeDegrees>44.63333926163613796234130859375</LatitudeDegrees>
              <LongitudeDegrees>-1.00973107852041721343994140625</LongitudeDegrees>
            </Position>
            <AltitudeMeters>1.2000000476837158203125</AltitudeMeters>
            <DistanceMeters>NAN</DistanceMeters>
          </Trackpoint>
          <Trackpoint>
            <Time>2022-07-04T14:46:37.000Z</Time>
            <Position>
              <LatitudeDegrees>44.6333713643252849578857421875</LatitudeDegrees>
              <LongitudeDegrees>-1.00976041518151760101318359375</LongitudeDegrees>
            </Position>
            <AltitudeMeters>1.2000000476837158203125</AltitudeMeters>
            <DistanceMeters>NAN</DistanceMeters>
          </Trackpoint>
          <Trackpoint>
            <Time>2022-07-04T14:46:42.000Z</Time>
            <Position>
              <LatitudeDegrees>44.63359239511191844940185546875</LatitudeDegrees>
              <LongitudeDegrees>-1.00991112180054187774658203125</LongitudeDegrees>
            </Position>
            <AltitudeMeters>1.2000000476837158203125</AltitudeMeters>
            <DistanceMeters>NAN</DistanceMeters>
          </Trackpoint>
          <Trackpoint>
            <Time>2022-07-04T14:46:43.000Z</Time>
            <Position>
              <LatitudeDegrees>44.633630029857158660888671875</LatitudeDegrees>
              <LongitudeDegrees>-1.009939871728420257568359375</LongitudeDegrees>
            </Position>
            <AltitudeMeters>1.39999997615814208984375</AltitudeMeters>
            <DistanceMeters>NAN</DistanceMeters>
          </Trackpoint>
          <Trackpoint>
            <Time>2022-07-04T14:46:48.000Z</Time>
            <Position>
              <LatitudeDegrees>44.6338558383285999298095703125</LatitudeDegrees>
              <LongitudeDegrees>-1.01003416813910007476806640625</LongitudeDegrees>
            </Position>
            <AltitudeMeters>1.2000000476837158203125</AltitudeMeters>
            <DistanceMeters>NAN</DistanceMeters>
          </Trackpoint>
          <Trackpoint>
            <Time>2022-07-04T14:46:52.000Z</Time>
            <Position>
              <LatitudeDegrees>44.6339859254658222198486328125</LatitudeDegrees>
              <LongitudeDegrees>-1.0102072544395923614501953125</LongitudeDegrees>
            </Position>
            <AltitudeMeters>1.39999997615814208984375</AltitudeMeters>
            <DistanceMeters>NAN</DistanceMeters>
          </Trackpoint>
          <Trackpoint>
            <Time>2022-07-04T14:46:58.000Z</Time>
            <Position>
              <LatitudeDegrees>44.63402523659169673919677734375</LatitudeDegrees>
              <LongitudeDegrees>-1.0105753876268863677978515625</LongitudeDegrees>
            </Position>
            <AltitudeMeters>1.60000002384185791015625</AltitudeMeters>
            <DistanceMeters>NAN</DistanceMeters>
          </Trackpoint>
          <Trackpoint>
            <Time>2022-07-04T14:47:04.000Z</Time>
            <Position>
              <LatitudeDegrees>44.6341051161289215087890625</LatitudeDegrees>
              <LongitudeDegrees>-1.0108999349176883697509765625</LongitudeDegrees>
            </Position>
            <AltitudeMeters>2</AltitudeMeters>
            <DistanceMeters>NAN</DistanceMeters>
          </Trackpoint>
          <Trackpoint>
            <Time>2022-07-04T14:47:09.000Z</Time>
            <Position>
              <LatitudeDegrees>44.634092710912227630615234375</LatitudeDegrees>
              <LongitudeDegrees>-1.01115248166024684906005859375</LongitudeDegrees>
            </Position>
            <AltitudeMeters>2</AltitudeMeters>
            <DistanceMeters>NAN</DistanceMeters>
          </Trackpoint>
          <Trackpoint>
            <Time>2022-07-04T14:47:15.000Z</Time>
            <Position>
              <LatitudeDegrees>44.63408567011356353759765625</LatitudeDegrees>
              <LongitudeDegrees>-1.01150183938443660736083984375</LongitudeDegrees>
            </Position>
            <AltitudeMeters>2</AltitudeMeters>
            <DistanceMeters>NAN</DistanceMeters>
          </Trackpoint>
          <Trackpoint>
            <Time>2022-07-04T14:47:18.000Z</Time>
            <Position>
              <LatitudeDegrees>44.63410687632858753204345703125</LatitudeDegrees>
              <LongitudeDegrees>-1.011710464954376220703125</LongitudeDegrees>
            </Position>
            <AltitudeMeters>1.7999999523162841796875</AltitudeMeters>
            <DistanceMeters>NAN</DistanceMeters>
          </Trackpoint>
          <Trackpoint>
            <Time>2022-07-04T14:47:20.000Z</Time>
            <Position>
              <LatitudeDegrees>44.63411743752658367156982421875</LatitudeDegrees>
              <LongitudeDegrees>-1.01184868253767490386962890625</LongitudeDegrees>
            </Position>
            <AltitudeMeters>2</AltitudeMeters>
            <DistanceMeters>NAN</DistanceMeters>
          </Trackpoint>
          <Trackpoint>
            <Time>2022-07-04T14:47:22.000Z</Time>
            <Position>
              <LatitudeDegrees>44.63411073200404644012451171875</LatitudeDegrees>
              <LongitudeDegrees>-1.0119801945984363555908203125</LongitudeDegrees>
            </Position>
            <AltitudeMeters>2</AltitudeMeters>
            <DistanceMeters>NAN</DistanceMeters>
          </Trackpoint>
          <Trackpoint>
            <Time>2022-07-04T14:47:25.000Z</Time>
            <Position>
              <LatitudeDegrees>44.6341220475733280181884765625</LatitudeDegrees>
              <LongitudeDegrees>-1.01215193979442119598388671875</LongitudeDegrees>
            </Position>
            <AltitudeMeters>2</AltitudeMeters>
            <DistanceMeters>NAN</DistanceMeters>
          </Trackpoint>
          <Trackpoint>
            <Time>2022-07-04T14:47:28.000Z</Time>
            <Position>
              <LatitudeDegrees>44.6341176889836788177490234375</LatitudeDegrees>
              <LongitudeDegrees>-1.01235754787921905517578125</LongitudeDegrees>
            </Position>
            <AltitudeMeters>2.2000000476837158203125</AltitudeMeters>
            <DistanceMeters>NAN</DistanceMeters>
          </Trackpoint>
          <Trackpoint>
            <Time>2022-07-04T14:47:29.000Z</Time>
            <Position>
              <LatitudeDegrees>44.63411492295563220977783203125</LatitudeDegrees>
              <LongitudeDegrees>-1.012426950037479400634765625</LongitudeDegrees>
            </Position>
            <AltitudeMeters>2.2000000476837158203125</AltitudeMeters>
            <DistanceMeters>NAN</DistanceMeters>
          </Trackpoint>
          <Trackpoint>
            <Time>2022-07-04T14:47:31.000Z</Time>
            <Position>
              <LatitudeDegrees>44.6341150067746639251708984375</LatitudeDegrees>
              <LongitudeDegrees>-1.012561060488224029541015625</LongitudeDegrees>
            </Position>
            <AltitudeMeters>2.400000095367431640625</AltitudeMeters>
            <DistanceMeters>NAN</DistanceMeters>
          </Trackpoint>
          <Trackpoint>
            <Time>2022-07-04T14:47:32.000Z</Time>
            <Position>
              <LatitudeDegrees>44.63410821743309497833251953125</LatitudeDegrees>
              <LongitudeDegrees>-1.01262618787586688995361328125</LongitudeDegrees>
            </Position>
            <AltitudeMeters>2.599999904632568359375</AltitudeMeters>
            <DistanceMeters>NAN</DistanceMeters>
          </Trackpoint>
          <Trackpoint>
            <Time>2022-07-04T14:47:34.000Z</Time>
            <Position>
              <LatitudeDegrees>44.63409648276865482330322265625</LatitudeDegrees>
              <LongitudeDegrees>-1.01274101994931697845458984375</LongitudeDegrees>
            </Position>
            <AltitudeMeters>2.599999904632568359375</AltitudeMeters>
            <DistanceMeters>NAN</DistanceMeters>
          </Trackpoint>
          <Trackpoint>
            <Time>2022-07-04T14:47:37.000Z</Time>
            <Position>
              <LatitudeDegrees>44.6341426670551300048828125</LatitudeDegrees>
              <LongitudeDegrees>-1.0129323787987232208251953125</LongitudeDegrees>
            </Position>
            <AltitudeMeters>3</AltitudeMeters>
            <DistanceMeters>NAN</DistanceMeters>
          </Trackpoint>
          <Trackpoint>
            <Time>2022-07-04T14:47:40.000Z</Time>
            <Position>
              <LatitudeDegrees>44.63420410640537738800048828125</LatitudeDegrees>
              <LongitudeDegrees>-1.01315592415630817413330078125</LongitudeDegrees>
            </Position>
            <AltitudeMeters>3.2000000476837158203125</AltitudeMeters>
            <DistanceMeters>NAN</DistanceMeters>
          </Trackpoint>
          <Trackpoint>
            <Time>2022-07-04T14:47:42.000Z</Time>
            <Position>
              <LatitudeDegrees>44.63422841392457485198974609375</LatitudeDegrees>
              <LongitudeDegrees>-1.013295985758304595947265625</LongitudeDegrees>
            </Position>
            <AltitudeMeters>3.2000000476837158203125</AltitudeMeters>
            <DistanceMeters>NAN</DistanceMeters>
          </Trackpoint>
          <Trackpoint>
            <Time>2022-07-04T14:47:45.000Z</Time>
            <Position>
              <LatitudeDegrees>44.63427342474460601806640625</LatitudeDegrees>
              <LongitudeDegrees>-1.013462282717227935791015625</LongitudeDegrees>
            </Position>
            <AltitudeMeters>3.2000000476837158203125</AltitudeMeters>
            <DistanceMeters>NAN</DistanceMeters>
          </Trackpoint>
          <Trackpoint>
            <Time>2022-07-04T14:47:48.000Z</Time>
            <Position>
              <LatitudeDegrees>44.63433654047548770904541015625</LatitudeDegrees>
              <LongitudeDegrees>-1.013652049005031585693359375</LongitudeDegrees>
            </Position>
            <AltitudeMeters>3.400000095367431640625</AltitudeMeters>
            <DistanceMeters>NAN</DistanceMeters>
          </Trackpoint>
          <Trackpoint>
            <Time>2022-07-04T14:47:56.000Z</Time>
            <Position>
              <LatitudeDegrees>44.63449395261704921722412109375</LatitudeDegrees>
              <LongitudeDegrees>-1.01407072506844997406005859375</LongitudeDegrees>
            </Position>
            <AltitudeMeters>3</AltitudeMeters>
            <DistanceMeters>NAN</DistanceMeters>
          </Trackpoint>
          <Trackpoint>
            <Time>2022-07-04T14:47:57.000Z</Time>
            <Position>
              <LatitudeDegrees>44.63450987823307514190673828125</LatitudeDegrees>
              <LongitudeDegrees>-1.01412319578230381011962890625</LongitudeDegrees>
            </Position>
            <AltitudeMeters>2.7999999523162841796875</AltitudeMeters>
            <DistanceMeters>NAN</DistanceMeters>
          </Trackpoint>
          <Trackpoint>
            <Time>2022-07-04T14:48:00.000Z</Time>
            <Position>
              <LatitudeDegrees>44.6345528773963451385498046875</LatitudeDegrees>
              <LongitudeDegrees>-1.01429485715925693511962890625</LongitudeDegrees>
            </Position>
            <AltitudeMeters>2.7999999523162841796875</AltitudeMeters>
            <DistanceMeters>NAN</DistanceMeters>
          </Trackpoint>
          <Trackpoint>
            <Time>2022-07-04T14:48:02.000Z</Time>
            <Position>
              <LatitudeDegrees>44.6345696412026882171630859375</LatitudeDegrees>
              <LongitudeDegrees>-1.01440382190048694610595703125</LongitudeDegrees>
            </Position>
            <AltitudeMeters>2.7999999523162841796875</AltitudeMeters>
            <DistanceMeters>NAN</DistanceMeters>
          </Trackpoint>
          <Trackpoint>
            <Time>2022-07-04T14:48:03.000Z</Time>
            <Position>
              <LatitudeDegrees>44.63456402532756328582763671875</LatitudeDegrees>
              <LongitudeDegrees>-1.01446601562201976776123046875</LongitudeDegrees>
            </Position>
            <AltitudeMeters>2.7999999523162841796875</AltitudeMeters>
            <DistanceMeters>NAN</DistanceMeters>
          </Trackpoint>
          <Trackpoint>
            <Time>2022-07-04T14:48:05.000Z</Time>
            <Position>
              <LatitudeDegrees>44.63456134311854839324951171875</LatitudeDegrees>
              <LongitudeDegrees>-1.01457933895289897918701171875</LongitudeDegrees>
            </Position>
            <AltitudeMeters>2.7999999523162841796875</AltitudeMeters>
            <DistanceMeters>NAN</DistanceMeters>
          </Trackpoint>
          <Trackpoint>
            <Time>2022-07-04T14:48:10.000Z</Time>
            <Position>
              <LatitudeDegrees>44.63459755294024944305419921875</LatitudeDegrees>
              <LongitudeDegrees>-1.0149115137755870819091796875</LongitudeDegrees>
            </Position>
            <AltitudeMeters>2.7999999523162841796875</AltitudeMeters>
            <DistanceMeters>NAN</DistanceMeters>
          </Trackpoint>
          <Trackpoint>
            <Time>2022-07-04T14:48:18.000Z</Time>
            <Position>
              <LatitudeDegrees>44.63465840555727481842041015625</LatitudeDegrees>
              <LongitudeDegrees>-1.01538081653416156768798828125</LongitudeDegrees>
            </Position>
            <AltitudeMeters>2.7999999523162841796875</AltitudeMeters>
            <DistanceMeters>NAN</DistanceMeters>
          </Trackpoint>
          <Trackpoint>
            <Time>2022-07-04T14:48:20.000Z</Time>
            <Position>
              <LatitudeDegrees>44.6346859820187091827392578125</LatitudeDegrees>
              <LongitudeDegrees>-1.01549799554049968719482421875</LongitudeDegrees>
            </Position>
            <AltitudeMeters>3</AltitudeMeters>
            <DistanceMeters>NAN</DistanceMeters>
          </Trackpoint>
          <Trackpoint>
            <Time>2022-07-04T14:48:23.000Z</Time>
            <Position>
              <LatitudeDegrees>44.63468941859900951385498046875</LatitudeDegrees>
              <LongitudeDegrees>-1.01566865108907222747802734375</LongitudeDegrees>
            </Position>
            <AltitudeMeters>3.400000095367431640625</AltitudeMeters>
            <DistanceMeters>NAN</DistanceMeters>
          </Trackpoint>
          <Trackpoint>
            <Time>2022-07-04T14:48:24.000Z</Time>
            <Position>
              <LatitudeDegrees>44.63469059206545352935791015625</LatitudeDegrees>
              <LongitudeDegrees>-1.015723049640655517578125</LongitudeDegrees>
            </Position>
            <AltitudeMeters>3.400000095367431640625</AltitudeMeters>
            <DistanceMeters>NAN</DistanceMeters>
          </Trackpoint>
          <Trackpoint>
            <Time>2022-07-04T14:48:27.000Z</Time>
            <Position>
              <LatitudeDegrees>44.634687490761280059814453125</LatitudeDegrees>
              <LongitudeDegrees>-1.0158868320286273956298828125</LongitudeDegrees>
            </Position>
            <AltitudeMeters>3.400000095367431640625</AltitudeMeters>
            <DistanceMeters>NAN</DistanceMeters>
          </Trackpoint>
          <Trackpoint>
            <Time>2022-07-04T14:48:28.000Z</Time>
            <Position>
              <LatitudeDegrees>44.63467843830585479736328125</LatitudeDegrees>
              <LongitudeDegrees>-1.01592748425900936126708984375</LongitudeDegrees>
            </Position>
            <AltitudeMeters>3.400000095367431640625</AltitudeMeters>
            <DistanceMeters>NAN</DistanceMeters>
          </Trackpoint>
          <Trackpoint>
            <Time>2022-07-04T14:48:35.000Z</Time>
            <Position>
              <LatitudeDegrees>44.634590931236743927001953125</LatitudeDegrees>
              <LongitudeDegrees>-1.01630953140556812286376953125</LongitudeDegrees>
            </Position>
            <AltitudeMeters>2.7999999523162841796875</AltitudeMeters>
            <DistanceMeters>NAN</DistanceMeters>
          </Trackpoint>
          <Trackpoint>
            <Time>2022-07-04T14:48:40.000Z</Time>
            <Position>
              <LatitudeDegrees>44.63453100062906742095947265625</LatitudeDegrees>
              <LongitudeDegrees>-1.0165999643504619598388671875</LongitudeDegrees>
            </Position>
            <AltitudeMeters>3.2000000476837158203125</AltitudeMeters>
            <DistanceMeters>NAN</DistanceMeters>
          </Trackpoint>
          <Trackpoint>
            <Time>2022-07-04T14:48:43.000Z</Time>
            <Position>
              <LatitudeDegrees>44.6344851516187191009521484375</LatitudeDegrees>
              <LongitudeDegrees>-1.0167743079364299774169921875</LongitudeDegrees>
            </Position>
            <AltitudeMeters>3.400000095367431640625</AltitudeMeters>
            <DistanceMeters>NAN</DistanceMeters>
          </Trackpoint>
          <Trackpoint>
            <Time>2022-07-04T14:48:45.000Z</Time>
            <Position>
              <LatitudeDegrees>44.634465873241424560546875</LatitudeDegrees>
              <LongitudeDegrees>-1.0168879665434360504150390625</LongitudeDegrees>
            </Position>
            <AltitudeMeters>3.599999904632568359375</AltitudeMeters>
            <DistanceMeters>NAN</DistanceMeters>
          </Trackpoint>
          <Trackpoint>
            <Time>2022-07-04T14:48:46.000Z</Time>
            <Position>
              <LatitudeDegrees>44.63446193374693393707275390625</LatitudeDegrees>
              <LongitudeDegrees>-1.0169429518282413482666015625</LongitudeDegrees>
            </Position>
            <AltitudeMeters>3.599999904632568359375</AltitudeMeters>
            <DistanceMeters>NAN</DistanceMeters>
          </Trackpoint>
          <Trackpoint>
            <Time>2022-07-04T14:48:48.000Z</Time>
            <Position>
              <LatitudeDegrees>44.63445288129150867462158203125</LatitudeDegrees>
              <LongitudeDegrees>-1.01706004701554775238037109375</LongitudeDegrees>
            </Position>
            <AltitudeMeters>3.599999904632568359375</AltitudeMeters>
            <DistanceMeters>NAN</DistanceMeters>
          </Trackpoint>
          <Trackpoint>
            <Time>2022-07-04T14:48:49.000Z</Time>
            <Position>
              <LatitudeDegrees>44.6344462595880031585693359375</LatitudeDegrees>
              <LongitudeDegrees>-1.017117798328399658203125</LongitudeDegrees>
            </Position>
            <AltitudeMeters>3.599999904632568359375</AltitudeMeters>
            <DistanceMeters>NAN</DistanceMeters>
          </Trackpoint>
          <Trackpoint>
            <Time>2022-07-04T14:48:58.000Z</Time>
            <Position>
              <LatitudeDegrees>44.6344090439379215240478515625</LatitudeDegrees>
              <LongitudeDegrees>-1.017613001167774200439453125</LongitudeDegrees>
            </Position>
            <AltitudeMeters>3.400000095367431640625</AltitudeMeters>
            <DistanceMeters>NAN</DistanceMeters>
          </Trackpoint>
          <Trackpoint>
            <Time>2022-07-04T14:49:03.000Z</Time>
            <Position>
              <LatitudeDegrees>44.63437375612556934356689453125</LatitudeDegrees>
              <LongitudeDegrees>-1.01788750849664211273193359375</LongitudeDegrees>
            </Position>
            <AltitudeMeters>3.400000095367431640625</AltitudeMeters>
            <DistanceMeters>NAN</DistanceMeters>
          </Trackpoint>
          <Trackpoint>
            <Time>2022-07-04T14:49:10.000Z</Time>
            <Position>
              <LatitudeDegrees>44.63423092849552631378173828125</LatitudeDegrees>
              <LongitudeDegrees>-1.018193028867244720458984375</LongitudeDegrees>
            </Position>
            <AltitudeMeters>3.400000095367431640625</AltitudeMeters>
            <DistanceMeters>NAN</DistanceMeters>
          </Trackpoint>
          <Trackpoint>
            <Time>2022-07-04T14:49:13.000Z</Time>
            <Position>
              <LatitudeDegrees>44.63412481360137462615966796875</LatitudeDegrees>
              <LongitudeDegrees>-1.01829822175204753875732421875</LongitudeDegrees>
            </Position>
            <AltitudeMeters>3.599999904632568359375</AltitudeMeters>
            <DistanceMeters>NAN</DistanceMeters>
          </Trackpoint>
          <Trackpoint>
            <Time>2022-07-04T14:49:16.000Z</Time>
            <Position>
              <LatitudeDegrees>44.63402003981173038482666015625</LatitudeDegrees>
              <LongitudeDegrees>-1.01837483234703540802001953125</LongitudeDegrees>
            </Position>
            <AltitudeMeters>3.400000095367431640625</AltitudeMeters>
            <DistanceMeters>NAN</DistanceMeters>
          </Trackpoint>
          <Trackpoint>
            <Time>2022-07-04T14:49:25.000Z</Time>
            <Position>
              <LatitudeDegrees>44.63369901292026042938232421875</LatitudeDegrees>
              <LongitudeDegrees>-1.01854146458208560943603515625</LongitudeDegrees>
            </Position>
            <AltitudeMeters>3.400000095367431640625</AltitudeMeters>
            <DistanceMeters>NAN</DistanceMeters>
          </Trackpoint>
          <Trackpoint>
            <Time>2022-07-04T14:49:32.000Z</Time>
            <Position>
              <LatitudeDegrees>44.6334300376474857330322265625</LatitudeDegrees>
              <LongitudeDegrees>-1.01865939795970916748046875</LongitudeDegrees>
            </Position>
            <AltitudeMeters>3.7999999523162841796875</AltitudeMeters>
            <DistanceMeters>NAN</DistanceMeters>
          </Trackpoint>
          <Trackpoint>
            <Time>2022-07-04T14:49:38.000Z</Time>
            <Position>
              <LatitudeDegrees>44.63320950977504253387451171875</LatitudeDegrees>
              <LongitudeDegrees>-1.018815971910953521728515625</LongitudeDegrees>
            </Position>
            <AltitudeMeters>3.7999999523162841796875</AltitudeMeters>
            <DistanceMeters>NAN</DistanceMeters>
          </Trackpoint>
          <Trackpoint>
            <Time>2022-07-04T14:49:46.000Z</Time>
            <Position>
              <LatitudeDegrees>44.63297598995268344879150390625</LatitudeDegrees>
              <LongitudeDegrees>-1.01908930577337741851806640625</LongitudeDegrees>
            </Position>
            <AltitudeMeters>3.400000095367431640625</AltitudeMeters>
            <DistanceMeters>NAN</DistanceMeters>
          </Trackpoint>
          <Trackpoint>
            <Time>2022-07-04T14:49:54.000Z</Time>
            <Position>
              <LatitudeDegrees>44.63278270326554775238037109375</LatitudeDegrees>
              <LongitudeDegrees>-1.01943212561309337615966796875</LongitudeDegrees>
            </Position>
            <AltitudeMeters>3.599999904632568359375</AltitudeMeters>
            <DistanceMeters>NAN</DistanceMeters>
          </Trackpoint>
          <Trackpoint>
            <Time>2022-07-04T14:50:00.000Z</Time>
            <Position>
              <LatitudeDegrees>44.63267994113266468048095703125</LatitudeDegrees>
              <LongitudeDegrees>-1.01972415111958980560302734375</LongitudeDegrees>
            </Position>
            <AltitudeMeters>3.7999999523162841796875</AltitudeMeters>
            <DistanceMeters>NAN</DistanceMeters>
          </Trackpoint>
          <Trackpoint>
            <Time>2022-07-04T14:50:05.000Z</Time>
            <Position>
              <LatitudeDegrees>44.63254633359611034393310546875</LatitudeDegrees>
              <LongitudeDegrees>-1.019878126680850982666015625</LongitudeDegrees>
            </Position>
            <AltitudeMeters>3.599999904632568359375</AltitudeMeters>
            <DistanceMeters>NAN</DistanceMeters>
          </Trackpoint>
          <Trackpoint>
            <Time>2022-07-04T14:50:12.000Z</Time>
            <Position>
              <LatitudeDegrees>44.63235958479344844818115234375</LatitudeDegrees>
              <LongitudeDegrees>-1.02003126405179500579833984375</LongitudeDegrees>
            </Position>
            <AltitudeMeters>3.599999904632568359375</AltitudeMeters>
            <DistanceMeters>NAN</DistanceMeters>
          </Trackpoint>
          <Trackpoint>
            <Time>2022-07-04T14:50:14.000Z</Time>
            <Position>
              <LatitudeDegrees>44.63231675326824188232421875</LatitudeDegrees>
              <LongitudeDegrees>-1.0200365446507930755615234375</LongitudeDegrees>
            </Position>
            <AltitudeMeters>3.400000095367431640625</AltitudeMeters>
            <DistanceMeters>NAN</DistanceMeters>
          </Trackpoint>
          <Trackpoint>
            <Time>2022-07-04T14:50:16.000Z</Time>
            <Position>
              <LatitudeDegrees>44.6322803758084774017333984375</LatitudeDegrees>
              <LongitudeDegrees>-1.02001332677900791168212890625</LongitudeDegrees>
            </Position>
            <AltitudeMeters>3.400000095367431640625</AltitudeMeters>
            <DistanceMeters>NAN</DistanceMeters>
          </Trackpoint>
          <Trackpoint>
            <Time>2022-07-04T14:50:20.000Z</Time>
            <Position>
              <LatitudeDegrees>44.6322076208889484405517578125</LatitudeDegrees>
              <LongitudeDegrees>-1.019934117794036865234375</LongitudeDegrees>
            </Position>
            <AltitudeMeters>3.400000095367431640625</AltitudeMeters>
            <DistanceMeters>NAN</DistanceMeters>
          </Trackpoint>
          <Trackpoint>
            <Time>2022-07-04T14:50:21.000Z</Time>
            <Position>
              <LatitudeDegrees>44.6321927011013031005859375</LatitudeDegrees>
              <LongitudeDegrees>-1.0199349559843540191650390625</LongitudeDegrees>
            </Position>
            <AltitudeMeters>3.400000095367431640625</AltitudeMeters>
            <DistanceMeters>NAN</DistanceMeters>
          </Trackpoint>
          <Trackpoint>
            <Time>2022-07-04T14:50:22.000Z</Time>
            <Position>
              <LatitudeDegrees>44.63217970915138721466064453125</LatitudeDegrees>
              <LongitudeDegrees>-1.01994845084846019744873046875</LongitudeDegrees>
            </Position>
            <AltitudeMeters>3.400000095367431640625</AltitudeMeters>
            <DistanceMeters>NAN</DistanceMeters>
          </Trackpoint>
          <Trackpoint>
            <Time>2022-07-04T14:50:24.000Z</Time>
            <Position>
              <LatitudeDegrees>44.6321712434291839599609375</LatitudeDegrees>
              <LongitudeDegrees>-1.02000259794294834136962890625</LongitudeDegrees>
            </Position>
            <AltitudeMeters>3.400000095367431640625</AltitudeMeters>
            <DistanceMeters>NAN</DistanceMeters>
          </Trackpoint>
          <Trackpoint>
            <Time>2022-07-04T14:50:25.000Z</Time>
            <Position>
              <LatitudeDegrees>44.632180295884609222412109375</LatitudeDegrees>
              <LongitudeDegrees>-1.02003394626080989837646484375</LongitudeDegrees>
            </Position>
            <AltitudeMeters>3.400000095367431640625</AltitudeMeters>
            <DistanceMeters>NAN</DistanceMeters>
          </Trackpoint>
          <Trackpoint>
            <Time>2022-07-04T14:50:27.000Z</Time>
            <Position>
              <LatitudeDegrees>44.63218490593135356903076171875</LatitudeDegrees>
              <LongitudeDegrees>-1.0200908593833446502685546875</LongitudeDegrees>
            </Position>
            <AltitudeMeters>3.400000095367431640625</AltitudeMeters>
            <DistanceMeters>NAN</DistanceMeters>
          </Trackpoint>
          <Trackpoint>
            <Time>2022-07-04T14:50:29.000Z</Time>
            <Position>
              <LatitudeDegrees>44.63214668445289134979248046875</LatitudeDegrees>
              <LongitudeDegrees>-1.02014827542006969451904296875</LongitudeDegrees>
            </Position>
            <AltitudeMeters>3.400000095367431640625</AltitudeMeters>
            <DistanceMeters>NAN</DistanceMeters>
          </Trackpoint>
          <Trackpoint>
            <Time>2022-07-04T14:50:34.000Z</Time>
            <Position>
              <LatitudeDegrees>44.63197410106658935546875</LatitudeDegrees>
              <LongitudeDegrees>-1.02028992958366870880126953125</LongitudeDegrees>
            </Position>
            <AltitudeMeters>3</AltitudeMeters>
            <DistanceMeters>NAN</DistanceMeters>
          </Trackpoint>
          <Trackpoint>
            <Time>2022-07-04T14:50:41.000Z</Time>
            <Position>
              <LatitudeDegrees>44.63171166367828845977783203125</LatitudeDegrees>
              <LongitudeDegrees>-1.0204707272350788116455078125</LongitudeDegrees>
            </Position>
            <AltitudeMeters>3</AltitudeMeters>
            <DistanceMeters>NAN</DistanceMeters>
          </Trackpoint>
          <Trackpoint>
            <Time>2022-07-04T14:50:48.000Z</Time>
            <Position>
              <LatitudeDegrees>44.63142617605626583099365234375</LatitudeDegrees>
              <LongitudeDegrees>-1.02064297534525394439697265625</LongitudeDegrees>
            </Position>
            <AltitudeMeters>3.400000095367431640625</AltitudeMeters>
            <DistanceMeters>NAN</DistanceMeters>
          </Trackpoint>
          <Trackpoint>
            <Time>2022-07-04T14:50:55.000Z</Time>
            <Position>
              <LatitudeDegrees>44.631189219653606414794921875</LatitudeDegrees>
              <LongitudeDegrees>-1.02078999392688274383544921875</LongitudeDegrees>
            </Position>
            <AltitudeMeters>3.2000000476837158203125</AltitudeMeters>
            <DistanceMeters>NAN</DistanceMeters>
          </Trackpoint>
          <Trackpoint>
            <Time>2022-07-04T14:51:00.000Z</Time>
            <Position>
              <LatitudeDegrees>44.63099987246096134185791015625</LatitudeDegrees>
              <LongitudeDegrees>-1.02082033641636371612548828125</LongitudeDegrees>
            </Position>
            <AltitudeMeters>3.2000000476837158203125</AltitudeMeters>
            <DistanceMeters>NAN</DistanceMeters>
          </Trackpoint>
          <Trackpoint>
            <Time>2022-07-04T14:51:06.000Z</Time>
            <Position>
              <LatitudeDegrees>44.63082871399819850921630859375</LatitudeDegrees>
              <LongitudeDegrees>-1.02097950875759124755859375</LongitudeDegrees>
            </Position>
            <AltitudeMeters>3</AltitudeMeters>
            <DistanceMeters>NAN</DistanceMeters>
          </Trackpoint>
          <Trackpoint>
            <Time>2022-07-04T14:51:10.000Z</Time>
            <Position>
              <LatitudeDegrees>44.63069896213710308074951171875</LatitudeDegrees>
              <LongitudeDegrees>-1.02107606828212738037109375</LongitudeDegrees>
            </Position>
            <AltitudeMeters>2.7999999523162841796875</AltitudeMeters>
            <DistanceMeters>NAN</DistanceMeters>
          </Trackpoint>
          <Trackpoint>
            <Time>2022-07-04T14:51:13.000Z</Time>
            <Position>
              <LatitudeDegrees>44.63059008121490478515625</LatitudeDegrees>
              <LongitudeDegrees>-1.02116365917026996612548828125</LongitudeDegrees>
            </Position>
            <AltitudeMeters>3</AltitudeMeters>
            <DistanceMeters>NAN</DistanceMeters>
          </Trackpoint>
          <Trackpoint>
            <Time>2022-07-04T14:51:18.000Z</Time>
            <Position>
              <LatitudeDegrees>44.6304004825651645660400390625</LatitudeDegrees>
              <LongitudeDegrees>-1.02128787897527217864990234375</LongitudeDegrees>
            </Position>
            <AltitudeMeters>2.7999999523162841796875</AltitudeMeters>
            <DistanceMeters>NAN</DistanceMeters>
          </Trackpoint>
          <Trackpoint>
            <Time>2022-07-04T14:51:19.000Z</Time>
            <Position>
              <LatitudeDegrees>44.63036670349538326263427734375</LatitudeDegrees>
              <LongitudeDegrees>-1.02131319232285022735595703125</LongitudeDegrees>
            </Position>
            <AltitudeMeters>2.7999999523162841796875</AltitudeMeters>
            <DistanceMeters>NAN</DistanceMeters>
          </Trackpoint>
          <Trackpoint>
            <Time>2022-07-04T14:51:20.000Z</Time>
            <Position>
              <LatitudeDegrees>44.63033250533044338226318359375</LatitudeDegrees>
              <LongitudeDegrees>-1.02134236134588718414306640625</LongitudeDegrees>
            </Position>
            <AltitudeMeters>2.7999999523162841796875</AltitudeMeters>
            <DistanceMeters>NAN</DistanceMeters>
          </Trackpoint>
          <Trackpoint>
            <Time>2022-07-04T14:51:21.000Z</Time>
            <Position>
              <LatitudeDegrees>44.630301408469676971435546875</LatitudeDegrees>
              <LongitudeDegrees>-1.0213722847402095794677734375</LongitudeDegrees>
            </Position>
            <AltitudeMeters>2.599999904632568359375</AltitudeMeters>
            <DistanceMeters>NAN</DistanceMeters>
          </Trackpoint>
          <Trackpoint>
            <Time>2022-07-04T14:51:27.000Z</Time>
            <Position>
              <LatitudeDegrees>44.63012195192277431488037109375</LatitudeDegrees>
              <LongitudeDegrees>-1.02151603437960147857666015625</LongitudeDegrees>
            </Position>
            <AltitudeMeters>2.599999904632568359375</AltitudeMeters>
            <DistanceMeters>NAN</DistanceMeters>
          </Trackpoint>
          <Trackpoint>
            <Time>2022-07-04T14:51:31.000Z</Time>
            <Position>
              <LatitudeDegrees>44.63001583702862262725830078125</LatitudeDegrees>
              <LongitudeDegrees>-1.02162047289311885833740234375</LongitudeDegrees>
            </Position>
            <AltitudeMeters>2.7999999523162841796875</AltitudeMeters>
            <DistanceMeters>NAN</DistanceMeters>
          </Trackpoint>
          <Trackpoint>
            <Time>2022-07-04T14:51:39.000Z</Time>
            <Position>
              <LatitudeDegrees>44.62973990477621555328369140625</LatitudeDegrees>
              <LongitudeDegrees>-1.0217672400176525115966796875</LongitudeDegrees>
            </Position>
            <AltitudeMeters>3</AltitudeMeters>
            <DistanceMeters>NAN</DistanceMeters>
          </Trackpoint>
          <Trackpoint>
            <Time>2022-07-04T14:51:45.000Z</Time>
            <Position>
              <LatitudeDegrees>44.62947419844567775726318359375</LatitudeDegrees>
              <LongitudeDegrees>-1.02187695913016796112060546875</LongitudeDegrees>
            </Position>
            <AltitudeMeters>2.7999999523162841796875</AltitudeMeters>
            <DistanceMeters>NAN</DistanceMeters>
          </Trackpoint>
          <Trackpoint>
            <Time>2022-07-04T14:51:52.000Z</Time>
            <Position>
              <LatitudeDegrees>44.62919625453650951385498046875</LatitudeDegrees>
              <LongitudeDegrees>-1.02198458276689052581787109375</LongitudeDegrees>
            </Position>
            <AltitudeMeters>3</AltitudeMeters>
            <DistanceMeters>NAN</DistanceMeters>
          </Trackpoint>
          <Trackpoint>
            <Time>2022-07-04T14:51:53.000Z</Time>
            <Position>
              <LatitudeDegrees>44.62915711104869842529296875</LatitudeDegrees>
              <LongitudeDegrees>-1.0219995863735675811767578125</LongitudeDegrees>
            </Position>
            <AltitudeMeters>3</AltitudeMeters>
            <DistanceMeters>NAN</DistanceMeters>
          </Trackpoint>
          <Trackpoint>
            <Time>2022-07-04T14:51:54.000Z</Time>
            <Position>
              <LatitudeDegrees>44.62912014685571193695068359375</LatitudeDegrees>
              <LongitudeDegrees>-1.0220106504857540130615234375</LongitudeDegrees>
            </Position>
            <AltitudeMeters>3</AltitudeMeters>
            <DistanceMeters>NAN</DistanceMeters>
          </Trackpoint>
          <Trackpoint>
            <Time>2022-07-04T14:51:56.000Z</Time>
            <Position>
              <LatitudeDegrees>44.629042111337184906005859375</LatitudeDegrees>
              <LongitudeDegrees>-1.0220257379114627838134765625</LongitudeDegrees>
            </Position>
            <AltitudeMeters>2.7999999523162841796875</AltitudeMeters>
            <DistanceMeters>NAN</DistanceMeters>
          </Trackpoint>
          <Trackpoint>
            <Time>2022-07-04T14:52:01.000Z</Time>
            <Position>
              <LatitudeDegrees>44.62883247993886470794677734375</LatitudeDegrees>
              <LongitudeDegrees>-1.022078879177570343017578125</LongitudeDegrees>
            </Position>
            <AltitudeMeters>2.7999999523162841796875</AltitudeMeters>
            <DistanceMeters>NAN</DistanceMeters>
          </Trackpoint>
          <Trackpoint>
            <Time>2022-07-04T14:52:09.000Z</Time>
            <Position>
              <LatitudeDegrees>44.62851966731250286102294921875</LatitudeDegrees>
              <LongitudeDegrees>-1.02217954583466053009033203125</LongitudeDegrees>
            </Position>
            <AltitudeMeters>3</AltitudeMeters>
            <DistanceMeters>NAN</DistanceMeters>
          </Trackpoint>
          <Trackpoint>
            <Time>2022-07-04T14:52:14.000Z</Time>
            <Position>
              <LatitudeDegrees>44.62834163568913936614990234375</LatitudeDegrees>
              <LongitudeDegrees>-1.02225431241095066070556640625</LongitudeDegrees>
            </Position>
            <AltitudeMeters>3.2000000476837158203125</AltitudeMeters>
            <DistanceMeters>NAN</DistanceMeters>
          </Trackpoint>
          <Trackpoint>
            <Time>2022-07-04T14:52:17.000Z</Time>
            <Position>
              <LatitudeDegrees>44.62823577225208282470703125</LatitudeDegrees>
              <LongitudeDegrees>-1.02231181226670742034912109375</LongitudeDegrees>
            </Position>
            <AltitudeMeters>3</AltitudeMeters>
            <DistanceMeters>NAN</DistanceMeters>
          </Trackpoint>
          <Trackpoint>
            <Time>2022-07-04T14:52:27.000Z</Time>
            <Position>
              <LatitudeDegrees>44.6278684772551059722900390625</LatitudeDegrees>
              <LongitudeDegrees>-1.0225346870720386505126953125</LongitudeDegrees>
            </Position>
            <AltitudeMeters>3</AltitudeMeters>
            <DistanceMeters>NAN</DistanceMeters>
          </Trackpoint>
          <Trackpoint>
            <Time>2022-07-04T14:52:37.000Z</Time>
            <Position>
              <LatitudeDegrees>44.6275218017399311065673828125</LatitudeDegrees>
              <LongitudeDegrees>-1.02276292629539966583251953125</LongitudeDegrees>
            </Position>
            <AltitudeMeters>3.2000000476837158203125</AltitudeMeters>
            <DistanceMeters>NAN</DistanceMeters>
          </Trackpoint>
          <Trackpoint>
            <Time>2022-07-04T14:52:46.000Z</Time>
            <Position>
              <LatitudeDegrees>44.62725601159036159515380859375</LatitudeDegrees>
              <LongitudeDegrees>-1.0229055024683475494384765625</LongitudeDegrees>
            </Position>
            <AltitudeMeters>2.599999904632568359375</AltitudeMeters>
            <DistanceMeters>NAN</DistanceMeters>
          </Trackpoint>
          <Trackpoint>
            <Time>2022-07-04T14:52:49.000Z</Time>
            <Position>
              <LatitudeDegrees>44.6271888725459575653076171875</LatitudeDegrees>
              <LongitudeDegrees>-1.02291648276150226593017578125</LongitudeDegrees>
            </Position>
            <AltitudeMeters>2.599999904632568359375</AltitudeMeters>
            <DistanceMeters>NAN</DistanceMeters>
          </Trackpoint>
          <Trackpoint>
            <Time>2022-07-04T14:52:51.000Z</Time>
            <Position>
              <LatitudeDegrees>44.62715752422809600830078125</LatitudeDegrees>
              <LongitudeDegrees>-1.02296811528503894805908203125</LongitudeDegrees>
            </Position>
            <AltitudeMeters>2.599999904632568359375</AltitudeMeters>
            <DistanceMeters>NAN</DistanceMeters>
          </Trackpoint>
          <Trackpoint>
            <Time>2022-07-04T14:52:56.000Z</Time>
            <Position>
              <LatitudeDegrees>44.627017043530941009521484375</LatitudeDegrees>
              <LongitudeDegrees>-1.0230630822479724884033203125</LongitudeDegrees>
            </Position>
            <AltitudeMeters>2.599999904632568359375</AltitudeMeters>
            <DistanceMeters>NAN</DistanceMeters>
          </Trackpoint>
          <Trackpoint>
            <Time>2022-07-04T14:52:58.000Z</Time>
            <Position>
              <LatitudeDegrees>44.6269468031823635101318359375</LatitudeDegrees>
              <LongitudeDegrees>-1.02310004644095897674560546875</LongitudeDegrees>
            </Position>
            <AltitudeMeters>2.599999904632568359375</AltitudeMeters>
            <DistanceMeters>NAN</DistanceMeters>
          </Trackpoint>
          <Trackpoint>
            <Time>2022-07-04T14:53:03.000Z</Time>
            <Position>
              <LatitudeDegrees>44.6267731301486492156982421875</LatitudeDegrees>
              <LongitudeDegrees>-1.0232142917811870574951171875</LongitudeDegrees>
            </Position>
            <AltitudeMeters>2.400000095367431640625</AltitudeMeters>
            <DistanceMeters>NAN</DistanceMeters>
          </Trackpoint>
          <Trackpoint>
            <Time>2022-07-04T14:53:06.000Z</Time>
            <Position>
              <LatitudeDegrees>44.6266618184745311737060546875</LatitudeDegrees>
              <LongitudeDegrees>-1.02326785214245319366455078125</LongitudeDegrees>
            </Position>
            <AltitudeMeters>2.599999904632568359375</AltitudeMeters>
            <DistanceMeters>NAN</DistanceMeters>
          </Trackpoint>
          <Trackpoint>
            <Time>2022-07-04T14:53:11.000Z</Time>
            <Position>
              <LatitudeDegrees>44.62650574743747711181640625</LatitudeDegrees>
              <LongitudeDegrees>-1.02337664924561977386474609375</LongitudeDegrees>
            </Position>
            <AltitudeMeters>2.7999999523162841796875</AltitudeMeters>
            <DistanceMeters>NAN</DistanceMeters>
          </Trackpoint>
          <Trackpoint>
            <Time>2022-07-04T14:53:15.000Z</Time>
            <Position>
              <LatitudeDegrees>44.626391418278217315673828125</LatitudeDegrees>
              <LongitudeDegrees>-1.023421324789524078369140625</LongitudeDegrees>
            </Position>
            <AltitudeMeters>2.599999904632568359375</AltitudeMeters>
            <DistanceMeters>NAN</DistanceMeters>
          </Trackpoint>
          <Trackpoint>
            <Time>2022-07-04T14:53:17.000Z</Time>
            <Position>
              <LatitudeDegrees>44.6263252012431621551513671875</LatitudeDegrees>
              <LongitudeDegrees>-1.0234345681965351104736328125</LongitudeDegrees>
            </Position>
            <AltitudeMeters>2.400000095367431640625</AltitudeMeters>
            <DistanceMeters>NAN</DistanceMeters>
          </Trackpoint>
          <Trackpoint>
            <Time>2022-07-04T14:53:23.000Z</Time>
            <Position>
              <LatitudeDegrees>44.6261525340378284454345703125</LatitudeDegrees>
              <LongitudeDegrees>-1.0234518349170684814453125</LongitudeDegrees>
            </Position>
            <AltitudeMeters>2.400000095367431640625</AltitudeMeters>
            <DistanceMeters>NAN</DistanceMeters>
          </Trackpoint>
          <Trackpoint>
            <Time>2022-07-04T14:53:31.000Z</Time>
            <Position>
              <LatitudeDegrees>44.62589613161981105804443359375</LatitudeDegrees>
              <LongitudeDegrees>-1.023474968969821929931640625</LongitudeDegrees>
            </Position>
            <AltitudeMeters>3</AltitudeMeters>
            <DistanceMeters>NAN</DistanceMeters>
          </Trackpoint>
          <Trackpoint>
            <Time>2022-07-04T14:53:35.000Z</Time>
            <Position>
              <LatitudeDegrees>44.6257481910288333892822265625</LatitudeDegrees>
              <LongitudeDegrees>-1.023531965911388397216796875</LongitudeDegrees>
            </Position>
            <AltitudeMeters>2.400000095367431640625</AltitudeMeters>
            <DistanceMeters>NAN</DistanceMeters>
          </Trackpoint>
          <Trackpoint>
            <Time>2022-07-04T14:53:36.000Z</Time>
            <Position>
              <LatitudeDegrees>44.6257210336625576019287109375</LatitudeDegrees>
              <LongitudeDegrees>-1.0235368274152278900146484375</LongitudeDegrees>
            </Position>
            <AltitudeMeters>2</AltitudeMeters>
            <DistanceMeters>NAN</DistanceMeters>
          </Trackpoint>
          <Trackpoint>
            <Time>2022-07-04T14:53:43.000Z</Time>
            <Position>
              <LatitudeDegrees>44.62551643140614032745361328125</LatitudeDegrees>
              <LongitudeDegrees>-1.0235991887748241424560546875</LongitudeDegrees>
            </Position>
            <AltitudeMeters>2.599999904632568359375</AltitudeMeters>
            <DistanceMeters>NAN</DistanceMeters>
          </Trackpoint>
          <Trackpoint>
            <Time>2022-07-04T14:53:52.000Z</Time>
            <Position>
              <LatitudeDegrees>44.6252270042896270751953125</LatitudeDegrees>
              <LongitudeDegrees>-1.02369549684226512908935546875</LongitudeDegrees>
            </Position>
            <AltitudeMeters>3</AltitudeMeters>
            <DistanceMeters>NAN</DistanceMeters>
          </Trackpoint>
          <Trackpoint>
            <Time>2022-07-04T14:53:56.000Z</Time>
            <Position>
              <LatitudeDegrees>44.62516992352902889251708984375</LatitudeDegrees>
              <LongitudeDegrees>-1.02369817905128002166748046875</LongitudeDegrees>
            </Position>
            <AltitudeMeters>2.7999999523162841796875</AltitudeMeters>
            <DistanceMeters>NAN</DistanceMeters>
          </Trackpoint>
          <Trackpoint>
            <Time>2022-07-04T14:53:58.000Z</Time>
            <Position>
              <LatitudeDegrees>44.62516992352902889251708984375</LatitudeDegrees>
              <LongitudeDegrees>-1.02369817905128002166748046875</LongitudeDegrees>
            </Position>
            <AltitudeMeters>2.7999999523162841796875</AltitudeMeters>
            <DistanceMeters>NAN</DistanceMeters>
          </Trackpoint>
          <Trackpoint>
            <Time>2022-07-04T14:54:44.000Z</Time>
            <Position>
              <LatitudeDegrees>44.62512667290866374969482421875</LatitudeDegrees>
              <LongitudeDegrees>-1.02371527813374996185302734375</LongitudeDegrees>
            </Position>
            <AltitudeMeters>2.599999904632568359375</AltitudeMeters>
            <DistanceMeters>NAN</DistanceMeters>
          </Trackpoint>
          <Trackpoint>
            <Time>2022-07-04T14:54:46.000Z</Time>
            <Position>
              <LatitudeDegrees>44.6250712685286998748779296875</LatitudeDegrees>
              <LongitudeDegrees>-1.0237334668636322021484375</LongitudeDegrees>
            </Position>
            <AltitudeMeters>2.7999999523162841796875</AltitudeMeters>
            <DistanceMeters>NAN</DistanceMeters>
          </Trackpoint>
          <Trackpoint>
            <Time>2022-07-04T14:54:52.000Z</Time>
            <Position>
              <LatitudeDegrees>44.624877981841564178466796875</LatitudeDegrees>
              <LongitudeDegrees>-1.02378937415778636932373046875</LongitudeDegrees>
            </Position>
            <AltitudeMeters>2.7999999523162841796875</AltitudeMeters>
            <DistanceMeters>NAN</DistanceMeters>
          </Trackpoint>
          <Trackpoint>
            <Time>2022-07-04T14:54:59.000Z</Time>
            <Position>
              <LatitudeDegrees>44.62463884614408016204833984375</LatitudeDegrees>
              <LongitudeDegrees>-1.02389347739517688751220703125</LongitudeDegrees>
            </Position>
            <AltitudeMeters>3</AltitudeMeters>
            <DistanceMeters>NAN</DistanceMeters>
          </Trackpoint>
          <Trackpoint>
            <Time>2022-07-04T14:55:06.000Z</Time>
            <Position>
              <LatitudeDegrees>44.624359644949436187744140625</LatitudeDegrees>
              <LongitudeDegrees>-1.0239911265671253204345703125</LongitudeDegrees>
            </Position>
            <AltitudeMeters>3</AltitudeMeters>
            <DistanceMeters>NAN</DistanceMeters>
          </Trackpoint>
          <Trackpoint>
            <Time>2022-07-04T14:55:10.000Z</Time>
            <Position>
              <LatitudeDegrees>44.62423986755311489105224609375</LatitudeDegrees>
              <LongitudeDegrees>-1.02402104996144771575927734375</LongitudeDegrees>
            </Position>
            <AltitudeMeters>2.7999999523162841796875</AltitudeMeters>
            <DistanceMeters>NAN</DistanceMeters>
          </Trackpoint>
          <Trackpoint>
            <Time>2022-07-04T14:55:11.000Z</Time>
            <Position>
              <LatitudeDegrees>44.624216817319393157958984375</LatitudeDegrees>
              <LongitudeDegrees>-1.02401132695376873016357421875</LongitudeDegrees>
            </Position>
            <AltitudeMeters>2.599999904632568359375</AltitudeMeters>
            <DistanceMeters>NAN</DistanceMeters>
          </Trackpoint>
          <Trackpoint>
            <Time>2022-07-04T14:55:12.000Z</Time>
            <Position>
              <LatitudeDegrees>44.62418052367866039276123046875</LatitudeDegrees>
              <LongitudeDegrees>-1.024013422429561614990234375</LongitudeDegrees>
            </Position>
            <AltitudeMeters>2.599999904632568359375</AltitudeMeters>
            <DistanceMeters>NAN</DistanceMeters>
          </Trackpoint>
          <Trackpoint>
            <Time>2022-07-04T14:55:14.000Z</Time>
            <Position>
              <LatitudeDegrees>44.62413140572607517242431640625</LatitudeDegrees>
              <LongitudeDegrees>-1.024051643908023834228515625</LongitudeDegrees>
            </Position>
            <AltitudeMeters>2.599999904632568359375</AltitudeMeters>
            <DistanceMeters>NAN</DistanceMeters>
          </Trackpoint>
          <Trackpoint>
            <Time>2022-07-04T14:55:15.000Z</Time>
            <Position>
              <LatitudeDegrees>44.62410910986363887786865234375</LatitudeDegrees>
              <LongitudeDegrees>-1.02407201193273067474365234375</LongitudeDegrees>
            </Position>
            <AltitudeMeters>2.599999904632568359375</AltitudeMeters>
            <DistanceMeters>NAN</DistanceMeters>
          </Trackpoint>
          <Trackpoint>
            <Time>2022-07-04T14:55:18.000Z</Time>
            <Position>
              <LatitudeDegrees>44.62402202188968658447265625</LatitudeDegrees>
              <LongitudeDegrees>-1.0240977443754673004150390625</LongitudeDegrees>
            </Position>
            <AltitudeMeters>2.7999999523162841796875</AltitudeMeters>
            <DistanceMeters>NAN</DistanceMeters>
          </Trackpoint>
          <Trackpoint>
            <Time>2022-07-04T14:55:22.000Z</Time>
            <Position>
              <LatitudeDegrees>44.6238803677260875701904296875</LatitudeDegrees>
              <LongitudeDegrees>-1.02415348403155803680419921875</LongitudeDegrees>
            </Position>
            <AltitudeMeters>3.2000000476837158203125</AltitudeMeters>
            <DistanceMeters>NAN</DistanceMeters>
          </Trackpoint>
          <Trackpoint>
            <Time>2022-07-04T14:55:23.000Z</Time>
            <Position>
              <LatitudeDegrees>44.6238478459417819976806640625</LatitudeDegrees>
              <LongitudeDegrees>-1.024162285029888153076171875</LongitudeDegrees>
            </Position>
            <AltitudeMeters>3.2000000476837158203125</AltitudeMeters>
            <DistanceMeters>NAN</DistanceMeters>
          </Trackpoint>
          <Trackpoint>
            <Time>2022-07-04T14:55:25.000Z</Time>
            <Position>
              <LatitudeDegrees>44.623774252831935882568359375</LatitudeDegrees>
              <LongitudeDegrees>-1.0241894423961639404296875</LongitudeDegrees>
            </Position>
            <AltitudeMeters>3.2000000476837158203125</AltitudeMeters>
            <DistanceMeters>NAN</DistanceMeters>
          </Trackpoint>
          <Trackpoint>
            <Time>2022-07-04T14:55:31.000Z</Time>
            <Position>
              <LatitudeDegrees>44.62357803247869014739990234375</LatitudeDegrees>
              <LongitudeDegrees>-1.02427451871335506439208984375</LongitudeDegrees>
            </Position>
            <AltitudeMeters>3.2000000476837158203125</AltitudeMeters>
            <DistanceMeters>NAN</DistanceMeters>
          </Trackpoint>
          <Trackpoint>
            <Time>2022-07-04T14:55:35.000Z</Time>
            <Position>
              <LatitudeDegrees>44.6234461851418018341064453125</LatitudeDegrees>
              <LongitudeDegrees>-1.02430586703121662139892578125</LongitudeDegrees>
            </Position>
            <AltitudeMeters>3</AltitudeMeters>
            <DistanceMeters>NAN</DistanceMeters>
          </Trackpoint>
          <Trackpoint>
            <Time>2022-07-04T14:55:37.000Z</Time>
            <Position>
              <LatitudeDegrees>44.62339396588504314422607421875</LatitudeDegrees>
              <LongitudeDegrees>-1.02433335967361927032470703125</LongitudeDegrees>
            </Position>
            <AltitudeMeters>3</AltitudeMeters>
            <DistanceMeters>NAN</DistanceMeters>
          </Trackpoint>
          <Trackpoint>
            <Time>2022-07-04T14:55:40.000Z</Time>
            <Position>
              <LatitudeDegrees>44.62336630560457706451416015625</LatitudeDegrees>
              <LongitudeDegrees>-1.0244201123714447021484375</LongitudeDegrees>
            </Position>
            <AltitudeMeters>3.2000000476837158203125</AltitudeMeters>
            <DistanceMeters>NAN</DistanceMeters>
          </Trackpoint>
          <Trackpoint>
            <Time>2022-07-04T14:55:41.000Z</Time>
            <Position>
              <LatitudeDegrees>44.62336949072778224945068359375</LatitudeDegrees>
              <LongitudeDegrees>-1.02444383315742015838623046875</LongitudeDegrees>
            </Position>
            <AltitudeMeters>3.2000000476837158203125</AltitudeMeters>
            <DistanceMeters>NAN</DistanceMeters>
          </Trackpoint>
          <Trackpoint>
            <Time>2022-07-04T14:55:43.000Z</Time>
            <Position>
              <LatitudeDegrees>44.623365886509418487548828125</LatitudeDegrees>
              <LongitudeDegrees>-1.02449144236743450164794921875</LongitudeDegrees>
            </Position>
            <AltitudeMeters>3.2000000476837158203125</AltitudeMeters>
            <DistanceMeters>NAN</DistanceMeters>
          </Trackpoint>
          <Trackpoint>
            <Time>2022-07-04T14:55:46.000Z</Time>
            <Position>
              <LatitudeDegrees>44.62332523427903652191162109375</LatitudeDegrees>
              <LongitudeDegrees>-1.02461566217243671417236328125</LongitudeDegrees>
            </Position>
            <AltitudeMeters>3.400000095367431640625</AltitudeMeters>
            <DistanceMeters>NAN</DistanceMeters>
          </Trackpoint>
          <Trackpoint>
            <Time>2022-07-04T14:55:51.000Z</Time>
            <Position>
              <LatitudeDegrees>44.62328617461025714874267578125</LatitudeDegrees>
              <LongitudeDegrees>-1.02477994747459888458251953125</LongitudeDegrees>
            </Position>
            <AltitudeMeters>3.2000000476837158203125</AltitudeMeters>
            <DistanceMeters>NAN</DistanceMeters>
          </Trackpoint>
          <Trackpoint>
            <Time>2022-07-04T14:55:56.000Z</Time>
            <Position>
              <LatitudeDegrees>44.623193554580211639404296875</LatitudeDegrees>
              <LongitudeDegrees>-1.02486493997275829315185546875</LongitudeDegrees>
            </Position>
            <AltitudeMeters>3</AltitudeMeters>
            <DistanceMeters>NAN</DistanceMeters>
          </Trackpoint>
          <Trackpoint>
            <Time>2022-07-04T14:55:57.000Z</Time>
            <Position>
              <LatitudeDegrees>44.623189866542816162109375</LatitudeDegrees>
              <LongitudeDegrees>-1.0248745791614055633544921875</LongitudeDegrees>
            </Position>
            <AltitudeMeters>3</AltitudeMeters>
            <DistanceMeters>NAN</DistanceMeters>
          </Trackpoint>
          <Trackpoint>
            <Time>2022-07-04T14:56:01.000Z</Time>
            <Position>
              <LatitudeDegrees>44.62318743579089641571044921875</LatitudeDegrees>
              <LongitudeDegrees>-1.024889163672924041748046875</LongitudeDegrees>
            </Position>
            <AltitudeMeters>3</AltitudeMeters>
            <DistanceMeters>NAN</DistanceMeters>
          </Trackpoint>
          <Trackpoint>
            <Time>2022-07-04T14:56:09.000Z</Time>
            <Position>
              <LatitudeDegrees>44.62322398088872432708740234375</LatitudeDegrees>
              <LongitudeDegrees>-1.02497331798076629638671875</LongitudeDegrees>
            </Position>
            <AltitudeMeters>3.2000000476837158203125</AltitudeMeters>
            <DistanceMeters>NAN</DistanceMeters>
          </Trackpoint>
          <Trackpoint>
            <Time>2022-07-04T14:56:15.000Z</Time>
            <Position>
              <LatitudeDegrees>44.6233414113521575927734375</LatitudeDegrees>
              <LongitudeDegrees>-1.02518127299845218658447265625</LongitudeDegrees>
            </Position>
            <AltitudeMeters>3.400000095367431640625</AltitudeMeters>
            <DistanceMeters>NAN</DistanceMeters>
          </Trackpoint>
          <Trackpoint>
            <Time>2022-07-04T14:56:21.000Z</Time>
            <Position>
              <LatitudeDegrees>44.62343822233378887176513671875</LatitudeDegrees>
              <LongitudeDegrees>-1.0254562832415103912353515625</LongitudeDegrees>
            </Position>
            <AltitudeMeters>3</AltitudeMeters>
            <DistanceMeters>NAN</DistanceMeters>
          </Trackpoint>
          <Trackpoint>
            <Time>2022-07-04T14:56:31.000Z</Time>
            <Position>
              <LatitudeDegrees>44.62356478907167911529541015625</LatitudeDegrees>
              <LongitudeDegrees>-1.02588417939841747283935546875</LongitudeDegrees>
            </Position>
            <AltitudeMeters>2.7999999523162841796875</AltitudeMeters>
            <DistanceMeters>NAN</DistanceMeters>
          </Trackpoint>
          <Trackpoint>
            <Time>2022-07-04T14:56:40.000Z</Time>
            <Position>
              <LatitudeDegrees>44.623672664165496826171875</LatitudeDegrees>
              <LongitudeDegrees>-1.02625072002410888671875</LongitudeDegrees>
            </Position>
            <AltitudeMeters>2.599999904632568359375</AltitudeMeters>
            <DistanceMeters>NAN</DistanceMeters>
          </Trackpoint>
          <Trackpoint>
            <Time>2022-07-04T14:56:41.000Z</Time>
            <Position>
              <LatitudeDegrees>44.62368465028703212738037109375</LatitudeDegrees>
              <LongitudeDegrees>-1.026292629539966583251953125</LongitudeDegrees>
            </Position>
            <AltitudeMeters>2.599999904632568359375</AltitudeMeters>
            <DistanceMeters>NAN</DistanceMeters>
          </Trackpoint>
          <Trackpoint>
            <Time>2022-07-04T14:56:49.000Z</Time>
            <Position>
              <LatitudeDegrees>44.62378774769604206085205078125</LatitudeDegrees>
              <LongitudeDegrees>-1.02660804055631160736083984375</LongitudeDegrees>
            </Position>
            <AltitudeMeters>3</AltitudeMeters>
            <DistanceMeters>NAN</DistanceMeters>
          </Trackpoint>
          <Trackpoint>
            <Time>2022-07-04T14:56:57.000Z</Time>
            <Position>
              <LatitudeDegrees>44.62387173436582088470458984375</LatitudeDegrees>
              <LongitudeDegrees>-1.026957146823406219482421875</LongitudeDegrees>
            </Position>
            <AltitudeMeters>2.7999999523162841796875</AltitudeMeters>
            <DistanceMeters>NAN</DistanceMeters>
          </Trackpoint>
          <Trackpoint>
            <Time>2022-07-04T14:57:05.000Z</Time>
            <Position>
              <LatitudeDegrees>44.62395303882658481597900390625</LatitudeDegrees>
              <LongitudeDegrees>-1.0273249447345733642578125</LongitudeDegrees>
            </Position>
            <AltitudeMeters>2.7999999523162841796875</AltitudeMeters>
            <DistanceMeters>NAN</DistanceMeters>
          </Trackpoint>
          <Trackpoint>
            <Time>2022-07-04T14:57:13.000Z</Time>
            <Position>
              <LatitudeDegrees>44.62398924864828586578369140625</LatitudeDegrees>
              <LongitudeDegrees>-1.02767053060233592987060546875</LongitudeDegrees>
            </Position>
            <AltitudeMeters>2.599999904632568359375</AltitudeMeters>
            <DistanceMeters>NAN</DistanceMeters>
          </Trackpoint>
          <Trackpoint>
            <Time>2022-07-04T14:57:17.000Z</Time>
            <Position>
              <LatitudeDegrees>44.624078683555126190185546875</LatitudeDegrees>
              <LongitudeDegrees>-1.0277353227138519287109375</LongitudeDegrees>
            </Position>
            <AltitudeMeters>2.7999999523162841796875</AltitudeMeters>
            <DistanceMeters>NAN</DistanceMeters>
          </Trackpoint>
          <Trackpoint>
            <Time>2022-07-04T14:57:21.000Z</Time>
            <Position>
              <LatitudeDegrees>44.624169208109378814697265625</LatitudeDegrees>
              <LongitudeDegrees>-1.02787001989781856536865234375</LongitudeDegrees>
            </Position>
            <AltitudeMeters>3</AltitudeMeters>
            <DistanceMeters>NAN</DistanceMeters>
          </Trackpoint>
          <Trackpoint>
            <Time>2022-07-04T14:57:27.000Z</Time>
            <Position>
              <LatitudeDegrees>44.6242578886449337005615234375</LatitudeDegrees>
              <LongitudeDegrees>-1.0281505621969699859619140625</LongitudeDegrees>
            </Position>
            <AltitudeMeters>3</AltitudeMeters>
            <DistanceMeters>NAN</DistanceMeters>
          </Trackpoint>
          <Trackpoint>
            <Time>2022-07-04T14:57:35.000Z</Time>
            <Position>
              <LatitudeDegrees>44.6243956871330738067626953125</LatitudeDegrees>
              <LongitudeDegrees>-1.02854065597057342529296875</LongitudeDegrees>
            </Position>
            <AltitudeMeters>2.7999999523162841796875</AltitudeMeters>
            <DistanceMeters>NAN</DistanceMeters>
          </Trackpoint>
          <Trackpoint>
            <Time>2022-07-04T14:57:43.000Z</Time>
            <Position>
              <LatitudeDegrees>44.62451647035777568817138671875</LatitudeDegrees>
              <LongitudeDegrees>-1.028939299285411834716796875</LongitudeDegrees>
            </Position>
            <AltitudeMeters>3</AltitudeMeters>
            <DistanceMeters>NAN</DistanceMeters>
          </Trackpoint>
          <Trackpoint>
            <Time>2022-07-04T14:57:50.000Z</Time>
            <Position>
              <LatitudeDegrees>44.62461344897747039794921875</LatitudeDegrees>
              <LongitudeDegrees>-1.0293002240359783172607421875</LongitudeDegrees>
            </Position>
            <AltitudeMeters>3.400000095367431640625</AltitudeMeters>
            <DistanceMeters>NAN</DistanceMeters>
          </Trackpoint>
          <Trackpoint>
            <Time>2022-07-04T14:57:57.000Z</Time>
            <Position>
              <LatitudeDegrees>44.62471394799649715423583984375</LatitudeDegrees>
              <LongitudeDegrees>-1.0296502523124217987060546875</LongitudeDegrees>
            </Position>
            <AltitudeMeters>3.2000000476837158203125</AltitudeMeters>
            <DistanceMeters>NAN</DistanceMeters>
          </Trackpoint>
          <Trackpoint>
            <Time>2022-07-04T14:58:04.000Z</Time>
            <Position>
              <LatitudeDegrees>44.6248298697173595428466796875</LatitudeDegrees>
              <LongitudeDegrees>-1.0300452075898647308349609375</LongitudeDegrees>
            </Position>
            <AltitudeMeters>3.400000095367431640625</AltitudeMeters>
            <DistanceMeters>NAN</DistanceMeters>
          </Trackpoint>
          <Trackpoint>
            <Time>2022-07-04T14:58:07.000Z</Time>
            <Position>
              <LatitudeDegrees>44.6248758025467395782470703125</LatitudeDegrees>
              <LongitudeDegrees>-1.0302229039371013641357421875</LongitudeDegrees>
            </Position>
            <AltitudeMeters>3.599999904632568359375</AltitudeMeters>
            <DistanceMeters>NAN</DistanceMeters>
          </Trackpoint>
          <Trackpoint>
            <Time>2022-07-04T14:58:08.000Z</Time>
            <Position>
              <LatitudeDegrees>44.62489348836243152618408203125</LatitudeDegrees>
              <LongitudeDegrees>-1.030273027718067169189453125</LongitudeDegrees>
            </Position>
            <AltitudeMeters>3.599999904632568359375</AltitudeMeters>
            <DistanceMeters>NAN</DistanceMeters>
          </Trackpoint>
          <Trackpoint>
            <Time>2022-07-04T14:58:09.000Z</Time>
            <Position>
              <LatitudeDegrees>44.62491452693939208984375</LatitudeDegrees>
              <LongitudeDegrees>-1.0303234867751598358154296875</LongitudeDegrees>
            </Position>
            <AltitudeMeters>3.599999904632568359375</AltitudeMeters>
            <DistanceMeters>NAN</DistanceMeters>
          </Trackpoint>
          <Trackpoint>
            <Time>2022-07-04T14:58:10.000Z</Time>
            <Position>
              <LatitudeDegrees>44.62493170984089374542236328125</LatitudeDegrees>
              <LongitudeDegrees>-1.03037838824093341827392578125</LongitudeDegrees>
            </Position>
            <AltitudeMeters>3.599999904632568359375</AltitudeMeters>
            <DistanceMeters>NAN</DistanceMeters>
          </Trackpoint>
          <Trackpoint>
            <Time>2022-07-04T14:58:18.000Z</Time>
            <Position>
              <LatitudeDegrees>44.6250836737453937530517578125</LatitudeDegrees>
              <LongitudeDegrees>-1.0308022610843181610107421875</LongitudeDegrees>
            </Position>
            <AltitudeMeters>4</AltitudeMeters>
            <DistanceMeters>NAN</DistanceMeters>
          </Trackpoint>
          <Trackpoint>
            <Time>2022-07-04T14:58:24.000Z</Time>
            <Position>
              <LatitudeDegrees>44.6251876093447208404541015625</LatitudeDegrees>
              <LongitudeDegrees>-1.03111549280583858489990234375</LongitudeDegrees>
            </Position>
            <AltitudeMeters>4</AltitudeMeters>
            <DistanceMeters>NAN</DistanceMeters>
          </Trackpoint>
          <Trackpoint>
            <Time>2022-07-04T14:58:25.000Z</Time>
            <Position>
              <LatitudeDegrees>44.62520889937877655029296875</LatitudeDegrees>
              <LongitudeDegrees>-1.03116746060550212860107421875</LongitudeDegrees>
            </Position>
            <AltitudeMeters>3.7999999523162841796875</AltitudeMeters>
            <DistanceMeters>NAN</DistanceMeters>
          </Trackpoint>
          <Trackpoint>
            <Time>2022-07-04T14:58:30.000Z</Time>
            <Position>
              <LatitudeDegrees>44.6253076381981372833251953125</LatitudeDegrees>
              <LongitudeDegrees>-1.03144808672368526458740234375</LongitudeDegrees>
            </Position>
            <AltitudeMeters>3.7999999523162841796875</AltitudeMeters>
            <DistanceMeters>NAN</DistanceMeters>
          </Trackpoint>
          <Trackpoint>
            <Time>2022-07-04T14:58:33.000Z</Time>
            <Position>
              <LatitudeDegrees>44.6253505535423755645751953125</LatitudeDegrees>
              <LongitudeDegrees>-1.0316196642816066741943359375</LongitudeDegrees>
            </Position>
            <AltitudeMeters>3.7999999523162841796875</AltitudeMeters>
            <DistanceMeters>NAN</DistanceMeters>
          </Trackpoint>
          <Trackpoint>
            <Time>2022-07-04T14:58:42.000Z</Time>
            <Position>
              <LatitudeDegrees>44.62550218217074871063232421875</LatitudeDegrees>
              <LongitudeDegrees>-1.0321205668151378631591796875</LongitudeDegrees>
            </Position>
            <AltitudeMeters>4.19999980926513671875</AltitudeMeters>
            <DistanceMeters>NAN</DistanceMeters>
          </Trackpoint>
          <Trackpoint>
            <Time>2022-07-04T14:58:43.000Z</Time>
            <Position>
              <LatitudeDegrees>44.6255185268819332122802734375</LatitudeDegrees>
              <LongitudeDegrees>-1.0321705229580402374267578125</LongitudeDegrees>
            </Position>
            <AltitudeMeters>4.19999980926513671875</AltitudeMeters>
            <DistanceMeters>NAN</DistanceMeters>
          </Trackpoint>
          <Trackpoint>
            <Time>2022-07-04T14:58:44.000Z</Time>
            <Position>
              <LatitudeDegrees>44.62553688324987888336181640625</LatitudeDegrees>
              <LongitudeDegrees>-1.03222332894802093505859375</LongitudeDegrees>
            </Position>
            <AltitudeMeters>4.19999980926513671875</AltitudeMeters>
            <DistanceMeters>NAN</DistanceMeters>
          </Trackpoint>
          <Trackpoint>
            <Time>2022-07-04T14:58:45.000Z</Time>
            <Position>
              <LatitudeDegrees>44.625557251274585723876953125</LatitudeDegrees>
              <LongitudeDegrees>-1.03228367865085601806640625</LongitudeDegrees>
            </Position>
            <AltitudeMeters>4</AltitudeMeters>
            <DistanceMeters>NAN</DistanceMeters>
          </Trackpoint>
          <Trackpoint>
            <Time>2022-07-04T14:58:51.000Z</Time>
            <Position>
              <LatitudeDegrees>44.62566529400646686553955078125</LatitudeDegrees>
              <LongitudeDegrees>-1.03257930837571620941162109375</LongitudeDegrees>
            </Position>
            <AltitudeMeters>3.7999999523162841796875</AltitudeMeters>
            <DistanceMeters>NAN</DistanceMeters>
          </Trackpoint>
          <Trackpoint>
            <Time>2022-07-04T14:58:54.000Z</Time>
            <Position>
              <LatitudeDegrees>44.62571709416806697845458984375</LatitudeDegrees>
              <LongitudeDegrees>-1.0327470302581787109375</LongitudeDegrees>
            </Position>
            <AltitudeMeters>4</AltitudeMeters>
            <DistanceMeters>NAN</DistanceMeters>
          </Trackpoint>
          <Trackpoint>
            <Time>2022-07-04T14:58:57.000Z</Time>
            <Position>
              <LatitudeDegrees>44.62573997676372528076171875</LatitudeDegrees>
              <LongitudeDegrees>-1.0329067893326282501220703125</LongitudeDegrees>
            </Position>
            <AltitudeMeters>4</AltitudeMeters>
            <DistanceMeters>NAN</DistanceMeters>
          </Trackpoint>
          <Trackpoint>
            <Time>2022-07-04T14:58:58.000Z</Time>
            <Position>
              <LatitudeDegrees>44.62574408389627933502197265625</LatitudeDegrees>
              <LongitudeDegrees>-1.03296051733195781707763671875</LongitudeDegrees>
            </Position>
            <AltitudeMeters>4</AltitudeMeters>
            <DistanceMeters>NAN</DistanceMeters>
          </Trackpoint>
          <Trackpoint>
            <Time>2022-07-04T14:59:01.000Z</Time>
            <Position>
              <LatitudeDegrees>44.625749699771404266357421875</LatitudeDegrees>
              <LongitudeDegrees>-1.03312329389154911041259765625</LongitudeDegrees>
            </Position>
            <AltitudeMeters>4</AltitudeMeters>
            <DistanceMeters>NAN</DistanceMeters>
          </Trackpoint>
          <Trackpoint>
            <Time>2022-07-04T14:59:04.000Z</Time>
            <Position>
              <LatitudeDegrees>44.62574073113501071929931640625</LatitudeDegrees>
              <LongitudeDegrees>-1.03326670825481414794921875</LongitudeDegrees>
            </Position>
            <AltitudeMeters>4</AltitudeMeters>
            <DistanceMeters>NAN</DistanceMeters>
          </Trackpoint>
          <Trackpoint>
            <Time>2022-07-04T14:59:07.000Z</Time>
            <Position>
              <LatitudeDegrees>44.62581030093133449554443359375</LatitudeDegrees>
              <LongitudeDegrees>-1.03334390558302402496337890625</LongitudeDegrees>
            </Position>
            <AltitudeMeters>4</AltitudeMeters>
            <DistanceMeters>NAN</DistanceMeters>
          </Trackpoint>
          <Trackpoint>
            <Time>2022-07-04T14:59:13.000Z</Time>
            <Position>
              <LatitudeDegrees>44.62598766200244426727294921875</LatitudeDegrees>
              <LongitudeDegrees>-1.033484973013401031494140625</LongitudeDegrees>
            </Position>
            <AltitudeMeters>4.19999980926513671875</AltitudeMeters>
            <DistanceMeters>NAN</DistanceMeters>
          </Trackpoint>
          <Trackpoint>
            <Time>2022-07-04T14:59:14.000Z</Time>
            <Position>
              <LatitudeDegrees>44.626007862389087677001953125</LatitudeDegrees>
              <LongitudeDegrees>-1.033525206148624420166015625</LongitudeDegrees>
            </Position>
            <AltitudeMeters>4.19999980926513671875</AltitudeMeters>
            <DistanceMeters>NAN</DistanceMeters>
          </Trackpoint>
          <Trackpoint>
            <Time>2022-07-04T14:59:18.000Z</Time>
            <Position>
              <LatitudeDegrees>44.62605739943683147430419921875</LatitudeDegrees>
              <LongitudeDegrees>-1.0337005555629730224609375</LongitudeDegrees>
            </Position>
            <AltitudeMeters>4.400000095367431640625</AltitudeMeters>
            <DistanceMeters>NAN</DistanceMeters>
          </Trackpoint>
          <Trackpoint>
            <Time>2022-07-04T14:59:20.000Z</Time>
            <Position>
              <LatitudeDegrees>44.6260667033493518829345703125</LatitudeDegrees>
              <LongitudeDegrees>-1.0338076762855052947998046875</LongitudeDegrees>
            </Position>
            <AltitudeMeters>4.400000095367431640625</AltitudeMeters>
            <DistanceMeters>NAN</DistanceMeters>
          </Trackpoint>
          <Trackpoint>
            <Time>2022-07-04T14:59:26.000Z</Time>
            <Position>
              <LatitudeDegrees>44.62601012550294399261474609375</LatitudeDegrees>
              <LongitudeDegrees>-1.0340883024036884307861328125</LongitudeDegrees>
            </Position>
            <AltitudeMeters>4.400000095367431640625</AltitudeMeters>
            <DistanceMeters>NAN</DistanceMeters>
          </Trackpoint>
          <Trackpoint>
            <Time>2022-07-04T14:59:29.000Z</Time>
            <Position>
              <LatitudeDegrees>44.62595731951296329498291015625</LatitudeDegrees>
              <LongitudeDegrees>-1.03422501124441623687744140625</LongitudeDegrees>
            </Position>
            <AltitudeMeters>4.599999904632568359375</AltitudeMeters>
            <DistanceMeters>NAN</DistanceMeters>
          </Trackpoint>
          <Trackpoint>
            <Time>2022-07-04T14:59:34.000Z</Time>
            <Position>
              <LatitudeDegrees>44.62589043192565441131591796875</LatitudeDegrees>
              <LongitudeDegrees>-1.03445626795291900634765625</LongitudeDegrees>
            </Position>
            <AltitudeMeters>4.400000095367431640625</AltitudeMeters>
            <DistanceMeters>NAN</DistanceMeters>
          </Trackpoint>
          <Trackpoint>
            <Time>2022-07-04T14:59:37.000Z</Time>
            <Position>
              <LatitudeDegrees>44.62587802670896053314208984375</LatitudeDegrees>
              <LongitudeDegrees>-1.03454637341201305389404296875</LongitudeDegrees>
            </Position>
            <AltitudeMeters>4.400000095367431640625</AltitudeMeters>
            <DistanceMeters>NAN</DistanceMeters>
          </Trackpoint>
          <Trackpoint>
            <Time>2022-07-04T14:59:38.000Z</Time>
            <Position>
              <LatitudeDegrees>44.62586126290261745452880859375</LatitudeDegrees>
              <LongitudeDegrees>-1.03455961681902408599853515625</LongitudeDegrees>
            </Position>
            <AltitudeMeters>4.400000095367431640625</AltitudeMeters>
            <DistanceMeters>NAN</DistanceMeters>
          </Trackpoint>
          <Trackpoint>
            <Time>2022-07-04T14:59:42.000Z</Time>
            <Position>
              <LatitudeDegrees>44.62578632868826389312744140625</LatitudeDegrees>
              <LongitudeDegrees>-1.03468752466142177581787109375</LongitudeDegrees>
            </Position>
            <AltitudeMeters>4.599999904632568359375</AltitudeMeters>
            <DistanceMeters>NAN</DistanceMeters>
          </Trackpoint>
          <Trackpoint>
            <Time>2022-07-04T14:59:46.000Z</Time>
            <Position>
              <LatitudeDegrees>44.6256992407143115997314453125</LatitudeDegrees>
              <LongitudeDegrees>-1.03485197760164737701416015625</LongitudeDegrees>
            </Position>
            <AltitudeMeters>4.80000019073486328125</AltitudeMeters>
            <DistanceMeters>NAN</DistanceMeters>
          </Trackpoint>
          <Trackpoint>
            <Time>2022-07-04T14:59:51.000Z</Time>
            <Position>
              <LatitudeDegrees>44.62558348663151264190673828125</LatitudeDegrees>
              <LongitudeDegrees>-1.03505850769579410552978515625</LongitudeDegrees>
            </Position>
            <AltitudeMeters>5</AltitudeMeters>
            <DistanceMeters>NAN</DistanceMeters>
          </Trackpoint>
          <Trackpoint>
            <Time>2022-07-04T15:00:00.000Z</Time>
            <Position>
              <LatitudeDegrees>44.62536857463419437408447265625</LatitudeDegrees>
              <LongitudeDegrees>-1.0354681313037872314453125</LongitudeDegrees>
            </Position>
            <AltitudeMeters>4.80000019073486328125</AltitudeMeters>
            <DistanceMeters>NAN</DistanceMeters>
          </Trackpoint>
          <Trackpoint>
            <Time>2022-07-04T15:00:09.000Z</Time>
            <Position>
              <LatitudeDegrees>44.625157602131366729736328125</LatitudeDegrees>
              <LongitudeDegrees>-1.03584833443164825439453125</LongitudeDegrees>
            </Position>
            <AltitudeMeters>4.599999904632568359375</AltitudeMeters>
            <DistanceMeters>NAN</DistanceMeters>
          </Trackpoint>
          <Trackpoint>
            <Time>2022-07-04T15:00:16.000Z</Time>
            <Position>
              <LatitudeDegrees>44.62500664405524730682373046875</LatitudeDegrees>
              <LongitudeDegrees>-1.03614882566034793853759765625</LongitudeDegrees>
            </Position>
            <AltitudeMeters>5.19999980926513671875</AltitudeMeters>
            <DistanceMeters>NAN</DistanceMeters>
          </Trackpoint>
          <Trackpoint>
            <Time>2022-07-04T15:00:19.000Z</Time>
            <Position>
              <LatitudeDegrees>44.62494579143822193145751953125</LatitudeDegrees>
              <LongitudeDegrees>-1.03628058917820453643798828125</LongitudeDegrees>
            </Position>
            <AltitudeMeters>5.19999980926513671875</AltitudeMeters>
            <DistanceMeters>NAN</DistanceMeters>
          </Trackpoint>
          <Trackpoint>
            <Time>2022-07-04T15:00:21.000Z</Time>
            <Position>
              <LatitudeDegrees>44.62490371428430080413818359375</LatitudeDegrees>
              <LongitudeDegrees>-1.03635502047836780548095703125</LongitudeDegrees>
            </Position>
            <AltitudeMeters>5.19999980926513671875</AltitudeMeters>
            <DistanceMeters>NAN</DistanceMeters>
          </Trackpoint>
          <Trackpoint>
            <Time>2022-07-04T15:00:27.000Z</Time>
            <Position>
              <LatitudeDegrees>44.62481235153973102569580078125</LatitudeDegrees>
              <LongitudeDegrees>-1.03663598187267780303955078125</LongitudeDegrees>
            </Position>
            <AltitudeMeters>5</AltitudeMeters>
            <DistanceMeters>NAN</DistanceMeters>
          </Trackpoint>
          <Trackpoint>
            <Time>2022-07-04T15:00:28.000Z</Time>
            <Position>
              <LatitudeDegrees>44.62482643313705921173095703125</LatitudeDegrees>
              <LongitudeDegrees>-1.03667856194078922271728515625</LongitudeDegrees>
            </Position>
            <AltitudeMeters>5</AltitudeMeters>
            <DistanceMeters>NAN</DistanceMeters>
          </Trackpoint>
          <Trackpoint>
            <Time>2022-07-04T15:00:30.000Z</Time>
            <Position>
              <LatitudeDegrees>44.62487722747027873992919921875</LatitudeDegrees>
              <LongitudeDegrees>-1.0367421805858612060546875</LongitudeDegrees>
            </Position>
            <AltitudeMeters>4.80000019073486328125</AltitudeMeters>
            <DistanceMeters>NAN</DistanceMeters>
          </Trackpoint>
          <Trackpoint>
            <Time>2022-07-04T15:00:34.000Z</Time>
            <Position>
              <LatitudeDegrees>44.62493455968797206878662109375</LatitudeDegrees>
              <LongitudeDegrees>-1.0369331203401088714599609375</LongitudeDegrees>
            </Position>
            <AltitudeMeters>4.80000019073486328125</AltitudeMeters>
            <DistanceMeters>NAN</DistanceMeters>
          </Trackpoint>
          <Trackpoint>
            <Time>2022-07-04T15:00:36.000Z</Time>
            <Position>
              <LatitudeDegrees>44.62493657134473323822021484375</LatitudeDegrees>
              <LongitudeDegrees>-1.03706748224794864654541015625</LongitudeDegrees>
            </Position>
            <AltitudeMeters>4.80000019073486328125</AltitudeMeters>
            <DistanceMeters>NAN</DistanceMeters>
          </Trackpoint>
          <Trackpoint>
            <Time>2022-07-04T15:00:39.000Z</Time>
            <Position>
              <LatitudeDegrees>44.62494059465825557708740234375</LatitudeDegrees>
              <LongitudeDegrees>-1.03725456632673740386962890625</LongitudeDegrees>
            </Position>
            <AltitudeMeters>4.80000019073486328125</AltitudeMeters>
            <DistanceMeters>NAN</DistanceMeters>
          </Trackpoint>
          <Trackpoint>
            <Time>2022-07-04T15:00:46.000Z</Time>
            <Position>
              <LatitudeDegrees>44.6249753795564174652099609375</LatitudeDegrees>
              <LongitudeDegrees>-1.03764809668064117431640625</LongitudeDegrees>
            </Position>
            <AltitudeMeters>5</AltitudeMeters>
            <DistanceMeters>NAN</DistanceMeters>
          </Trackpoint>
          <Trackpoint>
            <Time>2022-07-04T15:00:48.000Z</Time>
            <Position>
              <LatitudeDegrees>44.6249861083924770355224609375</LatitudeDegrees>
              <LongitudeDegrees>-1.03775312192738056182861328125</LongitudeDegrees>
            </Position>
            <AltitudeMeters>5.19999980926513671875</AltitudeMeters>
            <DistanceMeters>NAN</DistanceMeters>
          </Trackpoint>
          <Trackpoint>
            <Time>2022-07-04T15:00:50.000Z</Time>
            <Position>
              <LatitudeDegrees>44.62498418055474758148193359375</LatitudeDegrees>
              <LongitudeDegrees>-1.03784255683422088623046875</LongitudeDegrees>
            </Position>
            <AltitudeMeters>5.19999980926513671875</AltitudeMeters>
            <DistanceMeters>NAN</DistanceMeters>
          </Trackpoint>
          <Trackpoint>
            <Time>2022-07-04T15:00:54.000Z</Time>
            <Position>
              <LatitudeDegrees>44.62500295601785182952880859375</LatitudeDegrees>
              <LongitudeDegrees>-1.03807590901851654052734375</LongitudeDegrees>
            </Position>
            <AltitudeMeters>5.400000095367431640625</AltitudeMeters>
            <DistanceMeters>NAN</DistanceMeters>
          </Trackpoint>
          <Trackpoint>
            <Time>2022-07-04T15:00:59.000Z</Time>
            <Position>
              <LatitudeDegrees>44.6250149421393871307373046875</LatitudeDegrees>
              <LongitudeDegrees>-1.03831730782985687255859375</LongitudeDegrees>
            </Position>
            <AltitudeMeters>5.400000095367431640625</AltitudeMeters>
            <DistanceMeters>NAN</DistanceMeters>
          </Trackpoint>
          <Trackpoint>
            <Time>2022-07-04T15:01:05.000Z</Time>
            <Position>
              <LatitudeDegrees>44.625010080635547637939453125</LatitudeDegrees>
              <LongitudeDegrees>-1.03866104967892169952392578125</LongitudeDegrees>
            </Position>
            <AltitudeMeters>5.19999980926513671875</AltitudeMeters>
            <DistanceMeters>NAN</DistanceMeters>
          </Trackpoint>
          <Trackpoint>
            <Time>2022-07-04T15:01:09.000Z</Time>
            <Position>
              <LatitudeDegrees>44.6250340528786182403564453125</LatitudeDegrees>
              <LongitudeDegrees>-1.03888099081814289093017578125</LongitudeDegrees>
            </Position>
            <AltitudeMeters>5.400000095367431640625</AltitudeMeters>
            <DistanceMeters>NAN</DistanceMeters>
          </Trackpoint>
          <Trackpoint>
            <Time>2022-07-04T15:01:10.000Z</Time>
            <Position>
              <LatitudeDegrees>44.6250387467443943023681640625</LatitudeDegrees>
              <LongitudeDegrees>-1.03892994113266468048095703125</LongitudeDegrees>
            </Position>
            <AltitudeMeters>5.19999980926513671875</AltitudeMeters>
            <DistanceMeters>NAN</DistanceMeters>
          </Trackpoint>
          <Trackpoint>
            <Time>2022-07-04T15:01:13.000Z</Time>
            <Position>
              <LatitudeDegrees>44.62500773370265960693359375</LatitudeDegrees>
              <LongitudeDegrees>-1.03905491530895233154296875</LongitudeDegrees>
            </Position>
            <AltitudeMeters>5.19999980926513671875</AltitudeMeters>
            <DistanceMeters>NAN</DistanceMeters>
          </Trackpoint>
          <Trackpoint>
            <Time>2022-07-04T15:01:16.000Z</Time>
            <Position>
              <LatitudeDegrees>44.62495719082653522491455078125</LatitudeDegrees>
              <LongitudeDegrees>-1.03913378901779651641845703125</LongitudeDegrees>
            </Position>
            <AltitudeMeters>5.400000095367431640625</AltitudeMeters>
            <DistanceMeters>NAN</DistanceMeters>
          </Trackpoint>
          <Trackpoint>
            <Time>2022-07-04T15:01:17.000Z</Time>
            <Position>
              <LatitudeDegrees>44.62495048530399799346923828125</LatitudeDegrees>
              <LongitudeDegrees>-1.03918139822781085968017578125</LongitudeDegrees>
            </Position>
            <AltitudeMeters>5.400000095367431640625</AltitudeMeters>
            <DistanceMeters>NAN</DistanceMeters>
          </Trackpoint>
          <Trackpoint>
            <Time>2022-07-04T15:01:19.000Z</Time>
            <Position>
              <LatitudeDegrees>44.62494679726660251617431640625</LatitudeDegrees>
              <LongitudeDegrees>-1.03928516618907451629638671875</LongitudeDegrees>
            </Position>
            <AltitudeMeters>5.599999904632568359375</AltitudeMeters>
            <DistanceMeters>NAN</DistanceMeters>
          </Trackpoint>
          <Trackpoint>
            <Time>2022-07-04T15:01:23.000Z</Time>
            <Position>
              <LatitudeDegrees>44.62496490217745304107666015625</LatitudeDegrees>
              <LongitudeDegrees>-1.03948884643614292144775390625</LongitudeDegrees>
            </Position>
            <AltitudeMeters>5.80000019073486328125</AltitudeMeters>
            <DistanceMeters>NAN</DistanceMeters>
          </Trackpoint>
          <Trackpoint>
            <Time>2022-07-04T15:01:28.000Z</Time>
            <Position>
              <LatitudeDegrees>44.62497965432703495025634765625</LatitudeDegrees>
              <LongitudeDegrees>-1.03975740261375904083251953125</LongitudeDegrees>
            </Position>
            <AltitudeMeters>5.80000019073486328125</AltitudeMeters>
            <DistanceMeters>NAN</DistanceMeters>
          </Trackpoint>
          <Trackpoint>
            <Time>2022-07-04T15:01:32.000Z</Time>
            <Position>
              <LatitudeDegrees>44.62501284666359424591064453125</LatitudeDegrees>
              <LongitudeDegrees>-1.0399817861616611480712890625</LongitudeDegrees>
            </Position>
            <AltitudeMeters>5.599999904632568359375</AltitudeMeters>
            <DistanceMeters>NAN</DistanceMeters>
          </Trackpoint>
          <Trackpoint>
            <Time>2022-07-04T15:01:35.000Z</Time>
            <Position>
              <LatitudeDegrees>44.62500480003654956817626953125</LatitudeDegrees>
              <LongitudeDegrees>-1.04012779891490936279296875</LongitudeDegrees>
            </Position>
            <AltitudeMeters>5.599999904632568359375</AltitudeMeters>
            <DistanceMeters>NAN</DistanceMeters>
          </Trackpoint>
          <Trackpoint>
            <Time>2022-07-04T15:01:39.000Z</Time>
            <Position>
              <LatitudeDegrees>44.62490874342620372772216796875</LatitudeDegrees>
              <LongitudeDegrees>-1.04017968289554119110107421875</LongitudeDegrees>
            </Position>
            <AltitudeMeters>5.599999904632568359375</AltitudeMeters>
            <DistanceMeters>NAN</DistanceMeters>
          </Trackpoint>
          <Trackpoint>
            <Time>2022-07-04T15:01:44.000Z</Time>
            <Position>
              <LatitudeDegrees>44.624747894704341888427734375</LatitudeDegrees>
              <LongitudeDegrees>-1.04022595100104808807373046875</LongitudeDegrees>
            </Position>
            <AltitudeMeters>5.80000019073486328125</AltitudeMeters>
            <DistanceMeters>NAN</DistanceMeters>
          </Trackpoint>
          <Trackpoint>
            <Time>2022-07-04T15:01:52.000Z</Time>
            <Position>
              <LatitudeDegrees>44.62447129189968109130859375</LatitudeDegrees>
              <LongitudeDegrees>-1.04034849442541599273681640625</LongitudeDegrees>
            </Position>
            <AltitudeMeters>6</AltitudeMeters>
            <DistanceMeters>NAN</DistanceMeters>
          </Trackpoint>
          <Trackpoint>
            <Time>2022-07-04T15:01:55.000Z</Time>
            <Position>
              <LatitudeDegrees>44.62434195913374423980712890625</LatitudeDegrees>
              <LongitudeDegrees>-1.04039291851222515106201171875</LongitudeDegrees>
            </Position>
            <AltitudeMeters>6</AltitudeMeters>
            <DistanceMeters>NAN</DistanceMeters>
          </Trackpoint>
          <Trackpoint>
            <Time>2022-07-04T15:01:58.000Z</Time>
            <Position>
              <LatitudeDegrees>44.62419100105762481689453125</LatitudeDegrees>
              <LongitudeDegrees>-1.04046449996531009674072265625</LongitudeDegrees>
            </Position>
            <AltitudeMeters>6.400000095367431640625</AltitudeMeters>
            <DistanceMeters>NAN</DistanceMeters>
          </Trackpoint>
          <Trackpoint>
            <Time>2022-07-04T15:02:00.000Z</Time>
            <Position>
              <LatitudeDegrees>44.62410693056881427764892578125</LatitudeDegrees>
              <LongitudeDegrees>-1.040489561855792999267578125</LongitudeDegrees>
            </Position>
            <AltitudeMeters>6.599999904632568359375</AltitudeMeters>
            <DistanceMeters>NAN</DistanceMeters>
          </Trackpoint>
          <Trackpoint>
            <Time>2022-07-04T15:02:03.000Z</Time>
            <Position>
              <LatitudeDegrees>44.624005593359470367431640625</LatitudeDegrees>
              <LongitudeDegrees>-1.040570698678493499755859375</LongitudeDegrees>
            </Position>
            <AltitudeMeters>6.80000019073486328125</AltitudeMeters>
            <DistanceMeters>NAN</DistanceMeters>
          </Trackpoint>
          <Trackpoint>
            <Time>2022-07-04T15:02:10.000Z</Time>
            <Position>
              <LatitudeDegrees>44.6238076128065586090087890625</LatitudeDegrees>
              <LongitudeDegrees>-1.04064521379768848419189453125</LongitudeDegrees>
            </Position>
            <AltitudeMeters>6.599999904632568359375</AltitudeMeters>
            <DistanceMeters>NAN</DistanceMeters>
          </Trackpoint>
          <Trackpoint>
            <Time>2022-07-04T15:02:17.000Z</Time>
            <Position>
              <LatitudeDegrees>44.62353662587702274322509765625</LatitudeDegrees>
              <LongitudeDegrees>-1.04072584770619869232177734375</LongitudeDegrees>
            </Position>
            <AltitudeMeters>6.19999980926513671875</AltitudeMeters>
            <DistanceMeters>NAN</DistanceMeters>
          </Trackpoint>
          <Trackpoint>
            <Time>2022-07-04T15:02:25.000Z</Time>
            <Position>
              <LatitudeDegrees>44.62324686348438262939453125</LatitudeDegrees>
              <LongitudeDegrees>-1.04081176221370697021484375</LongitudeDegrees>
            </Position>
            <AltitudeMeters>6.599999904632568359375</AltitudeMeters>
            <DistanceMeters>NAN</DistanceMeters>
          </Trackpoint>
          <Trackpoint>
            <Time>2022-07-04T15:02:27.000Z</Time>
            <Position>
              <LatitudeDegrees>44.6231947280466556549072265625</LatitudeDegrees>
              <LongitudeDegrees>-1.04086951352655887603759765625</LongitudeDegrees>
            </Position>
            <AltitudeMeters>7</AltitudeMeters>
            <DistanceMeters>NAN</DistanceMeters>
          </Trackpoint>
          <Trackpoint>
            <Time>2022-07-04T15:02:28.000Z</Time>
            <Position>
              <LatitudeDegrees>44.6231799758970737457275390625</LatitudeDegrees>
              <LongitudeDegrees>-1.04091980494558811187744140625</LongitudeDegrees>
            </Position>
            <AltitudeMeters>7</AltitudeMeters>
            <DistanceMeters>NAN</DistanceMeters>
          </Trackpoint>
          <Trackpoint>
            <Time>2022-07-04T15:02:35.000Z</Time>
            <Position>
              <LatitudeDegrees>44.62314384989440441131591796875</LatitudeDegrees>
              <LongitudeDegrees>-1.0412917099893093109130859375</LongitudeDegrees>
            </Position>
            <AltitudeMeters>7</AltitudeMeters>
            <DistanceMeters>NAN</DistanceMeters>
          </Trackpoint>
          <Trackpoint>
            <Time>2022-07-04T15:02:43.000Z</Time>
            <Position>
              <LatitudeDegrees>44.62317989207804203033447265625</LatitudeDegrees>
              <LongitudeDegrees>-1.04174491949379444122314453125</LongitudeDegrees>
            </Position>
            <AltitudeMeters>7</AltitudeMeters>
            <DistanceMeters>NAN</DistanceMeters>
          </Trackpoint>
          <Trackpoint>
            <Time>2022-07-04T15:02:51.000Z</Time>
            <Position>
              <LatitudeDegrees>44.623215682804584503173828125</LatitudeDegrees>
              <LongitudeDegrees>-1.04218765161931514739990234375</LongitudeDegrees>
            </Position>
            <AltitudeMeters>7</AltitudeMeters>
            <DistanceMeters>NAN</DistanceMeters>
          </Trackpoint>
          <Trackpoint>
            <Time>2022-07-04T15:02:58.000Z</Time>
            <Position>
              <LatitudeDegrees>44.623284079134464263916015625</LatitudeDegrees>
              <LongitudeDegrees>-1.0425600595772266387939453125</LongitudeDegrees>
            </Position>
            <AltitudeMeters>7.19999980926513671875</AltitudeMeters>
            <DistanceMeters>NAN</DistanceMeters>
          </Trackpoint>
          <Trackpoint>
            <Time>2022-07-04T15:03:04.000Z</Time>
            <Position>
              <LatitudeDegrees>44.6233211271464824676513671875</LatitudeDegrees>
              <LongitudeDegrees>-1.0428732074797153472900390625</LongitudeDegrees>
            </Position>
            <AltitudeMeters>7.19999980926513671875</AltitudeMeters>
            <DistanceMeters>NAN</DistanceMeters>
          </Trackpoint>
          <Trackpoint>
            <Time>2022-07-04T15:03:05.000Z</Time>
            <Position>
              <LatitudeDegrees>44.62332858704030513763427734375</LatitudeDegrees>
              <LongitudeDegrees>-1.04292400181293487548828125</LongitudeDegrees>
            </Position>
            <AltitudeMeters>7</AltitudeMeters>
            <DistanceMeters>NAN</DistanceMeters>
          </Trackpoint>
          <Trackpoint>
            <Time>2022-07-04T15:03:10.000Z</Time>
            <Position>
              <LatitudeDegrees>44.62342715822160243988037109375</LatitudeDegrees>
              <LongitudeDegrees>-1.043124161660671234130859375</LongitudeDegrees>
            </Position>
            <AltitudeMeters>6.80000019073486328125</AltitudeMeters>
            <DistanceMeters>NAN</DistanceMeters>
          </Trackpoint>
          <Trackpoint>
            <Time>2022-07-04T15:03:14.000Z</Time>
            <Position>
              <LatitudeDegrees>44.623485915362834930419921875</LatitudeDegrees>
              <LongitudeDegrees>-1.04329272173345088958740234375</LongitudeDegrees>
            </Position>
            <AltitudeMeters>6.599999904632568359375</AltitudeMeters>
            <DistanceMeters>NAN</DistanceMeters>
          </Trackpoint>
          <Trackpoint>
            <Time>2022-07-04T15:03:17.000Z</Time>
            <Position>
              <LatitudeDegrees>44.6234606020152568817138671875</LatitudeDegrees>
              <LongitudeDegrees>-1.04342096485197544097900390625</LongitudeDegrees>
            </Position>
            <AltitudeMeters>6.599999904632568359375</AltitudeMeters>
            <DistanceMeters>NAN</DistanceMeters>
          </Trackpoint>
          <Trackpoint>
            <Time>2022-07-04T15:03:18.000Z</Time>
            <Position>
              <LatitudeDegrees>44.62344526313245296478271484375</LatitudeDegrees>
              <LongitudeDegrees>-1.04344560764729976654052734375</LongitudeDegrees>
            </Position>
            <AltitudeMeters>6.599999904632568359375</AltitudeMeters>
            <DistanceMeters>NAN</DistanceMeters>
          </Trackpoint>
          <Trackpoint>
            <Time>2022-07-04T15:03:22.000Z</Time>
            <Position>
              <LatitudeDegrees>44.62339572608470916748046875</LatitudeDegrees>
              <LongitudeDegrees>-1.043639145791530609130859375</LongitudeDegrees>
            </Position>
            <AltitudeMeters>7</AltitudeMeters>
            <DistanceMeters>NAN</DistanceMeters>
          </Trackpoint>
          <Trackpoint>
            <Time>2022-07-04T15:03:29.000Z</Time>
            <Position>
              <LatitudeDegrees>44.62343621067702770233154296875</LatitudeDegrees>
              <LongitudeDegrees>-1.04401658289134502410888671875</LongitudeDegrees>
            </Position>
            <AltitudeMeters>7.400000095367431640625</AltitudeMeters>
            <DistanceMeters>NAN</DistanceMeters>
          </Trackpoint>
          <Trackpoint>
            <Time>2022-07-04T15:03:38.000Z</Time>
            <Position>
              <LatitudeDegrees>44.62350963614881038665771484375</LatitudeDegrees>
              <LongitudeDegrees>-1.04451631195843219757080078125</LongitudeDegrees>
            </Position>
            <AltitudeMeters>7</AltitudeMeters>
            <DistanceMeters>NAN</DistanceMeters>
          </Trackpoint>
          <Trackpoint>
            <Time>2022-07-04T15:03:39.000Z</Time>
            <Position>
              <LatitudeDegrees>44.62352002970874309539794921875</LatitudeDegrees>
              <LongitudeDegrees>-1.04457112960517406463623046875</LongitudeDegrees>
            </Position>
            <AltitudeMeters>7</AltitudeMeters>
            <DistanceMeters>NAN</DistanceMeters>
          </Trackpoint>
          <Trackpoint>
            <Time>2022-07-04T15:03:44.000Z</Time>
            <Position>
              <LatitudeDegrees>44.6235693991184234619140625</LatitudeDegrees>
              <LongitudeDegrees>-1.0448459722101688385009765625</LongitudeDegrees>
            </Position>
            <AltitudeMeters>7</AltitudeMeters>
            <DistanceMeters>NAN</DistanceMeters>
          </Trackpoint>
          <Trackpoint>
            <Time>2022-07-04T15:03:47.000Z</Time>
            <Position>
              <LatitudeDegrees>44.62361030280590057373046875</LatitudeDegrees>
              <LongitudeDegrees>-1.0449985228478908538818359375</LongitudeDegrees>
            </Position>
            <AltitudeMeters>7</AltitudeMeters>
            <DistanceMeters>NAN</DistanceMeters>
          </Trackpoint>
          <Trackpoint>
            <Time>2022-07-04T15:03:52.000Z</Time>
            <Position>
              <LatitudeDegrees>44.62365983985364437103271484375</LatitudeDegrees>
              <LongitudeDegrees>-1.04528090916574001312255859375</LongitudeDegrees>
            </Position>
            <AltitudeMeters>7</AltitudeMeters>
            <DistanceMeters>NAN</DistanceMeters>
          </Trackpoint>
          <Trackpoint>
            <Time>2022-07-04T15:03:53.000Z</Time>
            <Position>
              <LatitudeDegrees>44.62366822175681591033935546875</LatitudeDegrees>
              <LongitudeDegrees>-1.045334637165069580078125</LongitudeDegrees>
            </Position>
            <AltitudeMeters>7</AltitudeMeters>
            <DistanceMeters>NAN</DistanceMeters>
          </Trackpoint>
          <Trackpoint>
            <Time>2022-07-04T15:03:55.000Z</Time>
            <Position>
              <LatitudeDegrees>44.62368674576282501220703125</LatitudeDegrees>
              <LongitudeDegrees>-1.04544460773468017578125</LongitudeDegrees>
            </Position>
            <AltitudeMeters>7</AltitudeMeters>
            <DistanceMeters>NAN</DistanceMeters>
          </Trackpoint>
          <Trackpoint>
            <Time>2022-07-04T15:03:57.000Z</Time>
            <Position>
              <LatitudeDegrees>44.623715914785861968994140625</LatitudeDegrees>
              <LongitudeDegrees>-1.04555851779878139495849609375</LongitudeDegrees>
            </Position>
            <AltitudeMeters>7</AltitudeMeters>
            <DistanceMeters>NAN</DistanceMeters>
          </Trackpoint>
          <Trackpoint>
            <Time>2022-07-04T15:04:03.000Z</Time>
            <Position>
              <LatitudeDegrees>44.62377182208001613616943359375</LatitudeDegrees>
              <LongitudeDegrees>-1.0458965599536895751953125</LongitudeDegrees>
            </Position>
            <AltitudeMeters>6.599999904632568359375</AltitudeMeters>
            <DistanceMeters>NAN</DistanceMeters>
          </Trackpoint>
          <Trackpoint>
            <Time>2022-07-04T15:04:05.000Z</Time>
            <Position>
              <LatitudeDegrees>44.62380073964595794677734375</LatitudeDegrees>
              <LongitudeDegrees>-1.0460026748478412628173828125</LongitudeDegrees>
            </Position>
            <AltitudeMeters>6.80000019073486328125</AltitudeMeters>
            <DistanceMeters>NAN</DistanceMeters>
          </Trackpoint>
          <Trackpoint>
            <Time>2022-07-04T15:04:07.000Z</Time>
            <Position>
              <LatitudeDegrees>44.62383166886866092681884765625</LatitudeDegrees>
              <LongitudeDegrees>-1.046106778085231781005859375</LongitudeDegrees>
            </Position>
            <AltitudeMeters>6.80000019073486328125</AltitudeMeters>
            <DistanceMeters>NAN</DistanceMeters>
          </Trackpoint>
          <Trackpoint>
            <Time>2022-07-04T15:04:11.000Z</Time>
            <Position>
              <LatitudeDegrees>44.62390023283660411834716796875</LatitudeDegrees>
              <LongitudeDegrees>-1.04631355963647365570068359375</LongitudeDegrees>
            </Position>
            <AltitudeMeters>7</AltitudeMeters>
            <DistanceMeters>NAN</DistanceMeters>
          </Trackpoint>
          <Trackpoint>
            <Time>2022-07-04T15:04:20.000Z</Time>
            <Position>
              <LatitudeDegrees>44.624048173427581787109375</LatitudeDegrees>
              <LongitudeDegrees>-1.0467660985887050628662109375</LongitudeDegrees>
            </Position>
            <AltitudeMeters>7</AltitudeMeters>
            <DistanceMeters>NAN</DistanceMeters>
          </Trackpoint>
          <Trackpoint>
            <Time>2022-07-04T15:04:21.000Z</Time>
            <Position>
              <LatitudeDegrees>44.62406317703425884246826171875</LatitudeDegrees>
              <LongitudeDegrees>-1.046818234026432037353515625</LongitudeDegrees>
            </Position>
            <AltitudeMeters>7</AltitudeMeters>
            <DistanceMeters>NAN</DistanceMeters>
          </Trackpoint>
          <Trackpoint>
            <Time>2022-07-04T15:04:31.000Z</Time>
            <Position>
              <LatitudeDegrees>44.62419259361922740936279296875</LatitudeDegrees>
              <LongitudeDegrees>-1.04735995642840862274169921875</LongitudeDegrees>
            </Position>
            <AltitudeMeters>7</AltitudeMeters>
            <DistanceMeters>NAN</DistanceMeters>
          </Trackpoint>
          <Trackpoint>
            <Time>2022-07-04T15:04:36.000Z</Time>
            <Position>
              <LatitudeDegrees>44.6242319047451019287109375</LatitudeDegrees>
              <LongitudeDegrees>-1.0476346313953399658203125</LongitudeDegrees>
            </Position>
            <AltitudeMeters>7</AltitudeMeters>
            <DistanceMeters>NAN</DistanceMeters>
          </Trackpoint>
          <Trackpoint>
            <Time>2022-07-04T15:04:39.000Z</Time>
            <Position>
              <LatitudeDegrees>44.6242568828165531158447265625</LatitudeDegrees>
              <LongitudeDegrees>-1.0478061251342296600341796875</LongitudeDegrees>
            </Position>
            <AltitudeMeters>7</AltitudeMeters>
            <DistanceMeters>NAN</DistanceMeters>
          </Trackpoint>
          <Trackpoint>
            <Time>2022-07-04T15:04:40.000Z</Time>
            <Position>
              <LatitudeDegrees>44.6242655999958515167236328125</LatitudeDegrees>
              <LongitudeDegrees>-1.04786152951419353485107421875</LongitudeDegrees>
            </Position>
            <AltitudeMeters>7</AltitudeMeters>
            <DistanceMeters>NAN</DistanceMeters>
          </Trackpoint>
          <Trackpoint>
            <Time>2022-07-04T15:04:46.000Z</Time>
            <Position>
              <LatitudeDegrees>44.624295271933078765869140625</LatitudeDegrees>
              <LongitudeDegrees>-1.04819211177527904510498046875</LongitudeDegrees>
            </Position>
            <AltitudeMeters>7.19999980926513671875</AltitudeMeters>
            <DistanceMeters>NAN</DistanceMeters>
          </Trackpoint>
          <Trackpoint>
            <Time>2022-07-04T15:04:55.000Z</Time>
            <Position>
              <LatitudeDegrees>44.6243500895798206329345703125</LatitudeDegrees>
              <LongitudeDegrees>-1.04870843701064586639404296875</LongitudeDegrees>
            </Position>
            <AltitudeMeters>7</AltitudeMeters>
            <DistanceMeters>NAN</DistanceMeters>
          </Trackpoint>
          <Trackpoint>
            <Time>2022-07-04T15:05:00.000Z</Time>
            <Position>
              <LatitudeDegrees>44.62438487447798252105712890625</LatitudeDegrees>
              <LongitudeDegrees>-1.04896928183734416961669921875</LongitudeDegrees>
            </Position>
            <AltitudeMeters>6.599999904632568359375</AltitudeMeters>
            <DistanceMeters>NAN</DistanceMeters>
          </Trackpoint>
          <Trackpoint>
            <Time>2022-07-04T15:05:02.000Z</Time>
            <Position>
              <LatitudeDegrees>44.6244017221033573150634765625</LatitudeDegrees>
              <LongitudeDegrees>-1.0490654222667217254638671875</LongitudeDegrees>
            </Position>
            <AltitudeMeters>6.599999904632568359375</AltitudeMeters>
            <DistanceMeters>NAN</DistanceMeters>
          </Trackpoint>
          <Trackpoint>
            <Time>2022-07-04T15:05:12.000Z</Time>
            <Position>
              <LatitudeDegrees>44.6244640834629535675048828125</LatitudeDegrees>
              <LongitudeDegrees>-1.04957160539925098419189453125</LongitudeDegrees>
            </Position>
            <AltitudeMeters>6.599999904632568359375</AltitudeMeters>
            <DistanceMeters>NAN</DistanceMeters>
          </Trackpoint>
          <Trackpoint>
            <Time>2022-07-04T15:05:18.000Z</Time>
            <Position>
              <LatitudeDegrees>44.62449048645794391632080078125</LatitudeDegrees>
              <LongitudeDegrees>-1.04987754486501216888427734375</LongitudeDegrees>
            </Position>
            <AltitudeMeters>6.599999904632568359375</AltitudeMeters>
            <DistanceMeters>NAN</DistanceMeters>
          </Trackpoint>
          <Trackpoint>
            <Time>2022-07-04T15:05:22.000Z</Time>
            <Position>
              <LatitudeDegrees>44.62451797910034656524658203125</LatitudeDegrees>
              <LongitudeDegrees>-1.0500632040202617645263671875</LongitudeDegrees>
            </Position>
            <AltitudeMeters>6.80000019073486328125</AltitudeMeters>
            <DistanceMeters>NAN</DistanceMeters>
          </Trackpoint>
          <Trackpoint>
            <Time>2022-07-04T15:05:25.000Z</Time>
            <Position>
              <LatitudeDegrees>44.62455418892204761505126953125</LatitudeDegrees>
              <LongitudeDegrees>-1.05023276992142200469970703125</LongitudeDegrees>
            </Position>
            <AltitudeMeters>7</AltitudeMeters>
            <DistanceMeters>NAN</DistanceMeters>
          </Trackpoint>
          <Trackpoint>
            <Time>2022-07-04T15:05:27.000Z</Time>
            <Position>
              <LatitudeDegrees>44.6245717070996761322021484375</LatitudeDegrees>
              <LongitudeDegrees>-1.0503240488469600677490234375</LongitudeDegrees>
            </Position>
            <AltitudeMeters>7</AltitudeMeters>
            <DistanceMeters>NAN</DistanceMeters>
          </Trackpoint>
          <Trackpoint>
            <Time>2022-07-04T15:05:33.000Z</Time>
            <Position>
              <LatitudeDegrees>44.62460230104625225067138671875</LatitudeDegrees>
              <LongitudeDegrees>-1.050648428499698638916015625</LongitudeDegrees>
            </Position>
            <AltitudeMeters>7</AltitudeMeters>
            <DistanceMeters>NAN</DistanceMeters>
          </Trackpoint>
          <Trackpoint>
            <Time>2022-07-04T15:05:39.000Z</Time>
            <Position>
              <LatitudeDegrees>44.62464563548564910888671875</LatitudeDegrees>
              <LongitudeDegrees>-1.05095713399350643157958984375</LongitudeDegrees>
            </Position>
            <AltitudeMeters>7</AltitudeMeters>
            <DistanceMeters>NAN</DistanceMeters>
          </Trackpoint>
          <Trackpoint>
            <Time>2022-07-04T15:05:45.000Z</Time>
            <Position>
              <LatitudeDegrees>44.62468913756310939788818359375</LatitudeDegrees>
              <LongitudeDegrees>-1.05128570459783077239990234375</LongitudeDegrees>
            </Position>
            <AltitudeMeters>6.80000019073486328125</AltitudeMeters>
            <DistanceMeters>NAN</DistanceMeters>
          </Trackpoint>
          <Trackpoint>
            <Time>2022-07-04T15:05:52.000Z</Time>
            <Position>
              <LatitudeDegrees>44.62474278174340724945068359375</LatitudeDegrees>
              <LongitudeDegrees>-1.05169457383453845977783203125</LongitudeDegrees>
            </Position>
            <AltitudeMeters>6.80000019073486328125</AltitudeMeters>
            <DistanceMeters>NAN</DistanceMeters>
          </Trackpoint>
          <Trackpoint>
            <Time>2022-07-04T15:06:00.000Z</Time>
            <Position>
              <LatitudeDegrees>44.6247919835150241851806640625</LatitudeDegrees>
              <LongitudeDegrees>-1.05213847942650318145751953125</LongitudeDegrees>
            </Position>
            <AltitudeMeters>6.80000019073486328125</AltitudeMeters>
            <DistanceMeters>NAN</DistanceMeters>
          </Trackpoint>
          <Trackpoint>
            <Time>2022-07-04T15:06:04.000Z</Time>
            <Position>
              <LatitudeDegrees>44.6248067356646060943603515625</LatitudeDegrees>
              <LongitudeDegrees>-1.05232782661914825439453125</LongitudeDegrees>
            </Position>
            <AltitudeMeters>6.80000019073486328125</AltitudeMeters>
            <DistanceMeters>NAN</DistanceMeters>
          </Trackpoint>
          <Trackpoint>
            <Time>2022-07-04T15:06:05.000Z</Time>
            <Position>
              <LatitudeDegrees>44.62481201626360416412353515625</LatitudeDegrees>
              <LongitudeDegrees>-1.05237602256238460540771484375</LongitudeDegrees>
            </Position>
            <AltitudeMeters>6.80000019073486328125</AltitudeMeters>
            <DistanceMeters>NAN</DistanceMeters>
          </Trackpoint>
          <Trackpoint>
            <Time>2022-07-04T15:06:12.000Z</Time>
            <Position>
              <LatitudeDegrees>44.6248442865908145904541015625</LatitudeDegrees>
              <LongitudeDegrees>-1.052709706127643585205078125</LongitudeDegrees>
            </Position>
            <AltitudeMeters>6.599999904632568359375</AltitudeMeters>
            <DistanceMeters>NAN</DistanceMeters>
          </Trackpoint>
          <Trackpoint>
            <Time>2022-07-04T15:06:20.000Z</Time>
            <Position>
              <LatitudeDegrees>44.62489080615341663360595703125</LatitudeDegrees>
              <LongitudeDegrees>-1.05311966501176357269287109375</LongitudeDegrees>
            </Position>
            <AltitudeMeters>6.80000019073486328125</AltitudeMeters>
            <DistanceMeters>NAN</DistanceMeters>
          </Trackpoint>
          <Trackpoint>
            <Time>2022-07-04T15:06:24.000Z</Time>
            <Position>
              <LatitudeDegrees>44.62493154220283031463623046875</LatitudeDegrees>
              <LongitudeDegrees>-1.05334580875933170318603515625</LongitudeDegrees>
            </Position>
            <AltitudeMeters>6.599999904632568359375</AltitudeMeters>
            <DistanceMeters>NAN</DistanceMeters>
          </Trackpoint>
          <Trackpoint>
            <Time>2022-07-04T15:06:26.000Z</Time>
            <Position>
              <LatitudeDegrees>44.624946378171443939208984375</LatitudeDegrees>
              <LongitudeDegrees>-1.05343281291425228118896484375</LongitudeDegrees>
            </Position>
            <AltitudeMeters>6.599999904632568359375</AltitudeMeters>
            <DistanceMeters>NAN</DistanceMeters>
          </Trackpoint>
          <Trackpoint>
            <Time>2022-07-04T15:06:27.000Z</Time>
            <Position>
              <LatitudeDegrees>44.62496104650199413299560546875</LatitudeDegrees>
              <LongitudeDegrees>-1.05347421951591968536376953125</LongitudeDegrees>
            </Position>
            <AltitudeMeters>6.599999904632568359375</AltitudeMeters>
            <DistanceMeters>NAN</DistanceMeters>
          </Trackpoint>
          <Trackpoint>
            <Time>2022-07-04T15:06:30.000Z</Time>
            <Position>
              <LatitudeDegrees>44.62500681169331073760986328125</LatitudeDegrees>
              <LongitudeDegrees>-1.05365711264312267303466796875</LongitudeDegrees>
            </Position>
            <AltitudeMeters>6.400000095367431640625</AltitudeMeters>
            <DistanceMeters>NAN</DistanceMeters>
          </Trackpoint>
          <Trackpoint>
            <Time>2022-07-04T15:06:38.000Z</Time>
            <Position>
              <LatitudeDegrees>44.6250890381634235382080078125</LatitudeDegrees>
              <LongitudeDegrees>-1.0541482083499431610107421875</LongitudeDegrees>
            </Position>
            <AltitudeMeters>6.400000095367431640625</AltitudeMeters>
            <DistanceMeters>NAN</DistanceMeters>
          </Trackpoint>
          <Trackpoint>
            <Time>2022-07-04T15:06:43.000Z</Time>
            <Position>
              <LatitudeDegrees>44.6251396648585796356201171875</LatitudeDegrees>
              <LongitudeDegrees>-1.05447853915393352508544921875</LongitudeDegrees>
            </Position>
            <AltitudeMeters>6.19999980926513671875</AltitudeMeters>
            <DistanceMeters>NAN</DistanceMeters>
          </Trackpoint>
          <Trackpoint>
            <Time>2022-07-04T15:06:45.000Z</Time>
            <Position>
              <LatitudeDegrees>44.6251451969146728515625</LatitudeDegrees>
              <LongitudeDegrees>-1.0546192713081836700439453125</LongitudeDegrees>
            </Position>
            <AltitudeMeters>6.19999980926513671875</AltitudeMeters>
            <DistanceMeters>NAN</DistanceMeters>
          </Trackpoint>
          <Trackpoint>
            <Time>2022-07-04T15:06:47.000Z</Time>
            <Position>
              <LatitudeDegrees>44.62515299208462238311767578125</LatitudeDegrees>
              <LongitudeDegrees>-1.05474391020834445953369140625</LongitudeDegrees>
            </Position>
            <AltitudeMeters>6</AltitudeMeters>
            <DistanceMeters>NAN</DistanceMeters>
          </Trackpoint>
          <Trackpoint>
            <Time>2022-07-04T15:06:49.000Z</Time>
            <Position>
              <LatitudeDegrees>44.625198505818843841552734375</LatitudeDegrees>
              <LongitudeDegrees>-1.05485823936760425567626953125</LongitudeDegrees>
            </Position>
            <AltitudeMeters>5.80000019073486328125</AltitudeMeters>
            <DistanceMeters>NAN</DistanceMeters>
          </Trackpoint>
          <Trackpoint>
            <Time>2022-07-04T15:06:50.000Z</Time>
            <Position>
              <LatitudeDegrees>44.625221304595470428466796875</LatitudeDegrees>
              <LongitudeDegrees>-1.05489880777895450592041015625</LongitudeDegrees>
            </Position>
            <AltitudeMeters>5.80000019073486328125</AltitudeMeters>
            <DistanceMeters>NAN</DistanceMeters>
          </Trackpoint>
          <Trackpoint>
            <Time>2022-07-04T15:06:52.000Z</Time>
            <Position>
              <LatitudeDegrees>44.6252560056746006011962890625</LatitudeDegrees>
              <LongitudeDegrees>-1.05502746999263763427734375</LongitudeDegrees>
            </Position>
            <AltitudeMeters>5.80000019073486328125</AltitudeMeters>
            <DistanceMeters>NAN</DistanceMeters>
          </Trackpoint>
          <Trackpoint>
            <Time>2022-07-04T15:06:56.000Z</Time>
            <Position>
              <LatitudeDegrees>44.62531744502484798431396484375</LatitudeDegrees>
              <LongitudeDegrees>-1.0552093572914600372314453125</LongitudeDegrees>
            </Position>
            <AltitudeMeters>6</AltitudeMeters>
            <DistanceMeters>NAN</DistanceMeters>
          </Trackpoint>
          <Trackpoint>
            <Time>2022-07-04T15:06:59.000Z</Time>
            <Position>
              <LatitudeDegrees>44.62535482831299304962158203125</LatitudeDegrees>
              <LongitudeDegrees>-1.05531639419496059417724609375</LongitudeDegrees>
            </Position>
            <AltitudeMeters>6</AltitudeMeters>
            <DistanceMeters>NAN</DistanceMeters>
          </Trackpoint>
          <Trackpoint>
            <Time>2022-07-04T15:07:00.000Z</Time>
            <Position>
              <LatitudeDegrees>44.62536170147359371185302734375</LatitudeDegrees>
              <LongitudeDegrees>-1.05535930953919887542724609375</LongitudeDegrees>
            </Position>
            <AltitudeMeters>6</AltitudeMeters>
            <DistanceMeters>NAN</DistanceMeters>
          </Trackpoint>
          <Trackpoint>
            <Time>2022-07-04T15:07:03.000Z</Time>
            <Position>
              <LatitudeDegrees>44.625355415046215057373046875</LatitudeDegrees>
              <LongitudeDegrees>-1.05550347827374935150146484375</LongitudeDegrees>
            </Position>
            <AltitudeMeters>6</AltitudeMeters>
            <DistanceMeters>NAN</DistanceMeters>
          </Trackpoint>
          <Trackpoint>
            <Time>2022-07-04T15:07:08.000Z</Time>
            <Position>
              <LatitudeDegrees>44.62535130791366100311279296875</LatitudeDegrees>
              <LongitudeDegrees>-1.0557615570724010467529296875</LongitudeDegrees>
            </Position>
            <AltitudeMeters>6.400000095367431640625</AltitudeMeters>
            <DistanceMeters>NAN</DistanceMeters>
          </Trackpoint>
          <Trackpoint>
            <Time>2022-07-04T15:07:10.000Z</Time>
            <Position>
              <LatitudeDegrees>44.6253396570682525634765625</LatitudeDegrees>
              <LongitudeDegrees>-1.0558584518730640411376953125</LongitudeDegrees>
            </Position>
            <AltitudeMeters>6.400000095367431640625</AltitudeMeters>
            <DistanceMeters>NAN</DistanceMeters>
          </Trackpoint>
          <Trackpoint>
            <Time>2022-07-04T15:07:11.000Z</Time>
            <Position>
              <LatitudeDegrees>44.6253368072211742401123046875</LatitudeDegrees>
              <LongitudeDegrees>-1.05591134168207645416259765625</LongitudeDegrees>
            </Position>
            <AltitudeMeters>6.400000095367431640625</AltitudeMeters>
            <DistanceMeters>NAN</DistanceMeters>
          </Trackpoint>
          <Trackpoint>
            <Time>2022-07-04T15:07:18.000Z</Time>
            <Position>
              <LatitudeDegrees>44.625305123627185821533203125</LatitudeDegrees>
              <LongitudeDegrees>-1.0563169419765472412109375</LongitudeDegrees>
            </Position>
            <AltitudeMeters>6.400000095367431640625</AltitudeMeters>
            <DistanceMeters>NAN</DistanceMeters>
          </Trackpoint>
          <Trackpoint>
            <Time>2022-07-04T15:07:22.000Z</Time>
            <Position>
              <LatitudeDegrees>44.6252967417240142822265625</LatitudeDegrees>
              <LongitudeDegrees>-1.05651131831109523773193359375</LongitudeDegrees>
            </Position>
            <AltitudeMeters>6.19999980926513671875</AltitudeMeters>
            <DistanceMeters>NAN</DistanceMeters>
          </Trackpoint>
          <Trackpoint>
            <Time>2022-07-04T15:07:25.000Z</Time>
            <Position>
              <LatitudeDegrees>44.62530001066625118255615234375</LatitudeDegrees>
              <LongitudeDegrees>-1.05664509348571300506591796875</LongitudeDegrees>
            </Position>
            <AltitudeMeters>6.19999980926513671875</AltitudeMeters>
            <DistanceMeters>NAN</DistanceMeters>
          </Trackpoint>
          <Trackpoint>
            <Time>2022-07-04T15:07:27.000Z</Time>
            <Position>
              <LatitudeDegrees>44.6252994239330291748046875</LatitudeDegrees>
              <LongitudeDegrees>-1.05676964856684207916259765625</LongitudeDegrees>
            </Position>
            <AltitudeMeters>6.19999980926513671875</AltitudeMeters>
            <DistanceMeters>NAN</DistanceMeters>
          </Trackpoint>
          <Trackpoint>
            <Time>2022-07-04T15:07:32.000Z</Time>
            <Position>
              <LatitudeDegrees>44.62529498152434825897216796875</LatitudeDegrees>
              <LongitudeDegrees>-1.05703921057283878326416015625</LongitudeDegrees>
            </Position>
            <AltitudeMeters>6</AltitudeMeters>
            <DistanceMeters>NAN</DistanceMeters>
          </Trackpoint>
          <Trackpoint>
            <Time>2022-07-04T15:07:39.000Z</Time>
            <Position>
              <LatitudeDegrees>44.62530788965523242950439453125</LatitudeDegrees>
              <LongitudeDegrees>-1.057387478649616241455078125</LongitudeDegrees>
            </Position>
            <AltitudeMeters>6</AltitudeMeters>
            <DistanceMeters>NAN</DistanceMeters>
          </Trackpoint>
          <Trackpoint>
            <Time>2022-07-04T15:07:41.000Z</Time>
            <Position>
              <LatitudeDegrees>44.62531643919646739959716796875</LatitudeDegrees>
              <LongitudeDegrees>-1.0574989579617977142333984375</LongitudeDegrees>
            </Position>
            <AltitudeMeters>6</AltitudeMeters>
            <DistanceMeters>NAN</DistanceMeters>
          </Trackpoint>
          <Trackpoint>
            <Time>2022-07-04T15:07:43.000Z</Time>
            <Position>
              <LatitudeDegrees>44.62532448582351207733154296875</LatitudeDegrees>
              <LongitudeDegrees>-1.05759300291538238525390625</LongitudeDegrees>
            </Position>
            <AltitudeMeters>5.80000019073486328125</AltitudeMeters>
            <DistanceMeters>NAN</DistanceMeters>
          </Trackpoint>
          <Trackpoint>
            <Time>2022-07-04T15:07:47.000Z</Time>
            <Position>
              <LatitudeDegrees>44.62533303536474704742431640625</LatitudeDegrees>
              <LongitudeDegrees>-1.0577906481921672821044921875</LongitudeDegrees>
            </Position>
            <AltitudeMeters>6</AltitudeMeters>
            <DistanceMeters>NAN</DistanceMeters>
          </Trackpoint>
          <Trackpoint>
            <Time>2022-07-04T15:07:53.000Z</Time>
            <Position>
              <LatitudeDegrees>44.62533605284988880157470703125</LatitudeDegrees>
              <LongitudeDegrees>-1.05811427347362041473388671875</LongitudeDegrees>
            </Position>
            <AltitudeMeters>6.400000095367431640625</AltitudeMeters>
            <DistanceMeters>NAN</DistanceMeters>
          </Trackpoint>
          <Trackpoint>
            <Time>2022-07-04T15:07:57.000Z</Time>
            <Position>
              <LatitudeDegrees>44.62533420883119106292724609375</LatitudeDegrees>
              <LongitudeDegrees>-1.05836640112102031707763671875</LongitudeDegrees>
            </Position>
            <AltitudeMeters>6.400000095367431640625</AltitudeMeters>
            <DistanceMeters>NAN</DistanceMeters>
          </Trackpoint>
          <Trackpoint>
            <Time>2022-07-04T15:07:58.000Z</Time>
            <Position>
              <LatitudeDegrees>44.62533554993569850921630859375</LatitudeDegrees>
              <LongitudeDegrees>-1.05843043886125087738037109375</LongitudeDegrees>
            </Position>
            <AltitudeMeters>6.400000095367431640625</AltitudeMeters>
            <DistanceMeters>NAN</DistanceMeters>
          </Trackpoint>
          <Trackpoint>
            <Time>2022-07-04T15:08:07.000Z</Time>
            <Position>
              <LatitudeDegrees>44.62535482831299304962158203125</LatitudeDegrees>
              <LongitudeDegrees>-1.058986075222492218017578125</LongitudeDegrees>
            </Position>
            <AltitudeMeters>5.80000019073486328125</AltitudeMeters>
            <DistanceMeters>NAN</DistanceMeters>
          </Trackpoint>
          <Trackpoint>
            <Time>2022-07-04T15:08:08.000Z</Time>
            <Position>
              <LatitudeDegrees>44.62535264901816844940185546875</LatitudeDegrees>
              <LongitudeDegrees>-1.05904676020145416259765625</LongitudeDegrees>
            </Position>
            <AltitudeMeters>5.80000019073486328125</AltitudeMeters>
            <DistanceMeters>NAN</DistanceMeters>
          </Trackpoint>
          <Trackpoint>
            <Time>2022-07-04T15:08:15.000Z</Time>
            <Position>
              <LatitudeDegrees>44.62535130791366100311279296875</LatitudeDegrees>
              <LongitudeDegrees>-1.05943626724183559417724609375</LongitudeDegrees>
            </Position>
            <AltitudeMeters>6</AltitudeMeters>
            <DistanceMeters>NAN</DistanceMeters>
          </Trackpoint>
          <Trackpoint>
            <Time>2022-07-04T15:08:23.000Z</Time>
            <Position>
              <LatitudeDegrees>44.62535281665623188018798828125</LatitudeDegrees>
              <LongitudeDegrees>-1.05990313924849033355712890625</LongitudeDegrees>
            </Position>
            <AltitudeMeters>5.599999904632568359375</AltitudeMeters>
            <DistanceMeters>NAN</DistanceMeters>
          </Trackpoint>
          <Trackpoint>
            <Time>2022-07-04T15:08:32.000Z</Time>
            <Position>
              <LatitudeDegrees>44.62533303536474704742431640625</LatitudeDegrees>
              <LongitudeDegrees>-1.06043471954762935638427734375</LongitudeDegrees>
            </Position>
            <AltitudeMeters>5</AltitudeMeters>
            <DistanceMeters>NAN</DistanceMeters>
          </Trackpoint>
          <Trackpoint>
            <Time>2022-07-04T15:08:38.000Z</Time>
            <Position>
              <LatitudeDegrees>44.6253287605941295623779296875</LatitudeDegrees>
              <LongitudeDegrees>-1.0607927106320858001708984375</LongitudeDegrees>
            </Position>
            <AltitudeMeters>4.80000019073486328125</AltitudeMeters>
            <DistanceMeters>NAN</DistanceMeters>
          </Trackpoint>
          <Trackpoint>
            <Time>2022-07-04T15:08:40.000Z</Time>
            <Position>
              <LatitudeDegrees>44.62533035315573215484619140625</LatitudeDegrees>
              <LongitudeDegrees>-1.06090578250586986541748046875</LongitudeDegrees>
            </Position>
            <AltitudeMeters>4.80000019073486328125</AltitudeMeters>
            <DistanceMeters>NAN</DistanceMeters>
          </Trackpoint>
          <Trackpoint>
            <Time>2022-07-04T15:08:45.000Z</Time>
            <Position>
              <LatitudeDegrees>44.6253163553774356842041015625</LatitudeDegrees>
              <LongitudeDegrees>-1.06118406169116497039794921875</LongitudeDegrees>
            </Position>
            <AltitudeMeters>5</AltitudeMeters>
            <DistanceMeters>NAN</DistanceMeters>
          </Trackpoint>
          <Trackpoint>
            <Time>2022-07-04T15:08:48.000Z</Time>
            <Position>
              <LatitudeDegrees>44.62531409226357936859130859375</LatitudeDegrees>
              <LongitudeDegrees>-1.06133091263473033905029296875</LongitudeDegrees>
            </Position>
            <AltitudeMeters>5.19999980926513671875</AltitudeMeters>
            <DistanceMeters>NAN</DistanceMeters>
          </Trackpoint>
          <Trackpoint>
            <Time>2022-07-04T15:08:56.000Z</Time>
            <Position>
              <LatitudeDegrees>44.6253210492432117462158203125</LatitudeDegrees>
              <LongitudeDegrees>-1.06171044521033763885498046875</LongitudeDegrees>
            </Position>
            <AltitudeMeters>4.599999904632568359375</AltitudeMeters>
            <DistanceMeters>NAN</DistanceMeters>
          </Trackpoint>
          <Trackpoint>
            <Time>2022-07-04T15:08:58.000Z</Time>
            <Position>
              <LatitudeDegrees>44.625330269336700439453125</LatitudeDegrees>
              <LongitudeDegrees>-1.061830222606658935546875</LongitudeDegrees>
            </Position>
            <AltitudeMeters>4.599999904632568359375</AltitudeMeters>
            <DistanceMeters>NAN</DistanceMeters>
          </Trackpoint>
          <Trackpoint>
            <Time>2022-07-04T15:09:02.000Z</Time>
            <Position>
              <LatitudeDegrees>44.6253824047744274139404296875</LatitudeDegrees>
              <LongitudeDegrees>-1.06202560476958751678466796875</LongitudeDegrees>
            </Position>
            <AltitudeMeters>4.400000095367431640625</AltitudeMeters>
            <DistanceMeters>NAN</DistanceMeters>
          </Trackpoint>
          <Trackpoint>
            <Time>2022-07-04T15:09:08.000Z</Time>
            <Position>
              <LatitudeDegrees>44.6254132501780986785888671875</LatitudeDegrees>
              <LongitudeDegrees>-1.062341518700122833251953125</LongitudeDegrees>
            </Position>
            <AltitudeMeters>4.599999904632568359375</AltitudeMeters>
            <DistanceMeters>NAN</DistanceMeters>
          </Trackpoint>
          <Trackpoint>
            <Time>2022-07-04T15:09:12.000Z</Time>
            <Position>
              <LatitudeDegrees>44.6254940517246723175048828125</LatitudeDegrees>
              <LongitudeDegrees>-1.06252231635153293609619140625</LongitudeDegrees>
            </Position>
            <AltitudeMeters>4.19999980926513671875</AltitudeMeters>
            <DistanceMeters>NAN</DistanceMeters>
          </Trackpoint>
          <Trackpoint>
            <Time>2022-07-04T15:09:16.000Z</Time>
            <Position>
              <LatitudeDegrees>44.6255430020391941070556640625</LatitudeDegrees>
              <LongitudeDegrees>-1.06271292082965373992919921875</LongitudeDegrees>
            </Position>
            <AltitudeMeters>4</AltitudeMeters>
            <DistanceMeters>NAN</DistanceMeters>
          </Trackpoint>
          <Trackpoint>
            <Time>2022-07-04T15:09:20.000Z</Time>
            <Position>
              <LatitudeDegrees>44.625485502183437347412109375</LatitudeDegrees>
              <LongitudeDegrees>-1.0628855042159557342529296875</LongitudeDegrees>
            </Position>
            <AltitudeMeters>4</AltitudeMeters>
            <DistanceMeters>NAN</DistanceMeters>
          </Trackpoint>
          <Trackpoint>
            <Time>2022-07-04T15:09:28.000Z</Time>
            <Position>
              <LatitudeDegrees>44.625262208282947540283203125</LatitudeDegrees>
              <LongitudeDegrees>-1.063219271600246429443359375</LongitudeDegrees>
            </Position>
            <AltitudeMeters>4.19999980926513671875</AltitudeMeters>
            <DistanceMeters>NAN</DistanceMeters>
          </Trackpoint>
          <Trackpoint>
            <Time>2022-07-04T15:09:36.000Z</Time>
            <Position>
              <LatitudeDegrees>44.62506833486258983612060546875</LatitudeDegrees>
              <LongitudeDegrees>-1.06355731375515460968017578125</LongitudeDegrees>
            </Position>
            <AltitudeMeters>4.19999980926513671875</AltitudeMeters>
            <DistanceMeters>NAN</DistanceMeters>
          </Trackpoint>
          <Trackpoint>
            <Time>2022-07-04T15:09:37.000Z</Time>
            <Position>
              <LatitudeDegrees>44.62504754774272441864013671875</LatitudeDegrees>
              <LongitudeDegrees>-1.06360140256583690643310546875</LongitudeDegrees>
            </Position>
            <AltitudeMeters>4.19999980926513671875</AltitudeMeters>
            <DistanceMeters>NAN</DistanceMeters>
          </Trackpoint>
          <Trackpoint>
            <Time>2022-07-04T15:09:38.000Z</Time>
            <Position>
              <LatitudeDegrees>44.62503044866025447845458984375</LatitudeDegrees>
              <LongitudeDegrees>-1.063644401729106903076171875</LongitudeDegrees>
            </Position>
            <AltitudeMeters>4.19999980926513671875</AltitudeMeters>
            <DistanceMeters>NAN</DistanceMeters>
          </Trackpoint>
          <Trackpoint>
            <Time>2022-07-04T15:09:41.000Z</Time>
            <Position>
              <LatitudeDegrees>44.62496842257678508758544921875</LatitudeDegrees>
              <LongitudeDegrees>-1.06378781609237194061279296875</LongitudeDegrees>
            </Position>
            <AltitudeMeters>4.19999980926513671875</AltitudeMeters>
            <DistanceMeters>NAN</DistanceMeters>
          </Trackpoint>
          <Trackpoint>
            <Time>2022-07-04T15:09:47.000Z</Time>
            <Position>
              <LatitudeDegrees>44.624859876930713653564453125</LatitudeDegrees>
              <LongitudeDegrees>-1.06408663094043731689453125</LongitudeDegrees>
            </Position>
            <AltitudeMeters>3.7999999523162841796875</AltitudeMeters>
            <DistanceMeters>NAN</DistanceMeters>
          </Trackpoint>
          <Trackpoint>
            <Time>2022-07-04T15:09:51.000Z</Time>
            <Position>
              <LatitudeDegrees>44.62481553666293621063232421875</LatitudeDegrees>
              <LongitudeDegrees>-1.06433029286563396453857421875</LongitudeDegrees>
            </Position>
            <AltitudeMeters>3.7999999523162841796875</AltitudeMeters>
            <DistanceMeters>NAN</DistanceMeters>
          </Trackpoint>
          <Trackpoint>
            <Time>2022-07-04T15:09:54.000Z</Time>
            <Position>
              <LatitudeDegrees>44.62478217668831348419189453125</LatitudeDegrees>
              <LongitudeDegrees>-1.0645260103046894073486328125</LongitudeDegrees>
            </Position>
            <AltitudeMeters>4</AltitudeMeters>
            <DistanceMeters>NAN</DistanceMeters>
          </Trackpoint>
          <Trackpoint>
            <Time>2022-07-04T15:10:01.000Z</Time>
            <Position>
              <LatitudeDegrees>44.6247071586549282073974609375</LatitudeDegrees>
              <LongitudeDegrees>-1.06496932916343212127685546875</LongitudeDegrees>
            </Position>
            <AltitudeMeters>3.599999904632568359375</AltitudeMeters>
            <DistanceMeters>NAN</DistanceMeters>
          </Trackpoint>
          <Trackpoint>
            <Time>2022-07-04T15:10:03.000Z</Time>
            <Position>
              <LatitudeDegrees>44.6246867068111896514892578125</LatitudeDegrees>
              <LongitudeDegrees>-1.06509975157678127288818359375</LongitudeDegrees>
            </Position>
            <AltitudeMeters>3.599999904632568359375</AltitudeMeters>
            <DistanceMeters>NAN</DistanceMeters>
          </Trackpoint>
          <Trackpoint>
            <Time>2022-07-04T15:10:05.000Z</Time>
            <Position>
              <LatitudeDegrees>44.62466767989099025726318359375</LatitudeDegrees>
              <LongitudeDegrees>-1.065230928361415863037109375</LongitudeDegrees>
            </Position>
            <AltitudeMeters>3.400000095367431640625</AltitudeMeters>
            <DistanceMeters>NAN</DistanceMeters>
          </Trackpoint>
          <Trackpoint>
            <Time>2022-07-04T15:10:08.000Z</Time>
            <Position>
              <LatitudeDegrees>44.62462945841252803802490234375</LatitudeDegrees>
              <LongitudeDegrees>-1.0654138214886188507080078125</LongitudeDegrees>
            </Position>
            <AltitudeMeters>3.599999904632568359375</AltitudeMeters>
            <DistanceMeters>NAN</DistanceMeters>
          </Trackpoint>
          <Trackpoint>
            <Time>2022-07-04T15:10:10.000Z</Time>
            <Position>
              <LatitudeDegrees>44.6246012113988399505615234375</LatitudeDegrees>
              <LongitudeDegrees>-1.065535359084606170654296875</LongitudeDegrees>
            </Position>
            <AltitudeMeters>3.400000095367431640625</AltitudeMeters>
            <DistanceMeters>NAN</DistanceMeters>
          </Trackpoint>
          <Trackpoint>
            <Time>2022-07-04T15:10:12.000Z</Time>
            <Position>
              <LatitudeDegrees>44.6245810948312282562255859375</LatitudeDegrees>
              <LongitudeDegrees>-1.06564767658710479736328125</LongitudeDegrees>
            </Position>
            <AltitudeMeters>3.400000095367431640625</AltitudeMeters>
            <DistanceMeters>NAN</DistanceMeters>
          </Trackpoint>
          <Trackpoint>
            <Time>2022-07-04T15:10:16.000Z</Time>
            <Position>
              <LatitudeDegrees>44.62452284060418605804443359375</LatitudeDegrees>
              <LongitudeDegrees>-1.0658848844468593597412109375</LongitudeDegrees>
            </Position>
            <AltitudeMeters>3.2000000476837158203125</AltitudeMeters>
            <DistanceMeters>NAN</DistanceMeters>
          </Trackpoint>
          <Trackpoint>
            <Time>2022-07-04T15:10:21.000Z</Time>
            <Position>
              <LatitudeDegrees>44.6244513429701328277587890625</LatitudeDegrees>
              <LongitudeDegrees>-1.0661588050425052642822265625</LongitudeDegrees>
            </Position>
            <AltitudeMeters>3.400000095367431640625</AltitudeMeters>
            <DistanceMeters>NAN</DistanceMeters>
          </Trackpoint>
          <Trackpoint>
            <Time>2022-07-04T15:10:24.000Z</Time>
            <Position>
              <LatitudeDegrees>44.62439845316112041473388671875</LatitudeDegrees>
              <LongitudeDegrees>-1.06632719747722148895263671875</LongitudeDegrees>
            </Position>
            <AltitudeMeters>3.400000095367431640625</AltitudeMeters>
            <DistanceMeters>NAN</DistanceMeters>
          </Trackpoint>
          <Trackpoint>
            <Time>2022-07-04T15:10:29.000Z</Time>
            <Position>
              <LatitudeDegrees>44.62431706488132476806640625</LatitudeDegrees>
              <LongitudeDegrees>-1.066588461399078369140625</LongitudeDegrees>
            </Position>
            <AltitudeMeters>3</AltitudeMeters>
            <DistanceMeters>NAN</DistanceMeters>
          </Trackpoint>
          <Trackpoint>
            <Time>2022-07-04T15:10:36.000Z</Time>
            <Position>
              <LatitudeDegrees>44.62420600466430187225341796875</LatitudeDegrees>
              <LongitudeDegrees>-1.0669490508735179901123046875</LongitudeDegrees>
            </Position>
            <AltitudeMeters>3</AltitudeMeters>
            <DistanceMeters>NAN</DistanceMeters>
          </Trackpoint>
          <Trackpoint>
            <Time>2022-07-04T15:10:41.000Z</Time>
            <Position>
              <LatitudeDegrees>44.624123275279998779296875</LatitudeDegrees>
              <LongitudeDegrees>-1.0671374760568141937255859375</LongitudeDegrees>
            </Position>
            <AltitudeMeters>2.7999999523162841796875</AltitudeMeters>
            <DistanceMeters>NAN</DistanceMeters>
          </Trackpoint>
          <Trackpoint>
            <Time>2022-07-04T15:10:46.000Z</Time>
            <Position>
              <LatitudeDegrees>44.6240607462823390960693359375</LatitudeDegrees>
              <LongitudeDegrees>-1.0672169364988803863525390625</LongitudeDegrees>
            </Position>
            <AltitudeMeters>2.7999999523162841796875</AltitudeMeters>
            <DistanceMeters>NAN</DistanceMeters>
          </Trackpoint>
          <Trackpoint>
            <Time>2022-07-04T15:10:50.000Z</Time>
            <Position>
              <LatitudeDegrees>44.62394180707633495330810546875</LatitudeDegrees>
              <LongitudeDegrees>-1.0672856681048870086669921875</LongitudeDegrees>
            </Position>
            <AltitudeMeters>3</AltitudeMeters>
            <DistanceMeters>NAN</DistanceMeters>
          </Trackpoint>
          <Trackpoint>
            <Time>2022-07-04T15:10:51.000Z</Time>
            <Position>
              <LatitudeDegrees>44.62390710599720478057861328125</LatitudeDegrees>
              <LongitudeDegrees>-1.0673171840608119964599609375</LongitudeDegrees>
            </Position>
            <AltitudeMeters>3</AltitudeMeters>
            <DistanceMeters>NAN</DistanceMeters>
          </Trackpoint>
          <Trackpoint>
            <Time>2022-07-04T15:10:55.000Z</Time>
            <Position>
              <LatitudeDegrees>44.6238277293741703033447265625</LatitudeDegrees>
              <LongitudeDegrees>-1.06746529228985309600830078125</LongitudeDegrees>
            </Position>
            <AltitudeMeters>3</AltitudeMeters>
            <DistanceMeters>NAN</DistanceMeters>
          </Trackpoint>
          <Trackpoint>
            <Time>2022-07-04T15:10:58.000Z</Time>
            <Position>
              <LatitudeDegrees>44.62379260919988155364990234375</LatitudeDegrees>
              <LongitudeDegrees>-1.06749831698834896087646484375</LongitudeDegrees>
            </Position>
            <AltitudeMeters>2.400000095367431640625</AltitudeMeters>
            <DistanceMeters>NAN</DistanceMeters>
          </Trackpoint>
          <Trackpoint>
            <Time>2022-07-04T15:10:59.000Z</Time>
            <Position>
              <LatitudeDegrees>44.62379260919988155364990234375</LatitudeDegrees>
              <LongitudeDegrees>-1.06749831698834896087646484375</LongitudeDegrees>
            </Position>
            <AltitudeMeters>2.2000000476837158203125</AltitudeMeters>
            <DistanceMeters>NAN</DistanceMeters>
          </Trackpoint>
          <Trackpoint>
            <Time>2022-07-04T15:11:05.000Z</Time>
            <Position>
              <LatitudeDegrees>44.62375245988368988037109375</LatitudeDegrees>
              <LongitudeDegrees>-1.06753268279135227203369140625</LongitudeDegrees>
            </Position>
            <AltitudeMeters>2.400000095367431640625</AltitudeMeters>
            <DistanceMeters>NAN</DistanceMeters>
          </Trackpoint>
          <Trackpoint>
            <Time>2022-07-04T15:11:07.000Z</Time>
            <Position>
              <LatitudeDegrees>44.62374030612409114837646484375</LatitudeDegrees>
              <LongitudeDegrees>-1.06759973801672458648681640625</LongitudeDegrees>
            </Position>
            <AltitudeMeters>2.400000095367431640625</AltitudeMeters>
            <DistanceMeters>NAN</DistanceMeters>
          </Trackpoint>
          <Trackpoint>
            <Time>2022-07-04T15:11:12.000Z</Time>
            <Position>
              <LatitudeDegrees>44.6236932836472988128662109375</LatitudeDegrees>
              <LongitudeDegrees>-1.0677860677242279052734375</LongitudeDegrees>
            </Position>
            <AltitudeMeters>2.599999904632568359375</AltitudeMeters>
            <DistanceMeters>NAN</DistanceMeters>
          </Trackpoint>
          <Trackpoint>
            <Time>2022-07-04T15:11:13.000Z</Time>
            <Position>
              <LatitudeDegrees>44.62367928586900234222412109375</LatitudeDegrees>
              <LongitudeDegrees>-1.0678303241729736328125</LongitudeDegrees>
            </Position>
            <AltitudeMeters>2.599999904632568359375</AltitudeMeters>
            <DistanceMeters>NAN</DistanceMeters>
          </Trackpoint>
          <Trackpoint>
            <Time>2022-07-04T15:11:15.000Z</Time>
            <Position>
              <LatitudeDegrees>44.6236500330269336700439453125</LatitudeDegrees>
              <LongitudeDegrees>-1.06791950762271881103515625</LongitudeDegrees>
            </Position>
            <AltitudeMeters>2.7999999523162841796875</AltitudeMeters>
            <DistanceMeters>NAN</DistanceMeters>
          </Trackpoint>
          <Trackpoint>
            <Time>2022-07-04T15:11:17.000Z</Time>
            <Position>
              <LatitudeDegrees>44.62362513877451419830322265625</LatitudeDegrees>
              <LongitudeDegrees>-1.0680215992033481597900390625</LongitudeDegrees>
            </Position>
            <AltitudeMeters>3</AltitudeMeters>
            <DistanceMeters>NAN</DistanceMeters>
          </Trackpoint>
          <Trackpoint>
            <Time>2022-07-04T15:11:20.000Z</Time>
            <Position>
              <LatitudeDegrees>44.6235843189060688018798828125</LatitudeDegrees>
              <LongitudeDegrees>-1.06817289255559444427490234375</LongitudeDegrees>
            </Position>
            <AltitudeMeters>2.599999904632568359375</AltitudeMeters>
            <DistanceMeters>NAN</DistanceMeters>
          </Trackpoint>
          <Trackpoint>
            <Time>2022-07-04T15:11:27.000Z</Time>
            <Position>
              <LatitudeDegrees>44.6234847418963909149169921875</LatitudeDegrees>
              <LongitudeDegrees>-1.06854488141834735870361328125</LongitudeDegrees>
            </Position>
            <AltitudeMeters>2.599999904632568359375</AltitudeMeters>
            <DistanceMeters>NAN</DistanceMeters>
          </Trackpoint>
          <Trackpoint>
            <Time>2022-07-04T15:11:35.000Z</Time>
            <Position>
              <LatitudeDegrees>44.6233754418790340423583984375</LatitudeDegrees>
              <LongitudeDegrees>-1.06894436292350292205810546875</LongitudeDegrees>
            </Position>
            <AltitudeMeters>3</AltitudeMeters>
            <DistanceMeters>NAN</DistanceMeters>
          </Trackpoint>
          <Trackpoint>
            <Time>2022-07-04T15:11:41.000Z</Time>
            <Position>
              <LatitudeDegrees>44.623302184045314788818359375</LatitudeDegrees>
              <LongitudeDegrees>-1.06921744532883167266845703125</LongitudeDegrees>
            </Position>
            <AltitudeMeters>3</AltitudeMeters>
            <DistanceMeters>NAN</DistanceMeters>
          </Trackpoint>
          <Trackpoint>
            <Time>2022-07-04T15:11:49.000Z</Time>
            <Position>
              <LatitudeDegrees>44.62319062091410160064697265625</LatitudeDegrees>
              <LongitudeDegrees>-1.06961206533014774322509765625</LongitudeDegrees>
            </Position>
            <AltitudeMeters>3</AltitudeMeters>
            <DistanceMeters>NAN</DistanceMeters>
          </Trackpoint>
          <Trackpoint>
            <Time>2022-07-04T15:11:54.000Z</Time>
            <Position>
              <LatitudeDegrees>44.62314368225634098052978515625</LatitudeDegrees>
              <LongitudeDegrees>-1.0698835551738739013671875</LongitudeDegrees>
            </Position>
            <AltitudeMeters>3</AltitudeMeters>
            <DistanceMeters>NAN</DistanceMeters>
          </Trackpoint>
          <Trackpoint>
            <Time>2022-07-04T15:12:00.000Z</Time>
            <Position>
              <LatitudeDegrees>44.6230917982757091522216796875</LatitudeDegrees>
              <LongitudeDegrees>-1.07018991373479366302490234375</LongitudeDegrees>
            </Position>
            <AltitudeMeters>3</AltitudeMeters>
            <DistanceMeters>NAN</DistanceMeters>
          </Trackpoint>
          <Trackpoint>
            <Time>2022-07-04T15:12:03.000Z</Time>
            <Position>
              <LatitudeDegrees>44.6230327896773815155029296875</LatitudeDegrees>
              <LongitudeDegrees>-1.0703531093895435333251953125</LongitudeDegrees>
            </Position>
            <AltitudeMeters>3.400000095367431640625</AltitudeMeters>
            <DistanceMeters>NAN</DistanceMeters>
          </Trackpoint>
          <Trackpoint>
            <Time>2022-07-04T15:12:10.000Z</Time>
            <Position>
              <LatitudeDegrees>44.6229551732540130615234375</LatitudeDegrees>
              <LongitudeDegrees>-1.07069148682057857513427734375</LongitudeDegrees>
            </Position>
            <AltitudeMeters>3.2000000476837158203125</AltitudeMeters>
            <DistanceMeters>NAN</DistanceMeters>
          </Trackpoint>
          <Trackpoint>
            <Time>2022-07-04T15:12:16.000Z</Time>
            <Position>
              <LatitudeDegrees>44.622903205454349517822265625</LatitudeDegrees>
              <LongitudeDegrees>-1.0709468834102153778076171875</LongitudeDegrees>
            </Position>
            <AltitudeMeters>2.7999999523162841796875</AltitudeMeters>
            <DistanceMeters>NAN</DistanceMeters>
          </Trackpoint>
          <Trackpoint>
            <Time>2022-07-04T15:12:21.000Z</Time>
            <Position>
              <LatitudeDegrees>44.6228413470089435577392578125</LatitudeDegrees>
              <LongitudeDegrees>-1.071204207837581634521484375</LongitudeDegrees>
            </Position>
            <AltitudeMeters>3.400000095367431640625</AltitudeMeters>
            <DistanceMeters>NAN</DistanceMeters>
          </Trackpoint>
          <Trackpoint>
            <Time>2022-07-04T15:12:27.000Z</Time>
            <Position>
              <LatitudeDegrees>44.62276381440460681915283203125</LatitudeDegrees>
              <LongitudeDegrees>-1.07152883894741535186767578125</LongitudeDegrees>
            </Position>
            <AltitudeMeters>3.599999904632568359375</AltitudeMeters>
            <DistanceMeters>NAN</DistanceMeters>
          </Trackpoint>
          <Trackpoint>
            <Time>2022-07-04T15:12:28.000Z</Time>
            <Position>
              <LatitudeDegrees>44.6227481402456760406494140625</LatitudeDegrees>
              <LongitudeDegrees>-1.0715845786035060882568359375</LongitudeDegrees>
            </Position>
            <AltitudeMeters>3.599999904632568359375</AltitudeMeters>
            <DistanceMeters>NAN</DistanceMeters>
          </Trackpoint>
          <Trackpoint>
            <Time>2022-07-04T15:12:30.000Z</Time>
            <Position>
              <LatitudeDegrees>44.62272441945970058441162109375</LatitudeDegrees>
              <LongitudeDegrees>-1.07168725691735744476318359375</LongitudeDegrees>
            </Position>
            <AltitudeMeters>3.599999904632568359375</AltitudeMeters>
            <DistanceMeters>NAN</DistanceMeters>
          </Trackpoint>
          <Trackpoint>
            <Time>2022-07-04T15:12:33.000Z</Time>
            <Position>
              <LatitudeDegrees>44.6226841025054454803466796875</LatitudeDegrees>
              <LongitudeDegrees>-1.07184416614472866058349609375</LongitudeDegrees>
            </Position>
            <AltitudeMeters>3.599999904632568359375</AltitudeMeters>
            <DistanceMeters>NAN</DistanceMeters>
          </Trackpoint>
          <Trackpoint>
            <Time>2022-07-04T15:12:40.000Z</Time>
            <Position>
              <LatitudeDegrees>44.6226029656827449798583984375</LatitudeDegrees>
              <LongitudeDegrees>-1.0721830464899539947509765625</LongitudeDegrees>
            </Position>
            <AltitudeMeters>3.7999999523162841796875</AltitudeMeters>
            <DistanceMeters>NAN</DistanceMeters>
          </Trackpoint>
          <Trackpoint>
            <Time>2022-07-04T15:12:46.000Z</Time>
            <Position>
              <LatitudeDegrees>44.62252208031713962554931640625</LatitudeDegrees>
              <LongitudeDegrees>-1.0724477469921112060546875</LongitudeDegrees>
            </Position>
            <AltitudeMeters>3.7999999523162841796875</AltitudeMeters>
            <DistanceMeters>NAN</DistanceMeters>
          </Trackpoint>
          <Trackpoint>
            <Time>2022-07-04T15:12:52.000Z</Time>
            <Position>
              <LatitudeDegrees>44.6223696134984493255615234375</LatitudeDegrees>
              <LongitudeDegrees>-1.0727132856845855712890625</LongitudeDegrees>
            </Position>
            <AltitudeMeters>3.599999904632568359375</AltitudeMeters>
            <DistanceMeters>NAN</DistanceMeters>
          </Trackpoint>
          <Trackpoint>
            <Time>2022-07-04T15:12:59.000Z</Time>
            <Position>
              <LatitudeDegrees>44.62210021913051605224609375</LatitudeDegrees>
              <LongitudeDegrees>-1.0729360766708850860595703125</LongitudeDegrees>
            </Position>
            <AltitudeMeters>3.599999904632568359375</AltitudeMeters>
            <DistanceMeters>NAN</DistanceMeters>
          </Trackpoint>
          <Trackpoint>
            <Time>2022-07-04T15:13:05.000Z</Time>
            <Position>
              <LatitudeDegrees>44.62188388220965862274169921875</LatitudeDegrees>
              <LongitudeDegrees>-1.0729981027543544769287109375</LongitudeDegrees>
            </Position>
            <AltitudeMeters>3.7999999523162841796875</AltitudeMeters>
            <DistanceMeters>NAN</DistanceMeters>
          </Trackpoint>
          <Trackpoint>
            <Time>2022-07-04T15:13:14.000Z</Time>
            <Position>
              <LatitudeDegrees>44.6215046010911464691162109375</LatitudeDegrees>
              <LongitudeDegrees>-1.0730017907917499542236328125</LongitudeDegrees>
            </Position>
            <AltitudeMeters>3.7999999523162841796875</AltitudeMeters>
            <DistanceMeters>NAN</DistanceMeters>
          </Trackpoint>
          <Trackpoint>
            <Time>2022-07-04T15:13:22.000Z</Time>
            <Position>
              <LatitudeDegrees>44.621192626655101776123046875</LatitudeDegrees>
              <LongitudeDegrees>-1.07299424707889556884765625</LongitudeDegrees>
            </Position>
            <AltitudeMeters>3.7999999523162841796875</AltitudeMeters>
            <DistanceMeters>NAN</DistanceMeters>
          </Trackpoint>
          <Trackpoint>
            <Time>2022-07-04T15:13:29.000Z</Time>
            <Position>
              <LatitudeDegrees>44.620933793485164642333984375</LatitudeDegrees>
              <LongitudeDegrees>-1.07299282215535640716552734375</LongitudeDegrees>
            </Position>
            <AltitudeMeters>3.7999999523162841796875</AltitudeMeters>
            <DistanceMeters>NAN</DistanceMeters>
          </Trackpoint>
          <Trackpoint>
            <Time>2022-07-04T15:13:35.000Z</Time>
            <Position>
              <LatitudeDegrees>44.62071125395596027374267578125</LatitudeDegrees>
              <LongitudeDegrees>-1.07303774915635585784912109375</LongitudeDegrees>
            </Position>
            <AltitudeMeters>4</AltitudeMeters>
            <DistanceMeters>NAN</DistanceMeters>
          </Trackpoint>
          <Trackpoint>
            <Time>2022-07-04T15:13:42.000Z</Time>
            <Position>
              <LatitudeDegrees>44.62047077715396881103515625</LatitudeDegrees>
              <LongitudeDegrees>-1.0730624757707118988037109375</LongitudeDegrees>
            </Position>
            <AltitudeMeters>3.7999999523162841796875</AltitudeMeters>
            <DistanceMeters>NAN</DistanceMeters>
          </Trackpoint>
          <Trackpoint>
            <Time>2022-07-04T15:13:43.000Z</Time>
            <Position>
              <LatitudeDegrees>44.620440267026424407958984375</LatitudeDegrees>
              <LongitudeDegrees>-1.07306675054132938385009765625</LongitudeDegrees>
            </Position>
            <AltitudeMeters>3.7999999523162841796875</AltitudeMeters>
            <DistanceMeters>NAN</DistanceMeters>
          </Trackpoint>
          <Trackpoint>
            <Time>2022-07-04T15:13:47.000Z</Time>
            <Position>
              <LatitudeDegrees>44.620384611189365386962890625</LatitudeDegrees>
              <LongitudeDegrees>-1.07311427593231201171875</LongitudeDegrees>
            </Position>
            <AltitudeMeters>3.599999904632568359375</AltitudeMeters>
            <DistanceMeters>NAN</DistanceMeters>
          </Trackpoint>
          <Trackpoint>
            <Time>2022-07-04T15:13:48.000Z</Time>
            <Position>
              <LatitudeDegrees>44.620384611189365386962890625</LatitudeDegrees>
              <LongitudeDegrees>-1.07311427593231201171875</LongitudeDegrees>
            </Position>
            <AltitudeMeters>3.400000095367431640625</AltitudeMeters>
            <DistanceMeters>NAN</DistanceMeters>
          </Trackpoint>
          <Trackpoint>
            <Time>2022-07-04T15:13:52.000Z</Time>
            <Position>
              <LatitudeDegrees>44.62035887874662876129150390625</LatitudeDegrees>
              <LongitudeDegrees>-1.07318527065217494964599609375</LongitudeDegrees>
            </Position>
            <AltitudeMeters>3.400000095367431640625</AltitudeMeters>
            <DistanceMeters>NAN</DistanceMeters>
          </Trackpoint>
          <Trackpoint>
            <Time>2022-07-04T15:13:54.000Z</Time>
            <Position>
              <LatitudeDegrees>44.62034513242542743682861328125</LatitudeDegrees>
              <LongitudeDegrees>-1.073263473808765411376953125</LongitudeDegrees>
            </Position>
            <AltitudeMeters>3.400000095367431640625</AltitudeMeters>
            <DistanceMeters>NAN</DistanceMeters>
          </Trackpoint>
          <Trackpoint>
            <Time>2022-07-04T15:14:01.000Z</Time>
            <Position>
              <LatitudeDegrees>44.62031546048820018768310546875</LatitudeDegrees>
              <LongitudeDegrees>-1.07358726672828197479248046875</LongitudeDegrees>
            </Position>
            <AltitudeMeters>3.599999904632568359375</AltitudeMeters>
            <DistanceMeters>NAN</DistanceMeters>
          </Trackpoint>
          <Trackpoint>
            <Time>2022-07-04T15:14:08.000Z</Time>
            <Position>
              <LatitudeDegrees>44.62030070833861827850341796875</LatitudeDegrees>
              <LongitudeDegrees>-1.0739097185432910919189453125</LongitudeDegrees>
            </Position>
            <AltitudeMeters>3.599999904632568359375</AltitudeMeters>
            <DistanceMeters>NAN</DistanceMeters>
          </Trackpoint>
          <Trackpoint>
            <Time>2022-07-04T15:14:09.000Z</Time>
            <Position>
              <LatitudeDegrees>44.6203026361763477325439453125</LatitudeDegrees>
              <LongitudeDegrees>-1.0739576630294322967529296875</LongitudeDegrees>
            </Position>
            <AltitudeMeters>3.599999904632568359375</AltitudeMeters>
            <DistanceMeters>NAN</DistanceMeters>
          </Trackpoint>
          <Trackpoint>
            <Time>2022-07-04T15:14:11.000Z</Time>
            <Position>
              <LatitudeDegrees>44.6202997863292694091796875</LatitudeDegrees>
              <LongitudeDegrees>-1.074077188968658447265625</LongitudeDegrees>
            </Position>
            <AltitudeMeters>3.7999999523162841796875</AltitudeMeters>
            <DistanceMeters>NAN</DistanceMeters>
          </Trackpoint>
          <Trackpoint>
            <Time>2022-07-04T15:14:15.000Z</Time>
            <Position>
              <LatitudeDegrees>44.620227701961994171142578125</LatitudeDegrees>
              <LongitudeDegrees>-1.07426821254193782806396484375</LongitudeDegrees>
            </Position>
            <AltitudeMeters>3.599999904632568359375</AltitudeMeters>
            <DistanceMeters>NAN</DistanceMeters>
          </Trackpoint>
          <Trackpoint>
            <Time>2022-07-04T15:14:21.000Z</Time>
            <Position>
              <LatitudeDegrees>44.6201225928962230682373046875</LatitudeDegrees>
              <LongitudeDegrees>-1.0745588131248950958251953125</LongitudeDegrees>
            </Position>
            <AltitudeMeters>3.7999999523162841796875</AltitudeMeters>
            <DistanceMeters>NAN</DistanceMeters>
          </Trackpoint>
          <Trackpoint>
            <Time>2022-07-04T15:14:29.000Z</Time>
            <Position>
              <LatitudeDegrees>44.6201202459633350372314453125</LatitudeDegrees>
              <LongitudeDegrees>-1.0750452987849712371826171875</LongitudeDegrees>
            </Position>
            <AltitudeMeters>3.7999999523162841796875</AltitudeMeters>
            <DistanceMeters>NAN</DistanceMeters>
          </Trackpoint>
          <Trackpoint>
            <Time>2022-07-04T15:14:34.000Z</Time>
            <Position>
              <LatitudeDegrees>44.62010624818503856658935546875</LatitudeDegrees>
              <LongitudeDegrees>-1.07531427405774593353271484375</LongitudeDegrees>
            </Position>
            <AltitudeMeters>4</AltitudeMeters>
            <DistanceMeters>NAN</DistanceMeters>
          </Trackpoint>
          <Trackpoint>
            <Time>2022-07-04T15:14:40.000Z</Time>
            <Position>
              <LatitudeDegrees>44.62006316520273685455322265625</LatitudeDegrees>
              <LongitudeDegrees>-1.075645945966243743896484375</LongitudeDegrees>
            </Position>
            <AltitudeMeters>4</AltitudeMeters>
            <DistanceMeters>NAN</DistanceMeters>
          </Trackpoint>
          <Trackpoint>
            <Time>2022-07-04T15:14:46.000Z</Time>
            <Position>
              <LatitudeDegrees>44.62002444081008434295654296875</LatitudeDegrees>
              <LongitudeDegrees>-1.0759300924837589263916015625</LongitudeDegrees>
            </Position>
            <AltitudeMeters>4</AltitudeMeters>
            <DistanceMeters>NAN</DistanceMeters>
          </Trackpoint>
          <Trackpoint>
            <Time>2022-07-04T15:14:49.000Z</Time>
            <Position>
              <LatitudeDegrees>44.6199834533035755157470703125</LatitudeDegrees>
              <LongitudeDegrees>-1.07607434503734111785888671875</LongitudeDegrees>
            </Position>
            <AltitudeMeters>3.7999999523162841796875</AltitudeMeters>
            <DistanceMeters>NAN</DistanceMeters>
          </Trackpoint>
          <Trackpoint>
            <Time>2022-07-04T15:14:53.000Z</Time>
            <Position>
              <LatitudeDegrees>44.61995922960340976715087890625</LatitudeDegrees>
              <LongitudeDegrees>-1.07632345519959926605224609375</LongitudeDegrees>
            </Position>
            <AltitudeMeters>3.599999904632568359375</AltitudeMeters>
            <DistanceMeters>NAN</DistanceMeters>
          </Trackpoint>
          <Trackpoint>
            <Time>2022-07-04T15:15:00.000Z</Time>
            <Position>
              <LatitudeDegrees>44.61992939002811908721923828125</LatitudeDegrees>
              <LongitudeDegrees>-1.076716482639312744140625</LongitudeDegrees>
            </Position>
            <AltitudeMeters>3.7999999523162841796875</AltitudeMeters>
            <DistanceMeters>NAN</DistanceMeters>
          </Trackpoint>
          <Trackpoint>
            <Time>2022-07-04T15:15:04.000Z</Time>
            <Position>
              <LatitudeDegrees>44.61990139447152614593505859375</LatitudeDegrees>
              <LongitudeDegrees>-1.07694354839622974395751953125</LongitudeDegrees>
            </Position>
            <AltitudeMeters>3.7999999523162841796875</AltitudeMeters>
            <DistanceMeters>NAN</DistanceMeters>
          </Trackpoint>
          <Trackpoint>
            <Time>2022-07-04T15:15:08.000Z</Time>
            <Position>
              <LatitudeDegrees>44.61990592069923877716064453125</LatitudeDegrees>
              <LongitudeDegrees>-1.07715778984129428863525390625</LongitudeDegrees>
            </Position>
            <AltitudeMeters>4</AltitudeMeters>
            <DistanceMeters>NAN</DistanceMeters>
          </Trackpoint>
          <Trackpoint>
            <Time>2022-07-04T15:15:16.000Z</Time>
            <Position>
              <LatitudeDegrees>44.61990977637469768524169921875</LatitudeDegrees>
              <LongitudeDegrees>-1.07752441428601741790771484375</LongitudeDegrees>
            </Position>
            <AltitudeMeters>3.7999999523162841796875</AltitudeMeters>
            <DistanceMeters>NAN</DistanceMeters>
          </Trackpoint>
          <Trackpoint>
            <Time>2022-07-04T15:15:22.000Z</Time>
            <Position>
              <LatitudeDegrees>44.61990927346050739288330078125</LatitudeDegrees>
              <LongitudeDegrees>-1.07784728519618511199951171875</LongitudeDegrees>
            </Position>
            <AltitudeMeters>3.7999999523162841796875</AltitudeMeters>
            <DistanceMeters>NAN</DistanceMeters>
          </Trackpoint>
          <Trackpoint>
            <Time>2022-07-04T15:15:23.000Z</Time>
            <Position>
              <LatitudeDegrees>44.6198909170925617218017578125</LatitudeDegrees>
              <LongitudeDegrees>-1.07790671288967132568359375</LongitudeDegrees>
            </Position>
            <AltitudeMeters>3.7999999523162841796875</AltitudeMeters>
            <DistanceMeters>NAN</DistanceMeters>
          </Trackpoint>
          <Trackpoint>
            <Time>2022-07-04T15:15:24.000Z</Time>
            <Position>
              <LatitudeDegrees>44.61988546885550022125244140625</LatitudeDegrees>
              <LongitudeDegrees>-1.07796245254576206207275390625</LongitudeDegrees>
            </Position>
            <AltitudeMeters>3.7999999523162841796875</AltitudeMeters>
            <DistanceMeters>NAN</DistanceMeters>
          </Trackpoint>
          <Trackpoint>
            <Time>2022-07-04T15:15:27.000Z</Time>
            <Position>
              <LatitudeDegrees>44.6198620833456516265869140625</LatitudeDegrees>
              <LongitudeDegrees>-1.0781419090926647186279296875</LongitudeDegrees>
            </Position>
            <AltitudeMeters>3.7999999523162841796875</AltitudeMeters>
            <DistanceMeters>NAN</DistanceMeters>
          </Trackpoint>
          <Trackpoint>
            <Time>2022-07-04T15:15:34.000Z</Time>
            <Position>
              <LatitudeDegrees>44.61986728012561798095703125</LatitudeDegrees>
              <LongitudeDegrees>-1.0784815438091754913330078125</LongitudeDegrees>
            </Position>
            <AltitudeMeters>4</AltitudeMeters>
            <DistanceMeters>NAN</DistanceMeters>
          </Trackpoint>
          <Trackpoint>
            <Time>2022-07-04T15:15:35.000Z</Time>
            <Position>
              <LatitudeDegrees>44.61987222544848918914794921875</LatitudeDegrees>
              <LongitudeDegrees>-1.0785241238772869110107421875</LongitudeDegrees>
            </Position>
            <AltitudeMeters>3.599999904632568359375</AltitudeMeters>
            <DistanceMeters>NAN</DistanceMeters>
          </Trackpoint>
          <Trackpoint>
            <Time>2022-07-04T15:15:36.000Z</Time>
            <Position>
              <LatitudeDegrees>44.61987339891493320465087890625</LatitudeDegrees>
              <LongitudeDegrees>-1.07856527902185916900634765625</LongitudeDegrees>
            </Position>
            <AltitudeMeters>3.2000000476837158203125</AltitudeMeters>
            <DistanceMeters>NAN</DistanceMeters>
          </Trackpoint>
          <Trackpoint>
            <Time>2022-07-04T15:15:38.000Z</Time>
            <Position>
              <LatitudeDegrees>44.6198520250618457794189453125</LatitudeDegrees>
              <LongitudeDegrees>-1.0786605812609195709228515625</LongitudeDegrees>
            </Position>
            <AltitudeMeters>3</AltitudeMeters>
            <DistanceMeters>NAN</DistanceMeters>
          </Trackpoint>
          <Trackpoint>
            <Time>2022-07-04T15:15:39.000Z</Time>
            <Position>
              <LatitudeDegrees>44.619848169386386871337890625</LatitudeDegrees>
              <LongitudeDegrees>-1.078713051974773406982421875</LongitudeDegrees>
            </Position>
            <AltitudeMeters>3</AltitudeMeters>
            <DistanceMeters>NAN</DistanceMeters>
          </Trackpoint>
          <Trackpoint>
            <Time>2022-07-04T15:15:44.000Z</Time>
            <Position>
              <LatitudeDegrees>44.619860909879207611083984375</LatitudeDegrees>
              <LongitudeDegrees>-1.07894732616841793060302734375</LongitudeDegrees>
            </Position>
            <AltitudeMeters>4</AltitudeMeters>
            <DistanceMeters>NAN</DistanceMeters>
          </Trackpoint>
          <Trackpoint>
            <Time>2022-07-04T15:15:46.000Z</Time>
            <Position>
              <LatitudeDegrees>44.619863927364349365234375</LatitudeDegrees>
              <LongitudeDegrees>-1.07904505915939807891845703125</LongitudeDegrees>
            </Position>
            <AltitudeMeters>4.19999980926513671875</AltitudeMeters>
            <DistanceMeters>NAN</DistanceMeters>
          </Trackpoint>
          <Trackpoint>
            <Time>2022-07-04T15:15:48.000Z</Time>
            <Position>
              <LatitudeDegrees>44.6198345907032489776611328125</LatitudeDegrees>
              <LongitudeDegrees>-1.0791738890111446380615234375</LongitudeDegrees>
            </Position>
            <AltitudeMeters>4.19999980926513671875</AltitudeMeters>
            <DistanceMeters>NAN</DistanceMeters>
          </Trackpoint>
          <Trackpoint>
            <Time>2022-07-04T15:15:49.000Z</Time>
            <Position>
              <LatitudeDegrees>44.6198258735239505767822265625</LatitudeDegrees>
              <LongitudeDegrees>-1.07924136333167552947998046875</LongitudeDegrees>
            </Position>
            <AltitudeMeters>4.19999980926513671875</AltitudeMeters>
            <DistanceMeters>NAN</DistanceMeters>
          </Trackpoint>
          <Trackpoint>
            <Time>2022-07-04T15:15:53.000Z</Time>
            <Position>
              <LatitudeDegrees>44.61981740780174732208251953125</LatitudeDegrees>
              <LongitudeDegrees>-1.07943599112331867218017578125</LongitudeDegrees>
            </Position>
            <AltitudeMeters>4</AltitudeMeters>
            <DistanceMeters>NAN</DistanceMeters>
          </Trackpoint>
          <Trackpoint>
            <Time>2022-07-04T15:15:54.000Z</Time>
            <Position>
              <LatitudeDegrees>44.6198114566504955291748046875</LatitudeDegrees>
              <LongitudeDegrees>-1.07948812656104564666748046875</LongitudeDegrees>
            </Position>
            <AltitudeMeters>4</AltitudeMeters>
            <DistanceMeters>NAN</DistanceMeters>
          </Trackpoint>
          <Trackpoint>
            <Time>2022-07-04T15:15:56.000Z</Time>
            <Position>
              <LatitudeDegrees>44.61979879997670650482177734375</LatitudeDegrees>
              <LongitudeDegrees>-1.07958602719008922576904296875</LongitudeDegrees>
            </Position>
            <AltitudeMeters>4.19999980926513671875</AltitudeMeters>
            <DistanceMeters>NAN</DistanceMeters>
          </Trackpoint>
          <Trackpoint>
            <Time>2022-07-04T15:16:00.000Z</Time>
            <Position>
              <LatitudeDegrees>44.61976041086018085479736328125</LatitudeDegrees>
              <LongitudeDegrees>-1.079865060746669769287109375</LongitudeDegrees>
            </Position>
            <AltitudeMeters>4.19999980926513671875</AltitudeMeters>
            <DistanceMeters>NAN</DistanceMeters>
          </Trackpoint>
          <Trackpoint>
            <Time>2022-07-04T15:16:03.000Z</Time>
            <Position>
              <LatitudeDegrees>44.6197370253503322601318359375</LatitudeDegrees>
              <LongitudeDegrees>-1.08000411652028560638427734375</LongitudeDegrees>
            </Position>
            <AltitudeMeters>4.19999980926513671875</AltitudeMeters>
            <DistanceMeters>NAN</DistanceMeters>
          </Trackpoint>
          <Trackpoint>
            <Time>2022-07-04T15:16:05.000Z</Time>
            <Position>
              <LatitudeDegrees>44.6197252906858921051025390625</LatitudeDegrees>
              <LongitudeDegrees>-1.08010754920542240142822265625</LongitudeDegrees>
            </Position>
            <AltitudeMeters>4.19999980926513671875</AltitudeMeters>
            <DistanceMeters>NAN</DistanceMeters>
          </Trackpoint>
          <Trackpoint>
            <Time>2022-07-04T15:16:07.000Z</Time>
            <Position>
              <LatitudeDegrees>44.6197222732007503509521484375</LatitudeDegrees>
              <LongitudeDegrees>-1.08020444400608539581298828125</LongitudeDegrees>
            </Position>
            <AltitudeMeters>4.19999980926513671875</AltitudeMeters>
            <DistanceMeters>NAN</DistanceMeters>
          </Trackpoint>
          <Trackpoint>
            <Time>2022-07-04T15:16:09.000Z</Time>
            <Position>
              <LatitudeDegrees>44.619704671204090118408203125</LatitudeDegrees>
              <LongitudeDegrees>-1.080319024622440338134765625</LongitudeDegrees>
            </Position>
            <AltitudeMeters>4.19999980926513671875</AltitudeMeters>
            <DistanceMeters>NAN</DistanceMeters>
          </Trackpoint>
          <Trackpoint>
            <Time>2022-07-04T15:16:12.000Z</Time>
            <Position>
              <LatitudeDegrees>44.61967281997203826904296875</LatitudeDegrees>
              <LongitudeDegrees>-1.08047895133495330810546875</LongitudeDegrees>
            </Position>
            <AltitudeMeters>4.19999980926513671875</AltitudeMeters>
            <DistanceMeters>NAN</DistanceMeters>
          </Trackpoint>
          <Trackpoint>
            <Time>2022-07-04T15:16:16.000Z</Time>
            <Position>
              <LatitudeDegrees>44.6196495182812213897705078125</LatitudeDegrees>
              <LongitudeDegrees>-1.08066938817501068115234375</LongitudeDegrees>
            </Position>
            <AltitudeMeters>4</AltitudeMeters>
            <DistanceMeters>NAN</DistanceMeters>
          </Trackpoint>
          <Trackpoint>
            <Time>2022-07-04T15:16:20.000Z</Time>
            <Position>
              <LatitudeDegrees>44.619619511067867279052734375</LatitudeDegrees>
              <LongitudeDegrees>-1.08089008368551731109619140625</LongitudeDegrees>
            </Position>
            <AltitudeMeters>3.7999999523162841796875</AltitudeMeters>
            <DistanceMeters>NAN</DistanceMeters>
          </Trackpoint>
          <Trackpoint>
            <Time>2022-07-04T15:16:23.000Z</Time>
            <Position>
              <LatitudeDegrees>44.61959679611027240753173828125</LatitudeDegrees>
              <LongitudeDegrees>-1.08108605258166790008544921875</LongitudeDegrees>
            </Position>
            <AltitudeMeters>3.599999904632568359375</AltitudeMeters>
            <DistanceMeters>NAN</DistanceMeters>
          </Trackpoint>
          <Trackpoint>
            <Time>2022-07-04T15:16:25.000Z</Time>
            <Position>
              <LatitudeDegrees>44.61959905922412872314453125</LatitudeDegrees>
              <LongitudeDegrees>-1.0812566243112087249755859375</LongitudeDegrees>
            </Position>
            <AltitudeMeters>3.599999904632568359375</AltitudeMeters>
            <DistanceMeters>NAN</DistanceMeters>
          </Trackpoint>
          <Trackpoint>
            <Time>2022-07-04T15:16:29.000Z</Time>
            <Position>
              <LatitudeDegrees>44.61960266344249248504638671875</LatitudeDegrees>
              <LongitudeDegrees>-1.08149223960936069488525390625</LongitudeDegrees>
            </Position>
            <AltitudeMeters>4</AltitudeMeters>
            <DistanceMeters>NAN</DistanceMeters>
          </Trackpoint>
          <Trackpoint>
            <Time>2022-07-04T15:16:34.000Z</Time>
            <Position>
              <LatitudeDegrees>44.61962814442813396453857421875</LatitudeDegrees>
              <LongitudeDegrees>-1.08176381327211856842041015625</LongitudeDegrees>
            </Position>
            <AltitudeMeters>3.7999999523162841796875</AltitudeMeters>
            <DistanceMeters>NAN</DistanceMeters>
          </Trackpoint>
          <Trackpoint>
            <Time>2022-07-04T15:16:39.000Z</Time>
            <Position>
              <LatitudeDegrees>44.6197155676782131195068359375</LatitudeDegrees>
              <LongitudeDegrees>-1.08200018294155597686767578125</LongitudeDegrees>
            </Position>
            <AltitudeMeters>3.400000095367431640625</AltitudeMeters>
            <DistanceMeters>NAN</DistanceMeters>
          </Trackpoint>
          <Trackpoint>
            <Time>2022-07-04T15:16:44.000Z</Time>
            <Position>
              <LatitudeDegrees>44.61970743723213672637939453125</LatitudeDegrees>
              <LongitudeDegrees>-1.08227259479463100433349609375</LongitudeDegrees>
            </Position>
            <AltitudeMeters>3.599999904632568359375</AltitudeMeters>
            <DistanceMeters>NAN</DistanceMeters>
          </Trackpoint>
          <Trackpoint>
            <Time>2022-07-04T15:16:50.000Z</Time>
            <Position>
              <LatitudeDegrees>44.6196914277970790863037109375</LatitudeDegrees>
              <LongitudeDegrees>-1.08255020342767238616943359375</LongitudeDegrees>
            </Position>
            <AltitudeMeters>3.599999904632568359375</AltitudeMeters>
            <DistanceMeters>NAN</DistanceMeters>
          </Trackpoint>
          <Trackpoint>
            <Time>2022-07-04T15:16:51.000Z</Time>
            <Position>
              <LatitudeDegrees>44.61968782357871532440185546875</LatitudeDegrees>
              <LongitudeDegrees>-1.082598902285099029541015625</LongitudeDegrees>
            </Position>
            <AltitudeMeters>3.599999904632568359375</AltitudeMeters>
            <DistanceMeters>NAN</DistanceMeters>
          </Trackpoint>
          <Trackpoint>
            <Time>2022-07-04T15:16:53.000Z</Time>
            <Position>
              <LatitudeDegrees>44.61966988630592823028564453125</LatitudeDegrees>
              <LongitudeDegrees>-1.082687415182590484619140625</LongitudeDegrees>
            </Position>
            <AltitudeMeters>3.599999904632568359375</AltitudeMeters>
            <DistanceMeters>NAN</DistanceMeters>
          </Trackpoint>
          <Trackpoint>
            <Time>2022-07-04T15:16:58.000Z</Time>
            <Position>
              <LatitudeDegrees>44.61965848691761493682861328125</LatitudeDegrees>
              <LongitudeDegrees>-1.08298354782164096832275390625</LongitudeDegrees>
            </Position>
            <AltitudeMeters>3.599999904632568359375</AltitudeMeters>
            <DistanceMeters>NAN</DistanceMeters>
          </Trackpoint>
          <Trackpoint>
            <Time>2022-07-04T15:16:59.000Z</Time>
            <Position>
              <LatitudeDegrees>44.61966083385050296783447265625</LatitudeDegrees>
              <LongitudeDegrees>-1.08304691500961780548095703125</LongitudeDegrees>
            </Position>
            <AltitudeMeters>3.7999999523162841796875</AltitudeMeters>
            <DistanceMeters>NAN</DistanceMeters>
          </Trackpoint>
          <Trackpoint>
            <Time>2022-07-04T15:17:02.000Z</Time>
            <Position>
              <LatitudeDegrees>44.61964725516736507415771484375</LatitudeDegrees>
              <LongitudeDegrees>-1.08322746120393276214599609375</LongitudeDegrees>
            </Position>
            <AltitudeMeters>3.7999999523162841796875</AltitudeMeters>
            <DistanceMeters>NAN</DistanceMeters>
          </Trackpoint>
          <Trackpoint>
            <Time>2022-07-04T15:17:07.000Z</Time>
            <Position>
              <LatitudeDegrees>44.61958992294967174530029296875</LatitudeDegrees>
              <LongitudeDegrees>-1.0835425369441509246826171875</LongitudeDegrees>
            </Position>
            <AltitudeMeters>4.19999980926513671875</AltitudeMeters>
            <DistanceMeters>NAN</DistanceMeters>
          </Trackpoint>
          <Trackpoint>
            <Time>2022-07-04T15:17:09.000Z</Time>
            <Position>
              <LatitudeDegrees>44.619577266275882720947265625</LatitudeDegrees>
              <LongitudeDegrees>-1.08364152722060680389404296875</LongitudeDegrees>
            </Position>
            <AltitudeMeters>4.400000095367431640625</AltitudeMeters>
            <DistanceMeters>NAN</DistanceMeters>
          </Trackpoint>
          <Trackpoint>
            <Time>2022-07-04T15:17:12.000Z</Time>
            <Position>
              <LatitudeDegrees>44.61957047693431377410888671875</LatitudeDegrees>
              <LongitudeDegrees>-1.08380396850407123565673828125</LongitudeDegrees>
            </Position>
            <AltitudeMeters>4.19999980926513671875</AltitudeMeters>
            <DistanceMeters>NAN</DistanceMeters>
          </Trackpoint>
          <Trackpoint>
            <Time>2022-07-04T15:17:18.000Z</Time>
            <Position>
              <LatitudeDegrees>44.61952018551528453826904296875</LatitudeDegrees>
              <LongitudeDegrees>-1.08427167870104312896728515625</LongitudeDegrees>
            </Position>
            <AltitudeMeters>4.19999980926513671875</AltitudeMeters>
            <DistanceMeters>NAN</DistanceMeters>
          </Trackpoint>
          <Trackpoint>
            <Time>2022-07-04T15:17:24.000Z</Time>
            <Position>
              <LatitudeDegrees>44.6195085346698760986328125</LatitudeDegrees>
              <LongitudeDegrees>-1.0846174322068691253662109375</LongitudeDegrees>
            </Position>
            <AltitudeMeters>4.19999980926513671875</AltitudeMeters>
            <DistanceMeters>NAN</DistanceMeters>
          </Trackpoint>
          <Trackpoint>
            <Time>2022-07-04T15:17:29.000Z</Time>
            <Position>
              <LatitudeDegrees>44.61949956603348255157470703125</LatitudeDegrees>
              <LongitudeDegrees>-1.0848645307123661041259765625</LongitudeDegrees>
            </Position>
            <AltitudeMeters>4.400000095367431640625</AltitudeMeters>
            <DistanceMeters>NAN</DistanceMeters>
          </Trackpoint>
          <Trackpoint>
            <Time>2022-07-04T15:17:34.000Z</Time>
            <Position>
              <LatitudeDegrees>44.6194872446358203887939453125</LatitudeDegrees>
              <LongitudeDegrees>-1.08512897975742816925048828125</LongitudeDegrees>
            </Position>
            <AltitudeMeters>4.400000095367431640625</AltitudeMeters>
            <DistanceMeters>NAN</DistanceMeters>
          </Trackpoint>
          <Trackpoint>
            <Time>2022-07-04T15:17:35.000Z</Time>
            <Position>
              <LatitudeDegrees>44.61947835981845855712890625</LatitudeDegrees>
              <LongitudeDegrees>-1.08518195338547229766845703125</LongitudeDegrees>
            </Position>
            <AltitudeMeters>4.400000095367431640625</AltitudeMeters>
            <DistanceMeters>NAN</DistanceMeters>
          </Trackpoint>
          <Trackpoint>
            <Time>2022-07-04T15:17:41.000Z</Time>
            <Position>
              <LatitudeDegrees>44.619457907974720001220703125</LatitudeDegrees>
              <LongitudeDegrees>-1.08555360697209835052490234375</LongitudeDegrees>
            </Position>
            <AltitudeMeters>4.19999980926513671875</AltitudeMeters>
            <DistanceMeters>NAN</DistanceMeters>
          </Trackpoint>
          <Trackpoint>
            <Time>2022-07-04T15:17:47.000Z</Time>
            <Position>
              <LatitudeDegrees>44.61944491602480411529541015625</LatitudeDegrees>
              <LongitudeDegrees>-1.085954010486602783203125</LongitudeDegrees>
            </Position>
            <AltitudeMeters>4</AltitudeMeters>
            <DistanceMeters>NAN</DistanceMeters>
          </Trackpoint>
          <Trackpoint>
            <Time>2022-07-04T15:17:48.000Z</Time>
            <Position>
              <LatitudeDegrees>44.61943804286420345306396484375</LatitudeDegrees>
              <LongitudeDegrees>-1.0860041342675685882568359375</LongitudeDegrees>
            </Position>
            <AltitudeMeters>4</AltitudeMeters>
            <DistanceMeters>NAN</DistanceMeters>
          </Trackpoint>
          <Trackpoint>
            <Time>2022-07-04T15:17:50.000Z</Time>
            <Position>
              <LatitudeDegrees>44.61945095099508762359619140625</LatitudeDegrees>
              <LongitudeDegrees>-1.0860929824411869049072265625</LongitudeDegrees>
            </Position>
            <AltitudeMeters>4.19999980926513671875</AltitudeMeters>
            <DistanceMeters>NAN</DistanceMeters>
          </Trackpoint>
          <Trackpoint>
            <Time>2022-07-04T15:17:54.000Z</Time>
            <Position>
              <LatitudeDegrees>44.6194698102772235870361328125</LatitudeDegrees>
              <LongitudeDegrees>-1.086311750113964080810546875</LongitudeDegrees>
            </Position>
            <AltitudeMeters>4.400000095367431640625</AltitudeMeters>
            <DistanceMeters>NAN</DistanceMeters>
          </Trackpoint>
          <Trackpoint>
            <Time>2022-07-04T15:17:55.000Z</Time>
            <Position>
              <LatitudeDegrees>44.619476012885570526123046875</LatitudeDegrees>
              <LongitudeDegrees>-1.08636816032230854034423828125</LongitudeDegrees>
            </Position>
            <AltitudeMeters>4.400000095367431640625</AltitudeMeters>
            <DistanceMeters>NAN</DistanceMeters>
          </Trackpoint>
          <Trackpoint>
            <Time>2022-07-04T15:17:59.000Z</Time>
            <Position>
              <LatitudeDegrees>44.61951800622045993804931640625</LatitudeDegrees>
              <LongitudeDegrees>-1.08660955913364887237548828125</LongitudeDegrees>
            </Position>
            <AltitudeMeters>4.400000095367431640625</AltitudeMeters>
            <DistanceMeters>NAN</DistanceMeters>
          </Trackpoint>
          <Trackpoint>
            <Time>2022-07-04T15:18:04.000Z</Time>
            <Position>
              <LatitudeDegrees>44.6195801161229610443115234375</LatitudeDegrees>
              <LongitudeDegrees>-1.086854226887226104736328125</LongitudeDegrees>
            </Position>
            <AltitudeMeters>4.400000095367431640625</AltitudeMeters>
            <DistanceMeters>NAN</DistanceMeters>
          </Trackpoint>
          <Trackpoint>
            <Time>2022-07-04T15:18:05.000Z</Time>
            <Position>
              <LatitudeDegrees>44.61956997402012348175048828125</LatitudeDegrees>
              <LongitudeDegrees>-1.0868916101753711700439453125</LongitudeDegrees>
            </Position>
            <AltitudeMeters>4.400000095367431640625</AltitudeMeters>
            <DistanceMeters>NAN</DistanceMeters>
          </Trackpoint>
          <Trackpoint>
            <Time>2022-07-04T15:18:10.000Z</Time>
            <Position>
              <LatitudeDegrees>44.6195965446531772613525390625</LatitudeDegrees>
              <LongitudeDegrees>-1.08715656213462352752685546875</LongitudeDegrees>
            </Position>
            <AltitudeMeters>4.599999904632568359375</AltitudeMeters>
            <DistanceMeters>NAN</DistanceMeters>
          </Trackpoint>
          <Trackpoint>
            <Time>2022-07-04T15:18:15.000Z</Time>
            <Position>
              <LatitudeDegrees>44.61960903368890285491943359375</LatitudeDegrees>
              <LongitudeDegrees>-1.08736895956099033355712890625</LongitudeDegrees>
            </Position>
            <AltitudeMeters>4.599999904632568359375</AltitudeMeters>
            <DistanceMeters>NAN</DistanceMeters>
          </Trackpoint>
          <Trackpoint>
            <Time>2022-07-04T15:18:16.000Z</Time>
            <Position>
              <LatitudeDegrees>44.6196049265563488006591796875</LatitudeDegrees>
              <LongitudeDegrees>-1.0874303989112377166748046875</LongitudeDegrees>
            </Position>
            <AltitudeMeters>4.599999904632568359375</AltitudeMeters>
            <DistanceMeters>NAN</DistanceMeters>
          </Trackpoint>
          <Trackpoint>
            <Time>2022-07-04T15:18:18.000Z</Time>
            <Position>
              <LatitudeDegrees>44.6196126379072666168212890625</LatitudeDegrees>
              <LongitudeDegrees>-1.08752779662609100341796875</LongitudeDegrees>
            </Position>
            <AltitudeMeters>4.599999904632568359375</AltitudeMeters>
            <DistanceMeters>NAN</DistanceMeters>
          </Trackpoint>
          <Trackpoint>
            <Time>2022-07-04T15:18:21.000Z</Time>
            <Position>
              <LatitudeDegrees>44.619621522724628448486328125</LatitudeDegrees>
              <LongitudeDegrees>-1.0876826941967010498046875</LongitudeDegrees>
            </Position>
            <AltitudeMeters>4.599999904632568359375</AltitudeMeters>
            <DistanceMeters>NAN</DistanceMeters>
          </Trackpoint>
          <Trackpoint>
            <Time>2022-07-04T15:18:26.000Z</Time>
            <Position>
              <LatitudeDegrees>44.61962588131427764892578125</LatitudeDegrees>
              <LongitudeDegrees>-1.08787958510220050811767578125</LongitudeDegrees>
            </Position>
            <AltitudeMeters>4.599999904632568359375</AltitudeMeters>
            <DistanceMeters>NAN</DistanceMeters>
          </Trackpoint>
          <Trackpoint>
            <Time>2022-07-04T15:18:30.000Z</Time>
            <Position>
              <LatitudeDegrees>44.61963585577905178070068359375</LatitudeDegrees>
              <LongitudeDegrees>-1.0880501568317413330078125</LongitudeDegrees>
            </Position>
            <AltitudeMeters>5</AltitudeMeters>
            <DistanceMeters>NAN</DistanceMeters>
          </Trackpoint>
          <Trackpoint>
            <Time>2022-07-04T15:18:31.000Z</Time>
            <Position>
              <LatitudeDegrees>44.61964574642479419708251953125</LatitudeDegrees>
              <LongitudeDegrees>-1.08810455538332462310791015625</LongitudeDegrees>
            </Position>
            <AltitudeMeters>5</AltitudeMeters>
            <DistanceMeters>NAN</DistanceMeters>
          </Trackpoint>
          <Trackpoint>
            <Time>2022-07-04T15:18:36.000Z</Time>
            <Position>
              <LatitudeDegrees>44.61971565149724483489990234375</LatitudeDegrees>
              <LongitudeDegrees>-1.0884764604270458221435546875</LongitudeDegrees>
            </Position>
            <AltitudeMeters>5</AltitudeMeters>
            <DistanceMeters>NAN</DistanceMeters>
          </Trackpoint>
          <Trackpoint>
            <Time>2022-07-04T15:18:41.000Z</Time>
            <Position>
              <LatitudeDegrees>44.6197558008134365081787109375</LatitudeDegrees>
              <LongitudeDegrees>-1.08873051591217517852783203125</LongitudeDegrees>
            </Position>
            <AltitudeMeters>5</AltitudeMeters>
            <DistanceMeters>NAN</DistanceMeters>
          </Trackpoint>
          <Trackpoint>
            <Time>2022-07-04T15:18:42.000Z</Time>
            <Position>
              <LatitudeDegrees>44.6197698824107646942138671875</LatitudeDegrees>
              <LongitudeDegrees>-1.08878751285374164581298828125</LongitudeDegrees>
            </Position>
            <AltitudeMeters>5</AltitudeMeters>
            <DistanceMeters>NAN</DistanceMeters>
          </Trackpoint>
          <Trackpoint>
            <Time>2022-07-04T15:18:48.000Z</Time>
            <Position>
              <LatitudeDegrees>44.61987691931426525115966796875</LatitudeDegrees>
              <LongitudeDegrees>-1.0891168378293514251708984375</LongitudeDegrees>
            </Position>
            <AltitudeMeters>4.400000095367431640625</AltitudeMeters>
            <DistanceMeters>NAN</DistanceMeters>
          </Trackpoint>
          <Trackpoint>
            <Time>2022-07-04T15:18:55.000Z</Time>
            <Position>
              <LatitudeDegrees>44.61993634700775146484375</LatitudeDegrees>
              <LongitudeDegrees>-1.0894135572016239166259765625</LongitudeDegrees>
            </Position>
            <AltitudeMeters>4.80000019073486328125</AltitudeMeters>
            <DistanceMeters>NAN</DistanceMeters>
          </Trackpoint>
          <Trackpoint>
            <Time>2022-07-04T15:19:01.000Z</Time>
            <Position>
              <LatitudeDegrees>44.61996375583112239837646484375</LatitudeDegrees>
              <LongitudeDegrees>-1.08973232097923755645751953125</LongitudeDegrees>
            </Position>
            <AltitudeMeters>5.19999980926513671875</AltitudeMeters>
            <DistanceMeters>NAN</DistanceMeters>
          </Trackpoint>
          <Trackpoint>
            <Time>2022-07-04T15:19:07.000Z</Time>
            <Position>
              <LatitudeDegrees>44.619987308979034423828125</LatitudeDegrees>
              <LongitudeDegrees>-1.09009106643497943878173828125</LongitudeDegrees>
            </Position>
            <AltitudeMeters>5</AltitudeMeters>
            <DistanceMeters>NAN</DistanceMeters>
          </Trackpoint>
          <Trackpoint>
            <Time>2022-07-04T15:19:08.000Z</Time>
            <Position>
              <LatitudeDegrees>44.61999778635799884796142578125</LatitudeDegrees>
              <LongitudeDegrees>-1.090142615139484405517578125</LongitudeDegrees>
            </Position>
            <AltitudeMeters>5</AltitudeMeters>
            <DistanceMeters>NAN</DistanceMeters>
          </Trackpoint>
          <Trackpoint>
            <Time>2022-07-04T15:19:11.000Z</Time>
            <Position>
              <LatitudeDegrees>44.62003148160874843597412109375</LatitudeDegrees>
              <LongitudeDegrees>-1.0902817547321319580078125</LongitudeDegrees>
            </Position>
            <AltitudeMeters>5</AltitudeMeters>
            <DistanceMeters>NAN</DistanceMeters>
          </Trackpoint>
          <Trackpoint>
            <Time>2022-07-04T15:19:12.000Z</Time>
            <Position>
              <LatitudeDegrees>44.6200354211032390594482421875</LatitudeDegrees>
              <LongitudeDegrees>-1.09033464454114437103271484375</LongitudeDegrees>
            </Position>
            <AltitudeMeters>5</AltitudeMeters>
            <DistanceMeters>NAN</DistanceMeters>
          </Trackpoint>
          <Trackpoint>
            <Time>2022-07-04T15:19:17.000Z</Time>
            <Position>
              <LatitudeDegrees>44.62006534449756145477294921875</LatitudeDegrees>
              <LongitudeDegrees>-1.09061845578253269195556640625</LongitudeDegrees>
            </Position>
            <AltitudeMeters>4.80000019073486328125</AltitudeMeters>
            <DistanceMeters>NAN</DistanceMeters>
          </Trackpoint>
          <Trackpoint>
            <Time>2022-07-04T15:19:23.000Z</Time>
            <Position>
              <LatitudeDegrees>44.6201115287840366363525390625</LatitudeDegrees>
              <LongitudeDegrees>-1.09099631197750568389892578125</LongitudeDegrees>
            </Position>
            <AltitudeMeters>4.80000019073486328125</AltitudeMeters>
            <DistanceMeters>NAN</DistanceMeters>
          </Trackpoint>
          <Trackpoint>
            <Time>2022-07-04T15:19:24.000Z</Time>
            <Position>
              <LatitudeDegrees>44.62011328898370265960693359375</LatitudeDegrees>
              <LongitudeDegrees>-1.0910515487194061279296875</LongitudeDegrees>
            </Position>
            <AltitudeMeters>4.80000019073486328125</AltitudeMeters>
            <DistanceMeters>NAN</DistanceMeters>
          </Trackpoint>
          <Trackpoint>
            <Time>2022-07-04T15:19:28.000Z</Time>
            <Position>
              <LatitudeDegrees>44.62013960815966129302978515625</LatitudeDegrees>
              <LongitudeDegrees>-1.0912220366299152374267578125</LongitudeDegrees>
            </Position>
            <AltitudeMeters>4.599999904632568359375</AltitudeMeters>
            <DistanceMeters>NAN</DistanceMeters>
          </Trackpoint>
          <Trackpoint>
            <Time>2022-07-04T15:19:29.000Z</Time>
            <Position>
              <LatitudeDegrees>44.6201333217322826385498046875</LatitudeDegrees>
              <LongitudeDegrees>-1.09123720787465572357177734375</LongitudeDegrees>
            </Position>
            <AltitudeMeters>4.599999904632568359375</AltitudeMeters>
            <DistanceMeters>NAN</DistanceMeters>
          </Trackpoint>
          <Trackpoint>
            <Time>2022-07-04T15:19:34.000Z</Time>
            <Position>
              <LatitudeDegrees>44.62007171474397182464599609375</LatitudeDegrees>
              <LongitudeDegrees>-1.09130174852907657623291015625</LongitudeDegrees>
            </Position>
            <AltitudeMeters>4.19999980926513671875</AltitudeMeters>
            <DistanceMeters>NAN</DistanceMeters>
          </Trackpoint>
          <Trackpoint>
            <Time>2022-07-04T15:19:36.000Z</Time>
            <Position>
              <LatitudeDegrees>44.62003919295966625213623046875</LatitudeDegrees>
              <LongitudeDegrees>-1.09135136939585208892822265625</LongitudeDegrees>
            </Position>
            <AltitudeMeters>4</AltitudeMeters>
            <DistanceMeters>NAN</DistanceMeters>
          </Trackpoint>
          <Trackpoint>
            <Time>2022-07-04T15:19:42.000Z</Time>
            <Position>
              <LatitudeDegrees>44.619957469403743743896484375</LatitudeDegrees>
              <LongitudeDegrees>-1.09151934273540973663330078125</LongitudeDegrees>
            </Position>
            <AltitudeMeters>4</AltitudeMeters>
            <DistanceMeters>NAN</DistanceMeters>
          </Trackpoint>
          <Trackpoint>
            <Time>2022-07-04T15:19:47.000Z</Time>
            <Position>
              <LatitudeDegrees>44.61997850798070430755615234375</LatitudeDegrees>
              <LongitudeDegrees>-1.09163694083690643310546875</LongitudeDegrees>
            </Position>
            <AltitudeMeters>4</AltitudeMeters>
            <DistanceMeters>NAN</DistanceMeters>
          </Trackpoint>
          <Trackpoint>
            <Time>2022-07-04T15:19:51.000Z</Time>
            <Position>
              <LatitudeDegrees>44.61997926235198974609375</LatitudeDegrees>
              <LongitudeDegrees>-1.09164423309266567230224609375</LongitudeDegrees>
            </Position>
            <AltitudeMeters>3.7999999523162841796875</AltitudeMeters>
            <DistanceMeters>NAN</DistanceMeters>
          </Trackpoint>
          <Trackpoint>
            <Time>2022-07-04T15:20:00.000Z</Time>
            <Position>
              <LatitudeDegrees>44.6200220100581645965576171875</LatitudeDegrees>
              <LongitudeDegrees>-1.09169594943523406982421875</LongitudeDegrees>
            </Position>
            <AltitudeMeters>3.400000095367431640625</AltitudeMeters>
            <DistanceMeters>NAN</DistanceMeters>
          </Trackpoint>
          <Trackpoint>
            <Time>2022-07-04T15:20:01.000Z</Time>
            <Position>
              <LatitudeDegrees>44.62002729065716266632080078125</LatitudeDegrees>
              <LongitudeDegrees>-1.0917085222899913787841796875</LongitudeDegrees>
            </Position>
            <AltitudeMeters>3.599999904632568359375</AltitudeMeters>
            <DistanceMeters>NAN</DistanceMeters>
          </Trackpoint>
          <Trackpoint>
            <Time>2022-07-04T15:20:08.000Z</Time>
            <Position>
              <LatitudeDegrees>44.6200303919613361358642578125</LatitudeDegrees>
              <LongitudeDegrees>-1.0917363502085208892822265625</LongitudeDegrees>
            </Position>
            <AltitudeMeters>3.400000095367431640625</AltitudeMeters>
            <DistanceMeters>NAN</DistanceMeters>
          </Trackpoint>
          <Trackpoint>
            <Time>2022-07-04T15:36:29.000Z</Time>
            <Position>
              <LatitudeDegrees>44.620060734450817108154296875</LatitudeDegrees>
              <LongitudeDegrees>-1.091782115399837493896484375</LongitudeDegrees>
            </Position>
            <AltitudeMeters>-0.4000000059604644775390625</AltitudeMeters>
            <DistanceMeters>NAN</DistanceMeters>
          </Trackpoint>
          <Trackpoint>
            <Time>2022-07-04T15:36:31.000Z</Time>
            <Position>
              <LatitudeDegrees>44.620060734450817108154296875</LatitudeDegrees>
              <LongitudeDegrees>-1.091782115399837493896484375</LongitudeDegrees>
            </Position>
            <AltitudeMeters>-0.4000000059604644775390625</AltitudeMeters>
            <DistanceMeters>NAN</DistanceMeters>
          </Trackpoint>
          <Trackpoint>
            <Time>2022-07-04T15:36:57.000Z</Time>
            <Position>
              <LatitudeDegrees>44.62003231979906558990478515625</LatitudeDegrees>
              <LongitudeDegrees>-1.09182645566761493682861328125</LongitudeDegrees>
            </Position>
            <AltitudeMeters>-0.800000011920928955078125</AltitudeMeters>
            <DistanceMeters>NAN</DistanceMeters>
          </Trackpoint>
          <Trackpoint>
            <Time>2022-07-04T15:36:59.000Z</Time>
            <Position>
              <LatitudeDegrees>44.62003231979906558990478515625</LatitudeDegrees>
              <LongitudeDegrees>-1.09182645566761493682861328125</LongitudeDegrees>
            </Position>
            <AltitudeMeters>-0.800000011920928955078125</AltitudeMeters>
            <DistanceMeters>NAN</DistanceMeters>
          </Trackpoint>
          <Trackpoint>
            <Time>2022-07-04T15:39:23.000Z</Time>
            <Position>
              <LatitudeDegrees>44.62004958651959896087646484375</LatitudeDegrees>
              <LongitudeDegrees>-1.09184104017913341522216796875</LongitudeDegrees>
            </Position>
            <AltitudeMeters>-1.39999997615814208984375</AltitudeMeters>
            <DistanceMeters>NAN</DistanceMeters>
          </Trackpoint>
          <Trackpoint>
            <Time>2022-07-04T15:39:24.000Z</Time>
            <Position>
              <LatitudeDegrees>44.6200565434992313385009765625</LatitudeDegrees>
              <LongitudeDegrees>-1.0918332450091838836669921875</LongitudeDegrees>
            </Position>
            <AltitudeMeters>-1.39999997615814208984375</AltitudeMeters>
            <DistanceMeters>NAN</DistanceMeters>
          </Trackpoint>
          <Trackpoint>
            <Time>2022-07-04T15:39:26.000Z</Time>
            <Position>
              <LatitudeDegrees>44.62005713023245334625244140625</LatitudeDegrees>
              <LongitudeDegrees>-1.0918325744569301605224609375</LongitudeDegrees>
            </Position>
            <AltitudeMeters>-1.7999999523162841796875</AltitudeMeters>
            <DistanceMeters>NAN</DistanceMeters>
          </Trackpoint>
          <Trackpoint>
            <Time>2022-07-04T15:42:08.000Z</Time>
            <Position>
              <LatitudeDegrees>44.62003064341843128204345703125</LatitudeDegrees>
              <LongitudeDegrees>-1.09185285866260528564453125</LongitudeDegrees>
            </Position>
            <AltitudeMeters>-2.400000095367431640625</AltitudeMeters>
            <DistanceMeters>NAN</DistanceMeters>
          </Trackpoint>
          <Trackpoint>
            <Time>2022-07-04T15:42:10.000Z</Time>
            <Position>
              <LatitudeDegrees>44.62003584019839763641357421875</LatitudeDegrees>
              <LongitudeDegrees>-1.09185713343322277069091796875</LongitudeDegrees>
            </Position>
            <AltitudeMeters>-2.400000095367431640625</AltitudeMeters>
            <DistanceMeters>NAN</DistanceMeters>
          </Trackpoint>
          <Trackpoint>
            <Time>2022-07-04T15:42:11.000Z</Time>
            <Position>
              <LatitudeDegrees>44.62002997286617755889892578125</LatitudeDegrees>
              <LongitudeDegrees>-1.0918687842786312103271484375</LongitudeDegrees>
            </Position>
            <AltitudeMeters>-2.400000095367431640625</AltitudeMeters>
            <DistanceMeters>NAN</DistanceMeters>
          </Trackpoint>
          <Trackpoint>
            <Time>2022-07-04T15:42:13.000Z</Time>
            <Position>
              <LatitudeDegrees>44.6200092695653438568115234375</LatitudeDegrees>
              <LongitudeDegrees>-1.09189954586327075958251953125</LongitudeDegrees>
            </Position>
            <AltitudeMeters>-2.599999904632568359375</AltitudeMeters>
            <DistanceMeters>NAN</DistanceMeters>
          </Trackpoint>
          <Trackpoint>
            <Time>2022-07-04T15:42:16.000Z</Time>
            <Position>
              <LatitudeDegrees>44.620003402233123779296875</LatitudeDegrees>
              <LongitudeDegrees>-1.0919093526899814605712890625</LongitudeDegrees>
            </Position>
            <AltitudeMeters>-2.7999999523162841796875</AltitudeMeters>
            <DistanceMeters>NAN</DistanceMeters>
          </Trackpoint>
          <Trackpoint>
            <Time>2022-07-04T15:42:55.000Z</Time>
            <Position>
              <LatitudeDegrees>44.61995176970958709716796875</LatitudeDegrees>
              <LongitudeDegrees>-1.09195453114807605743408203125</LongitudeDegrees>
            </Position>
            <AltitudeMeters>-3</AltitudeMeters>
            <DistanceMeters>NAN</DistanceMeters>
          </Trackpoint>
          <Trackpoint>
            <Time>2022-07-04T15:42:58.000Z</Time>
            <Position>
              <LatitudeDegrees>44.6199583075940608978271484375</LatitudeDegrees>
              <LongitudeDegrees>-1.09194916673004627227783203125</LongitudeDegrees>
            </Position>
            <AltitudeMeters>-3</AltitudeMeters>
            <DistanceMeters>NAN</DistanceMeters>
          </Trackpoint>
          <Trackpoint>
            <Time>2022-07-04T15:44:41.000Z</Time>
            <Position>
              <LatitudeDegrees>44.61999862454831600189208984375</LatitudeDegrees>
              <LongitudeDegrees>-1.0918882302939891815185546875</LongitudeDegrees>
            </Position>
            <AltitudeMeters>-3.599999904632568359375</AltitudeMeters>
            <DistanceMeters>NAN</DistanceMeters>
          </Trackpoint>
          <Trackpoint>
            <Time>2022-07-04T15:44:43.000Z</Time>
            <Position>
              <LatitudeDegrees>44.62000097148120403289794921875</LatitudeDegrees>
              <LongitudeDegrees>-1.09188630245625972747802734375</LongitudeDegrees>
            </Position>
            <AltitudeMeters>-3.599999904632568359375</AltitudeMeters>
            <DistanceMeters>NAN</DistanceMeters>
          </Trackpoint>
          <Trackpoint>
            <Time>2022-07-04T15:44:50.000Z</Time>
            <Position>
              <LatitudeDegrees>44.620001725852489471435546875</LatitudeDegrees>
              <LongitudeDegrees>-1.0918892361223697662353515625</LongitudeDegrees>
            </Position>
            <AltitudeMeters>-3.599999904632568359375</AltitudeMeters>
            <DistanceMeters>NAN</DistanceMeters>
          </Trackpoint>
          <Trackpoint>
            <Time>2022-07-04T15:44:51.000Z</Time>
            <Position>
              <LatitudeDegrees>44.620001725852489471435546875</LatitudeDegrees>
              <LongitudeDegrees>-1.0918892361223697662353515625</LongitudeDegrees>
            </Position>
            <AltitudeMeters>-3.599999904632568359375</AltitudeMeters>
            <DistanceMeters>NAN</DistanceMeters>
          </Trackpoint>
          <Trackpoint>
            <Time>2022-07-04T15:44:52.000Z</Time>
            <Position>
              <LatitudeDegrees>44.620006084442138671875</LatitudeDegrees>
              <LongitudeDegrees>-1.0918852128088474273681640625</LongitudeDegrees>
            </Position>
            <AltitudeMeters>-3.400000095367431640625</AltitudeMeters>
            <DistanceMeters>NAN</DistanceMeters>
          </Trackpoint>
          <Trackpoint>
            <Time>2022-07-04T15:44:55.000Z</Time>
            <Position>
              <LatitudeDegrees>44.6200139634311199188232421875</LatitudeDegrees>
              <LongitudeDegrees>-1.09187590889632701873779296875</LongitudeDegrees>
            </Position>
            <AltitudeMeters>-3.400000095367431640625</AltitudeMeters>
            <DistanceMeters>NAN</DistanceMeters>
          </Trackpoint>
          <Trackpoint>
            <Time>2022-07-04T15:57:25.000Z</Time>
            <Position>
              <LatitudeDegrees>44.620083868503570556640625</LatitudeDegrees>
              <LongitudeDegrees>-1.091878004372119903564453125</LongitudeDegrees>
            </Position>
            <AltitudeMeters>-2</AltitudeMeters>
            <DistanceMeters>NAN</DistanceMeters>
          </Trackpoint>
          <Trackpoint>
            <Time>2022-07-04T15:57:27.000Z</Time>
            <Position>
              <LatitudeDegrees>44.620083868503570556640625</LatitudeDegrees>
              <LongitudeDegrees>-1.091878004372119903564453125</LongitudeDegrees>
            </Position>
            <AltitudeMeters>-2</AltitudeMeters>
            <DistanceMeters>NAN</DistanceMeters>
          </Trackpoint>
          <Trackpoint>
            <Time>2022-07-04T15:57:56.000Z</Time>
            <Position>
              <LatitudeDegrees>44.6200364269316196441650390625</LatitudeDegrees>
              <LongitudeDegrees>-1.0919321514666080474853515625</LongitudeDegrees>
            </Position>
            <AltitudeMeters>-2.2000000476837158203125</AltitudeMeters>
            <DistanceMeters>NAN</DistanceMeters>
          </Trackpoint>
          <Trackpoint>
            <Time>2022-07-04T15:57:58.000Z</Time>
            <Position>
              <LatitudeDegrees>44.6200246922671794891357421875</LatitudeDegrees>
              <LongitudeDegrees>-1.09194631688296794891357421875</LongitudeDegrees>
            </Position>
            <AltitudeMeters>-2.2000000476837158203125</AltitudeMeters>
            <DistanceMeters>NAN</DistanceMeters>
          </Trackpoint>
          <Trackpoint>
            <Time>2022-07-04T15:57:59.000Z</Time>
            <Position>
              <LatitudeDegrees>44.6200246922671794891357421875</LatitudeDegrees>
              <LongitudeDegrees>-1.09194631688296794891357421875</LongitudeDegrees>
            </Position>
            <AltitudeMeters>-2.2000000476837158203125</AltitudeMeters>
            <DistanceMeters>NAN</DistanceMeters>
          </Trackpoint>
          <Trackpoint>
            <Time>2022-07-04T15:58:27.000Z</Time>
            <Position>
              <LatitudeDegrees>44.619993008673191070556640625</LatitudeDegrees>
              <LongitudeDegrees>-1.09195838682353496551513671875</LongitudeDegrees>
            </Position>
            <AltitudeMeters>-2.2000000476837158203125</AltitudeMeters>
            <DistanceMeters>NAN</DistanceMeters>
          </Trackpoint>
          <Trackpoint>
            <Time>2022-07-04T15:58:29.000Z</Time>
            <Position>
              <LatitudeDegrees>44.619985632598400115966796875</LatitudeDegrees>
              <LongitudeDegrees>-1.09196509234607219696044921875</LongitudeDegrees>
            </Position>
            <AltitudeMeters>-2.2000000476837158203125</AltitudeMeters>
            <DistanceMeters>NAN</DistanceMeters>
          </Trackpoint>
          <Trackpoint>
            <Time>2022-07-04T15:58:30.000Z</Time>
            <Position>
              <LatitudeDegrees>44.619985632598400115966796875</LatitudeDegrees>
              <LongitudeDegrees>-1.09196509234607219696044921875</LongitudeDegrees>
            </Position>
            <AltitudeMeters>-2.400000095367431640625</AltitudeMeters>
            <DistanceMeters>NAN</DistanceMeters>
          </Trackpoint>
          <Trackpoint>
            <Time>2022-07-04T15:58:37.000Z</Time>
            <Position>
              <LatitudeDegrees>44.620014466345310211181640625</LatitudeDegrees>
              <LongitudeDegrees>-1.09193726442754268646240234375</LongitudeDegrees>
            </Position>
            <AltitudeMeters>-2.400000095367431640625</AltitudeMeters>
            <DistanceMeters>NAN</DistanceMeters>
          </Trackpoint>
          <Trackpoint>
            <Time>2022-07-04T15:58:40.000Z</Time>
            <Position>
              <LatitudeDegrees>44.62003852240741252899169921875</LatitudeDegrees>
              <LongitudeDegrees>-1.09191195107996463775634765625</LongitudeDegrees>
            </Position>
            <AltitudeMeters>-2.400000095367431640625</AltitudeMeters>
            <DistanceMeters>NAN</DistanceMeters>
          </Trackpoint>
          <Trackpoint>
            <Time>2022-07-04T15:58:44.000Z</Time>
            <Position>
              <LatitudeDegrees>44.62007892318069934844970703125</LatitudeDegrees>
              <LongitudeDegrees>-1.09185059554874897003173828125</LongitudeDegrees>
            </Position>
            <AltitudeMeters>-2.400000095367431640625</AltitudeMeters>
            <DistanceMeters>NAN</DistanceMeters>
          </Trackpoint>
          <Trackpoint>
            <Time>2022-07-04T15:58:46.000Z</Time>
            <Position>
              <LatitudeDegrees>44.6201039850711822509765625</LatitudeDegrees>
              <LongitudeDegrees>-1.09179711900651454925537109375</LongitudeDegrees>
            </Position>
            <AltitudeMeters>-2.400000095367431640625</AltitudeMeters>
            <DistanceMeters>NAN</DistanceMeters>
          </Trackpoint>
          <Trackpoint>
            <Time>2022-07-04T15:58:50.000Z</Time>
            <Position>
              <LatitudeDegrees>44.6201018057763576507568359375</LatitudeDegrees>
              <LongitudeDegrees>-1.09179041348397731781005859375</LongitudeDegrees>
            </Position>
            <AltitudeMeters>-2.400000095367431640625</AltitudeMeters>
            <DistanceMeters>NAN</DistanceMeters>
          </Trackpoint>
          <Trackpoint>
            <Time>2022-07-04T15:58:51.000Z</Time>
            <Position>
              <LatitudeDegrees>44.62009987793862819671630859375</LatitudeDegrees>
              <LongitudeDegrees>-1.091792844235897064208984375</LongitudeDegrees>
            </Position>
            <AltitudeMeters>-2.400000095367431640625</AltitudeMeters>
            <DistanceMeters>NAN</DistanceMeters>
          </Trackpoint>
          <Trackpoint>
            <Time>2022-07-04T15:58:56.000Z</Time>
            <Position>
              <LatitudeDegrees>44.62008713744580745697021484375</LatitudeDegrees>
              <LongitudeDegrees>-1.0918278805911540985107421875</LongitudeDegrees>
            </Position>
            <AltitudeMeters>-2.400000095367431640625</AltitudeMeters>
            <DistanceMeters>NAN</DistanceMeters>
          </Trackpoint>
          <Trackpoint>
            <Time>2022-07-04T15:59:00.000Z</Time>
            <Position>
              <LatitudeDegrees>44.62008713744580745697021484375</LatitudeDegrees>
              <LongitudeDegrees>-1.0918278805911540985107421875</LongitudeDegrees>
            </Position>
            <AltitudeMeters>-2.400000095367431640625</AltitudeMeters>
            <DistanceMeters>NAN</DistanceMeters>
          </Trackpoint>
          <Trackpoint>
            <Time>2022-07-04T15:59:03.000Z</Time>
            <Position>
              <LatitudeDegrees>44.62007389403879642486572265625</LatitudeDegrees>
              <LongitudeDegrees>-1.09185780398547649383544921875</LongitudeDegrees>
            </Position>
            <AltitudeMeters>-2.2000000476837158203125</AltitudeMeters>
            <DistanceMeters>NAN</DistanceMeters>
          </Trackpoint>
          <Trackpoint>
            <Time>2022-07-04T15:59:05.000Z</Time>
            <Position>
              <LatitudeDegrees>44.62003047578036785125732421875</LatitudeDegrees>
              <LongitudeDegrees>-1.09191320836544036865234375</LongitudeDegrees>
            </Position>
            <AltitudeMeters>-2.2000000476837158203125</AltitudeMeters>
            <DistanceMeters>NAN</DistanceMeters>
          </Trackpoint>
          <Trackpoint>
            <Time>2022-07-04T15:59:06.000Z</Time>
            <Position>
              <LatitudeDegrees>44.62001874111592769622802734375</LatitudeDegrees>
              <LongitudeDegrees>-1.0919261164963245391845703125</LongitudeDegrees>
            </Position>
            <AltitudeMeters>-2.2000000476837158203125</AltitudeMeters>
            <DistanceMeters>NAN</DistanceMeters>
          </Trackpoint>
          <Trackpoint>
            <Time>2022-07-04T15:59:07.000Z</Time>
            <Position>
              <LatitudeDegrees>44.62001807056367397308349609375</LatitudeDegrees>
              <LongitudeDegrees>-1.09192435629665851593017578125</LongitudeDegrees>
            </Position>
            <AltitudeMeters>-2.2000000476837158203125</AltitudeMeters>
            <DistanceMeters>NAN</DistanceMeters>
          </Trackpoint>
          <Trackpoint>
            <Time>2022-07-04T15:59:09.000Z</Time>
            <Position>
              <LatitudeDegrees>44.62000072002410888671875</LatitudeDegrees>
              <LongitudeDegrees>-1.09192569740116596221923828125</LongitudeDegrees>
            </Position>
            <AltitudeMeters>-2.2000000476837158203125</AltitudeMeters>
            <DistanceMeters>NAN</DistanceMeters>
          </Trackpoint>
          <Trackpoint>
            <Time>2022-07-04T15:59:10.000Z</Time>
            <Position>
              <LatitudeDegrees>44.61998202838003635406494140625</LatitudeDegrees>
              <LongitudeDegrees>-1.09192519448697566986083984375</LongitudeDegrees>
            </Position>
            <AltitudeMeters>-2.2000000476837158203125</AltitudeMeters>
            <DistanceMeters>NAN</DistanceMeters>
          </Trackpoint>
          <Trackpoint>
            <Time>2022-07-04T15:59:15.000Z</Time>
            <Position>
              <LatitudeDegrees>44.61995872668921947479248046875</LatitudeDegrees>
              <LongitudeDegrees>-1.0919130407273769378662109375</LongitudeDegrees>
            </Position>
            <AltitudeMeters>-2.2000000476837158203125</AltitudeMeters>
            <DistanceMeters>NAN</DistanceMeters>
          </Trackpoint>
          <Trackpoint>
            <Time>2022-07-04T15:59:18.000Z</Time>
            <Position>
              <LatitudeDegrees>44.61997766979038715362548828125</LatitudeDegrees>
              <LongitudeDegrees>-1.09190340153872966766357421875</LongitudeDegrees>
            </Position>
            <AltitudeMeters>-2.2000000476837158203125</AltitudeMeters>
            <DistanceMeters>NAN</DistanceMeters>
          </Trackpoint>
          <Trackpoint>
            <Time>2022-07-04T15:59:21.000Z</Time>
            <Position>
              <LatitudeDegrees>44.619981609284877777099609375</LatitudeDegrees>
              <LongitudeDegrees>-1.09190172515809535980224609375</LongitudeDegrees>
            </Position>
            <AltitudeMeters>-2.2000000476837158203125</AltitudeMeters>
            <DistanceMeters>NAN</DistanceMeters>
          </Trackpoint>
          <Trackpoint>
            <Time>2022-07-04T15:59:43.000Z</Time>
            <Position>
              <LatitudeDegrees>44.61999644525349140167236328125</LatitudeDegrees>
              <LongitudeDegrees>-1.09189971350133419036865234375</LongitudeDegrees>
            </Position>
            <AltitudeMeters>-2</AltitudeMeters>
            <DistanceMeters>NAN</DistanceMeters>
          </Trackpoint>
          <Trackpoint>
            <Time>2022-07-04T15:59:45.000Z</Time>
            <Position>
              <LatitudeDegrees>44.61999644525349140167236328125</LatitudeDegrees>
              <LongitudeDegrees>-1.09189971350133419036865234375</LongitudeDegrees>
            </Position>
            <AltitudeMeters>-2</AltitudeMeters>
            <DistanceMeters>NAN</DistanceMeters>
          </Trackpoint>
          <Trackpoint>
            <Time>2022-07-04T16:13:22.000Z</Time>
            <Position>
              <LatitudeDegrees>44.620266258716583251953125</LatitudeDegrees>
              <LongitudeDegrees>-1.09196810983121395111083984375</LongitudeDegrees>
            </Position>
            <AltitudeMeters>3.599999904632568359375</AltitudeMeters>
            <DistanceMeters>NAN</DistanceMeters>
          </Trackpoint>
          <Trackpoint>
            <Time>2022-07-04T16:13:28.000Z</Time>
            <Position>
              <LatitudeDegrees>44.62029936723411083221435546875</LatitudeDegrees>
              <LongitudeDegrees>-1.09214027412235736846923828125</LongitudeDegrees>
            </Position>
            <AltitudeMeters>3.7999999523162841796875</AltitudeMeters>
            <DistanceMeters>NAN</DistanceMeters>
          </Trackpoint>
          <Trackpoint>
            <Time>2022-07-04T16:13:33.000Z</Time>
            <Position>
              <LatitudeDegrees>44.6203415282070636749267578125</LatitudeDegrees>
              <LongitudeDegrees>-1.0922835208475589752197265625</LongitudeDegrees>
            </Position>
            <AltitudeMeters>3.400000095367431640625</AltitudeMeters>
            <DistanceMeters>NAN</DistanceMeters>
          </Trackpoint>
          <Trackpoint>
            <Time>2022-07-04T16:13:39.000Z</Time>
            <Position>
              <LatitudeDegrees>44.62036457844078540802001953125</LatitudeDegrees>
              <LongitudeDegrees>-1.0924514941871166229248046875</LongitudeDegrees>
            </Position>
            <AltitudeMeters>3.599999904632568359375</AltitudeMeters>
            <DistanceMeters>NAN</DistanceMeters>
          </Trackpoint>
          <Trackpoint>
            <Time>2022-07-04T16:13:42.000Z</Time>
            <Position>
              <LatitudeDegrees>44.62037933059036731719970703125</LatitudeDegrees>
              <LongitudeDegrees>-1.09255618415772914886474609375</LongitudeDegrees>
            </Position>
            <AltitudeMeters>3.7999999523162841796875</AltitudeMeters>
            <DistanceMeters>NAN</DistanceMeters>
          </Trackpoint>
          <Trackpoint>
            <Time>2022-07-04T16:13:44.000Z</Time>
            <Position>
              <LatitudeDegrees>44.6204075776040554046630859375</LatitudeDegrees>
              <LongitudeDegrees>-1.0926312021911144256591796875</LongitudeDegrees>
            </Position>
            <AltitudeMeters>3.7999999523162841796875</AltitudeMeters>
            <DistanceMeters>NAN</DistanceMeters>
          </Trackpoint>
          <Trackpoint>
            <Time>2022-07-04T16:13:48.000Z</Time>
            <Position>
              <LatitudeDegrees>44.6204521693289279937744140625</LatitudeDegrees>
              <LongitudeDegrees>-1.0928092338144779205322265625</LongitudeDegrees>
            </Position>
            <AltitudeMeters>4.19999980926513671875</AltitudeMeters>
            <DistanceMeters>NAN</DistanceMeters>
          </Trackpoint>
          <Trackpoint>
            <Time>2022-07-04T16:13:49.000Z</Time>
            <Position>
              <LatitudeDegrees>44.62045778520405292510986328125</LatitudeDegrees>
              <LongitudeDegrees>-1.0928601957857608795166015625</LongitudeDegrees>
            </Position>
            <AltitudeMeters>4.19999980926513671875</AltitudeMeters>
            <DistanceMeters>NAN</DistanceMeters>
          </Trackpoint>
          <Trackpoint>
            <Time>2022-07-04T16:13:53.000Z</Time>
            <Position>
              <LatitudeDegrees>44.62048678658902645111083984375</LatitudeDegrees>
              <LongitudeDegrees>-1.0929993353784084320068359375</LongitudeDegrees>
            </Position>
            <AltitudeMeters>4.19999980926513671875</AltitudeMeters>
            <DistanceMeters>NAN</DistanceMeters>
          </Trackpoint>
          <Trackpoint>
            <Time>2022-07-04T16:13:56.000Z</Time>
            <Position>
              <LatitudeDegrees>44.62048561312258243560791015625</LatitudeDegrees>
              <LongitudeDegrees>-1.09311617910861968994140625</LongitudeDegrees>
            </Position>
            <AltitudeMeters>4.19999980926513671875</AltitudeMeters>
            <DistanceMeters>NAN</DistanceMeters>
          </Trackpoint>
          <Trackpoint>
            <Time>2022-07-04T16:13:58.000Z</Time>
            <Position>
              <LatitudeDegrees>44.62049248628318309783935546875</LatitudeDegrees>
              <LongitudeDegrees>-1.0931932926177978515625</LongitudeDegrees>
            </Position>
            <AltitudeMeters>4.19999980926513671875</AltitudeMeters>
            <DistanceMeters>NAN</DistanceMeters>
          </Trackpoint>
          <Trackpoint>
            <Time>2022-07-04T16:14:02.000Z</Time>
            <Position>
              <LatitudeDegrees>44.62050757370889186859130859375</LatitudeDegrees>
              <LongitudeDegrees>-1.09335833229124546051025390625</LongitudeDegrees>
            </Position>
            <AltitudeMeters>4.19999980926513671875</AltitudeMeters>
            <DistanceMeters>NAN</DistanceMeters>
          </Trackpoint>
          <Trackpoint>
            <Time>2022-07-04T16:14:03.000Z</Time>
            <Position>
              <LatitudeDegrees>44.6205152012407779693603515625</LatitudeDegrees>
              <LongitudeDegrees>-1.09339152462780475616455078125</LongitudeDegrees>
            </Position>
            <AltitudeMeters>4.19999980926513671875</AltitudeMeters>
            <DistanceMeters>NAN</DistanceMeters>
          </Trackpoint>
          <Trackpoint>
            <Time>2022-07-04T16:14:10.000Z</Time>
            <Position>
              <LatitudeDegrees>44.62058477103710174560546875</LatitudeDegrees>
              <LongitudeDegrees>-1.09369914047420024871826171875</LongitudeDegrees>
            </Position>
            <AltitudeMeters>4.400000095367431640625</AltitudeMeters>
            <DistanceMeters>NAN</DistanceMeters>
          </Trackpoint>
          <Trackpoint>
            <Time>2022-07-04T16:14:11.000Z</Time>
            <Position>
              <LatitudeDegrees>44.62058887816965579986572265625</LatitudeDegrees>
              <LongitudeDegrees>-1.09373786486685276031494140625</LongitudeDegrees>
            </Position>
            <AltitudeMeters>4.400000095367431640625</AltitudeMeters>
            <DistanceMeters>NAN</DistanceMeters>
          </Trackpoint>
          <Trackpoint>
            <Time>2022-07-04T16:14:12.000Z</Time>
            <Position>
              <LatitudeDegrees>44.6205841004848480224609375</LatitudeDegrees>
              <LongitudeDegrees>-1.09376887790858745574951171875</LongitudeDegrees>
            </Position>
            <AltitudeMeters>4.400000095367431640625</AltitudeMeters>
            <DistanceMeters>NAN</DistanceMeters>
          </Trackpoint>
          <Trackpoint>
            <Time>2022-07-04T16:14:14.000Z</Time>
            <Position>
              <LatitudeDegrees>44.6206010319292545318603515625</LatitudeDegrees>
              <LongitudeDegrees>-1.09385319985449314117431640625</LongitudeDegrees>
            </Position>
            <AltitudeMeters>4.400000095367431640625</AltitudeMeters>
            <DistanceMeters>NAN</DistanceMeters>
          </Trackpoint>
          <Trackpoint>
            <Time>2022-07-04T16:14:18.000Z</Time>
            <Position>
              <LatitudeDegrees>44.62065241299569606781005859375</LatitudeDegrees>
              <LongitudeDegrees>-1.0941272042691707611083984375</LongitudeDegrees>
            </Position>
            <AltitudeMeters>4</AltitudeMeters>
            <DistanceMeters>NAN</DistanceMeters>
          </Trackpoint>
          <Trackpoint>
            <Time>2022-07-04T16:14:23.000Z</Time>
            <Position>
              <LatitudeDegrees>44.62068962864577770233154296875</LatitudeDegrees>
              <LongitudeDegrees>-1.09442098997533321380615234375</LongitudeDegrees>
            </Position>
            <AltitudeMeters>4.19999980926513671875</AltitudeMeters>
            <DistanceMeters>NAN</DistanceMeters>
          </Trackpoint>
          <Trackpoint>
            <Time>2022-07-04T16:14:27.000Z</Time>
            <Position>
              <LatitudeDegrees>44.62072064168751239776611328125</LatitudeDegrees>
              <LongitudeDegrees>-1.0945764742791652679443359375</LongitudeDegrees>
            </Position>
            <AltitudeMeters>4.400000095367431640625</AltitudeMeters>
            <DistanceMeters>NAN</DistanceMeters>
          </Trackpoint>
          <Trackpoint>
            <Time>2022-07-04T16:14:29.000Z</Time>
            <Position>
              <LatitudeDegrees>44.6207237429916858673095703125</LatitudeDegrees>
              <LongitudeDegrees>-1.0946646519005298614501953125</LongitudeDegrees>
            </Position>
            <AltitudeMeters>3.7999999523162841796875</AltitudeMeters>
            <DistanceMeters>NAN</DistanceMeters>
          </Trackpoint>
          <Trackpoint>
            <Time>2022-07-04T16:14:32.000Z</Time>
            <Position>
              <LatitudeDegrees>44.620748721063137054443359375</LatitudeDegrees>
              <LongitudeDegrees>-1.09480060636997222900390625</LongitudeDegrees>
            </Position>
            <AltitudeMeters>3.599999904632568359375</AltitudeMeters>
            <DistanceMeters>NAN</DistanceMeters>
          </Trackpoint>
          <Trackpoint>
            <Time>2022-07-04T16:14:35.000Z</Time>
            <Position>
              <LatitudeDegrees>44.62080714292824268341064453125</LatitudeDegrees>
              <LongitudeDegrees>-1.09491468407213687896728515625</LongitudeDegrees>
            </Position>
            <AltitudeMeters>4.400000095367431640625</AltitudeMeters>
            <DistanceMeters>NAN</DistanceMeters>
          </Trackpoint>
          <Trackpoint>
            <Time>2022-07-04T16:14:37.000Z</Time>
            <Position>
              <LatitudeDegrees>44.620816446840763092041015625</LatitudeDegrees>
              <LongitudeDegrees>-1.0949767939746379852294921875</LongitudeDegrees>
            </Position>
            <AltitudeMeters>4.599999904632568359375</AltitudeMeters>
            <DistanceMeters>NAN</DistanceMeters>
          </Trackpoint>
          <Trackpoint>
            <Time>2022-07-04T16:14:39.000Z</Time>
            <Position>
              <LatitudeDegrees>44.6208469569683074951171875</LatitudeDegrees>
              <LongitudeDegrees>-1.09506287612020969390869140625</LongitudeDegrees>
            </Position>
            <AltitudeMeters>4.80000019073486328125</AltitudeMeters>
            <DistanceMeters>NAN</DistanceMeters>
          </Trackpoint>
          <Trackpoint>
            <Time>2022-07-04T16:14:42.000Z</Time>
            <Position>
              <LatitudeDegrees>44.62085835635662078857421875</LatitudeDegrees>
              <LongitudeDegrees>-1.09518575482070446014404296875</LongitudeDegrees>
            </Position>
            <AltitudeMeters>4.599999904632568359375</AltitudeMeters>
            <DistanceMeters>NAN</DistanceMeters>
          </Trackpoint>
          <Trackpoint>
            <Time>2022-07-04T16:14:43.000Z</Time>
            <Position>
              <LatitudeDegrees>44.62087042629718780517578125</LatitudeDegrees>
              <LongitudeDegrees>-1.0952188633382320404052734375</LongitudeDegrees>
            </Position>
            <AltitudeMeters>4.400000095367431640625</AltitudeMeters>
            <DistanceMeters>NAN</DistanceMeters>
          </Trackpoint>
          <Trackpoint>
            <Time>2022-07-04T16:14:49.000Z</Time>
            <Position>
              <LatitudeDegrees>44.620923735201358795166015625</LatitudeDegrees>
              <LongitudeDegrees>-1.09545598737895488739013671875</LongitudeDegrees>
            </Position>
            <AltitudeMeters>4.400000095367431640625</AltitudeMeters>
            <DistanceMeters>NAN</DistanceMeters>
          </Trackpoint>
          <Trackpoint>
            <Time>2022-07-04T16:14:52.000Z</Time>
            <Position>
              <LatitudeDegrees>44.62094527669250965118408203125</LatitudeDegrees>
              <LongitudeDegrees>-1.09559546224772930145263671875</LongitudeDegrees>
            </Position>
            <AltitudeMeters>4.599999904632568359375</AltitudeMeters>
            <DistanceMeters>NAN</DistanceMeters>
          </Trackpoint>
          <Trackpoint>
            <Time>2022-07-04T16:14:56.000Z</Time>
            <Position>
              <LatitudeDegrees>44.62098500691354274749755859375</LatitudeDegrees>
              <LongitudeDegrees>-1.09578388743102550506591796875</LongitudeDegrees>
            </Position>
            <AltitudeMeters>4.599999904632568359375</AltitudeMeters>
            <DistanceMeters>NAN</DistanceMeters>
          </Trackpoint>
          <Trackpoint>
            <Time>2022-07-04T16:15:02.000Z</Time>
            <Position>
              <LatitudeDegrees>44.62103898636996746063232421875</LatitudeDegrees>
              <LongitudeDegrees>-1.096074990928173065185546875</LongitudeDegrees>
            </Position>
            <AltitudeMeters>4.80000019073486328125</AltitudeMeters>
            <DistanceMeters>NAN</DistanceMeters>
          </Trackpoint>
          <Trackpoint>
            <Time>2022-07-04T16:15:03.000Z</Time>
            <Position>
              <LatitudeDegrees>44.62104552425444126129150390625</LatitudeDegrees>
              <LongitudeDegrees>-1.09611815772950649261474609375</LongitudeDegrees>
            </Position>
            <AltitudeMeters>4.80000019073486328125</AltitudeMeters>
            <DistanceMeters>NAN</DistanceMeters>
          </Trackpoint>
          <Trackpoint>
            <Time>2022-07-04T16:15:08.000Z</Time>
            <Position>
              <LatitudeDegrees>44.621079303324222564697265625</LatitudeDegrees>
              <LongitudeDegrees>-1.09629384241998195648193359375</LongitudeDegrees>
            </Position>
            <AltitudeMeters>4.80000019073486328125</AltitudeMeters>
            <DistanceMeters>NAN</DistanceMeters>
          </Trackpoint>
          <Trackpoint>
            <Time>2022-07-04T16:15:10.000Z</Time>
            <Position>
              <LatitudeDegrees>44.6210878528654575347900390625</LatitudeDegrees>
              <LongitudeDegrees>-1.09634958207607269287109375</LongitudeDegrees>
            </Position>
            <AltitudeMeters>4.80000019073486328125</AltitudeMeters>
            <DistanceMeters>NAN</DistanceMeters>
          </Trackpoint>
          <Trackpoint>
            <Time>2022-07-04T16:15:12.000Z</Time>
            <Position>
              <LatitudeDegrees>44.6210912056267261505126953125</LatitudeDegrees>
              <LongitudeDegrees>-1.09640280716121196746826171875</LongitudeDegrees>
            </Position>
            <AltitudeMeters>4.80000019073486328125</AltitudeMeters>
            <DistanceMeters>NAN</DistanceMeters>
          </Trackpoint>
          <Trackpoint>
            <Time>2022-07-04T16:15:14.000Z</Time>
            <Position>
              <LatitudeDegrees>44.6211071312427520751953125</LatitudeDegrees>
              <LongitudeDegrees>-1.09647807665169239044189453125</LongitudeDegrees>
            </Position>
            <AltitudeMeters>4.80000019073486328125</AltitudeMeters>
            <DistanceMeters>NAN</DistanceMeters>
          </Trackpoint>
          <Trackpoint>
            <Time>2022-07-04T16:15:15.000Z</Time>
            <Position>
              <LatitudeDegrees>44.621113836765289306640625</LatitudeDegrees>
              <LongitudeDegrees>-1.0965281166136264801025390625</LongitudeDegrees>
            </Position>
            <AltitudeMeters>4.80000019073486328125</AltitudeMeters>
            <DistanceMeters>NAN</DistanceMeters>
          </Trackpoint>
          <Trackpoint>
            <Time>2022-07-04T16:15:17.000Z</Time>
            <Position>
              <LatitudeDegrees>44.62112749926745891571044921875</LatitudeDegrees>
              <LongitudeDegrees>-1.09662308357656002044677734375</LongitudeDegrees>
            </Position>
            <AltitudeMeters>4.80000019073486328125</AltitudeMeters>
            <DistanceMeters>NAN</DistanceMeters>
          </Trackpoint>
          <Trackpoint>
            <Time>2022-07-04T16:15:18.000Z</Time>
            <Position>
              <LatitudeDegrees>44.6211364679038524627685546875</LatitudeDegrees>
              <LongitudeDegrees>-1.09667622484266757965087890625</LongitudeDegrees>
            </Position>
            <AltitudeMeters>4.80000019073486328125</AltitudeMeters>
            <DistanceMeters>NAN</DistanceMeters>
          </Trackpoint>
          <Trackpoint>
            <Time>2022-07-04T16:15:19.000Z</Time>
            <Position>
              <LatitudeDegrees>44.6211411617696285247802734375</LatitudeDegrees>
              <LongitudeDegrees>-1.0967272706329822540283203125</LongitudeDegrees>
            </Position>
            <AltitudeMeters>5</AltitudeMeters>
            <DistanceMeters>NAN</DistanceMeters>
          </Trackpoint>
          <Trackpoint>
            <Time>2022-07-04T16:15:20.000Z</Time>
            <Position>
              <LatitudeDegrees>44.6211438439786434173583984375</LatitudeDegrees>
              <LongitudeDegrees>-1.0967782326042652130126953125</LongitudeDegrees>
            </Position>
            <AltitudeMeters>5</AltitudeMeters>
            <DistanceMeters>NAN</DistanceMeters>
          </Trackpoint>
          <Trackpoint>
            <Time>2022-07-04T16:15:22.000Z</Time>
            <Position>
              <LatitudeDegrees>44.62116186507046222686767578125</LatitudeDegrees>
              <LongitudeDegrees>-1.0968717746436595916748046875</LongitudeDegrees>
            </Position>
            <AltitudeMeters>5</AltitudeMeters>
            <DistanceMeters>NAN</DistanceMeters>
          </Trackpoint>
          <Trackpoint>
            <Time>2022-07-04T16:15:23.000Z</Time>
            <Position>
              <LatitudeDegrees>44.6211646310985088348388671875</LatitudeDegrees>
              <LongitudeDegrees>-1.09691343270242214202880859375</LongitudeDegrees>
            </Position>
            <AltitudeMeters>5</AltitudeMeters>
            <DistanceMeters>NAN</DistanceMeters>
          </Trackpoint>
          <Trackpoint>
            <Time>2022-07-04T16:15:28.000Z</Time>
            <Position>
              <LatitudeDegrees>44.62118449620902538299560546875</LatitudeDegrees>
              <LongitudeDegrees>-1.09715181402862071990966796875</LongitudeDegrees>
            </Position>
            <AltitudeMeters>5</AltitudeMeters>
            <DistanceMeters>NAN</DistanceMeters>
          </Trackpoint>
          <Trackpoint>
            <Time>2022-07-04T16:15:34.000Z</Time>
            <Position>
              <LatitudeDegrees>44.62121500633656978607177734375</LatitudeDegrees>
              <LongitudeDegrees>-1.09736152924597263336181640625</LongitudeDegrees>
            </Position>
            <AltitudeMeters>5</AltitudeMeters>
            <DistanceMeters>NAN</DistanceMeters>
          </Trackpoint>
          <Trackpoint>
            <Time>2022-07-04T16:15:36.000Z</Time>
            <Position>
              <LatitudeDegrees>44.62121718563139438629150390625</LatitudeDegrees>
              <LongitudeDegrees>-1.09741819091141223907470703125</LongitudeDegrees>
            </Position>
            <AltitudeMeters>5.19999980926513671875</AltitudeMeters>
            <DistanceMeters>NAN</DistanceMeters>
          </Trackpoint>
          <Trackpoint>
            <Time>2022-07-04T16:15:39.000Z</Time>
            <Position>
              <LatitudeDegrees>44.6212930418550968170166015625</LatitudeDegrees>
              <LongitudeDegrees>-1.0976234637200832366943359375</LongitudeDegrees>
            </Position>
            <AltitudeMeters>5</AltitudeMeters>
            <DistanceMeters>NAN</DistanceMeters>
          </Trackpoint>
          <Trackpoint>
            <Time>2022-07-04T16:15:45.000Z</Time>
            <Position>
              <LatitudeDegrees>44.621401168406009674072265625</LatitudeDegrees>
              <LongitudeDegrees>-1.0979614220559597015380859375</LongitudeDegrees>
            </Position>
            <AltitudeMeters>5</AltitudeMeters>
            <DistanceMeters>NAN</DistanceMeters>
          </Trackpoint>
          <Trackpoint>
            <Time>2022-07-04T16:15:46.000Z</Time>
            <Position>
              <LatitudeDegrees>44.62142203934490680694580078125</LatitudeDegrees>
              <LongitudeDegrees>-1.09800718724727630615234375</LongitudeDegrees>
            </Position>
            <AltitudeMeters>5</AltitudeMeters>
            <DistanceMeters>NAN</DistanceMeters>
          </Trackpoint>
          <Trackpoint>
            <Time>2022-07-04T16:15:47.000Z</Time>
            <Position>
              <LatitudeDegrees>44.62145003490149974822998046875</LatitudeDegrees>
              <LongitudeDegrees>-1.098047085106372833251953125</LongitudeDegrees>
            </Position>
            <AltitudeMeters>5</AltitudeMeters>
            <DistanceMeters>NAN</DistanceMeters>
          </Trackpoint>
          <Trackpoint>
            <Time>2022-07-04T16:15:50.000Z</Time>
            <Position>
              <LatitudeDegrees>44.6214885078370571136474609375</LatitudeDegrees>
              <LongitudeDegrees>-1.09814389608800411224365234375</LongitudeDegrees>
            </Position>
            <AltitudeMeters>5</AltitudeMeters>
            <DistanceMeters>NAN</DistanceMeters>
          </Trackpoint>
          <Trackpoint>
            <Time>2022-07-04T16:15:57.000Z</Time>
            <Position>
              <LatitudeDegrees>44.621570818126201629638671875</LatitudeDegrees>
              <LongitudeDegrees>-1.09842871315777301788330078125</LongitudeDegrees>
            </Position>
            <AltitudeMeters>5.19999980926513671875</AltitudeMeters>
            <DistanceMeters>NAN</DistanceMeters>
          </Trackpoint>
          <Trackpoint>
            <Time>2022-07-04T16:16:03.000Z</Time>
            <Position>
              <LatitudeDegrees>44.6216249652206897735595703125</LatitudeDegrees>
              <LongitudeDegrees>-1.09882383607327938079833984375</LongitudeDegrees>
            </Position>
            <AltitudeMeters>5.19999980926513671875</AltitudeMeters>
            <DistanceMeters>NAN</DistanceMeters>
          </Trackpoint>
          <Trackpoint>
            <Time>2022-07-04T16:16:04.000Z</Time>
            <Position>
              <LatitudeDegrees>44.6216516196727752685546875</LatitudeDegrees>
              <LongitudeDegrees>-1.09885971061885356903076171875</LongitudeDegrees>
            </Position>
            <AltitudeMeters>5.19999980926513671875</AltitudeMeters>
            <DistanceMeters>NAN</DistanceMeters>
          </Trackpoint>
          <Trackpoint>
            <Time>2022-07-04T16:16:07.000Z</Time>
            <Position>
              <LatitudeDegrees>44.62171255610883235931396484375</LatitudeDegrees>
              <LongitudeDegrees>-1.09898082911968231201171875</LongitudeDegrees>
            </Position>
            <AltitudeMeters>5.400000095367431640625</AltitudeMeters>
            <DistanceMeters>NAN</DistanceMeters>
          </Trackpoint>
          <Trackpoint>
            <Time>2022-07-04T16:16:11.000Z</Time>
            <Position>
              <LatitudeDegrees>44.62173652835190296173095703125</LatitudeDegrees>
              <LongitudeDegrees>-1.09909406863152980804443359375</LongitudeDegrees>
            </Position>
            <AltitudeMeters>5.400000095367431640625</AltitudeMeters>
            <DistanceMeters>NAN</DistanceMeters>
          </Trackpoint>
          <Trackpoint>
            <Time>2022-07-04T16:16:12.000Z</Time>
            <Position>
              <LatitudeDegrees>44.62173736654222011566162109375</LatitudeDegrees>
              <LongitudeDegrees>-1.09912474639713764190673828125</LongitudeDegrees>
            </Position>
            <AltitudeMeters>5.400000095367431640625</AltitudeMeters>
            <DistanceMeters>NAN</DistanceMeters>
          </Trackpoint>
          <Trackpoint>
            <Time>2022-07-04T16:16:18.000Z</Time>
            <Position>
              <LatitudeDegrees>44.62179050780832767486572265625</LatitudeDegrees>
              <LongitudeDegrees>-1.099384166300296783447265625</LongitudeDegrees>
            </Position>
            <AltitudeMeters>5.19999980926513671875</AltitudeMeters>
            <DistanceMeters>NAN</DistanceMeters>
          </Trackpoint>
          <Trackpoint>
            <Time>2022-07-04T16:16:19.000Z</Time>
            <Position>
              <LatitudeDegrees>44.62180324830114841461181640625</LatitudeDegrees>
              <LongitudeDegrees>-1.0994222201406955718994140625</LongitudeDegrees>
            </Position>
            <AltitudeMeters>5.19999980926513671875</AltitudeMeters>
            <DistanceMeters>NAN</DistanceMeters>
          </Trackpoint>
          <Trackpoint>
            <Time>2022-07-04T16:16:20.000Z</Time>
            <Position>
              <LatitudeDegrees>44.62181380949914455413818359375</LatitudeDegrees>
              <LongitudeDegrees>-1.09946488402783870697021484375</LongitudeDegrees>
            </Position>
            <AltitudeMeters>5.19999980926513671875</AltitudeMeters>
            <DistanceMeters>NAN</DistanceMeters>
          </Trackpoint>
          <Trackpoint>
            <Time>2022-07-04T16:16:24.000Z</Time>
            <Position>
              <LatitudeDegrees>44.62182235904037952423095703125</LatitudeDegrees>
              <LongitudeDegrees>-1.09960041940212249755859375</LongitudeDegrees>
            </Position>
            <AltitudeMeters>5.19999980926513671875</AltitudeMeters>
            <DistanceMeters>NAN</DistanceMeters>
          </Trackpoint>
          <Trackpoint>
            <Time>2022-07-04T16:16:25.000Z</Time>
            <Position>
              <LatitudeDegrees>44.62183459661900997161865234375</LatitudeDegrees>
              <LongitudeDegrees>-1.09963101334869861602783203125</LongitudeDegrees>
            </Position>
            <AltitudeMeters>5.400000095367431640625</AltitudeMeters>
            <DistanceMeters>NAN</DistanceMeters>
          </Trackpoint>
          <Trackpoint>
            <Time>2022-07-04T16:16:29.000Z</Time>
            <Position>
              <LatitudeDegrees>44.62186963297426700592041015625</LatitudeDegrees>
              <LongitudeDegrees>-1.09979043714702129364013671875</LongitudeDegrees>
            </Position>
            <AltitudeMeters>5.400000095367431640625</AltitudeMeters>
            <DistanceMeters>NAN</DistanceMeters>
          </Trackpoint>
          <Trackpoint>
            <Time>2022-07-04T16:16:36.000Z</Time>
            <Position>
              <LatitudeDegrees>44.62193191051483154296875</LatitudeDegrees>
              <LongitudeDegrees>-1.100145913660526275634765625</LongitudeDegrees>
            </Position>
            <AltitudeMeters>5.400000095367431640625</AltitudeMeters>
            <DistanceMeters>NAN</DistanceMeters>
          </Trackpoint>
          <Trackpoint>
            <Time>2022-07-04T16:16:40.000Z</Time>
            <Position>
              <LatitudeDegrees>44.62204179726541042327880859375</LatitudeDegrees>
              <LongitudeDegrees>-1.10031715594232082366943359375</LongitudeDegrees>
            </Position>
            <AltitudeMeters>5.599999904632568359375</AltitudeMeters>
            <DistanceMeters>NAN</DistanceMeters>
          </Trackpoint>
          <Trackpoint>
            <Time>2022-07-04T16:16:45.000Z</Time>
            <Position>
              <LatitudeDegrees>44.62212578393518924713134765625</LatitudeDegrees>
              <LongitudeDegrees>-1.1005004681646823883056640625</LongitudeDegrees>
            </Position>
            <AltitudeMeters>5.599999904632568359375</AltitudeMeters>
            <DistanceMeters>NAN</DistanceMeters>
          </Trackpoint>
          <Trackpoint>
            <Time>2022-07-04T16:16:46.000Z</Time>
            <Position>
              <LatitudeDegrees>44.62213668040931224822998046875</LatitudeDegrees>
              <LongitudeDegrees>-1.100530810654163360595703125</LongitudeDegrees>
            </Position>
            <AltitudeMeters>5.599999904632568359375</AltitudeMeters>
            <DistanceMeters>NAN</DistanceMeters>
          </Trackpoint>
          <Trackpoint>
            <Time>2022-07-04T16:16:53.000Z</Time>
            <Position>
              <LatitudeDegrees>44.62219736538827419281005859375</LatitudeDegrees>
              <LongitudeDegrees>-1.100832559168338775634765625</LongitudeDegrees>
            </Position>
            <AltitudeMeters>5.400000095367431640625</AltitudeMeters>
            <DistanceMeters>NAN</DistanceMeters>
          </Trackpoint>
          <Trackpoint>
            <Time>2022-07-04T16:16:56.000Z</Time>
            <Position>
              <LatitudeDegrees>44.622187726199626922607421875</LatitudeDegrees>
              <LongitudeDegrees>-1.10095183365046977996826171875</LongitudeDegrees>
            </Position>
            <AltitudeMeters>5.400000095367431640625</AltitudeMeters>
            <DistanceMeters>NAN</DistanceMeters>
          </Trackpoint>
          <Trackpoint>
            <Time>2022-07-04T16:16:57.000Z</Time>
            <Position>
              <LatitudeDegrees>44.62218940258026123046875</LatitudeDegrees>
              <LongitudeDegrees>-1.10100313089787960052490234375</LongitudeDegrees>
            </Position>
            <AltitudeMeters>5.400000095367431640625</AltitudeMeters>
            <DistanceMeters>NAN</DistanceMeters>
          </Trackpoint>
          <Trackpoint>
            <Time>2022-07-04T16:17:00.000Z</Time>
            <Position>
              <LatitudeDegrees>44.622205160558223724365234375</LatitudeDegrees>
              <LongitudeDegrees>-1.10113405622541904449462890625</LongitudeDegrees>
            </Position>
            <AltitudeMeters>5.599999904632568359375</AltitudeMeters>
            <DistanceMeters>NAN</DistanceMeters>
          </Trackpoint>
          <Trackpoint>
            <Time>2022-07-04T16:17:04.000Z</Time>
            <Position>
              <LatitudeDegrees>44.622236005961894989013671875</LatitudeDegrees>
              <LongitudeDegrees>-1.10128291882574558258056640625</LongitudeDegrees>
            </Position>
            <AltitudeMeters>5.599999904632568359375</AltitudeMeters>
            <DistanceMeters>NAN</DistanceMeters>
          </Trackpoint>
          <Trackpoint>
            <Time>2022-07-04T16:17:05.000Z</Time>
            <Position>
              <LatitudeDegrees>44.6222455613315105438232421875</LatitudeDegrees>
              <LongitudeDegrees>-1.10131510533392429351806640625</LongitudeDegrees>
            </Position>
            <AltitudeMeters>5.599999904632568359375</AltitudeMeters>
            <DistanceMeters>NAN</DistanceMeters>
          </Trackpoint>
          <Trackpoint>
            <Time>2022-07-04T16:17:09.000Z</Time>
            <Position>
              <LatitudeDegrees>44.6223102696239948272705078125</LatitudeDegrees>
              <LongitudeDegrees>-1.1014771275222301483154296875</LongitudeDegrees>
            </Position>
            <AltitudeMeters>5.599999904632568359375</AltitudeMeters>
            <DistanceMeters>NAN</DistanceMeters>
          </Trackpoint>
          <Trackpoint>
            <Time>2022-07-04T16:17:16.000Z</Time>
            <Position>
              <LatitudeDegrees>44.62240196764469146728515625</LatitudeDegrees>
              <LongitudeDegrees>-1.101839058101177215576171875</LongitudeDegrees>
            </Position>
            <AltitudeMeters>5.400000095367431640625</AltitudeMeters>
            <DistanceMeters>NAN</DistanceMeters>
          </Trackpoint>
          <Trackpoint>
            <Time>2022-07-04T16:17:22.000Z</Time>
            <Position>
              <LatitudeDegrees>44.62252543307840824127197265625</LatitudeDegrees>
              <LongitudeDegrees>-1.10207065008580684661865234375</LongitudeDegrees>
            </Position>
            <AltitudeMeters>5.400000095367431640625</AltitudeMeters>
            <DistanceMeters>NAN</DistanceMeters>
          </Trackpoint>
          <Trackpoint>
            <Time>2022-07-04T16:17:26.000Z</Time>
            <Position>
              <LatitudeDegrees>44.62252023629844188690185546875</LatitudeDegrees>
              <LongitudeDegrees>-1.1022760905325412750244140625</LongitudeDegrees>
            </Position>
            <AltitudeMeters>5.400000095367431640625</AltitudeMeters>
            <DistanceMeters>NAN</DistanceMeters>
          </Trackpoint>
          <Trackpoint>
            <Time>2022-07-04T16:17:28.000Z</Time>
            <Position>
              <LatitudeDegrees>44.6225957572460174560546875</LatitudeDegrees>
              <LongitudeDegrees>-1.10235831700265407562255859375</LongitudeDegrees>
            </Position>
            <AltitudeMeters>5.599999904632568359375</AltitudeMeters>
            <DistanceMeters>NAN</DistanceMeters>
          </Trackpoint>
          <Trackpoint>
            <Time>2022-07-04T16:17:33.000Z</Time>
            <Position>
              <LatitudeDegrees>44.622641690075397491455078125</LatitudeDegrees>
              <LongitudeDegrees>-1.1025858856737613677978515625</LongitudeDegrees>
            </Position>
            <AltitudeMeters>5.599999904632568359375</AltitudeMeters>
            <DistanceMeters>NAN</DistanceMeters>
          </Trackpoint>
          <Trackpoint>
            <Time>2022-07-04T16:17:34.000Z</Time>
            <Position>
              <LatitudeDegrees>44.62263959459960460662841796875</LatitudeDegrees>
              <LongitudeDegrees>-1.10262192785739898681640625</LongitudeDegrees>
            </Position>
            <AltitudeMeters>5.599999904632568359375</AltitudeMeters>
            <DistanceMeters>NAN</DistanceMeters>
          </Trackpoint>
          <Trackpoint>
            <Time>2022-07-04T16:17:39.000Z</Time>
            <Position>
              <LatitudeDegrees>44.6226499043405055999755859375</LatitudeDegrees>
              <LongitudeDegrees>-1.10282041132450103759765625</LongitudeDegrees>
            </Position>
            <AltitudeMeters>5.400000095367431640625</AltitudeMeters>
            <DistanceMeters>NAN</DistanceMeters>
          </Trackpoint>
          <Trackpoint>
            <Time>2022-07-04T16:17:44.000Z</Time>
            <Position>
              <LatitudeDegrees>44.6227219887077808380126953125</LatitudeDegrees>
              <LongitudeDegrees>-1.1029771529138088226318359375</LongitudeDegrees>
            </Position>
            <AltitudeMeters>5.400000095367431640625</AltitudeMeters>
            <DistanceMeters>NAN</DistanceMeters>
          </Trackpoint>
          <Trackpoint>
            <Time>2022-07-04T16:17:49.000Z</Time>
            <Position>
              <LatitudeDegrees>44.622868001461029052734375</LatitudeDegrees>
              <LongitudeDegrees>-1.10327546484768390655517578125</LongitudeDegrees>
            </Position>
            <AltitudeMeters>5.400000095367431640625</AltitudeMeters>
            <DistanceMeters>NAN</DistanceMeters>
          </Trackpoint>
          <Trackpoint>
            <Time>2022-07-04T16:17:53.000Z</Time>
            <Position>
              <LatitudeDegrees>44.6228624694049358367919921875</LatitudeDegrees>
              <LongitudeDegrees>-1.1034569330513477325439453125</LongitudeDegrees>
            </Position>
            <AltitudeMeters>5.599999904632568359375</AltitudeMeters>
            <DistanceMeters>NAN</DistanceMeters>
          </Trackpoint>
          <Trackpoint>
            <Time>2022-07-04T16:17:54.000Z</Time>
            <Position>
              <LatitudeDegrees>44.622866325080394744873046875</LatitudeDegrees>
              <LongitudeDegrees>-1.1035052128136157989501953125</LongitudeDegrees>
            </Position>
            <AltitudeMeters>5.80000019073486328125</AltitudeMeters>
            <DistanceMeters>NAN</DistanceMeters>
          </Trackpoint>
          <Trackpoint>
            <Time>2022-07-04T16:17:58.000Z</Time>
            <Position>
              <LatitudeDegrees>44.622909910976886749267578125</LatitudeDegrees>
              <LongitudeDegrees>-1.10365952365100383758544921875</LongitudeDegrees>
            </Position>
            <AltitudeMeters>6.19999980926513671875</AltitudeMeters>
            <DistanceMeters>NAN</DistanceMeters>
          </Trackpoint>
          <Trackpoint>
            <Time>2022-07-04T16:18:01.000Z</Time>
            <Position>
              <LatitudeDegrees>44.6229704283177852630615234375</LatitudeDegrees>
              <LongitudeDegrees>-1.10378173179924488067626953125</LongitudeDegrees>
            </Position>
            <AltitudeMeters>6</AltitudeMeters>
            <DistanceMeters>NAN</DistanceMeters>
          </Trackpoint>
          <Trackpoint>
            <Time>2022-07-04T16:18:07.000Z</Time>
            <Position>
              <LatitudeDegrees>44.62312356568872928619384765625</LatitudeDegrees>
              <LongitudeDegrees>-1.10400737263262271881103515625</LongitudeDegrees>
            </Position>
            <AltitudeMeters>5.599999904632568359375</AltitudeMeters>
            <DistanceMeters>NAN</DistanceMeters>
          </Trackpoint>
          <Trackpoint>
            <Time>2022-07-04T16:18:15.000Z</Time>
            <Position>
              <LatitudeDegrees>44.6233298443257808685302734375</LatitudeDegrees>
              <LongitudeDegrees>-1.104248352348804473876953125</LongitudeDegrees>
            </Position>
            <AltitudeMeters>6</AltitudeMeters>
            <DistanceMeters>NAN</DistanceMeters>
          </Trackpoint>
          <Trackpoint>
            <Time>2022-07-04T16:18:22.000Z</Time>
            <Position>
              <LatitudeDegrees>44.6235517971217632293701171875</LatitudeDegrees>
              <LongitudeDegrees>-1.1044627614319324493408203125</LongitudeDegrees>
            </Position>
            <AltitudeMeters>5.80000019073486328125</AltitudeMeters>
            <DistanceMeters>NAN</DistanceMeters>
          </Trackpoint>
          <Trackpoint>
            <Time>2022-07-04T16:18:25.000Z</Time>
            <Position>
              <LatitudeDegrees>44.6236429922282695770263671875</LatitudeDegrees>
              <LongitudeDegrees>-1.10452185384929180145263671875</LongitudeDegrees>
            </Position>
            <AltitudeMeters>5.599999904632568359375</AltitudeMeters>
            <DistanceMeters>NAN</DistanceMeters>
          </Trackpoint>
          <Trackpoint>
            <Time>2022-07-04T16:18:27.000Z</Time>
            <Position>
              <LatitudeDegrees>44.62370418012142181396484375</LatitudeDegrees>
              <LongitudeDegrees>-1.10455186106264591217041015625</LongitudeDegrees>
            </Position>
            <AltitudeMeters>5.599999904632568359375</AltitudeMeters>
            <DistanceMeters>NAN</DistanceMeters>
          </Trackpoint>
          <Trackpoint>
            <Time>2022-07-04T16:18:28.000Z</Time>
            <Position>
              <LatitudeDegrees>44.62373510934412479400634765625</LatitudeDegrees>
              <LongitudeDegrees>-1.1045586504042148590087890625</LongitudeDegrees>
            </Position>
            <AltitudeMeters>5.599999904632568359375</AltitudeMeters>
            <DistanceMeters>NAN</DistanceMeters>
          </Trackpoint>
          <Trackpoint>
            <Time>2022-07-04T16:18:33.000Z</Time>
            <Position>
              <LatitudeDegrees>44.6239046752452850341796875</LatitudeDegrees>
              <LongitudeDegrees>-1.1045140586793422698974609375</LongitudeDegrees>
            </Position>
            <AltitudeMeters>5.599999904632568359375</AltitudeMeters>
            <DistanceMeters>NAN</DistanceMeters>
          </Trackpoint>
          <Trackpoint>
            <Time>2022-07-04T16:18:36.000Z</Time>
            <Position>
              <LatitudeDegrees>44.62398271076381206512451171875</LatitudeDegrees>
              <LongitudeDegrees>-1.10455018468201160430908203125</LongitudeDegrees>
            </Position>
            <AltitudeMeters>5.19999980926513671875</AltitudeMeters>
            <DistanceMeters>NAN</DistanceMeters>
          </Trackpoint>
          <Trackpoint>
            <Time>2022-07-04T16:18:37.000Z</Time>
            <Position>
              <LatitudeDegrees>44.6239973790943622589111328125</LatitudeDegrees>
              <LongitudeDegrees>-1.10458270646631717681884765625</LongitudeDegrees>
            </Position>
            <AltitudeMeters>5.19999980926513671875</AltitudeMeters>
            <DistanceMeters>NAN</DistanceMeters>
          </Trackpoint>
          <Trackpoint>
            <Time>2022-07-04T16:18:39.000Z</Time>
            <Position>
              <LatitudeDegrees>44.62403937242925167083740234375</LatitudeDegrees>
              <LongitudeDegrees>-1.1046548746526241302490234375</LongitudeDegrees>
            </Position>
            <AltitudeMeters>5</AltitudeMeters>
            <DistanceMeters>NAN</DistanceMeters>
          </Trackpoint>
          <Trackpoint>
            <Time>2022-07-04T16:18:43.000Z</Time>
            <Position>
              <LatitudeDegrees>44.6241123788058757781982421875</LatitudeDegrees>
              <LongitudeDegrees>-1.10482544638216495513916015625</LongitudeDegrees>
            </Position>
            <AltitudeMeters>4.80000019073486328125</AltitudeMeters>
            <DistanceMeters>NAN</DistanceMeters>
          </Trackpoint>
          <Trackpoint>
            <Time>2022-07-04T16:18:48.000Z</Time>
            <Position>
              <LatitudeDegrees>44.62416711263358592987060546875</LatitudeDegrees>
              <LongitudeDegrees>-1.10501688905060291290283203125</LongitudeDegrees>
            </Position>
            <AltitudeMeters>4.80000019073486328125</AltitudeMeters>
            <DistanceMeters>NAN</DistanceMeters>
          </Trackpoint>
          <Trackpoint>
            <Time>2022-07-04T16:18:53.000Z</Time>
            <Position>
              <LatitudeDegrees>44.62430097162723541259765625</LatitudeDegrees>
              <LongitudeDegrees>-1.10526180826127529144287109375</LongitudeDegrees>
            </Position>
            <AltitudeMeters>4.599999904632568359375</AltitudeMeters>
            <DistanceMeters>NAN</DistanceMeters>
          </Trackpoint>
          <Trackpoint>
            <Time>2022-07-04T16:18:54.000Z</Time>
            <Position>
              <LatitudeDegrees>44.624324776232242584228515625</LatitudeDegrees>
              <LongitudeDegrees>-1.1053130216896533966064453125</LongitudeDegrees>
            </Position>
            <AltitudeMeters>4.599999904632568359375</AltitudeMeters>
            <DistanceMeters>NAN</DistanceMeters>
          </Trackpoint>
          <Trackpoint>
            <Time>2022-07-04T16:18:59.000Z</Time>
            <Position>
              <LatitudeDegrees>44.62444438599050045013427734375</LatitudeDegrees>
              <LongitudeDegrees>-1.10550639219582080841064453125</LongitudeDegrees>
            </Position>
            <AltitudeMeters>4.599999904632568359375</AltitudeMeters>
            <DistanceMeters>NAN</DistanceMeters>
          </Trackpoint>
          <Trackpoint>
            <Time>2022-07-04T16:19:04.000Z</Time>
            <Position>
              <LatitudeDegrees>44.6245522610843181610107421875</LatitudeDegrees>
              <LongitudeDegrees>-1.10577913932502269744873046875</LongitudeDegrees>
            </Position>
            <AltitudeMeters>4.599999904632568359375</AltitudeMeters>
            <DistanceMeters>NAN</DistanceMeters>
          </Trackpoint>
          <Trackpoint>
            <Time>2022-07-04T16:19:11.000Z</Time>
            <Position>
              <LatitudeDegrees>44.624660052359104156494140625</LatitudeDegrees>
              <LongitudeDegrees>-1.1060620285570621490478515625</LongitudeDegrees>
            </Position>
            <AltitudeMeters>4.599999904632568359375</AltitudeMeters>
            <DistanceMeters>NAN</DistanceMeters>
          </Trackpoint>
          <Trackpoint>
            <Time>2022-07-04T16:19:18.000Z</Time>
            <Position>
              <LatitudeDegrees>44.624717719852924346923828125</LatitudeDegrees>
              <LongitudeDegrees>-1.10636117868125438690185546875</LongitudeDegrees>
            </Position>
            <AltitudeMeters>4.599999904632568359375</AltitudeMeters>
            <DistanceMeters>NAN</DistanceMeters>
          </Trackpoint>
          <Trackpoint>
            <Time>2022-07-04T16:19:21.000Z</Time>
            <Position>
              <LatitudeDegrees>44.62476222775876522064208984375</LatitudeDegrees>
              <LongitudeDegrees>-1.10650970600545406341552734375</LongitudeDegrees>
            </Position>
            <AltitudeMeters>4.599999904632568359375</AltitudeMeters>
            <DistanceMeters>NAN</DistanceMeters>
          </Trackpoint>
          <Trackpoint>
            <Time>2022-07-04T16:19:23.000Z</Time>
            <Position>
              <LatitudeDegrees>44.6247779019176959991455078125</LatitudeDegrees>
              <LongitudeDegrees>-1.10659427940845489501953125</LongitudeDegrees>
            </Position>
            <AltitudeMeters>4.599999904632568359375</AltitudeMeters>
            <DistanceMeters>NAN</DistanceMeters>
          </Trackpoint>
          <Trackpoint>
            <Time>2022-07-04T16:19:24.000Z</Time>
            <Position>
              <LatitudeDegrees>44.624781422317028045654296875</LatitudeDegrees>
              <LongitudeDegrees>-1.10663677565753459930419921875</LongitudeDegrees>
            </Position>
            <AltitudeMeters>4.400000095367431640625</AltitudeMeters>
            <DistanceMeters>NAN</DistanceMeters>
          </Trackpoint>
          <Trackpoint>
            <Time>2022-07-04T16:19:26.000Z</Time>
            <Position>
              <LatitudeDegrees>44.62476843036711215972900390625</LatitudeDegrees>
              <LongitudeDegrees>-1.10672646202147006988525390625</LongitudeDegrees>
            </Position>
            <AltitudeMeters>4.400000095367431640625</AltitudeMeters>
            <DistanceMeters>NAN</DistanceMeters>
          </Trackpoint>
          <Trackpoint>
            <Time>2022-07-04T16:19:27.000Z</Time>
            <Position>
              <LatitudeDegrees>44.62475518696010112762451171875</LatitudeDegrees>
              <LongitudeDegrees>-1.10674423165619373321533203125</LongitudeDegrees>
            </Position>
            <AltitudeMeters>4.400000095367431640625</AltitudeMeters>
            <DistanceMeters>NAN</DistanceMeters>
          </Trackpoint>
          <Trackpoint>
            <Time>2022-07-04T16:19:28.000Z</Time>
            <Position>
              <LatitudeDegrees>44.62473892606794834136962890625</LatitudeDegrees>
              <LongitudeDegrees>-1.10674448311328887939453125</LongitudeDegrees>
            </Position>
            <AltitudeMeters>4.400000095367431640625</AltitudeMeters>
            <DistanceMeters>NAN</DistanceMeters>
          </Trackpoint>
          <Trackpoint>
            <Time>2022-07-04T16:19:30.000Z</Time>
            <Position>
              <LatitudeDegrees>44.62467974983155727386474609375</LatitudeDegrees>
              <LongitudeDegrees>-1.1067141406238079071044921875</LongitudeDegrees>
            </Position>
            <AltitudeMeters>4.599999904632568359375</AltitudeMeters>
            <DistanceMeters>NAN</DistanceMeters>
          </Trackpoint>
          <Trackpoint>
            <Time>2022-07-04T16:19:34.000Z</Time>
            <Position>
              <LatitudeDegrees>44.6245457231998443603515625</LatitudeDegrees>
              <LongitudeDegrees>-1.1066866479814052581787109375</LongitudeDegrees>
            </Position>
            <AltitudeMeters>4.80000019073486328125</AltitudeMeters>
            <DistanceMeters>NAN</DistanceMeters>
          </Trackpoint>
          <Trackpoint>
            <Time>2022-07-04T16:19:38.000Z</Time>
            <Position>
              <LatitudeDegrees>44.624434076249599456787109375</LatitudeDegrees>
              <LongitudeDegrees>-1.10667801462113857269287109375</LongitudeDegrees>
            </Position>
            <AltitudeMeters>5.19999980926513671875</AltitudeMeters>
            <DistanceMeters>NAN</DistanceMeters>
          </Trackpoint>
          <Trackpoint>
            <Time>2022-07-04T16:19:46.000Z</Time>
            <Position>
              <LatitudeDegrees>44.6242052502930164337158203125</LatitudeDegrees>
              <LongitudeDegrees>-1.106762923300266265869140625</LongitudeDegrees>
            </Position>
            <AltitudeMeters>5.400000095367431640625</AltitudeMeters>
            <DistanceMeters>NAN</DistanceMeters>
          </Trackpoint>
          <Trackpoint>
            <Time>2022-07-04T16:19:51.000Z</Time>
            <Position>
              <LatitudeDegrees>44.62409737519919872283935546875</LatitudeDegrees>
              <LongitudeDegrees>-1.10683626495301723480224609375</LongitudeDegrees>
            </Position>
            <AltitudeMeters>5.599999904632568359375</AltitudeMeters>
            <DistanceMeters>NAN</DistanceMeters>
          </Trackpoint>
          <Trackpoint>
            <Time>2022-07-04T16:19:57.000Z</Time>
            <Position>
              <LatitudeDegrees>44.62391850538551807403564453125</LatitudeDegrees>
              <LongitudeDegrees>-1.10702385194599628448486328125</LongitudeDegrees>
            </Position>
            <AltitudeMeters>5.599999904632568359375</AltitudeMeters>
            <DistanceMeters>NAN</DistanceMeters>
          </Trackpoint>
          <Trackpoint>
            <Time>2022-07-04T16:20:00.000Z</Time>
            <Position>
              <LatitudeDegrees>44.6238297410309314727783203125</LatitudeDegrees>
              <LongitudeDegrees>-1.10714052803814411163330078125</LongitudeDegrees>
            </Position>
            <AltitudeMeters>5.599999904632568359375</AltitudeMeters>
            <DistanceMeters>NAN</DistanceMeters>
          </Trackpoint>
          <Trackpoint>
            <Time>2022-07-04T16:20:03.000Z</Time>
            <Position>
              <LatitudeDegrees>44.62377249263226985931396484375</LatitudeDegrees>
              <LongitudeDegrees>-1.1072492413222789764404296875</LongitudeDegrees>
            </Position>
            <AltitudeMeters>5.80000019073486328125</AltitudeMeters>
            <DistanceMeters>NAN</DistanceMeters>
          </Trackpoint>
          <Trackpoint>
            <Time>2022-07-04T16:20:05.000Z</Time>
            <Position>
              <LatitudeDegrees>44.62373293004930019378662109375</LatitudeDegrees>
              <LongitudeDegrees>-1.10731621272861957550048828125</LongitudeDegrees>
            </Position>
            <AltitudeMeters>5.80000019073486328125</AltitudeMeters>
            <DistanceMeters>NAN</DistanceMeters>
          </Trackpoint>
          <Trackpoint>
            <Time>2022-07-04T16:20:07.000Z</Time>
            <Position>
              <LatitudeDegrees>44.6237023361027240753173828125</LatitudeDegrees>
              <LongitudeDegrees>-1.107373125851154327392578125</LongitudeDegrees>
            </Position>
            <AltitudeMeters>5.599999904632568359375</AltitudeMeters>
            <DistanceMeters>NAN</DistanceMeters>
          </Trackpoint>
          <Trackpoint>
            <Time>2022-07-04T16:20:08.000Z</Time>
            <Position>
              <LatitudeDegrees>44.623683057725429534912109375</LatitudeDegrees>
              <LongitudeDegrees>-1.107410006225109100341796875</LongitudeDegrees>
            </Position>
            <AltitudeMeters>5.599999904632568359375</AltitudeMeters>
            <DistanceMeters>NAN</DistanceMeters>
          </Trackpoint>
          <Trackpoint>
            <Time>2022-07-04T16:20:09.000Z</Time>
            <Position>
              <LatitudeDegrees>44.62366503663361072540283203125</LatitudeDegrees>
              <LongitudeDegrees>-1.107447557151317596435546875</LongitudeDegrees>
            </Position>
            <AltitudeMeters>5.599999904632568359375</AltitudeMeters>
            <DistanceMeters>NAN</DistanceMeters>
          </Trackpoint>
          <Trackpoint>
            <Time>2022-07-04T16:20:11.000Z</Time>
            <Position>
              <LatitudeDegrees>44.6236463449895381927490234375</LatitudeDegrees>
              <LongitudeDegrees>-1.1075338907539844512939453125</LongitudeDegrees>
            </Position>
            <AltitudeMeters>5.599999904632568359375</AltitudeMeters>
            <DistanceMeters>NAN</DistanceMeters>
          </Trackpoint>
          <Trackpoint>
            <Time>2022-07-04T16:20:14.000Z</Time>
            <Position>
              <LatitudeDegrees>44.62360183708369731903076171875</LatitudeDegrees>
              <LongitudeDegrees>-1.10768250189721584320068359375</LongitudeDegrees>
            </Position>
            <AltitudeMeters>5.599999904632568359375</AltitudeMeters>
            <DistanceMeters>NAN</DistanceMeters>
          </Trackpoint>
          <Trackpoint>
            <Time>2022-07-04T16:20:17.000Z</Time>
            <Position>
              <LatitudeDegrees>44.62352941744029521942138671875</LatitudeDegrees>
              <LongitudeDegrees>-1.1078205518424510955810546875</LongitudeDegrees>
            </Position>
            <AltitudeMeters>5.400000095367431640625</AltitudeMeters>
            <DistanceMeters>NAN</DistanceMeters>
          </Trackpoint>
          <Trackpoint>
            <Time>2022-07-04T16:20:21.000Z</Time>
            <Position>
              <LatitudeDegrees>44.623479545116424560546875</LatitudeDegrees>
              <LongitudeDegrees>-1.10792733728885650634765625</LongitudeDegrees>
            </Position>
            <AltitudeMeters>5.19999980926513671875</AltitudeMeters>
            <DistanceMeters>NAN</DistanceMeters>
          </Trackpoint>
          <Trackpoint>
            <Time>2022-07-04T16:20:22.000Z</Time>
            <Position>
              <LatitudeDegrees>44.62346320040524005889892578125</LatitudeDegrees>
              <LongitudeDegrees>-1.10795508138835430145263671875</LongitudeDegrees>
            </Position>
            <AltitudeMeters>5.19999980926513671875</AltitudeMeters>
            <DistanceMeters>NAN</DistanceMeters>
          </Trackpoint>
          <Trackpoint>
            <Time>2022-07-04T16:20:25.000Z</Time>
            <Position>
              <LatitudeDegrees>44.62338457815349102020263671875</LatitudeDegrees>
              <LongitudeDegrees>-1.10793647356331348419189453125</LongitudeDegrees>
            </Position>
            <AltitudeMeters>5.19999980926513671875</AltitudeMeters>
            <DistanceMeters>NAN</DistanceMeters>
          </Trackpoint>
          <Trackpoint>
            <Time>2022-07-04T16:20:32.000Z</Time>
            <Position>
              <LatitudeDegrees>44.6231980808079242706298828125</LatitudeDegrees>
              <LongitudeDegrees>-1.10785399563610553741455078125</LongitudeDegrees>
            </Position>
            <AltitudeMeters>5.19999980926513671875</AltitudeMeters>
            <DistanceMeters>NAN</DistanceMeters>
          </Trackpoint>
          <Trackpoint>
            <Time>2022-07-04T16:20:39.000Z</Time>
            <Position>
              <LatitudeDegrees>44.62303438223898410797119140625</LatitudeDegrees>
              <LongitudeDegrees>-1.107707731425762176513671875</LongitudeDegrees>
            </Position>
            <AltitudeMeters>5.19999980926513671875</AltitudeMeters>
            <DistanceMeters>NAN</DistanceMeters>
          </Trackpoint>
          <Trackpoint>
            <Time>2022-07-04T16:20:41.000Z</Time>
            <Position>
              <LatitudeDegrees>44.62297822348773479461669921875</LatitudeDegrees>
              <LongitudeDegrees>-1.10766020603477954864501953125</LongitudeDegrees>
            </Position>
            <AltitudeMeters>5.19999980926513671875</AltitudeMeters>
            <DistanceMeters>NAN</DistanceMeters>
          </Trackpoint>
          <Trackpoint>
            <Time>2022-07-04T16:20:44.000Z</Time>
            <Position>
              <LatitudeDegrees>44.6228906325995922088623046875</LatitudeDegrees>
              <LongitudeDegrees>-1.10760153271257877349853515625</LongitudeDegrees>
            </Position>
            <AltitudeMeters>5.400000095367431640625</AltitudeMeters>
            <DistanceMeters>NAN</DistanceMeters>
          </Trackpoint>
          <Trackpoint>
            <Time>2022-07-04T16:20:48.000Z</Time>
            <Position>
              <LatitudeDegrees>44.6227642334997653961181640625</LatitudeDegrees>
              <LongitudeDegrees>-1.1075043864548206329345703125</LongitudeDegrees>
            </Position>
            <AltitudeMeters>5.400000095367431640625</AltitudeMeters>
            <DistanceMeters>NAN</DistanceMeters>
          </Trackpoint>
          <Trackpoint>
            <Time>2022-07-04T16:20:52.000Z</Time>
            <Position>
              <LatitudeDegrees>44.622647054493427276611328125</LatitudeDegrees>
              <LongitudeDegrees>-1.10740338452160358428955078125</LongitudeDegrees>
            </Position>
            <AltitudeMeters>5.599999904632568359375</AltitudeMeters>
            <DistanceMeters>NAN</DistanceMeters>
          </Trackpoint>
          <Trackpoint>
            <Time>2022-07-04T16:20:57.000Z</Time>
            <Position>
              <LatitudeDegrees>44.62248385883867740631103515625</LatitudeDegrees>
              <LongitudeDegrees>-1.10725083388388156890869140625</LongitudeDegrees>
            </Position>
            <AltitudeMeters>5.400000095367431640625</AltitudeMeters>
            <DistanceMeters>NAN</DistanceMeters>
          </Trackpoint>
          <Trackpoint>
            <Time>2022-07-04T16:21:04.000Z</Time>
            <Position>
              <LatitudeDegrees>44.6222551167011260986328125</LatitudeDegrees>
              <LongitudeDegrees>-1.1070562899112701416015625</LongitudeDegrees>
            </Position>
            <AltitudeMeters>5.400000095367431640625</AltitudeMeters>
            <DistanceMeters>NAN</DistanceMeters>
          </Trackpoint>
          <Trackpoint>
            <Time>2022-07-04T16:21:08.000Z</Time>
            <Position>
              <LatitudeDegrees>44.6221295557916164398193359375</LatitudeDegrees>
              <LongitudeDegrees>-1.10696232877671718597412109375</LongitudeDegrees>
            </Position>
            <AltitudeMeters>5.400000095367431640625</AltitudeMeters>
            <DistanceMeters>NAN</DistanceMeters>
          </Trackpoint>
          <Trackpoint>
            <Time>2022-07-04T16:21:11.000Z</Time>
            <Position>
              <LatitudeDegrees>44.6220457367599010467529296875</LatitudeDegrees>
              <LongitudeDegrees>-1.10688990913331508636474609375</LongitudeDegrees>
            </Position>
            <AltitudeMeters>5.599999904632568359375</AltitudeMeters>
            <DistanceMeters>NAN</DistanceMeters>
          </Trackpoint>
          <Trackpoint>
            <Time>2022-07-04T16:21:20.000Z</Time>
            <Position>
              <LatitudeDegrees>44.6218045055866241455078125</LatitudeDegrees>
              <LongitudeDegrees>-1.106667704880237579345703125</LongitudeDegrees>
            </Position>
            <AltitudeMeters>5.599999904632568359375</AltitudeMeters>
            <DistanceMeters>NAN</DistanceMeters>
          </Trackpoint>
          <Trackpoint>
            <Time>2022-07-04T16:21:25.000Z</Time>
            <Position>
              <LatitudeDegrees>44.621661342680454254150390625</LatitudeDegrees>
              <LongitudeDegrees>-1.106540299952030181884765625</LongitudeDegrees>
            </Position>
            <AltitudeMeters>5.599999904632568359375</AltitudeMeters>
            <DistanceMeters>NAN</DistanceMeters>
          </Trackpoint>
          <Trackpoint>
            <Time>2022-07-04T16:21:29.000Z</Time>
            <Position>
              <LatitudeDegrees>44.62155682034790515899658203125</LatitudeDegrees>
              <LongitudeDegrees>-1.10642739571630954742431640625</LongitudeDegrees>
            </Position>
            <AltitudeMeters>5.599999904632568359375</AltitudeMeters>
            <DistanceMeters>NAN</DistanceMeters>
          </Trackpoint>
          <Trackpoint>
            <Time>2022-07-04T16:21:30.000Z</Time>
            <Position>
              <LatitudeDegrees>44.62152681313455104827880859375</LatitudeDegrees>
              <LongitudeDegrees>-1.10639990307390689849853515625</LongitudeDegrees>
            </Position>
            <AltitudeMeters>5.80000019073486328125</AltitudeMeters>
            <DistanceMeters>NAN</DistanceMeters>
          </Trackpoint>
          <Trackpoint>
            <Time>2022-07-04T16:21:35.000Z</Time>
            <Position>
              <LatitudeDegrees>44.62140108458697795867919921875</LatitudeDegrees>
              <LongitudeDegrees>-1.1062652058899402618408203125</LongitudeDegrees>
            </Position>
            <AltitudeMeters>5.80000019073486328125</AltitudeMeters>
            <DistanceMeters>NAN</DistanceMeters>
          </Trackpoint>
          <Trackpoint>
            <Time>2022-07-04T16:21:39.000Z</Time>
            <Position>
              <LatitudeDegrees>44.62128859944641590118408203125</LatitudeDegrees>
              <LongitudeDegrees>-1.10615028999745845794677734375</LongitudeDegrees>
            </Position>
            <AltitudeMeters>5.80000019073486328125</AltitudeMeters>
            <DistanceMeters>NAN</DistanceMeters>
          </Trackpoint>
          <Trackpoint>
            <Time>2022-07-04T16:21:44.000Z</Time>
            <Position>
              <LatitudeDegrees>44.621159099042415618896484375</LatitudeDegrees>
              <LongitudeDegrees>-1.1060328595340251922607421875</LongitudeDegrees>
            </Position>
            <AltitudeMeters>5</AltitudeMeters>
            <DistanceMeters>NAN</DistanceMeters>
          </Trackpoint>
          <Trackpoint>
            <Time>2022-07-04T16:21:51.000Z</Time>
            <Position>
              <LatitudeDegrees>44.62097595445811748504638671875</LatitudeDegrees>
              <LongitudeDegrees>-1.105897910892963409423828125</LongitudeDegrees>
            </Position>
            <AltitudeMeters>5.19999980926513671875</AltitudeMeters>
            <DistanceMeters>NAN</DistanceMeters>
          </Trackpoint>
          <Trackpoint>
            <Time>2022-07-04T16:22:01.000Z</Time>
            <Position>
              <LatitudeDegrees>44.6206771396100521087646484375</LatitudeDegrees>
              <LongitudeDegrees>-1.10566883347928524017333984375</LongitudeDegrees>
            </Position>
            <AltitudeMeters>5.400000095367431640625</AltitudeMeters>
            <DistanceMeters>NAN</DistanceMeters>
          </Trackpoint>
          <Trackpoint>
            <Time>2022-07-04T16:22:04.000Z</Time>
            <Position>
              <LatitudeDegrees>44.6205825917422771453857421875</LatitudeDegrees>
              <LongitudeDegrees>-1.105584092438220977783203125</LongitudeDegrees>
            </Position>
            <AltitudeMeters>5.599999904632568359375</AltitudeMeters>
            <DistanceMeters>NAN</DistanceMeters>
          </Trackpoint>
          <Trackpoint>
            <Time>2022-07-04T16:22:05.000Z</Time>
            <Position>
              <LatitudeDegrees>44.6205567754805088043212890625</LatitudeDegrees>
              <LongitudeDegrees>-1.10555601306259632110595703125</LongitudeDegrees>
            </Position>
            <AltitudeMeters>5.599999904632568359375</AltitudeMeters>
            <DistanceMeters>NAN</DistanceMeters>
          </Trackpoint>
          <Trackpoint>
            <Time>2022-07-04T16:22:06.000Z</Time>
            <Position>
              <LatitudeDegrees>44.62053070776164531707763671875</LatitudeDegrees>
              <LongitudeDegrees>-1.10553153790533542633056640625</LongitudeDegrees>
            </Position>
            <AltitudeMeters>5.599999904632568359375</AltitudeMeters>
            <DistanceMeters>NAN</DistanceMeters>
          </Trackpoint>
          <Trackpoint>
            <Time>2022-07-04T16:22:07.000Z</Time>
            <Position>
              <LatitudeDegrees>44.62050522677600383758544921875</LatitudeDegrees>
              <LongitudeDegrees>-1.1055047996342182159423828125</LongitudeDegrees>
            </Position>
            <AltitudeMeters>5.599999904632568359375</AltitudeMeters>
            <DistanceMeters>NAN</DistanceMeters>
          </Trackpoint>
          <Trackpoint>
            <Time>2022-07-04T16:22:10.000Z</Time>
            <Position>
              <LatitudeDegrees>44.6204478107392787933349609375</LatitudeDegrees>
              <LongitudeDegrees>-1.1054531671106815338134765625</LongitudeDegrees>
            </Position>
            <AltitudeMeters>5.400000095367431640625</AltitudeMeters>
            <DistanceMeters>NAN</DistanceMeters>
          </Trackpoint>
          <Trackpoint>
            <Time>2022-07-04T16:22:13.000Z</Time>
            <Position>
              <LatitudeDegrees>44.62044303305447101593017578125</LatitudeDegrees>
              <LongitudeDegrees>-1.1054501496255397796630859375</LongitudeDegrees>
            </Position>
            <AltitudeMeters>5.19999980926513671875</AltitudeMeters>
            <DistanceMeters>NAN</DistanceMeters>
          </Trackpoint>
          <Trackpoint>
            <Time>2022-07-04T16:23:44.000Z</Time>
            <Position>
              <LatitudeDegrees>44.62031445465981960296630859375</LatitudeDegrees>
              <LongitudeDegrees>-1.105362139642238616943359375</LongitudeDegrees>
            </Position>
            <AltitudeMeters>4.400000095367431640625</AltitudeMeters>
            <DistanceMeters>NAN</DistanceMeters>
          </Trackpoint>
          <Trackpoint>
            <Time>2022-07-04T16:23:47.000Z</Time>
            <Position>
              <LatitudeDegrees>44.62028168141841888427734375</LatitudeDegrees>
              <LongitudeDegrees>-1.10534864477813243865966796875</LongitudeDegrees>
            </Position>
            <AltitudeMeters>4.80000019073486328125</AltitudeMeters>
            <DistanceMeters>NAN</DistanceMeters>
          </Trackpoint>
          <Trackpoint>
            <Time>2022-07-04T16:23:48.000Z</Time>
            <Position>
              <LatitudeDegrees>44.62027765810489654541015625</LatitudeDegrees>
              <LongitudeDegrees>-1.10535518266260623931884765625</LongitudeDegrees>
            </Position>
            <AltitudeMeters>5</AltitudeMeters>
            <DistanceMeters>NAN</DistanceMeters>
          </Trackpoint>
          <Trackpoint>
            <Time>2022-07-04T16:23:49.000Z</Time>
            <Position>
              <LatitudeDegrees>44.62027640081942081451416015625</LatitudeDegrees>
              <LongitudeDegrees>-1.10535853542387485504150390625</LongitudeDegrees>
            </Position>
            <AltitudeMeters>5</AltitudeMeters>
            <DistanceMeters>NAN</DistanceMeters>
          </Trackpoint>
          <Trackpoint>
            <Time>2022-07-04T16:23:53.000Z</Time>
            <Position>
              <LatitudeDegrees>44.62027363479137420654296875</LatitudeDegrees>
              <LongitudeDegrees>-1.10536775551736354827880859375</LongitudeDegrees>
            </Position>
            <AltitudeMeters>5.19999980926513671875</AltitudeMeters>
            <DistanceMeters>NAN</DistanceMeters>
          </Trackpoint>
          <Trackpoint>
            <Time>2022-07-04T16:24:04.000Z</Time>
            <Position>
              <LatitudeDegrees>44.620254524052143096923828125</LatitudeDegrees>
              <LongitudeDegrees>-1.10539793036878108978271484375</LongitudeDegrees>
            </Position>
            <AltitudeMeters>5</AltitudeMeters>
            <DistanceMeters>NAN</DistanceMeters>
          </Trackpoint>
          <Trackpoint>
            <Time>2022-07-04T16:24:05.000Z</Time>
            <Position>
              <LatitudeDegrees>44.6202422864735126495361328125</LatitudeDegrees>
              <LongitudeDegrees>-1.10542257316410541534423828125</LongitudeDegrees>
            </Position>
            <AltitudeMeters>5</AltitudeMeters>
            <DistanceMeters>NAN</DistanceMeters>
          </Trackpoint>
          <Trackpoint>
            <Time>2022-07-04T16:24:06.000Z</Time>
            <Position>
              <LatitudeDegrees>44.62022937834262847900390625</LatitudeDegrees>
              <LongitudeDegrees>-1.1054474674165248870849609375</LongitudeDegrees>
            </Position>
            <AltitudeMeters>5.19999980926513671875</AltitudeMeters>
            <DistanceMeters>NAN</DistanceMeters>
          </Trackpoint>
          <Trackpoint>
            <Time>2022-07-04T16:24:09.000Z</Time>
            <Position>
              <LatitudeDegrees>44.62019107304513454437255859375</LatitudeDegrees>
              <LongitudeDegrees>-1.10553422011435031890869140625</LongitudeDegrees>
            </Position>
            <AltitudeMeters>5.19999980926513671875</AltitudeMeters>
            <DistanceMeters>NAN</DistanceMeters>
          </Trackpoint>
          <Trackpoint>
            <Time>2022-07-04T16:24:11.000Z</Time>
            <Position>
              <LatitudeDegrees>44.6201829425990581512451171875</LatitudeDegrees>
              <LongitudeDegrees>-1.10560454428195953369140625</LongitudeDegrees>
            </Position>
            <AltitudeMeters>5.19999980926513671875</AltitudeMeters>
            <DistanceMeters>NAN</DistanceMeters>
          </Trackpoint>
          <Trackpoint>
            <Time>2022-07-04T16:24:13.000Z</Time>
            <Position>
              <LatitudeDegrees>44.62020968087017536163330078125</LatitudeDegrees>
              <LongitudeDegrees>-1.1056580208241939544677734375</LongitudeDegrees>
            </Position>
            <AltitudeMeters>5</AltitudeMeters>
            <DistanceMeters>NAN</DistanceMeters>
          </Trackpoint>
          <Trackpoint>
            <Time>2022-07-04T16:24:15.000Z</Time>
            <Position>
              <LatitudeDegrees>44.6202597208321094512939453125</LatitudeDegrees>
              <LongitudeDegrees>-1.10569196753203868865966796875</LongitudeDegrees>
            </Position>
            <AltitudeMeters>5</AltitudeMeters>
            <DistanceMeters>NAN</DistanceMeters>
          </Trackpoint>
          <Trackpoint>
            <Time>2022-07-04T16:24:21.000Z</Time>
            <Position>
              <LatitudeDegrees>44.62041889317333698272705078125</LatitudeDegrees>
              <LongitudeDegrees>-1.1058036983013153076171875</LongitudeDegrees>
            </Position>
            <AltitudeMeters>4.599999904632568359375</AltitudeMeters>
            <DistanceMeters>NAN</DistanceMeters>
          </Trackpoint>
          <Trackpoint>
            <Time>2022-07-04T16:24:28.000Z</Time>
            <Position>
              <LatitudeDegrees>44.62058938108384609222412109375</LatitudeDegrees>
              <LongitudeDegrees>-1.10595591366291046142578125</LongitudeDegrees>
            </Position>
            <AltitudeMeters>4.599999904632568359375</AltitudeMeters>
            <DistanceMeters>NAN</DistanceMeters>
          </Trackpoint>
          <Trackpoint>
            <Time>2022-07-04T16:24:32.000Z</Time>
            <Position>
              <LatitudeDegrees>44.62067152373492717742919921875</LatitudeDegrees>
              <LongitudeDegrees>-1.1060719192028045654296875</LongitudeDegrees>
            </Position>
            <AltitudeMeters>4.19999980926513671875</AltitudeMeters>
            <DistanceMeters>NAN</DistanceMeters>
          </Trackpoint>
          <Trackpoint>
            <Time>2022-07-04T16:24:33.000Z</Time>
            <Position>
              <LatitudeDegrees>44.62066783569753170013427734375</LatitudeDegrees>
              <LongitudeDegrees>-1.10610787756741046905517578125</LongitudeDegrees>
            </Position>
            <AltitudeMeters>4.19999980926513671875</AltitudeMeters>
            <DistanceMeters>NAN</DistanceMeters>
          </Trackpoint>
          <Trackpoint>
            <Time>2022-07-04T16:24:34.000Z</Time>
            <Position>
              <LatitudeDegrees>44.62064939551055431365966796875</LatitudeDegrees>
              <LongitudeDegrees>-1.1061331070959568023681640625</LongitudeDegrees>
            </Position>
            <AltitudeMeters>4</AltitudeMeters>
            <DistanceMeters>NAN</DistanceMeters>
          </Trackpoint>
          <Trackpoint>
            <Time>2022-07-04T16:24:36.000Z</Time>
            <Position>
              <LatitudeDegrees>44.62058451958000659942626953125</LatitudeDegrees>
              <LongitudeDegrees>-1.10615531913936138153076171875</LongitudeDegrees>
            </Position>
            <AltitudeMeters>4</AltitudeMeters>
            <DistanceMeters>NAN</DistanceMeters>
          </Trackpoint>
          <Trackpoint>
            <Time>2022-07-04T16:24:40.000Z</Time>
            <Position>
              <LatitudeDegrees>44.62045141495764255523681640625</LatitudeDegrees>
              <LongitudeDegrees>-1.106196306645870208740234375</LongitudeDegrees>
            </Position>
            <AltitudeMeters>4.400000095367431640625</AltitudeMeters>
            <DistanceMeters>NAN</DistanceMeters>
          </Trackpoint>
          <Trackpoint>
            <Time>2022-07-04T16:24:43.000Z</Time>
            <Position>
              <LatitudeDegrees>44.62036206386983394622802734375</LatitudeDegrees>
              <LongitudeDegrees>-1.1062286607921123504638671875</LongitudeDegrees>
            </Position>
            <AltitudeMeters>4.599999904632568359375</AltitudeMeters>
            <DistanceMeters>NAN</DistanceMeters>
          </Trackpoint>
          <Trackpoint>
            <Time>2022-07-04T16:24:50.000Z</Time>
            <Position>
              <LatitudeDegrees>44.6201334893703460693359375</LatitudeDegrees>
              <LongitudeDegrees>-1.10628875903785228729248046875</LongitudeDegrees>
            </Position>
            <AltitudeMeters>4.19999980926513671875</AltitudeMeters>
            <DistanceMeters>NAN</DistanceMeters>
          </Trackpoint>
          <Trackpoint>
            <Time>2022-07-04T16:24:52.000Z</Time>
            <Position>
              <LatitudeDegrees>44.62006014771759510040283203125</LatitudeDegrees>
              <LongitudeDegrees>-1.10630736686289310455322265625</LongitudeDegrees>
            </Position>
            <AltitudeMeters>4.19999980926513671875</AltitudeMeters>
            <DistanceMeters>NAN</DistanceMeters>
          </Trackpoint>
          <Trackpoint>
            <Time>2022-07-04T16:24:57.000Z</Time>
            <Position>
              <LatitudeDegrees>44.6198946051299571990966796875</LatitudeDegrees>
              <LongitudeDegrees>-1.106370985507965087890625</LongitudeDegrees>
            </Position>
            <AltitudeMeters>4</AltitudeMeters>
            <DistanceMeters>NAN</DistanceMeters>
          </Trackpoint>
          <Trackpoint>
            <Time>2022-07-04T16:25:00.000Z</Time>
            <Position>
              <LatitudeDegrees>44.61979058571159839630126953125</LatitudeDegrees>
              <LongitudeDegrees>-1.1064050160348415374755859375</LongitudeDegrees>
            </Position>
            <AltitudeMeters>4</AltitudeMeters>
            <DistanceMeters>NAN</DistanceMeters>
          </Trackpoint>
          <Trackpoint>
            <Time>2022-07-04T16:25:11.000Z</Time>
            <Position>
              <LatitudeDegrees>44.61940267123281955718994140625</LatitudeDegrees>
              <LongitudeDegrees>-1.1065146513283252716064453125</LongitudeDegrees>
            </Position>
            <AltitudeMeters>4.19999980926513671875</AltitudeMeters>
            <DistanceMeters>NAN</DistanceMeters>
          </Trackpoint>
          <Trackpoint>
            <Time>2022-07-04T16:25:18.000Z</Time>
            <Position>
              <LatitudeDegrees>44.61917459964752197265625</LatitudeDegrees>
              <LongitudeDegrees>-1.106585226953029632568359375</LongitudeDegrees>
            </Position>
            <AltitudeMeters>4.19999980926513671875</AltitudeMeters>
            <DistanceMeters>NAN</DistanceMeters>
          </Trackpoint>
          <Trackpoint>
            <Time>2022-07-04T16:25:28.000Z</Time>
            <Position>
              <LatitudeDegrees>44.61888064630329608917236328125</LatitudeDegrees>
              <LongitudeDegrees>-1.10667935572564601898193359375</LongitudeDegrees>
            </Position>
            <AltitudeMeters>4.599999904632568359375</AltitudeMeters>
            <DistanceMeters>NAN</DistanceMeters>
          </Trackpoint>
          <Trackpoint>
            <Time>2022-07-04T16:25:32.000Z</Time>
            <Position>
              <LatitudeDegrees>44.61874251253902912139892578125</LatitudeDegrees>
              <LongitudeDegrees>-1.10668547451496124267578125</LongitudeDegrees>
            </Position>
            <AltitudeMeters>4.599999904632568359375</AltitudeMeters>
            <DistanceMeters>NAN</DistanceMeters>
          </Trackpoint>
          <Trackpoint>
            <Time>2022-07-04T16:25:34.000Z</Time>
            <Position>
              <LatitudeDegrees>44.6186731941998004913330078125</LatitudeDegrees>
              <LongitudeDegrees>-1.1066930182278156280517578125</LongitudeDegrees>
            </Position>
            <AltitudeMeters>4.599999904632568359375</AltitudeMeters>
            <DistanceMeters>NAN</DistanceMeters>
          </Trackpoint>
          <Trackpoint>
            <Time>2022-07-04T16:25:35.000Z</Time>
            <Position>
              <LatitudeDegrees>44.6186433546245098114013671875</LatitudeDegrees>
              <LongitudeDegrees>-1.1066995561122894287109375</LongitudeDegrees>
            </Position>
            <AltitudeMeters>4.599999904632568359375</AltitudeMeters>
            <DistanceMeters>NAN</DistanceMeters>
          </Trackpoint>
          <Trackpoint>
            <Time>2022-07-04T16:25:37.000Z</Time>
            <Position>
              <LatitudeDegrees>44.61858510039746761322021484375</LatitudeDegrees>
              <LongitudeDegrees>-1.106728054583072662353515625</LongitudeDegrees>
            </Position>
            <AltitudeMeters>4.599999904632568359375</AltitudeMeters>
            <DistanceMeters>NAN</DistanceMeters>
          </Trackpoint>
          <Trackpoint>
            <Time>2022-07-04T16:25:39.000Z</Time>
            <Position>
              <LatitudeDegrees>44.61851770989596843719482421875</LatitudeDegrees>
              <LongitudeDegrees>-1.106739453971385955810546875</LongitudeDegrees>
            </Position>
            <AltitudeMeters>4.599999904632568359375</AltitudeMeters>
            <DistanceMeters>NAN</DistanceMeters>
          </Trackpoint>
          <Trackpoint>
            <Time>2022-07-04T16:25:42.000Z</Time>
            <Position>
              <LatitudeDegrees>44.61844034492969512939453125</LatitudeDegrees>
              <LongitudeDegrees>-1.10675814561545848846435546875</LongitudeDegrees>
            </Position>
            <AltitudeMeters>4.400000095367431640625</AltitudeMeters>
            <DistanceMeters>NAN</DistanceMeters>
          </Trackpoint>
          <Trackpoint>
            <Time>2022-07-04T16:25:45.000Z</Time>
            <Position>
              <LatitudeDegrees>44.618415869772434234619140625</LatitudeDegrees>
              <LongitudeDegrees>-1.106772311031818389892578125</LongitudeDegrees>
            </Position>
            <AltitudeMeters>4</AltitudeMeters>
            <DistanceMeters>NAN</DistanceMeters>
          </Trackpoint>
          <Trackpoint>
            <Time>2022-07-04T16:26:11.000Z</Time>
            <Position>
              <LatitudeDegrees>44.6183781512081623077392578125</LatitudeDegrees>
              <LongitudeDegrees>-1.1067932657897472381591796875</LongitudeDegrees>
            </Position>
            <AltitudeMeters>3.7999999523162841796875</AltitudeMeters>
            <DistanceMeters>NAN</DistanceMeters>
          </Trackpoint>
          <Trackpoint>
            <Time>2022-07-04T16:26:12.000Z</Time>
            <Position>
              <LatitudeDegrees>44.618354849517345428466796875</LatitudeDegrees>
              <LongitudeDegrees>-1.10680709592998027801513671875</LongitudeDegrees>
            </Position>
            <AltitudeMeters>3.7999999523162841796875</AltitudeMeters>
            <DistanceMeters>NAN</DistanceMeters>
          </Trackpoint>
          <Trackpoint>
            <Time>2022-07-04T16:26:14.000Z</Time>
            <Position>
              <LatitudeDegrees>44.6182939969003200531005859375</LatitudeDegrees>
              <LongitudeDegrees>-1.10683006234467029571533203125</LongitudeDegrees>
            </Position>
            <AltitudeMeters>3.7999999523162841796875</AltitudeMeters>
            <DistanceMeters>NAN</DistanceMeters>
          </Trackpoint>
          <Trackpoint>
            <Time>2022-07-04T16:26:22.000Z</Time>
            <Position>
              <LatitudeDegrees>44.61805469356477260589599609375</LatitudeDegrees>
              <LongitudeDegrees>-1.106939278542995452880859375</LongitudeDegrees>
            </Position>
            <AltitudeMeters>4</AltitudeMeters>
            <DistanceMeters>NAN</DistanceMeters>
          </Trackpoint>
          <Trackpoint>
            <Time>2022-07-04T16:26:29.000Z</Time>
            <Position>
              <LatitudeDegrees>44.61780156008899211883544921875</LatitudeDegrees>
              <LongitudeDegrees>-1.1069994606077671051025390625</LongitudeDegrees>
            </Position>
            <AltitudeMeters>4.19999980926513671875</AltitudeMeters>
            <DistanceMeters>NAN</DistanceMeters>
          </Trackpoint>
          <Trackpoint>
            <Time>2022-07-04T16:26:36.000Z</Time>
            <Position>
              <LatitudeDegrees>44.617572985589504241943359375</LatitudeDegrees>
              <LongitudeDegrees>-1.10702904872596263885498046875</LongitudeDegrees>
            </Position>
            <AltitudeMeters>4</AltitudeMeters>
            <DistanceMeters>NAN</DistanceMeters>
          </Trackpoint>
          <Trackpoint>
            <Time>2022-07-04T16:26:43.000Z</Time>
            <Position>
              <LatitudeDegrees>44.617302417755126953125</LatitudeDegrees>
              <LongitudeDegrees>-1.1070906557142734527587890625</LongitudeDegrees>
            </Position>
            <AltitudeMeters>4.19999980926513671875</AltitudeMeters>
            <DistanceMeters>NAN</DistanceMeters>
          </Trackpoint>
          <Trackpoint>
            <Time>2022-07-04T16:26:46.000Z</Time>
            <Position>
              <LatitudeDegrees>44.617192782461643218994140625</LatitudeDegrees>
              <LongitudeDegrees>-1.10713181085884571075439453125</LongitudeDegrees>
            </Position>
            <AltitudeMeters>4.19999980926513671875</AltitudeMeters>
            <DistanceMeters>NAN</DistanceMeters>
          </Trackpoint>
          <Trackpoint>
            <Time>2022-07-04T16:26:47.000Z</Time>
            <Position>
              <LatitudeDegrees>44.6171540580689907073974609375</LatitudeDegrees>
              <LongitudeDegrees>-1.1071426235139369964599609375</LongitudeDegrees>
            </Position>
            <AltitudeMeters>4.19999980926513671875</AltitudeMeters>
            <DistanceMeters>NAN</DistanceMeters>
          </Trackpoint>
          <Trackpoint>
            <Time>2022-07-04T16:26:48.000Z</Time>
            <Position>
              <LatitudeDegrees>44.61711860261857509613037109375</LatitudeDegrees>
              <LongitudeDegrees>-1.1071523465216159820556640625</LongitudeDegrees>
            </Position>
            <AltitudeMeters>4.19999980926513671875</AltitudeMeters>
            <DistanceMeters>NAN</DistanceMeters>
          </Trackpoint>
          <Trackpoint>
            <Time>2022-07-04T16:26:50.000Z</Time>
            <Position>
              <LatitudeDegrees>44.61705020628869533538818359375</LatitudeDegrees>
              <LongitudeDegrees>-1.10717858187854290008544921875</LongitudeDegrees>
            </Position>
            <AltitudeMeters>4.400000095367431640625</AltitudeMeters>
            <DistanceMeters>NAN</DistanceMeters>
          </Trackpoint>
          <Trackpoint>
            <Time>2022-07-04T16:26:53.000Z</Time>
            <Position>
              <LatitudeDegrees>44.61694300174713134765625</LatitudeDegrees>
              <LongitudeDegrees>-1.10720825381577014923095703125</LongitudeDegrees>
            </Position>
            <AltitudeMeters>4.400000095367431640625</AltitudeMeters>
            <DistanceMeters>NAN</DistanceMeters>
          </Trackpoint>
          <Trackpoint>
            <Time>2022-07-04T16:26:57.000Z</Time>
            <Position>
              <LatitudeDegrees>44.61681081913411617279052734375</LatitudeDegrees>
              <LongitudeDegrees>-1.10725971870124340057373046875</LongitudeDegrees>
            </Position>
            <AltitudeMeters>4.400000095367431640625</AltitudeMeters>
            <DistanceMeters>NAN</DistanceMeters>
          </Trackpoint>
          <Trackpoint>
            <Time>2022-07-04T16:26:59.000Z</Time>
            <Position>
              <LatitudeDegrees>44.61678500287234783172607421875</LatitudeDegrees>
              <LongitudeDegrees>-1.10733582638204097747802734375</LongitudeDegrees>
            </Position>
            <AltitudeMeters>4.400000095367431640625</AltitudeMeters>
            <DistanceMeters>NAN</DistanceMeters>
          </Trackpoint>
          <Trackpoint>
            <Time>2022-07-04T16:27:00.000Z</Time>
            <Position>
              <LatitudeDegrees>44.616779051721096038818359375</LatitudeDegrees>
              <LongitudeDegrees>-1.10737907700240612030029296875</LongitudeDegrees>
            </Position>
            <AltitudeMeters>4.599999904632568359375</AltitudeMeters>
            <DistanceMeters>NAN</DistanceMeters>
          </Trackpoint>
          <Trackpoint>
            <Time>2022-07-04T16:27:03.000Z</Time>
            <Position>
              <LatitudeDegrees>44.61678206920623779296875</LatitudeDegrees>
              <LongitudeDegrees>-1.1075077392160892486572265625</LongitudeDegrees>
            </Position>
            <AltitudeMeters>4.599999904632568359375</AltitudeMeters>
            <DistanceMeters>NAN</DistanceMeters>
          </Trackpoint>
          <Trackpoint>
            <Time>2022-07-04T16:27:06.000Z</Time>
            <Position>
              <LatitudeDegrees>44.616790451109409332275390625</LatitudeDegrees>
              <LongitudeDegrees>-1.10766448080539703369140625</LongitudeDegrees>
            </Position>
            <AltitudeMeters>4.400000095367431640625</AltitudeMeters>
            <DistanceMeters>NAN</DistanceMeters>
          </Trackpoint>
          <Trackpoint>
            <Time>2022-07-04T16:27:13.000Z</Time>
            <Position>
              <LatitudeDegrees>44.6167986653745174407958984375</LatitudeDegrees>
              <LongitudeDegrees>-1.1079821549355983734130859375</LongitudeDegrees>
            </Position>
            <AltitudeMeters>4.400000095367431640625</AltitudeMeters>
            <DistanceMeters>NAN</DistanceMeters>
          </Trackpoint>
          <Trackpoint>
            <Time>2022-07-04T16:27:14.000Z</Time>
            <Position>
              <LatitudeDegrees>44.6167995035648345947265625</LatitudeDegrees>
              <LongitudeDegrees>-1.10802666284143924713134765625</LongitudeDegrees>
            </Position>
            <AltitudeMeters>4.400000095367431640625</AltitudeMeters>
            <DistanceMeters>NAN</DistanceMeters>
          </Trackpoint>
          <Trackpoint>
            <Time>2022-07-04T16:27:15.000Z</Time>
            <Position>
              <LatitudeDegrees>44.61679237894713878631591796875</LatitudeDegrees>
              <LongitudeDegrees>-1.10807645134627819061279296875</LongitudeDegrees>
            </Position>
            <AltitudeMeters>4.400000095367431640625</AltitudeMeters>
            <DistanceMeters>NAN</DistanceMeters>
          </Trackpoint>
          <Trackpoint>
            <Time>2022-07-04T16:27:20.000Z</Time>
            <Position>
              <LatitudeDegrees>44.616800844669342041015625</LatitudeDegrees>
              <LongitudeDegrees>-1.1083315126597881317138671875</LongitudeDegrees>
            </Position>
            <AltitudeMeters>4.599999904632568359375</AltitudeMeters>
            <DistanceMeters>NAN</DistanceMeters>
          </Trackpoint>
          <Trackpoint>
            <Time>2022-07-04T16:27:21.000Z</Time>
            <Position>
              <LatitudeDegrees>44.616809897124767303466796875</LatitudeDegrees>
              <LongitudeDegrees>-1.108380965888500213623046875</LongitudeDegrees>
            </Position>
            <AltitudeMeters>4.599999904632568359375</AltitudeMeters>
            <DistanceMeters>NAN</DistanceMeters>
          </Trackpoint>
          <Trackpoint>
            <Time>2022-07-04T16:27:30.000Z</Time>
            <Position>
              <LatitudeDegrees>44.61686261929571628570556640625</LatitudeDegrees>
              <LongitudeDegrees>-1.1088506877422332763671875</LongitudeDegrees>
            </Position>
            <AltitudeMeters>5</AltitudeMeters>
            <DistanceMeters>NAN</DistanceMeters>
          </Trackpoint>
          <Trackpoint>
            <Time>2022-07-04T16:27:39.000Z</Time>
            <Position>
              <LatitudeDegrees>44.6169067919254302978515625</LatitudeDegrees>
              <LongitudeDegrees>-1.1092930845916271209716796875</LongitudeDegrees>
            </Position>
            <AltitudeMeters>5.19999980926513671875</AltitudeMeters>
            <DistanceMeters>NAN</DistanceMeters>
          </Trackpoint>
          <Trackpoint>
            <Time>2022-07-04T16:27:40.000Z</Time>
            <Position>
              <LatitudeDegrees>44.6169032715260982513427734375</LatitudeDegrees>
              <LongitudeDegrees>-1.10934086143970489501953125</LongitudeDegrees>
            </Position>
            <AltitudeMeters>5.19999980926513671875</AltitudeMeters>
            <DistanceMeters>NAN</DistanceMeters>
          </Trackpoint>
          <Trackpoint>
            <Time>2022-07-04T16:27:43.000Z</Time>
            <Position>
              <LatitudeDegrees>44.6169049479067325592041015625</LatitudeDegrees>
              <LongitudeDegrees>-1.10949701629579067230224609375</LongitudeDegrees>
            </Position>
            <AltitudeMeters>5.19999980926513671875</AltitudeMeters>
            <DistanceMeters>NAN</DistanceMeters>
          </Trackpoint>
          <Trackpoint>
            <Time>2022-07-04T16:27:45.000Z</Time>
            <Position>
              <LatitudeDegrees>44.61692565120756626129150390625</LatitudeDegrees>
              <LongitudeDegrees>-1.10959944315254688262939453125</LongitudeDegrees>
            </Position>
            <AltitudeMeters>5</AltitudeMeters>
            <DistanceMeters>NAN</DistanceMeters>
          </Trackpoint>
          <Trackpoint>
            <Time>2022-07-04T16:27:46.000Z</Time>
            <Position>
              <LatitudeDegrees>44.61693822406232357025146484375</LatitudeDegrees>
              <LongitudeDegrees>-1.1096491478383541107177734375</LongitudeDegrees>
            </Position>
            <AltitudeMeters>5</AltitudeMeters>
            <DistanceMeters>NAN</DistanceMeters>
          </Trackpoint>
          <Trackpoint>
            <Time>2022-07-04T16:27:50.000Z</Time>
            <Position>
              <LatitudeDegrees>44.616972506046295166015625</LatitudeDegrees>
              <LongitudeDegrees>-1.1098511517047882080078125</LongitudeDegrees>
            </Position>
            <AltitudeMeters>5</AltitudeMeters>
            <DistanceMeters>NAN</DistanceMeters>
          </Trackpoint>
          <Trackpoint>
            <Time>2022-07-04T16:27:54.000Z</Time>
            <Position>
              <LatitudeDegrees>44.61699002422392368316650390625</LatitudeDegrees>
              <LongitudeDegrees>-1.11005969345569610595703125</LongitudeDegrees>
            </Position>
            <AltitudeMeters>4.80000019073486328125</AltitudeMeters>
            <DistanceMeters>NAN</DistanceMeters>
          </Trackpoint>
          <Trackpoint>
            <Time>2022-07-04T16:27:55.000Z</Time>
            <Position>
              <LatitudeDegrees>44.616996981203556060791015625</LatitudeDegrees>
              <LongitudeDegrees>-1.11011275090277194976806640625</LongitudeDegrees>
            </Position>
            <AltitudeMeters>4.80000019073486328125</AltitudeMeters>
            <DistanceMeters>NAN</DistanceMeters>
          </Trackpoint>
          <Trackpoint>
            <Time>2022-07-04T16:27:57.000Z</Time>
            <Position>
              <LatitudeDegrees>44.61701299063861370086669921875</LatitudeDegrees>
              <LongitudeDegrees>-1.110222972929477691650390625</LongitudeDegrees>
            </Position>
            <AltitudeMeters>4.599999904632568359375</AltitudeMeters>
            <DistanceMeters>NAN</DistanceMeters>
          </Trackpoint>
          <Trackpoint>
            <Time>2022-07-04T16:28:02.000Z</Time>
            <Position>
              <LatitudeDegrees>44.617041908204555511474609375</LatitudeDegrees>
              <LongitudeDegrees>-1.110487170517444610595703125</LongitudeDegrees>
            </Position>
            <AltitudeMeters>4.400000095367431640625</AltitudeMeters>
            <DistanceMeters>NAN</DistanceMeters>
          </Trackpoint>
          <Trackpoint>
            <Time>2022-07-04T16:28:06.000Z</Time>
            <Position>
              <LatitudeDegrees>44.6170601807534694671630859375</LatitudeDegrees>
              <LongitudeDegrees>-1.1106692254543304443359375</LongitudeDegrees>
            </Position>
            <AltitudeMeters>4.599999904632568359375</AltitudeMeters>
            <DistanceMeters>NAN</DistanceMeters>
          </Trackpoint>
          <Trackpoint>
            <Time>2022-07-04T16:28:12.000Z</Time>
            <Position>
              <LatitudeDegrees>44.6170859970152378082275390625</LatitudeDegrees>
              <LongitudeDegrees>-1.11094859428703784942626953125</LongitudeDegrees>
            </Position>
            <AltitudeMeters>4.599999904632568359375</AltitudeMeters>
            <DistanceMeters>NAN</DistanceMeters>
          </Trackpoint>
          <Trackpoint>
            <Time>2022-07-04T16:28:15.000Z</Time>
            <Position>
              <LatitudeDegrees>44.61710519157350063323974609375</LatitudeDegrees>
              <LongitudeDegrees>-1.1110849678516387939453125</LongitudeDegrees>
            </Position>
            <AltitudeMeters>4.80000019073486328125</AltitudeMeters>
            <DistanceMeters>NAN</DistanceMeters>
          </Trackpoint>
          <Trackpoint>
            <Time>2022-07-04T16:28:24.000Z</Time>
            <Position>
              <LatitudeDegrees>44.61714408360421657562255859375</LatitudeDegrees>
              <LongitudeDegrees>-1.11150951124727725982666015625</LongitudeDegrees>
            </Position>
            <AltitudeMeters>4.80000019073486328125</AltitudeMeters>
            <DistanceMeters>NAN</DistanceMeters>
          </Trackpoint>
          <Trackpoint>
            <Time>2022-07-04T16:28:33.000Z</Time>
            <Position>
              <LatitudeDegrees>44.6171564050018787384033203125</LatitudeDegrees>
              <LongitudeDegrees>-1.11193480901420116424560546875</LongitudeDegrees>
            </Position>
            <AltitudeMeters>4.599999904632568359375</AltitudeMeters>
            <DistanceMeters>NAN</DistanceMeters>
          </Trackpoint>
          <Trackpoint>
            <Time>2022-07-04T16:28:38.000Z</Time>
            <Position>
              <LatitudeDegrees>44.61713838391005992889404296875</LatitudeDegrees>
              <LongitudeDegrees>-1.1121747829020023345947265625</LongitudeDegrees>
            </Position>
            <AltitudeMeters>4.400000095367431640625</AltitudeMeters>
            <DistanceMeters>NAN</DistanceMeters>
          </Trackpoint>
          <Trackpoint>
            <Time>2022-07-04T16:28:45.000Z</Time>
            <Position>
              <LatitudeDegrees>44.6171828918159008026123046875</LatitudeDegrees>
              <LongitudeDegrees>-1.112511567771434783935546875</LongitudeDegrees>
            </Position>
            <AltitudeMeters>4.599999904632568359375</AltitudeMeters>
            <DistanceMeters>NAN</DistanceMeters>
          </Trackpoint>
          <Trackpoint>
            <Time>2022-07-04T16:28:51.000Z</Time>
            <Position>
              <LatitudeDegrees>44.61724215187132358551025390625</LatitudeDegrees>
              <LongitudeDegrees>-1.11279160715639591217041015625</LongitudeDegrees>
            </Position>
            <AltitudeMeters>4.19999980926513671875</AltitudeMeters>
            <DistanceMeters>NAN</DistanceMeters>
          </Trackpoint>
          <Trackpoint>
            <Time>2022-07-04T16:28:52.000Z</Time>
            <Position>
              <LatitudeDegrees>44.6172643639147281646728515625</LatitudeDegrees>
              <LongitudeDegrees>-1.1128176748752593994140625</LongitudeDegrees>
            </Position>
            <AltitudeMeters>4.19999980926513671875</AltitudeMeters>
            <DistanceMeters>NAN</DistanceMeters>
          </Trackpoint>
          <Trackpoint>
            <Time>2022-07-04T16:28:53.000Z</Time>
            <Position>
              <LatitudeDegrees>44.61727752350270748138427734375</LatitudeDegrees>
              <LongitudeDegrees>-1.1128446646034717559814453125</LongitudeDegrees>
            </Position>
            <AltitudeMeters>4.19999980926513671875</AltitudeMeters>
            <DistanceMeters>NAN</DistanceMeters>
          </Trackpoint>
          <Trackpoint>
            <Time>2022-07-04T16:28:56.000Z</Time>
            <Position>
              <LatitudeDegrees>44.61729831062257289886474609375</LatitudeDegrees>
              <LongitudeDegrees>-1.112957485020160675048828125</LongitudeDegrees>
            </Position>
            <AltitudeMeters>4.19999980926513671875</AltitudeMeters>
            <DistanceMeters>NAN</DistanceMeters>
          </Trackpoint>
          <Trackpoint>
            <Time>2022-07-04T16:29:04.000Z</Time>
            <Position>
              <LatitudeDegrees>44.61733083240687847137451171875</LatitudeDegrees>
              <LongitudeDegrees>-1.11333140172064304351806640625</LongitudeDegrees>
            </Position>
            <AltitudeMeters>4.599999904632568359375</AltitudeMeters>
            <DistanceMeters>NAN</DistanceMeters>
          </Trackpoint>
          <Trackpoint>
            <Time>2022-07-04T16:29:11.000Z</Time>
            <Position>
              <LatitudeDegrees>44.6173649467527866363525390625</LatitudeDegrees>
              <LongitudeDegrees>-1.11366164870560169219970703125</LongitudeDegrees>
            </Position>
            <AltitudeMeters>4.80000019073486328125</AltitudeMeters>
            <DistanceMeters>NAN</DistanceMeters>
          </Trackpoint>
          <Trackpoint>
            <Time>2022-07-04T16:29:19.000Z</Time>
            <Position>
              <LatitudeDegrees>44.61741263978183269500732421875</LatitudeDegrees>
              <LongitudeDegrees>-1.1140184663236141204833984375</LongitudeDegrees>
            </Position>
            <AltitudeMeters>4.80000019073486328125</AltitudeMeters>
            <DistanceMeters>NAN</DistanceMeters>
          </Trackpoint>
          <Trackpoint>
            <Time>2022-07-04T16:29:28.000Z</Time>
            <Position>
              <LatitudeDegrees>44.617468379437923431396484375</LatitudeDegrees>
              <LongitudeDegrees>-1.11446094699203968048095703125</LongitudeDegrees>
            </Position>
            <AltitudeMeters>4.599999904632568359375</AltitudeMeters>
            <DistanceMeters>NAN</DistanceMeters>
          </Trackpoint>
          <Trackpoint>
            <Time>2022-07-04T16:29:33.000Z</Time>
            <Position>
              <LatitudeDegrees>44.6175141446292400360107421875</LatitudeDegrees>
              <LongitudeDegrees>-1.1146833188831806182861328125</LongitudeDegrees>
            </Position>
            <AltitudeMeters>4.80000019073486328125</AltitudeMeters>
            <DistanceMeters>NAN</DistanceMeters>
          </Trackpoint>
          <Trackpoint>
            <Time>2022-07-04T16:29:34.000Z</Time>
            <Position>
              <LatitudeDegrees>44.61754180490970611572265625</LatitudeDegrees>
              <LongitudeDegrees>-1.1147086322307586669921875</LongitudeDegrees>
            </Position>
            <AltitudeMeters>4.80000019073486328125</AltitudeMeters>
            <DistanceMeters>NAN</DistanceMeters>
          </Trackpoint>
          <Trackpoint>
            <Time>2022-07-04T16:29:38.000Z</Time>
            <Position>
              <LatitudeDegrees>44.61766879074275493621826171875</LatitudeDegrees>
              <LongitudeDegrees>-1.11470796167850494384765625</LongitudeDegrees>
            </Position>
            <AltitudeMeters>4.400000095367431640625</AltitudeMeters>
            <DistanceMeters>NAN</DistanceMeters>
          </Trackpoint>
          <Trackpoint>
            <Time>2022-07-04T16:29:39.000Z</Time>
            <Position>
              <LatitudeDegrees>44.61769242770969867706298828125</LatitudeDegrees>
              <LongitudeDegrees>-1.11471072770655155181884765625</LongitudeDegrees>
            </Position>
            <AltitudeMeters>4.19999980926513671875</AltitudeMeters>
            <DistanceMeters>NAN</DistanceMeters>
          </Trackpoint>
          <Trackpoint>
            <Time>2022-07-04T16:29:41.000Z</Time>
            <Position>
              <LatitudeDegrees>44.61772545240819454193115234375</LatitudeDegrees>
              <LongitudeDegrees>-1.11475196667015552520751953125</LongitudeDegrees>
            </Position>
            <AltitudeMeters>4.19999980926513671875</AltitudeMeters>
            <DistanceMeters>NAN</DistanceMeters>
          </Trackpoint>
          <Trackpoint>
            <Time>2022-07-04T16:29:42.000Z</Time>
            <Position>
              <LatitudeDegrees>44.6177354268729686737060546875</LatitudeDegrees>
              <LongitudeDegrees>-1.11478708684444427490234375</LongitudeDegrees>
            </Position>
            <AltitudeMeters>4.19999980926513671875</AltitudeMeters>
            <DistanceMeters>NAN</DistanceMeters>
          </Trackpoint>
          <Trackpoint>
            <Time>2022-07-04T16:29:45.000Z</Time>
            <Position>
              <LatitudeDegrees>44.6177605725824832916259765625</LatitudeDegrees>
              <LongitudeDegrees>-1.11490367911756038665771484375</LongitudeDegrees>
            </Position>
            <AltitudeMeters>4.400000095367431640625</AltitudeMeters>
            <DistanceMeters>NAN</DistanceMeters>
          </Trackpoint>
          <Trackpoint>
            <Time>2022-07-04T16:29:51.000Z</Time>
            <Position>
              <LatitudeDegrees>44.61781228892505168914794921875</LatitudeDegrees>
              <LongitudeDegrees>-1.11513988114893436431884765625</LongitudeDegrees>
            </Position>
            <AltitudeMeters>4.80000019073486328125</AltitudeMeters>
            <DistanceMeters>NAN</DistanceMeters>
          </Trackpoint>
          <Trackpoint>
            <Time>2022-07-04T16:29:56.000Z</Time>
            <Position>
              <LatitudeDegrees>44.61784631945192813873291015625</LatitudeDegrees>
              <LongitudeDegrees>-1.115345656871795654296875</LongitudeDegrees>
            </Position>
            <AltitudeMeters>4.599999904632568359375</AltitudeMeters>
            <DistanceMeters>NAN</DistanceMeters>
          </Trackpoint>
          <Trackpoint>
            <Time>2022-07-04T16:30:01.000Z</Time>
            <Position>
              <LatitudeDegrees>44.6178551204502582550048828125</LatitudeDegrees>
              <LongitudeDegrees>-1.11554975621402263641357421875</LongitudeDegrees>
            </Position>
            <AltitudeMeters>4.599999904632568359375</AltitudeMeters>
            <DistanceMeters>NAN</DistanceMeters>
          </Trackpoint>
          <Trackpoint>
            <Time>2022-07-04T16:30:02.000Z</Time>
            <Position>
              <LatitudeDegrees>44.617866687476634979248046875</LatitudeDegrees>
              <LongitudeDegrees>-1.1155905760824680328369140625</LongitudeDegrees>
            </Position>
            <AltitudeMeters>4.80000019073486328125</AltitudeMeters>
            <DistanceMeters>NAN</DistanceMeters>
          </Trackpoint>
          <Trackpoint>
            <Time>2022-07-04T16:30:05.000Z</Time>
            <Position>
              <LatitudeDegrees>44.6178980357944965362548828125</LatitudeDegrees>
              <LongitudeDegrees>-1.11572192050516605377197265625</LongitudeDegrees>
            </Position>
            <AltitudeMeters>4.80000019073486328125</AltitudeMeters>
            <DistanceMeters>NAN</DistanceMeters>
          </Trackpoint>
          <Trackpoint>
            <Time>2022-07-04T16:30:07.000Z</Time>
            <Position>
              <LatitudeDegrees>44.617896191775798797607421875</LatitudeDegrees>
              <LongitudeDegrees>-1.11582384444773197174072265625</LongitudeDegrees>
            </Position>
            <AltitudeMeters>4.80000019073486328125</AltitudeMeters>
            <DistanceMeters>NAN</DistanceMeters>
          </Trackpoint>
          <Trackpoint>
            <Time>2022-07-04T16:30:14.000Z</Time>
            <Position>
              <LatitudeDegrees>44.617906920611858367919921875</LatitudeDegrees>
              <LongitudeDegrees>-1.11615811474621295928955078125</LongitudeDegrees>
            </Position>
            <AltitudeMeters>5</AltitudeMeters>
            <DistanceMeters>NAN</DistanceMeters>
          </Trackpoint>
          <Trackpoint>
            <Time>2022-07-04T16:30:16.000Z</Time>
            <Position>
              <LatitudeDegrees>44.61793550290167331695556640625</LatitudeDegrees>
              <LongitudeDegrees>-1.11627638339996337890625</LongitudeDegrees>
            </Position>
            <AltitudeMeters>5</AltitudeMeters>
            <DistanceMeters>NAN</DistanceMeters>
          </Trackpoint>
          <Trackpoint>
            <Time>2022-07-04T16:30:23.000Z</Time>
            <Position>
              <LatitudeDegrees>44.618016220629215240478515625</LatitudeDegrees>
              <LongitudeDegrees>-1.1166772060096263885498046875</LongitudeDegrees>
            </Position>
            <AltitudeMeters>4.80000019073486328125</AltitudeMeters>
            <DistanceMeters>NAN</DistanceMeters>
          </Trackpoint>
          <Trackpoint>
            <Time>2022-07-04T16:30:28.000Z</Time>
            <Position>
              <LatitudeDegrees>44.618066512048244476318359375</LatitudeDegrees>
              <LongitudeDegrees>-1.11690360121428966522216796875</LongitudeDegrees>
            </Position>
            <AltitudeMeters>5</AltitudeMeters>
            <DistanceMeters>NAN</DistanceMeters>
          </Trackpoint>
          <Trackpoint>
            <Time>2022-07-04T16:30:34.000Z</Time>
            <Position>
              <LatitudeDegrees>44.618056118488311767578125</LatitudeDegrees>
              <LongitudeDegrees>-1.11716126091778278350830078125</LongitudeDegrees>
            </Position>
            <AltitudeMeters>5</AltitudeMeters>
            <DistanceMeters>NAN</DistanceMeters>
          </Trackpoint>
          <Trackpoint>
            <Time>2022-07-04T16:30:35.000Z</Time>
            <Position>
              <LatitudeDegrees>44.61806659586727619171142578125</LatitudeDegrees>
              <LongitudeDegrees>-1.1172126419842243194580078125</LongitudeDegrees>
            </Position>
            <AltitudeMeters>5.19999980926513671875</AltitudeMeters>
            <DistanceMeters>NAN</DistanceMeters>
          </Trackpoint>
          <Trackpoint>
            <Time>2022-07-04T16:30:40.000Z</Time>
            <Position>
              <LatitudeDegrees>44.61810951121151447296142578125</LatitudeDegrees>
              <LongitudeDegrees>-1.11738740466535091400146484375</LongitudeDegrees>
            </Position>
            <AltitudeMeters>5.19999980926513671875</AltitudeMeters>
            <DistanceMeters>NAN</DistanceMeters>
          </Trackpoint>
          <Trackpoint>
            <Time>2022-07-04T16:30:42.000Z</Time>
            <Position>
              <LatitudeDegrees>44.6181325614452362060546875</LatitudeDegrees>
              <LongitudeDegrees>-1.1174459941685199737548828125</LongitudeDegrees>
            </Position>
            <AltitudeMeters>5</AltitudeMeters>
            <DistanceMeters>NAN</DistanceMeters>
          </Trackpoint>
          <Trackpoint>
            <Time>2022-07-04T16:30:45.000Z</Time>
            <Position>
              <LatitudeDegrees>44.6181504987180233001708984375</LatitudeDegrees>
              <LongitudeDegrees>-1.11756677739322185516357421875</LongitudeDegrees>
            </Position>
            <AltitudeMeters>5</AltitudeMeters>
            <DistanceMeters>NAN</DistanceMeters>
          </Trackpoint>
          <Trackpoint>
            <Time>2022-07-04T16:30:50.000Z</Time>
            <Position>
              <LatitudeDegrees>44.618198610842227935791015625</LatitudeDegrees>
              <LongitudeDegrees>-1.11783382482826709747314453125</LongitudeDegrees>
            </Position>
            <AltitudeMeters>5.19999980926513671875</AltitudeMeters>
            <DistanceMeters>NAN</DistanceMeters>
          </Trackpoint>
          <Trackpoint>
            <Time>2022-07-04T16:30:51.000Z</Time>
            <Position>
              <LatitudeDegrees>44.61821277625858783721923828125</LatitudeDegrees>
              <LongitudeDegrees>-1.11788235604763031005859375</LongitudeDegrees>
            </Position>
            <AltitudeMeters>5.19999980926513671875</AltitudeMeters>
            <DistanceMeters>NAN</DistanceMeters>
          </Trackpoint>
          <Trackpoint>
            <Time>2022-07-04T16:30:55.000Z</Time>
            <Position>
              <LatitudeDegrees>44.61826256476342678070068359375</LatitudeDegrees>
              <LongitudeDegrees>-1.11807589419186115264892578125</LongitudeDegrees>
            </Position>
            <AltitudeMeters>5.19999980926513671875</AltitudeMeters>
            <DistanceMeters>NAN</DistanceMeters>
          </Trackpoint>
          <Trackpoint>
            <Time>2022-07-04T16:30:57.000Z</Time>
            <Position>
              <LatitudeDegrees>44.6182621456682682037353515625</LatitudeDegrees>
              <LongitudeDegrees>-1.11816792748868465423583984375</LongitudeDegrees>
            </Position>
            <AltitudeMeters>5.400000095367431640625</AltitudeMeters>
            <DistanceMeters>NAN</DistanceMeters>
          </Trackpoint>
          <Trackpoint>
            <Time>2022-07-04T16:30:59.000Z</Time>
            <Position>
              <LatitudeDegrees>44.61826072074472904205322265625</LatitudeDegrees>
              <LongitudeDegrees>-1.1182737909257411956787109375</LongitudeDegrees>
            </Position>
            <AltitudeMeters>5.599999904632568359375</AltitudeMeters>
            <DistanceMeters>NAN</DistanceMeters>
          </Trackpoint>
          <Trackpoint>
            <Time>2022-07-04T16:31:04.000Z</Time>
            <Position>
              <LatitudeDegrees>44.61828737519681453704833984375</LatitudeDegrees>
              <LongitudeDegrees>-1.1185500584542751312255859375</LongitudeDegrees>
            </Position>
            <AltitudeMeters>5.599999904632568359375</AltitudeMeters>
            <DistanceMeters>NAN</DistanceMeters>
          </Trackpoint>
          <Trackpoint>
            <Time>2022-07-04T16:31:08.000Z</Time>
            <Position>
              <LatitudeDegrees>44.6183281950652599334716796875</LatitudeDegrees>
              <LongitudeDegrees>-1.11871442757546901702880859375</LongitudeDegrees>
            </Position>
            <AltitudeMeters>5.599999904632568359375</AltitudeMeters>
            <DistanceMeters>NAN</DistanceMeters>
          </Trackpoint>
          <Trackpoint>
            <Time>2022-07-04T16:31:09.000Z</Time>
            <Position>
              <LatitudeDegrees>44.6183167956769466400146484375</LatitudeDegrees>
              <LongitudeDegrees>-1.11873672343790531158447265625</LongitudeDegrees>
            </Position>
            <AltitudeMeters>5.599999904632568359375</AltitudeMeters>
            <DistanceMeters>NAN</DistanceMeters>
          </Trackpoint>
          <Trackpoint>
            <Time>2022-07-04T16:31:15.000Z</Time>
            <Position>
              <LatitudeDegrees>44.61834110319614410400390625</LatitudeDegrees>
              <LongitudeDegrees>-1.11896940506994724273681640625</LongitudeDegrees>
            </Position>
            <AltitudeMeters>5.599999904632568359375</AltitudeMeters>
            <DistanceMeters>NAN</DistanceMeters>
          </Trackpoint>
          <Trackpoint>
            <Time>2022-07-04T16:31:18.000Z</Time>
            <Position>
              <LatitudeDegrees>44.61835292167961597442626953125</LatitudeDegrees>
              <LongitudeDegrees>-1.11912581138312816619873046875</LongitudeDegrees>
            </Position>
            <AltitudeMeters>5.400000095367431640625</AltitudeMeters>
            <DistanceMeters>NAN</DistanceMeters>
          </Trackpoint>
          <Trackpoint>
            <Time>2022-07-04T16:31:20.000Z</Time>
            <Position>
              <LatitudeDegrees>44.61836013011634349822998046875</LatitudeDegrees>
              <LongitudeDegrees>-1.11918322741985321044921875</LongitudeDegrees>
            </Position>
            <AltitudeMeters>5.400000095367431640625</AltitudeMeters>
            <DistanceMeters>NAN</DistanceMeters>
          </Trackpoint>
          <Trackpoint>
            <Time>2022-07-04T16:31:25.000Z</Time>
            <Position>
              <LatitudeDegrees>44.61840840987861156463623046875</LatitudeDegrees>
              <LongitudeDegrees>-1.1194160766899585723876953125</LongitudeDegrees>
            </Position>
            <AltitudeMeters>5.80000019073486328125</AltitudeMeters>
            <DistanceMeters>NAN</DistanceMeters>
          </Trackpoint>
          <Trackpoint>
            <Time>2022-07-04T16:31:32.000Z</Time>
            <Position>
              <LatitudeDegrees>44.618479907512664794921875</LatitudeDegrees>
              <LongitudeDegrees>-1.11985889263451099395751953125</LongitudeDegrees>
            </Position>
            <AltitudeMeters>5.599999904632568359375</AltitudeMeters>
            <DistanceMeters>NAN</DistanceMeters>
          </Trackpoint>
          <Trackpoint>
            <Time>2022-07-04T16:31:34.000Z</Time>
            <Position>
              <LatitudeDegrees>44.6184840984642505645751953125</LatitudeDegrees>
              <LongitudeDegrees>-1.1199706234037876129150390625</LongitudeDegrees>
            </Position>
            <AltitudeMeters>5.80000019073486328125</AltitudeMeters>
            <DistanceMeters>NAN</DistanceMeters>
          </Trackpoint>
          <Trackpoint>
            <Time>2022-07-04T16:31:36.000Z</Time>
            <Position>
              <LatitudeDegrees>44.61845149286091327667236328125</LatitudeDegrees>
              <LongitudeDegrees>-1.12007263116538524627685546875</LongitudeDegrees>
            </Position>
            <AltitudeMeters>5.599999904632568359375</AltitudeMeters>
            <DistanceMeters>NAN</DistanceMeters>
          </Trackpoint>
          <Trackpoint>
            <Time>2022-07-04T16:31:37.000Z</Time>
            <Position>
              <LatitudeDegrees>44.61842802353203296661376953125</LatitudeDegrees>
              <LongitudeDegrees>-1.12011571414768695831298828125</LongitudeDegrees>
            </Position>
            <AltitudeMeters>5.80000019073486328125</AltitudeMeters>
            <DistanceMeters>NAN</DistanceMeters>
          </Trackpoint>
          <Trackpoint>
            <Time>2022-07-04T16:31:40.000Z</Time>
            <Position>
              <LatitudeDegrees>44.6183660812675952911376953125</LatitudeDegrees>
              <LongitudeDegrees>-1.120291985571384429931640625</LongitudeDegrees>
            </Position>
            <AltitudeMeters>5.80000019073486328125</AltitudeMeters>
            <DistanceMeters>NAN</DistanceMeters>
          </Trackpoint>
          <Trackpoint>
            <Time>2022-07-04T16:31:42.000Z</Time>
            <Position>
              <LatitudeDegrees>44.61833012290298938751220703125</LatitudeDegrees>
              <LongitudeDegrees>-1.120372116565704345703125</LongitudeDegrees>
            </Position>
            <AltitudeMeters>5.80000019073486328125</AltitudeMeters>
            <DistanceMeters>NAN</DistanceMeters>
          </Trackpoint>
          <Trackpoint>
            <Time>2022-07-04T16:31:43.000Z</Time>
            <Position>
              <LatitudeDegrees>44.6183104254305362701416015625</LatitudeDegrees>
              <LongitudeDegrees>-1.12040271051228046417236328125</LongitudeDegrees>
            </Position>
            <AltitudeMeters>6</AltitudeMeters>
            <DistanceMeters>NAN</DistanceMeters>
          </Trackpoint>
          <Trackpoint>
            <Time>2022-07-04T16:31:47.000Z</Time>
            <Position>
              <LatitudeDegrees>44.61827673017978668212890625</LatitudeDegrees>
              <LongitudeDegrees>-1.12057604826986789703369140625</LongitudeDegrees>
            </Position>
            <AltitudeMeters>6</AltitudeMeters>
            <DistanceMeters>NAN</DistanceMeters>
          </Trackpoint>
          <Trackpoint>
            <Time>2022-07-04T16:31:56.000Z</Time>
            <Position>
              <LatitudeDegrees>44.61830732412636280059814453125</LatitudeDegrees>
              <LongitudeDegrees>-1.12101710401475429534912109375</LongitudeDegrees>
            </Position>
            <AltitudeMeters>5.80000019073486328125</AltitudeMeters>
            <DistanceMeters>NAN</DistanceMeters>
          </Trackpoint>
          <Trackpoint>
            <Time>2022-07-04T16:32:06.000Z</Time>
            <Position>
              <LatitudeDegrees>44.618399441242218017578125</LatitudeDegrees>
              <LongitudeDegrees>-1.12151197157800197601318359375</LongitudeDegrees>
            </Position>
            <AltitudeMeters>5.80000019073486328125</AltitudeMeters>
            <DistanceMeters>NAN</DistanceMeters>
          </Trackpoint>
          <Trackpoint>
            <Time>2022-07-04T16:32:15.000Z</Time>
            <Position>
              <LatitudeDegrees>44.618506394326686859130859375</LatitudeDegrees>
              <LongitudeDegrees>-1.121971048414707183837890625</LongitudeDegrees>
            </Position>
            <AltitudeMeters>6</AltitudeMeters>
            <DistanceMeters>NAN</DistanceMeters>
          </Trackpoint>
          <Trackpoint>
            <Time>2022-07-04T16:32:22.000Z</Time>
            <Position>
              <LatitudeDegrees>44.61861200630664825439453125</LatitudeDegrees>
              <LongitudeDegrees>-1.12232032231986522674560546875</LongitudeDegrees>
            </Position>
            <AltitudeMeters>5.80000019073486328125</AltitudeMeters>
            <DistanceMeters>NAN</DistanceMeters>
          </Trackpoint>
          <Trackpoint>
            <Time>2022-07-04T16:32:30.000Z</Time>
            <Position>
              <LatitudeDegrees>44.61869716644287109375</LatitudeDegrees>
              <LongitudeDegrees>-1.1227091588079929351806640625</LongitudeDegrees>
            </Position>
            <AltitudeMeters>5.599999904632568359375</AltitudeMeters>
            <DistanceMeters>NAN</DistanceMeters>
          </Trackpoint>
          <Trackpoint>
            <Time>2022-07-04T16:32:31.000Z</Time>
            <Position>
              <LatitudeDegrees>44.61869825609028339385986328125</LatitudeDegrees>
              <LongitudeDegrees>-1.12275433726608753204345703125</LongitudeDegrees>
            </Position>
            <AltitudeMeters>5.599999904632568359375</AltitudeMeters>
            <DistanceMeters>NAN</DistanceMeters>
          </Trackpoint>
          <Trackpoint>
            <Time>2022-07-04T16:32:36.000Z</Time>
            <Position>
              <LatitudeDegrees>44.618650563061237335205078125</LatitudeDegrees>
              <LongitudeDegrees>-1.12300227396190166473388671875</LongitudeDegrees>
            </Position>
            <AltitudeMeters>5.80000019073486328125</AltitudeMeters>
            <DistanceMeters>NAN</DistanceMeters>
          </Trackpoint>
          <Trackpoint>
            <Time>2022-07-04T16:32:42.000Z</Time>
            <Position>
              <LatitudeDegrees>44.618676044046878814697265625</LatitudeDegrees>
              <LongitudeDegrees>-1.1233223788440227508544921875</LongitudeDegrees>
            </Position>
            <AltitudeMeters>5.400000095367431640625</AltitudeMeters>
            <DistanceMeters>NAN</DistanceMeters>
          </Trackpoint>
          <Trackpoint>
            <Time>2022-07-04T16:32:51.000Z</Time>
            <Position>
              <LatitudeDegrees>44.61882649920880794525146484375</LatitudeDegrees>
              <LongitudeDegrees>-1.1237270571291446685791015625</LongitudeDegrees>
            </Position>
            <AltitudeMeters>5.400000095367431640625</AltitudeMeters>
            <DistanceMeters>NAN</DistanceMeters>
          </Trackpoint>
          <Trackpoint>
            <Time>2022-07-04T16:32:59.000Z</Time>
            <Position>
              <LatitudeDegrees>44.618908055126667022705078125</LatitudeDegrees>
              <LongitudeDegrees>-1.12410466186702251434326171875</LongitudeDegrees>
            </Position>
            <AltitudeMeters>5.19999980926513671875</AltitudeMeters>
            <DistanceMeters>NAN</DistanceMeters>
          </Trackpoint>
          <Trackpoint>
            <Time>2022-07-04T16:33:06.000Z</Time>
            <Position>
              <LatitudeDegrees>44.61901165544986724853515625</LatitudeDegrees>
              <LongitudeDegrees>-1.1244006268680095672607421875</LongitudeDegrees>
            </Position>
            <AltitudeMeters>5.19999980926513671875</AltitudeMeters>
            <DistanceMeters>NAN</DistanceMeters>
          </Trackpoint>
          <Trackpoint>
            <Time>2022-07-04T16:33:13.000Z</Time>
            <Position>
              <LatitudeDegrees>44.61912028491497039794921875</LatitudeDegrees>
              <LongitudeDegrees>-1.12465493381023406982421875</LongitudeDegrees>
            </Position>
            <AltitudeMeters>5.400000095367431640625</AltitudeMeters>
            <DistanceMeters>NAN</DistanceMeters>
          </Trackpoint>
          <Trackpoint>
            <Time>2022-07-04T16:33:14.000Z</Time>
            <Position>
              <LatitudeDegrees>44.61913730017840862274169921875</LatitudeDegrees>
              <LongitudeDegrees>-1.12469508312642574310302734375</LongitudeDegrees>
            </Position>
            <AltitudeMeters>5.400000095367431640625</AltitudeMeters>
            <DistanceMeters>NAN</DistanceMeters>
          </Trackpoint>
          <Trackpoint>
            <Time>2022-07-04T16:33:18.000Z</Time>
            <Position>
              <LatitudeDegrees>44.61917661130428314208984375</LatitudeDegrees>
              <LongitudeDegrees>-1.124873198568820953369140625</LongitudeDegrees>
            </Position>
            <AltitudeMeters>5.599999904632568359375</AltitudeMeters>
            <DistanceMeters>NAN</DistanceMeters>
          </Trackpoint>
          <Trackpoint>
            <Time>2022-07-04T16:33:20.000Z</Time>
            <Position>
              <LatitudeDegrees>44.619152806699275970458984375</LatitudeDegrees>
              <LongitudeDegrees>-1.12496313638985157012939453125</LongitudeDegrees>
            </Position>
            <AltitudeMeters>5.400000095367431640625</AltitudeMeters>
            <DistanceMeters>NAN</DistanceMeters>
          </Trackpoint>
          <Trackpoint>
            <Time>2022-07-04T16:33:26.000Z</Time>
            <Position>
              <LatitudeDegrees>44.61900989525020122528076171875</LatitudeDegrees>
              <LongitudeDegrees>-1.12517855130136013031005859375</LongitudeDegrees>
            </Position>
            <AltitudeMeters>5.599999904632568359375</AltitudeMeters>
            <DistanceMeters>NAN</DistanceMeters>
          </Trackpoint>
          <Trackpoint>
            <Time>2022-07-04T16:33:33.000Z</Time>
            <Position>
              <LatitudeDegrees>44.61886882781982421875</LatitudeDegrees>
              <LongitudeDegrees>-1.12541760317981243133544921875</LongitudeDegrees>
            </Position>
            <AltitudeMeters>5.599999904632568359375</AltitudeMeters>
            <DistanceMeters>NAN</DistanceMeters>
          </Trackpoint>
          <Trackpoint>
            <Time>2022-07-04T16:33:38.000Z</Time>
            <Position>
              <LatitudeDegrees>44.6188889443874359130859375</LatitudeDegrees>
              <LongitudeDegrees>-1.12564207054674625396728515625</LongitudeDegrees>
            </Position>
            <AltitudeMeters>6</AltitudeMeters>
            <DistanceMeters>NAN</DistanceMeters>
          </Trackpoint>
          <Trackpoint>
            <Time>2022-07-04T16:33:42.000Z</Time>
            <Position>
              <LatitudeDegrees>44.6189528144896030426025390625</LatitudeDegrees>
              <LongitudeDegrees>-1.125828064978122711181640625</LongitudeDegrees>
            </Position>
            <AltitudeMeters>5.80000019073486328125</AltitudeMeters>
            <DistanceMeters>NAN</DistanceMeters>
          </Trackpoint>
          <Trackpoint>
            <Time>2022-07-04T16:33:44.000Z</Time>
            <Position>
              <LatitudeDegrees>44.61897988803684711456298828125</LatitudeDegrees>
              <LongitudeDegrees>-1.12592705525457859039306640625</LongitudeDegrees>
            </Position>
            <AltitudeMeters>5.80000019073486328125</AltitudeMeters>
            <DistanceMeters>NAN</DistanceMeters>
          </Trackpoint>
          <Trackpoint>
            <Time>2022-07-04T16:33:52.000Z</Time>
            <Position>
              <LatitudeDegrees>44.6191035211086273193359375</LatitudeDegrees>
              <LongitudeDegrees>-1.12632033415138721466064453125</LongitudeDegrees>
            </Position>
            <AltitudeMeters>5.599999904632568359375</AltitudeMeters>
            <DistanceMeters>NAN</DistanceMeters>
          </Trackpoint>
          <Trackpoint>
            <Time>2022-07-04T16:33:53.000Z</Time>
            <Position>
              <LatitudeDegrees>44.6191258169710636138916015625</LatitudeDegrees>
              <LongitudeDegrees>-1.12636023201048374176025390625</LongitudeDegrees>
            </Position>
            <AltitudeMeters>5.599999904632568359375</AltitudeMeters>
            <DistanceMeters>NAN</DistanceMeters>
          </Trackpoint>
          <Trackpoint>
            <Time>2022-07-04T16:33:59.000Z</Time>
            <Position>
              <LatitudeDegrees>44.619212485849857330322265625</LatitudeDegrees>
              <LongitudeDegrees>-1.12664043903350830078125</LongitudeDegrees>
            </Position>
            <AltitudeMeters>5.599999904632568359375</AltitudeMeters>
            <DistanceMeters>NAN</DistanceMeters>
          </Trackpoint>
          <Trackpoint>
            <Time>2022-07-04T16:34:04.000Z</Time>
            <Position>
              <LatitudeDegrees>44.6192555688321590423583984375</LatitudeDegrees>
              <LongitudeDegrees>-1.126749403774738311767578125</LongitudeDegrees>
            </Position>
            <AltitudeMeters>5</AltitudeMeters>
            <DistanceMeters>NAN</DistanceMeters>
          </Trackpoint>
          <Trackpoint>
            <Time>2022-07-04T16:34:06.000Z</Time>
            <Position>
              <LatitudeDegrees>44.6192555688321590423583984375</LatitudeDegrees>
              <LongitudeDegrees>-1.126749403774738311767578125</LongitudeDegrees>
            </Position>
            <AltitudeMeters>4.80000019073486328125</AltitudeMeters>
            <DistanceMeters>NAN</DistanceMeters>
          </Trackpoint>
          <Trackpoint>
            <Time>2022-07-04T16:34:42.000Z</Time>
            <Position>
              <LatitudeDegrees>44.6192746795713901519775390625</LatitudeDegrees>
              <LongitudeDegrees>-1.126804389059543609619140625</LongitudeDegrees>
            </Position>
            <AltitudeMeters>4.80000019073486328125</AltitudeMeters>
            <DistanceMeters>NAN</DistanceMeters>
          </Trackpoint>
          <Trackpoint>
            <Time>2022-07-04T16:34:43.000Z</Time>
            <Position>
              <LatitudeDegrees>44.6192832291126251220703125</LatitudeDegrees>
              <LongitudeDegrees>-1.1268367432057857513427734375</LongitudeDegrees>
            </Position>
            <AltitudeMeters>4.80000019073486328125</AltitudeMeters>
            <DistanceMeters>NAN</DistanceMeters>
          </Trackpoint>
          <Trackpoint>
            <Time>2022-07-04T16:34:51.000Z</Time>
            <Position>
              <LatitudeDegrees>44.61938087828457355499267578125</LatitudeDegrees>
              <LongitudeDegrees>-1.12715383060276508331298828125</LongitudeDegrees>
            </Position>
            <AltitudeMeters>5.80000019073486328125</AltitudeMeters>
            <DistanceMeters>NAN</DistanceMeters>
          </Trackpoint>
          <Trackpoint>
            <Time>2022-07-04T16:34:58.000Z</Time>
            <Position>
              <LatitudeDegrees>44.6194775216281414031982421875</LatitudeDegrees>
              <LongitudeDegrees>-1.127456836402416229248046875</LongitudeDegrees>
            </Position>
            <AltitudeMeters>5.80000019073486328125</AltitudeMeters>
            <DistanceMeters>NAN</DistanceMeters>
          </Trackpoint>
          <Trackpoint>
            <Time>2022-07-04T16:35:04.000Z</Time>
            <Position>
              <LatitudeDegrees>44.6195486001670360565185546875</LatitudeDegrees>
              <LongitudeDegrees>-1.12771625630557537078857421875</LongitudeDegrees>
            </Position>
            <AltitudeMeters>6</AltitudeMeters>
            <DistanceMeters>NAN</DistanceMeters>
          </Trackpoint>
          <Trackpoint>
            <Time>2022-07-04T16:35:12.000Z</Time>
            <Position>
              <LatitudeDegrees>44.6196639351546764373779296875</LatitudeDegrees>
              <LongitudeDegrees>-1.1280819587409496307373046875</LongitudeDegrees>
            </Position>
            <AltitudeMeters>5.80000019073486328125</AltitudeMeters>
            <DistanceMeters>NAN</DistanceMeters>
          </Trackpoint>
          <Trackpoint>
            <Time>2022-07-04T16:35:17.000Z</Time>
            <Position>
              <LatitudeDegrees>44.61974012665450572967529296875</LatitudeDegrees>
              <LongitudeDegrees>-1.1283052526414394378662109375</LongitudeDegrees>
            </Position>
            <AltitudeMeters>6</AltitudeMeters>
            <DistanceMeters>NAN</DistanceMeters>
          </Trackpoint>
          <Trackpoint>
            <Time>2022-07-04T16:35:27.000Z</Time>
            <Position>
              <LatitudeDegrees>44.619896113872528076171875</LatitudeDegrees>
              <LongitudeDegrees>-1.128756366670131683349609375</LongitudeDegrees>
            </Position>
            <AltitudeMeters>5.80000019073486328125</AltitudeMeters>
            <DistanceMeters>NAN</DistanceMeters>
          </Trackpoint>
          <Trackpoint>
            <Time>2022-07-04T16:35:35.000Z</Time>
            <Position>
              <LatitudeDegrees>44.62000885047018527984619140625</LatitudeDegrees>
              <LongitudeDegrees>-1.12911100499331951141357421875</LongitudeDegrees>
            </Position>
            <AltitudeMeters>5.599999904632568359375</AltitudeMeters>
            <DistanceMeters>NAN</DistanceMeters>
          </Trackpoint>
          <Trackpoint>
            <Time>2022-07-04T16:35:36.000Z</Time>
            <Position>
              <LatitudeDegrees>44.62002326734364032745361328125</LatitudeDegrees>
              <LongitudeDegrees>-1.1291563510894775390625</LongitudeDegrees>
            </Position>
            <AltitudeMeters>5.599999904632568359375</AltitudeMeters>
            <DistanceMeters>NAN</DistanceMeters>
          </Trackpoint>
          <Trackpoint>
            <Time>2022-07-04T16:35:40.000Z</Time>
            <Position>
              <LatitudeDegrees>44.6200863830745220184326171875</LatitudeDegrees>
              <LongitudeDegrees>-1.12935894168913364410400390625</LongitudeDegrees>
            </Position>
            <AltitudeMeters>5.599999904632568359375</AltitudeMeters>
            <DistanceMeters>NAN</DistanceMeters>
          </Trackpoint>
          <Trackpoint>
            <Time>2022-07-04T16:35:44.000Z</Time>
            <Position>
              <LatitudeDegrees>44.6201410330832004547119140625</LatitudeDegrees>
              <LongitudeDegrees>-1.12953663803637027740478515625</LongitudeDegrees>
            </Position>
            <AltitudeMeters>5.400000095367431640625</AltitudeMeters>
            <DistanceMeters>NAN</DistanceMeters>
          </Trackpoint>
          <Trackpoint>
            <Time>2022-07-04T16:35:54.000Z</Time>
            <Position>
              <LatitudeDegrees>44.6202935837209224700927734375</LatitudeDegrees>
              <LongitudeDegrees>-1.130008958280086517333984375</LongitudeDegrees>
            </Position>
            <AltitudeMeters>5.599999904632568359375</AltitudeMeters>
            <DistanceMeters>NAN</DistanceMeters>
          </Trackpoint>
          <Trackpoint>
            <Time>2022-07-04T16:35:59.000Z</Time>
            <Position>
              <LatitudeDegrees>44.6203649975359439849853515625</LatitudeDegrees>
              <LongitudeDegrees>-1.13022797740995883941650390625</LongitudeDegrees>
            </Position>
            <AltitudeMeters>5.400000095367431640625</AltitudeMeters>
            <DistanceMeters>NAN</DistanceMeters>
          </Trackpoint>
          <Trackpoint>
            <Time>2022-07-04T16:36:04.000Z</Time>
            <Position>
              <LatitudeDegrees>44.62044772692024707794189453125</LatitudeDegrees>
              <LongitudeDegrees>-1.1304493434727191925048828125</LongitudeDegrees>
            </Position>
            <AltitudeMeters>5.400000095367431640625</AltitudeMeters>
            <DistanceMeters>NAN</DistanceMeters>
          </Trackpoint>
          <Trackpoint>
            <Time>2022-07-04T16:36:10.000Z</Time>
            <Position>
              <LatitudeDegrees>44.62055434472858905792236328125</LatitudeDegrees>
              <LongitudeDegrees>-1.13066635094583034515380859375</LongitudeDegrees>
            </Position>
            <AltitudeMeters>5.19999980926513671875</AltitudeMeters>
            <DistanceMeters>NAN</DistanceMeters>
          </Trackpoint>
          <Trackpoint>
            <Time>2022-07-04T16:36:16.000Z</Time>
            <Position>
              <LatitudeDegrees>44.62066414766013622283935546875</LatitudeDegrees>
              <LongitudeDegrees>-1.1308228410780429840087890625</LongitudeDegrees>
            </Position>
            <AltitudeMeters>5</AltitudeMeters>
            <DistanceMeters>NAN</DistanceMeters>
          </Trackpoint>
          <Trackpoint>
            <Time>2022-07-04T16:36:18.000Z</Time>
            <Position>
              <LatitudeDegrees>44.6206627227365970611572265625</LatitudeDegrees>
              <LongitudeDegrees>-1.1308751441538333892822265625</LongitudeDegrees>
            </Position>
            <AltitudeMeters>5</AltitudeMeters>
            <DistanceMeters>NAN</DistanceMeters>
          </Trackpoint>
          <Trackpoint>
            <Time>2022-07-04T16:36:20.000Z</Time>
            <Position>
              <LatitudeDegrees>44.6206419356167316436767578125</LatitudeDegrees>
              <LongitudeDegrees>-1.1309415288269519805908203125</LongitudeDegrees>
            </Position>
            <AltitudeMeters>5</AltitudeMeters>
            <DistanceMeters>NAN</DistanceMeters>
          </Trackpoint>
          <Trackpoint>
            <Time>2022-07-04T16:36:26.000Z</Time>
            <Position>
              <LatitudeDegrees>44.62056708522140979766845703125</LatitudeDegrees>
              <LongitudeDegrees>-1.1311916448175907135009765625</LongitudeDegrees>
            </Position>
            <AltitudeMeters>5.19999980926513671875</AltitudeMeters>
            <DistanceMeters>NAN</DistanceMeters>
          </Trackpoint>
          <Trackpoint>
            <Time>2022-07-04T16:36:27.000Z</Time>
            <Position>
              <LatitudeDegrees>44.62054747156798839569091796875</LatitudeDegrees>
              <LongitudeDegrees>-1.13122106529772281646728515625</LongitudeDegrees>
            </Position>
            <AltitudeMeters>5.19999980926513671875</AltitudeMeters>
            <DistanceMeters>NAN</DistanceMeters>
          </Trackpoint>
          <Trackpoint>
            <Time>2022-07-04T16:36:32.000Z</Time>
            <Position>
              <LatitudeDegrees>44.62044487707316875457763671875</LatitudeDegrees>
              <LongitudeDegrees>-1.131325922906398773193359375</LongitudeDegrees>
            </Position>
            <AltitudeMeters>4.599999904632568359375</AltitudeMeters>
            <DistanceMeters>NAN</DistanceMeters>
          </Trackpoint>
          <Trackpoint>
            <Time>2022-07-04T16:36:33.000Z</Time>
            <Position>
              <LatitudeDegrees>44.6204156242311000823974609375</LatitudeDegrees>
              <LongitudeDegrees>-1.131330616772174835205078125</LongitudeDegrees>
            </Position>
            <AltitudeMeters>4.599999904632568359375</AltitudeMeters>
            <DistanceMeters>NAN</DistanceMeters>
          </Trackpoint>
          <Trackpoint>
            <Time>2022-07-04T16:36:37.000Z</Time>
            <Position>
              <LatitudeDegrees>44.62028008885681629180908203125</LatitudeDegrees>
              <LongitudeDegrees>-1.13124101422727108001708984375</LongitudeDegrees>
            </Position>
            <AltitudeMeters>4.400000095367431640625</AltitudeMeters>
            <DistanceMeters>NAN</DistanceMeters>
          </Trackpoint>
          <Trackpoint>
            <Time>2022-07-04T16:36:44.000Z</Time>
            <Position>
              <LatitudeDegrees>44.62003290653228759765625</LatitudeDegrees>
              <LongitudeDegrees>-1.13102409057319164276123046875</LongitudeDegrees>
            </Position>
            <AltitudeMeters>4.599999904632568359375</AltitudeMeters>
            <DistanceMeters>NAN</DistanceMeters>
          </Trackpoint>
          <Trackpoint>
            <Time>2022-07-04T16:36:49.000Z</Time>
            <Position>
              <LatitudeDegrees>44.61989049799740314483642578125</LatitudeDegrees>
              <LongitudeDegrees>-1.13092753104865550994873046875</LongitudeDegrees>
            </Position>
            <AltitudeMeters>4.80000019073486328125</AltitudeMeters>
            <DistanceMeters>NAN</DistanceMeters>
          </Trackpoint>
          <Trackpoint>
            <Time>2022-07-04T16:36:57.000Z</Time>
            <Position>
              <LatitudeDegrees>44.6196260489523410797119140625</LatitudeDegrees>
              <LongitudeDegrees>-1.13071915693581104278564453125</LongitudeDegrees>
            </Position>
            <AltitudeMeters>4.599999904632568359375</AltitudeMeters>
            <DistanceMeters>NAN</DistanceMeters>
          </Trackpoint>
          <Trackpoint>
            <Time>2022-07-04T16:37:05.000Z</Time>
            <Position>
              <LatitudeDegrees>44.61933896876871585845947265625</LatitudeDegrees>
              <LongitudeDegrees>-1.1304867267608642578125</LongitudeDegrees>
            </Position>
            <AltitudeMeters>4.80000019073486328125</AltitudeMeters>
            <DistanceMeters>NAN</DistanceMeters>
          </Trackpoint>
          <Trackpoint>
            <Time>2022-07-04T16:37:07.000Z</Time>
            <Position>
              <LatitudeDegrees>44.6192699857056140899658203125</LatitudeDegrees>
              <LongitudeDegrees>-1.130432076752185821533203125</LongitudeDegrees>
            </Position>
            <AltitudeMeters>5</AltitudeMeters>
            <DistanceMeters>NAN</DistanceMeters>
          </Trackpoint>
          <Trackpoint>
            <Time>2022-07-04T16:37:08.000Z</Time>
            <Position>
              <LatitudeDegrees>44.61923369206488132476806640625</LatitudeDegrees>
              <LongitudeDegrees>-1.13040818832814693450927734375</LongitudeDegrees>
            </Position>
            <AltitudeMeters>5</AltitudeMeters>
            <DistanceMeters>NAN</DistanceMeters>
          </Trackpoint>
          <Trackpoint>
            <Time>2022-07-04T16:37:13.000Z</Time>
            <Position>
              <LatitudeDegrees>44.61906504817306995391845703125</LatitudeDegrees>
              <LongitudeDegrees>-1.1302877403795719146728515625</LongitudeDegrees>
            </Position>
            <AltitudeMeters>5</AltitudeMeters>
            <DistanceMeters>NAN</DistanceMeters>
          </Trackpoint>
          <Trackpoint>
            <Time>2022-07-04T16:37:18.000Z</Time>
            <Position>
              <LatitudeDegrees>44.618909396231174468994140625</LatitudeDegrees>
              <LongitudeDegrees>-1.13017818890511989593505859375</LongitudeDegrees>
            </Position>
            <AltitudeMeters>5</AltitudeMeters>
            <DistanceMeters>NAN</DistanceMeters>
          </Trackpoint>
          <Trackpoint>
            <Time>2022-07-04T16:37:20.000Z</Time>
            <Position>
              <LatitudeDegrees>44.618839658796787261962890625</LatitudeDegrees>
              <LongitudeDegrees>-1.13016192801296710968017578125</LongitudeDegrees>
            </Position>
            <AltitudeMeters>5</AltitudeMeters>
            <DistanceMeters>NAN</DistanceMeters>
          </Trackpoint>
          <Trackpoint>
            <Time>2022-07-04T16:37:25.000Z</Time>
            <Position>
              <LatitudeDegrees>44.618674702942371368408203125</LatitudeDegrees>
              <LongitudeDegrees>-1.13007022999227046966552734375</LongitudeDegrees>
            </Position>
            <AltitudeMeters>5.400000095367431640625</AltitudeMeters>
            <DistanceMeters>NAN</DistanceMeters>
          </Trackpoint>
          <Trackpoint>
            <Time>2022-07-04T16:37:26.000Z</Time>
            <Position>
              <LatitudeDegrees>44.61864276789128780364990234375</LatitudeDegrees>
              <LongitudeDegrees>-1.13004407845437526702880859375</LongitudeDegrees>
            </Position>
            <AltitudeMeters>5.599999904632568359375</AltitudeMeters>
            <DistanceMeters>NAN</DistanceMeters>
          </Trackpoint>
          <Trackpoint>
            <Time>2022-07-04T16:37:30.000Z</Time>
            <Position>
              <LatitudeDegrees>44.61851033382117748260498046875</LatitudeDegrees>
              <LongitudeDegrees>-1.12993947230279445648193359375</LongitudeDegrees>
            </Position>
            <AltitudeMeters>5.599999904632568359375</AltitudeMeters>
            <DistanceMeters>NAN</DistanceMeters>
          </Trackpoint>
          <Trackpoint>
            <Time>2022-07-04T16:37:32.000Z</Time>
            <Position>
              <LatitudeDegrees>44.6184371598064899444580078125</LatitudeDegrees>
              <LongitudeDegrees>-1.1299068666994571685791015625</LongitudeDegrees>
            </Position>
            <AltitudeMeters>5.400000095367431640625</AltitudeMeters>
            <DistanceMeters>NAN</DistanceMeters>
          </Trackpoint>
          <Trackpoint>
            <Time>2022-07-04T16:37:33.000Z</Time>
            <Position>
              <LatitudeDegrees>44.61840053088963031768798828125</LatitudeDegrees>
              <LongitudeDegrees>-1.12991952337324619293212890625</LongitudeDegrees>
            </Position>
            <AltitudeMeters>5.400000095367431640625</AltitudeMeters>
            <DistanceMeters>NAN</DistanceMeters>
          </Trackpoint>
          <Trackpoint>
            <Time>2022-07-04T16:37:34.000Z</Time>
            <Position>
              <LatitudeDegrees>44.61837253533303737640380859375</LatitudeDegrees>
              <LongitudeDegrees>-1.12995070405304431915283203125</LongitudeDegrees>
            </Position>
            <AltitudeMeters>5.400000095367431640625</AltitudeMeters>
            <DistanceMeters>NAN</DistanceMeters>
          </Trackpoint>
          <Trackpoint>
            <Time>2022-07-04T16:37:36.000Z</Time>
            <Position>
              <LatitudeDegrees>44.618353508412837982177734375</LatitudeDegrees>
              <LongitudeDegrees>-1.1300436593592166900634765625</LongitudeDegrees>
            </Position>
            <AltitudeMeters>5.400000095367431640625</AltitudeMeters>
            <DistanceMeters>NAN</DistanceMeters>
          </Trackpoint>
          <Trackpoint>
            <Time>2022-07-04T16:37:39.000Z</Time>
            <Position>
              <LatitudeDegrees>44.6183493174612522125244140625</LatitudeDegrees>
              <LongitudeDegrees>-1.13021087832748889923095703125</LongitudeDegrees>
            </Position>
            <AltitudeMeters>5.599999904632568359375</AltitudeMeters>
            <DistanceMeters>NAN</DistanceMeters>
          </Trackpoint>
          <Trackpoint>
            <Time>2022-07-04T16:37:42.000Z</Time>
            <Position>
              <LatitudeDegrees>44.61832635104656219482421875</LatitudeDegrees>
              <LongitudeDegrees>-1.13038790412247180938720703125</LongitudeDegrees>
            </Position>
            <AltitudeMeters>5.599999904632568359375</AltitudeMeters>
            <DistanceMeters>NAN</DistanceMeters>
          </Trackpoint>
          <Trackpoint>
            <Time>2022-07-04T16:37:53.000Z</Time>
            <Position>
              <LatitudeDegrees>44.6182774007320404052734375</LatitudeDegrees>
              <LongitudeDegrees>-1.130975224077701568603515625</LongitudeDegrees>
            </Position>
            <AltitudeMeters>5.80000019073486328125</AltitudeMeters>
            <DistanceMeters>NAN</DistanceMeters>
          </Trackpoint>
          <Trackpoint>
            <Time>2022-07-04T16:37:59.000Z</Time>
            <Position>
              <LatitudeDegrees>44.61824848316609859466552734375</LatitudeDegrees>
              <LongitudeDegrees>-1.13121033646166324615478515625</LongitudeDegrees>
            </Position>
            <AltitudeMeters>6.400000095367431640625</AltitudeMeters>
            <DistanceMeters>NAN</DistanceMeters>
          </Trackpoint>
          <Trackpoint>
            <Time>2022-07-04T16:38:05.000Z</Time>
            <Position>
              <LatitudeDegrees>44.61821864359080791473388671875</LatitudeDegrees>
              <LongitudeDegrees>-1.13154108636081218719482421875</LongitudeDegrees>
            </Position>
            <AltitudeMeters>6</AltitudeMeters>
            <DistanceMeters>NAN</DistanceMeters>
          </Trackpoint>
          <Trackpoint>
            <Time>2022-07-04T16:38:13.000Z</Time>
            <Position>
              <LatitudeDegrees>44.61817472241818904876708984375</LatitudeDegrees>
              <LongitudeDegrees>-1.13200016319751739501953125</LongitudeDegrees>
            </Position>
            <AltitudeMeters>5.80000019073486328125</AltitudeMeters>
            <DistanceMeters>NAN</DistanceMeters>
          </Trackpoint>
          <Trackpoint>
            <Time>2022-07-04T16:38:14.000Z</Time>
            <Position>
              <LatitudeDegrees>44.6181686036288738250732421875</LatitudeDegrees>
              <LongitudeDegrees>-1.13205573521554470062255859375</LongitudeDegrees>
            </Position>
            <AltitudeMeters>5.80000019073486328125</AltitudeMeters>
            <DistanceMeters>NAN</DistanceMeters>
          </Trackpoint>
          <Trackpoint>
            <Time>2022-07-04T16:38:15.000Z</Time>
            <Position>
              <LatitudeDegrees>44.6181592158973217010498046875</LatitudeDegrees>
              <LongitudeDegrees>-1.13211273215711116790771484375</LongitudeDegrees>
            </Position>
            <AltitudeMeters>5.80000019073486328125</AltitudeMeters>
            <DistanceMeters>NAN</DistanceMeters>
          </Trackpoint>
          <Trackpoint>
            <Time>2022-07-04T16:38:17.000Z</Time>
            <Position>
              <LatitudeDegrees>44.618138931691646575927734375</LatitudeDegrees>
              <LongitudeDegrees>-1.1322247982025146484375</LongitudeDegrees>
            </Position>
            <AltitudeMeters>5.80000019073486328125</AltitudeMeters>
            <DistanceMeters>NAN</DistanceMeters>
          </Trackpoint>
          <Trackpoint>
            <Time>2022-07-04T16:38:19.000Z</Time>
            <Position>
              <LatitudeDegrees>44.61812577210366725921630859375</LatitudeDegrees>
              <LongitudeDegrees>-1.13233502022922039031982421875</LongitudeDegrees>
            </Position>
            <AltitudeMeters>5.80000019073486328125</AltitudeMeters>
            <DistanceMeters>NAN</DistanceMeters>
          </Trackpoint>
          <Trackpoint>
            <Time>2022-07-04T16:38:21.000Z</Time>
            <Position>
              <LatitudeDegrees>44.61811353452503681182861328125</LatitudeDegrees>
              <LongitudeDegrees>-1.13244314678013324737548828125</LongitudeDegrees>
            </Position>
            <AltitudeMeters>5.80000019073486328125</AltitudeMeters>
            <DistanceMeters>NAN</DistanceMeters>
          </Trackpoint>
          <Trackpoint>
            <Time>2022-07-04T16:38:22.000Z</Time>
            <Position>
              <LatitudeDegrees>44.61810951121151447296142578125</LatitudeDegrees>
              <LongitudeDegrees>-1.13249503076076507568359375</LongitudeDegrees>
            </Position>
            <AltitudeMeters>5.80000019073486328125</AltitudeMeters>
            <DistanceMeters>NAN</DistanceMeters>
          </Trackpoint>
          <Trackpoint>
            <Time>2022-07-04T16:38:27.000Z</Time>
            <Position>
              <LatitudeDegrees>44.61806642822921276092529296875</LatitudeDegrees>
              <LongitudeDegrees>-1.1327607370913028717041015625</LongitudeDegrees>
            </Position>
            <AltitudeMeters>5.599999904632568359375</AltitudeMeters>
            <DistanceMeters>NAN</DistanceMeters>
          </Trackpoint>
          <Trackpoint>
            <Time>2022-07-04T16:38:29.000Z</Time>
            <Position>
              <LatitudeDegrees>44.618050754070281982421875</LatitudeDegrees>
              <LongitudeDegrees>-1.13286576233804225921630859375</LongitudeDegrees>
            </Position>
            <AltitudeMeters>5.400000095367431640625</AltitudeMeters>
            <DistanceMeters>NAN</DistanceMeters>
          </Trackpoint>
          <Trackpoint>
            <Time>2022-07-04T16:38:31.000Z</Time>
            <Position>
              <LatitudeDegrees>44.618030972778797149658203125</LatitudeDegrees>
              <LongitudeDegrees>-1.132963411509990692138671875</LongitudeDegrees>
            </Position>
            <AltitudeMeters>5.400000095367431640625</AltitudeMeters>
            <DistanceMeters>NAN</DistanceMeters>
          </Trackpoint>
          <Trackpoint>
            <Time>2022-07-04T16:38:35.000Z</Time>
            <Position>
              <LatitudeDegrees>44.61798981763422489166259765625</LatitudeDegrees>
              <LongitudeDegrees>-1.133149825036525726318359375</LongitudeDegrees>
            </Position>
            <AltitudeMeters>5.400000095367431640625</AltitudeMeters>
            <DistanceMeters>NAN</DistanceMeters>
          </Trackpoint>
          <Trackpoint>
            <Time>2022-07-04T16:38:37.000Z</Time>
            <Position>
              <LatitudeDegrees>44.61796668358147144317626953125</LatitudeDegrees>
              <LongitudeDegrees>-1.13324998877942562103271484375</LongitudeDegrees>
            </Position>
            <AltitudeMeters>5.19999980926513671875</AltitudeMeters>
            <DistanceMeters>NAN</DistanceMeters>
          </Trackpoint>
          <Trackpoint>
            <Time>2022-07-04T16:38:44.000Z</Time>
            <Position>
              <LatitudeDegrees>44.617883451282978057861328125</LatitudeDegrees>
              <LongitudeDegrees>-1.13361292518675327301025390625</LongitudeDegrees>
            </Position>
            <AltitudeMeters>5</AltitudeMeters>
            <DistanceMeters>NAN</DistanceMeters>
          </Trackpoint>
          <Trackpoint>
            <Time>2022-07-04T16:38:50.000Z</Time>
            <Position>
              <LatitudeDegrees>44.6178561262786388397216796875</LatitudeDegrees>
              <LongitudeDegrees>-1.13392104394733905792236328125</LongitudeDegrees>
            </Position>
            <AltitudeMeters>5</AltitudeMeters>
            <DistanceMeters>NAN</DistanceMeters>
          </Trackpoint>
          <Trackpoint>
            <Time>2022-07-04T16:38:58.000Z</Time>
            <Position>
              <LatitudeDegrees>44.61780088953673839569091796875</LatitudeDegrees>
              <LongitudeDegrees>-1.1343566514551639556884765625</LongitudeDegrees>
            </Position>
            <AltitudeMeters>5</AltitudeMeters>
            <DistanceMeters>NAN</DistanceMeters>
          </Trackpoint>
          <Trackpoint>
            <Time>2022-07-04T16:39:06.000Z</Time>
            <Position>
              <LatitudeDegrees>44.617712460458278656005859375</LatitudeDegrees>
              <LongitudeDegrees>-1.134779267013072967529296875</LongitudeDegrees>
            </Position>
            <AltitudeMeters>4.80000019073486328125</AltitudeMeters>
            <DistanceMeters>NAN</DistanceMeters>
          </Trackpoint>
          <Trackpoint>
            <Time>2022-07-04T16:39:07.000Z</Time>
            <Position>
              <LatitudeDegrees>44.617703072726726531982421875</LatitudeDegrees>
              <LongitudeDegrees>-1.13483232446014881134033203125</LongitudeDegrees>
            </Position>
            <AltitudeMeters>5</AltitudeMeters>
            <DistanceMeters>NAN</DistanceMeters>
          </Trackpoint>
          <Trackpoint>
            <Time>2022-07-04T16:39:09.000Z</Time>
            <Position>
              <LatitudeDegrees>44.61768236942589282989501953125</LatitudeDegrees>
              <LongitudeDegrees>-1.134933494031429290771484375</LongitudeDegrees>
            </Position>
            <AltitudeMeters>5</AltitudeMeters>
            <DistanceMeters>NAN</DistanceMeters>
          </Trackpoint>
          <Trackpoint>
            <Time>2022-07-04T16:39:14.000Z</Time>
            <Position>
              <LatitudeDegrees>44.61763224564492702484130859375</LatitudeDegrees>
              <LongitudeDegrees>-1.13519928418099880218505859375</LongitudeDegrees>
            </Position>
            <AltitudeMeters>4.80000019073486328125</AltitudeMeters>
            <DistanceMeters>NAN</DistanceMeters>
          </Trackpoint>
          <Trackpoint>
            <Time>2022-07-04T16:39:24.000Z</Time>
            <Position>
              <LatitudeDegrees>44.6175151504576206207275390625</LatitudeDegrees>
              <LongitudeDegrees>-1.1357158608734607696533203125</LongitudeDegrees>
            </Position>
            <AltitudeMeters>4.80000019073486328125</AltitudeMeters>
            <DistanceMeters>NAN</DistanceMeters>
          </Trackpoint>
          <Trackpoint>
            <Time>2022-07-04T16:39:26.000Z</Time>
            <Position>
              <LatitudeDegrees>44.617493189871311187744140625</LatitudeDegrees>
              <LongitudeDegrees>-1.1358134262263774871826171875</LongitudeDegrees>
            </Position>
            <AltitudeMeters>4.80000019073486328125</AltitudeMeters>
            <DistanceMeters>NAN</DistanceMeters>
          </Trackpoint>
          <Trackpoint>
            <Time>2022-07-04T16:39:28.000Z</Time>
            <Position>
              <LatitudeDegrees>44.6174732409417629241943359375</LatitudeDegrees>
              <LongitudeDegrees>-1.1359056271612644195556640625</LongitudeDegrees>
            </Position>
            <AltitudeMeters>4.80000019073486328125</AltitudeMeters>
            <DistanceMeters>NAN</DistanceMeters>
          </Trackpoint>
          <Trackpoint>
            <Time>2022-07-04T16:39:29.000Z</Time>
            <Position>
              <LatitudeDegrees>44.61746209301054477691650390625</LatitudeDegrees>
              <LongitudeDegrees>-1.135953404009342193603515625</LongitudeDegrees>
            </Position>
            <AltitudeMeters>4.80000019073486328125</AltitudeMeters>
            <DistanceMeters>NAN</DistanceMeters>
          </Trackpoint>
          <Trackpoint>
            <Time>2022-07-04T16:39:31.000Z</Time>
            <Position>
              <LatitudeDegrees>44.61743057705461978912353515625</LatitudeDegrees>
              <LongitudeDegrees>-1.13604962825775146484375</LongitudeDegrees>
            </Position>
            <AltitudeMeters>4.80000019073486328125</AltitudeMeters>
            <DistanceMeters>NAN</DistanceMeters>
          </Trackpoint>
          <Trackpoint>
            <Time>2022-07-04T16:39:33.000Z</Time>
            <Position>
              <LatitudeDegrees>44.61740375496447086334228515625</LatitudeDegrees>
              <LongitudeDegrees>-1.13614015281200408935546875</LongitudeDegrees>
            </Position>
            <AltitudeMeters>5</AltitudeMeters>
            <DistanceMeters>NAN</DistanceMeters>
          </Trackpoint>
          <Trackpoint>
            <Time>2022-07-04T16:39:43.000Z</Time>
            <Position>
              <LatitudeDegrees>44.61730686016380786895751953125</LatitudeDegrees>
              <LongitudeDegrees>-1.13663292489945888519287109375</LongitudeDegrees>
            </Position>
            <AltitudeMeters>5</AltitudeMeters>
            <DistanceMeters>NAN</DistanceMeters>
          </Trackpoint>
          <Trackpoint>
            <Time>2022-07-04T16:39:46.000Z</Time>
            <Position>
              <LatitudeDegrees>44.61728003807365894317626953125</LatitudeDegrees>
              <LongitudeDegrees>-1.1368008144199848175048828125</LongitudeDegrees>
            </Position>
            <AltitudeMeters>5</AltitudeMeters>
            <DistanceMeters>NAN</DistanceMeters>
          </Trackpoint>
          <Trackpoint>
            <Time>2022-07-04T16:39:51.000Z</Time>
            <Position>
              <LatitudeDegrees>44.617230333387851715087890625</LatitudeDegrees>
              <LongitudeDegrees>-1.13703190349042415618896484375</LongitudeDegrees>
            </Position>
            <AltitudeMeters>4.80000019073486328125</AltitudeMeters>
            <DistanceMeters>NAN</DistanceMeters>
          </Trackpoint>
          <Trackpoint>
            <Time>2022-07-04T16:39:57.000Z</Time>
            <Position>
              <LatitudeDegrees>44.617160595953464508056640625</LatitudeDegrees>
              <LongitudeDegrees>-1.13729752600193023681640625</LongitudeDegrees>
            </Position>
            <AltitudeMeters>5</AltitudeMeters>
            <DistanceMeters>NAN</DistanceMeters>
          </Trackpoint>
          <Trackpoint>
            <Time>2022-07-04T16:39:58.000Z</Time>
            <Position>
              <LatitudeDegrees>44.6171414852142333984375</LatitudeDegrees>
              <LongitudeDegrees>-1.137355864048004150390625</LongitudeDegrees>
            </Position>
            <AltitudeMeters>5</AltitudeMeters>
            <DistanceMeters>NAN</DistanceMeters>
          </Trackpoint>
          <Trackpoint>
            <Time>2022-07-04T16:40:01.000Z</Time>
            <Position>
              <LatitudeDegrees>44.617105610668659210205078125</LatitudeDegrees>
              <LongitudeDegrees>-1.13750003278255462646484375</LongitudeDegrees>
            </Position>
            <AltitudeMeters>5</AltitudeMeters>
            <DistanceMeters>NAN</DistanceMeters>
          </Trackpoint>
          <Trackpoint>
            <Time>2022-07-04T16:40:05.000Z</Time>
            <Position>
              <LatitudeDegrees>44.6170762740075588226318359375</LatitudeDegrees>
              <LongitudeDegrees>-1.13768166862428188323974609375</LongitudeDegrees>
            </Position>
            <AltitudeMeters>5.400000095367431640625</AltitudeMeters>
            <DistanceMeters>NAN</DistanceMeters>
          </Trackpoint>
          <Trackpoint>
            <Time>2022-07-04T16:40:13.000Z</Time>
            <Position>
              <LatitudeDegrees>44.61713570170104503631591796875</LatitudeDegrees>
              <LongitudeDegrees>-1.13801526837050914764404296875</LongitudeDegrees>
            </Position>
            <AltitudeMeters>5.400000095367431640625</AltitudeMeters>
            <DistanceMeters>NAN</DistanceMeters>
          </Trackpoint>
          <Trackpoint>
            <Time>2022-07-04T16:40:15.000Z</Time>
            <Position>
              <LatitudeDegrees>44.61713285185396671295166015625</LatitudeDegrees>
              <LongitudeDegrees>-1.13805835135281085968017578125</LongitudeDegrees>
            </Position>
            <AltitudeMeters>5</AltitudeMeters>
            <DistanceMeters>NAN</DistanceMeters>
          </Trackpoint>
          <Trackpoint>
            <Time>2022-07-04T16:40:18.000Z</Time>
            <Position>
              <LatitudeDegrees>44.617096893489360809326171875</LatitudeDegrees>
              <LongitudeDegrees>-1.13815273158252239227294921875</LongitudeDegrees>
            </Position>
            <AltitudeMeters>5</AltitudeMeters>
            <DistanceMeters>NAN</DistanceMeters>
          </Trackpoint>
          <Trackpoint>
            <Time>2022-07-04T16:40:21.000Z</Time>
            <Position>
              <LatitudeDegrees>44.61704769171774387359619140625</LatitudeDegrees>
              <LongitudeDegrees>-1.1382559128105640411376953125</LongitudeDegrees>
            </Position>
            <AltitudeMeters>5</AltitudeMeters>
            <DistanceMeters>NAN</DistanceMeters>
          </Trackpoint>
          <Trackpoint>
            <Time>2022-07-04T16:40:24.000Z</Time>
            <Position>
              <LatitudeDegrees>44.6169921196997165679931640625</LatitudeDegrees>
              <LongitudeDegrees>-1.13835540600121021270751953125</LongitudeDegrees>
            </Position>
            <AltitudeMeters>5</AltitudeMeters>
            <DistanceMeters>NAN</DistanceMeters>
          </Trackpoint>
          <Trackpoint>
            <Time>2022-07-04T16:40:26.000Z</Time>
            <Position>
              <LatitudeDegrees>44.6169300936162471771240234375</LatitudeDegrees>
              <LongitudeDegrees>-1.13839597441256046295166015625</LongitudeDegrees>
            </Position>
            <AltitudeMeters>4.80000019073486328125</AltitudeMeters>
            <DistanceMeters>NAN</DistanceMeters>
          </Trackpoint>
          <Trackpoint>
            <Time>2022-07-04T16:40:27.000Z</Time>
            <Position>
              <LatitudeDegrees>44.616899080574512481689453125</LatitudeDegrees>
              <LongitudeDegrees>-1.1384201981127262115478515625</LongitudeDegrees>
            </Position>
            <AltitudeMeters>4.80000019073486328125</AltitudeMeters>
            <DistanceMeters>NAN</DistanceMeters>
          </Trackpoint>
          <Trackpoint>
            <Time>2022-07-04T16:40:28.000Z</Time>
            <Position>
              <LatitudeDegrees>44.61686748079955577850341796875</LatitudeDegrees>
              <LongitudeDegrees>-1.1384513787925243377685546875</LongitudeDegrees>
            </Position>
            <AltitudeMeters>4.80000019073486328125</AltitudeMeters>
            <DistanceMeters>NAN</DistanceMeters>
          </Trackpoint>
          <Trackpoint>
            <Time>2022-07-04T16:40:31.000Z</Time>
            <Position>
              <LatitudeDegrees>44.61680109612643718719482421875</LatitudeDegrees>
              <LongitudeDegrees>-1.1385955475270748138427734375</LongitudeDegrees>
            </Position>
            <AltitudeMeters>4.80000019073486328125</AltitudeMeters>
            <DistanceMeters>NAN</DistanceMeters>
          </Trackpoint>
          <Trackpoint>
            <Time>2022-07-04T16:40:34.000Z</Time>
            <Position>
              <LatitudeDegrees>44.616744518280029296875</LatitudeDegrees>
              <LongitudeDegrees>-1.13876813091337680816650390625</LongitudeDegrees>
            </Position>
            <AltitudeMeters>5</AltitudeMeters>
            <DistanceMeters>NAN</DistanceMeters>
          </Trackpoint>
          <Trackpoint>
            <Time>2022-07-04T16:40:37.000Z</Time>
            <Position>
              <LatitudeDegrees>44.61669263429939746856689453125</LatitudeDegrees>
              <LongitudeDegrees>-1.13891833461821079254150390625</LongitudeDegrees>
            </Position>
            <AltitudeMeters>4.80000019073486328125</AltitudeMeters>
            <DistanceMeters>NAN</DistanceMeters>
          </Trackpoint>
          <Trackpoint>
            <Time>2022-07-04T16:40:38.000Z</Time>
            <Position>
              <LatitudeDegrees>44.6166732721030712127685546875</LatitudeDegrees>
              <LongitudeDegrees>-1.1389697156846523284912109375</LongitudeDegrees>
            </Position>
            <AltitudeMeters>4.80000019073486328125</AltitudeMeters>
            <DistanceMeters>NAN</DistanceMeters>
          </Trackpoint>
          <Trackpoint>
            <Time>2022-07-04T16:40:39.000Z</Time>
            <Position>
              <LatitudeDegrees>44.61665005423128604888916015625</LatitudeDegrees>
              <LongitudeDegrees>-1.1390166543424129486083984375</LongitudeDegrees>
            </Position>
            <AltitudeMeters>4.80000019073486328125</AltitudeMeters>
            <DistanceMeters>NAN</DistanceMeters>
          </Trackpoint>
          <Trackpoint>
            <Time>2022-07-04T16:40:41.000Z</Time>
            <Position>
              <LatitudeDegrees>44.616606049239635467529296875</LatitudeDegrees>
              <LongitudeDegrees>-1.13910533487796783447265625</LongitudeDegrees>
            </Position>
            <AltitudeMeters>4.80000019073486328125</AltitudeMeters>
            <DistanceMeters>NAN</DistanceMeters>
          </Trackpoint>
          <Trackpoint>
            <Time>2022-07-04T16:40:43.000Z</Time>
            <Position>
              <LatitudeDegrees>44.6165760420262813568115234375</LatitudeDegrees>
              <LongitudeDegrees>-1.13920818082988262176513671875</LongitudeDegrees>
            </Position>
            <AltitudeMeters>4.80000019073486328125</AltitudeMeters>
            <DistanceMeters>NAN</DistanceMeters>
          </Trackpoint>
          <Trackpoint>
            <Time>2022-07-04T16:40:44.000Z</Time>
            <Position>
              <LatitudeDegrees>44.61656606756150722503662109375</LatitudeDegrees>
              <LongitudeDegrees>-1.13925780169665813446044921875</LongitudeDegrees>
            </Position>
            <AltitudeMeters>5</AltitudeMeters>
            <DistanceMeters>NAN</DistanceMeters>
          </Trackpoint>
          <Trackpoint>
            <Time>2022-07-04T16:40:49.000Z</Time>
            <Position>
              <LatitudeDegrees>44.61647696793079376220703125</LatitudeDegrees>
              <LongitudeDegrees>-1.13950707949697971343994140625</LongitudeDegrees>
            </Position>
            <AltitudeMeters>4.80000019073486328125</AltitudeMeters>
            <DistanceMeters>NAN</DistanceMeters>
          </Trackpoint>
          <Trackpoint>
            <Time>2022-07-04T16:40:54.000Z</Time>
            <Position>
              <LatitudeDegrees>44.61639893241226673126220703125</LatitudeDegrees>
              <LongitudeDegrees>-1.13974462263286113739013671875</LongitudeDegrees>
            </Position>
            <AltitudeMeters>4.80000019073486328125</AltitudeMeters>
            <DistanceMeters>NAN</DistanceMeters>
          </Trackpoint>
          <Trackpoint>
            <Time>2022-07-04T16:40:59.000Z</Time>
            <Position>
              <LatitudeDegrees>44.616317711770534515380859375</LatitudeDegrees>
              <LongitudeDegrees>-1.1400097422301769256591796875</LongitudeDegrees>
            </Position>
            <AltitudeMeters>5</AltitudeMeters>
            <DistanceMeters>NAN</DistanceMeters>
          </Trackpoint>
          <Trackpoint>
            <Time>2022-07-04T16:41:02.000Z</Time>
            <Position>
              <LatitudeDegrees>44.61628074757754802703857421875</LatitudeDegrees>
              <LongitudeDegrees>-1.1401762068271636962890625</LongitudeDegrees>
            </Position>
            <AltitudeMeters>5</AltitudeMeters>
            <DistanceMeters>NAN</DistanceMeters>
          </Trackpoint>
          <Trackpoint>
            <Time>2022-07-04T16:41:07.000Z</Time>
            <Position>
              <LatitudeDegrees>44.6161958388984203338623046875</LatitudeDegrees>
              <LongitudeDegrees>-1.1404134146869182586669921875</LongitudeDegrees>
            </Position>
            <AltitudeMeters>5.19999980926513671875</AltitudeMeters>
            <DistanceMeters>NAN</DistanceMeters>
          </Trackpoint>
          <Trackpoint>
            <Time>2022-07-04T16:41:08.000Z</Time>
            <Position>
              <LatitudeDegrees>44.61617999710142612457275390625</LatitudeDegrees>
              <LongitudeDegrees>-1.140454150736331939697265625</LongitudeDegrees>
            </Position>
            <AltitudeMeters>5.19999980926513671875</AltitudeMeters>
            <DistanceMeters>NAN</DistanceMeters>
          </Trackpoint>
          <Trackpoint>
            <Time>2022-07-04T16:41:12.000Z</Time>
            <Position>
              <LatitudeDegrees>44.61612886749207973480224609375</LatitudeDegrees>
              <LongitudeDegrees>-1.14066193811595439910888671875</LongitudeDegrees>
            </Position>
            <AltitudeMeters>5</AltitudeMeters>
            <DistanceMeters>NAN</DistanceMeters>
          </Trackpoint>
          <Trackpoint>
            <Time>2022-07-04T16:41:19.000Z</Time>
            <Position>
              <LatitudeDegrees>44.6159822680056095123291015625</LatitudeDegrees>
              <LongitudeDegrees>-1.1410076916217803955078125</LongitudeDegrees>
            </Position>
            <AltitudeMeters>4.80000019073486328125</AltitudeMeters>
            <DistanceMeters>NAN</DistanceMeters>
          </Trackpoint>
          <Trackpoint>
            <Time>2022-07-04T16:41:21.000Z</Time>
            <Position>
              <LatitudeDegrees>44.61594245396554470062255859375</LatitudeDegrees>
              <LongitudeDegrees>-1.1411104537546634674072265625</LongitudeDegrees>
            </Position>
            <AltitudeMeters>5</AltitudeMeters>
            <DistanceMeters>NAN</DistanceMeters>
          </Trackpoint>
          <Trackpoint>
            <Time>2022-07-04T16:41:22.000Z</Time>
            <Position>
              <LatitudeDegrees>44.6159143745899200439453125</LatitudeDegrees>
              <LongitudeDegrees>-1.14115445874631404876708984375</LongitudeDegrees>
            </Position>
            <AltitudeMeters>4.80000019073486328125</AltitudeMeters>
            <DistanceMeters>NAN</DistanceMeters>
          </Trackpoint>
          <Trackpoint>
            <Time>2022-07-04T16:41:23.000Z</Time>
            <Position>
              <LatitudeDegrees>44.61588461883366107940673828125</LatitudeDegrees>
              <LongitudeDegrees>-1.141204833984375</LongitudeDegrees>
            </Position>
            <AltitudeMeters>4.80000019073486328125</AltitudeMeters>
            <DistanceMeters>NAN</DistanceMeters>
          </Trackpoint>
          <Trackpoint>
            <Time>2022-07-04T16:41:25.000Z</Time>
            <Position>
              <LatitudeDegrees>44.61583198048174381256103515625</LatitudeDegrees>
              <LongitudeDegrees>-1.141320504248142242431640625</LongitudeDegrees>
            </Position>
            <AltitudeMeters>5</AltitudeMeters>
            <DistanceMeters>NAN</DistanceMeters>
          </Trackpoint>
          <Trackpoint>
            <Time>2022-07-04T16:41:26.000Z</Time>
            <Position>
              <LatitudeDegrees>44.6158025600016117095947265625</LatitudeDegrees>
              <LongitudeDegrees>-1.1413870565593242645263671875</LongitudeDegrees>
            </Position>
            <AltitudeMeters>5</AltitudeMeters>
            <DistanceMeters>NAN</DistanceMeters>
          </Trackpoint>
          <Trackpoint>
            <Time>2022-07-04T16:41:27.000Z</Time>
            <Position>
              <LatitudeDegrees>44.615788646042346954345703125</LatitudeDegrees>
              <LongitudeDegrees>-1.141439862549304962158203125</LongitudeDegrees>
            </Position>
            <AltitudeMeters>5</AltitudeMeters>
            <DistanceMeters>NAN</DistanceMeters>
          </Trackpoint>
          <Trackpoint>
            <Time>2022-07-04T16:41:32.000Z</Time>
            <Position>
              <LatitudeDegrees>44.615738354623317718505859375</LatitudeDegrees>
              <LongitudeDegrees>-1.14168696105480194091796875</LongitudeDegrees>
            </Position>
            <AltitudeMeters>5</AltitudeMeters>
            <DistanceMeters>NAN</DistanceMeters>
          </Trackpoint>
          <Trackpoint>
            <Time>2022-07-04T16:41:34.000Z</Time>
            <Position>
              <LatitudeDegrees>44.6156895719468593597412109375</LatitudeDegrees>
              <LongitudeDegrees>-1.14178477786481380462646484375</LongitudeDegrees>
            </Position>
            <AltitudeMeters>5</AltitudeMeters>
            <DistanceMeters>NAN</DistanceMeters>
          </Trackpoint>
          <Trackpoint>
            <Time>2022-07-04T16:41:37.000Z</Time>
            <Position>
              <LatitudeDegrees>44.6155936829745769500732421875</LatitudeDegrees>
              <LongitudeDegrees>-1.141935400664806365966796875</LongitudeDegrees>
            </Position>
            <AltitudeMeters>5</AltitudeMeters>
            <DistanceMeters>NAN</DistanceMeters>
          </Trackpoint>
          <Trackpoint>
            <Time>2022-07-04T16:41:38.000Z</Time>
            <Position>
              <LatitudeDegrees>44.61557297967374324798583984375</LatitudeDegrees>
              <LongitudeDegrees>-1.1419892124831676483154296875</LongitudeDegrees>
            </Position>
            <AltitudeMeters>5.19999980926513671875</AltitudeMeters>
            <DistanceMeters>NAN</DistanceMeters>
          </Trackpoint>
          <Trackpoint>
            <Time>2022-07-04T16:41:45.000Z</Time>
            <Position>
              <LatitudeDegrees>44.615456052124500274658203125</LatitudeDegrees>
              <LongitudeDegrees>-1.14233027212321758270263671875</LongitudeDegrees>
            </Position>
            <AltitudeMeters>5</AltitudeMeters>
            <DistanceMeters>NAN</DistanceMeters>
          </Trackpoint>
          <Trackpoint>
            <Time>2022-07-04T16:41:49.000Z</Time>
            <Position>
              <LatitudeDegrees>44.61539628915488719940185546875</LatitudeDegrees>
              <LongitudeDegrees>-1.1425145901739597320556640625</LongitudeDegrees>
            </Position>
            <AltitudeMeters>5.19999980926513671875</AltitudeMeters>
            <DistanceMeters>NAN</DistanceMeters>
          </Trackpoint>
          <Trackpoint>
            <Time>2022-07-04T16:41:51.000Z</Time>
            <Position>
              <LatitudeDegrees>44.61537994444370269775390625</LatitudeDegrees>
              <LongitudeDegrees>-1.142634451389312744140625</LongitudeDegrees>
            </Position>
            <AltitudeMeters>5.19999980926513671875</AltitudeMeters>
            <DistanceMeters>NAN</DistanceMeters>
          </Trackpoint>
          <Trackpoint>
            <Time>2022-07-04T16:41:52.000Z</Time>
            <Position>
              <LatitudeDegrees>44.61536460556089878082275390625</LatitudeDegrees>
              <LongitudeDegrees>-1.14267191849648952484130859375</LongitudeDegrees>
            </Position>
            <AltitudeMeters>5.19999980926513671875</AltitudeMeters>
            <DistanceMeters>NAN</DistanceMeters>
          </Trackpoint>
          <Trackpoint>
            <Time>2022-07-04T16:41:54.000Z</Time>
            <Position>
              <LatitudeDegrees>44.61532252840697765350341796875</LatitudeDegrees>
              <LongitudeDegrees>-1.1427697353065013885498046875</LongitudeDegrees>
            </Position>
            <AltitudeMeters>5.19999980926513671875</AltitudeMeters>
            <DistanceMeters>NAN</DistanceMeters>
          </Trackpoint>
          <Trackpoint>
            <Time>2022-07-04T16:41:55.000Z</Time>
            <Position>
              <LatitudeDegrees>44.6152882464230060577392578125</LatitudeDegrees>
              <LongitudeDegrees>-1.142809800803661346435546875</LongitudeDegrees>
            </Position>
            <AltitudeMeters>5.19999980926513671875</AltitudeMeters>
            <DistanceMeters>NAN</DistanceMeters>
          </Trackpoint>
          <Trackpoint>
            <Time>2022-07-04T16:41:56.000Z</Time>
            <Position>
              <LatitudeDegrees>44.6152671240270137786865234375</LatitudeDegrees>
              <LongitudeDegrees>-1.14285497926175594329833984375</LongitudeDegrees>
            </Position>
            <AltitudeMeters>5.19999980926513671875</AltitudeMeters>
            <DistanceMeters>NAN</DistanceMeters>
          </Trackpoint>
          <Trackpoint>
            <Time>2022-07-04T16:41:58.000Z</Time>
            <Position>
              <LatitudeDegrees>44.61524608545005321502685546875</LatitudeDegrees>
              <LongitudeDegrees>-1.1429544724524021148681640625</LongitudeDegrees>
            </Position>
            <AltitudeMeters>5.19999980926513671875</AltitudeMeters>
            <DistanceMeters>NAN</DistanceMeters>
          </Trackpoint>
          <Trackpoint>
            <Time>2022-07-04T16:41:59.000Z</Time>
            <Position>
              <LatitudeDegrees>44.61525253951549530029296875</LatitudeDegrees>
              <LongitudeDegrees>-1.14301892928779125213623046875</LongitudeDegrees>
            </Position>
            <AltitudeMeters>5.400000095367431640625</AltitudeMeters>
            <DistanceMeters>NAN</DistanceMeters>
          </Trackpoint>
          <Trackpoint>
            <Time>2022-07-04T16:42:00.000Z</Time>
            <Position>
              <LatitudeDegrees>44.6152476780116558074951171875</LatitudeDegrees>
              <LongitudeDegrees>-1.1430734954774379730224609375</LongitudeDegrees>
            </Position>
            <AltitudeMeters>5.400000095367431640625</AltitudeMeters>
            <DistanceMeters>NAN</DistanceMeters>
          </Trackpoint>
          <Trackpoint>
            <Time>2022-07-04T16:42:02.000Z</Time>
            <Position>
              <LatitudeDegrees>44.61521364748477935791015625</LatitudeDegrees>
              <LongitudeDegrees>-1.14317332394421100616455078125</LongitudeDegrees>
            </Position>
            <AltitudeMeters>5.400000095367431640625</AltitudeMeters>
            <DistanceMeters>NAN</DistanceMeters>
          </Trackpoint>
          <Trackpoint>
            <Time>2022-07-04T16:42:07.000Z</Time>
            <Position>
              <LatitudeDegrees>44.6151662059128284454345703125</LatitudeDegrees>
              <LongitudeDegrees>-1.14343710243701934814453125</LongitudeDegrees>
            </Position>
            <AltitudeMeters>5.599999904632568359375</AltitudeMeters>
            <DistanceMeters>NAN</DistanceMeters>
          </Trackpoint>
          <Trackpoint>
            <Time>2022-07-04T16:42:12.000Z</Time>
            <Position>
              <LatitudeDegrees>44.615068137645721435546875</LatitudeDegrees>
              <LongitudeDegrees>-1.14363022148609161376953125</LongitudeDegrees>
            </Position>
            <AltitudeMeters>6</AltitudeMeters>
            <DistanceMeters>NAN</DistanceMeters>
          </Trackpoint>
          <Trackpoint>
            <Time>2022-07-04T16:42:13.000Z</Time>
            <Position>
              <LatitudeDegrees>44.6150614321231842041015625</LatitudeDegrees>
              <LongitudeDegrees>-1.14368797279894351959228515625</LongitudeDegrees>
            </Position>
            <AltitudeMeters>6</AltitudeMeters>
            <DistanceMeters>NAN</DistanceMeters>
          </Trackpoint>
          <Trackpoint>
            <Time>2022-07-04T16:42:19.000Z</Time>
            <Position>
              <LatitudeDegrees>44.61497702635824680328369140625</LatitudeDegrees>
              <LongitudeDegrees>-1.14391076378524303436279296875</LongitudeDegrees>
            </Position>
            <AltitudeMeters>6.599999904632568359375</AltitudeMeters>
            <DistanceMeters>NAN</DistanceMeters>
          </Trackpoint>
          <Trackpoint>
            <Time>2022-07-04T16:42:20.000Z</Time>
            <Position>
              <LatitudeDegrees>44.61496009491384029388427734375</LatitudeDegrees>
              <LongitudeDegrees>-1.143947727978229522705078125</LongitudeDegrees>
            </Position>
            <AltitudeMeters>6.599999904632568359375</AltitudeMeters>
            <DistanceMeters>NAN</DistanceMeters>
          </Trackpoint>
          <Trackpoint>
            <Time>2022-07-04T16:42:28.000Z</Time>
            <Position>
              <LatitudeDegrees>44.61485113017261028289794921875</LatitudeDegrees>
              <LongitudeDegrees>-1.14423765800893306732177734375</LongitudeDegrees>
            </Position>
            <AltitudeMeters>7.400000095367431640625</AltitudeMeters>
            <DistanceMeters>NAN</DistanceMeters>
          </Trackpoint>
          <Trackpoint>
            <Time>2022-07-04T16:42:34.000Z</Time>
            <Position>
              <LatitudeDegrees>44.61476529948413372039794921875</LatitudeDegrees>
              <LongitudeDegrees>-1.1444846726953983306884765625</LongitudeDegrees>
            </Position>
            <AltitudeMeters>7.400000095367431640625</AltitudeMeters>
            <DistanceMeters>NAN</DistanceMeters>
          </Trackpoint>
          <Trackpoint>
            <Time>2022-07-04T16:42:37.000Z</Time>
            <Position>
              <LatitudeDegrees>44.61471433751285076141357421875</LatitudeDegrees>
              <LongitudeDegrees>-1.1446211300790309906005859375</LongitudeDegrees>
            </Position>
            <AltitudeMeters>7.19999980926513671875</AltitudeMeters>
            <DistanceMeters>NAN</DistanceMeters>
          </Trackpoint>
          <Trackpoint>
            <Time>2022-07-04T16:42:41.000Z</Time>
            <Position>
              <LatitudeDegrees>44.6146475337445735931396484375</LatitudeDegrees>
              <LongitudeDegrees>-1.144808717072010040283203125</LongitudeDegrees>
            </Position>
            <AltitudeMeters>7</AltitudeMeters>
            <DistanceMeters>NAN</DistanceMeters>
          </Trackpoint>
          <Trackpoint>
            <Time>2022-07-04T16:42:45.000Z</Time>
            <Position>
              <LatitudeDegrees>44.61458257399499416351318359375</LatitudeDegrees>
              <LongitudeDegrees>-1.1449822224676609039306640625</LongitudeDegrees>
            </Position>
            <AltitudeMeters>7.19999980926513671875</AltitudeMeters>
            <DistanceMeters>NAN</DistanceMeters>
          </Trackpoint>
          <Trackpoint>
            <Time>2022-07-04T16:42:48.000Z</Time>
            <Position>
              <LatitudeDegrees>44.6145372278988361358642578125</LatitudeDegrees>
              <LongitudeDegrees>-1.1450925283133983612060546875</LongitudeDegrees>
            </Position>
            <AltitudeMeters>7.400000095367431640625</AltitudeMeters>
            <DistanceMeters>NAN</DistanceMeters>
          </Trackpoint>
          <Trackpoint>
            <Time>2022-07-04T16:42:50.000Z</Time>
            <Position>
              <LatitudeDegrees>44.61451384238898754119873046875</LatitudeDegrees>
              <LongitudeDegrees>-1.14516369067132472991943359375</LongitudeDegrees>
            </Position>
            <AltitudeMeters>7.400000095367431640625</AltitudeMeters>
            <DistanceMeters>NAN</DistanceMeters>
          </Trackpoint>
          <Trackpoint>
            <Time>2022-07-04T16:42:55.000Z</Time>
            <Position>
              <LatitudeDegrees>44.6144364774227142333984375</LatitudeDegrees>
              <LongitudeDegrees>-1.14534792490303516387939453125</LongitudeDegrees>
            </Position>
            <AltitudeMeters>7.599999904632568359375</AltitudeMeters>
            <DistanceMeters>NAN</DistanceMeters>
          </Trackpoint>
          <Trackpoint>
            <Time>2022-07-04T16:42:57.000Z</Time>
            <Position>
              <LatitudeDegrees>44.61441275663673877716064453125</LatitudeDegrees>
              <LongitudeDegrees>-1.14540257491171360015869140625</LongitudeDegrees>
            </Position>
            <AltitudeMeters>7.80000019073486328125</AltitudeMeters>
            <DistanceMeters>NAN</DistanceMeters>
          </Trackpoint>
          <Trackpoint>
            <Time>2022-07-04T16:43:02.000Z</Time>
            <Position>
              <LatitudeDegrees>44.6143585257232189178466796875</LatitudeDegrees>
              <LongitudeDegrees>-1.14551388658583164215087890625</LongitudeDegrees>
            </Position>
            <AltitudeMeters>8.6000003814697265625</AltitudeMeters>
            <DistanceMeters>NAN</DistanceMeters>
          </Trackpoint>
          <Trackpoint>
            <Time>2022-07-04T16:43:03.000Z</Time>
            <Position>
              <LatitudeDegrees>44.6143464557826519012451171875</LatitudeDegrees>
              <LongitudeDegrees>-1.1455357633531093597412109375</LongitudeDegrees>
            </Position>
            <AltitudeMeters>8.80000019073486328125</AltitudeMeters>
            <DistanceMeters>NAN</DistanceMeters>
          </Trackpoint>
          <Trackpoint>
            <Time>2022-07-04T16:43:08.000Z</Time>
            <Position>
              <LatitudeDegrees>44.61432022042572498321533203125</LatitudeDegrees>
              <LongitudeDegrees>-1.14565134979784488677978515625</LongitudeDegrees>
            </Position>
            <AltitudeMeters>9.80000019073486328125</AltitudeMeters>
            <DistanceMeters>NAN</DistanceMeters>
          </Trackpoint>
          <Trackpoint>
            <Time>2022-07-04T16:43:09.000Z</Time>
            <Position>
              <LatitudeDegrees>44.61431133560836315155029296875</LatitudeDegrees>
              <LongitudeDegrees>-1.14567414857447147369384765625</LongitudeDegrees>
            </Position>
            <AltitudeMeters>10</AltitudeMeters>
            <DistanceMeters>NAN</DistanceMeters>
          </Trackpoint>
          <Trackpoint>
            <Time>2022-07-04T16:43:12.000Z</Time>
            <Position>
              <LatitudeDegrees>44.614288620650768280029296875</LatitudeDegrees>
              <LongitudeDegrees>-1.1457141302525997161865234375</LongitudeDegrees>
            </Position>
            <AltitudeMeters>10.6000003814697265625</AltitudeMeters>
            <DistanceMeters>NAN</DistanceMeters>
          </Trackpoint>
          <Trackpoint>
            <Time>2022-07-04T16:43:13.000Z</Time>
            <Position>
              <LatitudeDegrees>44.61428367532789707183837890625</LatitudeDegrees>
              <LongitudeDegrees>-1.14572360180318355560302734375</LongitudeDegrees>
            </Position>
            <AltitudeMeters>10.80000019073486328125</AltitudeMeters>
            <DistanceMeters>NAN</DistanceMeters>
          </Trackpoint>
          <Trackpoint>
            <Time>2022-07-04T16:43:14.000Z</Time>
            <Position>
              <LatitudeDegrees>44.61427696980535984039306640625</LatitudeDegrees>
              <LongitudeDegrees>-1.14574958570301532745361328125</LongitudeDegrees>
            </Position>
            <AltitudeMeters>11</AltitudeMeters>
            <DistanceMeters>NAN</DistanceMeters>
          </Trackpoint>
          <Trackpoint>
            <Time>2022-07-04T16:43:17.000Z</Time>
            <Position>
              <LatitudeDegrees>44.61425618268549442291259765625</LatitudeDegrees>
              <LongitudeDegrees>-1.14585301838815212249755859375</LongitudeDegrees>
            </Position>
            <AltitudeMeters>11.6000003814697265625</AltitudeMeters>
            <DistanceMeters>NAN</DistanceMeters>
          </Trackpoint>
          <Trackpoint>
            <Time>2022-07-04T16:43:19.000Z</Time>
            <Position>
              <LatitudeDegrees>44.61424310691654682159423828125</LatitudeDegrees>
              <LongitudeDegrees>-1.145899035036563873291015625</LongitudeDegrees>
            </Position>
            <AltitudeMeters>12</AltitudeMeters>
            <DistanceMeters>NAN</DistanceMeters>
          </Trackpoint>
          <Trackpoint>
            <Time>2022-07-04T16:43:20.000Z</Time>
            <Position>
              <LatitudeDegrees>44.61423170752823352813720703125</LatitudeDegrees>
              <LongitudeDegrees>-1.14593583159148693084716796875</LongitudeDegrees>
            </Position>
            <AltitudeMeters>12.19999980926513671875</AltitudeMeters>
            <DistanceMeters>NAN</DistanceMeters>
          </Trackpoint>
          <Trackpoint>
            <Time>2022-07-04T16:43:26.000Z</Time>
            <Position>
              <LatitudeDegrees>44.61412425152957439422607421875</LatitudeDegrees>
              <LongitudeDegrees>-1.1460802517831325531005859375</LongitudeDegrees>
            </Position>
            <AltitudeMeters>12.6000003814697265625</AltitudeMeters>
            <DistanceMeters>NAN</DistanceMeters>
          </Trackpoint>
          <Trackpoint>
            <Time>2022-07-04T16:43:32.000Z</Time>
            <Position>
              <LatitudeDegrees>44.6140329726040363311767578125</LatitudeDegrees>
              <LongitudeDegrees>-1.14640974439680576324462890625</LongitudeDegrees>
            </Position>
            <AltitudeMeters>13</AltitudeMeters>
            <DistanceMeters>NAN</DistanceMeters>
          </Trackpoint>
          <Trackpoint>
            <Time>2022-07-04T16:43:33.000Z</Time>
            <Position>
              <LatitudeDegrees>44.61402366869151592254638671875</LatitudeDegrees>
              <LongitudeDegrees>-1.14644109271466732025146484375</LongitudeDegrees>
            </Position>
            <AltitudeMeters>13</AltitudeMeters>
            <DistanceMeters>NAN</DistanceMeters>
          </Trackpoint>
          <Trackpoint>
            <Time>2022-07-04T16:43:39.000Z</Time>
            <Position>
              <LatitudeDegrees>44.613960720598697662353515625</LatitudeDegrees>
              <LongitudeDegrees>-1.14664770662784576416015625</LongitudeDegrees>
            </Position>
            <AltitudeMeters>13.19999980926513671875</AltitudeMeters>
            <DistanceMeters>NAN</DistanceMeters>
          </Trackpoint>
          <Trackpoint>
            <Time>2022-07-04T16:43:48.000Z</Time>
            <Position>
              <LatitudeDegrees>44.6138472296297550201416015625</LatitudeDegrees>
              <LongitudeDegrees>-1.14701609127223491668701171875</LongitudeDegrees>
            </Position>
            <AltitudeMeters>13.6000003814697265625</AltitudeMeters>
            <DistanceMeters>NAN</DistanceMeters>
          </Trackpoint>
          <Trackpoint>
            <Time>2022-07-04T16:43:55.000Z</Time>
            <Position>
              <LatitudeDegrees>44.6137556992471218109130859375</LatitudeDegrees>
              <LongitudeDegrees>-1.14726117812097072601318359375</LongitudeDegrees>
            </Position>
            <AltitudeMeters>13.80000019073486328125</AltitudeMeters>
            <DistanceMeters>NAN</DistanceMeters>
          </Trackpoint>
          <Trackpoint>
            <Time>2022-07-04T16:44:01.000Z</Time>
            <Position>
              <LatitudeDegrees>44.6137560345232486724853515625</LatitudeDegrees>
              <LongitudeDegrees>-1.1475603282451629638671875</LongitudeDegrees>
            </Position>
            <AltitudeMeters>13.19999980926513671875</AltitudeMeters>
            <DistanceMeters>NAN</DistanceMeters>
          </Trackpoint>
          <Trackpoint>
            <Time>2022-07-04T16:44:04.000Z</Time>
            <Position>
              <LatitudeDegrees>44.6137712895870208740234375</LatitudeDegrees>
              <LongitudeDegrees>-1.14770256914198398590087890625</LongitudeDegrees>
            </Position>
            <AltitudeMeters>11.6000003814697265625</AltitudeMeters>
            <DistanceMeters>NAN</DistanceMeters>
          </Trackpoint>
          <Trackpoint>
            <Time>2022-07-04T16:44:06.000Z</Time>
            <Position>
              <LatitudeDegrees>44.61376165039837360382080078125</LatitudeDegrees>
              <LongitudeDegrees>-1.14775721915066242218017578125</LongitudeDegrees>
            </Position>
            <AltitudeMeters>10.80000019073486328125</AltitudeMeters>
            <DistanceMeters>NAN</DistanceMeters>
          </Trackpoint>
          <Trackpoint>
            <Time>2022-07-04T16:44:07.000Z</Time>
            <Position>
              <LatitudeDegrees>44.61375720798969268798828125</LatitudeDegrees>
              <LongitudeDegrees>-1.147780604660511016845703125</LongitudeDegrees>
            </Position>
            <AltitudeMeters>10.3999996185302734375</AltitudeMeters>
            <DistanceMeters>NAN</DistanceMeters>
          </Trackpoint>
          <Trackpoint>
            <Time>2022-07-04T16:44:09.000Z</Time>
            <Position>
              <LatitudeDegrees>44.6137546934187412261962890625</LatitudeDegrees>
              <LongitudeDegrees>-1.147840954363346099853515625</LongitudeDegrees>
            </Position>
            <AltitudeMeters>10</AltitudeMeters>
            <DistanceMeters>NAN</DistanceMeters>
          </Trackpoint>
          <Trackpoint>
            <Time>2022-07-04T16:44:11.000Z</Time>
            <Position>
              <LatitudeDegrees>44.61378009058535099029541015625</LatitudeDegrees>
              <LongitudeDegrees>-1.1478944309055805206298828125</LongitudeDegrees>
            </Position>
            <AltitudeMeters>10</AltitudeMeters>
            <DistanceMeters>NAN</DistanceMeters>
          </Trackpoint>
          <Trackpoint>
            <Time>2022-07-04T16:44:12.000Z</Time>
            <Position>
              <LatitudeDegrees>44.61380548775196075439453125</LatitudeDegrees>
              <LongitudeDegrees>-1.14790658466517925262451171875</LongitudeDegrees>
            </Position>
            <AltitudeMeters>10</AltitudeMeters>
            <DistanceMeters>NAN</DistanceMeters>
          </Trackpoint>
          <Trackpoint>
            <Time>2022-07-04T16:44:15.000Z</Time>
            <Position>
              <LatitudeDegrees>44.61387120187282562255859375</LatitudeDegrees>
              <LongitudeDegrees>-1.1479417048394680023193359375</LongitudeDegrees>
            </Position>
            <AltitudeMeters>10</AltitudeMeters>
            <DistanceMeters>NAN</DistanceMeters>
          </Trackpoint>
          <Trackpoint>
            <Time>2022-07-04T16:44:21.000Z</Time>
            <Position>
              <LatitudeDegrees>44.61407228372991085052490234375</LatitudeDegrees>
              <LongitudeDegrees>-1.147996522486209869384765625</LongitudeDegrees>
            </Position>
            <AltitudeMeters>10</AltitudeMeters>
            <DistanceMeters>NAN</DistanceMeters>
          </Trackpoint>
          <Trackpoint>
            <Time>2022-07-04T16:44:31.000Z</Time>
            <Position>
              <LatitudeDegrees>44.6145115792751312255859375</LatitudeDegrees>
              <LongitudeDegrees>-1.14806517027318477630615234375</LongitudeDegrees>
            </Position>
            <AltitudeMeters>10.19999980926513671875</AltitudeMeters>
            <DistanceMeters>NAN</DistanceMeters>
          </Trackpoint>
          <Trackpoint>
            <Time>2022-07-04T16:44:36.000Z</Time>
            <Position>
              <LatitudeDegrees>44.61475507356226444244384765625</LatitudeDegrees>
              <LongitudeDegrees>-1.14810523577034473419189453125</LongitudeDegrees>
            </Position>
            <AltitudeMeters>9.80000019073486328125</AltitudeMeters>
            <DistanceMeters>NAN</DistanceMeters>
          </Trackpoint>
          <Trackpoint>
            <Time>2022-07-04T16:44:40.000Z</Time>
            <Position>
              <LatitudeDegrees>44.61493126116693019866943359375</LatitudeDegrees>
              <LongitudeDegrees>-1.1481772363185882568359375</LongitudeDegrees>
            </Position>
            <AltitudeMeters>9.3999996185302734375</AltitudeMeters>
            <DistanceMeters>NAN</DistanceMeters>
          </Trackpoint>
          <Trackpoint>
            <Time>2022-07-04T16:44:41.000Z</Time>
            <Position>
              <LatitudeDegrees>44.61497350595891475677490234375</LatitudeDegrees>
              <LongitudeDegrees>-1.14820447750389575958251953125</LongitudeDegrees>
            </Position>
            <AltitudeMeters>9.3999996185302734375</AltitudeMeters>
            <DistanceMeters>NAN</DistanceMeters>
          </Trackpoint>
          <Trackpoint>
            <Time>2022-07-04T16:44:44.000Z</Time>
            <Position>
              <LatitudeDegrees>44.61509118787944316864013671875</LatitudeDegrees>
              <LongitudeDegrees>-1.14829231984913349151611328125</LongitudeDegrees>
            </Position>
            <AltitudeMeters>9.19999980926513671875</AltitudeMeters>
            <DistanceMeters>NAN</DistanceMeters>
          </Trackpoint>
          <Trackpoint>
            <Time>2022-07-04T16:44:47.000Z</Time>
            <Position>
              <LatitudeDegrees>44.61518556810915470123291015625</LatitudeDegrees>
              <LongitudeDegrees>-1.1484060622751712799072265625</LongitudeDegrees>
            </Position>
            <AltitudeMeters>9</AltitudeMeters>
            <DistanceMeters>NAN</DistanceMeters>
          </Trackpoint>
          <Trackpoint>
            <Time>2022-07-04T16:44:53.000Z</Time>
            <Position>
              <LatitudeDegrees>44.615349434316158294677734375</LatitudeDegrees>
              <LongitudeDegrees>-1.14865324459969997406005859375</LongitudeDegrees>
            </Position>
            <AltitudeMeters>8.6000003814697265625</AltitudeMeters>
            <DistanceMeters>NAN</DistanceMeters>
          </Trackpoint>
          <Trackpoint>
            <Time>2022-07-04T16:44:55.000Z</Time>
            <Position>
              <LatitudeDegrees>44.61541213095188140869140625</LatitudeDegrees>
              <LongitudeDegrees>-1.14874787628650665283203125</LongitudeDegrees>
            </Position>
            <AltitudeMeters>8.6000003814697265625</AltitudeMeters>
            <DistanceMeters>NAN</DistanceMeters>
          </Trackpoint>
          <Trackpoint>
            <Time>2022-07-04T16:44:56.000Z</Time>
            <Position>
              <LatitudeDegrees>44.6154381148517131805419921875</LatitudeDegrees>
              <LongitudeDegrees>-1.1487805657088756561279296875</LongitudeDegrees>
            </Position>
            <AltitudeMeters>8.6000003814697265625</AltitudeMeters>
            <DistanceMeters>NAN</DistanceMeters>
          </Trackpoint>
          <Trackpoint>
            <Time>2022-07-04T16:45:04.000Z</Time>
            <Position>
              <LatitudeDegrees>44.61571111343801021575927734375</LatitudeDegrees>
              <LongitudeDegrees>-1.149029172956943511962890625</LongitudeDegrees>
            </Position>
            <AltitudeMeters>8.80000019073486328125</AltitudeMeters>
            <DistanceMeters>NAN</DistanceMeters>
          </Trackpoint>
          <Trackpoint>
            <Time>2022-07-04T16:45:12.000Z</Time>
            <Position>
              <LatitudeDegrees>44.61600448004901409149169921875</LatitudeDegrees>
              <LongitudeDegrees>-1.14919220097362995147705078125</LongitudeDegrees>
            </Position>
            <AltitudeMeters>8.6000003814697265625</AltitudeMeters>
            <DistanceMeters>NAN</DistanceMeters>
          </Trackpoint>
          <Trackpoint>
            <Time>2022-07-04T16:45:14.000Z</Time>
            <Position>
              <LatitudeDegrees>44.61607136763632297515869140625</LatitudeDegrees>
              <LongitudeDegrees>-1.149228326976299285888671875</LongitudeDegrees>
            </Position>
            <AltitudeMeters>8.6000003814697265625</AltitudeMeters>
            <DistanceMeters>NAN</DistanceMeters>
          </Trackpoint>
          <Trackpoint>
            <Time>2022-07-04T16:45:18.000Z</Time>
            <Position>
              <LatitudeDegrees>44.61619256995618343353271484375</LatitudeDegrees>
              <LongitudeDegrees>-1.149272583425045013427734375</LongitudeDegrees>
            </Position>
            <AltitudeMeters>8.3999996185302734375</AltitudeMeters>
            <DistanceMeters>NAN</DistanceMeters>
          </Trackpoint>
          <Trackpoint>
            <Time>2022-07-04T16:45:23.000Z</Time>
            <Position>
              <LatitudeDegrees>44.61643044836819171905517578125</LatitudeDegrees>
              <LongitudeDegrees>-1.149388588964939117431640625</LongitudeDegrees>
            </Position>
            <AltitudeMeters>8</AltitudeMeters>
            <DistanceMeters>NAN</DistanceMeters>
          </Trackpoint>
          <Trackpoint>
            <Time>2022-07-04T16:45:29.000Z</Time>
            <Position>
              <LatitudeDegrees>44.61667419411242008209228515625</LatitudeDegrees>
              <LongitudeDegrees>-1.1494593322277069091796875</LongitudeDegrees>
            </Position>
            <AltitudeMeters>8.19999980926513671875</AltitudeMeters>
            <DistanceMeters>NAN</DistanceMeters>
          </Trackpoint>
          <Trackpoint>
            <Time>2022-07-04T16:45:30.000Z</Time>
            <Position>
              <LatitudeDegrees>44.61671610362827777862548828125</LatitudeDegrees>
              <LongitudeDegrees>-1.14945472218096256256103515625</LongitudeDegrees>
            </Position>
            <AltitudeMeters>8.19999980926513671875</AltitudeMeters>
            <DistanceMeters>NAN</DistanceMeters>
          </Trackpoint>
          <Trackpoint>
            <Time>2022-07-04T16:45:35.000Z</Time>
            <Position>
              <LatitudeDegrees>44.61692623794078826904296875</LatitudeDegrees>
              <LongitudeDegrees>-1.1494695581495761871337890625</LongitudeDegrees>
            </Position>
            <AltitudeMeters>7.80000019073486328125</AltitudeMeters>
            <DistanceMeters>NAN</DistanceMeters>
          </Trackpoint>
          <Trackpoint>
            <Time>2022-07-04T16:45:36.000Z</Time>
            <Position>
              <LatitudeDegrees>44.61696445941925048828125</LatitudeDegrees>
              <LongitudeDegrees>-1.1494618467986583709716796875</LongitudeDegrees>
            </Position>
            <AltitudeMeters>7.80000019073486328125</AltitudeMeters>
            <DistanceMeters>NAN</DistanceMeters>
          </Trackpoint>
          <Trackpoint>
            <Time>2022-07-04T16:45:37.000Z</Time>
            <Position>
              <LatitudeDegrees>44.61700377054512500762939453125</LatitudeDegrees>
              <LongitudeDegrees>-1.14945556037127971649169921875</LongitudeDegrees>
            </Position>
            <AltitudeMeters>7.80000019073486328125</AltitudeMeters>
            <DistanceMeters>NAN</DistanceMeters>
          </Trackpoint>
          <Trackpoint>
            <Time>2022-07-04T16:45:39.000Z</Time>
            <Position>
              <LatitudeDegrees>44.61709127761423587799072265625</LatitudeDegrees>
              <LongitudeDegrees>-1.149441897869110107421875</LongitudeDegrees>
            </Position>
            <AltitudeMeters>7.80000019073486328125</AltitudeMeters>
            <DistanceMeters>NAN</DistanceMeters>
          </Trackpoint>
          <Trackpoint>
            <Time>2022-07-04T16:45:43.000Z</Time>
            <Position>
              <LatitudeDegrees>44.6172499470412731170654296875</LatitudeDegrees>
              <LongitudeDegrees>-1.14937911741435527801513671875</LongitudeDegrees>
            </Position>
            <AltitudeMeters>7.80000019073486328125</AltitudeMeters>
            <DistanceMeters>NAN</DistanceMeters>
          </Trackpoint>
          <Trackpoint>
            <Time>2022-07-04T16:45:46.000Z</Time>
            <Position>
              <LatitudeDegrees>44.617349691689014434814453125</LatitudeDegrees>
              <LongitudeDegrees>-1.149297393858432769775390625</LongitudeDegrees>
            </Position>
            <AltitudeMeters>7.19999980926513671875</AltitudeMeters>
            <DistanceMeters>NAN</DistanceMeters>
          </Trackpoint>
          <Trackpoint>
            <Time>2022-07-04T16:45:50.000Z</Time>
            <Position>
              <LatitudeDegrees>44.61747030727565288543701171875</LatitudeDegrees>
              <LongitudeDegrees>-1.14920343272387981414794921875</LongitudeDegrees>
            </Position>
            <AltitudeMeters>6.80000019073486328125</AltitudeMeters>
            <DistanceMeters>NAN</DistanceMeters>
          </Trackpoint>
          <Trackpoint>
            <Time>2022-07-04T16:45:57.000Z</Time>
            <Position>
              <LatitudeDegrees>44.61767147295176982879638671875</LatitudeDegrees>
              <LongitudeDegrees>-1.149012409150600433349609375</LongitudeDegrees>
            </Position>
            <AltitudeMeters>6.599999904632568359375</AltitudeMeters>
            <DistanceMeters>NAN</DistanceMeters>
          </Trackpoint>
          <Trackpoint>
            <Time>2022-07-04T16:46:00.000Z</Time>
            <Position>
              <LatitudeDegrees>44.6177637577056884765625</LatitudeDegrees>
              <LongitudeDegrees>-1.14893035031855106353759765625</LongitudeDegrees>
            </Position>
            <AltitudeMeters>6.599999904632568359375</AltitudeMeters>
            <DistanceMeters>NAN</DistanceMeters>
          </Trackpoint>
          <Trackpoint>
            <Time>2022-07-04T16:46:04.000Z</Time>
            <Position>
              <LatitudeDegrees>44.61789845488965511322021484375</LatitudeDegrees>
              <LongitudeDegrees>-1.14884577691555023193359375</LongitudeDegrees>
            </Position>
            <AltitudeMeters>6.400000095367431640625</AltitudeMeters>
            <DistanceMeters>NAN</DistanceMeters>
          </Trackpoint>
          <Trackpoint>
            <Time>2022-07-04T16:46:05.000Z</Time>
            <Position>
              <LatitudeDegrees>44.61793248541653156280517578125</LatitudeDegrees>
              <LongitudeDegrees>-1.14883546717464923858642578125</LongitudeDegrees>
            </Position>
            <AltitudeMeters>6.400000095367431640625</AltitudeMeters>
            <DistanceMeters>NAN</DistanceMeters>
          </Trackpoint>
          <Trackpoint>
            <Time>2022-07-04T16:46:11.000Z</Time>
            <Position>
              <LatitudeDegrees>44.618126191198825836181640625</LatitudeDegrees>
              <LongitudeDegrees>-1.14889003336429595947265625</LongitudeDegrees>
            </Position>
            <AltitudeMeters>6.400000095367431640625</AltitudeMeters>
            <DistanceMeters>NAN</DistanceMeters>
          </Trackpoint>
          <Trackpoint>
            <Time>2022-07-04T16:46:15.000Z</Time>
            <Position>
              <LatitudeDegrees>44.6181639097630977630615234375</LatitudeDegrees>
              <LongitudeDegrees>-1.14902808330953121185302734375</LongitudeDegrees>
            </Position>
            <AltitudeMeters>6.400000095367431640625</AltitudeMeters>
            <DistanceMeters>NAN</DistanceMeters>
          </Trackpoint>
          <Trackpoint>
            <Time>2022-07-04T16:46:17.000Z</Time>
            <Position>
              <LatitudeDegrees>44.6181701123714447021484375</LatitudeDegrees>
              <LongitudeDegrees>-1.1490561626851558685302734375</LongitudeDegrees>
            </Position>
            <AltitudeMeters>6.19999980926513671875</AltitudeMeters>
            <DistanceMeters>NAN</DistanceMeters>
          </Trackpoint>
          <Trackpoint>
            <Time>2022-07-04T16:46:19.000Z</Time>
            <Position>
              <LatitudeDegrees>44.6181701123714447021484375</LatitudeDegrees>
              <LongitudeDegrees>-1.1490561626851558685302734375</LongitudeDegrees>
            </Position>
            <AltitudeMeters>6</AltitudeMeters>
            <DistanceMeters>NAN</DistanceMeters>
          </Trackpoint>
          <Trackpoint>
            <Time>2022-07-04T16:46:30.000Z</Time>
            <Position>
              <LatitudeDegrees>44.61821344681084156036376953125</LatitudeDegrees>
              <LongitudeDegrees>-1.14913277328014373779296875</LongitudeDegrees>
            </Position>
            <AltitudeMeters>6</AltitudeMeters>
            <DistanceMeters>NAN</DistanceMeters>
          </Trackpoint>
          <Trackpoint>
            <Time>2022-07-04T16:46:33.000Z</Time>
            <Position>
              <LatitudeDegrees>44.61824990808963775634765625</LatitudeDegrees>
              <LongitudeDegrees>-1.14917091093957424163818359375</LongitudeDegrees>
            </Position>
            <AltitudeMeters>6</AltitudeMeters>
            <DistanceMeters>NAN</DistanceMeters>
          </Trackpoint>
          <Trackpoint>
            <Time>2022-07-04T16:46:36.000Z</Time>
            <Position>
              <LatitudeDegrees>44.618254601955413818359375</LatitudeDegrees>
              <LongitudeDegrees>-1.14917610771954059600830078125</LongitudeDegrees>
            </Position>
            <AltitudeMeters>6</AltitudeMeters>
            <DistanceMeters>NAN</DistanceMeters>
          </Trackpoint>
          <Trackpoint>
            <Time>2022-07-04T16:47:06.000Z</Time>
            <Position>
              <LatitudeDegrees>44.6182306297123432159423828125</LatitudeDegrees>
              <LongitudeDegrees>-1.14915297366678714752197265625</LongitudeDegrees>
            </Position>
            <AltitudeMeters>6.19999980926513671875</AltitudeMeters>
            <DistanceMeters>NAN</DistanceMeters>
          </Trackpoint>
          <Trackpoint>
            <Time>2022-07-04T16:47:08.000Z</Time>
            <Position>
              <LatitudeDegrees>44.6182064898312091827392578125</LatitudeDegrees>
              <LongitudeDegrees>-1.1491248942911624908447265625</LongitudeDegrees>
            </Position>
            <AltitudeMeters>6.19999980926513671875</AltitudeMeters>
            <DistanceMeters>NAN</DistanceMeters>
          </Trackpoint>
          <Trackpoint>
            <Time>2022-07-04T16:47:12.000Z</Time>
            <Position>
              <LatitudeDegrees>44.61813935078680515289306640625</LatitudeDegrees>
              <LongitudeDegrees>-1.1489797197282314300537109375</LongitudeDegrees>
            </Position>
            <AltitudeMeters>6</AltitudeMeters>
            <DistanceMeters>NAN</DistanceMeters>
          </Trackpoint>
          <Trackpoint>
            <Time>2022-07-04T16:47:16.000Z</Time>
            <Position>
              <LatitudeDegrees>44.6180398575961589813232421875</LatitudeDegrees>
              <LongitudeDegrees>-1.14883446134626865386962890625</LongitudeDegrees>
            </Position>
            <AltitudeMeters>6</AltitudeMeters>
            <DistanceMeters>NAN</DistanceMeters>
          </Trackpoint>
          <Trackpoint>
            <Time>2022-07-04T16:47:21.000Z</Time>
            <Position>
              <LatitudeDegrees>44.6178507618606090545654296875</LatitudeDegrees>
              <LongitudeDegrees>-1.1488449387252330780029296875</LongitudeDegrees>
            </Position>
            <AltitudeMeters>6.400000095367431640625</AltitudeMeters>
            <DistanceMeters>NAN</DistanceMeters>
          </Trackpoint>
          <Trackpoint>
            <Time>2022-07-04T16:47:24.000Z</Time>
            <Position>
              <LatitudeDegrees>44.61774774827063083648681640625</LatitudeDegrees>
              <LongitudeDegrees>-1.14892490208148956298828125</LongitudeDegrees>
            </Position>
            <AltitudeMeters>6.400000095367431640625</AltitudeMeters>
            <DistanceMeters>NAN</DistanceMeters>
          </Trackpoint>
          <Trackpoint>
            <Time>2022-07-04T16:47:27.000Z</Time>
            <Position>
              <LatitudeDegrees>44.61765370331704616546630859375</LatitudeDegrees>
              <LongitudeDegrees>-1.149020455777645111083984375</LongitudeDegrees>
            </Position>
            <AltitudeMeters>6.599999904632568359375</AltitudeMeters>
            <DistanceMeters>NAN</DistanceMeters>
          </Trackpoint>
          <Trackpoint>
            <Time>2022-07-04T16:47:35.000Z</Time>
            <Position>
              <LatitudeDegrees>44.61739788763225078582763671875</LatitudeDegrees>
              <LongitudeDegrees>-1.1492727510631084442138671875</LongitudeDegrees>
            </Position>
            <AltitudeMeters>6.80000019073486328125</AltitudeMeters>
            <DistanceMeters>NAN</DistanceMeters>
          </Trackpoint>
          <Trackpoint>
            <Time>2022-07-04T16:47:41.000Z</Time>
            <Position>
              <LatitudeDegrees>44.6172071993350982666015625</LatitudeDegrees>
              <LongitudeDegrees>-1.14944332279264926910400390625</LongitudeDegrees>
            </Position>
            <AltitudeMeters>7</AltitudeMeters>
            <DistanceMeters>NAN</DistanceMeters>
          </Trackpoint>
          <Trackpoint>
            <Time>2022-07-04T16:47:44.000Z</Time>
            <Position>
              <LatitudeDegrees>44.6171087957918643951416015625</LatitudeDegrees>
              <LongitudeDegrees>-1.14950467832386493682861328125</LongitudeDegrees>
            </Position>
            <AltitudeMeters>7.19999980926513671875</AltitudeMeters>
            <DistanceMeters>NAN</DistanceMeters>
          </Trackpoint>
          <Trackpoint>
            <Time>2022-07-04T16:47:46.000Z</Time>
            <Position>
              <LatitudeDegrees>44.617043919861316680908203125</LatitudeDegrees>
              <LongitudeDegrees>-1.14951138384640216827392578125</LongitudeDegrees>
            </Position>
            <AltitudeMeters>7.19999980926513671875</AltitudeMeters>
            <DistanceMeters>NAN</DistanceMeters>
          </Trackpoint>
          <Trackpoint>
            <Time>2022-07-04T16:47:52.000Z</Time>
            <Position>
              <LatitudeDegrees>44.61684602312743663787841796875</LatitudeDegrees>
              <LongitudeDegrees>-1.1495439894497394561767578125</LongitudeDegrees>
            </Position>
            <AltitudeMeters>7.80000019073486328125</AltitudeMeters>
            <DistanceMeters>NAN</DistanceMeters>
          </Trackpoint>
          <Trackpoint>
            <Time>2022-07-04T16:47:59.000Z</Time>
            <Position>
              <LatitudeDegrees>44.616595320403575897216796875</LatitudeDegrees>
              <LongitudeDegrees>-1.14948875270783901214599609375</LongitudeDegrees>
            </Position>
            <AltitudeMeters>8.19999980926513671875</AltitudeMeters>
            <DistanceMeters>NAN</DistanceMeters>
          </Trackpoint>
          <Trackpoint>
            <Time>2022-07-04T16:48:04.000Z</Time>
            <Position>
              <LatitudeDegrees>44.6164000220596790313720703125</LatitudeDegrees>
              <LongitudeDegrees>-1.14938280545175075531005859375</LongitudeDegrees>
            </Position>
            <AltitudeMeters>8.3999996185302734375</AltitudeMeters>
            <DistanceMeters>NAN</DistanceMeters>
          </Trackpoint>
          <Trackpoint>
            <Time>2022-07-04T16:48:05.000Z</Time>
            <Position>
              <LatitudeDegrees>44.6163634769618511199951171875</LatitudeDegrees>
              <LongitudeDegrees>-1.149367801845073699951171875</LongitudeDegrees>
            </Position>
            <AltitudeMeters>8.3999996185302734375</AltitudeMeters>
            <DistanceMeters>NAN</DistanceMeters>
          </Trackpoint>
          <Trackpoint>
            <Time>2022-07-04T16:48:13.000Z</Time>
            <Position>
              <LatitudeDegrees>44.61611478589475154876708984375</LatitudeDegrees>
              <LongitudeDegrees>-1.1492465995252132415771484375</LongitudeDegrees>
            </Position>
            <AltitudeMeters>8.6000003814697265625</AltitudeMeters>
            <DistanceMeters>NAN</DistanceMeters>
          </Trackpoint>
          <Trackpoint>
            <Time>2022-07-04T16:48:21.000Z</Time>
            <Position>
              <LatitudeDegrees>44.61585737764835357666015625</LatitudeDegrees>
              <LongitudeDegrees>-1.14909212104976177215576171875</LongitudeDegrees>
            </Position>
            <AltitudeMeters>8.80000019073486328125</AltitudeMeters>
            <DistanceMeters>NAN</DistanceMeters>
          </Trackpoint>
          <Trackpoint>
            <Time>2022-07-04T16:48:29.000Z</Time>
            <Position>
              <LatitudeDegrees>44.61562662385404109954833984375</LatitudeDegrees>
              <LongitudeDegrees>-1.148904450237751007080078125</LongitudeDegrees>
            </Position>
            <AltitudeMeters>9</AltitudeMeters>
            <DistanceMeters>NAN</DistanceMeters>
          </Trackpoint>
          <Trackpoint>
            <Time>2022-07-04T16:48:38.000Z</Time>
            <Position>
              <LatitudeDegrees>44.61534650065004825592041015625</LatitudeDegrees>
              <LongitudeDegrees>-1.1486303620040416717529296875</LongitudeDegrees>
            </Position>
            <AltitudeMeters>9</AltitudeMeters>
            <DistanceMeters>NAN</DistanceMeters>
          </Trackpoint>
          <Trackpoint>
            <Time>2022-07-04T16:48:47.000Z</Time>
            <Position>
              <LatitudeDegrees>44.6150963008403778076171875</LatitudeDegrees>
              <LongitudeDegrees>-1.1482845246791839599609375</LongitudeDegrees>
            </Position>
            <AltitudeMeters>9</AltitudeMeters>
            <DistanceMeters>NAN</DistanceMeters>
          </Trackpoint>
          <Trackpoint>
            <Time>2022-07-04T16:48:53.000Z</Time>
            <Position>
              <LatitudeDegrees>44.614901505410671234130859375</LatitudeDegrees>
              <LongitudeDegrees>-1.148122586309909820556640625</LongitudeDegrees>
            </Position>
            <AltitudeMeters>9.19999980926513671875</AltitudeMeters>
            <DistanceMeters>NAN</DistanceMeters>
          </Trackpoint>
          <Trackpoint>
            <Time>2022-07-04T16:48:57.000Z</Time>
            <Position>
              <LatitudeDegrees>44.61476303637027740478515625</LatitudeDegrees>
              <LongitudeDegrees>-1.1480593867599964141845703125</LongitudeDegrees>
            </Position>
            <AltitudeMeters>9.19999980926513671875</AltitudeMeters>
            <DistanceMeters>NAN</DistanceMeters>
          </Trackpoint>
          <Trackpoint>
            <Time>2022-07-04T16:49:01.000Z</Time>
            <Position>
              <LatitudeDegrees>44.6146217174828052520751953125</LatitudeDegrees>
              <LongitudeDegrees>-1.1480322293937206268310546875</LongitudeDegrees>
            </Position>
            <AltitudeMeters>9.6000003814697265625</AltitudeMeters>
            <DistanceMeters>NAN</DistanceMeters>
          </Trackpoint>
          <Trackpoint>
            <Time>2022-07-04T16:49:07.000Z</Time>
            <Position>
              <LatitudeDegrees>44.61444385349750518798828125</LatitudeDegrees>
              <LongitudeDegrees>-1.14799660630524158477783203125</LongitudeDegrees>
            </Position>
            <AltitudeMeters>10.19999980926513671875</AltitudeMeters>
            <DistanceMeters>NAN</DistanceMeters>
          </Trackpoint>
          <Trackpoint>
            <Time>2022-07-04T16:49:08.000Z</Time>
            <Position>
              <LatitudeDegrees>44.6144151873886585235595703125</LatitudeDegrees>
              <LongitudeDegrees>-1.1479883082211017608642578125</LongitudeDegrees>
            </Position>
            <AltitudeMeters>10.3999996185302734375</AltitudeMeters>
            <DistanceMeters>NAN</DistanceMeters>
          </Trackpoint>
          <Trackpoint>
            <Time>2022-07-04T16:49:13.000Z</Time>
            <Position>
              <LatitudeDegrees>44.614275880157947540283203125</LatitudeDegrees>
              <LongitudeDegrees>-1.14794614724814891815185546875</LongitudeDegrees>
            </Position>
            <AltitudeMeters>10.80000019073486328125</AltitudeMeters>
            <DistanceMeters>NAN</DistanceMeters>
          </Trackpoint>
          <Trackpoint>
            <Time>2022-07-04T16:49:20.000Z</Time>
            <Position>
              <LatitudeDegrees>44.61406826041638851165771484375</LatitudeDegrees>
              <LongitudeDegrees>-1.14789426326751708984375</LongitudeDegrees>
            </Position>
            <AltitudeMeters>11</AltitudeMeters>
            <DistanceMeters>NAN</DistanceMeters>
          </Trackpoint>
          <Trackpoint>
            <Time>2022-07-04T16:49:26.000Z</Time>
            <Position>
              <LatitudeDegrees>44.613864831626415252685546875</LatitudeDegrees>
              <LongitudeDegrees>-1.147876493632793426513671875</LongitudeDegrees>
            </Position>
            <AltitudeMeters>11</AltitudeMeters>
            <DistanceMeters>NAN</DistanceMeters>
          </Trackpoint>
          <Trackpoint>
            <Time>2022-07-04T16:49:31.000Z</Time>
            <Position>
              <LatitudeDegrees>44.61369224824011325836181640625</LatitudeDegrees>
              <LongitudeDegrees>-1.14783952943980693817138671875</LongitudeDegrees>
            </Position>
            <AltitudeMeters>11</AltitudeMeters>
            <DistanceMeters>NAN</DistanceMeters>
          </Trackpoint>
          <Trackpoint>
            <Time>2022-07-04T16:49:32.000Z</Time>
            <Position>
              <LatitudeDegrees>44.6136574633419513702392578125</LatitudeDegrees>
              <LongitudeDegrees>-1.1478210054337978363037109375</LongitudeDegrees>
            </Position>
            <AltitudeMeters>11</AltitudeMeters>
            <DistanceMeters>NAN</DistanceMeters>
          </Trackpoint>
          <Trackpoint>
            <Time>2022-07-04T16:49:46.000Z</Time>
            <Position>
              <LatitudeDegrees>44.61317257024347782135009765625</LatitudeDegrees>
              <LongitudeDegrees>-1.1478401161730289459228515625</LongitudeDegrees>
            </Position>
            <AltitudeMeters>11.19999980926513671875</AltitudeMeters>
            <DistanceMeters>NAN</DistanceMeters>
          </Trackpoint>
          <Trackpoint>
            <Time>2022-07-04T16:49:51.000Z</Time>
            <Position>
              <LatitudeDegrees>44.61310383863747119903564453125</LatitudeDegrees>
              <LongitudeDegrees>-1.1480379290878772735595703125</LongitudeDegrees>
            </Position>
            <AltitudeMeters>11.3999996185302734375</AltitudeMeters>
            <DistanceMeters>NAN</DistanceMeters>
          </Trackpoint>
          <Trackpoint>
            <Time>2022-07-04T16:49:57.000Z</Time>
            <Position>
              <LatitudeDegrees>44.61306628771126270294189453125</LatitudeDegrees>
              <LongitudeDegrees>-1.1483125202357769012451171875</LongitudeDegrees>
            </Position>
            <AltitudeMeters>11.80000019073486328125</AltitudeMeters>
            <DistanceMeters>NAN</DistanceMeters>
          </Trackpoint>
          <Trackpoint>
            <Time>2022-07-04T16:50:02.000Z</Time>
            <Position>
              <LatitudeDegrees>44.6130254678428173065185546875</LatitudeDegrees>
              <LongitudeDegrees>-1.14854712970554828643798828125</LongitudeDegrees>
            </Position>
            <AltitudeMeters>12</AltitudeMeters>
            <DistanceMeters>NAN</DistanceMeters>
          </Trackpoint>
          <Trackpoint>
            <Time>2022-07-04T16:50:05.000Z</Time>
            <Position>
              <LatitudeDegrees>44.6130365319550037384033203125</LatitudeDegrees>
              <LongitudeDegrees>-1.148695237934589385986328125</LongitudeDegrees>
            </Position>
            <AltitudeMeters>12.19999980926513671875</AltitudeMeters>
            <DistanceMeters>NAN</DistanceMeters>
          </Trackpoint>
          <Trackpoint>
            <Time>2022-07-04T16:50:08.000Z</Time>
            <Position>
              <LatitudeDegrees>44.61302387528121471405029296875</LatitudeDegrees>
              <LongitudeDegrees>-1.14884552545845508575439453125</LongitudeDegrees>
            </Position>
            <AltitudeMeters>12.3999996185302734375</AltitudeMeters>
            <DistanceMeters>NAN</DistanceMeters>
          </Trackpoint>
          <Trackpoint>
            <Time>2022-07-04T16:50:15.000Z</Time>
            <Position>
              <LatitudeDegrees>44.61300962604582309722900390625</LatitudeDegrees>
              <LongitudeDegrees>-1.149163953959941864013671875</LongitudeDegrees>
            </Position>
            <AltitudeMeters>13</AltitudeMeters>
            <DistanceMeters>NAN</DistanceMeters>
          </Trackpoint>
          <Trackpoint>
            <Time>2022-07-04T16:50:18.000Z</Time>
            <Position>
              <LatitudeDegrees>44.61300007067620754241943359375</LatitudeDegrees>
              <LongitudeDegrees>-1.1492811329662799835205078125</LongitudeDegrees>
            </Position>
            <AltitudeMeters>13.3999996185302734375</AltitudeMeters>
            <DistanceMeters>NAN</DistanceMeters>
          </Trackpoint>
          <Trackpoint>
            <Time>2022-07-04T16:50:22.000Z</Time>
            <Position>
              <LatitudeDegrees>44.61300476454198360443115234375</LatitudeDegrees>
              <LongitudeDegrees>-1.14943913184106349945068359375</LongitudeDegrees>
            </Position>
            <AltitudeMeters>13.6000003814697265625</AltitudeMeters>
            <DistanceMeters>NAN</DistanceMeters>
          </Trackpoint>
          <Trackpoint>
            <Time>2022-07-04T16:50:29.000Z</Time>
            <Position>
              <LatitudeDegrees>44.61301431991159915924072265625</LatitudeDegrees>
              <LongitudeDegrees>-1.14969427697360515594482421875</LongitudeDegrees>
            </Position>
            <AltitudeMeters>14.3999996185302734375</AltitudeMeters>
            <DistanceMeters>NAN</DistanceMeters>
          </Trackpoint>
          <Trackpoint>
            <Time>2022-07-04T16:50:30.000Z</Time>
            <Position>
              <LatitudeDegrees>44.6130097098648548126220703125</LatitudeDegrees>
              <LongitudeDegrees>-1.149727217853069305419921875</LongitudeDegrees>
            </Position>
            <AltitudeMeters>14.3999996185302734375</AltitudeMeters>
            <DistanceMeters>NAN</DistanceMeters>
          </Trackpoint>
          <Trackpoint>
            <Time>2022-07-04T16:50:35.000Z</Time>
            <Position>
              <LatitudeDegrees>44.613010883331298828125</LatitudeDegrees>
              <LongitudeDegrees>-1.14987398497760295867919921875</LongitudeDegrees>
            </Position>
            <AltitudeMeters>15</AltitudeMeters>
            <DistanceMeters>NAN</DistanceMeters>
          </Trackpoint>
          <Trackpoint>
            <Time>2022-07-04T16:50:39.000Z</Time>
            <Position>
              <LatitudeDegrees>44.61302496492862701416015625</LatitudeDegrees>
              <LongitudeDegrees>-1.15002552978694438934326171875</LongitudeDegrees>
            </Position>
            <AltitudeMeters>15.3999996185302734375</AltitudeMeters>
            <DistanceMeters>NAN</DistanceMeters>
          </Trackpoint>
          <Trackpoint>
            <Time>2022-07-04T16:50:41.000Z</Time>
            <Position>
              <LatitudeDegrees>44.61302219890058040618896484375</LatitudeDegrees>
              <LongitudeDegrees>-1.15010348148643970489501953125</LongitudeDegrees>
            </Position>
            <AltitudeMeters>15.6000003814697265625</AltitudeMeters>
            <DistanceMeters>NAN</DistanceMeters>
          </Trackpoint>
          <Trackpoint>
            <Time>2022-07-04T16:50:42.000Z</Time>
            <Position>
              <LatitudeDegrees>44.61301767267286777496337890625</LatitudeDegrees>
              <LongitudeDegrees>-1.15014103241264820098876953125</LongitudeDegrees>
            </Position>
            <AltitudeMeters>15.80000019073486328125</AltitudeMeters>
            <DistanceMeters>NAN</DistanceMeters>
          </Trackpoint>
          <Trackpoint>
            <Time>2022-07-04T16:50:43.000Z</Time>
            <Position>
              <LatitudeDegrees>44.61301130242645740509033203125</LatitudeDegrees>
              <LongitudeDegrees>-1.1501779966056346893310546875</LongitudeDegrees>
            </Position>
            <AltitudeMeters>15.80000019073486328125</AltitudeMeters>
            <DistanceMeters>NAN</DistanceMeters>
          </Trackpoint>
          <Trackpoint>
            <Time>2022-07-04T16:50:46.000Z</Time>
            <Position>
              <LatitudeDegrees>44.613014571368694305419921875</LatitudeDegrees>
              <LongitudeDegrees>-1.15024589002132415771484375</LongitudeDegrees>
            </Position>
            <AltitudeMeters>16</AltitudeMeters>
            <DistanceMeters>NAN</DistanceMeters>
          </Trackpoint>
          <Trackpoint>
            <Time>2022-07-04T16:50:48.000Z</Time>
            <Position>
              <LatitudeDegrees>44.61302940733730792999267578125</LatitudeDegrees>
              <LongitudeDegrees>-1.1502899788320064544677734375</LongitudeDegrees>
            </Position>
            <AltitudeMeters>16.3999996185302734375</AltitudeMeters>
            <DistanceMeters>NAN</DistanceMeters>
          </Trackpoint>
          <Trackpoint>
            <Time>2022-07-04T16:50:49.000Z</Time>
            <Position>
              <LatitudeDegrees>44.6130288206040859222412109375</LatitudeDegrees>
              <LongitudeDegrees>-1.15032560192048549652099609375</LongitudeDegrees>
            </Position>
            <AltitudeMeters>16.6000003814697265625</AltitudeMeters>
            <DistanceMeters>NAN</DistanceMeters>
          </Trackpoint>
          <Trackpoint>
            <Time>2022-07-04T16:50:51.000Z</Time>
            <Position>
              <LatitudeDegrees>44.61302094161510467529296875</LatitudeDegrees>
              <LongitudeDegrees>-1.1503972671926021575927734375</LongitudeDegrees>
            </Position>
            <AltitudeMeters>16.799999237060546875</AltitudeMeters>
            <DistanceMeters>NAN</DistanceMeters>
          </Trackpoint>
          <Trackpoint>
            <Time>2022-07-04T16:50:57.000Z</Time>
            <Position>
              <LatitudeDegrees>44.61298045702278614044189453125</LatitudeDegrees>
              <LongitudeDegrees>-1.1506108380854129791259765625</LongitudeDegrees>
            </Position>
            <AltitudeMeters>17.6000003814697265625</AltitudeMeters>
            <DistanceMeters>NAN</DistanceMeters>
          </Trackpoint>
          <Trackpoint>
            <Time>2022-07-04T16:51:00.000Z</Time>
            <Position>
              <LatitudeDegrees>44.612927399575710296630859375</LatitudeDegrees>
              <LongitudeDegrees>-1.15069641731679439544677734375</LongitudeDegrees>
            </Position>
            <AltitudeMeters>18</AltitudeMeters>
            <DistanceMeters>NAN</DistanceMeters>
          </Trackpoint>
          <Trackpoint>
            <Time>2022-07-04T16:51:02.000Z</Time>
            <Position>
              <LatitudeDegrees>44.61289563216269016265869140625</LatitudeDegrees>
              <LongitudeDegrees>-1.15075576119124889373779296875</LongitudeDegrees>
            </Position>
            <AltitudeMeters>18.200000762939453125</AltitudeMeters>
            <DistanceMeters>NAN</DistanceMeters>
          </Trackpoint>
          <Trackpoint>
            <Time>2022-07-04T16:51:08.000Z</Time>
            <Position>
              <LatitudeDegrees>44.612884819507598876953125</LatitudeDegrees>
              <LongitudeDegrees>-1.15099950693547725677490234375</LongitudeDegrees>
            </Position>
            <AltitudeMeters>18.6000003814697265625</AltitudeMeters>
            <DistanceMeters>NAN</DistanceMeters>
          </Trackpoint>
          <Trackpoint>
            <Time>2022-07-04T16:51:09.000Z</Time>
            <Position>
              <LatitudeDegrees>44.61287551559507846832275390625</LatitudeDegrees>
              <LongitudeDegrees>-1.15103102289140224456787109375</LongitudeDegrees>
            </Position>
            <AltitudeMeters>18.6000003814697265625</AltitudeMeters>
            <DistanceMeters>NAN</DistanceMeters>
          </Trackpoint>
          <Trackpoint>
            <Time>2022-07-04T16:51:16.000Z</Time>
            <Position>
              <LatitudeDegrees>44.612814076244831085205078125</LatitudeDegrees>
              <LongitudeDegrees>-1.1513430811464786529541015625</LongitudeDegrees>
            </Position>
            <AltitudeMeters>18.3999996185302734375</AltitudeMeters>
            <DistanceMeters>NAN</DistanceMeters>
          </Trackpoint>
          <Trackpoint>
            <Time>2022-07-04T16:51:21.000Z</Time>
            <Position>
              <LatitudeDegrees>44.61285958997905254364013671875</LatitudeDegrees>
              <LongitudeDegrees>-1.1516614258289337158203125</LongitudeDegrees>
            </Position>
            <AltitudeMeters>18.200000762939453125</AltitudeMeters>
            <DistanceMeters>NAN</DistanceMeters>
          </Trackpoint>
          <Trackpoint>
            <Time>2022-07-04T16:51:22.000Z</Time>
            <Position>
              <LatitudeDegrees>44.612866379320621490478515625</LatitudeDegrees>
              <LongitudeDegrees>-1.151732839643955230712890625</LongitudeDegrees>
            </Position>
            <AltitudeMeters>18.200000762939453125</AltitudeMeters>
            <DistanceMeters>NAN</DistanceMeters>
          </Trackpoint>
          <Trackpoint>
            <Time>2022-07-04T16:51:26.000Z</Time>
            <Position>
              <LatitudeDegrees>44.6129121445119380950927734375</LatitudeDegrees>
              <LongitudeDegrees>-1.152008436620235443115234375</LongitudeDegrees>
            </Position>
            <AltitudeMeters>17.799999237060546875</AltitudeMeters>
            <DistanceMeters>NAN</DistanceMeters>
          </Trackpoint>
          <Trackpoint>
            <Time>2022-07-04T16:51:28.000Z</Time>
            <Position>
              <LatitudeDegrees>44.61293234489858150482177734375</LatitudeDegrees>
              <LongitudeDegrees>-1.15216928534209728240966796875</LongitudeDegrees>
            </Position>
            <AltitudeMeters>17.6000003814697265625</AltitudeMeters>
            <DistanceMeters>NAN</DistanceMeters>
          </Trackpoint>
          <Trackpoint>
            <Time>2022-07-04T16:51:29.000Z</Time>
            <Position>
              <LatitudeDegrees>44.6129543893039226531982421875</LatitudeDegrees>
              <LongitudeDegrees>-1.15224237553775310516357421875</LongitudeDegrees>
            </Position>
            <AltitudeMeters>17.6000003814697265625</AltitudeMeters>
            <DistanceMeters>NAN</DistanceMeters>
          </Trackpoint>
          <Trackpoint>
            <Time>2022-07-04T16:51:30.000Z</Time>
            <Position>
              <LatitudeDegrees>44.61297224275767803192138671875</LatitudeDegrees>
              <LongitudeDegrees>-1.15231144241988658905029296875</LongitudeDegrees>
            </Position>
            <AltitudeMeters>17.6000003814697265625</AltitudeMeters>
            <DistanceMeters>NAN</DistanceMeters>
          </Trackpoint>
          <Trackpoint>
            <Time>2022-07-04T16:51:33.000Z</Time>
            <Position>
              <LatitudeDegrees>44.61309277452528476715087890625</LatitudeDegrees>
              <LongitudeDegrees>-1.15267991088330745697021484375</LongitudeDegrees>
            </Position>
            <AltitudeMeters>16.6000003814697265625</AltitudeMeters>
            <DistanceMeters>NAN</DistanceMeters>
          </Trackpoint>
          <Trackpoint>
            <Time>2022-07-04T16:51:35.000Z</Time>
            <Position>
              <LatitudeDegrees>44.61310819722712039947509765625</LatitudeDegrees>
              <LongitudeDegrees>-1.15285224281251430511474609375</LongitudeDegrees>
            </Position>
            <AltitudeMeters>16</AltitudeMeters>
            <DistanceMeters>NAN</DistanceMeters>
          </Trackpoint>
          <Trackpoint>
            <Time>2022-07-04T16:51:38.000Z</Time>
            <Position>
              <LatitudeDegrees>44.613148011267185211181640625</LatitudeDegrees>
              <LongitudeDegrees>-1.153098084032535552978515625</LongitudeDegrees>
            </Position>
            <AltitudeMeters>15.6000003814697265625</AltitudeMeters>
            <DistanceMeters>NAN</DistanceMeters>
          </Trackpoint>
          <Trackpoint>
            <Time>2022-07-04T16:51:41.000Z</Time>
            <Position>
              <LatitudeDegrees>44.6131921000778675079345703125</LatitudeDegrees>
              <LongitudeDegrees>-1.1532937176525592803955078125</LongitudeDegrees>
            </Position>
            <AltitudeMeters>15.3999996185302734375</AltitudeMeters>
            <DistanceMeters>NAN</DistanceMeters>
          </Trackpoint>
          <Trackpoint>
            <Time>2022-07-04T16:51:47.000Z</Time>
            <Position>
              <LatitudeDegrees>44.61324281059205532073974609375</LatitudeDegrees>
              <LongitudeDegrees>-1.15356386639177799224853515625</LongitudeDegrees>
            </Position>
            <AltitudeMeters>16</AltitudeMeters>
            <DistanceMeters>NAN</DistanceMeters>
          </Trackpoint>
          <Trackpoint>
            <Time>2022-07-04T16:51:53.000Z</Time>
            <Position>
              <LatitudeDegrees>44.6132080256938934326171875</LatitudeDegrees>
              <LongitudeDegrees>-1.15372211672365665435791015625</LongitudeDegrees>
            </Position>
            <AltitudeMeters>16.6000003814697265625</AltitudeMeters>
            <DistanceMeters>NAN</DistanceMeters>
          </Trackpoint>
          <Trackpoint>
            <Time>2022-07-04T16:52:00.000Z</Time>
            <Position>
              <LatitudeDegrees>44.61317173205316066741943359375</LatitudeDegrees>
              <LongitudeDegrees>-1.1539163254201412200927734375</LongitudeDegrees>
            </Position>
            <AltitudeMeters>17.799999237060546875</AltitudeMeters>
            <DistanceMeters>NAN</DistanceMeters>
          </Trackpoint>
          <Trackpoint>
            <Time>2022-07-04T16:52:01.000Z</Time>
            <Position>
              <LatitudeDegrees>44.61316368542611598968505859375</LatitudeDegrees>
              <LongitudeDegrees>-1.15393870510160923004150390625</LongitudeDegrees>
            </Position>
            <AltitudeMeters>18</AltitudeMeters>
            <DistanceMeters>NAN</DistanceMeters>
          </Trackpoint>
          <Trackpoint>
            <Time>2022-07-04T16:52:06.000Z</Time>
            <Position>
              <LatitudeDegrees>44.61313753388822078704833984375</LatitudeDegrees>
              <LongitudeDegrees>-1.15403710864484310150146484375</LongitudeDegrees>
            </Position>
            <AltitudeMeters>18.799999237060546875</AltitudeMeters>
            <DistanceMeters>NAN</DistanceMeters>
          </Trackpoint>
          <Trackpoint>
            <Time>2022-07-04T16:52:08.000Z</Time>
            <Position>
              <LatitudeDegrees>44.6131173335015773773193359375</LatitudeDegrees>
              <LongitudeDegrees>-1.154069043695926666259765625</LongitudeDegrees>
            </Position>
            <AltitudeMeters>19.200000762939453125</AltitudeMeters>
            <DistanceMeters>NAN</DistanceMeters>
          </Trackpoint>
          <Trackpoint>
            <Time>2022-07-04T16:52:12.000Z</Time>
            <Position>
              <LatitudeDegrees>44.61307500489056110382080078125</LatitudeDegrees>
              <LongitudeDegrees>-1.15414448082447052001953125</LongitudeDegrees>
            </Position>
            <AltitudeMeters>20</AltitudeMeters>
            <DistanceMeters>NAN</DistanceMeters>
          </Trackpoint>
          <Trackpoint>
            <Time>2022-07-04T16:52:14.000Z</Time>
            <Position>
              <LatitudeDegrees>44.61305924691259860992431640625</LatitudeDegrees>
              <LongitudeDegrees>-1.1541818641126155853271484375</LongitudeDegrees>
            </Position>
            <AltitudeMeters>20.3999996185302734375</AltitudeMeters>
            <DistanceMeters>NAN</DistanceMeters>
          </Trackpoint>
          <Trackpoint>
            <Time>2022-07-04T16:52:20.000Z</Time>
            <Position>
              <LatitudeDegrees>44.61297643370926380157470703125</LatitudeDegrees>
              <LongitudeDegrees>-1.154272556304931640625</LongitudeDegrees>
            </Position>
            <AltitudeMeters>21.200000762939453125</AltitudeMeters>
            <DistanceMeters>NAN</DistanceMeters>
          </Trackpoint>
          <Trackpoint>
            <Time>2022-07-04T16:52:22.000Z</Time>
            <Position>
              <LatitudeDegrees>44.61294240318238735198974609375</LatitudeDegrees>
              <LongitudeDegrees>-1.15430046804249286651611328125</LongitudeDegrees>
            </Position>
            <AltitudeMeters>21.3999996185302734375</AltitudeMeters>
            <DistanceMeters>NAN</DistanceMeters>
          </Trackpoint>
          <Trackpoint>
            <Time>2022-07-04T16:52:27.000Z</Time>
            <Position>
              <LatitudeDegrees>44.6128672175109386444091796875</LatitudeDegrees>
              <LongitudeDegrees>-1.15436936728656291961669921875</LongitudeDegrees>
            </Position>
            <AltitudeMeters>22.3999996185302734375</AltitudeMeters>
            <DistanceMeters>NAN</DistanceMeters>
          </Trackpoint>
          <Trackpoint>
            <Time>2022-07-04T16:52:29.000Z</Time>
            <Position>
              <LatitudeDegrees>44.61283729411661624908447265625</LatitudeDegrees>
              <LongitudeDegrees>-1.15440255962312221527099609375</LongitudeDegrees>
            </Position>
            <AltitudeMeters>22.6000003814697265625</AltitudeMeters>
            <DistanceMeters>NAN</DistanceMeters>
          </Trackpoint>
          <Trackpoint>
            <Time>2022-07-04T16:52:33.000Z</Time>
            <Position>
              <LatitudeDegrees>44.61279320530593395233154296875</LatitudeDegrees>
              <LongitudeDegrees>-1.15447103977203369140625</LongitudeDegrees>
            </Position>
            <AltitudeMeters>23.3999996185302734375</AltitudeMeters>
            <DistanceMeters>NAN</DistanceMeters>
          </Trackpoint>
          <Trackpoint>
            <Time>2022-07-04T16:52:36.000Z</Time>
            <Position>
              <LatitudeDegrees>44.61275272071361541748046875</LatitudeDegrees>
              <LongitudeDegrees>-1.15450934506952762603759765625</LongitudeDegrees>
            </Position>
            <AltitudeMeters>23.799999237060546875</AltitudeMeters>
            <DistanceMeters>NAN</DistanceMeters>
          </Trackpoint>
          <Trackpoint>
            <Time>2022-07-04T16:52:40.000Z</Time>
            <Position>
              <LatitudeDegrees>44.612691365182399749755859375</LatitudeDegrees>
              <LongitudeDegrees>-1.1545402742922306060791015625</LongitudeDegrees>
            </Position>
            <AltitudeMeters>24.3999996185302734375</AltitudeMeters>
            <DistanceMeters>NAN</DistanceMeters>
          </Trackpoint>
          <Trackpoint>
            <Time>2022-07-04T16:52:46.000Z</Time>
            <Position>
              <LatitudeDegrees>44.61259958334267139434814453125</LatitudeDegrees>
              <LongitudeDegrees>-1.1546311341226100921630859375</LongitudeDegrees>
            </Position>
            <AltitudeMeters>25.3999996185302734375</AltitudeMeters>
            <DistanceMeters>NAN</DistanceMeters>
          </Trackpoint>
          <Trackpoint>
            <Time>2022-07-04T16:52:48.000Z</Time>
            <Position>
              <LatitudeDegrees>44.61256354115903377532958984375</LatitudeDegrees>
              <LongitudeDegrees>-1.1546609736979007720947265625</LongitudeDegrees>
            </Position>
            <AltitudeMeters>25.6000003814697265625</AltitudeMeters>
            <DistanceMeters>NAN</DistanceMeters>
          </Trackpoint>
          <Trackpoint>
            <Time>2022-07-04T16:52:53.000Z</Time>
            <Position>
              <LatitudeDegrees>44.61245692335069179534912109375</LatitudeDegrees>
              <LongitudeDegrees>-1.154753006994724273681640625</LongitudeDegrees>
            </Position>
            <AltitudeMeters>26</AltitudeMeters>
            <DistanceMeters>NAN</DistanceMeters>
          </Trackpoint>
          <Trackpoint>
            <Time>2022-07-04T16:52:57.000Z</Time>
            <Position>
              <LatitudeDegrees>44.61236204020678997039794921875</LatitudeDegrees>
              <LongitudeDegrees>-1.15482173860073089599609375</LongitudeDegrees>
            </Position>
            <AltitudeMeters>26</AltitudeMeters>
            <DistanceMeters>NAN</DistanceMeters>
          </Trackpoint>
          <Trackpoint>
            <Time>2022-07-04T16:53:00.000Z</Time>
            <Position>
              <LatitudeDegrees>44.61227453313767910003662109375</LatitudeDegrees>
              <LongitudeDegrees>-1.1548852734267711639404296875</LongitudeDegrees>
            </Position>
            <AltitudeMeters>25.799999237060546875</AltitudeMeters>
            <DistanceMeters>NAN</DistanceMeters>
          </Trackpoint>
          <Trackpoint>
            <Time>2022-07-04T16:53:08.000Z</Time>
            <Position>
              <LatitudeDegrees>44.61197714321315288543701171875</LatitudeDegrees>
              <LongitudeDegrees>-1.1550545878708362579345703125</LongitudeDegrees>
            </Position>
            <AltitudeMeters>25.200000762939453125</AltitudeMeters>
            <DistanceMeters>NAN</DistanceMeters>
          </Trackpoint>
          <Trackpoint>
            <Time>2022-07-04T16:53:13.000Z</Time>
            <Position>
              <LatitudeDegrees>44.61175083182752132415771484375</LatitudeDegrees>
              <LongitudeDegrees>-1.1552111618220806121826171875</LongitudeDegrees>
            </Position>
            <AltitudeMeters>25</AltitudeMeters>
            <DistanceMeters>NAN</DistanceMeters>
          </Trackpoint>
          <Trackpoint>
            <Time>2022-07-04T16:53:15.000Z</Time>
            <Position>
              <LatitudeDegrees>44.61165159009397029876708984375</LatitudeDegrees>
              <LongitudeDegrees>-1.1552698351442813873291015625</LongitudeDegrees>
            </Position>
            <AltitudeMeters>25</AltitudeMeters>
            <DistanceMeters>NAN</DistanceMeters>
          </Trackpoint>
          <Trackpoint>
            <Time>2022-07-04T16:53:18.000Z</Time>
            <Position>
              <LatitudeDegrees>44.611505828797817230224609375</LatitudeDegrees>
              <LongitudeDegrees>-1.15534820593893527984619140625</LongitudeDegrees>
            </Position>
            <AltitudeMeters>25</AltitudeMeters>
            <DistanceMeters>NAN</DistanceMeters>
          </Trackpoint>
          <Trackpoint>
            <Time>2022-07-04T16:53:19.000Z</Time>
            <Position>
              <LatitudeDegrees>44.61146065033972263336181640625</LatitudeDegrees>
              <LongitudeDegrees>-1.15537184290587902069091796875</LongitudeDegrees>
            </Position>
            <AltitudeMeters>25</AltitudeMeters>
            <DistanceMeters>NAN</DistanceMeters>
          </Trackpoint>
          <Trackpoint>
            <Time>2022-07-04T16:53:22.000Z</Time>
            <Position>
              <LatitudeDegrees>44.61128731258213520050048828125</LatitudeDegrees>
              <LongitudeDegrees>-1.15546203218400478363037109375</LongitudeDegrees>
            </Position>
            <AltitudeMeters>24.3999996185302734375</AltitudeMeters>
            <DistanceMeters>NAN</DistanceMeters>
          </Trackpoint>
          <Trackpoint>
            <Time>2022-07-04T16:53:26.000Z</Time>
            <Position>
              <LatitudeDegrees>44.61110425181686878204345703125</LatitudeDegrees>
              <LongitudeDegrees>-1.15558641962707042694091796875</LongitudeDegrees>
            </Position>
            <AltitudeMeters>24</AltitudeMeters>
            <DistanceMeters>NAN</DistanceMeters>
          </Trackpoint>
          <Trackpoint>
            <Time>2022-07-04T16:53:31.000Z</Time>
            <Position>
              <LatitudeDegrees>44.61084022186696529388427734375</LatitudeDegrees>
              <LongitudeDegrees>-1.1557318456470966339111328125</LongitudeDegrees>
            </Position>
            <AltitudeMeters>23.3999996185302734375</AltitudeMeters>
            <DistanceMeters>NAN</DistanceMeters>
          </Trackpoint>
          <Trackpoint>
            <Time>2022-07-04T16:53:32.000Z</Time>
            <Position>
              <LatitudeDegrees>44.6107888408005237579345703125</LatitudeDegrees>
              <LongitudeDegrees>-1.15575841628015041351318359375</LongitudeDegrees>
            </Position>
            <AltitudeMeters>23.3999996185302734375</AltitudeMeters>
            <DistanceMeters>NAN</DistanceMeters>
          </Trackpoint>
          <Trackpoint>
            <Time>2022-07-04T16:53:37.000Z</Time>
            <Position>
              <LatitudeDegrees>44.6104998327791690826416015625</LatitudeDegrees>
              <LongitudeDegrees>-1.15592638961970806121826171875</LongitudeDegrees>
            </Position>
            <AltitudeMeters>22.799999237060546875</AltitudeMeters>
            <DistanceMeters>NAN</DistanceMeters>
          </Trackpoint>
          <Trackpoint>
            <Time>2022-07-04T16:53:38.000Z</Time>
            <Position>
              <LatitudeDegrees>44.61043705232441425323486328125</LatitudeDegrees>
              <LongitudeDegrees>-1.15595689974725246429443359375</LongitudeDegrees>
            </Position>
            <AltitudeMeters>22.799999237060546875</AltitudeMeters>
            <DistanceMeters>NAN</DistanceMeters>
          </Trackpoint>
          <Trackpoint>
            <Time>2022-07-04T16:53:41.000Z</Time>
            <Position>
              <LatitudeDegrees>44.61023152805864810943603515625</LatitudeDegrees>
              <LongitudeDegrees>-1.15605211816728115081787109375</LongitudeDegrees>
            </Position>
            <AltitudeMeters>22.200000762939453125</AltitudeMeters>
            <DistanceMeters>NAN</DistanceMeters>
          </Trackpoint>
          <Trackpoint>
            <Time>2022-07-04T16:53:42.000Z</Time>
            <Position>
              <LatitudeDegrees>44.61017771624028682708740234375</LatitudeDegrees>
              <LongitudeDegrees>-1.1560895852744579315185546875</LongitudeDegrees>
            </Position>
            <AltitudeMeters>22.200000762939453125</AltitudeMeters>
            <DistanceMeters>NAN</DistanceMeters>
          </Trackpoint>
          <Trackpoint>
            <Time>2022-07-04T16:53:51.000Z</Time>
            <Position>
              <LatitudeDegrees>44.6096871234476566314697265625</LatitudeDegrees>
              <LongitudeDegrees>-1.15642377175390720367431640625</LongitudeDegrees>
            </Position>
            <AltitudeMeters>21.200000762939453125</AltitudeMeters>
            <DistanceMeters>NAN</DistanceMeters>
          </Trackpoint>
          <Trackpoint>
            <Time>2022-07-04T16:53:59.000Z</Time>
            <Position>
              <LatitudeDegrees>44.6092643402516841888427734375</LatitudeDegrees>
              <LongitudeDegrees>-1.156675480306148529052734375</LongitudeDegrees>
            </Position>
            <AltitudeMeters>20.6000003814697265625</AltitudeMeters>
            <DistanceMeters>NAN</DistanceMeters>
          </Trackpoint>
          <Trackpoint>
            <Time>2022-07-04T16:54:00.000Z</Time>
            <Position>
              <LatitudeDegrees>44.6092174015939235687255859375</LatitudeDegrees>
              <LongitudeDegrees>-1.15669232793152332305908203125</LongitudeDegrees>
            </Position>
            <AltitudeMeters>20.6000003814697265625</AltitudeMeters>
            <DistanceMeters>NAN</DistanceMeters>
          </Trackpoint>
          <Trackpoint>
            <Time>2022-07-04T16:54:02.000Z</Time>
            <Position>
              <LatitudeDegrees>44.60912042297422885894775390625</LatitudeDegrees>
              <LongitudeDegrees>-1.1567108519375324249267578125</LongitudeDegrees>
            </Position>
            <AltitudeMeters>20.6000003814697265625</AltitudeMeters>
            <DistanceMeters>NAN</DistanceMeters>
          </Trackpoint>
          <Trackpoint>
            <Time>2022-07-04T16:54:03.000Z</Time>
            <Position>
              <LatitudeDegrees>44.60907063446938991546630859375</LatitudeDegrees>
              <LongitudeDegrees>-1.156702972948551177978515625</LongitudeDegrees>
            </Position>
            <AltitudeMeters>20.6000003814697265625</AltitudeMeters>
            <DistanceMeters>NAN</DistanceMeters>
          </Trackpoint>
          <Trackpoint>
            <Time>2022-07-04T16:54:04.000Z</Time>
            <Position>
              <LatitudeDegrees>44.60902319289743900299072265625</LatitudeDegrees>
              <LongitudeDegrees>-1.156683862209320068359375</LongitudeDegrees>
            </Position>
            <AltitudeMeters>20.6000003814697265625</AltitudeMeters>
            <DistanceMeters>NAN</DistanceMeters>
          </Trackpoint>
          <Trackpoint>
            <Time>2022-07-04T16:54:07.000Z</Time>
            <Position>
              <LatitudeDegrees>44.6088762581348419189453125</LatitudeDegrees>
              <LongitudeDegrees>-1.156618483364582061767578125</LongitudeDegrees>
            </Position>
            <AltitudeMeters>20</AltitudeMeters>
            <DistanceMeters>NAN</DistanceMeters>
          </Trackpoint>
          <Trackpoint>
            <Time>2022-07-04T16:54:08.000Z</Time>
            <Position>
              <LatitudeDegrees>44.6088331751525402069091796875</LatitudeDegrees>
              <LongitudeDegrees>-1.15660482086241245269775390625</LongitudeDegrees>
            </Position>
            <AltitudeMeters>20</AltitudeMeters>
            <DistanceMeters>NAN</DistanceMeters>
          </Trackpoint>
          <Trackpoint>
            <Time>2022-07-04T16:54:09.000Z</Time>
            <Position>
              <LatitudeDegrees>44.60879378020763397216796875</LatitudeDegrees>
              <LongitudeDegrees>-1.1566020548343658447265625</LongitudeDegrees>
            </Position>
            <AltitudeMeters>19.799999237060546875</AltitudeMeters>
            <DistanceMeters>NAN</DistanceMeters>
          </Trackpoint>
          <Trackpoint>
            <Time>2022-07-04T16:54:11.000Z</Time>
            <Position>
              <LatitudeDegrees>44.60872680880129337310791015625</LatitudeDegrees>
              <LongitudeDegrees>-1.15663935430347919464111328125</LongitudeDegrees>
            </Position>
            <AltitudeMeters>19.799999237060546875</AltitudeMeters>
            <DistanceMeters>NAN</DistanceMeters>
          </Trackpoint>
          <Trackpoint>
            <Time>2022-07-04T16:54:18.000Z</Time>
            <Position>
              <LatitudeDegrees>44.608518518507480621337890625</LatitudeDegrees>
              <LongitudeDegrees>-1.156785450875759124755859375</LongitudeDegrees>
            </Position>
            <AltitudeMeters>19.799999237060546875</AltitudeMeters>
            <DistanceMeters>NAN</DistanceMeters>
          </Trackpoint>
          <Trackpoint>
            <Time>2022-07-04T16:54:19.000Z</Time>
            <Position>
              <LatitudeDegrees>44.60849731229245662689208984375</LatitudeDegrees>
              <LongitudeDegrees>-1.156820990145206451416015625</LongitudeDegrees>
            </Position>
            <AltitudeMeters>20</AltitudeMeters>
            <DistanceMeters>NAN</DistanceMeters>
          </Trackpoint>
          <Trackpoint>
            <Time>2022-07-04T16:54:24.000Z</Time>
            <Position>
              <LatitudeDegrees>44.6084549836814403533935546875</LatitudeDegrees>
              <LongitudeDegrees>-1.1570545099675655364990234375</LongitudeDegrees>
            </Position>
            <AltitudeMeters>20.200000762939453125</AltitudeMeters>
            <DistanceMeters>NAN</DistanceMeters>
          </Trackpoint>
          <Trackpoint>
            <Time>2022-07-04T16:54:29.000Z</Time>
            <Position>
              <LatitudeDegrees>44.60839555598795413970947265625</LatitudeDegrees>
              <LongitudeDegrees>-1.15735751576721668243408203125</LongitudeDegrees>
            </Position>
            <AltitudeMeters>20</AltitudeMeters>
            <DistanceMeters>NAN</DistanceMeters>
          </Trackpoint>
          <Trackpoint>
            <Time>2022-07-04T16:54:30.000Z</Time>
            <Position>
              <LatitudeDegrees>44.60836730897426605224609375</LatitudeDegrees>
              <LongitudeDegrees>-1.157408393919467926025390625</LongitudeDegrees>
            </Position>
            <AltitudeMeters>20</AltitudeMeters>
            <DistanceMeters>NAN</DistanceMeters>
          </Trackpoint>
          <Trackpoint>
            <Time>2022-07-04T16:54:37.000Z</Time>
            <Position>
              <LatitudeDegrees>44.60814309306442737579345703125</LatitudeDegrees>
              <LongitudeDegrees>-1.1577398143708705902099609375</LongitudeDegrees>
            </Position>
            <AltitudeMeters>19.799999237060546875</AltitudeMeters>
            <DistanceMeters>NAN</DistanceMeters>
          </Trackpoint>
          <Trackpoint>
            <Time>2022-07-04T16:54:43.000Z</Time>
            <Position>
              <LatitudeDegrees>44.60790320299565792083740234375</LatitudeDegrees>
              <LongitudeDegrees>-1.15803158842027187347412109375</LongitudeDegrees>
            </Position>
            <AltitudeMeters>19.799999237060546875</AltitudeMeters>
            <DistanceMeters>NAN</DistanceMeters>
          </Trackpoint>
          <Trackpoint>
            <Time>2022-07-04T16:54:44.000Z</Time>
            <Position>
              <LatitudeDegrees>44.6078638918697834014892578125</LatitudeDegrees>
              <LongitudeDegrees>-1.15807869471609592437744140625</LongitudeDegrees>
            </Position>
            <AltitudeMeters>19.799999237060546875</AltitudeMeters>
            <DistanceMeters>NAN</DistanceMeters>
          </Trackpoint>
          <Trackpoint>
            <Time>2022-07-04T16:54:46.000Z</Time>
            <Position>
              <LatitudeDegrees>44.60778971202671527862548828125</LatitudeDegrees>
              <LongitudeDegrees>-1.15816787816584110260009765625</LongitudeDegrees>
            </Position>
            <AltitudeMeters>19.799999237060546875</AltitudeMeters>
            <DistanceMeters>NAN</DistanceMeters>
          </Trackpoint>
          <Trackpoint>
            <Time>2022-07-04T16:54:48.000Z</Time>
            <Position>
              <LatitudeDegrees>44.607718549668788909912109375</LatitudeDegrees>
              <LongitudeDegrees>-1.15826494060456752777099609375</LongitudeDegrees>
            </Position>
            <AltitudeMeters>19.6000003814697265625</AltitudeMeters>
            <DistanceMeters>NAN</DistanceMeters>
          </Trackpoint>
          <Trackpoint>
            <Time>2022-07-04T16:54:57.000Z</Time>
            <Position>
              <LatitudeDegrees>44.60740498267114162445068359375</LatitudeDegrees>
              <LongitudeDegrees>-1.15871538408100605010986328125</LongitudeDegrees>
            </Position>
            <AltitudeMeters>19.3999996185302734375</AltitudeMeters>
            <DistanceMeters>NAN</DistanceMeters>
          </Trackpoint>
          <Trackpoint>
            <Time>2022-07-04T16:55:01.000Z</Time>
            <Position>
              <LatitudeDegrees>44.607275985181331634521484375</LatitudeDegrees>
              <LongitudeDegrees>-1.15893431939184665679931640625</LongitudeDegrees>
            </Position>
            <AltitudeMeters>19.3999996185302734375</AltitudeMeters>
            <DistanceMeters>NAN</DistanceMeters>
          </Trackpoint>
          <Trackpoint>
            <Time>2022-07-04T16:55:05.000Z</Time>
            <Position>
              <LatitudeDegrees>44.6071588061749935150146484375</LatitudeDegrees>
              <LongitudeDegrees>-1.15915878675878047943115234375</LongitudeDegrees>
            </Position>
            <AltitudeMeters>19.3999996185302734375</AltitudeMeters>
            <DistanceMeters>NAN</DistanceMeters>
          </Trackpoint>
          <Trackpoint>
            <Time>2022-07-04T16:55:09.000Z</Time>
            <Position>
              <LatitudeDegrees>44.6070461533963680267333984375</LatitudeDegrees>
              <LongitudeDegrees>-1.1593900434672832489013671875</LongitudeDegrees>
            </Position>
            <AltitudeMeters>19.200000762939453125</AltitudeMeters>
            <DistanceMeters>NAN</DistanceMeters>
          </Trackpoint>
          <Trackpoint>
            <Time>2022-07-04T16:55:10.000Z</Time>
            <Position>
              <LatitudeDegrees>44.6070146374404430389404296875</LatitudeDegrees>
              <LongitudeDegrees>-1.159444861114025115966796875</LongitudeDegrees>
            </Position>
            <AltitudeMeters>19.200000762939453125</AltitudeMeters>
            <DistanceMeters>NAN</DistanceMeters>
          </Trackpoint>
          <Trackpoint>
            <Time>2022-07-04T16:55:13.000Z</Time>
            <Position>
              <LatitudeDegrees>44.60692972876131534576416015625</LatitudeDegrees>
              <LongitudeDegrees>-1.15961878560483455657958984375</LongitudeDegrees>
            </Position>
            <AltitudeMeters>19.200000762939453125</AltitudeMeters>
            <DistanceMeters>NAN</DistanceMeters>
          </Trackpoint>
          <Trackpoint>
            <Time>2022-07-04T16:55:17.000Z</Time>
            <Position>
              <LatitudeDegrees>44.60680986754596233367919921875</LatitudeDegrees>
              <LongitudeDegrees>-1.15984224714338779449462890625</LongitudeDegrees>
            </Position>
            <AltitudeMeters>19</AltitudeMeters>
            <DistanceMeters>NAN</DistanceMeters>
          </Trackpoint>
          <Trackpoint>
            <Time>2022-07-04T16:55:20.000Z</Time>
            <Position>
              <LatitudeDegrees>44.60672755725681781768798828125</LatitudeDegrees>
              <LongitudeDegrees>-1.15998842753469944000244140625</LongitudeDegrees>
            </Position>
            <AltitudeMeters>18.799999237060546875</AltitudeMeters>
            <DistanceMeters>NAN</DistanceMeters>
          </Trackpoint>
          <Trackpoint>
            <Time>2022-07-04T16:55:26.000Z</Time>
            <Position>
              <LatitudeDegrees>44.60654399357736110687255859375</LatitudeDegrees>
              <LongitudeDegrees>-1.16031951270997524261474609375</LongitudeDegrees>
            </Position>
            <AltitudeMeters>18.6000003814697265625</AltitudeMeters>
            <DistanceMeters>NAN</DistanceMeters>
          </Trackpoint>
          <Trackpoint>
            <Time>2022-07-04T16:55:33.000Z</Time>
            <Position>
              <LatitudeDegrees>44.6063390560448169708251953125</LatitudeDegrees>
              <LongitudeDegrees>-1.1606962792575359344482421875</LongitudeDegrees>
            </Position>
            <AltitudeMeters>18.799999237060546875</AltitudeMeters>
            <DistanceMeters>NAN</DistanceMeters>
          </Trackpoint>
          <Trackpoint>
            <Time>2022-07-04T16:55:41.000Z</Time>
            <Position>
              <LatitudeDegrees>44.60612053982913494110107421875</LatitudeDegrees>
              <LongitudeDegrees>-1.16112719289958477020263671875</LongitudeDegrees>
            </Position>
            <AltitudeMeters>18.799999237060546875</AltitudeMeters>
            <DistanceMeters>NAN</DistanceMeters>
          </Trackpoint>
          <Trackpoint>
            <Time>2022-07-04T16:55:43.000Z</Time>
            <Position>
              <LatitudeDegrees>44.6060661412775516510009765625</LatitudeDegrees>
              <LongitudeDegrees>-1.16122819483280181884765625</LongitudeDegrees>
            </Position>
            <AltitudeMeters>19</AltitudeMeters>
            <DistanceMeters>NAN</DistanceMeters>
          </Trackpoint>
          <Trackpoint>
            <Time>2022-07-04T16:55:47.000Z</Time>
            <Position>
              <LatitudeDegrees>44.6059615351259708404541015625</LatitudeDegrees>
              <LongitudeDegrees>-1.161401532590389251708984375</LongitudeDegrees>
            </Position>
            <AltitudeMeters>19</AltitudeMeters>
            <DistanceMeters>NAN</DistanceMeters>
          </Trackpoint>
          <Trackpoint>
            <Time>2022-07-04T16:55:51.000Z</Time>
            <Position>
              <LatitudeDegrees>44.60587847046554088592529296875</LatitudeDegrees>
              <LongitudeDegrees>-1.1616005189716815948486328125</LongitudeDegrees>
            </Position>
            <AltitudeMeters>18.799999237060546875</AltitudeMeters>
            <DistanceMeters>NAN</DistanceMeters>
          </Trackpoint>
          <Trackpoint>
            <Time>2022-07-04T16:56:00.000Z</Time>
            <Position>
              <LatitudeDegrees>44.6056708507239818572998046875</LatitudeDegrees>
              <LongitudeDegrees>-1.16201877593994140625</LongitudeDegrees>
            </Position>
            <AltitudeMeters>18.799999237060546875</AltitudeMeters>
            <DistanceMeters>NAN</DistanceMeters>
          </Trackpoint>
          <Trackpoint>
            <Time>2022-07-04T16:56:06.000Z</Time>
            <Position>
              <LatitudeDegrees>44.6055390872061252593994140625</LatitudeDegrees>
              <LongitudeDegrees>-1.162302084267139434814453125</LongitudeDegrees>
            </Position>
            <AltitudeMeters>19</AltitudeMeters>
            <DistanceMeters>NAN</DistanceMeters>
          </Trackpoint>
          <Trackpoint>
            <Time>2022-07-04T16:56:11.000Z</Time>
            <Position>
              <LatitudeDegrees>44.60542098619043827056884765625</LatitudeDegrees>
              <LongitudeDegrees>-1.16253283806145191192626953125</LongitudeDegrees>
            </Position>
            <AltitudeMeters>19.200000762939453125</AltitudeMeters>
            <DistanceMeters>NAN</DistanceMeters>
          </Trackpoint>
          <Trackpoint>
            <Time>2022-07-04T16:56:12.000Z</Time>
            <Position>
              <LatitudeDegrees>44.60539751686155796051025390625</LatitudeDegrees>
              <LongitudeDegrees>-1.16257323883473873138427734375</LongitudeDegrees>
            </Position>
            <AltitudeMeters>19.200000762939453125</AltitudeMeters>
            <DistanceMeters>NAN</DistanceMeters>
          </Trackpoint>
          <Trackpoint>
            <Time>2022-07-04T16:56:19.000Z</Time>
            <Position>
              <LatitudeDegrees>44.6052323095500469207763671875</LatitudeDegrees>
              <LongitudeDegrees>-1.1628728918731212615966796875</LongitudeDegrees>
            </Position>
            <AltitudeMeters>19</AltitudeMeters>
            <DistanceMeters>NAN</DistanceMeters>
          </Trackpoint>
          <Trackpoint>
            <Time>2022-07-04T16:56:20.000Z</Time>
            <Position>
              <LatitudeDegrees>44.60520842112600803375244140625</LatitudeDegrees>
              <LongitudeDegrees>-1.1629201658070087432861328125</LongitudeDegrees>
            </Position>
            <AltitudeMeters>19</AltitudeMeters>
            <DistanceMeters>NAN</DistanceMeters>
          </Trackpoint>
          <Trackpoint>
            <Time>2022-07-04T16:56:28.000Z</Time>
            <Position>
              <LatitudeDegrees>44.60503307171165943145751953125</LatitudeDegrees>
              <LongitudeDegrees>-1.163279078900814056396484375</LongitudeDegrees>
            </Position>
            <AltitudeMeters>18.799999237060546875</AltitudeMeters>
            <DistanceMeters>NAN</DistanceMeters>
          </Trackpoint>
          <Trackpoint>
            <Time>2022-07-04T16:56:29.000Z</Time>
            <Position>
              <LatitudeDegrees>44.60500826127827167510986328125</LatitudeDegrees>
              <LongitudeDegrees>-1.16332232952117919921875</LongitudeDegrees>
            </Position>
            <AltitudeMeters>18.799999237060546875</AltitudeMeters>
            <DistanceMeters>NAN</DistanceMeters>
          </Trackpoint>
          <Trackpoint>
            <Time>2022-07-04T16:56:33.000Z</Time>
            <Position>
              <LatitudeDegrees>44.604909606277942657470703125</LatitudeDegrees>
              <LongitudeDegrees>-1.16350010968744754791259765625</LongitudeDegrees>
            </Position>
            <AltitudeMeters>19</AltitudeMeters>
            <DistanceMeters>NAN</DistanceMeters>
          </Trackpoint>
          <Trackpoint>
            <Time>2022-07-04T16:56:34.000Z</Time>
            <Position>
              <LatitudeDegrees>44.60488705895841121673583984375</LatitudeDegrees>
              <LongitudeDegrees>-1.16354252211749553680419921875</LongitudeDegrees>
            </Position>
            <AltitudeMeters>19</AltitudeMeters>
            <DistanceMeters>NAN</DistanceMeters>
          </Trackpoint>
          <Trackpoint>
            <Time>2022-07-04T16:56:38.000Z</Time>
            <Position>
              <LatitudeDegrees>44.6047947742044925689697265625</LatitudeDegrees>
              <LongitudeDegrees>-1.16372290067374706268310546875</LongitudeDegrees>
            </Position>
            <AltitudeMeters>19</AltitudeMeters>
            <DistanceMeters>NAN</DistanceMeters>
          </Trackpoint>
          <Trackpoint>
            <Time>2022-07-04T16:56:39.000Z</Time>
            <Position>
              <LatitudeDegrees>44.6047682873904705047607421875</LatitudeDegrees>
              <LongitudeDegrees>-1.1637623794376850128173828125</LongitudeDegrees>
            </Position>
            <AltitudeMeters>18.799999237060546875</AltitudeMeters>
            <DistanceMeters>NAN</DistanceMeters>
          </Trackpoint>
          <Trackpoint>
            <Time>2022-07-04T16:56:42.000Z</Time>
            <Position>
              <LatitudeDegrees>44.60470366291701793670654296875</LatitudeDegrees>
              <LongitudeDegrees>-1.16390009410679340362548828125</LongitudeDegrees>
            </Position>
            <AltitudeMeters>19</AltitudeMeters>
            <DistanceMeters>NAN</DistanceMeters>
          </Trackpoint>
          <Trackpoint>
            <Time>2022-07-04T16:56:46.000Z</Time>
            <Position>
              <LatitudeDegrees>44.60461012087762355804443359375</LatitudeDegrees>
              <LongitudeDegrees>-1.16409254260361194610595703125</LongitudeDegrees>
            </Position>
            <AltitudeMeters>19</AltitudeMeters>
            <DistanceMeters>NAN</DistanceMeters>
          </Trackpoint>
          <Trackpoint>
            <Time>2022-07-04T16:56:53.000Z</Time>
            <Position>
              <LatitudeDegrees>44.60444382391870021820068359375</LatitudeDegrees>
              <LongitudeDegrees>-1.164418347179889678955078125</LongitudeDegrees>
            </Position>
            <AltitudeMeters>19.3999996185302734375</AltitudeMeters>
            <DistanceMeters>NAN</DistanceMeters>
          </Trackpoint>
          <Trackpoint>
            <Time>2022-07-04T16:56:57.000Z</Time>
            <Position>
              <LatitudeDegrees>44.60434894077479839324951171875</LatitudeDegrees>
              <LongitudeDegrees>-1.16459906101226806640625</LongitudeDegrees>
            </Position>
            <AltitudeMeters>19.6000003814697265625</AltitudeMeters>
            <DistanceMeters>NAN</DistanceMeters>
          </Trackpoint>
          <Trackpoint>
            <Time>2022-07-04T16:57:00.000Z</Time>
            <Position>
              <LatitudeDegrees>44.604280292987823486328125</LatitudeDegrees>
              <LongitudeDegrees>-1.1647279746830463409423828125</LongitudeDegrees>
            </Position>
            <AltitudeMeters>19.6000003814697265625</AltitudeMeters>
            <DistanceMeters>NAN</DistanceMeters>
          </Trackpoint>
          <Trackpoint>
            <Time>2022-07-04T16:57:04.000Z</Time>
            <Position>
              <LatitudeDegrees>44.60416520945727825164794921875</LatitudeDegrees>
              <LongitudeDegrees>-1.16490541957318782806396484375</LongitudeDegrees>
            </Position>
            <AltitudeMeters>19.6000003814697265625</AltitudeMeters>
            <DistanceMeters>NAN</DistanceMeters>
          </Trackpoint>
          <Trackpoint>
            <Time>2022-07-04T16:57:07.000Z</Time>
            <Position>
              <LatitudeDegrees>44.6041054464876651763916015625</LatitudeDegrees>
              <LongitudeDegrees>-1.16504958830773830413818359375</LongitudeDegrees>
            </Position>
            <AltitudeMeters>19.6000003814697265625</AltitudeMeters>
            <DistanceMeters>NAN</DistanceMeters>
          </Trackpoint>
          <Trackpoint>
            <Time>2022-07-04T16:57:12.000Z</Time>
            <Position>
              <LatitudeDegrees>44.60398701019585132598876953125</LatitudeDegrees>
              <LongitudeDegrees>-1.16526919417083263397216796875</LongitudeDegrees>
            </Position>
            <AltitudeMeters>20</AltitudeMeters>
            <DistanceMeters>NAN</DistanceMeters>
          </Trackpoint>
          <Trackpoint>
            <Time>2022-07-04T16:57:13.000Z</Time>
            <Position>
              <LatitudeDegrees>44.60396085865795612335205078125</LatitudeDegrees>
              <LongitudeDegrees>-1.16531093604862689971923828125</LongitudeDegrees>
            </Position>
            <AltitudeMeters>20</AltitudeMeters>
            <DistanceMeters>NAN</DistanceMeters>
          </Trackpoint>
          <Trackpoint>
            <Time>2022-07-04T16:57:19.000Z</Time>
            <Position>
              <LatitudeDegrees>44.603866897523403167724609375</LatitudeDegrees>
              <LongitudeDegrees>-1.1655686795711517333984375</LongitudeDegrees>
            </Position>
            <AltitudeMeters>20.200000762939453125</AltitudeMeters>
            <DistanceMeters>NAN</DistanceMeters>
          </Trackpoint>
          <Trackpoint>
            <Time>2022-07-04T16:57:26.000Z</Time>
            <Position>
              <LatitudeDegrees>44.6037451922893524169921875</LatitudeDegrees>
              <LongitudeDegrees>-1.16590001620352268218994140625</LongitudeDegrees>
            </Position>
            <AltitudeMeters>20.3999996185302734375</AltitudeMeters>
            <DistanceMeters>NAN</DistanceMeters>
          </Trackpoint>
          <Trackpoint>
            <Time>2022-07-04T16:57:31.000Z</Time>
            <Position>
              <LatitudeDegrees>44.60368023253977298736572265625</LatitudeDegrees>
              <LongitudeDegrees>-1.16614728234708309173583984375</LongitudeDegrees>
            </Position>
            <AltitudeMeters>20.3999996185302734375</AltitudeMeters>
            <DistanceMeters>NAN</DistanceMeters>
          </Trackpoint>
          <Trackpoint>
            <Time>2022-07-04T16:57:33.000Z</Time>
            <Position>
              <LatitudeDegrees>44.60364670492708683013916015625</LatitudeDegrees>
              <LongitudeDegrees>-1.166246272623538970947265625</LongitudeDegrees>
            </Position>
            <AltitudeMeters>20.3999996185302734375</AltitudeMeters>
            <DistanceMeters>NAN</DistanceMeters>
          </Trackpoint>
          <Trackpoint>
            <Time>2022-07-04T16:57:37.000Z</Time>
            <Position>
              <LatitudeDegrees>44.60364737547934055328369140625</LatitudeDegrees>
              <LongitudeDegrees>-1.166460849344730377197265625</LongitudeDegrees>
            </Position>
            <AltitudeMeters>20.200000762939453125</AltitudeMeters>
            <DistanceMeters>NAN</DistanceMeters>
          </Trackpoint>
          <Trackpoint>
            <Time>2022-07-04T16:57:40.000Z</Time>
            <Position>
              <LatitudeDegrees>44.603642933070659637451171875</LatitudeDegrees>
              <LongitudeDegrees>-1.16665170527994632720947265625</LongitudeDegrees>
            </Position>
            <AltitudeMeters>20.200000762939453125</AltitudeMeters>
            <DistanceMeters>NAN</DistanceMeters>
          </Trackpoint>
          <Trackpoint>
            <Time>2022-07-04T16:57:42.000Z</Time>
            <Position>
              <LatitudeDegrees>44.60364217869937419891357421875</LatitudeDegrees>
              <LongitudeDegrees>-1.1667543835937976837158203125</LongitudeDegrees>
            </Position>
            <AltitudeMeters>20.200000762939453125</AltitudeMeters>
            <DistanceMeters>NAN</DistanceMeters>
          </Trackpoint>
          <Trackpoint>
            <Time>2022-07-04T16:57:46.000Z</Time>
            <Position>
              <LatitudeDegrees>44.6036876924335956573486328125</LatitudeDegrees>
              <LongitudeDegrees>-1.166985891759395599365234375</LongitudeDegrees>
            </Position>
            <AltitudeMeters>20.3999996185302734375</AltitudeMeters>
            <DistanceMeters>NAN</DistanceMeters>
          </Trackpoint>
          <Trackpoint>
            <Time>2022-07-04T16:57:52.000Z</Time>
            <Position>
              <LatitudeDegrees>44.60373605601489543914794921875</LatitudeDegrees>
              <LongitudeDegrees>-1.1673092655837535858154296875</LongitudeDegrees>
            </Position>
            <AltitudeMeters>20.6000003814697265625</AltitudeMeters>
            <DistanceMeters>NAN</DistanceMeters>
          </Trackpoint>
          <Trackpoint>
            <Time>2022-07-04T16:57:57.000Z</Time>
            <Position>
              <LatitudeDegrees>44.60372515954077243804931640625</LatitudeDegrees>
              <LongitudeDegrees>-1.1675734631717205047607421875</LongitudeDegrees>
            </Position>
            <AltitudeMeters>20.3999996185302734375</AltitudeMeters>
            <DistanceMeters>NAN</DistanceMeters>
          </Trackpoint>
          <Trackpoint>
            <Time>2022-07-04T16:58:02.000Z</Time>
            <Position>
              <LatitudeDegrees>44.60375390946865081787109375</LatitudeDegrees>
              <LongitudeDegrees>-1.16784478537738323211669921875</LongitudeDegrees>
            </Position>
            <AltitudeMeters>20.799999237060546875</AltitudeMeters>
            <DistanceMeters>NAN</DistanceMeters>
          </Trackpoint>
          <Trackpoint>
            <Time>2022-07-04T16:58:07.000Z</Time>
            <Position>
              <LatitudeDegrees>44.6037819050252437591552734375</LatitudeDegrees>
              <LongitudeDegrees>-1.16811937652528285980224609375</LongitudeDegrees>
            </Position>
            <AltitudeMeters>21</AltitudeMeters>
            <DistanceMeters>NAN</DistanceMeters>
          </Trackpoint>
          <Trackpoint>
            <Time>2022-07-04T16:58:11.000Z</Time>
            <Position>
              <LatitudeDegrees>44.60380562581121921539306640625</LatitudeDegrees>
              <LongitudeDegrees>-1.168319620192050933837890625</LongitudeDegrees>
            </Position>
            <AltitudeMeters>20.6000003814697265625</AltitudeMeters>
            <DistanceMeters>NAN</DistanceMeters>
          </Trackpoint>
          <Trackpoint>
            <Time>2022-07-04T16:58:16.000Z</Time>
            <Position>
              <LatitudeDegrees>44.60382289253175258636474609375</LatitudeDegrees>
              <LongitudeDegrees>-1.1685839854180812835693359375</LongitudeDegrees>
            </Position>
            <AltitudeMeters>20.6000003814697265625</AltitudeMeters>
            <DistanceMeters>NAN</DistanceMeters>
          </Trackpoint>
          <Trackpoint>
            <Time>2022-07-04T16:58:22.000Z</Time>
            <Position>
              <LatitudeDegrees>44.6038633771240711212158203125</LatitudeDegrees>
              <LongitudeDegrees>-1.16891850717365741729736328125</LongitudeDegrees>
            </Position>
            <AltitudeMeters>20.799999237060546875</AltitudeMeters>
            <DistanceMeters>NAN</DistanceMeters>
          </Trackpoint>
          <Trackpoint>
            <Time>2022-07-04T16:58:30.000Z</Time>
            <Position>
              <LatitudeDegrees>44.60382004268467426300048828125</LatitudeDegrees>
              <LongitudeDegrees>-1.1693886481225490570068359375</LongitudeDegrees>
            </Position>
            <AltitudeMeters>21</AltitudeMeters>
            <DistanceMeters>NAN</DistanceMeters>
          </Trackpoint>
          <Trackpoint>
            <Time>2022-07-04T16:58:33.000Z</Time>
            <Position>
              <LatitudeDegrees>44.60379003547132015228271484375</LatitudeDegrees>
              <LongitudeDegrees>-1.16958151571452617645263671875</LongitudeDegrees>
            </Position>
            <AltitudeMeters>21</AltitudeMeters>
            <DistanceMeters>NAN</DistanceMeters>
          </Trackpoint>
          <Trackpoint>
            <Time>2022-07-04T16:58:35.000Z</Time>
            <Position>
              <LatitudeDegrees>44.6037587709724903106689453125</LatitudeDegrees>
              <LongitudeDegrees>-1.1697071604430675506591796875</LongitudeDegrees>
            </Position>
            <AltitudeMeters>20.799999237060546875</AltitudeMeters>
            <DistanceMeters>NAN</DistanceMeters>
          </Trackpoint>
          <Trackpoint>
            <Time>2022-07-04T16:58:36.000Z</Time>
            <Position>
              <LatitudeDegrees>44.6037453599274158477783203125</LatitudeDegrees>
              <LongitudeDegrees>-1.16976340301334857940673828125</LongitudeDegrees>
            </Position>
            <AltitudeMeters>20.799999237060546875</AltitudeMeters>
            <DistanceMeters>NAN</DistanceMeters>
          </Trackpoint>
          <Trackpoint>
            <Time>2022-07-04T16:58:39.000Z</Time>
            <Position>
              <LatitudeDegrees>44.6037130057811737060546875</LatitudeDegrees>
              <LongitudeDegrees>-1.16993674077093601226806640625</LongitudeDegrees>
            </Position>
            <AltitudeMeters>20.799999237060546875</AltitudeMeters>
            <DistanceMeters>NAN</DistanceMeters>
          </Trackpoint>
          <Trackpoint>
            <Time>2022-07-04T16:58:40.000Z</Time>
            <Position>
              <LatitudeDegrees>44.60369163192808628082275390625</LatitudeDegrees>
              <LongitudeDegrees>-1.16999658755958080291748046875</LongitudeDegrees>
            </Position>
            <AltitudeMeters>20.799999237060546875</AltitudeMeters>
            <DistanceMeters>NAN</DistanceMeters>
          </Trackpoint>
          <Trackpoint>
            <Time>2022-07-04T16:58:45.000Z</Time>
            <Position>
              <LatitudeDegrees>44.60352650843560695648193359375</LatitudeDegrees>
              <LongitudeDegrees>-1.1702724359929561614990234375</LongitudeDegrees>
            </Position>
            <AltitudeMeters>21</AltitudeMeters>
            <DistanceMeters>NAN</DistanceMeters>
          </Trackpoint>
          <Trackpoint>
            <Time>2022-07-04T16:58:48.000Z</Time>
            <Position>
              <LatitudeDegrees>44.6034731157124042510986328125</LatitudeDegrees>
              <LongitudeDegrees>-1.17042406462132930755615234375</LongitudeDegrees>
            </Position>
            <AltitudeMeters>21</AltitudeMeters>
            <DistanceMeters>NAN</DistanceMeters>
          </Trackpoint>
          <Trackpoint>
            <Time>2022-07-04T16:58:56.000Z</Time>
            <Position>
              <LatitudeDegrees>44.603254683315753936767578125</LatitudeDegrees>
              <LongitudeDegrees>-1.17087434045970439910888671875</LongitudeDegrees>
            </Position>
            <AltitudeMeters>21.200000762939453125</AltitudeMeters>
            <DistanceMeters>NAN</DistanceMeters>
          </Trackpoint>
          <Trackpoint>
            <Time>2022-07-04T16:58:57.000Z</Time>
            <Position>
              <LatitudeDegrees>44.60323096252977848052978515625</LatitudeDegrees>
              <LongitudeDegrees>-1.170917339622974395751953125</LongitudeDegrees>
            </Position>
            <AltitudeMeters>21.200000762939453125</AltitudeMeters>
            <DistanceMeters>NAN</DistanceMeters>
          </Trackpoint>
          <Trackpoint>
            <Time>2022-07-04T16:59:00.000Z</Time>
            <Position>
              <LatitudeDegrees>44.6031304635107517242431640625</LatitudeDegrees>
              <LongitudeDegrees>-1.171078942716121673583984375</LongitudeDegrees>
            </Position>
            <AltitudeMeters>21.200000762939453125</AltitudeMeters>
            <DistanceMeters>NAN</DistanceMeters>
          </Trackpoint>
          <Trackpoint>
            <Time>2022-07-04T16:59:04.000Z</Time>
            <Position>
              <LatitudeDegrees>44.6030228398740291595458984375</LatitudeDegrees>
              <LongitudeDegrees>-1.1712765879929065704345703125</LongitudeDegrees>
            </Position>
            <AltitudeMeters>20.799999237060546875</AltitudeMeters>
            <DistanceMeters>NAN</DistanceMeters>
          </Trackpoint>
          <Trackpoint>
            <Time>2022-07-04T16:59:09.000Z</Time>
            <Position>
              <LatitudeDegrees>44.602905325591564178466796875</LatitudeDegrees>
              <LongitudeDegrees>-1.17154858075082302093505859375</LongitudeDegrees>
            </Position>
            <AltitudeMeters>20.6000003814697265625</AltitudeMeters>
            <DistanceMeters>NAN</DistanceMeters>
          </Trackpoint>
          <Trackpoint>
            <Time>2022-07-04T16:59:14.000Z</Time>
            <Position>
              <LatitudeDegrees>44.60277146659791469573974609375</LatitudeDegrees>
              <LongitudeDegrees>-1.17181059904396533966064453125</LongitudeDegrees>
            </Position>
            <AltitudeMeters>20.799999237060546875</AltitudeMeters>
            <DistanceMeters>NAN</DistanceMeters>
          </Trackpoint>
          <Trackpoint>
            <Time>2022-07-04T16:59:18.000Z</Time>
            <Position>
              <LatitudeDegrees>44.60266686044633388519287109375</LatitudeDegrees>
              <LongitudeDegrees>-1.1720138601958751678466796875</LongitudeDegrees>
            </Position>
            <AltitudeMeters>20.799999237060546875</AltitudeMeters>
            <DistanceMeters>NAN</DistanceMeters>
          </Trackpoint>
          <Trackpoint>
            <Time>2022-07-04T16:59:20.000Z</Time>
            <Position>
              <LatitudeDegrees>44.60261858068406581878662109375</LatitudeDegrees>
              <LongitudeDegrees>-1.1721079051494598388671875</LongitudeDegrees>
            </Position>
            <AltitudeMeters>20.6000003814697265625</AltitudeMeters>
            <DistanceMeters>NAN</DistanceMeters>
          </Trackpoint>
          <Trackpoint>
            <Time>2022-07-04T16:59:21.000Z</Time>
            <Position>
              <LatitudeDegrees>44.602589495480060577392578125</LatitudeDegrees>
              <LongitudeDegrees>-1.17217152379453182220458984375</LongitudeDegrees>
            </Position>
            <AltitudeMeters>20.6000003814697265625</AltitudeMeters>
            <DistanceMeters>NAN</DistanceMeters>
          </Trackpoint>
          <Trackpoint>
            <Time>2022-07-04T16:59:23.000Z</Time>
            <Position>
              <LatitudeDegrees>44.60254532285034656524658203125</LatitudeDegrees>
              <LongitudeDegrees>-1.172266490757465362548828125</LongitudeDegrees>
            </Position>
            <AltitudeMeters>20.3999996185302734375</AltitudeMeters>
            <DistanceMeters>NAN</DistanceMeters>
          </Trackpoint>
          <Trackpoint>
            <Time>2022-07-04T16:59:32.000Z</Time>
            <Position>
              <LatitudeDegrees>44.6023128926753997802734375</LatitudeDegrees>
              <LongitudeDegrees>-1.17272816598415374755859375</LongitudeDegrees>
            </Position>
            <AltitudeMeters>20.200000762939453125</AltitudeMeters>
            <DistanceMeters>NAN</DistanceMeters>
          </Trackpoint>
          <Trackpoint>
            <Time>2022-07-04T16:59:40.000Z</Time>
            <Position>
              <LatitudeDegrees>44.6020793728530406951904296875</LatitudeDegrees>
              <LongitudeDegrees>-1.1731598339974880218505859375</LongitudeDegrees>
            </Position>
            <AltitudeMeters>20.3999996185302734375</AltitudeMeters>
            <DistanceMeters>NAN</DistanceMeters>
          </Trackpoint>
          <Trackpoint>
            <Time>2022-07-04T16:59:41.000Z</Time>
            <Position>
              <LatitudeDegrees>44.602047018706798553466796875</LatitudeDegrees>
              <LongitudeDegrees>-1.173211969435214996337890625</LongitudeDegrees>
            </Position>
            <AltitudeMeters>20.3999996185302734375</AltitudeMeters>
            <DistanceMeters>NAN</DistanceMeters>
          </Trackpoint>
          <Trackpoint>
            <Time>2022-07-04T16:59:50.000Z</Time>
            <Position>
              <LatitudeDegrees>44.60179078392684459686279296875</LatitudeDegrees>
              <LongitudeDegrees>-1.173698119819164276123046875</LongitudeDegrees>
            </Position>
            <AltitudeMeters>20.200000762939453125</AltitudeMeters>
            <DistanceMeters>NAN</DistanceMeters>
          </Trackpoint>
          <Trackpoint>
            <Time>2022-07-04T16:59:52.000Z</Time>
            <Position>
              <LatitudeDegrees>44.60173948667943477630615234375</LatitudeDegrees>
              <LongitudeDegrees>-1.1738075874745845794677734375</LongitudeDegrees>
            </Position>
            <AltitudeMeters>20.200000762939453125</AltitudeMeters>
            <DistanceMeters>NAN</DistanceMeters>
          </Trackpoint>
          <Trackpoint>
            <Time>2022-07-04T17:00:01.000Z</Time>
            <Position>
              <LatitudeDegrees>44.6014798991382122039794921875</LatitudeDegrees>
              <LongitudeDegrees>-1.1742625571787357330322265625</LongitudeDegrees>
            </Position>
            <AltitudeMeters>20.200000762939453125</AltitudeMeters>
            <DistanceMeters>NAN</DistanceMeters>
          </Trackpoint>
          <Trackpoint>
            <Time>2022-07-04T17:00:11.000Z</Time>
            <Position>
              <LatitudeDegrees>44.60121653974056243896484375</LatitudeDegrees>
              <LongitudeDegrees>-1.17480142973363399505615234375</LongitudeDegrees>
            </Position>
            <AltitudeMeters>20</AltitudeMeters>
            <DistanceMeters>NAN</DistanceMeters>
          </Trackpoint>
          <Trackpoint>
            <Time>2022-07-04T17:00:20.000Z</Time>
            <Position>
              <LatitudeDegrees>44.60097069852054119110107421875</LatitudeDegrees>
              <LongitudeDegrees>-1.1752702295780181884765625</LongitudeDegrees>
            </Position>
            <AltitudeMeters>20.6000003814697265625</AltitudeMeters>
            <DistanceMeters>NAN</DistanceMeters>
          </Trackpoint>
          <Trackpoint>
            <Time>2022-07-04T17:00:21.000Z</Time>
            <Position>
              <LatitudeDegrees>44.60094018839299678802490234375</LatitudeDegrees>
              <LongitudeDegrees>-1.1753297410905361175537109375</LongitudeDegrees>
            </Position>
            <AltitudeMeters>20.6000003814697265625</AltitudeMeters>
            <DistanceMeters>NAN</DistanceMeters>
          </Trackpoint>
          <Trackpoint>
            <Time>2022-07-04T17:00:23.000Z</Time>
            <Position>
              <LatitudeDegrees>44.600894339382648468017578125</LatitudeDegrees>
              <LongitudeDegrees>-1.1754219420254230499267578125</LongitudeDegrees>
            </Position>
            <AltitudeMeters>20.799999237060546875</AltitudeMeters>
            <DistanceMeters>NAN</DistanceMeters>
          </Trackpoint>
          <Trackpoint>
            <Time>2022-07-04T17:00:27.000Z</Time>
            <Position>
              <LatitudeDegrees>44.6008240990340709686279296875</LatitudeDegrees>
              <LongitudeDegrees>-1.17561698891222476959228515625</LongitudeDegrees>
            </Position>
            <AltitudeMeters>20.3999996185302734375</AltitudeMeters>
            <DistanceMeters>NAN</DistanceMeters>
          </Trackpoint>
          <Trackpoint>
            <Time>2022-07-04T17:00:29.000Z</Time>
            <Position>
              <LatitudeDegrees>44.600785709917545318603515625</LatitudeDegrees>
              <LongitudeDegrees>-1.1757156439125537872314453125</LongitudeDegrees>
            </Position>
            <AltitudeMeters>20.3999996185302734375</AltitudeMeters>
            <DistanceMeters>NAN</DistanceMeters>
          </Trackpoint>
          <Trackpoint>
            <Time>2022-07-04T17:00:37.000Z</Time>
            <Position>
              <LatitudeDegrees>44.60065671242773532867431640625</LatitudeDegrees>
              <LongitudeDegrees>-1.17610129527747631072998046875</LongitudeDegrees>
            </Position>
            <AltitudeMeters>20.200000762939453125</AltitudeMeters>
            <DistanceMeters>NAN</DistanceMeters>
          </Trackpoint>
          <Trackpoint>
            <Time>2022-07-04T17:00:42.000Z</Time>
            <Position>
              <LatitudeDegrees>44.60059736855328083038330078125</LatitudeDegrees>
              <LongitudeDegrees>-1.17638711817562580108642578125</LongitudeDegrees>
            </Position>
            <AltitudeMeters>20.200000762939453125</AltitudeMeters>
            <DistanceMeters>NAN</DistanceMeters>
          </Trackpoint>
          <Trackpoint>
            <Time>2022-07-04T17:00:43.000Z</Time>
            <Position>
              <LatitudeDegrees>44.60059351287782192230224609375</LatitudeDegrees>
              <LongitudeDegrees>-1.17642886005342006683349609375</LongitudeDegrees>
            </Position>
            <AltitudeMeters>20.200000762939453125</AltitudeMeters>
            <DistanceMeters>NAN</DistanceMeters>
          </Trackpoint>
          <Trackpoint>
            <Time>2022-07-04T17:00:48.000Z</Time>
            <Position>
              <LatitudeDegrees>44.6005501784384250640869140625</LatitudeDegrees>
              <LongitudeDegrees>-1.176695488393306732177734375</LongitudeDegrees>
            </Position>
            <AltitudeMeters>20</AltitudeMeters>
            <DistanceMeters>NAN</DistanceMeters>
          </Trackpoint>
          <Trackpoint>
            <Time>2022-07-04T17:00:50.000Z</Time>
            <Position>
              <LatitudeDegrees>44.600528888404369354248046875</LatitudeDegrees>
              <LongitudeDegrees>-1.17681627161800861358642578125</LongitudeDegrees>
            </Position>
            <AltitudeMeters>19.799999237060546875</AltitudeMeters>
            <DistanceMeters>NAN</DistanceMeters>
          </Trackpoint>
          <Trackpoint>
            <Time>2022-07-04T17:00:58.000Z</Time>
            <Position>
              <LatitudeDegrees>44.600523523986339569091796875</LatitudeDegrees>
              <LongitudeDegrees>-1.17727124132215976715087890625</LongitudeDegrees>
            </Position>
            <AltitudeMeters>19.799999237060546875</AltitudeMeters>
            <DistanceMeters>NAN</DistanceMeters>
          </Trackpoint>
          <Trackpoint>
            <Time>2022-07-04T17:00:59.000Z</Time>
            <Position>
              <LatitudeDegrees>44.6005327440798282623291015625</LatitudeDegrees>
              <LongitudeDegrees>-1.17733410559594631195068359375</LongitudeDegrees>
            </Position>
            <AltitudeMeters>19.799999237060546875</AltitudeMeters>
            <DistanceMeters>NAN</DistanceMeters>
          </Trackpoint>
          <Trackpoint>
            <Time>2022-07-04T17:01:06.000Z</Time>
            <Position>
              <LatitudeDegrees>44.6005495078861713409423828125</LatitudeDegrees>
              <LongitudeDegrees>-1.17772520519793033599853515625</LongitudeDegrees>
            </Position>
            <AltitudeMeters>19.799999237060546875</AltitudeMeters>
            <DistanceMeters>NAN</DistanceMeters>
          </Trackpoint>
          <Trackpoint>
            <Time>2022-07-04T17:01:13.000Z</Time>
            <Position>
              <LatitudeDegrees>44.60054389201104640960693359375</LatitudeDegrees>
              <LongitudeDegrees>-1.178117059171199798583984375</LongitudeDegrees>
            </Position>
            <AltitudeMeters>20</AltitudeMeters>
            <DistanceMeters>NAN</DistanceMeters>
          </Trackpoint>
          <Trackpoint>
            <Time>2022-07-04T17:01:14.000Z</Time>
            <Position>
              <LatitudeDegrees>44.6005468256771564483642578125</LatitudeDegrees>
              <LongitudeDegrees>-1.17817103862762451171875</LongitudeDegrees>
            </Position>
            <AltitudeMeters>20</AltitudeMeters>
            <DistanceMeters>NAN</DistanceMeters>
          </Trackpoint>
          <Trackpoint>
            <Time>2022-07-04T17:01:18.000Z</Time>
            <Position>
              <LatitudeDegrees>44.60055713541805744171142578125</LatitudeDegrees>
              <LongitudeDegrees>-1.1783831007778644561767578125</LongitudeDegrees>
            </Position>
            <AltitudeMeters>20.200000762939453125</AltitudeMeters>
            <DistanceMeters>NAN</DistanceMeters>
          </Trackpoint>
          <Trackpoint>
            <Time>2022-07-04T17:01:21.000Z</Time>
            <Position>
              <LatitudeDegrees>44.6005716361105442047119140625</LatitudeDegrees>
              <LongitudeDegrees>-1.178529448807239532470703125</LongitudeDegrees>
            </Position>
            <AltitudeMeters>20.3999996185302734375</AltitudeMeters>
            <DistanceMeters>NAN</DistanceMeters>
          </Trackpoint>
          <Trackpoint>
            <Time>2022-07-04T17:01:30.000Z</Time>
            <Position>
              <LatitudeDegrees>44.6005971170961856842041015625</LatitudeDegrees>
              <LongitudeDegrees>-1.17895499803125858306884765625</LongitudeDegrees>
            </Position>
            <AltitudeMeters>21</AltitudeMeters>
            <DistanceMeters>NAN</DistanceMeters>
          </Trackpoint>
          <Trackpoint>
            <Time>2022-07-04T17:01:31.000Z</Time>
            <Position>
              <LatitudeDegrees>44.60059988312423229217529296875</LatitudeDegrees>
              <LongitudeDegrees>-1.17900964803993701934814453125</LongitudeDegrees>
            </Position>
            <AltitudeMeters>21.200000762939453125</AltitudeMeters>
            <DistanceMeters>NAN</DistanceMeters>
          </Trackpoint>
          <Trackpoint>
            <Time>2022-07-04T17:01:37.000Z</Time>
            <Position>
              <LatitudeDegrees>44.60060306824743747711181640625</LatitudeDegrees>
              <LongitudeDegrees>-1.1792702414095401763916015625</LongitudeDegrees>
            </Position>
            <AltitudeMeters>21.799999237060546875</AltitudeMeters>
            <DistanceMeters>NAN</DistanceMeters>
          </Trackpoint>
          <Trackpoint>
            <Time>2022-07-04T17:01:41.000Z</Time>
            <Position>
              <LatitudeDegrees>44.6006145514547824859619140625</LatitudeDegrees>
              <LongitudeDegrees>-1.17942756973206996917724609375</LongitudeDegrees>
            </Position>
            <AltitudeMeters>22.200000762939453125</AltitudeMeters>
            <DistanceMeters>NAN</DistanceMeters>
          </Trackpoint>
          <Trackpoint>
            <Time>2022-07-04T17:01:45.000Z</Time>
            <Position>
              <LatitudeDegrees>44.6006189100444316864013671875</LatitudeDegrees>
              <LongitudeDegrees>-1.17956939153373241424560546875</LongitudeDegrees>
            </Position>
            <AltitudeMeters>22.3999996185302734375</AltitudeMeters>
            <DistanceMeters>NAN</DistanceMeters>
          </Trackpoint>
          <Trackpoint>
            <Time>2022-07-04T17:01:54.000Z</Time>
            <Position>
              <LatitudeDegrees>44.60062955506145954132080078125</LatitudeDegrees>
              <LongitudeDegrees>-1.17987222969532012939453125</LongitudeDegrees>
            </Position>
            <AltitudeMeters>23.200000762939453125</AltitudeMeters>
            <DistanceMeters>NAN</DistanceMeters>
          </Trackpoint>
          <Trackpoint>
            <Time>2022-07-04T17:02:02.000Z</Time>
            <Position>
              <LatitudeDegrees>44.60065872408449649810791015625</LatitudeDegrees>
              <LongitudeDegrees>-1.180156208574771881103515625</LongitudeDegrees>
            </Position>
            <AltitudeMeters>24.200000762939453125</AltitudeMeters>
            <DistanceMeters>NAN</DistanceMeters>
          </Trackpoint>
          <Trackpoint>
            <Time>2022-07-04T17:02:04.000Z</Time>
            <Position>
              <LatitudeDegrees>44.60066693834960460662841796875</LatitudeDegrees>
              <LongitudeDegrees>-1.18022519163787364959716796875</LongitudeDegrees>
            </Position>
            <AltitudeMeters>24.3999996185302734375</AltitudeMeters>
            <DistanceMeters>NAN</DistanceMeters>
          </Trackpoint>
          <Trackpoint>
            <Time>2022-07-04T17:02:10.000Z</Time>
            <Position>
              <LatitudeDegrees>44.60067884065210819244384765625</LatitudeDegrees>
              <LongitudeDegrees>-1.18043725378811359405517578125</LongitudeDegrees>
            </Position>
            <AltitudeMeters>25.200000762939453125</AltitudeMeters>
            <DistanceMeters>NAN</DistanceMeters>
          </Trackpoint>
          <Trackpoint>
            <Time>2022-07-04T17:02:15.000Z</Time>
            <Position>
              <LatitudeDegrees>44.60067951120436191558837890625</LatitudeDegrees>
              <LongitudeDegrees>-1.18059935979545116424560546875</LongitudeDegrees>
            </Position>
            <AltitudeMeters>25.3999996185302734375</AltitudeMeters>
            <DistanceMeters>NAN</DistanceMeters>
          </Trackpoint>
          <Trackpoint>
            <Time>2022-07-04T17:02:19.000Z</Time>
            <Position>
              <LatitudeDegrees>44.60067833773791790008544921875</LatitudeDegrees>
              <LongitudeDegrees>-1.18073045276105403900146484375</LongitudeDegrees>
            </Position>
            <AltitudeMeters>25.799999237060546875</AltitudeMeters>
            <DistanceMeters>NAN</DistanceMeters>
          </Trackpoint>
          <Trackpoint>
            <Time>2022-07-04T17:02:25.000Z</Time>
            <Position>
              <LatitudeDegrees>44.6006839536130428314208984375</LatitudeDegrees>
              <LongitudeDegrees>-1.18092742748558521270751953125</LongitudeDegrees>
            </Position>
            <AltitudeMeters>26.6000003814697265625</AltitudeMeters>
            <DistanceMeters>NAN</DistanceMeters>
          </Trackpoint>
          <Trackpoint>
            <Time>2022-07-04T17:02:30.000Z</Time>
            <Position>
              <LatitudeDegrees>44.60069350898265838623046875</LatitudeDegrees>
              <LongitudeDegrees>-1.18109674192965030670166015625</LongitudeDegrees>
            </Position>
            <AltitudeMeters>27</AltitudeMeters>
            <DistanceMeters>NAN</DistanceMeters>
          </Trackpoint>
          <Trackpoint>
            <Time>2022-07-04T17:02:36.000Z</Time>
            <Position>
              <LatitudeDegrees>44.6007263660430908203125</LatitudeDegrees>
              <LongitudeDegrees>-1.181315593421459197998046875</LongitudeDegrees>
            </Position>
            <AltitudeMeters>27.6000003814697265625</AltitudeMeters>
            <DistanceMeters>NAN</DistanceMeters>
          </Trackpoint>
          <Trackpoint>
            <Time>2022-07-04T17:02:37.000Z</Time>
            <Position>
              <LatitudeDegrees>44.60073198191821575164794921875</LatitudeDegrees>
              <LongitudeDegrees>-1.1813499592244625091552734375</LongitudeDegrees>
            </Position>
            <AltitudeMeters>27.6000003814697265625</AltitudeMeters>
            <DistanceMeters>NAN</DistanceMeters>
          </Trackpoint>
          <Trackpoint>
            <Time>2022-07-04T17:02:42.000Z</Time>
            <Position>
              <LatitudeDegrees>44.60075385868549346923828125</LatitudeDegrees>
              <LongitudeDegrees>-1.18152790702879428863525390625</LongitudeDegrees>
            </Position>
            <AltitudeMeters>28</AltitudeMeters>
            <DistanceMeters>NAN</DistanceMeters>
          </Trackpoint>
          <Trackpoint>
            <Time>2022-07-04T17:02:47.000Z</Time>
            <Position>
              <LatitudeDegrees>44.6007557027041912078857421875</LatitudeDegrees>
              <LongitudeDegrees>-1.18170954287052154541015625</LongitudeDegrees>
            </Position>
            <AltitudeMeters>28.6000003814697265625</AltitudeMeters>
            <DistanceMeters>NAN</DistanceMeters>
          </Trackpoint>
          <Trackpoint>
            <Time>2022-07-04T17:02:48.000Z</Time>
            <Position>
              <LatitudeDegrees>44.60075796581804752349853515625</LatitudeDegrees>
              <LongitudeDegrees>-1.18174348957836627960205078125</LongitudeDegrees>
            </Position>
            <AltitudeMeters>28.799999237060546875</AltitudeMeters>
            <DistanceMeters>NAN</DistanceMeters>
          </Trackpoint>
          <Trackpoint>
            <Time>2022-07-04T17:02:56.000Z</Time>
            <Position>
              <LatitudeDegrees>44.60077263414859771728515625</LatitudeDegrees>
              <LongitudeDegrees>-1.1820050887763500213623046875</LongitudeDegrees>
            </Position>
            <AltitudeMeters>29.3999996185302734375</AltitudeMeters>
            <DistanceMeters>NAN</DistanceMeters>
          </Trackpoint>
          <Trackpoint>
            <Time>2022-07-04T17:02:58.000Z</Time>
            <Position>
              <LatitudeDegrees>44.60077959112823009490966796875</LatitudeDegrees>
              <LongitudeDegrees>-1.18206719867885112762451171875</LongitudeDegrees>
            </Position>
            <AltitudeMeters>29.799999237060546875</AltitudeMeters>
            <DistanceMeters>NAN</DistanceMeters>
          </Trackpoint>
          <Trackpoint>
            <Time>2022-07-04T17:03:01.000Z</Time>
            <Position>
              <LatitudeDegrees>44.600788056850433349609375</LatitudeDegrees>
              <LongitudeDegrees>-1.1821656860411167144775390625</LongitudeDegrees>
            </Position>
            <AltitudeMeters>30</AltitudeMeters>
            <DistanceMeters>NAN</DistanceMeters>
          </Trackpoint>
          <Trackpoint>
            <Time>2022-07-04T17:03:09.000Z</Time>
            <Position>
              <LatitudeDegrees>44.6008284576237201690673828125</LatitudeDegrees>
              <LongitudeDegrees>-1.182406581938266754150390625</LongitudeDegrees>
            </Position>
            <AltitudeMeters>30.799999237060546875</AltitudeMeters>
            <DistanceMeters>NAN</DistanceMeters>
          </Trackpoint>
          <Trackpoint>
            <Time>2022-07-04T17:03:15.000Z</Time>
            <Position>
              <LatitudeDegrees>44.60086240433156490325927734375</LatitudeDegrees>
              <LongitudeDegrees>-1.182590983808040618896484375</LongitudeDegrees>
            </Position>
            <AltitudeMeters>31.3999996185302734375</AltitudeMeters>
            <DistanceMeters>NAN</DistanceMeters>
          </Trackpoint>
          <Trackpoint>
            <Time>2022-07-04T17:03:19.000Z</Time>
            <Position>
              <LatitudeDegrees>44.60087598301470279693603515625</LatitudeDegrees>
              <LongitudeDegrees>-1.18271134793758392333984375</LongitudeDegrees>
            </Position>
            <AltitudeMeters>31.799999237060546875</AltitudeMeters>
            <DistanceMeters>NAN</DistanceMeters>
          </Trackpoint>
          <Trackpoint>
            <Time>2022-07-04T17:03:24.000Z</Time>
            <Position>
              <LatitudeDegrees>44.60086827166378498077392578125</LatitudeDegrees>
              <LongitudeDegrees>-1.18285660631954669952392578125</LongitudeDegrees>
            </Position>
            <AltitudeMeters>32.40000152587890625</AltitudeMeters>
            <DistanceMeters>NAN</DistanceMeters>
          </Trackpoint>
          <Trackpoint>
            <Time>2022-07-04T17:03:29.000Z</Time>
            <Position>
              <LatitudeDegrees>44.600863158702850341796875</LatitudeDegrees>
              <LongitudeDegrees>-1.183014772832393646240234375</LongitudeDegrees>
            </Position>
            <AltitudeMeters>32.799999237060546875</AltitudeMeters>
            <DistanceMeters>NAN</DistanceMeters>
          </Trackpoint>
          <Trackpoint>
            <Time>2022-07-04T17:03:32.000Z</Time>
            <Position>
              <LatitudeDegrees>44.60083759389817714691162109375</LatitudeDegrees>
              <LongitudeDegrees>-1.183095909655094146728515625</LongitudeDegrees>
            </Position>
            <AltitudeMeters>33</AltitudeMeters>
            <DistanceMeters>NAN</DistanceMeters>
          </Trackpoint>
          <Trackpoint>
            <Time>2022-07-04T17:03:40.000Z</Time>
            <Position>
              <LatitudeDegrees>44.600795097649097442626953125</LatitudeDegrees>
              <LongitudeDegrees>-1.18332314305007457733154296875</LongitudeDegrees>
            </Position>
            <AltitudeMeters>33.59999847412109375</AltitudeMeters>
            <DistanceMeters>NAN</DistanceMeters>
          </Trackpoint>
          <Trackpoint>
            <Time>2022-07-04T17:03:43.000Z</Time>
            <Position>
              <LatitudeDegrees>44.600764922797679901123046875</LatitudeDegrees>
              <LongitudeDegrees>-1.1834021843969821929931640625</LongitudeDegrees>
            </Position>
            <AltitudeMeters>34</AltitudeMeters>
            <DistanceMeters>NAN</DistanceMeters>
          </Trackpoint>
          <Trackpoint>
            <Time>2022-07-04T17:03:46.000Z</Time>
            <Position>
              <LatitudeDegrees>44.6007169783115386962890625</LatitudeDegrees>
              <LongitudeDegrees>-1.18347921408712863922119140625</LongitudeDegrees>
            </Position>
            <AltitudeMeters>34.200000762939453125</AltitudeMeters>
            <DistanceMeters>NAN</DistanceMeters>
          </Trackpoint>
          <Trackpoint>
            <Time>2022-07-04T17:03:51.000Z</Time>
            <Position>
              <LatitudeDegrees>44.60069074295461177825927734375</LatitudeDegrees>
              <LongitudeDegrees>-1.18361433036625385284423828125</LongitudeDegrees>
            </Position>
            <AltitudeMeters>34.40000152587890625</AltitudeMeters>
            <DistanceMeters>NAN</DistanceMeters>
          </Trackpoint>
          <Trackpoint>
            <Time>2022-07-04T17:03:56.000Z</Time>
            <Position>
              <LatitudeDegrees>44.60065486840903759002685546875</LatitudeDegrees>
              <LongitudeDegrees>-1.183799989521503448486328125</LongitudeDegrees>
            </Position>
            <AltitudeMeters>34.799999237060546875</AltitudeMeters>
            <DistanceMeters>NAN</DistanceMeters>
          </Trackpoint>
          <Trackpoint>
            <Time>2022-07-04T17:03:58.000Z</Time>
            <Position>
              <LatitudeDegrees>44.60063978098332881927490234375</LatitudeDegrees>
              <LongitudeDegrees>-1.1838774383068084716796875</LongitudeDegrees>
            </Position>
            <AltitudeMeters>35</AltitudeMeters>
            <DistanceMeters>NAN</DistanceMeters>
          </Trackpoint>
          <Trackpoint>
            <Time>2022-07-04T17:04:02.000Z</Time>
            <Position>
              <LatitudeDegrees>44.60063852369785308837890625</LatitudeDegrees>
              <LongitudeDegrees>-1.184040717780590057373046875</LongitudeDegrees>
            </Position>
            <AltitudeMeters>35.200000762939453125</AltitudeMeters>
            <DistanceMeters>NAN</DistanceMeters>
          </Trackpoint>
          <Trackpoint>
            <Time>2022-07-04T17:04:04.000Z</Time>
            <Position>
              <LatitudeDegrees>44.60062787868082523345947265625</LatitudeDegrees>
              <LongitudeDegrees>-1.18411154486238956451416015625</LongitudeDegrees>
            </Position>
            <AltitudeMeters>35.40000152587890625</AltitudeMeters>
            <DistanceMeters>NAN</DistanceMeters>
          </Trackpoint>
          <Trackpoint>
            <Time>2022-07-04T17:04:10.000Z</Time>
            <Position>
              <LatitudeDegrees>44.60059217177331447601318359375</LatitudeDegrees>
              <LongitudeDegrees>-1.184333078563213348388671875</LongitudeDegrees>
            </Position>
            <AltitudeMeters>35.59999847412109375</AltitudeMeters>
            <DistanceMeters>NAN</DistanceMeters>
          </Trackpoint>
          <Trackpoint>
            <Time>2022-07-04T17:04:15.000Z</Time>
            <Position>
              <LatitudeDegrees>44.60055042989552021026611328125</LatitudeDegrees>
              <LongitudeDegrees>-1.1845256946980953216552734375</LongitudeDegrees>
            </Position>
            <AltitudeMeters>35.799999237060546875</AltitudeMeters>
            <DistanceMeters>NAN</DistanceMeters>
          </Trackpoint>
          <Trackpoint>
            <Time>2022-07-04T17:04:19.000Z</Time>
            <Position>
              <LatitudeDegrees>44.60046577267348766326904296875</LatitudeDegrees>
              <LongitudeDegrees>-1.1846735514700412750244140625</LongitudeDegrees>
            </Position>
            <AltitudeMeters>36</AltitudeMeters>
            <DistanceMeters>NAN</DistanceMeters>
          </Trackpoint>
          <Trackpoint>
            <Time>2022-07-04T17:04:24.000Z</Time>
            <Position>
              <LatitudeDegrees>44.60040651261806488037109375</LatitudeDegrees>
              <LongitudeDegrees>-1.18492878042161464691162109375</LongitudeDegrees>
            </Position>
            <AltitudeMeters>36.200000762939453125</AltitudeMeters>
            <DistanceMeters>NAN</DistanceMeters>
          </Trackpoint>
          <Trackpoint>
            <Time>2022-07-04T17:04:30.000Z</Time>
            <Position>
              <LatitudeDegrees>44.6002970449626445770263671875</LatitudeDegrees>
              <LongitudeDegrees>-1.18520714342594146728515625</LongitudeDegrees>
            </Position>
            <AltitudeMeters>36.200000762939453125</AltitudeMeters>
            <DistanceMeters>NAN</DistanceMeters>
          </Trackpoint>
          <Trackpoint>
            <Time>2022-07-04T17:04:31.000Z</Time>
            <Position>
              <LatitudeDegrees>44.60027885623276233673095703125</LatitudeDegrees>
              <LongitudeDegrees>-1.18525207042694091796875</LongitudeDegrees>
            </Position>
            <AltitudeMeters>36.200000762939453125</AltitudeMeters>
            <DistanceMeters>NAN</DistanceMeters>
          </Trackpoint>
          <Trackpoint>
            <Time>2022-07-04T17:04:37.000Z</Time>
            <Position>
              <LatitudeDegrees>44.60018397308886051177978515625</LatitudeDegrees>
              <LongitudeDegrees>-1.185490451753139495849609375</LongitudeDegrees>
            </Position>
            <AltitudeMeters>36.40000152587890625</AltitudeMeters>
            <DistanceMeters>NAN</DistanceMeters>
          </Trackpoint>
          <Trackpoint>
            <Time>2022-07-04T17:04:45.000Z</Time>
            <Position>
              <LatitudeDegrees>44.60002069361507892608642578125</LatitudeDegrees>
              <LongitudeDegrees>-1.1858557350933551788330078125</LongitudeDegrees>
            </Position>
            <AltitudeMeters>36.40000152587890625</AltitudeMeters>
            <DistanceMeters>NAN</DistanceMeters>
          </Trackpoint>
          <Trackpoint>
            <Time>2022-07-04T17:04:51.000Z</Time>
            <Position>
              <LatitudeDegrees>44.59987870417535305023193359375</LatitudeDegrees>
              <LongitudeDegrees>-1.18615941144526004791259765625</LongitudeDegrees>
            </Position>
            <AltitudeMeters>36.200000762939453125</AltitudeMeters>
            <DistanceMeters>NAN</DistanceMeters>
          </Trackpoint>
          <Trackpoint>
            <Time>2022-07-04T17:04:55.000Z</Time>
            <Position>
              <LatitudeDegrees>44.59980561397969722747802734375</LatitudeDegrees>
              <LongitudeDegrees>-1.18635890074074268341064453125</LongitudeDegrees>
            </Position>
            <AltitudeMeters>35.59999847412109375</AltitudeMeters>
            <DistanceMeters>NAN</DistanceMeters>
          </Trackpoint>
          <Trackpoint>
            <Time>2022-07-04T17:05:00.000Z</Time>
            <Position>
              <LatitudeDegrees>44.599693380296230316162109375</LatitudeDegrees>
              <LongitudeDegrees>-1.1866211704909801483154296875</LongitudeDegrees>
            </Position>
            <AltitudeMeters>35.200000762939453125</AltitudeMeters>
            <DistanceMeters>NAN</DistanceMeters>
          </Trackpoint>
          <Trackpoint>
            <Time>2022-07-04T17:05:01.000Z</Time>
            <Position>
              <LatitudeDegrees>44.59967024624347686767578125</LatitudeDegrees>
              <LongitudeDegrees>-1.18667255155742168426513671875</LongitudeDegrees>
            </Position>
            <AltitudeMeters>35.200000762939453125</AltitudeMeters>
            <DistanceMeters>NAN</DistanceMeters>
          </Trackpoint>
          <Trackpoint>
            <Time>2022-07-04T17:05:02.000Z</Time>
            <Position>
              <LatitudeDegrees>44.5996469445526599884033203125</LatitudeDegrees>
              <LongitudeDegrees>-1.186722926795482635498046875</LongitudeDegrees>
            </Position>
            <AltitudeMeters>35.200000762939453125</AltitudeMeters>
            <DistanceMeters>NAN</DistanceMeters>
          </Trackpoint>
          <Trackpoint>
            <Time>2022-07-04T17:05:04.000Z</Time>
            <Position>
              <LatitudeDegrees>44.5995869301259517669677734375</LatitudeDegrees>
              <LongitudeDegrees>-1.18683180771768093109130859375</LongitudeDegrees>
            </Position>
            <AltitudeMeters>35</AltitudeMeters>
            <DistanceMeters>NAN</DistanceMeters>
          </Trackpoint>
          <Trackpoint>
            <Time>2022-07-04T17:05:09.000Z</Time>
            <Position>
              <LatitudeDegrees>44.59943865425884723663330078125</LatitudeDegrees>
              <LongitudeDegrees>-1.18713037110865116119384765625</LongitudeDegrees>
            </Position>
            <AltitudeMeters>34.799999237060546875</AltitudeMeters>
            <DistanceMeters>NAN</DistanceMeters>
          </Trackpoint>
          <Trackpoint>
            <Time>2022-07-04T17:05:11.000Z</Time>
            <Position>
              <LatitudeDegrees>44.59938115440309047698974609375</LatitudeDegrees>
              <LongitudeDegrees>-1.18725769221782684326171875</LongitudeDegrees>
            </Position>
            <AltitudeMeters>34.59999847412109375</AltitudeMeters>
            <DistanceMeters>NAN</DistanceMeters>
          </Trackpoint>
          <Trackpoint>
            <Time>2022-07-04T17:05:13.000Z</Time>
            <Position>
              <LatitudeDegrees>44.59931644611060619354248046875</LatitudeDegrees>
              <LongitudeDegrees>-1.187390796840190887451171875</LongitudeDegrees>
            </Position>
            <AltitudeMeters>34.40000152587890625</AltitudeMeters>
            <DistanceMeters>NAN</DistanceMeters>
          </Trackpoint>
          <Trackpoint>
            <Time>2022-07-04T17:05:18.000Z</Time>
            <Position>
              <LatitudeDegrees>44.5991695113480091094970703125</LatitudeDegrees>
              <LongitudeDegrees>-1.18772263638675212860107421875</LongitudeDegrees>
            </Position>
            <AltitudeMeters>33.799999237060546875</AltitudeMeters>
            <DistanceMeters>NAN</DistanceMeters>
          </Trackpoint>
          <Trackpoint>
            <Time>2022-07-04T17:05:20.000Z</Time>
            <Position>
              <LatitudeDegrees>44.5991027913987636566162109375</LatitudeDegrees>
              <LongitudeDegrees>-1.18785657919943332672119140625</LongitudeDegrees>
            </Position>
            <AltitudeMeters>33.59999847412109375</AltitudeMeters>
            <DistanceMeters>NAN</DistanceMeters>
          </Trackpoint>
          <Trackpoint>
            <Time>2022-07-04T17:05:22.000Z</Time>
            <Position>
              <LatitudeDegrees>44.5990411005914211273193359375</LatitudeDegrees>
              <LongitudeDegrees>-1.18800091557204723358154296875</LongitudeDegrees>
            </Position>
            <AltitudeMeters>33.40000152587890625</AltitudeMeters>
            <DistanceMeters>NAN</DistanceMeters>
          </Trackpoint>
          <Trackpoint>
            <Time>2022-07-04T17:05:25.000Z</Time>
            <Position>
              <LatitudeDegrees>44.59894680418074131011962890625</LatitudeDegrees>
              <LongitudeDegrees>-1.188208870589733123779296875</LongitudeDegrees>
            </Position>
            <AltitudeMeters>32.799999237060546875</AltitudeMeters>
            <DistanceMeters>NAN</DistanceMeters>
          </Trackpoint>
          <Trackpoint>
            <Time>2022-07-04T17:05:33.000Z</Time>
            <Position>
              <LatitudeDegrees>44.5987095125019550323486328125</LatitudeDegrees>
              <LongitudeDegrees>-1.1887387745082378387451171875</LongitudeDegrees>
            </Position>
            <AltitudeMeters>32.200000762939453125</AltitudeMeters>
            <DistanceMeters>NAN</DistanceMeters>
          </Trackpoint>
          <Trackpoint>
            <Time>2022-07-04T17:05:37.000Z</Time>
            <Position>
              <LatitudeDegrees>44.59861840121448040008544921875</LatitudeDegrees>
              <LongitudeDegrees>-1.1890177242457866668701171875</LongitudeDegrees>
            </Position>
            <AltitudeMeters>30.200000762939453125</AltitudeMeters>
            <DistanceMeters>NAN</DistanceMeters>
          </Trackpoint>
          <Trackpoint>
            <Time>2022-07-04T17:05:39.000Z</Time>
            <Position>
              <LatitudeDegrees>44.59857934154570102691650390625</LatitudeDegrees>
              <LongitudeDegrees>-1.18915267288684844970703125</LongitudeDegrees>
            </Position>
            <AltitudeMeters>28.799999237060546875</AltitudeMeters>
            <DistanceMeters>NAN</DistanceMeters>
          </Trackpoint>
          <Trackpoint>
            <Time>2022-07-04T17:05:40.000Z</Time>
            <Position>
              <LatitudeDegrees>44.5985626615583896636962890625</LatitudeDegrees>
              <LongitudeDegrees>-1.1892245896160602569580078125</LongitudeDegrees>
            </Position>
            <AltitudeMeters>28.6000003814697265625</AltitudeMeters>
            <DistanceMeters>NAN</DistanceMeters>
          </Trackpoint>
          <Trackpoint>
            <Time>2022-07-04T17:05:43.000Z</Time>
            <Position>
              <LatitudeDegrees>44.5985073409974575042724609375</LatitudeDegrees>
              <LongitudeDegrees>-1.1894374899566173553466796875</LongitudeDegrees>
            </Position>
            <AltitudeMeters>30.200000762939453125</AltitudeMeters>
            <DistanceMeters>NAN</DistanceMeters>
          </Trackpoint>
          <Trackpoint>
            <Time>2022-07-04T17:05:48.000Z</Time>
            <Position>
              <LatitudeDegrees>44.598414637148380279541015625</LatitudeDegrees>
              <LongitudeDegrees>-1.18977628648281097412109375</LongitudeDegrees>
            </Position>
            <AltitudeMeters>30.3999996185302734375</AltitudeMeters>
            <DistanceMeters>NAN</DistanceMeters>
          </Trackpoint>
          <Trackpoint>
            <Time>2022-07-04T17:05:49.000Z</Time>
            <Position>
              <LatitudeDegrees>44.598397873342037200927734375</LatitudeDegrees>
              <LongitudeDegrees>-1.189846359193325042724609375</LongitudeDegrees>
            </Position>
            <AltitudeMeters>30.3999996185302734375</AltitudeMeters>
            <DistanceMeters>NAN</DistanceMeters>
          </Trackpoint>
          <Trackpoint>
            <Time>2022-07-04T17:05:51.000Z</Time>
            <Position>
              <LatitudeDegrees>44.59836442954838275909423828125</LatitudeDegrees>
              <LongitudeDegrees>-1.18998281657695770263671875</LongitudeDegrees>
            </Position>
            <AltitudeMeters>30.3999996185302734375</AltitudeMeters>
            <DistanceMeters>NAN</DistanceMeters>
          </Trackpoint>
          <Trackpoint>
            <Time>2022-07-04T17:05:53.000Z</Time>
            <Position>
              <LatitudeDegrees>44.59834699518978595733642578125</LatitudeDegrees>
              <LongitudeDegrees>-1.1901140771806240081787109375</LongitudeDegrees>
            </Position>
            <AltitudeMeters>30.200000762939453125</AltitudeMeters>
            <DistanceMeters>NAN</DistanceMeters>
          </Trackpoint>
          <Trackpoint>
            <Time>2022-07-04T17:05:56.000Z</Time>
            <Position>
              <LatitudeDegrees>44.598318077623844146728515625</LatitudeDegrees>
              <LongitudeDegrees>-1.19029168970882892608642578125</LongitudeDegrees>
            </Position>
            <AltitudeMeters>30</AltitudeMeters>
            <DistanceMeters>NAN</DistanceMeters>
          </Trackpoint>
          <Trackpoint>
            <Time>2022-07-04T17:05:58.000Z</Time>
            <Position>
              <LatitudeDegrees>44.59829636849462985992431640625</LatitudeDegrees>
              <LongitudeDegrees>-1.1904086172580718994140625</LongitudeDegrees>
            </Position>
            <AltitudeMeters>29.799999237060546875</AltitudeMeters>
            <DistanceMeters>NAN</DistanceMeters>
          </Trackpoint>
          <Trackpoint>
            <Time>2022-07-04T17:06:00.000Z</Time>
            <Position>
              <LatitudeDegrees>44.59826535545289516448974609375</LatitudeDegrees>
              <LongitudeDegrees>-1.19049771688878536224365234375</LongitudeDegrees>
            </Position>
            <AltitudeMeters>29.799999237060546875</AltitudeMeters>
            <DistanceMeters>NAN</DistanceMeters>
          </Trackpoint>
          <Trackpoint>
            <Time>2022-07-04T17:06:03.000Z</Time>
            <Position>
              <LatitudeDegrees>44.5982914231717586517333984375</LatitudeDegrees>
              <LongitudeDegrees>-1.19068480096757411956787109375</LongitudeDegrees>
            </Position>
            <AltitudeMeters>29.6000003814697265625</AltitudeMeters>
            <DistanceMeters>NAN</DistanceMeters>
          </Trackpoint>
          <Trackpoint>
            <Time>2022-07-04T17:06:04.000Z</Time>
            <Position>
              <LatitudeDegrees>44.5982810296118259429931640625</LatitudeDegrees>
              <LongitudeDegrees>-1.1907420493662357330322265625</LongitudeDegrees>
            </Position>
            <AltitudeMeters>29.6000003814697265625</AltitudeMeters>
            <DistanceMeters>NAN</DistanceMeters>
          </Trackpoint>
          <Trackpoint>
            <Time>2022-07-04T17:06:05.000Z</Time>
            <Position>
              <LatitudeDegrees>44.59826854057610034942626953125</LatitudeDegrees>
              <LongitudeDegrees>-1.19080499745905399322509765625</LongitudeDegrees>
            </Position>
            <AltitudeMeters>29.6000003814697265625</AltitudeMeters>
            <DistanceMeters>NAN</DistanceMeters>
          </Trackpoint>
          <Trackpoint>
            <Time>2022-07-04T17:06:08.000Z</Time>
            <Position>
              <LatitudeDegrees>44.59827625192701816558837890625</LatitudeDegrees>
              <LongitudeDegrees>-1.19095318950712680816650390625</LongitudeDegrees>
            </Position>
            <AltitudeMeters>29.799999237060546875</AltitudeMeters>
            <DistanceMeters>NAN</DistanceMeters>
          </Trackpoint>
          <Trackpoint>
            <Time>2022-07-04T17:06:09.000Z</Time>
            <Position>
              <LatitudeDegrees>44.59829703904688358306884765625</LatitudeDegrees>
              <LongitudeDegrees>-1.19100985117256641387939453125</LongitudeDegrees>
            </Position>
            <AltitudeMeters>30</AltitudeMeters>
            <DistanceMeters>NAN</DistanceMeters>
          </Trackpoint>
          <Trackpoint>
            <Time>2022-07-04T17:06:14.000Z</Time>
            <Position>
              <LatitudeDegrees>44.5982951112091541290283203125</LatitudeDegrees>
              <LongitudeDegrees>-1.1912412755191326141357421875</LongitudeDegrees>
            </Position>
            <AltitudeMeters>30.6000003814697265625</AltitudeMeters>
            <DistanceMeters>NAN</DistanceMeters>
          </Trackpoint>
          <Trackpoint>
            <Time>2022-07-04T17:06:18.000Z</Time>
            <Position>
              <LatitudeDegrees>44.598313383758068084716796875</LatitudeDegrees>
              <LongitudeDegrees>-1.19146700017154216766357421875</LongitudeDegrees>
            </Position>
            <AltitudeMeters>31</AltitudeMeters>
            <DistanceMeters>NAN</DistanceMeters>
          </Trackpoint>
          <Trackpoint>
            <Time>2022-07-04T17:06:20.000Z</Time>
            <Position>
              <LatitudeDegrees>44.598336853086948394775390625</LatitudeDegrees>
              <LongitudeDegrees>-1.191578395664691925048828125</LongitudeDegrees>
            </Position>
            <AltitudeMeters>31.200000762939453125</AltitudeMeters>
            <DistanceMeters>NAN</DistanceMeters>
          </Trackpoint>
          <Trackpoint>
            <Time>2022-07-04T17:06:25.000Z</Time>
            <Position>
              <LatitudeDegrees>44.59834682755172252655029296875</LatitudeDegrees>
              <LongitudeDegrees>-1.19178517721593379974365234375</LongitudeDegrees>
            </Position>
            <AltitudeMeters>31.6000003814697265625</AltitudeMeters>
            <DistanceMeters>NAN</DistanceMeters>
          </Trackpoint>
          <Trackpoint>
            <Time>2022-07-04T17:06:31.000Z</Time>
            <Position>
              <LatitudeDegrees>44.59836141206324100494384765625</LatitudeDegrees>
              <LongitudeDegrees>-1.19202255271375179290771484375</LongitudeDegrees>
            </Position>
            <AltitudeMeters>31.799999237060546875</AltitudeMeters>
            <DistanceMeters>NAN</DistanceMeters>
          </Trackpoint>
          <Trackpoint>
            <Time>2022-07-04T17:06:34.000Z</Time>
            <Position>
              <LatitudeDegrees>44.59837934933602809906005859375</LatitudeDegrees>
              <LongitudeDegrees>-1.1921478621661663055419921875</LongitudeDegrees>
            </Position>
            <AltitudeMeters>32.200000762939453125</AltitudeMeters>
            <DistanceMeters>NAN</DistanceMeters>
          </Trackpoint>
          <Trackpoint>
            <Time>2022-07-04T17:06:38.000Z</Time>
            <Position>
              <LatitudeDegrees>44.5983977057039737701416015625</LatitudeDegrees>
              <LongitudeDegrees>-1.19231374002993106842041015625</LongitudeDegrees>
            </Position>
            <AltitudeMeters>32.40000152587890625</AltitudeMeters>
            <DistanceMeters>NAN</DistanceMeters>
          </Trackpoint>
          <Trackpoint>
            <Time>2022-07-04T17:06:46.000Z</Time>
            <Position>
              <LatitudeDegrees>44.598430730402469635009765625</LatitudeDegrees>
              <LongitudeDegrees>-1.1925981380045413970947265625</LongitudeDegrees>
            </Position>
            <AltitudeMeters>33</AltitudeMeters>
            <DistanceMeters>NAN</DistanceMeters>
          </Trackpoint>
          <Trackpoint>
            <Time>2022-07-04T17:06:51.000Z</Time>
            <Position>
              <LatitudeDegrees>44.598444811999797821044921875</LatitudeDegrees>
              <LongitudeDegrees>-1.1927905865013599395751953125</LongitudeDegrees>
            </Position>
            <AltitudeMeters>33.200000762939453125</AltitudeMeters>
            <DistanceMeters>NAN</DistanceMeters>
          </Trackpoint>
          <Trackpoint>
            <Time>2022-07-04T17:06:57.000Z</Time>
            <Position>
              <LatitudeDegrees>44.59847138263285160064697265625</LatitudeDegrees>
              <LongitudeDegrees>-1.193026788532733917236328125</LongitudeDegrees>
            </Position>
            <AltitudeMeters>33.59999847412109375</AltitudeMeters>
            <DistanceMeters>NAN</DistanceMeters>
          </Trackpoint>
          <Trackpoint>
            <Time>2022-07-04T17:07:06.000Z</Time>
            <Position>
              <LatitudeDegrees>44.59850574843585491180419921875</LatitudeDegrees>
              <LongitudeDegrees>-1.1933491565287113189697265625</LongitudeDegrees>
            </Position>
            <AltitudeMeters>34.200000762939453125</AltitudeMeters>
            <DistanceMeters>NAN</DistanceMeters>
          </Trackpoint>
          <Trackpoint>
            <Time>2022-07-04T17:07:08.000Z</Time>
            <Position>
              <LatitudeDegrees>44.59851195104420185089111328125</LatitudeDegrees>
              <LongitudeDegrees>-1.19342149235308170318603515625</LongitudeDegrees>
            </Position>
            <AltitudeMeters>34.200000762939453125</AltitudeMeters>
            <DistanceMeters>NAN</DistanceMeters>
          </Trackpoint>
          <Trackpoint>
            <Time>2022-07-04T17:07:10.000Z</Time>
            <Position>
              <LatitudeDegrees>44.5985197462141513824462890625</LatitudeDegrees>
              <LongitudeDegrees>-1.19349743239581584930419921875</LongitudeDegrees>
            </Position>
            <AltitudeMeters>34.200000762939453125</AltitudeMeters>
            <DistanceMeters>NAN</DistanceMeters>
          </Trackpoint>
          <Trackpoint>
            <Time>2022-07-04T17:07:11.000Z</Time>
            <Position>
              <LatitudeDegrees>44.59852251224219799041748046875</LatitudeDegrees>
              <LongitudeDegrees>-1.19353833608329296112060546875</LongitudeDegrees>
            </Position>
            <AltitudeMeters>34.40000152587890625</AltitudeMeters>
            <DistanceMeters>NAN</DistanceMeters>
          </Trackpoint>
          <Trackpoint>
            <Time>2022-07-04T17:07:14.000Z</Time>
            <Position>
              <LatitudeDegrees>44.59853676147758960723876953125</LatitudeDegrees>
              <LongitudeDegrees>-1.1936502344906330108642578125</LongitudeDegrees>
            </Position>
            <AltitudeMeters>34.59999847412109375</AltitudeMeters>
            <DistanceMeters>NAN</DistanceMeters>
          </Trackpoint>
          <Trackpoint>
            <Time>2022-07-04T17:07:20.000Z</Time>
            <Position>
              <LatitudeDegrees>44.5985603146255016326904296875</LatitudeDegrees>
              <LongitudeDegrees>-1.19389171712100505828857421875</LongitudeDegrees>
            </Position>
            <AltitudeMeters>34.59999847412109375</AltitudeMeters>
            <DistanceMeters>NAN</DistanceMeters>
          </Trackpoint>
          <Trackpoint>
            <Time>2022-07-04T17:07:28.000Z</Time>
            <Position>
              <LatitudeDegrees>44.59858571179211139678955078125</LatitudeDegrees>
              <LongitudeDegrees>-1.194222383201122283935546875</LongitudeDegrees>
            </Position>
            <AltitudeMeters>35</AltitudeMeters>
            <DistanceMeters>NAN</DistanceMeters>
          </Trackpoint>
          <Trackpoint>
            <Time>2022-07-04T17:07:35.000Z</Time>
            <Position>
              <LatitudeDegrees>44.5985814370214939117431640625</LatitudeDegrees>
              <LongitudeDegrees>-1.19448901154100894927978515625</LongitudeDegrees>
            </Position>
            <AltitudeMeters>35.40000152587890625</AltitudeMeters>
            <DistanceMeters>NAN</DistanceMeters>
          </Trackpoint>
          <Trackpoint>
            <Time>2022-07-04T17:07:36.000Z</Time>
            <Position>
              <LatitudeDegrees>44.59857850335538387298583984375</LatitudeDegrees>
              <LongitudeDegrees>-1.1945273168385028839111328125</LongitudeDegrees>
            </Position>
            <AltitudeMeters>35.40000152587890625</AltitudeMeters>
            <DistanceMeters>NAN</DistanceMeters>
          </Trackpoint>
          <Trackpoint>
            <Time>2022-07-04T17:07:43.000Z</Time>
            <Position>
              <LatitudeDegrees>44.5985489152371883392333984375</LatitudeDegrees>
              <LongitudeDegrees>-1.19478573091328144073486328125</LongitudeDegrees>
            </Position>
            <AltitudeMeters>36.200000762939453125</AltitudeMeters>
            <DistanceMeters>NAN</DistanceMeters>
          </Trackpoint>
          <Trackpoint>
            <Time>2022-07-04T17:07:47.000Z</Time>
            <Position>
              <LatitudeDegrees>44.5985103584825992584228515625</LatitudeDegrees>
              <LongitudeDegrees>-1.194910705089569091796875</LongitudeDegrees>
            </Position>
            <AltitudeMeters>36.40000152587890625</AltitudeMeters>
            <DistanceMeters>NAN</DistanceMeters>
          </Trackpoint>
          <Trackpoint>
            <Time>2022-07-04T17:07:50.000Z</Time>
            <Position>
              <LatitudeDegrees>44.5984701253473758697509765625</LatitudeDegrees>
              <LongitudeDegrees>-1.1950131319463253021240234375</LongitudeDegrees>
            </Position>
            <AltitudeMeters>36.59999847412109375</AltitudeMeters>
            <DistanceMeters>NAN</DistanceMeters>
          </Trackpoint>
          <Trackpoint>
            <Time>2022-07-04T17:07:56.000Z</Time>
            <Position>
              <LatitudeDegrees>44.59843098185956478118896484375</LatitudeDegrees>
              <LongitudeDegrees>-1.19525025598704814910888671875</LongitudeDegrees>
            </Position>
            <AltitudeMeters>36.59999847412109375</AltitudeMeters>
            <DistanceMeters>NAN</DistanceMeters>
          </Trackpoint>
          <Trackpoint>
            <Time>2022-07-04T17:08:03.000Z</Time>
            <Position>
              <LatitudeDegrees>44.598378427326679229736328125</LatitudeDegrees>
              <LongitudeDegrees>-1.19553239084780216217041015625</LongitudeDegrees>
            </Position>
            <AltitudeMeters>37.200000762939453125</AltitudeMeters>
            <DistanceMeters>NAN</DistanceMeters>
          </Trackpoint>
          <Trackpoint>
            <Time>2022-07-04T17:08:07.000Z</Time>
            <Position>
              <LatitudeDegrees>44.598329477012157440185546875</LatitudeDegrees>
              <LongitudeDegrees>-1.19567270390689373016357421875</LongitudeDegrees>
            </Position>
            <AltitudeMeters>37.40000152587890625</AltitudeMeters>
            <DistanceMeters>NAN</DistanceMeters>
          </Trackpoint>
          <Trackpoint>
            <Time>2022-07-04T17:08:09.000Z</Time>
            <Position>
              <LatitudeDegrees>44.598312042653560638427734375</LatitudeDegrees>
              <LongitudeDegrees>-1.1957440339028835296630859375</LongitudeDegrees>
            </Position>
            <AltitudeMeters>37.59999847412109375</AltitudeMeters>
            <DistanceMeters>NAN</DistanceMeters>
          </Trackpoint>
          <Trackpoint>
            <Time>2022-07-04T17:08:16.000Z</Time>
            <Position>
              <LatitudeDegrees>44.5982649363577365875244140625</LatitudeDegrees>
              <LongitudeDegrees>-1.196028850972652435302734375</LongitudeDegrees>
            </Position>
            <AltitudeMeters>37.59999847412109375</AltitudeMeters>
            <DistanceMeters>NAN</DistanceMeters>
          </Trackpoint>
          <Trackpoint>
            <Time>2022-07-04T17:08:23.000Z</Time>
            <Position>
              <LatitudeDegrees>44.59809469990432262420654296875</LatitudeDegrees>
              <LongitudeDegrees>-1.19618047960102558135986328125</LongitudeDegrees>
            </Position>
            <AltitudeMeters>38</AltitudeMeters>
            <DistanceMeters>NAN</DistanceMeters>
          </Trackpoint>
          <Trackpoint>
            <Time>2022-07-04T17:08:30.000Z</Time>
            <Position>
              <LatitudeDegrees>44.597955979406833648681640625</LatitudeDegrees>
              <LongitudeDegrees>-1.19636136107146739959716796875</LongitudeDegrees>
            </Position>
            <AltitudeMeters>38</AltitudeMeters>
            <DistanceMeters>NAN</DistanceMeters>
          </Trackpoint>
          <Trackpoint>
            <Time>2022-07-04T17:08:31.000Z</Time>
            <Position>
              <LatitudeDegrees>44.59793753921985626220703125</LatitudeDegrees>
              <LongitudeDegrees>-1.19637795723974704742431640625</LongitudeDegrees>
            </Position>
            <AltitudeMeters>38</AltitudeMeters>
            <DistanceMeters>NAN</DistanceMeters>
          </Trackpoint>
          <Trackpoint>
            <Time>2022-07-04T17:08:32.000Z</Time>
            <Position>
              <LatitudeDegrees>44.59791650064289569854736328125</LatitudeDegrees>
              <LongitudeDegrees>-1.19638600386679172515869140625</LongitudeDegrees>
            </Position>
            <AltitudeMeters>38.200000762939453125</AltitudeMeters>
            <DistanceMeters>NAN</DistanceMeters>
          </Trackpoint>
          <Trackpoint>
            <Time>2022-07-04T17:08:36.000Z</Time>
            <Position>
              <LatitudeDegrees>44.59781507961452007293701171875</LatitudeDegrees>
              <LongitudeDegrees>-1.1963823996484279632568359375</LongitudeDegrees>
            </Position>
            <AltitudeMeters>38.200000762939453125</AltitudeMeters>
            <DistanceMeters>NAN</DistanceMeters>
          </Trackpoint>
          <Trackpoint>
            <Time>2022-07-04T17:08:44.000Z</Time>
            <Position>
              <LatitudeDegrees>44.597593210637569427490234375</LatitudeDegrees>
              <LongitudeDegrees>-1.196326576173305511474609375</LongitudeDegrees>
            </Position>
            <AltitudeMeters>38.200000762939453125</AltitudeMeters>
            <DistanceMeters>NAN</DistanceMeters>
          </Trackpoint>
          <Trackpoint>
            <Time>2022-07-04T17:08:51.000Z</Time>
            <Position>
              <LatitudeDegrees>44.59740051068365573883056640625</LatitudeDegrees>
              <LongitudeDegrees>-1.19625113904476165771484375</LongitudeDegrees>
            </Position>
            <AltitudeMeters>38.200000762939453125</AltitudeMeters>
            <DistanceMeters>NAN</DistanceMeters>
          </Trackpoint>
          <Trackpoint>
            <Time>2022-07-04T17:08:58.000Z</Time>
            <Position>
              <LatitudeDegrees>44.5971840061247348785400390625</LatitudeDegrees>
              <LongitudeDegrees>-1.1961862631142139434814453125</LongitudeDegrees>
            </Position>
            <AltitudeMeters>38.200000762939453125</AltitudeMeters>
            <DistanceMeters>NAN</DistanceMeters>
          </Trackpoint>
          <Trackpoint>
            <Time>2022-07-04T17:09:02.000Z</Time>
            <Position>
              <LatitudeDegrees>44.59706389345228672027587890625</LatitudeDegrees>
              <LongitudeDegrees>-1.19614477269351482391357421875</LongitudeDegrees>
            </Position>
            <AltitudeMeters>38.40000152587890625</AltitudeMeters>
            <DistanceMeters>NAN</DistanceMeters>
          </Trackpoint>
          <Trackpoint>
            <Time>2022-07-04T17:09:04.000Z</Time>
            <Position>
              <LatitudeDegrees>44.597015865147113800048828125</LatitudeDegrees>
              <LongitudeDegrees>-1.1961312778294086456298828125</LongitudeDegrees>
            </Position>
            <AltitudeMeters>38.40000152587890625</AltitudeMeters>
            <DistanceMeters>NAN</DistanceMeters>
          </Trackpoint>
          <Trackpoint>
            <Time>2022-07-04T17:09:07.000Z</Time>
            <Position>
              <LatitudeDegrees>44.59692366421222686767578125</LatitudeDegrees>
              <LongitudeDegrees>-1.19608752429485321044921875</LongitudeDegrees>
            </Position>
            <AltitudeMeters>38.40000152587890625</AltitudeMeters>
            <DistanceMeters>NAN</DistanceMeters>
          </Trackpoint>
          <Trackpoint>
            <Time>2022-07-04T17:09:11.000Z</Time>
            <Position>
              <LatitudeDegrees>44.59681243635714054107666015625</LatitudeDegrees>
              <LongitudeDegrees>-1.1960638873279094696044921875</LongitudeDegrees>
            </Position>
            <AltitudeMeters>38.59999847412109375</AltitudeMeters>
            <DistanceMeters>NAN</DistanceMeters>
          </Trackpoint>
          <Trackpoint>
            <Time>2022-07-04T17:09:19.000Z</Time>
            <Position>
              <LatitudeDegrees>44.59658931009471416473388671875</LatitudeDegrees>
              <LongitudeDegrees>-1.1959969997406005859375</LongitudeDegrees>
            </Position>
            <AltitudeMeters>38.40000152587890625</AltitudeMeters>
            <DistanceMeters>NAN</DistanceMeters>
          </Trackpoint>
          <Trackpoint>
            <Time>2022-07-04T17:09:28.000Z</Time>
            <Position>
              <LatitudeDegrees>44.59630130790174007415771484375</LatitudeDegrees>
              <LongitudeDegrees>-1.1959073133766651153564453125</LongitudeDegrees>
            </Position>
            <AltitudeMeters>38.40000152587890625</AltitudeMeters>
            <DistanceMeters>NAN</DistanceMeters>
          </Trackpoint>
          <Trackpoint>
            <Time>2022-07-04T17:09:32.000Z</Time>
            <Position>
              <LatitudeDegrees>44.5961761660873889923095703125</LatitudeDegrees>
              <LongitudeDegrees>-1.1958749592304229736328125</LongitudeDegrees>
            </Position>
            <AltitudeMeters>38.40000152587890625</AltitudeMeters>
            <DistanceMeters>NAN</DistanceMeters>
          </Trackpoint>
          <Trackpoint>
            <Time>2022-07-04T17:09:36.000Z</Time>
            <Position>
              <LatitudeDegrees>44.59608840756118297576904296875</LatitudeDegrees>
              <LongitudeDegrees>-1.19585408829152584075927734375</LongitudeDegrees>
            </Position>
            <AltitudeMeters>38.200000762939453125</AltitudeMeters>
            <DistanceMeters>NAN</DistanceMeters>
          </Trackpoint>
          <Trackpoint>
            <Time>2022-07-04T17:09:40.000Z</Time>
            <Position>
              <LatitudeDegrees>44.59607214666903018951416015625</LatitudeDegrees>
              <LongitudeDegrees>-1.19584050960838794708251953125</LongitudeDegrees>
            </Position>
            <AltitudeMeters>38</AltitudeMeters>
            <DistanceMeters>NAN</DistanceMeters>
          </Trackpoint>
          <Trackpoint>
            <Time>2022-07-04T17:09:44.000Z</Time>
            <Position>
              <LatitudeDegrees>44.5960735715925693511962890625</LatitudeDegrees>
              <LongitudeDegrees>-1.19584210216999053955078125</LongitudeDegrees>
            </Position>
            <AltitudeMeters>38</AltitudeMeters>
            <DistanceMeters>NAN</DistanceMeters>
          </Trackpoint>
          <Trackpoint>
            <Time>2022-07-04T17:11:17.000Z</Time>
            <Position>
              <LatitudeDegrees>44.596107266843318939208984375</LatitudeDegrees>
              <LongitudeDegrees>-1.195863224565982818603515625</LongitudeDegrees>
            </Position>
            <AltitudeMeters>37.40000152587890625</AltitudeMeters>
            <DistanceMeters>NAN</DistanceMeters>
          </Trackpoint>
          <Trackpoint>
            <Time>2022-07-04T17:11:18.000Z</Time>
            <Position>
              <LatitudeDegrees>44.5961184985935688018798828125</LatitudeDegrees>
              <LongitudeDegrees>-1.19586800225079059600830078125</LongitudeDegrees>
            </Position>
            <AltitudeMeters>37.40000152587890625</AltitudeMeters>
            <DistanceMeters>NAN</DistanceMeters>
          </Trackpoint>
          <Trackpoint>
            <Time>2022-07-04T17:11:21.000Z</Time>
            <Position>
              <LatitudeDegrees>44.59612629376351833343505859375</LatitudeDegrees>
              <LongitudeDegrees>-1.19586850516498088836669921875</LongitudeDegrees>
            </Position>
            <AltitudeMeters>37.59999847412109375</AltitudeMeters>
            <DistanceMeters>NAN</DistanceMeters>
          </Trackpoint>
          <Trackpoint>
            <Time>2022-07-04T17:11:24.000Z</Time>
            <Position>
              <LatitudeDegrees>44.59617289714515209197998046875</LatitudeDegrees>
              <LongitudeDegrees>-1.19588962756097316741943359375</LongitudeDegrees>
            </Position>
            <AltitudeMeters>38</AltitudeMeters>
            <DistanceMeters>NAN</DistanceMeters>
          </Trackpoint>
          <Trackpoint>
            <Time>2022-07-04T17:11:25.000Z</Time>
            <Position>
              <LatitudeDegrees>44.5961987972259521484375</LatitudeDegrees>
              <LongitudeDegrees>-1.1958996020257472991943359375</LongitudeDegrees>
            </Position>
            <AltitudeMeters>38.200000762939453125</AltitudeMeters>
            <DistanceMeters>NAN</DistanceMeters>
          </Trackpoint>
          <Trackpoint>
            <Time>2022-07-04T17:11:30.000Z</Time>
            <Position>
              <LatitudeDegrees>44.59639233537018299102783203125</LatitudeDegrees>
              <LongitudeDegrees>-1.1959686689078807830810546875</LongitudeDegrees>
            </Position>
            <AltitudeMeters>38.40000152587890625</AltitudeMeters>
            <DistanceMeters>NAN</DistanceMeters>
          </Trackpoint>
          <Trackpoint>
            <Time>2022-07-04T17:11:35.000Z</Time>
            <Position>
              <LatitudeDegrees>44.5965617336332798004150390625</LatitudeDegrees>
              <LongitudeDegrees>-1.196008734405040740966796875</LongitudeDegrees>
            </Position>
            <AltitudeMeters>38.799999237060546875</AltitudeMeters>
            <DistanceMeters>NAN</DistanceMeters>
          </Trackpoint>
          <Trackpoint>
            <Time>2022-07-04T17:11:43.000Z</Time>
            <Position>
              <LatitudeDegrees>44.596861302852630615234375</LatitudeDegrees>
              <LongitudeDegrees>-1.196110658347606658935546875</LongitudeDegrees>
            </Position>
            <AltitudeMeters>39</AltitudeMeters>
            <DistanceMeters>NAN</DistanceMeters>
          </Trackpoint>
          <Trackpoint>
            <Time>2022-07-04T17:11:51.000Z</Time>
            <Position>
              <LatitudeDegrees>44.59715441800653934478759765625</LatitudeDegrees>
              <LongitudeDegrees>-1.1962020210921764373779296875</LongitudeDegrees>
            </Position>
            <AltitudeMeters>39</AltitudeMeters>
            <DistanceMeters>NAN</DistanceMeters>
          </Trackpoint>
          <Trackpoint>
            <Time>2022-07-04T17:12:00.000Z</Time>
            <Position>
              <LatitudeDegrees>44.59747829474508762359619140625</LatitudeDegrees>
              <LongitudeDegrees>-1.196298412978649139404296875</LongitudeDegrees>
            </Position>
            <AltitudeMeters>38.799999237060546875</AltitudeMeters>
            <DistanceMeters>NAN</DistanceMeters>
          </Trackpoint>
          <Trackpoint>
            <Time>2022-07-04T17:12:08.000Z</Time>
            <Position>
              <LatitudeDegrees>44.59779362194240093231201171875</LatitudeDegrees>
              <LongitudeDegrees>-1.196401678025722503662109375</LongitudeDegrees>
            </Position>
            <AltitudeMeters>38.200000762939453125</AltitudeMeters>
            <DistanceMeters>NAN</DistanceMeters>
          </Trackpoint>
          <Trackpoint>
            <Time>2022-07-04T17:12:12.000Z</Time>
            <Position>
              <LatitudeDegrees>44.5979301631450653076171875</LatitudeDegrees>
              <LongitudeDegrees>-1.1964410729706287384033203125</LongitudeDegrees>
            </Position>
            <AltitudeMeters>37.59999847412109375</AltitudeMeters>
            <DistanceMeters>NAN</DistanceMeters>
          </Trackpoint>
          <Trackpoint>
            <Time>2022-07-04T17:12:14.000Z</Time>
            <Position>
              <LatitudeDegrees>44.59794499911367893218994140625</LatitudeDegrees>
              <LongitudeDegrees>-1.19647619314491748809814453125</LongitudeDegrees>
            </Position>
            <AltitudeMeters>37.59999847412109375</AltitudeMeters>
            <DistanceMeters>NAN</DistanceMeters>
          </Trackpoint>
          <Trackpoint>
            <Time>2022-07-04T17:12:18.000Z</Time>
            <Position>
              <LatitudeDegrees>44.59791071712970733642578125</LatitudeDegrees>
              <LongitudeDegrees>-1.1965963058173656463623046875</LongitudeDegrees>
            </Position>
            <AltitudeMeters>38</AltitudeMeters>
            <DistanceMeters>NAN</DistanceMeters>
          </Trackpoint>
          <Trackpoint>
            <Time>2022-07-04T17:12:21.000Z</Time>
            <Position>
              <LatitudeDegrees>44.59790023975074291229248046875</LatitudeDegrees>
              <LongitudeDegrees>-1.19672589004039764404296875</LongitudeDegrees>
            </Position>
            <AltitudeMeters>38.200000762939453125</AltitudeMeters>
            <DistanceMeters>NAN</DistanceMeters>
          </Trackpoint>
          <Trackpoint>
            <Time>2022-07-04T17:12:23.000Z</Time>
            <Position>
              <LatitudeDegrees>44.59793888032436370849609375</LatitudeDegrees>
              <LongitudeDegrees>-1.19679302908480167388916015625</LongitudeDegrees>
            </Position>
            <AltitudeMeters>38.200000762939453125</AltitudeMeters>
            <DistanceMeters>NAN</DistanceMeters>
          </Trackpoint>
          <Trackpoint>
            <Time>2022-07-04T17:12:29.000Z</Time>
            <Position>
              <LatitudeDegrees>44.598069973289966583251953125</LatitudeDegrees>
              <LongitudeDegrees>-1.19699654169380664825439453125</LongitudeDegrees>
            </Position>
            <AltitudeMeters>38.200000762939453125</AltitudeMeters>
            <DistanceMeters>NAN</DistanceMeters>
          </Trackpoint>
          <Trackpoint>
            <Time>2022-07-04T17:12:33.000Z</Time>
            <Position>
              <LatitudeDegrees>44.59808732382953166961669921875</LatitudeDegrees>
              <LongitudeDegrees>-1.197126209735870361328125</LongitudeDegrees>
            </Position>
            <AltitudeMeters>38.200000762939453125</AltitudeMeters>
            <DistanceMeters>NAN</DistanceMeters>
          </Trackpoint>
          <Trackpoint>
            <Time>2022-07-04T17:12:34.000Z</Time>
            <Position>
              <LatitudeDegrees>44.59808564744889736175537109375</LatitudeDegrees>
              <LongitudeDegrees>-1.197136938571929931640625</LongitudeDegrees>
            </Position>
            <AltitudeMeters>38.200000762939453125</AltitudeMeters>
            <DistanceMeters>NAN</DistanceMeters>
          </Trackpoint>
          <Trackpoint>
            <Time>2022-07-04T17:12:36.000Z</Time>
            <Position>
              <LatitudeDegrees>44.59808564744889736175537109375</LatitudeDegrees>
              <LongitudeDegrees>-1.197136938571929931640625</LongitudeDegrees>
            </Position>
            <AltitudeMeters>38.200000762939453125</AltitudeMeters>
            <DistanceMeters>NAN</DistanceMeters>
          </Trackpoint>
          <Trackpoint>
            <Time>2022-07-04T17:12:56.000Z</Time>
            <Position>
              <LatitudeDegrees>44.59802244789898395538330078125</LatitudeDegrees>
              <LongitudeDegrees>-1.19717407040297985076904296875</LongitudeDegrees>
            </Position>
            <AltitudeMeters>38</AltitudeMeters>
            <DistanceMeters>NAN</DistanceMeters>
          </Trackpoint>
          <Trackpoint>
            <Time>2022-07-04T17:12:57.000Z</Time>
            <Position>
              <LatitudeDegrees>44.59800685755908489227294921875</LatitudeDegrees>
              <LongitudeDegrees>-1.1971887387335300445556640625</LongitudeDegrees>
            </Position>
            <AltitudeMeters>38</AltitudeMeters>
            <DistanceMeters>NAN</DistanceMeters>
          </Trackpoint>
          <Trackpoint>
            <Time>2022-07-04T17:12:58.000Z</Time>
            <Position>
              <LatitudeDegrees>44.59799654781818389892578125</LatitudeDegrees>
              <LongitudeDegrees>-1.197207681834697723388671875</LongitudeDegrees>
            </Position>
            <AltitudeMeters>38</AltitudeMeters>
            <DistanceMeters>NAN</DistanceMeters>
          </Trackpoint>
          <Trackpoint>
            <Time>2022-07-04T17:13:02.000Z</Time>
            <Position>
              <LatitudeDegrees>44.59793745540082454681396484375</LatitudeDegrees>
              <LongitudeDegrees>-1.19730834849178791046142578125</LongitudeDegrees>
            </Position>
            <AltitudeMeters>38.40000152587890625</AltitudeMeters>
            <DistanceMeters>NAN</DistanceMeters>
          </Trackpoint>
          <Trackpoint>
            <Time>2022-07-04T17:13:06.000Z</Time>
            <Position>
              <LatitudeDegrees>44.59789705462753772735595703125</LatitudeDegrees>
              <LongitudeDegrees>-1.19741748087108135223388671875</LongitudeDegrees>
            </Position>
            <AltitudeMeters>38.40000152587890625</AltitudeMeters>
            <DistanceMeters>NAN</DistanceMeters>
          </Trackpoint>
          <Trackpoint>
            <Time>2022-07-04T17:13:07.000Z</Time>
            <Position>
              <LatitudeDegrees>44.59789705462753772735595703125</LatitudeDegrees>
              <LongitudeDegrees>-1.197459138929843902587890625</LongitudeDegrees>
            </Position>
            <AltitudeMeters>38.40000152587890625</AltitudeMeters>
            <DistanceMeters>NAN</DistanceMeters>
          </Trackpoint>
          <Trackpoint>
            <Time>2022-07-04T17:13:12.000Z</Time>
            <Position>
              <LatitudeDegrees>44.59789403714239597320556640625</LatitudeDegrees>
              <LongitudeDegrees>-1.1976396851241588592529296875</LongitudeDegrees>
            </Position>
            <AltitudeMeters>38.799999237060546875</AltitudeMeters>
            <DistanceMeters>NAN</DistanceMeters>
          </Trackpoint>
          <Trackpoint>
            <Time>2022-07-04T17:13:14.000Z</Time>
            <Position>
              <LatitudeDegrees>44.59787660278379917144775390625</LatitudeDegrees>
              <LongitudeDegrees>-1.1977069079875946044921875</LongitudeDegrees>
            </Position>
            <AltitudeMeters>38.799999237060546875</AltitudeMeters>
            <DistanceMeters>NAN</DistanceMeters>
          </Trackpoint>
          <Trackpoint>
            <Time>2022-07-04T17:13:17.000Z</Time>
            <Position>
              <LatitudeDegrees>44.59784072823822498321533203125</LatitudeDegrees>
              <LongitudeDegrees>-1.1977969296276569366455078125</LongitudeDegrees>
            </Position>
            <AltitudeMeters>38.799999237060546875</AltitudeMeters>
            <DistanceMeters>NAN</DistanceMeters>
          </Trackpoint>
          <Trackpoint>
            <Time>2022-07-04T17:13:18.000Z</Time>
            <Position>
              <LatitudeDegrees>44.59783435799181461334228515625</LatitudeDegrees>
              <LongitudeDegrees>-1.19782987050712108612060546875</LongitudeDegrees>
            </Position>
            <AltitudeMeters>38.799999237060546875</AltitudeMeters>
            <DistanceMeters>NAN</DistanceMeters>
          </Trackpoint>
          <Trackpoint>
            <Time>2022-07-04T17:13:24.000Z</Time>
            <Position>
              <LatitudeDegrees>44.59775908850133419036865234375</LatitudeDegrees>
              <LongitudeDegrees>-1.19807110168039798736572265625</LongitudeDegrees>
            </Position>
            <AltitudeMeters>38.799999237060546875</AltitudeMeters>
            <DistanceMeters>NAN</DistanceMeters>
          </Trackpoint>
          <Trackpoint>
            <Time>2022-07-04T17:13:27.000Z</Time>
            <Position>
              <LatitudeDegrees>44.59771667607128620147705078125</LatitudeDegrees>
              <LongitudeDegrees>-1.198186688125133514404296875</LongitudeDegrees>
            </Position>
            <AltitudeMeters>38.799999237060546875</AltitudeMeters>
            <DistanceMeters>NAN</DistanceMeters>
          </Trackpoint>
          <Trackpoint>
            <Time>2022-07-04T17:13:29.000Z</Time>
            <Position>
              <LatitudeDegrees>44.5976828970015048980712890625</LatitudeDegrees>
              <LongitudeDegrees>-1.19825332425534725189208984375</LongitudeDegrees>
            </Position>
            <AltitudeMeters>38.799999237060546875</AltitudeMeters>
            <DistanceMeters>NAN</DistanceMeters>
          </Trackpoint>
          <Trackpoint>
            <Time>2022-07-04T17:13:31.000Z</Time>
            <Position>
              <LatitudeDegrees>44.5977056957781314849853515625</LatitudeDegrees>
              <LongitudeDegrees>-1.198332197964191436767578125</LongitudeDegrees>
            </Position>
            <AltitudeMeters>39</AltitudeMeters>
            <DistanceMeters>NAN</DistanceMeters>
          </Trackpoint>
          <Trackpoint>
            <Time>2022-07-04T17:13:32.000Z</Time>
            <Position>
              <LatitudeDegrees>44.597701840102672576904296875</LatitudeDegrees>
              <LongitudeDegrees>-1.19836061261594295501708984375</LongitudeDegrees>
            </Position>
            <AltitudeMeters>39</AltitudeMeters>
            <DistanceMeters>NAN</DistanceMeters>
          </Trackpoint>
          <Trackpoint>
            <Time>2022-07-04T17:13:33.000Z</Time>
            <Position>
              <LatitudeDegrees>44.59769614040851593017578125</LatitudeDegrees>
              <LongitudeDegrees>-1.1983964033424854278564453125</LongitudeDegrees>
            </Position>
            <AltitudeMeters>39</AltitudeMeters>
            <DistanceMeters>NAN</DistanceMeters>
          </Trackpoint>
          <Trackpoint>
            <Time>2022-07-04T17:13:35.000Z</Time>
            <Position>
              <LatitudeDegrees>44.59769345819950103759765625</LatitudeDegrees>
              <LongitudeDegrees>-1.198466308414936065673828125</LongitudeDegrees>
            </Position>
            <AltitudeMeters>39</AltitudeMeters>
            <DistanceMeters>NAN</DistanceMeters>
          </Trackpoint>
          <Trackpoint>
            <Time>2022-07-04T17:13:37.000Z</Time>
            <Position>
              <LatitudeDegrees>44.5976795442402362823486328125</LatitudeDegrees>
              <LongitudeDegrees>-1.198519952595233917236328125</LongitudeDegrees>
            </Position>
            <AltitudeMeters>39.200000762939453125</AltitudeMeters>
            <DistanceMeters>NAN</DistanceMeters>
          </Trackpoint>
          <Trackpoint>
            <Time>2022-07-04T17:13:41.000Z</Time>
            <Position>
              <LatitudeDegrees>44.59763838909566402435302734375</LatitudeDegrees>
              <LongitudeDegrees>-1.19865347631275653839111328125</LongitudeDegrees>
            </Position>
            <AltitudeMeters>39.40000152587890625</AltitudeMeters>
            <DistanceMeters>NAN</DistanceMeters>
          </Trackpoint>
          <Trackpoint>
            <Time>2022-07-04T17:13:42.000Z</Time>
            <Position>
              <LatitudeDegrees>44.5976088009774684906005859375</LatitudeDegrees>
              <LongitudeDegrees>-1.19867795147001743316650390625</LongitudeDegrees>
            </Position>
            <AltitudeMeters>39.40000152587890625</AltitudeMeters>
            <DistanceMeters>NAN</DistanceMeters>
          </Trackpoint>
          <Trackpoint>
            <Time>2022-07-04T17:13:43.000Z</Time>
            <Position>
              <LatitudeDegrees>44.5975829847157001495361328125</LatitudeDegrees>
              <LongitudeDegrees>-1.1986890994012355804443359375</LongitudeDegrees>
            </Position>
            <AltitudeMeters>39.40000152587890625</AltitudeMeters>
            <DistanceMeters>NAN</DistanceMeters>
          </Trackpoint>
          <Trackpoint>
            <Time>2022-07-04T17:13:45.000Z</Time>
            <Position>
              <LatitudeDegrees>44.59752774797379970550537109375</LatitudeDegrees>
              <LongitudeDegrees>-1.19870276190340518951416015625</LongitudeDegrees>
            </Position>
            <AltitudeMeters>39.40000152587890625</AltitudeMeters>
            <DistanceMeters>NAN</DistanceMeters>
          </Trackpoint>
          <Trackpoint>
            <Time>2022-07-04T17:13:49.000Z</Time>
            <Position>
              <LatitudeDegrees>44.5975546538829803466796875</LatitudeDegrees>
              <LongitudeDegrees>-1.1988597549498081207275390625</LongitudeDegrees>
            </Position>
            <AltitudeMeters>39.40000152587890625</AltitudeMeters>
            <DistanceMeters>NAN</DistanceMeters>
          </Trackpoint>
          <Trackpoint>
            <Time>2022-07-04T17:13:51.000Z</Time>
            <Position>
              <LatitudeDegrees>44.597572423517704010009765625</LatitudeDegrees>
              <LongitudeDegrees>-1.19894684292376041412353515625</LongitudeDegrees>
            </Position>
            <AltitudeMeters>39.40000152587890625</AltitudeMeters>
            <DistanceMeters>NAN</DistanceMeters>
          </Trackpoint>
          <Trackpoint>
            <Time>2022-07-04T17:13:52.000Z</Time>
            <Position>
              <LatitudeDegrees>44.597565047442913055419921875</LatitudeDegrees>
              <LongitudeDegrees>-1.19897886179387569427490234375</LongitudeDegrees>
            </Position>
            <AltitudeMeters>39.40000152587890625</AltitudeMeters>
            <DistanceMeters>NAN</DistanceMeters>
          </Trackpoint>
          <Trackpoint>
            <Time>2022-07-04T17:13:54.000Z</Time>
            <Position>
              <LatitudeDegrees>44.59753495641052722930908203125</LatitudeDegrees>
              <LongitudeDegrees>-1.19902320206165313720703125</LongitudeDegrees>
            </Position>
            <AltitudeMeters>39.40000152587890625</AltitudeMeters>
            <DistanceMeters>NAN</DistanceMeters>
          </Trackpoint>
          <Trackpoint>
            <Time>2022-07-04T17:13:55.000Z</Time>
            <Position>
              <LatitudeDegrees>44.59752992726862430572509765625</LatitudeDegrees>
              <LongitudeDegrees>-1.19905672967433929443359375</LongitudeDegrees>
            </Position>
            <AltitudeMeters>39.59999847412109375</AltitudeMeters>
            <DistanceMeters>NAN</DistanceMeters>
          </Trackpoint>
          <Trackpoint>
            <Time>2022-07-04T17:13:58.000Z</Time>
            <Position>
              <LatitudeDegrees>44.59753143601119518280029296875</LatitudeDegrees>
              <LongitudeDegrees>-1.1991685442626476287841796875</LongitudeDegrees>
            </Position>
            <AltitudeMeters>39.59999847412109375</AltitudeMeters>
            <DistanceMeters>NAN</DistanceMeters>
          </Trackpoint>
          <Trackpoint>
            <Time>2022-07-04T17:14:04.000Z</Time>
            <Position>
              <LatitudeDegrees>44.5975935459136962890625</LatitudeDegrees>
              <LongitudeDegrees>-1.19939493946731090545654296875</LongitudeDegrees>
            </Position>
            <AltitudeMeters>39.799999237060546875</AltitudeMeters>
            <DistanceMeters>NAN</DistanceMeters>
          </Trackpoint>
          <Trackpoint>
            <Time>2022-07-04T17:14:09.000Z</Time>
            <Position>
              <LatitudeDegrees>44.59759027697145938873291015625</LatitudeDegrees>
              <LongitudeDegrees>-1.1995866335928440093994140625</LongitudeDegrees>
            </Position>
            <AltitudeMeters>39.799999237060546875</AltitudeMeters>
            <DistanceMeters>NAN</DistanceMeters>
          </Trackpoint>
          <Trackpoint>
            <Time>2022-07-04T17:14:10.000Z</Time>
            <Position>
              <LatitudeDegrees>44.5976031012833118438720703125</LatitudeDegrees>
              <LongitudeDegrees>-1.19961387477815151214599609375</LongitudeDegrees>
            </Position>
            <AltitudeMeters>39.799999237060546875</AltitudeMeters>
            <DistanceMeters>NAN</DistanceMeters>
          </Trackpoint>
          <Trackpoint>
            <Time>2022-07-04T17:14:14.000Z</Time>
            <Position>
              <LatitudeDegrees>44.59769438020884990692138671875</LatitudeDegrees>
              <LongitudeDegrees>-1.19969853200018405914306640625</LongitudeDegrees>
            </Position>
            <AltitudeMeters>39.799999237060546875</AltitudeMeters>
            <DistanceMeters>NAN</DistanceMeters>
          </Trackpoint>
          <Trackpoint>
            <Time>2022-07-04T17:14:15.000Z</Time>
            <Position>
              <LatitudeDegrees>44.5977194420993328094482421875</LatitudeDegrees>
              <LongitudeDegrees>-1.1997078359127044677734375</LongitudeDegrees>
            </Position>
            <AltitudeMeters>39.799999237060546875</AltitudeMeters>
            <DistanceMeters>NAN</DistanceMeters>
          </Trackpoint>
          <Trackpoint>
            <Time>2022-07-04T17:14:20.000Z</Time>
            <Position>
              <LatitudeDegrees>44.5978324301540851593017578125</LatitudeDegrees>
              <LongitudeDegrees>-1.19974999688565731048583984375</LongitudeDegrees>
            </Position>
            <AltitudeMeters>39.59999847412109375</AltitudeMeters>
            <DistanceMeters>NAN</DistanceMeters>
          </Trackpoint>
          <Trackpoint>
            <Time>2022-07-04T17:14:22.000Z</Time>
            <Position>
              <LatitudeDegrees>44.59785765968263149261474609375</LatitudeDegrees>
              <LongitudeDegrees>-1.19976139627397060394287109375</LongitudeDegrees>
            </Position>
            <AltitudeMeters>39.59999847412109375</AltitudeMeters>
            <DistanceMeters>NAN</DistanceMeters>
          </Trackpoint>
          <Trackpoint>
            <Time>2022-07-04T17:14:24.000Z</Time>
            <Position>
              <LatitudeDegrees>44.597901999950408935546875</LatitudeDegrees>
              <LongitudeDegrees>-1.19978855364024639129638671875</LongitudeDegrees>
            </Position>
            <AltitudeMeters>39.59999847412109375</AltitudeMeters>
            <DistanceMeters>NAN</DistanceMeters>
          </Trackpoint>
          <Trackpoint>
            <Time>2022-07-04T17:14:30.000Z</Time>
            <Position>
              <LatitudeDegrees>44.59803854115307331085205078125</LatitudeDegrees>
              <LongitudeDegrees>-1.199853010475635528564453125</LongitudeDegrees>
            </Position>
            <AltitudeMeters>39.40000152587890625</AltitudeMeters>
            <DistanceMeters>NAN</DistanceMeters>
          </Trackpoint>
          <Trackpoint>
            <Time>2022-07-04T17:14:32.000Z</Time>
            <Position>
              <LatitudeDegrees>44.59806368686258792877197265625</LatitudeDegrees>
              <LongitudeDegrees>-1.1998756416141986846923828125</LongitudeDegrees>
            </Position>
            <AltitudeMeters>39.200000762939453125</AltitudeMeters>
            <DistanceMeters>NAN</DistanceMeters>
          </Trackpoint>
          <Trackpoint>
            <Time>2022-07-04T17:14:38.000Z</Time>
            <Position>
              <LatitudeDegrees>44.5982290618121623992919921875</LatitudeDegrees>
              <LongitudeDegrees>-1.19986365549266338348388671875</LongitudeDegrees>
            </Position>
            <AltitudeMeters>38.40000152587890625</AltitudeMeters>
            <DistanceMeters>NAN</DistanceMeters>
          </Trackpoint>
          <Trackpoint>
            <Time>2022-07-04T17:14:43.000Z</Time>
            <Position>
              <LatitudeDegrees>44.59836401045322418212890625</LatitudeDegrees>
              <LongitudeDegrees>-1.1998344026505947113037109375</LongitudeDegrees>
            </Position>
            <AltitudeMeters>37.59999847412109375</AltitudeMeters>
            <DistanceMeters>NAN</DistanceMeters>
          </Trackpoint>
          <Trackpoint>
            <Time>2022-07-04T17:14:45.000Z</Time>
            <Position>
              <LatitudeDegrees>44.5984174869954586029052734375</LatitudeDegrees>
              <LongitudeDegrees>-1.19982543401420116424560546875</LongitudeDegrees>
            </Position>
            <AltitudeMeters>37.200000762939453125</AltitudeMeters>
            <DistanceMeters>NAN</DistanceMeters>
          </Trackpoint>
          <Trackpoint>
            <Time>2022-07-04T17:14:48.000Z</Time>
            <Position>
              <LatitudeDegrees>44.59846601821482181549072265625</LatitudeDegrees>
              <LongitudeDegrees>-1.1998526751995086669921875</LongitudeDegrees>
            </Position>
            <AltitudeMeters>36.40000152587890625</AltitudeMeters>
            <DistanceMeters>NAN</DistanceMeters>
          </Trackpoint>
          <Trackpoint>
            <Time>2022-07-04T17:14:53.000Z</Time>
            <Position>
              <LatitudeDegrees>44.59850080311298370361328125</LatitudeDegrees>
              <LongitudeDegrees>-1.19999508373439311981201171875</LongitudeDegrees>
            </Position>
            <AltitudeMeters>36.40000152587890625</AltitudeMeters>
            <DistanceMeters>NAN</DistanceMeters>
          </Trackpoint>
          <Trackpoint>
            <Time>2022-07-04T17:14:59.000Z</Time>
            <Position>
              <LatitudeDegrees>44.59846249781548976898193359375</LatitudeDegrees>
              <LongitudeDegrees>-1.20015216059982776641845703125</LongitudeDegrees>
            </Position>
            <AltitudeMeters>36.59999847412109375</AltitudeMeters>
            <DistanceMeters>NAN</DistanceMeters>
          </Trackpoint>
          <Trackpoint>
            <Time>2022-07-04T17:15:00.000Z</Time>
            <Position>
              <LatitudeDegrees>44.59845629520714282989501953125</LatitudeDegrees>
              <LongitudeDegrees>-1.2001705169677734375</LongitudeDegrees>
            </Position>
            <AltitudeMeters>36.59999847412109375</AltitudeMeters>
            <DistanceMeters>NAN</DistanceMeters>
          </Trackpoint>
          <Trackpoint>
            <Time>2022-07-04T17:15:02.000Z</Time>
            <Position>
              <LatitudeDegrees>44.59844405762851238250732421875</LatitudeDegrees>
              <LongitudeDegrees>-1.2001995183527469635009765625</LongitudeDegrees>
            </Position>
            <AltitudeMeters>36.799999237060546875</AltitudeMeters>
            <DistanceMeters>NAN</DistanceMeters>
          </Trackpoint>
          <Trackpoint>
            <Time>2022-07-04T17:15:04.000Z</Time>
            <Position>
              <LatitudeDegrees>44.598420001566410064697265625</LatitudeDegrees>
              <LongitudeDegrees>-1.20020999573171138763427734375</LongitudeDegrees>
            </Position>
            <AltitudeMeters>36.799999237060546875</AltitudeMeters>
            <DistanceMeters>NAN</DistanceMeters>
          </Trackpoint>
          <Trackpoint>
            <Time>2022-07-04T17:15:07.000Z</Time>
            <Position>
              <LatitudeDegrees>44.59841455332934856414794921875</LatitudeDegrees>
              <LongitudeDegrees>-1.20020806789398193359375</LongitudeDegrees>
            </Position>
            <AltitudeMeters>37</AltitudeMeters>
            <DistanceMeters>NAN</DistanceMeters>
          </Trackpoint>
          <Trackpoint>
            <Time>2022-07-04T17:30:55.000Z</Time>
            <Position>
              <LatitudeDegrees>44.59836669266223907470703125</LatitudeDegrees>
              <LongitudeDegrees>-1.20031929574906826019287109375</LongitudeDegrees>
            </Position>
            <AltitudeMeters>34.799999237060546875</AltitudeMeters>
            <DistanceMeters>NAN</DistanceMeters>
          </Trackpoint>
          <Trackpoint>
            <Time>2022-07-04T17:30:56.000Z</Time>
            <Position>
              <LatitudeDegrees>44.5983581431210041046142578125</LatitudeDegrees>
              <LongitudeDegrees>-1.20033253915607929229736328125</LongitudeDegrees>
            </Position>
            <AltitudeMeters>34.799999237060546875</AltitudeMeters>
            <DistanceMeters>NAN</DistanceMeters>
          </Trackpoint>
          <Trackpoint>
            <Time>2022-07-04T17:30:58.000Z</Time>
            <Position>
              <LatitudeDegrees>44.598346240818500518798828125</LatitudeDegrees>
              <LongitudeDegrees>-1.20035533793270587921142578125</LongitudeDegrees>
            </Position>
            <AltitudeMeters>35.200000762939453125</AltitudeMeters>
            <DistanceMeters>NAN</DistanceMeters>
          </Trackpoint>
          <Trackpoint>
            <Time>2022-07-04T17:31:00.000Z</Time>
            <Position>
              <LatitudeDegrees>44.59834112785756587982177734375</LatitudeDegrees>
              <LongitudeDegrees>-1.20037897489964962005615234375</LongitudeDegrees>
            </Position>
            <AltitudeMeters>36</AltitudeMeters>
            <DistanceMeters>NAN</DistanceMeters>
          </Trackpoint>
          <Trackpoint>
            <Time>2022-07-04T17:31:02.000Z</Time>
            <Position>
              <LatitudeDegrees>44.5983376912772655487060546875</LatitudeDegrees>
              <LongitudeDegrees>-1.20040931738913059234619140625</LongitudeDegrees>
            </Position>
            <AltitudeMeters>36.59999847412109375</AltitudeMeters>
            <DistanceMeters>NAN</DistanceMeters>
          </Trackpoint>
          <Trackpoint>
            <Time>2022-07-04T17:31:03.000Z</Time>
            <Position>
              <LatitudeDegrees>44.59833341650664806365966796875</LatitudeDegrees>
              <LongitudeDegrees>-1.20043060742318630218505859375</LongitudeDegrees>
            </Position>
            <AltitudeMeters>36.59999847412109375</AltitudeMeters>
            <DistanceMeters>NAN</DistanceMeters>
          </Trackpoint>
          <Trackpoint>
            <Time>2022-07-04T17:31:06.000Z</Time>
            <Position>
              <LatitudeDegrees>44.59832738153636455535888671875</LatitudeDegrees>
              <LongitudeDegrees>-1.20045424439013004302978515625</LongitudeDegrees>
            </Position>
            <AltitudeMeters>37</AltitudeMeters>
            <DistanceMeters>NAN</DistanceMeters>
          </Trackpoint>
          <Trackpoint>
            <Time>2022-07-04T17:31:07.000Z</Time>
            <Position>
              <LatitudeDegrees>44.5983259566128253936767578125</LatitudeDegrees>
              <LongitudeDegrees>-1.20045525021851062774658203125</LongitudeDegrees>
            </Position>
            <AltitudeMeters>37</AltitudeMeters>
            <DistanceMeters>NAN</DistanceMeters>
          </Trackpoint>
          <Trackpoint>
            <Time>2022-07-04T17:31:08.000Z</Time>
            <Position>
              <LatitudeDegrees>44.59832453168928623199462890625</LatitudeDegrees>
              <LongitudeDegrees>-1.20046916417777538299560546875</LongitudeDegrees>
            </Position>
            <AltitudeMeters>37</AltitudeMeters>
            <DistanceMeters>NAN</DistanceMeters>
          </Trackpoint>
          <Trackpoint>
            <Time>2022-07-04T17:31:12.000Z</Time>
            <Position>
              <LatitudeDegrees>44.598320424556732177734375</LatitudeDegrees>
              <LongitudeDegrees>-1.2004937231540679931640625</LongitudeDegrees>
            </Position>
            <AltitudeMeters>37.200000762939453125</AltitudeMeters>
            <DistanceMeters>NAN</DistanceMeters>
          </Trackpoint>
          <Trackpoint>
            <Time>2022-07-04T17:31:19.000Z</Time>
            <Position>
              <LatitudeDegrees>44.5983162336051464080810546875</LatitudeDegrees>
              <LongitudeDegrees>-1.2005870975553989410400390625</LongitudeDegrees>
            </Position>
            <AltitudeMeters>37</AltitudeMeters>
            <DistanceMeters>NAN</DistanceMeters>
          </Trackpoint>
          <Trackpoint>
            <Time>2022-07-04T17:31:25.000Z</Time>
            <Position>
              <LatitudeDegrees>44.59829502739012241363525390625</LatitudeDegrees>
              <LongitudeDegrees>-1.20068105868995189666748046875</LongitudeDegrees>
            </Position>
            <AltitudeMeters>37</AltitudeMeters>
            <DistanceMeters>NAN</DistanceMeters>
          </Trackpoint>
          <Trackpoint>
            <Time>2022-07-04T17:31:26.000Z</Time>
            <Position>
              <LatitudeDegrees>44.59829418919980525970458984375</LatitudeDegrees>
              <LongitudeDegrees>-1.2006910331547260284423828125</LongitudeDegrees>
            </Position>
            <AltitudeMeters>37</AltitudeMeters>
            <DistanceMeters>NAN</DistanceMeters>
          </Trackpoint>
          <Trackpoint>
            <Time>2022-07-04T17:31:38.000Z</Time>
            <Position>
              <LatitudeDegrees>44.59829469211399555206298828125</LatitudeDegrees>
              <LongitudeDegrees>-1.200898401439189910888671875</LongitudeDegrees>
            </Position>
            <AltitudeMeters>37.59999847412109375</AltitudeMeters>
            <DistanceMeters>NAN</DistanceMeters>
          </Trackpoint>
          <Trackpoint>
            <Time>2022-07-04T17:31:47.000Z</Time>
            <Position>
              <LatitudeDegrees>44.59831329993903636932373046875</LatitudeDegrees>
              <LongitudeDegrees>-1.20117961429059505462646484375</LongitudeDegrees>
            </Position>
            <AltitudeMeters>38</AltitudeMeters>
            <DistanceMeters>NAN</DistanceMeters>
          </Trackpoint>
          <Trackpoint>
            <Time>2022-07-04T17:31:48.000Z</Time>
            <Position>
              <LatitudeDegrees>44.59830374456942081451416015625</LatitudeDegrees>
              <LongitudeDegrees>-1.201189421117305755615234375</LongitudeDegrees>
            </Position>
            <AltitudeMeters>38</AltitudeMeters>
            <DistanceMeters>NAN</DistanceMeters>
          </Trackpoint>
          <Trackpoint>
            <Time>2022-07-04T17:31:50.000Z</Time>
            <Position>
              <LatitudeDegrees>44.59829452447593212127685546875</LatitudeDegrees>
              <LongitudeDegrees>-1.201202161610126495361328125</LongitudeDegrees>
            </Position>
            <AltitudeMeters>38.40000152587890625</AltitudeMeters>
            <DistanceMeters>NAN</DistanceMeters>
          </Trackpoint>
          <Trackpoint>
            <Time>2022-07-04T17:31:53.000Z</Time>
            <Position>
              <LatitudeDegrees>44.5982880704104900360107421875</LatitudeDegrees>
              <LongitudeDegrees>-1.20120660401880741119384765625</LongitudeDegrees>
            </Position>
            <AltitudeMeters>38.59999847412109375</AltitudeMeters>
            <DistanceMeters>NAN</DistanceMeters>
          </Trackpoint>
          <Trackpoint>
            <Time>2022-07-04T17:31:54.000Z</Time>
            <Position>
              <LatitudeDegrees>44.5982890762388706207275390625</LatitudeDegrees>
              <LongitudeDegrees>-1.201213560998439788818359375</LongitudeDegrees>
            </Position>
            <AltitudeMeters>38.799999237060546875</AltitudeMeters>
            <DistanceMeters>NAN</DistanceMeters>
          </Trackpoint>
          <Trackpoint>
            <Time>2022-07-04T17:32:01.000Z</Time>
            <Position>
              <LatitudeDegrees>44.59829754196107387542724609375</LatitudeDegrees>
              <LongitudeDegrees>-1.20126225985586643218994140625</LongitudeDegrees>
            </Position>
            <AltitudeMeters>39</AltitudeMeters>
            <DistanceMeters>NAN</DistanceMeters>
          </Trackpoint>
          <Trackpoint>
            <Time>2022-07-04T17:32:04.000Z</Time>
            <Position>
              <LatitudeDegrees>44.59830190055072307586669921875</LatitudeDegrees>
              <LongitudeDegrees>-1.20130165480077266693115234375</LongitudeDegrees>
            </Position>
            <AltitudeMeters>39</AltitudeMeters>
            <DistanceMeters>NAN</DistanceMeters>
          </Trackpoint>
          <Trackpoint>
            <Time>2022-07-04T17:32:05.000Z</Time>
            <Position>
              <LatitudeDegrees>44.5983051694929599761962890625</LatitudeDegrees>
              <LongitudeDegrees>-1.20132696814835071563720703125</LongitudeDegrees>
            </Position>
            <AltitudeMeters>39</AltitudeMeters>
            <DistanceMeters>NAN</DistanceMeters>
          </Trackpoint>
          <Trackpoint>
            <Time>2022-07-04T17:32:07.000Z</Time>
            <Position>
              <LatitudeDegrees>44.5983269624412059783935546875</LatitudeDegrees>
              <LongitudeDegrees>-1.20136611163616180419921875</LongitudeDegrees>
            </Position>
            <AltitudeMeters>39.200000762939453125</AltitudeMeters>
            <DistanceMeters>NAN</DistanceMeters>
          </Trackpoint>
          <Trackpoint>
            <Time>2022-07-04T17:32:13.000Z</Time>
            <Position>
              <LatitudeDegrees>44.59831682033836841583251953125</LatitudeDegrees>
              <LongitudeDegrees>-1.20151069946587085723876953125</LongitudeDegrees>
            </Position>
            <AltitudeMeters>39.40000152587890625</AltitudeMeters>
            <DistanceMeters>NAN</DistanceMeters>
          </Trackpoint>
          <Trackpoint>
            <Time>2022-07-04T17:32:14.000Z</Time>
            <Position>
              <LatitudeDegrees>44.59830910898745059967041015625</LatitudeDegrees>
              <LongitudeDegrees>-1.20153886266052722930908203125</LongitudeDegrees>
            </Position>
            <AltitudeMeters>39.59999847412109375</AltitudeMeters>
            <DistanceMeters>NAN</DistanceMeters>
          </Trackpoint>
          <Trackpoint>
            <Time>2022-07-04T17:32:19.000Z</Time>
            <Position>
              <LatitudeDegrees>44.59831380285322666168212890625</LatitudeDegrees>
              <LongitudeDegrees>-1.20161681436002254486083984375</LongitudeDegrees>
            </Position>
            <AltitudeMeters>39.799999237060546875</AltitudeMeters>
            <DistanceMeters>NAN</DistanceMeters>
          </Trackpoint>
          <Trackpoint>
            <Time>2022-07-04T17:32:20.000Z</Time>
            <Position>
              <LatitudeDegrees>44.59832335822284221649169921875</LatitudeDegrees>
              <LongitudeDegrees>-1.20163860730826854705810546875</LongitudeDegrees>
            </Position>
            <AltitudeMeters>40</AltitudeMeters>
            <DistanceMeters>NAN</DistanceMeters>
          </Trackpoint>
          <Trackpoint>
            <Time>2022-07-04T17:32:22.000Z</Time>
            <Position>
              <LatitudeDegrees>44.59832469932734966278076171875</LatitudeDegrees>
              <LongitudeDegrees>-1.20167884044349193572998046875</LongitudeDegrees>
            </Position>
            <AltitudeMeters>40</AltitudeMeters>
            <DistanceMeters>NAN</DistanceMeters>
          </Trackpoint>
          <Trackpoint>
            <Time>2022-07-04T17:32:27.000Z</Time>
            <Position>
              <LatitudeDegrees>44.5983108691871166229248046875</LatitudeDegrees>
              <LongitudeDegrees>-1.20177305303514003753662109375</LongitudeDegrees>
            </Position>
            <AltitudeMeters>40.59999847412109375</AltitudeMeters>
            <DistanceMeters>NAN</DistanceMeters>
          </Trackpoint>
          <Trackpoint>
            <Time>2022-07-04T17:32:29.000Z</Time>
            <Position>
              <LatitudeDegrees>44.5983029901981353759765625</LatitudeDegrees>
              <LongitudeDegrees>-1.2018132023513317108154296875</LongitudeDegrees>
            </Position>
            <AltitudeMeters>40.799999237060546875</AltitudeMeters>
            <DistanceMeters>NAN</DistanceMeters>
          </Trackpoint>
          <Trackpoint>
            <Time>2022-07-04T17:32:31.000Z</Time>
            <Position>
              <LatitudeDegrees>44.59829335100948810577392578125</LatitudeDegrees>
              <LongitudeDegrees>-1.20185435749590396881103515625</LongitudeDegrees>
            </Position>
            <AltitudeMeters>41.200000762939453125</AltitudeMeters>
            <DistanceMeters>NAN</DistanceMeters>
          </Trackpoint>
          <Trackpoint>
            <Time>2022-07-04T17:32:32.000Z</Time>
            <Position>
              <LatitudeDegrees>44.59829502739012241363525390625</LatitudeDegrees>
              <LongitudeDegrees>-1.20187480933964252471923828125</LongitudeDegrees>
            </Position>
            <AltitudeMeters>41.40000152587890625</AltitudeMeters>
            <DistanceMeters>NAN</DistanceMeters>
          </Trackpoint>
          <Trackpoint>
            <Time>2022-07-04T17:32:34.000Z</Time>
            <Position>
              <LatitudeDegrees>44.59830793552100658416748046875</LatitudeDegrees>
              <LongitudeDegrees>-1.201910935342311859130859375</LongitudeDegrees>
            </Position>
            <AltitudeMeters>41.59999847412109375</AltitudeMeters>
            <DistanceMeters>NAN</DistanceMeters>
          </Trackpoint>
          <Trackpoint>
            <Time>2022-07-04T17:32:35.000Z</Time>
            <Position>
              <LatitudeDegrees>44.59830902516841888427734375</LatitudeDegrees>
              <LongitudeDegrees>-1.20192342437803745269775390625</LongitudeDegrees>
            </Position>
            <AltitudeMeters>41.59999847412109375</AltitudeMeters>
            <DistanceMeters>NAN</DistanceMeters>
          </Trackpoint>
          <Trackpoint>
            <Time>2022-07-04T17:32:39.000Z</Time>
            <Position>
              <LatitudeDegrees>44.5983236096799373626708984375</LatitudeDegrees>
              <LongitudeDegrees>-1.20198360644280910491943359375</LongitudeDegrees>
            </Position>
            <AltitudeMeters>42</AltitudeMeters>
            <DistanceMeters>NAN</DistanceMeters>
          </Trackpoint>
          <Trackpoint>
            <Time>2022-07-04T17:32:41.000Z</Time>
            <Position>
              <LatitudeDegrees>44.5983324944972991943359375</LatitudeDegrees>
              <LongitudeDegrees>-1.202014870941638946533203125</LongitudeDegrees>
            </Position>
            <AltitudeMeters>42.200000762939453125</AltitudeMeters>
            <DistanceMeters>NAN</DistanceMeters>
          </Trackpoint>
          <Trackpoint>
            <Time>2022-07-04T17:32:46.000Z</Time>
            <Position>
              <LatitudeDegrees>44.59834925830364227294921875</LatitudeDegrees>
              <LongitudeDegrees>-1.2021109275519847869873046875</LongitudeDegrees>
            </Position>
            <AltitudeMeters>42.40000152587890625</AltitudeMeters>
            <DistanceMeters>NAN</DistanceMeters>
          </Trackpoint>
          <Trackpoint>
            <Time>2022-07-04T17:32:47.000Z</Time>
            <Position>
              <LatitudeDegrees>44.598359651863574981689453125</LatitudeDegrees>
              <LongitudeDegrees>-1.2021219916641712188720703125</LongitudeDegrees>
            </Position>
            <AltitudeMeters>42.799999237060546875</AltitudeMeters>
            <DistanceMeters>NAN</DistanceMeters>
          </Trackpoint>
          <Trackpoint>
            <Time>2022-07-04T17:32:49.000Z</Time>
            <Position>
              <LatitudeDegrees>44.59837884642183780670166015625</LatitudeDegrees>
              <LongitudeDegrees>-1.2021593749523162841796875</LongitudeDegrees>
            </Position>
            <AltitudeMeters>43.200000762939453125</AltitudeMeters>
            <DistanceMeters>NAN</DistanceMeters>
          </Trackpoint>
          <Trackpoint>
            <Time>2022-07-04T17:32:51.000Z</Time>
            <Position>
              <LatitudeDegrees>44.59838840179145336151123046875</LatitudeDegrees>
              <LongitudeDegrees>-1.20217354036867618560791015625</LongitudeDegrees>
            </Position>
            <AltitudeMeters>43.40000152587890625</AltitudeMeters>
            <DistanceMeters>NAN</DistanceMeters>
          </Trackpoint>
          <Trackpoint>
            <Time>2022-07-04T17:32:52.000Z</Time>
            <Position>
              <LatitudeDegrees>44.59839611314237117767333984375</LatitudeDegrees>
              <LongitudeDegrees>-1.2021897174417972564697265625</LongitudeDegrees>
            </Position>
            <AltitudeMeters>43.59999847412109375</AltitudeMeters>
            <DistanceMeters>NAN</DistanceMeters>
          </Trackpoint>
          <Trackpoint>
            <Time>2022-07-04T17:32:56.000Z</Time>
            <Position>
              <LatitudeDegrees>44.598403908312320709228515625</LatitudeDegrees>
              <LongitudeDegrees>-1.202222406864166259765625</LongitudeDegrees>
            </Position>
            <AltitudeMeters>43.799999237060546875</AltitudeMeters>
            <DistanceMeters>NAN</DistanceMeters>
          </Trackpoint>
          <Trackpoint>
            <Time>2022-07-04T17:32:58.000Z</Time>
            <Position>
              <LatitudeDegrees>44.59840382449328899383544921875</LatitudeDegrees>
              <LongitudeDegrees>-1.20223808102309703826904296875</LongitudeDegrees>
            </Position>
            <AltitudeMeters>44</AltitudeMeters>
            <DistanceMeters>NAN</DistanceMeters>
          </Trackpoint>
          <Trackpoint>
            <Time>2022-07-04T17:33:00.000Z</Time>
            <Position>
              <LatitudeDegrees>44.59839359857141971588134765625</LatitudeDegrees>
              <LongitudeDegrees>-1.20226155035197734832763671875</LongitudeDegrees>
            </Position>
            <AltitudeMeters>44.200000762939453125</AltitudeMeters>
            <DistanceMeters>NAN</DistanceMeters>
          </Trackpoint>
          <Trackpoint>
            <Time>2022-07-04T17:33:01.000Z</Time>
            <Position>
              <LatitudeDegrees>44.5984023995697498321533203125</LatitudeDegrees>
              <LongitudeDegrees>-1.20227563194930553436279296875</LongitudeDegrees>
            </Position>
            <AltitudeMeters>44.40000152587890625</AltitudeMeters>
            <DistanceMeters>NAN</DistanceMeters>
          </Trackpoint>
          <Trackpoint>
            <Time>2022-07-04T17:33:02.000Z</Time>
            <Position>
              <LatitudeDegrees>44.5984080992639064788818359375</LatitudeDegrees>
              <LongitudeDegrees>-1.20229273103177547454833984375</LongitudeDegrees>
            </Position>
            <AltitudeMeters>44.59999847412109375</AltitudeMeters>
            <DistanceMeters>NAN</DistanceMeters>
          </Trackpoint>
          <Trackpoint>
            <Time>2022-07-04T17:33:04.000Z</Time>
            <Position>
              <LatitudeDegrees>44.59840826690196990966796875</LatitudeDegrees>
              <LongitudeDegrees>-1.2023040466010570526123046875</LongitudeDegrees>
            </Position>
            <AltitudeMeters>44.799999237060546875</AltitudeMeters>
            <DistanceMeters>NAN</DistanceMeters>
          </Trackpoint>
          <Trackpoint>
            <Time>2022-07-04T17:33:06.000Z</Time>
            <Position>
              <LatitudeDegrees>44.59841505624353885650634765625</LatitudeDegrees>
              <LongitudeDegrees>-1.2023499794304370880126953125</LongitudeDegrees>
            </Position>
            <AltitudeMeters>45</AltitudeMeters>
            <DistanceMeters>NAN</DistanceMeters>
          </Trackpoint>
          <Trackpoint>
            <Time>2022-07-04T17:33:09.000Z</Time>
            <Position>
              <LatitudeDegrees>44.59841631352901458740234375</LatitudeDegrees>
              <LongitudeDegrees>-1.20241024531424045562744140625</LongitudeDegrees>
            </Position>
            <AltitudeMeters>45.40000152587890625</AltitudeMeters>
            <DistanceMeters>NAN</DistanceMeters>
          </Trackpoint>
          <Trackpoint>
            <Time>2022-07-04T17:33:10.000Z</Time>
            <Position>
              <LatitudeDegrees>44.5984151400625705718994140625</LatitudeDegrees>
              <LongitudeDegrees>-1.2024160288274288177490234375</LongitudeDegrees>
            </Position>
            <AltitudeMeters>45.40000152587890625</AltitudeMeters>
            <DistanceMeters>NAN</DistanceMeters>
          </Trackpoint>
          <Trackpoint>
            <Time>2022-07-04T17:33:14.000Z</Time>
            <Position>
              <LatitudeDegrees>44.59842310287058353424072265625</LatitudeDegrees>
              <LongitudeDegrees>-1.2024706788361072540283203125</LongitudeDegrees>
            </Position>
            <AltitudeMeters>45.799999237060546875</AltitudeMeters>
            <DistanceMeters>NAN</DistanceMeters>
          </Trackpoint>
          <Trackpoint>
            <Time>2022-07-04T17:33:20.000Z</Time>
            <Position>
              <LatitudeDegrees>44.5984144695103168487548828125</LatitudeDegrees>
              <LongitudeDegrees>-1.20259230025112628936767578125</LongitudeDegrees>
            </Position>
            <AltitudeMeters>46.40000152587890625</AltitudeMeters>
            <DistanceMeters>NAN</DistanceMeters>
          </Trackpoint>
          <Trackpoint>
            <Time>2022-07-04T17:33:22.000Z</Time>
            <Position>
              <LatitudeDegrees>44.5984349213540554046630859375</LatitudeDegrees>
              <LongitudeDegrees>-1.20263211429119110107421875</LongitudeDegrees>
            </Position>
            <AltitudeMeters>46.799999237060546875</AltitudeMeters>
            <DistanceMeters>NAN</DistanceMeters>
          </Trackpoint>
          <Trackpoint>
            <Time>2022-07-04T17:33:23.000Z</Time>
            <Position>
              <LatitudeDegrees>44.59844104014337062835693359375</LatitudeDegrees>
              <LongitudeDegrees>-1.20265868492424488067626953125</LongitudeDegrees>
            </Position>
            <AltitudeMeters>47</AltitudeMeters>
            <DistanceMeters>NAN</DistanceMeters>
          </Trackpoint>
          <Trackpoint>
            <Time>2022-07-04T17:33:25.000Z</Time>
            <Position>
              <LatitudeDegrees>44.59845646284520626068115234375</LatitudeDegrees>
              <LongitudeDegrees>-1.202720962464809417724609375</LongitudeDegrees>
            </Position>
            <AltitudeMeters>47.40000152587890625</AltitudeMeters>
            <DistanceMeters>NAN</DistanceMeters>
          </Trackpoint>
          <Trackpoint>
            <Time>2022-07-04T17:33:27.000Z</Time>
            <Position>
              <LatitudeDegrees>44.598456881940364837646484375</LatitudeDegrees>
              <LongitudeDegrees>-1.202776618301868438720703125</LongitudeDegrees>
            </Position>
            <AltitudeMeters>47.59999847412109375</AltitudeMeters>
            <DistanceMeters>NAN</DistanceMeters>
          </Trackpoint>
          <Trackpoint>
            <Time>2022-07-04T17:33:30.000Z</Time>
            <Position>
              <LatitudeDegrees>44.59847222082316875457763671875</LatitudeDegrees>
              <LongitudeDegrees>-1.2028621137142181396484375</LongitudeDegrees>
            </Position>
            <AltitudeMeters>47.799999237060546875</AltitudeMeters>
            <DistanceMeters>NAN</DistanceMeters>
          </Trackpoint>
          <Trackpoint>
            <Time>2022-07-04T17:33:31.000Z</Time>
            <Position>
              <LatitudeDegrees>44.59848009981215000152587890625</LatitudeDegrees>
              <LongitudeDegrees>-1.20287728495895862579345703125</LongitudeDegrees>
            </Position>
            <AltitudeMeters>47.799999237060546875</AltitudeMeters>
            <DistanceMeters>NAN</DistanceMeters>
          </Trackpoint>
          <Trackpoint>
            <Time>2022-07-04T17:33:33.000Z</Time>
            <Position>
              <LatitudeDegrees>44.59851060993969440460205078125</LatitudeDegrees>
              <LongitudeDegrees>-1.20291701517999172210693359375</LongitudeDegrees>
            </Position>
            <AltitudeMeters>47.799999237060546875</AltitudeMeters>
            <DistanceMeters>NAN</DistanceMeters>
          </Trackpoint>
          <Trackpoint>
            <Time>2022-07-04T17:33:38.000Z</Time>
            <Position>
              <LatitudeDegrees>44.59857917390763759613037109375</LatitudeDegrees>
              <LongitudeDegrees>-1.20298038236796855926513671875</LongitudeDegrees>
            </Position>
            <AltitudeMeters>47.59999847412109375</AltitudeMeters>
            <DistanceMeters>NAN</DistanceMeters>
          </Trackpoint>
          <Trackpoint>
            <Time>2022-07-04T17:33:45.000Z</Time>
            <Position>
              <LatitudeDegrees>44.59856919944286346435546875</LatitudeDegrees>
              <LongitudeDegrees>-1.20301960967481136322021484375</LongitudeDegrees>
            </Position>
            <AltitudeMeters>47.40000152587890625</AltitudeMeters>
            <DistanceMeters>NAN</DistanceMeters>
          </Trackpoint>
          <Trackpoint>
            <Time>2022-07-04T17:33:46.000Z</Time>
            <Position>
              <LatitudeDegrees>44.5985713787376880645751953125</LatitudeDegrees>
              <LongitudeDegrees>-1.203036122024059295654296875</LongitudeDegrees>
            </Position>
            <AltitudeMeters>47.40000152587890625</AltitudeMeters>
            <DistanceMeters>NAN</DistanceMeters>
          </Trackpoint>
          <Trackpoint>
            <Time>2022-07-04T17:33:50.000Z</Time>
            <Position>
              <LatitudeDegrees>44.59858931601047515869140625</LatitudeDegrees>
              <LongitudeDegrees>-1.20307375676929950714111328125</LongitudeDegrees>
            </Position>
            <AltitudeMeters>47.200000762939453125</AltitudeMeters>
            <DistanceMeters>NAN</DistanceMeters>
          </Trackpoint>
          <Trackpoint>
            <Time>2022-07-04T17:33:53.000Z</Time>
            <Position>
              <LatitudeDegrees>44.5986096002161502838134765625</LatitudeDegrees>
              <LongitudeDegrees>-1.20309907011687755584716796875</LongitudeDegrees>
            </Position>
            <AltitudeMeters>47.200000762939453125</AltitudeMeters>
            <DistanceMeters>NAN</DistanceMeters>
          </Trackpoint>
          <Trackpoint>
            <Time>2022-07-04T17:33:55.000Z</Time>
            <Position>
              <LatitudeDegrees>44.5986209996044635772705078125</LatitudeDegrees>
              <LongitudeDegrees>-1.20312974788248538970947265625</LongitudeDegrees>
            </Position>
            <AltitudeMeters>47.200000762939453125</AltitudeMeters>
            <DistanceMeters>NAN</DistanceMeters>
          </Trackpoint>
          <Trackpoint>
            <Time>2022-07-04T17:33:56.000Z</Time>
            <Position>
              <LatitudeDegrees>44.59862577728927135467529296875</LatitudeDegrees>
              <LongitudeDegrees>-1.20314651168882846832275390625</LongitudeDegrees>
            </Position>
            <AltitudeMeters>47.200000762939453125</AltitudeMeters>
            <DistanceMeters>NAN</DistanceMeters>
          </Trackpoint>
          <Trackpoint>
            <Time>2022-07-04T17:33:59.000Z</Time>
            <Position>
              <LatitudeDegrees>44.598643295466899871826171875</LatitudeDegrees>
              <LongitudeDegrees>-1.2031915225088596343994140625</LongitudeDegrees>
            </Position>
            <AltitudeMeters>47</AltitudeMeters>
            <DistanceMeters>NAN</DistanceMeters>
          </Trackpoint>
          <Trackpoint>
            <Time>2022-07-04T17:34:01.000Z</Time>
            <Position>
              <LatitudeDegrees>44.59864807315170764923095703125</LatitudeDegrees>
              <LongitudeDegrees>-1.20320702902972698211669921875</LongitudeDegrees>
            </Position>
            <AltitudeMeters>47</AltitudeMeters>
            <DistanceMeters>NAN</DistanceMeters>
          </Trackpoint>
          <Trackpoint>
            <Time>2022-07-04T17:34:03.000Z</Time>
            <Position>
              <LatitudeDegrees>44.59864430129528045654296875</LatitudeDegrees>
              <LongitudeDegrees>-1.2032314203679561614990234375</LongitudeDegrees>
            </Position>
            <AltitudeMeters>47</AltitudeMeters>
            <DistanceMeters>NAN</DistanceMeters>
          </Trackpoint>
          <Trackpoint>
            <Time>2022-07-04T17:34:04.000Z</Time>
            <Position>
              <LatitudeDegrees>44.59865511395037174224853515625</LatitudeDegrees>
              <LongitudeDegrees>-1.2032424844801425933837890625</LongitudeDegrees>
            </Position>
            <AltitudeMeters>47</AltitudeMeters>
            <DistanceMeters>NAN</DistanceMeters>
          </Trackpoint>
          <Trackpoint>
            <Time>2022-07-04T17:34:06.000Z</Time>
            <Position>
              <LatitudeDegrees>44.5986840315163135528564453125</LatitudeDegrees>
              <LongitudeDegrees>-1.2032716535031795501708984375</LongitudeDegrees>
            </Position>
            <AltitudeMeters>47</AltitudeMeters>
            <DistanceMeters>NAN</DistanceMeters>
          </Trackpoint>
          <Trackpoint>
            <Time>2022-07-04T17:34:10.000Z</Time>
            <Position>
              <LatitudeDegrees>44.59868243895471096038818359375</LatitudeDegrees>
              <LongitudeDegrees>-1.2032917700707912445068359375</LongitudeDegrees>
            </Position>
            <AltitudeMeters>47</AltitudeMeters>
            <DistanceMeters>NAN</DistanceMeters>
          </Trackpoint>
          <Trackpoint>
            <Time>2022-07-04T17:34:11.000Z</Time>
            <Position>
              <LatitudeDegrees>44.59867841564118862152099609375</LatitudeDegrees>
              <LongitudeDegrees>-1.20331029407680034637451171875</LongitudeDegrees>
            </Position>
            <AltitudeMeters>47</AltitudeMeters>
            <DistanceMeters>NAN</DistanceMeters>
          </Trackpoint>
          <Trackpoint>
            <Time>2022-07-04T17:34:16.000Z</Time>
            <Position>
              <LatitudeDegrees>44.5986972749233245849609375</LatitudeDegrees>
              <LongitudeDegrees>-1.20342378504574298858642578125</LongitudeDegrees>
            </Position>
            <AltitudeMeters>47</AltitudeMeters>
            <DistanceMeters>NAN</DistanceMeters>
          </Trackpoint>
          <Trackpoint>
            <Time>2022-07-04T17:34:17.000Z</Time>
            <Position>
              <LatitudeDegrees>44.59869953803718090057373046875</LatitudeDegrees>
              <LongitudeDegrees>-1.2034292332828044891357421875</LongitudeDegrees>
            </Position>
            <AltitudeMeters>47</AltitudeMeters>
            <DistanceMeters>NAN</DistanceMeters>
          </Trackpoint>
          <Trackpoint>
            <Time>2022-07-04T17:34:22.000Z</Time>
            <Position>
              <LatitudeDegrees>44.5986971072852611541748046875</LatitudeDegrees>
              <LongitudeDegrees>-1.20346602983772754669189453125</LongitudeDegrees>
            </Position>
            <AltitudeMeters>47.200000762939453125</AltitudeMeters>
            <DistanceMeters>NAN</DistanceMeters>
          </Trackpoint>
          <Trackpoint>
            <Time>2022-07-04T17:34:27.000Z</Time>
            <Position>
              <LatitudeDegrees>44.5987376756966114044189453125</LatitudeDegrees>
              <LongitudeDegrees>-1.20354004204273223876953125</LongitudeDegrees>
            </Position>
            <AltitudeMeters>47.40000152587890625</AltitudeMeters>
            <DistanceMeters>NAN</DistanceMeters>
          </Trackpoint>
          <Trackpoint>
            <Time>2022-07-04T17:34:28.000Z</Time>
            <Position>
              <LatitudeDegrees>44.59875234402716159820556640625</LatitudeDegrees>
              <LongitudeDegrees>-1.2035770900547504425048828125</LongitudeDegrees>
            </Position>
            <AltitudeMeters>47.40000152587890625</AltitudeMeters>
            <DistanceMeters>NAN</DistanceMeters>
          </Trackpoint>
          <Trackpoint>
            <Time>2022-07-04T17:34:34.000Z</Time>
            <Position>
              <LatitudeDegrees>44.59878553636372089385986328125</LatitudeDegrees>
              <LongitudeDegrees>-1.203692592680454254150390625</LongitudeDegrees>
            </Position>
            <AltitudeMeters>47.799999237060546875</AltitudeMeters>
            <DistanceMeters>NAN</DistanceMeters>
          </Trackpoint>
          <Trackpoint>
            <Time>2022-07-04T17:34:35.000Z</Time>
            <Position>
              <LatitudeDegrees>44.5987826026976108551025390625</LatitudeDegrees>
              <LongitudeDegrees>-1.20370692573487758636474609375</LongitudeDegrees>
            </Position>
            <AltitudeMeters>47.799999237060546875</AltitudeMeters>
            <DistanceMeters>NAN</DistanceMeters>
          </Trackpoint>
          <Trackpoint>
            <Time>2022-07-04T17:34:37.000Z</Time>
            <Position>
              <LatitudeDegrees>44.5987447164952754974365234375</LatitudeDegrees>
              <LongitudeDegrees>-1.20373307727277278900146484375</LongitudeDegrees>
            </Position>
            <AltitudeMeters>48</AltitudeMeters>
            <DistanceMeters>NAN</DistanceMeters>
          </Trackpoint>
          <Trackpoint>
            <Time>2022-07-04T17:34:41.000Z</Time>
            <Position>
              <LatitudeDegrees>44.59872367791831493377685546875</LatitudeDegrees>
              <LongitudeDegrees>-1.2037671916186809539794921875</LongitudeDegrees>
            </Position>
            <AltitudeMeters>48.200000762939453125</AltitudeMeters>
            <DistanceMeters>NAN</DistanceMeters>
          </Trackpoint>
          <Trackpoint>
            <Time>2022-07-04T17:34:44.000Z</Time>
            <Position>
              <LatitudeDegrees>44.59872233681380748748779296875</LatitudeDegrees>
              <LongitudeDegrees>-1.20379325933754444122314453125</LongitudeDegrees>
            </Position>
            <AltitudeMeters>48.59999847412109375</AltitudeMeters>
            <DistanceMeters>NAN</DistanceMeters>
          </Trackpoint>
          <Trackpoint>
            <Time>2022-07-04T17:34:46.000Z</Time>
            <Position>
              <LatitudeDegrees>44.59874220192432403564453125</LatitudeDegrees>
              <LongitudeDegrees>-1.20384371839463710784912109375</LongitudeDegrees>
            </Position>
            <AltitudeMeters>48.799999237060546875</AltitudeMeters>
            <DistanceMeters>NAN</DistanceMeters>
          </Trackpoint>
          <Trackpoint>
            <Time>2022-07-04T17:34:47.000Z</Time>
            <Position>
              <LatitudeDegrees>44.5987473987042903900146484375</LatitudeDegrees>
              <LongitudeDegrees>-1.2038644216954708099365234375</LongitudeDegrees>
            </Position>
            <AltitudeMeters>49</AltitudeMeters>
            <DistanceMeters>NAN</DistanceMeters>
          </Trackpoint>
          <Trackpoint>
            <Time>2022-07-04T17:34:49.000Z</Time>
            <Position>
              <LatitudeDegrees>44.59876692853868007659912109375</LatitudeDegrees>
              <LongitudeDegrees>-1.20387942530214786529541015625</LongitudeDegrees>
            </Position>
            <AltitudeMeters>49.200000762939453125</AltitudeMeters>
            <DistanceMeters>NAN</DistanceMeters>
          </Trackpoint>
          <Trackpoint>
            <Time>2022-07-04T17:34:51.000Z</Time>
            <Position>
              <LatitudeDegrees>44.598776400089263916015625</LatitudeDegrees>
              <LongitudeDegrees>-1.203934662044048309326171875</LongitudeDegrees>
            </Position>
            <AltitudeMeters>49.59999847412109375</AltitudeMeters>
            <DistanceMeters>NAN</DistanceMeters>
          </Trackpoint>
          <Trackpoint>
            <Time>2022-07-04T17:34:53.000Z</Time>
            <Position>
              <LatitudeDegrees>44.598731137812137603759765625</LatitudeDegrees>
              <LongitudeDegrees>-1.2039792537689208984375</LongitudeDegrees>
            </Position>
            <AltitudeMeters>49.799999237060546875</AltitudeMeters>
            <DistanceMeters>NAN</DistanceMeters>
          </Trackpoint>
          <Trackpoint>
            <Time>2022-07-04T17:34:54.000Z</Time>
            <Position>
              <LatitudeDegrees>44.59873817861080169677734375</LatitudeDegrees>
              <LongitudeDegrees>-1.2040018849074840545654296875</LongitudeDegrees>
            </Position>
            <AltitudeMeters>50.200000762939453125</AltitudeMeters>
            <DistanceMeters>NAN</DistanceMeters>
          </Trackpoint>
          <Trackpoint>
            <Time>2022-07-04T17:34:57.000Z</Time>
            <Position>
              <LatitudeDegrees>44.59873692132532596588134765625</LatitudeDegrees>
              <LongitudeDegrees>-1.2040310539305210113525390625</LongitudeDegrees>
            </Position>
            <AltitudeMeters>50.40000152587890625</AltitudeMeters>
            <DistanceMeters>NAN</DistanceMeters>
          </Trackpoint>
          <Trackpoint>
            <Time>2022-07-04T17:34:58.000Z</Time>
            <Position>
              <LatitudeDegrees>44.598734490573406219482421875</LatitudeDegrees>
              <LongitudeDegrees>-1.2040360830724239349365234375</LongitudeDegrees>
            </Position>
            <AltitudeMeters>50.59999847412109375</AltitudeMeters>
            <DistanceMeters>NAN</DistanceMeters>
          </Trackpoint>
          <Trackpoint>
            <Time>2022-07-04T17:34:59.000Z</Time>
            <Position>
              <LatitudeDegrees>44.59871680475771427154541015625</LatitudeDegrees>
              <LongitudeDegrees>-1.20404052548110485076904296875</LongitudeDegrees>
            </Position>
            <AltitudeMeters>50.799999237060546875</AltitudeMeters>
            <DistanceMeters>NAN</DistanceMeters>
          </Trackpoint>
          <Trackpoint>
            <Time>2022-07-04T17:35:02.000Z</Time>
            <Position>
              <LatitudeDegrees>44.5987004600465297698974609375</LatitudeDegrees>
              <LongitudeDegrees>-1.20406852103769779205322265625</LongitudeDegrees>
            </Position>
            <AltitudeMeters>51</AltitudeMeters>
            <DistanceMeters>NAN</DistanceMeters>
          </Trackpoint>
          <Trackpoint>
            <Time>2022-07-04T17:35:03.000Z</Time>
            <Position>
              <LatitudeDegrees>44.598700962960720062255859375</LatitudeDegrees>
              <LongitudeDegrees>-1.2040793336927890777587890625</LongitudeDegrees>
            </Position>
            <AltitudeMeters>51</AltitudeMeters>
            <DistanceMeters>NAN</DistanceMeters>
          </Trackpoint>
          <Trackpoint>
            <Time>2022-07-04T17:35:04.000Z</Time>
            <Position>
              <LatitudeDegrees>44.59869853220880031585693359375</LatitudeDegrees>
              <LongitudeDegrees>-1.2040924094617366790771484375</LongitudeDegrees>
            </Position>
            <AltitudeMeters>51.200000762939453125</AltitudeMeters>
            <DistanceMeters>NAN</DistanceMeters>
          </Trackpoint>
          <Trackpoint>
            <Time>2022-07-04T17:35:06.000Z</Time>
            <Position>
              <LatitudeDegrees>44.59869258105754852294921875</LatitudeDegrees>
              <LongitudeDegrees>-1.20412216521799564361572265625</LongitudeDegrees>
            </Position>
            <AltitudeMeters>51.59999847412109375</AltitudeMeters>
            <DistanceMeters>NAN</DistanceMeters>
          </Trackpoint>
          <Trackpoint>
            <Time>2022-07-04T17:35:09.000Z</Time>
            <Position>
              <LatitudeDegrees>44.59868461824953556060791015625</LatitudeDegrees>
              <LongitudeDegrees>-1.20416164398193359375</LongitudeDegrees>
            </Position>
            <AltitudeMeters>52.200000762939453125</AltitudeMeters>
            <DistanceMeters>NAN</DistanceMeters>
          </Trackpoint>
          <Trackpoint>
            <Time>2022-07-04T17:35:11.000Z</Time>
            <Position>
              <LatitudeDegrees>44.59869165904819965362548828125</LatitudeDegrees>
              <LongitudeDegrees>-1.20418972335755825042724609375</LongitudeDegrees>
            </Position>
            <AltitudeMeters>52.40000152587890625</AltitudeMeters>
            <DistanceMeters>NAN</DistanceMeters>
          </Trackpoint>
          <Trackpoint>
            <Time>2022-07-04T17:35:16.000Z</Time>
            <Position>
              <LatitudeDegrees>44.5986810140311717987060546875</LatitudeDegrees>
              <LongitudeDegrees>-1.2042389251291751861572265625</LongitudeDegrees>
            </Position>
            <AltitudeMeters>52.799999237060546875</AltitudeMeters>
            <DistanceMeters>NAN</DistanceMeters>
          </Trackpoint>
          <Trackpoint>
            <Time>2022-07-04T17:35:20.000Z</Time>
            <Position>
              <LatitudeDegrees>44.59867724217474460601806640625</LatitudeDegrees>
              <LongitudeDegrees>-1.20428427122533321380615234375</LongitudeDegrees>
            </Position>
            <AltitudeMeters>53.40000152587890625</AltitudeMeters>
            <DistanceMeters>NAN</DistanceMeters>
          </Trackpoint>
          <Trackpoint>
            <Time>2022-07-04T17:35:21.000Z</Time>
            <Position>
              <LatitudeDegrees>44.59867388941347599029541015625</LatitudeDegrees>
              <LongitudeDegrees>-1.20429449714720249176025390625</LongitudeDegrees>
            </Position>
            <AltitudeMeters>53.40000152587890625</AltitudeMeters>
            <DistanceMeters>NAN</DistanceMeters>
          </Trackpoint>
          <Trackpoint>
            <Time>2022-07-04T17:35:29.000Z</Time>
            <Position>
              <LatitudeDegrees>44.59864706732332706451416015625</LatitudeDegrees>
              <LongitudeDegrees>-1.204403378069400787353515625</LongitudeDegrees>
            </Position>
            <AltitudeMeters>54</AltitudeMeters>
            <DistanceMeters>NAN</DistanceMeters>
          </Trackpoint>
          <Trackpoint>
            <Time>2022-07-04T17:35:31.000Z</Time>
            <Position>
              <LatitudeDegrees>44.5986370928585529327392578125</LatitudeDegrees>
              <LongitudeDegrees>-1.20442324317991733551025390625</LongitudeDegrees>
            </Position>
            <AltitudeMeters>54.200000762939453125</AltitudeMeters>
            <DistanceMeters>NAN</DistanceMeters>
          </Trackpoint>
          <Trackpoint>
            <Time>2022-07-04T17:35:34.000Z</Time>
            <Position>
              <LatitudeDegrees>44.59863097406923770904541015625</LatitudeDegrees>
              <LongitudeDegrees>-1.20443464256823062896728515625</LongitudeDegrees>
            </Position>
            <AltitudeMeters>54.200000762939453125</AltitudeMeters>
            <DistanceMeters>NAN</DistanceMeters>
          </Trackpoint>
          <Trackpoint>
            <Time>2022-07-04T17:35:36.000Z</Time>
            <Position>
              <LatitudeDegrees>44.59862275980412960052490234375</LatitudeDegrees>
              <LongitudeDegrees>-1.2044454552233219146728515625</LongitudeDegrees>
            </Position>
            <AltitudeMeters>54.40000152587890625</AltitudeMeters>
            <DistanceMeters>NAN</DistanceMeters>
          </Trackpoint>
          <Trackpoint>
            <Time>2022-07-04T17:35:40.000Z</Time>
            <Position>
              <LatitudeDegrees>44.598596356809139251708984375</LatitudeDegrees>
              <LongitudeDegrees>-1.20448728092014789581298828125</LongitudeDegrees>
            </Position>
            <AltitudeMeters>54.40000152587890625</AltitudeMeters>
            <DistanceMeters>NAN</DistanceMeters>
          </Trackpoint>
          <Trackpoint>
            <Time>2022-07-04T17:35:45.000Z</Time>
            <Position>
              <LatitudeDegrees>44.5985596440732479095458984375</LatitudeDegrees>
              <LongitudeDegrees>-1.2045413441956043243408203125</LongitudeDegrees>
            </Position>
            <AltitudeMeters>54.40000152587890625</AltitudeMeters>
            <DistanceMeters>NAN</DistanceMeters>
          </Trackpoint>
          <Trackpoint>
            <Time>2022-07-04T17:35:50.000Z</Time>
            <Position>
              <LatitudeDegrees>44.59852217696607112884521484375</LatitudeDegrees>
              <LongitudeDegrees>-1.20459658093750476837158203125</LongitudeDegrees>
            </Position>
            <AltitudeMeters>54.59999847412109375</AltitudeMeters>
            <DistanceMeters>NAN</DistanceMeters>
          </Trackpoint>
          <Trackpoint>
            <Time>2022-07-04T17:35:52.000Z</Time>
            <Position>
              <LatitudeDegrees>44.59851983003318309783935546875</LatitudeDegrees>
              <LongitudeDegrees>-1.20462491177022457122802734375</LongitudeDegrees>
            </Position>
            <AltitudeMeters>54.59999847412109375</AltitudeMeters>
            <DistanceMeters>NAN</DistanceMeters>
          </Trackpoint>
          <Trackpoint>
            <Time>2022-07-04T17:35:54.000Z</Time>
            <Position>
              <LatitudeDegrees>44.59852720610797405242919921875</LatitudeDegrees>
              <LongitudeDegrees>-1.20465156622231006622314453125</LongitudeDegrees>
            </Position>
            <AltitudeMeters>54.59999847412109375</AltitudeMeters>
            <DistanceMeters>NAN</DistanceMeters>
          </Trackpoint>
          <Trackpoint>
            <Time>2022-07-04T17:35:55.000Z</Time>
            <Position>
              <LatitudeDegrees>44.5985291339457035064697265625</LatitudeDegrees>
              <LongitudeDegrees>-1.204660199582576751708984375</LongitudeDegrees>
            </Position>
            <AltitudeMeters>54.799999237060546875</AltitudeMeters>
            <DistanceMeters>NAN</DistanceMeters>
          </Trackpoint>
          <Trackpoint>
            <Time>2022-07-04T17:35:59.000Z</Time>
            <Position>
              <LatitudeDegrees>44.59853793494403362274169921875</LatitudeDegrees>
              <LongitudeDegrees>-1.20468626730144023895263671875</LongitudeDegrees>
            </Position>
            <AltitudeMeters>55.59999847412109375</AltitudeMeters>
            <DistanceMeters>NAN</DistanceMeters>
          </Trackpoint>
          <Trackpoint>
            <Time>2022-07-04T17:36:01.000Z</Time>
            <Position>
              <LatitudeDegrees>44.59853676147758960723876953125</LatitudeDegrees>
              <LongitudeDegrees>-1.20469364337623119354248046875</LongitudeDegrees>
            </Position>
            <AltitudeMeters>56.200000762939453125</AltitudeMeters>
            <DistanceMeters>NAN</DistanceMeters>
          </Trackpoint>
          <Trackpoint>
            <Time>2022-07-04T17:36:04.000Z</Time>
            <Position>
              <LatitudeDegrees>44.5985391922295093536376953125</LatitudeDegrees>
              <LongitudeDegrees>-1.20469607412815093994140625</LongitudeDegrees>
            </Position>
            <AltitudeMeters>57</AltitudeMeters>
            <DistanceMeters>NAN</DistanceMeters>
          </Trackpoint>
          <Trackpoint>
            <Time>2022-07-04T17:36:08.000Z</Time>
            <Position>
              <LatitudeDegrees>44.59854145534336566925048828125</LatitudeDegrees>
              <LongitudeDegrees>-1.204697750508785247802734375</LongitudeDegrees>
            </Position>
            <AltitudeMeters>58.200000762939453125</AltitudeMeters>
            <DistanceMeters>NAN</DistanceMeters>
          </Trackpoint>
          <Trackpoint>
            <Time>2022-07-04T17:36:10.000Z</Time>
            <Position>
              <LatitudeDegrees>44.59854145534336566925048828125</LatitudeDegrees>
              <LongitudeDegrees>-1.204697750508785247802734375</LongitudeDegrees>
            </Position>
            <AltitudeMeters>58.799999237060546875</AltitudeMeters>
            <DistanceMeters>NAN</DistanceMeters>
          </Trackpoint>
          <Trackpoint>
            <Time>2022-07-04T17:39:43.000Z</Time>
            <Position>
              <LatitudeDegrees>44.598405249416828155517578125</LatitudeDegrees>
              <LongitudeDegrees>-1.20601035654544830322265625</LongitudeDegrees>
            </Position>
            <AltitudeMeters>90.1999969482421875</AltitudeMeters>
            <DistanceMeters>NAN</DistanceMeters>
          </Trackpoint>
          <Trackpoint>
            <Time>2022-07-04T17:39:44.000Z</Time>
            <Position>
              <LatitudeDegrees>44.59840030409395694732666015625</LatitudeDegrees>
              <LongitudeDegrees>-1.20602418668568134307861328125</LongitudeDegrees>
            </Position>
            <AltitudeMeters>90.1999969482421875</AltitudeMeters>
            <DistanceMeters>NAN</DistanceMeters>
          </Trackpoint>
          <Trackpoint>
            <Time>2022-07-04T17:39:53.000Z</Time>
            <Position>
              <LatitudeDegrees>44.5983661897480487823486328125</LatitudeDegrees>
              <LongitudeDegrees>-1.20615846477448940277099609375</LongitudeDegrees>
            </Position>
            <AltitudeMeters>91</AltitudeMeters>
            <DistanceMeters>NAN</DistanceMeters>
          </Trackpoint>
          <Trackpoint>
            <Time>2022-07-04T17:39:56.000Z</Time>
            <Position>
              <LatitudeDegrees>44.59834230132400989532470703125</LatitudeDegrees>
              <LongitudeDegrees>-1.206183023750782012939453125</LongitudeDegrees>
            </Position>
            <AltitudeMeters>91</AltitudeMeters>
            <DistanceMeters>NAN</DistanceMeters>
          </Trackpoint>
          <Trackpoint>
            <Time>2022-07-04T17:39:58.000Z</Time>
            <Position>
              <LatitudeDegrees>44.59831841289997100830078125</LatitudeDegrees>
              <LongitudeDegrees>-1.20619283057749271392822265625</LongitudeDegrees>
            </Position>
            <AltitudeMeters>91.1999969482421875</AltitudeMeters>
            <DistanceMeters>NAN</DistanceMeters>
          </Trackpoint>
          <Trackpoint>
            <Time>2022-07-04T17:39:59.000Z</Time>
            <Position>
              <LatitudeDegrees>44.59830324165523052215576171875</LatitudeDegrees>
              <LongitudeDegrees>-1.2062039785087108612060546875</LongitudeDegrees>
            </Position>
            <AltitudeMeters>91.1999969482421875</AltitudeMeters>
            <DistanceMeters>NAN</DistanceMeters>
          </Trackpoint>
          <Trackpoint>
            <Time>2022-07-04T17:40:01.000Z</Time>
            <Position>
              <LatitudeDegrees>44.5982917584478855133056640625</LatitudeDegrees>
              <LongitudeDegrees>-1.20622551999986171722412109375</LongitudeDegrees>
            </Position>
            <AltitudeMeters>91.40000152587890625</AltitudeMeters>
            <DistanceMeters>NAN</DistanceMeters>
          </Trackpoint>
          <Trackpoint>
            <Time>2022-07-04T17:40:06.000Z</Time>
            <Position>
              <LatitudeDegrees>44.598242305219173431396484375</LatitudeDegrees>
              <LongitudeDegrees>-1.2062599696218967437744140625</LongitudeDegrees>
            </Position>
            <AltitudeMeters>91.8000030517578125</AltitudeMeters>
            <DistanceMeters>NAN</DistanceMeters>
          </Trackpoint>
          <Trackpoint>
            <Time>2022-07-04T17:40:15.000Z</Time>
            <Position>
              <LatitudeDegrees>44.59816209040582180023193359375</LatitudeDegrees>
              <LongitudeDegrees>-1.20633582584559917449951171875</LongitudeDegrees>
            </Position>
            <AltitudeMeters>92</AltitudeMeters>
            <DistanceMeters>NAN</DistanceMeters>
          </Trackpoint>
          <Trackpoint>
            <Time>2022-07-04T17:40:20.000Z</Time>
            <Position>
              <LatitudeDegrees>44.59811012260615825653076171875</LatitudeDegrees>
              <LongitudeDegrees>-1.206356696784496307373046875</LongitudeDegrees>
            </Position>
            <AltitudeMeters>92</AltitudeMeters>
            <DistanceMeters>NAN</DistanceMeters>
          </Trackpoint>
          <Trackpoint>
            <Time>2022-07-04T17:40:21.000Z</Time>
            <Position>
              <LatitudeDegrees>44.59810693748295307159423828125</LatitudeDegrees>
              <LongitudeDegrees>-1.20634873397648334503173828125</LongitudeDegrees>
            </Position>
            <AltitudeMeters>92</AltitudeMeters>
            <DistanceMeters>NAN</DistanceMeters>
          </Trackpoint>
          <Trackpoint>
            <Time>2022-07-04T17:40:24.000Z</Time>
            <Position>
              <LatitudeDegrees>44.5981043390929698944091796875</LatitudeDegrees>
              <LongitudeDegrees>-1.20634370483458042144775390625</LongitudeDegrees>
            </Position>
            <AltitudeMeters>91.8000030517578125</AltitudeMeters>
            <DistanceMeters>NAN</DistanceMeters>
          </Trackpoint>
          <Trackpoint>
            <Time>2022-07-04T17:40:26.000Z</Time>
            <Position>
              <LatitudeDegrees>44.5981043390929698944091796875</LatitudeDegrees>
              <LongitudeDegrees>-1.20634370483458042144775390625</LongitudeDegrees>
            </Position>
            <AltitudeMeters>91.40000152587890625</AltitudeMeters>
            <DistanceMeters>NAN</DistanceMeters>
          </Trackpoint>
          <Trackpoint>
            <Time>2022-07-04T17:58:37.000Z</Time>
            <Position>
              <LatitudeDegrees>44.59828429855406284332275390625</LatitudeDegrees>
              <LongitudeDegrees>-1.20617003180086612701416015625</LongitudeDegrees>
            </Position>
            <AltitudeMeters>97.59999847412109375</AltitudeMeters>
            <DistanceMeters>NAN</DistanceMeters>
          </Trackpoint>
          <Trackpoint>
            <Time>2022-07-04T17:58:38.000Z</Time>
            <Position>
              <LatitudeDegrees>44.59829838015139102935791015625</LatitudeDegrees>
              <LongitudeDegrees>-1.20616056025028228759765625</LongitudeDegrees>
            </Position>
            <AltitudeMeters>97.59999847412109375</AltitudeMeters>
            <DistanceMeters>NAN</DistanceMeters>
          </Trackpoint>
          <Trackpoint>
            <Time>2022-07-04T17:58:43.000Z</Time>
            <Position>
              <LatitudeDegrees>44.5983517728745937347412109375</LatitudeDegrees>
              <LongitudeDegrees>-1.20611219666898250579833984375</LongitudeDegrees>
            </Position>
            <AltitudeMeters>98.59999847412109375</AltitudeMeters>
            <DistanceMeters>NAN</DistanceMeters>
          </Trackpoint>
          <Trackpoint>
            <Time>2022-07-04T17:58:44.000Z</Time>
            <Position>
              <LatitudeDegrees>44.5983621664345264434814453125</LatitudeDegrees>
              <LongitudeDegrees>-1.20610381476581096649169921875</LongitudeDegrees>
            </Position>
            <AltitudeMeters>98.8000030517578125</AltitudeMeters>
            <DistanceMeters>NAN</DistanceMeters>
          </Trackpoint>
          <Trackpoint>
            <Time>2022-07-04T17:58:46.000Z</Time>
            <Position>
              <LatitudeDegrees>44.59837968461215496063232421875</LatitudeDegrees>
              <LongitudeDegrees>-1.206081099808216094970703125</LongitudeDegrees>
            </Position>
            <AltitudeMeters>98.40000152587890625</AltitudeMeters>
            <DistanceMeters>NAN</DistanceMeters>
          </Trackpoint>
          <Trackpoint>
            <Time>2022-07-04T17:58:48.000Z</Time>
            <Position>
              <LatitudeDegrees>44.5983846299350261688232421875</LatitudeDegrees>
              <LongitudeDegrees>-1.20606307871639728546142578125</LongitudeDegrees>
            </Position>
            <AltitudeMeters>97.8000030517578125</AltitudeMeters>
            <DistanceMeters>NAN</DistanceMeters>
          </Trackpoint>
          <Trackpoint>
            <Time>2022-07-04T17:58:49.000Z</Time>
            <Position>
              <LatitudeDegrees>44.59838421083986759185791015625</LatitudeDegrees>
              <LongitudeDegrees>-1.20605955831706523895263671875</LongitudeDegrees>
            </Position>
            <AltitudeMeters>97.1999969482421875</AltitudeMeters>
            <DistanceMeters>NAN</DistanceMeters>
          </Trackpoint>
          <Trackpoint>
            <Time>2022-07-04T17:58:51.000Z</Time>
            <Position>
              <LatitudeDegrees>44.59838689304888248443603515625</LatitudeDegrees>
              <LongitudeDegrees>-1.20605519972741603851318359375</LongitudeDegrees>
            </Position>
            <AltitudeMeters>96.59999847412109375</AltitudeMeters>
            <DistanceMeters>NAN</DistanceMeters>
          </Trackpoint>
          <Trackpoint>
            <Time>2022-07-04T17:59:25.000Z</Time>
            <Position>
              <LatitudeDegrees>44.59845520555973052978515625</LatitudeDegrees>
              <LongitudeDegrees>-1.20594154112040996551513671875</LongitudeDegrees>
            </Position>
            <AltitudeMeters>96.59999847412109375</AltitudeMeters>
            <DistanceMeters>NAN</DistanceMeters>
          </Trackpoint>
          <Trackpoint>
            <Time>2022-07-04T17:59:28.000Z</Time>
            <Position>
              <LatitudeDegrees>44.59847674705088138580322265625</LatitudeDegrees>
              <LongitudeDegrees>-1.20589041151106357574462890625</LongitudeDegrees>
            </Position>
            <AltitudeMeters>97.1999969482421875</AltitudeMeters>
            <DistanceMeters>NAN</DistanceMeters>
          </Trackpoint>
          <Trackpoint>
            <Time>2022-07-04T17:59:33.000Z</Time>
            <Position>
              <LatitudeDegrees>44.598508179187774658203125</LatitudeDegrees>
              <LongitudeDegrees>-1.20581916533410549163818359375</LongitudeDegrees>
            </Position>
            <AltitudeMeters>97.40000152587890625</AltitudeMeters>
            <DistanceMeters>NAN</DistanceMeters>
          </Trackpoint>
          <Trackpoint>
            <Time>2022-07-04T17:59:35.000Z</Time>
            <Position>
              <LatitudeDegrees>44.59851882420480251312255859375</LatitudeDegrees>
              <LongitudeDegrees>-1.2057939358055591583251953125</LongitudeDegrees>
            </Position>
            <AltitudeMeters>96.40000152587890625</AltitudeMeters>
            <DistanceMeters>NAN</DistanceMeters>
          </Trackpoint>
          <Trackpoint>
            <Time>2022-07-04T17:59:36.000Z</Time>
            <Position>
              <LatitudeDegrees>44.59853022359311580657958984375</LatitudeDegrees>
              <LongitudeDegrees>-1.2057805247604846954345703125</LongitudeDegrees>
            </Position>
            <AltitudeMeters>96</AltitudeMeters>
            <DistanceMeters>NAN</DistanceMeters>
          </Trackpoint>
          <Trackpoint>
            <Time>2022-07-04T17:59:37.000Z</Time>
            <Position>
              <LatitudeDegrees>44.5985391922295093536376953125</LatitudeDegrees>
              <LongitudeDegrees>-1.20576602406799793243408203125</LongitudeDegrees>
            </Position>
            <AltitudeMeters>95.8000030517578125</AltitudeMeters>
            <DistanceMeters>NAN</DistanceMeters>
          </Trackpoint>
          <Trackpoint>
            <Time>2022-07-04T17:59:41.000Z</Time>
            <Position>
              <LatitudeDegrees>44.598570875823497772216796875</LatitudeDegrees>
              <LongitudeDegrees>-1.20569963939487934112548828125</LongitudeDegrees>
            </Position>
            <AltitudeMeters>95</AltitudeMeters>
            <DistanceMeters>NAN</DistanceMeters>
          </Trackpoint>
          <Trackpoint>
            <Time>2022-07-04T17:59:42.000Z</Time>
            <Position>
              <LatitudeDegrees>44.5985790900886058807373046875</LatitudeDegrees>
              <LongitudeDegrees>-1.20568723417818546295166015625</LongitudeDegrees>
            </Position>
            <AltitudeMeters>94.8000030517578125</AltitudeMeters>
            <DistanceMeters>NAN</DistanceMeters>
          </Trackpoint>
          <Trackpoint>
            <Time>2022-07-04T17:59:45.000Z</Time>
            <Position>
              <LatitudeDegrees>44.59859962575137615203857421875</LatitudeDegrees>
              <LongitudeDegrees>-1.2056408822536468505859375</LongitudeDegrees>
            </Position>
            <AltitudeMeters>94</AltitudeMeters>
            <DistanceMeters>NAN</DistanceMeters>
          </Trackpoint>
          <Trackpoint>
            <Time>2022-07-04T17:59:48.000Z</Time>
            <Position>
              <LatitudeDegrees>44.59861488081514835357666015625</LatitudeDegrees>
              <LongitudeDegrees>-1.20558966882526874542236328125</LongitudeDegrees>
            </Position>
            <AltitudeMeters>93.59999847412109375</AltitudeMeters>
            <DistanceMeters>NAN</DistanceMeters>
          </Trackpoint>
          <Trackpoint>
            <Time>2022-07-04T17:59:52.000Z</Time>
            <Position>
              <LatitudeDegrees>44.5986441336572170257568359375</LatitudeDegrees>
              <LongitudeDegrees>-1.20552982203662395477294921875</LongitudeDegrees>
            </Position>
            <AltitudeMeters>93.59999847412109375</AltitudeMeters>
            <DistanceMeters>NAN</DistanceMeters>
          </Trackpoint>
          <Trackpoint>
            <Time>2022-07-04T17:59:55.000Z</Time>
            <Position>
              <LatitudeDegrees>44.5986739732325077056884765625</LatitudeDegrees>
              <LongitudeDegrees>-1.205489002168178558349609375</LongitudeDegrees>
            </Position>
            <AltitudeMeters>93.1999969482421875</AltitudeMeters>
            <DistanceMeters>NAN</DistanceMeters>
          </Trackpoint>
          <Trackpoint>
            <Time>2022-07-04T17:59:56.000Z</Time>
            <Position>
              <LatitudeDegrees>44.598680846393108367919921875</LatitudeDegrees>
              <LongitudeDegrees>-1.2054730765521526336669921875</LongitudeDegrees>
            </Position>
            <AltitudeMeters>92.59999847412109375</AltitudeMeters>
            <DistanceMeters>NAN</DistanceMeters>
          </Trackpoint>
          <Trackpoint>
            <Time>2022-07-04T17:59:57.000Z</Time>
            <Position>
              <LatitudeDegrees>44.5986883901059627532958984375</LatitudeDegrees>
              <LongitudeDegrees>-1.2054579891264438629150390625</LongitudeDegrees>
            </Position>
            <AltitudeMeters>92</AltitudeMeters>
            <DistanceMeters>NAN</DistanceMeters>
          </Trackpoint>
          <Trackpoint>
            <Time>2022-07-04T17:59:58.000Z</Time>
            <Position>
              <LatitudeDegrees>44.5986961014568805694580078125</LatitudeDegrees>
              <LongitudeDegrees>-1.20544566772878170013427734375</LongitudeDegrees>
            </Position>
            <AltitudeMeters>91.59999847412109375</AltitudeMeters>
            <DistanceMeters>NAN</DistanceMeters>
          </Trackpoint>
          <Trackpoint>
            <Time>2022-07-04T17:59:59.000Z</Time>
            <Position>
              <LatitudeDegrees>44.59870238788425922393798828125</LatitudeDegrees>
              <LongitudeDegrees>-1.20542773045599460601806640625</LongitudeDegrees>
            </Position>
            <AltitudeMeters>91.40000152587890625</AltitudeMeters>
            <DistanceMeters>NAN</DistanceMeters>
          </Trackpoint>
          <Trackpoint>
            <Time>2022-07-04T18:00:00.000Z</Time>
            <Position>
              <LatitudeDegrees>44.598711021244525909423828125</LatitudeDegrees>
              <LongitudeDegrees>-1.20540845207870006561279296875</LongitudeDegrees>
            </Position>
            <AltitudeMeters>90.40000152587890625</AltitudeMeters>
            <DistanceMeters>NAN</DistanceMeters>
          </Trackpoint>
          <Trackpoint>
            <Time>2022-07-04T18:00:02.000Z</Time>
            <Position>
              <LatitudeDegrees>44.5987249352037906646728515625</LatitudeDegrees>
              <LongitudeDegrees>-1.20536394417285919189453125</LongitudeDegrees>
            </Position>
            <AltitudeMeters>89.1999969482421875</AltitudeMeters>
            <DistanceMeters>NAN</DistanceMeters>
          </Trackpoint>
          <Trackpoint>
            <Time>2022-07-04T18:00:08.000Z</Time>
            <Position>
              <LatitudeDegrees>44.59876634180545806884765625</LatitudeDegrees>
              <LongitudeDegrees>-1.20525606907904148101806640625</LongitudeDegrees>
            </Position>
            <AltitudeMeters>88.59999847412109375</AltitudeMeters>
            <DistanceMeters>NAN</DistanceMeters>
          </Trackpoint>
          <Trackpoint>
            <Time>2022-07-04T18:00:09.000Z</Time>
            <Position>
              <LatitudeDegrees>44.5987748913466930389404296875</LatitudeDegrees>
              <LongitudeDegrees>-1.20524634607136249542236328125</LongitudeDegrees>
            </Position>
            <AltitudeMeters>88</AltitudeMeters>
            <DistanceMeters>NAN</DistanceMeters>
          </Trackpoint>
          <Trackpoint>
            <Time>2022-07-04T18:00:13.000Z</Time>
            <Position>
              <LatitudeDegrees>44.59878955967724323272705078125</LatitudeDegrees>
              <LongitudeDegrees>-1.2051984854042530059814453125</LongitudeDegrees>
            </Position>
            <AltitudeMeters>87.8000030517578125</AltitudeMeters>
            <DistanceMeters>NAN</DistanceMeters>
          </Trackpoint>
          <Trackpoint>
            <Time>2022-07-04T18:00:15.000Z</Time>
            <Position>
              <LatitudeDegrees>44.59881084971129894256591796875</LatitudeDegrees>
              <LongitudeDegrees>-1.20518431998789310455322265625</LongitudeDegrees>
            </Position>
            <AltitudeMeters>87</AltitudeMeters>
            <DistanceMeters>NAN</DistanceMeters>
          </Trackpoint>
          <Trackpoint>
            <Time>2022-07-04T18:00:16.000Z</Time>
            <Position>
              <LatitudeDegrees>44.59882509894669055938720703125</LatitudeDegrees>
              <LongitudeDegrees>-1.2051770277321338653564453125</LongitudeDegrees>
            </Position>
            <AltitudeMeters>86.59999847412109375</AltitudeMeters>
            <DistanceMeters>NAN</DistanceMeters>
          </Trackpoint>
          <Trackpoint>
            <Time>2022-07-04T18:00:17.000Z</Time>
            <Position>
              <LatitudeDegrees>44.5988332293927669525146484375</LatitudeDegrees>
              <LongitudeDegrees>-1.20516805909574031829833984375</LongitudeDegrees>
            </Position>
            <AltitudeMeters>86.1999969482421875</AltitudeMeters>
            <DistanceMeters>NAN</DistanceMeters>
          </Trackpoint>
          <Trackpoint>
            <Time>2022-07-04T18:00:18.000Z</Time>
            <Position>
              <LatitudeDegrees>44.5988325588405132293701171875</LatitudeDegrees>
              <LongitudeDegrees>-1.20515749789774417877197265625</LongitudeDegrees>
            </Position>
            <AltitudeMeters>86</AltitudeMeters>
            <DistanceMeters>NAN</DistanceMeters>
          </Trackpoint>
          <Trackpoint>
            <Time>2022-07-04T18:00:20.000Z</Time>
            <Position>
              <LatitudeDegrees>44.59882593713700771331787109375</LatitudeDegrees>
              <LongitudeDegrees>-1.20514056645333766937255859375</LongitudeDegrees>
            </Position>
            <AltitudeMeters>85.59999847412109375</AltitudeMeters>
            <DistanceMeters>NAN</DistanceMeters>
          </Trackpoint>
          <Trackpoint>
            <Time>2022-07-04T18:00:22.000Z</Time>
            <Position>
              <LatitudeDegrees>44.59882593713700771331787109375</LatitudeDegrees>
              <LongitudeDegrees>-1.20514056645333766937255859375</LongitudeDegrees>
            </Position>
            <AltitudeMeters>85.59999847412109375</AltitudeMeters>
            <DistanceMeters>NAN</DistanceMeters>
          </Trackpoint>
          <Trackpoint>
            <Time>2022-07-04T18:07:36.000Z</Time>
            <Position>
              <LatitudeDegrees>44.59827893413603305816650390625</LatitudeDegrees>
              <LongitudeDegrees>-1.200680471956729888916015625</LongitudeDegrees>
            </Position>
            <AltitudeMeters>41.59999847412109375</AltitudeMeters>
            <DistanceMeters>NAN</DistanceMeters>
          </Trackpoint>
          <Trackpoint>
            <Time>2022-07-04T18:07:37.000Z</Time>
            <Position>
              <LatitudeDegrees>44.59827725775539875030517578125</LatitudeDegrees>
              <LongitudeDegrees>-1.20065926574170589447021484375</LongitudeDegrees>
            </Position>
            <AltitudeMeters>41.59999847412109375</AltitudeMeters>
            <DistanceMeters>NAN</DistanceMeters>
          </Trackpoint>
          <Trackpoint>
            <Time>2022-07-04T18:07:39.000Z</Time>
            <Position>
              <LatitudeDegrees>44.598281197249889373779296875</LatitudeDegrees>
              <LongitudeDegrees>-1.2006152607500553131103515625</LongitudeDegrees>
            </Position>
            <AltitudeMeters>41.59999847412109375</AltitudeMeters>
            <DistanceMeters>NAN</DistanceMeters>
          </Trackpoint>
          <Trackpoint>
            <Time>2022-07-04T18:07:43.000Z</Time>
            <Position>
              <LatitudeDegrees>44.59829502739012241363525390625</LatitudeDegrees>
              <LongitudeDegrees>-1.20050235651433467864990234375</LongitudeDegrees>
            </Position>
            <AltitudeMeters>41.200000762939453125</AltitudeMeters>
            <DistanceMeters>NAN</DistanceMeters>
          </Trackpoint>
          <Trackpoint>
            <Time>2022-07-04T18:07:48.000Z</Time>
            <Position>
              <LatitudeDegrees>44.59832989610731601715087890625</LatitudeDegrees>
              <LongitudeDegrees>-1.2004083953797817230224609375</LongitudeDegrees>
            </Position>
            <AltitudeMeters>40.40000152587890625</AltitudeMeters>
            <DistanceMeters>NAN</DistanceMeters>
          </Trackpoint>
          <Trackpoint>
            <Time>2022-07-04T18:07:50.000Z</Time>
            <Position>
              <LatitudeDegrees>44.598352946341037750244140625</LatitudeDegrees>
              <LongitudeDegrees>-1.2003711797297000885009765625</LongitudeDegrees>
            </Position>
            <AltitudeMeters>40.40000152587890625</AltitudeMeters>
            <DistanceMeters>NAN</DistanceMeters>
          </Trackpoint>
          <Trackpoint>
            <Time>2022-07-04T18:07:54.000Z</Time>
            <Position>
              <LatitudeDegrees>44.5983946882188320159912109375</LatitudeDegrees>
              <LongitudeDegrees>-1.20029867626726627349853515625</LongitudeDegrees>
            </Position>
            <AltitudeMeters>39.799999237060546875</AltitudeMeters>
            <DistanceMeters>NAN</DistanceMeters>
          </Trackpoint>
          <Trackpoint>
            <Time>2022-07-04T18:07:56.000Z</Time>
            <Position>
              <LatitudeDegrees>44.59840600378811359405517578125</LatitudeDegrees>
              <LongitudeDegrees>-1.20027973316609859466552734375</LongitudeDegrees>
            </Position>
            <AltitudeMeters>39.799999237060546875</AltitudeMeters>
            <DistanceMeters>NAN</DistanceMeters>
          </Trackpoint>
          <Trackpoint>
            <Time>2022-07-04T18:08:00.000Z</Time>
            <Position>
              <LatitudeDegrees>44.5984111167490482330322265625</LatitudeDegrees>
              <LongitudeDegrees>-1.2002685852348804473876953125</LongitudeDegrees>
            </Position>
            <AltitudeMeters>39.59999847412109375</AltitudeMeters>
            <DistanceMeters>NAN</DistanceMeters>
          </Trackpoint>
          <Trackpoint>
            <Time>2022-07-04T18:11:37.000Z</Time>
            <Position>
              <LatitudeDegrees>44.598391167819499969482421875</LatitudeDegrees>
              <LongitudeDegrees>-1.20023950003087520599365234375</LongitudeDegrees>
            </Position>
            <AltitudeMeters>38.799999237060546875</AltitudeMeters>
            <DistanceMeters>NAN</DistanceMeters>
          </Trackpoint>
          <Trackpoint>
            <Time>2022-07-04T18:11:38.000Z</Time>
            <Position>
              <LatitudeDegrees>44.5984117873013019561767578125</LatitudeDegrees>
              <LongitudeDegrees>-1.2002186290919780731201171875</LongitudeDegrees>
            </Position>
            <AltitudeMeters>38.799999237060546875</AltitudeMeters>
            <DistanceMeters>NAN</DistanceMeters>
          </Trackpoint>
          <Trackpoint>
            <Time>2022-07-04T18:11:43.000Z</Time>
            <Position>
              <LatitudeDegrees>44.59852754138410091400146484375</LatitudeDegrees>
              <LongitudeDegrees>-1.20006381534039974212646484375</LongitudeDegrees>
            </Position>
            <AltitudeMeters>38.200000762939453125</AltitudeMeters>
            <DistanceMeters>NAN</DistanceMeters>
          </Trackpoint>
          <Trackpoint>
            <Time>2022-07-04T18:11:44.000Z</Time>
            <Position>
              <LatitudeDegrees>44.5985344983637332916259765625</LatitudeDegrees>
              <LongitudeDegrees>-1.20002358220517635345458984375</LongitudeDegrees>
            </Position>
            <AltitudeMeters>38.200000762939453125</AltitudeMeters>
            <DistanceMeters>NAN</DistanceMeters>
          </Trackpoint>
          <Trackpoint>
            <Time>2022-07-04T18:11:49.000Z</Time>
            <Position>
              <LatitudeDegrees>44.59847624413669109344482421875</LatitudeDegrees>
              <LongitudeDegrees>-1.1998645775020122528076171875</LongitudeDegrees>
            </Position>
            <AltitudeMeters>38.40000152587890625</AltitudeMeters>
            <DistanceMeters>NAN</DistanceMeters>
          </Trackpoint>
          <Trackpoint>
            <Time>2022-07-04T18:11:53.000Z</Time>
            <Position>
              <LatitudeDegrees>44.598399214446544647216796875</LatitudeDegrees>
              <LongitudeDegrees>-1.19981386698782444000244140625</LongitudeDegrees>
            </Position>
            <AltitudeMeters>38.59999847412109375</AltitudeMeters>
            <DistanceMeters>NAN</DistanceMeters>
          </Trackpoint>
          <Trackpoint>
            <Time>2022-07-04T18:11:54.000Z</Time>
            <Position>
              <LatitudeDegrees>44.5983836241066455841064453125</LatitudeDegrees>
              <LongitudeDegrees>-1.1998246796429157257080078125</LongitudeDegrees>
            </Position>
            <AltitudeMeters>38.799999237060546875</AltitudeMeters>
            <DistanceMeters>NAN</DistanceMeters>
          </Trackpoint>
          <Trackpoint>
            <Time>2022-07-04T18:12:01.000Z</Time>
            <Position>
              <LatitudeDegrees>44.59828195162117481231689453125</LatitudeDegrees>
              <LongitudeDegrees>-1.1998875439167022705078125</LongitudeDegrees>
            </Position>
            <AltitudeMeters>39.59999847412109375</AltitudeMeters>
            <DistanceMeters>NAN</DistanceMeters>
          </Trackpoint>
          <Trackpoint>
            <Time>2022-07-04T18:12:02.000Z</Time>
            <Position>
              <LatitudeDegrees>44.59826652891933917999267578125</LatitudeDegrees>
              <LongitudeDegrees>-1.19989198632538318634033203125</LongitudeDegrees>
            </Position>
            <AltitudeMeters>39.799999237060546875</AltitudeMeters>
            <DistanceMeters>NAN</DistanceMeters>
          </Trackpoint>
          <Trackpoint>
            <Time>2022-07-04T18:12:11.000Z</Time>
            <Position>
              <LatitudeDegrees>44.59813468158245086669921875</LatitudeDegrees>
              <LongitudeDegrees>-1.19990858249366283416748046875</LongitudeDegrees>
            </Position>
            <AltitudeMeters>40.59999847412109375</AltitudeMeters>
            <DistanceMeters>NAN</DistanceMeters>
          </Trackpoint>
          <Trackpoint>
            <Time>2022-07-04T18:12:12.000Z</Time>
            <Position>
              <LatitudeDegrees>44.59811934269964694976806640625</LatitudeDegrees>
              <LongitudeDegrees>-1.1999088339507579803466796875</LongitudeDegrees>
            </Position>
            <AltitudeMeters>40.799999237060546875</AltitudeMeters>
            <DistanceMeters>NAN</DistanceMeters>
          </Trackpoint>
          <Trackpoint>
            <Time>2022-07-04T18:12:13.000Z</Time>
            <Position>
              <LatitudeDegrees>44.59810651838779449462890625</LatitudeDegrees>
              <LongitudeDegrees>-1.1999054811894893646240234375</LongitudeDegrees>
            </Position>
            <AltitudeMeters>40.799999237060546875</AltitudeMeters>
            <DistanceMeters>NAN</DistanceMeters>
          </Trackpoint>
          <Trackpoint>
            <Time>2022-07-04T18:12:16.000Z</Time>
            <Position>
              <LatitudeDegrees>44.59806921891868114471435546875</LatitudeDegrees>
              <LongitudeDegrees>-1.1998954229056835174560546875</LongitudeDegrees>
            </Position>
            <AltitudeMeters>41</AltitudeMeters>
            <DistanceMeters>NAN</DistanceMeters>
          </Trackpoint>
          <Trackpoint>
            <Time>2022-07-04T18:12:17.000Z</Time>
            <Position>
              <LatitudeDegrees>44.59805463440716266632080078125</LatitudeDegrees>
              <LongitudeDegrees>-1.19989047758281230926513671875</LongitudeDegrees>
            </Position>
            <AltitudeMeters>41</AltitudeMeters>
            <DistanceMeters>NAN</DistanceMeters>
          </Trackpoint>
          <Trackpoint>
            <Time>2022-07-04T18:12:25.000Z</Time>
            <Position>
              <LatitudeDegrees>44.59798850119113922119140625</LatitudeDegrees>
              <LongitudeDegrees>-1.199832223355770111083984375</LongitudeDegrees>
            </Position>
            <AltitudeMeters>41.40000152587890625</AltitudeMeters>
            <DistanceMeters>NAN</DistanceMeters>
          </Trackpoint>
          <Trackpoint>
            <Time>2022-07-04T18:12:33.000Z</Time>
            <Position>
              <LatitudeDegrees>44.59792722947895526885986328125</LatitudeDegrees>
              <LongitudeDegrees>-1.199805736541748046875</LongitudeDegrees>
            </Position>
            <AltitudeMeters>41.59999847412109375</AltitudeMeters>
            <DistanceMeters>NAN</DistanceMeters>
          </Trackpoint>
          <Trackpoint>
            <Time>2022-07-04T18:12:36.000Z</Time>
            <Position>
              <LatitudeDegrees>44.59786939434707164764404296875</LatitudeDegrees>
              <LongitudeDegrees>-1.19977262802422046661376953125</LongitudeDegrees>
            </Position>
            <AltitudeMeters>41.59999847412109375</AltitudeMeters>
            <DistanceMeters>NAN</DistanceMeters>
          </Trackpoint>
          <Trackpoint>
            <Time>2022-07-04T18:12:42.000Z</Time>
            <Position>
              <LatitudeDegrees>44.59776897914707660675048828125</LatitudeDegrees>
              <LongitudeDegrees>-1.19971378706395626068115234375</LongitudeDegrees>
            </Position>
            <AltitudeMeters>41.59999847412109375</AltitudeMeters>
            <DistanceMeters>NAN</DistanceMeters>
          </Trackpoint>
          <Trackpoint>
            <Time>2022-07-04T18:12:48.000Z</Time>
            <Position>
              <LatitudeDegrees>44.5976807177066802978515625</LatitudeDegrees>
              <LongitudeDegrees>-1.19963013567030429840087890625</LongitudeDegrees>
            </Position>
            <AltitudeMeters>41.59999847412109375</AltitudeMeters>
            <DistanceMeters>NAN</DistanceMeters>
          </Trackpoint>
          <Trackpoint>
            <Time>2022-07-04T18:12:49.000Z</Time>
            <Position>
              <LatitudeDegrees>44.59766931831836700439453125</LatitudeDegrees>
              <LongitudeDegrees>-1.19961739517748355865478515625</LongitudeDegrees>
            </Position>
            <AltitudeMeters>41.40000152587890625</AltitudeMeters>
            <DistanceMeters>NAN</DistanceMeters>
          </Trackpoint>
          <Trackpoint>
            <Time>2022-07-04T18:12:53.000Z</Time>
            <Position>
              <LatitudeDegrees>44.5976010896265506744384765625</LatitudeDegrees>
              <LongitudeDegrees>-1.19951966218650341033935546875</LongitudeDegrees>
            </Position>
            <AltitudeMeters>41.40000152587890625</AltitudeMeters>
            <DistanceMeters>NAN</DistanceMeters>
          </Trackpoint>
          <Trackpoint>
            <Time>2022-07-04T18:12:55.000Z</Time>
            <Position>
              <LatitudeDegrees>44.5975860022008419036865234375</LatitudeDegrees>
              <LongitudeDegrees>-1.19944338686764240264892578125</LongitudeDegrees>
            </Position>
            <AltitudeMeters>41.40000152587890625</AltitudeMeters>
            <DistanceMeters>NAN</DistanceMeters>
          </Trackpoint>
          <Trackpoint>
            <Time>2022-07-04T18:13:00.000Z</Time>
            <Position>
              <LatitudeDegrees>44.59756026975810527801513671875</LatitudeDegrees>
              <LongitudeDegrees>-1.1992590688169002532958984375</LongitudeDegrees>
            </Position>
            <AltitudeMeters>41.200000762939453125</AltitudeMeters>
            <DistanceMeters>NAN</DistanceMeters>
          </Trackpoint>
          <Trackpoint>
            <Time>2022-07-04T18:13:01.000Z</Time>
            <Position>
              <LatitudeDegrees>44.59755306132137775421142578125</LatitudeDegrees>
              <LongitudeDegrees>-1.199213303625583648681640625</LongitudeDegrees>
            </Position>
            <AltitudeMeters>41.200000762939453125</AltitudeMeters>
            <DistanceMeters>NAN</DistanceMeters>
          </Trackpoint>
          <Trackpoint>
            <Time>2022-07-04T18:13:09.000Z</Time>
            <Position>
              <LatitudeDegrees>44.5974931307137012481689453125</LatitudeDegrees>
              <LongitudeDegrees>-1.19889521040022373199462890625</LongitudeDegrees>
            </Position>
            <AltitudeMeters>41.200000762939453125</AltitudeMeters>
            <DistanceMeters>NAN</DistanceMeters>
          </Trackpoint>
          <Trackpoint>
            <Time>2022-07-04T18:13:14.000Z</Time>
            <Position>
              <LatitudeDegrees>44.59751643240451812744140625</LatitudeDegrees>
              <LongitudeDegrees>-1.19875087402760982513427734375</LongitudeDegrees>
            </Position>
            <AltitudeMeters>41.200000762939453125</AltitudeMeters>
            <DistanceMeters>NAN</DistanceMeters>
          </Trackpoint>
          <Trackpoint>
            <Time>2022-07-04T18:13:16.000Z</Time>
            <Position>
              <LatitudeDegrees>44.597511403262615203857421875</LatitudeDegrees>
              <LongitudeDegrees>-1.1987004987895488739013671875</LongitudeDegrees>
            </Position>
            <AltitudeMeters>41</AltitudeMeters>
            <DistanceMeters>NAN</DistanceMeters>
          </Trackpoint>
          <Trackpoint>
            <Time>2022-07-04T18:13:18.000Z</Time>
            <Position>
              <LatitudeDegrees>44.59752389229834079742431640625</LatitudeDegrees>
              <LongitudeDegrees>-1.1986431665718555450439453125</LongitudeDegrees>
            </Position>
            <AltitudeMeters>41</AltitudeMeters>
            <DistanceMeters>NAN</DistanceMeters>
          </Trackpoint>
          <Trackpoint>
            <Time>2022-07-04T18:13:20.000Z</Time>
            <Position>
              <LatitudeDegrees>44.59752791561186313629150390625</LatitudeDegrees>
              <LongitudeDegrees>-1.1986196972429752349853515625</LongitudeDegrees>
            </Position>
            <AltitudeMeters>41</AltitudeMeters>
            <DistanceMeters>NAN</DistanceMeters>
          </Trackpoint>
          <Trackpoint>
            <Time>2022-07-04T18:13:21.000Z</Time>
            <Position>
              <LatitudeDegrees>44.5975266583263874053955078125</LatitudeDegrees>
              <LongitudeDegrees>-1.1986166797578334808349609375</LongitudeDegrees>
            </Position>
            <AltitudeMeters>41</AltitudeMeters>
            <DistanceMeters>NAN</DistanceMeters>
          </Trackpoint>
          <Trackpoint>
            <Time>2022-07-04T18:13:22.000Z</Time>
            <Position>
              <LatitudeDegrees>44.5975266583263874053955078125</LatitudeDegrees>
              <LongitudeDegrees>-1.1986166797578334808349609375</LongitudeDegrees>
            </Position>
            <AltitudeMeters>41</AltitudeMeters>
            <DistanceMeters>NAN</DistanceMeters>
          </Trackpoint>
          <Trackpoint>
            <Time>2022-07-04T18:13:23.000Z</Time>
            <Position>
              <LatitudeDegrees>44.5975266583263874053955078125</LatitudeDegrees>
              <LongitudeDegrees>-1.1986166797578334808349609375</LongitudeDegrees>
            </Position>
            <AltitudeMeters>41</AltitudeMeters>
            <DistanceMeters>NAN</DistanceMeters>
          </Trackpoint>
          <Trackpoint>
            <Time>2022-07-04T18:13:45.000Z</Time>
            <Position>
              <LatitudeDegrees>44.59759891033172607421875</LatitudeDegrees>
              <LongitudeDegrees>-1.1985335312783718109130859375</LongitudeDegrees>
            </Position>
            <AltitudeMeters>41</AltitudeMeters>
            <DistanceMeters>NAN</DistanceMeters>
          </Trackpoint>
          <Trackpoint>
            <Time>2022-07-04T18:13:47.000Z</Time>
            <Position>
              <LatitudeDegrees>44.59762715734541416168212890625</LatitudeDegrees>
              <LongitudeDegrees>-1.19845247827470302581787109375</LongitudeDegrees>
            </Position>
            <AltitudeMeters>40.799999237060546875</AltitudeMeters>
            <DistanceMeters>NAN</DistanceMeters>
          </Trackpoint>
          <Trackpoint>
            <Time>2022-07-04T18:13:51.000Z</Time>
            <Position>
              <LatitudeDegrees>44.597685746848583221435546875</LatitudeDegrees>
              <LongitudeDegrees>-1.1982974968850612640380859375</LongitudeDegrees>
            </Position>
            <AltitudeMeters>40.799999237060546875</AltitudeMeters>
            <DistanceMeters>NAN</DistanceMeters>
          </Trackpoint>
          <Trackpoint>
            <Time>2022-07-04T18:13:59.000Z</Time>
            <Position>
              <LatitudeDegrees>44.59776646457612514495849609375</LatitudeDegrees>
              <LongitudeDegrees>-1.19795761071145534515380859375</LongitudeDegrees>
            </Position>
            <AltitudeMeters>40.799999237060546875</AltitudeMeters>
            <DistanceMeters>NAN</DistanceMeters>
          </Trackpoint>
          <Trackpoint>
            <Time>2022-07-04T18:14:06.000Z</Time>
            <Position>
              <LatitudeDegrees>44.59786268882453441619873046875</LatitudeDegrees>
              <LongitudeDegrees>-1.1976718716323375701904296875</LongitudeDegrees>
            </Position>
            <AltitudeMeters>40.59999847412109375</AltitudeMeters>
            <DistanceMeters>NAN</DistanceMeters>
          </Trackpoint>
          <Trackpoint>
            <Time>2022-07-04T18:14:12.000Z</Time>
            <Position>
              <LatitudeDegrees>44.59786537103354930877685546875</LatitudeDegrees>
              <LongitudeDegrees>-1.19742988608777523040771484375</LongitudeDegrees>
            </Position>
            <AltitudeMeters>40.799999237060546875</AltitudeMeters>
            <DistanceMeters>NAN</DistanceMeters>
          </Trackpoint>
          <Trackpoint>
            <Time>2022-07-04T18:14:17.000Z</Time>
            <Position>
              <LatitudeDegrees>44.59795472212135791778564453125</LatitudeDegrees>
              <LongitudeDegrees>-1.19726241566240787506103515625</LongitudeDegrees>
            </Position>
            <AltitudeMeters>40.799999237060546875</AltitudeMeters>
            <DistanceMeters>NAN</DistanceMeters>
          </Trackpoint>
          <Trackpoint>
            <Time>2022-07-04T18:14:20.000Z</Time>
            <Position>
              <LatitudeDegrees>44.59802848286926746368408203125</LatitudeDegrees>
              <LongitudeDegrees>-1.19714825414121150970458984375</LongitudeDegrees>
            </Position>
            <AltitudeMeters>40.59999847412109375</AltitudeMeters>
            <DistanceMeters>NAN</DistanceMeters>
          </Trackpoint>
          <Trackpoint>
            <Time>2022-07-04T18:14:21.000Z</Time>
            <Position>
              <LatitudeDegrees>44.59803141653537750244140625</LatitudeDegrees>
              <LongitudeDegrees>-1.19709712453186511993408203125</LongitudeDegrees>
            </Position>
            <AltitudeMeters>40.59999847412109375</AltitudeMeters>
            <DistanceMeters>NAN</DistanceMeters>
          </Trackpoint>
          <Trackpoint>
            <Time>2022-07-04T18:14:23.000Z</Time>
            <Position>
              <LatitudeDegrees>44.5980074442923069000244140625</LatitudeDegrees>
              <LongitudeDegrees>-1.19699419476091861724853515625</LongitudeDegrees>
            </Position>
            <AltitudeMeters>40.59999847412109375</AltitudeMeters>
            <DistanceMeters>NAN</DistanceMeters>
          </Trackpoint>
          <Trackpoint>
            <Time>2022-07-04T18:14:24.000Z</Time>
            <Position>
              <LatitudeDegrees>44.597987830638885498046875</LatitudeDegrees>
              <LongitudeDegrees>-1.19694775901734828948974609375</LongitudeDegrees>
            </Position>
            <AltitudeMeters>40.59999847412109375</AltitudeMeters>
            <DistanceMeters>NAN</DistanceMeters>
          </Trackpoint>
          <Trackpoint>
            <Time>2022-07-04T18:14:26.000Z</Time>
            <Position>
              <LatitudeDegrees>44.5979397185146808624267578125</LatitudeDegrees>
              <LongitudeDegrees>-1.19685656391084194183349609375</LongitudeDegrees>
            </Position>
            <AltitudeMeters>40.40000152587890625</AltitudeMeters>
            <DistanceMeters>NAN</DistanceMeters>
          </Trackpoint>
          <Trackpoint>
            <Time>2022-07-04T18:14:31.000Z</Time>
            <Position>
              <LatitudeDegrees>44.59789956919848918914794921875</LatitudeDegrees>
              <LongitudeDegrees>-1.1966596730053424835205078125</LongitudeDegrees>
            </Position>
            <AltitudeMeters>40.40000152587890625</AltitudeMeters>
            <DistanceMeters>NAN</DistanceMeters>
          </Trackpoint>
          <Trackpoint>
            <Time>2022-07-04T18:14:36.000Z</Time>
            <Position>
              <LatitudeDegrees>44.59793024696409702301025390625</LatitudeDegrees>
              <LongitudeDegrees>-1.19644870050251483917236328125</LongitudeDegrees>
            </Position>
            <AltitudeMeters>39.799999237060546875</AltitudeMeters>
            <DistanceMeters>NAN</DistanceMeters>
          </Trackpoint>
          <Trackpoint>
            <Time>2022-07-04T18:14:37.000Z</Time>
            <Position>
              <LatitudeDegrees>44.5979159139096736907958984375</LatitudeDegrees>
              <LongitudeDegrees>-1.1964236386120319366455078125</LongitudeDegrees>
            </Position>
            <AltitudeMeters>39.799999237060546875</AltitudeMeters>
            <DistanceMeters>NAN</DistanceMeters>
          </Trackpoint>
          <Trackpoint>
            <Time>2022-07-04T18:14:39.000Z</Time>
            <Position>
              <LatitudeDegrees>44.59786620922386646270751953125</LatitudeDegrees>
              <LongitudeDegrees>-1.1963998340070247650146484375</LongitudeDegrees>
            </Position>
            <AltitudeMeters>39.799999237060546875</AltitudeMeters>
            <DistanceMeters>NAN</DistanceMeters>
          </Trackpoint>
          <Trackpoint>
            <Time>2022-07-04T18:14:46.000Z</Time>
            <Position>
              <LatitudeDegrees>44.59760653786361217498779296875</LatitudeDegrees>
              <LongitudeDegrees>-1.1963525600731372833251953125</LongitudeDegrees>
            </Position>
            <AltitudeMeters>40</AltitudeMeters>
            <DistanceMeters>NAN</DistanceMeters>
          </Trackpoint>
          <Trackpoint>
            <Time>2022-07-04T18:14:52.000Z</Time>
            <Position>
              <LatitudeDegrees>44.59735977463424205780029296875</LatitudeDegrees>
              <LongitudeDegrees>-1.1962794698774814605712890625</LongitudeDegrees>
            </Position>
            <AltitudeMeters>40.200000762939453125</AltitudeMeters>
            <DistanceMeters>NAN</DistanceMeters>
          </Trackpoint>
          <Trackpoint>
            <Time>2022-07-04T18:15:00.000Z</Time>
            <Position>
              <LatitudeDegrees>44.5970264263451099395751953125</LatitudeDegrees>
              <LongitudeDegrees>-1.1961819045245647430419921875</LongitudeDegrees>
            </Position>
            <AltitudeMeters>40.40000152587890625</AltitudeMeters>
            <DistanceMeters>NAN</DistanceMeters>
          </Trackpoint>
          <Trackpoint>
            <Time>2022-07-04T18:15:04.000Z</Time>
            <Position>
              <LatitudeDegrees>44.5968903042376041412353515625</LatitudeDegrees>
              <LongitudeDegrees>-1.1961265839636325836181640625</LongitudeDegrees>
            </Position>
            <AltitudeMeters>40.40000152587890625</AltitudeMeters>
            <DistanceMeters>NAN</DistanceMeters>
          </Trackpoint>
          <Trackpoint>
            <Time>2022-07-04T18:15:06.000Z</Time>
            <Position>
              <LatitudeDegrees>44.5968252606689929962158203125</LatitudeDegrees>
              <LongitudeDegrees>-1.19610386900603771209716796875</LongitudeDegrees>
            </Position>
            <AltitudeMeters>40.40000152587890625</AltitudeMeters>
            <DistanceMeters>NAN</DistanceMeters>
          </Trackpoint>
          <Trackpoint>
            <Time>2022-07-04T18:15:11.000Z</Time>
            <Position>
              <LatitudeDegrees>44.596619904041290283203125</LatitudeDegrees>
              <LongitudeDegrees>-1.1960806511342525482177734375</LongitudeDegrees>
            </Position>
            <AltitudeMeters>40.59999847412109375</AltitudeMeters>
            <DistanceMeters>NAN</DistanceMeters>
          </Trackpoint>
          <Trackpoint>
            <Time>2022-07-04T18:15:13.000Z</Time>
            <Position>
              <LatitudeDegrees>44.596531055867671966552734375</LatitudeDegrees>
              <LongitudeDegrees>-1.1960575170814990997314453125</LongitudeDegrees>
            </Position>
            <AltitudeMeters>40.59999847412109375</AltitudeMeters>
            <DistanceMeters>NAN</DistanceMeters>
          </Trackpoint>
          <Trackpoint>
            <Time>2022-07-04T18:15:19.000Z</Time>
            <Position>
              <LatitudeDegrees>44.59629560820758342742919921875</LatitudeDegrees>
              <LongitudeDegrees>-1.19594276882708072662353515625</LongitudeDegrees>
            </Position>
            <AltitudeMeters>40.799999237060546875</AltitudeMeters>
            <DistanceMeters>NAN</DistanceMeters>
          </Trackpoint>
          <Trackpoint>
            <Time>2022-07-04T18:15:22.000Z</Time>
            <Position>
              <LatitudeDegrees>44.59617775864899158477783203125</LatitudeDegrees>
              <LongitudeDegrees>-1.19591041468083858489990234375</LongitudeDegrees>
            </Position>
            <AltitudeMeters>40.59999847412109375</AltitudeMeters>
            <DistanceMeters>NAN</DistanceMeters>
          </Trackpoint>
          <Trackpoint>
            <Time>2022-07-04T18:15:29.000Z</Time>
            <Position>
              <LatitudeDegrees>44.59585472010076045989990234375</LatitudeDegrees>
              <LongitudeDegrees>-1.19584604166448116302490234375</LongitudeDegrees>
            </Position>
            <AltitudeMeters>40.200000762939453125</AltitudeMeters>
            <DistanceMeters>NAN</DistanceMeters>
          </Trackpoint>
          <Trackpoint>
            <Time>2022-07-04T18:15:33.000Z</Time>
            <Position>
              <LatitudeDegrees>44.595658667385578155517578125</LatitudeDegrees>
              <LongitudeDegrees>-1.19582735002040863037109375</LongitudeDegrees>
            </Position>
            <AltitudeMeters>39.59999847412109375</AltitudeMeters>
            <DistanceMeters>NAN</DistanceMeters>
          </Trackpoint>
          <Trackpoint>
            <Time>2022-07-04T18:15:36.000Z</Time>
            <Position>
              <LatitudeDegrees>44.59550318308174610137939453125</LatitudeDegrees>
              <LongitudeDegrees>-1.19581871666014194488525390625</LongitudeDegrees>
            </Position>
            <AltitudeMeters>39.40000152587890625</AltitudeMeters>
            <DistanceMeters>NAN</DistanceMeters>
          </Trackpoint>
          <Trackpoint>
            <Time>2022-07-04T18:15:43.000Z</Time>
            <Position>
              <LatitudeDegrees>44.59511577151715755462646484375</LatitudeDegrees>
              <LongitudeDegrees>-1.1957658268511295318603515625</LongitudeDegrees>
            </Position>
            <AltitudeMeters>38.799999237060546875</AltitudeMeters>
            <DistanceMeters>NAN</DistanceMeters>
          </Trackpoint>
          <Trackpoint>
            <Time>2022-07-04T18:15:45.000Z</Time>
            <Position>
              <LatitudeDegrees>44.59499741904437541961669921875</LatitudeDegrees>
              <LongitudeDegrees>-1.1957607977092266082763671875</LongitudeDegrees>
            </Position>
            <AltitudeMeters>38.59999847412109375</AltitudeMeters>
            <DistanceMeters>NAN</DistanceMeters>
          </Trackpoint>
          <Trackpoint>
            <Time>2022-07-04T18:15:50.000Z</Time>
            <Position>
              <LatitudeDegrees>44.5946875400841236114501953125</LatitudeDegrees>
              <LongitudeDegrees>-1.19575551711022853851318359375</LongitudeDegrees>
            </Position>
            <AltitudeMeters>38</AltitudeMeters>
            <DistanceMeters>NAN</DistanceMeters>
          </Trackpoint>
          <Trackpoint>
            <Time>2022-07-04T18:15:51.000Z</Time>
            <Position>
              <LatitudeDegrees>44.59462693892419338226318359375</LatitudeDegrees>
              <LongitudeDegrees>-1.1957601271569728851318359375</LongitudeDegrees>
            </Position>
            <AltitudeMeters>38</AltitudeMeters>
            <DistanceMeters>NAN</DistanceMeters>
          </Trackpoint>
          <Trackpoint>
            <Time>2022-07-04T18:15:55.000Z</Time>
            <Position>
              <LatitudeDegrees>44.5943924970924854278564453125</LatitudeDegrees>
              <LongitudeDegrees>-1.1957554332911968231201171875</LongitudeDegrees>
            </Position>
            <AltitudeMeters>37.59999847412109375</AltitudeMeters>
            <DistanceMeters>NAN</DistanceMeters>
          </Trackpoint>
          <Trackpoint>
            <Time>2022-07-04T18:15:59.000Z</Time>
            <Position>
              <LatitudeDegrees>44.59416501224040985107421875</LatitudeDegrees>
              <LongitudeDegrees>-1.1957825906574726104736328125</LongitudeDegrees>
            </Position>
            <AltitudeMeters>36.40000152587890625</AltitudeMeters>
            <DistanceMeters>NAN</DistanceMeters>
          </Trackpoint>
          <Trackpoint>
            <Time>2022-07-04T18:16:00.000Z</Time>
            <Position>
              <LatitudeDegrees>44.594109691679477691650390625</LatitudeDegrees>
              <LongitudeDegrees>-1.19578787125647068023681640625</LongitudeDegrees>
            </Position>
            <AltitudeMeters>36.200000762939453125</AltitudeMeters>
            <DistanceMeters>NAN</DistanceMeters>
          </Trackpoint>
          <Trackpoint>
            <Time>2022-07-04T18:16:06.000Z</Time>
            <Position>
              <LatitudeDegrees>44.59378413856029510498046875</LatitudeDegrees>
              <LongitudeDegrees>-1.19584637694060802459716796875</LongitudeDegrees>
            </Position>
            <AltitudeMeters>35.40000152587890625</AltitudeMeters>
            <DistanceMeters>NAN</DistanceMeters>
          </Trackpoint>
          <Trackpoint>
            <Time>2022-07-04T18:16:08.000Z</Time>
            <Position>
              <LatitudeDegrees>44.5936505310237407684326171875</LatitudeDegrees>
              <LongitudeDegrees>-1.19586314074695110321044921875</LongitudeDegrees>
            </Position>
            <AltitudeMeters>35.200000762939453125</AltitudeMeters>
            <DistanceMeters>NAN</DistanceMeters>
          </Trackpoint>
          <Trackpoint>
            <Time>2022-07-04T18:16:15.000Z</Time>
            <Position>
              <LatitudeDegrees>44.593296982347965240478515625</LatitudeDegrees>
              <LongitudeDegrees>-1.19594126008450984954833984375</LongitudeDegrees>
            </Position>
            <AltitudeMeters>34.799999237060546875</AltitudeMeters>
            <DistanceMeters>NAN</DistanceMeters>
          </Trackpoint>
          <Trackpoint>
            <Time>2022-07-04T18:16:20.000Z</Time>
            <Position>
              <LatitudeDegrees>44.59307947196066379547119140625</LatitudeDegrees>
              <LongitudeDegrees>-1.19598082266747951507568359375</LongitudeDegrees>
            </Position>
            <AltitudeMeters>34.40000152587890625</AltitudeMeters>
            <DistanceMeters>NAN</DistanceMeters>
          </Trackpoint>
          <Trackpoint>
            <Time>2022-07-04T18:16:21.000Z</Time>
            <Position>
              <LatitudeDegrees>44.59304091520607471466064453125</LatitudeDegrees>
              <LongitudeDegrees>-1.195991970598697662353515625</LongitudeDegrees>
            </Position>
            <AltitudeMeters>34.40000152587890625</AltitudeMeters>
            <DistanceMeters>NAN</DistanceMeters>
          </Trackpoint>
          <Trackpoint>
            <Time>2022-07-04T18:16:27.000Z</Time>
            <Position>
              <LatitudeDegrees>44.5927258394658565521240234375</LatitudeDegrees>
              <LongitudeDegrees>-1.19604301638901233673095703125</LongitudeDegrees>
            </Position>
            <AltitudeMeters>33.799999237060546875</AltitudeMeters>
            <DistanceMeters>NAN</DistanceMeters>
          </Trackpoint>
          <Trackpoint>
            <Time>2022-07-04T18:16:29.000Z</Time>
            <Position>
              <LatitudeDegrees>44.59261394105851650238037109375</LatitudeDegrees>
              <LongitudeDegrees>-1.19605793617665767669677734375</LongitudeDegrees>
            </Position>
            <AltitudeMeters>33.40000152587890625</AltitudeMeters>
            <DistanceMeters>NAN</DistanceMeters>
          </Trackpoint>
          <Trackpoint>
            <Time>2022-07-04T18:16:32.000Z</Time>
            <Position>
              <LatitudeDegrees>44.592424593865871429443359375</LatitudeDegrees>
              <LongitudeDegrees>-1.19608526118099689483642578125</LongitudeDegrees>
            </Position>
            <AltitudeMeters>32.40000152587890625</AltitudeMeters>
            <DistanceMeters>NAN</DistanceMeters>
          </Trackpoint>
          <Trackpoint>
            <Time>2022-07-04T18:16:33.000Z</Time>
            <Position>
              <LatitudeDegrees>44.59237572737038135528564453125</LatitudeDegrees>
              <LongitudeDegrees>-1.19608844630420207977294921875</LongitudeDegrees>
            </Position>
            <AltitudeMeters>32.200000762939453125</AltitudeMeters>
            <DistanceMeters>NAN</DistanceMeters>
          </Trackpoint>
          <Trackpoint>
            <Time>2022-07-04T18:16:37.000Z</Time>
            <Position>
              <LatitudeDegrees>44.59209837019443511962890625</LatitudeDegrees>
              <LongitudeDegrees>-1.19614846073091030120849609375</LongitudeDegrees>
            </Position>
            <AltitudeMeters>31.200000762939453125</AltitudeMeters>
            <DistanceMeters>NAN</DistanceMeters>
          </Trackpoint>
          <Trackpoint>
            <Time>2022-07-04T18:16:40.000Z</Time>
            <Position>
              <LatitudeDegrees>44.5918899960815906524658203125</LatitudeDegrees>
              <LongitudeDegrees>-1.19618433527648448944091796875</LongitudeDegrees>
            </Position>
            <AltitudeMeters>30.799999237060546875</AltitudeMeters>
            <DistanceMeters>NAN</DistanceMeters>
          </Trackpoint>
          <Trackpoint>
            <Time>2022-07-04T18:16:41.000Z</Time>
            <Position>
              <LatitudeDegrees>44.59181732498109340667724609375</LatitudeDegrees>
              <LongitudeDegrees>-1.19620327837765216827392578125</LongitudeDegrees>
            </Position>
            <AltitudeMeters>30.200000762939453125</AltitudeMeters>
            <DistanceMeters>NAN</DistanceMeters>
          </Trackpoint>
          <Trackpoint>
            <Time>2022-07-04T18:16:45.000Z</Time>
            <Position>
              <LatitudeDegrees>44.59157475270330905914306640625</LatitudeDegrees>
              <LongitudeDegrees>-1.19630905799567699432373046875</LongitudeDegrees>
            </Position>
            <AltitudeMeters>29.200000762939453125</AltitudeMeters>
            <DistanceMeters>NAN</DistanceMeters>
          </Trackpoint>
          <Trackpoint>
            <Time>2022-07-04T18:16:47.000Z</Time>
            <Position>
              <LatitudeDegrees>44.59151909686625003814697265625</LatitudeDegrees>
              <LongitudeDegrees>-1.19633839465677738189697265625</LongitudeDegrees>
            </Position>
            <AltitudeMeters>28.200000762939453125</AltitudeMeters>
            <DistanceMeters>NAN</DistanceMeters>
          </Trackpoint>
          <Trackpoint>
            <Time>2022-07-04T18:16:48.000Z</Time>
            <Position>
              <LatitudeDegrees>44.5915111340582370758056640625</LatitudeDegrees>
              <LongitudeDegrees>-1.19634510017931461334228515625</LongitudeDegrees>
            </Position>
            <AltitudeMeters>27.6000003814697265625</AltitudeMeters>
            <DistanceMeters>NAN</DistanceMeters>
          </Trackpoint>
          <Trackpoint>
            <Time>2022-07-04T18:16:50.000Z</Time>
            <Position>
              <LatitudeDegrees>44.59151641465723514556884765625</LatitudeDegrees>
              <LongitudeDegrees>-1.19634023867547512054443359375</LongitudeDegrees>
            </Position>
            <AltitudeMeters>27.200000762939453125</AltitudeMeters>
            <DistanceMeters>NAN</DistanceMeters>
          </Trackpoint>
          <Trackpoint>
            <Time>2022-07-04T18:16:51.000Z</Time>
            <Position>
              <LatitudeDegrees>44.59151641465723514556884765625</LatitudeDegrees>
              <LongitudeDegrees>-1.19634023867547512054443359375</LongitudeDegrees>
            </Position>
            <AltitudeMeters>27</AltitudeMeters>
            <DistanceMeters>NAN</DistanceMeters>
          </Trackpoint>
          <Trackpoint>
            <Time>2022-07-04T18:17:46.000Z</Time>
            <Position>
              <LatitudeDegrees>44.591467045247554779052734375</LatitudeDegrees>
              <LongitudeDegrees>-1.19637058116495609283447265625</LongitudeDegrees>
            </Position>
            <AltitudeMeters>26.799999237060546875</AltitudeMeters>
            <DistanceMeters>NAN</DistanceMeters>
          </Trackpoint>
          <Trackpoint>
            <Time>2022-07-04T18:17:47.000Z</Time>
            <Position>
              <LatitudeDegrees>44.591443240642547607421875</LatitudeDegrees>
              <LongitudeDegrees>-1.19639270938932895660400390625</LongitudeDegrees>
            </Position>
            <AltitudeMeters>26.6000003814697265625</AltitudeMeters>
            <DistanceMeters>NAN</DistanceMeters>
          </Trackpoint>
          <Trackpoint>
            <Time>2022-07-04T18:17:48.000Z</Time>
            <Position>
              <LatitudeDegrees>44.59141566418111324310302734375</LatitudeDegrees>
              <LongitudeDegrees>-1.1964155919849872589111328125</LongitudeDegrees>
            </Position>
            <AltitudeMeters>26.6000003814697265625</AltitudeMeters>
            <DistanceMeters>NAN</DistanceMeters>
          </Trackpoint>
          <Trackpoint>
            <Time>2022-07-04T18:17:53.000Z</Time>
            <Position>
              <LatitudeDegrees>44.5912553183734416961669921875</LatitudeDegrees>
              <LongitudeDegrees>-1.196588091552257537841796875</LongitudeDegrees>
            </Position>
            <AltitudeMeters>26.6000003814697265625</AltitudeMeters>
            <DistanceMeters>NAN</DistanceMeters>
          </Trackpoint>
          <Trackpoint>
            <Time>2022-07-04T18:17:54.000Z</Time>
            <Position>
              <LatitudeDegrees>44.59121835418045520782470703125</LatitudeDegrees>
              <LongitudeDegrees>-1.19662371464073657989501953125</LongitudeDegrees>
            </Position>
            <AltitudeMeters>26.6000003814697265625</AltitudeMeters>
            <DistanceMeters>NAN</DistanceMeters>
          </Trackpoint>
          <Trackpoint>
            <Time>2022-07-04T18:17:58.000Z</Time>
            <Position>
              <LatitudeDegrees>44.5910896919667720794677734375</LatitudeDegrees>
              <LongitudeDegrees>-1.196771152317523956298828125</LongitudeDegrees>
            </Position>
            <AltitudeMeters>26.200000762939453125</AltitudeMeters>
            <DistanceMeters>NAN</DistanceMeters>
          </Trackpoint>
          <Trackpoint>
            <Time>2022-07-04T18:17:59.000Z</Time>
            <Position>
              <LatitudeDegrees>44.59105758927762508392333984375</LatitudeDegrees>
              <LongitudeDegrees>-1.19680593721568584442138671875</LongitudeDegrees>
            </Position>
            <AltitudeMeters>26.200000762939453125</AltitudeMeters>
            <DistanceMeters>NAN</DistanceMeters>
          </Trackpoint>
          <Trackpoint>
            <Time>2022-07-04T18:18:00.000Z</Time>
            <Position>
              <LatitudeDegrees>44.59102724678814411163330078125</LatitudeDegrees>
              <LongitudeDegrees>-1.1968440748751163482666015625</LongitudeDegrees>
            </Position>
            <AltitudeMeters>26</AltitudeMeters>
            <DistanceMeters>NAN</DistanceMeters>
          </Trackpoint>
          <Trackpoint>
            <Time>2022-07-04T18:18:04.000Z</Time>
            <Position>
              <LatitudeDegrees>44.590887688100337982177734375</LatitudeDegrees>
              <LongitudeDegrees>-1.1969795264303684234619140625</LongitudeDegrees>
            </Position>
            <AltitudeMeters>26.3999996185302734375</AltitudeMeters>
            <DistanceMeters>NAN</DistanceMeters>
          </Trackpoint>
          <Trackpoint>
            <Time>2022-07-04T18:18:05.000Z</Time>
            <Position>
              <LatitudeDegrees>44.59085877053439617156982421875</LatitudeDegrees>
              <LongitudeDegrees>-1.19701548479497432708740234375</LongitudeDegrees>
            </Position>
            <AltitudeMeters>26.6000003814697265625</AltitudeMeters>
            <DistanceMeters>NAN</DistanceMeters>
          </Trackpoint>
          <Trackpoint>
            <Time>2022-07-04T18:18:07.000Z</Time>
            <Position>
              <LatitudeDegrees>44.5907980017364025115966796875</LatitudeDegrees>
              <LongitudeDegrees>-1.1970899999141693115234375</LongitudeDegrees>
            </Position>
            <AltitudeMeters>26.6000003814697265625</AltitudeMeters>
            <DistanceMeters>NAN</DistanceMeters>
          </Trackpoint>
          <Trackpoint>
            <Time>2022-07-04T18:18:13.000Z</Time>
            <Position>
              <LatitudeDegrees>44.59059239365160465240478515625</LatitudeDegrees>
              <LongitudeDegrees>-1.19730901904404163360595703125</LongitudeDegrees>
            </Position>
            <AltitudeMeters>26.3999996185302734375</AltitudeMeters>
            <DistanceMeters>NAN</DistanceMeters>
          </Trackpoint>
          <Trackpoint>
            <Time>2022-07-04T18:18:21.000Z</Time>
            <Position>
              <LatitudeDegrees>44.59031260572373867034912109375</LatitudeDegrees>
              <LongitudeDegrees>-1.19762971065938472747802734375</LongitudeDegrees>
            </Position>
            <AltitudeMeters>26.200000762939453125</AltitudeMeters>
            <DistanceMeters>NAN</DistanceMeters>
          </Trackpoint>
          <Trackpoint>
            <Time>2022-07-04T18:18:27.000Z</Time>
            <Position>
              <LatitudeDegrees>44.5900996215641498565673828125</LatitudeDegrees>
              <LongitudeDegrees>-1.197882592678070068359375</LongitudeDegrees>
            </Position>
            <AltitudeMeters>26</AltitudeMeters>
            <DistanceMeters>NAN</DistanceMeters>
          </Trackpoint>
          <Trackpoint>
            <Time>2022-07-04T18:18:30.000Z</Time>
            <Position>
              <LatitudeDegrees>44.58999417722225189208984375</LatitudeDegrees>
              <LongitudeDegrees>-1.19800136424601078033447265625</LongitudeDegrees>
            </Position>
            <AltitudeMeters>26.200000762939453125</AltitudeMeters>
            <DistanceMeters>NAN</DistanceMeters>
          </Trackpoint>
          <Trackpoint>
            <Time>2022-07-04T18:18:34.000Z</Time>
            <Position>
              <LatitudeDegrees>44.58985210396349430084228515625</LatitudeDegrees>
              <LongitudeDegrees>-1.19815106503665447235107421875</LongitudeDegrees>
            </Position>
            <AltitudeMeters>26.200000762939453125</AltitudeMeters>
            <DistanceMeters>NAN</DistanceMeters>
          </Trackpoint>
          <Trackpoint>
            <Time>2022-07-04T18:18:38.000Z</Time>
            <Position>
              <LatitudeDegrees>44.5897093601524829864501953125</LatitudeDegrees>
              <LongitudeDegrees>-1.19828618131577968597412109375</LongitudeDegrees>
            </Position>
            <AltitudeMeters>26.3999996185302734375</AltitudeMeters>
            <DistanceMeters>NAN</DistanceMeters>
          </Trackpoint>
          <Trackpoint>
            <Time>2022-07-04T18:18:45.000Z</Time>
            <Position>
              <LatitudeDegrees>44.58949939347803592681884765625</LatitudeDegrees>
              <LongitudeDegrees>-1.198507212102413177490234375</LongitudeDegrees>
            </Position>
            <AltitudeMeters>26.799999237060546875</AltitudeMeters>
            <DistanceMeters>NAN</DistanceMeters>
          </Trackpoint>
          <Trackpoint>
            <Time>2022-07-04T18:18:49.000Z</Time>
            <Position>
              <LatitudeDegrees>44.58939746953547000885009765625</LatitudeDegrees>
              <LongitudeDegrees>-1.19859798811376094818115234375</LongitudeDegrees>
            </Position>
            <AltitudeMeters>27</AltitudeMeters>
            <DistanceMeters>NAN</DistanceMeters>
          </Trackpoint>
          <Trackpoint>
            <Time>2022-07-04T18:18:51.000Z</Time>
            <Position>
              <LatitudeDegrees>44.58935589529573917388916015625</LatitudeDegrees>
              <LongitudeDegrees>-1.1986404843628406524658203125</LongitudeDegrees>
            </Position>
            <AltitudeMeters>27</AltitudeMeters>
            <DistanceMeters>NAN</DistanceMeters>
          </Trackpoint>
          <Trackpoint>
            <Time>2022-07-04T18:18:54.000Z</Time>
            <Position>
              <LatitudeDegrees>44.5893053524196147918701171875</LatitudeDegrees>
              <LongitudeDegrees>-1.1987206153571605682373046875</LongitudeDegrees>
            </Position>
            <AltitudeMeters>27.3999996185302734375</AltitudeMeters>
            <DistanceMeters>NAN</DistanceMeters>
          </Trackpoint>
          <Trackpoint>
            <Time>2022-07-04T18:18:58.000Z</Time>
            <Position>
              <LatitudeDegrees>44.5892406441271305084228515625</LatitudeDegrees>
              <LongitudeDegrees>-1.198827736079692840576171875</LongitudeDegrees>
            </Position>
            <AltitudeMeters>28.200000762939453125</AltitudeMeters>
            <DistanceMeters>NAN</DistanceMeters>
          </Trackpoint>
          <Trackpoint>
            <Time>2022-07-04T18:18:59.000Z</Time>
            <Position>
              <LatitudeDegrees>44.589222371578216552734375</LatitudeDegrees>
              <LongitudeDegrees>-1.19884307496249675750732421875</LongitudeDegrees>
            </Position>
            <AltitudeMeters>28.3999996185302734375</AltitudeMeters>
            <DistanceMeters>NAN</DistanceMeters>
          </Trackpoint>
          <Trackpoint>
            <Time>2022-07-04T18:19:05.000Z</Time>
            <Position>
              <LatitudeDegrees>44.58909622393548488616943359375</LatitudeDegrees>
              <LongitudeDegrees>-1.19895958341658115386962890625</LongitudeDegrees>
            </Position>
            <AltitudeMeters>29.3999996185302734375</AltitudeMeters>
            <DistanceMeters>NAN</DistanceMeters>
          </Trackpoint>
          <Trackpoint>
            <Time>2022-07-04T18:19:07.000Z</Time>
            <Position>
              <LatitudeDegrees>44.58907275460660457611083984375</LatitudeDegrees>
              <LongitudeDegrees>-1.1990039236843585968017578125</LongitudeDegrees>
            </Position>
            <AltitudeMeters>29.6000003814697265625</AltitudeMeters>
            <DistanceMeters>NAN</DistanceMeters>
          </Trackpoint>
          <Trackpoint>
            <Time>2022-07-04T18:19:13.000Z</Time>
            <Position>
              <LatitudeDegrees>44.58900569938123226165771484375</LatitudeDegrees>
              <LongitudeDegrees>-1.1991480924189090728759765625</LongitudeDegrees>
            </Position>
            <AltitudeMeters>30.200000762939453125</AltitudeMeters>
            <DistanceMeters>NAN</DistanceMeters>
          </Trackpoint>
          <Trackpoint>
            <Time>2022-07-04T18:19:14.000Z</Time>
            <Position>
              <LatitudeDegrees>44.588998071849346160888671875</LatitudeDegrees>
              <LongitudeDegrees>-1.199176423251628875732421875</LongitudeDegrees>
            </Position>
            <AltitudeMeters>30.3999996185302734375</AltitudeMeters>
            <DistanceMeters>NAN</DistanceMeters>
          </Trackpoint>
          <Trackpoint>
            <Time>2022-07-04T18:19:22.000Z</Time>
            <Position>
              <LatitudeDegrees>44.58885231055319309234619140625</LatitudeDegrees>
              <LongitudeDegrees>-1.19933358393609523773193359375</LongitudeDegrees>
            </Position>
            <AltitudeMeters>31.200000762939453125</AltitudeMeters>
            <DistanceMeters>NAN</DistanceMeters>
          </Trackpoint>
          <Trackpoint>
            <Time>2022-07-04T18:19:25.000Z</Time>
            <Position>
              <LatitudeDegrees>44.58881056867539882659912109375</LatitudeDegrees>
              <LongitudeDegrees>-1.19942427612841129302978515625</LongitudeDegrees>
            </Position>
            <AltitudeMeters>31.3999996185302734375</AltitudeMeters>
            <DistanceMeters>NAN</DistanceMeters>
          </Trackpoint>
          <Trackpoint>
            <Time>2022-07-04T18:19:30.000Z</Time>
            <Position>
              <LatitudeDegrees>44.5887340418994426727294921875</LatitudeDegrees>
              <LongitudeDegrees>-1.19956274516880512237548828125</LongitudeDegrees>
            </Position>
            <AltitudeMeters>32</AltitudeMeters>
            <DistanceMeters>NAN</DistanceMeters>
          </Trackpoint>
          <Trackpoint>
            <Time>2022-07-04T18:19:35.000Z</Time>
            <Position>
              <LatitudeDegrees>44.58866556175053119659423828125</LatitudeDegrees>
              <LongitudeDegrees>-1.1996942572295665740966796875</LongitudeDegrees>
            </Position>
            <AltitudeMeters>32.40000152587890625</AltitudeMeters>
            <DistanceMeters>NAN</DistanceMeters>
          </Trackpoint>
          <Trackpoint>
            <Time>2022-07-04T18:19:36.000Z</Time>
            <Position>
              <LatitudeDegrees>44.58865064196288585662841796875</LatitudeDegrees>
              <LongitudeDegrees>-1.1997261084616184234619140625</LongitudeDegrees>
            </Position>
            <AltitudeMeters>32.40000152587890625</AltitudeMeters>
            <DistanceMeters>NAN</DistanceMeters>
          </Trackpoint>
          <Trackpoint>
            <Time>2022-07-04T18:19:41.000Z</Time>
            <Position>
              <LatitudeDegrees>44.588575623929500579833984375</LatitudeDegrees>
              <LongitudeDegrees>-1.1998937465250492095947265625</LongitudeDegrees>
            </Position>
            <AltitudeMeters>32.799999237060546875</AltitudeMeters>
            <DistanceMeters>NAN</DistanceMeters>
          </Trackpoint>
          <Trackpoint>
            <Time>2022-07-04T18:19:48.000Z</Time>
            <Position>
              <LatitudeDegrees>44.58847763948142528533935546875</LatitudeDegrees>
              <LongitudeDegrees>-1.20011477731168270111083984375</LongitudeDegrees>
            </Position>
            <AltitudeMeters>33.200000762939453125</AltitudeMeters>
            <DistanceMeters>NAN</DistanceMeters>
          </Trackpoint>
          <Trackpoint>
            <Time>2022-07-04T18:19:51.000Z</Time>
            <Position>
              <LatitudeDegrees>44.588429443538188934326171875</LatitudeDegrees>
              <LongitudeDegrees>-1.2002085708081722259521484375</LongitudeDegrees>
            </Position>
            <AltitudeMeters>33.40000152587890625</AltitudeMeters>
            <DistanceMeters>NAN</DistanceMeters>
          </Trackpoint>
          <Trackpoint>
            <Time>2022-07-04T18:19:53.000Z</Time>
            <Position>
              <LatitudeDegrees>44.5883964188396930694580078125</LatitudeDegrees>
              <LongitudeDegrees>-1.2002628855407238006591796875</LongitudeDegrees>
            </Position>
            <AltitudeMeters>33.59999847412109375</AltitudeMeters>
            <DistanceMeters>NAN</DistanceMeters>
          </Trackpoint>
          <Trackpoint>
            <Time>2022-07-04T18:19:54.000Z</Time>
            <Position>
              <LatitudeDegrees>44.58837278187274932861328125</LatitudeDegrees>
              <LongitudeDegrees>-1.20029314421117305755615234375</LongitudeDegrees>
            </Position>
            <AltitudeMeters>33.59999847412109375</AltitudeMeters>
            <DistanceMeters>NAN</DistanceMeters>
          </Trackpoint>
          <Trackpoint>
            <Time>2022-07-04T18:20:01.000Z</Time>
            <Position>
              <LatitudeDegrees>44.58824411965906620025634765625</LatitudeDegrees>
              <LongitudeDegrees>-1.20054644532501697540283203125</LongitudeDegrees>
            </Position>
            <AltitudeMeters>33.59999847412109375</AltitudeMeters>
            <DistanceMeters>NAN</DistanceMeters>
          </Trackpoint>
          <Trackpoint>
            <Time>2022-07-04T18:20:06.000Z</Time>
            <Position>
              <LatitudeDegrees>44.58814839832484722137451171875</LatitudeDegrees>
              <LongitudeDegrees>-1.20081265456974506378173828125</LongitudeDegrees>
            </Position>
            <AltitudeMeters>33.40000152587890625</AltitudeMeters>
            <DistanceMeters>NAN</DistanceMeters>
          </Trackpoint>
          <Trackpoint>
            <Time>2022-07-04T18:20:11.000Z</Time>
            <Position>
              <LatitudeDegrees>44.58804915659129619598388671875</LatitudeDegrees>
              <LongitudeDegrees>-1.201193444430828094482421875</LongitudeDegrees>
            </Position>
            <AltitudeMeters>32.40000152587890625</AltitudeMeters>
            <DistanceMeters>NAN</DistanceMeters>
          </Trackpoint>
          <Trackpoint>
            <Time>2022-07-04T18:20:12.000Z</Time>
            <Position>
              <LatitudeDegrees>44.5880282856523990631103515625</LatitudeDegrees>
              <LongitudeDegrees>-1.201274581253528594970703125</LongitudeDegrees>
            </Position>
            <AltitudeMeters>32</AltitudeMeters>
            <DistanceMeters>NAN</DistanceMeters>
          </Trackpoint>
          <Trackpoint>
            <Time>2022-07-04T18:20:15.000Z</Time>
            <Position>
              <LatitudeDegrees>44.58796248771250247955322265625</LatitudeDegrees>
              <LongitudeDegrees>-1.20153634808957576751708984375</LongitudeDegrees>
            </Position>
            <AltitudeMeters>31.200000762939453125</AltitudeMeters>
            <DistanceMeters>NAN</DistanceMeters>
          </Trackpoint>
          <Trackpoint>
            <Time>2022-07-04T18:20:16.000Z</Time>
            <Position>
              <LatitudeDegrees>44.5879421196877956390380859375</LatitudeDegrees>
              <LongitudeDegrees>-1.20162989012897014617919921875</LongitudeDegrees>
            </Position>
            <AltitudeMeters>31</AltitudeMeters>
            <DistanceMeters>NAN</DistanceMeters>
          </Trackpoint>
          <Trackpoint>
            <Time>2022-07-04T18:20:18.000Z</Time>
            <Position>
              <LatitudeDegrees>44.58789534866809844970703125</LatitudeDegrees>
              <LongitudeDegrees>-1.20180490426719188690185546875</LongitudeDegrees>
            </Position>
            <AltitudeMeters>30.200000762939453125</AltitudeMeters>
            <DistanceMeters>NAN</DistanceMeters>
          </Trackpoint>
          <Trackpoint>
            <Time>2022-07-04T18:20:19.000Z</Time>
            <Position>
              <LatitudeDegrees>44.58787447772920131683349609375</LatitudeDegrees>
              <LongitudeDegrees>-1.20188889093697071075439453125</LongitudeDegrees>
            </Position>
            <AltitudeMeters>30.200000762939453125</AltitudeMeters>
            <DistanceMeters>NAN</DistanceMeters>
          </Trackpoint>
          <Trackpoint>
            <Time>2022-07-04T18:20:20.000Z</Time>
            <Position>
              <LatitudeDegrees>44.587854109704494476318359375</LatitudeDegrees>
              <LongitudeDegrees>-1.2019724585115909576416015625</LongitudeDegrees>
            </Position>
            <AltitudeMeters>30</AltitudeMeters>
            <DistanceMeters>NAN</DistanceMeters>
          </Trackpoint>
          <Trackpoint>
            <Time>2022-07-04T18:20:21.000Z</Time>
            <Position>
              <LatitudeDegrees>44.5878274552524089813232421875</LatitudeDegrees>
              <LongitudeDegrees>-1.20205351151525974273681640625</LongitudeDegrees>
            </Position>
            <AltitudeMeters>30</AltitudeMeters>
            <DistanceMeters>NAN</DistanceMeters>
          </Trackpoint>
          <Trackpoint>
            <Time>2022-07-04T18:20:22.000Z</Time>
            <Position>
              <LatitudeDegrees>44.58780507557094097137451171875</LatitudeDegrees>
              <LongitudeDegrees>-1.2021300382912158966064453125</LongitudeDegrees>
            </Position>
            <AltitudeMeters>29.799999237060546875</AltitudeMeters>
            <DistanceMeters>NAN</DistanceMeters>
          </Trackpoint>
          <Trackpoint>
            <Time>2022-07-04T18:20:24.000Z</Time>
            <Position>
              <LatitudeDegrees>44.5877645909786224365234375</LatitudeDegrees>
              <LongitudeDegrees>-1.2022725306451320648193359375</LongitudeDegrees>
            </Position>
            <AltitudeMeters>29.799999237060546875</AltitudeMeters>
            <DistanceMeters>NAN</DistanceMeters>
          </Trackpoint>
          <Trackpoint>
            <Time>2022-07-04T18:20:26.000Z</Time>
            <Position>
              <LatitudeDegrees>44.5877230167388916015625</LatitudeDegrees>
              <LongitudeDegrees>-1.20238157920539379119873046875</LongitudeDegrees>
            </Position>
            <AltitudeMeters>29.799999237060546875</AltitudeMeters>
            <DistanceMeters>NAN</DistanceMeters>
          </Trackpoint>
          <Trackpoint>
            <Time>2022-07-04T18:20:27.000Z</Time>
            <Position>
              <LatitudeDegrees>44.587707929313182830810546875</LatitudeDegrees>
              <LongitudeDegrees>-1.2024624645709991455078125</LongitudeDegrees>
            </Position>
            <AltitudeMeters>29.799999237060546875</AltitudeMeters>
            <DistanceMeters>NAN</DistanceMeters>
          </Trackpoint>
          <Trackpoint>
            <Time>2022-07-04T18:20:28.000Z</Time>
            <Position>
              <LatitudeDegrees>44.58769476972520351409912109375</LatitudeDegrees>
              <LongitudeDegrees>-1.2025253288447856903076171875</LongitudeDegrees>
            </Position>
            <AltitudeMeters>29.799999237060546875</AltitudeMeters>
            <DistanceMeters>NAN</DistanceMeters>
          </Trackpoint>
          <Trackpoint>
            <Time>2022-07-04T18:20:31.000Z</Time>
            <Position>
              <LatitudeDegrees>44.5876420475542545318603515625</LatitudeDegrees>
              <LongitudeDegrees>-1.202698834240436553955078125</LongitudeDegrees>
            </Position>
            <AltitudeMeters>28.799999237060546875</AltitudeMeters>
            <DistanceMeters>NAN</DistanceMeters>
          </Trackpoint>
          <Trackpoint>
            <Time>2022-07-04T18:20:32.000Z</Time>
            <Position>
              <LatitudeDegrees>44.58762620575726032257080078125</LatitudeDegrees>
              <LongitudeDegrees>-1.20277066715061664581298828125</LongitudeDegrees>
            </Position>
            <AltitudeMeters>28.6000003814697265625</AltitudeMeters>
            <DistanceMeters>NAN</DistanceMeters>
          </Trackpoint>
          <Trackpoint>
            <Time>2022-07-04T18:20:34.000Z</Time>
            <Position>
              <LatitudeDegrees>44.58759904839098453521728515625</LatitudeDegrees>
              <LongitudeDegrees>-1.20289874263107776641845703125</LongitudeDegrees>
            </Position>
            <AltitudeMeters>28</AltitudeMeters>
            <DistanceMeters>NAN</DistanceMeters>
          </Trackpoint>
          <Trackpoint>
            <Time>2022-07-04T18:20:35.000Z</Time>
            <Position>
              <LatitudeDegrees>44.58758647553622722625732421875</LatitudeDegrees>
              <LongitudeDegrees>-1.20295858941972255706787109375</LongitudeDegrees>
            </Position>
            <AltitudeMeters>27.799999237060546875</AltitudeMeters>
            <DistanceMeters>NAN</DistanceMeters>
          </Trackpoint>
          <Trackpoint>
            <Time>2022-07-04T18:20:36.000Z</Time>
            <Position>
              <LatitudeDegrees>44.58756920881569385528564453125</LatitudeDegrees>
              <LongitudeDegrees>-1.2030175141990184783935546875</LongitudeDegrees>
            </Position>
            <AltitudeMeters>27.799999237060546875</AltitudeMeters>
            <DistanceMeters>NAN</DistanceMeters>
          </Trackpoint>
          <Trackpoint>
            <Time>2022-07-04T18:20:38.000Z</Time>
            <Position>
              <LatitudeDegrees>44.5875381119549274444580078125</LatitudeDegrees>
              <LongitudeDegrees>-1.20311516337096691131591796875</LongitudeDegrees>
            </Position>
            <AltitudeMeters>27.799999237060546875</AltitudeMeters>
            <DistanceMeters>NAN</DistanceMeters>
          </Trackpoint>
          <Trackpoint>
            <Time>2022-07-04T18:20:41.000Z</Time>
            <Position>
              <LatitudeDegrees>44.587478935718536376953125</LatitudeDegrees>
              <LongitudeDegrees>-1.20329772122204303741455078125</LongitudeDegrees>
            </Position>
            <AltitudeMeters>28</AltitudeMeters>
            <DistanceMeters>NAN</DistanceMeters>
          </Trackpoint>
          <Trackpoint>
            <Time>2022-07-04T18:20:44.000Z</Time>
            <Position>
              <LatitudeDegrees>44.58742286078631877899169921875</LatitudeDegrees>
              <LongitudeDegrees>-1.203434430062770843505859375</LongitudeDegrees>
            </Position>
            <AltitudeMeters>28.799999237060546875</AltitudeMeters>
            <DistanceMeters>NAN</DistanceMeters>
          </Trackpoint>
          <Trackpoint>
            <Time>2022-07-04T18:20:45.000Z</Time>
            <Position>
              <LatitudeDegrees>44.58740986883640289306640625</LatitudeDegrees>
              <LongitudeDegrees>-1.20347290299832820892333984375</LongitudeDegrees>
            </Position>
            <AltitudeMeters>29.200000762939453125</AltitudeMeters>
            <DistanceMeters>NAN</DistanceMeters>
          </Trackpoint>
          <Trackpoint>
            <Time>2022-07-04T18:20:50.000Z</Time>
            <Position>
              <LatitudeDegrees>44.58728288300335407257080078125</LatitudeDegrees>
              <LongitudeDegrees>-1.20367557741701602935791015625</LongitudeDegrees>
            </Position>
            <AltitudeMeters>29.799999237060546875</AltitudeMeters>
            <DistanceMeters>NAN</DistanceMeters>
          </Trackpoint>
          <Trackpoint>
            <Time>2022-07-04T18:20:56.000Z</Time>
            <Position>
              <LatitudeDegrees>44.58714944310486316680908203125</LatitudeDegrees>
              <LongitudeDegrees>-1.20388202369213104248046875</LongitudeDegrees>
            </Position>
            <AltitudeMeters>29.3999996185302734375</AltitudeMeters>
            <DistanceMeters>NAN</DistanceMeters>
          </Trackpoint>
          <Trackpoint>
            <Time>2022-07-04T18:21:00.000Z</Time>
            <Position>
              <LatitudeDegrees>44.587044082581996917724609375</LatitudeDegrees>
              <LongitudeDegrees>-1.20403231121599674224853515625</LongitudeDegrees>
            </Position>
            <AltitudeMeters>29</AltitudeMeters>
            <DistanceMeters>NAN</DistanceMeters>
          </Trackpoint>
          <Trackpoint>
            <Time>2022-07-04T18:21:01.000Z</Time>
            <Position>
              <LatitudeDegrees>44.5870251394808292388916015625</LatitudeDegrees>
              <LongitudeDegrees>-1.2040779925882816314697265625</LongitudeDegrees>
            </Position>
            <AltitudeMeters>29</AltitudeMeters>
            <DistanceMeters>NAN</DistanceMeters>
          </Trackpoint>
          <Trackpoint>
            <Time>2022-07-04T18:21:02.000Z</Time>
            <Position>
              <LatitudeDegrees>44.587011896073818206787109375</LatitudeDegrees>
              <LongitudeDegrees>-1.20412434451282024383544921875</LongitudeDegrees>
            </Position>
            <AltitudeMeters>28.799999237060546875</AltitudeMeters>
            <DistanceMeters>NAN</DistanceMeters>
          </Trackpoint>
          <Trackpoint>
            <Time>2022-07-04T18:21:08.000Z</Time>
            <Position>
              <LatitudeDegrees>44.58691307343542575836181640625</LatitudeDegrees>
              <LongitudeDegrees>-1.2044367380440235137939453125</LongitudeDegrees>
            </Position>
            <AltitudeMeters>28.799999237060546875</AltitudeMeters>
            <DistanceMeters>NAN</DistanceMeters>
          </Trackpoint>
          <Trackpoint>
            <Time>2022-07-04T18:21:15.000Z</Time>
            <Position>
              <LatitudeDegrees>44.5867408253252506256103515625</LatitudeDegrees>
              <LongitudeDegrees>-1.20480646379292011260986328125</LongitudeDegrees>
            </Position>
            <AltitudeMeters>28.6000003814697265625</AltitudeMeters>
            <DistanceMeters>NAN</DistanceMeters>
          </Trackpoint>
          <Trackpoint>
            <Time>2022-07-04T18:21:19.000Z</Time>
            <Position>
              <LatitudeDegrees>44.58663068711757659912109375</LatitudeDegrees>
              <LongitudeDegrees>-1.20503260754048824310302734375</LongitudeDegrees>
            </Position>
            <AltitudeMeters>28.3999996185302734375</AltitudeMeters>
            <DistanceMeters>NAN</DistanceMeters>
          </Trackpoint>
          <Trackpoint>
            <Time>2022-07-04T18:21:21.000Z</Time>
            <Position>
              <LatitudeDegrees>44.58657662384212017059326171875</LatitudeDegrees>
              <LongitudeDegrees>-1.20515012182295322418212890625</LongitudeDegrees>
            </Position>
            <AltitudeMeters>28.3999996185302734375</AltitudeMeters>
            <DistanceMeters>NAN</DistanceMeters>
          </Trackpoint>
          <Trackpoint>
            <Time>2022-07-04T18:21:22.000Z</Time>
            <Position>
              <LatitudeDegrees>44.58655315451323986053466796875</LatitudeDegrees>
              <LongitudeDegrees>-1.20520577766001224517822265625</LongitudeDegrees>
            </Position>
            <AltitudeMeters>28.3999996185302734375</AltitudeMeters>
            <DistanceMeters>NAN</DistanceMeters>
          </Trackpoint>
          <Trackpoint>
            <Time>2022-07-04T18:21:23.000Z</Time>
            <Position>
              <LatitudeDegrees>44.58652901463210582733154296875</LatitudeDegrees>
              <LongitudeDegrees>-1.20525925420224666595458984375</LongitudeDegrees>
            </Position>
            <AltitudeMeters>28.200000762939453125</AltitudeMeters>
            <DistanceMeters>NAN</DistanceMeters>
          </Trackpoint>
          <Trackpoint>
            <Time>2022-07-04T18:21:30.000Z</Time>
            <Position>
              <LatitudeDegrees>44.5863455347716808319091796875</LatitudeDegrees>
              <LongitudeDegrees>-1.20560358278453350067138671875</LongitudeDegrees>
            </Position>
            <AltitudeMeters>27.799999237060546875</AltitudeMeters>
            <DistanceMeters>NAN</DistanceMeters>
          </Trackpoint>
          <Trackpoint>
            <Time>2022-07-04T18:21:31.000Z</Time>
            <Position>
              <LatitudeDegrees>44.5863227359950542449951171875</LatitudeDegrees>
              <LongitudeDegrees>-1.205643899738788604736328125</LongitudeDegrees>
            </Position>
            <AltitudeMeters>27.799999237060546875</AltitudeMeters>
            <DistanceMeters>NAN</DistanceMeters>
          </Trackpoint>
          <Trackpoint>
            <Time>2022-07-04T18:21:35.000Z</Time>
            <Position>
              <LatitudeDegrees>44.586209245026111602783203125</LatitudeDegrees>
              <LongitudeDegrees>-1.20581162162125110626220703125</LongitudeDegrees>
            </Position>
            <AltitudeMeters>27.799999237060546875</AltitudeMeters>
            <DistanceMeters>NAN</DistanceMeters>
          </Trackpoint>
          <Trackpoint>
            <Time>2022-07-04T18:21:42.000Z</Time>
            <Position>
              <LatitudeDegrees>44.58605107851326465606689453125</LatitudeDegrees>
              <LongitudeDegrees>-1.20610616169869899749755859375</LongitudeDegrees>
            </Position>
            <AltitudeMeters>27.6000003814697265625</AltitudeMeters>
            <DistanceMeters>NAN</DistanceMeters>
          </Trackpoint>
          <Trackpoint>
            <Time>2022-07-04T18:21:47.000Z</Time>
            <Position>
              <LatitudeDegrees>44.5859420299530029296875</LatitudeDegrees>
              <LongitudeDegrees>-1.2062941677868366241455078125</LongitudeDegrees>
            </Position>
            <AltitudeMeters>28</AltitudeMeters>
            <DistanceMeters>NAN</DistanceMeters>
          </Trackpoint>
          <Trackpoint>
            <Time>2022-07-04T18:21:54.000Z</Time>
            <Position>
              <LatitudeDegrees>44.5858328975737094879150390625</LatitudeDegrees>
              <LongitudeDegrees>-1.2065352313220500946044921875</LongitudeDegrees>
            </Position>
            <AltitudeMeters>28.3999996185302734375</AltitudeMeters>
            <DistanceMeters>NAN</DistanceMeters>
          </Trackpoint>
          <Trackpoint>
            <Time>2022-07-04T18:22:00.000Z</Time>
            <Position>
              <LatitudeDegrees>44.58576190285384654998779296875</LatitudeDegrees>
              <LongitudeDegrees>-1.206700690090656280517578125</LongitudeDegrees>
            </Position>
            <AltitudeMeters>28.799999237060546875</AltitudeMeters>
            <DistanceMeters>NAN</DistanceMeters>
          </Trackpoint>
          <Trackpoint>
            <Time>2022-07-04T18:22:05.000Z</Time>
            <Position>
              <LatitudeDegrees>44.58570272661745548248291015625</LatitudeDegrees>
              <LongitudeDegrees>-1.20683287270367145538330078125</LongitudeDegrees>
            </Position>
            <AltitudeMeters>29</AltitudeMeters>
            <DistanceMeters>NAN</DistanceMeters>
          </Trackpoint>
          <Trackpoint>
            <Time>2022-07-04T18:22:06.000Z</Time>
            <Position>
              <LatitudeDegrees>44.585692584514617919921875</LatitudeDegrees>
              <LongitudeDegrees>-1.206859610974788665771484375</LongitudeDegrees>
            </Position>
            <AltitudeMeters>29</AltitudeMeters>
            <DistanceMeters>NAN</DistanceMeters>
          </Trackpoint>
          <Trackpoint>
            <Time>2022-07-04T18:22:09.000Z</Time>
            <Position>
              <LatitudeDegrees>44.585672132670879364013671875</LatitudeDegrees>
              <LongitudeDegrees>-1.2069161050021648406982421875</LongitudeDegrees>
            </Position>
            <AltitudeMeters>29.200000762939453125</AltitudeMeters>
            <DistanceMeters>NAN</DistanceMeters>
          </Trackpoint>
          <Trackpoint>
            <Time>2022-07-04T18:22:13.000Z</Time>
            <Position>
              <LatitudeDegrees>44.58562728948891162872314453125</LatitudeDegrees>
              <LongitudeDegrees>-1.20700838975608348846435546875</LongitudeDegrees>
            </Position>
            <AltitudeMeters>29.799999237060546875</AltitudeMeters>
            <DistanceMeters>NAN</DistanceMeters>
          </Trackpoint>
          <Trackpoint>
            <Time>2022-07-04T18:22:17.000Z</Time>
            <Position>
              <LatitudeDegrees>44.58560180850327014923095703125</LatitudeDegrees>
              <LongitudeDegrees>-1.207087598741054534912109375</LongitudeDegrees>
            </Position>
            <AltitudeMeters>30.3999996185302734375</AltitudeMeters>
            <DistanceMeters>NAN</DistanceMeters>
          </Trackpoint>
          <Trackpoint>
            <Time>2022-07-04T18:22:18.000Z</Time>
            <Position>
              <LatitudeDegrees>44.58558596670627593994140625</LatitudeDegrees>
              <LongitudeDegrees>-1.2071075476706027984619140625</LongitudeDegrees>
            </Position>
            <AltitudeMeters>30.6000003814697265625</AltitudeMeters>
            <DistanceMeters>NAN</DistanceMeters>
          </Trackpoint>
          <Trackpoint>
            <Time>2022-07-04T18:22:20.000Z</Time>
            <Position>
              <LatitudeDegrees>44.5855532772839069366455078125</LatitudeDegrees>
              <LongitudeDegrees>-1.20716504752635955810546875</LongitudeDegrees>
            </Position>
            <AltitudeMeters>30.799999237060546875</AltitudeMeters>
            <DistanceMeters>NAN</DistanceMeters>
          </Trackpoint>
          <Trackpoint>
            <Time>2022-07-04T18:22:23.000Z</Time>
            <Position>
              <LatitudeDegrees>44.585522599518299102783203125</LatitudeDegrees>
              <LongitudeDegrees>-1.20723688043653964996337890625</LongitudeDegrees>
            </Position>
            <AltitudeMeters>31.200000762939453125</AltitudeMeters>
            <DistanceMeters>NAN</DistanceMeters>
          </Trackpoint>
          <Trackpoint>
            <Time>2022-07-04T18:22:26.000Z</Time>
            <Position>
              <LatitudeDegrees>44.58549418486654758453369140625</LatitudeDegrees>
              <LongitudeDegrees>-1.2073065340518951416015625</LongitudeDegrees>
            </Position>
            <AltitudeMeters>31.3999996185302734375</AltitudeMeters>
            <DistanceMeters>NAN</DistanceMeters>
          </Trackpoint>
          <Trackpoint>
            <Time>2022-07-04T18:22:28.000Z</Time>
            <Position>
              <LatitudeDegrees>44.5854718051850795745849609375</LatitudeDegrees>
              <LongitudeDegrees>-1.20735724456608295440673828125</LongitudeDegrees>
            </Position>
            <AltitudeMeters>31.6000003814697265625</AltitudeMeters>
            <DistanceMeters>NAN</DistanceMeters>
          </Trackpoint>
          <Trackpoint>
            <Time>2022-07-04T18:22:30.000Z</Time>
            <Position>
              <LatitudeDegrees>44.5854617469012737274169921875</LatitudeDegrees>
              <LongitudeDegrees>-1.20739311911165714263916015625</LongitudeDegrees>
            </Position>
            <AltitudeMeters>31.799999237060546875</AltitudeMeters>
            <DistanceMeters>NAN</DistanceMeters>
          </Trackpoint>
          <Trackpoint>
            <Time>2022-07-04T18:22:38.000Z</Time>
            <Position>
              <LatitudeDegrees>44.5854101143777370452880859375</LatitudeDegrees>
              <LongitudeDegrees>-1.2075497768819332122802734375</LongitudeDegrees>
            </Position>
            <AltitudeMeters>32.40000152587890625</AltitudeMeters>
            <DistanceMeters>NAN</DistanceMeters>
          </Trackpoint>
          <Trackpoint>
            <Time>2022-07-04T18:22:42.000Z</Time>
            <Position>
              <LatitudeDegrees>44.58536510355770587921142578125</LatitudeDegrees>
              <LongitudeDegrees>-1.2076131440699100494384765625</LongitudeDegrees>
            </Position>
            <AltitudeMeters>33</AltitudeMeters>
            <DistanceMeters>NAN</DistanceMeters>
          </Trackpoint>
          <Trackpoint>
            <Time>2022-07-04T18:22:44.000Z</Time>
            <Position>
              <LatitudeDegrees>44.58534733392298221588134765625</LatitudeDegrees>
              <LongitudeDegrees>-1.20764843188226222991943359375</LongitudeDegrees>
            </Position>
            <AltitudeMeters>33.200000762939453125</AltitudeMeters>
            <DistanceMeters>NAN</DistanceMeters>
          </Trackpoint>
          <Trackpoint>
            <Time>2022-07-04T18:22:47.000Z</Time>
            <Position>
              <LatitudeDegrees>44.58533585071563720703125</LatitudeDegrees>
              <LongitudeDegrees>-1.2077036686241626739501953125</LongitudeDegrees>
            </Position>
            <AltitudeMeters>33.40000152587890625</AltitudeMeters>
            <DistanceMeters>NAN</DistanceMeters>
          </Trackpoint>
          <Trackpoint>
            <Time>2022-07-04T18:22:48.000Z</Time>
            <Position>
              <LatitudeDegrees>44.5853249542415142059326171875</LatitudeDegrees>
              <LongitudeDegrees>-1.20772521011531352996826171875</LongitudeDegrees>
            </Position>
            <AltitudeMeters>33.40000152587890625</AltitudeMeters>
            <DistanceMeters>NAN</DistanceMeters>
          </Trackpoint>
          <Trackpoint>
            <Time>2022-07-04T18:22:49.000Z</Time>
            <Position>
              <LatitudeDegrees>44.5853105373680591583251953125</LatitudeDegrees>
              <LongitudeDegrees>-1.20774985291063785552978515625</LongitudeDegrees>
            </Position>
            <AltitudeMeters>33.59999847412109375</AltitudeMeters>
            <DistanceMeters>NAN</DistanceMeters>
          </Trackpoint>
          <Trackpoint>
            <Time>2022-07-04T18:22:50.000Z</Time>
            <Position>
              <LatitudeDegrees>44.585295282304286956787109375</LatitudeDegrees>
              <LongitudeDegrees>-1.20777265168726444244384765625</LongitudeDegrees>
            </Position>
            <AltitudeMeters>33.799999237060546875</AltitudeMeters>
            <DistanceMeters>NAN</DistanceMeters>
          </Trackpoint>
          <Trackpoint>
            <Time>2022-07-04T18:22:51.000Z</Time>
            <Position>
              <LatitudeDegrees>44.5852827094495296478271484375</LatitudeDegrees>
              <LongitudeDegrees>-1.20779494754970073699951171875</LongitudeDegrees>
            </Position>
            <AltitudeMeters>34</AltitudeMeters>
            <DistanceMeters>NAN</DistanceMeters>
          </Trackpoint>
          <Trackpoint>
            <Time>2022-07-04T18:22:55.000Z</Time>
            <Position>
              <LatitudeDegrees>44.58522495813667774200439453125</LatitudeDegrees>
              <LongitudeDegrees>-1.2078877352178096771240234375</LongitudeDegrees>
            </Position>
            <AltitudeMeters>34.59999847412109375</AltitudeMeters>
            <DistanceMeters>NAN</DistanceMeters>
          </Trackpoint>
          <Trackpoint>
            <Time>2022-07-04T18:23:00.000Z</Time>
            <Position>
              <LatitudeDegrees>44.58516485989093780517578125</LatitudeDegrees>
              <LongitudeDegrees>-1.20798806659877300262451171875</LongitudeDegrees>
            </Position>
            <AltitudeMeters>35.200000762939453125</AltitudeMeters>
            <DistanceMeters>NAN</DistanceMeters>
          </Trackpoint>
          <Trackpoint>
            <Time>2022-07-04T18:23:07.000Z</Time>
            <Position>
              <LatitudeDegrees>44.58511280827224254608154296875</LatitudeDegrees>
              <LongitudeDegrees>-1.2081281282007694244384765625</LongitudeDegrees>
            </Position>
            <AltitudeMeters>35.59999847412109375</AltitudeMeters>
            <DistanceMeters>NAN</DistanceMeters>
          </Trackpoint>
          <Trackpoint>
            <Time>2022-07-04T18:23:10.000Z</Time>
            <Position>
              <LatitudeDegrees>44.5850902609527111053466796875</LatitudeDegrees>
              <LongitudeDegrees>-1.20818487368524074554443359375</LongitudeDegrees>
            </Position>
            <AltitudeMeters>35.799999237060546875</AltitudeMeters>
            <DistanceMeters>NAN</DistanceMeters>
          </Trackpoint>
          <Trackpoint>
            <Time>2022-07-04T18:23:12.000Z</Time>
            <Position>
              <LatitudeDegrees>44.58508145995438098907470703125</LatitudeDegrees>
              <LongitudeDegrees>-1.2082169763743877410888671875</LongitudeDegrees>
            </Position>
            <AltitudeMeters>36</AltitudeMeters>
            <DistanceMeters>NAN</DistanceMeters>
          </Trackpoint>
          <Trackpoint>
            <Time>2022-07-04T18:23:17.000Z</Time>
            <Position>
              <LatitudeDegrees>44.585033096373081207275390625</LatitudeDegrees>
              <LongitudeDegrees>-1.20830741710960865020751953125</LongitudeDegrees>
            </Position>
            <AltitudeMeters>36.59999847412109375</AltitudeMeters>
            <DistanceMeters>NAN</DistanceMeters>
          </Trackpoint>
          <Trackpoint>
            <Time>2022-07-04T18:23:18.000Z</Time>
            <Position>
              <LatitudeDegrees>44.58502270281314849853515625</LatitudeDegrees>
              <LongitudeDegrees>-1.2083269469439983367919921875</LongitudeDegrees>
            </Position>
            <AltitudeMeters>36.799999237060546875</AltitudeMeters>
            <DistanceMeters>NAN</DistanceMeters>
          </Trackpoint>
          <Trackpoint>
            <Time>2022-07-04T18:23:24.000Z</Time>
            <Position>
              <LatitudeDegrees>44.58498674444854259490966796875</LatitudeDegrees>
              <LongitudeDegrees>-1.20842258445918560028076171875</LongitudeDegrees>
            </Position>
            <AltitudeMeters>37.59999847412109375</AltitudeMeters>
            <DistanceMeters>NAN</DistanceMeters>
          </Trackpoint>
          <Trackpoint>
            <Time>2022-07-04T18:23:26.000Z</Time>
            <Position>
              <LatitudeDegrees>44.58497132174670696258544921875</LatitudeDegrees>
              <LongitudeDegrees>-1.20844990946352481842041015625</LongitudeDegrees>
            </Position>
            <AltitudeMeters>37.799999237060546875</AltitudeMeters>
            <DistanceMeters>NAN</DistanceMeters>
          </Trackpoint>
          <Trackpoint>
            <Time>2022-07-04T18:23:28.000Z</Time>
            <Position>
              <LatitudeDegrees>44.58494567312300205230712890625</LatitudeDegrees>
              <LongitudeDegrees>-1.20847907848656177520751953125</LongitudeDegrees>
            </Position>
            <AltitudeMeters>38</AltitudeMeters>
            <DistanceMeters>NAN</DistanceMeters>
          </Trackpoint>
          <Trackpoint>
            <Time>2022-07-04T18:23:33.000Z</Time>
            <Position>
              <LatitudeDegrees>44.58489186130464076995849609375</LatitudeDegrees>
              <LongitudeDegrees>-1.2085834331810474395751953125</LongitudeDegrees>
            </Position>
            <AltitudeMeters>38.59999847412109375</AltitudeMeters>
            <DistanceMeters>NAN</DistanceMeters>
          </Trackpoint>
          <Trackpoint>
            <Time>2022-07-04T18:23:34.000Z</Time>
            <Position>
              <LatitudeDegrees>44.584878198802471160888671875</LatitudeDegrees>
              <LongitudeDegrees>-1.2086028791964054107666015625</LongitudeDegrees>
            </Position>
            <AltitudeMeters>38.59999847412109375</AltitudeMeters>
            <DistanceMeters>NAN</DistanceMeters>
          </Trackpoint>
          <Trackpoint>
            <Time>2022-07-04T18:23:35.000Z</Time>
            <Position>
              <LatitudeDegrees>44.58486319519579410552978515625</LatitudeDegrees>
              <LongitudeDegrees>-1.2086152844130992889404296875</LongitudeDegrees>
            </Position>
            <AltitudeMeters>38.799999237060546875</AltitudeMeters>
            <DistanceMeters>NAN</DistanceMeters>
          </Trackpoint>
          <Trackpoint>
            <Time>2022-07-04T18:23:36.000Z</Time>
            <Position>
              <LatitudeDegrees>44.58484626375138759613037109375</LatitudeDegrees>
              <LongitudeDegrees>-1.208630539476871490478515625</LongitudeDegrees>
            </Position>
            <AltitudeMeters>38.799999237060546875</AltitudeMeters>
            <DistanceMeters>NAN</DistanceMeters>
          </Trackpoint>
          <Trackpoint>
            <Time>2022-07-04T18:23:40.000Z</Time>
            <Position>
              <LatitudeDegrees>44.58480653353035449981689453125</LatitudeDegrees>
              <LongitudeDegrees>-1.20870790444314479827880859375</LongitudeDegrees>
            </Position>
            <AltitudeMeters>39.200000762939453125</AltitudeMeters>
            <DistanceMeters>NAN</DistanceMeters>
          </Trackpoint>
          <Trackpoint>
            <Time>2022-07-04T18:23:42.000Z</Time>
            <Position>
              <LatitudeDegrees>44.58479546941816806793212890625</LatitudeDegrees>
              <LongitudeDegrees>-1.20875216089189052581787109375</LongitudeDegrees>
            </Position>
            <AltitudeMeters>39.40000152587890625</AltitudeMeters>
            <DistanceMeters>NAN</DistanceMeters>
          </Trackpoint>
          <Trackpoint>
            <Time>2022-07-04T18:23:49.000Z</Time>
            <Position>
              <LatitudeDegrees>44.58466731011867523193359375</LatitudeDegrees>
              <LongitudeDegrees>-1.20889079757034778594970703125</LongitudeDegrees>
            </Position>
            <AltitudeMeters>40</AltitudeMeters>
            <DistanceMeters>NAN</DistanceMeters>
          </Trackpoint>
          <Trackpoint>
            <Time>2022-07-04T18:23:50.000Z</Time>
            <Position>
              <LatitudeDegrees>44.58464845083653926849365234375</LatitudeDegrees>
              <LongitudeDegrees>-1.20891426689922809600830078125</LongitudeDegrees>
            </Position>
            <AltitudeMeters>40</AltitudeMeters>
            <DistanceMeters>NAN</DistanceMeters>
          </Trackpoint>
          <Trackpoint>
            <Time>2022-07-04T18:23:58.000Z</Time>
            <Position>
              <LatitudeDegrees>44.5845528133213520050048828125</LatitudeDegrees>
              <LongitudeDegrees>-1.20906178839504718780517578125</LongitudeDegrees>
            </Position>
            <AltitudeMeters>40.59999847412109375</AltitudeMeters>
            <DistanceMeters>NAN</DistanceMeters>
          </Trackpoint>
          <Trackpoint>
            <Time>2022-07-04T18:24:02.000Z</Time>
            <Position>
              <LatitudeDegrees>44.58452473394572734832763671875</LatitudeDegrees>
              <LongitudeDegrees>-1.20911409147083759307861328125</LongitudeDegrees>
            </Position>
            <AltitudeMeters>41</AltitudeMeters>
            <DistanceMeters>NAN</DistanceMeters>
          </Trackpoint>
          <Trackpoint>
            <Time>2022-07-04T18:24:03.000Z</Time>
            <Position>
              <LatitudeDegrees>44.58451819606125354766845703125</LatitudeDegrees>
              <LongitudeDegrees>-1.20913521386682987213134765625</LongitudeDegrees>
            </Position>
            <AltitudeMeters>41</AltitudeMeters>
            <DistanceMeters>NAN</DistanceMeters>
          </Trackpoint>
          <Trackpoint>
            <Time>2022-07-04T18:24:10.000Z</Time>
            <Position>
              <LatitudeDegrees>44.5844391547143459320068359375</LatitudeDegrees>
              <LongitudeDegrees>-1.20924568735063076019287109375</LongitudeDegrees>
            </Position>
            <AltitudeMeters>41.59999847412109375</AltitudeMeters>
            <DistanceMeters>NAN</DistanceMeters>
          </Trackpoint>
          <Trackpoint>
            <Time>2022-07-04T18:24:12.000Z</Time>
            <Position>
              <LatitudeDegrees>44.5844203792512416839599609375</LatitudeDegrees>
              <LongitudeDegrees>-1.20928726159036159515380859375</LongitudeDegrees>
            </Position>
            <AltitudeMeters>41.59999847412109375</AltitudeMeters>
            <DistanceMeters>NAN</DistanceMeters>
          </Trackpoint>
          <Trackpoint>
            <Time>2022-07-04T18:24:16.000Z</Time>
            <Position>
              <LatitudeDegrees>44.58438257686793804168701171875</LatitudeDegrees>
              <LongitudeDegrees>-1.20934459380805492401123046875</LongitudeDegrees>
            </Position>
            <AltitudeMeters>42</AltitudeMeters>
            <DistanceMeters>NAN</DistanceMeters>
          </Trackpoint>
          <Trackpoint>
            <Time>2022-07-04T18:24:23.000Z</Time>
            <Position>
              <LatitudeDegrees>44.58431267179548740386962890625</LatitudeDegrees>
              <LongitudeDegrees>-1.20945137925446033477783203125</LongitudeDegrees>
            </Position>
            <AltitudeMeters>42.40000152587890625</AltitudeMeters>
            <DistanceMeters>NAN</DistanceMeters>
          </Trackpoint>
          <Trackpoint>
            <Time>2022-07-04T18:24:30.000Z</Time>
            <Position>
              <LatitudeDegrees>44.584219716489315032958984375</LatitudeDegrees>
              <LongitudeDegrees>-1.2095917761325836181640625</LongitudeDegrees>
            </Position>
            <AltitudeMeters>42.799999237060546875</AltitudeMeters>
            <DistanceMeters>NAN</DistanceMeters>
          </Trackpoint>
          <Trackpoint>
            <Time>2022-07-04T18:24:31.000Z</Time>
            <Position>
              <LatitudeDegrees>44.5841900445520877838134765625</LatitudeDegrees>
              <LongitudeDegrees>-1.20960652828216552734375</LongitudeDegrees>
            </Position>
            <AltitudeMeters>43</AltitudeMeters>
            <DistanceMeters>NAN</DistanceMeters>
          </Trackpoint>
          <Trackpoint>
            <Time>2022-07-04T18:24:32.000Z</Time>
            <Position>
              <LatitudeDegrees>44.584163390100002288818359375</LatitudeDegrees>
              <LongitudeDegrees>-1.2096217833459377288818359375</LongitudeDegrees>
            </Position>
            <AltitudeMeters>43</AltitudeMeters>
            <DistanceMeters>NAN</DistanceMeters>
          </Trackpoint>
          <Trackpoint>
            <Time>2022-07-04T18:24:39.000Z</Time>
            <Position>
              <LatitudeDegrees>44.5840026251971721649169921875</LatitudeDegrees>
              <LongitudeDegrees>-1.2097890861332416534423828125</LongitudeDegrees>
            </Position>
            <AltitudeMeters>43.59999847412109375</AltitudeMeters>
            <DistanceMeters>NAN</DistanceMeters>
          </Trackpoint>
          <Trackpoint>
            <Time>2022-07-04T18:24:47.000Z</Time>
            <Position>
              <LatitudeDegrees>44.5838876254856586456298828125</LatitudeDegrees>
              <LongitudeDegrees>-1.20992177166044712066650390625</LongitudeDegrees>
            </Position>
            <AltitudeMeters>43.799999237060546875</AltitudeMeters>
            <DistanceMeters>NAN</DistanceMeters>
          </Trackpoint>
          <Trackpoint>
            <Time>2022-07-04T18:24:49.000Z</Time>
            <Position>
              <LatitudeDegrees>44.5838592946529388427734375</LatitudeDegrees>
              <LongitudeDegrees>-1.20995731092989444732666015625</LongitudeDegrees>
            </Position>
            <AltitudeMeters>44</AltitudeMeters>
            <DistanceMeters>NAN</DistanceMeters>
          </Trackpoint>
          <Trackpoint>
            <Time>2022-07-04T18:24:51.000Z</Time>
            <Position>
              <LatitudeDegrees>44.58383322693407535552978515625</LatitudeDegrees>
              <LongitudeDegrees>-1.20999880135059356689453125</LongitudeDegrees>
            </Position>
            <AltitudeMeters>44.200000762939453125</AltitudeMeters>
            <DistanceMeters>NAN</DistanceMeters>
          </Trackpoint>
          <Trackpoint>
            <Time>2022-07-04T18:24:52.000Z</Time>
            <Position>
              <LatitudeDegrees>44.58382165990769863128662109375</LatitudeDegrees>
              <LongitudeDegrees>-1.21001346968114376068115234375</LongitudeDegrees>
            </Position>
            <AltitudeMeters>44.40000152587890625</AltitudeMeters>
            <DistanceMeters>NAN</DistanceMeters>
          </Trackpoint>
          <Trackpoint>
            <Time>2022-07-04T18:24:57.000Z</Time>
            <Position>
              <LatitudeDegrees>44.58376164548099040985107421875</LatitudeDegrees>
              <LongitudeDegrees>-1.21011187322437763214111328125</LongitudeDegrees>
            </Position>
            <AltitudeMeters>45</AltitudeMeters>
            <DistanceMeters>NAN</DistanceMeters>
          </Trackpoint>
          <Trackpoint>
            <Time>2022-07-04T18:24:58.000Z</Time>
            <Position>
              <LatitudeDegrees>44.583751000463962554931640625</LatitudeDegrees>
              <LongitudeDegrees>-1.21012578718364238739013671875</LongitudeDegrees>
            </Position>
            <AltitudeMeters>45</AltitudeMeters>
            <DistanceMeters>NAN</DistanceMeters>
          </Trackpoint>
          <Trackpoint>
            <Time>2022-07-04T18:25:02.000Z</Time>
            <Position>
              <LatitudeDegrees>44.5836988650262355804443359375</LatitudeDegrees>
              <LongitudeDegrees>-1.2101823650300502777099609375</LongitudeDegrees>
            </Position>
            <AltitudeMeters>45.200000762939453125</AltitudeMeters>
            <DistanceMeters>NAN</DistanceMeters>
          </Trackpoint>
          <Trackpoint>
            <Time>2022-07-04T18:25:03.000Z</Time>
            <Position>
              <LatitudeDegrees>44.58368654362857341766357421875</LatitudeDegrees>
              <LongitudeDegrees>-1.2101977877318859100341796875</LongitudeDegrees>
            </Position>
            <AltitudeMeters>45.200000762939453125</AltitudeMeters>
            <DistanceMeters>NAN</DistanceMeters>
          </Trackpoint>
          <Trackpoint>
            <Time>2022-07-04T18:25:09.000Z</Time>
            <Position>
              <LatitudeDegrees>44.58360389806330204010009765625</LatitudeDegrees>
              <LongitudeDegrees>-1.21028906665742397308349609375</LongitudeDegrees>
            </Position>
            <AltitudeMeters>45.59999847412109375</AltitudeMeters>
            <DistanceMeters>NAN</DistanceMeters>
          </Trackpoint>
          <Trackpoint>
            <Time>2022-07-04T18:25:12.000Z</Time>
            <Position>
              <LatitudeDegrees>44.583557210862636566162109375</LatitudeDegrees>
              <LongitudeDegrees>-1.210337094962596893310546875</LongitudeDegrees>
            </Position>
            <AltitudeMeters>45.799999237060546875</AltitudeMeters>
            <DistanceMeters>NAN</DistanceMeters>
          </Trackpoint>
          <Trackpoint>
            <Time>2022-07-04T18:25:13.000Z</Time>
            <Position>
              <LatitudeDegrees>44.58355419337749481201171875</LatitudeDegrees>
              <LongitudeDegrees>-1.21033768169581890106201171875</LongitudeDegrees>
            </Position>
            <AltitudeMeters>45.799999237060546875</AltitudeMeters>
            <DistanceMeters>NAN</DistanceMeters>
          </Trackpoint>
          <Trackpoint>
            <Time>2022-07-04T18:25:14.000Z</Time>
            <Position>
              <LatitudeDegrees>44.58355419337749481201171875</LatitudeDegrees>
              <LongitudeDegrees>-1.21033768169581890106201171875</LongitudeDegrees>
            </Position>
            <AltitudeMeters>45.799999237060546875</AltitudeMeters>
            <DistanceMeters>NAN</DistanceMeters>
          </Trackpoint>
          <Trackpoint>
            <Time>2022-07-04T18:25:15.000Z</Time>
            <Position>
              <LatitudeDegrees>44.58355419337749481201171875</LatitudeDegrees>
              <LongitudeDegrees>-1.21033768169581890106201171875</LongitudeDegrees>
            </Position>
            <AltitudeMeters>45.799999237060546875</AltitudeMeters>
            <DistanceMeters>NAN</DistanceMeters>
          </Trackpoint>
          <Trackpoint>
            <Time>2022-07-04T18:25:43.000Z</Time>
            <Position>
              <LatitudeDegrees>44.58353533409535884857177734375</LatitudeDegrees>
              <LongitudeDegrees>-1.210363246500492095947265625</LongitudeDegrees>
            </Position>
            <AltitudeMeters>45.799999237060546875</AltitudeMeters>
            <DistanceMeters>NAN</DistanceMeters>
          </Trackpoint>
          <Trackpoint>
            <Time>2022-07-04T18:25:44.000Z</Time>
            <Position>
              <LatitudeDegrees>44.58352200686931610107421875</LatitudeDegrees>
              <LongitudeDegrees>-1.210384368896484375</LongitudeDegrees>
            </Position>
            <AltitudeMeters>45.799999237060546875</AltitudeMeters>
            <DistanceMeters>NAN</DistanceMeters>
          </Trackpoint>
          <Trackpoint>
            <Time>2022-07-04T18:25:45.000Z</Time>
            <Position>
              <LatitudeDegrees>44.58350800909101963043212890625</LatitudeDegrees>
              <LongitudeDegrees>-1.21040381491184234619140625</LongitudeDegrees>
            </Position>
            <AltitudeMeters>46</AltitudeMeters>
            <DistanceMeters>NAN</DistanceMeters>
          </Trackpoint>
          <Trackpoint>
            <Time>2022-07-04T18:25:47.000Z</Time>
            <Position>
              <LatitudeDegrees>44.58348336629569530487060546875</LatitudeDegrees>
              <LongitudeDegrees>-1.2104532681405544281005859375</LongitudeDegrees>
            </Position>
            <AltitudeMeters>46.200000762939453125</AltitudeMeters>
            <DistanceMeters>NAN</DistanceMeters>
          </Trackpoint>
          <Trackpoint>
            <Time>2022-07-04T18:25:52.000Z</Time>
            <Position>
              <LatitudeDegrees>44.58339862525463104248046875</LatitudeDegrees>
              <LongitudeDegrees>-1.21055996976792812347412109375</LongitudeDegrees>
            </Position>
            <AltitudeMeters>46.59999847412109375</AltitudeMeters>
            <DistanceMeters>NAN</DistanceMeters>
          </Trackpoint>
          <Trackpoint>
            <Time>2022-07-04T18:25:53.000Z</Time>
            <Position>
              <LatitudeDegrees>44.583380855619907379150390625</LatitudeDegrees>
              <LongitudeDegrees>-1.210584528744220733642578125</LongitudeDegrees>
            </Position>
            <AltitudeMeters>46.59999847412109375</AltitudeMeters>
            <DistanceMeters>NAN</DistanceMeters>
          </Trackpoint>
          <Trackpoint>
            <Time>2022-07-04T18:25:58.000Z</Time>
            <Position>
              <LatitudeDegrees>44.58328689448535442352294921875</LatitudeDegrees>
              <LongitudeDegrees>-1.21069659478962421417236328125</LongitudeDegrees>
            </Position>
            <AltitudeMeters>47.200000762939453125</AltitudeMeters>
            <DistanceMeters>NAN</DistanceMeters>
          </Trackpoint>
          <Trackpoint>
            <Time>2022-07-04T18:26:00.000Z</Time>
            <Position>
              <LatitudeDegrees>44.5832569710910320281982421875</LatitudeDegrees>
              <LongitudeDegrees>-1.21073909103870391845703125</LongitudeDegrees>
            </Position>
            <AltitudeMeters>47.40000152587890625</AltitudeMeters>
            <DistanceMeters>NAN</DistanceMeters>
          </Trackpoint>
          <Trackpoint>
            <Time>2022-07-04T18:26:02.000Z</Time>
            <Position>
              <LatitudeDegrees>44.5832385309040546417236328125</LatitudeDegrees>
              <LongitudeDegrees>-1.2107861973345279693603515625</LongitudeDegrees>
            </Position>
            <AltitudeMeters>47.40000152587890625</AltitudeMeters>
            <DistanceMeters>NAN</DistanceMeters>
          </Trackpoint>
          <Trackpoint>
            <Time>2022-07-04T18:26:09.000Z</Time>
            <Position>
              <LatitudeDegrees>44.583163596689701080322265625</LatitudeDegrees>
              <LongitudeDegrees>-1.21090631000697612762451171875</LongitudeDegrees>
            </Position>
            <AltitudeMeters>48</AltitudeMeters>
            <DistanceMeters>NAN</DistanceMeters>
          </Trackpoint>
          <Trackpoint>
            <Time>2022-07-04T18:26:10.000Z</Time>
            <Position>
              <LatitudeDegrees>44.5831466652452945709228515625</LatitudeDegrees>
              <LongitudeDegrees>-1.2109246663749217987060546875</LongitudeDegrees>
            </Position>
            <AltitudeMeters>48.200000762939453125</AltitudeMeters>
            <DistanceMeters>NAN</DistanceMeters>
          </Trackpoint>
          <Trackpoint>
            <Time>2022-07-04T18:26:15.000Z</Time>
            <Position>
              <LatitudeDegrees>44.5830487646162509918212890625</LatitudeDegrees>
              <LongitudeDegrees>-1.21099063195288181304931640625</LongitudeDegrees>
            </Position>
            <AltitudeMeters>49</AltitudeMeters>
            <DistanceMeters>NAN</DistanceMeters>
          </Trackpoint>
          <Trackpoint>
            <Time>2022-07-04T18:26:18.000Z</Time>
            <Position>
              <LatitudeDegrees>44.5830159075558185577392578125</LatitudeDegrees>
              <LongitudeDegrees>-1.211059950292110443115234375</LongitudeDegrees>
            </Position>
            <AltitudeMeters>49</AltitudeMeters>
            <DistanceMeters>NAN</DistanceMeters>
          </Trackpoint>
          <Trackpoint>
            <Time>2022-07-04T18:26:19.000Z</Time>
            <Position>
              <LatitudeDegrees>44.583001323044300079345703125</LatitudeDegrees>
              <LongitudeDegrees>-1.21107176877558231353759765625</LongitudeDegrees>
            </Position>
            <AltitudeMeters>49</AltitudeMeters>
            <DistanceMeters>NAN</DistanceMeters>
          </Trackpoint>
          <Trackpoint>
            <Time>2022-07-04T18:26:22.000Z</Time>
            <Position>
              <LatitudeDegrees>44.58295916207134723663330078125</LatitudeDegrees>
              <LongitudeDegrees>-1.21112038381397724151611328125</LongitudeDegrees>
            </Position>
            <AltitudeMeters>49.40000152587890625</AltitudeMeters>
            <DistanceMeters>NAN</DistanceMeters>
          </Trackpoint>
          <Trackpoint>
            <Time>2022-07-04T18:26:28.000Z</Time>
            <Position>
              <LatitudeDegrees>44.58288573659956455230712890625</LatitudeDegrees>
              <LongitudeDegrees>-1.21121476404368877410888671875</LongitudeDegrees>
            </Position>
            <AltitudeMeters>50.40000152587890625</AltitudeMeters>
            <DistanceMeters>NAN</DistanceMeters>
          </Trackpoint>
          <Trackpoint>
            <Time>2022-07-04T18:26:30.000Z</Time>
            <Position>
              <LatitudeDegrees>44.58287064917385578155517578125</LatitudeDegrees>
              <LongitudeDegrees>-1.21123990975320339202880859375</LongitudeDegrees>
            </Position>
            <AltitudeMeters>50.40000152587890625</AltitudeMeters>
            <DistanceMeters>NAN</DistanceMeters>
          </Trackpoint>
          <Trackpoint>
            <Time>2022-07-04T18:26:38.000Z</Time>
            <Position>
              <LatitudeDegrees>44.5827929489314556121826171875</LatitudeDegrees>
              <LongitudeDegrees>-1.21137435548007488250732421875</LongitudeDegrees>
            </Position>
            <AltitudeMeters>51.40000152587890625</AltitudeMeters>
            <DistanceMeters>NAN</DistanceMeters>
          </Trackpoint>
          <Trackpoint>
            <Time>2022-07-04T18:26:40.000Z</Time>
            <Position>
              <LatitudeDegrees>44.58276503719389438629150390625</LatitudeDegrees>
              <LongitudeDegrees>-1.21139623224735260009765625</LongitudeDegrees>
            </Position>
            <AltitudeMeters>51.59999847412109375</AltitudeMeters>
            <DistanceMeters>NAN</DistanceMeters>
          </Trackpoint>
          <Trackpoint>
            <Time>2022-07-04T18:26:45.000Z</Time>
            <Position>
              <LatitudeDegrees>44.5826876722276210784912109375</LatitudeDegrees>
              <LongitudeDegrees>-1.21146722696721553802490234375</LongitudeDegrees>
            </Position>
            <AltitudeMeters>52.40000152587890625</AltitudeMeters>
            <DistanceMeters>NAN</DistanceMeters>
          </Trackpoint>
          <Trackpoint>
            <Time>2022-07-04T18:26:49.000Z</Time>
            <Position>
              <LatitudeDegrees>44.5826373808085918426513671875</LatitudeDegrees>
              <LongitudeDegrees>-1.21151022613048553466796875</LongitudeDegrees>
            </Position>
            <AltitudeMeters>52.799999237060546875</AltitudeMeters>
            <DistanceMeters>NAN</DistanceMeters>
          </Trackpoint>
          <Trackpoint>
            <Time>2022-07-04T18:26:51.000Z</Time>
            <Position>
              <LatitudeDegrees>44.5826118998229503631591796875</LatitudeDegrees>
              <LongitudeDegrees>-1.21153495274484157562255859375</LongitudeDegrees>
            </Position>
            <AltitudeMeters>53</AltitudeMeters>
            <DistanceMeters>NAN</DistanceMeters>
          </Trackpoint>
          <Trackpoint>
            <Time>2022-07-04T18:26:55.000Z</Time>
            <Position>
              <LatitudeDegrees>44.58254409022629261016845703125</LatitudeDegrees>
              <LongitudeDegrees>-1.211579628288745880126953125</LongitudeDegrees>
            </Position>
            <AltitudeMeters>53.40000152587890625</AltitudeMeters>
            <DistanceMeters>NAN</DistanceMeters>
          </Trackpoint>
          <Trackpoint>
            <Time>2022-07-04T18:26:56.000Z</Time>
            <Position>
              <LatitudeDegrees>44.5825302600860595703125</LatitudeDegrees>
              <LongitudeDegrees>-1.21158926747739315032958984375</LongitudeDegrees>
            </Position>
            <AltitudeMeters>53.40000152587890625</AltitudeMeters>
            <DistanceMeters>NAN</DistanceMeters>
          </Trackpoint>
          <Trackpoint>
            <Time>2022-07-04T18:26:58.000Z</Time>
            <Position>
              <LatitudeDegrees>44.58250218071043491363525390625</LatitudeDegrees>
              <LongitudeDegrees>-1.21160334907472133636474609375</LongitudeDegrees>
            </Position>
            <AltitudeMeters>53.799999237060546875</AltitudeMeters>
            <DistanceMeters>NAN</DistanceMeters>
          </Trackpoint>
          <Trackpoint>
            <Time>2022-07-04T18:27:00.000Z</Time>
            <Position>
              <LatitudeDegrees>44.582470245659351348876953125</LatitudeDegrees>
              <LongitudeDegrees>-1.2116153351962566375732421875</LongitudeDegrees>
            </Position>
            <AltitudeMeters>54</AltitudeMeters>
            <DistanceMeters>NAN</DistanceMeters>
          </Trackpoint>
          <Trackpoint>
            <Time>2022-07-04T18:27:04.000Z</Time>
            <Position>
              <LatitudeDegrees>44.58241467364132404327392578125</LatitudeDegrees>
              <LongitudeDegrees>-1.2116445042192935943603515625</LongitudeDegrees>
            </Position>
            <AltitudeMeters>54.40000152587890625</AltitudeMeters>
            <DistanceMeters>NAN</DistanceMeters>
          </Trackpoint>
          <Trackpoint>
            <Time>2022-07-04T18:27:05.000Z</Time>
            <Position>
              <LatitudeDegrees>44.58239992149174213409423828125</LatitudeDegrees>
              <LongitudeDegrees>-1.211653053760528564453125</LongitudeDegrees>
            </Position>
            <AltitudeMeters>54.59999847412109375</AltitudeMeters>
            <DistanceMeters>NAN</DistanceMeters>
          </Trackpoint>
          <Trackpoint>
            <Time>2022-07-04T18:27:07.000Z</Time>
            <Position>
              <LatitudeDegrees>44.582371674478054046630859375</LatitudeDegrees>
              <LongitudeDegrees>-1.21166286058723926544189453125</LongitudeDegrees>
            </Position>
            <AltitudeMeters>54.799999237060546875</AltitudeMeters>
            <DistanceMeters>NAN</DistanceMeters>
          </Trackpoint>
          <Trackpoint>
            <Time>2022-07-04T18:27:15.000Z</Time>
            <Position>
              <LatitudeDegrees>44.5822766236960887908935546875</LatitudeDegrees>
              <LongitudeDegrees>-1.2117333523929119110107421875</LongitudeDegrees>
            </Position>
            <AltitudeMeters>55.59999847412109375</AltitudeMeters>
            <DistanceMeters>NAN</DistanceMeters>
          </Trackpoint>
          <Trackpoint>
            <Time>2022-07-04T18:27:25.000Z</Time>
            <Position>
              <LatitudeDegrees>44.5820637233555316925048828125</LatitudeDegrees>
              <LongitudeDegrees>-1.21178339235484600067138671875</LongitudeDegrees>
            </Position>
            <AltitudeMeters>56.200000762939453125</AltitudeMeters>
            <DistanceMeters>NAN</DistanceMeters>
          </Trackpoint>
          <Trackpoint>
            <Time>2022-07-04T18:27:35.000Z</Time>
            <Position>
              <LatitudeDegrees>44.5818102546036243438720703125</LatitudeDegrees>
              <LongitudeDegrees>-1.21184256859123706817626953125</LongitudeDegrees>
            </Position>
            <AltitudeMeters>56.59999847412109375</AltitudeMeters>
            <DistanceMeters>NAN</DistanceMeters>
          </Trackpoint>
          <Trackpoint>
            <Time>2022-07-04T18:27:43.000Z</Time>
            <Position>
              <LatitudeDegrees>44.581608586013317108154296875</LatitudeDegrees>
              <LongitudeDegrees>-1.21192219667136669158935546875</LongitudeDegrees>
            </Position>
            <AltitudeMeters>56.59999847412109375</AltitudeMeters>
            <DistanceMeters>NAN</DistanceMeters>
          </Trackpoint>
          <Trackpoint>
            <Time>2022-07-04T18:27:47.000Z</Time>
            <Position>
              <LatitudeDegrees>44.5814753137528896331787109375</LatitudeDegrees>
              <LongitudeDegrees>-1.2119579873979091644287109375</LongitudeDegrees>
            </Position>
            <AltitudeMeters>56.59999847412109375</AltitudeMeters>
            <DistanceMeters>NAN</DistanceMeters>
          </Trackpoint>
          <Trackpoint>
            <Time>2022-07-04T18:27:49.000Z</Time>
            <Position>
              <LatitudeDegrees>44.581418149173259735107421875</LatitudeDegrees>
              <LongitudeDegrees>-1.211983300745487213134765625</LongitudeDegrees>
            </Position>
            <AltitudeMeters>56.59999847412109375</AltitudeMeters>
            <DistanceMeters>NAN</DistanceMeters>
          </Trackpoint>
          <Trackpoint>
            <Time>2022-07-04T18:27:51.000Z</Time>
            <Position>
              <LatitudeDegrees>44.58135453052818775177001953125</LatitudeDegrees>
              <LongitudeDegrees>-1.21201045811176300048828125</LongitudeDegrees>
            </Position>
            <AltitudeMeters>56.59999847412109375</AltitudeMeters>
            <DistanceMeters>NAN</DistanceMeters>
          </Trackpoint>
          <Trackpoint>
            <Time>2022-07-04T18:27:56.000Z</Time>
            <Position>
              <LatitudeDegrees>44.5812449790537357330322265625</LatitudeDegrees>
              <LongitudeDegrees>-1.212051697075366973876953125</LongitudeDegrees>
            </Position>
            <AltitudeMeters>56.40000152587890625</AltitudeMeters>
            <DistanceMeters>NAN</DistanceMeters>
          </Trackpoint>
          <Trackpoint>
            <Time>2022-07-04T18:28:02.000Z</Time>
            <Position>
              <LatitudeDegrees>44.5810582302510738372802734375</LatitudeDegrees>
              <LongitudeDegrees>-1.2120889127254486083984375</LongitudeDegrees>
            </Position>
            <AltitudeMeters>56.40000152587890625</AltitudeMeters>
            <DistanceMeters>NAN</DistanceMeters>
          </Trackpoint>
          <Trackpoint>
            <Time>2022-07-04T18:28:05.000Z</Time>
            <Position>
              <LatitudeDegrees>44.5809770934283733367919921875</LatitudeDegrees>
              <LongitudeDegrees>-1.2121232785284519195556640625</LongitudeDegrees>
            </Position>
            <AltitudeMeters>56.40000152587890625</AltitudeMeters>
            <DistanceMeters>NAN</DistanceMeters>
          </Trackpoint>
          <Trackpoint>
            <Time>2022-07-04T18:28:13.000Z</Time>
            <Position>
              <LatitudeDegrees>44.58075136877596378326416015625</LatitudeDegrees>
              <LongitudeDegrees>-1.21225747279822826385498046875</LongitudeDegrees>
            </Position>
            <AltitudeMeters>56.59999847412109375</AltitudeMeters>
            <DistanceMeters>NAN</DistanceMeters>
          </Trackpoint>
          <Trackpoint>
            <Time>2022-07-04T18:28:14.000Z</Time>
            <Position>
              <LatitudeDegrees>44.58072437904775142669677734375</LatitudeDegrees>
              <LongitudeDegrees>-1.21227323077619075775146484375</LongitudeDegrees>
            </Position>
            <AltitudeMeters>56.59999847412109375</AltitudeMeters>
            <DistanceMeters>NAN</DistanceMeters>
          </Trackpoint>
          <Trackpoint>
            <Time>2022-07-04T18:28:20.000Z</Time>
            <Position>
              <LatitudeDegrees>44.58054743707180023193359375</LatitudeDegrees>
              <LongitudeDegrees>-1.21235051192343235015869140625</LongitudeDegrees>
            </Position>
            <AltitudeMeters>56.799999237060546875</AltitudeMeters>
            <DistanceMeters>NAN</DistanceMeters>
          </Trackpoint>
          <Trackpoint>
            <Time>2022-07-04T18:28:23.000Z</Time>
            <Position>
              <LatitudeDegrees>44.580438472330570220947265625</LatitudeDegrees>
              <LongitudeDegrees>-1.21238462626934051513671875</LongitudeDegrees>
            </Position>
            <AltitudeMeters>56.799999237060546875</AltitudeMeters>
            <DistanceMeters>NAN</DistanceMeters>
          </Trackpoint>
          <Trackpoint>
            <Time>2022-07-04T18:28:30.000Z</Time>
            <Position>
              <LatitudeDegrees>44.58022448234260082244873046875</LatitudeDegrees>
              <LongitudeDegrees>-1.21246500872075557708740234375</LongitudeDegrees>
            </Position>
            <AltitudeMeters>57</AltitudeMeters>
            <DistanceMeters>NAN</DistanceMeters>
          </Trackpoint>
          <Trackpoint>
            <Time>2022-07-04T18:28:37.000Z</Time>
            <Position>
              <LatitudeDegrees>44.58004980348050594329833984375</LatitudeDegrees>
              <LongitudeDegrees>-1.21252519078552722930908203125</LongitudeDegrees>
            </Position>
            <AltitudeMeters>57.40000152587890625</AltitudeMeters>
            <DistanceMeters>NAN</DistanceMeters>
          </Trackpoint>
          <Trackpoint>
            <Time>2022-07-04T18:28:44.000Z</Time>
            <Position>
              <LatitudeDegrees>44.5798368193209171295166015625</LatitudeDegrees>
              <LongitudeDegrees>-1.2125728838145732879638671875</LongitudeDegrees>
            </Position>
            <AltitudeMeters>57.59999847412109375</AltitudeMeters>
            <DistanceMeters>NAN</DistanceMeters>
          </Trackpoint>
          <Trackpoint>
            <Time>2022-07-04T18:28:47.000Z</Time>
            <Position>
              <LatitudeDegrees>44.57974813878536224365234375</LatitudeDegrees>
              <LongitudeDegrees>-1.21259157545864582061767578125</LongitudeDegrees>
            </Position>
            <AltitudeMeters>57.59999847412109375</AltitudeMeters>
            <DistanceMeters>NAN</DistanceMeters>
          </Trackpoint>
          <Trackpoint>
            <Time>2022-07-04T18:28:51.000Z</Time>
            <Position>
              <LatitudeDegrees>44.57961612381041049957275390625</LatitudeDegrees>
              <LongitudeDegrees>-1.21261931955814361572265625</LongitudeDegrees>
            </Position>
            <AltitudeMeters>57.40000152587890625</AltitudeMeters>
            <DistanceMeters>NAN</DistanceMeters>
          </Trackpoint>
          <Trackpoint>
            <Time>2022-07-04T18:28:55.000Z</Time>
            <Position>
              <LatitudeDegrees>44.57945711910724639892578125</LatitudeDegrees>
              <LongitudeDegrees>-1.21264454908668994903564453125</LongitudeDegrees>
            </Position>
            <AltitudeMeters>57.200000762939453125</AltitudeMeters>
            <DistanceMeters>NAN</DistanceMeters>
          </Trackpoint>
          <Trackpoint>
            <Time>2022-07-04T18:29:02.000Z</Time>
            <Position>
              <LatitudeDegrees>44.57920557819306850433349609375</LatitudeDegrees>
              <LongitudeDegrees>-1.21269685216248035430908203125</LongitudeDegrees>
            </Position>
            <AltitudeMeters>57.200000762939453125</AltitudeMeters>
            <DistanceMeters>NAN</DistanceMeters>
          </Trackpoint>
          <Trackpoint>
            <Time>2022-07-04T18:29:10.000Z</Time>
            <Position>
              <LatitudeDegrees>44.57894892431795597076416015625</LatitudeDegrees>
              <LongitudeDegrees>-1.2127069942653179168701171875</LongitudeDegrees>
            </Position>
            <AltitudeMeters>57.59999847412109375</AltitudeMeters>
            <DistanceMeters>NAN</DistanceMeters>
          </Trackpoint>
          <Trackpoint>
            <Time>2022-07-04T18:29:11.000Z</Time>
            <Position>
              <LatitudeDegrees>44.5789154805243015289306640625</LatitudeDegrees>
              <LongitudeDegrees>-1.212703473865985870361328125</LongitudeDegrees>
            </Position>
            <AltitudeMeters>57.799999237060546875</AltitudeMeters>
            <DistanceMeters>NAN</DistanceMeters>
          </Trackpoint>
          <Trackpoint>
            <Time>2022-07-04T18:29:20.000Z</Time>
            <Position>
              <LatitudeDegrees>44.578647427260875701904296875</LatitudeDegrees>
              <LongitudeDegrees>-1.2126972712576389312744140625</LongitudeDegrees>
            </Position>
            <AltitudeMeters>58.200000762939453125</AltitudeMeters>
            <DistanceMeters>NAN</DistanceMeters>
          </Trackpoint>
          <Trackpoint>
            <Time>2022-07-04T18:29:25.000Z</Time>
            <Position>
              <LatitudeDegrees>44.57850887440145015716552734375</LatitudeDegrees>
              <LongitudeDegrees>-1.21269869618117809295654296875</LongitudeDegrees>
            </Position>
            <AltitudeMeters>58.799999237060546875</AltitudeMeters>
            <DistanceMeters>NAN</DistanceMeters>
          </Trackpoint>
          <Trackpoint>
            <Time>2022-07-04T18:29:29.000Z</Time>
            <Position>
              <LatitudeDegrees>44.578416757285594940185546875</LatitudeDegrees>
              <LongitudeDegrees>-1.21270556934177875518798828125</LongitudeDegrees>
            </Position>
            <AltitudeMeters>59.200000762939453125</AltitudeMeters>
            <DistanceMeters>NAN</DistanceMeters>
          </Trackpoint>
          <Trackpoint>
            <Time>2022-07-04T18:29:31.000Z</Time>
            <Position>
              <LatitudeDegrees>44.57837057299911975860595703125</LatitudeDegrees>
              <LongitudeDegrees>-1.21270992793142795562744140625</LongitudeDegrees>
            </Position>
            <AltitudeMeters>59.200000762939453125</AltitudeMeters>
            <DistanceMeters>NAN</DistanceMeters>
          </Trackpoint>
          <Trackpoint>
            <Time>2022-07-04T18:29:34.000Z</Time>
            <Position>
              <LatitudeDegrees>44.57830988802015781402587890625</LatitudeDegrees>
              <LongitudeDegrees>-1.212716214358806610107421875</LongitudeDegrees>
            </Position>
            <AltitudeMeters>59.799999237060546875</AltitudeMeters>
            <DistanceMeters>NAN</DistanceMeters>
          </Trackpoint>
          <Trackpoint>
            <Time>2022-07-04T18:29:43.000Z</Time>
            <Position>
              <LatitudeDegrees>44.57810587249696254730224609375</LatitudeDegrees>
              <LongitudeDegrees>-1.21270649135112762451171875</LongitudeDegrees>
            </Position>
            <AltitudeMeters>60.40000152587890625</AltitudeMeters>
            <DistanceMeters>NAN</DistanceMeters>
          </Trackpoint>
          <Trackpoint>
            <Time>2022-07-04T18:29:46.000Z</Time>
            <Position>
              <LatitudeDegrees>44.578037224709987640380859375</LatitudeDegrees>
              <LongitudeDegrees>-1.2127006240189075469970703125</LongitudeDegrees>
            </Position>
            <AltitudeMeters>60.799999237060546875</AltitudeMeters>
            <DistanceMeters>NAN</DistanceMeters>
          </Trackpoint>
          <Trackpoint>
            <Time>2022-07-04T18:29:51.000Z</Time>
            <Position>
              <LatitudeDegrees>44.57789967767894268035888671875</LatitudeDegrees>
              <LongitudeDegrees>-1.2127192318439483642578125</LongitudeDegrees>
            </Position>
            <AltitudeMeters>60.799999237060546875</AltitudeMeters>
            <DistanceMeters>NAN</DistanceMeters>
          </Trackpoint>
          <Trackpoint>
            <Time>2022-07-04T18:29:56.000Z</Time>
            <Position>
              <LatitudeDegrees>44.57772709429264068603515625</LatitudeDegrees>
              <LongitudeDegrees>-1.21276357211172580718994140625</LongitudeDegrees>
            </Position>
            <AltitudeMeters>60.200000762939453125</AltitudeMeters>
            <DistanceMeters>NAN</DistanceMeters>
          </Trackpoint>
          <Trackpoint>
            <Time>2022-07-04T18:29:57.000Z</Time>
            <Position>
              <LatitudeDegrees>44.57768308930099010467529296875</LatitudeDegrees>
              <LongitudeDegrees>-1.21277044527232646942138671875</LongitudeDegrees>
            </Position>
            <AltitudeMeters>60.200000762939453125</AltitudeMeters>
            <DistanceMeters>NAN</DistanceMeters>
          </Trackpoint>
          <Trackpoint>
            <Time>2022-07-04T18:30:01.000Z</Time>
            <Position>
              <LatitudeDegrees>44.57747471518814563751220703125</LatitudeDegrees>
              <LongitudeDegrees>-1.21280162595212459564208984375</LongitudeDegrees>
            </Position>
            <AltitudeMeters>59.59999847412109375</AltitudeMeters>
            <DistanceMeters>NAN</DistanceMeters>
          </Trackpoint>
          <Trackpoint>
            <Time>2022-07-04T18:30:04.000Z</Time>
            <Position>
              <LatitudeDegrees>44.57731294445693492889404296875</LatitudeDegrees>
              <LongitudeDegrees>-1.21284621767699718475341796875</LongitudeDegrees>
            </Position>
            <AltitudeMeters>59</AltitudeMeters>
            <DistanceMeters>NAN</DistanceMeters>
          </Trackpoint>
          <Trackpoint>
            <Time>2022-07-04T18:30:09.000Z</Time>
            <Position>
              <LatitudeDegrees>44.57703516818583011627197265625</LatitudeDegrees>
              <LongitudeDegrees>-1.21295501478016376495361328125</LongitudeDegrees>
            </Position>
            <AltitudeMeters>58.59999847412109375</AltitudeMeters>
            <DistanceMeters>NAN</DistanceMeters>
          </Trackpoint>
          <Trackpoint>
            <Time>2022-07-04T18:30:14.000Z</Time>
            <Position>
              <LatitudeDegrees>44.5768448151648044586181640625</LatitudeDegrees>
              <LongitudeDegrees>-1.213075630366802215576171875</LongitudeDegrees>
            </Position>
            <AltitudeMeters>58.59999847412109375</AltitudeMeters>
            <DistanceMeters>NAN</DistanceMeters>
          </Trackpoint>
          <Trackpoint>
            <Time>2022-07-04T18:30:20.000Z</Time>
            <Position>
              <LatitudeDegrees>44.57669368945062160491943359375</LatitudeDegrees>
              <LongitudeDegrees>-1.2131918035447597503662109375</LongitudeDegrees>
            </Position>
            <AltitudeMeters>59</AltitudeMeters>
            <DistanceMeters>NAN</DistanceMeters>
          </Trackpoint>
          <Trackpoint>
            <Time>2022-07-04T18:30:26.000Z</Time>
            <Position>
              <LatitudeDegrees>44.576566703617572784423828125</LatitudeDegrees>
              <LongitudeDegrees>-1.213278807699680328369140625</LongitudeDegrees>
            </Position>
            <AltitudeMeters>59.200000762939453125</AltitudeMeters>
            <DistanceMeters>NAN</DistanceMeters>
          </Trackpoint>
          <Trackpoint>
            <Time>2022-07-04T18:30:28.000Z</Time>
            <Position>
              <LatitudeDegrees>44.57652571611106395721435546875</LatitudeDegrees>
              <LongitudeDegrees>-1.2133121676743030548095703125</LongitudeDegrees>
            </Position>
            <AltitudeMeters>59.799999237060546875</AltitudeMeters>
            <DistanceMeters>NAN</DistanceMeters>
          </Trackpoint>
          <Trackpoint>
            <Time>2022-07-04T18:30:36.000Z</Time>
            <Position>
              <LatitudeDegrees>44.576346762478351593017578125</LatitudeDegrees>
              <LongitudeDegrees>-1.21345390565693378448486328125</LongitudeDegrees>
            </Position>
            <AltitudeMeters>60.40000152587890625</AltitudeMeters>
            <DistanceMeters>NAN</DistanceMeters>
          </Trackpoint>
          <Trackpoint>
            <Time>2022-07-04T18:30:40.000Z</Time>
            <Position>
              <LatitudeDegrees>44.5762617699801921844482421875</LatitudeDegrees>
              <LongitudeDegrees>-1.2135076336562633514404296875</LongitudeDegrees>
            </Position>
            <AltitudeMeters>60.799999237060546875</AltitudeMeters>
            <DistanceMeters>NAN</DistanceMeters>
          </Trackpoint>
          <Trackpoint>
            <Time>2022-07-04T18:30:44.000Z</Time>
            <Position>
              <LatitudeDegrees>44.57619018852710723876953125</LatitudeDegrees>
              <LongitudeDegrees>-1.21357108466327190399169921875</LongitudeDegrees>
            </Position>
            <AltitudeMeters>61.200000762939453125</AltitudeMeters>
            <DistanceMeters>NAN</DistanceMeters>
          </Trackpoint>
          <Trackpoint>
            <Time>2022-07-04T18:30:51.000Z</Time>
            <Position>
              <LatitudeDegrees>44.576058425009250640869140625</LatitudeDegrees>
              <LongitudeDegrees>-1.213713325560092926025390625</LongitudeDegrees>
            </Position>
            <AltitudeMeters>61.59999847412109375</AltitudeMeters>
            <DistanceMeters>NAN</DistanceMeters>
          </Trackpoint>
          <Trackpoint>
            <Time>2022-07-04T18:30:54.000Z</Time>
            <Position>
              <LatitudeDegrees>44.5759923756122589111328125</LatitudeDegrees>
              <LongitudeDegrees>-1.21377610601484775543212890625</LongitudeDegrees>
            </Position>
            <AltitudeMeters>61.799999237060546875</AltitudeMeters>
            <DistanceMeters>NAN</DistanceMeters>
          </Trackpoint>
          <Trackpoint>
            <Time>2022-07-04T18:30:57.000Z</Time>
            <Position>
              <LatitudeDegrees>44.5759140886366367340087890625</LatitudeDegrees>
              <LongitudeDegrees>-1.21383662335574626922607421875</LongitudeDegrees>
            </Position>
            <AltitudeMeters>62.200000762939453125</AltitudeMeters>
            <DistanceMeters>NAN</DistanceMeters>
          </Trackpoint>
          <Trackpoint>
            <Time>2022-07-04T18:30:58.000Z</Time>
            <Position>
              <LatitudeDegrees>44.57588844001293182373046875</LatitudeDegrees>
              <LongitudeDegrees>-1.21386009268462657928466796875</LongitudeDegrees>
            </Position>
            <AltitudeMeters>62.200000762939453125</AltitudeMeters>
            <DistanceMeters>NAN</DistanceMeters>
          </Trackpoint>
          <Trackpoint>
            <Time>2022-07-04T18:31:03.000Z</Time>
            <Position>
              <LatitudeDegrees>44.57580738700926303863525390625</LatitudeDegrees>
              <LongitudeDegrees>-1.21398783288896083831787109375</LongitudeDegrees>
            </Position>
            <AltitudeMeters>63</AltitudeMeters>
            <DistanceMeters>NAN</DistanceMeters>
          </Trackpoint>
          <Trackpoint>
            <Time>2022-07-04T18:31:05.000Z</Time>
            <Position>
              <LatitudeDegrees>44.57577654160559177398681640625</LatitudeDegrees>
              <LongitudeDegrees>-1.2140454165637493133544921875</LongitudeDegrees>
            </Position>
            <AltitudeMeters>63</AltitudeMeters>
            <DistanceMeters>NAN</DistanceMeters>
          </Trackpoint>
          <Trackpoint>
            <Time>2022-07-04T18:31:15.000Z</Time>
            <Position>
              <LatitudeDegrees>44.5756022818386554718017578125</LatitudeDegrees>
              <LongitudeDegrees>-1.21429259888827800750732421875</LongitudeDegrees>
            </Position>
            <AltitudeMeters>63.799999237060546875</AltitudeMeters>
            <DistanceMeters>NAN</DistanceMeters>
          </Trackpoint>
          <Trackpoint>
            <Time>2022-07-04T18:31:20.000Z</Time>
            <Position>
              <LatitudeDegrees>44.575511254370212554931640625</LatitudeDegrees>
              <LongitudeDegrees>-1.21442687697708606719970703125</LongitudeDegrees>
            </Position>
            <AltitudeMeters>64</AltitudeMeters>
            <DistanceMeters>NAN</DistanceMeters>
          </Trackpoint>
          <Trackpoint>
            <Time>2022-07-04T18:31:23.000Z</Time>
            <Position>
              <LatitudeDegrees>44.575464986264705657958984375</LatitudeDegrees>
              <LongitudeDegrees>-1.2145164795219898223876953125</LongitudeDegrees>
            </Position>
            <AltitudeMeters>64.40000152587890625</AltitudeMeters>
            <DistanceMeters>NAN</DistanceMeters>
          </Trackpoint>
          <Trackpoint>
            <Time>2022-07-04T18:31:27.000Z</Time>
            <Position>
              <LatitudeDegrees>44.575405307114124298095703125</LatitudeDegrees>
              <LongitudeDegrees>-1.21463097631931304931640625</LongitudeDegrees>
            </Position>
            <AltitudeMeters>64.8000030517578125</AltitudeMeters>
            <DistanceMeters>NAN</DistanceMeters>
          </Trackpoint>
          <Trackpoint>
            <Time>2022-07-04T18:31:30.000Z</Time>
            <Position>
              <LatitudeDegrees>44.57535526715219020843505859375</LatitudeDegrees>
              <LongitudeDegrees>-1.21471052058041095733642578125</LongitudeDegrees>
            </Position>
            <AltitudeMeters>65</AltitudeMeters>
            <DistanceMeters>NAN</DistanceMeters>
          </Trackpoint>
          <Trackpoint>
            <Time>2022-07-04T18:31:32.000Z</Time>
            <Position>
              <LatitudeDegrees>44.5753310434520244598388671875</LatitudeDegrees>
              <LongitudeDegrees>-1.21476567350327968597412109375</LongitudeDegrees>
            </Position>
            <AltitudeMeters>65.1999969482421875</AltitudeMeters>
            <DistanceMeters>NAN</DistanceMeters>
          </Trackpoint>
          <Trackpoint>
            <Time>2022-07-04T18:31:41.000Z</Time>
            <Position>
              <LatitudeDegrees>44.57519240677356719970703125</LatitudeDegrees>
              <LongitudeDegrees>-1.21501092799007892608642578125</LongitudeDegrees>
            </Position>
            <AltitudeMeters>65.59999847412109375</AltitudeMeters>
            <DistanceMeters>NAN</DistanceMeters>
          </Trackpoint>
          <Trackpoint>
            <Time>2022-07-04T18:31:48.000Z</Time>
            <Position>
              <LatitudeDegrees>44.57507665269076824188232421875</LatitudeDegrees>
              <LongitudeDegrees>-1.21523153968155384063720703125</LongitudeDegrees>
            </Position>
            <AltitudeMeters>65.59999847412109375</AltitudeMeters>
            <DistanceMeters>NAN</DistanceMeters>
          </Trackpoint>
          <Trackpoint>
            <Time>2022-07-04T18:31:57.000Z</Time>
            <Position>
              <LatitudeDegrees>44.574903063476085662841796875</LatitudeDegrees>
              <LongitudeDegrees>-1.21555390767753124237060546875</LongitudeDegrees>
            </Position>
            <AltitudeMeters>65.40000152587890625</AltitudeMeters>
            <DistanceMeters>NAN</DistanceMeters>
          </Trackpoint>
          <Trackpoint>
            <Time>2022-07-04T18:32:05.000Z</Time>
            <Position>
              <LatitudeDegrees>44.5747248642146587371826171875</LatitudeDegrees>
              <LongitudeDegrees>-1.21585481800138950347900390625</LongitudeDegrees>
            </Position>
            <AltitudeMeters>65.40000152587890625</AltitudeMeters>
            <DistanceMeters>NAN</DistanceMeters>
          </Trackpoint>
          <Trackpoint>
            <Time>2022-07-04T18:32:14.000Z</Time>
            <Position>
              <LatitudeDegrees>44.5745464973151683807373046875</LatitudeDegrees>
              <LongitudeDegrees>-1.2162005715072154998779296875</LongitudeDegrees>
            </Position>
            <AltitudeMeters>64.59999847412109375</AltitudeMeters>
            <DistanceMeters>NAN</DistanceMeters>
          </Trackpoint>
          <Trackpoint>
            <Time>2022-07-04T18:32:19.000Z</Time>
            <Position>
              <LatitudeDegrees>44.57441180013120174407958984375</LatitudeDegrees>
              <LongitudeDegrees>-1.2164543755352497100830078125</LongitudeDegrees>
            </Position>
            <AltitudeMeters>64</AltitudeMeters>
            <DistanceMeters>NAN</DistanceMeters>
          </Trackpoint>
          <Trackpoint>
            <Time>2022-07-04T18:32:20.000Z</Time>
            <Position>
              <LatitudeDegrees>44.57438078708946704864501953125</LatitudeDegrees>
              <LongitudeDegrees>-1.2165127135813236236572265625</LongitudeDegrees>
            </Position>
            <AltitudeMeters>63.799999237060546875</AltitudeMeters>
            <DistanceMeters>NAN</DistanceMeters>
          </Trackpoint>
          <Trackpoint>
            <Time>2022-07-04T18:32:24.000Z</Time>
            <Position>
              <LatitudeDegrees>44.5742521248757839202880859375</LatitudeDegrees>
              <LongitudeDegrees>-1.21675050817430019378662109375</LongitudeDegrees>
            </Position>
            <AltitudeMeters>63</AltitudeMeters>
            <DistanceMeters>NAN</DistanceMeters>
          </Trackpoint>
          <Trackpoint>
            <Time>2022-07-04T18:32:27.000Z</Time>
            <Position>
              <LatitudeDegrees>44.5741538889706134796142578125</LatitudeDegrees>
              <LongitudeDegrees>-1.21692753396928310394287109375</LongitudeDegrees>
            </Position>
            <AltitudeMeters>61.59999847412109375</AltitudeMeters>
            <DistanceMeters>NAN</DistanceMeters>
          </Trackpoint>
          <Trackpoint>
            <Time>2022-07-04T18:32:29.000Z</Time>
            <Position>
              <LatitudeDegrees>44.57408222369849681854248046875</LatitudeDegrees>
              <LongitudeDegrees>-1.217035241425037384033203125</LongitudeDegrees>
            </Position>
            <AltitudeMeters>60.40000152587890625</AltitudeMeters>
            <DistanceMeters>NAN</DistanceMeters>
          </Trackpoint>
          <Trackpoint>
            <Time>2022-07-04T18:32:32.000Z</Time>
            <Position>
              <LatitudeDegrees>44.57396705634891986846923828125</LatitudeDegrees>
              <LongitudeDegrees>-1.21720296330749988555908203125</LongitudeDegrees>
            </Position>
            <AltitudeMeters>59</AltitudeMeters>
            <DistanceMeters>NAN</DistanceMeters>
          </Trackpoint>
          <Trackpoint>
            <Time>2022-07-04T18:32:34.000Z</Time>
            <Position>
              <LatitudeDegrees>44.57387904636561870574951171875</LatitudeDegrees>
              <LongitudeDegrees>-1.21731184422969818115234375</LongitudeDegrees>
            </Position>
            <AltitudeMeters>58.200000762939453125</AltitudeMeters>
            <DistanceMeters>NAN</DistanceMeters>
          </Trackpoint>
          <Trackpoint>
            <Time>2022-07-04T18:32:35.000Z</Time>
            <Position>
              <LatitudeDegrees>44.573821127414703369140625</LatitudeDegrees>
              <LongitudeDegrees>-1.217379905283451080322265625</LongitudeDegrees>
            </Position>
            <AltitudeMeters>58</AltitudeMeters>
            <DistanceMeters>NAN</DistanceMeters>
          </Trackpoint>
          <Trackpoint>
            <Time>2022-07-04T18:32:38.000Z</Time>
            <Position>
              <LatitudeDegrees>44.57366497255861759185791015625</LatitudeDegrees>
              <LongitudeDegrees>-1.217548213899135589599609375</LongitudeDegrees>
            </Position>
            <AltitudeMeters>56.799999237060546875</AltitudeMeters>
            <DistanceMeters>NAN</DistanceMeters>
          </Trackpoint>
          <Trackpoint>
            <Time>2022-07-04T18:32:40.000Z</Time>
            <Position>
              <LatitudeDegrees>44.57354527898132801055908203125</LatitudeDegrees>
              <LongitudeDegrees>-1.21766044758260250091552734375</LongitudeDegrees>
            </Position>
            <AltitudeMeters>55.799999237060546875</AltitudeMeters>
            <DistanceMeters>NAN</DistanceMeters>
          </Trackpoint>
          <Trackpoint>
            <Time>2022-07-04T18:32:41.000Z</Time>
            <Position>
              <LatitudeDegrees>44.573480151593685150146484375</LatitudeDegrees>
              <LongitudeDegrees>-1.21771610341966152191162109375</LongitudeDegrees>
            </Position>
            <AltitudeMeters>55.40000152587890625</AltitudeMeters>
            <DistanceMeters>NAN</DistanceMeters>
          </Trackpoint>
          <Trackpoint>
            <Time>2022-07-04T18:32:43.000Z</Time>
            <Position>
              <LatitudeDegrees>44.57334595732390880584716796875</LatitudeDegrees>
              <LongitudeDegrees>-1.21784082613885402679443359375</LongitudeDegrees>
            </Position>
            <AltitudeMeters>54.40000152587890625</AltitudeMeters>
            <DistanceMeters>NAN</DistanceMeters>
          </Trackpoint>
          <Trackpoint>
            <Time>2022-07-04T18:32:44.000Z</Time>
            <Position>
              <LatitudeDegrees>44.5732761360704898834228515625</LatitudeDegrees>
              <LongitudeDegrees>-1.21789866127073764801025390625</LongitudeDegrees>
            </Position>
            <AltitudeMeters>53.799999237060546875</AltitudeMeters>
            <DistanceMeters>NAN</DistanceMeters>
          </Trackpoint>
          <Trackpoint>
            <Time>2022-07-04T18:32:45.000Z</Time>
            <Position>
              <LatitudeDegrees>44.5732080750167369842529296875</LatitudeDegrees>
              <LongitudeDegrees>-1.21795968152582645416259765625</LongitudeDegrees>
            </Position>
            <AltitudeMeters>53.200000762939453125</AltitudeMeters>
            <DistanceMeters>NAN</DistanceMeters>
          </Trackpoint>
          <Trackpoint>
            <Time>2022-07-04T18:32:46.000Z</Time>
            <Position>
              <LatitudeDegrees>44.573139511048793792724609375</LatitudeDegrees>
              <LongitudeDegrees>-1.21802455745637416839599609375</LongitudeDegrees>
            </Position>
            <AltitudeMeters>52.40000152587890625</AltitudeMeters>
            <DistanceMeters>NAN</DistanceMeters>
          </Trackpoint>
          <Trackpoint>
            <Time>2022-07-04T18:32:47.000Z</Time>
            <Position>
              <LatitudeDegrees>44.57307639531791210174560546875</LatitudeDegrees>
              <LongitudeDegrees>-1.218096725642681121826171875</LongitudeDegrees>
            </Position>
            <AltitudeMeters>51.799999237060546875</AltitudeMeters>
            <DistanceMeters>NAN</DistanceMeters>
          </Trackpoint>
          <Trackpoint>
            <Time>2022-07-04T18:32:49.000Z</Time>
            <Position>
              <LatitudeDegrees>44.5729472301900386810302734375</LatitudeDegrees>
              <LongitudeDegrees>-1.218258999288082122802734375</LongitudeDegrees>
            </Position>
            <AltitudeMeters>50.799999237060546875</AltitudeMeters>
            <DistanceMeters>NAN</DistanceMeters>
          </Trackpoint>
          <Trackpoint>
            <Time>2022-07-04T18:32:51.000Z</Time>
            <Position>
              <LatitudeDegrees>44.5728127844631671905517578125</LatitudeDegrees>
              <LongitudeDegrees>-1.21844968758523464202880859375</LongitudeDegrees>
            </Position>
            <AltitudeMeters>50.200000762939453125</AltitudeMeters>
            <DistanceMeters>NAN</DistanceMeters>
          </Trackpoint>
          <Trackpoint>
            <Time>2022-07-04T18:32:52.000Z</Time>
            <Position>
              <LatitudeDegrees>44.57275402732193470001220703125</LatitudeDegrees>
              <LongitudeDegrees>-1.21855211444199085235595703125</LongitudeDegrees>
            </Position>
            <AltitudeMeters>49.799999237060546875</AltitudeMeters>
            <DistanceMeters>NAN</DistanceMeters>
          </Trackpoint>
          <Trackpoint>
            <Time>2022-07-04T18:32:54.000Z</Time>
            <Position>
              <LatitudeDegrees>44.572649337351322174072265625</LatitudeDegrees>
              <LongitudeDegrees>-1.21876752935349941253662109375</LongitudeDegrees>
            </Position>
            <AltitudeMeters>48.200000762939453125</AltitudeMeters>
            <DistanceMeters>NAN</DistanceMeters>
          </Trackpoint>
          <Trackpoint>
            <Time>2022-07-04T18:32:56.000Z</Time>
            <Position>
              <LatitudeDegrees>44.57256409339606761932373046875</LatitudeDegrees>
              <LongitudeDegrees>-1.218989901244640350341796875</LongitudeDegrees>
            </Position>
            <AltitudeMeters>47.200000762939453125</AltitudeMeters>
            <DistanceMeters>NAN</DistanceMeters>
          </Trackpoint>
          <Trackpoint>
            <Time>2022-07-04T18:32:57.000Z</Time>
            <Position>
              <LatitudeDegrees>44.57253056578338146209716796875</LatitudeDegrees>
              <LongitudeDegrees>-1.2190993689000606536865234375</LongitudeDegrees>
            </Position>
            <AltitudeMeters>47.200000762939453125</AltitudeMeters>
            <DistanceMeters>NAN</DistanceMeters>
          </Trackpoint>
          <Trackpoint>
            <Time>2022-07-04T18:32:58.000Z</Time>
            <Position>
              <LatitudeDegrees>44.572506844997406005859375</LatitudeDegrees>
              <LongitudeDegrees>-1.21920405887067317962646484375</LongitudeDegrees>
            </Position>
            <AltitudeMeters>47</AltitudeMeters>
            <DistanceMeters>NAN</DistanceMeters>
          </Trackpoint>
          <Trackpoint>
            <Time>2022-07-04T18:33:00.000Z</Time>
            <Position>
              <LatitudeDegrees>44.5724661089479923248291015625</LatitudeDegrees>
              <LongitudeDegrees>-1.21939214877784252166748046875</LongitudeDegrees>
            </Position>
            <AltitudeMeters>47</AltitudeMeters>
            <DistanceMeters>NAN</DistanceMeters>
          </Trackpoint>
          <Trackpoint>
            <Time>2022-07-04T18:33:04.000Z</Time>
            <Position>
              <LatitudeDegrees>44.57239796407520771026611328125</LatitudeDegrees>
              <LongitudeDegrees>-1.21968769468367099761962890625</LongitudeDegrees>
            </Position>
            <AltitudeMeters>46.799999237060546875</AltitudeMeters>
            <DistanceMeters>NAN</DistanceMeters>
          </Trackpoint>
          <Trackpoint>
            <Time>2022-07-04T18:33:06.000Z</Time>
            <Position>
              <LatitudeDegrees>44.57238052971661090850830078125</LatitudeDegrees>
              <LongitudeDegrees>-1.21979716233909130096435546875</LongitudeDegrees>
            </Position>
            <AltitudeMeters>47</AltitudeMeters>
            <DistanceMeters>NAN</DistanceMeters>
          </Trackpoint>
          <Trackpoint>
            <Time>2022-07-04T18:33:08.000Z</Time>
            <Position>
              <LatitudeDegrees>44.57236812449991703033447265625</LatitudeDegrees>
              <LongitudeDegrees>-1.2198792211711406707763671875</LongitudeDegrees>
            </Position>
            <AltitudeMeters>47.40000152587890625</AltitudeMeters>
            <DistanceMeters>NAN</DistanceMeters>
          </Trackpoint>
          <Trackpoint>
            <Time>2022-07-04T18:33:14.000Z</Time>
            <Position>
              <LatitudeDegrees>44.57234323024749755859375</LatitudeDegrees>
              <LongitudeDegrees>-1.22003805823624134063720703125</LongitudeDegrees>
            </Position>
            <AltitudeMeters>48</AltitudeMeters>
            <DistanceMeters>NAN</DistanceMeters>
          </Trackpoint>
          <Trackpoint>
            <Time>2022-07-04T18:33:15.000Z</Time>
            <Position>
              <LatitudeDegrees>44.5723407156765460968017578125</LatitudeDegrees>
              <LongitudeDegrees>-1.2200619466602802276611328125</LongitudeDegrees>
            </Position>
            <AltitudeMeters>48.200000762939453125</AltitudeMeters>
            <DistanceMeters>NAN</DistanceMeters>
          </Trackpoint>
          <Trackpoint>
            <Time>2022-07-04T18:33:19.000Z</Time>
            <Position>
              <LatitudeDegrees>44.57231515087187290191650390625</LatitudeDegrees>
              <LongitudeDegrees>-1.22015138156712055206298828125</LongitudeDegrees>
            </Position>
            <AltitudeMeters>48.799999237060546875</AltitudeMeters>
            <DistanceMeters>NAN</DistanceMeters>
          </Trackpoint>
          <Trackpoint>
            <Time>2022-07-04T18:33:20.000Z</Time>
            <Position>
              <LatitudeDegrees>44.57230978645384311676025390625</LatitudeDegrees>
              <LongitudeDegrees>-1.22017535381019115447998046875</LongitudeDegrees>
            </Position>
            <AltitudeMeters>48.799999237060546875</AltitudeMeters>
            <DistanceMeters>NAN</DistanceMeters>
          </Trackpoint>
          <Trackpoint>
            <Time>2022-07-04T18:33:23.000Z</Time>
            <Position>
              <LatitudeDegrees>44.57229436375200748443603515625</LatitudeDegrees>
              <LongitudeDegrees>-1.2202443368732929229736328125</LongitudeDegrees>
            </Position>
            <AltitudeMeters>49.200000762939453125</AltitudeMeters>
            <DistanceMeters>NAN</DistanceMeters>
          </Trackpoint>
          <Trackpoint>
            <Time>2022-07-04T18:33:27.000Z</Time>
            <Position>
              <LatitudeDegrees>44.57227692939341068267822265625</LatitudeDegrees>
              <LongitudeDegrees>-1.220345087349414825439453125</LongitudeDegrees>
            </Position>
            <AltitudeMeters>49.59999847412109375</AltitudeMeters>
            <DistanceMeters>NAN</DistanceMeters>
          </Trackpoint>
          <Trackpoint>
            <Time>2022-07-04T18:33:33.000Z</Time>
            <Position>
              <LatitudeDegrees>44.57226469181478023529052734375</LatitudeDegrees>
              <LongitudeDegrees>-1.22049294412136077880859375</LongitudeDegrees>
            </Position>
            <AltitudeMeters>50.40000152587890625</AltitudeMeters>
            <DistanceMeters>NAN</DistanceMeters>
          </Trackpoint>
          <Trackpoint>
            <Time>2022-07-04T18:33:35.000Z</Time>
            <Position>
              <LatitudeDegrees>44.57224491052329540252685546875</LatitudeDegrees>
              <LongitudeDegrees>-1.22053996659815311431884765625</LongitudeDegrees>
            </Position>
            <AltitudeMeters>50.59999847412109375</AltitudeMeters>
            <DistanceMeters>NAN</DistanceMeters>
          </Trackpoint>
          <Trackpoint>
            <Time>2022-07-04T18:33:44.000Z</Time>
            <Position>
              <LatitudeDegrees>44.57217869348824024200439453125</LatitudeDegrees>
              <LongitudeDegrees>-1.22077516280114650726318359375</LongitudeDegrees>
            </Position>
            <AltitudeMeters>51.200000762939453125</AltitudeMeters>
            <DistanceMeters>NAN</DistanceMeters>
          </Trackpoint>
          <Trackpoint>
            <Time>2022-07-04T18:33:48.000Z</Time>
            <Position>
              <LatitudeDegrees>44.57216997630894184112548828125</LatitudeDegrees>
              <LongitudeDegrees>-1.22087155468761920928955078125</LongitudeDegrees>
            </Position>
            <AltitudeMeters>51.59999847412109375</AltitudeMeters>
            <DistanceMeters>NAN</DistanceMeters>
          </Trackpoint>
          <Trackpoint>
            <Time>2022-07-04T18:33:50.000Z</Time>
            <Position>
              <LatitudeDegrees>44.57215212285518646240234375</LatitudeDegrees>
              <LongitudeDegrees>-1.2209125421941280364990234375</LongitudeDegrees>
            </Position>
            <AltitudeMeters>51.799999237060546875</AltitudeMeters>
            <DistanceMeters>NAN</DistanceMeters>
          </Trackpoint>
          <Trackpoint>
            <Time>2022-07-04T18:33:53.000Z</Time>
            <Position>
              <LatitudeDegrees>44.5721388794481754302978515625</LatitudeDegrees>
              <LongitudeDegrees>-1.22096342034637928009033203125</LongitudeDegrees>
            </Position>
            <AltitudeMeters>52</AltitudeMeters>
            <DistanceMeters>NAN</DistanceMeters>
          </Trackpoint>
          <Trackpoint>
            <Time>2022-07-04T18:33:57.000Z</Time>
            <Position>
              <LatitudeDegrees>44.57213628105819225311279296875</LatitudeDegrees>
              <LongitudeDegrees>-1.22105327434837818145751953125</LongitudeDegrees>
            </Position>
            <AltitudeMeters>52.200000762939453125</AltitudeMeters>
            <DistanceMeters>NAN</DistanceMeters>
          </Trackpoint>
          <Trackpoint>
            <Time>2022-07-04T18:33:59.000Z</Time>
            <Position>
              <LatitudeDegrees>44.57211432047188282012939453125</LatitudeDegrees>
              <LongitudeDegrees>-1.221091747283935546875</LongitudeDegrees>
            </Position>
            <AltitudeMeters>52.59999847412109375</AltitudeMeters>
            <DistanceMeters>NAN</DistanceMeters>
          </Trackpoint>
          <Trackpoint>
            <Time>2022-07-04T18:34:00.000Z</Time>
            <Position>
              <LatitudeDegrees>44.5721056871116161346435546875</LatitudeDegrees>
              <LongitudeDegrees>-1.22111119329929351806640625</LongitudeDegrees>
            </Position>
            <AltitudeMeters>52.59999847412109375</AltitudeMeters>
            <DistanceMeters>NAN</DistanceMeters>
          </Trackpoint>
          <Trackpoint>
            <Time>2022-07-04T18:34:01.000Z</Time>
            <Position>
              <LatitudeDegrees>44.572104848921298980712890625</LatitudeDegrees>
              <LongitudeDegrees>-1.2211267836391925811767578125</LongitudeDegrees>
            </Position>
            <AltitudeMeters>52.799999237060546875</AltitudeMeters>
            <DistanceMeters>NAN</DistanceMeters>
          </Trackpoint>
          <Trackpoint>
            <Time>2022-07-04T18:34:02.000Z</Time>
            <Position>
              <LatitudeDegrees>44.57209487445652484893798828125</LatitudeDegrees>
              <LongitudeDegrees>-1.22114698402583599090576171875</LongitudeDegrees>
            </Position>
            <AltitudeMeters>53</AltitudeMeters>
            <DistanceMeters>NAN</DistanceMeters>
          </Trackpoint>
          <Trackpoint>
            <Time>2022-07-04T18:34:08.000Z</Time>
            <Position>
              <LatitudeDegrees>44.57205866463482379913330078125</LatitudeDegrees>
              <LongitudeDegrees>-1.221249997615814208984375</LongitudeDegrees>
            </Position>
            <AltitudeMeters>53.40000152587890625</AltitudeMeters>
            <DistanceMeters>NAN</DistanceMeters>
          </Trackpoint>
          <Trackpoint>
            <Time>2022-07-04T18:34:09.000Z</Time>
            <Position>
              <LatitudeDegrees>44.57205648533999919891357421875</LatitudeDegrees>
              <LongitudeDegrees>-1.22127480804920196533203125</LongitudeDegrees>
            </Position>
            <AltitudeMeters>53.40000152587890625</AltitudeMeters>
            <DistanceMeters>NAN</DistanceMeters>
          </Trackpoint>
          <Trackpoint>
            <Time>2022-07-04T18:34:10.000Z</Time>
            <Position>
              <LatitudeDegrees>44.57205824553966522216796875</LatitudeDegrees>
              <LongitudeDegrees>-1.221291236579418182373046875</LongitudeDegrees>
            </Position>
            <AltitudeMeters>53.799999237060546875</AltitudeMeters>
            <DistanceMeters>NAN</DistanceMeters>
          </Trackpoint>
          <Trackpoint>
            <Time>2022-07-04T18:34:11.000Z</Time>
            <Position>
              <LatitudeDegrees>44.57204994745552539825439453125</LatitudeDegrees>
              <LongitudeDegrees>-1.22130431234836578369140625</LongitudeDegrees>
            </Position>
            <AltitudeMeters>54</AltitudeMeters>
            <DistanceMeters>NAN</DistanceMeters>
          </Trackpoint>
          <Trackpoint>
            <Time>2022-07-04T18:34:12.000Z</Time>
            <Position>
              <LatitudeDegrees>44.57204483449459075927734375</LatitudeDegrees>
              <LongitudeDegrees>-1.22132250107824802398681640625</LongitudeDegrees>
            </Position>
            <AltitudeMeters>54</AltitudeMeters>
            <DistanceMeters>NAN</DistanceMeters>
          </Trackpoint>
          <Trackpoint>
            <Time>2022-07-04T18:34:17.000Z</Time>
            <Position>
              <LatitudeDegrees>44.57201826386153697967529296875</LatitudeDegrees>
              <LongitudeDegrees>-1.2214238382875919342041015625</LongitudeDegrees>
            </Position>
            <AltitudeMeters>54.59999847412109375</AltitudeMeters>
            <DistanceMeters>NAN</DistanceMeters>
          </Trackpoint>
          <Trackpoint>
            <Time>2022-07-04T18:34:18.000Z</Time>
            <Position>
              <LatitudeDegrees>44.5720114745199680328369140625</LatitudeDegrees>
              <LongitudeDegrees>-1.2214446254074573516845703125</LongitudeDegrees>
            </Position>
            <AltitudeMeters>54.799999237060546875</AltitudeMeters>
            <DistanceMeters>NAN</DistanceMeters>
          </Trackpoint>
          <Trackpoint>
            <Time>2022-07-04T18:34:21.000Z</Time>
            <Position>
              <LatitudeDegrees>44.57200284115970134735107421875</LatitudeDegrees>
              <LongitudeDegrees>-1.221535988152027130126953125</LongitudeDegrees>
            </Position>
            <AltitudeMeters>55</AltitudeMeters>
            <DistanceMeters>NAN</DistanceMeters>
          </Trackpoint>
          <Trackpoint>
            <Time>2022-07-04T18:34:24.000Z</Time>
            <Position>
              <LatitudeDegrees>44.57200066186487674713134765625</LatitudeDegrees>
              <LongitudeDegrees>-1.22161285020411014556884765625</LongitudeDegrees>
            </Position>
            <AltitudeMeters>55.40000152587890625</AltitudeMeters>
            <DistanceMeters>NAN</DistanceMeters>
          </Trackpoint>
          <Trackpoint>
            <Time>2022-07-04T18:34:26.000Z</Time>
            <Position>
              <LatitudeDegrees>44.57198574207723140716552734375</LatitudeDegrees>
              <LongitudeDegrees>-1.2216545082628726959228515625</LongitudeDegrees>
            </Position>
            <AltitudeMeters>55.799999237060546875</AltitudeMeters>
            <DistanceMeters>NAN</DistanceMeters>
          </Trackpoint>
          <Trackpoint>
            <Time>2022-07-04T18:34:30.000Z</Time>
            <Position>
              <LatitudeDegrees>44.57193846814334392547607421875</LatitudeDegrees>
              <LongitudeDegrees>-1.22174595482647418975830078125</LongitudeDegrees>
            </Position>
            <AltitudeMeters>56.200000762939453125</AltitudeMeters>
            <DistanceMeters>NAN</DistanceMeters>
          </Trackpoint>
          <Trackpoint>
            <Time>2022-07-04T18:34:33.000Z</Time>
            <Position>
              <LatitudeDegrees>44.5719306729733943939208984375</LatitudeDegrees>
              <LongitudeDegrees>-1.2218154408037662506103515625</LongitudeDegrees>
            </Position>
            <AltitudeMeters>56.40000152587890625</AltitudeMeters>
            <DistanceMeters>NAN</DistanceMeters>
          </Trackpoint>
          <Trackpoint>
            <Time>2022-07-04T18:34:37.000Z</Time>
            <Position>
              <LatitudeDegrees>44.57192145287990570068359375</LatitudeDegrees>
              <LongitudeDegrees>-1.22194410301744937896728515625</LongitudeDegrees>
            </Position>
            <AltitudeMeters>56.799999237060546875</AltitudeMeters>
            <DistanceMeters>NAN</DistanceMeters>
          </Trackpoint>
          <Trackpoint>
            <Time>2022-07-04T18:34:42.000Z</Time>
            <Position>
              <LatitudeDegrees>44.57191918976604938507080078125</LatitudeDegrees>
              <LongitudeDegrees>-1.2221123278141021728515625</LongitudeDegrees>
            </Position>
            <AltitudeMeters>57.200000762939453125</AltitudeMeters>
            <DistanceMeters>NAN</DistanceMeters>
          </Trackpoint>
          <Trackpoint>
            <Time>2022-07-04T18:34:44.000Z</Time>
            <Position>
              <LatitudeDegrees>44.57191717810928821563720703125</LatitudeDegrees>
              <LongitudeDegrees>-1.22215230949223041534423828125</LongitudeDegrees>
            </Position>
            <AltitudeMeters>57.200000762939453125</AltitudeMeters>
            <DistanceMeters>NAN</DistanceMeters>
          </Trackpoint>
          <Trackpoint>
            <Time>2022-07-04T18:34:47.000Z</Time>
            <Position>
              <LatitudeDegrees>44.57191701047122478485107421875</LatitudeDegrees>
              <LongitudeDegrees>-1.22224350459873676300048828125</LongitudeDegrees>
            </Position>
            <AltitudeMeters>57.40000152587890625</AltitudeMeters>
            <DistanceMeters>NAN</DistanceMeters>
          </Trackpoint>
          <Trackpoint>
            <Time>2022-07-04T18:34:50.000Z</Time>
            <Position>
              <LatitudeDegrees>44.57189597189426422119140625</LatitudeDegrees>
              <LongitudeDegrees>-1.22231324203312397003173828125</LongitudeDegrees>
            </Position>
            <AltitudeMeters>57.59999847412109375</AltitudeMeters>
            <DistanceMeters>NAN</DistanceMeters>
          </Trackpoint>
          <Trackpoint>
            <Time>2022-07-04T18:34:52.000Z</Time>
            <Position>
              <LatitudeDegrees>44.5718776993453502655029296875</LatitudeDegrees>
              <LongitudeDegrees>-1.22236001305282115936279296875</LongitudeDegrees>
            </Position>
            <AltitudeMeters>57.799999237060546875</AltitudeMeters>
            <DistanceMeters>NAN</DistanceMeters>
          </Trackpoint>
          <Trackpoint>
            <Time>2022-07-04T18:34:54.000Z</Time>
            <Position>
              <LatitudeDegrees>44.5718565769493579864501953125</LatitudeDegrees>
              <LongitudeDegrees>-1.22240602970123291015625</LongitudeDegrees>
            </Position>
            <AltitudeMeters>58</AltitudeMeters>
            <DistanceMeters>NAN</DistanceMeters>
          </Trackpoint>
          <Trackpoint>
            <Time>2022-07-04T18:35:03.000Z</Time>
            <Position>
              <LatitudeDegrees>44.5717982389032840728759765625</LatitudeDegrees>
              <LongitudeDegrees>-1.222635693848133087158203125</LongitudeDegrees>
            </Position>
            <AltitudeMeters>58.59999847412109375</AltitudeMeters>
            <DistanceMeters>NAN</DistanceMeters>
          </Trackpoint>
          <Trackpoint>
            <Time>2022-07-04T18:35:09.000Z</Time>
            <Position>
              <LatitudeDegrees>44.5717466063797473907470703125</LatitudeDegrees>
              <LongitudeDegrees>-1.22275463305413722991943359375</LongitudeDegrees>
            </Position>
            <AltitudeMeters>58.59999847412109375</AltitudeMeters>
            <DistanceMeters>NAN</DistanceMeters>
          </Trackpoint>
          <Trackpoint>
            <Time>2022-07-04T18:35:10.000Z</Time>
            <Position>
              <LatitudeDegrees>44.57173981703817844390869140625</LatitudeDegrees>
              <LongitudeDegrees>-1.2227766774594783782958984375</LongitudeDegrees>
            </Position>
            <AltitudeMeters>58.59999847412109375</AltitudeMeters>
            <DistanceMeters>NAN</DistanceMeters>
          </Trackpoint>
          <Trackpoint>
            <Time>2022-07-04T18:35:13.000Z</Time>
            <Position>
              <LatitudeDegrees>44.57172590307891368865966796875</LatitudeDegrees>
              <LongitudeDegrees>-1.22286695055663585662841796875</LongitudeDegrees>
            </Position>
            <AltitudeMeters>59</AltitudeMeters>
            <DistanceMeters>NAN</DistanceMeters>
          </Trackpoint>
          <Trackpoint>
            <Time>2022-07-04T18:35:15.000Z</Time>
            <Position>
              <LatitudeDegrees>44.5717155933380126953125</LatitudeDegrees>
              <LongitudeDegrees>-1.22293501161038875579833984375</LongitudeDegrees>
            </Position>
            <AltitudeMeters>59</AltitudeMeters>
            <DistanceMeters>NAN</DistanceMeters>
          </Trackpoint>
          <Trackpoint>
            <Time>2022-07-04T18:35:21.000Z</Time>
            <Position>
              <LatitudeDegrees>44.5716512203216552734375</LatitudeDegrees>
              <LongitudeDegrees>-1.22308270074427127838134765625</LongitudeDegrees>
            </Position>
            <AltitudeMeters>59.200000762939453125</AltitudeMeters>
            <DistanceMeters>NAN</DistanceMeters>
          </Trackpoint>
          <Trackpoint>
            <Time>2022-07-04T18:35:27.000Z</Time>
            <Position>
              <LatitudeDegrees>44.57159464247524738311767578125</LatitudeDegrees>
              <LongitudeDegrees>-1.2233087606728076934814453125</LongitudeDegrees>
            </Position>
            <AltitudeMeters>59.40000152587890625</AltitudeMeters>
            <DistanceMeters>NAN</DistanceMeters>
          </Trackpoint>
          <Trackpoint>
            <Time>2022-07-04T18:35:34.000Z</Time>
            <Position>
              <LatitudeDegrees>44.5715399086475372314453125</LatitudeDegrees>
              <LongitudeDegrees>-1.2236038036644458770751953125</LongitudeDegrees>
            </Position>
            <AltitudeMeters>59</AltitudeMeters>
            <DistanceMeters>NAN</DistanceMeters>
          </Trackpoint>
          <Trackpoint>
            <Time>2022-07-04T18:35:41.000Z</Time>
            <Position>
              <LatitudeDegrees>44.57147620618343353271484375</LatitudeDegrees>
              <LongitudeDegrees>-1.22392692603170871734619140625</LongitudeDegrees>
            </Position>
            <AltitudeMeters>58.40000152587890625</AltitudeMeters>
            <DistanceMeters>NAN</DistanceMeters>
          </Trackpoint>
          <Trackpoint>
            <Time>2022-07-04T18:35:42.000Z</Time>
            <Position>
              <LatitudeDegrees>44.5714703388512134552001953125</LatitudeDegrees>
              <LongitudeDegrees>-1.2239870242774486541748046875</LongitudeDegrees>
            </Position>
            <AltitudeMeters>58.40000152587890625</AltitudeMeters>
            <DistanceMeters>NAN</DistanceMeters>
          </Trackpoint>
          <Trackpoint>
            <Time>2022-07-04T18:35:43.000Z</Time>
            <Position>
              <LatitudeDegrees>44.5714515633881092071533203125</LatitudeDegrees>
              <LongitudeDegrees>-1.22404628433287143707275390625</LongitudeDegrees>
            </Position>
            <AltitudeMeters>58.200000762939453125</AltitudeMeters>
            <DistanceMeters>NAN</DistanceMeters>
          </Trackpoint>
          <Trackpoint>
            <Time>2022-07-04T18:35:47.000Z</Time>
            <Position>
              <LatitudeDegrees>44.5713784731924533843994140625</LatitudeDegrees>
              <LongitudeDegrees>-1.224308051168918609619140625</LongitudeDegrees>
            </Position>
            <AltitudeMeters>57.799999237060546875</AltitudeMeters>
            <DistanceMeters>NAN</DistanceMeters>
          </Trackpoint>
          <Trackpoint>
            <Time>2022-07-04T18:35:49.000Z</Time>
            <Position>
              <LatitudeDegrees>44.571353159844875335693359375</LatitudeDegrees>
              <LongitudeDegrees>-1.2244503758847713470458984375</LongitudeDegrees>
            </Position>
            <AltitudeMeters>56.799999237060546875</AltitudeMeters>
            <DistanceMeters>NAN</DistanceMeters>
          </Trackpoint>
          <Trackpoint>
            <Time>2022-07-04T18:35:52.000Z</Time>
            <Position>
              <LatitudeDegrees>44.57130395807325839996337890625</LatitudeDegrees>
              <LongitudeDegrees>-1.2247058562934398651123046875</LongitudeDegrees>
            </Position>
            <AltitudeMeters>55.799999237060546875</AltitudeMeters>
            <DistanceMeters>NAN</DistanceMeters>
          </Trackpoint>
          <Trackpoint>
            <Time>2022-07-04T18:35:57.000Z</Time>
            <Position>
              <LatitudeDegrees>44.57118761725723743438720703125</LatitudeDegrees>
              <LongitudeDegrees>-1.22518479824066162109375</LongitudeDegrees>
            </Position>
            <AltitudeMeters>55.40000152587890625</AltitudeMeters>
            <DistanceMeters>NAN</DistanceMeters>
          </Trackpoint>
          <Trackpoint>
            <Time>2022-07-04T18:35:59.000Z</Time>
            <Position>
              <LatitudeDegrees>44.57112307660281658172607421875</LatitudeDegrees>
              <LongitudeDegrees>-1.22535553760826587677001953125</LongitudeDegrees>
            </Position>
            <AltitudeMeters>54</AltitudeMeters>
            <DistanceMeters>NAN</DistanceMeters>
          </Trackpoint>
          <Trackpoint>
            <Time>2022-07-04T18:36:01.000Z</Time>
            <Position>
              <LatitudeDegrees>44.57104898057878017425537109375</LatitudeDegrees>
              <LongitudeDegrees>-1.22550037689507007598876953125</LongitudeDegrees>
            </Position>
            <AltitudeMeters>52.799999237060546875</AltitudeMeters>
            <DistanceMeters>NAN</DistanceMeters>
          </Trackpoint>
          <Trackpoint>
            <Time>2022-07-04T18:36:03.000Z</Time>
            <Position>
              <LatitudeDegrees>44.57096650265157222747802734375</LatitudeDegrees>
              <LongitudeDegrees>-1.22566650621592998504638671875</LongitudeDegrees>
            </Position>
            <AltitudeMeters>51.40000152587890625</AltitudeMeters>
            <DistanceMeters>NAN</DistanceMeters>
          </Trackpoint>
          <Trackpoint>
            <Time>2022-07-04T18:36:05.000Z</Time>
            <Position>
              <LatitudeDegrees>44.5708732120692729949951171875</LatitudeDegrees>
              <LongitudeDegrees>-1.22581989504396915435791015625</LongitudeDegrees>
            </Position>
            <AltitudeMeters>50.40000152587890625</AltitudeMeters>
            <DistanceMeters>NAN</DistanceMeters>
          </Trackpoint>
          <Trackpoint>
            <Time>2022-07-04T18:36:07.000Z</Time>
            <Position>
              <LatitudeDegrees>44.57077673636376857757568359375</LatitudeDegrees>
              <LongitudeDegrees>-1.2259671650826930999755859375</LongitudeDegrees>
            </Position>
            <AltitudeMeters>49.200000762939453125</AltitudeMeters>
            <DistanceMeters>NAN</DistanceMeters>
          </Trackpoint>
          <Trackpoint>
            <Time>2022-07-04T18:36:08.000Z</Time>
            <Position>
              <LatitudeDegrees>44.57072275690734386444091796875</LatitudeDegrees>
              <LongitudeDegrees>-1.2260395847260951995849609375</LongitudeDegrees>
            </Position>
            <AltitudeMeters>48.799999237060546875</AltitudeMeters>
            <DistanceMeters>NAN</DistanceMeters>
          </Trackpoint>
          <Trackpoint>
            <Time>2022-07-04T18:36:09.000Z</Time>
            <Position>
              <LatitudeDegrees>44.57066425122320652008056640625</LatitudeDegrees>
              <LongitudeDegrees>-1.2261093221604824066162109375</LongitudeDegrees>
            </Position>
            <AltitudeMeters>48</AltitudeMeters>
            <DistanceMeters>NAN</DistanceMeters>
          </Trackpoint>
          <Trackpoint>
            <Time>2022-07-04T18:36:11.000Z</Time>
            <Position>
              <LatitudeDegrees>44.57053516991436481475830078125</LatitudeDegrees>
              <LongitudeDegrees>-1.22623094357550144195556640625</LongitudeDegrees>
            </Position>
            <AltitudeMeters>46.799999237060546875</AltitudeMeters>
            <DistanceMeters>NAN</DistanceMeters>
          </Trackpoint>
          <Trackpoint>
            <Time>2022-07-04T18:36:13.000Z</Time>
            <Position>
              <LatitudeDegrees>44.57037909887731075286865234375</LatitudeDegrees>
              <LongitudeDegrees>-1.2263309396803379058837890625</LongitudeDegrees>
            </Position>
            <AltitudeMeters>45.59999847412109375</AltitudeMeters>
            <DistanceMeters>NAN</DistanceMeters>
          </Trackpoint>
          <Trackpoint>
            <Time>2022-07-04T18:36:16.000Z</Time>
            <Position>
              <LatitudeDegrees>44.570128060877323150634765625</LatitudeDegrees>
              <LongitudeDegrees>-1.2264536507427692413330078125</LongitudeDegrees>
            </Position>
            <AltitudeMeters>44.200000762939453125</AltitudeMeters>
            <DistanceMeters>NAN</DistanceMeters>
          </Trackpoint>
          <Trackpoint>
            <Time>2022-07-04T18:36:18.000Z</Time>
            <Position>
              <LatitudeDegrees>44.56995447166264057159423828125</LatitudeDegrees>
              <LongitudeDegrees>-1.22652347199618816375732421875</LongitudeDegrees>
            </Position>
            <AltitudeMeters>43.200000762939453125</AltitudeMeters>
            <DistanceMeters>NAN</DistanceMeters>
          </Trackpoint>
          <Trackpoint>
            <Time>2022-07-04T18:36:20.000Z</Time>
            <Position>
              <LatitudeDegrees>44.5697738416492938995361328125</LatitudeDegrees>
              <LongitudeDegrees>-1.226587928831577301025390625</LongitudeDegrees>
            </Position>
            <AltitudeMeters>41.59999847412109375</AltitudeMeters>
            <DistanceMeters>NAN</DistanceMeters>
          </Trackpoint>
          <Trackpoint>
            <Time>2022-07-04T18:36:22.000Z</Time>
            <Position>
              <LatitudeDegrees>44.5695944689214229583740234375</LatitudeDegrees>
              <LongitudeDegrees>-1.22665800154209136962890625</LongitudeDegrees>
            </Position>
            <AltitudeMeters>40.40000152587890625</AltitudeMeters>
            <DistanceMeters>NAN</DistanceMeters>
          </Trackpoint>
          <Trackpoint>
            <Time>2022-07-04T18:36:24.000Z</Time>
            <Position>
              <LatitudeDegrees>44.56942440010607242584228515625</LatitudeDegrees>
              <LongitudeDegrees>-1.22672882862389087677001953125</LongitudeDegrees>
            </Position>
            <AltitudeMeters>39.200000762939453125</AltitudeMeters>
            <DistanceMeters>NAN</DistanceMeters>
          </Trackpoint>
          <Trackpoint>
            <Time>2022-07-04T18:36:26.000Z</Time>
            <Position>
              <LatitudeDegrees>44.56925994716584682464599609375</LatitudeDegrees>
              <LongitudeDegrees>-1.22679269872605800628662109375</LongitudeDegrees>
            </Position>
            <AltitudeMeters>38.200000762939453125</AltitudeMeters>
            <DistanceMeters>NAN</DistanceMeters>
          </Trackpoint>
          <Trackpoint>
            <Time>2022-07-04T18:36:28.000Z</Time>
            <Position>
              <LatitudeDegrees>44.5690949074923992156982421875</LatitudeDegrees>
              <LongitudeDegrees>-1.226857490837574005126953125</LongitudeDegrees>
            </Position>
            <AltitudeMeters>36.799999237060546875</AltitudeMeters>
            <DistanceMeters>NAN</DistanceMeters>
          </Trackpoint>
          <Trackpoint>
            <Time>2022-07-04T18:36:29.000Z</Time>
            <Position>
              <LatitudeDegrees>44.56901737488806247711181640625</LatitudeDegrees>
              <LongitudeDegrees>-1.22688774950802326202392578125</LongitudeDegrees>
            </Position>
            <AltitudeMeters>35.799999237060546875</AltitudeMeters>
            <DistanceMeters>NAN</DistanceMeters>
          </Trackpoint>
          <Trackpoint>
            <Time>2022-07-04T18:36:31.000Z</Time>
            <Position>
              <LatitudeDegrees>44.56885728053748607635498046875</LatitudeDegrees>
              <LongitudeDegrees>-1.2269434891641139984130859375</LongitudeDegrees>
            </Position>
            <AltitudeMeters>34.200000762939453125</AltitudeMeters>
            <DistanceMeters>NAN</DistanceMeters>
          </Trackpoint>
          <Trackpoint>
            <Time>2022-07-04T18:36:33.000Z</Time>
            <Position>
              <LatitudeDegrees>44.56870690919458866119384765625</LatitudeDegrees>
              <LongitudeDegrees>-1.22700811363756656646728515625</LongitudeDegrees>
            </Position>
            <AltitudeMeters>33</AltitudeMeters>
            <DistanceMeters>NAN</DistanceMeters>
          </Trackpoint>
          <Trackpoint>
            <Time>2022-07-04T18:36:36.000Z</Time>
            <Position>
              <LatitudeDegrees>44.5684511773288249969482421875</LatitudeDegrees>
              <LongitudeDegrees>-1.227118335664272308349609375</LongitudeDegrees>
            </Position>
            <AltitudeMeters>31.799999237060546875</AltitudeMeters>
            <DistanceMeters>NAN</DistanceMeters>
          </Trackpoint>
          <Trackpoint>
            <Time>2022-07-04T18:36:38.000Z</Time>
            <Position>
              <LatitudeDegrees>44.5682932622730731964111328125</LatitudeDegrees>
              <LongitudeDegrees>-1.227207183837890625</LongitudeDegrees>
            </Position>
            <AltitudeMeters>31</AltitudeMeters>
            <DistanceMeters>NAN</DistanceMeters>
          </Trackpoint>
          <Trackpoint>
            <Time>2022-07-04T18:36:39.000Z</Time>
            <Position>
              <LatitudeDegrees>44.56821941770613193511962890625</LatitudeDegrees>
              <LongitudeDegrees>-1.227265857160091400146484375</LongitudeDegrees>
            </Position>
            <AltitudeMeters>30.3999996185302734375</AltitudeMeters>
            <DistanceMeters>NAN</DistanceMeters>
          </Trackpoint>
          <Trackpoint>
            <Time>2022-07-04T18:36:40.000Z</Time>
            <Position>
              <LatitudeDegrees>44.5681490935385227203369140625</LatitudeDegrees>
              <LongitudeDegrees>-1.2273345887660980224609375</LongitudeDegrees>
            </Position>
            <AltitudeMeters>29.6000003814697265625</AltitudeMeters>
            <DistanceMeters>NAN</DistanceMeters>
          </Trackpoint>
          <Trackpoint>
            <Time>2022-07-04T18:36:41.000Z</Time>
            <Position>
              <LatitudeDegrees>44.568078517913818359375</LatitudeDegrees>
              <LongitudeDegrees>-1.22741044498980045318603515625</LongitudeDegrees>
            </Position>
            <AltitudeMeters>28.799999237060546875</AltitudeMeters>
            <DistanceMeters>NAN</DistanceMeters>
          </Trackpoint>
          <Trackpoint>
            <Time>2022-07-04T18:36:43.000Z</Time>
            <Position>
              <LatitudeDegrees>44.56793962977826595306396484375</LatitudeDegrees>
              <LongitudeDegrees>-1.22757808305323123931884765625</LongitudeDegrees>
            </Position>
            <AltitudeMeters>27.799999237060546875</AltitudeMeters>
            <DistanceMeters>NAN</DistanceMeters>
          </Trackpoint>
          <Trackpoint>
            <Time>2022-07-04T18:36:45.000Z</Time>
            <Position>
              <LatitudeDegrees>44.5678035914897918701171875</LatitudeDegrees>
              <LongitudeDegrees>-1.2277555279433727264404296875</LongitudeDegrees>
            </Position>
            <AltitudeMeters>26.6000003814697265625</AltitudeMeters>
            <DistanceMeters>NAN</DistanceMeters>
          </Trackpoint>
          <Trackpoint>
            <Time>2022-07-04T18:36:46.000Z</Time>
            <Position>
              <LatitudeDegrees>44.56774667836725711822509765625</LatitudeDegrees>
              <LongitudeDegrees>-1.22782987542450428009033203125</LongitudeDegrees>
            </Position>
            <AltitudeMeters>25.799999237060546875</AltitudeMeters>
            <DistanceMeters>NAN</DistanceMeters>
          </Trackpoint>
          <Trackpoint>
            <Time>2022-07-04T18:36:47.000Z</Time>
            <Position>
              <LatitudeDegrees>44.56766084767878055572509765625</LatitudeDegrees>
              <LongitudeDegrees>-1.22793875634670257568359375</LongitudeDegrees>
            </Position>
            <AltitudeMeters>25.3999996185302734375</AltitudeMeters>
            <DistanceMeters>NAN</DistanceMeters>
          </Trackpoint>
          <Trackpoint>
            <Time>2022-07-04T18:36:51.000Z</Time>
            <Position>
              <LatitudeDegrees>44.56740285269916057586669921875</LatitudeDegrees>
              <LongitudeDegrees>-1.228301860392093658447265625</LongitudeDegrees>
            </Position>
            <AltitudeMeters>24.799999237060546875</AltitudeMeters>
            <DistanceMeters>NAN</DistanceMeters>
          </Trackpoint>
          <Trackpoint>
            <Time>2022-07-04T18:36:52.000Z</Time>
            <Position>
              <LatitudeDegrees>44.5673457719385623931884765625</LatitudeDegrees>
              <LongitudeDegrees>-1.22837989591062068939208984375</LongitudeDegrees>
            </Position>
            <AltitudeMeters>24.3999996185302734375</AltitudeMeters>
            <DistanceMeters>NAN</DistanceMeters>
          </Trackpoint>
          <Trackpoint>
            <Time>2022-07-04T18:36:55.000Z</Time>
            <Position>
              <LatitudeDegrees>44.56719364039599895477294921875</LatitudeDegrees>
              <LongitudeDegrees>-1.2285950593650341033935546875</LongitudeDegrees>
            </Position>
            <AltitudeMeters>23.200000762939453125</AltitudeMeters>
            <DistanceMeters>NAN</DistanceMeters>
          </Trackpoint>
          <Trackpoint>
            <Time>2022-07-04T18:36:56.000Z</Time>
            <Position>
              <LatitudeDegrees>44.5671509765088558197021484375</LatitudeDegrees>
              <LongitudeDegrees>-1.2286641262471675872802734375</LongitudeDegrees>
            </Position>
            <AltitudeMeters>23</AltitudeMeters>
            <DistanceMeters>NAN</DistanceMeters>
          </Trackpoint>
          <Trackpoint>
            <Time>2022-07-04T18:37:00.000Z</Time>
            <Position>
              <LatitudeDegrees>44.5669830031692981719970703125</LatitudeDegrees>
              <LongitudeDegrees>-1.22889203019440174102783203125</LongitudeDegrees>
            </Position>
            <AltitudeMeters>22.6000003814697265625</AltitudeMeters>
            <DistanceMeters>NAN</DistanceMeters>
          </Trackpoint>
          <Trackpoint>
            <Time>2022-07-04T18:37:03.000Z</Time>
            <Position>
              <LatitudeDegrees>44.56686272285878658294677734375</LatitudeDegrees>
              <LongitudeDegrees>-1.2290486879646778106689453125</LongitudeDegrees>
            </Position>
            <AltitudeMeters>22</AltitudeMeters>
            <DistanceMeters>NAN</DistanceMeters>
          </Trackpoint>
          <Trackpoint>
            <Time>2022-07-04T18:37:11.000Z</Time>
            <Position>
              <LatitudeDegrees>44.566566087305545806884765625</LatitudeDegrees>
              <LongitudeDegrees>-1.2294241972267627716064453125</LongitudeDegrees>
            </Position>
            <AltitudeMeters>22</AltitudeMeters>
            <DistanceMeters>NAN</DistanceMeters>
          </Trackpoint>
          <Trackpoint>
            <Time>2022-07-04T18:37:19.000Z</Time>
            <Position>
              <LatitudeDegrees>44.56624330021440982818603515625</LatitudeDegrees>
              <LongitudeDegrees>-1.22983231209218502044677734375</LongitudeDegrees>
            </Position>
            <AltitudeMeters>21</AltitudeMeters>
            <DistanceMeters>NAN</DistanceMeters>
          </Trackpoint>
          <Trackpoint>
            <Time>2022-07-04T18:37:21.000Z</Time>
            <Position>
              <LatitudeDegrees>44.5661555416882038116455078125</LatitudeDegrees>
              <LongitudeDegrees>-1.229945719242095947265625</LongitudeDegrees>
            </Position>
            <AltitudeMeters>20</AltitudeMeters>
            <DistanceMeters>NAN</DistanceMeters>
          </Trackpoint>
          <Trackpoint>
            <Time>2022-07-04T18:37:24.000Z</Time>
            <Position>
              <LatitudeDegrees>44.56600315868854522705078125</LatitudeDegrees>
              <LongitudeDegrees>-1.230127774178981781005859375</LongitudeDegrees>
            </Position>
            <AltitudeMeters>19.200000762939453125</AltitudeMeters>
            <DistanceMeters>NAN</DistanceMeters>
          </Trackpoint>
          <Trackpoint>
            <Time>2022-07-04T18:37:28.000Z</Time>
            <Position>
              <LatitudeDegrees>44.56581414677202701568603515625</LatitudeDegrees>
              <LongitudeDegrees>-1.23040328733623027801513671875</LongitudeDegrees>
            </Position>
            <AltitudeMeters>18.799999237060546875</AltitudeMeters>
            <DistanceMeters>NAN</DistanceMeters>
          </Trackpoint>
          <Trackpoint>
            <Time>2022-07-04T18:37:31.000Z</Time>
            <Position>
              <LatitudeDegrees>44.56567299552261829376220703125</LatitudeDegrees>
              <LongitudeDegrees>-1.23060881160199642181396484375</LongitudeDegrees>
            </Position>
            <AltitudeMeters>17.799999237060546875</AltitudeMeters>
            <DistanceMeters>NAN</DistanceMeters>
          </Trackpoint>
          <Trackpoint>
            <Time>2022-07-04T18:37:35.000Z</Time>
            <Position>
              <LatitudeDegrees>44.56547820009291172027587890625</LatitudeDegrees>
              <LongitudeDegrees>-1.23087720014154911041259765625</LongitudeDegrees>
            </Position>
            <AltitudeMeters>16.6000003814697265625</AltitudeMeters>
            <DistanceMeters>NAN</DistanceMeters>
          </Trackpoint>
          <Trackpoint>
            <Time>2022-07-04T18:37:37.000Z</Time>
            <Position>
              <LatitudeDegrees>44.56538784317672252655029296875</LatitudeDegrees>
              <LongitudeDegrees>-1.231022961437702178955078125</LongitudeDegrees>
            </Position>
            <AltitudeMeters>16</AltitudeMeters>
            <DistanceMeters>NAN</DistanceMeters>
          </Trackpoint>
          <Trackpoint>
            <Time>2022-07-04T18:37:43.000Z</Time>
            <Position>
              <LatitudeDegrees>44.56515247933566570281982421875</LatitudeDegrees>
              <LongitudeDegrees>-1.23137458227574825286865234375</LongitudeDegrees>
            </Position>
            <AltitudeMeters>15.80000019073486328125</AltitudeMeters>
            <DistanceMeters>NAN</DistanceMeters>
          </Trackpoint>
          <Trackpoint>
            <Time>2022-07-04T18:37:46.000Z</Time>
            <Position>
              <LatitudeDegrees>44.56506974995136260986328125</LatitudeDegrees>
              <LongitudeDegrees>-1.23152562417089939117431640625</LongitudeDegrees>
            </Position>
            <AltitudeMeters>15.80000019073486328125</AltitudeMeters>
            <DistanceMeters>NAN</DistanceMeters>
          </Trackpoint>
          <Trackpoint>
            <Time>2022-07-04T18:37:49.000Z</Time>
            <Position>
              <LatitudeDegrees>44.56496958620846271514892578125</LatitudeDegrees>
              <LongitudeDegrees>-1.23166677542030811309814453125</LongitudeDegrees>
            </Position>
            <AltitudeMeters>16</AltitudeMeters>
            <DistanceMeters>NAN</DistanceMeters>
          </Trackpoint>
          <Trackpoint>
            <Time>2022-07-04T18:37:53.000Z</Time>
            <Position>
              <LatitudeDegrees>44.56487067975103855133056640625</LatitudeDegrees>
              <LongitudeDegrees>-1.23182921670377254486083984375</LongitudeDegrees>
            </Position>
            <AltitudeMeters>16</AltitudeMeters>
            <DistanceMeters>NAN</DistanceMeters>
          </Trackpoint>
          <Trackpoint>
            <Time>2022-07-04T18:37:55.000Z</Time>
            <Position>
              <LatitudeDegrees>44.56482558511197566986083984375</LatitudeDegrees>
              <LongitudeDegrees>-1.23189660720527172088623046875</LongitudeDegrees>
            </Position>
            <AltitudeMeters>15.80000019073486328125</AltitudeMeters>
            <DistanceMeters>NAN</DistanceMeters>
          </Trackpoint>
          <Trackpoint>
            <Time>2022-07-04T18:37:58.000Z</Time>
            <Position>
              <LatitudeDegrees>44.56474478356540203094482421875</LatitudeDegrees>
              <LongitudeDegrees>-1.23200490139424800872802734375</LongitudeDegrees>
            </Position>
            <AltitudeMeters>15.80000019073486328125</AltitudeMeters>
            <DistanceMeters>NAN</DistanceMeters>
          </Trackpoint>
          <Trackpoint>
            <Time>2022-07-04T18:38:01.000Z</Time>
            <Position>
              <LatitudeDegrees>44.56467336975038051605224609375</LatitudeDegrees>
              <LongitudeDegrees>-1.2320973537862300872802734375</LongitudeDegrees>
            </Position>
            <AltitudeMeters>15.80000019073486328125</AltitudeMeters>
            <DistanceMeters>NAN</DistanceMeters>
          </Trackpoint>
          <Trackpoint>
            <Time>2022-07-04T18:38:03.000Z</Time>
            <Position>
              <LatitudeDegrees>44.56462777219712734222412109375</LatitudeDegrees>
              <LongitudeDegrees>-1.23214622028172016143798828125</LongitudeDegrees>
            </Position>
            <AltitudeMeters>16</AltitudeMeters>
            <DistanceMeters>NAN</DistanceMeters>
          </Trackpoint>
          <Trackpoint>
            <Time>2022-07-04T18:38:09.000Z</Time>
            <Position>
              <LatitudeDegrees>44.56445963121950626373291015625</LatitudeDegrees>
              <LongitudeDegrees>-1.23227882198989391326904296875</LongitudeDegrees>
            </Position>
            <AltitudeMeters>16.200000762939453125</AltitudeMeters>
            <DistanceMeters>NAN</DistanceMeters>
          </Trackpoint>
          <Trackpoint>
            <Time>2022-07-04T18:38:17.000Z</Time>
            <Position>
              <LatitudeDegrees>44.5642209984362125396728515625</LatitudeDegrees>
              <LongitudeDegrees>-1.2324074842035770416259765625</LongitudeDegrees>
            </Position>
            <AltitudeMeters>16.6000003814697265625</AltitudeMeters>
            <DistanceMeters>NAN</DistanceMeters>
          </Trackpoint>
          <Trackpoint>
            <Time>2022-07-04T18:38:18.000Z</Time>
            <Position>
              <LatitudeDegrees>44.5641928352415561676025390625</LatitudeDegrees>
              <LongitudeDegrees>-1.23242131434381008148193359375</LongitudeDegrees>
            </Position>
            <AltitudeMeters>16.6000003814697265625</AltitudeMeters>
            <DistanceMeters>NAN</DistanceMeters>
          </Trackpoint>
          <Trackpoint>
            <Time>2022-07-04T18:38:24.000Z</Time>
            <Position>
              <LatitudeDegrees>44.5640268735587596893310546875</LatitudeDegrees>
              <LongitudeDegrees>-1.2325104139745235443115234375</LongitudeDegrees>
            </Position>
            <AltitudeMeters>16.6000003814697265625</AltitudeMeters>
            <DistanceMeters>NAN</DistanceMeters>
          </Trackpoint>
          <Trackpoint>
            <Time>2022-07-04T18:38:30.000Z</Time>
            <Position>
              <LatitudeDegrees>44.563844986259937286376953125</LatitudeDegrees>
              <LongitudeDegrees>-1.23258945532143115997314453125</LongitudeDegrees>
            </Position>
            <AltitudeMeters>16.799999237060546875</AltitudeMeters>
            <DistanceMeters>NAN</DistanceMeters>
          </Trackpoint>
          <Trackpoint>
            <Time>2022-07-04T18:38:37.000Z</Time>
            <Position>
              <LatitudeDegrees>44.56365999765694141387939453125</LatitudeDegrees>
              <LongitudeDegrees>-1.23267880640923976898193359375</LongitudeDegrees>
            </Position>
            <AltitudeMeters>17</AltitudeMeters>
            <DistanceMeters>NAN</DistanceMeters>
          </Trackpoint>
          <Trackpoint>
            <Time>2022-07-04T18:38:41.000Z</Time>
            <Position>
              <LatitudeDegrees>44.563560672104358673095703125</LatitudeDegrees>
              <LongitudeDegrees>-1.232743598520755767822265625</LongitudeDegrees>
            </Position>
            <AltitudeMeters>17.200000762939453125</AltitudeMeters>
            <DistanceMeters>NAN</DistanceMeters>
          </Trackpoint>
          <Trackpoint>
            <Time>2022-07-04T18:38:46.000Z</Time>
            <Position>
              <LatitudeDegrees>44.56342379562556743621826171875</LatitudeDegrees>
              <LongitudeDegrees>-1.2328145094215869903564453125</LongitudeDegrees>
            </Position>
            <AltitudeMeters>17.3999996185302734375</AltitudeMeters>
            <DistanceMeters>NAN</DistanceMeters>
          </Trackpoint>
          <Trackpoint>
            <Time>2022-07-04T18:38:50.000Z</Time>
            <Position>
              <LatitudeDegrees>44.56330678425729274749755859375</LatitudeDegrees>
              <LongitudeDegrees>-1.2328430078923702239990234375</LongitudeDegrees>
            </Position>
            <AltitudeMeters>17.6000003814697265625</AltitudeMeters>
            <DistanceMeters>NAN</DistanceMeters>
          </Trackpoint>
          <Trackpoint>
            <Time>2022-07-04T18:38:52.000Z</Time>
            <Position>
              <LatitudeDegrees>44.563258923590183258056640625</LatitudeDegrees>
              <LongitudeDegrees>-1.232865639030933380126953125</LongitudeDegrees>
            </Position>
            <AltitudeMeters>17.799999237060546875</AltitudeMeters>
            <DistanceMeters>NAN</DistanceMeters>
          </Trackpoint>
          <Trackpoint>
            <Time>2022-07-04T18:38:55.000Z</Time>
            <Position>
              <LatitudeDegrees>44.5631792955100536346435546875</LatitudeDegrees>
              <LongitudeDegrees>-1.23290109448134899139404296875</LongitudeDegrees>
            </Position>
            <AltitudeMeters>17.799999237060546875</AltitudeMeters>
            <DistanceMeters>NAN</DistanceMeters>
          </Trackpoint>
          <Trackpoint>
            <Time>2022-07-04T18:39:00.000Z</Time>
            <Position>
              <LatitudeDegrees>44.56304728053510189056396484375</LatitudeDegrees>
              <LongitudeDegrees>-1.232955493032932281494140625</LongitudeDegrees>
            </Position>
            <AltitudeMeters>18</AltitudeMeters>
            <DistanceMeters>NAN</DistanceMeters>
          </Trackpoint>
          <Trackpoint>
            <Time>2022-07-04T18:39:07.000Z</Time>
            <Position>
              <LatitudeDegrees>44.5628383196890354156494140625</LatitudeDegrees>
              <LongitudeDegrees>-1.23305398039519786834716796875</LongitudeDegrees>
            </Position>
            <AltitudeMeters>18.200000762939453125</AltitudeMeters>
            <DistanceMeters>NAN</DistanceMeters>
          </Trackpoint>
          <Trackpoint>
            <Time>2022-07-04T18:39:11.000Z</Time>
            <Position>
              <LatitudeDegrees>44.56274318508803844451904296875</LatitudeDegrees>
              <LongitudeDegrees>-1.2331075407564640045166015625</LongitudeDegrees>
            </Position>
            <AltitudeMeters>18.3999996185302734375</AltitudeMeters>
            <DistanceMeters>NAN</DistanceMeters>
          </Trackpoint>
          <Trackpoint>
            <Time>2022-07-04T18:39:13.000Z</Time>
            <Position>
              <LatitudeDegrees>44.5626850984990596771240234375</LatitudeDegrees>
              <LongitudeDegrees>-1.23313821852207183837890625</LongitudeDegrees>
            </Position>
            <AltitudeMeters>18.3999996185302734375</AltitudeMeters>
            <DistanceMeters>NAN</DistanceMeters>
          </Trackpoint>
          <Trackpoint>
            <Time>2022-07-04T18:39:17.000Z</Time>
            <Position>
              <LatitudeDegrees>44.562574960291385650634765625</LatitudeDegrees>
              <LongitudeDegrees>-1.23319052159786224365234375</LongitudeDegrees>
            </Position>
            <AltitudeMeters>18.6000003814697265625</AltitudeMeters>
            <DistanceMeters>NAN</DistanceMeters>
          </Trackpoint>
          <Trackpoint>
            <Time>2022-07-04T18:39:18.000Z</Time>
            <Position>
              <LatitudeDegrees>44.562555849552154541015625</LatitudeDegrees>
              <LongitudeDegrees>-1.23320435173809528350830078125</LongitudeDegrees>
            </Position>
            <AltitudeMeters>18.799999237060546875</AltitudeMeters>
            <DistanceMeters>NAN</DistanceMeters>
          </Trackpoint>
          <Trackpoint>
            <Time>2022-07-04T18:39:21.000Z</Time>
            <Position>
              <LatitudeDegrees>44.56247747875750064849853515625</LatitudeDegrees>
              <LongitudeDegrees>-1.2332569062709808349609375</LongitudeDegrees>
            </Position>
            <AltitudeMeters>19</AltitudeMeters>
            <DistanceMeters>NAN</DistanceMeters>
          </Trackpoint>
          <Trackpoint>
            <Time>2022-07-04T18:39:28.000Z</Time>
            <Position>
              <LatitudeDegrees>44.56228695809841156005859375</LatitudeDegrees>
              <LongitudeDegrees>-1.23336754739284515380859375</LongitudeDegrees>
            </Position>
            <AltitudeMeters>19.6000003814697265625</AltitudeMeters>
            <DistanceMeters>NAN</DistanceMeters>
          </Trackpoint>
          <Trackpoint>
            <Time>2022-07-04T18:39:30.000Z</Time>
            <Position>
              <LatitudeDegrees>44.56223289482295513153076171875</LatitudeDegrees>
              <LongitudeDegrees>-1.23339847661554813385009765625</LongitudeDegrees>
            </Position>
            <AltitudeMeters>19.6000003814697265625</AltitudeMeters>
            <DistanceMeters>NAN</DistanceMeters>
          </Trackpoint>
          <Trackpoint>
            <Time>2022-07-04T18:39:32.000Z</Time>
            <Position>
              <LatitudeDegrees>44.56216701306402683258056640625</LatitudeDegrees>
              <LongitudeDegrees>-1.2334230355918407440185546875</LongitudeDegrees>
            </Position>
            <AltitudeMeters>19.799999237060546875</AltitudeMeters>
            <DistanceMeters>NAN</DistanceMeters>
          </Trackpoint>
          <Trackpoint>
            <Time>2022-07-04T18:39:33.000Z</Time>
            <Position>
              <LatitudeDegrees>44.562136419117450714111328125</LatitudeDegrees>
              <LongitudeDegrees>-1.2334312498569488525390625</LongitudeDegrees>
            </Position>
            <AltitudeMeters>19.799999237060546875</AltitudeMeters>
            <DistanceMeters>NAN</DistanceMeters>
          </Trackpoint>
          <Trackpoint>
            <Time>2022-07-04T18:39:34.000Z</Time>
            <Position>
              <LatitudeDegrees>44.56211261451244354248046875</LatitudeDegrees>
              <LongitudeDegrees>-1.233440972864627838134765625</LongitudeDegrees>
            </Position>
            <AltitudeMeters>19.799999237060546875</AltitudeMeters>
            <DistanceMeters>NAN</DistanceMeters>
          </Trackpoint>
          <Trackpoint>
            <Time>2022-07-04T18:39:36.000Z</Time>
            <Position>
              <LatitudeDegrees>44.56206961534917354583740234375</LatitudeDegrees>
              <LongitudeDegrees>-1.233461759984493255615234375</LongitudeDegrees>
            </Position>
            <AltitudeMeters>20</AltitudeMeters>
            <DistanceMeters>NAN</DistanceMeters>
          </Trackpoint>
          <Trackpoint>
            <Time>2022-07-04T18:39:38.000Z</Time>
            <Position>
              <LatitudeDegrees>44.56203281879425048828125</LatitudeDegrees>
              <LongitudeDegrees>-1.23348464258015155792236328125</LongitudeDegrees>
            </Position>
            <AltitudeMeters>20.200000762939453125</AltitudeMeters>
            <DistanceMeters>NAN</DistanceMeters>
          </Trackpoint>
          <Trackpoint>
            <Time>2022-07-04T18:39:41.000Z</Time>
            <Position>
              <LatitudeDegrees>44.5619759894907474517822265625</LatitudeDegrees>
              <LongitudeDegrees>-1.2335143983364105224609375</LongitudeDegrees>
            </Position>
            <AltitudeMeters>20.6000003814697265625</AltitudeMeters>
            <DistanceMeters>NAN</DistanceMeters>
          </Trackpoint>
          <Trackpoint>
            <Time>2022-07-04T18:39:43.000Z</Time>
            <Position>
              <LatitudeDegrees>44.5619374327361583709716796875</LatitudeDegrees>
              <LongitudeDegrees>-1.2335266359150409698486328125</LongitudeDegrees>
            </Position>
            <AltitudeMeters>20.799999237060546875</AltitudeMeters>
            <DistanceMeters>NAN</DistanceMeters>
          </Trackpoint>
          <Trackpoint>
            <Time>2022-07-04T18:39:44.000Z</Time>
            <Position>
              <LatitudeDegrees>44.56191907636821269989013671875</LatitudeDegrees>
              <LongitudeDegrees>-1.233534850180149078369140625</LongitudeDegrees>
            </Position>
            <AltitudeMeters>20.799999237060546875</AltitudeMeters>
            <DistanceMeters>NAN</DistanceMeters>
          </Trackpoint>
          <Trackpoint>
            <Time>2022-07-04T18:39:45.000Z</Time>
            <Position>
              <LatitudeDegrees>44.5619000494480133056640625</LatitudeDegrees>
              <LongitudeDegrees>-1.233548931777477264404296875</LongitudeDegrees>
            </Position>
            <AltitudeMeters>20.799999237060546875</AltitudeMeters>
            <DistanceMeters>NAN</DistanceMeters>
          </Trackpoint>
          <Trackpoint>
            <Time>2022-07-04T18:39:51.000Z</Time>
            <Position>
              <LatitudeDegrees>44.56175831146538257598876953125</LatitudeDegrees>
              <LongitudeDegrees>-1.2336148135364055633544921875</LongitudeDegrees>
            </Position>
            <AltitudeMeters>21</AltitudeMeters>
            <DistanceMeters>NAN</DistanceMeters>
          </Trackpoint>
          <Trackpoint>
            <Time>2022-07-04T18:39:52.000Z</Time>
            <Position>
              <LatitudeDegrees>44.561740793287754058837890625</LatitudeDegrees>
              <LongitudeDegrees>-1.23363032005727291107177734375</LongitudeDegrees>
            </Position>
            <AltitudeMeters>21.200000762939453125</AltitudeMeters>
            <DistanceMeters>NAN</DistanceMeters>
          </Trackpoint>
          <Trackpoint>
            <Time>2022-07-04T18:39:54.000Z</Time>
            <Position>
              <LatitudeDegrees>44.56169293262064456939697265625</LatitudeDegrees>
              <LongitudeDegrees>-1.23365010134875774383544921875</LongitudeDegrees>
            </Position>
            <AltitudeMeters>21.200000762939453125</AltitudeMeters>
            <DistanceMeters>NAN</DistanceMeters>
          </Trackpoint>
          <Trackpoint>
            <Time>2022-07-04T18:39:56.000Z</Time>
            <Position>
              <LatitudeDegrees>44.56166066229343414306640625</LatitudeDegrees>
              <LongitudeDegrees>-1.2336909212172031402587890625</LongitudeDegrees>
            </Position>
            <AltitudeMeters>21.3999996185302734375</AltitudeMeters>
            <DistanceMeters>NAN</DistanceMeters>
          </Trackpoint>
          <Trackpoint>
            <Time>2022-07-04T18:40:03.000Z</Time>
            <Position>
              <LatitudeDegrees>44.5614559762179851531982421875</LatitudeDegrees>
              <LongitudeDegrees>-1.2337676994502544403076171875</LongitudeDegrees>
            </Position>
            <AltitudeMeters>21.799999237060546875</AltitudeMeters>
            <DistanceMeters>NAN</DistanceMeters>
          </Trackpoint>
          <Trackpoint>
            <Time>2022-07-04T18:40:09.000Z</Time>
            <Position>
              <LatitudeDegrees>44.5613268949091434478759765625</LatitudeDegrees>
              <LongitudeDegrees>-1.23386316932737827301025390625</LongitudeDegrees>
            </Position>
            <AltitudeMeters>21.799999237060546875</AltitudeMeters>
            <DistanceMeters>NAN</DistanceMeters>
          </Trackpoint>
          <Trackpoint>
            <Time>2022-07-04T18:40:12.000Z</Time>
            <Position>
              <LatitudeDegrees>44.56127970479428768157958984375</LatitudeDegrees>
              <LongitudeDegrees>-1.2339249439537525177001953125</LongitudeDegrees>
            </Position>
            <AltitudeMeters>21.799999237060546875</AltitudeMeters>
            <DistanceMeters>NAN</DistanceMeters>
          </Trackpoint>
          <Trackpoint>
            <Time>2022-07-04T18:40:15.000Z</Time>
            <Position>
              <LatitudeDegrees>44.56121616996824741363525390625</LatitudeDegrees>
              <LongitudeDegrees>-1.23400457203388214111328125</LongitudeDegrees>
            </Position>
            <AltitudeMeters>22</AltitudeMeters>
            <DistanceMeters>NAN</DistanceMeters>
          </Trackpoint>
          <Trackpoint>
            <Time>2022-07-04T18:40:20.000Z</Time>
            <Position>
              <LatitudeDegrees>44.5611217059195041656494140625</LatitudeDegrees>
              <LongitudeDegrees>-1.23415879905223846435546875</LongitudeDegrees>
            </Position>
            <AltitudeMeters>22.200000762939453125</AltitudeMeters>
            <DistanceMeters>NAN</DistanceMeters>
          </Trackpoint>
          <Trackpoint>
            <Time>2022-07-04T18:40:23.000Z</Time>
            <Position>
              <LatitudeDegrees>44.5610398985445499420166015625</LatitudeDegrees>
              <LongitudeDegrees>-1.23422694392502307891845703125</LongitudeDegrees>
            </Position>
            <AltitudeMeters>22.200000762939453125</AltitudeMeters>
            <DistanceMeters>NAN</DistanceMeters>
          </Trackpoint>
          <Trackpoint>
            <Time>2022-07-04T18:40:25.000Z</Time>
            <Position>
              <LatitudeDegrees>44.56099815666675567626953125</LatitudeDegrees>
              <LongitudeDegrees>-1.234272457659244537353515625</LongitudeDegrees>
            </Position>
            <AltitudeMeters>22.3999996185302734375</AltitudeMeters>
            <DistanceMeters>NAN</DistanceMeters>
          </Trackpoint>
          <Trackpoint>
            <Time>2022-07-04T18:40:27.000Z</Time>
            <Position>
              <LatitudeDegrees>44.5609594322741031646728515625</LatitudeDegrees>
              <LongitudeDegrees>-1.234324090182781219482421875</LongitudeDegrees>
            </Position>
            <AltitudeMeters>22.3999996185302734375</AltitudeMeters>
            <DistanceMeters>NAN</DistanceMeters>
          </Trackpoint>
          <Trackpoint>
            <Time>2022-07-04T18:40:30.000Z</Time>
            <Position>
              <LatitudeDegrees>44.5609292574226856231689453125</LatitudeDegrees>
              <LongitudeDegrees>-1.2344027124345302581787109375</LongitudeDegrees>
            </Position>
            <AltitudeMeters>22.3999996185302734375</AltitudeMeters>
            <DistanceMeters>NAN</DistanceMeters>
          </Trackpoint>
          <Trackpoint>
            <Time>2022-07-04T18:40:32.000Z</Time>
            <Position>
              <LatitudeDegrees>44.56089363433420658111572265625</LatitudeDegrees>
              <LongitudeDegrees>-1.2344362400472164154052734375</LongitudeDegrees>
            </Position>
            <AltitudeMeters>22.3999996185302734375</AltitudeMeters>
            <DistanceMeters>NAN</DistanceMeters>
          </Trackpoint>
          <Trackpoint>
            <Time>2022-07-04T18:40:33.000Z</Time>
            <Position>
              <LatitudeDegrees>44.560874439775943756103515625</LatitudeDegrees>
              <LongitudeDegrees>-1.234451830387115478515625</LongitudeDegrees>
            </Position>
            <AltitudeMeters>22.6000003814697265625</AltitudeMeters>
            <DistanceMeters>NAN</DistanceMeters>
          </Trackpoint>
          <Trackpoint>
            <Time>2022-07-04T18:40:35.000Z</Time>
            <Position>
              <LatitudeDegrees>44.56083588302135467529296875</LatitudeDegrees>
              <LongitudeDegrees>-1.23448326252400875091552734375</LongitudeDegrees>
            </Position>
            <AltitudeMeters>22.6000003814697265625</AltitudeMeters>
            <DistanceMeters>NAN</DistanceMeters>
          </Trackpoint>
          <Trackpoint>
            <Time>2022-07-04T18:40:38.000Z</Time>
            <Position>
              <LatitudeDegrees>44.560773186385631561279296875</LatitudeDegrees>
              <LongitudeDegrees>-1.234543025493621826171875</LongitudeDegrees>
            </Position>
            <AltitudeMeters>23</AltitudeMeters>
            <DistanceMeters>NAN</DistanceMeters>
          </Trackpoint>
          <Trackpoint>
            <Time>2022-07-04T18:40:42.000Z</Time>
            <Position>
              <LatitudeDegrees>44.5606945641338825225830078125</LatitudeDegrees>
              <LongitudeDegrees>-1.234620474278926849365234375</LongitudeDegrees>
            </Position>
            <AltitudeMeters>23.200000762939453125</AltitudeMeters>
            <DistanceMeters>NAN</DistanceMeters>
          </Trackpoint>
          <Trackpoint>
            <Time>2022-07-04T18:40:44.000Z</Time>
            <Position>
              <LatitudeDegrees>44.56065575592219829559326171875</LatitudeDegrees>
              <LongitudeDegrees>-1.2346545048058032989501953125</LongitudeDegrees>
            </Position>
            <AltitudeMeters>23.200000762939453125</AltitudeMeters>
            <DistanceMeters>NAN</DistanceMeters>
          </Trackpoint>
          <Trackpoint>
            <Time>2022-07-04T18:40:50.000Z</Time>
            <Position>
              <LatitudeDegrees>44.56055383197963237762451171875</LatitudeDegrees>
              <LongitudeDegrees>-1.2347482144832611083984375</LongitudeDegrees>
            </Position>
            <AltitudeMeters>23.6000003814697265625</AltitudeMeters>
            <DistanceMeters>NAN</DistanceMeters>
          </Trackpoint>
          <Trackpoint>
            <Time>2022-07-04T18:40:54.000Z</Time>
            <Position>
              <LatitudeDegrees>44.56048929132521152496337890625</LatitudeDegrees>
              <LongitudeDegrees>-1.2348080612719058990478515625</LongitudeDegrees>
            </Position>
            <AltitudeMeters>24</AltitudeMeters>
            <DistanceMeters>NAN</DistanceMeters>
          </Trackpoint>
          <Trackpoint>
            <Time>2022-07-04T18:40:57.000Z</Time>
            <Position>
              <LatitudeDegrees>44.56046171486377716064453125</LatitudeDegrees>
              <LongitudeDegrees>-1.23485273681581020355224609375</LongitudeDegrees>
            </Position>
            <AltitudeMeters>24.3999996185302734375</AltitudeMeters>
            <DistanceMeters>NAN</DistanceMeters>
          </Trackpoint>
          <Trackpoint>
            <Time>2022-07-04T18:41:00.000Z</Time>
            <Position>
              <LatitudeDegrees>44.56043229438364505767822265625</LatitudeDegrees>
              <LongitudeDegrees>-1.23488810844719409942626953125</LongitudeDegrees>
            </Position>
            <AltitudeMeters>24.6000003814697265625</AltitudeMeters>
            <DistanceMeters>NAN</DistanceMeters>
          </Trackpoint>
          <Trackpoint>
            <Time>2022-07-04T18:41:01.000Z</Time>
            <Position>
              <LatitudeDegrees>44.5604186318814754486083984375</LatitudeDegrees>
              <LongitudeDegrees>-1.23490235768258571624755859375</LongitudeDegrees>
            </Position>
            <AltitudeMeters>24.6000003814697265625</AltitudeMeters>
            <DistanceMeters>NAN</DistanceMeters>
          </Trackpoint>
          <Trackpoint>
            <Time>2022-07-04T18:41:04.000Z</Time>
            <Position>
              <LatitudeDegrees>44.56039507873356342315673828125</LatitudeDegrees>
              <LongitudeDegrees>-1.23495130799710750579833984375</LongitudeDegrees>
            </Position>
            <AltitudeMeters>24.799999237060546875</AltitudeMeters>
            <DistanceMeters>NAN</DistanceMeters>
          </Trackpoint>
          <Trackpoint>
            <Time>2022-07-04T18:41:06.000Z</Time>
            <Position>
              <LatitudeDegrees>44.56035920418798923492431640625</LatitudeDegrees>
              <LongitudeDegrees>-1.23498089611530303955078125</LongitudeDegrees>
            </Position>
            <AltitudeMeters>25.200000762939453125</AltitudeMeters>
            <DistanceMeters>NAN</DistanceMeters>
          </Trackpoint>
          <Trackpoint>
            <Time>2022-07-04T18:41:11.000Z</Time>
            <Position>
              <LatitudeDegrees>44.5602690987288951873779296875</LatitudeDegrees>
              <LongitudeDegrees>-1.2350471131503582000732421875</LongitudeDegrees>
            </Position>
            <AltitudeMeters>25.6000003814697265625</AltitudeMeters>
            <DistanceMeters>NAN</DistanceMeters>
          </Trackpoint>
          <Trackpoint>
            <Time>2022-07-04T18:41:13.000Z</Time>
            <Position>
              <LatitudeDegrees>44.5602335594594478607177734375</LatitudeDegrees>
              <LongitudeDegrees>-1.23507284559309482574462890625</LongitudeDegrees>
            </Position>
            <AltitudeMeters>25.799999237060546875</AltitudeMeters>
            <DistanceMeters>NAN</DistanceMeters>
          </Trackpoint>
          <Trackpoint>
            <Time>2022-07-04T18:41:16.000Z</Time>
            <Position>
              <LatitudeDegrees>44.56018486060202121734619140625</LatitudeDegrees>
              <LongitudeDegrees>-1.23510964214801788330078125</LongitudeDegrees>
            </Position>
            <AltitudeMeters>26.200000762939453125</AltitudeMeters>
            <DistanceMeters>NAN</DistanceMeters>
          </Trackpoint>
          <Trackpoint>
            <Time>2022-07-04T18:41:17.000Z</Time>
            <Position>
              <LatitudeDegrees>44.560161642730236053466796875</LatitudeDegrees>
              <LongitudeDegrees>-1.23511961661279201507568359375</LongitudeDegrees>
            </Position>
            <AltitudeMeters>26.3999996185302734375</AltitudeMeters>
            <DistanceMeters>NAN</DistanceMeters>
          </Trackpoint>
          <Trackpoint>
            <Time>2022-07-04T18:41:18.000Z</Time>
            <Position>
              <LatitudeDegrees>44.5601477287709712982177734375</LatitudeDegrees>
              <LongitudeDegrees>-1.23512967489659786224365234375</LongitudeDegrees>
            </Position>
            <AltitudeMeters>26.6000003814697265625</AltitudeMeters>
            <DistanceMeters>NAN</DistanceMeters>
          </Trackpoint>
          <Trackpoint>
            <Time>2022-07-04T18:41:21.000Z</Time>
            <Position>
              <LatitudeDegrees>44.56012367270886898040771484375</LatitudeDegrees>
              <LongitudeDegrees>-1.2351852469146251678466796875</LongitudeDegrees>
            </Position>
            <AltitudeMeters>27</AltitudeMeters>
            <DistanceMeters>NAN</DistanceMeters>
          </Trackpoint>
          <Trackpoint>
            <Time>2022-07-04T18:41:27.000Z</Time>
            <Position>
              <LatitudeDegrees>44.5600788295269012451171875</LatitudeDegrees>
              <LongitudeDegrees>-1.23530787415802478790283203125</LongitudeDegrees>
            </Position>
            <AltitudeMeters>27.200000762939453125</AltitudeMeters>
            <DistanceMeters>NAN</DistanceMeters>
          </Trackpoint>
          <Trackpoint>
            <Time>2022-07-04T18:41:29.000Z</Time>
            <Position>
              <LatitudeDegrees>44.56007220782339572906494140625</LatitudeDegrees>
              <LongitudeDegrees>-1.2353597581386566162109375</LongitudeDegrees>
            </Position>
            <AltitudeMeters>27.3999996185302734375</AltitudeMeters>
            <DistanceMeters>NAN</DistanceMeters>
          </Trackpoint>
          <Trackpoint>
            <Time>2022-07-04T18:41:32.000Z</Time>
            <Position>
              <LatitudeDegrees>44.56004957668483257293701171875</LatitudeDegrees>
              <LongitudeDegrees>-1.2354484386742115020751953125</LongitudeDegrees>
            </Position>
            <AltitudeMeters>27.6000003814697265625</AltitudeMeters>
            <DistanceMeters>NAN</DistanceMeters>
          </Trackpoint>
          <Trackpoint>
            <Time>2022-07-04T18:41:34.000Z</Time>
            <Position>
              <LatitudeDegrees>44.560044296085834503173828125</LatitudeDegrees>
              <LongitudeDegrees>-1.23551507480442523956298828125</LongitudeDegrees>
            </Position>
            <AltitudeMeters>27.6000003814697265625</AltitudeMeters>
            <DistanceMeters>NAN</DistanceMeters>
          </Trackpoint>
          <Trackpoint>
            <Time>2022-07-04T18:41:35.000Z</Time>
            <Position>
              <LatitudeDegrees>44.5600364170968532562255859375</LatitudeDegrees>
              <LongitudeDegrees>-1.23556419275701045989990234375</LongitudeDegrees>
            </Position>
            <AltitudeMeters>27.3999996185302734375</AltitudeMeters>
            <DistanceMeters>NAN</DistanceMeters>
          </Trackpoint>
          <Trackpoint>
            <Time>2022-07-04T18:41:37.000Z</Time>
            <Position>
              <LatitudeDegrees>44.560043625533580780029296875</LatitudeDegrees>
              <LongitudeDegrees>-1.2356549687683582305908203125</LongitudeDegrees>
            </Position>
            <AltitudeMeters>27.3999996185302734375</AltitudeMeters>
            <DistanceMeters>NAN</DistanceMeters>
          </Trackpoint>
          <Trackpoint>
            <Time>2022-07-04T18:41:39.000Z</Time>
            <Position>
              <LatitudeDegrees>44.56003515981137752532958984375</LatitudeDegrees>
              <LongitudeDegrees>-1.2357471697032451629638671875</LongitudeDegrees>
            </Position>
            <AltitudeMeters>27.3999996185302734375</AltitudeMeters>
            <DistanceMeters>NAN</DistanceMeters>
          </Trackpoint>
          <Trackpoint>
            <Time>2022-07-04T18:41:44.000Z</Time>
            <Position>
              <LatitudeDegrees>44.5600491575896739959716796875</LatitudeDegrees>
              <LongitudeDegrees>-1.235974989831447601318359375</LongitudeDegrees>
            </Position>
            <AltitudeMeters>27.200000762939453125</AltitudeMeters>
            <DistanceMeters>NAN</DistanceMeters>
          </Trackpoint>
          <Trackpoint>
            <Time>2022-07-04T18:41:45.000Z</Time>
            <Position>
              <LatitudeDegrees>44.560034573078155517578125</LatitudeDegrees>
              <LongitudeDegrees>-1.23599485494196414947509765625</LongitudeDegrees>
            </Position>
            <AltitudeMeters>27.200000762939453125</AltitudeMeters>
            <DistanceMeters>NAN</DistanceMeters>
          </Trackpoint>
          <Trackpoint>
            <Time>2022-07-04T18:41:46.000Z</Time>
            <Position>
              <LatitudeDegrees>44.56002761609852313995361328125</LatitudeDegrees>
              <LongitudeDegrees>-1.236016564071178436279296875</LongitudeDegrees>
            </Position>
            <AltitudeMeters>27.200000762939453125</AltitudeMeters>
            <DistanceMeters>NAN</DistanceMeters>
          </Trackpoint>
          <Trackpoint>
            <Time>2022-07-04T18:41:49.000Z</Time>
            <Position>
              <LatitudeDegrees>44.56002585589885711669921875</LatitudeDegrees>
              <LongitudeDegrees>-1.23606811277568340301513671875</LongitudeDegrees>
            </Position>
            <AltitudeMeters>27.200000762939453125</AltitudeMeters>
            <DistanceMeters>NAN</DistanceMeters>
          </Trackpoint>
          <Trackpoint>
            <Time>2022-07-04T18:41:53.000Z</Time>
            <Position>
              <LatitudeDegrees>44.560021497309207916259765625</LatitudeDegrees>
              <LongitudeDegrees>-1.23607716523110866546630859375</LongitudeDegrees>
            </Position>
            <AltitudeMeters>27.200000762939453125</AltitudeMeters>
            <DistanceMeters>NAN</DistanceMeters>
          </Trackpoint>
          <Trackpoint>
            <Time>2022-07-04T18:43:35.000Z</Time>
            <Position>
              <LatitudeDegrees>44.5599965192377567291259765625</LatitudeDegrees>
              <LongitudeDegrees>-1.23617204837501049041748046875</LongitudeDegrees>
            </Position>
            <AltitudeMeters>27.200000762939453125</AltitudeMeters>
            <DistanceMeters>NAN</DistanceMeters>
          </Trackpoint>
          <Trackpoint>
            <Time>2022-07-04T18:43:36.000Z</Time>
            <Position>
              <LatitudeDegrees>44.55998637713491916656494140625</LatitudeDegrees>
              <LongitudeDegrees>-1.236204318702220916748046875</LongitudeDegrees>
            </Position>
            <AltitudeMeters>27.200000762939453125</AltitudeMeters>
            <DistanceMeters>NAN</DistanceMeters>
          </Trackpoint>
          <Trackpoint>
            <Time>2022-07-04T18:43:40.000Z</Time>
            <Position>
              <LatitudeDegrees>44.559932984411716461181640625</LatitudeDegrees>
              <LongitudeDegrees>-1.236300878226757049560546875</LongitudeDegrees>
            </Position>
            <AltitudeMeters>27.6000003814697265625</AltitudeMeters>
            <DistanceMeters>NAN</DistanceMeters>
          </Trackpoint>
          <Trackpoint>
            <Time>2022-07-04T18:43:43.000Z</Time>
            <Position>
              <LatitudeDegrees>44.55989484675228595733642578125</LatitudeDegrees>
              <LongitudeDegrees>-1.23635997064411640167236328125</LongitudeDegrees>
            </Position>
            <AltitudeMeters>27.799999237060546875</AltitudeMeters>
            <DistanceMeters>NAN</DistanceMeters>
          </Trackpoint>
          <Trackpoint>
            <Time>2022-07-04T18:43:48.000Z</Time>
            <Position>
              <LatitudeDegrees>44.5598481595516204833984375</LatitudeDegrees>
              <LongitudeDegrees>-1.2365211546421051025390625</LongitudeDegrees>
            </Position>
            <AltitudeMeters>27.6000003814697265625</AltitudeMeters>
            <DistanceMeters>NAN</DistanceMeters>
          </Trackpoint>
          <Trackpoint>
            <Time>2022-07-04T18:43:50.000Z</Time>
            <Position>
              <LatitudeDegrees>44.5598213374614715576171875</LatitudeDegrees>
              <LongitudeDegrees>-1.236587874591350555419921875</LongitudeDegrees>
            </Position>
            <AltitudeMeters>27.6000003814697265625</AltitudeMeters>
            <DistanceMeters>NAN</DistanceMeters>
          </Trackpoint>
          <Trackpoint>
            <Time>2022-07-04T18:43:56.000Z</Time>
            <Position>
              <LatitudeDegrees>44.55971647985279560089111328125</LatitudeDegrees>
              <LongitudeDegrees>-1.236848048865795135498046875</LongitudeDegrees>
            </Position>
            <AltitudeMeters>26.6000003814697265625</AltitudeMeters>
            <DistanceMeters>NAN</DistanceMeters>
          </Trackpoint>
          <Trackpoint>
            <Time>2022-07-04T18:43:57.000Z</Time>
            <Position>
              <LatitudeDegrees>44.55969971604645252227783203125</LatitudeDegrees>
              <LongitudeDegrees>-1.23690244741737842559814453125</LongitudeDegrees>
            </Position>
            <AltitudeMeters>26.200000762939453125</AltitudeMeters>
            <DistanceMeters>NAN</DistanceMeters>
          </Trackpoint>
          <Trackpoint>
            <Time>2022-07-04T18:44:02.000Z</Time>
            <Position>
              <LatitudeDegrees>44.55961422063410282135009765625</LatitudeDegrees>
              <LongitudeDegrees>-1.23719229362905025482177734375</LongitudeDegrees>
            </Position>
            <AltitudeMeters>25.200000762939453125</AltitudeMeters>
            <DistanceMeters>NAN</DistanceMeters>
          </Trackpoint>
          <Trackpoint>
            <Time>2022-07-04T18:44:06.000Z</Time>
            <Position>
              <LatitudeDegrees>44.55951045267283916473388671875</LatitudeDegrees>
              <LongitudeDegrees>-1.2374205328524112701416015625</LongitudeDegrees>
            </Position>
            <AltitudeMeters>23.6000003814697265625</AltitudeMeters>
            <DistanceMeters>NAN</DistanceMeters>
          </Trackpoint>
          <Trackpoint>
            <Time>2022-07-04T18:44:07.000Z</Time>
            <Position>
              <LatitudeDegrees>44.559482038021087646484375</LatitudeDegrees>
              <LongitudeDegrees>-1.23748448677361011505126953125</LongitudeDegrees>
            </Position>
            <AltitudeMeters>23.3999996185302734375</AltitudeMeters>
            <DistanceMeters>NAN</DistanceMeters>
          </Trackpoint>
          <Trackpoint>
            <Time>2022-07-04T18:44:09.000Z</Time>
            <Position>
              <LatitudeDegrees>44.559436775743961334228515625</LatitudeDegrees>
              <LongitudeDegrees>-1.23761272989213466644287109375</LongitudeDegrees>
            </Position>
            <AltitudeMeters>22.3999996185302734375</AltitudeMeters>
            <DistanceMeters>NAN</DistanceMeters>
          </Trackpoint>
          <Trackpoint>
            <Time>2022-07-04T18:44:12.000Z</Time>
            <Position>
              <LatitudeDegrees>44.55937567166984081268310546875</LatitudeDegrees>
              <LongitudeDegrees>-1.2377665378153324127197265625</LongitudeDegrees>
            </Position>
            <AltitudeMeters>21.200000762939453125</AltitudeMeters>
            <DistanceMeters>NAN</DistanceMeters>
          </Trackpoint>
          <Trackpoint>
            <Time>2022-07-04T18:44:15.000Z</Time>
            <Position>
              <LatitudeDegrees>44.559346251189708709716796875</LatitudeDegrees>
              <LongitudeDegrees>-1.23789913952350616455078125</LongitudeDegrees>
            </Position>
            <AltitudeMeters>19.799999237060546875</AltitudeMeters>
            <DistanceMeters>NAN</DistanceMeters>
          </Trackpoint>
          <Trackpoint>
            <Time>2022-07-04T18:44:17.000Z</Time>
            <Position>
              <LatitudeDegrees>44.55934398807585239410400390625</LatitudeDegrees>
              <LongitudeDegrees>-1.2379445694386959075927734375</LongitudeDegrees>
            </Position>
            <AltitudeMeters>19</AltitudeMeters>
            <DistanceMeters>NAN</DistanceMeters>
          </Trackpoint>
          <Trackpoint>
            <Time>2022-07-04T18:44:18.000Z</Time>
            <Position>
              <LatitudeDegrees>44.55933443270623683929443359375</LatitudeDegrees>
              <LongitudeDegrees>-1.237965859472751617431640625</LongitudeDegrees>
            </Position>
            <AltitudeMeters>18.6000003814697265625</AltitudeMeters>
            <DistanceMeters>NAN</DistanceMeters>
          </Trackpoint>
          <Trackpoint>
            <Time>2022-07-04T18:44:23.000Z</Time>
            <Position>
              <LatitudeDegrees>44.55931532196700572967529296875</LatitudeDegrees>
              <LongitudeDegrees>-1.238126456737518310546875</LongitudeDegrees>
            </Position>
            <AltitudeMeters>17.6000003814697265625</AltitudeMeters>
            <DistanceMeters>NAN</DistanceMeters>
          </Trackpoint>
          <Trackpoint>
            <Time>2022-07-04T18:44:24.000Z</Time>
            <Position>
              <LatitudeDegrees>44.55931372940540313720703125</LatitudeDegrees>
              <LongitudeDegrees>-1.2381628341972827911376953125</LongitudeDegrees>
            </Position>
            <AltitudeMeters>17.3999996185302734375</AltitudeMeters>
            <DistanceMeters>NAN</DistanceMeters>
          </Trackpoint>
          <Trackpoint>
            <Time>2022-07-04T18:44:29.000Z</Time>
            <Position>
              <LatitudeDegrees>44.5593286491930484771728515625</LatitudeDegrees>
              <LongitudeDegrees>-1.23838973231613636016845703125</LongitudeDegrees>
            </Position>
            <AltitudeMeters>16.3999996185302734375</AltitudeMeters>
            <DistanceMeters>NAN</DistanceMeters>
          </Trackpoint>
          <Trackpoint>
            <Time>2022-07-04T18:44:30.000Z</Time>
            <Position>
              <LatitudeDegrees>44.55933711491525173187255859375</LatitudeDegrees>
              <LongitudeDegrees>-1.23844119720160961151123046875</LongitudeDegrees>
            </Position>
            <AltitudeMeters>16.200000762939453125</AltitudeMeters>
            <DistanceMeters>NAN</DistanceMeters>
          </Trackpoint>
          <Trackpoint>
            <Time>2022-07-04T18:44:34.000Z</Time>
            <Position>
              <LatitudeDegrees>44.55937567166984081268310546875</LatitudeDegrees>
              <LongitudeDegrees>-1.238629706203937530517578125</LongitudeDegrees>
            </Position>
            <AltitudeMeters>15.19999980926513671875</AltitudeMeters>
            <DistanceMeters>NAN</DistanceMeters>
          </Trackpoint>
          <Trackpoint>
            <Time>2022-07-04T18:44:35.000Z</Time>
            <Position>
              <LatitudeDegrees>44.55939210020005702972412109375</LatitudeDegrees>
              <LongitudeDegrees>-1.23867521993815898895263671875</LongitudeDegrees>
            </Position>
            <AltitudeMeters>15.19999980926513671875</AltitudeMeters>
            <DistanceMeters>NAN</DistanceMeters>
          </Trackpoint>
          <Trackpoint>
            <Time>2022-07-04T18:44:39.000Z</Time>
            <Position>
              <LatitudeDegrees>44.559472315013408660888671875</LatitudeDegrees>
              <LongitudeDegrees>-1.23889029957354068756103515625</LongitudeDegrees>
            </Position>
            <AltitudeMeters>14.19999980926513671875</AltitudeMeters>
            <DistanceMeters>NAN</DistanceMeters>
          </Trackpoint>
          <Trackpoint>
            <Time>2022-07-04T18:44:42.000Z</Time>
            <Position>
              <LatitudeDegrees>44.559551440179347991943359375</LatitudeDegrees>
              <LongitudeDegrees>-1.23903614468872547149658203125</LongitudeDegrees>
            </Position>
            <AltitudeMeters>13.3999996185302734375</AltitudeMeters>
            <DistanceMeters>NAN</DistanceMeters>
          </Trackpoint>
          <Trackpoint>
            <Time>2022-07-04T18:44:44.000Z</Time>
            <Position>
              <LatitudeDegrees>44.55959628336131572723388671875</LatitudeDegrees>
              <LongitudeDegrees>-1.2391391582787036895751953125</LongitudeDegrees>
            </Position>
            <AltitudeMeters>13.19999980926513671875</AltitudeMeters>
            <DistanceMeters>NAN</DistanceMeters>
          </Trackpoint>
          <Trackpoint>
            <Time>2022-07-04T18:44:46.000Z</Time>
            <Position>
              <LatitudeDegrees>44.55962930805981159210205078125</LatitudeDegrees>
              <LongitudeDegrees>-1.23923747800290584564208984375</LongitudeDegrees>
            </Position>
            <AltitudeMeters>13</AltitudeMeters>
            <DistanceMeters>NAN</DistanceMeters>
          </Trackpoint>
          <Trackpoint>
            <Time>2022-07-04T18:44:48.000Z</Time>
            <Position>
              <LatitudeDegrees>44.5596438087522983551025390625</LatitudeDegrees>
              <LongitudeDegrees>-1.2393423356115818023681640625</LongitudeDegrees>
            </Position>
            <AltitudeMeters>13</AltitudeMeters>
            <DistanceMeters>NAN</DistanceMeters>
          </Trackpoint>
          <Trackpoint>
            <Time>2022-07-04T18:44:55.000Z</Time>
            <Position>
              <LatitudeDegrees>44.55969552509486675262451171875</LatitudeDegrees>
              <LongitudeDegrees>-1.23962639831006526947021484375</LongitudeDegrees>
            </Position>
            <AltitudeMeters>12.80000019073486328125</AltitudeMeters>
            <DistanceMeters>NAN</DistanceMeters>
          </Trackpoint>
          <Trackpoint>
            <Time>2022-07-04T18:44:59.000Z</Time>
            <Position>
              <LatitudeDegrees>44.5597051642835140228271484375</LatitudeDegrees>
              <LongitudeDegrees>-1.239734776318073272705078125</LongitudeDegrees>
            </Position>
            <AltitudeMeters>12.6000003814697265625</AltitudeMeters>
            <DistanceMeters>NAN</DistanceMeters>
          </Trackpoint>
          <Trackpoint>
            <Time>2022-07-04T18:45:00.000Z</Time>
            <Position>
              <LatitudeDegrees>44.55970541574060916900634765625</LatitudeDegrees>
              <LongitudeDegrees>-1.239758916199207305908203125</LongitudeDegrees>
            </Position>
            <AltitudeMeters>12.6000003814697265625</AltitudeMeters>
            <DistanceMeters>NAN</DistanceMeters>
          </Trackpoint>
          <Trackpoint>
            <Time>2022-07-04T18:45:05.000Z</Time>
            <Position>
              <LatitudeDegrees>44.55971228890120983123779296875</LatitudeDegrees>
              <LongitudeDegrees>-1.2398942001163959503173828125</LongitudeDegrees>
            </Position>
            <AltitudeMeters>12.80000019073486328125</AltitudeMeters>
            <DistanceMeters>NAN</DistanceMeters>
          </Trackpoint>
          <Trackpoint>
            <Time>2022-07-04T18:45:08.000Z</Time>
            <Position>
              <LatitudeDegrees>44.5597155578434467315673828125</LatitudeDegrees>
              <LongitudeDegrees>-1.23991607688367366790771484375</LongitudeDegrees>
            </Position>
            <AltitudeMeters>12.6000003814697265625</AltitudeMeters>
            <DistanceMeters>NAN</DistanceMeters>
          </Trackpoint>
          <Trackpoint>
            <Time>2022-07-04T18:45:09.000Z</Time>
            <Position>
              <LatitudeDegrees>44.5597155578434467315673828125</LatitudeDegrees>
              <LongitudeDegrees>-1.23991607688367366790771484375</LongitudeDegrees>
            </Position>
            <AltitudeMeters>12.3999996185302734375</AltitudeMeters>
            <DistanceMeters>NAN</DistanceMeters>
          </Trackpoint>
          <Trackpoint>
            <Time>2022-07-04T18:45:19.000Z</Time>
            <Position>
              <LatitudeDegrees>44.55968479625880718231201171875</LatitudeDegrees>
              <LongitudeDegrees>-1.239994280040264129638671875</LongitudeDegrees>
            </Position>
            <AltitudeMeters>12.3999996185302734375</AltitudeMeters>
            <DistanceMeters>NAN</DistanceMeters>
          </Trackpoint>
          <Trackpoint>
            <Time>2022-07-04T18:45:22.000Z</Time>
            <Position>
              <LatitudeDegrees>44.559636600315570831298828125</LatitudeDegrees>
              <LongitudeDegrees>-1.2400299869477748870849609375</LongitudeDegrees>
            </Position>
            <AltitudeMeters>12.19999980926513671875</AltitudeMeters>
            <DistanceMeters>NAN</DistanceMeters>
          </Trackpoint>
          <Trackpoint>
            <Time>2022-07-04T18:45:29.000Z</Time>
            <Position>
              <LatitudeDegrees>44.5595123805105686187744140625</LatitudeDegrees>
              <LongitudeDegrees>-1.24007583595812320709228515625</LongitudeDegrees>
            </Position>
            <AltitudeMeters>12.19999980926513671875</AltitudeMeters>
            <DistanceMeters>NAN</DistanceMeters>
          </Trackpoint>
          <Trackpoint>
            <Time>2022-07-04T18:45:38.000Z</Time>
            <Position>
              <LatitudeDegrees>44.5593541301786899566650390625</LatitudeDegrees>
              <LongitudeDegrees>-1.24004733748733997344970703125</LongitudeDegrees>
            </Position>
            <AltitudeMeters>12.3999996185302734375</AltitudeMeters>
            <DistanceMeters>NAN</DistanceMeters>
          </Trackpoint>
          <Trackpoint>
            <Time>2022-07-04T18:45:45.000Z</Time>
            <Position>
              <LatitudeDegrees>44.5592180080711841583251953125</LatitudeDegrees>
              <LongitudeDegrees>-1.24008891172707080841064453125</LongitudeDegrees>
            </Position>
            <AltitudeMeters>12.19999980926513671875</AltitudeMeters>
            <DistanceMeters>NAN</DistanceMeters>
          </Trackpoint>
          <Trackpoint>
            <Time>2022-07-04T18:45:47.000Z</Time>
            <Position>
              <LatitudeDegrees>44.55916981212794780731201171875</LatitudeDegrees>
              <LongitudeDegrees>-1.2400970421731472015380859375</LongitudeDegrees>
            </Position>
            <AltitudeMeters>12</AltitudeMeters>
            <DistanceMeters>NAN</DistanceMeters>
          </Trackpoint>
          <Trackpoint>
            <Time>2022-07-04T18:45:52.000Z</Time>
            <Position>
              <LatitudeDegrees>44.55905347131192684173583984375</LatitudeDegrees>
              <LongitudeDegrees>-1.2401446513831615447998046875</LongitudeDegrees>
            </Position>
            <AltitudeMeters>12</AltitudeMeters>
            <DistanceMeters>NAN</DistanceMeters>
          </Trackpoint>
          <Trackpoint>
            <Time>2022-07-04T18:45:59.000Z</Time>
            <Position>
              <LatitudeDegrees>44.558931179344654083251953125</LatitudeDegrees>
              <LongitudeDegrees>-1.24021849595010280609130859375</LongitudeDegrees>
            </Position>
            <AltitudeMeters>12</AltitudeMeters>
            <DistanceMeters>NAN</DistanceMeters>
          </Trackpoint>
          <Trackpoint>
            <Time>2022-07-04T18:46:05.000Z</Time>
            <Position>
              <LatitudeDegrees>44.55883839167654514312744140625</LatitudeDegrees>
              <LongitudeDegrees>-1.240237019956111907958984375</LongitudeDegrees>
            </Position>
            <AltitudeMeters>12</AltitudeMeters>
            <DistanceMeters>NAN</DistanceMeters>
          </Trackpoint>
          <Trackpoint>
            <Time>2022-07-04T18:46:11.000Z</Time>
            <Position>
              <LatitudeDegrees>44.558778963983058929443359375</LatitudeDegrees>
              <LongitudeDegrees>-1.240111291408538818359375</LongitudeDegrees>
            </Position>
            <AltitudeMeters>11.80000019073486328125</AltitudeMeters>
            <DistanceMeters>NAN</DistanceMeters>
          </Trackpoint>
          <Trackpoint>
            <Time>2022-07-04T18:46:17.000Z</Time>
            <Position>
              <LatitudeDegrees>44.558740742504596710205078125</LatitudeDegrees>
              <LongitudeDegrees>-1.239906437695026397705078125</LongitudeDegrees>
            </Position>
            <AltitudeMeters>12</AltitudeMeters>
            <DistanceMeters>NAN</DistanceMeters>
          </Trackpoint>
          <Trackpoint>
            <Time>2022-07-04T18:46:19.000Z</Time>
            <Position>
              <LatitudeDegrees>44.5587164349853992462158203125</LatitudeDegrees>
              <LongitudeDegrees>-1.239854134619235992431640625</LongitudeDegrees>
            </Position>
            <AltitudeMeters>12.19999980926513671875</AltitudeMeters>
            <DistanceMeters>NAN</DistanceMeters>
          </Trackpoint>
          <Trackpoint>
            <Time>2022-07-04T18:46:24.000Z</Time>
            <Position>
              <LatitudeDegrees>44.558687768876552581787109375</LatitudeDegrees>
              <LongitudeDegrees>-1.23980007134377956390380859375</LongitudeDegrees>
            </Position>
            <AltitudeMeters>12.3999996185302734375</AltitudeMeters>
            <DistanceMeters>NAN</DistanceMeters>
          </Trackpoint>
          <Trackpoint>
            <Time>2022-07-04T18:47:13.000Z</Time>
            <Position>
              <LatitudeDegrees>44.55861710943281650543212890625</LatitudeDegrees>
              <LongitudeDegrees>-1.2398187629878520965576171875</LongitudeDegrees>
            </Position>
            <AltitudeMeters>12.3999996185302734375</AltitudeMeters>
            <DistanceMeters>NAN</DistanceMeters>
          </Trackpoint>
          <Trackpoint>
            <Time>2022-07-04T18:47:14.000Z</Time>
            <Position>
              <LatitudeDegrees>44.5585940591990947723388671875</LatitudeDegrees>
              <LongitudeDegrees>-1.23982957564294338226318359375</LongitudeDegrees>
            </Position>
            <AltitudeMeters>12.3999996185302734375</AltitudeMeters>
            <DistanceMeters>NAN</DistanceMeters>
          </Trackpoint>
          <Trackpoint>
            <Time>2022-07-04T18:47:15.000Z</Time>
            <Position>
              <LatitudeDegrees>44.55857000313699245452880859375</LatitudeDegrees>
              <LongitudeDegrees>-1.2398425675928592681884765625</LongitudeDegrees>
            </Position>
            <AltitudeMeters>12.3999996185302734375</AltitudeMeters>
            <DistanceMeters>NAN</DistanceMeters>
          </Trackpoint>
          <Trackpoint>
            <Time>2022-07-04T18:47:23.000Z</Time>
            <Position>
              <LatitudeDegrees>44.55838576890528202056884765625</LatitudeDegrees>
              <LongitudeDegrees>-1.23990476131439208984375</LongitudeDegrees>
            </Position>
            <AltitudeMeters>12.19999980926513671875</AltitudeMeters>
            <DistanceMeters>NAN</DistanceMeters>
          </Trackpoint>
          <Trackpoint>
            <Time>2022-07-04T18:47:28.000Z</Time>
            <Position>
              <LatitudeDegrees>44.5583335496485233306884765625</LatitudeDegrees>
              <LongitudeDegrees>-1.2398754246532917022705078125</LongitudeDegrees>
            </Position>
            <AltitudeMeters>12.19999980926513671875</AltitudeMeters>
            <DistanceMeters>NAN</DistanceMeters>
          </Trackpoint>
          <Trackpoint>
            <Time>2022-07-04T18:48:14.000Z</Time>
            <Position>
              <LatitudeDegrees>44.55833413638174533843994140625</LatitudeDegrees>
              <LongitudeDegrees>-1.23991213738918304443359375</LongitudeDegrees>
            </Position>
            <AltitudeMeters>12.3999996185302734375</AltitudeMeters>
            <DistanceMeters>NAN</DistanceMeters>
          </Trackpoint>
          <Trackpoint>
            <Time>2022-07-04T18:48:16.000Z</Time>
            <Position>
              <LatitudeDegrees>44.55831754021346569061279296875</LatitudeDegrees>
              <LongitudeDegrees>-1.239971481263637542724609375</LongitudeDegrees>
            </Position>
            <AltitudeMeters>12.3999996185302734375</AltitudeMeters>
            <DistanceMeters>NAN</DistanceMeters>
          </Trackpoint>
          <Trackpoint>
            <Time>2022-07-04T18:48:20.000Z</Time>
            <Position>
              <LatitudeDegrees>44.55823807977139949798583984375</LatitudeDegrees>
              <LongitudeDegrees>-1.240110956132411956787109375</LongitudeDegrees>
            </Position>
            <AltitudeMeters>12</AltitudeMeters>
            <DistanceMeters>NAN</DistanceMeters>
          </Trackpoint>
          <Trackpoint>
            <Time>2022-07-04T18:48:25.000Z</Time>
            <Position>
              <LatitudeDegrees>44.558098353445529937744140625</LatitudeDegrees>
              <LongitudeDegrees>-1.2402542866766452789306640625</LongitudeDegrees>
            </Position>
            <AltitudeMeters>12</AltitudeMeters>
            <DistanceMeters>NAN</DistanceMeters>
          </Trackpoint>
          <Trackpoint>
            <Time>2022-07-04T18:48:26.000Z</Time>
            <Position>
              <LatitudeDegrees>44.5580683462321758270263671875</LatitudeDegrees>
              <LongitudeDegrees>-1.24028856866061687469482421875</LongitudeDegrees>
            </Position>
            <AltitudeMeters>12.19999980926513671875</AltitudeMeters>
            <DistanceMeters>NAN</DistanceMeters>
          </Trackpoint>
          <Trackpoint>
            <Time>2022-07-04T18:48:34.000Z</Time>
            <Position>
              <LatitudeDegrees>44.55784815363585948944091796875</LatitudeDegrees>
              <LongitudeDegrees>-1.24051622115075588226318359375</LongitudeDegrees>
            </Position>
            <AltitudeMeters>12</AltitudeMeters>
            <DistanceMeters>NAN</DistanceMeters>
          </Trackpoint>
          <Trackpoint>
            <Time>2022-07-04T18:48:41.000Z</Time>
            <Position>
              <LatitudeDegrees>44.55765922553837299346923828125</LatitudeDegrees>
              <LongitudeDegrees>-1.24062032438814640045166015625</LongitudeDegrees>
            </Position>
            <AltitudeMeters>11.80000019073486328125</AltitudeMeters>
            <DistanceMeters>NAN</DistanceMeters>
          </Trackpoint>
          <Trackpoint>
            <Time>2022-07-04T18:48:50.000Z</Time>
            <Position>
              <LatitudeDegrees>44.55740592442452907562255859375</LatitudeDegrees>
              <LongitudeDegrees>-1.2407139502465724945068359375</LongitudeDegrees>
            </Position>
            <AltitudeMeters>12.19999980926513671875</AltitudeMeters>
            <DistanceMeters>NAN</DistanceMeters>
          </Trackpoint>
          <Trackpoint>
            <Time>2022-07-04T18:48:56.000Z</Time>
            <Position>
              <LatitudeDegrees>44.55724499188363552093505859375</LatitudeDegrees>
              <LongitudeDegrees>-1.24084630049765110015869140625</LongitudeDegrees>
            </Position>
            <AltitudeMeters>12.19999980926513671875</AltitudeMeters>
            <DistanceMeters>NAN</DistanceMeters>
          </Trackpoint>
          <Trackpoint>
            <Time>2022-07-04T18:49:01.000Z</Time>
            <Position>
              <LatitudeDegrees>44.55714440904557704925537109375</LatitudeDegrees>
              <LongitudeDegrees>-1.24100270681083202362060546875</LongitudeDegrees>
            </Position>
            <AltitudeMeters>12.19999980926513671875</AltitudeMeters>
            <DistanceMeters>NAN</DistanceMeters>
          </Trackpoint>
          <Trackpoint>
            <Time>2022-07-04T18:49:11.000Z</Time>
            <Position>
              <LatitudeDegrees>44.556937627494335174560546875</LatitudeDegrees>
              <LongitudeDegrees>-1.24129758216440677642822265625</LongitudeDegrees>
            </Position>
            <AltitudeMeters>12.3999996185302734375</AltitudeMeters>
            <DistanceMeters>NAN</DistanceMeters>
          </Trackpoint>
          <Trackpoint>
            <Time>2022-07-04T18:49:16.000Z</Time>
            <Position>
              <LatitudeDegrees>44.5568288303911685943603515625</LatitudeDegrees>
              <LongitudeDegrees>-1.241430602967739105224609375</LongitudeDegrees>
            </Position>
            <AltitudeMeters>12.19999980926513671875</AltitudeMeters>
            <DistanceMeters>NAN</DistanceMeters>
          </Trackpoint>
          <Trackpoint>
            <Time>2022-07-04T18:49:19.000Z</Time>
            <Position>
              <LatitudeDegrees>44.55679119564592838287353515625</LatitudeDegrees>
              <LongitudeDegrees>-1.24149841256439685821533203125</LongitudeDegrees>
            </Position>
            <AltitudeMeters>12</AltitudeMeters>
            <DistanceMeters>NAN</DistanceMeters>
          </Trackpoint>
          <Trackpoint>
            <Time>2022-07-04T18:49:24.000Z</Time>
            <Position>
              <LatitudeDegrees>44.55676454119384288787841796875</LatitudeDegrees>
              <LongitudeDegrees>-1.2415226362645626068115234375</LongitudeDegrees>
            </Position>
            <AltitudeMeters>11.3999996185302734375</AltitudeMeters>
            <DistanceMeters>NAN</DistanceMeters>
          </Trackpoint>
          <Trackpoint>
            <Time>2022-07-04T18:50:29.000Z</Time>
            <Position>
              <LatitudeDegrees>44.5567342825233936309814453125</LatitudeDegrees>
              <LongitudeDegrees>-1.24148768372833728790283203125</LongitudeDegrees>
            </Position>
            <AltitudeMeters>11.6000003814697265625</AltitudeMeters>
            <DistanceMeters>NAN</DistanceMeters>
          </Trackpoint>
          <Trackpoint>
            <Time>2022-07-04T18:50:31.000Z</Time>
            <Position>
              <LatitudeDegrees>44.5566911995410919189453125</LatitudeDegrees>
              <LongitudeDegrees>-1.24144409783184528350830078125</LongitudeDegrees>
            </Position>
            <AltitudeMeters>11.6000003814697265625</AltitudeMeters>
            <DistanceMeters>NAN</DistanceMeters>
          </Trackpoint>
          <Trackpoint>
            <Time>2022-07-04T18:50:37.000Z</Time>
            <Position>
              <LatitudeDegrees>44.5565864257514476776123046875</LatitudeDegrees>
              <LongitudeDegrees>-1.2412869371473789215087890625</LongitudeDegrees>
            </Position>
            <AltitudeMeters>12.19999980926513671875</AltitudeMeters>
            <DistanceMeters>NAN</DistanceMeters>
          </Trackpoint>
          <Trackpoint>
            <Time>2022-07-04T18:50:38.000Z</Time>
            <Position>
              <LatitudeDegrees>44.55657578073441982269287109375</LatitudeDegrees>
              <LongitudeDegrees>-1.24125734902918338775634765625</LongitudeDegrees>
            </Position>
            <AltitudeMeters>12.3999996185302734375</AltitudeMeters>
            <DistanceMeters>NAN</DistanceMeters>
          </Trackpoint>
          <Trackpoint>
            <Time>2022-07-04T18:50:47.000Z</Time>
            <Position>
              <LatitudeDegrees>44.55650134943425655364990234375</LatitudeDegrees>
              <LongitudeDegrees>-1.24092123471200466156005859375</LongitudeDegrees>
            </Position>
            <AltitudeMeters>12.80000019073486328125</AltitudeMeters>
            <DistanceMeters>NAN</DistanceMeters>
          </Trackpoint>
          <Trackpoint>
            <Time>2022-07-04T18:50:49.000Z</Time>
            <Position>
              <LatitudeDegrees>44.55647670663893222808837890625</LatitudeDegrees>
              <LongitudeDegrees>-1.24081847257912158966064453125</LongitudeDegrees>
            </Position>
            <AltitudeMeters>12.6000003814697265625</AltitudeMeters>
            <DistanceMeters>NAN</DistanceMeters>
          </Trackpoint>
          <Trackpoint>
            <Time>2022-07-04T18:50:50.000Z</Time>
            <Position>
              <LatitudeDegrees>44.556462876498699188232421875</LatitudeDegrees>
              <LongitudeDegrees>-1.24077178537845611572265625</LongitudeDegrees>
            </Position>
            <AltitudeMeters>12.6000003814697265625</AltitudeMeters>
            <DistanceMeters>NAN</DistanceMeters>
          </Trackpoint>
          <Trackpoint>
            <Time>2022-07-04T18:50:51.000Z</Time>
            <Position>
              <LatitudeDegrees>44.55644334666430950164794921875</LatitudeDegrees>
              <LongitudeDegrees>-1.2407380901277065277099609375</LongitudeDegrees>
            </Position>
            <AltitudeMeters>12.6000003814697265625</AltitudeMeters>
            <DistanceMeters>NAN</DistanceMeters>
          </Trackpoint>
          <Trackpoint>
            <Time>2022-07-04T18:50:52.000Z</Time>
            <Position>
              <LatitudeDegrees>44.556415937840938568115234375</LatitudeDegrees>
              <LongitudeDegrees>-1.2407161295413970947265625</LongitudeDegrees>
            </Position>
            <AltitudeMeters>12.6000003814697265625</AltitudeMeters>
            <DistanceMeters>NAN</DistanceMeters>
          </Trackpoint>
          <Trackpoint>
            <Time>2022-07-04T18:50:57.000Z</Time>
            <Position>
              <LatitudeDegrees>44.5562716014683246612548828125</LatitudeDegrees>
              <LongitudeDegrees>-1.240695677697658538818359375</LongitudeDegrees>
            </Position>
            <AltitudeMeters>12.6000003814697265625</AltitudeMeters>
            <DistanceMeters>NAN</DistanceMeters>
          </Trackpoint>
          <Trackpoint>
            <Time>2022-07-04T18:51:02.000Z</Time>
            <Position>
              <LatitudeDegrees>44.55614830367267131805419921875</LatitudeDegrees>
              <LongitudeDegrees>-1.24063641764223575592041015625</LongitudeDegrees>
            </Position>
            <AltitudeMeters>12.19999980926513671875</AltitudeMeters>
            <DistanceMeters>NAN</DistanceMeters>
          </Trackpoint>
          <Trackpoint>
            <Time>2022-07-04T18:51:07.000Z</Time>
            <Position>
              <LatitudeDegrees>44.55612014047801494598388671875</LatitudeDegrees>
              <LongitudeDegrees>-1.24048034660518169403076171875</LongitudeDegrees>
            </Position>
            <AltitudeMeters>12</AltitudeMeters>
            <DistanceMeters>NAN</DistanceMeters>
          </Trackpoint>
          <Trackpoint>
            <Time>2022-07-04T18:51:10.000Z</Time>
            <Position>
              <LatitudeDegrees>44.5560918934643268585205078125</LatitudeDegrees>
              <LongitudeDegrees>-1.2403716333210468292236328125</LongitudeDegrees>
            </Position>
            <AltitudeMeters>12</AltitudeMeters>
            <DistanceMeters>NAN</DistanceMeters>
          </Trackpoint>
          <Trackpoint>
            <Time>2022-07-04T18:51:12.000Z</Time>
            <Position>
              <LatitudeDegrees>44.55604520626366138458251953125</LatitudeDegrees>
              <LongitudeDegrees>-1.2403111159801483154296875</LongitudeDegrees>
            </Position>
            <AltitudeMeters>12</AltitudeMeters>
            <DistanceMeters>NAN</DistanceMeters>
          </Trackpoint>
          <Trackpoint>
            <Time>2022-07-04T18:51:18.000Z</Time>
            <Position>
              <LatitudeDegrees>44.55586130730807781219482421875</LatitudeDegrees>
              <LongitudeDegrees>-1.24022168107330799102783203125</LongitudeDegrees>
            </Position>
            <AltitudeMeters>12.6000003814697265625</AltitudeMeters>
            <DistanceMeters>NAN</DistanceMeters>
          </Trackpoint>
          <Trackpoint>
            <Time>2022-07-04T18:51:25.000Z</Time>
            <Position>
              <LatitudeDegrees>44.55564505420625209808349609375</LatitudeDegrees>
              <LongitudeDegrees>-1.24016636051237583160400390625</LongitudeDegrees>
            </Position>
            <AltitudeMeters>12.80000019073486328125</AltitudeMeters>
            <DistanceMeters>NAN</DistanceMeters>
          </Trackpoint>
          <Trackpoint>
            <Time>2022-07-04T18:51:28.000Z</Time>
            <Position>
              <LatitudeDegrees>44.55558252520859241485595703125</LatitudeDegrees>
              <LongitudeDegrees>-1.240139119327068328857421875</LongitudeDegrees>
            </Position>
            <AltitudeMeters>12.80000019073486328125</AltitudeMeters>
            <DistanceMeters>NAN</DistanceMeters>
          </Trackpoint>
          <Trackpoint>
            <Time>2022-07-04T18:51:30.000Z</Time>
            <Position>
              <LatitudeDegrees>44.555520080029964447021484375</LatitudeDegrees>
              <LongitudeDegrees>-1.24012445099651813507080078125</LongitudeDegrees>
            </Position>
            <AltitudeMeters>12.80000019073486328125</AltitudeMeters>
            <DistanceMeters>NAN</DistanceMeters>
          </Trackpoint>
          <Trackpoint>
            <Time>2022-07-04T18:51:32.000Z</Time>
            <Position>
              <LatitudeDegrees>44.555414803326129913330078125</LatitudeDegrees>
              <LongitudeDegrees>-1.24011975713074207305908203125</LongitudeDegrees>
            </Position>
            <AltitudeMeters>12.6000003814697265625</AltitudeMeters>
            <DistanceMeters>NAN</DistanceMeters>
          </Trackpoint>
          <Trackpoint>
            <Time>2022-07-04T18:51:34.000Z</Time>
            <Position>
              <LatitudeDegrees>44.555320255458354949951171875</LatitudeDegrees>
              <LongitudeDegrees>-1.240095533430576324462890625</LongitudeDegrees>
            </Position>
            <AltitudeMeters>12.3999996185302734375</AltitudeMeters>
            <DistanceMeters>NAN</DistanceMeters>
          </Trackpoint>
          <Trackpoint>
            <Time>2022-07-04T18:51:37.000Z</Time>
            <Position>
              <LatitudeDegrees>44.55519041977822780609130859375</LatitudeDegrees>
              <LongitudeDegrees>-1.24006041325628757476806640625</LongitudeDegrees>
            </Position>
            <AltitudeMeters>12.3999996185302734375</AltitudeMeters>
            <DistanceMeters>NAN</DistanceMeters>
          </Trackpoint>
          <Trackpoint>
            <Time>2022-07-04T18:51:44.000Z</Time>
            <Position>
              <LatitudeDegrees>44.55492722801864147186279296875</LatitudeDegrees>
              <LongitudeDegrees>-1.23997625894844532012939453125</LongitudeDegrees>
            </Position>
            <AltitudeMeters>12.3999996185302734375</AltitudeMeters>
            <DistanceMeters>NAN</DistanceMeters>
          </Trackpoint>
          <Trackpoint>
            <Time>2022-07-04T18:51:49.000Z</Time>
            <Position>
              <LatitudeDegrees>44.5547487773001194000244140625</LatitudeDegrees>
              <LongitudeDegrees>-1.23991750180721282958984375</LongitudeDegrees>
            </Position>
            <AltitudeMeters>12.6000003814697265625</AltitudeMeters>
            <DistanceMeters>NAN</DistanceMeters>
          </Trackpoint>
          <Trackpoint>
            <Time>2022-07-04T18:51:55.000Z</Time>
            <Position>
              <LatitudeDegrees>44.5544971525669097900390625</LatitudeDegrees>
              <LongitudeDegrees>-1.23980820178985595703125</LongitudeDegrees>
            </Position>
            <AltitudeMeters>12.6000003814697265625</AltitudeMeters>
            <DistanceMeters>NAN</DistanceMeters>
          </Trackpoint>
          <Trackpoint>
            <Time>2022-07-04T18:51:58.000Z</Time>
            <Position>
              <LatitudeDegrees>44.55438676290214061737060546875</LatitudeDegrees>
              <LongitudeDegrees>-1.23977894894778728485107421875</LongitudeDegrees>
            </Position>
            <AltitudeMeters>12.3999996185302734375</AltitudeMeters>
            <DistanceMeters>NAN</DistanceMeters>
          </Trackpoint>
          <Trackpoint>
            <Time>2022-07-04T18:52:07.000Z</Time>
            <Position>
              <LatitudeDegrees>44.55408115871250629425048828125</LatitudeDegrees>
              <LongitudeDegrees>-1.23969018459320068359375</LongitudeDegrees>
            </Position>
            <AltitudeMeters>12.3999996185302734375</AltitudeMeters>
            <DistanceMeters>NAN</DistanceMeters>
          </Trackpoint>
          <Trackpoint>
            <Time>2022-07-04T18:52:08.000Z</Time>
            <Position>
              <LatitudeDegrees>44.55405928194522857666015625</LatitudeDegrees>
              <LongitudeDegrees>-1.239681802690029144287109375</LongitudeDegrees>
            </Position>
            <AltitudeMeters>12.3999996185302734375</AltitudeMeters>
            <DistanceMeters>NAN</DistanceMeters>
          </Trackpoint>
          <Trackpoint>
            <Time>2022-07-04T18:52:10.000Z</Time>
            <Position>
              <LatitudeDegrees>44.55401510931551456451416015625</LatitudeDegrees>
              <LongitudeDegrees>-1.23967199586331844329833984375</LongitudeDegrees>
            </Position>
            <AltitudeMeters>12.6000003814697265625</AltitudeMeters>
            <DistanceMeters>NAN</DistanceMeters>
          </Trackpoint>
          <Trackpoint>
            <Time>2022-07-04T18:52:11.000Z</Time>
            <Position>
              <LatitudeDegrees>44.55399197526276111602783203125</LatitudeDegrees>
              <LongitudeDegrees>-1.23966931365430355072021484375</LongitudeDegrees>
            </Position>
            <AltitudeMeters>12.6000003814697265625</AltitudeMeters>
            <DistanceMeters>NAN</DistanceMeters>
          </Trackpoint>
          <Trackpoint>
            <Time>2022-07-04T18:52:14.000Z</Time>
            <Position>
              <LatitudeDegrees>44.5539151132106781005859375</LatitudeDegrees>
              <LongitudeDegrees>-1.23965892009437084197998046875</LongitudeDegrees>
            </Position>
            <AltitudeMeters>12.80000019073486328125</AltitudeMeters>
            <DistanceMeters>NAN</DistanceMeters>
          </Trackpoint>
          <Trackpoint>
            <Time>2022-07-04T18:52:15.000Z</Time>
            <Position>
              <LatitudeDegrees>44.55389474518597126007080078125</LatitudeDegrees>
              <LongitudeDegrees>-1.2396665476262569427490234375</LongitudeDegrees>
            </Position>
            <AltitudeMeters>12.80000019073486328125</AltitudeMeters>
            <DistanceMeters>NAN</DistanceMeters>
          </Trackpoint>
          <Trackpoint>
            <Time>2022-07-04T18:52:17.000Z</Time>
            <Position>
              <LatitudeDegrees>44.5538633130490779876708984375</LatitudeDegrees>
              <LongitudeDegrees>-1.239706613123416900634765625</LongitudeDegrees>
            </Position>
            <AltitudeMeters>12.80000019073486328125</AltitudeMeters>
            <DistanceMeters>NAN</DistanceMeters>
          </Trackpoint>
          <Trackpoint>
            <Time>2022-07-04T18:52:18.000Z</Time>
            <Position>
              <LatitudeDegrees>44.553862474858760833740234375</LatitudeDegrees>
              <LongitudeDegrees>-1.23973645269870758056640625</LongitudeDegrees>
            </Position>
            <AltitudeMeters>12.80000019073486328125</AltitudeMeters>
            <DistanceMeters>NAN</DistanceMeters>
          </Trackpoint>
          <Trackpoint>
            <Time>2022-07-04T18:52:22.000Z</Time>
            <Position>
              <LatitudeDegrees>44.55387127585709095001220703125</LatitudeDegrees>
              <LongitudeDegrees>-1.23976771719753742218017578125</LongitudeDegrees>
            </Position>
            <AltitudeMeters>12.6000003814697265625</AltitudeMeters>
            <DistanceMeters>NAN</DistanceMeters>
          </Trackpoint>
          <Trackpoint>
            <Time>2022-07-04T18:52:35.000Z</Time>
            <Position>
              <LatitudeDegrees>44.55390832386910915374755859375</LatitudeDegrees>
              <LongitudeDegrees>-1.239848099648952484130859375</LongitudeDegrees>
            </Position>
            <AltitudeMeters>12.80000019073486328125</AltitudeMeters>
            <DistanceMeters>NAN</DistanceMeters>
          </Trackpoint>
          <Trackpoint>
            <Time>2022-07-04T18:52:38.000Z</Time>
            <Position>
              <LatitudeDegrees>44.5539431087672710418701171875</LatitudeDegrees>
              <LongitudeDegrees>-1.239941306412220001220703125</LongitudeDegrees>
            </Position>
            <AltitudeMeters>12.80000019073486328125</AltitudeMeters>
            <DistanceMeters>NAN</DistanceMeters>
          </Trackpoint>
          <Trackpoint>
            <Time>2022-07-04T18:52:45.000Z</Time>
            <Position>
              <LatitudeDegrees>44.553999938070774078369140625</LatitudeDegrees>
              <LongitudeDegrees>-1.2401754967868328094482421875</LongitudeDegrees>
            </Position>
            <AltitudeMeters>13</AltitudeMeters>
            <DistanceMeters>NAN</DistanceMeters>
          </Trackpoint>
          <Trackpoint>
            <Time>2022-07-04T18:52:47.000Z</Time>
            <Position>
              <LatitudeDegrees>44.5539980940520763397216796875</LatitudeDegrees>
              <LongitudeDegrees>-1.2402164004743099212646484375</LongitudeDegrees>
            </Position>
            <AltitudeMeters>13</AltitudeMeters>
            <DistanceMeters>NAN</DistanceMeters>
          </Trackpoint>
          <Trackpoint>
            <Time>2022-07-04T18:52:49.000Z</Time>
            <Position>
              <LatitudeDegrees>44.5539820007979869842529296875</LatitudeDegrees>
              <LongitudeDegrees>-1.2402378581464290618896484375</LongitudeDegrees>
            </Position>
            <AltitudeMeters>13</AltitudeMeters>
            <DistanceMeters>NAN</DistanceMeters>
          </Trackpoint>
          <Trackpoint>
            <Time>2022-07-04T18:52:51.000Z</Time>
            <Position>
              <LatitudeDegrees>44.5539581961929798126220703125</LatitudeDegrees>
              <LongitudeDegrees>-1.24025755561888217926025390625</LongitudeDegrees>
            </Position>
            <AltitudeMeters>13.19999980926513671875</AltitudeMeters>
            <DistanceMeters>NAN</DistanceMeters>
          </Trackpoint>
          <Trackpoint>
            <Time>2022-07-04T18:52:56.000Z</Time>
            <Position>
              <LatitudeDegrees>44.55392223782837390899658203125</LatitudeDegrees>
              <LongitudeDegrees>-1.24028337188065052032470703125</LongitudeDegrees>
            </Position>
            <AltitudeMeters>13.80000019073486328125</AltitudeMeters>
            <DistanceMeters>NAN</DistanceMeters>
          </Trackpoint>
          <Trackpoint>
            <Time>2022-07-04T18:52:57.000Z</Time>
            <Position>
              <LatitudeDegrees>44.55392223782837390899658203125</LatitudeDegrees>
              <LongitudeDegrees>-1.24028337188065052032470703125</LongitudeDegrees>
            </Position>
            <AltitudeMeters>14</AltitudeMeters>
            <DistanceMeters>NAN</DistanceMeters>
          </Trackpoint>
          <Trackpoint>
            <Time>2022-07-04T18:58:37.000Z</Time>
            <Position>
              <LatitudeDegrees>44.55320524983108043670654296875</LatitudeDegrees>
              <LongitudeDegrees>-1.24052091501653194427490234375</LongitudeDegrees>
            </Position>
            <AltitudeMeters>22.3999996185302734375</AltitudeMeters>
            <DistanceMeters>NAN</DistanceMeters>
          </Trackpoint>
          <Trackpoint>
            <Time>2022-07-04T18:58:38.000Z</Time>
            <Position>
              <LatitudeDegrees>44.55321731977164745330810546875</LatitudeDegrees>
              <LongitudeDegrees>-1.2405419535934925079345703125</LongitudeDegrees>
            </Position>
            <AltitudeMeters>22.200000762939453125</AltitudeMeters>
            <DistanceMeters>NAN</DistanceMeters>
          </Trackpoint>
          <Trackpoint>
            <Time>2022-07-04T18:58:40.000Z</Time>
            <Position>
              <LatitudeDegrees>44.55323140136897563934326171875</LatitudeDegrees>
              <LongitudeDegrees>-1.24056818895041942596435546875</LongitudeDegrees>
            </Position>
            <AltitudeMeters>22</AltitudeMeters>
            <DistanceMeters>NAN</DistanceMeters>
          </Trackpoint>
          <Trackpoint>
            <Time>2022-07-04T18:58:42.000Z</Time>
            <Position>
              <LatitudeDegrees>44.553240202367305755615234375</LatitudeDegrees>
              <LongitudeDegrees>-1.24057036824524402618408203125</LongitudeDegrees>
            </Position>
            <AltitudeMeters>22</AltitudeMeters>
            <DistanceMeters>NAN</DistanceMeters>
          </Trackpoint>
          <Trackpoint>
            <Time>2022-07-05T05:49:22.000Z</Time>
            <Position>
              <LatitudeDegrees>44.55331270582973957061767578125</LatitudeDegrees>
              <LongitudeDegrees>-1.24081495217978954315185546875</LongitudeDegrees>
            </Position>
            <AltitudeMeters>43.40000152587890625</AltitudeMeters>
            <DistanceMeters>NAN</DistanceMeters>
          </Trackpoint>
          <Trackpoint>
            <Time>2022-07-05T05:49:23.000Z</Time>
            <Position>
              <LatitudeDegrees>44.55331086181104183197021484375</LatitudeDegrees>
              <LongitudeDegrees>-1.24081478454172611236572265625</LongitudeDegrees>
            </Position>
            <AltitudeMeters>43.40000152587890625</AltitudeMeters>
            <DistanceMeters>NAN</DistanceMeters>
          </Trackpoint>
          <Trackpoint>
            <Time>2022-07-05T05:50:31.000Z</Time>
            <Position>
              <LatitudeDegrees>44.55342954955995082855224609375</LatitudeDegrees>
              <LongitudeDegrees>-1.240661479532718658447265625</LongitudeDegrees>
            </Position>
            <AltitudeMeters>41.200000762939453125</AltitudeMeters>
            <DistanceMeters>NAN</DistanceMeters>
          </Trackpoint>
          <Trackpoint>
            <Time>2022-07-05T05:50:32.000Z</Time>
            <Position>
              <LatitudeDegrees>44.55344664864242076873779296875</LatitudeDegrees>
              <LongitudeDegrees>-1.240631975233554840087890625</LongitudeDegrees>
            </Position>
            <AltitudeMeters>40.799999237060546875</AltitudeMeters>
            <DistanceMeters>NAN</DistanceMeters>
          </Trackpoint>
          <Trackpoint>
            <Time>2022-07-05T05:50:33.000Z</Time>
            <Position>
              <LatitudeDegrees>44.5534693636000156402587890625</LatitudeDegrees>
              <LongitudeDegrees>-1.2405979447066783905029296875</LongitudeDegrees>
            </Position>
            <AltitudeMeters>40.59999847412109375</AltitudeMeters>
            <DistanceMeters>NAN</DistanceMeters>
          </Trackpoint>
          <Trackpoint>
            <Time>2022-07-05T05:50:34.000Z</Time>
            <Position>
              <LatitudeDegrees>44.55350934527814388275146484375</LatitudeDegrees>
              <LongitudeDegrees>-1.24057137407362461090087890625</LongitudeDegrees>
            </Position>
            <AltitudeMeters>40.200000762939453125</AltitudeMeters>
            <DistanceMeters>NAN</DistanceMeters>
          </Trackpoint>
          <Trackpoint>
            <Time>2022-07-05T05:50:36.000Z</Time>
            <Position>
              <LatitudeDegrees>44.55360271967947483062744140625</LatitudeDegrees>
              <LongitudeDegrees>-1.2405168078839778900146484375</LongitudeDegrees>
            </Position>
            <AltitudeMeters>39.40000152587890625</AltitudeMeters>
            <DistanceMeters>NAN</DistanceMeters>
          </Trackpoint>
          <Trackpoint>
            <Time>2022-07-05T05:50:37.000Z</Time>
            <Position>
              <LatitudeDegrees>44.5536413602530956268310546875</LatitudeDegrees>
              <LongitudeDegrees>-1.2405010499060153961181640625</LongitudeDegrees>
            </Position>
            <AltitudeMeters>39</AltitudeMeters>
            <DistanceMeters>NAN</DistanceMeters>
          </Trackpoint>
          <Trackpoint>
            <Time>2022-07-05T05:50:40.000Z</Time>
            <Position>
              <LatitudeDegrees>44.55375459976494312286376953125</LatitudeDegrees>
              <LongitudeDegrees>-1.24044681899249553680419921875</LongitudeDegrees>
            </Position>
            <AltitudeMeters>37.799999237060546875</AltitudeMeters>
            <DistanceMeters>NAN</DistanceMeters>
          </Trackpoint>
          <Trackpoint>
            <Time>2022-07-05T05:50:41.000Z</Time>
            <Position>
              <LatitudeDegrees>44.55378963612020015716552734375</LatitudeDegrees>
              <LongitudeDegrees>-1.24042402021586894989013671875</LongitudeDegrees>
            </Position>
            <AltitudeMeters>37.40000152587890625</AltitudeMeters>
            <DistanceMeters>NAN</DistanceMeters>
          </Trackpoint>
          <Trackpoint>
            <Time>2022-07-05T05:50:43.000Z</Time>
            <Position>
              <LatitudeDegrees>44.5538448728621006011962890625</LatitudeDegrees>
              <LongitudeDegrees>-1.2403826974332332611083984375</LongitudeDegrees>
            </Position>
            <AltitudeMeters>36.799999237060546875</AltitudeMeters>
            <DistanceMeters>NAN</DistanceMeters>
          </Trackpoint>
          <Trackpoint>
            <Time>2022-07-05T05:50:45.000Z</Time>
            <Position>
              <LatitudeDegrees>44.55388938076794147491455078125</LatitudeDegrees>
              <LongitudeDegrees>-1.2403417937457561492919921875</LongitudeDegrees>
            </Position>
            <AltitudeMeters>35.59999847412109375</AltitudeMeters>
            <DistanceMeters>NAN</DistanceMeters>
          </Trackpoint>
          <Trackpoint>
            <Time>2022-07-05T05:50:46.000Z</Time>
            <Position>
              <LatitudeDegrees>44.55391385592520236968994140625</LatitudeDegrees>
              <LongitudeDegrees>-1.2403223477303981781005859375</LongitudeDegrees>
            </Position>
            <AltitudeMeters>35.200000762939453125</AltitudeMeters>
            <DistanceMeters>NAN</DistanceMeters>
          </Trackpoint>
          <Trackpoint>
            <Time>2022-07-05T05:50:48.000Z</Time>
            <Position>
              <LatitudeDegrees>44.55395224504172801971435546875</LatitudeDegrees>
              <LongitudeDegrees>-1.240299381315708160400390625</LongitudeDegrees>
            </Position>
            <AltitudeMeters>34.59999847412109375</AltitudeMeters>
            <DistanceMeters>NAN</DistanceMeters>
          </Trackpoint>
          <Trackpoint>
            <Time>2022-07-05T05:50:49.000Z</Time>
            <Position>
              <LatitudeDegrees>44.55397001467645168304443359375</LatitudeDegrees>
              <LongitudeDegrees>-1.24029544182121753692626953125</LongitudeDegrees>
            </Position>
            <AltitudeMeters>34.40000152587890625</AltitudeMeters>
            <DistanceMeters>NAN</DistanceMeters>
          </Trackpoint>
          <Trackpoint>
            <Time>2022-07-05T05:50:50.000Z</Time>
            <Position>
              <LatitudeDegrees>44.5539850182831287384033203125</LatitudeDegrees>
              <LongitudeDegrees>-1.24029845930635929107666015625</LongitudeDegrees>
            </Position>
            <AltitudeMeters>34.40000152587890625</AltitudeMeters>
            <DistanceMeters>NAN</DistanceMeters>
          </Trackpoint>
          <Trackpoint>
            <Time>2022-07-05T05:50:53.000Z</Time>
            <Position>
              <LatitudeDegrees>44.55397755838930606842041015625</LatitudeDegrees>
              <LongitudeDegrees>-1.240349672734737396240234375</LongitudeDegrees>
            </Position>
            <AltitudeMeters>34.200000762939453125</AltitudeMeters>
            <DistanceMeters>NAN</DistanceMeters>
          </Trackpoint>
          <Trackpoint>
            <Time>2022-07-05T05:50:55.000Z</Time>
            <Position>
              <LatitudeDegrees>44.55397881567478179931640625</LatitudeDegrees>
              <LongitudeDegrees>-1.24039225280284881591796875</LongitudeDegrees>
            </Position>
            <AltitudeMeters>34.200000762939453125</AltitudeMeters>
            <DistanceMeters>NAN</DistanceMeters>
          </Trackpoint>
          <Trackpoint>
            <Time>2022-07-05T05:50:57.000Z</Time>
            <Position>
              <LatitudeDegrees>44.55399046652019023895263671875</LatitudeDegrees>
              <LongitudeDegrees>-1.24042041599750518798828125</LongitudeDegrees>
            </Position>
            <AltitudeMeters>34.40000152587890625</AltitudeMeters>
            <DistanceMeters>NAN</DistanceMeters>
          </Trackpoint>
          <Trackpoint>
            <Time>2022-07-05T05:50:58.000Z</Time>
            <Position>
              <LatitudeDegrees>44.55399901606142520904541015625</LatitudeDegrees>
              <LongitudeDegrees>-1.24043458141386508941650390625</LongitudeDegrees>
            </Position>
            <AltitudeMeters>34.40000152587890625</AltitudeMeters>
            <DistanceMeters>NAN</DistanceMeters>
          </Trackpoint>
          <Trackpoint>
            <Time>2022-07-05T05:51:03.000Z</Time>
            <Position>
              <LatitudeDegrees>44.55403137020766735076904296875</LatitudeDegrees>
              <LongitudeDegrees>-1.240513958036899566650390625</LongitudeDegrees>
            </Position>
            <AltitudeMeters>34.799999237060546875</AltitudeMeters>
            <DistanceMeters>NAN</DistanceMeters>
          </Trackpoint>
          <Trackpoint>
            <Time>2022-07-05T05:51:04.000Z</Time>
            <Position>
              <LatitudeDegrees>44.554036147892475128173828125</LatitudeDegrees>
              <LongitudeDegrees>-1.2405364215373992919921875</LongitudeDegrees>
            </Position>
            <AltitudeMeters>34.799999237060546875</AltitudeMeters>
            <DistanceMeters>NAN</DistanceMeters>
          </Trackpoint>
          <Trackpoint>
            <Time>2022-07-05T05:51:10.000Z</Time>
            <Position>
              <LatitudeDegrees>44.55412675626575946807861328125</LatitudeDegrees>
              <LongitudeDegrees>-1.24072509817779064178466796875</LongitudeDegrees>
            </Position>
            <AltitudeMeters>35.200000762939453125</AltitudeMeters>
            <DistanceMeters>NAN</DistanceMeters>
          </Trackpoint>
          <Trackpoint>
            <Time>2022-07-05T05:51:13.000Z</Time>
            <Position>
              <LatitudeDegrees>44.5541565120220184326171875</LatitudeDegrees>
              <LongitudeDegrees>-1.24083540402352809906005859375</LongitudeDegrees>
            </Position>
            <AltitudeMeters>35.59999847412109375</AltitudeMeters>
            <DistanceMeters>NAN</DistanceMeters>
          </Trackpoint>
          <Trackpoint>
            <Time>2022-07-05T05:51:17.000Z</Time>
            <Position>
              <LatitudeDegrees>44.55419263802468776702880859375</LatitudeDegrees>
              <LongitudeDegrees>-1.24094990082085132598876953125</LongitudeDegrees>
            </Position>
            <AltitudeMeters>35.799999237060546875</AltitudeMeters>
            <DistanceMeters>NAN</DistanceMeters>
          </Trackpoint>
          <Trackpoint>
            <Time>2022-07-05T05:51:18.000Z</Time>
            <Position>
              <LatitudeDegrees>44.554196409881114959716796875</LatitudeDegrees>
              <LongitudeDegrees>-1.2409818358719348907470703125</LongitudeDegrees>
            </Position>
            <AltitudeMeters>35.799999237060546875</AltitudeMeters>
            <DistanceMeters>NAN</DistanceMeters>
          </Trackpoint>
          <Trackpoint>
            <Time>2022-07-05T05:51:24.000Z</Time>
            <Position>
              <LatitudeDegrees>44.5541878603398799896240234375</LatitudeDegrees>
              <LongitudeDegrees>-1.24116363935172557830810546875</LongitudeDegrees>
            </Position>
            <AltitudeMeters>36</AltitudeMeters>
            <DistanceMeters>NAN</DistanceMeters>
          </Trackpoint>
          <Trackpoint>
            <Time>2022-07-05T05:51:25.000Z</Time>
            <Position>
              <LatitudeDegrees>44.55417855642735958099365234375</LatitudeDegrees>
              <LongitudeDegrees>-1.24119465239346027374267578125</LongitudeDegrees>
            </Position>
            <AltitudeMeters>36</AltitudeMeters>
            <DistanceMeters>NAN</DistanceMeters>
          </Trackpoint>
          <Trackpoint>
            <Time>2022-07-05T05:51:26.000Z</Time>
            <Position>
              <LatitudeDegrees>44.5541643910109996795654296875</LatitudeDegrees>
              <LongitudeDegrees>-1.2412252463400363922119140625</LongitudeDegrees>
            </Position>
            <AltitudeMeters>36</AltitudeMeters>
            <DistanceMeters>NAN</DistanceMeters>
          </Trackpoint>
          <Trackpoint>
            <Time>2022-07-05T05:51:30.000Z</Time>
            <Position>
              <LatitudeDegrees>44.55401770770549774169921875</LatitudeDegrees>
              <LongitudeDegrees>-1.2413402460515499114990234375</LongitudeDegrees>
            </Position>
            <AltitudeMeters>36.200000762939453125</AltitudeMeters>
            <DistanceMeters>NAN</DistanceMeters>
          </Trackpoint>
          <Trackpoint>
            <Time>2022-07-05T05:51:38.000Z</Time>
            <Position>
              <LatitudeDegrees>44.55385752953588962554931640625</LatitudeDegrees>
              <LongitudeDegrees>-1.2415990792214870452880859375</LongitudeDegrees>
            </Position>
            <AltitudeMeters>36.200000762939453125</AltitudeMeters>
            <DistanceMeters>NAN</DistanceMeters>
          </Trackpoint>
          <Trackpoint>
            <Time>2022-07-05T05:51:39.000Z</Time>
            <Position>
              <LatitudeDegrees>44.55384914763271808624267578125</LatitudeDegrees>
              <LongitudeDegrees>-1.24159564264118671417236328125</LongitudeDegrees>
            </Position>
            <AltitudeMeters>36</AltitudeMeters>
            <DistanceMeters>NAN</DistanceMeters>
          </Trackpoint>
          <Trackpoint>
            <Time>2022-07-05T05:51:41.000Z</Time>
            <Position>
              <LatitudeDegrees>44.5538561046123504638671875</LatitudeDegrees>
              <LongitudeDegrees>-1.24157686717808246612548828125</LongitudeDegrees>
            </Position>
            <AltitudeMeters>36</AltitudeMeters>
            <DistanceMeters>NAN</DistanceMeters>
          </Trackpoint>
          <Trackpoint>
            <Time>2022-07-05T05:51:42.000Z</Time>
            <Position>
              <LatitudeDegrees>44.55386071465909481048583984375</LatitudeDegrees>
              <LongitudeDegrees>-1.24157887883484363555908203125</LongitudeDegrees>
            </Position>
            <AltitudeMeters>36</AltitudeMeters>
            <DistanceMeters>NAN</DistanceMeters>
          </Trackpoint>
          <Trackpoint>
            <Time>2022-07-05T05:52:07.000Z</Time>
            <Position>
              <LatitudeDegrees>44.553850404918193817138671875</LatitudeDegrees>
              <LongitudeDegrees>-1.24165900982916355133056640625</LongitudeDegrees>
            </Position>
            <AltitudeMeters>36.40000152587890625</AltitudeMeters>
            <DistanceMeters>NAN</DistanceMeters>
          </Trackpoint>
          <Trackpoint>
            <Time>2022-07-05T05:52:09.000Z</Time>
            <Position>
              <LatitudeDegrees>44.5538371615111827850341796875</LatitudeDegrees>
              <LongitudeDegrees>-1.24170611612498760223388671875</LongitudeDegrees>
            </Position>
            <AltitudeMeters>36.40000152587890625</AltitudeMeters>
            <DistanceMeters>NAN</DistanceMeters>
          </Trackpoint>
          <Trackpoint>
            <Time>2022-07-05T05:52:14.000Z</Time>
            <Position>
              <LatitudeDegrees>44.5537811703979969024658203125</LatitudeDegrees>
              <LongitudeDegrees>-1.24184777028858661651611328125</LongitudeDegrees>
            </Position>
            <AltitudeMeters>36.40000152587890625</AltitudeMeters>
            <DistanceMeters>NAN</DistanceMeters>
          </Trackpoint>
          <Trackpoint>
            <Time>2022-07-05T05:52:15.000Z</Time>
            <Position>
              <LatitudeDegrees>44.553755186498165130615234375</LatitudeDegrees>
              <LongitudeDegrees>-1.2418847344815731048583984375</LongitudeDegrees>
            </Position>
            <AltitudeMeters>36.40000152587890625</AltitudeMeters>
            <DistanceMeters>NAN</DistanceMeters>
          </Trackpoint>
          <Trackpoint>
            <Time>2022-07-05T05:52:20.000Z</Time>
            <Position>
              <LatitudeDegrees>44.55359232611954212188720703125</LatitudeDegrees>
              <LongitudeDegrees>-1.24209386296570301055908203125</LongitudeDegrees>
            </Position>
            <AltitudeMeters>36.40000152587890625</AltitudeMeters>
            <DistanceMeters>NAN</DistanceMeters>
          </Trackpoint>
          <Trackpoint>
            <Time>2022-07-05T05:52:26.000Z</Time>
            <Position>
              <LatitudeDegrees>44.55345385707914829254150390625</LatitudeDegrees>
              <LongitudeDegrees>-1.24243617989122867584228515625</LongitudeDegrees>
            </Position>
            <AltitudeMeters>36.200000762939453125</AltitudeMeters>
            <DistanceMeters>NAN</DistanceMeters>
          </Trackpoint>
          <Trackpoint>
            <Time>2022-07-05T05:52:28.000Z</Time>
            <Position>
              <LatitudeDegrees>44.553403146564960479736328125</LatitudeDegrees>
              <LongitudeDegrees>-1.242566518485546112060546875</LongitudeDegrees>
            </Position>
            <AltitudeMeters>35.799999237060546875</AltitudeMeters>
            <DistanceMeters>NAN</DistanceMeters>
          </Trackpoint>
          <Trackpoint>
            <Time>2022-07-05T05:52:32.000Z</Time>
            <Position>
              <LatitudeDegrees>44.5532923378050327301025390625</LatitudeDegrees>
              <LongitudeDegrees>-1.2428992800414562225341796875</LongitudeDegrees>
            </Position>
            <AltitudeMeters>34.200000762939453125</AltitudeMeters>
            <DistanceMeters>NAN</DistanceMeters>
          </Trackpoint>
          <Trackpoint>
            <Time>2022-07-05T05:52:33.000Z</Time>
            <Position>
              <LatitudeDegrees>44.55326392315328121185302734375</LatitudeDegrees>
              <LongitudeDegrees>-1.24298217706382274627685546875</LongitudeDegrees>
            </Position>
            <AltitudeMeters>34</AltitudeMeters>
            <DistanceMeters>NAN</DistanceMeters>
          </Trackpoint>
          <Trackpoint>
            <Time>2022-07-05T05:52:34.000Z</Time>
            <Position>
              <LatitudeDegrees>44.5532418787479400634765625</LatitudeDegrees>
              <LongitudeDegrees>-1.243057362735271453857421875</LongitudeDegrees>
            </Position>
            <AltitudeMeters>33.799999237060546875</AltitudeMeters>
            <DistanceMeters>NAN</DistanceMeters>
          </Trackpoint>
          <Trackpoint>
            <Time>2022-07-05T05:52:37.000Z</Time>
            <Position>
              <LatitudeDegrees>44.55320977605879306793212890625</LatitudeDegrees>
              <LongitudeDegrees>-1.24327361583709716796875</LongitudeDegrees>
            </Position>
            <AltitudeMeters>34.59999847412109375</AltitudeMeters>
            <DistanceMeters>NAN</DistanceMeters>
          </Trackpoint>
          <Trackpoint>
            <Time>2022-07-05T05:52:38.000Z</Time>
            <Position>
              <LatitudeDegrees>44.5532043278217315673828125</LatitudeDegrees>
              <LongitudeDegrees>-1.24332985840737819671630859375</LongitudeDegrees>
            </Position>
            <AltitudeMeters>34.59999847412109375</AltitudeMeters>
            <DistanceMeters>NAN</DistanceMeters>
          </Trackpoint>
          <Trackpoint>
            <Time>2022-07-05T05:52:41.000Z</Time>
            <Position>
              <LatitudeDegrees>44.5531414635479450225830078125</LatitudeDegrees>
              <LongitudeDegrees>-1.243534795939922332763671875</LongitudeDegrees>
            </Position>
            <AltitudeMeters>34.799999237060546875</AltitudeMeters>
            <DistanceMeters>NAN</DistanceMeters>
          </Trackpoint>
          <Trackpoint>
            <Time>2022-07-05T05:52:42.000Z</Time>
            <Position>
              <LatitudeDegrees>44.5531238615512847900390625</LatitudeDegrees>
              <LongitudeDegrees>-1.2435899488627910614013671875</LongitudeDegrees>
            </Position>
            <AltitudeMeters>34.799999237060546875</AltitudeMeters>
            <DistanceMeters>NAN</DistanceMeters>
          </Trackpoint>
          <Trackpoint>
            <Time>2022-07-05T05:52:45.000Z</Time>
            <Position>
              <LatitudeDegrees>44.5530747435986995697021484375</LatitudeDegrees>
              <LongitudeDegrees>-1.24376454390585422515869140625</LongitudeDegrees>
            </Position>
            <AltitudeMeters>34.799999237060546875</AltitudeMeters>
            <DistanceMeters>NAN</DistanceMeters>
          </Trackpoint>
          <Trackpoint>
            <Time>2022-07-05T05:52:46.000Z</Time>
            <Position>
              <LatitudeDegrees>44.55306820571422576904296875</LatitudeDegrees>
              <LongitudeDegrees>-1.24382254667580127716064453125</LongitudeDegrees>
            </Position>
            <AltitudeMeters>34.799999237060546875</AltitudeMeters>
            <DistanceMeters>NAN</DistanceMeters>
          </Trackpoint>
          <Trackpoint>
            <Time>2022-07-05T05:52:48.000Z</Time>
            <Position>
              <LatitudeDegrees>44.55306074582040309906005859375</LatitudeDegrees>
              <LongitudeDegrees>-1.243923716247081756591796875</LongitudeDegrees>
            </Position>
            <AltitudeMeters>34.799999237060546875</AltitudeMeters>
            <DistanceMeters>NAN</DistanceMeters>
          </Trackpoint>
          <Trackpoint>
            <Time>2022-07-05T05:52:49.000Z</Time>
            <Position>
              <LatitudeDegrees>44.55306686460971832275390625</LatitudeDegrees>
              <LongitudeDegrees>-1.2439798749983310699462890625</LongitudeDegrees>
            </Position>
            <AltitudeMeters>34.799999237060546875</AltitudeMeters>
            <DistanceMeters>NAN</DistanceMeters>
          </Trackpoint>
          <Trackpoint>
            <Time>2022-07-05T05:52:51.000Z</Time>
            <Position>
              <LatitudeDegrees>44.553075246512889862060546875</LatitudeDegrees>
              <LongitudeDegrees>-1.2440898455679416656494140625</LongitudeDegrees>
            </Position>
            <AltitudeMeters>34.799999237060546875</AltitudeMeters>
            <DistanceMeters>NAN</DistanceMeters>
          </Trackpoint>
          <Trackpoint>
            <Time>2022-07-05T05:52:55.000Z</Time>
            <Position>
              <LatitudeDegrees>44.55308773554861545562744140625</LatitudeDegrees>
              <LongitudeDegrees>-1.24430316500365734100341796875</LongitudeDegrees>
            </Position>
            <AltitudeMeters>34.59999847412109375</AltitudeMeters>
            <DistanceMeters>NAN</DistanceMeters>
          </Trackpoint>
          <Trackpoint>
            <Time>2022-07-05T05:52:59.000Z</Time>
            <Position>
              <LatitudeDegrees>44.55299871973693370819091796875</LatitudeDegrees>
              <LongitudeDegrees>-1.24445906840264797210693359375</LongitudeDegrees>
            </Position>
            <AltitudeMeters>34.59999847412109375</AltitudeMeters>
            <DistanceMeters>NAN</DistanceMeters>
          </Trackpoint>
          <Trackpoint>
            <Time>2022-07-05T05:53:04.000Z</Time>
            <Position>
              <LatitudeDegrees>44.5528487674891948699951171875</LatitudeDegrees>
              <LongitudeDegrees>-1.24451757408678531646728515625</LongitudeDegrees>
            </Position>
            <AltitudeMeters>34.40000152587890625</AltitudeMeters>
            <DistanceMeters>NAN</DistanceMeters>
          </Trackpoint>
          <Trackpoint>
            <Time>2022-07-05T05:53:11.000Z</Time>
            <Position>
              <LatitudeDegrees>44.552646093070507049560546875</LatitudeDegrees>
              <LongitudeDegrees>-1.24460399150848388671875</LongitudeDegrees>
            </Position>
            <AltitudeMeters>34.59999847412109375</AltitudeMeters>
            <DistanceMeters>NAN</DistanceMeters>
          </Trackpoint>
          <Trackpoint>
            <Time>2022-07-05T05:53:16.000Z</Time>
            <Position>
              <LatitudeDegrees>44.5525185205042362213134765625</LatitudeDegrees>
              <LongitudeDegrees>-1.24467867426574230194091796875</LongitudeDegrees>
            </Position>
            <AltitudeMeters>34.799999237060546875</AltitudeMeters>
            <DistanceMeters>NAN</DistanceMeters>
          </Trackpoint>
          <Trackpoint>
            <Time>2022-07-05T05:53:17.000Z</Time>
            <Position>
              <LatitudeDegrees>44.5524947158992290496826171875</LatitudeDegrees>
              <LongitudeDegrees>-1.24469744972884654998779296875</LongitudeDegrees>
            </Position>
            <AltitudeMeters>34.799999237060546875</AltitudeMeters>
            <DistanceMeters>NAN</DistanceMeters>
          </Trackpoint>
          <Trackpoint>
            <Time>2022-07-05T05:53:23.000Z</Time>
            <Position>
              <LatitudeDegrees>44.55234325490891933441162109375</LatitudeDegrees>
              <LongitudeDegrees>-1.24481831677258014678955078125</LongitudeDegrees>
            </Position>
            <AltitudeMeters>34.799999237060546875</AltitudeMeters>
            <DistanceMeters>NAN</DistanceMeters>
          </Trackpoint>
          <Trackpoint>
            <Time>2022-07-05T05:53:27.000Z</Time>
            <Position>
              <LatitudeDegrees>44.55223462544381618499755859375</LatitudeDegrees>
              <LongitudeDegrees>-1.24490506947040557861328125</LongitudeDegrees>
            </Position>
            <AltitudeMeters>34.799999237060546875</AltitudeMeters>
            <DistanceMeters>NAN</DistanceMeters>
          </Trackpoint>
          <Trackpoint>
            <Time>2022-07-05T05:53:31.000Z</Time>
            <Position>
              <LatitudeDegrees>44.552123062312602996826171875</LatitudeDegrees>
              <LongitudeDegrees>-1.2449840269982814788818359375</LongitudeDegrees>
            </Position>
            <AltitudeMeters>35</AltitudeMeters>
            <DistanceMeters>NAN</DistanceMeters>
          </Trackpoint>
          <Trackpoint>
            <Time>2022-07-05T05:53:33.000Z</Time>
            <Position>
              <LatitudeDegrees>44.552087523043155670166015625</LatitudeDegrees>
              <LongitudeDegrees>-1.244970448315143585205078125</LongitudeDegrees>
            </Position>
            <AltitudeMeters>34.799999237060546875</AltitudeMeters>
            <DistanceMeters>NAN</DistanceMeters>
          </Trackpoint>
          <Trackpoint>
            <Time>2022-07-05T05:53:37.000Z</Time>
            <Position>
              <LatitudeDegrees>44.55207134597003459930419921875</LatitudeDegrees>
              <LongitudeDegrees>-1.24495309777557849884033203125</LongitudeDegrees>
            </Position>
            <AltitudeMeters>34.59999847412109375</AltitudeMeters>
            <DistanceMeters>NAN</DistanceMeters>
          </Trackpoint>
          <Trackpoint>
            <Time>2022-07-05T05:55:09.000Z</Time>
            <Position>
              <LatitudeDegrees>44.552023820579051971435546875</LatitudeDegrees>
              <LongitudeDegrees>-1.24489962123334407806396484375</LongitudeDegrees>
            </Position>
            <AltitudeMeters>35.200000762939453125</AltitudeMeters>
            <DistanceMeters>NAN</DistanceMeters>
          </Trackpoint>
          <Trackpoint>
            <Time>2022-07-05T05:55:10.000Z</Time>
            <Position>
              <LatitudeDegrees>44.5520080626010894775390625</LatitudeDegrees>
              <LongitudeDegrees>-1.24486961401998996734619140625</LongitudeDegrees>
            </Position>
            <AltitudeMeters>35.200000762939453125</AltitudeMeters>
            <DistanceMeters>NAN</DistanceMeters>
          </Trackpoint>
          <Trackpoint>
            <Time>2022-07-05T05:55:15.000Z</Time>
            <Position>
              <LatitudeDegrees>44.55192332156002521514892578125</LatitudeDegrees>
              <LongitudeDegrees>-1.24472293071448802947998046875</LongitudeDegrees>
            </Position>
            <AltitudeMeters>35.200000762939453125</AltitudeMeters>
            <DistanceMeters>NAN</DistanceMeters>
          </Trackpoint>
          <Trackpoint>
            <Time>2022-07-05T05:55:19.000Z</Time>
            <Position>
              <LatitudeDegrees>44.5518483035266399383544921875</LatitudeDegrees>
              <LongitudeDegrees>-1.24461865983903408050537109375</LongitudeDegrees>
            </Position>
            <AltitudeMeters>35.40000152587890625</AltitudeMeters>
            <DistanceMeters>NAN</DistanceMeters>
          </Trackpoint>
          <Trackpoint>
            <Time>2022-07-05T05:55:23.000Z</Time>
            <Position>
              <LatitudeDegrees>44.55179558135569095611572265625</LatitudeDegrees>
              <LongitudeDegrees>-1.2445132993161678314208984375</LongitudeDegrees>
            </Position>
            <AltitudeMeters>35.40000152587890625</AltitudeMeters>
            <DistanceMeters>NAN</DistanceMeters>
          </Trackpoint>
          <Trackpoint>
            <Time>2022-07-05T05:55:25.000Z</Time>
            <Position>
              <LatitudeDegrees>44.55176926217973232269287109375</LatitudeDegrees>
              <LongitudeDegrees>-1.2445069290697574615478515625</LongitudeDegrees>
            </Position>
            <AltitudeMeters>35.59999847412109375</AltitudeMeters>
            <DistanceMeters>NAN</DistanceMeters>
          </Trackpoint>
          <Trackpoint>
            <Time>2022-07-05T05:55:26.000Z</Time>
            <Position>
              <LatitudeDegrees>44.551754258573055267333984375</LatitudeDegrees>
              <LongitudeDegrees>-1.24452461488544940948486328125</LongitudeDegrees>
            </Position>
            <AltitudeMeters>35.59999847412109375</AltitudeMeters>
            <DistanceMeters>NAN</DistanceMeters>
          </Trackpoint>
          <Trackpoint>
            <Time>2022-07-05T05:55:33.000Z</Time>
            <Position>
              <LatitudeDegrees>44.55159978009760379791259765625</LatitudeDegrees>
              <LongitudeDegrees>-1.24467062763869762420654296875</LongitudeDegrees>
            </Position>
            <AltitudeMeters>35.59999847412109375</AltitudeMeters>
            <DistanceMeters>NAN</DistanceMeters>
          </Trackpoint>
          <Trackpoint>
            <Time>2022-07-05T05:55:39.000Z</Time>
            <Position>
              <LatitudeDegrees>44.55148662440478801727294921875</LatitudeDegrees>
              <LongitudeDegrees>-1.2447647564113140106201171875</LongitudeDegrees>
            </Position>
            <AltitudeMeters>35.40000152587890625</AltitudeMeters>
            <DistanceMeters>NAN</DistanceMeters>
          </Trackpoint>
          <Trackpoint>
            <Time>2022-07-05T05:55:47.000Z</Time>
            <Position>
              <LatitudeDegrees>44.5513048209249973297119140625</LatitudeDegrees>
              <LongitudeDegrees>-1.244926862418651580810546875</LongitudeDegrees>
            </Position>
            <AltitudeMeters>35.59999847412109375</AltitudeMeters>
            <DistanceMeters>NAN</DistanceMeters>
          </Trackpoint>
          <Trackpoint>
            <Time>2022-07-05T05:55:49.000Z</Time>
            <Position>
              <LatitudeDegrees>44.5512508414685726165771484375</LatitudeDegrees>
              <LongitudeDegrees>-1.24497371725738048553466796875</LongitudeDegrees>
            </Position>
            <AltitudeMeters>35.40000152587890625</AltitudeMeters>
            <DistanceMeters>NAN</DistanceMeters>
          </Trackpoint>
          <Trackpoint>
            <Time>2022-07-05T05:55:50.000Z</Time>
            <Position>
              <LatitudeDegrees>44.5512280426919460296630859375</LatitudeDegrees>
              <LongitudeDegrees>-1.2449924089014530181884765625</LongitudeDegrees>
            </Position>
            <AltitudeMeters>35.40000152587890625</AltitudeMeters>
            <DistanceMeters>NAN</DistanceMeters>
          </Trackpoint>
          <Trackpoint>
            <Time>2022-07-05T05:55:55.000Z</Time>
            <Position>
              <LatitudeDegrees>44.55113206990063190460205078125</LatitudeDegrees>
              <LongitudeDegrees>-1.24508637003600597381591796875</LongitudeDegrees>
            </Position>
            <AltitudeMeters>35.59999847412109375</AltitudeMeters>
            <DistanceMeters>NAN</DistanceMeters>
          </Trackpoint>
          <Trackpoint>
            <Time>2022-07-05T05:55:57.000Z</Time>
            <Position>
              <LatitudeDegrees>44.55108412541449069976806640625</LatitudeDegrees>
              <LongitudeDegrees>-1.2451204843819141387939453125</LongitudeDegrees>
            </Position>
            <AltitudeMeters>35.59999847412109375</AltitudeMeters>
            <DistanceMeters>NAN</DistanceMeters>
          </Trackpoint>
          <Trackpoint>
            <Time>2022-07-05T05:56:02.000Z</Time>
            <Position>
              <LatitudeDegrees>44.55096107907593250274658203125</LatitudeDegrees>
              <LongitudeDegrees>-1.24519080854952335357666015625</LongitudeDegrees>
            </Position>
            <AltitudeMeters>36</AltitudeMeters>
            <DistanceMeters>NAN</DistanceMeters>
          </Trackpoint>
          <Trackpoint>
            <Time>2022-07-05T05:56:04.000Z</Time>
            <Position>
              <LatitudeDegrees>44.55091975629329681396484375</LatitudeDegrees>
              <LongitudeDegrees>-1.24523640610277652740478515625</LongitudeDegrees>
            </Position>
            <AltitudeMeters>36</AltitudeMeters>
            <DistanceMeters>NAN</DistanceMeters>
          </Trackpoint>
          <Trackpoint>
            <Time>2022-07-05T05:56:09.000Z</Time>
            <Position>
              <LatitudeDegrees>44.550780616700649261474609375</LatitudeDegrees>
              <LongitudeDegrees>-1.2453484721481800079345703125</LongitudeDegrees>
            </Position>
            <AltitudeMeters>36</AltitudeMeters>
            <DistanceMeters>NAN</DistanceMeters>
          </Trackpoint>
          <Trackpoint>
            <Time>2022-07-05T05:56:13.000Z</Time>
            <Position>
              <LatitudeDegrees>44.550678692758083343505859375</LatitudeDegrees>
              <LongitudeDegrees>-1.245432794094085693359375</LongitudeDegrees>
            </Position>
            <AltitudeMeters>35.799999237060546875</AltitudeMeters>
            <DistanceMeters>NAN</DistanceMeters>
          </Trackpoint>
          <Trackpoint>
            <Time>2022-07-05T05:56:20.000Z</Time>
            <Position>
              <LatitudeDegrees>44.55052949488162994384765625</LatitudeDegrees>
              <LongitudeDegrees>-1.245504207909107208251953125</LongitudeDegrees>
            </Position>
            <AltitudeMeters>35.59999847412109375</AltitudeMeters>
            <DistanceMeters>NAN</DistanceMeters>
          </Trackpoint>
          <Trackpoint>
            <Time>2022-07-05T05:56:25.000Z</Time>
            <Position>
              <LatitudeDegrees>44.5504669658839702606201171875</LatitudeDegrees>
              <LongitudeDegrees>-1.245529018342494964599609375</LongitudeDegrees>
            </Position>
            <AltitudeMeters>35.40000152587890625</AltitudeMeters>
            <DistanceMeters>NAN</DistanceMeters>
          </Trackpoint>
          <Trackpoint>
            <Time>2022-07-05T05:56:26.000Z</Time>
            <Position>
              <LatitudeDegrees>44.5504669658839702606201171875</LatitudeDegrees>
              <LongitudeDegrees>-1.245529018342494964599609375</LongitudeDegrees>
            </Position>
            <AltitudeMeters>35.40000152587890625</AltitudeMeters>
            <DistanceMeters>NAN</DistanceMeters>
          </Trackpoint>
          <Trackpoint>
            <Time>2022-07-05T05:57:03.000Z</Time>
            <Position>
              <LatitudeDegrees>44.5504173450171947479248046875</LatitudeDegrees>
              <LongitudeDegrees>-1.245541758835315704345703125</LongitudeDegrees>
            </Position>
            <AltitudeMeters>35.200000762939453125</AltitudeMeters>
            <DistanceMeters>NAN</DistanceMeters>
          </Trackpoint>
          <Trackpoint>
            <Time>2022-07-05T05:57:05.000Z</Time>
            <Position>
              <LatitudeDegrees>44.5503677241504192352294921875</LatitudeDegrees>
              <LongitudeDegrees>-1.24556514434516429901123046875</LongitudeDegrees>
            </Position>
            <AltitudeMeters>35</AltitudeMeters>
            <DistanceMeters>NAN</DistanceMeters>
          </Trackpoint>
          <Trackpoint>
            <Time>2022-07-05T05:57:13.000Z</Time>
            <Position>
              <LatitudeDegrees>44.550193883478641510009765625</LatitudeDegrees>
              <LongitudeDegrees>-1.245604790747165679931640625</LongitudeDegrees>
            </Position>
            <AltitudeMeters>34.200000762939453125</AltitudeMeters>
            <DistanceMeters>NAN</DistanceMeters>
          </Trackpoint>
          <Trackpoint>
            <Time>2022-07-05T05:57:15.000Z</Time>
            <Position>
              <LatitudeDegrees>44.55013948492705821990966796875</LatitudeDegrees>
              <LongitudeDegrees>-1.245615184307098388671875</LongitudeDegrees>
            </Position>
            <AltitudeMeters>34.200000762939453125</AltitudeMeters>
            <DistanceMeters>NAN</DistanceMeters>
          </Trackpoint>
          <Trackpoint>
            <Time>2022-07-05T05:57:20.000Z</Time>
            <Position>
              <LatitudeDegrees>44.55000579357147216796875</LatitudeDegrees>
              <LongitudeDegrees>-1.24563488177955150604248046875</LongitudeDegrees>
            </Position>
            <AltitudeMeters>34</AltitudeMeters>
            <DistanceMeters>NAN</DistanceMeters>
          </Trackpoint>
          <Trackpoint>
            <Time>2022-07-05T05:57:23.000Z</Time>
            <Position>
              <LatitudeDegrees>44.54993932507932186126708984375</LatitudeDegrees>
              <LongitudeDegrees>-1.2456285953521728515625</LongitudeDegrees>
            </Position>
            <AltitudeMeters>34</AltitudeMeters>
            <DistanceMeters>NAN</DistanceMeters>
          </Trackpoint>
          <Trackpoint>
            <Time>2022-07-05T05:57:27.000Z</Time>
            <Position>
              <LatitudeDegrees>44.549895823001861572265625</LatitudeDegrees>
              <LongitudeDegrees>-1.24561761505901813507080078125</LongitudeDegrees>
            </Position>
            <AltitudeMeters>34</AltitudeMeters>
            <DistanceMeters>NAN</DistanceMeters>
          </Trackpoint>
          <Trackpoint>
            <Time>2022-07-05T05:57:28.000Z</Time>
            <Position>
              <LatitudeDegrees>44.549895823001861572265625</LatitudeDegrees>
              <LongitudeDegrees>-1.24561761505901813507080078125</LongitudeDegrees>
            </Position>
            <AltitudeMeters>34</AltitudeMeters>
            <DistanceMeters>NAN</DistanceMeters>
          </Trackpoint>
          <Trackpoint>
            <Time>2022-07-05T05:59:13.000Z</Time>
            <Position>
              <LatitudeDegrees>44.549858607351779937744140625</LatitudeDegrees>
              <LongitudeDegrees>-1.24562733806669712066650390625</LongitudeDegrees>
            </Position>
            <AltitudeMeters>33.59999847412109375</AltitudeMeters>
            <DistanceMeters>NAN</DistanceMeters>
          </Trackpoint>
          <Trackpoint>
            <Time>2022-07-05T05:59:14.000Z</Time>
            <Position>
              <LatitudeDegrees>44.54983907751739025115966796875</LatitudeDegrees>
              <LongitudeDegrees>-1.2456287629902362823486328125</LongitudeDegrees>
            </Position>
            <AltitudeMeters>33.59999847412109375</AltitudeMeters>
            <DistanceMeters>NAN</DistanceMeters>
          </Trackpoint>
          <Trackpoint>
            <Time>2022-07-05T05:59:15.000Z</Time>
            <Position>
              <LatitudeDegrees>44.54981812275946140289306640625</LatitudeDegrees>
              <LongitudeDegrees>-1.24562515877187252044677734375</LongitudeDegrees>
            </Position>
            <AltitudeMeters>33.59999847412109375</AltitudeMeters>
            <DistanceMeters>NAN</DistanceMeters>
          </Trackpoint>
          <Trackpoint>
            <Time>2022-07-05T05:59:18.000Z</Time>
            <Position>
              <LatitudeDegrees>44.54972022213041782379150390625</LatitudeDegrees>
              <LongitudeDegrees>-1.2456130050122737884521484375</LongitudeDegrees>
            </Position>
            <AltitudeMeters>33.59999847412109375</AltitudeMeters>
            <DistanceMeters>NAN</DistanceMeters>
          </Trackpoint>
          <Trackpoint>
            <Time>2022-07-05T05:59:19.000Z</Time>
            <Position>
              <LatitudeDegrees>44.54970069229602813720703125</LatitudeDegrees>
              <LongitudeDegrees>-1.2455945648252964019775390625</LongitudeDegrees>
            </Position>
            <AltitudeMeters>33.799999237060546875</AltitudeMeters>
            <DistanceMeters>NAN</DistanceMeters>
          </Trackpoint>
          <Trackpoint>
            <Time>2022-07-05T05:59:21.000Z</Time>
            <Position>
              <LatitudeDegrees>44.54967026598751544952392578125</LatitudeDegrees>
              <LongitudeDegrees>-1.2455496378242969512939453125</LongitudeDegrees>
            </Position>
            <AltitudeMeters>33.799999237060546875</AltitudeMeters>
            <DistanceMeters>NAN</DistanceMeters>
          </Trackpoint>
          <Trackpoint>
            <Time>2022-07-05T05:59:25.000Z</Time>
            <Position>
              <LatitudeDegrees>44.54963875003159046173095703125</LatitudeDegrees>
              <LongitudeDegrees>-1.24545651488006114959716796875</LongitudeDegrees>
            </Position>
            <AltitudeMeters>34</AltitudeMeters>
            <DistanceMeters>NAN</DistanceMeters>
          </Trackpoint>
          <Trackpoint>
            <Time>2022-07-05T05:59:27.000Z</Time>
            <Position>
              <LatitudeDegrees>44.54961645416915416717529296875</LatitudeDegrees>
              <LongitudeDegrees>-1.245406307280063629150390625</LongitudeDegrees>
            </Position>
            <AltitudeMeters>34.200000762939453125</AltitudeMeters>
            <DistanceMeters>NAN</DistanceMeters>
          </Trackpoint>
          <Trackpoint>
            <Time>2022-07-05T05:59:33.000Z</Time>
            <Position>
              <LatitudeDegrees>44.54954554326832294464111328125</LatitudeDegrees>
              <LongitudeDegrees>-1.2452753819525241851806640625</LongitudeDegrees>
            </Position>
            <AltitudeMeters>34.40000152587890625</AltitudeMeters>
            <DistanceMeters>NAN</DistanceMeters>
          </Trackpoint>
          <Trackpoint>
            <Time>2022-07-05T05:59:35.000Z</Time>
            <Position>
              <LatitudeDegrees>44.5495201461017131805419921875</LatitudeDegrees>
              <LongitudeDegrees>-1.2452676706016063690185546875</LongitudeDegrees>
            </Position>
            <AltitudeMeters>34.200000762939453125</AltitudeMeters>
            <DistanceMeters>NAN</DistanceMeters>
          </Trackpoint>
          <Trackpoint>
            <Time>2022-07-05T05:59:36.000Z</Time>
            <Position>
              <LatitudeDegrees>44.54950748942792415618896484375</LatitudeDegrees>
              <LongitudeDegrees>-1.24527496285736560821533203125</LongitudeDegrees>
            </Position>
            <AltitudeMeters>34.200000762939453125</AltitudeMeters>
            <DistanceMeters>NAN</DistanceMeters>
          </Trackpoint>
          <Trackpoint>
            <Time>2022-07-05T05:59:37.000Z</Time>
            <Position>
              <LatitudeDegrees>44.54949575476348400115966796875</LatitudeDegrees>
              <LongitudeDegrees>-1.2452911399304866790771484375</LongitudeDegrees>
            </Position>
            <AltitudeMeters>34</AltitudeMeters>
            <DistanceMeters>NAN</DistanceMeters>
          </Trackpoint>
          <Trackpoint>
            <Time>2022-07-05T05:59:38.000Z</Time>
            <Position>
              <LatitudeDegrees>44.5494825951755046844482421875</LatitudeDegrees>
              <LongitudeDegrees>-1.2453136034309864044189453125</LongitudeDegrees>
            </Position>
            <AltitudeMeters>34</AltitudeMeters>
            <DistanceMeters>NAN</DistanceMeters>
          </Trackpoint>
          <Trackpoint>
            <Time>2022-07-05T05:59:44.000Z</Time>
            <Position>
              <LatitudeDegrees>44.5494634844362735748291015625</LatitudeDegrees>
              <LongitudeDegrees>-1.2454959936439990997314453125</LongitudeDegrees>
            </Position>
            <AltitudeMeters>34</AltitudeMeters>
            <DistanceMeters>NAN</DistanceMeters>
          </Trackpoint>
          <Trackpoint>
            <Time>2022-07-05T05:59:48.000Z</Time>
            <Position>
              <LatitudeDegrees>44.54948334954679012298583984375</LatitudeDegrees>
              <LongitudeDegrees>-1.245654411613941192626953125</LongitudeDegrees>
            </Position>
            <AltitudeMeters>33.799999237060546875</AltitudeMeters>
            <DistanceMeters>NAN</DistanceMeters>
          </Trackpoint>
          <Trackpoint>
            <Time>2022-07-05T05:59:52.000Z</Time>
            <Position>
              <LatitudeDegrees>44.54951385967433452606201171875</LatitudeDegrees>
              <LongitudeDegrees>-1.24579598195850849151611328125</LongitudeDegrees>
            </Position>
            <AltitudeMeters>33.59999847412109375</AltitudeMeters>
            <DistanceMeters>NAN</DistanceMeters>
          </Trackpoint>
          <Trackpoint>
            <Time>2022-07-05T05:59:56.000Z</Time>
            <Position>
              <LatitudeDegrees>44.5495592057704925537109375</LatitudeDegrees>
              <LongitudeDegrees>-1.24594685621559619903564453125</LongitudeDegrees>
            </Position>
            <AltitudeMeters>33.59999847412109375</AltitudeMeters>
            <DistanceMeters>NAN</DistanceMeters>
          </Trackpoint>
          <Trackpoint>
            <Time>2022-07-05T06:00:00.000Z</Time>
            <Position>
              <LatitudeDegrees>44.5496074855327606201171875</LatitudeDegrees>
              <LongitudeDegrees>-1.2460751831531524658203125</LongitudeDegrees>
            </Position>
            <AltitudeMeters>33.59999847412109375</AltitudeMeters>
            <DistanceMeters>NAN</DistanceMeters>
          </Trackpoint>
          <Trackpoint>
            <Time>2022-07-05T06:00:07.000Z</Time>
            <Position>
              <LatitudeDegrees>44.54967982135713100433349609375</LatitudeDegrees>
              <LongitudeDegrees>-1.2463030032813549041748046875</LongitudeDegrees>
            </Position>
            <AltitudeMeters>33.40000152587890625</AltitudeMeters>
            <DistanceMeters>NAN</DistanceMeters>
          </Trackpoint>
          <Trackpoint>
            <Time>2022-07-05T06:00:12.000Z</Time>
            <Position>
              <LatitudeDegrees>44.5496421866118907928466796875</LatitudeDegrees>
              <LongitudeDegrees>-1.24642982147634029388427734375</LongitudeDegrees>
            </Position>
            <AltitudeMeters>33.40000152587890625</AltitudeMeters>
            <DistanceMeters>NAN</DistanceMeters>
          </Trackpoint>
          <Trackpoint>
            <Time>2022-07-05T06:00:19.000Z</Time>
            <Position>
              <LatitudeDegrees>44.549491815268993377685546875</LatitudeDegrees>
              <LongitudeDegrees>-1.24653576873242855072021484375</LongitudeDegrees>
            </Position>
            <AltitudeMeters>33.59999847412109375</AltitudeMeters>
            <DistanceMeters>NAN</DistanceMeters>
          </Trackpoint>
          <Trackpoint>
            <Time>2022-07-05T06:00:26.000Z</Time>
            <Position>
              <LatitudeDegrees>44.54932786524295806884765625</LatitudeDegrees>
              <LongitudeDegrees>-1.24658220447599887847900390625</LongitudeDegrees>
            </Position>
            <AltitudeMeters>33.40000152587890625</AltitudeMeters>
            <DistanceMeters>NAN</DistanceMeters>
          </Trackpoint>
          <Trackpoint>
            <Time>2022-07-05T06:00:27.000Z</Time>
            <Position>
              <LatitudeDegrees>44.5493139512836933135986328125</LatitudeDegrees>
              <LongitudeDegrees>-1.24658790417015552520751953125</LongitudeDegrees>
            </Position>
            <AltitudeMeters>33.40000152587890625</AltitudeMeters>
            <DistanceMeters>NAN</DistanceMeters>
          </Trackpoint>
          <Trackpoint>
            <Time>2022-07-05T06:00:31.000Z</Time>
            <Position>
              <LatitudeDegrees>44.54926349222660064697265625</LatitudeDegrees>
              <LongitudeDegrees>-1.24662780202925205230712890625</LongitudeDegrees>
            </Position>
            <AltitudeMeters>33.40000152587890625</AltitudeMeters>
            <DistanceMeters>NAN</DistanceMeters>
          </Trackpoint>
          <Trackpoint>
            <Time>2022-07-05T06:00:33.000Z</Time>
            <Position>
              <LatitudeDegrees>44.5492556132376194000244140625</LatitudeDegrees>
              <LongitudeDegrees>-1.246653534471988677978515625</LongitudeDegrees>
            </Position>
            <AltitudeMeters>33.40000152587890625</AltitudeMeters>
            <DistanceMeters>NAN</DistanceMeters>
          </Trackpoint>
          <Trackpoint>
            <Time>2022-07-05T06:00:35.000Z</Time>
            <Position>
              <LatitudeDegrees>44.5492556132376194000244140625</LatitudeDegrees>
              <LongitudeDegrees>-1.24665931798517704010009765625</LongitudeDegrees>
            </Position>
            <AltitudeMeters>33.40000152587890625</AltitudeMeters>
            <DistanceMeters>NAN</DistanceMeters>
          </Trackpoint>
          <Trackpoint>
            <Time>2022-07-05T06:32:49.000Z</Time>
            <Position>
              <LatitudeDegrees>44.54920540563762187957763671875</LatitudeDegrees>
              <LongitudeDegrees>-1.2466674484312534332275390625</LongitudeDegrees>
            </Position>
            <AltitudeMeters>35.59999847412109375</AltitudeMeters>
            <DistanceMeters>NAN</DistanceMeters>
          </Trackpoint>
          <Trackpoint>
            <Time>2022-07-05T06:32:50.000Z</Time>
            <Position>
              <LatitudeDegrees>44.549179337918758392333984375</LatitudeDegrees>
              <LongitudeDegrees>-1.24666149728000164031982421875</LongitudeDegrees>
            </Position>
            <AltitudeMeters>35.59999847412109375</AltitudeMeters>
            <DistanceMeters>NAN</DistanceMeters>
          </Trackpoint>
          <Trackpoint>
            <Time>2022-07-05T06:32:52.000Z</Time>
            <Position>
              <LatitudeDegrees>44.54912477172911167144775390625</LatitudeDegrees>
              <LongitudeDegrees>-1.24665596522390842437744140625</LongitudeDegrees>
            </Position>
            <AltitudeMeters>34.200000762939453125</AltitudeMeters>
            <DistanceMeters>NAN</DistanceMeters>
          </Trackpoint>
          <Trackpoint>
            <Time>2022-07-05T06:32:56.000Z</Time>
            <Position>
              <LatitudeDegrees>44.54902167432010173797607421875</LatitudeDegrees>
              <LongitudeDegrees>-1.2466456554830074310302734375</LongitudeDegrees>
            </Position>
            <AltitudeMeters>33.59999847412109375</AltitudeMeters>
            <DistanceMeters>NAN</DistanceMeters>
          </Trackpoint>
          <Trackpoint>
            <Time>2022-07-05T06:32:58.000Z</Time>
            <Position>
              <LatitudeDegrees>44.5489637553691864013671875</LatitudeDegrees>
              <LongitudeDegrees>-1.24664389528334140777587890625</LongitudeDegrees>
            </Position>
            <AltitudeMeters>33.59999847412109375</AltitudeMeters>
            <DistanceMeters>NAN</DistanceMeters>
          </Trackpoint>
          <Trackpoint>
            <Time>2022-07-05T06:33:00.000Z</Time>
            <Position>
              <LatitudeDegrees>44.54891882836818695068359375</LatitudeDegrees>
              <LongitudeDegrees>-1.246632747352123260498046875</LongitudeDegrees>
            </Position>
            <AltitudeMeters>33.40000152587890625</AltitudeMeters>
            <DistanceMeters>NAN</DistanceMeters>
          </Trackpoint>
          <Trackpoint>
            <Time>2022-07-05T06:33:07.000Z</Time>
            <Position>
              <LatitudeDegrees>44.5487922616302967071533203125</LatitudeDegrees>
              <LongitudeDegrees>-1.246615312993526458740234375</LongitudeDegrees>
            </Position>
            <AltitudeMeters>33.40000152587890625</AltitudeMeters>
            <DistanceMeters>NAN</DistanceMeters>
          </Trackpoint>
          <Trackpoint>
            <Time>2022-07-05T06:33:14.000Z</Time>
            <Position>
              <LatitudeDegrees>44.5486581511795520782470703125</LatitudeDegrees>
              <LongitudeDegrees>-1.2467532791197299957275390625</LongitudeDegrees>
            </Position>
            <AltitudeMeters>33.200000762939453125</AltitudeMeters>
            <DistanceMeters>NAN</DistanceMeters>
          </Trackpoint>
          <Trackpoint>
            <Time>2022-07-05T06:33:16.000Z</Time>
            <Position>
              <LatitudeDegrees>44.5486145652830600738525390625</LatitudeDegrees>
              <LongitudeDegrees>-1.246799714863300323486328125</LongitudeDegrees>
            </Position>
            <AltitudeMeters>33.200000762939453125</AltitudeMeters>
            <DistanceMeters>NAN</DistanceMeters>
          </Trackpoint>
          <Trackpoint>
            <Time>2022-07-05T06:33:17.000Z</Time>
            <Position>
              <LatitudeDegrees>44.54859268851578235626220703125</LatitudeDegrees>
              <LongitudeDegrees>-1.24681874178349971771240234375</LongitudeDegrees>
            </Position>
            <AltitudeMeters>33.200000762939453125</AltitudeMeters>
            <DistanceMeters>NAN</DistanceMeters>
          </Trackpoint>
          <Trackpoint>
            <Time>2022-07-05T06:33:21.000Z</Time>
            <Position>
              <LatitudeDegrees>44.54851440154016017913818359375</LatitudeDegrees>
              <LongitudeDegrees>-1.24683223664760589599609375</LongitudeDegrees>
            </Position>
            <AltitudeMeters>33.200000762939453125</AltitudeMeters>
            <DistanceMeters>NAN</DistanceMeters>
          </Trackpoint>
          <Trackpoint>
            <Time>2022-07-05T06:33:28.000Z</Time>
            <Position>
              <LatitudeDegrees>44.54837459139525890350341796875</LatitudeDegrees>
              <LongitudeDegrees>-1.2467844597995281219482421875</LongitudeDegrees>
            </Position>
            <AltitudeMeters>33</AltitudeMeters>
            <DistanceMeters>NAN</DistanceMeters>
          </Trackpoint>
          <Trackpoint>
            <Time>2022-07-05T06:33:30.000Z</Time>
            <Position>
              <LatitudeDegrees>44.54834475181996822357177734375</LatitudeDegrees>
              <LongitudeDegrees>-1.2467623315751552581787109375</LongitudeDegrees>
            </Position>
            <AltitudeMeters>33.200000762939453125</AltitudeMeters>
            <DistanceMeters>NAN</DistanceMeters>
          </Trackpoint>
          <Trackpoint>
            <Time>2022-07-05T06:33:38.000Z</Time>
            <Position>
              <LatitudeDegrees>44.548245258629322052001953125</LatitudeDegrees>
              <LongitudeDegrees>-1.24667624942958354949951171875</LongitudeDegrees>
            </Position>
            <AltitudeMeters>33.200000762939453125</AltitudeMeters>
            <DistanceMeters>NAN</DistanceMeters>
          </Trackpoint>
          <Trackpoint>
            <Time>2022-07-05T06:33:42.000Z</Time>
            <Position>
              <LatitudeDegrees>44.54823796637356281280517578125</LatitudeDegrees>
              <LongitudeDegrees>-1.24666987918317317962646484375</LongitudeDegrees>
            </Position>
            <AltitudeMeters>33.200000762939453125</AltitudeMeters>
            <DistanceMeters>NAN</DistanceMeters>
          </Trackpoint>
          <Trackpoint>
            <Time>2022-07-05T06:33:43.000Z</Time>
            <Position>
              <LatitudeDegrees>44.54823796637356281280517578125</LatitudeDegrees>
              <LongitudeDegrees>-1.24666987918317317962646484375</LongitudeDegrees>
            </Position>
            <AltitudeMeters>33.200000762939453125</AltitudeMeters>
            <DistanceMeters>NAN</DistanceMeters>
          </Trackpoint>
          <Trackpoint>
            <Time>2022-07-05T06:45:48.000Z</Time>
            <Position>
              <LatitudeDegrees>44.548218436539173126220703125</LatitudeDegrees>
              <LongitudeDegrees>-1.24652168713510036468505859375</LongitudeDegrees>
            </Position>
            <AltitudeMeters>33</AltitudeMeters>
            <DistanceMeters>NAN</DistanceMeters>
          </Trackpoint>
          <Trackpoint>
            <Time>2022-07-05T06:45:49.000Z</Time>
            <Position>
              <LatitudeDegrees>44.54822170548141002655029296875</LatitudeDegrees>
              <LongitudeDegrees>-1.24653141014277935028076171875</LongitudeDegrees>
            </Position>
            <AltitudeMeters>33</AltitudeMeters>
            <DistanceMeters>NAN</DistanceMeters>
          </Trackpoint>
          <Trackpoint>
            <Time>2022-07-05T06:45:50.000Z</Time>
            <Position>
              <LatitudeDegrees>44.54822170548141002655029296875</LatitudeDegrees>
              <LongitudeDegrees>-1.24653141014277935028076171875</LongitudeDegrees>
            </Position>
            <AltitudeMeters>33</AltitudeMeters>
            <DistanceMeters>NAN</DistanceMeters>
          </Trackpoint>
          <Trackpoint>
            <Time>2022-07-05T06:45:51.000Z</Time>
            <Position>
              <LatitudeDegrees>44.54822170548141002655029296875</LatitudeDegrees>
              <LongitudeDegrees>-1.24653141014277935028076171875</LongitudeDegrees>
            </Position>
            <AltitudeMeters>33.200000762939453125</AltitudeMeters>
            <DistanceMeters>NAN</DistanceMeters>
          </Trackpoint>
          <Trackpoint>
            <Time>2022-07-05T06:56:06.000Z</Time>
            <Position>
              <LatitudeDegrees>44.5482212863862514495849609375</LatitudeDegrees>
              <LongitudeDegrees>-1.24648153781890869140625</LongitudeDegrees>
            </Position>
            <AltitudeMeters>30.799999237060546875</AltitudeMeters>
            <DistanceMeters>NAN</DistanceMeters>
          </Trackpoint>
          <Trackpoint>
            <Time>2022-07-05T06:56:09.000Z</Time>
            <Position>
              <LatitudeDegrees>44.54823008738458156585693359375</LatitudeDegrees>
              <LongitudeDegrees>-1.24648698605597019195556640625</LongitudeDegrees>
            </Position>
            <AltitudeMeters>30.799999237060546875</AltitudeMeters>
            <DistanceMeters>NAN</DistanceMeters>
          </Trackpoint>
          <Trackpoint>
            <Time>2022-07-05T06:56:12.000Z</Time>
            <Position>
              <LatitudeDegrees>44.5482395589351654052734375</LatitudeDegrees>
              <LongitudeDegrees>-1.246479861438274383544921875</LongitudeDegrees>
            </Position>
            <AltitudeMeters>30.799999237060546875</AltitudeMeters>
            <DistanceMeters>NAN</DistanceMeters>
          </Trackpoint>
          <Trackpoint>
            <Time>2022-07-05T06:56:21.000Z</Time>
            <Position>
              <LatitudeDegrees>44.5482556521892547607421875</LatitudeDegrees>
              <LongitudeDegrees>-1.24646385200321674346923828125</LongitudeDegrees>
            </Position>
            <AltitudeMeters>30.6000003814697265625</AltitudeMeters>
            <DistanceMeters>NAN</DistanceMeters>
          </Trackpoint>
          <Trackpoint>
            <Time>2022-07-05T06:56:22.000Z</Time>
            <Position>
              <LatitudeDegrees>44.54825841821730136871337890625</LatitudeDegrees>
              <LongitudeDegrees>-1.2464582361280918121337890625</LongitudeDegrees>
            </Position>
            <AltitudeMeters>30.6000003814697265625</AltitudeMeters>
            <DistanceMeters>NAN</DistanceMeters>
          </Trackpoint>
          <Trackpoint>
            <Time>2022-07-05T06:56:23.000Z</Time>
            <Position>
              <LatitudeDegrees>44.54825607128441333770751953125</LatitudeDegrees>
              <LongitudeDegrees>-1.24645295552909374237060546875</LongitudeDegrees>
            </Position>
            <AltitudeMeters>30.6000003814697265625</AltitudeMeters>
            <DistanceMeters>NAN</DistanceMeters>
          </Trackpoint>
          <Trackpoint>
            <Time>2022-07-05T06:56:31.000Z</Time>
            <Position>
              <LatitudeDegrees>44.54826143570244312286376953125</LatitudeDegrees>
              <LongitudeDegrees>-1.246432252228260040283203125</LongitudeDegrees>
            </Position>
            <AltitudeMeters>30.799999237060546875</AltitudeMeters>
            <DistanceMeters>NAN</DistanceMeters>
          </Trackpoint>
          <Trackpoint>
            <Time>2022-07-05T06:56:33.000Z</Time>
            <Position>
              <LatitudeDegrees>44.54826042987406253814697265625</LatitudeDegrees>
              <LongitudeDegrees>-1.2464149855077266693115234375</LongitudeDegrees>
            </Position>
            <AltitudeMeters>30.799999237060546875</AltitudeMeters>
            <DistanceMeters>NAN</DistanceMeters>
          </Trackpoint>
          <Trackpoint>
            <Time>2022-07-05T06:56:34.000Z</Time>
            <Position>
              <LatitudeDegrees>44.5482672192156314849853515625</LatitudeDegrees>
              <LongitudeDegrees>-1.2464131414890289306640625</LongitudeDegrees>
            </Position>
            <AltitudeMeters>30.6000003814697265625</AltitudeMeters>
            <DistanceMeters>NAN</DistanceMeters>
          </Trackpoint>
          <Trackpoint>
            <Time>2022-07-05T06:56:41.000Z</Time>
            <Position>
              <LatitudeDegrees>44.54823461361229419708251953125</LatitudeDegrees>
              <LongitudeDegrees>-1.246310882270336151123046875</LongitudeDegrees>
            </Position>
            <AltitudeMeters>30</AltitudeMeters>
            <DistanceMeters>NAN</DistanceMeters>
          </Trackpoint>
          <Trackpoint>
            <Time>2022-07-05T06:56:43.000Z</Time>
            <Position>
              <LatitudeDegrees>44.5482393912971019744873046875</LatitudeDegrees>
              <LongitudeDegrees>-1.2462637759745121002197265625</LongitudeDegrees>
            </Position>
            <AltitudeMeters>29.799999237060546875</AltitudeMeters>
            <DistanceMeters>NAN</DistanceMeters>
          </Trackpoint>
          <Trackpoint>
            <Time>2022-07-05T06:56:45.000Z</Time>
            <Position>
              <LatitudeDegrees>44.548214413225650787353515625</LatitudeDegrees>
              <LongitudeDegrees>-1.2462414801120758056640625</LongitudeDegrees>
            </Position>
            <AltitudeMeters>29.799999237060546875</AltitudeMeters>
            <DistanceMeters>NAN</DistanceMeters>
          </Trackpoint>
          <Trackpoint>
            <Time>2022-07-05T06:56:55.000Z</Time>
            <Position>
              <LatitudeDegrees>44.54819655977189540863037109375</LatitudeDegrees>
              <LongitudeDegrees>-1.2462134845554828643798828125</LongitudeDegrees>
            </Position>
            <AltitudeMeters>29.799999237060546875</AltitudeMeters>
            <DistanceMeters>NAN</DistanceMeters>
          </Trackpoint>
          <Trackpoint>
            <Time>2022-07-05T06:56:56.000Z</Time>
            <Position>
              <LatitudeDegrees>44.5482323504984378814697265625</LatitudeDegrees>
              <LongitudeDegrees>-1.2462761811912059783935546875</LongitudeDegrees>
            </Position>
            <AltitudeMeters>29.799999237060546875</AltitudeMeters>
            <DistanceMeters>NAN</DistanceMeters>
          </Trackpoint>
          <Trackpoint>
            <Time>2022-07-05T06:57:01.000Z</Time>
            <Position>
              <LatitudeDegrees>44.54823494888842105865478515625</LatitudeDegrees>
              <LongitudeDegrees>-1.246301494538784027099609375</LongitudeDegrees>
            </Position>
            <AltitudeMeters>29.799999237060546875</AltitudeMeters>
            <DistanceMeters>NAN</DistanceMeters>
          </Trackpoint>
          <Trackpoint>
            <Time>2022-07-05T06:57:02.000Z</Time>
            <Position>
              <LatitudeDegrees>44.54823494888842105865478515625</LatitudeDegrees>
              <LongitudeDegrees>-1.24630660749971866607666015625</LongitudeDegrees>
            </Position>
            <AltitudeMeters>29.799999237060546875</AltitudeMeters>
            <DistanceMeters>NAN</DistanceMeters>
          </Trackpoint>
          <Trackpoint>
            <Time>2022-07-05T06:57:04.000Z</Time>
            <Position>
              <LatitudeDegrees>44.54823494888842105865478515625</LatitudeDegrees>
              <LongitudeDegrees>-1.24630660749971866607666015625</LongitudeDegrees>
            </Position>
            <AltitudeMeters>29.6000003814697265625</AltitudeMeters>
            <DistanceMeters>NAN</DistanceMeters>
          </Trackpoint>
          <Trackpoint>
            <Time>2022-07-05T06:57:14.000Z</Time>
            <Position>
              <LatitudeDegrees>44.5481575839221477508544921875</LatitudeDegrees>
              <LongitudeDegrees>-1.2463636882603168487548828125</LongitudeDegrees>
            </Position>
            <AltitudeMeters>29.799999237060546875</AltitudeMeters>
            <DistanceMeters>NAN</DistanceMeters>
          </Trackpoint>
          <Trackpoint>
            <Time>2022-07-05T06:57:16.000Z</Time>
            <Position>
              <LatitudeDegrees>44.54812757670879364013671875</LatitudeDegrees>
              <LongitudeDegrees>-1.2463935278356075286865234375</LongitudeDegrees>
            </Position>
            <AltitudeMeters>29.799999237060546875</AltitudeMeters>
            <DistanceMeters>NAN</DistanceMeters>
          </Trackpoint>
          <Trackpoint>
            <Time>2022-07-05T06:57:22.000Z</Time>
            <Position>
              <LatitudeDegrees>44.548091031610965728759765625</LatitudeDegrees>
              <LongitudeDegrees>-1.24646519310772418975830078125</LongitudeDegrees>
            </Position>
            <AltitudeMeters>29.6000003814697265625</AltitudeMeters>
            <DistanceMeters>NAN</DistanceMeters>
          </Trackpoint>
          <Trackpoint>
            <Time>2022-07-05T07:01:52.000Z</Time>
            <Position>
              <LatitudeDegrees>44.5480985753238201141357421875</LatitudeDegrees>
              <LongitudeDegrees>-1.24642311595380306243896484375</LongitudeDegrees>
            </Position>
            <AltitudeMeters>29.3999996185302734375</AltitudeMeters>
            <DistanceMeters>NAN</DistanceMeters>
          </Trackpoint>
          <Trackpoint>
            <Time>2022-07-05T07:01:55.000Z</Time>
            <Position>
              <LatitudeDegrees>44.5480989105999469757080078125</LatitudeDegrees>
              <LongitudeDegrees>-1.24635756947100162506103515625</LongitudeDegrees>
            </Position>
            <AltitudeMeters>29.6000003814697265625</AltitudeMeters>
            <DistanceMeters>NAN</DistanceMeters>
          </Trackpoint>
          <Trackpoint>
            <Time>2022-07-05T07:01:56.000Z</Time>
            <Position>
              <LatitudeDegrees>44.5480989105999469757080078125</LatitudeDegrees>
              <LongitudeDegrees>-1.24635756947100162506103515625</LongitudeDegrees>
            </Position>
            <AltitudeMeters>29.799999237060546875</AltitudeMeters>
            <DistanceMeters>NAN</DistanceMeters>
          </Trackpoint>
          <Trackpoint>
            <Time>2022-07-05T07:02:00.000Z</Time>
            <Position>
              <LatitudeDegrees>44.5481351204216480255126953125</LatitudeDegrees>
              <LongitudeDegrees>-1.24620518647134304046630859375</LongitudeDegrees>
            </Position>
            <AltitudeMeters>30.200000762939453125</AltitudeMeters>
            <DistanceMeters>NAN</DistanceMeters>
          </Trackpoint>
          <Trackpoint>
            <Time>2022-07-05T07:02:05.000Z</Time>
            <Position>
              <LatitudeDegrees>44.548146687448024749755859375</LatitudeDegrees>
              <LongitudeDegrees>-1.246088929474353790283203125</LongitudeDegrees>
            </Position>
            <AltitudeMeters>30</AltitudeMeters>
            <DistanceMeters>NAN</DistanceMeters>
          </Trackpoint>
          <Trackpoint>
            <Time>2022-07-05T07:02:09.000Z</Time>
            <Position>
              <LatitudeDegrees>44.54815766774117946624755859375</LatitudeDegrees>
              <LongitudeDegrees>-1.24601424671709537506103515625</LongitudeDegrees>
            </Position>
            <AltitudeMeters>29.6000003814697265625</AltitudeMeters>
            <DistanceMeters>NAN</DistanceMeters>
          </Trackpoint>
          <Trackpoint>
            <Time>2022-07-05T07:02:13.000Z</Time>
            <Position>
              <LatitudeDegrees>44.54815532080829143524169921875</LatitudeDegrees>
              <LongitudeDegrees>-1.24601282179355621337890625</LongitudeDegrees>
            </Position>
            <AltitudeMeters>29.200000762939453125</AltitudeMeters>
            <DistanceMeters>NAN</DistanceMeters>
          </Trackpoint>
          <Trackpoint>
            <Time>2022-07-05T07:02:40.000Z</Time>
            <Position>
              <LatitudeDegrees>44.54809295944869518280029296875</LatitudeDegrees>
              <LongitudeDegrees>-1.245928667485713958740234375</LongitudeDegrees>
            </Position>
            <AltitudeMeters>29.6000003814697265625</AltitudeMeters>
            <DistanceMeters>NAN</DistanceMeters>
          </Trackpoint>
          <Trackpoint>
            <Time>2022-07-05T07:02:41.000Z</Time>
            <Position>
              <LatitudeDegrees>44.54807468689978122711181640625</LatitudeDegrees>
              <LongitudeDegrees>-1.24592506326735019683837890625</LongitudeDegrees>
            </Position>
            <AltitudeMeters>29.6000003814697265625</AltitudeMeters>
            <DistanceMeters>NAN</DistanceMeters>
          </Trackpoint>
          <Trackpoint>
            <Time>2022-07-05T07:02:42.000Z</Time>
            <Position>
              <LatitudeDegrees>44.54803638160228729248046875</LatitudeDegrees>
              <LongitudeDegrees>-1.2459093891084194183349609375</LongitudeDegrees>
            </Position>
            <AltitudeMeters>29.3999996185302734375</AltitudeMeters>
            <DistanceMeters>NAN</DistanceMeters>
          </Trackpoint>
          <Trackpoint>
            <Time>2022-07-05T07:02:44.000Z</Time>
            <Position>
              <LatitudeDegrees>44.5480030216276645660400390625</LatitudeDegrees>
              <LongitudeDegrees>-1.24589120037853717803955078125</LongitudeDegrees>
            </Position>
            <AltitudeMeters>29.3999996185302734375</AltitudeMeters>
            <DistanceMeters>NAN</DistanceMeters>
          </Trackpoint>
          <Trackpoint>
            <Time>2022-07-05T07:02:46.000Z</Time>
            <Position>
              <LatitudeDegrees>44.54799422062933444976806640625</LatitudeDegrees>
              <LongitudeDegrees>-1.245890446007251739501953125</LongitudeDegrees>
            </Position>
            <AltitudeMeters>29.200000762939453125</AltitudeMeters>
            <DistanceMeters>NAN</DistanceMeters>
          </Trackpoint>
          <Trackpoint>
            <Time>2022-07-05T07:02:54.000Z</Time>
            <Position>
              <LatitudeDegrees>44.54785994254052639007568359375</LatitudeDegrees>
              <LongitudeDegrees>-1.2458413280546665191650390625</LongitudeDegrees>
            </Position>
            <AltitudeMeters>29.200000762939453125</AltitudeMeters>
            <DistanceMeters>NAN</DistanceMeters>
          </Trackpoint>
          <Trackpoint>
            <Time>2022-07-05T07:03:01.000Z</Time>
            <Position>
              <LatitudeDegrees>44.5477594435214996337890625</LatitudeDegrees>
              <LongitudeDegrees>-1.24587024562060832977294921875</LongitudeDegrees>
            </Position>
            <AltitudeMeters>29.3999996185302734375</AltitudeMeters>
            <DistanceMeters>NAN</DistanceMeters>
          </Trackpoint>
          <Trackpoint>
            <Time>2022-07-05T07:03:08.000Z</Time>
            <Position>
              <LatitudeDegrees>44.547665230929851531982421875</LatitudeDegrees>
              <LongitudeDegrees>-1.2458976544439792633056640625</LongitudeDegrees>
            </Position>
            <AltitudeMeters>29.799999237060546875</AltitudeMeters>
            <DistanceMeters>NAN</DistanceMeters>
          </Trackpoint>
          <Trackpoint>
            <Time>2022-07-05T07:03:10.000Z</Time>
            <Position>
              <LatitudeDegrees>44.54762692563235759735107421875</LatitudeDegrees>
              <LongitudeDegrees>-1.24590561725199222564697265625</LongitudeDegrees>
            </Position>
            <AltitudeMeters>29.799999237060546875</AltitudeMeters>
            <DistanceMeters>NAN</DistanceMeters>
          </Trackpoint>
          <Trackpoint>
            <Time>2022-07-05T07:03:17.000Z</Time>
            <Position>
              <LatitudeDegrees>44.54748594202101230621337890625</LatitudeDegrees>
              <LongitudeDegrees>-1.2459382228553295135498046875</LongitudeDegrees>
            </Position>
            <AltitudeMeters>29.6000003814697265625</AltitudeMeters>
            <DistanceMeters>NAN</DistanceMeters>
          </Trackpoint>
          <Trackpoint>
            <Time>2022-07-05T07:03:24.000Z</Time>
            <Position>
              <LatitudeDegrees>44.547295086085796356201171875</LatitudeDegrees>
              <LongitudeDegrees>-1.24608121812343597412109375</LongitudeDegrees>
            </Position>
            <AltitudeMeters>29.799999237060546875</AltitudeMeters>
            <DistanceMeters>NAN</DistanceMeters>
          </Trackpoint>
          <Trackpoint>
            <Time>2022-07-05T07:03:33.000Z</Time>
            <Position>
              <LatitudeDegrees>44.54706869088113307952880859375</LatitudeDegrees>
              <LongitudeDegrees>-1.24632990919053554534912109375</LongitudeDegrees>
            </Position>
            <AltitudeMeters>29.6000003814697265625</AltitudeMeters>
            <DistanceMeters>NAN</DistanceMeters>
          </Trackpoint>
          <Trackpoint>
            <Time>2022-07-05T07:03:36.000Z</Time>
            <Position>
              <LatitudeDegrees>44.54700909554958343505859375</LatitudeDegrees>
              <LongitudeDegrees>-1.246430240571498870849609375</LongitudeDegrees>
            </Position>
            <AltitudeMeters>29.3999996185302734375</AltitudeMeters>
            <DistanceMeters>NAN</DistanceMeters>
          </Trackpoint>
          <Trackpoint>
            <Time>2022-07-05T07:03:38.000Z</Time>
            <Position>
              <LatitudeDegrees>44.5469764061272144317626953125</LatitudeDegrees>
              <LongitudeDegrees>-1.24651481397449970245361328125</LongitudeDegrees>
            </Position>
            <AltitudeMeters>29.3999996185302734375</AltitudeMeters>
            <DistanceMeters>NAN</DistanceMeters>
          </Trackpoint>
          <Trackpoint>
            <Time>2022-07-05T07:03:43.000Z</Time>
            <Position>
              <LatitudeDegrees>44.5469358377158641815185546875</LatitudeDegrees>
              <LongitudeDegrees>-1.24668831937015056610107421875</LongitudeDegrees>
            </Position>
            <AltitudeMeters>29.3999996185302734375</AltitudeMeters>
            <DistanceMeters>NAN</DistanceMeters>
          </Trackpoint>
          <Trackpoint>
            <Time>2022-07-05T07:03:49.000Z</Time>
            <Position>
              <LatitudeDegrees>44.546877332031726837158203125</LatitudeDegrees>
              <LongitudeDegrees>-1.24694220721721649169921875</LongitudeDegrees>
            </Position>
            <AltitudeMeters>29.3999996185302734375</AltitudeMeters>
            <DistanceMeters>NAN</DistanceMeters>
          </Trackpoint>
          <Trackpoint>
            <Time>2022-07-05T07:03:56.000Z</Time>
            <Position>
              <LatitudeDegrees>44.54689443111419677734375</LatitudeDegrees>
              <LongitudeDegrees>-1.24722861684858798980712890625</LongitudeDegrees>
            </Position>
            <AltitudeMeters>29.200000762939453125</AltitudeMeters>
            <DistanceMeters>NAN</DistanceMeters>
          </Trackpoint>
          <Trackpoint>
            <Time>2022-07-05T07:04:02.000Z</Time>
            <Position>
              <LatitudeDegrees>44.546859227120876312255859375</LatitudeDegrees>
              <LongitudeDegrees>-1.24744780361652374267578125</LongitudeDegrees>
            </Position>
            <AltitudeMeters>29.200000762939453125</AltitudeMeters>
            <DistanceMeters>NAN</DistanceMeters>
          </Trackpoint>
          <Trackpoint>
            <Time>2022-07-05T07:04:10.000Z</Time>
            <Position>
              <LatitudeDegrees>44.54680181108415126800537109375</LatitudeDegrees>
              <LongitudeDegrees>-1.247780062258243560791015625</LongitudeDegrees>
            </Position>
            <AltitudeMeters>29.200000762939453125</AltitudeMeters>
            <DistanceMeters>NAN</DistanceMeters>
          </Trackpoint>
          <Trackpoint>
            <Time>2022-07-05T07:04:12.000Z</Time>
            <Position>
              <LatitudeDegrees>44.54676241613924503326416015625</LatitudeDegrees>
              <LongitudeDegrees>-1.24786362983286380767822265625</LongitudeDegrees>
            </Position>
            <AltitudeMeters>29</AltitudeMeters>
            <DistanceMeters>NAN</DistanceMeters>
          </Trackpoint>
          <Trackpoint>
            <Time>2022-07-05T07:04:15.000Z</Time>
            <Position>
              <LatitudeDegrees>44.54670877195894718170166015625</LatitudeDegrees>
              <LongitudeDegrees>-1.247934289276599884033203125</LongitudeDegrees>
            </Position>
            <AltitudeMeters>28.799999237060546875</AltitudeMeters>
            <DistanceMeters>NAN</DistanceMeters>
          </Trackpoint>
          <Trackpoint>
            <Time>2022-07-05T07:04:16.000Z</Time>
            <Position>
              <LatitudeDegrees>44.54664791934192180633544921875</LatitudeDegrees>
              <LongitudeDegrees>-1.24796639196574687957763671875</LongitudeDegrees>
            </Position>
            <AltitudeMeters>28.799999237060546875</AltitudeMeters>
            <DistanceMeters>NAN</DistanceMeters>
          </Trackpoint>
          <Trackpoint>
            <Time>2022-07-05T07:04:19.000Z</Time>
            <Position>
              <LatitudeDegrees>44.54657348804175853729248046875</LatitudeDegrees>
              <LongitudeDegrees>-1.248022131621837615966796875</LongitudeDegrees>
            </Position>
            <AltitudeMeters>28.799999237060546875</AltitudeMeters>
            <DistanceMeters>NAN</DistanceMeters>
          </Trackpoint>
          <Trackpoint>
            <Time>2022-07-05T07:04:21.000Z</Time>
            <Position>
              <LatitudeDegrees>44.5465148985385894775390625</LatitudeDegrees>
              <LongitudeDegrees>-1.248055659234523773193359375</LongitudeDegrees>
            </Position>
            <AltitudeMeters>28.799999237060546875</AltitudeMeters>
            <DistanceMeters>NAN</DistanceMeters>
          </Trackpoint>
          <Trackpoint>
            <Time>2022-07-05T07:04:23.000Z</Time>
            <Position>
              <LatitudeDegrees>44.5464580692350864410400390625</LatitudeDegrees>
              <LongitudeDegrees>-1.24807787127792835235595703125</LongitudeDegrees>
            </Position>
            <AltitudeMeters>28.799999237060546875</AltitudeMeters>
            <DistanceMeters>NAN</DistanceMeters>
          </Trackpoint>
          <Trackpoint>
            <Time>2022-07-05T07:04:29.000Z</Time>
            <Position>
              <LatitudeDegrees>44.5463071949779987335205078125</LatitudeDegrees>
              <LongitudeDegrees>-1.24813235364854335784912109375</LongitudeDegrees>
            </Position>
            <AltitudeMeters>28.799999237060546875</AltitudeMeters>
            <DistanceMeters>NAN</DistanceMeters>
          </Trackpoint>
          <Trackpoint>
            <Time>2022-07-05T07:04:30.000Z</Time>
            <Position>
              <LatitudeDegrees>44.54626687802374362945556640625</LatitudeDegrees>
              <LongitudeDegrees>-1.24814945273101329803466796875</LongitudeDegrees>
            </Position>
            <AltitudeMeters>29</AltitudeMeters>
            <DistanceMeters>NAN</DistanceMeters>
          </Trackpoint>
          <Trackpoint>
            <Time>2022-07-05T07:04:38.000Z</Time>
            <Position>
              <LatitudeDegrees>44.54609571956098079681396484375</LatitudeDegrees>
              <LongitudeDegrees>-1.2481860816478729248046875</LongitudeDegrees>
            </Position>
            <AltitudeMeters>29</AltitudeMeters>
            <DistanceMeters>NAN</DistanceMeters>
          </Trackpoint>
          <Trackpoint>
            <Time>2022-07-05T07:04:46.000Z</Time>
            <Position>
              <LatitudeDegrees>44.54585130326449871063232421875</LatitudeDegrees>
              <LongitudeDegrees>-1.248215921223163604736328125</LongitudeDegrees>
            </Position>
            <AltitudeMeters>28.799999237060546875</AltitudeMeters>
            <DistanceMeters>NAN</DistanceMeters>
          </Trackpoint>
          <Trackpoint>
            <Time>2022-07-05T07:04:48.000Z</Time>
            <Position>
              <LatitudeDegrees>44.54579271376132965087890625</LatitudeDegrees>
              <LongitudeDegrees>-1.24822472222149372100830078125</LongitudeDegrees>
            </Position>
            <AltitudeMeters>28.799999237060546875</AltitudeMeters>
            <DistanceMeters>NAN</DistanceMeters>
          </Trackpoint>
          <Trackpoint>
            <Time>2022-07-05T07:04:54.000Z</Time>
            <Position>
              <LatitudeDegrees>44.54565851949155330657958984375</LatitudeDegrees>
              <LongitudeDegrees>-1.24825674109160900115966796875</LongitudeDegrees>
            </Position>
            <AltitudeMeters>29.200000762939453125</AltitudeMeters>
            <DistanceMeters>NAN</DistanceMeters>
          </Trackpoint>
          <Trackpoint>
            <Time>2022-07-05T07:04:56.000Z</Time>
            <Position>
              <LatitudeDegrees>44.545578472316265106201171875</LatitudeDegrees>
              <LongitudeDegrees>-1.24827736057341098785400390625</LongitudeDegrees>
            </Position>
            <AltitudeMeters>29.200000762939453125</AltitudeMeters>
            <DistanceMeters>NAN</DistanceMeters>
          </Trackpoint>
          <Trackpoint>
            <Time>2022-07-05T07:04:59.000Z</Time>
            <Position>
              <LatitudeDegrees>44.54547177068889141082763671875</LatitudeDegrees>
              <LongitudeDegrees>-1.24827853403985500335693359375</LongitudeDegrees>
            </Position>
            <AltitudeMeters>29.200000762939453125</AltitudeMeters>
            <DistanceMeters>NAN</DistanceMeters>
          </Trackpoint>
          <Trackpoint>
            <Time>2022-07-05T07:05:00.000Z</Time>
            <Position>
              <LatitudeDegrees>44.54544712789356708526611328125</LatitudeDegrees>
              <LongitudeDegrees>-1.248286329209804534912109375</LongitudeDegrees>
            </Position>
            <AltitudeMeters>29.200000762939453125</AltitudeMeters>
            <DistanceMeters>NAN</DistanceMeters>
          </Trackpoint>
          <Trackpoint>
            <Time>2022-07-05T07:05:01.000Z</Time>
            <Position>
              <LatitudeDegrees>44.54541946761310100555419921875</LatitudeDegrees>
              <LongitudeDegrees>-1.248292364180088043212890625</LongitudeDegrees>
            </Position>
            <AltitudeMeters>29.200000762939453125</AltitudeMeters>
            <DistanceMeters>NAN</DistanceMeters>
          </Trackpoint>
          <Trackpoint>
            <Time>2022-07-05T07:05:04.000Z</Time>
            <Position>
              <LatitudeDegrees>44.54531653784215450286865234375</LatitudeDegrees>
              <LongitudeDegrees>-1.24829764477908611297607421875</LongitudeDegrees>
            </Position>
            <AltitudeMeters>29.200000762939453125</AltitudeMeters>
            <DistanceMeters>NAN</DistanceMeters>
          </Trackpoint>
          <Trackpoint>
            <Time>2022-07-05T07:05:12.000Z</Time>
            <Position>
              <LatitudeDegrees>44.54504781402647495269775390625</LatitudeDegrees>
              <LongitudeDegrees>-1.24826294369995594024658203125</LongitudeDegrees>
            </Position>
            <AltitudeMeters>29</AltitudeMeters>
            <DistanceMeters>NAN</DistanceMeters>
          </Trackpoint>
          <Trackpoint>
            <Time>2022-07-05T07:05:16.000Z</Time>
            <Position>
              <LatitudeDegrees>44.54489543102681636810302734375</LatitudeDegrees>
              <LongitudeDegrees>-1.2482928670942783355712890625</LongitudeDegrees>
            </Position>
            <AltitudeMeters>29.200000762939453125</AltitudeMeters>
            <DistanceMeters>NAN</DistanceMeters>
          </Trackpoint>
          <Trackpoint>
            <Time>2022-07-05T07:05:18.000Z</Time>
            <Position>
              <LatitudeDegrees>44.544834159314632415771484375</LatitudeDegrees>
              <LongitudeDegrees>-1.24831591732800006866455078125</LongitudeDegrees>
            </Position>
            <AltitudeMeters>29.200000762939453125</AltitudeMeters>
            <DistanceMeters>NAN</DistanceMeters>
          </Trackpoint>
          <Trackpoint>
            <Time>2022-07-05T07:05:19.000Z</Time>
            <Position>
              <LatitudeDegrees>44.54479417763650417327880859375</LatitudeDegrees>
              <LongitudeDegrees>-1.24833829700946807861328125</LongitudeDegrees>
            </Position>
            <AltitudeMeters>29.200000762939453125</AltitudeMeters>
            <DistanceMeters>NAN</DistanceMeters>
          </Trackpoint>
          <Trackpoint>
            <Time>2022-07-05T07:05:27.000Z</Time>
            <Position>
              <LatitudeDegrees>44.544568955898284912109375</LatitudeDegrees>
              <LongitudeDegrees>-1.24836754985153675079345703125</LongitudeDegrees>
            </Position>
            <AltitudeMeters>29.200000762939453125</AltitudeMeters>
            <DistanceMeters>NAN</DistanceMeters>
          </Trackpoint>
          <Trackpoint>
            <Time>2022-07-05T07:05:33.000Z</Time>
            <Position>
              <LatitudeDegrees>44.5443404652178287506103515625</LatitudeDegrees>
              <LongitudeDegrees>-1.24841851182281970977783203125</LongitudeDegrees>
            </Position>
            <AltitudeMeters>29.3999996185302734375</AltitudeMeters>
            <DistanceMeters>NAN</DistanceMeters>
          </Trackpoint>
          <Trackpoint>
            <Time>2022-07-05T07:05:39.000Z</Time>
            <Position>
              <LatitudeDegrees>44.544146172702312469482421875</LatitudeDegrees>
              <LongitudeDegrees>-1.24844835139811038970947265625</LongitudeDegrees>
            </Position>
            <AltitudeMeters>29.3999996185302734375</AltitudeMeters>
            <DistanceMeters>NAN</DistanceMeters>
          </Trackpoint>
          <Trackpoint>
            <Time>2022-07-05T07:05:44.000Z</Time>
            <Position>
              <LatitudeDegrees>44.5439927838742733001708984375</LatitudeDegrees>
              <LongitudeDegrees>-1.24848623760044574737548828125</LongitudeDegrees>
            </Position>
            <AltitudeMeters>29.3999996185302734375</AltitudeMeters>
            <DistanceMeters>NAN</DistanceMeters>
          </Trackpoint>
          <Trackpoint>
            <Time>2022-07-05T07:05:51.000Z</Time>
            <Position>
              <LatitudeDegrees>44.543808884918689727783203125</LatitudeDegrees>
              <LongitudeDegrees>-1.248557902872562408447265625</LongitudeDegrees>
            </Position>
            <AltitudeMeters>29.3999996185302734375</AltitudeMeters>
            <DistanceMeters>NAN</DistanceMeters>
          </Trackpoint>
          <Trackpoint>
            <Time>2022-07-05T07:05:57.000Z</Time>
            <Position>
              <LatitudeDegrees>44.5436387322843074798583984375</LatitudeDegrees>
              <LongitudeDegrees>-1.24858480878174304962158203125</LongitudeDegrees>
            </Position>
            <AltitudeMeters>29.3999996185302734375</AltitudeMeters>
            <DistanceMeters>NAN</DistanceMeters>
          </Trackpoint>
          <Trackpoint>
            <Time>2022-07-05T07:05:58.000Z</Time>
            <Position>
              <LatitudeDegrees>44.543615765869617462158203125</LatitudeDegrees>
              <LongitudeDegrees>-1.24858849681913852691650390625</LongitudeDegrees>
            </Position>
            <AltitudeMeters>29.6000003814697265625</AltitudeMeters>
            <DistanceMeters>NAN</DistanceMeters>
          </Trackpoint>
          <Trackpoint>
            <Time>2022-07-05T07:06:06.000Z</Time>
            <Position>
              <LatitudeDegrees>44.5433815754950046539306640625</LatitudeDegrees>
              <LongitudeDegrees>-1.24864540994167327880859375</LongitudeDegrees>
            </Position>
            <AltitudeMeters>29.799999237060546875</AltitudeMeters>
            <DistanceMeters>NAN</DistanceMeters>
          </Trackpoint>
          <Trackpoint>
            <Time>2022-07-05T07:06:08.000Z</Time>
            <Position>
              <LatitudeDegrees>44.54330907203257083892822265625</LatitudeDegrees>
              <LongitudeDegrees>-1.24865722842514514923095703125</LongitudeDegrees>
            </Position>
            <AltitudeMeters>29.799999237060546875</AltitudeMeters>
            <DistanceMeters>NAN</DistanceMeters>
          </Trackpoint>
          <Trackpoint>
            <Time>2022-07-05T07:06:11.000Z</Time>
            <Position>
              <LatitudeDegrees>44.543172530829906463623046875</LatitudeDegrees>
              <LongitudeDegrees>-1.2486200965940952301025390625</LongitudeDegrees>
            </Position>
            <AltitudeMeters>29.799999237060546875</AltitudeMeters>
            <DistanceMeters>NAN</DistanceMeters>
          </Trackpoint>
          <Trackpoint>
            <Time>2022-07-05T07:06:19.000Z</Time>
            <Position>
              <LatitudeDegrees>44.5428910665214061737060546875</LatitudeDegrees>
              <LongitudeDegrees>-1.2486284784972667694091796875</LongitudeDegrees>
            </Position>
            <AltitudeMeters>29.799999237060546875</AltitudeMeters>
            <DistanceMeters>NAN</DistanceMeters>
          </Trackpoint>
          <Trackpoint>
            <Time>2022-07-05T07:06:24.000Z</Time>
            <Position>
              <LatitudeDegrees>44.5427482388913631439208984375</LatitudeDegrees>
              <LongitudeDegrees>-1.24859788455069065093994140625</LongitudeDegrees>
            </Position>
            <AltitudeMeters>29.799999237060546875</AltitudeMeters>
            <DistanceMeters>NAN</DistanceMeters>
          </Trackpoint>
          <Trackpoint>
            <Time>2022-07-05T07:06:30.000Z</Time>
            <Position>
              <LatitudeDegrees>44.5426181517541408538818359375</LatitudeDegrees>
              <LongitudeDegrees>-1.24855580739676952362060546875</LongitudeDegrees>
            </Position>
            <AltitudeMeters>29.799999237060546875</AltitudeMeters>
            <DistanceMeters>NAN</DistanceMeters>
          </Trackpoint>
          <Trackpoint>
            <Time>2022-07-05T07:06:37.000Z</Time>
            <Position>
              <LatitudeDegrees>44.5424387790262699127197265625</LatitudeDegrees>
              <LongitudeDegrees>-1.24854725785553455352783203125</LongitudeDegrees>
            </Position>
            <AltitudeMeters>30</AltitudeMeters>
            <DistanceMeters>NAN</DistanceMeters>
          </Trackpoint>
          <Trackpoint>
            <Time>2022-07-05T07:06:43.000Z</Time>
            <Position>
              <LatitudeDegrees>44.54231346957385540008544921875</LatitudeDegrees>
              <LongitudeDegrees>-1.24851205386221408843994140625</LongitudeDegrees>
            </Position>
            <AltitudeMeters>30.3999996185302734375</AltitudeMeters>
            <DistanceMeters>NAN</DistanceMeters>
          </Trackpoint>
          <Trackpoint>
            <Time>2022-07-05T07:06:51.000Z</Time>
            <Position>
              <LatitudeDegrees>44.54196662642061710357666015625</LatitudeDegrees>
              <LongitudeDegrees>-1.24843510799109935760498046875</LongitudeDegrees>
            </Position>
            <AltitudeMeters>30.799999237060546875</AltitudeMeters>
            <DistanceMeters>NAN</DistanceMeters>
          </Trackpoint>
          <Trackpoint>
            <Time>2022-07-05T07:06:56.000Z</Time>
            <Position>
              <LatitudeDegrees>44.54187492839992046356201171875</LatitudeDegrees>
              <LongitudeDegrees>-1.248412393033504486083984375</LongitudeDegrees>
            </Position>
            <AltitudeMeters>30.799999237060546875</AltitudeMeters>
            <DistanceMeters>NAN</DistanceMeters>
          </Trackpoint>
          <Trackpoint>
            <Time>2022-07-05T07:06:59.000Z</Time>
            <Position>
              <LatitudeDegrees>44.54178725369274616241455078125</LatitudeDegrees>
              <LongitudeDegrees>-1.24840208329260349273681640625</LongitudeDegrees>
            </Position>
            <AltitudeMeters>31</AltitudeMeters>
            <DistanceMeters>NAN</DistanceMeters>
          </Trackpoint>
          <Trackpoint>
            <Time>2022-07-05T07:07:05.000Z</Time>
            <Position>
              <LatitudeDegrees>44.54160972498357295989990234375</LatitudeDegrees>
              <LongitudeDegrees>-1.2484263069927692413330078125</LongitudeDegrees>
            </Position>
            <AltitudeMeters>31</AltitudeMeters>
            <DistanceMeters>NAN</DistanceMeters>
          </Trackpoint>
          <Trackpoint>
            <Time>2022-07-05T07:07:10.000Z</Time>
            <Position>
              <LatitudeDegrees>44.54144275747239589691162109375</LatitudeDegrees>
              <LongitudeDegrees>-1.2484521232545375823974609375</LongitudeDegrees>
            </Position>
            <AltitudeMeters>31</AltitudeMeters>
            <DistanceMeters>NAN</DistanceMeters>
          </Trackpoint>
          <Trackpoint>
            <Time>2022-07-05T07:07:17.000Z</Time>
            <Position>
              <LatitudeDegrees>44.54117336310446262359619140625</LatitudeDegrees>
              <LongitudeDegrees>-1.24847643077373504638671875</LongitudeDegrees>
            </Position>
            <AltitudeMeters>30.799999237060546875</AltitudeMeters>
            <DistanceMeters>NAN</DistanceMeters>
          </Trackpoint>
          <Trackpoint>
            <Time>2022-07-05T07:07:24.000Z</Time>
            <Position>
              <LatitudeDegrees>44.5409468002617359161376953125</LatitudeDegrees>
              <LongitudeDegrees>-1.24846662394702434539794921875</LongitudeDegrees>
            </Position>
            <AltitudeMeters>30.3999996185302734375</AltitudeMeters>
            <DistanceMeters>NAN</DistanceMeters>
          </Trackpoint>
          <Trackpoint>
            <Time>2022-07-05T07:07:33.000Z</Time>
            <Position>
              <LatitudeDegrees>44.5404821075499057769775390625</LatitudeDegrees>
              <LongitudeDegrees>-1.2485228665173053741455078125</LongitudeDegrees>
            </Position>
            <AltitudeMeters>30.200000762939453125</AltitudeMeters>
            <DistanceMeters>NAN</DistanceMeters>
          </Trackpoint>
          <Trackpoint>
            <Time>2022-07-05T07:07:39.000Z</Time>
            <Position>
              <LatitudeDegrees>44.540328718721866607666015625</LatitudeDegrees>
              <LongitudeDegrees>-1.24857299029827117919921875</LongitudeDegrees>
            </Position>
            <AltitudeMeters>30.3999996185302734375</AltitudeMeters>
            <DistanceMeters>NAN</DistanceMeters>
          </Trackpoint>
          <Trackpoint>
            <Time>2022-07-05T07:07:46.000Z</Time>
            <Position>
              <LatitudeDegrees>44.54014138318598270416259765625</LatitudeDegrees>
              <LongitudeDegrees>-1.24861783348023891448974609375</LongitudeDegrees>
            </Position>
            <AltitudeMeters>30.200000762939453125</AltitudeMeters>
            <DistanceMeters>NAN</DistanceMeters>
          </Trackpoint>
          <Trackpoint>
            <Time>2022-07-05T07:07:53.000Z</Time>
            <Position>
              <LatitudeDegrees>44.53985103406012058258056640625</LatitudeDegrees>
              <LongitudeDegrees>-1.24868027865886688232421875</LongitudeDegrees>
            </Position>
            <AltitudeMeters>30.200000762939453125</AltitudeMeters>
            <DistanceMeters>NAN</DistanceMeters>
          </Trackpoint>
          <Trackpoint>
            <Time>2022-07-05T07:07:59.000Z</Time>
            <Position>
              <LatitudeDegrees>44.53961449675261974334716796875</LatitudeDegrees>
              <LongitudeDegrees>-1.24874155037105083465576171875</LongitudeDegrees>
            </Position>
            <AltitudeMeters>30.200000762939453125</AltitudeMeters>
            <DistanceMeters>NAN</DistanceMeters>
          </Trackpoint>
          <Trackpoint>
            <Time>2022-07-05T07:08:07.000Z</Time>
            <Position>
              <LatitudeDegrees>44.53926849178969860076904296875</LatitudeDegrees>
              <LongitudeDegrees>-1.24882386066019535064697265625</LongitudeDegrees>
            </Position>
            <AltitudeMeters>30.200000762939453125</AltitudeMeters>
            <DistanceMeters>NAN</DistanceMeters>
          </Trackpoint>
          <Trackpoint>
            <Time>2022-07-05T07:08:12.000Z</Time>
            <Position>
              <LatitudeDegrees>44.53910596668720245361328125</LatitudeDegrees>
              <LongitudeDegrees>-1.24889946542680263519287109375</LongitudeDegrees>
            </Position>
            <AltitudeMeters>30.200000762939453125</AltitudeMeters>
            <DistanceMeters>NAN</DistanceMeters>
          </Trackpoint>
          <Trackpoint>
            <Time>2022-07-05T07:08:16.000Z</Time>
            <Position>
              <LatitudeDegrees>44.53890672884881496429443359375</LatitudeDegrees>
              <LongitudeDegrees>-1.24899485148489475250244140625</LongitudeDegrees>
            </Position>
            <AltitudeMeters>30.3999996185302734375</AltitudeMeters>
            <DistanceMeters>NAN</DistanceMeters>
          </Trackpoint>
          <Trackpoint>
            <Time>2022-07-05T07:08:25.000Z</Time>
            <Position>
              <LatitudeDegrees>44.53862291760742664337158203125</LatitudeDegrees>
              <LongitudeDegrees>-1.2490921653807163238525390625</LongitudeDegrees>
            </Position>
            <AltitudeMeters>30.200000762939453125</AltitudeMeters>
            <DistanceMeters>NAN</DistanceMeters>
          </Trackpoint>
          <Trackpoint>
            <Time>2022-07-05T07:08:30.000Z</Time>
            <Position>
              <LatitudeDegrees>44.53845209442079067230224609375</LatitudeDegrees>
              <LongitudeDegrees>-1.24914907850325107574462890625</LongitudeDegrees>
            </Position>
            <AltitudeMeters>30</AltitudeMeters>
            <DistanceMeters>NAN</DistanceMeters>
          </Trackpoint>
          <Trackpoint>
            <Time>2022-07-05T07:08:37.000Z</Time>
            <Position>
              <LatitudeDegrees>44.53826048411428928375244140625</LatitudeDegrees>
              <LongitudeDegrees>-1.24917958863079547882080078125</LongitudeDegrees>
            </Position>
            <AltitudeMeters>30</AltitudeMeters>
            <DistanceMeters>NAN</DistanceMeters>
          </Trackpoint>
          <Trackpoint>
            <Time>2022-07-05T07:08:44.000Z</Time>
            <Position>
              <LatitudeDegrees>44.53804255463182926177978515625</LatitudeDegrees>
              <LongitudeDegrees>-1.24918595887720584869384765625</LongitudeDegrees>
            </Position>
            <AltitudeMeters>30.200000762939453125</AltitudeMeters>
            <DistanceMeters>NAN</DistanceMeters>
          </Trackpoint>
          <Trackpoint>
            <Time>2022-07-05T07:08:50.000Z</Time>
            <Position>
              <LatitudeDegrees>44.53788966871798038482666015625</LatitudeDegrees>
              <LongitudeDegrees>-1.24919367022812366485595703125</LongitudeDegrees>
            </Position>
            <AltitudeMeters>30.3999996185302734375</AltitudeMeters>
            <DistanceMeters>NAN</DistanceMeters>
          </Trackpoint>
          <Trackpoint>
            <Time>2022-07-05T07:08:56.000Z</Time>
            <Position>
              <LatitudeDegrees>44.53766721300780773162841796875</LatitudeDegrees>
              <LongitudeDegrees>-1.24922686256468296051025390625</LongitudeDegrees>
            </Position>
            <AltitudeMeters>30.200000762939453125</AltitudeMeters>
            <DistanceMeters>NAN</DistanceMeters>
          </Trackpoint>
          <Trackpoint>
            <Time>2022-07-05T07:09:06.000Z</Time>
            <Position>
              <LatitudeDegrees>44.53730461187660694122314453125</LatitudeDegrees>
              <LongitudeDegrees>-1.24924496747553348541259765625</LongitudeDegrees>
            </Position>
            <AltitudeMeters>30</AltitudeMeters>
            <DistanceMeters>NAN</DistanceMeters>
          </Trackpoint>
          <Trackpoint>
            <Time>2022-07-05T07:09:09.000Z</Time>
            <Position>
              <LatitudeDegrees>44.53721609897911548614501953125</LatitudeDegrees>
              <LongitudeDegrees>-1.24926022253930568695068359375</LongitudeDegrees>
            </Position>
            <AltitudeMeters>29.799999237060546875</AltitudeMeters>
            <DistanceMeters>NAN</DistanceMeters>
          </Trackpoint>
          <Trackpoint>
            <Time>2022-07-05T07:09:13.000Z</Time>
            <Position>
              <LatitudeDegrees>44.5370347984135150909423828125</LatitudeDegrees>
              <LongitudeDegrees>-1.2493043951690196990966796875</LongitudeDegrees>
            </Position>
            <AltitudeMeters>30</AltitudeMeters>
            <DistanceMeters>NAN</DistanceMeters>
          </Trackpoint>
          <Trackpoint>
            <Time>2022-07-05T07:09:17.000Z</Time>
            <Position>
              <LatitudeDegrees>44.5369271747767925262451171875</LatitudeDegrees>
              <LongitudeDegrees>-1.24933230690658092498779296875</LongitudeDegrees>
            </Position>
            <AltitudeMeters>30</AltitudeMeters>
            <DistanceMeters>NAN</DistanceMeters>
          </Trackpoint>
          <Trackpoint>
            <Time>2022-07-05T07:09:25.000Z</Time>
            <Position>
              <LatitudeDegrees>44.53678426332771778106689453125</LatitudeDegrees>
              <LongitudeDegrees>-1.24932711012661457061767578125</LongitudeDegrees>
            </Position>
            <AltitudeMeters>30</AltitudeMeters>
            <DistanceMeters>NAN</DistanceMeters>
          </Trackpoint>
          <Trackpoint>
            <Time>2022-07-05T07:09:28.000Z</Time>
            <Position>
              <LatitudeDegrees>44.53666406683623790740966796875</LatitudeDegrees>
              <LongitudeDegrees>-1.24933448620140552520751953125</LongitudeDegrees>
            </Position>
            <AltitudeMeters>30</AltitudeMeters>
            <DistanceMeters>NAN</DistanceMeters>
          </Trackpoint>
          <Trackpoint>
            <Time>2022-07-05T07:09:30.000Z</Time>
            <Position>
              <LatitudeDegrees>44.53659164719283580780029296875</LatitudeDegrees>
              <LongitudeDegrees>-1.249323002994060516357421875</LongitudeDegrees>
            </Position>
            <AltitudeMeters>30</AltitudeMeters>
            <DistanceMeters>NAN</DistanceMeters>
          </Trackpoint>
          <Trackpoint>
            <Time>2022-07-05T07:09:36.000Z</Time>
            <Position>
              <LatitudeDegrees>44.53638126142323017120361328125</LatitudeDegrees>
              <LongitudeDegrees>-1.24934278428554534912109375</LongitudeDegrees>
            </Position>
            <AltitudeMeters>30</AltitudeMeters>
            <DistanceMeters>NAN</DistanceMeters>
          </Trackpoint>
          <Trackpoint>
            <Time>2022-07-05T07:09:40.000Z</Time>
            <Position>
              <LatitudeDegrees>44.536265172064304351806640625</LatitudeDegrees>
              <LongitudeDegrees>-1.2493315525352954864501953125</LongitudeDegrees>
            </Position>
            <AltitudeMeters>29.799999237060546875</AltitudeMeters>
            <DistanceMeters>NAN</DistanceMeters>
          </Trackpoint>
          <Trackpoint>
            <Time>2022-07-05T07:09:43.000Z</Time>
            <Position>
              <LatitudeDegrees>44.53612091951072216033935546875</LatitudeDegrees>
              <LongitudeDegrees>-1.2493241764605045318603515625</LongitudeDegrees>
            </Position>
            <AltitudeMeters>30</AltitudeMeters>
            <DistanceMeters>NAN</DistanceMeters>
          </Trackpoint>
          <Trackpoint>
            <Time>2022-07-05T07:09:44.000Z</Time>
            <Position>
              <LatitudeDegrees>44.53607641160488128662109375</LatitudeDegrees>
              <LongitudeDegrees>-1.2493315525352954864501953125</LongitudeDegrees>
            </Position>
            <AltitudeMeters>29.799999237060546875</AltitudeMeters>
            <DistanceMeters>NAN</DistanceMeters>
          </Trackpoint>
          <Trackpoint>
            <Time>2022-07-05T07:09:50.000Z</Time>
            <Position>
              <LatitudeDegrees>44.535806179046630859375</LatitudeDegrees>
              <LongitudeDegrees>-1.24937228858470916748046875</LongitudeDegrees>
            </Position>
            <AltitudeMeters>30</AltitudeMeters>
            <DistanceMeters>NAN</DistanceMeters>
          </Trackpoint>
          <Trackpoint>
            <Time>2022-07-05T07:09:53.000Z</Time>
            <Position>
              <LatitudeDegrees>44.5357047580182552337646484375</LatitudeDegrees>
              <LongitudeDegrees>-1.24941796995699405670166015625</LongitudeDegrees>
            </Position>
            <AltitudeMeters>30</AltitudeMeters>
            <DistanceMeters>NAN</DistanceMeters>
          </Trackpoint>
          <Trackpoint>
            <Time>2022-07-05T07:09:55.000Z</Time>
            <Position>
              <LatitudeDegrees>44.5356299914419651031494140625</LatitudeDegrees>
              <LongitudeDegrees>-1.24945987947285175323486328125</LongitudeDegrees>
            </Position>
            <AltitudeMeters>30.200000762939453125</AltitudeMeters>
            <DistanceMeters>NAN</DistanceMeters>
          </Trackpoint>
          <Trackpoint>
            <Time>2022-07-05T07:10:00.000Z</Time>
            <Position>
              <LatitudeDegrees>44.53547953628003597259521484375</LatitudeDegrees>
              <LongitudeDegrees>-1.24957487918436527252197265625</LongitudeDegrees>
            </Position>
            <AltitudeMeters>30</AltitudeMeters>
            <DistanceMeters>NAN</DistanceMeters>
          </Trackpoint>
          <Trackpoint>
            <Time>2022-07-05T07:10:02.000Z</Time>
            <Position>
              <LatitudeDegrees>44.5354157499969005584716796875</LatitudeDegrees>
              <LongitudeDegrees>-1.24960438348352909088134765625</LongitudeDegrees>
            </Position>
            <AltitudeMeters>30</AltitudeMeters>
            <DistanceMeters>NAN</DistanceMeters>
          </Trackpoint>
          <Trackpoint>
            <Time>2022-07-05T07:10:04.000Z</Time>
            <Position>
              <LatitudeDegrees>44.53533100895583629608154296875</LatitudeDegrees>
              <LongitudeDegrees>-1.24962517060339450836181640625</LongitudeDegrees>
            </Position>
            <AltitudeMeters>30</AltitudeMeters>
            <DistanceMeters>NAN</DistanceMeters>
          </Trackpoint>
          <Trackpoint>
            <Time>2022-07-05T07:10:10.000Z</Time>
            <Position>
              <LatitudeDegrees>44.5351683162152767181396484375</LatitudeDegrees>
              <LongitudeDegrees>-1.249649561941623687744140625</LongitudeDegrees>
            </Position>
            <AltitudeMeters>30.200000762939453125</AltitudeMeters>
            <DistanceMeters>NAN</DistanceMeters>
          </Trackpoint>
          <Trackpoint>
            <Time>2022-07-05T07:10:16.000Z</Time>
            <Position>
              <LatitudeDegrees>44.5349641330540180206298828125</LatitudeDegrees>
              <LongitudeDegrees>-1.24967395327985286712646484375</LongitudeDegrees>
            </Position>
            <AltitudeMeters>30.200000762939453125</AltitudeMeters>
            <DistanceMeters>NAN</DistanceMeters>
          </Trackpoint>
          <Trackpoint>
            <Time>2022-07-05T07:10:23.000Z</Time>
            <Position>
              <LatitudeDegrees>44.53471544198691844940185546875</LatitudeDegrees>
              <LongitudeDegrees>-1.249703876674175262451171875</LongitudeDegrees>
            </Position>
            <AltitudeMeters>29.799999237060546875</AltitudeMeters>
            <DistanceMeters>NAN</DistanceMeters>
          </Trackpoint>
          <Trackpoint>
            <Time>2022-07-05T07:10:30.000Z</Time>
            <Position>
              <LatitudeDegrees>44.5344357378780841827392578125</LatitudeDegrees>
              <LongitudeDegrees>-1.24972231686115264892578125</LongitudeDegrees>
            </Position>
            <AltitudeMeters>29.799999237060546875</AltitudeMeters>
            <DistanceMeters>NAN</DistanceMeters>
          </Trackpoint>
          <Trackpoint>
            <Time>2022-07-05T07:10:31.000Z</Time>
            <Position>
              <LatitudeDegrees>44.5344038866460323333740234375</LatitudeDegrees>
              <LongitudeDegrees>-1.24972223304212093353271484375</LongitudeDegrees>
            </Position>
            <AltitudeMeters>29.799999237060546875</AltitudeMeters>
            <DistanceMeters>NAN</DistanceMeters>
          </Trackpoint>
          <Trackpoint>
            <Time>2022-07-05T07:10:38.000Z</Time>
            <Position>
              <LatitudeDegrees>44.53420297242701053619384765625</LatitudeDegrees>
              <LongitudeDegrees>-1.2497409246861934661865234375</LongitudeDegrees>
            </Position>
            <AltitudeMeters>29.6000003814697265625</AltitudeMeters>
            <DistanceMeters>NAN</DistanceMeters>
          </Trackpoint>
          <Trackpoint>
            <Time>2022-07-05T07:10:48.000Z</Time>
            <Position>
              <LatitudeDegrees>44.5337980426847934722900390625</LatitudeDegrees>
              <LongitudeDegrees>-1.2497942335903644561767578125</LongitudeDegrees>
            </Position>
            <AltitudeMeters>29.6000003814697265625</AltitudeMeters>
            <DistanceMeters>NAN</DistanceMeters>
          </Trackpoint>
          <Trackpoint>
            <Time>2022-07-05T07:10:50.000Z</Time>
            <Position>
              <LatitudeDegrees>44.5337360166013240814208984375</LatitudeDegrees>
              <LongitudeDegrees>-1.24981326051056385040283203125</LongitudeDegrees>
            </Position>
            <AltitudeMeters>29.6000003814697265625</AltitudeMeters>
            <DistanceMeters>NAN</DistanceMeters>
          </Trackpoint>
          <Trackpoint>
            <Time>2022-07-05T07:10:52.000Z</Time>
            <Position>
              <LatitudeDegrees>44.5337132178246974945068359375</LatitudeDegrees>
              <LongitudeDegrees>-1.24982021749019622802734375</LongitudeDegrees>
            </Position>
            <AltitudeMeters>29.3999996185302734375</AltitudeMeters>
            <DistanceMeters>NAN</DistanceMeters>
          </Trackpoint>
          <Trackpoint>
            <Time>2022-07-05T07:10:59.000Z</Time>
            <Position>
              <LatitudeDegrees>44.5334644429385662078857421875</LatitudeDegrees>
              <LongitudeDegrees>-1.24979884363710880279541015625</LongitudeDegrees>
            </Position>
            <AltitudeMeters>29.200000762939453125</AltitudeMeters>
            <DistanceMeters>NAN</DistanceMeters>
          </Trackpoint>
          <Trackpoint>
            <Time>2022-07-05T07:11:05.000Z</Time>
            <Position>
              <LatitudeDegrees>44.53324089758098125457763671875</LatitudeDegrees>
              <LongitudeDegrees>-1.24975676648318767547607421875</LongitudeDegrees>
            </Position>
            <AltitudeMeters>29.200000762939453125</AltitudeMeters>
            <DistanceMeters>NAN</DistanceMeters>
          </Trackpoint>
          <Trackpoint>
            <Time>2022-07-05T07:11:11.000Z</Time>
            <Position>
              <LatitudeDegrees>44.53304593451321125030517578125</LatitudeDegrees>
              <LongitudeDegrees>-1.24973027966916561126708984375</LongitudeDegrees>
            </Position>
            <AltitudeMeters>29.200000762939453125</AltitudeMeters>
            <DistanceMeters>NAN</DistanceMeters>
          </Trackpoint>
          <Trackpoint>
            <Time>2022-07-05T07:11:18.000Z</Time>
            <Position>
              <LatitudeDegrees>44.5328575931489467620849609375</LatitudeDegrees>
              <LongitudeDegrees>-1.24972726218402385711669921875</LongitudeDegrees>
            </Position>
            <AltitudeMeters>29.200000762939453125</AltitudeMeters>
            <DistanceMeters>NAN</DistanceMeters>
          </Trackpoint>
          <Trackpoint>
            <Time>2022-07-05T07:11:21.000Z</Time>
            <Position>
              <LatitudeDegrees>44.532673694193363189697265625</LatitudeDegrees>
              <LongitudeDegrees>-1.24973145313560962677001953125</LongitudeDegrees>
            </Position>
            <AltitudeMeters>29.200000762939453125</AltitudeMeters>
            <DistanceMeters>NAN</DistanceMeters>
          </Trackpoint>
          <Trackpoint>
            <Time>2022-07-05T07:11:22.000Z</Time>
            <Position>
              <LatitudeDegrees>44.532673694193363189697265625</LatitudeDegrees>
              <LongitudeDegrees>-1.24973145313560962677001953125</LongitudeDegrees>
            </Position>
            <AltitudeMeters>29.200000762939453125</AltitudeMeters>
            <DistanceMeters>NAN</DistanceMeters>
          </Trackpoint>
          <Trackpoint>
            <Time>2022-07-05T07:11:28.000Z</Time>
            <Position>
              <LatitudeDegrees>44.5323446206748485565185546875</LatitudeDegrees>
              <LongitudeDegrees>-1.2497068941593170166015625</LongitudeDegrees>
            </Position>
            <AltitudeMeters>29</AltitudeMeters>
            <DistanceMeters>NAN</DistanceMeters>
          </Trackpoint>
          <Trackpoint>
            <Time>2022-07-05T07:11:30.000Z</Time>
            <Position>
              <LatitudeDegrees>44.5322718657553195953369140625</LatitudeDegrees>
              <LongitudeDegrees>-1.24971234239637851715087890625</LongitudeDegrees>
            </Position>
            <AltitudeMeters>29</AltitudeMeters>
            <DistanceMeters>NAN</DistanceMeters>
          </Trackpoint>
          <Trackpoint>
            <Time>2022-07-05T07:11:32.000Z</Time>
            <Position>
              <LatitudeDegrees>44.53221897594630718231201171875</LatitudeDegrees>
              <LongitudeDegrees>-1.249700523912906646728515625</LongitudeDegrees>
            </Position>
            <AltitudeMeters>29</AltitudeMeters>
            <DistanceMeters>NAN</DistanceMeters>
          </Trackpoint>
          <Trackpoint>
            <Time>2022-07-05T07:11:36.000Z</Time>
            <Position>
              <LatitudeDegrees>44.532126523554325103759765625</LatitudeDegrees>
              <LongitudeDegrees>-1.249669007956981658935546875</LongitudeDegrees>
            </Position>
            <AltitudeMeters>29</AltitudeMeters>
            <DistanceMeters>NAN</DistanceMeters>
          </Trackpoint>
          <Trackpoint>
            <Time>2022-07-05T07:11:40.000Z</Time>
            <Position>
              <LatitudeDegrees>44.5320143736898899078369140625</LatitudeDegrees>
              <LongitudeDegrees>-1.2496158666908740997314453125</LongitudeDegrees>
            </Position>
            <AltitudeMeters>29</AltitudeMeters>
            <DistanceMeters>NAN</DistanceMeters>
          </Trackpoint>
          <Trackpoint>
            <Time>2022-07-05T07:11:43.000Z</Time>
            <Position>
              <LatitudeDegrees>44.53192275948822498321533203125</LatitudeDegrees>
              <LongitudeDegrees>-1.2495803274214267730712890625</LongitudeDegrees>
            </Position>
            <AltitudeMeters>29</AltitudeMeters>
            <DistanceMeters>NAN</DistanceMeters>
          </Trackpoint>
          <Trackpoint>
            <Time>2022-07-05T07:11:46.000Z</Time>
            <Position>
              <LatitudeDegrees>44.5318470709025859832763671875</LatitudeDegrees>
              <LongitudeDegrees>-1.24956138432025909423828125</LongitudeDegrees>
            </Position>
            <AltitudeMeters>28.799999237060546875</AltitudeMeters>
            <DistanceMeters>NAN</DistanceMeters>
          </Trackpoint>
          <Trackpoint>
            <Time>2022-07-05T07:11:50.000Z</Time>
            <Position>
              <LatitudeDegrees>44.53170583583414554595947265625</LatitudeDegrees>
              <LongitudeDegrees>-1.24952140264213085174560546875</LongitudeDegrees>
            </Position>
            <AltitudeMeters>28.6000003814697265625</AltitudeMeters>
            <DistanceMeters>NAN</DistanceMeters>
          </Trackpoint>
          <Trackpoint>
            <Time>2022-07-05T07:11:54.000Z</Time>
            <Position>
              <LatitudeDegrees>44.53157390467822551727294921875</LatitudeDegrees>
              <LongitudeDegrees>-1.2495370768010616302490234375</LongitudeDegrees>
            </Position>
            <AltitudeMeters>28.6000003814697265625</AltitudeMeters>
            <DistanceMeters>NAN</DistanceMeters>
          </Trackpoint>
          <Trackpoint>
            <Time>2022-07-05T07:11:56.000Z</Time>
            <Position>
              <LatitudeDegrees>44.531524367630481719970703125</LatitudeDegrees>
              <LongitudeDegrees>-1.24952157028019428253173828125</LongitudeDegrees>
            </Position>
            <AltitudeMeters>28.6000003814697265625</AltitudeMeters>
            <DistanceMeters>NAN</DistanceMeters>
          </Trackpoint>
          <Trackpoint>
            <Time>2022-07-05T07:12:02.000Z</Time>
            <Position>
              <LatitudeDegrees>44.53128271736204624176025390625</LatitudeDegrees>
              <LongitudeDegrees>-1.2494653277099132537841796875</LongitudeDegrees>
            </Position>
            <AltitudeMeters>28.6000003814697265625</AltitudeMeters>
            <DistanceMeters>NAN</DistanceMeters>
          </Trackpoint>
          <Trackpoint>
            <Time>2022-07-05T07:12:08.000Z</Time>
            <Position>
              <LatitudeDegrees>44.53105372376739978790283203125</LatitudeDegrees>
              <LongitudeDegrees>-1.2495300360023975372314453125</LongitudeDegrees>
            </Position>
            <AltitudeMeters>28.6000003814697265625</AltitudeMeters>
            <DistanceMeters>NAN</DistanceMeters>
          </Trackpoint>
          <Trackpoint>
            <Time>2022-07-05T07:12:14.000Z</Time>
            <Position>
              <LatitudeDegrees>44.5308549888432025909423828125</LatitudeDegrees>
              <LongitudeDegrees>-1.24957538209855556488037109375</LongitudeDegrees>
            </Position>
            <AltitudeMeters>28.6000003814697265625</AltitudeMeters>
            <DistanceMeters>NAN</DistanceMeters>
          </Trackpoint>
          <Trackpoint>
            <Time>2022-07-05T07:12:20.000Z</Time>
            <Position>
              <LatitudeDegrees>44.53061048872768878936767578125</LatitudeDegrees>
              <LongitudeDegrees>-1.2496101669967174530029296875</LongitudeDegrees>
            </Position>
            <AltitudeMeters>28.3999996185302734375</AltitudeMeters>
            <DistanceMeters>NAN</DistanceMeters>
          </Trackpoint>
          <Trackpoint>
            <Time>2022-07-05T07:12:27.000Z</Time>
            <Position>
              <LatitudeDegrees>44.5302541740238666534423828125</LatitudeDegrees>
              <LongitudeDegrees>-1.2496333010494709014892578125</LongitudeDegrees>
            </Position>
            <AltitudeMeters>28.200000762939453125</AltitudeMeters>
            <DistanceMeters>NAN</DistanceMeters>
          </Trackpoint>
          <Trackpoint>
            <Time>2022-07-05T07:12:34.000Z</Time>
            <Position>
              <LatitudeDegrees>44.5299785770475864410400390625</LatitudeDegrees>
              <LongitudeDegrees>-1.24963237904012203216552734375</LongitudeDegrees>
            </Position>
            <AltitudeMeters>28</AltitudeMeters>
            <DistanceMeters>NAN</DistanceMeters>
          </Trackpoint>
          <Trackpoint>
            <Time>2022-07-05T07:12:41.000Z</Time>
            <Position>
              <LatitudeDegrees>44.52977263368666172027587890625</LatitudeDegrees>
              <LongitudeDegrees>-1.24962718226015567779541015625</LongitudeDegrees>
            </Position>
            <AltitudeMeters>27.799999237060546875</AltitudeMeters>
            <DistanceMeters>NAN</DistanceMeters>
          </Trackpoint>
          <Trackpoint>
            <Time>2022-07-05T07:12:45.000Z</Time>
            <Position>
              <LatitudeDegrees>44.52962896786630153656005859375</LatitudeDegrees>
              <LongitudeDegrees>-1.24964092858135700225830078125</LongitudeDegrees>
            </Position>
            <AltitudeMeters>27.799999237060546875</AltitudeMeters>
            <DistanceMeters>NAN</DistanceMeters>
          </Trackpoint>
          <Trackpoint>
            <Time>2022-07-05T07:12:50.000Z</Time>
            <Position>
              <LatitudeDegrees>44.52949686907231807708740234375</LatitudeDegrees>
              <LongitudeDegrees>-1.24964696355164051055908203125</LongitudeDegrees>
            </Position>
            <AltitudeMeters>27.799999237060546875</AltitudeMeters>
            <DistanceMeters>NAN</DistanceMeters>
          </Trackpoint>
          <Trackpoint>
            <Time>2022-07-05T07:12:55.000Z</Time>
            <Position>
              <LatitudeDegrees>44.5293341763317584991455078125</LatitudeDegrees>
              <LongitudeDegrees>-1.2496393360197544097900390625</LongitudeDegrees>
            </Position>
            <AltitudeMeters>27.6000003814697265625</AltitudeMeters>
            <DistanceMeters>NAN</DistanceMeters>
          </Trackpoint>
          <Trackpoint>
            <Time>2022-07-05T07:13:01.000Z</Time>
            <Position>
              <LatitudeDegrees>44.5290119759738445281982421875</LatitudeDegrees>
              <LongitudeDegrees>-1.24964411370456218719482421875</LongitudeDegrees>
            </Position>
            <AltitudeMeters>27.3999996185302734375</AltitudeMeters>
            <DistanceMeters>NAN</DistanceMeters>
          </Trackpoint>
          <Trackpoint>
            <Time>2022-07-05T07:13:09.000Z</Time>
            <Position>
              <LatitudeDegrees>44.52876177616417407989501953125</LatitudeDegrees>
              <LongitudeDegrees>-1.24967562966048717498779296875</LongitudeDegrees>
            </Position>
            <AltitudeMeters>27.3999996185302734375</AltitudeMeters>
            <DistanceMeters>NAN</DistanceMeters>
          </Trackpoint>
          <Trackpoint>
            <Time>2022-07-05T07:13:10.000Z</Time>
            <Position>
              <LatitudeDegrees>44.52872472815215587615966796875</LatitudeDegrees>
              <LongitudeDegrees>-1.24966540373861789703369140625</LongitudeDegrees>
            </Position>
            <AltitudeMeters>27.3999996185302734375</AltitudeMeters>
            <DistanceMeters>NAN</DistanceMeters>
          </Trackpoint>
          <Trackpoint>
            <Time>2022-07-05T07:13:12.000Z</Time>
            <Position>
              <LatitudeDegrees>44.52872187830507755279541015625</LatitudeDegrees>
              <LongitudeDegrees>-1.2496639788150787353515625</LongitudeDegrees>
            </Position>
            <AltitudeMeters>27</AltitudeMeters>
            <DistanceMeters>NAN</DistanceMeters>
          </Trackpoint>
          <Trackpoint>
            <Time>2022-07-05T07:13:13.000Z</Time>
            <Position>
              <LatitudeDegrees>44.52872187830507755279541015625</LatitudeDegrees>
              <LongitudeDegrees>-1.2496639788150787353515625</LongitudeDegrees>
            </Position>
            <AltitudeMeters>27</AltitudeMeters>
            <DistanceMeters>NAN</DistanceMeters>
          </Trackpoint>
          <Trackpoint>
            <Time>2022-07-05T07:14:03.000Z</Time>
            <Position>
              <LatitudeDegrees>44.5287856645882129669189453125</LatitudeDegrees>
              <LongitudeDegrees>-1.24964511953294277191162109375</LongitudeDegrees>
            </Position>
            <AltitudeMeters>27</AltitudeMeters>
            <DistanceMeters>NAN</DistanceMeters>
          </Trackpoint>
          <Trackpoint>
            <Time>2022-07-05T07:14:04.000Z</Time>
            <Position>
              <LatitudeDegrees>44.5287856645882129669189453125</LatitudeDegrees>
              <LongitudeDegrees>-1.24964511953294277191162109375</LongitudeDegrees>
            </Position>
            <AltitudeMeters>26.6000003814697265625</AltitudeMeters>
            <DistanceMeters>NAN</DistanceMeters>
          </Trackpoint>
          <Trackpoint>
            <Time>2022-07-05T07:14:05.000Z</Time>
            <Position>
              <LatitudeDegrees>44.5288265682756900787353515625</LatitudeDegrees>
              <LongitudeDegrees>-1.2496425211429595947265625</LongitudeDegrees>
            </Position>
            <AltitudeMeters>26.3999996185302734375</AltitudeMeters>
            <DistanceMeters>NAN</DistanceMeters>
          </Trackpoint>
          <Trackpoint>
            <Time>2022-07-05T07:14:11.000Z</Time>
            <Position>
              <LatitudeDegrees>44.5289117284119129180908203125</LatitudeDegrees>
              <LongitudeDegrees>-1.2496584467589855194091796875</LongitudeDegrees>
            </Position>
            <AltitudeMeters>26</AltitudeMeters>
            <DistanceMeters>NAN</DistanceMeters>
          </Trackpoint>
          <Trackpoint>
            <Time>2022-07-05T07:14:13.000Z</Time>
            <Position>
              <LatitudeDegrees>44.5289117284119129180908203125</LatitudeDegrees>
              <LongitudeDegrees>-1.2496584467589855194091796875</LongitudeDegrees>
            </Position>
            <AltitudeMeters>25.799999237060546875</AltitudeMeters>
            <DistanceMeters>NAN</DistanceMeters>
          </Trackpoint>
          <Trackpoint>
            <Time>2022-07-05T07:14:21.000Z</Time>
            <Position>
              <LatitudeDegrees>44.52892857603728771209716796875</LatitudeDegrees>
              <LongitudeDegrees>-1.24970882199704647064208984375</LongitudeDegrees>
            </Position>
            <AltitudeMeters>25.799999237060546875</AltitudeMeters>
            <DistanceMeters>NAN</DistanceMeters>
          </Trackpoint>
          <Trackpoint>
            <Time>2022-07-05T07:14:23.000Z</Time>
            <Position>
              <LatitudeDegrees>44.52893662266433238983154296875</LatitudeDegrees>
              <LongitudeDegrees>-1.249748803675174713134765625</LongitudeDegrees>
            </Position>
            <AltitudeMeters>25.799999237060546875</AltitudeMeters>
            <DistanceMeters>NAN</DistanceMeters>
          </Trackpoint>
          <Trackpoint>
            <Time>2022-07-05T07:14:30.000Z</Time>
            <Position>
              <LatitudeDegrees>44.52892505563795566558837890625</LatitudeDegrees>
              <LongitudeDegrees>-1.24992725439369678497314453125</LongitudeDegrees>
            </Position>
            <AltitudeMeters>25.799999237060546875</AltitudeMeters>
            <DistanceMeters>NAN</DistanceMeters>
          </Trackpoint>
          <Trackpoint>
            <Time>2022-07-05T07:14:38.000Z</Time>
            <Position>
              <LatitudeDegrees>44.52893796376883983612060546875</LatitudeDegrees>
              <LongitudeDegrees>-1.25015624798834323883056640625</LongitudeDegrees>
            </Position>
            <AltitudeMeters>25.799999237060546875</AltitudeMeters>
            <DistanceMeters>NAN</DistanceMeters>
          </Trackpoint>
          <Trackpoint>
            <Time>2022-07-05T07:14:46.000Z</Time>
            <Position>
              <LatitudeDegrees>44.5289357006549835205078125</LatitudeDegrees>
              <LongitudeDegrees>-1.25035808421671390533447265625</LongitudeDegrees>
            </Position>
            <AltitudeMeters>26.200000762939453125</AltitudeMeters>
            <DistanceMeters>NAN</DistanceMeters>
          </Trackpoint>
          <Trackpoint>
            <Time>2022-07-05T07:14:52.000Z</Time>
            <Position>
              <LatitudeDegrees>44.5289479382336139678955078125</LatitudeDegrees>
              <LongitudeDegrees>-1.25048347748816013336181640625</LongitudeDegrees>
            </Position>
            <AltitudeMeters>26.3999996185302734375</AltitudeMeters>
            <DistanceMeters>NAN</DistanceMeters>
          </Trackpoint>
          <Trackpoint>
            <Time>2022-07-05T07:14:56.000Z</Time>
            <Position>
              <LatitudeDegrees>44.52895221300423145294189453125</LatitudeDegrees>
              <LongitudeDegrees>-1.25059160403907299041748046875</LongitudeDegrees>
            </Position>
            <AltitudeMeters>27</AltitudeMeters>
            <DistanceMeters>NAN</DistanceMeters>
          </Trackpoint>
          <Trackpoint>
            <Time>2022-07-05T07:14:57.000Z</Time>
            <Position>
              <LatitudeDegrees>44.52894936315715312957763671875</LatitudeDegrees>
              <LongitudeDegrees>-1.25061205588281154632568359375</LongitudeDegrees>
            </Position>
            <AltitudeMeters>27.200000762939453125</AltitudeMeters>
            <DistanceMeters>NAN</DistanceMeters>
          </Trackpoint>
          <Trackpoint>
            <Time>2022-07-05T07:14:58.000Z</Time>
            <Position>
              <LatitudeDegrees>44.5289491117000579833984375</LatitudeDegrees>
              <LongitudeDegrees>-1.25063066370785236358642578125</LongitudeDegrees>
            </Position>
            <AltitudeMeters>27.200000762939453125</AltitudeMeters>
            <DistanceMeters>NAN</DistanceMeters>
          </Trackpoint>
          <Trackpoint>
            <Time>2022-07-05T07:15:00.000Z</Time>
            <Position>
              <LatitudeDegrees>44.52895388938486576080322265625</LatitudeDegrees>
              <LongitudeDegrees>-1.25064642168581485748291015625</LongitudeDegrees>
            </Position>
            <AltitudeMeters>27.6000003814697265625</AltitudeMeters>
            <DistanceMeters>NAN</DistanceMeters>
          </Trackpoint>
          <Trackpoint>
            <Time>2022-07-05T07:15:05.000Z</Time>
            <Position>
              <LatitudeDegrees>44.528950788080692291259765625</LatitudeDegrees>
              <LongitudeDegrees>-1.25074834562838077545166015625</LongitudeDegrees>
            </Position>
            <AltitudeMeters>28.6000003814697265625</AltitudeMeters>
            <DistanceMeters>NAN</DistanceMeters>
          </Trackpoint>
          <Trackpoint>
            <Time>2022-07-05T07:15:06.000Z</Time>
            <Position>
              <LatitudeDegrees>44.5289509557187557220458984375</LatitudeDegrees>
              <LongitudeDegrees>-1.2507675401866436004638671875</LongitudeDegrees>
            </Position>
            <AltitudeMeters>28.799999237060546875</AltitudeMeters>
            <DistanceMeters>NAN</DistanceMeters>
          </Trackpoint>
          <Trackpoint>
            <Time>2022-07-05T07:15:12.000Z</Time>
            <Position>
              <LatitudeDegrees>44.52896897681057453155517578125</LatitudeDegrees>
              <LongitudeDegrees>-1.250851862132549285888671875</LongitudeDegrees>
            </Position>
            <AltitudeMeters>29.799999237060546875</AltitudeMeters>
            <DistanceMeters>NAN</DistanceMeters>
          </Trackpoint>
          <Trackpoint>
            <Time>2022-07-05T07:15:15.000Z</Time>
            <Position>
              <LatitudeDegrees>44.5289680548012256622314453125</LatitudeDegrees>
              <LongitudeDegrees>-1.25090324319899082183837890625</LongitudeDegrees>
            </Position>
            <AltitudeMeters>30.3999996185302734375</AltitudeMeters>
            <DistanceMeters>NAN</DistanceMeters>
          </Trackpoint>
          <Trackpoint>
            <Time>2022-07-05T07:15:18.000Z</Time>
            <Position>
              <LatitudeDegrees>44.52896361239254474639892578125</LatitudeDegrees>
              <LongitudeDegrees>-1.2509774230420589447021484375</LongitudeDegrees>
            </Position>
            <AltitudeMeters>30.799999237060546875</AltitudeMeters>
            <DistanceMeters>NAN</DistanceMeters>
          </Trackpoint>
          <Trackpoint>
            <Time>2022-07-05T07:15:24.000Z</Time>
            <Position>
              <LatitudeDegrees>44.52897727489471435546875</LatitudeDegrees>
              <LongitudeDegrees>-1.25107389874756336212158203125</LongitudeDegrees>
            </Position>
            <AltitudeMeters>32</AltitudeMeters>
            <DistanceMeters>NAN</DistanceMeters>
          </Trackpoint>
          <Trackpoint>
            <Time>2022-07-05T07:15:27.000Z</Time>
            <Position>
              <LatitudeDegrees>44.52897727489471435546875</LatitudeDegrees>
              <LongitudeDegrees>-1.2511276267468929290771484375</LongitudeDegrees>
            </Position>
            <AltitudeMeters>32.40000152587890625</AltitudeMeters>
            <DistanceMeters>NAN</DistanceMeters>
          </Trackpoint>
          <Trackpoint>
            <Time>2022-07-05T07:15:32.000Z</Time>
            <Position>
              <LatitudeDegrees>44.528971575200557708740234375</LatitudeDegrees>
              <LongitudeDegrees>-1.25123466365039348602294921875</LongitudeDegrees>
            </Position>
            <AltitudeMeters>33</AltitudeMeters>
            <DistanceMeters>NAN</DistanceMeters>
          </Trackpoint>
          <Trackpoint>
            <Time>2022-07-05T07:15:38.000Z</Time>
            <Position>
              <LatitudeDegrees>44.5289781130850315093994140625</LatitudeDegrees>
              <LongitudeDegrees>-1.2513740547001361846923828125</LongitudeDegrees>
            </Position>
            <AltitudeMeters>33.59999847412109375</AltitudeMeters>
            <DistanceMeters>NAN</DistanceMeters>
          </Trackpoint>
          <Trackpoint>
            <Time>2022-07-05T07:15:45.000Z</Time>
            <Position>
              <LatitudeDegrees>44.52898188494145870208740234375</LatitudeDegrees>
              <LongitudeDegrees>-1.2515453808009624481201171875</LongitudeDegrees>
            </Position>
            <AltitudeMeters>34</AltitudeMeters>
            <DistanceMeters>NAN</DistanceMeters>
          </Trackpoint>
          <Trackpoint>
            <Time>2022-07-05T07:15:48.000Z</Time>
            <Position>
              <LatitudeDegrees>44.52897551469504833221435546875</LatitudeDegrees>
              <LongitudeDegrees>-1.25162995420396327972412109375</LongitudeDegrees>
            </Position>
            <AltitudeMeters>34.200000762939453125</AltitudeMeters>
            <DistanceMeters>NAN</DistanceMeters>
          </Trackpoint>
          <Trackpoint>
            <Time>2022-07-05T07:15:57.000Z</Time>
            <Position>
              <LatitudeDegrees>44.5289781130850315093994140625</LatitudeDegrees>
              <LongitudeDegrees>-1.251796670258045196533203125</LongitudeDegrees>
            </Position>
            <AltitudeMeters>35.200000762939453125</AltitudeMeters>
            <DistanceMeters>NAN</DistanceMeters>
          </Trackpoint>
          <Trackpoint>
            <Time>2022-07-05T07:16:00.000Z</Time>
            <Position>
              <LatitudeDegrees>44.52897769398987293243408203125</LatitudeDegrees>
              <LongitudeDegrees>-1.2518558464944362640380859375</LongitudeDegrees>
            </Position>
            <AltitudeMeters>35.40000152587890625</AltitudeMeters>
            <DistanceMeters>NAN</DistanceMeters>
          </Trackpoint>
          <Trackpoint>
            <Time>2022-07-05T07:16:06.000Z</Time>
            <Position>
              <LatitudeDegrees>44.52897484414279460906982421875</LatitudeDegrees>
              <LongitudeDegrees>-1.252017281949520111083984375</LongitudeDegrees>
            </Position>
            <AltitudeMeters>36.200000762939453125</AltitudeMeters>
            <DistanceMeters>NAN</DistanceMeters>
          </Trackpoint>
          <Trackpoint>
            <Time>2022-07-05T07:16:11.000Z</Time>
            <Position>
              <LatitudeDegrees>44.5289737544953823089599609375</LatitudeDegrees>
              <LongitudeDegrees>-1.25213622115552425384521484375</LongitudeDegrees>
            </Position>
            <AltitudeMeters>36.59999847412109375</AltitudeMeters>
            <DistanceMeters>NAN</DistanceMeters>
          </Trackpoint>
          <Trackpoint>
            <Time>2022-07-05T07:16:15.000Z</Time>
            <Position>
              <LatitudeDegrees>44.52896730042994022369384765625</LatitudeDegrees>
              <LongitudeDegrees>-1.252242587506771087646484375</LongitudeDegrees>
            </Position>
            <AltitudeMeters>36.799999237060546875</AltitudeMeters>
            <DistanceMeters>NAN</DistanceMeters>
          </Trackpoint>
          <Trackpoint>
            <Time>2022-07-05T07:16:21.000Z</Time>
            <Position>
              <LatitudeDegrees>44.528955481946468353271484375</LatitudeDegrees>
              <LongitudeDegrees>-1.2524828128516674041748046875</LongitudeDegrees>
            </Position>
            <AltitudeMeters>36.799999237060546875</AltitudeMeters>
            <DistanceMeters>NAN</DistanceMeters>
          </Trackpoint>
          <Trackpoint>
            <Time>2022-07-05T07:16:24.000Z</Time>
            <Position>
              <LatitudeDegrees>44.52894668094813823699951171875</LatitudeDegrees>
              <LongitudeDegrees>-1.252646930515766143798828125</LongitudeDegrees>
            </Position>
            <AltitudeMeters>36.40000152587890625</AltitudeMeters>
            <DistanceMeters>NAN</DistanceMeters>
          </Trackpoint>
          <Trackpoint>
            <Time>2022-07-05T07:16:27.000Z</Time>
            <Position>
              <LatitudeDegrees>44.52893192879855632781982421875</LatitudeDegrees>
              <LongitudeDegrees>-1.25281951390206813812255859375</LongitudeDegrees>
            </Position>
            <AltitudeMeters>35.200000762939453125</AltitudeMeters>
            <DistanceMeters>NAN</DistanceMeters>
          </Trackpoint>
          <Trackpoint>
            <Time>2022-07-05T07:16:29.000Z</Time>
            <Position>
              <LatitudeDegrees>44.528924636542797088623046875</LatitudeDegrees>
              <LongitudeDegrees>-1.2529335916042327880859375</LongitudeDegrees>
            </Position>
            <AltitudeMeters>34.40000152587890625</AltitudeMeters>
            <DistanceMeters>NAN</DistanceMeters>
          </Trackpoint>
          <Trackpoint>
            <Time>2022-07-05T07:16:30.000Z</Time>
            <Position>
              <LatitudeDegrees>44.528920613229274749755859375</LatitudeDegrees>
              <LongitudeDegrees>-1.25299184583127498626708984375</LongitudeDegrees>
            </Position>
            <AltitudeMeters>34</AltitudeMeters>
            <DistanceMeters>NAN</DistanceMeters>
          </Trackpoint>
          <Trackpoint>
            <Time>2022-07-05T07:16:33.000Z</Time>
            <Position>
              <LatitudeDegrees>44.52890845946967601776123046875</LatitudeDegrees>
              <LongitudeDegrees>-1.25316895544528961181640625</LongitudeDegrees>
            </Position>
            <AltitudeMeters>32.799999237060546875</AltitudeMeters>
            <DistanceMeters>NAN</DistanceMeters>
          </Trackpoint>
          <Trackpoint>
            <Time>2022-07-05T07:16:35.000Z</Time>
            <Position>
              <LatitudeDegrees>44.5288936235010623931884765625</LatitudeDegrees>
              <LongitudeDegrees>-1.25329392962157726287841796875</LongitudeDegrees>
            </Position>
            <AltitudeMeters>31.6000003814697265625</AltitudeMeters>
            <DistanceMeters>NAN</DistanceMeters>
          </Trackpoint>
          <Trackpoint>
            <Time>2022-07-05T07:16:38.000Z</Time>
            <Position>
              <LatitudeDegrees>44.52888180501759052276611328125</LatitudeDegrees>
              <LongitudeDegrees>-1.25342133454978466033935546875</LongitudeDegrees>
            </Position>
            <AltitudeMeters>30.3999996185302734375</AltitudeMeters>
            <DistanceMeters>NAN</DistanceMeters>
          </Trackpoint>
          <Trackpoint>
            <Time>2022-07-05T07:16:39.000Z</Time>
            <Position>
              <LatitudeDegrees>44.5288812182843685150146484375</LatitudeDegrees>
              <LongitudeDegrees>-1.25354689545929431915283203125</LongitudeDegrees>
            </Position>
            <AltitudeMeters>30.200000762939453125</AltitudeMeters>
            <DistanceMeters>NAN</DistanceMeters>
          </Trackpoint>
          <Trackpoint>
            <Time>2022-07-05T07:16:42.000Z</Time>
            <Position>
              <LatitudeDegrees>44.52887996099889278411865234375</LatitudeDegrees>
              <LongitudeDegrees>-1.253681592643260955810546875</LongitudeDegrees>
            </Position>
            <AltitudeMeters>29.200000762939453125</AltitudeMeters>
            <DistanceMeters>NAN</DistanceMeters>
          </Trackpoint>
          <Trackpoint>
            <Time>2022-07-05T07:16:45.000Z</Time>
            <Position>
              <LatitudeDegrees>44.52887778170406818389892578125</LatitudeDegrees>
              <LongitudeDegrees>-1.25394838862121105194091796875</LongitudeDegrees>
            </Position>
            <AltitudeMeters>28.200000762939453125</AltitudeMeters>
            <DistanceMeters>NAN</DistanceMeters>
          </Trackpoint>
          <Trackpoint>
            <Time>2022-07-05T07:16:49.000Z</Time>
            <Position>
              <LatitudeDegrees>44.52886638231575489044189453125</LatitudeDegrees>
              <LongitudeDegrees>-1.25421929173171520233154296875</LongitudeDegrees>
            </Position>
            <AltitudeMeters>27.6000003814697265625</AltitudeMeters>
            <DistanceMeters>NAN</DistanceMeters>
          </Trackpoint>
          <Trackpoint>
            <Time>2022-07-05T07:16:54.000Z</Time>
            <Position>
              <LatitudeDegrees>44.5288594253361225128173828125</LatitudeDegrees>
              <LongitudeDegrees>-1.2544589303433895111083984375</LongitudeDegrees>
            </Position>
            <AltitudeMeters>27.799999237060546875</AltitudeMeters>
            <DistanceMeters>NAN</DistanceMeters>
          </Trackpoint>
          <Trackpoint>
            <Time>2022-07-05T07:17:01.000Z</Time>
            <Position>
              <LatitudeDegrees>44.52886437065899372100830078125</LatitudeDegrees>
              <LongitudeDegrees>-1.2546879239380359649658203125</LongitudeDegrees>
            </Position>
            <AltitudeMeters>29</AltitudeMeters>
            <DistanceMeters>NAN</DistanceMeters>
          </Trackpoint>
          <Trackpoint>
            <Time>2022-07-05T07:17:02.000Z</Time>
            <Position>
              <LatitudeDegrees>44.5288661308586597442626953125</LatitudeDegrees>
              <LongitudeDegrees>-1.25472002662718296051025390625</LongitudeDegrees>
            </Position>
            <AltitudeMeters>29.200000762939453125</AltitudeMeters>
            <DistanceMeters>NAN</DistanceMeters>
          </Trackpoint>
          <Trackpoint>
            <Time>2022-07-05T07:17:05.000Z</Time>
            <Position>
              <LatitudeDegrees>44.5288684777915477752685546875</LatitudeDegrees>
              <LongitudeDegrees>-1.2548180110752582550048828125</LongitudeDegrees>
            </Position>
            <AltitudeMeters>29.6000003814697265625</AltitudeMeters>
            <DistanceMeters>NAN</DistanceMeters>
          </Trackpoint>
          <Trackpoint>
            <Time>2022-07-05T07:17:13.000Z</Time>
            <Position>
              <LatitudeDegrees>44.52887845225632190704345703125</LatitudeDegrees>
              <LongitudeDegrees>-1.25506100244820117950439453125</LongitudeDegrees>
            </Position>
            <AltitudeMeters>30</AltitudeMeters>
            <DistanceMeters>NAN</DistanceMeters>
          </Trackpoint>
          <Trackpoint>
            <Time>2022-07-05T07:17:17.000Z</Time>
            <Position>
              <LatitudeDegrees>44.52886403538286685943603515625</LatitudeDegrees>
              <LongitudeDegrees>-1.25522310845553874969482421875</LongitudeDegrees>
            </Position>
            <AltitudeMeters>30</AltitudeMeters>
            <DistanceMeters>NAN</DistanceMeters>
          </Trackpoint>
          <Trackpoint>
            <Time>2022-07-05T07:17:20.000Z</Time>
            <Position>
              <LatitudeDegrees>44.5288533903658390045166015625</LatitudeDegrees>
              <LongitudeDegrees>-1.25531136989593505859375</LongitudeDegrees>
            </Position>
            <AltitudeMeters>30.200000762939453125</AltitudeMeters>
            <DistanceMeters>NAN</DistanceMeters>
          </Trackpoint>
          <Trackpoint>
            <Time>2022-07-05T07:17:24.000Z</Time>
            <Position>
              <LatitudeDegrees>44.5288289152085781097412109375</LatitudeDegrees>
              <LongitudeDegrees>-1.2554198317229747772216796875</LongitudeDegrees>
            </Position>
            <AltitudeMeters>30.6000003814697265625</AltitudeMeters>
            <DistanceMeters>NAN</DistanceMeters>
          </Trackpoint>
          <Trackpoint>
            <Time>2022-07-05T07:17:25.000Z</Time>
            <Position>
              <LatitudeDegrees>44.5288188569247722625732421875</LatitudeDegrees>
              <LongitudeDegrees>-1.2554473243653774261474609375</LongitudeDegrees>
            </Position>
            <AltitudeMeters>30.6000003814697265625</AltitudeMeters>
            <DistanceMeters>NAN</DistanceMeters>
          </Trackpoint>
          <Trackpoint>
            <Time>2022-07-05T07:17:31.000Z</Time>
            <Position>
              <LatitudeDegrees>44.528764374554157257080078125</LatitudeDegrees>
              <LongitudeDegrees>-1.2556065805256366729736328125</LongitudeDegrees>
            </Position>
            <AltitudeMeters>30.3999996185302734375</AltitudeMeters>
            <DistanceMeters>NAN</DistanceMeters>
          </Trackpoint>
          <Trackpoint>
            <Time>2022-07-05T07:17:35.000Z</Time>
            <Position>
              <LatitudeDegrees>44.5287390612065792083740234375</LatitudeDegrees>
              <LongitudeDegrees>-1.25570707954466342926025390625</LongitudeDegrees>
            </Position>
            <AltitudeMeters>30</AltitudeMeters>
            <DistanceMeters>NAN</DistanceMeters>
          </Trackpoint>
          <Trackpoint>
            <Time>2022-07-05T07:17:40.000Z</Time>
            <Position>
              <LatitudeDegrees>44.528691284358501434326171875</LatitudeDegrees>
              <LongitudeDegrees>-1.25593565404415130615234375</LongitudeDegrees>
            </Position>
            <AltitudeMeters>29</AltitudeMeters>
            <DistanceMeters>NAN</DistanceMeters>
          </Trackpoint>
          <Trackpoint>
            <Time>2022-07-05T07:17:43.000Z</Time>
            <Position>
              <LatitudeDegrees>44.5286756940186023712158203125</LatitudeDegrees>
              <LongitudeDegrees>-1.25605769455432891845703125</LongitudeDegrees>
            </Position>
            <AltitudeMeters>28.6000003814697265625</AltitudeMeters>
            <DistanceMeters>NAN</DistanceMeters>
          </Trackpoint>
          <Trackpoint>
            <Time>2022-07-05T07:17:50.000Z</Time>
            <Position>
              <LatitudeDegrees>44.52869187109172344207763671875</LatitudeDegrees>
              <LongitudeDegrees>-1.256316192448139190673828125</LongitudeDegrees>
            </Position>
            <AltitudeMeters>28</AltitudeMeters>
            <DistanceMeters>NAN</DistanceMeters>
          </Trackpoint>
          <Trackpoint>
            <Time>2022-07-05T07:17:51.000Z</Time>
            <Position>
              <LatitudeDegrees>44.52869857661426067352294921875</LatitudeDegrees>
              <LongitudeDegrees>-1.25634812749922275543212890625</LongitudeDegrees>
            </Position>
            <AltitudeMeters>28</AltitudeMeters>
            <DistanceMeters>NAN</DistanceMeters>
          </Trackpoint>
          <Trackpoint>
            <Time>2022-07-05T07:17:57.000Z</Time>
            <Position>
              <LatitudeDegrees>44.528720788657665252685546875</LatitudeDegrees>
              <LongitudeDegrees>-1.2564508058130741119384765625</LongitudeDegrees>
            </Position>
            <AltitudeMeters>27.200000762939453125</AltitudeMeters>
            <DistanceMeters>NAN</DistanceMeters>
          </Trackpoint>
          <Trackpoint>
            <Time>2022-07-05T07:17:58.000Z</Time>
            <Position>
              <LatitudeDegrees>44.528720788657665252685546875</LatitudeDegrees>
              <LongitudeDegrees>-1.2564508058130741119384765625</LongitudeDegrees>
            </Position>
            <AltitudeMeters>27</AltitudeMeters>
            <DistanceMeters>NAN</DistanceMeters>
          </Trackpoint>
          <Trackpoint>
            <Time>2022-07-05T07:48:17.000Z</Time>
            <Position>
              <LatitudeDegrees>44.52870662324130535125732421875</LatitudeDegrees>
              <LongitudeDegrees>-1.2561428546905517578125</LongitudeDegrees>
            </Position>
            <AltitudeMeters>21.799999237060546875</AltitudeMeters>
            <DistanceMeters>NAN</DistanceMeters>
          </Trackpoint>
          <Trackpoint>
            <Time>2022-07-05T07:48:18.000Z</Time>
            <Position>
              <LatitudeDegrees>44.52870310284197330474853515625</LatitudeDegrees>
              <LongitudeDegrees>-1.2561146914958953857421875</LongitudeDegrees>
            </Position>
            <AltitudeMeters>21.799999237060546875</AltitudeMeters>
            <DistanceMeters>NAN</DistanceMeters>
          </Trackpoint>
          <Trackpoint>
            <Time>2022-07-05T07:48:20.000Z</Time>
            <Position>
              <LatitudeDegrees>44.52870058827102184295654296875</LatitudeDegrees>
              <LongitudeDegrees>-1.2560598738491535186767578125</LongitudeDegrees>
            </Position>
            <AltitudeMeters>21.799999237060546875</AltitudeMeters>
            <DistanceMeters>NAN</DistanceMeters>
          </Trackpoint>
          <Trackpoint>
            <Time>2022-07-05T07:48:27.000Z</Time>
            <Position>
              <LatitudeDegrees>44.528717435896396636962890625</LatitudeDegrees>
              <LongitudeDegrees>-1.25585460104048252105712890625</LongitudeDegrees>
            </Position>
            <AltitudeMeters>22.200000762939453125</AltitudeMeters>
            <DistanceMeters>NAN</DistanceMeters>
          </Trackpoint>
          <Trackpoint>
            <Time>2022-07-05T07:48:32.000Z</Time>
            <Position>
              <LatitudeDegrees>44.52873663045465946197509765625</LatitudeDegrees>
              <LongitudeDegrees>-1.255746223032474517822265625</LongitudeDegrees>
            </Position>
            <AltitudeMeters>22.6000003814697265625</AltitudeMeters>
            <DistanceMeters>NAN</DistanceMeters>
          </Trackpoint>
          <Trackpoint>
            <Time>2022-07-05T07:48:35.000Z</Time>
            <Position>
              <LatitudeDegrees>44.52874383889138698577880859375</LatitudeDegrees>
              <LongitudeDegrees>-1.2556823529303073883056640625</LongitudeDegrees>
            </Position>
            <AltitudeMeters>22.799999237060546875</AltitudeMeters>
            <DistanceMeters>NAN</DistanceMeters>
          </Trackpoint>
          <Trackpoint>
            <Time>2022-07-05T07:48:38.000Z</Time>
            <Position>
              <LatitudeDegrees>44.5287541486322879791259765625</LatitudeDegrees>
              <LongitudeDegrees>-1.2556186504662036895751953125</LongitudeDegrees>
            </Position>
            <AltitudeMeters>23</AltitudeMeters>
            <DistanceMeters>NAN</DistanceMeters>
          </Trackpoint>
          <Trackpoint>
            <Time>2022-07-05T07:48:46.000Z</Time>
            <Position>
              <LatitudeDegrees>44.5287923701107501983642578125</LatitudeDegrees>
              <LongitudeDegrees>-1.2554858811199665069580078125</LongitudeDegrees>
            </Position>
            <AltitudeMeters>23.3999996185302734375</AltitudeMeters>
            <DistanceMeters>NAN</DistanceMeters>
          </Trackpoint>
          <Trackpoint>
            <Time>2022-07-05T07:48:55.000Z</Time>
            <Position>
              <LatitudeDegrees>44.5288621075451374053955078125</LatitudeDegrees>
              <LongitudeDegrees>-1.25525848008692264556884765625</LongitudeDegrees>
            </Position>
            <AltitudeMeters>23.3999996185302734375</AltitudeMeters>
            <DistanceMeters>NAN</DistanceMeters>
          </Trackpoint>
          <Trackpoint>
            <Time>2022-07-05T07:49:02.000Z</Time>
            <Position>
              <LatitudeDegrees>44.52887778170406818389892578125</LatitudeDegrees>
              <LongitudeDegrees>-1.25500626862049102783203125</LongitudeDegrees>
            </Position>
            <AltitudeMeters>23.200000762939453125</AltitudeMeters>
            <DistanceMeters>NAN</DistanceMeters>
          </Trackpoint>
          <Trackpoint>
            <Time>2022-07-05T07:49:07.000Z</Time>
            <Position>
              <LatitudeDegrees>44.528879038989543914794921875</LatitudeDegrees>
              <LongitudeDegrees>-1.25478406436741352081298828125</LongitudeDegrees>
            </Position>
            <AltitudeMeters>23</AltitudeMeters>
            <DistanceMeters>NAN</DistanceMeters>
          </Trackpoint>
          <Trackpoint>
            <Time>2022-07-05T07:49:09.000Z</Time>
            <Position>
              <LatitudeDegrees>44.52888079918920993804931640625</LatitudeDegrees>
              <LongitudeDegrees>-1.25469018705189228057861328125</LongitudeDegrees>
            </Position>
            <AltitudeMeters>22.799999237060546875</AltitudeMeters>
            <DistanceMeters>NAN</DistanceMeters>
          </Trackpoint>
          <Trackpoint>
            <Time>2022-07-05T07:49:12.000Z</Time>
            <Position>
              <LatitudeDegrees>44.52889001928269863128662109375</LatitudeDegrees>
              <LongitudeDegrees>-1.25463503412902355194091796875</LongitudeDegrees>
            </Position>
            <AltitudeMeters>22.6000003814697265625</AltitudeMeters>
            <DistanceMeters>NAN</DistanceMeters>
          </Trackpoint>
          <Trackpoint>
            <Time>2022-07-05T07:49:13.000Z</Time>
            <Position>
              <LatitudeDegrees>44.52889001928269863128662109375</LatitudeDegrees>
              <LongitudeDegrees>-1.25463503412902355194091796875</LongitudeDegrees>
            </Position>
            <AltitudeMeters>22.3999996185302734375</AltitudeMeters>
            <DistanceMeters>NAN</DistanceMeters>
          </Trackpoint>
          <Trackpoint>
            <Time>2022-07-05T07:49:53.000Z</Time>
            <Position>
              <LatitudeDegrees>44.52888884581625461578369140625</LatitudeDegrees>
              <LongitudeDegrees>-1.2546027638018131256103515625</LongitudeDegrees>
            </Position>
            <AltitudeMeters>21.799999237060546875</AltitudeMeters>
            <DistanceMeters>NAN</DistanceMeters>
          </Trackpoint>
          <Trackpoint>
            <Time>2022-07-05T07:49:54.000Z</Time>
            <Position>
              <LatitudeDegrees>44.52888934873044490814208984375</LatitudeDegrees>
              <LongitudeDegrees>-1.25456764362752437591552734375</LongitudeDegrees>
            </Position>
            <AltitudeMeters>21.6000003814697265625</AltitudeMeters>
            <DistanceMeters>NAN</DistanceMeters>
          </Trackpoint>
          <Trackpoint>
            <Time>2022-07-05T07:49:55.000Z</Time>
            <Position>
              <LatitudeDegrees>44.52888767234981060028076171875</LatitudeDegrees>
              <LongitudeDegrees>-1.25452422536909580230712890625</LongitudeDegrees>
            </Position>
            <AltitudeMeters>21.6000003814697265625</AltitudeMeters>
            <DistanceMeters>NAN</DistanceMeters>
          </Trackpoint>
          <Trackpoint>
            <Time>2022-07-05T07:50:00.000Z</Time>
            <Position>
              <LatitudeDegrees>44.52890493907034397125244140625</LatitudeDegrees>
              <LongitudeDegrees>-1.2541853450238704681396484375</LongitudeDegrees>
            </Position>
            <AltitudeMeters>20.799999237060546875</AltitudeMeters>
            <DistanceMeters>NAN</DistanceMeters>
          </Trackpoint>
          <Trackpoint>
            <Time>2022-07-05T07:50:01.000Z</Time>
            <Position>
              <LatitudeDegrees>44.52890493907034397125244140625</LatitudeDegrees>
              <LongitudeDegrees>-1.2541853450238704681396484375</LongitudeDegrees>
            </Position>
            <AltitudeMeters>20.6000003814697265625</AltitudeMeters>
            <DistanceMeters>NAN</DistanceMeters>
          </Trackpoint>
          <Trackpoint>
            <Time>2022-07-05T07:50:03.000Z</Time>
            <Position>
              <LatitudeDegrees>44.52891114167869091033935546875</LatitudeDegrees>
              <LongitudeDegrees>-1.2539462931454181671142578125</LongitudeDegrees>
            </Position>
            <AltitudeMeters>20.200000762939453125</AltitudeMeters>
            <DistanceMeters>NAN</DistanceMeters>
          </Trackpoint>
          <Trackpoint>
            <Time>2022-07-05T07:50:07.000Z</Time>
            <Position>
              <LatitudeDegrees>44.52890477143228054046630859375</LatitudeDegrees>
              <LongitudeDegrees>-1.2536988593637943267822265625</LongitudeDegrees>
            </Position>
            <AltitudeMeters>20</AltitudeMeters>
            <DistanceMeters>NAN</DistanceMeters>
          </Trackpoint>
          <Trackpoint>
            <Time>2022-07-05T07:50:11.000Z</Time>
            <Position>
              <LatitudeDegrees>44.52891600318253040313720703125</LatitudeDegrees>
              <LongitudeDegrees>-1.25353247858583927154541015625</LongitudeDegrees>
            </Position>
            <AltitudeMeters>20.3999996185302734375</AltitudeMeters>
            <DistanceMeters>NAN</DistanceMeters>
          </Trackpoint>
          <Trackpoint>
            <Time>2022-07-05T07:50:12.000Z</Time>
            <Position>
              <LatitudeDegrees>44.5289177633821964263916015625</LatitudeDegrees>
              <LongitudeDegrees>-1.2535037286579608917236328125</LongitudeDegrees>
            </Position>
            <AltitudeMeters>20.799999237060546875</AltitudeMeters>
            <DistanceMeters>NAN</DistanceMeters>
          </Trackpoint>
          <Trackpoint>
            <Time>2022-07-05T07:50:17.000Z</Time>
            <Position>
              <LatitudeDegrees>44.52891717664897441864013671875</LatitudeDegrees>
              <LongitudeDegrees>-1.2534088455140590667724609375</LongitudeDegrees>
            </Position>
            <AltitudeMeters>21.3999996185302734375</AltitudeMeters>
            <DistanceMeters>NAN</DistanceMeters>
          </Trackpoint>
          <Trackpoint>
            <Time>2022-07-05T07:50:19.000Z</Time>
            <Position>
              <LatitudeDegrees>44.52891684137284755706787109375</LatitudeDegrees>
              <LongitudeDegrees>-1.25337171368300914764404296875</LongitudeDegrees>
            </Position>
            <AltitudeMeters>21.799999237060546875</AltitudeMeters>
            <DistanceMeters>NAN</DistanceMeters>
          </Trackpoint>
          <Trackpoint>
            <Time>2022-07-05T07:50:23.000Z</Time>
            <Position>
              <LatitudeDegrees>44.52891868539154529571533203125</LatitudeDegrees>
              <LongitudeDegrees>-1.25330650247633457183837890625</LongitudeDegrees>
            </Position>
            <AltitudeMeters>22.200000762939453125</AltitudeMeters>
            <DistanceMeters>NAN</DistanceMeters>
          </Trackpoint>
          <Trackpoint>
            <Time>2022-07-05T07:50:29.000Z</Time>
            <Position>
              <LatitudeDegrees>44.5289214514195919036865234375</LatitudeDegrees>
              <LongitudeDegrees>-1.2531845457851886749267578125</LongitudeDegrees>
            </Position>
            <AltitudeMeters>22.799999237060546875</AltitudeMeters>
            <DistanceMeters>NAN</DistanceMeters>
          </Trackpoint>
          <Trackpoint>
            <Time>2022-07-05T07:50:31.000Z</Time>
            <Position>
              <LatitudeDegrees>44.52892472036182880401611328125</LatitudeDegrees>
              <LongitudeDegrees>-1.2531480006873607635498046875</LongitudeDegrees>
            </Position>
            <AltitudeMeters>23</AltitudeMeters>
            <DistanceMeters>NAN</DistanceMeters>
          </Trackpoint>
          <Trackpoint>
            <Time>2022-07-05T07:50:37.000Z</Time>
            <Position>
              <LatitudeDegrees>44.5289385505020618438720703125</LatitudeDegrees>
              <LongitudeDegrees>-1.2530343420803546905517578125</LongitudeDegrees>
            </Position>
            <AltitudeMeters>23.6000003814697265625</AltitudeMeters>
            <DistanceMeters>NAN</DistanceMeters>
          </Trackpoint>
          <Trackpoint>
            <Time>2022-07-05T07:50:38.000Z</Time>
            <Position>
              <LatitudeDegrees>44.52894081361591815948486328125</LatitudeDegrees>
              <LongitudeDegrees>-1.25301741063594818115234375</LongitudeDegrees>
            </Position>
            <AltitudeMeters>23.799999237060546875</AltitudeMeters>
            <DistanceMeters>NAN</DistanceMeters>
          </Trackpoint>
          <Trackpoint>
            <Time>2022-07-05T07:50:46.000Z</Time>
            <Position>
              <LatitudeDegrees>44.5289419032633304595947265625</LatitudeDegrees>
              <LongitudeDegrees>-1.252867877483367919921875</LongitudeDegrees>
            </Position>
            <AltitudeMeters>25</AltitudeMeters>
            <DistanceMeters>NAN</DistanceMeters>
          </Trackpoint>
          <Trackpoint>
            <Time>2022-07-05T07:50:47.000Z</Time>
            <Position>
              <LatitudeDegrees>44.52894114889204502105712890625</LatitudeDegrees>
              <LongitudeDegrees>-1.2528465874493122100830078125</LongitudeDegrees>
            </Position>
            <AltitudeMeters>25.200000762939453125</AltitudeMeters>
            <DistanceMeters>NAN</DistanceMeters>
          </Trackpoint>
          <Trackpoint>
            <Time>2022-07-05T07:50:52.000Z</Time>
            <Position>
              <LatitudeDegrees>44.5289452560245990753173828125</LatitudeDegrees>
              <LongitudeDegrees>-1.25274592079222202301025390625</LongitudeDegrees>
            </Position>
            <AltitudeMeters>25.799999237060546875</AltitudeMeters>
            <DistanceMeters>NAN</DistanceMeters>
          </Trackpoint>
          <Trackpoint>
            <Time>2022-07-05T07:50:54.000Z</Time>
            <Position>
              <LatitudeDegrees>44.52894500456750392913818359375</LatitudeDegrees>
              <LongitudeDegrees>-1.25270552001893520355224609375</LongitudeDegrees>
            </Position>
            <AltitudeMeters>26</AltitudeMeters>
            <DistanceMeters>NAN</DistanceMeters>
          </Trackpoint>
          <Trackpoint>
            <Time>2022-07-05T07:51:02.000Z</Time>
            <Position>
              <LatitudeDegrees>44.528947435319423675537109375</LatitudeDegrees>
              <LongitudeDegrees>-1.25254240818321704864501953125</LongitudeDegrees>
            </Position>
            <AltitudeMeters>27</AltitudeMeters>
            <DistanceMeters>NAN</DistanceMeters>
          </Trackpoint>
          <Trackpoint>
            <Time>2022-07-05T07:51:10.000Z</Time>
            <Position>
              <LatitudeDegrees>44.528952129185199737548828125</LatitudeDegrees>
              <LongitudeDegrees>-1.25239505432546138763427734375</LongitudeDegrees>
            </Position>
            <AltitudeMeters>27.799999237060546875</AltitudeMeters>
            <DistanceMeters>NAN</DistanceMeters>
          </Trackpoint>
          <Trackpoint>
            <Time>2022-07-05T07:51:11.000Z</Time>
            <Position>
              <LatitudeDegrees>44.52895271591842174530029296875</LatitudeDegrees>
              <LongitudeDegrees>-1.25237812288105487823486328125</LongitudeDegrees>
            </Position>
            <AltitudeMeters>28</AltitudeMeters>
            <DistanceMeters>NAN</DistanceMeters>
          </Trackpoint>
          <Trackpoint>
            <Time>2022-07-05T07:51:19.000Z</Time>
            <Position>
              <LatitudeDegrees>44.52896721661090850830078125</LatitudeDegrees>
              <LongitudeDegrees>-1.25220076180994510650634765625</LongitudeDegrees>
            </Position>
            <AltitudeMeters>28.6000003814697265625</AltitudeMeters>
            <DistanceMeters>NAN</DistanceMeters>
          </Trackpoint>
          <Trackpoint>
            <Time>2022-07-05T07:51:20.000Z</Time>
            <Position>
              <LatitudeDegrees>44.52896847389638423919677734375</LatitudeDegrees>
              <LongitudeDegrees>-1.252178885042667388916015625</LongitudeDegrees>
            </Position>
            <AltitudeMeters>28.6000003814697265625</AltitudeMeters>
            <DistanceMeters>NAN</DistanceMeters>
          </Trackpoint>
          <Trackpoint>
            <Time>2022-07-05T07:51:26.000Z</Time>
            <Position>
              <LatitudeDegrees>44.5289640314877033233642578125</LatitudeDegrees>
              <LongitudeDegrees>-1.2520151026546955108642578125</LongitudeDegrees>
            </Position>
            <AltitudeMeters>28.3999996185302734375</AltitudeMeters>
            <DistanceMeters>NAN</DistanceMeters>
          </Trackpoint>
          <Trackpoint>
            <Time>2022-07-05T07:51:28.000Z</Time>
            <Position>
              <LatitudeDegrees>44.528963528573513031005859375</LatitudeDegrees>
              <LongitudeDegrees>-1.25193136744201183319091796875</LongitudeDegrees>
            </Position>
            <AltitudeMeters>28.200000762939453125</AltitudeMeters>
            <DistanceMeters>NAN</DistanceMeters>
          </Trackpoint>
          <Trackpoint>
            <Time>2022-07-05T07:51:29.000Z</Time>
            <Position>
              <LatitudeDegrees>44.5289650373160839080810546875</LatitudeDegrees>
              <LongitudeDegrees>-1.25188275240361690521240234375</LongitudeDegrees>
            </Position>
            <AltitudeMeters>28</AltitudeMeters>
            <DistanceMeters>NAN</DistanceMeters>
          </Trackpoint>
          <Trackpoint>
            <Time>2022-07-05T07:51:33.000Z</Time>
            <Position>
              <LatitudeDegrees>44.5289697311818599700927734375</LatitudeDegrees>
              <LongitudeDegrees>-1.25165023840963840484619140625</LongitudeDegrees>
            </Position>
            <AltitudeMeters>27.3999996185302734375</AltitudeMeters>
            <DistanceMeters>NAN</DistanceMeters>
          </Trackpoint>
          <Trackpoint>
            <Time>2022-07-05T07:51:35.000Z</Time>
            <Position>
              <LatitudeDegrees>44.52896059490740299224853515625</LatitudeDegrees>
              <LongitudeDegrees>-1.2515259347856044769287109375</LongitudeDegrees>
            </Position>
            <AltitudeMeters>26.799999237060546875</AltitudeMeters>
            <DistanceMeters>NAN</DistanceMeters>
          </Trackpoint>
          <Trackpoint>
            <Time>2022-07-05T07:51:40.000Z</Time>
            <Position>
              <LatitudeDegrees>44.5289476029574871063232421875</LatitudeDegrees>
              <LongitudeDegrees>-1.2512610666453838348388671875</LongitudeDegrees>
            </Position>
            <AltitudeMeters>25.6000003814697265625</AltitudeMeters>
            <DistanceMeters>NAN</DistanceMeters>
          </Trackpoint>
          <Trackpoint>
            <Time>2022-07-05T07:51:43.000Z</Time>
            <Position>
              <LatitudeDegrees>44.52894265763461589813232421875</LatitudeDegrees>
              <LongitudeDegrees>-1.25105562619864940643310546875</LongitudeDegrees>
            </Position>
            <AltitudeMeters>25.200000762939453125</AltitudeMeters>
            <DistanceMeters>NAN</DistanceMeters>
          </Trackpoint>
          <Trackpoint>
            <Time>2022-07-05T07:51:44.000Z</Time>
            <Position>
              <LatitudeDegrees>44.5289378799498081207275390625</LatitudeDegrees>
              <LongitudeDegrees>-1.25090190209448337554931640625</LongitudeDegrees>
            </Position>
            <AltitudeMeters>24.6000003814697265625</AltitudeMeters>
            <DistanceMeters>NAN</DistanceMeters>
          </Trackpoint>
          <Trackpoint>
            <Time>2022-07-05T07:51:46.000Z</Time>
            <Position>
              <LatitudeDegrees>44.5289362035691738128662109375</LatitudeDegrees>
              <LongitudeDegrees>-1.250840127468109130859375</LongitudeDegrees>
            </Position>
            <AltitudeMeters>23.3999996185302734375</AltitudeMeters>
            <DistanceMeters>NAN</DistanceMeters>
          </Trackpoint>
          <Trackpoint>
            <Time>2022-07-05T07:51:48.000Z</Time>
            <Position>
              <LatitudeDegrees>44.52891902066767215728759765625</LatitudeDegrees>
              <LongitudeDegrees>-1.2505952082574367523193359375</LongitudeDegrees>
            </Position>
            <AltitudeMeters>22.3999996185302734375</AltitudeMeters>
            <DistanceMeters>NAN</DistanceMeters>
          </Trackpoint>
          <Trackpoint>
            <Time>2022-07-05T07:51:49.000Z</Time>
            <Position>
              <LatitudeDegrees>44.52891902066767215728759765625</LatitudeDegrees>
              <LongitudeDegrees>-1.2505952082574367523193359375</LongitudeDegrees>
            </Position>
            <AltitudeMeters>21.6000003814697265625</AltitudeMeters>
            <DistanceMeters>NAN</DistanceMeters>
          </Trackpoint>
          <Trackpoint>
            <Time>2022-07-05T07:51:50.000Z</Time>
            <Position>
              <LatitudeDegrees>44.52891482971608638763427734375</LatitudeDegrees>
              <LongitudeDegrees>-1.2504191882908344268798828125</LongitudeDegrees>
            </Position>
            <AltitudeMeters>21</AltitudeMeters>
            <DistanceMeters>NAN</DistanceMeters>
          </Trackpoint>
          <Trackpoint>
            <Time>2022-07-05T07:51:52.000Z</Time>
            <Position>
              <LatitudeDegrees>44.528909884393215179443359375</LatitudeDegrees>
              <LongitudeDegrees>-1.2502461858093738555908203125</LongitudeDegrees>
            </Position>
            <AltitudeMeters>19.799999237060546875</AltitudeMeters>
            <DistanceMeters>NAN</DistanceMeters>
          </Trackpoint>
          <Trackpoint>
            <Time>2022-07-05T07:51:54.000Z</Time>
            <Position>
              <LatitudeDegrees>44.52890477143228054046630859375</LatitudeDegrees>
              <LongitudeDegrees>-1.25008852221071720123291015625</LongitudeDegrees>
            </Position>
            <AltitudeMeters>18.6000003814697265625</AltitudeMeters>
            <DistanceMeters>NAN</DistanceMeters>
          </Trackpoint>
          <Trackpoint>
            <Time>2022-07-05T07:51:55.000Z</Time>
            <Position>
              <LatitudeDegrees>44.5289043523371219635009765625</LatitudeDegrees>
              <LongitudeDegrees>-1.25001945532858371734619140625</LongitudeDegrees>
            </Position>
            <AltitudeMeters>18.200000762939453125</AltitudeMeters>
            <DistanceMeters>NAN</DistanceMeters>
          </Trackpoint>
          <Trackpoint>
            <Time>2022-07-05T07:51:58.000Z</Time>
            <Position>
              <LatitudeDegrees>44.52891415916383266448974609375</LatitudeDegrees>
              <LongitudeDegrees>-1.24983957968652248382568359375</LongitudeDegrees>
            </Position>
            <AltitudeMeters>17.3999996185302734375</AltitudeMeters>
            <DistanceMeters>NAN</DistanceMeters>
          </Trackpoint>
          <Trackpoint>
            <Time>2022-07-05T07:52:00.000Z</Time>
            <Position>
              <LatitudeDegrees>44.5289184339344501495361328125</LatitudeDegrees>
              <LongitudeDegrees>-1.24975089915096759796142578125</LongitudeDegrees>
            </Position>
            <AltitudeMeters>17.200000762939453125</AltitudeMeters>
            <DistanceMeters>NAN</DistanceMeters>
          </Trackpoint>
          <Trackpoint>
            <Time>2022-07-05T07:52:04.000Z</Time>
            <Position>
              <LatitudeDegrees>44.528899155557155609130859375</LatitudeDegrees>
              <LongitudeDegrees>-1.24968476593494415283203125</LongitudeDegrees>
            </Position>
            <AltitudeMeters>17</AltitudeMeters>
            <DistanceMeters>NAN</DistanceMeters>
          </Trackpoint>
          <Trackpoint>
            <Time>2022-07-05T07:52:06.000Z</Time>
            <Position>
              <LatitudeDegrees>44.52886705286800861358642578125</LatitudeDegrees>
              <LongitudeDegrees>-1.24965769238770008087158203125</LongitudeDegrees>
            </Position>
            <AltitudeMeters>17</AltitudeMeters>
            <DistanceMeters>NAN</DistanceMeters>
          </Trackpoint>
          <Trackpoint>
            <Time>2022-07-05T07:52:09.000Z</Time>
            <Position>
              <LatitudeDegrees>44.5288141630589962005615234375</LatitudeDegrees>
              <LongitudeDegrees>-1.24964863993227481842041015625</LongitudeDegrees>
            </Position>
            <AltitudeMeters>16.799999237060546875</AltitudeMeters>
            <DistanceMeters>NAN</DistanceMeters>
          </Trackpoint>
          <Trackpoint>
            <Time>2022-07-05T07:52:18.000Z</Time>
            <Position>
              <LatitudeDegrees>44.52860922552645206451416015625</LatitudeDegrees>
              <LongitudeDegrees>-1.2496507354080677032470703125</LongitudeDegrees>
            </Position>
            <AltitudeMeters>16.799999237060546875</AltitudeMeters>
            <DistanceMeters>NAN</DistanceMeters>
          </Trackpoint>
          <Trackpoint>
            <Time>2022-07-05T07:52:21.000Z</Time>
            <Position>
              <LatitudeDegrees>44.52852155081927776336669921875</LatitudeDegrees>
              <LongitudeDegrees>-1.24965182505548000335693359375</LongitudeDegrees>
            </Position>
            <AltitudeMeters>16.799999237060546875</AltitudeMeters>
            <DistanceMeters>NAN</DistanceMeters>
          </Trackpoint>
          <Trackpoint>
            <Time>2022-07-05T07:52:25.000Z</Time>
            <Position>
              <LatitudeDegrees>44.52842465601861476898193359375</LatitudeDegrees>
              <LongitudeDegrees>-1.24965886585414409637451171875</LongitudeDegrees>
            </Position>
            <AltitudeMeters>16.799999237060546875</AltitudeMeters>
            <DistanceMeters>NAN</DistanceMeters>
          </Trackpoint>
          <Trackpoint>
            <Time>2022-07-05T07:52:26.000Z</Time>
            <Position>
              <LatitudeDegrees>44.5284004323184490203857421875</LatitudeDegrees>
              <LongitudeDegrees>-1.2496604584157466888427734375</LongitudeDegrees>
            </Position>
            <AltitudeMeters>16.799999237060546875</AltitudeMeters>
            <DistanceMeters>NAN</DistanceMeters>
          </Trackpoint>
          <Trackpoint>
            <Time>2022-07-05T07:52:33.000Z</Time>
            <Position>
              <LatitudeDegrees>44.52821292914450168609619140625</LatitudeDegrees>
              <LongitudeDegrees>-1.24964310787618160247802734375</LongitudeDegrees>
            </Position>
            <AltitudeMeters>17</AltitudeMeters>
            <DistanceMeters>NAN</DistanceMeters>
          </Trackpoint>
          <Trackpoint>
            <Time>2022-07-05T07:52:40.000Z</Time>
            <Position>
              <LatitudeDegrees>44.528020061552524566650390625</LatitudeDegrees>
              <LongitudeDegrees>-1.24958057887852191925048828125</LongitudeDegrees>
            </Position>
            <AltitudeMeters>16.799999237060546875</AltitudeMeters>
            <DistanceMeters>NAN</DistanceMeters>
          </Trackpoint>
          <Trackpoint>
            <Time>2022-07-05T07:52:45.000Z</Time>
            <Position>
              <LatitudeDegrees>44.52779710292816162109375</LatitudeDegrees>
              <LongitudeDegrees>-1.2494894675910472869873046875</LongitudeDegrees>
            </Position>
            <AltitudeMeters>16.799999237060546875</AltitudeMeters>
            <DistanceMeters>NAN</DistanceMeters>
          </Trackpoint>
          <Trackpoint>
            <Time>2022-07-05T07:52:51.000Z</Time>
            <Position>
              <LatitudeDegrees>44.52765402384102344512939453125</LatitudeDegrees>
              <LongitudeDegrees>-1.24929123558104038238525390625</LongitudeDegrees>
            </Position>
            <AltitudeMeters>17</AltitudeMeters>
            <DistanceMeters>NAN</DistanceMeters>
          </Trackpoint>
          <Trackpoint>
            <Time>2022-07-05T07:52:58.000Z</Time>
            <Position>
              <LatitudeDegrees>44.52752955257892608642578125</LatitudeDegrees>
              <LongitudeDegrees>-1.249056793749332427978515625</LongitudeDegrees>
            </Position>
            <AltitudeMeters>17.3999996185302734375</AltitudeMeters>
            <DistanceMeters>NAN</DistanceMeters>
          </Trackpoint>
          <Trackpoint>
            <Time>2022-07-05T07:53:03.000Z</Time>
            <Position>
              <LatitudeDegrees>44.52751069329679012298583984375</LatitudeDegrees>
              <LongitudeDegrees>-1.248925030231475830078125</LongitudeDegrees>
            </Position>
            <AltitudeMeters>17.6000003814697265625</AltitudeMeters>
            <DistanceMeters>NAN</DistanceMeters>
          </Trackpoint>
          <Trackpoint>
            <Time>2022-07-05T07:53:07.000Z</Time>
            <Position>
              <LatitudeDegrees>44.52749602496623992919921875</LatitudeDegrees>
              <LongitudeDegrees>-1.248899884521961212158203125</LongitudeDegrees>
            </Position>
            <AltitudeMeters>17.6000003814697265625</AltitudeMeters>
            <DistanceMeters>NAN</DistanceMeters>
          </Trackpoint>
          <Trackpoint>
            <Time>2022-07-05T07:54:46.000Z</Time>
            <Position>
              <LatitudeDegrees>44.52750482596457004547119140625</LatitudeDegrees>
              <LongitudeDegrees>-1.24868321232497692108154296875</LongitudeDegrees>
            </Position>
            <AltitudeMeters>18.799999237060546875</AltitudeMeters>
            <DistanceMeters>NAN</DistanceMeters>
          </Trackpoint>
          <Trackpoint>
            <Time>2022-07-05T07:54:47.000Z</Time>
            <Position>
              <LatitudeDegrees>44.52750482596457004547119140625</LatitudeDegrees>
              <LongitudeDegrees>-1.24868321232497692108154296875</LongitudeDegrees>
            </Position>
            <AltitudeMeters>18.799999237060546875</AltitudeMeters>
            <DistanceMeters>NAN</DistanceMeters>
          </Trackpoint>
          <Trackpoint>
            <Time>2022-07-05T07:54:51.000Z</Time>
            <Position>
              <LatitudeDegrees>44.52747683040797710418701171875</LatitudeDegrees>
              <LongitudeDegrees>-1.24855899251997470855712890625</LongitudeDegrees>
            </Position>
            <AltitudeMeters>19</AltitudeMeters>
            <DistanceMeters>NAN</DistanceMeters>
          </Trackpoint>
          <Trackpoint>
            <Time>2022-07-05T07:54:52.000Z</Time>
            <Position>
              <LatitudeDegrees>44.5274733938276767730712890625</LatitudeDegrees>
              <LongitudeDegrees>-1.2485238723456859588623046875</LongitudeDegrees>
            </Position>
            <AltitudeMeters>19.200000762939453125</AltitudeMeters>
            <DistanceMeters>NAN</DistanceMeters>
          </Trackpoint>
          <Trackpoint>
            <Time>2022-07-05T07:54:58.000Z</Time>
            <Position>
              <LatitudeDegrees>44.5274656824767589569091796875</LatitudeDegrees>
              <LongitudeDegrees>-1.2483659572899341583251953125</LongitudeDegrees>
            </Position>
            <AltitudeMeters>19.6000003814697265625</AltitudeMeters>
            <DistanceMeters>NAN</DistanceMeters>
          </Trackpoint>
          <Trackpoint>
            <Time>2022-07-05T07:55:04.000Z</Time>
            <Position>
              <LatitudeDegrees>44.52742720954120159149169921875</LatitudeDegrees>
              <LongitudeDegrees>-1.24809865839779376983642578125</LongitudeDegrees>
            </Position>
            <AltitudeMeters>19.799999237060546875</AltitudeMeters>
            <DistanceMeters>NAN</DistanceMeters>
          </Trackpoint>
          <Trackpoint>
            <Time>2022-07-05T07:55:09.000Z</Time>
            <Position>
              <LatitudeDegrees>44.52739653177559375762939453125</LatitudeDegrees>
              <LongitudeDegrees>-1.2478829920291900634765625</LongitudeDegrees>
            </Position>
            <AltitudeMeters>20</AltitudeMeters>
            <DistanceMeters>NAN</DistanceMeters>
          </Trackpoint>
          <Trackpoint>
            <Time>2022-07-05T07:55:10.000Z</Time>
            <Position>
              <LatitudeDegrees>44.52739007771015167236328125</LatitudeDegrees>
              <LongitudeDegrees>-1.24786128289997577667236328125</LongitudeDegrees>
            </Position>
            <AltitudeMeters>20</AltitudeMeters>
            <DistanceMeters>NAN</DistanceMeters>
          </Trackpoint>
          <Trackpoint>
            <Time>2022-07-05T07:55:17.000Z</Time>
            <Position>
              <LatitudeDegrees>44.52729594893753528594970703125</LatitudeDegrees>
              <LongitudeDegrees>-1.24759390018880367279052734375</LongitudeDegrees>
            </Position>
            <AltitudeMeters>20</AltitudeMeters>
            <DistanceMeters>NAN</DistanceMeters>
          </Trackpoint>
          <Trackpoint>
            <Time>2022-07-05T07:55:18.000Z</Time>
            <Position>
              <LatitudeDegrees>44.52729175798594951629638671875</LatitudeDegrees>
              <LongitudeDegrees>-1.2475669942796230316162109375</LongitudeDegrees>
            </Position>
            <AltitudeMeters>20</AltitudeMeters>
            <DistanceMeters>NAN</DistanceMeters>
          </Trackpoint>
          <Trackpoint>
            <Time>2022-07-05T07:55:21.000Z</Time>
            <Position>
              <LatitudeDegrees>44.52727331779897212982177734375</LatitudeDegrees>
              <LongitudeDegrees>-1.24745316803455352783203125</LongitudeDegrees>
            </Position>
            <AltitudeMeters>20</AltitudeMeters>
            <DistanceMeters>NAN</DistanceMeters>
          </Trackpoint>
          <Trackpoint>
            <Time>2022-07-05T07:55:27.000Z</Time>
            <Position>
              <LatitudeDegrees>44.5272024907171726226806640625</LatitudeDegrees>
              <LongitudeDegrees>-1.24720372259616851806640625</LongitudeDegrees>
            </Position>
            <AltitudeMeters>20.6000003814697265625</AltitudeMeters>
            <DistanceMeters>NAN</DistanceMeters>
          </Trackpoint>
          <Trackpoint>
            <Time>2022-07-05T07:55:31.000Z</Time>
            <Position>
              <LatitudeDegrees>44.527161754667758941650390625</LatitudeDegrees>
              <LongitudeDegrees>-1.24702862463891506195068359375</LongitudeDegrees>
            </Position>
            <AltitudeMeters>20.799999237060546875</AltitudeMeters>
            <DistanceMeters>NAN</DistanceMeters>
          </Trackpoint>
          <Trackpoint>
            <Time>2022-07-05T07:55:33.000Z</Time>
            <Position>
              <LatitudeDegrees>44.527126885950565338134765625</LatitudeDegrees>
              <LongitudeDegrees>-1.2469470687210559844970703125</LongitudeDegrees>
            </Position>
            <AltitudeMeters>21</AltitudeMeters>
            <DistanceMeters>NAN</DistanceMeters>
          </Trackpoint>
          <Trackpoint>
            <Time>2022-07-05T07:55:39.000Z</Time>
            <Position>
              <LatitudeDegrees>44.52706863172352313995361328125</LatitudeDegrees>
              <LongitudeDegrees>-1.24667289666831493377685546875</LongitudeDegrees>
            </Position>
            <AltitudeMeters>21.200000762939453125</AltitudeMeters>
            <DistanceMeters>NAN</DistanceMeters>
          </Trackpoint>
          <Trackpoint>
            <Time>2022-07-05T07:55:47.000Z</Time>
            <Position>
              <LatitudeDegrees>44.52693787403404712677001953125</LatitudeDegrees>
              <LongitudeDegrees>-1.2463568150997161865234375</LongitudeDegrees>
            </Position>
            <AltitudeMeters>21.3999996185302734375</AltitudeMeters>
            <DistanceMeters>NAN</DistanceMeters>
          </Trackpoint>
          <Trackpoint>
            <Time>2022-07-05T07:55:54.000Z</Time>
            <Position>
              <LatitudeDegrees>44.52682320959866046905517578125</LatitudeDegrees>
              <LongitudeDegrees>-1.24609605409204959869384765625</LongitudeDegrees>
            </Position>
            <AltitudeMeters>21.799999237060546875</AltitudeMeters>
            <DistanceMeters>NAN</DistanceMeters>
          </Trackpoint>
          <Trackpoint>
            <Time>2022-07-05T07:56:01.000Z</Time>
            <Position>
              <LatitudeDegrees>44.52667602337896823883056640625</LatitudeDegrees>
              <LongitudeDegrees>-1.24586169607937335968017578125</LongitudeDegrees>
            </Position>
            <AltitudeMeters>21.799999237060546875</AltitudeMeters>
            <DistanceMeters>NAN</DistanceMeters>
          </Trackpoint>
          <Trackpoint>
            <Time>2022-07-05T07:56:05.000Z</Time>
            <Position>
              <LatitudeDegrees>44.52656186185777187347412109375</LatitudeDegrees>
              <LongitudeDegrees>-1.24577368609607219696044921875</LongitudeDegrees>
            </Position>
            <AltitudeMeters>22</AltitudeMeters>
            <DistanceMeters>NAN</DistanceMeters>
          </Trackpoint>
          <Trackpoint>
            <Time>2022-07-05T07:56:08.000Z</Time>
            <Position>
              <LatitudeDegrees>44.5264702476561069488525390625</LatitudeDegrees>
              <LongitudeDegrees>-1.245728842914104461669921875</LongitudeDegrees>
            </Position>
            <AltitudeMeters>22</AltitudeMeters>
            <DistanceMeters>NAN</DistanceMeters>
          </Trackpoint>
          <Trackpoint>
            <Time>2022-07-05T07:56:16.000Z</Time>
            <Position>
              <LatitudeDegrees>44.526216275990009307861328125</LatitudeDegrees>
              <LongitudeDegrees>-1.24568366445600986480712890625</LongitudeDegrees>
            </Position>
            <AltitudeMeters>22.200000762939453125</AltitudeMeters>
            <DistanceMeters>NAN</DistanceMeters>
          </Trackpoint>
          <Trackpoint>
            <Time>2022-07-05T07:56:25.000Z</Time>
            <Position>
              <LatitudeDegrees>44.525925256311893463134765625</LatitudeDegrees>
              <LongitudeDegrees>-1.24564778991043567657470703125</LongitudeDegrees>
            </Position>
            <AltitudeMeters>22.3999996185302734375</AltitudeMeters>
            <DistanceMeters>NAN</DistanceMeters>
          </Trackpoint>
          <Trackpoint>
            <Time>2022-07-05T07:56:29.000Z</Time>
            <Position>
              <LatitudeDegrees>44.5258315466344356536865234375</LatitudeDegrees>
              <LongitudeDegrees>-1.24563303776085376739501953125</LongitudeDegrees>
            </Position>
            <AltitudeMeters>22.200000762939453125</AltitudeMeters>
            <DistanceMeters>NAN</DistanceMeters>
          </Trackpoint>
          <Trackpoint>
            <Time>2022-07-05T07:56:32.000Z</Time>
            <Position>
              <LatitudeDegrees>44.52572668902575969696044921875</LatitudeDegrees>
              <LongitudeDegrees>-1.24561191536486148834228515625</LongitudeDegrees>
            </Position>
            <AltitudeMeters>22.200000762939453125</AltitudeMeters>
            <DistanceMeters>NAN</DistanceMeters>
          </Trackpoint>
          <Trackpoint>
            <Time>2022-07-05T07:56:38.000Z</Time>
            <Position>
              <LatitudeDegrees>44.525536000728607177734375</LatitudeDegrees>
              <LongitudeDegrees>-1.24557352624833583831787109375</LongitudeDegrees>
            </Position>
            <AltitudeMeters>22.3999996185302734375</AltitudeMeters>
            <DistanceMeters>NAN</DistanceMeters>
          </Trackpoint>
          <Trackpoint>
            <Time>2022-07-05T07:56:43.000Z</Time>
            <Position>
              <LatitudeDegrees>44.52535159885883331298828125</LatitudeDegrees>
              <LongitudeDegrees>-1.245514936745166778564453125</LongitudeDegrees>
            </Position>
            <AltitudeMeters>22.3999996185302734375</AltitudeMeters>
            <DistanceMeters>NAN</DistanceMeters>
          </Trackpoint>
          <Trackpoint>
            <Time>2022-07-05T07:56:45.000Z</Time>
            <Position>
              <LatitudeDegrees>44.52531496994197368621826171875</LatitudeDegrees>
              <LongitudeDegrees>-1.24551082961261272430419921875</LongitudeDegrees>
            </Position>
            <AltitudeMeters>22.3999996185302734375</AltitudeMeters>
            <DistanceMeters>NAN</DistanceMeters>
          </Trackpoint>
          <Trackpoint>
            <Time>2022-07-05T07:56:51.000Z</Time>
            <Position>
              <LatitudeDegrees>44.52507223002612590789794921875</LatitudeDegrees>
              <LongitudeDegrees>-1.24547260813415050506591796875</LongitudeDegrees>
            </Position>
            <AltitudeMeters>22.799999237060546875</AltitudeMeters>
            <DistanceMeters>NAN</DistanceMeters>
          </Trackpoint>
          <Trackpoint>
            <Time>2022-07-05T07:56:55.000Z</Time>
            <Position>
              <LatitudeDegrees>44.5249323360621929168701171875</LatitudeDegrees>
              <LongitudeDegrees>-1.2454316206276416778564453125</LongitudeDegrees>
            </Position>
            <AltitudeMeters>22.799999237060546875</AltitudeMeters>
            <DistanceMeters>NAN</DistanceMeters>
          </Trackpoint>
          <Trackpoint>
            <Time>2022-07-05T07:56:57.000Z</Time>
            <Position>
              <LatitudeDegrees>44.52484340406954288482666015625</LatitudeDegrees>
              <LongitudeDegrees>-1.24543480575084686279296875</LongitudeDegrees>
            </Position>
            <AltitudeMeters>22.799999237060546875</AltitudeMeters>
            <DistanceMeters>NAN</DistanceMeters>
          </Trackpoint>
          <Trackpoint>
            <Time>2022-07-05T07:56:59.000Z</Time>
            <Position>
              <LatitudeDegrees>44.5247707329690456390380859375</LatitudeDegrees>
              <LongitudeDegrees>-1.24542416073381900787353515625</LongitudeDegrees>
            </Position>
            <AltitudeMeters>22.799999237060546875</AltitudeMeters>
            <DistanceMeters>NAN</DistanceMeters>
          </Trackpoint>
          <Trackpoint>
            <Time>2022-07-05T07:57:05.000Z</Time>
            <Position>
              <LatitudeDegrees>44.52462379820644855499267578125</LatitudeDegrees>
              <LongitudeDegrees>-1.24539163894951343536376953125</LongitudeDegrees>
            </Position>
            <AltitudeMeters>23</AltitudeMeters>
            <DistanceMeters>NAN</DistanceMeters>
          </Trackpoint>
          <Trackpoint>
            <Time>2022-07-05T07:57:10.000Z</Time>
            <Position>
              <LatitudeDegrees>44.5244133286178112030029296875</LatitudeDegrees>
              <LongitudeDegrees>-1.2453669123351573944091796875</LongitudeDegrees>
            </Position>
            <AltitudeMeters>23.200000762939453125</AltitudeMeters>
            <DistanceMeters>NAN</DistanceMeters>
          </Trackpoint>
          <Trackpoint>
            <Time>2022-07-05T07:57:11.000Z</Time>
            <Position>
              <LatitudeDegrees>44.5243627019226551055908203125</LatitudeDegrees>
              <LongitudeDegrees>-1.2453622184693813323974609375</LongitudeDegrees>
            </Position>
            <AltitudeMeters>23.200000762939453125</AltitudeMeters>
            <DistanceMeters>NAN</DistanceMeters>
          </Trackpoint>
          <Trackpoint>
            <Time>2022-07-05T07:57:19.000Z</Time>
            <Position>
              <LatitudeDegrees>44.52400051988661289215087890625</LatitudeDegrees>
              <LongitudeDegrees>-1.2453307025134563446044921875</LongitudeDegrees>
            </Position>
            <AltitudeMeters>23</AltitudeMeters>
            <DistanceMeters>NAN</DistanceMeters>
          </Trackpoint>
          <Trackpoint>
            <Time>2022-07-05T07:57:24.000Z</Time>
            <Position>
              <LatitudeDegrees>44.52384796924889087677001953125</LatitudeDegrees>
              <LongitudeDegrees>-1.24534319154918193817138671875</LongitudeDegrees>
            </Position>
            <AltitudeMeters>23</AltitudeMeters>
            <DistanceMeters>NAN</DistanceMeters>
          </Trackpoint>
          <Trackpoint>
            <Time>2022-07-05T07:57:31.000Z</Time>
            <Position>
              <LatitudeDegrees>44.52365920878946781158447265625</LatitudeDegrees>
              <LongitudeDegrees>-1.245346963405609130859375</LongitudeDegrees>
            </Position>
            <AltitudeMeters>23.200000762939453125</AltitudeMeters>
            <DistanceMeters>NAN</DistanceMeters>
          </Trackpoint>
          <Trackpoint>
            <Time>2022-07-05T07:57:36.000Z</Time>
            <Position>
              <LatitudeDegrees>44.52327196486294269561767578125</LatitudeDegrees>
              <LongitudeDegrees>-1.24534788541495800018310546875</LongitudeDegrees>
            </Position>
            <AltitudeMeters>23.3999996185302734375</AltitudeMeters>
            <DistanceMeters>NAN</DistanceMeters>
          </Trackpoint>
          <Trackpoint>
            <Time>2022-07-05T07:57:42.000Z</Time>
            <Position>
              <LatitudeDegrees>44.523106254637241363525390625</LatitudeDegrees>
              <LongitudeDegrees>-1.2453602068126201629638671875</LongitudeDegrees>
            </Position>
            <AltitudeMeters>23.3999996185302734375</AltitudeMeters>
            <DistanceMeters>NAN</DistanceMeters>
          </Trackpoint>
          <Trackpoint>
            <Time>2022-07-05T07:57:45.000Z</Time>
            <Position>
              <LatitudeDegrees>44.52300391159951686859130859375</LatitudeDegrees>
              <LongitudeDegrees>-1.24534788541495800018310546875</LongitudeDegrees>
            </Position>
            <AltitudeMeters>23.6000003814697265625</AltitudeMeters>
            <DistanceMeters>NAN</DistanceMeters>
          </Trackpoint>
          <Trackpoint>
            <Time>2022-07-05T07:57:49.000Z</Time>
            <Position>
              <LatitudeDegrees>44.52289377339184284210205078125</LatitudeDegrees>
              <LongitudeDegrees>-1.245336569845676422119140625</LongitudeDegrees>
            </Position>
            <AltitudeMeters>23.6000003814697265625</AltitudeMeters>
            <DistanceMeters>NAN</DistanceMeters>
          </Trackpoint>
          <Trackpoint>
            <Time>2022-07-05T07:57:51.000Z</Time>
            <Position>
              <LatitudeDegrees>44.5228278078138828277587890625</LatitudeDegrees>
              <LongitudeDegrees>-1.2453327141702175140380859375</LongitudeDegrees>
            </Position>
            <AltitudeMeters>23.6000003814697265625</AltitudeMeters>
            <DistanceMeters>NAN</DistanceMeters>
          </Trackpoint>
          <Trackpoint>
            <Time>2022-07-05T07:57:56.000Z</Time>
            <Position>
              <LatitudeDegrees>44.52268011868000030517578125</LatitudeDegrees>
              <LongitudeDegrees>-1.24531419016420841217041015625</LongitudeDegrees>
            </Position>
            <AltitudeMeters>23.6000003814697265625</AltitudeMeters>
            <DistanceMeters>NAN</DistanceMeters>
          </Trackpoint>
          <Trackpoint>
            <Time>2022-07-05T07:57:58.000Z</Time>
            <Position>
              <LatitudeDegrees>44.52259805984795093536376953125</LatitudeDegrees>
              <LongitudeDegrees>-1.24531100504100322723388671875</LongitudeDegrees>
            </Position>
            <AltitudeMeters>23.6000003814697265625</AltitudeMeters>
            <DistanceMeters>NAN</DistanceMeters>
          </Trackpoint>
          <Trackpoint>
            <Time>2022-07-05T07:57:59.000Z</Time>
            <Position>
              <LatitudeDegrees>44.52254240401089191436767578125</LatitudeDegrees>
              <LongitudeDegrees>-1.24530698172748088836669921875</LongitudeDegrees>
            </Position>
            <AltitudeMeters>23.6000003814697265625</AltitudeMeters>
            <DistanceMeters>NAN</DistanceMeters>
          </Trackpoint>
          <Trackpoint>
            <Time>2022-07-05T07:58:06.000Z</Time>
            <Position>
              <LatitudeDegrees>44.52225272543728351593017578125</LatitudeDegrees>
              <LongitudeDegrees>-1.24524964950978755950927734375</LongitudeDegrees>
            </Position>
            <AltitudeMeters>23.6000003814697265625</AltitudeMeters>
            <DistanceMeters>NAN</DistanceMeters>
          </Trackpoint>
          <Trackpoint>
            <Time>2022-07-05T07:58:07.000Z</Time>
            <Position>
              <LatitudeDegrees>44.52220662496984004974365234375</LatitudeDegrees>
              <LongitudeDegrees>-1.245217882096767425537109375</LongitudeDegrees>
            </Position>
            <AltitudeMeters>23.6000003814697265625</AltitudeMeters>
            <DistanceMeters>NAN</DistanceMeters>
          </Trackpoint>
          <Trackpoint>
            <Time>2022-07-05T07:58:13.000Z</Time>
            <Position>
              <LatitudeDegrees>44.52203261665999889373779296875</LatitudeDegrees>
              <LongitudeDegrees>-1.24499819241464138031005859375</LongitudeDegrees>
            </Position>
            <AltitudeMeters>23.3999996185302734375</AltitudeMeters>
            <DistanceMeters>NAN</DistanceMeters>
          </Trackpoint>
          <Trackpoint>
            <Time>2022-07-05T07:58:18.000Z</Time>
            <Position>
              <LatitudeDegrees>44.52187067829072475433349609375</LatitudeDegrees>
              <LongitudeDegrees>-1.244858801364898681640625</LongitudeDegrees>
            </Position>
            <AltitudeMeters>24</AltitudeMeters>
            <DistanceMeters>NAN</DistanceMeters>
          </Trackpoint>
          <Trackpoint>
            <Time>2022-07-05T07:58:19.000Z</Time>
            <Position>
              <LatitudeDegrees>44.5218340493738651275634765625</LatitudeDegrees>
              <LongitudeDegrees>-1.24483675695955753326416015625</LongitudeDegrees>
            </Position>
            <AltitudeMeters>24</AltitudeMeters>
            <DistanceMeters>NAN</DistanceMeters>
          </Trackpoint>
          <Trackpoint>
            <Time>2022-07-05T07:58:25.000Z</Time>
            <Position>
              <LatitudeDegrees>44.5216097496449947357177734375</LatitudeDegrees>
              <LongitudeDegrees>-1.24473114497959613800048828125</LongitudeDegrees>
            </Position>
            <AltitudeMeters>24.6000003814697265625</AltitudeMeters>
            <DistanceMeters>NAN</DistanceMeters>
          </Trackpoint>
          <Trackpoint>
            <Time>2022-07-05T07:58:26.000Z</Time>
            <Position>
              <LatitudeDegrees>44.52156607992947101593017578125</LatitudeDegrees>
              <LongitudeDegrees>-1.24472376890480518341064453125</LongitudeDegrees>
            </Position>
            <AltitudeMeters>24.6000003814697265625</AltitudeMeters>
            <DistanceMeters>NAN</DistanceMeters>
          </Trackpoint>
          <Trackpoint>
            <Time>2022-07-05T07:58:32.000Z</Time>
            <Position>
              <LatitudeDegrees>44.5213549397885799407958984375</LatitudeDegrees>
              <LongitudeDegrees>-1.244655288755893707275390625</LongitudeDegrees>
            </Position>
            <AltitudeMeters>24.6000003814697265625</AltitudeMeters>
            <DistanceMeters>NAN</DistanceMeters>
          </Trackpoint>
          <Trackpoint>
            <Time>2022-07-05T07:58:33.000Z</Time>
            <Position>
              <LatitudeDegrees>44.5213217474520206451416015625</LatitudeDegrees>
              <LongitudeDegrees>-1.244645901024341583251953125</LongitudeDegrees>
            </Position>
            <AltitudeMeters>24.3999996185302734375</AltitudeMeters>
            <DistanceMeters>NAN</DistanceMeters>
          </Trackpoint>
          <Trackpoint>
            <Time>2022-07-05T07:58:36.000Z</Time>
            <Position>
              <LatitudeDegrees>44.52122895978391170501708984375</LatitudeDegrees>
              <LongitudeDegrees>-1.24464833177626132965087890625</LongitudeDegrees>
            </Position>
            <AltitudeMeters>24.200000762939453125</AltitudeMeters>
            <DistanceMeters>NAN</DistanceMeters>
          </Trackpoint>
          <Trackpoint>
            <Time>2022-07-05T07:58:39.000Z</Time>
            <Position>
              <LatitudeDegrees>44.521226696670055389404296875</LatitudeDegrees>
              <LongitudeDegrees>-1.2446500919759273529052734375</LongitudeDegrees>
            </Position>
            <AltitudeMeters>24.200000762939453125</AltitudeMeters>
            <DistanceMeters>NAN</DistanceMeters>
          </Trackpoint>
          <Trackpoint>
            <Time>2022-07-05T07:58:40.000Z</Time>
            <Position>
              <LatitudeDegrees>44.521226696670055389404296875</LatitudeDegrees>
              <LongitudeDegrees>-1.2446500919759273529052734375</LongitudeDegrees>
            </Position>
            <AltitudeMeters>24.200000762939453125</AltitudeMeters>
            <DistanceMeters>NAN</DistanceMeters>
          </Trackpoint>
          <Trackpoint>
            <Time>2022-07-05T07:58:41.000Z</Time>
            <Position>
              <LatitudeDegrees>44.521226696670055389404296875</LatitudeDegrees>
              <LongitudeDegrees>-1.2446500919759273529052734375</LongitudeDegrees>
            </Position>
            <AltitudeMeters>24.200000762939453125</AltitudeMeters>
            <DistanceMeters>NAN</DistanceMeters>
          </Trackpoint>
          <Trackpoint>
            <Time>2022-07-05T08:00:50.000Z</Time>
            <Position>
              <LatitudeDegrees>44.5211484096944332122802734375</LatitudeDegrees>
              <LongitudeDegrees>-1.2445964477956295013427734375</LongitudeDegrees>
            </Position>
            <AltitudeMeters>24.799999237060546875</AltitudeMeters>
            <DistanceMeters>NAN</DistanceMeters>
          </Trackpoint>
          <Trackpoint>
            <Time>2022-07-05T08:00:52.000Z</Time>
            <Position>
              <LatitudeDegrees>44.521095938980579376220703125</LatitudeDegrees>
              <LongitudeDegrees>-1.24457809142768383026123046875</LongitudeDegrees>
            </Position>
            <AltitudeMeters>25</AltitudeMeters>
            <DistanceMeters>NAN</DistanceMeters>
          </Trackpoint>
          <Trackpoint>
            <Time>2022-07-05T08:00:59.000Z</Time>
            <Position>
              <LatitudeDegrees>44.52092369087040424346923828125</LatitudeDegrees>
              <LongitudeDegrees>-1.24448890797793865203857421875</LongitudeDegrees>
            </Position>
            <AltitudeMeters>25.3999996185302734375</AltitudeMeters>
            <DistanceMeters>NAN</DistanceMeters>
          </Trackpoint>
          <Trackpoint>
            <Time>2022-07-05T08:01:02.000Z</Time>
            <Position>
              <LatitudeDegrees>44.52083417214453220367431640625</LatitudeDegrees>
              <LongitudeDegrees>-1.24446074478328227996826171875</LongitudeDegrees>
            </Position>
            <AltitudeMeters>25.3999996185302734375</AltitudeMeters>
            <DistanceMeters>NAN</DistanceMeters>
          </Trackpoint>
          <Trackpoint>
            <Time>2022-07-05T08:01:05.000Z</Time>
            <Position>
              <LatitudeDegrees>44.520741887390613555908203125</LatitudeDegrees>
              <LongitudeDegrees>-1.2444103695452213287353515625</LongitudeDegrees>
            </Position>
            <AltitudeMeters>25.3999996185302734375</AltitudeMeters>
            <DistanceMeters>NAN</DistanceMeters>
          </Trackpoint>
          <Trackpoint>
            <Time>2022-07-05T08:01:12.000Z</Time>
            <Position>
              <LatitudeDegrees>44.520514905452728271484375</LatitudeDegrees>
              <LongitudeDegrees>-1.2443496845662593841552734375</LongitudeDegrees>
            </Position>
            <AltitudeMeters>25.3999996185302734375</AltitudeMeters>
            <DistanceMeters>NAN</DistanceMeters>
          </Trackpoint>
          <Trackpoint>
            <Time>2022-07-05T08:01:19.000Z</Time>
            <Position>
              <LatitudeDegrees>44.52025246806442737579345703125</LatitudeDegrees>
              <LongitudeDegrees>-1.24427366070449352264404296875</LongitudeDegrees>
            </Position>
            <AltitudeMeters>25.6000003814697265625</AltitudeMeters>
            <DistanceMeters>NAN</DistanceMeters>
          </Trackpoint>
          <Trackpoint>
            <Time>2022-07-05T08:01:26.000Z</Time>
            <Position>
              <LatitudeDegrees>44.52001928351819515228271484375</LatitudeDegrees>
              <LongitudeDegrees>-1.2441847287118434906005859375</LongitudeDegrees>
            </Position>
            <AltitudeMeters>25.3999996185302734375</AltitudeMeters>
            <DistanceMeters>NAN</DistanceMeters>
          </Trackpoint>
          <Trackpoint>
            <Time>2022-07-05T08:01:32.000Z</Time>
            <Position>
              <LatitudeDegrees>44.51982415281236171722412109375</LatitudeDegrees>
              <LongitudeDegrees>-1.244068555533885955810546875</LongitudeDegrees>
            </Position>
            <AltitudeMeters>25.3999996185302734375</AltitudeMeters>
            <DistanceMeters>NAN</DistanceMeters>
          </Trackpoint>
          <Trackpoint>
            <Time>2022-07-05T08:01:40.000Z</Time>
            <Position>
              <LatitudeDegrees>44.519535563886165618896484375</LatitudeDegrees>
              <LongitudeDegrees>-1.243885494768619537353515625</LongitudeDegrees>
            </Position>
            <AltitudeMeters>25.6000003814697265625</AltitudeMeters>
            <DistanceMeters>NAN</DistanceMeters>
          </Trackpoint>
          <Trackpoint>
            <Time>2022-07-05T08:01:48.000Z</Time>
            <Position>
              <LatitudeDegrees>44.51925217173993587493896484375</LatitudeDegrees>
              <LongitudeDegrees>-1.24370989389717578887939453125</LongitudeDegrees>
            </Position>
            <AltitudeMeters>25.6000003814697265625</AltitudeMeters>
            <DistanceMeters>NAN</DistanceMeters>
          </Trackpoint>
          <Trackpoint>
            <Time>2022-07-05T08:01:52.000Z</Time>
            <Position>
              <LatitudeDegrees>44.51916508376598358154296875</LatitudeDegrees>
              <LongitudeDegrees>-1.24361760914325714111328125</LongitudeDegrees>
            </Position>
            <AltitudeMeters>25.799999237060546875</AltitudeMeters>
            <DistanceMeters>NAN</DistanceMeters>
          </Trackpoint>
          <Trackpoint>
            <Time>2022-07-05T08:01:54.000Z</Time>
            <Position>
              <LatitudeDegrees>44.519100375473499298095703125</LatitudeDegrees>
              <LongitudeDegrees>-1.24356689862906932830810546875</LongitudeDegrees>
            </Position>
            <AltitudeMeters>25.799999237060546875</AltitudeMeters>
            <DistanceMeters>NAN</DistanceMeters>
          </Trackpoint>
          <Trackpoint>
            <Time>2022-07-05T08:01:56.000Z</Time>
            <Position>
              <LatitudeDegrees>44.5189873874187469482421875</LatitudeDegrees>
              <LongitudeDegrees>-1.24352381564676761627197265625</LongitudeDegrees>
            </Position>
            <AltitudeMeters>26</AltitudeMeters>
            <DistanceMeters>NAN</DistanceMeters>
          </Trackpoint>
          <Trackpoint>
            <Time>2022-07-05T08:02:00.000Z</Time>
            <Position>
              <LatitudeDegrees>44.5188470743596553802490234375</LatitudeDegrees>
              <LongitudeDegrees>-1.24343664385378360748291015625</LongitudeDegrees>
            </Position>
            <AltitudeMeters>26.200000762939453125</AltitudeMeters>
            <DistanceMeters>NAN</DistanceMeters>
          </Trackpoint>
          <Trackpoint>
            <Time>2022-07-05T08:02:09.000Z</Time>
            <Position>
              <LatitudeDegrees>44.51859779655933380126953125</LatitudeDegrees>
              <LongitudeDegrees>-1.24320245347917079925537109375</LongitudeDegrees>
            </Position>
            <AltitudeMeters>26.200000762939453125</AltitudeMeters>
            <DistanceMeters>NAN</DistanceMeters>
          </Trackpoint>
          <Trackpoint>
            <Time>2022-07-05T08:02:16.000Z</Time>
            <Position>
              <LatitudeDegrees>44.5184330083429813385009765625</LatitudeDegrees>
              <LongitudeDegrees>-1.2430112622678279876708984375</LongitudeDegrees>
            </Position>
            <AltitudeMeters>26.200000762939453125</AltitudeMeters>
            <DistanceMeters>NAN</DistanceMeters>
          </Trackpoint>
          <Trackpoint>
            <Time>2022-07-05T08:02:17.000Z</Time>
            <Position>
              <LatitudeDegrees>44.51841264031827449798583984375</LatitudeDegrees>
              <LongitudeDegrees>-1.24296625144779682159423828125</LongitudeDegrees>
            </Position>
            <AltitudeMeters>26.200000762939453125</AltitudeMeters>
            <DistanceMeters>NAN</DistanceMeters>
          </Trackpoint>
          <Trackpoint>
            <Time>2022-07-05T08:02:22.000Z</Time>
            <Position>
              <LatitudeDegrees>44.51829596422612667083740234375</LatitudeDegrees>
              <LongitudeDegrees>-1.24276005662977695465087890625</LongitudeDegrees>
            </Position>
            <AltitudeMeters>26</AltitudeMeters>
            <DistanceMeters>NAN</DistanceMeters>
          </Trackpoint>
          <Trackpoint>
            <Time>2022-07-05T08:02:23.000Z</Time>
            <Position>
              <LatitudeDegrees>44.5182801224291324615478515625</LatitudeDegrees>
              <LongitudeDegrees>-1.242720074951648712158203125</LongitudeDegrees>
            </Position>
            <AltitudeMeters>26.200000762939453125</AltitudeMeters>
            <DistanceMeters>NAN</DistanceMeters>
          </Trackpoint>
          <Trackpoint>
            <Time>2022-07-05T08:02:25.000Z</Time>
            <Position>
              <LatitudeDegrees>44.51823879964649677276611328125</LatitudeDegrees>
              <LongitudeDegrees>-1.2426448054611682891845703125</LongitudeDegrees>
            </Position>
            <AltitudeMeters>26.200000762939453125</AltitudeMeters>
            <DistanceMeters>NAN</DistanceMeters>
          </Trackpoint>
          <Trackpoint>
            <Time>2022-07-05T08:02:33.000Z</Time>
            <Position>
              <LatitudeDegrees>44.51813922263681888580322265625</LatitudeDegrees>
              <LongitudeDegrees>-1.24232486821711063385009765625</LongitudeDegrees>
            </Position>
            <AltitudeMeters>26.799999237060546875</AltitudeMeters>
            <DistanceMeters>NAN</DistanceMeters>
          </Trackpoint>
          <Trackpoint>
            <Time>2022-07-05T08:02:37.000Z</Time>
            <Position>
              <LatitudeDegrees>44.5181061141192913055419921875</LatitudeDegrees>
              <LongitudeDegrees>-1.24214046634733676910400390625</LongitudeDegrees>
            </Position>
            <AltitudeMeters>26.799999237060546875</AltitudeMeters>
            <DistanceMeters>NAN</DistanceMeters>
          </Trackpoint>
          <Trackpoint>
            <Time>2022-07-05T08:02:38.000Z</Time>
            <Position>
              <LatitudeDegrees>44.51810234226286411285400390625</LatitudeDegrees>
              <LongitudeDegrees>-1.2420929409563541412353515625</LongitudeDegrees>
            </Position>
            <AltitudeMeters>26.799999237060546875</AltitudeMeters>
            <DistanceMeters>NAN</DistanceMeters>
          </Trackpoint>
          <Trackpoint>
            <Time>2022-07-05T08:02:45.000Z</Time>
            <Position>
              <LatitudeDegrees>44.51798499561846256256103515625</LatitudeDegrees>
              <LongitudeDegrees>-1.2417781166732311248779296875</LongitudeDegrees>
            </Position>
            <AltitudeMeters>27</AltitudeMeters>
            <DistanceMeters>NAN</DistanceMeters>
          </Trackpoint>
          <Trackpoint>
            <Time>2022-07-05T08:02:52.000Z</Time>
            <Position>
              <LatitudeDegrees>44.5179654657840728759765625</LatitudeDegrees>
              <LongitudeDegrees>-1.2414632923901081085205078125</LongitudeDegrees>
            </Position>
            <AltitudeMeters>27</AltitudeMeters>
            <DistanceMeters>NAN</DistanceMeters>
          </Trackpoint>
          <Trackpoint>
            <Time>2022-07-05T08:02:53.000Z</Time>
            <Position>
              <LatitudeDegrees>44.51796286739408969879150390625</LatitudeDegrees>
              <LongitudeDegrees>-1.24142364598810672760009765625</LongitudeDegrees>
            </Position>
            <AltitudeMeters>27</AltitudeMeters>
            <DistanceMeters>NAN</DistanceMeters>
          </Trackpoint>
          <Trackpoint>
            <Time>2022-07-05T08:02:55.000Z</Time>
            <Position>
              <LatitudeDegrees>44.5179488696157932281494140625</LatitudeDegrees>
              <LongitudeDegrees>-1.24135273508727550506591796875</LongitudeDegrees>
            </Position>
            <AltitudeMeters>27</AltitudeMeters>
            <DistanceMeters>NAN</DistanceMeters>
          </Trackpoint>
          <Trackpoint>
            <Time>2022-07-05T08:02:57.000Z</Time>
            <Position>
              <LatitudeDegrees>44.5179279148578643798828125</LatitudeDegrees>
              <LongitudeDegrees>-1.24128551222383975982666015625</LongitudeDegrees>
            </Position>
            <AltitudeMeters>27.3999996185302734375</AltitudeMeters>
            <DistanceMeters>NAN</DistanceMeters>
          </Trackpoint>
          <Trackpoint>
            <Time>2022-07-05T08:03:05.000Z</Time>
            <Position>
              <LatitudeDegrees>44.5179015956819057464599609375</LatitudeDegrees>
              <LongitudeDegrees>-1.240957193076610565185546875</LongitudeDegrees>
            </Position>
            <AltitudeMeters>28</AltitudeMeters>
            <DistanceMeters>NAN</DistanceMeters>
          </Trackpoint>
          <Trackpoint>
            <Time>2022-07-05T08:03:06.000Z</Time>
            <Position>
              <LatitudeDegrees>44.517900086939334869384765625</LatitudeDegrees>
              <LongitudeDegrees>-1.24092458747327327728271484375</LongitudeDegrees>
            </Position>
            <AltitudeMeters>28.200000762939453125</AltitudeMeters>
            <DistanceMeters>NAN</DistanceMeters>
          </Trackpoint>
          <Trackpoint>
            <Time>2022-07-05T08:03:09.000Z</Time>
            <Position>
              <LatitudeDegrees>44.51789195649325847625732421875</LatitudeDegrees>
              <LongitudeDegrees>-1.2408306263387203216552734375</LongitudeDegrees>
            </Position>
            <AltitudeMeters>28.6000003814697265625</AltitudeMeters>
            <DistanceMeters>NAN</DistanceMeters>
          </Trackpoint>
          <Trackpoint>
            <Time>2022-07-05T08:03:11.000Z</Time>
            <Position>
              <LatitudeDegrees>44.51788567006587982177734375</LatitudeDegrees>
              <LongitudeDegrees>-1.240751333534717559814453125</LongitudeDegrees>
            </Position>
            <AltitudeMeters>28.799999237060546875</AltitudeMeters>
            <DistanceMeters>NAN</DistanceMeters>
          </Trackpoint>
          <Trackpoint>
            <Time>2022-07-05T08:03:15.000Z</Time>
            <Position>
              <LatitudeDegrees>44.51785859651863574981689453125</LatitudeDegrees>
              <LongitudeDegrees>-1.2406153790652751922607421875</LongitudeDegrees>
            </Position>
            <AltitudeMeters>29.200000762939453125</AltitudeMeters>
            <DistanceMeters>NAN</DistanceMeters>
          </Trackpoint>
          <Trackpoint>
            <Time>2022-07-05T08:03:17.000Z</Time>
            <Position>
              <LatitudeDegrees>44.51784954406321048736572265625</LatitudeDegrees>
              <LongitudeDegrees>-1.2405647523701190948486328125</LongitudeDegrees>
            </Position>
            <AltitudeMeters>29.6000003814697265625</AltitudeMeters>
            <DistanceMeters>NAN</DistanceMeters>
          </Trackpoint>
          <Trackpoint>
            <Time>2022-07-05T08:03:18.000Z</Time>
            <Position>
              <LatitudeDegrees>44.51784920878708362579345703125</LatitudeDegrees>
              <LongitudeDegrees>-1.24048051424324512481689453125</LongitudeDegrees>
            </Position>
            <AltitudeMeters>29.799999237060546875</AltitudeMeters>
            <DistanceMeters>NAN</DistanceMeters>
          </Trackpoint>
          <Trackpoint>
            <Time>2022-07-05T08:03:23.000Z</Time>
            <Position>
              <LatitudeDegrees>44.51784334145486354827880859375</LatitudeDegrees>
              <LongitudeDegrees>-1.240314133465290069580078125</LongitudeDegrees>
            </Position>
            <AltitudeMeters>30.200000762939453125</AltitudeMeters>
            <DistanceMeters>NAN</DistanceMeters>
          </Trackpoint>
          <Trackpoint>
            <Time>2022-07-05T08:03:28.000Z</Time>
            <Position>
              <LatitudeDegrees>44.51781987212598323822021484375</LatitudeDegrees>
              <LongitudeDegrees>-1.2401929311454296112060546875</LongitudeDegrees>
            </Position>
            <AltitudeMeters>30.6000003814697265625</AltitudeMeters>
            <DistanceMeters>NAN</DistanceMeters>
          </Trackpoint>
          <Trackpoint>
            <Time>2022-07-05T08:03:33.000Z</Time>
            <Position>
              <LatitudeDegrees>44.5178184472024440765380859375</LatitudeDegrees>
              <LongitudeDegrees>-1.2400846369564533233642578125</LongitudeDegrees>
            </Position>
            <AltitudeMeters>31.200000762939453125</AltitudeMeters>
            <DistanceMeters>NAN</DistanceMeters>
          </Trackpoint>
          <Trackpoint>
            <Time>2022-07-05T08:03:34.000Z</Time>
            <Position>
              <LatitudeDegrees>44.51781769283115863800048828125</LatitudeDegrees>
              <LongitudeDegrees>-1.240064017474651336669921875</LongitudeDegrees>
            </Position>
            <AltitudeMeters>31.200000762939453125</AltitudeMeters>
            <DistanceMeters>NAN</DistanceMeters>
          </Trackpoint>
          <Trackpoint>
            <Time>2022-07-05T08:03:35.000Z</Time>
            <Position>
              <LatitudeDegrees>44.51781769283115863800048828125</LatitudeDegrees>
              <LongitudeDegrees>-1.240064017474651336669921875</LongitudeDegrees>
            </Position>
            <AltitudeMeters>31.3999996185302734375</AltitudeMeters>
            <DistanceMeters>NAN</DistanceMeters>
          </Trackpoint>
          <Trackpoint>
            <Time>2022-07-05T08:03:36.000Z</Time>
            <Position>
              <LatitudeDegrees>44.5178238116204738616943359375</LatitudeDegrees>
              <LongitudeDegrees>-1.24001883901655673980712890625</LongitudeDegrees>
            </Position>
            <AltitudeMeters>31.3999996185302734375</AltitudeMeters>
            <DistanceMeters>NAN</DistanceMeters>
          </Trackpoint>
          <Trackpoint>
            <Time>2022-07-05T08:03:39.000Z</Time>
            <Position>
              <LatitudeDegrees>44.517821632325649261474609375</LatitudeDegrees>
              <LongitudeDegrees>-1.2399465031921863555908203125</LongitudeDegrees>
            </Position>
            <AltitudeMeters>31.6000003814697265625</AltitudeMeters>
            <DistanceMeters>NAN</DistanceMeters>
          </Trackpoint>
          <Trackpoint>
            <Time>2022-07-05T08:03:41.000Z</Time>
            <Position>
              <LatitudeDegrees>44.51781501062214374542236328125</LatitudeDegrees>
              <LongitudeDegrees>-1.23991406522691249847412109375</LongitudeDegrees>
            </Position>
            <AltitudeMeters>31.6000003814697265625</AltitudeMeters>
            <DistanceMeters>NAN</DistanceMeters>
          </Trackpoint>
          <Trackpoint>
            <Time>2022-07-05T08:03:44.000Z</Time>
            <Position>
              <LatitudeDegrees>44.51782557182013988494873046875</LatitudeDegrees>
              <LongitudeDegrees>-1.23982454650104045867919921875</LongitudeDegrees>
            </Position>
            <AltitudeMeters>32.200000762939453125</AltitudeMeters>
            <DistanceMeters>NAN</DistanceMeters>
          </Trackpoint>
          <Trackpoint>
            <Time>2022-07-05T08:03:47.000Z</Time>
            <Position>
              <LatitudeDegrees>44.517825655639171600341796875</LatitudeDegrees>
              <LongitudeDegrees>-1.239708960056304931640625</LongitudeDegrees>
            </Position>
            <AltitudeMeters>32.40000152587890625</AltitudeMeters>
            <DistanceMeters>NAN</DistanceMeters>
          </Trackpoint>
          <Trackpoint>
            <Time>2022-07-05T08:03:48.000Z</Time>
            <Position>
              <LatitudeDegrees>44.5178258232772350311279296875</LatitudeDegrees>
              <LongitudeDegrees>-1.2396566569805145263671875</LongitudeDegrees>
            </Position>
            <AltitudeMeters>32.40000152587890625</AltitudeMeters>
            <DistanceMeters>NAN</DistanceMeters>
          </Trackpoint>
          <Trackpoint>
            <Time>2022-07-05T08:03:52.000Z</Time>
            <Position>
              <LatitudeDegrees>44.51779405586421489715576171875</LatitudeDegrees>
              <LongitudeDegrees>-1.2394791282713413238525390625</LongitudeDegrees>
            </Position>
            <AltitudeMeters>32.59999847412109375</AltitudeMeters>
            <DistanceMeters>NAN</DistanceMeters>
          </Trackpoint>
          <Trackpoint>
            <Time>2022-07-05T08:03:54.000Z</Time>
            <Position>
              <LatitudeDegrees>44.51779103837907314300537109375</LatitudeDegrees>
              <LongitudeDegrees>-1.239390112459659576416015625</LongitudeDegrees>
            </Position>
            <AltitudeMeters>32.59999847412109375</AltitudeMeters>
            <DistanceMeters>NAN</DistanceMeters>
          </Trackpoint>
          <Trackpoint>
            <Time>2022-07-05T08:04:01.000Z</Time>
            <Position>
              <LatitudeDegrees>44.51771694235503673553466796875</LatitudeDegrees>
              <LongitudeDegrees>-1.239135973155498504638671875</LongitudeDegrees>
            </Position>
            <AltitudeMeters>32.799999237060546875</AltitudeMeters>
            <DistanceMeters>NAN</DistanceMeters>
          </Trackpoint>
          <Trackpoint>
            <Time>2022-07-05T08:04:08.000Z</Time>
            <Position>
              <LatitudeDegrees>44.5176826603710651397705078125</LatitudeDegrees>
              <LongitudeDegrees>-1.2387876212596893310546875</LongitudeDegrees>
            </Position>
            <AltitudeMeters>32.40000152587890625</AltitudeMeters>
            <DistanceMeters>NAN</DistanceMeters>
          </Trackpoint>
          <Trackpoint>
            <Time>2022-07-05T08:04:13.000Z</Time>
            <Position>
              <LatitudeDegrees>44.51766447164118289947509765625</LatitudeDegrees>
              <LongitudeDegrees>-1.238456703722476959228515625</LongitudeDegrees>
            </Position>
            <AltitudeMeters>31.200000762939453125</AltitudeMeters>
            <DistanceMeters>NAN</DistanceMeters>
          </Trackpoint>
          <Trackpoint>
            <Time>2022-07-05T08:04:15.000Z</Time>
            <Position>
              <LatitudeDegrees>44.5176457799971103668212890625</LatitudeDegrees>
              <LongitudeDegrees>-1.23833038844168186187744140625</LongitudeDegrees>
            </Position>
            <AltitudeMeters>31.200000762939453125</AltitudeMeters>
            <DistanceMeters>NAN</DistanceMeters>
          </Trackpoint>
          <Trackpoint>
            <Time>2022-07-05T08:04:19.000Z</Time>
            <Position>
              <LatitudeDegrees>44.517603702843189239501953125</LatitudeDegrees>
              <LongitudeDegrees>-1.2380300648510456085205078125</LongitudeDegrees>
            </Position>
            <AltitudeMeters>30.3999996185302734375</AltitudeMeters>
            <DistanceMeters>NAN</DistanceMeters>
          </Trackpoint>
          <Trackpoint>
            <Time>2022-07-05T08:04:20.000Z</Time>
            <Position>
              <LatitudeDegrees>44.51758886687457561492919921875</LatitudeDegrees>
              <LongitudeDegrees>-1.23794985003769397735595703125</LongitudeDegrees>
            </Position>
            <AltitudeMeters>30</AltitudeMeters>
            <DistanceMeters>NAN</DistanceMeters>
          </Trackpoint>
          <Trackpoint>
            <Time>2022-07-05T08:04:21.000Z</Time>
            <Position>
              <LatitudeDegrees>44.517569839954376220703125</LatitudeDegrees>
              <LongitudeDegrees>-1.23786804266273975372314453125</LongitudeDegrees>
            </Position>
            <AltitudeMeters>29.799999237060546875</AltitudeMeters>
            <DistanceMeters>NAN</DistanceMeters>
          </Trackpoint>
          <Trackpoint>
            <Time>2022-07-05T08:04:23.000Z</Time>
            <Position>
              <LatitudeDegrees>44.5175398327410221099853515625</LatitudeDegrees>
              <LongitudeDegrees>-1.237701661884784698486328125</LongitudeDegrees>
            </Position>
            <AltitudeMeters>29.6000003814697265625</AltitudeMeters>
            <DistanceMeters>NAN</DistanceMeters>
          </Trackpoint>
          <Trackpoint>
            <Time>2022-07-05T08:04:25.000Z</Time>
            <Position>
              <LatitudeDegrees>44.51750345528125762939453125</LatitudeDegrees>
              <LongitudeDegrees>-1.23756864108145236968994140625</LongitudeDegrees>
            </Position>
            <AltitudeMeters>29.3999996185302734375</AltitudeMeters>
            <DistanceMeters>NAN</DistanceMeters>
          </Trackpoint>
          <Trackpoint>
            <Time>2022-07-05T08:04:27.000Z</Time>
            <Position>
              <LatitudeDegrees>44.51749079860746860504150390625</LatitudeDegrees>
              <LongitudeDegrees>-1.2375070340931415557861328125</LongitudeDegrees>
            </Position>
            <AltitudeMeters>29.3999996185302734375</AltitudeMeters>
            <DistanceMeters>NAN</DistanceMeters>
          </Trackpoint>
          <Trackpoint>
            <Time>2022-07-05T08:04:28.000Z</Time>
            <Position>
              <LatitudeDegrees>44.51749146915972232818603515625</LatitudeDegrees>
              <LongitudeDegrees>-1.23737099580466747283935546875</LongitudeDegrees>
            </Position>
            <AltitudeMeters>29.200000762939453125</AltitudeMeters>
            <DistanceMeters>NAN</DistanceMeters>
          </Trackpoint>
          <Trackpoint>
            <Time>2022-07-05T08:04:31.000Z</Time>
            <Position>
              <LatitudeDegrees>44.51745961792767047882080078125</LatitudeDegrees>
              <LongitudeDegrees>-1.23716144822537899017333984375</LongitudeDegrees>
            </Position>
            <AltitudeMeters>29</AltitudeMeters>
            <DistanceMeters>NAN</DistanceMeters>
          </Trackpoint>
          <Trackpoint>
            <Time>2022-07-05T08:04:38.000Z</Time>
            <Position>
              <LatitudeDegrees>44.5173892937600612640380859375</LatitudeDegrees>
              <LongitudeDegrees>-1.236699856817722320556640625</LongitudeDegrees>
            </Position>
            <AltitudeMeters>29.3999996185302734375</AltitudeMeters>
            <DistanceMeters>NAN</DistanceMeters>
          </Trackpoint>
          <Trackpoint>
            <Time>2022-07-05T08:04:42.000Z</Time>
            <Position>
              <LatitudeDegrees>44.51736507005989551544189453125</LatitudeDegrees>
              <LongitudeDegrees>-1.23647245578467845916748046875</LongitudeDegrees>
            </Position>
            <AltitudeMeters>29.3999996185302734375</AltitudeMeters>
            <DistanceMeters>NAN</DistanceMeters>
          </Trackpoint>
          <Trackpoint>
            <Time>2022-07-05T08:04:43.000Z</Time>
            <Position>
              <LatitudeDegrees>44.51735769398510456085205078125</LatitudeDegrees>
              <LongitudeDegrees>-1.23640556819736957550048828125</LongitudeDegrees>
            </Position>
            <AltitudeMeters>29.3999996185302734375</AltitudeMeters>
            <DistanceMeters>NAN</DistanceMeters>
          </Trackpoint>
          <Trackpoint>
            <Time>2022-07-05T08:04:49.000Z</Time>
            <Position>
              <LatitudeDegrees>44.51726482249796390533447265625</LatitudeDegrees>
              <LongitudeDegrees>-1.23612795956432819366455078125</LongitudeDegrees>
            </Position>
            <AltitudeMeters>29.3999996185302734375</AltitudeMeters>
            <DistanceMeters>NAN</DistanceMeters>
          </Trackpoint>
          <Trackpoint>
            <Time>2022-07-05T08:04:56.000Z</Time>
            <Position>
              <LatitudeDegrees>44.517240263521671295166015625</LatitudeDegrees>
              <LongitudeDegrees>-1.23591271229088306427001953125</LongitudeDegrees>
            </Position>
            <AltitudeMeters>29.6000003814697265625</AltitudeMeters>
            <DistanceMeters>NAN</DistanceMeters>
          </Trackpoint>
          <Trackpoint>
            <Time>2022-07-05T08:05:02.000Z</Time>
            <Position>
              <LatitudeDegrees>44.5172278583049774169921875</LatitudeDegrees>
              <LongitudeDegrees>-1.23561859130859375</LongitudeDegrees>
            </Position>
            <AltitudeMeters>29.200000762939453125</AltitudeMeters>
            <DistanceMeters>NAN</DistanceMeters>
          </Trackpoint>
          <Trackpoint>
            <Time>2022-07-05T08:05:05.000Z</Time>
            <Position>
              <LatitudeDegrees>44.51719994656741619110107421875</LatitudeDegrees>
              <LongitudeDegrees>-1.23548925854265689849853515625</LongitudeDegrees>
            </Position>
            <AltitudeMeters>29.3999996185302734375</AltitudeMeters>
            <DistanceMeters>NAN</DistanceMeters>
          </Trackpoint>
          <Trackpoint>
            <Time>2022-07-05T08:05:07.000Z</Time>
            <Position>
              <LatitudeDegrees>44.51716692186892032623291015625</LatitudeDegrees>
              <LongitudeDegrees>-1.2354145757853984832763671875</LongitudeDegrees>
            </Position>
            <AltitudeMeters>29.3999996185302734375</AltitudeMeters>
            <DistanceMeters>NAN</DistanceMeters>
          </Trackpoint>
          <Trackpoint>
            <Time>2022-07-05T08:05:09.000Z</Time>
            <Position>
              <LatitudeDegrees>44.5171462185680866241455078125</LatitudeDegrees>
              <LongitudeDegrees>-1.23534073121845722198486328125</LongitudeDegrees>
            </Position>
            <AltitudeMeters>29.3999996185302734375</AltitudeMeters>
            <DistanceMeters>NAN</DistanceMeters>
          </Trackpoint>
          <Trackpoint>
            <Time>2022-07-05T08:05:10.000Z</Time>
            <Position>
              <LatitudeDegrees>44.51713574118912220001220703125</LatitudeDegrees>
              <LongitudeDegrees>-1.23530603013932704925537109375</LongitudeDegrees>
            </Position>
            <AltitudeMeters>29.3999996185302734375</AltitudeMeters>
            <DistanceMeters>NAN</DistanceMeters>
          </Trackpoint>
          <Trackpoint>
            <Time>2022-07-05T08:05:13.000Z</Time>
            <Position>
              <LatitudeDegrees>44.51709173619747161865234375</LatitudeDegrees>
              <LongitudeDegrees>-1.23517594300210475921630859375</LongitudeDegrees>
            </Position>
            <AltitudeMeters>29.6000003814697265625</AltitudeMeters>
            <DistanceMeters>NAN</DistanceMeters>
          </Trackpoint>
          <Trackpoint>
            <Time>2022-07-05T08:05:16.000Z</Time>
            <Position>
              <LatitudeDegrees>44.51701931655406951904296875</LatitudeDegrees>
              <LongitudeDegrees>-1.2350575067102909088134765625</LongitudeDegrees>
            </Position>
            <AltitudeMeters>30.200000762939453125</AltitudeMeters>
            <DistanceMeters>NAN</DistanceMeters>
          </Trackpoint>
          <Trackpoint>
            <Time>2022-07-05T08:05:18.000Z</Time>
            <Position>
              <LatitudeDegrees>44.51695804484188556671142578125</LatitudeDegrees>
              <LongitudeDegrees>-1.235000006854534149169921875</LongitudeDegrees>
            </Position>
            <AltitudeMeters>30.3999996185302734375</AltitudeMeters>
            <DistanceMeters>NAN</DistanceMeters>
          </Trackpoint>
          <Trackpoint>
            <Time>2022-07-05T08:05:24.000Z</Time>
            <Position>
              <LatitudeDegrees>44.5167660154402256011962890625</LatitudeDegrees>
              <LongitudeDegrees>-1.234911493957042694091796875</LongitudeDegrees>
            </Position>
            <AltitudeMeters>30.6000003814697265625</AltitudeMeters>
            <DistanceMeters>NAN</DistanceMeters>
          </Trackpoint>
          <Trackpoint>
            <Time>2022-07-05T08:05:28.000Z</Time>
            <Position>
              <LatitudeDegrees>44.516616649925708770751953125</LatitudeDegrees>
              <LongitudeDegrees>-1.23487167991697788238525390625</LongitudeDegrees>
            </Position>
            <AltitudeMeters>30.3999996185302734375</AltitudeMeters>
            <DistanceMeters>NAN</DistanceMeters>
          </Trackpoint>
          <Trackpoint>
            <Time>2022-07-05T08:05:32.000Z</Time>
            <Position>
              <LatitudeDegrees>44.51648245565593242645263671875</LatitudeDegrees>
              <LongitudeDegrees>-1.23486279509961605072021484375</LongitudeDegrees>
            </Position>
            <AltitudeMeters>30.200000762939453125</AltitudeMeters>
            <DistanceMeters>NAN</DistanceMeters>
          </Trackpoint>
          <Trackpoint>
            <Time>2022-07-05T08:05:40.000Z</Time>
            <Position>
              <LatitudeDegrees>44.5162822119891643524169921875</LatitudeDegrees>
              <LongitudeDegrees>-1.23487972654402256011962890625</LongitudeDegrees>
            </Position>
            <AltitudeMeters>30.3999996185302734375</AltitudeMeters>
            <DistanceMeters>NAN</DistanceMeters>
          </Trackpoint>
          <Trackpoint>
            <Time>2022-07-05T08:05:46.000Z</Time>
            <Position>
              <LatitudeDegrees>44.5160471834242343902587890625</LatitudeDegrees>
              <LongitudeDegrees>-1.23495901934802532196044921875</LongitudeDegrees>
            </Position>
            <AltitudeMeters>30.3999996185302734375</AltitudeMeters>
            <DistanceMeters>NAN</DistanceMeters>
          </Trackpoint>
          <Trackpoint>
            <Time>2022-07-05T08:05:52.000Z</Time>
            <Position>
              <LatitudeDegrees>44.51585716567933559417724609375</LatitudeDegrees>
              <LongitudeDegrees>-1.2350298464298248291015625</LongitudeDegrees>
            </Position>
            <AltitudeMeters>30</AltitudeMeters>
            <DistanceMeters>NAN</DistanceMeters>
          </Trackpoint>
          <Trackpoint>
            <Time>2022-07-05T08:05:56.000Z</Time>
            <Position>
              <LatitudeDegrees>44.51572506688535213470458984375</LatitudeDegrees>
              <LongitudeDegrees>-1.23506940901279449462890625</LongitudeDegrees>
            </Position>
            <AltitudeMeters>30.6000003814697265625</AltitudeMeters>
            <DistanceMeters>NAN</DistanceMeters>
          </Trackpoint>
          <Trackpoint>
            <Time>2022-07-05T08:05:59.000Z</Time>
            <Position>
              <LatitudeDegrees>44.5156210474669933319091796875</LatitudeDegrees>
              <LongitudeDegrees>-1.235091201961040496826171875</LongitudeDegrees>
            </Position>
            <AltitudeMeters>30.6000003814697265625</AltitudeMeters>
            <DistanceMeters>NAN</DistanceMeters>
          </Trackpoint>
          <Trackpoint>
            <Time>2022-07-05T08:06:02.000Z</Time>
            <Position>
              <LatitudeDegrees>44.51550059951841831207275390625</LatitudeDegrees>
              <LongitudeDegrees>-1.235098578035831451416015625</LongitudeDegrees>
            </Position>
            <AltitudeMeters>31</AltitudeMeters>
            <DistanceMeters>NAN</DistanceMeters>
          </Trackpoint>
          <Trackpoint>
            <Time>2022-07-05T08:06:06.000Z</Time>
            <Position>
              <LatitudeDegrees>44.515363387763500213623046875</LatitudeDegrees>
              <LongitudeDegrees>-1.2351104803383350372314453125</LongitudeDegrees>
            </Position>
            <AltitudeMeters>31.200000762939453125</AltitudeMeters>
            <DistanceMeters>NAN</DistanceMeters>
          </Trackpoint>
          <Trackpoint>
            <Time>2022-07-05T08:06:09.000Z</Time>
            <Position>
              <LatitudeDegrees>44.515315108001232147216796875</LatitudeDegrees>
              <LongitudeDegrees>-1.2351103127002716064453125</LongitudeDegrees>
            </Position>
            <AltitudeMeters>31.200000762939453125</AltitudeMeters>
            <DistanceMeters>NAN</DistanceMeters>
          </Trackpoint>
          <Trackpoint>
            <Time>2022-07-05T08:06:14.000Z</Time>
            <Position>
              <LatitudeDegrees>44.51515224762260913848876953125</LatitudeDegrees>
              <LongitudeDegrees>-1.23511475510895252227783203125</LongitudeDegrees>
            </Position>
            <AltitudeMeters>31.200000762939453125</AltitudeMeters>
            <DistanceMeters>NAN</DistanceMeters>
          </Trackpoint>
          <Trackpoint>
            <Time>2022-07-05T08:06:20.000Z</Time>
            <Position>
              <LatitudeDegrees>44.51489425264298915863037109375</LatitudeDegrees>
              <LongitudeDegrees>-1.2350565008819103240966796875</LongitudeDegrees>
            </Position>
            <AltitudeMeters>31</AltitudeMeters>
            <DistanceMeters>NAN</DistanceMeters>
          </Trackpoint>
          <Trackpoint>
            <Time>2022-07-05T08:06:24.000Z</Time>
            <Position>
              <LatitudeDegrees>44.51480724848806858062744140625</LatitudeDegrees>
              <LongitudeDegrees>-1.2349763698875904083251953125</LongitudeDegrees>
            </Position>
            <AltitudeMeters>31.200000762939453125</AltitudeMeters>
            <DistanceMeters>NAN</DistanceMeters>
          </Trackpoint>
          <Trackpoint>
            <Time>2022-07-05T08:06:25.000Z</Time>
            <Position>
              <LatitudeDegrees>44.51477967202663421630859375</LatitudeDegrees>
              <LongitudeDegrees>-1.2349575944244861602783203125</LongitudeDegrees>
            </Position>
            <AltitudeMeters>31.200000762939453125</AltitudeMeters>
            <DistanceMeters>NAN</DistanceMeters>
          </Trackpoint>
          <Trackpoint>
            <Time>2022-07-05T08:06:30.000Z</Time>
            <Position>
              <LatitudeDegrees>44.51460692100226879119873046875</LatitudeDegrees>
              <LongitudeDegrees>-1.234861873090267181396484375</LongitudeDegrees>
            </Position>
            <AltitudeMeters>31.200000762939453125</AltitudeMeters>
            <DistanceMeters>NAN</DistanceMeters>
          </Trackpoint>
          <Trackpoint>
            <Time>2022-07-05T08:06:36.000Z</Time>
            <Position>
              <LatitudeDegrees>44.51438429765403270721435546875</LatitudeDegrees>
              <LongitudeDegrees>-1.23471544124186038970947265625</LongitudeDegrees>
            </Position>
            <AltitudeMeters>31</AltitudeMeters>
            <DistanceMeters>NAN</DistanceMeters>
          </Trackpoint>
          <Trackpoint>
            <Time>2022-07-05T08:06:41.000Z</Time>
            <Position>
              <LatitudeDegrees>44.514207355678081512451171875</LatitudeDegrees>
              <LongitudeDegrees>-1.23454361222684383392333984375</LongitudeDegrees>
            </Position>
            <AltitudeMeters>30.6000003814697265625</AltitudeMeters>
            <DistanceMeters>NAN</DistanceMeters>
          </Trackpoint>
          <Trackpoint>
            <Time>2022-07-05T08:06:42.000Z</Time>
            <Position>
              <LatitudeDegrees>44.51417307369410991668701171875</LatitudeDegrees>
              <LongitudeDegrees>-1.2345026247203350067138671875</LongitudeDegrees>
            </Position>
            <AltitudeMeters>30.3999996185302734375</AltitudeMeters>
            <DistanceMeters>NAN</DistanceMeters>
          </Trackpoint>
          <Trackpoint>
            <Time>2022-07-05T08:06:46.000Z</Time>
            <Position>
              <LatitudeDegrees>44.51405958272516727447509765625</LatitudeDegrees>
              <LongitudeDegrees>-1.2343685142695903778076171875</LongitudeDegrees>
            </Position>
            <AltitudeMeters>30.200000762939453125</AltitudeMeters>
            <DistanceMeters>NAN</DistanceMeters>
          </Trackpoint>
          <Trackpoint>
            <Time>2022-07-05T08:06:48.000Z</Time>
            <Position>
              <LatitudeDegrees>44.51398909091949462890625</LatitudeDegrees>
              <LongitudeDegrees>-1.23430808074772357940673828125</LongitudeDegrees>
            </Position>
            <AltitudeMeters>30</AltitudeMeters>
            <DistanceMeters>NAN</DistanceMeters>
          </Trackpoint>
          <Trackpoint>
            <Time>2022-07-05T08:06:50.000Z</Time>
            <Position>
              <LatitudeDegrees>44.51392228715121746063232421875</LatitudeDegrees>
              <LongitudeDegrees>-1.2342431209981441497802734375</LongitudeDegrees>
            </Position>
            <AltitudeMeters>30</AltitudeMeters>
            <DistanceMeters>NAN</DistanceMeters>
          </Trackpoint>
          <Trackpoint>
            <Time>2022-07-05T08:06:52.000Z</Time>
            <Position>
              <LatitudeDegrees>44.5138839818537235260009765625</LatitudeDegrees>
              <LongitudeDegrees>-1.23419023118913173675537109375</LongitudeDegrees>
            </Position>
            <AltitudeMeters>30.200000762939453125</AltitudeMeters>
            <DistanceMeters>NAN</DistanceMeters>
          </Trackpoint>
          <Trackpoint>
            <Time>2022-07-05T08:06:54.000Z</Time>
            <Position>
              <LatitudeDegrees>44.51385003514587879180908203125</LatitudeDegrees>
              <LongitudeDegrees>-1.23411898501217365264892578125</LongitudeDegrees>
            </Position>
            <AltitudeMeters>30.200000762939453125</AltitudeMeters>
            <DistanceMeters>NAN</DistanceMeters>
          </Trackpoint>
          <Trackpoint>
            <Time>2022-07-05T08:06:55.000Z</Time>
            <Position>
              <LatitudeDegrees>44.51383142732083797454833984375</LatitudeDegrees>
              <LongitudeDegrees>-1.23408143408596515655517578125</LongitudeDegrees>
            </Position>
            <AltitudeMeters>30.200000762939453125</AltitudeMeters>
            <DistanceMeters>NAN</DistanceMeters>
          </Trackpoint>
          <Trackpoint>
            <Time>2022-07-05T08:06:56.000Z</Time>
            <Position>
              <LatitudeDegrees>44.51380644924938678741455078125</LatitudeDegrees>
              <LongitudeDegrees>-1.2340446375310420989990234375</LongitudeDegrees>
            </Position>
            <AltitudeMeters>30.200000762939453125</AltitudeMeters>
            <DistanceMeters>NAN</DistanceMeters>
          </Trackpoint>
          <Trackpoint>
            <Time>2022-07-05T08:06:57.000Z</Time>
            <Position>
              <LatitudeDegrees>44.51378432102501392364501953125</LatitudeDegrees>
              <LongitudeDegrees>-1.23400666750967502593994140625</LongitudeDegrees>
            </Position>
            <AltitudeMeters>30.200000762939453125</AltitudeMeters>
            <DistanceMeters>NAN</DistanceMeters>
          </Trackpoint>
          <Trackpoint>
            <Time>2022-07-05T08:07:06.000Z</Time>
            <Position>
              <LatitudeDegrees>44.51349623501300811767578125</LatitudeDegrees>
              <LongitudeDegrees>-1.2337653525173664093017578125</LongitudeDegrees>
            </Position>
            <AltitudeMeters>30.3999996185302734375</AltitudeMeters>
            <DistanceMeters>NAN</DistanceMeters>
          </Trackpoint>
          <Trackpoint>
            <Time>2022-07-05T08:07:10.000Z</Time>
            <Position>
              <LatitudeDegrees>44.51338634826242923736572265625</LatitudeDegrees>
              <LongitudeDegrees>-1.2337261252105236053466796875</LongitudeDegrees>
            </Position>
            <AltitudeMeters>30.3999996185302734375</AltitudeMeters>
            <DistanceMeters>NAN</DistanceMeters>
          </Trackpoint>
          <Trackpoint>
            <Time>2022-07-05T08:07:14.000Z</Time>
            <Position>
              <LatitudeDegrees>44.5132680796086788177490234375</LatitudeDegrees>
              <LongitudeDegrees>-1.23371564783155918121337890625</LongitudeDegrees>
            </Position>
            <AltitudeMeters>30.3999996185302734375</AltitudeMeters>
            <DistanceMeters>NAN</DistanceMeters>
          </Trackpoint>
          <Trackpoint>
            <Time>2022-07-05T08:07:17.000Z</Time>
            <Position>
              <LatitudeDegrees>44.51315232552587985992431640625</LatitudeDegrees>
              <LongitudeDegrees>-1.2337291426956653594970703125</LongitudeDegrees>
            </Position>
            <AltitudeMeters>30.3999996185302734375</AltitudeMeters>
            <DistanceMeters>NAN</DistanceMeters>
          </Trackpoint>
          <Trackpoint>
            <Time>2022-07-05T08:07:23.000Z</Time>
            <Position>
              <LatitudeDegrees>44.51288469135761260986328125</LatitudeDegrees>
              <LongitudeDegrees>-1.23374917544424533843994140625</LongitudeDegrees>
            </Position>
            <AltitudeMeters>30.6000003814697265625</AltitudeMeters>
            <DistanceMeters>NAN</DistanceMeters>
          </Trackpoint>
          <Trackpoint>
            <Time>2022-07-05T08:07:28.000Z</Time>
            <Position>
              <LatitudeDegrees>44.51266047544777393341064453125</LatitudeDegrees>
              <LongitudeDegrees>-1.2337945215404033660888671875</LongitudeDegrees>
            </Position>
            <AltitudeMeters>30.799999237060546875</AltitudeMeters>
            <DistanceMeters>NAN</DistanceMeters>
          </Trackpoint>
          <Trackpoint>
            <Time>2022-07-05T08:07:29.000Z</Time>
            <Position>
              <LatitudeDegrees>44.51261454261839389801025390625</LatitudeDegrees>
              <LongitudeDegrees>-1.23378454707562923431396484375</LongitudeDegrees>
            </Position>
            <AltitudeMeters>30.799999237060546875</AltitudeMeters>
            <DistanceMeters>NAN</DistanceMeters>
          </Trackpoint>
          <Trackpoint>
            <Time>2022-07-05T08:07:31.000Z</Time>
            <Position>
              <LatitudeDegrees>44.5125395245850086212158203125</LatitudeDegrees>
              <LongitudeDegrees>-1.23383081518113613128662109375</LongitudeDegrees>
            </Position>
            <AltitudeMeters>30.799999237060546875</AltitudeMeters>
            <DistanceMeters>NAN</DistanceMeters>
          </Trackpoint>
          <Trackpoint>
            <Time>2022-07-05T08:07:32.000Z</Time>
            <Position>
              <LatitudeDegrees>44.51251345686614513397216796875</LatitudeDegrees>
              <LongitudeDegrees>-1.23385570943355560302734375</LongitudeDegrees>
            </Position>
            <AltitudeMeters>30.799999237060546875</AltitudeMeters>
            <DistanceMeters>NAN</DistanceMeters>
          </Trackpoint>
          <Trackpoint>
            <Time>2022-07-05T08:07:33.000Z</Time>
            <Position>
              <LatitudeDegrees>44.5124875567853450775146484375</LatitudeDegrees>
              <LongitudeDegrees>-1.23387155123054981231689453125</LongitudeDegrees>
            </Position>
            <AltitudeMeters>30.799999237060546875</AltitudeMeters>
            <DistanceMeters>NAN</DistanceMeters>
          </Trackpoint>
          <Trackpoint>
            <Time>2022-07-05T08:07:35.000Z</Time>
            <Position>
              <LatitudeDegrees>44.51243500225245952606201171875</LatitudeDegrees>
              <LongitudeDegrees>-1.2339075095951557159423828125</LongitudeDegrees>
            </Position>
            <AltitudeMeters>30.799999237060546875</AltitudeMeters>
            <DistanceMeters>NAN</DistanceMeters>
          </Trackpoint>
          <Trackpoint>
            <Time>2022-07-05T08:07:36.000Z</Time>
            <Position>
              <LatitudeDegrees>44.51241186819970607757568359375</LatitudeDegrees>
              <LongitudeDegrees>-1.233936846256256103515625</LongitudeDegrees>
            </Position>
            <AltitudeMeters>31</AltitudeMeters>
            <DistanceMeters>NAN</DistanceMeters>
          </Trackpoint>
          <Trackpoint>
            <Time>2022-07-05T08:07:38.000Z</Time>
            <Position>
              <LatitudeDegrees>44.5123631693422794342041015625</LatitudeDegrees>
              <LongitudeDegrees>-1.23397448100149631500244140625</LongitudeDegrees>
            </Position>
            <AltitudeMeters>31.200000762939453125</AltitudeMeters>
            <DistanceMeters>NAN</DistanceMeters>
          </Trackpoint>
          <Trackpoint>
            <Time>2022-07-05T08:07:39.000Z</Time>
            <Position>
              <LatitudeDegrees>44.51233752071857452392578125</LatitudeDegrees>
              <LongitudeDegrees>-1.23399040661752223968505859375</LongitudeDegrees>
            </Position>
            <AltitudeMeters>31.200000762939453125</AltitudeMeters>
            <DistanceMeters>NAN</DistanceMeters>
          </Trackpoint>
          <Trackpoint>
            <Time>2022-07-05T08:07:40.000Z</Time>
            <Position>
              <LatitudeDegrees>44.5123142190277576446533203125</LatitudeDegrees>
              <LongitudeDegrees>-1.23400549404323101043701171875</LongitudeDegrees>
            </Position>
            <AltitudeMeters>31.3999996185302734375</AltitudeMeters>
            <DistanceMeters>NAN</DistanceMeters>
          </Trackpoint>
          <Trackpoint>
            <Time>2022-07-05T08:07:42.000Z</Time>
            <Position>
              <LatitudeDegrees>44.51226602308452129364013671875</LatitudeDegrees>
              <LongitudeDegrees>-1.23402510769665241241455078125</LongitudeDegrees>
            </Position>
            <AltitudeMeters>31.6000003814697265625</AltitudeMeters>
            <DistanceMeters>NAN</DistanceMeters>
          </Trackpoint>
          <Trackpoint>
            <Time>2022-07-05T08:07:50.000Z</Time>
            <Position>
              <LatitudeDegrees>44.51205831952393054962158203125</LatitudeDegrees>
              <LongitudeDegrees>-1.23407959006726741790771484375</LongitudeDegrees>
            </Position>
            <AltitudeMeters>32</AltitudeMeters>
            <DistanceMeters>NAN</DistanceMeters>
          </Trackpoint>
          <Trackpoint>
            <Time>2022-07-05T08:07:54.000Z</Time>
            <Position>
              <LatitudeDegrees>44.51198824681341648101806640625</LatitudeDegrees>
              <LongitudeDegrees>-1.2340835295617580413818359375</LongitudeDegrees>
            </Position>
            <AltitudeMeters>32.200000762939453125</AltitudeMeters>
            <DistanceMeters>NAN</DistanceMeters>
          </Trackpoint>
          <Trackpoint>
            <Time>2022-07-05T08:07:58.000Z</Time>
            <Position>
              <LatitudeDegrees>44.51186955906450748443603515625</LatitudeDegrees>
              <LongitudeDegrees>-1.23407925479114055633544921875</LongitudeDegrees>
            </Position>
            <AltitudeMeters>32.40000152587890625</AltitudeMeters>
            <DistanceMeters>NAN</DistanceMeters>
          </Trackpoint>
          <Trackpoint>
            <Time>2022-07-05T08:08:03.000Z</Time>
            <Position>
              <LatitudeDegrees>44.51171667315065860748291015625</LatitudeDegrees>
              <LongitudeDegrees>-1.23406483791768550872802734375</LongitudeDegrees>
            </Position>
            <AltitudeMeters>32.799999237060546875</AltitudeMeters>
            <DistanceMeters>NAN</DistanceMeters>
          </Trackpoint>
          <Trackpoint>
            <Time>2022-07-05T08:08:06.000Z</Time>
            <Position>
              <LatitudeDegrees>44.5116456784307956695556640625</LatitudeDegrees>
              <LongitudeDegrees>-1.23402108438313007354736328125</LongitudeDegrees>
            </Position>
            <AltitudeMeters>32.799999237060546875</AltitudeMeters>
            <DistanceMeters>NAN</DistanceMeters>
          </Trackpoint>
          <Trackpoint>
            <Time>2022-07-05T08:08:12.000Z</Time>
            <Position>
              <LatitudeDegrees>44.51150846667587757110595703125</LatitudeDegrees>
              <LongitudeDegrees>-1.23391463421285152435302734375</LongitudeDegrees>
            </Position>
            <AltitudeMeters>33.200000762939453125</AltitudeMeters>
            <DistanceMeters>NAN</DistanceMeters>
          </Trackpoint>
          <Trackpoint>
            <Time>2022-07-05T08:08:13.000Z</Time>
            <Position>
              <LatitudeDegrees>44.51148868538439273834228515625</LatitudeDegrees>
              <LongitudeDegrees>-1.23388948850333690643310546875</LongitudeDegrees>
            </Position>
            <AltitudeMeters>33.200000762939453125</AltitudeMeters>
            <DistanceMeters>NAN</DistanceMeters>
          </Trackpoint>
          <Trackpoint>
            <Time>2022-07-05T08:08:15.000Z</Time>
            <Position>
              <LatitudeDegrees>44.51144157908856868743896484375</LatitudeDegrees>
              <LongitudeDegrees>-1.2338501773774623870849609375</LongitudeDegrees>
            </Position>
            <AltitudeMeters>33.200000762939453125</AltitudeMeters>
            <DistanceMeters>NAN</DistanceMeters>
          </Trackpoint>
          <Trackpoint>
            <Time>2022-07-05T08:08:19.000Z</Time>
            <Position>
              <LatitudeDegrees>44.51129489578306674957275390625</LatitudeDegrees>
              <LongitudeDegrees>-1.2337898276746273040771484375</LongitudeDegrees>
            </Position>
            <AltitudeMeters>33</AltitudeMeters>
            <DistanceMeters>NAN</DistanceMeters>
          </Trackpoint>
          <Trackpoint>
            <Time>2022-07-05T08:08:24.000Z</Time>
            <Position>
              <LatitudeDegrees>44.51106254942715167999267578125</LatitudeDegrees>
              <LongitudeDegrees>-1.2337076850235462188720703125</LongitudeDegrees>
            </Position>
            <AltitudeMeters>32.59999847412109375</AltitudeMeters>
            <DistanceMeters>NAN</DistanceMeters>
          </Trackpoint>
          <Trackpoint>
            <Time>2022-07-05T08:08:27.000Z</Time>
            <Position>
              <LatitudeDegrees>44.5109246671199798583984375</LatitudeDegrees>
              <LongitudeDegrees>-1.2336396239697933197021484375</LongitudeDegrees>
            </Position>
            <AltitudeMeters>32</AltitudeMeters>
            <DistanceMeters>NAN</DistanceMeters>
          </Trackpoint>
          <Trackpoint>
            <Time>2022-07-05T08:08:31.000Z</Time>
            <Position>
              <LatitudeDegrees>44.510749317705631256103515625</LatitudeDegrees>
              <LongitudeDegrees>-1.23354800976812839508056640625</LongitudeDegrees>
            </Position>
            <AltitudeMeters>32</AltitudeMeters>
            <DistanceMeters>NAN</DistanceMeters>
          </Trackpoint>
          <Trackpoint>
            <Time>2022-07-05T08:08:35.000Z</Time>
            <Position>
              <LatitudeDegrees>44.51064881868660449981689453125</LatitudeDegrees>
              <LongitudeDegrees>-1.233508698642253875732421875</LongitudeDegrees>
            </Position>
            <AltitudeMeters>31.6000003814697265625</AltitudeMeters>
            <DistanceMeters>NAN</DistanceMeters>
          </Trackpoint>
          <Trackpoint>
            <Time>2022-07-05T08:08:39.000Z</Time>
            <Position>
              <LatitudeDegrees>44.51043994165956974029541015625</LatitudeDegrees>
              <LongitudeDegrees>-1.233424879610538482666015625</LongitudeDegrees>
            </Position>
            <AltitudeMeters>31.3999996185302734375</AltitudeMeters>
            <DistanceMeters>NAN</DistanceMeters>
          </Trackpoint>
          <Trackpoint>
            <Time>2022-07-05T08:08:40.000Z</Time>
            <Position>
              <LatitudeDegrees>44.51043994165956974029541015625</LatitudeDegrees>
              <LongitudeDegrees>-1.233424879610538482666015625</LongitudeDegrees>
            </Position>
            <AltitudeMeters>31.3999996185302734375</AltitudeMeters>
            <DistanceMeters>NAN</DistanceMeters>
          </Trackpoint>
          <Trackpoint>
            <Time>2022-07-05T08:08:43.000Z</Time>
            <Position>
              <LatitudeDegrees>44.510327875614166259765625</LatitudeDegrees>
              <LongitudeDegrees>-1.233381964266300201416015625</LongitudeDegrees>
            </Position>
            <AltitudeMeters>31.6000003814697265625</AltitudeMeters>
            <DistanceMeters>NAN</DistanceMeters>
          </Trackpoint>
          <Trackpoint>
            <Time>2022-07-05T08:08:46.000Z</Time>
            <Position>
              <LatitudeDegrees>44.51018680818378925323486328125</LatitudeDegrees>
              <LongitudeDegrees>-1.23331884853541851043701171875</LongitudeDegrees>
            </Position>
            <AltitudeMeters>31.6000003814697265625</AltitudeMeters>
            <DistanceMeters>NAN</DistanceMeters>
          </Trackpoint>
          <Trackpoint>
            <Time>2022-07-05T08:08:49.000Z</Time>
            <Position>
              <LatitudeDegrees>44.510044567286968231201171875</LatitudeDegrees>
              <LongitudeDegrees>-1.23329780995845794677734375</LongitudeDegrees>
            </Position>
            <AltitudeMeters>31.3999996185302734375</AltitudeMeters>
            <DistanceMeters>NAN</DistanceMeters>
          </Trackpoint>
          <Trackpoint>
            <Time>2022-07-05T08:08:52.000Z</Time>
            <Position>
              <LatitudeDegrees>44.50991054065525531768798828125</LatitudeDegrees>
              <LongitudeDegrees>-1.23329068534076213836669921875</LongitudeDegrees>
            </Position>
            <AltitudeMeters>31.3999996185302734375</AltitudeMeters>
            <DistanceMeters>NAN</DistanceMeters>
          </Trackpoint>
          <Trackpoint>
            <Time>2022-07-05T08:08:57.000Z</Time>
            <Position>
              <LatitudeDegrees>44.5096722431480884552001953125</LatitudeDegrees>
              <LongitudeDegrees>-1.23326352797448635101318359375</LongitudeDegrees>
            </Position>
            <AltitudeMeters>31.200000762939453125</AltitudeMeters>
            <DistanceMeters>NAN</DistanceMeters>
          </Trackpoint>
          <Trackpoint>
            <Time>2022-07-05T08:08:59.000Z</Time>
            <Position>
              <LatitudeDegrees>44.509624131023883819580078125</LatitudeDegrees>
              <LongitudeDegrees>-1.23323821462690830230712890625</LongitudeDegrees>
            </Position>
            <AltitudeMeters>31.200000762939453125</AltitudeMeters>
            <DistanceMeters>NAN</DistanceMeters>
          </Trackpoint>
          <Trackpoint>
            <Time>2022-07-05T08:09:04.000Z</Time>
            <Position>
              <LatitudeDegrees>44.509479291737079620361328125</LatitudeDegrees>
              <LongitudeDegrees>-1.2332171760499477386474609375</LongitudeDegrees>
            </Position>
            <AltitudeMeters>31.6000003814697265625</AltitudeMeters>
            <DistanceMeters>NAN</DistanceMeters>
          </Trackpoint>
          <Trackpoint>
            <Time>2022-07-05T08:09:13.000Z</Time>
            <Position>
              <LatitudeDegrees>44.509042091667652130126953125</LatitudeDegrees>
              <LongitudeDegrees>-1.2333023361861705780029296875</LongitudeDegrees>
            </Position>
            <AltitudeMeters>31.799999237060546875</AltitudeMeters>
            <DistanceMeters>NAN</DistanceMeters>
          </Trackpoint>
          <Trackpoint>
            <Time>2022-07-05T08:09:14.000Z</Time>
            <Position>
              <LatitudeDegrees>44.509042091667652130126953125</LatitudeDegrees>
              <LongitudeDegrees>-1.2333023361861705780029296875</LongitudeDegrees>
            </Position>
            <AltitudeMeters>31.799999237060546875</AltitudeMeters>
            <DistanceMeters>NAN</DistanceMeters>
          </Trackpoint>
          <Trackpoint>
            <Time>2022-07-05T08:09:19.000Z</Time>
            <Position>
              <LatitudeDegrees>44.50879138894379138946533203125</LatitudeDegrees>
              <LongitudeDegrees>-1.233349777758121490478515625</LongitudeDegrees>
            </Position>
            <AltitudeMeters>31.3999996185302734375</AltitudeMeters>
            <DistanceMeters>NAN</DistanceMeters>
          </Trackpoint>
          <Trackpoint>
            <Time>2022-07-05T08:09:23.000Z</Time>
            <Position>
              <LatitudeDegrees>44.50867320410907268524169921875</LatitudeDegrees>
              <LongitudeDegrees>-1.23336754739284515380859375</LongitudeDegrees>
            </Position>
            <AltitudeMeters>31</AltitudeMeters>
            <DistanceMeters>NAN</DistanceMeters>
          </Trackpoint>
          <Trackpoint>
            <Time>2022-07-05T08:09:24.000Z</Time>
            <Position>
              <LatitudeDegrees>44.5086429454386234283447265625</LatitudeDegrees>
              <LongitudeDegrees>-1.23337559401988983154296875</LongitudeDegrees>
            </Position>
            <AltitudeMeters>31</AltitudeMeters>
            <DistanceMeters>NAN</DistanceMeters>
          </Trackpoint>
          <Trackpoint>
            <Time>2022-07-05T08:09:25.000Z</Time>
            <Position>
              <LatitudeDegrees>44.50861134566366672515869140625</LatitudeDegrees>
              <LongitudeDegrees>-1.23338674195110797882080078125</LongitudeDegrees>
            </Position>
            <AltitudeMeters>31</AltitudeMeters>
            <DistanceMeters>NAN</DistanceMeters>
          </Trackpoint>
          <Trackpoint>
            <Time>2022-07-05T08:09:31.000Z</Time>
            <Position>
              <LatitudeDegrees>44.50836190022528171539306640625</LatitudeDegrees>
              <LongitudeDegrees>-1.233404763042926788330078125</LongitudeDegrees>
            </Position>
            <AltitudeMeters>31.200000762939453125</AltitudeMeters>
            <DistanceMeters>NAN</DistanceMeters>
          </Trackpoint>
          <Trackpoint>
            <Time>2022-07-05T08:09:32.000Z</Time>
            <Position>
              <LatitudeDegrees>44.508321583271026611328125</LatitudeDegrees>
              <LongitudeDegrees>-1.2334113009274005889892578125</LongitudeDegrees>
            </Position>
            <AltitudeMeters>31.200000762939453125</AltitudeMeters>
            <DistanceMeters>NAN</DistanceMeters>
          </Trackpoint>
          <Trackpoint>
            <Time>2022-07-05T08:09:34.000Z</Time>
            <Position>
              <LatitudeDegrees>44.5082506723701953887939453125</LatitudeDegrees>
              <LongitudeDegrees>-1.2334277294576168060302734375</LongitudeDegrees>
            </Position>
            <AltitudeMeters>31.200000762939453125</AltitudeMeters>
            <DistanceMeters>NAN</DistanceMeters>
          </Trackpoint>
          <Trackpoint>
            <Time>2022-07-05T08:09:38.000Z</Time>
            <Position>
              <LatitudeDegrees>44.5081420429050922393798828125</LatitudeDegrees>
              <LongitudeDegrees>-1.2334391288459300994873046875</LongitudeDegrees>
            </Position>
            <AltitudeMeters>31</AltitudeMeters>
            <DistanceMeters>NAN</DistanceMeters>
          </Trackpoint>
          <Trackpoint>
            <Time>2022-07-05T08:09:44.000Z</Time>
            <Position>
              <LatitudeDegrees>44.50787340290844440460205078125</LatitudeDegrees>
              <LongitudeDegrees>-1.2334408052265644073486328125</LongitudeDegrees>
            </Position>
            <AltitudeMeters>31</AltitudeMeters>
            <DistanceMeters>NAN</DistanceMeters>
          </Trackpoint>
          <Trackpoint>
            <Time>2022-07-05T08:09:52.000Z</Time>
            <Position>
              <LatitudeDegrees>44.50752354227006435394287109375</LatitudeDegrees>
              <LongitudeDegrees>-1.23350844718515872955322265625</LongitudeDegrees>
            </Position>
            <AltitudeMeters>31</AltitudeMeters>
            <DistanceMeters>NAN</DistanceMeters>
          </Trackpoint>
          <Trackpoint>
            <Time>2022-07-05T08:09:56.000Z</Time>
            <Position>
              <LatitudeDegrees>44.50737568549811840057373046875</LatitudeDegrees>
              <LongitudeDegrees>-1.233500652015209197998046875</LongitudeDegrees>
            </Position>
            <AltitudeMeters>31.3999996185302734375</AltitudeMeters>
            <DistanceMeters>NAN</DistanceMeters>
          </Trackpoint>
          <Trackpoint>
            <Time>2022-07-05T08:09:58.000Z</Time>
            <Position>
              <LatitudeDegrees>44.50730058364570140838623046875</LatitudeDegrees>
              <LongitudeDegrees>-1.23351850546896457672119140625</LongitudeDegrees>
            </Position>
            <AltitudeMeters>31.3999996185302734375</AltitudeMeters>
            <DistanceMeters>NAN</DistanceMeters>
          </Trackpoint>
          <Trackpoint>
            <Time>2022-07-05T08:10:05.000Z</Time>
            <Position>
              <LatitudeDegrees>44.50706438161432743072509765625</LatitudeDegrees>
              <LongitudeDegrees>-1.2335816211998462677001953125</LongitudeDegrees>
            </Position>
            <AltitudeMeters>31.200000762939453125</AltitudeMeters>
            <DistanceMeters>NAN</DistanceMeters>
          </Trackpoint>
          <Trackpoint>
            <Time>2022-07-05T08:10:12.000Z</Time>
            <Position>
              <LatitudeDegrees>44.506850726902484893798828125</LatitudeDegrees>
              <LongitudeDegrees>-1.23363308608531951904296875</LongitudeDegrees>
            </Position>
            <AltitudeMeters>31.6000003814697265625</AltitudeMeters>
            <DistanceMeters>NAN</DistanceMeters>
          </Trackpoint>
          <Trackpoint>
            <Time>2022-07-05T08:10:14.000Z</Time>
            <Position>
              <LatitudeDegrees>44.5067731104791164398193359375</LatitudeDegrees>
              <LongitudeDegrees>-1.233645491302013397216796875</LongitudeDegrees>
            </Position>
            <AltitudeMeters>31.6000003814697265625</AltitudeMeters>
            <DistanceMeters>NAN</DistanceMeters>
          </Trackpoint>
          <Trackpoint>
            <Time>2022-07-05T08:10:15.000Z</Time>
            <Position>
              <LatitudeDegrees>44.50673078186810016632080078125</LatitudeDegrees>
              <LongitudeDegrees>-1.233650855720043182373046875</LongitudeDegrees>
            </Position>
            <AltitudeMeters>31.6000003814697265625</AltitudeMeters>
            <DistanceMeters>NAN</DistanceMeters>
          </Trackpoint>
          <Trackpoint>
            <Time>2022-07-05T08:10:18.000Z</Time>
            <Position>
              <LatitudeDegrees>44.50662952847778797149658203125</LatitudeDegrees>
              <LongitudeDegrees>-1.23368983156979084014892578125</LongitudeDegrees>
            </Position>
            <AltitudeMeters>31.6000003814697265625</AltitudeMeters>
            <DistanceMeters>NAN</DistanceMeters>
          </Trackpoint>
          <Trackpoint>
            <Time>2022-07-05T08:10:23.000Z</Time>
            <Position>
              <LatitudeDegrees>44.5064187236130237579345703125</LatitudeDegrees>
              <LongitudeDegrees>-1.2337772548198699951171875</LongitudeDegrees>
            </Position>
            <AltitudeMeters>31.6000003814697265625</AltitudeMeters>
            <DistanceMeters>NAN</DistanceMeters>
          </Trackpoint>
          <Trackpoint>
            <Time>2022-07-05T08:10:24.000Z</Time>
            <Position>
              <LatitudeDegrees>44.5064187236130237579345703125</LatitudeDegrees>
              <LongitudeDegrees>-1.2337772548198699951171875</LongitudeDegrees>
            </Position>
            <AltitudeMeters>31.6000003814697265625</AltitudeMeters>
            <DistanceMeters>NAN</DistanceMeters>
          </Trackpoint>
          <Trackpoint>
            <Time>2022-07-05T08:10:34.000Z</Time>
            <Position>
              <LatitudeDegrees>44.50599619187414646148681640625</LatitudeDegrees>
              <LongitudeDegrees>-1.23390172608196735382080078125</LongitudeDegrees>
            </Position>
            <AltitudeMeters>31.6000003814697265625</AltitudeMeters>
            <DistanceMeters>NAN</DistanceMeters>
          </Trackpoint>
          <Trackpoint>
            <Time>2022-07-05T08:10:38.000Z</Time>
            <Position>
              <LatitudeDegrees>44.5058606564998626708984375</LatitudeDegrees>
              <LongitudeDegrees>-1.2339567951858043670654296875</LongitudeDegrees>
            </Position>
            <AltitudeMeters>31.6000003814697265625</AltitudeMeters>
            <DistanceMeters>NAN</DistanceMeters>
          </Trackpoint>
          <Trackpoint>
            <Time>2022-07-05T08:10:40.000Z</Time>
            <Position>
              <LatitudeDegrees>44.50580826960504055023193359375</LatitudeDegrees>
              <LongitudeDegrees>-1.2339990399777889251708984375</LongitudeDegrees>
            </Position>
            <AltitudeMeters>31.6000003814697265625</AltitudeMeters>
            <DistanceMeters>NAN</DistanceMeters>
          </Trackpoint>
          <Trackpoint>
            <Time>2022-07-05T08:10:47.000Z</Time>
            <Position>
              <LatitudeDegrees>44.505620934069156646728515625</LatitudeDegrees>
              <LongitudeDegrees>-1.2341267801821231842041015625</LongitudeDegrees>
            </Position>
            <AltitudeMeters>31.799999237060546875</AltitudeMeters>
            <DistanceMeters>NAN</DistanceMeters>
          </Trackpoint>
          <Trackpoint>
            <Time>2022-07-05T08:10:52.000Z</Time>
            <Position>
              <LatitudeDegrees>44.50548271648585796356201171875</LatitudeDegrees>
              <LongitudeDegrees>-1.23422208242118358612060546875</LongitudeDegrees>
            </Position>
            <AltitudeMeters>32</AltitudeMeters>
            <DistanceMeters>NAN</DistanceMeters>
          </Trackpoint>
          <Trackpoint>
            <Time>2022-07-05T08:10:54.000Z</Time>
            <Position>
              <LatitudeDegrees>44.50543510727584362030029296875</LatitudeDegrees>
              <LongitudeDegrees>-1.23425125144422054290771484375</LongitudeDegrees>
            </Position>
            <AltitudeMeters>32</AltitudeMeters>
            <DistanceMeters>NAN</DistanceMeters>
          </Trackpoint>
          <Trackpoint>
            <Time>2022-07-05T08:10:55.000Z</Time>
            <Position>
              <LatitudeDegrees>44.50540979392826557159423828125</LatitudeDegrees>
              <LongitudeDegrees>-1.2342635728418827056884765625</LongitudeDegrees>
            </Position>
            <AltitudeMeters>32.200000762939453125</AltitudeMeters>
            <DistanceMeters>NAN</DistanceMeters>
          </Trackpoint>
          <Trackpoint>
            <Time>2022-07-05T08:11:03.000Z</Time>
            <Position>
              <LatitudeDegrees>44.50518934987485408782958984375</LatitudeDegrees>
              <LongitudeDegrees>-1.23434009961783885955810546875</LongitudeDegrees>
            </Position>
            <AltitudeMeters>32.200000762939453125</AltitudeMeters>
            <DistanceMeters>NAN</DistanceMeters>
          </Trackpoint>
          <Trackpoint>
            <Time>2022-07-05T08:11:11.000Z</Time>
            <Position>
              <LatitudeDegrees>44.50491660274565219879150390625</LatitudeDegrees>
              <LongitudeDegrees>-1.234369687736034393310546875</LongitudeDegrees>
            </Position>
            <AltitudeMeters>32</AltitudeMeters>
            <DistanceMeters>NAN</DistanceMeters>
          </Trackpoint>
          <Trackpoint>
            <Time>2022-07-05T08:11:16.000Z</Time>
            <Position>
              <LatitudeDegrees>44.50471493415534496307373046875</LatitudeDegrees>
              <LongitudeDegrees>-1.2343705259263515472412109375</LongitudeDegrees>
            </Position>
            <AltitudeMeters>31.799999237060546875</AltitudeMeters>
            <DistanceMeters>NAN</DistanceMeters>
          </Trackpoint>
          <Trackpoint>
            <Time>2022-07-05T08:11:18.000Z</Time>
            <Position>
              <LatitudeDegrees>44.50458702631294727325439453125</LatitudeDegrees>
              <LongitudeDegrees>-1.2343510799109935760498046875</LongitudeDegrees>
            </Position>
            <AltitudeMeters>31.799999237060546875</AltitudeMeters>
            <DistanceMeters>NAN</DistanceMeters>
          </Trackpoint>
          <Trackpoint>
            <Time>2022-07-05T08:11:25.000Z</Time>
            <Position>
              <LatitudeDegrees>44.50432618148624897003173828125</LatitudeDegrees>
              <LongitudeDegrees>-1.2343343161046504974365234375</LongitudeDegrees>
            </Position>
            <AltitudeMeters>31.6000003814697265625</AltitudeMeters>
            <DistanceMeters>NAN</DistanceMeters>
          </Trackpoint>
          <Trackpoint>
            <Time>2022-07-05T08:11:29.000Z</Time>
            <Position>
              <LatitudeDegrees>44.5042038895189762115478515625</LatitudeDegrees>
              <LongitudeDegrees>-1.2342608906328678131103515625</LongitudeDegrees>
            </Position>
            <AltitudeMeters>31.799999237060546875</AltitudeMeters>
            <DistanceMeters>NAN</DistanceMeters>
          </Trackpoint>
          <Trackpoint>
            <Time>2022-07-05T08:11:34.000Z</Time>
            <Position>
              <LatitudeDegrees>44.503978081047534942626953125</LatitudeDegrees>
              <LongitudeDegrees>-1.234229542315006256103515625</LongitudeDegrees>
            </Position>
            <AltitudeMeters>31.6000003814697265625</AltitudeMeters>
            <DistanceMeters>NAN</DistanceMeters>
          </Trackpoint>
          <Trackpoint>
            <Time>2022-07-05T08:11:35.000Z</Time>
            <Position>
              <LatitudeDegrees>44.503940530121326446533203125</LatitudeDegrees>
              <LongitudeDegrees>-1.23422878794372081756591796875</LongitudeDegrees>
            </Position>
            <AltitudeMeters>31.6000003814697265625</AltitudeMeters>
            <DistanceMeters>NAN</DistanceMeters>
          </Trackpoint>
          <Trackpoint>
            <Time>2022-07-05T08:11:37.000Z</Time>
            <Position>
              <LatitudeDegrees>44.50388110242784023284912109375</LatitudeDegrees>
              <LongitudeDegrees>-1.23423247598111629486083984375</LongitudeDegrees>
            </Position>
            <AltitudeMeters>31.6000003814697265625</AltitudeMeters>
            <DistanceMeters>NAN</DistanceMeters>
          </Trackpoint>
          <Trackpoint>
            <Time>2022-07-05T08:11:42.000Z</Time>
            <Position>
              <LatitudeDegrees>44.5037693716585636138916015625</LatitudeDegrees>
              <LongitudeDegrees>-1.23416944406926631927490234375</LongitudeDegrees>
            </Position>
            <AltitudeMeters>31.6000003814697265625</AltitudeMeters>
            <DistanceMeters>NAN</DistanceMeters>
          </Trackpoint>
          <Trackpoint>
            <Time>2022-07-05T08:11:46.000Z</Time>
            <Position>
              <LatitudeDegrees>44.50355487875640392303466796875</LatitudeDegrees>
              <LongitudeDegrees>-1.2341807596385478973388671875</LongitudeDegrees>
            </Position>
            <AltitudeMeters>31.6000003814697265625</AltitudeMeters>
            <DistanceMeters>NAN</DistanceMeters>
          </Trackpoint>
          <Trackpoint>
            <Time>2022-07-05T08:11:50.000Z</Time>
            <Position>
              <LatitudeDegrees>44.50346636585891246795654296875</LatitudeDegrees>
              <LongitudeDegrees>-1.234159804880619049072265625</LongitudeDegrees>
            </Position>
            <AltitudeMeters>31.799999237060546875</AltitudeMeters>
            <DistanceMeters>NAN</DistanceMeters>
          </Trackpoint>
          <Trackpoint>
            <Time>2022-07-05T08:11:52.000Z</Time>
            <Position>
              <LatitudeDegrees>44.50334013439714908599853515625</LatitudeDegrees>
              <LongitudeDegrees>-1.234129965305328369140625</LongitudeDegrees>
            </Position>
            <AltitudeMeters>31.799999237060546875</AltitudeMeters>
            <DistanceMeters>NAN</DistanceMeters>
          </Trackpoint>
          <Trackpoint>
            <Time>2022-07-05T08:11:55.000Z</Time>
            <Position>
              <LatitudeDegrees>44.50324751436710357666015625</LatitudeDegrees>
              <LongitudeDegrees>-1.23411982320249080657958984375</LongitudeDegrees>
            </Position>
            <AltitudeMeters>31.6000003814697265625</AltitudeMeters>
            <DistanceMeters>NAN</DistanceMeters>
          </Trackpoint>
          <Trackpoint>
            <Time>2022-07-05T08:11:56.000Z</Time>
            <Position>
              <LatitudeDegrees>44.50315900146961212158203125</LatitudeDegrees>
              <LongitudeDegrees>-1.23411781154572963714599609375</LongitudeDegrees>
            </Position>
            <AltitudeMeters>31.3999996185302734375</AltitudeMeters>
            <DistanceMeters>NAN</DistanceMeters>
          </Trackpoint>
          <Trackpoint>
            <Time>2022-07-05T08:11:57.000Z</Time>
            <Position>
              <LatitudeDegrees>44.503114409744739532470703125</LatitudeDegrees>
              <LongitudeDegrees>-1.234106831252574920654296875</LongitudeDegrees>
            </Position>
            <AltitudeMeters>31.3999996185302734375</AltitudeMeters>
            <DistanceMeters>NAN</DistanceMeters>
          </Trackpoint>
          <Trackpoint>
            <Time>2022-07-05T08:11:58.000Z</Time>
            <Position>
              <LatitudeDegrees>44.50307191349565982818603515625</LatitudeDegrees>
              <LongitudeDegrees>-1.23410657979547977447509765625</LongitudeDegrees>
            </Position>
            <AltitudeMeters>31.3999996185302734375</AltitudeMeters>
            <DistanceMeters>NAN</DistanceMeters>
          </Trackpoint>
          <Trackpoint>
            <Time>2022-07-05T08:11:59.000Z</Time>
            <Position>
              <LatitudeDegrees>44.503018856048583984375</LatitudeDegrees>
              <LongitudeDegrees>-1.2341073341667652130126953125</LongitudeDegrees>
            </Position>
            <AltitudeMeters>31.3999996185302734375</AltitudeMeters>
            <DistanceMeters>NAN</DistanceMeters>
          </Trackpoint>
          <Trackpoint>
            <Time>2022-07-05T08:12:04.000Z</Time>
            <Position>
              <LatitudeDegrees>44.5028041116893291473388671875</LatitudeDegrees>
              <LongitudeDegrees>-1.23393525369465351104736328125</LongitudeDegrees>
            </Position>
            <AltitudeMeters>31.200000762939453125</AltitudeMeters>
            <DistanceMeters>NAN</DistanceMeters>
          </Trackpoint>
          <Trackpoint>
            <Time>2022-07-05T08:12:05.000Z</Time>
            <Position>
              <LatitudeDegrees>44.50277804397046566009521484375</LatitudeDegrees>
              <LongitudeDegrees>-1.233915388584136962890625</LongitudeDegrees>
            </Position>
            <AltitudeMeters>31.200000762939453125</AltitudeMeters>
            <DistanceMeters>NAN</DistanceMeters>
          </Trackpoint>
          <Trackpoint>
            <Time>2022-07-05T08:12:11.000Z</Time>
            <Position>
              <LatitudeDegrees>44.5025268383324146270751953125</LatitudeDegrees>
              <LongitudeDegrees>-1.233763508498668670654296875</LongitudeDegrees>
            </Position>
            <AltitudeMeters>31.3999996185302734375</AltitudeMeters>
            <DistanceMeters>NAN</DistanceMeters>
          </Trackpoint>
          <Trackpoint>
            <Time>2022-07-05T08:12:16.000Z</Time>
            <Position>
              <LatitudeDegrees>44.50232525356113910675048828125</LatitudeDegrees>
              <LongitudeDegrees>-1.23363451100885868072509765625</LongitudeDegrees>
            </Position>
            <AltitudeMeters>31.3999996185302734375</AltitudeMeters>
            <DistanceMeters>NAN</DistanceMeters>
          </Trackpoint>
          <Trackpoint>
            <Time>2022-07-05T08:12:18.000Z</Time>
            <Position>
              <LatitudeDegrees>44.50230832211673259735107421875</LatitudeDegrees>
              <LongitudeDegrees>-1.23358924873173236846923828125</LongitudeDegrees>
            </Position>
            <AltitudeMeters>31.3999996185302734375</AltitudeMeters>
            <DistanceMeters>NAN</DistanceMeters>
          </Trackpoint>
          <Trackpoint>
            <Time>2022-07-05T08:12:21.000Z</Time>
            <Position>
              <LatitudeDegrees>44.50218695215880870819091796875</LatitudeDegrees>
              <LongitudeDegrees>-1.23354189097881317138671875</LongitudeDegrees>
            </Position>
            <AltitudeMeters>31.6000003814697265625</AltitudeMeters>
            <DistanceMeters>NAN</DistanceMeters>
          </Trackpoint>
          <Trackpoint>
            <Time>2022-07-05T08:12:25.000Z</Time>
            <Position>
              <LatitudeDegrees>44.5020467229187488555908203125</LatitudeDegrees>
              <LongitudeDegrees>-1.23349570669233798980712890625</LongitudeDegrees>
            </Position>
            <AltitudeMeters>31.3999996185302734375</AltitudeMeters>
            <DistanceMeters>NAN</DistanceMeters>
          </Trackpoint>
          <Trackpoint>
            <Time>2022-07-05T08:12:28.000Z</Time>
            <Position>
              <LatitudeDegrees>44.50195443816483020782470703125</LatitudeDegrees>
              <LongitudeDegrees>-1.23347190208733081817626953125</LongitudeDegrees>
            </Position>
            <AltitudeMeters>31.3999996185302734375</AltitudeMeters>
            <DistanceMeters>NAN</DistanceMeters>
          </Trackpoint>
          <Trackpoint>
            <Time>2022-07-05T08:12:34.000Z</Time>
            <Position>
              <LatitudeDegrees>44.50173416174948215484619140625</LatitudeDegrees>
              <LongitudeDegrees>-1.2334374524652957916259765625</LongitudeDegrees>
            </Position>
            <AltitudeMeters>31.6000003814697265625</AltitudeMeters>
            <DistanceMeters>NAN</DistanceMeters>
          </Trackpoint>
          <Trackpoint>
            <Time>2022-07-05T08:12:40.000Z</Time>
            <Position>
              <LatitudeDegrees>44.50147734023630619049072265625</LatitudeDegrees>
              <LongitudeDegrees>-1.233421526849269866943359375</LongitudeDegrees>
            </Position>
            <AltitudeMeters>31.3999996185302734375</AltitudeMeters>
            <DistanceMeters>NAN</DistanceMeters>
          </Trackpoint>
          <Trackpoint>
            <Time>2022-07-05T08:12:46.000Z</Time>
            <Position>
              <LatitudeDegrees>44.50126980431377887725830078125</LatitudeDegrees>
              <LongitudeDegrees>-1.23338204808533191680908203125</LongitudeDegrees>
            </Position>
            <AltitudeMeters>31.200000762939453125</AltitudeMeters>
            <DistanceMeters>NAN</DistanceMeters>
          </Trackpoint>
          <Trackpoint>
            <Time>2022-07-05T08:12:47.000Z</Time>
            <Position>
              <LatitudeDegrees>44.501240551471710205078125</LatitudeDegrees>
              <LongitudeDegrees>-1.23338154517114162445068359375</LongitudeDegrees>
            </Position>
            <AltitudeMeters>31</AltitudeMeters>
            <DistanceMeters>NAN</DistanceMeters>
          </Trackpoint>
          <Trackpoint>
            <Time>2022-07-05T08:12:50.000Z</Time>
            <Position>
              <LatitudeDegrees>44.50113837607204914093017578125</LatitudeDegrees>
              <LongitudeDegrees>-1.23338271863758563995361328125</LongitudeDegrees>
            </Position>
            <AltitudeMeters>31</AltitudeMeters>
            <DistanceMeters>NAN</DistanceMeters>
          </Trackpoint>
          <Trackpoint>
            <Time>2022-07-05T08:12:55.000Z</Time>
            <Position>
              <LatitudeDegrees>44.5009269006550312042236328125</LatitudeDegrees>
              <LongitudeDegrees>-1.2333442457020282745361328125</LongitudeDegrees>
            </Position>
            <AltitudeMeters>31</AltitudeMeters>
            <DistanceMeters>NAN</DistanceMeters>
          </Trackpoint>
          <Trackpoint>
            <Time>2022-07-05T08:12:58.000Z</Time>
            <Position>
              <LatitudeDegrees>44.500760771334171295166015625</LatitudeDegrees>
              <LongitudeDegrees>-1.23334248550236225128173828125</LongitudeDegrees>
            </Position>
            <AltitudeMeters>31.200000762939453125</AltitudeMeters>
            <DistanceMeters>NAN</DistanceMeters>
          </Trackpoint>
          <Trackpoint>
            <Time>2022-07-05T08:12:59.000Z</Time>
            <Position>
              <LatitudeDegrees>44.50072380714118480682373046875</LatitudeDegrees>
              <LongitudeDegrees>-1.23335673473775386810302734375</LongitudeDegrees>
            </Position>
            <AltitudeMeters>31.200000762939453125</AltitudeMeters>
            <DistanceMeters>NAN</DistanceMeters>
          </Trackpoint>
          <Trackpoint>
            <Time>2022-07-05T08:13:04.000Z</Time>
            <Position>
              <LatitudeDegrees>44.50049221515655517578125</LatitudeDegrees>
              <LongitudeDegrees>-1.2334015779197216033935546875</LongitudeDegrees>
            </Position>
            <AltitudeMeters>31.6000003814697265625</AltitudeMeters>
            <DistanceMeters>NAN</DistanceMeters>
          </Trackpoint>
          <Trackpoint>
            <Time>2022-07-05T08:13:06.000Z</Time>
            <Position>
              <LatitudeDegrees>44.5004184544086456298828125</LatitudeDegrees>
              <LongitudeDegrees>-1.233422867953777313232421875</LongitudeDegrees>
            </Position>
            <AltitudeMeters>31.6000003814697265625</AltitudeMeters>
            <DistanceMeters>NAN</DistanceMeters>
          </Trackpoint>
          <Trackpoint>
            <Time>2022-07-05T08:13:13.000Z</Time>
            <Position>
              <LatitudeDegrees>44.50024838559329509735107421875</LatitudeDegrees>
              <LongitudeDegrees>-1.2333596684038639068603515625</LongitudeDegrees>
            </Position>
            <AltitudeMeters>31.6000003814697265625</AltitudeMeters>
            <DistanceMeters>NAN</DistanceMeters>
          </Trackpoint>
          <Trackpoint>
            <Time>2022-07-05T08:13:18.000Z</Time>
            <Position>
              <LatitudeDegrees>44.50006951577961444854736328125</LatitudeDegrees>
              <LongitudeDegrees>-1.2334012426435947418212890625</LongitudeDegrees>
            </Position>
            <AltitudeMeters>32</AltitudeMeters>
            <DistanceMeters>NAN</DistanceMeters>
          </Trackpoint>
          <Trackpoint>
            <Time>2022-07-05T08:13:21.000Z</Time>
            <Position>
              <LatitudeDegrees>44.49989936314523220062255859375</LatitudeDegrees>
              <LongitudeDegrees>-1.233402080833911895751953125</LongitudeDegrees>
            </Position>
            <AltitudeMeters>32.40000152587890625</AltitudeMeters>
            <DistanceMeters>NAN</DistanceMeters>
          </Trackpoint>
          <Trackpoint>
            <Time>2022-07-05T08:13:26.000Z</Time>
            <Position>
              <LatitudeDegrees>44.49969953857362270355224609375</LatitudeDegrees>
              <LongitudeDegrees>-1.2334304116666316986083984375</LongitudeDegrees>
            </Position>
            <AltitudeMeters>32.799999237060546875</AltitudeMeters>
            <DistanceMeters>NAN</DistanceMeters>
          </Trackpoint>
          <Trackpoint>
            <Time>2022-07-05T08:13:28.000Z</Time>
            <Position>
              <LatitudeDegrees>44.49962980113923549652099609375</LatitudeDegrees>
              <LongitudeDegrees>-1.2334367819130420684814453125</LongitudeDegrees>
            </Position>
            <AltitudeMeters>33.200000762939453125</AltitudeMeters>
            <DistanceMeters>NAN</DistanceMeters>
          </Trackpoint>
          <Trackpoint>
            <Time>2022-07-05T08:13:31.000Z</Time>
            <Position>
              <LatitudeDegrees>44.4995586387813091278076171875</LatitudeDegrees>
              <LongitudeDegrees>-1.233494281768798828125</LongitudeDegrees>
            </Position>
            <AltitudeMeters>33.59999847412109375</AltitudeMeters>
            <DistanceMeters>NAN</DistanceMeters>
          </Trackpoint>
          <Trackpoint>
            <Time>2022-07-05T08:13:36.000Z</Time>
            <Position>
              <LatitudeDegrees>44.4994030706584453582763671875</LatitudeDegrees>
              <LongitudeDegrees>-1.23354046605527400970458984375</LongitudeDegrees>
            </Position>
            <AltitudeMeters>34</AltitudeMeters>
            <DistanceMeters>NAN</DistanceMeters>
          </Trackpoint>
          <Trackpoint>
            <Time>2022-07-05T08:13:38.000Z</Time>
            <Position>
              <LatitudeDegrees>44.49934967793524265289306640625</LatitudeDegrees>
              <LongitudeDegrees>-1.23353225179016590118408203125</LongitudeDegrees>
            </Position>
            <AltitudeMeters>34</AltitudeMeters>
            <DistanceMeters>NAN</DistanceMeters>
          </Trackpoint>
          <Trackpoint>
            <Time>2022-07-05T08:13:44.000Z</Time>
            <Position>
              <LatitudeDegrees>44.499209113419055938720703125</LatitudeDegrees>
              <LongitudeDegrees>-1.23341985046863555908203125</LongitudeDegrees>
            </Position>
            <AltitudeMeters>34</AltitudeMeters>
            <DistanceMeters>NAN</DistanceMeters>
          </Trackpoint>
          <Trackpoint>
            <Time>2022-07-05T08:13:48.000Z</Time>
            <Position>
              <LatitudeDegrees>44.49908128939568996429443359375</LatitudeDegrees>
              <LongitudeDegrees>-1.2332849018275737762451171875</LongitudeDegrees>
            </Position>
            <AltitudeMeters>33.799999237060546875</AltitudeMeters>
            <DistanceMeters>NAN</DistanceMeters>
          </Trackpoint>
          <Trackpoint>
            <Time>2022-07-05T08:13:54.000Z</Time>
            <Position>
              <LatitudeDegrees>44.498910047113895416259765625</LatitudeDegrees>
              <LongitudeDegrees>-1.23307325877249240875244140625</LongitudeDegrees>
            </Position>
            <AltitudeMeters>33.59999847412109375</AltitudeMeters>
            <DistanceMeters>NAN</DistanceMeters>
          </Trackpoint>
          <Trackpoint>
            <Time>2022-07-05T08:13:57.000Z</Time>
            <Position>
              <LatitudeDegrees>44.49882346205413341522216796875</LatitudeDegrees>
              <LongitudeDegrees>-1.2329596839845180511474609375</LongitudeDegrees>
            </Position>
            <AltitudeMeters>33.40000152587890625</AltitudeMeters>
            <DistanceMeters>NAN</DistanceMeters>
          </Trackpoint>
          <Trackpoint>
            <Time>2022-07-05T08:13:59.000Z</Time>
            <Position>
              <LatitudeDegrees>44.4987764395773410797119140625</LatitudeDegrees>
              <LongitudeDegrees>-1.23289237730205059051513671875</LongitudeDegrees>
            </Position>
            <AltitudeMeters>33.40000152587890625</AltitudeMeters>
            <DistanceMeters>NAN</DistanceMeters>
          </Trackpoint>
          <Trackpoint>
            <Time>2022-07-05T08:14:04.000Z</Time>
            <Position>
              <LatitudeDegrees>44.49864023365080356597900390625</LatitudeDegrees>
              <LongitudeDegrees>-1.232726834714412689208984375</LongitudeDegrees>
            </Position>
            <AltitudeMeters>33.200000762939453125</AltitudeMeters>
            <DistanceMeters>NAN</DistanceMeters>
          </Trackpoint>
          <Trackpoint>
            <Time>2022-07-05T08:14:11.000Z</Time>
            <Position>
              <LatitudeDegrees>44.49838307686150074005126953125</LatitudeDegrees>
              <LongitudeDegrees>-1.2324993498623371124267578125</LongitudeDegrees>
            </Position>
            <AltitudeMeters>32.799999237060546875</AltitudeMeters>
            <DistanceMeters>NAN</DistanceMeters>
          </Trackpoint>
          <Trackpoint>
            <Time>2022-07-05T08:14:12.000Z</Time>
            <Position>
              <LatitudeDegrees>44.4983338750898838043212890625</LatitudeDegrees>
              <LongitudeDegrees>-1.2324782274663448333740234375</LongitudeDegrees>
            </Position>
            <AltitudeMeters>32.799999237060546875</AltitudeMeters>
            <DistanceMeters>NAN</DistanceMeters>
          </Trackpoint>
          <Trackpoint>
            <Time>2022-07-05T08:14:14.000Z</Time>
            <Position>
              <LatitudeDegrees>44.498232789337635040283203125</LatitudeDegrees>
              <LongitudeDegrees>-1.2324470467865467071533203125</LongitudeDegrees>
            </Position>
            <AltitudeMeters>32.59999847412109375</AltitudeMeters>
            <DistanceMeters>NAN</DistanceMeters>
          </Trackpoint>
          <Trackpoint>
            <Time>2022-07-05T08:14:17.000Z</Time>
            <Position>
              <LatitudeDegrees>44.49806121177971363067626953125</LatitudeDegrees>
              <LongitudeDegrees>-1.23245584778487682342529296875</LongitudeDegrees>
            </Position>
            <AltitudeMeters>32.40000152587890625</AltitudeMeters>
            <DistanceMeters>NAN</DistanceMeters>
          </Trackpoint>
          <Trackpoint>
            <Time>2022-07-05T08:14:19.000Z</Time>
            <Position>
              <LatitudeDegrees>44.49796398170292377471923828125</LatitudeDegrees>
              <LongitudeDegrees>-1.23245350085198879241943359375</LongitudeDegrees>
            </Position>
            <AltitudeMeters>32.200000762939453125</AltitudeMeters>
            <DistanceMeters>NAN</DistanceMeters>
          </Trackpoint>
          <Trackpoint>
            <Time>2022-07-05T08:14:24.000Z</Time>
            <Position>
              <LatitudeDegrees>44.497718475759029388427734375</LatitudeDegrees>
              <LongitudeDegrees>-1.23245450668036937713623046875</LongitudeDegrees>
            </Position>
            <AltitudeMeters>31.799999237060546875</AltitudeMeters>
            <DistanceMeters>NAN</DistanceMeters>
          </Trackpoint>
          <Trackpoint>
            <Time>2022-07-05T08:14:27.000Z</Time>
            <Position>
              <LatitudeDegrees>44.4975994527339935302734375</LatitudeDegrees>
              <LongitudeDegrees>-1.2324765510857105255126953125</LongitudeDegrees>
            </Position>
            <AltitudeMeters>31.799999237060546875</AltitudeMeters>
            <DistanceMeters>NAN</DistanceMeters>
          </Trackpoint>
          <Trackpoint>
            <Time>2022-07-05T08:14:29.000Z</Time>
            <Position>
              <LatitudeDegrees>44.497522674500942230224609375</LatitudeDegrees>
              <LongitudeDegrees>-1.23248937539756298065185546875</LongitudeDegrees>
            </Position>
            <AltitudeMeters>31.799999237060546875</AltitudeMeters>
            <DistanceMeters>NAN</DistanceMeters>
          </Trackpoint>
          <Trackpoint>
            <Time>2022-07-05T08:14:30.000Z</Time>
            <Position>
              <LatitudeDegrees>44.4974946789443492889404296875</LatitudeDegrees>
              <LongitudeDegrees>-1.23248568736016750335693359375</LongitudeDegrees>
            </Position>
            <AltitudeMeters>32</AltitudeMeters>
            <DistanceMeters>NAN</DistanceMeters>
          </Trackpoint>
          <Trackpoint>
            <Time>2022-07-05T08:14:31.000Z</Time>
            <Position>
              <LatitudeDegrees>44.49746207334101200103759765625</LatitudeDegrees>
              <LongitudeDegrees>-1.23249239288270473480224609375</LongitudeDegrees>
            </Position>
            <AltitudeMeters>32</AltitudeMeters>
            <DistanceMeters>NAN</DistanceMeters>
          </Trackpoint>
          <Trackpoint>
            <Time>2022-07-05T08:14:35.000Z</Time>
            <Position>
              <LatitudeDegrees>44.49731052853167057037353515625</LatitudeDegrees>
              <LongitudeDegrees>-1.23254352249205112457275390625</LongitudeDegrees>
            </Position>
            <AltitudeMeters>32.200000762939453125</AltitudeMeters>
            <DistanceMeters>NAN</DistanceMeters>
          </Trackpoint>
          <Trackpoint>
            <Time>2022-07-05T08:14:43.000Z</Time>
            <Position>
              <LatitudeDegrees>44.49707197956740856170654296875</LatitudeDegrees>
              <LongitudeDegrees>-1.232647709548473358154296875</LongitudeDegrees>
            </Position>
            <AltitudeMeters>32.59999847412109375</AltitudeMeters>
            <DistanceMeters>NAN</DistanceMeters>
          </Trackpoint>
          <Trackpoint>
            <Time>2022-07-05T08:14:46.000Z</Time>
            <Position>
              <LatitudeDegrees>44.4969357736408710479736328125</LatitudeDegrees>
              <LongitudeDegrees>-1.2326820753514766693115234375</LongitudeDegrees>
            </Position>
            <AltitudeMeters>32.59999847412109375</AltitudeMeters>
            <DistanceMeters>NAN</DistanceMeters>
          </Trackpoint>
          <Trackpoint>
            <Time>2022-07-05T08:14:50.000Z</Time>
            <Position>
              <LatitudeDegrees>44.49679001234471797943115234375</LatitudeDegrees>
              <LongitudeDegrees>-1.232732199132442474365234375</LongitudeDegrees>
            </Position>
            <AltitudeMeters>32.40000152587890625</AltitudeMeters>
            <DistanceMeters>NAN</DistanceMeters>
          </Trackpoint>
          <Trackpoint>
            <Time>2022-07-05T08:14:56.000Z</Time>
            <Position>
              <LatitudeDegrees>44.49663796462118625640869140625</LatitudeDegrees>
              <LongitudeDegrees>-1.2327685765922069549560546875</LongitudeDegrees>
            </Position>
            <AltitudeMeters>32.59999847412109375</AltitudeMeters>
            <DistanceMeters>NAN</DistanceMeters>
          </Trackpoint>
          <Trackpoint>
            <Time>2022-07-05T08:15:02.000Z</Time>
            <Position>
              <LatitudeDegrees>44.4965158402919769287109375</LatitudeDegrees>
              <LongitudeDegrees>-1.2327558360993862152099609375</LongitudeDegrees>
            </Position>
            <AltitudeMeters>33</AltitudeMeters>
            <DistanceMeters>NAN</DistanceMeters>
          </Trackpoint>
          <Trackpoint>
            <Time>2022-07-05T08:15:03.000Z</Time>
            <Position>
              <LatitudeDegrees>44.496497400104999542236328125</LatitudeDegrees>
              <LongitudeDegrees>-1.232738904654979705810546875</LongitudeDegrees>
            </Position>
            <AltitudeMeters>33.200000762939453125</AltitudeMeters>
            <DistanceMeters>NAN</DistanceMeters>
          </Trackpoint>
          <Trackpoint>
            <Time>2022-07-05T08:15:07.000Z</Time>
            <Position>
              <LatitudeDegrees>44.49640410952270030975341796875</LatitudeDegrees>
              <LongitudeDegrees>-1.23265366069972515106201171875</LongitudeDegrees>
            </Position>
            <AltitudeMeters>33.59999847412109375</AltitudeMeters>
            <DistanceMeters>NAN</DistanceMeters>
          </Trackpoint>
          <Trackpoint>
            <Time>2022-07-05T08:15:10.000Z</Time>
            <Position>
              <LatitudeDegrees>44.496366642415523529052734375</LatitudeDegrees>
              <LongitudeDegrees>-1.2326217256486415863037109375</LongitudeDegrees>
            </Position>
            <AltitudeMeters>33.799999237060546875</AltitudeMeters>
            <DistanceMeters>NAN</DistanceMeters>
          </Trackpoint>
          <Trackpoint>
            <Time>2022-07-05T08:15:14.000Z</Time>
            <Position>
              <LatitudeDegrees>44.49627854861319065093994140625</LatitudeDegrees>
              <LongitudeDegrees>-1.23254352249205112457275390625</LongitudeDegrees>
            </Position>
            <AltitudeMeters>34.200000762939453125</AltitudeMeters>
            <DistanceMeters>NAN</DistanceMeters>
          </Trackpoint>
          <Trackpoint>
            <Time>2022-07-05T08:15:15.000Z</Time>
            <Position>
              <LatitudeDegrees>44.4962668977677822113037109375</LatitudeDegrees>
              <LongitudeDegrees>-1.232526004314422607421875</LongitudeDegrees>
            </Position>
            <AltitudeMeters>34.40000152587890625</AltitudeMeters>
            <DistanceMeters>NAN</DistanceMeters>
          </Trackpoint>
          <Trackpoint>
            <Time>2022-07-05T08:15:18.000Z</Time>
            <Position>
              <LatitudeDegrees>44.496247284114360809326171875</LatitudeDegrees>
              <LongitudeDegrees>-1.232497505843639373779296875</LongitudeDegrees>
            </Position>
            <AltitudeMeters>34.799999237060546875</AltitudeMeters>
            <DistanceMeters>NAN</DistanceMeters>
          </Trackpoint>
          <Trackpoint>
            <Time>2022-07-05T08:15:23.000Z</Time>
            <Position>
              <LatitudeDegrees>44.49604921974241733551025390625</LatitudeDegrees>
              <LongitudeDegrees>-1.23243413865566253662109375</LongitudeDegrees>
            </Position>
            <AltitudeMeters>35.200000762939453125</AltitudeMeters>
            <DistanceMeters>NAN</DistanceMeters>
          </Trackpoint>
          <Trackpoint>
            <Time>2022-07-05T08:15:26.000Z</Time>
            <Position>
              <LatitudeDegrees>44.49599356390535831451416015625</LatitudeDegrees>
              <LongitudeDegrees>-1.23238988220691680908203125</LongitudeDegrees>
            </Position>
            <AltitudeMeters>35.40000152587890625</AltitudeMeters>
            <DistanceMeters>NAN</DistanceMeters>
          </Trackpoint>
          <Trackpoint>
            <Time>2022-07-05T08:15:30.000Z</Time>
            <Position>
              <LatitudeDegrees>44.49593271128833293914794921875</LatitudeDegrees>
              <LongitudeDegrees>-1.2323176302015781402587890625</LongitudeDegrees>
            </Position>
            <AltitudeMeters>35.799999237060546875</AltitudeMeters>
            <DistanceMeters>NAN</DistanceMeters>
          </Trackpoint>
          <Trackpoint>
            <Time>2022-07-05T08:15:31.000Z</Time>
            <Position>
              <LatitudeDegrees>44.49593271128833293914794921875</LatitudeDegrees>
              <LongitudeDegrees>-1.2323176302015781402587890625</LongitudeDegrees>
            </Position>
            <AltitudeMeters>35.799999237060546875</AltitudeMeters>
            <DistanceMeters>NAN</DistanceMeters>
          </Trackpoint>
          <Trackpoint>
            <Time>2022-07-05T08:15:38.000Z</Time>
            <Position>
              <LatitudeDegrees>44.4956895522773265838623046875</LatitudeDegrees>
              <LongitudeDegrees>-1.23243120498955249786376953125</LongitudeDegrees>
            </Position>
            <AltitudeMeters>36</AltitudeMeters>
            <DistanceMeters>NAN</DistanceMeters>
          </Trackpoint>
          <Trackpoint>
            <Time>2022-07-05T08:15:44.000Z</Time>
            <Position>
              <LatitudeDegrees>44.4955152086913585662841796875</LatitudeDegrees>
              <LongitudeDegrees>-1.232518963515758514404296875</LongitudeDegrees>
            </Position>
            <AltitudeMeters>36.200000762939453125</AltitudeMeters>
            <DistanceMeters>NAN</DistanceMeters>
          </Trackpoint>
          <Trackpoint>
            <Time>2022-07-05T08:15:46.000Z</Time>
            <Position>
              <LatitudeDegrees>44.49548930861055850982666015625</LatitudeDegrees>
              <LongitudeDegrees>-1.23255475424230098724365234375</LongitudeDegrees>
            </Position>
            <AltitudeMeters>36.40000152587890625</AltitudeMeters>
            <DistanceMeters>NAN</DistanceMeters>
          </Trackpoint>
          <Trackpoint>
            <Time>2022-07-05T08:15:48.000Z</Time>
            <Position>
              <LatitudeDegrees>44.49544086121022701263427734375</LatitudeDegrees>
              <LongitudeDegrees>-1.23259716667234897613525390625</LongitudeDegrees>
            </Position>
            <AltitudeMeters>36.40000152587890625</AltitudeMeters>
            <DistanceMeters>NAN</DistanceMeters>
          </Trackpoint>
          <Trackpoint>
            <Time>2022-07-05T08:15:49.000Z</Time>
            <Position>
              <LatitudeDegrees>44.49540833942592144012451171875</LatitudeDegrees>
              <LongitudeDegrees>-1.23262030072510242462158203125</LongitudeDegrees>
            </Position>
            <AltitudeMeters>36.59999847412109375</AltitudeMeters>
            <DistanceMeters>NAN</DistanceMeters>
          </Trackpoint>
          <Trackpoint>
            <Time>2022-07-05T08:15:52.000Z</Time>
            <Position>
              <LatitudeDegrees>44.49527733027935028076171875</LatitudeDegrees>
              <LongitudeDegrees>-1.2326767109334468841552734375</LongitudeDegrees>
            </Position>
            <AltitudeMeters>36.59999847412109375</AltitudeMeters>
            <DistanceMeters>NAN</DistanceMeters>
          </Trackpoint>
          <Trackpoint>
            <Time>2022-07-05T08:15:53.000Z</Time>
            <Position>
              <LatitudeDegrees>44.49527733027935028076171875</LatitudeDegrees>
              <LongitudeDegrees>-1.2326767109334468841552734375</LongitudeDegrees>
            </Position>
            <AltitudeMeters>36.59999847412109375</AltitudeMeters>
            <DistanceMeters>NAN</DistanceMeters>
          </Trackpoint>
          <Trackpoint>
            <Time>2022-07-05T08:16:00.000Z</Time>
            <Position>
              <LatitudeDegrees>44.49500533752143383026123046875</LatitudeDegrees>
              <LongitudeDegrees>-1.2328259088099002838134765625</LongitudeDegrees>
            </Position>
            <AltitudeMeters>36.40000152587890625</AltitudeMeters>
            <DistanceMeters>NAN</DistanceMeters>
          </Trackpoint>
          <Trackpoint>
            <Time>2022-07-05T08:16:01.000Z</Time>
            <Position>
              <LatitudeDegrees>44.49497147463262081146240234375</LatitudeDegrees>
              <LongitudeDegrees>-1.23284275643527507781982421875</LongitudeDegrees>
            </Position>
            <AltitudeMeters>36.40000152587890625</AltitudeMeters>
            <DistanceMeters>NAN</DistanceMeters>
          </Trackpoint>
          <Trackpoint>
            <Time>2022-07-05T08:16:02.000Z</Time>
            <Position>
              <LatitudeDegrees>44.49494230560958385467529296875</LatitudeDegrees>
              <LongitudeDegrees>-1.232866309583187103271484375</LongitudeDegrees>
            </Position>
            <AltitudeMeters>36.40000152587890625</AltitudeMeters>
            <DistanceMeters>NAN</DistanceMeters>
          </Trackpoint>
          <Trackpoint>
            <Time>2022-07-05T08:16:03.000Z</Time>
            <Position>
              <LatitudeDegrees>44.4949097000062465667724609375</LatitudeDegrees>
              <LongitudeDegrees>-1.23289790935814380645751953125</LongitudeDegrees>
            </Position>
            <AltitudeMeters>36.40000152587890625</AltitudeMeters>
            <DistanceMeters>NAN</DistanceMeters>
          </Trackpoint>
          <Trackpoint>
            <Time>2022-07-05T08:16:08.000Z</Time>
            <Position>
              <LatitudeDegrees>44.49473158456385135650634765625</LatitudeDegrees>
              <LongitudeDegrees>-1.233022212982177734375</LongitudeDegrees>
            </Position>
            <AltitudeMeters>36.40000152587890625</AltitudeMeters>
            <DistanceMeters>NAN</DistanceMeters>
          </Trackpoint>
          <Trackpoint>
            <Time>2022-07-05T08:16:14.000Z</Time>
            <Position>
              <LatitudeDegrees>44.4945623539388179779052734375</LatitudeDegrees>
              <LongitudeDegrees>-1.23321776278316974639892578125</LongitudeDegrees>
            </Position>
            <AltitudeMeters>36</AltitudeMeters>
            <DistanceMeters>NAN</DistanceMeters>
          </Trackpoint>
          <Trackpoint>
            <Time>2022-07-05T08:16:19.000Z</Time>
            <Position>
              <LatitudeDegrees>44.49445246718823909759521484375</LatitudeDegrees>
              <LongitudeDegrees>-1.23338791541755199432373046875</LongitudeDegrees>
            </Position>
            <AltitudeMeters>36</AltitudeMeters>
            <DistanceMeters>NAN</DistanceMeters>
          </Trackpoint>
          <Trackpoint>
            <Time>2022-07-05T08:16:20.000Z</Time>
            <Position>
              <LatitudeDegrees>44.4944371283054351806640625</LatitudeDegrees>
              <LongitudeDegrees>-1.23342228122055530548095703125</LongitudeDegrees>
            </Position>
            <AltitudeMeters>36</AltitudeMeters>
            <DistanceMeters>NAN</DistanceMeters>
          </Trackpoint>
          <Trackpoint>
            <Time>2022-07-05T08:16:21.000Z</Time>
            <Position>
              <LatitudeDegrees>44.49442128650844097137451171875</LatitudeDegrees>
              <LongitudeDegrees>-1.23345379717648029327392578125</LongitudeDegrees>
            </Position>
            <AltitudeMeters>36</AltitudeMeters>
            <DistanceMeters>NAN</DistanceMeters>
          </Trackpoint>
          <Trackpoint>
            <Time>2022-07-05T08:16:25.000Z</Time>
            <Position>
              <LatitudeDegrees>44.4943933747708797454833984375</LatitudeDegrees>
              <LongitudeDegrees>-1.23364356346428394317626953125</LongitudeDegrees>
            </Position>
            <AltitudeMeters>36.200000762939453125</AltitudeMeters>
            <DistanceMeters>NAN</DistanceMeters>
          </Trackpoint>
          <Trackpoint>
            <Time>2022-07-05T08:16:30.000Z</Time>
            <Position>
              <LatitudeDegrees>44.4943377189338207244873046875</LatitudeDegrees>
              <LongitudeDegrees>-1.23385176993906497955322265625</LongitudeDegrees>
            </Position>
            <AltitudeMeters>36.200000762939453125</AltitudeMeters>
            <DistanceMeters>NAN</DistanceMeters>
          </Trackpoint>
          <Trackpoint>
            <Time>2022-07-05T08:16:31.000Z</Time>
            <Position>
              <LatitudeDegrees>44.49432020075619220733642578125</LatitudeDegrees>
              <LongitudeDegrees>-1.23389862477779388427734375</LongitudeDegrees>
            </Position>
            <AltitudeMeters>36.200000762939453125</AltitudeMeters>
            <DistanceMeters>NAN</DistanceMeters>
          </Trackpoint>
          <Trackpoint>
            <Time>2022-07-05T08:16:34.000Z</Time>
            <Position>
              <LatitudeDegrees>44.49430427514016628265380859375</LatitudeDegrees>
              <LongitudeDegrees>-1.234048493206501007080078125</LongitudeDegrees>
            </Position>
            <AltitudeMeters>36</AltitudeMeters>
            <DistanceMeters>NAN</DistanceMeters>
          </Trackpoint>
          <Trackpoint>
            <Time>2022-07-05T08:16:37.000Z</Time>
            <Position>
              <LatitudeDegrees>44.494297318160533905029296875</LatitudeDegrees>
              <LongitudeDegrees>-1.23418989591300487518310546875</LongitudeDegrees>
            </Position>
            <AltitudeMeters>35.799999237060546875</AltitudeMeters>
            <DistanceMeters>NAN</DistanceMeters>
          </Trackpoint>
          <Trackpoint>
            <Time>2022-07-05T08:16:39.000Z</Time>
            <Position>
              <LatitudeDegrees>44.4942414946854114532470703125</LatitudeDegrees>
              <LongitudeDegrees>-1.23427740298211574554443359375</LongitudeDegrees>
            </Position>
            <AltitudeMeters>35.59999847412109375</AltitudeMeters>
            <DistanceMeters>NAN</DistanceMeters>
          </Trackpoint>
          <Trackpoint>
            <Time>2022-07-05T08:16:44.000Z</Time>
            <Position>
              <LatitudeDegrees>44.49410830624401569366455078125</LatitudeDegrees>
              <LongitudeDegrees>-1.2345294468104839324951171875</LongitudeDegrees>
            </Position>
            <AltitudeMeters>35.200000762939453125</AltitudeMeters>
            <DistanceMeters>NAN</DistanceMeters>
          </Trackpoint>
          <Trackpoint>
            <Time>2022-07-05T08:16:47.000Z</Time>
            <Position>
              <LatitudeDegrees>44.49408240616321563720703125</LatitudeDegrees>
              <LongitudeDegrees>-1.23468895442783832550048828125</LongitudeDegrees>
            </Position>
            <AltitudeMeters>35.200000762939453125</AltitudeMeters>
            <DistanceMeters>NAN</DistanceMeters>
          </Trackpoint>
          <Trackpoint>
            <Time>2022-07-05T08:16:52.000Z</Time>
            <Position>
              <LatitudeDegrees>44.4939528219401836395263671875</LatitudeDegrees>
              <LongitudeDegrees>-1.2349331192672252655029296875</LongitudeDegrees>
            </Position>
            <AltitudeMeters>35.200000762939453125</AltitudeMeters>
            <DistanceMeters>NAN</DistanceMeters>
          </Trackpoint>
          <Trackpoint>
            <Time>2022-07-05T08:16:57.000Z</Time>
            <Position>
              <LatitudeDegrees>44.49387545697391033172607421875</LatitudeDegrees>
              <LongitudeDegrees>-1.2351158447563648223876953125</LongitudeDegrees>
            </Position>
            <AltitudeMeters>35.200000762939453125</AltitudeMeters>
            <DistanceMeters>NAN</DistanceMeters>
          </Trackpoint>
          <Trackpoint>
            <Time>2022-07-05T08:17:01.000Z</Time>
            <Position>
              <LatitudeDegrees>44.49375710450112819671630859375</LatitudeDegrees>
              <LongitudeDegrees>-1.2353624403476715087890625</LongitudeDegrees>
            </Position>
            <AltitudeMeters>34.799999237060546875</AltitudeMeters>
            <DistanceMeters>NAN</DistanceMeters>
          </Trackpoint>
          <Trackpoint>
            <Time>2022-07-05T08:17:03.000Z</Time>
            <Position>
              <LatitudeDegrees>44.49368082918226718902587890625</LatitudeDegrees>
              <LongitudeDegrees>-1.23542974703013896942138671875</LongitudeDegrees>
            </Position>
            <AltitudeMeters>34.59999847412109375</AltitudeMeters>
            <DistanceMeters>NAN</DistanceMeters>
          </Trackpoint>
          <Trackpoint>
            <Time>2022-07-05T08:17:05.000Z</Time>
            <Position>
              <LatitudeDegrees>44.493621401488780975341796875</LatitudeDegrees>
              <LongitudeDegrees>-1.2354538030922412872314453125</LongitudeDegrees>
            </Position>
            <AltitudeMeters>34</AltitudeMeters>
            <DistanceMeters>NAN</DistanceMeters>
          </Trackpoint>
          <Trackpoint>
            <Time>2022-07-05T08:17:06.000Z</Time>
            <Position>
              <LatitudeDegrees>44.4934965111315250396728515625</LatitudeDegrees>
              <LongitudeDegrees>-1.2354702316224575042724609375</LongitudeDegrees>
            </Position>
            <AltitudeMeters>34</AltitudeMeters>
            <DistanceMeters>NAN</DistanceMeters>
          </Trackpoint>
          <Trackpoint>
            <Time>2022-07-05T08:17:09.000Z</Time>
            <Position>
              <LatitudeDegrees>44.4932852871716022491455078125</LatitudeDegrees>
              <LongitudeDegrees>-1.2354933656752109527587890625</LongitudeDegrees>
            </Position>
            <AltitudeMeters>33.200000762939453125</AltitudeMeters>
            <DistanceMeters>NAN</DistanceMeters>
          </Trackpoint>
          <Trackpoint>
            <Time>2022-07-05T08:17:10.000Z</Time>
            <Position>
              <LatitudeDegrees>44.49322720058262348175048828125</LatitudeDegrees>
              <LongitudeDegrees>-1.23549328185617923736572265625</LongitudeDegrees>
            </Position>
            <AltitudeMeters>33</AltitudeMeters>
            <DistanceMeters>NAN</DistanceMeters>
          </Trackpoint>
          <Trackpoint>
            <Time>2022-07-05T08:17:14.000Z</Time>
            <Position>
              <LatitudeDegrees>44.493054784834384918212890625</LatitudeDegrees>
              <LongitudeDegrees>-1.235483475029468536376953125</LongitudeDegrees>
            </Position>
            <AltitudeMeters>33</AltitudeMeters>
            <DistanceMeters>NAN</DistanceMeters>
          </Trackpoint>
          <Trackpoint>
            <Time>2022-07-05T08:17:16.000Z</Time>
            <Position>
              <LatitudeDegrees>44.49297071434557437896728515625</LatitudeDegrees>
              <LongitudeDegrees>-1.235475428402423858642578125</LongitudeDegrees>
            </Position>
            <AltitudeMeters>33.200000762939453125</AltitudeMeters>
            <DistanceMeters>NAN</DistanceMeters>
          </Trackpoint>
          <Trackpoint>
            <Time>2022-07-05T08:17:18.000Z</Time>
            <Position>
              <LatitudeDegrees>44.49290969409048557281494140625</LatitudeDegrees>
              <LongitudeDegrees>-1.235480792820453643798828125</LongitudeDegrees>
            </Position>
            <AltitudeMeters>33.59999847412109375</AltitudeMeters>
            <DistanceMeters>NAN</DistanceMeters>
          </Trackpoint>
          <Trackpoint>
            <Time>2022-07-05T08:17:20.000Z</Time>
            <Position>
              <LatitudeDegrees>44.4928386993706226348876953125</LatitudeDegrees>
              <LongitudeDegrees>-1.2354987300932407379150390625</LongitudeDegrees>
            </Position>
            <AltitudeMeters>33.799999237060546875</AltitudeMeters>
            <DistanceMeters>NAN</DistanceMeters>
          </Trackpoint>
          <Trackpoint>
            <Time>2022-07-05T08:17:21.000Z</Time>
            <Position>
              <LatitudeDegrees>44.49280626140534877777099609375</LatitudeDegrees>
              <LongitudeDegrees>-1.2355118058621883392333984375</LongitudeDegrees>
            </Position>
            <AltitudeMeters>33.799999237060546875</AltitudeMeters>
            <DistanceMeters>NAN</DistanceMeters>
          </Trackpoint>
          <Trackpoint>
            <Time>2022-07-05T08:17:24.000Z</Time>
            <Position>
              <LatitudeDegrees>44.49274658225476741790771484375</LatitudeDegrees>
              <LongitudeDegrees>-1.23551557771861553192138671875</LongitudeDegrees>
            </Position>
            <AltitudeMeters>33.799999237060546875</AltitudeMeters>
            <DistanceMeters>NAN</DistanceMeters>
          </Trackpoint>
          <Trackpoint>
            <Time>2022-07-05T08:17:27.000Z</Time>
            <Position>
              <LatitudeDegrees>44.4925838895142078399658203125</LatitudeDegrees>
              <LongitudeDegrees>-1.23553351499140262603759765625</LongitudeDegrees>
            </Position>
            <AltitudeMeters>33.799999237060546875</AltitudeMeters>
            <DistanceMeters>NAN</DistanceMeters>
          </Trackpoint>
          <Trackpoint>
            <Time>2022-07-05T08:17:29.000Z</Time>
            <Position>
              <LatitudeDegrees>44.49248850345611572265625</LatitudeDegrees>
              <LongitudeDegrees>-1.23552731238305568695068359375</LongitudeDegrees>
            </Position>
            <AltitudeMeters>33.59999847412109375</AltitudeMeters>
            <DistanceMeters>NAN</DistanceMeters>
          </Trackpoint>
          <Trackpoint>
            <Time>2022-07-05T08:17:30.000Z</Time>
            <Position>
              <LatitudeDegrees>44.49244089424610137939453125</LatitudeDegrees>
              <LongitudeDegrees>-1.23552865348756313323974609375</LongitudeDegrees>
            </Position>
            <AltitudeMeters>33.59999847412109375</AltitudeMeters>
            <DistanceMeters>NAN</DistanceMeters>
          </Trackpoint>
          <Trackpoint>
            <Time>2022-07-05T08:17:31.000Z</Time>
            <Position>
              <LatitudeDegrees>44.49239135719835758209228515625</LatitudeDegrees>
              <LongitudeDegrees>-1.23553611338138580322265625</LongitudeDegrees>
            </Position>
            <AltitudeMeters>33.40000152587890625</AltitudeMeters>
            <DistanceMeters>NAN</DistanceMeters>
          </Trackpoint>
          <Trackpoint>
            <Time>2022-07-05T08:17:33.000Z</Time>
            <Position>
              <LatitudeDegrees>44.4922811351716518402099609375</LatitudeDegrees>
              <LongitudeDegrees>-1.23555799014866352081298828125</LongitudeDegrees>
            </Position>
            <AltitudeMeters>33.40000152587890625</AltitudeMeters>
            <DistanceMeters>NAN</DistanceMeters>
          </Trackpoint>
          <Trackpoint>
            <Time>2022-07-05T08:17:34.000Z</Time>
            <Position>
              <LatitudeDegrees>44.4922295026481151580810546875</LatitudeDegrees>
              <LongitudeDegrees>-1.23556721024215221405029296875</LongitudeDegrees>
            </Position>
            <AltitudeMeters>33.40000152587890625</AltitudeMeters>
            <DistanceMeters>NAN</DistanceMeters>
          </Trackpoint>
          <Trackpoint>
            <Time>2022-07-05T08:17:36.000Z</Time>
            <Position>
              <LatitudeDegrees>44.49212749488651752471923828125</LatitudeDegrees>
              <LongitudeDegrees>-1.23558171093463897705078125</LongitudeDegrees>
            </Position>
            <AltitudeMeters>33.200000762939453125</AltitudeMeters>
            <DistanceMeters>NAN</DistanceMeters>
          </Trackpoint>
          <Trackpoint>
            <Time>2022-07-05T08:17:37.000Z</Time>
            <Position>
              <LatitudeDegrees>44.4920779578387737274169921875</LatitudeDegrees>
              <LongitudeDegrees>-1.235592775046825408935546875</LongitudeDegrees>
            </Position>
            <AltitudeMeters>33</AltitudeMeters>
            <DistanceMeters>NAN</DistanceMeters>
          </Trackpoint>
          <Trackpoint>
            <Time>2022-07-05T08:17:39.000Z</Time>
            <Position>
              <LatitudeDegrees>44.4919641315937042236328125</LatitudeDegrees>
              <LongitudeDegrees>-1.23560626991093158721923828125</LongitudeDegrees>
            </Position>
            <AltitudeMeters>32.799999237060546875</AltitudeMeters>
            <DistanceMeters>NAN</DistanceMeters>
          </Trackpoint>
          <Trackpoint>
            <Time>2022-07-05T08:17:41.000Z</Time>
            <Position>
              <LatitudeDegrees>44.49182742275297641754150390625</LatitudeDegrees>
              <LongitudeDegrees>-1.2356184236705303192138671875</LongitudeDegrees>
            </Position>
            <AltitudeMeters>32.59999847412109375</AltitudeMeters>
            <DistanceMeters>NAN</DistanceMeters>
          </Trackpoint>
          <Trackpoint>
            <Time>2022-07-05T08:17:44.000Z</Time>
            <Position>
              <LatitudeDegrees>44.49162977747619152069091796875</LatitudeDegrees>
              <LongitudeDegrees>-1.235628984868526458740234375</LongitudeDegrees>
            </Position>
            <AltitudeMeters>32</AltitudeMeters>
            <DistanceMeters>NAN</DistanceMeters>
          </Trackpoint>
          <Trackpoint>
            <Time>2022-07-05T08:17:47.000Z</Time>
            <Position>
              <LatitudeDegrees>44.49142928235232830047607421875</LatitudeDegrees>
              <LongitudeDegrees>-1.2356502749025821685791015625</LongitudeDegrees>
            </Position>
            <AltitudeMeters>31.3999996185302734375</AltitudeMeters>
            <DistanceMeters>NAN</DistanceMeters>
          </Trackpoint>
          <Trackpoint>
            <Time>2022-07-05T08:17:53.000Z</Time>
            <Position>
              <LatitudeDegrees>44.491099454462528228759765625</LatitudeDegrees>
              <LongitudeDegrees>-1.23567751608788967132568359375</LongitudeDegrees>
            </Position>
            <AltitudeMeters>31.200000762939453125</AltitudeMeters>
            <DistanceMeters>NAN</DistanceMeters>
          </Trackpoint>
          <Trackpoint>
            <Time>2022-07-05T08:17:54.000Z</Time>
            <Position>
              <LatitudeDegrees>44.4910597242414951324462890625</LatitudeDegrees>
              <LongitudeDegrees>-1.2356869876384735107421875</LongitudeDegrees>
            </Position>
            <AltitudeMeters>31</AltitudeMeters>
            <DistanceMeters>NAN</DistanceMeters>
          </Trackpoint>
          <Trackpoint>
            <Time>2022-07-05T08:17:55.000Z</Time>
            <Position>
              <LatitudeDegrees>44.491022340953350067138671875</LatitudeDegrees>
              <LongitudeDegrees>-1.23569847084581851959228515625</LongitudeDegrees>
            </Position>
            <AltitudeMeters>31</AltitudeMeters>
            <DistanceMeters>NAN</DistanceMeters>
          </Trackpoint>
          <Trackpoint>
            <Time>2022-07-05T08:17:57.000Z</Time>
            <Position>
              <LatitudeDegrees>44.49098235927522182464599609375</LatitudeDegrees>
              <LongitudeDegrees>-1.23571087606251239776611328125</LongitudeDegrees>
            </Position>
            <AltitudeMeters>31</AltitudeMeters>
            <DistanceMeters>NAN</DistanceMeters>
          </Trackpoint>
          <Trackpoint>
            <Time>2022-07-05T08:17:59.000Z</Time>
            <Position>
              <LatitudeDegrees>44.49087289161980152130126953125</LatitudeDegrees>
              <LongitudeDegrees>-1.23572378419339656829833984375</LongitudeDegrees>
            </Position>
            <AltitudeMeters>31</AltitudeMeters>
            <DistanceMeters>NAN</DistanceMeters>
          </Trackpoint>
          <Trackpoint>
            <Time>2022-07-05T08:18:00.000Z</Time>
            <Position>
              <LatitudeDegrees>44.4908236898481845855712890625</LatitudeDegrees>
              <LongitudeDegrees>-1.235721521079540252685546875</LongitudeDegrees>
            </Position>
            <AltitudeMeters>31</AltitudeMeters>
            <DistanceMeters>NAN</DistanceMeters>
          </Trackpoint>
          <Trackpoint>
            <Time>2022-07-05T08:18:06.000Z</Time>
            <Position>
              <LatitudeDegrees>44.49052982032299041748046875</LatitudeDegrees>
              <LongitudeDegrees>-1.23573166318237781524658203125</LongitudeDegrees>
            </Position>
            <AltitudeMeters>31</AltitudeMeters>
            <DistanceMeters>NAN</DistanceMeters>
          </Trackpoint>
          <Trackpoint>
            <Time>2022-07-05T08:18:07.000Z</Time>
            <Position>
              <LatitudeDegrees>44.49052982032299041748046875</LatitudeDegrees>
              <LongitudeDegrees>-1.23573166318237781524658203125</LongitudeDegrees>
            </Position>
            <AltitudeMeters>31</AltitudeMeters>
            <DistanceMeters>NAN</DistanceMeters>
          </Trackpoint>
          <Trackpoint>
            <Time>2022-07-05T08:18:14.000Z</Time>
            <Position>
              <LatitudeDegrees>44.490261934697628021240234375</LatitudeDegrees>
              <LongitudeDegrees>-1.2357646040618419647216796875</LongitudeDegrees>
            </Position>
            <AltitudeMeters>31</AltitudeMeters>
            <DistanceMeters>NAN</DistanceMeters>
          </Trackpoint>
          <Trackpoint>
            <Time>2022-07-05T08:18:18.000Z</Time>
            <Position>
              <LatitudeDegrees>44.49007091112434864044189453125</LatitudeDegrees>
              <LongitudeDegrees>-1.2357877381145954132080078125</LongitudeDegrees>
            </Position>
            <AltitudeMeters>31</AltitudeMeters>
            <DistanceMeters>NAN</DistanceMeters>
          </Trackpoint>
          <Trackpoint>
            <Time>2022-07-05T08:18:19.000Z</Time>
            <Position>
              <LatitudeDegrees>44.4900275766849517822265625</LatitudeDegrees>
              <LongitudeDegrees>-1.23578547500073909759521484375</LongitudeDegrees>
            </Position>
            <AltitudeMeters>31</AltitudeMeters>
            <DistanceMeters>NAN</DistanceMeters>
          </Trackpoint>
          <Trackpoint>
            <Time>2022-07-05T08:18:26.000Z</Time>
            <Position>
              <LatitudeDegrees>44.48973379097878932952880859375</LatitudeDegrees>
              <LongitudeDegrees>-1.235816068947315216064453125</LongitudeDegrees>
            </Position>
            <AltitudeMeters>31.200000762939453125</AltitudeMeters>
            <DistanceMeters>NAN</DistanceMeters>
          </Trackpoint>
          <Trackpoint>
            <Time>2022-07-05T08:18:33.000Z</Time>
            <Position>
              <LatitudeDegrees>44.4894165359437465667724609375</LatitudeDegrees>
              <LongitudeDegrees>-1.2358397059142589569091796875</LongitudeDegrees>
            </Position>
            <AltitudeMeters>30.799999237060546875</AltitudeMeters>
            <DistanceMeters>NAN</DistanceMeters>
          </Trackpoint>
          <Trackpoint>
            <Time>2022-07-05T08:18:39.000Z</Time>
            <Position>
              <LatitudeDegrees>44.4891959242522716522216796875</LatitudeDegrees>
              <LongitudeDegrees>-1.23587817884981632232666015625</LongitudeDegrees>
            </Position>
            <AltitudeMeters>31</AltitudeMeters>
            <DistanceMeters>NAN</DistanceMeters>
          </Trackpoint>
          <Trackpoint>
            <Time>2022-07-05T08:18:41.000Z</Time>
            <Position>
              <LatitudeDegrees>44.4891627319157123565673828125</LatitudeDegrees>
              <LongitudeDegrees>-1.235884465277194976806640625</LongitudeDegrees>
            </Position>
            <AltitudeMeters>31</AltitudeMeters>
            <DistanceMeters>NAN</DistanceMeters>
          </Trackpoint>
          <Trackpoint>
            <Time>2022-07-05T08:18:47.000Z</Time>
            <Position>
              <LatitudeDegrees>44.4889072515070438385009765625</LatitudeDegrees>
              <LongitudeDegrees>-1.23589309863746166229248046875</LongitudeDegrees>
            </Position>
            <AltitudeMeters>30.799999237060546875</AltitudeMeters>
            <DistanceMeters>NAN</DistanceMeters>
          </Trackpoint>
          <Trackpoint>
            <Time>2022-07-05T08:18:51.000Z</Time>
            <Position>
              <LatitudeDegrees>44.4887610711157321929931640625</LatitudeDegrees>
              <LongitudeDegrees>-1.23589075170457363128662109375</LongitudeDegrees>
            </Position>
            <AltitudeMeters>30.799999237060546875</AltitudeMeters>
            <DistanceMeters>NAN</DistanceMeters>
          </Trackpoint>
          <Trackpoint>
            <Time>2022-07-05T08:18:53.000Z</Time>
            <Position>
              <LatitudeDegrees>44.4886819459497928619384765625</LatitudeDegrees>
              <LongitudeDegrees>-1.23589360155165195465087890625</LongitudeDegrees>
            </Position>
            <AltitudeMeters>30.799999237060546875</AltitudeMeters>
            <DistanceMeters>NAN</DistanceMeters>
          </Trackpoint>
          <Trackpoint>
            <Time>2022-07-05T08:18:55.000Z</Time>
            <Position>
              <LatitudeDegrees>44.4886185787618160247802734375</LatitudeDegrees>
              <LongitudeDegrees>-1.235883794724941253662109375</LongitudeDegrees>
            </Position>
            <AltitudeMeters>30.799999237060546875</AltitudeMeters>
            <DistanceMeters>NAN</DistanceMeters>
          </Trackpoint>
          <Trackpoint>
            <Time>2022-07-05T08:19:01.000Z</Time>
            <Position>
              <LatitudeDegrees>44.488389752805233001708984375</LatitudeDegrees>
              <LongitudeDegrees>-1.23587247915565967559814453125</LongitudeDegrees>
            </Position>
            <AltitudeMeters>30.799999237060546875</AltitudeMeters>
            <DistanceMeters>NAN</DistanceMeters>
          </Trackpoint>
          <Trackpoint>
            <Time>2022-07-05T08:19:06.000Z</Time>
            <Position>
              <LatitudeDegrees>44.4882092066109180450439453125</LatitudeDegrees>
              <LongitudeDegrees>-1.23587013222277164459228515625</LongitudeDegrees>
            </Position>
            <AltitudeMeters>31</AltitudeMeters>
            <DistanceMeters>NAN</DistanceMeters>
          </Trackpoint>
          <Trackpoint>
            <Time>2022-07-05T08:19:12.000Z</Time>
            <Position>
              <LatitudeDegrees>44.487888514995574951171875</LatitudeDegrees>
              <LongitudeDegrees>-1.2358641810715198516845703125</LongitudeDegrees>
            </Position>
            <AltitudeMeters>30.799999237060546875</AltitudeMeters>
            <DistanceMeters>NAN</DistanceMeters>
          </Trackpoint>
          <Trackpoint>
            <Time>2022-07-05T08:19:16.000Z</Time>
            <Position>
              <LatitudeDegrees>44.48776152916252613067626953125</LatitudeDegrees>
              <LongitudeDegrees>-1.23590064235031604766845703125</LongitudeDegrees>
            </Position>
            <AltitudeMeters>31</AltitudeMeters>
            <DistanceMeters>NAN</DistanceMeters>
          </Trackpoint>
          <Trackpoint>
            <Time>2022-07-05T08:19:18.000Z</Time>
            <Position>
              <LatitudeDegrees>44.48771341703832149505615234375</LatitudeDegrees>
              <LongitudeDegrees>-1.2359195016324520111083984375</LongitudeDegrees>
            </Position>
            <AltitudeMeters>31</AltitudeMeters>
            <DistanceMeters>NAN</DistanceMeters>
          </Trackpoint>
          <Trackpoint>
            <Time>2022-07-05T08:19:24.000Z</Time>
            <Position>
              <LatitudeDegrees>44.48756866157054901123046875</LatitudeDegrees>
              <LongitudeDegrees>-1.23591690324246883392333984375</LongitudeDegrees>
            </Position>
            <AltitudeMeters>31</AltitudeMeters>
            <DistanceMeters>NAN</DistanceMeters>
          </Trackpoint>
          <Trackpoint>
            <Time>2022-07-05T08:19:28.000Z</Time>
            <Position>
              <LatitudeDegrees>44.4873666577041149139404296875</LatitudeDegrees>
              <LongitudeDegrees>-1.23594841919839382171630859375</LongitudeDegrees>
            </Position>
            <AltitudeMeters>31</AltitudeMeters>
            <DistanceMeters>NAN</DistanceMeters>
          </Trackpoint>
          <Trackpoint>
            <Time>2022-07-05T08:19:29.000Z</Time>
            <Position>
              <LatitudeDegrees>44.4873227365314960479736328125</LatitudeDegrees>
              <LongitudeDegrees>-1.23594976030290126800537109375</LongitudeDegrees>
            </Position>
            <AltitudeMeters>31</AltitudeMeters>
            <DistanceMeters>NAN</DistanceMeters>
          </Trackpoint>
          <Trackpoint>
            <Time>2022-07-05T08:19:30.000Z</Time>
            <Position>
              <LatitudeDegrees>44.48729130439460277557373046875</LatitudeDegrees>
              <LongitudeDegrees>-1.23595051467418670654296875</LongitudeDegrees>
            </Position>
            <AltitudeMeters>31</AltitudeMeters>
            <DistanceMeters>NAN</DistanceMeters>
          </Trackpoint>
          <Trackpoint>
            <Time>2022-07-05T08:19:37.000Z</Time>
            <Position>
              <LatitudeDegrees>44.48710069991648197174072265625</LatitudeDegrees>
              <LongitudeDegrees>-1.23598211444914340972900390625</LongitudeDegrees>
            </Position>
            <AltitudeMeters>31.200000762939453125</AltitudeMeters>
            <DistanceMeters>NAN</DistanceMeters>
          </Trackpoint>
          <Trackpoint>
            <Time>2022-07-05T08:19:43.000Z</Time>
            <Position>
              <LatitudeDegrees>44.4869133643805980682373046875</LatitudeDegrees>
              <LongitudeDegrees>-1.23601765371859073638916015625</LongitudeDegrees>
            </Position>
            <AltitudeMeters>31.200000762939453125</AltitudeMeters>
            <DistanceMeters>NAN</DistanceMeters>
          </Trackpoint>
          <Trackpoint>
            <Time>2022-07-05T08:19:46.000Z</Time>
            <Position>
              <LatitudeDegrees>44.486819989979267120361328125</LatitudeDegrees>
              <LongitudeDegrees>-1.23602637089788913726806640625</LongitudeDegrees>
            </Position>
            <AltitudeMeters>31.200000762939453125</AltitudeMeters>
            <DistanceMeters>NAN</DistanceMeters>
          </Trackpoint>
          <Trackpoint>
            <Time>2022-07-05T08:19:50.000Z</Time>
            <Position>
              <LatitudeDegrees>44.486681185662746429443359375</LatitudeDegrees>
              <LongitudeDegrees>-1.23604933731257915496826171875</LongitudeDegrees>
            </Position>
            <AltitudeMeters>31.3999996185302734375</AltitudeMeters>
            <DistanceMeters>NAN</DistanceMeters>
          </Trackpoint>
          <Trackpoint>
            <Time>2022-07-05T08:19:51.000Z</Time>
            <Position>
              <LatitudeDegrees>44.48664438910782337188720703125</LatitudeDegrees>
              <LongitudeDegrees>-1.23604816384613513946533203125</LongitudeDegrees>
            </Position>
            <AltitudeMeters>31.3999996185302734375</AltitudeMeters>
            <DistanceMeters>NAN</DistanceMeters>
          </Trackpoint>
          <Trackpoint>
            <Time>2022-07-05T08:19:53.000Z</Time>
            <Position>
              <LatitudeDegrees>44.48656341992318630218505859375</LatitudeDegrees>
              <LongitudeDegrees>-1.2360442243516445159912109375</LongitudeDegrees>
            </Position>
            <AltitudeMeters>31.6000003814697265625</AltitudeMeters>
            <DistanceMeters>NAN</DistanceMeters>
          </Trackpoint>
          <Trackpoint>
            <Time>2022-07-05T08:19:56.000Z</Time>
            <Position>
              <LatitudeDegrees>44.4864533655345439910888671875</LatitudeDegrees>
              <LongitudeDegrees>-1.23605822212994098663330078125</LongitudeDegrees>
            </Position>
            <AltitudeMeters>31.3999996185302734375</AltitudeMeters>
            <DistanceMeters>NAN</DistanceMeters>
          </Trackpoint>
          <Trackpoint>
            <Time>2022-07-05T08:19:59.000Z</Time>
            <Position>
              <LatitudeDegrees>44.48634398169815540313720703125</LatitudeDegrees>
              <LongitudeDegrees>-1.23607247136533260345458984375</LongitudeDegrees>
            </Position>
            <AltitudeMeters>31.3999996185302734375</AltitudeMeters>
            <DistanceMeters>NAN</DistanceMeters>
          </Trackpoint>
          <Trackpoint>
            <Time>2022-07-05T08:20:06.000Z</Time>
            <Position>
              <LatitudeDegrees>44.4860433228313922882080078125</LatitudeDegrees>
              <LongitudeDegrees>-1.236086301505565643310546875</LongitudeDegrees>
            </Position>
            <AltitudeMeters>31</AltitudeMeters>
            <DistanceMeters>NAN</DistanceMeters>
          </Trackpoint>
          <Trackpoint>
            <Time>2022-07-05T08:20:11.000Z</Time>
            <Position>
              <LatitudeDegrees>44.4858136586844921112060546875</LatitudeDegrees>
              <LongitudeDegrees>-1.236088313162326812744140625</LongitudeDegrees>
            </Position>
            <AltitudeMeters>31.200000762939453125</AltitudeMeters>
            <DistanceMeters>NAN</DistanceMeters>
          </Trackpoint>
          <Trackpoint>
            <Time>2022-07-05T08:20:13.000Z</Time>
            <Position>
              <LatitudeDegrees>44.485745094716548919677734375</LatitudeDegrees>
              <LongitudeDegrees>-1.236099041998386383056640625</LongitudeDegrees>
            </Position>
            <AltitudeMeters>31.200000762939453125</AltitudeMeters>
            <DistanceMeters>NAN</DistanceMeters>
          </Trackpoint>
          <Trackpoint>
            <Time>2022-07-05T08:20:18.000Z</Time>
            <Position>
              <LatitudeDegrees>44.485575444996356964111328125</LatitudeDegrees>
              <LongitudeDegrees>-1.23609191738069057464599609375</LongitudeDegrees>
            </Position>
            <AltitudeMeters>31.200000762939453125</AltitudeMeters>
            <DistanceMeters>NAN</DistanceMeters>
          </Trackpoint>
          <Trackpoint>
            <Time>2022-07-05T08:20:19.000Z</Time>
            <Position>
              <LatitudeDegrees>44.4855348765850067138671875</LatitudeDegrees>
              <LongitudeDegrees>-1.23608588241040706634521484375</LongitudeDegrees>
            </Position>
            <AltitudeMeters>31.200000762939453125</AltitudeMeters>
            <DistanceMeters>NAN</DistanceMeters>
          </Trackpoint>
          <Trackpoint>
            <Time>2022-07-05T08:20:21.000Z</Time>
            <Position>
              <LatitudeDegrees>44.48546606115996837615966796875</LatitudeDegrees>
              <LongitudeDegrees>-1.2360774166882038116455078125</LongitudeDegrees>
            </Position>
            <AltitudeMeters>31.200000762939453125</AltitudeMeters>
            <DistanceMeters>NAN</DistanceMeters>
          </Trackpoint>
          <Trackpoint>
            <Time>2022-07-05T08:20:25.000Z</Time>
            <Position>
              <LatitudeDegrees>44.4853539951145648956298828125</LatitudeDegrees>
              <LongitudeDegrees>-1.23605621047317981719970703125</LongitudeDegrees>
            </Position>
            <AltitudeMeters>31.3999996185302734375</AltitudeMeters>
            <DistanceMeters>NAN</DistanceMeters>
          </Trackpoint>
          <Trackpoint>
            <Time>2022-07-05T08:20:27.000Z</Time>
            <Position>
              <LatitudeDegrees>44.485268332064151763916015625</LatitudeDegrees>
              <LongitudeDegrees>-1.23606643639504909515380859375</LongitudeDegrees>
            </Position>
            <AltitudeMeters>31.3999996185302734375</AltitudeMeters>
            <DistanceMeters>NAN</DistanceMeters>
          </Trackpoint>
          <Trackpoint>
            <Time>2022-07-05T08:20:31.000Z</Time>
            <Position>
              <LatitudeDegrees>44.48507311753928661346435546875</LatitudeDegrees>
              <LongitudeDegrees>-1.2360831163823604583740234375</LongitudeDegrees>
            </Position>
            <AltitudeMeters>31.6000003814697265625</AltitudeMeters>
            <DistanceMeters>NAN</DistanceMeters>
          </Trackpoint>
          <Trackpoint>
            <Time>2022-07-05T08:20:35.000Z</Time>
            <Position>
              <LatitudeDegrees>44.4849218241870403289794921875</LatitudeDegrees>
              <LongitudeDegrees>-1.236069202423095703125</LongitudeDegrees>
            </Position>
            <AltitudeMeters>31.200000762939453125</AltitudeMeters>
            <DistanceMeters>NAN</DistanceMeters>
          </Trackpoint>
          <Trackpoint>
            <Time>2022-07-05T08:20:44.000Z</Time>
            <Position>
              <LatitudeDegrees>44.48457724414765834808349609375</LatitudeDegrees>
              <LongitudeDegrees>-1.23604866676032543182373046875</LongitudeDegrees>
            </Position>
            <AltitudeMeters>30.799999237060546875</AltitudeMeters>
            <DistanceMeters>NAN</DistanceMeters>
          </Trackpoint>
          <Trackpoint>
            <Time>2022-07-05T08:20:46.000Z</Time>
            <Position>
              <LatitudeDegrees>44.48454405181109905242919921875</LatitudeDegrees>
              <LongitudeDegrees>-1.2360395304858684539794921875</LongitudeDegrees>
            </Position>
            <AltitudeMeters>30.799999237060546875</AltitudeMeters>
            <DistanceMeters>NAN</DistanceMeters>
          </Trackpoint>
          <Trackpoint>
            <Time>2022-07-05T08:20:52.000Z</Time>
            <Position>
              <LatitudeDegrees>44.4842566363513469696044921875</LatitudeDegrees>
              <LongitudeDegrees>-1.2359915859997272491455078125</LongitudeDegrees>
            </Position>
            <AltitudeMeters>31.200000762939453125</AltitudeMeters>
            <DistanceMeters>NAN</DistanceMeters>
          </Trackpoint>
          <Trackpoint>
            <Time>2022-07-05T08:20:55.000Z</Time>
            <Position>
              <LatitudeDegrees>44.48414457030594348907470703125</LatitudeDegrees>
              <LongitudeDegrees>-1.23598379082977771759033203125</LongitudeDegrees>
            </Position>
            <AltitudeMeters>31.200000762939453125</AltitudeMeters>
            <DistanceMeters>NAN</DistanceMeters>
          </Trackpoint>
          <Trackpoint>
            <Time>2022-07-05T08:20:57.000Z</Time>
            <Position>
              <LatitudeDegrees>44.48406360112130641937255859375</LatitudeDegrees>
              <LongitudeDegrees>-1.23597725294530391693115234375</LongitudeDegrees>
            </Position>
            <AltitudeMeters>31</AltitudeMeters>
            <DistanceMeters>NAN</DistanceMeters>
          </Trackpoint>
          <Trackpoint>
            <Time>2022-07-05T08:21:02.000Z</Time>
            <Position>
              <LatitudeDegrees>44.48387165553867816925048828125</LatitudeDegrees>
              <LongitudeDegrees>-1.2359379418194293975830078125</LongitudeDegrees>
            </Position>
            <AltitudeMeters>30.6000003814697265625</AltitudeMeters>
            <DistanceMeters>NAN</DistanceMeters>
          </Trackpoint>
          <Trackpoint>
            <Time>2022-07-05T08:21:05.000Z</Time>
            <Position>
              <LatitudeDegrees>44.48371122591197490692138671875</LatitudeDegrees>
              <LongitudeDegrees>-1.23592905700206756591796875</LongitudeDegrees>
            </Position>
            <AltitudeMeters>30.799999237060546875</AltitudeMeters>
            <DistanceMeters>NAN</DistanceMeters>
          </Trackpoint>
          <Trackpoint>
            <Time>2022-07-05T08:21:11.000Z</Time>
            <Position>
              <LatitudeDegrees>44.483512826263904571533203125</LatitudeDegrees>
              <LongitudeDegrees>-1.235885135829448699951171875</LongitudeDegrees>
            </Position>
            <AltitudeMeters>31</AltitudeMeters>
            <DistanceMeters>NAN</DistanceMeters>
          </Trackpoint>
          <Trackpoint>
            <Time>2022-07-05T08:21:15.000Z</Time>
            <Position>
              <LatitudeDegrees>44.483417607843875885009765625</LatitudeDegrees>
              <LongitudeDegrees>-1.23588186688721179962158203125</LongitudeDegrees>
            </Position>
            <AltitudeMeters>31</AltitudeMeters>
            <DistanceMeters>NAN</DistanceMeters>
          </Trackpoint>
          <Trackpoint>
            <Time>2022-07-05T08:21:16.000Z</Time>
            <Position>
              <LatitudeDegrees>44.483384750783443450927734375</LatitudeDegrees>
              <LongitudeDegrees>-1.23587398789823055267333984375</LongitudeDegrees>
            </Position>
            <AltitudeMeters>31</AltitudeMeters>
            <DistanceMeters>NAN</DistanceMeters>
          </Trackpoint>
          <Trackpoint>
            <Time>2022-07-05T08:21:17.000Z</Time>
            <Position>
              <LatitudeDegrees>44.483365304768085479736328125</LatitudeDegrees>
              <LongitudeDegrees>-1.23586644418537616729736328125</LongitudeDegrees>
            </Position>
            <AltitudeMeters>31</AltitudeMeters>
            <DistanceMeters>NAN</DistanceMeters>
          </Trackpoint>
          <Trackpoint>
            <Time>2022-07-05T08:21:19.000Z</Time>
            <Position>
              <LatitudeDegrees>44.4833242334425449371337890625</LatitudeDegrees>
              <LongitudeDegrees>-1.23585688881576061248779296875</LongitudeDegrees>
            </Position>
            <AltitudeMeters>31</AltitudeMeters>
            <DistanceMeters>NAN</DistanceMeters>
          </Trackpoint>
          <Trackpoint>
            <Time>2022-07-05T08:21:21.000Z</Time>
            <Position>
              <LatitudeDegrees>44.48327302001416683197021484375</LatitudeDegrees>
              <LongitudeDegrees>-1.235853619873523712158203125</LongitudeDegrees>
            </Position>
            <AltitudeMeters>31</AltitudeMeters>
            <DistanceMeters>NAN</DistanceMeters>
          </Trackpoint>
          <Trackpoint>
            <Time>2022-07-05T08:21:22.000Z</Time>
            <Position>
              <LatitudeDegrees>44.4832447730004787445068359375</LatitudeDegrees>
              <LongitudeDegrees>-1.23583543114364147186279296875</LongitudeDegrees>
            </Position>
            <AltitudeMeters>31</AltitudeMeters>
            <DistanceMeters>NAN</DistanceMeters>
          </Trackpoint>
          <Trackpoint>
            <Time>2022-07-05T08:21:23.000Z</Time>
            <Position>
              <LatitudeDegrees>44.48321317322552204132080078125</LatitudeDegrees>
              <LongitudeDegrees>-1.2358212657272815704345703125</LongitudeDegrees>
            </Position>
            <AltitudeMeters>31</AltitudeMeters>
            <DistanceMeters>NAN</DistanceMeters>
          </Trackpoint>
          <Trackpoint>
            <Time>2022-07-05T08:21:29.000Z</Time>
            <Position>
              <LatitudeDegrees>44.4829564355313777923583984375</LatitudeDegrees>
              <LongitudeDegrees>-1.23578421771526336669921875</LongitudeDegrees>
            </Position>
            <AltitudeMeters>31.3999996185302734375</AltitudeMeters>
            <DistanceMeters>NAN</DistanceMeters>
          </Trackpoint>
          <Trackpoint>
            <Time>2022-07-05T08:21:32.000Z</Time>
            <Position>
              <LatitudeDegrees>44.48286247439682483673095703125</LatitudeDegrees>
              <LongitudeDegrees>-1.23575932346284389495849609375</LongitudeDegrees>
            </Position>
            <AltitudeMeters>31.3999996185302734375</AltitudeMeters>
            <DistanceMeters>NAN</DistanceMeters>
          </Trackpoint>
          <Trackpoint>
            <Time>2022-07-05T08:21:34.000Z</Time>
            <Position>
              <LatitudeDegrees>44.48279508389532566070556640625</LatitudeDegrees>
              <LongitudeDegrees>-1.23576083220541477203369140625</LongitudeDegrees>
            </Position>
            <AltitudeMeters>31.200000762939453125</AltitudeMeters>
            <DistanceMeters>NAN</DistanceMeters>
          </Trackpoint>
          <Trackpoint>
            <Time>2022-07-05T08:21:40.000Z</Time>
            <Position>
              <LatitudeDegrees>44.482592158019542694091796875</LatitudeDegrees>
              <LongitudeDegrees>-1.235746331512928009033203125</LongitudeDegrees>
            </Position>
            <AltitudeMeters>31.200000762939453125</AltitudeMeters>
            <DistanceMeters>NAN</DistanceMeters>
          </Trackpoint>
          <Trackpoint>
            <Time>2022-07-05T08:21:42.000Z</Time>
            <Position>
              <LatitudeDegrees>44.48253273032605648040771484375</LatitudeDegrees>
              <LongitudeDegrees>-1.23573250137269496917724609375</LongitudeDegrees>
            </Position>
            <AltitudeMeters>31.200000762939453125</AltitudeMeters>
            <DistanceMeters>NAN</DistanceMeters>
          </Trackpoint>
          <Trackpoint>
            <Time>2022-07-05T08:21:45.000Z</Time>
            <Position>
              <LatitudeDegrees>44.482440613210201263427734375</LatitudeDegrees>
              <LongitudeDegrees>-1.23571020551025867462158203125</LongitudeDegrees>
            </Position>
            <AltitudeMeters>31.200000762939453125</AltitudeMeters>
            <DistanceMeters>NAN</DistanceMeters>
          </Trackpoint>
          <Trackpoint>
            <Time>2022-07-05T08:21:52.000Z</Time>
            <Position>
              <LatitudeDegrees>44.48213978670537471771240234375</LatitudeDegrees>
              <LongitudeDegrees>-1.23564985580742359161376953125</LongitudeDegrees>
            </Position>
            <AltitudeMeters>31.3999996185302734375</AltitudeMeters>
            <DistanceMeters>NAN</DistanceMeters>
          </Trackpoint>
          <Trackpoint>
            <Time>2022-07-05T08:21:57.000Z</Time>
            <Position>
              <LatitudeDegrees>44.48193158023059368133544921875</LatitudeDegrees>
              <LongitudeDegrees>-1.23560140840709209442138671875</LongitudeDegrees>
            </Position>
            <AltitudeMeters>31.6000003814697265625</AltitudeMeters>
            <DistanceMeters>NAN</DistanceMeters>
          </Trackpoint>
          <Trackpoint>
            <Time>2022-07-05T08:22:03.000Z</Time>
            <Position>
              <LatitudeDegrees>44.48172412812709808349609375</LatitudeDegrees>
              <LongitudeDegrees>-1.23554776422679424285888671875</LongitudeDegrees>
            </Position>
            <AltitudeMeters>31.3999996185302734375</AltitudeMeters>
            <DistanceMeters>NAN</DistanceMeters>
          </Trackpoint>
          <Trackpoint>
            <Time>2022-07-05T08:22:07.000Z</Time>
            <Position>
              <LatitudeDegrees>44.4815650396049022674560546875</LatitudeDegrees>
              <LongitudeDegrees>-1.2353740073740482330322265625</LongitudeDegrees>
            </Position>
            <AltitudeMeters>31.3999996185302734375</AltitudeMeters>
            <DistanceMeters>NAN</DistanceMeters>
          </Trackpoint>
          <Trackpoint>
            <Time>2022-07-05T08:22:13.000Z</Time>
            <Position>
              <LatitudeDegrees>44.4813340343534946441650390625</LatitudeDegrees>
              <LongitudeDegrees>-1.2351785413920879364013671875</LongitudeDegrees>
            </Position>
            <AltitudeMeters>31.200000762939453125</AltitudeMeters>
            <DistanceMeters>NAN</DistanceMeters>
          </Trackpoint>
          <Trackpoint>
            <Time>2022-07-05T08:22:14.000Z</Time>
            <Position>
              <LatitudeDegrees>44.481298662722110748291015625</LatitudeDegrees>
              <LongitudeDegrees>-1.23513118363916873931884765625</LongitudeDegrees>
            </Position>
            <AltitudeMeters>31.3999996185302734375</AltitudeMeters>
            <DistanceMeters>NAN</DistanceMeters>
          </Trackpoint>
          <Trackpoint>
            <Time>2022-07-05T08:22:16.000Z</Time>
            <Position>
              <LatitudeDegrees>44.48117637075483798980712890625</LatitudeDegrees>
              <LongitudeDegrees>-1.2350558303296566009521484375</LongitudeDegrees>
            </Position>
            <AltitudeMeters>31.3999996185302734375</AltitudeMeters>
            <DistanceMeters>NAN</DistanceMeters>
          </Trackpoint>
          <Trackpoint>
            <Time>2022-07-05T08:22:20.000Z</Time>
            <Position>
              <LatitudeDegrees>44.4810996763408184051513671875</LatitudeDegrees>
              <LongitudeDegrees>-1.2349455244839191436767578125</LongitudeDegrees>
            </Position>
            <AltitudeMeters>31.6000003814697265625</AltitudeMeters>
            <DistanceMeters>NAN</DistanceMeters>
          </Trackpoint>
          <Trackpoint>
            <Time>2022-07-05T08:22:25.000Z</Time>
            <Position>
              <LatitudeDegrees>44.4809578545391559600830078125</LatitudeDegrees>
              <LongitudeDegrees>-1.23479205183684825897216796875</LongitudeDegrees>
            </Position>
            <AltitudeMeters>31.6000003814697265625</AltitudeMeters>
            <DistanceMeters>NAN</DistanceMeters>
          </Trackpoint>
          <Trackpoint>
            <Time>2022-07-05T08:22:26.000Z</Time>
            <Position>
              <LatitudeDegrees>44.480931870639324188232421875</LatitudeDegrees>
              <LongitudeDegrees>-1.23476087115705013275146484375</LongitudeDegrees>
            </Position>
            <AltitudeMeters>31.799999237060546875</AltitudeMeters>
            <DistanceMeters>NAN</DistanceMeters>
          </Trackpoint>
          <Trackpoint>
            <Time>2022-07-05T08:22:29.000Z</Time>
            <Position>
              <LatitudeDegrees>44.48082827031612396240234375</LatitudeDegrees>
              <LongitudeDegrees>-1.23466447927057743072509765625</LongitudeDegrees>
            </Position>
            <AltitudeMeters>32</AltitudeMeters>
            <DistanceMeters>NAN</DistanceMeters>
          </Trackpoint>
          <Trackpoint>
            <Time>2022-07-05T08:22:34.000Z</Time>
            <Position>
              <LatitudeDegrees>44.48069457896053791046142578125</LatitudeDegrees>
              <LongitudeDegrees>-1.23453321866691112518310546875</LongitudeDegrees>
            </Position>
            <AltitudeMeters>32</AltitudeMeters>
            <DistanceMeters>NAN</DistanceMeters>
          </Trackpoint>
          <Trackpoint>
            <Time>2022-07-05T08:22:38.000Z</Time>
            <Position>
              <LatitudeDegrees>44.4805458001792430877685546875</LatitudeDegrees>
              <LongitudeDegrees>-1.23448376543819904327392578125</LongitudeDegrees>
            </Position>
            <AltitudeMeters>32</AltitudeMeters>
            <DistanceMeters>NAN</DistanceMeters>
          </Trackpoint>
          <Trackpoint>
            <Time>2022-07-05T08:22:41.000Z</Time>
            <Position>
              <LatitudeDegrees>44.48041898198425769805908203125</LatitudeDegrees>
              <LongitudeDegrees>-1.234467923641204833984375</LongitudeDegrees>
            </Position>
            <AltitudeMeters>31.799999237060546875</AltitudeMeters>
            <DistanceMeters>NAN</DistanceMeters>
          </Trackpoint>
          <Trackpoint>
            <Time>2022-07-05T08:22:42.000Z</Time>
            <Position>
              <LatitudeDegrees>44.48038897477090358734130859375</LatitudeDegrees>
              <LongitudeDegrees>-1.23446130193769931793212890625</LongitudeDegrees>
            </Position>
            <AltitudeMeters>31.799999237060546875</AltitudeMeters>
            <DistanceMeters>NAN</DistanceMeters>
          </Trackpoint>
          <Trackpoint>
            <Time>2022-07-05T08:22:43.000Z</Time>
            <Position>
              <LatitudeDegrees>44.48035812936723232269287109375</LatitudeDegrees>
              <LongitudeDegrees>-1.23444587923586368560791015625</LongitudeDegrees>
            </Position>
            <AltitudeMeters>31.6000003814697265625</AltitudeMeters>
            <DistanceMeters>NAN</DistanceMeters>
          </Trackpoint>
          <Trackpoint>
            <Time>2022-07-05T08:22:49.000Z</Time>
            <Position>
              <LatitudeDegrees>44.48010968975722789764404296875</LatitudeDegrees>
              <LongitudeDegrees>-1.23433205299079418182373046875</LongitudeDegrees>
            </Position>
            <AltitudeMeters>31.6000003814697265625</AltitudeMeters>
            <DistanceMeters>NAN</DistanceMeters>
          </Trackpoint>
          <Trackpoint>
            <Time>2022-07-05T08:22:54.000Z</Time>
            <Position>
              <LatitudeDegrees>44.47986938059329986572265625</LatitudeDegrees>
              <LongitudeDegrees>-1.23430103994905948638916015625</LongitudeDegrees>
            </Position>
            <AltitudeMeters>31.6000003814697265625</AltitudeMeters>
            <DistanceMeters>NAN</DistanceMeters>
          </Trackpoint>
          <Trackpoint>
            <Time>2022-07-05T08:22:56.000Z</Time>
            <Position>
              <LatitudeDegrees>44.4798164069652557373046875</LatitudeDegrees>
              <LongitudeDegrees>-1.2343269400298595428466796875</LongitudeDegrees>
            </Position>
            <AltitudeMeters>31.6000003814697265625</AltitudeMeters>
            <DistanceMeters>NAN</DistanceMeters>
          </Trackpoint>
          <Trackpoint>
            <Time>2022-07-05T08:23:00.000Z</Time>
            <Position>
              <LatitudeDegrees>44.47965790517628192901611328125</LatitudeDegrees>
              <LongitudeDegrees>-1.23433104716241359710693359375</LongitudeDegrees>
            </Position>
            <AltitudeMeters>31.6000003814697265625</AltitudeMeters>
            <DistanceMeters>NAN</DistanceMeters>
          </Trackpoint>
          <Trackpoint>
            <Time>2022-07-05T08:23:01.000Z</Time>
            <Position>
              <LatitudeDegrees>44.47961180470883846282958984375</LatitudeDegrees>
              <LongitudeDegrees>-1.23432668857276439666748046875</LongitudeDegrees>
            </Position>
            <AltitudeMeters>31.6000003814697265625</AltitudeMeters>
            <DistanceMeters>NAN</DistanceMeters>
          </Trackpoint>
          <Trackpoint>
            <Time>2022-07-05T08:23:06.000Z</Time>
            <Position>
              <LatitudeDegrees>44.47942891158163547515869140625</LatitudeDegrees>
              <LongitudeDegrees>-1.23429383151233196258544921875</LongitudeDegrees>
            </Position>
            <AltitudeMeters>31.6000003814697265625</AltitudeMeters>
            <DistanceMeters>NAN</DistanceMeters>
          </Trackpoint>
          <Trackpoint>
            <Time>2022-07-05T08:23:12.000Z</Time>
            <Position>
              <LatitudeDegrees>44.47910000570118427276611328125</LatitudeDegrees>
              <LongitudeDegrees>-1.23427371494472026824951171875</LongitudeDegrees>
            </Position>
            <AltitudeMeters>31.6000003814697265625</AltitudeMeters>
            <DistanceMeters>NAN</DistanceMeters>
          </Trackpoint>
          <Trackpoint>
            <Time>2022-07-05T08:23:18.000Z</Time>
            <Position>
              <LatitudeDegrees>44.47881585918366909027099609375</LatitudeDegrees>
              <LongitudeDegrees>-1.23426315374672412872314453125</LongitudeDegrees>
            </Position>
            <AltitudeMeters>31.6000003814697265625</AltitudeMeters>
            <DistanceMeters>NAN</DistanceMeters>
          </Trackpoint>
          <Trackpoint>
            <Time>2022-07-05T08:23:26.000Z</Time>
            <Position>
              <LatitudeDegrees>44.4783886335790157318115234375</LatitudeDegrees>
              <LongitudeDegrees>-1.23427840881049633026123046875</LongitudeDegrees>
            </Position>
            <AltitudeMeters>31.6000003814697265625</AltitudeMeters>
            <DistanceMeters>NAN</DistanceMeters>
          </Trackpoint>
          <Trackpoint>
            <Time>2022-07-05T08:23:28.000Z</Time>
            <Position>
              <LatitudeDegrees>44.47830037213861942291259765625</LatitudeDegrees>
              <LongitudeDegrees>-1.23424387536942958831787109375</LongitudeDegrees>
            </Position>
            <AltitudeMeters>31.6000003814697265625</AltitudeMeters>
            <DistanceMeters>NAN</DistanceMeters>
          </Trackpoint>
          <Trackpoint>
            <Time>2022-07-05T08:23:35.000Z</Time>
            <Position>
              <LatitudeDegrees>44.47799384593963623046875</LatitudeDegrees>
              <LongitudeDegrees>-1.23424789868295192718505859375</LongitudeDegrees>
            </Position>
            <AltitudeMeters>31.6000003814697265625</AltitudeMeters>
            <DistanceMeters>NAN</DistanceMeters>
          </Trackpoint>
          <Trackpoint>
            <Time>2022-07-05T08:23:41.000Z</Time>
            <Position>
              <LatitudeDegrees>44.47778186760842800140380859375</LatitudeDegrees>
              <LongitudeDegrees>-1.2343889661133289337158203125</LongitudeDegrees>
            </Position>
            <AltitudeMeters>32</AltitudeMeters>
            <DistanceMeters>NAN</DistanceMeters>
          </Trackpoint>
          <Trackpoint>
            <Time>2022-07-05T08:23:48.000Z</Time>
            <Position>
              <LatitudeDegrees>44.477551616728305816650390625</LatitudeDegrees>
              <LongitudeDegrees>-1.23459239490330219268798828125</LongitudeDegrees>
            </Position>
            <AltitudeMeters>31.799999237060546875</AltitudeMeters>
            <DistanceMeters>NAN</DistanceMeters>
          </Trackpoint>
          <Trackpoint>
            <Time>2022-07-05T08:23:54.000Z</Time>
            <Position>
              <LatitudeDegrees>44.47738573886454105377197265625</LatitudeDegrees>
              <LongitudeDegrees>-1.23468727804720401763916015625</LongitudeDegrees>
            </Position>
            <AltitudeMeters>31.799999237060546875</AltitudeMeters>
            <DistanceMeters>NAN</DistanceMeters>
          </Trackpoint>
          <Trackpoint>
            <Time>2022-07-05T08:23:55.000Z</Time>
            <Position>
              <LatitudeDegrees>44.47732756845653057098388671875</LatitudeDegrees>
              <LongitudeDegrees>-1.23470957390964031219482421875</LongitudeDegrees>
            </Position>
            <AltitudeMeters>31.6000003814697265625</AltitudeMeters>
            <DistanceMeters>NAN</DistanceMeters>
          </Trackpoint>
          <Trackpoint>
            <Time>2022-07-05T08:23:57.000Z</Time>
            <Position>
              <LatitudeDegrees>44.47726361453533172607421875</LatitudeDegrees>
              <LongitudeDegrees>-1.23470001854002475738525390625</LongitudeDegrees>
            </Position>
            <AltitudeMeters>31.6000003814697265625</AltitudeMeters>
            <DistanceMeters>NAN</DistanceMeters>
          </Trackpoint>
          <Trackpoint>
            <Time>2022-07-05T08:24:01.000Z</Time>
            <Position>
              <LatitudeDegrees>44.47714350186288356781005859375</LatitudeDegrees>
              <LongitudeDegrees>-1.23468275181949138641357421875</LongitudeDegrees>
            </Position>
            <AltitudeMeters>31.6000003814697265625</AltitudeMeters>
            <DistanceMeters>NAN</DistanceMeters>
          </Trackpoint>
          <Trackpoint>
            <Time>2022-07-05T08:24:03.000Z</Time>
            <Position>
              <LatitudeDegrees>44.47707745246589183807373046875</LatitudeDegrees>
              <LongitudeDegrees>-1.234677135944366455078125</LongitudeDegrees>
            </Position>
            <AltitudeMeters>31.6000003814697265625</AltitudeMeters>
            <DistanceMeters>NAN</DistanceMeters>
          </Trackpoint>
          <Trackpoint>
            <Time>2022-07-05T08:24:04.000Z</Time>
            <Position>
              <LatitudeDegrees>44.47704291902482509613037109375</LatitudeDegrees>
              <LongitudeDegrees>-1.23466263525187969207763671875</LongitudeDegrees>
            </Position>
            <AltitudeMeters>31.6000003814697265625</AltitudeMeters>
            <DistanceMeters>NAN</DistanceMeters>
          </Trackpoint>
          <Trackpoint>
            <Time>2022-07-05T08:24:10.000Z</Time>
            <Position>
              <LatitudeDegrees>44.47683756239712238311767578125</LatitudeDegrees>
              <LongitudeDegrees>-1.2346427701413631439208984375</LongitudeDegrees>
            </Position>
            <AltitudeMeters>31.3999996185302734375</AltitudeMeters>
            <DistanceMeters>NAN</DistanceMeters>
          </Trackpoint>
          <Trackpoint>
            <Time>2022-07-05T08:24:16.000Z</Time>
            <Position>
              <LatitudeDegrees>44.47665215469896793365478515625</LatitudeDegrees>
              <LongitudeDegrees>-1.234602369368076324462890625</LongitudeDegrees>
            </Position>
            <AltitudeMeters>31.3999996185302734375</AltitudeMeters>
            <DistanceMeters>NAN</DistanceMeters>
          </Trackpoint>
          <Trackpoint>
            <Time>2022-07-05T08:24:21.000Z</Time>
            <Position>
              <LatitudeDegrees>44.47644746862351894378662109375</LatitudeDegrees>
              <LongitudeDegrees>-1.2345753796398639678955078125</LongitudeDegrees>
            </Position>
            <AltitudeMeters>31.3999996185302734375</AltitudeMeters>
            <DistanceMeters>NAN</DistanceMeters>
          </Trackpoint>
          <Trackpoint>
            <Time>2022-07-05T08:24:28.000Z</Time>
            <Position>
              <LatitudeDegrees>44.476213194429874420166015625</LatitudeDegrees>
              <LongitudeDegrees>-1.23454797081649303436279296875</LongitudeDegrees>
            </Position>
            <AltitudeMeters>31.799999237060546875</AltitudeMeters>
            <DistanceMeters>NAN</DistanceMeters>
          </Trackpoint>
          <Trackpoint>
            <Time>2022-07-05T08:24:34.000Z</Time>
            <Position>
              <LatitudeDegrees>44.47594036348164081573486328125</LatitudeDegrees>
              <LongitudeDegrees>-1.23451016843318939208984375</LongitudeDegrees>
            </Position>
            <AltitudeMeters>32</AltitudeMeters>
            <DistanceMeters>NAN</DistanceMeters>
          </Trackpoint>
          <Trackpoint>
            <Time>2022-07-05T08:24:40.000Z</Time>
            <Position>
              <LatitudeDegrees>44.47570466436445713043212890625</LatitudeDegrees>
              <LongitudeDegrees>-1.234537996351718902587890625</LongitudeDegrees>
            </Position>
            <AltitudeMeters>31.799999237060546875</AltitudeMeters>
            <DistanceMeters>NAN</DistanceMeters>
          </Trackpoint>
          <Trackpoint>
            <Time>2022-07-05T08:24:45.000Z</Time>
            <Position>
              <LatitudeDegrees>44.4755382835865020751953125</LatitudeDegrees>
              <LongitudeDegrees>-1.2345797382295131683349609375</LongitudeDegrees>
            </Position>
            <AltitudeMeters>31.799999237060546875</AltitudeMeters>
            <DistanceMeters>NAN</DistanceMeters>
          </Trackpoint>
          <Trackpoint>
            <Time>2022-07-05T08:24:51.000Z</Time>
            <Position>
              <LatitudeDegrees>44.4753520376980304718017578125</LatitudeDegrees>
              <LongitudeDegrees>-1.23462491668760776519775390625</LongitudeDegrees>
            </Position>
            <AltitudeMeters>31.799999237060546875</AltitudeMeters>
            <DistanceMeters>NAN</DistanceMeters>
          </Trackpoint>
          <Trackpoint>
            <Time>2022-07-05T08:24:56.000Z</Time>
            <Position>
              <LatitudeDegrees>44.4751974754035472869873046875</LatitudeDegrees>
              <LongitudeDegrees>-1.23463220894336700439453125</LongitudeDegrees>
            </Position>
            <AltitudeMeters>31.799999237060546875</AltitudeMeters>
            <DistanceMeters>NAN</DistanceMeters>
          </Trackpoint>
          <Trackpoint>
            <Time>2022-07-05T08:24:57.000Z</Time>
            <Position>
              <LatitudeDegrees>44.47516922838985919952392578125</LatitudeDegrees>
              <LongitudeDegrees>-1.2346410937607288360595703125</LongitudeDegrees>
            </Position>
            <AltitudeMeters>31.799999237060546875</AltitudeMeters>
            <DistanceMeters>NAN</DistanceMeters>
          </Trackpoint>
          <Trackpoint>
            <Time>2022-07-05T08:25:02.000Z</Time>
            <Position>
              <LatitudeDegrees>44.4749802164733409881591796875</LatitudeDegrees>
              <LongitudeDegrees>-1.2347031198441982269287109375</LongitudeDegrees>
            </Position>
            <AltitudeMeters>31.799999237060546875</AltitudeMeters>
            <DistanceMeters>NAN</DistanceMeters>
          </Trackpoint>
          <Trackpoint>
            <Time>2022-07-05T08:25:06.000Z</Time>
            <Position>
              <LatitudeDegrees>44.47484560310840606689453125</LatitudeDegrees>
              <LongitudeDegrees>-1.23475098051130771636962890625</LongitudeDegrees>
            </Position>
            <AltitudeMeters>31.799999237060546875</AltitudeMeters>
            <DistanceMeters>NAN</DistanceMeters>
          </Trackpoint>
          <Trackpoint>
            <Time>2022-07-05T08:25:09.000Z</Time>
            <Position>
              <LatitudeDegrees>44.47474342770874500274658203125</LatitudeDegrees>
              <LongitudeDegrees>-1.23477302491664886474609375</LongitudeDegrees>
            </Position>
            <AltitudeMeters>31.799999237060546875</AltitudeMeters>
            <DistanceMeters>NAN</DistanceMeters>
          </Trackpoint>
          <Trackpoint>
            <Time>2022-07-05T08:25:16.000Z</Time>
            <Position>
              <LatitudeDegrees>44.474504292011260986328125</LatitudeDegrees>
              <LongitudeDegrees>-1.234843432903289794921875</LongitudeDegrees>
            </Position>
            <AltitudeMeters>31.799999237060546875</AltitudeMeters>
            <DistanceMeters>NAN</DistanceMeters>
          </Trackpoint>
          <Trackpoint>
            <Time>2022-07-05T08:25:23.000Z</Time>
            <Position>
              <LatitudeDegrees>44.4741249270737171173095703125</LatitudeDegrees>
              <LongitudeDegrees>-1.23492683283984661102294921875</LongitudeDegrees>
            </Position>
            <AltitudeMeters>31.6000003814697265625</AltitudeMeters>
            <DistanceMeters>NAN</DistanceMeters>
          </Trackpoint>
          <Trackpoint>
            <Time>2022-07-05T08:25:27.000Z</Time>
            <Position>
              <LatitudeDegrees>44.47394966147840023040771484375</LatitudeDegrees>
              <LongitudeDegrees>-1.23497494496405124664306640625</LongitudeDegrees>
            </Position>
            <AltitudeMeters>31.6000003814697265625</AltitudeMeters>
            <DistanceMeters>NAN</DistanceMeters>
          </Trackpoint>
          <Trackpoint>
            <Time>2022-07-05T08:25:29.000Z</Time>
            <Position>
              <LatitudeDegrees>44.4739006273448467254638671875</LatitudeDegrees>
              <LongitudeDegrees>-1.2349703349173069000244140625</LongitudeDegrees>
            </Position>
            <AltitudeMeters>31.6000003814697265625</AltitudeMeters>
            <DistanceMeters>NAN</DistanceMeters>
          </Trackpoint>
          <Trackpoint>
            <Time>2022-07-05T08:25:33.000Z</Time>
            <Position>
              <LatitudeDegrees>44.4736934266984462738037109375</LatitudeDegrees>
              <LongitudeDegrees>-1.234999336302280426025390625</LongitudeDegrees>
            </Position>
            <AltitudeMeters>31.6000003814697265625</AltitudeMeters>
            <DistanceMeters>NAN</DistanceMeters>
          </Trackpoint>
          <Trackpoint>
            <Time>2022-07-05T08:25:39.000Z</Time>
            <Position>
              <LatitudeDegrees>44.47346803732216358184814453125</LatitudeDegrees>
              <LongitudeDegrees>-1.23499372042715549468994140625</LongitudeDegrees>
            </Position>
            <AltitudeMeters>31.3999996185302734375</AltitudeMeters>
            <DistanceMeters>NAN</DistanceMeters>
          </Trackpoint>
          <Trackpoint>
            <Time>2022-07-05T08:25:44.000Z</Time>
            <Position>
              <LatitudeDegrees>44.473259747028350830078125</LatitudeDegrees>
              <LongitudeDegrees>-1.23497075401246547698974609375</LongitudeDegrees>
            </Position>
            <AltitudeMeters>31.3999996185302734375</AltitudeMeters>
            <DistanceMeters>NAN</DistanceMeters>
          </Trackpoint>
          <Trackpoint>
            <Time>2022-07-05T08:25:47.000Z</Time>
            <Position>
              <LatitudeDegrees>44.47317802347242832183837890625</LatitudeDegrees>
              <LongitudeDegrees>-1.2349656410515308380126953125</LongitudeDegrees>
            </Position>
            <AltitudeMeters>31.3999996185302734375</AltitudeMeters>
            <DistanceMeters>NAN</DistanceMeters>
          </Trackpoint>
          <Trackpoint>
            <Time>2022-07-05T08:25:51.000Z</Time>
            <Position>
              <LatitudeDegrees>44.47299462743103504180908203125</LatitudeDegrees>
              <LongitudeDegrees>-1.234953068196773529052734375</LongitudeDegrees>
            </Position>
            <AltitudeMeters>31.6000003814697265625</AltitudeMeters>
            <DistanceMeters>NAN</DistanceMeters>
          </Trackpoint>
          <Trackpoint>
            <Time>2022-07-05T08:25:58.000Z</Time>
            <Position>
              <LatitudeDegrees>44.47271634824573993682861328125</LatitudeDegrees>
              <LongitudeDegrees>-1.23490051366388797760009765625</LongitudeDegrees>
            </Position>
            <AltitudeMeters>31.200000762939453125</AltitudeMeters>
            <DistanceMeters>NAN</DistanceMeters>
          </Trackpoint>
          <Trackpoint>
            <Time>2022-07-05T08:26:02.000Z</Time>
            <Position>
              <LatitudeDegrees>44.472567737102508544921875</LatitudeDegrees>
              <LongitudeDegrees>-1.23490017838776111602783203125</LongitudeDegrees>
            </Position>
            <AltitudeMeters>31.3999996185302734375</AltitudeMeters>
            <DistanceMeters>NAN</DistanceMeters>
          </Trackpoint>
          <Trackpoint>
            <Time>2022-07-05T08:26:03.000Z</Time>
            <Position>
              <LatitudeDegrees>44.47252951562404632568359375</LatitudeDegrees>
              <LongitudeDegrees>-1.23489917255938053131103515625</LongitudeDegrees>
            </Position>
            <AltitudeMeters>31.3999996185302734375</AltitudeMeters>
            <DistanceMeters>NAN</DistanceMeters>
          </Trackpoint>
          <Trackpoint>
            <Time>2022-07-05T08:26:09.000Z</Time>
            <Position>
              <LatitudeDegrees>44.47228350676596164703369140625</LatitudeDegrees>
              <LongitudeDegrees>-1.234854161739349365234375</LongitudeDegrees>
            </Position>
            <AltitudeMeters>31.6000003814697265625</AltitudeMeters>
            <DistanceMeters>NAN</DistanceMeters>
          </Trackpoint>
          <Trackpoint>
            <Time>2022-07-05T08:26:16.000Z</Time>
            <Position>
              <LatitudeDegrees>44.47197421453893184661865234375</LatitudeDegrees>
              <LongitudeDegrees>-1.23480227775871753692626953125</LongitudeDegrees>
            </Position>
            <AltitudeMeters>31.799999237060546875</AltitudeMeters>
            <DistanceMeters>NAN</DistanceMeters>
          </Trackpoint>
          <Trackpoint>
            <Time>2022-07-05T08:26:20.000Z</Time>
            <Position>
              <LatitudeDegrees>44.4718158803880214691162109375</LatitudeDegrees>
              <LongitudeDegrees>-1.23482801020145416259765625</LongitudeDegrees>
            </Position>
            <AltitudeMeters>31.799999237060546875</AltitudeMeters>
            <DistanceMeters>NAN</DistanceMeters>
          </Trackpoint>
          <Trackpoint>
            <Time>2022-07-05T08:26:24.000Z</Time>
            <Position>
              <LatitudeDegrees>44.47168353013694286346435546875</LatitudeDegrees>
              <LongitudeDegrees>-1.23494443483650684356689453125</LongitudeDegrees>
            </Position>
            <AltitudeMeters>32</AltitudeMeters>
            <DistanceMeters>NAN</DistanceMeters>
          </Trackpoint>
          <Trackpoint>
            <Time>2022-07-05T08:26:30.000Z</Time>
            <Position>
              <LatitudeDegrees>44.47150382213294506072998046875</LatitudeDegrees>
              <LongitudeDegrees>-1.23518432490527629852294921875</LongitudeDegrees>
            </Position>
            <AltitudeMeters>31.6000003814697265625</AltitudeMeters>
            <DistanceMeters>NAN</DistanceMeters>
          </Trackpoint>
          <Trackpoint>
            <Time>2022-07-05T08:26:31.000Z</Time>
            <Position>
              <LatitudeDegrees>44.471500217914581298828125</LatitudeDegrees>
              <LongitudeDegrees>-1.2352164275944232940673828125</LongitudeDegrees>
            </Position>
            <AltitudeMeters>31.6000003814697265625</AltitudeMeters>
            <DistanceMeters>NAN</DistanceMeters>
          </Trackpoint>
          <Trackpoint>
            <Time>2022-07-05T08:26:33.000Z</Time>
            <Position>
              <LatitudeDegrees>44.47148622013628482818603515625</LatitudeDegrees>
              <LongitudeDegrees>-1.2352744303643703460693359375</LongitudeDegrees>
            </Position>
            <AltitudeMeters>31.200000762939453125</AltitudeMeters>
            <DistanceMeters>NAN</DistanceMeters>
          </Trackpoint>
          <Trackpoint>
            <Time>2022-07-05T08:26:35.000Z</Time>
            <Position>
              <LatitudeDegrees>44.4714397005736827850341796875</LatitudeDegrees>
              <LongitudeDegrees>-1.23534073121845722198486328125</LongitudeDegrees>
            </Position>
            <AltitudeMeters>31.200000762939453125</AltitudeMeters>
            <DistanceMeters>NAN</DistanceMeters>
          </Trackpoint>
          <Trackpoint>
            <Time>2022-07-05T08:26:39.000Z</Time>
            <Position>
              <LatitudeDegrees>44.47139955125749111175537109375</LatitudeDegrees>
              <LongitudeDegrees>-1.23541600070893764495849609375</LongitudeDegrees>
            </Position>
            <AltitudeMeters>31.200000762939453125</AltitudeMeters>
            <DistanceMeters>NAN</DistanceMeters>
          </Trackpoint>
          <Trackpoint>
            <Time>2022-07-05T08:26:40.000Z</Time>
            <Position>
              <LatitudeDegrees>44.47139955125749111175537109375</LatitudeDegrees>
              <LongitudeDegrees>-1.23541600070893764495849609375</LongitudeDegrees>
            </Position>
            <AltitudeMeters>31.200000762939453125</AltitudeMeters>
            <DistanceMeters>NAN</DistanceMeters>
          </Trackpoint>
          <Trackpoint>
            <Time>2022-07-05T08:29:19.000Z</Time>
            <Position>
              <LatitudeDegrees>44.471376501023769378662109375</LatitudeDegrees>
              <LongitudeDegrees>-1.2354494445025920867919921875</LongitudeDegrees>
            </Position>
            <AltitudeMeters>30.799999237060546875</AltitudeMeters>
            <DistanceMeters>NAN</DistanceMeters>
          </Trackpoint>
          <Trackpoint>
            <Time>2022-07-05T08:29:21.000Z</Time>
            <Position>
              <LatitudeDegrees>44.4713448174297809600830078125</LatitudeDegrees>
              <LongitudeDegrees>-1.2354990653693675994873046875</LongitudeDegrees>
            </Position>
            <AltitudeMeters>30.799999237060546875</AltitudeMeters>
            <DistanceMeters>NAN</DistanceMeters>
          </Trackpoint>
          <Trackpoint>
            <Time>2022-07-05T08:29:22.000Z</Time>
            <Position>
              <LatitudeDegrees>44.4713448174297809600830078125</LatitudeDegrees>
              <LongitudeDegrees>-1.2354990653693675994873046875</LongitudeDegrees>
            </Position>
            <AltitudeMeters>29.3999996185302734375</AltitudeMeters>
            <DistanceMeters>NAN</DistanceMeters>
          </Trackpoint>
          <Trackpoint>
            <Time>2022-07-05T08:29:24.000Z</Time>
            <Position>
              <LatitudeDegrees>44.4713153131306171417236328125</LatitudeDegrees>
              <LongitudeDegrees>-1.2355649471282958984375</LongitudeDegrees>
            </Position>
            <AltitudeMeters>28.3999996185302734375</AltitudeMeters>
            <DistanceMeters>NAN</DistanceMeters>
          </Trackpoint>
          <Trackpoint>
            <Time>2022-07-05T08:29:28.000Z</Time>
            <Position>
              <LatitudeDegrees>44.4712529517710208892822265625</LatitudeDegrees>
              <LongitudeDegrees>-1.23574666678905487060546875</LongitudeDegrees>
            </Position>
            <AltitudeMeters>28</AltitudeMeters>
            <DistanceMeters>NAN</DistanceMeters>
          </Trackpoint>
          <Trackpoint>
            <Time>2022-07-05T08:29:30.000Z</Time>
            <Position>
              <LatitudeDegrees>44.471198804676532745361328125</LatitudeDegrees>
              <LongitudeDegrees>-1.23578379862010478973388671875</LongitudeDegrees>
            </Position>
            <AltitudeMeters>27.799999237060546875</AltitudeMeters>
            <DistanceMeters>NAN</DistanceMeters>
          </Trackpoint>
          <Trackpoint>
            <Time>2022-07-05T08:29:32.000Z</Time>
            <Position>
              <LatitudeDegrees>44.4711523689329624176025390625</LatitudeDegrees>
              <LongitudeDegrees>-1.23579402454197406768798828125</LongitudeDegrees>
            </Position>
            <AltitudeMeters>27.799999237060546875</AltitudeMeters>
            <DistanceMeters>NAN</DistanceMeters>
          </Trackpoint>
          <Trackpoint>
            <Time>2022-07-05T08:29:38.000Z</Time>
            <Position>
              <LatitudeDegrees>44.47095547802746295928955078125</LatitudeDegrees>
              <LongitudeDegrees>-1.23576971702277660369873046875</LongitudeDegrees>
            </Position>
            <AltitudeMeters>27.799999237060546875</AltitudeMeters>
            <DistanceMeters>NAN</DistanceMeters>
          </Trackpoint>
          <Trackpoint>
            <Time>2022-07-05T08:29:42.000Z</Time>
            <Position>
              <LatitudeDegrees>44.47082631289958953857421875</LatitudeDegrees>
              <LongitudeDegrees>-1.23589108698070049285888671875</LongitudeDegrees>
            </Position>
            <AltitudeMeters>27.6000003814697265625</AltitudeMeters>
            <DistanceMeters>NAN</DistanceMeters>
          </Trackpoint>
          <Trackpoint>
            <Time>2022-07-05T08:29:44.000Z</Time>
            <Position>
              <LatitudeDegrees>44.4707580842077732086181640625</LatitudeDegrees>
              <LongitudeDegrees>-1.23597390018403530120849609375</LongitudeDegrees>
            </Position>
            <AltitudeMeters>27.3999996185302734375</AltitudeMeters>
            <DistanceMeters>NAN</DistanceMeters>
          </Trackpoint>
          <Trackpoint>
            <Time>2022-07-05T08:29:45.000Z</Time>
            <Position>
              <LatitudeDegrees>44.470724053680896759033203125</LatitudeDegrees>
              <LongitudeDegrees>-1.23601949773728847503662109375</LongitudeDegrees>
            </Position>
            <AltitudeMeters>27.3999996185302734375</AltitudeMeters>
            <DistanceMeters>NAN</DistanceMeters>
          </Trackpoint>
          <Trackpoint>
            <Time>2022-07-05T08:29:47.000Z</Time>
            <Position>
              <LatitudeDegrees>44.47065406478941440582275390625</LatitudeDegrees>
              <LongitudeDegrees>-1.2361008860170841217041015625</LongitudeDegrees>
            </Position>
            <AltitudeMeters>27.3999996185302734375</AltitudeMeters>
            <DistanceMeters>NAN</DistanceMeters>
          </Trackpoint>
          <Trackpoint>
            <Time>2022-07-05T08:29:48.000Z</Time>
            <Position>
              <LatitudeDegrees>44.47062104009091854095458984375</LatitudeDegrees>
              <LongitudeDegrees>-1.2361495010554790496826171875</LongitudeDegrees>
            </Position>
            <AltitudeMeters>27.200000762939453125</AltitudeMeters>
            <DistanceMeters>NAN</DistanceMeters>
          </Trackpoint>
          <Trackpoint>
            <Time>2022-07-05T08:29:50.000Z</Time>
            <Position>
              <LatitudeDegrees>44.4705465249717235565185546875</LatitudeDegrees>
              <LongitudeDegrees>-1.2362309731543064117431640625</LongitudeDegrees>
            </Position>
            <AltitudeMeters>27.200000762939453125</AltitudeMeters>
            <DistanceMeters>NAN</DistanceMeters>
          </Trackpoint>
          <Trackpoint>
            <Time>2022-07-05T08:29:53.000Z</Time>
            <Position>
              <LatitudeDegrees>44.470446445047855377197265625</LatitudeDegrees>
              <LongitudeDegrees>-1.2363374233245849609375</LongitudeDegrees>
            </Position>
            <AltitudeMeters>26.799999237060546875</AltitudeMeters>
            <DistanceMeters>NAN</DistanceMeters>
          </Trackpoint>
          <Trackpoint>
            <Time>2022-07-05T08:29:57.000Z</Time>
            <Position>
              <LatitudeDegrees>44.47031308896839618682861328125</LatitudeDegrees>
              <LongitudeDegrees>-1.23647086322307586669921875</LongitudeDegrees>
            </Position>
            <AltitudeMeters>26.6000003814697265625</AltitudeMeters>
            <DistanceMeters>NAN</DistanceMeters>
          </Trackpoint>
          <Trackpoint>
            <Time>2022-07-05T08:30:00.000Z</Time>
            <Position>
              <LatitudeDegrees>44.470219798386096954345703125</LatitudeDegrees>
              <LongitudeDegrees>-1.23658963479101657867431640625</LongitudeDegrees>
            </Position>
            <AltitudeMeters>26.6000003814697265625</AltitudeMeters>
            <DistanceMeters>NAN</DistanceMeters>
          </Trackpoint>
          <Trackpoint>
            <Time>2022-07-05T08:30:06.000Z</Time>
            <Position>
              <LatitudeDegrees>44.47001100517809391021728515625</LatitudeDegrees>
              <LongitudeDegrees>-1.23675509355962276458740234375</LongitudeDegrees>
            </Position>
            <AltitudeMeters>26.6000003814697265625</AltitudeMeters>
            <DistanceMeters>NAN</DistanceMeters>
          </Trackpoint>
          <Trackpoint>
            <Time>2022-07-05T08:30:14.000Z</Time>
            <Position>
              <LatitudeDegrees>44.46974379010498523712158203125</LatitudeDegrees>
              <LongitudeDegrees>-1.23698391951620578765869140625</LongitudeDegrees>
            </Position>
            <AltitudeMeters>26.799999237060546875</AltitudeMeters>
            <DistanceMeters>NAN</DistanceMeters>
          </Trackpoint>
          <Trackpoint>
            <Time>2022-07-05T08:30:15.000Z</Time>
            <Position>
              <LatitudeDegrees>44.4697152078151702880859375</LatitudeDegrees>
              <LongitudeDegrees>-1.23701132833957672119140625</LongitudeDegrees>
            </Position>
            <AltitudeMeters>26.799999237060546875</AltitudeMeters>
            <DistanceMeters>NAN</DistanceMeters>
          </Trackpoint>
          <Trackpoint>
            <Time>2022-07-05T08:30:21.000Z</Time>
            <Position>
              <LatitudeDegrees>44.469565339386463165283203125</LatitudeDegrees>
              <LongitudeDegrees>-1.23719397000968456268310546875</LongitudeDegrees>
            </Position>
            <AltitudeMeters>26.6000003814697265625</AltitudeMeters>
            <DistanceMeters>NAN</DistanceMeters>
          </Trackpoint>
          <Trackpoint>
            <Time>2022-07-05T08:30:29.000Z</Time>
            <Position>
              <LatitudeDegrees>44.46934564970433712005615234375</LatitudeDegrees>
              <LongitudeDegrees>-1.23752119950950145721435546875</LongitudeDegrees>
            </Position>
            <AltitudeMeters>26.799999237060546875</AltitudeMeters>
            <DistanceMeters>NAN</DistanceMeters>
          </Trackpoint>
          <Trackpoint>
            <Time>2022-07-05T08:30:37.000Z</Time>
            <Position>
              <LatitudeDegrees>44.4690857268869876861572265625</LatitudeDegrees>
              <LongitudeDegrees>-1.23780216090381145477294921875</LongitudeDegrees>
            </Position>
            <AltitudeMeters>27</AltitudeMeters>
            <DistanceMeters>NAN</DistanceMeters>
          </Trackpoint>
          <Trackpoint>
            <Time>2022-07-05T08:30:41.000Z</Time>
            <Position>
              <LatitudeDegrees>44.46897248737514019012451171875</LatitudeDegrees>
              <LongitudeDegrees>-1.23798631131649017333984375</LongitudeDegrees>
            </Position>
            <AltitudeMeters>26.799999237060546875</AltitudeMeters>
            <DistanceMeters>NAN</DistanceMeters>
          </Trackpoint>
          <Trackpoint>
            <Time>2022-07-05T08:30:43.000Z</Time>
            <Position>
              <LatitudeDegrees>44.46891096420586109161376953125</LatitudeDegrees>
              <LongitudeDegrees>-1.2380525283515453338623046875</LongitudeDegrees>
            </Position>
            <AltitudeMeters>26.799999237060546875</AltitudeMeters>
            <DistanceMeters>NAN</DistanceMeters>
          </Trackpoint>
          <Trackpoint>
            <Time>2022-07-05T08:30:53.000Z</Time>
            <Position>
              <LatitudeDegrees>44.46856864728033542633056640625</LatitudeDegrees>
              <LongitudeDegrees>-1.23836123384535312652587890625</LongitudeDegrees>
            </Position>
            <AltitudeMeters>26.6000003814697265625</AltitudeMeters>
            <DistanceMeters>NAN</DistanceMeters>
          </Trackpoint>
          <Trackpoint>
            <Time>2022-07-05T08:31:00.000Z</Time>
            <Position>
              <LatitudeDegrees>44.46831308305263519287109375</LatitudeDegrees>
              <LongitudeDegrees>-1.23853725381195545196533203125</LongitudeDegrees>
            </Position>
            <AltitudeMeters>26.3999996185302734375</AltitudeMeters>
            <DistanceMeters>NAN</DistanceMeters>
          </Trackpoint>
          <Trackpoint>
            <Time>2022-07-05T08:31:02.000Z</Time>
            <Position>
              <LatitudeDegrees>44.4682408310472965240478515625</LatitudeDegrees>
              <LongitudeDegrees>-1.23856843449175357818603515625</LongitudeDegrees>
            </Position>
            <AltitudeMeters>26.3999996185302734375</AltitudeMeters>
            <DistanceMeters>NAN</DistanceMeters>
          </Trackpoint>
          <Trackpoint>
            <Time>2022-07-05T08:31:06.000Z</Time>
            <Position>
              <LatitudeDegrees>44.46809557266533374786376953125</LatitudeDegrees>
              <LongitudeDegrees>-1.23862274922430515289306640625</LongitudeDegrees>
            </Position>
            <AltitudeMeters>26.6000003814697265625</AltitudeMeters>
            <DistanceMeters>NAN</DistanceMeters>
          </Trackpoint>
          <Trackpoint>
            <Time>2022-07-05T08:31:09.000Z</Time>
            <Position>
              <LatitudeDegrees>44.46798509918153285980224609375</LatitudeDegrees>
              <LongitudeDegrees>-1.23866080306470394134521484375</LongitudeDegrees>
            </Position>
            <AltitudeMeters>26.6000003814697265625</AltitudeMeters>
            <DistanceMeters>NAN</DistanceMeters>
          </Trackpoint>
          <Trackpoint>
            <Time>2022-07-05T08:31:10.000Z</Time>
            <Position>
              <LatitudeDegrees>44.46794972755014896392822265625</LatitudeDegrees>
              <LongitudeDegrees>-1.2386694364249706268310546875</LongitudeDegrees>
            </Position>
            <AltitudeMeters>26.6000003814697265625</AltitudeMeters>
            <DistanceMeters>NAN</DistanceMeters>
          </Trackpoint>
          <Trackpoint>
            <Time>2022-07-05T08:31:11.000Z</Time>
            <Position>
              <LatitudeDegrees>44.46791335009038448333740234375</LatitudeDegrees>
              <LongitudeDegrees>-1.23867806978523731231689453125</LongitudeDegrees>
            </Position>
            <AltitudeMeters>26.6000003814697265625</AltitudeMeters>
            <DistanceMeters>NAN</DistanceMeters>
          </Trackpoint>
          <Trackpoint>
            <Time>2022-07-05T08:31:14.000Z</Time>
            <Position>
              <LatitudeDegrees>44.467813856899738311767578125</LatitudeDegrees>
              <LongitudeDegrees>-1.238722242414951324462890625</LongitudeDegrees>
            </Position>
            <AltitudeMeters>26.3999996185302734375</AltitudeMeters>
            <DistanceMeters>NAN</DistanceMeters>
          </Trackpoint>
          <Trackpoint>
            <Time>2022-07-05T08:31:17.000Z</Time>
            <Position>
              <LatitudeDegrees>44.46772760711610317230224609375</LatitudeDegrees>
              <LongitudeDegrees>-1.238787285983562469482421875</LongitudeDegrees>
            </Position>
            <AltitudeMeters>26.200000762939453125</AltitudeMeters>
            <DistanceMeters>NAN</DistanceMeters>
          </Trackpoint>
          <Trackpoint>
            <Time>2022-07-05T08:31:23.000Z</Time>
            <Position>
              <LatitudeDegrees>44.4675800018012523651123046875</LatitudeDegrees>
              <LongitudeDegrees>-1.23894385993480682373046875</LongitudeDegrees>
            </Position>
            <AltitudeMeters>26.200000762939453125</AltitudeMeters>
            <DistanceMeters>NAN</DistanceMeters>
          </Trackpoint>
          <Trackpoint>
            <Time>2022-07-05T08:31:26.000Z</Time>
            <Position>
              <LatitudeDegrees>44.46750464849174022674560546875</LatitudeDegrees>
              <LongitudeDegrees>-1.23903237283229827880859375</LongitudeDegrees>
            </Position>
            <AltitudeMeters>26.200000762939453125</AltitudeMeters>
            <DistanceMeters>NAN</DistanceMeters>
          </Trackpoint>
          <Trackpoint>
            <Time>2022-07-05T08:31:27.000Z</Time>
            <Position>
              <LatitudeDegrees>44.4674794189631938934326171875</LatitudeDegrees>
              <LongitudeDegrees>-1.23906363733112812042236328125</LongitudeDegrees>
            </Position>
            <AltitudeMeters>26.200000762939453125</AltitudeMeters>
            <DistanceMeters>NAN</DistanceMeters>
          </Trackpoint>
          <Trackpoint>
            <Time>2022-07-05T08:31:33.000Z</Time>
            <Position>
              <LatitudeDegrees>44.46732091717422008514404296875</LatitudeDegrees>
              <LongitudeDegrees>-1.23922306112945079803466796875</LongitudeDegrees>
            </Position>
            <AltitudeMeters>26</AltitudeMeters>
            <DistanceMeters>NAN</DistanceMeters>
          </Trackpoint>
          <Trackpoint>
            <Time>2022-07-05T08:31:41.000Z</Time>
            <Position>
              <LatitudeDegrees>44.46708270348608493804931640625</LatitudeDegrees>
              <LongitudeDegrees>-1.23951776884496212005615234375</LongitudeDegrees>
            </Position>
            <AltitudeMeters>26</AltitudeMeters>
            <DistanceMeters>NAN</DistanceMeters>
          </Trackpoint>
          <Trackpoint>
            <Time>2022-07-05T08:31:47.000Z</Time>
            <Position>
              <LatitudeDegrees>44.46687701158225536346435546875</LatitudeDegrees>
              <LongitudeDegrees>-1.239730082452297210693359375</LongitudeDegrees>
            </Position>
            <AltitudeMeters>26.200000762939453125</AltitudeMeters>
            <DistanceMeters>NAN</DistanceMeters>
          </Trackpoint>
          <Trackpoint>
            <Time>2022-07-05T08:31:54.000Z</Time>
            <Position>
              <LatitudeDegrees>44.4666013307869434356689453125</LatitudeDegrees>
              <LongitudeDegrees>-1.239867545664310455322265625</LongitudeDegrees>
            </Position>
            <AltitudeMeters>26.3999996185302734375</AltitudeMeters>
            <DistanceMeters>NAN</DistanceMeters>
          </Trackpoint>
          <Trackpoint>
            <Time>2022-07-05T08:32:01.000Z</Time>
            <Position>
              <LatitudeDegrees>44.46634107269346714019775390625</LatitudeDegrees>
              <LongitudeDegrees>-1.2399206869304180145263671875</LongitudeDegrees>
            </Position>
            <AltitudeMeters>26.6000003814697265625</AltitudeMeters>
            <DistanceMeters>NAN</DistanceMeters>
          </Trackpoint>
          <Trackpoint>
            <Time>2022-07-05T08:32:06.000Z</Time>
            <Position>
              <LatitudeDegrees>44.46623579598963260650634765625</LatitudeDegrees>
              <LongitudeDegrees>-1.24002889730036258697509765625</LongitudeDegrees>
            </Position>
            <AltitudeMeters>26.799999237060546875</AltitudeMeters>
            <DistanceMeters>NAN</DistanceMeters>
          </Trackpoint>
          <Trackpoint>
            <Time>2022-07-05T08:32:09.000Z</Time>
            <Position>
              <LatitudeDegrees>44.4661631248891353607177734375</LatitudeDegrees>
              <LongitudeDegrees>-1.24007198028266429901123046875</LongitudeDegrees>
            </Position>
            <AltitudeMeters>26.799999237060546875</AltitudeMeters>
            <DistanceMeters>NAN</DistanceMeters>
          </Trackpoint>
          <Trackpoint>
            <Time>2022-07-05T08:32:10.000Z</Time>
            <Position>
              <LatitudeDegrees>44.46613471023738384246826171875</LatitudeDegrees>
              <LongitudeDegrees>-1.240086816251277923583984375</LongitudeDegrees>
            </Position>
            <AltitudeMeters>26.799999237060546875</AltitudeMeters>
            <DistanceMeters>NAN</DistanceMeters>
          </Trackpoint>
          <Trackpoint>
            <Time>2022-07-05T08:32:17.000Z</Time>
            <Position>
              <LatitudeDegrees>44.4659542478621006011962890625</LatitudeDegrees>
              <LongitudeDegrees>-1.24025805853307247161865234375</LongitudeDegrees>
            </Position>
            <AltitudeMeters>27.200000762939453125</AltitudeMeters>
            <DistanceMeters>NAN</DistanceMeters>
          </Trackpoint>
          <Trackpoint>
            <Time>2022-07-05T08:32:22.000Z</Time>
            <Position>
              <LatitudeDegrees>44.46581326425075531005859375</LatitudeDegrees>
              <LongitudeDegrees>-1.24039166606962680816650390625</LongitudeDegrees>
            </Position>
            <AltitudeMeters>27.3999996185302734375</AltitudeMeters>
            <DistanceMeters>NAN</DistanceMeters>
          </Trackpoint>
          <Trackpoint>
            <Time>2022-07-05T08:32:23.000Z</Time>
            <Position>
              <LatitudeDegrees>44.46578644216060638427734375</LatitudeDegrees>
              <LongitudeDegrees>-1.24041496776044368743896484375</LongitudeDegrees>
            </Position>
            <AltitudeMeters>27.3999996185302734375</AltitudeMeters>
            <DistanceMeters>NAN</DistanceMeters>
          </Trackpoint>
          <Trackpoint>
            <Time>2022-07-05T08:32:30.000Z</Time>
            <Position>
              <LatitudeDegrees>44.46558670140802860260009765625</LatitudeDegrees>
              <LongitudeDegrees>-1.2405741401016712188720703125</LongitudeDegrees>
            </Position>
            <AltitudeMeters>27.6000003814697265625</AltitudeMeters>
            <DistanceMeters>NAN</DistanceMeters>
          </Trackpoint>
          <Trackpoint>
            <Time>2022-07-05T08:32:35.000Z</Time>
            <Position>
              <LatitudeDegrees>44.46543063037097454071044921875</LatitudeDegrees>
              <LongitudeDegrees>-1.24061143957078456878662109375</LongitudeDegrees>
            </Position>
            <AltitudeMeters>28</AltitudeMeters>
            <DistanceMeters>NAN</DistanceMeters>
          </Trackpoint>
          <Trackpoint>
            <Time>2022-07-05T08:32:40.000Z</Time>
            <Position>
              <LatitudeDegrees>44.4653011299669742584228515625</LatitudeDegrees>
              <LongitudeDegrees>-1.240587048232555389404296875</LongitudeDegrees>
            </Position>
            <AltitudeMeters>28.200000762939453125</AltitudeMeters>
            <DistanceMeters>NAN</DistanceMeters>
          </Trackpoint>
          <Trackpoint>
            <Time>2022-07-05T08:32:41.000Z</Time>
            <Position>
              <LatitudeDegrees>44.4652652554214000701904296875</LatitudeDegrees>
              <LongitudeDegrees>-1.24057690612971782684326171875</LongitudeDegrees>
            </Position>
            <AltitudeMeters>28.200000762939453125</AltitudeMeters>
            <DistanceMeters>NAN</DistanceMeters>
          </Trackpoint>
          <Trackpoint>
            <Time>2022-07-05T08:32:44.000Z</Time>
            <Position>
              <LatitudeDegrees>44.46516844443976879119873046875</LatitudeDegrees>
              <LongitudeDegrees>-1.24055041931569576263427734375</LongitudeDegrees>
            </Position>
            <AltitudeMeters>28</AltitudeMeters>
            <DistanceMeters>NAN</DistanceMeters>
          </Trackpoint>
          <Trackpoint>
            <Time>2022-07-05T08:32:49.000Z</Time>
            <Position>
              <LatitudeDegrees>44.464994184672832489013671875</LatitudeDegrees>
              <LongitudeDegrees>-1.24050029553472995758056640625</LongitudeDegrees>
            </Position>
            <AltitudeMeters>27.6000003814697265625</AltitudeMeters>
            <DistanceMeters>NAN</DistanceMeters>
          </Trackpoint>
          <Trackpoint>
            <Time>2022-07-05T08:32:53.000Z</Time>
            <Position>
              <LatitudeDegrees>44.4648236967623233795166015625</LatitudeDegrees>
              <LongitudeDegrees>-1.240502558648586273193359375</LongitudeDegrees>
            </Position>
            <AltitudeMeters>27.6000003814697265625</AltitudeMeters>
            <DistanceMeters>NAN</DistanceMeters>
          </Trackpoint>
          <Trackpoint>
            <Time>2022-07-05T08:32:55.000Z</Time>
            <Position>
              <LatitudeDegrees>44.4647868163883686065673828125</LatitudeDegrees>
              <LongitudeDegrees>-1.24051052145659923553466796875</LongitudeDegrees>
            </Position>
            <AltitudeMeters>27.799999237060546875</AltitudeMeters>
            <DistanceMeters>NAN</DistanceMeters>
          </Trackpoint>
          <Trackpoint>
            <Time>2022-07-05T08:33:00.000Z</Time>
            <Position>
              <LatitudeDegrees>44.46457198821008205413818359375</LatitudeDegrees>
              <LongitudeDegrees>-1.240626610815525054931640625</LongitudeDegrees>
            </Position>
            <AltitudeMeters>28</AltitudeMeters>
            <DistanceMeters>NAN</DistanceMeters>
          </Trackpoint>
          <Trackpoint>
            <Time>2022-07-05T08:33:01.000Z</Time>
            <Position>
              <LatitudeDegrees>44.46454583667218685150146484375</LatitudeDegrees>
              <LongitudeDegrees>-1.2406438775360584259033203125</LongitudeDegrees>
            </Position>
            <AltitudeMeters>28</AltitudeMeters>
            <DistanceMeters>NAN</DistanceMeters>
          </Trackpoint>
          <Trackpoint>
            <Time>2022-07-05T08:33:06.000Z</Time>
            <Position>
              <LatitudeDegrees>44.46433813311159610748291015625</LatitudeDegrees>
              <LongitudeDegrees>-1.2407582066953182220458984375</LongitudeDegrees>
            </Position>
            <AltitudeMeters>27.799999237060546875</AltitudeMeters>
            <DistanceMeters>NAN</DistanceMeters>
          </Trackpoint>
          <Trackpoint>
            <Time>2022-07-05T08:33:09.000Z</Time>
            <Position>
              <LatitudeDegrees>44.4642064534127712249755859375</LatitudeDegrees>
              <LongitudeDegrees>-1.24080439098179340362548828125</LongitudeDegrees>
            </Position>
            <AltitudeMeters>27.6000003814697265625</AltitudeMeters>
            <DistanceMeters>NAN</DistanceMeters>
          </Trackpoint>
          <Trackpoint>
            <Time>2022-07-05T08:33:11.000Z</Time>
            <Position>
              <LatitudeDegrees>44.464170075953006744384765625</LatitudeDegrees>
              <LongitudeDegrees>-1.24083339236676692962646484375</LongitudeDegrees>
            </Position>
            <AltitudeMeters>27.6000003814697265625</AltitudeMeters>
            <DistanceMeters>NAN</DistanceMeters>
          </Trackpoint>
          <Trackpoint>
            <Time>2022-07-05T08:33:12.000Z</Time>
            <Position>
              <LatitudeDegrees>44.46410737931728363037109375</LatitudeDegrees>
              <LongitudeDegrees>-1.24090262688696384429931640625</LongitudeDegrees>
            </Position>
            <AltitudeMeters>27.3999996185302734375</AltitudeMeters>
            <DistanceMeters>NAN</DistanceMeters>
          </Trackpoint>
          <Trackpoint>
            <Time>2022-07-05T08:33:15.000Z</Time>
            <Position>
              <LatitudeDegrees>44.46404376067221164703369140625</LatitudeDegrees>
              <LongitudeDegrees>-1.24101611785590648651123046875</LongitudeDegrees>
            </Position>
            <AltitudeMeters>27.3999996185302734375</AltitudeMeters>
            <DistanceMeters>NAN</DistanceMeters>
          </Trackpoint>
          <Trackpoint>
            <Time>2022-07-05T08:33:20.000Z</Time>
            <Position>
              <LatitudeDegrees>44.4639684073626995086669921875</LatitudeDegrees>
              <LongitudeDegrees>-1.24122248031198978424072265625</LongitudeDegrees>
            </Position>
            <AltitudeMeters>27.200000762939453125</AltitudeMeters>
            <DistanceMeters>NAN</DistanceMeters>
          </Trackpoint>
          <Trackpoint>
            <Time>2022-07-05T08:33:26.000Z</Time>
            <Position>
              <LatitudeDegrees>44.463964216411113739013671875</LatitudeDegrees>
              <LongitudeDegrees>-1.24148382805287837982177734375</LongitudeDegrees>
            </Position>
            <AltitudeMeters>27.200000762939453125</AltitudeMeters>
            <DistanceMeters>NAN</DistanceMeters>
          </Trackpoint>
          <Trackpoint>
            <Time>2022-07-05T08:33:33.000Z</Time>
            <Position>
              <LatitudeDegrees>44.46394485421478748321533203125</LatitudeDegrees>
              <LongitudeDegrees>-1.24179638922214508056640625</LongitudeDegrees>
            </Position>
            <AltitudeMeters>27.6000003814697265625</AltitudeMeters>
            <DistanceMeters>NAN</DistanceMeters>
          </Trackpoint>
          <Trackpoint>
            <Time>2022-07-05T08:33:39.000Z</Time>
            <Position>
              <LatitudeDegrees>44.46383069269359111785888671875</LatitudeDegrees>
              <LongitudeDegrees>-1.24195790849626064300537109375</LongitudeDegrees>
            </Position>
            <AltitudeMeters>27.200000762939453125</AltitudeMeters>
            <DistanceMeters>NAN</DistanceMeters>
          </Trackpoint>
          <Trackpoint>
            <Time>2022-07-05T08:33:47.000Z</Time>
            <Position>
              <LatitudeDegrees>44.46361460722982883453369140625</LatitudeDegrees>
              <LongitudeDegrees>-1.2421432323753833770751953125</LongitudeDegrees>
            </Position>
            <AltitudeMeters>27.3999996185302734375</AltitudeMeters>
            <DistanceMeters>NAN</DistanceMeters>
          </Trackpoint>
          <Trackpoint>
            <Time>2022-07-05T08:33:54.000Z</Time>
            <Position>
              <LatitudeDegrees>44.4634027965366840362548828125</LatitudeDegrees>
              <LongitudeDegrees>-1.24226041138172149658203125</LongitudeDegrees>
            </Position>
            <AltitudeMeters>27.6000003814697265625</AltitudeMeters>
            <DistanceMeters>NAN</DistanceMeters>
          </Trackpoint>
          <Trackpoint>
            <Time>2022-07-05T08:34:01.000Z</Time>
            <Position>
              <LatitudeDegrees>44.4631902314722537994384765625</LatitudeDegrees>
              <LongitudeDegrees>-1.24233475886285305023193359375</LongitudeDegrees>
            </Position>
            <AltitudeMeters>28</AltitudeMeters>
            <DistanceMeters>NAN</DistanceMeters>
          </Trackpoint>
          <Trackpoint>
            <Time>2022-07-05T08:34:08.000Z</Time>
            <Position>
              <LatitudeDegrees>44.46298495866358280181884765625</LatitudeDegrees>
              <LongitudeDegrees>-1.24237499199807643890380859375</LongitudeDegrees>
            </Position>
            <AltitudeMeters>28.200000762939453125</AltitudeMeters>
            <DistanceMeters>NAN</DistanceMeters>
          </Trackpoint>
          <Trackpoint>
            <Time>2022-07-05T08:34:10.000Z</Time>
            <Position>
              <LatitudeDegrees>44.46292645297944545745849609375</LatitudeDegrees>
              <LongitudeDegrees>-1.2423876486718654632568359375</LongitudeDegrees>
            </Position>
            <AltitudeMeters>28.200000762939453125</AltitudeMeters>
            <DistanceMeters>NAN</DistanceMeters>
          </Trackpoint>
          <Trackpoint>
            <Time>2022-07-05T08:34:17.000Z</Time>
            <Position>
              <LatitudeDegrees>44.462693519890308380126953125</LatitudeDegrees>
              <LongitudeDegrees>-1.2424436397850513458251953125</LongitudeDegrees>
            </Position>
            <AltitudeMeters>28.200000762939453125</AltitudeMeters>
            <DistanceMeters>NAN</DistanceMeters>
          </Trackpoint>
          <Trackpoint>
            <Time>2022-07-05T08:34:20.000Z</Time>
            <Position>
              <LatitudeDegrees>44.462573826313018798828125</LatitudeDegrees>
              <LongitudeDegrees>-1.24249510467052459716796875</LongitudeDegrees>
            </Position>
            <AltitudeMeters>28</AltitudeMeters>
            <DistanceMeters>NAN</DistanceMeters>
          </Trackpoint>
          <Trackpoint>
            <Time>2022-07-05T08:34:23.000Z</Time>
            <Position>
              <LatitudeDegrees>44.46243636310100555419921875</LatitudeDegrees>
              <LongitudeDegrees>-1.24252938665449619293212890625</LongitudeDegrees>
            </Position>
            <AltitudeMeters>27.3999996185302734375</AltitudeMeters>
            <DistanceMeters>NAN</DistanceMeters>
          </Trackpoint>
          <Trackpoint>
            <Time>2022-07-05T08:34:29.000Z</Time>
            <Position>
              <LatitudeDegrees>44.46222287602722644805908203125</LatitudeDegrees>
              <LongitudeDegrees>-1.24257347546517848968505859375</LongitudeDegrees>
            </Position>
            <AltitudeMeters>27.3999996185302734375</AltitudeMeters>
            <DistanceMeters>NAN</DistanceMeters>
          </Trackpoint>
          <Trackpoint>
            <Time>2022-07-05T08:34:36.000Z</Time>
            <Position>
              <LatitudeDegrees>44.4620060361921787261962890625</LatitudeDegrees>
              <LongitudeDegrees>-1.24262829311192035675048828125</LongitudeDegrees>
            </Position>
            <AltitudeMeters>27.799999237060546875</AltitudeMeters>
            <DistanceMeters>NAN</DistanceMeters>
          </Trackpoint>
          <Trackpoint>
            <Time>2022-07-05T08:34:47.000Z</Time>
            <Position>
              <LatitudeDegrees>44.46167235262691974639892578125</LatitudeDegrees>
              <LongitudeDegrees>-1.2427450530230998992919921875</LongitudeDegrees>
            </Position>
            <AltitudeMeters>28.3999996185302734375</AltitudeMeters>
            <DistanceMeters>NAN</DistanceMeters>
          </Trackpoint>
          <Trackpoint>
            <Time>2022-07-05T08:34:53.000Z</Time>
            <Position>
              <LatitudeDegrees>44.46151661686599254608154296875</LatitudeDegrees>
              <LongitudeDegrees>-1.242851503193378448486328125</LongitudeDegrees>
            </Position>
            <AltitudeMeters>28.799999237060546875</AltitudeMeters>
            <DistanceMeters>NAN</DistanceMeters>
          </Trackpoint>
          <Trackpoint>
            <Time>2022-07-05T08:34:57.000Z</Time>
            <Position>
              <LatitudeDegrees>44.4614030420780181884765625</LatitudeDegrees>
              <LongitudeDegrees>-1.2429455481469631195068359375</LongitudeDegrees>
            </Position>
            <AltitudeMeters>28.799999237060546875</AltitudeMeters>
            <DistanceMeters>NAN</DistanceMeters>
          </Trackpoint>
          <Trackpoint>
            <Time>2022-07-05T08:34:59.000Z</Time>
            <Position>
              <LatitudeDegrees>44.4613505713641643524169921875</LatitudeDegrees>
              <LongitudeDegrees>-1.242980249226093292236328125</LongitudeDegrees>
            </Position>
            <AltitudeMeters>28.799999237060546875</AltitudeMeters>
            <DistanceMeters>NAN</DistanceMeters>
          </Trackpoint>
          <Trackpoint>
            <Time>2022-07-05T08:35:06.000Z</Time>
            <Position>
              <LatitudeDegrees>44.461149238049983978271484375</LatitudeDegrees>
              <LongitudeDegrees>-1.24310103245079517364501953125</LongitudeDegrees>
            </Position>
            <AltitudeMeters>28.6000003814697265625</AltitudeMeters>
            <DistanceMeters>NAN</DistanceMeters>
          </Trackpoint>
          <Trackpoint>
            <Time>2022-07-05T08:35:07.000Z</Time>
            <Position>
              <LatitudeDegrees>44.46108377538621425628662109375</LatitudeDegrees>
              <LongitudeDegrees>-1.2431634776294231414794921875</LongitudeDegrees>
            </Position>
            <AltitudeMeters>28.6000003814697265625</AltitudeMeters>
            <DistanceMeters>NAN</DistanceMeters>
          </Trackpoint>
          <Trackpoint>
            <Time>2022-07-05T08:35:13.000Z</Time>
            <Position>
              <LatitudeDegrees>44.4608788378536701202392578125</LatitudeDegrees>
              <LongitudeDegrees>-1.243318878114223480224609375</LongitudeDegrees>
            </Position>
            <AltitudeMeters>28.6000003814697265625</AltitudeMeters>
            <DistanceMeters>NAN</DistanceMeters>
          </Trackpoint>
          <Trackpoint>
            <Time>2022-07-05T08:35:19.000Z</Time>
            <Position>
              <LatitudeDegrees>44.460683204233646392822265625</LatitudeDegrees>
              <LongitudeDegrees>-1.24341233633458614349365234375</LongitudeDegrees>
            </Position>
            <AltitudeMeters>28.3999996185302734375</AltitudeMeters>
            <DistanceMeters>NAN</DistanceMeters>
          </Trackpoint>
          <Trackpoint>
            <Time>2022-07-05T08:35:25.000Z</Time>
            <Position>
              <LatitudeDegrees>44.4604949466884136199951171875</LatitudeDegrees>
              <LongitudeDegrees>-1.24365474097430706024169921875</LongitudeDegrees>
            </Position>
            <AltitudeMeters>28.3999996185302734375</AltitudeMeters>
            <DistanceMeters>NAN</DistanceMeters>
          </Trackpoint>
          <Trackpoint>
            <Time>2022-07-05T08:35:30.000Z</Time>
            <Position>
              <LatitudeDegrees>44.4603269733488559722900390625</LatitudeDegrees>
              <LongitudeDegrees>-1.24381734989583492279052734375</LongitudeDegrees>
            </Position>
            <AltitudeMeters>28.3999996185302734375</AltitudeMeters>
            <DistanceMeters>NAN</DistanceMeters>
          </Trackpoint>
          <Trackpoint>
            <Time>2022-07-05T08:35:31.000Z</Time>
            <Position>
              <LatitudeDegrees>44.460292272269725799560546875</LatitudeDegrees>
              <LongitudeDegrees>-1.243850626051425933837890625</LongitudeDegrees>
            </Position>
            <AltitudeMeters>28.3999996185302734375</AltitudeMeters>
            <DistanceMeters>NAN</DistanceMeters>
          </Trackpoint>
          <Trackpoint>
            <Time>2022-07-05T08:35:32.000Z</Time>
            <Position>
              <LatitudeDegrees>44.4602532126009464263916015625</LatitudeDegrees>
              <LongitudeDegrees>-1.2438829801976680755615234375</LongitudeDegrees>
            </Position>
            <AltitudeMeters>28.3999996185302734375</AltitudeMeters>
            <DistanceMeters>NAN</DistanceMeters>
          </Trackpoint>
          <Trackpoint>
            <Time>2022-07-05T08:35:38.000Z</Time>
            <Position>
              <LatitudeDegrees>44.46004576049745082855224609375</LatitudeDegrees>
              <LongitudeDegrees>-1.24401097185909748077392578125</LongitudeDegrees>
            </Position>
            <AltitudeMeters>28.3999996185302734375</AltitudeMeters>
            <DistanceMeters>NAN</DistanceMeters>
          </Trackpoint>
          <Trackpoint>
            <Time>2022-07-05T08:35:43.000Z</Time>
            <Position>
              <LatitudeDegrees>44.45985473692417144775390625</LatitudeDegrees>
              <LongitudeDegrees>-1.244149021804332733154296875</LongitudeDegrees>
            </Position>
            <AltitudeMeters>28.200000762939453125</AltitudeMeters>
            <DistanceMeters>NAN</DistanceMeters>
          </Trackpoint>
          <Trackpoint>
            <Time>2022-07-05T08:35:48.000Z</Time>
            <Position>
              <LatitudeDegrees>44.45970989763736724853515625</LatitudeDegrees>
              <LongitudeDegrees>-1.244349181652069091796875</LongitudeDegrees>
            </Position>
            <AltitudeMeters>28.200000762939453125</AltitudeMeters>
            <DistanceMeters>NAN</DistanceMeters>
          </Trackpoint>
          <Trackpoint>
            <Time>2022-07-05T08:35:53.000Z</Time>
            <Position>
              <LatitudeDegrees>44.4595363922417163848876953125</LatitudeDegrees>
              <LongitudeDegrees>-1.2445374391973018646240234375</LongitudeDegrees>
            </Position>
            <AltitudeMeters>28.200000762939453125</AltitudeMeters>
            <DistanceMeters>NAN</DistanceMeters>
          </Trackpoint>
          <Trackpoint>
            <Time>2022-07-05T08:35:56.000Z</Time>
            <Position>
              <LatitudeDegrees>44.4594421796500682830810546875</LatitudeDegrees>
              <LongitudeDegrees>-1.244606673717498779296875</LongitudeDegrees>
            </Position>
            <AltitudeMeters>28</AltitudeMeters>
            <DistanceMeters>NAN</DistanceMeters>
          </Trackpoint>
          <Trackpoint>
            <Time>2022-07-05T08:35:58.000Z</Time>
            <Position>
              <LatitudeDegrees>44.45939767174422740936279296875</LatitudeDegrees>
              <LongitudeDegrees>-1.24465671367943286895751953125</LongitudeDegrees>
            </Position>
            <AltitudeMeters>28</AltitudeMeters>
            <DistanceMeters>NAN</DistanceMeters>
          </Trackpoint>
          <Trackpoint>
            <Time>2022-07-05T08:36:05.000Z</Time>
            <Position>
              <LatitudeDegrees>44.4591853581368923187255859375</LatitudeDegrees>
              <LongitudeDegrees>-1.24471890740096569061279296875</LongitudeDegrees>
            </Position>
            <AltitudeMeters>28</AltitudeMeters>
            <DistanceMeters>NAN</DistanceMeters>
          </Trackpoint>
          <Trackpoint>
            <Time>2022-07-05T08:36:13.000Z</Time>
            <Position>
              <LatitudeDegrees>44.45896700955927371978759765625</LatitudeDegrees>
              <LongitudeDegrees>-1.244733743369579315185546875</LongitudeDegrees>
            </Position>
            <AltitudeMeters>27.799999237060546875</AltitudeMeters>
            <DistanceMeters>NAN</DistanceMeters>
          </Trackpoint>
          <Trackpoint>
            <Time>2022-07-05T08:36:18.000Z</Time>
            <Position>
              <LatitudeDegrees>44.4588725455105304718017578125</LatitudeDegrees>
              <LongitudeDegrees>-1.24464883469045162200927734375</LongitudeDegrees>
            </Position>
            <AltitudeMeters>28</AltitudeMeters>
            <DistanceMeters>NAN</DistanceMeters>
          </Trackpoint>
          <Trackpoint>
            <Time>2022-07-05T08:36:25.000Z</Time>
            <Position>
              <LatitudeDegrees>44.45869727991521358489990234375</LatitudeDegrees>
              <LongitudeDegrees>-1.244466193020343780517578125</LongitudeDegrees>
            </Position>
            <AltitudeMeters>28.200000762939453125</AltitudeMeters>
            <DistanceMeters>NAN</DistanceMeters>
          </Trackpoint>
          <Trackpoint>
            <Time>2022-07-05T08:36:30.000Z</Time>
            <Position>
              <LatitudeDegrees>44.4586123712360858917236328125</LatitudeDegrees>
              <LongitudeDegrees>-1.24435513280332088470458984375</LongitudeDegrees>
            </Position>
            <AltitudeMeters>28.3999996185302734375</AltitudeMeters>
            <DistanceMeters>NAN</DistanceMeters>
          </Trackpoint>
          <Trackpoint>
            <Time>2022-07-05T08:36:35.000Z</Time>
            <Position>
              <LatitudeDegrees>44.45846577174961566925048828125</LatitudeDegrees>
              <LongitudeDegrees>-1.24416603706777095794677734375</LongitudeDegrees>
            </Position>
            <AltitudeMeters>28.3999996185302734375</AltitudeMeters>
            <DistanceMeters>NAN</DistanceMeters>
          </Trackpoint>
          <Trackpoint>
            <Time>2022-07-05T08:36:36.000Z</Time>
            <Position>
              <LatitudeDegrees>44.4584383629262447357177734375</LatitudeDegrees>
              <LongitudeDegrees>-1.2441374547779560089111328125</LongitudeDegrees>
            </Position>
            <AltitudeMeters>28.6000003814697265625</AltitudeMeters>
            <DistanceMeters>NAN</DistanceMeters>
          </Trackpoint>
          <Trackpoint>
            <Time>2022-07-05T08:36:41.000Z</Time>
            <Position>
              <LatitudeDegrees>44.4583511911332607269287109375</LatitudeDegrees>
              <LongitudeDegrees>-1.24397568404674530029296875</LongitudeDegrees>
            </Position>
            <AltitudeMeters>28.6000003814697265625</AltitudeMeters>
            <DistanceMeters>NAN</DistanceMeters>
          </Trackpoint>
          <Trackpoint>
            <Time>2022-07-05T08:36:45.000Z</Time>
            <Position>
              <LatitudeDegrees>44.4582677073776721954345703125</LatitudeDegrees>
              <LongitudeDegrees>-1.24385640956461429595947265625</LongitudeDegrees>
            </Position>
            <AltitudeMeters>28.6000003814697265625</AltitudeMeters>
            <DistanceMeters>NAN</DistanceMeters>
          </Trackpoint>
          <Trackpoint>
            <Time>2022-07-05T08:36:51.000Z</Time>
            <Position>
              <LatitudeDegrees>44.4581862352788448333740234375</LatitudeDegrees>
              <LongitudeDegrees>-1.2436714209616184234619140625</LongitudeDegrees>
            </Position>
            <AltitudeMeters>28.799999237060546875</AltitudeMeters>
            <DistanceMeters>NAN</DistanceMeters>
          </Trackpoint>
          <Trackpoint>
            <Time>2022-07-05T08:36:57.000Z</Time>
            <Position>
              <LatitudeDegrees>44.458129741251468658447265625</LatitudeDegrees>
              <LongitudeDegrees>-1.2434531562030315399169921875</LongitudeDegrees>
            </Position>
            <AltitudeMeters>29</AltitudeMeters>
            <DistanceMeters>NAN</DistanceMeters>
          </Trackpoint>
          <Trackpoint>
            <Time>2022-07-05T08:37:03.000Z</Time>
            <Position>
              <LatitudeDegrees>44.458116330206394195556640625</LatitudeDegrees>
              <LongitudeDegrees>-1.2432060576975345611572265625</LongitudeDegrees>
            </Position>
            <AltitudeMeters>29</AltitudeMeters>
            <DistanceMeters>NAN</DistanceMeters>
          </Trackpoint>
          <Trackpoint>
            <Time>2022-07-05T08:37:09.000Z</Time>
            <Position>
              <LatitudeDegrees>44.4580826349556446075439453125</LatitudeDegrees>
              <LongitudeDegrees>-1.242950744926929473876953125</LongitudeDegrees>
            </Position>
            <AltitudeMeters>29.200000762939453125</AltitudeMeters>
            <DistanceMeters>NAN</DistanceMeters>
          </Trackpoint>
          <Trackpoint>
            <Time>2022-07-05T08:37:10.000Z</Time>
            <Position>
              <LatitudeDegrees>44.45807567797601222991943359375</LatitudeDegrees>
              <LongitudeDegrees>-1.24291411601006984710693359375</LongitudeDegrees>
            </Position>
            <AltitudeMeters>29.200000762939453125</AltitudeMeters>
            <DistanceMeters>NAN</DistanceMeters>
          </Trackpoint>
          <Trackpoint>
            <Time>2022-07-05T08:37:11.000Z</Time>
            <Position>
              <LatitudeDegrees>44.45805765688419342041015625</LatitudeDegrees>
              <LongitudeDegrees>-1.242879666388034820556640625</LongitudeDegrees>
            </Position>
            <AltitudeMeters>29.200000762939453125</AltitudeMeters>
            <DistanceMeters>NAN</DistanceMeters>
          </Trackpoint>
          <Trackpoint>
            <Time>2022-07-05T08:37:14.000Z</Time>
            <Position>
              <LatitudeDegrees>44.457975514233112335205078125</LatitudeDegrees>
              <LongitudeDegrees>-1.242745220661163330078125</LongitudeDegrees>
            </Position>
            <AltitudeMeters>29.200000762939453125</AltitudeMeters>
            <DistanceMeters>NAN</DistanceMeters>
          </Trackpoint>
          <Trackpoint>
            <Time>2022-07-05T08:37:16.000Z</Time>
            <Position>
              <LatitudeDegrees>44.45791491307318210601806640625</LatitudeDegrees>
              <LongitudeDegrees>-1.2426607310771942138671875</LongitudeDegrees>
            </Position>
            <AltitudeMeters>29.3999996185302734375</AltitudeMeters>
            <DistanceMeters>NAN</DistanceMeters>
          </Trackpoint>
          <Trackpoint>
            <Time>2022-07-05T08:37:20.000Z</Time>
            <Position>
              <LatitudeDegrees>44.4578144140541553497314453125</LatitudeDegrees>
              <LongitudeDegrees>-1.24244439415633678436279296875</LongitudeDegrees>
            </Position>
            <AltitudeMeters>29.3999996185302734375</AltitudeMeters>
            <DistanceMeters>NAN</DistanceMeters>
          </Trackpoint>
          <Trackpoint>
            <Time>2022-07-05T08:37:28.000Z</Time>
            <Position>
              <LatitudeDegrees>44.45767150260508060455322265625</LatitudeDegrees>
              <LongitudeDegrees>-1.24212370254099369049072265625</LongitudeDegrees>
            </Position>
            <AltitudeMeters>29.6000003814697265625</AltitudeMeters>
            <DistanceMeters>NAN</DistanceMeters>
          </Trackpoint>
          <Trackpoint>
            <Time>2022-07-05T08:37:31.000Z</Time>
            <Position>
              <LatitudeDegrees>44.45762045681476593017578125</LatitudeDegrees>
              <LongitudeDegrees>-1.2420118041336536407470703125</LongitudeDegrees>
            </Position>
            <AltitudeMeters>29.799999237060546875</AltitudeMeters>
            <DistanceMeters>NAN</DistanceMeters>
          </Trackpoint>
          <Trackpoint>
            <Time>2022-07-05T08:37:34.000Z</Time>
            <Position>
              <LatitudeDegrees>44.4575663097202777862548828125</LatitudeDegrees>
              <LongitudeDegrees>-1.2419085390865802764892578125</LongitudeDegrees>
            </Position>
            <AltitudeMeters>29.799999237060546875</AltitudeMeters>
            <DistanceMeters>NAN</DistanceMeters>
          </Trackpoint>
          <Trackpoint>
            <Time>2022-07-05T08:37:36.000Z</Time>
            <Position>
              <LatitudeDegrees>44.45753118954598903656005859375</LatitudeDegrees>
              <LongitudeDegrees>-1.24183804728090763092041015625</LongitudeDegrees>
            </Position>
            <AltitudeMeters>29.799999237060546875</AltitudeMeters>
            <DistanceMeters>NAN</DistanceMeters>
          </Trackpoint>
          <Trackpoint>
            <Time>2022-07-05T08:37:38.000Z</Time>
            <Position>
              <LatitudeDegrees>44.457494728267192840576171875</LatitudeDegrees>
              <LongitudeDegrees>-1.24176495708525180816650390625</LongitudeDegrees>
            </Position>
            <AltitudeMeters>30</AltitudeMeters>
            <DistanceMeters>NAN</DistanceMeters>
          </Trackpoint>
          <Trackpoint>
            <Time>2022-07-05T08:37:40.000Z</Time>
            <Position>
              <LatitudeDegrees>44.457460530102252960205078125</LatitudeDegrees>
              <LongitudeDegrees>-1.241690777242183685302734375</LongitudeDegrees>
            </Position>
            <AltitudeMeters>29.799999237060546875</AltitudeMeters>
            <DistanceMeters>NAN</DistanceMeters>
          </Trackpoint>
          <Trackpoint>
            <Time>2022-07-05T08:37:45.000Z</Time>
            <Position>
              <LatitudeDegrees>44.45736874826252460479736328125</LatitudeDegrees>
              <LongitudeDegrees>-1.24155842699110507965087890625</LongitudeDegrees>
            </Position>
            <AltitudeMeters>29.799999237060546875</AltitudeMeters>
            <DistanceMeters>NAN</DistanceMeters>
          </Trackpoint>
          <Trackpoint>
            <Time>2022-07-05T08:37:48.000Z</Time>
            <Position>
              <LatitudeDegrees>44.4573202170431613922119140625</LatitudeDegrees>
              <LongitudeDegrees>-1.24150176532566547393798828125</LongitudeDegrees>
            </Position>
            <AltitudeMeters>29.799999237060546875</AltitudeMeters>
            <DistanceMeters>NAN</DistanceMeters>
          </Trackpoint>
          <Trackpoint>
            <Time>2022-07-05T08:37:50.000Z</Time>
            <Position>
              <LatitudeDegrees>44.45727981626987457275390625</LatitudeDegrees>
              <LongitudeDegrees>-1.2414797209203243255615234375</LongitudeDegrees>
            </Position>
            <AltitudeMeters>29.799999237060546875</AltitudeMeters>
            <DistanceMeters>NAN</DistanceMeters>
          </Trackpoint>
          <Trackpoint>
            <Time>2022-07-05T08:37:57.000Z</Time>
            <Position>
              <LatitudeDegrees>44.45709466002881526947021484375</LatitudeDegrees>
              <LongitudeDegrees>-1.24138240702450275421142578125</LongitudeDegrees>
            </Position>
            <AltitudeMeters>30.3999996185302734375</AltitudeMeters>
            <DistanceMeters>NAN</DistanceMeters>
          </Trackpoint>
          <Trackpoint>
            <Time>2022-07-05T08:37:58.000Z</Time>
            <Position>
              <LatitudeDegrees>44.4570674188435077667236328125</LatitudeDegrees>
              <LongitudeDegrees>-1.24137335456907749176025390625</LongitudeDegrees>
            </Position>
            <AltitudeMeters>30.3999996185302734375</AltitudeMeters>
            <DistanceMeters>NAN</DistanceMeters>
          </Trackpoint>
          <Trackpoint>
            <Time>2022-07-05T08:38:03.000Z</Time>
            <Position>
              <LatitudeDegrees>44.45694596506655216217041015625</LatitudeDegrees>
              <LongitudeDegrees>-1.24130713753402233123779296875</LongitudeDegrees>
            </Position>
            <AltitudeMeters>30.6000003814697265625</AltitudeMeters>
            <DistanceMeters>NAN</DistanceMeters>
          </Trackpoint>
          <Trackpoint>
            <Time>2022-07-05T08:38:04.000Z</Time>
            <Position>
              <LatitudeDegrees>44.4569235853850841522216796875</LatitudeDegrees>
              <LongitudeDegrees>-1.24128811061382293701171875</LongitudeDegrees>
            </Position>
            <AltitudeMeters>30.6000003814697265625</AltitudeMeters>
            <DistanceMeters>NAN</DistanceMeters>
          </Trackpoint>
          <Trackpoint>
            <Time>2022-07-05T08:38:09.000Z</Time>
            <Position>
              <LatitudeDegrees>44.45684152655303478240966796875</LatitudeDegrees>
              <LongitudeDegrees>-1.24121929518878459930419921875</LongitudeDegrees>
            </Position>
            <AltitudeMeters>30.3999996185302734375</AltitudeMeters>
            <DistanceMeters>NAN</DistanceMeters>
          </Trackpoint>
          <Trackpoint>
            <Time>2022-07-05T08:38:17.000Z</Time>
            <Position>
              <LatitudeDegrees>44.45664413273334503173828125</LatitudeDegrees>
              <LongitudeDegrees>-1.2411119230091571807861328125</LongitudeDegrees>
            </Position>
            <AltitudeMeters>30</AltitudeMeters>
            <DistanceMeters>NAN</DistanceMeters>
          </Trackpoint>
          <Trackpoint>
            <Time>2022-07-05T08:38:22.000Z</Time>
            <Position>
              <LatitudeDegrees>44.4565028138458728790283203125</LatitudeDegrees>
              <LongitudeDegrees>-1.241185851395130157470703125</LongitudeDegrees>
            </Position>
            <AltitudeMeters>29.799999237060546875</AltitudeMeters>
            <DistanceMeters>NAN</DistanceMeters>
          </Trackpoint>
          <Trackpoint>
            <Time>2022-07-05T08:38:31.000Z</Time>
            <Position>
              <LatitudeDegrees>44.4562389515340328216552734375</LatitudeDegrees>
              <LongitudeDegrees>-1.241318285465240478515625</LongitudeDegrees>
            </Position>
            <AltitudeMeters>29.6000003814697265625</AltitudeMeters>
            <DistanceMeters>NAN</DistanceMeters>
          </Trackpoint>
          <Trackpoint>
            <Time>2022-07-05T08:38:33.000Z</Time>
            <Position>
              <LatitudeDegrees>44.456200897693634033203125</LatitudeDegrees>
              <LongitudeDegrees>-1.24138106591999530792236328125</LongitudeDegrees>
            </Position>
            <AltitudeMeters>29.3999996185302734375</AltitudeMeters>
            <DistanceMeters>NAN</DistanceMeters>
          </Trackpoint>
          <Trackpoint>
            <Time>2022-07-05T08:38:35.000Z</Time>
            <Position>
              <LatitudeDegrees>44.45619125850498676300048828125</LatitudeDegrees>
              <LongitudeDegrees>-1.24147661961615085601806640625</LongitudeDegrees>
            </Position>
            <AltitudeMeters>29.6000003814697265625</AltitudeMeters>
            <DistanceMeters>NAN</DistanceMeters>
          </Trackpoint>
          <Trackpoint>
            <Time>2022-07-05T08:38:42.000Z</Time>
            <Position>
              <LatitudeDegrees>44.45615353994071483612060546875</LatitudeDegrees>
              <LongitudeDegrees>-1.24172757379710674285888671875</LongitudeDegrees>
            </Position>
            <AltitudeMeters>29.3999996185302734375</AltitudeMeters>
            <DistanceMeters>NAN</DistanceMeters>
          </Trackpoint>
          <Trackpoint>
            <Time>2022-07-05T08:38:47.000Z</Time>
            <Position>
              <LatitudeDegrees>44.45611950941383838653564453125</LatitudeDegrees>
              <LongitudeDegrees>-1.241838298738002777099609375</LongitudeDegrees>
            </Position>
            <AltitudeMeters>29</AltitudeMeters>
            <DistanceMeters>NAN</DistanceMeters>
          </Trackpoint>
          <Trackpoint>
            <Time>2022-07-05T08:38:51.000Z</Time>
            <Position>
              <LatitudeDegrees>44.45609486661851406097412109375</LatitudeDegrees>
              <LongitudeDegrees>-1.24191599898040294647216796875</LongitudeDegrees>
            </Position>
            <AltitudeMeters>28.799999237060546875</AltitudeMeters>
            <DistanceMeters>NAN</DistanceMeters>
          </Trackpoint>
          <Trackpoint>
            <Time>2022-07-05T08:38:53.000Z</Time>
            <Position>
              <LatitudeDegrees>44.45609486661851406097412109375</LatitudeDegrees>
              <LongitudeDegrees>-1.24191599898040294647216796875</LongitudeDegrees>
            </Position>
            <AltitudeMeters>28.799999237060546875</AltitudeMeters>
            <DistanceMeters>NAN</DistanceMeters>
          </Trackpoint>
          <Trackpoint>
            <Time>2022-07-05T08:58:32.000Z</Time>
            <Position>
              <LatitudeDegrees>44.4559519551694393157958984375</LatitudeDegrees>
              <LongitudeDegrees>-1.242064945399761199951171875</LongitudeDegrees>
            </Position>
            <AltitudeMeters>28</AltitudeMeters>
            <DistanceMeters>NAN</DistanceMeters>
          </Trackpoint>
          <Trackpoint>
            <Time>2022-07-05T08:58:33.000Z</Time>
            <Position>
              <LatitudeDegrees>44.45593871176242828369140625</LatitudeDegrees>
              <LongitudeDegrees>-1.2420339323580265045166015625</LongitudeDegrees>
            </Position>
            <AltitudeMeters>28</AltitudeMeters>
            <DistanceMeters>NAN</DistanceMeters>
          </Trackpoint>
          <Trackpoint>
            <Time>2022-07-05T08:58:34.000Z</Time>
            <Position>
              <LatitudeDegrees>44.4559197686612606048583984375</LatitudeDegrees>
              <LongitudeDegrees>-1.2419997341930866241455078125</LongitudeDegrees>
            </Position>
            <AltitudeMeters>28</AltitudeMeters>
            <DistanceMeters>NAN</DistanceMeters>
          </Trackpoint>
          <Trackpoint>
            <Time>2022-07-05T08:58:42.000Z</Time>
            <Position>
              <LatitudeDegrees>44.4558792002499103546142578125</LatitudeDegrees>
              <LongitudeDegrees>-1.24174517579376697540283203125</LongitudeDegrees>
            </Position>
            <AltitudeMeters>28</AltitudeMeters>
            <DistanceMeters>NAN</DistanceMeters>
          </Trackpoint>
          <Trackpoint>
            <Time>2022-07-05T08:58:44.000Z</Time>
            <Position>
              <LatitudeDegrees>44.45586587302386760711669921875</LatitudeDegrees>
              <LongitudeDegrees>-1.24169672839343547821044921875</LongitudeDegrees>
            </Position>
            <AltitudeMeters>28</AltitudeMeters>
            <DistanceMeters>NAN</DistanceMeters>
          </Trackpoint>
          <Trackpoint>
            <Time>2022-07-05T08:58:50.000Z</Time>
            <Position>
              <LatitudeDegrees>44.45582195185124874114990234375</LatitudeDegrees>
              <LongitudeDegrees>-1.24160385690629482269287109375</LongitudeDegrees>
            </Position>
            <AltitudeMeters>27.799999237060546875</AltitudeMeters>
            <DistanceMeters>NAN</DistanceMeters>
          </Trackpoint>
          <Trackpoint>
            <Time>2022-07-05T08:58:52.000Z</Time>
            <Position>
              <LatitudeDegrees>44.45577065460383892059326171875</LatitudeDegrees>
              <LongitudeDegrees>-1.24158508144319057464599609375</LongitudeDegrees>
            </Position>
            <AltitudeMeters>28</AltitudeMeters>
            <DistanceMeters>NAN</DistanceMeters>
          </Trackpoint>
          <Trackpoint>
            <Time>2022-07-05T08:58:55.000Z</Time>
            <Position>
              <LatitudeDegrees>44.45570058189332485198974609375</LatitudeDegrees>
              <LongitudeDegrees>-1.24159664846956729888916015625</LongitudeDegrees>
            </Position>
            <AltitudeMeters>28</AltitudeMeters>
            <DistanceMeters>NAN</DistanceMeters>
          </Trackpoint>
          <Trackpoint>
            <Time>2022-07-05T08:58:58.000Z</Time>
            <Position>
              <LatitudeDegrees>44.4556123204529285430908203125</LatitudeDegrees>
              <LongitudeDegrees>-1.2416389770805835723876953125</LongitudeDegrees>
            </Position>
            <AltitudeMeters>28</AltitudeMeters>
            <DistanceMeters>NAN</DistanceMeters>
          </Trackpoint>
          <Trackpoint>
            <Time>2022-07-05T08:59:03.000Z</Time>
            <Position>
              <LatitudeDegrees>44.45547075010836124420166015625</LatitudeDegrees>
              <LongitudeDegrees>-1.24168968759477138519287109375</LongitudeDegrees>
            </Position>
            <AltitudeMeters>27.799999237060546875</AltitudeMeters>
            <DistanceMeters>NAN</DistanceMeters>
          </Trackpoint>
          <Trackpoint>
            <Time>2022-07-05T08:59:10.000Z</Time>
            <Position>
              <LatitudeDegrees>44.45526706986129283905029296875</LatitudeDegrees>
              <LongitudeDegrees>-1.2416785396635532379150390625</LongitudeDegrees>
            </Position>
            <AltitudeMeters>28</AltitudeMeters>
            <DistanceMeters>NAN</DistanceMeters>
          </Trackpoint>
          <Trackpoint>
            <Time>2022-07-05T08:59:21.000Z</Time>
            <Position>
              <LatitudeDegrees>44.45496766828000545501708984375</LatitudeDegrees>
              <LongitudeDegrees>-1.24181449413299560546875</LongitudeDegrees>
            </Position>
            <AltitudeMeters>27.3999996185302734375</AltitudeMeters>
            <DistanceMeters>NAN</DistanceMeters>
          </Trackpoint>
          <Trackpoint>
            <Time>2022-07-05T08:59:30.000Z</Time>
            <Position>
              <LatitudeDegrees>44.45466441102325916290283203125</LatitudeDegrees>
              <LongitudeDegrees>-1.2419729121029376983642578125</LongitudeDegrees>
            </Position>
            <AltitudeMeters>27.3999996185302734375</AltitudeMeters>
            <DistanceMeters>NAN</DistanceMeters>
          </Trackpoint>
          <Trackpoint>
            <Time>2022-07-05T08:59:37.000Z</Time>
            <Position>
              <LatitudeDegrees>44.45444514043629169464111328125</LatitudeDegrees>
              <LongitudeDegrees>-1.24208472669124603271484375</LongitudeDegrees>
            </Position>
            <AltitudeMeters>27</AltitudeMeters>
            <DistanceMeters>NAN</DistanceMeters>
          </Trackpoint>
          <Trackpoint>
            <Time>2022-07-05T08:59:41.000Z</Time>
            <Position>
              <LatitudeDegrees>44.4543570466339588165283203125</LatitudeDegrees>
              <LongitudeDegrees>-1.24212672002613544464111328125</LongitudeDegrees>
            </Position>
            <AltitudeMeters>26.799999237060546875</AltitudeMeters>
            <DistanceMeters>NAN</DistanceMeters>
          </Trackpoint>
          <Trackpoint>
            <Time>2022-07-05T08:59:48.000Z</Time>
            <Position>
              <LatitudeDegrees>44.454118497669696807861328125</LatitudeDegrees>
              <LongitudeDegrees>-1.24224574305117130279541015625</LongitudeDegrees>
            </Position>
            <AltitudeMeters>26.200000762939453125</AltitudeMeters>
            <DistanceMeters>NAN</DistanceMeters>
          </Trackpoint>
          <Trackpoint>
            <Time>2022-07-05T08:59:49.000Z</Time>
            <Position>
              <LatitudeDegrees>44.45408823899924755096435546875</LatitudeDegrees>
              <LongitudeDegrees>-1.24225848354399204254150390625</LongitudeDegrees>
            </Position>
            <AltitudeMeters>26.200000762939453125</AltitudeMeters>
            <DistanceMeters>NAN</DistanceMeters>
          </Trackpoint>
          <Trackpoint>
            <Time>2022-07-05T08:59:55.000Z</Time>
            <Position>
              <LatitudeDegrees>44.45389796979725360870361328125</LatitudeDegrees>
              <LongitudeDegrees>-1.24234263785183429718017578125</LongitudeDegrees>
            </Position>
            <AltitudeMeters>26</AltitudeMeters>
            <DistanceMeters>NAN</DistanceMeters>
          </Trackpoint>
          <Trackpoint>
            <Time>2022-07-05T08:59:59.000Z</Time>
            <Position>
              <LatitudeDegrees>44.45379386655986309051513671875</LatitudeDegrees>
              <LongitudeDegrees>-1.24241438694298267364501953125</LongitudeDegrees>
            </Position>
            <AltitudeMeters>26</AltitudeMeters>
            <DistanceMeters>NAN</DistanceMeters>
          </Trackpoint>
          <Trackpoint>
            <Time>2022-07-05T09:00:00.000Z</Time>
            <Position>
              <LatitudeDegrees>44.45378045551478862762451171875</LatitudeDegrees>
              <LongitudeDegrees>-1.24244146049022674560546875</LongitudeDegrees>
            </Position>
            <AltitudeMeters>26</AltitudeMeters>
            <DistanceMeters>NAN</DistanceMeters>
          </Trackpoint>
          <Trackpoint>
            <Time>2022-07-05T09:00:01.000Z</Time>
            <Position>
              <LatitudeDegrees>44.45377140305936336517333984375</LatitudeDegrees>
              <LongitudeDegrees>-1.24247767031192779541015625</LongitudeDegrees>
            </Position>
            <AltitudeMeters>26</AltitudeMeters>
            <DistanceMeters>NAN</DistanceMeters>
          </Trackpoint>
          <Trackpoint>
            <Time>2022-07-05T09:00:02.000Z</Time>
            <Position>
              <LatitudeDegrees>44.4537609256803989410400390625</LatitudeDegrees>
              <LongitudeDegrees>-1.24251128174364566802978515625</LongitudeDegrees>
            </Position>
            <AltitudeMeters>26</AltitudeMeters>
            <DistanceMeters>NAN</DistanceMeters>
          </Trackpoint>
          <Trackpoint>
            <Time>2022-07-05T09:00:06.000Z</Time>
            <Position>
              <LatitudeDegrees>44.4536744244396686553955078125</LatitudeDegrees>
              <LongitudeDegrees>-1.24259828589856624603271484375</LongitudeDegrees>
            </Position>
            <AltitudeMeters>25.6000003814697265625</AltitudeMeters>
            <DistanceMeters>NAN</DistanceMeters>
          </Trackpoint>
          <Trackpoint>
            <Time>2022-07-05T09:00:07.000Z</Time>
            <Position>
              <LatitudeDegrees>44.4536554813385009765625</LatitudeDegrees>
              <LongitudeDegrees>-1.24262209050357341766357421875</LongitudeDegrees>
            </Position>
            <AltitudeMeters>25.6000003814697265625</AltitudeMeters>
            <DistanceMeters>NAN</DistanceMeters>
          </Trackpoint>
          <Trackpoint>
            <Time>2022-07-05T09:00:13.000Z</Time>
            <Position>
              <LatitudeDegrees>44.45356093347072601318359375</LatitudeDegrees>
              <LongitudeDegrees>-1.24287086538970470428466796875</LongitudeDegrees>
            </Position>
            <AltitudeMeters>25.6000003814697265625</AltitudeMeters>
            <DistanceMeters>NAN</DistanceMeters>
          </Trackpoint>
          <Trackpoint>
            <Time>2022-07-05T09:00:19.000Z</Time>
            <Position>
              <LatitudeDegrees>44.453551881015300750732421875</LatitudeDegrees>
              <LongitudeDegrees>-1.24316029250621795654296875</LongitudeDegrees>
            </Position>
            <AltitudeMeters>25.799999237060546875</AltitudeMeters>
            <DistanceMeters>NAN</DistanceMeters>
          </Trackpoint>
          <Trackpoint>
            <Time>2022-07-05T09:00:28.000Z</Time>
            <Position>
              <LatitudeDegrees>44.453632347285747528076171875</LatitudeDegrees>
              <LongitudeDegrees>-1.2435805611312389373779296875</LongitudeDegrees>
            </Position>
            <AltitudeMeters>25.3999996185302734375</AltitudeMeters>
            <DistanceMeters>NAN</DistanceMeters>
          </Trackpoint>
          <Trackpoint>
            <Time>2022-07-05T09:00:31.000Z</Time>
            <Position>
              <LatitudeDegrees>44.4536492787301540374755859375</LatitudeDegrees>
              <LongitudeDegrees>-1.2437121570110321044921875</LongitudeDegrees>
            </Position>
            <AltitudeMeters>25.200000762939453125</AltitudeMeters>
            <DistanceMeters>NAN</DistanceMeters>
          </Trackpoint>
          <Trackpoint>
            <Time>2022-07-05T09:00:36.000Z</Time>
            <Position>
              <LatitudeDegrees>44.4536593370139598846435546875</LatitudeDegrees>
              <LongitudeDegrees>-1.2439160048961639404296875</LongitudeDegrees>
            </Position>
            <AltitudeMeters>25.200000762939453125</AltitudeMeters>
            <DistanceMeters>NAN</DistanceMeters>
          </Trackpoint>
          <Trackpoint>
            <Time>2022-07-05T09:00:42.000Z</Time>
            <Position>
              <LatitudeDegrees>44.453688673675060272216796875</LatitudeDegrees>
              <LongitudeDegrees>-1.2441736645996570587158203125</LongitudeDegrees>
            </Position>
            <AltitudeMeters>25</AltitudeMeters>
            <DistanceMeters>NAN</DistanceMeters>
          </Trackpoint>
          <Trackpoint>
            <Time>2022-07-05T09:00:43.000Z</Time>
            <Position>
              <LatitudeDegrees>44.45369102060794830322265625</LatitudeDegrees>
              <LongitudeDegrees>-1.2442125566303730010986328125</LongitudeDegrees>
            </Position>
            <AltitudeMeters>25</AltitudeMeters>
            <DistanceMeters>NAN</DistanceMeters>
          </Trackpoint>
          <Trackpoint>
            <Time>2022-07-05T09:00:44.000Z</Time>
            <Position>
              <LatitudeDegrees>44.45369102060794830322265625</LatitudeDegrees>
              <LongitudeDegrees>-1.2442125566303730010986328125</LongitudeDegrees>
            </Position>
            <AltitudeMeters>25</AltitudeMeters>
            <DistanceMeters>NAN</DistanceMeters>
          </Trackpoint>
          <Trackpoint>
            <Time>2022-07-05T09:00:48.000Z</Time>
            <Position>
              <LatitudeDegrees>44.4537049345672130584716796875</LatitudeDegrees>
              <LongitudeDegrees>-1.24438203871250152587890625</LongitudeDegrees>
            </Position>
            <AltitudeMeters>24.799999237060546875</AltitudeMeters>
            <DistanceMeters>NAN</DistanceMeters>
          </Trackpoint>
          <Trackpoint>
            <Time>2022-07-05T09:00:50.000Z</Time>
            <Position>
              <LatitudeDegrees>44.45371088571846485137939453125</LatitudeDegrees>
              <LongitudeDegrees>-1.24445219524204730987548828125</LongitudeDegrees>
            </Position>
            <AltitudeMeters>24.799999237060546875</AltitudeMeters>
            <DistanceMeters>NAN</DistanceMeters>
          </Trackpoint>
          <Trackpoint>
            <Time>2022-07-05T09:00:58.000Z</Time>
            <Position>
              <LatitudeDegrees>44.45370334200561046600341796875</LatitudeDegrees>
              <LongitudeDegrees>-1.2448009662330150604248046875</LongitudeDegrees>
            </Position>
            <AltitudeMeters>25</AltitudeMeters>
            <DistanceMeters>NAN</DistanceMeters>
          </Trackpoint>
          <Trackpoint>
            <Time>2022-07-05T09:00:59.000Z</Time>
            <Position>
              <LatitudeDegrees>44.45370418019592761993408203125</LatitudeDegrees>
              <LongitudeDegrees>-1.24484597705304622650146484375</LongitudeDegrees>
            </Position>
            <AltitudeMeters>25</AltitudeMeters>
            <DistanceMeters>NAN</DistanceMeters>
          </Trackpoint>
          <Trackpoint>
            <Time>2022-07-05T09:01:02.000Z</Time>
            <Position>
              <LatitudeDegrees>44.45369395427405834197998046875</LatitudeDegrees>
              <LongitudeDegrees>-1.24498092569410800933837890625</LongitudeDegrees>
            </Position>
            <AltitudeMeters>25</AltitudeMeters>
            <DistanceMeters>NAN</DistanceMeters>
          </Trackpoint>
          <Trackpoint>
            <Time>2022-07-05T09:01:05.000Z</Time>
            <Position>
              <LatitudeDegrees>44.45368171669542789459228515625</LatitudeDegrees>
              <LongitudeDegrees>-1.24511470086872577667236328125</LongitudeDegrees>
            </Position>
            <AltitudeMeters>25</AltitudeMeters>
            <DistanceMeters>NAN</DistanceMeters>
          </Trackpoint>
          <Trackpoint>
            <Time>2022-07-05T09:01:11.000Z</Time>
            <Position>
              <LatitudeDegrees>44.453665204346179962158203125</LatitudeDegrees>
              <LongitudeDegrees>-1.2453665770590305328369140625</LongitudeDegrees>
            </Position>
            <AltitudeMeters>25.200000762939453125</AltitudeMeters>
            <DistanceMeters>NAN</DistanceMeters>
          </Trackpoint>
          <Trackpoint>
            <Time>2022-07-05T09:01:13.000Z</Time>
            <Position>
              <LatitudeDegrees>44.45365858264267444610595703125</LatitudeDegrees>
              <LongitudeDegrees>-1.24544687569141387939453125</LongitudeDegrees>
            </Position>
            <AltitudeMeters>25</AltitudeMeters>
            <DistanceMeters>NAN</DistanceMeters>
          </Trackpoint>
          <Trackpoint>
            <Time>2022-07-05T09:01:17.000Z</Time>
            <Position>
              <LatitudeDegrees>44.45359320379793643951416015625</LatitudeDegrees>
              <LongitudeDegrees>-1.2455855123698711395263671875</LongitudeDegrees>
            </Position>
            <AltitudeMeters>25</AltitudeMeters>
            <DistanceMeters>NAN</DistanceMeters>
          </Trackpoint>
          <Trackpoint>
            <Time>2022-07-05T09:01:18.000Z</Time>
            <Position>
              <LatitudeDegrees>44.4535736739635467529296875</LatitudeDegrees>
              <LongitudeDegrees>-1.24561912380158901214599609375</LongitudeDegrees>
            </Position>
            <AltitudeMeters>25</AltitudeMeters>
            <DistanceMeters>NAN</DistanceMeters>
          </Trackpoint>
          <Trackpoint>
            <Time>2022-07-05T09:01:24.000Z</Time>
            <Position>
              <LatitudeDegrees>44.45347753353416919708251953125</LatitudeDegrees>
              <LongitudeDegrees>-1.24585582874715328216552734375</LongitudeDegrees>
            </Position>
            <AltitudeMeters>25.200000762939453125</AltitudeMeters>
            <DistanceMeters>NAN</DistanceMeters>
          </Trackpoint>
          <Trackpoint>
            <Time>2022-07-05T09:01:25.000Z</Time>
            <Position>
              <LatitudeDegrees>44.45347912609577178955078125</LatitudeDegrees>
              <LongitudeDegrees>-1.24591215513646602630615234375</LongitudeDegrees>
            </Position>
            <AltitudeMeters>25.200000762939453125</AltitudeMeters>
            <DistanceMeters>NAN</DistanceMeters>
          </Trackpoint>
          <Trackpoint>
            <Time>2022-07-05T09:01:33.000Z</Time>
            <Position>
              <LatitudeDegrees>44.4535802118480205535888671875</LatitudeDegrees>
              <LongitudeDegrees>-1.24630677513778209686279296875</LongitudeDegrees>
            </Position>
            <AltitudeMeters>25.3999996185302734375</AltitudeMeters>
            <DistanceMeters>NAN</DistanceMeters>
          </Trackpoint>
          <Trackpoint>
            <Time>2022-07-05T09:01:48.000Z</Time>
            <Position>
              <LatitudeDegrees>44.45376352407038211822509765625</LatitudeDegrees>
              <LongitudeDegrees>-1.2470225058495998382568359375</LongitudeDegrees>
            </Position>
            <AltitudeMeters>25.200000762939453125</AltitudeMeters>
            <DistanceMeters>NAN</DistanceMeters>
          </Trackpoint>
          <Trackpoint>
            <Time>2022-07-05T09:01:59.000Z</Time>
            <Position>
              <LatitudeDegrees>44.45389428175985813140869140625</LatitudeDegrees>
              <LongitudeDegrees>-1.2475304491817951202392578125</LongitudeDegrees>
            </Position>
            <AltitudeMeters>24.799999237060546875</AltitudeMeters>
            <DistanceMeters>NAN</DistanceMeters>
          </Trackpoint>
          <Trackpoint>
            <Time>2022-07-05T09:02:04.000Z</Time>
            <Position>
              <LatitudeDegrees>44.45396703667938709259033203125</LatitudeDegrees>
              <LongitudeDegrees>-1.24773236922919750213623046875</LongitudeDegrees>
            </Position>
            <AltitudeMeters>24.200000762939453125</AltitudeMeters>
            <DistanceMeters>NAN</DistanceMeters>
          </Trackpoint>
          <Trackpoint>
            <Time>2022-07-05T09:02:07.000Z</Time>
            <Position>
              <LatitudeDegrees>44.45399352349340915679931640625</LatitudeDegrees>
              <LongitudeDegrees>-1.24783781357109546661376953125</LongitudeDegrees>
            </Position>
            <AltitudeMeters>24.799999237060546875</AltitudeMeters>
            <DistanceMeters>NAN</DistanceMeters>
          </Trackpoint>
          <Trackpoint>
            <Time>2022-07-05T09:02:09.000Z</Time>
            <Position>
              <LatitudeDegrees>44.45398078300058841705322265625</LatitudeDegrees>
              <LongitudeDegrees>-1.24791375361382961273193359375</LongitudeDegrees>
            </Position>
            <AltitudeMeters>24.799999237060546875</AltitudeMeters>
            <DistanceMeters>NAN</DistanceMeters>
          </Trackpoint>
          <Trackpoint>
            <Time>2022-07-05T09:02:11.000Z</Time>
            <Position>
              <LatitudeDegrees>44.4539384543895721435546875</LatitudeDegrees>
              <LongitudeDegrees>-1.2479629553854465484619140625</LongitudeDegrees>
            </Position>
            <AltitudeMeters>24.3999996185302734375</AltitudeMeters>
            <DistanceMeters>NAN</DistanceMeters>
          </Trackpoint>
          <Trackpoint>
            <Time>2022-07-05T09:02:20.000Z</Time>
            <Position>
              <LatitudeDegrees>44.4537159986793994903564453125</LatitudeDegrees>
              <LongitudeDegrees>-1.24822036363184452056884765625</LongitudeDegrees>
            </Position>
            <AltitudeMeters>24.3999996185302734375</AltitudeMeters>
            <DistanceMeters>NAN</DistanceMeters>
          </Trackpoint>
          <Trackpoint>
            <Time>2022-07-05T09:02:29.000Z</Time>
            <Position>
              <LatitudeDegrees>44.45354157127439975738525390625</LatitudeDegrees>
              <LongitudeDegrees>-1.2484863214194774627685546875</LongitudeDegrees>
            </Position>
            <AltitudeMeters>24</AltitudeMeters>
            <DistanceMeters>NAN</DistanceMeters>
          </Trackpoint>
          <Trackpoint>
            <Time>2022-07-05T09:02:31.000Z</Time>
            <Position>
              <LatitudeDegrees>44.4535389728844165802001953125</LatitudeDegrees>
              <LongitudeDegrees>-1.2484933622181415557861328125</LongitudeDegrees>
            </Position>
            <AltitudeMeters>24</AltitudeMeters>
            <DistanceMeters>NAN</DistanceMeters>
          </Trackpoint>
          <Trackpoint>
            <Time>2022-07-05T09:02:32.000Z</Time>
            <Position>
              <LatitudeDegrees>44.4535389728844165802001953125</LatitudeDegrees>
              <LongitudeDegrees>-1.2484933622181415557861328125</LongitudeDegrees>
            </Position>
            <AltitudeMeters>23.799999237060546875</AltitudeMeters>
            <DistanceMeters>NAN</DistanceMeters>
          </Trackpoint>
          <Trackpoint>
            <Time>2022-07-05T09:04:59.000Z</Time>
            <Position>
              <LatitudeDegrees>44.453518688678741455078125</LatitudeDegrees>
              <LongitudeDegrees>-1.2485312484204769134521484375</LongitudeDegrees>
            </Position>
            <AltitudeMeters>23.6000003814697265625</AltitudeMeters>
            <DistanceMeters>NAN</DistanceMeters>
          </Trackpoint>
          <Trackpoint>
            <Time>2022-07-05T09:05:04.000Z</Time>
            <Position>
              <LatitudeDegrees>44.4534222967922687530517578125</LatitudeDegrees>
              <LongitudeDegrees>-1.2486878223717212677001953125</LongitudeDegrees>
            </Position>
            <AltitudeMeters>23.6000003814697265625</AltitudeMeters>
            <DistanceMeters>NAN</DistanceMeters>
          </Trackpoint>
          <Trackpoint>
            <Time>2022-07-05T09:05:11.000Z</Time>
            <Position>
              <LatitudeDegrees>44.45324619300663471221923828125</LatitudeDegrees>
              <LongitudeDegrees>-1.24896568246185779571533203125</LongitudeDegrees>
            </Position>
            <AltitudeMeters>24</AltitudeMeters>
            <DistanceMeters>NAN</DistanceMeters>
          </Trackpoint>
          <Trackpoint>
            <Time>2022-07-05T09:05:14.000Z</Time>
            <Position>
              <LatitudeDegrees>44.45318064652383327484130859375</LatitudeDegrees>
              <LongitudeDegrees>-1.24908034689724445343017578125</LongitudeDegrees>
            </Position>
            <AltitudeMeters>23.799999237060546875</AltitudeMeters>
            <DistanceMeters>NAN</DistanceMeters>
          </Trackpoint>
          <Trackpoint>
            <Time>2022-07-05T09:05:22.000Z</Time>
            <Position>
              <LatitudeDegrees>44.45296338759362697601318359375</LatitudeDegrees>
              <LongitudeDegrees>-1.2494204007089138031005859375</LongitudeDegrees>
            </Position>
            <AltitudeMeters>23.6000003814697265625</AltitudeMeters>
            <DistanceMeters>NAN</DistanceMeters>
          </Trackpoint>
          <Trackpoint>
            <Time>2022-07-05T09:05:24.000Z</Time>
            <Position>
              <LatitudeDegrees>44.45290739648044109344482421875</LatitudeDegrees>
              <LongitudeDegrees>-1.24950581230223178863525390625</LongitudeDegrees>
            </Position>
            <AltitudeMeters>23.6000003814697265625</AltitudeMeters>
            <DistanceMeters>NAN</DistanceMeters>
          </Trackpoint>
          <Trackpoint>
            <Time>2022-07-05T09:05:30.000Z</Time>
            <Position>
              <LatitudeDegrees>44.45274713449180126190185546875</LatitudeDegrees>
              <LongitudeDegrees>-1.24975928105413913726806640625</LongitudeDegrees>
            </Position>
            <AltitudeMeters>23.3999996185302734375</AltitudeMeters>
            <DistanceMeters>NAN</DistanceMeters>
          </Trackpoint>
          <Trackpoint>
            <Time>2022-07-05T09:05:35.000Z</Time>
            <Position>
              <LatitudeDegrees>44.45259391330182552337646484375</LatitudeDegrees>
              <LongitudeDegrees>-1.2499628774821758270263671875</LongitudeDegrees>
            </Position>
            <AltitudeMeters>23.200000762939453125</AltitudeMeters>
            <DistanceMeters>NAN</DistanceMeters>
          </Trackpoint>
          <Trackpoint>
            <Time>2022-07-05T09:05:37.000Z</Time>
            <Position>
              <LatitudeDegrees>44.452537335455417633056640625</LatitudeDegrees>
              <LongitudeDegrees>-1.25005600042641162872314453125</LongitudeDegrees>
            </Position>
            <AltitudeMeters>23</AltitudeMeters>
            <DistanceMeters>NAN</DistanceMeters>
          </Trackpoint>
          <Trackpoint>
            <Time>2022-07-05T09:05:38.000Z</Time>
            <Position>
              <LatitudeDegrees>44.4525056518614292144775390625</LatitudeDegrees>
              <LongitudeDegrees>-1.25010495074093341827392578125</LongitudeDegrees>
            </Position>
            <AltitudeMeters>23</AltitudeMeters>
            <DistanceMeters>NAN</DistanceMeters>
          </Trackpoint>
          <Trackpoint>
            <Time>2022-07-05T09:05:42.000Z</Time>
            <Position>
              <LatitudeDegrees>44.45239484310150146484375</LatitudeDegrees>
              <LongitudeDegrees>-1.25029136426746845245361328125</LongitudeDegrees>
            </Position>
            <AltitudeMeters>23</AltitudeMeters>
            <DistanceMeters>NAN</DistanceMeters>
          </Trackpoint>
          <Trackpoint>
            <Time>2022-07-05T09:05:46.000Z</Time>
            <Position>
              <LatitudeDegrees>44.4522907398641109466552734375</LatitudeDegrees>
              <LongitudeDegrees>-1.25045590102672576904296875</LongitudeDegrees>
            </Position>
            <AltitudeMeters>23</AltitudeMeters>
            <DistanceMeters>NAN</DistanceMeters>
          </Trackpoint>
          <Trackpoint>
            <Time>2022-07-05T09:05:52.000Z</Time>
            <Position>
              <LatitudeDegrees>44.4521251134574413299560546875</LatitudeDegrees>
              <LongitudeDegrees>-1.250692941248416900634765625</LongitudeDegrees>
            </Position>
            <AltitudeMeters>23</AltitudeMeters>
            <DistanceMeters>NAN</DistanceMeters>
          </Trackpoint>
          <Trackpoint>
            <Time>2022-07-05T09:05:55.000Z</Time>
            <Position>
              <LatitudeDegrees>44.45205629803240299224853515625</LatitudeDegrees>
              <LongitudeDegrees>-1.2508268840610980987548828125</LongitudeDegrees>
            </Position>
            <AltitudeMeters>22.799999237060546875</AltitudeMeters>
            <DistanceMeters>NAN</DistanceMeters>
          </Trackpoint>
          <Trackpoint>
            <Time>2022-07-05T09:05:57.000Z</Time>
            <Position>
              <LatitudeDegrees>44.4520074315369129180908203125</LatitudeDegrees>
              <LongitudeDegrees>-1.2509093619883060455322265625</LongitudeDegrees>
            </Position>
            <AltitudeMeters>22.6000003814697265625</AltitudeMeters>
            <DistanceMeters>NAN</DistanceMeters>
          </Trackpoint>
          <Trackpoint>
            <Time>2022-07-05T09:06:04.000Z</Time>
            <Position>
              <LatitudeDegrees>44.4518206827342510223388671875</LatitudeDegrees>
              <LongitudeDegrees>-1.251145564019680023193359375</LongitudeDegrees>
            </Position>
            <AltitudeMeters>22</AltitudeMeters>
            <DistanceMeters>NAN</DistanceMeters>
          </Trackpoint>
          <Trackpoint>
            <Time>2022-07-05T09:06:05.000Z</Time>
            <Position>
              <LatitudeDegrees>44.4517941959202289581298828125</LatitudeDegrees>
              <LongitudeDegrees>-1.2511661835014820098876953125</LongitudeDegrees>
            </Position>
            <AltitudeMeters>21.799999237060546875</AltitudeMeters>
            <DistanceMeters>NAN</DistanceMeters>
          </Trackpoint>
          <Trackpoint>
            <Time>2022-07-05T09:06:09.000Z</Time>
            <Position>
              <LatitudeDegrees>44.4516486860811710357666015625</LatitudeDegrees>
              <LongitudeDegrees>-1.25122762285172939300537109375</LongitudeDegrees>
            </Position>
            <AltitudeMeters>21.799999237060546875</AltitudeMeters>
            <DistanceMeters>NAN</DistanceMeters>
          </Trackpoint>
          <Trackpoint>
            <Time>2022-07-05T09:06:17.000Z</Time>
            <Position>
              <LatitudeDegrees>44.45138406939804553985595703125</LatitudeDegrees>
              <LongitudeDegrees>-1.251281015574932098388671875</LongitudeDegrees>
            </Position>
            <AltitudeMeters>21.3999996185302734375</AltitudeMeters>
            <DistanceMeters>NAN</DistanceMeters>
          </Trackpoint>
          <Trackpoint>
            <Time>2022-07-05T09:06:18.000Z</Time>
            <Position>
              <LatitudeDegrees>44.45136043243110179901123046875</LatitudeDegrees>
              <LongitudeDegrees>-1.25131261534988880157470703125</LongitudeDegrees>
            </Position>
            <AltitudeMeters>21.6000003814697265625</AltitudeMeters>
            <DistanceMeters>NAN</DistanceMeters>
          </Trackpoint>
          <Trackpoint>
            <Time>2022-07-05T09:06:20.000Z</Time>
            <Position>
              <LatitudeDegrees>44.45134182460606098175048828125</LatitudeDegrees>
              <LongitudeDegrees>-1.25139794312417507171630859375</LongitudeDegrees>
            </Position>
            <AltitudeMeters>21.799999237060546875</AltitudeMeters>
            <DistanceMeters>NAN</DistanceMeters>
          </Trackpoint>
          <Trackpoint>
            <Time>2022-07-05T09:06:21.000Z</Time>
            <Position>
              <LatitudeDegrees>44.451337046921253204345703125</LatitudeDegrees>
              <LongitudeDegrees>-1.25144002027809619903564453125</LongitudeDegrees>
            </Position>
            <AltitudeMeters>21.799999237060546875</AltitudeMeters>
            <DistanceMeters>NAN</DistanceMeters>
          </Trackpoint>
          <Trackpoint>
            <Time>2022-07-05T09:06:24.000Z</Time>
            <Position>
              <LatitudeDegrees>44.451288767158985137939453125</LatitudeDegrees>
              <LongitudeDegrees>-1.251545213162899017333984375</LongitudeDegrees>
            </Position>
            <AltitudeMeters>21.799999237060546875</AltitudeMeters>
            <DistanceMeters>NAN</DistanceMeters>
          </Trackpoint>
          <Trackpoint>
            <Time>2022-07-05T09:06:25.000Z</Time>
            <Position>
              <LatitudeDegrees>44.45126638747751712799072265625</LatitudeDegrees>
              <LongitudeDegrees>-1.2515775673091411590576171875</LongitudeDegrees>
            </Position>
            <AltitudeMeters>21.799999237060546875</AltitudeMeters>
            <DistanceMeters>NAN</DistanceMeters>
          </Trackpoint>
          <Trackpoint>
            <Time>2022-07-05T09:06:28.000Z</Time>
            <Position>
              <LatitudeDegrees>44.45120687596499919891357421875</LatitudeDegrees>
              <LongitudeDegrees>-1.2516944110393524169921875</LongitudeDegrees>
            </Position>
            <AltitudeMeters>21.799999237060546875</AltitudeMeters>
            <DistanceMeters>NAN</DistanceMeters>
          </Trackpoint>
          <Trackpoint>
            <Time>2022-07-05T09:06:30.000Z</Time>
            <Position>
              <LatitudeDegrees>44.4512071274220943450927734375</LatitudeDegrees>
              <LongitudeDegrees>-1.25178786925971508026123046875</LongitudeDegrees>
            </Position>
            <AltitudeMeters>21.799999237060546875</AltitudeMeters>
            <DistanceMeters>NAN</DistanceMeters>
          </Trackpoint>
          <Trackpoint>
            <Time>2022-07-05T09:06:32.000Z</Time>
            <Position>
              <LatitudeDegrees>44.4511913694441318511962890625</LatitudeDegrees>
              <LongitudeDegrees>-1.25186867080628871917724609375</LongitudeDegrees>
            </Position>
            <AltitudeMeters>21.6000003814697265625</AltitudeMeters>
            <DistanceMeters>NAN</DistanceMeters>
          </Trackpoint>
          <Trackpoint>
            <Time>2022-07-05T09:06:35.000Z</Time>
            <Position>
              <LatitudeDegrees>44.451125152409076690673828125</LatitudeDegrees>
              <LongitudeDegrees>-1.2520000152289867401123046875</LongitudeDegrees>
            </Position>
            <AltitudeMeters>21.3999996185302734375</AltitudeMeters>
            <DistanceMeters>NAN</DistanceMeters>
          </Trackpoint>
          <Trackpoint>
            <Time>2022-07-05T09:06:36.000Z</Time>
            <Position>
              <LatitudeDegrees>44.451102353632450103759765625</LatitudeDegrees>
              <LongitudeDegrees>-1.25202943570911884307861328125</LongitudeDegrees>
            </Position>
            <AltitudeMeters>21.200000762939453125</AltitudeMeters>
            <DistanceMeters>NAN</DistanceMeters>
          </Trackpoint>
          <Trackpoint>
            <Time>2022-07-05T09:06:45.000Z</Time>
            <Position>
              <LatitudeDegrees>44.45089456625282764434814453125</LatitudeDegrees>
              <LongitudeDegrees>-1.25238935463130474090576171875</LongitudeDegrees>
            </Position>
            <AltitudeMeters>20.799999237060546875</AltitudeMeters>
            <DistanceMeters>NAN</DistanceMeters>
          </Trackpoint>
          <Trackpoint>
            <Time>2022-07-05T09:06:50.000Z</Time>
            <Position>
              <LatitudeDegrees>44.45077621378004550933837890625</LatitudeDegrees>
              <LongitudeDegrees>-1.25258079729974269866943359375</LongitudeDegrees>
            </Position>
            <AltitudeMeters>20.799999237060546875</AltitudeMeters>
            <DistanceMeters>NAN</DistanceMeters>
          </Trackpoint>
          <Trackpoint>
            <Time>2022-07-05T09:06:56.000Z</Time>
            <Position>
              <LatitudeDegrees>44.450654089450836181640625</LatitudeDegrees>
              <LongitudeDegrees>-1.252796463668346405029296875</LongitudeDegrees>
            </Position>
            <AltitudeMeters>20.799999237060546875</AltitudeMeters>
            <DistanceMeters>NAN</DistanceMeters>
          </Trackpoint>
          <Trackpoint>
            <Time>2022-07-05T09:07:06.000Z</Time>
            <Position>
              <LatitudeDegrees>44.4504779018461704254150390625</LatitudeDegrees>
              <LongitudeDegrees>-1.25311790965497493743896484375</LongitudeDegrees>
            </Position>
            <AltitudeMeters>20.799999237060546875</AltitudeMeters>
            <DistanceMeters>NAN</DistanceMeters>
          </Trackpoint>
          <Trackpoint>
            <Time>2022-07-05T09:07:15.000Z</Time>
            <Position>
              <LatitudeDegrees>44.45026709698140621185302734375</LatitudeDegrees>
              <LongitudeDegrees>-1.25346609391272068023681640625</LongitudeDegrees>
            </Position>
            <AltitudeMeters>20.6000003814697265625</AltitudeMeters>
            <DistanceMeters>NAN</DistanceMeters>
          </Trackpoint>
          <Trackpoint>
            <Time>2022-07-05T09:07:21.000Z</Time>
            <Position>
              <LatitudeDegrees>44.45011924020946025848388671875</LatitudeDegrees>
              <LongitudeDegrees>-1.25370715744793415069580078125</LongitudeDegrees>
            </Position>
            <AltitudeMeters>20.200000762939453125</AltitudeMeters>
            <DistanceMeters>NAN</DistanceMeters>
          </Trackpoint>
          <Trackpoint>
            <Time>2022-07-05T09:07:27.000Z</Time>
            <Position>
              <LatitudeDegrees>44.44997121579945087432861328125</LatitudeDegrees>
              <LongitudeDegrees>-1.253928355872631072998046875</LongitudeDegrees>
            </Position>
            <AltitudeMeters>20</AltitudeMeters>
            <DistanceMeters>NAN</DistanceMeters>
          </Trackpoint>
          <Trackpoint>
            <Time>2022-07-05T09:07:28.000Z</Time>
            <Position>
              <LatitudeDegrees>44.44994003511965274810791015625</LatitudeDegrees>
              <LongitudeDegrees>-1.2539402581751346588134765625</LongitudeDegrees>
            </Position>
            <AltitudeMeters>20.200000762939453125</AltitudeMeters>
            <DistanceMeters>NAN</DistanceMeters>
          </Trackpoint>
          <Trackpoint>
            <Time>2022-07-05T09:07:35.000Z</Time>
            <Position>
              <LatitudeDegrees>44.44968455471098423004150390625</LatitudeDegrees>
              <LongitudeDegrees>-1.25396247021853923797607421875</LongitudeDegrees>
            </Position>
            <AltitudeMeters>20.3999996185302734375</AltitudeMeters>
            <DistanceMeters>NAN</DistanceMeters>
          </Trackpoint>
          <Trackpoint>
            <Time>2022-07-05T09:07:37.000Z</Time>
            <Position>
              <LatitudeDegrees>44.449611715972423553466796875</LatitudeDegrees>
              <LongitudeDegrees>-1.25396532006561756134033203125</LongitudeDegrees>
            </Position>
            <AltitudeMeters>20.3999996185302734375</AltitudeMeters>
            <DistanceMeters>NAN</DistanceMeters>
          </Trackpoint>
          <Trackpoint>
            <Time>2022-07-05T09:07:47.000Z</Time>
            <Position>
              <LatitudeDegrees>44.44926462136209011077880859375</LatitudeDegrees>
              <LongitudeDegrees>-1.25400085933506488800048828125</LongitudeDegrees>
            </Position>
            <AltitudeMeters>20</AltitudeMeters>
            <DistanceMeters>NAN</DistanceMeters>
          </Trackpoint>
          <Trackpoint>
            <Time>2022-07-05T09:07:52.000Z</Time>
            <Position>
              <LatitudeDegrees>44.449132271111011505126953125</LatitudeDegrees>
              <LongitudeDegrees>-1.25412625260651111602783203125</LongitudeDegrees>
            </Position>
            <AltitudeMeters>20</AltitudeMeters>
            <DistanceMeters>NAN</DistanceMeters>
          </Trackpoint>
          <Trackpoint>
            <Time>2022-07-05T09:07:59.000Z</Time>
            <Position>
              <LatitudeDegrees>44.44904367439448833465576171875</LatitudeDegrees>
              <LongitudeDegrees>-1.2542855925858020782470703125</LongitudeDegrees>
            </Position>
            <AltitudeMeters>20.6000003814697265625</AltitudeMeters>
            <DistanceMeters>NAN</DistanceMeters>
          </Trackpoint>
          <Trackpoint>
            <Time>2022-07-05T09:08:04.000Z</Time>
            <Position>
              <LatitudeDegrees>44.44896840490400791168212890625</LatitudeDegrees>
              <LongitudeDegrees>-1.25430889427661895751953125</LongitudeDegrees>
            </Position>
            <AltitudeMeters>20.799999237060546875</AltitudeMeters>
            <DistanceMeters>NAN</DistanceMeters>
          </Trackpoint>
          <Trackpoint>
            <Time>2022-07-05T09:08:06.000Z</Time>
            <Position>
              <LatitudeDegrees>44.44896840490400791168212890625</LatitudeDegrees>
              <LongitudeDegrees>-1.25430889427661895751953125</LongitudeDegrees>
            </Position>
            <AltitudeMeters>20.799999237060546875</AltitudeMeters>
            <DistanceMeters>NAN</DistanceMeters>
          </Trackpoint>
          <Trackpoint>
            <Time>2022-07-05T09:08:15.000Z</Time>
            <Position>
              <LatitudeDegrees>44.44891476072371006011962890625</LatitudeDegrees>
              <LongitudeDegrees>-1.25431157648563385009765625</LongitudeDegrees>
            </Position>
            <AltitudeMeters>20.6000003814697265625</AltitudeMeters>
            <DistanceMeters>NAN</DistanceMeters>
          </Trackpoint>
          <Trackpoint>
            <Time>2022-07-05T09:08:16.000Z</Time>
            <Position>
              <LatitudeDegrees>44.44891476072371006011962890625</LatitudeDegrees>
              <LongitudeDegrees>-1.25431157648563385009765625</LongitudeDegrees>
            </Position>
            <AltitudeMeters>20.6000003814697265625</AltitudeMeters>
            <DistanceMeters>NAN</DistanceMeters>
          </Trackpoint>
          <Trackpoint>
            <Time>2022-07-05T09:08:21.000Z</Time>
            <Position>
              <LatitudeDegrees>44.44880613125860691070556640625</LatitudeDegrees>
              <LongitudeDegrees>-1.254338733851909637451171875</LongitudeDegrees>
            </Position>
            <AltitudeMeters>20.3999996185302734375</AltitudeMeters>
            <DistanceMeters>NAN</DistanceMeters>
          </Trackpoint>
          <Trackpoint>
            <Time>2022-07-05T09:08:26.000Z</Time>
            <Position>
              <LatitudeDegrees>44.44861485622823238372802734375</LatitudeDegrees>
              <LongitudeDegrees>-1.25435491092503070831298828125</LongitudeDegrees>
            </Position>
            <AltitudeMeters>20</AltitudeMeters>
            <DistanceMeters>NAN</DistanceMeters>
          </Trackpoint>
          <Trackpoint>
            <Time>2022-07-05T09:08:28.000Z</Time>
            <Position>
              <LatitudeDegrees>44.44851611740887165069580078125</LatitudeDegrees>
              <LongitudeDegrees>-1.25436161644756793975830078125</LongitudeDegrees>
            </Position>
            <AltitudeMeters>19.799999237060546875</AltitudeMeters>
            <DistanceMeters>NAN</DistanceMeters>
          </Trackpoint>
          <Trackpoint>
            <Time>2022-07-05T09:08:34.000Z</Time>
            <Position>
              <LatitudeDegrees>44.4482620619237422943115234375</LatitudeDegrees>
              <LongitudeDegrees>-1.2543908692896366119384765625</LongitudeDegrees>
            </Position>
            <AltitudeMeters>19.3999996185302734375</AltitudeMeters>
            <DistanceMeters>NAN</DistanceMeters>
          </Trackpoint>
          <Trackpoint>
            <Time>2022-07-05T09:08:45.000Z</Time>
            <Position>
              <LatitudeDegrees>44.44783098064363002777099609375</LatitudeDegrees>
              <LongitudeDegrees>-1.25444023869931697845458984375</LongitudeDegrees>
            </Position>
            <AltitudeMeters>18.799999237060546875</AltitudeMeters>
            <DistanceMeters>NAN</DistanceMeters>
          </Trackpoint>
          <Trackpoint>
            <Time>2022-07-05T09:08:46.000Z</Time>
            <Position>
              <LatitudeDegrees>44.44778990931808948516845703125</LatitudeDegrees>
              <LongitudeDegrees>-1.25444359146058559417724609375</LongitudeDegrees>
            </Position>
            <AltitudeMeters>18.799999237060546875</AltitudeMeters>
            <DistanceMeters>NAN</DistanceMeters>
          </Trackpoint>
          <Trackpoint>
            <Time>2022-07-05T09:08:53.000Z</Time>
            <Position>
              <LatitudeDegrees>44.44753107614815235137939453125</LatitudeDegrees>
              <LongitudeDegrees>-1.25447426922619342803955078125</LongitudeDegrees>
            </Position>
            <AltitudeMeters>18.3999996185302734375</AltitudeMeters>
            <DistanceMeters>NAN</DistanceMeters>
          </Trackpoint>
          <Trackpoint>
            <Time>2022-07-05T09:09:00.000Z</Time>
            <Position>
              <LatitudeDegrees>44.4473455846309661865234375</LatitudeDegrees>
              <LongitudeDegrees>-1.25449237413704395294189453125</LongitudeDegrees>
            </Position>
            <AltitudeMeters>18.200000762939453125</AltitudeMeters>
            <DistanceMeters>NAN</DistanceMeters>
          </Trackpoint>
          <Trackpoint>
            <Time>2022-07-05T09:09:04.000Z</Time>
            <Position>
              <LatitudeDegrees>44.44717249833047389984130859375</LatitudeDegrees>
              <LongitudeDegrees>-1.25451676547527313232421875</LongitudeDegrees>
            </Position>
            <AltitudeMeters>18.200000762939453125</AltitudeMeters>
            <DistanceMeters>NAN</DistanceMeters>
          </Trackpoint>
          <Trackpoint>
            <Time>2022-07-05T09:09:12.000Z</Time>
            <Position>
              <LatitudeDegrees>44.44689027965068817138671875</LatitudeDegrees>
              <LongitudeDegrees>-1.254555322229862213134765625</LongitudeDegrees>
            </Position>
            <AltitudeMeters>17.799999237060546875</AltitudeMeters>
            <DistanceMeters>NAN</DistanceMeters>
          </Trackpoint>
          <Trackpoint>
            <Time>2022-07-05T09:09:15.000Z</Time>
            <Position>
              <LatitudeDegrees>44.44679212756454944610595703125</LatitudeDegrees>
              <LongitudeDegrees>-1.254558674991130828857421875</LongitudeDegrees>
            </Position>
            <AltitudeMeters>17.6000003814697265625</AltitudeMeters>
            <DistanceMeters>NAN</DistanceMeters>
          </Trackpoint>
          <Trackpoint>
            <Time>2022-07-05T09:09:21.000Z</Time>
            <Position>
              <LatitudeDegrees>44.44657973013818264007568359375</LatitudeDegrees>
              <LongitudeDegrees>-1.25457552261650562286376953125</LongitudeDegrees>
            </Position>
            <AltitudeMeters>17.3999996185302734375</AltitudeMeters>
            <DistanceMeters>NAN</DistanceMeters>
          </Trackpoint>
          <Trackpoint>
            <Time>2022-07-05T09:09:32.000Z</Time>
            <Position>
              <LatitudeDegrees>44.44619600661098957061767578125</LatitudeDegrees>
              <LongitudeDegrees>-1.2546148337423801422119140625</LongitudeDegrees>
            </Position>
            <AltitudeMeters>17.200000762939453125</AltitudeMeters>
            <DistanceMeters>NAN</DistanceMeters>
          </Trackpoint>
          <Trackpoint>
            <Time>2022-07-05T09:09:44.000Z</Time>
            <Position>
              <LatitudeDegrees>44.44584363140165805816650390625</LatitudeDegrees>
              <LongitudeDegrees>-1.2546342797577381134033203125</LongitudeDegrees>
            </Position>
            <AltitudeMeters>17</AltitudeMeters>
            <DistanceMeters>NAN</DistanceMeters>
          </Trackpoint>
          <Trackpoint>
            <Time>2022-07-05T09:09:46.000Z</Time>
            <Position>
              <LatitudeDegrees>44.44581798277795314788818359375</LatitudeDegrees>
              <LongitudeDegrees>-1.2545839883387088775634765625</LongitudeDegrees>
            </Position>
            <AltitudeMeters>16.799999237060546875</AltitudeMeters>
            <DistanceMeters>NAN</DistanceMeters>
          </Trackpoint>
          <Trackpoint>
            <Time>2022-07-05T09:09:48.000Z</Time>
            <Position>
              <LatitudeDegrees>44.445803649723529815673828125</LatitudeDegrees>
              <LongitudeDegrees>-1.25452774576842784881591796875</LongitudeDegrees>
            </Position>
            <AltitudeMeters>16.6000003814697265625</AltitudeMeters>
            <DistanceMeters>NAN</DistanceMeters>
          </Trackpoint>
          <Trackpoint>
            <Time>2022-07-05T09:09:52.000Z</Time>
            <Position>
              <LatitudeDegrees>44.445792920887470245361328125</LatitudeDegrees>
              <LongitudeDegrees>-1.25450737774372100830078125</LongitudeDegrees>
            </Position>
            <AltitudeMeters>16.3999996185302734375</AltitudeMeters>
            <DistanceMeters>NAN</DistanceMeters>
          </Trackpoint>
          <Trackpoint>
            <Time>2022-07-05T09:10:15.000Z</Time>
            <Position>
              <LatitudeDegrees>44.44577590562403202056884765625</LatitudeDegrees>
              <LongitudeDegrees>-1.25449036248028278350830078125</LongitudeDegrees>
            </Position>
            <AltitudeMeters>16.200000762939453125</AltitudeMeters>
            <DistanceMeters>NAN</DistanceMeters>
          </Trackpoint>
          <Trackpoint>
            <Time>2022-07-05T09:10:17.000Z</Time>
            <Position>
              <LatitudeDegrees>44.4457354210317134857177734375</LatitudeDegrees>
              <LongitudeDegrees>-1.25447208993136882781982421875</LongitudeDegrees>
            </Position>
            <AltitudeMeters>16.200000762939453125</AltitudeMeters>
            <DistanceMeters>NAN</DistanceMeters>
          </Trackpoint>
          <Trackpoint>
            <Time>2022-07-05T09:10:18.000Z</Time>
            <Position>
              <LatitudeDegrees>44.44571455009281635284423828125</LatitudeDegrees>
              <LongitudeDegrees>-1.25447393395006656646728515625</LongitudeDegrees>
            </Position>
            <AltitudeMeters>16.200000762939453125</AltitudeMeters>
            <DistanceMeters>NAN</DistanceMeters>
          </Trackpoint>
          <Trackpoint>
            <Time>2022-07-05T09:10:23.000Z</Time>
            <Position>
              <LatitudeDegrees>44.44558136165142059326171875</LatitudeDegrees>
              <LongitudeDegrees>-1.25455859117209911346435546875</LongitudeDegrees>
            </Position>
            <AltitudeMeters>16.200000762939453125</AltitudeMeters>
            <DistanceMeters>NAN</DistanceMeters>
          </Trackpoint>
          <Trackpoint>
            <Time>2022-07-05T09:10:26.000Z</Time>
            <Position>
              <LatitudeDegrees>44.4454896636307239532470703125</LatitudeDegrees>
              <LongitudeDegrees>-1.25463168136775493621826171875</LongitudeDegrees>
            </Position>
            <AltitudeMeters>16.3999996185302734375</AltitudeMeters>
            <DistanceMeters>NAN</DistanceMeters>
          </Trackpoint>
          <Trackpoint>
            <Time>2022-07-05T09:10:27.000Z</Time>
            <Position>
              <LatitudeDegrees>44.4454574771225452423095703125</LatitudeDegrees>
              <LongitudeDegrees>-1.25464593060314655303955078125</LongitudeDegrees>
            </Position>
            <AltitudeMeters>16.200000762939453125</AltitudeMeters>
            <DistanceMeters>NAN</DistanceMeters>
          </Trackpoint>
          <Trackpoint>
            <Time>2022-07-05T09:10:29.000Z</Time>
            <Position>
              <LatitudeDegrees>44.44538983516395092010498046875</LatitudeDegrees>
              <LongitudeDegrees>-1.2546637840569019317626953125</LongitudeDegrees>
            </Position>
            <AltitudeMeters>16.3999996185302734375</AltitudeMeters>
            <DistanceMeters>NAN</DistanceMeters>
          </Trackpoint>
          <Trackpoint>
            <Time>2022-07-05T09:10:37.000Z</Time>
            <Position>
              <LatitudeDegrees>44.4451409764587879180908203125</LatitudeDegrees>
              <LongitudeDegrees>-1.25467392615973949432373046875</LongitudeDegrees>
            </Position>
            <AltitudeMeters>16.200000762939453125</AltitudeMeters>
            <DistanceMeters>NAN</DistanceMeters>
          </Trackpoint>
          <Trackpoint>
            <Time>2022-07-05T09:10:40.000Z</Time>
            <Position>
              <LatitudeDegrees>44.444994963705539703369140625</LatitudeDegrees>
              <LongitudeDegrees>-1.2546396441757678985595703125</LongitudeDegrees>
            </Position>
            <AltitudeMeters>16.200000762939453125</AltitudeMeters>
            <DistanceMeters>NAN</DistanceMeters>
          </Trackpoint>
          <Trackpoint>
            <Time>2022-07-05T09:10:44.000Z</Time>
            <Position>
              <LatitudeDegrees>44.44486496038734912872314453125</LatitudeDegrees>
              <LongitudeDegrees>-1.25458918511867523193359375</LongitudeDegrees>
            </Position>
            <AltitudeMeters>16</AltitudeMeters>
            <DistanceMeters>NAN</DistanceMeters>
          </Trackpoint>
          <Trackpoint>
            <Time>2022-07-05T09:10:49.000Z</Time>
            <Position>
              <LatitudeDegrees>44.44471224211156368255615234375</LatitudeDegrees>
              <LongitudeDegrees>-1.25455188564956188201904296875</LongitudeDegrees>
            </Position>
            <AltitudeMeters>16</AltitudeMeters>
            <DistanceMeters>NAN</DistanceMeters>
          </Trackpoint>
          <Trackpoint>
            <Time>2022-07-05T09:10:50.000Z</Time>
            <Position>
              <LatitudeDegrees>44.44468743167817592620849609375</LatitudeDegrees>
              <LongitudeDegrees>-1.25455238856375217437744140625</LongitudeDegrees>
            </Position>
            <AltitudeMeters>16</AltitudeMeters>
            <DistanceMeters>NAN</DistanceMeters>
          </Trackpoint>
          <Trackpoint>
            <Time>2022-07-05T09:10:53.000Z</Time>
            <Position>
              <LatitudeDegrees>44.44464468397200107574462890625</LatitudeDegrees>
              <LongitudeDegrees>-1.25452137552201747894287109375</LongitudeDegrees>
            </Position>
            <AltitudeMeters>15.80000019073486328125</AltitudeMeters>
            <DistanceMeters>NAN</DistanceMeters>
          </Trackpoint>
          <Trackpoint>
            <Time>2022-07-05T09:10:54.000Z</Time>
            <Position>
              <LatitudeDegrees>44.44464032538235187530517578125</LatitudeDegrees>
              <LongitudeDegrees>-1.25449396669864654541015625</LongitudeDegrees>
            </Position>
            <AltitudeMeters>15.80000019073486328125</AltitudeMeters>
            <DistanceMeters>NAN</DistanceMeters>
          </Trackpoint>
          <Trackpoint>
            <Time>2022-07-05T09:10:59.000Z</Time>
            <Position>
              <LatitudeDegrees>44.4446786306798458099365234375</LatitudeDegrees>
              <LongitudeDegrees>-1.2543627060949802398681640625</LongitudeDegrees>
            </Position>
            <AltitudeMeters>15.6000003814697265625</AltitudeMeters>
            <DistanceMeters>NAN</DistanceMeters>
          </Trackpoint>
          <Trackpoint>
            <Time>2022-07-05T09:11:00.000Z</Time>
            <Position>
              <LatitudeDegrees>44.444683156907558441162109375</LatitudeDegrees>
              <LongitudeDegrees>-1.2542829103767871856689453125</LongitudeDegrees>
            </Position>
            <AltitudeMeters>15.6000003814697265625</AltitudeMeters>
            <DistanceMeters>NAN</DistanceMeters>
          </Trackpoint>
          <Trackpoint>
            <Time>2022-07-05T09:11:07.000Z</Time>
            <Position>
              <LatitudeDegrees>44.4446850009262561798095703125</LatitudeDegrees>
              <LongitudeDegrees>-1.25400848686695098876953125</LongitudeDegrees>
            </Position>
            <AltitudeMeters>15.19999980926513671875</AltitudeMeters>
            <DistanceMeters>NAN</DistanceMeters>
          </Trackpoint>
          <Trackpoint>
            <Time>2022-07-05T09:11:09.000Z</Time>
            <Position>
              <LatitudeDegrees>44.44468776695430278778076171875</LatitudeDegrees>
              <LongitudeDegrees>-1.253966577351093292236328125</LongitudeDegrees>
            </Position>
            <AltitudeMeters>15</AltitudeMeters>
            <DistanceMeters>NAN</DistanceMeters>
          </Trackpoint>
          <Trackpoint>
            <Time>2022-07-05T09:11:12.000Z</Time>
            <Position>
              <LatitudeDegrees>44.44466630928218364715576171875</LatitudeDegrees>
              <LongitudeDegrees>-1.25392324291169643402099609375</LongitudeDegrees>
            </Position>
            <AltitudeMeters>15</AltitudeMeters>
            <DistanceMeters>NAN</DistanceMeters>
          </Trackpoint>
          <Trackpoint>
            <Time>2022-07-05T09:11:18.000Z</Time>
            <Position>
              <LatitudeDegrees>44.44465373642742633819580078125</LatitudeDegrees>
              <LongitudeDegrees>-1.2537742964923381805419921875</LongitudeDegrees>
            </Position>
            <AltitudeMeters>15</AltitudeMeters>
            <DistanceMeters>NAN</DistanceMeters>
          </Trackpoint>
          <Trackpoint>
            <Time>2022-07-05T09:11:25.000Z</Time>
            <Position>
              <LatitudeDegrees>44.44463722407817840576171875</LatitudeDegrees>
              <LongitudeDegrees>-1.253499202430248260498046875</LongitudeDegrees>
            </Position>
            <AltitudeMeters>15.19999980926513671875</AltitudeMeters>
            <DistanceMeters>NAN</DistanceMeters>
          </Trackpoint>
          <Trackpoint>
            <Time>2022-07-05T09:11:29.000Z</Time>
            <Position>
              <LatitudeDegrees>44.444654323160648345947265625</LatitudeDegrees>
              <LongitudeDegrees>-1.2534225918352603912353515625</LongitudeDegrees>
            </Position>
            <AltitudeMeters>15</AltitudeMeters>
            <DistanceMeters>NAN</DistanceMeters>
          </Trackpoint>
          <Trackpoint>
            <Time>2022-07-05T09:11:30.000Z</Time>
            <Position>
              <LatitudeDegrees>44.44465490989387035369873046875</LatitudeDegrees>
              <LongitudeDegrees>-1.25339887104928493499755859375</LongitudeDegrees>
            </Position>
            <AltitudeMeters>15</AltitudeMeters>
            <DistanceMeters>NAN</DistanceMeters>
          </Trackpoint>
          <Trackpoint>
            <Time>2022-07-05T09:11:32.000Z</Time>
            <Position>
              <LatitudeDegrees>44.44466329179704189300537109375</LatitudeDegrees>
              <LongitudeDegrees>-1.2533451430499553680419921875</LongitudeDegrees>
            </Position>
            <AltitudeMeters>15</AltitudeMeters>
            <DistanceMeters>NAN</DistanceMeters>
          </Trackpoint>
          <Trackpoint>
            <Time>2022-07-05T09:11:34.000Z</Time>
            <Position>
              <LatitudeDegrees>44.44466060958802700042724609375</LatitudeDegrees>
              <LongitudeDegrees>-1.253294013440608978271484375</LongitudeDegrees>
            </Position>
            <AltitudeMeters>15</AltitudeMeters>
            <DistanceMeters>NAN</DistanceMeters>
          </Trackpoint>
          <Trackpoint>
            <Time>2022-07-05T09:11:36.000Z</Time>
            <Position>
              <LatitudeDegrees>44.44464619271457195281982421875</LatitudeDegrees>
              <LongitudeDegrees>-1.253255791962146759033203125</LongitudeDegrees>
            </Position>
            <AltitudeMeters>15.19999980926513671875</AltitudeMeters>
            <DistanceMeters>NAN</DistanceMeters>
          </Trackpoint>
          <Trackpoint>
            <Time>2022-07-05T09:11:43.000Z</Time>
            <Position>
              <LatitudeDegrees>44.44460663013160228729248046875</LatitudeDegrees>
              <LongitudeDegrees>-1.25310919247567653656005859375</LongitudeDegrees>
            </Position>
            <AltitudeMeters>15.19999980926513671875</AltitudeMeters>
            <DistanceMeters>NAN</DistanceMeters>
          </Trackpoint>
          <Trackpoint>
            <Time>2022-07-05T09:11:48.000Z</Time>
            <Position>
              <LatitudeDegrees>44.44458425045013427734375</LatitudeDegrees>
              <LongitudeDegrees>-1.25301162712275981903076171875</LongitudeDegrees>
            </Position>
            <AltitudeMeters>15.19999980926513671875</AltitudeMeters>
            <DistanceMeters>NAN</DistanceMeters>
          </Trackpoint>
          <Trackpoint>
            <Time>2022-07-05T09:11:52.000Z</Time>
            <Position>
              <LatitudeDegrees>44.44457930512726306915283203125</LatitudeDegrees>
              <LongitudeDegrees>-1.25291724689304828643798828125</LongitudeDegrees>
            </Position>
            <AltitudeMeters>15.19999980926513671875</AltitudeMeters>
            <DistanceMeters>NAN</DistanceMeters>
          </Trackpoint>
          <Trackpoint>
            <Time>2022-07-05T09:11:59.000Z</Time>
            <Position>
              <LatitudeDegrees>44.44456455297768115997314453125</LatitudeDegrees>
              <LongitudeDegrees>-1.25272127799689769744873046875</LongitudeDegrees>
            </Position>
            <AltitudeMeters>15.19999980926513671875</AltitudeMeters>
            <DistanceMeters>NAN</DistanceMeters>
          </Trackpoint>
          <Trackpoint>
            <Time>2022-07-05T09:12:07.000Z</Time>
            <Position>
              <LatitudeDegrees>44.444538317620754241943359375</LatitudeDegrees>
              <LongitudeDegrees>-1.25255296938121318817138671875</LongitudeDegrees>
            </Position>
            <AltitudeMeters>15.3999996185302734375</AltitudeMeters>
            <DistanceMeters>NAN</DistanceMeters>
          </Trackpoint>
          <Trackpoint>
            <Time>2022-07-05T09:12:09.000Z</Time>
            <Position>
              <LatitudeDegrees>44.444540329277515411376953125</LatitudeDegrees>
              <LongitudeDegrees>-1.252526901662349700927734375</LongitudeDegrees>
            </Position>
            <AltitudeMeters>15.3999996185302734375</AltitudeMeters>
            <DistanceMeters>NAN</DistanceMeters>
          </Trackpoint>
          <Trackpoint>
            <Time>2022-07-05T09:12:10.000Z</Time>
            <Position>
              <LatitudeDegrees>44.444553069770336151123046875</LatitudeDegrees>
              <LongitudeDegrees>-1.25249429605901241302490234375</LongitudeDegrees>
            </Position>
            <AltitudeMeters>15.3999996185302734375</AltitudeMeters>
            <DistanceMeters>NAN</DistanceMeters>
          </Trackpoint>
          <Trackpoint>
            <Time>2022-07-05T09:12:13.000Z</Time>
            <Position>
              <LatitudeDegrees>44.44457025267183780670166015625</LatitudeDegrees>
              <LongitudeDegrees>-1.252478621900081634521484375</LongitudeDegrees>
            </Position>
            <AltitudeMeters>15.3999996185302734375</AltitudeMeters>
            <DistanceMeters>NAN</DistanceMeters>
          </Trackpoint>
          <Trackpoint>
            <Time>2022-07-05T09:12:16.000Z</Time>
            <Position>
              <LatitudeDegrees>44.4445814006030559539794921875</LatitudeDegrees>
              <LongitudeDegrees>-1.2524747662246227264404296875</LongitudeDegrees>
            </Position>
            <AltitudeMeters>15.3999996185302734375</AltitudeMeters>
            <DistanceMeters>NAN</DistanceMeters>
          </Trackpoint>
          <Trackpoint>
            <Time>2022-07-05T09:12:18.000Z</Time>
            <Position>
              <LatitudeDegrees>44.44458114914596080780029296875</LatitudeDegrees>
              <LongitudeDegrees>-1.25245272181928157806396484375</LongitudeDegrees>
            </Position>
            <AltitudeMeters>15.3999996185302734375</AltitudeMeters>
            <DistanceMeters>NAN</DistanceMeters>
          </Trackpoint>
          <Trackpoint>
            <Time>2022-07-05T09:12:21.000Z</Time>
            <Position>
              <LatitudeDegrees>44.44456572644412517547607421875</LatitudeDegrees>
              <LongitudeDegrees>-1.25239916145801544189453125</LongitudeDegrees>
            </Position>
            <AltitudeMeters>15.3999996185302734375</AltitudeMeters>
            <DistanceMeters>NAN</DistanceMeters>
          </Trackpoint>
          <Trackpoint>
            <Time>2022-07-05T09:12:23.000Z</Time>
            <Position>
              <LatitudeDegrees>44.44455214776098728179931640625</LatitudeDegrees>
              <LongitudeDegrees>-1.25236697494983673095703125</LongitudeDegrees>
            </Position>
            <AltitudeMeters>15.3999996185302734375</AltitudeMeters>
            <DistanceMeters>NAN</DistanceMeters>
          </Trackpoint>
          <Trackpoint>
            <Time>2022-07-05T09:12:24.000Z</Time>
            <Position>
              <LatitudeDegrees>44.44454762153327465057373046875</LatitudeDegrees>
              <LongitudeDegrees>-1.252345852553844451904296875</LongitudeDegrees>
            </Position>
            <AltitudeMeters>15.3999996185302734375</AltitudeMeters>
            <DistanceMeters>NAN</DistanceMeters>
          </Trackpoint>
          <Trackpoint>
            <Time>2022-07-05T09:12:29.000Z</Time>
            <Position>
              <LatitudeDegrees>44.4445441849529743194580078125</LatitudeDegrees>
              <LongitudeDegrees>-1.25224082730710506439208984375</LongitudeDegrees>
            </Position>
            <AltitudeMeters>15.3999996185302734375</AltitudeMeters>
            <DistanceMeters>NAN</DistanceMeters>
          </Trackpoint>
          <Trackpoint>
            <Time>2022-07-05T09:12:32.000Z</Time>
            <Position>
              <LatitudeDegrees>44.444550387561321258544921875</LatitudeDegrees>
              <LongitudeDegrees>-1.25216580927371978759765625</LongitudeDegrees>
            </Position>
            <AltitudeMeters>15.3999996185302734375</AltitudeMeters>
            <DistanceMeters>NAN</DistanceMeters>
          </Trackpoint>
          <Trackpoint>
            <Time>2022-07-05T09:12:34.000Z</Time>
            <Position>
              <LatitudeDegrees>44.444540329277515411376953125</LatitudeDegrees>
              <LongitudeDegrees>-1.25212213955819606781005859375</LongitudeDegrees>
            </Position>
            <AltitudeMeters>15.3999996185302734375</AltitudeMeters>
            <DistanceMeters>NAN</DistanceMeters>
          </Trackpoint>
          <Trackpoint>
            <Time>2022-07-05T09:12:36.000Z</Time>
            <Position>
              <LatitudeDegrees>44.44452901370823383331298828125</LatitudeDegrees>
              <LongitudeDegrees>-1.25208400189876556396484375</LongitudeDegrees>
            </Position>
            <AltitudeMeters>15.3999996185302734375</AltitudeMeters>
            <DistanceMeters>NAN</DistanceMeters>
          </Trackpoint>
          <Trackpoint>
            <Time>2022-07-05T09:12:38.000Z</Time>
            <Position>
              <LatitudeDegrees>44.444500096142292022705078125</LatitudeDegrees>
              <LongitudeDegrees>-1.25204754061996936798095703125</LongitudeDegrees>
            </Position>
            <AltitudeMeters>15.3999996185302734375</AltitudeMeters>
            <DistanceMeters>NAN</DistanceMeters>
          </Trackpoint>
          <Trackpoint>
            <Time>2022-07-05T09:12:41.000Z</Time>
            <Position>
              <LatitudeDegrees>44.444442093372344970703125</LatitudeDegrees>
              <LongitudeDegrees>-1.2520412541925907135009765625</LongitudeDegrees>
            </Position>
            <AltitudeMeters>15.3999996185302734375</AltitudeMeters>
            <DistanceMeters>NAN</DistanceMeters>
          </Trackpoint>
          <Trackpoint>
            <Time>2022-07-05T09:12:45.000Z</Time>
            <Position>
              <LatitudeDegrees>44.44433723576366901397705078125</LatitudeDegrees>
              <LongitudeDegrees>-1.252073608338832855224609375</LongitudeDegrees>
            </Position>
            <AltitudeMeters>15.3999996185302734375</AltitudeMeters>
            <DistanceMeters>NAN</DistanceMeters>
          </Trackpoint>
          <Trackpoint>
            <Time>2022-07-05T09:12:48.000Z</Time>
            <Position>
              <LatitudeDegrees>44.444257356226444244384765625</LatitudeDegrees>
              <LongitudeDegrees>-1.25208727084100246429443359375</LongitudeDegrees>
            </Position>
            <AltitudeMeters>15.3999996185302734375</AltitudeMeters>
            <DistanceMeters>NAN</DistanceMeters>
          </Trackpoint>
          <Trackpoint>
            <Time>2022-07-05T09:12:51.000Z</Time>
            <Position>
              <LatitudeDegrees>44.44418334402143955230712890625</LatitudeDegrees>
              <LongitudeDegrees>-1.2520493008196353912353515625</LongitudeDegrees>
            </Position>
            <AltitudeMeters>15.3999996185302734375</AltitudeMeters>
            <DistanceMeters>NAN</DistanceMeters>
          </Trackpoint>
          <Trackpoint>
            <Time>2022-07-05T09:12:53.000Z</Time>
            <Position>
              <LatitudeDegrees>44.44416104815900325775146484375</LatitudeDegrees>
              <LongitudeDegrees>-1.25199289061129093170166015625</LongitudeDegrees>
            </Position>
            <AltitudeMeters>15.6000003814697265625</AltitudeMeters>
            <DistanceMeters>NAN</DistanceMeters>
          </Trackpoint>
          <Trackpoint>
            <Time>2022-07-05T09:12:58.000Z</Time>
            <Position>
              <LatitudeDegrees>44.44413204677402973175048828125</LatitudeDegrees>
              <LongitudeDegrees>-1.25182407908141613006591796875</LongitudeDegrees>
            </Position>
            <AltitudeMeters>15.6000003814697265625</AltitudeMeters>
            <DistanceMeters>NAN</DistanceMeters>
          </Trackpoint>
          <Trackpoint>
            <Time>2022-07-05T09:12:59.000Z</Time>
            <Position>
              <LatitudeDegrees>44.44411687552928924560546875</LatitudeDegrees>
              <LongitudeDegrees>-1.2517990171909332275390625</LongitudeDegrees>
            </Position>
            <AltitudeMeters>15.6000003814697265625</AltitudeMeters>
            <DistanceMeters>NAN</DistanceMeters>
          </Trackpoint>
          <Trackpoint>
            <Time>2022-07-05T09:13:00.000Z</Time>
            <Position>
              <LatitudeDegrees>44.44410086609423160552978515625</LatitudeDegrees>
              <LongitudeDegrees>-1.251773536205291748046875</LongitudeDegrees>
            </Position>
            <AltitudeMeters>15.6000003814697265625</AltitudeMeters>
            <DistanceMeters>NAN</DistanceMeters>
          </Trackpoint>
          <Trackpoint>
            <Time>2022-07-05T09:13:05.000Z</Time>
            <Position>
              <LatitudeDegrees>44.44407404400408267974853515625</LatitudeDegrees>
              <LongitudeDegrees>-1.2517324648797512054443359375</LongitudeDegrees>
            </Position>
            <AltitudeMeters>15.6000003814697265625</AltitudeMeters>
            <DistanceMeters>NAN</DistanceMeters>
          </Trackpoint>
          <Trackpoint>
            <Time>2022-07-05T09:13:23.000Z</Time>
            <Position>
              <LatitudeDegrees>44.444066248834133148193359375</LatitudeDegrees>
              <LongitudeDegrees>-1.25167638994753360748291015625</LongitudeDegrees>
            </Position>
            <AltitudeMeters>15.6000003814697265625</AltitudeMeters>
            <DistanceMeters>NAN</DistanceMeters>
          </Trackpoint>
          <Trackpoint>
            <Time>2022-07-05T09:13:26.000Z</Time>
            <Position>
              <LatitudeDegrees>44.44404956884682178497314453125</LatitudeDegrees>
              <LongitudeDegrees>-1.25160388648509979248046875</LongitudeDegrees>
            </Position>
            <AltitudeMeters>15.6000003814697265625</AltitudeMeters>
            <DistanceMeters>NAN</DistanceMeters>
          </Trackpoint>
          <Trackpoint>
            <Time>2022-07-05T09:13:30.000Z</Time>
            <Position>
              <LatitudeDegrees>44.4440395943820476531982421875</LatitudeDegrees>
              <LongitudeDegrees>-1.25147220678627490997314453125</LongitudeDegrees>
            </Position>
            <AltitudeMeters>15.80000019073486328125</AltitudeMeters>
            <DistanceMeters>NAN</DistanceMeters>
          </Trackpoint>
          <Trackpoint>
            <Time>2022-07-05T09:13:33.000Z</Time>
            <Position>
              <LatitudeDegrees>44.4440235011279582977294921875</LatitudeDegrees>
              <LongitudeDegrees>-1.2514397688210010528564453125</LongitudeDegrees>
            </Position>
            <AltitudeMeters>15.80000019073486328125</AltitudeMeters>
            <DistanceMeters>NAN</DistanceMeters>
          </Trackpoint>
          <Trackpoint>
            <Time>2022-07-05T09:13:40.000Z</Time>
            <Position>
              <LatitudeDegrees>44.44400682114064693450927734375</LatitudeDegrees>
              <LongitudeDegrees>-1.251395009458065032958984375</LongitudeDegrees>
            </Position>
            <AltitudeMeters>15.80000019073486328125</AltitudeMeters>
            <DistanceMeters>NAN</DistanceMeters>
          </Trackpoint>
          <Trackpoint>
            <Time>2022-07-05T09:13:44.000Z</Time>
            <Position>
              <LatitudeDegrees>44.4439990259706974029541015625</LatitudeDegrees>
              <LongitudeDegrees>-1.25133038498461246490478515625</LongitudeDegrees>
            </Position>
            <AltitudeMeters>15.80000019073486328125</AltitudeMeters>
            <DistanceMeters>NAN</DistanceMeters>
          </Trackpoint>
          <Trackpoint>
            <Time>2022-07-05T09:13:46.000Z</Time>
            <Position>
              <LatitudeDegrees>44.44401252083480358123779296875</LatitudeDegrees>
              <LongitudeDegrees>-1.25128143467009067535400390625</LongitudeDegrees>
            </Position>
            <AltitudeMeters>15.80000019073486328125</AltitudeMeters>
            <DistanceMeters>NAN</DistanceMeters>
          </Trackpoint>
          <Trackpoint>
            <Time>2022-07-05T09:13:48.000Z</Time>
            <Position>
              <LatitudeDegrees>44.4440209865570068359375</LatitudeDegrees>
              <LongitudeDegrees>-1.25124941579997539520263671875</LongitudeDegrees>
            </Position>
            <AltitudeMeters>15.80000019073486328125</AltitudeMeters>
            <DistanceMeters>NAN</DistanceMeters>
          </Trackpoint>
          <Trackpoint>
            <Time>2022-07-05T09:13:53.000Z</Time>
            <Position>
              <LatitudeDegrees>44.44401151500642299652099609375</LatitudeDegrees>
              <LongitudeDegrees>-1.25119350850582122802734375</LongitudeDegrees>
            </Position>
            <AltitudeMeters>15.80000019073486328125</AltitudeMeters>
            <DistanceMeters>NAN</DistanceMeters>
          </Trackpoint>
          <Trackpoint>
            <Time>2022-07-05T09:13:59.000Z</Time>
            <Position>
              <LatitudeDegrees>44.4440084137022495269775390625</LatitudeDegrees>
              <LongitudeDegrees>-1.2511222623288631439208984375</LongitudeDegrees>
            </Position>
            <AltitudeMeters>16</AltitudeMeters>
            <DistanceMeters>NAN</DistanceMeters>
          </Trackpoint>
          <Trackpoint>
            <Time>2022-07-05T09:14:00.000Z</Time>
            <Position>
              <LatitudeDegrees>44.4440084137022495269775390625</LatitudeDegrees>
              <LongitudeDegrees>-1.2511222623288631439208984375</LongitudeDegrees>
            </Position>
            <AltitudeMeters>16</AltitudeMeters>
            <DistanceMeters>NAN</DistanceMeters>
          </Trackpoint>
          <Trackpoint>
            <Time>2022-07-05T09:15:16.000Z</Time>
            <Position>
              <LatitudeDegrees>44.44382225163280963897705078125</LatitudeDegrees>
              <LongitudeDegrees>-1.25041021965444087982177734375</LongitudeDegrees>
            </Position>
            <AltitudeMeters>16.6000003814697265625</AltitudeMeters>
            <DistanceMeters>NAN</DistanceMeters>
          </Trackpoint>
          <Trackpoint>
            <Time>2022-07-05T09:15:17.000Z</Time>
            <Position>
              <LatitudeDegrees>44.4438152946531772613525390625</LatitudeDegrees>
              <LongitudeDegrees>-1.25038214027881622314453125</LongitudeDegrees>
            </Position>
            <AltitudeMeters>16.6000003814697265625</AltitudeMeters>
            <DistanceMeters>NAN</DistanceMeters>
          </Trackpoint>
          <Trackpoint>
            <Time>2022-07-05T09:15:22.000Z</Time>
            <Position>
              <LatitudeDegrees>44.44378235377371311187744140625</LatitudeDegrees>
              <LongitudeDegrees>-1.250277869403362274169921875</LongitudeDegrees>
            </Position>
            <AltitudeMeters>16.6000003814697265625</AltitudeMeters>
            <DistanceMeters>NAN</DistanceMeters>
          </Trackpoint>
          <Trackpoint>
            <Time>2022-07-05T09:15:24.000Z</Time>
            <Position>
              <LatitudeDegrees>44.4437743909657001495361328125</LatitudeDegrees>
              <LongitudeDegrees>-1.2502579204738140106201171875</LongitudeDegrees>
            </Position>
            <AltitudeMeters>16.6000003814697265625</AltitudeMeters>
            <DistanceMeters>NAN</DistanceMeters>
          </Trackpoint>
          <Trackpoint>
            <Time>2022-07-05T09:15:28.000Z</Time>
            <Position>
              <LatitudeDegrees>44.4437633268535137176513671875</LatitudeDegrees>
              <LongitudeDegrees>-1.25023168511688709259033203125</LongitudeDegrees>
            </Position>
            <AltitudeMeters>16.799999237060546875</AltitudeMeters>
            <DistanceMeters>NAN</DistanceMeters>
          </Trackpoint>
          <Trackpoint>
            <Time>2022-07-05T09:15:41.000Z</Time>
            <Position>
              <LatitudeDegrees>44.44373575039207935333251953125</LatitudeDegrees>
              <LongitudeDegrees>-1.2501387298107147216796875</LongitudeDegrees>
            </Position>
            <AltitudeMeters>16.6000003814697265625</AltitudeMeters>
            <DistanceMeters>NAN</DistanceMeters>
          </Trackpoint>
          <Trackpoint>
            <Time>2022-07-05T09:15:48.000Z</Time>
            <Position>
              <LatitudeDegrees>44.4436935894191265106201171875</LatitudeDegrees>
              <LongitudeDegrees>-1.25003814697265625</LongitudeDegrees>
            </Position>
            <AltitudeMeters>17</AltitudeMeters>
            <DistanceMeters>NAN</DistanceMeters>
          </Trackpoint>
          <Trackpoint>
            <Time>2022-07-05T09:15:50.000Z</Time>
            <Position>
              <LatitudeDegrees>44.4436935894191265106201171875</LatitudeDegrees>
              <LongitudeDegrees>-1.25003814697265625</LongitudeDegrees>
            </Position>
            <AltitudeMeters>17</AltitudeMeters>
            <DistanceMeters>NAN</DistanceMeters>
          </Trackpoint>
          <Trackpoint>
            <Time>2022-07-05T09:15:55.000Z</Time>
            <Position>
              <LatitudeDegrees>44.443680681288242340087890625</LatitudeDegrees>
              <LongitudeDegrees>-1.24997980892658233642578125</LongitudeDegrees>
            </Position>
            <AltitudeMeters>17</AltitudeMeters>
            <DistanceMeters>NAN</DistanceMeters>
          </Trackpoint>
          <Trackpoint>
            <Time>2022-07-05T09:15:57.000Z</Time>
            <Position>
              <LatitudeDegrees>44.44367556832730770111083984375</LatitudeDegrees>
              <LongitudeDegrees>-1.24991820193827152252197265625</LongitudeDegrees>
            </Position>
            <AltitudeMeters>17</AltitudeMeters>
            <DistanceMeters>NAN</DistanceMeters>
          </Trackpoint>
          <Trackpoint>
            <Time>2022-07-05T09:16:03.000Z</Time>
            <Position>
              <LatitudeDegrees>44.443621002137660980224609375</LatitudeDegrees>
              <LongitudeDegrees>-1.24976028688251972198486328125</LongitudeDegrees>
            </Position>
            <AltitudeMeters>17.200000762939453125</AltitudeMeters>
            <DistanceMeters>NAN</DistanceMeters>
          </Trackpoint>
          <Trackpoint>
            <Time>2022-07-05T09:16:10.000Z</Time>
            <Position>
              <LatitudeDegrees>44.4435785897076129913330078125</LatitudeDegrees>
              <LongitudeDegrees>-1.24961435794830322265625</LongitudeDegrees>
            </Position>
            <AltitudeMeters>17</AltitudeMeters>
            <DistanceMeters>NAN</DistanceMeters>
          </Trackpoint>
          <Trackpoint>
            <Time>2022-07-05T09:16:14.000Z</Time>
            <Position>
              <LatitudeDegrees>44.44356190972030162811279296875</LatitudeDegrees>
              <LongitudeDegrees>-1.24954202212393283843994140625</LongitudeDegrees>
            </Position>
            <AltitudeMeters>17</AltitudeMeters>
            <DistanceMeters>NAN</DistanceMeters>
          </Trackpoint>
          <Trackpoint>
            <Time>2022-07-05T09:16:16.000Z</Time>
            <Position>
              <LatitudeDegrees>44.44356031715869903564453125</LatitudeDegrees>
              <LongitudeDegrees>-1.24949893914163112640380859375</LongitudeDegrees>
            </Position>
            <AltitudeMeters>17</AltitudeMeters>
            <DistanceMeters>NAN</DistanceMeters>
          </Trackpoint>
          <Trackpoint>
            <Time>2022-07-05T09:16:19.000Z</Time>
            <Position>
              <LatitudeDegrees>44.443556629121303558349609375</LatitudeDegrees>
              <LongitudeDegrees>-1.24945334158837795257568359375</LongitudeDegrees>
            </Position>
            <AltitudeMeters>17</AltitudeMeters>
            <DistanceMeters>NAN</DistanceMeters>
          </Trackpoint>
          <Trackpoint>
            <Time>2022-07-05T09:16:24.000Z</Time>
            <Position>
              <LatitudeDegrees>44.44352972321212291717529296875</LatitudeDegrees>
              <LongitudeDegrees>-1.24931386671960353851318359375</LongitudeDegrees>
            </Position>
            <AltitudeMeters>17</AltitudeMeters>
            <DistanceMeters>NAN</DistanceMeters>
          </Trackpoint>
          <Trackpoint>
            <Time>2022-07-05T09:16:30.000Z</Time>
            <Position>
              <LatitudeDegrees>44.443480186164379119873046875</LatitudeDegrees>
              <LongitudeDegrees>-1.24916282482445240020751953125</LongitudeDegrees>
            </Position>
            <AltitudeMeters>17</AltitudeMeters>
            <DistanceMeters>NAN</DistanceMeters>
          </Trackpoint>
          <Trackpoint>
            <Time>2022-07-05T09:16:38.000Z</Time>
            <Position>
              <LatitudeDegrees>44.443415142595767974853515625</LatitudeDegrees>
              <LongitudeDegrees>-1.24897406436502933502197265625</LongitudeDegrees>
            </Position>
            <AltitudeMeters>17</AltitudeMeters>
            <DistanceMeters>NAN</DistanceMeters>
          </Trackpoint>
          <Trackpoint>
            <Time>2022-07-05T09:16:44.000Z</Time>
            <Position>
              <LatitudeDegrees>44.443346746265888214111328125</LatitudeDegrees>
              <LongitudeDegrees>-1.24875127337872982025146484375</LongitudeDegrees>
            </Position>
            <AltitudeMeters>17</AltitudeMeters>
            <DistanceMeters>NAN</DistanceMeters>
          </Trackpoint>
          <Trackpoint>
            <Time>2022-07-05T09:16:51.000Z</Time>
            <Position>
              <LatitudeDegrees>44.44327407516539096832275390625</LatitudeDegrees>
              <LongitudeDegrees>-1.24852965585887432098388671875</LongitudeDegrees>
            </Position>
            <AltitudeMeters>17.3999996185302734375</AltitudeMeters>
            <DistanceMeters>NAN</DistanceMeters>
          </Trackpoint>
          <Trackpoint>
            <Time>2022-07-05T09:16:56.000Z</Time>
            <Position>
              <LatitudeDegrees>44.4432030804455280303955078125</LatitudeDegrees>
              <LongitudeDegrees>-1.24836914241313934326171875</LongitudeDegrees>
            </Position>
            <AltitudeMeters>17.3999996185302734375</AltitudeMeters>
            <DistanceMeters>NAN</DistanceMeters>
          </Trackpoint>
          <Trackpoint>
            <Time>2022-07-05T09:17:00.000Z</Time>
            <Position>
              <LatitudeDegrees>44.44317935965955257415771484375</LatitudeDegrees>
              <LongitudeDegrees>-1.24820678494870662689208984375</LongitudeDegrees>
            </Position>
            <AltitudeMeters>17.3999996185302734375</AltitudeMeters>
            <DistanceMeters>NAN</DistanceMeters>
          </Trackpoint>
          <Trackpoint>
            <Time>2022-07-05T09:17:08.000Z</Time>
            <Position>
              <LatitudeDegrees>44.4430967979133129119873046875</LatitudeDegrees>
              <LongitudeDegrees>-1.24794510193169116973876953125</LongitudeDegrees>
            </Position>
            <AltitudeMeters>17.3999996185302734375</AltitudeMeters>
            <DistanceMeters>NAN</DistanceMeters>
          </Trackpoint>
          <Trackpoint>
            <Time>2022-07-05T09:17:12.000Z</Time>
            <Position>
              <LatitudeDegrees>44.44310526363551616668701171875</LatitudeDegrees>
              <LongitudeDegrees>-1.24785440973937511444091796875</LongitudeDegrees>
            </Position>
            <AltitudeMeters>17.3999996185302734375</AltitudeMeters>
            <DistanceMeters>NAN</DistanceMeters>
          </Trackpoint>
          <Trackpoint>
            <Time>2022-07-05T09:17:14.000Z</Time>
            <Position>
              <LatitudeDegrees>44.44310895167291164398193359375</LatitudeDegrees>
              <LongitudeDegrees>-1.24779925681650638580322265625</LongitudeDegrees>
            </Position>
            <AltitudeMeters>17.3999996185302734375</AltitudeMeters>
            <DistanceMeters>NAN</DistanceMeters>
          </Trackpoint>
          <Trackpoint>
            <Time>2022-07-05T09:17:15.000Z</Time>
            <Position>
              <LatitudeDegrees>44.44310090504586696624755859375</LatitudeDegrees>
              <LongitudeDegrees>-1.2477802298963069915771484375</LongitudeDegrees>
            </Position>
            <AltitudeMeters>17.3999996185302734375</AltitudeMeters>
            <DistanceMeters>NAN</DistanceMeters>
          </Trackpoint>
          <Trackpoint>
            <Time>2022-07-05T09:17:18.000Z</Time>
            <Position>
              <LatitudeDegrees>44.44304172880947589874267578125</LatitudeDegrees>
              <LongitudeDegrees>-1.24774997122585773468017578125</LongitudeDegrees>
            </Position>
            <AltitudeMeters>17.3999996185302734375</AltitudeMeters>
            <DistanceMeters>NAN</DistanceMeters>
          </Trackpoint>
          <Trackpoint>
            <Time>2022-07-05T09:17:20.000Z</Time>
            <Position>
              <LatitudeDegrees>44.44300065748393535614013671875</LatitudeDegrees>
              <LongitudeDegrees>-1.24770403839647769927978515625</LongitudeDegrees>
            </Position>
            <AltitudeMeters>17.3999996185302734375</AltitudeMeters>
            <DistanceMeters>NAN</DistanceMeters>
          </Trackpoint>
          <Trackpoint>
            <Time>2022-07-05T09:17:22.000Z</Time>
            <Position>
              <LatitudeDegrees>44.4429801218211650848388671875</LatitudeDegrees>
              <LongitudeDegrees>-1.24764150939881801605224609375</LongitudeDegrees>
            </Position>
            <AltitudeMeters>17.3999996185302734375</AltitudeMeters>
            <DistanceMeters>NAN</DistanceMeters>
          </Trackpoint>
          <Trackpoint>
            <Time>2022-07-05T09:17:23.000Z</Time>
            <Position>
              <LatitudeDegrees>44.4429801218211650848388671875</LatitudeDegrees>
              <LongitudeDegrees>-1.24764150939881801605224609375</LongitudeDegrees>
            </Position>
            <AltitudeMeters>17.3999996185302734375</AltitudeMeters>
            <DistanceMeters>NAN</DistanceMeters>
          </Trackpoint>
          <Trackpoint>
            <Time>2022-07-05T09:17:25.000Z</Time>
            <Position>
              <LatitudeDegrees>44.44295606575906276702880859375</LatitudeDegrees>
              <LongitudeDegrees>-1.24750907532870769500732421875</LongitudeDegrees>
            </Position>
            <AltitudeMeters>17.6000003814697265625</AltitudeMeters>
            <DistanceMeters>NAN</DistanceMeters>
          </Trackpoint>
          <Trackpoint>
            <Time>2022-07-05T09:17:28.000Z</Time>
            <Position>
              <LatitudeDegrees>44.4429358653724193572998046875</LatitudeDegrees>
              <LongitudeDegrees>-1.24743849970400333404541015625</LongitudeDegrees>
            </Position>
            <AltitudeMeters>17.6000003814697265625</AltitudeMeters>
            <DistanceMeters>NAN</DistanceMeters>
          </Trackpoint>
          <Trackpoint>
            <Time>2022-07-05T09:17:29.000Z</Time>
            <Position>
              <LatitudeDegrees>44.44291055202484130859375</LatitudeDegrees>
              <LongitudeDegrees>-1.247346214950084686279296875</LongitudeDegrees>
            </Position>
            <AltitudeMeters>17.6000003814697265625</AltitudeMeters>
            <DistanceMeters>NAN</DistanceMeters>
          </Trackpoint>
          <Trackpoint>
            <Time>2022-07-05T09:17:35.000Z</Time>
            <Position>
              <LatitudeDegrees>44.44284575991332530975341796875</LatitudeDegrees>
              <LongitudeDegrees>-1.247078664600849151611328125</LongitudeDegrees>
            </Position>
            <AltitudeMeters>17.6000003814697265625</AltitudeMeters>
            <DistanceMeters>NAN</DistanceMeters>
          </Trackpoint>
          <Trackpoint>
            <Time>2022-07-05T09:17:37.000Z</Time>
            <Position>
              <LatitudeDegrees>44.44282279349863529205322265625</LatitudeDegrees>
              <LongitudeDegrees>-1.246999204158782958984375</LongitudeDegrees>
            </Position>
            <AltitudeMeters>17.6000003814697265625</AltitudeMeters>
            <DistanceMeters>NAN</DistanceMeters>
          </Trackpoint>
          <Trackpoint>
            <Time>2022-07-05T09:17:44.000Z</Time>
            <Position>
              <LatitudeDegrees>44.44273394532501697540283203125</LatitudeDegrees>
              <LongitudeDegrees>-1.24668932519853115081787109375</LongitudeDegrees>
            </Position>
            <AltitudeMeters>18</AltitudeMeters>
            <DistanceMeters>NAN</DistanceMeters>
          </Trackpoint>
          <Trackpoint>
            <Time>2022-07-05T09:17:50.000Z</Time>
            <Position>
              <LatitudeDegrees>44.44264325313270092010498046875</LatitudeDegrees>
              <LongitudeDegrees>-1.24643300659954547882080078125</LongitudeDegrees>
            </Position>
            <AltitudeMeters>18.200000762939453125</AltitudeMeters>
            <DistanceMeters>NAN</DistanceMeters>
          </Trackpoint>
          <Trackpoint>
            <Time>2022-07-05T09:17:58.000Z</Time>
            <Position>
              <LatitudeDegrees>44.44255641661584377288818359375</LatitudeDegrees>
              <LongitudeDegrees>-1.24608926475048065185546875</LongitudeDegrees>
            </Position>
            <AltitudeMeters>17.799999237060546875</AltitudeMeters>
            <DistanceMeters>NAN</DistanceMeters>
          </Trackpoint>
          <Trackpoint>
            <Time>2022-07-05T09:18:08.000Z</Time>
            <Position>
              <LatitudeDegrees>44.44241845048964023590087890625</LatitudeDegrees>
              <LongitudeDegrees>-1.2456143461167812347412109375</LongitudeDegrees>
            </Position>
            <AltitudeMeters>17.799999237060546875</AltitudeMeters>
            <DistanceMeters>NAN</DistanceMeters>
          </Trackpoint>
          <Trackpoint>
            <Time>2022-07-05T09:18:12.000Z</Time>
            <Position>
              <LatitudeDegrees>44.44234301336109638214111328125</LatitudeDegrees>
              <LongitudeDegrees>-1.24551032669842243194580078125</LongitudeDegrees>
            </Position>
            <AltitudeMeters>18</AltitudeMeters>
            <DistanceMeters>NAN</DistanceMeters>
          </Trackpoint>
          <Trackpoint>
            <Time>2022-07-05T09:18:17.000Z</Time>
            <Position>
              <LatitudeDegrees>44.44221611134707927703857421875</LatitudeDegrees>
              <LongitudeDegrees>-1.24549356289207935333251953125</LongitudeDegrees>
            </Position>
            <AltitudeMeters>18</AltitudeMeters>
            <DistanceMeters>NAN</DistanceMeters>
          </Trackpoint>
          <Trackpoint>
            <Time>2022-07-05T09:18:18.000Z</Time>
            <Position>
              <LatitudeDegrees>44.44220018573105335235595703125</LatitudeDegrees>
              <LongitudeDegrees>-1.2454842589795589447021484375</LongitudeDegrees>
            </Position>
            <AltitudeMeters>18</AltitudeMeters>
            <DistanceMeters>NAN</DistanceMeters>
          </Trackpoint>
          <Trackpoint>
            <Time>2022-07-05T09:18:22.000Z</Time>
            <Position>
              <LatitudeDegrees>44.44215995259582996368408203125</LatitudeDegrees>
              <LongitudeDegrees>-1.24542810022830963134765625</LongitudeDegrees>
            </Position>
            <AltitudeMeters>17.799999237060546875</AltitudeMeters>
            <DistanceMeters>NAN</DistanceMeters>
          </Trackpoint>
          <Trackpoint>
            <Time>2022-07-05T09:18:23.000Z</Time>
            <Position>
              <LatitudeDegrees>44.44215039722621440887451171875</LatitudeDegrees>
              <LongitudeDegrees>-1.24541544355452060699462890625</LongitudeDegrees>
            </Position>
            <AltitudeMeters>17.799999237060546875</AltitudeMeters>
            <DistanceMeters>NAN</DistanceMeters>
          </Trackpoint>
          <Trackpoint>
            <Time>2022-07-05T09:18:25.000Z</Time>
            <Position>
              <LatitudeDegrees>44.4421327114105224609375</LatitudeDegrees>
              <LongitudeDegrees>-1.24541527591645717620849609375</LongitudeDegrees>
            </Position>
            <AltitudeMeters>17.6000003814697265625</AltitudeMeters>
            <DistanceMeters>NAN</DistanceMeters>
          </Trackpoint>
          <Trackpoint>
            <Time>2022-07-05T09:18:26.000Z</Time>
            <Position>
              <LatitudeDegrees>44.44211988709867000579833984375</LatitudeDegrees>
              <LongitudeDegrees>-1.24542315490543842315673828125</LongitudeDegrees>
            </Position>
            <AltitudeMeters>17.6000003814697265625</AltitudeMeters>
            <DistanceMeters>NAN</DistanceMeters>
          </Trackpoint>
          <Trackpoint>
            <Time>2022-07-05T09:18:28.000Z</Time>
            <Position>
              <LatitudeDegrees>44.442092478275299072265625</LatitudeDegrees>
              <LongitudeDegrees>-1.245430447161197662353515625</LongitudeDegrees>
            </Position>
            <AltitudeMeters>17.6000003814697265625</AltitudeMeters>
            <DistanceMeters>NAN</DistanceMeters>
          </Trackpoint>
          <Trackpoint>
            <Time>2022-07-05T09:18:29.000Z</Time>
            <Position>
              <LatitudeDegrees>44.4420849345624446868896484375</LatitudeDegrees>
              <LongitudeDegrees>-1.24543388374149799346923828125</LongitudeDegrees>
            </Position>
            <AltitudeMeters>17.6000003814697265625</AltitudeMeters>
            <DistanceMeters>NAN</DistanceMeters>
          </Trackpoint>
          <Trackpoint>
            <Time>2022-07-05T09:18:31.000Z</Time>
            <Position>
              <LatitudeDegrees>44.44208099506795406341552734375</LatitudeDegrees>
              <LongitudeDegrees>-1.2454359792172908782958984375</LongitudeDegrees>
            </Position>
            <AltitudeMeters>17.6000003814697265625</AltitudeMeters>
            <DistanceMeters>NAN</DistanceMeters>
          </Trackpoint>
          <Trackpoint>
            <Time>2022-07-05T09:18:32.000Z</Time>
            <Position>
              <LatitudeDegrees>44.44208099506795406341552734375</LatitudeDegrees>
              <LongitudeDegrees>-1.2454359792172908782958984375</LongitudeDegrees>
            </Position>
            <AltitudeMeters>17.6000003814697265625</AltitudeMeters>
            <DistanceMeters>NAN</DistanceMeters>
          </Trackpoint>
          <Trackpoint>
            <Time>2022-07-05T09:20:37.000Z</Time>
            <Position>
              <LatitudeDegrees>44.4421479664742946624755859375</LatitudeDegrees>
              <LongitudeDegrees>-1.245394237339496612548828125</LongitudeDegrees>
            </Position>
            <AltitudeMeters>18.799999237060546875</AltitudeMeters>
            <DistanceMeters>NAN</DistanceMeters>
          </Trackpoint>
          <Trackpoint>
            <Time>2022-07-05T09:20:38.000Z</Time>
            <Position>
              <LatitudeDegrees>44.4421503134071826934814453125</LatitudeDegrees>
              <LongitudeDegrees>-1.245387531816959381103515625</LongitudeDegrees>
            </Position>
            <AltitudeMeters>19</AltitudeMeters>
            <DistanceMeters>NAN</DistanceMeters>
          </Trackpoint>
          <Trackpoint>
            <Time>2022-07-05T09:20:39.000Z</Time>
            <Position>
              <LatitudeDegrees>44.4421503134071826934814453125</LatitudeDegrees>
              <LongitudeDegrees>-1.245387531816959381103515625</LongitudeDegrees>
            </Position>
            <AltitudeMeters>19.200000762939453125</AltitudeMeters>
            <DistanceMeters>NAN</DistanceMeters>
          </Trackpoint>
          <Trackpoint>
            <Time>2022-07-05T09:20:48.000Z</Time>
            <Position>
              <LatitudeDegrees>44.4422502256929874420166015625</LatitudeDegrees>
              <LongitudeDegrees>-1.2453286908566951751708984375</LongitudeDegrees>
            </Position>
            <AltitudeMeters>19.3999996185302734375</AltitudeMeters>
            <DistanceMeters>NAN</DistanceMeters>
          </Trackpoint>
          <Trackpoint>
            <Time>2022-07-05T09:20:50.000Z</Time>
            <Position>
              <LatitudeDegrees>44.44225064478814601898193359375</LatitudeDegrees>
              <LongitudeDegrees>-1.2453132681548595428466796875</LongitudeDegrees>
            </Position>
            <AltitudeMeters>19.200000762939453125</AltitudeMeters>
            <DistanceMeters>NAN</DistanceMeters>
          </Trackpoint>
          <Trackpoint>
            <Time>2022-07-05T09:20:52.000Z</Time>
            <Position>
              <LatitudeDegrees>44.44226673804223537445068359375</LatitudeDegrees>
              <LongitudeDegrees>-1.24530337750911712646484375</LongitudeDegrees>
            </Position>
            <AltitudeMeters>19.200000762939453125</AltitudeMeters>
            <DistanceMeters>NAN</DistanceMeters>
          </Trackpoint>
          <Trackpoint>
            <Time>2022-07-05T09:20:55.000Z</Time>
            <Position>
              <LatitudeDegrees>44.44226288236677646636962890625</LatitudeDegrees>
              <LongitudeDegrees>-1.24528636224567890167236328125</LongitudeDegrees>
            </Position>
            <AltitudeMeters>19.200000762939453125</AltitudeMeters>
            <DistanceMeters>NAN</DistanceMeters>
          </Trackpoint>
          <Trackpoint>
            <Time>2022-07-05T09:20:57.000Z</Time>
            <Position>
              <LatitudeDegrees>44.442250393331050872802734375</LatitudeDegrees>
              <LongitudeDegrees>-1.24529943801462650299072265625</LongitudeDegrees>
            </Position>
            <AltitudeMeters>19.3999996185302734375</AltitudeMeters>
            <DistanceMeters>NAN</DistanceMeters>
          </Trackpoint>
          <Trackpoint>
            <Time>2022-07-05T09:20:59.000Z</Time>
            <Position>
              <LatitudeDegrees>44.44222323596477508544921875</LatitudeDegrees>
              <LongitudeDegrees>-1.2452812492847442626953125</LongitudeDegrees>
            </Position>
            <AltitudeMeters>19.6000003814697265625</AltitudeMeters>
            <DistanceMeters>NAN</DistanceMeters>
          </Trackpoint>
          <Trackpoint>
            <Time>2022-07-05T09:21:01.000Z</Time>
            <Position>
              <LatitudeDegrees>44.4421955756843090057373046875</LatitudeDegrees>
              <LongitudeDegrees>-1.245253086090087890625</LongitudeDegrees>
            </Position>
            <AltitudeMeters>19.6000003814697265625</AltitudeMeters>
            <DistanceMeters>NAN</DistanceMeters>
          </Trackpoint>
          <Trackpoint>
            <Time>2022-07-05T09:21:02.000Z</Time>
            <Position>
              <LatitudeDegrees>44.44218610413372516632080078125</LatitudeDegrees>
              <LongitudeDegrees>-1.245253421366214752197265625</LongitudeDegrees>
            </Position>
            <AltitudeMeters>19.799999237060546875</AltitudeMeters>
            <DistanceMeters>NAN</DistanceMeters>
          </Trackpoint>
          <Trackpoint>
            <Time>2022-07-05T09:30:38.000Z</Time>
            <Position>
              <LatitudeDegrees>44.44239079020917415618896484375</LatitudeDegrees>
              <LongitudeDegrees>-1.2452093325555324554443359375</LongitudeDegrees>
            </Position>
            <AltitudeMeters>25.200000762939453125</AltitudeMeters>
            <DistanceMeters>NAN</DistanceMeters>
          </Trackpoint>
          <Trackpoint>
            <Time>2022-07-05T09:30:40.000Z</Time>
            <Position>
              <LatitudeDegrees>44.44239280186593532562255859375</LatitudeDegrees>
              <LongitudeDegrees>-1.24519667588174343109130859375</LongitudeDegrees>
            </Position>
            <AltitudeMeters>25.200000762939453125</AltitudeMeters>
            <DistanceMeters>NAN</DistanceMeters>
          </Trackpoint>
          <Trackpoint>
            <Time>2022-07-05T09:30:43.000Z</Time>
            <Position>
              <LatitudeDegrees>44.4424171932041645050048828125</LatitudeDegrees>
              <LongitudeDegrees>-1.2451959215104579925537109375</LongitudeDegrees>
            </Position>
            <AltitudeMeters>25.3999996185302734375</AltitudeMeters>
            <DistanceMeters>NAN</DistanceMeters>
          </Trackpoint>
          <Trackpoint>
            <Time>2022-07-05T09:30:44.000Z</Time>
            <Position>
              <LatitudeDegrees>44.4424363039433956146240234375</LatitudeDegrees>
              <LongitudeDegrees>-1.245196759700775146484375</LongitudeDegrees>
            </Position>
            <AltitudeMeters>25.6000003814697265625</AltitudeMeters>
            <DistanceMeters>NAN</DistanceMeters>
          </Trackpoint>
          <Trackpoint>
            <Time>2022-07-05T09:30:47.000Z</Time>
            <Position>
              <LatitudeDegrees>44.44249455817043781280517578125</LatitudeDegrees>
              <LongitudeDegrees>-1.24519717879593372344970703125</LongitudeDegrees>
            </Position>
            <AltitudeMeters>26</AltitudeMeters>
            <DistanceMeters>NAN</DistanceMeters>
          </Trackpoint>
          <Trackpoint>
            <Time>2022-07-05T09:30:51.000Z</Time>
            <Position>
              <LatitudeDegrees>44.44255524314939975738525390625</LatitudeDegrees>
              <LongitudeDegrees>-1.24516583047807216644287109375</LongitudeDegrees>
            </Position>
            <AltitudeMeters>26.3999996185302734375</AltitudeMeters>
            <DistanceMeters>NAN</DistanceMeters>
          </Trackpoint>
          <Trackpoint>
            <Time>2022-07-05T09:30:54.000Z</Time>
            <Position>
              <LatitudeDegrees>44.44252691231667995452880859375</LatitudeDegrees>
              <LongitudeDegrees>-1.2451422773301601409912109375</LongitudeDegrees>
            </Position>
            <AltitudeMeters>26.6000003814697265625</AltitudeMeters>
            <DistanceMeters>NAN</DistanceMeters>
          </Trackpoint>
          <Trackpoint>
            <Time>2022-07-05T09:30:55.000Z</Time>
            <Position>
              <LatitudeDegrees>44.44252364337444305419921875</LatitudeDegrees>
              <LongitudeDegrees>-1.24514236114919185638427734375</LongitudeDegrees>
            </Position>
            <AltitudeMeters>26.799999237060546875</AltitudeMeters>
            <DistanceMeters>NAN</DistanceMeters>
          </Trackpoint>
          <Trackpoint>
            <Time>2022-07-05T09:30:59.000Z</Time>
            <Position>
              <LatitudeDegrees>44.44246890954673290252685546875</LatitudeDegrees>
              <LongitudeDegrees>-1.24514739029109477996826171875</LongitudeDegrees>
            </Position>
            <AltitudeMeters>26.6000003814697265625</AltitudeMeters>
            <DistanceMeters>NAN</DistanceMeters>
          </Trackpoint>
          <Trackpoint>
            <Time>2022-07-05T09:31:03.000Z</Time>
            <Position>
              <LatitudeDegrees>44.44242331199347972869873046875</LatitudeDegrees>
              <LongitudeDegrees>-1.24516381882131099700927734375</LongitudeDegrees>
            </Position>
            <AltitudeMeters>26.200000762939453125</AltitudeMeters>
            <DistanceMeters>NAN</DistanceMeters>
          </Trackpoint>
          <Trackpoint>
            <Time>2022-07-05T09:31:04.000Z</Time>
            <Position>
              <LatitudeDegrees>44.4424302689731121063232421875</LatitudeDegrees>
              <LongitudeDegrees>-1.2451546825468540191650390625</LongitudeDegrees>
            </Position>
            <AltitudeMeters>26.200000762939453125</AltitudeMeters>
            <DistanceMeters>NAN</DistanceMeters>
          </Trackpoint>
          <Trackpoint>
            <Time>2022-07-05T09:31:07.000Z</Time>
            <Position>
              <LatitudeDegrees>44.44239221513271331787109375</LatitudeDegrees>
              <LongitudeDegrees>-1.24517471529543399810791015625</LongitudeDegrees>
            </Position>
            <AltitudeMeters>26.6000003814697265625</AltitudeMeters>
            <DistanceMeters>NAN</DistanceMeters>
          </Trackpoint>
          <Trackpoint>
            <Time>2022-07-05T09:31:10.000Z</Time>
            <Position>
              <LatitudeDegrees>44.44234351627528667449951171875</LatitudeDegrees>
              <LongitudeDegrees>-1.2452324666082859039306640625</LongitudeDegrees>
            </Position>
            <AltitudeMeters>26.799999237060546875</AltitudeMeters>
            <DistanceMeters>NAN</DistanceMeters>
          </Trackpoint>
          <Trackpoint>
            <Time>2022-07-05T09:31:12.000Z</Time>
            <Position>
              <LatitudeDegrees>44.44228936918079853057861328125</LatitudeDegrees>
              <LongitudeDegrees>-1.245266832411289215087890625</LongitudeDegrees>
            </Position>
            <AltitudeMeters>26.6000003814697265625</AltitudeMeters>
            <DistanceMeters>NAN</DistanceMeters>
          </Trackpoint>
          <Trackpoint>
            <Time>2022-07-05T09:31:15.000Z</Time>
            <Position>
              <LatitudeDegrees>44.442359022796154022216796875</LatitudeDegrees>
              <LongitudeDegrees>-1.2452234141528606414794921875</LongitudeDegrees>
            </Position>
            <AltitudeMeters>26.3999996185302734375</AltitudeMeters>
            <DistanceMeters>NAN</DistanceMeters>
          </Trackpoint>
          <Trackpoint>
            <Time>2022-07-05T09:31:16.000Z</Time>
            <Position>
              <LatitudeDegrees>44.442352987825870513916015625</LatitudeDegrees>
              <LongitudeDegrees>-1.24521293677389621734619140625</LongitudeDegrees>
            </Position>
            <AltitudeMeters>26.3999996185302734375</AltitudeMeters>
            <DistanceMeters>NAN</DistanceMeters>
          </Trackpoint>
          <Trackpoint>
            <Time>2022-07-05T09:31:17.000Z</Time>
            <Position>
              <LatitudeDegrees>44.44230931811034679412841796875</LatitudeDegrees>
              <LongitudeDegrees>-1.2451828457415103912353515625</LongitudeDegrees>
            </Position>
            <AltitudeMeters>26.200000762939453125</AltitudeMeters>
            <DistanceMeters>NAN</DistanceMeters>
          </Trackpoint>
          <Trackpoint>
            <Time>2022-07-05T09:31:19.000Z</Time>
            <Position>
              <LatitudeDegrees>44.4422949850559234619140625</LatitudeDegrees>
              <LongitudeDegrees>-1.24515325762331485748291015625</LongitudeDegrees>
            </Position>
            <AltitudeMeters>26.200000762939453125</AltitudeMeters>
            <DistanceMeters>NAN</DistanceMeters>
          </Trackpoint>
          <Trackpoint>
            <Time>2022-07-05T09:31:24.000Z</Time>
            <Position>
              <LatitudeDegrees>44.4423330388963222503662109375</LatitudeDegrees>
              <LongitudeDegrees>-1.24519499950110912322998046875</LongitudeDegrees>
            </Position>
            <AltitudeMeters>26.200000762939453125</AltitudeMeters>
            <DistanceMeters>NAN</DistanceMeters>
          </Trackpoint>
          <Trackpoint>
            <Time>2022-07-05T09:31:25.000Z</Time>
            <Position>
              <LatitudeDegrees>44.44235692732036113739013671875</LatitudeDegrees>
              <LongitudeDegrees>-1.2451821751892566680908203125</LongitudeDegrees>
            </Position>
            <AltitudeMeters>26.200000762939453125</AltitudeMeters>
            <DistanceMeters>NAN</DistanceMeters>
          </Trackpoint>
          <Trackpoint>
            <Time>2022-07-05T09:31:27.000Z</Time>
            <Position>
              <LatitudeDegrees>44.44236782379448413848876953125</LatitudeDegrees>
              <LongitudeDegrees>-1.245203129947185516357421875</LongitudeDegrees>
            </Position>
            <AltitudeMeters>26.200000762939453125</AltitudeMeters>
            <DistanceMeters>NAN</DistanceMeters>
          </Trackpoint>
          <Trackpoint>
            <Time>2022-07-05T09:31:29.000Z</Time>
            <Position>
              <LatitudeDegrees>44.44236564449965953826904296875</LatitudeDegrees>
              <LongitudeDegrees>-1.2452488951385021209716796875</LongitudeDegrees>
            </Position>
            <AltitudeMeters>26.200000762939453125</AltitudeMeters>
            <DistanceMeters>NAN</DistanceMeters>
          </Trackpoint>
          <Trackpoint>
            <Time>2022-07-05T09:31:31.000Z</Time>
            <Position>
              <LatitudeDegrees>44.4423508085310459136962890625</LatitudeDegrees>
              <LongitudeDegrees>-1.245300360023975372314453125</LongitudeDegrees>
            </Position>
            <AltitudeMeters>26.200000762939453125</AltitudeMeters>
            <DistanceMeters>NAN</DistanceMeters>
          </Trackpoint>
          <Trackpoint>
            <Time>2022-07-05T09:31:35.000Z</Time>
            <Position>
              <LatitudeDegrees>44.44227931089699268341064453125</LatitudeDegrees>
              <LongitudeDegrees>-1.24534352682530879974365234375</LongitudeDegrees>
            </Position>
            <AltitudeMeters>26.200000762939453125</AltitudeMeters>
            <DistanceMeters>NAN</DistanceMeters>
          </Trackpoint>
          <Trackpoint>
            <Time>2022-07-05T09:31:36.000Z</Time>
            <Position>
              <LatitudeDegrees>44.4422643072903156280517578125</LatitudeDegrees>
              <LongitudeDegrees>-1.24535241164267063140869140625</LongitudeDegrees>
            </Position>
            <AltitudeMeters>26.3999996185302734375</AltitudeMeters>
            <DistanceMeters>NAN</DistanceMeters>
          </Trackpoint>
          <Trackpoint>
            <Time>2022-07-05T09:31:42.000Z</Time>
            <Position>
              <LatitudeDegrees>44.442159198224544525146484375</LatitudeDegrees>
              <LongitudeDegrees>-1.24542382545769214630126953125</LongitudeDegrees>
            </Position>
            <AltitudeMeters>26.200000762939453125</AltitudeMeters>
            <DistanceMeters>NAN</DistanceMeters>
          </Trackpoint>
          <Trackpoint>
            <Time>2022-07-05T09:31:43.000Z</Time>
            <Position>
              <LatitudeDegrees>44.44215190596878528594970703125</LatitudeDegrees>
              <LongitudeDegrees>-1.24542634002864360809326171875</LongitudeDegrees>
            </Position>
            <AltitudeMeters>26.200000762939453125</AltitudeMeters>
            <DistanceMeters>NAN</DistanceMeters>
          </Trackpoint>
          <Trackpoint>
            <Time>2022-07-05T09:35:19.000Z</Time>
            <Position>
              <LatitudeDegrees>44.44214235059916973114013671875</LatitudeDegrees>
              <LongitudeDegrees>-1.24544645659625530242919921875</LongitudeDegrees>
            </Position>
            <AltitudeMeters>27</AltitudeMeters>
            <DistanceMeters>NAN</DistanceMeters>
          </Trackpoint>
          <Trackpoint>
            <Time>2022-07-05T09:35:21.000Z</Time>
            <Position>
              <LatitudeDegrees>44.44216934032738208770751953125</LatitudeDegrees>
              <LongitudeDegrees>-1.2454638071358203887939453125</LongitudeDegrees>
            </Position>
            <AltitudeMeters>27</AltitudeMeters>
            <DistanceMeters>NAN</DistanceMeters>
          </Trackpoint>
          <Trackpoint>
            <Time>2022-07-05T09:35:22.000Z</Time>
            <Position>
              <LatitudeDegrees>44.4421757943928241729736328125</LatitudeDegrees>
              <LongitudeDegrees>-1.24548400752246379852294921875</LongitudeDegrees>
            </Position>
            <AltitudeMeters>27.3999996185302734375</AltitudeMeters>
            <DistanceMeters>NAN</DistanceMeters>
          </Trackpoint>
          <Trackpoint>
            <Time>2022-07-05T09:35:24.000Z</Time>
            <Position>
              <LatitudeDegrees>44.442198760807514190673828125</LatitudeDegrees>
              <LongitudeDegrees>-1.245542429387569427490234375</LongitudeDegrees>
            </Position>
            <AltitudeMeters>27.799999237060546875</AltitudeMeters>
            <DistanceMeters>NAN</DistanceMeters>
          </Trackpoint>
          <Trackpoint>
            <Time>2022-07-05T09:35:25.000Z</Time>
            <Position>
              <LatitudeDegrees>44.44222097285091876983642578125</LatitudeDegrees>
              <LongitudeDegrees>-1.24555693008005619049072265625</LongitudeDegrees>
            </Position>
            <AltitudeMeters>28</AltitudeMeters>
            <DistanceMeters>NAN</DistanceMeters>
          </Trackpoint>
          <Trackpoint>
            <Time>2022-07-05T09:35:30.000Z</Time>
            <Position>
              <LatitudeDegrees>44.44232876412570476531982421875</LatitudeDegrees>
              <LongitudeDegrees>-1.2455548346042633056640625</LongitudeDegrees>
            </Position>
            <AltitudeMeters>28</AltitudeMeters>
            <DistanceMeters>NAN</DistanceMeters>
          </Trackpoint>
          <Trackpoint>
            <Time>2022-07-05T09:35:35.000Z</Time>
            <Position>
              <LatitudeDegrees>44.4424490444362163543701171875</LatitudeDegrees>
              <LongitudeDegrees>-1.245649717748165130615234375</LongitudeDegrees>
            </Position>
            <AltitudeMeters>27.799999237060546875</AltitudeMeters>
            <DistanceMeters>NAN</DistanceMeters>
          </Trackpoint>
          <Trackpoint>
            <Time>2022-07-05T09:35:37.000Z</Time>
            <Position>
              <LatitudeDegrees>44.442466311156749725341796875</LatitudeDegrees>
              <LongitudeDegrees>-1.24565474689006805419921875</LongitudeDegrees>
            </Position>
            <AltitudeMeters>27.6000003814697265625</AltitudeMeters>
            <DistanceMeters>NAN</DistanceMeters>
          </Trackpoint>
          <Trackpoint>
            <Time>2022-07-05T09:35:38.000Z</Time>
            <Position>
              <LatitudeDegrees>44.442478716373443603515625</LatitudeDegrees>
              <LongitudeDegrees>-1.24566120095551013946533203125</LongitudeDegrees>
            </Position>
            <AltitudeMeters>27.6000003814697265625</AltitudeMeters>
            <DistanceMeters>NAN</DistanceMeters>
          </Trackpoint>
          <Trackpoint>
            <Time>2022-07-05T09:35:39.000Z</Time>
            <Position>
              <LatitudeDegrees>44.44249288178980350494384765625</LatitudeDegrees>
              <LongitudeDegrees>-1.24567679129540920257568359375</LongitudeDegrees>
            </Position>
            <AltitudeMeters>27.6000003814697265625</AltitudeMeters>
            <DistanceMeters>NAN</DistanceMeters>
          </Trackpoint>
          <Trackpoint>
            <Time>2022-07-05T09:35:40.000Z</Time>
            <Position>
              <LatitudeDegrees>44.4425090588629245758056640625</LatitudeDegrees>
              <LongitudeDegrees>-1.24570042826235294342041015625</LongitudeDegrees>
            </Position>
            <AltitudeMeters>27.6000003814697265625</AltitudeMeters>
            <DistanceMeters>NAN</DistanceMeters>
          </Trackpoint>
          <Trackpoint>
            <Time>2022-07-05T09:35:43.000Z</Time>
            <Position>
              <LatitudeDegrees>44.44255909882485866546630859375</LatitudeDegrees>
              <LongitudeDegrees>-1.2458259053528308868408203125</LongitudeDegrees>
            </Position>
            <AltitudeMeters>28.200000762939453125</AltitudeMeters>
            <DistanceMeters>NAN</DistanceMeters>
          </Trackpoint>
          <Trackpoint>
            <Time>2022-07-05T09:35:45.000Z</Time>
            <Position>
              <LatitudeDegrees>44.44259027950465679168701171875</LatitudeDegrees>
              <LongitudeDegrees>-1.24592824839055538177490234375</LongitudeDegrees>
            </Position>
            <AltitudeMeters>28.3999996185302734375</AltitudeMeters>
            <DistanceMeters>NAN</DistanceMeters>
          </Trackpoint>
          <Trackpoint>
            <Time>2022-07-05T09:35:47.000Z</Time>
            <Position>
              <LatitudeDegrees>44.44262154400348663330078125</LatitudeDegrees>
              <LongitudeDegrees>-1.24603503383696079254150390625</LongitudeDegrees>
            </Position>
            <AltitudeMeters>28.3999996185302734375</AltitudeMeters>
            <DistanceMeters>NAN</DistanceMeters>
          </Trackpoint>
          <Trackpoint>
            <Time>2022-07-05T09:35:48.000Z</Time>
            <Position>
              <LatitudeDegrees>44.44263721816241741180419921875</LatitudeDegrees>
              <LongitudeDegrees>-1.24608985148370265960693359375</LongitudeDegrees>
            </Position>
            <AltitudeMeters>28.3999996185302734375</AltitudeMeters>
            <DistanceMeters>NAN</DistanceMeters>
          </Trackpoint>
          <Trackpoint>
            <Time>2022-07-05T09:35:50.000Z</Time>
            <Position>
              <LatitudeDegrees>44.4426666386425495147705078125</LatitudeDegrees>
              <LongitudeDegrees>-1.24620032496750354766845703125</LongitudeDegrees>
            </Position>
            <AltitudeMeters>28.3999996185302734375</AltitudeMeters>
            <DistanceMeters>NAN</DistanceMeters>
          </Trackpoint>
          <Trackpoint>
            <Time>2022-07-05T09:35:51.000Z</Time>
            <Position>
              <LatitudeDegrees>44.4426830671727657318115234375</LatitudeDegrees>
              <LongitudeDegrees>-1.2462527118623256683349609375</LongitudeDegrees>
            </Position>
            <AltitudeMeters>28.3999996185302734375</AltitudeMeters>
            <DistanceMeters>NAN</DistanceMeters>
          </Trackpoint>
          <Trackpoint>
            <Time>2022-07-05T09:35:57.000Z</Time>
            <Position>
              <LatitudeDegrees>44.44278256036341190338134765625</LatitudeDegrees>
              <LongitudeDegrees>-1.2465879879891872406005859375</LongitudeDegrees>
            </Position>
            <AltitudeMeters>28.6000003814697265625</AltitudeMeters>
            <DistanceMeters>NAN</DistanceMeters>
          </Trackpoint>
          <Trackpoint>
            <Time>2022-07-05T09:35:59.000Z</Time>
            <Position>
              <LatitudeDegrees>44.44281223230063915252685546875</LatitudeDegrees>
              <LongitudeDegrees>-1.24669787473976612091064453125</LongitudeDegrees>
            </Position>
            <AltitudeMeters>28.6000003814697265625</AltitudeMeters>
            <DistanceMeters>NAN</DistanceMeters>
          </Trackpoint>
          <Trackpoint>
            <Time>2022-07-05T09:36:03.000Z</Time>
            <Position>
              <LatitudeDegrees>44.4428698159754276275634765625</LatitudeDegrees>
              <LongitudeDegrees>-1.2469111941754817962646484375</LongitudeDegrees>
            </Position>
            <AltitudeMeters>28.3999996185302734375</AltitudeMeters>
            <DistanceMeters>NAN</DistanceMeters>
          </Trackpoint>
          <Trackpoint>
            <Time>2022-07-05T09:36:10.000Z</Time>
            <Position>
              <LatitudeDegrees>44.44297718815505504608154296875</LatitudeDegrees>
              <LongitudeDegrees>-1.24729701317846775054931640625</LongitudeDegrees>
            </Position>
            <AltitudeMeters>28</AltitudeMeters>
            <DistanceMeters>NAN</DistanceMeters>
          </Trackpoint>
          <Trackpoint>
            <Time>2022-07-05T09:36:13.000Z</Time>
            <Position>
              <LatitudeDegrees>44.44301675073802471160888671875</LatitudeDegrees>
              <LongitudeDegrees>-1.2474633939564228057861328125</LongitudeDegrees>
            </Position>
            <AltitudeMeters>28</AltitudeMeters>
            <DistanceMeters>NAN</DistanceMeters>
          </Trackpoint>
          <Trackpoint>
            <Time>2022-07-05T09:36:17.000Z</Time>
            <Position>
              <LatitudeDegrees>44.44309235550463199615478515625</LatitudeDegrees>
              <LongitudeDegrees>-1.24767084605991840362548828125</LongitudeDegrees>
            </Position>
            <AltitudeMeters>28</AltitudeMeters>
            <DistanceMeters>NAN</DistanceMeters>
          </Trackpoint>
          <Trackpoint>
            <Time>2022-07-05T09:36:19.000Z</Time>
            <Position>
              <LatitudeDegrees>44.4431048445403575897216796875</LatitudeDegrees>
              <LongitudeDegrees>-1.2477688305079936981201171875</LongitudeDegrees>
            </Position>
            <AltitudeMeters>27.799999237060546875</AltitudeMeters>
            <DistanceMeters>NAN</DistanceMeters>
          </Trackpoint>
          <Trackpoint>
            <Time>2022-07-05T09:36:25.000Z</Time>
            <Position>
              <LatitudeDegrees>44.44317273795604705810546875</LatitudeDegrees>
              <LongitudeDegrees>-1.24806680716574192047119140625</LongitudeDegrees>
            </Position>
            <AltitudeMeters>27.3999996185302734375</AltitudeMeters>
            <DistanceMeters>NAN</DistanceMeters>
          </Trackpoint>
          <Trackpoint>
            <Time>2022-07-05T09:36:35.000Z</Time>
            <Position>
              <LatitudeDegrees>44.44333140738308429718017578125</LatitudeDegrees>
              <LongitudeDegrees>-1.2485858984291553497314453125</LongitudeDegrees>
            </Position>
            <AltitudeMeters>27.6000003814697265625</AltitudeMeters>
            <DistanceMeters>NAN</DistanceMeters>
          </Trackpoint>
          <Trackpoint>
            <Time>2022-07-05T09:36:37.000Z</Time>
            <Position>
              <LatitudeDegrees>44.44336585700511932373046875</LatitudeDegrees>
              <LongitudeDegrees>-1.24869167804718017578125</LongitudeDegrees>
            </Position>
            <AltitudeMeters>27.3999996185302734375</AltitudeMeters>
            <DistanceMeters>NAN</DistanceMeters>
          </Trackpoint>
          <Trackpoint>
            <Time>2022-07-05T09:36:38.000Z</Time>
            <Position>
              <LatitudeDegrees>44.44337901659309864044189453125</LatitudeDegrees>
              <LongitudeDegrees>-1.24874188564717769622802734375</LongitudeDegrees>
            </Position>
            <AltitudeMeters>27.3999996185302734375</AltitudeMeters>
            <DistanceMeters>NAN</DistanceMeters>
          </Trackpoint>
          <Trackpoint>
            <Time>2022-07-05T09:36:42.000Z</Time>
            <Position>
              <LatitudeDegrees>44.4434246979653835296630859375</LatitudeDegrees>
              <LongitudeDegrees>-1.24895595945417881011962890625</LongitudeDegrees>
            </Position>
            <AltitudeMeters>27.200000762939453125</AltitudeMeters>
            <DistanceMeters>NAN</DistanceMeters>
          </Trackpoint>
          <Trackpoint>
            <Time>2022-07-05T09:36:43.000Z</Time>
            <Position>
              <LatitudeDegrees>44.4434322416782379150390625</LatitudeDegrees>
              <LongitudeDegrees>-1.2490093521773815155029296875</LongitudeDegrees>
            </Position>
            <AltitudeMeters>27.200000762939453125</AltitudeMeters>
            <DistanceMeters>NAN</DistanceMeters>
          </Trackpoint>
          <Trackpoint>
            <Time>2022-07-05T09:36:49.000Z</Time>
            <Position>
              <LatitudeDegrees>44.44353089667856693267822265625</LatitudeDegrees>
              <LongitudeDegrees>-1.249308250844478607177734375</LongitudeDegrees>
            </Position>
            <AltitudeMeters>27</AltitudeMeters>
            <DistanceMeters>NAN</DistanceMeters>
          </Trackpoint>
          <Trackpoint>
            <Time>2022-07-05T09:36:55.000Z</Time>
            <Position>
              <LatitudeDegrees>44.4435980357229709625244140625</LatitudeDegrees>
              <LongitudeDegrees>-1.24960698187351226806640625</LongitudeDegrees>
            </Position>
            <AltitudeMeters>26.799999237060546875</AltitudeMeters>
            <DistanceMeters>NAN</DistanceMeters>
          </Trackpoint>
          <Trackpoint>
            <Time>2022-07-05T09:37:03.000Z</Time>
            <Position>
              <LatitudeDegrees>44.443708173930644989013671875</LatitudeDegrees>
              <LongitudeDegrees>-1.2499853409826755523681640625</LongitudeDegrees>
            </Position>
            <AltitudeMeters>26.3999996185302734375</AltitudeMeters>
            <DistanceMeters>NAN</DistanceMeters>
          </Trackpoint>
          <Trackpoint>
            <Time>2022-07-05T09:37:10.000Z</Time>
            <Position>
              <LatitudeDegrees>44.44378017447888851165771484375</LatitudeDegrees>
              <LongitudeDegrees>-1.25025314278900623321533203125</LongitudeDegrees>
            </Position>
            <AltitudeMeters>26.200000762939453125</AltitudeMeters>
            <DistanceMeters>NAN</DistanceMeters>
          </Trackpoint>
          <Trackpoint>
            <Time>2022-07-05T09:37:11.000Z</Time>
            <Position>
              <LatitudeDegrees>44.443787299096584320068359375</LatitudeDegrees>
              <LongitudeDegrees>-1.250284574925899505615234375</LongitudeDegrees>
            </Position>
            <AltitudeMeters>26</AltitudeMeters>
            <DistanceMeters>NAN</DistanceMeters>
          </Trackpoint>
          <Trackpoint>
            <Time>2022-07-05T09:37:13.000Z</Time>
            <Position>
              <LatitudeDegrees>44.443803727626800537109375</LatitudeDegrees>
              <LongitudeDegrees>-1.2503460980951786041259765625</LongitudeDegrees>
            </Position>
            <AltitudeMeters>26</AltitudeMeters>
            <DistanceMeters>NAN</DistanceMeters>
          </Trackpoint>
          <Trackpoint>
            <Time>2022-07-05T09:37:19.000Z</Time>
            <Position>
              <LatitudeDegrees>44.443912021815776824951171875</LatitudeDegrees>
              <LongitudeDegrees>-1.25048766843974590301513671875</LongitudeDegrees>
            </Position>
            <AltitudeMeters>25.799999237060546875</AltitudeMeters>
            <DistanceMeters>NAN</DistanceMeters>
          </Trackpoint>
          <Trackpoint>
            <Time>2022-07-05T09:37:22.000Z</Time>
            <Position>
              <LatitudeDegrees>44.4439654983580112457275390625</LatitudeDegrees>
              <LongitudeDegrees>-1.2505720742046833038330078125</LongitudeDegrees>
            </Position>
            <AltitudeMeters>26.200000762939453125</AltitudeMeters>
            <DistanceMeters>NAN</DistanceMeters>
          </Trackpoint>
          <Trackpoint>
            <Time>2022-07-05T09:37:24.000Z</Time>
            <Position>
              <LatitudeDegrees>44.44397832266986370086669921875</LatitudeDegrees>
              <LongitudeDegrees>-1.25063720159232616424560546875</LongitudeDegrees>
            </Position>
            <AltitudeMeters>26.200000762939453125</AltitudeMeters>
            <DistanceMeters>NAN</DistanceMeters>
          </Trackpoint>
          <Trackpoint>
            <Time>2022-07-05T09:37:29.000Z</Time>
            <Position>
              <LatitudeDegrees>44.4440335594117641448974609375</LatitudeDegrees>
              <LongitudeDegrees>-1.250835768878459930419921875</LongitudeDegrees>
            </Position>
            <AltitudeMeters>26.200000762939453125</AltitudeMeters>
            <DistanceMeters>NAN</DistanceMeters>
          </Trackpoint>
          <Trackpoint>
            <Time>2022-07-05T09:37:31.000Z</Time>
            <Position>
              <LatitudeDegrees>44.44406163878738880157470703125</LatitudeDegrees>
              <LongitudeDegrees>-1.25091430731117725372314453125</LongitudeDegrees>
            </Position>
            <AltitudeMeters>26</AltitudeMeters>
            <DistanceMeters>NAN</DistanceMeters>
          </Trackpoint>
          <Trackpoint>
            <Time>2022-07-05T09:37:34.000Z</Time>
            <Position>
              <LatitudeDegrees>44.44410145282745361328125</LatitudeDegrees>
              <LongitudeDegrees>-1.25103986822068691253662109375</LongitudeDegrees>
            </Position>
            <AltitudeMeters>25.799999237060546875</AltitudeMeters>
            <DistanceMeters>NAN</DistanceMeters>
          </Trackpoint>
          <Trackpoint>
            <Time>2022-07-05T09:37:37.000Z</Time>
            <Position>
              <LatitudeDegrees>44.4441133551299571990966796875</LatitudeDegrees>
              <LongitudeDegrees>-1.25118604861199855804443359375</LongitudeDegrees>
            </Position>
            <AltitudeMeters>26</AltitudeMeters>
            <DistanceMeters>NAN</DistanceMeters>
          </Trackpoint>
          <Trackpoint>
            <Time>2022-07-05T09:37:44.000Z</Time>
            <Position>
              <LatitudeDegrees>44.44412433542311191558837890625</LatitudeDegrees>
              <LongitudeDegrees>-1.251519732177257537841796875</LongitudeDegrees>
            </Position>
            <AltitudeMeters>25.799999237060546875</AltitudeMeters>
            <DistanceMeters>NAN</DistanceMeters>
          </Trackpoint>
          <Trackpoint>
            <Time>2022-07-05T09:37:48.000Z</Time>
            <Position>
              <LatitudeDegrees>44.44413925521075725555419921875</LatitudeDegrees>
              <LongitudeDegrees>-1.251724250614643096923828125</LongitudeDegrees>
            </Position>
            <AltitudeMeters>25.3999996185302734375</AltitudeMeters>
            <DistanceMeters>NAN</DistanceMeters>
          </Trackpoint>
          <Trackpoint>
            <Time>2022-07-05T09:37:50.000Z</Time>
            <Position>
              <LatitudeDegrees>44.444142691791057586669921875</LatitudeDegrees>
              <LongitudeDegrees>-1.2518162839114665985107421875</LongitudeDegrees>
            </Position>
            <AltitudeMeters>25.200000762939453125</AltitudeMeters>
            <DistanceMeters>NAN</DistanceMeters>
          </Trackpoint>
          <Trackpoint>
            <Time>2022-07-05T09:37:52.000Z</Time>
            <Position>
              <LatitudeDegrees>44.4441499002277851104736328125</LatitudeDegrees>
              <LongitudeDegrees>-1.251886188983917236328125</LongitudeDegrees>
            </Position>
            <AltitudeMeters>25</AltitudeMeters>
            <DistanceMeters>NAN</DistanceMeters>
          </Trackpoint>
          <Trackpoint>
            <Time>2022-07-05T09:37:54.000Z</Time>
            <Position>
              <LatitudeDegrees>44.4441579468548297882080078125</LatitudeDegrees>
              <LongitudeDegrees>-1.25195466913282871246337890625</LongitudeDegrees>
            </Position>
            <AltitudeMeters>25</AltitudeMeters>
            <DistanceMeters>NAN</DistanceMeters>
          </Trackpoint>
          <Trackpoint>
            <Time>2022-07-05T09:37:57.000Z</Time>
            <Position>
              <LatitudeDegrees>44.44416440092027187347412109375</LatitudeDegrees>
              <LongitudeDegrees>-1.25202122144401073455810546875</LongitudeDegrees>
            </Position>
            <AltitudeMeters>24.6000003814697265625</AltitudeMeters>
            <DistanceMeters>NAN</DistanceMeters>
          </Trackpoint>
          <Trackpoint>
            <Time>2022-07-05T09:38:00.000Z</Time>
            <Position>
              <LatitudeDegrees>44.4441673345863819122314453125</LatitudeDegrees>
              <LongitudeDegrees>-1.25205558724701404571533203125</LongitudeDegrees>
            </Position>
            <AltitudeMeters>24.3999996185302734375</AltitudeMeters>
            <DistanceMeters>NAN</DistanceMeters>
          </Trackpoint>
          <Trackpoint>
            <Time>2022-07-05T09:38:06.000Z</Time>
            <Position>
              <LatitudeDegrees>44.4442726112902164459228515625</LatitudeDegrees>
              <LongitudeDegrees>-1.25208609737455844879150390625</LongitudeDegrees>
            </Position>
            <AltitudeMeters>24.6000003814697265625</AltitudeMeters>
            <DistanceMeters>NAN</DistanceMeters>
          </Trackpoint>
          <Trackpoint>
            <Time>2022-07-05T09:38:11.000Z</Time>
            <Position>
              <LatitudeDegrees>44.44441887550055980682373046875</LatitudeDegrees>
              <LongitudeDegrees>-1.25208534300327301025390625</LongitudeDegrees>
            </Position>
            <AltitudeMeters>24.799999237060546875</AltitudeMeters>
            <DistanceMeters>NAN</DistanceMeters>
          </Trackpoint>
          <Trackpoint>
            <Time>2022-07-05T09:38:15.000Z</Time>
            <Position>
              <LatitudeDegrees>44.44452733732759952545166015625</LatitudeDegrees>
              <LongitudeDegrees>-1.25209665857255458831787109375</LongitudeDegrees>
            </Position>
            <AltitudeMeters>24.6000003814697265625</AltitudeMeters>
            <DistanceMeters>NAN</DistanceMeters>
          </Trackpoint>
          <Trackpoint>
            <Time>2022-07-05T09:38:19.000Z</Time>
            <Position>
              <LatitudeDegrees>44.44454242475330829620361328125</LatitudeDegrees>
              <LongitudeDegrees>-1.25225163996219635009765625</LongitudeDegrees>
            </Position>
            <AltitudeMeters>24.3999996185302734375</AltitudeMeters>
            <DistanceMeters>NAN</DistanceMeters>
          </Trackpoint>
          <Trackpoint>
            <Time>2022-07-05T09:38:25.000Z</Time>
            <Position>
              <LatitudeDegrees>44.4445649720728397369384765625</LatitudeDegrees>
              <LongitudeDegrees>-1.2525066174566745758056640625</LongitudeDegrees>
            </Position>
            <AltitudeMeters>24.3999996185302734375</AltitudeMeters>
            <DistanceMeters>NAN</DistanceMeters>
          </Trackpoint>
          <Trackpoint>
            <Time>2022-07-05T09:38:32.000Z</Time>
            <Position>
              <LatitudeDegrees>44.44457419216632843017578125</LatitudeDegrees>
              <LongitudeDegrees>-1.25278011895716190338134765625</LongitudeDegrees>
            </Position>
            <AltitudeMeters>24.3999996185302734375</AltitudeMeters>
            <DistanceMeters>NAN</DistanceMeters>
          </Trackpoint>
          <Trackpoint>
            <Time>2022-07-05T09:38:37.000Z</Time>
            <Position>
              <LatitudeDegrees>44.4445887766778469085693359375</LatitudeDegrees>
              <LongitudeDegrees>-1.25292914919555187225341796875</LongitudeDegrees>
            </Position>
            <AltitudeMeters>24.3999996185302734375</AltitudeMeters>
            <DistanceMeters>NAN</DistanceMeters>
          </Trackpoint>
          <Trackpoint>
            <Time>2022-07-05T09:38:40.000Z</Time>
            <Position>
              <LatitudeDegrees>44.444605372846126556396484375</LatitudeDegrees>
              <LongitudeDegrees>-1.253022439777851104736328125</LongitudeDegrees>
            </Position>
            <AltitudeMeters>24.200000762939453125</AltitudeMeters>
            <DistanceMeters>NAN</DistanceMeters>
          </Trackpoint>
          <Trackpoint>
            <Time>2022-07-05T09:38:42.000Z</Time>
            <Position>
              <LatitudeDegrees>44.44461132399737834930419921875</LatitudeDegrees>
              <LongitudeDegrees>-1.2530703842639923095703125</LongitudeDegrees>
            </Position>
            <AltitudeMeters>24</AltitudeMeters>
            <DistanceMeters>NAN</DistanceMeters>
          </Trackpoint>
          <Trackpoint>
            <Time>2022-07-05T09:38:43.000Z</Time>
            <Position>
              <LatitudeDegrees>44.444608055055141448974609375</LatitudeDegrees>
              <LongitudeDegrees>-1.25310164876282215118408203125</LongitudeDegrees>
            </Position>
            <AltitudeMeters>23.799999237060546875</AltitudeMeters>
            <DistanceMeters>NAN</DistanceMeters>
          </Trackpoint>
          <Trackpoint>
            <Time>2022-07-05T09:38:49.000Z</Time>
            <Position>
              <LatitudeDegrees>44.4446122460067272186279296875</LatitudeDegrees>
              <LongitudeDegrees>-1.25332276336848735809326171875</LongitudeDegrees>
            </Position>
            <AltitudeMeters>23.799999237060546875</AltitudeMeters>
            <DistanceMeters>NAN</DistanceMeters>
          </Trackpoint>
          <Trackpoint>
            <Time>2022-07-05T09:38:55.000Z</Time>
            <Position>
              <LatitudeDegrees>44.44462154991924762725830078125</LatitudeDegrees>
              <LongitudeDegrees>-1.253546141088008880615234375</LongitudeDegrees>
            </Position>
            <AltitudeMeters>23.799999237060546875</AltitudeMeters>
            <DistanceMeters>NAN</DistanceMeters>
          </Trackpoint>
          <Trackpoint>
            <Time>2022-07-05T09:38:59.000Z</Time>
            <Position>
              <LatitudeDegrees>44.44463496096432209014892578125</LatitudeDegrees>
              <LongitudeDegrees>-1.2536931596696376800537109375</LongitudeDegrees>
            </Position>
            <AltitudeMeters>23.799999237060546875</AltitudeMeters>
            <DistanceMeters>NAN</DistanceMeters>
          </Trackpoint>
          <Trackpoint>
            <Time>2022-07-05T09:39:05.000Z</Time>
            <Position>
              <LatitudeDegrees>44.44468005560338497161865234375</LatitudeDegrees>
              <LongitudeDegrees>-1.25389625318348407745361328125</LongitudeDegrees>
            </Position>
            <AltitudeMeters>23.799999237060546875</AltitudeMeters>
            <DistanceMeters>NAN</DistanceMeters>
          </Trackpoint>
          <Trackpoint>
            <Time>2022-07-05T09:39:11.000Z</Time>
            <Position>
              <LatitudeDegrees>44.44468843750655651092529296875</LatitudeDegrees>
              <LongitudeDegrees>-1.25407562591135501861572265625</LongitudeDegrees>
            </Position>
            <AltitudeMeters>23.799999237060546875</AltitudeMeters>
            <DistanceMeters>NAN</DistanceMeters>
          </Trackpoint>
          <Trackpoint>
            <Time>2022-07-05T09:39:16.000Z</Time>
            <Position>
              <LatitudeDegrees>44.4446903653442859649658203125</LatitudeDegrees>
              <LongitudeDegrees>-1.2542624585330486297607421875</LongitudeDegrees>
            </Position>
            <AltitudeMeters>24</AltitudeMeters>
            <DistanceMeters>NAN</DistanceMeters>
          </Trackpoint>
          <Trackpoint>
            <Time>2022-07-05T09:39:19.000Z</Time>
            <Position>
              <LatitudeDegrees>44.4446907006204128265380859375</LatitudeDegrees>
              <LongitudeDegrees>-1.25436195172369480133056640625</LongitudeDegrees>
            </Position>
            <AltitudeMeters>24.200000762939453125</AltitudeMeters>
            <DistanceMeters>NAN</DistanceMeters>
          </Trackpoint>
          <Trackpoint>
            <Time>2022-07-05T09:39:26.000Z</Time>
            <Position>
              <LatitudeDegrees>44.44466949440538883209228515625</LatitudeDegrees>
              <LongitudeDegrees>-1.2545920349657535552978515625</LongitudeDegrees>
            </Position>
            <AltitudeMeters>24.799999237060546875</AltitudeMeters>
            <DistanceMeters>NAN</DistanceMeters>
          </Trackpoint>
          <Trackpoint>
            <Time>2022-07-05T09:39:33.000Z</Time>
            <Position>
              <LatitudeDegrees>44.44470821879804134368896484375</LatitudeDegrees>
              <LongitudeDegrees>-1.25482614152133464813232421875</LongitudeDegrees>
            </Position>
            <AltitudeMeters>25.200000762939453125</AltitudeMeters>
            <DistanceMeters>NAN</DistanceMeters>
          </Trackpoint>
          <Trackpoint>
            <Time>2022-07-05T09:39:41.000Z</Time>
            <Position>
              <LatitudeDegrees>44.44474317133426666259765625</LatitudeDegrees>
              <LongitudeDegrees>-1.25506133772432804107666015625</LongitudeDegrees>
            </Position>
            <AltitudeMeters>25.799999237060546875</AltitudeMeters>
            <DistanceMeters>NAN</DistanceMeters>
          </Trackpoint>
          <Trackpoint>
            <Time>2022-07-05T09:39:46.000Z</Time>
            <Position>
              <LatitudeDegrees>44.444759599864482879638671875</LatitudeDegrees>
              <LongitudeDegrees>-1.25521556474268436431884765625</LongitudeDegrees>
            </Position>
            <AltitudeMeters>26.3999996185302734375</AltitudeMeters>
            <DistanceMeters>NAN</DistanceMeters>
          </Trackpoint>
          <Trackpoint>
            <Time>2022-07-05T09:39:51.000Z</Time>
            <Position>
              <LatitudeDegrees>44.4447688199579715728759765625</LatitudeDegrees>
              <LongitudeDegrees>-1.255366019904613494873046875</LongitudeDegrees>
            </Position>
            <AltitudeMeters>26.799999237060546875</AltitudeMeters>
            <DistanceMeters>NAN</DistanceMeters>
          </Trackpoint>
          <Trackpoint>
            <Time>2022-07-05T09:39:55.000Z</Time>
            <Position>
              <LatitudeDegrees>44.4447852484881877899169921875</LatitudeDegrees>
              <LongitudeDegrees>-1.25549166463315486907958984375</LongitudeDegrees>
            </Position>
            <AltitudeMeters>27</AltitudeMeters>
            <DistanceMeters>NAN</DistanceMeters>
          </Trackpoint>
          <Trackpoint>
            <Time>2022-07-05T09:39:59.000Z</Time>
            <Position>
              <LatitudeDegrees>44.44480477832257747650146484375</LatitudeDegrees>
              <LongitudeDegrees>-1.255617476999759674072265625</LongitudeDegrees>
            </Position>
            <AltitudeMeters>27.200000762939453125</AltitudeMeters>
            <DistanceMeters>NAN</DistanceMeters>
          </Trackpoint>
          <Trackpoint>
            <Time>2022-07-05T09:40:01.000Z</Time>
            <Position>
              <LatitudeDegrees>44.44478566758334636688232421875</LatitudeDegrees>
              <LongitudeDegrees>-1.25568084418773651123046875</LongitudeDegrees>
            </Position>
            <AltitudeMeters>27.200000762939453125</AltitudeMeters>
            <DistanceMeters>NAN</DistanceMeters>
          </Trackpoint>
          <Trackpoint>
            <Time>2022-07-05T09:40:02.000Z</Time>
            <Position>
              <LatitudeDegrees>44.444785751402378082275390625</LatitudeDegrees>
              <LongitudeDegrees>-1.2557135336101055145263671875</LongitudeDegrees>
            </Position>
            <AltitudeMeters>27.200000762939453125</AltitudeMeters>
            <DistanceMeters>NAN</DistanceMeters>
          </Trackpoint>
          <Trackpoint>
            <Time>2022-07-05T09:40:05.000Z</Time>
            <Position>
              <LatitudeDegrees>44.44482908584177494049072265625</LatitudeDegrees>
              <LongitudeDegrees>-1.255783773958683013916015625</LongitudeDegrees>
            </Position>
            <AltitudeMeters>27.200000762939453125</AltitudeMeters>
            <DistanceMeters>NAN</DistanceMeters>
          </Trackpoint>
          <Trackpoint>
            <Time>2022-07-05T09:40:13.000Z</Time>
            <Position>
              <LatitudeDegrees>44.4449662975966930389404296875</LatitudeDegrees>
              <LongitudeDegrees>-1.25587999820709228515625</LongitudeDegrees>
            </Position>
            <AltitudeMeters>26.799999237060546875</AltitudeMeters>
            <DistanceMeters>NAN</DistanceMeters>
          </Trackpoint>
          <Trackpoint>
            <Time>2022-07-05T09:40:14.000Z</Time>
            <Position>
              <LatitudeDegrees>44.44497157819569110870361328125</LatitudeDegrees>
              <LongitudeDegrees>-1.2558845244348049163818359375</LongitudeDegrees>
            </Position>
            <AltitudeMeters>26.6000003814697265625</AltitudeMeters>
            <DistanceMeters>NAN</DistanceMeters>
          </Trackpoint>
          <Trackpoint>
            <Time>2022-07-05T09:40:17.000Z</Time>
            <Position>
              <LatitudeDegrees>44.4450155831873416900634765625</LatitudeDegrees>
              <LongitudeDegrees>-1.2558593787252902984619140625</LongitudeDegrees>
            </Position>
            <AltitudeMeters>26.3999996185302734375</AltitudeMeters>
            <DistanceMeters>NAN</DistanceMeters>
          </Trackpoint>
          <Trackpoint>
            <Time>2022-07-05T09:40:19.000Z</Time>
            <Position>
              <LatitudeDegrees>44.4450511224567890167236328125</LatitudeDegrees>
              <LongitudeDegrees>-1.2558345682919025421142578125</LongitudeDegrees>
            </Position>
            <AltitudeMeters>26.3999996185302734375</AltitudeMeters>
            <DistanceMeters>NAN</DistanceMeters>
          </Trackpoint>
          <Trackpoint>
            <Time>2022-07-05T09:40:21.000Z</Time>
            <Position>
              <LatitudeDegrees>44.44509780965745449066162109375</LatitudeDegrees>
              <LongitudeDegrees>-1.25582124106585979461669921875</LongitudeDegrees>
            </Position>
            <AltitudeMeters>26.3999996185302734375</AltitudeMeters>
            <DistanceMeters>NAN</DistanceMeters>
          </Trackpoint>
          <Trackpoint>
            <Time>2022-07-05T09:40:24.000Z</Time>
            <Position>
              <LatitudeDegrees>44.44517944939434528350830078125</LatitudeDegrees>
              <LongitudeDegrees>-1.255800537765026092529296875</LongitudeDegrees>
            </Position>
            <AltitudeMeters>26.6000003814697265625</AltitudeMeters>
            <DistanceMeters>NAN</DistanceMeters>
          </Trackpoint>
          <Trackpoint>
            <Time>2022-07-05T09:40:28.000Z</Time>
            <Position>
              <LatitudeDegrees>44.445296041667461395263671875</LatitudeDegrees>
              <LongitudeDegrees>-1.25579156912863254547119140625</LongitudeDegrees>
            </Position>
            <AltitudeMeters>26.799999237060546875</AltitudeMeters>
            <DistanceMeters>NAN</DistanceMeters>
          </Trackpoint>
          <Trackpoint>
            <Time>2022-07-05T09:40:32.000Z</Time>
            <Position>
              <LatitudeDegrees>44.44541506469249725341796875</LatitudeDegrees>
              <LongitudeDegrees>-1.2557742185890674591064453125</LongitudeDegrees>
            </Position>
            <AltitudeMeters>26.799999237060546875</AltitudeMeters>
            <DistanceMeters>NAN</DistanceMeters>
          </Trackpoint>
          <Trackpoint>
            <Time>2022-07-05T09:40:34.000Z</Time>
            <Position>
              <LatitudeDegrees>44.44547197781503200531005859375</LatitudeDegrees>
              <LongitudeDegrees>-1.255756951868534088134765625</LongitudeDegrees>
            </Position>
            <AltitudeMeters>26.799999237060546875</AltitudeMeters>
            <DistanceMeters>NAN</DistanceMeters>
          </Trackpoint>
          <Trackpoint>
            <Time>2022-07-05T09:40:36.000Z</Time>
            <Position>
              <LatitudeDegrees>44.44552562199532985687255859375</LatitudeDegrees>
              <LongitudeDegrees>-1.25574546866118907928466796875</LongitudeDegrees>
            </Position>
            <AltitudeMeters>26.799999237060546875</AltitudeMeters>
            <DistanceMeters>NAN</DistanceMeters>
          </Trackpoint>
          <Trackpoint>
            <Time>2022-07-05T09:40:41.000Z</Time>
            <Position>
              <LatitudeDegrees>44.4456536136567592620849609375</LatitudeDegrees>
              <LongitudeDegrees>-1.25572032295167446136474609375</LongitudeDegrees>
            </Position>
            <AltitudeMeters>26.6000003814697265625</AltitudeMeters>
            <DistanceMeters>NAN</DistanceMeters>
          </Trackpoint>
          <Trackpoint>
            <Time>2022-07-05T09:40:49.000Z</Time>
            <Position>
              <LatitudeDegrees>44.44585503078997135162353515625</LatitudeDegrees>
              <LongitudeDegrees>-1.255740188062191009521484375</LongitudeDegrees>
            </Position>
            <AltitudeMeters>26.799999237060546875</AltitudeMeters>
            <DistanceMeters>NAN</DistanceMeters>
          </Trackpoint>
          <Trackpoint>
            <Time>2022-07-05T09:40:51.000Z</Time>
            <Position>
              <LatitudeDegrees>44.44588436745107173919677734375</LatitudeDegrees>
              <LongitudeDegrees>-1.25577245838940143585205078125</LongitudeDegrees>
            </Position>
            <AltitudeMeters>26.6000003814697265625</AltitudeMeters>
            <DistanceMeters>NAN</DistanceMeters>
          </Trackpoint>
          <Trackpoint>
            <Time>2022-07-05T09:40:53.000Z</Time>
            <Position>
              <LatitudeDegrees>44.44589006714522838592529296875</LatitudeDegrees>
              <LongitudeDegrees>-1.25580489635467529296875</LongitudeDegrees>
            </Position>
            <AltitudeMeters>26.6000003814697265625</AltitudeMeters>
            <DistanceMeters>NAN</DistanceMeters>
          </Trackpoint>
          <Trackpoint>
            <Time>2022-07-05T09:41:01.000Z</Time>
            <Position>
              <LatitudeDegrees>44.44590590894222259521484375</LatitudeDegrees>
              <LongitudeDegrees>-1.25597597099840641021728515625</LongitudeDegrees>
            </Position>
            <AltitudeMeters>25.6000003814697265625</AltitudeMeters>
            <DistanceMeters>NAN</DistanceMeters>
          </Trackpoint>
          <Trackpoint>
            <Time>2022-07-05T09:41:04.000Z</Time>
            <Position>
              <LatitudeDegrees>44.44590146653354167938232421875</LatitudeDegrees>
              <LongitudeDegrees>-1.25603313557803630828857421875</LongitudeDegrees>
            </Position>
            <AltitudeMeters>25.200000762939453125</AltitudeMeters>
            <DistanceMeters>NAN</DistanceMeters>
          </Trackpoint>
          <Trackpoint>
            <Time>2022-07-05T09:41:09.000Z</Time>
            <Position>
              <LatitudeDegrees>44.4458980299532413482666015625</LatitudeDegrees>
              <LongitudeDegrees>-1.2560846842825412750244140625</LongitudeDegrees>
            </Position>
            <AltitudeMeters>24.200000762939453125</AltitudeMeters>
            <DistanceMeters>NAN</DistanceMeters>
          </Trackpoint>
          <Trackpoint>
            <Time>2022-07-05T09:41:10.000Z</Time>
            <Position>
              <LatitudeDegrees>44.44589576683938503265380859375</LatitudeDegrees>
              <LongitudeDegrees>-1.2560870312154293060302734375</LongitudeDegrees>
            </Position>
            <AltitudeMeters>23.799999237060546875</AltitudeMeters>
            <DistanceMeters>NAN</DistanceMeters>
          </Trackpoint>
          <Trackpoint>
            <Time>2022-07-05T10:18:41.000Z</Time>
            <Position>
              <LatitudeDegrees>44.44581328891217708587646484375</LatitudeDegrees>
              <LongitudeDegrees>-1.2557225860655307769775390625</LongitudeDegrees>
            </Position>
            <AltitudeMeters>19.3999996185302734375</AltitudeMeters>
            <DistanceMeters>NAN</DistanceMeters>
          </Trackpoint>
          <Trackpoint>
            <Time>2022-07-05T10:18:42.000Z</Time>
            <Position>
              <LatitudeDegrees>44.44579551927745342254638671875</LatitudeDegrees>
              <LongitudeDegrees>-1.2557135336101055145263671875</LongitudeDegrees>
            </Position>
            <AltitudeMeters>19.3999996185302734375</AltitudeMeters>
            <DistanceMeters>NAN</DistanceMeters>
          </Trackpoint>
          <Trackpoint>
            <Time>2022-07-05T10:18:43.000Z</Time>
            <Position>
              <LatitudeDegrees>44.44577674381434917449951171875</LatitudeDegrees>
              <LongitudeDegrees>-1.2557078339159488677978515625</LongitudeDegrees>
            </Position>
            <AltitudeMeters>19.3999996185302734375</AltitudeMeters>
            <DistanceMeters>NAN</DistanceMeters>
          </Trackpoint>
          <Trackpoint>
            <Time>2022-07-05T10:18:50.000Z</Time>
            <Position>
              <LatitudeDegrees>44.44562654010951519012451171875</LatitudeDegrees>
              <LongitudeDegrees>-1.25569014810025691986083984375</LongitudeDegrees>
            </Position>
            <AltitudeMeters>19.3999996185302734375</AltitudeMeters>
            <DistanceMeters>NAN</DistanceMeters>
          </Trackpoint>
          <Trackpoint>
            <Time>2022-07-05T10:18:57.000Z</Time>
            <Position>
              <LatitudeDegrees>44.44553308188915252685546875</LatitudeDegrees>
              <LongitudeDegrees>-1.255636923015117645263671875</LongitudeDegrees>
            </Position>
            <AltitudeMeters>19</AltitudeMeters>
            <DistanceMeters>NAN</DistanceMeters>
          </Trackpoint>
          <Trackpoint>
            <Time>2022-07-05T10:18:58.000Z</Time>
            <Position>
              <LatitudeDegrees>44.445532076060771942138671875</LatitudeDegrees>
              <LongitudeDegrees>-1.2556360848248004913330078125</LongitudeDegrees>
            </Position>
            <AltitudeMeters>19</AltitudeMeters>
            <DistanceMeters>NAN</DistanceMeters>
          </Trackpoint>
          <Trackpoint>
            <Time>2022-07-05T10:19:04.000Z</Time>
            <Position>
              <LatitudeDegrees>44.44547382183372974395751953125</LatitudeDegrees>
              <LongitudeDegrees>-1.25562996603548526763916015625</LongitudeDegrees>
            </Position>
            <AltitudeMeters>18.799999237060546875</AltitudeMeters>
            <DistanceMeters>NAN</DistanceMeters>
          </Trackpoint>
          <Trackpoint>
            <Time>2022-07-05T10:19:06.000Z</Time>
            <Position>
              <LatitudeDegrees>44.44544448517262935638427734375</LatitudeDegrees>
              <LongitudeDegrees>-1.2556166388094425201416015625</LongitudeDegrees>
            </Position>
            <AltitudeMeters>18.6000003814697265625</AltitudeMeters>
            <DistanceMeters>NAN</DistanceMeters>
          </Trackpoint>
          <Trackpoint>
            <Time>2022-07-05T10:19:10.000Z</Time>
            <Position>
              <LatitudeDegrees>44.445391260087490081787109375</LatitudeDegrees>
              <LongitudeDegrees>-1.25555670820176601409912109375</LongitudeDegrees>
            </Position>
            <AltitudeMeters>18.3999996185302734375</AltitudeMeters>
            <DistanceMeters>NAN</DistanceMeters>
          </Trackpoint>
          <Trackpoint>
            <Time>2022-07-05T10:19:13.000Z</Time>
            <Position>
              <LatitudeDegrees>44.4453397952020168304443359375</LatitudeDegrees>
              <LongitudeDegrees>-1.25552234239876270294189453125</LongitudeDegrees>
            </Position>
            <AltitudeMeters>18.3999996185302734375</AltitudeMeters>
            <DistanceMeters>NAN</DistanceMeters>
          </Trackpoint>
          <Trackpoint>
            <Time>2022-07-05T10:19:20.000Z</Time>
            <Position>
              <LatitudeDegrees>44.445212222635746002197265625</LatitudeDegrees>
              <LongitudeDegrees>-1.25550205819308757781982421875</LongitudeDegrees>
            </Position>
            <AltitudeMeters>18</AltitudeMeters>
            <DistanceMeters>NAN</DistanceMeters>
          </Trackpoint>
          <Trackpoint>
            <Time>2022-07-05T10:19:22.000Z</Time>
            <Position>
              <LatitudeDegrees>44.44517559371888637542724609375</LatitudeDegrees>
              <LongitudeDegrees>-1.255473308265209197998046875</LongitudeDegrees>
            </Position>
            <AltitudeMeters>18</AltitudeMeters>
            <DistanceMeters>NAN</DistanceMeters>
          </Trackpoint>
          <Trackpoint>
            <Time>2022-07-05T10:19:23.000Z</Time>
            <Position>
              <LatitudeDegrees>44.44515715353190898895263671875</LatitudeDegrees>
              <LongitudeDegrees>-1.255457885563373565673828125</LongitudeDegrees>
            </Position>
            <AltitudeMeters>17.799999237060546875</AltitudeMeters>
            <DistanceMeters>NAN</DistanceMeters>
          </Trackpoint>
          <Trackpoint>
            <Time>2022-07-05T10:19:27.000Z</Time>
            <Position>
              <LatitudeDegrees>44.4450893439352512359619140625</LatitudeDegrees>
              <LongitudeDegrees>-1.2554104439914226531982421875</LongitudeDegrees>
            </Position>
            <AltitudeMeters>17.3999996185302734375</AltitudeMeters>
            <DistanceMeters>NAN</DistanceMeters>
          </Trackpoint>
          <Trackpoint>
            <Time>2022-07-05T10:19:29.000Z</Time>
            <Position>
              <LatitudeDegrees>44.4450484402477741241455078125</LatitudeDegrees>
              <LongitudeDegrees>-1.25538487918674945831298828125</LongitudeDegrees>
            </Position>
            <AltitudeMeters>17.3999996185302734375</AltitudeMeters>
            <DistanceMeters>NAN</DistanceMeters>
          </Trackpoint>
          <Trackpoint>
            <Time>2022-07-05T10:19:32.000Z</Time>
            <Position>
              <LatitudeDegrees>44.4450427405536174774169921875</LatitudeDegrees>
              <LongitudeDegrees>-1.25537574291229248046875</LongitudeDegrees>
            </Position>
            <AltitudeMeters>17.3999996185302734375</AltitudeMeters>
            <DistanceMeters>NAN</DistanceMeters>
          </Trackpoint>
          <Trackpoint>
            <Time>2022-07-05T10:19:33.000Z</Time>
            <Position>
              <LatitudeDegrees>44.44503662176430225372314453125</LatitudeDegrees>
              <LongitudeDegrees>-1.255374066531658172607421875</LongitudeDegrees>
            </Position>
            <AltitudeMeters>17.3999996185302734375</AltitudeMeters>
            <DistanceMeters>NAN</DistanceMeters>
          </Trackpoint>
          <Trackpoint>
            <Time>2022-07-05T10:19:38.000Z</Time>
            <Position>
              <LatitudeDegrees>44.4449984841048717498779296875</LatitudeDegrees>
              <LongitudeDegrees>-1.2553641758859157562255859375</LongitudeDegrees>
            </Position>
            <AltitudeMeters>17</AltitudeMeters>
            <DistanceMeters>NAN</DistanceMeters>
          </Trackpoint>
          <Trackpoint>
            <Time>2022-07-05T10:19:40.000Z</Time>
            <Position>
              <LatitudeDegrees>44.444957412779331207275390625</LatitudeDegrees>
              <LongitudeDegrees>-1.255352608859539031982421875</LongitudeDegrees>
            </Position>
            <AltitudeMeters>16.799999237060546875</AltitudeMeters>
            <DistanceMeters>NAN</DistanceMeters>
          </Trackpoint>
          <Trackpoint>
            <Time>2022-07-05T10:19:42.000Z</Time>
            <Position>
              <LatitudeDegrees>44.4449263997375965118408203125</LatitudeDegrees>
              <LongitudeDegrees>-1.25535235740244388580322265625</LongitudeDegrees>
            </Position>
            <AltitudeMeters>16.3999996185302734375</AltitudeMeters>
            <DistanceMeters>NAN</DistanceMeters>
          </Trackpoint>
          <Trackpoint>
            <Time>2022-07-05T10:19:46.000Z</Time>
            <Position>
              <LatitudeDegrees>44.4448295049369335174560546875</LatitudeDegrees>
              <LongitudeDegrees>-1.255356967449188232421875</LongitudeDegrees>
            </Position>
            <AltitudeMeters>16.3999996185302734375</AltitudeMeters>
            <DistanceMeters>NAN</DistanceMeters>
          </Trackpoint>
          <Trackpoint>
            <Time>2022-07-05T10:19:54.000Z</Time>
            <Position>
              <LatitudeDegrees>44.44471978582441806793212890625</LatitudeDegrees>
              <LongitudeDegrees>-1.25529536046087741851806640625</LongitudeDegrees>
            </Position>
            <AltitudeMeters>16</AltitudeMeters>
            <DistanceMeters>NAN</DistanceMeters>
          </Trackpoint>
          <Trackpoint>
            <Time>2022-07-05T10:19:59.000Z</Time>
            <Position>
              <LatitudeDegrees>44.4447041116654872894287109375</LatitudeDegrees>
              <LongitudeDegrees>-1.2551143951714038848876953125</LongitudeDegrees>
            </Position>
            <AltitudeMeters>15.3999996185302734375</AltitudeMeters>
            <DistanceMeters>NAN</DistanceMeters>
          </Trackpoint>
          <Trackpoint>
            <Time>2022-07-05T10:20:00.000Z</Time>
            <Position>
              <LatitudeDegrees>44.4447024352848529815673828125</LatitudeDegrees>
              <LongitudeDegrees>-1.2550711445510387420654296875</LongitudeDegrees>
            </Position>
            <AltitudeMeters>15.19999980926513671875</AltitudeMeters>
            <DistanceMeters>NAN</DistanceMeters>
          </Trackpoint>
          <Trackpoint>
            <Time>2022-07-05T10:20:06.000Z</Time>
            <Position>
              <LatitudeDegrees>44.44468474946916103363037109375</LatitudeDegrees>
              <LongitudeDegrees>-1.25473863445222377777099609375</LongitudeDegrees>
            </Position>
            <AltitudeMeters>14.19999980926513671875</AltitudeMeters>
            <DistanceMeters>NAN</DistanceMeters>
          </Trackpoint>
          <Trackpoint>
            <Time>2022-07-05T10:20:08.000Z</Time>
            <Position>
              <LatitudeDegrees>44.44467569701373577117919921875</LatitudeDegrees>
              <LongitudeDegrees>-1.254623718559741973876953125</LongitudeDegrees>
            </Position>
            <AltitudeMeters>14</AltitudeMeters>
            <DistanceMeters>NAN</DistanceMeters>
          </Trackpoint>
          <Trackpoint>
            <Time>2022-07-05T10:20:12.000Z</Time>
            <Position>
              <LatitudeDegrees>44.4446806423366069793701171875</LatitudeDegrees>
              <LongitudeDegrees>-1.2544354610145092010498046875</LongitudeDegrees>
            </Position>
            <AltitudeMeters>13</AltitudeMeters>
            <DistanceMeters>NAN</DistanceMeters>
          </Trackpoint>
          <Trackpoint>
            <Time>2022-07-05T10:20:16.000Z</Time>
            <Position>
              <LatitudeDegrees>44.444667398929595947265625</LatitudeDegrees>
              <LongitudeDegrees>-1.25425902195274829864501953125</LongitudeDegrees>
            </Position>
            <AltitudeMeters>12.80000019073486328125</AltitudeMeters>
            <DistanceMeters>NAN</DistanceMeters>
          </Trackpoint>
          <Trackpoint>
            <Time>2022-07-05T10:20:18.000Z</Time>
            <Position>
              <LatitudeDegrees>44.4446635432541370391845703125</LatitudeDegrees>
              <LongitudeDegrees>-1.2541727721691131591796875</LongitudeDegrees>
            </Position>
            <AltitudeMeters>12.80000019073486328125</AltitudeMeters>
            <DistanceMeters>NAN</DistanceMeters>
          </Trackpoint>
          <Trackpoint>
            <Time>2022-07-05T10:20:23.000Z</Time>
            <Position>
              <LatitudeDegrees>44.4446632079780101776123046875</LatitudeDegrees>
              <LongitudeDegrees>-1.25403505750000476837158203125</LongitudeDegrees>
            </Position>
            <AltitudeMeters>12.6000003814697265625</AltitudeMeters>
            <DistanceMeters>NAN</DistanceMeters>
          </Trackpoint>
          <Trackpoint>
            <Time>2022-07-05T10:20:29.000Z</Time>
            <Position>
              <LatitudeDegrees>44.4446306861937046051025390625</LatitudeDegrees>
              <LongitudeDegrees>-1.2538024596869945526123046875</LongitudeDegrees>
            </Position>
            <AltitudeMeters>12.3999996185302734375</AltitudeMeters>
            <DistanceMeters>NAN</DistanceMeters>
          </Trackpoint>
          <Trackpoint>
            <Time>2022-07-05T10:20:33.000Z</Time>
            <Position>
              <LatitudeDegrees>44.44462657906115055084228515625</LatitudeDegrees>
              <LongitudeDegrees>-1.25365569256246089935302734375</LongitudeDegrees>
            </Position>
            <AltitudeMeters>12.19999980926513671875</AltitudeMeters>
            <DistanceMeters>NAN</DistanceMeters>
          </Trackpoint>
          <Trackpoint>
            <Time>2022-07-05T10:20:35.000Z</Time>
            <Position>
              <LatitudeDegrees>44.44462037645280361175537109375</LatitudeDegrees>
              <LongitudeDegrees>-1.25359475612640380859375</LongitudeDegrees>
            </Position>
            <AltitudeMeters>12.19999980926513671875</AltitudeMeters>
            <DistanceMeters>NAN</DistanceMeters>
          </Trackpoint>
          <Trackpoint>
            <Time>2022-07-05T10:20:36.000Z</Time>
            <Position>
              <LatitudeDegrees>44.4446162693202495574951171875</LatitudeDegrees>
              <LongitudeDegrees>-1.25357019715011119842529296875</LongitudeDegrees>
            </Position>
            <AltitudeMeters>12.19999980926513671875</AltitudeMeters>
            <DistanceMeters>NAN</DistanceMeters>
          </Trackpoint>
          <Trackpoint>
            <Time>2022-07-05T10:20:40.000Z</Time>
            <Position>
              <LatitudeDegrees>44.44462020881474018096923828125</LatitudeDegrees>
              <LongitudeDegrees>-1.25348285771906375885009765625</LongitudeDegrees>
            </Position>
            <AltitudeMeters>12</AltitudeMeters>
            <DistanceMeters>NAN</DistanceMeters>
          </Trackpoint>
          <Trackpoint>
            <Time>2022-07-05T10:20:44.000Z</Time>
            <Position>
              <LatitudeDegrees>44.4446360506117343902587890625</LatitudeDegrees>
              <LongitudeDegrees>-1.25334086827933788299560546875</LongitudeDegrees>
            </Position>
            <AltitudeMeters>12.19999980926513671875</AltitudeMeters>
            <DistanceMeters>NAN</DistanceMeters>
          </Trackpoint>
          <Trackpoint>
            <Time>2022-07-05T10:20:45.000Z</Time>
            <Position>
              <LatitudeDegrees>44.4446311891078948974609375</LatitudeDegrees>
              <LongitudeDegrees>-1.25330708920955657958984375</LongitudeDegrees>
            </Position>
            <AltitudeMeters>12.19999980926513671875</AltitudeMeters>
            <DistanceMeters>NAN</DistanceMeters>
          </Trackpoint>
          <Trackpoint>
            <Time>2022-07-05T10:20:52.000Z</Time>
            <Position>
              <LatitudeDegrees>44.44459925405681133270263671875</LatitudeDegrees>
              <LongitudeDegrees>-1.253135092556476593017578125</LongitudeDegrees>
            </Position>
            <AltitudeMeters>12.3999996185302734375</AltitudeMeters>
            <DistanceMeters>NAN</DistanceMeters>
          </Trackpoint>
          <Trackpoint>
            <Time>2022-07-05T10:20:58.000Z</Time>
            <Position>
              <LatitudeDegrees>44.444584585726261138916015625</LatitudeDegrees>
              <LongitudeDegrees>-1.25294339843094348907470703125</LongitudeDegrees>
            </Position>
            <AltitudeMeters>12.19999980926513671875</AltitudeMeters>
            <DistanceMeters>NAN</DistanceMeters>
          </Trackpoint>
          <Trackpoint>
            <Time>2022-07-05T10:21:00.000Z</Time>
            <Position>
              <LatitudeDegrees>44.44457444362342357635498046875</LatitudeDegrees>
              <LongitudeDegrees>-1.25288388691842555999755859375</LongitudeDegrees>
            </Position>
            <AltitudeMeters>12.19999980926513671875</AltitudeMeters>
            <DistanceMeters>NAN</DistanceMeters>
          </Trackpoint>
          <Trackpoint>
            <Time>2022-07-05T10:21:03.000Z</Time>
            <Position>
              <LatitudeDegrees>44.44458131678402423858642578125</LatitudeDegrees>
              <LongitudeDegrees>-1.25279185362160205841064453125</LongitudeDegrees>
            </Position>
            <AltitudeMeters>12.19999980926513671875</AltitudeMeters>
            <DistanceMeters>NAN</DistanceMeters>
          </Trackpoint>
          <Trackpoint>
            <Time>2022-07-05T10:21:05.000Z</Time>
            <Position>
              <LatitudeDegrees>44.4445777125656604766845703125</LatitudeDegrees>
              <LongitudeDegrees>-1.25272236764430999755859375</LongitudeDegrees>
            </Position>
            <AltitudeMeters>12.3999996185302734375</AltitudeMeters>
            <DistanceMeters>NAN</DistanceMeters>
          </Trackpoint>
          <Trackpoint>
            <Time>2022-07-05T10:21:07.000Z</Time>
            <Position>
              <LatitudeDegrees>44.44458349607884883880615234375</LatitudeDegrees>
              <LongitudeDegrees>-1.2526561506092548370361328125</LongitudeDegrees>
            </Position>
            <AltitudeMeters>12.3999996185302734375</AltitudeMeters>
            <DistanceMeters>NAN</DistanceMeters>
          </Trackpoint>
          <Trackpoint>
            <Time>2022-07-05T10:21:13.000Z</Time>
            <Position>
              <LatitudeDegrees>44.4445425085723400115966796875</LatitudeDegrees>
              <LongitudeDegrees>-1.252490021288394927978515625</LongitudeDegrees>
            </Position>
            <AltitudeMeters>12.6000003814697265625</AltitudeMeters>
            <DistanceMeters>NAN</DistanceMeters>
          </Trackpoint>
          <Trackpoint>
            <Time>2022-07-05T10:21:20.000Z</Time>
            <Position>
              <LatitudeDegrees>44.44453571923077106475830078125</LatitudeDegrees>
              <LongitudeDegrees>-1.25225708819925785064697265625</LongitudeDegrees>
            </Position>
            <AltitudeMeters>12.6000003814697265625</AltitudeMeters>
            <DistanceMeters>NAN</DistanceMeters>
          </Trackpoint>
          <Trackpoint>
            <Time>2022-07-05T10:21:25.000Z</Time>
            <Position>
              <LatitudeDegrees>44.4445193745195865631103515625</LatitudeDegrees>
              <LongitudeDegrees>-1.252092383801937103271484375</LongitudeDegrees>
            </Position>
            <AltitudeMeters>12.3999996185302734375</AltitudeMeters>
            <DistanceMeters>NAN</DistanceMeters>
          </Trackpoint>
          <Trackpoint>
            <Time>2022-07-05T10:21:26.000Z</Time>
            <Position>
              <LatitudeDegrees>44.44450856186449527740478515625</LatitudeDegrees>
              <LongitudeDegrees>-1.252073943614959716796875</LongitudeDegrees>
            </Position>
            <AltitudeMeters>12.3999996185302734375</AltitudeMeters>
            <DistanceMeters>NAN</DistanceMeters>
          </Trackpoint>
          <Trackpoint>
            <Time>2022-07-05T10:21:31.000Z</Time>
            <Position>
              <LatitudeDegrees>44.4445083104074001312255859375</LatitudeDegrees>
              <LongitudeDegrees>-1.2519544176757335662841796875</LongitudeDegrees>
            </Position>
            <AltitudeMeters>12.6000003814697265625</AltitudeMeters>
            <DistanceMeters>NAN</DistanceMeters>
          </Trackpoint>
          <Trackpoint>
            <Time>2022-07-05T10:21:38.000Z</Time>
            <Position>
              <LatitudeDegrees>44.4444952346384525299072265625</LatitudeDegrees>
              <LongitudeDegrees>-1.25179742462933063507080078125</LongitudeDegrees>
            </Position>
            <AltitudeMeters>12.6000003814697265625</AltitudeMeters>
            <DistanceMeters>NAN</DistanceMeters>
          </Trackpoint>
          <Trackpoint>
            <Time>2022-07-05T10:21:44.000Z</Time>
            <Position>
              <LatitudeDegrees>44.44449909031391143798828125</LatitudeDegrees>
              <LongitudeDegrees>-1.25166180543601512908935546875</LongitudeDegrees>
            </Position>
            <AltitudeMeters>12.6000003814697265625</AltitudeMeters>
            <DistanceMeters>NAN</DistanceMeters>
          </Trackpoint>
          <Trackpoint>
            <Time>2022-07-05T10:21:46.000Z</Time>
            <Position>
              <LatitudeDegrees>44.44449615664780139923095703125</LatitudeDegrees>
              <LongitudeDegrees>-1.251616962254047393798828125</LongitudeDegrees>
            </Position>
            <AltitudeMeters>12.6000003814697265625</AltitudeMeters>
            <DistanceMeters>NAN</DistanceMeters>
          </Trackpoint>
          <Trackpoint>
            <Time>2022-07-05T10:21:50.000Z</Time>
            <Position>
              <LatitudeDegrees>44.4444845058023929595947265625</LatitudeDegrees>
              <LongitudeDegrees>-1.2515390105545520782470703125</LongitudeDegrees>
            </Position>
            <AltitudeMeters>12.6000003814697265625</AltitudeMeters>
            <DistanceMeters>NAN</DistanceMeters>
          </Trackpoint>
          <Trackpoint>
            <Time>2022-07-05T10:21:58.000Z</Time>
            <Position>
              <LatitudeDegrees>44.4444700889289379119873046875</LatitudeDegrees>
              <LongitudeDegrees>-1.2514047324657440185546875</LongitudeDegrees>
            </Position>
            <AltitudeMeters>12.80000019073486328125</AltitudeMeters>
            <DistanceMeters>NAN</DistanceMeters>
          </Trackpoint>
          <Trackpoint>
            <Time>2022-07-05T10:22:00.000Z</Time>
            <Position>
              <LatitudeDegrees>44.44446983747184276580810546875</LatitudeDegrees>
              <LongitudeDegrees>-1.2513686902821063995361328125</LongitudeDegrees>
            </Position>
            <AltitudeMeters>13</AltitudeMeters>
            <DistanceMeters>NAN</DistanceMeters>
          </Trackpoint>
          <Trackpoint>
            <Time>2022-07-05T10:22:04.000Z</Time>
            <Position>
              <LatitudeDegrees>44.44446623325347900390625</LatitudeDegrees>
              <LongitudeDegrees>-1.25128076411783695220947265625</LongitudeDegrees>
            </Position>
            <AltitudeMeters>12.80000019073486328125</AltitudeMeters>
            <DistanceMeters>NAN</DistanceMeters>
          </Trackpoint>
          <Trackpoint>
            <Time>2022-07-05T10:22:07.000Z</Time>
            <Position>
              <LatitudeDegrees>44.44446128793060779571533203125</LatitudeDegrees>
              <LongitudeDegrees>-1.2512245215475559234619140625</LongitudeDegrees>
            </Position>
            <AltitudeMeters>13</AltitudeMeters>
            <DistanceMeters>NAN</DistanceMeters>
          </Trackpoint>
          <Trackpoint>
            <Time>2022-07-05T10:22:09.000Z</Time>
            <Position>
              <LatitudeDegrees>44.4444674067199230194091796875</LatitudeDegrees>
              <LongitudeDegrees>-1.2511842884123325347900390625</LongitudeDegrees>
            </Position>
            <AltitudeMeters>13</AltitudeMeters>
            <DistanceMeters>NAN</DistanceMeters>
          </Trackpoint>
          <Trackpoint>
            <Time>2022-07-05T10:22:10.000Z</Time>
            <Position>
              <LatitudeDegrees>44.44446732290089130401611328125</LatitudeDegrees>
              <LongitudeDegrees>-1.251167356967926025390625</LongitudeDegrees>
            </Position>
            <AltitudeMeters>13.19999980926513671875</AltitudeMeters>
            <DistanceMeters>NAN</DistanceMeters>
          </Trackpoint>
          <Trackpoint>
            <Time>2022-07-05T10:22:12.000Z</Time>
            <Position>
              <LatitudeDegrees>44.44446866400539875030517578125</LatitudeDegrees>
              <LongitudeDegrees>-1.2511323206126689910888671875</LongitudeDegrees>
            </Position>
            <AltitudeMeters>13.19999980926513671875</AltitudeMeters>
            <DistanceMeters>NAN</DistanceMeters>
          </Trackpoint>
          <Trackpoint>
            <Time>2022-07-05T10:22:16.000Z</Time>
            <Position>
              <LatitudeDegrees>44.44447134621441364288330078125</LatitudeDegrees>
              <LongitudeDegrees>-1.2510702945291996002197265625</LongitudeDegrees>
            </Position>
            <AltitudeMeters>13.3999996185302734375</AltitudeMeters>
            <DistanceMeters>NAN</DistanceMeters>
          </Trackpoint>
          <Trackpoint>
            <Time>2022-07-05T10:22:20.000Z</Time>
            <Position>
              <LatitudeDegrees>44.44444988854229450225830078125</LatitudeDegrees>
              <LongitudeDegrees>-1.25097767449915409088134765625</LongitudeDegrees>
            </Position>
            <AltitudeMeters>13.6000003814697265625</AltitudeMeters>
            <DistanceMeters>NAN</DistanceMeters>
          </Trackpoint>
          <Trackpoint>
            <Time>2022-07-05T10:22:23.000Z</Time>
            <Position>
              <LatitudeDegrees>44.444433711469173431396484375</LatitudeDegrees>
              <LongitudeDegrees>-1.250915229320526123046875</LongitudeDegrees>
            </Position>
            <AltitudeMeters>13.6000003814697265625</AltitudeMeters>
            <DistanceMeters>NAN</DistanceMeters>
          </Trackpoint>
          <Trackpoint>
            <Time>2022-07-05T10:22:25.000Z</Time>
            <Position>
              <LatitudeDegrees>44.4444352202117443084716796875</LatitudeDegrees>
              <LongitudeDegrees>-1.25086468644440174102783203125</LongitudeDegrees>
            </Position>
            <AltitudeMeters>13.6000003814697265625</AltitudeMeters>
            <DistanceMeters>NAN</DistanceMeters>
          </Trackpoint>
          <Trackpoint>
            <Time>2022-07-05T10:22:29.000Z</Time>
            <Position>
              <LatitudeDegrees>44.44444804452359676361083984375</LatitudeDegrees>
              <LongitudeDegrees>-1.250740550458431243896484375</LongitudeDegrees>
            </Position>
            <AltitudeMeters>13.80000019073486328125</AltitudeMeters>
            <DistanceMeters>NAN</DistanceMeters>
          </Trackpoint>
          <Trackpoint>
            <Time>2022-07-05T10:22:30.000Z</Time>
            <Position>
              <LatitudeDegrees>44.44443765096366405487060546875</LatitudeDegrees>
              <LongitudeDegrees>-1.250718422234058380126953125</LongitudeDegrees>
            </Position>
            <AltitudeMeters>13.80000019073486328125</AltitudeMeters>
            <DistanceMeters>NAN</DistanceMeters>
          </Trackpoint>
          <Trackpoint>
            <Time>2022-07-05T10:22:33.000Z</Time>
            <Position>
              <LatitudeDegrees>44.44441116414964199066162109375</LatitudeDegrees>
              <LongitudeDegrees>-1.2506351061165332794189453125</LongitudeDegrees>
            </Position>
            <AltitudeMeters>14</AltitudeMeters>
            <DistanceMeters>NAN</DistanceMeters>
          </Trackpoint>
          <Trackpoint>
            <Time>2022-07-05T10:22:37.000Z</Time>
            <Position>
              <LatitudeDegrees>44.44435366429388523101806640625</LatitudeDegrees>
              <LongitudeDegrees>-1.2505687214434146881103515625</LongitudeDegrees>
            </Position>
            <AltitudeMeters>14</AltitudeMeters>
            <DistanceMeters>NAN</DistanceMeters>
          </Trackpoint>
          <Trackpoint>
            <Time>2022-07-05T10:22:40.000Z</Time>
            <Position>
              <LatitudeDegrees>44.44430119358003139495849609375</LatitudeDegrees>
              <LongitudeDegrees>-1.2505231238901615142822265625</LongitudeDegrees>
            </Position>
            <AltitudeMeters>14</AltitudeMeters>
            <DistanceMeters>NAN</DistanceMeters>
          </Trackpoint>
          <Trackpoint>
            <Time>2022-07-05T10:22:43.000Z</Time>
            <Position>
              <LatitudeDegrees>44.4442327134311199188232421875</LatitudeDegrees>
              <LongitudeDegrees>-1.25051633454859256744384765625</LongitudeDegrees>
            </Position>
            <AltitudeMeters>14.19999980926513671875</AltitudeMeters>
            <DistanceMeters>NAN</DistanceMeters>
          </Trackpoint>
          <Trackpoint>
            <Time>2022-07-05T10:22:51.000Z</Time>
            <Position>
              <LatitudeDegrees>44.444056861102581024169921875</LatitudeDegrees>
              <LongitudeDegrees>-1.25061892904341220855712890625</LongitudeDegrees>
            </Position>
            <AltitudeMeters>14</AltitudeMeters>
            <DistanceMeters>NAN</DistanceMeters>
          </Trackpoint>
          <Trackpoint>
            <Time>2022-07-05T10:22:54.000Z</Time>
            <Position>
              <LatitudeDegrees>44.4439963437616825103759765625</LatitudeDegrees>
              <LongitudeDegrees>-1.2506307475268840789794921875</LongitudeDegrees>
            </Position>
            <AltitudeMeters>14</AltitudeMeters>
            <DistanceMeters>NAN</DistanceMeters>
          </Trackpoint>
          <Trackpoint>
            <Time>2022-07-05T10:22:56.000Z</Time>
            <Position>
              <LatitudeDegrees>44.44397178478538990020751953125</LatitudeDegrees>
              <LongitudeDegrees>-1.250596381723880767822265625</LongitudeDegrees>
            </Position>
            <AltitudeMeters>14</AltitudeMeters>
            <DistanceMeters>NAN</DistanceMeters>
          </Trackpoint>
          <Trackpoint>
            <Time>2022-07-05T10:22:59.000Z</Time>
            <Position>
              <LatitudeDegrees>44.443946219980716705322265625</LatitudeDegrees>
              <LongitudeDegrees>-1.25051868148148059844970703125</LongitudeDegrees>
            </Position>
            <AltitudeMeters>14</AltitudeMeters>
            <DistanceMeters>NAN</DistanceMeters>
          </Trackpoint>
          <Trackpoint>
            <Time>2022-07-05T10:23:02.000Z</Time>
            <Position>
              <LatitudeDegrees>44.44393993355333805084228515625</LatitudeDegrees>
              <LongitudeDegrees>-1.25044458545744419097900390625</LongitudeDegrees>
            </Position>
            <AltitudeMeters>14</AltitudeMeters>
            <DistanceMeters>NAN</DistanceMeters>
          </Trackpoint>
          <Trackpoint>
            <Time>2022-07-05T10:23:10.000Z</Time>
            <Position>
              <LatitudeDegrees>44.44381789304316043853759765625</LatitudeDegrees>
              <LongitudeDegrees>-1.25019664876163005828857421875</LongitudeDegrees>
            </Position>
            <AltitudeMeters>14</AltitudeMeters>
            <DistanceMeters>NAN</DistanceMeters>
          </Trackpoint>
          <Trackpoint>
            <Time>2022-07-05T10:23:17.000Z</Time>
            <Position>
              <LatitudeDegrees>44.44372284226119518280029296875</LatitudeDegrees>
              <LongitudeDegrees>-1.24994720332324504852294921875</LongitudeDegrees>
            </Position>
            <AltitudeMeters>14.19999980926513671875</AltitudeMeters>
            <DistanceMeters>NAN</DistanceMeters>
          </Trackpoint>
          <Trackpoint>
            <Time>2022-07-05T10:23:23.000Z</Time>
            <Position>
              <LatitudeDegrees>44.44363449700176715850830078125</LatitudeDegrees>
              <LongitudeDegrees>-1.249734051525592803955078125</LongitudeDegrees>
            </Position>
            <AltitudeMeters>14.3999996185302734375</AltitudeMeters>
            <DistanceMeters>NAN</DistanceMeters>
          </Trackpoint>
          <Trackpoint>
            <Time>2022-07-05T10:23:25.000Z</Time>
            <Position>
              <LatitudeDegrees>44.44362427107989788055419921875</LatitudeDegrees>
              <LongitudeDegrees>-1.24969876371324062347412109375</LongitudeDegrees>
            </Position>
            <AltitudeMeters>14.3999996185302734375</AltitudeMeters>
            <DistanceMeters>NAN</DistanceMeters>
          </Trackpoint>
          <Trackpoint>
            <Time>2022-07-05T10:23:34.000Z</Time>
            <Position>
              <LatitudeDegrees>44.44353944621980190277099609375</LatitudeDegrees>
              <LongitudeDegrees>-1.2493352405726909637451171875</LongitudeDegrees>
            </Position>
            <AltitudeMeters>14.3999996185302734375</AltitudeMeters>
            <DistanceMeters>NAN</DistanceMeters>
          </Trackpoint>
          <Trackpoint>
            <Time>2022-07-05T10:23:41.000Z</Time>
            <Position>
              <LatitudeDegrees>44.443456716835498809814453125</LatitudeDegrees>
              <LongitudeDegrees>-1.24909509904682636260986328125</LongitudeDegrees>
            </Position>
            <AltitudeMeters>14.3999996185302734375</AltitudeMeters>
            <DistanceMeters>NAN</DistanceMeters>
          </Trackpoint>
          <Trackpoint>
            <Time>2022-07-05T10:23:48.000Z</Time>
            <Position>
              <LatitudeDegrees>44.44339410401880741119384765625</LatitudeDegrees>
              <LongitudeDegrees>-1.248863004148006439208984375</LongitudeDegrees>
            </Position>
            <AltitudeMeters>14.6000003814697265625</AltitudeMeters>
            <DistanceMeters>NAN</DistanceMeters>
          </Trackpoint>
          <Trackpoint>
            <Time>2022-07-05T10:23:55.000Z</Time>
            <Position>
              <LatitudeDegrees>44.4433143921196460723876953125</LatitudeDegrees>
              <LongitudeDegrees>-1.2486130557954311370849609375</LongitudeDegrees>
            </Position>
            <AltitudeMeters>14.80000019073486328125</AltitudeMeters>
            <DistanceMeters>NAN</DistanceMeters>
          </Trackpoint>
          <Trackpoint>
            <Time>2022-07-05T10:23:56.000Z</Time>
            <Position>
              <LatitudeDegrees>44.44330659694969654083251953125</LatitudeDegrees>
              <LongitudeDegrees>-1.248581707477569580078125</LongitudeDegrees>
            </Position>
            <AltitudeMeters>14.80000019073486328125</AltitudeMeters>
            <DistanceMeters>NAN</DistanceMeters>
          </Trackpoint>
          <Trackpoint>
            <Time>2022-07-05T10:23:57.000Z</Time>
            <Position>
              <LatitudeDegrees>44.44329653866589069366455078125</LatitudeDegrees>
              <LongitudeDegrees>-1.2485433183610439300537109375</LongitudeDegrees>
            </Position>
            <AltitudeMeters>14.80000019073486328125</AltitudeMeters>
            <DistanceMeters>NAN</DistanceMeters>
          </Trackpoint>
          <Trackpoint>
            <Time>2022-07-05T10:23:58.000Z</Time>
            <Position>
              <LatitudeDegrees>44.4432882405817508697509765625</LatitudeDegrees>
              <LongitudeDegrees>-1.24850501306354999542236328125</LongitudeDegrees>
            </Position>
            <AltitudeMeters>15</AltitudeMeters>
            <DistanceMeters>NAN</DistanceMeters>
          </Trackpoint>
          <Trackpoint>
            <Time>2022-07-05T10:24:06.000Z</Time>
            <Position>
              <LatitudeDegrees>44.4432003982365131378173828125</LatitudeDegrees>
              <LongitudeDegrees>-1.248207204043865203857421875</LongitudeDegrees>
            </Position>
            <AltitudeMeters>15.19999980926513671875</AltitudeMeters>
            <DistanceMeters>NAN</DistanceMeters>
          </Trackpoint>
          <Trackpoint>
            <Time>2022-07-05T10:24:14.000Z</Time>
            <Position>
              <LatitudeDegrees>44.4431165792047977447509765625</LatitudeDegrees>
              <LongitudeDegrees>-1.2478784658014774322509765625</LongitudeDegrees>
            </Position>
            <AltitudeMeters>15.19999980926513671875</AltitudeMeters>
            <DistanceMeters>NAN</DistanceMeters>
          </Trackpoint>
          <Trackpoint>
            <Time>2022-07-05T10:24:22.000Z</Time>
            <Position>
              <LatitudeDegrees>44.44301591254770755767822265625</LatitudeDegrees>
              <LongitudeDegrees>-1.247664056718349456787109375</LongitudeDegrees>
            </Position>
            <AltitudeMeters>15</AltitudeMeters>
            <DistanceMeters>NAN</DistanceMeters>
          </Trackpoint>
          <Trackpoint>
            <Time>2022-07-05T10:24:30.000Z</Time>
            <Position>
              <LatitudeDegrees>44.4429301656782627105712890625</LatitudeDegrees>
              <LongitudeDegrees>-1.24731997959315776824951171875</LongitudeDegrees>
            </Position>
            <AltitudeMeters>15.19999980926513671875</AltitudeMeters>
            <DistanceMeters>NAN</DistanceMeters>
          </Trackpoint>
          <Trackpoint>
            <Time>2022-07-05T10:24:39.000Z</Time>
            <Position>
              <LatitudeDegrees>44.44282564334571361541748046875</LatitudeDegrees>
              <LongitudeDegrees>-1.24697648920118808746337890625</LongitudeDegrees>
            </Position>
            <AltitudeMeters>15.3999996185302734375</AltitudeMeters>
            <DistanceMeters>NAN</DistanceMeters>
          </Trackpoint>
          <Trackpoint>
            <Time>2022-07-05T10:24:47.000Z</Time>
            <Position>
              <LatitudeDegrees>44.442741908133029937744140625</LatitudeDegrees>
              <LongitudeDegrees>-1.24664825387299060821533203125</LongitudeDegrees>
            </Position>
            <AltitudeMeters>15.6000003814697265625</AltitudeMeters>
            <DistanceMeters>NAN</DistanceMeters>
          </Trackpoint>
          <Trackpoint>
            <Time>2022-07-05T10:24:54.000Z</Time>
            <Position>
              <LatitudeDegrees>44.44266320206224918365478515625</LatitudeDegrees>
              <LongitudeDegrees>-1.2463569827377796173095703125</LongitudeDegrees>
            </Position>
            <AltitudeMeters>15.6000003814697265625</AltitudeMeters>
            <DistanceMeters>NAN</DistanceMeters>
          </Trackpoint>
          <Trackpoint>
            <Time>2022-07-05T10:24:55.000Z</Time>
            <Position>
              <LatitudeDegrees>44.44265305995941162109375</LatitudeDegrees>
              <LongitudeDegrees>-1.246320940554141998291015625</LongitudeDegrees>
            </Position>
            <AltitudeMeters>15.6000003814697265625</AltitudeMeters>
            <DistanceMeters>NAN</DistanceMeters>
          </Trackpoint>
          <Trackpoint>
            <Time>2022-07-05T10:25:02.000Z</Time>
            <Position>
              <LatitudeDegrees>44.4425536505877971649169921875</LatitudeDegrees>
              <LongitudeDegrees>-1.2460401467978954315185546875</LongitudeDegrees>
            </Position>
            <AltitudeMeters>15.80000019073486328125</AltitudeMeters>
            <DistanceMeters>NAN</DistanceMeters>
          </Trackpoint>
          <Trackpoint>
            <Time>2022-07-05T10:25:11.000Z</Time>
            <Position>
              <LatitudeDegrees>44.44243001751601696014404296875</LatitudeDegrees>
              <LongitudeDegrees>-1.24567377381026744842529296875</LongitudeDegrees>
            </Position>
            <AltitudeMeters>15.6000003814697265625</AltitudeMeters>
            <DistanceMeters>NAN</DistanceMeters>
          </Trackpoint>
          <Trackpoint>
            <Time>2022-07-05T10:25:21.000Z</Time>
            <Position>
              <LatitudeDegrees>44.44230412133038043975830078125</LatitudeDegrees>
              <LongitudeDegrees>-1.24521545134484767913818359375</LongitudeDegrees>
            </Position>
            <AltitudeMeters>15.6000003814697265625</AltitudeMeters>
            <DistanceMeters>NAN</DistanceMeters>
          </Trackpoint>
          <Trackpoint>
            <Time>2022-07-05T10:25:27.000Z</Time>
            <Position>
              <LatitudeDegrees>44.4422445259988307952880859375</LatitudeDegrees>
              <LongitudeDegrees>-1.24493750743567943572998046875</LongitudeDegrees>
            </Position>
            <AltitudeMeters>15.80000019073486328125</AltitudeMeters>
            <DistanceMeters>NAN</DistanceMeters>
          </Trackpoint>
          <Trackpoint>
            <Time>2022-07-05T10:25:28.000Z</Time>
            <Position>
              <LatitudeDegrees>44.44223304279148578643798828125</LatitudeDegrees>
              <LongitudeDegrees>-1.24489593319594860076904296875</LongitudeDegrees>
            </Position>
            <AltitudeMeters>15.80000019073486328125</AltitudeMeters>
            <DistanceMeters>NAN</DistanceMeters>
          </Trackpoint>
          <Trackpoint>
            <Time>2022-07-05T10:25:31.000Z</Time>
            <Position>
              <LatitudeDegrees>44.442200772464275360107421875</LatitudeDegrees>
              <LongitudeDegrees>-1.24481731094419956207275390625</LongitudeDegrees>
            </Position>
            <AltitudeMeters>16</AltitudeMeters>
            <DistanceMeters>NAN</DistanceMeters>
          </Trackpoint>
          <Trackpoint>
            <Time>2022-07-05T10:25:35.000Z</Time>
            <Position>
              <LatitudeDegrees>44.44212676025927066802978515625</LatitudeDegrees>
              <LongitudeDegrees>-1.24461262486875057220458984375</LongitudeDegrees>
            </Position>
            <AltitudeMeters>16</AltitudeMeters>
            <DistanceMeters>NAN</DistanceMeters>
          </Trackpoint>
          <Trackpoint>
            <Time>2022-07-05T10:25:38.000Z</Time>
            <Position>
              <LatitudeDegrees>44.442087449133396148681640625</LatitudeDegrees>
              <LongitudeDegrees>-1.24447097070515155792236328125</LongitudeDegrees>
            </Position>
            <AltitudeMeters>15.80000019073486328125</AltitudeMeters>
            <DistanceMeters>NAN</DistanceMeters>
          </Trackpoint>
          <Trackpoint>
            <Time>2022-07-05T10:25:41.000Z</Time>
            <Position>
              <LatitudeDegrees>44.4420509040355682373046875</LatitudeDegrees>
              <LongitudeDegrees>-1.2443262152373790740966796875</LongitudeDegrees>
            </Position>
            <AltitudeMeters>16</AltitudeMeters>
            <DistanceMeters>NAN</DistanceMeters>
          </Trackpoint>
          <Trackpoint>
            <Time>2022-07-05T10:25:51.000Z</Time>
            <Position>
              <LatitudeDegrees>44.44190916605293750762939453125</LatitudeDegrees>
              <LongitudeDegrees>-1.24385506846010684967041015625</LongitudeDegrees>
            </Position>
            <AltitudeMeters>16</AltitudeMeters>
            <DistanceMeters>NAN</DistanceMeters>
          </Trackpoint>
          <Trackpoint>
            <Time>2022-07-05T10:25:57.000Z</Time>
            <Position>
              <LatitudeDegrees>44.44183020852506160736083984375</LatitudeDegrees>
              <LongitudeDegrees>-1.24355256557464599609375</LongitudeDegrees>
            </Position>
            <AltitudeMeters>16.200000762939453125</AltitudeMeters>
            <DistanceMeters>NAN</DistanceMeters>
          </Trackpoint>
          <Trackpoint>
            <Time>2022-07-05T10:25:59.000Z</Time>
            <Position>
              <LatitudeDegrees>44.4417976029217243194580078125</LatitudeDegrees>
              <LongitudeDegrees>-1.24344636686146259307861328125</LongitudeDegrees>
            </Position>
            <AltitudeMeters>16.200000762939453125</AltitudeMeters>
            <DistanceMeters>NAN</DistanceMeters>
          </Trackpoint>
          <Trackpoint>
            <Time>2022-07-05T10:26:03.000Z</Time>
            <Position>
              <LatitudeDegrees>44.441738426685333251953125</LatitudeDegrees>
              <LongitudeDegrees>-1.24324587173759937286376953125</LongitudeDegrees>
            </Position>
            <AltitudeMeters>16.3999996185302734375</AltitudeMeters>
            <DistanceMeters>NAN</DistanceMeters>
          </Trackpoint>
          <Trackpoint>
            <Time>2022-07-05T10:26:06.000Z</Time>
            <Position>
              <LatitudeDegrees>44.441695846617221832275390625</LatitudeDegrees>
              <LongitudeDegrees>-1.2431222386658191680908203125</LongitudeDegrees>
            </Position>
            <AltitudeMeters>16.6000003814697265625</AltitudeMeters>
            <DistanceMeters>NAN</DistanceMeters>
          </Trackpoint>
          <Trackpoint>
            <Time>2022-07-05T10:26:12.000Z</Time>
            <Position>
              <LatitudeDegrees>44.441594593226909637451171875</LatitudeDegrees>
              <LongitudeDegrees>-1.24291160143911838531494140625</LongitudeDegrees>
            </Position>
            <AltitudeMeters>16.799999237060546875</AltitudeMeters>
            <DistanceMeters>NAN</DistanceMeters>
          </Trackpoint>
          <Trackpoint>
            <Time>2022-07-05T10:26:14.000Z</Time>
            <Position>
              <LatitudeDegrees>44.44157087244093418121337890625</LatitudeDegrees>
              <LongitudeDegrees>-1.2428536824882030487060546875</LongitudeDegrees>
            </Position>
            <AltitudeMeters>17</AltitudeMeters>
            <DistanceMeters>NAN</DistanceMeters>
          </Trackpoint>
          <Trackpoint>
            <Time>2022-07-05T10:26:18.000Z</Time>
            <Position>
              <LatitudeDegrees>44.44155410863459110260009765625</LatitudeDegrees>
              <LongitudeDegrees>-1.242683865129947662353515625</LongitudeDegrees>
            </Position>
            <AltitudeMeters>17.3999996185302734375</AltitudeMeters>
            <DistanceMeters>NAN</DistanceMeters>
          </Trackpoint>
          <Trackpoint>
            <Time>2022-07-05T10:26:25.000Z</Time>
            <Position>
              <LatitudeDegrees>44.4414861313998699188232421875</LatitudeDegrees>
              <LongitudeDegrees>-1.242418326437473297119140625</LongitudeDegrees>
            </Position>
            <AltitudeMeters>18</AltitudeMeters>
            <DistanceMeters>NAN</DistanceMeters>
          </Trackpoint>
          <Trackpoint>
            <Time>2022-07-05T10:26:26.000Z</Time>
            <Position>
              <LatitudeDegrees>44.44146257825195789337158203125</LatitudeDegrees>
              <LongitudeDegrees>-1.242391504347324371337890625</LongitudeDegrees>
            </Position>
            <AltitudeMeters>18.200000762939453125</AltitudeMeters>
            <DistanceMeters>NAN</DistanceMeters>
          </Trackpoint>
          <Trackpoint>
            <Time>2022-07-05T10:26:27.000Z</Time>
            <Position>
              <LatitudeDegrees>44.441446401178836822509765625</LatitudeDegrees>
              <LongitudeDegrees>-1.24236627481877803802490234375</LongitudeDegrees>
            </Position>
            <AltitudeMeters>18.200000762939453125</AltitudeMeters>
            <DistanceMeters>NAN</DistanceMeters>
          </Trackpoint>
          <Trackpoint>
            <Time>2022-07-05T10:26:29.000Z</Time>
            <Position>
              <LatitudeDegrees>44.44143676199018955230712890625</LatitudeDegrees>
              <LongitudeDegrees>-1.2423115409910678863525390625</LongitudeDegrees>
            </Position>
            <AltitudeMeters>18.3999996185302734375</AltitudeMeters>
            <DistanceMeters>NAN</DistanceMeters>
          </Trackpoint>
          <Trackpoint>
            <Time>2022-07-05T10:26:35.000Z</Time>
            <Position>
              <LatitudeDegrees>44.4413882307708263397216796875</LatitudeDegrees>
              <LongitudeDegrees>-1.24211397953331470489501953125</LongitudeDegrees>
            </Position>
            <AltitudeMeters>18.799999237060546875</AltitudeMeters>
            <DistanceMeters>NAN</DistanceMeters>
          </Trackpoint>
          <Trackpoint>
            <Time>2022-07-05T10:26:41.000Z</Time>
            <Position>
              <LatitudeDegrees>44.4412997178733348846435546875</LatitudeDegrees>
              <LongitudeDegrees>-1.241904012858867645263671875</LongitudeDegrees>
            </Position>
            <AltitudeMeters>19</AltitudeMeters>
            <DistanceMeters>NAN</DistanceMeters>
          </Trackpoint>
          <Trackpoint>
            <Time>2022-07-05T10:26:43.000Z</Time>
            <Position>
              <LatitudeDegrees>44.44127599708735942840576171875</LatitudeDegrees>
              <LongitudeDegrees>-1.24182463623583316802978515625</LongitudeDegrees>
            </Position>
            <AltitudeMeters>19</AltitudeMeters>
            <DistanceMeters>NAN</DistanceMeters>
          </Trackpoint>
          <Trackpoint>
            <Time>2022-07-05T10:26:50.000Z</Time>
            <Position>
              <LatitudeDegrees>44.44117491133511066436767578125</LatitudeDegrees>
              <LongitudeDegrees>-1.24155540950596332550048828125</LongitudeDegrees>
            </Position>
            <AltitudeMeters>19.200000762939453125</AltitudeMeters>
            <DistanceMeters>NAN</DistanceMeters>
          </Trackpoint>
          <Trackpoint>
            <Time>2022-07-05T10:26:51.000Z</Time>
            <Position>
              <LatitudeDegrees>44.441160075366497039794921875</LatitudeDegrees>
              <LongitudeDegrees>-1.24151232652366161346435546875</LongitudeDegrees>
            </Position>
            <AltitudeMeters>19.200000762939453125</AltitudeMeters>
            <DistanceMeters>NAN</DistanceMeters>
          </Trackpoint>
          <Trackpoint>
            <Time>2022-07-05T10:26:56.000Z</Time>
            <Position>
              <LatitudeDegrees>44.44107181392610073089599609375</LatitudeDegrees>
              <LongitudeDegrees>-1.2412855960428714752197265625</LongitudeDegrees>
            </Position>
            <AltitudeMeters>19</AltitudeMeters>
            <DistanceMeters>NAN</DistanceMeters>
          </Trackpoint>
          <Trackpoint>
            <Time>2022-07-05T10:27:02.000Z</Time>
            <Position>
              <LatitudeDegrees>44.4409627653658390045166015625</LatitudeDegrees>
              <LongitudeDegrees>-1.2410478852689266204833984375</LongitudeDegrees>
            </Position>
            <AltitudeMeters>19</AltitudeMeters>
            <DistanceMeters>NAN</DistanceMeters>
          </Trackpoint>
          <Trackpoint>
            <Time>2022-07-05T10:27:08.000Z</Time>
            <Position>
              <LatitudeDegrees>44.44088120944797992706298828125</LatitudeDegrees>
              <LongitudeDegrees>-1.24080933630466461181640625</LongitudeDegrees>
            </Position>
            <AltitudeMeters>18.799999237060546875</AltitudeMeters>
            <DistanceMeters>NAN</DistanceMeters>
          </Trackpoint>
          <Trackpoint>
            <Time>2022-07-05T10:27:14.000Z</Time>
            <Position>
              <LatitudeDegrees>44.44076151587069034576416015625</LatitudeDegrees>
              <LongitudeDegrees>-1.2405981123447418212890625</LongitudeDegrees>
            </Position>
            <AltitudeMeters>19</AltitudeMeters>
            <DistanceMeters>NAN</DistanceMeters>
          </Trackpoint>
          <Trackpoint>
            <Time>2022-07-05T10:27:15.000Z</Time>
            <Position>
              <LatitudeDegrees>44.44074575789272785186767578125</LatitudeDegrees>
              <LongitudeDegrees>-1.2405469827353954315185546875</LongitudeDegrees>
            </Position>
            <AltitudeMeters>19</AltitudeMeters>
            <DistanceMeters>NAN</DistanceMeters>
          </Trackpoint>
          <Trackpoint>
            <Time>2022-07-05T10:27:24.000Z</Time>
            <Position>
              <LatitudeDegrees>44.44057392887771129608154296875</LatitudeDegrees>
              <LongitudeDegrees>-1.24014792032539844512939453125</LongitudeDegrees>
            </Position>
            <AltitudeMeters>19.6000003814697265625</AltitudeMeters>
            <DistanceMeters>NAN</DistanceMeters>
          </Trackpoint>
          <Trackpoint>
            <Time>2022-07-05T10:27:29.000Z</Time>
            <Position>
              <LatitudeDegrees>44.44048038683831691741943359375</LatitudeDegrees>
              <LongitudeDegrees>-1.2399954535067081451416015625</LongitudeDegrees>
            </Position>
            <AltitudeMeters>19.799999237060546875</AltitudeMeters>
            <DistanceMeters>NAN</DistanceMeters>
          </Trackpoint>
          <Trackpoint>
            <Time>2022-07-05T10:27:34.000Z</Time>
            <Position>
              <LatitudeDegrees>44.44036873988807201385498046875</LatitudeDegrees>
              <LongitudeDegrees>-1.239733435213565826416015625</LongitudeDegrees>
            </Position>
            <AltitudeMeters>20</AltitudeMeters>
            <DistanceMeters>NAN</DistanceMeters>
          </Trackpoint>
          <Trackpoint>
            <Time>2022-07-05T10:27:35.000Z</Time>
            <Position>
              <LatitudeDegrees>44.440354071557521820068359375</LatitudeDegrees>
              <LongitudeDegrees>-1.23969378881156444549560546875</LongitudeDegrees>
            </Position>
            <AltitudeMeters>20</AltitudeMeters>
            <DistanceMeters>NAN</DistanceMeters>
          </Trackpoint>
          <Trackpoint>
            <Time>2022-07-05T10:27:41.000Z</Time>
            <Position>
              <LatitudeDegrees>44.44025541655719280242919921875</LatitudeDegrees>
              <LongitudeDegrees>-1.2394600175321102142333984375</LongitudeDegrees>
            </Position>
            <AltitudeMeters>19.799999237060546875</AltitudeMeters>
            <DistanceMeters>NAN</DistanceMeters>
          </Trackpoint>
          <Trackpoint>
            <Time>2022-07-05T10:27:44.000Z</Time>
            <Position>
              <LatitudeDegrees>44.4402001798152923583984375</LatitudeDegrees>
              <LongitudeDegrees>-1.239321716129779815673828125</LongitudeDegrees>
            </Position>
            <AltitudeMeters>19.799999237060546875</AltitudeMeters>
            <DistanceMeters>NAN</DistanceMeters>
          </Trackpoint>
          <Trackpoint>
            <Time>2022-07-05T10:27:47.000Z</Time>
            <Position>
              <LatitudeDegrees>44.44014226086437702178955078125</LatitudeDegrees>
              <LongitudeDegrees>-1.2391926348209381103515625</LongitudeDegrees>
            </Position>
            <AltitudeMeters>19.799999237060546875</AltitudeMeters>
            <DistanceMeters>NAN</DistanceMeters>
          </Trackpoint>
          <Trackpoint>
            <Time>2022-07-05T10:27:52.000Z</Time>
            <Position>
              <LatitudeDegrees>44.44004117511212825775146484375</LatitudeDegrees>
              <LongitudeDegrees>-1.23898417688906192779541015625</LongitudeDegrees>
            </Position>
            <AltitudeMeters>19.6000003814697265625</AltitudeMeters>
            <DistanceMeters>NAN</DistanceMeters>
          </Trackpoint>
          <Trackpoint>
            <Time>2022-07-05T10:27:59.000Z</Time>
            <Position>
              <LatitudeDegrees>44.43986356258392333984375</LatitudeDegrees>
              <LongitudeDegrees>-1.238653846085071563720703125</LongitudeDegrees>
            </Position>
            <AltitudeMeters>19.6000003814697265625</AltitudeMeters>
            <DistanceMeters>NAN</DistanceMeters>
          </Trackpoint>
          <Trackpoint>
            <Time>2022-07-05T10:28:06.000Z</Time>
            <Position>
              <LatitudeDegrees>44.4397390075027942657470703125</LatitudeDegrees>
              <LongitudeDegrees>-1.23833843506872653961181640625</LongitudeDegrees>
            </Position>
            <AltitudeMeters>20</AltitudeMeters>
            <DistanceMeters>NAN</DistanceMeters>
          </Trackpoint>
          <Trackpoint>
            <Time>2022-07-05T10:28:11.000Z</Time>
            <Position>
              <LatitudeDegrees>44.43967622704803943634033203125</LatitudeDegrees>
              <LongitudeDegrees>-1.23801120556890964508056640625</LongitudeDegrees>
            </Position>
            <AltitudeMeters>20.200000762939453125</AltitudeMeters>
            <DistanceMeters>NAN</DistanceMeters>
          </Trackpoint>
          <Trackpoint>
            <Time>2022-07-05T10:28:12.000Z</Time>
            <Position>
              <LatitudeDegrees>44.43966977298259735107421875</LatitudeDegrees>
              <LongitudeDegrees>-1.2379573099315166473388671875</LongitudeDegrees>
            </Position>
            <AltitudeMeters>20.200000762939453125</AltitudeMeters>
            <DistanceMeters>NAN</DistanceMeters>
          </Trackpoint>
          <Trackpoint>
            <Time>2022-07-05T10:28:17.000Z</Time>
            <Position>
              <LatitudeDegrees>44.43963197059929370880126953125</LatitudeDegrees>
              <LongitudeDegrees>-1.23773057945072650909423828125</LongitudeDegrees>
            </Position>
            <AltitudeMeters>20.3999996185302734375</AltitudeMeters>
            <DistanceMeters>NAN</DistanceMeters>
          </Trackpoint>
          <Trackpoint>
            <Time>2022-07-05T10:28:22.000Z</Time>
            <Position>
              <LatitudeDegrees>44.4396266900002956390380859375</LatitudeDegrees>
              <LongitudeDegrees>-1.2374590896070003509521484375</LongitudeDegrees>
            </Position>
            <AltitudeMeters>20.6000003814697265625</AltitudeMeters>
            <DistanceMeters>NAN</DistanceMeters>
          </Trackpoint>
          <Trackpoint>
            <Time>2022-07-05T10:28:29.000Z</Time>
            <Position>
              <LatitudeDegrees>44.439640939235687255859375</LatitudeDegrees>
              <LongitudeDegrees>-1.23707243241369724273681640625</LongitudeDegrees>
            </Position>
            <AltitudeMeters>21</AltitudeMeters>
            <DistanceMeters>NAN</DistanceMeters>
          </Trackpoint>
          <Trackpoint>
            <Time>2022-07-05T10:28:32.000Z</Time>
            <Position>
              <LatitudeDegrees>44.43958251737058162689208984375</LatitudeDegrees>
              <LongitudeDegrees>-1.2369263358414173126220703125</LongitudeDegrees>
            </Position>
            <AltitudeMeters>21.200000762939453125</AltitudeMeters>
            <DistanceMeters>NAN</DistanceMeters>
          </Trackpoint>
          <Trackpoint>
            <Time>2022-07-05T10:28:35.000Z</Time>
            <Position>
              <LatitudeDegrees>44.43953071720898151397705078125</LatitudeDegrees>
              <LongitudeDegrees>-1.23683924786746501922607421875</LongitudeDegrees>
            </Position>
            <AltitudeMeters>21.6000003814697265625</AltitudeMeters>
            <DistanceMeters>NAN</DistanceMeters>
          </Trackpoint>
          <Trackpoint>
            <Time>2022-07-05T10:28:40.000Z</Time>
            <Position>
              <LatitudeDegrees>44.4394215010106563568115234375</LatitudeDegrees>
              <LongitudeDegrees>-1.2366856075823307037353515625</LongitudeDegrees>
            </Position>
            <AltitudeMeters>22</AltitudeMeters>
            <DistanceMeters>NAN</DistanceMeters>
          </Trackpoint>
          <Trackpoint>
            <Time>2022-07-05T10:28:41.000Z</Time>
            <Position>
              <LatitudeDegrees>44.4393981993198394775390625</LatitudeDegrees>
              <LongitudeDegrees>-1.23664847575128078460693359375</LongitudeDegrees>
            </Position>
            <AltitudeMeters>22</AltitudeMeters>
            <DistanceMeters>NAN</DistanceMeters>
          </Trackpoint>
          <Trackpoint>
            <Time>2022-07-05T10:28:44.000Z</Time>
            <Position>
              <LatitudeDegrees>44.43930775858461856842041015625</LatitudeDegrees>
              <LongitudeDegrees>-1.23653615824878215789794921875</LongitudeDegrees>
            </Position>
            <AltitudeMeters>22</AltitudeMeters>
            <DistanceMeters>NAN</DistanceMeters>
          </Trackpoint>
          <Trackpoint>
            <Time>2022-07-05T10:28:45.000Z</Time>
            <Position>
              <LatitudeDegrees>44.43927682936191558837890625</LatitudeDegrees>
              <LongitudeDegrees>-1.236508749425411224365234375</LongitudeDegrees>
            </Position>
            <AltitudeMeters>22</AltitudeMeters>
            <DistanceMeters>NAN</DistanceMeters>
          </Trackpoint>
          <Trackpoint>
            <Time>2022-07-05T10:28:51.000Z</Time>
            <Position>
              <LatitudeDegrees>44.43911078386008739471435546875</LatitudeDegrees>
              <LongitudeDegrees>-1.236318983137607574462890625</LongitudeDegrees>
            </Position>
            <AltitudeMeters>22</AltitudeMeters>
            <DistanceMeters>NAN</DistanceMeters>
          </Trackpoint>
          <Trackpoint>
            <Time>2022-07-05T10:28:53.000Z</Time>
            <Position>
              <LatitudeDegrees>44.43905177526175975799560546875</LatitudeDegrees>
              <LongitudeDegrees>-1.23625033535063266754150390625</LongitudeDegrees>
            </Position>
            <AltitudeMeters>22.200000762939453125</AltitudeMeters>
            <DistanceMeters>NAN</DistanceMeters>
          </Trackpoint>
          <Trackpoint>
            <Time>2022-07-05T10:28:55.000Z</Time>
            <Position>
              <LatitudeDegrees>44.43898941390216350555419921875</LatitudeDegrees>
              <LongitudeDegrees>-1.23618629761040210723876953125</LongitudeDegrees>
            </Position>
            <AltitudeMeters>22.200000762939453125</AltitudeMeters>
            <DistanceMeters>NAN</DistanceMeters>
          </Trackpoint>
          <Trackpoint>
            <Time>2022-07-05T10:28:58.000Z</Time>
            <Position>
              <LatitudeDegrees>44.43894498981535434722900390625</LatitudeDegrees>
              <LongitudeDegrees>-1.23604363761842250823974609375</LongitudeDegrees>
            </Position>
            <AltitudeMeters>22.3999996185302734375</AltitudeMeters>
            <DistanceMeters>NAN</DistanceMeters>
          </Trackpoint>
          <Trackpoint>
            <Time>2022-07-05T10:28:59.000Z</Time>
            <Position>
              <LatitudeDegrees>44.43892001174390316009521484375</LatitudeDegrees>
              <LongitudeDegrees>-1.23600541613996028900146484375</LongitudeDegrees>
            </Position>
            <AltitudeMeters>22.3999996185302734375</AltitudeMeters>
            <DistanceMeters>NAN</DistanceMeters>
          </Trackpoint>
          <Trackpoint>
            <Time>2022-07-05T10:29:03.000Z</Time>
            <Position>
              <LatitudeDegrees>44.4388330914080142974853515625</LatitudeDegrees>
              <LongitudeDegrees>-1.235860995948314666748046875</LongitudeDegrees>
            </Position>
            <AltitudeMeters>22.3999996185302734375</AltitudeMeters>
            <DistanceMeters>NAN</DistanceMeters>
          </Trackpoint>
          <Trackpoint>
            <Time>2022-07-05T10:29:08.000Z</Time>
            <Position>
              <LatitudeDegrees>44.438731670379638671875</LatitudeDegrees>
              <LongitudeDegrees>-1.2356660328805446624755859375</LongitudeDegrees>
            </Position>
            <AltitudeMeters>22.799999237060546875</AltitudeMeters>
            <DistanceMeters>NAN</DistanceMeters>
          </Trackpoint>
          <Trackpoint>
            <Time>2022-07-05T10:29:09.000Z</Time>
            <Position>
              <LatitudeDegrees>44.43871264345943927764892578125</LatitudeDegrees>
              <LongitudeDegrees>-1.23562253080308437347412109375</LongitudeDegrees>
            </Position>
            <AltitudeMeters>22.799999237060546875</AltitudeMeters>
            <DistanceMeters>NAN</DistanceMeters>
          </Trackpoint>
          <Trackpoint>
            <Time>2022-07-05T10:29:14.000Z</Time>
            <Position>
              <LatitudeDegrees>44.43863846361637115478515625</LatitudeDegrees>
              <LongitudeDegrees>-1.2354749254882335662841796875</LongitudeDegrees>
            </Position>
            <AltitudeMeters>23</AltitudeMeters>
            <DistanceMeters>NAN</DistanceMeters>
          </Trackpoint>
          <Trackpoint>
            <Time>2022-07-05T10:29:17.000Z</Time>
            <Position>
              <LatitudeDegrees>44.4385531358420848846435546875</LatitudeDegrees>
              <LongitudeDegrees>-1.23531843535602092742919921875</LongitudeDegrees>
            </Position>
            <AltitudeMeters>22.799999237060546875</AltitudeMeters>
            <DistanceMeters>NAN</DistanceMeters>
          </Trackpoint>
          <Trackpoint>
            <Time>2022-07-05T10:29:19.000Z</Time>
            <Position>
              <LatitudeDegrees>44.438497982919216156005859375</LatitudeDegrees>
              <LongitudeDegrees>-1.2352459318935871124267578125</LongitudeDegrees>
            </Position>
            <AltitudeMeters>22.6000003814697265625</AltitudeMeters>
            <DistanceMeters>NAN</DistanceMeters>
          </Trackpoint>
          <Trackpoint>
            <Time>2022-07-05T10:29:23.000Z</Time>
            <Position>
              <LatitudeDegrees>44.43841977976262569427490234375</LatitudeDegrees>
              <LongitudeDegrees>-1.2351143360137939453125</LongitudeDegrees>
            </Position>
            <AltitudeMeters>22.6000003814697265625</AltitudeMeters>
            <DistanceMeters>NAN</DistanceMeters>
          </Trackpoint>
          <Trackpoint>
            <Time>2022-07-05T10:29:27.000Z</Time>
            <Position>
              <LatitudeDegrees>44.43828977644443511962890625</LatitudeDegrees>
              <LongitudeDegrees>-1.23498223721981048583984375</LongitudeDegrees>
            </Position>
            <AltitudeMeters>22.6000003814697265625</AltitudeMeters>
            <DistanceMeters>NAN</DistanceMeters>
          </Trackpoint>
          <Trackpoint>
            <Time>2022-07-05T10:29:33.000Z</Time>
            <Position>
              <LatitudeDegrees>44.438215680420398712158203125</LatitudeDegrees>
              <LongitudeDegrees>-1.2347275950014591217041015625</LongitudeDegrees>
            </Position>
            <AltitudeMeters>22.3999996185302734375</AltitudeMeters>
            <DistanceMeters>NAN</DistanceMeters>
          </Trackpoint>
          <Trackpoint>
            <Time>2022-07-05T10:29:39.000Z</Time>
            <Position>
              <LatitudeDegrees>44.4381608627736568450927734375</LatitudeDegrees>
              <LongitudeDegrees>-1.23449248261749744415283203125</LongitudeDegrees>
            </Position>
            <AltitudeMeters>22.6000003814697265625</AltitudeMeters>
            <DistanceMeters>NAN</DistanceMeters>
          </Trackpoint>
          <Trackpoint>
            <Time>2022-07-05T10:29:41.000Z</Time>
            <Position>
              <LatitudeDegrees>44.43813621997833251953125</LatitudeDegrees>
              <LongitudeDegrees>-1.23441888950765132904052734375</LongitudeDegrees>
            </Position>
            <AltitudeMeters>22.6000003814697265625</AltitudeMeters>
            <DistanceMeters>NAN</DistanceMeters>
          </Trackpoint>
          <Trackpoint>
            <Time>2022-07-05T10:29:46.000Z</Time>
            <Position>
              <LatitudeDegrees>44.4381145946681499481201171875</LatitudeDegrees>
              <LongitudeDegrees>-1.234223842620849609375</LongitudeDegrees>
            </Position>
            <AltitudeMeters>22.6000003814697265625</AltitudeMeters>
            <DistanceMeters>NAN</DistanceMeters>
          </Trackpoint>
          <Trackpoint>
            <Time>2022-07-05T10:29:53.000Z</Time>
            <Position>
              <LatitudeDegrees>44.4380478747189044952392578125</LatitudeDegrees>
              <LongitudeDegrees>-1.23394958674907684326171875</LongitudeDegrees>
            </Position>
            <AltitudeMeters>22.6000003814697265625</AltitudeMeters>
            <DistanceMeters>NAN</DistanceMeters>
          </Trackpoint>
          <Trackpoint>
            <Time>2022-07-05T10:29:57.000Z</Time>
            <Position>
              <LatitudeDegrees>44.4380056299269199371337890625</LatitudeDegrees>
              <LongitudeDegrees>-1.2338448129594326019287109375</LongitudeDegrees>
            </Position>
            <AltitudeMeters>22.6000003814697265625</AltitudeMeters>
            <DistanceMeters>NAN</DistanceMeters>
          </Trackpoint>
          <Trackpoint>
            <Time>2022-07-05T10:29:58.000Z</Time>
            <Position>
              <LatitudeDegrees>44.4379955716431140899658203125</LatitudeDegrees>
              <LongitudeDegrees>-1.23382084071636199951171875</LongitudeDegrees>
            </Position>
            <AltitudeMeters>22.6000003814697265625</AltitudeMeters>
            <DistanceMeters>NAN</DistanceMeters>
          </Trackpoint>
          <Trackpoint>
            <Time>2022-07-05T10:30:05.000Z</Time>
            <Position>
              <LatitudeDegrees>44.43789146840572357177734375</LatitudeDegrees>
              <LongitudeDegrees>-1.23361674137413501739501953125</LongitudeDegrees>
            </Position>
            <AltitudeMeters>22.799999237060546875</AltitudeMeters>
            <DistanceMeters>NAN</DistanceMeters>
          </Trackpoint>
          <Trackpoint>
            <Time>2022-07-05T10:30:11.000Z</Time>
            <Position>
              <LatitudeDegrees>44.43781376816332340240478515625</LatitudeDegrees>
              <LongitudeDegrees>-1.23341037891805171966552734375</LongitudeDegrees>
            </Position>
            <AltitudeMeters>22.799999237060546875</AltitudeMeters>
            <DistanceMeters>NAN</DistanceMeters>
          </Trackpoint>
          <Trackpoint>
            <Time>2022-07-05T10:30:14.000Z</Time>
            <Position>
              <LatitudeDegrees>44.4377608783543109893798828125</LatitudeDegrees>
              <LongitudeDegrees>-1.23331448994576930999755859375</LongitudeDegrees>
            </Position>
            <AltitudeMeters>22.6000003814697265625</AltitudeMeters>
            <DistanceMeters>NAN</DistanceMeters>
          </Trackpoint>
          <Trackpoint>
            <Time>2022-07-05T10:30:18.000Z</Time>
            <Position>
              <LatitudeDegrees>44.43771620281040668487548828125</LatitudeDegrees>
              <LongitudeDegrees>-1.23318674974143505096435546875</LongitudeDegrees>
            </Position>
            <AltitudeMeters>22.6000003814697265625</AltitudeMeters>
            <DistanceMeters>NAN</DistanceMeters>
          </Trackpoint>
          <Trackpoint>
            <Time>2022-07-05T10:30:23.000Z</Time>
            <Position>
              <LatitudeDegrees>44.43764110095798969268798828125</LatitudeDegrees>
              <LongitudeDegrees>-1.23299899511039257049560546875</LongitudeDegrees>
            </Position>
            <AltitudeMeters>22.6000003814697265625</AltitudeMeters>
            <DistanceMeters>NAN</DistanceMeters>
          </Trackpoint>
          <Trackpoint>
            <Time>2022-07-05T10:30:30.000Z</Time>
            <Position>
              <LatitudeDegrees>44.437548816204071044921875</LatitudeDegrees>
              <LongitudeDegrees>-1.23287561349570751190185546875</LongitudeDegrees>
            </Position>
            <AltitudeMeters>22.6000003814697265625</AltitudeMeters>
            <DistanceMeters>NAN</DistanceMeters>
          </Trackpoint>
          <Trackpoint>
            <Time>2022-07-05T10:30:31.000Z</Time>
            <Position>
              <LatitudeDegrees>44.4375516660511493682861328125</LatitudeDegrees>
              <LongitudeDegrees>-1.23285449109971523284912109375</LongitudeDegrees>
            </Position>
            <AltitudeMeters>22.3999996185302734375</AltitudeMeters>
            <DistanceMeters>NAN</DistanceMeters>
          </Trackpoint>
          <Trackpoint>
            <Time>2022-07-05T10:31:08.000Z</Time>
            <Position>
              <LatitudeDegrees>44.4375342316925525665283203125</LatitudeDegrees>
              <LongitudeDegrees>-1.2328282557427883148193359375</LongitudeDegrees>
            </Position>
            <AltitudeMeters>22.6000003814697265625</AltitudeMeters>
            <DistanceMeters>NAN</DistanceMeters>
          </Trackpoint>
          <Trackpoint>
            <Time>2022-07-05T10:31:10.000Z</Time>
            <Position>
              <LatitudeDegrees>44.43752392195165157318115234375</LatitudeDegrees>
              <LongitudeDegrees>-1.23275994323194026947021484375</LongitudeDegrees>
            </Position>
            <AltitudeMeters>22.799999237060546875</AltitudeMeters>
            <DistanceMeters>NAN</DistanceMeters>
          </Trackpoint>
          <Trackpoint>
            <Time>2022-07-05T10:31:15.000Z</Time>
            <Position>
              <LatitudeDegrees>44.4375124387443065643310546875</LatitudeDegrees>
              <LongitudeDegrees>-1.23258912004530429840087890625</LongitudeDegrees>
            </Position>
            <AltitudeMeters>22.6000003814697265625</AltitudeMeters>
            <DistanceMeters>NAN</DistanceMeters>
          </Trackpoint>
          <Trackpoint>
            <Time>2022-07-05T10:31:16.000Z</Time>
            <Position>
              <LatitudeDegrees>44.4375124387443065643310546875</LatitudeDegrees>
              <LongitudeDegrees>-1.23258912004530429840087890625</LongitudeDegrees>
            </Position>
            <AltitudeMeters>22.3999996185302734375</AltitudeMeters>
            <DistanceMeters>NAN</DistanceMeters>
          </Trackpoint>
          <Trackpoint>
            <Time>2022-07-05T10:31:17.000Z</Time>
            <Position>
              <LatitudeDegrees>44.43751906044781208038330078125</LatitudeDegrees>
              <LongitudeDegrees>-1.23253262601792812347412109375</LongitudeDegrees>
            </Position>
            <AltitudeMeters>22.200000762939453125</AltitudeMeters>
            <DistanceMeters>NAN</DistanceMeters>
          </Trackpoint>
          <Trackpoint>
            <Time>2022-07-05T10:31:19.000Z</Time>
            <Position>
              <LatitudeDegrees>44.43753205239772796630859375</LatitudeDegrees>
              <LongitudeDegrees>-1.23247898183763027191162109375</LongitudeDegrees>
            </Position>
            <AltitudeMeters>22</AltitudeMeters>
            <DistanceMeters>NAN</DistanceMeters>
          </Trackpoint>
          <Trackpoint>
            <Time>2022-07-05T10:31:21.000Z</Time>
            <Position>
              <LatitudeDegrees>44.43752408958971500396728515625</LatitudeDegrees>
              <LongitudeDegrees>-1.2324289418756961822509765625</LongitudeDegrees>
            </Position>
            <AltitudeMeters>22.200000762939453125</AltitudeMeters>
            <DistanceMeters>NAN</DistanceMeters>
          </Trackpoint>
          <Trackpoint>
            <Time>2022-07-05T10:31:24.000Z</Time>
            <Position>
              <LatitudeDegrees>44.43751067854464054107666015625</LatitudeDegrees>
              <LongitudeDegrees>-1.23236146755516529083251953125</LongitudeDegrees>
            </Position>
            <AltitudeMeters>22.3999996185302734375</AltitudeMeters>
            <DistanceMeters>NAN</DistanceMeters>
          </Trackpoint>
          <Trackpoint>
            <Time>2022-07-05T10:31:25.000Z</Time>
            <Position>
              <LatitudeDegrees>44.43751461803913116455078125</LatitudeDegrees>
              <LongitudeDegrees>-1.2323407642543315887451171875</LongitudeDegrees>
            </Position>
            <AltitudeMeters>22.6000003814697265625</AltitudeMeters>
            <DistanceMeters>NAN</DistanceMeters>
          </Trackpoint>
          <Trackpoint>
            <Time>2022-07-05T10:31:27.000Z</Time>
            <Position>
              <LatitudeDegrees>44.43752777762711048126220703125</LatitudeDegrees>
              <LongitudeDegrees>-1.23228435404598712921142578125</LongitudeDegrees>
            </Position>
            <AltitudeMeters>23</AltitudeMeters>
            <DistanceMeters>NAN</DistanceMeters>
          </Trackpoint>
          <Trackpoint>
            <Time>2022-07-05T10:31:28.000Z</Time>
            <Position>
              <LatitudeDegrees>44.43752476014196872711181640625</LatitudeDegrees>
              <LongitudeDegrees>-1.23225853778421878814697265625</LongitudeDegrees>
            </Position>
            <AltitudeMeters>23.3999996185302734375</AltitudeMeters>
            <DistanceMeters>NAN</DistanceMeters>
          </Trackpoint>
          <Trackpoint>
            <Time>2022-07-05T10:31:29.000Z</Time>
            <Position>
              <LatitudeDegrees>44.43752467632293701171875</LatitudeDegrees>
              <LongitudeDegrees>-1.23221210204064846038818359375</LongitudeDegrees>
            </Position>
            <AltitudeMeters>23.6000003814697265625</AltitudeMeters>
            <DistanceMeters>NAN</DistanceMeters>
          </Trackpoint>
          <Trackpoint>
            <Time>2022-07-05T10:31:34.000Z</Time>
            <Position>
              <LatitudeDegrees>44.43750715814530849456787109375</LatitudeDegrees>
              <LongitudeDegrees>-1.23206525109708309173583984375</LongitudeDegrees>
            </Position>
            <AltitudeMeters>24.3999996185302734375</AltitudeMeters>
            <DistanceMeters>NAN</DistanceMeters>
          </Trackpoint>
          <Trackpoint>
            <Time>2022-07-05T10:31:35.000Z</Time>
            <Position>
              <LatitudeDegrees>44.4375141151249408721923828125</LatitudeDegrees>
              <LongitudeDegrees>-1.2320403568446636199951171875</LongitudeDegrees>
            </Position>
            <AltitudeMeters>24.799999237060546875</AltitudeMeters>
            <DistanceMeters>NAN</DistanceMeters>
          </Trackpoint>
          <Trackpoint>
            <Time>2022-07-05T10:31:40.000Z</Time>
            <Position>
              <LatitudeDegrees>44.43759449757635593414306640625</LatitudeDegrees>
              <LongitudeDegrees>-1.23191622085869312286376953125</LongitudeDegrees>
            </Position>
            <AltitudeMeters>25.3999996185302734375</AltitudeMeters>
            <DistanceMeters>NAN</DistanceMeters>
          </Trackpoint>
          <Trackpoint>
            <Time>2022-07-05T10:31:41.000Z</Time>
            <Position>
              <LatitudeDegrees>44.4376183860003948211669921875</LatitudeDegrees>
              <LongitudeDegrees>-1.23190331272780895233154296875</LongitudeDegrees>
            </Position>
            <AltitudeMeters>25.6000003814697265625</AltitudeMeters>
            <DistanceMeters>NAN</DistanceMeters>
          </Trackpoint>
          <Trackpoint>
            <Time>2022-07-05T10:31:50.000Z</Time>
            <Position>
              <LatitudeDegrees>44.43776800297200679779052734375</LatitudeDegrees>
              <LongitudeDegrees>-1.2318076752126216888427734375</LongitudeDegrees>
            </Position>
            <AltitudeMeters>26.6000003814697265625</AltitudeMeters>
            <DistanceMeters>NAN</DistanceMeters>
          </Trackpoint>
          <Trackpoint>
            <Time>2022-07-05T10:31:51.000Z</Time>
            <Position>
              <LatitudeDegrees>44.43778158165514469146728515625</LatitudeDegrees>
              <LongitudeDegrees>-1.23180189169943332672119140625</LongitudeDegrees>
            </Position>
            <AltitudeMeters>26.799999237060546875</AltitudeMeters>
            <DistanceMeters>NAN</DistanceMeters>
          </Trackpoint>
          <Trackpoint>
            <Time>2022-07-05T10:31:56.000Z</Time>
            <Position>
              <LatitudeDegrees>44.43785081617534160614013671875</LatitudeDegrees>
              <LongitudeDegrees>-1.23173676431179046630859375</LongitudeDegrees>
            </Position>
            <AltitudeMeters>27.6000003814697265625</AltitudeMeters>
            <DistanceMeters>NAN</DistanceMeters>
          </Trackpoint>
          <Trackpoint>
            <Time>2022-07-05T10:31:57.000Z</Time>
            <Position>
              <LatitudeDegrees>44.437865316867828369140625</LatitudeDegrees>
              <LongitudeDegrees>-1.231721341609954833984375</LongitudeDegrees>
            </Position>
            <AltitudeMeters>27.799999237060546875</AltitudeMeters>
            <DistanceMeters>NAN</DistanceMeters>
          </Trackpoint>
          <Trackpoint>
            <Time>2022-07-05T10:31:58.000Z</Time>
            <Position>
              <LatitudeDegrees>44.43788266740739345550537109375</LatitudeDegrees>
              <LongitudeDegrees>-1.23170717619359493255615234375</LongitudeDegrees>
            </Position>
            <AltitudeMeters>28</AltitudeMeters>
            <DistanceMeters>NAN</DistanceMeters>
          </Trackpoint>
          <Trackpoint>
            <Time>2022-07-05T10:32:01.000Z</Time>
            <Position>
              <LatitudeDegrees>44.43792222999036312103271484375</LatitudeDegrees>
              <LongitudeDegrees>-1.23166291974484920501708984375</LongitudeDegrees>
            </Position>
            <AltitudeMeters>28.200000762939453125</AltitudeMeters>
            <DistanceMeters>NAN</DistanceMeters>
          </Trackpoint>
          <Trackpoint>
            <Time>2022-07-05T10:32:02.000Z</Time>
            <Position>
              <LatitudeDegrees>44.43793429993093013763427734375</LatitudeDegrees>
              <LongitudeDegrees>-1.23164967633783817291259765625</LongitudeDegrees>
            </Position>
            <AltitudeMeters>28.3999996185302734375</AltitudeMeters>
            <DistanceMeters>NAN</DistanceMeters>
          </Trackpoint>
          <Trackpoint>
            <Time>2022-07-05T10:32:04.000Z</Time>
            <Position>
              <LatitudeDegrees>44.43795894272625446319580078125</LatitudeDegrees>
              <LongitudeDegrees>-1.23162989504635334014892578125</LongitudeDegrees>
            </Position>
            <AltitudeMeters>28.6000003814697265625</AltitudeMeters>
            <DistanceMeters>NAN</DistanceMeters>
          </Trackpoint>
          <Trackpoint>
            <Time>2022-07-05T10:32:05.000Z</Time>
            <Position>
              <LatitudeDegrees>44.43797218613326549530029296875</LatitudeDegrees>
              <LongitudeDegrees>-1.231618411839008331298828125</LongitudeDegrees>
            </Position>
            <AltitudeMeters>28.6000003814697265625</AltitudeMeters>
            <DistanceMeters>NAN</DistanceMeters>
          </Trackpoint>
          <Trackpoint>
            <Time>2022-07-05T10:32:08.000Z</Time>
            <Position>
              <LatitudeDegrees>44.43800948560237884521484375</LatitudeDegrees>
              <LongitudeDegrees>-1.23154792003333568572998046875</LongitudeDegrees>
            </Position>
            <AltitudeMeters>28.799999237060546875</AltitudeMeters>
            <DistanceMeters>NAN</DistanceMeters>
          </Trackpoint>
          <Trackpoint>
            <Time>2022-07-05T10:32:10.000Z</Time>
            <Position>
              <LatitudeDegrees>44.4380284287035465240478515625</LatitudeDegrees>
              <LongitudeDegrees>-1.23150475323200225830078125</LongitudeDegrees>
            </Position>
            <AltitudeMeters>29.200000762939453125</AltitudeMeters>
            <DistanceMeters>NAN</DistanceMeters>
          </Trackpoint>
          <Trackpoint>
            <Time>2022-07-05T10:32:15.000Z</Time>
            <Position>
              <LatitudeDegrees>44.43806908093392848968505859375</LatitudeDegrees>
              <LongitudeDegrees>-1.23141313903033733367919921875</LongitudeDegrees>
            </Position>
            <AltitudeMeters>29.6000003814697265625</AltitudeMeters>
            <DistanceMeters>NAN</DistanceMeters>
          </Trackpoint>
          <Trackpoint>
            <Time>2022-07-05T10:32:17.000Z</Time>
            <Position>
              <LatitudeDegrees>44.43810998462140560150146484375</LatitudeDegrees>
              <LongitudeDegrees>-1.2313738279044628143310546875</LongitudeDegrees>
            </Position>
            <AltitudeMeters>29.799999237060546875</AltitudeMeters>
            <DistanceMeters>NAN</DistanceMeters>
          </Trackpoint>
          <Trackpoint>
            <Time>2022-07-05T10:32:20.000Z</Time>
            <Position>
              <LatitudeDegrees>44.43814518861472606658935546875</LatitudeDegrees>
              <LongitudeDegrees>-1.23133367858827114105224609375</LongitudeDegrees>
            </Position>
            <AltitudeMeters>30</AltitudeMeters>
            <DistanceMeters>NAN</DistanceMeters>
          </Trackpoint>
          <Trackpoint>
            <Time>2022-07-05T10:32:22.000Z</Time>
            <Position>
              <LatitudeDegrees>44.43816111423075199127197265625</LatitudeDegrees>
              <LongitudeDegrees>-1.2312893383204936981201171875</LongitudeDegrees>
            </Position>
            <AltitudeMeters>30.200000762939453125</AltitudeMeters>
            <DistanceMeters>NAN</DistanceMeters>
          </Trackpoint>
          <Trackpoint>
            <Time>2022-07-05T10:32:25.000Z</Time>
            <Position>
              <LatitudeDegrees>44.43818558938801288604736328125</LatitudeDegrees>
              <LongitudeDegrees>-1.23122001998126506805419921875</LongitudeDegrees>
            </Position>
            <AltitudeMeters>30.6000003814697265625</AltitudeMeters>
            <DistanceMeters>NAN</DistanceMeters>
          </Trackpoint>
          <Trackpoint>
            <Time>2022-07-05T10:32:27.000Z</Time>
            <Position>
              <LatitudeDegrees>44.43818458355963230133056640625</LatitudeDegrees>
              <LongitudeDegrees>-1.231183893978595733642578125</LongitudeDegrees>
            </Position>
            <AltitudeMeters>31</AltitudeMeters>
            <DistanceMeters>NAN</DistanceMeters>
          </Trackpoint>
          <Trackpoint>
            <Time>2022-07-05T10:32:28.000Z</Time>
            <Position>
              <LatitudeDegrees>44.4381870143115520477294921875</LatitudeDegrees>
              <LongitudeDegrees>-1.23116704635322093963623046875</LongitudeDegrees>
            </Position>
            <AltitudeMeters>31</AltitudeMeters>
            <DistanceMeters>NAN</DistanceMeters>
          </Trackpoint>
          <Trackpoint>
            <Time>2022-07-05T10:32:32.000Z</Time>
            <Position>
              <LatitudeDegrees>44.43823906593024730682373046875</LatitudeDegrees>
              <LongitudeDegrees>-1.23106998391449451446533203125</LongitudeDegrees>
            </Position>
            <AltitudeMeters>31.6000003814697265625</AltitudeMeters>
            <DistanceMeters>NAN</DistanceMeters>
          </Trackpoint>
          <Trackpoint>
            <Time>2022-07-05T10:32:34.000Z</Time>
            <Position>
              <LatitudeDegrees>44.4382587634027004241943359375</LatitudeDegrees>
              <LongitudeDegrees>-1.2310264818370342254638671875</LongitudeDegrees>
            </Position>
            <AltitudeMeters>32</AltitudeMeters>
            <DistanceMeters>NAN</DistanceMeters>
          </Trackpoint>
          <Trackpoint>
            <Time>2022-07-05T10:32:40.000Z</Time>
            <Position>
              <LatitudeDegrees>44.43832238204777240753173828125</LatitudeDegrees>
              <LongitudeDegrees>-1.2308880127966403961181640625</LongitudeDegrees>
            </Position>
            <AltitudeMeters>32.59999847412109375</AltitudeMeters>
            <DistanceMeters>NAN</DistanceMeters>
          </Trackpoint>
          <Trackpoint>
            <Time>2022-07-05T10:32:44.000Z</Time>
            <Position>
              <LatitudeDegrees>44.438367225229740142822265625</LatitudeDegrees>
              <LongitudeDegrees>-1.2308239750564098358154296875</LongitudeDegrees>
            </Position>
            <AltitudeMeters>33.200000762939453125</AltitudeMeters>
            <DistanceMeters>NAN</DistanceMeters>
          </Trackpoint>
          <Trackpoint>
            <Time>2022-07-05T10:32:47.000Z</Time>
            <Position>
              <LatitudeDegrees>44.4383958913385868072509765625</LatitudeDegrees>
              <LongitudeDegrees>-1.23077762313187122344970703125</LongitudeDegrees>
            </Position>
            <AltitudeMeters>33.40000152587890625</AltitudeMeters>
            <DistanceMeters>NAN</DistanceMeters>
          </Trackpoint>
          <Trackpoint>
            <Time>2022-07-05T10:32:48.000Z</Time>
            <Position>
              <LatitudeDegrees>44.43840351887047290802001953125</LatitudeDegrees>
              <LongitudeDegrees>-1.2307562492787837982177734375</LongitudeDegrees>
            </Position>
            <AltitudeMeters>33.59999847412109375</AltitudeMeters>
            <DistanceMeters>NAN</DistanceMeters>
          </Trackpoint>
          <Trackpoint>
            <Time>2022-07-05T10:32:49.000Z</Time>
            <Position>
              <LatitudeDegrees>44.43840620107948780059814453125</LatitudeDegrees>
              <LongitudeDegrees>-1.23072867281734943389892578125</LongitudeDegrees>
            </Position>
            <AltitudeMeters>33.59999847412109375</AltitudeMeters>
            <DistanceMeters>NAN</DistanceMeters>
          </Trackpoint>
          <Trackpoint>
            <Time>2022-07-05T10:32:53.000Z</Time>
            <Position>
              <LatitudeDegrees>44.43838139064610004425048828125</LatitudeDegrees>
              <LongitudeDegrees>-1.23061752878129482269287109375</LongitudeDegrees>
            </Position>
            <AltitudeMeters>34.200000762939453125</AltitudeMeters>
            <DistanceMeters>NAN</DistanceMeters>
          </Trackpoint>
          <Trackpoint>
            <Time>2022-07-05T10:32:54.000Z</Time>
            <Position>
              <LatitudeDegrees>44.43838424049317836761474609375</LatitudeDegrees>
              <LongitudeDegrees>-1.23059523291885852813720703125</LongitudeDegrees>
            </Position>
            <AltitudeMeters>34.200000762939453125</AltitudeMeters>
            <DistanceMeters>NAN</DistanceMeters>
          </Trackpoint>
          <Trackpoint>
            <Time>2022-07-05T10:32:55.000Z</Time>
            <Position>
              <LatitudeDegrees>44.4383838213980197906494140625</LatitudeDegrees>
              <LongitudeDegrees>-1.23057897202670574188232421875</LongitudeDegrees>
            </Position>
            <AltitudeMeters>34.40000152587890625</AltitudeMeters>
            <DistanceMeters>NAN</DistanceMeters>
          </Trackpoint>
          <Trackpoint>
            <Time>2022-07-05T10:32:59.000Z</Time>
            <Position>
              <LatitudeDegrees>44.438398070633411407470703125</LatitudeDegrees>
              <LongitudeDegrees>-1.23051996342837810516357421875</LongitudeDegrees>
            </Position>
            <AltitudeMeters>34.799999237060546875</AltitudeMeters>
            <DistanceMeters>NAN</DistanceMeters>
          </Trackpoint>
          <Trackpoint>
            <Time>2022-07-05T10:33:02.000Z</Time>
            <Position>
              <LatitudeDegrees>44.43840687163174152374267578125</LatitudeDegrees>
              <LongitudeDegrees>-1.23040798120200634002685546875</LongitudeDegrees>
            </Position>
            <AltitudeMeters>35.200000762939453125</AltitudeMeters>
            <DistanceMeters>NAN</DistanceMeters>
          </Trackpoint>
          <Trackpoint>
            <Time>2022-07-05T10:33:03.000Z</Time>
            <Position>
              <LatitudeDegrees>44.4384089671075344085693359375</LatitudeDegrees>
              <LongitudeDegrees>-1.23039297759532928466796875</LongitudeDegrees>
            </Position>
            <AltitudeMeters>35.40000152587890625</AltitudeMeters>
            <DistanceMeters>NAN</DistanceMeters>
          </Trackpoint>
          <Trackpoint>
            <Time>2022-07-05T10:33:06.000Z</Time>
            <Position>
              <LatitudeDegrees>44.43843134678900241851806640625</LatitudeDegrees>
              <LongitudeDegrees>-1.23033254407346248626708984375</LongitudeDegrees>
            </Position>
            <AltitudeMeters>35.799999237060546875</AltitudeMeters>
            <DistanceMeters>NAN</DistanceMeters>
          </Trackpoint>
          <Trackpoint>
            <Time>2022-07-05T10:33:10.000Z</Time>
            <Position>
              <LatitudeDegrees>44.438473172485828399658203125</LatitudeDegrees>
              <LongitudeDegrees>-1.230237074196338653564453125</LongitudeDegrees>
            </Position>
            <AltitudeMeters>36.200000762939453125</AltitudeMeters>
            <DistanceMeters>NAN</DistanceMeters>
          </Trackpoint>
          <Trackpoint>
            <Time>2022-07-05T10:33:11.000Z</Time>
            <Position>
              <LatitudeDegrees>44.43847795017063617706298828125</LatitudeDegrees>
              <LongitudeDegrees>-1.23021838255226612091064453125</LongitudeDegrees>
            </Position>
            <AltitudeMeters>36.200000762939453125</AltitudeMeters>
            <DistanceMeters>NAN</DistanceMeters>
          </Trackpoint>
          <Trackpoint>
            <Time>2022-07-05T10:33:13.000Z</Time>
            <Position>
              <LatitudeDegrees>44.43848683498799800872802734375</LatitudeDegrees>
              <LongitudeDegrees>-1.23018804006278514862060546875</LongitudeDegrees>
            </Position>
            <AltitudeMeters>36.59999847412109375</AltitudeMeters>
            <DistanceMeters>NAN</DistanceMeters>
          </Trackpoint>
          <Trackpoint>
            <Time>2022-07-05T10:33:14.000Z</Time>
            <Position>
              <LatitudeDegrees>44.43849085830152034759521484375</LatitudeDegrees>
              <LongitudeDegrees>-1.23017932288348674774169921875</LongitudeDegrees>
            </Position>
            <AltitudeMeters>36.799999237060546875</AltitudeMeters>
            <DistanceMeters>NAN</DistanceMeters>
          </Trackpoint>
          <Trackpoint>
            <Time>2022-07-05T10:33:18.000Z</Time>
            <Position>
              <LatitudeDegrees>44.4384907744824886322021484375</LatitudeDegrees>
              <LongitudeDegrees>-1.2301252596080303192138671875</LongitudeDegrees>
            </Position>
            <AltitudeMeters>37.200000762939453125</AltitudeMeters>
            <DistanceMeters>NAN</DistanceMeters>
          </Trackpoint>
          <Trackpoint>
            <Time>2022-07-05T10:33:19.000Z</Time>
            <Position>
              <LatitudeDegrees>44.43848934955894947052001953125</LatitudeDegrees>
              <LongitudeDegrees>-1.23010505922138690948486328125</LongitudeDegrees>
            </Position>
            <AltitudeMeters>37.40000152587890625</AltitudeMeters>
            <DistanceMeters>NAN</DistanceMeters>
          </Trackpoint>
          <Trackpoint>
            <Time>2022-07-05T10:33:20.000Z</Time>
            <Position>
              <LatitudeDegrees>44.43848851136863231658935546875</LatitudeDegrees>
              <LongitudeDegrees>-1.2300856970250606536865234375</LongitudeDegrees>
            </Position>
            <AltitudeMeters>37.40000152587890625</AltitudeMeters>
            <DistanceMeters>NAN</DistanceMeters>
          </Trackpoint>
          <Trackpoint>
            <Time>2022-07-05T10:33:21.000Z</Time>
            <Position>
              <LatitudeDegrees>44.4384877569973468780517578125</LatitudeDegrees>
              <LongitudeDegrees>-1.230069436132907867431640625</LongitudeDegrees>
            </Position>
            <AltitudeMeters>37.59999847412109375</AltitudeMeters>
            <DistanceMeters>NAN</DistanceMeters>
          </Trackpoint>
          <Trackpoint>
            <Time>2022-07-05T10:33:22.000Z</Time>
            <Position>
              <LatitudeDegrees>44.43849270232021808624267578125</LatitudeDegrees>
              <LongitudeDegrees>-1.2300498224794864654541015625</LongitudeDegrees>
            </Position>
            <AltitudeMeters>37.799999237060546875</AltitudeMeters>
            <DistanceMeters>NAN</DistanceMeters>
          </Trackpoint>
          <Trackpoint>
            <Time>2022-07-05T10:33:25.000Z</Time>
            <Position>
              <LatitudeDegrees>44.43848918192088603973388671875</LatitudeDegrees>
              <LongitudeDegrees>-1.2300183065235614776611328125</LongitudeDegrees>
            </Position>
            <AltitudeMeters>38.200000762939453125</AltitudeMeters>
            <DistanceMeters>NAN</DistanceMeters>
          </Trackpoint>
          <Trackpoint>
            <Time>2022-07-05T10:33:26.000Z</Time>
            <Position>
              <LatitudeDegrees>44.43847510032355785369873046875</LatitudeDegrees>
              <LongitudeDegrees>-1.2299844436347484588623046875</LongitudeDegrees>
            </Position>
            <AltitudeMeters>38.40000152587890625</AltitudeMeters>
            <DistanceMeters>NAN</DistanceMeters>
          </Trackpoint>
          <Trackpoint>
            <Time>2022-07-05T10:33:28.000Z</Time>
            <Position>
              <LatitudeDegrees>44.4384626112878322601318359375</LatitudeDegrees>
              <LongitudeDegrees>-1.22996541671454906463623046875</LongitudeDegrees>
            </Position>
            <AltitudeMeters>38.59999847412109375</AltitudeMeters>
            <DistanceMeters>NAN</DistanceMeters>
          </Trackpoint>
          <Trackpoint>
            <Time>2022-07-05T10:33:29.000Z</Time>
            <Position>
              <LatitudeDegrees>44.43845096044242382049560546875</LatitudeDegrees>
              <LongitudeDegrees>-1.2299267761409282684326171875</LongitudeDegrees>
            </Position>
            <AltitudeMeters>38.799999237060546875</AltitudeMeters>
            <DistanceMeters>NAN</DistanceMeters>
          </Trackpoint>
          <Trackpoint>
            <Time>2022-07-05T10:33:31.000Z</Time>
            <Position>
              <LatitudeDegrees>44.43844308145344257354736328125</LatitudeDegrees>
              <LongitudeDegrees>-1.2298929132521152496337890625</LongitudeDegrees>
            </Position>
            <AltitudeMeters>38.799999237060546875</AltitudeMeters>
            <DistanceMeters>NAN</DistanceMeters>
          </Trackpoint>
          <Trackpoint>
            <Time>2022-07-05T10:33:36.000Z</Time>
            <Position>
              <LatitudeDegrees>44.4384488649666309356689453125</LatitudeDegrees>
              <LongitudeDegrees>-1.22977246530354022979736328125</LongitudeDegrees>
            </Position>
            <AltitudeMeters>39.40000152587890625</AltitudeMeters>
            <DistanceMeters>NAN</DistanceMeters>
          </Trackpoint>
          <Trackpoint>
            <Time>2022-07-05T10:33:37.000Z</Time>
            <Position>
              <LatitudeDegrees>44.43844542838633060455322265625</LatitudeDegrees>
              <LongitudeDegrees>-1.22975117526948451995849609375</LongitudeDegrees>
            </Position>
            <AltitudeMeters>39.59999847412109375</AltitudeMeters>
            <DistanceMeters>NAN</DistanceMeters>
          </Trackpoint>
          <Trackpoint>
            <Time>2022-07-05T10:33:38.000Z</Time>
            <Position>
              <LatitudeDegrees>44.43844039924442768096923828125</LatitudeDegrees>
              <LongitudeDegrees>-1.229732148349285125732421875</LongitudeDegrees>
            </Position>
            <AltitudeMeters>39.799999237060546875</AltitudeMeters>
            <DistanceMeters>NAN</DistanceMeters>
          </Trackpoint>
          <Trackpoint>
            <Time>2022-07-05T10:33:40.000Z</Time>
            <Position>
              <LatitudeDegrees>44.4384307600557804107666015625</LatitudeDegrees>
              <LongitudeDegrees>-1.22969702817499637603759765625</LongitudeDegrees>
            </Position>
            <AltitudeMeters>40</AltitudeMeters>
            <DistanceMeters>NAN</DistanceMeters>
          </Trackpoint>
          <Trackpoint>
            <Time>2022-07-05T10:33:41.000Z</Time>
            <Position>
              <LatitudeDegrees>44.43841860629618167877197265625</LatitudeDegrees>
              <LongitudeDegrees>-1.22967925854027271270751953125</LongitudeDegrees>
            </Position>
            <AltitudeMeters>40.200000762939453125</AltitudeMeters>
            <DistanceMeters>NAN</DistanceMeters>
          </Trackpoint>
          <Trackpoint>
            <Time>2022-07-05T10:33:44.000Z</Time>
            <Position>
              <LatitudeDegrees>44.43837703205645084381103515625</LatitudeDegrees>
              <LongitudeDegrees>-1.229640953242778778076171875</LongitudeDegrees>
            </Position>
            <AltitudeMeters>40.40000152587890625</AltitudeMeters>
            <DistanceMeters>NAN</DistanceMeters>
          </Trackpoint>
          <Trackpoint>
            <Time>2022-07-05T10:33:46.000Z</Time>
            <Position>
              <LatitudeDegrees>44.43834601901471614837646484375</LatitudeDegrees>
              <LongitudeDegrees>-1.22961320914328098297119140625</LongitudeDegrees>
            </Position>
            <AltitudeMeters>40.59999847412109375</AltitudeMeters>
            <DistanceMeters>NAN</DistanceMeters>
          </Trackpoint>
          <Trackpoint>
            <Time>2022-07-05T10:33:47.000Z</Time>
            <Position>
              <LatitudeDegrees>44.4383422471582889556884765625</LatitudeDegrees>
              <LongitudeDegrees>-1.22959879226982593536376953125</LongitudeDegrees>
            </Position>
            <AltitudeMeters>40.59999847412109375</AltitudeMeters>
            <DistanceMeters>NAN</DistanceMeters>
          </Trackpoint>
          <Trackpoint>
            <Time>2022-07-05T10:33:48.000Z</Time>
            <Position>
              <LatitudeDegrees>44.4383425824344158172607421875</LatitudeDegrees>
              <LongitudeDegrees>-1.2295784242451190948486328125</LongitudeDegrees>
            </Position>
            <AltitudeMeters>40.799999237060546875</AltitudeMeters>
            <DistanceMeters>NAN</DistanceMeters>
          </Trackpoint>
          <Trackpoint>
            <Time>2022-07-05T10:33:50.000Z</Time>
            <Position>
              <LatitudeDegrees>44.43833143450319766998291015625</LatitudeDegrees>
              <LongitudeDegrees>-1.22953274287283420562744140625</LongitudeDegrees>
            </Position>
            <AltitudeMeters>41</AltitudeMeters>
            <DistanceMeters>NAN</DistanceMeters>
          </Trackpoint>
          <Trackpoint>
            <Time>2022-07-05T10:33:52.000Z</Time>
            <Position>
              <LatitudeDegrees>44.4383127428591251373291015625</LatitudeDegrees>
              <LongitudeDegrees>-1.22950256802141666412353515625</LongitudeDegrees>
            </Position>
            <AltitudeMeters>41.40000152587890625</AltitudeMeters>
            <DistanceMeters>NAN</DistanceMeters>
          </Trackpoint>
          <Trackpoint>
            <Time>2022-07-05T10:33:54.000Z</Time>
            <Position>
              <LatitudeDegrees>44.43830528296530246734619140625</LatitudeDegrees>
              <LongitudeDegrees>-1.22948639094829559326171875</LongitudeDegrees>
            </Position>
            <AltitudeMeters>41.59999847412109375</AltitudeMeters>
            <DistanceMeters>NAN</DistanceMeters>
          </Trackpoint>
          <Trackpoint>
            <Time>2022-07-05T10:33:56.000Z</Time>
            <Position>
              <LatitudeDegrees>44.438296146690845489501953125</LatitudeDegrees>
              <LongitudeDegrees>-1.22946627438068389892578125</LongitudeDegrees>
            </Position>
            <AltitudeMeters>41.799999237060546875</AltitudeMeters>
            <DistanceMeters>NAN</DistanceMeters>
          </Trackpoint>
          <Trackpoint>
            <Time>2022-07-05T10:33:57.000Z</Time>
            <Position>
              <LatitudeDegrees>44.43828935734927654266357421875</LatitudeDegrees>
              <LongitudeDegrees>-1.22945277951657772064208984375</LongitudeDegrees>
            </Position>
            <AltitudeMeters>42</AltitudeMeters>
            <DistanceMeters>NAN</DistanceMeters>
          </Trackpoint>
          <Trackpoint>
            <Time>2022-07-05T10:33:58.000Z</Time>
            <Position>
              <LatitudeDegrees>44.43828935734927654266357421875</LatitudeDegrees>
              <LongitudeDegrees>-1.22945277951657772064208984375</LongitudeDegrees>
            </Position>
            <AltitudeMeters>42</AltitudeMeters>
            <DistanceMeters>NAN</DistanceMeters>
          </Trackpoint>
          <Trackpoint>
            <Time>2022-07-05T10:33:59.000Z</Time>
            <Position>
              <LatitudeDegrees>44.4382859207689762115478515625</LatitudeDegrees>
              <LongitudeDegrees>-1.22941506095230579376220703125</LongitudeDegrees>
            </Position>
            <AltitudeMeters>42.200000762939453125</AltitudeMeters>
            <DistanceMeters>NAN</DistanceMeters>
          </Trackpoint>
          <Trackpoint>
            <Time>2022-07-05T10:34:00.000Z</Time>
            <Position>
              <LatitudeDegrees>44.43828709423542022705078125</LatitudeDegrees>
              <LongitudeDegrees>-1.22940181754529476165771484375</LongitudeDegrees>
            </Position>
            <AltitudeMeters>42.40000152587890625</AltitudeMeters>
            <DistanceMeters>NAN</DistanceMeters>
          </Trackpoint>
          <Trackpoint>
            <Time>2022-07-05T10:34:02.000Z</Time>
            <Position>
              <LatitudeDegrees>44.43828298710286617279052734375</LatitudeDegrees>
              <LongitudeDegrees>-1.22937231324613094329833984375</LongitudeDegrees>
            </Position>
            <AltitudeMeters>42.799999237060546875</AltitudeMeters>
            <DistanceMeters>NAN</DistanceMeters>
          </Trackpoint>
          <Trackpoint>
            <Time>2022-07-05T10:34:03.000Z</Time>
            <Position>
              <LatitudeDegrees>44.43828047253191471099853515625</LatitudeDegrees>
              <LongitudeDegrees>-1.22936476953327655792236328125</LongitudeDegrees>
            </Position>
            <AltitudeMeters>43</AltitudeMeters>
            <DistanceMeters>NAN</DistanceMeters>
          </Trackpoint>
          <Trackpoint>
            <Time>2022-07-05T10:34:04.000Z</Time>
            <Position>
              <LatitudeDegrees>44.4382788799703121185302734375</LatitudeDegrees>
              <LongitudeDegrees>-1.229358650743961334228515625</LongitudeDegrees>
            </Position>
            <AltitudeMeters>43.200000762939453125</AltitudeMeters>
            <DistanceMeters>NAN</DistanceMeters>
          </Trackpoint>
          <Trackpoint>
            <Time>2022-07-05T10:34:05.000Z</Time>
            <Position>
              <LatitudeDegrees>44.4382802210748195648193359375</LatitudeDegrees>
              <LongitudeDegrees>-1.2293462455272674560546875</LongitudeDegrees>
            </Position>
            <AltitudeMeters>43.40000152587890625</AltitudeMeters>
            <DistanceMeters>NAN</DistanceMeters>
          </Trackpoint>
          <Trackpoint>
            <Time>2022-07-05T10:34:06.000Z</Time>
            <Position>
              <LatitudeDegrees>44.43828307092189788818359375</LatitudeDegrees>
              <LongitudeDegrees>-1.22933442704379558563232421875</LongitudeDegrees>
            </Position>
            <AltitudeMeters>43.59999847412109375</AltitudeMeters>
            <DistanceMeters>NAN</DistanceMeters>
          </Trackpoint>
          <Trackpoint>
            <Time>2022-07-05T10:34:08.000Z</Time>
            <Position>
              <LatitudeDegrees>44.43828642368316650390625</LatitudeDegrees>
              <LongitudeDegrees>-1.2293095327913761138916015625</LongitudeDegrees>
            </Position>
            <AltitudeMeters>43.799999237060546875</AltitudeMeters>
            <DistanceMeters>NAN</DistanceMeters>
          </Trackpoint>
          <Trackpoint>
            <Time>2022-07-05T10:34:11.000Z</Time>
            <Position>
              <LatitudeDegrees>44.438237808644771575927734375</LatitudeDegrees>
              <LongitudeDegrees>-1.2292652763426303863525390625</LongitudeDegrees>
            </Position>
            <AltitudeMeters>44.200000762939453125</AltitudeMeters>
            <DistanceMeters>NAN</DistanceMeters>
          </Trackpoint>
          <Trackpoint>
            <Time>2022-07-05T10:34:16.000Z</Time>
            <Position>
              <LatitudeDegrees>44.4381571747362613677978515625</LatitudeDegrees>
              <LongitudeDegrees>-1.22919562272727489471435546875</LongitudeDegrees>
            </Position>
            <AltitudeMeters>44.799999237060546875</AltitudeMeters>
            <DistanceMeters>NAN</DistanceMeters>
          </Trackpoint>
          <Trackpoint>
            <Time>2022-07-05T10:34:18.000Z</Time>
            <Position>
              <LatitudeDegrees>44.43814359605312347412109375</LatitudeDegrees>
              <LongitudeDegrees>-1.22915421612560749053955078125</LongitudeDegrees>
            </Position>
            <AltitudeMeters>45.200000762939453125</AltitudeMeters>
            <DistanceMeters>NAN</DistanceMeters>
          </Trackpoint>
          <Trackpoint>
            <Time>2022-07-05T10:34:19.000Z</Time>
            <Position>
              <LatitudeDegrees>44.4381370581686496734619140625</LatitudeDegrees>
              <LongitudeDegrees>-1.22914097271859645843505859375</LongitudeDegrees>
            </Position>
            <AltitudeMeters>45.40000152587890625</AltitudeMeters>
            <DistanceMeters>NAN</DistanceMeters>
          </Trackpoint>
          <Trackpoint>
            <Time>2022-07-05T10:34:24.000Z</Time>
            <Position>
              <LatitudeDegrees>44.43809908814728260040283203125</LatitudeDegrees>
              <LongitudeDegrees>-1.22907157056033611297607421875</LongitudeDegrees>
            </Position>
            <AltitudeMeters>46</AltitudeMeters>
            <DistanceMeters>NAN</DistanceMeters>
          </Trackpoint>
          <Trackpoint>
            <Time>2022-07-05T10:34:25.000Z</Time>
            <Position>
              <LatitudeDegrees>44.43809925578534603118896484375</LatitudeDegrees>
              <LongitudeDegrees>-1.229046843945980072021484375</LongitudeDegrees>
            </Position>
            <AltitudeMeters>46.200000762939453125</AltitudeMeters>
            <DistanceMeters>NAN</DistanceMeters>
          </Trackpoint>
          <Trackpoint>
            <Time>2022-07-05T10:34:26.000Z</Time>
            <Position>
              <LatitudeDegrees>44.43809741176664829254150390625</LatitudeDegrees>
              <LongitudeDegrees>-1.229022704064846038818359375</LongitudeDegrees>
            </Position>
            <AltitudeMeters>46.59999847412109375</AltitudeMeters>
            <DistanceMeters>NAN</DistanceMeters>
          </Trackpoint>
          <Trackpoint>
            <Time>2022-07-05T10:34:30.000Z</Time>
            <Position>
              <LatitudeDegrees>44.43808768875896930694580078125</LatitudeDegrees>
              <LongitudeDegrees>-1.2289538048207759857177734375</LongitudeDegrees>
            </Position>
            <AltitudeMeters>47.200000762939453125</AltitudeMeters>
            <DistanceMeters>NAN</DistanceMeters>
          </Trackpoint>
          <Trackpoint>
            <Time>2022-07-05T10:34:31.000Z</Time>
            <Position>
              <LatitudeDegrees>44.4380720146000385284423828125</LatitudeDegrees>
              <LongitudeDegrees>-1.2289440818130970001220703125</LongitudeDegrees>
            </Position>
            <AltitudeMeters>47.200000762939453125</AltitudeMeters>
            <DistanceMeters>NAN</DistanceMeters>
          </Trackpoint>
          <Trackpoint>
            <Time>2022-07-05T10:34:33.000Z</Time>
            <Position>
              <LatitudeDegrees>44.4380461983382701873779296875</LatitudeDegrees>
              <LongitudeDegrees>-1.22892321087419986724853515625</LongitudeDegrees>
            </Position>
            <AltitudeMeters>47.200000762939453125</AltitudeMeters>
            <DistanceMeters>NAN</DistanceMeters>
          </Trackpoint>
          <Trackpoint>
            <Time>2022-07-05T10:34:35.000Z</Time>
            <Position>
              <LatitudeDegrees>44.43804427050054073333740234375</LatitudeDegrees>
              <LongitudeDegrees>-1.22887878678739070892333984375</LongitudeDegrees>
            </Position>
            <AltitudeMeters>47.40000152587890625</AltitudeMeters>
            <DistanceMeters>NAN</DistanceMeters>
          </Trackpoint>
          <Trackpoint>
            <Time>2022-07-05T10:34:36.000Z</Time>
            <Position>
              <LatitudeDegrees>44.438041336834430694580078125</LatitudeDegrees>
              <LongitudeDegrees>-1.22885397635400295257568359375</LongitudeDegrees>
            </Position>
            <AltitudeMeters>47.40000152587890625</AltitudeMeters>
            <DistanceMeters>NAN</DistanceMeters>
          </Trackpoint>
          <Trackpoint>
            <Time>2022-07-05T10:34:39.000Z</Time>
            <Position>
              <LatitudeDegrees>44.4380361400544643402099609375</LatitudeDegrees>
              <LongitudeDegrees>-1.2288156710565090179443359375</LongitudeDegrees>
            </Position>
            <AltitudeMeters>47.799999237060546875</AltitudeMeters>
            <DistanceMeters>NAN</DistanceMeters>
          </Trackpoint>
          <Trackpoint>
            <Time>2022-07-05T10:34:40.000Z</Time>
            <Position>
              <LatitudeDegrees>44.43803370930254459381103515625</LatitudeDegrees>
              <LongitudeDegrees>-1.2287888489663600921630859375</LongitudeDegrees>
            </Position>
            <AltitudeMeters>47.799999237060546875</AltitudeMeters>
            <DistanceMeters>NAN</DistanceMeters>
          </Trackpoint>
          <Trackpoint>
            <Time>2022-07-05T10:34:41.000Z</Time>
            <Position>
              <LatitudeDegrees>44.438032619655132293701171875</LatitudeDegrees>
              <LongitudeDegrees>-1.2287637032568454742431640625</LongitudeDegrees>
            </Position>
            <AltitudeMeters>48</AltitudeMeters>
            <DistanceMeters>NAN</DistanceMeters>
          </Trackpoint>
          <Trackpoint>
            <Time>2022-07-05T10:34:42.000Z</Time>
            <Position>
              <LatitudeDegrees>44.4380304403603076934814453125</LatitudeDegrees>
              <LongitudeDegrees>-1.2287442572414875030517578125</LongitudeDegrees>
            </Position>
            <AltitudeMeters>48.200000762939453125</AltitudeMeters>
            <DistanceMeters>NAN</DistanceMeters>
          </Trackpoint>
          <Trackpoint>
            <Time>2022-07-05T10:34:43.000Z</Time>
            <Position>
              <LatitudeDegrees>44.4380277581512928009033203125</LatitudeDegrees>
              <LongitudeDegrees>-1.2287382222712039947509765625</LongitudeDegrees>
            </Position>
            <AltitudeMeters>48.40000152587890625</AltitudeMeters>
            <DistanceMeters>NAN</DistanceMeters>
          </Trackpoint>
          <Trackpoint>
            <Time>2022-07-05T10:34:46.000Z</Time>
            <Position>
              <LatitudeDegrees>44.43799448199570178985595703125</LatitudeDegrees>
              <LongitudeDegrees>-1.22868818230926990509033203125</LongitudeDegrees>
            </Position>
            <AltitudeMeters>48.799999237060546875</AltitudeMeters>
            <DistanceMeters>NAN</DistanceMeters>
          </Trackpoint>
          <Trackpoint>
            <Time>2022-07-05T10:34:47.000Z</Time>
            <Position>
              <LatitudeDegrees>44.43800051696598529815673828125</LatitudeDegrees>
              <LongitudeDegrees>-1.22865867801010608673095703125</LongitudeDegrees>
            </Position>
            <AltitudeMeters>48.799999237060546875</AltitudeMeters>
            <DistanceMeters>NAN</DistanceMeters>
          </Trackpoint>
          <Trackpoint>
            <Time>2022-07-05T10:34:48.000Z</Time>
            <Position>
              <LatitudeDegrees>44.4379975832998752593994140625</LatitudeDegrees>
              <LongitudeDegrees>-1.22863604687154293060302734375</LongitudeDegrees>
            </Position>
            <AltitudeMeters>49</AltitudeMeters>
            <DistanceMeters>NAN</DistanceMeters>
          </Trackpoint>
          <Trackpoint>
            <Time>2022-07-05T10:34:50.000Z</Time>
            <Position>
              <LatitudeDegrees>44.43799674510955810546875</LatitudeDegrees>
              <LongitudeDegrees>-1.2285925447940826416015625</LongitudeDegrees>
            </Position>
            <AltitudeMeters>49</AltitudeMeters>
            <DistanceMeters>NAN</DistanceMeters>
          </Trackpoint>
          <Trackpoint>
            <Time>2022-07-05T10:34:51.000Z</Time>
            <Position>
              <LatitudeDegrees>44.437996409833431243896484375</LatitudeDegrees>
              <LongitudeDegrees>-1.228567063808441162109375</LongitudeDegrees>
            </Position>
            <AltitudeMeters>49</AltitudeMeters>
            <DistanceMeters>NAN</DistanceMeters>
          </Trackpoint>
          <Trackpoint>
            <Time>2022-07-05T10:34:55.000Z</Time>
            <Position>
              <LatitudeDegrees>44.437983334064483642578125</LatitudeDegrees>
              <LongitudeDegrees>-1.22846120037138462066650390625</LongitudeDegrees>
            </Position>
            <AltitudeMeters>49.40000152587890625</AltitudeMeters>
            <DistanceMeters>NAN</DistanceMeters>
          </Trackpoint>
          <Trackpoint>
            <Time>2022-07-05T10:34:57.000Z</Time>
            <Position>
              <LatitudeDegrees>44.43796816281974315643310546875</LatitudeDegrees>
              <LongitudeDegrees>-1.22841208241879940032958984375</LongitudeDegrees>
            </Position>
            <AltitudeMeters>49.40000152587890625</AltitudeMeters>
            <DistanceMeters>NAN</DistanceMeters>
          </Trackpoint>
          <Trackpoint>
            <Time>2022-07-05T10:35:03.000Z</Time>
            <Position>
              <LatitudeDegrees>44.43791921250522136688232421875</LatitudeDegrees>
              <LongitudeDegrees>-1.228196918964385986328125</LongitudeDegrees>
            </Position>
            <AltitudeMeters>49.40000152587890625</AltitudeMeters>
            <DistanceMeters>NAN</DistanceMeters>
          </Trackpoint>
          <Trackpoint>
            <Time>2022-07-05T10:35:08.000Z</Time>
            <Position>
              <LatitudeDegrees>44.43793899379670619964599609375</LatitudeDegrees>
              <LongitudeDegrees>-1.227940432727336883544921875</LongitudeDegrees>
            </Position>
            <AltitudeMeters>49.200000762939453125</AltitudeMeters>
            <DistanceMeters>NAN</DistanceMeters>
          </Trackpoint>
          <Trackpoint>
            <Time>2022-07-05T10:35:09.000Z</Time>
            <Position>
              <LatitudeDegrees>44.437957517802715301513671875</LatitudeDegrees>
              <LongitudeDegrees>-1.22788511216640472412109375</LongitudeDegrees>
            </Position>
            <AltitudeMeters>49.200000762939453125</AltitudeMeters>
            <DistanceMeters>NAN</DistanceMeters>
          </Trackpoint>
          <Trackpoint>
            <Time>2022-07-05T10:35:10.000Z</Time>
            <Position>
              <LatitudeDegrees>44.43798660300672054290771484375</LatitudeDegrees>
              <LongitudeDegrees>-1.22783104889094829559326171875</LongitudeDegrees>
            </Position>
            <AltitudeMeters>49</AltitudeMeters>
            <DistanceMeters>NAN</DistanceMeters>
          </Trackpoint>
          <Trackpoint>
            <Time>2022-07-05T10:35:12.000Z</Time>
            <Position>
              <LatitudeDegrees>44.43805198185145854949951171875</LatitudeDegrees>
              <LongitudeDegrees>-1.2277173064649105072021484375</LongitudeDegrees>
            </Position>
            <AltitudeMeters>48.59999847412109375</AltitudeMeters>
            <DistanceMeters>NAN</DistanceMeters>
          </Trackpoint>
          <Trackpoint>
            <Time>2022-07-05T10:35:13.000Z</Time>
            <Position>
              <LatitudeDegrees>44.4380892813205718994140625</LatitudeDegrees>
              <LongitudeDegrees>-1.2276787497103214263916015625</LongitudeDegrees>
            </Position>
            <AltitudeMeters>48.40000152587890625</AltitudeMeters>
            <DistanceMeters>NAN</DistanceMeters>
          </Trackpoint>
          <Trackpoint>
            <Time>2022-07-05T10:35:16.000Z</Time>
            <Position>
              <LatitudeDegrees>44.43820319138467311859130859375</LatitudeDegrees>
              <LongitudeDegrees>-1.22758059762418270111083984375</LongitudeDegrees>
            </Position>
            <AltitudeMeters>48</AltitudeMeters>
            <DistanceMeters>NAN</DistanceMeters>
          </Trackpoint>
          <Trackpoint>
            <Time>2022-07-05T10:35:18.000Z</Time>
            <Position>
              <LatitudeDegrees>44.438282735645771026611328125</LatitudeDegrees>
              <LongitudeDegrees>-1.22748957015573978424072265625</LongitudeDegrees>
            </Position>
            <AltitudeMeters>48</AltitudeMeters>
            <DistanceMeters>NAN</DistanceMeters>
          </Trackpoint>
          <Trackpoint>
            <Time>2022-07-05T10:35:19.000Z</Time>
            <Position>
              <LatitudeDegrees>44.4383295066654682159423828125</LatitudeDegrees>
              <LongitudeDegrees>-1.22744631953537464141845703125</LongitudeDegrees>
            </Position>
            <AltitudeMeters>48</AltitudeMeters>
            <DistanceMeters>NAN</DistanceMeters>
          </Trackpoint>
          <Trackpoint>
            <Time>2022-07-05T10:35:22.000Z</Time>
            <Position>
              <LatitudeDegrees>44.43837225437164306640625</LatitudeDegrees>
              <LongitudeDegrees>-1.227358393371105194091796875</LongitudeDegrees>
            </Position>
            <AltitudeMeters>48.40000152587890625</AltitudeMeters>
            <DistanceMeters>NAN</DistanceMeters>
          </Trackpoint>
          <Trackpoint>
            <Time>2022-07-05T10:35:25.000Z</Time>
            <Position>
              <LatitudeDegrees>44.4384230487048625946044921875</LatitudeDegrees>
              <LongitudeDegrees>-1.22725286521017551422119140625</LongitudeDegrees>
            </Position>
            <AltitudeMeters>48.799999237060546875</AltitudeMeters>
            <DistanceMeters>NAN</DistanceMeters>
          </Trackpoint>
          <Trackpoint>
            <Time>2022-07-05T10:35:27.000Z</Time>
            <Position>
              <LatitudeDegrees>44.43846789188683032989501953125</LatitudeDegrees>
              <LongitudeDegrees>-1.2271822057664394378662109375</LongitudeDegrees>
            </Position>
            <AltitudeMeters>49</AltitudeMeters>
            <DistanceMeters>NAN</DistanceMeters>
          </Trackpoint>
          <Trackpoint>
            <Time>2022-07-05T10:35:29.000Z</Time>
            <Position>
              <LatitudeDegrees>44.43849823437631130218505859375</LatitudeDegrees>
              <LongitudeDegrees>-1.22712730430066585540771484375</LongitudeDegrees>
            </Position>
            <AltitudeMeters>49.40000152587890625</AltitudeMeters>
            <DistanceMeters>NAN</DistanceMeters>
          </Trackpoint>
          <Trackpoint>
            <Time>2022-07-05T10:35:33.000Z</Time>
            <Position>
              <LatitudeDegrees>44.438538886606693267822265625</LatitudeDegrees>
              <LongitudeDegrees>-1.22699059545993804931640625</LongitudeDegrees>
            </Position>
            <AltitudeMeters>49.40000152587890625</AltitudeMeters>
            <DistanceMeters>NAN</DistanceMeters>
          </Trackpoint>
          <Trackpoint>
            <Time>2022-07-05T10:35:36.000Z</Time>
            <Position>
              <LatitudeDegrees>44.43855129182338714599609375</LatitudeDegrees>
              <LongitudeDegrees>-1.22691105119884014129638671875</LongitudeDegrees>
            </Position>
            <AltitudeMeters>49.799999237060546875</AltitudeMeters>
            <DistanceMeters>NAN</DistanceMeters>
          </Trackpoint>
          <Trackpoint>
            <Time>2022-07-05T10:35:40.000Z</Time>
            <Position>
              <LatitudeDegrees>44.4385859929025173187255859375</LatitudeDegrees>
              <LongitudeDegrees>-1.22676235623657703399658203125</LongitudeDegrees>
            </Position>
            <AltitudeMeters>50.40000152587890625</AltitudeMeters>
            <DistanceMeters>NAN</DistanceMeters>
          </Trackpoint>
          <Trackpoint>
            <Time>2022-07-05T10:35:44.000Z</Time>
            <Position>
              <LatitudeDegrees>44.4386175088584423065185546875</LatitudeDegrees>
              <LongitudeDegrees>-1.2266581691801548004150390625</LongitudeDegrees>
            </Position>
            <AltitudeMeters>50.799999237060546875</AltitudeMeters>
            <DistanceMeters>NAN</DistanceMeters>
          </Trackpoint>
          <Trackpoint>
            <Time>2022-07-05T10:35:46.000Z</Time>
            <Position>
              <LatitudeDegrees>44.43862563930451869964599609375</LatitudeDegrees>
              <LongitudeDegrees>-1.2266165949404239654541015625</LongitudeDegrees>
            </Position>
            <AltitudeMeters>51.200000762939453125</AltitudeMeters>
            <DistanceMeters>NAN</DistanceMeters>
          </Trackpoint>
          <Trackpoint>
            <Time>2022-07-05T10:35:47.000Z</Time>
            <Position>
              <LatitudeDegrees>44.43862563930451869964599609375</LatitudeDegrees>
              <LongitudeDegrees>-1.2266165949404239654541015625</LongitudeDegrees>
            </Position>
            <AltitudeMeters>51.40000152587890625</AltitudeMeters>
            <DistanceMeters>NAN</DistanceMeters>
          </Trackpoint>
          <Trackpoint>
            <Time>2022-07-05T10:35:50.000Z</Time>
            <Position>
              <LatitudeDegrees>44.43864793516695499420166015625</LatitudeDegrees>
              <LongitudeDegrees>-1.22656689025461673736572265625</LongitudeDegrees>
            </Position>
            <AltitudeMeters>51.59999847412109375</AltitudeMeters>
            <DistanceMeters>NAN</DistanceMeters>
          </Trackpoint>
          <Trackpoint>
            <Time>2022-07-05T10:35:53.000Z</Time>
            <Position>
              <LatitudeDegrees>44.438686408102512359619140625</LatitudeDegrees>
              <LongitudeDegrees>-1.22651006095111370086669921875</LongitudeDegrees>
            </Position>
            <AltitudeMeters>51.799999237060546875</AltitudeMeters>
            <DistanceMeters>NAN</DistanceMeters>
          </Trackpoint>
          <Trackpoint>
            <Time>2022-07-05T10:35:56.000Z</Time>
            <Position>
              <LatitudeDegrees>44.4387301616370677947998046875</LatitudeDegrees>
              <LongitudeDegrees>-1.226457841694355010986328125</LongitudeDegrees>
            </Position>
            <AltitudeMeters>52.200000762939453125</AltitudeMeters>
            <DistanceMeters>NAN</DistanceMeters>
          </Trackpoint>
          <Trackpoint>
            <Time>2022-07-05T10:36:00.000Z</Time>
            <Position>
              <LatitudeDegrees>44.43878523074090480804443359375</LatitudeDegrees>
              <LongitudeDegrees>-1.2264224700629711151123046875</LongitudeDegrees>
            </Position>
            <AltitudeMeters>52.59999847412109375</AltitudeMeters>
            <DistanceMeters>NAN</DistanceMeters>
          </Trackpoint>
          <Trackpoint>
            <Time>2022-07-05T10:36:03.000Z</Time>
            <Position>
              <LatitudeDegrees>44.4388602487742900848388671875</LatitudeDegrees>
              <LongitudeDegrees>-1.22641568072140216827392578125</LongitudeDegrees>
            </Position>
            <AltitudeMeters>53</AltitudeMeters>
            <DistanceMeters>NAN</DistanceMeters>
          </Trackpoint>
          <Trackpoint>
            <Time>2022-07-05T10:36:04.000Z</Time>
            <Position>
              <LatitudeDegrees>44.43887726403772830963134765625</LatitudeDegrees>
              <LongitudeDegrees>-1.22642607428133487701416015625</LongitudeDegrees>
            </Position>
            <AltitudeMeters>53</AltitudeMeters>
            <DistanceMeters>NAN</DistanceMeters>
          </Trackpoint>
          <Trackpoint>
            <Time>2022-07-05T10:36:07.000Z</Time>
            <Position>
              <LatitudeDegrees>44.4389286451041698455810546875</LatitudeDegrees>
              <LongitudeDegrees>-1.2264548242092132568359375</LongitudeDegrees>
            </Position>
            <AltitudeMeters>53.200000762939453125</AltitudeMeters>
            <DistanceMeters>NAN</DistanceMeters>
          </Trackpoint>
          <Trackpoint>
            <Time>2022-07-05T10:36:11.000Z</Time>
            <Position>
              <LatitudeDegrees>44.4389786012470722198486328125</LatitudeDegrees>
              <LongitudeDegrees>-1.22650184668600559234619140625</LongitudeDegrees>
            </Position>
            <AltitudeMeters>53.59999847412109375</AltitudeMeters>
            <DistanceMeters>NAN</DistanceMeters>
          </Trackpoint>
          <Trackpoint>
            <Time>2022-07-05T10:36:14.000Z</Time>
            <Position>
              <LatitudeDegrees>44.4390195049345493316650390625</LatitudeDegrees>
              <LongitudeDegrees>-1.22652162797749042510986328125</LongitudeDegrees>
            </Position>
            <AltitudeMeters>54</AltitudeMeters>
            <DistanceMeters>NAN</DistanceMeters>
          </Trackpoint>
          <Trackpoint>
            <Time>2022-07-05T10:36:15.000Z</Time>
            <Position>
              <LatitudeDegrees>44.43903937004506587982177734375</LatitudeDegrees>
              <LongitudeDegrees>-1.22653193771839141845703125</LongitudeDegrees>
            </Position>
            <AltitudeMeters>54</AltitudeMeters>
            <DistanceMeters>NAN</DistanceMeters>
          </Trackpoint>
          <Trackpoint>
            <Time>2022-07-05T10:36:17.000Z</Time>
            <Position>
              <LatitudeDegrees>44.439083039760589599609375</LatitudeDegrees>
              <LongitudeDegrees>-1.22656538151204586029052734375</LongitudeDegrees>
            </Position>
            <AltitudeMeters>54</AltitudeMeters>
            <DistanceMeters>NAN</DistanceMeters>
          </Trackpoint>
          <Trackpoint>
            <Time>2022-07-05T10:36:23.000Z</Time>
            <Position>
              <LatitudeDegrees>44.43920172750949859619140625</LatitudeDegrees>
              <LongitudeDegrees>-1.22668004594743251800537109375</LongitudeDegrees>
            </Position>
            <AltitudeMeters>54.59999847412109375</AltitudeMeters>
            <DistanceMeters>NAN</DistanceMeters>
          </Trackpoint>
          <Trackpoint>
            <Time>2022-07-05T10:36:25.000Z</Time>
            <Position>
              <LatitudeDegrees>44.43923952989280223846435546875</LatitudeDegrees>
              <LongitudeDegrees>-1.22669287025928497314453125</LongitudeDegrees>
            </Position>
            <AltitudeMeters>55</AltitudeMeters>
            <DistanceMeters>NAN</DistanceMeters>
          </Trackpoint>
          <Trackpoint>
            <Time>2022-07-05T10:36:31.000Z</Time>
            <Position>
              <LatitudeDegrees>44.43935637362301349639892578125</LatitudeDegrees>
              <LongitudeDegrees>-1.22677459381520748138427734375</LongitudeDegrees>
            </Position>
            <AltitudeMeters>55.40000152587890625</AltitudeMeters>
            <DistanceMeters>NAN</DistanceMeters>
          </Trackpoint>
          <Trackpoint>
            <Time>2022-07-05T10:36:36.000Z</Time>
            <Position>
              <LatitudeDegrees>44.439446814358234405517578125</LatitudeDegrees>
              <LongitudeDegrees>-1.22684634290635585784912109375</LongitudeDegrees>
            </Position>
            <AltitudeMeters>55.799999237060546875</AltitudeMeters>
            <DistanceMeters>NAN</DistanceMeters>
          </Trackpoint>
          <Trackpoint>
            <Time>2022-07-05T10:36:40.000Z</Time>
            <Position>
              <LatitudeDegrees>44.43951529450714588165283203125</LatitudeDegrees>
              <LongitudeDegrees>-1.22692178003489971160888671875</LongitudeDegrees>
            </Position>
            <AltitudeMeters>56</AltitudeMeters>
            <DistanceMeters>NAN</DistanceMeters>
          </Trackpoint>
          <Trackpoint>
            <Time>2022-07-05T10:36:44.000Z</Time>
            <Position>
              <LatitudeDegrees>44.439581930637359619140625</LatitudeDegrees>
              <LongitudeDegrees>-1.2269850634038448333740234375</LongitudeDegrees>
            </Position>
            <AltitudeMeters>56.40000152587890625</AltitudeMeters>
            <DistanceMeters>NAN</DistanceMeters>
          </Trackpoint>
          <Trackpoint>
            <Time>2022-07-05T10:36:52.000Z</Time>
            <Position>
              <LatitudeDegrees>44.4397195614874362945556640625</LatitudeDegrees>
              <LongitudeDegrees>-1.2271295674145221710205078125</LongitudeDegrees>
            </Position>
            <AltitudeMeters>57</AltitudeMeters>
            <DistanceMeters>NAN</DistanceMeters>
          </Trackpoint>
          <Trackpoint>
            <Time>2022-07-05T10:36:53.000Z</Time>
            <Position>
              <LatitudeDegrees>44.43973791785538196563720703125</LatitudeDegrees>
              <LongitudeDegrees>-1.2271414697170257568359375</LongitudeDegrees>
            </Position>
            <AltitudeMeters>57.200000762939453125</AltitudeMeters>
            <DistanceMeters>NAN</DistanceMeters>
          </Trackpoint>
          <Trackpoint>
            <Time>2022-07-05T10:36:57.000Z</Time>
            <Position>
              <LatitudeDegrees>44.4398097507655620574951171875</LatitudeDegrees>
              <LongitudeDegrees>-1.2271651066839694976806640625</LongitudeDegrees>
            </Position>
            <AltitudeMeters>57.799999237060546875</AltitudeMeters>
            <DistanceMeters>NAN</DistanceMeters>
          </Trackpoint>
          <Trackpoint>
            <Time>2022-07-05T10:37:01.000Z</Time>
            <Position>
              <LatitudeDegrees>44.43985886871814727783203125</LatitudeDegrees>
              <LongitudeDegrees>-1.2271548807621002197265625</LongitudeDegrees>
            </Position>
            <AltitudeMeters>58.40000152587890625</AltitudeMeters>
            <DistanceMeters>NAN</DistanceMeters>
          </Trackpoint>
          <Trackpoint>
            <Time>2022-07-05T10:37:04.000Z</Time>
            <Position>
              <LatitudeDegrees>44.4399049691855907440185546875</LatitudeDegrees>
              <LongitudeDegrees>-1.2271248735487461090087890625</LongitudeDegrees>
            </Position>
            <AltitudeMeters>58.59999847412109375</AltitudeMeters>
            <DistanceMeters>NAN</DistanceMeters>
          </Trackpoint>
          <Trackpoint>
            <Time>2022-07-05T10:37:07.000Z</Time>
            <Position>
              <LatitudeDegrees>44.43994067609310150146484375</LatitudeDegrees>
              <LongitudeDegrees>-1.2270879931747913360595703125</LongitudeDegrees>
            </Position>
            <AltitudeMeters>59.40000152587890625</AltitudeMeters>
            <DistanceMeters>NAN</DistanceMeters>
          </Trackpoint>
          <Trackpoint>
            <Time>2022-07-05T10:37:08.000Z</Time>
            <Position>
              <LatitudeDegrees>44.43995366804301738739013671875</LatitudeDegrees>
              <LongitudeDegrees>-1.22707282193005084991455078125</LongitudeDegrees>
            </Position>
            <AltitudeMeters>59.40000152587890625</AltitudeMeters>
            <DistanceMeters>NAN</DistanceMeters>
          </Trackpoint>
          <Trackpoint>
            <Time>2022-07-05T10:37:09.000Z</Time>
            <Position>
              <LatitudeDegrees>44.43996758200228214263916015625</LatitudeDegrees>
              <LongitudeDegrees>-1.22706108726561069488525390625</LongitudeDegrees>
            </Position>
            <AltitudeMeters>59.59999847412109375</AltitudeMeters>
            <DistanceMeters>NAN</DistanceMeters>
          </Trackpoint>
          <Trackpoint>
            <Time>2022-07-05T10:37:15.000Z</Time>
            <Position>
              <LatitudeDegrees>44.44002592004835605621337890625</LatitudeDegrees>
              <LongitudeDegrees>-1.227019093930721282958984375</LongitudeDegrees>
            </Position>
            <AltitudeMeters>60.40000152587890625</AltitudeMeters>
            <DistanceMeters>NAN</DistanceMeters>
          </Trackpoint>
          <Trackpoint>
            <Time>2022-07-05T10:37:17.000Z</Time>
            <Position>
              <LatitudeDegrees>44.4400526583194732666015625</LatitudeDegrees>
              <LongitudeDegrees>-1.22696779668331146240234375</LongitudeDegrees>
            </Position>
            <AltitudeMeters>60.799999237060546875</AltitudeMeters>
            <DistanceMeters>NAN</DistanceMeters>
          </Trackpoint>
          <Trackpoint>
            <Time>2022-07-05T10:37:21.000Z</Time>
            <Position>
              <LatitudeDegrees>44.44009096361696720123291015625</LatitudeDegrees>
              <LongitudeDegrees>-1.22694843448698520660400390625</LongitudeDegrees>
            </Position>
            <AltitudeMeters>61.59999847412109375</AltitudeMeters>
            <DistanceMeters>NAN</DistanceMeters>
          </Trackpoint>
          <Trackpoint>
            <Time>2022-07-05T10:37:24.000Z</Time>
            <Position>
              <LatitudeDegrees>44.44011904299259185791015625</LatitudeDegrees>
              <LongitudeDegrees>-1.22694122605025768280029296875</LongitudeDegrees>
            </Position>
            <AltitudeMeters>62</AltitudeMeters>
            <DistanceMeters>NAN</DistanceMeters>
          </Trackpoint>
          <Trackpoint>
            <Time>2022-07-05T10:37:26.000Z</Time>
            <Position>
              <LatitudeDegrees>44.4401465356349945068359375</LatitudeDegrees>
              <LongitudeDegrees>-1.2269512005150318145751953125</LongitudeDegrees>
            </Position>
            <AltitudeMeters>62.59999847412109375</AltitudeMeters>
            <DistanceMeters>NAN</DistanceMeters>
          </Trackpoint>
          <Trackpoint>
            <Time>2022-07-05T10:37:33.000Z</Time>
            <Position>
              <LatitudeDegrees>44.44022960029542446136474609375</LatitudeDegrees>
              <LongitudeDegrees>-1.2270437367260456085205078125</LongitudeDegrees>
            </Position>
            <AltitudeMeters>63.200000762939453125</AltitudeMeters>
            <DistanceMeters>NAN</DistanceMeters>
          </Trackpoint>
          <Trackpoint>
            <Time>2022-07-05T10:37:39.000Z</Time>
            <Position>
              <LatitudeDegrees>44.44034962914884090423583984375</LatitudeDegrees>
              <LongitudeDegrees>-1.22725621797144412994384765625</LongitudeDegrees>
            </Position>
            <AltitudeMeters>63.200000762939453125</AltitudeMeters>
            <DistanceMeters>NAN</DistanceMeters>
          </Trackpoint>
          <Trackpoint>
            <Time>2022-07-05T10:37:42.000Z</Time>
            <Position>
              <LatitudeDegrees>44.4404202885925769805908203125</LatitudeDegrees>
              <LongitudeDegrees>-1.22741061262786388397216796875</LongitudeDegrees>
            </Position>
            <AltitudeMeters>63.200000762939453125</AltitudeMeters>
            <DistanceMeters>NAN</DistanceMeters>
          </Trackpoint>
          <Trackpoint>
            <Time>2022-07-05T10:37:43.000Z</Time>
            <Position>
              <LatitudeDegrees>44.44044350646436214447021484375</LatitudeDegrees>
              <LongitudeDegrees>-1.22748454101383686065673828125</LongitudeDegrees>
            </Position>
            <AltitudeMeters>63.200000762939453125</AltitudeMeters>
            <DistanceMeters>NAN</DistanceMeters>
          </Trackpoint>
          <Trackpoint>
            <Time>2022-07-05T10:37:47.000Z</Time>
            <Position>
              <LatitudeDegrees>44.440563954412937164306640625</LatitudeDegrees>
              <LongitudeDegrees>-1.22782400809228420257568359375</LongitudeDegrees>
            </Position>
            <AltitudeMeters>62</AltitudeMeters>
            <DistanceMeters>NAN</DistanceMeters>
          </Trackpoint>
          <Trackpoint>
            <Time>2022-07-05T10:37:48.000Z</Time>
            <Position>
              <LatitudeDegrees>44.4406023435294628143310546875</LatitudeDegrees>
              <LongitudeDegrees>-1.22790263034403324127197265625</LongitudeDegrees>
            </Position>
            <AltitudeMeters>61.59999847412109375</AltitudeMeters>
            <DistanceMeters>NAN</DistanceMeters>
          </Trackpoint>
          <Trackpoint>
            <Time>2022-07-05T10:37:49.000Z</Time>
            <Position>
              <LatitudeDegrees>44.44064743816852569580078125</LatitudeDegrees>
              <LongitudeDegrees>-1.22796365059912204742431640625</LongitudeDegrees>
            </Position>
            <AltitudeMeters>61.200000762939453125</AltitudeMeters>
            <DistanceMeters>NAN</DistanceMeters>
          </Trackpoint>
          <Trackpoint>
            <Time>2022-07-05T10:37:50.000Z</Time>
            <Position>
              <LatitudeDegrees>44.4407009147107601165771484375</LatitudeDegrees>
              <LongitudeDegrees>-1.228021569550037384033203125</LongitudeDegrees>
            </Position>
            <AltitudeMeters>60.799999237060546875</AltitudeMeters>
            <DistanceMeters>NAN</DistanceMeters>
          </Trackpoint>
          <Trackpoint>
            <Time>2022-07-05T10:37:52.000Z</Time>
            <Position>
              <LatitudeDegrees>44.44080845452845096588134765625</LatitudeDegrees>
              <LongitudeDegrees>-1.22809507884085178375244140625</LongitudeDegrees>
            </Position>
            <AltitudeMeters>60</AltitudeMeters>
            <DistanceMeters>NAN</DistanceMeters>
          </Trackpoint>
          <Trackpoint>
            <Time>2022-07-05T10:37:54.000Z</Time>
            <Position>
              <LatitudeDegrees>44.44093887694180011749267578125</LatitudeDegrees>
              <LongitudeDegrees>-1.22811754234135150909423828125</LongitudeDegrees>
            </Position>
            <AltitudeMeters>59.200000762939453125</AltitudeMeters>
            <DistanceMeters>NAN</DistanceMeters>
          </Trackpoint>
          <Trackpoint>
            <Time>2022-07-05T10:37:56.000Z</Time>
            <Position>
              <LatitudeDegrees>44.44107525050640106201171875</LatitudeDegrees>
              <LongitudeDegrees>-1.22812240384519100189208984375</LongitudeDegrees>
            </Position>
            <AltitudeMeters>58.799999237060546875</AltitudeMeters>
            <DistanceMeters>NAN</DistanceMeters>
          </Trackpoint>
          <Trackpoint>
            <Time>2022-07-05T10:37:58.000Z</Time>
            <Position>
              <LatitudeDegrees>44.44121740758419036865234375</LatitudeDegrees>
              <LongitudeDegrees>-1.2280824221670627593994140625</LongitudeDegrees>
            </Position>
            <AltitudeMeters>58.59999847412109375</AltitudeMeters>
            <DistanceMeters>NAN</DistanceMeters>
          </Trackpoint>
          <Trackpoint>
            <Time>2022-07-05T10:37:59.000Z</Time>
            <Position>
              <LatitudeDegrees>44.44128580391407012939453125</LatitudeDegrees>
              <LongitudeDegrees>-1.2280522473156452178955078125</LongitudeDegrees>
            </Position>
            <AltitudeMeters>58.40000152587890625</AltitudeMeters>
            <DistanceMeters>NAN</DistanceMeters>
          </Trackpoint>
          <Trackpoint>
            <Time>2022-07-05T10:38:02.000Z</Time>
            <Position>
              <LatitudeDegrees>44.44149090908467769622802734375</LatitudeDegrees>
              <LongitudeDegrees>-1.2279620580375194549560546875</LongitudeDegrees>
            </Position>
            <AltitudeMeters>57.59999847412109375</AltitudeMeters>
            <DistanceMeters>NAN</DistanceMeters>
          </Trackpoint>
          <Trackpoint>
            <Time>2022-07-05T10:38:05.000Z</Time>
            <Position>
              <LatitudeDegrees>44.4417181424796581268310546875</LatitudeDegrees>
              <LongitudeDegrees>-1.22789718210697174072265625</LongitudeDegrees>
            </Position>
            <AltitudeMeters>56.799999237060546875</AltitudeMeters>
            <DistanceMeters>NAN</DistanceMeters>
          </Trackpoint>
          <Trackpoint>
            <Time>2022-07-05T10:38:06.000Z</Time>
            <Position>
              <LatitudeDegrees>44.4417935796082019805908203125</LatitudeDegrees>
              <LongitudeDegrees>-1.2278715334832668304443359375</LongitudeDegrees>
            </Position>
            <AltitudeMeters>56.40000152587890625</AltitudeMeters>
            <DistanceMeters>NAN</DistanceMeters>
          </Trackpoint>
          <Trackpoint>
            <Time>2022-07-05T10:38:10.000Z</Time>
            <Position>
              <LatitudeDegrees>44.4420561008155345916748046875</LatitudeDegrees>
              <LongitudeDegrees>-1.227752678096294403076171875</LongitudeDegrees>
            </Position>
            <AltitudeMeters>56</AltitudeMeters>
            <DistanceMeters>NAN</DistanceMeters>
          </Trackpoint>
          <Trackpoint>
            <Time>2022-07-05T10:38:14.000Z</Time>
            <Position>
              <LatitudeDegrees>44.4422562606632709503173828125</LatitudeDegrees>
              <LongitudeDegrees>-1.22763340361416339874267578125</LongitudeDegrees>
            </Position>
            <AltitudeMeters>56</AltitudeMeters>
            <DistanceMeters>NAN</DistanceMeters>
          </Trackpoint>
          <Trackpoint>
            <Time>2022-07-05T10:38:15.000Z</Time>
            <Position>
              <LatitudeDegrees>44.44230973720550537109375</LatitudeDegrees>
              <LongitudeDegrees>-1.22759434394538402557373046875</LongitudeDegrees>
            </Position>
            <AltitudeMeters>55.799999237060546875</AltitudeMeters>
            <DistanceMeters>NAN</DistanceMeters>
          </Trackpoint>
          <Trackpoint>
            <Time>2022-07-05T10:38:18.000Z</Time>
            <Position>
              <LatitudeDegrees>44.442489445209503173828125</LatitudeDegrees>
              <LongitudeDegrees>-1.22749744914472103118896484375</LongitudeDegrees>
            </Position>
            <AltitudeMeters>55.40000152587890625</AltitudeMeters>
            <DistanceMeters>NAN</DistanceMeters>
          </Trackpoint>
          <Trackpoint>
            <Time>2022-07-05T10:38:19.000Z</Time>
            <Position>
              <LatitudeDegrees>44.44253914989531040191650390625</LatitudeDegrees>
              <LongitudeDegrees>-1.227494515478610992431640625</LongitudeDegrees>
            </Position>
            <AltitudeMeters>55.200000762939453125</AltitudeMeters>
            <DistanceMeters>NAN</DistanceMeters>
          </Trackpoint>
          <Trackpoint>
            <Time>2022-07-05T10:38:20.000Z</Time>
            <Position>
              <LatitudeDegrees>44.4425838254392147064208984375</LatitudeDegrees>
              <LongitudeDegrees>-1.22751203365623950958251953125</LongitudeDegrees>
            </Position>
            <AltitudeMeters>55.200000762939453125</AltitudeMeters>
            <DistanceMeters>NAN</DistanceMeters>
          </Trackpoint>
          <Trackpoint>
            <Time>2022-07-05T10:38:22.000Z</Time>
            <Position>
              <LatitudeDegrees>44.442655406892299652099609375</LatitudeDegrees>
              <LongitudeDegrees>-1.22758646495640277862548828125</LongitudeDegrees>
            </Position>
            <AltitudeMeters>55</AltitudeMeters>
            <DistanceMeters>NAN</DistanceMeters>
          </Trackpoint>
          <Trackpoint>
            <Time>2022-07-05T10:38:23.000Z</Time>
            <Position>
              <LatitudeDegrees>44.442694969475269317626953125</LatitudeDegrees>
              <LongitudeDegrees>-1.22762619517743587493896484375</LongitudeDegrees>
            </Position>
            <AltitudeMeters>55</AltitudeMeters>
            <DistanceMeters>NAN</DistanceMeters>
          </Trackpoint>
          <Trackpoint>
            <Time>2022-07-05T10:38:28.000Z</Time>
            <Position>
              <LatitudeDegrees>44.4428689777851104736328125</LatitudeDegrees>
              <LongitudeDegrees>-1.2277873791754245758056640625</LongitudeDegrees>
            </Position>
            <AltitudeMeters>55</AltitudeMeters>
            <DistanceMeters>NAN</DistanceMeters>
          </Trackpoint>
          <Trackpoint>
            <Time>2022-07-05T10:38:32.000Z</Time>
            <Position>
              <LatitudeDegrees>44.44295522756874561309814453125</LatitudeDegrees>
              <LongitudeDegrees>-1.22782719321548938751220703125</LongitudeDegrees>
            </Position>
            <AltitudeMeters>55.799999237060546875</AltitudeMeters>
            <DistanceMeters>NAN</DistanceMeters>
          </Trackpoint>
          <Trackpoint>
            <Time>2022-07-05T10:38:37.000Z</Time>
            <Position>
              <LatitudeDegrees>44.44308548234403133392333984375</LatitudeDegrees>
              <LongitudeDegrees>-1.22790749184787273406982421875</LongitudeDegrees>
            </Position>
            <AltitudeMeters>56.40000152587890625</AltitudeMeters>
            <DistanceMeters>NAN</DistanceMeters>
          </Trackpoint>
          <Trackpoint>
            <Time>2022-07-05T10:38:44.000Z</Time>
            <Position>
              <LatitudeDegrees>44.44329150952398777008056640625</LatitudeDegrees>
              <LongitudeDegrees>-1.2279325537383556365966796875</LongitudeDegrees>
            </Position>
            <AltitudeMeters>57.40000152587890625</AltitudeMeters>
            <DistanceMeters>NAN</DistanceMeters>
          </Trackpoint>
          <Trackpoint>
            <Time>2022-07-05T10:38:47.000Z</Time>
            <Position>
              <LatitudeDegrees>44.4433697126805782318115234375</LatitudeDegrees>
              <LongitudeDegrees>-1.2279050610959529876708984375</LongitudeDegrees>
            </Position>
            <AltitudeMeters>57.40000152587890625</AltitudeMeters>
            <DistanceMeters>NAN</DistanceMeters>
          </Trackpoint>
          <Trackpoint>
            <Time>2022-07-05T10:38:50.000Z</Time>
            <Position>
              <LatitudeDegrees>44.4434086047112941741943359375</LatitudeDegrees>
              <LongitudeDegrees>-1.22784948907792568206787109375</LongitudeDegrees>
            </Position>
            <AltitudeMeters>57.59999847412109375</AltitudeMeters>
            <DistanceMeters>NAN</DistanceMeters>
          </Trackpoint>
          <Trackpoint>
            <Time>2022-07-05T10:38:56.000Z</Time>
            <Position>
              <LatitudeDegrees>44.44350910373032093048095703125</LatitudeDegrees>
              <LongitudeDegrees>-1.22775100171566009521484375</LongitudeDegrees>
            </Position>
            <AltitudeMeters>58.40000152587890625</AltitudeMeters>
            <DistanceMeters>NAN</DistanceMeters>
          </Trackpoint>
          <Trackpoint>
            <Time>2022-07-05T10:38:57.000Z</Time>
            <Position>
              <LatitudeDegrees>44.44353341124951839447021484375</LatitudeDegrees>
              <LongitudeDegrees>-1.22772241942584514617919921875</LongitudeDegrees>
            </Position>
            <AltitudeMeters>58.59999847412109375</AltitudeMeters>
            <DistanceMeters>NAN</DistanceMeters>
          </Trackpoint>
          <Trackpoint>
            <Time>2022-07-05T10:39:03.000Z</Time>
            <Position>
              <LatitudeDegrees>44.443659894168376922607421875</LatitudeDegrees>
              <LongitudeDegrees>-1.227610521018505096435546875</LongitudeDegrees>
            </Position>
            <AltitudeMeters>59</AltitudeMeters>
            <DistanceMeters>NAN</DistanceMeters>
          </Trackpoint>
          <Trackpoint>
            <Time>2022-07-05T10:39:07.000Z</Time>
            <Position>
              <LatitudeDegrees>44.44375938735902309417724609375</LatitudeDegrees>
              <LongitudeDegrees>-1.22753617353737354278564453125</LongitudeDegrees>
            </Position>
            <AltitudeMeters>59.200000762939453125</AltitudeMeters>
            <DistanceMeters>NAN</DistanceMeters>
          </Trackpoint>
          <Trackpoint>
            <Time>2022-07-05T10:39:13.000Z</Time>
            <Position>
              <LatitudeDegrees>44.44395585916936397552490234375</LatitudeDegrees>
              <LongitudeDegrees>-1.22735663317143917083740234375</LongitudeDegrees>
            </Position>
            <AltitudeMeters>59</AltitudeMeters>
            <DistanceMeters>NAN</DistanceMeters>
          </Trackpoint>
          <Trackpoint>
            <Time>2022-07-05T10:39:18.000Z</Time>
            <Position>
              <LatitudeDegrees>44.4441445358097553253173828125</LatitudeDegrees>
              <LongitudeDegrees>-1.22717642225325107574462890625</LongitudeDegrees>
            </Position>
            <AltitudeMeters>58.40000152587890625</AltitudeMeters>
            <DistanceMeters>NAN</DistanceMeters>
          </Trackpoint>
          <Trackpoint>
            <Time>2022-07-05T10:39:19.000Z</Time>
            <Position>
              <LatitudeDegrees>44.4441820867359638214111328125</LatitudeDegrees>
              <LongitudeDegrees>-1.2271265499293804168701171875</LongitudeDegrees>
            </Position>
            <AltitudeMeters>58.40000152587890625</AltitudeMeters>
            <DistanceMeters>NAN</DistanceMeters>
          </Trackpoint>
          <Trackpoint>
            <Time>2022-07-05T10:39:21.000Z</Time>
            <Position>
              <LatitudeDegrees>44.44422475062310695648193359375</LatitudeDegrees>
              <LongitudeDegrees>-1.2270288169384002685546875</LongitudeDegrees>
            </Position>
            <AltitudeMeters>58.200000762939453125</AltitudeMeters>
            <DistanceMeters>NAN</DistanceMeters>
          </Trackpoint>
          <Trackpoint>
            <Time>2022-07-05T10:39:24.000Z</Time>
            <Position>
              <LatitudeDegrees>44.44430370815098285675048828125</LatitudeDegrees>
              <LongitudeDegrees>-1.2268834747374057769775390625</LongitudeDegrees>
            </Position>
            <AltitudeMeters>58.200000762939453125</AltitudeMeters>
            <DistanceMeters>NAN</DistanceMeters>
          </Trackpoint>
          <Trackpoint>
            <Time>2022-07-05T10:39:26.000Z</Time>
            <Position>
              <LatitudeDegrees>44.44438685663044452667236328125</LatitudeDegrees>
              <LongitudeDegrees>-1.2267936207354068756103515625</LongitudeDegrees>
            </Position>
            <AltitudeMeters>58</AltitudeMeters>
            <DistanceMeters>NAN</DistanceMeters>
          </Trackpoint>
          <Trackpoint>
            <Time>2022-07-05T10:39:29.000Z</Time>
            <Position>
              <LatitudeDegrees>44.4445398263633251190185546875</LatitudeDegrees>
              <LongitudeDegrees>-1.22670318000018596649169921875</LongitudeDegrees>
            </Position>
            <AltitudeMeters>57.799999237060546875</AltitudeMeters>
            <DistanceMeters>NAN</DistanceMeters>
          </Trackpoint>
          <Trackpoint>
            <Time>2022-07-05T10:39:31.000Z</Time>
            <Position>
              <LatitudeDegrees>44.44465541280806064605712890625</LatitudeDegrees>
              <LongitudeDegrees>-1.22663092799484729766845703125</LongitudeDegrees>
            </Position>
            <AltitudeMeters>57.40000152587890625</AltitudeMeters>
            <DistanceMeters>NAN</DistanceMeters>
          </Trackpoint>
          <Trackpoint>
            <Time>2022-07-05T10:39:33.000Z</Time>
            <Position>
              <LatitudeDegrees>44.44479279220104217529296875</LatitudeDegrees>
              <LongitudeDegrees>-1.22650788165628910064697265625</LongitudeDegrees>
            </Position>
            <AltitudeMeters>56.59999847412109375</AltitudeMeters>
            <DistanceMeters>NAN</DistanceMeters>
          </Trackpoint>
          <Trackpoint>
            <Time>2022-07-05T10:39:34.000Z</Time>
            <Position>
              <LatitudeDegrees>44.44488189183175563812255859375</LatitudeDegrees>
              <LongitudeDegrees>-1.2264335341751575469970703125</LongitudeDegrees>
            </Position>
            <AltitudeMeters>56.200000762939453125</AltitudeMeters>
            <DistanceMeters>NAN</DistanceMeters>
          </Trackpoint>
          <Trackpoint>
            <Time>2022-07-05T10:39:36.000Z</Time>
            <Position>
              <LatitudeDegrees>44.445010721683502197265625</LatitudeDegrees>
              <LongitudeDegrees>-1.2263265810906887054443359375</LongitudeDegrees>
            </Position>
            <AltitudeMeters>55</AltitudeMeters>
            <DistanceMeters>NAN</DistanceMeters>
          </Trackpoint>
          <Trackpoint>
            <Time>2022-07-05T10:39:38.000Z</Time>
            <Position>
              <LatitudeDegrees>44.4451399706304073333740234375</LatitudeDegrees>
              <LongitudeDegrees>-1.22622926719486713409423828125</LongitudeDegrees>
            </Position>
            <AltitudeMeters>53.799999237060546875</AltitudeMeters>
            <DistanceMeters>NAN</DistanceMeters>
          </Trackpoint>
          <Trackpoint>
            <Time>2022-07-05T10:39:39.000Z</Time>
            <Position>
              <LatitudeDegrees>44.44520057179033756256103515625</LatitudeDegrees>
              <LongitudeDegrees>-1.22618065215647220611572265625</LongitudeDegrees>
            </Position>
            <AltitudeMeters>53.200000762939453125</AltitudeMeters>
            <DistanceMeters>NAN</DistanceMeters>
          </Trackpoint>
          <Trackpoint>
            <Time>2022-07-05T10:39:40.000Z</Time>
            <Position>
              <LatitudeDegrees>44.44526326842606067657470703125</LatitudeDegrees>
              <LongitudeDegrees>-1.22611485421657562255859375</LongitudeDegrees>
            </Position>
            <AltitudeMeters>52.59999847412109375</AltitudeMeters>
            <DistanceMeters>NAN</DistanceMeters>
          </Trackpoint>
          <Trackpoint>
            <Time>2022-07-05T10:39:41.000Z</Time>
            <Position>
              <LatitudeDegrees>44.445300400257110595703125</LatitudeDegrees>
              <LongitudeDegrees>-1.2260456196963787078857421875</LongitudeDegrees>
            </Position>
            <AltitudeMeters>51.59999847412109375</AltitudeMeters>
            <DistanceMeters>NAN</DistanceMeters>
          </Trackpoint>
          <Trackpoint>
            <Time>2022-07-05T10:39:42.000Z</Time>
            <Position>
              <LatitudeDegrees>44.44531858898699283599853515625</LatitudeDegrees>
              <LongitudeDegrees>-1.2259799055755138397216796875</LongitudeDegrees>
            </Position>
            <AltitudeMeters>51.200000762939453125</AltitudeMeters>
            <DistanceMeters>NAN</DistanceMeters>
          </Trackpoint>
          <Trackpoint>
            <Time>2022-07-05T10:39:43.000Z</Time>
            <Position>
              <LatitudeDegrees>44.445333592593669891357421875</LatitudeDegrees>
              <LongitudeDegrees>-1.22588292695581912994384765625</LongitudeDegrees>
            </Position>
            <AltitudeMeters>50.40000152587890625</AltitudeMeters>
            <DistanceMeters>NAN</DistanceMeters>
          </Trackpoint>
          <Trackpoint>
            <Time>2022-07-05T10:39:44.000Z</Time>
            <Position>
              <LatitudeDegrees>44.4453431479632854461669921875</LatitudeDegrees>
              <LongitudeDegrees>-1.225769855082035064697265625</LongitudeDegrees>
            </Position>
            <AltitudeMeters>49.799999237060546875</AltitudeMeters>
            <DistanceMeters>NAN</DistanceMeters>
          </Trackpoint>
          <Trackpoint>
            <Time>2022-07-05T10:39:45.000Z</Time>
            <Position>
              <LatitudeDegrees>44.4453475065529346466064453125</LatitudeDegrees>
              <LongitudeDegrees>-1.225646473467350006103515625</LongitudeDegrees>
            </Position>
            <AltitudeMeters>49</AltitudeMeters>
            <DistanceMeters>NAN</DistanceMeters>
          </Trackpoint>
          <Trackpoint>
            <Time>2022-07-05T10:39:46.000Z</Time>
            <Position>
              <LatitudeDegrees>44.4453454948961734771728515625</LatitudeDegrees>
              <LongitudeDegrees>-1.22549769468605518341064453125</LongitudeDegrees>
            </Position>
            <AltitudeMeters>48.59999847412109375</AltitudeMeters>
            <DistanceMeters>NAN</DistanceMeters>
          </Trackpoint>
          <Trackpoint>
            <Time>2022-07-05T10:39:48.000Z</Time>
            <Position>
              <LatitudeDegrees>44.44534256123006343841552734375</LatitudeDegrees>
              <LongitudeDegrees>-1.225400380790233612060546875</LongitudeDegrees>
            </Position>
            <AltitudeMeters>47.59999847412109375</AltitudeMeters>
            <DistanceMeters>NAN</DistanceMeters>
          </Trackpoint>
          <Trackpoint>
            <Time>2022-07-05T10:39:49.000Z</Time>
            <Position>
              <LatitudeDegrees>44.445387236773967742919921875</LatitudeDegrees>
              <LongitudeDegrees>-1.22520022094249725341796875</LongitudeDegrees>
            </Position>
            <AltitudeMeters>47</AltitudeMeters>
            <DistanceMeters>NAN</DistanceMeters>
          </Trackpoint>
          <Trackpoint>
            <Time>2022-07-05T10:39:52.000Z</Time>
            <Position>
              <LatitudeDegrees>44.44551791064441204071044921875</LatitudeDegrees>
              <LongitudeDegrees>-1.2249603308737277984619140625</LongitudeDegrees>
            </Position>
            <AltitudeMeters>46.59999847412109375</AltitudeMeters>
            <DistanceMeters>NAN</DistanceMeters>
          </Trackpoint>
          <Trackpoint>
            <Time>2022-07-05T10:39:53.000Z</Time>
            <Position>
              <LatitudeDegrees>44.44554003886878490447998046875</LatitudeDegrees>
              <LongitudeDegrees>-1.22487273998558521270751953125</LongitudeDegrees>
            </Position>
            <AltitudeMeters>46.59999847412109375</AltitudeMeters>
            <DistanceMeters>NAN</DistanceMeters>
          </Trackpoint>
          <Trackpoint>
            <Time>2022-07-05T10:39:54.000Z</Time>
            <Position>
              <LatitudeDegrees>44.4455503486096858978271484375</LatitudeDegrees>
              <LongitudeDegrees>-1.2247838079929351806640625</LongitudeDegrees>
            </Position>
            <AltitudeMeters>46.799999237060546875</AltitudeMeters>
            <DistanceMeters>NAN</DistanceMeters>
          </Trackpoint>
          <Trackpoint>
            <Time>2022-07-05T10:39:57.000Z</Time>
            <Position>
              <LatitudeDegrees>44.44556082598865032196044921875</LatitudeDegrees>
              <LongitudeDegrees>-1.22458708472549915313720703125</LongitudeDegrees>
            </Position>
            <AltitudeMeters>47</AltitudeMeters>
            <DistanceMeters>NAN</DistanceMeters>
          </Trackpoint>
          <Trackpoint>
            <Time>2022-07-05T10:40:02.000Z</Time>
            <Position>
              <LatitudeDegrees>44.44555579684674739837646484375</LatitudeDegrees>
              <LongitudeDegrees>-1.22444123961031436920166015625</LongitudeDegrees>
            </Position>
            <AltitudeMeters>47.799999237060546875</AltitudeMeters>
            <DistanceMeters>NAN</DistanceMeters>
          </Trackpoint>
          <Trackpoint>
            <Time>2022-07-05T10:40:07.000Z</Time>
            <Position>
              <LatitudeDegrees>44.445528052747249603271484375</LatitudeDegrees>
              <LongitudeDegrees>-1.22434794902801513671875</LongitudeDegrees>
            </Position>
            <AltitudeMeters>48.59999847412109375</AltitudeMeters>
            <DistanceMeters>NAN</DistanceMeters>
          </Trackpoint>
          <Trackpoint>
            <Time>2022-07-05T10:40:09.000Z</Time>
            <Position>
              <LatitudeDegrees>44.4455205090343952178955078125</LatitudeDegrees>
              <LongitudeDegrees>-1.224308051168918609619140625</LongitudeDegrees>
            </Position>
            <AltitudeMeters>48.799999237060546875</AltitudeMeters>
            <DistanceMeters>NAN</DistanceMeters>
          </Trackpoint>
          <Trackpoint>
            <Time>2022-07-05T10:40:14.000Z</Time>
            <Position>
              <LatitudeDegrees>44.44551422260701656341552734375</LatitudeDegrees>
              <LongitudeDegrees>-1.224211156368255615234375</LongitudeDegrees>
            </Position>
            <AltitudeMeters>49.59999847412109375</AltitudeMeters>
            <DistanceMeters>NAN</DistanceMeters>
          </Trackpoint>
          <Trackpoint>
            <Time>2022-07-05T10:40:15.000Z</Time>
            <Position>
              <LatitudeDegrees>44.445513300597667694091796875</LatitudeDegrees>
              <LongitudeDegrees>-1.22418374754488468170166015625</LongitudeDegrees>
            </Position>
            <AltitudeMeters>49.799999237060546875</AltitudeMeters>
            <DistanceMeters>NAN</DistanceMeters>
          </Trackpoint>
          <Trackpoint>
            <Time>2022-07-05T10:40:16.000Z</Time>
            <Position>
              <LatitudeDegrees>44.4455074332654476165771484375</LatitudeDegrees>
              <LongitudeDegrees>-1.22416312806308269500732421875</LongitudeDegrees>
            </Position>
            <AltitudeMeters>50</AltitudeMeters>
            <DistanceMeters>NAN</DistanceMeters>
          </Trackpoint>
          <Trackpoint>
            <Time>2022-07-05T10:40:18.000Z</Time>
            <Position>
              <LatitudeDegrees>44.44550332613289356231689453125</LatitudeDegrees>
              <LongitudeDegrees>-1.2241352163255214691162109375</LongitudeDegrees>
            </Position>
            <AltitudeMeters>50.40000152587890625</AltitudeMeters>
            <DistanceMeters>NAN</DistanceMeters>
          </Trackpoint>
          <Trackpoint>
            <Time>2022-07-05T10:40:20.000Z</Time>
            <Position>
              <LatitudeDegrees>44.44551958702504634857177734375</LatitudeDegrees>
              <LongitudeDegrees>-1.2240892834961414337158203125</LongitudeDegrees>
            </Position>
            <AltitudeMeters>50.799999237060546875</AltitudeMeters>
            <DistanceMeters>NAN</DistanceMeters>
          </Trackpoint>
          <Trackpoint>
            <Time>2022-07-05T10:40:22.000Z</Time>
            <Position>
              <LatitudeDegrees>44.44553685374557971954345703125</LatitudeDegrees>
              <LongitudeDegrees>-1.22405315749347209930419921875</LongitudeDegrees>
            </Position>
            <AltitudeMeters>51</AltitudeMeters>
            <DistanceMeters>NAN</DistanceMeters>
          </Trackpoint>
          <Trackpoint>
            <Time>2022-07-05T10:40:24.000Z</Time>
            <Position>
              <LatitudeDegrees>44.44554573856294155120849609375</LatitudeDegrees>
              <LongitudeDegrees>-1.2240274250507354736328125</LongitudeDegrees>
            </Position>
            <AltitudeMeters>51.40000152587890625</AltitudeMeters>
            <DistanceMeters>NAN</DistanceMeters>
          </Trackpoint>
          <Trackpoint>
            <Time>2022-07-05T10:40:26.000Z</Time>
            <Position>
              <LatitudeDegrees>44.44555319845676422119140625</LatitudeDegrees>
              <LongitudeDegrees>-1.2239685840904712677001953125</LongitudeDegrees>
            </Position>
            <AltitudeMeters>51.59999847412109375</AltitudeMeters>
            <DistanceMeters>NAN</DistanceMeters>
          </Trackpoint>
          <Trackpoint>
            <Time>2022-07-05T10:40:28.000Z</Time>
            <Position>
              <LatitudeDegrees>44.4455583952367305755615234375</LatitudeDegrees>
              <LongitudeDegrees>-1.2239404208958148956298828125</LongitudeDegrees>
            </Position>
            <AltitudeMeters>51.799999237060546875</AltitudeMeters>
            <DistanceMeters>NAN</DistanceMeters>
          </Trackpoint>
          <Trackpoint>
            <Time>2022-07-05T10:40:34.000Z</Time>
            <Position>
              <LatitudeDegrees>44.4455806910991668701171875</LatitudeDegrees>
              <LongitudeDegrees>-1.2237825058400630950927734375</LongitudeDegrees>
            </Position>
            <AltitudeMeters>52.799999237060546875</AltitudeMeters>
            <DistanceMeters>NAN</DistanceMeters>
          </Trackpoint>
          <Trackpoint>
            <Time>2022-07-05T10:40:36.000Z</Time>
            <Position>
              <LatitudeDegrees>44.445579349994659423828125</LatitudeDegrees>
              <LongitudeDegrees>-1.22375325299799442291259765625</LongitudeDegrees>
            </Position>
            <AltitudeMeters>53.200000762939453125</AltitudeMeters>
            <DistanceMeters>NAN</DistanceMeters>
          </Trackpoint>
          <Trackpoint>
            <Time>2022-07-05T10:40:42.000Z</Time>
            <Position>
              <LatitudeDegrees>44.44565780460834503173828125</LatitudeDegrees>
              <LongitudeDegrees>-1.2235970981419086456298828125</LongitudeDegrees>
            </Position>
            <AltitudeMeters>54</AltitudeMeters>
            <DistanceMeters>NAN</DistanceMeters>
          </Trackpoint>
          <Trackpoint>
            <Time>2022-07-05T10:40:44.000Z</Time>
            <Position>
              <LatitudeDegrees>44.44567481987178325653076171875</LatitudeDegrees>
              <LongitudeDegrees>-1.2235826812684535980224609375</LongitudeDegrees>
            </Position>
            <AltitudeMeters>54.200000762939453125</AltitudeMeters>
            <DistanceMeters>NAN</DistanceMeters>
          </Trackpoint>
          <Trackpoint>
            <Time>2022-07-05T10:40:45.000Z</Time>
            <Position>
              <LatitudeDegrees>44.4456653483211994171142578125</LatitudeDegrees>
              <LongitudeDegrees>-1.22357287444174289703369140625</LongitudeDegrees>
            </Position>
            <AltitudeMeters>54.200000762939453125</AltitudeMeters>
            <DistanceMeters>NAN</DistanceMeters>
          </Trackpoint>
          <Trackpoint>
            <Time>2022-07-05T10:40:46.000Z</Time>
            <Position>
              <LatitudeDegrees>44.4456656835973262786865234375</LatitudeDegrees>
              <LongitudeDegrees>-1.22355795465409755706787109375</LongitudeDegrees>
            </Position>
            <AltitudeMeters>54.40000152587890625</AltitudeMeters>
            <DistanceMeters>NAN</DistanceMeters>
          </Trackpoint>
          <Trackpoint>
            <Time>2022-07-05T10:40:50.000Z</Time>
            <Position>
              <LatitudeDegrees>44.44568152539432048797607421875</LatitudeDegrees>
              <LongitudeDegrees>-1.22350464574992656707763671875</LongitudeDegrees>
            </Position>
            <AltitudeMeters>54.799999237060546875</AltitudeMeters>
            <DistanceMeters>NAN</DistanceMeters>
          </Trackpoint>
          <Trackpoint>
            <Time>2022-07-05T10:40:51.000Z</Time>
            <Position>
              <LatitudeDegrees>44.44568655453622341156005859375</LatitudeDegrees>
              <LongitudeDegrees>-1.22349299490451812744140625</LongitudeDegrees>
            </Position>
            <AltitudeMeters>55</AltitudeMeters>
            <DistanceMeters>NAN</DistanceMeters>
          </Trackpoint>
          <Trackpoint>
            <Time>2022-07-05T10:40:57.000Z</Time>
            <Position>
              <LatitudeDegrees>44.44572393782436847686767578125</LatitudeDegrees>
              <LongitudeDegrees>-1.2233915738761425018310546875</LongitudeDegrees>
            </Position>
            <AltitudeMeters>55.799999237060546875</AltitudeMeters>
            <DistanceMeters>NAN</DistanceMeters>
          </Trackpoint>
          <Trackpoint>
            <Time>2022-07-05T10:40:58.000Z</Time>
            <Position>
              <LatitudeDegrees>44.44573047570884227752685546875</LatitudeDegrees>
              <LongitudeDegrees>-1.22337556444108486175537109375</LongitudeDegrees>
            </Position>
            <AltitudeMeters>56</AltitudeMeters>
            <DistanceMeters>NAN</DistanceMeters>
          </Trackpoint>
          <Trackpoint>
            <Time>2022-07-05T10:40:59.000Z</Time>
            <Position>
              <LatitudeDegrees>44.44573223590850830078125</LatitudeDegrees>
              <LongitudeDegrees>-1.22335813008248805999755859375</LongitudeDegrees>
            </Position>
            <AltitudeMeters>56.200000762939453125</AltitudeMeters>
            <DistanceMeters>NAN</DistanceMeters>
          </Trackpoint>
          <Trackpoint>
            <Time>2022-07-05T10:41:01.000Z</Time>
            <Position>
              <LatitudeDegrees>44.44573231972754001617431640625</LatitudeDegrees>
              <LongitudeDegrees>-1.22333097271621227264404296875</LongitudeDegrees>
            </Position>
            <AltitudeMeters>56.40000152587890625</AltitudeMeters>
            <DistanceMeters>NAN</DistanceMeters>
          </Trackpoint>
          <Trackpoint>
            <Time>2022-07-05T10:41:02.000Z</Time>
            <Position>
              <LatitudeDegrees>44.445740617811679840087890625</LatitudeDegrees>
              <LongitudeDegrees>-1.22331731021404266357421875</LongitudeDegrees>
            </Position>
            <AltitudeMeters>56.59999847412109375</AltitudeMeters>
            <DistanceMeters>NAN</DistanceMeters>
          </Trackpoint>
          <Trackpoint>
            <Time>2022-07-05T10:41:06.000Z</Time>
            <Position>
              <LatitudeDegrees>44.445772133767604827880859375</LatitudeDegrees>
              <LongitudeDegrees>-1.223257295787334442138671875</LongitudeDegrees>
            </Position>
            <AltitudeMeters>57.200000762939453125</AltitudeMeters>
            <DistanceMeters>NAN</DistanceMeters>
          </Trackpoint>
          <Trackpoint>
            <Time>2022-07-05T10:41:08.000Z</Time>
            <Position>
              <LatitudeDegrees>44.4457766599953174591064453125</LatitudeDegrees>
              <LongitudeDegrees>-1.2232353352010250091552734375</LongitudeDegrees>
            </Position>
            <AltitudeMeters>57.40000152587890625</AltitudeMeters>
            <DistanceMeters>NAN</DistanceMeters>
          </Trackpoint>
          <Trackpoint>
            <Time>2022-07-05T10:41:14.000Z</Time>
            <Position>
              <LatitudeDegrees>44.4458004646003246307373046875</LatitudeDegrees>
              <LongitudeDegrees>-1.2231260351836681365966796875</LongitudeDegrees>
            </Position>
            <AltitudeMeters>58.200000762939453125</AltitudeMeters>
            <DistanceMeters>NAN</DistanceMeters>
          </Trackpoint>
          <Trackpoint>
            <Time>2022-07-05T10:41:16.000Z</Time>
            <Position>
              <LatitudeDegrees>44.44581144489347934722900390625</LatitudeDegrees>
              <LongitudeDegrees>-1.22309158556163311004638671875</LongitudeDegrees>
            </Position>
            <AltitudeMeters>58.59999847412109375</AltitudeMeters>
            <DistanceMeters>NAN</DistanceMeters>
          </Trackpoint>
          <Trackpoint>
            <Time>2022-07-05T10:41:21.000Z</Time>
            <Position>
              <LatitudeDegrees>44.44582301191985607147216796875</LatitudeDegrees>
              <LongitudeDegrees>-1.22299854643642902374267578125</LongitudeDegrees>
            </Position>
            <AltitudeMeters>59.40000152587890625</AltitudeMeters>
            <DistanceMeters>NAN</DistanceMeters>
          </Trackpoint>
          <Trackpoint>
            <Time>2022-07-05T10:41:22.000Z</Time>
            <Position>
              <LatitudeDegrees>44.44583642296493053436279296875</LatitudeDegrees>
              <LongitudeDegrees>-1.22299267910420894622802734375</LongitudeDegrees>
            </Position>
            <AltitudeMeters>59.40000152587890625</AltitudeMeters>
            <DistanceMeters>NAN</DistanceMeters>
          </Trackpoint>
          <Trackpoint>
            <Time>2022-07-05T10:41:27.000Z</Time>
            <Position>
              <LatitudeDegrees>44.4458799250423908233642578125</LatitudeDegrees>
              <LongitudeDegrees>-1.222899220883846282958984375</LongitudeDegrees>
            </Position>
            <AltitudeMeters>60.200000762939453125</AltitudeMeters>
            <DistanceMeters>NAN</DistanceMeters>
          </Trackpoint>
          <Trackpoint>
            <Time>2022-07-05T10:41:28.000Z</Time>
            <Position>
              <LatitudeDegrees>44.445882104337215423583984375</LatitudeDegrees>
              <LongitudeDegrees>-1.222870051860809326171875</LongitudeDegrees>
            </Position>
            <AltitudeMeters>60.40000152587890625</AltitudeMeters>
            <DistanceMeters>NAN</DistanceMeters>
          </Trackpoint>
          <Trackpoint>
            <Time>2022-07-05T10:41:31.000Z</Time>
            <Position>
              <LatitudeDegrees>44.44589040242135524749755859375</LatitudeDegrees>
              <LongitudeDegrees>-1.2227904237806797027587890625</LongitudeDegrees>
            </Position>
            <AltitudeMeters>60.799999237060546875</AltitudeMeters>
            <DistanceMeters>NAN</DistanceMeters>
          </Trackpoint>
          <Trackpoint>
            <Time>2022-07-05T10:41:35.000Z</Time>
            <Position>
              <LatitudeDegrees>44.4459191523492336273193359375</LatitudeDegrees>
              <LongitudeDegrees>-1.2227203510701656341552734375</LongitudeDegrees>
            </Position>
            <AltitudeMeters>61.40000152587890625</AltitudeMeters>
            <DistanceMeters>NAN</DistanceMeters>
          </Trackpoint>
          <Trackpoint>
            <Time>2022-07-05T10:41:37.000Z</Time>
            <Position>
              <LatitudeDegrees>44.4459228403866291046142578125</LatitudeDegrees>
              <LongitudeDegrees>-1.22269931249320507049560546875</LongitudeDegrees>
            </Position>
            <AltitudeMeters>61.59999847412109375</AltitudeMeters>
            <DistanceMeters>NAN</DistanceMeters>
          </Trackpoint>
          <Trackpoint>
            <Time>2022-07-05T10:41:43.000Z</Time>
            <Position>
              <LatitudeDegrees>44.4459292106330394744873046875</LatitudeDegrees>
              <LongitudeDegrees>-1.22253821231424808502197265625</LongitudeDegrees>
            </Position>
            <AltitudeMeters>62.59999847412109375</AltitudeMeters>
            <DistanceMeters>NAN</DistanceMeters>
          </Trackpoint>
          <Trackpoint>
            <Time>2022-07-05T10:41:45.000Z</Time>
            <Position>
              <LatitudeDegrees>44.44593113847076892852783203125</LatitudeDegrees>
              <LongitudeDegrees>-1.22249521315097808837890625</LongitudeDegrees>
            </Position>
            <AltitudeMeters>62.799999237060546875</AltitudeMeters>
            <DistanceMeters>NAN</DistanceMeters>
          </Trackpoint>
          <Trackpoint>
            <Time>2022-07-05T10:41:50.000Z</Time>
            <Position>
              <LatitudeDegrees>44.4459332339465618133544921875</LatitudeDegrees>
              <LongitudeDegrees>-1.22240242548286914825439453125</LongitudeDegrees>
            </Position>
            <AltitudeMeters>63.59999847412109375</AltitudeMeters>
            <DistanceMeters>NAN</DistanceMeters>
          </Trackpoint>
          <Trackpoint>
            <Time>2022-07-05T10:41:52.000Z</Time>
            <Position>
              <LatitudeDegrees>44.445938766002655029296875</LatitudeDegrees>
              <LongitudeDegrees>-1.222353391349315643310546875</LongitudeDegrees>
            </Position>
            <AltitudeMeters>64</AltitudeMeters>
            <DistanceMeters>NAN</DistanceMeters>
          </Trackpoint>
          <Trackpoint>
            <Time>2022-07-05T10:41:55.000Z</Time>
            <Position>
              <LatitudeDegrees>44.44593247957527637481689453125</LatitudeDegrees>
              <LongitudeDegrees>-1.22229136526584625244140625</LongitudeDegrees>
            </Position>
            <AltitudeMeters>64.40000152587890625</AltitudeMeters>
            <DistanceMeters>NAN</DistanceMeters>
          </Trackpoint>
          <Trackpoint>
            <Time>2022-07-05T10:41:58.000Z</Time>
            <Position>
              <LatitudeDegrees>44.44591253064572811126708984375</LatitudeDegrees>
              <LongitudeDegrees>-1.2222271598875522613525390625</LongitudeDegrees>
            </Position>
            <AltitudeMeters>64.59999847412109375</AltitudeMeters>
            <DistanceMeters>NAN</DistanceMeters>
          </Trackpoint>
          <Trackpoint>
            <Time>2022-07-05T10:42:01.000Z</Time>
            <Position>
              <LatitudeDegrees>44.4458735547959804534912109375</LatitudeDegrees>
              <LongitudeDegrees>-1.222161948680877685546875</LongitudeDegrees>
            </Position>
            <AltitudeMeters>65.1999969482421875</AltitudeMeters>
            <DistanceMeters>NAN</DistanceMeters>
          </Trackpoint>
          <Trackpoint>
            <Time>2022-07-05T10:42:03.000Z</Time>
            <Position>
              <LatitudeDegrees>44.4458604790270328521728515625</LatitudeDegrees>
              <LongitudeDegrees>-1.22211702167987823486328125</LongitudeDegrees>
            </Position>
            <AltitudeMeters>65.40000152587890625</AltitudeMeters>
            <DistanceMeters>NAN</DistanceMeters>
          </Trackpoint>
          <Trackpoint>
            <Time>2022-07-05T10:42:04.000Z</Time>
            <Position>
              <LatitudeDegrees>44.44586609490215778350830078125</LatitudeDegrees>
              <LongitudeDegrees>-1.22209430672228336334228515625</LongitudeDegrees>
            </Position>
            <AltitudeMeters>65.59999847412109375</AltitudeMeters>
            <DistanceMeters>NAN</DistanceMeters>
          </Trackpoint>
          <Trackpoint>
            <Time>2022-07-05T10:42:12.000Z</Time>
            <Position>
              <LatitudeDegrees>44.44592510350048542022705078125</LatitudeDegrees>
              <LongitudeDegrees>-1.2219218909740447998046875</LongitudeDegrees>
            </Position>
            <AltitudeMeters>66.40000152587890625</AltitudeMeters>
            <DistanceMeters>NAN</DistanceMeters>
          </Trackpoint>
          <Trackpoint>
            <Time>2022-07-05T10:42:14.000Z</Time>
            <Position>
              <LatitudeDegrees>44.4459483213722705841064453125</LatitudeDegrees>
              <LongitudeDegrees>-1.2218623794615268707275390625</LongitudeDegrees>
            </Position>
            <AltitudeMeters>66.8000030517578125</AltitudeMeters>
            <DistanceMeters>NAN</DistanceMeters>
          </Trackpoint>
          <Trackpoint>
            <Time>2022-07-05T10:42:17.000Z</Time>
            <Position>
              <LatitudeDegrees>44.44590699858963489532470703125</LatitudeDegrees>
              <LongitudeDegrees>-1.2217752076685428619384765625</LongitudeDegrees>
            </Position>
            <AltitudeMeters>67</AltitudeMeters>
            <DistanceMeters>NAN</DistanceMeters>
          </Trackpoint>
          <Trackpoint>
            <Time>2022-07-05T10:42:18.000Z</Time>
            <Position>
              <LatitudeDegrees>44.445898532867431640625</LatitudeDegrees>
              <LongitudeDegrees>-1.221755929291248321533203125</LongitudeDegrees>
            </Position>
            <AltitudeMeters>67.1999969482421875</AltitudeMeters>
            <DistanceMeters>NAN</DistanceMeters>
          </Trackpoint>
          <Trackpoint>
            <Time>2022-07-05T10:42:22.000Z</Time>
            <Position>
              <LatitudeDegrees>44.4458812661468982696533203125</LatitudeDegrees>
              <LongitudeDegrees>-1.221706978976726531982421875</LongitudeDegrees>
            </Position>
            <AltitudeMeters>67.40000152587890625</AltitudeMeters>
            <DistanceMeters>NAN</DistanceMeters>
          </Trackpoint>
          <Trackpoint>
            <Time>2022-07-05T10:42:24.000Z</Time>
            <Position>
              <LatitudeDegrees>44.44589744322001934051513671875</LatitudeDegrees>
              <LongitudeDegrees>-1.221666075289249420166015625</LongitudeDegrees>
            </Position>
            <AltitudeMeters>67.59999847412109375</AltitudeMeters>
            <DistanceMeters>NAN</DistanceMeters>
          </Trackpoint>
          <Trackpoint>
            <Time>2022-07-05T10:42:26.000Z</Time>
            <Position>
              <LatitudeDegrees>44.44589274935424327850341796875</LatitudeDegrees>
              <LongitudeDegrees>-1.22162274084985256195068359375</LongitudeDegrees>
            </Position>
            <AltitudeMeters>67.8000030517578125</AltitudeMeters>
            <DistanceMeters>NAN</DistanceMeters>
          </Trackpoint>
          <Trackpoint>
            <Time>2022-07-05T10:42:29.000Z</Time>
            <Position>
              <LatitudeDegrees>44.4458544440567493438720703125</LatitudeDegrees>
              <LongitudeDegrees>-1.22157077305018901824951171875</LongitudeDegrees>
            </Position>
            <AltitudeMeters>68</AltitudeMeters>
            <DistanceMeters>NAN</DistanceMeters>
          </Trackpoint>
          <Trackpoint>
            <Time>2022-07-05T10:42:30.000Z</Time>
            <Position>
              <LatitudeDegrees>44.44585234858095645904541015625</LatitudeDegrees>
              <LongitudeDegrees>-1.22155065648257732391357421875</LongitudeDegrees>
            </Position>
            <AltitudeMeters>68.1999969482421875</AltitudeMeters>
            <DistanceMeters>NAN</DistanceMeters>
          </Trackpoint>
          <Trackpoint>
            <Time>2022-07-05T10:42:36.000Z</Time>
            <Position>
              <LatitudeDegrees>44.44584824144840240478515625</LatitudeDegrees>
              <LongitudeDegrees>-1.22138117440044879913330078125</LongitudeDegrees>
            </Position>
            <AltitudeMeters>68.40000152587890625</AltitudeMeters>
            <DistanceMeters>NAN</DistanceMeters>
          </Trackpoint>
          <Trackpoint>
            <Time>2022-07-05T10:42:37.000Z</Time>
            <Position>
              <LatitudeDegrees>44.44584245793521404266357421875</LatitudeDegrees>
              <LongitudeDegrees>-1.221347562968730926513671875</LongitudeDegrees>
            </Position>
            <AltitudeMeters>68.40000152587890625</AltitudeMeters>
            <DistanceMeters>NAN</DistanceMeters>
          </Trackpoint>
          <Trackpoint>
            <Time>2022-07-05T10:42:41.000Z</Time>
            <Position>
              <LatitudeDegrees>44.44584279321134090423583984375</LatitudeDegrees>
              <LongitudeDegrees>-1.22124002315104007720947265625</LongitudeDegrees>
            </Position>
            <AltitudeMeters>68.59999847412109375</AltitudeMeters>
            <DistanceMeters>NAN</DistanceMeters>
          </Trackpoint>
          <Trackpoint>
            <Time>2022-07-05T10:42:42.000Z</Time>
            <Position>
              <LatitudeDegrees>44.44584824144840240478515625</LatitudeDegrees>
              <LongitudeDegrees>-1.22121512889862060546875</LongitudeDegrees>
            </Position>
            <AltitudeMeters>68.8000030517578125</AltitudeMeters>
            <DistanceMeters>NAN</DistanceMeters>
          </Trackpoint>
          <Trackpoint>
            <Time>2022-07-05T10:42:45.000Z</Time>
            <Position>
              <LatitudeDegrees>44.4458809308707714080810546875</LatitudeDegrees>
              <LongitudeDegrees>-1.22114849276840686798095703125</LongitudeDegrees>
            </Position>
            <AltitudeMeters>69</AltitudeMeters>
            <DistanceMeters>NAN</DistanceMeters>
          </Trackpoint>
          <Trackpoint>
            <Time>2022-07-05T10:42:46.000Z</Time>
            <Position>
              <LatitudeDegrees>44.44589593447744846343994140625</LatitudeDegrees>
              <LongitudeDegrees>-1.22111462987959384918212890625</LongitudeDegrees>
            </Position>
            <AltitudeMeters>69</AltitudeMeters>
            <DistanceMeters>NAN</DistanceMeters>
          </Trackpoint>
          <Trackpoint>
            <Time>2022-07-05T10:42:47.000Z</Time>
            <Position>
              <LatitudeDegrees>44.44590766914188861846923828125</LatitudeDegrees>
              <LongitudeDegrees>-1.2210754863917827606201171875</LongitudeDegrees>
            </Position>
            <AltitudeMeters>69</AltitudeMeters>
            <DistanceMeters>NAN</DistanceMeters>
          </Trackpoint>
          <Trackpoint>
            <Time>2022-07-05T10:42:48.000Z</Time>
            <Position>
              <LatitudeDegrees>44.44591336883604526519775390625</LatitudeDegrees>
              <LongitudeDegrees>-1.221046485006809234619140625</LongitudeDegrees>
            </Position>
            <AltitudeMeters>69</AltitudeMeters>
            <DistanceMeters>NAN</DistanceMeters>
          </Trackpoint>
          <Trackpoint>
            <Time>2022-07-05T10:42:52.000Z</Time>
            <Position>
              <LatitudeDegrees>44.4459132850170135498046875</LatitudeDegrees>
              <LongitudeDegrees>-1.22094464488327503204345703125</LongitudeDegrees>
            </Position>
            <AltitudeMeters>69.40000152587890625</AltitudeMeters>
            <DistanceMeters>NAN</DistanceMeters>
          </Trackpoint>
          <Trackpoint>
            <Time>2022-07-05T10:42:53.000Z</Time>
            <Position>
              <LatitudeDegrees>44.445919655263423919677734375</LatitudeDegrees>
              <LongitudeDegrees>-1.22091379947960376739501953125</LongitudeDegrees>
            </Position>
            <AltitudeMeters>69.40000152587890625</AltitudeMeters>
            <DistanceMeters>NAN</DistanceMeters>
          </Trackpoint>
          <Trackpoint>
            <Time>2022-07-05T10:42:57.000Z</Time>
            <Position>
              <LatitudeDegrees>44.4459751434624195098876953125</LatitudeDegrees>
              <LongitudeDegrees>-1.2208223529160022735595703125</LongitudeDegrees>
            </Position>
            <AltitudeMeters>69.59999847412109375</AltitudeMeters>
            <DistanceMeters>NAN</DistanceMeters>
          </Trackpoint>
          <Trackpoint>
            <Time>2022-07-05T10:43:03.000Z</Time>
            <Position>
              <LatitudeDegrees>44.4460809230804443359375</LatitudeDegrees>
              <LongitudeDegrees>-1.22059495188295841217041015625</LongitudeDegrees>
            </Position>
            <AltitudeMeters>70</AltitudeMeters>
            <DistanceMeters>NAN</DistanceMeters>
          </Trackpoint>
          <Trackpoint>
            <Time>2022-07-05T10:43:05.000Z</Time>
            <Position>
              <LatitudeDegrees>44.44607430137693881988525390625</LatitudeDegrees>
              <LongitudeDegrees>-1.220540888607501983642578125</LongitudeDegrees>
            </Position>
            <AltitudeMeters>70.1999969482421875</AltitudeMeters>
            <DistanceMeters>NAN</DistanceMeters>
          </Trackpoint>
          <Trackpoint>
            <Time>2022-07-05T10:43:10.000Z</Time>
            <Position>
              <LatitudeDegrees>44.4460965134203433990478515625</LatitudeDegrees>
              <LongitudeDegrees>-1.2204807065427303314208984375</LongitudeDegrees>
            </Position>
            <AltitudeMeters>70.59999847412109375</AltitudeMeters>
            <DistanceMeters>NAN</DistanceMeters>
          </Trackpoint>
          <Trackpoint>
            <Time>2022-07-05T10:43:13.000Z</Time>
            <Position>
              <LatitudeDegrees>44.44613481871783733367919921875</LatitudeDegrees>
              <LongitudeDegrees>-1.2203888408839702606201171875</LongitudeDegrees>
            </Position>
            <AltitudeMeters>71</AltitudeMeters>
            <DistanceMeters>NAN</DistanceMeters>
          </Trackpoint>
          <Trackpoint>
            <Time>2022-07-05T10:43:16.000Z</Time>
            <Position>
              <LatitudeDegrees>44.44618041627109050750732421875</LatitudeDegrees>
              <LongitudeDegrees>-1.22033829800784587860107421875</LongitudeDegrees>
            </Position>
            <AltitudeMeters>71.40000152587890625</AltitudeMeters>
            <DistanceMeters>NAN</DistanceMeters>
          </Trackpoint>
          <Trackpoint>
            <Time>2022-07-05T10:43:17.000Z</Time>
            <Position>
              <LatitudeDegrees>44.44619131274521350860595703125</LatitudeDegrees>
              <LongitudeDegrees>-1.22032354585826396942138671875</LongitudeDegrees>
            </Position>
            <AltitudeMeters>71.40000152587890625</AltitudeMeters>
            <DistanceMeters>NAN</DistanceMeters>
          </Trackpoint>
          <Trackpoint>
            <Time>2022-07-05T10:43:23.000Z</Time>
            <Position>
              <LatitudeDegrees>44.44627471268177032470703125</LatitudeDegrees>
              <LongitudeDegrees>-1.22022128663957118988037109375</LongitudeDegrees>
            </Position>
            <AltitudeMeters>72</AltitudeMeters>
            <DistanceMeters>NAN</DistanceMeters>
          </Trackpoint>
          <Trackpoint>
            <Time>2022-07-05T10:43:25.000Z</Time>
            <Position>
              <LatitudeDegrees>44.44630262441933155059814453125</LatitudeDegrees>
              <LongitudeDegrees>-1.22021558694541454315185546875</LongitudeDegrees>
            </Position>
            <AltitudeMeters>72.1999969482421875</AltitudeMeters>
            <DistanceMeters>NAN</DistanceMeters>
          </Trackpoint>
          <Trackpoint>
            <Time>2022-07-05T10:43:28.000Z</Time>
            <Position>
              <LatitudeDegrees>44.446358866989612579345703125</LatitudeDegrees>
              <LongitudeDegrees>-1.220191530883312225341796875</LongitudeDegrees>
            </Position>
            <AltitudeMeters>72.59999847412109375</AltitudeMeters>
            <DistanceMeters>NAN</DistanceMeters>
          </Trackpoint>
          <Trackpoint>
            <Time>2022-07-05T10:43:31.000Z</Time>
            <Position>
              <LatitudeDegrees>44.4464197196066379547119140625</LatitudeDegrees>
              <LongitudeDegrees>-1.2201531417667865753173828125</LongitudeDegrees>
            </Position>
            <AltitudeMeters>72.59999847412109375</AltitudeMeters>
            <DistanceMeters>NAN</DistanceMeters>
          </Trackpoint>
          <Trackpoint>
            <Time>2022-07-05T10:43:35.000Z</Time>
            <Position>
              <LatitudeDegrees>44.4464995153248310089111328125</LatitudeDegrees>
              <LongitudeDegrees>-1.22009656392037868499755859375</LongitudeDegrees>
            </Position>
            <AltitudeMeters>73</AltitudeMeters>
            <DistanceMeters>NAN</DistanceMeters>
          </Trackpoint>
          <Trackpoint>
            <Time>2022-07-05T10:43:37.000Z</Time>
            <Position>
              <LatitudeDegrees>44.44652952253818511962890625</LatitudeDegrees>
              <LongitudeDegrees>-1.22007762081921100616455078125</LongitudeDegrees>
            </Position>
            <AltitudeMeters>73</AltitudeMeters>
            <DistanceMeters>NAN</DistanceMeters>
          </Trackpoint>
          <Trackpoint>
            <Time>2022-07-05T10:43:38.000Z</Time>
            <Position>
              <LatitudeDegrees>44.44654821418225765228271484375</LatitudeDegrees>
              <LongitudeDegrees>-1.220066808164119720458984375</LongitudeDegrees>
            </Position>
            <AltitudeMeters>73.1999969482421875</AltitudeMeters>
            <DistanceMeters>NAN</DistanceMeters>
          </Trackpoint>
          <Trackpoint>
            <Time>2022-07-05T10:43:44.000Z</Time>
            <Position>
              <LatitudeDegrees>44.4467447698116302490234375</LatitudeDegrees>
              <LongitudeDegrees>-1.21998474933207035064697265625</LongitudeDegrees>
            </Position>
            <AltitudeMeters>73.1999969482421875</AltitudeMeters>
            <DistanceMeters>NAN</DistanceMeters>
          </Trackpoint>
          <Trackpoint>
            <Time>2022-07-05T10:43:51.000Z</Time>
            <Position>
              <LatitudeDegrees>44.447091110050678253173828125</LatitudeDegrees>
              <LongitudeDegrees>-1.21980495750904083251953125</LongitudeDegrees>
            </Position>
            <AltitudeMeters>72.8000030517578125</AltitudeMeters>
            <DistanceMeters>NAN</DistanceMeters>
          </Trackpoint>
          <Trackpoint>
            <Time>2022-07-05T10:43:53.000Z</Time>
            <Position>
              <LatitudeDegrees>44.44717769511044025421142578125</LatitudeDegrees>
              <LongitudeDegrees>-1.219736896455287933349609375</LongitudeDegrees>
            </Position>
            <AltitudeMeters>72.1999969482421875</AltitudeMeters>
            <DistanceMeters>NAN</DistanceMeters>
          </Trackpoint>
          <Trackpoint>
            <Time>2022-07-05T10:43:55.000Z</Time>
            <Position>
              <LatitudeDegrees>44.447270818054676055908203125</LatitudeDegrees>
              <LongitudeDegrees>-1.2196565978229045867919921875</LongitudeDegrees>
            </Position>
            <AltitudeMeters>71.8000030517578125</AltitudeMeters>
            <DistanceMeters>NAN</DistanceMeters>
          </Trackpoint>
          <Trackpoint>
            <Time>2022-07-05T10:43:56.000Z</Time>
            <Position>
              <LatitudeDegrees>44.4473400525748729705810546875</LatitudeDegrees>
              <LongitudeDegrees>-1.219588033854961395263671875</LongitudeDegrees>
            </Position>
            <AltitudeMeters>71.59999847412109375</AltitudeMeters>
            <DistanceMeters>NAN</DistanceMeters>
          </Trackpoint>
          <Trackpoint>
            <Time>2022-07-05T10:43:59.000Z</Time>
            <Position>
              <LatitudeDegrees>44.4475740753114223480224609375</LatitudeDegrees>
              <LongitudeDegrees>-1.2194182164967060089111328125</LongitudeDegrees>
            </Position>
            <AltitudeMeters>70.59999847412109375</AltitudeMeters>
            <DistanceMeters>NAN</DistanceMeters>
          </Trackpoint>
          <Trackpoint>
            <Time>2022-07-05T10:44:00.000Z</Time>
            <Position>
              <LatitudeDegrees>44.44764507003128528594970703125</LatitudeDegrees>
              <LongitudeDegrees>-1.2193957529962062835693359375</LongitudeDegrees>
            </Position>
            <AltitudeMeters>70.1999969482421875</AltitudeMeters>
            <DistanceMeters>NAN</DistanceMeters>
          </Trackpoint>
          <Trackpoint>
            <Time>2022-07-05T10:44:01.000Z</Time>
            <Position>
              <LatitudeDegrees>44.447694607079029083251953125</LatitudeDegrees>
              <LongitudeDegrees>-1.21937421150505542755126953125</LongitudeDegrees>
            </Position>
            <AltitudeMeters>69.8000030517578125</AltitudeMeters>
            <DistanceMeters>NAN</DistanceMeters>
          </Trackpoint>
          <Trackpoint>
            <Time>2022-07-05T10:44:02.000Z</Time>
            <Position>
              <LatitudeDegrees>44.447748251259326934814453125</LatitudeDegrees>
              <LongitudeDegrees>-1.21936214156448841094970703125</LongitudeDegrees>
            </Position>
            <AltitudeMeters>68.8000030517578125</AltitudeMeters>
            <DistanceMeters>NAN</DistanceMeters>
          </Trackpoint>
          <Trackpoint>
            <Time>2022-07-05T10:44:03.000Z</Time>
            <Position>
              <LatitudeDegrees>44.4478070922195911407470703125</LatitudeDegrees>
              <LongitudeDegrees>-1.2193571962416172027587890625</LongitudeDegrees>
            </Position>
            <AltitudeMeters>68.40000152587890625</AltitudeMeters>
            <DistanceMeters>NAN</DistanceMeters>
          </Trackpoint>
          <Trackpoint>
            <Time>2022-07-05T10:44:04.000Z</Time>
            <Position>
              <LatitudeDegrees>44.44786333478987216949462890625</LatitudeDegrees>
              <LongitudeDegrees>-1.21935409493744373321533203125</LongitudeDegrees>
            </Position>
            <AltitudeMeters>68.1999969482421875</AltitudeMeters>
            <DistanceMeters>NAN</DistanceMeters>
          </Trackpoint>
          <Trackpoint>
            <Time>2022-07-05T10:44:06.000Z</Time>
            <Position>
              <LatitudeDegrees>44.4479780830442905426025390625</LatitudeDegrees>
              <LongitudeDegrees>-1.219333223998546600341796875</LongitudeDegrees>
            </Position>
            <AltitudeMeters>67.8000030517578125</AltitudeMeters>
            <DistanceMeters>NAN</DistanceMeters>
          </Trackpoint>
          <Trackpoint>
            <Time>2022-07-05T10:44:08.000Z</Time>
            <Position>
              <LatitudeDegrees>44.44809182547032833099365234375</LatitudeDegrees>
              <LongitudeDegrees>-1.21933833695948123931884765625</LongitudeDegrees>
            </Position>
            <AltitudeMeters>67.1999969482421875</AltitudeMeters>
            <DistanceMeters>NAN</DistanceMeters>
          </Trackpoint>
          <Trackpoint>
            <Time>2022-07-05T10:44:09.000Z</Time>
            <Position>
              <LatitudeDegrees>44.448148570954799652099609375</LatitudeDegrees>
              <LongitudeDegrees>-1.21934722177684307098388671875</LongitudeDegrees>
            </Position>
            <AltitudeMeters>66.8000030517578125</AltitudeMeters>
            <DistanceMeters>NAN</DistanceMeters>
          </Trackpoint>
          <Trackpoint>
            <Time>2022-07-05T10:44:11.000Z</Time>
            <Position>
              <LatitudeDegrees>44.44825761951506137847900390625</LatitudeDegrees>
              <LongitudeDegrees>-1.21937437914311885833740234375</LongitudeDegrees>
            </Position>
            <AltitudeMeters>66.40000152587890625</AltitudeMeters>
            <DistanceMeters>NAN</DistanceMeters>
          </Trackpoint>
          <Trackpoint>
            <Time>2022-07-05T10:44:12.000Z</Time>
            <Position>
              <LatitudeDegrees>44.44831059314310550689697265625</LatitudeDegrees>
              <LongitudeDegrees>-1.21938661672174930572509765625</LongitudeDegrees>
            </Position>
            <AltitudeMeters>66.1999969482421875</AltitudeMeters>
            <DistanceMeters>NAN</DistanceMeters>
          </Trackpoint>
          <Trackpoint>
            <Time>2022-07-05T10:44:13.000Z</Time>
            <Position>
              <LatitudeDegrees>44.4483659975230693817138671875</LatitudeDegrees>
              <LongitudeDegrees>-1.21937957592308521270751953125</LongitudeDegrees>
            </Position>
            <AltitudeMeters>65.59999847412109375</AltitudeMeters>
            <DistanceMeters>NAN</DistanceMeters>
          </Trackpoint>
          <Trackpoint>
            <Time>2022-07-05T10:44:14.000Z</Time>
            <Position>
              <LatitudeDegrees>44.44840933196246623992919921875</LatitudeDegrees>
              <LongitudeDegrees>-1.21934772469103336334228515625</LongitudeDegrees>
            </Position>
            <AltitudeMeters>65.40000152587890625</AltitudeMeters>
            <DistanceMeters>NAN</DistanceMeters>
          </Trackpoint>
          <Trackpoint>
            <Time>2022-07-05T10:44:17.000Z</Time>
            <Position>
              <LatitudeDegrees>44.4485286064445972442626953125</LatitudeDegrees>
              <LongitudeDegrees>-1.2192277796566486358642578125</LongitudeDegrees>
            </Position>
            <AltitudeMeters>64.40000152587890625</AltitudeMeters>
            <DistanceMeters>NAN</DistanceMeters>
          </Trackpoint>
          <Trackpoint>
            <Time>2022-07-05T10:44:19.000Z</Time>
            <Position>
              <LatitudeDegrees>44.4486436061561107635498046875</LatitudeDegrees>
              <LongitudeDegrees>-1.21909542940557003021240234375</LongitudeDegrees>
            </Position>
            <AltitudeMeters>63.799999237060546875</AltitudeMeters>
            <DistanceMeters>NAN</DistanceMeters>
          </Trackpoint>
          <Trackpoint>
            <Time>2022-07-05T10:44:20.000Z</Time>
            <Position>
              <LatitudeDegrees>44.4486838392913341522216796875</LatitudeDegrees>
              <LongitudeDegrees>-1.2190195731818675994873046875</LongitudeDegrees>
            </Position>
            <AltitudeMeters>63.40000152587890625</AltitudeMeters>
            <DistanceMeters>NAN</DistanceMeters>
          </Trackpoint>
          <Trackpoint>
            <Time>2022-07-05T10:44:21.000Z</Time>
            <Position>
              <LatitudeDegrees>44.4487099908292293548583984375</LatitudeDegrees>
              <LongitudeDegrees>-1.218950338661670684814453125</LongitudeDegrees>
            </Position>
            <AltitudeMeters>63</AltitudeMeters>
            <DistanceMeters>NAN</DistanceMeters>
          </Trackpoint>
          <Trackpoint>
            <Time>2022-07-05T10:44:22.000Z</Time>
            <Position>
              <LatitudeDegrees>44.448731280863285064697265625</LatitudeDegrees>
              <LongitudeDegrees>-1.21885922737419605255126953125</LongitudeDegrees>
            </Position>
            <AltitudeMeters>62.59999847412109375</AltitudeMeters>
            <DistanceMeters>NAN</DistanceMeters>
          </Trackpoint>
          <Trackpoint>
            <Time>2022-07-05T10:44:23.000Z</Time>
            <Position>
              <LatitudeDegrees>44.44874444045126438140869140625</LatitudeDegrees>
              <LongitudeDegrees>-1.21874280273914337158203125</LongitudeDegrees>
            </Position>
            <AltitudeMeters>62.200000762939453125</AltitudeMeters>
            <DistanceMeters>NAN</DistanceMeters>
          </Trackpoint>
          <Trackpoint>
            <Time>2022-07-05T10:44:25.000Z</Time>
            <Position>
              <LatitudeDegrees>44.4487408362329006195068359375</LatitudeDegrees>
              <LongitudeDegrees>-1.21856175363063812255859375</LongitudeDegrees>
            </Position>
            <AltitudeMeters>61</AltitudeMeters>
            <DistanceMeters>NAN</DistanceMeters>
          </Trackpoint>
          <Trackpoint>
            <Time>2022-07-05T10:44:26.000Z</Time>
            <Position>
              <LatitudeDegrees>44.4487146846950054168701171875</LatitudeDegrees>
              <LongitudeDegrees>-1.21845589019358158111572265625</LongitudeDegrees>
            </Position>
            <AltitudeMeters>60</AltitudeMeters>
            <DistanceMeters>NAN</DistanceMeters>
          </Trackpoint>
          <Trackpoint>
            <Time>2022-07-05T10:44:27.000Z</Time>
            <Position>
              <LatitudeDegrees>44.4486962445080280303955078125</LatitudeDegrees>
              <LongitudeDegrees>-1.218381039798259735107421875</LongitudeDegrees>
            </Position>
            <AltitudeMeters>59.40000152587890625</AltitudeMeters>
            <DistanceMeters>NAN</DistanceMeters>
          </Trackpoint>
          <Trackpoint>
            <Time>2022-07-05T10:44:29.000Z</Time>
            <Position>
              <LatitudeDegrees>44.448608569800853729248046875</LatitudeDegrees>
              <LongitudeDegrees>-1.21822186745703220367431640625</LongitudeDegrees>
            </Position>
            <AltitudeMeters>57.799999237060546875</AltitudeMeters>
            <DistanceMeters>NAN</DistanceMeters>
          </Trackpoint>
          <Trackpoint>
            <Time>2022-07-05T10:44:30.000Z</Time>
            <Position>
              <LatitudeDegrees>44.4485507346689701080322265625</LatitudeDegrees>
              <LongitudeDegrees>-1.21812027879059314727783203125</LongitudeDegrees>
            </Position>
            <AltitudeMeters>57.200000762939453125</AltitudeMeters>
            <DistanceMeters>NAN</DistanceMeters>
          </Trackpoint>
          <Trackpoint>
            <Time>2022-07-05T10:44:31.000Z</Time>
            <Position>
              <LatitudeDegrees>44.44852902553975582122802734375</LatitudeDegrees>
              <LongitudeDegrees>-1.218047440052032470703125</LongitudeDegrees>
            </Position>
            <AltitudeMeters>56.40000152587890625</AltitudeMeters>
            <DistanceMeters>NAN</DistanceMeters>
          </Trackpoint>
          <Trackpoint>
            <Time>2022-07-05T10:44:32.000Z</Time>
            <Position>
              <LatitudeDegrees>44.4484843499958515167236328125</LatitudeDegrees>
              <LongitudeDegrees>-1.21795331127941608428955078125</LongitudeDegrees>
            </Position>
            <AltitudeMeters>55.59999847412109375</AltitudeMeters>
            <DistanceMeters>NAN</DistanceMeters>
          </Trackpoint>
          <Trackpoint>
            <Time>2022-07-05T10:44:33.000Z</Time>
            <Position>
              <LatitudeDegrees>44.44842777214944362640380859375</LatitudeDegrees>
              <LongitudeDegrees>-1.2178561650216579437255859375</LongitudeDegrees>
            </Position>
            <AltitudeMeters>54.59999847412109375</AltitudeMeters>
            <DistanceMeters>NAN</DistanceMeters>
          </Trackpoint>
          <Trackpoint>
            <Time>2022-07-05T10:44:34.000Z</Time>
            <Position>
              <LatitudeDegrees>44.4483602978289127349853515625</LatitudeDegrees>
              <LongitudeDegrees>-1.217740662395954132080078125</LongitudeDegrees>
            </Position>
            <AltitudeMeters>53.59999847412109375</AltitudeMeters>
            <DistanceMeters>NAN</DistanceMeters>
          </Trackpoint>
          <Trackpoint>
            <Time>2022-07-05T10:44:36.000Z</Time>
            <Position>
              <LatitudeDegrees>44.4482788257300853729248046875</LatitudeDegrees>
              <LongitudeDegrees>-1.21757176704704761505126953125</LongitudeDegrees>
            </Position>
            <AltitudeMeters>52</AltitudeMeters>
            <DistanceMeters>NAN</DistanceMeters>
          </Trackpoint>
          <Trackpoint>
            <Time>2022-07-05T10:44:38.000Z</Time>
            <Position>
              <LatitudeDegrees>44.44808998145163059234619140625</LatitudeDegrees>
              <LongitudeDegrees>-1.217389963567256927490234375</LongitudeDegrees>
            </Position>
            <AltitudeMeters>50.40000152587890625</AltitudeMeters>
            <DistanceMeters>NAN</DistanceMeters>
          </Trackpoint>
          <Trackpoint>
            <Time>2022-07-05T10:44:40.000Z</Time>
            <Position>
              <LatitudeDegrees>44.44787724874913692474365234375</LatitudeDegrees>
              <LongitudeDegrees>-1.21728912927210330963134765625</LongitudeDegrees>
            </Position>
            <AltitudeMeters>49</AltitudeMeters>
            <DistanceMeters>NAN</DistanceMeters>
          </Trackpoint>
          <Trackpoint>
            <Time>2022-07-05T10:44:42.000Z</Time>
            <Position>
              <LatitudeDegrees>44.44765336811542510986328125</LatitudeDegrees>
              <LongitudeDegrees>-1.2172333896160125732421875</LongitudeDegrees>
            </Position>
            <AltitudeMeters>47.40000152587890625</AltitudeMeters>
            <DistanceMeters>NAN</DistanceMeters>
          </Trackpoint>
          <Trackpoint>
            <Time>2022-07-05T10:44:44.000Z</Time>
            <Position>
              <LatitudeDegrees>44.447581283748149871826171875</LatitudeDegrees>
              <LongitudeDegrees>-1.2172164581716060638427734375</LongitudeDegrees>
            </Position>
            <AltitudeMeters>45.799999237060546875</AltitudeMeters>
            <DistanceMeters>NAN</DistanceMeters>
          </Trackpoint>
          <Trackpoint>
            <Time>2022-07-05T10:44:46.000Z</Time>
            <Position>
              <LatitudeDegrees>44.4472602568566799163818359375</LatitudeDegrees>
              <LongitudeDegrees>-1.2171768955886363983154296875</LongitudeDegrees>
            </Position>
            <AltitudeMeters>44.200000762939453125</AltitudeMeters>
            <DistanceMeters>NAN</DistanceMeters>
          </Trackpoint>
          <Trackpoint>
            <Time>2022-07-05T10:44:47.000Z</Time>
            <Position>
              <LatitudeDegrees>44.44716009311378002166748046875</LatitudeDegrees>
              <LongitudeDegrees>-1.217174045741558074951171875</LongitudeDegrees>
            </Position>
            <AltitudeMeters>43.40000152587890625</AltitudeMeters>
            <DistanceMeters>NAN</DistanceMeters>
          </Trackpoint>
          <Trackpoint>
            <Time>2022-07-05T10:44:48.000Z</Time>
            <Position>
              <LatitudeDegrees>44.44706269539892673492431640625</LatitudeDegrees>
              <LongitudeDegrees>-1.21715703047811985015869140625</LongitudeDegrees>
            </Position>
            <AltitudeMeters>42.40000152587890625</AltitudeMeters>
            <DistanceMeters>NAN</DistanceMeters>
          </Trackpoint>
          <Trackpoint>
            <Time>2022-07-05T10:44:49.000Z</Time>
            <Position>
              <LatitudeDegrees>44.446973092854022979736328125</LatitudeDegrees>
              <LongitudeDegrees>-1.21712132357060909271240234375</LongitudeDegrees>
            </Position>
            <AltitudeMeters>41.200000762939453125</AltitudeMeters>
            <DistanceMeters>NAN</DistanceMeters>
          </Trackpoint>
          <Trackpoint>
            <Time>2022-07-05T10:44:50.000Z</Time>
            <Position>
              <LatitudeDegrees>44.4468988291919231414794921875</LatitudeDegrees>
              <LongitudeDegrees>-1.21706197969615459442138671875</LongitudeDegrees>
            </Position>
            <AltitudeMeters>40</AltitudeMeters>
            <DistanceMeters>NAN</DistanceMeters>
          </Trackpoint>
          <Trackpoint>
            <Time>2022-07-05T10:44:51.000Z</Time>
            <Position>
              <LatitudeDegrees>44.44684459827840328216552734375</LatitudeDegrees>
              <LongitudeDegrees>-1.21697849594056606292724609375</LongitudeDegrees>
            </Position>
            <AltitudeMeters>39.40000152587890625</AltitudeMeters>
            <DistanceMeters>NAN</DistanceMeters>
          </Trackpoint>
          <Trackpoint>
            <Time>2022-07-05T10:44:52.000Z</Time>
            <Position>
              <LatitudeDegrees>44.44680520333349704742431640625</LatitudeDegrees>
              <LongitudeDegrees>-1.2168717943131923675537109375</LongitudeDegrees>
            </Position>
            <AltitudeMeters>38.59999847412109375</AltitudeMeters>
            <DistanceMeters>NAN</DistanceMeters>
          </Trackpoint>
          <Trackpoint>
            <Time>2022-07-05T10:44:55.000Z</Time>
            <Position>
              <LatitudeDegrees>44.446657933294773101806640625</LatitudeDegrees>
              <LongitudeDegrees>-1.216628216207027435302734375</LongitudeDegrees>
            </Position>
            <AltitudeMeters>37.59999847412109375</AltitudeMeters>
            <DistanceMeters>NAN</DistanceMeters>
          </Trackpoint>
          <Trackpoint>
            <Time>2022-07-05T10:44:57.000Z</Time>
            <Position>
              <LatitudeDegrees>44.446553997695446014404296875</LatitudeDegrees>
              <LongitudeDegrees>-1.21651262976229190826416015625</LongitudeDegrees>
            </Position>
            <AltitudeMeters>37</AltitudeMeters>
            <DistanceMeters>NAN</DistanceMeters>
          </Trackpoint>
          <Trackpoint>
            <Time>2022-07-05T10:44:59.000Z</Time>
            <Position>
              <LatitudeDegrees>44.446460120379924774169921875</LatitudeDegrees>
              <LongitudeDegrees>-1.2164305709302425384521484375</LongitudeDegrees>
            </Position>
            <AltitudeMeters>36.799999237060546875</AltitudeMeters>
            <DistanceMeters>NAN</DistanceMeters>
          </Trackpoint>
          <Trackpoint>
            <Time>2022-07-05T10:45:01.000Z</Time>
            <Position>
              <LatitudeDegrees>44.44635459221899509429931640625</LatitudeDegrees>
              <LongitudeDegrees>-1.2163621746003627777099609375</LongitudeDegrees>
            </Position>
            <AltitudeMeters>36.40000152587890625</AltitudeMeters>
            <DistanceMeters>NAN</DistanceMeters>
          </Trackpoint>
          <Trackpoint>
            <Time>2022-07-05T10:45:04.000Z</Time>
            <Position>
              <LatitudeDegrees>44.4461652450263500213623046875</LatitudeDegrees>
              <LongitudeDegrees>-1.21626553125679492950439453125</LongitudeDegrees>
            </Position>
            <AltitudeMeters>35.799999237060546875</AltitudeMeters>
            <DistanceMeters>NAN</DistanceMeters>
          </Trackpoint>
          <Trackpoint>
            <Time>2022-07-05T10:45:06.000Z</Time>
            <Position>
              <LatitudeDegrees>44.44608771242201328277587890625</LatitudeDegrees>
              <LongitudeDegrees>-1.216168887913227081298828125</LongitudeDegrees>
            </Position>
            <AltitudeMeters>35.799999237060546875</AltitudeMeters>
            <DistanceMeters>NAN</DistanceMeters>
          </Trackpoint>
          <Trackpoint>
            <Time>2022-07-05T10:45:07.000Z</Time>
            <Position>
              <LatitudeDegrees>44.44607011042535305023193359375</LatitudeDegrees>
              <LongitudeDegrees>-1.216115914285182952880859375</LongitudeDegrees>
            </Position>
            <AltitudeMeters>35.799999237060546875</AltitudeMeters>
            <DistanceMeters>NAN</DistanceMeters>
          </Trackpoint>
          <Trackpoint>
            <Time>2022-07-05T10:45:09.000Z</Time>
            <Position>
              <LatitudeDegrees>44.44606206379830837249755859375</LatitudeDegrees>
              <LongitudeDegrees>-1.21602178551256656646728515625</LongitudeDegrees>
            </Position>
            <AltitudeMeters>35.799999237060546875</AltitudeMeters>
            <DistanceMeters>NAN</DistanceMeters>
          </Trackpoint>
          <Trackpoint>
            <Time>2022-07-05T10:45:11.000Z</Time>
            <Position>
              <LatitudeDegrees>44.44606415927410125732421875</LatitudeDegrees>
              <LongitudeDegrees>-1.215926147997379302978515625</LongitudeDegrees>
            </Position>
            <AltitudeMeters>35.799999237060546875</AltitudeMeters>
            <DistanceMeters>NAN</DistanceMeters>
          </Trackpoint>
          <Trackpoint>
            <Time>2022-07-05T10:45:17.000Z</Time>
            <Position>
              <LatitudeDegrees>44.4460767321288585662841796875</LatitudeDegrees>
              <LongitudeDegrees>-1.2156845815479755401611328125</LongitudeDegrees>
            </Position>
            <AltitudeMeters>35.799999237060546875</AltitudeMeters>
            <DistanceMeters>NAN</DistanceMeters>
          </Trackpoint>
          <Trackpoint>
            <Time>2022-07-05T10:45:19.000Z</Time>
            <Position>
              <LatitudeDegrees>44.4460767321288585662841796875</LatitudeDegrees>
              <LongitudeDegrees>-1.2156845815479755401611328125</LongitudeDegrees>
            </Position>
            <AltitudeMeters>35.799999237060546875</AltitudeMeters>
            <DistanceMeters>NAN</DistanceMeters>
          </Trackpoint>
          <Trackpoint>
            <Time>2022-07-05T10:45:31.000Z</Time>
            <Position>
              <LatitudeDegrees>44.44609165191650390625</LatitudeDegrees>
              <LongitudeDegrees>-1.2155980803072452545166015625</LongitudeDegrees>
            </Position>
            <AltitudeMeters>35.59999847412109375</AltitudeMeters>
            <DistanceMeters>NAN</DistanceMeters>
          </Trackpoint>
          <Trackpoint>
            <Time>2022-07-05T10:45:32.000Z</Time>
            <Position>
              <LatitudeDegrees>44.44608628749847412109375</LatitudeDegrees>
              <LongitudeDegrees>-1.2155784666538238525390625</LongitudeDegrees>
            </Position>
            <AltitudeMeters>35.59999847412109375</AltitudeMeters>
            <DistanceMeters>NAN</DistanceMeters>
          </Trackpoint>
          <Trackpoint>
            <Time>2022-07-05T10:45:36.000Z</Time>
            <Position>
              <LatitudeDegrees>44.44610028527677059173583984375</LatitudeDegrees>
              <LongitudeDegrees>-1.21546690352261066436767578125</LongitudeDegrees>
            </Position>
            <AltitudeMeters>35.59999847412109375</AltitudeMeters>
            <DistanceMeters>NAN</DistanceMeters>
          </Trackpoint>
          <Trackpoint>
            <Time>2022-07-05T10:45:38.000Z</Time>
            <Position>
              <LatitudeDegrees>44.44613029249012470245361328125</LatitudeDegrees>
              <LongitudeDegrees>-1.21542147360742092132568359375</LongitudeDegrees>
            </Position>
            <AltitudeMeters>35.59999847412109375</AltitudeMeters>
            <DistanceMeters>NAN</DistanceMeters>
          </Trackpoint>
          <Trackpoint>
            <Time>2022-07-05T10:45:39.000Z</Time>
            <Position>
              <LatitudeDegrees>44.44614873267710208892822265625</LatitudeDegrees>
              <LongitudeDegrees>-1.21540755964815616607666015625</LongitudeDegrees>
            </Position>
            <AltitudeMeters>35.40000152587890625</AltitudeMeters>
            <DistanceMeters>NAN</DistanceMeters>
          </Trackpoint>
          <Trackpoint>
            <Time>2022-07-05T10:45:42.000Z</Time>
            <Position>
              <LatitudeDegrees>44.4462296180427074432373046875</LatitudeDegrees>
              <LongitudeDegrees>-1.21539540588855743408203125</LongitudeDegrees>
            </Position>
            <AltitudeMeters>35.40000152587890625</AltitudeMeters>
            <DistanceMeters>NAN</DistanceMeters>
          </Trackpoint>
          <Trackpoint>
            <Time>2022-07-05T10:45:48.000Z</Time>
            <Position>
              <LatitudeDegrees>44.446431957185268402099609375</LatitudeDegrees>
              <LongitudeDegrees>-1.21544100344181060791015625</LongitudeDegrees>
            </Position>
            <AltitudeMeters>35.40000152587890625</AltitudeMeters>
            <DistanceMeters>NAN</DistanceMeters>
          </Trackpoint>
          <Trackpoint>
            <Time>2022-07-05T10:45:55.000Z</Time>
            <Position>
              <LatitudeDegrees>44.44661426357924938201904296875</LatitudeDegrees>
              <LongitudeDegrees>-1.21549062430858612060546875</LongitudeDegrees>
            </Position>
            <AltitudeMeters>36</AltitudeMeters>
            <DistanceMeters>NAN</DistanceMeters>
          </Trackpoint>
          <Trackpoint>
            <Time>2022-07-05T10:46:00.000Z</Time>
            <Position>
              <LatitudeDegrees>44.44673295132815837860107421875</LatitudeDegrees>
              <LongitudeDegrees>-1.2155263312160968780517578125</LongitudeDegrees>
            </Position>
            <AltitudeMeters>36.200000762939453125</AltitudeMeters>
            <DistanceMeters>NAN</DistanceMeters>
          </Trackpoint>
          <Trackpoint>
            <Time>2022-07-05T10:46:06.000Z</Time>
            <Position>
              <LatitudeDegrees>44.44684107787907123565673828125</LatitudeDegrees>
              <LongitudeDegrees>-1.215539239346981048583984375</LongitudeDegrees>
            </Position>
            <AltitudeMeters>36.40000152587890625</AltitudeMeters>
            <DistanceMeters>NAN</DistanceMeters>
          </Trackpoint>
          <Trackpoint>
            <Time>2022-07-05T10:46:12.000Z</Time>
            <Position>
              <LatitudeDegrees>44.44695976562798023223876953125</LatitudeDegrees>
              <LongitudeDegrees>-1.21554753743112087249755859375</LongitudeDegrees>
            </Position>
            <AltitudeMeters>37</AltitudeMeters>
            <DistanceMeters>NAN</DistanceMeters>
          </Trackpoint>
          <Trackpoint>
            <Time>2022-07-05T10:46:16.000Z</Time>
            <Position>
              <LatitudeDegrees>44.44704827852547168731689453125</LatitudeDegrees>
              <LongitudeDegrees>-1.215558350086212158203125</LongitudeDegrees>
            </Position>
            <AltitudeMeters>37.40000152587890625</AltitudeMeters>
            <DistanceMeters>NAN</DistanceMeters>
          </Trackpoint>
          <Trackpoint>
            <Time>2022-07-05T10:46:18.000Z</Time>
            <Position>
              <LatitudeDegrees>44.447097145020961761474609375</LatitudeDegrees>
              <LongitudeDegrees>-1.2155672349035739898681640625</LongitudeDegrees>
            </Position>
            <AltitudeMeters>37.59999847412109375</AltitudeMeters>
            <DistanceMeters>NAN</DistanceMeters>
          </Trackpoint>
          <Trackpoint>
            <Time>2022-07-05T10:46:27.000Z</Time>
            <Position>
              <LatitudeDegrees>44.44730493240058422088623046875</LatitudeDegrees>
              <LongitudeDegrees>-1.21556882746517658233642578125</LongitudeDegrees>
            </Position>
            <AltitudeMeters>38.200000762939453125</AltitudeMeters>
            <DistanceMeters>NAN</DistanceMeters>
          </Trackpoint>
          <Trackpoint>
            <Time>2022-07-05T10:46:29.000Z</Time>
            <Position>
              <LatitudeDegrees>44.44735069759190082550048828125</LatitudeDegrees>
              <LongitudeDegrees>-1.2155449390411376953125</LongitudeDegrees>
            </Position>
            <AltitudeMeters>38.59999847412109375</AltitudeMeters>
            <DistanceMeters>NAN</DistanceMeters>
          </Trackpoint>
          <Trackpoint>
            <Time>2022-07-05T10:46:33.000Z</Time>
            <Position>
              <LatitudeDegrees>44.4474426470696926116943359375</LatitudeDegrees>
              <LongitudeDegrees>-1.21552960015833377838134765625</LongitudeDegrees>
            </Position>
            <AltitudeMeters>39</AltitudeMeters>
            <DistanceMeters>NAN</DistanceMeters>
          </Trackpoint>
          <Trackpoint>
            <Time>2022-07-05T10:46:37.000Z</Time>
            <Position>
              <LatitudeDegrees>44.4475185871124267578125</LatitudeDegrees>
              <LongitudeDegrees>-1.21551736257970333099365234375</LongitudeDegrees>
            </Position>
            <AltitudeMeters>39.200000762939453125</AltitudeMeters>
            <DistanceMeters>NAN</DistanceMeters>
          </Trackpoint>
          <Trackpoint>
            <Time>2022-07-05T10:46:39.000Z</Time>
            <Position>
              <LatitudeDegrees>44.4475542940199375152587890625</LatitudeDegrees>
              <LongitudeDegrees>-1.215525828301906585693359375</LongitudeDegrees>
            </Position>
            <AltitudeMeters>39.59999847412109375</AltitudeMeters>
            <DistanceMeters>NAN</DistanceMeters>
          </Trackpoint>
          <Trackpoint>
            <Time>2022-07-05T10:46:40.000Z</Time>
            <Position>
              <LatitudeDegrees>44.44757197983562946319580078125</LatitudeDegrees>
              <LongitudeDegrees>-1.21552088297903537750244140625</LongitudeDegrees>
            </Position>
            <AltitudeMeters>39.59999847412109375</AltitudeMeters>
            <DistanceMeters>NAN</DistanceMeters>
          </Trackpoint>
          <Trackpoint>
            <Time>2022-07-05T10:46:43.000Z</Time>
            <Position>
              <LatitudeDegrees>44.44763517938554286956787109375</LatitudeDegrees>
              <LongitudeDegrees>-1.21551803313195705413818359375</LongitudeDegrees>
            </Position>
            <AltitudeMeters>39.799999237060546875</AltitudeMeters>
            <DistanceMeters>NAN</DistanceMeters>
          </Trackpoint>
          <Trackpoint>
            <Time>2022-07-05T10:46:49.000Z</Time>
            <Position>
              <LatitudeDegrees>44.44774950854480266571044921875</LatitudeDegrees>
              <LongitudeDegrees>-1.21550981886684894561767578125</LongitudeDegrees>
            </Position>
            <AltitudeMeters>40.200000762939453125</AltitudeMeters>
            <DistanceMeters>NAN</DistanceMeters>
          </Trackpoint>
          <Trackpoint>
            <Time>2022-07-05T10:46:54.000Z</Time>
            <Position>
              <LatitudeDegrees>44.447850845754146575927734375</LatitudeDegrees>
              <LongitudeDegrees>-1.21550613082945346832275390625</LongitudeDegrees>
            </Position>
            <AltitudeMeters>40.40000152587890625</AltitudeMeters>
            <DistanceMeters>NAN</DistanceMeters>
          </Trackpoint>
          <Trackpoint>
            <Time>2022-07-05T10:46:56.000Z</Time>
            <Position>
              <LatitudeDegrees>44.4478956051170825958251953125</LatitudeDegrees>
              <LongitudeDegrees>-1.21549330651760101318359375</LongitudeDegrees>
            </Position>
            <AltitudeMeters>40.59999847412109375</AltitudeMeters>
            <DistanceMeters>NAN</DistanceMeters>
          </Trackpoint>
          <Trackpoint>
            <Time>2022-07-05T10:46:57.000Z</Time>
            <Position>
              <LatitudeDegrees>44.4479160569608211517333984375</LatitudeDegrees>
              <LongitudeDegrees>-1.21548584662377834320068359375</LongitudeDegrees>
            </Position>
            <AltitudeMeters>40.59999847412109375</AltitudeMeters>
            <DistanceMeters>NAN</DistanceMeters>
          </Trackpoint>
          <Trackpoint>
            <Time>2022-07-05T10:47:03.000Z</Time>
            <Position>
              <LatitudeDegrees>44.448031894862651824951171875</LatitudeDegrees>
              <LongitudeDegrees>-1.2154237367212772369384765625</LongitudeDegrees>
            </Position>
            <AltitudeMeters>41.200000762939453125</AltitudeMeters>
            <DistanceMeters>NAN</DistanceMeters>
          </Trackpoint>
          <Trackpoint>
            <Time>2022-07-05T10:47:13.000Z</Time>
            <Position>
              <LatitudeDegrees>44.448247812688350677490234375</LatitudeDegrees>
              <LongitudeDegrees>-1.2153529934585094451904296875</LongitudeDegrees>
            </Position>
            <AltitudeMeters>41.200000762939453125</AltitudeMeters>
            <DistanceMeters>NAN</DistanceMeters>
          </Trackpoint>
          <Trackpoint>
            <Time>2022-07-05T10:47:18.000Z</Time>
            <Position>
              <LatitudeDegrees>44.4483380019664764404296875</LatitudeDegrees>
              <LongitudeDegrees>-1.21532374061644077301025390625</LongitudeDegrees>
            </Position>
            <AltitudeMeters>41.59999847412109375</AltitudeMeters>
            <DistanceMeters>NAN</DistanceMeters>
          </Trackpoint>
          <Trackpoint>
            <Time>2022-07-05T10:47:21.000Z</Time>
            <Position>
              <LatitudeDegrees>44.44839499890804290771484375</LatitudeDegrees>
              <LongitudeDegrees>-1.21529222466051578521728515625</LongitudeDegrees>
            </Position>
            <AltitudeMeters>41.59999847412109375</AltitudeMeters>
            <DistanceMeters>NAN</DistanceMeters>
          </Trackpoint>
          <Trackpoint>
            <Time>2022-07-05T10:47:27.000Z</Time>
            <Position>
              <LatitudeDegrees>44.44851041771471500396728515625</LatitudeDegrees>
              <LongitudeDegrees>-1.21517487801611423492431640625</LongitudeDegrees>
            </Position>
            <AltitudeMeters>42.200000762939453125</AltitudeMeters>
            <DistanceMeters>NAN</DistanceMeters>
          </Trackpoint>
          <Trackpoint>
            <Time>2022-07-05T10:47:35.000Z</Time>
            <Position>
              <LatitudeDegrees>44.44864234887063503265380859375</LatitudeDegrees>
              <LongitudeDegrees>-1.21499500237405300140380859375</LongitudeDegrees>
            </Position>
            <AltitudeMeters>42.40000152587890625</AltitudeMeters>
            <DistanceMeters>NAN</DistanceMeters>
          </Trackpoint>
          <Trackpoint>
            <Time>2022-07-05T10:47:40.000Z</Time>
            <Position>
              <LatitudeDegrees>44.44872600026428699493408203125</LatitudeDegrees>
              <LongitudeDegrees>-1.214903555810451507568359375</LongitudeDegrees>
            </Position>
            <AltitudeMeters>42.799999237060546875</AltitudeMeters>
            <DistanceMeters>NAN</DistanceMeters>
          </Trackpoint>
          <Trackpoint>
            <Time>2022-07-05T10:47:42.000Z</Time>
            <Position>
              <LatitudeDegrees>44.4487545825541019439697265625</LatitudeDegrees>
              <LongitudeDegrees>-1.21487597934901714324951171875</LongitudeDegrees>
            </Position>
            <AltitudeMeters>43</AltitudeMeters>
            <DistanceMeters>NAN</DistanceMeters>
          </Trackpoint>
          <Trackpoint>
            <Time>2022-07-05T10:47:43.000Z</Time>
            <Position>
              <LatitudeDegrees>44.448770172894001007080078125</LatitudeDegrees>
              <LongitudeDegrees>-1.214869357645511627197265625</LongitudeDegrees>
            </Position>
            <AltitudeMeters>43</AltitudeMeters>
            <DistanceMeters>NAN</DistanceMeters>
          </Trackpoint>
          <Trackpoint>
            <Time>2022-07-05T10:47:48.000Z</Time>
            <Position>
              <LatitudeDegrees>44.44885960780084133148193359375</LatitudeDegrees>
              <LongitudeDegrees>-1.2148554436862468719482421875</LongitudeDegrees>
            </Position>
            <AltitudeMeters>43.40000152587890625</AltitudeMeters>
            <DistanceMeters>NAN</DistanceMeters>
          </Trackpoint>
          <Trackpoint>
            <Time>2022-07-05T10:47:49.000Z</Time>
            <Position>
              <LatitudeDegrees>44.44887972436845302581787109375</LatitudeDegrees>
              <LongitudeDegrees>-1.21484345756471157073974609375</LongitudeDegrees>
            </Position>
            <AltitudeMeters>43.40000152587890625</AltitudeMeters>
            <DistanceMeters>NAN</DistanceMeters>
          </Trackpoint>
          <Trackpoint>
            <Time>2022-07-05T10:47:56.000Z</Time>
            <Position>
              <LatitudeDegrees>44.44906194694340229034423828125</LatitudeDegrees>
              <LongitudeDegrees>-1.2147994525730609893798828125</LongitudeDegrees>
            </Position>
            <AltitudeMeters>43.59999847412109375</AltitudeMeters>
            <DistanceMeters>NAN</DistanceMeters>
          </Trackpoint>
          <Trackpoint>
            <Time>2022-07-05T10:47:59.000Z</Time>
            <Position>
              <LatitudeDegrees>44.44916035048663616180419921875</LatitudeDegrees>
              <LongitudeDegrees>-1.21476911008358001708984375</LongitudeDegrees>
            </Position>
            <AltitudeMeters>43.799999237060546875</AltitudeMeters>
            <DistanceMeters>NAN</DistanceMeters>
          </Trackpoint>
          <Trackpoint>
            <Time>2022-07-05T10:48:00.000Z</Time>
            <Position>
              <LatitudeDegrees>44.44918968714773654937744140625</LatitudeDegrees>
              <LongitudeDegrees>-1.21475829742848873138427734375</LongitudeDegrees>
            </Position>
            <AltitudeMeters>44</AltitudeMeters>
            <DistanceMeters>NAN</DistanceMeters>
          </Trackpoint>
          <Trackpoint>
            <Time>2022-07-05T10:48:03.000Z</Time>
            <Position>
              <LatitudeDegrees>44.44929295219480991363525390625</LatitudeDegrees>
              <LongitudeDegrees>-1.2147481553256511688232421875</LongitudeDegrees>
            </Position>
            <AltitudeMeters>44</AltitudeMeters>
            <DistanceMeters>NAN</DistanceMeters>
          </Trackpoint>
          <Trackpoint>
            <Time>2022-07-05T10:48:11.000Z</Time>
            <Position>
              <LatitudeDegrees>44.44961942732334136962890625</LatitudeDegrees>
              <LongitudeDegrees>-1.21473097242414951324462890625</LongitudeDegrees>
            </Position>
            <AltitudeMeters>43.40000152587890625</AltitudeMeters>
            <DistanceMeters>NAN</DistanceMeters>
          </Trackpoint>
          <Trackpoint>
            <Time>2022-07-05T10:48:17.000Z</Time>
            <Position>
              <LatitudeDegrees>44.44986610673367977142333984375</LatitudeDegrees>
              <LongitudeDegrees>-1.2146697007119655609130859375</LongitudeDegrees>
            </Position>
            <AltitudeMeters>42.799999237060546875</AltitudeMeters>
            <DistanceMeters>NAN</DistanceMeters>
          </Trackpoint>
          <Trackpoint>
            <Time>2022-07-05T10:48:18.000Z</Time>
            <Position>
              <LatitudeDegrees>44.449902735650539398193359375</LatitudeDegrees>
              <LongitudeDegrees>-1.21465603820979595184326171875</LongitudeDegrees>
            </Position>
            <AltitudeMeters>42.799999237060546875</AltitudeMeters>
            <DistanceMeters>NAN</DistanceMeters>
          </Trackpoint>
          <Trackpoint>
            <Time>2022-07-05T10:48:24.000Z</Time>
            <Position>
              <LatitudeDegrees>44.45008101873099803924560546875</LatitudeDegrees>
              <LongitudeDegrees>-1.21452846564352512359619140625</LongitudeDegrees>
            </Position>
            <AltitudeMeters>43.200000762939453125</AltitudeMeters>
            <DistanceMeters>NAN</DistanceMeters>
          </Trackpoint>
          <Trackpoint>
            <Time>2022-07-05T10:48:30.000Z</Time>
            <Position>
              <LatitudeDegrees>44.450203478336334228515625</LatitudeDegrees>
              <LongitudeDegrees>-1.21435604989528656005859375</LongitudeDegrees>
            </Position>
            <AltitudeMeters>43.799999237060546875</AltitudeMeters>
            <DistanceMeters>NAN</DistanceMeters>
          </Trackpoint>
          <Trackpoint>
            <Time>2022-07-05T10:48:31.000Z</Time>
            <Position>
              <LatitudeDegrees>44.45022049359977245330810546875</LatitudeDegrees>
              <LongitudeDegrees>-1.21432260610163211822509765625</LongitudeDegrees>
            </Position>
            <AltitudeMeters>43.799999237060546875</AltitudeMeters>
            <DistanceMeters>NAN</DistanceMeters>
          </Trackpoint>
          <Trackpoint>
            <Time>2022-07-05T10:48:37.000Z</Time>
            <Position>
              <LatitudeDegrees>44.45032442919909954071044921875</LatitudeDegrees>
              <LongitudeDegrees>-1.2141376174986362457275390625</LongitudeDegrees>
            </Position>
            <AltitudeMeters>44.40000152587890625</AltitudeMeters>
            <DistanceMeters>NAN</DistanceMeters>
          </Trackpoint>
          <Trackpoint>
            <Time>2022-07-05T10:48:39.000Z</Time>
            <Position>
              <LatitudeDegrees>44.450363405048847198486328125</LatitudeDegrees>
              <LongitudeDegrees>-1.2140729092061519622802734375</LongitudeDegrees>
            </Position>
            <AltitudeMeters>44.40000152587890625</AltitudeMeters>
            <DistanceMeters>NAN</DistanceMeters>
          </Trackpoint>
          <Trackpoint>
            <Time>2022-07-05T10:48:41.000Z</Time>
            <Position>
              <LatitudeDegrees>44.450394921004772186279296875</LatitudeDegrees>
              <LongitudeDegrees>-1.21402555145323276519775390625</LongitudeDegrees>
            </Position>
            <AltitudeMeters>44.59999847412109375</AltitudeMeters>
            <DistanceMeters>NAN</DistanceMeters>
          </Trackpoint>
          <Trackpoint>
            <Time>2022-07-05T10:48:44.000Z</Time>
            <Position>
              <LatitudeDegrees>44.450446553528308868408203125</LatitudeDegrees>
              <LongitudeDegrees>-1.21393200941383838653564453125</LongitudeDegrees>
            </Position>
            <AltitudeMeters>45</AltitudeMeters>
            <DistanceMeters>NAN</DistanceMeters>
          </Trackpoint>
          <Trackpoint>
            <Time>2022-07-05T10:48:47.000Z</Time>
            <Position>
              <LatitudeDegrees>44.45048435591161251068115234375</LatitudeDegrees>
              <LongitudeDegrees>-1.2138761021196842193603515625</LongitudeDegrees>
            </Position>
            <AltitudeMeters>45</AltitudeMeters>
            <DistanceMeters>NAN</DistanceMeters>
          </Trackpoint>
          <Trackpoint>
            <Time>2022-07-05T10:48:50.000Z</Time>
            <Position>
              <LatitudeDegrees>44.45051486603915691375732421875</LatitudeDegrees>
              <LongitudeDegrees>-1.21378733776509761810302734375</LongitudeDegrees>
            </Position>
            <AltitudeMeters>45.40000152587890625</AltitudeMeters>
            <DistanceMeters>NAN</DistanceMeters>
          </Trackpoint>
          <Trackpoint>
            <Time>2022-07-05T10:48:55.000Z</Time>
            <Position>
              <LatitudeDegrees>44.45057890377938747406005859375</LatitudeDegrees>
              <LongitudeDegrees>-1.213667392730712890625</LongitudeDegrees>
            </Position>
            <AltitudeMeters>45.799999237060546875</AltitudeMeters>
            <DistanceMeters>NAN</DistanceMeters>
          </Trackpoint>
          <Trackpoint>
            <Time>2022-07-05T10:48:57.000Z</Time>
            <Position>
              <LatitudeDegrees>44.45061394013464450836181640625</LatitudeDegrees>
              <LongitudeDegrees>-1.2136209569871425628662109375</LongitudeDegrees>
            </Position>
            <AltitudeMeters>46</AltitudeMeters>
            <DistanceMeters>NAN</DistanceMeters>
          </Trackpoint>
          <Trackpoint>
            <Time>2022-07-05T10:49:03.000Z</Time>
            <Position>
              <LatitudeDegrees>44.45071318186819553375244140625</LatitudeDegrees>
              <LongitudeDegrees>-1.2135096453130245208740234375</LongitudeDegrees>
            </Position>
            <AltitudeMeters>46.59999847412109375</AltitudeMeters>
            <DistanceMeters>NAN</DistanceMeters>
          </Trackpoint>
          <Trackpoint>
            <Time>2022-07-05T10:49:13.000Z</Time>
            <Position>
              <LatitudeDegrees>44.45093345828354358673095703125</LatitudeDegrees>
              <LongitudeDegrees>-1.2134278379380702972412109375</LongitudeDegrees>
            </Position>
            <AltitudeMeters>46.799999237060546875</AltitudeMeters>
            <DistanceMeters>NAN</DistanceMeters>
          </Trackpoint>
          <Trackpoint>
            <Time>2022-07-05T10:49:16.000Z</Time>
            <Position>
              <LatitudeDegrees>44.45099950768053531646728515625</LatitudeDegrees>
              <LongitudeDegrees>-1.21339908801019191741943359375</LongitudeDegrees>
            </Position>
            <AltitudeMeters>47</AltitudeMeters>
            <DistanceMeters>NAN</DistanceMeters>
          </Trackpoint>
          <Trackpoint>
            <Time>2022-07-05T10:49:20.000Z</Time>
            <Position>
              <LatitudeDegrees>44.4510770402848720550537109375</LatitudeDegrees>
              <LongitudeDegrees>-1.2133413366973400115966796875</LongitudeDegrees>
            </Position>
            <AltitudeMeters>47.59999847412109375</AltitudeMeters>
            <DistanceMeters>NAN</DistanceMeters>
          </Trackpoint>
          <Trackpoint>
            <Time>2022-07-05T10:49:21.000Z</Time>
            <Position>
              <LatitudeDegrees>44.451092965900897979736328125</LatitudeDegrees>
              <LongitudeDegrees>-1.2133282609283924102783203125</LongitudeDegrees>
            </Position>
            <AltitudeMeters>47.799999237060546875</AltitudeMeters>
            <DistanceMeters>NAN</DistanceMeters>
          </Trackpoint>
          <Trackpoint>
            <Time>2022-07-05T10:49:25.000Z</Time>
            <Position>
              <LatitudeDegrees>44.4511585123836994171142578125</LatitudeDegrees>
              <LongitudeDegrees>-1.21324083767831325531005859375</LongitudeDegrees>
            </Position>
            <AltitudeMeters>48</AltitudeMeters>
            <DistanceMeters>NAN</DistanceMeters>
          </Trackpoint>
          <Trackpoint>
            <Time>2022-07-05T10:49:29.000Z</Time>
            <Position>
              <LatitudeDegrees>44.45121861062943935394287109375</LatitudeDegrees>
              <LongitudeDegrees>-1.21316305361688137054443359375</LongitudeDegrees>
            </Position>
            <AltitudeMeters>48.40000152587890625</AltitudeMeters>
            <DistanceMeters>NAN</DistanceMeters>
          </Trackpoint>
          <Trackpoint>
            <Time>2022-07-05T10:49:33.000Z</Time>
            <Position>
              <LatitudeDegrees>44.45128298364579677581787109375</LatitudeDegrees>
              <LongitudeDegrees>-1.21308024041354656219482421875</LongitudeDegrees>
            </Position>
            <AltitudeMeters>48.59999847412109375</AltitudeMeters>
            <DistanceMeters>NAN</DistanceMeters>
          </Trackpoint>
          <Trackpoint>
            <Time>2022-07-05T10:49:35.000Z</Time>
            <Position>
              <LatitudeDegrees>44.45131433196365833282470703125</LatitudeDegrees>
              <LongitudeDegrees>-1.21304403059184551239013671875</LongitudeDegrees>
            </Position>
            <AltitudeMeters>48.799999237060546875</AltitudeMeters>
            <DistanceMeters>NAN</DistanceMeters>
          </Trackpoint>
          <Trackpoint>
            <Time>2022-07-05T10:49:37.000Z</Time>
            <Position>
              <LatitudeDegrees>44.45135171525180339813232421875</LatitudeDegrees>
              <LongitudeDegrees>-1.21301092207431793212890625</LongitudeDegrees>
            </Position>
            <AltitudeMeters>48.799999237060546875</AltitudeMeters>
            <DistanceMeters>NAN</DistanceMeters>
          </Trackpoint>
          <Trackpoint>
            <Time>2022-07-05T10:49:40.000Z</Time>
            <Position>
              <LatitudeDegrees>44.45140753872692584991455078125</LatitudeDegrees>
              <LongitudeDegrees>-1.21294043026864528656005859375</LongitudeDegrees>
            </Position>
            <AltitudeMeters>49</AltitudeMeters>
            <DistanceMeters>NAN</DistanceMeters>
          </Trackpoint>
          <Trackpoint>
            <Time>2022-07-05T10:49:44.000Z</Time>
            <Position>
              <LatitudeDegrees>44.4514810480177402496337890625</LatitudeDegrees>
              <LongitudeDegrees>-1.21288217604160308837890625</LongitudeDegrees>
            </Position>
            <AltitudeMeters>49.40000152587890625</AltitudeMeters>
            <DistanceMeters>NAN</DistanceMeters>
          </Trackpoint>
          <Trackpoint>
            <Time>2022-07-05T10:49:47.000Z</Time>
            <Position>
              <LatitudeDegrees>44.45154801942408084869384765625</LatitudeDegrees>
              <LongitudeDegrees>-1.2128399312496185302734375</LongitudeDegrees>
            </Position>
            <AltitudeMeters>49.799999237060546875</AltitudeMeters>
            <DistanceMeters>NAN</DistanceMeters>
          </Trackpoint>
          <Trackpoint>
            <Time>2022-07-05T10:49:51.000Z</Time>
            <Position>
              <LatitudeDegrees>44.45162747986614704132080078125</LatitudeDegrees>
              <LongitudeDegrees>-1.2127740494906902313232421875</LongitudeDegrees>
            </Position>
            <AltitudeMeters>49.799999237060546875</AltitudeMeters>
            <DistanceMeters>NAN</DistanceMeters>
          </Trackpoint>
          <Trackpoint>
            <Time>2022-07-05T10:49:57.000Z</Time>
            <Position>
              <LatitudeDegrees>44.451763518154621124267578125</LatitudeDegrees>
              <LongitudeDegrees>-1.21259274892508983612060546875</LongitudeDegrees>
            </Position>
            <AltitudeMeters>49.59999847412109375</AltitudeMeters>
            <DistanceMeters>NAN</DistanceMeters>
          </Trackpoint>
          <Trackpoint>
            <Time>2022-07-05T10:50:03.000Z</Time>
            <Position>
              <LatitudeDegrees>44.45192151702940464019775390625</LatitudeDegrees>
              <LongitudeDegrees>-1.212318576872348785400390625</LongitudeDegrees>
            </Position>
            <AltitudeMeters>49.200000762939453125</AltitudeMeters>
            <DistanceMeters>NAN</DistanceMeters>
          </Trackpoint>
          <Trackpoint>
            <Time>2022-07-05T10:50:06.000Z</Time>
            <Position>
              <LatitudeDegrees>44.45202847011387348175048828125</LatitudeDegrees>
              <LongitudeDegrees>-1.21218237094581127166748046875</LongitudeDegrees>
            </Position>
            <AltitudeMeters>49</AltitudeMeters>
            <DistanceMeters>NAN</DistanceMeters>
          </Trackpoint>
          <Trackpoint>
            <Time>2022-07-05T10:50:09.000Z</Time>
            <Position>
              <LatitudeDegrees>44.452126957476139068603515625</LatitudeDegrees>
              <LongitudeDegrees>-1.21210307814180850982666015625</LongitudeDegrees>
            </Position>
            <AltitudeMeters>49.200000762939453125</AltitudeMeters>
            <DistanceMeters>NAN</DistanceMeters>
          </Trackpoint>
          <Trackpoint>
            <Time>2022-07-05T10:50:11.000Z</Time>
            <Position>
              <LatitudeDegrees>44.45219309069216251373291015625</LatitudeDegrees>
              <LongitudeDegrees>-1.21205203235149383544921875</LongitudeDegrees>
            </Position>
            <AltitudeMeters>49.40000152587890625</AltitudeMeters>
            <DistanceMeters>NAN</DistanceMeters>
          </Trackpoint>
          <Trackpoint>
            <Time>2022-07-05T10:50:15.000Z</Time>
            <Position>
              <LatitudeDegrees>44.45231613703072071075439453125</LatitudeDegrees>
              <LongitudeDegrees>-1.21196259744465351104736328125</LongitudeDegrees>
            </Position>
            <AltitudeMeters>49.40000152587890625</AltitudeMeters>
            <DistanceMeters>NAN</DistanceMeters>
          </Trackpoint>
          <Trackpoint>
            <Time>2022-07-05T10:50:18.000Z</Time>
            <Position>
              <LatitudeDegrees>44.45239660330116748809814453125</LatitudeDegrees>
              <LongitudeDegrees>-1.211870647966861724853515625</LongitudeDegrees>
            </Position>
            <AltitudeMeters>49.59999847412109375</AltitudeMeters>
            <DistanceMeters>NAN</DistanceMeters>
          </Trackpoint>
          <Trackpoint>
            <Time>2022-07-05T10:50:21.000Z</Time>
            <Position>
              <LatitudeDegrees>44.4524766504764556884765625</LatitudeDegrees>
              <LongitudeDegrees>-1.211760342121124267578125</LongitudeDegrees>
            </Position>
            <AltitudeMeters>49.40000152587890625</AltitudeMeters>
            <DistanceMeters>NAN</DistanceMeters>
          </Trackpoint>
          <Trackpoint>
            <Time>2022-07-05T10:50:26.000Z</Time>
            <Position>
              <LatitudeDegrees>44.452563822269439697265625</LatitudeDegrees>
              <LongitudeDegrees>-1.21167526580393314361572265625</LongitudeDegrees>
            </Position>
            <AltitudeMeters>49.799999237060546875</AltitudeMeters>
            <DistanceMeters>NAN</DistanceMeters>
          </Trackpoint>
          <Trackpoint>
            <Time>2022-07-05T10:50:30.000Z</Time>
            <Position>
              <LatitudeDegrees>44.45262358523905277252197265625</LatitudeDegrees>
              <LongitudeDegrees>-1.2116394750773906707763671875</LongitudeDegrees>
            </Position>
            <AltitudeMeters>50.200000762939453125</AltitudeMeters>
            <DistanceMeters>NAN</DistanceMeters>
          </Trackpoint>
          <Trackpoint>
            <Time>2022-07-05T10:50:32.000Z</Time>
            <Position>
              <LatitudeDegrees>44.452669434249401092529296875</LatitudeDegrees>
              <LongitudeDegrees>-1.21161617338657379150390625</LongitudeDegrees>
            </Position>
            <AltitudeMeters>50.40000152587890625</AltitudeMeters>
            <DistanceMeters>NAN</DistanceMeters>
          </Trackpoint>
          <Trackpoint>
            <Time>2022-07-05T10:50:37.000Z</Time>
            <Position>
              <LatitudeDegrees>44.45273590274155139923095703125</LatitudeDegrees>
              <LongitudeDegrees>-1.21144761331379413604736328125</LongitudeDegrees>
            </Position>
            <AltitudeMeters>50.59999847412109375</AltitudeMeters>
            <DistanceMeters>NAN</DistanceMeters>
          </Trackpoint>
          <Trackpoint>
            <Time>2022-07-05T10:50:44.000Z</Time>
            <Position>
              <LatitudeDegrees>44.4527527503669261932373046875</LatitudeDegrees>
              <LongitudeDegrees>-1.21119045652449131011962890625</LongitudeDegrees>
            </Position>
            <AltitudeMeters>50.799999237060546875</AltitudeMeters>
            <DistanceMeters>NAN</DistanceMeters>
          </Trackpoint>
          <Trackpoint>
            <Time>2022-07-05T10:50:51.000Z</Time>
            <Position>
              <LatitudeDegrees>44.4528147764503955841064453125</LatitudeDegrees>
              <LongitudeDegrees>-1.21091284789144992828369140625</LongitudeDegrees>
            </Position>
            <AltitudeMeters>50.59999847412109375</AltitudeMeters>
            <DistanceMeters>NAN</DistanceMeters>
          </Trackpoint>
          <Trackpoint>
            <Time>2022-07-05T10:50:58.000Z</Time>
            <Position>
              <LatitudeDegrees>44.4529418461024761199951171875</LatitudeDegrees>
              <LongitudeDegrees>-1.2106661684811115264892578125</LongitudeDegrees>
            </Position>
            <AltitudeMeters>50.59999847412109375</AltitudeMeters>
            <DistanceMeters>NAN</DistanceMeters>
          </Trackpoint>
          <Trackpoint>
            <Time>2022-07-05T10:51:03.000Z</Time>
            <Position>
              <LatitudeDegrees>44.4530373997986316680908203125</LatitudeDegrees>
              <LongitudeDegrees>-1.21059827506542205810546875</LongitudeDegrees>
            </Position>
            <AltitudeMeters>51.200000762939453125</AltitudeMeters>
            <DistanceMeters>NAN</DistanceMeters>
          </Trackpoint>
          <Trackpoint>
            <Time>2022-07-05T10:51:06.000Z</Time>
            <Position>
              <LatitudeDegrees>44.4530935585498809814453125</LatitudeDegrees>
              <LongitudeDegrees>-1.21060942299664020538330078125</LongitudeDegrees>
            </Position>
            <AltitudeMeters>51.200000762939453125</AltitudeMeters>
            <DistanceMeters>NAN</DistanceMeters>
          </Trackpoint>
          <Trackpoint>
            <Time>2022-07-05T10:51:08.000Z</Time>
            <Position>
              <LatitudeDegrees>44.45314778946340084075927734375</LatitudeDegrees>
              <LongitudeDegrees>-1.21062166057527065277099609375</LongitudeDegrees>
            </Position>
            <AltitudeMeters>51.200000762939453125</AltitudeMeters>
            <DistanceMeters>NAN</DistanceMeters>
          </Trackpoint>
          <Trackpoint>
            <Time>2022-07-05T10:51:15.000Z</Time>
            <Position>
              <LatitudeDegrees>44.4532915391027927398681640625</LatitudeDegrees>
              <LongitudeDegrees>-1.21069424785673618316650390625</LongitudeDegrees>
            </Position>
            <AltitudeMeters>52</AltitudeMeters>
            <DistanceMeters>NAN</DistanceMeters>
          </Trackpoint>
          <Trackpoint>
            <Time>2022-07-05T10:51:17.000Z</Time>
            <Position>
              <LatitudeDegrees>44.4533277489244937896728515625</LatitudeDegrees>
              <LongitudeDegrees>-1.21072006411850452423095703125</LongitudeDegrees>
            </Position>
            <AltitudeMeters>52.40000152587890625</AltitudeMeters>
            <DistanceMeters>NAN</DistanceMeters>
          </Trackpoint>
          <Trackpoint>
            <Time>2022-07-05T10:51:20.000Z</Time>
            <Position>
              <LatitudeDegrees>44.45339505560696125030517578125</LatitudeDegrees>
              <LongitudeDegrees>-1.21074973605573177337646484375</LongitudeDegrees>
            </Position>
            <AltitudeMeters>52.59999847412109375</AltitudeMeters>
            <DistanceMeters>NAN</DistanceMeters>
          </Trackpoint>
          <Trackpoint>
            <Time>2022-07-05T10:51:27.000Z</Time>
            <Position>
              <LatitudeDegrees>44.4535818882286548614501953125</LatitudeDegrees>
              <LongitudeDegrees>-1.2107523344457149505615234375</LongitudeDegrees>
            </Position>
            <AltitudeMeters>53</AltitudeMeters>
            <DistanceMeters>NAN</DistanceMeters>
          </Trackpoint>
          <Trackpoint>
            <Time>2022-07-05T10:51:31.000Z</Time>
            <Position>
              <LatitudeDegrees>44.453697390854358673095703125</LatitudeDegrees>
              <LongitudeDegrees>-1.2107156217098236083984375</LongitudeDegrees>
            </Position>
            <AltitudeMeters>53</AltitudeMeters>
            <DistanceMeters>NAN</DistanceMeters>
          </Trackpoint>
          <Trackpoint>
            <Time>2022-07-05T10:51:34.000Z</Time>
            <Position>
              <LatitudeDegrees>44.45379135198891162872314453125</LatitudeDegrees>
              <LongitudeDegrees>-1.2106490693986415863037109375</LongitudeDegrees>
            </Position>
            <AltitudeMeters>53.200000762939453125</AltitudeMeters>
            <DistanceMeters>NAN</DistanceMeters>
          </Trackpoint>
          <Trackpoint>
            <Time>2022-07-05T10:51:35.000Z</Time>
            <Position>
              <LatitudeDegrees>44.4538058526813983917236328125</LatitudeDegrees>
              <LongitudeDegrees>-1.21063725091516971588134765625</LongitudeDegrees>
            </Position>
            <AltitudeMeters>53.40000152587890625</AltitudeMeters>
            <DistanceMeters>NAN</DistanceMeters>
          </Trackpoint>
          <Trackpoint>
            <Time>2022-07-05T10:51:41.000Z</Time>
            <Position>
              <LatitudeDegrees>44.4539845548570156097412109375</LatitudeDegrees>
              <LongitudeDegrees>-1.21058461256325244903564453125</LongitudeDegrees>
            </Position>
            <AltitudeMeters>53.799999237060546875</AltitudeMeters>
            <DistanceMeters>NAN</DistanceMeters>
          </Trackpoint>
          <Trackpoint>
            <Time>2022-07-05T10:51:46.000Z</Time>
            <Position>
              <LatitudeDegrees>44.45410072803497314453125</LatitudeDegrees>
              <LongitudeDegrees>-1.21054991148412227630615234375</LongitudeDegrees>
            </Position>
            <AltitudeMeters>54.200000762939453125</AltitudeMeters>
            <DistanceMeters>NAN</DistanceMeters>
          </Trackpoint>
          <Trackpoint>
            <Time>2022-07-05T10:51:47.000Z</Time>
            <Position>
              <LatitudeDegrees>44.45412126369774341583251953125</LatitudeDegrees>
              <LongitudeDegrees>-1.21056349016726016998291015625</LongitudeDegrees>
            </Position>
            <AltitudeMeters>54.40000152587890625</AltitudeMeters>
            <DistanceMeters>NAN</DistanceMeters>
          </Trackpoint>
          <Trackpoint>
            <Time>2022-07-05T10:51:53.000Z</Time>
            <Position>
              <LatitudeDegrees>44.454235844314098358154296875</LatitudeDegrees>
              <LongitudeDegrees>-1.21067279018461704254150390625</LongitudeDegrees>
            </Position>
            <AltitudeMeters>54.799999237060546875</AltitudeMeters>
            <DistanceMeters>NAN</DistanceMeters>
          </Trackpoint>
          <Trackpoint>
            <Time>2022-07-05T10:51:54.000Z</Time>
            <Position>
              <LatitudeDegrees>44.45424665696918964385986328125</LatitudeDegrees>
              <LongitudeDegrees>-1.21069139800965785980224609375</LongitudeDegrees>
            </Position>
            <AltitudeMeters>54.799999237060546875</AltitudeMeters>
            <DistanceMeters>NAN</DistanceMeters>
          </Trackpoint>
          <Trackpoint>
            <Time>2022-07-05T10:52:02.000Z</Time>
            <Position>
              <LatitudeDegrees>44.454367272555828094482421875</LatitudeDegrees>
              <LongitudeDegrees>-1.2108824215829372406005859375</LongitudeDegrees>
            </Position>
            <AltitudeMeters>55.200000762939453125</AltitudeMeters>
            <DistanceMeters>NAN</DistanceMeters>
          </Trackpoint>
          <Trackpoint>
            <Time>2022-07-05T10:52:05.000Z</Time>
            <Position>
              <LatitudeDegrees>44.45444564335048198699951171875</LatitudeDegrees>
              <LongitudeDegrees>-1.21096037328243255615234375</LongitudeDegrees>
            </Position>
            <AltitudeMeters>55.40000152587890625</AltitudeMeters>
            <DistanceMeters>NAN</DistanceMeters>
          </Trackpoint>
          <Trackpoint>
            <Time>2022-07-05T10:52:07.000Z</Time>
            <Position>
              <LatitudeDegrees>44.45447959005832672119140625</LatitudeDegrees>
              <LongitudeDegrees>-1.211008988320827484130859375</LongitudeDegrees>
            </Position>
            <AltitudeMeters>55.59999847412109375</AltitudeMeters>
            <DistanceMeters>NAN</DistanceMeters>
          </Trackpoint>
          <Trackpoint>
            <Time>2022-07-05T10:52:14.000Z</Time>
            <Position>
              <LatitudeDegrees>44.454610347747802734375</LatitudeDegrees>
              <LongitudeDegrees>-1.21114586479961872100830078125</LongitudeDegrees>
            </Position>
            <AltitudeMeters>56</AltitudeMeters>
            <DistanceMeters>NAN</DistanceMeters>
          </Trackpoint>
          <Trackpoint>
            <Time>2022-07-05T10:52:22.000Z</Time>
            <Position>
              <LatitudeDegrees>44.45479215122759342193603515625</LatitudeDegrees>
              <LongitudeDegrees>-1.21125407516956329345703125</LongitudeDegrees>
            </Position>
            <AltitudeMeters>56.40000152587890625</AltitudeMeters>
            <DistanceMeters>NAN</DistanceMeters>
          </Trackpoint>
          <Trackpoint>
            <Time>2022-07-05T10:52:25.000Z</Time>
            <Position>
              <LatitudeDegrees>44.454864822328090667724609375</LatitudeDegrees>
              <LongitudeDegrees>-1.211291290819644927978515625</LongitudeDegrees>
            </Position>
            <AltitudeMeters>56.40000152587890625</AltitudeMeters>
            <DistanceMeters>NAN</DistanceMeters>
          </Trackpoint>
          <Trackpoint>
            <Time>2022-07-05T10:52:31.000Z</Time>
            <Position>
              <LatitudeDegrees>44.455015361309051513671875</LatitudeDegrees>
              <LongitudeDegrees>-1.21137871406972408294677734375</LongitudeDegrees>
            </Position>
            <AltitudeMeters>56.59999847412109375</AltitudeMeters>
            <DistanceMeters>NAN</DistanceMeters>
          </Trackpoint>
          <Trackpoint>
            <Time>2022-07-05T10:52:37.000Z</Time>
            <Position>
              <LatitudeDegrees>44.45516129024326801300048828125</LatitudeDegrees>
              <LongitudeDegrees>-1.2114326097071170806884765625</LongitudeDegrees>
            </Position>
            <AltitudeMeters>57</AltitudeMeters>
            <DistanceMeters>NAN</DistanceMeters>
          </Trackpoint>
          <Trackpoint>
            <Time>2022-07-05T10:52:43.000Z</Time>
            <Position>
              <LatitudeDegrees>44.45532356388866901397705078125</LatitudeDegrees>
              <LongitudeDegrees>-1.21135222725570201873779296875</LongitudeDegrees>
            </Position>
            <AltitudeMeters>57.200000762939453125</AltitudeMeters>
            <DistanceMeters>NAN</DistanceMeters>
          </Trackpoint>
          <Trackpoint>
            <Time>2022-07-05T10:52:44.000Z</Time>
            <Position>
              <LatitudeDegrees>44.455343596637248992919921875</LatitudeDegrees>
              <LongitudeDegrees>-1.21132976375520229339599609375</LongitudeDegrees>
            </Position>
            <AltitudeMeters>57.200000762939453125</AltitudeMeters>
            <DistanceMeters>NAN</DistanceMeters>
          </Trackpoint>
          <Trackpoint>
            <Time>2022-07-05T10:52:45.000Z</Time>
            <Position>
              <LatitudeDegrees>44.45536480285227298736572265625</LatitudeDegrees>
              <LongitudeDegrees>-1.21130629442632198333740234375</LongitudeDegrees>
            </Position>
            <AltitudeMeters>57.200000762939453125</AltitudeMeters>
            <DistanceMeters>NAN</DistanceMeters>
          </Trackpoint>
          <Trackpoint>
            <Time>2022-07-05T10:52:49.000Z</Time>
            <Position>
              <LatitudeDegrees>44.4554768688976764678955078125</LatitudeDegrees>
              <LongitudeDegrees>-1.21121023781597614288330078125</LongitudeDegrees>
            </Position>
            <AltitudeMeters>57.40000152587890625</AltitudeMeters>
            <DistanceMeters>NAN</DistanceMeters>
          </Trackpoint>
          <Trackpoint>
            <Time>2022-07-05T10:52:50.000Z</Time>
            <Position>
              <LatitudeDegrees>44.45551131851971149444580078125</LatitudeDegrees>
              <LongitudeDegrees>-1.21119749732315540313720703125</LongitudeDegrees>
            </Position>
            <AltitudeMeters>57.40000152587890625</AltitudeMeters>
            <DistanceMeters>NAN</DistanceMeters>
          </Trackpoint>
          <Trackpoint>
            <Time>2022-07-05T10:52:52.000Z</Time>
            <Position>
              <LatitudeDegrees>44.45556948892772197723388671875</LatitudeDegrees>
              <LongitudeDegrees>-1.21119833551347255706787109375</LongitudeDegrees>
            </Position>
            <AltitudeMeters>57.200000762939453125</AltitudeMeters>
            <DistanceMeters>NAN</DistanceMeters>
          </Trackpoint>
          <Trackpoint>
            <Time>2022-07-05T10:52:54.000Z</Time>
            <Position>
              <LatitudeDegrees>44.45559136569499969482421875</LatitudeDegrees>
              <LongitudeDegrees>-1.211257763206958770751953125</LongitudeDegrees>
            </Position>
            <AltitudeMeters>57.40000152587890625</AltitudeMeters>
            <DistanceMeters>NAN</DistanceMeters>
          </Trackpoint>
          <Trackpoint>
            <Time>2022-07-05T10:52:59.000Z</Time>
            <Position>
              <LatitudeDegrees>44.45562422275543212890625</LatitudeDegrees>
              <LongitudeDegrees>-1.2114222161471843719482421875</LongitudeDegrees>
            </Position>
            <AltitudeMeters>57.40000152587890625</AltitudeMeters>
            <DistanceMeters>NAN</DistanceMeters>
          </Trackpoint>
          <Trackpoint>
            <Time>2022-07-05T10:53:01.000Z</Time>
            <Position>
              <LatitudeDegrees>44.45563319139182567596435546875</LatitudeDegrees>
              <LongitudeDegrees>-1.211505867540836334228515625</LongitudeDegrees>
            </Position>
            <AltitudeMeters>57.40000152587890625</AltitudeMeters>
            <DistanceMeters>NAN</DistanceMeters>
          </Trackpoint>
          <Trackpoint>
            <Time>2022-07-05T10:53:08.000Z</Time>
            <Position>
              <LatitudeDegrees>44.45567074231803417205810546875</LatitudeDegrees>
              <LongitudeDegrees>-1.21186620555818080902099609375</LongitudeDegrees>
            </Position>
            <AltitudeMeters>57.200000762939453125</AltitudeMeters>
            <DistanceMeters>NAN</DistanceMeters>
          </Trackpoint>
          <Trackpoint>
            <Time>2022-07-05T10:53:15.000Z</Time>
            <Position>
              <LatitudeDegrees>44.4557256437838077545166015625</LatitudeDegrees>
              <LongitudeDegrees>-1.2121279723942279815673828125</LongitudeDegrees>
            </Position>
            <AltitudeMeters>56.799999237060546875</AltitudeMeters>
            <DistanceMeters>NAN</DistanceMeters>
          </Trackpoint>
          <Trackpoint>
            <Time>2022-07-05T10:53:19.000Z</Time>
            <Position>
              <LatitudeDegrees>44.45576713420450687408447265625</LatitudeDegrees>
              <LongitudeDegrees>-1.21236878447234630584716796875</LongitudeDegrees>
            </Position>
            <AltitudeMeters>56.40000152587890625</AltitudeMeters>
            <DistanceMeters>NAN</DistanceMeters>
          </Trackpoint>
          <Trackpoint>
            <Time>2022-07-05T10:53:20.000Z</Time>
            <Position>
              <LatitudeDegrees>44.45579119026660919189453125</LatitudeDegrees>
              <LongitudeDegrees>-1.21243148110806941986083984375</LongitudeDegrees>
            </Position>
            <AltitudeMeters>56.40000152587890625</AltitudeMeters>
            <DistanceMeters>NAN</DistanceMeters>
          </Trackpoint>
          <Trackpoint>
            <Time>2022-07-05T10:53:25.000Z</Time>
            <Position>
              <LatitudeDegrees>44.45595002733170986175537109375</LatitudeDegrees>
              <LongitudeDegrees>-1.212597191333770751953125</LongitudeDegrees>
            </Position>
            <AltitudeMeters>56.40000152587890625</AltitudeMeters>
            <DistanceMeters>NAN</DistanceMeters>
          </Trackpoint>
          <Trackpoint>
            <Time>2022-07-05T10:53:27.000Z</Time>
            <Position>
              <LatitudeDegrees>44.4560069404542446136474609375</LatitudeDegrees>
              <LongitudeDegrees>-1.2125859595835208892822265625</LongitudeDegrees>
            </Position>
            <AltitudeMeters>56.200000762939453125</AltitudeMeters>
            <DistanceMeters>NAN</DistanceMeters>
          </Trackpoint>
          <Trackpoint>
            <Time>2022-07-05T10:53:29.000Z</Time>
            <Position>
              <LatitudeDegrees>44.45608514361083507537841796875</LatitudeDegrees>
              <LongitudeDegrees>-1.21250339783728122711181640625</LongitudeDegrees>
            </Position>
            <AltitudeMeters>56</AltitudeMeters>
            <DistanceMeters>NAN</DistanceMeters>
          </Trackpoint>
          <Trackpoint>
            <Time>2022-07-05T10:53:32.000Z</Time>
            <Position>
              <LatitudeDegrees>44.45617181248962879180908203125</LatitudeDegrees>
              <LongitudeDegrees>-1.21240348555147647857666015625</LongitudeDegrees>
            </Position>
            <AltitudeMeters>56</AltitudeMeters>
            <DistanceMeters>NAN</DistanceMeters>
          </Trackpoint>
          <Trackpoint>
            <Time>2022-07-05T10:53:33.000Z</Time>
            <Position>
              <LatitudeDegrees>44.45619083940982818603515625</LatitudeDegrees>
              <LongitudeDegrees>-1.21236559934914112091064453125</LongitudeDegrees>
            </Position>
            <AltitudeMeters>56</AltitudeMeters>
            <DistanceMeters>NAN</DistanceMeters>
          </Trackpoint>
          <Trackpoint>
            <Time>2022-07-05T10:53:39.000Z</Time>
            <Position>
              <LatitudeDegrees>44.456311874091625213623046875</LatitudeDegrees>
              <LongitudeDegrees>-1.21208715252578258514404296875</LongitudeDegrees>
            </Position>
            <AltitudeMeters>56</AltitudeMeters>
            <DistanceMeters>NAN</DistanceMeters>
          </Trackpoint>
          <Trackpoint>
            <Time>2022-07-05T10:53:42.000Z</Time>
            <Position>
              <LatitudeDegrees>44.45641270838677883148193359375</LatitudeDegrees>
              <LongitudeDegrees>-1.2119589932262897491455078125</LongitudeDegrees>
            </Position>
            <AltitudeMeters>55.799999237060546875</AltitudeMeters>
            <DistanceMeters>NAN</DistanceMeters>
          </Trackpoint>
          <Trackpoint>
            <Time>2022-07-05T10:53:45.000Z</Time>
            <Position>
              <LatitudeDegrees>44.45648428983986377716064453125</LatitudeDegrees>
              <LongitudeDegrees>-1.21187098324298858642578125</LongitudeDegrees>
            </Position>
            <AltitudeMeters>55.59999847412109375</AltitudeMeters>
            <DistanceMeters>NAN</DistanceMeters>
          </Trackpoint>
          <Trackpoint>
            <Time>2022-07-05T10:53:48.000Z</Time>
            <Position>
              <LatitudeDegrees>44.45658705197274684906005859375</LatitudeDegrees>
              <LongitudeDegrees>-1.2118835560977458953857421875</LongitudeDegrees>
            </Position>
            <AltitudeMeters>55.40000152587890625</AltitudeMeters>
            <DistanceMeters>NAN</DistanceMeters>
          </Trackpoint>
          <Trackpoint>
            <Time>2022-07-05T10:53:49.000Z</Time>
            <Position>
              <LatitudeDegrees>44.45663717575371265411376953125</LatitudeDegrees>
              <LongitudeDegrees>-1.2119038403034210205078125</LongitudeDegrees>
            </Position>
            <AltitudeMeters>55.200000762939453125</AltitudeMeters>
            <DistanceMeters>NAN</DistanceMeters>
          </Trackpoint>
          <Trackpoint>
            <Time>2022-07-05T10:53:57.000Z</Time>
            <Position>
              <LatitudeDegrees>44.45697949267923831939697265625</LatitudeDegrees>
              <LongitudeDegrees>-1.212070472538471221923828125</LongitudeDegrees>
            </Position>
            <AltitudeMeters>55</AltitudeMeters>
            <DistanceMeters>NAN</DistanceMeters>
          </Trackpoint>
          <Trackpoint>
            <Time>2022-07-05T10:53:58.000Z</Time>
            <Position>
              <LatitudeDegrees>44.45701670832931995391845703125</LatitudeDegrees>
              <LongitudeDegrees>-1.21209737844765186309814453125</LongitudeDegrees>
            </Position>
            <AltitudeMeters>54.799999237060546875</AltitudeMeters>
            <DistanceMeters>NAN</DistanceMeters>
          </Trackpoint>
          <Trackpoint>
            <Time>2022-07-05T10:54:02.000Z</Time>
            <Position>
              <LatitudeDegrees>44.4571633078157901763916015625</LatitudeDegrees>
              <LongitudeDegrees>-1.2121350131928920745849609375</LongitudeDegrees>
            </Position>
            <AltitudeMeters>54.799999237060546875</AltitudeMeters>
            <DistanceMeters>NAN</DistanceMeters>
          </Trackpoint>
          <Trackpoint>
            <Time>2022-07-05T10:54:06.000Z</Time>
            <Position>
              <LatitudeDegrees>44.457292892038822174072265625</LatitudeDegrees>
              <LongitudeDegrees>-1.212135851383209228515625</LongitudeDegrees>
            </Position>
            <AltitudeMeters>55</AltitudeMeters>
            <DistanceMeters>NAN</DistanceMeters>
          </Trackpoint>
          <Trackpoint>
            <Time>2022-07-05T10:54:08.000Z</Time>
            <Position>
              <LatitudeDegrees>44.4573473744094371795654296875</LatitudeDegrees>
              <LongitudeDegrees>-1.21216091327369213104248046875</LongitudeDegrees>
            </Position>
            <AltitudeMeters>55</AltitudeMeters>
            <DistanceMeters>NAN</DistanceMeters>
          </Trackpoint>
          <Trackpoint>
            <Time>2022-07-05T10:54:15.000Z</Time>
            <Position>
              <LatitudeDegrees>44.4576186127960681915283203125</LatitudeDegrees>
              <LongitudeDegrees>-1.21216845698654651641845703125</LongitudeDegrees>
            </Position>
            <AltitudeMeters>54.799999237060546875</AltitudeMeters>
            <DistanceMeters>NAN</DistanceMeters>
          </Trackpoint>
          <Trackpoint>
            <Time>2022-07-05T10:54:20.000Z</Time>
            <Position>
              <LatitudeDegrees>44.4577981531620025634765625</LatitudeDegrees>
              <LongitudeDegrees>-1.21196242980659008026123046875</LongitudeDegrees>
            </Position>
            <AltitudeMeters>54.799999237060546875</AltitudeMeters>
            <DistanceMeters>NAN</DistanceMeters>
          </Trackpoint>
          <Trackpoint>
            <Time>2022-07-05T10:54:24.000Z</Time>
            <Position>
              <LatitudeDegrees>44.4579092971980571746826171875</LatitudeDegrees>
              <LongitudeDegrees>-1.2117469310760498046875</LongitudeDegrees>
            </Position>
            <AltitudeMeters>54.59999847412109375</AltitudeMeters>
            <DistanceMeters>NAN</DistanceMeters>
          </Trackpoint>
          <Trackpoint>
            <Time>2022-07-05T10:54:27.000Z</Time>
            <Position>
              <LatitudeDegrees>44.45800376124680042266845703125</LatitudeDegrees>
              <LongitudeDegrees>-1.211580969393253326416015625</LongitudeDegrees>
            </Position>
            <AltitudeMeters>54.40000152587890625</AltitudeMeters>
            <DistanceMeters>NAN</DistanceMeters>
          </Trackpoint>
          <Trackpoint>
            <Time>2022-07-05T10:54:28.000Z</Time>
            <Position>
              <LatitudeDegrees>44.45804013870656490325927734375</LatitudeDegrees>
              <LongitudeDegrees>-1.211520619690418243408203125</LongitudeDegrees>
            </Position>
            <AltitudeMeters>54.200000762939453125</AltitudeMeters>
            <DistanceMeters>NAN</DistanceMeters>
          </Trackpoint>
          <Trackpoint>
            <Time>2022-07-05T10:54:29.000Z</Time>
            <Position>
              <LatitudeDegrees>44.45807366631925106048583984375</LatitudeDegrees>
              <LongitudeDegrees>-1.2114585936069488525390625</LongitudeDegrees>
            </Position>
            <AltitudeMeters>54.200000762939453125</AltitudeMeters>
            <DistanceMeters>NAN</DistanceMeters>
          </Trackpoint>
          <Trackpoint>
            <Time>2022-07-05T10:54:32.000Z</Time>
            <Position>
              <LatitudeDegrees>44.45816083811223506927490234375</LatitudeDegrees>
              <LongitudeDegrees>-1.2112897820770740509033203125</LongitudeDegrees>
            </Position>
            <AltitudeMeters>54</AltitudeMeters>
            <DistanceMeters>NAN</DistanceMeters>
          </Trackpoint>
          <Trackpoint>
            <Time>2022-07-05T10:54:34.000Z</Time>
            <Position>
              <LatitudeDegrees>44.45819637738168239593505859375</LatitudeDegrees>
              <LongitudeDegrees>-1.21118299663066864013671875</LongitudeDegrees>
            </Position>
            <AltitudeMeters>54</AltitudeMeters>
            <DistanceMeters>NAN</DistanceMeters>
          </Trackpoint>
          <Trackpoint>
            <Time>2022-07-05T10:54:36.000Z</Time>
            <Position>
              <LatitudeDegrees>44.45821196772158145904541015625</LatitudeDegrees>
              <LongitudeDegrees>-1.21106632053852081298828125</LongitudeDegrees>
            </Position>
            <AltitudeMeters>53.799999237060546875</AltitudeMeters>
            <DistanceMeters>NAN</DistanceMeters>
          </Trackpoint>
          <Trackpoint>
            <Time>2022-07-05T10:54:38.000Z</Time>
            <Position>
              <LatitudeDegrees>44.458239376544952392578125</LatitudeDegrees>
              <LongitudeDegrees>-1.210944950580596923828125</LongitudeDegrees>
            </Position>
            <AltitudeMeters>53.799999237060546875</AltitudeMeters>
            <DistanceMeters>NAN</DistanceMeters>
          </Trackpoint>
          <Trackpoint>
            <Time>2022-07-05T10:54:39.000Z</Time>
            <Position>
              <LatitudeDegrees>44.45825505070388317108154296875</LatitudeDegrees>
              <LongitudeDegrees>-1.21088636107742786407470703125</LongitudeDegrees>
            </Position>
            <AltitudeMeters>53.799999237060546875</AltitudeMeters>
            <DistanceMeters>NAN</DistanceMeters>
          </Trackpoint>
          <Trackpoint>
            <Time>2022-07-05T10:54:41.000Z</Time>
            <Position>
              <LatitudeDegrees>44.45828354917466640472412109375</LatitudeDegrees>
              <LongitudeDegrees>-1.21076582930982112884521484375</LongitudeDegrees>
            </Position>
            <AltitudeMeters>53.799999237060546875</AltitudeMeters>
            <DistanceMeters>NAN</DistanceMeters>
          </Trackpoint>
          <Trackpoint>
            <Time>2022-07-05T10:54:43.000Z</Time>
            <Position>
              <LatitudeDegrees>44.4583173282444477081298828125</LatitudeDegrees>
              <LongitudeDegrees>-1.21067178435623645782470703125</LongitudeDegrees>
            </Position>
            <AltitudeMeters>53.799999237060546875</AltitudeMeters>
            <DistanceMeters>NAN</DistanceMeters>
          </Trackpoint>
          <Trackpoint>
            <Time>2022-07-05T10:54:44.000Z</Time>
            <Position>
              <LatitudeDegrees>44.4583173282444477081298828125</LatitudeDegrees>
              <LongitudeDegrees>-1.21067178435623645782470703125</LongitudeDegrees>
            </Position>
            <AltitudeMeters>53.799999237060546875</AltitudeMeters>
            <DistanceMeters>NAN</DistanceMeters>
          </Trackpoint>
          <Trackpoint>
            <Time>2022-07-05T10:54:45.000Z</Time>
            <Position>
              <LatitudeDegrees>44.45836418308317661285400390625</LatitudeDegrees>
              <LongitudeDegrees>-1.21058695949614048004150390625</LongitudeDegrees>
            </Position>
            <AltitudeMeters>53.799999237060546875</AltitudeMeters>
            <DistanceMeters>NAN</DistanceMeters>
          </Trackpoint>
          <Trackpoint>
            <Time>2022-07-05T10:54:51.000Z</Time>
            <Position>
              <LatitudeDegrees>44.45853098295629024505615234375</LatitudeDegrees>
              <LongitudeDegrees>-1.21029728092253208160400390625</LongitudeDegrees>
            </Position>
            <AltitudeMeters>53.799999237060546875</AltitudeMeters>
            <DistanceMeters>NAN</DistanceMeters>
          </Trackpoint>
          <Trackpoint>
            <Time>2022-07-05T10:54:56.000Z</Time>
            <Position>
              <LatitudeDegrees>44.45859200321137905120849609375</LatitudeDegrees>
              <LongitudeDegrees>-1.21002855710685253143310546875</LongitudeDegrees>
            </Position>
            <AltitudeMeters>53.40000152587890625</AltitudeMeters>
            <DistanceMeters>NAN</DistanceMeters>
          </Trackpoint>
          <Trackpoint>
            <Time>2022-07-05T10:54:57.000Z</Time>
            <Position>
              <LatitudeDegrees>44.45860792882740497589111328125</LatitudeDegrees>
              <LongitudeDegrees>-1.20997172780334949493408203125</LongitudeDegrees>
            </Position>
            <AltitudeMeters>53.40000152587890625</AltitudeMeters>
            <DistanceMeters>NAN</DistanceMeters>
          </Trackpoint>
          <Trackpoint>
            <Time>2022-07-05T10:55:05.000Z</Time>
            <Position>
              <LatitudeDegrees>44.45867598988115787506103515625</LatitudeDegrees>
              <LongitudeDegrees>-1.20955883525311946868896484375</LongitudeDegrees>
            </Position>
            <AltitudeMeters>53.200000762939453125</AltitudeMeters>
            <DistanceMeters>NAN</DistanceMeters>
          </Trackpoint>
          <Trackpoint>
            <Time>2022-07-05T10:55:08.000Z</Time>
            <Position>
              <LatitudeDegrees>44.45868168957531452178955078125</LatitudeDegrees>
              <LongitudeDegrees>-1.209389604628086090087890625</LongitudeDegrees>
            </Position>
            <AltitudeMeters>53.40000152587890625</AltitudeMeters>
            <DistanceMeters>NAN</DistanceMeters>
          </Trackpoint>
          <Trackpoint>
            <Time>2022-07-05T10:55:12.000Z</Time>
            <Position>
              <LatitudeDegrees>44.45869862101972103118896484375</LatitudeDegrees>
              <LongitudeDegrees>-1.20913353748619556427001953125</LongitudeDegrees>
            </Position>
            <AltitudeMeters>53.200000762939453125</AltitudeMeters>
            <DistanceMeters>NAN</DistanceMeters>
          </Trackpoint>
          <Trackpoint>
            <Time>2022-07-05T10:55:14.000Z</Time>
            <Position>
              <LatitudeDegrees>44.45869174785912036895751953125</LatitudeDegrees>
              <LongitudeDegrees>-1.20903027243912220001220703125</LongitudeDegrees>
            </Position>
            <AltitudeMeters>53.200000762939453125</AltitudeMeters>
            <DistanceMeters>NAN</DistanceMeters>
          </Trackpoint>
          <Trackpoint>
            <Time>2022-07-05T10:55:18.000Z</Time>
            <Position>
              <LatitudeDegrees>44.45864246226847171783447265625</LatitudeDegrees>
              <LongitudeDegrees>-1.2088286876678466796875</LongitudeDegrees>
            </Position>
            <AltitudeMeters>53.200000762939453125</AltitudeMeters>
            <DistanceMeters>NAN</DistanceMeters>
          </Trackpoint>
          <Trackpoint>
            <Time>2022-07-05T10:55:20.000Z</Time>
            <Position>
              <LatitudeDegrees>44.45865302346646785736083984375</LatitudeDegrees>
              <LongitudeDegrees>-1.20874218642711639404296875</LongitudeDegrees>
            </Position>
            <AltitudeMeters>53.200000762939453125</AltitudeMeters>
            <DistanceMeters>NAN</DistanceMeters>
          </Trackpoint>
          <Trackpoint>
            <Time>2022-07-05T10:55:21.000Z</Time>
            <Position>
              <LatitudeDegrees>44.45867196656763553619384765625</LatitudeDegrees>
              <LongitudeDegrees>-1.20871846564114093780517578125</LongitudeDegrees>
            </Position>
            <AltitudeMeters>53.200000762939453125</AltitudeMeters>
            <DistanceMeters>NAN</DistanceMeters>
          </Trackpoint>
          <Trackpoint>
            <Time>2022-07-05T10:55:23.000Z</Time>
            <Position>
              <LatitudeDegrees>44.45871940813958644866943359375</LatitudeDegrees>
              <LongitudeDegrees>-1.20865342207252979278564453125</LongitudeDegrees>
            </Position>
            <AltitudeMeters>53.200000762939453125</AltitudeMeters>
            <DistanceMeters>NAN</DistanceMeters>
          </Trackpoint>
          <Trackpoint>
            <Time>2022-07-05T10:55:25.000Z</Time>
            <Position>
              <LatitudeDegrees>44.45872544310986995697021484375</LatitudeDegrees>
              <LongitudeDegrees>-1.2085636518895626068115234375</LongitudeDegrees>
            </Position>
            <AltitudeMeters>53</AltitudeMeters>
            <DistanceMeters>NAN</DistanceMeters>
          </Trackpoint>
          <Trackpoint>
            <Time>2022-07-05T10:55:27.000Z</Time>
            <Position>
              <LatitudeDegrees>44.45870717056095600128173828125</LatitudeDegrees>
              <LongitudeDegrees>-1.2084526754915714263916015625</LongitudeDegrees>
            </Position>
            <AltitudeMeters>53</AltitudeMeters>
            <DistanceMeters>NAN</DistanceMeters>
          </Trackpoint>
          <Trackpoint>
            <Time>2022-07-05T10:55:30.000Z</Time>
            <Position>
              <LatitudeDegrees>44.45865805260837078094482421875</LatitudeDegrees>
              <LongitudeDegrees>-1.20827087201178073883056640625</LongitudeDegrees>
            </Position>
            <AltitudeMeters>53</AltitudeMeters>
            <DistanceMeters>NAN</DistanceMeters>
          </Trackpoint>
          <Trackpoint>
            <Time>2022-07-05T10:55:33.000Z</Time>
            <Position>
              <LatitudeDegrees>44.45859552361071109771728515625</LatitudeDegrees>
              <LongitudeDegrees>-1.20807557366788387298583984375</LongitudeDegrees>
            </Position>
            <AltitudeMeters>52</AltitudeMeters>
            <DistanceMeters>NAN</DistanceMeters>
          </Trackpoint>
          <Trackpoint>
            <Time>2022-07-05T10:55:37.000Z</Time>
            <Position>
              <LatitudeDegrees>44.45851053111255168914794921875</LatitudeDegrees>
              <LongitudeDegrees>-1.2078317441046237945556640625</LongitudeDegrees>
            </Position>
            <AltitudeMeters>51.799999237060546875</AltitudeMeters>
            <DistanceMeters>NAN</DistanceMeters>
          </Trackpoint>
          <Trackpoint>
            <Time>2022-07-05T10:55:46.000Z</Time>
            <Position>
              <LatitudeDegrees>44.4583290629088878631591796875</LatitudeDegrees>
              <LongitudeDegrees>-1.2073583342134952545166015625</LongitudeDegrees>
            </Position>
            <AltitudeMeters>52</AltitudeMeters>
            <DistanceMeters>NAN</DistanceMeters>
          </Trackpoint>
          <Trackpoint>
            <Time>2022-07-05T10:55:47.000Z</Time>
            <Position>
              <LatitudeDegrees>44.45830768905580043792724609375</LatitudeDegrees>
              <LongitudeDegrees>-1.2073092162609100341796875</LongitudeDegrees>
            </Position>
            <AltitudeMeters>52</AltitudeMeters>
            <DistanceMeters>NAN</DistanceMeters>
          </Trackpoint>
          <Trackpoint>
            <Time>2022-07-05T10:55:52.000Z</Time>
            <Position>
              <LatitudeDegrees>44.4582070223987102508544921875</LatitudeDegrees>
              <LongitudeDegrees>-1.2070716731250286102294921875</LongitudeDegrees>
            </Position>
            <AltitudeMeters>52.200000762939453125</AltitudeMeters>
            <DistanceMeters>NAN</DistanceMeters>
          </Trackpoint>
          <Trackpoint>
            <Time>2022-07-05T10:55:55.000Z</Time>
            <Position>
              <LatitudeDegrees>44.45814122445881366729736328125</LatitudeDegrees>
              <LongitudeDegrees>-1.206934042274951934814453125</LongitudeDegrees>
            </Position>
            <AltitudeMeters>52.200000762939453125</AltitudeMeters>
            <DistanceMeters>NAN</DistanceMeters>
          </Trackpoint>
          <Trackpoint>
            <Time>2022-07-05T10:56:03.000Z</Time>
            <Position>
              <LatitudeDegrees>44.4579877518117427825927734375</LatitudeDegrees>
              <LongitudeDegrees>-1.2065607123076915740966796875</LongitudeDegrees>
            </Position>
            <AltitudeMeters>52</AltitudeMeters>
            <DistanceMeters>NAN</DistanceMeters>
          </Trackpoint>
          <Trackpoint>
            <Time>2022-07-05T10:56:08.000Z</Time>
            <Position>
              <LatitudeDegrees>44.45788465440273284912109375</LatitudeDegrees>
              <LongitudeDegrees>-1.20631637983024120330810546875</LongitudeDegrees>
            </Position>
            <AltitudeMeters>52</AltitudeMeters>
            <DistanceMeters>NAN</DistanceMeters>
          </Trackpoint>
          <Trackpoint>
            <Time>2022-07-05T10:56:11.000Z</Time>
            <Position>
              <LatitudeDegrees>44.45781919173896312713623046875</LatitudeDegrees>
              <LongitudeDegrees>-1.20617137290537357330322265625</LongitudeDegrees>
            </Position>
            <AltitudeMeters>52</AltitudeMeters>
            <DistanceMeters>NAN</DistanceMeters>
          </Trackpoint>
          <Trackpoint>
            <Time>2022-07-05T10:56:12.000Z</Time>
            <Position>
              <LatitudeDegrees>44.4577979855239391326904296875</LatitudeDegrees>
              <LongitudeDegrees>-1.20613147504627704620361328125</LongitudeDegrees>
            </Position>
            <AltitudeMeters>52</AltitudeMeters>
            <DistanceMeters>NAN</DistanceMeters>
          </Trackpoint>
          <Trackpoint>
            <Time>2022-07-05T10:56:17.000Z</Time>
            <Position>
              <LatitudeDegrees>44.45768977515399456024169921875</LatitudeDegrees>
              <LongitudeDegrees>-1.20588471181690692901611328125</LongitudeDegrees>
            </Position>
            <AltitudeMeters>52</AltitudeMeters>
            <DistanceMeters>NAN</DistanceMeters>
          </Trackpoint>
          <Trackpoint>
            <Time>2022-07-05T10:56:19.000Z</Time>
            <Position>
              <LatitudeDegrees>44.457649290561676025390625</LatitudeDegrees>
              <LongitudeDegrees>-1.2057868950068950653076171875</LongitudeDegrees>
            </Position>
            <AltitudeMeters>52</AltitudeMeters>
            <DistanceMeters>NAN</DistanceMeters>
          </Trackpoint>
          <Trackpoint>
            <Time>2022-07-05T10:56:25.000Z</Time>
            <Position>
              <LatitudeDegrees>44.4575314410030841827392578125</LatitudeDegrees>
              <LongitudeDegrees>-1.205531246960163116455078125</LongitudeDegrees>
            </Position>
            <AltitudeMeters>52.200000762939453125</AltitudeMeters>
            <DistanceMeters>NAN</DistanceMeters>
          </Trackpoint>
          <Trackpoint>
            <Time>2022-07-05T10:56:28.000Z</Time>
            <Position>
              <LatitudeDegrees>44.4574885256588459014892578125</LatitudeDegrees>
              <LongitudeDegrees>-1.205410547554492950439453125</LongitudeDegrees>
            </Position>
            <AltitudeMeters>52.200000762939453125</AltitudeMeters>
            <DistanceMeters>NAN</DistanceMeters>
          </Trackpoint>
          <Trackpoint>
            <Time>2022-07-05T10:56:29.000Z</Time>
            <Position>
              <LatitudeDegrees>44.4574744440615177154541015625</LatitudeDegrees>
              <LongitudeDegrees>-1.20537274517118930816650390625</LongitudeDegrees>
            </Position>
            <AltitudeMeters>52.200000762939453125</AltitudeMeters>
            <DistanceMeters>NAN</DistanceMeters>
          </Trackpoint>
          <Trackpoint>
            <Time>2022-07-05T10:56:32.000Z</Time>
            <Position>
              <LatitudeDegrees>44.45742758922278881072998046875</LatitudeDegrees>
              <LongitudeDegrees>-1.20525975711643695831298828125</LongitudeDegrees>
            </Position>
            <AltitudeMeters>52.200000762939453125</AltitudeMeters>
            <DistanceMeters>NAN</DistanceMeters>
          </Trackpoint>
          <Trackpoint>
            <Time>2022-07-05T10:56:37.000Z</Time>
            <Position>
              <LatitudeDegrees>44.457365982234477996826171875</LatitudeDegrees>
              <LongitudeDegrees>-1.20506227947771549224853515625</LongitudeDegrees>
            </Position>
            <AltitudeMeters>52.200000762939453125</AltitudeMeters>
            <DistanceMeters>NAN</DistanceMeters>
          </Trackpoint>
          <Trackpoint>
            <Time>2022-07-05T10:56:44.000Z</Time>
            <Position>
              <LatitudeDegrees>44.4572699256241321563720703125</LatitudeDegrees>
              <LongitudeDegrees>-1.20480378158390522003173828125</LongitudeDegrees>
            </Position>
            <AltitudeMeters>53</AltitudeMeters>
            <DistanceMeters>NAN</DistanceMeters>
          </Trackpoint>
          <Trackpoint>
            <Time>2022-07-05T10:56:51.000Z</Time>
            <Position>
              <LatitudeDegrees>44.4571804068982601165771484375</LatitudeDegrees>
              <LongitudeDegrees>-1.2045051343739032745361328125</LongitudeDegrees>
            </Position>
            <AltitudeMeters>53.200000762939453125</AltitudeMeters>
            <DistanceMeters>NAN</DistanceMeters>
          </Trackpoint>
          <Trackpoint>
            <Time>2022-07-05T10:56:57.000Z</Time>
            <Position>
              <LatitudeDegrees>44.457104466855525970458984375</LatitudeDegrees>
              <LongitudeDegrees>-1.20416005142033100128173828125</LongitudeDegrees>
            </Position>
            <AltitudeMeters>52.59999847412109375</AltitudeMeters>
            <DistanceMeters>NAN</DistanceMeters>
          </Trackpoint>
          <Trackpoint>
            <Time>2022-07-05T10:57:03.000Z</Time>
            <Position>
              <LatitudeDegrees>44.45704520680010318756103515625</LatitudeDegrees>
              <LongitudeDegrees>-1.20372368954122066497802734375</LongitudeDegrees>
            </Position>
            <AltitudeMeters>52.200000762939453125</AltitudeMeters>
            <DistanceMeters>NAN</DistanceMeters>
          </Trackpoint>
          <Trackpoint>
            <Time>2022-07-05T10:57:04.000Z</Time>
            <Position>
              <LatitudeDegrees>44.45704285986721515655517578125</LatitudeDegrees>
              <LongitudeDegrees>-1.20366501621901988983154296875</LongitudeDegrees>
            </Position>
            <AltitudeMeters>52</AltitudeMeters>
            <DistanceMeters>NAN</DistanceMeters>
          </Trackpoint>
          <Trackpoint>
            <Time>2022-07-05T10:57:05.000Z</Time>
            <Position>
              <LatitudeDegrees>44.4570399262011051177978515625</LatitudeDegrees>
              <LongitudeDegrees>-1.2035928480327129364013671875</LongitudeDegrees>
            </Position>
            <AltitudeMeters>51.59999847412109375</AltitudeMeters>
            <DistanceMeters>NAN</DistanceMeters>
          </Trackpoint>
          <Trackpoint>
            <Time>2022-07-05T10:57:07.000Z</Time>
            <Position>
              <LatitudeDegrees>44.45703095756471157073974609375</LatitudeDegrees>
              <LongitudeDegrees>-1.20343987829983234405517578125</LongitudeDegrees>
            </Position>
            <AltitudeMeters>51</AltitudeMeters>
            <DistanceMeters>NAN</DistanceMeters>
          </Trackpoint>
          <Trackpoint>
            <Time>2022-07-05T10:57:08.000Z</Time>
            <Position>
              <LatitudeDegrees>44.45702022872865200042724609375</LatitudeDegrees>
              <LongitudeDegrees>-1.20335773564875125885009765625</LongitudeDegrees>
            </Position>
            <AltitudeMeters>50.40000152587890625</AltitudeMeters>
            <DistanceMeters>NAN</DistanceMeters>
          </Trackpoint>
          <Trackpoint>
            <Time>2022-07-05T10:57:11.000Z</Time>
            <Position>
              <LatitudeDegrees>44.4570017047226428985595703125</LatitudeDegrees>
              <LongitudeDegrees>-1.20310778729617595672607421875</LongitudeDegrees>
            </Position>
            <AltitudeMeters>49.200000762939453125</AltitudeMeters>
            <DistanceMeters>NAN</DistanceMeters>
          </Trackpoint>
          <Trackpoint>
            <Time>2022-07-05T10:57:13.000Z</Time>
            <Position>
              <LatitudeDegrees>44.45698200725018978118896484375</LatitudeDegrees>
              <LongitudeDegrees>-1.20294467546045780181884765625</LongitudeDegrees>
            </Position>
            <AltitudeMeters>48.200000762939453125</AltitudeMeters>
            <DistanceMeters>NAN</DistanceMeters>
          </Trackpoint>
          <Trackpoint>
            <Time>2022-07-05T10:57:14.000Z</Time>
            <Position>
              <LatitudeDegrees>44.45696641691029071807861328125</LatitudeDegrees>
              <LongitudeDegrees>-1.2028647959232330322265625</LongitudeDegrees>
            </Position>
            <AltitudeMeters>47.59999847412109375</AltitudeMeters>
            <DistanceMeters>NAN</DistanceMeters>
          </Trackpoint>
          <Trackpoint>
            <Time>2022-07-05T10:57:15.000Z</Time>
            <Position>
              <LatitudeDegrees>44.4569557718932628631591796875</LatitudeDegrees>
              <LongitudeDegrees>-1.20278659276664257049560546875</LongitudeDegrees>
            </Position>
            <AltitudeMeters>46.799999237060546875</AltitudeMeters>
            <DistanceMeters>NAN</DistanceMeters>
          </Trackpoint>
          <Trackpoint>
            <Time>2022-07-05T10:57:16.000Z</Time>
            <Position>
              <LatitudeDegrees>44.4569386728107929229736328125</LatitudeDegrees>
              <LongitudeDegrees>-1.20270243845880031585693359375</LongitudeDegrees>
            </Position>
            <AltitudeMeters>46</AltitudeMeters>
            <DistanceMeters>NAN</DistanceMeters>
          </Trackpoint>
          <Trackpoint>
            <Time>2022-07-05T10:57:17.000Z</Time>
            <Position>
              <LatitudeDegrees>44.45692081935703754425048828125</LatitudeDegrees>
              <LongitudeDegrees>-1.2026228941977024078369140625</LongitudeDegrees>
            </Position>
            <AltitudeMeters>45.59999847412109375</AltitudeMeters>
            <DistanceMeters>NAN</DistanceMeters>
          </Trackpoint>
          <Trackpoint>
            <Time>2022-07-05T10:57:18.000Z</Time>
            <Position>
              <LatitudeDegrees>44.45689919404685497283935546875</LatitudeDegrees>
              <LongitudeDegrees>-1.20253496803343296051025390625</LongitudeDegrees>
            </Position>
            <AltitudeMeters>45.200000762939453125</AltitudeMeters>
            <DistanceMeters>NAN</DistanceMeters>
          </Trackpoint>
          <Trackpoint>
            <Time>2022-07-05T10:57:21.000Z</Time>
            <Position>
              <LatitudeDegrees>44.45684454403817653656005859375</LatitudeDegrees>
              <LongitudeDegrees>-1.2023484706878662109375</LongitudeDegrees>
            </Position>
            <AltitudeMeters>44.40000152587890625</AltitudeMeters>
            <DistanceMeters>NAN</DistanceMeters>
          </Trackpoint>
          <Trackpoint>
            <Time>2022-07-05T10:57:23.000Z</Time>
            <Position>
              <LatitudeDegrees>44.4568030536174774169921875</LatitudeDegrees>
              <LongitudeDegrees>-1.20224654674530029296875</LongitudeDegrees>
            </Position>
            <AltitudeMeters>43.40000152587890625</AltitudeMeters>
            <DistanceMeters>NAN</DistanceMeters>
          </Trackpoint>
          <Trackpoint>
            <Time>2022-07-05T10:57:24.000Z</Time>
            <Position>
              <LatitudeDegrees>44.45680104196071624755859375</LatitudeDegrees>
              <LongitudeDegrees>-1.20221444405615329742431640625</LongitudeDegrees>
            </Position>
            <AltitudeMeters>43</AltitudeMeters>
            <DistanceMeters>NAN</DistanceMeters>
          </Trackpoint>
          <Trackpoint>
            <Time>2022-07-05T10:57:26.000Z</Time>
            <Position>
              <LatitudeDegrees>44.456820823252201080322265625</LatitudeDegrees>
              <LongitudeDegrees>-1.2021481432020664215087890625</LongitudeDegrees>
            </Position>
            <AltitudeMeters>42.40000152587890625</AltitudeMeters>
            <DistanceMeters>NAN</DistanceMeters>
          </Trackpoint>
          <Trackpoint>
            <Time>2022-07-05T10:57:28.000Z</Time>
            <Position>
              <LatitudeDegrees>44.45683968253433704376220703125</LatitudeDegrees>
              <LongitudeDegrees>-1.20207496918737888336181640625</LongitudeDegrees>
            </Position>
            <AltitudeMeters>42.200000762939453125</AltitudeMeters>
            <DistanceMeters>NAN</DistanceMeters>
          </Trackpoint>
          <Trackpoint>
            <Time>2022-07-05T10:57:30.000Z</Time>
            <Position>
              <LatitudeDegrees>44.4568092562258243560791015625</LatitudeDegrees>
              <LongitudeDegrees>-1.2019908986985683441162109375</LongitudeDegrees>
            </Position>
            <AltitudeMeters>42</AltitudeMeters>
            <DistanceMeters>NAN</DistanceMeters>
          </Trackpoint>
          <Trackpoint>
            <Time>2022-07-05T10:57:35.000Z</Time>
            <Position>
              <LatitudeDegrees>44.4566743075847625732421875</LatitudeDegrees>
              <LongitudeDegrees>-1.20173751376569271087646484375</LongitudeDegrees>
            </Position>
            <AltitudeMeters>41.40000152587890625</AltitudeMeters>
            <DistanceMeters>NAN</DistanceMeters>
          </Trackpoint>
          <Trackpoint>
            <Time>2022-07-05T10:57:38.000Z</Time>
            <Position>
              <LatitudeDegrees>44.45657246746122837066650390625</LatitudeDegrees>
              <LongitudeDegrees>-1.2015376053750514984130859375</LongitudeDegrees>
            </Position>
            <AltitudeMeters>41</AltitudeMeters>
            <DistanceMeters>NAN</DistanceMeters>
          </Trackpoint>
          <Trackpoint>
            <Time>2022-07-05T10:57:42.000Z</Time>
            <Position>
              <LatitudeDegrees>44.45641907863318920135498046875</LatitudeDegrees>
              <LongitudeDegrees>-1.201278269290924072265625</LongitudeDegrees>
            </Position>
            <AltitudeMeters>40.40000152587890625</AltitudeMeters>
            <DistanceMeters>NAN</DistanceMeters>
          </Trackpoint>
          <Trackpoint>
            <Time>2022-07-05T10:57:45.000Z</Time>
            <Position>
              <LatitudeDegrees>44.4562949426472187042236328125</LatitudeDegrees>
              <LongitudeDegrees>-1.2011349387466907501220703125</LongitudeDegrees>
            </Position>
            <AltitudeMeters>39.799999237060546875</AltitudeMeters>
            <DistanceMeters>NAN</DistanceMeters>
          </Trackpoint>
          <Trackpoint>
            <Time>2022-07-05T10:57:47.000Z</Time>
            <Position>
              <LatitudeDegrees>44.4561953656375408172607421875</LatitudeDegrees>
              <LongitudeDegrees>-1.201050616800785064697265625</LongitudeDegrees>
            </Position>
            <AltitudeMeters>39.59999847412109375</AltitudeMeters>
            <DistanceMeters>NAN</DistanceMeters>
          </Trackpoint>
          <Trackpoint>
            <Time>2022-07-05T10:57:51.000Z</Time>
            <Position>
              <LatitudeDegrees>44.455992020666599273681640625</LatitudeDegrees>
              <LongitudeDegrees>-1.2009443342685699462890625</LongitudeDegrees>
            </Position>
            <AltitudeMeters>38.799999237060546875</AltitudeMeters>
            <DistanceMeters>NAN</DistanceMeters>
          </Trackpoint>
          <Trackpoint>
            <Time>2022-07-05T10:57:53.000Z</Time>
            <Position>
              <LatitudeDegrees>44.45587961934506893157958984375</LatitudeDegrees>
              <LongitudeDegrees>-1.20089672505855560302734375</LongitudeDegrees>
            </Position>
            <AltitudeMeters>38.40000152587890625</AltitudeMeters>
            <DistanceMeters>NAN</DistanceMeters>
          </Trackpoint>
          <Trackpoint>
            <Time>2022-07-05T10:57:55.000Z</Time>
            <Position>
              <LatitudeDegrees>44.45577316917479038238525390625</LatitudeDegrees>
              <LongitudeDegrees>-1.20085204951465129852294921875</LongitudeDegrees>
            </Position>
            <AltitudeMeters>38.200000762939453125</AltitudeMeters>
            <DistanceMeters>NAN</DistanceMeters>
          </Trackpoint>
          <Trackpoint>
            <Time>2022-07-05T10:57:57.000Z</Time>
            <Position>
              <LatitudeDegrees>44.45564425550401210784912109375</LatitudeDegrees>
              <LongitudeDegrees>-1.2008010037243366241455078125</LongitudeDegrees>
            </Position>
            <AltitudeMeters>37.40000152587890625</AltitudeMeters>
            <DistanceMeters>NAN</DistanceMeters>
          </Trackpoint>
          <Trackpoint>
            <Time>2022-07-05T10:58:02.000Z</Time>
            <Position>
              <LatitudeDegrees>44.45538508705794811248779296875</LatitudeDegrees>
              <LongitudeDegrees>-1.200690530240535736083984375</LongitudeDegrees>
            </Position>
            <AltitudeMeters>36</AltitudeMeters>
            <DistanceMeters>NAN</DistanceMeters>
          </Trackpoint>
          <Trackpoint>
            <Time>2022-07-05T10:58:03.000Z</Time>
            <Position>
              <LatitudeDegrees>44.4553219713270664215087890625</LatitudeDegrees>
              <LongitudeDegrees>-1.20065390132367610931396484375</LongitudeDegrees>
            </Position>
            <AltitudeMeters>35.799999237060546875</AltitudeMeters>
            <DistanceMeters>NAN</DistanceMeters>
          </Trackpoint>
          <Trackpoint>
            <Time>2022-07-05T10:58:06.000Z</Time>
            <Position>
              <LatitudeDegrees>44.45517964661121368408203125</LatitudeDegrees>
              <LongitudeDegrees>-1.200553737580776214599609375</LongitudeDegrees>
            </Position>
            <AltitudeMeters>35</AltitudeMeters>
            <DistanceMeters>NAN</DistanceMeters>
          </Trackpoint>
          <Trackpoint>
            <Time>2022-07-05T10:58:07.000Z</Time>
            <Position>
              <LatitudeDegrees>44.45512474514544010162353515625</LatitudeDegrees>
              <LongitudeDegrees>-1.20051928795874118804931640625</LongitudeDegrees>
            </Position>
            <AltitudeMeters>34.799999237060546875</AltitudeMeters>
            <DistanceMeters>NAN</DistanceMeters>
          </Trackpoint>
          <Trackpoint>
            <Time>2022-07-05T10:58:09.000Z</Time>
            <Position>
              <LatitudeDegrees>44.4550044648349285125732421875</LatitudeDegrees>
              <LongitudeDegrees>-1.20045441202819347381591796875</LongitudeDegrees>
            </Position>
            <AltitudeMeters>34.40000152587890625</AltitudeMeters>
            <DistanceMeters>NAN</DistanceMeters>
          </Trackpoint>
          <Trackpoint>
            <Time>2022-07-05T10:58:11.000Z</Time>
            <Position>
              <LatitudeDegrees>44.45491519756615161895751953125</LatitudeDegrees>
              <LongitudeDegrees>-1.200380735099315643310546875</LongitudeDegrees>
            </Position>
            <AltitudeMeters>34</AltitudeMeters>
            <DistanceMeters>NAN</DistanceMeters>
          </Trackpoint>
          <Trackpoint>
            <Time>2022-07-05T10:58:15.000Z</Time>
            <Position>
              <LatitudeDegrees>44.4547157920897006988525390625</LatitudeDegrees>
              <LongitudeDegrees>-1.20025358162820339202880859375</LongitudeDegrees>
            </Position>
            <AltitudeMeters>33.59999847412109375</AltitudeMeters>
            <DistanceMeters>NAN</DistanceMeters>
          </Trackpoint>
          <Trackpoint>
            <Time>2022-07-05T10:58:18.000Z</Time>
            <Position>
              <LatitudeDegrees>44.4545944221317768096923828125</LatitudeDegrees>
              <LongitudeDegrees>-1.20015769265592098236083984375</LongitudeDegrees>
            </Position>
            <AltitudeMeters>33.40000152587890625</AltitudeMeters>
            <DistanceMeters>NAN</DistanceMeters>
          </Trackpoint>
          <Trackpoint>
            <Time>2022-07-05T10:58:21.000Z</Time>
            <Position>
              <LatitudeDegrees>44.4544817693531513214111328125</LatitudeDegrees>
              <LongitudeDegrees>-1.20006465353071689605712890625</LongitudeDegrees>
            </Position>
            <AltitudeMeters>33</AltitudeMeters>
            <DistanceMeters>NAN</DistanceMeters>
          </Trackpoint>
          <Trackpoint>
            <Time>2022-07-05T10:58:26.000Z</Time>
            <Position>
              <LatitudeDegrees>44.45429963059723377227783203125</LatitudeDegrees>
              <LongitudeDegrees>-1.19993624277412891387939453125</LongitudeDegrees>
            </Position>
            <AltitudeMeters>32.799999237060546875</AltitudeMeters>
            <DistanceMeters>NAN</DistanceMeters>
          </Trackpoint>
          <Trackpoint>
            <Time>2022-07-05T10:58:32.000Z</Time>
            <Position>
              <LatitudeDegrees>44.45412578992545604705810546875</LatitudeDegrees>
              <LongitudeDegrees>-1.1997921578586101531982421875</LongitudeDegrees>
            </Position>
            <AltitudeMeters>32.40000152587890625</AltitudeMeters>
            <DistanceMeters>NAN</DistanceMeters>
          </Trackpoint>
          <Trackpoint>
            <Time>2022-07-05T10:58:33.000Z</Time>
            <Position>
              <LatitudeDegrees>44.4541163183748722076416015625</LatitudeDegrees>
              <LongitudeDegrees>-1.19976860471069812774658203125</LongitudeDegrees>
            </Position>
            <AltitudeMeters>32.200000762939453125</AltitudeMeters>
            <DistanceMeters>NAN</DistanceMeters>
          </Trackpoint>
          <Trackpoint>
            <Time>2022-07-05T10:58:36.000Z</Time>
            <Position>
              <LatitudeDegrees>44.454121179878711700439453125</LatitudeDegrees>
              <LongitudeDegrees>-1.1997091770172119140625</LongitudeDegrees>
            </Position>
            <AltitudeMeters>32.200000762939453125</AltitudeMeters>
            <DistanceMeters>NAN</DistanceMeters>
          </Trackpoint>
          <Trackpoint>
            <Time>2022-07-05T10:58:38.000Z</Time>
            <Position>
              <LatitudeDegrees>44.45411874912679195404052734375</LatitudeDegrees>
              <LongitudeDegrees>-1.1996801756322383880615234375</LongitudeDegrees>
            </Position>
            <AltitudeMeters>32.200000762939453125</AltitudeMeters>
            <DistanceMeters>NAN</DistanceMeters>
          </Trackpoint>
          <Trackpoint>
            <Time>2022-07-05T10:58:41.000Z</Time>
            <Position>
              <LatitudeDegrees>44.454112462699413299560546875</LatitudeDegrees>
              <LongitudeDegrees>-1.19966693222522735595703125</LongitudeDegrees>
            </Position>
            <AltitudeMeters>32.200000762939453125</AltitudeMeters>
            <DistanceMeters>NAN</DistanceMeters>
          </Trackpoint>
          <Trackpoint>
            <Time>2022-07-05T10:58:42.000Z</Time>
            <Position>
              <LatitudeDegrees>44.454112462699413299560546875</LatitudeDegrees>
              <LongitudeDegrees>-1.19966693222522735595703125</LongitudeDegrees>
            </Position>
            <AltitudeMeters>32.200000762939453125</AltitudeMeters>
            <DistanceMeters>NAN</DistanceMeters>
          </Trackpoint>
          <Trackpoint>
            <Time>2022-07-05T10:58:51.000Z</Time>
            <Position>
              <LatitudeDegrees>44.4540576450526714324951171875</LatitudeDegrees>
              <LongitudeDegrees>-1.19960247538983821868896484375</LongitudeDegrees>
            </Position>
            <AltitudeMeters>32.40000152587890625</AltitudeMeters>
            <DistanceMeters>NAN</DistanceMeters>
          </Trackpoint>
          <Trackpoint>
            <Time>2022-07-05T10:58:53.000Z</Time>
            <Position>
              <LatitudeDegrees>44.4540113769471645355224609375</LatitudeDegrees>
              <LongitudeDegrees>-1.1995728872716426849365234375</LongitudeDegrees>
            </Position>
            <AltitudeMeters>32.40000152587890625</AltitudeMeters>
            <DistanceMeters>NAN</DistanceMeters>
          </Trackpoint>
          <Trackpoint>
            <Time>2022-07-05T10:58:56.000Z</Time>
            <Position>
              <LatitudeDegrees>44.4539449922740459442138671875</LatitudeDegrees>
              <LongitudeDegrees>-1.19955386035144329071044921875</LongitudeDegrees>
            </Position>
            <AltitudeMeters>32.40000152587890625</AltitudeMeters>
            <DistanceMeters>NAN</DistanceMeters>
          </Trackpoint>
          <Trackpoint>
            <Time>2022-07-05T10:59:00.000Z</Time>
            <Position>
              <LatitudeDegrees>44.45387475192546844482421875</LatitudeDegrees>
              <LongitudeDegrees>-1.199507005512714385986328125</LongitudeDegrees>
            </Position>
            <AltitudeMeters>32.200000762939453125</AltitudeMeters>
            <DistanceMeters>NAN</DistanceMeters>
          </Trackpoint>
          <Trackpoint>
            <Time>2022-07-05T10:59:06.000Z</Time>
            <Position>
              <LatitudeDegrees>44.453714825212955474853515625</LatitudeDegrees>
              <LongitudeDegrees>-1.19935018010437488555908203125</LongitudeDegrees>
            </Position>
            <AltitudeMeters>32</AltitudeMeters>
            <DistanceMeters>NAN</DistanceMeters>
          </Trackpoint>
          <Trackpoint>
            <Time>2022-07-05T10:59:12.000Z</Time>
            <Position>
              <LatitudeDegrees>44.4534997455775737762451171875</LatitudeDegrees>
              <LongitudeDegrees>-1.19921640492975711822509765625</LongitudeDegrees>
            </Position>
            <AltitudeMeters>31.799999237060546875</AltitudeMeters>
            <DistanceMeters>NAN</DistanceMeters>
          </Trackpoint>
          <Trackpoint>
            <Time>2022-07-05T10:59:20.000Z</Time>
            <Position>
              <LatitudeDegrees>44.4531879387795925140380859375</LatitudeDegrees>
              <LongitudeDegrees>-1.1991338431835174560546875</LongitudeDegrees>
            </Position>
            <AltitudeMeters>31.799999237060546875</AltitudeMeters>
            <DistanceMeters>NAN</DistanceMeters>
          </Trackpoint>
          <Trackpoint>
            <Time>2022-07-05T10:59:27.000Z</Time>
            <Position>
              <LatitudeDegrees>44.45295341312885284423828125</LatitudeDegrees>
              <LongitudeDegrees>-1.1990010738372802734375</LongitudeDegrees>
            </Position>
            <AltitudeMeters>31.799999237060546875</AltitudeMeters>
            <DistanceMeters>NAN</DistanceMeters>
          </Trackpoint>
          <Trackpoint>
            <Time>2022-07-05T10:59:34.000Z</Time>
            <Position>
              <LatitudeDegrees>44.45270639844238758087158203125</LatitudeDegrees>
              <LongitudeDegrees>-1.198872663080692291259765625</LongitudeDegrees>
            </Position>
            <AltitudeMeters>31.3999996185302734375</AltitudeMeters>
            <DistanceMeters>NAN</DistanceMeters>
          </Trackpoint>
          <Trackpoint>
            <Time>2022-07-05T10:59:38.000Z</Time>
            <Position>
              <LatitudeDegrees>44.4525606371462345123291015625</LatitudeDegrees>
              <LongitudeDegrees>-1.19880937971174716949462890625</LongitudeDegrees>
            </Position>
            <AltitudeMeters>31.3999996185302734375</AltitudeMeters>
            <DistanceMeters>NAN</DistanceMeters>
          </Trackpoint>
          <Trackpoint>
            <Time>2022-07-05T10:59:40.000Z</Time>
            <Position>
              <LatitudeDegrees>44.45249634794890880584716796875</LatitudeDegrees>
              <LongitudeDegrees>-1.198776103556156158447265625</LongitudeDegrees>
            </Position>
            <AltitudeMeters>31.3999996185302734375</AltitudeMeters>
            <DistanceMeters>NAN</DistanceMeters>
          </Trackpoint>
          <Trackpoint>
            <Time>2022-07-05T10:59:41.000Z</Time>
            <Position>
              <LatitudeDegrees>44.452467262744903564453125</LatitudeDegrees>
              <LongitudeDegrees>-1.1987548135221004486083984375</LongitudeDegrees>
            </Position>
            <AltitudeMeters>31.3999996185302734375</AltitudeMeters>
            <DistanceMeters>NAN</DistanceMeters>
          </Trackpoint>
          <Trackpoint>
            <Time>2022-07-05T10:59:47.000Z</Time>
            <Position>
              <LatitudeDegrees>44.45228612981736660003662109375</LatitudeDegrees>
              <LongitudeDegrees>-1.19865439832210540771484375</LongitudeDegrees>
            </Position>
            <AltitudeMeters>31.200000762939453125</AltitudeMeters>
            <DistanceMeters>NAN</DistanceMeters>
          </Trackpoint>
          <Trackpoint>
            <Time>2022-07-05T10:59:50.000Z</Time>
            <Position>
              <LatitudeDegrees>44.45218051783740520477294921875</LatitudeDegrees>
              <LongitudeDegrees>-1.19859077967703342437744140625</LongitudeDegrees>
            </Position>
            <AltitudeMeters>31</AltitudeMeters>
            <DistanceMeters>NAN</DistanceMeters>
          </Trackpoint>
          <Trackpoint>
            <Time>2022-07-05T10:59:52.000Z</Time>
            <Position>
              <LatitudeDegrees>44.45213089697062969207763671875</LatitudeDegrees>
              <LongitudeDegrees>-1.198549456894397735595703125</LongitudeDegrees>
            </Position>
            <AltitudeMeters>31.200000762939453125</AltitudeMeters>
            <DistanceMeters>NAN</DistanceMeters>
          </Trackpoint>
          <Trackpoint>
            <Time>2022-07-05T10:59:54.000Z</Time>
            <Position>
              <LatitudeDegrees>44.45205545984208583831787109375</LatitudeDegrees>
              <LongitudeDegrees>-1.19849883019924163818359375</LongitudeDegrees>
            </Position>
            <AltitudeMeters>31.3999996185302734375</AltitudeMeters>
            <DistanceMeters>NAN</DistanceMeters>
          </Trackpoint>
          <Trackpoint>
            <Time>2022-07-05T11:00:02.000Z</Time>
            <Position>
              <LatitudeDegrees>44.45185370743274688720703125</LatitudeDegrees>
              <LongitudeDegrees>-1.19830437004566192626953125</LongitudeDegrees>
            </Position>
            <AltitudeMeters>31.200000762939453125</AltitudeMeters>
            <DistanceMeters>NAN</DistanceMeters>
          </Trackpoint>
          <Trackpoint>
            <Time>2022-07-05T11:00:09.000Z</Time>
            <Position>
              <LatitudeDegrees>44.45163468830287456512451171875</LatitudeDegrees>
              <LongitudeDegrees>-1.19814033620059490203857421875</LongitudeDegrees>
            </Position>
            <AltitudeMeters>31</AltitudeMeters>
            <DistanceMeters>NAN</DistanceMeters>
          </Trackpoint>
          <Trackpoint>
            <Time>2022-07-05T11:00:12.000Z</Time>
            <Position>
              <LatitudeDegrees>44.45158171467483043670654296875</LatitudeDegrees>
              <LongitudeDegrees>-1.19810094125568866729736328125</LongitudeDegrees>
            </Position>
            <AltitudeMeters>31</AltitudeMeters>
            <DistanceMeters>NAN</DistanceMeters>
          </Trackpoint>
          <Trackpoint>
            <Time>2022-07-05T11:00:14.000Z</Time>
            <Position>
              <LatitudeDegrees>44.4515655376017093658447265625</LatitudeDegrees>
              <LongitudeDegrees>-1.1980931460857391357421875</LongitudeDegrees>
            </Position>
            <AltitudeMeters>31</AltitudeMeters>
            <DistanceMeters>NAN</DistanceMeters>
          </Trackpoint>
          <Trackpoint>
            <Time>2022-07-05T11:00:15.000Z</Time>
            <Position>
              <LatitudeDegrees>44.4515655376017093658447265625</LatitudeDegrees>
              <LongitudeDegrees>-1.1980931460857391357421875</LongitudeDegrees>
            </Position>
            <AltitudeMeters>31</AltitudeMeters>
            <DistanceMeters>NAN</DistanceMeters>
          </Trackpoint>
          <Trackpoint>
            <Time>2022-07-05T11:00:38.000Z</Time>
            <Position>
              <LatitudeDegrees>44.4515159167349338531494140625</LatitudeDegrees>
              <LongitudeDegrees>-1.19803975336253643035888671875</LongitudeDegrees>
            </Position>
            <AltitudeMeters>30.6000003814697265625</AltitudeMeters>
            <DistanceMeters>NAN</DistanceMeters>
          </Trackpoint>
          <Trackpoint>
            <Time>2022-07-05T11:00:39.000Z</Time>
            <Position>
              <LatitudeDegrees>44.45149295032024383544921875</LatitudeDegrees>
              <LongitudeDegrees>-1.19802265428006649017333984375</LongitudeDegrees>
            </Position>
            <AltitudeMeters>30.6000003814697265625</AltitudeMeters>
            <DistanceMeters>NAN</DistanceMeters>
          </Trackpoint>
          <Trackpoint>
            <Time>2022-07-05T11:00:40.000Z</Time>
            <Position>
              <LatitudeDegrees>44.4514589197933673858642578125</LatitudeDegrees>
              <LongitudeDegrees>-1.19800337590277194976806640625</LongitudeDegrees>
            </Position>
            <AltitudeMeters>30.3999996185302734375</AltitudeMeters>
            <DistanceMeters>NAN</DistanceMeters>
          </Trackpoint>
          <Trackpoint>
            <Time>2022-07-05T11:00:46.000Z</Time>
            <Position>
              <LatitudeDegrees>44.4512993283569812774658203125</LatitudeDegrees>
              <LongitudeDegrees>-1.19791704230010509490966796875</LongitudeDegrees>
            </Position>
            <AltitudeMeters>30.6000003814697265625</AltitudeMeters>
            <DistanceMeters>NAN</DistanceMeters>
          </Trackpoint>
          <Trackpoint>
            <Time>2022-07-05T11:00:51.000Z</Time>
            <Position>
              <LatitudeDegrees>44.45115591399371623992919921875</LatitudeDegrees>
              <LongitudeDegrees>-1.19784328155219554901123046875</LongitudeDegrees>
            </Position>
            <AltitudeMeters>30.6000003814697265625</AltitudeMeters>
            <DistanceMeters>NAN</DistanceMeters>
          </Trackpoint>
          <Trackpoint>
            <Time>2022-07-05T11:00:52.000Z</Time>
            <Position>
              <LatitudeDegrees>44.45113311521708965301513671875</LatitudeDegrees>
              <LongitudeDegrees>-1.1978331394493579864501953125</LongitudeDegrees>
            </Position>
            <AltitudeMeters>30.6000003814697265625</AltitudeMeters>
            <DistanceMeters>NAN</DistanceMeters>
          </Trackpoint>
          <Trackpoint>
            <Time>2022-07-05T11:00:56.000Z</Time>
            <Position>
              <LatitudeDegrees>44.45101560093462467193603515625</LatitudeDegrees>
              <LongitudeDegrees>-1.1978287808597087860107421875</LongitudeDegrees>
            </Position>
            <AltitudeMeters>30.3999996185302734375</AltitudeMeters>
            <DistanceMeters>NAN</DistanceMeters>
          </Trackpoint>
          <Trackpoint>
            <Time>2022-07-05T11:01:02.000Z</Time>
            <Position>
              <LatitudeDegrees>44.45082432590425014495849609375</LatitudeDegrees>
              <LongitudeDegrees>-1.19775996543467044830322265625</LongitudeDegrees>
            </Position>
            <AltitudeMeters>30.200000762939453125</AltitudeMeters>
            <DistanceMeters>NAN</DistanceMeters>
          </Trackpoint>
          <Trackpoint>
            <Time>2022-07-05T11:01:04.000Z</Time>
            <Position>
              <LatitudeDegrees>44.4507799856364727020263671875</LatitudeDegrees>
              <LongitudeDegrees>-1.1977392621338367462158203125</LongitudeDegrees>
            </Position>
            <AltitudeMeters>30.3999996185302734375</AltitudeMeters>
            <DistanceMeters>NAN</DistanceMeters>
          </Trackpoint>
          <Trackpoint>
            <Time>2022-07-05T11:01:06.000Z</Time>
            <Position>
              <LatitudeDegrees>44.45073531009256839752197265625</LatitudeDegrees>
              <LongitudeDegrees>-1.19767270982265472412109375</LongitudeDegrees>
            </Position>
            <AltitudeMeters>30.3999996185302734375</AltitudeMeters>
            <DistanceMeters>NAN</DistanceMeters>
          </Trackpoint>
          <Trackpoint>
            <Time>2022-07-05T11:01:09.000Z</Time>
            <Position>
              <LatitudeDegrees>44.45069256238639354705810546875</LatitudeDegrees>
              <LongitudeDegrees>-1.19757556356489658355712890625</LongitudeDegrees>
            </Position>
            <AltitudeMeters>30.3999996185302734375</AltitudeMeters>
            <DistanceMeters>NAN</DistanceMeters>
          </Trackpoint>
          <Trackpoint>
            <Time>2022-07-05T11:01:11.000Z</Time>
            <Position>
              <LatitudeDegrees>44.450683929026126861572265625</LatitudeDegrees>
              <LongitudeDegrees>-1.197496019303798675537109375</LongitudeDegrees>
            </Position>
            <AltitudeMeters>30.3999996185302734375</AltitudeMeters>
            <DistanceMeters>NAN</DistanceMeters>
          </Trackpoint>
          <Trackpoint>
            <Time>2022-07-05T11:01:20.000Z</Time>
            <Position>
              <LatitudeDegrees>44.4506715238094329833984375</LatitudeDegrees>
              <LongitudeDegrees>-1.19723341427743434906005859375</LongitudeDegrees>
            </Position>
            <AltitudeMeters>30</AltitudeMeters>
            <DistanceMeters>NAN</DistanceMeters>
          </Trackpoint>
          <Trackpoint>
            <Time>2022-07-05T11:01:26.000Z</Time>
            <Position>
              <LatitudeDegrees>44.4506810791790485382080078125</LatitudeDegrees>
              <LongitudeDegrees>-1.1971686221659183502197265625</LongitudeDegrees>
            </Position>
            <AltitudeMeters>30</AltitudeMeters>
            <DistanceMeters>NAN</DistanceMeters>
          </Trackpoint>
          <Trackpoint>
            <Time>2022-07-05T12:56:56.000Z</Time>
            <Position>
              <LatitudeDegrees>44.450687281787395477294921875</LatitudeDegrees>
              <LongitudeDegrees>-1.1972189135849475860595703125</LongitudeDegrees>
            </Position>
            <AltitudeMeters>34.40000152587890625</AltitudeMeters>
            <DistanceMeters>NAN</DistanceMeters>
          </Trackpoint>
          <Trackpoint>
            <Time>2022-07-05T12:56:57.000Z</Time>
            <Position>
              <LatitudeDegrees>44.45068837143480777740478515625</LatitudeDegrees>
              <LongitudeDegrees>-1.1972402036190032958984375</LongitudeDegrees>
            </Position>
            <AltitudeMeters>34.40000152587890625</AltitudeMeters>
            <DistanceMeters>NAN</DistanceMeters>
          </Trackpoint>
          <Trackpoint>
            <Time>2022-07-05T12:57:03.000Z</Time>
            <Position>
              <LatitudeDegrees>44.450662136077880859375</LatitudeDegrees>
              <LongitudeDegrees>-1.1974016390740871429443359375</LongitudeDegrees>
            </Position>
            <AltitudeMeters>34.40000152587890625</AltitudeMeters>
            <DistanceMeters>NAN</DistanceMeters>
          </Trackpoint>
          <Trackpoint>
            <Time>2022-07-05T12:57:11.000Z</Time>
            <Position>
              <LatitudeDegrees>44.4505939073860645294189453125</LatitudeDegrees>
              <LongitudeDegrees>-1.1975421197712421417236328125</LongitudeDegrees>
            </Position>
            <AltitudeMeters>34</AltitudeMeters>
            <DistanceMeters>NAN</DistanceMeters>
          </Trackpoint>
          <Trackpoint>
            <Time>2022-07-05T12:57:14.000Z</Time>
            <Position>
              <LatitudeDegrees>44.450559876859188079833984375</LatitudeDegrees>
              <LongitudeDegrees>-1.1975622363388538360595703125</LongitudeDegrees>
            </Position>
            <AltitudeMeters>34</AltitudeMeters>
            <DistanceMeters>NAN</DistanceMeters>
          </Trackpoint>
          <Trackpoint>
            <Time>2022-07-05T12:57:16.000Z</Time>
            <Position>
              <LatitudeDegrees>44.45052341558039188385009765625</LatitudeDegrees>
              <LongitudeDegrees>-1.19755066931247711181640625</LongitudeDegrees>
            </Position>
            <AltitudeMeters>34</AltitudeMeters>
            <DistanceMeters>NAN</DistanceMeters>
          </Trackpoint>
          <Trackpoint>
            <Time>2022-07-05T12:57:23.000Z</Time>
            <Position>
              <LatitudeDegrees>44.4503954239189624786376953125</LatitudeDegrees>
              <LongitudeDegrees>-1.197469532489776611328125</LongitudeDegrees>
            </Position>
            <AltitudeMeters>33.59999847412109375</AltitudeMeters>
            <DistanceMeters>NAN</DistanceMeters>
          </Trackpoint>
          <Trackpoint>
            <Time>2022-07-05T12:57:26.000Z</Time>
            <Position>
              <LatitudeDegrees>44.45033012889325618743896484375</LatitudeDegrees>
              <LongitudeDegrees>-1.19744346477091312408447265625</LongitudeDegrees>
            </Position>
            <AltitudeMeters>33.40000152587890625</AltitudeMeters>
            <DistanceMeters>NAN</DistanceMeters>
          </Trackpoint>
          <Trackpoint>
            <Time>2022-07-05T12:57:29.000Z</Time>
            <Position>
              <LatitudeDegrees>44.45026424713432788848876953125</LatitudeDegrees>
              <LongitudeDegrees>-1.19740993715822696685791015625</LongitudeDegrees>
            </Position>
            <AltitudeMeters>33.799999237060546875</AltitudeMeters>
            <DistanceMeters>NAN</DistanceMeters>
          </Trackpoint>
          <Trackpoint>
            <Time>2022-07-05T12:57:35.000Z</Time>
            <Position>
              <LatitudeDegrees>44.450133740901947021484375</LatitudeDegrees>
              <LongitudeDegrees>-1.1973490007221698760986328125</LongitudeDegrees>
            </Position>
            <AltitudeMeters>34</AltitudeMeters>
            <DistanceMeters>NAN</DistanceMeters>
          </Trackpoint>
          <Trackpoint>
            <Time>2022-07-05T12:57:40.000Z</Time>
            <Position>
              <LatitudeDegrees>44.45001379586756229400634765625</LatitudeDegrees>
              <LongitudeDegrees>-1.1973241902887821197509765625</LongitudeDegrees>
            </Position>
            <AltitudeMeters>33.799999237060546875</AltitudeMeters>
            <DistanceMeters>NAN</DistanceMeters>
          </Trackpoint>
          <Trackpoint>
            <Time>2022-07-05T12:57:48.000Z</Time>
            <Position>
              <LatitudeDegrees>44.44980843923985958099365234375</LatitudeDegrees>
              <LongitudeDegrees>-1.1972122080624103546142578125</LongitudeDegrees>
            </Position>
            <AltitudeMeters>33.59999847412109375</AltitudeMeters>
            <DistanceMeters>NAN</DistanceMeters>
          </Trackpoint>
          <Trackpoint>
            <Time>2022-07-05T12:57:55.000Z</Time>
            <Position>
              <LatitudeDegrees>44.4496199302375316619873046875</LatitudeDegrees>
              <LongitudeDegrees>-1.197148673236370086669921875</LongitudeDegrees>
            </Position>
            <AltitudeMeters>33.59999847412109375</AltitudeMeters>
            <DistanceMeters>NAN</DistanceMeters>
          </Trackpoint>
          <Trackpoint>
            <Time>2022-07-05T12:58:02.000Z</Time>
            <Position>
              <LatitudeDegrees>44.44944265298545360565185546875</LatitudeDegrees>
              <LongitudeDegrees>-1.1971557140350341796875</LongitudeDegrees>
            </Position>
            <AltitudeMeters>33.799999237060546875</AltitudeMeters>
            <DistanceMeters>NAN</DistanceMeters>
          </Trackpoint>
          <Trackpoint>
            <Time>2022-07-05T12:58:10.000Z</Time>
            <Position>
              <LatitudeDegrees>44.44926613010466098785400390625</LatitudeDegrees>
              <LongitudeDegrees>-1.1970891617238521575927734375</LongitudeDegrees>
            </Position>
            <AltitudeMeters>33.59999847412109375</AltitudeMeters>
            <DistanceMeters>NAN</DistanceMeters>
          </Trackpoint>
          <Trackpoint>
            <Time>2022-07-05T12:58:18.000Z</Time>
            <Position>
              <LatitudeDegrees>44.44903160445392131805419921875</LatitudeDegrees>
              <LongitudeDegrees>-1.19697709567844867706298828125</LongitudeDegrees>
            </Position>
            <AltitudeMeters>33.59999847412109375</AltitudeMeters>
            <DistanceMeters>NAN</DistanceMeters>
          </Trackpoint>
          <Trackpoint>
            <Time>2022-07-05T12:58:26.000Z</Time>
            <Position>
              <LatitudeDegrees>44.44875768385827541351318359375</LatitudeDegrees>
              <LongitudeDegrees>-1.1968641914427280426025390625</LongitudeDegrees>
            </Position>
            <AltitudeMeters>33.40000152587890625</AltitudeMeters>
            <DistanceMeters>NAN</DistanceMeters>
          </Trackpoint>
          <Trackpoint>
            <Time>2022-07-05T12:58:31.000Z</Time>
            <Position>
              <LatitudeDegrees>44.44856573827564716339111328125</LatitudeDegrees>
              <LongitudeDegrees>-1.19674466550350189208984375</LongitudeDegrees>
            </Position>
            <AltitudeMeters>33.40000152587890625</AltitudeMeters>
            <DistanceMeters>NAN</DistanceMeters>
          </Trackpoint>
          <Trackpoint>
            <Time>2022-07-05T12:58:32.000Z</Time>
            <Position>
              <LatitudeDegrees>44.4485212303698062896728515625</LatitudeDegrees>
              <LongitudeDegrees>-1.19671390391886234283447265625</LongitudeDegrees>
            </Position>
            <AltitudeMeters>33.200000762939453125</AltitudeMeters>
            <DistanceMeters>NAN</DistanceMeters>
          </Trackpoint>
          <Trackpoint>
            <Time>2022-07-05T12:58:38.000Z</Time>
            <Position>
              <LatitudeDegrees>44.4483401812613010406494140625</LatitudeDegrees>
              <LongitudeDegrees>-1.19650536216795444488525390625</LongitudeDegrees>
            </Position>
            <AltitudeMeters>33.200000762939453125</AltitudeMeters>
            <DistanceMeters>NAN</DistanceMeters>
          </Trackpoint>
          <Trackpoint>
            <Time>2022-07-05T12:58:45.000Z</Time>
            <Position>
              <LatitudeDegrees>44.448064751923084259033203125</LatitudeDegrees>
              <LongitudeDegrees>-1.1962791346013545989990234375</LongitudeDegrees>
            </Position>
            <AltitudeMeters>32.59999847412109375</AltitudeMeters>
            <DistanceMeters>NAN</DistanceMeters>
          </Trackpoint>
          <Trackpoint>
            <Time>2022-07-05T12:58:50.000Z</Time>
            <Position>
              <LatitudeDegrees>44.44787775166332721710205078125</LatitudeDegrees>
              <LongitudeDegrees>-1.19624669663608074188232421875</LongitudeDegrees>
            </Position>
            <AltitudeMeters>32.59999847412109375</AltitudeMeters>
            <DistanceMeters>NAN</DistanceMeters>
          </Trackpoint>
          <Trackpoint>
            <Time>2022-07-05T12:58:56.000Z</Time>
            <Position>
              <LatitudeDegrees>44.44767172448337078094482421875</LatitudeDegrees>
              <LongitudeDegrees>-1.19625139050185680389404296875</LongitudeDegrees>
            </Position>
            <AltitudeMeters>32.799999237060546875</AltitudeMeters>
            <DistanceMeters>NAN</DistanceMeters>
          </Trackpoint>
          <Trackpoint>
            <Time>2022-07-05T12:59:03.000Z</Time>
            <Position>
              <LatitudeDegrees>44.44748933427035808563232421875</LatitudeDegrees>
              <LongitudeDegrees>-1.1960907094180583953857421875</LongitudeDegrees>
            </Position>
            <AltitudeMeters>32.40000152587890625</AltitudeMeters>
            <DistanceMeters>NAN</DistanceMeters>
          </Trackpoint>
          <Trackpoint>
            <Time>2022-07-05T12:59:04.000Z</Time>
            <Position>
              <LatitudeDegrees>44.4474607519805431365966796875</LatitudeDegrees>
              <LongitudeDegrees>-1.1960558407008647918701171875</LongitudeDegrees>
            </Position>
            <AltitudeMeters>32.40000152587890625</AltitudeMeters>
            <DistanceMeters>NAN</DistanceMeters>
          </Trackpoint>
          <Trackpoint>
            <Time>2022-07-05T12:59:09.000Z</Time>
            <Position>
              <LatitudeDegrees>44.447347931563854217529296875</LatitudeDegrees>
              <LongitudeDegrees>-1.19590974412858486175537109375</LongitudeDegrees>
            </Position>
            <AltitudeMeters>32</AltitudeMeters>
            <DistanceMeters>NAN</DistanceMeters>
          </Trackpoint>
          <Trackpoint>
            <Time>2022-07-05T12:59:10.000Z</Time>
            <Position>
              <LatitudeDegrees>44.4473450817167758941650390625</LatitudeDegrees>
              <LongitudeDegrees>-1.1958845146000385284423828125</LongitudeDegrees>
            </Position>
            <AltitudeMeters>32</AltitudeMeters>
            <DistanceMeters>NAN</DistanceMeters>
          </Trackpoint>
          <Trackpoint>
            <Time>2022-07-05T12:59:12.000Z</Time>
            <Position>
              <LatitudeDegrees>44.44732454605400562286376953125</LatitudeDegrees>
              <LongitudeDegrees>-1.19581636972725391387939453125</LongitudeDegrees>
            </Position>
            <AltitudeMeters>32</AltitudeMeters>
            <DistanceMeters>NAN</DistanceMeters>
          </Trackpoint>
          <Trackpoint>
            <Time>2022-07-05T12:59:15.000Z</Time>
            <Position>
              <LatitudeDegrees>44.447248019278049468994140625</LatitudeDegrees>
              <LongitudeDegrees>-1.19575249962508678436279296875</LongitudeDegrees>
            </Position>
            <AltitudeMeters>32</AltitudeMeters>
            <DistanceMeters>NAN</DistanceMeters>
          </Trackpoint>
          <Trackpoint>
            <Time>2022-07-05T12:59:20.000Z</Time>
            <Position>
              <LatitudeDegrees>44.44713058881461620330810546875</LatitudeDegrees>
              <LongitudeDegrees>-1.19563548825681209564208984375</LongitudeDegrees>
            </Position>
            <AltitudeMeters>32.200000762939453125</AltitudeMeters>
            <DistanceMeters>NAN</DistanceMeters>
          </Trackpoint>
          <Trackpoint>
            <Time>2022-07-05T12:59:23.000Z</Time>
            <Position>
              <LatitudeDegrees>44.44704190827906131744384765625</LatitudeDegrees>
              <LongitudeDegrees>-1.19555686600506305694580078125</LongitudeDegrees>
            </Position>
            <AltitudeMeters>32.40000152587890625</AltitudeMeters>
            <DistanceMeters>NAN</DistanceMeters>
          </Trackpoint>
          <Trackpoint>
            <Time>2022-07-05T12:59:25.000Z</Time>
            <Position>
              <LatitudeDegrees>44.44698725827038288116455078125</LatitudeDegrees>
              <LongitudeDegrees>-1.19553658179938793182373046875</LongitudeDegrees>
            </Position>
            <AltitudeMeters>32.59999847412109375</AltitudeMeters>
            <DistanceMeters>NAN</DistanceMeters>
          </Trackpoint>
          <Trackpoint>
            <Time>2022-07-05T12:59:34.000Z</Time>
            <Position>
              <LatitudeDegrees>44.4467099010944366455078125</LatitudeDegrees>
              <LongitudeDegrees>-1.19533608667552471160888671875</LongitudeDegrees>
            </Position>
            <AltitudeMeters>32.40000152587890625</AltitudeMeters>
            <DistanceMeters>NAN</DistanceMeters>
          </Trackpoint>
          <Trackpoint>
            <Time>2022-07-05T12:59:37.000Z</Time>
            <Position>
              <LatitudeDegrees>44.4466326199471950531005859375</LatitudeDegrees>
              <LongitudeDegrees>-1.19524061679840087890625</LongitudeDegrees>
            </Position>
            <AltitudeMeters>32.40000152587890625</AltitudeMeters>
            <DistanceMeters>NAN</DistanceMeters>
          </Trackpoint>
          <Trackpoint>
            <Time>2022-07-05T12:59:42.000Z</Time>
            <Position>
              <LatitudeDegrees>44.44647856056690216064453125</LatitudeDegrees>
              <LongitudeDegrees>-1.195027716457843780517578125</LongitudeDegrees>
            </Position>
            <AltitudeMeters>32.40000152587890625</AltitudeMeters>
            <DistanceMeters>NAN</DistanceMeters>
          </Trackpoint>
          <Trackpoint>
            <Time>2022-07-05T12:59:49.000Z</Time>
            <Position>
              <LatitudeDegrees>44.44625417701900005340576171875</LatitudeDegrees>
              <LongitudeDegrees>-1.1947935260832309722900390625</LongitudeDegrees>
            </Position>
            <AltitudeMeters>32.200000762939453125</AltitudeMeters>
            <DistanceMeters>NAN</DistanceMeters>
          </Trackpoint>
          <Trackpoint>
            <Time>2022-07-05T12:59:50.000Z</Time>
            <Position>
              <LatitudeDegrees>44.4462309591472148895263671875</LatitudeDegrees>
              <LongitudeDegrees>-1.1947591602802276611328125</LongitudeDegrees>
            </Position>
            <AltitudeMeters>32.200000762939453125</AltitudeMeters>
            <DistanceMeters>NAN</DistanceMeters>
          </Trackpoint>
          <Trackpoint>
            <Time>2022-07-05T12:59:51.000Z</Time>
            <Position>
              <LatitudeDegrees>44.446205310523509979248046875</LatitudeDegrees>
              <LongitudeDegrees>-1.19472227990627288818359375</LongitudeDegrees>
            </Position>
            <AltitudeMeters>32.200000762939453125</AltitudeMeters>
            <DistanceMeters>NAN</DistanceMeters>
          </Trackpoint>
          <Trackpoint>
            <Time>2022-07-05T12:59:52.000Z</Time>
            <Position>
              <LatitudeDegrees>44.44616113789379596710205078125</LatitudeDegrees>
              <LongitudeDegrees>-1.19468313641846179962158203125</LongitudeDegrees>
            </Position>
            <AltitudeMeters>32.200000762939453125</AltitudeMeters>
            <DistanceMeters>NAN</DistanceMeters>
          </Trackpoint>
          <Trackpoint>
            <Time>2022-07-05T12:59:53.000Z</Time>
            <Position>
              <LatitudeDegrees>44.4461203180253505706787109375</LatitudeDegrees>
              <LongitudeDegrees>-1.19464323855936527252197265625</LongitudeDegrees>
            </Position>
            <AltitudeMeters>32.200000762939453125</AltitudeMeters>
            <DistanceMeters>NAN</DistanceMeters>
          </Trackpoint>
          <Trackpoint>
            <Time>2022-07-05T12:59:58.000Z</Time>
            <Position>
              <LatitudeDegrees>44.4459516741335391998291015625</LatitudeDegrees>
              <LongitudeDegrees>-1.1945779435336589813232421875</LongitudeDegrees>
            </Position>
            <AltitudeMeters>32.200000762939453125</AltitudeMeters>
            <DistanceMeters>NAN</DistanceMeters>
          </Trackpoint>
          <Trackpoint>
            <Time>2022-07-05T13:00:04.000Z</Time>
            <Position>
              <LatitudeDegrees>44.44578663446009159088134765625</LatitudeDegrees>
              <LongitudeDegrees>-1.194546930491924285888671875</LongitudeDegrees>
            </Position>
            <AltitudeMeters>32.59999847412109375</AltitudeMeters>
            <DistanceMeters>NAN</DistanceMeters>
          </Trackpoint>
          <Trackpoint>
            <Time>2022-07-05T13:00:08.000Z</Time>
            <Position>
              <LatitudeDegrees>44.44567699916660785675048828125</LatitudeDegrees>
              <LongitudeDegrees>-1.19454282335937023162841796875</LongitudeDegrees>
            </Position>
            <AltitudeMeters>32.59999847412109375</AltitudeMeters>
            <DistanceMeters>NAN</DistanceMeters>
          </Trackpoint>
          <Trackpoint>
            <Time>2022-07-05T13:00:10.000Z</Time>
            <Position>
              <LatitudeDegrees>44.44561044685542583465576171875</LatitudeDegrees>
              <LongitudeDegrees>-1.1945239640772342681884765625</LongitudeDegrees>
            </Position>
            <AltitudeMeters>32.59999847412109375</AltitudeMeters>
            <DistanceMeters>NAN</DistanceMeters>
          </Trackpoint>
          <Trackpoint>
            <Time>2022-07-05T13:00:16.000Z</Time>
            <Position>
              <LatitudeDegrees>44.4454034976661205291748046875</LatitudeDegrees>
              <LongitudeDegrees>-1.19444073177874088287353515625</LongitudeDegrees>
            </Position>
            <AltitudeMeters>32.59999847412109375</AltitudeMeters>
            <DistanceMeters>NAN</DistanceMeters>
          </Trackpoint>
          <Trackpoint>
            <Time>2022-07-05T13:00:22.000Z</Time>
            <Position>
              <LatitudeDegrees>44.44522487930953502655029296875</LatitudeDegrees>
              <LongitudeDegrees>-1.194329001009464263916015625</LongitudeDegrees>
            </Position>
            <AltitudeMeters>32.59999847412109375</AltitudeMeters>
            <DistanceMeters>NAN</DistanceMeters>
          </Trackpoint>
          <Trackpoint>
            <Time>2022-07-05T13:00:26.000Z</Time>
            <Position>
              <LatitudeDegrees>44.44509244523942470550537109375</LatitudeDegrees>
              <LongitudeDegrees>-1.1942835710942745208740234375</LongitudeDegrees>
            </Position>
            <AltitudeMeters>32.59999847412109375</AltitudeMeters>
            <DistanceMeters>NAN</DistanceMeters>
          </Trackpoint>
          <Trackpoint>
            <Time>2022-07-05T13:00:31.000Z</Time>
            <Position>
              <LatitudeDegrees>44.44491592235863208770751953125</LatitudeDegrees>
              <LongitudeDegrees>-1.1942200362682342529296875</LongitudeDegrees>
            </Position>
            <AltitudeMeters>32.40000152587890625</AltitudeMeters>
            <DistanceMeters>NAN</DistanceMeters>
          </Trackpoint>
          <Trackpoint>
            <Time>2022-07-05T13:00:32.000Z</Time>
            <Position>
              <LatitudeDegrees>44.44488323293626308441162109375</LatitudeDegrees>
              <LongitudeDegrees>-1.1942302621901035308837890625</LongitudeDegrees>
            </Position>
            <AltitudeMeters>32.40000152587890625</AltitudeMeters>
            <DistanceMeters>NAN</DistanceMeters>
          </Trackpoint>
          <Trackpoint>
            <Time>2022-07-05T13:00:34.000Z</Time>
            <Position>
              <LatitudeDegrees>44.44484048523008823394775390625</LatitudeDegrees>
              <LongitudeDegrees>-1.19427745230495929718017578125</LongitudeDegrees>
            </Position>
            <AltitudeMeters>32.59999847412109375</AltitudeMeters>
            <DistanceMeters>NAN</DistanceMeters>
          </Trackpoint>
          <Trackpoint>
            <Time>2022-07-05T13:00:38.000Z</Time>
            <Position>
              <LatitudeDegrees>44.44478667341172695159912109375</LatitudeDegrees>
              <LongitudeDegrees>-1.1943516321480274200439453125</LongitudeDegrees>
            </Position>
            <AltitudeMeters>32.799999237060546875</AltitudeMeters>
            <DistanceMeters>NAN</DistanceMeters>
          </Trackpoint>
          <Trackpoint>
            <Time>2022-07-05T13:00:39.000Z</Time>
            <Position>
              <LatitudeDegrees>44.4447601027786731719970703125</LatitudeDegrees>
              <LongitudeDegrees>-1.19435842148959636688232421875</LongitudeDegrees>
            </Position>
            <AltitudeMeters>32.799999237060546875</AltitudeMeters>
            <DistanceMeters>NAN</DistanceMeters>
          </Trackpoint>
          <Trackpoint>
            <Time>2022-07-05T13:00:44.000Z</Time>
            <Position>
              <LatitudeDegrees>44.44465943612158298492431640625</LatitudeDegrees>
              <LongitudeDegrees>-1.19445271790027618408203125</LongitudeDegrees>
            </Position>
            <AltitudeMeters>33.200000762939453125</AltitudeMeters>
            <DistanceMeters>NAN</DistanceMeters>
          </Trackpoint>
          <Trackpoint>
            <Time>2022-07-05T13:00:45.000Z</Time>
            <Position>
              <LatitudeDegrees>44.444651640951633453369140625</LatitudeDegrees>
              <LongitudeDegrees>-1.1944750137627124786376953125</LongitudeDegrees>
            </Position>
            <AltitudeMeters>33.200000762939453125</AltitudeMeters>
            <DistanceMeters>NAN</DistanceMeters>
          </Trackpoint>
          <Trackpoint>
            <Time>2022-07-05T13:00:47.000Z</Time>
            <Position>
              <LatitudeDegrees>44.4446353800594806671142578125</LatitudeDegrees>
              <LongitudeDegrees>-1.19454885832965373992919921875</LongitudeDegrees>
            </Position>
            <AltitudeMeters>33.40000152587890625</AltitudeMeters>
            <DistanceMeters>NAN</DistanceMeters>
          </Trackpoint>
          <Trackpoint>
            <Time>2022-07-05T13:00:49.000Z</Time>
            <Position>
              <LatitudeDegrees>44.44461115635931491851806640625</LatitudeDegrees>
              <LongitudeDegrees>-1.194627396762371063232421875</LongitudeDegrees>
            </Position>
            <AltitudeMeters>33.40000152587890625</AltitudeMeters>
            <DistanceMeters>NAN</DistanceMeters>
          </Trackpoint>
          <Trackpoint>
            <Time>2022-07-05T13:00:56.000Z</Time>
            <Position>
              <LatitudeDegrees>44.44460830651223659515380859375</LatitudeDegrees>
              <LongitudeDegrees>-1.19490290991961956024169921875</LongitudeDegrees>
            </Position>
            <AltitudeMeters>33.799999237060546875</AltitudeMeters>
            <DistanceMeters>NAN</DistanceMeters>
          </Trackpoint>
          <Trackpoint>
            <Time>2022-07-05T13:01:02.000Z</Time>
            <Position>
              <LatitudeDegrees>44.444553069770336151123046875</LatitudeDegrees>
              <LongitudeDegrees>-1.1951448954641819000244140625</LongitudeDegrees>
            </Position>
            <AltitudeMeters>34</AltitudeMeters>
            <DistanceMeters>NAN</DistanceMeters>
          </Trackpoint>
          <Trackpoint>
            <Time>2022-07-05T13:01:08.000Z</Time>
            <Position>
              <LatitudeDegrees>44.4445388205349445343017578125</LatitudeDegrees>
              <LongitudeDegrees>-1.19529702700674533843994140625</LongitudeDegrees>
            </Position>
            <AltitudeMeters>33.799999237060546875</AltitudeMeters>
            <DistanceMeters>NAN</DistanceMeters>
          </Trackpoint>
          <Trackpoint>
            <Time>2022-07-05T13:01:09.000Z</Time>
            <Position>
              <LatitudeDegrees>44.44454125128686428070068359375</LatitudeDegrees>
              <LongitudeDegrees>-1.19530004449188709259033203125</LongitudeDegrees>
            </Position>
            <AltitudeMeters>34</AltitudeMeters>
            <DistanceMeters>NAN</DistanceMeters>
          </Trackpoint>
          <Trackpoint>
            <Time>2022-07-05T13:01:13.000Z</Time>
            <Position>
              <LatitudeDegrees>44.44450370036065578460693359375</LatitudeDegrees>
              <LongitudeDegrees>-1.19538704864680767059326171875</LongitudeDegrees>
            </Position>
            <AltitudeMeters>34.200000762939453125</AltitudeMeters>
            <DistanceMeters>NAN</DistanceMeters>
          </Trackpoint>
          <Trackpoint>
            <Time>2022-07-05T13:01:16.000Z</Time>
            <Position>
              <LatitudeDegrees>44.4445170275866985321044921875</LatitudeDegrees>
              <LongitudeDegrees>-1.19549483992159366607666015625</LongitudeDegrees>
            </Position>
            <AltitudeMeters>34.40000152587890625</AltitudeMeters>
            <DistanceMeters>NAN</DistanceMeters>
          </Trackpoint>
          <Trackpoint>
            <Time>2022-07-05T13:01:18.000Z</Time>
            <Position>
              <LatitudeDegrees>44.44453923963010311126708984375</LatitudeDegrees>
              <LongitudeDegrees>-1.19556340388953685760498046875</LongitudeDegrees>
            </Position>
            <AltitudeMeters>34.40000152587890625</AltitudeMeters>
            <DistanceMeters>NAN</DistanceMeters>
          </Trackpoint>
          <Trackpoint>
            <Time>2022-07-05T13:01:25.000Z</Time>
            <Position>
              <LatitudeDegrees>44.4445636309683322906494140625</LatitudeDegrees>
              <LongitudeDegrees>-1.1958301998674869537353515625</LongitudeDegrees>
            </Position>
            <AltitudeMeters>34.200000762939453125</AltitudeMeters>
            <DistanceMeters>NAN</DistanceMeters>
          </Trackpoint>
          <Trackpoint>
            <Time>2022-07-05T13:01:30.000Z</Time>
            <Position>
              <LatitudeDegrees>44.4444586895406246185302734375</LatitudeDegrees>
              <LongitudeDegrees>-1.19605994783341884613037109375</LongitudeDegrees>
            </Position>
            <AltitudeMeters>33.40000152587890625</AltitudeMeters>
            <DistanceMeters>NAN</DistanceMeters>
          </Trackpoint>
          <Trackpoint>
            <Time>2022-07-05T13:01:31.000Z</Time>
            <Position>
              <LatitudeDegrees>44.44441921077668666839599609375</LatitudeDegrees>
              <LongitudeDegrees>-1.19610521011054515838623046875</LongitudeDegrees>
            </Position>
            <AltitudeMeters>33.200000762939453125</AltitudeMeters>
            <DistanceMeters>NAN</DistanceMeters>
          </Trackpoint>
          <Trackpoint>
            <Time>2022-07-05T13:01:32.000Z</Time>
            <Position>
              <LatitudeDegrees>44.44436774589121341705322265625</LatitudeDegrees>
              <LongitudeDegrees>-1.19614183902740478515625</LongitudeDegrees>
            </Position>
            <AltitudeMeters>32.799999237060546875</AltitudeMeters>
            <DistanceMeters>NAN</DistanceMeters>
          </Trackpoint>
          <Trackpoint>
            <Time>2022-07-05T13:01:33.000Z</Time>
            <Position>
              <LatitudeDegrees>44.4443255849182605743408203125</LatitudeDegrees>
              <LongitudeDegrees>-1.19614946655929088592529296875</LongitudeDegrees>
            </Position>
            <AltitudeMeters>32.799999237060546875</AltitudeMeters>
            <DistanceMeters>NAN</DistanceMeters>
          </Trackpoint>
          <Trackpoint>
            <Time>2022-07-05T13:01:38.000Z</Time>
            <Position>
              <LatitudeDegrees>44.4442125968635082244873046875</LatitudeDegrees>
              <LongitudeDegrees>-1.19605399668216705322265625</LongitudeDegrees>
            </Position>
            <AltitudeMeters>32.59999847412109375</AltitudeMeters>
            <DistanceMeters>NAN</DistanceMeters>
          </Trackpoint>
          <Trackpoint>
            <Time>2022-07-05T13:01:39.000Z</Time>
            <Position>
              <LatitudeDegrees>44.44424302317202091217041015625</LatitudeDegrees>
              <LongitudeDegrees>-1.19602574966847896575927734375</LongitudeDegrees>
            </Position>
            <AltitudeMeters>32.59999847412109375</AltitudeMeters>
            <DistanceMeters>NAN</DistanceMeters>
          </Trackpoint>
          <Trackpoint>
            <Time>2022-07-05T13:01:41.000Z</Time>
            <Position>
              <LatitudeDegrees>44.44424654357135295867919921875</LatitudeDegrees>
              <LongitudeDegrees>-1.1959669925272464752197265625</LongitudeDegrees>
            </Position>
            <AltitudeMeters>32.59999847412109375</AltitudeMeters>
            <DistanceMeters>NAN</DistanceMeters>
          </Trackpoint>
          <Trackpoint>
            <Time>2022-07-05T13:01:46.000Z</Time>
            <Position>
              <LatitudeDegrees>44.44414478726685047149658203125</LatitudeDegrees>
              <LongitudeDegrees>-1.19588376022875308990478515625</LongitudeDegrees>
            </Position>
            <AltitudeMeters>33.200000762939453125</AltitudeMeters>
            <DistanceMeters>NAN</DistanceMeters>
          </Trackpoint>
          <Trackpoint>
            <Time>2022-07-05T13:01:51.000Z</Time>
            <Position>
              <LatitudeDegrees>44.44403062574565410614013671875</LatitudeDegrees>
              <LongitudeDegrees>-1.1958347260951995849609375</LongitudeDegrees>
            </Position>
            <AltitudeMeters>33.59999847412109375</AltitudeMeters>
            <DistanceMeters>NAN</DistanceMeters>
          </Trackpoint>
          <Trackpoint>
            <Time>2022-07-05T13:01:54.000Z</Time>
            <Position>
              <LatitudeDegrees>44.4439809210598468780517578125</LatitudeDegrees>
              <LongitudeDegrees>-1.19579642079770565032958984375</LongitudeDegrees>
            </Position>
            <AltitudeMeters>34.200000762939453125</AltitudeMeters>
            <DistanceMeters>NAN</DistanceMeters>
          </Trackpoint>
          <Trackpoint>
            <Time>2022-07-05T13:01:56.000Z</Time>
            <Position>
              <LatitudeDegrees>44.4439487345516681671142578125</LatitudeDegrees>
              <LongitudeDegrees>-1.19576808996498584747314453125</LongitudeDegrees>
            </Position>
            <AltitudeMeters>34.40000152587890625</AltitudeMeters>
            <DistanceMeters>NAN</DistanceMeters>
          </Trackpoint>
          <Trackpoint>
            <Time>2022-07-05T13:02:01.000Z</Time>
            <Position>
              <LatitudeDegrees>44.44384186528623104095458984375</LatitudeDegrees>
              <LongitudeDegrees>-1.1956799961626529693603515625</LongitudeDegrees>
            </Position>
            <AltitudeMeters>35.200000762939453125</AltitudeMeters>
            <DistanceMeters>NAN</DistanceMeters>
          </Trackpoint>
          <Trackpoint>
            <Time>2022-07-05T13:02:02.000Z</Time>
            <Position>
              <LatitudeDegrees>44.4438340701162815093994140625</LatitudeDegrees>
              <LongitudeDegrees>-1.19567689485847949981689453125</LongitudeDegrees>
            </Position>
            <AltitudeMeters>35.40000152587890625</AltitudeMeters>
            <DistanceMeters>NAN</DistanceMeters>
          </Trackpoint>
          <Trackpoint>
            <Time>2022-07-05T13:02:05.000Z</Time>
            <Position>
              <LatitudeDegrees>44.443828202784061431884765625</LatitudeDegrees>
              <LongitudeDegrees>-1.195668093860149383544921875</LongitudeDegrees>
            </Position>
            <AltitudeMeters>35.799999237060546875</AltitudeMeters>
            <DistanceMeters>NAN</DistanceMeters>
          </Trackpoint>
          <Trackpoint>
            <Time>2022-07-05T13:02:07.000Z</Time>
            <Position>
              <LatitudeDegrees>44.44378436543047428131103515625</LatitudeDegrees>
              <LongitudeDegrees>-1.19564630091190338134765625</LongitudeDegrees>
            </Position>
            <AltitudeMeters>36</AltitudeMeters>
            <DistanceMeters>NAN</DistanceMeters>
          </Trackpoint>
          <Trackpoint>
            <Time>2022-07-05T13:02:10.000Z</Time>
            <Position>
              <LatitudeDegrees>44.44368998520076274871826171875</LatitudeDegrees>
              <LongitudeDegrees>-1.19565443135797977447509765625</LongitudeDegrees>
            </Position>
            <AltitudeMeters>36.40000152587890625</AltitudeMeters>
            <DistanceMeters>NAN</DistanceMeters>
          </Trackpoint>
          <Trackpoint>
            <Time>2022-07-05T13:02:14.000Z</Time>
            <Position>
              <LatitudeDegrees>44.44363282062113285064697265625</LatitudeDegrees>
              <LongitudeDegrees>-1.19561252184212207794189453125</LongitudeDegrees>
            </Position>
            <AltitudeMeters>36.799999237060546875</AltitudeMeters>
            <DistanceMeters>NAN</DistanceMeters>
          </Trackpoint>
          <Trackpoint>
            <Time>2022-07-05T13:02:17.000Z</Time>
            <Position>
              <LatitudeDegrees>44.443630389869213104248046875</LatitudeDegrees>
              <LongitudeDegrees>-1.19561051018536090850830078125</LongitudeDegrees>
            </Position>
            <AltitudeMeters>37.200000762939453125</AltitudeMeters>
            <DistanceMeters>NAN</DistanceMeters>
          </Trackpoint>
          <Trackpoint>
            <Time>2022-07-05T13:03:19.000Z</Time>
            <Position>
              <LatitudeDegrees>44.44354983977973461151123046875</LatitudeDegrees>
              <LongitudeDegrees>-1.195541359484195709228515625</LongitudeDegrees>
            </Position>
            <AltitudeMeters>38.200000762939453125</AltitudeMeters>
            <DistanceMeters>NAN</DistanceMeters>
          </Trackpoint>
          <Trackpoint>
            <Time>2022-07-05T13:03:20.000Z</Time>
            <Position>
              <LatitudeDegrees>44.4435252808034420013427734375</LatitudeDegrees>
              <LongitudeDegrees>-1.19552685879170894622802734375</LongitudeDegrees>
            </Position>
            <AltitudeMeters>38.200000762939453125</AltitudeMeters>
            <DistanceMeters>NAN</DistanceMeters>
          </Trackpoint>
          <Trackpoint>
            <Time>2022-07-05T13:03:23.000Z</Time>
            <Position>
              <LatitudeDegrees>44.44344808347523212432861328125</LatitudeDegrees>
              <LongitudeDegrees>-1.19550406001508235931396484375</LongitudeDegrees>
            </Position>
            <AltitudeMeters>38.40000152587890625</AltitudeMeters>
            <DistanceMeters>NAN</DistanceMeters>
          </Trackpoint>
          <Trackpoint>
            <Time>2022-07-05T13:03:24.000Z</Time>
            <Position>
              <LatitudeDegrees>44.44344053976237773895263671875</LatitudeDegrees>
              <LongitudeDegrees>-1.19549031369388103485107421875</LongitudeDegrees>
            </Position>
            <AltitudeMeters>38.40000152587890625</AltitudeMeters>
            <DistanceMeters>NAN</DistanceMeters>
          </Trackpoint>
          <Trackpoint>
            <Time>2022-07-05T13:03:26.000Z</Time>
            <Position>
              <LatitudeDegrees>44.44342092610895633697509765625</LatitudeDegrees>
              <LongitudeDegrees>-1.19545578025281429290771484375</LongitudeDegrees>
            </Position>
            <AltitudeMeters>38.200000762939453125</AltitudeMeters>
            <DistanceMeters>NAN</DistanceMeters>
          </Trackpoint>
          <Trackpoint>
            <Time>2022-07-05T13:03:30.000Z</Time>
            <Position>
              <LatitudeDegrees>44.443318583071231842041015625</LatitudeDegrees>
              <LongitudeDegrees>-1.19538604281842708587646484375</LongitudeDegrees>
            </Position>
            <AltitudeMeters>38.200000762939453125</AltitudeMeters>
            <DistanceMeters>NAN</DistanceMeters>
          </Trackpoint>
          <Trackpoint>
            <Time>2022-07-05T13:03:32.000Z</Time>
            <Position>
              <LatitudeDegrees>44.4432154856622219085693359375</LatitudeDegrees>
              <LongitudeDegrees>-1.19532519020140171051025390625</LongitudeDegrees>
            </Position>
            <AltitudeMeters>37.799999237060546875</AltitudeMeters>
            <DistanceMeters>NAN</DistanceMeters>
          </Trackpoint>
          <Trackpoint>
            <Time>2022-07-05T13:03:34.000Z</Time>
            <Position>
              <LatitudeDegrees>44.44307492114603519439697265625</LatitudeDegrees>
              <LongitudeDegrees>-1.1952875554561614990234375</LongitudeDegrees>
            </Position>
            <AltitudeMeters>37.40000152587890625</AltitudeMeters>
            <DistanceMeters>NAN</DistanceMeters>
          </Trackpoint>
          <Trackpoint>
            <Time>2022-07-05T13:03:35.000Z</Time>
            <Position>
              <LatitudeDegrees>44.4429828040301799774169921875</LatitudeDegrees>
              <LongitudeDegrees>-1.195266433060169219970703125</LongitudeDegrees>
            </Position>
            <AltitudeMeters>37</AltitudeMeters>
            <DistanceMeters>NAN</DistanceMeters>
          </Trackpoint>
          <Trackpoint>
            <Time>2022-07-05T13:03:38.000Z</Time>
            <Position>
              <LatitudeDegrees>44.4427357055246829986572265625</LatitudeDegrees>
              <LongitudeDegrees>-1.1951928399503231048583984375</LongitudeDegrees>
            </Position>
            <AltitudeMeters>36</AltitudeMeters>
            <DistanceMeters>NAN</DistanceMeters>
          </Trackpoint>
          <Trackpoint>
            <Time>2022-07-05T13:03:43.000Z</Time>
            <Position>
              <LatitudeDegrees>44.44231837056577205657958984375</LatitudeDegrees>
              <LongitudeDegrees>-1.1950201727449893951416015625</LongitudeDegrees>
            </Position>
            <AltitudeMeters>34.799999237060546875</AltitudeMeters>
            <DistanceMeters>NAN</DistanceMeters>
          </Trackpoint>
          <Trackpoint>
            <Time>2022-07-05T13:03:45.000Z</Time>
            <Position>
              <LatitudeDegrees>44.44218811579048633575439453125</LatitudeDegrees>
              <LongitudeDegrees>-1.19497264735400676727294921875</LongitudeDegrees>
            </Position>
            <AltitudeMeters>34.799999237060546875</AltitudeMeters>
            <DistanceMeters>NAN</DistanceMeters>
          </Trackpoint>
          <Trackpoint>
            <Time>2022-07-05T13:03:46.000Z</Time>
            <Position>
              <LatitudeDegrees>44.4421255029737949371337890625</LatitudeDegrees>
              <LongitudeDegrees>-1.194953620433807373046875</LongitudeDegrees>
            </Position>
            <AltitudeMeters>34.59999847412109375</AltitudeMeters>
            <DistanceMeters>NAN</DistanceMeters>
          </Trackpoint>
          <Trackpoint>
            <Time>2022-07-05T13:03:48.000Z</Time>
            <Position>
              <LatitudeDegrees>44.4420195557177066802978515625</LatitudeDegrees>
              <LongitudeDegrees>-1.19495957158505916595458984375</LongitudeDegrees>
            </Position>
            <AltitudeMeters>34.40000152587890625</AltitudeMeters>
            <DistanceMeters>NAN</DistanceMeters>
          </Trackpoint>
          <Trackpoint>
            <Time>2022-07-05T13:03:51.000Z</Time>
            <Position>
              <LatitudeDegrees>44.441825263202190399169921875</LatitudeDegrees>
              <LongitudeDegrees>-1.19499511085450649261474609375</LongitudeDegrees>
            </Position>
            <AltitudeMeters>34.200000762939453125</AltitudeMeters>
            <DistanceMeters>NAN</DistanceMeters>
          </Trackpoint>
          <Trackpoint>
            <Time>2022-07-05T13:03:56.000Z</Time>
            <Position>
              <LatitudeDegrees>44.44158327765762805938720703125</LatitudeDegrees>
              <LongitudeDegrees>-1.1951049976050853729248046875</LongitudeDegrees>
            </Position>
            <AltitudeMeters>34</AltitudeMeters>
            <DistanceMeters>NAN</DistanceMeters>
          </Trackpoint>
          <Trackpoint>
            <Time>2022-07-05T13:03:57.000Z</Time>
            <Position>
              <LatitudeDegrees>44.4415364228188991546630859375</LatitudeDegrees>
              <LongitudeDegrees>-1.19513609446585178375244140625</LongitudeDegrees>
            </Position>
            <AltitudeMeters>34</AltitudeMeters>
            <DistanceMeters>NAN</DistanceMeters>
          </Trackpoint>
          <Trackpoint>
            <Time>2022-07-05T13:03:58.000Z</Time>
            <Position>
              <LatitudeDegrees>44.4414822757244110107421875</LatitudeDegrees>
              <LongitudeDegrees>-1.1951623298227787017822265625</LongitudeDegrees>
            </Position>
            <AltitudeMeters>34</AltitudeMeters>
            <DistanceMeters>NAN</DistanceMeters>
          </Trackpoint>
          <Trackpoint>
            <Time>2022-07-05T13:04:01.000Z</Time>
            <Position>
              <LatitudeDegrees>44.44131128489971160888671875</LatitudeDegrees>
              <LongitudeDegrees>-1.1952017247676849365234375</LongitudeDegrees>
            </Position>
            <AltitudeMeters>33.799999237060546875</AltitudeMeters>
            <DistanceMeters>NAN</DistanceMeters>
          </Trackpoint>
          <Trackpoint>
            <Time>2022-07-05T13:04:02.000Z</Time>
            <Position>
              <LatitudeDegrees>44.44127105176448822021484375</LatitudeDegrees>
              <LongitudeDegrees>-1.1952106095850467681884765625</LongitudeDegrees>
            </Position>
            <AltitudeMeters>33.799999237060546875</AltitudeMeters>
            <DistanceMeters>NAN</DistanceMeters>
          </Trackpoint>
          <Trackpoint>
            <Time>2022-07-05T13:04:05.000Z</Time>
            <Position>
              <LatitudeDegrees>44.44119192659854888916015625</LatitudeDegrees>
              <LongitudeDegrees>-1.19515386410057544708251953125</LongitudeDegrees>
            </Position>
            <AltitudeMeters>33.799999237060546875</AltitudeMeters>
            <DistanceMeters>NAN</DistanceMeters>
          </Trackpoint>
          <Trackpoint>
            <Time>2022-07-05T13:04:06.000Z</Time>
            <Position>
              <LatitudeDegrees>44.4411738216876983642578125</LatitudeDegrees>
              <LongitudeDegrees>-1.1951123736798763275146484375</LongitudeDegrees>
            </Position>
            <AltitudeMeters>33.799999237060546875</AltitudeMeters>
            <DistanceMeters>NAN</DistanceMeters>
          </Trackpoint>
          <Trackpoint>
            <Time>2022-07-05T13:04:07.000Z</Time>
            <Position>
              <LatitudeDegrees>44.44115043617784976959228515625</LatitudeDegrees>
              <LongitudeDegrees>-1.195059902966022491455078125</LongitudeDegrees>
            </Position>
            <AltitudeMeters>33.799999237060546875</AltitudeMeters>
            <DistanceMeters>NAN</DistanceMeters>
          </Trackpoint>
          <Trackpoint>
            <Time>2022-07-05T13:04:08.000Z</Time>
            <Position>
              <LatitudeDegrees>44.4411391206085681915283203125</LatitudeDegrees>
              <LongitudeDegrees>-1.19500081054866313934326171875</LongitudeDegrees>
            </Position>
            <AltitudeMeters>33.799999237060546875</AltitudeMeters>
            <DistanceMeters>NAN</DistanceMeters>
          </Trackpoint>
          <Trackpoint>
            <Time>2022-07-05T13:04:10.000Z</Time>
            <Position>
              <LatitudeDegrees>44.4411223568022251129150390625</LatitudeDegrees>
              <LongitudeDegrees>-1.19488564319908618927001953125</LongitudeDegrees>
            </Position>
            <AltitudeMeters>33.799999237060546875</AltitudeMeters>
            <DistanceMeters>NAN</DistanceMeters>
          </Trackpoint>
          <Trackpoint>
            <Time>2022-07-05T13:04:11.000Z</Time>
            <Position>
              <LatitudeDegrees>44.441120512783527374267578125</LatitudeDegrees>
              <LongitudeDegrees>-1.194829232990741729736328125</LongitudeDegrees>
            </Position>
            <AltitudeMeters>33.799999237060546875</AltitudeMeters>
            <DistanceMeters>NAN</DistanceMeters>
          </Trackpoint>
          <Trackpoint>
            <Time>2022-07-05T13:04:15.000Z</Time>
            <Position>
              <LatitudeDegrees>44.441105425357818603515625</LatitudeDegrees>
              <LongitudeDegrees>-1.19461633265018463134765625</LongitudeDegrees>
            </Position>
            <AltitudeMeters>34</AltitudeMeters>
            <DistanceMeters>NAN</DistanceMeters>
          </Trackpoint>
          <Trackpoint>
            <Time>2022-07-05T13:04:16.000Z</Time>
            <Position>
              <LatitudeDegrees>44.44108354859054088592529296875</LatitudeDegrees>
              <LongitudeDegrees>-1.19457433931529521942138671875</LongitudeDegrees>
            </Position>
            <AltitudeMeters>34</AltitudeMeters>
            <DistanceMeters>NAN</DistanceMeters>
          </Trackpoint>
          <Trackpoint>
            <Time>2022-07-05T13:04:19.000Z</Time>
            <Position>
              <LatitudeDegrees>44.441043399274349212646484375</LatitudeDegrees>
              <LongitudeDegrees>-1.19445146061480045318603515625</LongitudeDegrees>
            </Position>
            <AltitudeMeters>34.200000762939453125</AltitudeMeters>
            <DistanceMeters>NAN</DistanceMeters>
          </Trackpoint>
          <Trackpoint>
            <Time>2022-07-05T13:04:20.000Z</Time>
            <Position>
              <LatitudeDegrees>44.44103258661925792694091796875</LatitudeDegrees>
              <LongitudeDegrees>-1.19441374205052852630615234375</LongitudeDegrees>
            </Position>
            <AltitudeMeters>34.200000762939453125</AltitudeMeters>
            <DistanceMeters>NAN</DistanceMeters>
          </Trackpoint>
          <Trackpoint>
            <Time>2022-07-05T13:04:25.000Z</Time>
            <Position>
              <LatitudeDegrees>44.4408869929611682891845703125</LatitudeDegrees>
              <LongitudeDegrees>-1.1942379735410213470458984375</LongitudeDegrees>
            </Position>
            <AltitudeMeters>34.59999847412109375</AltitudeMeters>
            <DistanceMeters>NAN</DistanceMeters>
          </Trackpoint>
          <Trackpoint>
            <Time>2022-07-05T13:04:27.000Z</Time>
            <Position>
              <LatitudeDegrees>44.4408206082880496978759765625</LatitudeDegrees>
              <LongitudeDegrees>-1.19417569600045680999755859375</LongitudeDegrees>
            </Position>
            <AltitudeMeters>34.799999237060546875</AltitudeMeters>
            <DistanceMeters>NAN</DistanceMeters>
          </Trackpoint>
          <Trackpoint>
            <Time>2022-07-05T13:04:31.000Z</Time>
            <Position>
              <LatitudeDegrees>44.44071575067937374114990234375</LatitudeDegrees>
              <LongitudeDegrees>-1.19406807236373424530029296875</LongitudeDegrees>
            </Position>
            <AltitudeMeters>35.200000762939453125</AltitudeMeters>
            <DistanceMeters>NAN</DistanceMeters>
          </Trackpoint>
          <Trackpoint>
            <Time>2022-07-05T13:04:36.000Z</Time>
            <Position>
              <LatitudeDegrees>44.44063696078956127166748046875</LatitudeDegrees>
              <LongitudeDegrees>-1.19397796690464019775390625</LongitudeDegrees>
            </Position>
            <AltitudeMeters>36</AltitudeMeters>
            <DistanceMeters>NAN</DistanceMeters>
          </Trackpoint>
          <Trackpoint>
            <Time>2022-07-05T13:04:40.000Z</Time>
            <Position>
              <LatitudeDegrees>44.44053470157086849212646484375</LatitudeDegrees>
              <LongitudeDegrees>-1.19382751174271106719970703125</LongitudeDegrees>
            </Position>
            <AltitudeMeters>36</AltitudeMeters>
            <DistanceMeters>NAN</DistanceMeters>
          </Trackpoint>
          <Trackpoint>
            <Time>2022-07-05T13:04:41.000Z</Time>
            <Position>
              <LatitudeDegrees>44.44049857556819915771484375</LatitudeDegrees>
              <LongitudeDegrees>-1.19377948343753814697265625</LongitudeDegrees>
            </Position>
            <AltitudeMeters>35.799999237060546875</AltitudeMeters>
            <DistanceMeters>NAN</DistanceMeters>
          </Trackpoint>
          <Trackpoint>
            <Time>2022-07-05T13:04:45.000Z</Time>
            <Position>
              <LatitudeDegrees>44.44034434854984283447265625</LatitudeDegrees>
              <LongitudeDegrees>-1.19350581429898738861083984375</LongitudeDegrees>
            </Position>
            <AltitudeMeters>35.200000762939453125</AltitudeMeters>
            <DistanceMeters>NAN</DistanceMeters>
          </Trackpoint>
          <Trackpoint>
            <Time>2022-07-05T13:04:47.000Z</Time>
            <Position>
              <LatitudeDegrees>44.440272264182567596435546875</LatitudeDegrees>
              <LongitudeDegrees>-1.19337472133338451385498046875</LongitudeDegrees>
            </Position>
            <AltitudeMeters>34.799999237060546875</AltitudeMeters>
            <DistanceMeters>NAN</DistanceMeters>
          </Trackpoint>
          <Trackpoint>
            <Time>2022-07-05T13:04:50.000Z</Time>
            <Position>
              <LatitudeDegrees>44.440194480121135711669921875</LatitudeDegrees>
              <LongitudeDegrees>-1.193199791014194488525390625</LongitudeDegrees>
            </Position>
            <AltitudeMeters>34.40000152587890625</AltitudeMeters>
            <DistanceMeters>NAN</DistanceMeters>
          </Trackpoint>
          <Trackpoint>
            <Time>2022-07-05T13:04:54.000Z</Time>
            <Position>
              <LatitudeDegrees>44.44012298248708248138427734375</LatitudeDegrees>
              <LongitudeDegrees>-1.193072386085987091064453125</LongitudeDegrees>
            </Position>
            <AltitudeMeters>34</AltitudeMeters>
            <DistanceMeters>NAN</DistanceMeters>
          </Trackpoint>
          <Trackpoint>
            <Time>2022-07-05T13:04:56.000Z</Time>
            <Position>
              <LatitudeDegrees>44.44008794613182544708251953125</LatitudeDegrees>
              <LongitudeDegrees>-1.19299627840518951416015625</LongitudeDegrees>
            </Position>
            <AltitudeMeters>33.799999237060546875</AltitudeMeters>
            <DistanceMeters>NAN</DistanceMeters>
          </Trackpoint>
          <Trackpoint>
            <Time>2022-07-05T13:04:58.000Z</Time>
            <Position>
              <LatitudeDegrees>44.44004754535853862762451171875</LatitudeDegrees>
              <LongitudeDegrees>-1.19292679242789745330810546875</LongitudeDegrees>
            </Position>
            <AltitudeMeters>33.59999847412109375</AltitudeMeters>
            <DistanceMeters>NAN</DistanceMeters>
          </Trackpoint>
          <Trackpoint>
            <Time>2022-07-05T13:04:59.000Z</Time>
            <Position>
              <LatitudeDegrees>44.44001988507807254791259765625</LatitudeDegrees>
              <LongitudeDegrees>-1.19290399365127086639404296875</LongitudeDegrees>
            </Position>
            <AltitudeMeters>33.59999847412109375</AltitudeMeters>
            <DistanceMeters>NAN</DistanceMeters>
          </Trackpoint>
          <Trackpoint>
            <Time>2022-07-05T13:05:04.000Z</Time>
            <Position>
              <LatitudeDegrees>44.439846463501453399658203125</LatitudeDegrees>
              <LongitudeDegrees>-1.19294841773808002471923828125</LongitudeDegrees>
            </Position>
            <AltitudeMeters>33.59999847412109375</AltitudeMeters>
            <DistanceMeters>NAN</DistanceMeters>
          </Trackpoint>
          <Trackpoint>
            <Time>2022-07-05T13:05:11.000Z</Time>
            <Position>
              <LatitudeDegrees>44.4396089203655719757080078125</LatitudeDegrees>
              <LongitudeDegrees>-1.1929620802402496337890625</LongitudeDegrees>
            </Position>
            <AltitudeMeters>33.59999847412109375</AltitudeMeters>
            <DistanceMeters>NAN</DistanceMeters>
          </Trackpoint>
          <Trackpoint>
            <Time>2022-07-05T13:05:17.000Z</Time>
            <Position>
              <LatitudeDegrees>44.43947472609579563140869140625</LatitudeDegrees>
              <LongitudeDegrees>-1.19282537139952182769775390625</LongitudeDegrees>
            </Position>
            <AltitudeMeters>33.799999237060546875</AltitudeMeters>
            <DistanceMeters>NAN</DistanceMeters>
          </Trackpoint>
          <Trackpoint>
            <Time>2022-07-05T13:05:24.000Z</Time>
            <Position>
              <LatitudeDegrees>44.43930775858461856842041015625</LatitudeDegrees>
              <LongitudeDegrees>-1.192566454410552978515625</LongitudeDegrees>
            </Position>
            <AltitudeMeters>33.799999237060546875</AltitudeMeters>
            <DistanceMeters>NAN</DistanceMeters>
          </Trackpoint>
          <Trackpoint>
            <Time>2022-07-05T13:05:31.000Z</Time>
            <Position>
              <LatitudeDegrees>44.43920767866075038909912109375</LatitudeDegrees>
              <LongitudeDegrees>-1.192181892693042755126953125</LongitudeDegrees>
            </Position>
            <AltitudeMeters>34</AltitudeMeters>
            <DistanceMeters>NAN</DistanceMeters>
          </Trackpoint>
          <Trackpoint>
            <Time>2022-07-05T13:05:39.000Z</Time>
            <Position>
              <LatitudeDegrees>44.4390225224196910858154296875</LatitudeDegrees>
              <LongitudeDegrees>-1.1917837522923946380615234375</LongitudeDegrees>
            </Position>
            <AltitudeMeters>33.200000762939453125</AltitudeMeters>
            <DistanceMeters>NAN</DistanceMeters>
          </Trackpoint>
          <Trackpoint>
            <Time>2022-07-05T13:05:46.000Z</Time>
            <Position>
              <LatitudeDegrees>44.43880165927112102508544921875</LatitudeDegrees>
              <LongitudeDegrees>-1.19144705124199390411376953125</LongitudeDegrees>
            </Position>
            <AltitudeMeters>32.59999847412109375</AltitudeMeters>
            <DistanceMeters>NAN</DistanceMeters>
          </Trackpoint>
          <Trackpoint>
            <Time>2022-07-05T13:05:47.000Z</Time>
            <Position>
              <LatitudeDegrees>44.4387707300484180450439453125</LatitudeDegrees>
              <LongitudeDegrees>-1.19139994494616985321044921875</LongitudeDegrees>
            </Position>
            <AltitudeMeters>32.59999847412109375</AltitudeMeters>
            <DistanceMeters>NAN</DistanceMeters>
          </Trackpoint>
          <Trackpoint>
            <Time>2022-07-05T13:05:49.000Z</Time>
            <Position>
              <LatitudeDegrees>44.438714571297168731689453125</LatitudeDegrees>
              <LongitudeDegrees>-1.19130305014550685882568359375</LongitudeDegrees>
            </Position>
            <AltitudeMeters>32.59999847412109375</AltitudeMeters>
            <DistanceMeters>NAN</DistanceMeters>
          </Trackpoint>
          <Trackpoint>
            <Time>2022-07-05T13:05:50.000Z</Time>
            <Position>
              <LatitudeDegrees>44.4386895932257175445556640625</LatitudeDegrees>
              <LongitudeDegrees>-1.191257871687412261962890625</LongitudeDegrees>
            </Position>
            <AltitudeMeters>32.59999847412109375</AltitudeMeters>
            <DistanceMeters>NAN</DistanceMeters>
          </Trackpoint>
          <Trackpoint>
            <Time>2022-07-05T13:05:56.000Z</Time>
            <Position>
              <LatitudeDegrees>44.4385286606848239898681640625</LatitudeDegrees>
              <LongitudeDegrees>-1.1909733898937702178955078125</LongitudeDegrees>
            </Position>
            <AltitudeMeters>32.799999237060546875</AltitudeMeters>
            <DistanceMeters>NAN</DistanceMeters>
          </Trackpoint>
          <Trackpoint>
            <Time>2022-07-05T13:06:03.000Z</Time>
            <Position>
              <LatitudeDegrees>44.43834316916763782501220703125</LatitudeDegrees>
              <LongitudeDegrees>-1.19067214429378509521484375</LongitudeDegrees>
            </Position>
            <AltitudeMeters>32.799999237060546875</AltitudeMeters>
            <DistanceMeters>NAN</DistanceMeters>
          </Trackpoint>
          <Trackpoint>
            <Time>2022-07-05T13:06:05.000Z</Time>
            <Position>
              <LatitudeDegrees>44.4382802210748195648193359375</LatitudeDegrees>
              <LongitudeDegrees>-1.190595366060733795166015625</LongitudeDegrees>
            </Position>
            <AltitudeMeters>32.799999237060546875</AltitudeMeters>
            <DistanceMeters>NAN</DistanceMeters>
          </Trackpoint>
          <Trackpoint>
            <Time>2022-07-05T13:06:13.000Z</Time>
            <Position>
              <LatitudeDegrees>44.43803957663476467132568359375</LatitudeDegrees>
              <LongitudeDegrees>-1.19027249515056610107421875</LongitudeDegrees>
            </Position>
            <AltitudeMeters>33</AltitudeMeters>
            <DistanceMeters>NAN</DistanceMeters>
          </Trackpoint>
          <Trackpoint>
            <Time>2022-07-05T13:06:20.000Z</Time>
            <Position>
              <LatitudeDegrees>44.437856934964656829833984375</LatitudeDegrees>
              <LongitudeDegrees>-1.19000603444874286651611328125</LongitudeDegrees>
            </Position>
            <AltitudeMeters>33</AltitudeMeters>
            <DistanceMeters>NAN</DistanceMeters>
          </Trackpoint>
          <Trackpoint>
            <Time>2022-07-05T13:06:23.000Z</Time>
            <Position>
              <LatitudeDegrees>44.437772445380687713623046875</LatitudeDegrees>
              <LongitudeDegrees>-1.189918108284473419189453125</LongitudeDegrees>
            </Position>
            <AltitudeMeters>33</AltitudeMeters>
            <DistanceMeters>NAN</DistanceMeters>
          </Trackpoint>
          <Trackpoint>
            <Time>2022-07-05T13:06:25.000Z</Time>
            <Position>
              <LatitudeDegrees>44.4377330504357814788818359375</LatitudeDegrees>
              <LongitudeDegrees>-1.1898760311305522918701171875</LongitudeDegrees>
            </Position>
            <AltitudeMeters>33</AltitudeMeters>
            <DistanceMeters>NAN</DistanceMeters>
          </Trackpoint>
          <Trackpoint>
            <Time>2022-07-05T13:06:29.000Z</Time>
            <Position>
              <LatitudeDegrees>44.4375922344624996185302734375</LatitudeDegrees>
              <LongitudeDegrees>-1.1897402442991733551025390625</LongitudeDegrees>
            </Position>
            <AltitudeMeters>32.799999237060546875</AltitudeMeters>
            <DistanceMeters>NAN</DistanceMeters>
          </Trackpoint>
          <Trackpoint>
            <Time>2022-07-05T13:06:30.000Z</Time>
            <Position>
              <LatitudeDegrees>44.43755912594497203826904296875</LatitudeDegrees>
              <LongitudeDegrees>-1.18970395065844058990478515625</LongitudeDegrees>
            </Position>
            <AltitudeMeters>33</AltitudeMeters>
            <DistanceMeters>NAN</DistanceMeters>
          </Trackpoint>
          <Trackpoint>
            <Time>2022-07-05T13:06:37.000Z</Time>
            <Position>
              <LatitudeDegrees>44.43728755228221416473388671875</LatitudeDegrees>
              <LongitudeDegrees>-1.1894736997783184051513671875</LongitudeDegrees>
            </Position>
            <AltitudeMeters>33.200000762939453125</AltitudeMeters>
            <DistanceMeters>NAN</DistanceMeters>
          </Trackpoint>
          <Trackpoint>
            <Time>2022-07-05T13:06:46.000Z</Time>
            <Position>
              <LatitudeDegrees>44.43692989647388458251953125</LatitudeDegrees>
              <LongitudeDegrees>-1.1891211569309234619140625</LongitudeDegrees>
            </Position>
            <AltitudeMeters>33.40000152587890625</AltitudeMeters>
            <DistanceMeters>NAN</DistanceMeters>
          </Trackpoint>
          <Trackpoint>
            <Time>2022-07-05T13:06:52.000Z</Time>
            <Position>
              <LatitudeDegrees>44.43671775050461292266845703125</LatitudeDegrees>
              <LongitudeDegrees>-1.18892527185380458831787109375</LongitudeDegrees>
            </Position>
            <AltitudeMeters>33.59999847412109375</AltitudeMeters>
            <DistanceMeters>NAN</DistanceMeters>
          </Trackpoint>
          <Trackpoint>
            <Time>2022-07-05T13:06:55.000Z</Time>
            <Position>
              <LatitudeDegrees>44.4366246275603771209716796875</LatitudeDegrees>
              <LongitudeDegrees>-1.1888453923165798187255859375</LongitudeDegrees>
            </Position>
            <AltitudeMeters>33.59999847412109375</AltitudeMeters>
            <DistanceMeters>NAN</DistanceMeters>
          </Trackpoint>
          <Trackpoint>
            <Time>2022-07-05T13:06:57.000Z</Time>
            <Position>
              <LatitudeDegrees>44.43657123483717441558837890625</LatitudeDegrees>
              <LongitudeDegrees>-1.18878789246082305908203125</LongitudeDegrees>
            </Position>
            <AltitudeMeters>33.59999847412109375</AltitudeMeters>
            <DistanceMeters>NAN</DistanceMeters>
          </Trackpoint>
          <Trackpoint>
            <Time>2022-07-05T13:07:00.000Z</Time>
            <Position>
              <LatitudeDegrees>44.4364958815276622772216796875</LatitudeDegrees>
              <LongitudeDegrees>-1.1886958591639995574951171875</LongitudeDegrees>
            </Position>
            <AltitudeMeters>33.59999847412109375</AltitudeMeters>
            <DistanceMeters>NAN</DistanceMeters>
          </Trackpoint>
          <Trackpoint>
            <Time>2022-07-05T13:07:03.000Z</Time>
            <Position>
              <LatitudeDegrees>44.43640393204987049102783203125</LatitudeDegrees>
              <LongitudeDegrees>-1.188607849180698394775390625</LongitudeDegrees>
            </Position>
            <AltitudeMeters>33.59999847412109375</AltitudeMeters>
            <DistanceMeters>NAN</DistanceMeters>
          </Trackpoint>
          <Trackpoint>
            <Time>2022-07-05T13:07:08.000Z</Time>
            <Position>
              <LatitudeDegrees>44.43628742359578609466552734375</LatitudeDegrees>
              <LongitudeDegrees>-1.1884584836661815643310546875</LongitudeDegrees>
            </Position>
            <AltitudeMeters>33.59999847412109375</AltitudeMeters>
            <DistanceMeters>NAN</DistanceMeters>
          </Trackpoint>
          <Trackpoint>
            <Time>2022-07-05T13:07:15.000Z</Time>
            <Position>
              <LatitudeDegrees>44.43604233674705028533935546875</LatitudeDegrees>
              <LongitudeDegrees>-1.18825170211493968963623046875</LongitudeDegrees>
            </Position>
            <AltitudeMeters>33.59999847412109375</AltitudeMeters>
            <DistanceMeters>NAN</DistanceMeters>
          </Trackpoint>
          <Trackpoint>
            <Time>2022-07-05T13:07:21.000Z</Time>
            <Position>
              <LatitudeDegrees>44.4357423484325408935546875</LatitudeDegrees>
              <LongitudeDegrees>-1.187895722687244415283203125</LongitudeDegrees>
            </Position>
            <AltitudeMeters>33.59999847412109375</AltitudeMeters>
            <DistanceMeters>NAN</DistanceMeters>
          </Trackpoint>
          <Trackpoint>
            <Time>2022-07-05T13:07:26.000Z</Time>
            <Position>
              <LatitudeDegrees>44.43562206812202930450439453125</LatitudeDegrees>
              <LongitudeDegrees>-1.1876910366117954254150390625</LongitudeDegrees>
            </Position>
            <AltitudeMeters>33.799999237060546875</AltitudeMeters>
            <DistanceMeters>NAN</DistanceMeters>
          </Trackpoint>
          <Trackpoint>
            <Time>2022-07-05T13:07:28.000Z</Time>
            <Position>
              <LatitudeDegrees>44.43554478697478771209716796875</LatitudeDegrees>
              <LongitudeDegrees>-1.187620460987091064453125</LongitudeDegrees>
            </Position>
            <AltitudeMeters>33.799999237060546875</AltitudeMeters>
            <DistanceMeters>NAN</DistanceMeters>
          </Trackpoint>
          <Trackpoint>
            <Time>2022-07-05T13:07:30.000Z</Time>
            <Position>
              <LatitudeDegrees>44.4354675896465778350830078125</LatitudeDegrees>
              <LongitudeDegrees>-1.187578551471233367919921875</LongitudeDegrees>
            </Position>
            <AltitudeMeters>34</AltitudeMeters>
            <DistanceMeters>NAN</DistanceMeters>
          </Trackpoint>
          <Trackpoint>
            <Time>2022-07-05T13:07:31.000Z</Time>
            <Position>
              <LatitudeDegrees>44.4354250095784664154052734375</LatitudeDegrees>
              <LongitudeDegrees>-1.18752591311931610107421875</LongitudeDegrees>
            </Position>
            <AltitudeMeters>34</AltitudeMeters>
            <DistanceMeters>NAN</DistanceMeters>
          </Trackpoint>
          <Trackpoint>
            <Time>2022-07-05T13:07:32.000Z</Time>
            <Position>
              <LatitudeDegrees>44.4353990256786346435546875</LatitudeDegrees>
              <LongitudeDegrees>-1.18749984540045261383056640625</LongitudeDegrees>
            </Position>
            <AltitudeMeters>34</AltitudeMeters>
            <DistanceMeters>NAN</DistanceMeters>
          </Trackpoint>
          <Trackpoint>
            <Time>2022-07-05T13:07:34.000Z</Time>
            <Position>
              <LatitudeDegrees>44.43533758632838726043701171875</LatitudeDegrees>
              <LongitudeDegrees>-1.18745123036205768585205078125</LongitudeDegrees>
            </Position>
            <AltitudeMeters>33.799999237060546875</AltitudeMeters>
            <DistanceMeters>NAN</DistanceMeters>
          </Trackpoint>
          <Trackpoint>
            <Time>2022-07-05T13:07:35.000Z</Time>
            <Position>
              <LatitudeDegrees>44.43530439399182796478271484375</LatitudeDegrees>
              <LongitudeDegrees>-1.187443435192108154296875</LongitudeDegrees>
            </Position>
            <AltitudeMeters>33.59999847412109375</AltitudeMeters>
            <DistanceMeters>NAN</DistanceMeters>
          </Trackpoint>
          <Trackpoint>
            <Time>2022-07-05T13:07:41.000Z</Time>
            <Position>
              <LatitudeDegrees>44.43506098352372646331787109375</LatitudeDegrees>
              <LongitudeDegrees>-1.18740010075271129608154296875</LongitudeDegrees>
            </Position>
            <AltitudeMeters>33.59999847412109375</AltitudeMeters>
            <DistanceMeters>NAN</DistanceMeters>
          </Trackpoint>
          <Trackpoint>
            <Time>2022-07-05T13:07:46.000Z</Time>
            <Position>
              <LatitudeDegrees>44.4348825328052043914794921875</LatitudeDegrees>
              <LongitudeDegrees>-1.187381409108638763427734375</LongitudeDegrees>
            </Position>
            <AltitudeMeters>33.59999847412109375</AltitudeMeters>
            <DistanceMeters>NAN</DistanceMeters>
          </Trackpoint>
          <Trackpoint>
            <Time>2022-07-05T13:07:47.000Z</Time>
            <Position>
              <LatitudeDegrees>44.43486199714243412017822265625</LatitudeDegrees>
              <LongitudeDegrees>-1.18737461976706981658935546875</LongitudeDegrees>
            </Position>
            <AltitudeMeters>33.799999237060546875</AltitudeMeters>
            <DistanceMeters>NAN</DistanceMeters>
          </Trackpoint>
          <Trackpoint>
            <Time>2022-07-05T13:07:50.000Z</Time>
            <Position>
              <LatitudeDegrees>44.43477096967399120330810546875</LatitudeDegrees>
              <LongitudeDegrees>-1.187303960323333740234375</LongitudeDegrees>
            </Position>
            <AltitudeMeters>34</AltitudeMeters>
            <DistanceMeters>NAN</DistanceMeters>
          </Trackpoint>
          <Trackpoint>
            <Time>2022-07-05T13:07:51.000Z</Time>
            <Position>
              <LatitudeDegrees>44.434740208089351654052734375</LatitudeDegrees>
              <LongitudeDegrees>-1.18726833723485469818115234375</LongitudeDegrees>
            </Position>
            <AltitudeMeters>34.200000762939453125</AltitudeMeters>
            <DistanceMeters>NAN</DistanceMeters>
          </Trackpoint>
          <Trackpoint>
            <Time>2022-07-05T13:07:52.000Z</Time>
            <Position>
              <LatitudeDegrees>44.43471682257950305938720703125</LatitudeDegrees>
              <LongitudeDegrees>-1.18724285624921321868896484375</LongitudeDegrees>
            </Position>
            <AltitudeMeters>34.200000762939453125</AltitudeMeters>
            <DistanceMeters>NAN</DistanceMeters>
          </Trackpoint>
          <Trackpoint>
            <Time>2022-07-05T13:07:54.000Z</Time>
            <Position>
              <LatitudeDegrees>44.4346451573073863983154296875</LatitudeDegrees>
              <LongitudeDegrees>-1.1871891282498836517333984375</LongitudeDegrees>
            </Position>
            <AltitudeMeters>34.200000762939453125</AltitudeMeters>
            <DistanceMeters>NAN</DistanceMeters>
          </Trackpoint>
          <Trackpoint>
            <Time>2022-07-05T13:07:59.000Z</Time>
            <Position>
              <LatitudeDegrees>44.4344265572726726531982421875</LatitudeDegrees>
              <LongitudeDegrees>-1.1870509944856166839599609375</LongitudeDegrees>
            </Position>
            <AltitudeMeters>34.200000762939453125</AltitudeMeters>
            <DistanceMeters>NAN</DistanceMeters>
          </Trackpoint>
          <Trackpoint>
            <Time>2022-07-05T13:08:03.000Z</Time>
            <Position>
              <LatitudeDegrees>44.43426872603595256805419921875</LatitudeDegrees>
              <LongitudeDegrees>-1.1868732981383800506591796875</LongitudeDegrees>
            </Position>
            <AltitudeMeters>34.200000762939453125</AltitudeMeters>
            <DistanceMeters>NAN</DistanceMeters>
          </Trackpoint>
          <Trackpoint>
            <Time>2022-07-05T13:08:10.000Z</Time>
            <Position>
              <LatitudeDegrees>44.4340654648840427398681640625</LatitudeDegrees>
              <LongitudeDegrees>-1.1866025626659393310546875</LongitudeDegrees>
            </Position>
            <AltitudeMeters>34</AltitudeMeters>
            <DistanceMeters>NAN</DistanceMeters>
          </Trackpoint>
          <Trackpoint>
            <Time>2022-07-05T13:08:15.000Z</Time>
            <Position>
              <LatitudeDegrees>44.4338978268206119537353515625</LatitudeDegrees>
              <LongitudeDegrees>-1.18639402091503143310546875</LongitudeDegrees>
            </Position>
            <AltitudeMeters>34</AltitudeMeters>
            <DistanceMeters>NAN</DistanceMeters>
          </Trackpoint>
          <Trackpoint>
            <Time>2022-07-05T13:08:21.000Z</Time>
            <Position>
              <LatitudeDegrees>44.43367880769073963165283203125</LatitudeDegrees>
              <LongitudeDegrees>-1.18602119386196136474609375</LongitudeDegrees>
            </Position>
            <AltitudeMeters>33.59999847412109375</AltitudeMeters>
            <DistanceMeters>NAN</DistanceMeters>
          </Trackpoint>
          <Trackpoint>
            <Time>2022-07-05T13:08:26.000Z</Time>
            <Position>
              <LatitudeDegrees>44.43347127176821231842041015625</LatitudeDegrees>
              <LongitudeDegrees>-1.18572640232741832733154296875</LongitudeDegrees>
            </Position>
            <AltitudeMeters>33.59999847412109375</AltitudeMeters>
            <DistanceMeters>NAN</DistanceMeters>
          </Trackpoint>
          <Trackpoint>
            <Time>2022-07-05T13:08:32.000Z</Time>
            <Position>
              <LatitudeDegrees>44.43325703032314777374267578125</LatitudeDegrees>
              <LongitudeDegrees>-1.185546107590198516845703125</LongitudeDegrees>
            </Position>
            <AltitudeMeters>33.799999237060546875</AltitudeMeters>
            <DistanceMeters>NAN</DistanceMeters>
          </Trackpoint>
          <Trackpoint>
            <Time>2022-07-05T13:08:35.000Z</Time>
            <Position>
              <LatitudeDegrees>44.43317622877657413482666015625</LatitudeDegrees>
              <LongitudeDegrees>-1.1853518150746822357177734375</LongitudeDegrees>
            </Position>
            <AltitudeMeters>34</AltitudeMeters>
            <DistanceMeters>NAN</DistanceMeters>
          </Trackpoint>
          <Trackpoint>
            <Time>2022-07-05T13:08:36.000Z</Time>
            <Position>
              <LatitudeDegrees>44.43313783966004848480224609375</LatitudeDegrees>
              <LongitudeDegrees>-1.18531837128102779388427734375</LongitudeDegrees>
            </Position>
            <AltitudeMeters>34</AltitudeMeters>
            <DistanceMeters>NAN</DistanceMeters>
          </Trackpoint>
          <Trackpoint>
            <Time>2022-07-05T13:08:37.000Z</Time>
            <Position>
              <LatitudeDegrees>44.43310372531414031982421875</LatitudeDegrees>
              <LongitudeDegrees>-1.18529926054179668426513671875</LongitudeDegrees>
            </Position>
            <AltitudeMeters>33.799999237060546875</AltitudeMeters>
            <DistanceMeters>NAN</DistanceMeters>
          </Trackpoint>
          <Trackpoint>
            <Time>2022-07-05T13:08:40.000Z</Time>
            <Position>
              <LatitudeDegrees>44.43298528902232646942138671875</LatitudeDegrees>
              <LongitudeDegrees>-1.1852391622960567474365234375</LongitudeDegrees>
            </Position>
            <AltitudeMeters>34</AltitudeMeters>
            <DistanceMeters>NAN</DistanceMeters>
          </Trackpoint>
          <Trackpoint>
            <Time>2022-07-05T13:08:42.000Z</Time>
            <Position>
              <LatitudeDegrees>44.43291085772216320037841796875</LatitudeDegrees>
              <LongitudeDegrees>-1.1851821653544902801513671875</LongitudeDegrees>
            </Position>
            <AltitudeMeters>34</AltitudeMeters>
            <DistanceMeters>NAN</DistanceMeters>
          </Trackpoint>
          <Trackpoint>
            <Time>2022-07-05T13:08:44.000Z</Time>
            <Position>
              <LatitudeDegrees>44.43284489214420318603515625</LatitudeDegrees>
              <LongitudeDegrees>-1.18511636741459369659423828125</LongitudeDegrees>
            </Position>
            <AltitudeMeters>34.200000762939453125</AltitudeMeters>
            <DistanceMeters>NAN</DistanceMeters>
          </Trackpoint>
          <Trackpoint>
            <Time>2022-07-05T13:08:46.000Z</Time>
            <Position>
              <LatitudeDegrees>44.43280139006674289703369140625</LatitudeDegrees>
              <LongitudeDegrees>-1.1850269325077533721923828125</LongitudeDegrees>
            </Position>
            <AltitudeMeters>34.200000762939453125</AltitudeMeters>
            <DistanceMeters>NAN</DistanceMeters>
          </Trackpoint>
          <Trackpoint>
            <Time>2022-07-05T13:08:50.000Z</Time>
            <Position>
              <LatitudeDegrees>44.43267633207142353057861328125</LatitudeDegrees>
              <LongitudeDegrees>-1.1848576180636882781982421875</LongitudeDegrees>
            </Position>
            <AltitudeMeters>34.200000762939453125</AltitudeMeters>
            <DistanceMeters>NAN</DistanceMeters>
          </Trackpoint>
          <Trackpoint>
            <Time>2022-07-05T13:08:55.000Z</Time>
            <Position>
              <LatitudeDegrees>44.43254641257226467132568359375</LatitudeDegrees>
              <LongitudeDegrees>-1.18474186398088932037353515625</LongitudeDegrees>
            </Position>
            <AltitudeMeters>34.200000762939453125</AltitudeMeters>
            <DistanceMeters>NAN</DistanceMeters>
          </Trackpoint>
          <Trackpoint>
            <Time>2022-07-05T13:09:00.000Z</Time>
            <Position>
              <LatitudeDegrees>44.4324363581836223602294921875</LatitudeDegrees>
              <LongitudeDegrees>-1.1844921670854091644287109375</LongitudeDegrees>
            </Position>
            <AltitudeMeters>34.200000762939453125</AltitudeMeters>
            <DistanceMeters>NAN</DistanceMeters>
          </Trackpoint>
          <Trackpoint>
            <Time>2022-07-05T13:09:06.000Z</Time>
            <Position>
              <LatitudeDegrees>44.4323790259659290313720703125</LatitudeDegrees>
              <LongitudeDegrees>-1.1840222775936126708984375</LongitudeDegrees>
            </Position>
            <AltitudeMeters>34</AltitudeMeters>
            <DistanceMeters>NAN</DistanceMeters>
          </Trackpoint>
          <Trackpoint>
            <Time>2022-07-05T13:09:11.000Z</Time>
            <Position>
              <LatitudeDegrees>44.43231909535825252532958984375</LatitudeDegrees>
              <LongitudeDegrees>-1.1836623586714267730712890625</LongitudeDegrees>
            </Position>
            <AltitudeMeters>33.799999237060546875</AltitudeMeters>
            <DistanceMeters>NAN</DistanceMeters>
          </Trackpoint>
          <Trackpoint>
            <Time>2022-07-05T13:09:12.000Z</Time>
            <Position>
              <LatitudeDegrees>44.4322962127625942230224609375</LatitudeDegrees>
              <LongitudeDegrees>-1.1835805512964725494384765625</LongitudeDegrees>
            </Position>
            <AltitudeMeters>33.799999237060546875</AltitudeMeters>
            <DistanceMeters>NAN</DistanceMeters>
          </Trackpoint>
          <Trackpoint>
            <Time>2022-07-05T13:09:14.000Z</Time>
            <Position>
              <LatitudeDegrees>44.4322606734931468963623046875</LatitudeDegrees>
              <LongitudeDegrees>-1.18347083218395709991455078125</LongitudeDegrees>
            </Position>
            <AltitudeMeters>33.799999237060546875</AltitudeMeters>
            <DistanceMeters>NAN</DistanceMeters>
          </Trackpoint>
          <Trackpoint>
            <Time>2022-07-05T13:09:18.000Z</Time>
            <Position>
              <LatitudeDegrees>44.43218934349715709686279296875</LatitudeDegrees>
              <LongitudeDegrees>-1.18320864625275135040283203125</LongitudeDegrees>
            </Position>
            <AltitudeMeters>33.59999847412109375</AltitudeMeters>
            <DistanceMeters>NAN</DistanceMeters>
          </Trackpoint>
          <Trackpoint>
            <Time>2022-07-05T13:09:22.000Z</Time>
            <Position>
              <LatitudeDegrees>44.43216436542570590972900390625</LatitudeDegrees>
              <LongitudeDegrees>-1.18301955051720142364501953125</LongitudeDegrees>
            </Position>
            <AltitudeMeters>33.59999847412109375</AltitudeMeters>
            <DistanceMeters>NAN</DistanceMeters>
          </Trackpoint>
          <Trackpoint>
            <Time>2022-07-05T13:09:29.000Z</Time>
            <Position>
              <LatitudeDegrees>44.43204903043806552886962890625</LatitudeDegrees>
              <LongitudeDegrees>-1.18259727023541927337646484375</LongitudeDegrees>
            </Position>
            <AltitudeMeters>33.799999237060546875</AltitudeMeters>
            <DistanceMeters>NAN</DistanceMeters>
          </Trackpoint>
          <Trackpoint>
            <Time>2022-07-05T13:09:30.000Z</Time>
            <Position>
              <LatitudeDegrees>44.43204215727746486663818359375</LatitudeDegrees>
              <LongitudeDegrees>-1.18254463188350200653076171875</LongitudeDegrees>
            </Position>
            <AltitudeMeters>33.799999237060546875</AltitudeMeters>
            <DistanceMeters>NAN</DistanceMeters>
          </Trackpoint>
          <Trackpoint>
            <Time>2022-07-05T13:09:32.000Z</Time>
            <Position>
              <LatitudeDegrees>44.43202204070985317230224609375</LatitudeDegrees>
              <LongitudeDegrees>-1.1824342422187328338623046875</LongitudeDegrees>
            </Position>
            <AltitudeMeters>33.799999237060546875</AltitudeMeters>
            <DistanceMeters>NAN</DistanceMeters>
          </Trackpoint>
          <Trackpoint>
            <Time>2022-07-05T13:09:33.000Z</Time>
            <Position>
              <LatitudeDegrees>44.43199823610484600067138671875</LatitudeDegrees>
              <LongitudeDegrees>-1.182375736534595489501953125</LongitudeDegrees>
            </Position>
            <AltitudeMeters>33.799999237060546875</AltitudeMeters>
            <DistanceMeters>NAN</DistanceMeters>
          </Trackpoint>
          <Trackpoint>
            <Time>2022-07-05T13:09:35.000Z</Time>
            <Position>
              <LatitudeDegrees>44.43196051754057407379150390625</LatitudeDegrees>
              <LongitudeDegrees>-1.1822625808417797088623046875</LongitudeDegrees>
            </Position>
            <AltitudeMeters>33.799999237060546875</AltitudeMeters>
            <DistanceMeters>NAN</DistanceMeters>
          </Trackpoint>
          <Trackpoint>
            <Time>2022-07-05T13:09:40.000Z</Time>
            <Position>
              <LatitudeDegrees>44.4318640418350696563720703125</LatitudeDegrees>
              <LongitudeDegrees>-1.18195940740406513214111328125</LongitudeDegrees>
            </Position>
            <AltitudeMeters>33.799999237060546875</AltitudeMeters>
            <DistanceMeters>NAN</DistanceMeters>
          </Trackpoint>
          <Trackpoint>
            <Time>2022-07-05T13:09:41.000Z</Time>
            <Position>
              <LatitudeDegrees>44.4318422488868236541748046875</LatitudeDegrees>
              <LongitudeDegrees>-1.18190308101475238800048828125</LongitudeDegrees>
            </Position>
            <AltitudeMeters>33.799999237060546875</AltitudeMeters>
            <DistanceMeters>NAN</DistanceMeters>
          </Trackpoint>
          <Trackpoint>
            <Time>2022-07-05T13:09:45.000Z</Time>
            <Position>
              <LatitudeDegrees>44.4317490421235561370849609375</LatitudeDegrees>
              <LongitudeDegrees>-1.181663610041141510009765625</LongitudeDegrees>
            </Position>
            <AltitudeMeters>34</AltitudeMeters>
            <DistanceMeters>NAN</DistanceMeters>
          </Trackpoint>
          <Trackpoint>
            <Time>2022-07-05T13:09:47.000Z</Time>
            <Position>
              <LatitudeDegrees>44.43172448314726352691650390625</LatitudeDegrees>
              <LongitudeDegrees>-1.181526817381381988525390625</LongitudeDegrees>
            </Position>
            <AltitudeMeters>34</AltitudeMeters>
            <DistanceMeters>NAN</DistanceMeters>
          </Trackpoint>
          <Trackpoint>
            <Time>2022-07-05T13:09:51.000Z</Time>
            <Position>
              <LatitudeDegrees>44.43168676458299160003662109375</LatitudeDegrees>
              <LongitudeDegrees>-1.18123479187488555908203125</LongitudeDegrees>
            </Position>
            <AltitudeMeters>33.799999237060546875</AltitudeMeters>
            <DistanceMeters>NAN</DistanceMeters>
          </Trackpoint>
          <Trackpoint>
            <Time>2022-07-05T13:09:53.000Z</Time>
            <Position>
              <LatitudeDegrees>44.43166580982506275177001953125</LatitudeDegrees>
              <LongitudeDegrees>-1.18106489069759845733642578125</LongitudeDegrees>
            </Position>
            <AltitudeMeters>34</AltitudeMeters>
            <DistanceMeters>NAN</DistanceMeters>
          </Trackpoint>
          <Trackpoint>
            <Time>2022-07-05T13:09:54.000Z</Time>
            <Position>
              <LatitudeDegrees>44.43166212178766727447509765625</LatitudeDegrees>
              <LongitudeDegrees>-1.18098492734134197235107421875</LongitudeDegrees>
            </Position>
            <AltitudeMeters>34.200000762939453125</AltitudeMeters>
            <DistanceMeters>NAN</DistanceMeters>
          </Trackpoint>
          <Trackpoint>
            <Time>2022-07-05T13:09:57.000Z</Time>
            <Position>
              <LatitudeDegrees>44.4316404126584529876708984375</LatitudeDegrees>
              <LongitudeDegrees>-1.180763058364391326904296875</LongitudeDegrees>
            </Position>
            <AltitudeMeters>34.200000762939453125</AltitudeMeters>
            <DistanceMeters>NAN</DistanceMeters>
          </Trackpoint>
          <Trackpoint>
            <Time>2022-07-05T13:09:59.000Z</Time>
            <Position>
              <LatitudeDegrees>44.43161384202539920806884765625</LatitudeDegrees>
              <LongitudeDegrees>-1.18064361624419689178466796875</LongitudeDegrees>
            </Position>
            <AltitudeMeters>34.59999847412109375</AltitudeMeters>
            <DistanceMeters>NAN</DistanceMeters>
          </Trackpoint>
          <Trackpoint>
            <Time>2022-07-05T13:10:01.000Z</Time>
            <Position>
              <LatitudeDegrees>44.4315807335078716278076171875</LatitudeDegrees>
              <LongitudeDegrees>-1.180523335933685302734375</LongitudeDegrees>
            </Position>
            <AltitudeMeters>34.59999847412109375</AltitudeMeters>
            <DistanceMeters>NAN</DistanceMeters>
          </Trackpoint>
          <Trackpoint>
            <Time>2022-07-05T13:10:02.000Z</Time>
            <Position>
              <LatitudeDegrees>44.43157461471855640411376953125</LatitudeDegrees>
              <LongitudeDegrees>-1.18044295348227024078369140625</LongitudeDegrees>
            </Position>
            <AltitudeMeters>34.59999847412109375</AltitudeMeters>
            <DistanceMeters>NAN</DistanceMeters>
          </Trackpoint>
          <Trackpoint>
            <Time>2022-07-05T13:10:05.000Z</Time>
            <Position>
              <LatitudeDegrees>44.431556761264801025390625</LatitudeDegrees>
              <LongitudeDegrees>-1.18026316165924072265625</LongitudeDegrees>
            </Position>
            <AltitudeMeters>34.59999847412109375</AltitudeMeters>
            <DistanceMeters>NAN</DistanceMeters>
          </Trackpoint>
          <Trackpoint>
            <Time>2022-07-05T13:10:08.000Z</Time>
            <Position>
              <LatitudeDegrees>44.4315187074244022369384765625</LatitudeDegrees>
              <LongitudeDegrees>-1.18003257550299167633056640625</LongitudeDegrees>
            </Position>
            <AltitudeMeters>34.59999847412109375</AltitudeMeters>
            <DistanceMeters>NAN</DistanceMeters>
          </Trackpoint>
          <Trackpoint>
            <Time>2022-07-05T13:10:10.000Z</Time>
            <Position>
              <LatitudeDegrees>44.43148442544043064117431640625</LatitudeDegrees>
              <LongitudeDegrees>-1.17990902625024318695068359375</LongitudeDegrees>
            </Position>
            <AltitudeMeters>34.59999847412109375</AltitudeMeters>
            <DistanceMeters>NAN</DistanceMeters>
          </Trackpoint>
          <Trackpoint>
            <Time>2022-07-05T13:10:12.000Z</Time>
            <Position>
              <LatitudeDegrees>44.43140454590320587158203125</LatitudeDegrees>
              <LongitudeDegrees>-1.17978430353105068206787109375</LongitudeDegrees>
            </Position>
            <AltitudeMeters>34.799999237060546875</AltitudeMeters>
            <DistanceMeters>NAN</DistanceMeters>
          </Trackpoint>
          <Trackpoint>
            <Time>2022-07-05T13:10:14.000Z</Time>
            <Position>
              <LatitudeDegrees>44.43134478293359279632568359375</LatitudeDegrees>
              <LongitudeDegrees>-1.179678440093994140625</LongitudeDegrees>
            </Position>
            <AltitudeMeters>34.799999237060546875</AltitudeMeters>
            <DistanceMeters>NAN</DistanceMeters>
          </Trackpoint>
          <Trackpoint>
            <Time>2022-07-05T13:10:15.000Z</Time>
            <Position>
              <LatitudeDegrees>44.43132483400404453277587890625</LatitudeDegrees>
              <LongitudeDegrees>-1.17963351309299468994140625</LongitudeDegrees>
            </Position>
            <AltitudeMeters>34.799999237060546875</AltitudeMeters>
            <DistanceMeters>NAN</DistanceMeters>
          </Trackpoint>
          <Trackpoint>
            <Time>2022-07-05T13:10:16.000Z</Time>
            <Position>
              <LatitudeDegrees>44.43129725754261016845703125</LatitudeDegrees>
              <LongitudeDegrees>-1.17956955917179584503173828125</LongitudeDegrees>
            </Position>
            <AltitudeMeters>35</AltitudeMeters>
            <DistanceMeters>NAN</DistanceMeters>
          </Trackpoint>
          <Trackpoint>
            <Time>2022-07-05T13:10:17.000Z</Time>
            <Position>
              <LatitudeDegrees>44.43126649595797061920166015625</LatitudeDegrees>
              <LongitudeDegrees>-1.1795216985046863555908203125</LongitudeDegrees>
            </Position>
            <AltitudeMeters>35</AltitudeMeters>
            <DistanceMeters>NAN</DistanceMeters>
          </Trackpoint>
          <Trackpoint>
            <Time>2022-07-05T13:10:19.000Z</Time>
            <Position>
              <LatitudeDegrees>44.431205056607723236083984375</LatitudeDegrees>
              <LongitudeDegrees>-1.1794533021748065948486328125</LongitudeDegrees>
            </Position>
            <AltitudeMeters>35</AltitudeMeters>
            <DistanceMeters>NAN</DistanceMeters>
          </Trackpoint>
          <Trackpoint>
            <Time>2022-07-05T13:10:20.000Z</Time>
            <Position>
              <LatitudeDegrees>44.43118267692625522613525390625</LatitudeDegrees>
              <LongitudeDegrees>-1.179447434842586517333984375</LongitudeDegrees>
            </Position>
            <AltitudeMeters>35</AltitudeMeters>
            <DistanceMeters>NAN</DistanceMeters>
          </Trackpoint>
          <Trackpoint>
            <Time>2022-07-05T13:10:21.000Z</Time>
            <Position>
              <LatitudeDegrees>44.4311606325209140777587890625</LatitudeDegrees>
              <LongitudeDegrees>-1.179451458156108856201171875</LongitudeDegrees>
            </Position>
            <AltitudeMeters>35</AltitudeMeters>
            <DistanceMeters>NAN</DistanceMeters>
          </Trackpoint>
          <Trackpoint>
            <Time>2022-07-05T13:10:24.000Z</Time>
            <Position>
              <LatitudeDegrees>44.431154094636440277099609375</LatitudeDegrees>
              <LongitudeDegrees>-1.1794559843838214874267578125</LongitudeDegrees>
            </Position>
            <AltitudeMeters>35</AltitudeMeters>
            <DistanceMeters>NAN</DistanceMeters>
          </Trackpoint>
          <Trackpoint>
            <Time>2022-07-05T13:10:42.000Z</Time>
            <Position>
              <LatitudeDegrees>44.43110405467450618743896484375</LatitudeDegrees>
              <LongitudeDegrees>-1.17938674986362457275390625</LongitudeDegrees>
            </Position>
            <AltitudeMeters>34.59999847412109375</AltitudeMeters>
            <DistanceMeters>NAN</DistanceMeters>
          </Trackpoint>
          <Trackpoint>
            <Time>2022-07-05T13:10:44.000Z</Time>
            <Position>
              <LatitudeDegrees>44.43108175881206989288330078125</LatitudeDegrees>
              <LongitudeDegrees>-1.17931592278182506561279296875</LongitudeDegrees>
            </Position>
            <AltitudeMeters>34.59999847412109375</AltitudeMeters>
            <DistanceMeters>NAN</DistanceMeters>
          </Trackpoint>
          <Trackpoint>
            <Time>2022-07-05T13:10:45.000Z</Time>
            <Position>
              <LatitudeDegrees>44.43107522092759609222412109375</LatitudeDegrees>
              <LongitudeDegrees>-1.1792601831257343292236328125</LongitudeDegrees>
            </Position>
            <AltitudeMeters>34.59999847412109375</AltitudeMeters>
            <DistanceMeters>NAN</DistanceMeters>
          </Trackpoint>
          <Trackpoint>
            <Time>2022-07-05T13:10:48.000Z</Time>
            <Position>
              <LatitudeDegrees>44.43104538135230541229248046875</LatitudeDegrees>
              <LongitudeDegrees>-1.179096400737762451171875</LongitudeDegrees>
            </Position>
            <AltitudeMeters>34.59999847412109375</AltitudeMeters>
            <DistanceMeters>NAN</DistanceMeters>
          </Trackpoint>
          <Trackpoint>
            <Time>2022-07-05T13:10:52.000Z</Time>
            <Position>
              <LatitudeDegrees>44.430969022214412689208984375</LatitudeDegrees>
              <LongitudeDegrees>-1.1788965761661529541015625</LongitudeDegrees>
            </Position>
            <AltitudeMeters>34.799999237060546875</AltitudeMeters>
            <DistanceMeters>NAN</DistanceMeters>
          </Trackpoint>
          <Trackpoint>
            <Time>2022-07-05T13:10:56.000Z</Time>
            <Position>
              <LatitudeDegrees>44.430914036929607391357421875</LatitudeDegrees>
              <LongitudeDegrees>-1.178588457405567169189453125</LongitudeDegrees>
            </Position>
            <AltitudeMeters>34.799999237060546875</AltitudeMeters>
            <DistanceMeters>NAN</DistanceMeters>
          </Trackpoint>
          <Trackpoint>
            <Time>2022-07-05T13:10:57.000Z</Time>
            <Position>
              <LatitudeDegrees>44.430900625884532928466796875</LatitudeDegrees>
              <LongitudeDegrees>-1.17851234972476959228515625</LongitudeDegrees>
            </Position>
            <AltitudeMeters>35</AltitudeMeters>
            <DistanceMeters>NAN</DistanceMeters>
          </Trackpoint>
          <Trackpoint>
            <Time>2022-07-05T13:11:00.000Z</Time>
            <Position>
              <LatitudeDegrees>44.430896602571010589599609375</LatitudeDegrees>
              <LongitudeDegrees>-1.17833842523396015167236328125</LongitudeDegrees>
            </Position>
            <AltitudeMeters>35</AltitudeMeters>
            <DistanceMeters>NAN</DistanceMeters>
          </Trackpoint>
          <Trackpoint>
            <Time>2022-07-05T13:11:02.000Z</Time>
            <Position>
              <LatitudeDegrees>44.4308816827833652496337890625</LatitudeDegrees>
              <LongitudeDegrees>-1.1781567893922328948974609375</LongitudeDegrees>
            </Position>
            <AltitudeMeters>35</AltitudeMeters>
            <DistanceMeters>NAN</DistanceMeters>
          </Trackpoint>
          <Trackpoint>
            <Time>2022-07-05T13:11:03.000Z</Time>
            <Position>
              <LatitudeDegrees>44.43085779435932636260986328125</LatitudeDegrees>
              <LongitudeDegrees>-1.1780629120767116546630859375</LongitudeDegrees>
            </Position>
            <AltitudeMeters>35</AltitudeMeters>
            <DistanceMeters>NAN</DistanceMeters>
          </Trackpoint>
          <Trackpoint>
            <Time>2022-07-05T13:11:05.000Z</Time>
            <Position>
              <LatitudeDegrees>44.430825524032115936279296875</LatitudeDegrees>
              <LongitudeDegrees>-1.1779036559164524078369140625</LongitudeDegrees>
            </Position>
            <AltitudeMeters>35</AltitudeMeters>
            <DistanceMeters>NAN</DistanceMeters>
          </Trackpoint>
          <Trackpoint>
            <Time>2022-07-05T13:11:07.000Z</Time>
            <Position>
              <LatitudeDegrees>44.4307834468781948089599609375</LatitudeDegrees>
              <LongitudeDegrees>-1.17777398787438869476318359375</LongitudeDegrees>
            </Position>
            <AltitudeMeters>35.200000762939453125</AltitudeMeters>
            <DistanceMeters>NAN</DistanceMeters>
          </Trackpoint>
          <Trackpoint>
            <Time>2022-07-05T13:11:08.000Z</Time>
            <Position>
              <LatitudeDegrees>44.4307371787726879119873046875</LatitudeDegrees>
              <LongitudeDegrees>-1.1777095310389995574951171875</LongitudeDegrees>
            </Position>
            <AltitudeMeters>35.200000762939453125</AltitudeMeters>
            <DistanceMeters>NAN</DistanceMeters>
          </Trackpoint>
          <Trackpoint>
            <Time>2022-07-05T13:11:09.000Z</Time>
            <Position>
              <LatitudeDegrees>44.43072192370891571044921875</LatitudeDegrees>
              <LongitudeDegrees>-1.177650354802608489990234375</LongitudeDegrees>
            </Position>
            <AltitudeMeters>35.200000762939453125</AltitudeMeters>
            <DistanceMeters>NAN</DistanceMeters>
          </Trackpoint>
          <Trackpoint>
            <Time>2022-07-05T13:11:11.000Z</Time>
            <Position>
              <LatitudeDegrees>44.4307086803019046783447265625</LatitudeDegrees>
              <LongitudeDegrees>-1.17752722464501857757568359375</LongitudeDegrees>
            </Position>
            <AltitudeMeters>35.40000152587890625</AltitudeMeters>
            <DistanceMeters>NAN</DistanceMeters>
          </Trackpoint>
          <Trackpoint>
            <Time>2022-07-05T13:11:15.000Z</Time>
            <Position>
              <LatitudeDegrees>44.43066023290157318115234375</LatitudeDegrees>
              <LongitudeDegrees>-1.17734349332749843597412109375</LongitudeDegrees>
            </Position>
            <AltitudeMeters>35.799999237060546875</AltitudeMeters>
            <DistanceMeters>NAN</DistanceMeters>
          </Trackpoint>
          <Trackpoint>
            <Time>2022-07-05T13:11:16.000Z</Time>
            <Position>
              <LatitudeDegrees>44.43064187653362751007080078125</LatitudeDegrees>
              <LongitudeDegrees>-1.1773055233061313629150390625</LongitudeDegrees>
            </Position>
            <AltitudeMeters>36</AltitudeMeters>
            <DistanceMeters>NAN</DistanceMeters>
          </Trackpoint>
          <Trackpoint>
            <Time>2022-07-05T13:11:22.000Z</Time>
            <Position>
              <LatitudeDegrees>44.43053442053496837615966796875</LatitudeDegrees>
              <LongitudeDegrees>-1.177075020968914031982421875</LongitudeDegrees>
            </Position>
            <AltitudeMeters>36.799999237060546875</AltitudeMeters>
            <DistanceMeters>NAN</DistanceMeters>
          </Trackpoint>
          <Trackpoint>
            <Time>2022-07-05T13:11:23.000Z</Time>
            <Position>
              <LatitudeDegrees>44.4305138848721981048583984375</LatitudeDegrees>
              <LongitudeDegrees>-1.1770292557775974273681640625</LongitudeDegrees>
            </Position>
            <AltitudeMeters>37</AltitudeMeters>
            <DistanceMeters>NAN</DistanceMeters>
          </Trackpoint>
          <Trackpoint>
            <Time>2022-07-05T13:11:28.000Z</Time>
            <Position>
              <LatitudeDegrees>44.43040517158806324005126953125</LatitudeDegrees>
              <LongitudeDegrees>-1.17679917253553867340087890625</LongitudeDegrees>
            </Position>
            <AltitudeMeters>37</AltitudeMeters>
            <DistanceMeters>NAN</DistanceMeters>
          </Trackpoint>
          <Trackpoint>
            <Time>2022-07-05T13:11:30.000Z</Time>
            <Position>
              <LatitudeDegrees>44.4303697161376476287841796875</LatitudeDegrees>
              <LongitudeDegrees>-1.1767147667706012725830078125</LongitudeDegrees>
            </Position>
            <AltitudeMeters>37</AltitudeMeters>
            <DistanceMeters>NAN</DistanceMeters>
          </Trackpoint>
          <Trackpoint>
            <Time>2022-07-05T13:11:38.000Z</Time>
            <Position>
              <LatitudeDegrees>44.43019662983715534210205078125</LatitudeDegrees>
              <LongitudeDegrees>-1.17633062414824962615966796875</LongitudeDegrees>
            </Position>
            <AltitudeMeters>37</AltitudeMeters>
            <DistanceMeters>NAN</DistanceMeters>
          </Trackpoint>
          <Trackpoint>
            <Time>2022-07-05T13:11:44.000Z</Time>
            <Position>
              <LatitudeDegrees>44.43016561679542064666748046875</LatitudeDegrees>
              <LongitudeDegrees>-1.17602594196796417236328125</LongitudeDegrees>
            </Position>
            <AltitudeMeters>37</AltitudeMeters>
            <DistanceMeters>NAN</DistanceMeters>
          </Trackpoint>
          <Trackpoint>
            <Time>2022-07-05T13:11:48.000Z</Time>
            <Position>
              <LatitudeDegrees>44.43014181219041347503662109375</LatitudeDegrees>
              <LongitudeDegrees>-1.1758732236921787261962890625</LongitudeDegrees>
            </Position>
            <AltitudeMeters>37</AltitudeMeters>
            <DistanceMeters>NAN</DistanceMeters>
          </Trackpoint>
          <Trackpoint>
            <Time>2022-07-05T13:11:52.000Z</Time>
            <Position>
              <LatitudeDegrees>44.4301430694758892059326171875</LatitudeDegrees>
              <LongitudeDegrees>-1.1757411248981952667236328125</LongitudeDegrees>
            </Position>
            <AltitudeMeters>37.200000762939453125</AltitudeMeters>
            <DistanceMeters>NAN</DistanceMeters>
          </Trackpoint>
          <Trackpoint>
            <Time>2022-07-05T13:11:54.000Z</Time>
            <Position>
              <LatitudeDegrees>44.4301445782184600830078125</LatitudeDegrees>
              <LongitudeDegrees>-1.17569728754460811614990234375</LongitudeDegrees>
            </Position>
            <AltitudeMeters>37.40000152587890625</AltitudeMeters>
            <DistanceMeters>NAN</DistanceMeters>
          </Trackpoint>
          <Trackpoint>
            <Time>2022-07-05T13:11:59.000Z</Time>
            <Position>
              <LatitudeDegrees>44.430150277912616729736328125</LatitudeDegrees>
              <LongitudeDegrees>-1.1756197549402713775634765625</LongitudeDegrees>
            </Position>
            <AltitudeMeters>38</AltitudeMeters>
            <DistanceMeters>NAN</DistanceMeters>
          </Trackpoint>
          <Trackpoint>
            <Time>2022-07-05T13:12:01.000Z</Time>
            <Position>
              <LatitudeDegrees>44.43015304394066333770751953125</LatitudeDegrees>
              <LongitudeDegrees>-1.17557709105312824249267578125</LongitudeDegrees>
            </Position>
            <AltitudeMeters>38.200000762939453125</AltitudeMeters>
            <DistanceMeters>NAN</DistanceMeters>
          </Trackpoint>
          <Trackpoint>
            <Time>2022-07-05T13:12:06.000Z</Time>
            <Position>
              <LatitudeDegrees>44.43015958182513713836669921875</LatitudeDegrees>
              <LongitudeDegrees>-1.1754832975566387176513671875</LongitudeDegrees>
            </Position>
            <AltitudeMeters>38.200000762939453125</AltitudeMeters>
            <DistanceMeters>NAN</DistanceMeters>
          </Trackpoint>
          <Trackpoint>
            <Time>2022-07-05T13:12:07.000Z</Time>
            <Position>
              <LatitudeDegrees>44.4301578216254711151123046875</LatitudeDegrees>
              <LongitudeDegrees>-1.1754635162651538848876953125</LongitudeDegrees>
            </Position>
            <AltitudeMeters>38</AltitudeMeters>
            <DistanceMeters>NAN</DistanceMeters>
          </Trackpoint>
          <Trackpoint>
            <Time>2022-07-05T13:12:11.000Z</Time>
            <Position>
              <LatitudeDegrees>44.4301537983119487762451171875</LatitudeDegrees>
              <LongitudeDegrees>-1.17538933642208576202392578125</LongitudeDegrees>
            </Position>
            <AltitudeMeters>37.59999847412109375</AltitudeMeters>
            <DistanceMeters>NAN</DistanceMeters>
          </Trackpoint>
          <Trackpoint>
            <Time>2022-07-05T13:12:12.000Z</Time>
            <Position>
              <LatitudeDegrees>44.43015404976904392242431640625</LatitudeDegrees>
              <LongitudeDegrees>-1.175366453826427459716796875</LongitudeDegrees>
            </Position>
            <AltitudeMeters>37.59999847412109375</AltitudeMeters>
            <DistanceMeters>NAN</DistanceMeters>
          </Trackpoint>
          <Trackpoint>
            <Time>2022-07-05T13:12:17.000Z</Time>
            <Position>
              <LatitudeDegrees>44.43013125099241733551025390625</LatitudeDegrees>
              <LongitudeDegrees>-1.1751862429082393646240234375</LongitudeDegrees>
            </Position>
            <AltitudeMeters>37</AltitudeMeters>
            <DistanceMeters>NAN</DistanceMeters>
          </Trackpoint>
          <Trackpoint>
            <Time>2022-07-05T13:12:18.000Z</Time>
            <Position>
              <LatitudeDegrees>44.43011985160410404205322265625</LatitudeDegrees>
              <LongitudeDegrees>-1.175158582627773284912109375</LongitudeDegrees>
            </Position>
            <AltitudeMeters>36.799999237060546875</AltitudeMeters>
            <DistanceMeters>NAN</DistanceMeters>
          </Trackpoint>
          <Trackpoint>
            <Time>2022-07-05T13:12:22.000Z</Time>
            <Position>
              <LatitudeDegrees>44.430090598762035369873046875</LatitudeDegrees>
              <LongitudeDegrees>-1.17495817132294178009033203125</LongitudeDegrees>
            </Position>
            <AltitudeMeters>36.40000152587890625</AltitudeMeters>
            <DistanceMeters>NAN</DistanceMeters>
          </Trackpoint>
          <Trackpoint>
            <Time>2022-07-05T13:12:27.000Z</Time>
            <Position>
              <LatitudeDegrees>44.43002865649759769439697265625</LatitudeDegrees>
              <LongitudeDegrees>-1.1746595241129398345947265625</LongitudeDegrees>
            </Position>
            <AltitudeMeters>36</AltitudeMeters>
            <DistanceMeters>NAN</DistanceMeters>
          </Trackpoint>
          <Trackpoint>
            <Time>2022-07-05T13:12:29.000Z</Time>
            <Position>
              <LatitudeDegrees>44.43002027459442615509033203125</LatitudeDegrees>
              <LongitudeDegrees>-1.1745418421924114227294921875</LongitudeDegrees>
            </Position>
            <AltitudeMeters>35.799999237060546875</AltitudeMeters>
            <DistanceMeters>NAN</DistanceMeters>
          </Trackpoint>
          <Trackpoint>
            <Time>2022-07-05T13:12:30.000Z</Time>
            <Position>
              <LatitudeDegrees>44.4300116412341594696044921875</LatitudeDegrees>
              <LongitudeDegrees>-1.17446221411228179931640625</LongitudeDegrees>
            </Position>
            <AltitudeMeters>35.59999847412109375</AltitudeMeters>
            <DistanceMeters>NAN</DistanceMeters>
          </Trackpoint>
          <Trackpoint>
            <Time>2022-07-05T13:12:31.000Z</Time>
            <Position>
              <LatitudeDegrees>44.4299992360174655914306640625</LatitudeDegrees>
              <LongitudeDegrees>-1.174402534961700439453125</LongitudeDegrees>
            </Position>
            <AltitudeMeters>35.59999847412109375</AltitudeMeters>
            <DistanceMeters>NAN</DistanceMeters>
          </Trackpoint>
          <Trackpoint>
            <Time>2022-07-05T13:12:32.000Z</Time>
            <Position>
              <LatitudeDegrees>44.42999211139976978302001953125</LatitudeDegrees>
              <LongitudeDegrees>-1.174333803355693817138671875</LongitudeDegrees>
            </Position>
            <AltitudeMeters>35.59999847412109375</AltitudeMeters>
            <DistanceMeters>NAN</DistanceMeters>
          </Trackpoint>
          <Trackpoint>
            <Time>2022-07-05T13:12:34.000Z</Time>
            <Position>
              <LatitudeDegrees>44.42999848164618015289306640625</LatitudeDegrees>
              <LongitudeDegrees>-1.1741944961249828338623046875</LongitudeDegrees>
            </Position>
            <AltitudeMeters>35.40000152587890625</AltitudeMeters>
            <DistanceMeters>NAN</DistanceMeters>
          </Trackpoint>
          <Trackpoint>
            <Time>2022-07-05T13:12:36.000Z</Time>
            <Position>
              <LatitudeDegrees>44.4300019182264804840087890625</LatitudeDegrees>
              <LongitudeDegrees>-1.17403800599277019500732421875</LongitudeDegrees>
            </Position>
            <AltitudeMeters>35.40000152587890625</AltitudeMeters>
            <DistanceMeters>NAN</DistanceMeters>
          </Trackpoint>
          <Trackpoint>
            <Time>2022-07-05T13:12:37.000Z</Time>
            <Position>
              <LatitudeDegrees>44.4299970567226409912109375</LatitudeDegrees>
              <LongitudeDegrees>-1.17396407760679721832275390625</LongitudeDegrees>
            </Position>
            <AltitudeMeters>35.40000152587890625</AltitudeMeters>
            <DistanceMeters>NAN</DistanceMeters>
          </Trackpoint>
          <Trackpoint>
            <Time>2022-07-05T13:12:39.000Z</Time>
            <Position>
              <LatitudeDegrees>44.4299958832561969757080078125</LatitudeDegrees>
              <LongitudeDegrees>-1.17382409982383251190185546875</LongitudeDegrees>
            </Position>
            <AltitudeMeters>35.40000152587890625</AltitudeMeters>
            <DistanceMeters>NAN</DistanceMeters>
          </Trackpoint>
          <Trackpoint>
            <Time>2022-07-05T13:12:42.000Z</Time>
            <Position>
              <LatitudeDegrees>44.4299942068755626678466796875</LatitudeDegrees>
              <LongitudeDegrees>-1.17359183728694915771484375</LongitudeDegrees>
            </Position>
            <AltitudeMeters>35.40000152587890625</AltitudeMeters>
            <DistanceMeters>NAN</DistanceMeters>
          </Trackpoint>
          <Trackpoint>
            <Time>2022-07-05T13:12:43.000Z</Time>
            <Position>
              <LatitudeDegrees>44.4299885071814060211181640625</LatitudeDegrees>
              <LongitudeDegrees>-1.173515059053897857666015625</LongitudeDegrees>
            </Position>
            <AltitudeMeters>35.40000152587890625</AltitudeMeters>
            <DistanceMeters>NAN</DistanceMeters>
          </Trackpoint>
          <Trackpoint>
            <Time>2022-07-05T13:12:44.000Z</Time>
            <Position>
              <LatitudeDegrees>44.42998859100043773651123046875</LatitudeDegrees>
              <LongitudeDegrees>-1.1734515242278575897216796875</LongitudeDegrees>
            </Position>
            <AltitudeMeters>35.40000152587890625</AltitudeMeters>
            <DistanceMeters>NAN</DistanceMeters>
          </Trackpoint>
          <Trackpoint>
            <Time>2022-07-05T13:12:49.000Z</Time>
            <Position>
              <LatitudeDegrees>44.429951123893260955810546875</LatitudeDegrees>
              <LongitudeDegrees>-1.173125468194484710693359375</LongitudeDegrees>
            </Position>
            <AltitudeMeters>35.200000762939453125</AltitudeMeters>
            <DistanceMeters>NAN</DistanceMeters>
          </Trackpoint>
          <Trackpoint>
            <Time>2022-07-05T13:12:51.000Z</Time>
            <Position>
              <LatitudeDegrees>44.42993846721947193145751953125</LatitudeDegrees>
              <LongitudeDegrees>-1.17298456840217113494873046875</LongitudeDegrees>
            </Position>
            <AltitudeMeters>35</AltitudeMeters>
            <DistanceMeters>NAN</DistanceMeters>
          </Trackpoint>
          <Trackpoint>
            <Time>2022-07-05T13:12:53.000Z</Time>
            <Position>
              <LatitudeDegrees>44.42992128431797027587890625</LatitudeDegrees>
              <LongitudeDegrees>-1.17283671163022518157958984375</LongitudeDegrees>
            </Position>
            <AltitudeMeters>35</AltitudeMeters>
            <DistanceMeters>NAN</DistanceMeters>
          </Trackpoint>
          <Trackpoint>
            <Time>2022-07-05T13:12:57.000Z</Time>
            <Position>
              <LatitudeDegrees>44.429907537996768951416015625</LatitudeDegrees>
              <LongitudeDegrees>-1.1725771240890026092529296875</LongitudeDegrees>
            </Position>
            <AltitudeMeters>35.40000152587890625</AltitudeMeters>
            <DistanceMeters>NAN</DistanceMeters>
          </Trackpoint>
          <Trackpoint>
            <Time>2022-07-05T13:12:59.000Z</Time>
            <Position>
              <LatitudeDegrees>44.42989873699843883514404296875</LatitudeDegrees>
              <LongitudeDegrees>-1.17248316295444965362548828125</LongitudeDegrees>
            </Position>
            <AltitudeMeters>35.59999847412109375</AltitudeMeters>
            <DistanceMeters>NAN</DistanceMeters>
          </Trackpoint>
          <Trackpoint>
            <Time>2022-07-05T13:13:03.000Z</Time>
            <Position>
              <LatitudeDegrees>44.42986286245286464691162109375</LatitudeDegrees>
              <LongitudeDegrees>-1.1722076497972011566162109375</LongitudeDegrees>
            </Position>
            <AltitudeMeters>36</AltitudeMeters>
            <DistanceMeters>NAN</DistanceMeters>
          </Trackpoint>
          <Trackpoint>
            <Time>2022-07-05T13:13:07.000Z</Time>
            <Position>
              <LatitudeDegrees>44.42986403591930866241455078125</LatitudeDegrees>
              <LongitudeDegrees>-1.17192258127033710479736328125</LongitudeDegrees>
            </Position>
            <AltitudeMeters>35.799999237060546875</AltitudeMeters>
            <DistanceMeters>NAN</DistanceMeters>
          </Trackpoint>
          <Trackpoint>
            <Time>2022-07-05T13:13:12.000Z</Time>
            <Position>
              <LatitudeDegrees>44.42986437119543552398681640625</LatitudeDegrees>
              <LongitudeDegrees>-1.171582527458667755126953125</LongitudeDegrees>
            </Position>
            <AltitudeMeters>35.59999847412109375</AltitudeMeters>
            <DistanceMeters>NAN</DistanceMeters>
          </Trackpoint>
          <Trackpoint>
            <Time>2022-07-05T13:13:15.000Z</Time>
            <Position>
              <LatitudeDegrees>44.42985448054969310760498046875</LatitudeDegrees>
              <LongitudeDegrees>-1.1713992990553379058837890625</LongitudeDegrees>
            </Position>
            <AltitudeMeters>35.59999847412109375</AltitudeMeters>
            <DistanceMeters>NAN</DistanceMeters>
          </Trackpoint>
          <Trackpoint>
            <Time>2022-07-05T13:13:17.000Z</Time>
            <Position>
              <LatitudeDegrees>44.42985288798809051513671875</LatitudeDegrees>
              <LongitudeDegrees>-1.171242892742156982421875</LongitudeDegrees>
            </Position>
            <AltitudeMeters>35.59999847412109375</AltitudeMeters>
            <DistanceMeters>NAN</DistanceMeters>
          </Trackpoint>
          <Trackpoint>
            <Time>2022-07-05T13:13:21.000Z</Time>
            <Position>
              <LatitudeDegrees>44.429857917129993438720703125</LatitudeDegrees>
              <LongitudeDegrees>-1.1709959618747234344482421875</LongitudeDegrees>
            </Position>
            <AltitudeMeters>35.59999847412109375</AltitudeMeters>
            <DistanceMeters>NAN</DistanceMeters>
          </Trackpoint>
          <Trackpoint>
            <Time>2022-07-05T13:13:23.000Z</Time>
            <Position>
              <LatitudeDegrees>44.42986487410962581634521484375</LatitudeDegrees>
              <LongitudeDegrees>-1.170854978263378143310546875</LongitudeDegrees>
            </Position>
            <AltitudeMeters>35.59999847412109375</AltitudeMeters>
            <DistanceMeters>NAN</DistanceMeters>
          </Trackpoint>
          <Trackpoint>
            <Time>2022-07-05T13:13:27.000Z</Time>
            <Position>
              <LatitudeDegrees>44.42984190769493579864501953125</LatitudeDegrees>
              <LongitudeDegrees>-1.17059153504669666290283203125</LongitudeDegrees>
            </Position>
            <AltitudeMeters>35.59999847412109375</AltitudeMeters>
            <DistanceMeters>NAN</DistanceMeters>
          </Trackpoint>
          <Trackpoint>
            <Time>2022-07-05T13:13:30.000Z</Time>
            <Position>
              <LatitudeDegrees>44.429851211607456207275390625</LatitudeDegrees>
              <LongitudeDegrees>-1.17034913040697574615478515625</LongitudeDegrees>
            </Position>
            <AltitudeMeters>35.59999847412109375</AltitudeMeters>
            <DistanceMeters>NAN</DistanceMeters>
          </Trackpoint>
          <Trackpoint>
            <Time>2022-07-05T13:13:34.000Z</Time>
            <Position>
              <LatitudeDegrees>44.42980326712131500244140625</LatitudeDegrees>
              <LongitudeDegrees>-1.1700923927128314971923828125</LongitudeDegrees>
            </Position>
            <AltitudeMeters>35.799999237060546875</AltitudeMeters>
            <DistanceMeters>NAN</DistanceMeters>
          </Trackpoint>
          <Trackpoint>
            <Time>2022-07-05T13:13:36.000Z</Time>
            <Position>
              <LatitudeDegrees>44.42978323437273502349853515625</LatitudeDegrees>
              <LongitudeDegrees>-1.1699701845645904541015625</LongitudeDegrees>
            </Position>
            <AltitudeMeters>35.799999237060546875</AltitudeMeters>
            <DistanceMeters>NAN</DistanceMeters>
          </Trackpoint>
          <Trackpoint>
            <Time>2022-07-05T13:13:38.000Z</Time>
            <Position>
              <LatitudeDegrees>44.4297583401203155517578125</LatitudeDegrees>
              <LongitudeDegrees>-1.169862560927867889404296875</LongitudeDegrees>
            </Position>
            <AltitudeMeters>36</AltitudeMeters>
            <DistanceMeters>NAN</DistanceMeters>
          </Trackpoint>
          <Trackpoint>
            <Time>2022-07-05T13:13:42.000Z</Time>
            <Position>
              <LatitudeDegrees>44.42970578558743000030517578125</LatitudeDegrees>
              <LongitudeDegrees>-1.1696491576731204986572265625</LongitudeDegrees>
            </Position>
            <AltitudeMeters>36</AltitudeMeters>
            <DistanceMeters>NAN</DistanceMeters>
          </Trackpoint>
          <Trackpoint>
            <Time>2022-07-05T13:13:44.000Z</Time>
            <Position>
              <LatitudeDegrees>44.42968801595270633697509765625</LatitudeDegrees>
              <LongitudeDegrees>-1.16953357122838497161865234375</LongitudeDegrees>
            </Position>
            <AltitudeMeters>36.200000762939453125</AltitudeMeters>
            <DistanceMeters>NAN</DistanceMeters>
          </Trackpoint>
          <Trackpoint>
            <Time>2022-07-05T13:13:47.000Z</Time>
            <Position>
              <LatitudeDegrees>44.4296617805957794189453125</LatitudeDegrees>
              <LongitudeDegrees>-1.1693417094647884368896484375</LongitudeDegrees>
            </Position>
            <AltitudeMeters>36.200000762939453125</AltitudeMeters>
            <DistanceMeters>NAN</DistanceMeters>
          </Trackpoint>
          <Trackpoint>
            <Time>2022-07-05T13:13:50.000Z</Time>
            <Position>
              <LatitudeDegrees>44.42964526824653148651123046875</LatitudeDegrees>
              <LongitudeDegrees>-1.1691288091242313385009765625</LongitudeDegrees>
            </Position>
            <AltitudeMeters>36</AltitudeMeters>
            <DistanceMeters>NAN</DistanceMeters>
          </Trackpoint>
          <Trackpoint>
            <Time>2022-07-05T13:13:53.000Z</Time>
            <Position>
              <LatitudeDegrees>44.42960469983518123626708984375</LatitudeDegrees>
              <LongitudeDegrees>-1.168917752802371978759765625</LongitudeDegrees>
            </Position>
            <AltitudeMeters>36</AltitudeMeters>
            <DistanceMeters>NAN</DistanceMeters>
          </Trackpoint>
          <Trackpoint>
            <Time>2022-07-05T13:13:57.000Z</Time>
            <Position>
              <LatitudeDegrees>44.42956530489027500152587890625</LatitudeDegrees>
              <LongitudeDegrees>-1.16865967400372028350830078125</LongitudeDegrees>
            </Position>
            <AltitudeMeters>35.799999237060546875</AltitudeMeters>
            <DistanceMeters>NAN</DistanceMeters>
          </Trackpoint>
          <Trackpoint>
            <Time>2022-07-05T13:13:59.000Z</Time>
            <Position>
              <LatitudeDegrees>44.4295409135520458221435546875</LatitudeDegrees>
              <LongitudeDegrees>-1.16855272091925144195556640625</LongitudeDegrees>
            </Position>
            <AltitudeMeters>35.799999237060546875</AltitudeMeters>
            <DistanceMeters>NAN</DistanceMeters>
          </Trackpoint>
          <Trackpoint>
            <Time>2022-07-05T13:14:01.000Z</Time>
            <Position>
              <LatitudeDegrees>44.42951099015772342681884765625</LatitudeDegrees>
              <LongitudeDegrees>-1.16845465265214443206787109375</LongitudeDegrees>
            </Position>
            <AltitudeMeters>35.799999237060546875</AltitudeMeters>
            <DistanceMeters>NAN</DistanceMeters>
          </Trackpoint>
          <Trackpoint>
            <Time>2022-07-05T13:14:04.000Z</Time>
            <Position>
              <LatitudeDegrees>44.42945835180580615997314453125</LatitudeDegrees>
              <LongitudeDegrees>-1.16832758300006389617919921875</LongitudeDegrees>
            </Position>
            <AltitudeMeters>35.799999237060546875</AltitudeMeters>
            <DistanceMeters>NAN</DistanceMeters>
          </Trackpoint>
          <Trackpoint>
            <Time>2022-07-05T13:14:06.000Z</Time>
            <Position>
              <LatitudeDegrees>44.4294225610792636871337890625</LatitudeDegrees>
              <LongitudeDegrees>-1.168213002383708953857421875</LongitudeDegrees>
            </Position>
            <AltitudeMeters>35.799999237060546875</AltitudeMeters>
            <DistanceMeters>NAN</DistanceMeters>
          </Trackpoint>
          <Trackpoint>
            <Time>2022-07-05T13:14:09.000Z</Time>
            <Position>
              <LatitudeDegrees>44.4294252432882785797119140625</LatitudeDegrees>
              <LongitudeDegrees>-1.1680180393159389495849609375</LongitudeDegrees>
            </Position>
            <AltitudeMeters>35.799999237060546875</AltitudeMeters>
            <DistanceMeters>NAN</DistanceMeters>
          </Trackpoint>
          <Trackpoint>
            <Time>2022-07-05T13:14:10.000Z</Time>
            <Position>
              <LatitudeDegrees>44.42941862158477306365966796875</LatitudeDegrees>
              <LongitudeDegrees>-1.16797017864882946014404296875</LongitudeDegrees>
            </Position>
            <AltitudeMeters>35.59999847412109375</AltitudeMeters>
            <DistanceMeters>NAN</DistanceMeters>
          </Trackpoint>
          <Trackpoint>
            <Time>2022-07-05T13:14:12.000Z</Time>
            <Position>
              <LatitudeDegrees>44.42940470762550830841064453125</LatitudeDegrees>
              <LongitudeDegrees>-1.1678919754922389984130859375</LongitudeDegrees>
            </Position>
            <AltitudeMeters>35.40000152587890625</AltitudeMeters>
            <DistanceMeters>NAN</DistanceMeters>
          </Trackpoint>
          <Trackpoint>
            <Time>2022-07-05T13:14:14.000Z</Time>
            <Position>
              <LatitudeDegrees>44.4293856807053089141845703125</LatitudeDegrees>
              <LongitudeDegrees>-1.16784520447254180908203125</LongitudeDegrees>
            </Position>
            <AltitudeMeters>35.200000762939453125</AltitudeMeters>
            <DistanceMeters>NAN</DistanceMeters>
          </Trackpoint>
          <Trackpoint>
            <Time>2022-07-05T13:14:19.000Z</Time>
            <Position>
              <LatitudeDegrees>44.42928886972367763519287109375</LatitudeDegrees>
              <LongitudeDegrees>-1.16785190999507904052734375</LongitudeDegrees>
            </Position>
            <AltitudeMeters>35.200000762939453125</AltitudeMeters>
            <DistanceMeters>NAN</DistanceMeters>
          </Trackpoint>
          <Trackpoint>
            <Time>2022-07-05T13:14:25.000Z</Time>
            <Position>
              <LatitudeDegrees>44.42910052835941314697265625</LatitudeDegrees>
              <LongitudeDegrees>-1.16786389611661434173583984375</LongitudeDegrees>
            </Position>
            <AltitudeMeters>35.59999847412109375</AltitudeMeters>
            <DistanceMeters>NAN</DistanceMeters>
          </Trackpoint>
          <Trackpoint>
            <Time>2022-07-05T13:14:33.000Z</Time>
            <Position>
              <LatitudeDegrees>44.42879718728363513946533203125</LatitudeDegrees>
              <LongitudeDegrees>-1.1678487248718738555908203125</LongitudeDegrees>
            </Position>
            <AltitudeMeters>35.799999237060546875</AltitudeMeters>
            <DistanceMeters>NAN</DistanceMeters>
          </Trackpoint>
          <Trackpoint>
            <Time>2022-07-05T13:14:39.000Z</Time>
            <Position>
              <LatitudeDegrees>44.42848839797079563140869140625</LatitudeDegrees>
              <LongitudeDegrees>-1.16787563078105449676513671875</LongitudeDegrees>
            </Position>
            <AltitudeMeters>35.799999237060546875</AltitudeMeters>
            <DistanceMeters>NAN</DistanceMeters>
          </Trackpoint>
          <Trackpoint>
            <Time>2022-07-05T13:14:44.000Z</Time>
            <Position>
              <LatitudeDegrees>44.42822621203958988189697265625</LatitudeDegrees>
              <LongitudeDegrees>-1.1678866110742092132568359375</LongitudeDegrees>
            </Position>
            <AltitudeMeters>35.799999237060546875</AltitudeMeters>
            <DistanceMeters>NAN</DistanceMeters>
          </Trackpoint>
          <Trackpoint>
            <Time>2022-07-05T13:14:50.000Z</Time>
            <Position>
              <LatitudeDegrees>44.42790803499519824981689453125</LatitudeDegrees>
              <LongitudeDegrees>-1.167917959392070770263671875</LongitudeDegrees>
            </Position>
            <AltitudeMeters>35.799999237060546875</AltitudeMeters>
            <DistanceMeters>NAN</DistanceMeters>
          </Trackpoint>
          <Trackpoint>
            <Time>2022-07-05T13:14:51.000Z</Time>
            <Position>
              <LatitudeDegrees>44.42784751765429973602294921875</LatitudeDegrees>
              <LongitudeDegrees>-1.16792173124849796295166015625</LongitudeDegrees>
            </Position>
            <AltitudeMeters>35.799999237060546875</AltitudeMeters>
            <DistanceMeters>NAN</DistanceMeters>
          </Trackpoint>
          <Trackpoint>
            <Time>2022-07-05T13:14:59.000Z</Time>
            <Position>
              <LatitudeDegrees>44.427490197122097015380859375</LatitudeDegrees>
              <LongitudeDegrees>-1.167938075959682464599609375</LongitudeDegrees>
            </Position>
            <AltitudeMeters>36</AltitudeMeters>
            <DistanceMeters>NAN</DistanceMeters>
          </Trackpoint>
          <Trackpoint>
            <Time>2022-07-05T13:15:05.000Z</Time>
            <Position>
              <LatitudeDegrees>44.4272048771381378173828125</LatitudeDegrees>
              <LongitudeDegrees>-1.1679791472852230072021484375</LongitudeDegrees>
            </Position>
            <AltitudeMeters>36</AltitudeMeters>
            <DistanceMeters>NAN</DistanceMeters>
          </Trackpoint>
          <Trackpoint>
            <Time>2022-07-05T13:15:07.000Z</Time>
            <Position>
              <LatitudeDegrees>44.42706548608839511871337890625</LatitudeDegrees>
              <LongitudeDegrees>-1.1679992638528347015380859375</LongitudeDegrees>
            </Position>
            <AltitudeMeters>36</AltitudeMeters>
            <DistanceMeters>NAN</DistanceMeters>
          </Trackpoint>
          <Trackpoint>
            <Time>2022-07-05T13:15:12.000Z</Time>
            <Position>
              <LatitudeDegrees>44.426825679838657379150390625</LatitudeDegrees>
              <LongitudeDegrees>-1.168034970760345458984375</LongitudeDegrees>
            </Position>
            <AltitudeMeters>35.40000152587890625</AltitudeMeters>
            <DistanceMeters>NAN</DistanceMeters>
          </Trackpoint>
          <Trackpoint>
            <Time>2022-07-05T13:15:14.000Z</Time>
            <Position>
              <LatitudeDegrees>44.42670799791812896728515625</LatitudeDegrees>
              <LongitudeDegrees>-1.168048717081546783447265625</LongitudeDegrees>
            </Position>
            <AltitudeMeters>35.40000152587890625</AltitudeMeters>
            <DistanceMeters>NAN</DistanceMeters>
          </Trackpoint>
          <Trackpoint>
            <Time>2022-07-05T13:15:16.000Z</Time>
            <Position>
              <LatitudeDegrees>44.42659375257790088653564453125</LatitudeDegrees>
              <LongitudeDegrees>-1.16807629354298114776611328125</LongitudeDegrees>
            </Position>
            <AltitudeMeters>35.200000762939453125</AltitudeMeters>
            <DistanceMeters>NAN</DistanceMeters>
          </Trackpoint>
          <Trackpoint>
            <Time>2022-07-05T13:15:18.000Z</Time>
            <Position>
              <LatitudeDegrees>44.42650456912815570831298828125</LatitudeDegrees>
              <LongitudeDegrees>-1.1680968292057514190673828125</LongitudeDegrees>
            </Position>
            <AltitudeMeters>35.200000762939453125</AltitudeMeters>
            <DistanceMeters>NAN</DistanceMeters>
          </Trackpoint>
          <Trackpoint>
            <Time>2022-07-05T13:15:22.000Z</Time>
            <Position>
              <LatitudeDegrees>44.4263584725558757781982421875</LatitudeDegrees>
              <LongitudeDegrees>-1.168127842247486114501953125</LongitudeDegrees>
            </Position>
            <AltitudeMeters>35.59999847412109375</AltitudeMeters>
            <DistanceMeters>NAN</DistanceMeters>
          </Trackpoint>
          <Trackpoint>
            <Time>2022-07-05T13:15:28.000Z</Time>
            <Position>
              <LatitudeDegrees>44.4261231087148189544677734375</LatitudeDegrees>
              <LongitudeDegrees>-1.16818911395967006683349609375</LongitudeDegrees>
            </Position>
            <AltitudeMeters>35.799999237060546875</AltitudeMeters>
            <DistanceMeters>NAN</DistanceMeters>
          </Trackpoint>
          <Trackpoint>
            <Time>2022-07-05T13:15:34.000Z</Time>
            <Position>
              <LatitudeDegrees>44.42584994249045848846435546875</LatitudeDegrees>
              <LongitudeDegrees>-1.1682912893593311309814453125</LongitudeDegrees>
            </Position>
            <AltitudeMeters>35.200000762939453125</AltitudeMeters>
            <DistanceMeters>NAN</DistanceMeters>
          </Trackpoint>
          <Trackpoint>
            <Time>2022-07-05T13:15:42.000Z</Time>
            <Position>
              <LatitudeDegrees>44.42546957172453403472900390625</LatitudeDegrees>
              <LongitudeDegrees>-1.16841852664947509765625</LongitudeDegrees>
            </Position>
            <AltitudeMeters>35</AltitudeMeters>
            <DistanceMeters>NAN</DistanceMeters>
          </Trackpoint>
          <Trackpoint>
            <Time>2022-07-05T13:15:47.000Z</Time>
            <Position>
              <LatitudeDegrees>44.4252084754407405853271484375</LatitudeDegrees>
              <LongitudeDegrees>-1.16849069483578205108642578125</LongitudeDegrees>
            </Position>
            <AltitudeMeters>35</AltitudeMeters>
            <DistanceMeters>NAN</DistanceMeters>
          </Trackpoint>
          <Trackpoint>
            <Time>2022-07-05T13:15:48.000Z</Time>
            <Position>
              <LatitudeDegrees>44.42515273578464984893798828125</LatitudeDegrees>
              <LongitudeDegrees>-1.16850846447050571441650390625</LongitudeDegrees>
            </Position>
            <AltitudeMeters>35</AltitudeMeters>
            <DistanceMeters>NAN</DistanceMeters>
          </Trackpoint>
          <Trackpoint>
            <Time>2022-07-05T13:15:58.000Z</Time>
            <Position>
              <LatitudeDegrees>44.42466440610587596893310546875</LatitudeDegrees>
              <LongitudeDegrees>-1.16868163459002971649169921875</LongitudeDegrees>
            </Position>
            <AltitudeMeters>35.200000762939453125</AltitudeMeters>
            <DistanceMeters>NAN</DistanceMeters>
          </Trackpoint>
          <Trackpoint>
            <Time>2022-07-05T13:16:05.000Z</Time>
            <Position>
              <LatitudeDegrees>44.42429023794829845428466796875</LatitudeDegrees>
              <LongitudeDegrees>-1.16883116774260997772216796875</LongitudeDegrees>
            </Position>
            <AltitudeMeters>34.799999237060546875</AltitudeMeters>
            <DistanceMeters>NAN</DistanceMeters>
          </Trackpoint>
          <Trackpoint>
            <Time>2022-07-05T13:16:06.000Z</Time>
            <Position>
              <LatitudeDegrees>44.42424749024212360382080078125</LatitudeDegrees>
              <LongitudeDegrees>-1.16887114942073822021484375</LongitudeDegrees>
            </Position>
            <AltitudeMeters>34.799999237060546875</AltitudeMeters>
            <DistanceMeters>NAN</DistanceMeters>
          </Trackpoint>
          <Trackpoint>
            <Time>2022-07-05T13:16:07.000Z</Time>
            <Position>
              <LatitudeDegrees>44.42422024905681610107421875</LatitudeDegrees>
              <LongitudeDegrees>-1.168921776115894317626953125</LongitudeDegrees>
            </Position>
            <AltitudeMeters>34.799999237060546875</AltitudeMeters>
            <DistanceMeters>NAN</DistanceMeters>
          </Trackpoint>
          <Trackpoint>
            <Time>2022-07-05T13:16:09.000Z</Time>
            <Position>
              <LatitudeDegrees>44.4241999648511409759521484375</LatitudeDegrees>
              <LongitudeDegrees>-1.16904892958700656890869140625</LongitudeDegrees>
            </Position>
            <AltitudeMeters>34.799999237060546875</AltitudeMeters>
            <DistanceMeters>NAN</DistanceMeters>
          </Trackpoint>
          <Trackpoint>
            <Time>2022-07-05T13:16:11.000Z</Time>
            <Position>
              <LatitudeDegrees>44.424200467765331268310546875</LatitudeDegrees>
              <LongitudeDegrees>-1.1691804416477680206298828125</LongitudeDegrees>
            </Position>
            <AltitudeMeters>35</AltitudeMeters>
            <DistanceMeters>NAN</DistanceMeters>
          </Trackpoint>
          <Trackpoint>
            <Time>2022-07-05T13:16:15.000Z</Time>
            <Position>
              <LatitudeDegrees>44.4242194108664989471435546875</LatitudeDegrees>
              <LongitudeDegrees>-1.16946031339466571807861328125</LongitudeDegrees>
            </Position>
            <AltitudeMeters>35.200000762939453125</AltitudeMeters>
            <DistanceMeters>NAN</DistanceMeters>
          </Trackpoint>
          <Trackpoint>
            <Time>2022-07-05T13:16:20.000Z</Time>
            <Position>
              <LatitudeDegrees>44.4242338277399539947509765625</LatitudeDegrees>
              <LongitudeDegrees>-1.16978150792419910430908203125</LongitudeDegrees>
            </Position>
            <AltitudeMeters>35.200000762939453125</AltitudeMeters>
            <DistanceMeters>NAN</DistanceMeters>
          </Trackpoint>
          <Trackpoint>
            <Time>2022-07-05T13:16:23.000Z</Time>
            <Position>
              <LatitudeDegrees>44.4242410361766815185546875</LatitudeDegrees>
              <LongitudeDegrees>-1.1699540913105010986328125</LongitudeDegrees>
            </Position>
            <AltitudeMeters>35.200000762939453125</AltitudeMeters>
            <DistanceMeters>NAN</DistanceMeters>
          </Trackpoint>
          <Trackpoint>
            <Time>2022-07-05T13:16:26.000Z</Time>
            <Position>
              <LatitudeDegrees>44.4242458976805210113525390625</LatitudeDegrees>
              <LongitudeDegrees>-1.17014209739863872528076171875</LongitudeDegrees>
            </Position>
            <AltitudeMeters>35.200000762939453125</AltitudeMeters>
            <DistanceMeters>NAN</DistanceMeters>
          </Trackpoint>
          <Trackpoint>
            <Time>2022-07-05T13:16:30.000Z</Time>
            <Position>
              <LatitudeDegrees>44.42425243556499481201171875</LatitudeDegrees>
              <LongitudeDegrees>-1.17037779651582241058349609375</LongitudeDegrees>
            </Position>
            <AltitudeMeters>35.200000762939453125</AltitudeMeters>
            <DistanceMeters>NAN</DistanceMeters>
          </Trackpoint>
          <Trackpoint>
            <Time>2022-07-05T13:16:38.000Z</Time>
            <Position>
              <LatitudeDegrees>44.42427447997033596038818359375</LatitudeDegrees>
              <LongitudeDegrees>-1.1710076965391635894775390625</LongitudeDegrees>
            </Position>
            <AltitudeMeters>35.200000762939453125</AltitudeMeters>
            <DistanceMeters>NAN</DistanceMeters>
          </Trackpoint>
          <Trackpoint>
            <Time>2022-07-05T13:16:42.000Z</Time>
            <Position>
              <LatitudeDegrees>44.42430783994495868682861328125</LatitudeDegrees>
              <LongitudeDegrees>-1.17134473286569118499755859375</LongitudeDegrees>
            </Position>
            <AltitudeMeters>35</AltitudeMeters>
            <DistanceMeters>NAN</DistanceMeters>
          </Trackpoint>
          <Trackpoint>
            <Time>2022-07-05T13:16:45.000Z</Time>
            <Position>
              <LatitudeDegrees>44.42433332093060016632080078125</LatitudeDegrees>
              <LongitudeDegrees>-1.1716054938733577728271484375</LongitudeDegrees>
            </Position>
            <AltitudeMeters>34.799999237060546875</AltitudeMeters>
            <DistanceMeters>NAN</DistanceMeters>
          </Trackpoint>
          <Trackpoint>
            <Time>2022-07-05T13:16:48.000Z</Time>
            <Position>
              <LatitudeDegrees>44.4243632443249225616455078125</LatitudeDegrees>
              <LongitudeDegrees>-1.171835325658321380615234375</LongitudeDegrees>
            </Position>
            <AltitudeMeters>34.799999237060546875</AltitudeMeters>
            <DistanceMeters>NAN</DistanceMeters>
          </Trackpoint>
          <Trackpoint>
            <Time>2022-07-05T13:16:52.000Z</Time>
            <Position>
              <LatitudeDegrees>44.4243595562875270843505859375</LatitudeDegrees>
              <LongitudeDegrees>-1.17216247133910655975341796875</LongitudeDegrees>
            </Position>
            <AltitudeMeters>34.799999237060546875</AltitudeMeters>
            <DistanceMeters>NAN</DistanceMeters>
          </Trackpoint>
          <Trackpoint>
            <Time>2022-07-05T13:17:00.000Z</Time>
            <Position>
              <LatitudeDegrees>44.4243974424898624420166015625</LatitudeDegrees>
              <LongitudeDegrees>-1.172721795737743377685546875</LongitudeDegrees>
            </Position>
            <AltitudeMeters>34.59999847412109375</AltitudeMeters>
            <DistanceMeters>NAN</DistanceMeters>
          </Trackpoint>
          <Trackpoint>
            <Time>2022-07-05T13:17:01.000Z</Time>
            <Position>
              <LatitudeDegrees>44.42440356127917766571044921875</LatitudeDegrees>
              <LongitudeDegrees>-1.17279681377112865447998046875</LongitudeDegrees>
            </Position>
            <AltitudeMeters>34.59999847412109375</AltitudeMeters>
            <DistanceMeters>NAN</DistanceMeters>
          </Trackpoint>
          <Trackpoint>
            <Time>2022-07-05T13:17:02.000Z</Time>
            <Position>
              <LatitudeDegrees>44.4244064949452877044677734375</LatitudeDegrees>
              <LongitudeDegrees>-1.17286898195743560791015625</LongitudeDegrees>
            </Position>
            <AltitudeMeters>34.59999847412109375</AltitudeMeters>
            <DistanceMeters>NAN</DistanceMeters>
          </Trackpoint>
          <Trackpoint>
            <Time>2022-07-05T13:17:06.000Z</Time>
            <Position>
              <LatitudeDegrees>44.42442971281707286834716796875</LatitudeDegrees>
              <LongitudeDegrees>-1.17315053008496761322021484375</LongitudeDegrees>
            </Position>
            <AltitudeMeters>34.200000762939453125</AltitudeMeters>
            <DistanceMeters>NAN</DistanceMeters>
          </Trackpoint>
          <Trackpoint>
            <Time>2022-07-05T13:17:08.000Z</Time>
            <Position>
              <LatitudeDegrees>44.424449242651462554931640625</LatitudeDegrees>
              <LongitudeDegrees>-1.1732855625450611114501953125</LongitudeDegrees>
            </Position>
            <AltitudeMeters>34</AltitudeMeters>
            <DistanceMeters>NAN</DistanceMeters>
          </Trackpoint>
          <Trackpoint>
            <Time>2022-07-05T13:17:09.000Z</Time>
            <Position>
              <LatitudeDegrees>44.42445301450788974761962890625</LatitudeDegrees>
              <LongitudeDegrees>-1.17335789836943149566650390625</LongitudeDegrees>
            </Position>
            <AltitudeMeters>34</AltitudeMeters>
            <DistanceMeters>NAN</DistanceMeters>
          </Trackpoint>
          <Trackpoint>
            <Time>2022-07-05T13:17:11.000Z</Time>
            <Position>
              <LatitudeDegrees>44.42446122877299785614013671875</LatitudeDegrees>
              <LongitudeDegrees>-1.17349703796207904815673828125</LongitudeDegrees>
            </Position>
            <AltitudeMeters>34.200000762939453125</AltitudeMeters>
            <DistanceMeters>NAN</DistanceMeters>
          </Trackpoint>
          <Trackpoint>
            <Time>2022-07-05T13:17:16.000Z</Time>
            <Position>
              <LatitudeDegrees>44.42447782494127750396728515625</LatitudeDegrees>
              <LongitudeDegrees>-1.1738491617143154144287109375</LongitudeDegrees>
            </Position>
            <AltitudeMeters>34.40000152587890625</AltitudeMeters>
            <DistanceMeters>NAN</DistanceMeters>
          </Trackpoint>
          <Trackpoint>
            <Time>2022-07-05T13:17:18.000Z</Time>
            <Position>
              <LatitudeDegrees>44.4244822673499584197998046875</LatitudeDegrees>
              <LongitudeDegrees>-1.173989810049533843994140625</LongitudeDegrees>
            </Position>
            <AltitudeMeters>34.40000152587890625</AltitudeMeters>
            <DistanceMeters>NAN</DistanceMeters>
          </Trackpoint>
          <Trackpoint>
            <Time>2022-07-05T13:17:28.000Z</Time>
            <Position>
              <LatitudeDegrees>44.42451168783009052276611328125</LatitudeDegrees>
              <LongitudeDegrees>-1.17467385716736316680908203125</LongitudeDegrees>
            </Position>
            <AltitudeMeters>34.40000152587890625</AltitudeMeters>
            <DistanceMeters>NAN</DistanceMeters>
          </Trackpoint>
          <Trackpoint>
            <Time>2022-07-05T13:17:32.000Z</Time>
            <Position>
              <LatitudeDegrees>44.4245181418955326080322265625</LatitudeDegrees>
              <LongitudeDegrees>-1.17493051104247570037841796875</LongitudeDegrees>
            </Position>
            <AltitudeMeters>34.59999847412109375</AltitudeMeters>
            <DistanceMeters>NAN</DistanceMeters>
          </Trackpoint>
          <Trackpoint>
            <Time>2022-07-05T13:17:35.000Z</Time>
            <Position>
              <LatitudeDegrees>44.42453901283442974090576171875</LatitudeDegrees>
              <LongitudeDegrees>-1.17510862648487091064453125</LongitudeDegrees>
            </Position>
            <AltitudeMeters>34.59999847412109375</AltitudeMeters>
            <DistanceMeters>NAN</DistanceMeters>
          </Trackpoint>
          <Trackpoint>
            <Time>2022-07-05T13:17:36.000Z</Time>
            <Position>
              <LatitudeDegrees>44.424525015056133270263671875</LatitudeDegrees>
              <LongitudeDegrees>-1.17515531368553638458251953125</LongitudeDegrees>
            </Position>
            <AltitudeMeters>34.59999847412109375</AltitudeMeters>
            <DistanceMeters>NAN</DistanceMeters>
          </Trackpoint>
          <Trackpoint>
            <Time>2022-07-05T13:17:38.000Z</Time>
            <Position>
              <LatitudeDegrees>44.42446877248585224151611328125</LatitudeDegrees>
              <LongitudeDegrees>-1.1751949600875377655029296875</LongitudeDegrees>
            </Position>
            <AltitudeMeters>34.40000152587890625</AltitudeMeters>
            <DistanceMeters>NAN</DistanceMeters>
          </Trackpoint>
          <Trackpoint>
            <Time>2022-07-05T13:17:44.000Z</Time>
            <Position>
              <LatitudeDegrees>44.424209184944629669189453125</LatitudeDegrees>
              <LongitudeDegrees>-1.1751614324748516082763671875</LongitudeDegrees>
            </Position>
            <AltitudeMeters>34.40000152587890625</AltitudeMeters>
            <DistanceMeters>NAN</DistanceMeters>
          </Trackpoint>
          <Trackpoint>
            <Time>2022-07-05T13:17:49.000Z</Time>
            <Position>
              <LatitudeDegrees>44.42399033345282077789306640625</LatitudeDegrees>
              <LongitudeDegrees>-1.17512027733027935028076171875</LongitudeDegrees>
            </Position>
            <AltitudeMeters>34.200000762939453125</AltitudeMeters>
            <DistanceMeters>NAN</DistanceMeters>
          </Trackpoint>
          <Trackpoint>
            <Time>2022-07-05T13:17:50.000Z</Time>
            <Position>
              <LatitudeDegrees>44.42394607700407505035400390625</LatitudeDegrees>
              <LongitudeDegrees>-1.175120361149311065673828125</LongitudeDegrees>
            </Position>
            <AltitudeMeters>34.200000762939453125</AltitudeMeters>
            <DistanceMeters>NAN</DistanceMeters>
          </Trackpoint>
          <Trackpoint>
            <Time>2022-07-05T13:17:52.000Z</Time>
            <Position>
              <LatitudeDegrees>44.4238630123436450958251953125</LatitudeDegrees>
              <LongitudeDegrees>-1.1751211993396282196044921875</LongitudeDegrees>
            </Position>
            <AltitudeMeters>34.200000762939453125</AltitudeMeters>
            <DistanceMeters>NAN</DistanceMeters>
          </Trackpoint>
          <Trackpoint>
            <Time>2022-07-05T13:17:56.000Z</Time>
            <Position>
              <LatitudeDegrees>44.4236890040338039398193359375</LatitudeDegrees>
              <LongitudeDegrees>-1.1751039326190948486328125</LongitudeDegrees>
            </Position>
            <AltitudeMeters>34.200000762939453125</AltitudeMeters>
            <DistanceMeters>NAN</DistanceMeters>
          </Trackpoint>
          <Trackpoint>
            <Time>2022-07-05T13:18:04.000Z</Time>
            <Position>
              <LatitudeDegrees>44.423273093998432159423828125</LatitudeDegrees>
              <LongitudeDegrees>-1.17509655654430389404296875</LongitudeDegrees>
            </Position>
            <AltitudeMeters>34.200000762939453125</AltitudeMeters>
            <DistanceMeters>NAN</DistanceMeters>
          </Trackpoint>
          <Trackpoint>
            <Time>2022-07-05T13:18:11.000Z</Time>
            <Position>
              <LatitudeDegrees>44.42290588282048702239990234375</LatitudeDegrees>
              <LongitudeDegrees>-1.17509731091558933258056640625</LongitudeDegrees>
            </Position>
            <AltitudeMeters>34.200000762939453125</AltitudeMeters>
            <DistanceMeters>NAN</DistanceMeters>
          </Trackpoint>
          <Trackpoint>
            <Time>2022-07-05T13:18:12.000Z</Time>
            <Position>
              <LatitudeDegrees>44.42285927943885326385498046875</LatitudeDegrees>
              <LongitudeDegrees>-1.175090186297893524169921875</LongitudeDegrees>
            </Position>
            <AltitudeMeters>34.200000762939453125</AltitudeMeters>
            <DistanceMeters>NAN</DistanceMeters>
          </Trackpoint>
          <Trackpoint>
            <Time>2022-07-05T13:18:15.000Z</Time>
            <Position>
              <LatitudeDegrees>44.42271427251398563385009765625</LatitudeDegrees>
              <LongitudeDegrees>-1.17508842609822750091552734375</LongitudeDegrees>
            </Position>
            <AltitudeMeters>34.200000762939453125</AltitudeMeters>
            <DistanceMeters>NAN</DistanceMeters>
          </Trackpoint>
          <Trackpoint>
            <Time>2022-07-05T13:18:17.000Z</Time>
            <Position>
              <LatitudeDegrees>44.42262408323585987091064453125</LatitudeDegrees>
              <LongitudeDegrees>-1.17509479634463787078857421875</LongitudeDegrees>
            </Position>
            <AltitudeMeters>34.40000152587890625</AltitudeMeters>
            <DistanceMeters>NAN</DistanceMeters>
          </Trackpoint>
          <Trackpoint>
            <Time>2022-07-05T13:18:19.000Z</Time>
            <Position>
              <LatitudeDegrees>44.422505982220172882080078125</LatitudeDegrees>
              <LongitudeDegrees>-1.17508758790791034698486328125</LongitudeDegrees>
            </Position>
            <AltitudeMeters>34.59999847412109375</AltitudeMeters>
            <DistanceMeters>NAN</DistanceMeters>
          </Trackpoint>
          <Trackpoint>
            <Time>2022-07-05T13:18:27.000Z</Time>
            <Position>
              <LatitudeDegrees>44.42207573913037776947021484375</LatitudeDegrees>
              <LongitudeDegrees>-1.1750903539359569549560546875</LongitudeDegrees>
            </Position>
            <AltitudeMeters>35</AltitudeMeters>
            <DistanceMeters>NAN</DistanceMeters>
          </Trackpoint>
          <Trackpoint>
            <Time>2022-07-05T13:18:32.000Z</Time>
            <Position>
              <LatitudeDegrees>44.421838112175464630126953125</LatitudeDegrees>
              <LongitudeDegrees>-1.1750823073089122772216796875</LongitudeDegrees>
            </Position>
            <AltitudeMeters>34.40000152587890625</AltitudeMeters>
            <DistanceMeters>NAN</DistanceMeters>
          </Trackpoint>
          <Trackpoint>
            <Time>2022-07-05T13:18:34.000Z</Time>
            <Position>
              <LatitudeDegrees>44.42171632312238216400146484375</LatitudeDegrees>
              <LongitudeDegrees>-1.1750903539359569549560546875</LongitudeDegrees>
            </Position>
            <AltitudeMeters>34.40000152587890625</AltitudeMeters>
            <DistanceMeters>NAN</DistanceMeters>
          </Trackpoint>
          <Trackpoint>
            <Time>2022-07-05T13:18:38.000Z</Time>
            <Position>
              <LatitudeDegrees>44.42146427929401397705078125</LatitudeDegrees>
              <LongitudeDegrees>-1.1751201935112476348876953125</LongitudeDegrees>
            </Position>
            <AltitudeMeters>34.799999237060546875</AltitudeMeters>
            <DistanceMeters>NAN</DistanceMeters>
          </Trackpoint>
          <Trackpoint>
            <Time>2022-07-05T13:18:42.000Z</Time>
            <Position>
              <LatitudeDegrees>44.421247355639934539794921875</LatitudeDegrees>
              <LongitudeDegrees>-1.17509630508720874786376953125</LongitudeDegrees>
            </Position>
            <AltitudeMeters>34.799999237060546875</AltitudeMeters>
            <DistanceMeters>NAN</DistanceMeters>
          </Trackpoint>
          <Trackpoint>
            <Time>2022-07-05T13:18:44.000Z</Time>
            <Position>
              <LatitudeDegrees>44.42114082165062427520751953125</LatitudeDegrees>
              <LongitudeDegrees>-1.1750839836895465850830078125</LongitudeDegrees>
            </Position>
            <AltitudeMeters>34.799999237060546875</AltitudeMeters>
            <DistanceMeters>NAN</DistanceMeters>
          </Trackpoint>
          <Trackpoint>
            <Time>2022-07-05T13:18:49.000Z</Time>
            <Position>
              <LatitudeDegrees>44.42091040313243865966796875</LatitudeDegrees>
              <LongitudeDegrees>-1.17505942471325397491455078125</LongitudeDegrees>
            </Position>
            <AltitudeMeters>34.59999847412109375</AltitudeMeters>
            <DistanceMeters>NAN</DistanceMeters>
          </Trackpoint>
          <Trackpoint>
            <Time>2022-07-05T13:18:50.000Z</Time>
            <Position>
              <LatitudeDegrees>44.42086522467434406280517578125</LatitudeDegrees>
              <LongitudeDegrees>-1.1750517971813678741455078125</LongitudeDegrees>
            </Position>
            <AltitudeMeters>34.40000152587890625</AltitudeMeters>
            <DistanceMeters>NAN</DistanceMeters>
          </Trackpoint>
          <Trackpoint>
            <Time>2022-07-05T13:18:54.000Z</Time>
            <Position>
              <LatitudeDegrees>44.42069004289805889129638671875</LatitudeDegrees>
              <LongitudeDegrees>-1.1750383861362934112548828125</LongitudeDegrees>
            </Position>
            <AltitudeMeters>34.40000152587890625</AltitudeMeters>
            <DistanceMeters>NAN</DistanceMeters>
          </Trackpoint>
          <Trackpoint>
            <Time>2022-07-05T13:18:59.000Z</Time>
            <Position>
              <LatitudeDegrees>44.42039567045867443084716796875</LatitudeDegrees>
              <LongitudeDegrees>-1.175037883222103118896484375</LongitudeDegrees>
            </Position>
            <AltitudeMeters>34.40000152587890625</AltitudeMeters>
            <DistanceMeters>NAN</DistanceMeters>
          </Trackpoint>
          <Trackpoint>
            <Time>2022-07-05T13:19:03.000Z</Time>
            <Position>
              <LatitudeDegrees>44.42019601352512836456298828125</LatitudeDegrees>
              <LongitudeDegrees>-1.17503880523145198822021484375</LongitudeDegrees>
            </Position>
            <AltitudeMeters>34.59999847412109375</AltitudeMeters>
            <DistanceMeters>NAN</DistanceMeters>
          </Trackpoint>
          <Trackpoint>
            <Time>2022-07-05T13:19:04.000Z</Time>
            <Position>
              <LatitudeDegrees>44.4201468117535114288330078125</LatitudeDegrees>
              <LongitudeDegrees>-1.17504249326884746551513671875</LongitudeDegrees>
            </Position>
            <AltitudeMeters>34.40000152587890625</AltitudeMeters>
            <DistanceMeters>NAN</DistanceMeters>
          </Trackpoint>
          <Trackpoint>
            <Time>2022-07-05T13:19:11.000Z</Time>
            <Position>
              <LatitudeDegrees>44.41981513984501361846923828125</LatitudeDegrees>
              <LongitudeDegrees>-1.17504316382110118865966796875</LongitudeDegrees>
            </Position>
            <AltitudeMeters>34.40000152587890625</AltitudeMeters>
            <DistanceMeters>NAN</DistanceMeters>
          </Trackpoint>
          <Trackpoint>
            <Time>2022-07-05T13:19:14.000Z</Time>
            <Position>
              <LatitudeDegrees>44.4196599908173084259033203125</LatitudeDegrees>
              <LongitudeDegrees>-1.17502975277602672576904296875</LongitudeDegrees>
            </Position>
            <AltitudeMeters>34.40000152587890625</AltitudeMeters>
            <DistanceMeters>NAN</DistanceMeters>
          </Trackpoint>
          <Trackpoint>
            <Time>2022-07-05T13:19:17.000Z</Time>
            <Position>
              <LatitudeDegrees>44.41950249485671520233154296875</LatitudeDegrees>
              <LongitudeDegrees>-1.17504165507853031158447265625</LongitudeDegrees>
            </Position>
            <AltitudeMeters>34.59999847412109375</AltitudeMeters>
            <DistanceMeters>NAN</DistanceMeters>
          </Trackpoint>
          <Trackpoint>
            <Time>2022-07-05T13:19:18.000Z</Time>
            <Position>
              <LatitudeDegrees>44.41945387981832027435302734375</LatitudeDegrees>
              <LongitudeDegrees>-1.1750367097556591033935546875</LongitudeDegrees>
            </Position>
            <AltitudeMeters>34.59999847412109375</AltitudeMeters>
            <DistanceMeters>NAN</DistanceMeters>
          </Trackpoint>
          <Trackpoint>
            <Time>2022-07-05T13:19:22.000Z</Time>
            <Position>
              <LatitudeDegrees>44.41926059313118457794189453125</LatitudeDegrees>
              <LongitudeDegrees>-1.1750269867479801177978515625</LongitudeDegrees>
            </Position>
            <AltitudeMeters>34.59999847412109375</AltitudeMeters>
            <DistanceMeters>NAN</DistanceMeters>
          </Trackpoint>
          <Trackpoint>
            <Time>2022-07-05T13:19:24.000Z</Time>
            <Position>
              <LatitudeDegrees>44.4191792048513889312744140625</LatitudeDegrees>
              <LongitudeDegrees>-1.1750179342925548553466796875</LongitudeDegrees>
            </Position>
            <AltitudeMeters>34.799999237060546875</AltitudeMeters>
            <DistanceMeters>NAN</DistanceMeters>
          </Trackpoint>
          <Trackpoint>
            <Time>2022-07-05T13:19:26.000Z</Time>
            <Position>
              <LatitudeDegrees>44.419100917875766754150390625</LatitudeDegrees>
              <LongitudeDegrees>-1.1749994941055774688720703125</LongitudeDegrees>
            </Position>
            <AltitudeMeters>34.799999237060546875</AltitudeMeters>
            <DistanceMeters>NAN</DistanceMeters>
          </Trackpoint>
          <Trackpoint>
            <Time>2022-07-05T13:19:29.000Z</Time>
            <Position>
              <LatitudeDegrees>44.41895968280732631683349609375</LatitudeDegrees>
              <LongitudeDegrees>-1.17498147301375865936279296875</LongitudeDegrees>
            </Position>
            <AltitudeMeters>35.200000762939453125</AltitudeMeters>
            <DistanceMeters>NAN</DistanceMeters>
          </Trackpoint>
          <Trackpoint>
            <Time>2022-07-05T13:19:34.000Z</Time>
            <Position>
              <LatitudeDegrees>44.418763630092144012451171875</LatitudeDegrees>
              <LongitudeDegrees>-1.1749954707920551300048828125</LongitudeDegrees>
            </Position>
            <AltitudeMeters>35.40000152587890625</AltitudeMeters>
            <DistanceMeters>NAN</DistanceMeters>
          </Trackpoint>
          <Trackpoint>
            <Time>2022-07-05T13:19:35.000Z</Time>
            <Position>
              <LatitudeDegrees>44.4187223911285400390625</LatitudeDegrees>
              <LongitudeDegrees>-1.1750001646578311920166015625</LongitudeDegrees>
            </Position>
            <AltitudeMeters>35.200000762939453125</AltitudeMeters>
            <DistanceMeters>NAN</DistanceMeters>
          </Trackpoint>
          <Trackpoint>
            <Time>2022-07-05T13:19:39.000Z</Time>
            <Position>
              <LatitudeDegrees>44.4185448624193668365478515625</LatitudeDegrees>
              <LongitudeDegrees>-1.1750075407326221466064453125</LongitudeDegrees>
            </Position>
            <AltitudeMeters>35.200000762939453125</AltitudeMeters>
            <DistanceMeters>NAN</DistanceMeters>
          </Trackpoint>
          <Trackpoint>
            <Time>2022-07-05T13:19:41.000Z</Time>
            <Position>
              <LatitudeDegrees>44.41846163012087345123291015625</LatitudeDegrees>
              <LongitudeDegrees>-1.17501332424581050872802734375</LongitudeDegrees>
            </Position>
            <AltitudeMeters>35.200000762939453125</AltitudeMeters>
            <DistanceMeters>NAN</DistanceMeters>
          </Trackpoint>
          <Trackpoint>
            <Time>2022-07-05T13:19:42.000Z</Time>
            <Position>
              <LatitudeDegrees>44.41841150633990764617919921875</LatitudeDegrees>
              <LongitudeDegrees>-1.1750118993222713470458984375</LongitudeDegrees>
            </Position>
            <AltitudeMeters>35</AltitudeMeters>
            <DistanceMeters>NAN</DistanceMeters>
          </Trackpoint>
          <Trackpoint>
            <Time>2022-07-05T13:19:48.000Z</Time>
            <Position>
              <LatitudeDegrees>44.4181250967085361480712890625</LatitudeDegrees>
              <LongitudeDegrees>-1.17501483298838138580322265625</LongitudeDegrees>
            </Position>
            <AltitudeMeters>34.59999847412109375</AltitudeMeters>
            <DistanceMeters>NAN</DistanceMeters>
          </Trackpoint>
          <Trackpoint>
            <Time>2022-07-05T13:19:51.000Z</Time>
            <Position>
              <LatitudeDegrees>44.41798905842006206512451171875</LatitudeDegrees>
              <LongitudeDegrees>-1.17502371780574321746826171875</LongitudeDegrees>
            </Position>
            <AltitudeMeters>34.799999237060546875</AltitudeMeters>
            <DistanceMeters>NAN</DistanceMeters>
          </Trackpoint>
          <Trackpoint>
            <Time>2022-07-05T13:19:56.000Z</Time>
            <Position>
              <LatitudeDegrees>44.41774548031389713287353515625</LatitudeDegrees>
              <LongitudeDegrees>-1.174996979534626007080078125</LongitudeDegrees>
            </Position>
            <AltitudeMeters>35.200000762939453125</AltitudeMeters>
            <DistanceMeters>NAN</DistanceMeters>
          </Trackpoint>
          <Trackpoint>
            <Time>2022-07-05T13:20:02.000Z</Time>
            <Position>
              <LatitudeDegrees>44.4174404628574848175048828125</LatitudeDegrees>
              <LongitudeDegrees>-1.17497962899506092071533203125</LongitudeDegrees>
            </Position>
            <AltitudeMeters>35.200000762939453125</AltitudeMeters>
            <DistanceMeters>NAN</DistanceMeters>
          </Trackpoint>
          <Trackpoint>
            <Time>2022-07-05T13:20:03.000Z</Time>
            <Position>
              <LatitudeDegrees>44.41739243455231189727783203125</LatitudeDegrees>
              <LongitudeDegrees>-1.17498046718537807464599609375</LongitudeDegrees>
            </Position>
            <AltitudeMeters>35.200000762939453125</AltitudeMeters>
            <DistanceMeters>NAN</DistanceMeters>
          </Trackpoint>
          <Trackpoint>
            <Time>2022-07-05T13:20:09.000Z</Time>
            <Position>
              <LatitudeDegrees>44.4170760177075862884521484375</LatitudeDegrees>
              <LongitudeDegrees>-1.17496873252093791961669921875</LongitudeDegrees>
            </Position>
            <AltitudeMeters>35.200000762939453125</AltitudeMeters>
            <DistanceMeters>NAN</DistanceMeters>
          </Trackpoint>
          <Trackpoint>
            <Time>2022-07-05T13:20:12.000Z</Time>
            <Position>
              <LatitudeDegrees>44.41693226806819438934326171875</LatitudeDegrees>
              <LongitudeDegrees>-1.174937970936298370361328125</LongitudeDegrees>
            </Position>
            <AltitudeMeters>35.40000152587890625</AltitudeMeters>
            <DistanceMeters>NAN</DistanceMeters>
          </Trackpoint>
          <Trackpoint>
            <Time>2022-07-05T13:20:15.000Z</Time>
            <Position>
              <LatitudeDegrees>44.41679011099040508270263671875</LatitudeDegrees>
              <LongitudeDegrees>-1.17491106502711772918701171875</LongitudeDegrees>
            </Position>
            <AltitudeMeters>35.40000152587890625</AltitudeMeters>
            <DistanceMeters>NAN</DistanceMeters>
          </Trackpoint>
          <Trackpoint>
            <Time>2022-07-05T13:20:23.000Z</Time>
            <Position>
              <LatitudeDegrees>44.41638685762882232666015625</LatitudeDegrees>
              <LongitudeDegrees>-1.1748757772147655487060546875</LongitudeDegrees>
            </Position>
            <AltitudeMeters>35.200000762939453125</AltitudeMeters>
            <DistanceMeters>NAN</DistanceMeters>
          </Trackpoint>
          <Trackpoint>
            <Time>2022-07-05T13:20:27.000Z</Time>
            <Position>
              <LatitudeDegrees>44.41621930338442325592041015625</LatitudeDegrees>
              <LongitudeDegrees>-1.17488038726150989532470703125</LongitudeDegrees>
            </Position>
            <AltitudeMeters>35.200000762939453125</AltitudeMeters>
            <DistanceMeters>NAN</DistanceMeters>
          </Trackpoint>
          <Trackpoint>
            <Time>2022-07-05T13:20:29.000Z</Time>
            <Position>
              <LatitudeDegrees>44.41613866947591304779052734375</LatitudeDegrees>
              <LongitudeDegrees>-1.17488466203212738037109375</LongitudeDegrees>
            </Position>
            <AltitudeMeters>35.200000762939453125</AltitudeMeters>
            <DistanceMeters>NAN</DistanceMeters>
          </Trackpoint>
          <Trackpoint>
            <Time>2022-07-05T13:20:36.000Z</Time>
            <Position>
              <LatitudeDegrees>44.4157805107533931732177734375</LatitudeDegrees>
              <LongitudeDegrees>-1.17488809861242771148681640625</LongitudeDegrees>
            </Position>
            <AltitudeMeters>35.40000152587890625</AltitudeMeters>
            <DistanceMeters>NAN</DistanceMeters>
          </Trackpoint>
          <Trackpoint>
            <Time>2022-07-05T13:20:42.000Z</Time>
            <Position>
              <LatitudeDegrees>44.4154214300215244293212890625</LatitudeDegrees>
              <LongitudeDegrees>-1.17491005919873714447021484375</LongitudeDegrees>
            </Position>
            <AltitudeMeters>35.40000152587890625</AltitudeMeters>
            <DistanceMeters>NAN</DistanceMeters>
          </Trackpoint>
          <Trackpoint>
            <Time>2022-07-05T13:20:43.000Z</Time>
            <Position>
              <LatitudeDegrees>44.41537206061184406280517578125</LatitudeDegrees>
              <LongitudeDegrees>-1.1749203689396381378173828125</LongitudeDegrees>
            </Position>
            <AltitudeMeters>35.40000152587890625</AltitudeMeters>
            <DistanceMeters>NAN</DistanceMeters>
          </Trackpoint>
          <Trackpoint>
            <Time>2022-07-05T13:20:45.000Z</Time>
            <Position>
              <LatitudeDegrees>44.41525286994874477386474609375</LatitudeDegrees>
              <LongitudeDegrees>-1.17495632730424404144287109375</LongitudeDegrees>
            </Position>
            <AltitudeMeters>35.40000152587890625</AltitudeMeters>
            <DistanceMeters>NAN</DistanceMeters>
          </Trackpoint>
          <Trackpoint>
            <Time>2022-07-05T13:20:46.000Z</Time>
            <Position>
              <LatitudeDegrees>44.41518832929432392120361328125</LatitudeDegrees>
              <LongitudeDegrees>-1.17496512830257415771484375</LongitudeDegrees>
            </Position>
            <AltitudeMeters>35.40000152587890625</AltitudeMeters>
            <DistanceMeters>NAN</DistanceMeters>
          </Trackpoint>
          <Trackpoint>
            <Time>2022-07-05T13:20:51.000Z</Time>
            <Position>
              <LatitudeDegrees>44.41495900042355060577392578125</LatitudeDegrees>
              <LongitudeDegrees>-1.17496236227452754974365234375</LongitudeDegrees>
            </Position>
            <AltitudeMeters>35.40000152587890625</AltitudeMeters>
            <DistanceMeters>NAN</DistanceMeters>
          </Trackpoint>
          <Trackpoint>
            <Time>2022-07-05T13:20:52.000Z</Time>
            <Position>
              <LatitudeDegrees>44.41492396406829357147216796875</LatitudeDegrees>
              <LongitudeDegrees>-1.17496336810290813446044921875</LongitudeDegrees>
            </Position>
            <AltitudeMeters>35.40000152587890625</AltitudeMeters>
            <DistanceMeters>NAN</DistanceMeters>
          </Trackpoint>
          <Trackpoint>
            <Time>2022-07-05T13:20:53.000Z</Time>
            <Position>
              <LatitudeDegrees>44.41488683223724365234375</LatitudeDegrees>
              <LongitudeDegrees>-1.17496219463646411895751953125</LongitudeDegrees>
            </Position>
            <AltitudeMeters>35.40000152587890625</AltitudeMeters>
            <DistanceMeters>NAN</DistanceMeters>
          </Trackpoint>
          <Trackpoint>
            <Time>2022-07-05T13:20:55.000Z</Time>
            <Position>
              <LatitudeDegrees>44.41479756496846675872802734375</LatitudeDegrees>
              <LongitudeDegrees>-1.1749542318284511566162109375</LongitudeDegrees>
            </Position>
            <AltitudeMeters>35.40000152587890625</AltitudeMeters>
            <DistanceMeters>NAN</DistanceMeters>
          </Trackpoint>
          <Trackpoint>
            <Time>2022-07-05T13:20:57.000Z</Time>
            <Position>
              <LatitudeDegrees>44.4146774522960186004638671875</LatitudeDegrees>
              <LongitudeDegrees>-1.17495079524815082550048828125</LongitudeDegrees>
            </Position>
            <AltitudeMeters>35.40000152587890625</AltitudeMeters>
            <DistanceMeters>NAN</DistanceMeters>
          </Trackpoint>
          <Trackpoint>
            <Time>2022-07-05T13:21:00.000Z</Time>
            <Position>
              <LatitudeDegrees>44.4145188666880130767822265625</LatitudeDegrees>
              <LongitudeDegrees>-1.1749508790671825408935546875</LongitudeDegrees>
            </Position>
            <AltitudeMeters>35.40000152587890625</AltitudeMeters>
            <DistanceMeters>NAN</DistanceMeters>
          </Trackpoint>
          <Trackpoint>
            <Time>2022-07-05T13:21:03.000Z</Time>
            <Position>
              <LatitudeDegrees>44.414353407919406890869140625</LatitudeDegrees>
              <LongitudeDegrees>-1.174959428608417510986328125</LongitudeDegrees>
            </Position>
            <AltitudeMeters>35.200000762939453125</AltitudeMeters>
            <DistanceMeters>NAN</DistanceMeters>
          </Trackpoint>
          <Trackpoint>
            <Time>2022-07-05T13:21:04.000Z</Time>
            <Position>
              <LatitudeDegrees>44.4143042899668216705322265625</LatitudeDegrees>
              <LongitudeDegrees>-1.17495632730424404144287109375</LongitudeDegrees>
            </Position>
            <AltitudeMeters>35.40000152587890625</AltitudeMeters>
            <DistanceMeters>NAN</DistanceMeters>
          </Trackpoint>
          <Trackpoint>
            <Time>2022-07-05T13:21:07.000Z</Time>
            <Position>
              <LatitudeDegrees>44.4141695089638233184814453125</LatitudeDegrees>
              <LongitudeDegrees>-1.1749698221683502197265625</LongitudeDegrees>
            </Position>
            <AltitudeMeters>35.40000152587890625</AltitudeMeters>
            <DistanceMeters>NAN</DistanceMeters>
          </Trackpoint>
          <Trackpoint>
            <Time>2022-07-05T13:21:08.000Z</Time>
            <Position>
              <LatitudeDegrees>44.41412533633410930633544921875</LatitudeDegrees>
              <LongitudeDegrees>-1.1749636195600032806396484375</LongitudeDegrees>
            </Position>
            <AltitudeMeters>35.40000152587890625</AltitudeMeters>
            <DistanceMeters>NAN</DistanceMeters>
          </Trackpoint>
          <Trackpoint>
            <Time>2022-07-05T13:21:13.000Z</Time>
            <Position>
              <LatitudeDegrees>44.413896761834621429443359375</LatitudeDegrees>
              <LongitudeDegrees>-1.1749435029923915863037109375</LongitudeDegrees>
            </Position>
            <AltitudeMeters>35.59999847412109375</AltitudeMeters>
            <DistanceMeters>NAN</DistanceMeters>
          </Trackpoint>
          <Trackpoint>
            <Time>2022-07-05T13:21:14.000Z</Time>
            <Position>
              <LatitudeDegrees>44.4138439558446407318115234375</LatitudeDegrees>
              <LongitudeDegrees>-1.17493989877402782440185546875</LongitudeDegrees>
            </Position>
            <AltitudeMeters>35.59999847412109375</AltitudeMeters>
            <DistanceMeters>NAN</DistanceMeters>
          </Trackpoint>
          <Trackpoint>
            <Time>2022-07-05T13:21:17.000Z</Time>
            <Position>
              <LatitudeDegrees>44.4136924110352993011474609375</LatitudeDegrees>
              <LongitudeDegrees>-1.1749367974698543548583984375</LongitudeDegrees>
            </Position>
            <AltitudeMeters>35.59999847412109375</AltitudeMeters>
            <DistanceMeters>NAN</DistanceMeters>
          </Trackpoint>
          <Trackpoint>
            <Time>2022-07-05T13:21:20.000Z</Time>
            <Position>
              <LatitudeDegrees>44.41355318762362003326416015625</LatitudeDegrees>
              <LongitudeDegrees>-1.17492682300508022308349609375</LongitudeDegrees>
            </Position>
            <AltitudeMeters>35.59999847412109375</AltitudeMeters>
            <DistanceMeters>NAN</DistanceMeters>
          </Trackpoint>
          <Trackpoint>
            <Time>2022-07-05T13:21:25.000Z</Time>
            <Position>
              <LatitudeDegrees>44.4133209250867366790771484375</LatitudeDegrees>
              <LongitudeDegrees>-1.17489949800074100494384765625</LongitudeDegrees>
            </Position>
            <AltitudeMeters>35.59999847412109375</AltitudeMeters>
            <DistanceMeters>NAN</DistanceMeters>
          </Trackpoint>
          <Trackpoint>
            <Time>2022-07-05T13:21:28.000Z</Time>
            <Position>
              <LatitudeDegrees>44.41319460980594158172607421875</LatitudeDegrees>
              <LongitudeDegrees>-1.1748496256768703460693359375</LongitudeDegrees>
            </Position>
            <AltitudeMeters>35.59999847412109375</AltitudeMeters>
            <DistanceMeters>NAN</DistanceMeters>
          </Trackpoint>
          <Trackpoint>
            <Time>2022-07-05T13:21:29.000Z</Time>
            <Position>
              <LatitudeDegrees>44.41314649768173694610595703125</LatitudeDegrees>
              <LongitudeDegrees>-1.1748352088034152984619140625</LongitudeDegrees>
            </Position>
            <AltitudeMeters>35.59999847412109375</AltitudeMeters>
            <DistanceMeters>NAN</DistanceMeters>
          </Trackpoint>
          <Trackpoint>
            <Time>2022-07-05T13:21:33.000Z</Time>
            <Position>
              <LatitudeDegrees>44.41294382326304912567138671875</LatitudeDegrees>
              <LongitudeDegrees>-1.1748046986758708953857421875</LongitudeDegrees>
            </Position>
            <AltitudeMeters>35.59999847412109375</AltitudeMeters>
            <DistanceMeters>NAN</DistanceMeters>
          </Trackpoint>
          <Trackpoint>
            <Time>2022-07-05T13:21:35.000Z</Time>
            <Position>
              <LatitudeDegrees>44.41283955238759517669677734375</LatitudeDegrees>
              <LongitudeDegrees>-1.17479556240141391754150390625</LongitudeDegrees>
            </Position>
            <AltitudeMeters>35.799999237060546875</AltitudeMeters>
            <DistanceMeters>NAN</DistanceMeters>
          </Trackpoint>
          <Trackpoint>
            <Time>2022-07-05T13:21:37.000Z</Time>
            <Position>
              <LatitudeDegrees>44.41273695789277553558349609375</LatitudeDegrees>
              <LongitudeDegrees>-1.1747865937650203704833984375</LongitudeDegrees>
            </Position>
            <AltitudeMeters>35.59999847412109375</AltitudeMeters>
            <DistanceMeters>NAN</DistanceMeters>
          </Trackpoint>
          <Trackpoint>
            <Time>2022-07-05T13:21:39.000Z</Time>
            <Position>
              <LatitudeDegrees>44.41264442168176174163818359375</LatitudeDegrees>
              <LongitudeDegrees>-1.17477812804281711578369140625</LongitudeDegrees>
            </Position>
            <AltitudeMeters>35.59999847412109375</AltitudeMeters>
            <DistanceMeters>NAN</DistanceMeters>
          </Trackpoint>
          <Trackpoint>
            <Time>2022-07-05T13:21:43.000Z</Time>
            <Position>
              <LatitudeDegrees>44.41244459711015224456787109375</LatitudeDegrees>
              <LongitudeDegrees>-1.174778044223785400390625</LongitudeDegrees>
            </Position>
            <AltitudeMeters>35.59999847412109375</AltitudeMeters>
            <DistanceMeters>NAN</DistanceMeters>
          </Trackpoint>
          <Trackpoint>
            <Time>2022-07-05T13:21:45.000Z</Time>
            <Position>
              <LatitudeDegrees>44.41233362071216106414794921875</LatitudeDegrees>
              <LongitudeDegrees>-1.17477611638605594635009765625</LongitudeDegrees>
            </Position>
            <AltitudeMeters>35.59999847412109375</AltitudeMeters>
            <DistanceMeters>NAN</DistanceMeters>
          </Trackpoint>
          <Trackpoint>
            <Time>2022-07-05T13:21:50.000Z</Time>
            <Position>
              <LatitudeDegrees>44.4121038727462291717529296875</LatitudeDegrees>
              <LongitudeDegrees>-1.17475264705717563629150390625</LongitudeDegrees>
            </Position>
            <AltitudeMeters>35.799999237060546875</AltitudeMeters>
            <DistanceMeters>NAN</DistanceMeters>
          </Trackpoint>
          <Trackpoint>
            <Time>2022-07-05T13:21:53.000Z</Time>
            <Position>
              <LatitudeDegrees>44.4119610451161861419677734375</LatitudeDegrees>
              <LongitudeDegrees>-1.17472984828054904937744140625</LongitudeDegrees>
            </Position>
            <AltitudeMeters>35.799999237060546875</AltitudeMeters>
            <DistanceMeters>NAN</DistanceMeters>
          </Trackpoint>
          <Trackpoint>
            <Time>2022-07-05T13:21:57.000Z</Time>
            <Position>
              <LatitudeDegrees>44.411786533892154693603515625</LatitudeDegrees>
              <LongitudeDegrees>-1.174767315387725830078125</LongitudeDegrees>
            </Position>
            <AltitudeMeters>36.200000762939453125</AltitudeMeters>
            <DistanceMeters>NAN</DistanceMeters>
          </Trackpoint>
          <Trackpoint>
            <Time>2022-07-05T13:22:01.000Z</Time>
            <Position>
              <LatitudeDegrees>44.41166239790618419647216796875</LatitudeDegrees>
              <LongitudeDegrees>-1.1746782995760440826416015625</LongitudeDegrees>
            </Position>
            <AltitudeMeters>36.59999847412109375</AltitudeMeters>
            <DistanceMeters>NAN</DistanceMeters>
          </Trackpoint>
          <Trackpoint>
            <Time>2022-07-05T13:22:03.000Z</Time>
            <Position>
              <LatitudeDegrees>44.41162451170384883880615234375</LatitudeDegrees>
              <LongitudeDegrees>-1.17460839450359344482421875</LongitudeDegrees>
            </Position>
            <AltitudeMeters>36.799999237060546875</AltitudeMeters>
            <DistanceMeters>NAN</DistanceMeters>
          </Trackpoint>
          <Trackpoint>
            <Time>2022-07-05T13:22:05.000Z</Time>
            <Position>
              <LatitudeDegrees>44.411611855030059814453125</LatitudeDegrees>
              <LongitudeDegrees>-1.17452792823314666748046875</LongitudeDegrees>
            </Position>
            <AltitudeMeters>37</AltitudeMeters>
            <DistanceMeters>NAN</DistanceMeters>
          </Trackpoint>
          <Trackpoint>
            <Time>2022-07-05T13:22:12.000Z</Time>
            <Position>
              <LatitudeDegrees>44.41158276982605457305908203125</LatitudeDegrees>
              <LongitudeDegrees>-1.17412048391997814178466796875</LongitudeDegrees>
            </Position>
            <AltitudeMeters>36.59999847412109375</AltitudeMeters>
            <DistanceMeters>NAN</DistanceMeters>
          </Trackpoint>
          <Trackpoint>
            <Time>2022-07-05T13:22:14.000Z</Time>
            <Position>
              <LatitudeDegrees>44.4115399383008480072021484375</LatitudeDegrees>
              <LongitudeDegrees>-1.17398654110729694366455078125</LongitudeDegrees>
            </Position>
            <AltitudeMeters>36.40000152587890625</AltitudeMeters>
            <DistanceMeters>NAN</DistanceMeters>
          </Trackpoint>
          <Trackpoint>
            <Time>2022-07-05T13:22:18.000Z</Time>
            <Position>
              <LatitudeDegrees>44.4115060754120349884033203125</LatitudeDegrees>
              <LongitudeDegrees>-1.17372200824320316314697265625</LongitudeDegrees>
            </Position>
            <AltitudeMeters>36.40000152587890625</AltitudeMeters>
            <DistanceMeters>NAN</DistanceMeters>
          </Trackpoint>
          <Trackpoint>
            <Time>2022-07-05T13:22:19.000Z</Time>
            <Position>
              <LatitudeDegrees>44.41149660386145114898681640625</LatitudeDegrees>
              <LongitudeDegrees>-1.1736503429710865020751953125</LongitudeDegrees>
            </Position>
            <AltitudeMeters>36.40000152587890625</AltitudeMeters>
            <DistanceMeters>NAN</DistanceMeters>
          </Trackpoint>
          <Trackpoint>
            <Time>2022-07-05T13:22:22.000Z</Time>
            <Position>
              <LatitudeDegrees>44.41146743483841419219970703125</LatitudeDegrees>
              <LongitudeDegrees>-1.17347138933837413787841796875</LongitudeDegrees>
            </Position>
            <AltitudeMeters>36.40000152587890625</AltitudeMeters>
            <DistanceMeters>NAN</DistanceMeters>
          </Trackpoint>
          <Trackpoint>
            <Time>2022-07-05T13:22:23.000Z</Time>
            <Position>
              <LatitudeDegrees>44.4114531017839908599853515625</LatitudeDegrees>
              <LongitudeDegrees>-1.1734213493764400482177734375</LongitudeDegrees>
            </Position>
            <AltitudeMeters>36.40000152587890625</AltitudeMeters>
            <DistanceMeters>NAN</DistanceMeters>
          </Trackpoint>
          <Trackpoint>
            <Time>2022-07-05T13:22:28.000Z</Time>
            <Position>
              <LatitudeDegrees>44.41136701963841915130615234375</LatitudeDegrees>
              <LongitudeDegrees>-1.17317014373838901519775390625</LongitudeDegrees>
            </Position>
            <AltitudeMeters>36.40000152587890625</AltitudeMeters>
            <DistanceMeters>NAN</DistanceMeters>
          </Trackpoint>
          <Trackpoint>
            <Time>2022-07-05T13:22:33.000Z</Time>
            <Position>
              <LatitudeDegrees>44.41126911900937557220458984375</LatitudeDegrees>
              <LongitudeDegrees>-1.17294802330434322357177734375</LongitudeDegrees>
            </Position>
            <AltitudeMeters>36.59999847412109375</AltitudeMeters>
            <DistanceMeters>NAN</DistanceMeters>
          </Trackpoint>
          <Trackpoint>
            <Time>2022-07-05T13:22:36.000Z</Time>
            <Position>
              <LatitudeDegrees>44.41120139323174953460693359375</LatitudeDegrees>
              <LongitudeDegrees>-1.17280921898782253265380859375</LongitudeDegrees>
            </Position>
            <AltitudeMeters>36.59999847412109375</AltitudeMeters>
            <DistanceMeters>NAN</DistanceMeters>
          </Trackpoint>
          <Trackpoint>
            <Time>2022-07-05T13:22:37.000Z</Time>
            <Position>
              <LatitudeDegrees>44.41117021255195140838623046875</LatitudeDegrees>
              <LongitudeDegrees>-1.17276915349066257476806640625</LongitudeDegrees>
            </Position>
            <AltitudeMeters>36.799999237060546875</AltitudeMeters>
            <DistanceMeters>NAN</DistanceMeters>
          </Trackpoint>
          <Trackpoint>
            <Time>2022-07-05T13:22:38.000Z</Time>
            <Position>
              <LatitudeDegrees>44.41115478985011577606201171875</LatitudeDegrees>
              <LongitudeDegrees>-1.1727410741150379180908203125</LongitudeDegrees>
            </Position>
            <AltitudeMeters>36.799999237060546875</AltitudeMeters>
            <DistanceMeters>NAN</DistanceMeters>
          </Trackpoint>
          <Trackpoint>
            <Time>2022-07-05T13:22:41.000Z</Time>
            <Position>
              <LatitudeDegrees>44.411077760159969329833984375</LatitudeDegrees>
              <LongitudeDegrees>-1.17274048738181591033935546875</LongitudeDegrees>
            </Position>
            <AltitudeMeters>37</AltitudeMeters>
            <DistanceMeters>NAN</DistanceMeters>
          </Trackpoint>
          <Trackpoint>
            <Time>2022-07-05T13:22:42.000Z</Time>
            <Position>
              <LatitudeDegrees>44.41106091253459453582763671875</LatitudeDegrees>
              <LongitudeDegrees>-1.17275632917881011962890625</LongitudeDegrees>
            </Position>
            <AltitudeMeters>37</AltitudeMeters>
            <DistanceMeters>NAN</DistanceMeters>
          </Trackpoint>
          <Trackpoint>
            <Time>2022-07-05T13:22:43.000Z</Time>
            <Position>
              <LatitudeDegrees>44.4110514409840106964111328125</LatitudeDegrees>
              <LongitudeDegrees>-1.1727819778025150299072265625</LongitudeDegrees>
            </Position>
            <AltitudeMeters>37.200000762939453125</AltitudeMeters>
            <DistanceMeters>NAN</DistanceMeters>
          </Trackpoint>
          <Trackpoint>
            <Time>2022-07-05T13:22:46.000Z</Time>
            <Position>
              <LatitudeDegrees>44.4110628403723239898681640625</LatitudeDegrees>
              <LongitudeDegrees>-1.17288717068731784820556640625</LongitudeDegrees>
            </Position>
            <AltitudeMeters>37.200000762939453125</AltitudeMeters>
            <DistanceMeters>NAN</DistanceMeters>
          </Trackpoint>
          <Trackpoint>
            <Time>2022-07-05T13:22:51.000Z</Time>
            <Position>
              <LatitudeDegrees>44.4111034087836742401123046875</LatitudeDegrees>
              <LongitudeDegrees>-1.17306075990200042724609375</LongitudeDegrees>
            </Position>
            <AltitudeMeters>37.40000152587890625</AltitudeMeters>
            <DistanceMeters>NAN</DistanceMeters>
          </Trackpoint>
          <Trackpoint>
            <Time>2022-07-05T13:22:52.000Z</Time>
            <Position>
              <LatitudeDegrees>44.411091841757297515869140625</LatitudeDegrees>
              <LongitudeDegrees>-1.1730947904288768768310546875</LongitudeDegrees>
            </Position>
            <AltitudeMeters>37.40000152587890625</AltitudeMeters>
            <DistanceMeters>NAN</DistanceMeters>
          </Trackpoint>
          <Trackpoint>
            <Time>2022-07-05T13:22:53.000Z</Time>
            <Position>
              <LatitudeDegrees>44.41107206046581268310546875</LatitudeDegrees>
              <LongitudeDegrees>-1.1731259711086750030517578125</LongitudeDegrees>
            </Position>
            <AltitudeMeters>37.40000152587890625</AltitudeMeters>
            <DistanceMeters>NAN</DistanceMeters>
          </Trackpoint>
          <Trackpoint>
            <Time>2022-07-05T13:22:55.000Z</Time>
            <Position>
              <LatitudeDegrees>44.41100374795496463775634765625</LatitudeDegrees>
              <LongitudeDegrees>-1.1731594987213611602783203125</LongitudeDegrees>
            </Position>
            <AltitudeMeters>37.40000152587890625</AltitudeMeters>
            <DistanceMeters>NAN</DistanceMeters>
          </Trackpoint>
          <Trackpoint>
            <Time>2022-07-05T13:22:56.000Z</Time>
            <Position>
              <LatitudeDegrees>44.4109649397432804107666015625</LatitudeDegrees>
              <LongitudeDegrees>-1.17318590171635150909423828125</LongitudeDegrees>
            </Position>
            <AltitudeMeters>37.200000762939453125</AltitudeMeters>
            <DistanceMeters>NAN</DistanceMeters>
          </Trackpoint>
          <Trackpoint>
            <Time>2022-07-05T13:23:00.000Z</Time>
            <Position>
              <LatitudeDegrees>44.410836696624755859375</LatitudeDegrees>
              <LongitudeDegrees>-1.173303835093975067138671875</LongitudeDegrees>
            </Position>
            <AltitudeMeters>37</AltitudeMeters>
            <DistanceMeters>NAN</DistanceMeters>
          </Trackpoint>
          <Trackpoint>
            <Time>2022-07-05T13:23:05.000Z</Time>
            <Position>
              <LatitudeDegrees>44.41066545434296131134033203125</LatitudeDegrees>
              <LongitudeDegrees>-1.17343249730765819549560546875</LongitudeDegrees>
            </Position>
            <AltitudeMeters>36.799999237060546875</AltitudeMeters>
            <DistanceMeters>NAN</DistanceMeters>
          </Trackpoint>
          <Trackpoint>
            <Time>2022-07-05T13:23:06.000Z</Time>
            <Position>
              <LatitudeDegrees>44.41061130724847316741943359375</LatitudeDegrees>
              <LongitudeDegrees>-1.1734597384929656982421875</LongitudeDegrees>
            </Position>
            <AltitudeMeters>36.59999847412109375</AltitudeMeters>
            <DistanceMeters>NAN</DistanceMeters>
          </Trackpoint>
          <Trackpoint>
            <Time>2022-07-05T13:23:09.000Z</Time>
            <Position>
              <LatitudeDegrees>44.41044442355632781982421875</LatitudeDegrees>
              <LongitudeDegrees>-1.17353391833603382110595703125</LongitudeDegrees>
            </Position>
            <AltitudeMeters>36.200000762939453125</AltitudeMeters>
            <DistanceMeters>NAN</DistanceMeters>
          </Trackpoint>
          <Trackpoint>
            <Time>2022-07-05T13:23:10.000Z</Time>
            <Position>
              <LatitudeDegrees>44.41039186902344226837158203125</LatitudeDegrees>
              <LongitudeDegrees>-1.17357130162417888641357421875</LongitudeDegrees>
            </Position>
            <AltitudeMeters>36.200000762939453125</AltitudeMeters>
            <DistanceMeters>NAN</DistanceMeters>
          </Trackpoint>
          <Trackpoint>
            <Time>2022-07-05T13:23:13.000Z</Time>
            <Position>
              <LatitudeDegrees>44.41026597283780574798583984375</LatitudeDegrees>
              <LongitudeDegrees>-1.1736466549336910247802734375</LongitudeDegrees>
            </Position>
            <AltitudeMeters>36.200000762939453125</AltitudeMeters>
            <DistanceMeters>NAN</DistanceMeters>
          </Trackpoint>
          <Trackpoint>
            <Time>2022-07-05T13:23:16.000Z</Time>
            <Position>
              <LatitudeDegrees>44.41009850241243839263916015625</LatitudeDegrees>
              <LongitudeDegrees>-1.1736448109149932861328125</LongitudeDegrees>
            </Position>
            <AltitudeMeters>36.200000762939453125</AltitudeMeters>
            <DistanceMeters>NAN</DistanceMeters>
          </Trackpoint>
          <Trackpoint>
            <Time>2022-07-05T13:23:18.000Z</Time>
            <Position>
              <LatitudeDegrees>44.40999674610793590545654296875</LatitudeDegrees>
              <LongitudeDegrees>-1.173618324100971221923828125</LongitudeDegrees>
            </Position>
            <AltitudeMeters>36</AltitudeMeters>
            <DistanceMeters>NAN</DistanceMeters>
          </Trackpoint>
          <Trackpoint>
            <Time>2022-07-05T13:23:22.000Z</Time>
            <Position>
              <LatitudeDegrees>44.4098437763750553131103515625</LatitudeDegrees>
              <LongitudeDegrees>-1.17343065328896045684814453125</LongitudeDegrees>
            </Position>
            <AltitudeMeters>36.200000762939453125</AltitudeMeters>
            <DistanceMeters>NAN</DistanceMeters>
          </Trackpoint>
          <Trackpoint>
            <Time>2022-07-05T13:23:26.000Z</Time>
            <Position>
              <LatitudeDegrees>44.40978468395769596099853515625</LatitudeDegrees>
              <LongitudeDegrees>-1.17319076322019100189208984375</LongitudeDegrees>
            </Position>
            <AltitudeMeters>36.40000152587890625</AltitudeMeters>
            <DistanceMeters>NAN</DistanceMeters>
          </Trackpoint>
          <Trackpoint>
            <Time>2022-07-05T13:23:32.000Z</Time>
            <Position>
              <LatitudeDegrees>44.409608580172061920166015625</LatitudeDegrees>
              <LongitudeDegrees>-1.17286571301519870758056640625</LongitudeDegrees>
            </Position>
            <AltitudeMeters>36.59999847412109375</AltitudeMeters>
            <DistanceMeters>NAN</DistanceMeters>
          </Trackpoint>
          <Trackpoint>
            <Time>2022-07-05T13:23:38.000Z</Time>
            <Position>
              <LatitudeDegrees>44.4094406068325042724609375</LatitudeDegrees>
              <LongitudeDegrees>-1.17265666835010051727294921875</LongitudeDegrees>
            </Position>
            <AltitudeMeters>36.799999237060546875</AltitudeMeters>
            <DistanceMeters>NAN</DistanceMeters>
          </Trackpoint>
          <Trackpoint>
            <Time>2022-07-05T13:23:43.000Z</Time>
            <Position>
              <LatitudeDegrees>44.40927674062550067901611328125</LatitudeDegrees>
              <LongitudeDegrees>-1.17248701862990856170654296875</LongitudeDegrees>
            </Position>
            <AltitudeMeters>36.59999847412109375</AltitudeMeters>
            <DistanceMeters>NAN</DistanceMeters>
          </Trackpoint>
          <Trackpoint>
            <Time>2022-07-05T13:23:49.000Z</Time>
            <Position>
              <LatitudeDegrees>44.4090650975704193115234375</LatitudeDegrees>
              <LongitudeDegrees>-1.1722830869257450103759765625</LongitudeDegrees>
            </Position>
            <AltitudeMeters>36.59999847412109375</AltitudeMeters>
            <DistanceMeters>NAN</DistanceMeters>
          </Trackpoint>
          <Trackpoint>
            <Time>2022-07-05T13:23:55.000Z</Time>
            <Position>
              <LatitudeDegrees>44.4088362716138362884521484375</LatitudeDegrees>
              <LongitudeDegrees>-1.17207395844161510467529296875</LongitudeDegrees>
            </Position>
            <AltitudeMeters>36.59999847412109375</AltitudeMeters>
            <DistanceMeters>NAN</DistanceMeters>
          </Trackpoint>
          <Trackpoint>
            <Time>2022-07-05T13:24:01.000Z</Time>
            <Position>
              <LatitudeDegrees>44.4086136482656002044677734375</LatitudeDegrees>
              <LongitudeDegrees>-1.17187631316483020782470703125</LongitudeDegrees>
            </Position>
            <AltitudeMeters>36.59999847412109375</AltitudeMeters>
            <DistanceMeters>NAN</DistanceMeters>
          </Trackpoint>
          <Trackpoint>
            <Time>2022-07-05T13:24:07.000Z</Time>
            <Position>
              <LatitudeDegrees>44.408456571400165557861328125</LatitudeDegrees>
              <LongitudeDegrees>-1.171688139438629150390625</LongitudeDegrees>
            </Position>
            <AltitudeMeters>36.59999847412109375</AltitudeMeters>
            <DistanceMeters>NAN</DistanceMeters>
          </Trackpoint>
          <Trackpoint>
            <Time>2022-07-05T13:24:11.000Z</Time>
            <Position>
              <LatitudeDegrees>44.4082979857921600341796875</LatitudeDegrees>
              <LongitudeDegrees>-1.1716078408062458038330078125</LongitudeDegrees>
            </Position>
            <AltitudeMeters>36.59999847412109375</AltitudeMeters>
            <DistanceMeters>NAN</DistanceMeters>
          </Trackpoint>
          <Trackpoint>
            <Time>2022-07-05T13:24:17.000Z</Time>
            <Position>
              <LatitudeDegrees>44.4080537371337413787841796875</LatitudeDegrees>
              <LongitudeDegrees>-1.171445734798908233642578125</LongitudeDegrees>
            </Position>
            <AltitudeMeters>36.59999847412109375</AltitudeMeters>
            <DistanceMeters>NAN</DistanceMeters>
          </Trackpoint>
          <Trackpoint>
            <Time>2022-07-05T13:24:24.000Z</Time>
            <Position>
              <LatitudeDegrees>44.40772608853876590728759765625</LatitudeDegrees>
              <LongitudeDegrees>-1.17121766321361064910888671875</LongitudeDegrees>
            </Position>
            <AltitudeMeters>36.59999847412109375</AltitudeMeters>
            <DistanceMeters>NAN</DistanceMeters>
          </Trackpoint>
          <Trackpoint>
            <Time>2022-07-05T13:24:25.000Z</Time>
            <Position>
              <LatitudeDegrees>44.40768082626163959503173828125</LatitudeDegrees>
              <LongitudeDegrees>-1.17118455469608306884765625</LongitudeDegrees>
            </Position>
            <AltitudeMeters>36.59999847412109375</AltitudeMeters>
            <DistanceMeters>NAN</DistanceMeters>
          </Trackpoint>
          <Trackpoint>
            <Time>2022-07-05T13:24:29.000Z</Time>
            <Position>
              <LatitudeDegrees>44.407540261745452880859375</LatitudeDegrees>
              <LongitudeDegrees>-1.17109595797955989837646484375</LongitudeDegrees>
            </Position>
            <AltitudeMeters>36.59999847412109375</AltitudeMeters>
            <DistanceMeters>NAN</DistanceMeters>
          </Trackpoint>
          <Trackpoint>
            <Time>2022-07-05T13:24:36.000Z</Time>
            <Position>
              <LatitudeDegrees>44.407265000045299530029296875</LatitudeDegrees>
              <LongitudeDegrees>-1.17093167267739772796630859375</LongitudeDegrees>
            </Position>
            <AltitudeMeters>36.799999237060546875</AltitudeMeters>
            <DistanceMeters>NAN</DistanceMeters>
          </Trackpoint>
          <Trackpoint>
            <Time>2022-07-05T13:24:43.000Z</Time>
            <Position>
              <LatitudeDegrees>44.406900890171527862548828125</LatitudeDegrees>
              <LongitudeDegrees>-1.170877106487751007080078125</LongitudeDegrees>
            </Position>
            <AltitudeMeters>36.799999237060546875</AltitudeMeters>
            <DistanceMeters>NAN</DistanceMeters>
          </Trackpoint>
          <Trackpoint>
            <Time>2022-07-05T13:24:50.000Z</Time>
            <Position>
              <LatitudeDegrees>44.40662722103297710418701171875</LatitudeDegrees>
              <LongitudeDegrees>-1.170857660472393035888671875</LongitudeDegrees>
            </Position>
            <AltitudeMeters>37</AltitudeMeters>
            <DistanceMeters>NAN</DistanceMeters>
          </Trackpoint>
          <Trackpoint>
            <Time>2022-07-05T13:24:54.000Z</Time>
            <Position>
              <LatitudeDegrees>44.40651364624500274658203125</LatitudeDegrees>
              <LongitudeDegrees>-1.17085397243499755859375</LongitudeDegrees>
            </Position>
            <AltitudeMeters>36.799999237060546875</AltitudeMeters>
            <DistanceMeters>NAN</DistanceMeters>
          </Trackpoint>
          <Trackpoint>
            <Time>2022-07-05T13:25:00.000Z</Time>
            <Position>
              <LatitudeDegrees>44.406268559396266937255859375</LatitudeDegrees>
              <LongitudeDegrees>-1.170874424278736114501953125</LongitudeDegrees>
            </Position>
            <AltitudeMeters>36.799999237060546875</AltitudeMeters>
            <DistanceMeters>NAN</DistanceMeters>
          </Trackpoint>
          <Trackpoint>
            <Time>2022-07-05T13:25:09.000Z</Time>
            <Position>
              <LatitudeDegrees>44.4059626199305057525634765625</LatitudeDegrees>
              <LongitudeDegrees>-1.1710103787481784820556640625</LongitudeDegrees>
            </Position>
            <AltitudeMeters>36.799999237060546875</AltitudeMeters>
            <DistanceMeters>NAN</DistanceMeters>
          </Trackpoint>
          <Trackpoint>
            <Time>2022-07-05T13:25:14.000Z</Time>
            <Position>
              <LatitudeDegrees>44.405770003795623779296875</LatitudeDegrees>
              <LongitudeDegrees>-1.171071231365203857421875</LongitudeDegrees>
            </Position>
            <AltitudeMeters>36.40000152587890625</AltitudeMeters>
            <DistanceMeters>NAN</DistanceMeters>
          </Trackpoint>
          <Trackpoint>
            <Time>2022-07-05T13:25:16.000Z</Time>
            <Position>
              <LatitudeDegrees>44.405770003795623779296875</LatitudeDegrees>
              <LongitudeDegrees>-1.171071231365203857421875</LongitudeDegrees>
            </Position>
            <AltitudeMeters>36.40000152587890625</AltitudeMeters>
            <DistanceMeters>NAN</DistanceMeters>
          </Trackpoint>
          <Trackpoint>
            <Time>2022-07-05T13:28:52.000Z</Time>
            <Position>
              <LatitudeDegrees>44.4056400842964649200439453125</LatitudeDegrees>
              <LongitudeDegrees>-1.1710502766072750091552734375</LongitudeDegrees>
            </Position>
            <AltitudeMeters>37</AltitudeMeters>
            <DistanceMeters>NAN</DistanceMeters>
          </Trackpoint>
          <Trackpoint>
            <Time>2022-07-05T13:28:53.000Z</Time>
            <Position>
              <LatitudeDegrees>44.4056246615946292877197265625</LatitudeDegrees>
              <LongitudeDegrees>-1.17103493772447109222412109375</LongitudeDegrees>
            </Position>
            <AltitudeMeters>37</AltitudeMeters>
            <DistanceMeters>NAN</DistanceMeters>
          </Trackpoint>
          <Trackpoint>
            <Time>2022-07-05T13:28:54.000Z</Time>
            <Position>
              <LatitudeDegrees>44.40561519004404544830322265625</LatitudeDegrees>
              <LongitudeDegrees>-1.17101783864200115203857421875</LongitudeDegrees>
            </Position>
            <AltitudeMeters>37</AltitudeMeters>
            <DistanceMeters>NAN</DistanceMeters>
          </Trackpoint>
          <Trackpoint>
            <Time>2022-07-05T13:28:58.000Z</Time>
            <Position>
              <LatitudeDegrees>44.4055814109742641448974609375</LatitudeDegrees>
              <LongitudeDegrees>-1.17088942788541316986083984375</LongitudeDegrees>
            </Position>
            <AltitudeMeters>37</AltitudeMeters>
            <DistanceMeters>NAN</DistanceMeters>
          </Trackpoint>
          <Trackpoint>
            <Time>2022-07-05T13:29:02.000Z</Time>
            <Position>
              <LatitudeDegrees>44.4055398367345333099365234375</LatitudeDegrees>
              <LongitudeDegrees>-1.17069681175053119659423828125</LongitudeDegrees>
            </Position>
            <AltitudeMeters>37</AltitudeMeters>
            <DistanceMeters>NAN</DistanceMeters>
          </Trackpoint>
          <Trackpoint>
            <Time>2022-07-05T13:29:05.000Z</Time>
            <Position>
              <LatitudeDegrees>44.40551142208278179168701171875</LatitudeDegrees>
              <LongitudeDegrees>-1.17056990973651409149169921875</LongitudeDegrees>
            </Position>
            <AltitudeMeters>37</AltitudeMeters>
            <DistanceMeters>NAN</DistanceMeters>
          </Trackpoint>
          <Trackpoint>
            <Time>2022-07-05T13:29:10.000Z</Time>
            <Position>
              <LatitudeDegrees>44.405459202826023101806640625</LatitudeDegrees>
              <LongitudeDegrees>-1.17035231553018093109130859375</LongitudeDegrees>
            </Position>
            <AltitudeMeters>36.799999237060546875</AltitudeMeters>
            <DistanceMeters>NAN</DistanceMeters>
          </Trackpoint>
          <Trackpoint>
            <Time>2022-07-05T13:29:15.000Z</Time>
            <Position>
              <LatitudeDegrees>44.40541637130081653594970703125</LatitudeDegrees>
              <LongitudeDegrees>-1.17011980153620243072509765625</LongitudeDegrees>
            </Position>
            <AltitudeMeters>36.59999847412109375</AltitudeMeters>
            <DistanceMeters>NAN</DistanceMeters>
          </Trackpoint>
          <Trackpoint>
            <Time>2022-07-05T13:29:22.000Z</Time>
            <Position>
              <LatitudeDegrees>44.40535283647477626800537109375</LatitudeDegrees>
              <LongitudeDegrees>-1.16983096115291118621826171875</LongitudeDegrees>
            </Position>
            <AltitudeMeters>36.799999237060546875</AltitudeMeters>
            <DistanceMeters>NAN</DistanceMeters>
          </Trackpoint>
          <Trackpoint>
            <Time>2022-07-05T13:29:32.000Z</Time>
            <Position>
              <LatitudeDegrees>44.40531360916793346405029296875</LatitudeDegrees>
              <LongitudeDegrees>-1.16938772611320018768310546875</LongitudeDegrees>
            </Position>
            <AltitudeMeters>37</AltitudeMeters>
            <DistanceMeters>NAN</DistanceMeters>
          </Trackpoint>
          <Trackpoint>
            <Time>2022-07-05T13:29:39.000Z</Time>
            <Position>
              <LatitudeDegrees>44.40529500134289264678955078125</LatitudeDegrees>
              <LongitudeDegrees>-1.16904607973992824554443359375</LongitudeDegrees>
            </Position>
            <AltitudeMeters>37.200000762939453125</AltitudeMeters>
            <DistanceMeters>NAN</DistanceMeters>
          </Trackpoint>
          <Trackpoint>
            <Time>2022-07-05T13:29:46.000Z</Time>
            <Position>
              <LatitudeDegrees>44.405245967209339141845703125</LatitudeDegrees>
              <LongitudeDegrees>-1.16868850775063037872314453125</LongitudeDegrees>
            </Position>
            <AltitudeMeters>37.200000762939453125</AltitudeMeters>
            <DistanceMeters>NAN</DistanceMeters>
          </Trackpoint>
          <Trackpoint>
            <Time>2022-07-05T13:29:51.000Z</Time>
            <Position>
              <LatitudeDegrees>44.40521520562469959259033203125</LatitudeDegrees>
              <LongitudeDegrees>-1.168428249657154083251953125</LongitudeDegrees>
            </Position>
            <AltitudeMeters>37</AltitudeMeters>
            <DistanceMeters>NAN</DistanceMeters>
          </Trackpoint>
          <Trackpoint>
            <Time>2022-07-05T13:29:53.000Z</Time>
            <Position>
              <LatitudeDegrees>44.405200369656085968017578125</LatitudeDegrees>
              <LongitudeDegrees>-1.16833026520907878875732421875</LongitudeDegrees>
            </Position>
            <AltitudeMeters>37</AltitudeMeters>
            <DistanceMeters>NAN</DistanceMeters>
          </Trackpoint>
          <Trackpoint>
            <Time>2022-07-05T13:29:59.000Z</Time>
            <Position>
              <LatitudeDegrees>44.4051757268607616424560546875</LatitudeDegrees>
              <LongitudeDegrees>-1.16806204430758953094482421875</LongitudeDegrees>
            </Position>
            <AltitudeMeters>37.200000762939453125</AltitudeMeters>
            <DistanceMeters>NAN</DistanceMeters>
          </Trackpoint>
          <Trackpoint>
            <Time>2022-07-05T13:30:00.000Z</Time>
            <Position>
              <LatitudeDegrees>44.40518100745975971221923828125</LatitudeDegrees>
              <LongitudeDegrees>-1.16801418364048004150390625</LongitudeDegrees>
            </Position>
            <AltitudeMeters>37.200000762939453125</AltitudeMeters>
            <DistanceMeters>NAN</DistanceMeters>
          </Trackpoint>
          <Trackpoint>
            <Time>2022-07-05T13:30:07.000Z</Time>
            <Position>
              <LatitudeDegrees>44.40527069382369518280029296875</LatitudeDegrees>
              <LongitudeDegrees>-1.16770363412797451019287109375</LongitudeDegrees>
            </Position>
            <AltitudeMeters>37.40000152587890625</AltitudeMeters>
            <DistanceMeters>NAN</DistanceMeters>
          </Trackpoint>
          <Trackpoint>
            <Time>2022-07-05T13:30:11.000Z</Time>
            <Position>
              <LatitudeDegrees>44.40535216592252254486083984375</LatitudeDegrees>
              <LongitudeDegrees>-1.16753582842648029327392578125</LongitudeDegrees>
            </Position>
            <AltitudeMeters>37.59999847412109375</AltitudeMeters>
            <DistanceMeters>NAN</DistanceMeters>
          </Trackpoint>
          <Trackpoint>
            <Time>2022-07-05T13:30:14.000Z</Time>
            <Position>
              <LatitudeDegrees>44.40541704185307025909423828125</LatitudeDegrees>
              <LongitudeDegrees>-1.16743348538875579833984375</LongitudeDegrees>
            </Position>
            <AltitudeMeters>37.40000152587890625</AltitudeMeters>
            <DistanceMeters>NAN</DistanceMeters>
          </Trackpoint>
          <Trackpoint>
            <Time>2022-07-05T13:30:15.000Z</Time>
            <Position>
              <LatitudeDegrees>44.40543246455490589141845703125</LatitudeDegrees>
              <LongitudeDegrees>-1.1673961021006107330322265625</LongitudeDegrees>
            </Position>
            <AltitudeMeters>37.40000152587890625</AltitudeMeters>
            <DistanceMeters>NAN</DistanceMeters>
          </Trackpoint>
          <Trackpoint>
            <Time>2022-07-05T13:30:19.000Z</Time>
            <Position>
              <LatitudeDegrees>44.4054154492914676666259765625</LatitudeDegrees>
              <LongitudeDegrees>-1.1672452278435230255126953125</LongitudeDegrees>
            </Position>
            <AltitudeMeters>37.59999847412109375</AltitudeMeters>
            <DistanceMeters>NAN</DistanceMeters>
          </Trackpoint>
          <Trackpoint>
            <Time>2022-07-05T13:30:22.000Z</Time>
            <Position>
              <LatitudeDegrees>44.40534009598195552825927734375</LatitudeDegrees>
              <LongitudeDegrees>-1.167131401598453521728515625</LongitudeDegrees>
            </Position>
            <AltitudeMeters>37.59999847412109375</AltitudeMeters>
            <DistanceMeters>NAN</DistanceMeters>
          </Trackpoint>
          <Trackpoint>
            <Time>2022-07-05T13:30:26.000Z</Time>
            <Position>
              <LatitudeDegrees>44.405233226716518402099609375</LatitudeDegrees>
              <LongitudeDegrees>-1.16697616875171661376953125</LongitudeDegrees>
            </Position>
            <AltitudeMeters>37.59999847412109375</AltitudeMeters>
            <DistanceMeters>NAN</DistanceMeters>
          </Trackpoint>
          <Trackpoint>
            <Time>2022-07-05T13:30:33.000Z</Time>
            <Position>
              <LatitudeDegrees>44.4050282053649425506591796875</LatitudeDegrees>
              <LongitudeDegrees>-1.16667710244655609130859375</LongitudeDegrees>
            </Position>
            <AltitudeMeters>37.59999847412109375</AltitudeMeters>
            <DistanceMeters>NAN</DistanceMeters>
          </Trackpoint>
          <Trackpoint>
            <Time>2022-07-05T13:30:35.000Z</Time>
            <Position>
              <LatitudeDegrees>44.40496207214891910552978515625</LatitudeDegrees>
              <LongitudeDegrees>-1.16659739054739475250244140625</LongitudeDegrees>
            </Position>
            <AltitudeMeters>37.59999847412109375</AltitudeMeters>
            <DistanceMeters>NAN</DistanceMeters>
          </Trackpoint>
          <Trackpoint>
            <Time>2022-07-05T13:30:40.000Z</Time>
            <Position>
              <LatitudeDegrees>44.40479996614158153533935546875</LatitudeDegrees>
              <LongitudeDegrees>-1.166411899030208587646484375</LongitudeDegrees>
            </Position>
            <AltitudeMeters>37.799999237060546875</AltitudeMeters>
            <DistanceMeters>NAN</DistanceMeters>
          </Trackpoint>
          <Trackpoint>
            <Time>2022-07-05T13:30:43.000Z</Time>
            <Position>
              <LatitudeDegrees>44.40471245907247066497802734375</LatitudeDegrees>
              <LongitudeDegrees>-1.16632430814206600189208984375</LongitudeDegrees>
            </Position>
            <AltitudeMeters>37.59999847412109375</AltitudeMeters>
            <DistanceMeters>NAN</DistanceMeters>
          </Trackpoint>
          <Trackpoint>
            <Time>2022-07-05T13:30:46.000Z</Time>
            <Position>
              <LatitudeDegrees>44.40465847961604595184326171875</LatitudeDegrees>
              <LongitudeDegrees>-1.16624099202454090118408203125</LongitudeDegrees>
            </Position>
            <AltitudeMeters>37.59999847412109375</AltitudeMeters>
            <DistanceMeters>NAN</DistanceMeters>
          </Trackpoint>
          <Trackpoint>
            <Time>2022-07-05T13:30:47.000Z</Time>
            <Position>
              <LatitudeDegrees>44.4046617485582828521728515625</LatitudeDegrees>
              <LongitudeDegrees>-1.16620503365993499755859375</LongitudeDegrees>
            </Position>
            <AltitudeMeters>37.59999847412109375</AltitudeMeters>
            <DistanceMeters>NAN</DistanceMeters>
          </Trackpoint>
          <Trackpoint>
            <Time>2022-07-05T13:30:48.000Z</Time>
            <Position>
              <LatitudeDegrees>44.40467406995594501495361328125</LatitudeDegrees>
              <LongitudeDegrees>-1.16617226041853427886962890625</LongitudeDegrees>
            </Position>
            <AltitudeMeters>37.59999847412109375</AltitudeMeters>
            <DistanceMeters>NAN</DistanceMeters>
          </Trackpoint>
          <Trackpoint>
            <Time>2022-07-05T13:30:50.000Z</Time>
            <Position>
              <LatitudeDegrees>44.4047163985669612884521484375</LatitudeDegrees>
              <LongitudeDegrees>-1.1661176942288875579833984375</LongitudeDegrees>
            </Position>
            <AltitudeMeters>37.59999847412109375</AltitudeMeters>
            <DistanceMeters>NAN</DistanceMeters>
          </Trackpoint>
          <Trackpoint>
            <Time>2022-07-05T13:30:51.000Z</Time>
            <Position>
              <LatitudeDegrees>44.4047395326197147369384765625</LatitudeDegrees>
              <LongitudeDegrees>-1.1660915426909923553466796875</LongitudeDegrees>
            </Position>
            <AltitudeMeters>37.59999847412109375</AltitudeMeters>
            <DistanceMeters>NAN</DistanceMeters>
          </Trackpoint>
          <Trackpoint>
            <Time>2022-07-05T13:30:53.000Z</Time>
            <Position>
              <LatitudeDegrees>44.40480097196996212005615234375</LatitudeDegrees>
              <LongitudeDegrees>-1.1660419218242168426513671875</LongitudeDegrees>
            </Position>
            <AltitudeMeters>37.799999237060546875</AltitudeMeters>
            <DistanceMeters>NAN</DistanceMeters>
          </Trackpoint>
          <Trackpoint>
            <Time>2022-07-05T13:30:55.000Z</Time>
            <Position>
              <LatitudeDegrees>44.40487573854625225067138671875</LatitudeDegrees>
              <LongitudeDegrees>-1.16599892266094684600830078125</LongitudeDegrees>
            </Position>
            <AltitudeMeters>37.799999237060546875</AltitudeMeters>
            <DistanceMeters>NAN</DistanceMeters>
          </Trackpoint>
          <Trackpoint>
            <Time>2022-07-05T13:30:56.000Z</Time>
            <Position>
              <LatitudeDegrees>44.40491463057696819305419921875</LatitudeDegrees>
              <LongitudeDegrees>-1.1659778840839862823486328125</LongitudeDegrees>
            </Position>
            <AltitudeMeters>38</AltitudeMeters>
            <DistanceMeters>NAN</DistanceMeters>
          </Trackpoint>
          <Trackpoint>
            <Time>2022-07-05T13:31:04.000Z</Time>
            <Position>
              <LatitudeDegrees>44.4052394293248653411865234375</LatitudeDegrees>
              <LongitudeDegrees>-1.16580915637314319610595703125</LongitudeDegrees>
            </Position>
            <AltitudeMeters>37.59999847412109375</AltitudeMeters>
            <DistanceMeters>NAN</DistanceMeters>
          </Trackpoint>
          <Trackpoint>
            <Time>2022-07-05T13:31:08.000Z</Time>
            <Position>
              <LatitudeDegrees>44.40539105795323848724365234375</LatitudeDegrees>
              <LongitudeDegrees>-1.16567873395979404449462890625</LongitudeDegrees>
            </Position>
            <AltitudeMeters>37.59999847412109375</AltitudeMeters>
            <DistanceMeters>NAN</DistanceMeters>
          </Trackpoint>
          <Trackpoint>
            <Time>2022-07-05T13:31:10.000Z</Time>
            <Position>
              <LatitudeDegrees>44.40546280704438686370849609375</LatitudeDegrees>
              <LongitudeDegrees>-1.16557605564594268798828125</LongitudeDegrees>
            </Position>
            <AltitudeMeters>37.799999237060546875</AltitudeMeters>
            <DistanceMeters>NAN</DistanceMeters>
          </Trackpoint>
          <Trackpoint>
            <Time>2022-07-05T13:31:13.000Z</Time>
            <Position>
              <LatitudeDegrees>44.40553732216358184814453125</LatitudeDegrees>
              <LongitudeDegrees>-1.1654474772512912750244140625</LongitudeDegrees>
            </Position>
            <AltitudeMeters>38</AltitudeMeters>
            <DistanceMeters>NAN</DistanceMeters>
          </Trackpoint>
          <Trackpoint>
            <Time>2022-07-05T13:31:14.000Z</Time>
            <Position>
              <LatitudeDegrees>44.4055594503879547119140625</LatitudeDegrees>
              <LongitudeDegrees>-1.16540498100221157073974609375</LongitudeDegrees>
            </Position>
            <AltitudeMeters>38.200000762939453125</AltitudeMeters>
            <DistanceMeters>NAN</DistanceMeters>
          </Trackpoint>
          <Trackpoint>
            <Time>2022-07-05T13:31:16.000Z</Time>
            <Position>
              <LatitudeDegrees>44.40560982562601566314697265625</LatitudeDegrees>
              <LongitudeDegrees>-1.165319569408893585205078125</LongitudeDegrees>
            </Position>
            <AltitudeMeters>38.40000152587890625</AltitudeMeters>
            <DistanceMeters>NAN</DistanceMeters>
          </Trackpoint>
          <Trackpoint>
            <Time>2022-07-05T13:31:20.000Z</Time>
            <Position>
              <LatitudeDegrees>44.40569682978093624114990234375</LatitudeDegrees>
              <LongitudeDegrees>-1.1651494167745113372802734375</LongitudeDegrees>
            </Position>
            <AltitudeMeters>38.200000762939453125</AltitudeMeters>
            <DistanceMeters>NAN</DistanceMeters>
          </Trackpoint>
          <Trackpoint>
            <Time>2022-07-05T13:31:28.000Z</Time>
            <Position>
              <LatitudeDegrees>44.40590017475187778472900390625</LatitudeDegrees>
              <LongitudeDegrees>-1.1648231931030750274658203125</LongitudeDegrees>
            </Position>
            <AltitudeMeters>37.40000152587890625</AltitudeMeters>
            <DistanceMeters>NAN</DistanceMeters>
          </Trackpoint>
          <Trackpoint>
            <Time>2022-07-05T13:31:37.000Z</Time>
            <Position>
              <LatitudeDegrees>44.406146518886089324951171875</LatitudeDegrees>
              <LongitudeDegrees>-1.16453493945300579071044921875</LongitudeDegrees>
            </Position>
            <AltitudeMeters>37.40000152587890625</AltitudeMeters>
            <DistanceMeters>NAN</DistanceMeters>
          </Trackpoint>
          <Trackpoint>
            <Time>2022-07-05T13:31:41.000Z</Time>
            <Position>
              <LatitudeDegrees>44.40626151859760284423828125</LatitudeDegrees>
              <LongitudeDegrees>-1.164436452090740203857421875</LongitudeDegrees>
            </Position>
            <AltitudeMeters>37.40000152587890625</AltitudeMeters>
            <DistanceMeters>NAN</DistanceMeters>
          </Trackpoint>
          <Trackpoint>
            <Time>2022-07-05T13:31:43.000Z</Time>
            <Position>
              <LatitudeDegrees>44.406325556337833404541015625</LatitudeDegrees>
              <LongitudeDegrees>-1.1643896810710430145263671875</LongitudeDegrees>
            </Position>
            <AltitudeMeters>37.200000762939453125</AltitudeMeters>
            <DistanceMeters>NAN</DistanceMeters>
          </Trackpoint>
          <Trackpoint>
            <Time>2022-07-05T13:31:45.000Z</Time>
            <Position>
              <LatitudeDegrees>44.4063931144773960113525390625</LatitudeDegrees>
              <LongitudeDegrees>-1.16434332914650440216064453125</LongitudeDegrees>
            </Position>
            <AltitudeMeters>37.200000762939453125</AltitudeMeters>
            <DistanceMeters>NAN</DistanceMeters>
          </Trackpoint>
          <Trackpoint>
            <Time>2022-07-05T13:31:50.000Z</Time>
            <Position>
              <LatitudeDegrees>44.40655882470309734344482421875</LatitudeDegrees>
              <LongitudeDegrees>-1.164237298071384429931640625</LongitudeDegrees>
            </Position>
            <AltitudeMeters>37.59999847412109375</AltitudeMeters>
            <DistanceMeters>NAN</DistanceMeters>
          </Trackpoint>
          <Trackpoint>
            <Time>2022-07-05T13:31:57.000Z</Time>
            <Position>
              <LatitudeDegrees>44.4067759998142719268798828125</LatitudeDegrees>
              <LongitudeDegrees>-1.16409958340227603912353515625</LongitudeDegrees>
            </Position>
            <AltitudeMeters>37.799999237060546875</AltitudeMeters>
            <DistanceMeters>NAN</DistanceMeters>
          </Trackpoint>
          <Trackpoint>
            <Time>2022-07-05T13:32:08.000Z</Time>
            <Position>
              <LatitudeDegrees>44.40712384879589080810546875</LatitudeDegrees>
              <LongitudeDegrees>-1.1638867668807506561279296875</LongitudeDegrees>
            </Position>
            <AltitudeMeters>38</AltitudeMeters>
            <DistanceMeters>NAN</DistanceMeters>
          </Trackpoint>
          <Trackpoint>
            <Time>2022-07-05T13:32:14.000Z</Time>
            <Position>
              <LatitudeDegrees>44.407313279807567596435546875</LatitudeDegrees>
              <LongitudeDegrees>-1.16382499225437641143798828125</LongitudeDegrees>
            </Position>
            <AltitudeMeters>37.799999237060546875</AltitudeMeters>
            <DistanceMeters>NAN</DistanceMeters>
          </Trackpoint>
          <Trackpoint>
            <Time>2022-07-05T13:32:21.000Z</Time>
            <Position>
              <LatitudeDegrees>44.40753866918385028839111328125</LatitudeDegrees>
              <LongitudeDegrees>-1.16372709162533283233642578125</LongitudeDegrees>
            </Position>
            <AltitudeMeters>37.59999847412109375</AltitudeMeters>
            <DistanceMeters>NAN</DistanceMeters>
          </Trackpoint>
          <Trackpoint>
            <Time>2022-07-05T13:32:24.000Z</Time>
            <Position>
              <LatitudeDegrees>44.40763271413743495941162109375</LatitudeDegrees>
              <LongitudeDegrees>-1.16366758011281490325927734375</LongitudeDegrees>
            </Position>
            <AltitudeMeters>37.59999847412109375</AltitudeMeters>
            <DistanceMeters>NAN</DistanceMeters>
          </Trackpoint>
          <Trackpoint>
            <Time>2022-07-05T13:32:29.000Z</Time>
            <Position>
              <LatitudeDegrees>44.40778660587966442108154296875</LatitudeDegrees>
              <LongitudeDegrees>-1.1635756306350231170654296875</LongitudeDegrees>
            </Position>
            <AltitudeMeters>37.799999237060546875</AltitudeMeters>
            <DistanceMeters>NAN</DistanceMeters>
          </Trackpoint>
          <Trackpoint>
            <Time>2022-07-05T13:32:38.000Z</Time>
            <Position>
              <LatitudeDegrees>44.40807678736746311187744140625</LatitudeDegrees>
              <LongitudeDegrees>-1.163401119410991668701171875</LongitudeDegrees>
            </Position>
            <AltitudeMeters>38.40000152587890625</AltitudeMeters>
            <DistanceMeters>NAN</DistanceMeters>
          </Trackpoint>
          <Trackpoint>
            <Time>2022-07-05T13:32:44.000Z</Time>
            <Position>
              <LatitudeDegrees>44.40820218063890933990478515625</LatitudeDegrees>
              <LongitudeDegrees>-1.16322065703570842742919921875</LongitudeDegrees>
            </Position>
            <AltitudeMeters>37.59999847412109375</AltitudeMeters>
            <DistanceMeters>NAN</DistanceMeters>
          </Trackpoint>
          <Trackpoint>
            <Time>2022-07-05T13:32:50.000Z</Time>
            <Position>
              <LatitudeDegrees>44.40826202742755413055419921875</LatitudeDegrees>
              <LongitudeDegrees>-1.16295553743839263916015625</LongitudeDegrees>
            </Position>
            <AltitudeMeters>37.59999847412109375</AltitudeMeters>
            <DistanceMeters>NAN</DistanceMeters>
          </Trackpoint>
          <Trackpoint>
            <Time>2022-07-05T13:32:53.000Z</Time>
            <Position>
              <LatitudeDegrees>44.40827711485326290130615234375</LatitudeDegrees>
              <LongitudeDegrees>-1.162802316248416900634765625</LongitudeDegrees>
            </Position>
            <AltitudeMeters>37.799999237060546875</AltitudeMeters>
            <DistanceMeters>NAN</DistanceMeters>
          </Trackpoint>
          <Trackpoint>
            <Time>2022-07-05T13:33:02.000Z</Time>
            <Position>
              <LatitudeDegrees>44.4083434157073497772216796875</LatitudeDegrees>
              <LongitudeDegrees>-1.16239453665912151336669921875</LongitudeDegrees>
            </Position>
            <AltitudeMeters>38.200000762939453125</AltitudeMeters>
            <DistanceMeters>NAN</DistanceMeters>
          </Trackpoint>
          <Trackpoint>
            <Time>2022-07-05T13:33:10.000Z</Time>
            <Position>
              <LatitudeDegrees>44.40843771211802959442138671875</LatitudeDegrees>
              <LongitudeDegrees>-1.16209194995462894439697265625</LongitudeDegrees>
            </Position>
            <AltitudeMeters>38</AltitudeMeters>
            <DistanceMeters>NAN</DistanceMeters>
          </Trackpoint>
          <Trackpoint>
            <Time>2022-07-05T13:33:13.000Z</Time>
            <Position>
              <LatitudeDegrees>44.40849890001118183135986328125</LatitudeDegrees>
              <LongitudeDegrees>-1.1619961448013782501220703125</LongitudeDegrees>
            </Position>
            <AltitudeMeters>37.59999847412109375</AltitudeMeters>
            <DistanceMeters>NAN</DistanceMeters>
          </Trackpoint>
          <Trackpoint>
            <Time>2022-07-05T13:33:20.000Z</Time>
            <Position>
              <LatitudeDegrees>44.40866486169397830963134765625</LatitudeDegrees>
              <LongitudeDegrees>-1.1617886088788509368896484375</LongitudeDegrees>
            </Position>
            <AltitudeMeters>38.200000762939453125</AltitudeMeters>
            <DistanceMeters>NAN</DistanceMeters>
          </Trackpoint>
          <Trackpoint>
            <Time>2022-07-05T13:33:28.000Z</Time>
            <Position>
              <LatitudeDegrees>44.408848173916339874267578125</LatitudeDegrees>
              <LongitudeDegrees>-1.16152055561542510986328125</LongitudeDegrees>
            </Position>
            <AltitudeMeters>38.200000762939453125</AltitudeMeters>
            <DistanceMeters>NAN</DistanceMeters>
          </Trackpoint>
          <Trackpoint>
            <Time>2022-07-05T13:33:29.000Z</Time>
            <Position>
              <LatitudeDegrees>44.408850185573101043701171875</LatitudeDegrees>
              <LongitudeDegrees>-1.16148191504180431365966796875</LongitudeDegrees>
            </Position>
            <AltitudeMeters>38.200000762939453125</AltitudeMeters>
            <DistanceMeters>NAN</DistanceMeters>
          </Trackpoint>
          <Trackpoint>
            <Time>2022-07-05T13:33:31.000Z</Time>
            <Position>
              <LatitudeDegrees>44.40882168710231781005859375</LatitudeDegrees>
              <LongitudeDegrees>-1.16140681318938732147216796875</LongitudeDegrees>
            </Position>
            <AltitudeMeters>38</AltitudeMeters>
            <DistanceMeters>NAN</DistanceMeters>
          </Trackpoint>
          <Trackpoint>
            <Time>2022-07-05T13:33:37.000Z</Time>
            <Position>
              <LatitudeDegrees>44.4086830504238605499267578125</LatitudeDegrees>
              <LongitudeDegrees>-1.16120941936969757080078125</LongitudeDegrees>
            </Position>
            <AltitudeMeters>38.200000762939453125</AltitudeMeters>
            <DistanceMeters>NAN</DistanceMeters>
          </Trackpoint>
          <Trackpoint>
            <Time>2022-07-05T13:33:41.000Z</Time>
            <Position>
              <LatitudeDegrees>44.40861322917044162750244140625</LatitudeDegrees>
              <LongitudeDegrees>-1.16108327172696590423583984375</LongitudeDegrees>
            </Position>
            <AltitudeMeters>38.200000762939453125</AltitudeMeters>
            <DistanceMeters>NAN</DistanceMeters>
          </Trackpoint>
          <Trackpoint>
            <Time>2022-07-05T13:33:42.000Z</Time>
            <Position>
              <LatitudeDegrees>44.40858724527060985565185546875</LatitudeDegrees>
              <LongitudeDegrees>-1.16105812601745128631591796875</LongitudeDegrees>
            </Position>
            <AltitudeMeters>38.40000152587890625</AltitudeMeters>
            <DistanceMeters>NAN</DistanceMeters>
          </Trackpoint>
          <Trackpoint>
            <Time>2022-07-05T13:33:49.000Z</Time>
            <Position>
              <LatitudeDegrees>44.40840753726661205291748046875</LatitudeDegrees>
              <LongitudeDegrees>-1.16086877882480621337890625</LongitudeDegrees>
            </Position>
            <AltitudeMeters>38</AltitudeMeters>
            <DistanceMeters>NAN</DistanceMeters>
          </Trackpoint>
          <Trackpoint>
            <Time>2022-07-05T13:33:50.000Z</Time>
            <Position>
              <LatitudeDegrees>44.40840535797178745269775390625</LatitudeDegrees>
              <LongitudeDegrees>-1.16082879714667797088623046875</LongitudeDegrees>
            </Position>
            <AltitudeMeters>38</AltitudeMeters>
            <DistanceMeters>NAN</DistanceMeters>
          </Trackpoint>
          <Trackpoint>
            <Time>2022-07-05T13:33:52.000Z</Time>
            <Position>
              <LatitudeDegrees>44.408437795937061309814453125</LatitudeDegrees>
              <LongitudeDegrees>-1.16077934391796588897705078125</LongitudeDegrees>
            </Position>
            <AltitudeMeters>37.799999237060546875</AltitudeMeters>
            <DistanceMeters>NAN</DistanceMeters>
          </Trackpoint>
          <Trackpoint>
            <Time>2022-07-05T13:33:57.000Z</Time>
            <Position>
              <LatitudeDegrees>44.40853913314640522003173828125</LatitudeDegrees>
              <LongitudeDegrees>-1.1606238596141338348388671875</LongitudeDegrees>
            </Position>
            <AltitudeMeters>37.799999237060546875</AltitudeMeters>
            <DistanceMeters>NAN</DistanceMeters>
          </Trackpoint>
          <Trackpoint>
            <Time>2022-07-05T13:34:03.000Z</Time>
            <Position>
              <LatitudeDegrees>44.4086723215878009796142578125</LatitudeDegrees>
              <LongitudeDegrees>-1.16042663343250751495361328125</LongitudeDegrees>
            </Position>
            <AltitudeMeters>38</AltitudeMeters>
            <DistanceMeters>NAN</DistanceMeters>
          </Trackpoint>
          <Trackpoint>
            <Time>2022-07-05T13:34:11.000Z</Time>
            <Position>
              <LatitudeDegrees>44.4089298136532306671142578125</LatitudeDegrees>
              <LongitudeDegrees>-1.16029285825788974761962890625</LongitudeDegrees>
            </Position>
            <AltitudeMeters>38.200000762939453125</AltitudeMeters>
            <DistanceMeters>NAN</DistanceMeters>
          </Trackpoint>
          <Trackpoint>
            <Time>2022-07-05T13:34:20.000Z</Time>
            <Position>
              <LatitudeDegrees>44.40916123799979686737060546875</LatitudeDegrees>
              <LongitudeDegrees>-1.160112060606479644775390625</LongitudeDegrees>
            </Position>
            <AltitudeMeters>37.59999847412109375</AltitudeMeters>
            <DistanceMeters>NAN</DistanceMeters>
          </Trackpoint>
          <Trackpoint>
            <Time>2022-07-05T13:34:24.000Z</Time>
            <Position>
              <LatitudeDegrees>44.40919359214603900909423828125</LatitudeDegrees>
              <LongitudeDegrees>-1.16008565761148929595947265625</LongitudeDegrees>
            </Position>
            <AltitudeMeters>38</AltitudeMeters>
            <DistanceMeters>NAN</DistanceMeters>
          </Trackpoint>
          <Trackpoint>
            <Time>2022-07-05T13:34:32.000Z</Time>
            <Position>
              <LatitudeDegrees>44.4091933406889438629150390625</LatitudeDegrees>
              <LongitudeDegrees>-1.160087250173091888427734375</LongitudeDegrees>
            </Position>
            <AltitudeMeters>37.799999237060546875</AltitudeMeters>
            <DistanceMeters>NAN</DistanceMeters>
          </Trackpoint>
          <Trackpoint>
            <Time>2022-07-05T13:35:39.000Z</Time>
            <Position>
              <LatitudeDegrees>44.40921739675104618072509765625</LatitudeDegrees>
              <LongitudeDegrees>-1.16005917079746723175048828125</LongitudeDegrees>
            </Position>
            <AltitudeMeters>36.200000762939453125</AltitudeMeters>
            <DistanceMeters>NAN</DistanceMeters>
          </Trackpoint>
          <Trackpoint>
            <Time>2022-07-05T13:35:41.000Z</Time>
            <Position>
              <LatitudeDegrees>44.409211613237857818603515625</LatitudeDegrees>
              <LongitudeDegrees>-1.16005816496908664703369140625</LongitudeDegrees>
            </Position>
            <AltitudeMeters>36</AltitudeMeters>
            <DistanceMeters>NAN</DistanceMeters>
          </Trackpoint>
          <Trackpoint>
            <Time>2022-07-05T13:35:47.000Z</Time>
            <Position>
              <LatitudeDegrees>44.40918001346290111541748046875</LatitudeDegrees>
              <LongitudeDegrees>-1.1600522138178348541259765625</LongitudeDegrees>
            </Position>
            <AltitudeMeters>36.200000762939453125</AltitudeMeters>
            <DistanceMeters>NAN</DistanceMeters>
          </Trackpoint>
          <Trackpoint>
            <Time>2022-07-05T13:35:51.000Z</Time>
            <Position>
              <LatitudeDegrees>44.40916274674236774444580078125</LatitudeDegrees>
              <LongitudeDegrees>-1.16004928015172481536865234375</LongitudeDegrees>
            </Position>
            <AltitudeMeters>37</AltitudeMeters>
            <DistanceMeters>NAN</DistanceMeters>
          </Trackpoint>
          <Trackpoint>
            <Time>2022-07-05T13:37:48.000Z</Time>
            <Position>
              <LatitudeDegrees>44.409041292965412139892578125</LatitudeDegrees>
              <LongitudeDegrees>-1.16005212999880313873291015625</LongitudeDegrees>
            </Position>
            <AltitudeMeters>37.59999847412109375</AltitudeMeters>
            <DistanceMeters>NAN</DistanceMeters>
          </Trackpoint>
          <Trackpoint>
            <Time>2022-07-05T13:37:49.000Z</Time>
            <Position>
              <LatitudeDegrees>44.40903735347092151641845703125</LatitudeDegrees>
              <LongitudeDegrees>-1.16004844196140766143798828125</LongitudeDegrees>
            </Position>
            <AltitudeMeters>37.59999847412109375</AltitudeMeters>
            <DistanceMeters>NAN</DistanceMeters>
          </Trackpoint>
          <Trackpoint>
            <Time>2022-07-05T13:37:55.000Z</Time>
            <Position>
              <LatitudeDegrees>44.40901874564588069915771484375</LatitudeDegrees>
              <LongitudeDegrees>-1.1600213684141635894775390625</LongitudeDegrees>
            </Position>
            <AltitudeMeters>37.59999847412109375</AltitudeMeters>
            <DistanceMeters>NAN</DistanceMeters>
          </Trackpoint>
          <Trackpoint>
            <Time>2022-07-05T13:37:56.000Z</Time>
            <Position>
              <LatitudeDegrees>44.4090213440358638763427734375</LatitudeDegrees>
              <LongitudeDegrees>-1.1600111424922943115234375</LongitudeDegrees>
            </Position>
            <AltitudeMeters>37.799999237060546875</AltitudeMeters>
            <DistanceMeters>NAN</DistanceMeters>
          </Trackpoint>
          <Trackpoint>
            <Time>2022-07-05T13:38:01.000Z</Time>
            <Position>
              <LatitudeDegrees>44.40904540009796619415283203125</LatitudeDegrees>
              <LongitudeDegrees>-1.1600082926452159881591796875</LongitudeDegrees>
            </Position>
            <AltitudeMeters>37.59999847412109375</AltitudeMeters>
            <DistanceMeters>NAN</DistanceMeters>
          </Trackpoint>
          <Trackpoint>
            <Time>2022-07-05T13:38:02.000Z</Time>
            <Position>
              <LatitudeDegrees>44.40906970761716365814208984375</LatitudeDegrees>
              <LongitudeDegrees>-1.1599992401897907257080078125</LongitudeDegrees>
            </Position>
            <AltitudeMeters>37.59999847412109375</AltitudeMeters>
            <DistanceMeters>NAN</DistanceMeters>
          </Trackpoint>
          <Trackpoint>
            <Time>2022-07-05T13:38:11.000Z</Time>
            <Position>
              <LatitudeDegrees>44.40934144891798496246337890625</LatitudeDegrees>
              <LongitudeDegrees>-1.1600337736308574676513671875</LongitudeDegrees>
            </Position>
            <AltitudeMeters>37.59999847412109375</AltitudeMeters>
            <DistanceMeters>NAN</DistanceMeters>
          </Trackpoint>
          <Trackpoint>
            <Time>2022-07-05T13:38:16.000Z</Time>
            <Position>
              <LatitudeDegrees>44.4094055704772472381591796875</LatitudeDegrees>
              <LongitudeDegrees>-1.16019244305789470672607421875</LongitudeDegrees>
            </Position>
            <AltitudeMeters>37.799999237060546875</AltitudeMeters>
            <DistanceMeters>NAN</DistanceMeters>
          </Trackpoint>
          <Trackpoint>
            <Time>2022-07-05T13:38:17.000Z</Time>
            <Position>
              <LatitudeDegrees>44.40941252745687961578369140625</LatitudeDegrees>
              <LongitudeDegrees>-1.16024692542850971221923828125</LongitudeDegrees>
            </Position>
            <AltitudeMeters>37.799999237060546875</AltitudeMeters>
            <DistanceMeters>NAN</DistanceMeters>
          </Trackpoint>
          <Trackpoint>
            <Time>2022-07-05T13:45:16.000Z</Time>
            <Position>
              <LatitudeDegrees>44.40911128185689449310302734375</LatitudeDegrees>
              <LongitudeDegrees>-1.159933693706989288330078125</LongitudeDegrees>
            </Position>
            <AltitudeMeters>43</AltitudeMeters>
            <DistanceMeters>NAN</DistanceMeters>
          </Trackpoint>
          <Trackpoint>
            <Time>2022-07-05T13:45:19.000Z</Time>
            <Position>
              <LatitudeDegrees>44.4090454839169979095458984375</LatitudeDegrees>
              <LongitudeDegrees>-1.1599207855761051177978515625</LongitudeDegrees>
            </Position>
            <AltitudeMeters>43</AltitudeMeters>
            <DistanceMeters>NAN</DistanceMeters>
          </Trackpoint>
          <Trackpoint>
            <Time>2022-07-05T13:45:20.000Z</Time>
            <Position>
              <LatitudeDegrees>44.40903869457542896270751953125</LatitudeDegrees>
              <LongitudeDegrees>-1.15990980528295040130615234375</LongitudeDegrees>
            </Position>
            <AltitudeMeters>42.799999237060546875</AltitudeMeters>
            <DistanceMeters>NAN</DistanceMeters>
          </Trackpoint>
          <Trackpoint>
            <Time>2022-07-05T13:45:23.000Z</Time>
            <Position>
              <LatitudeDegrees>44.4090089388191699981689453125</LatitudeDegrees>
              <LongitudeDegrees>-1.15987728349864482879638671875</LongitudeDegrees>
            </Position>
            <AltitudeMeters>42.799999237060546875</AltitudeMeters>
            <DistanceMeters>NAN</DistanceMeters>
          </Trackpoint>
          <Trackpoint>
            <Time>2022-07-05T13:45:25.000Z</Time>
            <Position>
              <LatitudeDegrees>44.409017153084278106689453125</LatitudeDegrees>
              <LongitudeDegrees>-1.1598658002912998199462890625</LongitudeDegrees>
            </Position>
            <AltitudeMeters>42.799999237060546875</AltitudeMeters>
            <DistanceMeters>NAN</DistanceMeters>
          </Trackpoint>
          <Trackpoint>
            <Time>2022-07-05T13:45:27.000Z</Time>
            <Position>
              <LatitudeDegrees>44.40902058966457843780517578125</LatitudeDegrees>
              <LongitudeDegrees>-1.15985850803554058074951171875</LongitudeDegrees>
            </Position>
            <AltitudeMeters>42.799999237060546875</AltitudeMeters>
            <DistanceMeters>NAN</DistanceMeters>
          </Trackpoint>
          <Trackpoint>
            <Time>2022-07-05T13:59:04.000Z</Time>
            <Position>
              <LatitudeDegrees>44.40917666070163249969482421875</LatitudeDegrees>
              <LongitudeDegrees>-1.16004156880080699920654296875</LongitudeDegrees>
            </Position>
            <AltitudeMeters>41.59999847412109375</AltitudeMeters>
            <DistanceMeters>NAN</DistanceMeters>
          </Trackpoint>
          <Trackpoint>
            <Time>2022-07-05T13:59:05.000Z</Time>
            <Position>
              <LatitudeDegrees>44.409176744520664215087890625</LatitudeDegrees>
              <LongitudeDegrees>-1.16004693321883678436279296875</LongitudeDegrees>
            </Position>
            <AltitudeMeters>41.40000152587890625</AltitudeMeters>
            <DistanceMeters>NAN</DistanceMeters>
          </Trackpoint>
          <Trackpoint>
            <Time>2022-07-05T14:00:18.000Z</Time>
            <Position>
              <LatitudeDegrees>44.40916559658944606781005859375</LatitudeDegrees>
              <LongitudeDegrees>-1.159749962389469146728515625</LongitudeDegrees>
            </Position>
            <AltitudeMeters>41.59999847412109375</AltitudeMeters>
            <DistanceMeters>NAN</DistanceMeters>
          </Trackpoint>
          <Trackpoint>
            <Time>2022-07-05T14:00:19.000Z</Time>
            <Position>
              <LatitudeDegrees>44.409020505845546722412109375</LatitudeDegrees>
              <LongitudeDegrees>-1.15982581861317157745361328125</LongitudeDegrees>
            </Position>
            <AltitudeMeters>41.40000152587890625</AltitudeMeters>
            <DistanceMeters>NAN</DistanceMeters>
          </Trackpoint>
          <Trackpoint>
            <Time>2022-07-05T14:00:21.000Z</Time>
            <Position>
              <LatitudeDegrees>44.4089244492352008819580078125</LatitudeDegrees>
              <LongitudeDegrees>-1.15989605896174907684326171875</LongitudeDegrees>
            </Position>
            <AltitudeMeters>41.40000152587890625</AltitudeMeters>
            <DistanceMeters>NAN</DistanceMeters>
          </Trackpoint>
          <Trackpoint>
            <Time>2022-07-05T14:00:22.000Z</Time>
            <Position>
              <LatitudeDegrees>44.40889687277376651763916015625</LatitudeDegrees>
              <LongitudeDegrees>-1.15992254577577114105224609375</LongitudeDegrees>
            </Position>
            <AltitudeMeters>41.59999847412109375</AltitudeMeters>
            <DistanceMeters>NAN</DistanceMeters>
          </Trackpoint>
          <Trackpoint>
            <Time>2022-07-05T14:00:25.000Z</Time>
            <Position>
              <LatitudeDegrees>44.40886418335139751434326171875</LatitudeDegrees>
              <LongitudeDegrees>-1.1599341966211795806884765625</LongitudeDegrees>
            </Position>
            <AltitudeMeters>41.59999847412109375</AltitudeMeters>
            <DistanceMeters>NAN</DistanceMeters>
          </Trackpoint>
          <Trackpoint>
            <Time>2022-07-05T14:00:28.000Z</Time>
            <Position>
              <LatitudeDegrees>44.408935010433197021484375</LatitudeDegrees>
              <LongitudeDegrees>-1.159954480826854705810546875</LongitudeDegrees>
            </Position>
            <AltitudeMeters>41.59999847412109375</AltitudeMeters>
            <DistanceMeters>NAN</DistanceMeters>
          </Trackpoint>
          <Trackpoint>
            <Time>2022-07-05T14:00:29.000Z</Time>
            <Position>
              <LatitudeDegrees>44.40895688720047473907470703125</LatitudeDegrees>
              <LongitudeDegrees>-1.15995489992201328277587890625</LongitudeDegrees>
            </Position>
            <AltitudeMeters>41.40000152587890625</AltitudeMeters>
            <DistanceMeters>NAN</DistanceMeters>
          </Trackpoint>
          <Trackpoint>
            <Time>2022-07-05T14:00:31.000Z</Time>
            <Position>
              <LatitudeDegrees>44.40897532738745212554931640625</LatitudeDegrees>
              <LongitudeDegrees>-1.1599509604275226593017578125</LongitudeDegrees>
            </Position>
            <AltitudeMeters>41</AltitudeMeters>
            <DistanceMeters>NAN</DistanceMeters>
          </Trackpoint>
          <Trackpoint>
            <Time>2022-07-05T14:00:32.000Z</Time>
            <Position>
              <LatitudeDegrees>44.40897650085389614105224609375</LatitudeDegrees>
              <LongitudeDegrees>-1.15994417108595371246337890625</LongitudeDegrees>
            </Position>
            <AltitudeMeters>40.799999237060546875</AltitudeMeters>
            <DistanceMeters>NAN</DistanceMeters>
          </Trackpoint>
          <Trackpoint>
            <Time>2022-07-05T14:00:34.000Z</Time>
            <Position>
              <LatitudeDegrees>44.4089797697961330413818359375</LatitudeDegrees>
              <LongitudeDegrees>-1.159937381744384765625</LongitudeDegrees>
            </Position>
            <AltitudeMeters>40.59999847412109375</AltitudeMeters>
            <DistanceMeters>NAN</DistanceMeters>
          </Trackpoint>
          <Trackpoint>
            <Time>2022-07-05T14:00:50.000Z</Time>
            <Position>
              <LatitudeDegrees>44.40893576480448246002197265625</LatitudeDegrees>
              <LongitudeDegrees>-1.16005799733102321624755859375</LongitudeDegrees>
            </Position>
            <AltitudeMeters>41</AltitudeMeters>
            <DistanceMeters>NAN</DistanceMeters>
          </Trackpoint>
          <Trackpoint>
            <Time>2022-07-05T14:00:51.000Z</Time>
            <Position>
              <LatitudeDegrees>44.40891883336007595062255859375</LatitudeDegrees>
              <LongitudeDegrees>-1.160069145262241363525390625</LongitudeDegrees>
            </Position>
            <AltitudeMeters>41</AltitudeMeters>
            <DistanceMeters>NAN</DistanceMeters>
          </Trackpoint>
          <Trackpoint>
            <Time>2022-07-05T14:00:53.000Z</Time>
            <Position>
              <LatitudeDegrees>44.40889586694538593292236328125</LatitudeDegrees>
              <LongitudeDegrees>-1.160091944038867950439453125</LongitudeDegrees>
            </Position>
            <AltitudeMeters>41</AltitudeMeters>
            <DistanceMeters>NAN</DistanceMeters>
          </Trackpoint>
          <Trackpoint>
            <Time>2022-07-05T14:00:54.000Z</Time>
            <Position>
              <LatitudeDegrees>44.408883042633533477783203125</LatitudeDegrees>
              <LongitudeDegrees>-1.16007710807025432586669921875</LongitudeDegrees>
            </Position>
            <AltitudeMeters>41.200000762939453125</AltitudeMeters>
            <DistanceMeters>NAN</DistanceMeters>
          </Trackpoint>
          <Trackpoint>
            <Time>2022-07-05T14:00:57.000Z</Time>
            <Position>
              <LatitudeDegrees>44.40889871679246425628662109375</LatitudeDegrees>
              <LongitudeDegrees>-1.16005347110331058502197265625</LongitudeDegrees>
            </Position>
            <AltitudeMeters>41.200000762939453125</AltitudeMeters>
            <DistanceMeters>NAN</DistanceMeters>
          </Trackpoint>
          <Trackpoint>
            <Time>2022-07-05T14:00:59.000Z</Time>
            <Position>
              <LatitudeDegrees>44.4089003093540668487548828125</LatitudeDegrees>
              <LongitudeDegrees>-1.1600709892809391021728515625</LongitudeDegrees>
            </Position>
            <AltitudeMeters>41.200000762939453125</AltitudeMeters>
            <DistanceMeters>NAN</DistanceMeters>
          </Trackpoint>
          <Trackpoint>
            <Time>2022-07-05T14:01:02.000Z</Time>
            <Position>
              <LatitudeDegrees>44.40886870957911014556884765625</LatitudeDegrees>
              <LongitudeDegrees>-1.160107366740703582763671875</LongitudeDegrees>
            </Position>
            <AltitudeMeters>40.40000152587890625</AltitudeMeters>
            <DistanceMeters>NAN</DistanceMeters>
          </Trackpoint>
          <Trackpoint>
            <Time>2022-07-05T14:01:05.000Z</Time>
            <Position>
              <LatitudeDegrees>44.4088708050549030303955078125</LatitudeDegrees>
              <LongitudeDegrees>-1.16012069396674633026123046875</LongitudeDegrees>
            </Position>
            <AltitudeMeters>40.200000762939453125</AltitudeMeters>
            <DistanceMeters>NAN</DistanceMeters>
          </Trackpoint>
          <Trackpoint>
            <Time>2022-07-05T14:01:07.000Z</Time>
            <Position>
              <LatitudeDegrees>44.40886728465557098388671875</LatitudeDegrees>
              <LongitudeDegrees>-1.1601323448121547698974609375</LongitudeDegrees>
            </Position>
            <AltitudeMeters>40.200000762939453125</AltitudeMeters>
            <DistanceMeters>NAN</DistanceMeters>
          </Trackpoint>
          <Trackpoint>
            <Time>2022-07-05T14:01:08.000Z</Time>
            <Position>
              <LatitudeDegrees>44.40887541510164737701416015625</LatitudeDegrees>
              <LongitudeDegrees>-1.160130836069583892822265625</LongitudeDegrees>
            </Position>
            <AltitudeMeters>40.200000762939453125</AltitudeMeters>
            <DistanceMeters>NAN</DistanceMeters>
          </Trackpoint>
          <Trackpoint>
            <Time>2022-07-05T14:01:10.000Z</Time>
            <Position>
              <LatitudeDegrees>44.40888077951967716217041015625</LatitudeDegrees>
              <LongitudeDegrees>-1.16011239588260650634765625</LongitudeDegrees>
            </Position>
            <AltitudeMeters>40.200000762939453125</AltitudeMeters>
            <DistanceMeters>NAN</DistanceMeters>
          </Trackpoint>
          <Trackpoint>
            <Time>2022-07-05T14:01:12.000Z</Time>
            <Position>
              <LatitudeDegrees>44.4088865630328655242919921875</LatitudeDegrees>
              <LongitudeDegrees>-1.16010225377976894378662109375</LongitudeDegrees>
            </Position>
            <AltitudeMeters>40.200000762939453125</AltitudeMeters>
            <DistanceMeters>NAN</DistanceMeters>
          </Trackpoint>
          <Trackpoint>
            <Time>2022-07-05T14:01:13.000Z</Time>
            <Position>
              <LatitudeDegrees>44.4088858924806118011474609375</LatitudeDegrees>
              <LongitudeDegrees>-1.16009496152400970458984375</LongitudeDegrees>
            </Position>
            <AltitudeMeters>40</AltitudeMeters>
            <DistanceMeters>NAN</DistanceMeters>
          </Trackpoint>
          <Trackpoint>
            <Time>2022-07-05T14:01:16.000Z</Time>
            <Position>
              <LatitudeDegrees>44.4088748283684253692626953125</LatitudeDegrees>
              <LongitudeDegrees>-1.16010510362684726715087890625</LongitudeDegrees>
            </Position>
            <AltitudeMeters>40.200000762939453125</AltitudeMeters>
            <DistanceMeters>NAN</DistanceMeters>
          </Trackpoint>
          <Trackpoint>
            <Time>2022-07-05T14:01:18.000Z</Time>
            <Position>
              <LatitudeDegrees>44.4088828749954700469970703125</LatitudeDegrees>
              <LongitudeDegrees>-1.16011449135839939117431640625</LongitudeDegrees>
            </Position>
            <AltitudeMeters>40.200000762939453125</AltitudeMeters>
            <DistanceMeters>NAN</DistanceMeters>
          </Trackpoint>
          <Trackpoint>
            <Time>2022-07-05T14:01:22.000Z</Time>
            <Position>
              <LatitudeDegrees>44.40890324302017688751220703125</LatitudeDegrees>
              <LongitudeDegrees>-1.16012773476541042327880859375</LongitudeDegrees>
            </Position>
            <AltitudeMeters>39.799999237060546875</AltitudeMeters>
            <DistanceMeters>NAN</DistanceMeters>
          </Trackpoint>
          <Trackpoint>
            <Time>2022-07-05T14:01:27.000Z</Time>
            <Position>
              <LatitudeDegrees>44.4088882394134998321533203125</LatitudeDegrees>
              <LongitudeDegrees>-1.1601678840816020965576171875</LongitudeDegrees>
            </Position>
            <AltitudeMeters>39.59999847412109375</AltitudeMeters>
            <DistanceMeters>NAN</DistanceMeters>
          </Trackpoint>
          <Trackpoint>
            <Time>2022-07-05T14:01:28.000Z</Time>
            <Position>
              <LatitudeDegrees>44.4088862277567386627197265625</LatitudeDegrees>
              <LongitudeDegrees>-1.1601640284061431884765625</LongitudeDegrees>
            </Position>
            <AltitudeMeters>39.40000152587890625</AltitudeMeters>
            <DistanceMeters>NAN</DistanceMeters>
          </Trackpoint>
          <Trackpoint>
            <Time>2022-07-05T14:01:31.000Z</Time>
            <Position>
              <LatitudeDegrees>44.408874325454235076904296875</LatitudeDegrees>
              <LongitudeDegrees>-1.1601613461971282958984375</LongitudeDegrees>
            </Position>
            <AltitudeMeters>39.40000152587890625</AltitudeMeters>
            <DistanceMeters>NAN</DistanceMeters>
          </Trackpoint>
          <Trackpoint>
            <Time>2022-07-05T14:01:32.000Z</Time>
            <Position>
              <LatitudeDegrees>44.40887340344488620758056640625</LatitudeDegrees>
              <LongitudeDegrees>-1.16015908308327198028564453125</LongitudeDegrees>
            </Position>
            <AltitudeMeters>39.40000152587890625</AltitudeMeters>
            <DistanceMeters>NAN</DistanceMeters>
          </Trackpoint>
          <Trackpoint>
            <Time>2022-07-05T14:01:33.000Z</Time>
            <Position>
              <LatitudeDegrees>44.40888631157577037811279296875</LatitudeDegrees>
              <LongitudeDegrees>-1.1601507849991321563720703125</LongitudeDegrees>
            </Position>
            <AltitudeMeters>39.40000152587890625</AltitudeMeters>
            <DistanceMeters>NAN</DistanceMeters>
          </Trackpoint>
          <Trackpoint>
            <Time>2022-07-05T14:01:35.000Z</Time>
            <Position>
              <LatitudeDegrees>44.40891288220882415771484375</LatitudeDegrees>
              <LongitudeDegrees>-1.1601460911333560943603515625</LongitudeDegrees>
            </Position>
            <AltitudeMeters>39.40000152587890625</AltitudeMeters>
            <DistanceMeters>NAN</DistanceMeters>
          </Trackpoint>
          <Trackpoint>
            <Time>2022-07-05T14:01:36.000Z</Time>
            <Position>
              <LatitudeDegrees>44.408913552761077880859375</LatitudeDegrees>
              <LongitudeDegrees>-1.16013921797275543212890625</LongitudeDegrees>
            </Position>
            <AltitudeMeters>39.40000152587890625</AltitudeMeters>
            <DistanceMeters>NAN</DistanceMeters>
          </Trackpoint>
          <Trackpoint>
            <Time>2022-07-05T14:01:38.000Z</Time>
            <Position>
              <LatitudeDegrees>44.4089026562869548797607421875</LatitudeDegrees>
              <LongitudeDegrees>-1.16010242141783237457275390625</LongitudeDegrees>
            </Position>
            <AltitudeMeters>39.40000152587890625</AltitudeMeters>
            <DistanceMeters>NAN</DistanceMeters>
          </Trackpoint>
          <Trackpoint>
            <Time>2022-07-05T14:01:42.000Z</Time>
            <Position>
              <LatitudeDegrees>44.40891246311366558074951171875</LatitudeDegrees>
              <LongitudeDegrees>-1.16006906144320964813232421875</LongitudeDegrees>
            </Position>
            <AltitudeMeters>39.799999237060546875</AltitudeMeters>
            <DistanceMeters>NAN</DistanceMeters>
          </Trackpoint>
          <Trackpoint>
            <Time>2022-07-05T14:01:43.000Z</Time>
            <Position>
              <LatitudeDegrees>44.40890324302017688751220703125</LatitudeDegrees>
              <LongitudeDegrees>-1.16006009280681610107421875</LongitudeDegrees>
            </Position>
            <AltitudeMeters>39.799999237060546875</AltitudeMeters>
            <DistanceMeters>NAN</DistanceMeters>
          </Trackpoint>
          <Trackpoint>
            <Time>2022-07-05T14:01:45.000Z</Time>
            <Position>
              <LatitudeDegrees>44.40889486111700534820556640625</LatitudeDegrees>
              <LongitudeDegrees>-1.16007124073803424835205078125</LongitudeDegrees>
            </Position>
            <AltitudeMeters>39.799999237060546875</AltitudeMeters>
            <DistanceMeters>NAN</DistanceMeters>
          </Trackpoint>
          <Trackpoint>
            <Time>2022-07-05T14:01:50.000Z</Time>
            <Position>
              <LatitudeDegrees>44.408804588019847869873046875</LatitudeDegrees>
              <LongitudeDegrees>-1.16010108031332492828369140625</LongitudeDegrees>
            </Position>
            <AltitudeMeters>39.40000152587890625</AltitudeMeters>
            <DistanceMeters>NAN</DistanceMeters>
          </Trackpoint>
          <Trackpoint>
            <Time>2022-07-05T14:01:51.000Z</Time>
            <Position>
              <LatitudeDegrees>44.40878086723387241363525390625</LatitudeDegrees>
              <LongitudeDegrees>-1.16010007448494434356689453125</LongitudeDegrees>
            </Position>
            <AltitudeMeters>39.40000152587890625</AltitudeMeters>
            <DistanceMeters>NAN</DistanceMeters>
          </Trackpoint>
          <Trackpoint>
            <Time>2022-07-05T14:01:53.000Z</Time>
            <Position>
              <LatitudeDegrees>44.40877382643520832061767578125</LatitudeDegrees>
              <LongitudeDegrees>-1.16009018383920192718505859375</LongitudeDegrees>
            </Position>
            <AltitudeMeters>39.40000152587890625</AltitudeMeters>
            <DistanceMeters>NAN</DistanceMeters>
          </Trackpoint>
          <Trackpoint>
            <Time>2022-07-05T14:01:54.000Z</Time>
            <Position>
              <LatitudeDegrees>44.40878145396709442138671875</LatitudeDegrees>
              <LongitudeDegrees>-1.160109043121337890625</LongitudeDegrees>
            </Position>
            <AltitudeMeters>39.59999847412109375</AltitudeMeters>
            <DistanceMeters>NAN</DistanceMeters>
          </Trackpoint>
          <Trackpoint>
            <Time>2022-07-05T14:01:55.000Z</Time>
            <Position>
              <LatitudeDegrees>44.40878790803253650665283203125</LatitudeDegrees>
              <LongitudeDegrees>-1.1601320095360279083251953125</LongitudeDegrees>
            </Position>
            <AltitudeMeters>39.59999847412109375</AltitudeMeters>
            <DistanceMeters>NAN</DistanceMeters>
          </Trackpoint>
          <Trackpoint>
            <Time>2022-07-05T14:02:13.000Z</Time>
            <Position>
              <LatitudeDegrees>44.40904238261282444000244140625</LatitudeDegrees>
              <LongitudeDegrees>-1.15999882109463214874267578125</LongitudeDegrees>
            </Position>
            <AltitudeMeters>39.59999847412109375</AltitudeMeters>
            <DistanceMeters>NAN</DistanceMeters>
          </Trackpoint>
          <Trackpoint>
            <Time>2022-07-05T14:02:15.000Z</Time>
            <Position>
              <LatitudeDegrees>44.4090384431183338165283203125</LatitudeDegrees>
              <LongitudeDegrees>-1.15998121909797191619873046875</LongitudeDegrees>
            </Position>
            <AltitudeMeters>39.799999237060546875</AltitudeMeters>
            <DistanceMeters>NAN</DistanceMeters>
          </Trackpoint>
          <Trackpoint>
            <Time>2022-07-05T14:02:17.000Z</Time>
            <Position>
              <LatitudeDegrees>44.40902092494070529937744140625</LatitudeDegrees>
              <LongitudeDegrees>-1.15996755659580230712890625</LongitudeDegrees>
            </Position>
            <AltitudeMeters>40.200000762939453125</AltitudeMeters>
            <DistanceMeters>NAN</DistanceMeters>
          </Trackpoint>
          <Trackpoint>
            <Time>2022-07-05T14:02:51.000Z</Time>
            <Position>
              <LatitudeDegrees>44.40891061909496784210205078125</LatitudeDegrees>
              <LongitudeDegrees>-1.15994584746658802032470703125</LongitudeDegrees>
            </Position>
            <AltitudeMeters>39.200000762939453125</AltitudeMeters>
            <DistanceMeters>NAN</DistanceMeters>
          </Trackpoint>
          <Trackpoint>
            <Time>2022-07-05T14:02:52.000Z</Time>
            <Position>
              <LatitudeDegrees>44.40890491940081119537353515625</LatitudeDegrees>
              <LongitudeDegrees>-1.1599214561283588409423828125</LongitudeDegrees>
            </Position>
            <AltitudeMeters>39.200000762939453125</AltitudeMeters>
            <DistanceMeters>NAN</DistanceMeters>
          </Trackpoint>
          <Trackpoint>
            <Time>2022-07-05T14:02:55.000Z</Time>
            <Position>
              <LatitudeDegrees>44.408942051231861114501953125</LatitudeDegrees>
              <LongitudeDegrees>-1.1598530597984790802001953125</LongitudeDegrees>
            </Position>
            <AltitudeMeters>39</AltitudeMeters>
            <DistanceMeters>NAN</DistanceMeters>
          </Trackpoint>
          <Trackpoint>
            <Time>2022-07-05T14:03:00.000Z</Time>
            <Position>
              <LatitudeDegrees>44.40899225883185863494873046875</LatitudeDegrees>
              <LongitudeDegrees>-1.15988910198211669921875</LongitudeDegrees>
            </Position>
            <AltitudeMeters>39.59999847412109375</AltitudeMeters>
            <DistanceMeters>NAN</DistanceMeters>
          </Trackpoint>
          <Trackpoint>
            <Time>2022-07-05T14:03:04.000Z</Time>
            <Position>
              <LatitudeDegrees>44.40903148613870143890380859375</LatitudeDegrees>
              <LongitudeDegrees>-1.1599412374198436737060546875</LongitudeDegrees>
            </Position>
            <AltitudeMeters>39.799999237060546875</AltitudeMeters>
            <DistanceMeters>NAN</DistanceMeters>
          </Trackpoint>
          <Trackpoint>
            <Time>2022-07-05T14:03:08.000Z</Time>
            <Position>
              <LatitudeDegrees>44.40902863629162311553955078125</LatitudeDegrees>
              <LongitudeDegrees>-1.15993428044021129608154296875</LongitudeDegrees>
            </Position>
            <AltitudeMeters>39.59999847412109375</AltitudeMeters>
            <DistanceMeters>NAN</DistanceMeters>
          </Trackpoint>
          <Trackpoint>
            <Time>2022-07-05T14:03:09.000Z</Time>
            <Position>
              <LatitudeDegrees>44.409018494188785552978515625</LatitudeDegrees>
              <LongitudeDegrees>-1.15992732346057891845703125</LongitudeDegrees>
            </Position>
            <AltitudeMeters>39.59999847412109375</AltitudeMeters>
            <DistanceMeters>NAN</DistanceMeters>
          </Trackpoint>
          <Trackpoint>
            <Time>2022-07-05T14:03:12.000Z</Time>
            <Position>
              <LatitudeDegrees>44.40901287831366062164306640625</LatitudeDegrees>
              <LongitudeDegrees>-1.15992254577577114105224609375</LongitudeDegrees>
            </Position>
            <AltitudeMeters>39.40000152587890625</AltitudeMeters>
            <DistanceMeters>NAN</DistanceMeters>
          </Trackpoint>
          <Trackpoint>
            <Time>2022-07-05T14:03:17.000Z</Time>
            <Position>
              <LatitudeDegrees>44.40897457301616668701171875</LatitudeDegrees>
              <LongitudeDegrees>-1.15991198457777500152587890625</LongitudeDegrees>
            </Position>
            <AltitudeMeters>39.59999847412109375</AltitudeMeters>
            <DistanceMeters>NAN</DistanceMeters>
          </Trackpoint>
          <Trackpoint>
            <Time>2022-07-05T14:03:20.000Z</Time>
            <Position>
              <LatitudeDegrees>44.40897599793970584869384765625</LatitudeDegrees>
              <LongitudeDegrees>-1.1599362082779407501220703125</LongitudeDegrees>
            </Position>
            <AltitudeMeters>39.40000152587890625</AltitudeMeters>
            <DistanceMeters>NAN</DistanceMeters>
          </Trackpoint>
          <Trackpoint>
            <Time>2022-07-05T14:03:23.000Z</Time>
            <Position>
              <LatitudeDegrees>44.40897499211132526397705078125</LatitudeDegrees>
              <LongitudeDegrees>-1.1599481105804443359375</LongitudeDegrees>
            </Position>
            <AltitudeMeters>39.40000152587890625</AltitudeMeters>
            <DistanceMeters>NAN</DistanceMeters>
          </Trackpoint>
          <Trackpoint>
            <Time>2022-07-05T14:03:24.000Z</Time>
            <Position>
              <LatitudeDegrees>44.40897465683519840240478515625</LatitudeDegrees>
              <LongitudeDegrees>-1.1599533073604106903076171875</LongitudeDegrees>
            </Position>
            <AltitudeMeters>39.40000152587890625</AltitudeMeters>
            <DistanceMeters>NAN</DistanceMeters>
          </Trackpoint>
          <Trackpoint>
            <Time>2022-07-05T14:04:01.000Z</Time>
            <Position>
              <LatitudeDegrees>44.40897130407392978668212890625</LatitudeDegrees>
              <LongitudeDegrees>-1.15989790298044681549072265625</LongitudeDegrees>
            </Position>
            <AltitudeMeters>39.40000152587890625</AltitudeMeters>
            <DistanceMeters>NAN</DistanceMeters>
          </Trackpoint>
          <Trackpoint>
            <Time>2022-07-05T14:04:03.000Z</Time>
            <Position>
              <LatitudeDegrees>44.40894347615540027618408203125</LatitudeDegrees>
              <LongitudeDegrees>-1.159916929900646209716796875</LongitudeDegrees>
            </Position>
            <AltitudeMeters>39.200000762939453125</AltitudeMeters>
            <DistanceMeters>NAN</DistanceMeters>
          </Trackpoint>
          <Trackpoint>
            <Time>2022-07-05T14:04:05.000Z</Time>
            <Position>
              <LatitudeDegrees>44.4089438952505588531494140625</LatitudeDegrees>
              <LongitudeDegrees>-1.15995573811233043670654296875</LongitudeDegrees>
            </Position>
            <AltitudeMeters>39</AltitudeMeters>
            <DistanceMeters>NAN</DistanceMeters>
          </Trackpoint>
          <Trackpoint>
            <Time>2022-07-05T14:04:06.000Z</Time>
            <Position>
              <LatitudeDegrees>44.408958815038204193115234375</LatitudeDegrees>
              <LongitudeDegrees>-1.1599757708609104156494140625</LongitudeDegrees>
            </Position>
            <AltitudeMeters>39</AltitudeMeters>
            <DistanceMeters>NAN</DistanceMeters>
          </Trackpoint>
          <Trackpoint>
            <Time>2022-07-05T14:04:09.000Z</Time>
            <Position>
              <LatitudeDegrees>44.4090248644351959228515625</LatitudeDegrees>
              <LongitudeDegrees>-1.1600770242512226104736328125</LongitudeDegrees>
            </Position>
            <AltitudeMeters>39.200000762939453125</AltitudeMeters>
            <DistanceMeters>NAN</DistanceMeters>
          </Trackpoint>
          <Trackpoint>
            <Time>2022-07-05T14:04:11.000Z</Time>
            <Position>
              <LatitudeDegrees>44.40904322080314159393310546875</LatitudeDegrees>
              <LongitudeDegrees>-1.16014382801949977874755859375</LongitudeDegrees>
            </Position>
            <AltitudeMeters>39.200000762939453125</AltitudeMeters>
            <DistanceMeters>NAN</DistanceMeters>
          </Trackpoint>
          <Trackpoint>
            <Time>2022-07-05T14:04:13.000Z</Time>
            <Position>
              <LatitudeDegrees>44.4090880639851093292236328125</LatitudeDegrees>
              <LongitudeDegrees>-1.16016226820647716522216796875</LongitudeDegrees>
            </Position>
            <AltitudeMeters>39.200000762939453125</AltitudeMeters>
            <DistanceMeters>NAN</DistanceMeters>
          </Trackpoint>
          <Trackpoint>
            <Time>2022-07-05T14:04:14.000Z</Time>
            <Position>
              <LatitudeDegrees>44.4091011397540569305419921875</LatitudeDegrees>
              <LongitudeDegrees>-1.16017366759479045867919921875</LongitudeDegrees>
            </Position>
            <AltitudeMeters>39.200000762939453125</AltitudeMeters>
            <DistanceMeters>NAN</DistanceMeters>
          </Trackpoint>
          <Trackpoint>
            <Time>2022-07-05T14:04:15.000Z</Time>
            <Position>
              <LatitudeDegrees>44.4090857170522212982177734375</LatitudeDegrees>
              <LongitudeDegrees>-1.16017140448093414306640625</LongitudeDegrees>
            </Position>
            <AltitudeMeters>39.200000762939453125</AltitudeMeters>
            <DistanceMeters>NAN</DistanceMeters>
          </Trackpoint>
          <Trackpoint>
            <Time>2022-07-05T14:04:18.000Z</Time>
            <Position>
              <LatitudeDegrees>44.4090562127530574798583984375</LatitudeDegrees>
              <LongitudeDegrees>-1.16009236313402652740478515625</LongitudeDegrees>
            </Position>
            <AltitudeMeters>39.200000762939453125</AltitudeMeters>
            <DistanceMeters>NAN</DistanceMeters>
          </Trackpoint>
          <Trackpoint>
            <Time>2022-07-05T14:04:19.000Z</Time>
            <Position>
              <LatitudeDegrees>44.40903768874704837799072265625</LatitudeDegrees>
              <LongitudeDegrees>-1.16009403951466083526611328125</LongitudeDegrees>
            </Position>
            <AltitudeMeters>39</AltitudeMeters>
            <DistanceMeters>NAN</DistanceMeters>
          </Trackpoint>
          <Trackpoint>
            <Time>2022-07-05T14:04:22.000Z</Time>
            <Position>
              <LatitudeDegrees>44.40899242646992206573486328125</LatitudeDegrees>
              <LongitudeDegrees>-1.16009018383920192718505859375</LongitudeDegrees>
            </Position>
            <AltitudeMeters>39</AltitudeMeters>
            <DistanceMeters>NAN</DistanceMeters>
          </Trackpoint>
          <Trackpoint>
            <Time>2022-07-05T14:04:23.000Z</Time>
            <Position>
              <LatitudeDegrees>44.40901924856007099151611328125</LatitudeDegrees>
              <LongitudeDegrees>-1.16009973920881748199462890625</LongitudeDegrees>
            </Position>
            <AltitudeMeters>39.200000762939453125</AltitudeMeters>
            <DistanceMeters>NAN</DistanceMeters>
          </Trackpoint>
          <Trackpoint>
            <Time>2022-07-05T14:04:25.000Z</Time>
            <Position>
              <LatitudeDegrees>44.409000389277935028076171875</LatitudeDegrees>
              <LongitudeDegrees>-1.16004408337175846099853515625</LongitudeDegrees>
            </Position>
            <AltitudeMeters>39.40000152587890625</AltitudeMeters>
            <DistanceMeters>NAN</DistanceMeters>
          </Trackpoint>
          <Trackpoint>
            <Time>2022-07-05T14:04:26.000Z</Time>
            <Position>
              <LatitudeDegrees>44.40899343229830265045166015625</LatitudeDegrees>
              <LongitudeDegrees>-1.16001910530030727386474609375</LongitudeDegrees>
            </Position>
            <AltitudeMeters>39.40000152587890625</AltitudeMeters>
            <DistanceMeters>NAN</DistanceMeters>
          </Trackpoint>
          <Trackpoint>
            <Time>2022-07-05T14:04:27.000Z</Time>
            <Position>
              <LatitudeDegrees>44.40900902263820171356201171875</LatitudeDegrees>
              <LongitudeDegrees>-1.160010136663913726806640625</LongitudeDegrees>
            </Position>
            <AltitudeMeters>39.40000152587890625</AltitudeMeters>
            <DistanceMeters>NAN</DistanceMeters>
          </Trackpoint>
          <Trackpoint>
            <Time>2022-07-05T14:04:28.000Z</Time>
            <Position>
              <LatitudeDegrees>44.4090434722602367401123046875</LatitudeDegrees>
              <LongitudeDegrees>-1.1600012518465518951416015625</LongitudeDegrees>
            </Position>
            <AltitudeMeters>39.59999847412109375</AltitudeMeters>
            <DistanceMeters>NAN</DistanceMeters>
          </Trackpoint>
          <Trackpoint>
            <Time>2022-07-05T14:04:33.000Z</Time>
            <Position>
              <LatitudeDegrees>44.4090731441974639892578125</LatitudeDegrees>
              <LongitudeDegrees>-1.15991793572902679443359375</LongitudeDegrees>
            </Position>
            <AltitudeMeters>39.200000762939453125</AltitudeMeters>
            <DistanceMeters>NAN</DistanceMeters>
          </Trackpoint>
          <Trackpoint>
            <Time>2022-07-05T14:04:35.000Z</Time>
            <Position>
              <LatitudeDegrees>44.409079849720001220703125</LatitudeDegrees>
              <LongitudeDegrees>-1.15993000566959381103515625</LongitudeDegrees>
            </Position>
            <AltitudeMeters>39.200000762939453125</AltitudeMeters>
            <DistanceMeters>NAN</DistanceMeters>
          </Trackpoint>
          <Trackpoint>
            <Time>2022-07-05T14:04:37.000Z</Time>
            <Position>
              <LatitudeDegrees>44.40907381474971771240234375</LatitudeDegrees>
              <LongitudeDegrees>-1.159913241863250732421875</LongitudeDegrees>
            </Position>
            <AltitudeMeters>39.40000152587890625</AltitudeMeters>
            <DistanceMeters>NAN</DistanceMeters>
          </Trackpoint>
          <Trackpoint>
            <Time>2022-07-05T14:04:43.000Z</Time>
            <Position>
              <LatitudeDegrees>44.40904841758310794830322265625</LatitudeDegrees>
              <LongitudeDegrees>-1.15992438979446887969970703125</LongitudeDegrees>
            </Position>
            <AltitudeMeters>39.59999847412109375</AltitudeMeters>
            <DistanceMeters>NAN</DistanceMeters>
          </Trackpoint>
          <Trackpoint>
            <Time>2022-07-05T14:04:46.000Z</Time>
            <Position>
              <LatitudeDegrees>44.4090141355991363525390625</LatitudeDegrees>
              <LongitudeDegrees>-1.1599388904869556427001953125</LongitudeDegrees>
            </Position>
            <AltitudeMeters>39.200000762939453125</AltitudeMeters>
            <DistanceMeters>NAN</DistanceMeters>
          </Trackpoint>
          <Trackpoint>
            <Time>2022-07-05T14:04:47.000Z</Time>
            <Position>
              <LatitudeDegrees>44.4090141355991363525390625</LatitudeDegrees>
              <LongitudeDegrees>-1.1599388904869556427001953125</LongitudeDegrees>
            </Position>
            <AltitudeMeters>39.200000762939453125</AltitudeMeters>
            <DistanceMeters>NAN</DistanceMeters>
          </Trackpoint>
          <Trackpoint>
            <Time>2022-07-05T14:04:54.000Z</Time>
            <Position>
              <LatitudeDegrees>44.409013129770755767822265625</LatitudeDegrees>
              <LongitudeDegrees>-1.1599368788301944732666015625</LongitudeDegrees>
            </Position>
            <AltitudeMeters>39.40000152587890625</AltitudeMeters>
            <DistanceMeters>NAN</DistanceMeters>
          </Trackpoint>
          <Trackpoint>
            <Time>2022-07-05T14:04:55.000Z</Time>
            <Position>
              <LatitudeDegrees>44.4090114533901214599609375</LatitudeDegrees>
              <LongitudeDegrees>-1.159941740334033966064453125</LongitudeDegrees>
            </Position>
            <AltitudeMeters>39.40000152587890625</AltitudeMeters>
            <DistanceMeters>NAN</DistanceMeters>
          </Trackpoint>
          <Trackpoint>
            <Time>2022-07-05T14:04:57.000Z</Time>
            <Position>
              <LatitudeDegrees>44.4090240262448787689208984375</LatitudeDegrees>
              <LongitudeDegrees>-1.15997954271733760833740234375</LongitudeDegrees>
            </Position>
            <AltitudeMeters>39.40000152587890625</AltitudeMeters>
            <DistanceMeters>NAN</DistanceMeters>
          </Trackpoint>
          <Trackpoint>
            <Time>2022-07-05T14:04:58.000Z</Time>
            <Position>
              <LatitudeDegrees>44.4090250320732593536376953125</LatitudeDegrees>
              <LongitudeDegrees>-1.1599989049136638641357421875</LongitudeDegrees>
            </Position>
            <AltitudeMeters>39.200000762939453125</AltitudeMeters>
            <DistanceMeters>NAN</DistanceMeters>
          </Trackpoint>
          <Trackpoint>
            <Time>2022-07-05T14:05:01.000Z</Time>
            <Position>
              <LatitudeDegrees>44.40903232432901859283447265625</LatitudeDegrees>
              <LongitudeDegrees>-1.16001239977777004241943359375</LongitudeDegrees>
            </Position>
            <AltitudeMeters>39.200000762939453125</AltitudeMeters>
            <DistanceMeters>NAN</DistanceMeters>
          </Trackpoint>
          <Trackpoint>
            <Time>2022-07-05T14:05:03.000Z</Time>
            <Position>
              <LatitudeDegrees>44.40903400070965290069580078125</LatitudeDegrees>
              <LongitudeDegrees>-1.1600146628916263580322265625</LongitudeDegrees>
            </Position>
            <AltitudeMeters>39.200000762939453125</AltitudeMeters>
            <DistanceMeters>NAN</DistanceMeters>
          </Trackpoint>
          <Trackpoint>
            <Time>2022-07-05T14:05:14.000Z</Time>
            <Position>
              <LatitudeDegrees>44.40909300930798053741455078125</LatitudeDegrees>
              <LongitudeDegrees>-1.159997396171092987060546875</LongitudeDegrees>
            </Position>
            <AltitudeMeters>39</AltitudeMeters>
            <DistanceMeters>NAN</DistanceMeters>
          </Trackpoint>
          <Trackpoint>
            <Time>2022-07-05T14:05:15.000Z</Time>
            <Position>
              <LatitudeDegrees>44.40908856689929962158203125</LatitudeDegrees>
              <LongitudeDegrees>-1.1599878408014774322509765625</LongitudeDegrees>
            </Position>
            <AltitudeMeters>39</AltitudeMeters>
            <DistanceMeters>NAN</DistanceMeters>
          </Trackpoint>
          <Trackpoint>
            <Time>2022-07-05T14:05:20.000Z</Time>
            <Position>
              <LatitudeDegrees>44.4090578891336917877197265625</LatitudeDegrees>
              <LongitudeDegrees>-1.15996344946324825286865234375</LongitudeDegrees>
            </Position>
            <AltitudeMeters>39</AltitudeMeters>
            <DistanceMeters>NAN</DistanceMeters>
          </Trackpoint>
          <Trackpoint>
            <Time>2022-07-05T14:05:22.000Z</Time>
            <Position>
              <LatitudeDegrees>44.40906845033168792724609375</LatitudeDegrees>
              <LongitudeDegrees>-1.15997694432735443115234375</LongitudeDegrees>
            </Position>
            <AltitudeMeters>38.799999237060546875</AltitudeMeters>
            <DistanceMeters>NAN</DistanceMeters>
          </Trackpoint>
          <Trackpoint>
            <Time>2022-07-05T14:05:23.000Z</Time>
            <Position>
              <LatitudeDegrees>44.40906845033168792724609375</LatitudeDegrees>
              <LongitudeDegrees>-1.15999094210565090179443359375</LongitudeDegrees>
            </Position>
            <AltitudeMeters>38.799999237060546875</AltitudeMeters>
            <DistanceMeters>NAN</DistanceMeters>
          </Trackpoint>
          <Trackpoint>
            <Time>2022-07-05T14:05:26.000Z</Time>
            <Position>
              <LatitudeDegrees>44.4090793468058109283447265625</LatitudeDegrees>
              <LongitudeDegrees>-1.160000748932361602783203125</LongitudeDegrees>
            </Position>
            <AltitudeMeters>39</AltitudeMeters>
            <DistanceMeters>NAN</DistanceMeters>
          </Trackpoint>
          <Trackpoint>
            <Time>2022-07-05T14:05:27.000Z</Time>
            <Position>
              <LatitudeDegrees>44.409066103398799896240234375</LatitudeDegrees>
              <LongitudeDegrees>-1.16000116802752017974853515625</LongitudeDegrees>
            </Position>
            <AltitudeMeters>39</AltitudeMeters>
            <DistanceMeters>NAN</DistanceMeters>
          </Trackpoint>
          <Trackpoint>
            <Time>2022-07-05T14:05:30.000Z</Time>
            <Position>
              <LatitudeDegrees>44.4090635888278484344482421875</LatitudeDegrees>
              <LongitudeDegrees>-1.1599794588983058929443359375</LongitudeDegrees>
            </Position>
            <AltitudeMeters>39.200000762939453125</AltitudeMeters>
            <DistanceMeters>NAN</DistanceMeters>
          </Trackpoint>
          <Trackpoint>
            <Time>2022-07-05T14:05:35.000Z</Time>
            <Position>
              <LatitudeDegrees>44.40905009396374225616455078125</LatitudeDegrees>
              <LongitudeDegrees>-1.1599694006145000457763671875</LongitudeDegrees>
            </Position>
            <AltitudeMeters>39.59999847412109375</AltitudeMeters>
            <DistanceMeters>NAN</DistanceMeters>
          </Trackpoint>
          <Trackpoint>
            <Time>2022-07-05T14:05:39.000Z</Time>
            <Position>
              <LatitudeDegrees>44.40905076451599597930908203125</LatitudeDegrees>
              <LongitudeDegrees>-1.159956492483615875244140625</LongitudeDegrees>
            </Position>
            <AltitudeMeters>39.40000152587890625</AltitudeMeters>
            <DistanceMeters>NAN</DistanceMeters>
          </Trackpoint>
          <Trackpoint>
            <Time>2022-07-05T14:06:53.000Z</Time>
            <Position>
              <LatitudeDegrees>44.40908412449061870574951171875</LatitudeDegrees>
              <LongitudeDegrees>-1.15980888716876506805419921875</LongitudeDegrees>
            </Position>
            <AltitudeMeters>38.799999237060546875</AltitudeMeters>
            <DistanceMeters>NAN</DistanceMeters>
          </Trackpoint>
          <Trackpoint>
            <Time>2022-07-05T14:06:54.000Z</Time>
            <Position>
              <LatitudeDegrees>44.40909166820347309112548828125</LatitudeDegrees>
              <LongitudeDegrees>-1.15980201400816440582275390625</LongitudeDegrees>
            </Position>
            <AltitudeMeters>38.799999237060546875</AltitudeMeters>
            <DistanceMeters>NAN</DistanceMeters>
          </Trackpoint>
          <Trackpoint>
            <Time>2022-07-05T14:06:55.000Z</Time>
            <Position>
              <LatitudeDegrees>44.4090914167463779449462890625</LatitudeDegrees>
              <LongitudeDegrees>-1.15980184637010097503662109375</LongitudeDegrees>
            </Position>
            <AltitudeMeters>38.799999237060546875</AltitudeMeters>
            <DistanceMeters>NAN</DistanceMeters>
          </Trackpoint>
          <Trackpoint>
            <Time>2022-07-05T14:06:58.000Z</Time>
            <Position>
              <LatitudeDegrees>44.40909083001315593719482421875</LatitudeDegrees>
              <LongitudeDegrees>-1.15978944115340709686279296875</LongitudeDegrees>
            </Position>
            <AltitudeMeters>38.799999237060546875</AltitudeMeters>
            <DistanceMeters>NAN</DistanceMeters>
          </Trackpoint>
          <Trackpoint>
            <Time>2022-07-05T14:07:01.000Z</Time>
            <Position>
              <LatitudeDegrees>44.409079514443874359130859375</LatitudeDegrees>
              <LongitudeDegrees>-1.159784160554409027099609375</LongitudeDegrees>
            </Position>
            <AltitudeMeters>38.799999237060546875</AltitudeMeters>
            <DistanceMeters>NAN</DistanceMeters>
          </Trackpoint>
          <Trackpoint>
            <Time>2022-07-05T14:07:15.000Z</Time>
            <Position>
              <LatitudeDegrees>44.4091219268739223480224609375</LatitudeDegrees>
              <LongitudeDegrees>-1.16013209335505962371826171875</LongitudeDegrees>
            </Position>
            <AltitudeMeters>39.40000152587890625</AltitudeMeters>
            <DistanceMeters>NAN</DistanceMeters>
          </Trackpoint>
          <Trackpoint>
            <Time>2022-07-05T14:07:16.000Z</Time>
            <Position>
              <LatitudeDegrees>44.40911446698009967803955078125</LatitudeDegrees>
              <LongitudeDegrees>-1.16015170700848102569580078125</LongitudeDegrees>
            </Position>
            <AltitudeMeters>39.40000152587890625</AltitudeMeters>
            <DistanceMeters>NAN</DistanceMeters>
          </Trackpoint>
          <Trackpoint>
            <Time>2022-07-05T14:07:21.000Z</Time>
            <Position>
              <LatitudeDegrees>44.409015811979770660400390625</LatitudeDegrees>
              <LongitudeDegrees>-1.16028095595538616180419921875</LongitudeDegrees>
            </Position>
            <AltitudeMeters>39.200000762939453125</AltitudeMeters>
            <DistanceMeters>NAN</DistanceMeters>
          </Trackpoint>
          <Trackpoint>
            <Time>2022-07-05T14:07:26.000Z</Time>
            <Position>
              <LatitudeDegrees>44.40887541510164737701416015625</LatitudeDegrees>
              <LongitudeDegrees>-1.16036360152065753936767578125</LongitudeDegrees>
            </Position>
            <AltitudeMeters>39</AltitudeMeters>
            <DistanceMeters>NAN</DistanceMeters>
          </Trackpoint>
          <Trackpoint>
            <Time>2022-07-05T14:07:29.000Z</Time>
            <Position>
              <LatitudeDegrees>44.40877684392035007476806640625</LatitudeDegrees>
              <LongitudeDegrees>-1.16040886379778385162353515625</LongitudeDegrees>
            </Position>
            <AltitudeMeters>39</AltitudeMeters>
            <DistanceMeters>NAN</DistanceMeters>
          </Trackpoint>
          <Trackpoint>
            <Time>2022-07-05T14:07:36.000Z</Time>
            <Position>
              <LatitudeDegrees>44.4085898436605930328369140625</LatitudeDegrees>
              <LongitudeDegrees>-1.16060533560812473297119140625</LongitudeDegrees>
            </Position>
            <AltitudeMeters>39.40000152587890625</AltitudeMeters>
            <DistanceMeters>NAN</DistanceMeters>
          </Trackpoint>
          <Trackpoint>
            <Time>2022-07-05T14:07:43.000Z</Time>
            <Position>
              <LatitudeDegrees>44.40845598466694355010986328125</LatitudeDegrees>
              <LongitudeDegrees>-1.16085595451295375823974609375</LongitudeDegrees>
            </Position>
            <AltitudeMeters>39.40000152587890625</AltitudeMeters>
            <DistanceMeters>NAN</DistanceMeters>
          </Trackpoint>
          <Trackpoint>
            <Time>2022-07-05T14:07:45.000Z</Time>
            <Position>
              <LatitudeDegrees>44.408424384891986846923828125</LatitudeDegrees>
              <LongitudeDegrees>-1.16090272553265094757080078125</LongitudeDegrees>
            </Position>
            <AltitudeMeters>39.40000152587890625</AltitudeMeters>
            <DistanceMeters>NAN</DistanceMeters>
          </Trackpoint>
          <Trackpoint>
            <Time>2022-07-05T14:07:47.000Z</Time>
            <Position>
              <LatitudeDegrees>44.40840854309499263763427734375</LatitudeDegrees>
              <LongitudeDegrees>-1.16094346158206462860107421875</LongitudeDegrees>
            </Position>
            <AltitudeMeters>39.40000152587890625</AltitudeMeters>
            <DistanceMeters>NAN</DistanceMeters>
          </Trackpoint>
          <Trackpoint>
            <Time>2022-07-05T14:07:49.000Z</Time>
            <Position>
              <LatitudeDegrees>44.40841809846460819244384765625</LatitudeDegrees>
              <LongitudeDegrees>-1.16099157370626926422119140625</LongitudeDegrees>
            </Position>
            <AltitudeMeters>39.40000152587890625</AltitudeMeters>
            <DistanceMeters>NAN</DistanceMeters>
          </Trackpoint>
          <Trackpoint>
            <Time>2022-07-05T14:07:50.000Z</Time>
            <Position>
              <LatitudeDegrees>44.40843402408063411712646484375</LatitudeDegrees>
              <LongitudeDegrees>-1.16101604886353015899658203125</LongitudeDegrees>
            </Position>
            <AltitudeMeters>39.40000152587890625</AltitudeMeters>
            <DistanceMeters>NAN</DistanceMeters>
          </Trackpoint>
          <Trackpoint>
            <Time>2022-07-05T14:07:53.000Z</Time>
            <Position>
              <LatitudeDegrees>44.408519603312015533447265625</LatitudeDegrees>
              <LongitudeDegrees>-1.16108712740242481231689453125</LongitudeDegrees>
            </Position>
            <AltitudeMeters>39.40000152587890625</AltitudeMeters>
            <DistanceMeters>NAN</DistanceMeters>
          </Trackpoint>
          <Trackpoint>
            <Time>2022-07-05T14:08:02.000Z</Time>
            <Position>
              <LatitudeDegrees>44.408785142004489898681640625</LatitudeDegrees>
              <LongitudeDegrees>-1.16134076379239559173583984375</LongitudeDegrees>
            </Position>
            <AltitudeMeters>39</AltitudeMeters>
            <DistanceMeters>NAN</DistanceMeters>
          </Trackpoint>
          <Trackpoint>
            <Time>2022-07-05T14:08:08.000Z</Time>
            <Position>
              <LatitudeDegrees>44.40893006511032581329345703125</LatitudeDegrees>
              <LongitudeDegrees>-1.1615110002458095550537109375</LongitudeDegrees>
            </Position>
            <AltitudeMeters>38.799999237060546875</AltitudeMeters>
            <DistanceMeters>NAN</DistanceMeters>
          </Trackpoint>
          <Trackpoint>
            <Time>2022-07-05T14:08:12.000Z</Time>
            <Position>
              <LatitudeDegrees>44.40885387361049652099609375</LatitudeDegrees>
              <LongitudeDegrees>-1.16165961138904094696044921875</LongitudeDegrees>
            </Position>
            <AltitudeMeters>38.40000152587890625</AltitudeMeters>
            <DistanceMeters>NAN</DistanceMeters>
          </Trackpoint>
          <Trackpoint>
            <Time>2022-07-05T14:08:19.000Z</Time>
            <Position>
              <LatitudeDegrees>44.40865798853337764739990234375</LatitudeDegrees>
              <LongitudeDegrees>-1.16187997162342071533203125</LongitudeDegrees>
            </Position>
            <AltitudeMeters>38</AltitudeMeters>
            <DistanceMeters>NAN</DistanceMeters>
          </Trackpoint>
          <Trackpoint>
            <Time>2022-07-05T14:08:26.000Z</Time>
            <Position>
              <LatitudeDegrees>44.40845958888530731201171875</LatitudeDegrees>
              <LongitudeDegrees>-1.16216671653091907501220703125</LongitudeDegrees>
            </Position>
            <AltitudeMeters>38.40000152587890625</AltitudeMeters>
            <DistanceMeters>NAN</DistanceMeters>
          </Trackpoint>
          <Trackpoint>
            <Time>2022-07-05T14:08:28.000Z</Time>
            <Position>
              <LatitudeDegrees>44.4084067828953266143798828125</LatitudeDegrees>
              <LongitudeDegrees>-1.1622693948447704315185546875</LongitudeDegrees>
            </Position>
            <AltitudeMeters>38.59999847412109375</AltitudeMeters>
            <DistanceMeters>NAN</DistanceMeters>
          </Trackpoint>
          <Trackpoint>
            <Time>2022-07-05T14:08:30.000Z</Time>
            <Position>
              <LatitudeDegrees>44.40837241709232330322265625</LatitudeDegrees>
              <LongitudeDegrees>-1.162387914955615997314453125</LongitudeDegrees>
            </Position>
            <AltitudeMeters>38.59999847412109375</AltitudeMeters>
            <DistanceMeters>NAN</DistanceMeters>
          </Trackpoint>
          <Trackpoint>
            <Time>2022-07-05T14:08:34.000Z</Time>
            <Position>
              <LatitudeDegrees>44.408331178128719329833984375</LatitudeDegrees>
              <LongitudeDegrees>-1.16264306008815765380859375</LongitudeDegrees>
            </Position>
            <AltitudeMeters>38.40000152587890625</AltitudeMeters>
            <DistanceMeters>NAN</DistanceMeters>
          </Trackpoint>
          <Trackpoint>
            <Time>2022-07-05T14:08:38.000Z</Time>
            <Position>
              <LatitudeDegrees>44.4082914479076862335205078125</LatitudeDegrees>
              <LongitudeDegrees>-1.162884123623371124267578125</LongitudeDegrees>
            </Position>
            <AltitudeMeters>37.799999237060546875</AltitudeMeters>
            <DistanceMeters>NAN</DistanceMeters>
          </Trackpoint>
          <Trackpoint>
            <Time>2022-07-05T14:08:44.000Z</Time>
            <Position>
              <LatitudeDegrees>44.4082113169133663177490234375</LatitudeDegrees>
              <LongitudeDegrees>-1.163226775825023651123046875</LongitudeDegrees>
            </Position>
            <AltitudeMeters>37.59999847412109375</AltitudeMeters>
            <DistanceMeters>NAN</DistanceMeters>
          </Trackpoint>
          <Trackpoint>
            <Time>2022-07-05T14:08:46.000Z</Time>
            <Position>
              <LatitudeDegrees>44.4081757776439189910888671875</LatitudeDegrees>
              <LongitudeDegrees>-1.1633171327412128448486328125</LongitudeDegrees>
            </Position>
            <AltitudeMeters>37.59999847412109375</AltitudeMeters>
            <DistanceMeters>NAN</DistanceMeters>
          </Trackpoint>
          <Trackpoint>
            <Time>2022-07-05T14:08:48.000Z</Time>
            <Position>
              <LatitudeDegrees>44.40812221728265285491943359375</LatitudeDegrees>
              <LongitudeDegrees>-1.1633939109742641448974609375</LongitudeDegrees>
            </Position>
            <AltitudeMeters>37.40000152587890625</AltitudeMeters>
            <DistanceMeters>NAN</DistanceMeters>
          </Trackpoint>
          <Trackpoint>
            <Time>2022-07-05T14:08:49.000Z</Time>
            <Position>
              <LatitudeDegrees>44.40808919258415699005126953125</LatitudeDegrees>
              <LongitudeDegrees>-1.16342718712985515594482421875</LongitudeDegrees>
            </Position>
            <AltitudeMeters>37.40000152587890625</AltitudeMeters>
            <DistanceMeters>NAN</DistanceMeters>
          </Trackpoint>
          <Trackpoint>
            <Time>2022-07-05T14:08:51.000Z</Time>
            <Position>
              <LatitudeDegrees>44.40801459364593029022216796875</LatitudeDegrees>
              <LongitudeDegrees>-1.16348301060497760772705078125</LongitudeDegrees>
            </Position>
            <AltitudeMeters>37.200000762939453125</AltitudeMeters>
            <DistanceMeters>NAN</DistanceMeters>
          </Trackpoint>
          <Trackpoint>
            <Time>2022-07-05T14:08:56.000Z</Time>
            <Position>
              <LatitudeDegrees>44.40779364667832851409912109375</LatitudeDegrees>
              <LongitudeDegrees>-1.16358744911849498748779296875</LongitudeDegrees>
            </Position>
            <AltitudeMeters>37</AltitudeMeters>
            <DistanceMeters>NAN</DistanceMeters>
          </Trackpoint>
          <Trackpoint>
            <Time>2022-07-05T14:09:03.000Z</Time>
            <Position>
              <LatitudeDegrees>44.4074740447103977203369140625</LatitudeDegrees>
              <LongitudeDegrees>-1.1637402512133121490478515625</LongitudeDegrees>
            </Position>
            <AltitudeMeters>37.200000762939453125</AltitudeMeters>
            <DistanceMeters>NAN</DistanceMeters>
          </Trackpoint>
          <Trackpoint>
            <Time>2022-07-05T14:09:08.000Z</Time>
            <Position>
              <LatitudeDegrees>44.40724991261959075927734375</LatitudeDegrees>
              <LongitudeDegrees>-1.1638327874243259429931640625</LongitudeDegrees>
            </Position>
            <AltitudeMeters>36.799999237060546875</AltitudeMeters>
            <DistanceMeters>NAN</DistanceMeters>
          </Trackpoint>
          <Trackpoint>
            <Time>2022-07-05T14:09:09.000Z</Time>
            <Position>
              <LatitudeDegrees>44.40720221959054470062255859375</LatitudeDegrees>
              <LongitudeDegrees>-1.16385868750512599945068359375</LongitudeDegrees>
            </Position>
            <AltitudeMeters>36.59999847412109375</AltitudeMeters>
            <DistanceMeters>NAN</DistanceMeters>
          </Trackpoint>
          <Trackpoint>
            <Time>2022-07-05T14:09:11.000Z</Time>
            <Position>
              <LatitudeDegrees>44.40712678246200084686279296875</LatitudeDegrees>
              <LongitudeDegrees>-1.163893640041351318359375</LongitudeDegrees>
            </Position>
            <AltitudeMeters>36.40000152587890625</AltitudeMeters>
            <DistanceMeters>NAN</DistanceMeters>
          </Trackpoint>
          <Trackpoint>
            <Time>2022-07-05T14:09:14.000Z</Time>
            <Position>
              <LatitudeDegrees>44.40700717270374298095703125</LatitudeDegrees>
              <LongitudeDegrees>-1.16395910270512104034423828125</LongitudeDegrees>
            </Position>
            <AltitudeMeters>36.40000152587890625</AltitudeMeters>
            <DistanceMeters>NAN</DistanceMeters>
          </Trackpoint>
          <Trackpoint>
            <Time>2022-07-05T14:09:19.000Z</Time>
            <Position>
              <LatitudeDegrees>44.4067803584039211273193359375</LatitudeDegrees>
              <LongitudeDegrees>-1.1641036905348300933837890625</LongitudeDegrees>
            </Position>
            <AltitudeMeters>36.59999847412109375</AltitudeMeters>
            <DistanceMeters>NAN</DistanceMeters>
          </Trackpoint>
          <Trackpoint>
            <Time>2022-07-05T14:09:28.000Z</Time>
            <Position>
              <LatitudeDegrees>44.40639873035252094268798828125</LatitudeDegrees>
              <LongitudeDegrees>-1.16438448429107666015625</LongitudeDegrees>
            </Position>
            <AltitudeMeters>36.799999237060546875</AltitudeMeters>
            <DistanceMeters>NAN</DistanceMeters>
          </Trackpoint>
          <Trackpoint>
            <Time>2022-07-05T14:09:36.000Z</Time>
            <Position>
              <LatitudeDegrees>44.4060806371271610260009765625</LatitudeDegrees>
              <LongitudeDegrees>-1.1646706424653530120849609375</LongitudeDegrees>
            </Position>
            <AltitudeMeters>36.799999237060546875</AltitudeMeters>
            <DistanceMeters>NAN</DistanceMeters>
          </Trackpoint>
          <Trackpoint>
            <Time>2022-07-05T14:09:39.000Z</Time>
            <Position>
              <LatitudeDegrees>44.4059740193188190460205078125</LatitudeDegrees>
              <LongitudeDegrees>-1.1647967062890529632568359375</LongitudeDegrees>
            </Position>
            <AltitudeMeters>36.40000152587890625</AltitudeMeters>
            <DistanceMeters>NAN</DistanceMeters>
          </Trackpoint>
          <Trackpoint>
            <Time>2022-07-05T14:09:44.000Z</Time>
            <Position>
              <LatitudeDegrees>44.40582021139562129974365234375</LatitudeDegrees>
              <LongitudeDegrees>-1.165016479790210723876953125</LongitudeDegrees>
            </Position>
            <AltitudeMeters>36.40000152587890625</AltitudeMeters>
            <DistanceMeters>NAN</DistanceMeters>
          </Trackpoint>
          <Trackpoint>
            <Time>2022-07-05T14:09:46.000Z</Time>
            <Position>
              <LatitudeDegrees>44.4057651422917842864990234375</LatitudeDegrees>
              <LongitudeDegrees>-1.1651115305721759796142578125</LongitudeDegrees>
            </Position>
            <AltitudeMeters>36.59999847412109375</AltitudeMeters>
            <DistanceMeters>NAN</DistanceMeters>
          </Trackpoint>
          <Trackpoint>
            <Time>2022-07-05T14:09:51.000Z</Time>
            <Position>
              <LatitudeDegrees>44.405637569725513458251953125</LatitudeDegrees>
              <LongitudeDegrees>-1.16533658467233180999755859375</LongitudeDegrees>
            </Position>
            <AltitudeMeters>36.200000762939453125</AltitudeMeters>
            <DistanceMeters>NAN</DistanceMeters>
          </Trackpoint>
          <Trackpoint>
            <Time>2022-07-05T14:09:52.000Z</Time>
            <Position>
              <LatitudeDegrees>44.40560881979763507843017578125</LatitudeDegrees>
              <LongitudeDegrees>-1.165370531380176544189453125</LongitudeDegrees>
            </Position>
            <AltitudeMeters>36</AltitudeMeters>
            <DistanceMeters>NAN</DistanceMeters>
          </Trackpoint>
          <Trackpoint>
            <Time>2022-07-05T14:09:53.000Z</Time>
            <Position>
              <LatitudeDegrees>44.405577890574932098388671875</LatitudeDegrees>
              <LongitudeDegrees>-1.16539408452808856964111328125</LongitudeDegrees>
            </Position>
            <AltitudeMeters>35.59999847412109375</AltitudeMeters>
            <DistanceMeters>NAN</DistanceMeters>
          </Trackpoint>
          <Trackpoint>
            <Time>2022-07-05T14:09:55.000Z</Time>
            <Position>
              <LatitudeDegrees>44.40552097745239734649658203125</LatitudeDegrees>
              <LongitudeDegrees>-1.16540648974478244781494140625</LongitudeDegrees>
            </Position>
            <AltitudeMeters>35.40000152587890625</AltitudeMeters>
            <DistanceMeters>NAN</DistanceMeters>
          </Trackpoint>
          <Trackpoint>
            <Time>2022-07-05T14:09:56.000Z</Time>
            <Position>
              <LatitudeDegrees>44.4054977595806121826171875</LatitudeDegrees>
              <LongitudeDegrees>-1.16540011949837207794189453125</LongitudeDegrees>
            </Position>
            <AltitudeMeters>35.200000762939453125</AltitudeMeters>
            <DistanceMeters>NAN</DistanceMeters>
          </Trackpoint>
          <Trackpoint>
            <Time>2022-07-05T14:10:00.000Z</Time>
            <Position>
              <LatitudeDegrees>44.40544973127543926239013671875</LatitudeDegrees>
              <LongitudeDegrees>-1.16534404456615447998046875</LongitudeDegrees>
            </Position>
            <AltitudeMeters>35.200000762939453125</AltitudeMeters>
            <DistanceMeters>NAN</DistanceMeters>
          </Trackpoint>
          <Trackpoint>
            <Time>2022-07-05T14:10:01.000Z</Time>
            <Position>
              <LatitudeDegrees>44.40544051118195056915283203125</LatitudeDegrees>
              <LongitudeDegrees>-1.1653448827564716339111328125</LongitudeDegrees>
            </Position>
            <AltitudeMeters>35.200000762939453125</AltitudeMeters>
            <DistanceMeters>NAN</DistanceMeters>
          </Trackpoint>
          <Trackpoint>
            <Time>2022-07-05T14:10:04.000Z</Time>
            <Position>
              <LatitudeDegrees>44.4054355658590793609619140625</LatitudeDegrees>
              <LongitudeDegrees>-1.1653495766222476959228515625</LongitudeDegrees>
            </Position>
            <AltitudeMeters>35.40000152587890625</AltitudeMeters>
            <DistanceMeters>NAN</DistanceMeters>
          </Trackpoint>
          <Trackpoint>
            <Time>2022-07-05T14:10:18.000Z</Time>
            <Position>
              <LatitudeDegrees>44.405439756810665130615234375</LatitudeDegrees>
              <LongitudeDegrees>-1.16542358882725238800048828125</LongitudeDegrees>
            </Position>
            <AltitudeMeters>35.200000762939453125</AltitudeMeters>
            <DistanceMeters>NAN</DistanceMeters>
          </Trackpoint>
          <Trackpoint>
            <Time>2022-07-05T14:10:19.000Z</Time>
            <Position>
              <LatitudeDegrees>44.40544419921934604644775390625</LatitudeDegrees>
              <LongitudeDegrees>-1.1654558591544628143310546875</LongitudeDegrees>
            </Position>
            <AltitudeMeters>35.200000762939453125</AltitudeMeters>
            <DistanceMeters>NAN</DistanceMeters>
          </Trackpoint>
          <Trackpoint>
            <Time>2022-07-05T14:10:23.000Z</Time>
            <Position>
              <LatitudeDegrees>44.40546096302568912506103515625</LatitudeDegrees>
              <LongitudeDegrees>-1.1656436137855052947998046875</LongitudeDegrees>
            </Position>
            <AltitudeMeters>35</AltitudeMeters>
            <DistanceMeters>NAN</DistanceMeters>
          </Trackpoint>
          <Trackpoint>
            <Time>2022-07-05T14:10:27.000Z</Time>
            <Position>
              <LatitudeDegrees>44.40535652451217174530029296875</LatitudeDegrees>
              <LongitudeDegrees>-1.16577990353107452392578125</LongitudeDegrees>
            </Position>
            <AltitudeMeters>35.200000762939453125</AltitudeMeters>
            <DistanceMeters>NAN</DistanceMeters>
          </Trackpoint>
          <Trackpoint>
            <Time>2022-07-05T14:10:31.000Z</Time>
            <Position>
              <LatitudeDegrees>44.40520548261702060699462890625</LatitudeDegrees>
              <LongitudeDegrees>-1.165888197720050811767578125</LongitudeDegrees>
            </Position>
            <AltitudeMeters>35.200000762939453125</AltitudeMeters>
            <DistanceMeters>NAN</DistanceMeters>
          </Trackpoint>
          <Trackpoint>
            <Time>2022-07-05T14:10:33.000Z</Time>
            <Position>
              <LatitudeDegrees>44.405128620564937591552734375</LatitudeDegrees>
              <LongitudeDegrees>-1.16593153215944766998291015625</LongitudeDegrees>
            </Position>
            <AltitudeMeters>35.200000762939453125</AltitudeMeters>
            <DistanceMeters>NAN</DistanceMeters>
          </Trackpoint>
          <Trackpoint>
            <Time>2022-07-05T14:10:34.000Z</Time>
            <Position>
              <LatitudeDegrees>44.40508914180099964141845703125</LatitudeDegrees>
              <LongitudeDegrees>-1.16595298983156681060791015625</LongitudeDegrees>
            </Position>
            <AltitudeMeters>35.200000762939453125</AltitudeMeters>
            <DistanceMeters>NAN</DistanceMeters>
          </Trackpoint>
          <Trackpoint>
            <Time>2022-07-05T14:10:36.000Z</Time>
            <Position>
              <LatitudeDegrees>44.4050047360360622406005859375</LatitudeDegrees>
              <LongitudeDegrees>-1.16599389351904392242431640625</LongitudeDegrees>
            </Position>
            <AltitudeMeters>35.200000762939453125</AltitudeMeters>
            <DistanceMeters>NAN</DistanceMeters>
          </Trackpoint>
          <Trackpoint>
            <Time>2022-07-05T14:10:40.000Z</Time>
            <Position>
              <LatitudeDegrees>44.4048404507339000701904296875</LatitudeDegrees>
              <LongitudeDegrees>-1.16608592681586742401123046875</LongitudeDegrees>
            </Position>
            <AltitudeMeters>35.200000762939453125</AltitudeMeters>
            <DistanceMeters>NAN</DistanceMeters>
          </Trackpoint>
          <Trackpoint>
            <Time>2022-07-05T14:10:42.000Z</Time>
            <Position>
              <LatitudeDegrees>44.40477951429784297943115234375</LatitudeDegrees>
              <LongitudeDegrees>-1.1661579273641109466552734375</LongitudeDegrees>
            </Position>
            <AltitudeMeters>35.200000762939453125</AltitudeMeters>
            <DistanceMeters>NAN</DistanceMeters>
          </Trackpoint>
          <Trackpoint>
            <Time>2022-07-05T14:10:46.000Z</Time>
            <Position>
              <LatitudeDegrees>44.40471732057631015777587890625</LatitudeDegrees>
              <LongitudeDegrees>-1.16630561649799346923828125</LongitudeDegrees>
            </Position>
            <AltitudeMeters>35.40000152587890625</AltitudeMeters>
            <DistanceMeters>NAN</DistanceMeters>
          </Trackpoint>
          <Trackpoint>
            <Time>2022-07-05T14:10:47.000Z</Time>
            <Position>
              <LatitudeDegrees>44.404706172645092010498046875</LatitudeDegrees>
              <LongitudeDegrees>-1.166328750550746917724609375</LongitudeDegrees>
            </Position>
            <AltitudeMeters>35.40000152587890625</AltitudeMeters>
            <DistanceMeters>NAN</DistanceMeters>
          </Trackpoint>
          <Trackpoint>
            <Time>2022-07-05T14:10:48.000Z</Time>
            <Position>
              <LatitudeDegrees>44.40468630753457546234130859375</LatitudeDegrees>
              <LongitudeDegrees>-1.1663520522415637969970703125</LongitudeDegrees>
            </Position>
            <AltitudeMeters>35.40000152587890625</AltitudeMeters>
            <DistanceMeters>NAN</DistanceMeters>
          </Trackpoint>
          <Trackpoint>
            <Time>2022-07-05T14:10:50.000Z</Time>
            <Position>
              <LatitudeDegrees>44.40462545491755008697509765625</LatitudeDegrees>
              <LongitudeDegrees>-1.16636102087795734405517578125</LongitudeDegrees>
            </Position>
            <AltitudeMeters>35.200000762939453125</AltitudeMeters>
            <DistanceMeters>NAN</DistanceMeters>
          </Trackpoint>
          <Trackpoint>
            <Time>2022-07-05T14:10:55.000Z</Time>
            <Position>
              <LatitudeDegrees>44.40444038249552249908447265625</LatitudeDegrees>
              <LongitudeDegrees>-1.16630486212670803070068359375</LongitudeDegrees>
            </Position>
            <AltitudeMeters>34.799999237060546875</AltitudeMeters>
            <DistanceMeters>NAN</DistanceMeters>
          </Trackpoint>
          <Trackpoint>
            <Time>2022-07-05T14:10:57.000Z</Time>
            <Position>
              <LatitudeDegrees>44.404362179338932037353515625</LatitudeDegrees>
              <LongitudeDegrees>-1.16630536504089832305908203125</LongitudeDegrees>
            </Position>
            <AltitudeMeters>34.799999237060546875</AltitudeMeters>
            <DistanceMeters>NAN</DistanceMeters>
          </Trackpoint>
          <Trackpoint>
            <Time>2022-07-05T14:10:59.000Z</Time>
            <Position>
              <LatitudeDegrees>44.40427609719336032867431640625</LatitudeDegrees>
              <LongitudeDegrees>-1.16630938835442066192626953125</LongitudeDegrees>
            </Position>
            <AltitudeMeters>34.799999237060546875</AltitudeMeters>
            <DistanceMeters>NAN</DistanceMeters>
          </Trackpoint>
          <Trackpoint>
            <Time>2022-07-05T14:11:02.000Z</Time>
            <Position>
              <LatitudeDegrees>44.40414533950388431549072265625</LatitudeDegrees>
              <LongitudeDegrees>-1.16631274111568927764892578125</LongitudeDegrees>
            </Position>
            <AltitudeMeters>34.799999237060546875</AltitudeMeters>
            <DistanceMeters>NAN</DistanceMeters>
          </Trackpoint>
          <Trackpoint>
            <Time>2022-07-05T14:11:05.000Z</Time>
            <Position>
              <LatitudeDegrees>44.40400720573961734771728515625</LatitudeDegrees>
              <LongitudeDegrees>-1.16631341166794300079345703125</LongitudeDegrees>
            </Position>
            <AltitudeMeters>34.799999237060546875</AltitudeMeters>
            <DistanceMeters>NAN</DistanceMeters>
          </Trackpoint>
          <Trackpoint>
            <Time>2022-07-05T14:11:11.000Z</Time>
            <Position>
              <LatitudeDegrees>44.40371115691959857940673828125</LatitudeDegrees>
              <LongitudeDegrees>-1.1663210391998291015625</LongitudeDegrees>
            </Position>
            <AltitudeMeters>35</AltitudeMeters>
            <DistanceMeters>NAN</DistanceMeters>
          </Trackpoint>
          <Trackpoint>
            <Time>2022-07-05T14:11:21.000Z</Time>
            <Position>
              <LatitudeDegrees>44.40324696712195873260498046875</LatitudeDegrees>
              <LongitudeDegrees>-1.16635096259415149688720703125</LongitudeDegrees>
            </Position>
            <AltitudeMeters>34.40000152587890625</AltitudeMeters>
            <DistanceMeters>NAN</DistanceMeters>
          </Trackpoint>
          <Trackpoint>
            <Time>2022-07-05T14:11:28.000Z</Time>
            <Position>
              <LatitudeDegrees>44.40293834544718265533447265625</LatitudeDegrees>
              <LongitudeDegrees>-1.16636973805725574493408203125</LongitudeDegrees>
            </Position>
            <AltitudeMeters>34.59999847412109375</AltitudeMeters>
            <DistanceMeters>NAN</DistanceMeters>
          </Trackpoint>
          <Trackpoint>
            <Time>2022-07-05T14:11:31.000Z</Time>
            <Position>
              <LatitudeDegrees>44.402811527252197265625</LatitudeDegrees>
              <LongitudeDegrees>-1.16637124679982662200927734375</LongitudeDegrees>
            </Position>
            <AltitudeMeters>34.40000152587890625</AltitudeMeters>
            <DistanceMeters>NAN</DistanceMeters>
          </Trackpoint>
          <Trackpoint>
            <Time>2022-07-05T14:11:34.000Z</Time>
            <Position>
              <LatitudeDegrees>44.40268881618976593017578125</LatitudeDegrees>
              <LongitudeDegrees>-1.166375689208507537841796875</LongitudeDegrees>
            </Position>
            <AltitudeMeters>34.200000762939453125</AltitudeMeters>
            <DistanceMeters>NAN</DistanceMeters>
          </Trackpoint>
          <Trackpoint>
            <Time>2022-07-05T14:11:36.000Z</Time>
            <Position>
              <LatitudeDegrees>44.40264279954135417938232421875</LatitudeDegrees>
              <LongitudeDegrees>-1.16644551046192646026611328125</LongitudeDegrees>
            </Position>
            <AltitudeMeters>34.40000152587890625</AltitudeMeters>
            <DistanceMeters>NAN</DistanceMeters>
          </Trackpoint>
          <Trackpoint>
            <Time>2022-07-05T14:11:39.000Z</Time>
            <Position>
              <LatitudeDegrees>44.4026521034538745880126953125</LatitudeDegrees>
              <LongitudeDegrees>-1.16660526953637599945068359375</LongitudeDegrees>
            </Position>
            <AltitudeMeters>34.59999847412109375</AltitudeMeters>
            <DistanceMeters>NAN</DistanceMeters>
          </Trackpoint>
          <Trackpoint>
            <Time>2022-07-05T14:11:47.000Z</Time>
            <Position>
              <LatitudeDegrees>44.40276618115603923797607421875</LatitudeDegrees>
              <LongitudeDegrees>-1.16707214154303073883056640625</LongitudeDegrees>
            </Position>
            <AltitudeMeters>34.40000152587890625</AltitudeMeters>
            <DistanceMeters>NAN</DistanceMeters>
          </Trackpoint>
          <Trackpoint>
            <Time>2022-07-05T14:11:50.000Z</Time>
            <Position>
              <LatitudeDegrees>44.4027754850685596466064453125</LatitudeDegrees>
              <LongitudeDegrees>-1.16723709739744663238525390625</LongitudeDegrees>
            </Position>
            <AltitudeMeters>34.40000152587890625</AltitudeMeters>
            <DistanceMeters>NAN</DistanceMeters>
          </Trackpoint>
          <Trackpoint>
            <Time>2022-07-05T14:11:52.000Z</Time>
            <Position>
              <LatitudeDegrees>44.402749501168727874755859375</LatitudeDegrees>
              <LongitudeDegrees>-1.16735494695603847503662109375</LongitudeDegrees>
            </Position>
            <AltitudeMeters>34.40000152587890625</AltitudeMeters>
            <DistanceMeters>NAN</DistanceMeters>
          </Trackpoint>
          <Trackpoint>
            <Time>2022-07-05T14:11:53.000Z</Time>
            <Position>
              <LatitudeDegrees>44.40272502601146697998046875</LatitudeDegrees>
              <LongitudeDegrees>-1.16740305908024311065673828125</LongitudeDegrees>
            </Position>
            <AltitudeMeters>34.40000152587890625</AltitudeMeters>
            <DistanceMeters>NAN</DistanceMeters>
          </Trackpoint>
          <Trackpoint>
            <Time>2022-07-05T14:11:58.000Z</Time>
            <Position>
              <LatitudeDegrees>44.4025927595794200897216796875</LatitudeDegrees>
              <LongitudeDegrees>-1.16764261387288570404052734375</LongitudeDegrees>
            </Position>
            <AltitudeMeters>34.200000762939453125</AltitudeMeters>
            <DistanceMeters>NAN</DistanceMeters>
          </Trackpoint>
          <Trackpoint>
            <Time>2022-07-05T14:12:00.000Z</Time>
            <Position>
              <LatitudeDegrees>44.4025505147874355316162109375</LatitudeDegrees>
              <LongitudeDegrees>-1.16774638183414936065673828125</LongitudeDegrees>
            </Position>
            <AltitudeMeters>34.200000762939453125</AltitudeMeters>
            <DistanceMeters>NAN</DistanceMeters>
          </Trackpoint>
          <Trackpoint>
            <Time>2022-07-05T14:12:02.000Z</Time>
            <Position>
              <LatitudeDegrees>44.40252612344920635223388671875</LatitudeDegrees>
              <LongitudeDegrees>-1.16787068545818328857421875</LongitudeDegrees>
            </Position>
            <AltitudeMeters>34</AltitudeMeters>
            <DistanceMeters>NAN</DistanceMeters>
          </Trackpoint>
          <Trackpoint>
            <Time>2022-07-05T14:12:03.000Z</Time>
            <Position>
              <LatitudeDegrees>44.40252310596406459808349609375</LatitudeDegrees>
              <LongitudeDegrees>-1.16793505847454071044921875</LongitudeDegrees>
            </Position>
            <AltitudeMeters>34</AltitudeMeters>
            <DistanceMeters>NAN</DistanceMeters>
          </Trackpoint>
          <Trackpoint>
            <Time>2022-07-05T14:12:06.000Z</Time>
            <Position>
              <LatitudeDegrees>44.40254439599812030792236328125</LatitudeDegrees>
              <LongitudeDegrees>-1.16812759079039096832275390625</LongitudeDegrees>
            </Position>
            <AltitudeMeters>34</AltitudeMeters>
            <DistanceMeters>NAN</DistanceMeters>
          </Trackpoint>
          <Trackpoint>
            <Time>2022-07-05T14:12:10.000Z</Time>
            <Position>
              <LatitudeDegrees>44.40259183757007122039794921875</LatitudeDegrees>
              <LongitudeDegrees>-1.16837183944880962371826171875</LongitudeDegrees>
            </Position>
            <AltitudeMeters>34</AltitudeMeters>
            <DistanceMeters>NAN</DistanceMeters>
          </Trackpoint>
          <Trackpoint>
            <Time>2022-07-05T14:12:17.000Z</Time>
            <Position>
              <LatitudeDegrees>44.40267942845821380615234375</LatitudeDegrees>
              <LongitudeDegrees>-1.16881356574594974517822265625</LongitudeDegrees>
            </Position>
            <AltitudeMeters>33.59999847412109375</AltitudeMeters>
            <DistanceMeters>NAN</DistanceMeters>
          </Trackpoint>
          <Trackpoint>
            <Time>2022-07-05T14:12:23.000Z</Time>
            <Position>
              <LatitudeDegrees>44.40274539403617382049560546875</LatitudeDegrees>
              <LongitudeDegrees>-1.169185303151607513427734375</LongitudeDegrees>
            </Position>
            <AltitudeMeters>33.799999237060546875</AltitudeMeters>
            <DistanceMeters>NAN</DistanceMeters>
          </Trackpoint>
          <Trackpoint>
            <Time>2022-07-05T14:12:30.000Z</Time>
            <Position>
              <LatitudeDegrees>44.40284312702715396881103515625</LatitudeDegrees>
              <LongitudeDegrees>-1.1696054041385650634765625</LongitudeDegrees>
            </Position>
            <AltitudeMeters>33.40000152587890625</AltitudeMeters>
            <DistanceMeters>NAN</DistanceMeters>
          </Trackpoint>
          <Trackpoint>
            <Time>2022-07-05T14:12:31.000Z</Time>
            <Position>
              <LatitudeDegrees>44.4028552807867527008056640625</LatitudeDegrees>
              <LongitudeDegrees>-1.16966851986944675445556640625</LongitudeDegrees>
            </Position>
            <AltitudeMeters>33.200000762939453125</AltitudeMeters>
            <DistanceMeters>NAN</DistanceMeters>
          </Trackpoint>
          <Trackpoint>
            <Time>2022-07-05T14:12:39.000Z</Time>
            <Position>
              <LatitudeDegrees>44.40294806845486164093017578125</LatitudeDegrees>
              <LongitudeDegrees>-1.170148551464080810546875</LongitudeDegrees>
            </Position>
            <AltitudeMeters>32.59999847412109375</AltitudeMeters>
            <DistanceMeters>NAN</DistanceMeters>
          </Trackpoint>
          <Trackpoint>
            <Time>2022-07-05T14:12:44.000Z</Time>
            <Position>
              <LatitudeDegrees>44.40299483947455883026123046875</LatitudeDegrees>
              <LongitudeDegrees>-1.17042590864002704620361328125</LongitudeDegrees>
            </Position>
            <AltitudeMeters>32.799999237060546875</AltitudeMeters>
            <DistanceMeters>NAN</DistanceMeters>
          </Trackpoint>
          <Trackpoint>
            <Time>2022-07-05T14:12:47.000Z</Time>
            <Position>
              <LatitudeDegrees>44.40303188748657703399658203125</LatitudeDegrees>
              <LongitudeDegrees>-1.17059983313083648681640625</LongitudeDegrees>
            </Position>
            <AltitudeMeters>33</AltitudeMeters>
            <DistanceMeters>NAN</DistanceMeters>
          </Trackpoint>
          <Trackpoint>
            <Time>2022-07-05T14:12:50.000Z</Time>
            <Position>
              <LatitudeDegrees>44.40305250696837902069091796875</LatitudeDegrees>
              <LongitudeDegrees>-1.17076738737523555755615234375</LongitudeDegrees>
            </Position>
            <AltitudeMeters>32.40000152587890625</AltitudeMeters>
            <DistanceMeters>NAN</DistanceMeters>
          </Trackpoint>
          <Trackpoint>
            <Time>2022-07-05T14:12:52.000Z</Time>
            <Position>
              <LatitudeDegrees>44.40306558273732662200927734375</LatitudeDegrees>
              <LongitudeDegrees>-1.17086696438491344451904296875</LongitudeDegrees>
            </Position>
            <AltitudeMeters>32.200000762939453125</AltitudeMeters>
            <DistanceMeters>NAN</DistanceMeters>
          </Trackpoint>
          <Trackpoint>
            <Time>2022-07-05T14:12:56.000Z</Time>
            <Position>
              <LatitudeDegrees>44.40309475176036357879638671875</LatitudeDegrees>
              <LongitudeDegrees>-1.17107701487839221954345703125</LongitudeDegrees>
            </Position>
            <AltitudeMeters>32.200000762939453125</AltitudeMeters>
            <DistanceMeters>NAN</DistanceMeters>
          </Trackpoint>
          <Trackpoint>
            <Time>2022-07-05T14:13:04.000Z</Time>
            <Position>
              <LatitudeDegrees>44.4031908921897411346435546875</LatitudeDegrees>
              <LongitudeDegrees>-1.17150331847369670867919921875</LongitudeDegrees>
            </Position>
            <AltitudeMeters>32</AltitudeMeters>
            <DistanceMeters>NAN</DistanceMeters>
          </Trackpoint>
          <Trackpoint>
            <Time>2022-07-05T14:13:11.000Z</Time>
            <Position>
              <LatitudeDegrees>44.40323590300977230072021484375</LatitudeDegrees>
              <LongitudeDegrees>-1.1718240939080715179443359375</LongitudeDegrees>
            </Position>
            <AltitudeMeters>32.200000762939453125</AltitudeMeters>
            <DistanceMeters>NAN</DistanceMeters>
          </Trackpoint>
          <Trackpoint>
            <Time>2022-07-05T14:13:16.000Z</Time>
            <Position>
              <LatitudeDegrees>44.40326339565217494964599609375</LatitudeDegrees>
              <LongitudeDegrees>-1.17207915522158145904541015625</LongitudeDegrees>
            </Position>
            <AltitudeMeters>32</AltitudeMeters>
            <DistanceMeters>NAN</DistanceMeters>
          </Trackpoint>
          <Trackpoint>
            <Time>2022-07-05T14:13:21.000Z</Time>
            <Position>
              <LatitudeDegrees>44.40328334458172321319580078125</LatitudeDegrees>
              <LongitudeDegrees>-1.172312758862972259521484375</LongitudeDegrees>
            </Position>
            <AltitudeMeters>32</AltitudeMeters>
            <DistanceMeters>NAN</DistanceMeters>
          </Trackpoint>
          <Trackpoint>
            <Time>2022-07-05T14:13:24.000Z</Time>
            <Position>
              <LatitudeDegrees>44.4032807461917400360107421875</LatitudeDegrees>
              <LongitudeDegrees>-1.1723880283534526824951171875</LongitudeDegrees>
            </Position>
            <AltitudeMeters>31.799999237060546875</AltitudeMeters>
            <DistanceMeters>NAN</DistanceMeters>
          </Trackpoint>
          <Trackpoint>
            <Time>2022-07-05T14:13:26.000Z</Time>
            <Position>
              <LatitudeDegrees>44.40325384028255939483642578125</LatitudeDegrees>
              <LongitudeDegrees>-1.1724262498319149017333984375</LongitudeDegrees>
            </Position>
            <AltitudeMeters>32</AltitudeMeters>
            <DistanceMeters>NAN</DistanceMeters>
          </Trackpoint>
          <Trackpoint>
            <Time>2022-07-05T14:13:32.000Z</Time>
            <Position>
              <LatitudeDegrees>44.40309743396937847137451171875</LatitudeDegrees>
              <LongitudeDegrees>-1.172473020851612091064453125</LongitudeDegrees>
            </Position>
            <AltitudeMeters>32.200000762939453125</AltitudeMeters>
            <DistanceMeters>NAN</DistanceMeters>
          </Trackpoint>
          <Trackpoint>
            <Time>2022-07-05T14:13:37.000Z</Time>
            <Position>
              <LatitudeDegrees>44.40294035710394382476806640625</LatitudeDegrees>
              <LongitudeDegrees>-1.17251895368099212646484375</LongitudeDegrees>
            </Position>
            <AltitudeMeters>32.59999847412109375</AltitudeMeters>
            <DistanceMeters>NAN</DistanceMeters>
          </Trackpoint>
          <Trackpoint>
            <Time>2022-07-05T14:13:41.000Z</Time>
            <Position>
              <LatitudeDegrees>44.40277003683149814605712890625</LatitudeDegrees>
              <LongitudeDegrees>-1.17255725897848606109619140625</LongitudeDegrees>
            </Position>
            <AltitudeMeters>32.799999237060546875</AltitudeMeters>
            <DistanceMeters>NAN</DistanceMeters>
          </Trackpoint>
          <Trackpoint>
            <Time>2022-07-05T14:13:42.000Z</Time>
            <Position>
              <LatitudeDegrees>44.4027473218739032745361328125</LatitudeDegrees>
              <LongitudeDegrees>-1.1725717596709728240966796875</LongitudeDegrees>
            </Position>
            <AltitudeMeters>33</AltitudeMeters>
            <DistanceMeters>NAN</DistanceMeters>
          </Trackpoint>
          <Trackpoint>
            <Time>2022-07-05T14:13:46.000Z</Time>
            <Position>
              <LatitudeDegrees>44.402610026299953460693359375</LatitudeDegrees>
              <LongitudeDegrees>-1.17262884043157100677490234375</LongitudeDegrees>
            </Position>
            <AltitudeMeters>33</AltitudeMeters>
            <DistanceMeters>NAN</DistanceMeters>
          </Trackpoint>
          <Trackpoint>
            <Time>2022-07-05T14:13:48.000Z</Time>
            <Position>
              <LatitudeDegrees>44.40254741348326206207275390625</LatitudeDegrees>
              <LongitudeDegrees>-1.172653399407863616943359375</LongitudeDegrees>
            </Position>
            <AltitudeMeters>33.200000762939453125</AltitudeMeters>
            <DistanceMeters>NAN</DistanceMeters>
          </Trackpoint>
          <Trackpoint>
            <Time>2022-07-05T14:13:53.000Z</Time>
            <Position>
              <LatitudeDegrees>44.4023993052542209625244140625</LatitudeDegrees>
              <LongitudeDegrees>-1.172707714140415191650390625</LongitudeDegrees>
            </Position>
            <AltitudeMeters>33.200000762939453125</AltitudeMeters>
            <DistanceMeters>NAN</DistanceMeters>
          </Trackpoint>
          <Trackpoint>
            <Time>2022-07-05T14:13:56.000Z</Time>
            <Position>
              <LatitudeDegrees>44.40226502716541290283203125</LatitudeDegrees>
              <LongitudeDegrees>-1.17278449237346649169921875</LongitudeDegrees>
            </Position>
            <AltitudeMeters>33</AltitudeMeters>
            <DistanceMeters>NAN</DistanceMeters>
          </Trackpoint>
          <Trackpoint>
            <Time>2022-07-05T14:13:57.000Z</Time>
            <Position>
              <LatitudeDegrees>44.40222613513469696044921875</LatitudeDegrees>
              <LongitudeDegrees>-1.17280821315944194793701171875</LongitudeDegrees>
            </Position>
            <AltitudeMeters>33.200000762939453125</AltitudeMeters>
            <DistanceMeters>NAN</DistanceMeters>
          </Trackpoint>
          <Trackpoint>
            <Time>2022-07-05T14:13:58.000Z</Time>
            <Position>
              <LatitudeDegrees>44.40217693336308002471923828125</LatitudeDegrees>
              <LongitudeDegrees>-1.1728356219828128814697265625</LongitudeDegrees>
            </Position>
            <AltitudeMeters>33.200000762939453125</AltitudeMeters>
            <DistanceMeters>NAN</DistanceMeters>
          </Trackpoint>
          <Trackpoint>
            <Time>2022-07-05T14:14:05.000Z</Time>
            <Position>
              <LatitudeDegrees>44.40188909880816936492919921875</LatitudeDegrees>
              <LongitudeDegrees>-1.173001416027545928955078125</LongitudeDegrees>
            </Position>
            <AltitudeMeters>33.59999847412109375</AltitudeMeters>
            <DistanceMeters>NAN</DistanceMeters>
          </Trackpoint>
          <Trackpoint>
            <Time>2022-07-05T14:14:11.000Z</Time>
            <Position>
              <LatitudeDegrees>44.4017156772315502166748046875</LatitudeDegrees>
              <LongitudeDegrees>-1.17316092364490032196044921875</LongitudeDegrees>
            </Position>
            <AltitudeMeters>33.59999847412109375</AltitudeMeters>
            <DistanceMeters>NAN</DistanceMeters>
          </Trackpoint>
          <Trackpoint>
            <Time>2022-07-05T14:14:16.000Z</Time>
            <Position>
              <LatitudeDegrees>44.40147000364959239959716796875</LatitudeDegrees>
              <LongitudeDegrees>-1.1733041703701019287109375</LongitudeDegrees>
            </Position>
            <AltitudeMeters>33.40000152587890625</AltitudeMeters>
            <DistanceMeters>NAN</DistanceMeters>
          </Trackpoint>
          <Trackpoint>
            <Time>2022-07-05T14:14:22.000Z</Time>
            <Position>
              <LatitudeDegrees>44.40120027400553226470947265625</LatitudeDegrees>
              <LongitudeDegrees>-1.17345378734171390533447265625</LongitudeDegrees>
            </Position>
            <AltitudeMeters>33.40000152587890625</AltitudeMeters>
            <DistanceMeters>NAN</DistanceMeters>
          </Trackpoint>
          <Trackpoint>
            <Time>2022-07-05T14:14:26.000Z</Time>
            <Position>
              <LatitudeDegrees>44.401111342012882232666015625</LatitudeDegrees>
              <LongitudeDegrees>-1.17359007708728313446044921875</LongitudeDegrees>
            </Position>
            <AltitudeMeters>33.40000152587890625</AltitudeMeters>
            <DistanceMeters>NAN</DistanceMeters>
          </Trackpoint>
          <Trackpoint>
            <Time>2022-07-05T14:14:35.000Z</Time>
            <Position>
              <LatitudeDegrees>44.40074915997684001922607421875</LatitudeDegrees>
              <LongitudeDegrees>-1.17376173846423625946044921875</LongitudeDegrees>
            </Position>
            <AltitudeMeters>33.59999847412109375</AltitudeMeters>
            <DistanceMeters>NAN</DistanceMeters>
          </Trackpoint>
          <Trackpoint>
            <Time>2022-07-05T14:14:36.000Z</Time>
            <Position>
              <LatitudeDegrees>44.4007081724703311920166015625</LatitudeDegrees>
              <LongitudeDegrees>-1.17377799935638904571533203125</LongitudeDegrees>
            </Position>
            <AltitudeMeters>33.59999847412109375</AltitudeMeters>
            <DistanceMeters>NAN</DistanceMeters>
          </Trackpoint>
          <Trackpoint>
            <Time>2022-07-05T14:14:39.000Z</Time>
            <Position>
              <LatitudeDegrees>44.40053860656917095184326171875</LatitudeDegrees>
              <LongitudeDegrees>-1.17388260550796985626220703125</LongitudeDegrees>
            </Position>
            <AltitudeMeters>33.799999237060546875</AltitudeMeters>
            <DistanceMeters>NAN</DistanceMeters>
          </Trackpoint>
          <Trackpoint>
            <Time>2022-07-05T14:14:42.000Z</Time>
            <Position>
              <LatitudeDegrees>44.400415308773517608642578125</LatitudeDegrees>
              <LongitudeDegrees>-1.1739158816635608673095703125</LongitudeDegrees>
            </Position>
            <AltitudeMeters>34</AltitudeMeters>
            <DistanceMeters>NAN</DistanceMeters>
          </Trackpoint>
          <Trackpoint>
            <Time>2022-07-05T14:14:45.000Z</Time>
            <Position>
              <LatitudeDegrees>44.40028932876884937286376953125</LatitudeDegrees>
              <LongitudeDegrees>-1.1740084178745746612548828125</LongitudeDegrees>
            </Position>
            <AltitudeMeters>34.200000762939453125</AltitudeMeters>
            <DistanceMeters>NAN</DistanceMeters>
          </Trackpoint>
          <Trackpoint>
            <Time>2022-07-05T14:14:50.000Z</Time>
            <Position>
              <LatitudeDegrees>44.4000892527401447296142578125</LatitudeDegrees>
              <LongitudeDegrees>-1.1741100065410137176513671875</LongitudeDegrees>
            </Position>
            <AltitudeMeters>34.40000152587890625</AltitudeMeters>
            <DistanceMeters>NAN</DistanceMeters>
          </Trackpoint>
          <Trackpoint>
            <Time>2022-07-05T14:14:53.000Z</Time>
            <Position>
              <LatitudeDegrees>44.399944245815277099609375</LatitudeDegrees>
              <LongitudeDegrees>-1.17415107786655426025390625</LongitudeDegrees>
            </Position>
            <AltitudeMeters>34.40000152587890625</AltitudeMeters>
            <DistanceMeters>NAN</DistanceMeters>
          </Trackpoint>
          <Trackpoint>
            <Time>2022-07-05T14:14:54.000Z</Time>
            <Position>
              <LatitudeDegrees>44.39990200102329254150390625</LatitudeDegrees>
              <LongitudeDegrees>-1.1741609685122966766357421875</LongitudeDegrees>
            </Position>
            <AltitudeMeters>34.40000152587890625</AltitudeMeters>
            <DistanceMeters>NAN</DistanceMeters>
          </Trackpoint>
          <Trackpoint>
            <Time>2022-07-05T14:14:59.000Z</Time>
            <Position>
              <LatitudeDegrees>44.39970561303198337554931640625</LatitudeDegrees>
              <LongitudeDegrees>-1.1742112599313259124755859375</LongitudeDegrees>
            </Position>
            <AltitudeMeters>34.59999847412109375</AltitudeMeters>
            <DistanceMeters>NAN</DistanceMeters>
          </Trackpoint>
          <Trackpoint>
            <Time>2022-07-05T14:15:08.000Z</Time>
            <Position>
              <LatitudeDegrees>44.39935483038425445556640625</LatitudeDegrees>
              <LongitudeDegrees>-1.17424855940043926239013671875</LongitudeDegrees>
            </Position>
            <AltitudeMeters>34.59999847412109375</AltitudeMeters>
            <DistanceMeters>NAN</DistanceMeters>
          </Trackpoint>
          <Trackpoint>
            <Time>2022-07-05T14:15:10.000Z</Time>
            <Position>
              <LatitudeDegrees>44.399289451539516448974609375</LatitudeDegrees>
              <LongitudeDegrees>-1.17420363239943981170654296875</LongitudeDegrees>
            </Position>
            <AltitudeMeters>34.59999847412109375</AltitudeMeters>
            <DistanceMeters>NAN</DistanceMeters>
          </Trackpoint>
          <Trackpoint>
            <Time>2022-07-05T14:15:11.000Z</Time>
            <Position>
              <LatitudeDegrees>44.39927226863801479339599609375</LatitudeDegrees>
              <LongitudeDegrees>-1.1741571128368377685546875</LongitudeDegrees>
            </Position>
            <AltitudeMeters>34.40000152587890625</AltitudeMeters>
            <DistanceMeters>NAN</DistanceMeters>
          </Trackpoint>
          <Trackpoint>
            <Time>2022-07-05T14:15:19.000Z</Time>
            <Position>
              <LatitudeDegrees>44.39918744377791881561279296875</LatitudeDegrees>
              <LongitudeDegrees>-1.17374178953468799591064453125</LongitudeDegrees>
            </Position>
            <AltitudeMeters>34.59999847412109375</AltitudeMeters>
            <DistanceMeters>NAN</DistanceMeters>
          </Trackpoint>
          <Trackpoint>
            <Time>2022-07-05T14:15:26.000Z</Time>
            <Position>
              <LatitudeDegrees>44.39911284483969211578369140625</LatitudeDegrees>
              <LongitudeDegrees>-1.17337063886225223541259765625</LongitudeDegrees>
            </Position>
            <AltitudeMeters>35</AltitudeMeters>
            <DistanceMeters>NAN</DistanceMeters>
          </Trackpoint>
          <Trackpoint>
            <Time>2022-07-05T14:15:32.000Z</Time>
            <Position>
              <LatitudeDegrees>44.3990586139261722564697265625</LatitudeDegrees>
              <LongitudeDegrees>-1.173043660819530487060546875</LongitudeDegrees>
            </Position>
            <AltitudeMeters>35.40000152587890625</AltitudeMeters>
            <DistanceMeters>NAN</DistanceMeters>
          </Trackpoint>
          <Trackpoint>
            <Time>2022-07-05T14:15:38.000Z</Time>
            <Position>
              <LatitudeDegrees>44.39900656230747699737548828125</LatitudeDegrees>
              <LongitudeDegrees>-1.17268659174442291259765625</LongitudeDegrees>
            </Position>
            <AltitudeMeters>35.40000152587890625</AltitudeMeters>
            <DistanceMeters>NAN</DistanceMeters>
          </Trackpoint>
          <Trackpoint>
            <Time>2022-07-05T14:15:40.000Z</Time>
            <Position>
              <LatitudeDegrees>44.39898527227342128753662109375</LatitudeDegrees>
              <LongitudeDegrees>-1.17259112186729907989501953125</LongitudeDegrees>
            </Position>
            <AltitudeMeters>35.40000152587890625</AltitudeMeters>
            <DistanceMeters>NAN</DistanceMeters>
          </Trackpoint>
          <Trackpoint>
            <Time>2022-07-05T14:15:46.000Z</Time>
            <Position>
              <LatitudeDegrees>44.39894671551883220672607421875</LatitudeDegrees>
              <LongitudeDegrees>-1.172250397503376007080078125</LongitudeDegrees>
            </Position>
            <AltitudeMeters>35.59999847412109375</AltitudeMeters>
            <DistanceMeters>NAN</DistanceMeters>
          </Trackpoint>
          <Trackpoint>
            <Time>2022-07-05T14:15:53.000Z</Time>
            <Position>
              <LatitudeDegrees>44.39884965308010578155517578125</LatitudeDegrees>
              <LongitudeDegrees>-1.17188234813511371612548828125</LongitudeDegrees>
            </Position>
            <AltitudeMeters>36</AltitudeMeters>
            <DistanceMeters>NAN</DistanceMeters>
          </Trackpoint>
          <Trackpoint>
            <Time>2022-07-05T14:15:58.000Z</Time>
            <Position>
              <LatitudeDegrees>44.39871084876358509063720703125</LatitudeDegrees>
              <LongitudeDegrees>-1.17170892655849456787109375</LongitudeDegrees>
            </Position>
            <AltitudeMeters>36</AltitudeMeters>
            <DistanceMeters>NAN</DistanceMeters>
          </Trackpoint>
          <Trackpoint>
            <Time>2022-07-05T14:16:03.000Z</Time>
            <Position>
              <LatitudeDegrees>44.39857036806643009185791015625</LatitudeDegrees>
              <LongitudeDegrees>-1.17159895598888397216796875</LongitudeDegrees>
            </Position>
            <AltitudeMeters>35.799999237060546875</AltitudeMeters>
            <DistanceMeters>NAN</DistanceMeters>
          </Trackpoint>
          <Trackpoint>
            <Time>2022-07-05T14:16:09.000Z</Time>
            <Position>
              <LatitudeDegrees>44.39835629425942897796630859375</LatitudeDegrees>
              <LongitudeDegrees>-1.171423606574535369873046875</LongitudeDegrees>
            </Position>
            <AltitudeMeters>35.799999237060546875</AltitudeMeters>
            <DistanceMeters>NAN</DistanceMeters>
          </Trackpoint>
          <Trackpoint>
            <Time>2022-07-05T14:16:14.000Z</Time>
            <Position>
              <LatitudeDegrees>44.39817490987479686737060546875</LatitudeDegrees>
              <LongitudeDegrees>-1.17127650417387485504150390625</LongitudeDegrees>
            </Position>
            <AltitudeMeters>36</AltitudeMeters>
            <DistanceMeters>NAN</DistanceMeters>
          </Trackpoint>
          <Trackpoint>
            <Time>2022-07-05T14:16:20.000Z</Time>
            <Position>
              <LatitudeDegrees>44.39784935675561428070068359375</LatitudeDegrees>
              <LongitudeDegrees>-1.1712169088423252105712890625</LongitudeDegrees>
            </Position>
            <AltitudeMeters>36</AltitudeMeters>
            <DistanceMeters>NAN</DistanceMeters>
          </Trackpoint>
          <Trackpoint>
            <Time>2022-07-05T14:16:26.000Z</Time>
            <Position>
              <LatitudeDegrees>44.39761784859001636505126953125</LatitudeDegrees>
              <LongitudeDegrees>-1.17118916474282741546630859375</LongitudeDegrees>
            </Position>
            <AltitudeMeters>36.200000762939453125</AltitudeMeters>
            <DistanceMeters>NAN</DistanceMeters>
          </Trackpoint>
          <Trackpoint>
            <Time>2022-07-05T14:16:31.000Z</Time>
            <Position>
              <LatitudeDegrees>44.39747552387416362762451171875</LatitudeDegrees>
              <LongitudeDegrees>-1.1711786873638629913330078125</LongitudeDegrees>
            </Position>
            <AltitudeMeters>36.200000762939453125</AltitudeMeters>
            <DistanceMeters>NAN</DistanceMeters>
          </Trackpoint>
          <Trackpoint>
            <Time>2022-07-05T14:16:36.000Z</Time>
            <Position>
              <LatitudeDegrees>44.3973135016858577728271484375</LatitudeDegrees>
              <LongitudeDegrees>-1.17112646810710430145263671875</LongitudeDegrees>
            </Position>
            <AltitudeMeters>36.40000152587890625</AltitudeMeters>
            <DistanceMeters>NAN</DistanceMeters>
          </Trackpoint>
          <Trackpoint>
            <Time>2022-07-05T14:16:38.000Z</Time>
            <Position>
              <LatitudeDegrees>44.39728458411991596221923828125</LatitudeDegrees>
              <LongitudeDegrees>-1.17111188359558582305908203125</LongitudeDegrees>
            </Position>
            <AltitudeMeters>36.40000152587890625</AltitudeMeters>
            <DistanceMeters>NAN</DistanceMeters>
          </Trackpoint>
          <Trackpoint>
            <Time>2022-07-05T14:16:44.000Z</Time>
            <Position>
              <LatitudeDegrees>44.3972692452371120452880859375</LatitudeDegrees>
              <LongitudeDegrees>-1.17107718251645565032958984375</LongitudeDegrees>
            </Position>
            <AltitudeMeters>36.200000762939453125</AltitudeMeters>
            <DistanceMeters>NAN</DistanceMeters>
          </Trackpoint>
          <Trackpoint>
            <Time>2022-07-05T14:16:45.000Z</Time>
            <Position>
              <LatitudeDegrees>44.3972692452371120452880859375</LatitudeDegrees>
              <LongitudeDegrees>-1.17107718251645565032958984375</LongitudeDegrees>
            </Position>
            <AltitudeMeters>36.40000152587890625</AltitudeMeters>
            <DistanceMeters>NAN</DistanceMeters>
          </Trackpoint>
          <Trackpoint>
            <Time>2022-07-05T14:25:58.000Z</Time>
            <Position>
              <LatitudeDegrees>44.39715784974396228790283203125</LatitudeDegrees>
              <LongitudeDegrees>-1.17108623497188091278076171875</LongitudeDegrees>
            </Position>
            <AltitudeMeters>36.59999847412109375</AltitudeMeters>
            <DistanceMeters>NAN</DistanceMeters>
          </Trackpoint>
          <Trackpoint>
            <Time>2022-07-05T14:25:59.000Z</Time>
            <Position>
              <LatitudeDegrees>44.39713320694863796234130859375</LatitudeDegrees>
              <LongitudeDegrees>-1.17108405567705631256103515625</LongitudeDegrees>
            </Position>
            <AltitudeMeters>36.799999237060546875</AltitudeMeters>
            <DistanceMeters>NAN</DistanceMeters>
          </Trackpoint>
          <Trackpoint>
            <Time>2022-07-05T14:26:00.000Z</Time>
            <Position>
              <LatitudeDegrees>44.397111833095550537109375</LatitudeDegrees>
              <LongitudeDegrees>-1.17108757607638835906982421875</LongitudeDegrees>
            </Position>
            <AltitudeMeters>37</AltitudeMeters>
            <DistanceMeters>NAN</DistanceMeters>
          </Trackpoint>
          <Trackpoint>
            <Time>2022-07-05T14:26:05.000Z</Time>
            <Position>
              <LatitudeDegrees>44.3969815783202648162841796875</LatitudeDegrees>
              <LongitudeDegrees>-1.171080283820629119873046875</LongitudeDegrees>
            </Position>
            <AltitudeMeters>37.200000762939453125</AltitudeMeters>
            <DistanceMeters>NAN</DistanceMeters>
          </Trackpoint>
          <Trackpoint>
            <Time>2022-07-05T14:26:11.000Z</Time>
            <Position>
              <LatitudeDegrees>44.3967988528311252593994140625</LatitudeDegrees>
              <LongitudeDegrees>-1.17105991579592227935791015625</LongitudeDegrees>
            </Position>
            <AltitudeMeters>37.40000152587890625</AltitudeMeters>
            <DistanceMeters>NAN</DistanceMeters>
          </Trackpoint>
          <Trackpoint>
            <Time>2022-07-05T14:26:12.000Z</Time>
            <Position>
              <LatitudeDegrees>44.396774880588054656982421875</LatitudeDegrees>
              <LongitudeDegrees>-1.171053461730480194091796875</LongitudeDegrees>
            </Position>
            <AltitudeMeters>37.40000152587890625</AltitudeMeters>
            <DistanceMeters>NAN</DistanceMeters>
          </Trackpoint>
          <Trackpoint>
            <Time>2022-07-05T14:26:15.000Z</Time>
            <Position>
              <LatitudeDegrees>44.3966959230601787567138671875</LatitudeDegrees>
              <LongitudeDegrees>-1.17099009454250335693359375</LongitudeDegrees>
            </Position>
            <AltitudeMeters>37.59999847412109375</AltitudeMeters>
            <DistanceMeters>NAN</DistanceMeters>
          </Trackpoint>
          <Trackpoint>
            <Time>2022-07-05T14:26:19.000Z</Time>
            <Position>
              <LatitudeDegrees>44.39658989198505878448486328125</LatitudeDegrees>
              <LongitudeDegrees>-1.170867383480072021484375</LongitudeDegrees>
            </Position>
            <AltitudeMeters>37.799999237060546875</AltitudeMeters>
            <DistanceMeters>NAN</DistanceMeters>
          </Trackpoint>
          <Trackpoint>
            <Time>2022-07-05T14:26:21.000Z</Time>
            <Position>
              <LatitudeDegrees>44.396542869508266448974609375</LatitudeDegrees>
              <LongitudeDegrees>-1.17080041207373142242431640625</LongitudeDegrees>
            </Position>
            <AltitudeMeters>37.799999237060546875</AltitudeMeters>
            <DistanceMeters>NAN</DistanceMeters>
          </Trackpoint>
          <Trackpoint>
            <Time>2022-07-05T14:26:24.000Z</Time>
            <Position>
              <LatitudeDegrees>44.39646919257938861846923828125</LatitudeDegrees>
              <LongitudeDegrees>-1.1707212030887603759765625</LongitudeDegrees>
            </Position>
            <AltitudeMeters>37.799999237060546875</AltitudeMeters>
            <DistanceMeters>NAN</DistanceMeters>
          </Trackpoint>
          <Trackpoint>
            <Time>2022-07-05T14:26:30.000Z</Time>
            <Position>
              <LatitudeDegrees>44.3963308073580265045166015625</LatitudeDegrees>
              <LongitudeDegrees>-1.17045365273952484130859375</LongitudeDegrees>
            </Position>
            <AltitudeMeters>37.799999237060546875</AltitudeMeters>
            <DistanceMeters>NAN</DistanceMeters>
          </Trackpoint>
          <Trackpoint>
            <Time>2022-07-05T14:26:34.000Z</Time>
            <Position>
              <LatitudeDegrees>44.39628697000443935394287109375</LatitudeDegrees>
              <LongitudeDegrees>-1.1702617071568965911865234375</LongitudeDegrees>
            </Position>
            <AltitudeMeters>37.799999237060546875</AltitudeMeters>
            <DistanceMeters>NAN</DistanceMeters>
          </Trackpoint>
          <Trackpoint>
            <Time>2022-07-05T14:26:40.000Z</Time>
            <Position>
              <LatitudeDegrees>44.396180100739002227783203125</LatitudeDegrees>
              <LongitudeDegrees>-1.17003497667610645294189453125</LongitudeDegrees>
            </Position>
            <AltitudeMeters>37.59999847412109375</AltitudeMeters>
            <DistanceMeters>NAN</DistanceMeters>
          </Trackpoint>
          <Trackpoint>
            <Time>2022-07-05T14:26:46.000Z</Time>
            <Position>
              <LatitudeDegrees>44.3961296416819095611572265625</LatitudeDegrees>
              <LongitudeDegrees>-1.169953085482120513916015625</LongitudeDegrees>
            </Position>
            <AltitudeMeters>37.40000152587890625</AltitudeMeters>
            <DistanceMeters>NAN</DistanceMeters>
          </Trackpoint>
          <Trackpoint>
            <Time>2022-07-05T14:26:47.000Z</Time>
            <Position>
              <LatitudeDegrees>44.3961296416819095611572265625</LatitudeDegrees>
              <LongitudeDegrees>-1.169953085482120513916015625</LongitudeDegrees>
            </Position>
            <AltitudeMeters>37.200000762939453125</AltitudeMeters>
            <DistanceMeters>NAN</DistanceMeters>
          </Trackpoint>
          <Trackpoint>
            <Time>2022-07-05T14:27:13.000Z</Time>
            <Position>
              <LatitudeDegrees>44.396115727722644805908203125</LatitudeDegrees>
              <LongitudeDegrees>-1.1699351482093334197998046875</LongitudeDegrees>
            </Position>
            <AltitudeMeters>37.59999847412109375</AltitudeMeters>
            <DistanceMeters>NAN</DistanceMeters>
          </Trackpoint>
          <Trackpoint>
            <Time>2022-07-05T14:27:15.000Z</Time>
            <Position>
              <LatitudeDegrees>44.3961008079349994659423828125</LatitudeDegrees>
              <LongitudeDegrees>-1.16988460533320903778076171875</LongitudeDegrees>
            </Position>
            <AltitudeMeters>37.59999847412109375</AltitudeMeters>
            <DistanceMeters>NAN</DistanceMeters>
          </Trackpoint>
          <Trackpoint>
            <Time>2022-07-05T14:27:20.000Z</Time>
            <Position>
              <LatitudeDegrees>44.3959784321486949920654296875</LatitudeDegrees>
              <LongitudeDegrees>-1.16972744464874267578125</LongitudeDegrees>
            </Position>
            <AltitudeMeters>38.200000762939453125</AltitudeMeters>
            <DistanceMeters>NAN</DistanceMeters>
          </Trackpoint>
          <Trackpoint>
            <Time>2022-07-05T14:27:21.000Z</Time>
            <Position>
              <LatitudeDegrees>44.3959623388946056365966796875</LatitudeDegrees>
              <LongitudeDegrees>-1.16967824287712574005126953125</LongitudeDegrees>
            </Position>
            <AltitudeMeters>38.40000152587890625</AltitudeMeters>
            <DistanceMeters>NAN</DistanceMeters>
          </Trackpoint>
          <Trackpoint>
            <Time>2022-07-05T14:27:23.000Z</Time>
            <Position>
              <LatitudeDegrees>44.3959392048418521881103515625</LatitudeDegrees>
              <LongitudeDegrees>-1.16959425620734691619873046875</LongitudeDegrees>
            </Position>
            <AltitudeMeters>38.40000152587890625</AltitudeMeters>
            <DistanceMeters>NAN</DistanceMeters>
          </Trackpoint>
          <Trackpoint>
            <Time>2022-07-05T14:27:27.000Z</Time>
            <Position>
              <LatitudeDegrees>44.3959210999310016632080078125</LatitudeDegrees>
              <LongitudeDegrees>-1.16939174942672252655029296875</LongitudeDegrees>
            </Position>
            <AltitudeMeters>38.59999847412109375</AltitudeMeters>
            <DistanceMeters>NAN</DistanceMeters>
          </Trackpoint>
          <Trackpoint>
            <Time>2022-07-05T14:27:28.000Z</Time>
            <Position>
              <LatitudeDegrees>44.39591665752232074737548828125</LatitudeDegrees>
              <LongitudeDegrees>-1.16934397257864475250244140625</LongitudeDegrees>
            </Position>
            <AltitudeMeters>38.59999847412109375</AltitudeMeters>
            <DistanceMeters>NAN</DistanceMeters>
          </Trackpoint>
          <Trackpoint>
            <Time>2022-07-05T14:27:35.000Z</Time>
            <Position>
              <LatitudeDegrees>44.39585312269628047943115234375</LatitudeDegrees>
              <LongitudeDegrees>-1.16903602145612239837646484375</LongitudeDegrees>
            </Position>
            <AltitudeMeters>38.799999237060546875</AltitudeMeters>
            <DistanceMeters>NAN</DistanceMeters>
          </Trackpoint>
          <Trackpoint>
            <Time>2022-07-05T14:27:41.000Z</Time>
            <Position>
              <LatitudeDegrees>44.39578137360513210296630859375</LatitudeDegrees>
              <LongitudeDegrees>-1.1687771044671535491943359375</LongitudeDegrees>
            </Position>
            <AltitudeMeters>39</AltitudeMeters>
            <DistanceMeters>NAN</DistanceMeters>
          </Trackpoint>
          <Trackpoint>
            <Time>2022-07-05T14:27:48.000Z</Time>
            <Position>
              <LatitudeDegrees>44.39571398310363292694091796875</LatitudeDegrees>
              <LongitudeDegrees>-1.168500669300556182861328125</LongitudeDegrees>
            </Position>
            <AltitudeMeters>39.200000762939453125</AltitudeMeters>
            <DistanceMeters>NAN</DistanceMeters>
          </Trackpoint>
          <Trackpoint>
            <Time>2022-07-05T14:27:53.000Z</Time>
            <Position>
              <LatitudeDegrees>44.39569956623017787933349609375</LatitudeDegrees>
              <LongitudeDegrees>-1.168296821415424346923828125</LongitudeDegrees>
            </Position>
            <AltitudeMeters>39.40000152587890625</AltitudeMeters>
            <DistanceMeters>NAN</DistanceMeters>
          </Trackpoint>
          <Trackpoint>
            <Time>2022-07-05T14:27:54.000Z</Time>
            <Position>
              <LatitudeDegrees>44.3956914357841014862060546875</LatitudeDegrees>
              <LongitudeDegrees>-1.168257929384708404541015625</LongitudeDegrees>
            </Position>
            <AltitudeMeters>39.40000152587890625</AltitudeMeters>
            <DistanceMeters>NAN</DistanceMeters>
          </Trackpoint>
          <Trackpoint>
            <Time>2022-07-05T14:28:01.000Z</Time>
            <Position>
              <LatitudeDegrees>44.395612813532352447509765625</LatitudeDegrees>
              <LongitudeDegrees>-1.16796582005918025970458984375</LongitudeDegrees>
            </Position>
            <AltitudeMeters>39.40000152587890625</AltitudeMeters>
            <DistanceMeters>NAN</DistanceMeters>
          </Trackpoint>
          <Trackpoint>
            <Time>2022-07-05T14:28:08.000Z</Time>
            <Position>
              <LatitudeDegrees>44.39554215408861637115478515625</LatitudeDegrees>
              <LongitudeDegrees>-1.16764227859675884246826171875</LongitudeDegrees>
            </Position>
            <AltitudeMeters>39.40000152587890625</AltitudeMeters>
            <DistanceMeters>NAN</DistanceMeters>
          </Trackpoint>
          <Trackpoint>
            <Time>2022-07-05T14:28:12.000Z</Time>
            <Position>
              <LatitudeDegrees>44.39552622847259044647216796875</LatitudeDegrees>
              <LongitudeDegrees>-1.16746030747890472412109375</LongitudeDegrees>
            </Position>
            <AltitudeMeters>39.59999847412109375</AltitudeMeters>
            <DistanceMeters>NAN</DistanceMeters>
          </Trackpoint>
          <Trackpoint>
            <Time>2022-07-05T14:28:17.000Z</Time>
            <Position>
              <LatitudeDegrees>44.39546336419880390167236328125</LatitudeDegrees>
              <LongitudeDegrees>-1.167238019406795501708984375</LongitudeDegrees>
            </Position>
            <AltitudeMeters>40</AltitudeMeters>
            <DistanceMeters>NAN</DistanceMeters>
          </Trackpoint>
          <Trackpoint>
            <Time>2022-07-05T14:28:18.000Z</Time>
            <Position>
              <LatitudeDegrees>44.3954500369727611541748046875</LatitudeDegrees>
              <LongitudeDegrees>-1.1671992950141429901123046875</LongitudeDegrees>
            </Position>
            <AltitudeMeters>40.200000762939453125</AltitudeMeters>
            <DistanceMeters>NAN</DistanceMeters>
          </Trackpoint>
          <Trackpoint>
            <Time>2022-07-05T14:28:24.000Z</Time>
            <Position>
              <LatitudeDegrees>44.3954138271510601043701171875</LatitudeDegrees>
              <LongitudeDegrees>-1.1670584790408611297607421875</LongitudeDegrees>
            </Position>
            <AltitudeMeters>40.40000152587890625</AltitudeMeters>
            <DistanceMeters>NAN</DistanceMeters>
          </Trackpoint>
          <Trackpoint>
            <Time>2022-07-05T14:28:25.000Z</Time>
            <Position>
              <LatitudeDegrees>44.3954138271510601043701171875</LatitudeDegrees>
              <LongitudeDegrees>-1.1670584790408611297607421875</LongitudeDegrees>
            </Position>
            <AltitudeMeters>40.40000152587890625</AltitudeMeters>
            <DistanceMeters>NAN</DistanceMeters>
          </Trackpoint>
          <Trackpoint>
            <Time>2022-07-05T14:28:43.000Z</Time>
            <Position>
              <LatitudeDegrees>44.395340569317340850830078125</LatitudeDegrees>
              <LongitudeDegrees>-1.16705286316573619842529296875</LongitudeDegrees>
            </Position>
            <AltitudeMeters>40.59999847412109375</AltitudeMeters>
            <DistanceMeters>NAN</DistanceMeters>
          </Trackpoint>
          <Trackpoint>
            <Time>2022-07-05T14:28:45.000Z</Time>
            <Position>
              <LatitudeDegrees>44.39528583548963069915771484375</LatitudeDegrees>
              <LongitudeDegrees>-1.16707180626690387725830078125</LongitudeDegrees>
            </Position>
            <AltitudeMeters>40.59999847412109375</AltitudeMeters>
            <DistanceMeters>NAN</DistanceMeters>
          </Trackpoint>
          <Trackpoint>
            <Time>2022-07-05T14:28:51.000Z</Time>
            <Position>
              <LatitudeDegrees>44.39507192932069301605224609375</LatitudeDegrees>
              <LongitudeDegrees>-1.16714338771998882293701171875</LongitudeDegrees>
            </Position>
            <AltitudeMeters>40.40000152587890625</AltitudeMeters>
            <DistanceMeters>NAN</DistanceMeters>
          </Trackpoint>
          <Trackpoint>
            <Time>2022-07-05T14:28:58.000Z</Time>
            <Position>
              <LatitudeDegrees>44.39483673311769962310791015625</LatitudeDegrees>
              <LongitudeDegrees>-1.1672489158809185028076171875</LongitudeDegrees>
            </Position>
            <AltitudeMeters>40.40000152587890625</AltitudeMeters>
            <DistanceMeters>NAN</DistanceMeters>
          </Trackpoint>
          <Trackpoint>
            <Time>2022-07-05T14:29:04.000Z</Time>
            <Position>
              <LatitudeDegrees>44.3946732021868228912353515625</LatitudeDegrees>
              <LongitudeDegrees>-1.16738855838775634765625</LongitudeDegrees>
            </Position>
            <AltitudeMeters>40.59999847412109375</AltitudeMeters>
            <DistanceMeters>NAN</DistanceMeters>
          </Trackpoint>
          <Trackpoint>
            <Time>2022-07-05T14:29:09.000Z</Time>
            <Position>
              <LatitudeDegrees>44.39455769956111907958984375</LatitudeDegrees>
              <LongitudeDegrees>-1.1674564518034458160400390625</LongitudeDegrees>
            </Position>
            <AltitudeMeters>40.59999847412109375</AltitudeMeters>
            <DistanceMeters>NAN</DistanceMeters>
          </Trackpoint>
          <Trackpoint>
            <Time>2022-07-05T14:29:12.000Z</Time>
            <Position>
              <LatitudeDegrees>44.39447916112840175628662109375</LatitudeDegrees>
              <LongitudeDegrees>-1.16744832135736942291259765625</LongitudeDegrees>
            </Position>
            <AltitudeMeters>40.59999847412109375</AltitudeMeters>
            <DistanceMeters>NAN</DistanceMeters>
          </Trackpoint>
          <Trackpoint>
            <Time>2022-07-05T14:29:14.000Z</Time>
            <Position>
              <LatitudeDegrees>44.39443959854543209075927734375</LatitudeDegrees>
              <LongitudeDegrees>-1.167404986917972564697265625</LongitudeDegrees>
            </Position>
            <AltitudeMeters>40.40000152587890625</AltitudeMeters>
            <DistanceMeters>NAN</DistanceMeters>
          </Trackpoint>
          <Trackpoint>
            <Time>2022-07-05T14:29:18.000Z</Time>
            <Position>
              <LatitudeDegrees>44.39441780559718608856201171875</LatitudeDegrees>
              <LongitudeDegrees>-1.16726140491664409637451171875</LongitudeDegrees>
            </Position>
            <AltitudeMeters>40.40000152587890625</AltitudeMeters>
            <DistanceMeters>NAN</DistanceMeters>
          </Trackpoint>
          <Trackpoint>
            <Time>2022-07-05T14:29:25.000Z</Time>
            <Position>
              <LatitudeDegrees>44.3943677656352519989013671875</LatitudeDegrees>
              <LongitudeDegrees>-1.16693534888327121734619140625</LongitudeDegrees>
            </Position>
            <AltitudeMeters>40.59999847412109375</AltitudeMeters>
            <DistanceMeters>NAN</DistanceMeters>
          </Trackpoint>
          <Trackpoint>
            <Time>2022-07-05T14:29:31.000Z</Time>
            <Position>
              <LatitudeDegrees>44.3942460604012012481689453125</LatitudeDegrees>
              <LongitudeDegrees>-1.16669026203453540802001953125</LongitudeDegrees>
            </Position>
            <AltitudeMeters>40.59999847412109375</AltitudeMeters>
            <DistanceMeters>NAN</DistanceMeters>
          </Trackpoint>
          <Trackpoint>
            <Time>2022-07-05T14:29:37.000Z</Time>
            <Position>
              <LatitudeDegrees>44.39413818530738353729248046875</LatitudeDegrees>
              <LongitudeDegrees>-1.1664536409080028533935546875</LongitudeDegrees>
            </Position>
            <AltitudeMeters>40.40000152587890625</AltitudeMeters>
            <DistanceMeters>NAN</DistanceMeters>
          </Trackpoint>
          <Trackpoint>
            <Time>2022-07-05T14:29:38.000Z</Time>
            <Position>
              <LatitudeDegrees>44.394123516976833343505859375</LatitudeDegrees>
              <LongitudeDegrees>-1.16641332395374774932861328125</LongitudeDegrees>
            </Position>
            <AltitudeMeters>40.40000152587890625</AltitudeMeters>
            <DistanceMeters>NAN</DistanceMeters>
          </Trackpoint>
          <Trackpoint>
            <Time>2022-07-05T14:29:42.000Z</Time>
            <Position>
              <LatitudeDegrees>44.39403626136481761932373046875</LatitudeDegrees>
              <LongitudeDegrees>-1.1662782914936542510986328125</LongitudeDegrees>
            </Position>
            <AltitudeMeters>40.40000152587890625</AltitudeMeters>
            <DistanceMeters>NAN</DistanceMeters>
          </Trackpoint>
          <Trackpoint>
            <Time>2022-07-05T14:29:45.000Z</Time>
            <Position>
              <LatitudeDegrees>44.39394389279186725616455078125</LatitudeDegrees>
              <LongitudeDegrees>-1.1661723442375659942626953125</LongitudeDegrees>
            </Position>
            <AltitudeMeters>40.40000152587890625</AltitudeMeters>
            <DistanceMeters>NAN</DistanceMeters>
          </Trackpoint>
          <Trackpoint>
            <Time>2022-07-05T14:29:50.000Z</Time>
            <Position>
              <LatitudeDegrees>44.3938148953020572662353515625</LatitudeDegrees>
              <LongitudeDegrees>-1.1659765429794788360595703125</LongitudeDegrees>
            </Position>
            <AltitudeMeters>40.59999847412109375</AltitudeMeters>
            <DistanceMeters>NAN</DistanceMeters>
          </Trackpoint>
          <Trackpoint>
            <Time>2022-07-05T14:29:58.000Z</Time>
            <Position>
              <LatitudeDegrees>44.3936502747237682342529296875</LatitudeDegrees>
              <LongitudeDegrees>-1.1656814999878406524658203125</LongitudeDegrees>
            </Position>
            <AltitudeMeters>40.799999237060546875</AltitudeMeters>
            <DistanceMeters>NAN</DistanceMeters>
          </Trackpoint>
          <Trackpoint>
            <Time>2022-07-05T14:30:02.000Z</Time>
            <Position>
              <LatitudeDegrees>44.3935691379010677337646484375</LatitudeDegrees>
              <LongitudeDegrees>-1.16553942672908306121826171875</LongitudeDegrees>
            </Position>
            <AltitudeMeters>40.799999237060546875</AltitudeMeters>
            <DistanceMeters>NAN</DistanceMeters>
          </Trackpoint>
          <Trackpoint>
            <Time>2022-07-05T14:30:04.000Z</Time>
            <Position>
              <LatitudeDegrees>44.393534101545810699462890625</LatitudeDegrees>
              <LongitudeDegrees>-1.165468432009220123291015625</LongitudeDegrees>
            </Position>
            <AltitudeMeters>40.799999237060546875</AltitudeMeters>
            <DistanceMeters>NAN</DistanceMeters>
          </Trackpoint>
          <Trackpoint>
            <Time>2022-07-05T14:30:09.000Z</Time>
            <Position>
              <LatitudeDegrees>44.39345086924731731414794921875</LatitudeDegrees>
              <LongitudeDegrees>-1.165329627692699432373046875</LongitudeDegrees>
            </Position>
            <AltitudeMeters>40.799999237060546875</AltitudeMeters>
            <DistanceMeters>NAN</DistanceMeters>
          </Trackpoint>
          <Trackpoint>
            <Time>2022-07-05T14:30:10.000Z</Time>
            <Position>
              <LatitudeDegrees>44.3934403918683528900146484375</LatitudeDegrees>
              <LongitudeDegrees>-1.1653103493154048919677734375</LongitudeDegrees>
            </Position>
            <AltitudeMeters>40.799999237060546875</AltitudeMeters>
            <DistanceMeters>NAN</DistanceMeters>
          </Trackpoint>
          <Trackpoint>
            <Time>2022-07-05T14:30:13.000Z</Time>
            <Position>
              <LatitudeDegrees>44.39342672936618328094482421875</LatitudeDegrees>
              <LongitudeDegrees>-1.1652499996125698089599609375</LongitudeDegrees>
            </Position>
            <AltitudeMeters>40.59999847412109375</AltitudeMeters>
            <DistanceMeters>NAN</DistanceMeters>
          </Trackpoint>
          <Trackpoint>
            <Time>2022-07-05T14:30:17.000Z</Time>
            <Position>
              <LatitudeDegrees>44.39342354424297809600830078125</LatitudeDegrees>
              <LongitudeDegrees>-1.16523499600589275360107421875</LongitudeDegrees>
            </Position>
            <AltitudeMeters>40.59999847412109375</AltitudeMeters>
            <DistanceMeters>NAN</DistanceMeters>
          </Trackpoint>
          <Trackpoint>
            <Time>2022-07-05T14:30:22.000Z</Time>
            <Position>
              <LatitudeDegrees>44.3934090435504913330078125</LatitudeDegrees>
              <LongitudeDegrees>-1.165173053741455078125</LongitudeDegrees>
            </Position>
            <AltitudeMeters>40.799999237060546875</AltitudeMeters>
            <DistanceMeters>NAN</DistanceMeters>
          </Trackpoint>
          <Trackpoint>
            <Time>2022-07-05T14:30:25.000Z</Time>
            <Position>
              <LatitudeDegrees>44.393361769616603851318359375</LatitudeDegrees>
              <LongitudeDegrees>-1.1650880612432956695556640625</LongitudeDegrees>
            </Position>
            <AltitudeMeters>41</AltitudeMeters>
            <DistanceMeters>NAN</DistanceMeters>
          </Trackpoint>
          <Trackpoint>
            <Time>2022-07-05T14:30:27.000Z</Time>
            <Position>
              <LatitudeDegrees>44.393324889242649078369140625</LatitudeDegrees>
              <LongitudeDegrees>-1.1650374345481395721435546875</LongitudeDegrees>
            </Position>
            <AltitudeMeters>41</AltitudeMeters>
            <DistanceMeters>NAN</DistanceMeters>
          </Trackpoint>
          <Trackpoint>
            <Time>2022-07-05T14:30:30.000Z</Time>
            <Position>
              <LatitudeDegrees>44.3932945467531681060791015625</LatitudeDegrees>
              <LongitudeDegrees>-1.16497096605598926544189453125</LongitudeDegrees>
            </Position>
            <AltitudeMeters>41</AltitudeMeters>
            <DistanceMeters>NAN</DistanceMeters>
          </Trackpoint>
          <Trackpoint>
            <Time>2022-07-05T14:30:32.000Z</Time>
            <Position>
              <LatitudeDegrees>44.39329379238188266754150390625</LatitudeDegrees>
              <LongitudeDegrees>-1.1648962832987308502197265625</LongitudeDegrees>
            </Position>
            <AltitudeMeters>40.799999237060546875</AltitudeMeters>
            <DistanceMeters>NAN</DistanceMeters>
          </Trackpoint>
          <Trackpoint>
            <Time>2022-07-05T14:30:36.000Z</Time>
            <Position>
              <LatitudeDegrees>44.39333184622228145599365234375</LatitudeDegrees>
              <LongitudeDegrees>-1.16473359055817127227783203125</LongitudeDegrees>
            </Position>
            <AltitudeMeters>41</AltitudeMeters>
            <DistanceMeters>NAN</DistanceMeters>
          </Trackpoint>
          <Trackpoint>
            <Time>2022-07-05T14:30:37.000Z</Time>
            <Position>
              <LatitudeDegrees>44.3933552317321300506591796875</LatitudeDegrees>
              <LongitudeDegrees>-1.16469704546034336090087890625</LongitudeDegrees>
            </Position>
            <AltitudeMeters>41</AltitudeMeters>
            <DistanceMeters>NAN</DistanceMeters>
          </Trackpoint>
          <Trackpoint>
            <Time>2022-07-05T14:30:42.000Z</Time>
            <Position>
              <LatitudeDegrees>44.39350350759923458099365234375</LatitudeDegrees>
              <LongitudeDegrees>-1.1645145714282989501953125</LongitudeDegrees>
            </Position>
            <AltitudeMeters>40.799999237060546875</AltitudeMeters>
            <DistanceMeters>NAN</DistanceMeters>
          </Trackpoint>
          <Trackpoint>
            <Time>2022-07-05T14:30:47.000Z</Time>
            <Position>
              <LatitudeDegrees>44.39353703521192073822021484375</LatitudeDegrees>
              <LongitudeDegrees>-1.1642823927104473114013671875</LongitudeDegrees>
            </Position>
            <AltitudeMeters>41</AltitudeMeters>
            <DistanceMeters>NAN</DistanceMeters>
          </Trackpoint>
          <Trackpoint>
            <Time>2022-07-05T14:30:51.000Z</Time>
            <Position>
              <LatitudeDegrees>44.39348883926868438720703125</LatitudeDegrees>
              <LongitudeDegrees>-1.16411835886538028717041015625</LongitudeDegrees>
            </Position>
            <AltitudeMeters>41</AltitudeMeters>
            <DistanceMeters>NAN</DistanceMeters>
          </Trackpoint>
          <Trackpoint>
            <Time>2022-07-05T14:31:01.000Z</Time>
            <Position>
              <LatitudeDegrees>44.393255151808261871337890625</LatitudeDegrees>
              <LongitudeDegrees>-1.16369624622166156768798828125</LongitudeDegrees>
            </Position>
            <AltitudeMeters>41</AltitudeMeters>
            <DistanceMeters>NAN</DistanceMeters>
          </Trackpoint>
          <Trackpoint>
            <Time>2022-07-05T14:31:07.000Z</Time>
            <Position>
              <LatitudeDegrees>44.39308650791645050048828125</LatitudeDegrees>
              <LongitudeDegrees>-1.16347814910113811492919921875</LongitudeDegrees>
            </Position>
            <AltitudeMeters>41</AltitudeMeters>
            <DistanceMeters>NAN</DistanceMeters>
          </Trackpoint>
          <Trackpoint>
            <Time>2022-07-05T14:31:15.000Z</Time>
            <Position>
              <LatitudeDegrees>44.39290151931345462799072265625</LatitudeDegrees>
              <LongitudeDegrees>-1.16308218799531459808349609375</LongitudeDegrees>
            </Position>
            <AltitudeMeters>40.799999237060546875</AltitudeMeters>
            <DistanceMeters>NAN</DistanceMeters>
          </Trackpoint>
          <Trackpoint>
            <Time>2022-07-05T14:31:17.000Z</Time>
            <Position>
              <LatitudeDegrees>44.39284854568541049957275390625</LatitudeDegrees>
              <LongitudeDegrees>-1.162986718118190765380859375</LongitudeDegrees>
            </Position>
            <AltitudeMeters>40.799999237060546875</AltitudeMeters>
            <DistanceMeters>NAN</DistanceMeters>
          </Trackpoint>
          <Trackpoint>
            <Time>2022-07-05T14:31:26.000Z</Time>
            <Position>
              <LatitudeDegrees>44.39261284656822681427001953125</LatitudeDegrees>
              <LongitudeDegrees>-1.1625174991786479949951171875</LongitudeDegrees>
            </Position>
            <AltitudeMeters>40.799999237060546875</AltitudeMeters>
            <DistanceMeters>NAN</DistanceMeters>
          </Trackpoint>
          <Trackpoint>
            <Time>2022-07-05T14:31:27.000Z</Time>
            <Position>
              <LatitudeDegrees>44.3925748765468597412109375</LatitudeDegrees>
              <LongitudeDegrees>-1.16246310062706470489501953125</LongitudeDegrees>
            </Position>
            <AltitudeMeters>40.799999237060546875</AltitudeMeters>
            <DistanceMeters>NAN</DistanceMeters>
          </Trackpoint>
          <Trackpoint>
            <Time>2022-07-05T14:31:36.000Z</Time>
            <Position>
              <LatitudeDegrees>44.39231126569211483001708984375</LatitudeDegrees>
              <LongitudeDegrees>-1.1619756929576396942138671875</LongitudeDegrees>
            </Position>
            <AltitudeMeters>41</AltitudeMeters>
            <DistanceMeters>NAN</DistanceMeters>
          </Trackpoint>
          <Trackpoint>
            <Time>2022-07-05T14:31:42.000Z</Time>
            <Position>
              <LatitudeDegrees>44.39212032593786716461181640625</LatitudeDegrees>
              <LongitudeDegrees>-1.16163589060306549072265625</LongitudeDegrees>
            </Position>
            <AltitudeMeters>41.59999847412109375</AltitudeMeters>
            <DistanceMeters>NAN</DistanceMeters>
          </Trackpoint>
          <Trackpoint>
            <Time>2022-07-05T14:31:43.000Z</Time>
            <Position>
              <LatitudeDegrees>44.392091073095798492431640625</LatitudeDegrees>
              <LongitudeDegrees>-1.16157914511859416961669921875</LongitudeDegrees>
            </Position>
            <AltitudeMeters>41.59999847412109375</AltitudeMeters>
            <DistanceMeters>NAN</DistanceMeters>
          </Trackpoint>
          <Trackpoint>
            <Time>2022-07-05T14:31:51.000Z</Time>
            <Position>
              <LatitudeDegrees>44.39186300151050090789794921875</LatitudeDegrees>
              <LongitudeDegrees>-1.16113976575434207916259765625</LongitudeDegrees>
            </Position>
            <AltitudeMeters>42</AltitudeMeters>
            <DistanceMeters>NAN</DistanceMeters>
          </Trackpoint>
          <Trackpoint>
            <Time>2022-07-05T14:31:52.000Z</Time>
            <Position>
              <LatitudeDegrees>44.39183165319263935089111328125</LatitudeDegrees>
              <LongitudeDegrees>-1.16108603775501251220703125</LongitudeDegrees>
            </Position>
            <AltitudeMeters>42.200000762939453125</AltitudeMeters>
            <DistanceMeters>NAN</DistanceMeters>
          </Trackpoint>
          <Trackpoint>
            <Time>2022-07-05T14:32:00.000Z</Time>
            <Position>
              <LatitudeDegrees>44.39162713475525379180908203125</LatitudeDegrees>
              <LongitudeDegrees>-1.16073458455502986907958984375</LongitudeDegrees>
            </Position>
            <AltitudeMeters>42.200000762939453125</AltitudeMeters>
            <DistanceMeters>NAN</DistanceMeters>
          </Trackpoint>
          <Trackpoint>
            <Time>2022-07-05T14:32:06.000Z</Time>
            <Position>
              <LatitudeDegrees>44.391554631292819976806640625</LatitudeDegrees>
              <LongitudeDegrees>-1.1606158129870891571044921875</LongitudeDegrees>
            </Position>
            <AltitudeMeters>42.200000762939453125</AltitudeMeters>
            <DistanceMeters>NAN</DistanceMeters>
          </Trackpoint>
          <Trackpoint>
            <Time>2022-07-05T14:32:11.000Z</Time>
            <Position>
              <LatitudeDegrees>44.39144893549382686614990234375</LatitudeDegrees>
              <LongitudeDegrees>-1.16042294539511203765869140625</LongitudeDegrees>
            </Position>
            <AltitudeMeters>42.200000762939453125</AltitudeMeters>
            <DistanceMeters>NAN</DistanceMeters>
          </Trackpoint>
          <Trackpoint>
            <Time>2022-07-05T14:32:16.000Z</Time>
            <Position>
              <LatitudeDegrees>44.39133544452488422393798828125</LatitudeDegrees>
              <LongitudeDegrees>-1.16022747941315174102783203125</LongitudeDegrees>
            </Position>
            <AltitudeMeters>42.40000152587890625</AltitudeMeters>
            <DistanceMeters>NAN</DistanceMeters>
          </Trackpoint>
          <Trackpoint>
            <Time>2022-07-05T14:32:17.000Z</Time>
            <Position>
              <LatitudeDegrees>44.39130744896829128265380859375</LatitudeDegrees>
              <LongitudeDegrees>-1.16018372587859630584716796875</LongitudeDegrees>
            </Position>
            <AltitudeMeters>42.40000152587890625</AltitudeMeters>
            <DistanceMeters>NAN</DistanceMeters>
          </Trackpoint>
          <Trackpoint>
            <Time>2022-07-05T14:32:18.000Z</Time>
            <Position>
              <LatitudeDegrees>44.3912802077829837799072265625</LatitudeDegrees>
              <LongitudeDegrees>-1.16014013998210430145263671875</LongitudeDegrees>
            </Position>
            <AltitudeMeters>42.59999847412109375</AltitudeMeters>
            <DistanceMeters>NAN</DistanceMeters>
          </Trackpoint>
          <Trackpoint>
            <Time>2022-07-05T14:32:26.000Z</Time>
            <Position>
              <LatitudeDegrees>44.39107744954526424407958984375</LatitudeDegrees>
              <LongitudeDegrees>-1.15975356660783290863037109375</LongitudeDegrees>
            </Position>
            <AltitudeMeters>43.200000762939453125</AltitudeMeters>
            <DistanceMeters>NAN</DistanceMeters>
          </Trackpoint>
          <Trackpoint>
            <Time>2022-07-05T14:32:37.000Z</Time>
            <Position>
              <LatitudeDegrees>44.3907920457422733306884765625</LatitudeDegrees>
              <LongitudeDegrees>-1.15924025885760784149169921875</LongitudeDegrees>
            </Position>
            <AltitudeMeters>43.40000152587890625</AltitudeMeters>
            <DistanceMeters>NAN</DistanceMeters>
          </Trackpoint>
          <Trackpoint>
            <Time>2022-07-05T14:32:42.000Z</Time>
            <Position>
              <LatitudeDegrees>44.390666149556636810302734375</LatitudeDegrees>
              <LongitudeDegrees>-1.15902283228933811187744140625</LongitudeDegrees>
            </Position>
            <AltitudeMeters>43.200000762939453125</AltitudeMeters>
            <DistanceMeters>NAN</DistanceMeters>
          </Trackpoint>
          <Trackpoint>
            <Time>2022-07-05T14:32:43.000Z</Time>
            <Position>
              <LatitudeDegrees>44.39063656143844127655029296875</LatitudeDegrees>
              <LongitudeDegrees>-1.1589811742305755615234375</LongitudeDegrees>
            </Position>
            <AltitudeMeters>43.200000762939453125</AltitudeMeters>
            <DistanceMeters>NAN</DistanceMeters>
          </Trackpoint>
          <Trackpoint>
            <Time>2022-07-05T14:32:45.000Z</Time>
            <Position>
              <LatitudeDegrees>44.39058794640004634857177734375</LatitudeDegrees>
              <LongitudeDegrees>-1.1588891409337520599365234375</LongitudeDegrees>
            </Position>
            <AltitudeMeters>43.200000762939453125</AltitudeMeters>
            <DistanceMeters>NAN</DistanceMeters>
          </Trackpoint>
          <Trackpoint>
            <Time>2022-07-05T14:32:52.000Z</Time>
            <Position>
              <LatitudeDegrees>44.39038074575364589691162109375</LatitudeDegrees>
              <LongitudeDegrees>-1.15853701718151569366455078125</LongitudeDegrees>
            </Position>
            <AltitudeMeters>43.59999847412109375</AltitudeMeters>
            <DistanceMeters>NAN</DistanceMeters>
          </Trackpoint>
          <Trackpoint>
            <Time>2022-07-05T14:33:00.000Z</Time>
            <Position>
              <LatitudeDegrees>44.390173964202404022216796875</LatitudeDegrees>
              <LongitudeDegrees>-1.1581729911267757415771484375</LongitudeDegrees>
            </Position>
            <AltitudeMeters>43.59999847412109375</AltitudeMeters>
            <DistanceMeters>NAN</DistanceMeters>
          </Trackpoint>
          <Trackpoint>
            <Time>2022-07-05T14:33:05.000Z</Time>
            <Position>
              <LatitudeDegrees>44.3900375068187713623046875</LatitudeDegrees>
              <LongitudeDegrees>-1.15794542245566844940185546875</LongitudeDegrees>
            </Position>
            <AltitudeMeters>43.799999237060546875</AltitudeMeters>
            <DistanceMeters>NAN</DistanceMeters>
          </Trackpoint>
          <Trackpoint>
            <Time>2022-07-05T14:33:11.000Z</Time>
            <Position>
              <LatitudeDegrees>44.3898797594010829925537109375</LatitudeDegrees>
              <LongitudeDegrees>-1.15767401643097400665283203125</LongitudeDegrees>
            </Position>
            <AltitudeMeters>43.59999847412109375</AltitudeMeters>
            <DistanceMeters>NAN</DistanceMeters>
          </Trackpoint>
          <Trackpoint>
            <Time>2022-07-05T14:33:21.000Z</Time>
            <Position>
              <LatitudeDegrees>44.38961078412830829620361328125</LatitudeDegrees>
              <LongitudeDegrees>-1.15723698399960994720458984375</LongitudeDegrees>
            </Position>
            <AltitudeMeters>44</AltitudeMeters>
            <DistanceMeters>NAN</DistanceMeters>
          </Trackpoint>
          <Trackpoint>
            <Time>2022-07-05T14:33:28.000Z</Time>
            <Position>
              <LatitudeDegrees>44.38945856876671314239501953125</LatitudeDegrees>
              <LongitudeDegrees>-1.157051660120487213134765625</LongitudeDegrees>
            </Position>
            <AltitudeMeters>44.200000762939453125</AltitudeMeters>
            <DistanceMeters>NAN</DistanceMeters>
          </Trackpoint>
          <Trackpoint>
            <Time>2022-07-05T14:33:29.000Z</Time>
            <Position>
              <LatitudeDegrees>44.38945856876671314239501953125</LatitudeDegrees>
              <LongitudeDegrees>-1.157051660120487213134765625</LongitudeDegrees>
            </Position>
            <AltitudeMeters>44.200000762939453125</AltitudeMeters>
            <DistanceMeters>NAN</DistanceMeters>
          </Trackpoint>
          <Trackpoint>
            <Time>2022-07-05T14:33:43.000Z</Time>
            <Position>
              <LatitudeDegrees>44.38943308778107166290283203125</LatitudeDegrees>
              <LongitudeDegrees>-1.15700614638626575469970703125</LongitudeDegrees>
            </Position>
            <AltitudeMeters>44.200000762939453125</AltitudeMeters>
            <DistanceMeters>NAN</DistanceMeters>
          </Trackpoint>
          <Trackpoint>
            <Time>2022-07-05T14:33:45.000Z</Time>
            <Position>
              <LatitudeDegrees>44.389400146901607513427734375</LatitudeDegrees>
              <LongitudeDegrees>-1.15695551969110965728759765625</LongitudeDegrees>
            </Position>
            <AltitudeMeters>44.200000762939453125</AltitudeMeters>
            <DistanceMeters>NAN</DistanceMeters>
          </Trackpoint>
          <Trackpoint>
            <Time>2022-07-05T14:33:50.000Z</Time>
            <Position>
              <LatitudeDegrees>44.389274083077907562255859375</LatitudeDegrees>
              <LongitudeDegrees>-1.156759299337863922119140625</LongitudeDegrees>
            </Position>
            <AltitudeMeters>44.40000152587890625</AltitudeMeters>
            <DistanceMeters>NAN</DistanceMeters>
          </Trackpoint>
          <Trackpoint>
            <Time>2022-07-05T14:33:57.000Z</Time>
            <Position>
              <LatitudeDegrees>44.3890445865690708160400390625</LatitudeDegrees>
              <LongitudeDegrees>-1.156472973525524139404296875</LongitudeDegrees>
            </Position>
            <AltitudeMeters>44.40000152587890625</AltitudeMeters>
            <DistanceMeters>NAN</DistanceMeters>
          </Trackpoint>
          <Trackpoint>
            <Time>2022-07-05T14:34:04.000Z</Time>
            <Position>
              <LatitudeDegrees>44.388789944350719451904296875</LatitudeDegrees>
              <LongitudeDegrees>-1.15616820752620697021484375</LongitudeDegrees>
            </Position>
            <AltitudeMeters>44.40000152587890625</AltitudeMeters>
            <DistanceMeters>NAN</DistanceMeters>
          </Trackpoint>
          <Trackpoint>
            <Time>2022-07-05T14:34:07.000Z</Time>
            <Position>
              <LatitudeDegrees>44.38868106342852115631103515625</LatitudeDegrees>
              <LongitudeDegrees>-1.1560439877212047576904296875</LongitudeDegrees>
            </Position>
            <AltitudeMeters>44.40000152587890625</AltitudeMeters>
            <DistanceMeters>NAN</DistanceMeters>
          </Trackpoint>
          <Trackpoint>
            <Time>2022-07-05T14:34:19.000Z</Time>
            <Position>
              <LatitudeDegrees>44.3882325477898120880126953125</LatitudeDegrees>
              <LongitudeDegrees>-1.15554383955895900726318359375</LongitudeDegrees>
            </Position>
            <AltitudeMeters>44.40000152587890625</AltitudeMeters>
            <DistanceMeters>NAN</DistanceMeters>
          </Trackpoint>
          <Trackpoint>
            <Time>2022-07-05T14:34:26.000Z</Time>
            <Position>
              <LatitudeDegrees>44.38802375458180904388427734375</LatitudeDegrees>
              <LongitudeDegrees>-1.15534954704344272613525390625</LongitudeDegrees>
            </Position>
            <AltitudeMeters>44.40000152587890625</AltitudeMeters>
            <DistanceMeters>NAN</DistanceMeters>
          </Trackpoint>
          <Trackpoint>
            <Time>2022-07-05T14:34:31.000Z</Time>
            <Position>
              <LatitudeDegrees>44.38793666660785675048828125</LatitudeDegrees>
              <LongitudeDegrees>-1.1552314460277557373046875</LongitudeDegrees>
            </Position>
            <AltitudeMeters>44.40000152587890625</AltitudeMeters>
            <DistanceMeters>NAN</DistanceMeters>
          </Trackpoint>
          <Trackpoint>
            <Time>2022-07-05T14:34:34.000Z</Time>
            <Position>
              <LatitudeDegrees>44.38784413039684295654296875</LatitudeDegrees>
              <LongitudeDegrees>-1.15512290038168430328369140625</LongitudeDegrees>
            </Position>
            <AltitudeMeters>44.40000152587890625</AltitudeMeters>
            <DistanceMeters>NAN</DistanceMeters>
          </Trackpoint>
          <Trackpoint>
            <Time>2022-07-05T14:34:36.000Z</Time>
            <Position>
              <LatitudeDegrees>44.38777330331504344940185546875</LatitudeDegrees>
              <LongitudeDegrees>-1.1550431884825229644775390625</LongitudeDegrees>
            </Position>
            <AltitudeMeters>44.59999847412109375</AltitudeMeters>
            <DistanceMeters>NAN</DistanceMeters>
          </Trackpoint>
          <Trackpoint>
            <Time>2022-07-05T14:34:38.000Z</Time>
            <Position>
              <LatitudeDegrees>44.387700296938419342041015625</LatitudeDegrees>
              <LongitudeDegrees>-1.154961884021759033203125</LongitudeDegrees>
            </Position>
            <AltitudeMeters>44.59999847412109375</AltitudeMeters>
            <DistanceMeters>NAN</DistanceMeters>
          </Trackpoint>
          <Trackpoint>
            <Time>2022-07-05T14:34:46.000Z</Time>
            <Position>
              <LatitudeDegrees>44.38739997334778308868408203125</LatitudeDegrees>
              <LongitudeDegrees>-1.15462166257202625274658203125</LongitudeDegrees>
            </Position>
            <AltitudeMeters>45.200000762939453125</AltitudeMeters>
            <DistanceMeters>NAN</DistanceMeters>
          </Trackpoint>
          <Trackpoint>
            <Time>2022-07-05T14:34:54.000Z</Time>
            <Position>
              <LatitudeDegrees>44.38711448572576045989990234375</LatitudeDegrees>
              <LongitudeDegrees>-1.15428772754967212677001953125</LongitudeDegrees>
            </Position>
            <AltitudeMeters>44.59999847412109375</AltitudeMeters>
            <DistanceMeters>NAN</DistanceMeters>
          </Trackpoint>
          <Trackpoint>
            <Time>2022-07-05T14:34:55.000Z</Time>
            <Position>
              <LatitudeDegrees>44.3870788626372814178466796875</LatitudeDegrees>
              <LongitudeDegrees>-1.15424598567187786102294921875</LongitudeDegrees>
            </Position>
            <AltitudeMeters>44.59999847412109375</AltitudeMeters>
            <DistanceMeters>NAN</DistanceMeters>
          </Trackpoint>
          <Trackpoint>
            <Time>2022-07-05T14:35:01.000Z</Time>
            <Position>
              <LatitudeDegrees>44.38685699366033077239990234375</LatitudeDegrees>
              <LongitudeDegrees>-1.1539931036531925201416015625</LongitudeDegrees>
            </Position>
            <AltitudeMeters>45</AltitudeMeters>
            <DistanceMeters>NAN</DistanceMeters>
          </Trackpoint>
          <Trackpoint>
            <Time>2022-07-05T14:35:03.000Z</Time>
            <Position>
              <LatitudeDegrees>44.3868056125938892364501953125</LatitudeDegrees>
              <LongitudeDegrees>-1.15389369428157806396484375</LongitudeDegrees>
            </Position>
            <AltitudeMeters>45</AltitudeMeters>
            <DistanceMeters>NAN</DistanceMeters>
          </Trackpoint>
          <Trackpoint>
            <Time>2022-07-05T14:35:10.000Z</Time>
            <Position>
              <LatitudeDegrees>44.38667058013379573822021484375</LatitudeDegrees>
              <LongitudeDegrees>-1.15351550281047821044921875</LongitudeDegrees>
            </Position>
            <AltitudeMeters>45</AltitudeMeters>
            <DistanceMeters>NAN</DistanceMeters>
          </Trackpoint>
          <Trackpoint>
            <Time>2022-07-05T14:35:11.000Z</Time>
            <Position>
              <LatitudeDegrees>44.38664878718554973602294921875</LatitudeDegrees>
              <LongitudeDegrees>-1.15346630103886127471923828125</LongitudeDegrees>
            </Position>
            <AltitudeMeters>45</AltitudeMeters>
            <DistanceMeters>NAN</DistanceMeters>
          </Trackpoint>
          <Trackpoint>
            <Time>2022-07-05T14:35:19.000Z</Time>
            <Position>
              <LatitudeDegrees>44.38641962595283985137939453125</LatitudeDegrees>
              <LongitudeDegrees>-1.15313387475907802581787109375</LongitudeDegrees>
            </Position>
            <AltitudeMeters>44.799999237060546875</AltitudeMeters>
            <DistanceMeters>NAN</DistanceMeters>
          </Trackpoint>
          <Trackpoint>
            <Time>2022-07-05T14:35:27.000Z</Time>
            <Position>
              <LatitudeDegrees>44.38612885773181915283203125</LatitudeDegrees>
              <LongitudeDegrees>-1.15285676904022693634033203125</LongitudeDegrees>
            </Position>
            <AltitudeMeters>45.200000762939453125</AltitudeMeters>
            <DistanceMeters>NAN</DistanceMeters>
          </Trackpoint>
          <Trackpoint>
            <Time>2022-07-05T14:35:33.000Z</Time>
            <Position>
              <LatitudeDegrees>44.38595593906939029693603515625</LatitudeDegrees>
              <LongitudeDegrees>-1.15259475074708461761474609375</LongitudeDegrees>
            </Position>
            <AltitudeMeters>44.799999237060546875</AltitudeMeters>
            <DistanceMeters>NAN</DistanceMeters>
          </Trackpoint>
          <Trackpoint>
            <Time>2022-07-05T14:35:41.000Z</Time>
            <Position>
              <LatitudeDegrees>44.38573264516890048980712890625</LatitudeDegrees>
              <LongitudeDegrees>-1.15226433612406253814697265625</LongitudeDegrees>
            </Position>
            <AltitudeMeters>45</AltitudeMeters>
            <DistanceMeters>NAN</DistanceMeters>
          </Trackpoint>
          <Trackpoint>
            <Time>2022-07-05T14:35:44.000Z</Time>
            <Position>
              <LatitudeDegrees>44.3856780789792537689208984375</LatitudeDegrees>
              <LongitudeDegrees>-1.1522359214723110198974609375</LongitudeDegrees>
            </Position>
            <AltitudeMeters>45</AltitudeMeters>
            <DistanceMeters>NAN</DistanceMeters>
          </Trackpoint>
          <Trackpoint>
            <Time>2022-07-05T14:35:45.000Z</Time>
            <Position>
              <LatitudeDegrees>44.3856676854193210601806640625</LatitudeDegrees>
              <LongitudeDegrees>-1.15223717875778675079345703125</LongitudeDegrees>
            </Position>
            <AltitudeMeters>45</AltitudeMeters>
            <DistanceMeters>NAN</DistanceMeters>
          </Trackpoint>
          <Trackpoint>
            <Time>2022-07-05T14:35:48.000Z</Time>
            <Position>
              <LatitudeDegrees>44.3856204114854335784912109375</LatitudeDegrees>
              <LongitudeDegrees>-1.1522944271564483642578125</LongitudeDegrees>
            </Position>
            <AltitudeMeters>45</AltitudeMeters>
            <DistanceMeters>NAN</DistanceMeters>
          </Trackpoint>
          <Trackpoint>
            <Time>2022-07-05T14:35:50.000Z</Time>
            <Position>
              <LatitudeDegrees>44.385567270219326019287109375</LatitudeDegrees>
              <LongitudeDegrees>-1.15234337747097015380859375</LongitudeDegrees>
            </Position>
            <AltitudeMeters>44.799999237060546875</AltitudeMeters>
            <DistanceMeters>NAN</DistanceMeters>
          </Trackpoint>
          <Trackpoint>
            <Time>2022-07-05T14:35:51.000Z</Time>
            <Position>
              <LatitudeDegrees>44.38553667627274990081787109375</LatitudeDegrees>
              <LongitudeDegrees>-1.15235016681253910064697265625</LongitudeDegrees>
            </Position>
            <AltitudeMeters>44.799999237060546875</AltitudeMeters>
            <DistanceMeters>NAN</DistanceMeters>
          </Trackpoint>
          <Trackpoint>
            <Time>2022-07-05T14:35:53.000Z</Time>
            <Position>
              <LatitudeDegrees>44.3854831159114837646484375</LatitudeDegrees>
              <LongitudeDegrees>-1.15231228061020374298095703125</LongitudeDegrees>
            </Position>
            <AltitudeMeters>44.799999237060546875</AltitudeMeters>
            <DistanceMeters>NAN</DistanceMeters>
          </Trackpoint>
          <Trackpoint>
            <Time>2022-07-05T14:35:58.000Z</Time>
            <Position>
              <LatitudeDegrees>44.385356046259403228759765625</LatitudeDegrees>
              <LongitudeDegrees>-1.15210122428834438323974609375</LongitudeDegrees>
            </Position>
            <AltitudeMeters>45</AltitudeMeters>
            <DistanceMeters>NAN</DistanceMeters>
          </Trackpoint>
          <Trackpoint>
            <Time>2022-07-05T14:36:04.000Z</Time>
            <Position>
              <LatitudeDegrees>44.38517826609313488006591796875</LatitudeDegrees>
              <LongitudeDegrees>-1.15181691013276576995849609375</LongitudeDegrees>
            </Position>
            <AltitudeMeters>44.799999237060546875</AltitudeMeters>
            <DistanceMeters>NAN</DistanceMeters>
          </Trackpoint>
          <Trackpoint>
            <Time>2022-07-05T14:36:11.000Z</Time>
            <Position>
              <LatitudeDegrees>44.3849708139896392822265625</LatitudeDegrees>
              <LongitudeDegrees>-1.15148683078587055206298828125</LongitudeDegrees>
            </Position>
            <AltitudeMeters>44.799999237060546875</AltitudeMeters>
            <DistanceMeters>NAN</DistanceMeters>
          </Trackpoint>
          <Trackpoint>
            <Time>2022-07-05T14:36:12.000Z</Time>
            <Position>
              <LatitudeDegrees>44.384941644966602325439453125</LatitudeDegrees>
              <LongitudeDegrees>-1.1514468491077423095703125</LongitudeDegrees>
            </Position>
            <AltitudeMeters>45</AltitudeMeters>
            <DistanceMeters>NAN</DistanceMeters>
          </Trackpoint>
          <Trackpoint>
            <Time>2022-07-05T14:36:14.000Z</Time>
            <Position>
              <LatitudeDegrees>44.3848828040063381195068359375</LatitudeDegrees>
              <LongitudeDegrees>-1.15137149579823017120361328125</LongitudeDegrees>
            </Position>
            <AltitudeMeters>45.200000762939453125</AltitudeMeters>
            <DistanceMeters>NAN</DistanceMeters>
          </Trackpoint>
          <Trackpoint>
            <Time>2022-07-05T14:36:16.000Z</Time>
            <Position>
              <LatitudeDegrees>44.38482069410383701324462890625</LatitudeDegrees>
              <LongitudeDegrees>-1.1512783728539943695068359375</LongitudeDegrees>
            </Position>
            <AltitudeMeters>45.200000762939453125</AltitudeMeters>
            <DistanceMeters>NAN</DistanceMeters>
          </Trackpoint>
          <Trackpoint>
            <Time>2022-07-05T14:36:18.000Z</Time>
            <Position>
              <LatitudeDegrees>44.38476839102804660797119140625</LatitudeDegrees>
              <LongitudeDegrees>-1.151177622377872467041015625</LongitudeDegrees>
            </Position>
            <AltitudeMeters>45.40000152587890625</AltitudeMeters>
            <DistanceMeters>NAN</DistanceMeters>
          </Trackpoint>
          <Trackpoint>
            <Time>2022-07-05T14:36:19.000Z</Time>
            <Position>
              <LatitudeDegrees>44.38473955728113651275634765625</LatitudeDegrees>
              <LongitudeDegrees>-1.15113236010074615478515625</LongitudeDegrees>
            </Position>
            <AltitudeMeters>45.40000152587890625</AltitudeMeters>
            <DistanceMeters>NAN</DistanceMeters>
          </Trackpoint>
          <Trackpoint>
            <Time>2022-07-05T14:36:23.000Z</Time>
            <Position>
              <LatitudeDegrees>44.38462506048381328582763671875</LatitudeDegrees>
              <LongitudeDegrees>-1.15092272870242595672607421875</LongitudeDegrees>
            </Position>
            <AltitudeMeters>45.40000152587890625</AltitudeMeters>
            <DistanceMeters>NAN</DistanceMeters>
          </Trackpoint>
          <Trackpoint>
            <Time>2022-07-05T14:36:25.000Z</Time>
            <Position>
              <LatitudeDegrees>44.38456856645643711090087890625</LatitudeDegrees>
              <LongitudeDegrees>-1.15082114003598690032958984375</LongitudeDegrees>
            </Position>
            <AltitudeMeters>45.200000762939453125</AltitudeMeters>
            <DistanceMeters>NAN</DistanceMeters>
          </Trackpoint>
          <Trackpoint>
            <Time>2022-07-05T14:36:28.000Z</Time>
            <Position>
              <LatitudeDegrees>44.38449799083173274993896484375</LatitudeDegrees>
              <LongitudeDegrees>-1.1506343074142932891845703125</LongitudeDegrees>
            </Position>
            <AltitudeMeters>45.40000152587890625</AltitudeMeters>
            <DistanceMeters>NAN</DistanceMeters>
          </Trackpoint>
          <Trackpoint>
            <Time>2022-07-05T14:36:29.000Z</Time>
            <Position>
              <LatitudeDegrees>44.38447552733123302459716796875</LatitudeDegrees>
              <LongitudeDegrees>-1.1505679227411746978759765625</LongitudeDegrees>
            </Position>
            <AltitudeMeters>45.40000152587890625</AltitudeMeters>
            <DistanceMeters>NAN</DistanceMeters>
          </Trackpoint>
          <Trackpoint>
            <Time>2022-07-05T14:36:31.000Z</Time>
            <Position>
              <LatitudeDegrees>44.3844251520931720733642578125</LatitudeDegrees>
              <LongitudeDegrees>-1.15044797770678997039794921875</LongitudeDegrees>
            </Position>
            <AltitudeMeters>45.40000152587890625</AltitudeMeters>
            <DistanceMeters>NAN</DistanceMeters>
          </Trackpoint>
          <Trackpoint>
            <Time>2022-07-05T14:36:33.000Z</Time>
            <Position>
              <LatitudeDegrees>44.3843705020844936370849609375</LatitudeDegrees>
              <LongitudeDegrees>-1.15033985115587711334228515625</LongitudeDegrees>
            </Position>
            <AltitudeMeters>45.59999847412109375</AltitudeMeters>
            <DistanceMeters>NAN</DistanceMeters>
          </Trackpoint>
          <Trackpoint>
            <Time>2022-07-05T14:36:34.000Z</Time>
            <Position>
              <LatitudeDegrees>44.38434527255594730377197265625</LatitudeDegrees>
              <LongitudeDegrees>-1.15028151310980319976806640625</LongitudeDegrees>
            </Position>
            <AltitudeMeters>45.59999847412109375</AltitudeMeters>
            <DistanceMeters>NAN</DistanceMeters>
          </Trackpoint>
          <Trackpoint>
            <Time>2022-07-05T14:36:35.000Z</Time>
            <Position>
              <LatitudeDegrees>44.38431878574192523956298828125</LatitudeDegrees>
              <LongitudeDegrees>-1.150222755968570709228515625</LongitudeDegrees>
            </Position>
            <AltitudeMeters>45.59999847412109375</AltitudeMeters>
            <DistanceMeters>NAN</DistanceMeters>
          </Trackpoint>
          <Trackpoint>
            <Time>2022-07-05T14:36:37.000Z</Time>
            <Position>
              <LatitudeDegrees>44.38426128588616847991943359375</LatitudeDegrees>
              <LongitudeDegrees>-1.15011923946440219879150390625</LongitudeDegrees>
            </Position>
            <AltitudeMeters>45.59999847412109375</AltitudeMeters>
            <DistanceMeters>NAN</DistanceMeters>
          </Trackpoint>
          <Trackpoint>
            <Time>2022-07-05T14:36:38.000Z</Time>
            <Position>
              <LatitudeDegrees>44.38423228450119495391845703125</LatitudeDegrees>
              <LongitudeDegrees>-1.150073222815990447998046875</LongitudeDegrees>
            </Position>
            <AltitudeMeters>45.59999847412109375</AltitudeMeters>
            <DistanceMeters>NAN</DistanceMeters>
          </Trackpoint>
          <Trackpoint>
            <Time>2022-07-05T14:36:43.000Z</Time>
            <Position>
              <LatitudeDegrees>44.38409297727048397064208984375</LatitudeDegrees>
              <LongitudeDegrees>-1.1498195864260196685791015625</LongitudeDegrees>
            </Position>
            <AltitudeMeters>45.799999237060546875</AltitudeMeters>
            <DistanceMeters>NAN</DistanceMeters>
          </Trackpoint>
          <Trackpoint>
            <Time>2022-07-05T14:36:45.000Z</Time>
            <Position>
              <LatitudeDegrees>44.38403514213860034942626953125</LatitudeDegrees>
              <LongitudeDegrees>-1.149710118770599365234375</LongitudeDegrees>
            </Position>
            <AltitudeMeters>45.799999237060546875</AltitudeMeters>
            <DistanceMeters>NAN</DistanceMeters>
          </Trackpoint>
          <Trackpoint>
            <Time>2022-07-05T14:36:50.000Z</Time>
            <Position>
              <LatitudeDegrees>44.3838809989392757415771484375</LatitudeDegrees>
              <LongitudeDegrees>-1.14944516681134700775146484375</LongitudeDegrees>
            </Position>
            <AltitudeMeters>45.59999847412109375</AltitudeMeters>
            <DistanceMeters>NAN</DistanceMeters>
          </Trackpoint>
          <Trackpoint>
            <Time>2022-07-05T14:36:51.000Z</Time>
            <Position>
              <LatitudeDegrees>44.38384973444044589996337890625</LatitudeDegrees>
              <LongitudeDegrees>-1.1493941210210323333740234375</LongitudeDegrees>
            </Position>
            <AltitudeMeters>45.59999847412109375</AltitudeMeters>
            <DistanceMeters>NAN</DistanceMeters>
          </Trackpoint>
          <Trackpoint>
            <Time>2022-07-05T14:36:57.000Z</Time>
            <Position>
              <LatitudeDegrees>44.3836261890828609466552734375</LatitudeDegrees>
              <LongitudeDegrees>-1.1491647921502590179443359375</LongitudeDegrees>
            </Position>
            <AltitudeMeters>45.59999847412109375</AltitudeMeters>
            <DistanceMeters>NAN</DistanceMeters>
          </Trackpoint>
          <Trackpoint>
            <Time>2022-07-05T14:37:02.000Z</Time>
            <Position>
              <LatitudeDegrees>44.38348160125315189361572265625</LatitudeDegrees>
              <LongitudeDegrees>-1.1489733494818210601806640625</LongitudeDegrees>
            </Position>
            <AltitudeMeters>45.59999847412109375</AltitudeMeters>
            <DistanceMeters>NAN</DistanceMeters>
          </Trackpoint>
          <Trackpoint>
            <Time>2022-07-05T14:37:06.000Z</Time>
            <Position>
              <LatitudeDegrees>44.38344304449856281280517578125</LatitudeDegrees>
              <LongitudeDegrees>-1.14876388572156429290771484375</LongitudeDegrees>
            </Position>
            <AltitudeMeters>45.59999847412109375</AltitudeMeters>
            <DistanceMeters>NAN</DistanceMeters>
          </Trackpoint>
          <Trackpoint>
            <Time>2022-07-05T14:37:11.000Z</Time>
            <Position>
              <LatitudeDegrees>44.3834736384451389312744140625</LatitudeDegrees>
              <LongitudeDegrees>-1.14843933843076229095458984375</LongitudeDegrees>
            </Position>
            <AltitudeMeters>45.799999237060546875</AltitudeMeters>
            <DistanceMeters>NAN</DistanceMeters>
          </Trackpoint>
          <Trackpoint>
            <Time>2022-07-05T14:37:12.000Z</Time>
            <Position>
              <LatitudeDegrees>44.3834741413593292236328125</LatitudeDegrees>
              <LongitudeDegrees>-1.14836574532091617584228515625</LongitudeDegrees>
            </Position>
            <AltitudeMeters>45.799999237060546875</AltitudeMeters>
            <DistanceMeters>NAN</DistanceMeters>
          </Trackpoint>
          <Trackpoint>
            <Time>2022-07-05T14:37:13.000Z</Time>
            <Position>
              <LatitudeDegrees>44.38346676528453826904296875</LatitudeDegrees>
              <LongitudeDegrees>-1.14829584024846553802490234375</LongitudeDegrees>
            </Position>
            <AltitudeMeters>45.799999237060546875</AltitudeMeters>
            <DistanceMeters>NAN</DistanceMeters>
          </Trackpoint>
          <Trackpoint>
            <Time>2022-07-05T14:37:16.000Z</Time>
            <Position>
              <LatitudeDegrees>44.383405409753322601318359375</LatitudeDegrees>
              <LongitudeDegrees>-1.14811127074062824249267578125</LongitudeDegrees>
            </Position>
            <AltitudeMeters>45.59999847412109375</AltitudeMeters>
            <DistanceMeters>NAN</DistanceMeters>
          </Trackpoint>
          <Trackpoint>
            <Time>2022-07-05T14:37:24.000Z</Time>
            <Position>
              <LatitudeDegrees>44.3832131288945674896240234375</LatitudeDegrees>
              <LongitudeDegrees>-1.14764305762946605682373046875</LongitudeDegrees>
            </Position>
            <AltitudeMeters>45.59999847412109375</AltitudeMeters>
            <DistanceMeters>NAN</DistanceMeters>
          </Trackpoint>
          <Trackpoint>
            <Time>2022-07-05T14:37:29.000Z</Time>
            <Position>
              <LatitudeDegrees>44.38308949582278728485107421875</LatitudeDegrees>
              <LongitudeDegrees>-1.14734851755201816558837890625</LongitudeDegrees>
            </Position>
            <AltitudeMeters>45.200000762939453125</AltitudeMeters>
            <DistanceMeters>NAN</DistanceMeters>
          </Trackpoint>
          <Trackpoint>
            <Time>2022-07-05T14:37:33.000Z</Time>
            <Position>
              <LatitudeDegrees>44.38298455439507961273193359375</LatitudeDegrees>
              <LongitudeDegrees>-1.14711298607289791107177734375</LongitudeDegrees>
            </Position>
            <AltitudeMeters>45</AltitudeMeters>
            <DistanceMeters>NAN</DistanceMeters>
          </Trackpoint>
          <Trackpoint>
            <Time>2022-07-05T14:37:42.000Z</Time>
            <Position>
              <LatitudeDegrees>44.38275472261011600494384765625</LatitudeDegrees>
              <LongitudeDegrees>-1.14658609963953495025634765625</LongitudeDegrees>
            </Position>
            <AltitudeMeters>45.40000152587890625</AltitudeMeters>
            <DistanceMeters>NAN</DistanceMeters>
          </Trackpoint>
          <Trackpoint>
            <Time>2022-07-05T14:37:51.000Z</Time>
            <Position>
              <LatitudeDegrees>44.38250720500946044921875</LatitudeDegrees>
              <LongitudeDegrees>-1.14606273360550403594970703125</LongitudeDegrees>
            </Position>
            <AltitudeMeters>45.40000152587890625</AltitudeMeters>
            <DistanceMeters>NAN</DistanceMeters>
          </Trackpoint>
          <Trackpoint>
            <Time>2022-07-05T14:37:56.000Z</Time>
            <Position>
              <LatitudeDegrees>44.38236915506422519683837890625</LatitudeDegrees>
              <LongitudeDegrees>-1.1457791738212108612060546875</LongitudeDegrees>
            </Position>
            <AltitudeMeters>45.799999237060546875</AltitudeMeters>
            <DistanceMeters>NAN</DistanceMeters>
          </Trackpoint>
          <Trackpoint>
            <Time>2022-07-05T14:37:59.000Z</Time>
            <Position>
              <LatitudeDegrees>44.38227997161448001861572265625</LatitudeDegrees>
              <LongitudeDegrees>-1.14560390822589397430419921875</LongitudeDegrees>
            </Position>
            <AltitudeMeters>45.799999237060546875</AltitudeMeters>
            <DistanceMeters>NAN</DistanceMeters>
          </Trackpoint>
          <Trackpoint>
            <Time>2022-07-05T14:38:09.000Z</Time>
            <Position>
              <LatitudeDegrees>44.38202532939612865447998046875</LatitudeDegrees>
              <LongitudeDegrees>-1.14499554969370365142822265625</LongitudeDegrees>
            </Position>
            <AltitudeMeters>46.200000762939453125</AltitudeMeters>
            <DistanceMeters>NAN</DistanceMeters>
          </Trackpoint>
          <Trackpoint>
            <Time>2022-07-05T14:38:16.000Z</Time>
            <Position>
              <LatitudeDegrees>44.38183598220348358154296875</LatitudeDegrees>
              <LongitudeDegrees>-1.144552566111087799072265625</LongitudeDegrees>
            </Position>
            <AltitudeMeters>46.59999847412109375</AltitudeMeters>
            <DistanceMeters>NAN</DistanceMeters>
          </Trackpoint>
          <Trackpoint>
            <Time>2022-07-05T14:38:20.000Z</Time>
            <Position>
              <LatitudeDegrees>44.38173380680382251739501953125</LatitudeDegrees>
              <LongitudeDegrees>-1.144306473433971405029296875</LongitudeDegrees>
            </Position>
            <AltitudeMeters>46.59999847412109375</AltitudeMeters>
            <DistanceMeters>NAN</DistanceMeters>
          </Trackpoint>
          <Trackpoint>
            <Time>2022-07-05T14:38:23.000Z</Time>
            <Position>
              <LatitudeDegrees>44.38165820203721523284912109375</LatitudeDegrees>
              <LongitudeDegrees>-1.14413707517087459564208984375</LongitudeDegrees>
            </Position>
            <AltitudeMeters>46.59999847412109375</AltitudeMeters>
            <DistanceMeters>NAN</DistanceMeters>
          </Trackpoint>
          <Trackpoint>
            <Time>2022-07-05T14:38:24.000Z</Time>
            <Position>
              <LatitudeDegrees>44.3816353194415569305419921875</LatitudeDegrees>
              <LongitudeDegrees>-1.1440796591341495513916015625</LongitudeDegrees>
            </Position>
            <AltitudeMeters>46.59999847412109375</AltitudeMeters>
            <DistanceMeters>NAN</DistanceMeters>
          </Trackpoint>
          <Trackpoint>
            <Time>2022-07-05T14:38:27.000Z</Time>
            <Position>
              <LatitudeDegrees>44.38155795447528362274169921875</LatitudeDegrees>
              <LongitudeDegrees>-1.1438979394733905792236328125</LongitudeDegrees>
            </Position>
            <AltitudeMeters>46.59999847412109375</AltitudeMeters>
            <DistanceMeters>NAN</DistanceMeters>
          </Trackpoint>
          <Trackpoint>
            <Time>2022-07-05T14:38:33.000Z</Time>
            <Position>
              <LatitudeDegrees>44.3814110197126865386962890625</LatitudeDegrees>
              <LongitudeDegrees>-1.1435324884951114654541015625</LongitudeDegrees>
            </Position>
            <AltitudeMeters>46.59999847412109375</AltitudeMeters>
            <DistanceMeters>NAN</DistanceMeters>
          </Trackpoint>
          <Trackpoint>
            <Time>2022-07-05T14:38:41.000Z</Time>
            <Position>
              <LatitudeDegrees>44.381209351122379302978515625</LatitudeDegrees>
              <LongitudeDegrees>-1.1430515348911285400390625</LongitudeDegrees>
            </Position>
            <AltitudeMeters>46.59999847412109375</AltitudeMeters>
            <DistanceMeters>NAN</DistanceMeters>
          </Trackpoint>
          <Trackpoint>
            <Time>2022-07-05T14:38:42.000Z</Time>
            <Position>
              <LatitudeDegrees>44.38119015656411647796630859375</LatitudeDegrees>
              <LongitudeDegrees>-1.1429925262928009033203125</LongitudeDegrees>
            </Position>
            <AltitudeMeters>46.40000152587890625</AltitudeMeters>
            <DistanceMeters>NAN</DistanceMeters>
          </Trackpoint>
          <Trackpoint>
            <Time>2022-07-05T14:38:43.000Z</Time>
            <Position>
              <LatitudeDegrees>44.3811652623116970062255859375</LatitudeDegrees>
              <LongitudeDegrees>-1.14293284714221954345703125</LongitudeDegrees>
            </Position>
            <AltitudeMeters>46.40000152587890625</AltitudeMeters>
            <DistanceMeters>NAN</DistanceMeters>
          </Trackpoint>
          <Trackpoint>
            <Time>2022-07-05T14:38:47.000Z</Time>
            <Position>
              <LatitudeDegrees>44.38105906359851360321044921875</LatitudeDegrees>
              <LongitudeDegrees>-1.14269270561635494232177734375</LongitudeDegrees>
            </Position>
            <AltitudeMeters>46.200000762939453125</AltitudeMeters>
            <DistanceMeters>NAN</DistanceMeters>
          </Trackpoint>
          <Trackpoint>
            <Time>2022-07-05T14:38:52.000Z</Time>
            <Position>
              <LatitudeDegrees>44.38093484379351139068603515625</LatitudeDegrees>
              <LongitudeDegrees>-1.14240688271820545196533203125</LongitudeDegrees>
            </Position>
            <AltitudeMeters>46.59999847412109375</AltitudeMeters>
            <DistanceMeters>NAN</DistanceMeters>
          </Trackpoint>
          <Trackpoint>
            <Time>2022-07-05T14:38:55.000Z</Time>
            <Position>
              <LatitudeDegrees>44.38083660788834095001220703125</LatitudeDegrees>
              <LongitudeDegrees>-1.14222046919167041778564453125</LongitudeDegrees>
            </Position>
            <AltitudeMeters>46.799999237060546875</AltitudeMeters>
            <DistanceMeters>NAN</DistanceMeters>
          </Trackpoint>
          <Trackpoint>
            <Time>2022-07-05T14:39:01.000Z</Time>
            <Position>
              <LatitudeDegrees>44.38064868561923503875732421875</LatitudeDegrees>
              <LongitudeDegrees>-1.1418252624571323394775390625</LongitudeDegrees>
            </Position>
            <AltitudeMeters>46.59999847412109375</AltitudeMeters>
            <DistanceMeters>NAN</DistanceMeters>
          </Trackpoint>
          <Trackpoint>
            <Time>2022-07-05T14:39:02.000Z</Time>
            <Position>
              <LatitudeDegrees>44.380619935691356658935546875</LatitudeDegrees>
              <LongitudeDegrees>-1.14175133407115936279296875</LongitudeDegrees>
            </Position>
            <AltitudeMeters>46.59999847412109375</AltitudeMeters>
            <DistanceMeters>NAN</DistanceMeters>
          </Trackpoint>
          <Trackpoint>
            <Time>2022-07-05T14:39:07.000Z</Time>
            <Position>
              <LatitudeDegrees>44.3804631941020488739013671875</LatitudeDegrees>
              <LongitudeDegrees>-1.14141874015331268310546875</LongitudeDegrees>
            </Position>
            <AltitudeMeters>46.799999237060546875</AltitudeMeters>
            <DistanceMeters>NAN</DistanceMeters>
          </Trackpoint>
          <Trackpoint>
            <Time>2022-07-05T14:39:11.000Z</Time>
            <Position>
              <LatitudeDegrees>44.38034106977283954620361328125</LatitudeDegrees>
              <LongitudeDegrees>-1.14115630276501178741455078125</LongitudeDegrees>
            </Position>
            <AltitudeMeters>46.799999237060546875</AltitudeMeters>
            <DistanceMeters>NAN</DistanceMeters>
          </Trackpoint>
          <Trackpoint>
            <Time>2022-07-05T14:39:20.000Z</Time>
            <Position>
              <LatitudeDegrees>44.38007502816617488861083984375</LatitudeDegrees>
              <LongitudeDegrees>-1.14055775105953216552734375</LongitudeDegrees>
            </Position>
            <AltitudeMeters>47</AltitudeMeters>
            <DistanceMeters>NAN</DistanceMeters>
          </Trackpoint>
          <Trackpoint>
            <Time>2022-07-05T14:39:29.000Z</Time>
            <Position>
              <LatitudeDegrees>44.37980353832244873046875</LatitudeDegrees>
              <LongitudeDegrees>-1.139945201575756072998046875</LongitudeDegrees>
            </Position>
            <AltitudeMeters>47.200000762939453125</AltitudeMeters>
            <DistanceMeters>NAN</DistanceMeters>
          </Trackpoint>
          <Trackpoint>
            <Time>2022-07-05T14:39:36.000Z</Time>
            <Position>
              <LatitudeDegrees>44.3795914761722087860107421875</LatitudeDegrees>
              <LongitudeDegrees>-1.13947388716042041778564453125</LongitudeDegrees>
            </Position>
            <AltitudeMeters>47.40000152587890625</AltitudeMeters>
            <DistanceMeters>NAN</DistanceMeters>
          </Trackpoint>
          <Trackpoint>
            <Time>2022-07-05T14:39:39.000Z</Time>
            <Position>
              <LatitudeDegrees>44.37950514256954193115234375</LatitudeDegrees>
              <LongitudeDegrees>-1.13926115445792675018310546875</LongitudeDegrees>
            </Position>
            <AltitudeMeters>47.40000152587890625</AltitudeMeters>
            <DistanceMeters>NAN</DistanceMeters>
          </Trackpoint>
          <Trackpoint>
            <Time>2022-07-05T14:39:45.000Z</Time>
            <Position>
              <LatitudeDegrees>44.379313029348850250244140625</LatitudeDegrees>
              <LongitudeDegrees>-1.13884876482188701629638671875</LongitudeDegrees>
            </Position>
            <AltitudeMeters>47.40000152587890625</AltitudeMeters>
            <DistanceMeters>NAN</DistanceMeters>
          </Trackpoint>
          <Trackpoint>
            <Time>2022-07-05T14:39:49.000Z</Time>
            <Position>
              <LatitudeDegrees>44.37919576652348041534423828125</LatitudeDegrees>
              <LongitudeDegrees>-1.13857618533074855804443359375</LongitudeDegrees>
            </Position>
            <AltitudeMeters>47.59999847412109375</AltitudeMeters>
            <DistanceMeters>NAN</DistanceMeters>
          </Trackpoint>
          <Trackpoint>
            <Time>2022-07-05T14:39:53.000Z</Time>
            <Position>
              <LatitudeDegrees>44.37907523475587368011474609375</LatitudeDegrees>
              <LongitudeDegrees>-1.13831064663827419281005859375</LongitudeDegrees>
            </Position>
            <AltitudeMeters>48</AltitudeMeters>
            <DistanceMeters>NAN</DistanceMeters>
          </Trackpoint>
          <Trackpoint>
            <Time>2022-07-05T14:40:03.000Z</Time>
            <Position>
              <LatitudeDegrees>44.3787861429154872894287109375</LatitudeDegrees>
              <LongitudeDegrees>-1.1376584507524967193603515625</LongitudeDegrees>
            </Position>
            <AltitudeMeters>48.200000762939453125</AltitudeMeters>
            <DistanceMeters>NAN</DistanceMeters>
          </Trackpoint>
          <Trackpoint>
            <Time>2022-07-05T14:40:10.000Z</Time>
            <Position>
              <LatitudeDegrees>44.37859528698027133941650390625</LatitudeDegrees>
              <LongitudeDegrees>-1.1371954344213008880615234375</LongitudeDegrees>
            </Position>
            <AltitudeMeters>48.799999237060546875</AltitudeMeters>
            <DistanceMeters>NAN</DistanceMeters>
          </Trackpoint>
          <Trackpoint>
            <Time>2022-07-05T14:40:12.000Z</Time>
            <Position>
              <LatitudeDegrees>44.37854759395122528076171875</LatitudeDegrees>
              <LongitudeDegrees>-1.13706442527472972869873046875</LongitudeDegrees>
            </Position>
            <AltitudeMeters>48.799999237060546875</AltitudeMeters>
            <DistanceMeters>NAN</DistanceMeters>
          </Trackpoint>
          <Trackpoint>
            <Time>2022-07-05T14:40:22.000Z</Time>
            <Position>
              <LatitudeDegrees>44.378279708325862884521484375</LatitudeDegrees>
              <LongitudeDegrees>-1.13643360324203968048095703125</LongitudeDegrees>
            </Position>
            <AltitudeMeters>49</AltitudeMeters>
            <DistanceMeters>NAN</DistanceMeters>
          </Trackpoint>
          <Trackpoint>
            <Time>2022-07-05T14:40:29.000Z</Time>
            <Position>
              <LatitudeDegrees>44.37808415852487087249755859375</LatitudeDegrees>
              <LongitudeDegrees>-1.1360135860741138458251953125</LongitudeDegrees>
            </Position>
            <AltitudeMeters>48.59999847412109375</AltitudeMeters>
            <DistanceMeters>NAN</DistanceMeters>
          </Trackpoint>
          <Trackpoint>
            <Time>2022-07-05T14:40:33.000Z</Time>
            <Position>
              <LatitudeDegrees>44.37795482575893402099609375</LatitudeDegrees>
              <LongitudeDegrees>-1.13574729301035404205322265625</LongitudeDegrees>
            </Position>
            <AltitudeMeters>48.40000152587890625</AltitudeMeters>
            <DistanceMeters>NAN</DistanceMeters>
          </Trackpoint>
          <Trackpoint>
            <Time>2022-07-05T14:40:37.000Z</Time>
            <Position>
              <LatitudeDegrees>44.37784753739833831787109375</LatitudeDegrees>
              <LongitudeDegrees>-1.1354989372193813323974609375</LongitudeDegrees>
            </Position>
            <AltitudeMeters>48.59999847412109375</AltitudeMeters>
            <DistanceMeters>NAN</DistanceMeters>
          </Trackpoint>
          <Trackpoint>
            <Time>2022-07-05T14:40:40.000Z</Time>
            <Position>
              <LatitudeDegrees>44.37775902450084686279296875</LatitudeDegrees>
              <LongitudeDegrees>-1.13530472852289676666259765625</LongitudeDegrees>
            </Position>
            <AltitudeMeters>49</AltitudeMeters>
            <DistanceMeters>NAN</DistanceMeters>
          </Trackpoint>
          <Trackpoint>
            <Time>2022-07-05T14:40:44.000Z</Time>
            <Position>
              <LatitudeDegrees>44.377649389207363128662109375</LatitudeDegrees>
              <LongitudeDegrees>-1.135050170123577117919921875</LongitudeDegrees>
            </Position>
            <AltitudeMeters>49</AltitudeMeters>
            <DistanceMeters>NAN</DistanceMeters>
          </Trackpoint>
          <Trackpoint>
            <Time>2022-07-05T14:40:47.000Z</Time>
            <Position>
              <LatitudeDegrees>44.3775643967092037200927734375</LatitudeDegrees>
              <LongitudeDegrees>-1.134863756597042083740234375</LongitudeDegrees>
            </Position>
            <AltitudeMeters>49</AltitudeMeters>
            <DistanceMeters>NAN</DistanceMeters>
          </Trackpoint>
          <Trackpoint>
            <Time>2022-07-05T14:40:49.000Z</Time>
            <Position>
              <LatitudeDegrees>44.3775077350437641143798828125</LatitudeDegrees>
              <LongitudeDegrees>-1.13473794423043727874755859375</LongitudeDegrees>
            </Position>
            <AltitudeMeters>49</AltitudeMeters>
            <DistanceMeters>NAN</DistanceMeters>
          </Trackpoint>
          <Trackpoint>
            <Time>2022-07-05T14:40:52.000Z</Time>
            <Position>
              <LatitudeDegrees>44.37742852605879306793212890625</LatitudeDegrees>
              <LongitudeDegrees>-1.13455136306583881378173828125</LongitudeDegrees>
            </Position>
            <AltitudeMeters>49</AltitudeMeters>
            <DistanceMeters>NAN</DistanceMeters>
          </Trackpoint>
          <Trackpoint>
            <Time>2022-07-05T14:40:58.000Z</Time>
            <Position>
              <LatitudeDegrees>44.37727161683142185211181640625</LatitudeDegrees>
              <LongitudeDegrees>-1.134201586246490478515625</LongitudeDegrees>
            </Position>
            <AltitudeMeters>49</AltitudeMeters>
            <DistanceMeters>NAN</DistanceMeters>
          </Trackpoint>
          <Trackpoint>
            <Time>2022-07-05T14:40:59.000Z</Time>
            <Position>
              <LatitudeDegrees>44.3772438727319240570068359375</LatitudeDegrees>
              <LongitudeDegrees>-1.13414215855300426483154296875</LongitudeDegrees>
            </Position>
            <AltitudeMeters>49.200000762939453125</AltitudeMeters>
            <DistanceMeters>NAN</DistanceMeters>
          </Trackpoint>
          <Trackpoint>
            <Time>2022-07-05T14:41:01.000Z</Time>
            <Position>
              <LatitudeDegrees>44.37718980945646762847900390625</LatitudeDegrees>
              <LongitudeDegrees>-1.13403461873531341552734375</LongitudeDegrees>
            </Position>
            <AltitudeMeters>49.200000762939453125</AltitudeMeters>
            <DistanceMeters>NAN</DistanceMeters>
          </Trackpoint>
          <Trackpoint>
            <Time>2022-07-05T14:41:03.000Z</Time>
            <Position>
              <LatitudeDegrees>44.3771038949489593505859375</LatitudeDegrees>
              <LongitudeDegrees>-1.13392003811895847320556640625</LongitudeDegrees>
            </Position>
            <AltitudeMeters>49.200000762939453125</AltitudeMeters>
            <DistanceMeters>NAN</DistanceMeters>
          </Trackpoint>
          <Trackpoint>
            <Time>2022-07-05T14:41:04.000Z</Time>
            <Position>
              <LatitudeDegrees>44.3770547769963741302490234375</LatitudeDegrees>
              <LongitudeDegrees>-1.1338882707059383392333984375</LongitudeDegrees>
            </Position>
            <AltitudeMeters>49.200000762939453125</AltitudeMeters>
            <DistanceMeters>NAN</DistanceMeters>
          </Trackpoint>
          <Trackpoint>
            <Time>2022-07-05T14:41:05.000Z</Time>
            <Position>
              <LatitudeDegrees>44.377003647387027740478515625</LatitudeDegrees>
              <LongitudeDegrees>-1.13386907614767551422119140625</LongitudeDegrees>
            </Position>
            <AltitudeMeters>49.40000152587890625</AltitudeMeters>
            <DistanceMeters>NAN</DistanceMeters>
          </Trackpoint>
          <Trackpoint>
            <Time>2022-07-05T14:41:07.000Z</Time>
            <Position>
              <LatitudeDegrees>44.3769161403179168701171875</LatitudeDegrees>
              <LongitudeDegrees>-1.1338396556675434112548828125</LongitudeDegrees>
            </Position>
            <AltitudeMeters>49.59999847412109375</AltitudeMeters>
            <DistanceMeters>NAN</DistanceMeters>
          </Trackpoint>
          <Trackpoint>
            <Time>2022-07-05T14:41:08.000Z</Time>
            <Position>
              <LatitudeDegrees>44.37686727382242679595947265625</LatitudeDegrees>
              <LongitudeDegrees>-1.13380654715001583099365234375</LongitudeDegrees>
            </Position>
            <AltitudeMeters>49.59999847412109375</AltitudeMeters>
            <DistanceMeters>NAN</DistanceMeters>
          </Trackpoint>
          <Trackpoint>
            <Time>2022-07-05T14:41:10.000Z</Time>
            <Position>
              <LatitudeDegrees>44.37679208815097808837890625</LatitudeDegrees>
              <LongitudeDegrees>-1.13373848609626293182373046875</LongitudeDegrees>
            </Position>
            <AltitudeMeters>49.59999847412109375</AltitudeMeters>
            <DistanceMeters>NAN</DistanceMeters>
          </Trackpoint>
          <Trackpoint>
            <Time>2022-07-05T14:41:12.000Z</Time>
            <Position>
              <LatitudeDegrees>44.37673433683812618255615234375</LatitudeDegrees>
              <LongitudeDegrees>-1.13365768454968929290771484375</LongitudeDegrees>
            </Position>
            <AltitudeMeters>49.40000152587890625</AltitudeMeters>
            <DistanceMeters>NAN</DistanceMeters>
          </Trackpoint>
          <Trackpoint>
            <Time>2022-07-05T14:41:13.000Z</Time>
            <Position>
              <LatitudeDegrees>44.37671254388988018035888671875</LatitudeDegrees>
              <LongitudeDegrees>-1.13361175172030925750732421875</LongitudeDegrees>
            </Position>
            <AltitudeMeters>49.40000152587890625</AltitudeMeters>
            <DistanceMeters>NAN</DistanceMeters>
          </Trackpoint>
          <Trackpoint>
            <Time>2022-07-05T14:41:15.000Z</Time>
            <Position>
              <LatitudeDegrees>44.37668102793395519256591796875</LatitudeDegrees>
              <LongitudeDegrees>-1.13350412808358669281005859375</LongitudeDegrees>
            </Position>
            <AltitudeMeters>49.40000152587890625</AltitudeMeters>
            <DistanceMeters>NAN</DistanceMeters>
          </Trackpoint>
          <Trackpoint>
            <Time>2022-07-05T14:41:17.000Z</Time>
            <Position>
              <LatitudeDegrees>44.37666376121342182159423828125</LatitudeDegrees>
              <LongitudeDegrees>-1.13338376395404338836669921875</LongitudeDegrees>
            </Position>
            <AltitudeMeters>49.200000762939453125</AltitudeMeters>
            <DistanceMeters>NAN</DistanceMeters>
          </Trackpoint>
          <Trackpoint>
            <Time>2022-07-05T14:41:18.000Z</Time>
            <Position>
              <LatitudeDegrees>44.3766648508608341217041015625</LatitudeDegrees>
              <LongitudeDegrees>-1.13333162851631641387939453125</LongitudeDegrees>
            </Position>
            <AltitudeMeters>49.200000762939453125</AltitudeMeters>
            <DistanceMeters>NAN</DistanceMeters>
          </Trackpoint>
          <Trackpoint>
            <Time>2022-07-05T14:41:19.000Z</Time>
            <Position>
              <LatitudeDegrees>44.37667029909789562225341796875</LatitudeDegrees>
              <LongitudeDegrees>-1.1332643218338489532470703125</LongitudeDegrees>
            </Position>
            <AltitudeMeters>49.200000762939453125</AltitudeMeters>
            <DistanceMeters>NAN</DistanceMeters>
          </Trackpoint>
          <Trackpoint>
            <Time>2022-07-05T14:41:21.000Z</Time>
            <Position>
              <LatitudeDegrees>44.37669276259839534759521484375</LatitudeDegrees>
              <LongitudeDegrees>-1.133120320737361907958984375</LongitudeDegrees>
            </Position>
            <AltitudeMeters>49.40000152587890625</AltitudeMeters>
            <DistanceMeters>NAN</DistanceMeters>
          </Trackpoint>
          <Trackpoint>
            <Time>2022-07-05T14:41:23.000Z</Time>
            <Position>
              <LatitudeDegrees>44.3766765855252742767333984375</LatitudeDegrees>
              <LongitudeDegrees>-1.13299601711332798004150390625</LongitudeDegrees>
            </Position>
            <AltitudeMeters>49.59999847412109375</AltitudeMeters>
            <DistanceMeters>NAN</DistanceMeters>
          </Trackpoint>
          <Trackpoint>
            <Time>2022-07-05T14:41:25.000Z</Time>
            <Position>
              <LatitudeDegrees>44.376632831990718841552734375</LatitudeDegrees>
              <LongitudeDegrees>-1.13286676816642284393310546875</LongitudeDegrees>
            </Position>
            <AltitudeMeters>50</AltitudeMeters>
            <DistanceMeters>NAN</DistanceMeters>
          </Trackpoint>
          <Trackpoint>
            <Time>2022-07-05T14:41:30.000Z</Time>
            <Position>
              <LatitudeDegrees>44.376528896391391754150390625</LatitudeDegrees>
              <LongitudeDegrees>-1.13257625140249729156494140625</LongitudeDegrees>
            </Position>
            <AltitudeMeters>50.59999847412109375</AltitudeMeters>
            <DistanceMeters>NAN</DistanceMeters>
          </Trackpoint>
          <Trackpoint>
            <Time>2022-07-05T14:41:34.000Z</Time>
            <Position>
              <LatitudeDegrees>44.37644205987453460693359375</LatitudeDegrees>
              <LongitudeDegrees>-1.13235899247229099273681640625</LongitudeDegrees>
            </Position>
            <AltitudeMeters>50.40000152587890625</AltitudeMeters>
            <DistanceMeters>NAN</DistanceMeters>
          </Trackpoint>
          <Trackpoint>
            <Time>2022-07-05T14:41:37.000Z</Time>
            <Position>
              <LatitudeDegrees>44.37637240625917911529541015625</LatitudeDegrees>
              <LongitudeDegrees>-1.132192946970462799072265625</LongitudeDegrees>
            </Position>
            <AltitudeMeters>50.200000762939453125</AltitudeMeters>
            <DistanceMeters>NAN</DistanceMeters>
          </Trackpoint>
          <Trackpoint>
            <Time>2022-07-05T14:41:46.000Z</Time>
            <Position>
              <LatitudeDegrees>44.376148022711277008056640625</LatitudeDegrees>
              <LongitudeDegrees>-1.13165072165429592132568359375</LongitudeDegrees>
            </Position>
            <AltitudeMeters>49.40000152587890625</AltitudeMeters>
            <DistanceMeters>NAN</DistanceMeters>
          </Trackpoint>
          <Trackpoint>
            <Time>2022-07-05T14:41:54.000Z</Time>
            <Position>
              <LatitudeDegrees>44.37591743655502796173095703125</LatitudeDegrees>
              <LongitudeDegrees>-1.13117672502994537353515625</LongitudeDegrees>
            </Position>
            <AltitudeMeters>49.799999237060546875</AltitudeMeters>
            <DistanceMeters>NAN</DistanceMeters>
          </Trackpoint>
          <Trackpoint>
            <Time>2022-07-05T14:41:57.000Z</Time>
            <Position>
              <LatitudeDegrees>44.375835545361042022705078125</LatitudeDegrees>
              <LongitudeDegrees>-1.13099425099790096282958984375</LongitudeDegrees>
            </Position>
            <AltitudeMeters>50</AltitudeMeters>
            <DistanceMeters>NAN</DistanceMeters>
          </Trackpoint>
          <Trackpoint>
            <Time>2022-07-05T14:42:07.000Z</Time>
            <Position>
              <LatitudeDegrees>44.37558266334235668182373046875</LatitudeDegrees>
              <LongitudeDegrees>-1.13037876784801483154296875</LongitudeDegrees>
            </Position>
            <AltitudeMeters>50</AltitudeMeters>
            <DistanceMeters>NAN</DistanceMeters>
          </Trackpoint>
          <Trackpoint>
            <Time>2022-07-05T14:42:15.000Z</Time>
            <Position>
              <LatitudeDegrees>44.37534905970096588134765625</LatitudeDegrees>
              <LongitudeDegrees>-1.12985531799495220184326171875</LongitudeDegrees>
            </Position>
            <AltitudeMeters>50.40000152587890625</AltitudeMeters>
            <DistanceMeters>NAN</DistanceMeters>
          </Trackpoint>
          <Trackpoint>
            <Time>2022-07-05T14:42:19.000Z</Time>
            <Position>
              <LatitudeDegrees>44.375238753855228424072265625</LatitudeDegrees>
              <LongitudeDegrees>-1.12960939295589923858642578125</LongitudeDegrees>
            </Position>
            <AltitudeMeters>50.200000762939453125</AltitudeMeters>
            <DistanceMeters>NAN</DistanceMeters>
          </Trackpoint>
          <Trackpoint>
            <Time>2022-07-05T14:42:24.000Z</Time>
            <Position>
              <LatitudeDegrees>44.37508620321750640869140625</LatitudeDegrees>
              <LongitudeDegrees>-1.12925894558429718017578125</LongitudeDegrees>
            </Position>
            <AltitudeMeters>50.40000152587890625</AltitudeMeters>
            <DistanceMeters>NAN</DistanceMeters>
          </Trackpoint>
          <Trackpoint>
            <Time>2022-07-05T14:42:29.000Z</Time>
            <Position>
              <LatitudeDegrees>44.37495418824255466461181640625</LatitudeDegrees>
              <LongitudeDegrees>-1.1289164610207080841064453125</LongitudeDegrees>
            </Position>
            <AltitudeMeters>50.59999847412109375</AltitudeMeters>
            <DistanceMeters>NAN</DistanceMeters>
          </Trackpoint>
          <Trackpoint>
            <Time>2022-07-05T14:42:31.000Z</Time>
            <Position>
              <LatitudeDegrees>44.3748922459781169891357421875</LatitudeDegrees>
              <LongitudeDegrees>-1.12877908162772655487060546875</LongitudeDegrees>
            </Position>
            <AltitudeMeters>50.799999237060546875</AltitudeMeters>
            <DistanceMeters>NAN</DistanceMeters>
          </Trackpoint>
          <Trackpoint>
            <Time>2022-07-05T14:42:40.000Z</Time>
            <Position>
              <LatitudeDegrees>44.37462142668664455413818359375</LatitudeDegrees>
              <LongitudeDegrees>-1.12819586880505084991455078125</LongitudeDegrees>
            </Position>
            <AltitudeMeters>50.59999847412109375</AltitudeMeters>
            <DistanceMeters>NAN</DistanceMeters>
          </Trackpoint>
          <Trackpoint>
            <Time>2022-07-05T14:42:50.000Z</Time>
            <Position>
              <LatitudeDegrees>44.3743331730365753173828125</LatitudeDegrees>
              <LongitudeDegrees>-1.1275215446949005126953125</LongitudeDegrees>
            </Position>
            <AltitudeMeters>50.799999237060546875</AltitudeMeters>
            <DistanceMeters>NAN</DistanceMeters>
          </Trackpoint>
          <Trackpoint>
            <Time>2022-07-05T14:42:51.000Z</Time>
            <Position>
              <LatitudeDegrees>44.3743035010993480682373046875</LatitudeDegrees>
              <LongitudeDegrees>-1.12745356746017932891845703125</LongitudeDegrees>
            </Position>
            <AltitudeMeters>50.799999237060546875</AltitudeMeters>
            <DistanceMeters>NAN</DistanceMeters>
          </Trackpoint>
          <Trackpoint>
            <Time>2022-07-05T14:43:01.000Z</Time>
            <Position>
              <LatitudeDegrees>44.3740141578018665313720703125</LatitudeDegrees>
              <LongitudeDegrees>-1.12679709680378437042236328125</LongitudeDegrees>
            </Position>
            <AltitudeMeters>50.799999237060546875</AltitudeMeters>
            <DistanceMeters>NAN</DistanceMeters>
          </Trackpoint>
          <Trackpoint>
            <Time>2022-07-05T14:43:05.000Z</Time>
            <Position>
              <LatitudeDegrees>44.37388415448367595672607421875</LatitudeDegrees>
              <LongitudeDegrees>-1.12652284093201160430908203125</LongitudeDegrees>
            </Position>
            <AltitudeMeters>51</AltitudeMeters>
            <DistanceMeters>NAN</DistanceMeters>
          </Trackpoint>
          <Trackpoint>
            <Time>2022-07-05T14:43:09.000Z</Time>
            <Position>
              <LatitudeDegrees>44.3737672269344329833984375</LatitudeDegrees>
              <LongitudeDegrees>-1.1262463219463825225830078125</LongitudeDegrees>
            </Position>
            <AltitudeMeters>51.200000762939453125</AltitudeMeters>
            <DistanceMeters>NAN</DistanceMeters>
          </Trackpoint>
          <Trackpoint>
            <Time>2022-07-05T14:43:15.000Z</Time>
            <Position>
              <LatitudeDegrees>44.37358609400689601898193359375</LatitudeDegrees>
              <LongitudeDegrees>-1.125856228172779083251953125</LongitudeDegrees>
            </Position>
            <AltitudeMeters>52</AltitudeMeters>
            <DistanceMeters>NAN</DistanceMeters>
          </Trackpoint>
          <Trackpoint>
            <Time>2022-07-05T14:43:17.000Z</Time>
            <Position>
              <LatitudeDegrees>44.37352641485631465911865234375</LatitudeDegrees>
              <LongitudeDegrees>-1.125728152692317962646484375</LongitudeDegrees>
            </Position>
            <AltitudeMeters>52</AltitudeMeters>
            <DistanceMeters>NAN</DistanceMeters>
          </Trackpoint>
          <Trackpoint>
            <Time>2022-07-05T14:43:26.000Z</Time>
            <Position>
              <LatitudeDegrees>44.37327277846634387969970703125</LatitudeDegrees>
              <LongitudeDegrees>-1.1251544952392578125</LongitudeDegrees>
            </Position>
            <AltitudeMeters>51.799999237060546875</AltitudeMeters>
            <DistanceMeters>NAN</DistanceMeters>
          </Trackpoint>
          <Trackpoint>
            <Time>2022-07-05T14:43:37.000Z</Time>
            <Position>
              <LatitudeDegrees>44.37296725809574127197265625</LatitudeDegrees>
              <LongitudeDegrees>-1.1244465596973896026611328125</LongitudeDegrees>
            </Position>
            <AltitudeMeters>51.40000152587890625</AltitudeMeters>
            <DistanceMeters>NAN</DistanceMeters>
          </Trackpoint>
          <Trackpoint>
            <Time>2022-07-05T14:43:47.000Z</Time>
            <Position>
              <LatitudeDegrees>44.3726660124957561492919921875</LatitudeDegrees>
              <LongitudeDegrees>-1.123786903917789459228515625</LongitudeDegrees>
            </Position>
            <AltitudeMeters>51.40000152587890625</AltitudeMeters>
            <DistanceMeters>NAN</DistanceMeters>
          </Trackpoint>
          <Trackpoint>
            <Time>2022-07-05T14:43:48.000Z</Time>
            <Position>
              <LatitudeDegrees>44.372639693319797515869140625</LatitudeDegrees>
              <LongitudeDegrees>-1.12371926195919513702392578125</LongitudeDegrees>
            </Position>
            <AltitudeMeters>51.40000152587890625</AltitudeMeters>
            <DistanceMeters>NAN</DistanceMeters>
          </Trackpoint>
          <Trackpoint>
            <Time>2022-07-05T14:43:58.000Z</Time>
            <Position>
              <LatitudeDegrees>44.3723558820784091949462890625</LatitudeDegrees>
              <LongitudeDegrees>-1.12302758730947971343994140625</LongitudeDegrees>
            </Position>
            <AltitudeMeters>51.59999847412109375</AltitudeMeters>
            <DistanceMeters>NAN</DistanceMeters>
          </Trackpoint>
          <Trackpoint>
            <Time>2022-07-05T14:43:59.000Z</Time>
            <Position>
              <LatitudeDegrees>44.37232646159827709197998046875</LatitudeDegrees>
              <LongitudeDegrees>-1.1229589395225048065185546875</LongitudeDegrees>
            </Position>
            <AltitudeMeters>51.59999847412109375</AltitudeMeters>
            <DistanceMeters>NAN</DistanceMeters>
          </Trackpoint>
          <Trackpoint>
            <Time>2022-07-05T14:44:07.000Z</Time>
            <Position>
              <LatitudeDegrees>44.37207986600697040557861328125</LatitudeDegrees>
              <LongitudeDegrees>-1.1224328912794589996337890625</LongitudeDegrees>
            </Position>
            <AltitudeMeters>51.59999847412109375</AltitudeMeters>
            <DistanceMeters>NAN</DistanceMeters>
          </Trackpoint>
          <Trackpoint>
            <Time>2022-07-05T14:44:09.000Z</Time>
            <Position>
              <LatitudeDegrees>44.372020773589611053466796875</LatitudeDegrees>
              <LongitudeDegrees>-1.12230531871318817138671875</LongitudeDegrees>
            </Position>
            <AltitudeMeters>51.59999847412109375</AltitudeMeters>
            <DistanceMeters>NAN</DistanceMeters>
          </Trackpoint>
          <Trackpoint>
            <Time>2022-07-05T14:44:17.000Z</Time>
            <Position>
              <LatitudeDegrees>44.37178264372050762176513671875</LatitudeDegrees>
              <LongitudeDegrees>-1.12177683971822261810302734375</LongitudeDegrees>
            </Position>
            <AltitudeMeters>51.40000152587890625</AltitudeMeters>
            <DistanceMeters>NAN</DistanceMeters>
          </Trackpoint>
          <Trackpoint>
            <Time>2022-07-05T14:44:25.000Z</Time>
            <Position>
              <LatitudeDegrees>44.37153571285307407379150390625</LatitudeDegrees>
              <LongitudeDegrees>-1.12122832797467708587646484375</LongitudeDegrees>
            </Position>
            <AltitudeMeters>51.40000152587890625</AltitudeMeters>
            <DistanceMeters>NAN</DistanceMeters>
          </Trackpoint>
          <Trackpoint>
            <Time>2022-07-05T14:44:32.000Z</Time>
            <Position>
              <LatitudeDegrees>44.3713104911148548126220703125</LatitudeDegrees>
              <LongitudeDegrees>-1.1207538284361362457275390625</LongitudeDegrees>
            </Position>
            <AltitudeMeters>51.799999237060546875</AltitudeMeters>
            <DistanceMeters>NAN</DistanceMeters>
          </Trackpoint>
          <Trackpoint>
            <Time>2022-07-05T14:44:41.000Z</Time>
            <Position>
              <LatitudeDegrees>44.37103078700602054595947265625</LatitudeDegrees>
              <LongitudeDegrees>-1.12011873163282871246337890625</LongitudeDegrees>
            </Position>
            <AltitudeMeters>52</AltitudeMeters>
            <DistanceMeters>NAN</DistanceMeters>
          </Trackpoint>
          <Trackpoint>
            <Time>2022-07-05T14:44:47.000Z</Time>
            <Position>
              <LatitudeDegrees>44.37088158912956714630126953125</LatitudeDegrees>
              <LongitudeDegrees>-1.1197270452976226806640625</LongitudeDegrees>
            </Position>
            <AltitudeMeters>52</AltitudeMeters>
            <DistanceMeters>NAN</DistanceMeters>
          </Trackpoint>
          <Trackpoint>
            <Time>2022-07-05T14:44:56.000Z</Time>
            <Position>
              <LatitudeDegrees>44.3706530146300792694091796875</LatitudeDegrees>
              <LongitudeDegrees>-1.11910385079681873321533203125</LongitudeDegrees>
            </Position>
            <AltitudeMeters>52</AltitudeMeters>
            <DistanceMeters>NAN</DistanceMeters>
          </Trackpoint>
          <Trackpoint>
            <Time>2022-07-05T14:45:00.000Z</Time>
            <Position>
              <LatitudeDegrees>44.3705497495830059051513671875</LatitudeDegrees>
              <LongitudeDegrees>-1.11883764155209064483642578125</LongitudeDegrees>
            </Position>
            <AltitudeMeters>51.799999237060546875</AltitudeMeters>
            <DistanceMeters>NAN</DistanceMeters>
          </Trackpoint>
          <Trackpoint>
            <Time>2022-07-05T14:45:03.000Z</Time>
            <Position>
              <LatitudeDegrees>44.370477162301540374755859375</LatitudeDegrees>
              <LongitudeDegrees>-1.11863681115210056304931640625</LongitudeDegrees>
            </Position>
            <AltitudeMeters>52</AltitudeMeters>
            <DistanceMeters>NAN</DistanceMeters>
          </Trackpoint>
          <Trackpoint>
            <Time>2022-07-05T14:45:10.000Z</Time>
            <Position>
              <LatitudeDegrees>44.37030424363911151885986328125</LatitudeDegrees>
              <LongitudeDegrees>-1.1181473918259143829345703125</LongitudeDegrees>
            </Position>
            <AltitudeMeters>51.799999237060546875</AltitudeMeters>
            <DistanceMeters>NAN</DistanceMeters>
          </Trackpoint>
          <Trackpoint>
            <Time>2022-07-05T14:45:12.000Z</Time>
            <Position>
              <LatitudeDegrees>44.3702610768377780914306640625</LatitudeDegrees>
              <LongitudeDegrees>-1.11800481565296649932861328125</LongitudeDegrees>
            </Position>
            <AltitudeMeters>51.799999237060546875</AltitudeMeters>
            <DistanceMeters>NAN</DistanceMeters>
          </Trackpoint>
          <Trackpoint>
            <Time>2022-07-05T14:45:16.000Z</Time>
            <Position>
              <LatitudeDegrees>44.37016527168452739715576171875</LatitudeDegrees>
              <LongitudeDegrees>-1.11773994751274585723876953125</LongitudeDegrees>
            </Position>
            <AltitudeMeters>51.799999237060546875</AltitudeMeters>
            <DistanceMeters>NAN</DistanceMeters>
          </Trackpoint>
          <Trackpoint>
            <Time>2022-07-05T14:45:24.000Z</Time>
            <Position>
              <LatitudeDegrees>44.3700174987316131591796875</LatitudeDegrees>
              <LongitudeDegrees>-1.1171885021030902862548828125</LongitudeDegrees>
            </Position>
            <AltitudeMeters>52</AltitudeMeters>
            <DistanceMeters>NAN</DistanceMeters>
          </Trackpoint>
          <Trackpoint>
            <Time>2022-07-05T14:45:34.000Z</Time>
            <Position>
              <LatitudeDegrees>44.369833767414093017578125</LatitudeDegrees>
              <LongitudeDegrees>-1.11652608029544353485107421875</LongitudeDegrees>
            </Position>
            <AltitudeMeters>52.59999847412109375</AltitudeMeters>
            <DistanceMeters>NAN</DistanceMeters>
          </Trackpoint>
          <Trackpoint>
            <Time>2022-07-05T14:45:39.000Z</Time>
            <Position>
              <LatitudeDegrees>44.3697521276772022247314453125</LatitudeDegrees>
              <LongitudeDegrees>-1.11619901843369007110595703125</LongitudeDegrees>
            </Position>
            <AltitudeMeters>52.200000762939453125</AltitudeMeters>
            <DistanceMeters>NAN</DistanceMeters>
          </Trackpoint>
          <Trackpoint>
            <Time>2022-07-05T14:45:41.000Z</Time>
            <Position>
              <LatitudeDegrees>44.3697196058928966522216796875</LatitudeDegrees>
              <LongitudeDegrees>-1.11606742255389690399169921875</LongitudeDegrees>
            </Position>
            <AltitudeMeters>52</AltitudeMeters>
            <DistanceMeters>NAN</DistanceMeters>
          </Trackpoint>
          <Trackpoint>
            <Time>2022-07-05T14:45:44.000Z</Time>
            <Position>
              <LatitudeDegrees>44.36969303525984287261962890625</LatitudeDegrees>
              <LongitudeDegrees>-1.11586801707744598388671875</LongitudeDegrees>
            </Position>
            <AltitudeMeters>51.799999237060546875</AltitudeMeters>
            <DistanceMeters>NAN</DistanceMeters>
          </Trackpoint>
          <Trackpoint>
            <Time>2022-07-05T14:45:46.000Z</Time>
            <Position>
              <LatitudeDegrees>44.369673170149326324462890625</LatitudeDegrees>
              <LongitudeDegrees>-1.11572594381868839263916015625</LongitudeDegrees>
            </Position>
            <AltitudeMeters>51.799999237060546875</AltitudeMeters>
            <DistanceMeters>NAN</DistanceMeters>
          </Trackpoint>
          <Trackpoint>
            <Time>2022-07-05T14:45:47.000Z</Time>
            <Position>
              <LatitudeDegrees>44.3696589209139347076416015625</LatitudeDegrees>
              <LongitudeDegrees>-1.11566408537328243255615234375</LongitudeDegrees>
            </Position>
            <AltitudeMeters>51.59999847412109375</AltitudeMeters>
            <DistanceMeters>NAN</DistanceMeters>
          </Trackpoint>
          <Trackpoint>
            <Time>2022-07-05T14:45:51.000Z</Time>
            <Position>
              <LatitudeDegrees>44.36959982849657535552978515625</LatitudeDegrees>
              <LongitudeDegrees>-1.11539050005376338958740234375</LongitudeDegrees>
            </Position>
            <AltitudeMeters>51.59999847412109375</AltitudeMeters>
            <DistanceMeters>NAN</DistanceMeters>
          </Trackpoint>
          <Trackpoint>
            <Time>2022-07-05T14:45:53.000Z</Time>
            <Position>
              <LatitudeDegrees>44.36956613324582576751708984375</LatitudeDegrees>
              <LongitudeDegrees>-1.11527197994291782379150390625</LongitudeDegrees>
            </Position>
            <AltitudeMeters>51.59999847412109375</AltitudeMeters>
            <DistanceMeters>NAN</DistanceMeters>
          </Trackpoint>
          <Trackpoint>
            <Time>2022-07-05T14:45:59.000Z</Time>
            <Position>
              <LatitudeDegrees>44.3694741837680339813232421875</LatitudeDegrees>
              <LongitudeDegrees>-1.11487199552357196807861328125</LongitudeDegrees>
            </Position>
            <AltitudeMeters>52</AltitudeMeters>
            <DistanceMeters>NAN</DistanceMeters>
          </Trackpoint>
          <Trackpoint>
            <Time>2022-07-05T14:46:00.000Z</Time>
            <Position>
              <LatitudeDegrees>44.3694587610661983489990234375</LatitudeDegrees>
              <LongitudeDegrees>-1.11480586230754852294921875</LongitudeDegrees>
            </Position>
            <AltitudeMeters>52</AltitudeMeters>
            <DistanceMeters>NAN</DistanceMeters>
          </Trackpoint>
          <Trackpoint>
            <Time>2022-07-05T14:46:02.000Z</Time>
            <Position>
              <LatitudeDegrees>44.36942716129124164581298828125</LatitudeDegrees>
              <LongitudeDegrees>-1.11469320952892303466796875</LongitudeDegrees>
            </Position>
            <AltitudeMeters>52</AltitudeMeters>
            <DistanceMeters>NAN</DistanceMeters>
          </Trackpoint>
          <Trackpoint>
            <Time>2022-07-05T14:46:04.000Z</Time>
            <Position>
              <LatitudeDegrees>44.369392208755016326904296875</LatitudeDegrees>
              <LongitudeDegrees>-1.11456689424812793731689453125</LongitudeDegrees>
            </Position>
            <AltitudeMeters>52</AltitudeMeters>
            <DistanceMeters>NAN</DistanceMeters>
          </Trackpoint>
          <Trackpoint>
            <Time>2022-07-05T14:46:05.000Z</Time>
            <Position>
              <LatitudeDegrees>44.369376115500926971435546875</LatitudeDegrees>
              <LongitudeDegrees>-1.114501096308231353759765625</LongitudeDegrees>
            </Position>
            <AltitudeMeters>52</AltitudeMeters>
            <DistanceMeters>NAN</DistanceMeters>
          </Trackpoint>
          <Trackpoint>
            <Time>2022-07-05T14:46:06.000Z</Time>
            <Position>
              <LatitudeDegrees>44.36936412937939167022705078125</LatitudeDegrees>
              <LongitudeDegrees>-1.1144348792731761932373046875</LongitudeDegrees>
            </Position>
            <AltitudeMeters>52.200000762939453125</AltitudeMeters>
            <DistanceMeters>NAN</DistanceMeters>
          </Trackpoint>
          <Trackpoint>
            <Time>2022-07-05T14:46:10.000Z</Time>
            <Position>
              <LatitudeDegrees>44.3692881055176258087158203125</LatitudeDegrees>
              <LongitudeDegrees>-1.114160120487213134765625</LongitudeDegrees>
            </Position>
            <AltitudeMeters>52.200000762939453125</AltitudeMeters>
            <DistanceMeters>NAN</DistanceMeters>
          </Trackpoint>
          <Trackpoint>
            <Time>2022-07-05T14:46:13.000Z</Time>
            <Position>
              <LatitudeDegrees>44.36924058012664318084716796875</LatitudeDegrees>
              <LongitudeDegrees>-1.11395518295466899871826171875</LongitudeDegrees>
            </Position>
            <AltitudeMeters>52.40000152587890625</AltitudeMeters>
            <DistanceMeters>NAN</DistanceMeters>
          </Trackpoint>
          <Trackpoint>
            <Time>2022-07-05T14:46:16.000Z</Time>
            <Position>
              <LatitudeDegrees>44.36916950158774852752685546875</LatitudeDegrees>
              <LongitudeDegrees>-1.11376508139073848724365234375</LongitudeDegrees>
            </Position>
            <AltitudeMeters>52.40000152587890625</AltitudeMeters>
            <DistanceMeters>NAN</DistanceMeters>
          </Trackpoint>
          <Trackpoint>
            <Time>2022-07-05T14:46:25.000Z</Time>
            <Position>
              <LatitudeDegrees>44.368959031999111175537109375</LatitudeDegrees>
              <LongitudeDegrees>-1.1131799407303333282470703125</LongitudeDegrees>
            </Position>
            <AltitudeMeters>52.200000762939453125</AltitudeMeters>
            <DistanceMeters>NAN</DistanceMeters>
          </Trackpoint>
          <Trackpoint>
            <Time>2022-07-05T14:46:29.000Z</Time>
            <Position>
              <LatitudeDegrees>44.36885769478976726531982421875</LatitudeDegrees>
              <LongitudeDegrees>-1.1129144020378589630126953125</LongitudeDegrees>
            </Position>
            <AltitudeMeters>52.59999847412109375</AltitudeMeters>
            <DistanceMeters>NAN</DistanceMeters>
          </Trackpoint>
          <Trackpoint>
            <Time>2022-07-05T14:46:32.000Z</Time>
            <Position>
              <LatitudeDegrees>44.36874152161180973052978515625</LatitudeDegrees>
              <LongitudeDegrees>-1.11271734349429607391357421875</LongitudeDegrees>
            </Position>
            <AltitudeMeters>52.59999847412109375</AltitudeMeters>
            <DistanceMeters>NAN</DistanceMeters>
          </Trackpoint>
          <Trackpoint>
            <Time>2022-07-05T14:46:34.000Z</Time>
            <Position>
              <LatitudeDegrees>44.3686782382428646087646484375</LatitudeDegrees>
              <LongitudeDegrees>-1.11258340068161487579345703125</LongitudeDegrees>
            </Position>
            <AltitudeMeters>52.40000152587890625</AltitudeMeters>
            <DistanceMeters>NAN</DistanceMeters>
          </Trackpoint>
          <Trackpoint>
            <Time>2022-07-05T14:46:44.000Z</Time>
            <Position>
              <LatitudeDegrees>44.368387050926685333251953125</LatitudeDegrees>
              <LongitudeDegrees>-1.11194687895476818084716796875</LongitudeDegrees>
            </Position>
            <AltitudeMeters>52</AltitudeMeters>
            <DistanceMeters>NAN</DistanceMeters>
          </Trackpoint>
          <Trackpoint>
            <Time>2022-07-05T14:46:54.000Z</Time>
            <Position>
              <LatitudeDegrees>44.36812243424355983734130859375</LatitudeDegrees>
              <LongitudeDegrees>-1.111275069415569305419921875</LongitudeDegrees>
            </Position>
            <AltitudeMeters>52</AltitudeMeters>
            <DistanceMeters>NAN</DistanceMeters>
          </Trackpoint>
          <Trackpoint>
            <Time>2022-07-05T14:46:55.000Z</Time>
            <Position>
              <LatitudeDegrees>44.368095695972442626953125</LatitudeDegrees>
              <LongitudeDegrees>-1.11120893619954586029052734375</LongitudeDegrees>
            </Position>
            <AltitudeMeters>52.200000762939453125</AltitudeMeters>
            <DistanceMeters>NAN</DistanceMeters>
          </Trackpoint>
          <Trackpoint>
            <Time>2022-07-05T14:46:58.000Z</Time>
            <Position>
              <LatitudeDegrees>44.3680053390562534332275390625</LatitudeDegrees>
              <LongitudeDegrees>-1.1110093630850315093994140625</LongitudeDegrees>
            </Position>
            <AltitudeMeters>52.200000762939453125</AltitudeMeters>
            <DistanceMeters>NAN</DistanceMeters>
          </Trackpoint>
          <Trackpoint>
            <Time>2022-07-05T14:47:02.000Z</Time>
            <Position>
              <LatitudeDegrees>44.367905594408512115478515625</LatitudeDegrees>
              <LongitudeDegrees>-1.11074189655482769012451171875</LongitudeDegrees>
            </Position>
            <AltitudeMeters>52.59999847412109375</AltitudeMeters>
            <DistanceMeters>NAN</DistanceMeters>
          </Trackpoint>
          <Trackpoint>
            <Time>2022-07-05T14:47:11.000Z</Time>
            <Position>
              <LatitudeDegrees>44.367656819522380828857421875</LatitudeDegrees>
              <LongitudeDegrees>-1.1101654730737209320068359375</LongitudeDegrees>
            </Position>
            <AltitudeMeters>52.59999847412109375</AltitudeMeters>
            <DistanceMeters>NAN</DistanceMeters>
          </Trackpoint>
          <Trackpoint>
            <Time>2022-07-05T14:47:12.000Z</Time>
            <Position>
              <LatitudeDegrees>44.36762723140418529510498046875</LatitudeDegrees>
              <LongitudeDegrees>-1.11010135151445865631103515625</LongitudeDegrees>
            </Position>
            <AltitudeMeters>52.59999847412109375</AltitudeMeters>
            <DistanceMeters>NAN</DistanceMeters>
          </Trackpoint>
          <Trackpoint>
            <Time>2022-07-05T14:47:19.000Z</Time>
            <Position>
              <LatitudeDegrees>44.36745557002723217010498046875</LatitudeDegrees>
              <LongitudeDegrees>-1.10966264270246028900146484375</LongitudeDegrees>
            </Position>
            <AltitudeMeters>52.40000152587890625</AltitudeMeters>
            <DistanceMeters>NAN</DistanceMeters>
          </Trackpoint>
          <Trackpoint>
            <Time>2022-07-05T14:47:26.000Z</Time>
            <Position>
              <LatitudeDegrees>44.36730234883725643157958984375</LatitudeDegrees>
              <LongitudeDegrees>-1.10925612039864063262939453125</LongitudeDegrees>
            </Position>
            <AltitudeMeters>52.59999847412109375</AltitudeMeters>
            <DistanceMeters>NAN</DistanceMeters>
          </Trackpoint>
          <Trackpoint>
            <Time>2022-07-05T14:47:29.000Z</Time>
            <Position>
              <LatitudeDegrees>44.36722607351839542388916015625</LatitudeDegrees>
              <LongitudeDegrees>-1.10908093862235546112060546875</LongitudeDegrees>
            </Position>
            <AltitudeMeters>52.59999847412109375</AltitudeMeters>
            <DistanceMeters>NAN</DistanceMeters>
          </Trackpoint>
          <Trackpoint>
            <Time>2022-07-05T14:47:33.000Z</Time>
            <Position>
              <LatitudeDegrees>44.36713303439319133758544921875</LatitudeDegrees>
              <LongitudeDegrees>-1.10882746987044811248779296875</LongitudeDegrees>
            </Position>
            <AltitudeMeters>52.59999847412109375</AltitudeMeters>
            <DistanceMeters>NAN</DistanceMeters>
          </Trackpoint>
          <Trackpoint>
            <Time>2022-07-05T14:47:39.000Z</Time>
            <Position>
              <LatitudeDegrees>44.36698081903159618377685546875</LatitudeDegrees>
              <LongitudeDegrees>-1.10846118070185184478759765625</LongitudeDegrees>
            </Position>
            <AltitudeMeters>52.59999847412109375</AltitudeMeters>
            <DistanceMeters>NAN</DistanceMeters>
          </Trackpoint>
          <Trackpoint>
            <Time>2022-07-05T14:47:40.000Z</Time>
            <Position>
              <LatitudeDegrees>44.36695399694144725799560546875</LatitudeDegrees>
              <LongitudeDegrees>-1.10840183682739734649658203125</LongitudeDegrees>
            </Position>
            <AltitudeMeters>52.59999847412109375</AltitudeMeters>
            <DistanceMeters>NAN</DistanceMeters>
          </Trackpoint>
          <Trackpoint>
            <Time>2022-07-05T14:47:46.000Z</Time>
            <Position>
              <LatitudeDegrees>44.3668057210743427276611328125</LatitudeDegrees>
              <LongitudeDegrees>-1.1080594360828399658203125</LongitudeDegrees>
            </Position>
            <AltitudeMeters>52.59999847412109375</AltitudeMeters>
            <DistanceMeters>NAN</DistanceMeters>
          </Trackpoint>
          <Trackpoint>
            <Time>2022-07-05T14:47:47.000Z</Time>
            <Position>
              <LatitudeDegrees>44.36678049154579639434814453125</LatitudeDegrees>
              <LongitudeDegrees>-1.10800378024578094482421875</LongitudeDegrees>
            </Position>
            <AltitudeMeters>52.59999847412109375</AltitudeMeters>
            <DistanceMeters>NAN</DistanceMeters>
          </Trackpoint>
          <Trackpoint>
            <Time>2022-07-05T14:47:54.000Z</Time>
            <Position>
              <LatitudeDegrees>44.36663950793445110321044921875</LatitudeDegrees>
              <LongitudeDegrees>-1.10761108808219432830810546875</LongitudeDegrees>
            </Position>
            <AltitudeMeters>52.799999237060546875</AltitudeMeters>
            <DistanceMeters>NAN</DistanceMeters>
          </Trackpoint>
          <Trackpoint>
            <Time>2022-07-05T14:47:56.000Z</Time>
            <Position>
              <LatitudeDegrees>44.3666012026369571685791015625</LatitudeDegrees>
              <LongitudeDegrees>-1.107494831085205078125</LongitudeDegrees>
            </Position>
            <AltitudeMeters>53</AltitudeMeters>
            <DistanceMeters>NAN</DistanceMeters>
          </Trackpoint>
          <Trackpoint>
            <Time>2022-07-05T14:47:58.000Z</Time>
            <Position>
              <LatitudeDegrees>44.36656222678720951080322265625</LatitudeDegrees>
              <LongitudeDegrees>-1.107379496097564697265625</LongitudeDegrees>
            </Position>
            <AltitudeMeters>53</AltitudeMeters>
            <DistanceMeters>NAN</DistanceMeters>
          </Trackpoint>
          <Trackpoint>
            <Time>2022-07-05T14:48:04.000Z</Time>
            <Position>
              <LatitudeDegrees>44.36645753681659698486328125</LatitudeDegrees>
              <LongitudeDegrees>-1.1070366762578487396240234375</LongitudeDegrees>
            </Position>
            <AltitudeMeters>53.200000762939453125</AltitudeMeters>
            <DistanceMeters>NAN</DistanceMeters>
          </Trackpoint>
          <Trackpoint>
            <Time>2022-07-05T14:48:08.000Z</Time>
            <Position>
              <LatitudeDegrees>44.36634731478989124298095703125</LatitudeDegrees>
              <LongitudeDegrees>-1.10681765712797641754150390625</LongitudeDegrees>
            </Position>
            <AltitudeMeters>53.200000762939453125</AltitudeMeters>
            <DistanceMeters>NAN</DistanceMeters>
          </Trackpoint>
          <Trackpoint>
            <Time>2022-07-05T14:48:12.000Z</Time>
            <Position>
              <LatitudeDegrees>44.3662407808005809783935546875</LatitudeDegrees>
              <LongitudeDegrees>-1.10656611621379852294921875</LongitudeDegrees>
            </Position>
            <AltitudeMeters>53.200000762939453125</AltitudeMeters>
            <DistanceMeters>NAN</DistanceMeters>
          </Trackpoint>
          <Trackpoint>
            <Time>2022-07-05T14:48:20.000Z</Time>
            <Position>
              <LatitudeDegrees>44.36599795706570148468017578125</LatitudeDegrees>
              <LongitudeDegrees>-1.1060464382171630859375</LongitudeDegrees>
            </Position>
            <AltitudeMeters>53.200000762939453125</AltitudeMeters>
            <DistanceMeters>NAN</DistanceMeters>
          </Trackpoint>
          <Trackpoint>
            <Time>2022-07-05T14:48:28.000Z</Time>
            <Position>
              <LatitudeDegrees>44.36577466316521167755126953125</LatitudeDegrees>
              <LongitudeDegrees>-1.1055510677397251129150390625</LongitudeDegrees>
            </Position>
            <AltitudeMeters>53.200000762939453125</AltitudeMeters>
            <DistanceMeters>NAN</DistanceMeters>
          </Trackpoint>
          <Trackpoint>
            <Time>2022-07-05T14:48:34.000Z</Time>
            <Position>
              <LatitudeDegrees>44.3656235374510288238525390625</LatitudeDegrees>
              <LongitudeDegrees>-1.10518586821854114532470703125</LongitudeDegrees>
            </Position>
            <AltitudeMeters>53.200000762939453125</AltitudeMeters>
            <DistanceMeters>NAN</DistanceMeters>
          </Trackpoint>
          <Trackpoint>
            <Time>2022-07-05T14:48:38.000Z</Time>
            <Position>
              <LatitudeDegrees>44.3655142374336719512939453125</LatitudeDegrees>
              <LongitudeDegrees>-1.10496190376579761505126953125</LongitudeDegrees>
            </Position>
            <AltitudeMeters>53</AltitudeMeters>
            <DistanceMeters>NAN</DistanceMeters>
          </Trackpoint>
          <Trackpoint>
            <Time>2022-07-05T14:48:40.000Z</Time>
            <Position>
              <LatitudeDegrees>44.36545514501631259918212890625</LatitudeDegrees>
              <LongitudeDegrees>-1.1048526875674724578857421875</LongitudeDegrees>
            </Position>
            <AltitudeMeters>53.200000762939453125</AltitudeMeters>
            <DistanceMeters>NAN</DistanceMeters>
          </Trackpoint>
          <Trackpoint>
            <Time>2022-07-05T14:48:43.000Z</Time>
            <Position>
              <LatitudeDegrees>44.365393705666065216064453125</LatitudeDegrees>
              <LongitudeDegrees>-1.104674823582172393798828125</LongitudeDegrees>
            </Position>
            <AltitudeMeters>53.200000762939453125</AltitudeMeters>
            <DistanceMeters>NAN</DistanceMeters>
          </Trackpoint>
          <Trackpoint>
            <Time>2022-07-05T14:48:51.000Z</Time>
            <Position>
              <LatitudeDegrees>44.36520167626440525054931640625</LatitudeDegrees>
              <LongitudeDegrees>-1.1041848175227642059326171875</LongitudeDegrees>
            </Position>
            <AltitudeMeters>53.200000762939453125</AltitudeMeters>
            <DistanceMeters>NAN</DistanceMeters>
          </Trackpoint>
          <Trackpoint>
            <Time>2022-07-05T14:48:53.000Z</Time>
            <Position>
              <LatitudeDegrees>44.365150630474090576171875</LatitudeDegrees>
              <LongitudeDegrees>-1.1040604300796985626220703125</LongitudeDegrees>
            </Position>
            <AltitudeMeters>53.200000762939453125</AltitudeMeters>
            <DistanceMeters>NAN</DistanceMeters>
          </Trackpoint>
          <Trackpoint>
            <Time>2022-07-05T14:48:57.000Z</Time>
            <Position>
              <LatitudeDegrees>44.365043006837368011474609375</LatitudeDegrees>
              <LongitudeDegrees>-1.10379816032946109771728515625</LongitudeDegrees>
            </Position>
            <AltitudeMeters>53.40000152587890625</AltitudeMeters>
            <DistanceMeters>NAN</DistanceMeters>
          </Trackpoint>
          <Trackpoint>
            <Time>2022-07-05T14:49:05.000Z</Time>
            <Position>
              <LatitudeDegrees>44.3648530729115009307861328125</LatitudeDegrees>
              <LongitudeDegrees>-1.10328954644501209259033203125</LongitudeDegrees>
            </Position>
            <AltitudeMeters>53.59999847412109375</AltitudeMeters>
            <DistanceMeters>NAN</DistanceMeters>
          </Trackpoint>
          <Trackpoint>
            <Time>2022-07-05T14:49:12.000Z</Time>
            <Position>
              <LatitudeDegrees>44.36468099243938922882080078125</LatitudeDegrees>
              <LongitudeDegrees>-1.10289693810045719146728515625</LongitudeDegrees>
            </Position>
            <AltitudeMeters>53.59999847412109375</AltitudeMeters>
            <DistanceMeters>NAN</DistanceMeters>
          </Trackpoint>
          <Trackpoint>
            <Time>2022-07-05T14:49:13.000Z</Time>
            <Position>
              <LatitudeDegrees>44.36465785838663578033447265625</LatitudeDegrees>
              <LongitudeDegrees>-1.10284815542399883270263671875</LongitudeDegrees>
            </Position>
            <AltitudeMeters>53.799999237060546875</AltitudeMeters>
            <DistanceMeters>NAN</DistanceMeters>
          </Trackpoint>
          <Trackpoint>
            <Time>2022-07-05T14:49:16.000Z</Time>
            <Position>
              <LatitudeDegrees>44.36456817202270030975341796875</LatitudeDegrees>
              <LongitudeDegrees>-1.10270264558494091033935546875</LongitudeDegrees>
            </Position>
            <AltitudeMeters>53.799999237060546875</AltitudeMeters>
            <DistanceMeters>NAN</DistanceMeters>
          </Trackpoint>
          <Trackpoint>
            <Time>2022-07-05T14:49:20.000Z</Time>
            <Position>
              <LatitudeDegrees>44.36447136104106903076171875</LatitudeDegrees>
              <LongitudeDegrees>-1.10246007330715656280517578125</LongitudeDegrees>
            </Position>
            <AltitudeMeters>54</AltitudeMeters>
            <DistanceMeters>NAN</DistanceMeters>
          </Trackpoint>
          <Trackpoint>
            <Time>2022-07-05T14:49:24.000Z</Time>
            <Position>
              <LatitudeDegrees>44.36436901800334453582763671875</LatitudeDegrees>
              <LongitudeDegrees>-1.10222202725708484649658203125</LongitudeDegrees>
            </Position>
            <AltitudeMeters>54</AltitudeMeters>
            <DistanceMeters>NAN</DistanceMeters>
          </Trackpoint>
          <Trackpoint>
            <Time>2022-07-05T14:49:28.000Z</Time>
            <Position>
              <LatitudeDegrees>44.36427899636328220367431640625</LatitudeDegrees>
              <LongitudeDegrees>-1.10195598565042018890380859375</LongitudeDegrees>
            </Position>
            <AltitudeMeters>54</AltitudeMeters>
            <DistanceMeters>NAN</DistanceMeters>
          </Trackpoint>
          <Trackpoint>
            <Time>2022-07-05T14:49:33.000Z</Time>
            <Position>
              <LatitudeDegrees>44.364158548414707183837890625</LatitudeDegrees>
              <LongitudeDegrees>-1.1016474477946758270263671875</LongitudeDegrees>
            </Position>
            <AltitudeMeters>54.200000762939453125</AltitudeMeters>
            <DistanceMeters>NAN</DistanceMeters>
          </Trackpoint>
          <Trackpoint>
            <Time>2022-07-05T14:49:40.000Z</Time>
            <Position>
              <LatitudeDegrees>44.36397909186780452728271484375</LatitudeDegrees>
              <LongitudeDegrees>-1.10121603123843669891357421875</LongitudeDegrees>
            </Position>
            <AltitudeMeters>53.799999237060546875</AltitudeMeters>
            <DistanceMeters>NAN</DistanceMeters>
          </Trackpoint>
          <Trackpoint>
            <Time>2022-07-05T14:49:47.000Z</Time>
            <Position>
              <LatitudeDegrees>44.3637915886938571929931640625</LatitudeDegrees>
              <LongitudeDegrees>-1.10078888945281505584716796875</LongitudeDegrees>
            </Position>
            <AltitudeMeters>53.799999237060546875</AltitudeMeters>
            <DistanceMeters>NAN</DistanceMeters>
          </Trackpoint>
          <Trackpoint>
            <Time>2022-07-05T14:49:49.000Z</Time>
            <Position>
              <LatitudeDegrees>44.36374020762741565704345703125</LatitudeDegrees>
              <LongitudeDegrees>-1.10066793859004974365234375</LongitudeDegrees>
            </Position>
            <AltitudeMeters>53.799999237060546875</AltitudeMeters>
            <DistanceMeters>NAN</DistanceMeters>
          </Trackpoint>
          <Trackpoint>
            <Time>2022-07-05T14:50:00.000Z</Time>
            <Position>
              <LatitudeDegrees>44.36348087154328823089599609375</LatitudeDegrees>
              <LongitudeDegrees>-1.09998305328190326690673828125</LongitudeDegrees>
            </Position>
            <AltitudeMeters>54.200000762939453125</AltitudeMeters>
            <DistanceMeters>NAN</DistanceMeters>
          </Trackpoint>
          <Trackpoint>
            <Time>2022-07-05T14:50:01.000Z</Time>
            <Position>
              <LatitudeDegrees>44.3634621798992156982421875</LatitudeDegrees>
              <LongitudeDegrees>-1.09992136247456073760986328125</LongitudeDegrees>
            </Position>
            <AltitudeMeters>54.200000762939453125</AltitudeMeters>
            <DistanceMeters>NAN</DistanceMeters>
          </Trackpoint>
          <Trackpoint>
            <Time>2022-07-05T14:50:08.000Z</Time>
            <Position>
              <LatitudeDegrees>44.3633017502725124359130859375</LatitudeDegrees>
              <LongitudeDegrees>-1.099525988101959228515625</LongitudeDegrees>
            </Position>
            <AltitudeMeters>54.200000762939453125</AltitudeMeters>
            <DistanceMeters>NAN</DistanceMeters>
          </Trackpoint>
          <Trackpoint>
            <Time>2022-07-05T14:50:12.000Z</Time>
            <Position>
              <LatitudeDegrees>44.36321315355598926544189453125</LatitudeDegrees>
              <LongitudeDegrees>-1.09929556958377361297607421875</LongitudeDegrees>
            </Position>
            <AltitudeMeters>54.200000762939453125</AltitudeMeters>
            <DistanceMeters>NAN</DistanceMeters>
          </Trackpoint>
          <Trackpoint>
            <Time>2022-07-05T14:50:15.000Z</Time>
            <Position>
              <LatitudeDegrees>44.36314894817769527435302734375</LatitudeDegrees>
              <LongitudeDegrees>-1.09912206418812274932861328125</LongitudeDegrees>
            </Position>
            <AltitudeMeters>54.200000762939453125</AltitudeMeters>
            <DistanceMeters>NAN</DistanceMeters>
          </Trackpoint>
          <Trackpoint>
            <Time>2022-07-05T14:50:25.000Z</Time>
            <Position>
              <LatitudeDegrees>44.36289380304515361785888671875</LatitudeDegrees>
              <LongitudeDegrees>-1.0985367558896541595458984375</LongitudeDegrees>
            </Position>
            <AltitudeMeters>54</AltitudeMeters>
            <DistanceMeters>NAN</DistanceMeters>
          </Trackpoint>
          <Trackpoint>
            <Time>2022-07-05T14:50:31.000Z</Time>
            <Position>
              <LatitudeDegrees>44.36274896375834941864013671875</LatitudeDegrees>
              <LongitudeDegrees>-1.09820541925728321075439453125</LongitudeDegrees>
            </Position>
            <AltitudeMeters>54.200000762939453125</AltitudeMeters>
            <DistanceMeters>NAN</DistanceMeters>
          </Trackpoint>
          <Trackpoint>
            <Time>2022-07-05T14:50:34.000Z</Time>
            <Position>
              <LatitudeDegrees>44.36268308199942111968994140625</LatitudeDegrees>
              <LongitudeDegrees>-1.0980241186916828155517578125</LongitudeDegrees>
            </Position>
            <AltitudeMeters>54</AltitudeMeters>
            <DistanceMeters>NAN</DistanceMeters>
          </Trackpoint>
          <Trackpoint>
            <Time>2022-07-05T14:50:43.000Z</Time>
            <Position>
              <LatitudeDegrees>44.3624518252909183502197265625</LatitudeDegrees>
              <LongitudeDegrees>-1.097475774586200714111328125</LongitudeDegrees>
            </Position>
            <AltitudeMeters>54</AltitudeMeters>
            <DistanceMeters>NAN</DistanceMeters>
          </Trackpoint>
          <Trackpoint>
            <Time>2022-07-05T14:50:47.000Z</Time>
            <Position>
              <LatitudeDegrees>44.36234126798808574676513671875</LatitudeDegrees>
              <LongitudeDegrees>-1.09722800552845001220703125</LongitudeDegrees>
            </Position>
            <AltitudeMeters>54.200000762939453125</AltitudeMeters>
            <DistanceMeters>NAN</DistanceMeters>
          </Trackpoint>
          <Trackpoint>
            <Time>2022-07-05T14:50:50.000Z</Time>
            <Position>
              <LatitudeDegrees>44.36226381920278072357177734375</LatitudeDegrees>
              <LongitudeDegrees>-1.09704771079123020172119140625</LongitudeDegrees>
            </Position>
            <AltitudeMeters>54</AltitudeMeters>
            <DistanceMeters>NAN</DistanceMeters>
          </Trackpoint>
          <Trackpoint>
            <Time>2022-07-05T14:50:58.000Z</Time>
            <Position>
              <LatitudeDegrees>44.36207078397274017333984375</LatitudeDegrees>
              <LongitudeDegrees>-1.09656759537756443023681640625</LongitudeDegrees>
            </Position>
            <AltitudeMeters>53.59999847412109375</AltitudeMeters>
            <DistanceMeters>NAN</DistanceMeters>
          </Trackpoint>
          <Trackpoint>
            <Time>2022-07-05T14:51:05.000Z</Time>
            <Position>
              <LatitudeDegrees>44.36189551837742328643798828125</LatitudeDegrees>
              <LongitudeDegrees>-1.096145398914813995361328125</LongitudeDegrees>
            </Position>
            <AltitudeMeters>53.59999847412109375</AltitudeMeters>
            <DistanceMeters>NAN</DistanceMeters>
          </Trackpoint>
          <Trackpoint>
            <Time>2022-07-05T14:51:08.000Z</Time>
            <Position>
              <LatitudeDegrees>44.36180214397609233856201171875</LatitudeDegrees>
              <LongitudeDegrees>-1.0959641821682453155517578125</LongitudeDegrees>
            </Position>
            <AltitudeMeters>53.59999847412109375</AltitudeMeters>
            <DistanceMeters>NAN</DistanceMeters>
          </Trackpoint>
          <Trackpoint>
            <Time>2022-07-05T14:51:11.000Z</Time>
            <Position>
              <LatitudeDegrees>44.3617195822298526763916015625</LatitudeDegrees>
              <LongitudeDegrees>-1.0957834683358669281005859375</LongitudeDegrees>
            </Position>
            <AltitudeMeters>53.59999847412109375</AltitudeMeters>
            <DistanceMeters>NAN</DistanceMeters>
          </Trackpoint>
          <Trackpoint>
            <Time>2022-07-05T14:51:15.000Z</Time>
            <Position>
              <LatitudeDegrees>44.36161614954471588134765625</LatitudeDegrees>
              <LongitudeDegrees>-1.095543913543224334716796875</LongitudeDegrees>
            </Position>
            <AltitudeMeters>53.799999237060546875</AltitudeMeters>
            <DistanceMeters>NAN</DistanceMeters>
          </Trackpoint>
          <Trackpoint>
            <Time>2022-07-05T14:51:18.000Z</Time>
            <Position>
              <LatitudeDegrees>44.36154934577643871307373046875</LatitudeDegrees>
              <LongitudeDegrees>-1.095361523330211639404296875</LongitudeDegrees>
            </Position>
            <AltitudeMeters>53.59999847412109375</AltitudeMeters>
            <DistanceMeters>NAN</DistanceMeters>
          </Trackpoint>
          <Trackpoint>
            <Time>2022-07-05T14:51:22.000Z</Time>
            <Position>
              <LatitudeDegrees>44.36145722866058349609375</LatitudeDegrees>
              <LongitudeDegrees>-1.095133535563945770263671875</LongitudeDegrees>
            </Position>
            <AltitudeMeters>53.799999237060546875</AltitudeMeters>
            <DistanceMeters>NAN</DistanceMeters>
          </Trackpoint>
          <Trackpoint>
            <Time>2022-07-05T14:51:24.000Z</Time>
            <Position>
              <LatitudeDegrees>44.3614252097904682159423828125</LatitudeDegrees>
              <LongitudeDegrees>-1.09501459635794162750244140625</LongitudeDegrees>
            </Position>
            <AltitudeMeters>53.799999237060546875</AltitudeMeters>
            <DistanceMeters>NAN</DistanceMeters>
          </Trackpoint>
          <Trackpoint>
            <Time>2022-07-05T14:51:26.000Z</Time>
            <Position>
              <LatitudeDegrees>44.3613859824836254119873046875</LatitudeDegrees>
              <LongitudeDegrees>-1.0948884487152099609375</LongitudeDegrees>
            </Position>
            <AltitudeMeters>53.799999237060546875</AltitudeMeters>
            <DistanceMeters>NAN</DistanceMeters>
          </Trackpoint>
          <Trackpoint>
            <Time>2022-07-05T14:51:30.000Z</Time>
            <Position>
              <LatitudeDegrees>44.36132404021918773651123046875</LatitudeDegrees>
              <LongitudeDegrees>-1.094648726284503936767578125</LongitudeDegrees>
            </Position>
            <AltitudeMeters>54</AltitudeMeters>
            <DistanceMeters>NAN</DistanceMeters>
          </Trackpoint>
          <Trackpoint>
            <Time>2022-07-05T14:51:32.000Z</Time>
            <Position>
              <LatitudeDegrees>44.3612941168248653411865234375</LatitudeDegrees>
              <LongitudeDegrees>-1.09452995471656322479248046875</LongitudeDegrees>
            </Position>
            <AltitudeMeters>54</AltitudeMeters>
            <DistanceMeters>NAN</DistanceMeters>
          </Trackpoint>
          <Trackpoint>
            <Time>2022-07-05T14:51:40.000Z</Time>
            <Position>
              <LatitudeDegrees>44.36114232055842876434326171875</LatitudeDegrees>
              <LongitudeDegrees>-1.09406702220439910888671875</LongitudeDegrees>
            </Position>
            <AltitudeMeters>54.200000762939453125</AltitudeMeters>
            <DistanceMeters>NAN</DistanceMeters>
          </Trackpoint>
          <Trackpoint>
            <Time>2022-07-05T14:51:50.000Z</Time>
            <Position>
              <LatitudeDegrees>44.360852725803852081298828125</LatitudeDegrees>
              <LongitudeDegrees>-1.09348858706653118133544921875</LongitudeDegrees>
            </Position>
            <AltitudeMeters>54.40000152587890625</AltitudeMeters>
            <DistanceMeters>NAN</DistanceMeters>
          </Trackpoint>
          <Trackpoint>
            <Time>2022-07-05T14:51:58.000Z</Time>
            <Position>
              <LatitudeDegrees>44.36065734364092350006103515625</LatitudeDegrees>
              <LongitudeDegrees>-1.09302171505987644195556640625</LongitudeDegrees>
            </Position>
            <AltitudeMeters>54.59999847412109375</AltitudeMeters>
            <DistanceMeters>NAN</DistanceMeters>
          </Trackpoint>
          <Trackpoint>
            <Time>2022-07-05T14:52:06.000Z</Time>
            <Position>
              <LatitudeDegrees>44.36045198701322078704833984375</LatitudeDegrees>
              <LongitudeDegrees>-1.09256406314671039581298828125</LongitudeDegrees>
            </Position>
            <AltitudeMeters>54.200000762939453125</AltitudeMeters>
            <DistanceMeters>NAN</DistanceMeters>
          </Trackpoint>
          <Trackpoint>
            <Time>2022-07-05T14:52:10.000Z</Time>
            <Position>
              <LatitudeDegrees>44.3603627197444438934326171875</LatitudeDegrees>
              <LongitudeDegrees>-1.0923395119607448577880859375</LongitudeDegrees>
            </Position>
            <AltitudeMeters>54</AltitudeMeters>
            <DistanceMeters>NAN</DistanceMeters>
          </Trackpoint>
          <Trackpoint>
            <Time>2022-07-05T14:52:15.000Z</Time>
            <Position>
              <LatitudeDegrees>44.3602282740175724029541015625</LatitudeDegrees>
              <LongitudeDegrees>-1.09203617088496685028076171875</LongitudeDegrees>
            </Position>
            <AltitudeMeters>53.799999237060546875</AltitudeMeters>
            <DistanceMeters>NAN</DistanceMeters>
          </Trackpoint>
          <Trackpoint>
            <Time>2022-07-05T14:52:24.000Z</Time>
            <Position>
              <LatitudeDegrees>44.3600073270499706268310546875</LatitudeDegrees>
              <LongitudeDegrees>-1.09153233468532562255859375</LongitudeDegrees>
            </Position>
            <AltitudeMeters>54.40000152587890625</AltitudeMeters>
            <DistanceMeters>NAN</DistanceMeters>
          </Trackpoint>
          <Trackpoint>
            <Time>2022-07-05T14:52:26.000Z</Time>
            <Position>
              <LatitudeDegrees>44.35995519161224365234375</LatitudeDegrees>
              <LongitudeDegrees>-1.0914158262312412261962890625</LongitudeDegrees>
            </Position>
            <AltitudeMeters>54</AltitudeMeters>
            <DistanceMeters>NAN</DistanceMeters>
          </Trackpoint>
          <Trackpoint>
            <Time>2022-07-05T14:52:29.000Z</Time>
            <Position>
              <LatitudeDegrees>44.3598809279501438140869140625</LatitudeDegrees>
              <LongitudeDegrees>-1.0912465117871761322021484375</LongitudeDegrees>
            </Position>
            <AltitudeMeters>53.799999237060546875</AltitudeMeters>
            <DistanceMeters>NAN</DistanceMeters>
          </Trackpoint>
          <Trackpoint>
            <Time>2022-07-05T14:52:32.000Z</Time>
            <Position>
              <LatitudeDegrees>44.35979367233812808990478515625</LatitudeDegrees>
              <LongitudeDegrees>-1.09108365140855312347412109375</LongitudeDegrees>
            </Position>
            <AltitudeMeters>53.799999237060546875</AltitudeMeters>
            <DistanceMeters>NAN</DistanceMeters>
          </Trackpoint>
          <Trackpoint>
            <Time>2022-07-05T14:52:40.000Z</Time>
            <Position>
              <LatitudeDegrees>44.359596781432628631591796875</LatitudeDegrees>
              <LongitudeDegrees>-1.09070084989070892333984375</LongitudeDegrees>
            </Position>
            <AltitudeMeters>53.799999237060546875</AltitudeMeters>
            <DistanceMeters>NAN</DistanceMeters>
          </Trackpoint>
          <Trackpoint>
            <Time>2022-07-05T14:52:53.000Z</Time>
            <Position>
              <LatitudeDegrees>44.3592314980924129486083984375</LatitudeDegrees>
              <LongitudeDegrees>-1.09014638699591159820556640625</LongitudeDegrees>
            </Position>
            <AltitudeMeters>53.799999237060546875</AltitudeMeters>
            <DistanceMeters>NAN</DistanceMeters>
          </Trackpoint>
          <Trackpoint>
            <Time>2022-07-05T14:52:58.000Z</Time>
            <Position>
              <LatitudeDegrees>44.35906109400093555450439453125</LatitudeDegrees>
              <LongitudeDegrees>-1.0900539346039295196533203125</LongitudeDegrees>
            </Position>
            <AltitudeMeters>53.799999237060546875</AltitudeMeters>
            <DistanceMeters>NAN</DistanceMeters>
          </Trackpoint>
          <Trackpoint>
            <Time>2022-07-05T14:53:00.000Z</Time>
            <Position>
              <LatitudeDegrees>44.35901281423866748809814453125</LatitudeDegrees>
              <LongitudeDegrees>-1.09000942669808864593505859375</LongitudeDegrees>
            </Position>
            <AltitudeMeters>54</AltitudeMeters>
            <DistanceMeters>NAN</DistanceMeters>
          </Trackpoint>
          <Trackpoint>
            <Time>2022-07-05T14:53:01.000Z</Time>
            <Position>
              <LatitudeDegrees>44.35900124721229076385498046875</LatitudeDegrees>
              <LongitudeDegrees>-1.0899754799902439117431640625</LongitudeDegrees>
            </Position>
            <AltitudeMeters>54</AltitudeMeters>
            <DistanceMeters>NAN</DistanceMeters>
          </Trackpoint>
          <Trackpoint>
            <Time>2022-07-05T14:53:04.000Z</Time>
            <Position>
              <LatitudeDegrees>44.35897509567439556121826171875</LatitudeDegrees>
              <LongitudeDegrees>-1.08987783081829547882080078125</LongitudeDegrees>
            </Position>
            <AltitudeMeters>53.799999237060546875</AltitudeMeters>
            <DistanceMeters>NAN</DistanceMeters>
          </Trackpoint>
          <Trackpoint>
            <Time>2022-07-05T14:53:06.000Z</Time>
            <Position>
              <LatitudeDegrees>44.35895673930644989013671875</LatitudeDegrees>
              <LongitudeDegrees>-1.08985084109008312225341796875</LongitudeDegrees>
            </Position>
            <AltitudeMeters>53.59999847412109375</AltitudeMeters>
            <DistanceMeters>NAN</DistanceMeters>
          </Trackpoint>
          <Trackpoint>
            <Time>2022-07-05T14:53:08.000Z</Time>
            <Position>
              <LatitudeDegrees>44.35895405709743499755859375</LatitudeDegrees>
              <LongitudeDegrees>-1.08984882943332195281982421875</LongitudeDegrees>
            </Position>
            <AltitudeMeters>53.59999847412109375</AltitudeMeters>
            <DistanceMeters>NAN</DistanceMeters>
          </Trackpoint>
          <Trackpoint>
            <Time>2022-07-05T14:53:12.000Z</Time>
            <Position>
              <LatitudeDegrees>44.35893503017723560333251953125</LatitudeDegrees>
              <LongitudeDegrees>-1.0898018069565296173095703125</LongitudeDegrees>
            </Position>
            <AltitudeMeters>53.59999847412109375</AltitudeMeters>
            <DistanceMeters>NAN</DistanceMeters>
          </Trackpoint>
          <Trackpoint>
            <Time>2022-07-05T14:53:13.000Z</Time>
            <Position>
              <LatitudeDegrees>44.35893368907272815704345703125</LatitudeDegrees>
              <LongitudeDegrees>-1.089773811399936676025390625</LongitudeDegrees>
            </Position>
            <AltitudeMeters>53.59999847412109375</AltitudeMeters>
            <DistanceMeters>NAN</DistanceMeters>
          </Trackpoint>
          <Trackpoint>
            <Time>2022-07-05T14:53:17.000Z</Time>
            <Position>
              <LatitudeDegrees>44.35889412648975849151611328125</LatitudeDegrees>
              <LongitudeDegrees>-1.089634336531162261962890625</LongitudeDegrees>
            </Position>
            <AltitudeMeters>53.59999847412109375</AltitudeMeters>
            <DistanceMeters>NAN</DistanceMeters>
          </Trackpoint>
          <Trackpoint>
            <Time>2022-07-05T14:53:21.000Z</Time>
            <Position>
              <LatitudeDegrees>44.358763955533504486083984375</LatitudeDegrees>
              <LongitudeDegrees>-1.0895781777799129486083984375</LongitudeDegrees>
            </Position>
            <AltitudeMeters>53.799999237060546875</AltitudeMeters>
            <DistanceMeters>NAN</DistanceMeters>
          </Trackpoint>
          <Trackpoint>
            <Time>2022-07-05T14:53:23.000Z</Time>
            <Position>
              <LatitudeDegrees>44.35868206433951854705810546875</LatitudeDegrees>
              <LongitudeDegrees>-1.08953534625470638275146484375</LongitudeDegrees>
            </Position>
            <AltitudeMeters>53.59999847412109375</AltitudeMeters>
            <DistanceMeters>NAN</DistanceMeters>
          </Trackpoint>
          <Trackpoint>
            <Time>2022-07-05T14:53:27.000Z</Time>
            <Position>
              <LatitudeDegrees>44.3585156835615634918212890625</LatitudeDegrees>
              <LongitudeDegrees>-1.08940810896456241607666015625</LongitudeDegrees>
            </Position>
            <AltitudeMeters>53.59999847412109375</AltitudeMeters>
            <DistanceMeters>NAN</DistanceMeters>
          </Trackpoint>
          <Trackpoint>
            <Time>2022-07-05T14:53:36.000Z</Time>
            <Position>
              <LatitudeDegrees>44.35815886594355106353759765625</LatitudeDegrees>
              <LongitudeDegrees>-1.08906931243836879730224609375</LongitudeDegrees>
            </Position>
            <AltitudeMeters>53.799999237060546875</AltitudeMeters>
            <DistanceMeters>NAN</DistanceMeters>
          </Trackpoint>
          <Trackpoint>
            <Time>2022-07-05T14:53:39.000Z</Time>
            <Position>
              <LatitudeDegrees>44.35802944935858249664306640625</LatitudeDegrees>
              <LongitudeDegrees>-1.08895607292652130126953125</LongitudeDegrees>
            </Position>
            <AltitudeMeters>53.799999237060546875</AltitudeMeters>
            <DistanceMeters>NAN</DistanceMeters>
          </Trackpoint>
          <Trackpoint>
            <Time>2022-07-05T14:53:43.000Z</Time>
            <Position>
              <LatitudeDegrees>44.35784823261201381683349609375</LatitudeDegrees>
              <LongitudeDegrees>-1.08882053755223751068115234375</LongitudeDegrees>
            </Position>
            <AltitudeMeters>53.799999237060546875</AltitudeMeters>
            <DistanceMeters>NAN</DistanceMeters>
          </Trackpoint>
          <Trackpoint>
            <Time>2022-07-05T14:53:54.000Z</Time>
            <Position>
              <LatitudeDegrees>44.35733660124242305755615234375</LatitudeDegrees>
              <LongitudeDegrees>-1.08846983872354030609130859375</LongitudeDegrees>
            </Position>
            <AltitudeMeters>53.40000152587890625</AltitudeMeters>
            <DistanceMeters>NAN</DistanceMeters>
          </Trackpoint>
          <Trackpoint>
            <Time>2022-07-05T14:54:01.000Z</Time>
            <Position>
              <LatitudeDegrees>44.35701607726514339447021484375</LatitudeDegrees>
              <LongitudeDegrees>-1.08823497779667377471923828125</LongitudeDegrees>
            </Position>
            <AltitudeMeters>53.200000762939453125</AltitudeMeters>
            <DistanceMeters>NAN</DistanceMeters>
          </Trackpoint>
          <Trackpoint>
            <Time>2022-07-05T14:54:02.000Z</Time>
            <Position>
              <LatitudeDegrees>44.35698171146214008331298828125</LatitudeDegrees>
              <LongitudeDegrees>-1.08820983208715915679931640625</LongitudeDegrees>
            </Position>
            <AltitudeMeters>53.200000762939453125</AltitudeMeters>
            <DistanceMeters>NAN</DistanceMeters>
          </Trackpoint>
          <Trackpoint>
            <Time>2022-07-05T14:54:04.000Z</Time>
            <Position>
              <LatitudeDegrees>44.35688297264277935028076171875</LatitudeDegrees>
              <LongitudeDegrees>-1.088134981691837310791015625</LongitudeDegrees>
            </Position>
            <AltitudeMeters>53.200000762939453125</AltitudeMeters>
            <DistanceMeters>NAN</DistanceMeters>
          </Trackpoint>
          <Trackpoint>
            <Time>2022-07-05T14:54:08.000Z</Time>
            <Position>
              <LatitudeDegrees>44.3567018397152423858642578125</LatitudeDegrees>
              <LongitudeDegrees>-1.0880104266107082366943359375</LongitudeDegrees>
            </Position>
            <AltitudeMeters>53.200000762939453125</AltitudeMeters>
            <DistanceMeters>NAN</DistanceMeters>
          </Trackpoint>
          <Trackpoint>
            <Time>2022-07-05T14:54:15.000Z</Time>
            <Position>
              <LatitudeDegrees>44.3564151786267757415771484375</LatitudeDegrees>
              <LongitudeDegrees>-1.08779308386147022247314453125</LongitudeDegrees>
            </Position>
            <AltitudeMeters>53.200000762939453125</AltitudeMeters>
            <DistanceMeters>NAN</DistanceMeters>
          </Trackpoint>
          <Trackpoint>
            <Time>2022-07-05T14:54:17.000Z</Time>
            <Position>
              <LatitudeDegrees>44.35634619556367397308349609375</LatitudeDegrees>
              <LongitudeDegrees>-1.087725274264812469482421875</LongitudeDegrees>
            </Position>
            <AltitudeMeters>53</AltitudeMeters>
            <DistanceMeters>NAN</DistanceMeters>
          </Trackpoint>
          <Trackpoint>
            <Time>2022-07-05T14:54:19.000Z</Time>
            <Position>
              <LatitudeDegrees>44.35627461411058902740478515625</LatitudeDegrees>
              <LongitudeDegrees>-1.08765511773526668548583984375</LongitudeDegrees>
            </Position>
            <AltitudeMeters>53</AltitudeMeters>
            <DistanceMeters>NAN</DistanceMeters>
          </Trackpoint>
          <Trackpoint>
            <Time>2022-07-05T14:54:20.000Z</Time>
            <Position>
              <LatitudeDegrees>44.356229938566684722900390625</LatitudeDegrees>
              <LongitudeDegrees>-1.0876290500164031982421875</LongitudeDegrees>
            </Position>
            <AltitudeMeters>53</AltitudeMeters>
            <DistanceMeters>NAN</DistanceMeters>
          </Trackpoint>
          <Trackpoint>
            <Time>2022-07-05T14:54:21.000Z</Time>
            <Position>
              <LatitudeDegrees>44.3561824969947338104248046875</LatitudeDegrees>
              <LongitudeDegrees>-1.08759828843176364898681640625</LongitudeDegrees>
            </Position>
            <AltitudeMeters>53</AltitudeMeters>
            <DistanceMeters>NAN</DistanceMeters>
          </Trackpoint>
          <Trackpoint>
            <Time>2022-07-05T14:54:23.000Z</Time>
            <Position>
              <LatitudeDegrees>44.35609641484916210174560546875</LatitudeDegrees>
              <LongitudeDegrees>-1.08751463703811168670654296875</LongitudeDegrees>
            </Position>
            <AltitudeMeters>53</AltitudeMeters>
            <DistanceMeters>NAN</DistanceMeters>
          </Trackpoint>
          <Trackpoint>
            <Time>2022-07-05T14:54:25.000Z</Time>
            <Position>
              <LatitudeDegrees>44.3560205586254596710205078125</LatitudeDegrees>
              <LongitudeDegrees>-1.0874505154788494110107421875</LongitudeDegrees>
            </Position>
            <AltitudeMeters>53</AltitudeMeters>
            <DistanceMeters>NAN</DistanceMeters>
          </Trackpoint>
          <Trackpoint>
            <Time>2022-07-05T14:54:31.000Z</Time>
            <Position>
              <LatitudeDegrees>44.35573942959308624267578125</LatitudeDegrees>
              <LongitudeDegrees>-1.08724993653595447540283203125</LongitudeDegrees>
            </Position>
            <AltitudeMeters>52.799999237060546875</AltitudeMeters>
            <DistanceMeters>NAN</DistanceMeters>
          </Trackpoint>
          <Trackpoint>
            <Time>2022-07-05T14:54:33.000Z</Time>
            <Position>
              <LatitudeDegrees>44.35564278624951839447021484375</LatitudeDegrees>
              <LongitudeDegrees>-1.087188161909580230712890625</LongitudeDegrees>
            </Position>
            <AltitudeMeters>52.799999237060546875</AltitudeMeters>
            <DistanceMeters>NAN</DistanceMeters>
          </Trackpoint>
          <Trackpoint>
            <Time>2022-07-05T14:54:34.000Z</Time>
            <Position>
              <LatitudeDegrees>44.35558981262147426605224609375</LatitudeDegrees>
              <LongitudeDegrees>-1.08715203590691089630126953125</LongitudeDegrees>
            </Position>
            <AltitudeMeters>52.799999237060546875</AltitudeMeters>
            <DistanceMeters>NAN</DistanceMeters>
          </Trackpoint>
          <Trackpoint>
            <Time>2022-07-05T14:54:39.000Z</Time>
            <Position>
              <LatitudeDegrees>44.355404488742351531982421875</LatitudeDegrees>
              <LongitudeDegrees>-1.08694349415600299835205078125</LongitudeDegrees>
            </Position>
            <AltitudeMeters>52.799999237060546875</AltitudeMeters>
            <DistanceMeters>NAN</DistanceMeters>
          </Trackpoint>
          <Trackpoint>
            <Time>2022-07-05T14:54:42.000Z</Time>
            <Position>
              <LatitudeDegrees>44.35522117651998996734619140625</LatitudeDegrees>
              <LongitudeDegrees>-1.08686386607587337493896484375</LongitudeDegrees>
            </Position>
            <AltitudeMeters>52.799999237060546875</AltitudeMeters>
            <DistanceMeters>NAN</DistanceMeters>
          </Trackpoint>
          <Trackpoint>
            <Time>2022-07-05T14:54:44.000Z</Time>
            <Position>
              <LatitudeDegrees>44.35512646101415157318115234375</LatitudeDegrees>
              <LongitudeDegrees>-1.08681030571460723876953125</LongitudeDegrees>
            </Position>
            <AltitudeMeters>52.59999847412109375</AltitudeMeters>
            <DistanceMeters>NAN</DistanceMeters>
          </Trackpoint>
          <Trackpoint>
            <Time>2022-07-05T14:54:51.000Z</Time>
            <Position>
              <LatitudeDegrees>44.35481515713036060333251953125</LatitudeDegrees>
              <LongitudeDegrees>-1.086578629910945892333984375</LongitudeDegrees>
            </Position>
            <AltitudeMeters>52.799999237060546875</AltitudeMeters>
            <DistanceMeters>NAN</DistanceMeters>
          </Trackpoint>
          <Trackpoint>
            <Time>2022-07-05T14:55:01.000Z</Time>
            <Position>
              <LatitudeDegrees>44.3543787114322185516357421875</LatitudeDegrees>
              <LongitudeDegrees>-1.08625818975269794464111328125</LongitudeDegrees>
            </Position>
            <AltitudeMeters>52.799999237060546875</AltitudeMeters>
            <DistanceMeters>NAN</DistanceMeters>
          </Trackpoint>
          <Trackpoint>
            <Time>2022-07-05T14:55:07.000Z</Time>
            <Position>
              <LatitudeDegrees>44.35412365011870861053466796875</LatitudeDegrees>
              <LongitudeDegrees>-1.0860544256865978240966796875</LongitudeDegrees>
            </Position>
            <AltitudeMeters>53</AltitudeMeters>
            <DistanceMeters>NAN</DistanceMeters>
          </Trackpoint>
          <Trackpoint>
            <Time>2022-07-05T14:55:14.000Z</Time>
            <Position>
              <LatitudeDegrees>44.35380555689334869384765625</LatitudeDegrees>
              <LongitudeDegrees>-1.0858096741139888763427734375</LongitudeDegrees>
            </Position>
            <AltitudeMeters>52.40000152587890625</AltitudeMeters>
            <DistanceMeters>NAN</DistanceMeters>
          </Trackpoint>
          <Trackpoint>
            <Time>2022-07-05T14:55:22.000Z</Time>
            <Position>
              <LatitudeDegrees>44.3534681014716625213623046875</LatitudeDegrees>
              <LongitudeDegrees>-1.08551739715039730072021484375</LongitudeDegrees>
            </Position>
            <AltitudeMeters>52.40000152587890625</AltitudeMeters>
            <DistanceMeters>NAN</DistanceMeters>
          </Trackpoint>
          <Trackpoint>
            <Time>2022-07-05T14:55:31.000Z</Time>
            <Position>
              <LatitudeDegrees>44.35304171405732631683349609375</LatitudeDegrees>
              <LongitudeDegrees>-1.08518346212804317474365234375</LongitudeDegrees>
            </Position>
            <AltitudeMeters>52.40000152587890625</AltitudeMeters>
            <DistanceMeters>NAN</DistanceMeters>
          </Trackpoint>
          <Trackpoint>
            <Time>2022-07-05T14:55:42.000Z</Time>
            <Position>
              <LatitudeDegrees>44.3525375425815582275390625</LatitudeDegrees>
              <LongitudeDegrees>-1.08480527065694332122802734375</LongitudeDegrees>
            </Position>
            <AltitudeMeters>52.40000152587890625</AltitudeMeters>
            <DistanceMeters>NAN</DistanceMeters>
          </Trackpoint>
          <Trackpoint>
            <Time>2022-07-05T14:55:48.000Z</Time>
            <Position>
              <LatitudeDegrees>44.3522537313401699066162109375</LatitudeDegrees>
              <LongitudeDegrees>-1.0845929570496082305908203125</LongitudeDegrees>
            </Position>
            <AltitudeMeters>52.40000152587890625</AltitudeMeters>
            <DistanceMeters>NAN</DistanceMeters>
          </Trackpoint>
          <Trackpoint>
            <Time>2022-07-05T14:55:53.000Z</Time>
            <Position>
              <LatitudeDegrees>44.3520150147378444671630859375</LatitudeDegrees>
              <LongitudeDegrees>-1.0844300128519535064697265625</LongitudeDegrees>
            </Position>
            <AltitudeMeters>52.200000762939453125</AltitudeMeters>
            <DistanceMeters>NAN</DistanceMeters>
          </Trackpoint>
          <Trackpoint>
            <Time>2022-07-05T14:55:59.000Z</Time>
            <Position>
              <LatitudeDegrees>44.35173128731548786163330078125</LatitudeDegrees>
              <LongitudeDegrees>-1.08420177362859249114990234375</LongitudeDegrees>
            </Position>
            <AltitudeMeters>52.200000762939453125</AltitudeMeters>
            <DistanceMeters>NAN</DistanceMeters>
          </Trackpoint>
          <Trackpoint>
            <Time>2022-07-05T14:56:02.000Z</Time>
            <Position>
              <LatitudeDegrees>44.35159332118928432464599609375</LatitudeDegrees>
              <LongitudeDegrees>-1.08409322798252105712890625</LongitudeDegrees>
            </Position>
            <AltitudeMeters>52.40000152587890625</AltitudeMeters>
            <DistanceMeters>NAN</DistanceMeters>
          </Trackpoint>
          <Trackpoint>
            <Time>2022-07-05T14:56:05.000Z</Time>
            <Position>
              <LatitudeDegrees>44.35146935284137725830078125</LatitudeDegrees>
              <LongitudeDegrees>-1.08399256132543087005615234375</LongitudeDegrees>
            </Position>
            <AltitudeMeters>52.59999847412109375</AltitudeMeters>
            <DistanceMeters>NAN</DistanceMeters>
          </Trackpoint>
          <Trackpoint>
            <Time>2022-07-05T14:56:08.000Z</Time>
            <Position>
              <LatitudeDegrees>44.351328872144222259521484375</LatitudeDegrees>
              <LongitudeDegrees>-1.08389340341091156005859375</LongitudeDegrees>
            </Position>
            <AltitudeMeters>52.59999847412109375</AltitudeMeters>
            <DistanceMeters>NAN</DistanceMeters>
          </Trackpoint>
          <Trackpoint>
            <Time>2022-07-05T14:56:13.000Z</Time>
            <Position>
              <LatitudeDegrees>44.351115636527538299560546875</LatitudeDegrees>
              <LongitudeDegrees>-1.08373020775616168975830078125</LongitudeDegrees>
            </Position>
            <AltitudeMeters>52</AltitudeMeters>
            <DistanceMeters>NAN</DistanceMeters>
          </Trackpoint>
          <Trackpoint>
            <Time>2022-07-05T14:56:14.000Z</Time>
            <Position>
              <LatitudeDegrees>44.35107615776360034942626953125</LatitudeDegrees>
              <LongitudeDegrees>-1.083697266876697540283203125</LongitudeDegrees>
            </Position>
            <AltitudeMeters>51.799999237060546875</AltitudeMeters>
            <DistanceMeters>NAN</DistanceMeters>
          </Trackpoint>
          <Trackpoint>
            <Time>2022-07-05T14:56:16.000Z</Time>
            <Position>
              <LatitudeDegrees>44.35100357048213481903076171875</LatitudeDegrees>
              <LongitudeDegrees>-1.0836374200880527496337890625</LongitudeDegrees>
            </Position>
            <AltitudeMeters>51.799999237060546875</AltitudeMeters>
            <DistanceMeters>NAN</DistanceMeters>
          </Trackpoint>
          <Trackpoint>
            <Time>2022-07-05T14:56:20.000Z</Time>
            <Position>
              <LatitudeDegrees>44.35089443810284137725830078125</LatitudeDegrees>
              <LongitudeDegrees>-1.0835308022797107696533203125</LongitudeDegrees>
            </Position>
            <AltitudeMeters>51.59999847412109375</AltitudeMeters>
            <DistanceMeters>NAN</DistanceMeters>
          </Trackpoint>
          <Trackpoint>
            <Time>2022-07-05T14:56:25.000Z</Time>
            <Position>
              <LatitudeDegrees>44.3506936915218830108642578125</LatitudeDegrees>
              <LongitudeDegrees>-1.083382777869701385498046875</LongitudeDegrees>
            </Position>
            <AltitudeMeters>51.59999847412109375</AltitudeMeters>
            <DistanceMeters>NAN</DistanceMeters>
          </Trackpoint>
          <Trackpoint>
            <Time>2022-07-05T14:56:30.000Z</Time>
            <Position>
              <LatitudeDegrees>44.35050384141504764556884765625</LatitudeDegrees>
              <LongitudeDegrees>-1.08325411565601825714111328125</LongitudeDegrees>
            </Position>
            <AltitudeMeters>51.200000762939453125</AltitudeMeters>
            <DistanceMeters>NAN</DistanceMeters>
          </Trackpoint>
          <Trackpoint>
            <Time>2022-07-05T14:56:33.000Z</Time>
            <Position>
              <LatitudeDegrees>44.35041256248950958251953125</LatitudeDegrees>
              <LongitudeDegrees>-1.0831757448613643646240234375</LongitudeDegrees>
            </Position>
            <AltitudeMeters>51</AltitudeMeters>
            <DistanceMeters>NAN</DistanceMeters>
          </Trackpoint>
          <Trackpoint>
            <Time>2022-07-05T14:56:37.000Z</Time>
            <Position>
              <LatitudeDegrees>44.3502849899232387542724609375</LatitudeDegrees>
              <LongitudeDegrees>-1.0830359347164630889892578125</LongitudeDegrees>
            </Position>
            <AltitudeMeters>51</AltitudeMeters>
            <DistanceMeters>NAN</DistanceMeters>
          </Trackpoint>
          <Trackpoint>
            <Time>2022-07-05T14:56:39.000Z</Time>
            <Position>
              <LatitudeDegrees>44.35021818615496158599853515625</LatitudeDegrees>
              <LongitudeDegrees>-1.08298539184033870697021484375</LongitudeDegrees>
            </Position>
            <AltitudeMeters>51</AltitudeMeters>
            <DistanceMeters>NAN</DistanceMeters>
          </Trackpoint>
          <Trackpoint>
            <Time>2022-07-05T14:56:45.000Z</Time>
            <Position>
              <LatitudeDegrees>44.3499808944761753082275390625</LatitudeDegrees>
              <LongitudeDegrees>-1.08279529027640819549560546875</LongitudeDegrees>
            </Position>
            <AltitudeMeters>50.200000762939453125</AltitudeMeters>
            <DistanceMeters>NAN</DistanceMeters>
          </Trackpoint>
          <Trackpoint>
            <Time>2022-07-05T14:56:46.000Z</Time>
            <Position>
              <LatitudeDegrees>44.34994845651090145111083984375</LatitudeDegrees>
              <LongitudeDegrees>-1.08275488950312137603759765625</LongitudeDegrees>
            </Position>
            <AltitudeMeters>50</AltitudeMeters>
            <DistanceMeters>NAN</DistanceMeters>
          </Trackpoint>
          <Trackpoint>
            <Time>2022-07-05T14:56:50.000Z</Time>
            <Position>
              <LatitudeDegrees>44.349803365767002105712890625</LatitudeDegrees>
              <LongitudeDegrees>-1.08259211294353008270263671875</LongitudeDegrees>
            </Position>
            <AltitudeMeters>50.59999847412109375</AltitudeMeters>
            <DistanceMeters>NAN</DistanceMeters>
          </Trackpoint>
          <Trackpoint>
            <Time>2022-07-05T14:56:52.000Z</Time>
            <Position>
              <LatitudeDegrees>44.3497337959706783294677734375</LatitudeDegrees>
              <LongitudeDegrees>-1.082498989999294281005859375</LongitudeDegrees>
            </Position>
            <AltitudeMeters>50.799999237060546875</AltitudeMeters>
            <DistanceMeters>NAN</DistanceMeters>
          </Trackpoint>
          <Trackpoint>
            <Time>2022-07-05T14:56:53.000Z</Time>
            <Position>
              <LatitudeDegrees>44.34970119036734104156494140625</LatitudeDegrees>
              <LongitudeDegrees>-1.0824562422931194305419921875</LongitudeDegrees>
            </Position>
            <AltitudeMeters>51</AltitudeMeters>
            <DistanceMeters>NAN</DistanceMeters>
          </Trackpoint>
          <Trackpoint>
            <Time>2022-07-05T14:56:59.000Z</Time>
            <Position>
              <LatitudeDegrees>44.34950354509055614471435546875</LatitudeDegrees>
              <LongitudeDegrees>-1.0821732692420482635498046875</LongitudeDegrees>
            </Position>
            <AltitudeMeters>50.40000152587890625</AltitudeMeters>
            <DistanceMeters>NAN</DistanceMeters>
          </Trackpoint>
          <Trackpoint>
            <Time>2022-07-05T14:57:09.000Z</Time>
            <Position>
              <LatitudeDegrees>44.34921571053564548492431640625</LatitudeDegrees>
              <LongitudeDegrees>-1.0817296989262104034423828125</LongitudeDegrees>
            </Position>
            <AltitudeMeters>50</AltitudeMeters>
            <DistanceMeters>NAN</DistanceMeters>
          </Trackpoint>
          <Trackpoint>
            <Time>2022-07-05T14:57:12.000Z</Time>
            <Position>
              <LatitudeDegrees>44.349165000021457672119140625</LatitudeDegrees>
              <LongitudeDegrees>-1.0816716961562633514404296875</LongitudeDegrees>
            </Position>
            <AltitudeMeters>50</AltitudeMeters>
            <DistanceMeters>NAN</DistanceMeters>
          </Trackpoint>
          <Trackpoint>
            <Time>2022-07-05T14:57:13.000Z</Time>
            <Position>
              <LatitudeDegrees>44.34915192425251007080078125</LatitudeDegrees>
              <LongitudeDegrees>-1.08164479024708271026611328125</LongitudeDegrees>
            </Position>
            <AltitudeMeters>50</AltitudeMeters>
            <DistanceMeters>NAN</DistanceMeters>
          </Trackpoint>
          <Trackpoint>
            <Time>2022-07-05T14:57:19.000Z</Time>
            <Position>
              <LatitudeDegrees>44.34903323650360107421875</LatitudeDegrees>
              <LongitudeDegrees>-1.08142845332622528076171875</LongitudeDegrees>
            </Position>
            <AltitudeMeters>49.799999237060546875</AltitudeMeters>
            <DistanceMeters>NAN</DistanceMeters>
          </Trackpoint>
          <Trackpoint>
            <Time>2022-07-05T14:57:24.000Z</Time>
            <Position>
              <LatitudeDegrees>44.34890977106988430023193359375</LatitudeDegrees>
              <LongitudeDegrees>-1.081198789179325103759765625</LongitudeDegrees>
            </Position>
            <AltitudeMeters>49.40000152587890625</AltitudeMeters>
            <DistanceMeters>NAN</DistanceMeters>
          </Trackpoint>
          <Trackpoint>
            <Time>2022-07-05T14:57:34.000Z</Time>
            <Position>
              <LatitudeDegrees>44.3486832082271575927734375</LatitudeDegrees>
              <LongitudeDegrees>-1.08063342981040477752685546875</LongitudeDegrees>
            </Position>
            <AltitudeMeters>49.59999847412109375</AltitudeMeters>
            <DistanceMeters>NAN</DistanceMeters>
          </Trackpoint>
          <Trackpoint>
            <Time>2022-07-05T14:57:41.000Z</Time>
            <Position>
              <LatitudeDegrees>44.3485428951680660247802734375</LatitudeDegrees>
              <LongitudeDegrees>-1.0801790468394756317138671875</LongitudeDegrees>
            </Position>
            <AltitudeMeters>50</AltitudeMeters>
            <DistanceMeters>NAN</DistanceMeters>
          </Trackpoint>
          <Trackpoint>
            <Time>2022-07-05T14:57:43.000Z</Time>
            <Position>
              <LatitudeDegrees>44.34850542806088924407958984375</LatitudeDegrees>
              <LongitudeDegrees>-1.08005792833864688873291015625</LongitudeDegrees>
            </Position>
            <AltitudeMeters>50</AltitudeMeters>
            <DistanceMeters>NAN</DistanceMeters>
          </Trackpoint>
          <Trackpoint>
            <Time>2022-07-05T14:57:44.000Z</Time>
            <Position>
              <LatitudeDegrees>44.34848631732165813446044921875</LatitudeDegrees>
              <LongitudeDegrees>-1.0799990035593509674072265625</LongitudeDegrees>
            </Position>
            <AltitudeMeters>50.200000762939453125</AltitudeMeters>
            <DistanceMeters>NAN</DistanceMeters>
          </Trackpoint>
          <Trackpoint>
            <Time>2022-07-05T14:57:46.000Z</Time>
            <Position>
              <LatitudeDegrees>44.34845044277608394622802734375</LatitudeDegrees>
              <LongitudeDegrees>-1.07986916787922382354736328125</LongitudeDegrees>
            </Position>
            <AltitudeMeters>50.200000762939453125</AltitudeMeters>
            <DistanceMeters>NAN</DistanceMeters>
          </Trackpoint>
          <Trackpoint>
            <Time>2022-07-05T14:57:48.000Z</Time>
            <Position>
              <LatitudeDegrees>44.3484188430011272430419921875</LatitudeDegrees>
              <LongitudeDegrees>-1.0797428525984287261962890625</LongitudeDegrees>
            </Position>
            <AltitudeMeters>50</AltitudeMeters>
            <DistanceMeters>NAN</DistanceMeters>
          </Trackpoint>
          <Trackpoint>
            <Time>2022-07-05T14:57:50.000Z</Time>
            <Position>
              <LatitudeDegrees>44.34838456101715564727783203125</LatitudeDegrees>
              <LongitudeDegrees>-1.079622991383075714111328125</LongitudeDegrees>
            </Position>
            <AltitudeMeters>49.799999237060546875</AltitudeMeters>
            <DistanceMeters>NAN</DistanceMeters>
          </Trackpoint>
          <Trackpoint>
            <Time>2022-07-05T14:57:54.000Z</Time>
            <Position>
              <LatitudeDegrees>44.34831566177308559417724609375</LatitudeDegrees>
              <LongitudeDegrees>-1.0794042237102985382080078125</LongitudeDegrees>
            </Position>
            <AltitudeMeters>49.59999847412109375</AltitudeMeters>
            <DistanceMeters>NAN</DistanceMeters>
          </Trackpoint>
          <Trackpoint>
            <Time>2022-07-05T14:57:57.000Z</Time>
            <Position>
              <LatitudeDegrees>44.34826679527759552001953125</LatitudeDegrees>
              <LongitudeDegrees>-1.07924907468259334564208984375</LongitudeDegrees>
            </Position>
            <AltitudeMeters>49.40000152587890625</AltitudeMeters>
            <DistanceMeters>NAN</DistanceMeters>
          </Trackpoint>
          <Trackpoint>
            <Time>2022-07-05T14:58:00.000Z</Time>
            <Position>
              <LatitudeDegrees>44.3482233770191669464111328125</LatitudeDegrees>
              <LongitudeDegrees>-1.0790904052555561065673828125</LongitudeDegrees>
            </Position>
            <AltitudeMeters>49.40000152587890625</AltitudeMeters>
            <DistanceMeters>NAN</DistanceMeters>
          </Trackpoint>
          <Trackpoint>
            <Time>2022-07-05T14:58:04.000Z</Time>
            <Position>
              <LatitudeDegrees>44.34816378168761730194091796875</LatitudeDegrees>
              <LongitudeDegrees>-1.07888094149529933929443359375</LongitudeDegrees>
            </Position>
            <AltitudeMeters>49.40000152587890625</AltitudeMeters>
            <DistanceMeters>NAN</DistanceMeters>
          </Trackpoint>
          <Trackpoint>
            <Time>2022-07-05T14:58:05.000Z</Time>
            <Position>
              <LatitudeDegrees>44.348147101700305938720703125</LatitudeDegrees>
              <LongitudeDegrees>-1.0788332484662532806396484375</LongitudeDegrees>
            </Position>
            <AltitudeMeters>49.40000152587890625</AltitudeMeters>
            <DistanceMeters>NAN</DistanceMeters>
          </Trackpoint>
          <Trackpoint>
            <Time>2022-07-05T14:58:09.000Z</Time>
            <Position>
              <LatitudeDegrees>44.34808230958878993988037109375</LatitudeDegrees>
              <LongitudeDegrees>-1.07863032259047031402587890625</LongitudeDegrees>
            </Position>
            <AltitudeMeters>49.59999847412109375</AltitudeMeters>
            <DistanceMeters>NAN</DistanceMeters>
          </Trackpoint>
          <Trackpoint>
            <Time>2022-07-05T14:58:13.000Z</Time>
            <Position>
              <LatitudeDegrees>44.3480245582759380340576171875</LatitudeDegrees>
              <LongitudeDegrees>-1.07841809280216693878173828125</LongitudeDegrees>
            </Position>
            <AltitudeMeters>49.799999237060546875</AltitudeMeters>
            <DistanceMeters>NAN</DistanceMeters>
          </Trackpoint>
          <Trackpoint>
            <Time>2022-07-05T14:58:16.000Z</Time>
            <Position>
              <LatitudeDegrees>44.34798373840749263763427734375</LatitudeDegrees>
              <LongitudeDegrees>-1.078257076442241668701171875</LongitudeDegrees>
            </Position>
            <AltitudeMeters>49.799999237060546875</AltitudeMeters>
            <DistanceMeters>NAN</DistanceMeters>
          </Trackpoint>
          <Trackpoint>
            <Time>2022-07-05T14:58:17.000Z</Time>
            <Position>
              <LatitudeDegrees>44.34796865098178386688232421875</LatitudeDegrees>
              <LongitudeDegrees>-1.07820385135710239410400390625</LongitudeDegrees>
            </Position>
            <AltitudeMeters>49.799999237060546875</AltitudeMeters>
            <DistanceMeters>NAN</DistanceMeters>
          </Trackpoint>
          <Trackpoint>
            <Time>2022-07-05T14:58:20.000Z</Time>
            <Position>
              <LatitudeDegrees>44.34791869483888149261474609375</LatitudeDegrees>
              <LongitudeDegrees>-1.07802481390535831451416015625</LongitudeDegrees>
            </Position>
            <AltitudeMeters>49.59999847412109375</AltitudeMeters>
            <DistanceMeters>NAN</DistanceMeters>
          </Trackpoint>
          <Trackpoint>
            <Time>2022-07-05T14:58:24.000Z</Time>
            <Position>
              <LatitudeDegrees>44.34786002151668071746826171875</LatitudeDegrees>
              <LongitudeDegrees>-1.077798418700695037841796875</LongitudeDegrees>
            </Position>
            <AltitudeMeters>49.59999847412109375</AltitudeMeters>
            <DistanceMeters>NAN</DistanceMeters>
          </Trackpoint>
          <Trackpoint>
            <Time>2022-07-05T14:58:25.000Z</Time>
            <Position>
              <LatitudeDegrees>44.34784141369163990020751953125</LatitudeDegrees>
              <LongitudeDegrees>-1.07774184085428714752197265625</LongitudeDegrees>
            </Position>
            <AltitudeMeters>49.59999847412109375</AltitudeMeters>
            <DistanceMeters>NAN</DistanceMeters>
          </Trackpoint>
          <Trackpoint>
            <Time>2022-07-05T14:58:30.000Z</Time>
            <Position>
              <LatitudeDegrees>44.34775860048830509185791015625</LatitudeDegrees>
              <LongitudeDegrees>-1.07746674679219722747802734375</LongitudeDegrees>
            </Position>
            <AltitudeMeters>49.799999237060546875</AltitudeMeters>
            <DistanceMeters>NAN</DistanceMeters>
          </Trackpoint>
          <Trackpoint>
            <Time>2022-07-05T14:58:32.000Z</Time>
            <Position>
              <LatitudeDegrees>44.3477310240268707275390625</LatitudeDegrees>
              <LongitudeDegrees>-1.07735996134579181671142578125</LongitudeDegrees>
            </Position>
            <AltitudeMeters>49.799999237060546875</AltitudeMeters>
            <DistanceMeters>NAN</DistanceMeters>
          </Trackpoint>
          <Trackpoint>
            <Time>2022-07-05T14:58:37.000Z</Time>
            <Position>
              <LatitudeDegrees>44.34762499295175075531005859375</LatitudeDegrees>
              <LongitudeDegrees>-1.07712342403829097747802734375</LongitudeDegrees>
            </Position>
            <AltitudeMeters>49.59999847412109375</AltitudeMeters>
            <DistanceMeters>NAN</DistanceMeters>
          </Trackpoint>
          <Trackpoint>
            <Time>2022-07-05T14:58:38.000Z</Time>
            <Position>
              <LatitudeDegrees>44.34759758412837982177734375</LatitudeDegrees>
              <LongitudeDegrees>-1.0770901478826999664306640625</LongitudeDegrees>
            </Position>
            <AltitudeMeters>49.40000152587890625</AltitudeMeters>
            <DistanceMeters>NAN</DistanceMeters>
          </Trackpoint>
          <Trackpoint>
            <Time>2022-07-05T14:58:40.000Z</Time>
            <Position>
              <LatitudeDegrees>44.347572438418865203857421875</LatitudeDegrees>
              <LongitudeDegrees>-1.0770173929631710052490234375</LongitudeDegrees>
            </Position>
            <AltitudeMeters>49.40000152587890625</AltitudeMeters>
            <DistanceMeters>NAN</DistanceMeters>
          </Trackpoint>
          <Trackpoint>
            <Time>2022-07-05T14:58:41.000Z</Time>
            <Position>
              <LatitudeDegrees>44.3475749529898166656494140625</LatitudeDegrees>
              <LongitudeDegrees>-1.07697062194347381591796875</LongitudeDegrees>
            </Position>
            <AltitudeMeters>49.200000762939453125</AltitudeMeters>
            <DistanceMeters>NAN</DistanceMeters>
          </Trackpoint>
          <Trackpoint>
            <Time>2022-07-05T14:58:46.000Z</Time>
            <Position>
              <LatitudeDegrees>44.34753145091235637664794921875</LatitudeDegrees>
              <LongitudeDegrees>-1.0767297260463237762451171875</LongitudeDegrees>
            </Position>
            <AltitudeMeters>49.40000152587890625</AltitudeMeters>
            <DistanceMeters>NAN</DistanceMeters>
          </Trackpoint>
          <Trackpoint>
            <Time>2022-07-05T14:58:52.000Z</Time>
            <Position>
              <LatitudeDegrees>44.3474663235247135162353515625</LatitudeDegrees>
              <LongitudeDegrees>-1.07652001082897186279296875</LongitudeDegrees>
            </Position>
            <AltitudeMeters>49.40000152587890625</AltitudeMeters>
            <DistanceMeters>NAN</DistanceMeters>
          </Trackpoint>
          <Trackpoint>
            <Time>2022-07-05T14:58:58.000Z</Time>
            <Position>
              <LatitudeDegrees>44.34731570072472095489501953125</LatitudeDegrees>
              <LongitudeDegrees>-1.07639260590076446533203125</LongitudeDegrees>
            </Position>
            <AltitudeMeters>49.59999847412109375</AltitudeMeters>
            <DistanceMeters>NAN</DistanceMeters>
          </Trackpoint>
          <Trackpoint>
            <Time>2022-07-05T14:59:02.000Z</Time>
            <Position>
              <LatitudeDegrees>44.347255937755107879638671875</LatitudeDegrees>
              <LongitudeDegrees>-1.076221279799938201904296875</LongitudeDegrees>
            </Position>
            <AltitudeMeters>49.40000152587890625</AltitudeMeters>
            <DistanceMeters>NAN</DistanceMeters>
          </Trackpoint>
          <Trackpoint>
            <Time>2022-07-05T14:59:08.000Z</Time>
            <Position>
              <LatitudeDegrees>44.347176812589168548583984375</LatitudeDegrees>
              <LongitudeDegrees>-1.07589430175721645355224609375</LongitudeDegrees>
            </Position>
            <AltitudeMeters>49.59999847412109375</AltitudeMeters>
            <DistanceMeters>NAN</DistanceMeters>
          </Trackpoint>
          <Trackpoint>
            <Time>2022-07-05T14:59:14.000Z</Time>
            <Position>
              <LatitudeDegrees>44.347060136497020721435546875</LatitudeDegrees>
              <LongitudeDegrees>-1.07555433176457881927490234375</LongitudeDegrees>
            </Position>
            <AltitudeMeters>49.799999237060546875</AltitudeMeters>
            <DistanceMeters>NAN</DistanceMeters>
          </Trackpoint>
          <Trackpoint>
            <Time>2022-07-05T14:59:16.000Z</Time>
            <Position>
              <LatitudeDegrees>44.34702853672206401824951171875</LatitudeDegrees>
              <LongitudeDegrees>-1.07543095014989376068115234375</LongitudeDegrees>
            </Position>
            <AltitudeMeters>49.40000152587890625</AltitudeMeters>
            <DistanceMeters>NAN</DistanceMeters>
          </Trackpoint>
          <Trackpoint>
            <Time>2022-07-05T14:59:21.000Z</Time>
            <Position>
              <LatitudeDegrees>44.34693985618650913238525390625</LatitudeDegrees>
              <LongitudeDegrees>-1.07511696405708789825439453125</LongitudeDegrees>
            </Position>
            <AltitudeMeters>49.40000152587890625</AltitudeMeters>
            <DistanceMeters>NAN</DistanceMeters>
          </Trackpoint>
          <Trackpoint>
            <Time>2022-07-05T14:59:23.000Z</Time>
            <Position>
              <LatitudeDegrees>44.34690381400287151336669921875</LatitudeDegrees>
              <LongitudeDegrees>-1.07499592937529087066650390625</LongitudeDegrees>
            </Position>
            <AltitudeMeters>49.40000152587890625</AltitudeMeters>
            <DistanceMeters>NAN</DistanceMeters>
          </Trackpoint>
          <Trackpoint>
            <Time>2022-07-05T14:59:24.000Z</Time>
            <Position>
              <LatitudeDegrees>44.3468826077878475189208984375</LatitudeDegrees>
              <LongitudeDegrees>-1.07493608258664608001708984375</LongitudeDegrees>
            </Position>
            <AltitudeMeters>49.40000152587890625</AltitudeMeters>
            <DistanceMeters>NAN</DistanceMeters>
          </Trackpoint>
          <Trackpoint>
            <Time>2022-07-05T14:59:31.000Z</Time>
            <Position>
              <LatitudeDegrees>44.34676551260054111480712890625</LatitudeDegrees>
              <LongitudeDegrees>-1.074516065418720245361328125</LongitudeDegrees>
            </Position>
            <AltitudeMeters>49.59999847412109375</AltitudeMeters>
            <DistanceMeters>NAN</DistanceMeters>
          </Trackpoint>
          <Trackpoint>
            <Time>2022-07-05T14:59:32.000Z</Time>
            <Position>
              <LatitudeDegrees>44.3467531912028789520263671875</LatitudeDegrees>
              <LongitudeDegrees>-1.07445412315428256988525390625</LongitudeDegrees>
            </Position>
            <AltitudeMeters>49.59999847412109375</AltitudeMeters>
            <DistanceMeters>NAN</DistanceMeters>
          </Trackpoint>
          <Trackpoint>
            <Time>2022-07-05T14:59:34.000Z</Time>
            <Position>
              <LatitudeDegrees>44.346732906997203826904296875</LatitudeDegrees>
              <LongitudeDegrees>-1.07431565411388874053955078125</LongitudeDegrees>
            </Position>
            <AltitudeMeters>49.799999237060546875</AltitudeMeters>
            <DistanceMeters>NAN</DistanceMeters>
          </Trackpoint>
          <Trackpoint>
            <Time>2022-07-05T14:59:36.000Z</Time>
            <Position>
              <LatitudeDegrees>44.34670533053576946258544921875</LatitudeDegrees>
              <LongitudeDegrees>-1.07418154366314411163330078125</LongitudeDegrees>
            </Position>
            <AltitudeMeters>49.799999237060546875</AltitudeMeters>
            <DistanceMeters>NAN</DistanceMeters>
          </Trackpoint>
          <Trackpoint>
            <Time>2022-07-05T14:59:37.000Z</Time>
            <Position>
              <LatitudeDegrees>44.3466864712536334991455078125</LatitudeDegrees>
              <LongitudeDegrees>-1.07411884702742099761962890625</LongitudeDegrees>
            </Position>
            <AltitudeMeters>49.799999237060546875</AltitudeMeters>
            <DistanceMeters>NAN</DistanceMeters>
          </Trackpoint>
          <Trackpoint>
            <Time>2022-07-05T14:59:44.000Z</Time>
            <Position>
              <LatitudeDegrees>44.34654775075614452362060546875</LatitudeDegrees>
              <LongitudeDegrees>-1.07372506521642208099365234375</LongitudeDegrees>
            </Position>
            <AltitudeMeters>49.40000152587890625</AltitudeMeters>
            <DistanceMeters>NAN</DistanceMeters>
          </Trackpoint>
          <Trackpoint>
            <Time>2022-07-05T14:59:46.000Z</Time>
            <Position>
              <LatitudeDegrees>44.3464997224509716033935546875</LatitudeDegrees>
              <LongitudeDegrees>-1.0736790485680103302001953125</LongitudeDegrees>
            </Position>
            <AltitudeMeters>49.200000762939453125</AltitudeMeters>
            <DistanceMeters>NAN</DistanceMeters>
          </Trackpoint>
          <Trackpoint>
            <Time>2022-07-05T14:59:47.000Z</Time>
            <Position>
              <LatitudeDegrees>44.3464698828756809234619140625</LatitudeDegrees>
              <LongitudeDegrees>-1.0736850835382938385009765625</LongitudeDegrees>
            </Position>
            <AltitudeMeters>49.200000762939453125</AltitudeMeters>
            <DistanceMeters>NAN</DistanceMeters>
          </Trackpoint>
          <Trackpoint>
            <Time>2022-07-05T14:59:48.000Z</Time>
            <Position>
              <LatitudeDegrees>44.34644431807100772857666015625</LatitudeDegrees>
              <LongitudeDegrees>-1.0737105645239353179931640625</LongitudeDegrees>
            </Position>
            <AltitudeMeters>49.200000762939453125</AltitudeMeters>
            <DistanceMeters>NAN</DistanceMeters>
          </Trackpoint>
          <Trackpoint>
            <Time>2022-07-05T14:59:49.000Z</Time>
            <Position>
              <LatitudeDegrees>44.346424452960491180419921875</LatitudeDegrees>
              <LongitudeDegrees>-1.07375289313495159149169921875</LongitudeDegrees>
            </Position>
            <AltitudeMeters>49.200000762939453125</AltitudeMeters>
            <DistanceMeters>NAN</DistanceMeters>
          </Trackpoint>
          <Trackpoint>
            <Time>2022-07-05T14:59:50.000Z</Time>
            <Position>
              <LatitudeDegrees>44.346418417990207672119140625</LatitudeDegrees>
              <LongitudeDegrees>-1.07380502857267856597900390625</LongitudeDegrees>
            </Position>
            <AltitudeMeters>49.200000762939453125</AltitudeMeters>
            <DistanceMeters>NAN</DistanceMeters>
          </Trackpoint>
          <Trackpoint>
            <Time>2022-07-05T14:59:55.000Z</Time>
            <Position>
              <LatitudeDegrees>44.3463833816349506378173828125</LatitudeDegrees>
              <LongitudeDegrees>-1.07407475821673870086669921875</LongitudeDegrees>
            </Position>
            <AltitudeMeters>49.200000762939453125</AltitudeMeters>
            <DistanceMeters>NAN</DistanceMeters>
          </Trackpoint>
          <Trackpoint>
            <Time>2022-07-05T15:00:01.000Z</Time>
            <Position>
              <LatitudeDegrees>44.34625438414514064788818359375</LatitudeDegrees>
              <LongitudeDegrees>-1.074398048222064971923828125</LongitudeDegrees>
            </Position>
            <AltitudeMeters>49.200000762939453125</AltitudeMeters>
            <DistanceMeters>NAN</DistanceMeters>
          </Trackpoint>
          <Trackpoint>
            <Time>2022-07-05T15:00:02.000Z</Time>
            <Position>
              <LatitudeDegrees>44.34623728506267070770263671875</LatitudeDegrees>
              <LongitudeDegrees>-1.0744515247642993927001953125</LongitudeDegrees>
            </Position>
            <AltitudeMeters>49.200000762939453125</AltitudeMeters>
            <DistanceMeters>NAN</DistanceMeters>
          </Trackpoint>
          <Trackpoint>
            <Time>2022-07-05T15:00:05.000Z</Time>
            <Position>
              <LatitudeDegrees>44.34618867002427577972412109375</LatitudeDegrees>
              <LongitudeDegrees>-1.07462243176996707916259765625</LongitudeDegrees>
            </Position>
            <AltitudeMeters>49</AltitudeMeters>
            <DistanceMeters>NAN</DistanceMeters>
          </Trackpoint>
          <Trackpoint>
            <Time>2022-07-05T15:00:06.000Z</Time>
            <Position>
              <LatitudeDegrees>44.34617391787469387054443359375</LatitudeDegrees>
              <LongitudeDegrees>-1.074681021273136138916015625</LongitudeDegrees>
            </Position>
            <AltitudeMeters>49</AltitudeMeters>
            <DistanceMeters>NAN</DistanceMeters>
          </Trackpoint>
          <Trackpoint>
            <Time>2022-07-05T15:00:09.000Z</Time>
            <Position>
              <LatitudeDegrees>44.346125386655330657958984375</LatitudeDegrees>
              <LongitudeDegrees>-1.07484723441302776336669921875</LongitudeDegrees>
            </Position>
            <AltitudeMeters>49</AltitudeMeters>
            <DistanceMeters>NAN</DistanceMeters>
          </Trackpoint>
          <Trackpoint>
            <Time>2022-07-05T15:00:12.000Z</Time>
            <Position>
              <LatitudeDegrees>44.3460682220757007598876953125</LatitudeDegrees>
              <LongitudeDegrees>-1.07499877922236919403076171875</LongitudeDegrees>
            </Position>
            <AltitudeMeters>49.200000762939453125</AltitudeMeters>
            <DistanceMeters>NAN</DistanceMeters>
          </Trackpoint>
          <Trackpoint>
            <Time>2022-07-05T15:00:14.000Z</Time>
            <Position>
              <LatitudeDegrees>44.34600569307804107666015625</LatitudeDegrees>
              <LongitudeDegrees>-1.0750516690313816070556640625</LongitudeDegrees>
            </Position>
            <AltitudeMeters>49.200000762939453125</AltitudeMeters>
            <DistanceMeters>NAN</DistanceMeters>
          </Trackpoint>
          <Trackpoint>
            <Time>2022-07-05T15:00:18.000Z</Time>
            <Position>
              <LatitudeDegrees>44.34584283269941806793212890625</LatitudeDegrees>
              <LongitudeDegrees>-1.07502912171185016632080078125</LongitudeDegrees>
            </Position>
            <AltitudeMeters>49</AltitudeMeters>
            <DistanceMeters>NAN</DistanceMeters>
          </Trackpoint>
          <Trackpoint>
            <Time>2022-07-05T15:00:22.000Z</Time>
            <Position>
              <LatitudeDegrees>44.345653317868709564208984375</LatitudeDegrees>
              <LongitudeDegrees>-1.074988804757595062255859375</LongitudeDegrees>
            </Position>
            <AltitudeMeters>49</AltitudeMeters>
            <DistanceMeters>NAN</DistanceMeters>
          </Trackpoint>
          <Trackpoint>
            <Time>2022-07-05T15:00:25.000Z</Time>
            <Position>
              <LatitudeDegrees>44.3455230630934238433837890625</LatitudeDegrees>
              <LongitudeDegrees>-1.0749475657939910888671875</LongitudeDegrees>
            </Position>
            <AltitudeMeters>49.200000762939453125</AltitudeMeters>
            <DistanceMeters>NAN</DistanceMeters>
          </Trackpoint>
          <Trackpoint>
            <Time>2022-07-05T15:00:27.000Z</Time>
            <Position>
              <LatitudeDegrees>44.34547738172113895416259765625</LatitudeDegrees>
              <LongitudeDegrees>-1.07486450113356113433837890625</LongitudeDegrees>
            </Position>
            <AltitudeMeters>49</AltitudeMeters>
            <DistanceMeters>NAN</DistanceMeters>
          </Trackpoint>
          <Trackpoint>
            <Time>2022-07-05T15:00:28.000Z</Time>
            <Position>
              <LatitudeDegrees>44.34547134675085544586181640625</LatitudeDegrees>
              <LongitudeDegrees>-1.0748122818768024444580078125</LongitudeDegrees>
            </Position>
            <AltitudeMeters>49</AltitudeMeters>
            <DistanceMeters>NAN</DistanceMeters>
          </Trackpoint>
          <Trackpoint>
            <Time>2022-07-05T15:00:29.000Z</Time>
            <Position>
              <LatitudeDegrees>44.34547637589275836944580078125</LatitudeDegrees>
              <LongitudeDegrees>-1.07475436292588710784912109375</LongitudeDegrees>
            </Position>
            <AltitudeMeters>49</AltitudeMeters>
            <DistanceMeters>NAN</DistanceMeters>
          </Trackpoint>
          <Trackpoint>
            <Time>2022-07-05T15:00:32.000Z</Time>
            <Position>
              <LatitudeDegrees>44.34550353325903415679931640625</LatitudeDegrees>
              <LongitudeDegrees>-1.07457716949284076690673828125</LongitudeDegrees>
            </Position>
            <AltitudeMeters>49</AltitudeMeters>
            <DistanceMeters>NAN</DistanceMeters>
          </Trackpoint>
          <Trackpoint>
            <Time>2022-07-05T15:00:33.000Z</Time>
            <Position>
              <LatitudeDegrees>44.3455116637051105499267578125</LatitudeDegrees>
              <LongitudeDegrees>-1.074518077075481414794921875</LongitudeDegrees>
            </Position>
            <AltitudeMeters>49.200000762939453125</AltitudeMeters>
            <DistanceMeters>NAN</DistanceMeters>
          </Trackpoint>
          <Trackpoint>
            <Time>2022-07-05T15:00:38.000Z</Time>
            <Position>
              <LatitudeDegrees>44.34555868618190288543701171875</LatitudeDegrees>
              <LongitudeDegrees>-1.07420526444911956787109375</LongitudeDegrees>
            </Position>
            <AltitudeMeters>49.40000152587890625</AltitudeMeters>
            <DistanceMeters>NAN</DistanceMeters>
          </Trackpoint>
          <Trackpoint>
            <Time>2022-07-05T15:00:40.000Z</Time>
            <Position>
              <LatitudeDegrees>44.34557092376053333282470703125</LatitudeDegrees>
              <LongitudeDegrees>-1.074086241424083709716796875</LongitudeDegrees>
            </Position>
            <AltitudeMeters>49.40000152587890625</AltitudeMeters>
            <DistanceMeters>NAN</DistanceMeters>
          </Trackpoint>
          <Trackpoint>
            <Time>2022-07-05T15:00:42.000Z</Time>
            <Position>
              <LatitudeDegrees>44.3455666489899158477783203125</LatitudeDegrees>
              <LongitudeDegrees>-1.07396923005580902099609375</LongitudeDegrees>
            </Position>
            <AltitudeMeters>49.40000152587890625</AltitudeMeters>
            <DistanceMeters>NAN</DistanceMeters>
          </Trackpoint>
          <Trackpoint>
            <Time>2022-07-05T15:00:44.000Z</Time>
            <Position>
              <LatitudeDegrees>44.34551459737122058868408203125</LatitudeDegrees>
              <LongitudeDegrees>-1.0738637857139110565185546875</LongitudeDegrees>
            </Position>
            <AltitudeMeters>49.40000152587890625</AltitudeMeters>
            <DistanceMeters>NAN</DistanceMeters>
          </Trackpoint>
          <Trackpoint>
            <Time>2022-07-05T15:00:46.000Z</Time>
            <Position>
              <LatitudeDegrees>44.34544284828007221221923828125</LatitudeDegrees>
              <LongitudeDegrees>-1.0737915337085723876953125</LongitudeDegrees>
            </Position>
            <AltitudeMeters>49</AltitudeMeters>
            <DistanceMeters>NAN</DistanceMeters>
          </Trackpoint>
          <Trackpoint>
            <Time>2022-07-05T15:00:47.000Z</Time>
            <Position>
              <LatitudeDegrees>44.3453956581652164459228515625</LatitudeDegrees>
              <LongitudeDegrees>-1.07376798056066036224365234375</LongitudeDegrees>
            </Position>
            <AltitudeMeters>48.59999847412109375</AltitudeMeters>
            <DistanceMeters>NAN</DistanceMeters>
          </Trackpoint>
          <Trackpoint>
            <Time>2022-07-05T15:00:48.000Z</Time>
            <Position>
              <LatitudeDegrees>44.34534427709877490997314453125</LatitudeDegrees>
              <LongitudeDegrees>-1.07376328669488430023193359375</LongitudeDegrees>
            </Position>
            <AltitudeMeters>48.40000152587890625</AltitudeMeters>
            <DistanceMeters>NAN</DistanceMeters>
          </Trackpoint>
          <Trackpoint>
            <Time>2022-07-05T15:00:50.000Z</Time>
            <Position>
              <LatitudeDegrees>44.34525475837290287017822265625</LatitudeDegrees>
              <LongitudeDegrees>-1.07381776906549930572509765625</LongitudeDegrees>
            </Position>
            <AltitudeMeters>48</AltitudeMeters>
            <DistanceMeters>NAN</DistanceMeters>
          </Trackpoint>
          <Trackpoint>
            <Time>2022-07-05T15:00:51.000Z</Time>
            <Position>
              <LatitudeDegrees>44.34523531235754489898681640625</LatitudeDegrees>
              <LongitudeDegrees>-1.0738637857139110565185546875</LongitudeDegrees>
            </Position>
            <AltitudeMeters>47.799999237060546875</AltitudeMeters>
            <DistanceMeters>NAN</DistanceMeters>
          </Trackpoint>
          <Trackpoint>
            <Time>2022-07-05T15:00:52.000Z</Time>
            <Position>
              <LatitudeDegrees>44.34522089548408985137939453125</LatitudeDegrees>
              <LongitudeDegrees>-1.07391801662743091583251953125</LongitudeDegrees>
            </Position>
            <AltitudeMeters>47.59999847412109375</AltitudeMeters>
            <DistanceMeters>NAN</DistanceMeters>
          </Trackpoint>
          <Trackpoint>
            <Time>2022-07-05T15:00:53.000Z</Time>
            <Position>
              <LatitudeDegrees>44.345209412276744842529296875</LatitudeDegrees>
              <LongitudeDegrees>-1.07397702522575855255126953125</LongitudeDegrees>
            </Position>
            <AltitudeMeters>47.40000152587890625</AltitudeMeters>
            <DistanceMeters>NAN</DistanceMeters>
          </Trackpoint>
          <Trackpoint>
            <Time>2022-07-05T15:00:56.000Z</Time>
            <Position>
              <LatitudeDegrees>44.34513858519494533538818359375</LatitudeDegrees>
              <LongitudeDegrees>-1.074170060455799102783203125</LongitudeDegrees>
            </Position>
            <AltitudeMeters>47.200000762939453125</AltitudeMeters>
            <DistanceMeters>NAN</DistanceMeters>
          </Trackpoint>
          <Trackpoint>
            <Time>2022-07-05T15:01:00.000Z</Time>
            <Position>
              <LatitudeDegrees>44.34505107812583446502685546875</LatitudeDegrees>
              <LongitudeDegrees>-1.0743432305753231048583984375</LongitudeDegrees>
            </Position>
            <AltitudeMeters>47.40000152587890625</AltitudeMeters>
            <DistanceMeters>NAN</DistanceMeters>
          </Trackpoint>
          <Trackpoint>
            <Time>2022-07-05T15:01:06.000Z</Time>
            <Position>
              <LatitudeDegrees>44.34482526965439319610595703125</LatitudeDegrees>
              <LongitudeDegrees>-1.07462109066545963287353515625</LongitudeDegrees>
            </Position>
            <AltitudeMeters>47.200000762939453125</AltitudeMeters>
            <DistanceMeters>NAN</DistanceMeters>
          </Trackpoint>
          <Trackpoint>
            <Time>2022-07-05T15:01:12.000Z</Time>
            <Position>
              <LatitudeDegrees>44.344622008502483367919921875</LatitudeDegrees>
              <LongitudeDegrees>-1.07483885250985622406005859375</LongitudeDegrees>
            </Position>
            <AltitudeMeters>46.59999847412109375</AltitudeMeters>
            <DistanceMeters>NAN</DistanceMeters>
          </Trackpoint>
          <Trackpoint>
            <Time>2022-07-05T15:01:13.000Z</Time>
            <Position>
              <LatitudeDegrees>44.34457666240632534027099609375</LatitudeDegrees>
              <LongitudeDegrees>-1.07485561631619930267333984375</LongitudeDegrees>
            </Position>
            <AltitudeMeters>46.40000152587890625</AltitudeMeters>
            <DistanceMeters>NAN</DistanceMeters>
          </Trackpoint>
          <Trackpoint>
            <Time>2022-07-05T15:01:15.000Z</Time>
            <Position>
              <LatitudeDegrees>44.344482533633708953857421875</LatitudeDegrees>
              <LongitudeDegrees>-1.07484899461269378662109375</LongitudeDegrees>
            </Position>
            <AltitudeMeters>46</AltitudeMeters>
            <DistanceMeters>NAN</DistanceMeters>
          </Trackpoint>
          <Trackpoint>
            <Time>2022-07-05T15:01:16.000Z</Time>
            <Position>
              <LatitudeDegrees>44.34444598853588104248046875</LatitudeDegrees>
              <LongitudeDegrees>-1.07482644729316234588623046875</LongitudeDegrees>
            </Position>
            <AltitudeMeters>45.799999237060546875</AltitudeMeters>
            <DistanceMeters>NAN</DistanceMeters>
          </Trackpoint>
          <Trackpoint>
            <Time>2022-07-05T15:01:20.000Z</Time>
            <Position>
              <LatitudeDegrees>44.3443388678133487701416015625</LatitudeDegrees>
              <LongitudeDegrees>-1.07472871430218219757080078125</LongitudeDegrees>
            </Position>
            <AltitudeMeters>46.200000762939453125</AltitudeMeters>
            <DistanceMeters>NAN</DistanceMeters>
          </Trackpoint>
          <Trackpoint>
            <Time>2022-07-05T15:01:26.000Z</Time>
            <Position>
              <LatitudeDegrees>44.344202242791652679443359375</LatitudeDegrees>
              <LongitudeDegrees>-1.07453878037631511688232421875</LongitudeDegrees>
            </Position>
            <AltitudeMeters>47</AltitudeMeters>
            <DistanceMeters>NAN</DistanceMeters>
          </Trackpoint>
          <Trackpoint>
            <Time>2022-07-05T15:01:31.000Z</Time>
            <Position>
              <LatitudeDegrees>44.344060756266117095947265625</LatitudeDegrees>
              <LongitudeDegrees>-1.0742661170661449432373046875</LongitudeDegrees>
            </Position>
            <AltitudeMeters>47.200000762939453125</AltitudeMeters>
            <DistanceMeters>NAN</DistanceMeters>
          </Trackpoint>
          <Trackpoint>
            <Time>2022-07-05T15:01:34.000Z</Time>
            <Position>
              <LatitudeDegrees>44.3439764343202114105224609375</LatitudeDegrees>
              <LongitudeDegrees>-1.07409303076565265655517578125</LongitudeDegrees>
            </Position>
            <AltitudeMeters>47</AltitudeMeters>
            <DistanceMeters>NAN</DistanceMeters>
          </Trackpoint>
          <Trackpoint>
            <Time>2022-07-05T15:01:36.000Z</Time>
            <Position>
              <LatitudeDegrees>44.3439543060958385467529296875</LatitudeDegrees>
              <LongitudeDegrees>-1.07394869439303874969482421875</LongitudeDegrees>
            </Position>
            <AltitudeMeters>47</AltitudeMeters>
            <DistanceMeters>NAN</DistanceMeters>
          </Trackpoint>
          <Trackpoint>
            <Time>2022-07-05T15:01:37.000Z</Time>
            <Position>
              <LatitudeDegrees>44.3439335189759731292724609375</LatitudeDegrees>
              <LongitudeDegrees>-1.0738800466060638427734375</LongitudeDegrees>
            </Position>
            <AltitudeMeters>47</AltitudeMeters>
            <DistanceMeters>NAN</DistanceMeters>
          </Trackpoint>
          <Trackpoint>
            <Time>2022-07-05T15:01:39.000Z</Time>
            <Position>
              <LatitudeDegrees>44.343822039663791656494140625</LatitudeDegrees>
              <LongitudeDegrees>-1.073834113776683807373046875</LongitudeDegrees>
            </Position>
            <AltitudeMeters>47</AltitudeMeters>
            <DistanceMeters>NAN</DistanceMeters>
          </Trackpoint>
          <Trackpoint>
            <Time>2022-07-05T15:01:41.000Z</Time>
            <Position>
              <LatitudeDegrees>44.34373981319367885589599609375</LatitudeDegrees>
              <LongitudeDegrees>-1.07384811155498027801513671875</LongitudeDegrees>
            </Position>
            <AltitudeMeters>47</AltitudeMeters>
            <DistanceMeters>NAN</DistanceMeters>
          </Trackpoint>
          <Trackpoint>
            <Time>2022-07-05T15:01:46.000Z</Time>
            <Position>
              <LatitudeDegrees>44.3435315228998661041259765625</LatitudeDegrees>
              <LongitudeDegrees>-1.07390728779137134552001953125</LongitudeDegrees>
            </Position>
            <AltitudeMeters>47.40000152587890625</AltitudeMeters>
            <DistanceMeters>NAN</DistanceMeters>
          </Trackpoint>
          <Trackpoint>
            <Time>2022-07-05T15:01:48.000Z</Time>
            <Position>
              <LatitudeDegrees>44.34344091452658176422119140625</LatitudeDegrees>
              <LongitudeDegrees>-1.07392623089253902435302734375</LongitudeDegrees>
            </Position>
            <AltitudeMeters>47.59999847412109375</AltitudeMeters>
            <DistanceMeters>NAN</DistanceMeters>
          </Trackpoint>
          <Trackpoint>
            <Time>2022-07-05T15:01:52.000Z</Time>
            <Position>
              <LatitudeDegrees>44.3432871066033840179443359375</LatitudeDegrees>
              <LongitudeDegrees>-1.07394869439303874969482421875</LongitudeDegrees>
            </Position>
            <AltitudeMeters>47.40000152587890625</AltitudeMeters>
            <DistanceMeters>NAN</DistanceMeters>
          </Trackpoint>
          <Trackpoint>
            <Time>2022-07-05T15:01:54.000Z</Time>
            <Position>
              <LatitudeDegrees>44.343211166560649871826171875</LatitudeDegrees>
              <LongitudeDegrees>-1.0739851556718349456787109375</LongitudeDegrees>
            </Position>
            <AltitudeMeters>47.40000152587890625</AltitudeMeters>
            <DistanceMeters>NAN</DistanceMeters>
          </Trackpoint>
          <Trackpoint>
            <Time>2022-07-05T15:01:56.000Z</Time>
            <Position>
              <LatitudeDegrees>44.34312676079571247100830078125</LatitudeDegrees>
              <LongitudeDegrees>-1.07402421534061431884765625</LongitudeDegrees>
            </Position>
            <AltitudeMeters>47.59999847412109375</AltitudeMeters>
            <DistanceMeters>NAN</DistanceMeters>
          </Trackpoint>
          <Trackpoint>
            <Time>2022-07-05T15:01:58.000Z</Time>
            <Position>
              <LatitudeDegrees>44.34304587543010711669921875</LatitudeDegrees>
              <LongitudeDegrees>-1.07407777570188045501708984375</LongitudeDegrees>
            </Position>
            <AltitudeMeters>47.59999847412109375</AltitudeMeters>
            <DistanceMeters>NAN</DistanceMeters>
          </Trackpoint>
          <Trackpoint>
            <Time>2022-07-05T15:01:59.000Z</Time>
            <Position>
              <LatitudeDegrees>44.34300606139004230499267578125</LatitudeDegrees>
              <LongitudeDegrees>-1.0741122253239154815673828125</LongitudeDegrees>
            </Position>
            <AltitudeMeters>47.59999847412109375</AltitudeMeters>
            <DistanceMeters>NAN</DistanceMeters>
          </Trackpoint>
          <Trackpoint>
            <Time>2022-07-05T15:02:02.000Z</Time>
            <Position>
              <LatitudeDegrees>44.3428757227957248687744140625</LatitudeDegrees>
              <LongitudeDegrees>-1.074200235307216644287109375</LongitudeDegrees>
            </Position>
            <AltitudeMeters>47.59999847412109375</AltitudeMeters>
            <DistanceMeters>NAN</DistanceMeters>
          </Trackpoint>
          <Trackpoint>
            <Time>2022-07-05T15:02:07.000Z</Time>
            <Position>
              <LatitudeDegrees>44.342632479965686798095703125</LatitudeDegrees>
              <LongitudeDegrees>-1.0743502713739871978759765625</LongitudeDegrees>
            </Position>
            <AltitudeMeters>47.40000152587890625</AltitudeMeters>
            <DistanceMeters>NAN</DistanceMeters>
          </Trackpoint>
          <Trackpoint>
            <Time>2022-07-05T15:02:16.000Z</Time>
            <Position>
              <LatitudeDegrees>44.34224791824817657470703125</LatitudeDegrees>
              <LongitudeDegrees>-1.074595861136913299560546875</LongitudeDegrees>
            </Position>
            <AltitudeMeters>47.40000152587890625</AltitudeMeters>
            <DistanceMeters>NAN</DistanceMeters>
          </Trackpoint>
          <Trackpoint>
            <Time>2022-07-05T15:02:20.000Z</Time>
            <Position>
              <LatitudeDegrees>44.342102743685245513916015625</LatitudeDegrees>
              <LongitudeDegrees>-1.0746967792510986328125</LongitudeDegrees>
            </Position>
            <AltitudeMeters>47.200000762939453125</AltitudeMeters>
            <DistanceMeters>NAN</DistanceMeters>
          </Trackpoint>
          <Trackpoint>
            <Time>2022-07-05T15:02:23.000Z</Time>
            <Position>
              <LatitudeDegrees>44.341992437839508056640625</LatitudeDegrees>
              <LongitudeDegrees>-1.07479811646044254302978515625</LongitudeDegrees>
            </Position>
            <AltitudeMeters>46.40000152587890625</AltitudeMeters>
            <DistanceMeters>NAN</DistanceMeters>
          </Trackpoint>
          <Trackpoint>
            <Time>2022-07-05T15:02:28.000Z</Time>
            <Position>
              <LatitudeDegrees>44.34178926050662994384765625</LatitudeDegrees>
              <LongitudeDegrees>-1.075050830841064453125</LongitudeDegrees>
            </Position>
            <AltitudeMeters>45.799999237060546875</AltitudeMeters>
            <DistanceMeters>NAN</DistanceMeters>
          </Trackpoint>
          <Trackpoint>
            <Time>2022-07-05T15:02:34.000Z</Time>
            <Position>
              <LatitudeDegrees>44.3415510468184947967529296875</LatitudeDegrees>
              <LongitudeDegrees>-1.07537127099931240081787109375</LongitudeDegrees>
            </Position>
            <AltitudeMeters>45.59999847412109375</AltitudeMeters>
            <DistanceMeters>NAN</DistanceMeters>
          </Trackpoint>
          <Trackpoint>
            <Time>2022-07-05T15:02:35.000Z</Time>
            <Position>
              <LatitudeDegrees>44.3415148369967937469482421875</LatitudeDegrees>
              <LongitudeDegrees>-1.0754265077412128448486328125</LongitudeDegrees>
            </Position>
            <AltitudeMeters>45.40000152587890625</AltitudeMeters>
            <DistanceMeters>NAN</DistanceMeters>
          </Trackpoint>
          <Trackpoint>
            <Time>2022-07-05T15:02:37.000Z</Time>
            <Position>
              <LatitudeDegrees>44.34144535101950168609619140625</LatitudeDegrees>
              <LongitudeDegrees>-1.07553354464471340179443359375</LongitudeDegrees>
            </Position>
            <AltitudeMeters>45</AltitudeMeters>
            <DistanceMeters>NAN</DistanceMeters>
          </Trackpoint>
          <Trackpoint>
            <Time>2022-07-05T15:02:40.000Z</Time>
            <Position>
              <LatitudeDegrees>44.34133085422217845916748046875</LatitudeDegrees>
              <LongitudeDegrees>-1.07572247274219989776611328125</LongitudeDegrees>
            </Position>
            <AltitudeMeters>44.200000762939453125</AltitudeMeters>
            <DistanceMeters>NAN</DistanceMeters>
          </Trackpoint>
          <Trackpoint>
            <Time>2022-07-05T15:02:41.000Z</Time>
            <Position>
              <LatitudeDegrees>44.34130235575139522552490234375</LatitudeDegrees>
              <LongitudeDegrees>-1.0757805593311786651611328125</LongitudeDegrees>
            </Position>
            <AltitudeMeters>43.799999237060546875</AltitudeMeters>
            <DistanceMeters>NAN</DistanceMeters>
          </Trackpoint>
          <Trackpoint>
            <Time>2022-07-05T15:02:43.000Z</Time>
            <Position>
              <LatitudeDegrees>44.34124385006725788116455078125</LatitudeDegrees>
              <LongitudeDegrees>-1.07589798979461193084716796875</LongitudeDegrees>
            </Position>
            <AltitudeMeters>43.59999847412109375</AltitudeMeters>
            <DistanceMeters>NAN</DistanceMeters>
          </Trackpoint>
          <Trackpoint>
            <Time>2022-07-05T15:02:45.000Z</Time>
            <Position>
              <LatitudeDegrees>44.34118484146893024444580078125</LatitudeDegrees>
              <LongitudeDegrees>-1.076014749705791473388671875</LongitudeDegrees>
            </Position>
            <AltitudeMeters>43.59999847412109375</AltitudeMeters>
            <DistanceMeters>NAN</DistanceMeters>
          </Trackpoint>
          <Trackpoint>
            <Time>2022-07-05T15:02:47.000Z</Time>
            <Position>
              <LatitudeDegrees>44.34112130664288997650146484375</LatitudeDegrees>
              <LongitudeDegrees>-1.07614994980394840240478515625</LongitudeDegrees>
            </Position>
            <AltitudeMeters>43.59999847412109375</AltitudeMeters>
            <DistanceMeters>NAN</DistanceMeters>
          </Trackpoint>
          <Trackpoint>
            <Time>2022-07-05T15:02:51.000Z</Time>
            <Position>
              <LatitudeDegrees>44.34096657671034336090087890625</LatitudeDegrees>
              <LongitudeDegrees>-1.07642102055251598358154296875</LongitudeDegrees>
            </Position>
            <AltitudeMeters>43.200000762939453125</AltitudeMeters>
            <DistanceMeters>NAN</DistanceMeters>
          </Trackpoint>
          <Trackpoint>
            <Time>2022-07-05T15:02:52.000Z</Time>
            <Position>
              <LatitudeDegrees>44.3409237451851367950439453125</LatitudeDegrees>
              <LongitudeDegrees>-1.07649385929107666015625</LongitudeDegrees>
            </Position>
            <AltitudeMeters>43</AltitudeMeters>
            <DistanceMeters>NAN</DistanceMeters>
          </Trackpoint>
          <Trackpoint>
            <Time>2022-07-05T15:02:56.000Z</Time>
            <Position>
              <LatitudeDegrees>44.34083632193505764007568359375</LatitudeDegrees>
              <LongitudeDegrees>-1.07669812627136707305908203125</LongitudeDegrees>
            </Position>
            <AltitudeMeters>43</AltitudeMeters>
            <DistanceMeters>NAN</DistanceMeters>
          </Trackpoint>
          <Trackpoint>
            <Time>2022-07-05T15:02:59.000Z</Time>
            <Position>
              <LatitudeDegrees>44.3407852761447429656982421875</LatitudeDegrees>
              <LongitudeDegrees>-1.0768122039735317230224609375</LongitudeDegrees>
            </Position>
            <AltitudeMeters>43.59999847412109375</AltitudeMeters>
            <DistanceMeters>NAN</DistanceMeters>
          </Trackpoint>
          <Trackpoint>
            <Time>2022-07-05T15:03:05.000Z</Time>
            <Position>
              <LatitudeDegrees>44.34059659950435161590576171875</LatitudeDegrees>
              <LongitudeDegrees>-1.07701462693512439727783203125</LongitudeDegrees>
            </Position>
            <AltitudeMeters>43.40000152587890625</AltitudeMeters>
            <DistanceMeters>NAN</DistanceMeters>
          </Trackpoint>
          <Trackpoint>
            <Time>2022-07-05T15:03:10.000Z</Time>
            <Position>
              <LatitudeDegrees>44.3404634110629558563232421875</LatitudeDegrees>
              <LongitudeDegrees>-1.0771964304149150848388671875</LongitudeDegrees>
            </Position>
            <AltitudeMeters>43.59999847412109375</AltitudeMeters>
            <DistanceMeters>NAN</DistanceMeters>
          </Trackpoint>
          <Trackpoint>
            <Time>2022-07-05T15:03:17.000Z</Time>
            <Position>
              <LatitudeDegrees>44.34025377966463565826416015625</LatitudeDegrees>
              <LongitudeDegrees>-1.07746607623994350433349609375</LongitudeDegrees>
            </Position>
            <AltitudeMeters>43.59999847412109375</AltitudeMeters>
            <DistanceMeters>NAN</DistanceMeters>
          </Trackpoint>
          <Trackpoint>
            <Time>2022-07-05T15:03:23.000Z</Time>
            <Position>
              <LatitudeDegrees>44.340077340602874755859375</LatitudeDegrees>
              <LongitudeDegrees>-1.07770361937582492828369140625</LongitudeDegrees>
            </Position>
            <AltitudeMeters>43.799999237060546875</AltitudeMeters>
            <DistanceMeters>NAN</DistanceMeters>
          </Trackpoint>
          <Trackpoint>
            <Time>2022-07-05T15:03:29.000Z</Time>
            <Position>
              <LatitudeDegrees>44.33992671780288219451904296875</LatitudeDegrees>
              <LongitudeDegrees>-1.0779114067554473876953125</LongitudeDegrees>
            </Position>
            <AltitudeMeters>44.200000762939453125</AltitudeMeters>
            <DistanceMeters>NAN</DistanceMeters>
          </Trackpoint>
          <Trackpoint>
            <Time>2022-07-05T15:03:33.000Z</Time>
            <Position>
              <LatitudeDegrees>44.33985178358852863311767578125</LatitudeDegrees>
              <LongitudeDegrees>-1.07804861851036548614501953125</LongitudeDegrees>
            </Position>
            <AltitudeMeters>44.200000762939453125</AltitudeMeters>
            <DistanceMeters>NAN</DistanceMeters>
          </Trackpoint>
          <Trackpoint>
            <Time>2022-07-05T15:03:41.000Z</Time>
            <Position>
              <LatitudeDegrees>44.33969034813344478607177734375</LatitudeDegrees>
              <LongitudeDegrees>-1.0782949626445770263671875</LongitudeDegrees>
            </Position>
            <AltitudeMeters>45.40000152587890625</AltitudeMeters>
            <DistanceMeters>NAN</DistanceMeters>
          </Trackpoint>
          <Trackpoint>
            <Time>2022-07-05T15:03:44.000Z</Time>
            <Position>
              <LatitudeDegrees>44.3396463431417942047119140625</LatitudeDegrees>
              <LongitudeDegrees>-1.0783611796796321868896484375</LongitudeDegrees>
            </Position>
            <AltitudeMeters>45.799999237060546875</AltitudeMeters>
            <DistanceMeters>NAN</DistanceMeters>
          </Trackpoint>
          <Trackpoint>
            <Time>2022-07-05T15:03:45.000Z</Time>
            <Position>
              <LatitudeDegrees>44.339633099734783172607421875</LatitudeDegrees>
              <LongitudeDegrees>-1.0783799551427364349365234375</LongitudeDegrees>
            </Position>
            <AltitudeMeters>46</AltitudeMeters>
            <DistanceMeters>NAN</DistanceMeters>
          </Trackpoint>
          <Trackpoint>
            <Time>2022-07-05T15:03:46.000Z</Time>
            <Position>
              <LatitudeDegrees>44.339612312614917755126953125</LatitudeDegrees>
              <LongitudeDegrees>-1.07841088436543941497802734375</LongitudeDegrees>
            </Position>
            <AltitudeMeters>46</AltitudeMeters>
            <DistanceMeters>NAN</DistanceMeters>
          </Trackpoint>
          <Trackpoint>
            <Time>2022-07-05T15:03:49.000Z</Time>
            <Position>
              <LatitudeDegrees>44.33956436812877655029296875</LatitudeDegrees>
              <LongitudeDegrees>-1.07848732732236385345458984375</LongitudeDegrees>
            </Position>
            <AltitudeMeters>46.40000152587890625</AltitudeMeters>
            <DistanceMeters>NAN</DistanceMeters>
          </Trackpoint>
          <Trackpoint>
            <Time>2022-07-05T15:03:50.000Z</Time>
            <Position>
              <LatitudeDegrees>44.3395435810089111328125</LatitudeDegrees>
              <LongitudeDegrees>-1.07851398177444934844970703125</LongitudeDegrees>
            </Position>
            <AltitudeMeters>46.59999847412109375</AltitudeMeters>
            <DistanceMeters>NAN</DistanceMeters>
          </Trackpoint>
          <Trackpoint>
            <Time>2022-07-05T15:03:57.000Z</Time>
            <Position>
              <LatitudeDegrees>44.3394233845174312591552734375</LatitudeDegrees>
              <LongitudeDegrees>-1.0787205956876277923583984375</LongitudeDegrees>
            </Position>
            <AltitudeMeters>47.200000762939453125</AltitudeMeters>
            <DistanceMeters>NAN</DistanceMeters>
          </Trackpoint>
          <Trackpoint>
            <Time>2022-07-05T15:04:03.000Z</Time>
            <Position>
              <LatitudeDegrees>44.33928139507770538330078125</LatitudeDegrees>
              <LongitudeDegrees>-1.078974567353725433349609375</LongitudeDegrees>
            </Position>
            <AltitudeMeters>47.40000152587890625</AltitudeMeters>
            <DistanceMeters>NAN</DistanceMeters>
          </Trackpoint>
          <Trackpoint>
            <Time>2022-07-05T15:04:10.000Z</Time>
            <Position>
              <LatitudeDegrees>44.33907763101160526275634765625</LatitudeDegrees>
              <LongitudeDegrees>-1.07934161089360713958740234375</LongitudeDegrees>
            </Position>
            <AltitudeMeters>46.59999847412109375</AltitudeMeters>
            <DistanceMeters>NAN</DistanceMeters>
          </Trackpoint>
          <Trackpoint>
            <Time>2022-07-05T15:04:12.000Z</Time>
            <Position>
              <LatitudeDegrees>44.339018873870372772216796875</LatitudeDegrees>
              <LongitudeDegrees>-1.07945124618709087371826171875</LongitudeDegrees>
            </Position>
            <AltitudeMeters>46.40000152587890625</AltitudeMeters>
            <DistanceMeters>NAN</DistanceMeters>
          </Trackpoint>
          <Trackpoint>
            <Time>2022-07-05T15:04:16.000Z</Time>
            <Position>
              <LatitudeDegrees>44.33888283558189868927001953125</LatitudeDegrees>
              <LongitudeDegrees>-1.07969666831195354461669921875</LongitudeDegrees>
            </Position>
            <AltitudeMeters>45.59999847412109375</AltitudeMeters>
            <DistanceMeters>NAN</DistanceMeters>
          </Trackpoint>
          <Trackpoint>
            <Time>2022-07-05T15:04:17.000Z</Time>
            <Position>
              <LatitudeDegrees>44.33885131962597370147705078125</LatitudeDegrees>
              <LongitudeDegrees>-1.07974997721612453460693359375</LongitudeDegrees>
            </Position>
            <AltitudeMeters>45.40000152587890625</AltitudeMeters>
            <DistanceMeters>NAN</DistanceMeters>
          </Trackpoint>
          <Trackpoint>
            <Time>2022-07-05T15:04:19.000Z</Time>
            <Position>
              <LatitudeDegrees>44.338805973529815673828125</LatitudeDegrees>
              <LongitudeDegrees>-1.07983781956136226654052734375</LongitudeDegrees>
            </Position>
            <AltitudeMeters>45.200000762939453125</AltitudeMeters>
            <DistanceMeters>NAN</DistanceMeters>
          </Trackpoint>
          <Trackpoint>
            <Time>2022-07-05T15:04:21.000Z</Time>
            <Position>
              <LatitudeDegrees>44.33878786861896514892578125</LatitudeDegrees>
              <LongitudeDegrees>-1.079907976090908050537109375</LongitudeDegrees>
            </Position>
            <AltitudeMeters>45.200000762939453125</AltitudeMeters>
            <DistanceMeters>NAN</DistanceMeters>
          </Trackpoint>
          <Trackpoint>
            <Time>2022-07-05T15:04:27.000Z</Time>
            <Position>
              <LatitudeDegrees>44.338708408176898956298828125</LatitudeDegrees>
              <LongitudeDegrees>-1.08002993278205394744873046875</LongitudeDegrees>
            </Position>
            <AltitudeMeters>45</AltitudeMeters>
            <DistanceMeters>NAN</DistanceMeters>
          </Trackpoint>
          <Trackpoint>
            <Time>2022-07-05T15:04:30.000Z</Time>
            <Position>
              <LatitudeDegrees>44.33870547451078891754150390625</LatitudeDegrees>
              <LongitudeDegrees>-1.08003395609557628631591796875</LongitudeDegrees>
            </Position>
            <AltitudeMeters>45</AltitudeMeters>
            <DistanceMeters>NAN</DistanceMeters>
          </Trackpoint>
          <Trackpoint>
            <Time>2022-07-05T15:06:05.000Z</Time>
            <Position>
              <LatitudeDegrees>44.33865417726337909698486328125</LatitudeDegrees>
              <LongitudeDegrees>-1.0801029391586780548095703125</LongitudeDegrees>
            </Position>
            <AltitudeMeters>44.200000762939453125</AltitudeMeters>
            <DistanceMeters>NAN</DistanceMeters>
          </Trackpoint>
          <Trackpoint>
            <Time>2022-07-05T15:06:06.000Z</Time>
            <Position>
              <LatitudeDegrees>44.33863322250545024871826171875</LatitudeDegrees>
              <LongitudeDegrees>-1.08013018034398555755615234375</LongitudeDegrees>
            </Position>
            <AltitudeMeters>44.200000762939453125</AltitudeMeters>
            <DistanceMeters>NAN</DistanceMeters>
          </Trackpoint>
          <Trackpoint>
            <Time>2022-07-05T15:06:12.000Z</Time>
            <Position>
              <LatitudeDegrees>44.33851755224168300628662109375</LatitudeDegrees>
              <LongitudeDegrees>-1.08035615645349025726318359375</LongitudeDegrees>
            </Position>
            <AltitudeMeters>44</AltitudeMeters>
            <DistanceMeters>NAN</DistanceMeters>
          </Trackpoint>
          <Trackpoint>
            <Time>2022-07-05T15:06:19.000Z</Time>
            <Position>
              <LatitudeDegrees>44.3383478187024593353271484375</LatitudeDegrees>
              <LongitudeDegrees>-1.08066276647150516510009765625</LongitudeDegrees>
            </Position>
            <AltitudeMeters>43.59999847412109375</AltitudeMeters>
            <DistanceMeters>NAN</DistanceMeters>
          </Trackpoint>
          <Trackpoint>
            <Time>2022-07-05T15:06:27.000Z</Time>
            <Position>
              <LatitudeDegrees>44.3381394445896148681640625</LatitudeDegrees>
              <LongitudeDegrees>-1.08103157021105289459228515625</LongitudeDegrees>
            </Position>
            <AltitudeMeters>43.40000152587890625</AltitudeMeters>
            <DistanceMeters>NAN</DistanceMeters>
          </Trackpoint>
          <Trackpoint>
            <Time>2022-07-05T15:06:32.000Z</Time>
            <Position>
              <LatitudeDegrees>44.3380179069936275482177734375</LatitudeDegrees>
              <LongitudeDegrees>-1.0812586359679698944091796875</LongitudeDegrees>
            </Position>
            <AltitudeMeters>43.40000152587890625</AltitudeMeters>
            <DistanceMeters>NAN</DistanceMeters>
          </Trackpoint>
          <Trackpoint>
            <Time>2022-07-05T15:06:34.000Z</Time>
            <Position>
              <LatitudeDegrees>44.3379716388881206512451171875</LatitudeDegrees>
              <LongitudeDegrees>-1.08134807087481021881103515625</LongitudeDegrees>
            </Position>
            <AltitudeMeters>43.40000152587890625</AltitudeMeters>
            <DistanceMeters>NAN</DistanceMeters>
          </Trackpoint>
          <Trackpoint>
            <Time>2022-07-05T15:06:40.000Z</Time>
            <Position>
              <LatitudeDegrees>44.3378217704594135284423828125</LatitudeDegrees>
              <LongitudeDegrees>-1.08161796815693378448486328125</LongitudeDegrees>
            </Position>
            <AltitudeMeters>43.59999847412109375</AltitudeMeters>
            <DistanceMeters>NAN</DistanceMeters>
          </Trackpoint>
          <Trackpoint>
            <Time>2022-07-05T15:06:44.000Z</Time>
            <Position>
              <LatitudeDegrees>44.3378130532801151275634765625</LatitudeDegrees>
              <LongitudeDegrees>-1.08187638223171234130859375</LongitudeDegrees>
            </Position>
            <AltitudeMeters>43</AltitudeMeters>
            <DistanceMeters>NAN</DistanceMeters>
          </Trackpoint>
          <Trackpoint>
            <Time>2022-07-05T15:06:47.000Z</Time>
            <Position>
              <LatitudeDegrees>44.337787739932537078857421875</LatitudeDegrees>
              <LongitudeDegrees>-1.08206304721534252166748046875</LongitudeDegrees>
            </Position>
            <AltitudeMeters>42.799999237060546875</AltitudeMeters>
            <DistanceMeters>NAN</DistanceMeters>
          </Trackpoint>
          <Trackpoint>
            <Time>2022-07-05T15:06:49.000Z</Time>
            <Position>
              <LatitudeDegrees>44.3377855606377124786376953125</LatitudeDegrees>
              <LongitudeDegrees>-1.08218240551650524139404296875</LongitudeDegrees>
            </Position>
            <AltitudeMeters>42.59999847412109375</AltitudeMeters>
            <DistanceMeters>NAN</DistanceMeters>
          </Trackpoint>
          <Trackpoint>
            <Time>2022-07-05T15:06:50.000Z</Time>
            <Position>
              <LatitudeDegrees>44.337770305573940277099609375</LatitudeDegrees>
              <LongitudeDegrees>-1.0822238959372043609619140625</LongitudeDegrees>
            </Position>
            <AltitudeMeters>42.59999847412109375</AltitudeMeters>
            <DistanceMeters>NAN</DistanceMeters>
          </Trackpoint>
          <Trackpoint>
            <Time>2022-07-05T15:06:51.000Z</Time>
            <Position>
              <LatitudeDegrees>44.337743818759918212890625</LatitudeDegrees>
              <LongitudeDegrees>-1.08225180767476558685302734375</LongitudeDegrees>
            </Position>
            <AltitudeMeters>42.40000152587890625</AltitudeMeters>
            <DistanceMeters>NAN</DistanceMeters>
          </Trackpoint>
          <Trackpoint>
            <Time>2022-07-05T15:06:56.000Z</Time>
            <Position>
              <LatitudeDegrees>44.337517507374286651611328125</LatitudeDegrees>
              <LongitudeDegrees>-1.0823395662009716033935546875</LongitudeDegrees>
            </Position>
            <AltitudeMeters>42.40000152587890625</AltitudeMeters>
            <DistanceMeters>NAN</DistanceMeters>
          </Trackpoint>
          <Trackpoint>
            <Time>2022-07-05T15:07:02.000Z</Time>
            <Position>
              <LatitudeDegrees>44.33732472360134124755859375</LatitudeDegrees>
              <LongitudeDegrees>-1.08249002136290073394775390625</LongitudeDegrees>
            </Position>
            <AltitudeMeters>43</AltitudeMeters>
            <DistanceMeters>NAN</DistanceMeters>
          </Trackpoint>
          <Trackpoint>
            <Time>2022-07-05T15:07:08.000Z</Time>
            <Position>
              <LatitudeDegrees>44.3371720053255558013916015625</LatitudeDegrees>
              <LongitudeDegrees>-1.08266838826239109039306640625</LongitudeDegrees>
            </Position>
            <AltitudeMeters>43.200000762939453125</AltitudeMeters>
            <DistanceMeters>NAN</DistanceMeters>
          </Trackpoint>
          <Trackpoint>
            <Time>2022-07-05T15:07:12.000Z</Time>
            <Position>
              <LatitudeDegrees>44.3371180258691310882568359375</LatitudeDegrees>
              <LongitudeDegrees>-1.08280484564602375030517578125</LongitudeDegrees>
            </Position>
            <AltitudeMeters>43.200000762939453125</AltitudeMeters>
            <DistanceMeters>NAN</DistanceMeters>
          </Trackpoint>
          <Trackpoint>
            <Time>2022-07-05T15:07:13.000Z</Time>
            <Position>
              <LatitudeDegrees>44.33711425401270389556884765625</LatitudeDegrees>
              <LongitudeDegrees>-1.08280803076922893524169921875</LongitudeDegrees>
            </Position>
            <AltitudeMeters>43</AltitudeMeters>
            <DistanceMeters>NAN</DistanceMeters>
          </Trackpoint>
          <Trackpoint>
            <Time>2022-07-05T15:07:15.000Z</Time>
            <Position>
              <LatitudeDegrees>44.33711425401270389556884765625</LatitudeDegrees>
              <LongitudeDegrees>-1.08280803076922893524169921875</LongitudeDegrees>
            </Position>
            <AltitudeMeters>42.799999237060546875</AltitudeMeters>
            <DistanceMeters>NAN</DistanceMeters>
          </Trackpoint>
          <Trackpoint>
            <Time>2022-07-05T15:12:12.000Z</Time>
            <Position>
              <LatitudeDegrees>44.33708868920803070068359375</LatitudeDegrees>
              <LongitudeDegrees>-1.08284407295286655426025390625</LongitudeDegrees>
            </Position>
            <AltitudeMeters>40.59999847412109375</AltitudeMeters>
            <DistanceMeters>NAN</DistanceMeters>
          </Trackpoint>
          <Trackpoint>
            <Time>2022-07-05T15:12:14.000Z</Time>
            <Position>
              <LatitudeDegrees>44.33705918490886688232421875</LatitudeDegrees>
              <LongitudeDegrees>-1.08287944458425045013427734375</LongitudeDegrees>
            </Position>
            <AltitudeMeters>40.799999237060546875</AltitudeMeters>
            <DistanceMeters>NAN</DistanceMeters>
          </Trackpoint>
          <Trackpoint>
            <Time>2022-07-05T15:12:20.000Z</Time>
            <Position>
              <LatitudeDegrees>44.33695902116596698760986328125</LatitudeDegrees>
              <LongitudeDegrees>-1.0830416344106197357177734375</LongitudeDegrees>
            </Position>
            <AltitudeMeters>41</AltitudeMeters>
            <DistanceMeters>NAN</DistanceMeters>
          </Trackpoint>
          <Trackpoint>
            <Time>2022-07-05T15:12:26.000Z</Time>
            <Position>
              <LatitudeDegrees>44.336814768612384796142578125</LatitudeDegrees>
              <LongitudeDegrees>-1.083235256373882293701171875</LongitudeDegrees>
            </Position>
            <AltitudeMeters>41.40000152587890625</AltitudeMeters>
            <DistanceMeters>NAN</DistanceMeters>
          </Trackpoint>
          <Trackpoint>
            <Time>2022-07-05T15:12:35.000Z</Time>
            <Position>
              <LatitudeDegrees>44.3366079032421112060546875</LatitudeDegrees>
              <LongitudeDegrees>-1.083526946604251861572265625</LongitudeDegrees>
            </Position>
            <AltitudeMeters>41.59999847412109375</AltitudeMeters>
            <DistanceMeters>NAN</DistanceMeters>
          </Trackpoint>
          <Trackpoint>
            <Time>2022-07-05T15:12:43.000Z</Time>
            <Position>
              <LatitudeDegrees>44.33640380389988422393798828125</LatitudeDegrees>
              <LongitudeDegrees>-1.08382274396717548370361328125</LongitudeDegrees>
            </Position>
            <AltitudeMeters>42</AltitudeMeters>
            <DistanceMeters>NAN</DistanceMeters>
          </Trackpoint>
          <Trackpoint>
            <Time>2022-07-05T15:12:49.000Z</Time>
            <Position>
              <LatitudeDegrees>44.336261563003063201904296875</LatitudeDegrees>
              <LongitudeDegrees>-1.084006391465663909912109375</LongitudeDegrees>
            </Position>
            <AltitudeMeters>42.40000152587890625</AltitudeMeters>
            <DistanceMeters>NAN</DistanceMeters>
          </Trackpoint>
          <Trackpoint>
            <Time>2022-07-05T15:12:50.000Z</Time>
            <Position>
              <LatitudeDegrees>44.3362292088568210601806640625</LatitudeDegrees>
              <LongitudeDegrees>-1.08404419384896755218505859375</LongitudeDegrees>
            </Position>
            <AltitudeMeters>42.40000152587890625</AltitudeMeters>
            <DistanceMeters>NAN</DistanceMeters>
          </Trackpoint>
          <Trackpoint>
            <Time>2022-07-05T15:12:57.000Z</Time>
            <Position>
              <LatitudeDegrees>44.33604841120541095733642578125</LatitudeDegrees>
              <LongitudeDegrees>-1.0842771269381046295166015625</LongitudeDegrees>
            </Position>
            <AltitudeMeters>42.799999237060546875</AltitudeMeters>
            <DistanceMeters>NAN</DistanceMeters>
          </Trackpoint>
          <Trackpoint>
            <Time>2022-07-05T15:12:58.000Z</Time>
            <Position>
              <LatitudeDegrees>44.3360246904194355010986328125</LatitudeDegrees>
              <LongitudeDegrees>-1.0843098163604736328125</LongitudeDegrees>
            </Position>
            <AltitudeMeters>42.799999237060546875</AltitudeMeters>
            <DistanceMeters>NAN</DistanceMeters>
          </Trackpoint>
          <Trackpoint>
            <Time>2022-07-05T15:13:05.000Z</Time>
            <Position>
              <LatitudeDegrees>44.33584322221577167510986328125</LatitudeDegrees>
              <LongitudeDegrees>-1.0845564119517803192138671875</LongitudeDegrees>
            </Position>
            <AltitudeMeters>42.799999237060546875</AltitudeMeters>
            <DistanceMeters>NAN</DistanceMeters>
          </Trackpoint>
          <Trackpoint>
            <Time>2022-07-05T15:13:11.000Z</Time>
            <Position>
              <LatitudeDegrees>44.33564926497638225555419921875</LatitudeDegrees>
              <LongitudeDegrees>-1.0847268998622894287109375</LongitudeDegrees>
            </Position>
            <AltitudeMeters>42.799999237060546875</AltitudeMeters>
            <DistanceMeters>NAN</DistanceMeters>
          </Trackpoint>
          <Trackpoint>
            <Time>2022-07-05T15:13:16.000Z</Time>
            <Position>
              <LatitudeDegrees>44.335479699075222015380859375</LatitudeDegrees>
              <LongitudeDegrees>-1.08482287265360355377197265625</LongitudeDegrees>
            </Position>
            <AltitudeMeters>42.799999237060546875</AltitudeMeters>
            <DistanceMeters>NAN</DistanceMeters>
          </Trackpoint>
          <Trackpoint>
            <Time>2022-07-05T15:13:24.000Z</Time>
            <Position>
              <LatitudeDegrees>44.33520443737506866455078125</LatitudeDegrees>
              <LongitudeDegrees>-1.0849731601774692535400390625</LongitudeDegrees>
            </Position>
            <AltitudeMeters>43.200000762939453125</AltitudeMeters>
            <DistanceMeters>NAN</DistanceMeters>
          </Trackpoint>
          <Trackpoint>
            <Time>2022-07-05T15:13:25.000Z</Time>
            <Position>
              <LatitudeDegrees>44.3351697362959384918212890625</LatitudeDegrees>
              <LongitudeDegrees>-1.084988415241241455078125</LongitudeDegrees>
            </Position>
            <AltitudeMeters>43.200000762939453125</AltitudeMeters>
            <DistanceMeters>NAN</DistanceMeters>
          </Trackpoint>
          <Trackpoint>
            <Time>2022-07-05T15:13:29.000Z</Time>
            <Position>
              <LatitudeDegrees>44.3350295908749103546142578125</LatitudeDegrees>
              <LongitudeDegrees>-1.08506192453205585479736328125</LongitudeDegrees>
            </Position>
            <AltitudeMeters>43.200000762939453125</AltitudeMeters>
            <DistanceMeters>NAN</DistanceMeters>
          </Trackpoint>
          <Trackpoint>
            <Time>2022-07-05T15:13:34.000Z</Time>
            <Position>
              <LatitudeDegrees>44.3348579294979572296142578125</LatitudeDegrees>
              <LongitudeDegrees>-1.0851485095918178558349609375</LongitudeDegrees>
            </Position>
            <AltitudeMeters>43.40000152587890625</AltitudeMeters>
            <DistanceMeters>NAN</DistanceMeters>
          </Trackpoint>
          <Trackpoint>
            <Time>2022-07-05T15:13:38.000Z</Time>
            <Position>
              <LatitudeDegrees>44.3346876092255115509033203125</LatitudeDegrees>
              <LongitudeDegrees>-1.08523978851735591888427734375</LongitudeDegrees>
            </Position>
            <AltitudeMeters>43.59999847412109375</AltitudeMeters>
            <DistanceMeters>NAN</DistanceMeters>
          </Trackpoint>
          <Trackpoint>
            <Time>2022-07-05T15:13:41.000Z</Time>
            <Position>
              <LatitudeDegrees>44.33455576188862323760986328125</LatitudeDegrees>
              <LongitudeDegrees>-1.0852819494903087615966796875</LongitudeDegrees>
            </Position>
            <AltitudeMeters>43.59999847412109375</AltitudeMeters>
            <DistanceMeters>NAN</DistanceMeters>
          </Trackpoint>
          <Trackpoint>
            <Time>2022-07-05T15:13:43.000Z</Time>
            <Position>
              <LatitudeDegrees>44.33447311632335186004638671875</LatitudeDegrees>
              <LongitudeDegrees>-1.08532142825424671173095703125</LongitudeDegrees>
            </Position>
            <AltitudeMeters>43.40000152587890625</AltitudeMeters>
            <DistanceMeters>NAN</DistanceMeters>
          </Trackpoint>
          <Trackpoint>
            <Time>2022-07-05T15:13:48.000Z</Time>
            <Position>
              <LatitudeDegrees>44.3342768959701061248779296875</LatitudeDegrees>
              <LongitudeDegrees>-1.08542905189096927642822265625</LongitudeDegrees>
            </Position>
            <AltitudeMeters>43.40000152587890625</AltitudeMeters>
            <DistanceMeters>NAN</DistanceMeters>
          </Trackpoint>
          <Trackpoint>
            <Time>2022-07-05T15:13:49.000Z</Time>
            <Position>
              <LatitudeDegrees>44.33424420654773712158203125</LatitudeDegrees>
              <LongitudeDegrees>-1.08544330112636089324951171875</LongitudeDegrees>
            </Position>
            <AltitudeMeters>43.40000152587890625</AltitudeMeters>
            <DistanceMeters>NAN</DistanceMeters>
          </Trackpoint>
          <Trackpoint>
            <Time>2022-07-05T15:13:52.000Z</Time>
            <Position>
              <LatitudeDegrees>44.3341330625116825103759765625</LatitudeDegrees>
              <LongitudeDegrees>-1.08550918288528919219970703125</LongitudeDegrees>
            </Position>
            <AltitudeMeters>43.200000762939453125</AltitudeMeters>
            <DistanceMeters>NAN</DistanceMeters>
          </Trackpoint>
          <Trackpoint>
            <Time>2022-07-05T15:13:53.000Z</Time>
            <Position>
              <LatitudeDegrees>44.33409358374774456024169921875</LatitudeDegrees>
              <LongitudeDegrees>-1.08552779071033000946044921875</LongitudeDegrees>
            </Position>
            <AltitudeMeters>43.200000762939453125</AltitudeMeters>
            <DistanceMeters>NAN</DistanceMeters>
          </Trackpoint>
          <Trackpoint>
            <Time>2022-07-05T15:13:55.000Z</Time>
            <Position>
              <LatitudeDegrees>44.33401680551469326019287109375</LatitudeDegrees>
              <LongitudeDegrees>-1.0855598933994770050048828125</LongitudeDegrees>
            </Position>
            <AltitudeMeters>43.200000762939453125</AltitudeMeters>
            <DistanceMeters>NAN</DistanceMeters>
          </Trackpoint>
          <Trackpoint>
            <Time>2022-07-05T15:13:57.000Z</Time>
            <Position>
              <LatitudeDegrees>44.333948157727718353271484375</LatitudeDegrees>
              <LongitudeDegrees>-1.08559501357376575469970703125</LongitudeDegrees>
            </Position>
            <AltitudeMeters>43.40000152587890625</AltitudeMeters>
            <DistanceMeters>NAN</DistanceMeters>
          </Trackpoint>
          <Trackpoint>
            <Time>2022-07-05T15:14:01.000Z</Time>
            <Position>
              <LatitudeDegrees>44.33380876667797565460205078125</LatitudeDegrees>
              <LongitudeDegrees>-1.08567330054938793182373046875</LongitudeDegrees>
            </Position>
            <AltitudeMeters>43.59999847412109375</AltitudeMeters>
            <DistanceMeters>NAN</DistanceMeters>
          </Trackpoint>
          <Trackpoint>
            <Time>2022-07-05T15:14:03.000Z</Time>
            <Position>
              <LatitudeDegrees>44.33373332954943180084228515625</LatitudeDegrees>
              <LongitudeDegrees>-1.085707582533359527587890625</LongitudeDegrees>
            </Position>
            <AltitudeMeters>43.799999237060546875</AltitudeMeters>
            <DistanceMeters>NAN</DistanceMeters>
          </Trackpoint>
          <Trackpoint>
            <Time>2022-07-05T15:14:12.000Z</Time>
            <Position>
              <LatitudeDegrees>44.33341431431472301483154296875</LatitudeDegrees>
              <LongitudeDegrees>-1.08587429858744144439697265625</LongitudeDegrees>
            </Position>
            <AltitudeMeters>44</AltitudeMeters>
            <DistanceMeters>NAN</DistanceMeters>
          </Trackpoint>
          <Trackpoint>
            <Time>2022-07-05T15:14:21.000Z</Time>
            <Position>
              <LatitudeDegrees>44.333125054836273193359375</LatitudeDegrees>
              <LongitudeDegrees>-1.0860208980739116668701171875</LongitudeDegrees>
            </Position>
            <AltitudeMeters>44.59999847412109375</AltitudeMeters>
            <DistanceMeters>NAN</DistanceMeters>
          </Trackpoint>
          <Trackpoint>
            <Time>2022-07-05T15:14:30.000Z</Time>
            <Position>
              <LatitudeDegrees>44.3328399024903774261474609375</LatitudeDegrees>
              <LongitudeDegrees>-1.0861711017787456512451171875</LongitudeDegrees>
            </Position>
            <AltitudeMeters>44.40000152587890625</AltitudeMeters>
            <DistanceMeters>NAN</DistanceMeters>
          </Trackpoint>
          <Trackpoint>
            <Time>2022-07-05T15:14:44.000Z</Time>
            <Position>
              <LatitudeDegrees>44.332391135394573211669921875</LatitudeDegrees>
              <LongitudeDegrees>-1.0864141769707202911376953125</LongitudeDegrees>
            </Position>
            <AltitudeMeters>44.59999847412109375</AltitudeMeters>
            <DistanceMeters>NAN</DistanceMeters>
          </Trackpoint>
          <Trackpoint>
            <Time>2022-07-05T15:14:53.000Z</Time>
            <Position>
              <LatitudeDegrees>44.3320845253765583038330078125</LatitudeDegrees>
              <LongitudeDegrees>-1.0865570046007633209228515625</LongitudeDegrees>
            </Position>
            <AltitudeMeters>44.799999237060546875</AltitudeMeters>
            <DistanceMeters>NAN</DistanceMeters>
          </Trackpoint>
          <Trackpoint>
            <Time>2022-07-05T15:14:55.000Z</Time>
            <Position>
              <LatitudeDegrees>44.33201755397021770477294921875</LatitudeDegrees>
              <LongitudeDegrees>-1.0865868441760540008544921875</LongitudeDegrees>
            </Position>
            <AltitudeMeters>44.799999237060546875</AltitudeMeters>
            <DistanceMeters>NAN</DistanceMeters>
          </Trackpoint>
          <Trackpoint>
            <Time>2022-07-05T15:15:01.000Z</Time>
            <Position>
              <LatitudeDegrees>44.3318300507962703704833984375</LatitudeDegrees>
              <LongitudeDegrees>-1.08670108951628208160400390625</LongitudeDegrees>
            </Position>
            <AltitudeMeters>45</AltitudeMeters>
            <DistanceMeters>NAN</DistanceMeters>
          </Trackpoint>
          <Trackpoint>
            <Time>2022-07-05T15:15:09.000Z</Time>
            <Position>
              <LatitudeDegrees>44.3315879814326763153076171875</LatitudeDegrees>
              <LongitudeDegrees>-1.0868815518915653228759765625</LongitudeDegrees>
            </Position>
            <AltitudeMeters>45</AltitudeMeters>
            <DistanceMeters>NAN</DistanceMeters>
          </Trackpoint>
          <Trackpoint>
            <Time>2022-07-05T15:15:12.000Z</Time>
            <Position>
              <LatitudeDegrees>44.3315004743635654449462890625</LatitudeDegrees>
              <LongitudeDegrees>-1.08696520328521728515625</LongitudeDegrees>
            </Position>
            <AltitudeMeters>45.200000762939453125</AltitudeMeters>
            <DistanceMeters>NAN</DistanceMeters>
          </Trackpoint>
          <Trackpoint>
            <Time>2022-07-05T15:15:14.000Z</Time>
            <Position>
              <LatitudeDegrees>44.3314350955188274383544921875</LatitudeDegrees>
              <LongitudeDegrees>-1.087031923234462738037109375</LongitudeDegrees>
            </Position>
            <AltitudeMeters>45.200000762939453125</AltitudeMeters>
            <DistanceMeters>NAN</DistanceMeters>
          </Trackpoint>
          <Trackpoint>
            <Time>2022-07-05T15:15:20.000Z</Time>
            <Position>
              <LatitudeDegrees>44.33127634227275848388671875</LatitudeDegrees>
              <LongitudeDegrees>-1.0872292332351207733154296875</LongitudeDegrees>
            </Position>
            <AltitudeMeters>45.40000152587890625</AltitudeMeters>
            <DistanceMeters>NAN</DistanceMeters>
          </Trackpoint>
          <Trackpoint>
            <Time>2022-07-05T15:15:32.000Z</Time>
            <Position>
              <LatitudeDegrees>44.331001751124858856201171875</LatitudeDegrees>
              <LongitudeDegrees>-1.0876966081559658050537109375</LongitudeDegrees>
            </Position>
            <AltitudeMeters>45.40000152587890625</AltitudeMeters>
            <DistanceMeters>NAN</DistanceMeters>
          </Trackpoint>
          <Trackpoint>
            <Time>2022-07-05T15:15:36.000Z</Time>
            <Position>
              <LatitudeDegrees>44.33090527541935443878173828125</LatitudeDegrees>
              <LongitudeDegrees>-1.0878444649279117584228515625</LongitudeDegrees>
            </Position>
            <AltitudeMeters>45.40000152587890625</AltitudeMeters>
            <DistanceMeters>NAN</DistanceMeters>
          </Trackpoint>
          <Trackpoint>
            <Time>2022-07-05T15:15:41.000Z</Time>
            <Position>
              <LatitudeDegrees>44.330782480537891387939453125</LatitudeDegrees>
              <LongitudeDegrees>-1.08801721595227718353271484375</LongitudeDegrees>
            </Position>
            <AltitudeMeters>45.40000152587890625</AltitudeMeters>
            <DistanceMeters>NAN</DistanceMeters>
          </Trackpoint>
          <Trackpoint>
            <Time>2022-07-05T15:15:42.000Z</Time>
            <Position>
              <LatitudeDegrees>44.33075926266610622406005859375</LatitudeDegrees>
              <LongitudeDegrees>-1.08805208466947078704833984375</LongitudeDegrees>
            </Position>
            <AltitudeMeters>45.40000152587890625</AltitudeMeters>
            <DistanceMeters>NAN</DistanceMeters>
          </Trackpoint>
          <Trackpoint>
            <Time>2022-07-05T15:15:47.000Z</Time>
            <Position>
              <LatitudeDegrees>44.33066672645509243011474609375</LatitudeDegrees>
              <LongitudeDegrees>-1.08824268914759159088134765625</LongitudeDegrees>
            </Position>
            <AltitudeMeters>45.40000152587890625</AltitudeMeters>
            <DistanceMeters>NAN</DistanceMeters>
          </Trackpoint>
          <Trackpoint>
            <Time>2022-07-05T15:15:53.000Z</Time>
            <Position>
              <LatitudeDegrees>44.33051132597029209136962890625</LatitudeDegrees>
              <LongitudeDegrees>-1.08842725865542888641357421875</LongitudeDegrees>
            </Position>
            <AltitudeMeters>45.200000762939453125</AltitudeMeters>
            <DistanceMeters>NAN</DistanceMeters>
          </Trackpoint>
          <Trackpoint>
            <Time>2022-07-05T15:15:54.000Z</Time>
            <Position>
              <LatitudeDegrees>44.3304969929158687591552734375</LatitudeDegrees>
              <LongitudeDegrees>-1.08846464194357395172119140625</LongitudeDegrees>
            </Position>
            <AltitudeMeters>45.200000762939453125</AltitudeMeters>
            <DistanceMeters>NAN</DistanceMeters>
          </Trackpoint>
          <Trackpoint>
            <Time>2022-07-05T15:15:56.000Z</Time>
            <Position>
              <LatitudeDegrees>44.3304919637739658355712890625</LatitudeDegrees>
              <LongitudeDegrees>-1.08855483122169971466064453125</LongitudeDegrees>
            </Position>
            <AltitudeMeters>45</AltitudeMeters>
            <DistanceMeters>NAN</DistanceMeters>
          </Trackpoint>
          <Trackpoint>
            <Time>2022-07-05T15:16:01.000Z</Time>
            <Position>
              <LatitudeDegrees>44.330555163323879241943359375</LatitudeDegrees>
              <LongitudeDegrees>-1.08878038823604583740234375</LongitudeDegrees>
            </Position>
            <AltitudeMeters>44.799999237060546875</AltitudeMeters>
            <DistanceMeters>NAN</DistanceMeters>
          </Trackpoint>
          <Trackpoint>
            <Time>2022-07-05T15:16:05.000Z</Time>
            <Position>
              <LatitudeDegrees>44.3306542374193668365478515625</LatitudeDegrees>
              <LongitudeDegrees>-1.08887837268412113189697265625</LongitudeDegrees>
            </Position>
            <AltitudeMeters>44.799999237060546875</AltitudeMeters>
            <DistanceMeters>NAN</DistanceMeters>
          </Trackpoint>
          <Trackpoint>
            <Time>2022-07-05T15:16:11.000Z</Time>
            <Position>
              <LatitudeDegrees>44.3308170139789581298828125</LatitudeDegrees>
              <LongitudeDegrees>-1.08901080675423145294189453125</LongitudeDegrees>
            </Position>
            <AltitudeMeters>44.40000152587890625</AltitudeMeters>
            <DistanceMeters>NAN</DistanceMeters>
          </Trackpoint>
          <Trackpoint>
            <Time>2022-07-05T15:16:12.000Z</Time>
            <Position>
              <LatitudeDegrees>44.3308326043188571929931640625</LatitudeDegrees>
              <LongitudeDegrees>-1.08904986642301082611083984375</LongitudeDegrees>
            </Position>
            <AltitudeMeters>44.40000152587890625</AltitudeMeters>
            <DistanceMeters>NAN</DistanceMeters>
          </Trackpoint>
          <Trackpoint>
            <Time>2022-07-05T15:16:14.000Z</Time>
            <Position>
              <LatitudeDegrees>44.33081961236894130706787109375</LatitudeDegrees>
              <LongitudeDegrees>-1.0891359485685825347900390625</LongitudeDegrees>
            </Position>
            <AltitudeMeters>44.40000152587890625</AltitudeMeters>
            <DistanceMeters>NAN</DistanceMeters>
          </Trackpoint>
          <Trackpoint>
            <Time>2022-07-05T15:16:16.000Z</Time>
            <Position>
              <LatitudeDegrees>44.330776445567607879638671875</LatitudeDegrees>
              <LongitudeDegrees>-1.089180372655391693115234375</LongitudeDegrees>
            </Position>
            <AltitudeMeters>44.200000762939453125</AltitudeMeters>
            <DistanceMeters>NAN</DistanceMeters>
          </Trackpoint>
          <Trackpoint>
            <Time>2022-07-05T15:16:17.000Z</Time>
            <Position>
              <LatitudeDegrees>44.3307662196457386016845703125</LatitudeDegrees>
              <LongitudeDegrees>-1.089178025722503662109375</LongitudeDegrees>
            </Position>
            <AltitudeMeters>44.200000762939453125</AltitudeMeters>
            <DistanceMeters>NAN</DistanceMeters>
          </Trackpoint>
          <Trackpoint>
            <Time>2022-07-05T15:16:19.000Z</Time>
            <Position>
              <LatitudeDegrees>44.33075859211385250091552734375</LatitudeDegrees>
              <LongitudeDegrees>-1.0891728289425373077392578125</LongitudeDegrees>
            </Position>
            <AltitudeMeters>43.799999237060546875</AltitudeMeters>
            <DistanceMeters>NAN</DistanceMeters>
          </Trackpoint>
          <Trackpoint>
            <Time>2022-07-05T15:16:21.000Z</Time>
            <Position>
              <LatitudeDegrees>44.33075859211385250091552734375</LatitudeDegrees>
              <LongitudeDegrees>-1.0891728289425373077392578125</LongitudeDegrees>
            </Position>
            <AltitudeMeters>43.59999847412109375</AltitudeMeters>
            <DistanceMeters>NAN</DistanceMeters>
          </Trackpoint>
          <Trackpoint>
            <Time>2022-07-05T15:16:28.000Z</Time>
            <Position>
              <LatitudeDegrees>44.3307139165699481964111328125</LatitudeDegrees>
              <LongitudeDegrees>-1.0892418958246707916259765625</LongitudeDegrees>
            </Position>
            <AltitudeMeters>44.200000762939453125</AltitudeMeters>
            <DistanceMeters>NAN</DistanceMeters>
          </Trackpoint>
          <Trackpoint>
            <Time>2022-07-05T15:16:34.000Z</Time>
            <Position>
              <LatitudeDegrees>44.3305724300444126129150390625</LatitudeDegrees>
              <LongitudeDegrees>-1.0893974639475345611572265625</LongitudeDegrees>
            </Position>
            <AltitudeMeters>44.200000762939453125</AltitudeMeters>
            <DistanceMeters>NAN</DistanceMeters>
          </Trackpoint>
          <Trackpoint>
            <Time>2022-07-05T15:16:42.000Z</Time>
            <Position>
              <LatitudeDegrees>44.33033748529851436614990234375</LatitudeDegrees>
              <LongitudeDegrees>-1.089647747576236724853515625</LongitudeDegrees>
            </Position>
            <AltitudeMeters>44.200000762939453125</AltitudeMeters>
            <DistanceMeters>NAN</DistanceMeters>
          </Trackpoint>
          <Trackpoint>
            <Time>2022-07-05T15:16:52.000Z</Time>
            <Position>
              <LatitudeDegrees>44.33005325496196746826171875</LatitudeDegrees>
              <LongitudeDegrees>-1.08996181748807430267333984375</LongitudeDegrees>
            </Position>
            <AltitudeMeters>44.200000762939453125</AltitudeMeters>
            <DistanceMeters>NAN</DistanceMeters>
          </Trackpoint>
          <Trackpoint>
            <Time>2022-07-05T15:17:01.000Z</Time>
            <Position>
              <LatitudeDegrees>44.32977472431957721710205078125</LatitudeDegrees>
              <LongitudeDegrees>-1.0902602970600128173828125</LongitudeDegrees>
            </Position>
            <AltitudeMeters>44.200000762939453125</AltitudeMeters>
            <DistanceMeters>NAN</DistanceMeters>
          </Trackpoint>
          <Trackpoint>
            <Time>2022-07-05T15:17:02.000Z</Time>
            <Position>
              <LatitudeDegrees>44.329745471477508544921875</LatitudeDegrees>
              <LongitudeDegrees>-1.09029105864465236663818359375</LongitudeDegrees>
            </Position>
            <AltitudeMeters>44.40000152587890625</AltitudeMeters>
            <DistanceMeters>NAN</DistanceMeters>
          </Trackpoint>
          <Trackpoint>
            <Time>2022-07-05T15:17:08.000Z</Time>
            <Position>
              <LatitudeDegrees>44.32957003824412822723388671875</LatitudeDegrees>
              <LongitudeDegrees>-1.0904827527701854705810546875</LongitudeDegrees>
            </Position>
            <AltitudeMeters>44.40000152587890625</AltitudeMeters>
            <DistanceMeters>NAN</DistanceMeters>
          </Trackpoint>
          <Trackpoint>
            <Time>2022-07-05T15:17:11.000Z</Time>
            <Position>
              <LatitudeDegrees>44.32949694804847240447998046875</LatitudeDegrees>
              <LongitudeDegrees>-1.0905645601451396942138671875</LongitudeDegrees>
            </Position>
            <AltitudeMeters>44.40000152587890625</AltitudeMeters>
            <DistanceMeters>NAN</DistanceMeters>
          </Trackpoint>
          <Trackpoint>
            <Time>2022-07-05T15:17:20.000Z</Time>
            <Position>
              <LatitudeDegrees>44.329247586429119110107421875</LatitudeDegrees>
              <LongitudeDegrees>-1.0908341221511363983154296875</LongitudeDegrees>
            </Position>
            <AltitudeMeters>44.40000152587890625</AltitudeMeters>
            <DistanceMeters>NAN</DistanceMeters>
          </Trackpoint>
          <Trackpoint>
            <Time>2022-07-05T15:17:29.000Z</Time>
            <Position>
              <LatitudeDegrees>44.32896696031093597412109375</LatitudeDegrees>
              <LongitudeDegrees>-1.0911238007247447967529296875</LongitudeDegrees>
            </Position>
            <AltitudeMeters>44.200000762939453125</AltitudeMeters>
            <DistanceMeters>NAN</DistanceMeters>
          </Trackpoint>
          <Trackpoint>
            <Time>2022-07-05T15:17:39.000Z</Time>
            <Position>
              <LatitudeDegrees>44.32867501862347126007080078125</LatitudeDegrees>
              <LongitudeDegrees>-1.0914238728582859039306640625</LongitudeDegrees>
            </Position>
            <AltitudeMeters>44.200000762939453125</AltitudeMeters>
            <DistanceMeters>NAN</DistanceMeters>
          </Trackpoint>
          <Trackpoint>
            <Time>2022-07-05T15:17:46.000Z</Time>
            <Position>
              <LatitudeDegrees>44.32848793454468250274658203125</LatitudeDegrees>
              <LongitudeDegrees>-1.09164658002555370330810546875</LongitudeDegrees>
            </Position>
            <AltitudeMeters>44</AltitudeMeters>
            <DistanceMeters>NAN</DistanceMeters>
          </Trackpoint>
          <Trackpoint>
            <Time>2022-07-05T15:17:49.000Z</Time>
            <Position>
              <LatitudeDegrees>44.3284110724925994873046875</LatitudeDegrees>
              <LongitudeDegrees>-1.09173878096044063568115234375</LongitudeDegrees>
            </Position>
            <AltitudeMeters>44.200000762939453125</AltitudeMeters>
            <DistanceMeters>NAN</DistanceMeters>
          </Trackpoint>
          <Trackpoint>
            <Time>2022-07-05T15:17:52.000Z</Time>
            <Position>
              <LatitudeDegrees>44.32833538390696048736572265625</LatitudeDegrees>
              <LongitudeDegrees>-1.091833412647247314453125</LongitudeDegrees>
            </Position>
            <AltitudeMeters>44.40000152587890625</AltitudeMeters>
            <DistanceMeters>NAN</DistanceMeters>
          </Trackpoint>
          <Trackpoint>
            <Time>2022-07-05T15:17:58.000Z</Time>
            <Position>
              <LatitudeDegrees>44.32821686379611492156982421875</LatitudeDegrees>
              <LongitudeDegrees>-1.09205662272870540618896484375</LongitudeDegrees>
            </Position>
            <AltitudeMeters>44.59999847412109375</AltitudeMeters>
            <DistanceMeters>NAN</DistanceMeters>
          </Trackpoint>
          <Trackpoint>
            <Time>2022-07-05T15:18:09.000Z</Time>
            <Position>
              <LatitudeDegrees>44.328020475804805755615234375</LatitudeDegrees>
              <LongitudeDegrees>-1.092566661536693572998046875</LongitudeDegrees>
            </Position>
            <AltitudeMeters>44.59999847412109375</AltitudeMeters>
            <DistanceMeters>NAN</DistanceMeters>
          </Trackpoint>
          <Trackpoint>
            <Time>2022-07-05T15:18:12.000Z</Time>
            <Position>
              <LatitudeDegrees>44.32798133231699466705322265625</LatitudeDegrees>
              <LongitudeDegrees>-1.09267788939177989959716796875</LongitudeDegrees>
            </Position>
            <AltitudeMeters>44.799999237060546875</AltitudeMeters>
            <DistanceMeters>NAN</DistanceMeters>
          </Trackpoint>
          <Trackpoint>
            <Time>2022-07-05T15:18:18.000Z</Time>
            <Position>
              <LatitudeDegrees>44.3278932385146617889404296875</LatitudeDegrees>
              <LongitudeDegrees>-1.0929386503994464874267578125</LongitudeDegrees>
            </Position>
            <AltitudeMeters>45.200000762939453125</AltitudeMeters>
            <DistanceMeters>NAN</DistanceMeters>
          </Trackpoint>
          <Trackpoint>
            <Time>2022-07-05T15:18:25.000Z</Time>
            <Position>
              <LatitudeDegrees>44.32776440866291522979736328125</LatitudeDegrees>
              <LongitudeDegrees>-1.0932804644107818603515625</LongitudeDegrees>
            </Position>
            <AltitudeMeters>44.799999237060546875</AltitudeMeters>
            <DistanceMeters>NAN</DistanceMeters>
          </Trackpoint>
          <Trackpoint>
            <Time>2022-07-05T15:18:30.000Z</Time>
            <Position>
              <LatitudeDegrees>44.3276753090322017669677734375</LatitudeDegrees>
              <LongitudeDegrees>-1.0935136489570140838623046875</LongitudeDegrees>
            </Position>
            <AltitudeMeters>44.799999237060546875</AltitudeMeters>
            <DistanceMeters>NAN</DistanceMeters>
          </Trackpoint>
          <Trackpoint>
            <Time>2022-07-05T15:18:32.000Z</Time>
            <Position>
              <LatitudeDegrees>44.32764940895140171051025390625</LatitudeDegrees>
              <LongitudeDegrees>-1.09359386377036571502685546875</LongitudeDegrees>
            </Position>
            <AltitudeMeters>45</AltitudeMeters>
            <DistanceMeters>NAN</DistanceMeters>
          </Trackpoint>
          <Trackpoint>
            <Time>2022-07-05T15:18:41.000Z</Time>
            <Position>
              <LatitudeDegrees>44.32745059020817279815673828125</LatitudeDegrees>
              <LongitudeDegrees>-1.09407640993595123291015625</LongitudeDegrees>
            </Position>
            <AltitudeMeters>44.40000152587890625</AltitudeMeters>
            <DistanceMeters>NAN</DistanceMeters>
          </Trackpoint>
          <Trackpoint>
            <Time>2022-07-05T15:18:46.000Z</Time>
            <Position>
              <LatitudeDegrees>44.32735201902687549591064453125</LatitudeDegrees>
              <LongitudeDegrees>-1.0944068245589733123779296875</LongitudeDegrees>
            </Position>
            <AltitudeMeters>43.799999237060546875</AltitudeMeters>
            <DistanceMeters>NAN</DistanceMeters>
          </Trackpoint>
          <Trackpoint>
            <Time>2022-07-05T15:18:48.000Z</Time>
            <Position>
              <LatitudeDegrees>44.3273118697106838226318359375</LatitudeDegrees>
              <LongitudeDegrees>-1.0945432819426059722900390625</LongitudeDegrees>
            </Position>
            <AltitudeMeters>43.40000152587890625</AltitudeMeters>
            <DistanceMeters>NAN</DistanceMeters>
          </Trackpoint>
          <Trackpoint>
            <Time>2022-07-05T15:18:53.000Z</Time>
            <Position>
              <LatitudeDegrees>44.3271868117153644561767578125</LatitudeDegrees>
              <LongitudeDegrees>-1.09487704932689666748046875</LongitudeDegrees>
            </Position>
            <AltitudeMeters>42.59999847412109375</AltitudeMeters>
            <DistanceMeters>NAN</DistanceMeters>
          </Trackpoint>
          <Trackpoint>
            <Time>2022-07-05T15:18:56.000Z</Time>
            <Position>
              <LatitudeDegrees>44.32711623609066009521484375</LatitudeDegrees>
              <LongitudeDegrees>-1.09508399851620197296142578125</LongitudeDegrees>
            </Position>
            <AltitudeMeters>42.40000152587890625</AltitudeMeters>
            <DistanceMeters>NAN</DistanceMeters>
          </Trackpoint>
          <Trackpoint>
            <Time>2022-07-05T15:19:07.000Z</Time>
            <Position>
              <LatitudeDegrees>44.32690392248332500457763671875</LatitudeDegrees>
              <LongitudeDegrees>-1.09571699984371662139892578125</LongitudeDegrees>
            </Position>
            <AltitudeMeters>41.799999237060546875</AltitudeMeters>
            <DistanceMeters>NAN</DistanceMeters>
          </Trackpoint>
          <Trackpoint>
            <Time>2022-07-05T15:19:12.000Z</Time>
            <Position>
              <LatitudeDegrees>44.3268525414168834686279296875</LatitudeDegrees>
              <LongitudeDegrees>-1.095846332609653472900390625</LongitudeDegrees>
            </Position>
            <AltitudeMeters>42.200000762939453125</AltitudeMeters>
            <DistanceMeters>NAN</DistanceMeters>
          </Trackpoint>
          <Trackpoint>
            <Time>2022-07-05T15:19:14.000Z</Time>
            <Position>
              <LatitudeDegrees>44.3268525414168834686279296875</LatitudeDegrees>
              <LongitudeDegrees>-1.095846332609653472900390625</LongitudeDegrees>
            </Position>
            <AltitudeMeters>42.200000762939453125</AltitudeMeters>
            <DistanceMeters>NAN</DistanceMeters>
          </Trackpoint>
          <Trackpoint>
            <Time>2022-07-05T15:19:55.000Z</Time>
            <Position>
              <LatitudeDegrees>44.32683049701154232025146484375</LatitudeDegrees>
              <LongitudeDegrees>-1.09589494764804840087890625</LongitudeDegrees>
            </Position>
            <AltitudeMeters>42.40000152587890625</AltitudeMeters>
            <DistanceMeters>NAN</DistanceMeters>
          </Trackpoint>
          <Trackpoint>
            <Time>2022-07-05T15:19:56.000Z</Time>
            <Position>
              <LatitudeDegrees>44.32681876234710216522216796875</LatitudeDegrees>
              <LongitudeDegrees>-1.09592570923268795013427734375</LongitudeDegrees>
            </Position>
            <AltitudeMeters>42.59999847412109375</AltitudeMeters>
            <DistanceMeters>NAN</DistanceMeters>
          </Trackpoint>
          <Trackpoint>
            <Time>2022-07-05T15:20:05.000Z</Time>
            <Position>
              <LatitudeDegrees>44.32668817229568958282470703125</LatitudeDegrees>
              <LongitudeDegrees>-1.09618169255554676055908203125</LongitudeDegrees>
            </Position>
            <AltitudeMeters>43.40000152587890625</AltitudeMeters>
            <DistanceMeters>NAN</DistanceMeters>
          </Trackpoint>
          <Trackpoint>
            <Time>2022-07-05T15:20:08.000Z</Time>
            <Position>
              <LatitudeDegrees>44.3266309238970279693603515625</LatitudeDegrees>
              <LongitudeDegrees>-1.09626953490078449249267578125</LongitudeDegrees>
            </Position>
            <AltitudeMeters>43.799999237060546875</AltitudeMeters>
            <DistanceMeters>NAN</DistanceMeters>
          </Trackpoint>
          <Trackpoint>
            <Time>2022-07-05T15:20:12.000Z</Time>
            <Position>
              <LatitudeDegrees>44.32655305601656436920166015625</LatitudeDegrees>
              <LongitudeDegrees>-1.096366681158542633056640625</LongitudeDegrees>
            </Position>
            <AltitudeMeters>44</AltitudeMeters>
            <DistanceMeters>NAN</DistanceMeters>
          </Trackpoint>
          <Trackpoint>
            <Time>2022-07-05T15:20:21.000Z</Time>
            <Position>
              <LatitudeDegrees>44.32636965997517108917236328125</LatitudeDegrees>
              <LongitudeDegrees>-1.0965898074209690093994140625</LongitudeDegrees>
            </Position>
            <AltitudeMeters>44.40000152587890625</AltitudeMeters>
            <DistanceMeters>NAN</DistanceMeters>
          </Trackpoint>
          <Trackpoint>
            <Time>2022-07-05T15:20:25.000Z</Time>
            <Position>
              <LatitudeDegrees>44.32627209462225437164306640625</LatitudeDegrees>
              <LongitudeDegrees>-1.0966950841248035430908203125</LongitudeDegrees>
            </Position>
            <AltitudeMeters>44.59999847412109375</AltitudeMeters>
            <DistanceMeters>NAN</DistanceMeters>
          </Trackpoint>
          <Trackpoint>
            <Time>2022-07-05T15:20:27.000Z</Time>
            <Position>
              <LatitudeDegrees>44.32621710933744907379150390625</LatitudeDegrees>
              <LongitudeDegrees>-1.09675065614283084869384765625</LongitudeDegrees>
            </Position>
            <AltitudeMeters>45</AltitudeMeters>
            <DistanceMeters>NAN</DistanceMeters>
          </Trackpoint>
          <Trackpoint>
            <Time>2022-07-05T15:20:28.000Z</Time>
            <Position>
              <LatitudeDegrees>44.32619062252342700958251953125</LatitudeDegrees>
              <LongitudeDegrees>-1.0967805795371532440185546875</LongitudeDegrees>
            </Position>
            <AltitudeMeters>45</AltitudeMeters>
            <DistanceMeters>NAN</DistanceMeters>
          </Trackpoint>
          <Trackpoint>
            <Time>2022-07-05T15:20:34.000Z</Time>
            <Position>
              <LatitudeDegrees>44.32602725923061370849609375</LatitudeDegrees>
              <LongitudeDegrees>-1.0969817452132701873779296875</LongitudeDegrees>
            </Position>
            <AltitudeMeters>44.799999237060546875</AltitudeMeters>
            <DistanceMeters>NAN</DistanceMeters>
          </Trackpoint>
          <Trackpoint>
            <Time>2022-07-05T15:20:36.000Z</Time>
            <Position>
              <LatitudeDegrees>44.3259654007852077484130859375</LatitudeDegrees>
              <LongitudeDegrees>-1.09705173410475254058837890625</LongitudeDegrees>
            </Position>
            <AltitudeMeters>44.59999847412109375</AltitudeMeters>
            <DistanceMeters>NAN</DistanceMeters>
          </Trackpoint>
          <Trackpoint>
            <Time>2022-07-05T15:20:37.000Z</Time>
            <Position>
              <LatitudeDegrees>44.3259352259337902069091796875</LatitudeDegrees>
              <LongitudeDegrees>-1.09708811156451702117919921875</LongitudeDegrees>
            </Position>
            <AltitudeMeters>44.59999847412109375</AltitudeMeters>
            <DistanceMeters>NAN</DistanceMeters>
          </Trackpoint>
          <Trackpoint>
            <Time>2022-07-05T15:20:38.000Z</Time>
            <Position>
              <LatitudeDegrees>44.325904548168182373046875</LatitudeDegrees>
              <LongitudeDegrees>-1.0971245728433132171630859375</LongitudeDegrees>
            </Position>
            <AltitudeMeters>44.40000152587890625</AltitudeMeters>
            <DistanceMeters>NAN</DistanceMeters>
          </Trackpoint>
          <Trackpoint>
            <Time>2022-07-05T15:20:39.000Z</Time>
            <Position>
              <LatitudeDegrees>44.32587076909840106964111328125</LatitudeDegrees>
              <LongitudeDegrees>-1.0971611179411411285400390625</LongitudeDegrees>
            </Position>
            <AltitudeMeters>44.40000152587890625</AltitudeMeters>
            <DistanceMeters>NAN</DistanceMeters>
          </Trackpoint>
          <Trackpoint>
            <Time>2022-07-05T15:20:40.000Z</Time>
            <Position>
              <LatitudeDegrees>44.3258361518383026123046875</LatitudeDegrees>
              <LongitudeDegrees>-1.09719716012477874755859375</LongitudeDegrees>
            </Position>
            <AltitudeMeters>44.200000762939453125</AltitudeMeters>
            <DistanceMeters>NAN</DistanceMeters>
          </Trackpoint>
          <Trackpoint>
            <Time>2022-07-05T15:20:42.000Z</Time>
            <Position>
              <LatitudeDegrees>44.32577119208872318267822265625</LatitudeDegrees>
              <LongitudeDegrees>-1.09725977294147014617919921875</LongitudeDegrees>
            </Position>
            <AltitudeMeters>44.200000762939453125</AltitudeMeters>
            <DistanceMeters>NAN</DistanceMeters>
          </Trackpoint>
          <Trackpoint>
            <Time>2022-07-05T15:20:43.000Z</Time>
            <Position>
              <LatitudeDegrees>44.32574001140892505645751953125</LatitudeDegrees>
              <LongitudeDegrees>-1.09728877432644367218017578125</LongitudeDegrees>
            </Position>
            <AltitudeMeters>44.200000762939453125</AltitudeMeters>
            <DistanceMeters>NAN</DistanceMeters>
          </Trackpoint>
          <Trackpoint>
            <Time>2022-07-05T15:20:51.000Z</Time>
            <Position>
              <LatitudeDegrees>44.32553465478122234344482421875</LatitudeDegrees>
              <LongitudeDegrees>-1.09749396331608295440673828125</LongitudeDegrees>
            </Position>
            <AltitudeMeters>44.799999237060546875</AltitudeMeters>
            <DistanceMeters>NAN</DistanceMeters>
          </Trackpoint>
          <Trackpoint>
            <Time>2022-07-05T15:20:57.000Z</Time>
            <Position>
              <LatitudeDegrees>44.325387887656688690185546875</LatitudeDegrees>
              <LongitudeDegrees>-1.0976315103471279144287109375</LongitudeDegrees>
            </Position>
            <AltitudeMeters>45.200000762939453125</AltitudeMeters>
            <DistanceMeters>NAN</DistanceMeters>
          </Trackpoint>
          <Trackpoint>
            <Time>2022-07-05T15:20:59.000Z</Time>
            <Position>
              <LatitudeDegrees>44.3253391049802303314208984375</LatitudeDegrees>
              <LongitudeDegrees>-1.0976764373481273651123046875</LongitudeDegrees>
            </Position>
            <AltitudeMeters>45.40000152587890625</AltitudeMeters>
            <DistanceMeters>NAN</DistanceMeters>
          </Trackpoint>
          <Trackpoint>
            <Time>2022-07-05T15:21:04.000Z</Time>
            <Position>
              <LatitudeDegrees>44.32524631731212139129638671875</LatitudeDegrees>
              <LongitudeDegrees>-1.09778196550905704498291015625</LongitudeDegrees>
            </Position>
            <AltitudeMeters>45.40000152587890625</AltitudeMeters>
            <DistanceMeters>NAN</DistanceMeters>
          </Trackpoint>
          <Trackpoint>
            <Time>2022-07-05T15:21:05.000Z</Time>
            <Position>
              <LatitudeDegrees>44.3252291344106197357177734375</LatitudeDegrees>
              <LongitudeDegrees>-1.09780241735279560089111328125</LongitudeDegrees>
            </Position>
            <AltitudeMeters>45.59999847412109375</AltitudeMeters>
            <DistanceMeters>NAN</DistanceMeters>
          </Trackpoint>
          <Trackpoint>
            <Time>2022-07-05T15:21:11.000Z</Time>
            <Position>
              <LatitudeDegrees>44.32512729428708553314208984375</LatitudeDegrees>
              <LongitudeDegrees>-1.09793501906096935272216796875</LongitudeDegrees>
            </Position>
            <AltitudeMeters>45.59999847412109375</AltitudeMeters>
            <DistanceMeters>NAN</DistanceMeters>
          </Trackpoint>
          <Trackpoint>
            <Time>2022-07-05T15:21:13.000Z</Time>
            <Position>
              <LatitudeDegrees>44.325123690068721771240234375</LatitudeDegrees>
              <LongitudeDegrees>-1.097939126193523406982421875</LongitudeDegrees>
            </Position>
            <AltitudeMeters>45.59999847412109375</AltitudeMeters>
            <DistanceMeters>NAN</DistanceMeters>
          </Trackpoint>
          <Trackpoint>
            <Time>2022-07-05T15:21:14.000Z</Time>
            <Position>
              <LatitudeDegrees>44.325123690068721771240234375</LatitudeDegrees>
              <LongitudeDegrees>-1.097939126193523406982421875</LongitudeDegrees>
            </Position>
            <AltitudeMeters>45.59999847412109375</AltitudeMeters>
            <DistanceMeters>NAN</DistanceMeters>
          </Trackpoint>
          <Trackpoint>
            <Time>2022-07-05T15:24:25.000Z</Time>
            <Position>
              <LatitudeDegrees>44.3250735662877559661865234375</LatitudeDegrees>
              <LongitudeDegrees>-1.097993440926074981689453125</LongitudeDegrees>
            </Position>
            <AltitudeMeters>43.40000152587890625</AltitudeMeters>
            <DistanceMeters>NAN</DistanceMeters>
          </Trackpoint>
          <Trackpoint>
            <Time>2022-07-05T15:24:26.000Z</Time>
            <Position>
              <LatitudeDegrees>44.32506074197590351104736328125</LatitudeDegrees>
              <LongitudeDegrees>-1.0980127193033695220947265625</LongitudeDegrees>
            </Position>
            <AltitudeMeters>43.40000152587890625</AltitudeMeters>
            <DistanceMeters>NAN</DistanceMeters>
          </Trackpoint>
          <Trackpoint>
            <Time>2022-07-05T15:24:27.000Z</Time>
            <Position>
              <LatitudeDegrees>44.3250457383692264556884765625</LatitudeDegrees>
              <LongitudeDegrees>-1.0980288125574588775634765625</LongitudeDegrees>
            </Position>
            <AltitudeMeters>43.40000152587890625</AltitudeMeters>
            <DistanceMeters>NAN</DistanceMeters>
          </Trackpoint>
          <Trackpoint>
            <Time>2022-07-05T15:24:28.000Z</Time>
            <Position>
              <LatitudeDegrees>44.32502889074385166168212890625</LatitudeDegrees>
              <LongitudeDegrees>-1.09803845174610614776611328125</LongitudeDegrees>
            </Position>
            <AltitudeMeters>43.200000762939453125</AltitudeMeters>
            <DistanceMeters>NAN</DistanceMeters>
          </Trackpoint>
          <Trackpoint>
            <Time>2022-07-05T15:24:31.000Z</Time>
            <Position>
              <LatitudeDegrees>44.3250100314617156982421875</LatitudeDegrees>
              <LongitudeDegrees>-1.09804800711572170257568359375</LongitudeDegrees>
            </Position>
            <AltitudeMeters>43.200000762939453125</AltitudeMeters>
            <DistanceMeters>NAN</DistanceMeters>
          </Trackpoint>
          <Trackpoint>
            <Time>2022-07-05T15:24:32.000Z</Time>
            <Position>
              <LatitudeDegrees>44.32500642724335193634033203125</LatitudeDegrees>
              <LongitudeDegrees>-1.098051778972148895263671875</LongitudeDegrees>
            </Position>
            <AltitudeMeters>43</AltitudeMeters>
            <DistanceMeters>NAN</DistanceMeters>
          </Trackpoint>
          <Trackpoint>
            <Time>2022-07-05T15:24:37.000Z</Time>
            <Position>
              <LatitudeDegrees>44.32498195208609104156494140625</LatitudeDegrees>
              <LongitudeDegrees>-1.09807047061622142791748046875</LongitudeDegrees>
            </Position>
            <AltitudeMeters>43.200000762939453125</AltitudeMeters>
            <DistanceMeters>NAN</DistanceMeters>
          </Trackpoint>
          <Trackpoint>
            <Time>2022-07-05T15:24:45.000Z</Time>
            <Position>
              <LatitudeDegrees>44.32493266649544239044189453125</LatitudeDegrees>
              <LongitudeDegrees>-1.0980811156332492828369140625</LongitudeDegrees>
            </Position>
            <AltitudeMeters>43.200000762939453125</AltitudeMeters>
            <DistanceMeters>NAN</DistanceMeters>
          </Trackpoint>
          <Trackpoint>
            <Time>2022-07-05T15:24:50.000Z</Time>
            <Position>
              <LatitudeDegrees>44.32491087354719638824462890625</LatitudeDegrees>
              <LongitudeDegrees>-1.09807164408266544342041015625</LongitudeDegrees>
            </Position>
            <AltitudeMeters>43.200000762939453125</AltitudeMeters>
            <DistanceMeters>NAN</DistanceMeters>
          </Trackpoint>
          <Trackpoint>
            <Time>2022-07-05T15:24:51.000Z</Time>
            <Position>
              <LatitudeDegrees>44.32491087354719638824462890625</LatitudeDegrees>
              <LongitudeDegrees>-1.09807164408266544342041015625</LongitudeDegrees>
            </Position>
            <AltitudeMeters>43.200000762939453125</AltitudeMeters>
            <DistanceMeters>NAN</DistanceMeters>
          </Trackpoint>
          <Trackpoint>
            <Time>2022-07-05T15:25:05.000Z</Time>
            <Position>
              <LatitudeDegrees>44.3247547186911106109619140625</LatitudeDegrees>
              <LongitudeDegrees>-1.09813551418483257293701171875</LongitudeDegrees>
            </Position>
            <AltitudeMeters>43.200000762939453125</AltitudeMeters>
            <DistanceMeters>NAN</DistanceMeters>
          </Trackpoint>
          <Trackpoint>
            <Time>2022-07-05T15:25:06.000Z</Time>
            <Position>
              <LatitudeDegrees>44.32473569177091121673583984375</LatitudeDegrees>
              <LongitudeDegrees>-1.0981515236198902130126953125</LongitudeDegrees>
            </Position>
            <AltitudeMeters>43.40000152587890625</AltitudeMeters>
            <DistanceMeters>NAN</DistanceMeters>
          </Trackpoint>
          <Trackpoint>
            <Time>2022-07-05T15:25:10.000Z</Time>
            <Position>
              <LatitudeDegrees>44.32461817748844623565673828125</LatitudeDegrees>
              <LongitudeDegrees>-1.09823743812739849090576171875</LongitudeDegrees>
            </Position>
            <AltitudeMeters>43.59999847412109375</AltitudeMeters>
            <DistanceMeters>NAN</DistanceMeters>
          </Trackpoint>
          <Trackpoint>
            <Time>2022-07-05T15:25:15.000Z</Time>
            <Position>
              <LatitudeDegrees>44.3244479410350322723388671875</LatitudeDegrees>
              <LongitudeDegrees>-1.098390407860279083251953125</LongitudeDegrees>
            </Position>
            <AltitudeMeters>43.799999237060546875</AltitudeMeters>
            <DistanceMeters>NAN</DistanceMeters>
          </Trackpoint>
          <Trackpoint>
            <Time>2022-07-05T15:25:18.000Z</Time>
            <Position>
              <LatitudeDegrees>44.3243299238383769989013671875</LatitudeDegrees>
              <LongitudeDegrees>-1.09849945642054080963134765625</LongitudeDegrees>
            </Position>
            <AltitudeMeters>43.799999237060546875</AltitudeMeters>
            <DistanceMeters>NAN</DistanceMeters>
          </Trackpoint>
          <Trackpoint>
            <Time>2022-07-05T15:25:23.000Z</Time>
            <Position>
              <LatitudeDegrees>44.32417628355324268341064453125</LatitudeDegrees>
              <LongitudeDegrees>-1.09865753911435604095458984375</LongitudeDegrees>
            </Position>
            <AltitudeMeters>43.799999237060546875</AltitudeMeters>
            <DistanceMeters>NAN</DistanceMeters>
          </Trackpoint>
          <Trackpoint>
            <Time>2022-07-05T15:25:25.000Z</Time>
            <Position>
              <LatitudeDegrees>44.32411509566009044647216796875</LatitudeDegrees>
              <LongitudeDegrees>-1.0987186431884765625</LongitudeDegrees>
            </Position>
            <AltitudeMeters>43.799999237060546875</AltitudeMeters>
            <DistanceMeters>NAN</DistanceMeters>
          </Trackpoint>
          <Trackpoint>
            <Time>2022-07-05T15:25:28.000Z</Time>
            <Position>
              <LatitudeDegrees>44.3240251578390598297119140625</LatitudeDegrees>
              <LongitudeDegrees>-1.09881126321852207183837890625</LongitudeDegrees>
            </Position>
            <AltitudeMeters>44</AltitudeMeters>
            <DistanceMeters>NAN</DistanceMeters>
          </Trackpoint>
          <Trackpoint>
            <Time>2022-07-05T15:25:32.000Z</Time>
            <Position>
              <LatitudeDegrees>44.3238969147205352783203125</LatitudeDegrees>
              <LongitudeDegrees>-1.09892743639647960662841796875</LongitudeDegrees>
            </Position>
            <AltitudeMeters>44</AltitudeMeters>
            <DistanceMeters>NAN</DistanceMeters>
          </Trackpoint>
          <Trackpoint>
            <Time>2022-07-05T15:25:35.000Z</Time>
            <Position>
              <LatitudeDegrees>44.32380865328013896942138671875</LatitudeDegrees>
              <LongitudeDegrees>-1.09901058487594127655029296875</LongitudeDegrees>
            </Position>
            <AltitudeMeters>44</AltitudeMeters>
            <DistanceMeters>NAN</DistanceMeters>
          </Trackpoint>
          <Trackpoint>
            <Time>2022-07-05T15:25:37.000Z</Time>
            <Position>
              <LatitudeDegrees>44.32374763302505016326904296875</LatitudeDegrees>
              <LongitudeDegrees>-1.0990748740732669830322265625</LongitudeDegrees>
            </Position>
            <AltitudeMeters>43.799999237060546875</AltitudeMeters>
            <DistanceMeters>NAN</DistanceMeters>
          </Trackpoint>
          <Trackpoint>
            <Time>2022-07-05T15:25:44.000Z</Time>
            <Position>
              <LatitudeDegrees>44.3235530890524387359619140625</LatitudeDegrees>
              <LongitudeDegrees>-1.09927293844521045684814453125</LongitudeDegrees>
            </Position>
            <AltitudeMeters>44.200000762939453125</AltitudeMeters>
            <DistanceMeters>NAN</DistanceMeters>
          </Trackpoint>
          <Trackpoint>
            <Time>2022-07-05T15:25:45.000Z</Time>
            <Position>
              <LatitudeDegrees>44.32352433912456035614013671875</LatitudeDegrees>
              <LongitudeDegrees>-1.099300682544708251953125</LongitudeDegrees>
            </Position>
            <AltitudeMeters>44.200000762939453125</AltitudeMeters>
            <DistanceMeters>NAN</DistanceMeters>
          </Trackpoint>
          <Trackpoint>
            <Time>2022-07-05T15:25:51.000Z</Time>
            <Position>
              <LatitudeDegrees>44.32333842851221561431884765625</LatitudeDegrees>
              <LongitudeDegrees>-1.0994731821119785308837890625</LongitudeDegrees>
            </Position>
            <AltitudeMeters>44.200000762939453125</AltitudeMeters>
            <DistanceMeters>NAN</DistanceMeters>
          </Trackpoint>
          <Trackpoint>
            <Time>2022-07-05T15:25:53.000Z</Time>
            <Position>
              <LatitudeDegrees>44.32327724061906337738037109375</LatitudeDegrees>
              <LongitudeDegrees>-1.09953529201447963714599609375</LongitudeDegrees>
            </Position>
            <AltitudeMeters>44</AltitudeMeters>
            <DistanceMeters>NAN</DistanceMeters>
          </Trackpoint>
          <Trackpoint>
            <Time>2022-07-05T15:25:59.000Z</Time>
            <Position>
              <LatitudeDegrees>44.32309920899569988250732421875</LatitudeDegrees>
              <LongitudeDegrees>-1.0997065342962741851806640625</LongitudeDegrees>
            </Position>
            <AltitudeMeters>44.200000762939453125</AltitudeMeters>
            <DistanceMeters>NAN</DistanceMeters>
          </Trackpoint>
          <Trackpoint>
            <Time>2022-07-05T15:26:01.000Z</Time>
            <Position>
              <LatitudeDegrees>44.32303383015096187591552734375</LatitudeDegrees>
              <LongitudeDegrees>-1.099769733846187591552734375</LongitudeDegrees>
            </Position>
            <AltitudeMeters>44.200000762939453125</AltitudeMeters>
            <DistanceMeters>NAN</DistanceMeters>
          </Trackpoint>
          <Trackpoint>
            <Time>2022-07-05T15:26:03.000Z</Time>
            <Position>
              <LatitudeDegrees>44.32297046296298503875732421875</LatitudeDegrees>
              <LongitudeDegrees>-1.0998356156051158905029296875</LongitudeDegrees>
            </Position>
            <AltitudeMeters>44.40000152587890625</AltitudeMeters>
            <DistanceMeters>NAN</DistanceMeters>
          </Trackpoint>
          <Trackpoint>
            <Time>2022-07-05T15:26:07.000Z</Time>
            <Position>
              <LatitudeDegrees>44.3228419683873653411865234375</LatitudeDegrees>
              <LongitudeDegrees>-1.099957488477230072021484375</LongitudeDegrees>
            </Position>
            <AltitudeMeters>44.40000152587890625</AltitudeMeters>
            <DistanceMeters>NAN</DistanceMeters>
          </Trackpoint>
          <Trackpoint>
            <Time>2022-07-05T15:26:10.000Z</Time>
            <Position>
              <LatitudeDegrees>44.322754628956317901611328125</LatitudeDegrees>
              <LongitudeDegrees>-1.10003233887255191802978515625</LongitudeDegrees>
            </Position>
            <AltitudeMeters>44.59999847412109375</AltitudeMeters>
            <DistanceMeters>NAN</DistanceMeters>
          </Trackpoint>
          <Trackpoint>
            <Time>2022-07-05T15:26:12.000Z</Time>
            <Position>
              <LatitudeDegrees>44.32269503362476825714111328125</LatitudeDegrees>
              <LongitudeDegrees>-1.10008464194834232330322265625</LongitudeDegrees>
            </Position>
            <AltitudeMeters>44.59999847412109375</AltitudeMeters>
            <DistanceMeters>NAN</DistanceMeters>
          </Trackpoint>
          <Trackpoint>
            <Time>2022-07-05T15:26:13.000Z</Time>
            <Position>
              <LatitudeDegrees>44.3226676248013973236083984375</LatitudeDegrees>
              <LongitudeDegrees>-1.10011272132396697998046875</LongitudeDegrees>
            </Position>
            <AltitudeMeters>44.59999847412109375</AltitudeMeters>
            <DistanceMeters>NAN</DistanceMeters>
          </Trackpoint>
          <Trackpoint>
            <Time>2022-07-05T15:26:21.000Z</Time>
            <Position>
              <LatitudeDegrees>44.3224270641803741455078125</LatitudeDegrees>
              <LongitudeDegrees>-1.100360490381717681884765625</LongitudeDegrees>
            </Position>
            <AltitudeMeters>44.59999847412109375</AltitudeMeters>
            <DistanceMeters>NAN</DistanceMeters>
          </Trackpoint>
          <Trackpoint>
            <Time>2022-07-05T15:26:25.000Z</Time>
            <Position>
              <LatitudeDegrees>44.32230292819440364837646484375</LatitudeDegrees>
              <LongitudeDegrees>-1.1004434712231159210205078125</LongitudeDegrees>
            </Position>
            <AltitudeMeters>44.799999237060546875</AltitudeMeters>
            <DistanceMeters>NAN</DistanceMeters>
          </Trackpoint>
          <Trackpoint>
            <Time>2022-07-05T15:26:29.000Z</Time>
            <Position>
              <LatitudeDegrees>44.32218591682612895965576171875</LatitudeDegrees>
              <LongitudeDegrees>-1.10055050812661647796630859375</LongitudeDegrees>
            </Position>
            <AltitudeMeters>44.799999237060546875</AltitudeMeters>
            <DistanceMeters>NAN</DistanceMeters>
          </Trackpoint>
          <Trackpoint>
            <Time>2022-07-05T15:26:34.000Z</Time>
            <Position>
              <LatitudeDegrees>44.32204694487154483795166015625</LatitudeDegrees>
              <LongitudeDegrees>-1.100692413747310638427734375</LongitudeDegrees>
            </Position>
            <AltitudeMeters>45</AltitudeMeters>
            <DistanceMeters>NAN</DistanceMeters>
          </Trackpoint>
          <Trackpoint>
            <Time>2022-07-05T15:26:35.000Z</Time>
            <Position>
              <LatitudeDegrees>44.322013668715953826904296875</LatitudeDegrees>
              <LongitudeDegrees>-1.1007264442741870880126953125</LongitudeDegrees>
            </Position>
            <AltitudeMeters>45.200000762939453125</AltitudeMeters>
            <DistanceMeters>NAN</DistanceMeters>
          </Trackpoint>
          <Trackpoint>
            <Time>2022-07-05T15:26:38.000Z</Time>
            <Position>
              <LatitudeDegrees>44.3219206295907497406005859375</LatitudeDegrees>
              <LongitudeDegrees>-1.10081688500940799713134765625</LongitudeDegrees>
            </Position>
            <AltitudeMeters>45.200000762939453125</AltitudeMeters>
            <DistanceMeters>NAN</DistanceMeters>
          </Trackpoint>
          <Trackpoint>
            <Time>2022-07-05T15:26:44.000Z</Time>
            <Position>
              <LatitudeDegrees>44.3217392452061176300048828125</LatitudeDegrees>
              <LongitudeDegrees>-1.10099776647984981536865234375</LongitudeDegrees>
            </Position>
            <AltitudeMeters>45.40000152587890625</AltitudeMeters>
            <DistanceMeters>NAN</DistanceMeters>
          </Trackpoint>
          <Trackpoint>
            <Time>2022-07-05T15:26:47.000Z</Time>
            <Position>
              <LatitudeDegrees>44.32165249250829219818115234375</LatitudeDegrees>
              <LongitudeDegrees>-1.1010751314461231231689453125</LongitudeDegrees>
            </Position>
            <AltitudeMeters>45.59999847412109375</AltitudeMeters>
            <DistanceMeters>NAN</DistanceMeters>
          </Trackpoint>
          <Trackpoint>
            <Time>2022-07-05T15:26:50.000Z</Time>
            <Position>
              <LatitudeDegrees>44.3215488083660602569580078125</LatitudeDegrees>
              <LongitudeDegrees>-1.10118652693927288055419921875</LongitudeDegrees>
            </Position>
            <AltitudeMeters>45.59999847412109375</AltitudeMeters>
            <DistanceMeters>NAN</DistanceMeters>
          </Trackpoint>
          <Trackpoint>
            <Time>2022-07-05T15:26:53.000Z</Time>
            <Position>
              <LatitudeDegrees>44.3214418552815914154052734375</LatitudeDegrees>
              <LongitudeDegrees>-1.1012843437492847442626953125</LongitudeDegrees>
            </Position>
            <AltitudeMeters>45.799999237060546875</AltitudeMeters>
            <DistanceMeters>NAN</DistanceMeters>
          </Trackpoint>
          <Trackpoint>
            <Time>2022-07-05T15:27:01.000Z</Time>
            <Position>
              <LatitudeDegrees>44.3211789987981319427490234375</LatitudeDegrees>
              <LongitudeDegrees>-1.101568825542926788330078125</LongitudeDegrees>
            </Position>
            <AltitudeMeters>46.200000762939453125</AltitudeMeters>
            <DistanceMeters>NAN</DistanceMeters>
          </Trackpoint>
          <Trackpoint>
            <Time>2022-07-05T15:27:03.000Z</Time>
            <Position>
              <LatitudeDegrees>44.32112091220915317535400390625</LatitudeDegrees>
              <LongitudeDegrees>-1.1016273312270641326904296875</LongitudeDegrees>
            </Position>
            <AltitudeMeters>46.40000152587890625</AltitudeMeters>
            <DistanceMeters>NAN</DistanceMeters>
          </Trackpoint>
          <Trackpoint>
            <Time>2022-07-05T15:27:05.000Z</Time>
            <Position>
              <LatitudeDegrees>44.3210673518478870391845703125</LatitudeDegrees>
              <LongitudeDegrees>-1.1016799695789813995361328125</LongitudeDegrees>
            </Position>
            <AltitudeMeters>46.59999847412109375</AltitudeMeters>
            <DistanceMeters>NAN</DistanceMeters>
          </Trackpoint>
          <Trackpoint>
            <Time>2022-07-05T15:27:09.000Z</Time>
            <Position>
              <LatitudeDegrees>44.3209459818899631500244140625</LatitudeDegrees>
              <LongitudeDegrees>-1.1017964780330657958984375</LongitudeDegrees>
            </Position>
            <AltitudeMeters>46.59999847412109375</AltitudeMeters>
            <DistanceMeters>NAN</DistanceMeters>
          </Trackpoint>
          <Trackpoint>
            <Time>2022-07-05T15:27:14.000Z</Time>
            <Position>
              <LatitudeDegrees>44.32078697718679904937744140625</LatitudeDegrees>
              <LongitudeDegrees>-1.1019314266741275787353515625</LongitudeDegrees>
            </Position>
            <AltitudeMeters>47</AltitudeMeters>
            <DistanceMeters>NAN</DistanceMeters>
          </Trackpoint>
          <Trackpoint>
            <Time>2022-07-05T15:27:24.000Z</Time>
            <Position>
              <LatitudeDegrees>44.3204400502145290374755859375</LatitudeDegrees>
              <LongitudeDegrees>-1.1021939478814601898193359375</LongitudeDegrees>
            </Position>
            <AltitudeMeters>47.200000762939453125</AltitudeMeters>
            <DistanceMeters>NAN</DistanceMeters>
          </Trackpoint>
          <Trackpoint>
            <Time>2022-07-05T15:27:28.000Z</Time>
            <Position>
              <LatitudeDegrees>44.3203025870025157928466796875</LatitudeDegrees>
              <LongitudeDegrees>-1.10228187404572963714599609375</LongitudeDegrees>
            </Position>
            <AltitudeMeters>47</AltitudeMeters>
            <DistanceMeters>NAN</DistanceMeters>
          </Trackpoint>
          <Trackpoint>
            <Time>2022-07-05T15:27:32.000Z</Time>
            <Position>
              <LatitudeDegrees>44.32014710269868373870849609375</LatitudeDegrees>
              <LongitudeDegrees>-1.10239502973854541778564453125</LongitudeDegrees>
            </Position>
            <AltitudeMeters>47.200000762939453125</AltitudeMeters>
            <DistanceMeters>NAN</DistanceMeters>
          </Trackpoint>
          <Trackpoint>
            <Time>2022-07-05T15:27:39.000Z</Time>
            <Position>
              <LatitudeDegrees>44.3198999203741550445556640625</LatitudeDegrees>
              <LongitudeDegrees>-1.1025221832096576690673828125</LongitudeDegrees>
            </Position>
            <AltitudeMeters>47.59999847412109375</AltitudeMeters>
            <DistanceMeters>NAN</DistanceMeters>
          </Trackpoint>
          <Trackpoint>
            <Time>2022-07-05T15:27:40.000Z</Time>
            <Position>
              <LatitudeDegrees>44.31986496783792972564697265625</LatitudeDegrees>
              <LongitudeDegrees>-1.10253400169312953948974609375</LongitudeDegrees>
            </Position>
            <AltitudeMeters>47.59999847412109375</AltitudeMeters>
            <DistanceMeters>NAN</DistanceMeters>
          </Trackpoint>
          <Trackpoint>
            <Time>2022-07-05T15:27:49.000Z</Time>
            <Position>
              <LatitudeDegrees>44.31956908665597438812255859375</LatitudeDegrees>
              <LongitudeDegrees>-1.10267062671482563018798828125</LongitudeDegrees>
            </Position>
            <AltitudeMeters>47.799999237060546875</AltitudeMeters>
            <DistanceMeters>NAN</DistanceMeters>
          </Trackpoint>
          <Trackpoint>
            <Time>2022-07-05T15:27:53.000Z</Time>
            <Position>
              <LatitudeDegrees>44.31954109109938144683837890625</LatitudeDegrees>
              <LongitudeDegrees>-1.10273013822734355926513671875</LongitudeDegrees>
            </Position>
            <AltitudeMeters>47.59999847412109375</AltitudeMeters>
            <DistanceMeters>NAN</DistanceMeters>
          </Trackpoint>
          <Trackpoint>
            <Time>2022-07-05T15:27:55.000Z</Time>
            <Position>
              <LatitudeDegrees>44.31954109109938144683837890625</LatitudeDegrees>
              <LongitudeDegrees>-1.10273013822734355926513671875</LongitudeDegrees>
            </Position>
            <AltitudeMeters>47.40000152587890625</AltitudeMeters>
            <DistanceMeters>NAN</DistanceMeters>
          </Trackpoint>
          <Trackpoint>
            <Time>2022-07-05T15:30:10.000Z</Time>
            <Position>
              <LatitudeDegrees>44.31950069032609462738037109375</LatitudeDegrees>
              <LongitudeDegrees>-1.102693341672420501708984375</LongitudeDegrees>
            </Position>
            <AltitudeMeters>47.799999237060546875</AltitudeMeters>
            <DistanceMeters>NAN</DistanceMeters>
          </Trackpoint>
          <Trackpoint>
            <Time>2022-07-05T15:30:11.000Z</Time>
            <Position>
              <LatitudeDegrees>44.319485016167163848876953125</LatitudeDegrees>
              <LongitudeDegrees>-1.10269141383469104766845703125</LongitudeDegrees>
            </Position>
            <AltitudeMeters>47.799999237060546875</AltitudeMeters>
            <DistanceMeters>NAN</DistanceMeters>
          </Trackpoint>
          <Trackpoint>
            <Time>2022-07-05T15:30:12.000Z</Time>
            <Position>
              <LatitudeDegrees>44.3194687552750110626220703125</LatitudeDegrees>
              <LongitudeDegrees>-1.1026923358440399169921875</LongitudeDegrees>
            </Position>
            <AltitudeMeters>47.799999237060546875</AltitudeMeters>
            <DistanceMeters>NAN</DistanceMeters>
          </Trackpoint>
          <Trackpoint>
            <Time>2022-07-05T15:30:18.000Z</Time>
            <Position>
              <LatitudeDegrees>44.31930069811642169952392578125</LatitudeDegrees>
              <LongitudeDegrees>-1.10273860394954681396484375</LongitudeDegrees>
            </Position>
            <AltitudeMeters>48.200000762939453125</AltitudeMeters>
            <DistanceMeters>NAN</DistanceMeters>
          </Trackpoint>
          <Trackpoint>
            <Time>2022-07-05T15:30:22.000Z</Time>
            <Position>
              <LatitudeDegrees>44.31916155852377414703369140625</LatitudeDegrees>
              <LongitudeDegrees>-1.10277607105672359466552734375</LongitudeDegrees>
            </Position>
            <AltitudeMeters>48.40000152587890625</AltitudeMeters>
            <DistanceMeters>NAN</DistanceMeters>
          </Trackpoint>
          <Trackpoint>
            <Time>2022-07-05T15:30:25.000Z</Time>
            <Position>
              <LatitudeDegrees>44.3190459720790386199951171875</LatitudeDegrees>
              <LongitudeDegrees>-1.10278378240764141082763671875</LongitudeDegrees>
            </Position>
            <AltitudeMeters>48.40000152587890625</AltitudeMeters>
            <DistanceMeters>NAN</DistanceMeters>
          </Trackpoint>
          <Trackpoint>
            <Time>2022-07-05T15:30:28.000Z</Time>
            <Position>
              <LatitudeDegrees>44.31893021799623966217041015625</LatitudeDegrees>
              <LongitudeDegrees>-1.10279560089111328125</LongitudeDegrees>
            </Position>
            <AltitudeMeters>48.59999847412109375</AltitudeMeters>
            <DistanceMeters>NAN</DistanceMeters>
          </Trackpoint>
          <Trackpoint>
            <Time>2022-07-05T15:30:33.000Z</Time>
            <Position>
              <LatitudeDegrees>44.31872134096920490264892578125</LatitudeDegrees>
              <LongitudeDegrees>-1.1028076708316802978515625</LongitudeDegrees>
            </Position>
            <AltitudeMeters>48.59999847412109375</AltitudeMeters>
            <DistanceMeters>NAN</DistanceMeters>
          </Trackpoint>
          <Trackpoint>
            <Time>2022-07-05T15:30:36.000Z</Time>
            <Position>
              <LatitudeDegrees>44.31859611533582210540771484375</LatitudeDegrees>
              <LongitudeDegrees>-1.10281278379261493682861328125</LongitudeDegrees>
            </Position>
            <AltitudeMeters>48.799999237060546875</AltitudeMeters>
            <DistanceMeters>NAN</DistanceMeters>
          </Trackpoint>
          <Trackpoint>
            <Time>2022-07-05T15:30:39.000Z</Time>
            <Position>
              <LatitudeDegrees>44.318466447293758392333984375</LatitudeDegrees>
              <LongitudeDegrees>-1.102820076048374176025390625</LongitudeDegrees>
            </Position>
            <AltitudeMeters>49</AltitudeMeters>
            <DistanceMeters>NAN</DistanceMeters>
          </Trackpoint>
          <Trackpoint>
            <Time>2022-07-05T15:30:45.000Z</Time>
            <Position>
              <LatitudeDegrees>44.31820954196155071258544921875</LatitudeDegrees>
              <LongitudeDegrees>-1.102831475436687469482421875</LongitudeDegrees>
            </Position>
            <AltitudeMeters>49.200000762939453125</AltitudeMeters>
            <DistanceMeters>NAN</DistanceMeters>
          </Trackpoint>
          <Trackpoint>
            <Time>2022-07-05T15:30:50.000Z</Time>
            <Position>
              <LatitudeDegrees>44.31799136102199554443359375</LatitudeDegrees>
              <LongitudeDegrees>-1.1028531007468700408935546875</LongitudeDegrees>
            </Position>
            <AltitudeMeters>49.59999847412109375</AltitudeMeters>
            <DistanceMeters>NAN</DistanceMeters>
          </Trackpoint>
          <Trackpoint>
            <Time>2022-07-05T15:30:53.000Z</Time>
            <Position>
              <LatitudeDegrees>44.31786538101732730865478515625</LatitudeDegrees>
              <LongitudeDegrees>-1.1028594709932804107666015625</LongitudeDegrees>
            </Position>
            <AltitudeMeters>49.799999237060546875</AltitudeMeters>
            <DistanceMeters>NAN</DistanceMeters>
          </Trackpoint>
          <Trackpoint>
            <Time>2022-07-05T15:30:57.000Z</Time>
            <Position>
              <LatitudeDegrees>44.31768852286040782928466796875</LatitudeDegrees>
              <LongitudeDegrees>-1.1028648354113101959228515625</LongitudeDegrees>
            </Position>
            <AltitudeMeters>50</AltitudeMeters>
            <DistanceMeters>NAN</DistanceMeters>
          </Trackpoint>
          <Trackpoint>
            <Time>2022-07-05T15:31:00.000Z</Time>
            <Position>
              <LatitudeDegrees>44.3175669014453887939453125</LatitudeDegrees>
              <LongitudeDegrees>-1.10286609269678592681884765625</LongitudeDegrees>
            </Position>
            <AltitudeMeters>50</AltitudeMeters>
            <DistanceMeters>NAN</DistanceMeters>
          </Trackpoint>
          <Trackpoint>
            <Time>2022-07-05T15:31:01.000Z</Time>
            <Position>
              <LatitudeDegrees>44.31752440519630908966064453125</LatitudeDegrees>
              <LongitudeDegrees>-1.102865003049373626708984375</LongitudeDegrees>
            </Position>
            <AltitudeMeters>50</AltitudeMeters>
            <DistanceMeters>NAN</DistanceMeters>
          </Trackpoint>
          <Trackpoint>
            <Time>2022-07-05T15:31:02.000Z</Time>
            <Position>
              <LatitudeDegrees>44.317482747137546539306640625</LatitudeDegrees>
              <LongitudeDegrees>-1.10286466777324676513671875</LongitudeDegrees>
            </Position>
            <AltitudeMeters>50</AltitudeMeters>
            <DistanceMeters>NAN</DistanceMeters>
          </Trackpoint>
          <Trackpoint>
            <Time>2022-07-05T15:31:03.000Z</Time>
            <Position>
              <LatitudeDegrees>44.317442514002323150634765625</LatitudeDegrees>
              <LongitudeDegrees>-1.102861650288105010986328125</LongitudeDegrees>
            </Position>
            <AltitudeMeters>50</AltitudeMeters>
            <DistanceMeters>NAN</DistanceMeters>
          </Trackpoint>
          <Trackpoint>
            <Time>2022-07-05T15:31:04.000Z</Time>
            <Position>
              <LatitudeDegrees>44.31740353815257549285888671875</LatitudeDegrees>
              <LongitudeDegrees>-1.10286039300262928009033203125</LongitudeDegrees>
            </Position>
            <AltitudeMeters>50.200000762939453125</AltitudeMeters>
            <DistanceMeters>NAN</DistanceMeters>
          </Trackpoint>
          <Trackpoint>
            <Time>2022-07-05T15:31:05.000Z</Time>
            <Position>
              <LatitudeDegrees>44.31736028753221035003662109375</LatitudeDegrees>
              <LongitudeDegrees>-1.10285972245037555694580078125</LongitudeDegrees>
            </Position>
            <AltitudeMeters>50.200000762939453125</AltitudeMeters>
            <DistanceMeters>NAN</DistanceMeters>
          </Trackpoint>
          <Trackpoint>
            <Time>2022-07-05T15:31:09.000Z</Time>
            <Position>
              <LatitudeDegrees>44.3172009475529193878173828125</LatitudeDegrees>
              <LongitudeDegrees>-1.10285469330847263336181640625</LongitudeDegrees>
            </Position>
            <AltitudeMeters>50.40000152587890625</AltitudeMeters>
            <DistanceMeters>NAN</DistanceMeters>
          </Trackpoint>
          <Trackpoint>
            <Time>2022-07-05T15:31:17.000Z</Time>
            <Position>
              <LatitudeDegrees>44.31686927564442157745361328125</LatitudeDegrees>
              <LongitudeDegrees>-1.10286240465939044952392578125</LongitudeDegrees>
            </Position>
            <AltitudeMeters>50.200000762939453125</AltitudeMeters>
            <DistanceMeters>NAN</DistanceMeters>
          </Trackpoint>
          <Trackpoint>
            <Time>2022-07-05T15:31:21.000Z</Time>
            <Position>
              <LatitudeDegrees>44.3167054094374179840087890625</LatitudeDegrees>
              <LongitudeDegrees>-1.1028581298887729644775390625</LongitudeDegrees>
            </Position>
            <AltitudeMeters>50.200000762939453125</AltitudeMeters>
            <DistanceMeters>NAN</DistanceMeters>
          </Trackpoint>
          <Trackpoint>
            <Time>2022-07-05T15:31:24.000Z</Time>
            <Position>
              <LatitudeDegrees>44.3165699578821659088134765625</LatitudeDegrees>
              <LongitudeDegrees>-1.10285284928977489471435546875</LongitudeDegrees>
            </Position>
            <AltitudeMeters>50.59999847412109375</AltitudeMeters>
            <DistanceMeters>NAN</DistanceMeters>
          </Trackpoint>
          <Trackpoint>
            <Time>2022-07-05T15:31:25.000Z</Time>
            <Position>
              <LatitudeDegrees>44.3165250308811664581298828125</LatitudeDegrees>
              <LongitudeDegrees>-1.10285737551748752593994140625</LongitudeDegrees>
            </Position>
            <AltitudeMeters>50.59999847412109375</AltitudeMeters>
            <DistanceMeters>NAN</DistanceMeters>
          </Trackpoint>
          <Trackpoint>
            <Time>2022-07-05T15:31:26.000Z</Time>
            <Position>
              <LatitudeDegrees>44.31648119352757930755615234375</LatitudeDegrees>
              <LongitudeDegrees>-1.10286491923034191131591796875</LongitudeDegrees>
            </Position>
            <AltitudeMeters>50.59999847412109375</AltitudeMeters>
            <DistanceMeters>NAN</DistanceMeters>
          </Trackpoint>
          <Trackpoint>
            <Time>2022-07-05T15:31:33.000Z</Time>
            <Position>
              <LatitudeDegrees>44.31615631096065044403076171875</LatitudeDegrees>
              <LongitudeDegrees>-1.1028792522847652435302734375</LongitudeDegrees>
            </Position>
            <AltitudeMeters>50.799999237060546875</AltitudeMeters>
            <DistanceMeters>NAN</DistanceMeters>
          </Trackpoint>
          <Trackpoint>
            <Time>2022-07-05T15:31:45.000Z</Time>
            <Position>
              <LatitudeDegrees>44.3156231380999088287353515625</LatitudeDegrees>
              <LongitudeDegrees>-1.10290163196623325347900390625</LongitudeDegrees>
            </Position>
            <AltitudeMeters>51.59999847412109375</AltitudeMeters>
            <DistanceMeters>NAN</DistanceMeters>
          </Trackpoint>
          <Trackpoint>
            <Time>2022-07-05T15:31:46.000Z</Time>
            <Position>
              <LatitudeDegrees>44.31557913310825824737548828125</LatitudeDegrees>
              <LongitudeDegrees>-1.10290758311748504638671875</LongitudeDegrees>
            </Position>
            <AltitudeMeters>51.59999847412109375</AltitudeMeters>
            <DistanceMeters>NAN</DistanceMeters>
          </Trackpoint>
          <Trackpoint>
            <Time>2022-07-05T15:31:52.000Z</Time>
            <Position>
              <LatitudeDegrees>44.31532566435635089874267578125</LatitudeDegrees>
              <LongitudeDegrees>-1.1029382608830928802490234375</LongitudeDegrees>
            </Position>
            <AltitudeMeters>51.799999237060546875</AltitudeMeters>
            <DistanceMeters>NAN</DistanceMeters>
          </Trackpoint>
          <Trackpoint>
            <Time>2022-07-05T15:31:53.000Z</Time>
            <Position>
              <LatitudeDegrees>44.3152838386595249176025390625</LatitudeDegrees>
              <LongitudeDegrees>-1.10293867997825145721435546875</LongitudeDegrees>
            </Position>
            <AltitudeMeters>52</AltitudeMeters>
            <DistanceMeters>NAN</DistanceMeters>
          </Trackpoint>
          <Trackpoint>
            <Time>2022-07-05T15:31:59.000Z</Time>
            <Position>
              <LatitudeDegrees>44.31504168547689914703369140625</LatitudeDegrees>
              <LongitudeDegrees>-1.10295175574719905853271484375</LongitudeDegrees>
            </Position>
            <AltitudeMeters>52.200000762939453125</AltitudeMeters>
            <DistanceMeters>NAN</DistanceMeters>
          </Trackpoint>
          <Trackpoint>
            <Time>2022-07-05T15:32:02.000Z</Time>
            <Position>
              <LatitudeDegrees>44.3149170465767383575439453125</LatitudeDegrees>
              <LongitudeDegrees>-1.102956868708133697509765625</LongitudeDegrees>
            </Position>
            <AltitudeMeters>52.200000762939453125</AltitudeMeters>
            <DistanceMeters>NAN</DistanceMeters>
          </Trackpoint>
          <Trackpoint>
            <Time>2022-07-05T15:32:09.000Z</Time>
            <Position>
              <LatitudeDegrees>44.3146082572638988494873046875</LatitudeDegrees>
              <LongitudeDegrees>-1.1029748059809207916259765625</LongitudeDegrees>
            </Position>
            <AltitudeMeters>52.40000152587890625</AltitudeMeters>
            <DistanceMeters>NAN</DistanceMeters>
          </Trackpoint>
          <Trackpoint>
            <Time>2022-07-05T15:32:11.000Z</Time>
            <Position>
              <LatitudeDegrees>44.3145279586315155029296875</LatitudeDegrees>
              <LongitudeDegrees>-1.10298268496990203857421875</LongitudeDegrees>
            </Position>
            <AltitudeMeters>52.40000152587890625</AltitudeMeters>
            <DistanceMeters>NAN</DistanceMeters>
          </Trackpoint>
          <Trackpoint>
            <Time>2022-07-05T15:32:16.000Z</Time>
            <Position>
              <LatitudeDegrees>44.3143169023096561431884765625</LatitudeDegrees>
              <LongitudeDegrees>-1.102991402149200439453125</LongitudeDegrees>
            </Position>
            <AltitudeMeters>52.40000152587890625</AltitudeMeters>
            <DistanceMeters>NAN</DistanceMeters>
          </Trackpoint>
          <Trackpoint>
            <Time>2022-07-05T15:32:20.000Z</Time>
            <Position>
              <LatitudeDegrees>44.3141542933881282806396484375</LatitudeDegrees>
              <LongitudeDegrees>-1.1029838584363460540771484375</LongitudeDegrees>
            </Position>
            <AltitudeMeters>52.40000152587890625</AltitudeMeters>
            <DistanceMeters>NAN</DistanceMeters>
          </Trackpoint>
          <Trackpoint>
            <Time>2022-07-05T15:32:27.000Z</Time>
            <Position>
              <LatitudeDegrees>44.31384198367595672607421875</LatitudeDegrees>
              <LongitudeDegrees>-1.1029939167201519012451171875</LongitudeDegrees>
            </Position>
            <AltitudeMeters>52.59999847412109375</AltitudeMeters>
            <DistanceMeters>NAN</DistanceMeters>
          </Trackpoint>
          <Trackpoint>
            <Time>2022-07-05T15:32:30.000Z</Time>
            <Position>
              <LatitudeDegrees>44.31370829232037067413330078125</LatitudeDegrees>
              <LongitudeDegrees>-1.1030090041458606719970703125</LongitudeDegrees>
            </Position>
            <AltitudeMeters>52.799999237060546875</AltitudeMeters>
            <DistanceMeters>NAN</DistanceMeters>
          </Trackpoint>
          <Trackpoint>
            <Time>2022-07-05T15:32:34.000Z</Time>
            <Position>
              <LatitudeDegrees>44.31352707557380199432373046875</LatitudeDegrees>
              <LongitudeDegrees>-1.103014536201953887939453125</LongitudeDegrees>
            </Position>
            <AltitudeMeters>53</AltitudeMeters>
            <DistanceMeters>NAN</DistanceMeters>
          </Trackpoint>
          <Trackpoint>
            <Time>2022-07-05T15:32:40.000Z</Time>
            <Position>
              <LatitudeDegrees>44.31325969286262989044189453125</LatitudeDegrees>
              <LongitudeDegrees>-1.1030053161084651947021484375</LongitudeDegrees>
            </Position>
            <AltitudeMeters>53</AltitudeMeters>
            <DistanceMeters>NAN</DistanceMeters>
          </Trackpoint>
          <Trackpoint>
            <Time>2022-07-05T15:32:47.000Z</Time>
            <Position>
              <LatitudeDegrees>44.3129546754062175750732421875</LatitudeDegrees>
              <LongitudeDegrees>-1.10300925560295581817626953125</LongitudeDegrees>
            </Position>
            <AltitudeMeters>53.799999237060546875</AltitudeMeters>
            <DistanceMeters>NAN</DistanceMeters>
          </Trackpoint>
          <Trackpoint>
            <Time>2022-07-05T15:32:49.000Z</Time>
            <Position>
              <LatitudeDegrees>44.3128701858222484588623046875</LatitudeDegrees>
              <LongitudeDegrees>-1.10301227308809757232666015625</LongitudeDegrees>
            </Position>
            <AltitudeMeters>53.799999237060546875</AltitudeMeters>
            <DistanceMeters>NAN</DistanceMeters>
          </Trackpoint>
          <Trackpoint>
            <Time>2022-07-05T15:32:53.000Z</Time>
            <Position>
              <LatitudeDegrees>44.31270162574946880340576171875</LatitudeDegrees>
              <LongitudeDegrees>-1.10302685759961605072021484375</LongitudeDegrees>
            </Position>
            <AltitudeMeters>53.799999237060546875</AltitudeMeters>
            <DistanceMeters>NAN</DistanceMeters>
          </Trackpoint>
          <Trackpoint>
            <Time>2022-07-05T15:32:56.000Z</Time>
            <Position>
              <LatitudeDegrees>44.312580339610576629638671875</LatitudeDegrees>
              <LongitudeDegrees>-1.10303289256989955902099609375</LongitudeDegrees>
            </Position>
            <AltitudeMeters>53.799999237060546875</AltitudeMeters>
            <DistanceMeters>NAN</DistanceMeters>
          </Trackpoint>
          <Trackpoint>
            <Time>2022-07-05T15:33:01.000Z</Time>
            <Position>
              <LatitudeDegrees>44.31237540207803249359130859375</LatitudeDegrees>
              <LongitudeDegrees>-1.10303071327507495880126953125</LongitudeDegrees>
            </Position>
            <AltitudeMeters>54</AltitudeMeters>
            <DistanceMeters>NAN</DistanceMeters>
          </Trackpoint>
          <Trackpoint>
            <Time>2022-07-05T15:33:13.000Z</Time>
            <Position>
              <LatitudeDegrees>44.31189394555985927581787109375</LatitudeDegrees>
              <LongitudeDegrees>-1.10304462723433971405029296875</LongitudeDegrees>
            </Position>
            <AltitudeMeters>54.40000152587890625</AltitudeMeters>
            <DistanceMeters>NAN</DistanceMeters>
          </Trackpoint>
          <Trackpoint>
            <Time>2022-07-05T15:33:21.000Z</Time>
            <Position>
              <LatitudeDegrees>44.3115592561662197113037109375</LatitudeDegrees>
              <LongitudeDegrees>-1.1030653305351734161376953125</LongitudeDegrees>
            </Position>
            <AltitudeMeters>54.59999847412109375</AltitudeMeters>
            <DistanceMeters>NAN</DistanceMeters>
          </Trackpoint>
          <Trackpoint>
            <Time>2022-07-05T15:33:23.000Z</Time>
            <Position>
              <LatitudeDegrees>44.3114863336086273193359375</LatitudeDegrees>
              <LongitudeDegrees>-1.103072874248027801513671875</LongitudeDegrees>
            </Position>
            <AltitudeMeters>54.799999237060546875</AltitudeMeters>
            <DistanceMeters>NAN</DistanceMeters>
          </Trackpoint>
          <Trackpoint>
            <Time>2022-07-05T15:33:30.000Z</Time>
            <Position>
              <LatitudeDegrees>44.3112072162330150604248046875</LatitudeDegrees>
              <LongitudeDegrees>-1.10311277210712432861328125</LongitudeDegrees>
            </Position>
            <AltitudeMeters>55</AltitudeMeters>
            <DistanceMeters>NAN</DistanceMeters>
          </Trackpoint>
          <Trackpoint>
            <Time>2022-07-05T15:33:36.000Z</Time>
            <Position>
              <LatitudeDegrees>44.3109450303018093109130859375</LatitudeDegrees>
              <LongitudeDegrees>-1.10310866497457027435302734375</LongitudeDegrees>
            </Position>
            <AltitudeMeters>55.200000762939453125</AltitudeMeters>
            <DistanceMeters>NAN</DistanceMeters>
          </Trackpoint>
          <Trackpoint>
            <Time>2022-07-05T15:33:39.000Z</Time>
            <Position>
              <LatitudeDegrees>44.3108115904033184051513671875</LatitudeDegrees>
              <LongitudeDegrees>-1.1031079106032848358154296875</LongitudeDegrees>
            </Position>
            <AltitudeMeters>55.200000762939453125</AltitudeMeters>
            <DistanceMeters>NAN</DistanceMeters>
          </Trackpoint>
          <Trackpoint>
            <Time>2022-07-05T15:33:42.000Z</Time>
            <Position>
              <LatitudeDegrees>44.31069952435791492462158203125</LatitudeDegrees>
              <LongitudeDegrees>-1.10311889089643955230712890625</LongitudeDegrees>
            </Position>
            <AltitudeMeters>55.40000152587890625</AltitudeMeters>
            <DistanceMeters>NAN</DistanceMeters>
          </Trackpoint>
          <Trackpoint>
            <Time>2022-07-05T15:33:47.000Z</Time>
            <Position>
              <LatitudeDegrees>44.3104494921863079071044921875</LatitudeDegrees>
              <LongitudeDegrees>-1.10310128889977931976318359375</LongitudeDegrees>
            </Position>
            <AltitudeMeters>55.59999847412109375</AltitudeMeters>
            <DistanceMeters>NAN</DistanceMeters>
          </Trackpoint>
          <Trackpoint>
            <Time>2022-07-05T15:33:48.000Z</Time>
            <Position>
              <LatitudeDegrees>44.31040163151919841766357421875</LatitudeDegrees>
              <LongitudeDegrees>-1.10310313291847705841064453125</LongitudeDegrees>
            </Position>
            <AltitudeMeters>55.59999847412109375</AltitudeMeters>
            <DistanceMeters>NAN</DistanceMeters>
          </Trackpoint>
          <Trackpoint>
            <Time>2022-07-05T15:33:52.000Z</Time>
            <Position>
              <LatitudeDegrees>44.31020624935626983642578125</LatitudeDegrees>
              <LongitudeDegrees>-1.1031283624470233917236328125</LongitudeDegrees>
            </Position>
            <AltitudeMeters>55.59999847412109375</AltitudeMeters>
            <DistanceMeters>NAN</DistanceMeters>
          </Trackpoint>
          <Trackpoint>
            <Time>2022-07-05T15:33:54.000Z</Time>
            <Position>
              <LatitudeDegrees>44.31010725907981395721435546875</LatitudeDegrees>
              <LongitudeDegrees>-1.10312995500862598419189453125</LongitudeDegrees>
            </Position>
            <AltitudeMeters>55.799999237060546875</AltitudeMeters>
            <DistanceMeters>NAN</DistanceMeters>
          </Trackpoint>
          <Trackpoint>
            <Time>2022-07-05T15:33:55.000Z</Time>
            <Position>
              <LatitudeDegrees>44.3100635893642902374267578125</LatitudeDegrees>
              <LongitudeDegrees>-1.10313347540795803070068359375</LongitudeDegrees>
            </Position>
            <AltitudeMeters>55.799999237060546875</AltitudeMeters>
            <DistanceMeters>NAN</DistanceMeters>
          </Trackpoint>
          <Trackpoint>
            <Time>2022-07-05T15:33:59.000Z</Time>
            <Position>
              <LatitudeDegrees>44.3098889105021953582763671875</LatitudeDegrees>
              <LongitudeDegrees>-1.103144623339176177978515625</LongitudeDegrees>
            </Position>
            <AltitudeMeters>56.200000762939453125</AltitudeMeters>
            <DistanceMeters>NAN</DistanceMeters>
          </Trackpoint>
          <Trackpoint>
            <Time>2022-07-05T15:34:02.000Z</Time>
            <Position>
              <LatitudeDegrees>44.309744574129581451416015625</LatitudeDegrees>
              <LongitudeDegrees>-1.10314906574785709381103515625</LongitudeDegrees>
            </Position>
            <AltitudeMeters>56.40000152587890625</AltitudeMeters>
            <DistanceMeters>NAN</DistanceMeters>
          </Trackpoint>
          <Trackpoint>
            <Time>2022-07-05T15:34:07.000Z</Time>
            <Position>
              <LatitudeDegrees>44.30951918475329875946044921875</LatitudeDegrees>
              <LongitudeDegrees>-1.103161387145519256591796875</LongitudeDegrees>
            </Position>
            <AltitudeMeters>56.40000152587890625</AltitudeMeters>
            <DistanceMeters>NAN</DistanceMeters>
          </Trackpoint>
          <Trackpoint>
            <Time>2022-07-05T15:34:10.000Z</Time>
            <Position>
              <LatitudeDegrees>44.30938473902642726898193359375</LatitudeDegrees>
              <LongitudeDegrees>-1.10318192280828952789306640625</LongitudeDegrees>
            </Position>
            <AltitudeMeters>56.40000152587890625</AltitudeMeters>
            <DistanceMeters>NAN</DistanceMeters>
          </Trackpoint>
          <Trackpoint>
            <Time>2022-07-05T15:34:13.000Z</Time>
            <Position>
              <LatitudeDegrees>44.309245012700557708740234375</LatitudeDegrees>
              <LongitudeDegrees>-1.10318787395954132080078125</LongitudeDegrees>
            </Position>
            <AltitudeMeters>56.40000152587890625</AltitudeMeters>
            <DistanceMeters>NAN</DistanceMeters>
          </Trackpoint>
          <Trackpoint>
            <Time>2022-07-05T15:34:18.000Z</Time>
            <Position>
              <LatitudeDegrees>44.30901425890624523162841796875</LatitudeDegrees>
              <LongitudeDegrees>-1.10317186452448368072509765625</LongitudeDegrees>
            </Position>
            <AltitudeMeters>56.59999847412109375</AltitudeMeters>
            <DistanceMeters>NAN</DistanceMeters>
          </Trackpoint>
          <Trackpoint>
            <Time>2022-07-05T15:34:22.000Z</Time>
            <Position>
              <LatitudeDegrees>44.308849386870861053466796875</LatitudeDegrees>
              <LongitudeDegrees>-1.1031912267208099365234375</LongitudeDegrees>
            </Position>
            <AltitudeMeters>56.59999847412109375</AltitudeMeters>
            <DistanceMeters>NAN</DistanceMeters>
          </Trackpoint>
          <Trackpoint>
            <Time>2022-07-05T15:34:31.000Z</Time>
            <Position>
              <LatitudeDegrees>44.30845904164016246795654296875</LatitudeDegrees>
              <LongitudeDegrees>-1.10320656560361385345458984375</LongitudeDegrees>
            </Position>
            <AltitudeMeters>56.799999237060546875</AltitudeMeters>
            <DistanceMeters>NAN</DistanceMeters>
          </Trackpoint>
          <Trackpoint>
            <Time>2022-07-05T15:34:38.000Z</Time>
            <Position>
              <LatitudeDegrees>44.3081791698932647705078125</LatitudeDegrees>
              <LongitudeDegrees>-1.1031883768737316131591796875</LongitudeDegrees>
            </Position>
            <AltitudeMeters>56.59999847412109375</AltitudeMeters>
            <DistanceMeters>NAN</DistanceMeters>
          </Trackpoint>
          <Trackpoint>
            <Time>2022-07-05T15:34:41.000Z</Time>
            <Position>
              <LatitudeDegrees>44.30810515768826007843017578125</LatitudeDegrees>
              <LongitudeDegrees>-1.10311687923967838287353515625</LongitudeDegrees>
            </Position>
            <AltitudeMeters>56.59999847412109375</AltitudeMeters>
            <DistanceMeters>NAN</DistanceMeters>
          </Trackpoint>
          <Trackpoint>
            <Time>2022-07-05T15:34:46.000Z</Time>
            <Position>
              <LatitudeDegrees>44.30809845216572284698486328125</LatitudeDegrees>
              <LongitudeDegrees>-1.10300288535654544830322265625</LongitudeDegrees>
            </Position>
            <AltitudeMeters>56.40000152587890625</AltitudeMeters>
            <DistanceMeters>NAN</DistanceMeters>
          </Trackpoint>
          <Trackpoint>
            <Time>2022-07-05T15:34:47.000Z</Time>
            <Position>
              <LatitudeDegrees>44.30809644050896167755126953125</LatitudeDegrees>
              <LongitudeDegrees>-1.10298679210245609283447265625</LongitudeDegrees>
            </Position>
            <AltitudeMeters>56.40000152587890625</AltitudeMeters>
            <DistanceMeters>NAN</DistanceMeters>
          </Trackpoint>
          <Trackpoint>
            <Time>2022-07-05T15:34:50.000Z</Time>
            <Position>
              <LatitudeDegrees>44.3080938421189785003662109375</LatitudeDegrees>
              <LongitudeDegrees>-1.102982349693775177001953125</LongitudeDegrees>
            </Position>
            <AltitudeMeters>56.40000152587890625</AltitudeMeters>
            <DistanceMeters>NAN</DistanceMeters>
          </Trackpoint>
          <Trackpoint>
            <Time>2022-07-05T15:35:23.000Z</Time>
            <Position>
              <LatitudeDegrees>44.30808998644351959228515625</LatitudeDegrees>
              <LongitudeDegrees>-1.10294706188142299652099609375</LongitudeDegrees>
            </Position>
            <AltitudeMeters>56.40000152587890625</AltitudeMeters>
            <DistanceMeters>NAN</DistanceMeters>
          </Trackpoint>
          <Trackpoint>
            <Time>2022-07-05T15:35:24.000Z</Time>
            <Position>
              <LatitudeDegrees>44.30808462202548980712890625</LatitudeDegrees>
              <LongitudeDegrees>-1.10291085205972194671630859375</LongitudeDegrees>
            </Position>
            <AltitudeMeters>56.40000152587890625</AltitudeMeters>
            <DistanceMeters>NAN</DistanceMeters>
          </Trackpoint>
          <Trackpoint>
            <Time>2022-07-05T15:35:25.000Z</Time>
            <Position>
              <LatitudeDegrees>44.3080743961036205291748046875</LatitudeDegrees>
              <LongitudeDegrees>-1.1028752289712429046630859375</LongitudeDegrees>
            </Position>
            <AltitudeMeters>56.40000152587890625</AltitudeMeters>
            <DistanceMeters>NAN</DistanceMeters>
          </Trackpoint>
          <Trackpoint>
            <Time>2022-07-05T15:35:29.000Z</Time>
            <Position>
              <LatitudeDegrees>44.3080324865877628326416015625</LatitudeDegrees>
              <LongitudeDegrees>-1.10274405218660831451416015625</LongitudeDegrees>
            </Position>
            <AltitudeMeters>56.40000152587890625</AltitudeMeters>
            <DistanceMeters>NAN</DistanceMeters>
          </Trackpoint>
          <Trackpoint>
            <Time>2022-07-05T15:35:31.000Z</Time>
            <Position>
              <LatitudeDegrees>44.3080075085163116455078125</LatitudeDegrees>
              <LongitudeDegrees>-1.10269971191883087158203125</LongitudeDegrees>
            </Position>
            <AltitudeMeters>56.40000152587890625</AltitudeMeters>
            <DistanceMeters>NAN</DistanceMeters>
          </Trackpoint>
          <Trackpoint>
            <Time>2022-07-05T15:35:35.000Z</Time>
            <Position>
              <LatitudeDegrees>44.30797255598008632659912109375</LatitudeDegrees>
              <LongitudeDegrees>-1.1025761626660823822021484375</LongitudeDegrees>
            </Position>
            <AltitudeMeters>56.200000762939453125</AltitudeMeters>
            <DistanceMeters>NAN</DistanceMeters>
          </Trackpoint>
          <Trackpoint>
            <Time>2022-07-05T15:35:36.000Z</Time>
            <Position>
              <LatitudeDegrees>44.30797020904719829559326171875</LatitudeDegrees>
              <LongitudeDegrees>-1.10254791565239429473876953125</LongitudeDegrees>
            </Position>
            <AltitudeMeters>56.40000152587890625</AltitudeMeters>
            <DistanceMeters>NAN</DistanceMeters>
          </Trackpoint>
          <Trackpoint>
            <Time>2022-07-05T15:35:38.000Z</Time>
            <Position>
              <LatitudeDegrees>44.30796920321881771087646484375</LatitudeDegrees>
              <LongitudeDegrees>-1.102496199309825897216796875</LongitudeDegrees>
            </Position>
            <AltitudeMeters>56.40000152587890625</AltitudeMeters>
            <DistanceMeters>NAN</DistanceMeters>
          </Trackpoint>
          <Trackpoint>
            <Time>2022-07-05T15:35:42.000Z</Time>
            <Position>
              <LatitudeDegrees>44.30800491012632846832275390625</LatitudeDegrees>
              <LongitudeDegrees>-1.10231070779263973236083984375</LongitudeDegrees>
            </Position>
            <AltitudeMeters>56.40000152587890625</AltitudeMeters>
            <DistanceMeters>NAN</DistanceMeters>
          </Trackpoint>
          <Trackpoint>
            <Time>2022-07-05T15:35:49.000Z</Time>
            <Position>
              <LatitudeDegrees>44.308022595942020416259765625</LatitudeDegrees>
              <LongitudeDegrees>-1.10200367867946624755859375</LongitudeDegrees>
            </Position>
            <AltitudeMeters>56.59999847412109375</AltitudeMeters>
            <DistanceMeters>NAN</DistanceMeters>
          </Trackpoint>
          <Trackpoint>
            <Time>2022-07-05T15:35:50.000Z</Time>
            <Position>
              <LatitudeDegrees>44.30802385322749614715576171875</LatitudeDegrees>
              <LongitudeDegrees>-1.1019790358841419219970703125</LongitudeDegrees>
            </Position>
            <AltitudeMeters>56.59999847412109375</AltitudeMeters>
            <DistanceMeters>NAN</DistanceMeters>
          </Trackpoint>
          <Trackpoint>
            <Time>2022-07-05T15:35:54.000Z</Time>
            <Position>
              <LatitudeDegrees>44.30801379494369029998779296875</LatitudeDegrees>
              <LongitudeDegrees>-1.10183025710284709930419921875</LongitudeDegrees>
            </Position>
            <AltitudeMeters>56.59999847412109375</AltitudeMeters>
            <DistanceMeters>NAN</DistanceMeters>
          </Trackpoint>
          <Trackpoint>
            <Time>2022-07-05T15:36:03.000Z</Time>
            <Position>
              <LatitudeDegrees>44.3080093525350093841552734375</LatitudeDegrees>
              <LongitudeDegrees>-1.1013986729085445404052734375</LongitudeDegrees>
            </Position>
            <AltitudeMeters>56.59999847412109375</AltitudeMeters>
            <DistanceMeters>NAN</DistanceMeters>
          </Trackpoint>
          <Trackpoint>
            <Time>2022-07-05T15:36:05.000Z</Time>
            <Position>
              <LatitudeDegrees>44.3080046586692333221435546875</LatitudeDegrees>
              <LongitudeDegrees>-1.1013560928404331207275390625</LongitudeDegrees>
            </Position>
            <AltitudeMeters>56.799999237060546875</AltitudeMeters>
            <DistanceMeters>NAN</DistanceMeters>
          </Trackpoint>
          <Trackpoint>
            <Time>2022-07-05T15:36:09.000Z</Time>
            <Position>
              <LatitudeDegrees>44.30799745023250579833984375</LatitudeDegrees>
              <LongitudeDegrees>-1.10123178921639919281005859375</LongitudeDegrees>
            </Position>
            <AltitudeMeters>56.799999237060546875</AltitudeMeters>
            <DistanceMeters>NAN</DistanceMeters>
          </Trackpoint>
          <Trackpoint>
            <Time>2022-07-05T15:36:16.000Z</Time>
            <Position>
              <LatitudeDegrees>44.30799954570829868316650390625</LatitudeDegrees>
              <LongitudeDegrees>-1.1010141111910343170166015625</LongitudeDegrees>
            </Position>
            <AltitudeMeters>57</AltitudeMeters>
            <DistanceMeters>NAN</DistanceMeters>
          </Trackpoint>
          <Trackpoint>
            <Time>2022-07-05T15:36:17.000Z</Time>
            <Position>
              <LatitudeDegrees>44.308003149926662445068359375</LatitudeDegrees>
              <LongitudeDegrees>-1.100985109806060791015625</LongitudeDegrees>
            </Position>
            <AltitudeMeters>57</AltitudeMeters>
            <DistanceMeters>NAN</DistanceMeters>
          </Trackpoint>
          <Trackpoint>
            <Time>2022-07-05T15:36:18.000Z</Time>
            <Position>
              <LatitudeDegrees>44.308009184896945953369140625</LatitudeDegrees>
              <LongitudeDegrees>-1.10096105374395847320556640625</LongitudeDegrees>
            </Position>
            <AltitudeMeters>57</AltitudeMeters>
            <DistanceMeters>NAN</DistanceMeters>
          </Trackpoint>
          <Trackpoint>
            <Time>2022-07-05T15:36:20.000Z</Time>
            <Position>
              <LatitudeDegrees>44.3080173991620540618896484375</LatitudeDegrees>
              <LongitudeDegrees>-1.100899279117584228515625</LongitudeDegrees>
            </Position>
            <AltitudeMeters>56.799999237060546875</AltitudeMeters>
            <DistanceMeters>NAN</DistanceMeters>
          </Trackpoint>
          <Trackpoint>
            <Time>2022-07-05T15:36:22.000Z</Time>
            <Position>
              <LatitudeDegrees>44.30802402086555957794189453125</LatitudeDegrees>
              <LongitudeDegrees>-1.10084068961441516876220703125</LongitudeDegrees>
            </Position>
            <AltitudeMeters>56.799999237060546875</AltitudeMeters>
            <DistanceMeters>NAN</DistanceMeters>
          </Trackpoint>
          <Trackpoint>
            <Time>2022-07-05T15:36:24.000Z</Time>
            <Position>
              <LatitudeDegrees>44.3080262839794158935546875</LatitudeDegrees>
              <LongitudeDegrees>-1.10077497549355030059814453125</LongitudeDegrees>
            </Position>
            <AltitudeMeters>57</AltitudeMeters>
            <DistanceMeters>NAN</DistanceMeters>
          </Trackpoint>
          <Trackpoint>
            <Time>2022-07-05T15:36:26.000Z</Time>
            <Position>
              <LatitudeDegrees>44.30801698006689548492431640625</LatitudeDegrees>
              <LongitudeDegrees>-1.10071144066751003265380859375</LongitudeDegrees>
            </Position>
            <AltitudeMeters>57</AltitudeMeters>
            <DistanceMeters>NAN</DistanceMeters>
          </Trackpoint>
          <Trackpoint>
            <Time>2022-07-05T15:36:28.000Z</Time>
            <Position>
              <LatitudeDegrees>44.3079966120421886444091796875</LatitudeDegrees>
              <LongitudeDegrees>-1.10064622946083545684814453125</LongitudeDegrees>
            </Position>
            <AltitudeMeters>57.200000762939453125</AltitudeMeters>
            <DistanceMeters>NAN</DistanceMeters>
          </Trackpoint>
          <Trackpoint>
            <Time>2022-07-05T15:36:33.000Z</Time>
            <Position>
              <LatitudeDegrees>44.3079825304448604583740234375</LatitudeDegrees>
              <LongitudeDegrees>-1.100594513118267059326171875</LongitudeDegrees>
            </Position>
            <AltitudeMeters>57</AltitudeMeters>
            <DistanceMeters>NAN</DistanceMeters>
          </Trackpoint>
          <Trackpoint>
            <Time>2022-07-05T15:36:34.000Z</Time>
            <Position>
              <LatitudeDegrees>44.3079825304448604583740234375</LatitudeDegrees>
              <LongitudeDegrees>-1.100594513118267059326171875</LongitudeDegrees>
            </Position>
            <AltitudeMeters>57</AltitudeMeters>
            <DistanceMeters>NAN</DistanceMeters>
          </Trackpoint>
          <Trackpoint>
            <Time>2022-07-05T15:37:20.000Z</Time>
            <Position>
              <LatitudeDegrees>44.30795495398342609405517578125</LatitudeDegrees>
              <LongitudeDegrees>-1.10051580704748630523681640625</LongitudeDegrees>
            </Position>
            <AltitudeMeters>57.40000152587890625</AltitudeMeters>
            <DistanceMeters>NAN</DistanceMeters>
          </Trackpoint>
          <Trackpoint>
            <Time>2022-07-05T15:37:21.000Z</Time>
            <Position>
              <LatitudeDegrees>44.30794355459511280059814453125</LatitudeDegrees>
              <LongitudeDegrees>-1.1004806868731975555419921875</LongitudeDegrees>
            </Position>
            <AltitudeMeters>57.40000152587890625</AltitudeMeters>
            <DistanceMeters>NAN</DistanceMeters>
          </Trackpoint>
          <Trackpoint>
            <Time>2022-07-05T15:37:22.000Z</Time>
            <Position>
              <LatitudeDegrees>44.30793307721614837646484375</LatitudeDegrees>
              <LongitudeDegrees>-1.10044623725116252899169921875</LongitudeDegrees>
            </Position>
            <AltitudeMeters>57.40000152587890625</AltitudeMeters>
            <DistanceMeters>NAN</DistanceMeters>
          </Trackpoint>
          <Trackpoint>
            <Time>2022-07-05T15:37:24.000Z</Time>
            <Position>
              <LatitudeDegrees>44.3079060874879360198974609375</LatitudeDegrees>
              <LongitudeDegrees>-1.10037557780742645263671875</LongitudeDegrees>
            </Position>
            <AltitudeMeters>57.40000152587890625</AltitudeMeters>
            <DistanceMeters>NAN</DistanceMeters>
          </Trackpoint>
          <Trackpoint>
            <Time>2022-07-05T15:37:29.000Z</Time>
            <Position>
              <LatitudeDegrees>44.3078465759754180908203125</LatitudeDegrees>
              <LongitudeDegrees>-1.100191511213779449462890625</LongitudeDegrees>
            </Position>
            <AltitudeMeters>57.40000152587890625</AltitudeMeters>
            <DistanceMeters>NAN</DistanceMeters>
          </Trackpoint>
          <Trackpoint>
            <Time>2022-07-05T15:37:34.000Z</Time>
            <Position>
              <LatitudeDegrees>44.30780307389795780181884765625</LatitudeDegrees>
              <LongitudeDegrees>-1.1000294052064418792724609375</LongitudeDegrees>
            </Position>
            <AltitudeMeters>57.40000152587890625</AltitudeMeters>
            <DistanceMeters>NAN</DistanceMeters>
          </Trackpoint>
          <Trackpoint>
            <Time>2022-07-05T15:37:41.000Z</Time>
            <Position>
              <LatitudeDegrees>44.3077434785664081573486328125</LatitudeDegrees>
              <LongitudeDegrees>-1.0998158343136310577392578125</LongitudeDegrees>
            </Position>
            <AltitudeMeters>57.40000152587890625</AltitudeMeters>
            <DistanceMeters>NAN</DistanceMeters>
          </Trackpoint>
          <Trackpoint>
            <Time>2022-07-05T15:37:43.000Z</Time>
            <Position>
              <LatitudeDegrees>44.3077347613871097564697265625</LatitudeDegrees>
              <LongitudeDegrees>-1.09973075799643993377685546875</LongitudeDegrees>
            </Position>
            <AltitudeMeters>57.40000152587890625</AltitudeMeters>
            <DistanceMeters>NAN</DistanceMeters>
          </Trackpoint>
          <Trackpoint>
            <Time>2022-07-05T15:37:45.000Z</Time>
            <Position>
              <LatitudeDegrees>44.30770031176507472991943359375</LatitudeDegrees>
              <LongitudeDegrees>-1.0996223799884319305419921875</LongitudeDegrees>
            </Position>
            <AltitudeMeters>57.40000152587890625</AltitudeMeters>
            <DistanceMeters>NAN</DistanceMeters>
          </Trackpoint>
          <Trackpoint>
            <Time>2022-07-05T15:37:53.000Z</Time>
            <Position>
              <LatitudeDegrees>44.30755781941115856170654296875</LatitudeDegrees>
              <LongitudeDegrees>-1.099361367523670196533203125</LongitudeDegrees>
            </Position>
            <AltitudeMeters>57.40000152587890625</AltitudeMeters>
            <DistanceMeters>NAN</DistanceMeters>
          </Trackpoint>
          <Trackpoint>
            <Time>2022-07-05T15:37:58.000Z</Time>
            <Position>
              <LatitudeDegrees>44.30753217078745365142822265625</LatitudeDegrees>
              <LongitudeDegrees>-1.0992327891290187835693359375</LongitudeDegrees>
            </Position>
            <AltitudeMeters>57.59999847412109375</AltitudeMeters>
            <DistanceMeters>NAN</DistanceMeters>
          </Trackpoint>
          <Trackpoint>
            <Time>2022-07-05T15:38:00.000Z</Time>
            <Position>
              <LatitudeDegrees>44.30751155130565166473388671875</LatitudeDegrees>
              <LongitudeDegrees>-1.09918928705155849456787109375</LongitudeDegrees>
            </Position>
            <AltitudeMeters>57.59999847412109375</AltitudeMeters>
            <DistanceMeters>NAN</DistanceMeters>
          </Trackpoint>
          <Trackpoint>
            <Time>2022-07-05T15:38:04.000Z</Time>
            <Position>
              <LatitudeDegrees>44.307488501071929931640625</LatitudeDegrees>
              <LongitudeDegrees>-1.09906925819814205169677734375</LongitudeDegrees>
            </Position>
            <AltitudeMeters>57.799999237060546875</AltitudeMeters>
            <DistanceMeters>NAN</DistanceMeters>
          </Trackpoint>
          <Trackpoint>
            <Time>2022-07-05T15:38:05.000Z</Time>
            <Position>
              <LatitudeDegrees>44.3074796162545680999755859375</LatitudeDegrees>
              <LongitudeDegrees>-1.099029444158077239990234375</LongitudeDegrees>
            </Position>
            <AltitudeMeters>57.799999237060546875</AltitudeMeters>
            <DistanceMeters>NAN</DistanceMeters>
          </Trackpoint>
          <Trackpoint>
            <Time>2022-07-05T15:38:08.000Z</Time>
            <Position>
              <LatitudeDegrees>44.30745472200214862823486328125</LatitudeDegrees>
              <LongitudeDegrees>-1.09892710112035274505615234375</LongitudeDegrees>
            </Position>
            <AltitudeMeters>57.799999237060546875</AltitudeMeters>
            <DistanceMeters>NAN</DistanceMeters>
          </Trackpoint>
          <Trackpoint>
            <Time>2022-07-05T15:38:10.000Z</Time>
            <Position>
              <LatitudeDegrees>44.30744030512869358062744140625</LatitudeDegrees>
              <LongitudeDegrees>-1.09885920770466327667236328125</LongitudeDegrees>
            </Position>
            <AltitudeMeters>57.799999237060546875</AltitudeMeters>
            <DistanceMeters>NAN</DistanceMeters>
          </Trackpoint>
          <Trackpoint>
            <Time>2022-07-05T15:38:14.000Z</Time>
            <Position>
              <LatitudeDegrees>44.30740660987794399261474609375</LatitudeDegrees>
              <LongitudeDegrees>-1.09877840615808963775634765625</LongitudeDegrees>
            </Position>
            <AltitudeMeters>57.59999847412109375</AltitudeMeters>
            <DistanceMeters>NAN</DistanceMeters>
          </Trackpoint>
          <Trackpoint>
            <Time>2022-07-05T15:38:16.000Z</Time>
            <Position>
              <LatitudeDegrees>44.307398311793804168701171875</LatitudeDegrees>
              <LongitudeDegrees>-1.0987583734095096588134765625</LongitudeDegrees>
            </Position>
            <AltitudeMeters>57.799999237060546875</AltitudeMeters>
            <DistanceMeters>NAN</DistanceMeters>
          </Trackpoint>
          <Trackpoint>
            <Time>2022-07-05T15:38:19.000Z</Time>
            <Position>
              <LatitudeDegrees>44.3073944561183452606201171875</LatitudeDegrees>
              <LongitudeDegrees>-1.09871721826493740081787109375</LongitudeDegrees>
            </Position>
            <AltitudeMeters>57.799999237060546875</AltitudeMeters>
            <DistanceMeters>NAN</DistanceMeters>
          </Trackpoint>
          <Trackpoint>
            <Time>2022-07-05T15:38:22.000Z</Time>
            <Position>
              <LatitudeDegrees>44.30737316608428955078125</LatitudeDegrees>
              <LongitudeDegrees>-1.098635494709014892578125</LongitudeDegrees>
            </Position>
            <AltitudeMeters>57.799999237060546875</AltitudeMeters>
            <DistanceMeters>NAN</DistanceMeters>
          </Trackpoint>
          <Trackpoint>
            <Time>2022-07-05T15:38:27.000Z</Time>
            <Position>
              <LatitudeDegrees>44.3073468469083309173583984375</LatitudeDegrees>
              <LongitudeDegrees>-1.09850783832371234893798828125</LongitudeDegrees>
            </Position>
            <AltitudeMeters>57.799999237060546875</AltitudeMeters>
            <DistanceMeters>NAN</DistanceMeters>
          </Trackpoint>
          <Trackpoint>
            <Time>2022-07-05T15:38:28.000Z</Time>
            <Position>
              <LatitudeDegrees>44.30733972229063510894775390625</LatitudeDegrees>
              <LongitudeDegrees>-1.098481602966785430908203125</LongitudeDegrees>
            </Position>
            <AltitudeMeters>57.799999237060546875</AltitudeMeters>
            <DistanceMeters>NAN</DistanceMeters>
          </Trackpoint>
          <Trackpoint>
            <Time>2022-07-05T15:38:36.000Z</Time>
            <Position>
              <LatitudeDegrees>44.30728264153003692626953125</LatitudeDegrees>
              <LongitudeDegrees>-1.09829108230769634246826171875</LongitudeDegrees>
            </Position>
            <AltitudeMeters>58.200000762939453125</AltitudeMeters>
            <DistanceMeters>NAN</DistanceMeters>
          </Trackpoint>
          <Trackpoint>
            <Time>2022-07-05T15:38:43.000Z</Time>
            <Position>
              <LatitudeDegrees>44.3072082102298736572265625</LatitudeDegrees>
              <LongitudeDegrees>-1.09810416586697101593017578125</LongitudeDegrees>
            </Position>
            <AltitudeMeters>58.40000152587890625</AltitudeMeters>
            <DistanceMeters>NAN</DistanceMeters>
          </Trackpoint>
          <Trackpoint>
            <Time>2022-07-05T15:38:49.000Z</Time>
            <Position>
              <LatitudeDegrees>44.30715389549732208251953125</LatitudeDegrees>
              <LongitudeDegrees>-1.09788246452808380126953125</LongitudeDegrees>
            </Position>
            <AltitudeMeters>58.59999847412109375</AltitudeMeters>
            <DistanceMeters>NAN</DistanceMeters>
          </Trackpoint>
          <Trackpoint>
            <Time>2022-07-05T15:38:56.000Z</Time>
            <Position>
              <LatitudeDegrees>44.3070477806031703948974609375</LatitudeDegrees>
              <LongitudeDegrees>-1.097678281366825103759765625</LongitudeDegrees>
            </Position>
            <AltitudeMeters>58.59999847412109375</AltitudeMeters>
            <DistanceMeters>NAN</DistanceMeters>
          </Trackpoint>
          <Trackpoint>
            <Time>2022-07-05T15:39:02.000Z</Time>
            <Position>
              <LatitudeDegrees>44.307017438113689422607421875</LatitudeDegrees>
              <LongitudeDegrees>-1.09751407988369464874267578125</LongitudeDegrees>
            </Position>
            <AltitudeMeters>58.59999847412109375</AltitudeMeters>
            <DistanceMeters>NAN</DistanceMeters>
          </Trackpoint>
          <Trackpoint>
            <Time>2022-07-05T15:39:07.000Z</Time>
            <Position>
              <LatitudeDegrees>44.30696882307529449462890625</LatitudeDegrees>
              <LongitudeDegrees>-1.09738650731742382049560546875</LongitudeDegrees>
            </Position>
            <AltitudeMeters>58.799999237060546875</AltitudeMeters>
            <DistanceMeters>NAN</DistanceMeters>
          </Trackpoint>
          <Trackpoint>
            <Time>2022-07-05T15:39:09.000Z</Time>
            <Position>
              <LatitudeDegrees>44.30694200098514556884765625</LatitudeDegrees>
              <LongitudeDegrees>-1.0973413288593292236328125</LongitudeDegrees>
            </Position>
            <AltitudeMeters>58.799999237060546875</AltitudeMeters>
            <DistanceMeters>NAN</DistanceMeters>
          </Trackpoint>
          <Trackpoint>
            <Time>2022-07-05T15:39:12.000Z</Time>
            <Position>
              <LatitudeDegrees>44.30691995657980442047119140625</LatitudeDegrees>
              <LongitudeDegrees>-1.0972342081367969512939453125</LongitudeDegrees>
            </Position>
            <AltitudeMeters>58.799999237060546875</AltitudeMeters>
            <DistanceMeters>NAN</DistanceMeters>
          </Trackpoint>
          <Trackpoint>
            <Time>2022-07-05T15:39:15.000Z</Time>
            <Position>
              <LatitudeDegrees>44.30689799599349498748779296875</LatitudeDegrees>
              <LongitudeDegrees>-1.09714913181960582733154296875</LongitudeDegrees>
            </Position>
            <AltitudeMeters>58.799999237060546875</AltitudeMeters>
            <DistanceMeters>NAN</DistanceMeters>
          </Trackpoint>
          <Trackpoint>
            <Time>2022-07-05T15:39:18.000Z</Time>
            <Position>
              <LatitudeDegrees>44.30685742758214473724365234375</LatitudeDegrees>
              <LongitudeDegrees>-1.0970588587224483489990234375</LongitudeDegrees>
            </Position>
            <AltitudeMeters>58.799999237060546875</AltitudeMeters>
            <DistanceMeters>NAN</DistanceMeters>
          </Trackpoint>
          <Trackpoint>
            <Time>2022-07-05T15:39:24.000Z</Time>
            <Position>
              <LatitudeDegrees>44.306823313236236572265625</LatitudeDegrees>
              <LongitudeDegrees>-1.096839420497417449951171875</LongitudeDegrees>
            </Position>
            <AltitudeMeters>59</AltitudeMeters>
            <DistanceMeters>NAN</DistanceMeters>
          </Trackpoint>
          <Trackpoint>
            <Time>2022-07-05T15:39:33.000Z</Time>
            <Position>
              <LatitudeDegrees>44.30672633461654186248779296875</LatitudeDegrees>
              <LongitudeDegrees>-1.0965861193835735321044921875</LongitudeDegrees>
            </Position>
            <AltitudeMeters>59</AltitudeMeters>
            <DistanceMeters>NAN</DistanceMeters>
          </Trackpoint>
          <Trackpoint>
            <Time>2022-07-05T15:39:37.000Z</Time>
            <Position>
              <LatitudeDegrees>44.30668761022388935089111328125</LatitudeDegrees>
              <LongitudeDegrees>-1.0964763164520263671875</LongitudeDegrees>
            </Position>
            <AltitudeMeters>59</AltitudeMeters>
            <DistanceMeters>NAN</DistanceMeters>
          </Trackpoint>
          <Trackpoint>
            <Time>2022-07-05T15:39:39.000Z</Time>
            <Position>
              <LatitudeDegrees>44.3066679127514362335205078125</LatitudeDegrees>
              <LongitudeDegrees>-1.096432395279407501220703125</LongitudeDegrees>
            </Position>
            <AltitudeMeters>59</AltitudeMeters>
            <DistanceMeters>NAN</DistanceMeters>
          </Trackpoint>
          <Trackpoint>
            <Time>2022-07-05T15:39:47.000Z</Time>
            <Position>
              <LatitudeDegrees>44.3065740354359149932861328125</LatitudeDegrees>
              <LongitudeDegrees>-1.09618487767875194549560546875</LongitudeDegrees>
            </Position>
            <AltitudeMeters>59.200000762939453125</AltitudeMeters>
            <DistanceMeters>NAN</DistanceMeters>
          </Trackpoint>
          <Trackpoint>
            <Time>2022-07-05T15:39:53.000Z</Time>
            <Position>
              <LatitudeDegrees>44.3065301142632961273193359375</LatitudeDegrees>
              <LongitudeDegrees>-1.0960565507411956787109375</LongitudeDegrees>
            </Position>
            <AltitudeMeters>59.200000762939453125</AltitudeMeters>
            <DistanceMeters>NAN</DistanceMeters>
          </Trackpoint>
          <Trackpoint>
            <Time>2022-07-05T15:40:01.000Z</Time>
            <Position>
              <LatitudeDegrees>44.30646968074142932891845703125</LatitudeDegrees>
              <LongitudeDegrees>-1.095831580460071563720703125</LongitudeDegrees>
            </Position>
            <AltitudeMeters>59.40000152587890625</AltitudeMeters>
            <DistanceMeters>NAN</DistanceMeters>
          </Trackpoint>
          <Trackpoint>
            <Time>2022-07-05T15:40:06.000Z</Time>
            <Position>
              <LatitudeDegrees>44.30645744316279888153076171875</LatitudeDegrees>
              <LongitudeDegrees>-1.095795370638370513916015625</LongitudeDegrees>
            </Position>
            <AltitudeMeters>59.40000152587890625</AltitudeMeters>
            <DistanceMeters>NAN</DistanceMeters>
          </Trackpoint>
          <Trackpoint>
            <Time>2022-07-05T15:40:07.000Z</Time>
            <Position>
              <LatitudeDegrees>44.30645744316279888153076171875</LatitudeDegrees>
              <LongitudeDegrees>-1.095795370638370513916015625</LongitudeDegrees>
            </Position>
            <AltitudeMeters>59.40000152587890625</AltitudeMeters>
            <DistanceMeters>NAN</DistanceMeters>
          </Trackpoint>
          <Trackpoint>
            <Time>2022-07-05T15:46:54.000Z</Time>
            <Position>
              <LatitudeDegrees>44.3064164556562900543212890625</LatitudeDegrees>
              <LongitudeDegrees>-1.09569302760064601898193359375</LongitudeDegrees>
            </Position>
            <AltitudeMeters>59</AltitudeMeters>
            <DistanceMeters>NAN</DistanceMeters>
          </Trackpoint>
          <Trackpoint>
            <Time>2022-07-05T15:46:55.000Z</Time>
            <Position>
              <LatitudeDegrees>44.306405894458293914794921875</LatitudeDegrees>
              <LongitudeDegrees>-1.09566067345440387725830078125</LongitudeDegrees>
            </Position>
            <AltitudeMeters>59</AltitudeMeters>
            <DistanceMeters>NAN</DistanceMeters>
          </Trackpoint>
          <Trackpoint>
            <Time>2022-07-05T15:46:56.000Z</Time>
            <Position>
              <LatitudeDegrees>44.30639575235545635223388671875</LatitudeDegrees>
              <LongitudeDegrees>-1.09563820995390415191650390625</LongitudeDegrees>
            </Position>
            <AltitudeMeters>59</AltitudeMeters>
            <DistanceMeters>NAN</DistanceMeters>
          </Trackpoint>
          <Trackpoint>
            <Time>2022-07-05T15:47:00.000Z</Time>
            <Position>
              <LatitudeDegrees>44.30636440403759479522705078125</LatitudeDegrees>
              <LongitudeDegrees>-1.095531843602657318115234375</LongitudeDegrees>
            </Position>
            <AltitudeMeters>59</AltitudeMeters>
            <DistanceMeters>NAN</DistanceMeters>
          </Trackpoint>
          <Trackpoint>
            <Time>2022-07-05T15:47:02.000Z</Time>
            <Position>
              <LatitudeDegrees>44.30634411983191967010498046875</LatitudeDegrees>
              <LongitudeDegrees>-1.0954867489635944366455078125</LongitudeDegrees>
            </Position>
            <AltitudeMeters>59</AltitudeMeters>
            <DistanceMeters>NAN</DistanceMeters>
          </Trackpoint>
          <Trackpoint>
            <Time>2022-07-05T15:47:05.000Z</Time>
            <Position>
              <LatitudeDegrees>44.3063413538038730621337890625</LatitudeDegrees>
              <LongitudeDegrees>-1.09548264183104038238525390625</LongitudeDegrees>
            </Position>
            <AltitudeMeters>59</AltitudeMeters>
            <DistanceMeters>NAN</DistanceMeters>
          </Trackpoint>
          <Trackpoint>
            <Time>2022-07-05T15:47:33.000Z</Time>
            <Position>
              <LatitudeDegrees>44.30631394498050212860107421875</LatitudeDegrees>
              <LongitudeDegrees>-1.09540452249348163604736328125</LongitudeDegrees>
            </Position>
            <AltitudeMeters>58.59999847412109375</AltitudeMeters>
            <DistanceMeters>NAN</DistanceMeters>
          </Trackpoint>
          <Trackpoint>
            <Time>2022-07-05T15:47:34.000Z</Time>
            <Position>
              <LatitudeDegrees>44.3063044734299182891845703125</LatitudeDegrees>
              <LongitudeDegrees>-1.095371581614017486572265625</LongitudeDegrees>
            </Position>
            <AltitudeMeters>58.59999847412109375</AltitudeMeters>
            <DistanceMeters>NAN</DistanceMeters>
          </Trackpoint>
          <Trackpoint>
            <Time>2022-07-05T15:47:39.000Z</Time>
            <Position>
              <LatitudeDegrees>44.3062749691307544708251953125</LatitudeDegrees>
              <LongitudeDegrees>-1.0952250659465789794921875</LongitudeDegrees>
            </Position>
            <AltitudeMeters>58.59999847412109375</AltitudeMeters>
            <DistanceMeters>NAN</DistanceMeters>
          </Trackpoint>
          <Trackpoint>
            <Time>2022-07-05T15:47:46.000Z</Time>
            <Position>
              <LatitudeDegrees>44.30621118284761905670166015625</LatitudeDegrees>
              <LongitudeDegrees>-1.0950485430657863616943359375</LongitudeDegrees>
            </Position>
            <AltitudeMeters>58.40000152587890625</AltitudeMeters>
            <DistanceMeters>NAN</DistanceMeters>
          </Trackpoint>
          <Trackpoint>
            <Time>2022-07-05T15:47:49.000Z</Time>
            <Position>
              <LatitudeDegrees>44.30621118284761905670166015625</LatitudeDegrees>
              <LongitudeDegrees>-1.0950485430657863616943359375</LongitudeDegrees>
            </Position>
            <AltitudeMeters>58.59999847412109375</AltitudeMeters>
            <DistanceMeters>NAN</DistanceMeters>
          </Trackpoint>
          <Trackpoint>
            <Time>2022-07-05T15:49:36.000Z</Time>
            <Position>
              <LatitudeDegrees>44.306179918348789215087890625</LatitudeDegrees>
              <LongitudeDegrees>-1.09496715478599071502685546875</LongitudeDegrees>
            </Position>
            <AltitudeMeters>58.59999847412109375</AltitudeMeters>
            <DistanceMeters>NAN</DistanceMeters>
          </Trackpoint>
          <Trackpoint>
            <Time>2022-07-05T15:49:45.000Z</Time>
            <Position>
              <LatitudeDegrees>44.30611378513276576995849609375</LatitudeDegrees>
              <LongitudeDegrees>-1.09477202408015727996826171875</LongitudeDegrees>
            </Position>
            <AltitudeMeters>58.799999237060546875</AltitudeMeters>
            <DistanceMeters>NAN</DistanceMeters>
          </Trackpoint>
          <Trackpoint>
            <Time>2022-07-05T15:49:50.000Z</Time>
            <Position>
              <LatitudeDegrees>44.3060774914920330047607421875</LatitudeDegrees>
              <LongitudeDegrees>-1.09465316869318485260009765625</LongitudeDegrees>
            </Position>
            <AltitudeMeters>59</AltitudeMeters>
            <DistanceMeters>NAN</DistanceMeters>
          </Trackpoint>
          <Trackpoint>
            <Time>2022-07-05T15:49:51.000Z</Time>
            <Position>
              <LatitudeDegrees>44.3060674332082271575927734375</LatitudeDegrees>
              <LongitudeDegrees>-1.09463875181972980499267578125</LongitudeDegrees>
            </Position>
            <AltitudeMeters>59</AltitudeMeters>
            <DistanceMeters>NAN</DistanceMeters>
          </Trackpoint>
          <Trackpoint>
            <Time>2022-07-05T15:49:52.000Z</Time>
            <Position>
              <LatitudeDegrees>44.30606550537049770355224609375</LatitudeDegrees>
              <LongitudeDegrees>-1.09463724307715892791748046875</LongitudeDegrees>
            </Position>
            <AltitudeMeters>59</AltitudeMeters>
            <DistanceMeters>NAN</DistanceMeters>
          </Trackpoint>
          <Trackpoint>
            <Time>2022-07-05T15:49:55.000Z</Time>
            <Position>
              <LatitudeDegrees>44.30606550537049770355224609375</LatitudeDegrees>
              <LongitudeDegrees>-1.09463724307715892791748046875</LongitudeDegrees>
            </Position>
            <AltitudeMeters>58.59999847412109375</AltitudeMeters>
            <DistanceMeters>NAN</DistanceMeters>
          </Trackpoint>
          <Trackpoint>
            <Time>2022-07-05T15:54:49.000Z</Time>
            <Position>
              <LatitudeDegrees>44.306027032434940338134765625</LatitudeDegrees>
              <LongitudeDegrees>-1.09451939351856708526611328125</LongitudeDegrees>
            </Position>
            <AltitudeMeters>59</AltitudeMeters>
            <DistanceMeters>NAN</DistanceMeters>
          </Trackpoint>
          <Trackpoint>
            <Time>2022-07-05T15:54:50.000Z</Time>
            <Position>
              <LatitudeDegrees>44.30602041073143482208251953125</LatitudeDegrees>
              <LongitudeDegrees>-1.0944993607699871063232421875</LongitudeDegrees>
            </Position>
            <AltitudeMeters>59</AltitudeMeters>
            <DistanceMeters>NAN</DistanceMeters>
          </Trackpoint>
          <Trackpoint>
            <Time>2022-07-05T15:54:53.000Z</Time>
            <Position>
              <LatitudeDegrees>44.30601471103727817535400390625</LatitudeDegrees>
              <LongitudeDegrees>-1.09448754228651523590087890625</LongitudeDegrees>
            </Position>
            <AltitudeMeters>59</AltitudeMeters>
            <DistanceMeters>NAN</DistanceMeters>
          </Trackpoint>
          <Trackpoint>
            <Time>2022-07-05T15:56:13.000Z</Time>
            <Position>
              <LatitudeDegrees>44.3059893138706684112548828125</LatitudeDegrees>
              <LongitudeDegrees>-1.09438880346715450286865234375</LongitudeDegrees>
            </Position>
            <AltitudeMeters>59</AltitudeMeters>
            <DistanceMeters>NAN</DistanceMeters>
          </Trackpoint>
          <Trackpoint>
            <Time>2022-07-05T15:56:14.000Z</Time>
            <Position>
              <LatitudeDegrees>44.30598068051040172576904296875</LatitudeDegrees>
              <LongitudeDegrees>-1.0943615622818470001220703125</LongitudeDegrees>
            </Position>
            <AltitudeMeters>59</AltitudeMeters>
            <DistanceMeters>NAN</DistanceMeters>
          </Trackpoint>
          <Trackpoint>
            <Time>2022-07-05T15:56:21.000Z</Time>
            <Position>
              <LatitudeDegrees>44.30591748096048831939697265625</LatitudeDegrees>
              <LongitudeDegrees>-1.09418638050556182861328125</LongitudeDegrees>
            </Position>
            <AltitudeMeters>59</AltitudeMeters>
            <DistanceMeters>NAN</DistanceMeters>
          </Trackpoint>
          <Trackpoint>
            <Time>2022-07-05T15:56:28.000Z</Time>
            <Position>
              <LatitudeDegrees>44.30589552037417888641357421875</LatitudeDegrees>
              <LongitudeDegrees>-1.094123683869838714599609375</LongitudeDegrees>
            </Position>
            <AltitudeMeters>59</AltitudeMeters>
            <DistanceMeters>NAN</DistanceMeters>
          </Trackpoint>
          <Trackpoint>
            <Time>2022-07-05T16:04:51.000Z</Time>
            <Position>
              <LatitudeDegrees>44.30583114735782146453857421875</LatitudeDegrees>
              <LongitudeDegrees>-1.09391019679605960845947265625</LongitudeDegrees>
            </Position>
            <AltitudeMeters>61.40000152587890625</AltitudeMeters>
            <DistanceMeters>NAN</DistanceMeters>
          </Trackpoint>
          <Trackpoint>
            <Time>2022-07-05T16:04:54.000Z</Time>
            <Position>
              <LatitudeDegrees>44.305803738534450531005859375</LatitudeDegrees>
              <LongitudeDegrees>-1.09383375383913516998291015625</LongitudeDegrees>
            </Position>
            <AltitudeMeters>61.40000152587890625</AltitudeMeters>
            <DistanceMeters>NAN</DistanceMeters>
          </Trackpoint>
          <Trackpoint>
            <Time>2022-07-05T16:05:01.000Z</Time>
            <Position>
              <LatitudeDegrees>44.30574095807969570159912109375</LatitudeDegrees>
              <LongitudeDegrees>-1.09366259537637233734130859375</LongitudeDegrees>
            </Position>
            <AltitudeMeters>61.59999847412109375</AltitudeMeters>
            <DistanceMeters>NAN</DistanceMeters>
          </Trackpoint>
          <Trackpoint>
            <Time>2022-07-05T16:05:02.000Z</Time>
            <Position>
              <LatitudeDegrees>44.3057371862232685089111328125</LatitudeDegrees>
              <LongitudeDegrees>-1.0936430655419826507568359375</LongitudeDegrees>
            </Position>
            <AltitudeMeters>61.40000152587890625</AltitudeMeters>
            <DistanceMeters>NAN</DistanceMeters>
          </Trackpoint>
          <Trackpoint>
            <Time>2022-07-05T16:05:05.000Z</Time>
            <Position>
              <LatitudeDegrees>44.305707849562168121337890625</LatitudeDegrees>
              <LongitudeDegrees>-1.09356704168021678924560546875</LongitudeDegrees>
            </Position>
            <AltitudeMeters>61.40000152587890625</AltitudeMeters>
            <DistanceMeters>NAN</DistanceMeters>
          </Trackpoint>
          <Trackpoint>
            <Time>2022-07-05T16:05:06.000Z</Time>
            <Position>
              <LatitudeDegrees>44.3057008087635040283203125</LatitudeDegrees>
              <LongitudeDegrees>-1.09353619627654552459716796875</LongitudeDegrees>
            </Position>
            <AltitudeMeters>61.40000152587890625</AltitudeMeters>
            <DistanceMeters>NAN</DistanceMeters>
          </Trackpoint>
          <Trackpoint>
            <Time>2022-07-05T16:05:09.000Z</Time>
            <Position>
              <LatitudeDegrees>44.30567407049238681793212890625</LatitudeDegrees>
              <LongitudeDegrees>-1.0934362001717090606689453125</LongitudeDegrees>
            </Position>
            <AltitudeMeters>61.40000152587890625</AltitudeMeters>
            <DistanceMeters>NAN</DistanceMeters>
          </Trackpoint>
          <Trackpoint>
            <Time>2022-07-05T16:05:15.000Z</Time>
            <Position>
              <LatitudeDegrees>44.3056310713291168212890625</LatitudeDegrees>
              <LongitudeDegrees>-1.09324383549392223358154296875</LongitudeDegrees>
            </Position>
            <AltitudeMeters>61.40000152587890625</AltitudeMeters>
            <DistanceMeters>NAN</DistanceMeters>
          </Trackpoint>
          <Trackpoint>
            <Time>2022-07-05T16:05:22.000Z</Time>
            <Position>
              <LatitudeDegrees>44.30558974854648113250732421875</LatitudeDegrees>
              <LongitudeDegrees>-1.0930449329316616058349609375</LongitudeDegrees>
            </Position>
            <AltitudeMeters>61.40000152587890625</AltitudeMeters>
            <DistanceMeters>NAN</DistanceMeters>
          </Trackpoint>
          <Trackpoint>
            <Time>2022-07-05T16:05:28.000Z</Time>
            <Position>
              <LatitudeDegrees>44.30553811602294445037841796875</LatitudeDegrees>
              <LongitudeDegrees>-1.09290805645287036895751953125</LongitudeDegrees>
            </Position>
            <AltitudeMeters>61.59999847412109375</AltitudeMeters>
            <DistanceMeters>NAN</DistanceMeters>
          </Trackpoint>
          <Trackpoint>
            <Time>2022-07-05T16:05:33.000Z</Time>
            <Position>
              <LatitudeDegrees>44.3055028282105922698974609375</LatitudeDegrees>
              <LongitudeDegrees>-1.0928055457770824432373046875</LongitudeDegrees>
            </Position>
            <AltitudeMeters>61.59999847412109375</AltitudeMeters>
            <DistanceMeters>NAN</DistanceMeters>
          </Trackpoint>
          <Trackpoint>
            <Time>2022-07-05T16:05:36.000Z</Time>
            <Position>
              <LatitudeDegrees>44.305476844310760498046875</LatitudeDegrees>
              <LongitudeDegrees>-1.092724911868572235107421875</LongitudeDegrees>
            </Position>
            <AltitudeMeters>61.59999847412109375</AltitudeMeters>
            <DistanceMeters>NAN</DistanceMeters>
          </Trackpoint>
          <Trackpoint>
            <Time>2022-07-05T16:05:40.000Z</Time>
            <Position>
              <LatitudeDegrees>44.30545044131577014923095703125</LatitudeDegrees>
              <LongitudeDegrees>-1.0926382429897785186767578125</LongitudeDegrees>
            </Position>
            <AltitudeMeters>61.59999847412109375</AltitudeMeters>
            <DistanceMeters>NAN</DistanceMeters>
          </Trackpoint>
          <Trackpoint>
            <Time>2022-07-05T16:05:48.000Z</Time>
            <Position>
              <LatitudeDegrees>44.3053827993571758270263671875</LatitudeDegrees>
              <LongitudeDegrees>-1.09243431128561496734619140625</LongitudeDegrees>
            </Position>
            <AltitudeMeters>61.40000152587890625</AltitudeMeters>
            <DistanceMeters>NAN</DistanceMeters>
          </Trackpoint>
          <Trackpoint>
            <Time>2022-07-05T16:05:49.000Z</Time>
            <Position>
              <LatitudeDegrees>44.30537835694849491119384765625</LatitudeDegrees>
              <LongitudeDegrees>-1.092421822249889373779296875</LongitudeDegrees>
            </Position>
            <AltitudeMeters>61.40000152587890625</AltitudeMeters>
            <DistanceMeters>NAN</DistanceMeters>
          </Trackpoint>
          <Trackpoint>
            <Time>2022-07-05T16:05:53.000Z</Time>
            <Position>
              <LatitudeDegrees>44.3053589947521686553955078125</LatitudeDegrees>
              <LongitudeDegrees>-1.09236180782318115234375</LongitudeDegrees>
            </Position>
            <AltitudeMeters>61.40000152587890625</AltitudeMeters>
            <DistanceMeters>NAN</DistanceMeters>
          </Trackpoint>
          <Trackpoint>
            <Time>2022-07-05T16:06:00.000Z</Time>
            <Position>
              <LatitudeDegrees>44.30531197227537631988525390625</LatitudeDegrees>
              <LongitudeDegrees>-1.09218101017177104949951171875</LongitudeDegrees>
            </Position>
            <AltitudeMeters>61.40000152587890625</AltitudeMeters>
            <DistanceMeters>NAN</DistanceMeters>
          </Trackpoint>
          <Trackpoint>
            <Time>2022-07-05T16:06:01.000Z</Time>
            <Position>
              <LatitudeDegrees>44.305307529866695404052734375</LatitudeDegrees>
              <LongitudeDegrees>-1.09216709621250629425048828125</LongitudeDegrees>
            </Position>
            <AltitudeMeters>61.40000152587890625</AltitudeMeters>
            <DistanceMeters>NAN</DistanceMeters>
          </Trackpoint>
          <Trackpoint>
            <Time>2022-07-05T16:06:04.000Z</Time>
            <Position>
              <LatitudeDegrees>44.30528397671878337860107421875</LatitudeDegrees>
              <LongitudeDegrees>-1.09214882366359233856201171875</LongitudeDegrees>
            </Position>
            <AltitudeMeters>61.59999847412109375</AltitudeMeters>
            <DistanceMeters>NAN</DistanceMeters>
          </Trackpoint>
          <Trackpoint>
            <Time>2022-07-05T16:06:07.000Z</Time>
            <Position>
              <LatitudeDegrees>44.3052745051681995391845703125</LatitudeDegrees>
              <LongitudeDegrees>-1.09210791997611522674560546875</LongitudeDegrees>
            </Position>
            <AltitudeMeters>61.59999847412109375</AltitudeMeters>
            <DistanceMeters>NAN</DistanceMeters>
          </Trackpoint>
          <Trackpoint>
            <Time>2022-07-05T16:06:10.000Z</Time>
            <Position>
              <LatitudeDegrees>44.30527375079691410064697265625</LatitudeDegrees>
              <LongitudeDegrees>-1.0921034775674343109130859375</LongitudeDegrees>
            </Position>
            <AltitudeMeters>61.40000152587890625</AltitudeMeters>
            <DistanceMeters>NAN</DistanceMeters>
          </Trackpoint>
          <Trackpoint>
            <Time>2022-07-05T16:06:39.000Z</Time>
            <Position>
              <LatitudeDegrees>44.3052636086940765380859375</LatitudeDegrees>
              <LongitudeDegrees>-1.09202695079147815704345703125</LongitudeDegrees>
            </Position>
            <AltitudeMeters>61.40000152587890625</AltitudeMeters>
            <DistanceMeters>NAN</DistanceMeters>
          </Trackpoint>
          <Trackpoint>
            <Time>2022-07-05T16:06:40.000Z</Time>
            <Position>
              <LatitudeDegrees>44.3052587471902370452880859375</LatitudeDegrees>
              <LongitudeDegrees>-1.09200247563421726226806640625</LongitudeDegrees>
            </Position>
            <AltitudeMeters>61.40000152587890625</AltitudeMeters>
            <DistanceMeters>NAN</DistanceMeters>
          </Trackpoint>
          <Trackpoint>
            <Time>2022-07-05T16:06:47.000Z</Time>
            <Position>
              <LatitudeDegrees>44.30521063506603240966796875</LatitudeDegrees>
              <LongitudeDegrees>-1.0918302275240421295166015625</LongitudeDegrees>
            </Position>
            <AltitudeMeters>61.799999237060546875</AltitudeMeters>
            <DistanceMeters>NAN</DistanceMeters>
          </Trackpoint>
          <Trackpoint>
            <Time>2022-07-05T16:06:55.000Z</Time>
            <Position>
              <LatitudeDegrees>44.3051286600530147552490234375</LatitudeDegrees>
              <LongitudeDegrees>-1.09164523892104625701904296875</LongitudeDegrees>
            </Position>
            <AltitudeMeters>61.799999237060546875</AltitudeMeters>
            <DistanceMeters>NAN</DistanceMeters>
          </Trackpoint>
          <Trackpoint>
            <Time>2022-07-05T16:06:57.000Z</Time>
            <Position>
              <LatitudeDegrees>44.30512824095785617828369140625</LatitudeDegrees>
              <LongitudeDegrees>-1.09160198830068111419677734375</LongitudeDegrees>
            </Position>
            <AltitudeMeters>61.59999847412109375</AltitudeMeters>
            <DistanceMeters>NAN</DistanceMeters>
          </Trackpoint>
          <Trackpoint>
            <Time>2022-07-05T16:06:59.000Z</Time>
            <Position>
              <LatitudeDegrees>44.305126480758190155029296875</LatitudeDegrees>
              <LongitudeDegrees>-1.091600395739078521728515625</LongitudeDegrees>
            </Position>
            <AltitudeMeters>61.59999847412109375</AltitudeMeters>
            <DistanceMeters>NAN</DistanceMeters>
          </Trackpoint>
          <Trackpoint>
            <Time>2022-07-05T16:09:00.000Z</Time>
            <Position>
              <LatitudeDegrees>44.3046740256249904632568359375</LatitudeDegrees>
              <LongitudeDegrees>-1.09142102301120758056640625</LongitudeDegrees>
            </Position>
            <AltitudeMeters>62</AltitudeMeters>
            <DistanceMeters>NAN</DistanceMeters>
          </Trackpoint>
          <Trackpoint>
            <Time>2022-07-05T16:09:01.000Z</Time>
            <Position>
              <LatitudeDegrees>44.30466287769377231597900390625</LatitudeDegrees>
              <LongitudeDegrees>-1.09142663888633251190185546875</LongitudeDegrees>
            </Position>
            <AltitudeMeters>61.799999237060546875</AltitudeMeters>
            <DistanceMeters>NAN</DistanceMeters>
          </Trackpoint>
          <Trackpoint>
            <Time>2022-07-05T16:09:03.000Z</Time>
            <Position>
              <LatitudeDegrees>44.30463488213717937469482421875</LatitudeDegrees>
              <LongitudeDegrees>-1.09144072048366069793701171875</LongitudeDegrees>
            </Position>
            <AltitudeMeters>61.799999237060546875</AltitudeMeters>
            <DistanceMeters>NAN</DistanceMeters>
          </Trackpoint>
          <Trackpoint>
            <Time>2022-07-05T16:09:12.000Z</Time>
            <Position>
              <LatitudeDegrees>44.30453027598559856414794921875</LatitudeDegrees>
              <LongitudeDegrees>-1.09151733107864856719970703125</LongitudeDegrees>
            </Position>
            <AltitudeMeters>62</AltitudeMeters>
            <DistanceMeters>NAN</DistanceMeters>
          </Trackpoint>
          <Trackpoint>
            <Time>2022-07-05T16:09:16.000Z</Time>
            <Position>
              <LatitudeDegrees>44.30449255742132663726806640625</LatitudeDegrees>
              <LongitudeDegrees>-1.0915428958833217620849609375</LongitudeDegrees>
            </Position>
            <AltitudeMeters>62</AltitudeMeters>
            <DistanceMeters>NAN</DistanceMeters>
          </Trackpoint>
          <Trackpoint>
            <Time>2022-07-05T16:09:18.000Z</Time>
            <Position>
              <LatitudeDegrees>44.30448786355555057525634765625</LatitudeDegrees>
              <LongitudeDegrees>-1.09154733829200267791748046875</LongitudeDegrees>
            </Position>
            <AltitudeMeters>62</AltitudeMeters>
            <DistanceMeters>NAN</DistanceMeters>
          </Trackpoint>
          <Trackpoint>
            <Time>2022-07-05T16:09:19.000Z</Time>
            <Position>
              <LatitudeDegrees>44.3044866062700748443603515625</LatitudeDegrees>
              <LongitudeDegrees>-1.0915492661297321319580078125</LongitudeDegrees>
            </Position>
            <AltitudeMeters>62</AltitudeMeters>
            <DistanceMeters>NAN</DistanceMeters>
          </Trackpoint>
          <Trackpoint>
            <Time>2022-07-05T16:09:28.000Z</Time>
            <Position>
              <LatitudeDegrees>44.30436833761632442474365234375</LatitudeDegrees>
              <LongitudeDegrees>-1.0916253738105297088623046875</LongitudeDegrees>
            </Position>
            <AltitudeMeters>61.59999847412109375</AltitudeMeters>
            <DistanceMeters>NAN</DistanceMeters>
          </Trackpoint>
          <Trackpoint>
            <Time>2022-07-05T16:09:30.000Z</Time>
            <Position>
              <LatitudeDegrees>44.3043377436697483062744140625</LatitudeDegrees>
              <LongitudeDegrees>-1.09165571630001068115234375</LongitudeDegrees>
            </Position>
            <AltitudeMeters>61.799999237060546875</AltitudeMeters>
            <DistanceMeters>NAN</DistanceMeters>
          </Trackpoint>
          <Trackpoint>
            <Time>2022-07-05T16:09:34.000Z</Time>
            <Position>
              <LatitudeDegrees>44.30427244864404201507568359375</LatitudeDegrees>
              <LongitudeDegrees>-1.091703660786151885986328125</LongitudeDegrees>
            </Position>
            <AltitudeMeters>61.59999847412109375</AltitudeMeters>
            <DistanceMeters>NAN</DistanceMeters>
          </Trackpoint>
          <Trackpoint>
            <Time>2022-07-05T16:09:37.000Z</Time>
            <Position>
              <LatitudeDegrees>44.3042577803134918212890625</LatitudeDegrees>
              <LongitudeDegrees>-1.09172738157212734222412109375</LongitudeDegrees>
            </Position>
            <AltitudeMeters>61.799999237060546875</AltitudeMeters>
            <DistanceMeters>NAN</DistanceMeters>
          </Trackpoint>
          <Trackpoint>
            <Time>2022-07-05T16:09:39.000Z</Time>
            <Position>
              <LatitudeDegrees>44.3042577803134918212890625</LatitudeDegrees>
              <LongitudeDegrees>-1.09172738157212734222412109375</LongitudeDegrees>
            </Position>
            <AltitudeMeters>61.799999237060546875</AltitudeMeters>
            <DistanceMeters>NAN</DistanceMeters>
          </Trackpoint>
          <Trackpoint>
            <Time>2022-07-05T16:09:43.000Z</Time>
            <Position>
              <LatitudeDegrees>44.30423372425138950347900390625</LatitudeDegrees>
              <LongitudeDegrees>-1.09176375903189182281494140625</LongitudeDegrees>
            </Position>
            <AltitudeMeters>61.59999847412109375</AltitudeMeters>
            <DistanceMeters>NAN</DistanceMeters>
          </Trackpoint>
          <Trackpoint>
            <Time>2022-07-05T16:09:46.000Z</Time>
            <Position>
              <LatitudeDegrees>44.3042012862861156463623046875</LatitudeDegrees>
              <LongitudeDegrees>-1.091796196997165679931640625</LongitudeDegrees>
            </Position>
            <AltitudeMeters>61.59999847412109375</AltitudeMeters>
            <DistanceMeters>NAN</DistanceMeters>
          </Trackpoint>
          <Trackpoint>
            <Time>2022-07-05T16:09:55.000Z</Time>
            <Position>
              <LatitudeDegrees>44.30410514585673809051513671875</LatitudeDegrees>
              <LongitudeDegrees>-1.09188973903656005859375</LongitudeDegrees>
            </Position>
            <AltitudeMeters>61.59999847412109375</AltitudeMeters>
            <DistanceMeters>NAN</DistanceMeters>
          </Trackpoint>
          <Trackpoint>
            <Time>2022-07-05T16:10:01.000Z</Time>
            <Position>
              <LatitudeDegrees>44.304044209420680999755859375</LatitudeDegrees>
              <LongitudeDegrees>-1.0919418744742870330810546875</LongitudeDegrees>
            </Position>
            <AltitudeMeters>61.40000152587890625</AltitudeMeters>
            <DistanceMeters>NAN</DistanceMeters>
          </Trackpoint>
          <Trackpoint>
            <Time>2022-07-05T16:10:07.000Z</Time>
            <Position>
              <LatitudeDegrees>44.3040031380951404571533203125</LatitudeDegrees>
              <LongitudeDegrees>-1.09197582118213176727294921875</LongitudeDegrees>
            </Position>
            <AltitudeMeters>61.40000152587890625</AltitudeMeters>
            <DistanceMeters>NAN</DistanceMeters>
          </Trackpoint>
          <Trackpoint>
            <Time>2022-07-05T16:10:09.000Z</Time>
            <Position>
              <LatitudeDegrees>44.3040014617145061492919921875</LatitudeDegrees>
              <LongitudeDegrees>-1.091975234448909759521484375</LongitudeDegrees>
            </Position>
            <AltitudeMeters>61.40000152587890625</AltitudeMeters>
            <DistanceMeters>NAN</DistanceMeters>
          </Trackpoint>
          <Trackpoint>
            <Time>2022-07-05T16:11:58.000Z</Time>
            <Position>
              <LatitudeDegrees>44.3038847856223583221435546875</LatitudeDegrees>
              <LongitudeDegrees>-1.091865934431552886962890625</LongitudeDegrees>
            </Position>
            <AltitudeMeters>61</AltitudeMeters>
            <DistanceMeters>NAN</DistanceMeters>
          </Trackpoint>
          <Trackpoint>
            <Time>2022-07-05T16:11:59.000Z</Time>
            <Position>
              <LatitudeDegrees>44.30386559106409549713134765625</LatitudeDegrees>
              <LongitudeDegrees>-1.09184321947395801544189453125</LongitudeDegrees>
            </Position>
            <AltitudeMeters>61</AltitudeMeters>
            <DistanceMeters>NAN</DistanceMeters>
          </Trackpoint>
          <Trackpoint>
            <Time>2022-07-05T16:12:04.000Z</Time>
            <Position>
              <LatitudeDegrees>44.30376701988279819488525390625</LatitudeDegrees>
              <LongitudeDegrees>-1.0917247831821441650390625</LongitudeDegrees>
            </Position>
            <AltitudeMeters>61</AltitudeMeters>
            <DistanceMeters>NAN</DistanceMeters>
          </Trackpoint>
          <Trackpoint>
            <Time>2022-07-05T16:12:06.000Z</Time>
            <Position>
              <LatitudeDegrees>44.30373550392687320709228515625</LatitudeDegrees>
              <LongitudeDegrees>-1.09168463386595249176025390625</LongitudeDegrees>
            </Position>
            <AltitudeMeters>61.200000762939453125</AltitudeMeters>
            <DistanceMeters>NAN</DistanceMeters>
          </Trackpoint>
          <Trackpoint>
            <Time>2022-07-05T16:12:11.000Z</Time>
            <Position>
              <LatitudeDegrees>44.30364598520100116729736328125</LatitudeDegrees>
              <LongitudeDegrees>-1.09157332219183444976806640625</LongitudeDegrees>
            </Position>
            <AltitudeMeters>61.200000762939453125</AltitudeMeters>
            <DistanceMeters>NAN</DistanceMeters>
          </Trackpoint>
          <Trackpoint>
            <Time>2022-07-05T16:12:17.000Z</Time>
            <Position>
              <LatitudeDegrees>44.30355076678097248077392578125</LatitudeDegrees>
              <LongitudeDegrees>-1.09145295806229114532470703125</LongitudeDegrees>
            </Position>
            <AltitudeMeters>61</AltitudeMeters>
            <DistanceMeters>NAN</DistanceMeters>
          </Trackpoint>
          <Trackpoint>
            <Time>2022-07-05T16:12:19.000Z</Time>
            <Position>
              <LatitudeDegrees>44.30351874791085720062255859375</LatitudeDegrees>
              <LongitudeDegrees>-1.0913983918726444244384765625</LongitudeDegrees>
            </Position>
            <AltitudeMeters>61</AltitudeMeters>
            <DistanceMeters>NAN</DistanceMeters>
          </Trackpoint>
          <Trackpoint>
            <Time>2022-07-05T16:12:29.000Z</Time>
            <Position>
              <LatitudeDegrees>44.303373992443084716796875</LatitudeDegrees>
              <LongitudeDegrees>-1.09120015986263751983642578125</LongitudeDegrees>
            </Position>
            <AltitudeMeters>61.40000152587890625</AltitudeMeters>
            <DistanceMeters>NAN</DistanceMeters>
          </Trackpoint>
          <Trackpoint>
            <Time>2022-07-05T16:12:32.000Z</Time>
            <Position>
              <LatitudeDegrees>44.30331925861537456512451171875</LatitudeDegrees>
              <LongitudeDegrees>-1.09114986844360828399658203125</LongitudeDegrees>
            </Position>
            <AltitudeMeters>61.59999847412109375</AltitudeMeters>
            <DistanceMeters>NAN</DistanceMeters>
          </Trackpoint>
          <Trackpoint>
            <Time>2022-07-05T16:12:34.000Z</Time>
            <Position>
              <LatitudeDegrees>44.30328707210719585418701171875</LatitudeDegrees>
              <LongitudeDegrees>-1.09110678546130657196044921875</LongitudeDegrees>
            </Position>
            <AltitudeMeters>61.59999847412109375</AltitudeMeters>
            <DistanceMeters>NAN</DistanceMeters>
          </Trackpoint>
          <Trackpoint>
            <Time>2022-07-05T16:12:36.000Z</Time>
            <Position>
              <LatitudeDegrees>44.303257651627063751220703125</LatitudeDegrees>
              <LongitudeDegrees>-1.09106655232608318328857421875</LongitudeDegrees>
            </Position>
            <AltitudeMeters>61.59999847412109375</AltitudeMeters>
            <DistanceMeters>NAN</DistanceMeters>
          </Trackpoint>
          <Trackpoint>
            <Time>2022-07-05T16:12:40.000Z</Time>
            <Position>
              <LatitudeDegrees>44.30318699218332767486572265625</LatitudeDegrees>
              <LongitudeDegrees>-1.09098994173109531402587890625</LongitudeDegrees>
            </Position>
            <AltitudeMeters>61.59999847412109375</AltitudeMeters>
            <DistanceMeters>NAN</DistanceMeters>
          </Trackpoint>
          <Trackpoint>
            <Time>2022-07-05T16:12:42.000Z</Time>
            <Position>
              <LatitudeDegrees>44.30314558558166027069091796875</LatitudeDegrees>
              <LongitudeDegrees>-1.090957336127758026123046875</LongitudeDegrees>
            </Position>
            <AltitudeMeters>61.59999847412109375</AltitudeMeters>
            <DistanceMeters>NAN</DistanceMeters>
          </Trackpoint>
          <Trackpoint>
            <Time>2022-07-05T16:12:44.000Z</Time>
            <Position>
              <LatitudeDegrees>44.30311054922640323638916015625</LatitudeDegrees>
              <LongitudeDegrees>-1.09092481434345245361328125</LongitudeDegrees>
            </Position>
            <AltitudeMeters>61.59999847412109375</AltitudeMeters>
            <DistanceMeters>NAN</DistanceMeters>
          </Trackpoint>
          <Trackpoint>
            <Time>2022-07-05T16:12:45.000Z</Time>
            <Position>
              <LatitudeDegrees>44.30309705436229705810546875</LatitudeDegrees>
              <LongitudeDegrees>-1.09090737998485565185546875</LongitudeDegrees>
            </Position>
            <AltitudeMeters>61.59999847412109375</AltitudeMeters>
            <DistanceMeters>NAN</DistanceMeters>
          </Trackpoint>
          <Trackpoint>
            <Time>2022-07-05T16:12:47.000Z</Time>
            <Position>
              <LatitudeDegrees>44.30306294001638889312744140625</LatitudeDegrees>
              <LongitudeDegrees>-1.090859435498714447021484375</LongitudeDegrees>
            </Position>
            <AltitudeMeters>61.59999847412109375</AltitudeMeters>
            <DistanceMeters>NAN</DistanceMeters>
          </Trackpoint>
          <Trackpoint>
            <Time>2022-07-05T16:12:49.000Z</Time>
            <Position>
              <LatitudeDegrees>44.3030174262821674346923828125</LatitudeDegrees>
              <LongitudeDegrees>-1.0908197052776813507080078125</LongitudeDegrees>
            </Position>
            <AltitudeMeters>61.59999847412109375</AltitudeMeters>
            <DistanceMeters>NAN</DistanceMeters>
          </Trackpoint>
          <Trackpoint>
            <Time>2022-07-05T16:12:50.000Z</Time>
            <Position>
              <LatitudeDegrees>44.303001500666141510009765625</LatitudeDegrees>
              <LongitudeDegrees>-1.09079950489103794097900390625</LongitudeDegrees>
            </Position>
            <AltitudeMeters>61.59999847412109375</AltitudeMeters>
            <DistanceMeters>NAN</DistanceMeters>
          </Trackpoint>
          <Trackpoint>
            <Time>2022-07-05T16:12:56.000Z</Time>
            <Position>
              <LatitudeDegrees>44.30291793309152126312255859375</LatitudeDegrees>
              <LongitudeDegrees>-1.0906849242746829986572265625</LongitudeDegrees>
            </Position>
            <AltitudeMeters>61.59999847412109375</AltitudeMeters>
            <DistanceMeters>NAN</DistanceMeters>
          </Trackpoint>
          <Trackpoint>
            <Time>2022-07-05T16:12:57.000Z</Time>
            <Position>
              <LatitudeDegrees>44.30290083400905132293701171875</LatitudeDegrees>
              <LongitudeDegrees>-1.09066187404096126556396484375</LongitudeDegrees>
            </Position>
            <AltitudeMeters>61.59999847412109375</AltitudeMeters>
            <DistanceMeters>NAN</DistanceMeters>
          </Trackpoint>
          <Trackpoint>
            <Time>2022-07-05T16:13:03.000Z</Time>
            <Position>
              <LatitudeDegrees>44.30278181098401546478271484375</LatitudeDegrees>
              <LongitudeDegrees>-1.09054452739655971527099609375</LongitudeDegrees>
            </Position>
            <AltitudeMeters>61.59999847412109375</AltitudeMeters>
            <DistanceMeters>NAN</DistanceMeters>
          </Trackpoint>
          <Trackpoint>
            <Time>2022-07-05T16:13:10.000Z</Time>
            <Position>
              <LatitudeDegrees>44.302680976688861846923828125</LatitudeDegrees>
              <LongitudeDegrees>-1.09043589793145656585693359375</LongitudeDegrees>
            </Position>
            <AltitudeMeters>61.799999237060546875</AltitudeMeters>
            <DistanceMeters>NAN</DistanceMeters>
          </Trackpoint>
          <Trackpoint>
            <Time>2022-07-05T16:13:16.000Z</Time>
            <Position>
              <LatitudeDegrees>44.3025688268244266510009765625</LatitudeDegrees>
              <LongitudeDegrees>-1.090278066694736480712890625</LongitudeDegrees>
            </Position>
            <AltitudeMeters>61.799999237060546875</AltitudeMeters>
            <DistanceMeters>NAN</DistanceMeters>
          </Trackpoint>
          <Trackpoint>
            <Time>2022-07-05T16:13:20.000Z</Time>
            <Position>
              <LatitudeDegrees>44.30251861922442913055419921875</LatitudeDegrees>
              <LongitudeDegrees>-1.09023087657988071441650390625</LongitudeDegrees>
            </Position>
            <AltitudeMeters>61.799999237060546875</AltitudeMeters>
            <DistanceMeters>NAN</DistanceMeters>
          </Trackpoint>
          <Trackpoint>
            <Time>2022-07-05T16:13:22.000Z</Time>
            <Position>
              <LatitudeDegrees>44.30251367390155792236328125</LatitudeDegrees>
              <LongitudeDegrees>-1.09023288823664188385009765625</LongitudeDegrees>
            </Position>
            <AltitudeMeters>61.59999847412109375</AltitudeMeters>
            <DistanceMeters>NAN</DistanceMeters>
          </Trackpoint>
          <Trackpoint>
            <Time>2022-07-05T16:13:24.000Z</Time>
            <Position>
              <LatitudeDegrees>44.30249934084713459014892578125</LatitudeDegrees>
              <LongitudeDegrees>-1.09020690433681011199951171875</LongitudeDegrees>
            </Position>
            <AltitudeMeters>61.59999847412109375</AltitudeMeters>
            <DistanceMeters>NAN</DistanceMeters>
          </Trackpoint>
          <Trackpoint>
            <Time>2022-07-05T16:13:27.000Z</Time>
            <Position>
              <LatitudeDegrees>44.30245089344680309295654296875</LatitudeDegrees>
              <LongitudeDegrees>-1.0901716165244579315185546875</LongitudeDegrees>
            </Position>
            <AltitudeMeters>61.59999847412109375</AltitudeMeters>
            <DistanceMeters>NAN</DistanceMeters>
          </Trackpoint>
          <Trackpoint>
            <Time>2022-07-05T16:13:32.000Z</Time>
            <Position>
              <LatitudeDegrees>44.3023787252604961395263671875</LatitudeDegrees>
              <LongitudeDegrees>-1.0900717042386531829833984375</LongitudeDegrees>
            </Position>
            <AltitudeMeters>61.799999237060546875</AltitudeMeters>
            <DistanceMeters>NAN</DistanceMeters>
          </Trackpoint>
          <Trackpoint>
            <Time>2022-07-05T16:13:34.000Z</Time>
            <Position>
              <LatitudeDegrees>44.302345700562000274658203125</LatitudeDegrees>
              <LongitudeDegrees>-1.09002493321895599365234375</LongitudeDegrees>
            </Position>
            <AltitudeMeters>62</AltitudeMeters>
            <DistanceMeters>NAN</DistanceMeters>
          </Trackpoint>
          <Trackpoint>
            <Time>2022-07-05T16:13:37.000Z</Time>
            <Position>
              <LatitudeDegrees>44.30229415185749530792236328125</LatitudeDegrees>
              <LongitudeDegrees>-1.0899550281465053558349609375</LongitudeDegrees>
            </Position>
            <AltitudeMeters>62</AltitudeMeters>
            <DistanceMeters>NAN</DistanceMeters>
          </Trackpoint>
          <Trackpoint>
            <Time>2022-07-05T16:13:41.000Z</Time>
            <Position>
              <LatitudeDegrees>44.30222692899405956268310546875</LatitudeDegrees>
              <LongitudeDegrees>-1.08988403342664241790771484375</LongitudeDegrees>
            </Position>
            <AltitudeMeters>62.200000762939453125</AltitudeMeters>
            <DistanceMeters>NAN</DistanceMeters>
          </Trackpoint>
          <Trackpoint>
            <Time>2022-07-05T16:13:45.000Z</Time>
            <Position>
              <LatitudeDegrees>44.30217546410858631134033203125</LatitudeDegrees>
              <LongitudeDegrees>-1.08981999568641185760498046875</LongitudeDegrees>
            </Position>
            <AltitudeMeters>62.200000762939453125</AltitudeMeters>
            <DistanceMeters>NAN</DistanceMeters>
          </Trackpoint>
          <Trackpoint>
            <Time>2022-07-05T16:13:51.000Z</Time>
            <Position>
              <LatitudeDegrees>44.30208359844982624053955078125</LatitudeDegrees>
              <LongitudeDegrees>-1.08968563377857208251953125</LongitudeDegrees>
            </Position>
            <AltitudeMeters>62.200000762939453125</AltitudeMeters>
            <DistanceMeters>NAN</DistanceMeters>
          </Trackpoint>
          <Trackpoint>
            <Time>2022-07-05T16:14:00.000Z</Time>
            <Position>
              <LatitudeDegrees>44.30192216299474239349365234375</LatitudeDegrees>
              <LongitudeDegrees>-1.0895225219428539276123046875</LongitudeDegrees>
            </Position>
            <AltitudeMeters>62.40000152587890625</AltitudeMeters>
            <DistanceMeters>NAN</DistanceMeters>
          </Trackpoint>
          <Trackpoint>
            <Time>2022-07-05T16:14:07.000Z</Time>
            <Position>
              <LatitudeDegrees>44.3018231727182865142822265625</LatitudeDegrees>
              <LongitudeDegrees>-1.08938992023468017578125</LongitudeDegrees>
            </Position>
            <AltitudeMeters>62.40000152587890625</AltitudeMeters>
            <DistanceMeters>NAN</DistanceMeters>
          </Trackpoint>
          <Trackpoint>
            <Time>2022-07-05T16:14:11.000Z</Time>
            <Position>
              <LatitudeDegrees>44.301763661205768585205078125</LatitudeDegrees>
              <LongitudeDegrees>-1.08933426439762115478515625</LongitudeDegrees>
            </Position>
            <AltitudeMeters>62.40000152587890625</AltitudeMeters>
            <DistanceMeters>NAN</DistanceMeters>
          </Trackpoint>
          <Trackpoint>
            <Time>2022-07-05T16:14:13.000Z</Time>
            <Position>
              <LatitudeDegrees>44.30173315107822418212890625</LatitudeDegrees>
              <LongitudeDegrees>-1.0893015749752521514892578125</LongitudeDegrees>
            </Position>
            <AltitudeMeters>62.40000152587890625</AltitudeMeters>
            <DistanceMeters>NAN</DistanceMeters>
          </Trackpoint>
          <Trackpoint>
            <Time>2022-07-05T16:14:21.000Z</Time>
            <Position>
              <LatitudeDegrees>44.30161454714834690093994140625</LatitudeDegrees>
              <LongitudeDegrees>-1.08915765769779682159423828125</LongitudeDegrees>
            </Position>
            <AltitudeMeters>62.59999847412109375</AltitudeMeters>
            <DistanceMeters>NAN</DistanceMeters>
          </Trackpoint>
          <Trackpoint>
            <Time>2022-07-05T16:14:29.000Z</Time>
            <Position>
              <LatitudeDegrees>44.301485382020473480224609375</LatitudeDegrees>
              <LongitudeDegrees>-1.08906880952417850494384765625</LongitudeDegrees>
            </Position>
            <AltitudeMeters>63</AltitudeMeters>
            <DistanceMeters>NAN</DistanceMeters>
          </Trackpoint>
          <Trackpoint>
            <Time>2022-07-05T16:14:32.000Z</Time>
            <Position>
              <LatitudeDegrees>44.301480688154697418212890625</LatitudeDegrees>
              <LongitudeDegrees>-1.08906780369579792022705078125</LongitudeDegrees>
            </Position>
            <AltitudeMeters>63</AltitudeMeters>
            <DistanceMeters>NAN</DistanceMeters>
          </Trackpoint>
          <Trackpoint>
            <Time>2022-07-05T16:17:22.000Z</Time>
            <Position>
              <LatitudeDegrees>44.30142243392765522003173828125</LatitudeDegrees>
              <LongitudeDegrees>-1.08899538405239582061767578125</LongitudeDegrees>
            </Position>
            <AltitudeMeters>63</AltitudeMeters>
            <DistanceMeters>NAN</DistanceMeters>
          </Trackpoint>
          <Trackpoint>
            <Time>2022-07-05T16:17:23.000Z</Time>
            <Position>
              <LatitudeDegrees>44.301408939063549041748046875</LatitudeDegrees>
              <LongitudeDegrees>-1.0889760218560695648193359375</LongitudeDegrees>
            </Position>
            <AltitudeMeters>63.200000762939453125</AltitudeMeters>
            <DistanceMeters>NAN</DistanceMeters>
          </Trackpoint>
          <Trackpoint>
            <Time>2022-07-05T16:17:28.000Z</Time>
            <Position>
              <LatitudeDegrees>44.30132084526121616363525390625</LatitudeDegrees>
              <LongitudeDegrees>-1.08889731578528881072998046875</LongitudeDegrees>
            </Position>
            <AltitudeMeters>63.200000762939453125</AltitudeMeters>
            <DistanceMeters>NAN</DistanceMeters>
          </Trackpoint>
          <Trackpoint>
            <Time>2022-07-05T16:17:35.000Z</Time>
            <Position>
              <LatitudeDegrees>44.30123149417340755462646484375</LatitudeDegrees>
              <LongitudeDegrees>-1.088776700198650360107421875</LongitudeDegrees>
            </Position>
            <AltitudeMeters>63.40000152587890625</AltitudeMeters>
            <DistanceMeters>NAN</DistanceMeters>
          </Trackpoint>
          <Trackpoint>
            <Time>2022-07-05T16:17:40.000Z</Time>
            <Position>
              <LatitudeDegrees>44.30115924216806888580322265625</LatitudeDegrees>
              <LongitudeDegrees>-1.08869933523237705230712890625</LongitudeDegrees>
            </Position>
            <AltitudeMeters>63.40000152587890625</AltitudeMeters>
            <DistanceMeters>NAN</DistanceMeters>
          </Trackpoint>
          <Trackpoint>
            <Time>2022-07-05T16:17:43.000Z</Time>
            <Position>
              <LatitudeDegrees>44.30111230351030826568603515625</LatitudeDegrees>
              <LongitudeDegrees>-1.08863957226276397705078125</LongitudeDegrees>
            </Position>
            <AltitudeMeters>63.59999847412109375</AltitudeMeters>
            <DistanceMeters>NAN</DistanceMeters>
          </Trackpoint>
          <Trackpoint>
            <Time>2022-07-05T16:17:52.000Z</Time>
            <Position>
              <LatitudeDegrees>44.30094634182751178741455078125</LatitudeDegrees>
              <LongitudeDegrees>-1.088436059653759002685546875</LongitudeDegrees>
            </Position>
            <AltitudeMeters>63.59999847412109375</AltitudeMeters>
            <DistanceMeters>NAN</DistanceMeters>
          </Trackpoint>
          <Trackpoint>
            <Time>2022-07-05T16:17:55.000Z</Time>
            <Position>
              <LatitudeDegrees>44.300896637141704559326171875</LatitudeDegrees>
              <LongitudeDegrees>-1.08837160281836986541748046875</LongitudeDegrees>
            </Position>
            <AltitudeMeters>63.59999847412109375</AltitudeMeters>
            <DistanceMeters>NAN</DistanceMeters>
          </Trackpoint>
          <Trackpoint>
            <Time>2022-07-05T16:18:02.000Z</Time>
            <Position>
              <LatitudeDegrees>44.30075858719646930694580078125</LatitudeDegrees>
              <LongitudeDegrees>-1.0882105864584445953369140625</LongitudeDegrees>
            </Position>
            <AltitudeMeters>63.59999847412109375</AltitudeMeters>
            <DistanceMeters>NAN</DistanceMeters>
          </Trackpoint>
          <Trackpoint>
            <Time>2022-07-05T16:18:07.000Z</Time>
            <Position>
              <LatitudeDegrees>44.30065850727260112762451171875</LatitudeDegrees>
              <LongitudeDegrees>-1.0881049744784832000732421875</LongitudeDegrees>
            </Position>
            <AltitudeMeters>63.799999237060546875</AltitudeMeters>
            <DistanceMeters>NAN</DistanceMeters>
          </Trackpoint>
          <Trackpoint>
            <Time>2022-07-05T16:18:12.000Z</Time>
            <Position>
              <LatitudeDegrees>44.30057971738278865814208984375</LatitudeDegrees>
              <LongitudeDegrees>-1.08798100613057613372802734375</LongitudeDegrees>
            </Position>
            <AltitudeMeters>63.799999237060546875</AltitudeMeters>
            <DistanceMeters>NAN</DistanceMeters>
          </Trackpoint>
          <Trackpoint>
            <Time>2022-07-05T16:18:16.000Z</Time>
            <Position>
              <LatitudeDegrees>44.30050914175808429718017578125</LatitudeDegrees>
              <LongitudeDegrees>-1.087884865701198577880859375</LongitudeDegrees>
            </Position>
            <AltitudeMeters>63.799999237060546875</AltitudeMeters>
            <DistanceMeters>NAN</DistanceMeters>
          </Trackpoint>
          <Trackpoint>
            <Time>2022-07-05T16:18:17.000Z</Time>
            <Position>
              <LatitudeDegrees>44.30048801936209201812744140625</LatitudeDegrees>
              <LongitudeDegrees>-1.08786114491522312164306640625</LongitudeDegrees>
            </Position>
            <AltitudeMeters>63.799999237060546875</AltitudeMeters>
            <DistanceMeters>NAN</DistanceMeters>
          </Trackpoint>
          <Trackpoint>
            <Time>2022-07-05T16:18:19.000Z</Time>
            <Position>
              <LatitudeDegrees>44.3004463613033294677734375</LatitudeDegrees>
              <LongitudeDegrees>-1.087816469371318817138671875</LongitudeDegrees>
            </Position>
            <AltitudeMeters>63.799999237060546875</AltitudeMeters>
            <DistanceMeters>NAN</DistanceMeters>
          </Trackpoint>
          <Trackpoint>
            <Time>2022-07-05T16:18:23.000Z</Time>
            <Position>
              <LatitudeDegrees>44.30036497302353382110595703125</LatitudeDegrees>
              <LongitudeDegrees>-1.08772686682641506195068359375</LongitudeDegrees>
            </Position>
            <AltitudeMeters>63.799999237060546875</AltitudeMeters>
            <DistanceMeters>NAN</DistanceMeters>
          </Trackpoint>
          <Trackpoint>
            <Time>2022-07-05T16:18:24.000Z</Time>
            <Position>
              <LatitudeDegrees>44.30034200660884380340576171875</LatitudeDegrees>
              <LongitudeDegrees>-1.08770440332591533660888671875</LongitudeDegrees>
            </Position>
            <AltitudeMeters>63.799999237060546875</AltitudeMeters>
            <DistanceMeters>NAN</DistanceMeters>
          </Trackpoint>
          <Trackpoint>
            <Time>2022-07-05T16:18:31.000Z</Time>
            <Position>
              <LatitudeDegrees>44.30020253174006938934326171875</LatitudeDegrees>
              <LongitudeDegrees>-1.087541878223419189453125</LongitudeDegrees>
            </Position>
            <AltitudeMeters>63.59999847412109375</AltitudeMeters>
            <DistanceMeters>NAN</DistanceMeters>
          </Trackpoint>
          <Trackpoint>
            <Time>2022-07-05T16:18:42.000Z</Time>
            <Position>
              <LatitudeDegrees>44.29999105632305145263671875</LatitudeDegrees>
              <LongitudeDegrees>-1.08730693347752094268798828125</LongitudeDegrees>
            </Position>
            <AltitudeMeters>64</AltitudeMeters>
            <DistanceMeters>NAN</DistanceMeters>
          </Trackpoint>
          <Trackpoint>
            <Time>2022-07-05T16:18:52.000Z</Time>
            <Position>
              <LatitudeDegrees>44.29979282431304454803466796875</LatitudeDegrees>
              <LongitudeDegrees>-1.08709730207920074462890625</LongitudeDegrees>
            </Position>
            <AltitudeMeters>64.1999969482421875</AltitudeMeters>
            <DistanceMeters>NAN</DistanceMeters>
          </Trackpoint>
          <Trackpoint>
            <Time>2022-07-05T16:19:00.000Z</Time>
            <Position>
              <LatitudeDegrees>44.299629963934421539306640625</LatitudeDegrees>
              <LongitudeDegrees>-1.0869063623249530792236328125</LongitudeDegrees>
            </Position>
            <AltitudeMeters>64</AltitudeMeters>
            <DistanceMeters>NAN</DistanceMeters>
          </Trackpoint>
          <Trackpoint>
            <Time>2022-07-05T16:19:05.000Z</Time>
            <Position>
              <LatitudeDegrees>44.29953910410404205322265625</LatitudeDegrees>
              <LongitudeDegrees>-1.08679153025150299072265625</LongitudeDegrees>
            </Position>
            <AltitudeMeters>64</AltitudeMeters>
            <DistanceMeters>NAN</DistanceMeters>
          </Trackpoint>
          <Trackpoint>
            <Time>2022-07-05T16:19:10.000Z</Time>
            <Position>
              <LatitudeDegrees>44.29944715462625026702880859375</LatitudeDegrees>
              <LongitudeDegrees>-1.08670360408723354339599609375</LongitudeDegrees>
            </Position>
            <AltitudeMeters>64</AltitudeMeters>
            <DistanceMeters>NAN</DistanceMeters>
          </Trackpoint>
          <Trackpoint>
            <Time>2022-07-05T16:19:15.000Z</Time>
            <Position>
              <LatitudeDegrees>44.29941840469837188720703125</LatitudeDegrees>
              <LongitudeDegrees>-1.08666387386620044708251953125</LongitudeDegrees>
            </Position>
            <AltitudeMeters>63.799999237060546875</AltitudeMeters>
            <DistanceMeters>NAN</DistanceMeters>
          </Trackpoint>
          <Trackpoint>
            <Time>2022-07-05T16:19:51.000Z</Time>
            <Position>
              <LatitudeDegrees>44.29937473498284816741943359375</LatitudeDegrees>
              <LongitudeDegrees>-1.08661659993231296539306640625</LongitudeDegrees>
            </Position>
            <AltitudeMeters>64.59999847412109375</AltitudeMeters>
            <DistanceMeters>NAN</DistanceMeters>
          </Trackpoint>
          <Trackpoint>
            <Time>2022-07-05T16:19:53.000Z</Time>
            <Position>
              <LatitudeDegrees>44.29932494647800922393798828125</LatitudeDegrees>
              <LongitudeDegrees>-1.08656882308423519134521484375</LongitudeDegrees>
            </Position>
            <AltitudeMeters>64.59999847412109375</AltitudeMeters>
            <DistanceMeters>NAN</DistanceMeters>
          </Trackpoint>
          <Trackpoint>
            <Time>2022-07-05T16:20:00.000Z</Time>
            <Position>
              <LatitudeDegrees>44.2991664446890354156494140625</LatitudeDegrees>
              <LongitudeDegrees>-1.08637084253132343292236328125</LongitudeDegrees>
            </Position>
            <AltitudeMeters>64.40000152587890625</AltitudeMeters>
            <DistanceMeters>NAN</DistanceMeters>
          </Trackpoint>
          <Trackpoint>
            <Time>2022-07-05T16:20:03.000Z</Time>
            <Position>
              <LatitudeDegrees>44.29910450242459774017333984375</LatitudeDegrees>
              <LongitudeDegrees>-1.086310409009456634521484375</LongitudeDegrees>
            </Position>
            <AltitudeMeters>64.40000152587890625</AltitudeMeters>
            <DistanceMeters>NAN</DistanceMeters>
          </Trackpoint>
          <Trackpoint>
            <Time>2022-07-05T16:20:09.000Z</Time>
            <Position>
              <LatitudeDegrees>44.29898950271308422088623046875</LatitudeDegrees>
              <LongitudeDegrees>-1.086186356842517852783203125</LongitudeDegrees>
            </Position>
            <AltitudeMeters>64.40000152587890625</AltitudeMeters>
            <DistanceMeters>NAN</DistanceMeters>
          </Trackpoint>
          <Trackpoint>
            <Time>2022-07-05T16:20:11.000Z</Time>
            <Position>
              <LatitudeDegrees>44.29894910193979740142822265625</LatitudeDegrees>
              <LongitudeDegrees>-1.08613581396639347076416015625</LongitudeDegrees>
            </Position>
            <AltitudeMeters>64.40000152587890625</AltitudeMeters>
            <DistanceMeters>NAN</DistanceMeters>
          </Trackpoint>
          <Trackpoint>
            <Time>2022-07-05T16:20:17.000Z</Time>
            <Position>
              <LatitudeDegrees>44.2988308332860469818115234375</LatitudeDegrees>
              <LongitudeDegrees>-1.08599089086055755615234375</LongitudeDegrees>
            </Position>
            <AltitudeMeters>64.59999847412109375</AltitudeMeters>
            <DistanceMeters>NAN</DistanceMeters>
          </Trackpoint>
          <Trackpoint>
            <Time>2022-07-05T16:20:20.000Z</Time>
            <Position>
              <LatitudeDegrees>44.29877199232578277587890625</LatitudeDegrees>
              <LongitudeDegrees>-1.0859213210642337799072265625</LongitudeDegrees>
            </Position>
            <AltitudeMeters>64.8000030517578125</AltitudeMeters>
            <DistanceMeters>NAN</DistanceMeters>
          </Trackpoint>
          <Trackpoint>
            <Time>2022-07-05T16:20:25.000Z</Time>
            <Position>
              <LatitudeDegrees>44.29866193793714046478271484375</LatitudeDegrees>
              <LongitudeDegrees>-1.0858026333153247833251953125</LongitudeDegrees>
            </Position>
            <AltitudeMeters>64.8000030517578125</AltitudeMeters>
            <DistanceMeters>NAN</DistanceMeters>
          </Trackpoint>
          <Trackpoint>
            <Time>2022-07-05T16:20:29.000Z</Time>
            <Position>
              <LatitudeDegrees>44.29858499206602573394775390625</LatitudeDegrees>
              <LongitudeDegrees>-1.08571018092334270477294921875</LongitudeDegrees>
            </Position>
            <AltitudeMeters>64.8000030517578125</AltitudeMeters>
            <DistanceMeters>NAN</DistanceMeters>
          </Trackpoint>
          <Trackpoint>
            <Time>2022-07-05T16:20:38.000Z</Time>
            <Position>
              <LatitudeDegrees>44.2984184436500072479248046875</LatitudeDegrees>
              <LongitudeDegrees>-1.085505746304988861083984375</LongitudeDegrees>
            </Position>
            <AltitudeMeters>65.1999969482421875</AltitudeMeters>
            <DistanceMeters>NAN</DistanceMeters>
          </Trackpoint>
          <Trackpoint>
            <Time>2022-07-05T16:20:44.000Z</Time>
            <Position>
              <LatitudeDegrees>44.29829648695886135101318359375</LatitudeDegrees>
              <LongitudeDegrees>-1.08535311184823513031005859375</LongitudeDegrees>
            </Position>
            <AltitudeMeters>65.59999847412109375</AltitudeMeters>
            <DistanceMeters>NAN</DistanceMeters>
          </Trackpoint>
          <Trackpoint>
            <Time>2022-07-05T16:20:49.000Z</Time>
            <Position>
              <LatitudeDegrees>44.29819623939692974090576171875</LatitudeDegrees>
              <LongitudeDegrees>-1.085248924791812896728515625</LongitudeDegrees>
            </Position>
            <AltitudeMeters>65.59999847412109375</AltitudeMeters>
            <DistanceMeters>NAN</DistanceMeters>
          </Trackpoint>
          <Trackpoint>
            <Time>2022-07-05T16:20:55.000Z</Time>
            <Position>
              <LatitudeDegrees>44.2980833351612091064453125</LatitudeDegrees>
              <LongitudeDegrees>-1.08510601334273815155029296875</LongitudeDegrees>
            </Position>
            <AltitudeMeters>65.59999847412109375</AltitudeMeters>
            <DistanceMeters>NAN</DistanceMeters>
          </Trackpoint>
          <Trackpoint>
            <Time>2022-07-05T16:20:58.000Z</Time>
            <Position>
              <LatitudeDegrees>44.29802876897156238555908203125</LatitudeDegrees>
              <LongitudeDegrees>-1.08505102805793285369873046875</LongitudeDegrees>
            </Position>
            <AltitudeMeters>65.40000152587890625</AltitudeMeters>
            <DistanceMeters>NAN</DistanceMeters>
          </Trackpoint>
          <Trackpoint>
            <Time>2022-07-05T16:21:06.000Z</Time>
            <Position>
              <LatitudeDegrees>44.29788007400929927825927734375</LatitudeDegrees>
              <LongitudeDegrees>-1.08488121069967746734619140625</LongitudeDegrees>
            </Position>
            <AltitudeMeters>65</AltitudeMeters>
            <DistanceMeters>NAN</DistanceMeters>
          </Trackpoint>
          <Trackpoint>
            <Time>2022-07-05T16:21:14.000Z</Time>
            <Position>
              <LatitudeDegrees>44.2977683432400226593017578125</LatitudeDegrees>
              <LongitudeDegrees>-1.0847602598369121551513671875</LongitudeDegrees>
            </Position>
            <AltitudeMeters>65</AltitudeMeters>
            <DistanceMeters>NAN</DistanceMeters>
          </Trackpoint>
          <Trackpoint>
            <Time>2022-07-05T16:21:15.000Z</Time>
            <Position>
              <LatitudeDegrees>44.2977683432400226593017578125</LatitudeDegrees>
              <LongitudeDegrees>-1.0847602598369121551513671875</LongitudeDegrees>
            </Position>
            <AltitudeMeters>65</AltitudeMeters>
            <DistanceMeters>NAN</DistanceMeters>
          </Trackpoint>
          <Trackpoint>
            <Time>2022-07-05T16:22:09.000Z</Time>
            <Position>
              <LatitudeDegrees>44.29775266908109188079833984375</LatitudeDegrees>
              <LongitudeDegrees>-1.08473402447998523712158203125</LongitudeDegrees>
            </Position>
            <AltitudeMeters>65.40000152587890625</AltitudeMeters>
            <DistanceMeters>NAN</DistanceMeters>
          </Trackpoint>
          <Trackpoint>
            <Time>2022-07-05T16:22:10.000Z</Time>
            <Position>
              <LatitudeDegrees>44.2977354861795902252197265625</LatitudeDegrees>
              <LongitudeDegrees>-1.08470904640853404998779296875</LongitudeDegrees>
            </Position>
            <AltitudeMeters>65.59999847412109375</AltitudeMeters>
            <DistanceMeters>NAN</DistanceMeters>
          </Trackpoint>
          <Trackpoint>
            <Time>2022-07-05T16:22:11.000Z</Time>
            <Position>
              <LatitudeDegrees>44.29771922528743743896484375</LatitudeDegrees>
              <LongitudeDegrees>-1.08468675054609775543212890625</LongitudeDegrees>
            </Position>
            <AltitudeMeters>65.59999847412109375</AltitudeMeters>
            <DistanceMeters>NAN</DistanceMeters>
          </Trackpoint>
          <Trackpoint>
            <Time>2022-07-05T16:22:15.000Z</Time>
            <Position>
              <LatitudeDegrees>44.29762911982834339141845703125</LatitudeDegrees>
              <LongitudeDegrees>-1.0845758579671382904052734375</LongitudeDegrees>
            </Position>
            <AltitudeMeters>65.8000030517578125</AltitudeMeters>
            <DistanceMeters>NAN</DistanceMeters>
          </Trackpoint>
          <Trackpoint>
            <Time>2022-07-05T16:22:18.000Z</Time>
            <Position>
              <LatitudeDegrees>44.29756206460297107696533203125</LatitudeDegrees>
              <LongitudeDegrees>-1.08449597842991352081298828125</LongitudeDegrees>
            </Position>
            <AltitudeMeters>65.8000030517578125</AltitudeMeters>
            <DistanceMeters>NAN</DistanceMeters>
          </Trackpoint>
          <Trackpoint>
            <Time>2022-07-05T16:22:23.000Z</Time>
            <Position>
              <LatitudeDegrees>44.29746315814554691314697265625</LatitudeDegrees>
              <LongitudeDegrees>-1.0843887738883495330810546875</LongitudeDegrees>
            </Position>
            <AltitudeMeters>65.8000030517578125</AltitudeMeters>
            <DistanceMeters>NAN</DistanceMeters>
          </Trackpoint>
          <Trackpoint>
            <Time>2022-07-05T16:22:26.000Z</Time>
            <Position>
              <LatitudeDegrees>44.297403059899806976318359375</LatitudeDegrees>
              <LongitudeDegrees>-1.08432121574878692626953125</LongitudeDegrees>
            </Position>
            <AltitudeMeters>65.8000030517578125</AltitudeMeters>
            <DistanceMeters>NAN</DistanceMeters>
          </Trackpoint>
          <Trackpoint>
            <Time>2022-07-05T16:22:32.000Z</Time>
            <Position>
              <LatitudeDegrees>44.29729878902435302734375</LatitudeDegrees>
              <LongitudeDegrees>-1.08417025767266750335693359375</LongitudeDegrees>
            </Position>
            <AltitudeMeters>66</AltitudeMeters>
            <DistanceMeters>NAN</DistanceMeters>
          </Trackpoint>
          <Trackpoint>
            <Time>2022-07-05T16:22:35.000Z</Time>
            <Position>
              <LatitudeDegrees>44.29724103771150112152099609375</LatitudeDegrees>
              <LongitudeDegrees>-1.08410102315247058868408203125</LongitudeDegrees>
            </Position>
            <AltitudeMeters>66</AltitudeMeters>
            <DistanceMeters>NAN</DistanceMeters>
          </Trackpoint>
          <Trackpoint>
            <Time>2022-07-05T16:22:36.000Z</Time>
            <Position>
              <LatitudeDegrees>44.29722477681934833526611328125</LatitudeDegrees>
              <LongitudeDegrees>-1.084081828594207763671875</LongitudeDegrees>
            </Position>
            <AltitudeMeters>66</AltitudeMeters>
            <DistanceMeters>NAN</DistanceMeters>
          </Trackpoint>
          <Trackpoint>
            <Time>2022-07-05T16:22:41.000Z</Time>
            <Position>
              <LatitudeDegrees>44.29715998470783233642578125</LatitudeDegrees>
              <LongitudeDegrees>-1.0840092413127422332763671875</LongitudeDegrees>
            </Position>
            <AltitudeMeters>66</AltitudeMeters>
            <DistanceMeters>NAN</DistanceMeters>
          </Trackpoint>
          <Trackpoint>
            <Time>2022-07-05T16:22:44.000Z</Time>
            <Position>
              <LatitudeDegrees>44.29712000302970409393310546875</LatitudeDegrees>
              <LongitudeDegrees>-1.0839555971324443817138671875</LongitudeDegrees>
            </Position>
            <AltitudeMeters>66.1999969482421875</AltitudeMeters>
            <DistanceMeters>NAN</DistanceMeters>
          </Trackpoint>
          <Trackpoint>
            <Time>2022-07-05T16:22:48.000Z</Time>
            <Position>
              <LatitudeDegrees>44.29708982817828655242919921875</LatitudeDegrees>
              <LongitudeDegrees>-1.0839235782623291015625</LongitudeDegrees>
            </Position>
            <AltitudeMeters>66.1999969482421875</AltitudeMeters>
            <DistanceMeters>NAN</DistanceMeters>
          </Trackpoint>
          <Trackpoint>
            <Time>2022-07-05T16:22:49.000Z</Time>
            <Position>
              <LatitudeDegrees>44.29708982817828655242919921875</LatitudeDegrees>
              <LongitudeDegrees>-1.0839235782623291015625</LongitudeDegrees>
            </Position>
            <AltitudeMeters>66.1999969482421875</AltitudeMeters>
            <DistanceMeters>NAN</DistanceMeters>
          </Trackpoint>
          <Trackpoint>
            <Time>2022-07-05T16:23:50.000Z</Time>
            <Position>
              <LatitudeDegrees>44.29705278016626834869384765625</LatitudeDegrees>
              <LongitudeDegrees>-1.083870939910411834716796875</LongitudeDegrees>
            </Position>
            <AltitudeMeters>66.59999847412109375</AltitudeMeters>
            <DistanceMeters>NAN</DistanceMeters>
          </Trackpoint>
          <Trackpoint>
            <Time>2022-07-05T16:23:57.000Z</Time>
            <Position>
              <LatitudeDegrees>44.29692420177161693572998046875</LatitudeDegrees>
              <LongitudeDegrees>-1.08371679671108722686767578125</LongitudeDegrees>
            </Position>
            <AltitudeMeters>66.8000030517578125</AltitudeMeters>
            <DistanceMeters>NAN</DistanceMeters>
          </Trackpoint>
          <Trackpoint>
            <Time>2022-07-05T16:24:02.000Z</Time>
            <Position>
              <LatitudeDegrees>44.2968225292861461639404296875</LatitudeDegrees>
              <LongitudeDegrees>-1.08361369930207729339599609375</LongitudeDegrees>
            </Position>
            <AltitudeMeters>66.8000030517578125</AltitudeMeters>
            <DistanceMeters>NAN</DistanceMeters>
          </Trackpoint>
          <Trackpoint>
            <Time>2022-07-05T16:24:05.000Z</Time>
            <Position>
              <LatitudeDegrees>44.2967621795833110809326171875</LatitudeDegrees>
              <LongitudeDegrees>-1.08352853916585445404052734375</LongitudeDegrees>
            </Position>
            <AltitudeMeters>66.8000030517578125</AltitudeMeters>
            <DistanceMeters>NAN</DistanceMeters>
          </Trackpoint>
          <Trackpoint>
            <Time>2022-07-05T16:24:12.000Z</Time>
            <Position>
              <LatitudeDegrees>44.2966242134571075439453125</LatitudeDegrees>
              <LongitudeDegrees>-1.08335503377020359039306640625</LongitudeDegrees>
            </Position>
            <AltitudeMeters>66.59999847412109375</AltitudeMeters>
            <DistanceMeters>NAN</DistanceMeters>
          </Trackpoint>
          <Trackpoint>
            <Time>2022-07-05T16:24:13.000Z</Time>
            <Position>
              <LatitudeDegrees>44.296611137688159942626953125</LatitudeDegrees>
              <LongitudeDegrees>-1.08333416283130645751953125</LongitudeDegrees>
            </Position>
            <AltitudeMeters>66.59999847412109375</AltitudeMeters>
            <DistanceMeters>NAN</DistanceMeters>
          </Trackpoint>
          <Trackpoint>
            <Time>2022-07-05T16:24:22.000Z</Time>
            <Position>
              <LatitudeDegrees>44.2964471876621246337890625</LatitudeDegrees>
              <LongitudeDegrees>-1.0831207595765590667724609375</LongitudeDegrees>
            </Position>
            <AltitudeMeters>66.8000030517578125</AltitudeMeters>
            <DistanceMeters>NAN</DistanceMeters>
          </Trackpoint>
          <Trackpoint>
            <Time>2022-07-05T16:24:28.000Z</Time>
            <Position>
              <LatitudeDegrees>44.2963333614170551300048828125</LatitudeDegrees>
              <LongitudeDegrees>-1.0830138064920902252197265625</LongitudeDegrees>
            </Position>
            <AltitudeMeters>66.8000030517578125</AltitudeMeters>
            <DistanceMeters>NAN</DistanceMeters>
          </Trackpoint>
          <Trackpoint>
            <Time>2022-07-05T16:24:35.000Z</Time>
            <Position>
              <LatitudeDegrees>44.29620319046080112457275390625</LatitudeDegrees>
              <LongitudeDegrees>-1.08287106268107891082763671875</LongitudeDegrees>
            </Position>
            <AltitudeMeters>66.8000030517578125</AltitudeMeters>
            <DistanceMeters>NAN</DistanceMeters>
          </Trackpoint>
          <Trackpoint>
            <Time>2022-07-05T16:24:36.000Z</Time>
            <Position>
              <LatitudeDegrees>44.2961861751973628997802734375</LatitudeDegrees>
              <LongitudeDegrees>-1.0828542150557041168212890625</LongitudeDegrees>
            </Position>
            <AltitudeMeters>66.8000030517578125</AltitudeMeters>
            <DistanceMeters>NAN</DistanceMeters>
          </Trackpoint>
          <Trackpoint>
            <Time>2022-07-05T16:24:44.000Z</Time>
            <Position>
              <LatitudeDegrees>44.296038150787353515625</LatitudeDegrees>
              <LongitudeDegrees>-1.0826751776039600372314453125</LongitudeDegrees>
            </Position>
            <AltitudeMeters>67.1999969482421875</AltitudeMeters>
            <DistanceMeters>NAN</DistanceMeters>
          </Trackpoint>
          <Trackpoint>
            <Time>2022-07-05T16:24:47.000Z</Time>
            <Position>
              <LatitudeDegrees>44.29598785936832427978515625</LatitudeDegrees>
              <LongitudeDegrees>-1.08260183595120906829833984375</LongitudeDegrees>
            </Position>
            <AltitudeMeters>67.40000152587890625</AltitudeMeters>
            <DistanceMeters>NAN</DistanceMeters>
          </Trackpoint>
          <Trackpoint>
            <Time>2022-07-05T16:24:48.000Z</Time>
            <Position>
              <LatitudeDegrees>44.29597067646682262420654296875</LatitudeDegrees>
              <LongitudeDegrees>-1.0825824737548828125</LongitudeDegrees>
            </Position>
            <AltitudeMeters>67.40000152587890625</AltitudeMeters>
            <DistanceMeters>NAN</DistanceMeters>
          </Trackpoint>
          <Trackpoint>
            <Time>2022-07-05T16:24:53.000Z</Time>
            <Position>
              <LatitudeDegrees>44.29588501341640949249267578125</LatitudeDegrees>
              <LongitudeDegrees>-1.082474179565906524658203125</LongitudeDegrees>
            </Position>
            <AltitudeMeters>67.1999969482421875</AltitudeMeters>
            <DistanceMeters>NAN</DistanceMeters>
          </Trackpoint>
          <Trackpoint>
            <Time>2022-07-05T16:24:56.000Z</Time>
            <Position>
              <LatitudeDegrees>44.2958200536668300628662109375</LatitudeDegrees>
              <LongitudeDegrees>-1.0824029333889484405517578125</LongitudeDegrees>
            </Position>
            <AltitudeMeters>67.1999969482421875</AltitudeMeters>
            <DistanceMeters>NAN</DistanceMeters>
          </Trackpoint>
          <Trackpoint>
            <Time>2022-07-05T16:25:06.000Z</Time>
            <Position>
              <LatitudeDegrees>44.29562467150390148162841796875</LatitudeDegrees>
              <LongitudeDegrees>-1.08216547407209873199462890625</LongitudeDegrees>
            </Position>
            <AltitudeMeters>67</AltitudeMeters>
            <DistanceMeters>NAN</DistanceMeters>
          </Trackpoint>
          <Trackpoint>
            <Time>2022-07-05T16:25:11.000Z</Time>
            <Position>
              <LatitudeDegrees>44.29552257992327213287353515625</LatitudeDegrees>
              <LongitudeDegrees>-1.08205550350248813629150390625</LongitudeDegrees>
            </Position>
            <AltitudeMeters>67</AltitudeMeters>
            <DistanceMeters>NAN</DistanceMeters>
          </Trackpoint>
          <Trackpoint>
            <Time>2022-07-05T16:25:16.000Z</Time>
            <Position>
              <LatitudeDegrees>44.2954385094344615936279296875</LatitudeDegrees>
              <LongitudeDegrees>-1.08196682296693325042724609375</LongitudeDegrees>
            </Position>
            <AltitudeMeters>66.8000030517578125</AltitudeMeters>
            <DistanceMeters>NAN</DistanceMeters>
          </Trackpoint>
          <Trackpoint>
            <Time>2022-07-05T16:25:21.000Z</Time>
            <Position>
              <LatitudeDegrees>44.295368604362010955810546875</LatitudeDegrees>
              <LongitudeDegrees>-1.08187328092753887176513671875</LongitudeDegrees>
            </Position>
            <AltitudeMeters>66.8000030517578125</AltitudeMeters>
            <DistanceMeters>NAN</DistanceMeters>
          </Trackpoint>
          <Trackpoint>
            <Time>2022-07-05T16:25:24.000Z</Time>
            <Position>
              <LatitudeDegrees>44.2953238449990749359130859375</LatitudeDegrees>
              <LongitudeDegrees>-1.0818167030811309814453125</LongitudeDegrees>
            </Position>
            <AltitudeMeters>66.8000030517578125</AltitudeMeters>
            <DistanceMeters>NAN</DistanceMeters>
          </Trackpoint>
          <Trackpoint>
            <Time>2022-07-05T16:25:32.000Z</Time>
            <Position>
              <LatitudeDegrees>44.2952138744294643402099609375</LatitudeDegrees>
              <LongitudeDegrees>-1.08168032951653003692626953125</LongitudeDegrees>
            </Position>
            <AltitudeMeters>67</AltitudeMeters>
            <DistanceMeters>NAN</DistanceMeters>
          </Trackpoint>
          <Trackpoint>
            <Time>2022-07-05T16:25:41.000Z</Time>
            <Position>
              <LatitudeDegrees>44.29505788721144199371337890625</LatitudeDegrees>
              <LongitudeDegrees>-1.08150531537830829620361328125</LongitudeDegrees>
            </Position>
            <AltitudeMeters>67</AltitudeMeters>
            <DistanceMeters>NAN</DistanceMeters>
          </Trackpoint>
          <Trackpoint>
            <Time>2022-07-05T16:25:49.000Z</Time>
            <Position>
              <LatitudeDegrees>44.2949181608855724334716796875</LatitudeDegrees>
              <LongitudeDegrees>-1.0813528485596179962158203125</LongitudeDegrees>
            </Position>
            <AltitudeMeters>67.1999969482421875</AltitudeMeters>
            <DistanceMeters>NAN</DistanceMeters>
          </Trackpoint>
          <Trackpoint>
            <Time>2022-07-05T16:25:56.000Z</Time>
            <Position>
              <LatitudeDegrees>44.2947900854051113128662109375</LatitudeDegrees>
              <LongitudeDegrees>-1.0811976157128810882568359375</LongitudeDegrees>
            </Position>
            <AltitudeMeters>67.1999969482421875</AltitudeMeters>
            <DistanceMeters>NAN</DistanceMeters>
          </Trackpoint>
          <Trackpoint>
            <Time>2022-07-05T16:26:05.000Z</Time>
            <Position>
              <LatitudeDegrees>44.29462739266455173492431640625</LatitudeDegrees>
              <LongitudeDegrees>-1.08100474812090396881103515625</LongitudeDegrees>
            </Position>
            <AltitudeMeters>66.8000030517578125</AltitudeMeters>
            <DistanceMeters>NAN</DistanceMeters>
          </Trackpoint>
          <Trackpoint>
            <Time>2022-07-05T16:26:13.000Z</Time>
            <Position>
              <LatitudeDegrees>44.29447752423584461212158203125</LatitudeDegrees>
              <LongitudeDegrees>-1.0808475874364376068115234375</LongitudeDegrees>
            </Position>
            <AltitudeMeters>66.8000030517578125</AltitudeMeters>
            <DistanceMeters>NAN</DistanceMeters>
          </Trackpoint>
          <Trackpoint>
            <Time>2022-07-05T16:26:20.000Z</Time>
            <Position>
              <LatitudeDegrees>44.2943455092608928680419921875</LatitudeDegrees>
              <LongitudeDegrees>-1.08069595880806446075439453125</LongitudeDegrees>
            </Position>
            <AltitudeMeters>67</AltitudeMeters>
            <DistanceMeters>NAN</DistanceMeters>
          </Trackpoint>
          <Trackpoint>
            <Time>2022-07-05T16:26:31.000Z</Time>
            <Position>
              <LatitudeDegrees>44.29413981735706329345703125</LatitudeDegrees>
              <LongitudeDegrees>-1.08044181950390338897705078125</LongitudeDegrees>
            </Position>
            <AltitudeMeters>67.1999969482421875</AltitudeMeters>
            <DistanceMeters>NAN</DistanceMeters>
          </Trackpoint>
          <Trackpoint>
            <Time>2022-07-05T16:26:37.000Z</Time>
            <Position>
              <LatitudeDegrees>44.2940440960228443145751953125</LatitudeDegrees>
              <LongitudeDegrees>-1.0803361237049102783203125</LongitudeDegrees>
            </Position>
            <AltitudeMeters>67.1999969482421875</AltitudeMeters>
            <DistanceMeters>NAN</DistanceMeters>
          </Trackpoint>
          <Trackpoint>
            <Time>2022-07-05T16:26:46.000Z</Time>
            <Position>
              <LatitudeDegrees>44.29388106800615787506103515625</LatitudeDegrees>
              <LongitudeDegrees>-1.08013604767620563507080078125</LongitudeDegrees>
            </Position>
            <AltitudeMeters>67.59999847412109375</AltitudeMeters>
            <DistanceMeters>NAN</DistanceMeters>
          </Trackpoint>
          <Trackpoint>
            <Time>2022-07-05T16:26:50.000Z</Time>
            <Position>
              <LatitudeDegrees>44.2938063852488994598388671875</LatitudeDegrees>
              <LongitudeDegrees>-1.08005189336836338043212890625</LongitudeDegrees>
            </Position>
            <AltitudeMeters>67.59999847412109375</AltitudeMeters>
            <DistanceMeters>NAN</DistanceMeters>
          </Trackpoint>
          <Trackpoint>
            <Time>2022-07-05T16:26:55.000Z</Time>
            <Position>
              <LatitudeDegrees>44.29372918792068958282470703125</LatitudeDegrees>
              <LongitudeDegrees>-1.07995131053030490875244140625</LongitudeDegrees>
            </Position>
            <AltitudeMeters>67.40000152587890625</AltitudeMeters>
            <DistanceMeters>NAN</DistanceMeters>
          </Trackpoint>
          <Trackpoint>
            <Time>2022-07-05T16:26:57.000Z</Time>
            <Position>
              <LatitudeDegrees>44.2936984263360500335693359375</LatitudeDegrees>
              <LongitudeDegrees>-1.0799148492515087127685546875</LongitudeDegrees>
            </Position>
            <AltitudeMeters>67.1999969482421875</AltitudeMeters>
            <DistanceMeters>NAN</DistanceMeters>
          </Trackpoint>
          <Trackpoint>
            <Time>2022-07-05T16:27:03.000Z</Time>
            <Position>
              <LatitudeDegrees>44.2936005257070064544677734375</LatitudeDegrees>
              <LongitudeDegrees>-1.07979859225451946258544921875</LongitudeDegrees>
            </Position>
            <AltitudeMeters>67.40000152587890625</AltitudeMeters>
            <DistanceMeters>NAN</DistanceMeters>
          </Trackpoint>
          <Trackpoint>
            <Time>2022-07-05T16:27:14.000Z</Time>
            <Position>
              <LatitudeDegrees>44.29343062452971935272216796875</LatitudeDegrees>
              <LongitudeDegrees>-1.07956708408892154693603515625</LongitudeDegrees>
            </Position>
            <AltitudeMeters>67.59999847412109375</AltitudeMeters>
            <DistanceMeters>NAN</DistanceMeters>
          </Trackpoint>
          <Trackpoint>
            <Time>2022-07-05T16:27:27.000Z</Time>
            <Position>
              <LatitudeDegrees>44.2931847833096981048583984375</LatitudeDegrees>
              <LongitudeDegrees>-1.079275310039520263671875</LongitudeDegrees>
            </Position>
            <AltitudeMeters>67.59999847412109375</AltitudeMeters>
            <DistanceMeters>NAN</DistanceMeters>
          </Trackpoint>
          <Trackpoint>
            <Time>2022-07-05T16:27:35.000Z</Time>
            <Position>
              <LatitudeDegrees>44.29302058182656764984130859375</LatitudeDegrees>
              <LongitudeDegrees>-1.07909970916807651519775390625</LongitudeDegrees>
            </Position>
            <AltitudeMeters>67.59999847412109375</AltitudeMeters>
            <DistanceMeters>NAN</DistanceMeters>
          </Trackpoint>
          <Trackpoint>
            <Time>2022-07-05T16:27:40.000Z</Time>
            <Position>
              <LatitudeDegrees>44.29293240420520305633544921875</LatitudeDegrees>
              <LongitudeDegrees>-1.07898303307592868804931640625</LongitudeDegrees>
            </Position>
            <AltitudeMeters>67.8000030517578125</AltitudeMeters>
            <DistanceMeters>NAN</DistanceMeters>
          </Trackpoint>
          <Trackpoint>
            <Time>2022-07-05T16:27:43.000Z</Time>
            <Position>
              <LatitudeDegrees>44.2928793467581272125244140625</LatitudeDegrees>
              <LongitudeDegrees>-1.0789231024682521820068359375</LongitudeDegrees>
            </Position>
            <AltitudeMeters>67.8000030517578125</AltitudeMeters>
            <DistanceMeters>NAN</DistanceMeters>
          </Trackpoint>
          <Trackpoint>
            <Time>2022-07-05T16:27:50.000Z</Time>
            <Position>
              <LatitudeDegrees>44.292769543826580047607421875</LatitudeDegrees>
              <LongitudeDegrees>-1.0787792690098285675048828125</LongitudeDegrees>
            </Position>
            <AltitudeMeters>67.59999847412109375</AltitudeMeters>
            <DistanceMeters>NAN</DistanceMeters>
          </Trackpoint>
          <Trackpoint>
            <Time>2022-07-05T16:27:56.000Z</Time>
            <Position>
              <LatitudeDegrees>44.2926553823053836822509765625</LatitudeDegrees>
              <LongitudeDegrees>-1.078658401966094970703125</LongitudeDegrees>
            </Position>
            <AltitudeMeters>68</AltitudeMeters>
            <DistanceMeters>NAN</DistanceMeters>
          </Trackpoint>
          <Trackpoint>
            <Time>2022-07-05T16:27:57.000Z</Time>
            <Position>
              <LatitudeDegrees>44.292636774480342864990234375</LatitudeDegrees>
              <LongitudeDegrees>-1.07864029705524444580078125</LongitudeDegrees>
            </Position>
            <AltitudeMeters>68</AltitudeMeters>
            <DistanceMeters>NAN</DistanceMeters>
          </Trackpoint>
          <Trackpoint>
            <Time>2022-07-05T16:28:07.000Z</Time>
            <Position>
              <LatitudeDegrees>44.29246720857918262481689453125</LatitudeDegrees>
              <LongitudeDegrees>-1.078434772789478302001953125</LongitudeDegrees>
            </Position>
            <AltitudeMeters>68.1999969482421875</AltitudeMeters>
            <DistanceMeters>NAN</DistanceMeters>
          </Trackpoint>
          <Trackpoint>
            <Time>2022-07-05T16:28:17.000Z</Time>
            <Position>
              <LatitudeDegrees>44.29228448309004306793212890625</LatitudeDegrees>
              <LongitudeDegrees>-1.078218184411525726318359375</LongitudeDegrees>
            </Position>
            <AltitudeMeters>68.40000152587890625</AltitudeMeters>
            <DistanceMeters>NAN</DistanceMeters>
          </Trackpoint>
          <Trackpoint>
            <Time>2022-07-05T16:28:25.000Z</Time>
            <Position>
              <LatitudeDegrees>44.29213645868003368377685546875</LatitudeDegrees>
              <LongitudeDegrees>-1.078041158616542816162109375</LongitudeDegrees>
            </Position>
            <AltitudeMeters>68.40000152587890625</AltitudeMeters>
            <DistanceMeters>NAN</DistanceMeters>
          </Trackpoint>
          <Trackpoint>
            <Time>2022-07-05T16:28:33.000Z</Time>
            <Position>
              <LatitudeDegrees>44.29200871847569942474365234375</LatitudeDegrees>
              <LongitudeDegrees>-1.077894307672977447509765625</LongitudeDegrees>
            </Position>
            <AltitudeMeters>68.40000152587890625</AltitudeMeters>
            <DistanceMeters>NAN</DistanceMeters>
          </Trackpoint>
          <Trackpoint>
            <Time>2022-07-05T16:28:38.000Z</Time>
            <Position>
              <LatitudeDegrees>44.2919670604169368743896484375</LatitudeDegrees>
              <LongitudeDegrees>-1.0778508894145488739013671875</LongitudeDegrees>
            </Position>
            <AltitudeMeters>68.40000152587890625</AltitudeMeters>
            <DistanceMeters>NAN</DistanceMeters>
          </Trackpoint>
          <Trackpoint>
            <Time>2022-07-05T16:28:39.000Z</Time>
            <Position>
              <LatitudeDegrees>44.2919670604169368743896484375</LatitudeDegrees>
              <LongitudeDegrees>-1.0778508894145488739013671875</LongitudeDegrees>
            </Position>
            <AltitudeMeters>68.40000152587890625</AltitudeMeters>
            <DistanceMeters>NAN</DistanceMeters>
          </Trackpoint>
          <Trackpoint>
            <Time>2022-07-05T16:28:49.000Z</Time>
            <Position>
              <LatitudeDegrees>44.29192707873880863189697265625</LatitudeDegrees>
              <LongitudeDegrees>-1.0777858458459377288818359375</LongitudeDegrees>
            </Position>
            <AltitudeMeters>68.40000152587890625</AltitudeMeters>
            <DistanceMeters>NAN</DistanceMeters>
          </Trackpoint>
          <Trackpoint>
            <Time>2022-07-05T16:28:51.000Z</Time>
            <Position>
              <LatitudeDegrees>44.2918981611728668212890625</LatitudeDegrees>
              <LongitudeDegrees>-1.077750809490680694580078125</LongitudeDegrees>
            </Position>
            <AltitudeMeters>68.40000152587890625</AltitudeMeters>
            <DistanceMeters>NAN</DistanceMeters>
          </Trackpoint>
          <Trackpoint>
            <Time>2022-07-05T16:28:55.000Z</Time>
            <Position>
              <LatitudeDegrees>44.2918205447494983673095703125</LatitudeDegrees>
              <LongitudeDegrees>-1.077662967145442962646484375</LongitudeDegrees>
            </Position>
            <AltitudeMeters>68.59999847412109375</AltitudeMeters>
            <DistanceMeters>NAN</DistanceMeters>
          </Trackpoint>
          <Trackpoint>
            <Time>2022-07-05T16:28:58.000Z</Time>
            <Position>
              <LatitudeDegrees>44.29176338016986846923828125</LatitudeDegrees>
              <LongitudeDegrees>-1.0776098258793354034423828125</LongitudeDegrees>
            </Position>
            <AltitudeMeters>68.59999847412109375</AltitudeMeters>
            <DistanceMeters>NAN</DistanceMeters>
          </Trackpoint>
          <Trackpoint>
            <Time>2022-07-05T16:29:05.000Z</Time>
            <Position>
              <LatitudeDegrees>44.29166288115084171295166015625</LatitudeDegrees>
              <LongitudeDegrees>-1.07748233713209629058837890625</LongitudeDegrees>
            </Position>
            <AltitudeMeters>68.1999969482421875</AltitudeMeters>
            <DistanceMeters>NAN</DistanceMeters>
          </Trackpoint>
          <Trackpoint>
            <Time>2022-07-05T16:29:07.000Z</Time>
            <Position>
              <LatitudeDegrees>44.29166288115084171295166015625</LatitudeDegrees>
              <LongitudeDegrees>-1.07748233713209629058837890625</LongitudeDegrees>
            </Position>
            <AltitudeMeters>68.1999969482421875</AltitudeMeters>
            <DistanceMeters>NAN</DistanceMeters>
          </Trackpoint>
          <Trackpoint>
            <Time>2022-07-05T16:29:56.000Z</Time>
            <Position>
              <LatitudeDegrees>44.291639663279056549072265625</LatitudeDegrees>
              <LongitudeDegrees>-1.0774425230920314788818359375</LongitudeDegrees>
            </Position>
            <AltitudeMeters>68.1999969482421875</AltitudeMeters>
            <DistanceMeters>NAN</DistanceMeters>
          </Trackpoint>
          <Trackpoint>
            <Time>2022-07-05T16:29:58.000Z</Time>
            <Position>
              <LatitudeDegrees>44.29160672239959239959716796875</LatitudeDegrees>
              <LongitudeDegrees>-1.0774006135761737823486328125</LongitudeDegrees>
            </Position>
            <AltitudeMeters>68</AltitudeMeters>
            <DistanceMeters>NAN</DistanceMeters>
          </Trackpoint>
          <Trackpoint>
            <Time>2022-07-05T16:30:04.000Z</Time>
            <Position>
              <LatitudeDegrees>44.2914716899394989013671875</LatitudeDegrees>
              <LongitudeDegrees>-1.07725770212709903717041015625</LongitudeDegrees>
            </Position>
            <AltitudeMeters>68.40000152587890625</AltitudeMeters>
            <DistanceMeters>NAN</DistanceMeters>
          </Trackpoint>
          <Trackpoint>
            <Time>2022-07-05T16:30:15.000Z</Time>
            <Position>
              <LatitudeDegrees>44.29123557172715663909912109375</LatitudeDegrees>
              <LongitudeDegrees>-1.07696835882961750030517578125</LongitudeDegrees>
            </Position>
            <AltitudeMeters>68.40000152587890625</AltitudeMeters>
            <DistanceMeters>NAN</DistanceMeters>
          </Trackpoint>
          <Trackpoint>
            <Time>2022-07-05T16:30:25.000Z</Time>
            <Position>
              <LatitudeDegrees>44.2910215817391872406005859375</LatitudeDegrees>
              <LongitudeDegrees>-1.0767303965985774993896484375</LongitudeDegrees>
            </Position>
            <AltitudeMeters>68.59999847412109375</AltitudeMeters>
            <DistanceMeters>NAN</DistanceMeters>
          </Trackpoint>
          <Trackpoint>
            <Time>2022-07-05T16:30:26.000Z</Time>
            <Position>
              <LatitudeDegrees>44.2910001240670680999755859375</LatitudeDegrees>
              <LongitudeDegrees>-1.076705418527126312255859375</LongitudeDegrees>
            </Position>
            <AltitudeMeters>68.59999847412109375</AltitudeMeters>
            <DistanceMeters>NAN</DistanceMeters>
          </Trackpoint>
          <Trackpoint>
            <Time>2022-07-05T16:30:33.000Z</Time>
            <Position>
              <LatitudeDegrees>44.2908837832510471343994140625</LatitudeDegrees>
              <LongitudeDegrees>-1.076563932001590728759765625</LongitudeDegrees>
            </Position>
            <AltitudeMeters>68.59999847412109375</AltitudeMeters>
            <DistanceMeters>NAN</DistanceMeters>
          </Trackpoint>
          <Trackpoint>
            <Time>2022-07-05T16:30:39.000Z</Time>
            <Position>
              <LatitudeDegrees>44.2907689511775970458984375</LatitudeDegrees>
              <LongitudeDegrees>-1.076450608670711517333984375</LongitudeDegrees>
            </Position>
            <AltitudeMeters>68.8000030517578125</AltitudeMeters>
            <DistanceMeters>NAN</DistanceMeters>
          </Trackpoint>
          <Trackpoint>
            <Time>2022-07-05T16:30:48.000Z</Time>
            <Position>
              <LatitudeDegrees>44.29059368558228015899658203125</LatitudeDegrees>
              <LongitudeDegrees>-1.07627098448574542999267578125</LongitudeDegrees>
            </Position>
            <AltitudeMeters>69</AltitudeMeters>
            <DistanceMeters>NAN</DistanceMeters>
          </Trackpoint>
          <Trackpoint>
            <Time>2022-07-05T16:30:59.000Z</Time>
            <Position>
              <LatitudeDegrees>44.29036301560699939727783203125</LatitudeDegrees>
              <LongitudeDegrees>-1.076003015041351318359375</LongitudeDegrees>
            </Position>
            <AltitudeMeters>68.8000030517578125</AltitudeMeters>
            <DistanceMeters>NAN</DistanceMeters>
          </Trackpoint>
          <Trackpoint>
            <Time>2022-07-05T16:31:06.000Z</Time>
            <Position>
              <LatitudeDegrees>44.29024063982069492340087890625</LatitudeDegrees>
              <LongitudeDegrees>-1.07582691125571727752685546875</LongitudeDegrees>
            </Position>
            <AltitudeMeters>69</AltitudeMeters>
            <DistanceMeters>NAN</DistanceMeters>
          </Trackpoint>
          <Trackpoint>
            <Time>2022-07-05T16:31:11.000Z</Time>
            <Position>
              <LatitudeDegrees>44.2901493608951568603515625</LatitudeDegrees>
              <LongitudeDegrees>-1.0757027752697467803955078125</LongitudeDegrees>
            </Position>
            <AltitudeMeters>68.8000030517578125</AltitudeMeters>
            <DistanceMeters>NAN</DistanceMeters>
          </Trackpoint>
          <Trackpoint>
            <Time>2022-07-05T16:31:14.000Z</Time>
            <Position>
              <LatitudeDegrees>44.29009781219065189361572265625</LatitudeDegrees>
              <LongitudeDegrees>-1.07564033009111881256103515625</LongitudeDegrees>
            </Position>
            <AltitudeMeters>68.59999847412109375</AltitudeMeters>
            <DistanceMeters>NAN</DistanceMeters>
          </Trackpoint>
          <Trackpoint>
            <Time>2022-07-05T16:31:18.000Z</Time>
            <Position>
              <LatitudeDegrees>44.29002505727112293243408203125</LatitudeDegrees>
              <LongitudeDegrees>-1.0755569301545619964599609375</LongitudeDegrees>
            </Position>
            <AltitudeMeters>68.8000030517578125</AltitudeMeters>
            <DistanceMeters>NAN</DistanceMeters>
          </Trackpoint>
          <Trackpoint>
            <Time>2022-07-05T16:31:22.000Z</Time>
            <Position>
              <LatitudeDegrees>44.28994341753423213958740234375</LatitudeDegrees>
              <LongitudeDegrees>-1.0754607059061527252197265625</LongitudeDegrees>
            </Position>
            <AltitudeMeters>69</AltitudeMeters>
            <DistanceMeters>NAN</DistanceMeters>
          </Trackpoint>
          <Trackpoint>
            <Time>2022-07-05T16:31:26.000Z</Time>
            <Position>
              <LatitudeDegrees>44.28987049497663974761962890625</LatitudeDegrees>
              <LongitudeDegrees>-1.07535920105874538421630859375</LongitudeDegrees>
            </Position>
            <AltitudeMeters>69</AltitudeMeters>
            <DistanceMeters>NAN</DistanceMeters>
          </Trackpoint>
          <Trackpoint>
            <Time>2022-07-05T16:31:36.000Z</Time>
            <Position>
              <LatitudeDegrees>44.28967871703207492828369140625</LatitudeDegrees>
              <LongitudeDegrees>-1.07512836344540119171142578125</LongitudeDegrees>
            </Position>
            <AltitudeMeters>68.8000030517578125</AltitudeMeters>
            <DistanceMeters>NAN</DistanceMeters>
          </Trackpoint>
          <Trackpoint>
            <Time>2022-07-05T16:31:43.000Z</Time>
            <Position>
              <LatitudeDegrees>44.28952415473759174346923828125</LatitudeDegrees>
              <LongitudeDegrees>-1.07498452998697757720947265625</LongitudeDegrees>
            </Position>
            <AltitudeMeters>69.59999847412109375</AltitudeMeters>
            <DistanceMeters>NAN</DistanceMeters>
          </Trackpoint>
          <Trackpoint>
            <Time>2022-07-05T16:31:44.000Z</Time>
            <Position>
              <LatitudeDegrees>44.28949884139001369476318359375</LatitudeDegrees>
              <LongitudeDegrees>-1.0749636590480804443359375</LongitudeDegrees>
            </Position>
            <AltitudeMeters>69.59999847412109375</AltitudeMeters>
            <DistanceMeters>NAN</DistanceMeters>
          </Trackpoint>
          <Trackpoint>
            <Time>2022-07-05T16:31:46.000Z</Time>
            <Position>
              <LatitudeDegrees>44.2894665710628032684326171875</LatitudeDegrees>
              <LongitudeDegrees>-1.07492535375058650970458984375</LongitudeDegrees>
            </Position>
            <AltitudeMeters>69.59999847412109375</AltitudeMeters>
            <DistanceMeters>NAN</DistanceMeters>
          </Trackpoint>
          <Trackpoint>
            <Time>2022-07-05T16:31:52.000Z</Time>
            <Position>
              <LatitudeDegrees>44.28934578783810138702392578125</LatitudeDegrees>
              <LongitudeDegrees>-1.07479669153690338134765625</LongitudeDegrees>
            </Position>
            <AltitudeMeters>69.8000030517578125</AltitudeMeters>
            <DistanceMeters>NAN</DistanceMeters>
          </Trackpoint>
          <Trackpoint>
            <Time>2022-07-05T16:31:54.000Z</Time>
            <Position>
              <LatitudeDegrees>44.2893130145967006683349609375</LatitudeDegrees>
              <LongitudeDegrees>-1.07475939206779003143310546875</LongitudeDegrees>
            </Position>
            <AltitudeMeters>69.8000030517578125</AltitudeMeters>
            <DistanceMeters>NAN</DistanceMeters>
          </Trackpoint>
          <Trackpoint>
            <Time>2022-07-05T16:31:57.000Z</Time>
            <Position>
              <LatitudeDegrees>44.2893106676638126373291015625</LatitudeDegrees>
              <LongitudeDegrees>-1.07475511729717254638671875</LongitudeDegrees>
            </Position>
            <AltitudeMeters>69.59999847412109375</AltitudeMeters>
            <DistanceMeters>NAN</DistanceMeters>
          </Trackpoint>
          <Trackpoint>
            <Time>2022-07-05T16:34:09.000Z</Time>
            <Position>
              <LatitudeDegrees>44.28927563130855560302734375</LatitudeDegrees>
              <LongitudeDegrees>-1.07470951974391937255859375</LongitudeDegrees>
            </Position>
            <AltitudeMeters>69.8000030517578125</AltitudeMeters>
            <DistanceMeters>NAN</DistanceMeters>
          </Trackpoint>
          <Trackpoint>
            <Time>2022-07-05T16:34:10.000Z</Time>
            <Position>
              <LatitudeDegrees>44.28925953805446624755859375</LatitudeDegrees>
              <LongitudeDegrees>-1.07469183392822742462158203125</LongitudeDegrees>
            </Position>
            <AltitudeMeters>69.8000030517578125</AltitudeMeters>
            <DistanceMeters>NAN</DistanceMeters>
          </Trackpoint>
          <Trackpoint>
            <Time>2022-07-05T16:34:15.000Z</Time>
            <Position>
              <LatitudeDegrees>44.2891571111977100372314453125</LatitudeDegrees>
              <LongitudeDegrees>-1.0745613276958465576171875</LongitudeDegrees>
            </Position>
            <AltitudeMeters>70.1999969482421875</AltitudeMeters>
            <DistanceMeters>NAN</DistanceMeters>
          </Trackpoint>
          <Trackpoint>
            <Time>2022-07-05T16:34:24.000Z</Time>
            <Position>
              <LatitudeDegrees>44.28898083977401256561279296875</LatitudeDegrees>
              <LongitudeDegrees>-1.0743546299636363983154296875</LongitudeDegrees>
            </Position>
            <AltitudeMeters>70</AltitudeMeters>
            <DistanceMeters>NAN</DistanceMeters>
          </Trackpoint>
          <Trackpoint>
            <Time>2022-07-05T16:34:26.000Z</Time>
            <Position>
              <LatitudeDegrees>44.28894077427685260772705078125</LatitudeDegrees>
              <LongitudeDegrees>-1.0743127204477787017822265625</LongitudeDegrees>
            </Position>
            <AltitudeMeters>70</AltitudeMeters>
            <DistanceMeters>NAN</DistanceMeters>
          </Trackpoint>
          <Trackpoint>
            <Time>2022-07-05T16:34:29.000Z</Time>
            <Position>
              <LatitudeDegrees>44.28887732326984405517578125</LatitudeDegrees>
              <LongitudeDegrees>-1.07424306683242321014404296875</LongitudeDegrees>
            </Position>
            <AltitudeMeters>70</AltitudeMeters>
            <DistanceMeters>NAN</DistanceMeters>
          </Trackpoint>
          <Trackpoint>
            <Time>2022-07-05T16:34:32.000Z</Time>
            <Position>
              <LatitudeDegrees>44.28881739266216754913330078125</LatitudeDegrees>
              <LongitudeDegrees>-1.0741745866835117340087890625</LongitudeDegrees>
            </Position>
            <AltitudeMeters>70</AltitudeMeters>
            <DistanceMeters>NAN</DistanceMeters>
          </Trackpoint>
          <Trackpoint>
            <Time>2022-07-05T16:34:35.000Z</Time>
            <Position>
              <LatitudeDegrees>44.28876156918704509735107421875</LatitudeDegrees>
              <LongitudeDegrees>-1.0741068609058856964111328125</LongitudeDegrees>
            </Position>
            <AltitudeMeters>69.8000030517578125</AltitudeMeters>
            <DistanceMeters>NAN</DistanceMeters>
          </Trackpoint>
          <Trackpoint>
            <Time>2022-07-05T16:34:37.000Z</Time>
            <Position>
              <LatitudeDegrees>44.28872502408921718597412109375</LatitudeDegrees>
              <LongitudeDegrees>-1.0740646161139011383056640625</LongitudeDegrees>
            </Position>
            <AltitudeMeters>69.8000030517578125</AltitudeMeters>
            <DistanceMeters>NAN</DistanceMeters>
          </Trackpoint>
          <Trackpoint>
            <Time>2022-07-05T16:34:39.000Z</Time>
            <Position>
              <LatitudeDegrees>44.2886894010007381439208984375</LatitudeDegrees>
              <LongitudeDegrees>-1.0740183480083942413330078125</LongitudeDegrees>
            </Position>
            <AltitudeMeters>70</AltitudeMeters>
            <DistanceMeters>NAN</DistanceMeters>
          </Trackpoint>
          <Trackpoint>
            <Time>2022-07-05T16:34:42.000Z</Time>
            <Position>
              <LatitudeDegrees>44.28863651119172573089599609375</LatitudeDegrees>
              <LongitudeDegrees>-1.07395037077367305755615234375</LongitudeDegrees>
            </Position>
            <AltitudeMeters>70</AltitudeMeters>
            <DistanceMeters>NAN</DistanceMeters>
          </Trackpoint>
          <Trackpoint>
            <Time>2022-07-05T16:34:50.000Z</Time>
            <Position>
              <LatitudeDegrees>44.28848094306886196136474609375</LatitudeDegrees>
              <LongitudeDegrees>-1.073771417140960693359375</LongitudeDegrees>
            </Position>
            <AltitudeMeters>70.1999969482421875</AltitudeMeters>
            <DistanceMeters>NAN</DistanceMeters>
          </Trackpoint>
          <Trackpoint>
            <Time>2022-07-05T16:34:54.000Z</Time>
            <Position>
              <LatitudeDegrees>44.28839762695133686065673828125</LatitudeDegrees>
              <LongitudeDegrees>-1.07367326505482196807861328125</LongitudeDegrees>
            </Position>
            <AltitudeMeters>70</AltitudeMeters>
            <DistanceMeters>NAN</DistanceMeters>
          </Trackpoint>
          <Trackpoint>
            <Time>2022-07-05T16:35:01.000Z</Time>
            <Position>
              <LatitudeDegrees>44.28826787509024143218994140625</LatitudeDegrees>
              <LongitudeDegrees>-1.0735224746167659759521484375</LongitudeDegrees>
            </Position>
            <AltitudeMeters>70.1999969482421875</AltitudeMeters>
            <DistanceMeters>NAN</DistanceMeters>
          </Trackpoint>
          <Trackpoint>
            <Time>2022-07-05T16:35:04.000Z</Time>
            <Position>
              <LatitudeDegrees>44.288212470710277557373046875</LatitudeDegrees>
              <LongitudeDegrees>-1.07345466502010822296142578125</LongitudeDegrees>
            </Position>
            <AltitudeMeters>70.1999969482421875</AltitudeMeters>
            <DistanceMeters>NAN</DistanceMeters>
          </Trackpoint>
          <Trackpoint>
            <Time>2022-07-05T16:35:13.000Z</Time>
            <Position>
              <LatitudeDegrees>44.2880393005907535552978515625</LatitudeDegrees>
              <LongitudeDegrees>-1.07324880547821521759033203125</LongitudeDegrees>
            </Position>
            <AltitudeMeters>70.1999969482421875</AltitudeMeters>
            <DistanceMeters>NAN</DistanceMeters>
          </Trackpoint>
          <Trackpoint>
            <Time>2022-07-05T16:35:23.000Z</Time>
            <Position>
              <LatitudeDegrees>44.28787912242114543914794921875</LatitudeDegrees>
              <LongitudeDegrees>-1.07304923236370086669921875</LongitudeDegrees>
            </Position>
            <AltitudeMeters>70.40000152587890625</AltitudeMeters>
            <DistanceMeters>NAN</DistanceMeters>
          </Trackpoint>
          <Trackpoint>
            <Time>2022-07-05T16:35:32.000Z</Time>
            <Position>
              <LatitudeDegrees>44.28773445077240467071533203125</LatitudeDegrees>
              <LongitudeDegrees>-1.07285988517105579376220703125</LongitudeDegrees>
            </Position>
            <AltitudeMeters>70.59999847412109375</AltitudeMeters>
            <DistanceMeters>NAN</DistanceMeters>
          </Trackpoint>
          <Trackpoint>
            <Time>2022-07-05T16:35:37.000Z</Time>
            <Position>
              <LatitudeDegrees>44.28763688541948795318603515625</LatitudeDegrees>
              <LongitudeDegrees>-1.07272828929126262664794921875</LongitudeDegrees>
            </Position>
            <AltitudeMeters>70.59999847412109375</AltitudeMeters>
            <DistanceMeters>NAN</DistanceMeters>
          </Trackpoint>
          <Trackpoint>
            <Time>2022-07-05T16:35:39.000Z</Time>
            <Position>
              <LatitudeDegrees>44.28759732283651828765869140625</LatitudeDegrees>
              <LongitudeDegrees>-1.07268579304218292236328125</LongitudeDegrees>
            </Position>
            <AltitudeMeters>70.59999847412109375</AltitudeMeters>
            <DistanceMeters>NAN</DistanceMeters>
          </Trackpoint>
          <Trackpoint>
            <Time>2022-07-05T16:35:46.000Z</Time>
            <Position>
              <LatitudeDegrees>44.28745281882584095001220703125</LatitudeDegrees>
              <LongitudeDegrees>-1.07251555658876895904541015625</LongitudeDegrees>
            </Position>
            <AltitudeMeters>70.59999847412109375</AltitudeMeters>
            <DistanceMeters>NAN</DistanceMeters>
          </Trackpoint>
          <Trackpoint>
            <Time>2022-07-05T16:35:50.000Z</Time>
            <Position>
              <LatitudeDegrees>44.28737587295472621917724609375</LatitudeDegrees>
              <LongitudeDegrees>-1.07241765595972537994384765625</LongitudeDegrees>
            </Position>
            <AltitudeMeters>70.59999847412109375</AltitudeMeters>
            <DistanceMeters>NAN</DistanceMeters>
          </Trackpoint>
          <Trackpoint>
            <Time>2022-07-05T16:36:02.000Z</Time>
            <Position>
              <LatitudeDegrees>44.28714788518846035003662109375</LatitudeDegrees>
              <LongitudeDegrees>-1.0721625946462154388427734375</LongitudeDegrees>
            </Position>
            <AltitudeMeters>70.59999847412109375</AltitudeMeters>
            <DistanceMeters>NAN</DistanceMeters>
          </Trackpoint>
          <Trackpoint>
            <Time>2022-07-05T16:36:16.000Z</Time>
            <Position>
              <LatitudeDegrees>44.2868996970355510711669921875</LatitudeDegrees>
              <LongitudeDegrees>-1.0718683898448944091796875</LongitudeDegrees>
            </Position>
            <AltitudeMeters>71.1999969482421875</AltitudeMeters>
            <DistanceMeters>NAN</DistanceMeters>
          </Trackpoint>
          <Trackpoint>
            <Time>2022-07-05T16:36:25.000Z</Time>
            <Position>
              <LatitudeDegrees>44.28676751442253589630126953125</LatitudeDegrees>
              <LongitudeDegrees>-1.0717181861400604248046875</LongitudeDegrees>
            </Position>
            <AltitudeMeters>71.40000152587890625</AltitudeMeters>
            <DistanceMeters>NAN</DistanceMeters>
          </Trackpoint>
          <Trackpoint>
            <Time>2022-07-05T16:36:32.000Z</Time>
            <Position>
              <LatitudeDegrees>44.2867092601954936981201171875</LatitudeDegrees>
              <LongitudeDegrees>-1.0716459341347217559814453125</LongitudeDegrees>
            </Position>
            <AltitudeMeters>71.40000152587890625</AltitudeMeters>
            <DistanceMeters>NAN</DistanceMeters>
          </Trackpoint>
          <Trackpoint>
            <Time>2022-07-05T16:36:40.000Z</Time>
            <Position>
              <LatitudeDegrees>44.2866522632539272308349609375</LatitudeDegrees>
              <LongitudeDegrees>-1.07157829217612743377685546875</LongitudeDegrees>
            </Position>
            <AltitudeMeters>71.59999847412109375</AltitudeMeters>
            <DistanceMeters>NAN</DistanceMeters>
          </Trackpoint>
          <Trackpoint>
            <Time>2022-07-05T16:36:43.000Z</Time>
            <Position>
              <LatitudeDegrees>44.28661094047129154205322265625</LatitudeDegrees>
              <LongitudeDegrees>-1.07153453864157199859619140625</LongitudeDegrees>
            </Position>
            <AltitudeMeters>71.59999847412109375</AltitudeMeters>
            <DistanceMeters>NAN</DistanceMeters>
          </Trackpoint>
          <Trackpoint>
            <Time>2022-07-05T16:36:50.000Z</Time>
            <Position>
              <LatitudeDegrees>44.28647750057280063629150390625</LatitudeDegrees>
              <LongitudeDegrees>-1.07137159444391727447509765625</LongitudeDegrees>
            </Position>
            <AltitudeMeters>71.59999847412109375</AltitudeMeters>
            <DistanceMeters>NAN</DistanceMeters>
          </Trackpoint>
          <Trackpoint>
            <Time>2022-07-05T16:36:54.000Z</Time>
            <Position>
              <LatitudeDegrees>44.2864049971103668212890625</LatitudeDegrees>
              <LongitudeDegrees>-1.0712945647537708282470703125</LongitudeDegrees>
            </Position>
            <AltitudeMeters>71.8000030517578125</AltitudeMeters>
            <DistanceMeters>NAN</DistanceMeters>
          </Trackpoint>
          <Trackpoint>
            <Time>2022-07-05T16:36:58.000Z</Time>
            <Position>
              <LatitudeDegrees>44.2863371036946773529052734375</LatitudeDegrees>
              <LongitudeDegrees>-1.07121116481721401214599609375</LongitudeDegrees>
            </Position>
            <AltitudeMeters>71.8000030517578125</AltitudeMeters>
            <DistanceMeters>NAN</DistanceMeters>
          </Trackpoint>
          <Trackpoint>
            <Time>2022-07-05T16:37:07.000Z</Time>
            <Position>
              <LatitudeDegrees>44.28617608733475208282470703125</LatitudeDegrees>
              <LongitudeDegrees>-1.071009747684001922607421875</LongitudeDegrees>
            </Position>
            <AltitudeMeters>71.59999847412109375</AltitudeMeters>
            <DistanceMeters>NAN</DistanceMeters>
          </Trackpoint>
          <Trackpoint>
            <Time>2022-07-05T16:37:15.000Z</Time>
            <Position>
              <LatitudeDegrees>44.28602370433509349822998046875</LatitudeDegrees>
              <LongitudeDegrees>-1.070815958082675933837890625</LongitudeDegrees>
            </Position>
            <AltitudeMeters>71.59999847412109375</AltitudeMeters>
            <DistanceMeters>NAN</DistanceMeters>
          </Trackpoint>
          <Trackpoint>
            <Time>2022-07-05T16:37:18.000Z</Time>
            <Position>
              <LatitudeDegrees>44.2859693057835102081298828125</LatitudeDegrees>
              <LongitudeDegrees>-1.07075938023626804351806640625</LongitudeDegrees>
            </Position>
            <AltitudeMeters>71.59999847412109375</AltitudeMeters>
            <DistanceMeters>NAN</DistanceMeters>
          </Trackpoint>
          <Trackpoint>
            <Time>2022-07-05T16:37:25.000Z</Time>
            <Position>
              <LatitudeDegrees>44.2858390510082244873046875</LatitudeDegrees>
              <LongitudeDegrees>-1.07059090398252010345458984375</LongitudeDegrees>
            </Position>
            <AltitudeMeters>72</AltitudeMeters>
            <DistanceMeters>NAN</DistanceMeters>
          </Trackpoint>
          <Trackpoint>
            <Time>2022-07-05T16:37:30.000Z</Time>
            <Position>
              <LatitudeDegrees>44.28572597913444042205810546875</LatitudeDegrees>
              <LongitudeDegrees>-1.07047322206199169158935546875</LongitudeDegrees>
            </Position>
            <AltitudeMeters>72</AltitudeMeters>
            <DistanceMeters>NAN</DistanceMeters>
          </Trackpoint>
          <Trackpoint>
            <Time>2022-07-05T16:37:36.000Z</Time>
            <Position>
              <LatitudeDegrees>44.285600669682025909423828125</LatitudeDegrees>
              <LongitudeDegrees>-1.070323772728443145751953125</LongitudeDegrees>
            </Position>
            <AltitudeMeters>72</AltitudeMeters>
            <DistanceMeters>NAN</DistanceMeters>
          </Trackpoint>
          <Trackpoint>
            <Time>2022-07-05T16:37:46.000Z</Time>
            <Position>
              <LatitudeDegrees>44.2853812314569950103759765625</LatitudeDegrees>
              <LongitudeDegrees>-1.0700728185474872589111328125</LongitudeDegrees>
            </Position>
            <AltitudeMeters>72.1999969482421875</AltitudeMeters>
            <DistanceMeters>NAN</DistanceMeters>
          </Trackpoint>
          <Trackpoint>
            <Time>2022-07-05T16:37:55.000Z</Time>
            <Position>
              <LatitudeDegrees>44.2852179519832134246826171875</LatitudeDegrees>
              <LongitudeDegrees>-1.0698766820132732391357421875</LongitudeDegrees>
            </Position>
            <AltitudeMeters>72.40000152587890625</AltitudeMeters>
            <DistanceMeters>NAN</DistanceMeters>
          </Trackpoint>
          <Trackpoint>
            <Time>2022-07-05T16:38:02.000Z</Time>
            <Position>
              <LatitudeDegrees>44.28508493117988109588623046875</LatitudeDegrees>
              <LongitudeDegrees>-1.069737710058689117431640625</LongitudeDegrees>
            </Position>
            <AltitudeMeters>72.59999847412109375</AltitudeMeters>
            <DistanceMeters>NAN</DistanceMeters>
          </Trackpoint>
          <Trackpoint>
            <Time>2022-07-05T16:38:09.000Z</Time>
            <Position>
              <LatitudeDegrees>44.284945540130138397216796875</LatitudeDegrees>
              <LongitudeDegrees>-1.0696051083505153656005859375</LongitudeDegrees>
            </Position>
            <AltitudeMeters>72.8000030517578125</AltitudeMeters>
            <DistanceMeters>NAN</DistanceMeters>
          </Trackpoint>
          <Trackpoint>
            <Time>2022-07-05T16:38:12.000Z</Time>
            <Position>
              <LatitudeDegrees>44.2848950810730457305908203125</LatitudeDegrees>
              <LongitudeDegrees>-1.069544255733489990234375</LongitudeDegrees>
            </Position>
            <AltitudeMeters>73</AltitudeMeters>
            <DistanceMeters>NAN</DistanceMeters>
          </Trackpoint>
          <Trackpoint>
            <Time>2022-07-05T16:38:22.000Z</Time>
            <Position>
              <LatitudeDegrees>44.28472467698156833648681640625</LatitudeDegrees>
              <LongitudeDegrees>-1.06932900846004486083984375</LongitudeDegrees>
            </Position>
            <AltitudeMeters>73</AltitudeMeters>
            <DistanceMeters>NAN</DistanceMeters>
          </Trackpoint>
          <Trackpoint>
            <Time>2022-07-05T16:38:30.000Z</Time>
            <Position>
              <LatitudeDegrees>44.28461353294551372528076171875</LatitudeDegrees>
              <LongitudeDegrees>-1.06918643228709697723388671875</LongitudeDegrees>
            </Position>
            <AltitudeMeters>73.40000152587890625</AltitudeMeters>
            <DistanceMeters>NAN</DistanceMeters>
          </Trackpoint>
          <Trackpoint>
            <Time>2022-07-05T16:38:31.000Z</Time>
            <Position>
              <LatitudeDegrees>44.2845966853201389312744140625</LatitudeDegrees>
              <LongitudeDegrees>-1.06916547752916812896728515625</LongitudeDegrees>
            </Position>
            <AltitudeMeters>73.40000152587890625</AltitudeMeters>
            <DistanceMeters>NAN</DistanceMeters>
          </Trackpoint>
          <Trackpoint>
            <Time>2022-07-05T16:38:40.000Z</Time>
            <Position>
              <LatitudeDegrees>44.28444338031113147735595703125</LatitudeDegrees>
              <LongitudeDegrees>-1.069008819758892059326171875</LongitudeDegrees>
            </Position>
            <AltitudeMeters>73.59999847412109375</AltitudeMeters>
            <DistanceMeters>NAN</DistanceMeters>
          </Trackpoint>
          <Trackpoint>
            <Time>2022-07-05T16:38:51.000Z</Time>
            <Position>
              <LatitudeDegrees>44.28423332981765270233154296875</LatitudeDegrees>
              <LongitudeDegrees>-1.0687491483986377716064453125</LongitudeDegrees>
            </Position>
            <AltitudeMeters>73.59999847412109375</AltitudeMeters>
            <DistanceMeters>NAN</DistanceMeters>
          </Trackpoint>
          <Trackpoint>
            <Time>2022-07-05T16:38:55.000Z</Time>
            <Position>
              <LatitudeDegrees>44.28416225127875804901123046875</LatitudeDegrees>
              <LongitudeDegrees>-1.06865015812218189239501953125</LongitudeDegrees>
            </Position>
            <AltitudeMeters>73.59999847412109375</AltitudeMeters>
            <DistanceMeters>NAN</DistanceMeters>
          </Trackpoint>
          <Trackpoint>
            <Time>2022-07-05T16:39:01.000Z</Time>
            <Position>
              <LatitudeDegrees>44.2840223573148250579833984375</LatitudeDegrees>
              <LongitudeDegrees>-1.06850800104439258575439453125</LongitudeDegrees>
            </Position>
            <AltitudeMeters>73.40000152587890625</AltitudeMeters>
            <DistanceMeters>NAN</DistanceMeters>
          </Trackpoint>
          <Trackpoint>
            <Time>2022-07-05T16:39:13.000Z</Time>
            <Position>
              <LatitudeDegrees>44.28381607867777347564697265625</LatitudeDegrees>
              <LongitudeDegrees>-1.06826676987111568450927734375</LongitudeDegrees>
            </Position>
            <AltitudeMeters>73.59999847412109375</AltitudeMeters>
            <DistanceMeters>NAN</DistanceMeters>
          </Trackpoint>
          <Trackpoint>
            <Time>2022-07-05T16:39:18.000Z</Time>
            <Position>
              <LatitudeDegrees>44.283770062029361724853515625</LatitudeDegrees>
              <LongitudeDegrees>-1.06823810376226902008056640625</LongitudeDegrees>
            </Position>
            <AltitudeMeters>73.59999847412109375</AltitudeMeters>
            <DistanceMeters>NAN</DistanceMeters>
          </Trackpoint>
          <Trackpoint>
            <Time>2022-07-05T16:39:47.000Z</Time>
            <Position>
              <LatitudeDegrees>44.2837102152407169342041015625</LatitudeDegrees>
              <LongitudeDegrees>-1.06825017370283603668212890625</LongitudeDegrees>
            </Position>
            <AltitudeMeters>73.8000030517578125</AltitudeMeters>
            <DistanceMeters>NAN</DistanceMeters>
          </Trackpoint>
          <Trackpoint>
            <Time>2022-07-05T16:39:48.000Z</Time>
            <Position>
              <LatitudeDegrees>44.2836892604827880859375</LatitudeDegrees>
              <LongitudeDegrees>-1.06826459057629108428955078125</LongitudeDegrees>
            </Position>
            <AltitudeMeters>73.8000030517578125</AltitudeMeters>
            <DistanceMeters>NAN</DistanceMeters>
          </Trackpoint>
          <Trackpoint>
            <Time>2022-07-05T16:39:49.000Z</Time>
            <Position>
              <LatitudeDegrees>44.2836666293442249298095703125</LatitudeDegrees>
              <LongitudeDegrees>-1.06828269548714160919189453125</LongitudeDegrees>
            </Position>
            <AltitudeMeters>73.8000030517578125</AltitudeMeters>
            <DistanceMeters>NAN</DistanceMeters>
          </Trackpoint>
          <Trackpoint>
            <Time>2022-07-05T16:39:50.000Z</Time>
            <Position>
              <LatitudeDegrees>44.28364223800599575042724609375</LatitudeDegrees>
              <LongitudeDegrees>-1.06830348260700702667236328125</LongitudeDegrees>
            </Position>
            <AltitudeMeters>73.8000030517578125</AltitudeMeters>
            <DistanceMeters>NAN</DistanceMeters>
          </Trackpoint>
          <Trackpoint>
            <Time>2022-07-05T16:39:55.000Z</Time>
            <Position>
              <LatitudeDegrees>44.283508546650409698486328125</LatitudeDegrees>
              <LongitudeDegrees>-1.06840766966342926025390625</LongitudeDegrees>
            </Position>
            <AltitudeMeters>73.8000030517578125</AltitudeMeters>
            <DistanceMeters>NAN</DistanceMeters>
          </Trackpoint>
          <Trackpoint>
            <Time>2022-07-05T16:40:01.000Z</Time>
            <Position>
              <LatitudeDegrees>44.28333227522671222686767578125</LatitudeDegrees>
              <LongitudeDegrees>-1.06853281147778034210205078125</LongitudeDegrees>
            </Position>
            <AltitudeMeters>73.59999847412109375</AltitudeMeters>
            <DistanceMeters>NAN</DistanceMeters>
          </Trackpoint>
          <Trackpoint>
            <Time>2022-07-05T16:40:05.000Z</Time>
            <Position>
              <LatitudeDegrees>44.28326035849750041961669921875</LatitudeDegrees>
              <LongitudeDegrees>-1.06859550811350345611572265625</LongitudeDegrees>
            </Position>
            <AltitudeMeters>73.59999847412109375</AltitudeMeters>
            <DistanceMeters>NAN</DistanceMeters>
          </Trackpoint>
          <Trackpoint>
            <Time>2022-07-05T16:40:09.000Z</Time>
            <Position>
              <LatitudeDegrees>44.28327242843806743621826171875</LatitudeDegrees>
              <LongitudeDegrees>-1.06859617866575717926025390625</LongitudeDegrees>
            </Position>
            <AltitudeMeters>73.1999969482421875</AltitudeMeters>
            <DistanceMeters>NAN</DistanceMeters>
          </Trackpoint>
          <Trackpoint>
            <Time>2022-07-05T16:40:10.000Z</Time>
            <Position>
              <LatitudeDegrees>44.28327242843806743621826171875</LatitudeDegrees>
              <LongitudeDegrees>-1.06859617866575717926025390625</LongitudeDegrees>
            </Position>
            <AltitudeMeters>72.8000030517578125</AltitudeMeters>
            <DistanceMeters>NAN</DistanceMeters>
          </Trackpoint>
          <Trackpoint>
            <Time>2022-07-05T16:40:51.000Z</Time>
            <Position>
              <LatitudeDegrees>44.28324745036661624908447265625</LatitudeDegrees>
              <LongitudeDegrees>-1.06862585060298442840576171875</LongitudeDegrees>
            </Position>
            <AltitudeMeters>73.40000152587890625</AltitudeMeters>
            <DistanceMeters>NAN</DistanceMeters>
          </Trackpoint>
          <Trackpoint>
            <Time>2022-07-05T16:40:53.000Z</Time>
            <Position>
              <LatitudeDegrees>44.2832032777369022369384765625</LatitudeDegrees>
              <LongitudeDegrees>-1.06865284033119678497314453125</LongitudeDegrees>
            </Position>
            <AltitudeMeters>73.40000152587890625</AltitudeMeters>
            <DistanceMeters>NAN</DistanceMeters>
          </Trackpoint>
          <Trackpoint>
            <Time>2022-07-05T16:40:59.000Z</Time>
            <Position>
              <LatitudeDegrees>44.28303941152989864349365234375</LatitudeDegrees>
              <LongitudeDegrees>-1.0687578655779361724853515625</LongitudeDegrees>
            </Position>
            <AltitudeMeters>73.1999969482421875</AltitudeMeters>
            <DistanceMeters>NAN</DistanceMeters>
          </Trackpoint>
          <Trackpoint>
            <Time>2022-07-05T16:41:06.000Z</Time>
            <Position>
              <LatitudeDegrees>44.28284637629985809326171875</LatitudeDegrees>
              <LongitudeDegrees>-1.0689120925962924957275390625</LongitudeDegrees>
            </Position>
            <AltitudeMeters>73.1999969482421875</AltitudeMeters>
            <DistanceMeters>NAN</DistanceMeters>
          </Trackpoint>
          <Trackpoint>
            <Time>2022-07-05T16:41:11.000Z</Time>
            <Position>
              <LatitudeDegrees>44.282678067684173583984375</LatitudeDegrees>
              <LongitudeDegrees>-1.06902633793652057647705078125</LongitudeDegrees>
            </Position>
            <AltitudeMeters>73.1999969482421875</AltitudeMeters>
            <DistanceMeters>NAN</DistanceMeters>
          </Trackpoint>
          <Trackpoint>
            <Time>2022-07-05T16:41:15.000Z</Time>
            <Position>
              <LatitudeDegrees>44.2825481481850147247314453125</LatitudeDegrees>
              <LongitudeDegrees>-1.06909758411347866058349609375</LongitudeDegrees>
            </Position>
            <AltitudeMeters>73</AltitudeMeters>
            <DistanceMeters>NAN</DistanceMeters>
          </Trackpoint>
          <Trackpoint>
            <Time>2022-07-05T16:41:23.000Z</Time>
            <Position>
              <LatitudeDegrees>44.2822681926190853118896484375</LatitudeDegrees>
              <LongitudeDegrees>-1.06924242340028285980224609375</LongitudeDegrees>
            </Position>
            <AltitudeMeters>72.8000030517578125</AltitudeMeters>
            <DistanceMeters>NAN</DistanceMeters>
          </Trackpoint>
          <Trackpoint>
            <Time>2022-07-05T16:41:24.000Z</Time>
            <Position>
              <LatitudeDegrees>44.28223558701574802398681640625</LatitudeDegrees>
              <LongitudeDegrees>-1.0692691616714000701904296875</LongitudeDegrees>
            </Position>
            <AltitudeMeters>72.8000030517578125</AltitudeMeters>
            <DistanceMeters>NAN</DistanceMeters>
          </Trackpoint>
          <Trackpoint>
            <Time>2022-07-05T16:41:26.000Z</Time>
            <Position>
              <LatitudeDegrees>44.28217875771224498748779296875</LatitudeDegrees>
              <LongitudeDegrees>-1.06931819580495357513427734375</LongitudeDegrees>
            </Position>
            <AltitudeMeters>72.8000030517578125</AltitudeMeters>
            <DistanceMeters>NAN</DistanceMeters>
          </Trackpoint>
          <Trackpoint>
            <Time>2022-07-05T16:41:27.000Z</Time>
            <Position>
              <LatitudeDegrees>44.28213919512927532196044921875</LatitudeDegrees>
              <LongitudeDegrees>-1.06934686191380023956298828125</LongitudeDegrees>
            </Position>
            <AltitudeMeters>72.8000030517578125</AltitudeMeters>
            <DistanceMeters>NAN</DistanceMeters>
          </Trackpoint>
          <Trackpoint>
            <Time>2022-07-05T16:41:37.000Z</Time>
            <Position>
              <LatitudeDegrees>44.2818507738411426544189453125</LatitudeDegrees>
              <LongitudeDegrees>-1.06953796930611133575439453125</LongitudeDegrees>
            </Position>
            <AltitudeMeters>72.59999847412109375</AltitudeMeters>
            <DistanceMeters>NAN</DistanceMeters>
          </Trackpoint>
          <Trackpoint>
            <Time>2022-07-05T16:41:45.000Z</Time>
            <Position>
              <LatitudeDegrees>44.28160090930759906768798828125</LatitudeDegrees>
              <LongitudeDegrees>-1.069706864655017852783203125</LongitudeDegrees>
            </Position>
            <AltitudeMeters>73</AltitudeMeters>
            <DistanceMeters>NAN</DistanceMeters>
          </Trackpoint>
          <Trackpoint>
            <Time>2022-07-05T16:41:52.000Z</Time>
            <Position>
              <LatitudeDegrees>44.28140326403081417083740234375</LatitudeDegrees>
              <LongitudeDegrees>-1.0698585771024227142333984375</LongitudeDegrees>
            </Position>
            <AltitudeMeters>73</AltitudeMeters>
            <DistanceMeters>NAN</DistanceMeters>
          </Trackpoint>
          <Trackpoint>
            <Time>2022-07-05T16:41:54.000Z</Time>
            <Position>
              <LatitudeDegrees>44.281328581273555755615234375</LatitudeDegrees>
              <LongitudeDegrees>-1.06989436782896518707275390625</LongitudeDegrees>
            </Position>
            <AltitudeMeters>73.1999969482421875</AltitudeMeters>
            <DistanceMeters>NAN</DistanceMeters>
          </Trackpoint>
          <Trackpoint>
            <Time>2022-07-05T16:42:01.000Z</Time>
            <Position>
              <LatitudeDegrees>44.28108274005353450775146484375</LatitudeDegrees>
              <LongitudeDegrees>-1.0700605809688568115234375</LongitudeDegrees>
            </Position>
            <AltitudeMeters>73.1999969482421875</AltitudeMeters>
            <DistanceMeters>NAN</DistanceMeters>
          </Trackpoint>
          <Trackpoint>
            <Time>2022-07-05T16:42:04.000Z</Time>
            <Position>
              <LatitudeDegrees>44.28098768927156925201416015625</LatitudeDegrees>
              <LongitudeDegrees>-1.07012604363262653350830078125</LongitudeDegrees>
            </Position>
            <AltitudeMeters>73.1999969482421875</AltitudeMeters>
            <DistanceMeters>NAN</DistanceMeters>
          </Trackpoint>
          <Trackpoint>
            <Time>2022-07-05T16:42:08.000Z</Time>
            <Position>
              <LatitudeDegrees>44.2808392457664012908935546875</LatitudeDegrees>
              <LongitudeDegrees>-1.07022461481392383575439453125</LongitudeDegrees>
            </Position>
            <AltitudeMeters>73.1999969482421875</AltitudeMeters>
            <DistanceMeters>NAN</DistanceMeters>
          </Trackpoint>
          <Trackpoint>
            <Time>2022-07-05T16:42:12.000Z</Time>
            <Position>
              <LatitudeDegrees>44.2806645669043064117431640625</LatitudeDegrees>
              <LongitudeDegrees>-1.07035101391375064849853515625</LongitudeDegrees>
            </Position>
            <AltitudeMeters>73.1999969482421875</AltitudeMeters>
            <DistanceMeters>NAN</DistanceMeters>
          </Trackpoint>
          <Trackpoint>
            <Time>2022-07-05T16:42:14.000Z</Time>
            <Position>
              <LatitudeDegrees>44.28057588636875152587890625</LatitudeDegrees>
              <LongitudeDegrees>-1.0704017244279384613037109375</LongitudeDegrees>
            </Position>
            <AltitudeMeters>73.1999969482421875</AltitudeMeters>
            <DistanceMeters>NAN</DistanceMeters>
          </Trackpoint>
          <Trackpoint>
            <Time>2022-07-05T16:42:15.000Z</Time>
            <Position>
              <LatitudeDegrees>44.28053221665322780609130859375</LatitudeDegrees>
              <LongitudeDegrees>-1.0704325698316097259521484375</LongitudeDegrees>
            </Position>
            <AltitudeMeters>73.1999969482421875</AltitudeMeters>
            <DistanceMeters>NAN</DistanceMeters>
          </Trackpoint>
          <Trackpoint>
            <Time>2022-07-05T16:42:20.000Z</Time>
            <Position>
              <LatitudeDegrees>44.280344545841217041015625</LatitudeDegrees>
              <LongitudeDegrees>-1.07058051042258739471435546875</LongitudeDegrees>
            </Position>
            <AltitudeMeters>73.1999969482421875</AltitudeMeters>
            <DistanceMeters>NAN</DistanceMeters>
          </Trackpoint>
          <Trackpoint>
            <Time>2022-07-05T16:42:26.000Z</Time>
            <Position>
              <LatitudeDegrees>44.28012636490166187286376953125</LatitudeDegrees>
              <LongitudeDegrees>-1.07075585983693599700927734375</LongitudeDegrees>
            </Position>
            <AltitudeMeters>73.1999969482421875</AltitudeMeters>
            <DistanceMeters>NAN</DistanceMeters>
          </Trackpoint>
          <Trackpoint>
            <Time>2022-07-05T16:42:29.000Z</Time>
            <Position>
              <LatitudeDegrees>44.28002075292170047760009765625</LatitudeDegrees>
              <LongitudeDegrees>-1.0708385892212390899658203125</LongitudeDegrees>
            </Position>
            <AltitudeMeters>73.40000152587890625</AltitudeMeters>
            <DistanceMeters>NAN</DistanceMeters>
          </Trackpoint>
          <Trackpoint>
            <Time>2022-07-05T16:42:36.000Z</Time>
            <Position>
              <LatitudeDegrees>44.27981321699917316436767578125</LatitudeDegrees>
              <LongitudeDegrees>-1.07104520313441753387451171875</LongitudeDegrees>
            </Position>
            <AltitudeMeters>73.40000152587890625</AltitudeMeters>
            <DistanceMeters>NAN</DistanceMeters>
          </Trackpoint>
          <Trackpoint>
            <Time>2022-07-05T16:42:42.000Z</Time>
            <Position>
              <LatitudeDegrees>44.27964323200285434722900390625</LatitudeDegrees>
              <LongitudeDegrees>-1.0712439380586147308349609375</LongitudeDegrees>
            </Position>
            <AltitudeMeters>73.1999969482421875</AltitudeMeters>
            <DistanceMeters>NAN</DistanceMeters>
          </Trackpoint>
          <Trackpoint>
            <Time>2022-07-05T16:42:51.000Z</Time>
            <Position>
              <LatitudeDegrees>44.2793975584208965301513671875</LatitudeDegrees>
              <LongitudeDegrees>-1.07148475013673305511474609375</LongitudeDegrees>
            </Position>
            <AltitudeMeters>73</AltitudeMeters>
            <DistanceMeters>NAN</DistanceMeters>
          </Trackpoint>
          <Trackpoint>
            <Time>2022-07-05T16:42:59.000Z</Time>
            <Position>
              <LatitudeDegrees>44.27918558008968830108642578125</LatitudeDegrees>
              <LongitudeDegrees>-1.07172849588096141815185546875</LongitudeDegrees>
            </Position>
            <AltitudeMeters>72.8000030517578125</AltitudeMeters>
            <DistanceMeters>NAN</DistanceMeters>
          </Trackpoint>
          <Trackpoint>
            <Time>2022-07-05T16:43:04.000Z</Time>
            <Position>
              <LatitudeDegrees>44.27905214019119739532470703125</LatitudeDegrees>
              <LongitudeDegrees>-1.07185925357043743133544921875</LongitudeDegrees>
            </Position>
            <AltitudeMeters>72.8000030517578125</AltitudeMeters>
            <DistanceMeters>NAN</DistanceMeters>
          </Trackpoint>
          <Trackpoint>
            <Time>2022-07-05T16:43:14.000Z</Time>
            <Position>
              <LatitudeDegrees>44.27875709719955921173095703125</LatitudeDegrees>
              <LongitudeDegrees>-1.07216737233102321624755859375</LongitudeDegrees>
            </Position>
            <AltitudeMeters>72.8000030517578125</AltitudeMeters>
            <DistanceMeters>NAN</DistanceMeters>
          </Trackpoint>
          <Trackpoint>
            <Time>2022-07-05T16:43:20.000Z</Time>
            <Position>
              <LatitudeDegrees>44.27857319824397563934326171875</LatitudeDegrees>
              <LongitudeDegrees>-1.07233450748026371002197265625</LongitudeDegrees>
            </Position>
            <AltitudeMeters>72.59999847412109375</AltitudeMeters>
            <DistanceMeters>NAN</DistanceMeters>
          </Trackpoint>
          <Trackpoint>
            <Time>2022-07-05T16:43:28.000Z</Time>
            <Position>
              <LatitudeDegrees>44.27834219299256801605224609375</LatitudeDegrees>
              <LongitudeDegrees>-1.072554029524326324462890625</LongitudeDegrees>
            </Position>
            <AltitudeMeters>72.59999847412109375</AltitudeMeters>
            <DistanceMeters>NAN</DistanceMeters>
          </Trackpoint>
          <Trackpoint>
            <Time>2022-07-05T16:43:35.000Z</Time>
            <Position>
              <LatitudeDegrees>44.278128705918788909912109375</LatitudeDegrees>
              <LongitudeDegrees>-1.07279182411730289459228515625</LongitudeDegrees>
            </Position>
            <AltitudeMeters>72.59999847412109375</AltitudeMeters>
            <DistanceMeters>NAN</DistanceMeters>
          </Trackpoint>
          <Trackpoint>
            <Time>2022-07-05T16:43:36.000Z</Time>
            <Position>
              <LatitudeDegrees>44.2780926637351512908935546875</LatitudeDegrees>
              <LongitudeDegrees>-1.0728244297206401824951171875</LongitudeDegrees>
            </Position>
            <AltitudeMeters>72.59999847412109375</AltitudeMeters>
            <DistanceMeters>NAN</DistanceMeters>
          </Trackpoint>
          <Trackpoint>
            <Time>2022-07-05T16:43:41.000Z</Time>
            <Position>
              <LatitudeDegrees>44.27792586386203765869140625</LatitudeDegrees>
              <LongitudeDegrees>-1.07297807000577449798583984375</LongitudeDegrees>
            </Position>
            <AltitudeMeters>72.8000030517578125</AltitudeMeters>
            <DistanceMeters>NAN</DistanceMeters>
          </Trackpoint>
          <Trackpoint>
            <Time>2022-07-05T16:43:45.000Z</Time>
            <Position>
              <LatitudeDegrees>44.27780273370444774627685546875</LatitudeDegrees>
              <LongitudeDegrees>-1.07310363091528415679931640625</LongitudeDegrees>
            </Position>
            <AltitudeMeters>72.8000030517578125</AltitudeMeters>
            <DistanceMeters>NAN</DistanceMeters>
          </Trackpoint>
          <Trackpoint>
            <Time>2022-07-05T16:43:52.000Z</Time>
            <Position>
              <LatitudeDegrees>44.277598299086093902587890625</LatitudeDegrees>
              <LongitudeDegrees>-1.07330580241978168487548828125</LongitudeDegrees>
            </Position>
            <AltitudeMeters>73</AltitudeMeters>
            <DistanceMeters>NAN</DistanceMeters>
          </Trackpoint>
          <Trackpoint>
            <Time>2022-07-05T16:43:59.000Z</Time>
            <Position>
              <LatitudeDegrees>44.27742973901331424713134765625</LatitudeDegrees>
              <LongitudeDegrees>-1.0734426788985729217529296875</LongitudeDegrees>
            </Position>
            <AltitudeMeters>72.8000030517578125</AltitudeMeters>
            <DistanceMeters>NAN</DistanceMeters>
          </Trackpoint>
          <Trackpoint>
            <Time>2022-07-05T16:44:04.000Z</Time>
            <Position>
              <LatitudeDegrees>44.2773848958313465118408203125</LatitudeDegrees>
              <LongitudeDegrees>-1.0734460316598415374755859375</LongitudeDegrees>
            </Position>
            <AltitudeMeters>72.8000030517578125</AltitudeMeters>
            <DistanceMeters>NAN</DistanceMeters>
          </Trackpoint>
          <Trackpoint>
            <Time>2022-07-05T16:45:54.000Z</Time>
            <Position>
              <LatitudeDegrees>44.27736486308276653289794921875</LatitudeDegrees>
              <LongitudeDegrees>-1.07348249293863773345947265625</LongitudeDegrees>
            </Position>
            <AltitudeMeters>74.40000152587890625</AltitudeMeters>
            <DistanceMeters>NAN</DistanceMeters>
          </Trackpoint>
          <Trackpoint>
            <Time>2022-07-05T16:45:55.000Z</Time>
            <Position>
              <LatitudeDegrees>44.27735698409378528594970703125</LatitudeDegrees>
              <LongitudeDegrees>-1.07351115904748439788818359375</LongitudeDegrees>
            </Position>
            <AltitudeMeters>74.40000152587890625</AltitudeMeters>
            <DistanceMeters>NAN</DistanceMeters>
          </Trackpoint>
          <Trackpoint>
            <Time>2022-07-05T16:45:56.000Z</Time>
            <Position>
              <LatitudeDegrees>44.277347512543201446533203125</LatitudeDegrees>
              <LongitudeDegrees>-1.0735472850501537322998046875</LongitudeDegrees>
            </Position>
            <AltitudeMeters>74.40000152587890625</AltitudeMeters>
            <DistanceMeters>NAN</DistanceMeters>
          </Trackpoint>
          <Trackpoint>
            <Time>2022-07-05T16:46:00.000Z</Time>
            <Position>
              <LatitudeDegrees>44.27725573070347309112548828125</LatitudeDegrees>
              <LongitudeDegrees>-1.07369120232760906219482421875</LongitudeDegrees>
            </Position>
            <AltitudeMeters>74.1999969482421875</AltitudeMeters>
            <DistanceMeters>NAN</DistanceMeters>
          </Trackpoint>
          <Trackpoint>
            <Time>2022-07-05T16:46:01.000Z</Time>
            <Position>
              <LatitudeDegrees>44.2772232927381992340087890625</LatitudeDegrees>
              <LongitudeDegrees>-1.073720119893550872802734375</LongitudeDegrees>
            </Position>
            <AltitudeMeters>74.1999969482421875</AltitudeMeters>
            <DistanceMeters>NAN</DistanceMeters>
          </Trackpoint>
          <Trackpoint>
            <Time>2022-07-05T16:46:09.000Z</Time>
            <Position>
              <LatitudeDegrees>44.27694342099130153656005859375</LatitudeDegrees>
              <LongitudeDegrees>-1.0739858262240886688232421875</LongitudeDegrees>
            </Position>
            <AltitudeMeters>74.40000152587890625</AltitudeMeters>
            <DistanceMeters>NAN</DistanceMeters>
          </Trackpoint>
          <Trackpoint>
            <Time>2022-07-05T16:46:15.000Z</Time>
            <Position>
              <LatitudeDegrees>44.2767378129065036773681640625</LatitudeDegrees>
              <LongitudeDegrees>-1.074195206165313720703125</LongitudeDegrees>
            </Position>
            <AltitudeMeters>74.59999847412109375</AltitudeMeters>
            <DistanceMeters>NAN</DistanceMeters>
          </Trackpoint>
          <Trackpoint>
            <Time>2022-07-05T16:46:18.000Z</Time>
            <Position>
              <LatitudeDegrees>44.27663077600300312042236328125</LatitudeDegrees>
              <LongitudeDegrees>-1.07429805211722850799560546875</LongitudeDegrees>
            </Position>
            <AltitudeMeters>74.59999847412109375</AltitudeMeters>
            <DistanceMeters>NAN</DistanceMeters>
          </Trackpoint>
          <Trackpoint>
            <Time>2022-07-05T16:46:28.000Z</Time>
            <Position>
              <LatitudeDegrees>44.2762838490307331085205078125</LatitudeDegrees>
              <LongitudeDegrees>-1.074640117585659027099609375</LongitudeDegrees>
            </Position>
            <AltitudeMeters>74.59999847412109375</AltitudeMeters>
            <DistanceMeters>NAN</DistanceMeters>
          </Trackpoint>
          <Trackpoint>
            <Time>2022-07-05T16:46:36.000Z</Time>
            <Position>
              <LatitudeDegrees>44.27597681991755962371826171875</LatitudeDegrees>
              <LongitudeDegrees>-1.0749574564397335052490234375</LongitudeDegrees>
            </Position>
            <AltitudeMeters>74.59999847412109375</AltitudeMeters>
            <DistanceMeters>NAN</DistanceMeters>
          </Trackpoint>
          <Trackpoint>
            <Time>2022-07-05T16:46:44.000Z</Time>
            <Position>
              <LatitudeDegrees>44.27566920407116413116455078125</LatitudeDegrees>
              <LongitudeDegrees>-1.075264401733875274658203125</LongitudeDegrees>
            </Position>
            <AltitudeMeters>74.59999847412109375</AltitudeMeters>
            <DistanceMeters>NAN</DistanceMeters>
          </Trackpoint>
          <Trackpoint>
            <Time>2022-07-05T16:46:53.000Z</Time>
            <Position>
              <LatitudeDegrees>44.27530308254063129425048828125</LatitudeDegrees>
              <LongitudeDegrees>-1.07563412748277187347412109375</LongitudeDegrees>
            </Position>
            <AltitudeMeters>74.59999847412109375</AltitudeMeters>
            <DistanceMeters>NAN</DistanceMeters>
          </Trackpoint>
          <Trackpoint>
            <Time>2022-07-05T16:46:55.000Z</Time>
            <Position>
              <LatitudeDegrees>44.27522353827953338623046875</LatitudeDegrees>
              <LongitudeDegrees>-1.075718700885772705078125</LongitudeDegrees>
            </Position>
            <AltitudeMeters>74.40000152587890625</AltitudeMeters>
            <DistanceMeters>NAN</DistanceMeters>
          </Trackpoint>
          <Trackpoint>
            <Time>2022-07-05T16:47:00.000Z</Time>
            <Position>
              <LatitudeDegrees>44.2750225402414798736572265625</LatitudeDegrees>
              <LongitudeDegrees>-1.0759173519909381866455078125</LongitudeDegrees>
            </Position>
            <AltitudeMeters>74.40000152587890625</AltitudeMeters>
            <DistanceMeters>NAN</DistanceMeters>
          </Trackpoint>
          <Trackpoint>
            <Time>2022-07-05T16:47:06.000Z</Time>
            <Position>
              <LatitudeDegrees>44.27477904595434665679931640625</LatitudeDegrees>
              <LongitudeDegrees>-1.07616730034351348876953125</LongitudeDegrees>
            </Position>
            <AltitudeMeters>74.59999847412109375</AltitudeMeters>
            <DistanceMeters>NAN</DistanceMeters>
          </Trackpoint>
          <Trackpoint>
            <Time>2022-07-05T16:47:15.000Z</Time>
            <Position>
              <LatitudeDegrees>44.2744448594748973846435546875</LatitudeDegrees>
              <LongitudeDegrees>-1.07648740522563457489013671875</LongitudeDegrees>
            </Position>
            <AltitudeMeters>74.40000152587890625</AltitudeMeters>
            <DistanceMeters>NAN</DistanceMeters>
          </Trackpoint>
          <Trackpoint>
            <Time>2022-07-05T16:47:27.000Z</Time>
            <Position>
              <LatitudeDegrees>44.27400237880647182464599609375</LatitudeDegrees>
              <LongitudeDegrees>-1.076940111815929412841796875</LongitudeDegrees>
            </Position>
            <AltitudeMeters>74.40000152587890625</AltitudeMeters>
            <DistanceMeters>NAN</DistanceMeters>
          </Trackpoint>
          <Trackpoint>
            <Time>2022-07-05T16:47:38.000Z</Time>
            <Position>
              <LatitudeDegrees>44.27359434776008129119873046875</LatitudeDegrees>
              <LongitudeDegrees>-1.077355183660984039306640625</LongitudeDegrees>
            </Position>
            <AltitudeMeters>74.40000152587890625</AltitudeMeters>
            <DistanceMeters>NAN</DistanceMeters>
          </Trackpoint>
          <Trackpoint>
            <Time>2022-07-05T16:47:49.000Z</Time>
            <Position>
              <LatitudeDegrees>44.2731346003711223602294921875</LatitudeDegrees>
              <LongitudeDegrees>-1.077815182507038116455078125</LongitudeDegrees>
            </Position>
            <AltitudeMeters>74.59999847412109375</AltitudeMeters>
            <DistanceMeters>NAN</DistanceMeters>
          </Trackpoint>
          <Trackpoint>
            <Time>2022-07-05T16:47:54.000Z</Time>
            <Position>
              <LatitudeDegrees>44.2729270644485950469970703125</LatitudeDegrees>
              <LongitudeDegrees>-1.078027747571468353271484375</LongitudeDegrees>
            </Position>
            <AltitudeMeters>74.59999847412109375</AltitudeMeters>
            <DistanceMeters>NAN</DistanceMeters>
          </Trackpoint>
          <Trackpoint>
            <Time>2022-07-05T16:47:58.000Z</Time>
            <Position>
              <LatitudeDegrees>44.2727557383477687835693359375</LatitudeDegrees>
              <LongitudeDegrees>-1.07820988632738590240478515625</LongitudeDegrees>
            </Position>
            <AltitudeMeters>74.59999847412109375</AltitudeMeters>
            <DistanceMeters>NAN</DistanceMeters>
          </Trackpoint>
          <Trackpoint>
            <Time>2022-07-05T16:48:00.000Z</Time>
            <Position>
              <LatitudeDegrees>44.27268357016146183013916015625</LatitudeDegrees>
              <LongitudeDegrees>-1.07828817330300807952880859375</LongitudeDegrees>
            </Position>
            <AltitudeMeters>74.59999847412109375</AltitudeMeters>
            <DistanceMeters>NAN</DistanceMeters>
          </Trackpoint>
          <Trackpoint>
            <Time>2022-07-05T16:48:10.000Z</Time>
            <Position>
              <LatitudeDegrees>44.272276125848293304443359375</LatitudeDegrees>
              <LongitudeDegrees>-1.0787045024335384368896484375</LongitudeDegrees>
            </Position>
            <AltitudeMeters>74.59999847412109375</AltitudeMeters>
            <DistanceMeters>NAN</DistanceMeters>
          </Trackpoint>
          <Trackpoint>
            <Time>2022-07-05T16:48:19.000Z</Time>
            <Position>
              <LatitudeDegrees>44.27189265377819538116455078125</LatitudeDegrees>
              <LongitudeDegrees>-1.07909115962684154510498046875</LongitudeDegrees>
            </Position>
            <AltitudeMeters>74.40000152587890625</AltitudeMeters>
            <DistanceMeters>NAN</DistanceMeters>
          </Trackpoint>
          <Trackpoint>
            <Time>2022-07-05T16:48:27.000Z</Time>
            <Position>
              <LatitudeDegrees>44.2715557850897312164306640625</LatitudeDegrees>
              <LongitudeDegrees>-1.07944118790328502655029296875</LongitudeDegrees>
            </Position>
            <AltitudeMeters>74.8000030517578125</AltitudeMeters>
            <DistanceMeters>NAN</DistanceMeters>
          </Trackpoint>
          <Trackpoint>
            <Time>2022-07-05T16:48:32.000Z</Time>
            <Position>
              <LatitudeDegrees>44.2713432200253009796142578125</LatitudeDegrees>
              <LongitudeDegrees>-1.07964813709259033203125</LongitudeDegrees>
            </Position>
            <AltitudeMeters>74.8000030517578125</AltitudeMeters>
            <DistanceMeters>NAN</DistanceMeters>
          </Trackpoint>
          <Trackpoint>
            <Time>2022-07-05T16:48:37.000Z</Time>
            <Position>
              <LatitudeDegrees>44.27113694138824939727783203125</LatitudeDegrees>
              <LongitudeDegrees>-1.07986195944249629974365234375</LongitudeDegrees>
            </Position>
            <AltitudeMeters>74.59999847412109375</AltitudeMeters>
            <DistanceMeters>NAN</DistanceMeters>
          </Trackpoint>
          <Trackpoint>
            <Time>2022-07-05T16:48:38.000Z</Time>
            <Position>
              <LatitudeDegrees>44.2710961215198040008544921875</LatitudeDegrees>
              <LongitudeDegrees>-1.07990588061511516571044921875</LongitudeDegrees>
            </Position>
            <AltitudeMeters>74.40000152587890625</AltitudeMeters>
            <DistanceMeters>NAN</DistanceMeters>
          </Trackpoint>
          <Trackpoint>
            <Time>2022-07-05T16:48:44.000Z</Time>
            <Position>
              <LatitudeDegrees>44.2708547227084636688232421875</LatitudeDegrees>
              <LongitudeDegrees>-1.08014409430325031280517578125</LongitudeDegrees>
            </Position>
            <AltitudeMeters>74</AltitudeMeters>
            <DistanceMeters>NAN</DistanceMeters>
          </Trackpoint>
          <Trackpoint>
            <Time>2022-07-05T16:48:46.000Z</Time>
            <Position>
              <LatitudeDegrees>44.27077920176088809967041015625</LatitudeDegrees>
              <LongitudeDegrees>-1.08021668158471584320068359375</LongitudeDegrees>
            </Position>
            <AltitudeMeters>73.8000030517578125</AltitudeMeters>
            <DistanceMeters>NAN</DistanceMeters>
          </Trackpoint>
          <Trackpoint>
            <Time>2022-07-05T16:48:56.000Z</Time>
            <Position>
              <LatitudeDegrees>44.27038751542568206787109375</LatitudeDegrees>
              <LongitudeDegrees>-1.080596633255481719970703125</LongitudeDegrees>
            </Position>
            <AltitudeMeters>74</AltitudeMeters>
            <DistanceMeters>NAN</DistanceMeters>
          </Trackpoint>
          <Trackpoint>
            <Time>2022-07-05T16:49:02.000Z</Time>
            <Position>
              <LatitudeDegrees>44.27015273831784725189208984375</LatitudeDegrees>
              <LongitudeDegrees>-1.08084775507450103759765625</LongitudeDegrees>
            </Position>
            <AltitudeMeters>73.8000030517578125</AltitudeMeters>
            <DistanceMeters>NAN</DistanceMeters>
          </Trackpoint>
          <Trackpoint>
            <Time>2022-07-05T16:49:05.000Z</Time>
            <Position>
              <LatitudeDegrees>44.2700265906751155853271484375</LatitudeDegrees>
              <LongitudeDegrees>-1.08097641728818416595458984375</LongitudeDegrees>
            </Position>
            <AltitudeMeters>73.8000030517578125</AltitudeMeters>
            <DistanceMeters>NAN</DistanceMeters>
          </Trackpoint>
          <Trackpoint>
            <Time>2022-07-05T16:49:06.000Z</Time>
            <Position>
              <LatitudeDegrees>44.2699871957302093505859375</LatitudeDegrees>
              <LongitudeDegrees>-1.08102235011756420135498046875</LongitudeDegrees>
            </Position>
            <AltitudeMeters>73.8000030517578125</AltitudeMeters>
            <DistanceMeters>NAN</DistanceMeters>
          </Trackpoint>
          <Trackpoint>
            <Time>2022-07-05T16:49:13.000Z</Time>
            <Position>
              <LatitudeDegrees>44.2696893028914928436279296875</LatitudeDegrees>
              <LongitudeDegrees>-1.08133063651621341705322265625</LongitudeDegrees>
            </Position>
            <AltitudeMeters>73.59999847412109375</AltitudeMeters>
            <DistanceMeters>NAN</DistanceMeters>
          </Trackpoint>
          <Trackpoint>
            <Time>2022-07-05T16:49:17.000Z</Time>
            <Position>
              <LatitudeDegrees>44.2695136182010173797607421875</LatitudeDegrees>
              <LongitudeDegrees>-1.08149542473256587982177734375</LongitudeDegrees>
            </Position>
            <AltitudeMeters>73.40000152587890625</AltitudeMeters>
            <DistanceMeters>NAN</DistanceMeters>
          </Trackpoint>
          <Trackpoint>
            <Time>2022-07-05T16:49:25.000Z</Time>
            <Position>
              <LatitudeDegrees>44.26916987635195255279541015625</LatitudeDegrees>
              <LongitudeDegrees>-1.0818242467939853668212890625</LongitudeDegrees>
            </Position>
            <AltitudeMeters>73.59999847412109375</AltitudeMeters>
            <DistanceMeters>NAN</DistanceMeters>
          </Trackpoint>
          <Trackpoint>
            <Time>2022-07-05T16:49:31.000Z</Time>
            <Position>
              <LatitudeDegrees>44.26889645867049694061279296875</LatitudeDegrees>
              <LongitudeDegrees>-1.08208986930549144744873046875</LongitudeDegrees>
            </Position>
            <AltitudeMeters>73.40000152587890625</AltitudeMeters>
            <DistanceMeters>NAN</DistanceMeters>
          </Trackpoint>
          <Trackpoint>
            <Time>2022-07-05T16:49:35.000Z</Time>
            <Position>
              <LatitudeDegrees>44.26872412674129009246826171875</LatitudeDegrees>
              <LongitudeDegrees>-1.0822646319866180419921875</LongitudeDegrees>
            </Position>
            <AltitudeMeters>73.1999969482421875</AltitudeMeters>
            <DistanceMeters>NAN</DistanceMeters>
          </Trackpoint>
          <Trackpoint>
            <Time>2022-07-05T16:49:43.000Z</Time>
            <Position>
              <LatitudeDegrees>44.26839002408087253570556640625</LatitudeDegrees>
              <LongitudeDegrees>-1.08260921202600002288818359375</LongitudeDegrees>
            </Position>
            <AltitudeMeters>73.1999969482421875</AltitudeMeters>
            <DistanceMeters>NAN</DistanceMeters>
          </Trackpoint>
          <Trackpoint>
            <Time>2022-07-05T16:49:48.000Z</Time>
            <Position>
              <LatitudeDegrees>44.26817511208355426788330078125</LatitudeDegrees>
              <LongitudeDegrees>-1.0828364454209804534912109375</LongitudeDegrees>
            </Position>
            <AltitudeMeters>73</AltitudeMeters>
            <DistanceMeters>NAN</DistanceMeters>
          </Trackpoint>
          <Trackpoint>
            <Time>2022-07-05T16:49:54.000Z</Time>
            <Position>
              <LatitudeDegrees>44.26793086342513561248779296875</LatitudeDegrees>
              <LongitudeDegrees>-1.08306736685335636138916015625</LongitudeDegrees>
            </Position>
            <AltitudeMeters>72.59999847412109375</AltitudeMeters>
            <DistanceMeters>NAN</DistanceMeters>
          </Trackpoint>
          <Trackpoint>
            <Time>2022-07-05T16:50:04.000Z</Time>
            <Position>
              <LatitudeDegrees>44.26749282516539096832275390625</LatitudeDegrees>
              <LongitudeDegrees>-1.08350808732211589813232421875</LongitudeDegrees>
            </Position>
            <AltitudeMeters>72.40000152587890625</AltitudeMeters>
            <DistanceMeters>NAN</DistanceMeters>
          </Trackpoint>
          <Trackpoint>
            <Time>2022-07-05T16:50:05.000Z</Time>
            <Position>
              <LatitudeDegrees>44.26744890399277210235595703125</LatitudeDegrees>
              <LongitudeDegrees>-1.0835529305040836334228515625</LongitudeDegrees>
            </Position>
            <AltitudeMeters>72.40000152587890625</AltitudeMeters>
            <DistanceMeters>NAN</DistanceMeters>
          </Trackpoint>
          <Trackpoint>
            <Time>2022-07-05T16:50:14.000Z</Time>
            <Position>
              <LatitudeDegrees>44.26705160178244113922119140625</LatitudeDegrees>
              <LongitudeDegrees>-1.08394897542893886566162109375</LongitudeDegrees>
            </Position>
            <AltitudeMeters>72.40000152587890625</AltitudeMeters>
            <DistanceMeters>NAN</DistanceMeters>
          </Trackpoint>
          <Trackpoint>
            <Time>2022-07-05T16:50:24.000Z</Time>
            <Position>
              <LatitudeDegrees>44.2666183412075042724609375</LatitudeDegrees>
              <LongitudeDegrees>-1.08439807780086994171142578125</LongitudeDegrees>
            </Position>
            <AltitudeMeters>72.40000152587890625</AltitudeMeters>
            <DistanceMeters>NAN</DistanceMeters>
          </Trackpoint>
          <Trackpoint>
            <Time>2022-07-05T16:50:26.000Z</Time>
            <Position>
              <LatitudeDegrees>44.26653393544256687164306640625</LatitudeDegrees>
              <LongitudeDegrees>-1.0844853334128856658935546875</LongitudeDegrees>
            </Position>
            <AltitudeMeters>72.40000152587890625</AltitudeMeters>
            <DistanceMeters>NAN</DistanceMeters>
          </Trackpoint>
          <Trackpoint>
            <Time>2022-07-05T16:50:29.000Z</Time>
            <Position>
              <LatitudeDegrees>44.2664113081991672515869140625</LatitudeDegrees>
              <LongitudeDegrees>-1.08460879884660243988037109375</LongitudeDegrees>
            </Position>
            <AltitudeMeters>72.40000152587890625</AltitudeMeters>
            <DistanceMeters>NAN</DistanceMeters>
          </Trackpoint>
          <Trackpoint>
            <Time>2022-07-05T16:50:34.000Z</Time>
            <Position>
              <LatitudeDegrees>44.26621927879750728607177734375</LatitudeDegrees>
              <LongitudeDegrees>-1.0847884230315685272216796875</LongitudeDegrees>
            </Position>
            <AltitudeMeters>72</AltitudeMeters>
            <DistanceMeters>NAN</DistanceMeters>
          </Trackpoint>
          <Trackpoint>
            <Time>2022-07-05T16:50:37.000Z</Time>
            <Position>
              <LatitudeDegrees>44.266112409532070159912109375</LatitudeDegrees>
              <LongitudeDegrees>-1.08489763922989368438720703125</LongitudeDegrees>
            </Position>
            <AltitudeMeters>72</AltitudeMeters>
            <DistanceMeters>NAN</DistanceMeters>
          </Trackpoint>
          <Trackpoint>
            <Time>2022-07-05T16:50:40.000Z</Time>
            <Position>
              <LatitudeDegrees>44.26599673926830291748046875</LatitudeDegrees>
              <LongitudeDegrees>-1.0849989764392375946044921875</LongitudeDegrees>
            </Position>
            <AltitudeMeters>71.8000030517578125</AltitudeMeters>
            <DistanceMeters>NAN</DistanceMeters>
          </Trackpoint>
          <Trackpoint>
            <Time>2022-07-05T16:50:41.000Z</Time>
            <Position>
              <LatitudeDegrees>44.2659606970846652984619140625</LatitudeDegrees>
              <LongitudeDegrees>-1.08503795228898525238037109375</LongitudeDegrees>
            </Position>
            <AltitudeMeters>72</AltitudeMeters>
            <DistanceMeters>NAN</DistanceMeters>
          </Trackpoint>
          <Trackpoint>
            <Time>2022-07-05T16:50:50.000Z</Time>
            <Position>
              <LatitudeDegrees>44.2655999399721622467041015625</LatitudeDegrees>
              <LongitudeDegrees>-1.08540524728596210479736328125</LongitudeDegrees>
            </Position>
            <AltitudeMeters>72.1999969482421875</AltitudeMeters>
            <DistanceMeters>NAN</DistanceMeters>
          </Trackpoint>
          <Trackpoint>
            <Time>2022-07-05T16:50:53.000Z</Time>
            <Position>
              <LatitudeDegrees>44.2655617184937000274658203125</LatitudeDegrees>
              <LongitudeDegrees>-1.08542385511100292205810546875</LongitudeDegrees>
            </Position>
            <AltitudeMeters>72</AltitudeMeters>
            <DistanceMeters>NAN</DistanceMeters>
          </Trackpoint>
          <Trackpoint>
            <Time>2022-07-05T16:50:55.000Z</Time>
            <Position>
              <LatitudeDegrees>44.2655617184937000274658203125</LatitudeDegrees>
              <LongitudeDegrees>-1.08542385511100292205810546875</LongitudeDegrees>
            </Position>
            <AltitudeMeters>71.8000030517578125</AltitudeMeters>
            <DistanceMeters>NAN</DistanceMeters>
          </Trackpoint>
          <Trackpoint>
            <Time>2022-07-05T16:51:04.000Z</Time>
            <Position>
              <LatitudeDegrees>44.2655707709491252899169921875</LatitudeDegrees>
              <LongitudeDegrees>-1.0853587277233600616455078125</LongitudeDegrees>
            </Position>
            <AltitudeMeters>71.59999847412109375</AltitudeMeters>
            <DistanceMeters>NAN</DistanceMeters>
          </Trackpoint>
          <Trackpoint>
            <Time>2022-07-05T16:51:06.000Z</Time>
            <Position>
              <LatitudeDegrees>44.265610836446285247802734375</LatitudeDegrees>
              <LongitudeDegrees>-1.0853168182075023651123046875</LongitudeDegrees>
            </Position>
            <AltitudeMeters>71.59999847412109375</AltitudeMeters>
            <DistanceMeters>NAN</DistanceMeters>
          </Trackpoint>
          <Trackpoint>
            <Time>2022-07-05T16:51:11.000Z</Time>
            <Position>
              <LatitudeDegrees>44.26576447673141956329345703125</LatitudeDegrees>
              <LongitudeDegrees>-1.0851713083684444427490234375</LongitudeDegrees>
            </Position>
            <AltitudeMeters>72</AltitudeMeters>
            <DistanceMeters>NAN</DistanceMeters>
          </Trackpoint>
          <Trackpoint>
            <Time>2022-07-05T16:51:17.000Z</Time>
            <Position>
              <LatitudeDegrees>44.26591484807431697845458984375</LatitudeDegrees>
              <LongitudeDegrees>-1.084942482411861419677734375</LongitudeDegrees>
            </Position>
            <AltitudeMeters>72.59999847412109375</AltitudeMeters>
            <DistanceMeters>NAN</DistanceMeters>
          </Trackpoint>
          <Trackpoint>
            <Time>2022-07-05T16:51:21.000Z</Time>
            <Position>
              <LatitudeDegrees>44.2658678255975246429443359375</LatitudeDegrees>
              <LongitudeDegrees>-1.0847805440425872802734375</LongitudeDegrees>
            </Position>
            <AltitudeMeters>72</AltitudeMeters>
            <DistanceMeters>NAN</DistanceMeters>
          </Trackpoint>
          <Trackpoint>
            <Time>2022-07-05T16:51:26.000Z</Time>
            <Position>
              <LatitudeDegrees>44.2657251656055450439453125</LatitudeDegrees>
              <LongitudeDegrees>-1.08464517630636692047119140625</LongitudeDegrees>
            </Position>
            <AltitudeMeters>71.40000152587890625</AltitudeMeters>
            <DistanceMeters>NAN</DistanceMeters>
          </Trackpoint>
          <Trackpoint>
            <Time>2022-07-05T16:51:37.000Z</Time>
            <Position>
              <LatitudeDegrees>44.2654778994619846343994140625</LatitudeDegrees>
              <LongitudeDegrees>-1.08432331122457981109619140625</LongitudeDegrees>
            </Position>
            <AltitudeMeters>71.59999847412109375</AltitudeMeters>
            <DistanceMeters>NAN</DistanceMeters>
          </Trackpoint>
          <Trackpoint>
            <Time>2022-07-05T16:51:39.000Z</Time>
            <Position>
              <LatitudeDegrees>44.2654742114245891571044921875</LatitudeDegrees>
              <LongitudeDegrees>-1.08432046137750148773193359375</LongitudeDegrees>
            </Position>
            <AltitudeMeters>71.59999847412109375</AltitudeMeters>
            <DistanceMeters>NAN</DistanceMeters>
          </Trackpoint>
          <Trackpoint>
            <Time>2022-07-05T16:56:55.000Z</Time>
            <Position>
              <LatitudeDegrees>44.26543624140322208404541015625</LatitudeDegrees>
              <LongitudeDegrees>-1.0842762887477874755859375</LongitudeDegrees>
            </Position>
            <AltitudeMeters>65.40000152587890625</AltitudeMeters>
            <DistanceMeters>NAN</DistanceMeters>
          </Trackpoint>
          <Trackpoint>
            <Time>2022-07-05T16:57:00.000Z</Time>
            <Position>
              <LatitudeDegrees>44.26532543264329433441162109375</LatitudeDegrees>
              <LongitudeDegrees>-1.08413941226899623870849609375</LongitudeDegrees>
            </Position>
            <AltitudeMeters>65</AltitudeMeters>
            <DistanceMeters>NAN</DistanceMeters>
          </Trackpoint>
          <Trackpoint>
            <Time>2022-07-05T16:57:08.000Z</Time>
            <Position>
              <LatitudeDegrees>44.2651563696563243865966796875</LatitudeDegrees>
              <LongitudeDegrees>-1.08392952941358089447021484375</LongitudeDegrees>
            </Position>
            <AltitudeMeters>65</AltitudeMeters>
            <DistanceMeters>NAN</DistanceMeters>
          </Trackpoint>
          <Trackpoint>
            <Time>2022-07-05T16:57:14.000Z</Time>
            <Position>
              <LatitudeDegrees>44.26506978459656238555908203125</LatitudeDegrees>
              <LongitudeDegrees>-1.08380916528403759002685546875</LongitudeDegrees>
            </Position>
            <AltitudeMeters>65</AltitudeMeters>
            <DistanceMeters>NAN</DistanceMeters>
          </Trackpoint>
          <Trackpoint>
            <Time>2022-07-05T16:57:15.000Z</Time>
            <Position>
              <LatitudeDegrees>44.26506978459656238555908203125</LatitudeDegrees>
              <LongitudeDegrees>-1.08380916528403759002685546875</LongitudeDegrees>
            </Position>
            <AltitudeMeters>65</AltitudeMeters>
            <DistanceMeters>NAN</DistanceMeters>
          </Trackpoint>
          <Trackpoint>
            <Time>2022-07-05T16:57:56.000Z</Time>
            <Position>
              <LatitudeDegrees>44.26503893919289112091064453125</LatitudeDegrees>
              <LongitudeDegrees>-1.08377270400524139404296875</LongitudeDegrees>
            </Position>
            <AltitudeMeters>64</AltitudeMeters>
            <DistanceMeters>NAN</DistanceMeters>
          </Trackpoint>
          <Trackpoint>
            <Time>2022-07-05T16:57:58.000Z</Time>
            <Position>
              <LatitudeDegrees>44.26499267108738422393798828125</LatitudeDegrees>
              <LongitudeDegrees>-1.0837128572165966033935546875</LongitudeDegrees>
            </Position>
            <AltitudeMeters>63.799999237060546875</AltitudeMeters>
            <DistanceMeters>NAN</DistanceMeters>
          </Trackpoint>
          <Trackpoint>
            <Time>2022-07-05T16:58:04.000Z</Time>
            <Position>
              <LatitudeDegrees>44.2648385278880596160888671875</LatitudeDegrees>
              <LongitudeDegrees>-1.08350892551243305206298828125</LongitudeDegrees>
            </Position>
            <AltitudeMeters>64</AltitudeMeters>
            <DistanceMeters>NAN</DistanceMeters>
          </Trackpoint>
          <Trackpoint>
            <Time>2022-07-05T16:58:14.000Z</Time>
            <Position>
              <LatitudeDegrees>44.2645890824496746063232421875</LatitudeDegrees>
              <LongitudeDegrees>-1.08320449478924274444580078125</LongitudeDegrees>
            </Position>
            <AltitudeMeters>63</AltitudeMeters>
            <DistanceMeters>NAN</DistanceMeters>
          </Trackpoint>
          <Trackpoint>
            <Time>2022-07-05T16:58:22.000Z</Time>
            <Position>
              <LatitudeDegrees>44.2644241265952587127685546875</LatitudeDegrees>
              <LongitudeDegrees>-1.08297466300427913665771484375</LongitudeDegrees>
            </Position>
            <AltitudeMeters>64</AltitudeMeters>
            <DistanceMeters>NAN</DistanceMeters>
          </Trackpoint>
          <Trackpoint>
            <Time>2022-07-05T16:58:29.000Z</Time>
            <Position>
              <LatitudeDegrees>44.2642729170620441436767578125</LatitudeDegrees>
              <LongitudeDegrees>-1.08280518092215061187744140625</LongitudeDegrees>
            </Position>
            <AltitudeMeters>63</AltitudeMeters>
            <DistanceMeters>NAN</DistanceMeters>
          </Trackpoint>
          <Trackpoint>
            <Time>2022-07-05T16:58:32.000Z</Time>
            <Position>
              <LatitudeDegrees>44.2642065323889255523681640625</LatitudeDegrees>
              <LongitudeDegrees>-1.08271767385303974151611328125</LongitudeDegrees>
            </Position>
            <AltitudeMeters>63</AltitudeMeters>
            <DistanceMeters>NAN</DistanceMeters>
          </Trackpoint>
          <Trackpoint>
            <Time>2022-07-05T16:58:40.000Z</Time>
            <Position>
              <LatitudeDegrees>44.264011569321155548095703125</LatitudeDegrees>
              <LongitudeDegrees>-1.08248214237391948699951171875</LongitudeDegrees>
            </Position>
            <AltitudeMeters>63.59999847412109375</AltitudeMeters>
            <DistanceMeters>NAN</DistanceMeters>
          </Trackpoint>
          <Trackpoint>
            <Time>2022-07-05T16:58:49.000Z</Time>
            <Position>
              <LatitudeDegrees>44.26380411721765995025634765625</LatitudeDegrees>
              <LongitudeDegrees>-1.0822056233882904052734375</LongitudeDegrees>
            </Position>
            <AltitudeMeters>64</AltitudeMeters>
            <DistanceMeters>NAN</DistanceMeters>
          </Trackpoint>
          <Trackpoint>
            <Time>2022-07-05T16:58:51.000Z</Time>
            <Position>
              <LatitudeDegrees>44.26375365816056728363037109375</LatitudeDegrees>
              <LongitudeDegrees>-1.08214669860899448394775390625</LongitudeDegrees>
            </Position>
            <AltitudeMeters>64</AltitudeMeters>
            <DistanceMeters>NAN</DistanceMeters>
          </Trackpoint>
          <Trackpoint>
            <Time>2022-07-05T16:58:58.000Z</Time>
            <Position>
              <LatitudeDegrees>44.26356288604438304901123046875</LatitudeDegrees>
              <LongitudeDegrees>-1.08192977495491504669189453125</LongitudeDegrees>
            </Position>
            <AltitudeMeters>63.40000152587890625</AltitudeMeters>
            <DistanceMeters>NAN</DistanceMeters>
          </Trackpoint>
          <Trackpoint>
            <Time>2022-07-05T16:59:06.000Z</Time>
            <Position>
              <LatitudeDegrees>44.26334512419998645782470703125</LatitudeDegrees>
              <LongitudeDegrees>-1.0816797427833080291748046875</LongitudeDegrees>
            </Position>
            <AltitudeMeters>63</AltitudeMeters>
            <DistanceMeters>NAN</DistanceMeters>
          </Trackpoint>
          <Trackpoint>
            <Time>2022-07-05T16:59:07.000Z</Time>
            <Position>
              <LatitudeDegrees>44.26332525908946990966796875</LatitudeDegrees>
              <LongitudeDegrees>-1.0816530883312225341796875</LongitudeDegrees>
            </Position>
            <AltitudeMeters>63</AltitudeMeters>
            <DistanceMeters>NAN</DistanceMeters>
          </Trackpoint>
          <Trackpoint>
            <Time>2022-07-05T16:59:16.000Z</Time>
            <Position>
              <LatitudeDegrees>44.26312484778463840484619140625</LatitudeDegrees>
              <LongitudeDegrees>-1.0813917405903339385986328125</LongitudeDegrees>
            </Position>
            <AltitudeMeters>62.799999237060546875</AltitudeMeters>
            <DistanceMeters>NAN</DistanceMeters>
          </Trackpoint>
          <Trackpoint>
            <Time>2022-07-05T16:59:28.000Z</Time>
            <Position>
              <LatitudeDegrees>44.26284019835293292999267578125</LatitudeDegrees>
              <LongitudeDegrees>-1.08102352358400821685791015625</LongitudeDegrees>
            </Position>
            <AltitudeMeters>62.799999237060546875</AltitudeMeters>
            <DistanceMeters>NAN</DistanceMeters>
          </Trackpoint>
          <Trackpoint>
            <Time>2022-07-05T16:59:37.000Z</Time>
            <Position>
              <LatitudeDegrees>44.26261623390018939971923828125</LatitudeDegrees>
              <LongitudeDegrees>-1.0807339288294315338134765625</LongitudeDegrees>
            </Position>
            <AltitudeMeters>62.40000152587890625</AltitudeMeters>
            <DistanceMeters>NAN</DistanceMeters>
          </Trackpoint>
          <Trackpoint>
            <Time>2022-07-05T16:59:42.000Z</Time>
            <Position>
              <LatitudeDegrees>44.262555800378322601318359375</LatitudeDegrees>
              <LongitudeDegrees>-1.0806470923125743865966796875</LongitudeDegrees>
            </Position>
            <AltitudeMeters>62.40000152587890625</AltitudeMeters>
            <DistanceMeters>NAN</DistanceMeters>
          </Trackpoint>
          <Trackpoint>
            <Time>2022-07-05T16:59:44.000Z</Time>
            <Position>
              <LatitudeDegrees>44.262555800378322601318359375</LatitudeDegrees>
              <LongitudeDegrees>-1.0806470923125743865966796875</LongitudeDegrees>
            </Position>
            <AltitudeMeters>62.59999847412109375</AltitudeMeters>
            <DistanceMeters>NAN</DistanceMeters>
          </Trackpoint>
          <Trackpoint>
            <Time>2022-07-05T17:00:19.000Z</Time>
            <Position>
              <LatitudeDegrees>44.26252151839435100555419921875</LatitudeDegrees>
              <LongitudeDegrees>-1.08059872873127460479736328125</LongitudeDegrees>
            </Position>
            <AltitudeMeters>64.59999847412109375</AltitudeMeters>
            <DistanceMeters>NAN</DistanceMeters>
          </Trackpoint>
          <Trackpoint>
            <Time>2022-07-05T17:00:20.000Z</Time>
            <Position>
              <LatitudeDegrees>44.2625011503696441650390625</LatitudeDegrees>
              <LongitudeDegrees>-1.08056922443211078643798828125</LongitudeDegrees>
            </Position>
            <AltitudeMeters>64.59999847412109375</AltitudeMeters>
            <DistanceMeters>NAN</DistanceMeters>
          </Trackpoint>
          <Trackpoint>
            <Time>2022-07-05T17:00:25.000Z</Time>
            <Position>
              <LatitudeDegrees>44.26241540350019931793212890625</LatitudeDegrees>
              <LongitudeDegrees>-1.08046109788119792938232421875</LongitudeDegrees>
            </Position>
            <AltitudeMeters>65</AltitudeMeters>
            <DistanceMeters>NAN</DistanceMeters>
          </Trackpoint>
          <Trackpoint>
            <Time>2022-07-05T17:00:26.000Z</Time>
            <Position>
              <LatitudeDegrees>44.2624134756624698638916015625</LatitudeDegrees>
              <LongitudeDegrees>-1.08045942150056362152099609375</LongitudeDegrees>
            </Position>
            <AltitudeMeters>65</AltitudeMeters>
            <DistanceMeters>NAN</DistanceMeters>
          </Trackpoint>
          <Trackpoint>
            <Time>2022-07-05T17:00:27.000Z</Time>
            <Position>
              <LatitudeDegrees>44.2624134756624698638916015625</LatitudeDegrees>
              <LongitudeDegrees>-1.08045942150056362152099609375</LongitudeDegrees>
            </Position>
            <AltitudeMeters>65</AltitudeMeters>
            <DistanceMeters>NAN</DistanceMeters>
          </Trackpoint>
          <Trackpoint>
            <Time>2022-07-05T17:00:48.000Z</Time>
            <Position>
              <LatitudeDegrees>44.262380115687847137451171875</LatitudeDegrees>
              <LongitudeDegrees>-1.08041591942310333251953125</LongitudeDegrees>
            </Position>
            <AltitudeMeters>65.59999847412109375</AltitudeMeters>
            <DistanceMeters>NAN</DistanceMeters>
          </Trackpoint>
          <Trackpoint>
            <Time>2022-07-05T17:00:50.000Z</Time>
            <Position>
              <LatitudeDegrees>44.2623279802501201629638671875</LatitudeDegrees>
              <LongitudeDegrees>-1.08035330660641193389892578125</LongitudeDegrees>
            </Position>
            <AltitudeMeters>65.8000030517578125</AltitudeMeters>
            <DistanceMeters>NAN</DistanceMeters>
          </Trackpoint>
          <Trackpoint>
            <Time>2022-07-05T17:00:57.000Z</Time>
            <Position>
              <LatitudeDegrees>44.2621281556785106658935546875</LatitudeDegrees>
              <LongitudeDegrees>-1.08011123724281787872314453125</LongitudeDegrees>
            </Position>
            <AltitudeMeters>65.59999847412109375</AltitudeMeters>
            <DistanceMeters>NAN</DistanceMeters>
          </Trackpoint>
          <Trackpoint>
            <Time>2022-07-05T17:01:03.000Z</Time>
            <Position>
              <LatitudeDegrees>44.26196940243244171142578125</LatitudeDegrees>
              <LongitudeDegrees>-1.07990319840610027313232421875</LongitudeDegrees>
            </Position>
            <AltitudeMeters>66</AltitudeMeters>
            <DistanceMeters>NAN</DistanceMeters>
          </Trackpoint>
          <Trackpoint>
            <Time>2022-07-05T17:01:06.000Z</Time>
            <Position>
              <LatitudeDegrees>44.26189052872359752655029296875</LatitudeDegrees>
              <LongitudeDegrees>-1.07979892753064632415771484375</LongitudeDegrees>
            </Position>
            <AltitudeMeters>66.1999969482421875</AltitudeMeters>
            <DistanceMeters>NAN</DistanceMeters>
          </Trackpoint>
          <Trackpoint>
            <Time>2022-07-05T17:01:07.000Z</Time>
            <Position>
              <LatitudeDegrees>44.2618629522621631622314453125</LatitudeDegrees>
              <LongitudeDegrees>-1.07976355589926242828369140625</LongitudeDegrees>
            </Position>
            <AltitudeMeters>66.1999969482421875</AltitudeMeters>
            <DistanceMeters>NAN</DistanceMeters>
          </Trackpoint>
          <Trackpoint>
            <Time>2022-07-05T17:01:09.000Z</Time>
            <Position>
              <LatitudeDegrees>44.26180050708353519439697265625</LatitudeDegrees>
              <LongitudeDegrees>-1.07968895696103572845458984375</LongitudeDegrees>
            </Position>
            <AltitudeMeters>66.1999969482421875</AltitudeMeters>
            <DistanceMeters>NAN</DistanceMeters>
          </Trackpoint>
          <Trackpoint>
            <Time>2022-07-05T17:01:11.000Z</Time>
            <Position>
              <LatitudeDegrees>44.2617496289312839508056640625</LatitudeDegrees>
              <LongitudeDegrees>-1.0796305350959300994873046875</LongitudeDegrees>
            </Position>
            <AltitudeMeters>66.1999969482421875</AltitudeMeters>
            <DistanceMeters>NAN</DistanceMeters>
          </Trackpoint>
          <Trackpoint>
            <Time>2022-07-05T17:01:14.000Z</Time>
            <Position>
              <LatitudeDegrees>44.2616668157279491424560546875</LatitudeDegrees>
              <LongitudeDegrees>-1.07952601276338100433349609375</LongitudeDegrees>
            </Position>
            <AltitudeMeters>66.40000152587890625</AltitudeMeters>
            <DistanceMeters>NAN</DistanceMeters>
          </Trackpoint>
          <Trackpoint>
            <Time>2022-07-05T17:01:15.000Z</Time>
            <Position>
              <LatitudeDegrees>44.26164686679840087890625</LatitudeDegrees>
              <LongitudeDegrees>-1.0795024596154689788818359375</LongitudeDegrees>
            </Position>
            <AltitudeMeters>66.40000152587890625</AltitudeMeters>
            <DistanceMeters>NAN</DistanceMeters>
          </Trackpoint>
          <Trackpoint>
            <Time>2022-07-05T17:01:17.000Z</Time>
            <Position>
              <LatitudeDegrees>44.26159565337002277374267578125</LatitudeDegrees>
              <LongitudeDegrees>-1.0794380865991115570068359375</LongitudeDegrees>
            </Position>
            <AltitudeMeters>66.59999847412109375</AltitudeMeters>
            <DistanceMeters>NAN</DistanceMeters>
          </Trackpoint>
          <Trackpoint>
            <Time>2022-07-05T17:01:19.000Z</Time>
            <Position>
              <LatitudeDegrees>44.261539913713932037353515625</LatitudeDegrees>
              <LongitudeDegrees>-1.07937430031597614288330078125</LongitudeDegrees>
            </Position>
            <AltitudeMeters>66.59999847412109375</AltitudeMeters>
            <DistanceMeters>NAN</DistanceMeters>
          </Trackpoint>
          <Trackpoint>
            <Time>2022-07-05T17:01:27.000Z</Time>
            <Position>
              <LatitudeDegrees>44.26132743246853351593017578125</LatitudeDegrees>
              <LongitudeDegrees>-1.07909468002617359161376953125</LongitudeDegrees>
            </Position>
            <AltitudeMeters>67</AltitudeMeters>
            <DistanceMeters>NAN</DistanceMeters>
          </Trackpoint>
          <Trackpoint>
            <Time>2022-07-05T17:01:35.000Z</Time>
            <Position>
              <LatitudeDegrees>44.2611421085894107818603515625</LatitudeDegrees>
              <LongitudeDegrees>-1.07885487377643585205078125</LongitudeDegrees>
            </Position>
            <AltitudeMeters>67.1999969482421875</AltitudeMeters>
            <DistanceMeters>NAN</DistanceMeters>
          </Trackpoint>
          <Trackpoint>
            <Time>2022-07-05T17:01:41.000Z</Time>
            <Position>
              <LatitudeDegrees>44.260977990925312042236328125</LatitudeDegrees>
              <LongitudeDegrees>-1.07864834368228912353515625</LongitudeDegrees>
            </Position>
            <AltitudeMeters>67.1999969482421875</AltitudeMeters>
            <DistanceMeters>NAN</DistanceMeters>
          </Trackpoint>
          <Trackpoint>
            <Time>2022-07-05T17:01:45.000Z</Time>
            <Position>
              <LatitudeDegrees>44.26087598316371440887451171875</LatitudeDegrees>
              <LongitudeDegrees>-1.07852269895374774932861328125</LongitudeDegrees>
            </Position>
            <AltitudeMeters>67.1999969482421875</AltitudeMeters>
            <DistanceMeters>NAN</DistanceMeters>
          </Trackpoint>
          <Trackpoint>
            <Time>2022-07-05T17:01:51.000Z</Time>
            <Position>
              <LatitudeDegrees>44.26071974448859691619873046875</LatitudeDegrees>
              <LongitudeDegrees>-1.07840158045291900634765625</LongitudeDegrees>
            </Position>
            <AltitudeMeters>67.40000152587890625</AltitudeMeters>
            <DistanceMeters>NAN</DistanceMeters>
          </Trackpoint>
          <Trackpoint>
            <Time>2022-07-05T17:01:54.000Z</Time>
            <Position>
              <LatitudeDegrees>44.26070583052933216094970703125</LatitudeDegrees>
              <LongitudeDegrees>-1.0783990658819675445556640625</LongitudeDegrees>
            </Position>
            <AltitudeMeters>67.40000152587890625</AltitudeMeters>
            <DistanceMeters>NAN</DistanceMeters>
          </Trackpoint>
          <Trackpoint>
            <Time>2022-07-05T17:02:20.000Z</Time>
            <Position>
              <LatitudeDegrees>44.2606321536004543304443359375</LatitudeDegrees>
              <LongitudeDegrees>-1.07840183191001415252685546875</LongitudeDegrees>
            </Position>
            <AltitudeMeters>68</AltitudeMeters>
            <DistanceMeters>NAN</DistanceMeters>
          </Trackpoint>
          <Trackpoint>
            <Time>2022-07-05T17:02:27.000Z</Time>
            <Position>
              <LatitudeDegrees>44.26045596599578857421875</LatitudeDegrees>
              <LongitudeDegrees>-1.0784517042338848114013671875</LongitudeDegrees>
            </Position>
            <AltitudeMeters>68</AltitudeMeters>
            <DistanceMeters>NAN</DistanceMeters>
          </Trackpoint>
          <Trackpoint>
            <Time>2022-07-05T17:02:30.000Z</Time>
            <Position>
              <LatitudeDegrees>44.26036099903285503387451171875</LatitudeDegrees>
              <LongitudeDegrees>-1.0784731619060039520263671875</LongitudeDegrees>
            </Position>
            <AltitudeMeters>68</AltitudeMeters>
            <DistanceMeters>NAN</DistanceMeters>
          </Trackpoint>
          <Trackpoint>
            <Time>2022-07-05T17:02:32.000Z</Time>
            <Position>
              <LatitudeDegrees>44.26029763184487819671630859375</LatitudeDegrees>
              <LongitudeDegrees>-1.0784902609884738922119140625</LongitudeDegrees>
            </Position>
            <AltitudeMeters>68</AltitudeMeters>
            <DistanceMeters>NAN</DistanceMeters>
          </Trackpoint>
          <Trackpoint>
            <Time>2022-07-05T17:02:41.000Z</Time>
            <Position>
              <LatitudeDegrees>44.260007031261920928955078125</LatitudeDegrees>
              <LongitudeDegrees>-1.07856041751801967620849609375</LongitudeDegrees>
            </Position>
            <AltitudeMeters>68</AltitudeMeters>
            <DistanceMeters>NAN</DistanceMeters>
          </Trackpoint>
          <Trackpoint>
            <Time>2022-07-05T17:02:47.000Z</Time>
            <Position>
              <LatitudeDegrees>44.259831346571445465087890625</LatitudeDegrees>
              <LongitudeDegrees>-1.07860869728028774261474609375</LongitudeDegrees>
            </Position>
            <AltitudeMeters>68</AltitudeMeters>
            <DistanceMeters>NAN</DistanceMeters>
          </Trackpoint>
          <Trackpoint>
            <Time>2022-07-05T17:02:52.000Z</Time>
            <Position>
              <LatitudeDegrees>44.25968843512237071990966796875</LatitudeDegrees>
              <LongitudeDegrees>-1.0786438174545764923095703125</LongitudeDegrees>
            </Position>
            <AltitudeMeters>68</AltitudeMeters>
            <DistanceMeters>NAN</DistanceMeters>
          </Trackpoint>
          <Trackpoint>
            <Time>2022-07-05T17:02:55.000Z</Time>
            <Position>
              <LatitudeDegrees>44.2596041969954967498779296875</LatitudeDegrees>
              <LongitudeDegrees>-1.07866351492702960968017578125</LongitudeDegrees>
            </Position>
            <AltitudeMeters>68</AltitudeMeters>
            <DistanceMeters>NAN</DistanceMeters>
          </Trackpoint>
          <Trackpoint>
            <Time>2022-07-05T17:02:58.000Z</Time>
            <Position>
              <LatitudeDegrees>44.2595528997480869293212890625</LatitudeDegrees>
              <LongitudeDegrees>-1.078680194914340972900390625</LongitudeDegrees>
            </Position>
            <AltitudeMeters>67.8000030517578125</AltitudeMeters>
            <DistanceMeters>NAN</DistanceMeters>
          </Trackpoint>
          <Trackpoint>
            <Time>2022-07-05T17:03:00.000Z</Time>
            <Position>
              <LatitudeDegrees>44.2595492117106914520263671875</LatitudeDegrees>
              <LongitudeDegrees>-1.07868396677076816558837890625</LongitudeDegrees>
            </Position>
            <AltitudeMeters>67.8000030517578125</AltitudeMeters>
            <DistanceMeters>NAN</DistanceMeters>
          </Trackpoint>
          <Trackpoint>
            <Time>2022-07-05T17:04:10.000Z</Time>
            <Position>
              <LatitudeDegrees>44.2594881914556026458740234375</LatitudeDegrees>
              <LongitudeDegrees>-1.07869838364422321319580078125</LongitudeDegrees>
            </Position>
            <AltitudeMeters>68.40000152587890625</AltitudeMeters>
            <DistanceMeters>NAN</DistanceMeters>
          </Trackpoint>
          <Trackpoint>
            <Time>2022-07-05T17:04:11.000Z</Time>
            <Position>
              <LatitudeDegrees>44.25945525057613849639892578125</LatitudeDegrees>
              <LongitudeDegrees>-1.078705005347728729248046875</LongitudeDegrees>
            </Position>
            <AltitudeMeters>68.1999969482421875</AltitudeMeters>
            <DistanceMeters>NAN</DistanceMeters>
          </Trackpoint>
          <Trackpoint>
            <Time>2022-07-05T17:04:12.000Z</Time>
            <Position>
              <LatitudeDegrees>44.2594208009541034698486328125</LatitudeDegrees>
              <LongitudeDegrees>-1.078711710870265960693359375</LongitudeDegrees>
            </Position>
            <AltitudeMeters>68.1999969482421875</AltitudeMeters>
            <DistanceMeters>NAN</DistanceMeters>
          </Trackpoint>
          <Trackpoint>
            <Time>2022-07-05T17:04:19.000Z</Time>
            <Position>
              <LatitudeDegrees>44.2591589502990245819091796875</LatitudeDegrees>
              <LongitudeDegrees>-1.07877264730632305145263671875</LongitudeDegrees>
            </Position>
            <AltitudeMeters>68.1999969482421875</AltitudeMeters>
            <DistanceMeters>NAN</DistanceMeters>
          </Trackpoint>
          <Trackpoint>
            <Time>2022-07-05T17:04:24.000Z</Time>
            <Position>
              <LatitudeDegrees>44.2589678429067134857177734375</LatitudeDegrees>
              <LongitudeDegrees>-1.0788141377270221710205078125</LongitudeDegrees>
            </Position>
            <AltitudeMeters>68</AltitudeMeters>
            <DistanceMeters>NAN</DistanceMeters>
          </Trackpoint>
          <Trackpoint>
            <Time>2022-07-05T17:04:29.000Z</Time>
            <Position>
              <LatitudeDegrees>44.25876072607934474945068359375</LatitudeDegrees>
              <LongitudeDegrees>-1.0788587294518947601318359375</LongitudeDegrees>
            </Position>
            <AltitudeMeters>68</AltitudeMeters>
            <DistanceMeters>NAN</DistanceMeters>
          </Trackpoint>
          <Trackpoint>
            <Time>2022-07-05T17:04:37.000Z</Time>
            <Position>
              <LatitudeDegrees>44.2584293894469738006591796875</LatitudeDegrees>
              <LongitudeDegrees>-1.07894984073936939239501953125</LongitudeDegrees>
            </Position>
            <AltitudeMeters>68</AltitudeMeters>
            <DistanceMeters>NAN</DistanceMeters>
          </Trackpoint>
          <Trackpoint>
            <Time>2022-07-05T17:04:47.000Z</Time>
            <Position>
              <LatitudeDegrees>44.25801708362996578216552734375</LatitudeDegrees>
              <LongitudeDegrees>-1.07903198339045047760009765625</LongitudeDegrees>
            </Position>
            <AltitudeMeters>68</AltitudeMeters>
            <DistanceMeters>NAN</DistanceMeters>
          </Trackpoint>
          <Trackpoint>
            <Time>2022-07-05T17:04:49.000Z</Time>
            <Position>
              <LatitudeDegrees>44.25794399343430995941162109375</LatitudeDegrees>
              <LongitudeDegrees>-1.0790471546351909637451171875</LongitudeDegrees>
            </Position>
            <AltitudeMeters>68.1999969482421875</AltitudeMeters>
            <DistanceMeters>NAN</DistanceMeters>
          </Trackpoint>
          <Trackpoint>
            <Time>2022-07-05T17:04:58.000Z</Time>
            <Position>
              <LatitudeDegrees>44.25757217220962047576904296875</LatitudeDegrees>
              <LongitudeDegrees>-1.079154275357723236083984375</LongitudeDegrees>
            </Position>
            <AltitudeMeters>68</AltitudeMeters>
            <DistanceMeters>NAN</DistanceMeters>
          </Trackpoint>
          <Trackpoint>
            <Time>2022-07-05T17:05:07.000Z</Time>
            <Position>
              <LatitudeDegrees>44.2571717686951160430908203125</LatitudeDegrees>
              <LongitudeDegrees>-1.079250834882259368896484375</LongitudeDegrees>
            </Position>
            <AltitudeMeters>68</AltitudeMeters>
            <DistanceMeters>NAN</DistanceMeters>
          </Trackpoint>
          <Trackpoint>
            <Time>2022-07-05T17:05:08.000Z</Time>
            <Position>
              <LatitudeDegrees>44.25712801516056060791015625</LatitudeDegrees>
              <LongitudeDegrees>-1.07925988733768463134765625</LongitudeDegrees>
            </Position>
            <AltitudeMeters>68.1999969482421875</AltitudeMeters>
            <DistanceMeters>NAN</DistanceMeters>
          </Trackpoint>
          <Trackpoint>
            <Time>2022-07-05T17:05:14.000Z</Time>
            <Position>
              <LatitudeDegrees>44.25686071626842021942138671875</LatitudeDegrees>
              <LongitudeDegrees>-1.07932182960212230682373046875</LongitudeDegrees>
            </Position>
            <AltitudeMeters>67.8000030517578125</AltitudeMeters>
            <DistanceMeters>NAN</DistanceMeters>
          </Trackpoint>
          <Trackpoint>
            <Time>2022-07-05T17:05:17.000Z</Time>
            <Position>
              <LatitudeDegrees>44.25673129968345165252685546875</LatitudeDegrees>
              <LongitudeDegrees>-1.07935049571096897125244140625</LongitudeDegrees>
            </Position>
            <AltitudeMeters>67.8000030517578125</AltitudeMeters>
            <DistanceMeters>NAN</DistanceMeters>
          </Trackpoint>
          <Trackpoint>
            <Time>2022-07-05T17:05:19.000Z</Time>
            <Position>
              <LatitudeDegrees>44.25665326416492462158203125</LatitudeDegrees>
              <LongitudeDegrees>-1.0793706960976123809814453125</LongitudeDegrees>
            </Position>
            <AltitudeMeters>67.8000030517578125</AltitudeMeters>
            <DistanceMeters>NAN</DistanceMeters>
          </Trackpoint>
          <Trackpoint>
            <Time>2022-07-05T17:05:21.000Z</Time>
            <Position>
              <LatitudeDegrees>44.2565883882343769073486328125</LatitudeDegrees>
              <LongitudeDegrees>-1.079393662512302398681640625</LongitudeDegrees>
            </Position>
            <AltitudeMeters>68</AltitudeMeters>
            <DistanceMeters>NAN</DistanceMeters>
          </Trackpoint>
          <Trackpoint>
            <Time>2022-07-05T17:05:23.000Z</Time>
            <Position>
              <LatitudeDegrees>44.256514795124530792236328125</LatitudeDegrees>
              <LongitudeDegrees>-1.07941755093634128570556640625</LongitudeDegrees>
            </Position>
            <AltitudeMeters>68</AltitudeMeters>
            <DistanceMeters>NAN</DistanceMeters>
          </Trackpoint>
          <Trackpoint>
            <Time>2022-07-05T17:05:34.000Z</Time>
            <Position>
              <LatitudeDegrees>44.2560656927525997161865234375</LatitudeDegrees>
              <LongitudeDegrees>-1.07951109297573566436767578125</LongitudeDegrees>
            </Position>
            <AltitudeMeters>67.59999847412109375</AltitudeMeters>
            <DistanceMeters>NAN</DistanceMeters>
          </Trackpoint>
          <Trackpoint>
            <Time>2022-07-05T17:05:35.000Z</Time>
            <Position>
              <LatitudeDegrees>44.25602252595126628875732421875</LatitudeDegrees>
              <LongitudeDegrees>-1.07951796613633632659912109375</LongitudeDegrees>
            </Position>
            <AltitudeMeters>67.59999847412109375</AltitudeMeters>
            <DistanceMeters>NAN</DistanceMeters>
          </Trackpoint>
          <Trackpoint>
            <Time>2022-07-05T17:05:39.000Z</Time>
            <Position>
              <LatitudeDegrees>44.2558521218597888946533203125</LatitudeDegrees>
              <LongitudeDegrees>-1.0795571096241474151611328125</LongitudeDegrees>
            </Position>
            <AltitudeMeters>67.40000152587890625</AltitudeMeters>
            <DistanceMeters>NAN</DistanceMeters>
          </Trackpoint>
          <Trackpoint>
            <Time>2022-07-05T17:05:41.000Z</Time>
            <Position>
              <LatitudeDegrees>44.25576503388583660125732421875</LatitudeDegrees>
              <LongitudeDegrees>-1.07957513071596622467041015625</LongitudeDegrees>
            </Position>
            <AltitudeMeters>67.40000152587890625</AltitudeMeters>
            <DistanceMeters>NAN</DistanceMeters>
          </Trackpoint>
          <Trackpoint>
            <Time>2022-07-05T17:05:51.000Z</Time>
            <Position>
              <LatitudeDegrees>44.25535197369754314422607421875</LatitudeDegrees>
              <LongitudeDegrees>-1.07967705465853214263916015625</LongitudeDegrees>
            </Position>
            <AltitudeMeters>67.59999847412109375</AltitudeMeters>
            <DistanceMeters>NAN</DistanceMeters>
          </Trackpoint>
          <Trackpoint>
            <Time>2022-07-05T17:06:02.000Z</Time>
            <Position>
              <LatitudeDegrees>44.25491309724748134613037109375</LatitudeDegrees>
              <LongitudeDegrees>-1.07978702522814273834228515625</LongitudeDegrees>
            </Position>
            <AltitudeMeters>67.40000152587890625</AltitudeMeters>
            <DistanceMeters>NAN</DistanceMeters>
          </Trackpoint>
          <Trackpoint>
            <Time>2022-07-05T17:06:12.000Z</Time>
            <Position>
              <LatitudeDegrees>44.25450992770493030548095703125</LatitudeDegrees>
              <LongitudeDegrees>-1.079872436821460723876953125</LongitudeDegrees>
            </Position>
            <AltitudeMeters>67</AltitudeMeters>
            <DistanceMeters>NAN</DistanceMeters>
          </Trackpoint>
          <Trackpoint>
            <Time>2022-07-05T17:06:22.000Z</Time>
            <Position>
              <LatitudeDegrees>44.25414850004017353057861328125</LatitudeDegrees>
              <LongitudeDegrees>-1.07996254228055477142333984375</LongitudeDegrees>
            </Position>
            <AltitudeMeters>67</AltitudeMeters>
            <DistanceMeters>NAN</DistanceMeters>
          </Trackpoint>
          <Trackpoint>
            <Time>2022-07-05T17:06:29.000Z</Time>
            <Position>
              <LatitudeDegrees>44.25392218865454196929931640625</LatitudeDegrees>
              <LongitudeDegrees>-1.08001434244215488433837890625</LongitudeDegrees>
            </Position>
            <AltitudeMeters>66.8000030517578125</AltitudeMeters>
            <DistanceMeters>NAN</DistanceMeters>
          </Trackpoint>
          <Trackpoint>
            <Time>2022-07-05T17:06:30.000Z</Time>
            <Position>
              <LatitudeDegrees>44.253914393484592437744140625</LatitudeDegrees>
              <LongitudeDegrees>-1.08001518063247203826904296875</LongitudeDegrees>
            </Position>
            <AltitudeMeters>66.8000030517578125</AltitudeMeters>
            <DistanceMeters>NAN</DistanceMeters>
          </Trackpoint>
          <Trackpoint>
            <Time>2022-07-05T17:06:32.000Z</Time>
            <Position>
              <LatitudeDegrees>44.25391204655170440673828125</LatitudeDegrees>
              <LongitudeDegrees>-1.08001719228923320770263671875</LongitudeDegrees>
            </Position>
            <AltitudeMeters>66.59999847412109375</AltitudeMeters>
            <DistanceMeters>NAN</DistanceMeters>
          </Trackpoint>
          <Trackpoint>
            <Time>2022-07-05T17:06:55.000Z</Time>
            <Position>
              <LatitudeDegrees>44.25388983450829982757568359375</LatitudeDegrees>
              <LongitudeDegrees>-1.08002138324081897735595703125</LongitudeDegrees>
            </Position>
            <AltitudeMeters>66.8000030517578125</AltitudeMeters>
            <DistanceMeters>NAN</DistanceMeters>
          </Trackpoint>
          <Trackpoint>
            <Time>2022-07-05T17:06:56.000Z</Time>
            <Position>
              <LatitudeDegrees>44.253865778446197509765625</LatitudeDegrees>
              <LongitudeDegrees>-1.08002699911594390869140625</LongitudeDegrees>
            </Position>
            <AltitudeMeters>66.8000030517578125</AltitudeMeters>
            <DistanceMeters>NAN</DistanceMeters>
          </Trackpoint>
          <Trackpoint>
            <Time>2022-07-05T17:06:57.000Z</Time>
            <Position>
              <LatitudeDegrees>44.25383820198476314544677734375</LatitudeDegrees>
              <LongitudeDegrees>-1.08003814704716205596923828125</LongitudeDegrees>
            </Position>
            <AltitudeMeters>66.8000030517578125</AltitudeMeters>
            <DistanceMeters>NAN</DistanceMeters>
          </Trackpoint>
          <Trackpoint>
            <Time>2022-07-05T17:07:03.000Z</Time>
            <Position>
              <LatitudeDegrees>44.2536382935941219329833984375</LatitudeDegrees>
              <LongitudeDegrees>-1.08009078539907932281494140625</LongitudeDegrees>
            </Position>
            <AltitudeMeters>67</AltitudeMeters>
            <DistanceMeters>NAN</DistanceMeters>
          </Trackpoint>
          <Trackpoint>
            <Time>2022-07-05T17:07:12.000Z</Time>
            <Position>
              <LatitudeDegrees>44.25331123173236846923828125</LatitudeDegrees>
              <LongitudeDegrees>-1.0801644623279571533203125</LongitudeDegrees>
            </Position>
            <AltitudeMeters>67</AltitudeMeters>
            <DistanceMeters>NAN</DistanceMeters>
          </Trackpoint>
          <Trackpoint>
            <Time>2022-07-05T17:07:20.000Z</Time>
            <Position>
              <LatitudeDegrees>44.2530155181884765625</LatitudeDegrees>
              <LongitudeDegrees>-1.0802417434751987457275390625</LongitudeDegrees>
            </Position>
            <AltitudeMeters>66.8000030517578125</AltitudeMeters>
            <DistanceMeters>NAN</DistanceMeters>
          </Trackpoint>
          <Trackpoint>
            <Time>2022-07-05T17:07:30.000Z</Time>
            <Position>
              <LatitudeDegrees>44.25267144106328487396240234375</LatitudeDegrees>
              <LongitudeDegrees>-1.08029463328421115875244140625</LongitudeDegrees>
            </Position>
            <AltitudeMeters>66.1999969482421875</AltitudeMeters>
            <DistanceMeters>NAN</DistanceMeters>
          </Trackpoint>
          <Trackpoint>
            <Time>2022-07-05T17:07:39.000Z</Time>
            <Position>
              <LatitudeDegrees>44.25235460512340068817138671875</LatitudeDegrees>
              <LongitudeDegrees>-1.0803684778511524200439453125</LongitudeDegrees>
            </Position>
            <AltitudeMeters>66.59999847412109375</AltitudeMeters>
            <DistanceMeters>NAN</DistanceMeters>
          </Trackpoint>
          <Trackpoint>
            <Time>2022-07-05T17:07:41.000Z</Time>
            <Position>
              <LatitudeDegrees>44.25229576416313648223876953125</LatitudeDegrees>
              <LongitudeDegrees>-1.08038775622844696044921875</LongitudeDegrees>
            </Position>
            <AltitudeMeters>66.59999847412109375</AltitudeMeters>
            <DistanceMeters>NAN</DistanceMeters>
          </Trackpoint>
          <Trackpoint>
            <Time>2022-07-05T17:07:46.000Z</Time>
            <Position>
              <LatitudeDegrees>44.25213466398417949676513671875</LatitudeDegrees>
              <LongitudeDegrees>-1.08043544925749301910400390625</LongitudeDegrees>
            </Position>
            <AltitudeMeters>66.59999847412109375</AltitudeMeters>
            <DistanceMeters>NAN</DistanceMeters>
          </Trackpoint>
          <Trackpoint>
            <Time>2022-07-05T17:07:48.000Z</Time>
            <Position>
              <LatitudeDegrees>44.25204925239086151123046875</LatitudeDegrees>
              <LongitudeDegrees>-1.080453135073184967041015625</LongitudeDegrees>
            </Position>
            <AltitudeMeters>66.40000152587890625</AltitudeMeters>
            <DistanceMeters>NAN</DistanceMeters>
          </Trackpoint>
          <Trackpoint>
            <Time>2022-07-05T17:07:57.000Z</Time>
            <Position>
              <LatitudeDegrees>44.2516769282519817352294921875</LatitudeDegrees>
              <LongitudeDegrees>-1.080543659627437591552734375</LongitudeDegrees>
            </Position>
            <AltitudeMeters>66</AltitudeMeters>
            <DistanceMeters>NAN</DistanceMeters>
          </Trackpoint>
          <Trackpoint>
            <Time>2022-07-05T17:08:02.000Z</Time>
            <Position>
              <LatitudeDegrees>44.25147802568972110748291015625</LatitudeDegrees>
              <LongitudeDegrees>-1.0805833898484706878662109375</LongitudeDegrees>
            </Position>
            <AltitudeMeters>65.8000030517578125</AltitudeMeters>
            <DistanceMeters>NAN</DistanceMeters>
          </Trackpoint>
          <Trackpoint>
            <Time>2022-07-05T17:08:08.000Z</Time>
            <Position>
              <LatitudeDegrees>44.25122824497520923614501953125</LatitudeDegrees>
              <LongitudeDegrees>-1.08065321110188961029052734375</LongitudeDegrees>
            </Position>
            <AltitudeMeters>65.40000152587890625</AltitudeMeters>
            <DistanceMeters>NAN</DistanceMeters>
          </Trackpoint>
          <Trackpoint>
            <Time>2022-07-05T17:08:17.000Z</Time>
            <Position>
              <LatitudeDegrees>44.25082390196621417999267578125</LatitudeDegrees>
              <LongitudeDegrees>-1.080746836960315704345703125</LongitudeDegrees>
            </Position>
            <AltitudeMeters>65.1999969482421875</AltitudeMeters>
            <DistanceMeters>NAN</DistanceMeters>
          </Trackpoint>
          <Trackpoint>
            <Time>2022-07-05T17:08:20.000Z</Time>
            <Position>
              <LatitudeDegrees>44.25069163553416728973388671875</LatitudeDegrees>
              <LongitudeDegrees>-1.0807788558304309844970703125</LongitudeDegrees>
            </Position>
            <AltitudeMeters>65.1999969482421875</AltitudeMeters>
            <DistanceMeters>NAN</DistanceMeters>
          </Trackpoint>
          <Trackpoint>
            <Time>2022-07-05T17:08:25.000Z</Time>
            <Position>
              <LatitudeDegrees>44.250496588647365570068359375</LatitudeDegrees>
              <LongitudeDegrees>-1.0808361880481243133544921875</LongitudeDegrees>
            </Position>
            <AltitudeMeters>65.1999969482421875</AltitudeMeters>
            <DistanceMeters>NAN</DistanceMeters>
          </Trackpoint>
          <Trackpoint>
            <Time>2022-07-05T17:08:31.000Z</Time>
            <Position>
              <LatitudeDegrees>44.25025619566440582275390625</LatitudeDegrees>
              <LongitudeDegrees>-1.08088606037199497222900390625</LongitudeDegrees>
            </Position>
            <AltitudeMeters>65.1999969482421875</AltitudeMeters>
            <DistanceMeters>NAN</DistanceMeters>
          </Trackpoint>
          <Trackpoint>
            <Time>2022-07-05T17:08:33.000Z</Time>
            <Position>
              <LatitudeDegrees>44.25016894005239009857177734375</LatitudeDegrees>
              <LongitudeDegrees>-1.0809052549302577972412109375</LongitudeDegrees>
            </Position>
            <AltitudeMeters>65.1999969482421875</AltitudeMeters>
            <DistanceMeters>NAN</DistanceMeters>
          </Trackpoint>
          <Trackpoint>
            <Time>2022-07-05T17:08:40.000Z</Time>
            <Position>
              <LatitudeDegrees>44.2498724721372127532958984375</LatitudeDegrees>
              <LongitudeDegrees>-1.080982871353626251220703125</LongitudeDegrees>
            </Position>
            <AltitudeMeters>65</AltitudeMeters>
            <DistanceMeters>NAN</DistanceMeters>
          </Trackpoint>
          <Trackpoint>
            <Time>2022-07-05T17:08:42.000Z</Time>
            <Position>
              <LatitudeDegrees>44.249776415526866912841796875</LatitudeDegrees>
              <LongitudeDegrees>-1.0810078494250774383544921875</LongitudeDegrees>
            </Position>
            <AltitudeMeters>64.8000030517578125</AltitudeMeters>
            <DistanceMeters>NAN</DistanceMeters>
          </Trackpoint>
          <Trackpoint>
            <Time>2022-07-05T17:08:51.000Z</Time>
            <Position>
              <LatitudeDegrees>44.249380789697170257568359375</LatitudeDegrees>
              <LongitudeDegrees>-1.0811265371739864349365234375</LongitudeDegrees>
            </Position>
            <AltitudeMeters>64.40000152587890625</AltitudeMeters>
            <DistanceMeters>NAN</DistanceMeters>
          </Trackpoint>
          <Trackpoint>
            <Time>2022-07-05T17:08:54.000Z</Time>
            <Position>
              <LatitudeDegrees>44.2492552287876605987548828125</LatitudeDegrees>
              <LongitudeDegrees>-1.08116551302373409271240234375</LongitudeDegrees>
            </Position>
            <AltitudeMeters>64.40000152587890625</AltitudeMeters>
            <DistanceMeters>NAN</DistanceMeters>
          </Trackpoint>
          <Trackpoint>
            <Time>2022-07-05T17:08:58.000Z</Time>
            <Position>
              <LatitudeDegrees>44.24910410307347774505615234375</LatitudeDegrees>
              <LongitudeDegrees>-1.08120725490152835845947265625</LongitudeDegrees>
            </Position>
            <AltitudeMeters>64.59999847412109375</AltitudeMeters>
            <DistanceMeters>NAN</DistanceMeters>
          </Trackpoint>
          <Trackpoint>
            <Time>2022-07-05T17:08:59.000Z</Time>
            <Position>
              <LatitudeDegrees>44.24906269647181034088134765625</LatitudeDegrees>
              <LongitudeDegrees>-1.081213541328907012939453125</LongitudeDegrees>
            </Position>
            <AltitudeMeters>64.59999847412109375</AltitudeMeters>
            <DistanceMeters>NAN</DistanceMeters>
          </Trackpoint>
          <Trackpoint>
            <Time>2022-07-05T17:09:04.000Z</Time>
            <Position>
              <LatitudeDegrees>44.24887896515429019927978515625</LatitudeDegrees>
              <LongitudeDegrees>-1.08124715276062488555908203125</LongitudeDegrees>
            </Position>
            <AltitudeMeters>64.40000152587890625</AltitudeMeters>
            <DistanceMeters>NAN</DistanceMeters>
          </Trackpoint>
          <Trackpoint>
            <Time>2022-07-05T17:09:07.000Z</Time>
            <Position>
              <LatitudeDegrees>44.2487647198140621185302734375</LatitudeDegrees>
              <LongitudeDegrees>-1.08127146027982234954833984375</LongitudeDegrees>
            </Position>
            <AltitudeMeters>64.40000152587890625</AltitudeMeters>
            <DistanceMeters>NAN</DistanceMeters>
          </Trackpoint>
          <Trackpoint>
            <Time>2022-07-05T17:09:15.000Z</Time>
            <Position>
              <LatitudeDegrees>44.248508401215076446533203125</LatitudeDegrees>
              <LongitudeDegrees>-1.08135125599801540374755859375</LongitudeDegrees>
            </Position>
            <AltitudeMeters>64</AltitudeMeters>
            <DistanceMeters>NAN</DistanceMeters>
          </Trackpoint>
          <Trackpoint>
            <Time>2022-07-05T17:09:18.000Z</Time>
            <Position>
              <LatitudeDegrees>44.24840253777801990509033203125</LatitudeDegrees>
              <LongitudeDegrees>-1.08139500953257083892822265625</LongitudeDegrees>
            </Position>
            <AltitudeMeters>63.799999237060546875</AltitudeMeters>
            <DistanceMeters>NAN</DistanceMeters>
          </Trackpoint>
          <Trackpoint>
            <Time>2022-07-05T17:09:22.000Z</Time>
            <Position>
              <LatitudeDegrees>44.24825451336801052093505859375</LatitudeDegrees>
              <LongitudeDegrees>-1.08140104450285434722900390625</LongitudeDegrees>
            </Position>
            <AltitudeMeters>63.799999237060546875</AltitudeMeters>
            <DistanceMeters>NAN</DistanceMeters>
          </Trackpoint>
          <Trackpoint>
            <Time>2022-07-05T17:09:29.000Z</Time>
            <Position>
              <LatitudeDegrees>44.24797086976468563079833984375</LatitudeDegrees>
              <LongitudeDegrees>-1.0814554430544376373291015625</LongitudeDegrees>
            </Position>
            <AltitudeMeters>63.799999237060546875</AltitudeMeters>
            <DistanceMeters>NAN</DistanceMeters>
          </Trackpoint>
          <Trackpoint>
            <Time>2022-07-05T17:09:35.000Z</Time>
            <Position>
              <LatitudeDegrees>44.24770700745284557342529296875</LatitudeDegrees>
              <LongitudeDegrees>-1.08152559958398342132568359375</LongitudeDegrees>
            </Position>
            <AltitudeMeters>63.799999237060546875</AltitudeMeters>
            <DistanceMeters>NAN</DistanceMeters>
          </Trackpoint>
          <Trackpoint>
            <Time>2022-07-05T17:09:42.000Z</Time>
            <Position>
              <LatitudeDegrees>44.2474646866321563720703125</LatitudeDegrees>
              <LongitudeDegrees>-1.08159667812287807464599609375</LongitudeDegrees>
            </Position>
            <AltitudeMeters>63.40000152587890625</AltitudeMeters>
            <DistanceMeters>NAN</DistanceMeters>
          </Trackpoint>
          <Trackpoint>
            <Time>2022-07-05T17:09:49.000Z</Time>
            <Position>
              <LatitudeDegrees>44.24707450903952121734619140625</LatitudeDegrees>
              <LongitudeDegrees>-1.08166314661502838134765625</LongitudeDegrees>
            </Position>
            <AltitudeMeters>63.40000152587890625</AltitudeMeters>
            <DistanceMeters>NAN</DistanceMeters>
          </Trackpoint>
          <Trackpoint>
            <Time>2022-07-05T17:09:55.000Z</Time>
            <Position>
              <LatitudeDegrees>44.2468744330108165740966796875</LatitudeDegrees>
              <LongitudeDegrees>-1.0817598737776279449462890625</LongitudeDegrees>
            </Position>
            <AltitudeMeters>63.200000762939453125</AltitudeMeters>
            <DistanceMeters>NAN</DistanceMeters>
          </Trackpoint>
          <Trackpoint>
            <Time>2022-07-05T17:10:02.000Z</Time>
            <Position>
              <LatitudeDegrees>44.24666899256408214569091796875</LatitudeDegrees>
              <LongitudeDegrees>-1.081835143268108367919921875</LongitudeDegrees>
            </Position>
            <AltitudeMeters>63.200000762939453125</AltitudeMeters>
            <DistanceMeters>NAN</DistanceMeters>
          </Trackpoint>
          <Trackpoint>
            <Time>2022-07-05T17:10:08.000Z</Time>
            <Position>
              <LatitudeDegrees>44.24646430648863315582275390625</LatitudeDegrees>
              <LongitudeDegrees>-1.0818611271679401397705078125</LongitudeDegrees>
            </Position>
            <AltitudeMeters>63.40000152587890625</AltitudeMeters>
            <DistanceMeters>NAN</DistanceMeters>
          </Trackpoint>
          <Trackpoint>
            <Time>2022-07-05T17:10:14.000Z</Time>
            <Position>
              <LatitudeDegrees>44.24622659571468830108642578125</LatitudeDegrees>
              <LongitudeDegrees>-1.08188954181969165802001953125</LongitudeDegrees>
            </Position>
            <AltitudeMeters>63.59999847412109375</AltitudeMeters>
            <DistanceMeters>NAN</DistanceMeters>
          </Trackpoint>
          <Trackpoint>
            <Time>2022-07-05T17:10:18.000Z</Time>
            <Position>
              <LatitudeDegrees>44.24600531347095966339111328125</LatitudeDegrees>
              <LongitudeDegrees>-1.0819368995726108551025390625</LongitudeDegrees>
            </Position>
            <AltitudeMeters>63.799999237060546875</AltitudeMeters>
            <DistanceMeters>NAN</DistanceMeters>
          </Trackpoint>
          <Trackpoint>
            <Time>2022-07-05T17:10:20.000Z</Time>
            <Position>
              <LatitudeDegrees>44.245898611843585968017578125</LatitudeDegrees>
              <LongitudeDegrees>-1.08198258094489574432373046875</LongitudeDegrees>
            </Position>
            <AltitudeMeters>63.59999847412109375</AltitudeMeters>
            <DistanceMeters>NAN</DistanceMeters>
          </Trackpoint>
          <Trackpoint>
            <Time>2022-07-05T17:10:27.000Z</Time>
            <Position>
              <LatitudeDegrees>44.24559183418750762939453125</LatitudeDegrees>
              <LongitudeDegrees>-1.08209489844739437103271484375</LongitudeDegrees>
            </Position>
            <AltitudeMeters>63.40000152587890625</AltitudeMeters>
            <DistanceMeters>NAN</DistanceMeters>
          </Trackpoint>
          <Trackpoint>
            <Time>2022-07-05T17:10:34.000Z</Time>
            <Position>
              <LatitudeDegrees>44.245304167270660400390625</LatitudeDegrees>
              <LongitudeDegrees>-1.08215759508311748504638671875</LongitudeDegrees>
            </Position>
            <AltitudeMeters>63.40000152587890625</AltitudeMeters>
            <DistanceMeters>NAN</DistanceMeters>
          </Trackpoint>
          <Trackpoint>
            <Time>2022-07-05T17:10:41.000Z</Time>
            <Position>
              <LatitudeDegrees>44.245044328272342681884765625</LatitudeDegrees>
              <LongitudeDegrees>-1.08222079463303089141845703125</LongitudeDegrees>
            </Position>
            <AltitudeMeters>63.200000762939453125</AltitudeMeters>
            <DistanceMeters>NAN</DistanceMeters>
          </Trackpoint>
          <Trackpoint>
            <Time>2022-07-05T17:10:48.000Z</Time>
            <Position>
              <LatitudeDegrees>44.24478842876851558685302734375</LatitudeDegrees>
              <LongitudeDegrees>-1.0822929628193378448486328125</LongitudeDegrees>
            </Position>
            <AltitudeMeters>63.200000762939453125</AltitudeMeters>
            <DistanceMeters>NAN</DistanceMeters>
          </Trackpoint>
          <Trackpoint>
            <Time>2022-07-05T17:10:54.000Z</Time>
            <Position>
              <LatitudeDegrees>44.24458608962595462799072265625</LatitudeDegrees>
              <LongitudeDegrees>-1.08234400860965251922607421875</LongitudeDegrees>
            </Position>
            <AltitudeMeters>63</AltitudeMeters>
            <DistanceMeters>NAN</DistanceMeters>
          </Trackpoint>
          <Trackpoint>
            <Time>2022-07-05T17:11:00.000Z</Time>
            <Position>
              <LatitudeDegrees>44.2443752847611904144287109375</LatitudeDegrees>
              <LongitudeDegrees>-1.082391031086444854736328125</LongitudeDegrees>
            </Position>
            <AltitudeMeters>63.200000762939453125</AltitudeMeters>
            <DistanceMeters>NAN</DistanceMeters>
          </Trackpoint>
          <Trackpoint>
            <Time>2022-07-05T17:11:09.000Z</Time>
            <Position>
              <LatitudeDegrees>44.24405233003199100494384765625</LatitudeDegrees>
              <LongitudeDegrees>-1.08242112211883068084716796875</LongitudeDegrees>
            </Position>
            <AltitudeMeters>63.200000762939453125</AltitudeMeters>
            <DistanceMeters>NAN</DistanceMeters>
          </Trackpoint>
          <Trackpoint>
            <Time>2022-07-05T17:11:13.000Z</Time>
            <Position>
              <LatitudeDegrees>44.244029782712459564208984375</LatitudeDegrees>
              <LongitudeDegrees>-1.082430593669414520263671875</LongitudeDegrees>
            </Position>
            <AltitudeMeters>63</AltitudeMeters>
            <DistanceMeters>NAN</DistanceMeters>
          </Trackpoint>
          <Trackpoint>
            <Time>2022-07-05T17:11:14.000Z</Time>
            <Position>
              <LatitudeDegrees>44.24402634613215923309326171875</LatitudeDegrees>
              <LongitudeDegrees>-1.08241676352918148040771484375</LongitudeDegrees>
            </Position>
            <AltitudeMeters>63</AltitudeMeters>
            <DistanceMeters>NAN</DistanceMeters>
          </Trackpoint>
          <Trackpoint>
            <Time>2022-07-05T17:11:17.000Z</Time>
            <Position>
              <LatitudeDegrees>44.244009666144847869873046875</LatitudeDegrees>
              <LongitudeDegrees>-1.08234970830380916595458984375</LongitudeDegrees>
            </Position>
            <AltitudeMeters>62.799999237060546875</AltitudeMeters>
            <DistanceMeters>NAN</DistanceMeters>
          </Trackpoint>
          <Trackpoint>
            <Time>2022-07-05T17:11:18.000Z</Time>
            <Position>
              <LatitudeDegrees>44.2440105043351650238037109375</LatitudeDegrees>
              <LongitudeDegrees>-1.08232188038527965545654296875</LongitudeDegrees>
            </Position>
            <AltitudeMeters>62.799999237060546875</AltitudeMeters>
            <DistanceMeters>NAN</DistanceMeters>
          </Trackpoint>
          <Trackpoint>
            <Time>2022-07-05T17:11:23.000Z</Time>
            <Position>
              <LatitudeDegrees>44.24400488846004009246826171875</LatitudeDegrees>
              <LongitudeDegrees>-1.08216664753854274749755859375</LongitudeDegrees>
            </Position>
            <AltitudeMeters>62.799999237060546875</AltitudeMeters>
            <DistanceMeters>NAN</DistanceMeters>
          </Trackpoint>
          <Trackpoint>
            <Time>2022-07-05T17:11:27.000Z</Time>
            <Position>
              <LatitudeDegrees>44.2439967580139636993408203125</LatitudeDegrees>
              <LongitudeDegrees>-1.0820371471345424652099609375</LongitudeDegrees>
            </Position>
            <AltitudeMeters>63</AltitudeMeters>
            <DistanceMeters>NAN</DistanceMeters>
          </Trackpoint>
          <Trackpoint>
            <Time>2022-07-05T17:11:32.000Z</Time>
            <Position>
              <LatitudeDegrees>44.24399365670979022979736328125</LatitudeDegrees>
              <LongitudeDegrees>-1.081856600940227508544921875</LongitudeDegrees>
            </Position>
            <AltitudeMeters>62.799999237060546875</AltitudeMeters>
            <DistanceMeters>NAN</DistanceMeters>
          </Trackpoint>
          <Trackpoint>
            <Time>2022-07-05T17:11:37.000Z</Time>
            <Position>
              <LatitudeDegrees>44.243978820741176605224609375</LatitudeDegrees>
              <LongitudeDegrees>-1.0816772282123565673828125</LongitudeDegrees>
            </Position>
            <AltitudeMeters>62.799999237060546875</AltitudeMeters>
            <DistanceMeters>NAN</DistanceMeters>
          </Trackpoint>
          <Trackpoint>
            <Time>2022-07-05T17:11:40.000Z</Time>
            <Position>
              <LatitudeDegrees>44.24397622235119342803955078125</LatitudeDegrees>
              <LongitudeDegrees>-1.08159299008548259735107421875</LongitudeDegrees>
            </Position>
            <AltitudeMeters>62.799999237060546875</AltitudeMeters>
            <DistanceMeters>NAN</DistanceMeters>
          </Trackpoint>
          <Trackpoint>
            <Time>2022-07-05T17:11:42.000Z</Time>
            <Position>
              <LatitudeDegrees>44.24396574497222900390625</LatitudeDegrees>
              <LongitudeDegrees>-1.08151671476662158966064453125</LongitudeDegrees>
            </Position>
            <AltitudeMeters>62.799999237060546875</AltitudeMeters>
            <DistanceMeters>NAN</DistanceMeters>
          </Trackpoint>
          <Trackpoint>
            <Time>2022-07-05T17:11:47.000Z</Time>
            <Position>
              <LatitudeDegrees>44.2439662478864192962646484375</LatitudeDegrees>
              <LongitudeDegrees>-1.08131311833858489990234375</LongitudeDegrees>
            </Position>
            <AltitudeMeters>62.799999237060546875</AltitudeMeters>
            <DistanceMeters>NAN</DistanceMeters>
          </Trackpoint>
          <Trackpoint>
            <Time>2022-07-05T17:11:48.000Z</Time>
            <Position>
              <LatitudeDegrees>44.24398493953049182891845703125</LatitudeDegrees>
              <LongitudeDegrees>-1.08122527599334716796875</LongitudeDegrees>
            </Position>
            <AltitudeMeters>62.799999237060546875</AltitudeMeters>
            <DistanceMeters>NAN</DistanceMeters>
          </Trackpoint>
          <Trackpoint>
            <Time>2022-07-05T17:11:49.000Z</Time>
            <Position>
              <LatitudeDegrees>44.2439840175211429595947265625</LatitudeDegrees>
              <LongitudeDegrees>-1.08116635121405124664306640625</LongitudeDegrees>
            </Position>
            <AltitudeMeters>62.799999237060546875</AltitudeMeters>
            <DistanceMeters>NAN</DistanceMeters>
          </Trackpoint>
          <Trackpoint>
            <Time>2022-07-05T17:11:52.000Z</Time>
            <Position>
              <LatitudeDegrees>44.243979491293430328369140625</LatitudeDegrees>
              <LongitudeDegrees>-1.08104464598000049591064453125</LongitudeDegrees>
            </Position>
            <AltitudeMeters>62.799999237060546875</AltitudeMeters>
            <DistanceMeters>NAN</DistanceMeters>
          </Trackpoint>
          <Trackpoint>
            <Time>2022-07-05T17:11:53.000Z</Time>
            <Position>
              <LatitudeDegrees>44.24398384988307952880859375</LatitudeDegrees>
              <LongitudeDegrees>-1.0810182429850101470947265625</LongitudeDegrees>
            </Position>
            <AltitudeMeters>62.799999237060546875</AltitudeMeters>
            <DistanceMeters>NAN</DistanceMeters>
          </Trackpoint>
          <Trackpoint>
            <Time>2022-07-05T17:11:58.000Z</Time>
            <Position>
              <LatitudeDegrees>44.24398795701563358306884765625</LatitudeDegrees>
              <LongitudeDegrees>-1.08083610422909259796142578125</LongitudeDegrees>
            </Position>
            <AltitudeMeters>63.200000762939453125</AltitudeMeters>
            <DistanceMeters>NAN</DistanceMeters>
          </Trackpoint>
          <Trackpoint>
            <Time>2022-07-05T17:12:02.000Z</Time>
            <Position>
              <LatitudeDegrees>44.2439890466630458831787109375</LatitudeDegrees>
              <LongitudeDegrees>-1.08066536486148834228515625</LongitudeDegrees>
            </Position>
            <AltitudeMeters>63.200000762939453125</AltitudeMeters>
            <DistanceMeters>NAN</DistanceMeters>
          </Trackpoint>
          <Trackpoint>
            <Time>2022-07-05T17:12:03.000Z</Time>
            <Position>
              <LatitudeDegrees>44.24398116767406463623046875</LatitudeDegrees>
              <LongitudeDegrees>-1.08065061271190643310546875</LongitudeDegrees>
            </Position>
            <AltitudeMeters>63.200000762939453125</AltitudeMeters>
            <DistanceMeters>NAN</DistanceMeters>
          </Trackpoint>
          <Trackpoint>
            <Time>2022-07-05T17:12:05.000Z</Time>
            <Position>
              <LatitudeDegrees>44.24398594535887241363525390625</LatitudeDegrees>
              <LongitudeDegrees>-1.08062538318336009979248046875</LongitudeDegrees>
            </Position>
            <AltitudeMeters>63.200000762939453125</AltitudeMeters>
            <DistanceMeters>NAN</DistanceMeters>
          </Trackpoint>
          <Trackpoint>
            <Time>2022-07-05T17:12:11.000Z</Time>
            <Position>
              <LatitudeDegrees>44.24394587986171245574951171875</LatitudeDegrees>
              <LongitudeDegrees>-1.08043092302978038787841796875</LongitudeDegrees>
            </Position>
            <AltitudeMeters>63.200000762939453125</AltitudeMeters>
            <DistanceMeters>NAN</DistanceMeters>
          </Trackpoint>
          <Trackpoint>
            <Time>2022-07-05T17:12:15.000Z</Time>
            <Position>
              <LatitudeDegrees>44.24392961896955966949462890625</LatitudeDegrees>
              <LongitudeDegrees>-1.08037644065916538238525390625</LongitudeDegrees>
            </Position>
            <AltitudeMeters>63.40000152587890625</AltitudeMeters>
            <DistanceMeters>NAN</DistanceMeters>
          </Trackpoint>
          <Trackpoint>
            <Time>2022-07-05T17:12:16.000Z</Time>
            <Position>
              <LatitudeDegrees>44.24392341636121273040771484375</LatitudeDegrees>
              <LongitudeDegrees>-1.08034509234130382537841796875</LongitudeDegrees>
            </Position>
            <AltitudeMeters>63.40000152587890625</AltitudeMeters>
            <DistanceMeters>NAN</DistanceMeters>
          </Trackpoint>
          <Trackpoint>
            <Time>2022-07-05T17:12:23.000Z</Time>
            <Position>
              <LatitudeDegrees>44.24377958290278911590576171875</LatitudeDegrees>
              <LongitudeDegrees>-1.08015197329223155975341796875</LongitudeDegrees>
            </Position>
            <AltitudeMeters>63.40000152587890625</AltitudeMeters>
            <DistanceMeters>NAN</DistanceMeters>
          </Trackpoint>
          <Trackpoint>
            <Time>2022-07-05T17:12:28.000Z</Time>
            <Position>
              <LatitudeDegrees>44.2436799220740795135498046875</LatitudeDegrees>
              <LongitudeDegrees>-1.08007393777370452880859375</LongitudeDegrees>
            </Position>
            <AltitudeMeters>63.200000762939453125</AltitudeMeters>
            <DistanceMeters>NAN</DistanceMeters>
          </Trackpoint>
          <Trackpoint>
            <Time>2022-07-05T17:12:30.000Z</Time>
            <Position>
              <LatitudeDegrees>44.24366139806807041168212890625</LatitudeDegrees>
              <LongitudeDegrees>-1.0800429247319698333740234375</LongitudeDegrees>
            </Position>
            <AltitudeMeters>63.40000152587890625</AltitudeMeters>
            <DistanceMeters>NAN</DistanceMeters>
          </Trackpoint>
          <Trackpoint>
            <Time>2022-07-05T17:12:34.000Z</Time>
            <Position>
              <LatitudeDegrees>44.24357020296156406402587890625</LatitudeDegrees>
              <LongitudeDegrees>-1.080013923346996307373046875</LongitudeDegrees>
            </Position>
            <AltitudeMeters>63.40000152587890625</AltitudeMeters>
            <DistanceMeters>NAN</DistanceMeters>
          </Trackpoint>
          <Trackpoint>
            <Time>2022-07-05T17:12:35.000Z</Time>
            <Position>
              <LatitudeDegrees>44.24355008639395236968994140625</LatitudeDegrees>
              <LongitudeDegrees>-1.08000612817704677581787109375</LongitudeDegrees>
            </Position>
            <AltitudeMeters>63.40000152587890625</AltitudeMeters>
            <DistanceMeters>NAN</DistanceMeters>
          </Trackpoint>
          <Trackpoint>
            <Time>2022-07-05T17:12:40.000Z</Time>
            <Position>
              <LatitudeDegrees>44.24345017410814762115478515625</LatitudeDegrees>
              <LongitudeDegrees>-1.08000528998672962188720703125</LongitudeDegrees>
            </Position>
            <AltitudeMeters>63.200000762939453125</AltitudeMeters>
            <DistanceMeters>NAN</DistanceMeters>
          </Trackpoint>
          <Trackpoint>
            <Time>2022-07-05T17:12:46.000Z</Time>
            <Position>
              <LatitudeDegrees>44.24336903728544712066650390625</LatitudeDegrees>
              <LongitudeDegrees>-1.07999078929424285888671875</LongitudeDegrees>
            </Position>
            <AltitudeMeters>63.40000152587890625</AltitudeMeters>
            <DistanceMeters>NAN</DistanceMeters>
          </Trackpoint>
          <Trackpoint>
            <Time>2022-07-05T17:12:51.000Z</Time>
            <Position>
              <LatitudeDegrees>44.24328857101500034332275390625</LatitudeDegrees>
              <LongitudeDegrees>-1.0799597762525081634521484375</LongitudeDegrees>
            </Position>
            <AltitudeMeters>63.200000762939453125</AltitudeMeters>
            <DistanceMeters>NAN</DistanceMeters>
          </Trackpoint>
          <Trackpoint>
            <Time>2022-07-05T17:12:52.000Z</Time>
            <Position>
              <LatitudeDegrees>44.24327046610414981842041015625</LatitudeDegrees>
              <LongitudeDegrees>-1.07994711957871913909912109375</LongitudeDegrees>
            </Position>
            <AltitudeMeters>63.200000762939453125</AltitudeMeters>
            <DistanceMeters>NAN</DistanceMeters>
          </Trackpoint>
          <Trackpoint>
            <Time>2022-07-05T17:12:54.000Z</Time>
            <Position>
              <LatitudeDegrees>44.24324356019496917724609375</LatitudeDegrees>
              <LongitudeDegrees>-1.0799336247146129608154296875</LongitudeDegrees>
            </Position>
            <AltitudeMeters>63.200000762939453125</AltitudeMeters>
            <DistanceMeters>NAN</DistanceMeters>
          </Trackpoint>
          <Trackpoint>
            <Time>2022-07-05T17:12:57.000Z</Time>
            <Position>
              <LatitudeDegrees>44.243176169693470001220703125</LatitudeDegrees>
              <LongitudeDegrees>-1.07991862110793590545654296875</LongitudeDegrees>
            </Position>
            <AltitudeMeters>63</AltitudeMeters>
            <DistanceMeters>NAN</DistanceMeters>
          </Trackpoint>
          <Trackpoint>
            <Time>2022-07-05T17:13:03.000Z</Time>
            <Position>
              <LatitudeDegrees>44.2430613376200199127197265625</LatitudeDegrees>
              <LongitudeDegrees>-1.07990252785384654998779296875</LongitudeDegrees>
            </Position>
            <AltitudeMeters>63.200000762939453125</AltitudeMeters>
            <DistanceMeters>NAN</DistanceMeters>
          </Trackpoint>
          <Trackpoint>
            <Time>2022-07-05T17:13:08.000Z</Time>
            <Position>
              <LatitudeDegrees>44.2429263889789581298828125</LatitudeDegrees>
              <LongitudeDegrees>-1.07990051619708538055419921875</LongitudeDegrees>
            </Position>
            <AltitudeMeters>62.799999237060546875</AltitudeMeters>
            <DistanceMeters>NAN</DistanceMeters>
          </Trackpoint>
          <Trackpoint>
            <Time>2022-07-05T17:13:09.000Z</Time>
            <Position>
              <LatitudeDegrees>44.24290400929749011993408203125</LatitudeDegrees>
              <LongitudeDegrees>-1.0799034498631954193115234375</LongitudeDegrees>
            </Position>
            <AltitudeMeters>62.799999237060546875</AltitudeMeters>
            <DistanceMeters>NAN</DistanceMeters>
          </Trackpoint>
          <Trackpoint>
            <Time>2022-07-05T17:13:15.000Z</Time>
            <Position>
              <LatitudeDegrees>44.24272128380835056304931640625</LatitudeDegrees>
              <LongitudeDegrees>-1.07989280484616756439208984375</LongitudeDegrees>
            </Position>
            <AltitudeMeters>62.799999237060546875</AltitudeMeters>
            <DistanceMeters>NAN</DistanceMeters>
          </Trackpoint>
          <Trackpoint>
            <Time>2022-07-05T17:13:22.000Z</Time>
            <Position>
              <LatitudeDegrees>44.242455996572971343994140625</LatitudeDegrees>
              <LongitudeDegrees>-1.07989682815968990325927734375</LongitudeDegrees>
            </Position>
            <AltitudeMeters>63</AltitudeMeters>
            <DistanceMeters>NAN</DistanceMeters>
          </Trackpoint>
          <Trackpoint>
            <Time>2022-07-05T17:13:26.000Z</Time>
            <Position>
              <LatitudeDegrees>44.24240746535360813140869140625</LatitudeDegrees>
              <LongitudeDegrees>-1.07992767356336116790771484375</LongitudeDegrees>
            </Position>
            <AltitudeMeters>63</AltitudeMeters>
            <DistanceMeters>NAN</DistanceMeters>
          </Trackpoint>
          <Trackpoint>
            <Time>2022-07-05T17:13:28.000Z</Time>
            <Position>
              <LatitudeDegrees>44.24234409816563129425048828125</LatitudeDegrees>
              <LongitudeDegrees>-1.0799574293196201324462890625</LongitudeDegrees>
            </Position>
            <AltitudeMeters>63</AltitudeMeters>
            <DistanceMeters>NAN</DistanceMeters>
          </Trackpoint>
          <Trackpoint>
            <Time>2022-07-05T17:13:31.000Z</Time>
            <Position>
              <LatitudeDegrees>44.24225541763007640838623046875</LatitudeDegrees>
              <LongitudeDegrees>-1.079929769039154052734375</LongitudeDegrees>
            </Position>
            <AltitudeMeters>63</AltitudeMeters>
            <DistanceMeters>NAN</DistanceMeters>
          </Trackpoint>
          <Trackpoint>
            <Time>2022-07-05T17:13:35.000Z</Time>
            <Position>
              <LatitudeDegrees>44.24207948148250579833984375</LatitudeDegrees>
              <LongitudeDegrees>-1.07992096804082393646240234375</LongitudeDegrees>
            </Position>
            <AltitudeMeters>63</AltitudeMeters>
            <DistanceMeters>NAN</DistanceMeters>
          </Trackpoint>
          <Trackpoint>
            <Time>2022-07-05T17:13:39.000Z</Time>
            <Position>
              <LatitudeDegrees>44.2419810779392719268798828125</LatitudeDegrees>
              <LongitudeDegrees>-1.07985709793865680694580078125</LongitudeDegrees>
            </Position>
            <AltitudeMeters>62.799999237060546875</AltitudeMeters>
            <DistanceMeters>NAN</DistanceMeters>
          </Trackpoint>
          <Trackpoint>
            <Time>2022-07-05T17:13:40.000Z</Time>
            <Position>
              <LatitudeDegrees>44.2419468797743320465087890625</LatitudeDegrees>
              <LongitudeDegrees>-1.079852990806102752685546875</LongitudeDegrees>
            </Position>
            <AltitudeMeters>62.799999237060546875</AltitudeMeters>
            <DistanceMeters>NAN</DistanceMeters>
          </Trackpoint>
          <Trackpoint>
            <Time>2022-07-05T17:13:47.000Z</Time>
            <Position>
              <LatitudeDegrees>44.241814278066158294677734375</LatitudeDegrees>
              <LongitudeDegrees>-1.079893223941326141357421875</LongitudeDegrees>
            </Position>
            <AltitudeMeters>62.40000152587890625</AltitudeMeters>
            <DistanceMeters>NAN</DistanceMeters>
          </Trackpoint>
          <Trackpoint>
            <Time>2022-07-05T17:13:53.000Z</Time>
            <Position>
              <LatitudeDegrees>44.24172568134963512420654296875</LatitudeDegrees>
              <LongitudeDegrees>-1.07993555255234241485595703125</LongitudeDegrees>
            </Position>
            <AltitudeMeters>62.200000762939453125</AltitudeMeters>
            <DistanceMeters>NAN</DistanceMeters>
          </Trackpoint>
          <Trackpoint>
            <Time>2022-07-05T17:13:54.000Z</Time>
            <Position>
              <LatitudeDegrees>44.24171461723744869232177734375</LatitudeDegrees>
              <LongitudeDegrees>-1.07993982732295989990234375</LongitudeDegrees>
            </Position>
            <AltitudeMeters>62.200000762939453125</AltitudeMeters>
            <DistanceMeters>NAN</DistanceMeters>
          </Trackpoint>
          <Trackpoint>
            <Time>2022-07-05T17:13:58.000Z</Time>
            <Position>
              <LatitudeDegrees>44.24170942045748233795166015625</LatitudeDegrees>
              <LongitudeDegrees>-1.079940497875213623046875</LongitudeDegrees>
            </Position>
            <AltitudeMeters>62.200000762939453125</AltitudeMeters>
            <DistanceMeters>NAN</DistanceMeters>
          </Trackpoint>
          <Trackpoint>
            <Time>2022-07-05T17:15:49.000Z</Time>
            <Position>
              <LatitudeDegrees>44.241695590317249298095703125</LatitudeDegrees>
              <LongitudeDegrees>-1.07996639795601367950439453125</LongitudeDegrees>
            </Position>
            <AltitudeMeters>61</AltitudeMeters>
            <DistanceMeters>NAN</DistanceMeters>
          </Trackpoint>
          <Trackpoint>
            <Time>2022-07-05T17:15:51.000Z</Time>
            <Position>
              <LatitudeDegrees>44.24170036800205707550048828125</LatitudeDegrees>
              <LongitudeDegrees>-1.07999053783714771270751953125</LongitudeDegrees>
            </Position>
            <AltitudeMeters>61</AltitudeMeters>
            <DistanceMeters>NAN</DistanceMeters>
          </Trackpoint>
          <Trackpoint>
            <Time>2022-07-05T17:15:54.000Z</Time>
            <Position>
              <LatitudeDegrees>44.2416994459927082061767578125</LatitudeDegrees>
              <LongitudeDegrees>-1.0799969919025897979736328125</LongitudeDegrees>
            </Position>
            <AltitudeMeters>61</AltitudeMeters>
            <DistanceMeters>NAN</DistanceMeters>
          </Trackpoint>
          <Trackpoint>
            <Time>2022-07-05T17:18:04.000Z</Time>
            <Position>
              <LatitudeDegrees>44.24115487374365329742431640625</LatitudeDegrees>
              <LongitudeDegrees>-1.0799054615199565887451171875</LongitudeDegrees>
            </Position>
            <AltitudeMeters>60.40000152587890625</AltitudeMeters>
            <DistanceMeters>NAN</DistanceMeters>
          </Trackpoint>
          <Trackpoint>
            <Time>2022-07-05T17:18:05.000Z</Time>
            <Position>
              <LatitudeDegrees>44.24117784015834331512451171875</LatitudeDegrees>
              <LongitudeDegrees>-1.079916693270206451416015625</LongitudeDegrees>
            </Position>
            <AltitudeMeters>60.40000152587890625</AltitudeMeters>
            <DistanceMeters>NAN</DistanceMeters>
          </Trackpoint>
          <Trackpoint>
            <Time>2022-07-05T17:18:11.000Z</Time>
            <Position>
              <LatitudeDegrees>44.24122159369289875030517578125</LatitudeDegrees>
              <LongitudeDegrees>-1.0799396596848964691162109375</LongitudeDegrees>
            </Position>
            <AltitudeMeters>60.59999847412109375</AltitudeMeters>
            <DistanceMeters>NAN</DistanceMeters>
          </Trackpoint>
          <Trackpoint>
            <Time>2022-07-05T17:19:12.000Z</Time>
            <Position>
              <LatitudeDegrees>44.24118940718472003936767578125</LatitudeDegrees>
              <LongitudeDegrees>-1.07989816926419734954833984375</LongitudeDegrees>
            </Position>
            <AltitudeMeters>60.59999847412109375</AltitudeMeters>
            <DistanceMeters>NAN</DistanceMeters>
          </Trackpoint>
          <Trackpoint>
            <Time>2022-07-05T17:19:14.000Z</Time>
            <Position>
              <LatitudeDegrees>44.2411663569509983062744140625</LatitudeDegrees>
              <LongitudeDegrees>-1.07987453229725360870361328125</LongitudeDegrees>
            </Position>
            <AltitudeMeters>60.59999847412109375</AltitudeMeters>
            <DistanceMeters>NAN</DistanceMeters>
          </Trackpoint>
          <Trackpoint>
            <Time>2022-07-05T17:19:17.000Z</Time>
            <Position>
              <LatitudeDegrees>44.24115478992462158203125</LatitudeDegrees>
              <LongitudeDegrees>-1.07986070215702056884765625</LongitudeDegrees>
            </Position>
            <AltitudeMeters>60.59999847412109375</AltitudeMeters>
            <DistanceMeters>NAN</DistanceMeters>
          </Trackpoint>
          <Trackpoint>
            <Time>2022-07-05T17:19:18.000Z</Time>
            <Position>
              <LatitudeDegrees>44.2411455698311328887939453125</LatitudeDegrees>
              <LongitudeDegrees>-1.07985056005418300628662109375</LongitudeDegrees>
            </Position>
            <AltitudeMeters>60.59999847412109375</AltitudeMeters>
            <DistanceMeters>NAN</DistanceMeters>
          </Trackpoint>
          <Trackpoint>
            <Time>2022-07-05T17:19:22.000Z</Time>
            <Position>
              <LatitudeDegrees>44.24114070832729339599609375</LatitudeDegrees>
              <LongitudeDegrees>-1.07984888367354869842529296875</LongitudeDegrees>
            </Position>
            <AltitudeMeters>60.40000152587890625</AltitudeMeters>
            <DistanceMeters>NAN</DistanceMeters>
          </Trackpoint>
          <Trackpoint>
            <Time>2022-07-05T17:20:45.000Z</Time>
            <Position>
              <LatitudeDegrees>44.2412044107913970947265625</LatitudeDegrees>
              <LongitudeDegrees>-1.07987553812563419342041015625</LongitudeDegrees>
            </Position>
            <AltitudeMeters>61.40000152587890625</AltitudeMeters>
            <DistanceMeters>NAN</DistanceMeters>
          </Trackpoint>
          <Trackpoint>
            <Time>2022-07-05T17:20:52.000Z</Time>
            <Position>
              <LatitudeDegrees>44.24112888984382152557373046875</LatitudeDegrees>
              <LongitudeDegrees>-1.07983656227588653564453125</LongitudeDegrees>
            </Position>
            <AltitudeMeters>60.799999237060546875</AltitudeMeters>
            <DistanceMeters>NAN</DistanceMeters>
          </Trackpoint>
          <Trackpoint>
            <Time>2022-07-05T17:20:54.000Z</Time>
            <Position>
              <LatitudeDegrees>44.24112888984382152557373046875</LatitudeDegrees>
              <LongitudeDegrees>-1.07983656227588653564453125</LongitudeDegrees>
            </Position>
            <AltitudeMeters>60.799999237060546875</AltitudeMeters>
            <DistanceMeters>NAN</DistanceMeters>
          </Trackpoint>
          <Trackpoint>
            <Time>2022-07-05T17:28:52.000Z</Time>
            <Position>
              <LatitudeDegrees>44.24075438641011714935302734375</LatitudeDegrees>
              <LongitudeDegrees>-1.07989045791327953338623046875</LongitudeDegrees>
            </Position>
            <AltitudeMeters>59.40000152587890625</AltitudeMeters>
            <DistanceMeters>NAN</DistanceMeters>
          </Trackpoint>
          <Trackpoint>
            <Time>2022-07-05T17:28:53.000Z</Time>
            <Position>
              <LatitudeDegrees>44.24074147827923297882080078125</LatitudeDegrees>
              <LongitudeDegrees>-1.079881154000759124755859375</LongitudeDegrees>
            </Position>
            <AltitudeMeters>59.59999847412109375</AltitudeMeters>
            <DistanceMeters>NAN</DistanceMeters>
          </Trackpoint>
          <Trackpoint>
            <Time>2022-07-05T17:28:54.000Z</Time>
            <Position>
              <LatitudeDegrees>44.240727312862873077392578125</LatitudeDegrees>
              <LongitudeDegrees>-1.079867742955684661865234375</LongitudeDegrees>
            </Position>
            <AltitudeMeters>59.59999847412109375</AltitudeMeters>
            <DistanceMeters>NAN</DistanceMeters>
          </Trackpoint>
          <Trackpoint>
            <Time>2022-07-05T17:29:00.000Z</Time>
            <Position>
              <LatitudeDegrees>44.24064273945987224578857421875</LatitudeDegrees>
              <LongitudeDegrees>-1.07986799441277980804443359375</LongitudeDegrees>
            </Position>
            <AltitudeMeters>59.40000152587890625</AltitudeMeters>
            <DistanceMeters>NAN</DistanceMeters>
          </Trackpoint>
          <Trackpoint>
            <Time>2022-07-05T17:29:05.000Z</Time>
            <Position>
              <LatitudeDegrees>44.24058272503316402435302734375</LatitudeDegrees>
              <LongitudeDegrees>-1.07986816205084323883056640625</LongitudeDegrees>
            </Position>
            <AltitudeMeters>59.40000152587890625</AltitudeMeters>
            <DistanceMeters>NAN</DistanceMeters>
          </Trackpoint>
          <Trackpoint>
            <Time>2022-07-05T17:29:07.000Z</Time>
            <Position>
              <LatitudeDegrees>44.24055741168558597564697265625</LatitudeDegrees>
              <LongitudeDegrees>-1.07986832968890666961669921875</LongitudeDegrees>
            </Position>
            <AltitudeMeters>59.59999847412109375</AltitudeMeters>
            <DistanceMeters>NAN</DistanceMeters>
          </Trackpoint>
          <Trackpoint>
            <Time>2022-07-05T17:29:12.000Z</Time>
            <Position>
              <LatitudeDegrees>44.24050225876271724700927734375</LatitudeDegrees>
              <LongitudeDegrees>-1.0798477940261363983154296875</LongitudeDegrees>
            </Position>
            <AltitudeMeters>59.59999847412109375</AltitudeMeters>
            <DistanceMeters>NAN</DistanceMeters>
          </Trackpoint>
          <Trackpoint>
            <Time>2022-07-05T17:29:14.000Z</Time>
            <Position>
              <LatitudeDegrees>44.240475185215473175048828125</LatitudeDegrees>
              <LongitudeDegrees>-1.07984335161745548248291015625</LongitudeDegrees>
            </Position>
            <AltitudeMeters>59.40000152587890625</AltitudeMeters>
            <DistanceMeters>NAN</DistanceMeters>
          </Trackpoint>
          <Trackpoint>
            <Time>2022-07-05T17:29:15.000Z</Time>
            <Position>
              <LatitudeDegrees>44.24045540392398834228515625</LatitudeDegrees>
              <LongitudeDegrees>-1.07984125614166259765625</LongitudeDegrees>
            </Position>
            <AltitudeMeters>59.40000152587890625</AltitudeMeters>
            <DistanceMeters>NAN</DistanceMeters>
          </Trackpoint>
          <Trackpoint>
            <Time>2022-07-05T17:29:17.000Z</Time>
            <Position>
              <LatitudeDegrees>44.2404086329042911529541015625</LatitudeDegrees>
              <LongitudeDegrees>-1.07983790338039398193359375</LongitudeDegrees>
            </Position>
            <AltitudeMeters>59.40000152587890625</AltitudeMeters>
            <DistanceMeters>NAN</DistanceMeters>
          </Trackpoint>
          <Trackpoint>
            <Time>2022-07-05T17:29:20.000Z</Time>
            <Position>
              <LatitudeDegrees>44.240365885198116302490234375</LatitudeDegrees>
              <LongitudeDegrees>-1.0798487998545169830322265625</LongitudeDegrees>
            </Position>
            <AltitudeMeters>59.200000762939453125</AltitudeMeters>
            <DistanceMeters>NAN</DistanceMeters>
          </Trackpoint>
          <Trackpoint>
            <Time>2022-07-05T17:29:22.000Z</Time>
            <Position>
              <LatitudeDegrees>44.2403509654104709625244140625</LatitudeDegrees>
              <LongitudeDegrees>-1.07984553091228008270263671875</LongitudeDegrees>
            </Position>
            <AltitudeMeters>59.200000762939453125</AltitudeMeters>
            <DistanceMeters>NAN</DistanceMeters>
          </Trackpoint>
          <Trackpoint>
            <Time>2022-07-05T17:29:25.000Z</Time>
            <Position>
              <LatitudeDegrees>44.2402963154017925262451171875</LatitudeDegrees>
              <LongitudeDegrees>-1.0798380710184574127197265625</LongitudeDegrees>
            </Position>
            <AltitudeMeters>59.200000762939453125</AltitudeMeters>
            <DistanceMeters>NAN</DistanceMeters>
          </Trackpoint>
          <Trackpoint>
            <Time>2022-07-05T17:29:32.000Z</Time>
            <Position>
              <LatitudeDegrees>44.2402061261236667633056640625</LatitudeDegrees>
              <LongitudeDegrees>-1.07983262278139591217041015625</LongitudeDegrees>
            </Position>
            <AltitudeMeters>59.200000762939453125</AltitudeMeters>
            <DistanceMeters>NAN</DistanceMeters>
          </Trackpoint>
          <Trackpoint>
            <Time>2022-07-05T17:29:38.000Z</Time>
            <Position>
              <LatitudeDegrees>44.24015223048627376556396484375</LatitudeDegrees>
              <LongitudeDegrees>-1.07984553091228008270263671875</LongitudeDegrees>
            </Position>
            <AltitudeMeters>59.200000762939453125</AltitudeMeters>
            <DistanceMeters>NAN</DistanceMeters>
          </Trackpoint>
          <Trackpoint>
            <Time>2022-07-05T17:29:40.000Z</Time>
            <Position>
              <LatitudeDegrees>44.24012909643352031707763671875</LatitudeDegrees>
              <LongitudeDegrees>-1.07984720729291439056396484375</LongitudeDegrees>
            </Position>
            <AltitudeMeters>59.200000762939453125</AltitudeMeters>
            <DistanceMeters>NAN</DistanceMeters>
          </Trackpoint>
          <Trackpoint>
            <Time>2022-07-05T17:29:41.000Z</Time>
            <Position>
              <LatitudeDegrees>44.2401186190545558929443359375</LatitudeDegrees>
              <LongitudeDegrees>-1.07984234578907489776611328125</LongitudeDegrees>
            </Position>
            <AltitudeMeters>59.200000762939453125</AltitudeMeters>
            <DistanceMeters>NAN</DistanceMeters>
          </Trackpoint>
          <Trackpoint>
            <Time>2022-07-05T17:29:46.000Z</Time>
            <Position>
              <LatitudeDegrees>44.2400485463440418243408203125</LatitudeDegrees>
              <LongitudeDegrees>-1.079812757670879364013671875</LongitudeDegrees>
            </Position>
            <AltitudeMeters>59</AltitudeMeters>
            <DistanceMeters>NAN</DistanceMeters>
          </Trackpoint>
          <Trackpoint>
            <Time>2022-07-05T17:29:47.000Z</Time>
            <Position>
              <LatitudeDegrees>44.24003622494637966156005859375</LatitudeDegrees>
              <LongitudeDegrees>-1.079812757670879364013671875</LongitudeDegrees>
            </Position>
            <AltitudeMeters>58.799999237060546875</AltitudeMeters>
            <DistanceMeters>NAN</DistanceMeters>
          </Trackpoint>
          <Trackpoint>
            <Time>2022-07-05T17:29:50.000Z</Time>
            <Position>
              <LatitudeDegrees>44.24000504426658153533935546875</LatitudeDegrees>
              <LongitudeDegrees>-1.0798162780702114105224609375</LongitudeDegrees>
            </Position>
            <AltitudeMeters>58.799999237060546875</AltitudeMeters>
            <DistanceMeters>NAN</DistanceMeters>
          </Trackpoint>
          <Trackpoint>
            <Time>2022-07-05T17:29:52.000Z</Time>
            <Position>
              <LatitudeDegrees>44.23997721634805202484130859375</LatitudeDegrees>
              <LongitudeDegrees>-1.0798149369657039642333984375</LongitudeDegrees>
            </Position>
            <AltitudeMeters>58.799999237060546875</AltitudeMeters>
            <DistanceMeters>NAN</DistanceMeters>
          </Trackpoint>
          <Trackpoint>
            <Time>2022-07-05T17:29:54.000Z</Time>
            <Position>
              <LatitudeDegrees>44.23993899486958980560302734375</LatitudeDegrees>
              <LongitudeDegrees>-1.07980278320610523223876953125</LongitudeDegrees>
            </Position>
            <AltitudeMeters>58.799999237060546875</AltitudeMeters>
            <DistanceMeters>NAN</DistanceMeters>
          </Trackpoint>
          <Trackpoint>
            <Time>2022-07-05T17:29:56.000Z</Time>
            <Position>
              <LatitudeDegrees>44.2399084009230136871337890625</LatitudeDegrees>
              <LongitudeDegrees>-1.0798045434057712554931640625</LongitudeDegrees>
            </Position>
            <AltitudeMeters>58.799999237060546875</AltitudeMeters>
            <DistanceMeters>NAN</DistanceMeters>
          </Trackpoint>
          <Trackpoint>
            <Time>2022-07-05T17:30:04.000Z</Time>
            <Position>
              <LatitudeDegrees>44.23980387859046459197998046875</LatitudeDegrees>
              <LongitudeDegrees>-1.07979976572096347808837890625</LongitudeDegrees>
            </Position>
            <AltitudeMeters>58.799999237060546875</AltitudeMeters>
            <DistanceMeters>NAN</DistanceMeters>
          </Trackpoint>
          <Trackpoint>
            <Time>2022-07-05T17:30:07.000Z</Time>
            <Position>
              <LatitudeDegrees>44.23979264684021472930908203125</LatitudeDegrees>
              <LongitudeDegrees>-1.0798025317490100860595703125</LongitudeDegrees>
            </Position>
            <AltitudeMeters>58.799999237060546875</AltitudeMeters>
            <DistanceMeters>NAN</DistanceMeters>
          </Trackpoint>
          <Trackpoint>
            <Time>2022-07-05T17:30:51.000Z</Time>
            <Position>
              <LatitudeDegrees>44.2397615499794483184814453125</LatitudeDegrees>
              <LongitudeDegrees>-1.07978786341845989227294921875</LongitudeDegrees>
            </Position>
            <AltitudeMeters>59.200000762939453125</AltitudeMeters>
            <DistanceMeters>NAN</DistanceMeters>
          </Trackpoint>
          <Trackpoint>
            <Time>2022-07-05T17:30:52.000Z</Time>
            <Position>
              <LatitudeDegrees>44.23974369652569293975830078125</LatitudeDegrees>
              <LongitudeDegrees>-1.07978694140911102294921875</LongitudeDegrees>
            </Position>
            <AltitudeMeters>59</AltitudeMeters>
            <DistanceMeters>NAN</DistanceMeters>
          </Trackpoint>
          <Trackpoint>
            <Time>2022-07-05T17:30:57.000Z</Time>
            <Position>
              <LatitudeDegrees>44.23966038040816783905029296875</LatitudeDegrees>
              <LongitudeDegrees>-1.07980974018573760986328125</LongitudeDegrees>
            </Position>
            <AltitudeMeters>59</AltitudeMeters>
            <DistanceMeters>NAN</DistanceMeters>
          </Trackpoint>
          <Trackpoint>
            <Time>2022-07-05T17:31:05.000Z</Time>
            <Position>
              <LatitudeDegrees>44.2396039701998233795166015625</LatitudeDegrees>
              <LongitudeDegrees>-1.0797897912561893463134765625</LongitudeDegrees>
            </Position>
            <AltitudeMeters>59.40000152587890625</AltitudeMeters>
            <DistanceMeters>NAN</DistanceMeters>
          </Trackpoint>
          <Trackpoint>
            <Time>2022-07-05T17:32:15.000Z</Time>
            <Position>
              <LatitudeDegrees>44.23959600739181041717529296875</LatitudeDegrees>
              <LongitudeDegrees>-1.07986480928957462310791015625</LongitudeDegrees>
            </Position>
            <AltitudeMeters>59.59999847412109375</AltitudeMeters>
            <DistanceMeters>NAN</DistanceMeters>
          </Trackpoint>
          <Trackpoint>
            <Time>2022-07-05T17:32:17.000Z</Time>
            <Position>
              <LatitudeDegrees>44.23958100378513336181640625</LatitudeDegrees>
              <LongitudeDegrees>-1.07993521727621555328369140625</LongitudeDegrees>
            </Position>
            <AltitudeMeters>60</AltitudeMeters>
            <DistanceMeters>NAN</DistanceMeters>
          </Trackpoint>
          <Trackpoint>
            <Time>2022-07-05T17:32:22.000Z</Time>
            <Position>
              <LatitudeDegrees>44.2395255155861377716064453125</LatitudeDegrees>
              <LongitudeDegrees>-1.08018734492361545562744140625</LongitudeDegrees>
            </Position>
            <AltitudeMeters>60.200000762939453125</AltitudeMeters>
            <DistanceMeters>NAN</DistanceMeters>
          </Trackpoint>
          <Trackpoint>
            <Time>2022-07-05T17:32:30.000Z</Time>
            <Position>
              <LatitudeDegrees>44.2394152097404003143310546875</LatitudeDegrees>
              <LongitudeDegrees>-1.08068942092359066009521484375</LongitudeDegrees>
            </Position>
            <AltitudeMeters>60.40000152587890625</AltitudeMeters>
            <DistanceMeters>NAN</DistanceMeters>
          </Trackpoint>
          <Trackpoint>
            <Time>2022-07-05T17:32:34.000Z</Time>
            <Position>
              <LatitudeDegrees>44.23937086947262287139892578125</LatitudeDegrees>
              <LongitudeDegrees>-1.08098966069519519805908203125</LongitudeDegrees>
            </Position>
            <AltitudeMeters>60.40000152587890625</AltitudeMeters>
            <DistanceMeters>NAN</DistanceMeters>
          </Trackpoint>
          <Trackpoint>
            <Time>2022-07-05T17:32:36.000Z</Time>
            <Position>
              <LatitudeDegrees>44.23934589140117168426513671875</LatitudeDegrees>
              <LongitudeDegrees>-1.081147491931915283203125</LongitudeDegrees>
            </Position>
            <AltitudeMeters>60.40000152587890625</AltitudeMeters>
            <DistanceMeters>NAN</DistanceMeters>
          </Trackpoint>
          <Trackpoint>
            <Time>2022-07-05T17:32:38.000Z</Time>
            <Position>
              <LatitudeDegrees>44.239314459264278411865234375</LatitudeDegrees>
              <LongitudeDegrees>-1.08130649663507938385009765625</LongitudeDegrees>
            </Position>
            <AltitudeMeters>60.40000152587890625</AltitudeMeters>
            <DistanceMeters>NAN</DistanceMeters>
          </Trackpoint>
          <Trackpoint>
            <Time>2022-07-05T17:32:43.000Z</Time>
            <Position>
              <LatitudeDegrees>44.23923642374575138092041015625</LatitudeDegrees>
              <LongitudeDegrees>-1.0817018710076808929443359375</LongitudeDegrees>
            </Position>
            <AltitudeMeters>60.40000152587890625</AltitudeMeters>
            <DistanceMeters>NAN</DistanceMeters>
          </Trackpoint>
          <Trackpoint>
            <Time>2022-07-05T17:32:45.000Z</Time>
            <Position>
              <LatitudeDegrees>44.23920557834208011627197265625</LatitudeDegrees>
              <LongitudeDegrees>-1.08185986988246440887451171875</LongitudeDegrees>
            </Position>
            <AltitudeMeters>60.40000152587890625</AltitudeMeters>
            <DistanceMeters>NAN</DistanceMeters>
          </Trackpoint>
          <Trackpoint>
            <Time>2022-07-05T17:32:46.000Z</Time>
            <Position>
              <LatitudeDegrees>44.2391892336308956146240234375</LatitudeDegrees>
              <LongitudeDegrees>-1.08193564228713512420654296875</LongitudeDegrees>
            </Position>
            <AltitudeMeters>60.40000152587890625</AltitudeMeters>
            <DistanceMeters>NAN</DistanceMeters>
          </Trackpoint>
          <Trackpoint>
            <Time>2022-07-05T17:32:47.000Z</Time>
            <Position>
              <LatitudeDegrees>44.23917456530034542083740234375</LatitudeDegrees>
              <LongitudeDegrees>-1.082010157406330108642578125</LongitudeDegrees>
            </Position>
            <AltitudeMeters>60.40000152587890625</AltitudeMeters>
            <DistanceMeters>NAN</DistanceMeters>
          </Trackpoint>
          <Trackpoint>
            <Time>2022-07-05T17:32:48.000Z</Time>
            <Position>
              <LatitudeDegrees>44.2391614057123661041259765625</LatitudeDegrees>
              <LongitudeDegrees>-1.08206790871918201446533203125</LongitudeDegrees>
            </Position>
            <AltitudeMeters>60.40000152587890625</AltitudeMeters>
            <DistanceMeters>NAN</DistanceMeters>
          </Trackpoint>
          <Trackpoint>
            <Time>2022-07-05T17:32:49.000Z</Time>
            <Position>
              <LatitudeDegrees>44.239142127335071563720703125</LatitudeDegrees>
              <LongitudeDegrees>-1.082154326140880584716796875</LongitudeDegrees>
            </Position>
            <AltitudeMeters>60.200000762939453125</AltitudeMeters>
            <DistanceMeters>NAN</DistanceMeters>
          </Trackpoint>
          <Trackpoint>
            <Time>2022-07-05T17:32:50.000Z</Time>
            <Position>
              <LatitudeDegrees>44.239125363528728485107421875</LatitudeDegrees>
              <LongitudeDegrees>-1.0822285898029804229736328125</LongitudeDegrees>
            </Position>
            <AltitudeMeters>60.200000762939453125</AltitudeMeters>
            <DistanceMeters>NAN</DistanceMeters>
          </Trackpoint>
          <Trackpoint>
            <Time>2022-07-05T17:32:52.000Z</Time>
            <Position>
              <LatitudeDegrees>44.23909175209701061248779296875</LatitudeDegrees>
              <LongitudeDegrees>-1.08238466084003448486328125</LongitudeDegrees>
            </Position>
            <AltitudeMeters>60.200000762939453125</AltitudeMeters>
            <DistanceMeters>NAN</DistanceMeters>
          </Trackpoint>
          <Trackpoint>
            <Time>2022-07-05T17:32:56.000Z</Time>
            <Position>
              <LatitudeDegrees>44.2390172369778156280517578125</LatitudeDegrees>
              <LongitudeDegrees>-1.08268397860229015350341796875</LongitudeDegrees>
            </Position>
            <AltitudeMeters>60.200000762939453125</AltitudeMeters>
            <DistanceMeters>NAN</DistanceMeters>
          </Trackpoint>
          <Trackpoint>
            <Time>2022-07-05T17:33:00.000Z</Time>
            <Position>
              <LatitudeDegrees>44.238940961658954620361328125</LatitudeDegrees>
              <LongitudeDegrees>-1.0829628445208072662353515625</LongitudeDegrees>
            </Position>
            <AltitudeMeters>59.799999237060546875</AltitudeMeters>
            <DistanceMeters>NAN</DistanceMeters>
          </Trackpoint>
          <Trackpoint>
            <Time>2022-07-05T17:33:03.000Z</Time>
            <Position>
              <LatitudeDegrees>44.23889544792473316192626953125</LatitudeDegrees>
              <LongitudeDegrees>-1.083180606365203857421875</LongitudeDegrees>
            </Position>
            <AltitudeMeters>59.59999847412109375</AltitudeMeters>
            <DistanceMeters>NAN</DistanceMeters>
          </Trackpoint>
          <Trackpoint>
            <Time>2022-07-05T17:33:07.000Z</Time>
            <Position>
              <LatitudeDegrees>44.23882721923291683197021484375</LatitudeDegrees>
              <LongitudeDegrees>-1.083447821438312530517578125</LongitudeDegrees>
            </Position>
            <AltitudeMeters>59.799999237060546875</AltitudeMeters>
            <DistanceMeters>NAN</DistanceMeters>
          </Trackpoint>
          <Trackpoint>
            <Time>2022-07-05T17:33:08.000Z</Time>
            <Position>
              <LatitudeDegrees>44.2388140596449375152587890625</LatitudeDegrees>
              <LongitudeDegrees>-1.08351730741560459136962890625</LongitudeDegrees>
            </Position>
            <AltitudeMeters>59.799999237060546875</AltitudeMeters>
            <DistanceMeters>NAN</DistanceMeters>
          </Trackpoint>
          <Trackpoint>
            <Time>2022-07-05T17:33:10.000Z</Time>
            <Position>
              <LatitudeDegrees>44.2387926019728183746337890625</LatitudeDegrees>
              <LongitudeDegrees>-1.083659045398235321044921875</LongitudeDegrees>
            </Position>
            <AltitudeMeters>59.799999237060546875</AltitudeMeters>
            <DistanceMeters>NAN</DistanceMeters>
          </Trackpoint>
          <Trackpoint>
            <Time>2022-07-05T17:33:16.000Z</Time>
            <Position>
              <LatitudeDegrees>44.23869579099118709564208984375</LatitudeDegrees>
              <LongitudeDegrees>-1.084131784737110137939453125</LongitudeDegrees>
            </Position>
            <AltitudeMeters>59.799999237060546875</AltitudeMeters>
            <DistanceMeters>NAN</DistanceMeters>
          </Trackpoint>
          <Trackpoint>
            <Time>2022-07-05T17:33:19.000Z</Time>
            <Position>
              <LatitudeDegrees>44.23864432610571384429931640625</LatitudeDegrees>
              <LongitudeDegrees>-1.08438231982290744781494140625</LongitudeDegrees>
            </Position>
            <AltitudeMeters>60</AltitudeMeters>
            <DistanceMeters>NAN</DistanceMeters>
          </Trackpoint>
          <Trackpoint>
            <Time>2022-07-05T17:33:21.000Z</Time>
            <Position>
              <LatitudeDegrees>44.23860895447432994842529296875</LatitudeDegrees>
              <LongitudeDegrees>-1.084548532962799072265625</LongitudeDegrees>
            </Position>
            <AltitudeMeters>60</AltitudeMeters>
            <DistanceMeters>NAN</DistanceMeters>
          </Trackpoint>
          <Trackpoint>
            <Time>2022-07-05T17:33:23.000Z</Time>
            <Position>
              <LatitudeDegrees>44.23857442103326320648193359375</LatitudeDegrees>
              <LongitudeDegrees>-1.084713153541088104248046875</LongitudeDegrees>
            </Position>
            <AltitudeMeters>60</AltitudeMeters>
            <DistanceMeters>NAN</DistanceMeters>
          </Trackpoint>
          <Trackpoint>
            <Time>2022-07-05T17:33:24.000Z</Time>
            <Position>
              <LatitudeDegrees>44.238560758531093597412109375</LatitudeDegrees>
              <LongitudeDegrees>-1.0847971402108669281005859375</LongitudeDegrees>
            </Position>
            <AltitudeMeters>60</AltitudeMeters>
            <DistanceMeters>NAN</DistanceMeters>
          </Trackpoint>
          <Trackpoint>
            <Time>2022-07-05T17:33:26.000Z</Time>
            <Position>
              <LatitudeDegrees>44.23852446489036083221435546875</LatitudeDegrees>
              <LongitudeDegrees>-1.0849600844085216522216796875</LongitudeDegrees>
            </Position>
            <AltitudeMeters>60</AltitudeMeters>
            <DistanceMeters>NAN</DistanceMeters>
          </Trackpoint>
          <Trackpoint>
            <Time>2022-07-05T17:33:29.000Z</Time>
            <Position>
              <LatitudeDegrees>44.23847048543393611907958984375</LatitudeDegrees>
              <LongitudeDegrees>-1.08521279878914356231689453125</LongitudeDegrees>
            </Position>
            <AltitudeMeters>59.59999847412109375</AltitudeMeters>
            <DistanceMeters>NAN</DistanceMeters>
          </Trackpoint>
          <Trackpoint>
            <Time>2022-07-05T17:33:33.000Z</Time>
            <Position>
              <LatitudeDegrees>44.23840074799954891204833984375</LatitudeDegrees>
              <LongitudeDegrees>-1.08555637300014495849609375</LongitudeDegrees>
            </Position>
            <AltitudeMeters>59.200000762939453125</AltitudeMeters>
            <DistanceMeters>NAN</DistanceMeters>
          </Trackpoint>
          <Trackpoint>
            <Time>2022-07-05T17:33:37.000Z</Time>
            <Position>
              <LatitudeDegrees>44.23832975327968597412109375</LatitudeDegrees>
              <LongitudeDegrees>-1.08589231967926025390625</LongitudeDegrees>
            </Position>
            <AltitudeMeters>59</AltitudeMeters>
            <DistanceMeters>NAN</DistanceMeters>
          </Trackpoint>
          <Trackpoint>
            <Time>2022-07-05T17:33:41.000Z</Time>
            <Position>
              <LatitudeDegrees>44.23826579935848712921142578125</LatitudeDegrees>
              <LongitudeDegrees>-1.0862274281680583953857421875</LongitudeDegrees>
            </Position>
            <AltitudeMeters>58.799999237060546875</AltitudeMeters>
            <DistanceMeters>NAN</DistanceMeters>
          </Trackpoint>
          <Trackpoint>
            <Time>2022-07-05T17:33:47.000Z</Time>
            <Position>
              <LatitudeDegrees>44.23815750516951084136962890625</LatitudeDegrees>
              <LongitudeDegrees>-1.08670360408723354339599609375</LongitudeDegrees>
            </Position>
            <AltitudeMeters>58.40000152587890625</AltitudeMeters>
            <DistanceMeters>NAN</DistanceMeters>
          </Trackpoint>
          <Trackpoint>
            <Time>2022-07-05T17:33:49.000Z</Time>
            <Position>
              <LatitudeDegrees>44.23812414519488811492919921875</LatitudeDegrees>
              <LongitudeDegrees>-1.0868624411523342132568359375</LongitudeDegrees>
            </Position>
            <AltitudeMeters>58.40000152587890625</AltitudeMeters>
            <DistanceMeters>NAN</DistanceMeters>
          </Trackpoint>
          <Trackpoint>
            <Time>2022-07-05T17:33:50.000Z</Time>
            <Position>
              <LatitudeDegrees>44.2381039448082447052001953125</LatitudeDegrees>
              <LongitudeDegrees>-1.08694718219339847564697265625</LongitudeDegrees>
            </Position>
            <AltitudeMeters>58.59999847412109375</AltitudeMeters>
            <DistanceMeters>NAN</DistanceMeters>
          </Trackpoint>
          <Trackpoint>
            <Time>2022-07-05T17:33:57.000Z</Time>
            <Position>
              <LatitudeDegrees>44.237970672547817230224609375</LatitudeDegrees>
              <LongitudeDegrees>-1.08758823014795780181884765625</LongitudeDegrees>
            </Position>
            <AltitudeMeters>59.200000762939453125</AltitudeMeters>
            <DistanceMeters>NAN</DistanceMeters>
          </Trackpoint>
          <Trackpoint>
            <Time>2022-07-05T17:33:59.000Z</Time>
            <Position>
              <LatitudeDegrees>44.237928427755832672119140625</LatitudeDegrees>
              <LongitudeDegrees>-1.0877643339335918426513671875</LongitudeDegrees>
            </Position>
            <AltitudeMeters>59.200000762939453125</AltitudeMeters>
            <DistanceMeters>NAN</DistanceMeters>
          </Trackpoint>
          <Trackpoint>
            <Time>2022-07-05T17:34:05.000Z</Time>
            <Position>
              <LatitudeDegrees>44.2377934791147708892822265625</LatitudeDegrees>
              <LongitudeDegrees>-1.08826984651386737823486328125</LongitudeDegrees>
            </Position>
            <AltitudeMeters>58.40000152587890625</AltitudeMeters>
            <DistanceMeters>NAN</DistanceMeters>
          </Trackpoint>
          <Trackpoint>
            <Time>2022-07-05T17:34:13.000Z</Time>
            <Position>
              <LatitudeDegrees>44.237638749182224273681640625</LatitudeDegrees>
              <LongitudeDegrees>-1.08901382423937320709228515625</LongitudeDegrees>
            </Position>
            <AltitudeMeters>58.799999237060546875</AltitudeMeters>
            <DistanceMeters>NAN</DistanceMeters>
          </Trackpoint>
          <Trackpoint>
            <Time>2022-07-05T17:34:21.000Z</Time>
            <Position>
              <LatitudeDegrees>44.23747722990810871124267578125</LatitudeDegrees>
              <LongitudeDegrees>-1.08973701484501361846923828125</LongitudeDegrees>
            </Position>
            <AltitudeMeters>58.59999847412109375</AltitudeMeters>
            <DistanceMeters>NAN</DistanceMeters>
          </Trackpoint>
          <Trackpoint>
            <Time>2022-07-05T17:34:23.000Z</Time>
            <Position>
              <LatitudeDegrees>44.23744085244834423065185546875</LatitudeDegrees>
              <LongitudeDegrees>-1.08991228044033050537109375</LongitudeDegrees>
            </Position>
            <AltitudeMeters>58.59999847412109375</AltitudeMeters>
            <DistanceMeters>NAN</DistanceMeters>
          </Trackpoint>
          <Trackpoint>
            <Time>2022-07-05T17:34:31.000Z</Time>
            <Position>
              <LatitudeDegrees>44.2372791655361652374267578125</LatitudeDegrees>
              <LongitudeDegrees>-1.090632788836956024169921875</LongitudeDegrees>
            </Position>
            <AltitudeMeters>57.799999237060546875</AltitudeMeters>
            <DistanceMeters>NAN</DistanceMeters>
          </Trackpoint>
          <Trackpoint>
            <Time>2022-07-05T17:34:37.000Z</Time>
            <Position>
              <LatitudeDegrees>44.2371846176683902740478515625</LatitudeDegrees>
              <LongitudeDegrees>-1.0911576636135578155517578125</LongitudeDegrees>
            </Position>
            <AltitudeMeters>58.200000762939453125</AltitudeMeters>
            <DistanceMeters>NAN</DistanceMeters>
          </Trackpoint>
          <Trackpoint>
            <Time>2022-07-05T17:34:46.000Z</Time>
            <Position>
              <LatitudeDegrees>44.237021505832672119140625</LatitudeDegrees>
              <LongitudeDegrees>-1.0919529385864734649658203125</LongitudeDegrees>
            </Position>
            <AltitudeMeters>58.799999237060546875</AltitudeMeters>
            <DistanceMeters>NAN</DistanceMeters>
          </Trackpoint>
          <Trackpoint>
            <Time>2022-07-05T17:34:47.000Z</Time>
            <Position>
              <LatitudeDegrees>44.23700348474085330963134765625</LatitudeDegrees>
              <LongitudeDegrees>-1.0920350812375545501708984375</LongitudeDegrees>
            </Position>
            <AltitudeMeters>58.799999237060546875</AltitudeMeters>
            <DistanceMeters>NAN</DistanceMeters>
          </Trackpoint>
          <Trackpoint>
            <Time>2022-07-05T17:34:54.000Z</Time>
            <Position>
              <LatitudeDegrees>44.23687591217458248138427734375</LatitudeDegrees>
              <LongitudeDegrees>-1.0926335491240024566650390625</LongitudeDegrees>
            </Position>
            <AltitudeMeters>58.200000762939453125</AltitudeMeters>
            <DistanceMeters>NAN</DistanceMeters>
          </Trackpoint>
          <Trackpoint>
            <Time>2022-07-05T17:35:03.000Z</Time>
            <Position>
              <LatitudeDegrees>44.23671632073819637298583984375</LatitudeDegrees>
              <LongitudeDegrees>-1.09338716603815555572509765625</LongitudeDegrees>
            </Position>
            <AltitudeMeters>57.799999237060546875</AltitudeMeters>
            <DistanceMeters>NAN</DistanceMeters>
          </Trackpoint>
          <Trackpoint>
            <Time>2022-07-05T17:35:12.000Z</Time>
            <Position>
              <LatitudeDegrees>44.236560501158237457275390625</LatitudeDegrees>
              <LongitudeDegrees>-1.09416517429053783416748046875</LongitudeDegrees>
            </Position>
            <AltitudeMeters>57.59999847412109375</AltitudeMeters>
            <DistanceMeters>NAN</DistanceMeters>
          </Trackpoint>
          <Trackpoint>
            <Time>2022-07-05T17:35:13.000Z</Time>
            <Position>
              <LatitudeDegrees>44.2365405522286891937255859375</LatitudeDegrees>
              <LongitudeDegrees>-1.09427045099437236785888671875</LongitudeDegrees>
            </Position>
            <AltitudeMeters>57.59999847412109375</AltitudeMeters>
            <DistanceMeters>NAN</DistanceMeters>
          </Trackpoint>
          <Trackpoint>
            <Time>2022-07-05T17:35:17.000Z</Time>
            <Position>
              <LatitudeDegrees>44.23647576011717319488525390625</LatitudeDegrees>
              <LongitudeDegrees>-1.09459583647549152374267578125</LongitudeDegrees>
            </Position>
            <AltitudeMeters>57.40000152587890625</AltitudeMeters>
            <DistanceMeters>NAN</DistanceMeters>
          </Trackpoint>
          <Trackpoint>
            <Time>2022-07-05T17:35:23.000Z</Time>
            <Position>
              <LatitudeDegrees>44.23636863939464092254638671875</LatitudeDegrees>
              <LongitudeDegrees>-1.095111072063446044921875</LongitudeDegrees>
            </Position>
            <AltitudeMeters>56.799999237060546875</AltitudeMeters>
            <DistanceMeters>NAN</DistanceMeters>
          </Trackpoint>
          <Trackpoint>
            <Time>2022-07-05T17:35:28.000Z</Time>
            <Position>
              <LatitudeDegrees>44.23627928830683231353759765625</LatitudeDegrees>
              <LongitudeDegrees>-1.09552974812686443328857421875</LongitudeDegrees>
            </Position>
            <AltitudeMeters>56.59999847412109375</AltitudeMeters>
            <DistanceMeters>NAN</DistanceMeters>
          </Trackpoint>
          <Trackpoint>
            <Time>2022-07-05T17:35:31.000Z</Time>
            <Position>
              <LatitudeDegrees>44.23622882924973964691162109375</LatitudeDegrees>
              <LongitudeDegrees>-1.09576310031116008758544921875</LongitudeDegrees>
            </Position>
            <AltitudeMeters>56.59999847412109375</AltitudeMeters>
            <DistanceMeters>NAN</DistanceMeters>
          </Trackpoint>
          <Trackpoint>
            <Time>2022-07-05T17:35:40.000Z</Time>
            <Position>
              <LatitudeDegrees>44.23607007600367069244384765625</LatitudeDegrees>
              <LongitudeDegrees>-1.09650389291346073150634765625</LongitudeDegrees>
            </Position>
            <AltitudeMeters>56.799999237060546875</AltitudeMeters>
            <DistanceMeters>NAN</DistanceMeters>
          </Trackpoint>
          <Trackpoint>
            <Time>2022-07-05T17:35:46.000Z</Time>
            <Position>
              <LatitudeDegrees>44.2359990812838077545166015625</LatitudeDegrees>
              <LongitudeDegrees>-1.0969492234289646148681640625</LongitudeDegrees>
            </Position>
            <AltitudeMeters>56.59999847412109375</AltitudeMeters>
            <DistanceMeters>NAN</DistanceMeters>
          </Trackpoint>
          <Trackpoint>
            <Time>2022-07-05T17:35:48.000Z</Time>
            <Position>
              <LatitudeDegrees>44.23596496693789958953857421875</LatitudeDegrees>
              <LongitudeDegrees>-1.0970819927752017974853515625</LongitudeDegrees>
            </Position>
            <AltitudeMeters>56.40000152587890625</AltitudeMeters>
            <DistanceMeters>NAN</DistanceMeters>
          </Trackpoint>
          <Trackpoint>
            <Time>2022-07-05T17:35:50.000Z</Time>
            <Position>
              <LatitudeDegrees>44.23591040074825286865234375</LatitudeDegrees>
              <LongitudeDegrees>-1.09717997722327709197998046875</LongitudeDegrees>
            </Position>
            <AltitudeMeters>56.200000762939453125</AltitudeMeters>
            <DistanceMeters>NAN</DistanceMeters>
          </Trackpoint>
          <Trackpoint>
            <Time>2022-07-05T17:35:53.000Z</Time>
            <Position>
              <LatitudeDegrees>44.23581560142338275909423828125</LatitudeDegrees>
              <LongitudeDegrees>-1.09720545820891857147216796875</LongitudeDegrees>
            </Position>
            <AltitudeMeters>56</AltitudeMeters>
            <DistanceMeters>NAN</DistanceMeters>
          </Trackpoint>
          <Trackpoint>
            <Time>2022-07-05T17:35:58.000Z</Time>
            <Position>
              <LatitudeDegrees>44.23566556535661220550537109375</LatitudeDegrees>
              <LongitudeDegrees>-1.09705776907503604888916015625</LongitudeDegrees>
            </Position>
            <AltitudeMeters>55.799999237060546875</AltitudeMeters>
            <DistanceMeters>NAN</DistanceMeters>
          </Trackpoint>
          <Trackpoint>
            <Time>2022-07-05T17:36:00.000Z</Time>
            <Position>
              <LatitudeDegrees>44.23560974188148975372314453125</LatitudeDegrees>
              <LongitudeDegrees>-1.0969807393848896026611328125</LongitudeDegrees>
            </Position>
            <AltitudeMeters>56.200000762939453125</AltitudeMeters>
            <DistanceMeters>NAN</DistanceMeters>
          </Trackpoint>
          <Trackpoint>
            <Time>2022-07-05T17:36:02.000Z</Time>
            <Position>
              <LatitudeDegrees>44.23556431196630001068115234375</LatitudeDegrees>
              <LongitudeDegrees>-1.096917204558849334716796875</LongitudeDegrees>
            </Position>
            <AltitudeMeters>56.40000152587890625</AltitudeMeters>
            <DistanceMeters>NAN</DistanceMeters>
          </Trackpoint>
          <Trackpoint>
            <Time>2022-07-05T17:36:07.000Z</Time>
            <Position>
              <LatitudeDegrees>44.23541561700403690338134765625</LatitudeDegrees>
              <LongitudeDegrees>-1.09673892147839069366455078125</LongitudeDegrees>
            </Position>
            <AltitudeMeters>56.799999237060546875</AltitudeMeters>
            <DistanceMeters>NAN</DistanceMeters>
          </Trackpoint>
          <Trackpoint>
            <Time>2022-07-05T17:36:13.000Z</Time>
            <Position>
              <LatitudeDegrees>44.2352286167442798614501953125</LatitudeDegrees>
              <LongitudeDegrees>-1.09656072221696376800537109375</LongitudeDegrees>
            </Position>
            <AltitudeMeters>57.59999847412109375</AltitudeMeters>
            <DistanceMeters>NAN</DistanceMeters>
          </Trackpoint>
          <Trackpoint>
            <Time>2022-07-05T17:36:16.000Z</Time>
            <Position>
              <LatitudeDegrees>44.2351453006267547607421875</LatitudeDegrees>
              <LongitudeDegrees>-1.0964607261121273040771484375</LongitudeDegrees>
            </Position>
            <AltitudeMeters>57.799999237060546875</AltitudeMeters>
            <DistanceMeters>NAN</DistanceMeters>
          </Trackpoint>
          <Trackpoint>
            <Time>2022-07-05T17:36:24.000Z</Time>
            <Position>
              <LatitudeDegrees>44.23486073501408100128173828125</LatitudeDegrees>
              <LongitudeDegrees>-1.0961772501468658447265625</LongitudeDegrees>
            </Position>
            <AltitudeMeters>57.799999237060546875</AltitudeMeters>
            <DistanceMeters>NAN</DistanceMeters>
          </Trackpoint>
          <Trackpoint>
            <Time>2022-07-05T17:36:29.000Z</Time>
            <Position>
              <LatitudeDegrees>44.234662167727947235107421875</LatitudeDegrees>
              <LongitudeDegrees>-1.096001230180263519287109375</LongitudeDegrees>
            </Position>
            <AltitudeMeters>57.200000762939453125</AltitudeMeters>
            <DistanceMeters>NAN</DistanceMeters>
          </Trackpoint>
          <Trackpoint>
            <Time>2022-07-05T17:36:33.000Z</Time>
            <Position>
              <LatitudeDegrees>44.23452059738337993621826171875</LatitudeDegrees>
              <LongitudeDegrees>-1.09586301259696483612060546875</LongitudeDegrees>
            </Position>
            <AltitudeMeters>56.799999237060546875</AltitudeMeters>
            <DistanceMeters>NAN</DistanceMeters>
          </Trackpoint>
          <Trackpoint>
            <Time>2022-07-05T17:36:34.000Z</Time>
            <Position>
              <LatitudeDegrees>44.2344747483730316162109375</LatitudeDegrees>
              <LongitudeDegrees>-1.0958231985569000244140625</LongitudeDegrees>
            </Position>
            <AltitudeMeters>56.799999237060546875</AltitudeMeters>
            <DistanceMeters>NAN</DistanceMeters>
          </Trackpoint>
          <Trackpoint>
            <Time>2022-07-05T17:36:36.000Z</Time>
            <Position>
              <LatitudeDegrees>44.23440165817737579345703125</LatitudeDegrees>
              <LongitudeDegrees>-1.09576276503503322601318359375</LongitudeDegrees>
            </Position>
            <AltitudeMeters>56.799999237060546875</AltitudeMeters>
            <DistanceMeters>NAN</DistanceMeters>
          </Trackpoint>
          <Trackpoint>
            <Time>2022-07-05T17:36:39.000Z</Time>
            <Position>
              <LatitudeDegrees>44.234298728406429290771484375</LatitudeDegrees>
              <LongitudeDegrees>-1.09566033817827701568603515625</LongitudeDegrees>
            </Position>
            <AltitudeMeters>56.59999847412109375</AltitudeMeters>
            <DistanceMeters>NAN</DistanceMeters>
          </Trackpoint>
          <Trackpoint>
            <Time>2022-07-05T17:36:45.000Z</Time>
            <Position>
              <LatitudeDegrees>44.23410393297672271728515625</LatitudeDegrees>
              <LongitudeDegrees>-1.0954503715038299560546875</LongitudeDegrees>
            </Position>
            <AltitudeMeters>56.799999237060546875</AltitudeMeters>
            <DistanceMeters>NAN</DistanceMeters>
          </Trackpoint>
          <Trackpoint>
            <Time>2022-07-05T17:36:49.000Z</Time>
            <Position>
              <LatitudeDegrees>44.23397577367722988128662109375</LatitudeDegrees>
              <LongitudeDegrees>-1.095310561358928680419921875</LongitudeDegrees>
            </Position>
            <AltitudeMeters>57</AltitudeMeters>
            <DistanceMeters>NAN</DistanceMeters>
          </Trackpoint>
          <Trackpoint>
            <Time>2022-07-05T17:36:58.000Z</Time>
            <Position>
              <LatitudeDegrees>44.23371375538408756256103515625</LatitudeDegrees>
              <LongitudeDegrees>-1.0950431786477565765380859375</LongitudeDegrees>
            </Position>
            <AltitudeMeters>57.200000762939453125</AltitudeMeters>
            <DistanceMeters>NAN</DistanceMeters>
          </Trackpoint>
          <Trackpoint>
            <Time>2022-07-05T17:37:05.000Z</Time>
            <Position>
              <LatitudeDegrees>44.23347654752433300018310546875</LatitudeDegrees>
              <LongitudeDegrees>-1.09483405016362667083740234375</LongitudeDegrees>
            </Position>
            <AltitudeMeters>57</AltitudeMeters>
            <DistanceMeters>NAN</DistanceMeters>
          </Trackpoint>
          <Trackpoint>
            <Time>2022-07-05T17:37:11.000Z</Time>
            <Position>
              <LatitudeDegrees>44.23328049480915069580078125</LatitudeDegrees>
              <LongitudeDegrees>-1.094652749598026275634765625</LongitudeDegrees>
            </Position>
            <AltitudeMeters>56.40000152587890625</AltitudeMeters>
            <DistanceMeters>NAN</DistanceMeters>
          </Trackpoint>
          <Trackpoint>
            <Time>2022-07-05T17:37:12.000Z</Time>
            <Position>
              <LatitudeDegrees>44.23325459472835063934326171875</LatitudeDegrees>
              <LongitudeDegrees>-1.0946287773549556732177734375</LongitudeDegrees>
            </Position>
            <AltitudeMeters>56.40000152587890625</AltitudeMeters>
            <DistanceMeters>NAN</DistanceMeters>
          </Trackpoint>
          <Trackpoint>
            <Time>2022-07-05T17:37:15.000Z</Time>
            <Position>
              <LatitudeDegrees>44.2331576161086559295654296875</LatitudeDegrees>
              <LongitudeDegrees>-1.094570942223072052001953125</LongitudeDegrees>
            </Position>
            <AltitudeMeters>56.200000762939453125</AltitudeMeters>
            <DistanceMeters>NAN</DistanceMeters>
          </Trackpoint>
          <Trackpoint>
            <Time>2022-07-05T17:37:17.000Z</Time>
            <Position>
              <LatitudeDegrees>44.23309718258678913116455078125</LatitudeDegrees>
              <LongitudeDegrees>-1.09457454644143581390380859375</LongitudeDegrees>
            </Position>
            <AltitudeMeters>56.200000762939453125</AltitudeMeters>
            <DistanceMeters>NAN</DistanceMeters>
          </Trackpoint>
          <Trackpoint>
            <Time>2022-07-05T17:37:21.000Z</Time>
            <Position>
              <LatitudeDegrees>44.2329799197614192962646484375</LatitudeDegrees>
              <LongitudeDegrees>-1.09470832161605358123779296875</LongitudeDegrees>
            </Position>
            <AltitudeMeters>56.200000762939453125</AltitudeMeters>
            <DistanceMeters>NAN</DistanceMeters>
          </Trackpoint>
          <Trackpoint>
            <Time>2022-07-05T17:37:28.000Z</Time>
            <Position>
              <LatitudeDegrees>44.23284019343554973602294921875</LatitudeDegrees>
              <LongitudeDegrees>-1.09503739513456821441650390625</LongitudeDegrees>
            </Position>
            <AltitudeMeters>55.799999237060546875</AltitudeMeters>
            <DistanceMeters>NAN</DistanceMeters>
          </Trackpoint>
          <Trackpoint>
            <Time>2022-07-05T17:37:32.000Z</Time>
            <Position>
              <LatitudeDegrees>44.23277900554239749908447265625</LatitudeDegrees>
              <LongitudeDegrees>-1.09522833488881587982177734375</LongitudeDegrees>
            </Position>
            <AltitudeMeters>55.40000152587890625</AltitudeMeters>
            <DistanceMeters>NAN</DistanceMeters>
          </Trackpoint>
          <Trackpoint>
            <Time>2022-07-05T17:37:34.000Z</Time>
            <Position>
              <LatitudeDegrees>44.2327331565320491790771484375</LatitudeDegrees>
              <LongitudeDegrees>-1.095293462276458740234375</LongitudeDegrees>
            </Position>
            <AltitudeMeters>55</AltitudeMeters>
            <DistanceMeters>NAN</DistanceMeters>
          </Trackpoint>
          <Trackpoint>
            <Time>2022-07-05T17:37:35.000Z</Time>
            <Position>
              <LatitudeDegrees>44.232701472938060760498046875</LatitudeDegrees>
              <LongitudeDegrees>-1.0953167639672756195068359375</LongitudeDegrees>
            </Position>
            <AltitudeMeters>55</AltitudeMeters>
            <DistanceMeters>NAN</DistanceMeters>
          </Trackpoint>
          <Trackpoint>
            <Time>2022-07-05T17:37:37.000Z</Time>
            <Position>
              <LatitudeDegrees>44.2326362617313861846923828125</LatitudeDegrees>
              <LongitudeDegrees>-1.09529606066644191741943359375</LongitudeDegrees>
            </Position>
            <AltitudeMeters>54.799999237060546875</AltitudeMeters>
            <DistanceMeters>NAN</DistanceMeters>
          </Trackpoint>
          <Trackpoint>
            <Time>2022-07-05T17:37:42.000Z</Time>
            <Position>
              <LatitudeDegrees>44.232480525970458984375</LatitudeDegrees>
              <LongitudeDegrees>-1.09513898380100727081298828125</LongitudeDegrees>
            </Position>
            <AltitudeMeters>55</AltitudeMeters>
            <DistanceMeters>NAN</DistanceMeters>
          </Trackpoint>
          <Trackpoint>
            <Time>2022-07-05T17:37:48.000Z</Time>
            <Position>
              <LatitudeDegrees>44.23230282962322235107421875</LatitudeDegrees>
              <LongitudeDegrees>-1.0949382372200489044189453125</LongitudeDegrees>
            </Position>
            <AltitudeMeters>54.799999237060546875</AltitudeMeters>
            <DistanceMeters>NAN</DistanceMeters>
          </Trackpoint>
          <Trackpoint>
            <Time>2022-07-05T17:37:51.000Z</Time>
            <Position>
              <LatitudeDegrees>44.23221255652606487274169921875</LatitudeDegrees>
              <LongitudeDegrees>-1.09483656473457813262939453125</LongitudeDegrees>
            </Position>
            <AltitudeMeters>54.40000152587890625</AltitudeMeters>
            <DistanceMeters>NAN</DistanceMeters>
          </Trackpoint>
          <Trackpoint>
            <Time>2022-07-05T17:37:56.000Z</Time>
            <Position>
              <LatitudeDegrees>44.23207509331405162811279296875</LatitudeDegrees>
              <LongitudeDegrees>-1.09469071961939334869384765625</LongitudeDegrees>
            </Position>
            <AltitudeMeters>54.200000762939453125</AltitudeMeters>
            <DistanceMeters>NAN</DistanceMeters>
          </Trackpoint>
          <Trackpoint>
            <Time>2022-07-05T17:38:01.000Z</Time>
            <Position>
              <LatitudeDegrees>44.2319239675998687744140625</LatitudeDegrees>
              <LongitudeDegrees>-1.0945308767259120941162109375</LongitudeDegrees>
            </Position>
            <AltitudeMeters>54.799999237060546875</AltitudeMeters>
            <DistanceMeters>NAN</DistanceMeters>
          </Trackpoint>
          <Trackpoint>
            <Time>2022-07-05T17:38:04.000Z</Time>
            <Position>
              <LatitudeDegrees>44.231837131083011627197265625</LatitudeDegrees>
              <LongitudeDegrees>-1.09441847540438175201416015625</LongitudeDegrees>
            </Position>
            <AltitudeMeters>55.40000152587890625</AltitudeMeters>
            <DistanceMeters>NAN</DistanceMeters>
          </Trackpoint>
          <Trackpoint>
            <Time>2022-07-05T17:38:06.000Z</Time>
            <Position>
              <LatitudeDegrees>44.2317873425781726837158203125</LatitudeDegrees>
              <LongitudeDegrees>-1.094342283904552459716796875</LongitudeDegrees>
            </Position>
            <AltitudeMeters>55.59999847412109375</AltitudeMeters>
            <DistanceMeters>NAN</DistanceMeters>
          </Trackpoint>
          <Trackpoint>
            <Time>2022-07-05T17:38:07.000Z</Time>
            <Position>
              <LatitudeDegrees>44.231764376163482666015625</LatitudeDegrees>
              <LongitudeDegrees>-1.094306074082851409912109375</LongitudeDegrees>
            </Position>
            <AltitudeMeters>55.59999847412109375</AltitudeMeters>
            <DistanceMeters>NAN</DistanceMeters>
          </Trackpoint>
          <Trackpoint>
            <Time>2022-07-05T17:38:12.000Z</Time>
            <Position>
              <LatitudeDegrees>44.23163655214011669158935546875</LatitudeDegrees>
              <LongitudeDegrees>-1.09411890618503093719482421875</LongitudeDegrees>
            </Position>
            <AltitudeMeters>56.40000152587890625</AltitudeMeters>
            <DistanceMeters>NAN</DistanceMeters>
          </Trackpoint>
          <Trackpoint>
            <Time>2022-07-05T17:38:18.000Z</Time>
            <Position>
              <LatitudeDegrees>44.23147612251341342926025390625</LatitudeDegrees>
              <LongitudeDegrees>-1.0938961990177631378173828125</LongitudeDegrees>
            </Position>
            <AltitudeMeters>56.799999237060546875</AltitudeMeters>
            <DistanceMeters>NAN</DistanceMeters>
          </Trackpoint>
          <Trackpoint>
            <Time>2022-07-05T17:38:20.000Z</Time>
            <Position>
              <LatitudeDegrees>44.23142499290406703948974609375</LatitudeDegrees>
              <LongitudeDegrees>-1.09381891787052154541015625</LongitudeDegrees>
            </Position>
            <AltitudeMeters>56.799999237060546875</AltitudeMeters>
            <DistanceMeters>NAN</DistanceMeters>
          </Trackpoint>
          <Trackpoint>
            <Time>2022-07-05T17:38:23.000Z</Time>
            <Position>
              <LatitudeDegrees>44.23133966512978076934814453125</LatitudeDegrees>
              <LongitudeDegrees>-1.09370467253029346466064453125</LongitudeDegrees>
            </Position>
            <AltitudeMeters>56.799999237060546875</AltitudeMeters>
            <DistanceMeters>NAN</DistanceMeters>
          </Trackpoint>
          <Trackpoint>
            <Time>2022-07-05T17:38:27.000Z</Time>
            <Position>
              <LatitudeDegrees>44.23120739869773387908935546875</LatitudeDegrees>
              <LongitudeDegrees>-1.09354139305651187896728515625</LongitudeDegrees>
            </Position>
            <AltitudeMeters>56.799999237060546875</AltitudeMeters>
            <DistanceMeters>NAN</DistanceMeters>
          </Trackpoint>
          <Trackpoint>
            <Time>2022-07-05T17:38:28.000Z</Time>
            <Position>
              <LatitudeDegrees>44.23117722384631633758544921875</LatitudeDegrees>
              <LongitudeDegrees>-1.09351356513798236846923828125</LongitudeDegrees>
            </Position>
            <AltitudeMeters>56.59999847412109375</AltitudeMeters>
            <DistanceMeters>NAN</DistanceMeters>
          </Trackpoint>
          <Trackpoint>
            <Time>2022-07-05T17:38:30.000Z</Time>
            <Position>
              <LatitudeDegrees>44.2310846038162708282470703125</LatitudeDegrees>
              <LongitudeDegrees>-1.09345120377838611602783203125</LongitudeDegrees>
            </Position>
            <AltitudeMeters>56.799999237060546875</AltitudeMeters>
            <DistanceMeters>NAN</DistanceMeters>
          </Trackpoint>
          <Trackpoint>
            <Time>2022-07-05T17:38:35.000Z</Time>
            <Position>
              <LatitudeDegrees>44.2308891378343105316162109375</LatitudeDegrees>
              <LongitudeDegrees>-1.0933480225503444671630859375</LongitudeDegrees>
            </Position>
            <AltitudeMeters>56.799999237060546875</AltitudeMeters>
            <DistanceMeters>NAN</DistanceMeters>
          </Trackpoint>
          <Trackpoint>
            <Time>2022-07-05T17:38:43.000Z</Time>
            <Position>
              <LatitudeDegrees>44.2305444739758968353271484375</LatitudeDegrees>
              <LongitudeDegrees>-1.093215756118297576904296875</LongitudeDegrees>
            </Position>
            <AltitudeMeters>56.799999237060546875</AltitudeMeters>
            <DistanceMeters>NAN</DistanceMeters>
          </Trackpoint>
          <Trackpoint>
            <Time>2022-07-05T17:38:50.000Z</Time>
            <Position>
              <LatitudeDegrees>44.2302393727004528045654296875</LatitudeDegrees>
              <LongitudeDegrees>-1.09307594597339630126953125</LongitudeDegrees>
            </Position>
            <AltitudeMeters>56.200000762939453125</AltitudeMeters>
            <DistanceMeters>NAN</DistanceMeters>
          </Trackpoint>
          <Trackpoint>
            <Time>2022-07-05T17:38:52.000Z</Time>
            <Position>
              <LatitudeDegrees>44.23014775849878787994384765625</LatitudeDegrees>
              <LongitudeDegrees>-1.09302724711596965789794921875</LongitudeDegrees>
            </Position>
            <AltitudeMeters>56.200000762939453125</AltitudeMeters>
            <DistanceMeters>NAN</DistanceMeters>
          </Trackpoint>
          <Trackpoint>
            <Time>2022-07-05T17:38:59.000Z</Time>
            <Position>
              <LatitudeDegrees>44.22983997501432895660400390625</LatitudeDegrees>
              <LongitudeDegrees>-1.09291057102382183074951171875</LongitudeDegrees>
            </Position>
            <AltitudeMeters>55.799999237060546875</AltitudeMeters>
            <DistanceMeters>NAN</DistanceMeters>
          </Trackpoint>
          <Trackpoint>
            <Time>2022-07-05T17:39:04.000Z</Time>
            <Position>
              <LatitudeDegrees>44.22961114905774593353271484375</LatitudeDegrees>
              <LongitudeDegrees>-1.09281769953668117523193359375</LongitudeDegrees>
            </Position>
            <AltitudeMeters>55.59999847412109375</AltitudeMeters>
            <DistanceMeters>NAN</DistanceMeters>
          </Trackpoint>
          <Trackpoint>
            <Time>2022-07-05T17:39:07.000Z</Time>
            <Position>
              <LatitudeDegrees>44.2294796369969844818115234375</LatitudeDegrees>
              <LongitudeDegrees>-1.09275785274803638458251953125</LongitudeDegrees>
            </Position>
            <AltitudeMeters>55.40000152587890625</AltitudeMeters>
            <DistanceMeters>NAN</DistanceMeters>
          </Trackpoint>
          <Trackpoint>
            <Time>2022-07-05T17:39:10.000Z</Time>
            <Position>
              <LatitudeDegrees>44.22934963367879390716552734375</LatitudeDegrees>
              <LongitudeDegrees>-1.09270521439611911773681640625</LongitudeDegrees>
            </Position>
            <AltitudeMeters>55.59999847412109375</AltitudeMeters>
            <DistanceMeters>NAN</DistanceMeters>
          </Trackpoint>
          <Trackpoint>
            <Time>2022-07-05T17:39:15.000Z</Time>
            <Position>
              <LatitudeDegrees>44.2291638068854808807373046875</LatitudeDegrees>
              <LongitudeDegrees>-1.0926295258104801177978515625</LongitudeDegrees>
            </Position>
            <AltitudeMeters>55.59999847412109375</AltitudeMeters>
            <DistanceMeters>NAN</DistanceMeters>
          </Trackpoint>
          <Trackpoint>
            <Time>2022-07-05T17:39:21.000Z</Time>
            <Position>
              <LatitudeDegrees>44.228957109153270721435546875</LatitudeDegrees>
              <LongitudeDegrees>-1.09255987219512462615966796875</LongitudeDegrees>
            </Position>
            <AltitudeMeters>56.200000762939453125</AltitudeMeters>
            <DistanceMeters>NAN</DistanceMeters>
          </Trackpoint>
          <Trackpoint>
            <Time>2022-07-05T17:39:22.000Z</Time>
            <Position>
              <LatitudeDegrees>44.2289096675813198089599609375</LatitudeDegrees>
              <LongitudeDegrees>-1.092549227178096771240234375</LongitudeDegrees>
            </Position>
            <AltitudeMeters>56.200000762939453125</AltitudeMeters>
            <DistanceMeters>NAN</DistanceMeters>
          </Trackpoint>
          <Trackpoint>
            <Time>2022-07-05T17:39:23.000Z</Time>
            <Position>
              <LatitudeDegrees>44.2288640700280666351318359375</LatitudeDegrees>
              <LongitudeDegrees>-1.09254159964621067047119140625</LongitudeDegrees>
            </Position>
            <AltitudeMeters>56.40000152587890625</AltitudeMeters>
            <DistanceMeters>NAN</DistanceMeters>
          </Trackpoint>
          <Trackpoint>
            <Time>2022-07-05T17:39:24.000Z</Time>
            <Position>
              <LatitudeDegrees>44.2288214899599552154541015625</LatitudeDegrees>
              <LongitudeDegrees>-1.09253455884754657745361328125</LongitudeDegrees>
            </Position>
            <AltitudeMeters>56.40000152587890625</AltitudeMeters>
            <DistanceMeters>NAN</DistanceMeters>
          </Trackpoint>
          <Trackpoint>
            <Time>2022-07-05T17:39:30.000Z</Time>
            <Position>
              <LatitudeDegrees>44.2285841144621372222900390625</LatitudeDegrees>
              <LongitudeDegrees>-1.09249080531299114227294921875</LongitudeDegrees>
            </Position>
            <AltitudeMeters>56.799999237060546875</AltitudeMeters>
            <DistanceMeters>NAN</DistanceMeters>
          </Trackpoint>
          <Trackpoint>
            <Time>2022-07-05T17:39:31.000Z</Time>
            <Position>
              <LatitudeDegrees>44.228541366755962371826171875</LatitudeDegrees>
              <LongitudeDegrees>-1.0924903862178325653076171875</LongitudeDegrees>
            </Position>
            <AltitudeMeters>56.799999237060546875</AltitudeMeters>
            <DistanceMeters>NAN</DistanceMeters>
          </Trackpoint>
          <Trackpoint>
            <Time>2022-07-05T17:39:37.000Z</Time>
            <Position>
              <LatitudeDegrees>44.22832955606281757354736328125</LatitudeDegrees>
              <LongitudeDegrees>-1.0924957506358623504638671875</LongitudeDegrees>
            </Position>
            <AltitudeMeters>57.40000152587890625</AltitudeMeters>
            <DistanceMeters>NAN</DistanceMeters>
          </Trackpoint>
          <Trackpoint>
            <Time>2022-07-05T17:39:38.000Z</Time>
            <Position>
              <LatitudeDegrees>44.22828597016632556915283203125</LatitudeDegrees>
              <LongitudeDegrees>-1.09249030239880084991455078125</LongitudeDegrees>
            </Position>
            <AltitudeMeters>57.59999847412109375</AltitudeMeters>
            <DistanceMeters>NAN</DistanceMeters>
          </Trackpoint>
          <Trackpoint>
            <Time>2022-07-05T17:39:46.000Z</Time>
            <Position>
              <LatitudeDegrees>44.227966032922267913818359375</LatitudeDegrees>
              <LongitudeDegrees>-1.09245560131967067718505859375</LongitudeDegrees>
            </Position>
            <AltitudeMeters>57.799999237060546875</AltitudeMeters>
            <DistanceMeters>NAN</DistanceMeters>
          </Trackpoint>
          <Trackpoint>
            <Time>2022-07-05T17:39:47.000Z</Time>
            <Position>
              <LatitudeDegrees>44.2279263027012348175048828125</LatitudeDegrees>
              <LongitudeDegrees>-1.092446632683277130126953125</LongitudeDegrees>
            </Position>
            <AltitudeMeters>57.799999237060546875</AltitudeMeters>
            <DistanceMeters>NAN</DistanceMeters>
          </Trackpoint>
          <Trackpoint>
            <Time>2022-07-05T17:39:55.000Z</Time>
            <Position>
              <LatitudeDegrees>44.22761298716068267822265625</LatitudeDegrees>
              <LongitudeDegrees>-1.09243632294237613677978515625</LongitudeDegrees>
            </Position>
            <AltitudeMeters>58.40000152587890625</AltitudeMeters>
            <DistanceMeters>NAN</DistanceMeters>
          </Trackpoint>
          <Trackpoint>
            <Time>2022-07-05T17:39:57.000Z</Time>
            <Position>
              <LatitudeDegrees>44.22754685394465923309326171875</LatitudeDegrees>
              <LongitudeDegrees>-1.09243313781917095184326171875</LongitudeDegrees>
            </Position>
            <AltitudeMeters>58.59999847412109375</AltitudeMeters>
            <DistanceMeters>NAN</DistanceMeters>
          </Trackpoint>
          <Trackpoint>
            <Time>2022-07-05T17:40:05.000Z</Time>
            <Position>
              <LatitudeDegrees>44.227251894772052764892578125</LatitudeDegrees>
              <LongitudeDegrees>-1.092412769794464111328125</LongitudeDegrees>
            </Position>
            <AltitudeMeters>58.799999237060546875</AltitudeMeters>
            <DistanceMeters>NAN</DistanceMeters>
          </Trackpoint>
          <Trackpoint>
            <Time>2022-07-05T17:40:07.000Z</Time>
            <Position>
              <LatitudeDegrees>44.22718115150928497314453125</LatitudeDegrees>
              <LongitudeDegrees>-1.09240564517676830291748046875</LongitudeDegrees>
            </Position>
            <AltitudeMeters>58.799999237060546875</AltitudeMeters>
            <DistanceMeters>NAN</DistanceMeters>
          </Trackpoint>
          <Trackpoint>
            <Time>2022-07-05T17:40:09.000Z</Time>
            <Position>
              <LatitudeDegrees>44.22711409628391265869140625</LatitudeDegrees>
              <LongitudeDegrees>-1.092400364577770233154296875</LongitudeDegrees>
            </Position>
            <AltitudeMeters>58.799999237060546875</AltitudeMeters>
            <DistanceMeters>NAN</DistanceMeters>
          </Trackpoint>
          <Trackpoint>
            <Time>2022-07-05T17:40:11.000Z</Time>
            <Position>
              <LatitudeDegrees>44.22703924588859081268310546875</LatitudeDegrees>
              <LongitudeDegrees>-1.092398352921009063720703125</LongitudeDegrees>
            </Position>
            <AltitudeMeters>58.799999237060546875</AltitudeMeters>
            <DistanceMeters>NAN</DistanceMeters>
          </Trackpoint>
          <Trackpoint>
            <Time>2022-07-05T17:40:13.000Z</Time>
            <Position>
              <LatitudeDegrees>44.2269660718739032745361328125</LatitudeDegrees>
              <LongitudeDegrees>-1.09239525161683559417724609375</LongitudeDegrees>
            </Position>
            <AltitudeMeters>59</AltitudeMeters>
            <DistanceMeters>NAN</DistanceMeters>
          </Trackpoint>
          <Trackpoint>
            <Time>2022-07-05T17:40:21.000Z</Time>
            <Position>
              <LatitudeDegrees>44.22668687067925930023193359375</LatitudeDegrees>
              <LongitudeDegrees>-1.09239374287426471710205078125</LongitudeDegrees>
            </Position>
            <AltitudeMeters>59.40000152587890625</AltitudeMeters>
            <DistanceMeters>NAN</DistanceMeters>
          </Trackpoint>
          <Trackpoint>
            <Time>2022-07-05T17:40:25.000Z</Time>
            <Position>
              <LatitudeDegrees>44.2265342362225055694580078125</LatitudeDegrees>
              <LongitudeDegrees>-1.09239039011299610137939453125</LongitudeDegrees>
            </Position>
            <AltitudeMeters>59.59999847412109375</AltitudeMeters>
            <DistanceMeters>NAN</DistanceMeters>
          </Trackpoint>
          <Trackpoint>
            <Time>2022-07-05T17:40:29.000Z</Time>
            <Position>
              <LatitudeDegrees>44.2263610661029815673828125</LatitudeDegrees>
              <LongitudeDegrees>-1.09237949363887310028076171875</LongitudeDegrees>
            </Position>
            <AltitudeMeters>59.799999237060546875</AltitudeMeters>
            <DistanceMeters>NAN</DistanceMeters>
          </Trackpoint>
          <Trackpoint>
            <Time>2022-07-05T17:40:33.000Z</Time>
            <Position>
              <LatitudeDegrees>44.22619971446692943572998046875</LatitudeDegrees>
              <LongitudeDegrees>-1.09237044118344783782958984375</LongitudeDegrees>
            </Position>
            <AltitudeMeters>60</AltitudeMeters>
            <DistanceMeters>NAN</DistanceMeters>
          </Trackpoint>
          <Trackpoint>
            <Time>2022-07-05T17:40:35.000Z</Time>
            <Position>
              <LatitudeDegrees>44.2261010594666004180908203125</LatitudeDegrees>
              <LongitudeDegrees>-1.09236876480281352996826171875</LongitudeDegrees>
            </Position>
            <AltitudeMeters>60.200000762939453125</AltitudeMeters>
            <DistanceMeters>NAN</DistanceMeters>
          </Trackpoint>
          <Trackpoint>
            <Time>2022-07-05T17:40:43.000Z</Time>
            <Position>
              <LatitudeDegrees>44.22575698234140872955322265625</LatitudeDegrees>
              <LongitudeDegrees>-1.09233297407627105712890625</LongitudeDegrees>
            </Position>
            <AltitudeMeters>60.40000152587890625</AltitudeMeters>
            <DistanceMeters>NAN</DistanceMeters>
          </Trackpoint>
          <Trackpoint>
            <Time>2022-07-05T17:40:44.000Z</Time>
            <Position>
              <LatitudeDegrees>44.2257030867040157318115234375</LatitudeDegrees>
              <LongitudeDegrees>-1.0923294536769390106201171875</LongitudeDegrees>
            </Position>
            <AltitudeMeters>60.40000152587890625</AltitudeMeters>
            <DistanceMeters>NAN</DistanceMeters>
          </Trackpoint>
          <Trackpoint>
            <Time>2022-07-05T17:40:45.000Z</Time>
            <Position>
              <LatitudeDegrees>44.22566008754074573516845703125</LatitudeDegrees>
              <LongitudeDegrees>-1.09232987277209758758544921875</LongitudeDegrees>
            </Position>
            <AltitudeMeters>60.40000152587890625</AltitudeMeters>
            <DistanceMeters>NAN</DistanceMeters>
          </Trackpoint>
          <Trackpoint>
            <Time>2022-07-05T17:40:52.000Z</Time>
            <Position>
              <LatitudeDegrees>44.22540427185595035552978515625</LatitudeDegrees>
              <LongitudeDegrees>-1.0922841913998126983642578125</LongitudeDegrees>
            </Position>
            <AltitudeMeters>59.40000152587890625</AltitudeMeters>
            <DistanceMeters>NAN</DistanceMeters>
          </Trackpoint>
          <Trackpoint>
            <Time>2022-07-05T17:40:58.000Z</Time>
            <Position>
              <LatitudeDegrees>44.22514392994344234466552734375</LatitudeDegrees>
              <LongitudeDegrees>-1.09221973456442356109619140625</LongitudeDegrees>
            </Position>
            <AltitudeMeters>60.40000152587890625</AltitudeMeters>
            <DistanceMeters>NAN</DistanceMeters>
          </Trackpoint>
          <Trackpoint>
            <Time>2022-07-05T17:40:59.000Z</Time>
            <Position>
              <LatitudeDegrees>44.22510336153209209442138671875</LatitudeDegrees>
              <LongitudeDegrees>-1.0922023840248584747314453125</LongitudeDegrees>
            </Position>
            <AltitudeMeters>60.40000152587890625</AltitudeMeters>
            <DistanceMeters>NAN</DistanceMeters>
          </Trackpoint>
          <Trackpoint>
            <Time>2022-07-05T17:41:03.000Z</Time>
            <Position>
              <LatitudeDegrees>44.2249185405671596527099609375</LatitudeDegrees>
              <LongitudeDegrees>-1.0921142064034938812255859375</LongitudeDegrees>
            </Position>
            <AltitudeMeters>60.40000152587890625</AltitudeMeters>
            <DistanceMeters>NAN</DistanceMeters>
          </Trackpoint>
          <Trackpoint>
            <Time>2022-07-05T17:41:05.000Z</Time>
            <Position>
              <LatitudeDegrees>44.22481351532042026519775390625</LatitudeDegrees>
              <LongitudeDegrees>-1.09207254834473133087158203125</LongitudeDegrees>
            </Position>
            <AltitudeMeters>60.40000152587890625</AltitudeMeters>
            <DistanceMeters>NAN</DistanceMeters>
          </Trackpoint>
          <Trackpoint>
            <Time>2022-07-05T17:41:06.000Z</Time>
            <Position>
              <LatitudeDegrees>44.22476255334913730621337890625</LatitudeDegrees>
              <LongitudeDegrees>-1.0920437984168529510498046875</LongitudeDegrees>
            </Position>
            <AltitudeMeters>60.40000152587890625</AltitudeMeters>
            <DistanceMeters>NAN</DistanceMeters>
          </Trackpoint>
          <Trackpoint>
            <Time>2022-07-05T17:41:12.000Z</Time>
            <Position>
              <LatitudeDegrees>44.22446767799556255340576171875</LatitudeDegrees>
              <LongitudeDegrees>-1.09181539155542850494384765625</LongitudeDegrees>
            </Position>
            <AltitudeMeters>60</AltitudeMeters>
            <DistanceMeters>NAN</DistanceMeters>
          </Trackpoint>
          <Trackpoint>
            <Time>2022-07-05T17:41:18.000Z</Time>
            <Position>
              <LatitudeDegrees>44.2241992056369781494140625</LatitudeDegrees>
              <LongitudeDegrees>-1.09160517342388629913330078125</LongitudeDegrees>
            </Position>
            <AltitudeMeters>59.799999237060546875</AltitudeMeters>
            <DistanceMeters>NAN</DistanceMeters>
          </Trackpoint>
          <Trackpoint>
            <Time>2022-07-05T17:41:23.000Z</Time>
            <Position>
              <LatitudeDegrees>44.22402746044099330902099609375</LatitudeDegrees>
              <LongitudeDegrees>-1.09144373796880245208740234375</LongitudeDegrees>
            </Position>
            <AltitudeMeters>60.40000152587890625</AltitudeMeters>
            <DistanceMeters>NAN</DistanceMeters>
          </Trackpoint>
          <Trackpoint>
            <Time>2022-07-05T17:41:25.000Z</Time>
            <Position>
              <LatitudeDegrees>44.223956130445003509521484375</LatitudeDegrees>
              <LongitudeDegrees>-1.09138355590403079986572265625</LongitudeDegrees>
            </Position>
            <AltitudeMeters>60.59999847412109375</AltitudeMeters>
            <DistanceMeters>NAN</DistanceMeters>
          </Trackpoint>
          <Trackpoint>
            <Time>2022-07-05T17:41:26.000Z</Time>
            <Position>
              <LatitudeDegrees>44.22392201609909534454345703125</LatitudeDegrees>
              <LongitudeDegrees>-1.09135354869067668914794921875</LongitudeDegrees>
            </Position>
            <AltitudeMeters>60.799999237060546875</AltitudeMeters>
            <DistanceMeters>NAN</DistanceMeters>
          </Trackpoint>
          <Trackpoint>
            <Time>2022-07-05T17:41:34.000Z</Time>
            <Position>
              <LatitudeDegrees>44.2236693017184734344482421875</LatitudeDegrees>
              <LongitudeDegrees>-1.09112539328634738922119140625</LongitudeDegrees>
            </Position>
            <AltitudeMeters>61.200000762939453125</AltitudeMeters>
            <DistanceMeters>NAN</DistanceMeters>
          </Trackpoint>
          <Trackpoint>
            <Time>2022-07-05T17:41:40.000Z</Time>
            <Position>
              <LatitudeDegrees>44.2235004901885986328125</LatitudeDegrees>
              <LongitudeDegrees>-1.09099379740655422210693359375</LongitudeDegrees>
            </Position>
            <AltitudeMeters>61</AltitudeMeters>
            <DistanceMeters>NAN</DistanceMeters>
          </Trackpoint>
          <Trackpoint>
            <Time>2022-07-05T17:41:48.000Z</Time>
            <Position>
              <LatitudeDegrees>44.22322162427008152008056640625</LatitudeDegrees>
              <LongitudeDegrees>-1.09075491316616535186767578125</LongitudeDegrees>
            </Position>
            <AltitudeMeters>61.40000152587890625</AltitudeMeters>
            <DistanceMeters>NAN</DistanceMeters>
          </Trackpoint>
          <Trackpoint>
            <Time>2022-07-05T17:41:51.000Z</Time>
            <Position>
              <LatitudeDegrees>44.223132021725177764892578125</LatitudeDegrees>
              <LongitudeDegrees>-1.09068249352276325225830078125</LongitudeDegrees>
            </Position>
            <AltitudeMeters>61.799999237060546875</AltitudeMeters>
            <DistanceMeters>NAN</DistanceMeters>
          </Trackpoint>
          <Trackpoint>
            <Time>2022-07-05T17:41:56.000Z</Time>
            <Position>
              <LatitudeDegrees>44.2229653894901275634765625</LatitudeDegrees>
              <LongitudeDegrees>-1.09054737724363803863525390625</LongitudeDegrees>
            </Position>
            <AltitudeMeters>61.59999847412109375</AltitudeMeters>
            <DistanceMeters>NAN</DistanceMeters>
          </Trackpoint>
          <Trackpoint>
            <Time>2022-07-05T17:41:57.000Z</Time>
            <Position>
              <LatitudeDegrees>44.22293378971517086029052734375</LatitudeDegrees>
              <LongitudeDegrees>-1.09052256681025028228759765625</LongitudeDegrees>
            </Position>
            <AltitudeMeters>61.40000152587890625</AltitudeMeters>
            <DistanceMeters>NAN</DistanceMeters>
          </Trackpoint>
          <Trackpoint>
            <Time>2022-07-05T17:42:03.000Z</Time>
            <Position>
              <LatitudeDegrees>44.22274972312152385711669921875</LatitudeDegrees>
              <LongitudeDegrees>-1.0903707705438137054443359375</LongitudeDegrees>
            </Position>
            <AltitudeMeters>62</AltitudeMeters>
            <DistanceMeters>NAN</DistanceMeters>
          </Trackpoint>
          <Trackpoint>
            <Time>2022-07-05T17:42:10.000Z</Time>
            <Position>
              <LatitudeDegrees>44.22252877615392208099365234375</LatitudeDegrees>
              <LongitudeDegrees>-1.0901759751141071319580078125</LongitudeDegrees>
            </Position>
            <AltitudeMeters>62.200000762939453125</AltitudeMeters>
            <DistanceMeters>NAN</DistanceMeters>
          </Trackpoint>
          <Trackpoint>
            <Time>2022-07-05T17:42:18.000Z</Time>
            <Position>
              <LatitudeDegrees>44.22229148447513580322265625</LatitudeDegrees>
              <LongitudeDegrees>-1.089974306523799896240234375</LongitudeDegrees>
            </Position>
            <AltitudeMeters>62.40000152587890625</AltitudeMeters>
            <DistanceMeters>NAN</DistanceMeters>
          </Trackpoint>
          <Trackpoint>
            <Time>2022-07-05T17:42:27.000Z</Time>
            <Position>
              <LatitudeDegrees>44.22198839485645294189453125</LatitudeDegrees>
              <LongitudeDegrees>-1.08972561545670032501220703125</LongitudeDegrees>
            </Position>
            <AltitudeMeters>62.799999237060546875</AltitudeMeters>
            <DistanceMeters>NAN</DistanceMeters>
          </Trackpoint>
          <Trackpoint>
            <Time>2022-07-05T17:42:31.000Z</Time>
            <Position>
              <LatitudeDegrees>44.22185135073959827423095703125</LatitudeDegrees>
              <LongitudeDegrees>-1.08962771482765674591064453125</LongitudeDegrees>
            </Position>
            <AltitudeMeters>63</AltitudeMeters>
            <DistanceMeters>NAN</DistanceMeters>
          </Trackpoint>
          <Trackpoint>
            <Time>2022-07-05T17:42:34.000Z</Time>
            <Position>
              <LatitudeDegrees>44.221757389605045318603515625</LatitudeDegrees>
              <LongitudeDegrees>-1.089551188051700592041015625</LongitudeDegrees>
            </Position>
            <AltitudeMeters>63</AltitudeMeters>
            <DistanceMeters>NAN</DistanceMeters>
          </Trackpoint>
          <Trackpoint>
            <Time>2022-07-05T17:42:44.000Z</Time>
            <Position>
              <LatitudeDegrees>44.22140073962509632110595703125</LatitudeDegrees>
              <LongitudeDegrees>-1.08926226384937763214111328125</LongitudeDegrees>
            </Position>
            <AltitudeMeters>63.200000762939453125</AltitudeMeters>
            <DistanceMeters>NAN</DistanceMeters>
          </Trackpoint>
          <Trackpoint>
            <Time>2022-07-05T17:42:51.000Z</Time>
            <Position>
              <LatitudeDegrees>44.22116822563111782073974609375</LatitudeDegrees>
              <LongitudeDegrees>-1.0890601761639118194580078125</LongitudeDegrees>
            </Position>
            <AltitudeMeters>63.40000152587890625</AltitudeMeters>
            <DistanceMeters>NAN</DistanceMeters>
          </Trackpoint>
          <Trackpoint>
            <Time>2022-07-05T17:42:55.000Z</Time>
            <Position>
              <LatitudeDegrees>44.22106663696467876434326171875</LatitudeDegrees>
              <LongitudeDegrees>-1.0889686457812786102294921875</LongitudeDegrees>
            </Position>
            <AltitudeMeters>63.200000762939453125</AltitudeMeters>
            <DistanceMeters>NAN</DistanceMeters>
          </Trackpoint>
          <Trackpoint>
            <Time>2022-07-05T17:43:03.000Z</Time>
            <Position>
              <LatitudeDegrees>44.22079036943614482879638671875</LatitudeDegrees>
              <LongitudeDegrees>-1.088753230869770050048828125</LongitudeDegrees>
            </Position>
            <AltitudeMeters>63.799999237060546875</AltitudeMeters>
            <DistanceMeters>NAN</DistanceMeters>
          </Trackpoint>
          <Trackpoint>
            <Time>2022-07-05T17:43:04.000Z</Time>
            <Position>
              <LatitudeDegrees>44.2207550816237926483154296875</LatitudeDegrees>
              <LongitudeDegrees>-1.08871911652386188507080078125</LongitudeDegrees>
            </Position>
            <AltitudeMeters>64</AltitudeMeters>
            <DistanceMeters>NAN</DistanceMeters>
          </Trackpoint>
          <Trackpoint>
            <Time>2022-07-05T17:43:09.000Z</Time>
            <Position>
              <LatitudeDegrees>44.22055584378540515899658203125</LatitudeDegrees>
              <LongitudeDegrees>-1.08855868689715862274169921875</LongitudeDegrees>
            </Position>
            <AltitudeMeters>63.40000152587890625</AltitudeMeters>
            <DistanceMeters>NAN</DistanceMeters>
          </Trackpoint>
          <Trackpoint>
            <Time>2022-07-05T17:43:10.000Z</Time>
            <Position>
              <LatitudeDegrees>44.220522902905941009521484375</LatitudeDegrees>
              <LongitudeDegrees>-1.088534295558929443359375</LongitudeDegrees>
            </Position>
            <AltitudeMeters>63.200000762939453125</AltitudeMeters>
            <DistanceMeters>NAN</DistanceMeters>
          </Trackpoint>
          <Trackpoint>
            <Time>2022-07-05T17:43:11.000Z</Time>
            <Position>
              <LatitudeDegrees>44.22049314714968204498291015625</LatitudeDegrees>
              <LongitudeDegrees>-1.08850537799298763275146484375</LongitudeDegrees>
            </Position>
            <AltitudeMeters>63.200000762939453125</AltitudeMeters>
            <DistanceMeters>NAN</DistanceMeters>
          </Trackpoint>
          <Trackpoint>
            <Time>2022-07-05T17:43:18.000Z</Time>
            <Position>
              <LatitudeDegrees>44.22025828622281551361083984375</LatitudeDegrees>
              <LongitudeDegrees>-1.088297925889492034912109375</LongitudeDegrees>
            </Position>
            <AltitudeMeters>63.59999847412109375</AltitudeMeters>
            <DistanceMeters>NAN</DistanceMeters>
          </Trackpoint>
          <Trackpoint>
            <Time>2022-07-05T17:43:22.000Z</Time>
            <Position>
              <LatitudeDegrees>44.22011445276439189910888671875</LatitudeDegrees>
              <LongitudeDegrees>-1.088174544274806976318359375</LongitudeDegrees>
            </Position>
            <AltitudeMeters>63.59999847412109375</AltitudeMeters>
            <DistanceMeters>NAN</DistanceMeters>
          </Trackpoint>
          <Trackpoint>
            <Time>2022-07-05T17:43:24.000Z</Time>
            <Position>
              <LatitudeDegrees>44.22003935091197490692138671875</LatitudeDegrees>
              <LongitudeDegrees>-1.08811696060001850128173828125</LongitudeDegrees>
            </Position>
            <AltitudeMeters>63.59999847412109375</AltitudeMeters>
            <DistanceMeters>NAN</DistanceMeters>
          </Trackpoint>
          <Trackpoint>
            <Time>2022-07-05T17:43:25.000Z</Time>
            <Position>
              <LatitudeDegrees>44.220001213252544403076171875</LatitudeDegrees>
              <LongitudeDegrees>-1.08808544464409351348876953125</LongitudeDegrees>
            </Position>
            <AltitudeMeters>63.59999847412109375</AltitudeMeters>
            <DistanceMeters>NAN</DistanceMeters>
          </Trackpoint>
          <Trackpoint>
            <Time>2022-07-05T17:43:27.000Z</Time>
            <Position>
              <LatitudeDegrees>44.21992837451398372650146484375</LatitudeDegrees>
              <LongitudeDegrees>-1.088023670017719268798828125</LongitudeDegrees>
            </Position>
            <AltitudeMeters>63.59999847412109375</AltitudeMeters>
            <DistanceMeters>NAN</DistanceMeters>
          </Trackpoint>
          <Trackpoint>
            <Time>2022-07-05T17:43:30.000Z</Time>
            <Position>
              <LatitudeDegrees>44.219818152487277984619140625</LatitudeDegrees>
              <LongitudeDegrees>-1.0879370011389255523681640625</LongitudeDegrees>
            </Position>
            <AltitudeMeters>63.59999847412109375</AltitudeMeters>
            <DistanceMeters>NAN</DistanceMeters>
          </Trackpoint>
          <Trackpoint>
            <Time>2022-07-05T17:43:34.000Z</Time>
            <Position>
              <LatitudeDegrees>44.2196872271597385406494140625</LatitudeDegrees>
              <LongitudeDegrees>-1.08782879076898097991943359375</LongitudeDegrees>
            </Position>
            <AltitudeMeters>63.59999847412109375</AltitudeMeters>
            <DistanceMeters>NAN</DistanceMeters>
          </Trackpoint>
          <Trackpoint>
            <Time>2022-07-05T17:43:42.000Z</Time>
            <Position>
              <LatitudeDegrees>44.21942126937210559844970703125</LatitudeDegrees>
              <LongitudeDegrees>-1.087601222097873687744140625</LongitudeDegrees>
            </Position>
            <AltitudeMeters>63.59999847412109375</AltitudeMeters>
            <DistanceMeters>NAN</DistanceMeters>
          </Trackpoint>
          <Trackpoint>
            <Time>2022-07-05T17:43:50.000Z</Time>
            <Position>
              <LatitudeDegrees>44.21913963742554187774658203125</LatitudeDegrees>
              <LongitudeDegrees>-1.08737113885581493377685546875</LongitudeDegrees>
            </Position>
            <AltitudeMeters>63.799999237060546875</AltitudeMeters>
            <DistanceMeters>NAN</DistanceMeters>
          </Trackpoint>
          <Trackpoint>
            <Time>2022-07-05T17:44:00.000Z</Time>
            <Position>
              <LatitudeDegrees>44.21878793276846408843994140625</LatitudeDegrees>
              <LongitudeDegrees>-1.08707576058804988861083984375</LongitudeDegrees>
            </Position>
            <AltitudeMeters>64.40000152587890625</AltitudeMeters>
            <DistanceMeters>NAN</DistanceMeters>
          </Trackpoint>
          <Trackpoint>
            <Time>2022-07-05T17:44:08.000Z</Time>
            <Position>
              <LatitudeDegrees>44.21849909238517284393310546875</LatitudeDegrees>
              <LongitudeDegrees>-1.08681910671293735504150390625</LongitudeDegrees>
            </Position>
            <AltitudeMeters>64.40000152587890625</AltitudeMeters>
            <DistanceMeters>NAN</DistanceMeters>
          </Trackpoint>
          <Trackpoint>
            <Time>2022-07-05T17:44:10.000Z</Time>
            <Position>
              <LatitudeDegrees>44.21842239797115325927734375</LatitudeDegrees>
              <LongitudeDegrees>-1.08675976283848285675048828125</LongitudeDegrees>
            </Position>
            <AltitudeMeters>64.40000152587890625</AltitudeMeters>
            <DistanceMeters>NAN</DistanceMeters>
          </Trackpoint>
          <Trackpoint>
            <Time>2022-07-05T17:44:19.000Z</Time>
            <Position>
              <LatitudeDegrees>44.2181020416319370269775390625</LatitudeDegrees>
              <LongitudeDegrees>-1.086482070386409759521484375</LongitudeDegrees>
            </Position>
            <AltitudeMeters>64.1999969482421875</AltitudeMeters>
            <DistanceMeters>NAN</DistanceMeters>
          </Trackpoint>
          <Trackpoint>
            <Time>2022-07-05T17:44:28.000Z</Time>
            <Position>
              <LatitudeDegrees>44.21778126619756221771240234375</LatitudeDegrees>
              <LongitudeDegrees>-1.08622533269226551055908203125</LongitudeDegrees>
            </Position>
            <AltitudeMeters>64.1999969482421875</AltitudeMeters>
            <DistanceMeters>NAN</DistanceMeters>
          </Trackpoint>
          <Trackpoint>
            <Time>2022-07-05T17:44:33.000Z</Time>
            <Position>
              <LatitudeDegrees>44.21761932782828807830810546875</LatitudeDegrees>
              <LongitudeDegrees>-1.0860908031463623046875</LongitudeDegrees>
            </Position>
            <AltitudeMeters>64.1999969482421875</AltitudeMeters>
            <DistanceMeters>NAN</DistanceMeters>
          </Trackpoint>
          <Trackpoint>
            <Time>2022-07-05T17:44:39.000Z</Time>
            <Position>
              <LatitudeDegrees>44.217402823269367218017578125</LatitudeDegrees>
              <LongitudeDegrees>-1.08591201715171337127685546875</LongitudeDegrees>
            </Position>
            <AltitudeMeters>64.40000152587890625</AltitudeMeters>
            <DistanceMeters>NAN</DistanceMeters>
          </Trackpoint>
          <Trackpoint>
            <Time>2022-07-05T17:44:43.000Z</Time>
            <Position>
              <LatitudeDegrees>44.217267371714115142822265625</LatitudeDegrees>
              <LongitudeDegrees>-1.08579584397375583648681640625</LongitudeDegrees>
            </Position>
            <AltitudeMeters>64.59999847412109375</AltitudeMeters>
            <DistanceMeters>NAN</DistanceMeters>
          </Trackpoint>
          <Trackpoint>
            <Time>2022-07-05T17:44:46.000Z</Time>
            <Position>
              <LatitudeDegrees>44.2171672917902469635009765625</LatitudeDegrees>
              <LongitudeDegrees>-1.0857131145894527435302734375</LongitudeDegrees>
            </Position>
            <AltitudeMeters>64.59999847412109375</AltitudeMeters>
            <DistanceMeters>NAN</DistanceMeters>
          </Trackpoint>
          <Trackpoint>
            <Time>2022-07-05T17:44:47.000Z</Time>
            <Position>
              <LatitudeDegrees>44.21713384799659252166748046875</LatitudeDegrees>
              <LongitudeDegrees>-1.0856852866709232330322265625</LongitudeDegrees>
            </Position>
            <AltitudeMeters>64.59999847412109375</AltitudeMeters>
            <DistanceMeters>NAN</DistanceMeters>
          </Trackpoint>
          <Trackpoint>
            <Time>2022-07-05T17:44:54.000Z</Time>
            <Position>
              <LatitudeDegrees>44.21691524796187877655029296875</LatitudeDegrees>
              <LongitudeDegrees>-1.085503734648227691650390625</LongitudeDegrees>
            </Position>
            <AltitudeMeters>65</AltitudeMeters>
            <DistanceMeters>NAN</DistanceMeters>
          </Trackpoint>
          <Trackpoint>
            <Time>2022-07-05T17:44:57.000Z</Time>
            <Position>
              <LatitudeDegrees>44.216817431151866912841796875</LatitudeDegrees>
              <LongitudeDegrees>-1.08542687259614467620849609375</LongitudeDegrees>
            </Position>
            <AltitudeMeters>65.1999969482421875</AltitudeMeters>
            <DistanceMeters>NAN</DistanceMeters>
          </Trackpoint>
          <Trackpoint>
            <Time>2022-07-05T17:45:07.000Z</Time>
            <Position>
              <LatitudeDegrees>44.21645290218293666839599609375</LatitudeDegrees>
              <LongitudeDegrees>-1.08511456288397312164306640625</LongitudeDegrees>
            </Position>
            <AltitudeMeters>65</AltitudeMeters>
            <DistanceMeters>NAN</DistanceMeters>
          </Trackpoint>
          <Trackpoint>
            <Time>2022-07-05T17:45:16.000Z</Time>
            <Position>
              <LatitudeDegrees>44.2160937376320362091064453125</LatitudeDegrees>
              <LongitudeDegrees>-1.0848127305507659912109375</LongitudeDegrees>
            </Position>
            <AltitudeMeters>65.59999847412109375</AltitudeMeters>
            <DistanceMeters>NAN</DistanceMeters>
          </Trackpoint>
          <Trackpoint>
            <Time>2022-07-05T17:45:25.000Z</Time>
            <Position>
              <LatitudeDegrees>44.2157448828220367431640625</LatitudeDegrees>
              <LongitudeDegrees>-1.08452749438583850860595703125</LongitudeDegrees>
            </Position>
            <AltitudeMeters>65.59999847412109375</AltitudeMeters>
            <DistanceMeters>NAN</DistanceMeters>
          </Trackpoint>
          <Trackpoint>
            <Time>2022-07-05T17:45:30.000Z</Time>
            <Position>
              <LatitudeDegrees>44.21555369161069393157958984375</LatitudeDegrees>
              <LongitudeDegrees>-1.0843673162162303924560546875</LongitudeDegrees>
            </Position>
            <AltitudeMeters>65.8000030517578125</AltitudeMeters>
            <DistanceMeters>NAN</DistanceMeters>
          </Trackpoint>
          <Trackpoint>
            <Time>2022-07-05T17:45:34.000Z</Time>
            <Position>
              <LatitudeDegrees>44.215413294732570648193359375</LatitudeDegrees>
              <LongitudeDegrees>-1.0842419229447841644287109375</LongitudeDegrees>
            </Position>
            <AltitudeMeters>65.8000030517578125</AltitudeMeters>
            <DistanceMeters>NAN</DistanceMeters>
          </Trackpoint>
          <Trackpoint>
            <Time>2022-07-05T17:45:36.000Z</Time>
            <Position>
              <LatitudeDegrees>44.2153433896601200103759765625</LatitudeDegrees>
              <LongitudeDegrees>-1.08419205062091350555419921875</LongitudeDegrees>
            </Position>
            <AltitudeMeters>66</AltitudeMeters>
            <DistanceMeters>NAN</DistanceMeters>
          </Trackpoint>
          <Trackpoint>
            <Time>2022-07-05T17:45:45.000Z</Time>
            <Position>
              <LatitudeDegrees>44.21508162282407283782958984375</LatitudeDegrees>
              <LongitudeDegrees>-1.0839623026549816131591796875</LongitudeDegrees>
            </Position>
            <AltitudeMeters>66.59999847412109375</AltitudeMeters>
            <DistanceMeters>NAN</DistanceMeters>
          </Trackpoint>
          <Trackpoint>
            <Time>2022-07-05T17:45:49.000Z</Time>
            <Position>
              <LatitudeDegrees>44.21497978270053863525390625</LatitudeDegrees>
              <LongitudeDegrees>-1.08386716805398464202880859375</LongitudeDegrees>
            </Position>
            <AltitudeMeters>66.8000030517578125</AltitudeMeters>
            <DistanceMeters>NAN</DistanceMeters>
          </Trackpoint>
          <Trackpoint>
            <Time>2022-07-05T17:45:54.000Z</Time>
            <Position>
              <LatitudeDegrees>44.21489587984979152679443359375</LatitudeDegrees>
              <LongitudeDegrees>-1.08377764932811260223388671875</LongitudeDegrees>
            </Position>
            <AltitudeMeters>67</AltitudeMeters>
            <DistanceMeters>NAN</DistanceMeters>
          </Trackpoint>
          <Trackpoint>
            <Time>2022-07-05T17:45:55.000Z</Time>
            <Position>
              <LatitudeDegrees>44.21488783322274684906005859375</LatitudeDegrees>
              <LongitudeDegrees>-1.08373783528804779052734375</LongitudeDegrees>
            </Position>
            <AltitudeMeters>67</AltitudeMeters>
            <DistanceMeters>NAN</DistanceMeters>
          </Trackpoint>
          <Trackpoint>
            <Time>2022-07-05T17:45:57.000Z</Time>
            <Position>
              <LatitudeDegrees>44.2148686386644840240478515625</LatitudeDegrees>
              <LongitudeDegrees>-1.083658039569854736328125</LongitudeDegrees>
            </Position>
            <AltitudeMeters>67</AltitudeMeters>
            <DistanceMeters>NAN</DistanceMeters>
          </Trackpoint>
          <Trackpoint>
            <Time>2022-07-05T17:46:01.000Z</Time>
            <Position>
              <LatitudeDegrees>44.21466864645481109619140625</LatitudeDegrees>
              <LongitudeDegrees>-1.083551757037639617919921875</LongitudeDegrees>
            </Position>
            <AltitudeMeters>67</AltitudeMeters>
            <DistanceMeters>NAN</DistanceMeters>
          </Trackpoint>
          <Trackpoint>
            <Time>2022-07-05T17:46:02.000Z</Time>
            <Position>
              <LatitudeDegrees>44.2146129906177520751953125</LatitudeDegrees>
              <LongitudeDegrees>-1.0835023038089275360107421875</LongitudeDegrees>
            </Position>
            <AltitudeMeters>67</AltitudeMeters>
            <DistanceMeters>NAN</DistanceMeters>
          </Trackpoint>
          <Trackpoint>
            <Time>2022-07-05T17:46:07.000Z</Time>
            <Position>
              <LatitudeDegrees>44.21436547301709651947021484375</LatitudeDegrees>
              <LongitudeDegrees>-1.08331982977688312530517578125</LongitudeDegrees>
            </Position>
            <AltitudeMeters>67.1999969482421875</AltitudeMeters>
            <DistanceMeters>NAN</DistanceMeters>
          </Trackpoint>
          <Trackpoint>
            <Time>2022-07-05T17:46:12.000Z</Time>
            <Position>
              <LatitudeDegrees>44.2141249962151050567626953125</LatitudeDegrees>
              <LongitudeDegrees>-1.0831107012927532196044921875</LongitudeDegrees>
            </Position>
            <AltitudeMeters>67.40000152587890625</AltitudeMeters>
            <DistanceMeters>NAN</DistanceMeters>
          </Trackpoint>
          <Trackpoint>
            <Time>2022-07-05T17:46:20.000Z</Time>
            <Position>
              <LatitudeDegrees>44.21391150914132595062255859375</LatitudeDegrees>
              <LongitudeDegrees>-1.0829705558717250823974609375</LongitudeDegrees>
            </Position>
            <AltitudeMeters>67</AltitudeMeters>
            <DistanceMeters>NAN</DistanceMeters>
          </Trackpoint>
          <Trackpoint>
            <Time>2022-07-05T17:46:27.000Z</Time>
            <Position>
              <LatitudeDegrees>44.21374303288757801055908203125</LatitudeDegrees>
              <LongitudeDegrees>-1.08282814733684062957763671875</LongitudeDegrees>
            </Position>
            <AltitudeMeters>66.59999847412109375</AltitudeMeters>
            <DistanceMeters>NAN</DistanceMeters>
          </Trackpoint>
          <Trackpoint>
            <Time>2022-07-05T17:46:36.000Z</Time>
            <Position>
              <LatitudeDegrees>44.21347045339643955230712890625</LatitudeDegrees>
              <LongitudeDegrees>-1.08260929584503173828125</LongitudeDegrees>
            </Position>
            <AltitudeMeters>66.40000152587890625</AltitudeMeters>
            <DistanceMeters>NAN</DistanceMeters>
          </Trackpoint>
          <Trackpoint>
            <Time>2022-07-05T17:46:42.000Z</Time>
            <Position>
              <LatitudeDegrees>44.21329845674335956573486328125</LatitudeDegrees>
              <LongitudeDegrees>-1.0824673064053058624267578125</LongitudeDegrees>
            </Position>
            <AltitudeMeters>66.59999847412109375</AltitudeMeters>
            <DistanceMeters>NAN</DistanceMeters>
          </Trackpoint>
          <Trackpoint>
            <Time>2022-07-05T17:46:44.000Z</Time>
            <Position>
              <LatitudeDegrees>44.213229976594448089599609375</LatitudeDegrees>
              <LongitudeDegrees>-1.08242598362267017364501953125</LongitudeDegrees>
            </Position>
            <AltitudeMeters>66.59999847412109375</AltitudeMeters>
            <DistanceMeters>NAN</DistanceMeters>
          </Trackpoint>
          <Trackpoint>
            <Time>2022-07-05T17:46:47.000Z</Time>
            <Position>
              <LatitudeDegrees>44.21313383616507053375244140625</LatitudeDegrees>
              <LongitudeDegrees>-1.08234174549579620361328125</LongitudeDegrees>
            </Position>
            <AltitudeMeters>66.8000030517578125</AltitudeMeters>
            <DistanceMeters>NAN</DistanceMeters>
          </Trackpoint>
          <Trackpoint>
            <Time>2022-07-05T17:46:52.000Z</Time>
            <Position>
              <LatitudeDegrees>44.2129870690405368804931640625</LatitudeDegrees>
              <LongitudeDegrees>-1.08218944631516933441162109375</LongitudeDegrees>
            </Position>
            <AltitudeMeters>66.8000030517578125</AltitudeMeters>
            <DistanceMeters>NAN</DistanceMeters>
          </Trackpoint>
          <Trackpoint>
            <Time>2022-07-05T17:46:57.000Z</Time>
            <Position>
              <LatitudeDegrees>44.2128522880375385284423828125</LatitudeDegrees>
              <LongitudeDegrees>-1.08206011354923248291015625</LongitudeDegrees>
            </Position>
            <AltitudeMeters>66.59999847412109375</AltitudeMeters>
            <DistanceMeters>NAN</DistanceMeters>
          </Trackpoint>
          <Trackpoint>
            <Time>2022-07-05T17:47:03.000Z</Time>
            <Position>
              <LatitudeDegrees>44.21264550648629665374755859375</LatitudeDegrees>
              <LongitudeDegrees>-1.0818913020193576812744140625</LongitudeDegrees>
            </Position>
            <AltitudeMeters>66.8000030517578125</AltitudeMeters>
            <DistanceMeters>NAN</DistanceMeters>
          </Trackpoint>
          <Trackpoint>
            <Time>2022-07-05T17:47:10.000Z</Time>
            <Position>
              <LatitudeDegrees>44.2124264873564243316650390625</LatitudeDegrees>
              <LongitudeDegrees>-1.08172886073589324951171875</LongitudeDegrees>
            </Position>
            <AltitudeMeters>66.8000030517578125</AltitudeMeters>
            <DistanceMeters>NAN</DistanceMeters>
          </Trackpoint>
          <Trackpoint>
            <Time>2022-07-05T17:47:20.000Z</Time>
            <Position>
              <LatitudeDegrees>44.212086014449596405029296875</LatitudeDegrees>
              <LongitudeDegrees>-1.081454940140247344970703125</LongitudeDegrees>
            </Position>
            <AltitudeMeters>66.8000030517578125</AltitudeMeters>
            <DistanceMeters>NAN</DistanceMeters>
          </Trackpoint>
          <Trackpoint>
            <Time>2022-07-05T17:47:28.000Z</Time>
            <Position>
              <LatitudeDegrees>44.2118208110332489013671875</LatitudeDegrees>
              <LongitudeDegrees>-1.081222929060459136962890625</LongitudeDegrees>
            </Position>
            <AltitudeMeters>67.1999969482421875</AltitudeMeters>
            <DistanceMeters>NAN</DistanceMeters>
          </Trackpoint>
          <Trackpoint>
            <Time>2022-07-05T17:47:35.000Z</Time>
            <Position>
              <LatitudeDegrees>44.2116057313978672027587890625</LatitudeDegrees>
              <LongitudeDegrees>-1.08101061545312404632568359375</LongitudeDegrees>
            </Position>
            <AltitudeMeters>67.40000152587890625</AltitudeMeters>
            <DistanceMeters>NAN</DistanceMeters>
          </Trackpoint>
          <Trackpoint>
            <Time>2022-07-05T17:47:42.000Z</Time>
            <Position>
              <LatitudeDegrees>44.211398698389530181884765625</LatitudeDegrees>
              <LongitudeDegrees>-1.08077659271657466888427734375</LongitudeDegrees>
            </Position>
            <AltitudeMeters>67.1999969482421875</AltitudeMeters>
            <DistanceMeters>NAN</DistanceMeters>
          </Trackpoint>
          <Trackpoint>
            <Time>2022-07-05T17:47:43.000Z</Time>
            <Position>
              <LatitudeDegrees>44.2113512568175792694091796875</LatitudeDegrees>
              <LongitudeDegrees>-1.0807433165609836578369140625</LongitudeDegrees>
            </Position>
            <AltitudeMeters>67.1999969482421875</AltitudeMeters>
            <DistanceMeters>NAN</DistanceMeters>
          </Trackpoint>
          <Trackpoint>
            <Time>2022-07-05T17:47:49.000Z</Time>
            <Position>
              <LatitudeDegrees>44.211131148040294647216796875</LatitudeDegrees>
              <LongitudeDegrees>-1.08057760633528232574462890625</LongitudeDegrees>
            </Position>
            <AltitudeMeters>67.40000152587890625</AltitudeMeters>
            <DistanceMeters>NAN</DistanceMeters>
          </Trackpoint>
          <Trackpoint>
            <Time>2022-07-05T17:47:57.000Z</Time>
            <Position>
              <LatitudeDegrees>44.21078841201961040496826171875</LatitudeDegrees>
              <LongitudeDegrees>-1.0803403146564960479736328125</LongitudeDegrees>
            </Position>
            <AltitudeMeters>67.59999847412109375</AltitudeMeters>
            <DistanceMeters>NAN</DistanceMeters>
          </Trackpoint>
          <Trackpoint>
            <Time>2022-07-05T17:48:03.000Z</Time>
            <Position>
              <LatitudeDegrees>44.21052874065935611724853515625</LatitudeDegrees>
              <LongitudeDegrees>-1.08015331439673900604248046875</LongitudeDegrees>
            </Position>
            <AltitudeMeters>68</AltitudeMeters>
            <DistanceMeters>NAN</DistanceMeters>
          </Trackpoint>
          <Trackpoint>
            <Time>2022-07-05T17:48:08.000Z</Time>
            <Position>
              <LatitudeDegrees>44.21034894883632659912109375</LatitudeDegrees>
              <LongitudeDegrees>-1.08002875931560993194580078125</LongitudeDegrees>
            </Position>
            <AltitudeMeters>68</AltitudeMeters>
            <DistanceMeters>NAN</DistanceMeters>
          </Trackpoint>
          <Trackpoint>
            <Time>2022-07-05T17:48:15.000Z</Time>
            <Position>
              <LatitudeDegrees>44.2100956477224826812744140625</LatitudeDegrees>
              <LongitudeDegrees>-1.0798162780702114105224609375</LongitudeDegrees>
            </Position>
            <AltitudeMeters>68</AltitudeMeters>
            <DistanceMeters>NAN</DistanceMeters>
          </Trackpoint>
          <Trackpoint>
            <Time>2022-07-05T17:48:18.000Z</Time>
            <Position>
              <LatitudeDegrees>44.20999221503734588623046875</LatitudeDegrees>
              <LongitudeDegrees>-1.07972399331629276275634765625</LongitudeDegrees>
            </Position>
            <AltitudeMeters>67.8000030517578125</AltitudeMeters>
            <DistanceMeters>NAN</DistanceMeters>
          </Trackpoint>
          <Trackpoint>
            <Time>2022-07-05T17:48:23.000Z</Time>
            <Position>
              <LatitudeDegrees>44.20982147566974163055419921875</LatitudeDegrees>
              <LongitudeDegrees>-1.07956540770828723907470703125</LongitudeDegrees>
            </Position>
            <AltitudeMeters>67.59999847412109375</AltitudeMeters>
            <DistanceMeters>NAN</DistanceMeters>
          </Trackpoint>
          <Trackpoint>
            <Time>2022-07-05T17:48:25.000Z</Time>
            <Position>
              <LatitudeDegrees>44.2097476311028003692626953125</LatitudeDegrees>
              <LongitudeDegrees>-1.0795121826231479644775390625</LongitudeDegrees>
            </Position>
            <AltitudeMeters>67.8000030517578125</AltitudeMeters>
            <DistanceMeters>NAN</DistanceMeters>
          </Trackpoint>
          <Trackpoint>
            <Time>2022-07-05T17:48:26.000Z</Time>
            <Position>
              <LatitudeDegrees>44.20970815233886241912841796875</LatitudeDegrees>
              <LongitudeDegrees>-1.079484857618808746337890625</LongitudeDegrees>
            </Position>
            <AltitudeMeters>68</AltitudeMeters>
            <DistanceMeters>NAN</DistanceMeters>
          </Trackpoint>
          <Trackpoint>
            <Time>2022-07-05T17:48:30.000Z</Time>
            <Position>
              <LatitudeDegrees>44.209558703005313873291015625</LatitudeDegrees>
              <LongitudeDegrees>-1.07936927117407321929931640625</LongitudeDegrees>
            </Position>
            <AltitudeMeters>68</AltitudeMeters>
            <DistanceMeters>NAN</DistanceMeters>
          </Trackpoint>
          <Trackpoint>
            <Time>2022-07-05T17:48:32.000Z</Time>
            <Position>
              <LatitudeDegrees>44.20949089340865612030029296875</LatitudeDegrees>
              <LongitudeDegrees>-1.07929836027324199676513671875</LongitudeDegrees>
            </Position>
            <AltitudeMeters>68.1999969482421875</AltitudeMeters>
            <DistanceMeters>NAN</DistanceMeters>
          </Trackpoint>
          <Trackpoint>
            <Time>2022-07-05T17:48:33.000Z</Time>
            <Position>
              <LatitudeDegrees>44.2094542644917964935302734375</LatitudeDegrees>
              <LongitudeDegrees>-1.07926902361214160919189453125</LongitudeDegrees>
            </Position>
            <AltitudeMeters>68.1999969482421875</AltitudeMeters>
            <DistanceMeters>NAN</DistanceMeters>
          </Trackpoint>
          <Trackpoint>
            <Time>2022-07-05T17:48:42.000Z</Time>
            <Position>
              <LatitudeDegrees>44.20913818292319774627685546875</LatitudeDegrees>
              <LongitudeDegrees>-1.0790136270225048065185546875</LongitudeDegrees>
            </Position>
            <AltitudeMeters>68.1999969482421875</AltitudeMeters>
            <DistanceMeters>NAN</DistanceMeters>
          </Trackpoint>
          <Trackpoint>
            <Time>2022-07-05T17:48:43.000Z</Time>
            <Position>
              <LatitudeDegrees>44.20910348184406757354736328125</LatitudeDegrees>
              <LongitudeDegrees>-1.078985966742038726806640625</LongitudeDegrees>
            </Position>
            <AltitudeMeters>68.40000152587890625</AltitudeMeters>
            <DistanceMeters>NAN</DistanceMeters>
          </Trackpoint>
          <Trackpoint>
            <Time>2022-07-05T17:48:52.000Z</Time>
            <Position>
              <LatitudeDegrees>44.20877943746745586395263671875</LatitudeDegrees>
              <LongitudeDegrees>-1.07870525680482387542724609375</LongitudeDegrees>
            </Position>
            <AltitudeMeters>68.1999969482421875</AltitudeMeters>
            <DistanceMeters>NAN</DistanceMeters>
          </Trackpoint>
          <Trackpoint>
            <Time>2022-07-05T17:49:00.000Z</Time>
            <Position>
              <LatitudeDegrees>44.20853133313357830047607421875</LatitudeDegrees>
              <LongitudeDegrees>-1.07849252410233020782470703125</LongitudeDegrees>
            </Position>
            <AltitudeMeters>68.1999969482421875</AltitudeMeters>
            <DistanceMeters>NAN</DistanceMeters>
          </Trackpoint>
          <Trackpoint>
            <Time>2022-07-05T17:49:10.000Z</Time>
            <Position>
              <LatitudeDegrees>44.20821567066013813018798828125</LatitudeDegrees>
              <LongitudeDegrees>-1.0781868360936641693115234375</LongitudeDegrees>
            </Position>
            <AltitudeMeters>68</AltitudeMeters>
            <DistanceMeters>NAN</DistanceMeters>
          </Trackpoint>
          <Trackpoint>
            <Time>2022-07-05T17:49:20.000Z</Time>
            <Position>
              <LatitudeDegrees>44.2079213820397853851318359375</LatitudeDegrees>
              <LongitudeDegrees>-1.07787528075277805328369140625</LongitudeDegrees>
            </Position>
            <AltitudeMeters>68</AltitudeMeters>
            <DistanceMeters>NAN</DistanceMeters>
          </Trackpoint>
          <Trackpoint>
            <Time>2022-07-05T17:49:28.000Z</Time>
            <Position>
              <LatitudeDegrees>44.2076766304671764373779296875</LatitudeDegrees>
              <LongitudeDegrees>-1.07760957442224025726318359375</LongitudeDegrees>
            </Position>
            <AltitudeMeters>68.1999969482421875</AltitudeMeters>
            <DistanceMeters>NAN</DistanceMeters>
          </Trackpoint>
          <Trackpoint>
            <Time>2022-07-05T17:49:34.000Z</Time>
            <Position>
              <LatitudeDegrees>44.20746163465082645416259765625</LatitudeDegrees>
              <LongitudeDegrees>-1.07736934907734394073486328125</LongitudeDegrees>
            </Position>
            <AltitudeMeters>68.40000152587890625</AltitudeMeters>
            <DistanceMeters>NAN</DistanceMeters>
          </Trackpoint>
          <Trackpoint>
            <Time>2022-07-05T17:49:36.000Z</Time>
            <Position>
              <LatitudeDegrees>44.20738644897937774658203125</LatitudeDegrees>
              <LongitudeDegrees>-1.07727798633277416229248046875</LongitudeDegrees>
            </Position>
            <AltitudeMeters>68.40000152587890625</AltitudeMeters>
            <DistanceMeters>NAN</DistanceMeters>
          </Trackpoint>
          <Trackpoint>
            <Time>2022-07-05T17:49:46.000Z</Time>
            <Position>
              <LatitudeDegrees>44.20701093971729278564453125</LatitudeDegrees>
              <LongitudeDegrees>-1.076867021620273590087890625</LongitudeDegrees>
            </Position>
            <AltitudeMeters>68.59999847412109375</AltitudeMeters>
            <DistanceMeters>NAN</DistanceMeters>
          </Trackpoint>
          <Trackpoint>
            <Time>2022-07-05T17:49:53.000Z</Time>
            <Position>
              <LatitudeDegrees>44.20675872825086116790771484375</LatitudeDegrees>
              <LongitudeDegrees>-1.076600141823291778564453125</LongitudeDegrees>
            </Position>
            <AltitudeMeters>69</AltitudeMeters>
            <DistanceMeters>NAN</DistanceMeters>
          </Trackpoint>
          <Trackpoint>
            <Time>2022-07-05T17:49:55.000Z</Time>
            <Position>
              <LatitudeDegrees>44.20668345876038074493408203125</LatitudeDegrees>
              <LongitudeDegrees>-1.07652612961828708648681640625</LongitudeDegrees>
            </Position>
            <AltitudeMeters>69</AltitudeMeters>
            <DistanceMeters>NAN</DistanceMeters>
          </Trackpoint>
          <Trackpoint>
            <Time>2022-07-05T17:50:05.000Z</Time>
            <Position>
              <LatitudeDegrees>44.206331335008144378662109375</LatitudeDegrees>
              <LongitudeDegrees>-1.0761349461972713470458984375</LongitudeDegrees>
            </Position>
            <AltitudeMeters>68.40000152587890625</AltitudeMeters>
            <DistanceMeters>NAN</DistanceMeters>
          </Trackpoint>
          <Trackpoint>
            <Time>2022-07-05T17:50:15.000Z</Time>
            <Position>
              <LatitudeDegrees>44.20597426593303680419921875</LatitudeDegrees>
              <LongitudeDegrees>-1.0757584311068058013916015625</LongitudeDegrees>
            </Position>
            <AltitudeMeters>68.40000152587890625</AltitudeMeters>
            <DistanceMeters>NAN</DistanceMeters>
          </Trackpoint>
          <Trackpoint>
            <Time>2022-07-05T17:50:17.000Z</Time>
            <Position>
              <LatitudeDegrees>44.20590612106025218963623046875</LatitudeDegrees>
              <LongitudeDegrees>-1.075683496892452239990234375</LongitudeDegrees>
            </Position>
            <AltitudeMeters>68.40000152587890625</AltitudeMeters>
            <DistanceMeters>NAN</DistanceMeters>
          </Trackpoint>
          <Trackpoint>
            <Time>2022-07-05T17:50:24.000Z</Time>
            <Position>
              <LatitudeDegrees>44.2056860961019992828369140625</LatitudeDegrees>
              <LongitudeDegrees>-1.07543765567243099212646484375</LongitudeDegrees>
            </Position>
            <AltitudeMeters>68.59999847412109375</AltitudeMeters>
            <DistanceMeters>NAN</DistanceMeters>
          </Trackpoint>
          <Trackpoint>
            <Time>2022-07-05T17:50:25.000Z</Time>
            <Position>
              <LatitudeDegrees>44.20565566979348659515380859375</LatitudeDegrees>
              <LongitudeDegrees>-1.07540982775390148162841796875</LongitudeDegrees>
            </Position>
            <AltitudeMeters>68.59999847412109375</AltitudeMeters>
            <DistanceMeters>NAN</DistanceMeters>
          </Trackpoint>
          <Trackpoint>
            <Time>2022-07-05T17:50:32.000Z</Time>
            <Position>
              <LatitudeDegrees>44.2054664902389049530029296875</LatitudeDegrees>
              <LongitudeDegrees>-1.07521050609648227691650390625</LongitudeDegrees>
            </Position>
            <AltitudeMeters>68.40000152587890625</AltitudeMeters>
            <DistanceMeters>NAN</DistanceMeters>
          </Trackpoint>
          <Trackpoint>
            <Time>2022-07-05T17:50:37.000Z</Time>
            <Position>
              <LatitudeDegrees>44.2053732834756374359130859375</LatitudeDegrees>
              <LongitudeDegrees>-1.0751287825405597686767578125</LongitudeDegrees>
            </Position>
            <AltitudeMeters>68.1999969482421875</AltitudeMeters>
            <DistanceMeters>NAN</DistanceMeters>
          </Trackpoint>
          <Trackpoint>
            <Time>2022-07-05T17:50:39.000Z</Time>
            <Position>
              <LatitudeDegrees>44.2053732834756374359130859375</LatitudeDegrees>
              <LongitudeDegrees>-1.0751287825405597686767578125</LongitudeDegrees>
            </Position>
            <AltitudeMeters>67.8000030517578125</AltitudeMeters>
            <DistanceMeters>NAN</DistanceMeters>
          </Trackpoint>
          <Trackpoint>
            <Time>2022-07-05T17:50:48.000Z</Time>
            <Position>
              <LatitudeDegrees>44.2053404264152050018310546875</LatitudeDegrees>
              <LongitudeDegrees>-1.07509081251919269561767578125</LongitudeDegrees>
            </Position>
            <AltitudeMeters>68</AltitudeMeters>
            <DistanceMeters>NAN</DistanceMeters>
          </Trackpoint>
          <Trackpoint>
            <Time>2022-07-05T17:50:49.000Z</Time>
            <Position>
              <LatitudeDegrees>44.20532039366662502288818359375</LatitudeDegrees>
              <LongitudeDegrees>-1.07507103122770786285400390625</LongitudeDegrees>
            </Position>
            <AltitudeMeters>68</AltitudeMeters>
            <DistanceMeters>NAN</DistanceMeters>
          </Trackpoint>
          <Trackpoint>
            <Time>2022-07-05T17:50:55.000Z</Time>
            <Position>
              <LatitudeDegrees>44.20515845529735088348388671875</LatitudeDegrees>
              <LongitudeDegrees>-1.07489970512688159942626953125</LongitudeDegrees>
            </Position>
            <AltitudeMeters>68</AltitudeMeters>
            <DistanceMeters>NAN</DistanceMeters>
          </Trackpoint>
          <Trackpoint>
            <Time>2022-07-05T17:51:02.000Z</Time>
            <Position>
              <LatitudeDegrees>44.20493180863559246063232421875</LatitudeDegrees>
              <LongitudeDegrees>-1.07465545646846294403076171875</LongitudeDegrees>
            </Position>
            <AltitudeMeters>68.1999969482421875</AltitudeMeters>
            <DistanceMeters>NAN</DistanceMeters>
          </Trackpoint>
          <Trackpoint>
            <Time>2022-07-05T17:51:03.000Z</Time>
            <Position>
              <LatitudeDegrees>44.20489643700420856475830078125</LatitudeDegrees>
              <LongitudeDegrees>-1.07461857609450817108154296875</LongitudeDegrees>
            </Position>
            <AltitudeMeters>68.1999969482421875</AltitudeMeters>
            <DistanceMeters>NAN</DistanceMeters>
          </Trackpoint>
          <Trackpoint>
            <Time>2022-07-05T17:51:13.000Z</Time>
            <Position>
              <LatitudeDegrees>44.204555712640285491943359375</LatitudeDegrees>
              <LongitudeDegrees>-1.07423652894794940948486328125</LongitudeDegrees>
            </Position>
            <AltitudeMeters>68.40000152587890625</AltitudeMeters>
            <DistanceMeters>NAN</DistanceMeters>
          </Trackpoint>
          <Trackpoint>
            <Time>2022-07-05T17:51:14.000Z</Time>
            <Position>
              <LatitudeDegrees>44.2045216821134090423583984375</LatitudeDegrees>
              <LongitudeDegrees>-1.074199564754962921142578125</LongitudeDegrees>
            </Position>
            <AltitudeMeters>68.40000152587890625</AltitudeMeters>
            <DistanceMeters>NAN</DistanceMeters>
          </Trackpoint>
          <Trackpoint>
            <Time>2022-07-05T17:51:16.000Z</Time>
            <Position>
              <LatitudeDegrees>44.204458482563495635986328125</LatitudeDegrees>
              <LongitudeDegrees>-1.07410962693393230438232421875</LongitudeDegrees>
            </Position>
            <AltitudeMeters>68.40000152587890625</AltitudeMeters>
            <DistanceMeters>NAN</DistanceMeters>
          </Trackpoint>
          <Trackpoint>
            <Time>2022-07-05T17:51:17.000Z</Time>
            <Position>
              <LatitudeDegrees>44.20442386530339717864990234375</LatitudeDegrees>
              <LongitudeDegrees>-1.0740723274648189544677734375</LongitudeDegrees>
            </Position>
            <AltitudeMeters>68.40000152587890625</AltitudeMeters>
            <DistanceMeters>NAN</DistanceMeters>
          </Trackpoint>
          <Trackpoint>
            <Time>2022-07-05T17:51:23.000Z</Time>
            <Position>
              <LatitudeDegrees>44.2042142339050769805908203125</LatitudeDegrees>
              <LongitudeDegrees>-1.07384559698402881622314453125</LongitudeDegrees>
            </Position>
            <AltitudeMeters>68.8000030517578125</AltitudeMeters>
            <DistanceMeters>NAN</DistanceMeters>
          </Trackpoint>
          <Trackpoint>
            <Time>2022-07-05T17:51:24.000Z</Time>
            <Position>
              <LatitudeDegrees>44.20417995192110538482666015625</LatitudeDegrees>
              <LongitudeDegrees>-1.0738084651529788970947265625</LongitudeDegrees>
            </Position>
            <AltitudeMeters>68.8000030517578125</AltitudeMeters>
            <DistanceMeters>NAN</DistanceMeters>
          </Trackpoint>
          <Trackpoint>
            <Time>2022-07-05T17:51:25.000Z</Time>
            <Position>
              <LatitudeDegrees>44.20414525084197521209716796875</LatitudeDegrees>
              <LongitudeDegrees>-1.073772422969341278076171875</LongitudeDegrees>
            </Position>
            <AltitudeMeters>68.8000030517578125</AltitudeMeters>
            <DistanceMeters>NAN</DistanceMeters>
          </Trackpoint>
          <Trackpoint>
            <Time>2022-07-05T17:51:26.000Z</Time>
            <Position>
              <LatitudeDegrees>44.20411549508571624755859375</LatitudeDegrees>
              <LongitudeDegrees>-1.07373612932860851287841796875</LongitudeDegrees>
            </Position>
            <AltitudeMeters>69</AltitudeMeters>
            <DistanceMeters>NAN</DistanceMeters>
          </Trackpoint>
          <Trackpoint>
            <Time>2022-07-05T17:51:27.000Z</Time>
            <Position>
              <LatitudeDegrees>44.2040851525962352752685546875</LatitudeDegrees>
              <LongitudeDegrees>-1.07370310463011264801025390625</LongitudeDegrees>
            </Position>
            <AltitudeMeters>69</AltitudeMeters>
            <DistanceMeters>NAN</DistanceMeters>
          </Trackpoint>
          <Trackpoint>
            <Time>2022-07-05T17:51:30.000Z</Time>
            <Position>
              <LatitudeDegrees>44.20397794805467128753662109375</LatitudeDegrees>
              <LongitudeDegrees>-1.07360302470624446868896484375</LongitudeDegrees>
            </Position>
            <AltitudeMeters>68.8000030517578125</AltitudeMeters>
            <DistanceMeters>NAN</DistanceMeters>
          </Trackpoint>
          <Trackpoint>
            <Time>2022-07-05T17:51:32.000Z</Time>
            <Position>
              <LatitudeDegrees>44.20390770770609378814697265625</LatitudeDegrees>
              <LongitudeDegrees>-1.073537729680538177490234375</LongitudeDegrees>
            </Position>
            <AltitudeMeters>68.8000030517578125</AltitudeMeters>
            <DistanceMeters>NAN</DistanceMeters>
          </Trackpoint>
          <Trackpoint>
            <Time>2022-07-05T17:51:40.000Z</Time>
            <Position>
              <LatitudeDegrees>44.2036010138690471649169921875</LatitudeDegrees>
              <LongitudeDegrees>-1.07321511022746562957763671875</LongitudeDegrees>
            </Position>
            <AltitudeMeters>68.59999847412109375</AltitudeMeters>
            <DistanceMeters>NAN</DistanceMeters>
          </Trackpoint>
          <Trackpoint>
            <Time>2022-07-05T17:51:48.000Z</Time>
            <Position>
              <LatitudeDegrees>44.203295744955539703369140625</LatitudeDegrees>
              <LongitudeDegrees>-1.07287966646254062652587890625</LongitudeDegrees>
            </Position>
            <AltitudeMeters>68.8000030517578125</AltitudeMeters>
            <DistanceMeters>NAN</DistanceMeters>
          </Trackpoint>
          <Trackpoint>
            <Time>2022-07-05T17:51:49.000Z</Time>
            <Position>
              <LatitudeDegrees>44.20325450599193572998046875</LatitudeDegrees>
              <LongitudeDegrees>-1.07284295372664928436279296875</LongitudeDegrees>
            </Position>
            <AltitudeMeters>68.8000030517578125</AltitudeMeters>
            <DistanceMeters>NAN</DistanceMeters>
          </Trackpoint>
          <Trackpoint>
            <Time>2022-07-05T17:51:56.000Z</Time>
            <Position>
              <LatitudeDegrees>44.202978909015655517578125</LatitudeDegrees>
              <LongitudeDegrees>-1.0725461505353450775146484375</LongitudeDegrees>
            </Position>
            <AltitudeMeters>68.59999847412109375</AltitudeMeters>
            <DistanceMeters>NAN</DistanceMeters>
          </Trackpoint>
          <Trackpoint>
            <Time>2022-07-05T17:52:01.000Z</Time>
            <Position>
              <LatitudeDegrees>44.20278922654688358306884765625</LatitudeDegrees>
              <LongitudeDegrees>-1.07233132235705852508544921875</LongitudeDegrees>
            </Position>
            <AltitudeMeters>68.40000152587890625</AltitudeMeters>
            <DistanceMeters>NAN</DistanceMeters>
          </Trackpoint>
          <Trackpoint>
            <Time>2022-07-05T17:52:02.000Z</Time>
            <Position>
              <LatitudeDegrees>44.20275217853486537933349609375</LatitudeDegrees>
              <LongitudeDegrees>-1.07229343615472316741943359375</LongitudeDegrees>
            </Position>
            <AltitudeMeters>68.40000152587890625</AltitudeMeters>
            <DistanceMeters>NAN</DistanceMeters>
          </Trackpoint>
          <Trackpoint>
            <Time>2022-07-05T17:52:04.000Z</Time>
            <Position>
              <LatitudeDegrees>44.20267581939697265625</LatitudeDegrees>
              <LongitudeDegrees>-1.07222705148160457611083984375</LongitudeDegrees>
            </Position>
            <AltitudeMeters>68.59999847412109375</AltitudeMeters>
            <DistanceMeters>NAN</DistanceMeters>
          </Trackpoint>
          <Trackpoint>
            <Time>2022-07-05T17:52:09.000Z</Time>
            <Position>
              <LatitudeDegrees>44.202501140534877777099609375</LatitudeDegrees>
              <LongitudeDegrees>-1.0720345191657543182373046875</LongitudeDegrees>
            </Position>
            <AltitudeMeters>68.59999847412109375</AltitudeMeters>
            <DistanceMeters>NAN</DistanceMeters>
          </Trackpoint>
          <Trackpoint>
            <Time>2022-07-05T17:52:13.000Z</Time>
            <Position>
              <LatitudeDegrees>44.2023606598377227783203125</LatitudeDegrees>
              <LongitudeDegrees>-1.07188456691801548004150390625</LongitudeDegrees>
            </Position>
            <AltitudeMeters>68.8000030517578125</AltitudeMeters>
            <DistanceMeters>NAN</DistanceMeters>
          </Trackpoint>
          <Trackpoint>
            <Time>2022-07-05T17:52:23.000Z</Time>
            <Position>
              <LatitudeDegrees>44.2019980587065219879150390625</LatitudeDegrees>
              <LongitudeDegrees>-1.07148877345025539398193359375</LongitudeDegrees>
            </Position>
            <AltitudeMeters>68.8000030517578125</AltitudeMeters>
            <DistanceMeters>NAN</DistanceMeters>
          </Trackpoint>
          <Trackpoint>
            <Time>2022-07-05T17:52:25.000Z</Time>
            <Position>
              <LatitudeDegrees>44.20192421413958072662353515625</LatitudeDegrees>
              <LongitudeDegrees>-1.0714115761220455169677734375</LongitudeDegrees>
            </Position>
            <AltitudeMeters>68.8000030517578125</AltitudeMeters>
            <DistanceMeters>NAN</DistanceMeters>
          </Trackpoint>
          <Trackpoint>
            <Time>2022-07-05T17:52:29.000Z</Time>
            <Position>
              <LatitudeDegrees>44.20178105123341083526611328125</LatitudeDegrees>
              <LongitudeDegrees>-1.0712576843798160552978515625</LongitudeDegrees>
            </Position>
            <AltitudeMeters>69</AltitudeMeters>
            <DistanceMeters>NAN</DistanceMeters>
          </Trackpoint>
          <Trackpoint>
            <Time>2022-07-05T17:52:30.000Z</Time>
            <Position>
              <LatitudeDegrees>44.20174702070653438568115234375</LatitudeDegrees>
              <LongitudeDegrees>-1.0712171159684658050537109375</LongitudeDegrees>
            </Position>
            <AltitudeMeters>69.1999969482421875</AltitudeMeters>
            <DistanceMeters>NAN</DistanceMeters>
          </Trackpoint>
          <Trackpoint>
            <Time>2022-07-05T17:52:34.000Z</Time>
            <Position>
              <LatitudeDegrees>44.20160628855228424072265625</LatitudeDegrees>
              <LongitudeDegrees>-1.0710615478456020355224609375</LongitudeDegrees>
            </Position>
            <AltitudeMeters>69.1999969482421875</AltitudeMeters>
            <DistanceMeters>NAN</DistanceMeters>
          </Trackpoint>
          <Trackpoint>
            <Time>2022-07-05T17:52:43.000Z</Time>
            <Position>
              <LatitudeDegrees>44.20128333382308483123779296875</LatitudeDegrees>
              <LongitudeDegrees>-1.07072719372808933258056640625</LongitudeDegrees>
            </Position>
            <AltitudeMeters>69.1999969482421875</AltitudeMeters>
            <DistanceMeters>NAN</DistanceMeters>
          </Trackpoint>
          <Trackpoint>
            <Time>2022-07-05T17:52:53.000Z</Time>
            <Position>
              <LatitudeDegrees>44.20093950815498828887939453125</LatitudeDegrees>
              <LongitudeDegrees>-1.07035906054079532623291015625</LongitudeDegrees>
            </Position>
            <AltitudeMeters>69.40000152587890625</AltitudeMeters>
            <DistanceMeters>NAN</DistanceMeters>
          </Trackpoint>
          <Trackpoint>
            <Time>2022-07-05T17:52:57.000Z</Time>
            <Position>
              <LatitudeDegrees>44.20080539770424365997314453125</LatitudeDegrees>
              <LongitudeDegrees>-1.07020030729472637176513671875</LongitudeDegrees>
            </Position>
            <AltitudeMeters>69</AltitudeMeters>
            <DistanceMeters>NAN</DistanceMeters>
          </Trackpoint>
          <Trackpoint>
            <Time>2022-07-05T17:52:59.000Z</Time>
            <Position>
              <LatitudeDegrees>44.20073582790791988372802734375</LatitudeDegrees>
              <LongitudeDegrees>-1.07012654654681682586669921875</LongitudeDegrees>
            </Position>
            <AltitudeMeters>69</AltitudeMeters>
            <DistanceMeters>NAN</DistanceMeters>
          </Trackpoint>
          <Trackpoint>
            <Time>2022-07-05T17:53:10.000Z</Time>
            <Position>
              <LatitudeDegrees>44.20034992508590221405029296875</LatitudeDegrees>
              <LongitudeDegrees>-1.0697140730917453765869140625</LongitudeDegrees>
            </Position>
            <AltitudeMeters>69.1999969482421875</AltitudeMeters>
            <DistanceMeters>NAN</DistanceMeters>
          </Trackpoint>
          <Trackpoint>
            <Time>2022-07-05T17:53:20.000Z</Time>
            <Position>
              <LatitudeDegrees>44.199997968971729278564453125</LatitudeDegrees>
              <LongitudeDegrees>-1.06934241950511932373046875</LongitudeDegrees>
            </Position>
            <AltitudeMeters>69.40000152587890625</AltitudeMeters>
            <DistanceMeters>NAN</DistanceMeters>
          </Trackpoint>
          <Trackpoint>
            <Time>2022-07-05T17:53:29.000Z</Time>
            <Position>
              <LatitudeDegrees>44.19967685826122760772705078125</LatitudeDegrees>
              <LongitudeDegrees>-1.06899163685739040374755859375</LongitudeDegrees>
            </Position>
            <AltitudeMeters>69.59999847412109375</AltitudeMeters>
            <DistanceMeters>NAN</DistanceMeters>
          </Trackpoint>
          <Trackpoint>
            <Time>2022-07-05T17:53:31.000Z</Time>
            <Position>
              <LatitudeDegrees>44.19960536062717437744140625</LatitudeDegrees>
              <LongitudeDegrees>-1.06890656054019927978515625</LongitudeDegrees>
            </Position>
            <AltitudeMeters>69.1999969482421875</AltitudeMeters>
            <DistanceMeters>NAN</DistanceMeters>
          </Trackpoint>
          <Trackpoint>
            <Time>2022-07-05T17:53:34.000Z</Time>
            <Position>
              <LatitudeDegrees>44.19949664734303951263427734375</LatitudeDegrees>
              <LongitudeDegrees>-1.06879885308444499969482421875</LongitudeDegrees>
            </Position>
            <AltitudeMeters>69.1999969482421875</AltitudeMeters>
            <DistanceMeters>NAN</DistanceMeters>
          </Trackpoint>
          <Trackpoint>
            <Time>2022-07-05T17:53:42.000Z</Time>
            <Position>
              <LatitudeDegrees>44.19920462183654308319091796875</LatitudeDegrees>
              <LongitudeDegrees>-1.06851621530950069427490234375</LongitudeDegrees>
            </Position>
            <AltitudeMeters>69.1999969482421875</AltitudeMeters>
            <DistanceMeters>NAN</DistanceMeters>
          </Trackpoint>
          <Trackpoint>
            <Time>2022-07-05T17:53:44.000Z</Time>
            <Position>
              <LatitudeDegrees>44.1991384886205196380615234375</LatitudeDegrees>
              <LongitudeDegrees>-1.0684453882277011871337890625</LongitudeDegrees>
            </Position>
            <AltitudeMeters>69.40000152587890625</AltitudeMeters>
            <DistanceMeters>NAN</DistanceMeters>
          </Trackpoint>
          <Trackpoint>
            <Time>2022-07-05T17:53:45.000Z</Time>
            <Position>
              <LatitudeDegrees>44.19910437427461147308349609375</LatitudeDegrees>
              <LongitudeDegrees>-1.06840540654957294464111328125</LongitudeDegrees>
            </Position>
            <AltitudeMeters>69.40000152587890625</AltitudeMeters>
            <DistanceMeters>NAN</DistanceMeters>
          </Trackpoint>
          <Trackpoint>
            <Time>2022-07-05T17:53:48.000Z</Time>
            <Position>
              <LatitudeDegrees>44.199003875255584716796875</LatitudeDegrees>
              <LongitudeDegrees>-1.06829225085675716400146484375</LongitudeDegrees>
            </Position>
            <AltitudeMeters>69.59999847412109375</AltitudeMeters>
            <DistanceMeters>NAN</DistanceMeters>
          </Trackpoint>
          <Trackpoint>
            <Time>2022-07-05T17:53:55.000Z</Time>
            <Position>
              <LatitudeDegrees>44.1987716965377330780029296875</LatitudeDegrees>
              <LongitudeDegrees>-1.06804146431386470794677734375</LongitudeDegrees>
            </Position>
            <AltitudeMeters>69.59999847412109375</AltitudeMeters>
            <DistanceMeters>NAN</DistanceMeters>
          </Trackpoint>
          <Trackpoint>
            <Time>2022-07-05T17:54:04.000Z</Time>
            <Position>
              <LatitudeDegrees>44.19844656251370906829833984375</LatitudeDegrees>
              <LongitudeDegrees>-1.06771389953792095184326171875</LongitudeDegrees>
            </Position>
            <AltitudeMeters>69.59999847412109375</AltitudeMeters>
            <DistanceMeters>NAN</DistanceMeters>
          </Trackpoint>
          <Trackpoint>
            <Time>2022-07-05T17:54:10.000Z</Time>
            <Position>
              <LatitudeDegrees>44.19825159944593906402587890625</LatitudeDegrees>
              <LongitudeDegrees>-1.0675079561769962310791015625</LongitudeDegrees>
            </Position>
            <AltitudeMeters>70</AltitudeMeters>
            <DistanceMeters>NAN</DistanceMeters>
          </Trackpoint>
          <Trackpoint>
            <Time>2022-07-05T17:54:11.000Z</Time>
            <Position>
              <LatitudeDegrees>44.1982198320329189300537109375</LatitudeDegrees>
              <LongitudeDegrees>-1.0674687288701534271240234375</LongitudeDegrees>
            </Position>
            <AltitudeMeters>70</AltitudeMeters>
            <DistanceMeters>NAN</DistanceMeters>
          </Trackpoint>
          <Trackpoint>
            <Time>2022-07-05T17:54:12.000Z</Time>
            <Position>
              <LatitudeDegrees>44.1981889866292476654052734375</LatitudeDegrees>
              <LongitudeDegrees>-1.06742740608751773834228515625</LongitudeDegrees>
            </Position>
            <AltitudeMeters>70</AltitudeMeters>
            <DistanceMeters>NAN</DistanceMeters>
          </Trackpoint>
          <Trackpoint>
            <Time>2022-07-05T17:54:14.000Z</Time>
            <Position>
              <LatitudeDegrees>44.19812352396547794342041015625</LatitudeDegrees>
              <LongitudeDegrees>-1.067350544035434722900390625</LongitudeDegrees>
            </Position>
            <AltitudeMeters>70.1999969482421875</AltitudeMeters>
            <DistanceMeters>NAN</DistanceMeters>
          </Trackpoint>
          <Trackpoint>
            <Time>2022-07-05T17:54:22.000Z</Time>
            <Position>
              <LatitudeDegrees>44.19785865582525730133056640625</LatitudeDegrees>
              <LongitudeDegrees>-1.06706949882209300994873046875</LongitudeDegrees>
            </Position>
            <AltitudeMeters>70.40000152587890625</AltitudeMeters>
            <DistanceMeters>NAN</DistanceMeters>
          </Trackpoint>
          <Trackpoint>
            <Time>2022-07-05T17:54:28.000Z</Time>
            <Position>
              <LatitudeDegrees>44.19769872911274433135986328125</LatitudeDegrees>
              <LongitudeDegrees>-1.06686900369822978973388671875</LongitudeDegrees>
            </Position>
            <AltitudeMeters>70.40000152587890625</AltitudeMeters>
            <DistanceMeters>NAN</DistanceMeters>
          </Trackpoint>
          <Trackpoint>
            <Time>2022-07-05T17:54:38.000Z</Time>
            <Position>
              <LatitudeDegrees>44.19738675467669963836669921875</LatitudeDegrees>
              <LongitudeDegrees>-1.06651143170893192291259765625</LongitudeDegrees>
            </Position>
            <AltitudeMeters>70.59999847412109375</AltitudeMeters>
            <DistanceMeters>NAN</DistanceMeters>
          </Trackpoint>
          <Trackpoint>
            <Time>2022-07-05T17:54:48.000Z</Time>
            <Position>
              <LatitudeDegrees>44.19707243330776691436767578125</LatitudeDegrees>
              <LongitudeDegrees>-1.06616894714534282684326171875</LongitudeDegrees>
            </Position>
            <AltitudeMeters>70.8000030517578125</AltitudeMeters>
            <DistanceMeters>NAN</DistanceMeters>
          </Trackpoint>
          <Trackpoint>
            <Time>2022-07-05T17:54:53.000Z</Time>
            <Position>
              <LatitudeDegrees>44.1970068030059337615966796875</LatitudeDegrees>
              <LongitudeDegrees>-1.066024862229824066162109375</LongitudeDegrees>
            </Position>
            <AltitudeMeters>71</AltitudeMeters>
            <DistanceMeters>NAN</DistanceMeters>
          </Trackpoint>
          <Trackpoint>
            <Time>2022-07-05T17:54:55.000Z</Time>
            <Position>
              <LatitudeDegrees>44.19696061871945858001708984375</LatitudeDegrees>
              <LongitudeDegrees>-1.0659636743366718292236328125</LongitudeDegrees>
            </Position>
            <AltitudeMeters>71.1999969482421875</AltitudeMeters>
            <DistanceMeters>NAN</DistanceMeters>
          </Trackpoint>
          <Trackpoint>
            <Time>2022-07-05T17:54:59.000Z</Time>
            <Position>
              <LatitudeDegrees>44.19680639170110225677490234375</LatitudeDegrees>
              <LongitudeDegrees>-1.0658339224755764007568359375</LongitudeDegrees>
            </Position>
            <AltitudeMeters>71.40000152587890625</AltitudeMeters>
            <DistanceMeters>NAN</DistanceMeters>
          </Trackpoint>
          <Trackpoint>
            <Time>2022-07-05T17:55:03.000Z</Time>
            <Position>
              <LatitudeDegrees>44.1966862790286540985107421875</LatitudeDegrees>
              <LongitudeDegrees>-1.06568899936974048614501953125</LongitudeDegrees>
            </Position>
            <AltitudeMeters>71.40000152587890625</AltitudeMeters>
            <DistanceMeters>NAN</DistanceMeters>
          </Trackpoint>
          <Trackpoint>
            <Time>2022-07-05T17:55:09.000Z</Time>
            <Position>
              <LatitudeDegrees>44.1965072415769100189208984375</LatitudeDegrees>
              <LongitudeDegrees>-1.06552437879145145416259765625</LongitudeDegrees>
            </Position>
            <AltitudeMeters>71.8000030517578125</AltitudeMeters>
            <DistanceMeters>NAN</DistanceMeters>
          </Trackpoint>
          <Trackpoint>
            <Time>2022-07-05T17:55:13.000Z</Time>
            <Position>
              <LatitudeDegrees>44.19639366678893566131591796875</LatitudeDegrees>
              <LongitudeDegrees>-1.06538641266524791717529296875</LongitudeDegrees>
            </Position>
            <AltitudeMeters>72</AltitudeMeters>
            <DistanceMeters>NAN</DistanceMeters>
          </Trackpoint>
          <Trackpoint>
            <Time>2022-07-05T17:55:21.000Z</Time>
            <Position>
              <LatitudeDegrees>44.19610968790948390960693359375</LatitudeDegrees>
              <LongitudeDegrees>-1.06507695280015468597412109375</LongitudeDegrees>
            </Position>
            <AltitudeMeters>72.1999969482421875</AltitudeMeters>
            <DistanceMeters>NAN</DistanceMeters>
          </Trackpoint>
          <Trackpoint>
            <Time>2022-07-05T17:55:28.000Z</Time>
            <Position>
              <LatitudeDegrees>44.1959340870380401611328125</LatitudeDegrees>
              <LongitudeDegrees>-1.06483689509332180023193359375</LongitudeDegrees>
            </Position>
            <AltitudeMeters>72.1999969482421875</AltitudeMeters>
            <DistanceMeters>NAN</DistanceMeters>
          </Trackpoint>
          <Trackpoint>
            <Time>2022-07-05T17:55:29.000Z</Time>
            <Position>
              <LatitudeDegrees>44.19591355137526988983154296875</LatitudeDegrees>
              <LongitudeDegrees>-1.06479548849165439605712890625</LongitudeDegrees>
            </Position>
            <AltitudeMeters>72.40000152587890625</AltitudeMeters>
            <DistanceMeters>NAN</DistanceMeters>
          </Trackpoint>
          <Trackpoint>
            <Time>2022-07-05T17:55:37.000Z</Time>
            <Position>
              <LatitudeDegrees>44.19574507512152194976806640625</LatitudeDegrees>
              <LongitudeDegrees>-1.064455099403858184814453125</LongitudeDegrees>
            </Position>
            <AltitudeMeters>72.59999847412109375</AltitudeMeters>
            <DistanceMeters>NAN</DistanceMeters>
          </Trackpoint>
          <Trackpoint>
            <Time>2022-07-05T17:55:46.000Z</Time>
            <Position>
              <LatitudeDegrees>44.19555832631886005401611328125</LatitudeDegrees>
              <LongitudeDegrees>-1.06399602256715297698974609375</LongitudeDegrees>
            </Position>
            <AltitudeMeters>72.59999847412109375</AltitudeMeters>
            <DistanceMeters>NAN</DistanceMeters>
          </Trackpoint>
          <Trackpoint>
            <Time>2022-07-05T17:55:54.000Z</Time>
            <Position>
              <LatitudeDegrees>44.19539085589349269866943359375</LatitudeDegrees>
              <LongitudeDegrees>-1.0636063478887081146240234375</LongitudeDegrees>
            </Position>
            <AltitudeMeters>73</AltitudeMeters>
            <DistanceMeters>NAN</DistanceMeters>
          </Trackpoint>
          <Trackpoint>
            <Time>2022-07-05T17:55:57.000Z</Time>
            <Position>
              <LatitudeDegrees>44.19533486478030681610107421875</LatitudeDegrees>
              <LongitudeDegrees>-1.06346092186868190765380859375</LongitudeDegrees>
            </Position>
            <AltitudeMeters>73.1999969482421875</AltitudeMeters>
            <DistanceMeters>NAN</DistanceMeters>
          </Trackpoint>
          <Trackpoint>
            <Time>2022-07-05T17:55:59.000Z</Time>
            <Position>
              <LatitudeDegrees>44.19529505074024200439453125</LatitudeDegrees>
              <LongitudeDegrees>-1.06336201541125774383544921875</LongitudeDegrees>
            </Position>
            <AltitudeMeters>73.1999969482421875</AltitudeMeters>
            <DistanceMeters>NAN</DistanceMeters>
          </Trackpoint>
          <Trackpoint>
            <Time>2022-07-05T17:56:00.000Z</Time>
            <Position>
              <LatitudeDegrees>44.19526864774525165557861328125</LatitudeDegrees>
              <LongitudeDegrees>-1.06331541202962398529052734375</LongitudeDegrees>
            </Position>
            <AltitudeMeters>73.1999969482421875</AltitudeMeters>
            <DistanceMeters>NAN</DistanceMeters>
          </Trackpoint>
          <Trackpoint>
            <Time>2022-07-05T17:56:02.000Z</Time>
            <Position>
              <LatitudeDegrees>44.19522397220134735107421875</LatitudeDegrees>
              <LongitudeDegrees>-1.0632248036563396453857421875</LongitudeDegrees>
            </Position>
            <AltitudeMeters>73.1999969482421875</AltitudeMeters>
            <DistanceMeters>NAN</DistanceMeters>
          </Trackpoint>
          <Trackpoint>
            <Time>2022-07-05T17:56:04.000Z</Time>
            <Position>
              <LatitudeDegrees>44.19518130831420421600341796875</LatitudeDegrees>
              <LongitudeDegrees>-1.06313184835016727447509765625</LongitudeDegrees>
            </Position>
            <AltitudeMeters>73.1999969482421875</AltitudeMeters>
            <DistanceMeters>NAN</DistanceMeters>
          </Trackpoint>
          <Trackpoint>
            <Time>2022-07-05T17:56:06.000Z</Time>
            <Position>
              <LatitudeDegrees>44.19513923116028308868408203125</LatitudeDegrees>
              <LongitudeDegrees>-1.063036210834980010986328125</LongitudeDegrees>
            </Position>
            <AltitudeMeters>73.40000152587890625</AltitudeMeters>
            <DistanceMeters>NAN</DistanceMeters>
          </Trackpoint>
          <Trackpoint>
            <Time>2022-07-05T17:56:07.000Z</Time>
            <Position>
              <LatitudeDegrees>44.19511861167848110198974609375</LatitudeDegrees>
              <LongitudeDegrees>-1.0629870928823947906494140625</LongitudeDegrees>
            </Position>
            <AltitudeMeters>73.40000152587890625</AltitudeMeters>
            <DistanceMeters>NAN</DistanceMeters>
          </Trackpoint>
          <Trackpoint>
            <Time>2022-07-05T17:56:11.000Z</Time>
            <Position>
              <LatitudeDegrees>44.19503076933324337005615234375</LatitudeDegrees>
              <LongitudeDegrees>-1.062779389321804046630859375</LongitudeDegrees>
            </Position>
            <AltitudeMeters>73.59999847412109375</AltitudeMeters>
            <DistanceMeters>NAN</DistanceMeters>
          </Trackpoint>
          <Trackpoint>
            <Time>2022-07-05T17:56:17.000Z</Time>
            <Position>
              <LatitudeDegrees>44.19486983679234981536865234375</LatitudeDegrees>
              <LongitudeDegrees>-1.062457859516143798828125</LongitudeDegrees>
            </Position>
            <AltitudeMeters>73.59999847412109375</AltitudeMeters>
            <DistanceMeters>NAN</DistanceMeters>
          </Trackpoint>
          <Trackpoint>
            <Time>2022-07-05T17:56:23.000Z</Time>
            <Position>
              <LatitudeDegrees>44.1947188787162303924560546875</LatitudeDegrees>
              <LongitudeDegrees>-1.06214731000363826751708984375</LongitudeDegrees>
            </Position>
            <AltitudeMeters>74.1999969482421875</AltitudeMeters>
            <DistanceMeters>NAN</DistanceMeters>
          </Trackpoint>
          <Trackpoint>
            <Time>2022-07-05T17:56:26.000Z</Time>
            <Position>
              <LatitudeDegrees>44.19464595615863800048828125</LatitudeDegrees>
              <LongitudeDegrees>-1.06199207715690135955810546875</LongitudeDegrees>
            </Position>
            <AltitudeMeters>74.40000152587890625</AltitudeMeters>
            <DistanceMeters>NAN</DistanceMeters>
          </Trackpoint>
          <Trackpoint>
            <Time>2022-07-05T17:56:36.000Z</Time>
            <Position>
              <LatitudeDegrees>44.19441662728786468505859375</LatitudeDegrees>
              <LongitudeDegrees>-1.06146418489515781402587890625</LongitudeDegrees>
            </Position>
            <AltitudeMeters>74.1999969482421875</AltitudeMeters>
            <DistanceMeters>NAN</DistanceMeters>
          </Trackpoint>
          <Trackpoint>
            <Time>2022-07-05T17:56:49.000Z</Time>
            <Position>
              <LatitudeDegrees>44.19412619434297084808349609375</LatitudeDegrees>
              <LongitudeDegrees>-1.06076982803642749786376953125</LongitudeDegrees>
            </Position>
            <AltitudeMeters>74.40000152587890625</AltitudeMeters>
            <DistanceMeters>NAN</DistanceMeters>
          </Trackpoint>
          <Trackpoint>
            <Time>2022-07-05T17:56:54.000Z</Time>
            <Position>
              <LatitudeDegrees>44.19399552047252655029296875</LatitudeDegrees>
              <LongitudeDegrees>-1.06050454080104827880859375</LongitudeDegrees>
            </Position>
            <AltitudeMeters>74.59999847412109375</AltitudeMeters>
            <DistanceMeters>NAN</DistanceMeters>
          </Trackpoint>
          <Trackpoint>
            <Time>2022-07-05T17:56:55.000Z</Time>
            <Position>
              <LatitudeDegrees>44.1939685307443141937255859375</LatitudeDegrees>
              <LongitudeDegrees>-1.06045500375330448150634765625</LongitudeDegrees>
            </Position>
            <AltitudeMeters>74.59999847412109375</AltitudeMeters>
            <DistanceMeters>NAN</DistanceMeters>
          </Trackpoint>
          <Trackpoint>
            <Time>2022-07-05T17:56:58.000Z</Time>
            <Position>
              <LatitudeDegrees>44.1938930936157703399658203125</LatitudeDegrees>
              <LongitudeDegrees>-1.0603001900017261505126953125</LongitudeDegrees>
            </Position>
            <AltitudeMeters>74.59999847412109375</AltitudeMeters>
            <DistanceMeters>NAN</DistanceMeters>
          </Trackpoint>
          <Trackpoint>
            <Time>2022-07-05T17:57:01.000Z</Time>
            <Position>
              <LatitudeDegrees>44.19383014552295207977294921875</LatitudeDegrees>
              <LongitudeDegrees>-1.06013766489923000335693359375</LongitudeDegrees>
            </Position>
            <AltitudeMeters>74.59999847412109375</AltitudeMeters>
            <DistanceMeters>NAN</DistanceMeters>
          </Trackpoint>
          <Trackpoint>
            <Time>2022-07-05T17:57:08.000Z</Time>
            <Position>
              <LatitudeDegrees>44.193681366741657257080078125</LatitudeDegrees>
              <LongitudeDegrees>-1.0597796738147735595703125</LongitudeDegrees>
            </Position>
            <AltitudeMeters>74.59999847412109375</AltitudeMeters>
            <DistanceMeters>NAN</DistanceMeters>
          </Trackpoint>
          <Trackpoint>
            <Time>2022-07-05T17:57:18.000Z</Time>
            <Position>
              <LatitudeDegrees>44.19344591908156871795654296875</LatitudeDegrees>
              <LongitudeDegrees>-1.05929612182080745697021484375</LongitudeDegrees>
            </Position>
            <AltitudeMeters>74.8000030517578125</AltitudeMeters>
            <DistanceMeters>NAN</DistanceMeters>
          </Trackpoint>
          <Trackpoint>
            <Time>2022-07-05T17:57:26.000Z</Time>
            <Position>
              <LatitudeDegrees>44.193279035389423370361328125</LatitudeDegrees>
              <LongitudeDegrees>-1.05889680795371532440185546875</LongitudeDegrees>
            </Position>
            <AltitudeMeters>75.1999969482421875</AltitudeMeters>
            <DistanceMeters>NAN</DistanceMeters>
          </Trackpoint>
          <Trackpoint>
            <Time>2022-07-05T17:57:33.000Z</Time>
            <Position>
              <LatitudeDegrees>44.19311064295470714569091796875</LatitudeDegrees>
              <LongitudeDegrees>-1.05854661203920841217041015625</LongitudeDegrees>
            </Position>
            <AltitudeMeters>74.59999847412109375</AltitudeMeters>
            <DistanceMeters>NAN</DistanceMeters>
          </Trackpoint>
          <Trackpoint>
            <Time>2022-07-05T17:57:41.000Z</Time>
            <Position>
              <LatitudeDegrees>44.19293462298810482025146484375</LatitudeDegrees>
              <LongitudeDegrees>-1.05816431343555450439453125</LongitudeDegrees>
            </Position>
            <AltitudeMeters>74.8000030517578125</AltitudeMeters>
            <DistanceMeters>NAN</DistanceMeters>
          </Trackpoint>
          <Trackpoint>
            <Time>2022-07-05T17:57:44.000Z</Time>
            <Position>
              <LatitudeDegrees>44.19286740012466907501220703125</LatitudeDegrees>
              <LongitudeDegrees>-1.05801972560584545135498046875</LongitudeDegrees>
            </Position>
            <AltitudeMeters>74.8000030517578125</AltitudeMeters>
            <DistanceMeters>NAN</DistanceMeters>
          </Trackpoint>
          <Trackpoint>
            <Time>2022-07-05T17:57:48.000Z</Time>
            <Position>
              <LatitudeDegrees>44.19276170432567596435546875</LatitudeDegrees>
              <LongitudeDegrees>-1.05783683247864246368408203125</LongitudeDegrees>
            </Position>
            <AltitudeMeters>75.1999969482421875</AltitudeMeters>
            <DistanceMeters>NAN</DistanceMeters>
          </Trackpoint>
          <Trackpoint>
            <Time>2022-07-05T17:57:49.000Z</Time>
            <Position>
              <LatitudeDegrees>44.19273756444454193115234375</LatitudeDegrees>
              <LongitudeDegrees>-1.05778302066028118133544921875</LongitudeDegrees>
            </Position>
            <AltitudeMeters>75.1999969482421875</AltitudeMeters>
            <DistanceMeters>NAN</DistanceMeters>
          </Trackpoint>
          <Trackpoint>
            <Time>2022-07-05T17:57:50.000Z</Time>
            <Position>
              <LatitudeDegrees>44.1927135922014713287353515625</LatitudeDegrees>
              <LongitudeDegrees>-1.05772635899484157562255859375</LongitudeDegrees>
            </Position>
            <AltitudeMeters>75.1999969482421875</AltitudeMeters>
            <DistanceMeters>NAN</DistanceMeters>
          </Trackpoint>
          <Trackpoint>
            <Time>2022-07-05T17:57:51.000Z</Time>
            <Position>
              <LatitudeDegrees>44.1926907934248447418212890625</LatitudeDegrees>
              <LongitudeDegrees>-1.0576743073761463165283203125</LongitudeDegrees>
            </Position>
            <AltitudeMeters>75.1999969482421875</AltitudeMeters>
            <DistanceMeters>NAN</DistanceMeters>
          </Trackpoint>
          <Trackpoint>
            <Time>2022-07-05T17:57:54.000Z</Time>
            <Position>
              <LatitudeDegrees>44.1926264204084873199462890625</LatitudeDegrees>
              <LongitudeDegrees>-1.05752485804259777069091796875</LongitudeDegrees>
            </Position>
            <AltitudeMeters>75.40000152587890625</AltitudeMeters>
            <DistanceMeters>NAN</DistanceMeters>
          </Trackpoint>
          <Trackpoint>
            <Time>2022-07-05T17:58:02.000Z</Time>
            <Position>
              <LatitudeDegrees>44.1924550943076610565185546875</LatitudeDegrees>
              <LongitudeDegrees>-1.05711632408201694488525390625</LongitudeDegrees>
            </Position>
            <AltitudeMeters>75.40000152587890625</AltitudeMeters>
            <DistanceMeters>NAN</DistanceMeters>
          </Trackpoint>
          <Trackpoint>
            <Time>2022-07-05T17:58:10.000Z</Time>
            <Position>
              <LatitudeDegrees>44.19228871352970600128173828125</LatitudeDegrees>
              <LongitudeDegrees>-1.0567197762429714202880859375</LongitudeDegrees>
            </Position>
            <AltitudeMeters>75.59999847412109375</AltitudeMeters>
            <DistanceMeters>NAN</DistanceMeters>
          </Trackpoint>
          <Trackpoint>
            <Time>2022-07-05T17:58:11.000Z</Time>
            <Position>
              <LatitudeDegrees>44.1922696866095066070556640625</LatitudeDegrees>
              <LongitudeDegrees>-1.056670658290386199951171875</LongitudeDegrees>
            </Position>
            <AltitudeMeters>75.59999847412109375</AltitudeMeters>
            <DistanceMeters>NAN</DistanceMeters>
          </Trackpoint>
          <Trackpoint>
            <Time>2022-07-05T17:58:19.000Z</Time>
            <Position>
              <LatitudeDegrees>44.19208738021552562713623046875</LatitudeDegrees>
              <LongitudeDegrees>-1.0562752000987529754638671875</LongitudeDegrees>
            </Position>
            <AltitudeMeters>76</AltitudeMeters>
            <DistanceMeters>NAN</DistanceMeters>
          </Trackpoint>
          <Trackpoint>
            <Time>2022-07-05T17:58:24.000Z</Time>
            <Position>
              <LatitudeDegrees>44.1919719614088535308837890625</LatitudeDegrees>
              <LongitudeDegrees>-1.0560401715338230133056640625</LongitudeDegrees>
            </Position>
            <AltitudeMeters>76</AltitudeMeters>
            <DistanceMeters>NAN</DistanceMeters>
          </Trackpoint>
          <Trackpoint>
            <Time>2022-07-05T17:58:26.000Z</Time>
            <Position>
              <LatitudeDegrees>44.191919155418872833251953125</LatitudeDegrees>
              <LongitudeDegrees>-1.0559496469795703887939453125</LongitudeDegrees>
            </Position>
            <AltitudeMeters>75.8000030517578125</AltitudeMeters>
            <DistanceMeters>NAN</DistanceMeters>
          </Trackpoint>
          <Trackpoint>
            <Time>2022-07-05T17:58:35.000Z</Time>
            <Position>
              <LatitudeDegrees>44.19164598919451236724853515625</LatitudeDegrees>
              <LongitudeDegrees>-1.0555872134864330291748046875</LongitudeDegrees>
            </Position>
            <AltitudeMeters>75.8000030517578125</AltitudeMeters>
            <DistanceMeters>NAN</DistanceMeters>
          </Trackpoint>
          <Trackpoint>
            <Time>2022-07-05T17:58:44.000Z</Time>
            <Position>
              <LatitudeDegrees>44.19134038500487804412841796875</LatitudeDegrees>
              <LongitudeDegrees>-1.05529745109379291534423828125</LongitudeDegrees>
            </Position>
            <AltitudeMeters>76.1999969482421875</AltitudeMeters>
            <DistanceMeters>NAN</DistanceMeters>
          </Trackpoint>
          <Trackpoint>
            <Time>2022-07-05T17:58:48.000Z</Time>
            <Position>
              <LatitudeDegrees>44.191207028925418853759765625</LatitudeDegrees>
              <LongitudeDegrees>-1.05518630705773830413818359375</LongitudeDegrees>
            </Position>
            <AltitudeMeters>76.1999969482421875</AltitudeMeters>
            <DistanceMeters>NAN</DistanceMeters>
          </Trackpoint>
          <Trackpoint>
            <Time>2022-07-05T17:58:51.000Z</Time>
            <Position>
              <LatitudeDegrees>44.19110334478318691253662109375</LatitudeDegrees>
              <LongitudeDegrees>-1.05509628541767597198486328125</LongitudeDegrees>
            </Position>
            <AltitudeMeters>76.1999969482421875</AltitudeMeters>
            <DistanceMeters>NAN</DistanceMeters>
          </Trackpoint>
          <Trackpoint>
            <Time>2022-07-05T17:58:52.000Z</Time>
            <Position>
              <LatitudeDegrees>44.1910680569708347320556640625</LatitudeDegrees>
              <LongitudeDegrees>-1.05506409890949726104736328125</LongitudeDegrees>
            </Position>
            <AltitudeMeters>76.1999969482421875</AltitudeMeters>
            <DistanceMeters>NAN</DistanceMeters>
          </Trackpoint>
          <Trackpoint>
            <Time>2022-07-05T17:58:53.000Z</Time>
            <Position>
              <LatitudeDegrees>44.19102966785430908203125</LatitudeDegrees>
              <LongitudeDegrees>-1.0550348460674285888671875</LongitudeDegrees>
            </Position>
            <AltitudeMeters>76.1999969482421875</AltitudeMeters>
            <DistanceMeters>NAN</DistanceMeters>
          </Trackpoint>
          <Trackpoint>
            <Time>2022-07-05T17:59:01.000Z</Time>
            <Position>
              <LatitudeDegrees>44.19074778445065021514892578125</LatitudeDegrees>
              <LongitudeDegrees>-1.054795123636722564697265625</LongitudeDegrees>
            </Position>
            <AltitudeMeters>76.8000030517578125</AltitudeMeters>
            <DistanceMeters>NAN</DistanceMeters>
          </Trackpoint>
          <Trackpoint>
            <Time>2022-07-05T17:59:06.000Z</Time>
            <Position>
              <LatitudeDegrees>44.19058115221560001373291015625</LatitudeDegrees>
              <LongitudeDegrees>-1.05465003289282321929931640625</LongitudeDegrees>
            </Position>
            <AltitudeMeters>76.1999969482421875</AltitudeMeters>
            <DistanceMeters>NAN</DistanceMeters>
          </Trackpoint>
          <Trackpoint>
            <Time>2022-07-05T17:59:10.000Z</Time>
            <Position>
              <LatitudeDegrees>44.19042793102562427520751953125</LatitudeDegrees>
              <LongitudeDegrees>-1.0545176826417446136474609375</LongitudeDegrees>
            </Position>
            <AltitudeMeters>76.1999969482421875</AltitudeMeters>
            <DistanceMeters>NAN</DistanceMeters>
          </Trackpoint>
          <Trackpoint>
            <Time>2022-07-05T17:59:20.000Z</Time>
            <Position>
              <LatitudeDegrees>44.19004060328006744384765625</LatitudeDegrees>
              <LongitudeDegrees>-1.05419330298900604248046875</LongitudeDegrees>
            </Position>
            <AltitudeMeters>76.8000030517578125</AltitudeMeters>
            <DistanceMeters>NAN</DistanceMeters>
          </Trackpoint>
          <Trackpoint>
            <Time>2022-07-05T17:59:28.000Z</Time>
            <Position>
              <LatitudeDegrees>44.18973005376756191253662109375</LatitudeDegrees>
              <LongitudeDegrees>-1.053929440677165985107421875</LongitudeDegrees>
            </Position>
            <AltitudeMeters>77</AltitudeMeters>
            <DistanceMeters>NAN</DistanceMeters>
          </Trackpoint>
          <Trackpoint>
            <Time>2022-07-05T17:59:37.000Z</Time>
            <Position>
              <LatitudeDegrees>44.18937742710113525390625</LatitudeDegrees>
              <LongitudeDegrees>-1.05363179929554462432861328125</LongitudeDegrees>
            </Position>
            <AltitudeMeters>77.1999969482421875</AltitudeMeters>
            <DistanceMeters>NAN</DistanceMeters>
          </Trackpoint>
          <Trackpoint>
            <Time>2022-07-05T17:59:39.000Z</Time>
            <Position>
              <LatitudeDegrees>44.189302660524845123291015625</LatitudeDegrees>
              <LongitudeDegrees>-1.05356491170823574066162109375</LongitudeDegrees>
            </Position>
            <AltitudeMeters>77.40000152587890625</AltitudeMeters>
            <DistanceMeters>NAN</DistanceMeters>
          </Trackpoint>
          <Trackpoint>
            <Time>2022-07-05T17:59:41.000Z</Time>
            <Position>
              <LatitudeDegrees>44.18922680430114269256591796875</LatitudeDegrees>
              <LongitudeDegrees>-1.0534987784922122955322265625</LongitudeDegrees>
            </Position>
            <AltitudeMeters>77.59999847412109375</AltitudeMeters>
            <DistanceMeters>NAN</DistanceMeters>
          </Trackpoint>
          <Trackpoint>
            <Time>2022-07-05T17:59:44.000Z</Time>
            <Position>
              <LatitudeDegrees>44.1891133971512317657470703125</LatitudeDegrees>
              <LongitudeDegrees>-1.05339777655899524688720703125</LongitudeDegrees>
            </Position>
            <AltitudeMeters>77.59999847412109375</AltitudeMeters>
            <DistanceMeters>NAN</DistanceMeters>
          </Trackpoint>
          <Trackpoint>
            <Time>2022-07-05T17:59:48.000Z</Time>
            <Position>
              <LatitudeDegrees>44.18897534720599651336669921875</LatitudeDegrees>
              <LongitudeDegrees>-1.05326534248888492584228515625</LongitudeDegrees>
            </Position>
            <AltitudeMeters>77.59999847412109375</AltitudeMeters>
            <DistanceMeters>NAN</DistanceMeters>
          </Trackpoint>
          <Trackpoint>
            <Time>2022-07-05T17:59:52.000Z</Time>
            <Position>
              <LatitudeDegrees>44.1888270713388919830322265625</LatitudeDegrees>
              <LongitudeDegrees>-1.0531457327306270599365234375</LongitudeDegrees>
            </Position>
            <AltitudeMeters>77.59999847412109375</AltitudeMeters>
            <DistanceMeters>NAN</DistanceMeters>
          </Trackpoint>
          <Trackpoint>
            <Time>2022-07-05T17:59:54.000Z</Time>
            <Position>
              <LatitudeDegrees>44.1887559927999973297119140625</LatitudeDegrees>
              <LongitudeDegrees>-1.0530857183039188385009765625</LongitudeDegrees>
            </Position>
            <AltitudeMeters>77.59999847412109375</AltitudeMeters>
            <DistanceMeters>NAN</DistanceMeters>
          </Trackpoint>
          <Trackpoint>
            <Time>2022-07-05T17:59:59.000Z</Time>
            <Position>
              <LatitudeDegrees>44.18856480158865451812744140625</LatitudeDegrees>
              <LongitudeDegrees>-1.0529281385242938995361328125</LongitudeDegrees>
            </Position>
            <AltitudeMeters>77.8000030517578125</AltitudeMeters>
            <DistanceMeters>NAN</DistanceMeters>
          </Trackpoint>
          <Trackpoint>
            <Time>2022-07-05T18:00:06.000Z</Time>
            <Position>
              <LatitudeDegrees>44.18831820599734783172607421875</LatitudeDegrees>
              <LongitudeDegrees>-1.0526884160935878753662109375</LongitudeDegrees>
            </Position>
            <AltitudeMeters>77.8000030517578125</AltitudeMeters>
            <DistanceMeters>NAN</DistanceMeters>
          </Trackpoint>
          <Trackpoint>
            <Time>2022-07-05T18:00:11.000Z</Time>
            <Position>
              <LatitudeDegrees>44.1881382465362548828125</LatitudeDegrees>
              <LongitudeDegrees>-1.0525341890752315521240234375</LongitudeDegrees>
            </Position>
            <AltitudeMeters>77.8000030517578125</AltitudeMeters>
            <DistanceMeters>NAN</DistanceMeters>
          </Trackpoint>
          <Trackpoint>
            <Time>2022-07-05T18:00:13.000Z</Time>
            <Position>
              <LatitudeDegrees>44.1880646534264087677001953125</LatitudeDegrees>
              <LongitudeDegrees>-1.0524748452007770538330078125</LongitudeDegrees>
            </Position>
            <AltitudeMeters>77.8000030517578125</AltitudeMeters>
            <DistanceMeters>NAN</DistanceMeters>
          </Trackpoint>
          <Trackpoint>
            <Time>2022-07-05T18:00:18.000Z</Time>
            <Position>
              <LatitudeDegrees>44.187891483306884765625</LatitudeDegrees>
              <LongitudeDegrees>-1.052304692566394805908203125</LongitudeDegrees>
            </Position>
            <AltitudeMeters>77.59999847412109375</AltitudeMeters>
            <DistanceMeters>NAN</DistanceMeters>
          </Trackpoint>
          <Trackpoint>
            <Time>2022-07-05T18:00:21.000Z</Time>
            <Position>
              <LatitudeDegrees>44.187785200774669647216796875</LatitudeDegrees>
              <LongitudeDegrees>-1.05221383273601531982421875</LongitudeDegrees>
            </Position>
            <AltitudeMeters>77.59999847412109375</AltitudeMeters>
            <DistanceMeters>NAN</DistanceMeters>
          </Trackpoint>
          <Trackpoint>
            <Time>2022-07-05T18:00:24.000Z</Time>
            <Position>
              <LatitudeDegrees>44.1876727156341075897216796875</LatitudeDegrees>
              <LongitudeDegrees>-1.05212942697107791900634765625</LongitudeDegrees>
            </Position>
            <AltitudeMeters>77.59999847412109375</AltitudeMeters>
            <DistanceMeters>NAN</DistanceMeters>
          </Trackpoint>
          <Trackpoint>
            <Time>2022-07-05T18:00:28.000Z</Time>
            <Position>
              <LatitudeDegrees>44.1875205002725124359130859375</LatitudeDegrees>
              <LongitudeDegrees>-1.05201811529695987701416015625</LongitudeDegrees>
            </Position>
            <AltitudeMeters>77.40000152587890625</AltitudeMeters>
            <DistanceMeters>NAN</DistanceMeters>
          </Trackpoint>
          <Trackpoint>
            <Time>2022-07-05T18:00:29.000Z</Time>
            <Position>
              <LatitudeDegrees>44.187494851648807525634765625</LatitudeDegrees>
              <LongitudeDegrees>-1.05199330486357212066650390625</LongitudeDegrees>
            </Position>
            <AltitudeMeters>77.40000152587890625</AltitudeMeters>
            <DistanceMeters>NAN</DistanceMeters>
          </Trackpoint>
          <Trackpoint>
            <Time>2022-07-05T18:00:37.000Z</Time>
            <Position>
              <LatitudeDegrees>44.18722503818571567535400390625</LatitudeDegrees>
              <LongitudeDegrees>-1.05173748917877674102783203125</LongitudeDegrees>
            </Position>
            <AltitudeMeters>77.8000030517578125</AltitudeMeters>
            <DistanceMeters>NAN</DistanceMeters>
          </Trackpoint>
          <Trackpoint>
            <Time>2022-07-05T18:00:47.000Z</Time>
            <Position>
              <LatitudeDegrees>44.18685254640877246856689453125</LatitudeDegrees>
              <LongitudeDegrees>-1.05143808759748935699462890625</LongitudeDegrees>
            </Position>
            <AltitudeMeters>78.1999969482421875</AltitudeMeters>
            <DistanceMeters>NAN</DistanceMeters>
          </Trackpoint>
          <Trackpoint>
            <Time>2022-07-05T18:00:53.000Z</Time>
            <Position>
              <LatitudeDegrees>44.186622463166713714599609375</LatitudeDegrees>
              <LongitudeDegrees>-1.05125200934708118438720703125</LongitudeDegrees>
            </Position>
            <AltitudeMeters>78</AltitudeMeters>
            <DistanceMeters>NAN</DistanceMeters>
          </Trackpoint>
          <Trackpoint>
            <Time>2022-07-05T18:00:54.000Z</Time>
            <Position>
              <LatitudeDegrees>44.18657661415636539459228515625</LatitudeDegrees>
              <LongitudeDegrees>-1.05120892636477947235107421875</LongitudeDegrees>
            </Position>
            <AltitudeMeters>78</AltitudeMeters>
            <DistanceMeters>NAN</DistanceMeters>
          </Trackpoint>
          <Trackpoint>
            <Time>2022-07-05T18:00:56.000Z</Time>
            <Position>
              <LatitudeDegrees>44.18650436215102672576904296875</LatitudeDegrees>
              <LongitudeDegrees>-1.05114103294909000396728515625</LongitudeDegrees>
            </Position>
            <AltitudeMeters>78</AltitudeMeters>
            <DistanceMeters>NAN</DistanceMeters>
          </Trackpoint>
          <Trackpoint>
            <Time>2022-07-05T18:00:58.000Z</Time>
            <Position>
              <LatitudeDegrees>44.18643177486956119537353515625</LatitudeDegrees>
              <LongitudeDegrees>-1.0510740615427494049072265625</LongitudeDegrees>
            </Position>
            <AltitudeMeters>78</AltitudeMeters>
            <DistanceMeters>NAN</DistanceMeters>
          </Trackpoint>
          <Trackpoint>
            <Time>2022-07-05T18:00:59.000Z</Time>
            <Position>
              <LatitudeDegrees>44.1863946430385112762451171875</LatitudeDegrees>
              <LongitudeDegrees>-1.05104506015777587890625</LongitudeDegrees>
            </Position>
            <AltitudeMeters>78</AltitudeMeters>
            <DistanceMeters>NAN</DistanceMeters>
          </Trackpoint>
          <Trackpoint>
            <Time>2022-07-05T18:01:01.000Z</Time>
            <Position>
              <LatitudeDegrees>44.18632565997540950775146484375</LatitudeDegrees>
              <LongitudeDegrees>-1.05097523890435695648193359375</LongitudeDegrees>
            </Position>
            <AltitudeMeters>78</AltitudeMeters>
            <DistanceMeters>NAN</DistanceMeters>
          </Trackpoint>
          <Trackpoint>
            <Time>2022-07-05T18:01:05.000Z</Time>
            <Position>
              <LatitudeDegrees>44.1861716844141483306884765625</LatitudeDegrees>
              <LongitudeDegrees>-1.05084364302456378936767578125</LongitudeDegrees>
            </Position>
            <AltitudeMeters>78.1999969482421875</AltitudeMeters>
            <DistanceMeters>NAN</DistanceMeters>
          </Trackpoint>
          <Trackpoint>
            <Time>2022-07-05T18:01:06.000Z</Time>
            <Position>
              <LatitudeDegrees>44.1861354745924472808837890625</LatitudeDegrees>
              <LongitudeDegrees>-1.05080676265060901641845703125</LongitudeDegrees>
            </Position>
            <AltitudeMeters>78.1999969482421875</AltitudeMeters>
            <DistanceMeters>NAN</DistanceMeters>
          </Trackpoint>
          <Trackpoint>
            <Time>2022-07-05T18:01:07.000Z</Time>
            <Position>
              <LatitudeDegrees>44.18609700165688991546630859375</LatitudeDegrees>
              <LongitudeDegrees>-1.0507760010659694671630859375</LongitudeDegrees>
            </Position>
            <AltitudeMeters>78.1999969482421875</AltitudeMeters>
            <DistanceMeters>NAN</DistanceMeters>
          </Trackpoint>
          <Trackpoint>
            <Time>2022-07-05T18:01:09.000Z</Time>
            <Position>
              <LatitudeDegrees>44.18601821176707744598388671875</LatitudeDegrees>
              <LongitudeDegrees>-1.05072026140987873077392578125</LongitudeDegrees>
            </Position>
            <AltitudeMeters>78.1999969482421875</AltitudeMeters>
            <DistanceMeters>NAN</DistanceMeters>
          </Trackpoint>
          <Trackpoint>
            <Time>2022-07-05T18:01:10.000Z</Time>
            <Position>
              <LatitudeDegrees>44.18598267249763011932373046875</LatitudeDegrees>
              <LongitudeDegrees>-1.05068522505462169647216796875</LongitudeDegrees>
            </Position>
            <AltitudeMeters>78.1999969482421875</AltitudeMeters>
            <DistanceMeters>NAN</DistanceMeters>
          </Trackpoint>
          <Trackpoint>
            <Time>2022-07-05T18:01:12.000Z</Time>
            <Position>
              <LatitudeDegrees>44.1859088279306888580322265625</LatitudeDegrees>
              <LongitudeDegrees>-1.0506304912269115447998046875</LongitudeDegrees>
            </Position>
            <AltitudeMeters>78.1999969482421875</AltitudeMeters>
            <DistanceMeters>NAN</DistanceMeters>
          </Trackpoint>
          <Trackpoint>
            <Time>2022-07-05T18:01:14.000Z</Time>
            <Position>
              <LatitudeDegrees>44.18583263643085956573486328125</LatitudeDegrees>
              <LongitudeDegrees>-1.050561927258968353271484375</LongitudeDegrees>
            </Position>
            <AltitudeMeters>78.1999969482421875</AltitudeMeters>
            <DistanceMeters>NAN</DistanceMeters>
          </Trackpoint>
          <Trackpoint>
            <Time>2022-07-05T18:01:15.000Z</Time>
            <Position>
              <LatitudeDegrees>44.18579190038144588470458984375</LatitudeDegrees>
              <LongitudeDegrees>-1.05053937993943691253662109375</LongitudeDegrees>
            </Position>
            <AltitudeMeters>78.1999969482421875</AltitudeMeters>
            <DistanceMeters>NAN</DistanceMeters>
          </Trackpoint>
          <Trackpoint>
            <Time>2022-07-05T18:01:16.000Z</Time>
            <Position>
              <LatitudeDegrees>44.18575351126492023468017578125</LatitudeDegrees>
              <LongitudeDegrees>-1.05051239021122455596923828125</LongitudeDegrees>
            </Position>
            <AltitudeMeters>78.1999969482421875</AltitudeMeters>
            <DistanceMeters>NAN</DistanceMeters>
          </Trackpoint>
          <Trackpoint>
            <Time>2022-07-05T18:01:17.000Z</Time>
            <Position>
              <LatitudeDegrees>44.1857177205383777618408203125</LatitudeDegrees>
              <LongitudeDegrees>-1.05048372410237789154052734375</LongitudeDegrees>
            </Position>
            <AltitudeMeters>78.40000152587890625</AltitudeMeters>
            <DistanceMeters>NAN</DistanceMeters>
          </Trackpoint>
          <Trackpoint>
            <Time>2022-07-05T18:01:20.000Z</Time>
            <Position>
              <LatitudeDegrees>44.18560682795941829681396484375</LatitudeDegrees>
              <LongitudeDegrees>-1.0503860749304294586181640625</LongitudeDegrees>
            </Position>
            <AltitudeMeters>78.40000152587890625</AltitudeMeters>
            <DistanceMeters>NAN</DistanceMeters>
          </Trackpoint>
          <Trackpoint>
            <Time>2022-07-05T18:01:21.000Z</Time>
            <Position>
              <LatitudeDegrees>44.18556910939514636993408203125</LatitudeDegrees>
              <LongitudeDegrees>-1.050358079373836517333984375</LongitudeDegrees>
            </Position>
            <AltitudeMeters>78.40000152587890625</AltitudeMeters>
            <DistanceMeters>NAN</DistanceMeters>
          </Trackpoint>
          <Trackpoint>
            <Time>2022-07-05T18:01:25.000Z</Time>
            <Position>
              <LatitudeDegrees>44.1854183189570903778076171875</LatitudeDegrees>
              <LongitudeDegrees>-1.05024819262325763702392578125</LongitudeDegrees>
            </Position>
            <AltitudeMeters>78.1999969482421875</AltitudeMeters>
            <DistanceMeters>NAN</DistanceMeters>
          </Trackpoint>
          <Trackpoint>
            <Time>2022-07-05T18:01:26.000Z</Time>
            <Position>
              <LatitudeDegrees>44.185383953154087066650390625</LatitudeDegrees>
              <LongitudeDegrees>-1.050214581191539764404296875</LongitudeDegrees>
            </Position>
            <AltitudeMeters>78.1999969482421875</AltitudeMeters>
            <DistanceMeters>NAN</DistanceMeters>
          </Trackpoint>
          <Trackpoint>
            <Time>2022-07-05T18:01:31.000Z</Time>
            <Position>
              <LatitudeDegrees>44.1852251999080181121826171875</LatitudeDegrees>
              <LongitudeDegrees>-1.0500407405197620391845703125</LongitudeDegrees>
            </Position>
            <AltitudeMeters>78</AltitudeMeters>
            <DistanceMeters>NAN</DistanceMeters>
          </Trackpoint>
          <Trackpoint>
            <Time>2022-07-05T18:01:34.000Z</Time>
            <Position>
              <LatitudeDegrees>44.1851212643086910247802734375</LatitudeDegrees>
              <LongitudeDegrees>-1.04994644410908222198486328125</LongitudeDegrees>
            </Position>
            <AltitudeMeters>78.1999969482421875</AltitudeMeters>
            <DistanceMeters>NAN</DistanceMeters>
          </Trackpoint>
          <Trackpoint>
            <Time>2022-07-05T18:01:35.000Z</Time>
            <Position>
              <LatitudeDegrees>44.18508865870535373687744140625</LatitudeDegrees>
              <LongitudeDegrees>-1.04990503750741481781005859375</LongitudeDegrees>
            </Position>
            <AltitudeMeters>78.1999969482421875</AltitudeMeters>
            <DistanceMeters>NAN</DistanceMeters>
          </Trackpoint>
          <Trackpoint>
            <Time>2022-07-05T18:01:40.000Z</Time>
            <Position>
              <LatitudeDegrees>44.1849103756248950958251953125</LatitudeDegrees>
              <LongitudeDegrees>-1.049745865166187286376953125</LongitudeDegrees>
            </Position>
            <AltitudeMeters>78.40000152587890625</AltitudeMeters>
            <DistanceMeters>NAN</DistanceMeters>
          </Trackpoint>
          <Trackpoint>
            <Time>2022-07-05T18:01:48.000Z</Time>
            <Position>
              <LatitudeDegrees>44.18463586829602718353271484375</LatitudeDegrees>
              <LongitudeDegrees>-1.04951460845768451690673828125</LongitudeDegrees>
            </Position>
            <AltitudeMeters>78.59999847412109375</AltitudeMeters>
            <DistanceMeters>NAN</DistanceMeters>
          </Trackpoint>
          <Trackpoint>
            <Time>2022-07-05T18:01:51.000Z</Time>
            <Position>
              <LatitudeDegrees>44.184537045657634735107421875</LatitudeDegrees>
              <LongitudeDegrees>-1.04942810721695423126220703125</LongitudeDegrees>
            </Position>
            <AltitudeMeters>78.59999847412109375</AltitudeMeters>
            <DistanceMeters>NAN</DistanceMeters>
          </Trackpoint>
          <Trackpoint>
            <Time>2022-07-05T18:02:00.000Z</Time>
            <Position>
              <LatitudeDegrees>44.18422297574579715728759765625</LatitudeDegrees>
              <LongitudeDegrees>-1.049171872437000274658203125</LongitudeDegrees>
            </Position>
            <AltitudeMeters>78.59999847412109375</AltitudeMeters>
            <DistanceMeters>NAN</DistanceMeters>
          </Trackpoint>
          <Trackpoint>
            <Time>2022-07-05T18:02:11.000Z</Time>
            <Position>
              <LatitudeDegrees>44.1838217340409755706787109375</LatitudeDegrees>
              <LongitudeDegrees>-1.04882326908409595489501953125</LongitudeDegrees>
            </Position>
            <AltitudeMeters>78.8000030517578125</AltitudeMeters>
            <DistanceMeters>NAN</DistanceMeters>
          </Trackpoint>
          <Trackpoint>
            <Time>2022-07-05T18:02:22.000Z</Time>
            <Position>
              <LatitudeDegrees>44.1834019683301448822021484375</LatitudeDegrees>
              <LongitudeDegrees>-1.0484807007014751434326171875</LongitudeDegrees>
            </Position>
            <AltitudeMeters>78.59999847412109375</AltitudeMeters>
            <DistanceMeters>NAN</DistanceMeters>
          </Trackpoint>
          <Trackpoint>
            <Time>2022-07-05T18:02:30.000Z</Time>
            <Position>
              <LatitudeDegrees>44.1830968670547008514404296875</LatitudeDegrees>
              <LongitudeDegrees>-1.04823100380599498748779296875</LongitudeDegrees>
            </Position>
            <AltitudeMeters>78.59999847412109375</AltitudeMeters>
            <DistanceMeters>NAN</DistanceMeters>
          </Trackpoint>
          <Trackpoint>
            <Time>2022-07-05T18:02:40.000Z</Time>
            <Position>
              <LatitudeDegrees>44.182762764394283294677734375</LatitudeDegrees>
              <LongitudeDegrees>-1.04791224002838134765625</LongitudeDegrees>
            </Position>
            <AltitudeMeters>78.59999847412109375</AltitudeMeters>
            <DistanceMeters>NAN</DistanceMeters>
          </Trackpoint>
          <Trackpoint>
            <Time>2022-07-05T18:02:47.000Z</Time>
            <Position>
              <LatitudeDegrees>44.1825188510119915008544921875</LatitudeDegrees>
              <LongitudeDegrees>-1.04771199636161327362060546875</LongitudeDegrees>
            </Position>
            <AltitudeMeters>78.8000030517578125</AltitudeMeters>
            <DistanceMeters>NAN</DistanceMeters>
          </Trackpoint>
          <Trackpoint>
            <Time>2022-07-05T18:02:56.000Z</Time>
            <Position>
              <LatitudeDegrees>44.1821852512657642364501953125</LatitudeDegrees>
              <LongitudeDegrees>-1.0474322922527790069580078125</LongitudeDegrees>
            </Position>
            <AltitudeMeters>78.8000030517578125</AltitudeMeters>
            <DistanceMeters>NAN</DistanceMeters>
          </Trackpoint>
          <Trackpoint>
            <Time>2022-07-05T18:03:03.000Z</Time>
            <Position>
              <LatitudeDegrees>44.18192516081035137176513671875</LatitudeDegrees>
              <LongitudeDegrees>-1.047221906483173370361328125</LongitudeDegrees>
            </Position>
            <AltitudeMeters>79</AltitudeMeters>
            <DistanceMeters>NAN</DistanceMeters>
          </Trackpoint>
          <Trackpoint>
            <Time>2022-07-05T18:03:08.000Z</Time>
            <Position>
              <LatitudeDegrees>44.18174427933990955352783203125</LatitudeDegrees>
              <LongitudeDegrees>-1.0470485687255859375</LongitudeDegrees>
            </Position>
            <AltitudeMeters>79</AltitudeMeters>
            <DistanceMeters>NAN</DistanceMeters>
          </Trackpoint>
          <Trackpoint>
            <Time>2022-07-05T18:03:10.000Z</Time>
            <Position>
              <LatitudeDegrees>44.1816749610006809234619140625</LatitudeDegrees>
              <LongitudeDegrees>-1.04697958566248416900634765625</LongitudeDegrees>
            </Position>
            <AltitudeMeters>79</AltitudeMeters>
            <DistanceMeters>NAN</DistanceMeters>
          </Trackpoint>
          <Trackpoint>
            <Time>2022-07-05T18:03:20.000Z</Time>
            <Position>
              <LatitudeDegrees>44.18131227605044841766357421875</LatitudeDegrees>
              <LongitudeDegrees>-1.04666358791291713714599609375</LongitudeDegrees>
            </Position>
            <AltitudeMeters>79.1999969482421875</AltitudeMeters>
            <DistanceMeters>NAN</DistanceMeters>
          </Trackpoint>
          <Trackpoint>
            <Time>2022-07-05T18:03:30.000Z</Time>
            <Position>
              <LatitudeDegrees>44.18093056418001651763916015625</LatitudeDegrees>
              <LongitudeDegrees>-1.04634189046919345855712890625</LongitudeDegrees>
            </Position>
            <AltitudeMeters>79</AltitudeMeters>
            <DistanceMeters>NAN</DistanceMeters>
          </Trackpoint>
          <Trackpoint>
            <Time>2022-07-05T18:03:37.000Z</Time>
            <Position>
              <LatitudeDegrees>44.18067072518169879913330078125</LatitudeDegrees>
              <LongitudeDegrees>-1.04613066650927066802978515625</LongitudeDegrees>
            </Position>
            <AltitudeMeters>79.40000152587890625</AltitudeMeters>
            <DistanceMeters>NAN</DistanceMeters>
          </Trackpoint>
          <Trackpoint>
            <Time>2022-07-05T18:03:39.000Z</Time>
            <Position>
              <LatitudeDegrees>44.1805960424244403839111328125</LatitudeDegrees>
              <LongitudeDegrees>-1.04606512002646923065185546875</LongitudeDegrees>
            </Position>
            <AltitudeMeters>79.40000152587890625</AltitudeMeters>
            <DistanceMeters>NAN</DistanceMeters>
          </Trackpoint>
          <Trackpoint>
            <Time>2022-07-05T18:03:49.000Z</Time>
            <Position>
              <LatitudeDegrees>44.180203936994075775146484375</LatitudeDegrees>
              <LongitudeDegrees>-1.04572900570929050445556640625</LongitudeDegrees>
            </Position>
            <AltitudeMeters>78.40000152587890625</AltitudeMeters>
            <DistanceMeters>NAN</DistanceMeters>
          </Trackpoint>
          <Trackpoint>
            <Time>2022-07-05T18:03:50.000Z</Time>
            <Position>
              <LatitudeDegrees>44.18016470968723297119140625</LatitudeDegrees>
              <LongitudeDegrees>-1.045697070658206939697265625</LongitudeDegrees>
            </Position>
            <AltitudeMeters>78.40000152587890625</AltitudeMeters>
            <DistanceMeters>NAN</DistanceMeters>
          </Trackpoint>
          <Trackpoint>
            <Time>2022-07-05T18:03:54.000Z</Time>
            <Position>
              <LatitudeDegrees>44.180002771317958831787109375</LatitudeDegrees>
              <LongitudeDegrees>-1.0455611161887645721435546875</LongitudeDegrees>
            </Position>
            <AltitudeMeters>78.1999969482421875</AltitudeMeters>
            <DistanceMeters>NAN</DistanceMeters>
          </Trackpoint>
          <Trackpoint>
            <Time>2022-07-05T18:03:58.000Z</Time>
            <Position>
              <LatitudeDegrees>44.17985198087990283966064453125</LatitudeDegrees>
              <LongitudeDegrees>-1.0454253293573856353759765625</LongitudeDegrees>
            </Position>
            <AltitudeMeters>78.59999847412109375</AltitudeMeters>
            <DistanceMeters>NAN</DistanceMeters>
          </Trackpoint>
          <Trackpoint>
            <Time>2022-07-05T18:04:01.000Z</Time>
            <Position>
              <LatitudeDegrees>44.1797424294054508209228515625</LatitudeDegrees>
              <LongitudeDegrees>-1.0453257523477077484130859375</LongitudeDegrees>
            </Position>
            <AltitudeMeters>78.8000030517578125</AltitudeMeters>
            <DistanceMeters>NAN</DistanceMeters>
          </Trackpoint>
          <Trackpoint>
            <Time>2022-07-05T18:04:02.000Z</Time>
            <Position>
              <LatitudeDegrees>44.17970563285052776336669921875</LatitudeDegrees>
              <LongitudeDegrees>-1.0452955774962902069091796875</LongitudeDegrees>
            </Position>
            <AltitudeMeters>78.8000030517578125</AltitudeMeters>
            <DistanceMeters>NAN</DistanceMeters>
          </Trackpoint>
          <Trackpoint>
            <Time>2022-07-05T18:04:07.000Z</Time>
            <Position>
              <LatitudeDegrees>44.17952558957040309906005859375</LatitudeDegrees>
              <LongitudeDegrees>-1.045148558914661407470703125</LongitudeDegrees>
            </Position>
            <AltitudeMeters>79</AltitudeMeters>
            <DistanceMeters>NAN</DistanceMeters>
          </Trackpoint>
          <Trackpoint>
            <Time>2022-07-05T18:04:11.000Z</Time>
            <Position>
              <LatitudeDegrees>44.17937655933201313018798828125</LatitudeDegrees>
              <LongitudeDegrees>-1.04501855559647083282470703125</LongitudeDegrees>
            </Position>
            <AltitudeMeters>79</AltitudeMeters>
            <DistanceMeters>NAN</DistanceMeters>
          </Trackpoint>
          <Trackpoint>
            <Time>2022-07-05T18:04:14.000Z</Time>
            <Position>
              <LatitudeDegrees>44.17927346192300319671630859375</LatitudeDegrees>
              <LongitudeDegrees>-1.04492853395640850067138671875</LongitudeDegrees>
            </Position>
            <AltitudeMeters>78.8000030517578125</AltitudeMeters>
            <DistanceMeters>NAN</DistanceMeters>
          </Trackpoint>
          <Trackpoint>
            <Time>2022-07-05T18:04:22.000Z</Time>
            <Position>
              <LatitudeDegrees>44.17896442115306854248046875</LatitudeDegrees>
              <LongitudeDegrees>-1.04466768912971019744873046875</LongitudeDegrees>
            </Position>
            <AltitudeMeters>78.59999847412109375</AltitudeMeters>
            <DistanceMeters>NAN</DistanceMeters>
          </Trackpoint>
          <Trackpoint>
            <Time>2022-07-05T18:04:25.000Z</Time>
            <Position>
              <LatitudeDegrees>44.17885445058345794677734375</LatitudeDegrees>
              <LongitudeDegrees>-1.0445586405694484710693359375</LongitudeDegrees>
            </Position>
            <AltitudeMeters>78.59999847412109375</AltitudeMeters>
            <DistanceMeters>NAN</DistanceMeters>
          </Trackpoint>
          <Trackpoint>
            <Time>2022-07-05T18:04:29.000Z</Time>
            <Position>
              <LatitudeDegrees>44.1787084378302097320556640625</LatitudeDegrees>
              <LongitudeDegrees>-1.04442067444324493408203125</LongitudeDegrees>
            </Position>
            <AltitudeMeters>78.59999847412109375</AltitudeMeters>
            <DistanceMeters>NAN</DistanceMeters>
          </Trackpoint>
          <Trackpoint>
            <Time>2022-07-05T18:04:34.000Z</Time>
            <Position>
              <LatitudeDegrees>44.1785193420946598052978515625</LatitudeDegrees>
              <LongitudeDegrees>-1.0442770086228847503662109375</LongitudeDegrees>
            </Position>
            <AltitudeMeters>78.59999847412109375</AltitudeMeters>
            <DistanceMeters>NAN</DistanceMeters>
          </Trackpoint>
          <Trackpoint>
            <Time>2022-07-05T18:04:36.000Z</Time>
            <Position>
              <LatitudeDegrees>44.17844952084124088287353515625</LatitudeDegrees>
              <LongitudeDegrees>-1.04420819319784641265869140625</LongitudeDegrees>
            </Position>
            <AltitudeMeters>78.59999847412109375</AltitudeMeters>
            <DistanceMeters>NAN</DistanceMeters>
          </Trackpoint>
          <Trackpoint>
            <Time>2022-07-05T18:04:44.000Z</Time>
            <Position>
              <LatitudeDegrees>44.17811357416212558746337890625</LatitudeDegrees>
              <LongitudeDegrees>-1.04395070113241672515869140625</LongitudeDegrees>
            </Position>
            <AltitudeMeters>79</AltitudeMeters>
            <DistanceMeters>NAN</DistanceMeters>
          </Trackpoint>
          <Trackpoint>
            <Time>2022-07-05T18:04:51.000Z</Time>
            <Position>
              <LatitudeDegrees>44.17782154865562915802001953125</LatitudeDegrees>
              <LongitudeDegrees>-1.0437030158936977386474609375</LongitudeDegrees>
            </Position>
            <AltitudeMeters>78.59999847412109375</AltitudeMeters>
            <DistanceMeters>NAN</DistanceMeters>
          </Trackpoint>
          <Trackpoint>
            <Time>2022-07-05T18:04:57.000Z</Time>
            <Position>
              <LatitudeDegrees>44.17755014263093471527099609375</LatitudeDegrees>
              <LongitudeDegrees>-1.0434758663177490234375</LongitudeDegrees>
            </Position>
            <AltitudeMeters>78.8000030517578125</AltitudeMeters>
            <DistanceMeters>NAN</DistanceMeters>
          </Trackpoint>
          <Trackpoint>
            <Time>2022-07-05T18:05:04.000Z</Time>
            <Position>
              <LatitudeDegrees>44.17721671052277088165283203125</LatitudeDegrees>
              <LongitudeDegrees>-1.04317839257419109344482421875</LongitudeDegrees>
            </Position>
            <AltitudeMeters>78.1999969482421875</AltitudeMeters>
            <DistanceMeters>NAN</DistanceMeters>
          </Trackpoint>
          <Trackpoint>
            <Time>2022-07-05T18:05:11.000Z</Time>
            <Position>
              <LatitudeDegrees>44.17684958316385746002197265625</LatitudeDegrees>
              <LongitudeDegrees>-1.0428656637668609619140625</LongitudeDegrees>
            </Position>
            <AltitudeMeters>77.40000152587890625</AltitudeMeters>
            <DistanceMeters>NAN</DistanceMeters>
          </Trackpoint>
          <Trackpoint>
            <Time>2022-07-05T18:05:12.000Z</Time>
            <Position>
              <LatitudeDegrees>44.17679987847805023193359375</LatitudeDegrees>
              <LongitudeDegrees>-1.04281797073781490325927734375</LongitudeDegrees>
            </Position>
            <AltitudeMeters>77.1999969482421875</AltitudeMeters>
            <DistanceMeters>NAN</DistanceMeters>
          </Trackpoint>
          <Trackpoint>
            <Time>2022-07-05T18:05:17.000Z</Time>
            <Position>
              <LatitudeDegrees>44.17654615826904773712158203125</LatitudeDegrees>
              <LongitudeDegrees>-1.042598448693752288818359375</LongitudeDegrees>
            </Position>
            <AltitudeMeters>76</AltitudeMeters>
            <DistanceMeters>NAN</DistanceMeters>
          </Trackpoint>
          <Trackpoint>
            <Time>2022-07-05T18:05:19.000Z</Time>
            <Position>
              <LatitudeDegrees>44.17645387351512908935546875</LatitudeDegrees>
              <LongitudeDegrees>-1.04251354001462459564208984375</LongitudeDegrees>
            </Position>
            <AltitudeMeters>76</AltitudeMeters>
            <DistanceMeters>NAN</DistanceMeters>
          </Trackpoint>
          <Trackpoint>
            <Time>2022-07-05T18:05:21.000Z</Time>
            <Position>
              <LatitudeDegrees>44.17633225210011005401611328125</LatitudeDegrees>
              <LongitudeDegrees>-1.04240021668374538421630859375</LongitudeDegrees>
            </Position>
            <AltitudeMeters>75.8000030517578125</AltitudeMeters>
            <DistanceMeters>NAN</DistanceMeters>
          </Trackpoint>
          <Trackpoint>
            <Time>2022-07-05T18:05:22.000Z</Time>
            <Position>
              <LatitudeDegrees>44.17628112249076366424560546875</LatitudeDegrees>
              <LongitudeDegrees>-1.04234489612281322479248046875</LongitudeDegrees>
            </Position>
            <AltitudeMeters>75.8000030517578125</AltitudeMeters>
            <DistanceMeters>NAN</DistanceMeters>
          </Trackpoint>
          <Trackpoint>
            <Time>2022-07-05T18:05:25.000Z</Time>
            <Position>
              <LatitudeDegrees>44.1761207766830921173095703125</LatitudeDegrees>
              <LongitudeDegrees>-1.04220475070178508758544921875</LongitudeDegrees>
            </Position>
            <AltitudeMeters>75.1999969482421875</AltitudeMeters>
            <DistanceMeters>NAN</DistanceMeters>
          </Trackpoint>
          <Trackpoint>
            <Time>2022-07-05T18:05:26.000Z</Time>
            <Position>
              <LatitudeDegrees>44.17606738395988941192626953125</LatitudeDegrees>
              <LongitudeDegrees>-1.042159236967563629150390625</LongitudeDegrees>
            </Position>
            <AltitudeMeters>74.8000030517578125</AltitudeMeters>
            <DistanceMeters>NAN</DistanceMeters>
          </Trackpoint>
          <Trackpoint>
            <Time>2022-07-05T18:05:30.000Z</Time>
            <Position>
              <LatitudeDegrees>44.17584476061165332794189453125</LatitudeDegrees>
              <LongitudeDegrees>-1.0419698059558868408203125</LongitudeDegrees>
            </Position>
            <AltitudeMeters>74.40000152587890625</AltitudeMeters>
            <DistanceMeters>NAN</DistanceMeters>
          </Trackpoint>
          <Trackpoint>
            <Time>2022-07-05T18:05:31.000Z</Time>
            <Position>
              <LatitudeDegrees>44.17579044587910175323486328125</LatitudeDegrees>
              <LongitudeDegrees>-1.04192529805004596710205078125</LongitudeDegrees>
            </Position>
            <AltitudeMeters>74.1999969482421875</AltitudeMeters>
            <DistanceMeters>NAN</DistanceMeters>
          </Trackpoint>
          <Trackpoint>
            <Time>2022-07-05T18:05:32.000Z</Time>
            <Position>
              <LatitudeDegrees>44.17573998682200908660888671875</LatitudeDegrees>
              <LongitudeDegrees>-1.041881628334522247314453125</LongitudeDegrees>
            </Position>
            <AltitudeMeters>74</AltitudeMeters>
            <DistanceMeters>NAN</DistanceMeters>
          </Trackpoint>
          <Trackpoint>
            <Time>2022-07-05T18:05:33.000Z</Time>
            <Position>
              <LatitudeDegrees>44.175690449774265289306640625</LatitudeDegrees>
              <LongitudeDegrees>-1.041833348572254180908203125</LongitudeDegrees>
            </Position>
            <AltitudeMeters>73.8000030517578125</AltitudeMeters>
            <DistanceMeters>NAN</DistanceMeters>
          </Trackpoint>
          <Trackpoint>
            <Time>2022-07-05T18:05:35.000Z</Time>
            <Position>
              <LatitudeDegrees>44.1755970753729343414306640625</LatitudeDegrees>
              <LongitudeDegrees>-1.04174927808344364166259765625</LongitudeDegrees>
            </Position>
            <AltitudeMeters>73.40000152587890625</AltitudeMeters>
            <DistanceMeters>NAN</DistanceMeters>
          </Trackpoint>
          <Trackpoint>
            <Time>2022-07-05T18:05:36.000Z</Time>
            <Position>
              <LatitudeDegrees>44.1755357198417186737060546875</LatitudeDegrees>
              <LongitudeDegrees>-1.0416908562183380126953125</LongitudeDegrees>
            </Position>
            <AltitudeMeters>73.40000152587890625</AltitudeMeters>
            <DistanceMeters>NAN</DistanceMeters>
          </Trackpoint>
          <Trackpoint>
            <Time>2022-07-05T18:05:40.000Z</Time>
            <Position>
              <LatitudeDegrees>44.17532860301434993743896484375</LatitudeDegrees>
              <LongitudeDegrees>-1.0415146686136722564697265625</LongitudeDegrees>
            </Position>
            <AltitudeMeters>72.8000030517578125</AltitudeMeters>
            <DistanceMeters>NAN</DistanceMeters>
          </Trackpoint>
          <Trackpoint>
            <Time>2022-07-05T18:05:42.000Z</Time>
            <Position>
              <LatitudeDegrees>44.17522449977695941925048828125</LatitudeDegrees>
              <LongitudeDegrees>-1.04143428616225719451904296875</LongitudeDegrees>
            </Position>
            <AltitudeMeters>72.40000152587890625</AltitudeMeters>
            <DistanceMeters>NAN</DistanceMeters>
          </Trackpoint>
          <Trackpoint>
            <Time>2022-07-05T18:05:46.000Z</Time>
            <Position>
              <LatitudeDegrees>44.17496952228248119354248046875</LatitudeDegrees>
              <LongitudeDegrees>-1.04130587540566921234130859375</LongitudeDegrees>
            </Position>
            <AltitudeMeters>71.59999847412109375</AltitudeMeters>
            <DistanceMeters>NAN</DistanceMeters>
          </Trackpoint>
          <Trackpoint>
            <Time>2022-07-05T18:05:47.000Z</Time>
            <Position>
              <LatitudeDegrees>44.17491135187447071075439453125</LatitudeDegrees>
              <LongitudeDegrees>-1.0412923805415630340576171875</LongitudeDegrees>
            </Position>
            <AltitudeMeters>71.59999847412109375</AltitudeMeters>
            <DistanceMeters>NAN</DistanceMeters>
          </Trackpoint>
          <Trackpoint>
            <Time>2022-07-05T18:05:53.000Z</Time>
            <Position>
              <LatitudeDegrees>44.17457289062440395355224609375</LatitudeDegrees>
              <LongitudeDegrees>-1.04127586819231510162353515625</LongitudeDegrees>
            </Position>
            <AltitudeMeters>70.8000030517578125</AltitudeMeters>
            <DistanceMeters>NAN</DistanceMeters>
          </Trackpoint>
          <Trackpoint>
            <Time>2022-07-05T18:05:55.000Z</Time>
            <Position>
              <LatitudeDegrees>44.17445965111255645751953125</LatitudeDegrees>
              <LongitudeDegrees>-1.04126329533755779266357421875</LongitudeDegrees>
            </Position>
            <AltitudeMeters>70.59999847412109375</AltitudeMeters>
            <DistanceMeters>NAN</DistanceMeters>
          </Trackpoint>
          <Trackpoint>
            <Time>2022-07-05T18:06:01.000Z</Time>
            <Position>
              <LatitudeDegrees>44.17415924370288848876953125</LatitudeDegrees>
              <LongitudeDegrees>-1.0412429273128509521484375</LongitudeDegrees>
            </Position>
            <AltitudeMeters>70.1999969482421875</AltitudeMeters>
            <DistanceMeters>NAN</DistanceMeters>
          </Trackpoint>
          <Trackpoint>
            <Time>2022-07-05T18:06:06.000Z</Time>
            <Position>
              <LatitudeDegrees>44.1739753447473049163818359375</LatitudeDegrees>
              <LongitudeDegrees>-1.0412241518497467041015625</LongitudeDegrees>
            </Position>
            <AltitudeMeters>70.1999969482421875</AltitudeMeters>
            <DistanceMeters>NAN</DistanceMeters>
          </Trackpoint>
          <Trackpoint>
            <Time>2022-07-05T18:06:11.000Z</Time>
            <Position>
              <LatitudeDegrees>44.17382237501442432403564453125</LatitudeDegrees>
              <LongitudeDegrees>-1.0412042029201984405517578125</LongitudeDegrees>
            </Position>
            <AltitudeMeters>71</AltitudeMeters>
            <DistanceMeters>NAN</DistanceMeters>
          </Trackpoint>
          <Trackpoint>
            <Time>2022-07-05T18:06:17.000Z</Time>
            <Position>
              <LatitudeDegrees>44.1736548207700252532958984375</LatitudeDegrees>
              <LongitudeDegrees>-1.041150055825710296630859375</LongitudeDegrees>
            </Position>
            <AltitudeMeters>71.59999847412109375</AltitudeMeters>
            <DistanceMeters>NAN</DistanceMeters>
          </Trackpoint>
          <Trackpoint>
            <Time>2022-07-05T18:06:18.000Z</Time>
            <Position>
              <LatitudeDegrees>44.17362741194665431976318359375</LatitudeDegrees>
              <LongitudeDegrees>-1.041137985885143280029296875</LongitudeDegrees>
            </Position>
            <AltitudeMeters>71.8000030517578125</AltitudeMeters>
            <DistanceMeters>NAN</DistanceMeters>
          </Trackpoint>
          <Trackpoint>
            <Time>2022-07-05T18:06:24.000Z</Time>
            <Position>
              <LatitudeDegrees>44.17346748523414134979248046875</LatitudeDegrees>
              <LongitudeDegrees>-1.04106263257563114166259765625</LongitudeDegrees>
            </Position>
            <AltitudeMeters>72.59999847412109375</AltitudeMeters>
            <DistanceMeters>NAN</DistanceMeters>
          </Trackpoint>
          <Trackpoint>
            <Time>2022-07-05T18:06:26.000Z</Time>
            <Position>
              <LatitudeDegrees>44.1734120808541774749755859375</LatitudeDegrees>
              <LongitudeDegrees>-1.04104234836995601654052734375</LongitudeDegrees>
            </Position>
            <AltitudeMeters>72.8000030517578125</AltitudeMeters>
            <DistanceMeters>NAN</DistanceMeters>
          </Trackpoint>
          <Trackpoint>
            <Time>2022-07-05T18:06:33.000Z</Time>
            <Position>
              <LatitudeDegrees>44.17324637062847614288330078125</LatitudeDegrees>
              <LongitudeDegrees>-1.04093790985643863677978515625</LongitudeDegrees>
            </Position>
            <AltitudeMeters>73.40000152587890625</AltitudeMeters>
            <DistanceMeters>NAN</DistanceMeters>
          </Trackpoint>
          <Trackpoint>
            <Time>2022-07-05T18:06:35.000Z</Time>
            <Position>
              <LatitudeDegrees>44.17318602092564105987548828125</LatitudeDegrees>
              <LongitudeDegrees>-1.040903963148593902587890625</LongitudeDegrees>
            </Position>
            <AltitudeMeters>73.8000030517578125</AltitudeMeters>
            <DistanceMeters>NAN</DistanceMeters>
          </Trackpoint>
          <Trackpoint>
            <Time>2022-07-05T18:06:39.000Z</Time>
            <Position>
              <LatitudeDegrees>44.17309214361011981964111328125</LatitudeDegrees>
              <LongitudeDegrees>-1.04085266590118408203125</LongitudeDegrees>
            </Position>
            <AltitudeMeters>74</AltitudeMeters>
            <DistanceMeters>NAN</DistanceMeters>
          </Trackpoint>
          <Trackpoint>
            <Time>2022-07-05T18:06:44.000Z</Time>
            <Position>
              <LatitudeDegrees>44.1729799099266529083251953125</LatitudeDegrees>
              <LongitudeDegrees>-1.0407455451786518096923828125</LongitudeDegrees>
            </Position>
            <AltitudeMeters>74.40000152587890625</AltitudeMeters>
            <DistanceMeters>NAN</DistanceMeters>
          </Trackpoint>
          <Trackpoint>
            <Time>2022-07-05T18:06:47.000Z</Time>
            <Position>
              <LatitudeDegrees>44.17290656827390193939208984375</LatitudeDegrees>
              <LongitudeDegrees>-1.04070288129150867462158203125</LongitudeDegrees>
            </Position>
            <AltitudeMeters>74.8000030517578125</AltitudeMeters>
            <DistanceMeters>NAN</DistanceMeters>
          </Trackpoint>
          <Trackpoint>
            <Time>2022-07-05T18:06:48.000Z</Time>
            <Position>
              <LatitudeDegrees>44.17287739925086498260498046875</LatitudeDegrees>
              <LongitudeDegrees>-1.04068695567548274993896484375</LongitudeDegrees>
            </Position>
            <AltitudeMeters>74.8000030517578125</AltitudeMeters>
            <DistanceMeters>NAN</DistanceMeters>
          </Trackpoint>
          <Trackpoint>
            <Time>2022-07-05T18:06:55.000Z</Time>
            <Position>
              <LatitudeDegrees>44.17270355857908725738525390625</LatitudeDegrees>
              <LongitudeDegrees>-1.040571369230747222900390625</LongitudeDegrees>
            </Position>
            <AltitudeMeters>75.59999847412109375</AltitudeMeters>
            <DistanceMeters>NAN</DistanceMeters>
          </Trackpoint>
          <Trackpoint>
            <Time>2022-07-05T18:06:58.000Z</Time>
            <Position>
              <LatitudeDegrees>44.17263231240212917327880859375</LatitudeDegrees>
              <LongitudeDegrees>-1.040524430572986602783203125</LongitudeDegrees>
            </Position>
            <AltitudeMeters>76</AltitudeMeters>
            <DistanceMeters>NAN</DistanceMeters>
          </Trackpoint>
          <Trackpoint>
            <Time>2022-07-05T18:07:03.000Z</Time>
            <Position>
              <LatitudeDegrees>44.17250205762684345245361328125</LatitudeDegrees>
              <LongitudeDegrees>-1.0404186509549617767333984375</LongitudeDegrees>
            </Position>
            <AltitudeMeters>76.40000152587890625</AltitudeMeters>
            <DistanceMeters>NAN</DistanceMeters>
          </Trackpoint>
          <Trackpoint>
            <Time>2022-07-05T18:07:11.000Z</Time>
            <Position>
              <LatitudeDegrees>44.172279350459575653076171875</LatitudeDegrees>
              <LongitudeDegrees>-1.0402547009289264678955078125</LongitudeDegrees>
            </Position>
            <AltitudeMeters>76.59999847412109375</AltitudeMeters>
            <DistanceMeters>NAN</DistanceMeters>
          </Trackpoint>
          <Trackpoint>
            <Time>2022-07-05T18:07:18.000Z</Time>
            <Position>
              <LatitudeDegrees>44.1720793582499027252197265625</LatitudeDegrees>
              <LongitudeDegrees>-1.04012620635330677032470703125</LongitudeDegrees>
            </Position>
            <AltitudeMeters>76.59999847412109375</AltitudeMeters>
            <DistanceMeters>NAN</DistanceMeters>
          </Trackpoint>
          <Trackpoint>
            <Time>2022-07-05T18:07:26.000Z</Time>
            <Position>
              <LatitudeDegrees>44.17179915122687816619873046875</LatitudeDegrees>
              <LongitudeDegrees>-1.03997399099171161651611328125</LongitudeDegrees>
            </Position>
            <AltitudeMeters>76.40000152587890625</AltitudeMeters>
            <DistanceMeters>NAN</DistanceMeters>
          </Trackpoint>
          <Trackpoint>
            <Time>2022-07-05T18:07:33.000Z</Time>
            <Position>
              <LatitudeDegrees>44.17149539105594158172607421875</LatitudeDegrees>
              <LongitudeDegrees>-1.03983971290290355682373046875</LongitudeDegrees>
            </Position>
            <AltitudeMeters>76.40000152587890625</AltitudeMeters>
            <DistanceMeters>NAN</DistanceMeters>
          </Trackpoint>
          <Trackpoint>
            <Time>2022-07-05T18:07:37.000Z</Time>
            <Position>
              <LatitudeDegrees>44.17133227922022342681884765625</LatitudeDegrees>
              <LongitudeDegrees>-1.03977299295365810394287109375</LongitudeDegrees>
            </Position>
            <AltitudeMeters>76.1999969482421875</AltitudeMeters>
            <DistanceMeters>NAN</DistanceMeters>
          </Trackpoint>
          <Trackpoint>
            <Time>2022-07-05T18:07:40.000Z</Time>
            <Position>
              <LatitudeDegrees>44.171213172376155853271484375</LatitudeDegrees>
              <LongitudeDegrees>-1.03972068987786769866943359375</LongitudeDegrees>
            </Position>
            <AltitudeMeters>76</AltitudeMeters>
            <DistanceMeters>NAN</DistanceMeters>
          </Trackpoint>
          <Trackpoint>
            <Time>2022-07-05T18:07:42.000Z</Time>
            <Position>
              <LatitudeDegrees>44.1711263358592987060546875</LatitudeDegrees>
              <LongitudeDegrees>-1.0396864078938961029052734375</LongitudeDegrees>
            </Position>
            <AltitudeMeters>76.1999969482421875</AltitudeMeters>
            <DistanceMeters>NAN</DistanceMeters>
          </Trackpoint>
          <Trackpoint>
            <Time>2022-07-05T18:07:46.000Z</Time>
            <Position>
              <LatitudeDegrees>44.1709783114492893218994140625</LatitudeDegrees>
              <LongitudeDegrees>-1.039632596075534820556640625</LongitudeDegrees>
            </Position>
            <AltitudeMeters>76.40000152587890625</AltitudeMeters>
            <DistanceMeters>NAN</DistanceMeters>
          </Trackpoint>
          <Trackpoint>
            <Time>2022-07-05T18:07:51.000Z</Time>
            <Position>
              <LatitudeDegrees>44.1707751341164112091064453125</LatitudeDegrees>
              <LongitudeDegrees>-1.039562188088893890380859375</LongitudeDegrees>
            </Position>
            <AltitudeMeters>76.8000030517578125</AltitudeMeters>
            <DistanceMeters>NAN</DistanceMeters>
          </Trackpoint>
          <Trackpoint>
            <Time>2022-07-05T18:07:54.000Z</Time>
            <Position>
              <LatitudeDegrees>44.17065736837685108184814453125</LatitudeDegrees>
              <LongitudeDegrees>-1.039505861699581146240234375</LongitudeDegrees>
            </Position>
            <AltitudeMeters>76.59999847412109375</AltitudeMeters>
            <DistanceMeters>NAN</DistanceMeters>
          </Trackpoint>
          <Trackpoint>
            <Time>2022-07-05T18:07:56.000Z</Time>
            <Position>
              <LatitudeDegrees>44.17056667618453502655029296875</LatitudeDegrees>
              <LongitudeDegrees>-1.03948281146585941314697265625</LongitudeDegrees>
            </Position>
            <AltitudeMeters>76.59999847412109375</AltitudeMeters>
            <DistanceMeters>NAN</DistanceMeters>
          </Trackpoint>
          <Trackpoint>
            <Time>2022-07-05T18:07:57.000Z</Time>
            <Position>
              <LatitudeDegrees>44.170529544353485107421875</LatitudeDegrees>
              <LongitudeDegrees>-1.03947308845818042755126953125</LongitudeDegrees>
            </Position>
            <AltitudeMeters>76.59999847412109375</AltitudeMeters>
            <DistanceMeters>NAN</DistanceMeters>
          </Trackpoint>
          <Trackpoint>
            <Time>2022-07-05T18:08:04.000Z</Time>
            <Position>
              <LatitudeDegrees>44.17026358656585216522216796875</LatitudeDegrees>
              <LongitudeDegrees>-1.03937082923948764801025390625</LongitudeDegrees>
            </Position>
            <AltitudeMeters>76.40000152587890625</AltitudeMeters>
            <DistanceMeters>NAN</DistanceMeters>
          </Trackpoint>
          <Trackpoint>
            <Time>2022-07-05T18:08:07.000Z</Time>
            <Position>
              <LatitudeDegrees>44.170144982635974884033203125</LatitudeDegrees>
              <LongitudeDegrees>-1.0393357090651988983154296875</LongitudeDegrees>
            </Position>
            <AltitudeMeters>76.40000152587890625</AltitudeMeters>
            <DistanceMeters>NAN</DistanceMeters>
          </Trackpoint>
          <Trackpoint>
            <Time>2022-07-05T18:08:10.000Z</Time>
            <Position>
              <LatitudeDegrees>44.1700147278606891632080078125</LatitudeDegrees>
              <LongitudeDegrees>-1.03929237462580204010009765625</LongitudeDegrees>
            </Position>
            <AltitudeMeters>76.40000152587890625</AltitudeMeters>
            <DistanceMeters>NAN</DistanceMeters>
          </Trackpoint>
          <Trackpoint>
            <Time>2022-07-05T18:08:11.000Z</Time>
            <Position>
              <LatitudeDegrees>44.16997491382062435150146484375</LatitudeDegrees>
              <LongitudeDegrees>-1.0392730124294757843017578125</LongitudeDegrees>
            </Position>
            <AltitudeMeters>76.40000152587890625</AltitudeMeters>
            <DistanceMeters>NAN</DistanceMeters>
          </Trackpoint>
          <Trackpoint>
            <Time>2022-07-05T18:08:12.000Z</Time>
            <Position>
              <LatitudeDegrees>44.16993610560894012451171875</LatitudeDegrees>
              <LongitudeDegrees>-1.0392555780708789825439453125</LongitudeDegrees>
            </Position>
            <AltitudeMeters>76.40000152587890625</AltitudeMeters>
            <DistanceMeters>NAN</DistanceMeters>
          </Trackpoint>
          <Trackpoint>
            <Time>2022-07-05T18:08:13.000Z</Time>
            <Position>
              <LatitudeDegrees>44.16989679448306560516357421875</LatitudeDegrees>
              <LongitudeDegrees>-1.03923638351261615753173828125</LongitudeDegrees>
            </Position>
            <AltitudeMeters>76.40000152587890625</AltitudeMeters>
            <DistanceMeters>NAN</DistanceMeters>
          </Trackpoint>
          <Trackpoint>
            <Time>2022-07-05T18:08:15.000Z</Time>
            <Position>
              <LatitudeDegrees>44.16981314308941364288330078125</LatitudeDegrees>
              <LongitudeDegrees>-1.03920369409024715423583984375</LongitudeDegrees>
            </Position>
            <AltitudeMeters>76.40000152587890625</AltitudeMeters>
            <DistanceMeters>NAN</DistanceMeters>
          </Trackpoint>
          <Trackpoint>
            <Time>2022-07-05T18:08:16.000Z</Time>
            <Position>
              <LatitudeDegrees>44.16976989246904850006103515625</LatitudeDegrees>
              <LongitudeDegrees>-1.03918173350393772125244140625</LongitudeDegrees>
            </Position>
            <AltitudeMeters>76.40000152587890625</AltitudeMeters>
            <DistanceMeters>NAN</DistanceMeters>
          </Trackpoint>
          <Trackpoint>
            <Time>2022-07-05T18:08:17.000Z</Time>
            <Position>
              <LatitudeDegrees>44.16972999460995197296142578125</LatitudeDegrees>
              <LongitudeDegrees>-1.0391583479940891265869140625</LongitudeDegrees>
            </Position>
            <AltitudeMeters>76.40000152587890625</AltitudeMeters>
            <DistanceMeters>NAN</DistanceMeters>
          </Trackpoint>
          <Trackpoint>
            <Time>2022-07-05T18:08:18.000Z</Time>
            <Position>
              <LatitudeDegrees>44.16969244368374347686767578125</LatitudeDegrees>
              <LongitudeDegrees>-1.03914367966353893280029296875</LongitudeDegrees>
            </Position>
            <AltitudeMeters>76.59999847412109375</AltitudeMeters>
            <DistanceMeters>NAN</DistanceMeters>
          </Trackpoint>
          <Trackpoint>
            <Time>2022-07-05T18:08:20.000Z</Time>
            <Position>
              <LatitudeDegrees>44.1696204431354999542236328125</LatitudeDegrees>
              <LongitudeDegrees>-1.03911333717405796051025390625</LongitudeDegrees>
            </Position>
            <AltitudeMeters>76.40000152587890625</AltitudeMeters>
            <DistanceMeters>NAN</DistanceMeters>
          </Trackpoint>
          <Trackpoint>
            <Time>2022-07-05T18:08:23.000Z</Time>
            <Position>
              <LatitudeDegrees>44.16948809288442134857177734375</LatitudeDegrees>
              <LongitudeDegrees>-1.03906136937439441680908203125</LongitudeDegrees>
            </Position>
            <AltitudeMeters>76.40000152587890625</AltitudeMeters>
            <DistanceMeters>NAN</DistanceMeters>
          </Trackpoint>
          <Trackpoint>
            <Time>2022-07-05T18:08:25.000Z</Time>
            <Position>
              <LatitudeDegrees>44.16940561495721340179443359375</LatitudeDegrees>
              <LongitudeDegrees>-1.0390178672969341278076171875</LongitudeDegrees>
            </Position>
            <AltitudeMeters>76.40000152587890625</AltitudeMeters>
            <DistanceMeters>NAN</DistanceMeters>
          </Trackpoint>
          <Trackpoint>
            <Time>2022-07-05T18:08:30.000Z</Time>
            <Position>
              <LatitudeDegrees>44.16915818117558956146240234375</LatitudeDegrees>
              <LongitudeDegrees>-1.0389461182057857513427734375</LongitudeDegrees>
            </Position>
            <AltitudeMeters>76.59999847412109375</AltitudeMeters>
            <DistanceMeters>NAN</DistanceMeters>
          </Trackpoint>
          <Trackpoint>
            <Time>2022-07-05T18:08:34.000Z</Time>
            <Position>
              <LatitudeDegrees>44.16900143958628177642822265625</LatitudeDegrees>
              <LongitudeDegrees>-1.03887948207557201385498046875</LongitudeDegrees>
            </Position>
            <AltitudeMeters>76.59999847412109375</AltitudeMeters>
            <DistanceMeters>NAN</DistanceMeters>
          </Trackpoint>
          <Trackpoint>
            <Time>2022-07-05T18:08:37.000Z</Time>
            <Position>
              <LatitudeDegrees>44.1688811592757701873779296875</LatitudeDegrees>
              <LongitudeDegrees>-1.03883095085620880126953125</LongitudeDegrees>
            </Position>
            <AltitudeMeters>76.59999847412109375</AltitudeMeters>
            <DistanceMeters>NAN</DistanceMeters>
          </Trackpoint>
          <Trackpoint>
            <Time>2022-07-05T18:08:38.000Z</Time>
            <Position>
              <LatitudeDegrees>44.168840087950229644775390625</LatitudeDegrees>
              <LongitudeDegrees>-1.03881427086889743804931640625</LongitudeDegrees>
            </Position>
            <AltitudeMeters>76.8000030517578125</AltitudeMeters>
            <DistanceMeters>NAN</DistanceMeters>
          </Trackpoint>
          <Trackpoint>
            <Time>2022-07-05T18:08:41.000Z</Time>
            <Position>
              <LatitudeDegrees>44.168710671365261077880859375</LatitudeDegrees>
              <LongitudeDegrees>-1.0387462936341762542724609375</LongitudeDegrees>
            </Position>
            <AltitudeMeters>76.8000030517578125</AltitudeMeters>
            <DistanceMeters>NAN</DistanceMeters>
          </Trackpoint>
          <Trackpoint>
            <Time>2022-07-05T18:08:46.000Z</Time>
            <Position>
              <LatitudeDegrees>44.16851964779198169708251953125</LatitudeDegrees>
              <LongitudeDegrees>-1.03856683708727359771728515625</LongitudeDegrees>
            </Position>
            <AltitudeMeters>76.59999847412109375</AltitudeMeters>
            <DistanceMeters>NAN</DistanceMeters>
          </Trackpoint>
          <Trackpoint>
            <Time>2022-07-05T18:08:48.000Z</Time>
            <Position>
              <LatitudeDegrees>44.1684510000050067901611328125</LatitudeDegrees>
              <LongitudeDegrees>-1.03845250792801380157470703125</LongitudeDegrees>
            </Position>
            <AltitudeMeters>76.40000152587890625</AltitudeMeters>
            <DistanceMeters>NAN</DistanceMeters>
          </Trackpoint>
          <Trackpoint>
            <Time>2022-07-05T18:08:51.000Z</Time>
            <Position>
              <LatitudeDegrees>44.16835921816527843475341796875</LatitudeDegrees>
              <LongitudeDegrees>-1.03824145160615444183349609375</LongitudeDegrees>
            </Position>
            <AltitudeMeters>76.1999969482421875</AltitudeMeters>
            <DistanceMeters>NAN</DistanceMeters>
          </Trackpoint>
          <Trackpoint>
            <Time>2022-07-05T18:08:53.000Z</Time>
            <Position>
              <LatitudeDegrees>44.16830507107079029083251953125</LatitudeDegrees>
              <LongitudeDegrees>-1.03809258900582790374755859375</LongitudeDegrees>
            </Position>
            <AltitudeMeters>76</AltitudeMeters>
            <DistanceMeters>NAN</DistanceMeters>
          </Trackpoint>
          <Trackpoint>
            <Time>2022-07-05T18:08:55.000Z</Time>
            <Position>
              <LatitudeDegrees>44.1682525165379047393798828125</LatitudeDegrees>
              <LongitudeDegrees>-1.03793433867394924163818359375</LongitudeDegrees>
            </Position>
            <AltitudeMeters>75.8000030517578125</AltitudeMeters>
            <DistanceMeters>NAN</DistanceMeters>
          </Trackpoint>
          <Trackpoint>
            <Time>2022-07-05T18:08:56.000Z</Time>
            <Position>
              <LatitudeDegrees>44.16822460480034351348876953125</LatitudeDegrees>
              <LongitudeDegrees>-1.03785051964223384857177734375</LongitudeDegrees>
            </Position>
            <AltitudeMeters>75.8000030517578125</AltitudeMeters>
            <DistanceMeters>NAN</DistanceMeters>
          </Trackpoint>
          <Trackpoint>
            <Time>2022-07-05T18:09:00.000Z</Time>
            <Position>
              <LatitudeDegrees>44.16811044327914714813232421875</LatitudeDegrees>
              <LongitudeDegrees>-1.03753083385527133941650390625</LongitudeDegrees>
            </Position>
            <AltitudeMeters>74.59999847412109375</AltitudeMeters>
            <DistanceMeters>NAN</DistanceMeters>
          </Trackpoint>
          <Trackpoint>
            <Time>2022-07-05T18:09:01.000Z</Time>
            <Position>
              <LatitudeDegrees>44.16807037778198719024658203125</LatitudeDegrees>
              <LongitudeDegrees>-1.03745497763156890869140625</LongitudeDegrees>
            </Position>
            <AltitudeMeters>74.40000152587890625</AltitudeMeters>
            <DistanceMeters>NAN</DistanceMeters>
          </Trackpoint>
          <Trackpoint>
            <Time>2022-07-05T18:09:02.000Z</Time>
            <Position>
              <LatitudeDegrees>44.16802947409451007843017578125</LatitudeDegrees>
              <LongitudeDegrees>-1.03738850913941860198974609375</LongitudeDegrees>
            </Position>
            <AltitudeMeters>74</AltitudeMeters>
            <DistanceMeters>NAN</DistanceMeters>
          </Trackpoint>
          <Trackpoint>
            <Time>2022-07-05T18:09:04.000Z</Time>
            <Position>
              <LatitudeDegrees>44.1679450683295726776123046875</LatitudeDegrees>
              <LongitudeDegrees>-1.0372714139521121978759765625</LongitudeDegrees>
            </Position>
            <AltitudeMeters>73.8000030517578125</AltitudeMeters>
            <DistanceMeters>NAN</DistanceMeters>
          </Trackpoint>
          <Trackpoint>
            <Time>2022-07-05T18:09:05.000Z</Time>
            <Position>
              <LatitudeDegrees>44.1678954474627971649169921875</LatitudeDegrees>
              <LongitudeDegrees>-1.03721852414309978485107421875</LongitudeDegrees>
            </Position>
            <AltitudeMeters>73.59999847412109375</AltitudeMeters>
            <DistanceMeters>NAN</DistanceMeters>
          </Trackpoint>
          <Trackpoint>
            <Time>2022-07-05T18:09:06.000Z</Time>
            <Position>
              <LatitudeDegrees>44.16784121654927730560302734375</LatitudeDegrees>
              <LongitudeDegrees>-1.037170998752117156982421875</LongitudeDegrees>
            </Position>
            <AltitudeMeters>73.1999969482421875</AltitudeMeters>
            <DistanceMeters>NAN</DistanceMeters>
          </Trackpoint>
          <Trackpoint>
            <Time>2022-07-05T18:09:07.000Z</Time>
            <Position>
              <LatitudeDegrees>44.16778740473091602325439453125</LatitudeDegrees>
              <LongitudeDegrees>-1.03713001124560832977294921875</LongitudeDegrees>
            </Position>
            <AltitudeMeters>73</AltitudeMeters>
            <DistanceMeters>NAN</DistanceMeters>
          </Trackpoint>
          <Trackpoint>
            <Time>2022-07-05T18:09:11.000Z</Time>
            <Position>
              <LatitudeDegrees>44.16758355684578418731689453125</LatitudeDegrees>
              <LongitudeDegrees>-1.03699757717549800872802734375</LongitudeDegrees>
            </Position>
            <AltitudeMeters>73</AltitudeMeters>
            <DistanceMeters>NAN</DistanceMeters>
          </Trackpoint>
          <Trackpoint>
            <Time>2022-07-05T18:09:12.000Z</Time>
            <Position>
              <LatitudeDegrees>44.167529158294200897216796875</LatitudeDegrees>
              <LongitudeDegrees>-1.03697544895112514495849609375</LongitudeDegrees>
            </Position>
            <AltitudeMeters>73.1999969482421875</AltitudeMeters>
            <DistanceMeters>NAN</DistanceMeters>
          </Trackpoint>
          <Trackpoint>
            <Time>2022-07-05T18:09:13.000Z</Time>
            <Position>
              <LatitudeDegrees>44.16747878305613994598388671875</LatitudeDegrees>
              <LongitudeDegrees>-1.03695298545062541961669921875</LongitudeDegrees>
            </Position>
            <AltitudeMeters>73.1999969482421875</AltitudeMeters>
            <DistanceMeters>NAN</DistanceMeters>
          </Trackpoint>
          <Trackpoint>
            <Time>2022-07-05T18:09:16.000Z</Time>
            <Position>
              <LatitudeDegrees>44.16735959239304065704345703125</LatitudeDegrees>
              <LongitudeDegrees>-1.03685952723026275634765625</LongitudeDegrees>
            </Position>
            <AltitudeMeters>73.40000152587890625</AltitudeMeters>
            <DistanceMeters>NAN</DistanceMeters>
          </Trackpoint>
          <Trackpoint>
            <Time>2022-07-05T18:09:20.000Z</Time>
            <Position>
              <LatitudeDegrees>44.16720201261341571807861328125</LatitudeDegrees>
              <LongitudeDegrees>-1.0368140973150730133056640625</LongitudeDegrees>
            </Position>
            <AltitudeMeters>73.8000030517578125</AltitudeMeters>
            <DistanceMeters>NAN</DistanceMeters>
          </Trackpoint>
          <Trackpoint>
            <Time>2022-07-05T18:09:22.000Z</Time>
            <Position>
              <LatitudeDegrees>44.1671290062367916107177734375</LatitudeDegrees>
              <LongitudeDegrees>-1.03677101433277130126953125</LongitudeDegrees>
            </Position>
            <AltitudeMeters>74.1999969482421875</AltitudeMeters>
            <DistanceMeters>NAN</DistanceMeters>
          </Trackpoint>
          <Trackpoint>
            <Time>2022-07-05T18:09:25.000Z</Time>
            <Position>
              <LatitudeDegrees>44.16703588329255580902099609375</LatitudeDegrees>
              <LongitudeDegrees>-1.0366997681558132171630859375</LongitudeDegrees>
            </Position>
            <AltitudeMeters>74.8000030517578125</AltitudeMeters>
            <DistanceMeters>NAN</DistanceMeters>
          </Trackpoint>
          <Trackpoint>
            <Time>2022-07-05T18:09:27.000Z</Time>
            <Position>
              <LatitudeDegrees>44.16698307730257511138916015625</LatitudeDegrees>
              <LongitudeDegrees>-1.03667319752275943756103515625</LongitudeDegrees>
            </Position>
            <AltitudeMeters>75.1999969482421875</AltitudeMeters>
            <DistanceMeters>NAN</DistanceMeters>
          </Trackpoint>
          <Trackpoint>
            <Time>2022-07-05T18:09:30.000Z</Time>
            <Position>
              <LatitudeDegrees>44.16691736318171024322509765625</LatitudeDegrees>
              <LongitudeDegrees>-1.03663313202559947967529296875</LongitudeDegrees>
            </Position>
            <AltitudeMeters>75.8000030517578125</AltitudeMeters>
            <DistanceMeters>NAN</DistanceMeters>
          </Trackpoint>
          <Trackpoint>
            <Time>2022-07-05T18:09:32.000Z</Time>
            <Position>
              <LatitudeDegrees>44.16687578894197940826416015625</LatitudeDegrees>
              <LongitudeDegrees>-1.0366035439074039459228515625</LongitudeDegrees>
            </Position>
            <AltitudeMeters>76</AltitudeMeters>
            <DistanceMeters>NAN</DistanceMeters>
          </Trackpoint>
          <Trackpoint>
            <Time>2022-07-05T18:09:34.000Z</Time>
            <Position>
              <LatitudeDegrees>44.16684175841510295867919921875</LatitudeDegrees>
              <LongitudeDegrees>-1.036559455096721649169921875</LongitudeDegrees>
            </Position>
            <AltitudeMeters>76</AltitudeMeters>
            <DistanceMeters>NAN</DistanceMeters>
          </Trackpoint>
          <Trackpoint>
            <Time>2022-07-05T18:09:42.000Z</Time>
            <Position>
              <LatitudeDegrees>44.1666673310101032257080078125</LatitudeDegrees>
              <LongitudeDegrees>-1.0364318825304508209228515625</LongitudeDegrees>
            </Position>
            <AltitudeMeters>76.8000030517578125</AltitudeMeters>
            <DistanceMeters>NAN</DistanceMeters>
          </Trackpoint>
          <Trackpoint>
            <Time>2022-07-05T18:09:43.000Z</Time>
            <Position>
              <LatitudeDegrees>44.16664880700409412384033203125</LatitudeDegrees>
              <LongitudeDegrees>-1.0364137776196002960205078125</LongitudeDegrees>
            </Position>
            <AltitudeMeters>76.8000030517578125</AltitudeMeters>
            <DistanceMeters>NAN</DistanceMeters>
          </Trackpoint>
          <Trackpoint>
            <Time>2022-07-05T18:09:46.000Z</Time>
            <Position>
              <LatitudeDegrees>44.1665932349860668182373046875</LatitudeDegrees>
              <LongitudeDegrees>-1.03634747676551342010498046875</LongitudeDegrees>
            </Position>
            <AltitudeMeters>77</AltitudeMeters>
            <DistanceMeters>NAN</DistanceMeters>
          </Trackpoint>
          <Trackpoint>
            <Time>2022-07-05T18:09:49.000Z</Time>
            <Position>
              <LatitudeDegrees>44.1665389202535152435302734375</LatitudeDegrees>
              <LongitudeDegrees>-1.036287210881710052490234375</LongitudeDegrees>
            </Position>
            <AltitudeMeters>77.8000030517578125</AltitudeMeters>
            <DistanceMeters>NAN</DistanceMeters>
          </Trackpoint>
          <Trackpoint>
            <Time>2022-07-05T18:09:50.000Z</Time>
            <Position>
              <LatitudeDegrees>44.16651922278106212615966796875</LatitudeDegrees>
              <LongitudeDegrees>-1.036267094314098358154296875</LongitudeDegrees>
            </Position>
            <AltitudeMeters>77.8000030517578125</AltitudeMeters>
            <DistanceMeters>NAN</DistanceMeters>
          </Trackpoint>
          <Trackpoint>
            <Time>2022-07-05T18:09:51.000Z</Time>
            <Position>
              <LatitudeDegrees>44.1665013693273067474365234375</LatitudeDegrees>
              <LongitudeDegrees>-1.03624404408037662506103515625</LongitudeDegrees>
            </Position>
            <AltitudeMeters>78</AltitudeMeters>
            <DistanceMeters>NAN</DistanceMeters>
          </Trackpoint>
          <Trackpoint>
            <Time>2022-07-05T18:09:52.000Z</Time>
            <Position>
              <LatitudeDegrees>44.16648183949291706085205078125</LatitudeDegrees>
              <LongitudeDegrees>-1.03622091002762317657470703125</LongitudeDegrees>
            </Position>
            <AltitudeMeters>78</AltitudeMeters>
            <DistanceMeters>NAN</DistanceMeters>
          </Trackpoint>
          <Trackpoint>
            <Time>2022-07-05T18:09:57.000Z</Time>
            <Position>
              <LatitudeDegrees>44.16638628579676151275634765625</LatitudeDegrees>
              <LongitudeDegrees>-1.03612468577921390533447265625</LongitudeDegrees>
            </Position>
            <AltitudeMeters>78.40000152587890625</AltitudeMeters>
            <DistanceMeters>NAN</DistanceMeters>
          </Trackpoint>
          <Trackpoint>
            <Time>2022-07-05T18:10:00.000Z</Time>
            <Position>
              <LatitudeDegrees>44.16632526554167270660400390625</LatitudeDegrees>
              <LongitudeDegrees>-1.0360738076269626617431640625</LongitudeDegrees>
            </Position>
            <AltitudeMeters>79</AltitudeMeters>
            <DistanceMeters>NAN</DistanceMeters>
          </Trackpoint>
          <Trackpoint>
            <Time>2022-07-05T18:10:04.000Z</Time>
            <Position>
              <LatitudeDegrees>44.16625888086855411529541015625</LatitudeDegrees>
              <LongitudeDegrees>-1.03600616566836833953857421875</LongitudeDegrees>
            </Position>
            <AltitudeMeters>79.59999847412109375</AltitudeMeters>
            <DistanceMeters>NAN</DistanceMeters>
          </Trackpoint>
          <Trackpoint>
            <Time>2022-07-05T18:10:11.000Z</Time>
            <Position>
              <LatitudeDegrees>44.1661292128264904022216796875</LatitudeDegrees>
              <LongitudeDegrees>-1.03586853481829166412353515625</LongitudeDegrees>
            </Position>
            <AltitudeMeters>80</AltitudeMeters>
            <DistanceMeters>NAN</DistanceMeters>
          </Trackpoint>
          <Trackpoint>
            <Time>2022-07-05T18:10:14.000Z</Time>
            <Position>
              <LatitudeDegrees>44.16607431136071681976318359375</LatitudeDegrees>
              <LongitudeDegrees>-1.035818494856357574462890625</LongitudeDegrees>
            </Position>
            <AltitudeMeters>80.1999969482421875</AltitudeMeters>
            <DistanceMeters>NAN</DistanceMeters>
          </Trackpoint>
          <Trackpoint>
            <Time>2022-07-05T18:10:21.000Z</Time>
            <Position>
              <LatitudeDegrees>44.16594875045120716094970703125</LatitudeDegrees>
              <LongitudeDegrees>-1.0357123799622058868408203125</LongitudeDegrees>
            </Position>
            <AltitudeMeters>81</AltitudeMeters>
            <DistanceMeters>NAN</DistanceMeters>
          </Trackpoint>
          <Trackpoint>
            <Time>2022-07-05T18:10:22.000Z</Time>
            <Position>
              <LatitudeDegrees>44.165928550064563751220703125</LatitudeDegrees>
              <LongitudeDegrees>-1.03569737635552883148193359375</LongitudeDegrees>
            </Position>
            <AltitudeMeters>81</AltitudeMeters>
            <DistanceMeters>NAN</DistanceMeters>
          </Trackpoint>
          <Trackpoint>
            <Time>2022-07-05T18:10:32.000Z</Time>
            <Position>
              <LatitudeDegrees>44.1657282225787639617919921875</LatitudeDegrees>
              <LongitudeDegrees>-1.03551884181797504425048828125</LongitudeDegrees>
            </Position>
            <AltitudeMeters>81.59999847412109375</AltitudeMeters>
            <DistanceMeters>NAN</DistanceMeters>
          </Trackpoint>
          <Trackpoint>
            <Time>2022-07-05T18:10:36.000Z</Time>
            <Position>
              <LatitudeDegrees>44.16564725339412689208984375</LatitudeDegrees>
              <LongitudeDegrees>-1.0354528762400150299072265625</LongitudeDegrees>
            </Position>
            <AltitudeMeters>82</AltitudeMeters>
            <DistanceMeters>NAN</DistanceMeters>
          </Trackpoint>
          <Trackpoint>
            <Time>2022-07-05T18:10:40.000Z</Time>
            <Position>
              <LatitudeDegrees>44.16558950208127498626708984375</LatitudeDegrees>
              <LongitudeDegrees>-1.03539311327040195465087890625</LongitudeDegrees>
            </Position>
            <AltitudeMeters>82.1999969482421875</AltitudeMeters>
            <DistanceMeters>NAN</DistanceMeters>
          </Trackpoint>
          <Trackpoint>
            <Time>2022-07-05T18:10:45.000Z</Time>
            <Position>
              <LatitudeDegrees>44.16548036970198154449462890625</LatitudeDegrees>
              <LongitudeDegrees>-1.03531734086573123931884765625</LongitudeDegrees>
            </Position>
            <AltitudeMeters>82.40000152587890625</AltitudeMeters>
            <DistanceMeters>NAN</DistanceMeters>
          </Trackpoint>
          <Trackpoint>
            <Time>2022-07-05T18:10:46.000Z</Time>
            <Position>
              <LatitudeDegrees>44.1654596664011478424072265625</LatitudeDegrees>
              <LongitudeDegrees>-1.03530124761164188385009765625</LongitudeDegrees>
            </Position>
            <AltitudeMeters>82.40000152587890625</AltitudeMeters>
            <DistanceMeters>NAN</DistanceMeters>
          </Trackpoint>
          <Trackpoint>
            <Time>2022-07-05T18:10:53.000Z</Time>
            <Position>
              <LatitudeDegrees>44.16529529727995395660400390625</LatitudeDegrees>
              <LongitudeDegrees>-1.03520921431481838226318359375</LongitudeDegrees>
            </Position>
            <AltitudeMeters>82.59999847412109375</AltitudeMeters>
            <DistanceMeters>NAN</DistanceMeters>
          </Trackpoint>
          <Trackpoint>
            <Time>2022-07-05T18:10:56.000Z</Time>
            <Position>
              <LatitudeDegrees>44.16522002778947353363037109375</LatitudeDegrees>
              <LongitudeDegrees>-1.03517107665538787841796875</LongitudeDegrees>
            </Position>
            <AltitudeMeters>82.8000030517578125</AltitudeMeters>
            <DistanceMeters>NAN</DistanceMeters>
          </Trackpoint>
          <Trackpoint>
            <Time>2022-07-05T18:10:57.000Z</Time>
            <Position>
              <LatitudeDegrees>44.16519974358379840850830078125</LatitudeDegrees>
              <LongitudeDegrees>-1.03515758179128170013427734375</LongitudeDegrees>
            </Position>
            <AltitudeMeters>82.8000030517578125</AltitudeMeters>
            <DistanceMeters>NAN</DistanceMeters>
          </Trackpoint>
          <Trackpoint>
            <Time>2022-07-05T18:10:59.000Z</Time>
            <Position>
              <LatitudeDegrees>44.16515213437378406524658203125</LatitudeDegrees>
              <LongitudeDegrees>-1.03511768393218517303466796875</LongitudeDegrees>
            </Position>
            <AltitudeMeters>83</AltitudeMeters>
            <DistanceMeters>NAN</DistanceMeters>
          </Trackpoint>
          <Trackpoint>
            <Time>2022-07-05T18:11:00.000Z</Time>
            <Position>
              <LatitudeDegrees>44.16512849740684032440185546875</LatitudeDegrees>
              <LongitudeDegrees>-1.03510494343936443328857421875</LongitudeDegrees>
            </Position>
            <AltitudeMeters>83</AltitudeMeters>
            <DistanceMeters>NAN</DistanceMeters>
          </Trackpoint>
          <Trackpoint>
            <Time>2022-07-05T18:11:02.000Z</Time>
            <Position>
              <LatitudeDegrees>44.16508373804390430450439453125</LatitudeDegrees>
              <LongitudeDegrees>-1.0350830666720867156982421875</LongitudeDegrees>
            </Position>
            <AltitudeMeters>83.1999969482421875</AltitudeMeters>
            <DistanceMeters>NAN</DistanceMeters>
          </Trackpoint>
          <Trackpoint>
            <Time>2022-07-05T18:11:07.000Z</Time>
            <Position>
              <LatitudeDegrees>44.16498432867228984832763671875</LatitudeDegrees>
              <LongitudeDegrees>-1.03499849326908588409423828125</LongitudeDegrees>
            </Position>
            <AltitudeMeters>83.59999847412109375</AltitudeMeters>
            <DistanceMeters>NAN</DistanceMeters>
          </Trackpoint>
          <Trackpoint>
            <Time>2022-07-05T18:11:11.000Z</Time>
            <Position>
              <LatitudeDegrees>44.164899252355098724365234375</LatitudeDegrees>
              <LongitudeDegrees>-1.03493504226207733154296875</LongitudeDegrees>
            </Position>
            <AltitudeMeters>83.8000030517578125</AltitudeMeters>
            <DistanceMeters>NAN</DistanceMeters>
          </Trackpoint>
          <Trackpoint>
            <Time>2022-07-05T18:11:14.000Z</Time>
            <Position>
              <LatitudeDegrees>44.16482037864625453948974609375</LatitudeDegrees>
              <LongitudeDegrees>-1.034874357283115386962890625</LongitudeDegrees>
            </Position>
            <AltitudeMeters>84</AltitudeMeters>
            <DistanceMeters>NAN</DistanceMeters>
          </Trackpoint>
          <Trackpoint>
            <Time>2022-07-05T18:11:16.000Z</Time>
            <Position>
              <LatitudeDegrees>44.16475986130535602569580078125</LatitudeDegrees>
              <LongitudeDegrees>-1.03483588434755802154541015625</LongitudeDegrees>
            </Position>
            <AltitudeMeters>84</AltitudeMeters>
            <DistanceMeters>NAN</DistanceMeters>
          </Trackpoint>
          <Trackpoint>
            <Time>2022-07-05T18:11:25.000Z</Time>
            <Position>
              <LatitudeDegrees>44.1645343042910099029541015625</LatitudeDegrees>
              <LongitudeDegrees>-1.03469288907945156097412109375</LongitudeDegrees>
            </Position>
            <AltitudeMeters>84.40000152587890625</AltitudeMeters>
            <DistanceMeters>NAN</DistanceMeters>
          </Trackpoint>
          <Trackpoint>
            <Time>2022-07-05T18:11:33.000Z</Time>
            <Position>
              <LatitudeDegrees>44.16432383470237255096435546875</LatitudeDegrees>
              <LongitudeDegrees>-1.0345627181231975555419921875</LongitudeDegrees>
            </Position>
            <AltitudeMeters>84.1999969482421875</AltitudeMeters>
            <DistanceMeters>NAN</DistanceMeters>
          </Trackpoint>
          <Trackpoint>
            <Time>2022-07-05T18:11:37.000Z</Time>
            <Position>
              <LatitudeDegrees>44.16422224603593349456787109375</LatitudeDegrees>
              <LongitudeDegrees>-1.034495495259761810302734375</LongitudeDegrees>
            </Position>
            <AltitudeMeters>83.8000030517578125</AltitudeMeters>
            <DistanceMeters>NAN</DistanceMeters>
          </Trackpoint>
          <Trackpoint>
            <Time>2022-07-05T18:11:39.000Z</Time>
            <Position>
              <LatitudeDegrees>44.1641805879771709442138671875</LatitudeDegrees>
              <LongitudeDegrees>-1.03447043336927890777587890625</LongitudeDegrees>
            </Position>
            <AltitudeMeters>83.40000152587890625</AltitudeMeters>
            <DistanceMeters>NAN</DistanceMeters>
          </Trackpoint>
          <Trackpoint>
            <Time>2022-07-05T18:11:40.000Z</Time>
            <Position>
              <LatitudeDegrees>44.164163656532764434814453125</LatitudeDegrees>
              <LongitudeDegrees>-1.0344569385051727294921875</LongitudeDegrees>
            </Position>
            <AltitudeMeters>83.40000152587890625</AltitudeMeters>
            <DistanceMeters>NAN</DistanceMeters>
          </Trackpoint>
          <Trackpoint>
            <Time>2022-07-05T18:11:47.000Z</Time>
            <Position>
              <LatitudeDegrees>44.16403935290873050689697265625</LatitudeDegrees>
              <LongitudeDegrees>-1.0343065671622753143310546875</LongitudeDegrees>
            </Position>
            <AltitudeMeters>83.8000030517578125</AltitudeMeters>
            <DistanceMeters>NAN</DistanceMeters>
          </Trackpoint>
          <Trackpoint>
            <Time>2022-07-05T18:11:51.000Z</Time>
            <Position>
              <LatitudeDegrees>44.16405804455280303955078125</LatitudeDegrees>
              <LongitudeDegrees>-1.0341647453606128692626953125</LongitudeDegrees>
            </Position>
            <AltitudeMeters>84</AltitudeMeters>
            <DistanceMeters>NAN</DistanceMeters>
          </Trackpoint>
          <Trackpoint>
            <Time>2022-07-05T18:11:57.000Z</Time>
            <Position>
              <LatitudeDegrees>44.16405008174479007720947265625</LatitudeDegrees>
              <LongitudeDegrees>-1.0339220054447650909423828125</LongitudeDegrees>
            </Position>
            <AltitudeMeters>84.1999969482421875</AltitudeMeters>
            <DistanceMeters>NAN</DistanceMeters>
          </Trackpoint>
          <Trackpoint>
            <Time>2022-07-05T18:11:59.000Z</Time>
            <Position>
              <LatitudeDegrees>44.1640555299818515777587890625</LatitudeDegrees>
              <LongitudeDegrees>-1.03384480811655521392822265625</LongitudeDegrees>
            </Position>
            <AltitudeMeters>84.1999969482421875</AltitudeMeters>
            <DistanceMeters>NAN</DistanceMeters>
          </Trackpoint>
          <Trackpoint>
            <Time>2022-07-05T18:12:05.000Z</Time>
            <Position>
              <LatitudeDegrees>44.16401940397918224334716796875</LatitudeDegrees>
              <LongitudeDegrees>-1.03364850394427776336669921875</LongitudeDegrees>
            </Position>
            <AltitudeMeters>83.8000030517578125</AltitudeMeters>
            <DistanceMeters>NAN</DistanceMeters>
          </Trackpoint>
          <Trackpoint>
            <Time>2022-07-05T18:12:13.000Z</Time>
            <Position>
              <LatitudeDegrees>44.1638785041868686676025390625</LatitudeDegrees>
              <LongitudeDegrees>-1.0334573127329349517822265625</LongitudeDegrees>
            </Position>
            <AltitudeMeters>84.1999969482421875</AltitudeMeters>
            <DistanceMeters>NAN</DistanceMeters>
          </Trackpoint>
          <Trackpoint>
            <Time>2022-07-05T18:12:20.000Z</Time>
            <Position>
              <LatitudeDegrees>44.1637581400573253631591796875</LatitudeDegrees>
              <LongitudeDegrees>-1.03326863609254360198974609375</LongitudeDegrees>
            </Position>
            <AltitudeMeters>84.40000152587890625</AltitudeMeters>
            <DistanceMeters>NAN</DistanceMeters>
          </Trackpoint>
          <Trackpoint>
            <Time>2022-07-05T18:12:21.000Z</Time>
            <Position>
              <LatitudeDegrees>44.163738191127777099609375</LatitudeDegrees>
              <LongitudeDegrees>-1.03326075710356235504150390625</LongitudeDegrees>
            </Position>
            <AltitudeMeters>84.40000152587890625</AltitudeMeters>
            <DistanceMeters>NAN</DistanceMeters>
          </Trackpoint>
          <Trackpoint>
            <Time>2022-07-05T18:12:24.000Z</Time>
            <Position>
              <LatitudeDegrees>44.163669459521770477294921875</LatitudeDegrees>
              <LongitudeDegrees>-1.03329612873494625091552734375</LongitudeDegrees>
            </Position>
            <AltitudeMeters>84.40000152587890625</AltitudeMeters>
            <DistanceMeters>NAN</DistanceMeters>
          </Trackpoint>
          <Trackpoint>
            <Time>2022-07-05T18:12:29.000Z</Time>
            <Position>
              <LatitudeDegrees>44.1635951958596706390380859375</LatitudeDegrees>
              <LongitudeDegrees>-1.03345085866749286651611328125</LongitudeDegrees>
            </Position>
            <AltitudeMeters>84.8000030517578125</AltitudeMeters>
            <DistanceMeters>NAN</DistanceMeters>
          </Trackpoint>
          <Trackpoint>
            <Time>2022-07-05T18:12:31.000Z</Time>
            <Position>
              <LatitudeDegrees>44.16361288167536258697509765625</LatitudeDegrees>
              <LongitudeDegrees>-1.03350785560905933380126953125</LongitudeDegrees>
            </Position>
            <AltitudeMeters>84.8000030517578125</AltitudeMeters>
            <DistanceMeters>NAN</DistanceMeters>
          </Trackpoint>
          <Trackpoint>
            <Time>2022-07-05T18:12:33.000Z</Time>
            <Position>
              <LatitudeDegrees>44.1636510193347930908203125</LatitudeDegrees>
              <LongitudeDegrees>-1.0335595719516277313232421875</LongitudeDegrees>
            </Position>
            <AltitudeMeters>84.8000030517578125</AltitudeMeters>
            <DistanceMeters>NAN</DistanceMeters>
          </Trackpoint>
          <Trackpoint>
            <Time>2022-07-05T18:12:39.000Z</Time>
            <Position>
              <LatitudeDegrees>44.1637641750276088714599609375</LatitudeDegrees>
              <LongitudeDegrees>-1.0336383618414402008056640625</LongitudeDegrees>
            </Position>
            <AltitudeMeters>84.8000030517578125</AltitudeMeters>
            <DistanceMeters>NAN</DistanceMeters>
          </Trackpoint>
          <Trackpoint>
            <Time>2022-07-05T18:12:40.000Z</Time>
            <Position>
              <LatitudeDegrees>44.16377733461558818817138671875</LatitudeDegrees>
              <LongitudeDegrees>-1.03364397771656513214111328125</LongitudeDegrees>
            </Position>
            <AltitudeMeters>84.8000030517578125</AltitudeMeters>
            <DistanceMeters>NAN</DistanceMeters>
          </Trackpoint>
          <Trackpoint>
            <Time>2022-07-05T18:12:44.000Z</Time>
            <Position>
              <LatitudeDegrees>44.16380700655281543731689453125</LatitudeDegrees>
              <LongitudeDegrees>-1.03366292081773281097412109375</LongitudeDegrees>
            </Position>
            <AltitudeMeters>84.40000152587890625</AltitudeMeters>
            <DistanceMeters>NAN</DistanceMeters>
          </Trackpoint>
          <Trackpoint>
            <Time>2022-07-05T18:12:45.000Z</Time>
            <Position>
              <LatitudeDegrees>44.16380818001925945281982421875</LatitudeDegrees>
              <LongitudeDegrees>-1.03366945870220661163330078125</LongitudeDegrees>
            </Position>
            <AltitudeMeters>84.40000152587890625</AltitudeMeters>
            <DistanceMeters>NAN</DistanceMeters>
          </Trackpoint>
          <Trackpoint>
            <Time>2022-07-06T07:29:12.000Z</Time>
            <Position>
              <LatitudeDegrees>44.16443749330937862396240234375</LatitudeDegrees>
              <LongitudeDegrees>-1.03344834409654140472412109375</LongitudeDegrees>
            </Position>
            <AltitudeMeters>61.200000762939453125</AltitudeMeters>
            <DistanceMeters>NAN</DistanceMeters>
          </Trackpoint>
          <Trackpoint>
            <Time>2022-07-06T07:29:15.000Z</Time>
            <Position>
              <LatitudeDegrees>44.16444453410804271697998046875</LatitudeDegrees>
              <LongitudeDegrees>-1.03350617922842502593994140625</LongitudeDegrees>
            </Position>
            <AltitudeMeters>61</AltitudeMeters>
            <DistanceMeters>NAN</DistanceMeters>
          </Trackpoint>
          <Trackpoint>
            <Time>2022-07-06T07:29:17.000Z</Time>
            <Position>
              <LatitudeDegrees>44.1644219867885112762451171875</LatitudeDegrees>
              <LongitudeDegrees>-1.03354029357433319091796875</LongitudeDegrees>
            </Position>
            <AltitudeMeters>60.59999847412109375</AltitudeMeters>
            <DistanceMeters>NAN</DistanceMeters>
          </Trackpoint>
          <Trackpoint>
            <Time>2022-07-06T07:29:23.000Z</Time>
            <Position>
              <LatitudeDegrees>44.1642918996512889862060546875</LatitudeDegrees>
              <LongitudeDegrees>-1.0336078517138957977294921875</LongitudeDegrees>
            </Position>
            <AltitudeMeters>60.59999847412109375</AltitudeMeters>
            <DistanceMeters>NAN</DistanceMeters>
          </Trackpoint>
          <Trackpoint>
            <Time>2022-07-06T07:29:30.000Z</Time>
            <Position>
              <LatitudeDegrees>44.16414580307900905609130859375</LatitudeDegrees>
              <LongitudeDegrees>-1.0337030701339244842529296875</LongitudeDegrees>
            </Position>
            <AltitudeMeters>60.59999847412109375</AltitudeMeters>
            <DistanceMeters>NAN</DistanceMeters>
          </Trackpoint>
          <Trackpoint>
            <Time>2022-07-06T07:29:31.000Z</Time>
            <Position>
              <LatitudeDegrees>44.16413038037717342376708984375</LatitudeDegrees>
              <LongitudeDegrees>-1.033722348511219024658203125</LongitudeDegrees>
            </Position>
            <AltitudeMeters>60.59999847412109375</AltitudeMeters>
            <DistanceMeters>NAN</DistanceMeters>
          </Trackpoint>
          <Trackpoint>
            <Time>2022-07-06T07:29:32.000Z</Time>
            <Position>
              <LatitudeDegrees>44.1641155444085597991943359375</LatitudeDegrees>
              <LongitudeDegrees>-1.0337386094033718109130859375</LongitudeDegrees>
            </Position>
            <AltitudeMeters>60.59999847412109375</AltitudeMeters>
            <DistanceMeters>NAN</DistanceMeters>
          </Trackpoint>
          <Trackpoint>
            <Time>2022-07-06T07:29:34.000Z</Time>
            <Position>
              <LatitudeDegrees>44.16410339064896106719970703125</LatitudeDegrees>
              <LongitudeDegrees>-1.033742465078830718994140625</LongitudeDegrees>
            </Position>
            <AltitudeMeters>60.40000152587890625</AltitudeMeters>
            <DistanceMeters>NAN</DistanceMeters>
          </Trackpoint>
          <Trackpoint>
            <Time>2022-07-06T07:30:56.000Z</Time>
            <Position>
              <LatitudeDegrees>44.1640763171017169952392578125</LatitudeDegrees>
              <LongitudeDegrees>-1.03376903571188449859619140625</LongitudeDegrees>
            </Position>
            <AltitudeMeters>58.799999237060546875</AltitudeMeters>
            <DistanceMeters>NAN</DistanceMeters>
          </Trackpoint>
          <Trackpoint>
            <Time>2022-07-06T07:30:57.000Z</Time>
            <Position>
              <LatitudeDegrees>44.1640721261501312255859375</LatitudeDegrees>
              <LongitudeDegrees>-1.03379644453525543212890625</LongitudeDegrees>
            </Position>
            <AltitudeMeters>58.799999237060546875</AltitudeMeters>
            <DistanceMeters>NAN</DistanceMeters>
          </Trackpoint>
          <Trackpoint>
            <Time>2022-07-06T07:31:02.000Z</Time>
            <Position>
              <LatitudeDegrees>44.1640702821314334869384765625</LatitudeDegrees>
              <LongitudeDegrees>-1.03398554027080535888671875</LongitudeDegrees>
            </Position>
            <AltitudeMeters>58.40000152587890625</AltitudeMeters>
            <DistanceMeters>NAN</DistanceMeters>
          </Trackpoint>
          <Trackpoint>
            <Time>2022-07-06T07:31:06.000Z</Time>
            <Position>
              <LatitudeDegrees>44.164084531366825103759765625</LatitudeDegrees>
              <LongitudeDegrees>-1.03415787220001220703125</LongitudeDegrees>
            </Position>
            <AltitudeMeters>58.200000762939453125</AltitudeMeters>
            <DistanceMeters>NAN</DistanceMeters>
          </Trackpoint>
          <Trackpoint>
            <Time>2022-07-06T07:31:09.000Z</Time>
            <Position>
              <LatitudeDegrees>44.164103977382183074951171875</LatitudeDegrees>
              <LongitudeDegrees>-1.0342879593372344970703125</LongitudeDegrees>
            </Position>
            <AltitudeMeters>58</AltitudeMeters>
            <DistanceMeters>NAN</DistanceMeters>
          </Trackpoint>
          <Trackpoint>
            <Time>2022-07-06T07:31:13.000Z</Time>
            <Position>
              <LatitudeDegrees>44.1641450487077236175537109375</LatitudeDegrees>
              <LongitudeDegrees>-1.0344703495502471923828125</LongitudeDegrees>
            </Position>
            <AltitudeMeters>57.59999847412109375</AltitudeMeters>
            <DistanceMeters>NAN</DistanceMeters>
          </Trackpoint>
          <Trackpoint>
            <Time>2022-07-06T07:31:14.000Z</Time>
            <Position>
              <LatitudeDegrees>44.1641660034656524658203125</LatitudeDegrees>
              <LongitudeDegrees>-1.03449977003037929534912109375</LongitudeDegrees>
            </Position>
            <AltitudeMeters>57.59999847412109375</AltitudeMeters>
            <DistanceMeters>NAN</DistanceMeters>
          </Trackpoint>
          <Trackpoint>
            <Time>2022-07-06T07:31:16.000Z</Time>
            <Position>
              <LatitudeDegrees>44.16420715861022472381591796875</LatitudeDegrees>
              <LongitudeDegrees>-1.03449977003037929534912109375</LongitudeDegrees>
            </Position>
            <AltitudeMeters>57.59999847412109375</AltitudeMeters>
            <DistanceMeters>NAN</DistanceMeters>
          </Trackpoint>
          <Trackpoint>
            <Time>2022-07-06T07:31:17.000Z</Time>
            <Position>
              <LatitudeDegrees>44.16421839036047458648681640625</LatitudeDegrees>
              <LongitudeDegrees>-1.034481413662433624267578125</LongitudeDegrees>
            </Position>
            <AltitudeMeters>57.59999847412109375</AltitudeMeters>
            <DistanceMeters>NAN</DistanceMeters>
          </Trackpoint>
          <Trackpoint>
            <Time>2022-07-06T07:31:18.000Z</Time>
            <Position>
              <LatitudeDegrees>44.1642194800078868865966796875</LatitudeDegrees>
              <LongitudeDegrees>-1.03445685468614101409912109375</LongitudeDegrees>
            </Position>
            <AltitudeMeters>57.59999847412109375</AltitudeMeters>
            <DistanceMeters>NAN</DistanceMeters>
          </Trackpoint>
          <Trackpoint>
            <Time>2022-07-06T07:31:20.000Z</Time>
            <Position>
              <LatitudeDegrees>44.1642037220299243927001953125</LatitudeDegrees>
              <LongitudeDegrees>-1.0344369895756244659423828125</LongitudeDegrees>
            </Position>
            <AltitudeMeters>57.799999237060546875</AltitudeMeters>
            <DistanceMeters>NAN</DistanceMeters>
          </Trackpoint>
          <Trackpoint>
            <Time>2022-07-06T07:31:23.000Z</Time>
            <Position>
              <LatitudeDegrees>44.164192490279674530029296875</LatitudeDegrees>
              <LongitudeDegrees>-1.0344299487769603729248046875</LongitudeDegrees>
            </Position>
            <AltitudeMeters>57.799999237060546875</AltitudeMeters>
            <DistanceMeters>NAN</DistanceMeters>
          </Trackpoint>
          <Trackpoint>
            <Time>2022-07-06T07:32:13.000Z</Time>
            <Position>
              <LatitudeDegrees>44.1641463898122310638427734375</LatitudeDegrees>
              <LongitudeDegrees>-1.03448602370917797088623046875</LongitudeDegrees>
            </Position>
            <AltitudeMeters>57.59999847412109375</AltitudeMeters>
            <DistanceMeters>NAN</DistanceMeters>
          </Trackpoint>
          <Trackpoint>
            <Time>2022-07-06T07:32:18.000Z</Time>
            <Position>
              <LatitudeDegrees>44.1641738824546337127685546875</LatitudeDegrees>
              <LongitudeDegrees>-1.034785173833370208740234375</LongitudeDegrees>
            </Position>
            <AltitudeMeters>57.59999847412109375</AltitudeMeters>
            <DistanceMeters>NAN</DistanceMeters>
          </Trackpoint>
          <Trackpoint>
            <Time>2022-07-06T07:32:19.000Z</Time>
            <Position>
              <LatitudeDegrees>44.16418184526264667510986328125</LatitudeDegrees>
              <LongitudeDegrees>-1.03485650382936000823974609375</LongitudeDegrees>
            </Position>
            <AltitudeMeters>57.40000152587890625</AltitudeMeters>
            <DistanceMeters>NAN</DistanceMeters>
          </Trackpoint>
          <Trackpoint>
            <Time>2022-07-06T07:32:21.000Z</Time>
            <Position>
              <LatitudeDegrees>44.16417866013944149017333984375</LatitudeDegrees>
              <LongitudeDegrees>-1.034997738897800445556640625</LongitudeDegrees>
            </Position>
            <AltitudeMeters>56.799999237060546875</AltitudeMeters>
            <DistanceMeters>NAN</DistanceMeters>
          </Trackpoint>
          <Trackpoint>
            <Time>2022-07-06T07:32:22.000Z</Time>
            <Position>
              <LatitudeDegrees>44.164162315428256988525390625</LatitudeDegrees>
              <LongitudeDegrees>-1.03508801199495792388916015625</LongitudeDegrees>
            </Position>
            <AltitudeMeters>56.59999847412109375</AltitudeMeters>
            <DistanceMeters>NAN</DistanceMeters>
          </Trackpoint>
          <Trackpoint>
            <Time>2022-07-06T07:32:27.000Z</Time>
            <Position>
              <LatitudeDegrees>44.164028204977512359619140625</LatitudeDegrees>
              <LongitudeDegrees>-1.03547190316021442413330078125</LongitudeDegrees>
            </Position>
            <AltitudeMeters>55.799999237060546875</AltitudeMeters>
            <DistanceMeters>NAN</DistanceMeters>
          </Trackpoint>
          <Trackpoint>
            <Time>2022-07-06T07:32:29.000Z</Time>
            <Position>
              <LatitudeDegrees>44.16396550834178924560546875</LatitudeDegrees>
              <LongitudeDegrees>-1.03562847711145877838134765625</LongitudeDegrees>
            </Position>
            <AltitudeMeters>55.200000762939453125</AltitudeMeters>
            <DistanceMeters>NAN</DistanceMeters>
          </Trackpoint>
          <Trackpoint>
            <Time>2022-07-06T07:32:33.000Z</Time>
            <Position>
              <LatitudeDegrees>44.16386903263628482818603515625</LatitudeDegrees>
              <LongitudeDegrees>-1.0359054990112781524658203125</LongitudeDegrees>
            </Position>
            <AltitudeMeters>55</AltitudeMeters>
            <DistanceMeters>NAN</DistanceMeters>
          </Trackpoint>
          <Trackpoint>
            <Time>2022-07-06T07:32:38.000Z</Time>
            <Position>
              <LatitudeDegrees>44.16381589137017726898193359375</LatitudeDegrees>
              <LongitudeDegrees>-1.03618972934782505035400390625</LongitudeDegrees>
            </Position>
            <AltitudeMeters>55.40000152587890625</AltitudeMeters>
            <DistanceMeters>NAN</DistanceMeters>
          </Trackpoint>
          <Trackpoint>
            <Time>2022-07-06T07:32:42.000Z</Time>
            <Position>
              <LatitudeDegrees>44.1637879796326160430908203125</LatitudeDegrees>
              <LongitudeDegrees>-1.036358289420604705810546875</LongitudeDegrees>
            </Position>
            <AltitudeMeters>56.40000152587890625</AltitudeMeters>
            <DistanceMeters>NAN</DistanceMeters>
          </Trackpoint>
          <Trackpoint>
            <Time>2022-07-06T07:32:44.000Z</Time>
            <Position>
              <LatitudeDegrees>44.16378437541425228118896484375</LatitudeDegrees>
              <LongitudeDegrees>-1.036428026854991912841796875</LongitudeDegrees>
            </Position>
            <AltitudeMeters>56.799999237060546875</AltitudeMeters>
            <DistanceMeters>NAN</DistanceMeters>
          </Trackpoint>
          <Trackpoint>
            <Time>2022-07-06T07:32:49.000Z</Time>
            <Position>
              <LatitudeDegrees>44.16378286667168140411376953125</LatitudeDegrees>
              <LongitudeDegrees>-1.0365800745785236358642578125</LongitudeDegrees>
            </Position>
            <AltitudeMeters>57.40000152587890625</AltitudeMeters>
            <DistanceMeters>NAN</DistanceMeters>
          </Trackpoint>
          <Trackpoint>
            <Time>2022-07-06T07:32:50.000Z</Time>
            <Position>
              <LatitudeDegrees>44.16378068737685680389404296875</LatitudeDegrees>
              <LongitudeDegrees>-1.03662324137985706329345703125</LongitudeDegrees>
            </Position>
            <AltitudeMeters>57.59999847412109375</AltitudeMeters>
            <DistanceMeters>NAN</DistanceMeters>
          </Trackpoint>
          <Trackpoint>
            <Time>2022-07-06T07:32:53.000Z</Time>
            <Position>
              <LatitudeDegrees>44.16377414949238300323486328125</LatitudeDegrees>
              <LongitudeDegrees>-1.03671845979988574981689453125</LongitudeDegrees>
            </Position>
            <AltitudeMeters>58</AltitudeMeters>
            <DistanceMeters>NAN</DistanceMeters>
          </Trackpoint>
          <Trackpoint>
            <Time>2022-07-06T07:32:59.000Z</Time>
            <Position>
              <LatitudeDegrees>44.16376769542694091796875</LatitudeDegrees>
              <LongitudeDegrees>-1.03692247532308101654052734375</LongitudeDegrees>
            </Position>
            <AltitudeMeters>58.59999847412109375</AltitudeMeters>
            <DistanceMeters>NAN</DistanceMeters>
          </Trackpoint>
          <Trackpoint>
            <Time>2022-07-06T07:33:02.000Z</Time>
            <Position>
              <LatitudeDegrees>44.16376593522727489471435546875</LatitudeDegrees>
              <LongitudeDegrees>-1.03701618500053882598876953125</LongitudeDegrees>
            </Position>
            <AltitudeMeters>59</AltitudeMeters>
            <DistanceMeters>NAN</DistanceMeters>
          </Trackpoint>
          <Trackpoint>
            <Time>2022-07-06T07:33:10.000Z</Time>
            <Position>
              <LatitudeDegrees>44.16373886168003082275390625</LatitudeDegrees>
              <LongitudeDegrees>-1.03727401234209537506103515625</LongitudeDegrees>
            </Position>
            <AltitudeMeters>59.59999847412109375</AltitudeMeters>
            <DistanceMeters>NAN</DistanceMeters>
          </Trackpoint>
          <Trackpoint>
            <Time>2022-07-06T07:33:11.000Z</Time>
            <Position>
              <LatitudeDegrees>44.16373710148036479949951171875</LatitudeDegrees>
              <LongitudeDegrees>-1.03730787523090839385986328125</LongitudeDegrees>
            </Position>
            <AltitudeMeters>59.799999237060546875</AltitudeMeters>
            <DistanceMeters>NAN</DistanceMeters>
          </Trackpoint>
          <Trackpoint>
            <Time>2022-07-06T07:33:12.000Z</Time>
            <Position>
              <LatitudeDegrees>44.163735173642635345458984375</LatitudeDegrees>
              <LongitudeDegrees>-1.0373376309871673583984375</LongitudeDegrees>
            </Position>
            <AltitudeMeters>59.799999237060546875</AltitudeMeters>
            <DistanceMeters>NAN</DistanceMeters>
          </Trackpoint>
          <Trackpoint>
            <Time>2022-07-06T07:33:16.000Z</Time>
            <Position>
              <LatitudeDegrees>44.16371899656951427459716796875</LatitudeDegrees>
              <LongitudeDegrees>-1.037480793893337249755859375</LongitudeDegrees>
            </Position>
            <AltitudeMeters>60.200000762939453125</AltitudeMeters>
            <DistanceMeters>NAN</DistanceMeters>
          </Trackpoint>
          <Trackpoint>
            <Time>2022-07-06T07:33:19.000Z</Time>
            <Position>
              <LatitudeDegrees>44.16371480561792850494384765625</LatitudeDegrees>
              <LongitudeDegrees>-1.0375785268843173980712890625</LongitudeDegrees>
            </Position>
            <AltitudeMeters>60.200000762939453125</AltitudeMeters>
            <DistanceMeters>NAN</DistanceMeters>
          </Trackpoint>
          <Trackpoint>
            <Time>2022-07-06T07:33:26.000Z</Time>
            <Position>
              <LatitudeDegrees>44.16369468905031681060791015625</LatitudeDegrees>
              <LongitudeDegrees>-1.037813387811183929443359375</LongitudeDegrees>
            </Position>
            <AltitudeMeters>60.59999847412109375</AltitudeMeters>
            <DistanceMeters>NAN</DistanceMeters>
          </Trackpoint>
          <Trackpoint>
            <Time>2022-07-06T07:33:30.000Z</Time>
            <Position>
              <LatitudeDegrees>44.16368278674781322479248046875</LatitudeDegrees>
              <LongitudeDegrees>-1.037954874336719512939453125</LongitudeDegrees>
            </Position>
            <AltitudeMeters>60.59999847412109375</AltitudeMeters>
            <DistanceMeters>NAN</DistanceMeters>
          </Trackpoint>
          <Trackpoint>
            <Time>2022-07-06T07:33:34.000Z</Time>
            <Position>
              <LatitudeDegrees>44.163676165044307708740234375</LatitudeDegrees>
              <LongitudeDegrees>-1.038094349205493927001953125</LongitudeDegrees>
            </Position>
            <AltitudeMeters>60.40000152587890625</AltitudeMeters>
            <DistanceMeters>NAN</DistanceMeters>
          </Trackpoint>
          <Trackpoint>
            <Time>2022-07-06T07:33:41.000Z</Time>
            <Position>
              <LatitudeDegrees>44.16366417892277240753173828125</LatitudeDegrees>
              <LongitudeDegrees>-1.038343124091625213623046875</LongitudeDegrees>
            </Position>
            <AltitudeMeters>60.59999847412109375</AltitudeMeters>
            <DistanceMeters>NAN</DistanceMeters>
          </Trackpoint>
          <Trackpoint>
            <Time>2022-07-06T07:33:44.000Z</Time>
            <Position>
              <LatitudeDegrees>44.16365512646734714508056640625</LatitudeDegrees>
              <LongitudeDegrees>-1.03846088983118534088134765625</LongitudeDegrees>
            </Position>
            <AltitudeMeters>60.59999847412109375</AltitudeMeters>
            <DistanceMeters>NAN</DistanceMeters>
          </Trackpoint>
          <Trackpoint>
            <Time>2022-07-06T07:33:45.000Z</Time>
            <Position>
              <LatitudeDegrees>44.1636568866670131683349609375</LatitudeDegrees>
              <LongitudeDegrees>-1.0384991951286792755126953125</LongitudeDegrees>
            </Position>
            <AltitudeMeters>60.59999847412109375</AltitudeMeters>
            <DistanceMeters>NAN</DistanceMeters>
          </Trackpoint>
          <Trackpoint>
            <Time>2022-07-06T07:33:46.000Z</Time>
            <Position>
              <LatitudeDegrees>44.1636563837528228759765625</LatitudeDegrees>
              <LongitudeDegrees>-1.03853733278810977935791015625</LongitudeDegrees>
            </Position>
            <AltitudeMeters>60.799999237060546875</AltitudeMeters>
            <DistanceMeters>NAN</DistanceMeters>
          </Trackpoint>
          <Trackpoint>
            <Time>2022-07-06T07:33:49.000Z</Time>
            <Position>
              <LatitudeDegrees>44.16364808566868305206298828125</LatitudeDegrees>
              <LongitudeDegrees>-1.038648895919322967529296875</LongitudeDegrees>
            </Position>
            <AltitudeMeters>61</AltitudeMeters>
            <DistanceMeters>NAN</DistanceMeters>
          </Trackpoint>
          <Trackpoint>
            <Time>2022-07-06T07:33:50.000Z</Time>
            <Position>
              <LatitudeDegrees>44.1636468283832073211669921875</LatitudeDegrees>
              <LongitudeDegrees>-1.038684435188770294189453125</LongitudeDegrees>
            </Position>
            <AltitudeMeters>61</AltitudeMeters>
            <DistanceMeters>NAN</DistanceMeters>
          </Trackpoint>
          <Trackpoint>
            <Time>2022-07-06T07:33:53.000Z</Time>
            <Position>
              <LatitudeDegrees>44.1636391170322895050048828125</LatitudeDegrees>
              <LongitudeDegrees>-1.03878661058843135833740234375</LongitudeDegrees>
            </Position>
            <AltitudeMeters>61.200000762939453125</AltitudeMeters>
            <DistanceMeters>NAN</DistanceMeters>
          </Trackpoint>
          <Trackpoint>
            <Time>2022-07-06T07:33:57.000Z</Time>
            <Position>
              <LatitudeDegrees>44.16362897492945194244384765625</LatitudeDegrees>
              <LongitudeDegrees>-1.03893832303583621978759765625</LongitudeDegrees>
            </Position>
            <AltitudeMeters>61.40000152587890625</AltitudeMeters>
            <DistanceMeters>NAN</DistanceMeters>
          </Trackpoint>
          <Trackpoint>
            <Time>2022-07-06T07:34:02.000Z</Time>
            <Position>
              <LatitudeDegrees>44.163627214729785919189453125</LatitudeDegrees>
              <LongitudeDegrees>-1.03911585174500942230224609375</LongitudeDegrees>
            </Position>
            <AltitudeMeters>61.59999847412109375</AltitudeMeters>
            <DistanceMeters>NAN</DistanceMeters>
          </Trackpoint>
          <Trackpoint>
            <Time>2022-07-06T07:34:05.000Z</Time>
            <Position>
              <LatitudeDegrees>44.1636173240840435028076171875</LatitudeDegrees>
              <LongitudeDegrees>-1.0392354615032672882080078125</LongitudeDegrees>
            </Position>
            <AltitudeMeters>61.799999237060546875</AltitudeMeters>
            <DistanceMeters>NAN</DistanceMeters>
          </Trackpoint>
          <Trackpoint>
            <Time>2022-07-06T07:34:09.000Z</Time>
            <Position>
              <LatitudeDegrees>44.163601063191890716552734375</LatitudeDegrees>
              <LongitudeDegrees>-1.0393967293202877044677734375</LongitudeDegrees>
            </Position>
            <AltitudeMeters>61.799999237060546875</AltitudeMeters>
            <DistanceMeters>NAN</DistanceMeters>
          </Trackpoint>
          <Trackpoint>
            <Time>2022-07-06T07:34:12.000Z</Time>
            <Position>
              <LatitudeDegrees>44.16359310038387775421142578125</LatitudeDegrees>
              <LongitudeDegrees>-1.03952790610492229461669921875</LongitudeDegrees>
            </Position>
            <AltitudeMeters>61.799999237060546875</AltitudeMeters>
            <DistanceMeters>NAN</DistanceMeters>
          </Trackpoint>
          <Trackpoint>
            <Time>2022-07-06T07:34:21.000Z</Time>
            <Position>
              <LatitudeDegrees>44.16354884393513202667236328125</LatitudeDegrees>
              <LongitudeDegrees>-1.0399313271045684814453125</LongitudeDegrees>
            </Position>
            <AltitudeMeters>62</AltitudeMeters>
            <DistanceMeters>NAN</DistanceMeters>
          </Trackpoint>
          <Trackpoint>
            <Time>2022-07-06T07:34:28.000Z</Time>
            <Position>
              <LatitudeDegrees>44.1635383665561676025390625</LatitudeDegrees>
              <LongitudeDegrees>-1.04025813750922679901123046875</LongitudeDegrees>
            </Position>
            <AltitudeMeters>61.799999237060546875</AltitudeMeters>
            <DistanceMeters>NAN</DistanceMeters>
          </Trackpoint>
          <Trackpoint>
            <Time>2022-07-06T07:34:30.000Z</Time>
            <Position>
              <LatitudeDegrees>44.1635210998356342315673828125</LatitudeDegrees>
              <LongitudeDegrees>-1.040348745882511138916015625</LongitudeDegrees>
            </Position>
            <AltitudeMeters>61.799999237060546875</AltitudeMeters>
            <DistanceMeters>NAN</DistanceMeters>
          </Trackpoint>
          <Trackpoint>
            <Time>2022-07-06T07:34:32.000Z</Time>
            <Position>
              <LatitudeDegrees>44.1635070182383060455322265625</LatitudeDegrees>
              <LongitudeDegrees>-1.04043348692357540130615234375</LongitudeDegrees>
            </Position>
            <AltitudeMeters>61.799999237060546875</AltitudeMeters>
            <DistanceMeters>NAN</DistanceMeters>
          </Trackpoint>
          <Trackpoint>
            <Time>2022-07-06T07:34:35.000Z</Time>
            <Position>
              <LatitudeDegrees>44.16350358165800571441650390625</LatitudeDegrees>
              <LongitudeDegrees>-1.04057371616363525390625</LongitudeDegrees>
            </Position>
            <AltitudeMeters>61.799999237060546875</AltitudeMeters>
            <DistanceMeters>NAN</DistanceMeters>
          </Trackpoint>
          <Trackpoint>
            <Time>2022-07-06T07:34:41.000Z</Time>
            <Position>
              <LatitudeDegrees>44.16350944899022579193115234375</LatitudeDegrees>
              <LongitudeDegrees>-1.04087211191654205322265625</LongitudeDegrees>
            </Position>
            <AltitudeMeters>62.200000762939453125</AltitudeMeters>
            <DistanceMeters>NAN</DistanceMeters>
          </Trackpoint>
          <Trackpoint>
            <Time>2022-07-06T07:34:43.000Z</Time>
            <Position>
              <LatitudeDegrees>44.16352353058755397796630859375</LatitudeDegrees>
              <LongitudeDegrees>-1.0409503988921642303466796875</LongitudeDegrees>
            </Position>
            <AltitudeMeters>62</AltitudeMeters>
            <DistanceMeters>NAN</DistanceMeters>
          </Trackpoint>
          <Trackpoint>
            <Time>2022-07-06T07:34:44.000Z</Time>
            <Position>
              <LatitudeDegrees>44.16351799853146076202392578125</LatitudeDegrees>
              <LongitudeDegrees>-1.04096791706979274749755859375</LongitudeDegrees>
            </Position>
            <AltitudeMeters>62</AltitudeMeters>
            <DistanceMeters>NAN</DistanceMeters>
          </Trackpoint>
          <Trackpoint>
            <Time>2022-07-06T07:34:46.000Z</Time>
            <Position>
              <LatitudeDegrees>44.16351548396050930023193359375</LatitudeDegrees>
              <LongitudeDegrees>-1.040971688926219940185546875</LongitudeDegrees>
            </Position>
            <AltitudeMeters>62</AltitudeMeters>
            <DistanceMeters>NAN</DistanceMeters>
          </Trackpoint>
          <Trackpoint>
            <Time>2022-07-06T07:35:47.000Z</Time>
            <Position>
              <LatitudeDegrees>44.16348329745233058929443359375</LatitudeDegrees>
              <LongitudeDegrees>-1.04103036224842071533203125</LongitudeDegrees>
            </Position>
            <AltitudeMeters>62</AltitudeMeters>
            <DistanceMeters>NAN</DistanceMeters>
          </Trackpoint>
          <Trackpoint>
            <Time>2022-07-06T07:35:48.000Z</Time>
            <Position>
              <LatitudeDegrees>44.163477011024951934814453125</LatitudeDegrees>
              <LongitudeDegrees>-1.041066907346248626708984375</LongitudeDegrees>
            </Position>
            <AltitudeMeters>62</AltitudeMeters>
            <DistanceMeters>NAN</DistanceMeters>
          </Trackpoint>
          <Trackpoint>
            <Time>2022-07-06T07:35:54.000Z</Time>
            <Position>
              <LatitudeDegrees>44.1634490154683589935302734375</LatitudeDegrees>
              <LongitudeDegrees>-1.04135633446276187896728515625</LongitudeDegrees>
            </Position>
            <AltitudeMeters>62.200000762939453125</AltitudeMeters>
            <DistanceMeters>NAN</DistanceMeters>
          </Trackpoint>
          <Trackpoint>
            <Time>2022-07-06T07:36:02.000Z</Time>
            <Position>
              <LatitudeDegrees>44.1634275577962398529052734375</LatitudeDegrees>
              <LongitudeDegrees>-1.04179747402667999267578125</LongitudeDegrees>
            </Position>
            <AltitudeMeters>61.799999237060546875</AltitudeMeters>
            <DistanceMeters>NAN</DistanceMeters>
          </Trackpoint>
          <Trackpoint>
            <Time>2022-07-06T07:36:05.000Z</Time>
            <Position>
              <LatitudeDegrees>44.1634190082550048828125</LatitudeDegrees>
              <LongitudeDegrees>-1.04196938686072826385498046875</LongitudeDegrees>
            </Position>
            <AltitudeMeters>61.799999237060546875</AltitudeMeters>
            <DistanceMeters>NAN</DistanceMeters>
          </Trackpoint>
          <Trackpoint>
            <Time>2022-07-06T07:36:08.000Z</Time>
            <Position>
              <LatitudeDegrees>44.163405597209930419921875</LatitudeDegrees>
              <LongitudeDegrees>-1.042128391563892364501953125</LongitudeDegrees>
            </Position>
            <AltitudeMeters>61.799999237060546875</AltitudeMeters>
            <DistanceMeters>NAN</DistanceMeters>
          </Trackpoint>
          <Trackpoint>
            <Time>2022-07-06T07:36:10.000Z</Time>
            <Position>
              <LatitudeDegrees>44.16339679621160030364990234375</LatitudeDegrees>
              <LongitudeDegrees>-1.04223794303834438323974609375</LongitudeDegrees>
            </Position>
            <AltitudeMeters>61.59999847412109375</AltitudeMeters>
            <DistanceMeters>NAN</DistanceMeters>
          </Trackpoint>
          <Trackpoint>
            <Time>2022-07-06T07:36:17.000Z</Time>
            <Position>
              <LatitudeDegrees>44.16338556446135044097900390625</LatitudeDegrees>
              <LongitudeDegrees>-1.042616553604602813720703125</LongitudeDegrees>
            </Position>
            <AltitudeMeters>61.799999237060546875</AltitudeMeters>
            <DistanceMeters>NAN</DistanceMeters>
          </Trackpoint>
          <Trackpoint>
            <Time>2022-07-06T07:36:23.000Z</Time>
            <Position>
              <LatitudeDegrees>44.16336930356919765472412109375</LatitudeDegrees>
              <LongitudeDegrees>-1.04295526631176471710205078125</LongitudeDegrees>
            </Position>
            <AltitudeMeters>61.59999847412109375</AltitudeMeters>
            <DistanceMeters>NAN</DistanceMeters>
          </Trackpoint>
          <Trackpoint>
            <Time>2022-07-06T07:36:28.000Z</Time>
            <Position>
              <LatitudeDegrees>44.16336947120726108551025390625</LatitudeDegrees>
              <LongitudeDegrees>-1.043241508305072784423828125</LongitudeDegrees>
            </Position>
            <AltitudeMeters>61.59999847412109375</AltitudeMeters>
            <DistanceMeters>NAN</DistanceMeters>
          </Trackpoint>
          <Trackpoint>
            <Time>2022-07-06T07:36:29.000Z</Time>
            <Position>
              <LatitudeDegrees>44.16336544789373874664306640625</LatitudeDegrees>
              <LongitudeDegrees>-1.04329741559922695159912109375</LongitudeDegrees>
            </Position>
            <AltitudeMeters>61.59999847412109375</AltitudeMeters>
            <DistanceMeters>NAN</DistanceMeters>
          </Trackpoint>
          <Trackpoint>
            <Time>2022-07-06T07:36:30.000Z</Time>
            <Position>
              <LatitudeDegrees>44.16336125694215297698974609375</LatitudeDegrees>
              <LongitudeDegrees>-1.0433509759604930877685546875</LongitudeDegrees>
            </Position>
            <AltitudeMeters>61.59999847412109375</AltitudeMeters>
            <DistanceMeters>NAN</DistanceMeters>
          </Trackpoint>
          <Trackpoint>
            <Time>2022-07-06T07:36:32.000Z</Time>
            <Position>
              <LatitudeDegrees>44.16335723362863063812255859375</LatitudeDegrees>
              <LongitudeDegrees>-1.0434579290449619293212890625</LongitudeDegrees>
            </Position>
            <AltitudeMeters>61.59999847412109375</AltitudeMeters>
            <DistanceMeters>NAN</DistanceMeters>
          </Trackpoint>
          <Trackpoint>
            <Time>2022-07-06T07:36:33.000Z</Time>
            <Position>
              <LatitudeDegrees>44.1633537970483303070068359375</LatitudeDegrees>
              <LongitudeDegrees>-1.0435139201581478118896484375</LongitudeDegrees>
            </Position>
            <AltitudeMeters>61.59999847412109375</AltitudeMeters>
            <DistanceMeters>NAN</DistanceMeters>
          </Trackpoint>
          <Trackpoint>
            <Time>2022-07-06T07:36:36.000Z</Time>
            <Position>
              <LatitudeDegrees>44.1633454151451587677001953125</LatitudeDegrees>
              <LongitudeDegrees>-1.04368507862091064453125</LongitudeDegrees>
            </Position>
            <AltitudeMeters>61.799999237060546875</AltitudeMeters>
            <DistanceMeters>NAN</DistanceMeters>
          </Trackpoint>
          <Trackpoint>
            <Time>2022-07-06T07:36:43.000Z</Time>
            <Position>
              <LatitudeDegrees>44.163313396275043487548828125</LatitudeDegrees>
              <LongitudeDegrees>-1.0441063530743122100830078125</LongitudeDegrees>
            </Position>
            <AltitudeMeters>61.799999237060546875</AltitudeMeters>
            <DistanceMeters>NAN</DistanceMeters>
          </Trackpoint>
          <Trackpoint>
            <Time>2022-07-06T07:36:49.000Z</Time>
            <Position>
              <LatitudeDegrees>44.16327425278723239898681640625</LatitudeDegrees>
              <LongitudeDegrees>-1.04451186954975128173828125</LongitudeDegrees>
            </Position>
            <AltitudeMeters>61.799999237060546875</AltitudeMeters>
            <DistanceMeters>NAN</DistanceMeters>
          </Trackpoint>
          <Trackpoint>
            <Time>2022-07-06T07:36:51.000Z</Time>
            <Position>
              <LatitudeDegrees>44.16326603852212429046630859375</LatitudeDegrees>
              <LongitudeDegrees>-1.0446555353701114654541015625</LongitudeDegrees>
            </Position>
            <AltitudeMeters>61.59999847412109375</AltitudeMeters>
            <DistanceMeters>NAN</DistanceMeters>
          </Trackpoint>
          <Trackpoint>
            <Time>2022-07-06T07:37:00.000Z</Time>
            <Position>
              <LatitudeDegrees>44.16320912539958953857421875</LatitudeDegrees>
              <LongitudeDegrees>-1.045312844216823577880859375</LongitudeDegrees>
            </Position>
            <AltitudeMeters>61.40000152587890625</AltitudeMeters>
            <DistanceMeters>NAN</DistanceMeters>
          </Trackpoint>
          <Trackpoint>
            <Time>2022-07-06T07:37:09.000Z</Time>
            <Position>
              <LatitudeDegrees>44.1631395556032657623291015625</LatitudeDegrees>
              <LongitudeDegrees>-1.046020947396755218505859375</LongitudeDegrees>
            </Position>
            <AltitudeMeters>61.799999237060546875</AltitudeMeters>
            <DistanceMeters>NAN</DistanceMeters>
          </Trackpoint>
          <Trackpoint>
            <Time>2022-07-06T07:37:15.000Z</Time>
            <Position>
              <LatitudeDegrees>44.1631226241588592529296875</LatitudeDegrees>
              <LongitudeDegrees>-1.0464791022241115570068359375</LongitudeDegrees>
            </Position>
            <AltitudeMeters>61.40000152587890625</AltitudeMeters>
            <DistanceMeters>NAN</DistanceMeters>
          </Trackpoint>
          <Trackpoint>
            <Time>2022-07-06T07:37:16.000Z</Time>
            <Position>
              <LatitudeDegrees>44.16311885230243206024169921875</LatitudeDegrees>
              <LongitudeDegrees>-1.0465518571436405181884765625</LongitudeDegrees>
            </Position>
            <AltitudeMeters>61.40000152587890625</AltitudeMeters>
            <DistanceMeters>NAN</DistanceMeters>
          </Trackpoint>
          <Trackpoint>
            <Time>2022-07-06T07:37:18.000Z</Time>
            <Position>
              <LatitudeDegrees>44.16310393251478672027587890625</LatitudeDegrees>
              <LongitudeDegrees>-1.04669652879238128662109375</LongitudeDegrees>
            </Position>
            <AltitudeMeters>61.40000152587890625</AltitudeMeters>
            <DistanceMeters>NAN</DistanceMeters>
          </Trackpoint>
          <Trackpoint>
            <Time>2022-07-06T07:37:23.000Z</Time>
            <Position>
              <LatitudeDegrees>44.1630877554416656494140625</LatitudeDegrees>
              <LongitudeDegrees>-1.0470862872898578643798828125</LongitudeDegrees>
            </Position>
            <AltitudeMeters>61.40000152587890625</AltitudeMeters>
            <DistanceMeters>NAN</DistanceMeters>
          </Trackpoint>
          <Trackpoint>
            <Time>2022-07-06T07:37:24.000Z</Time>
            <Position>
              <LatitudeDegrees>44.16307928971946239471435546875</LatitudeDegrees>
              <LongitudeDegrees>-1.04716633446514606475830078125</LongitudeDegrees>
            </Position>
            <AltitudeMeters>61.40000152587890625</AltitudeMeters>
            <DistanceMeters>NAN</DistanceMeters>
          </Trackpoint>
          <Trackpoint>
            <Time>2022-07-06T07:37:26.000Z</Time>
            <Position>
              <LatitudeDegrees>44.16306453756988048553466796875</LatitudeDegrees>
              <LongitudeDegrees>-1.0473208129405975341796875</LongitudeDegrees>
            </Position>
            <AltitudeMeters>61.59999847412109375</AltitudeMeters>
            <DistanceMeters>NAN</DistanceMeters>
          </Trackpoint>
          <Trackpoint>
            <Time>2022-07-06T07:37:33.000Z</Time>
            <Position>
              <LatitudeDegrees>44.16303771547973155975341796875</LatitudeDegrees>
              <LongitudeDegrees>-1.0478436760604381561279296875</LongitudeDegrees>
            </Position>
            <AltitudeMeters>61.59999847412109375</AltitudeMeters>
            <DistanceMeters>NAN</DistanceMeters>
          </Trackpoint>
          <Trackpoint>
            <Time>2022-07-06T07:37:34.000Z</Time>
            <Position>
              <LatitudeDegrees>44.163029752671718597412109375</LatitudeDegrees>
              <LongitudeDegrees>-1.047936715185642242431640625</LongitudeDegrees>
            </Position>
            <AltitudeMeters>61.59999847412109375</AltitudeMeters>
            <DistanceMeters>NAN</DistanceMeters>
          </Trackpoint>
          <Trackpoint>
            <Time>2022-07-06T07:37:41.000Z</Time>
            <Position>
              <LatitudeDegrees>44.16298910044133663177490234375</LatitudeDegrees>
              <LongitudeDegrees>-1.0484518669545650482177734375</LongitudeDegrees>
            </Position>
            <AltitudeMeters>61.59999847412109375</AltitudeMeters>
            <DistanceMeters>NAN</DistanceMeters>
          </Trackpoint>
          <Trackpoint>
            <Time>2022-07-06T07:37:44.000Z</Time>
            <Position>
              <LatitudeDegrees>44.16298943571746349334716796875</LatitudeDegrees>
              <LongitudeDegrees>-1.04865781031548976898193359375</LongitudeDegrees>
            </Position>
            <AltitudeMeters>61.59999847412109375</AltitudeMeters>
            <DistanceMeters>NAN</DistanceMeters>
          </Trackpoint>
          <Trackpoint>
            <Time>2022-07-06T07:37:50.000Z</Time>
            <Position>
              <LatitudeDegrees>44.16294635273516178131103515625</LatitudeDegrees>
              <LongitudeDegrees>-1.049095094203948974609375</LongitudeDegrees>
            </Position>
            <AltitudeMeters>61.799999237060546875</AltitudeMeters>
            <DistanceMeters>NAN</DistanceMeters>
          </Trackpoint>
          <Trackpoint>
            <Time>2022-07-06T07:37:52.000Z</Time>
            <Position>
              <LatitudeDegrees>44.1629321873188018798828125</LatitudeDegrees>
              <LongitudeDegrees>-1.0492484830319881439208984375</LongitudeDegrees>
            </Position>
            <AltitudeMeters>61.59999847412109375</AltitudeMeters>
            <DistanceMeters>NAN</DistanceMeters>
          </Trackpoint>
          <Trackpoint>
            <Time>2022-07-06T07:37:59.000Z</Time>
            <Position>
              <LatitudeDegrees>44.16283487342298030853271484375</LatitudeDegrees>
              <LongitudeDegrees>-1.0498030297458171844482421875</LongitudeDegrees>
            </Position>
            <AltitudeMeters>62</AltitudeMeters>
            <DistanceMeters>NAN</DistanceMeters>
          </Trackpoint>
          <Trackpoint>
            <Time>2022-07-06T07:38:05.000Z</Time>
            <Position>
              <LatitudeDegrees>44.16274736635386943817138671875</LatitudeDegrees>
              <LongitudeDegrees>-1.05024517513811588287353515625</LongitudeDegrees>
            </Position>
            <AltitudeMeters>61.799999237060546875</AltitudeMeters>
            <DistanceMeters>NAN</DistanceMeters>
          </Trackpoint>
          <Trackpoint>
            <Time>2022-07-06T07:38:07.000Z</Time>
            <Position>
              <LatitudeDegrees>44.16271802969276905059814453125</LatitudeDegrees>
              <LongitudeDegrees>-1.05039068497717380523681640625</LongitudeDegrees>
            </Position>
            <AltitudeMeters>61.59999847412109375</AltitudeMeters>
            <DistanceMeters>NAN</DistanceMeters>
          </Trackpoint>
          <Trackpoint>
            <Time>2022-07-06T07:38:14.000Z</Time>
            <Position>
              <LatitudeDegrees>44.16262784041464328765869140625</LatitudeDegrees>
              <LongitudeDegrees>-1.050906591117382049560546875</LongitudeDegrees>
            </Position>
            <AltitudeMeters>61.200000762939453125</AltitudeMeters>
            <DistanceMeters>NAN</DistanceMeters>
          </Trackpoint>
          <Trackpoint>
            <Time>2022-07-06T07:38:24.000Z</Time>
            <Position>
              <LatitudeDegrees>44.16249490343034267425537109375</LatitudeDegrees>
              <LongitudeDegrees>-1.05160295963287353515625</LongitudeDegrees>
            </Position>
            <AltitudeMeters>61.40000152587890625</AltitudeMeters>
            <DistanceMeters>NAN</DistanceMeters>
          </Trackpoint>
          <Trackpoint>
            <Time>2022-07-06T07:38:30.000Z</Time>
            <Position>
              <LatitudeDegrees>44.16242600418627262115478515625</LatitudeDegrees>
              <LongitudeDegrees>-1.05201710946857929229736328125</LongitudeDegrees>
            </Position>
            <AltitudeMeters>61.200000762939453125</AltitudeMeters>
            <DistanceMeters>NAN</DistanceMeters>
          </Trackpoint>
          <Trackpoint>
            <Time>2022-07-06T07:38:32.000Z</Time>
            <Position>
              <LatitudeDegrees>44.1623957455158233642578125</LatitudeDegrees>
              <LongitudeDegrees>-1.052154488861560821533203125</LongitudeDegrees>
            </Position>
            <AltitudeMeters>61.200000762939453125</AltitudeMeters>
            <DistanceMeters>NAN</DistanceMeters>
          </Trackpoint>
          <Trackpoint>
            <Time>2022-07-06T07:38:42.000Z</Time>
            <Position>
              <LatitudeDegrees>44.16227479465305805206298828125</LatitudeDegrees>
              <LongitudeDegrees>-1.05288916267454624176025390625</LongitudeDegrees>
            </Position>
            <AltitudeMeters>61.40000152587890625</AltitudeMeters>
            <DistanceMeters>NAN</DistanceMeters>
          </Trackpoint>
          <Trackpoint>
            <Time>2022-07-06T07:38:43.000Z</Time>
            <Position>
              <LatitudeDegrees>44.16226389817893505096435546875</LatitudeDegrees>
              <LongitudeDegrees>-1.0529693774878978729248046875</LongitudeDegrees>
            </Position>
            <AltitudeMeters>61.40000152587890625</AltitudeMeters>
            <DistanceMeters>NAN</DistanceMeters>
          </Trackpoint>
          <Trackpoint>
            <Time>2022-07-06T07:38:46.000Z</Time>
            <Position>
              <LatitudeDegrees>44.16221930645406246185302734375</LatitudeDegrees>
              <LongitudeDegrees>-1.05321429669857025146484375</LongitudeDegrees>
            </Position>
            <AltitudeMeters>61.59999847412109375</AltitudeMeters>
            <DistanceMeters>NAN</DistanceMeters>
          </Trackpoint>
          <Trackpoint>
            <Time>2022-07-06T07:38:52.000Z</Time>
            <Position>
              <LatitudeDegrees>44.16215501725673675537109375</LatitudeDegrees>
              <LongitudeDegrees>-1.0536778159439563751220703125</LongitudeDegrees>
            </Position>
            <AltitudeMeters>61.59999847412109375</AltitudeMeters>
            <DistanceMeters>NAN</DistanceMeters>
          </Trackpoint>
          <Trackpoint>
            <Time>2022-07-06T07:38:58.000Z</Time>
            <Position>
              <LatitudeDegrees>44.1621129401028156280517578125</LatitudeDegrees>
              <LongitudeDegrees>-1.05410889722406864166259765625</LongitudeDegrees>
            </Position>
            <AltitudeMeters>61.59999847412109375</AltitudeMeters>
            <DistanceMeters>NAN</DistanceMeters>
          </Trackpoint>
          <Trackpoint>
            <Time>2022-07-06T07:39:00.000Z</Time>
            <Position>
              <LatitudeDegrees>44.1620904766023159027099609375</LatitudeDegrees>
              <LongitudeDegrees>-1.0542675666511058807373046875</LongitudeDegrees>
            </Position>
            <AltitudeMeters>61.59999847412109375</AltitudeMeters>
            <DistanceMeters>NAN</DistanceMeters>
          </Trackpoint>
          <Trackpoint>
            <Time>2022-07-06T07:39:01.000Z</Time>
            <Position>
              <LatitudeDegrees>44.162066169083118438720703125</LatitudeDegrees>
              <LongitudeDegrees>-1.05435767211019992828369140625</LongitudeDegrees>
            </Position>
            <AltitudeMeters>61.40000152587890625</AltitudeMeters>
            <DistanceMeters>NAN</DistanceMeters>
          </Trackpoint>
          <Trackpoint>
            <Time>2022-07-06T07:39:03.000Z</Time>
            <Position>
              <LatitudeDegrees>44.162013866007328033447265625</LatitudeDegrees>
              <LongitudeDegrees>-1.05453738011419773101806640625</LongitudeDegrees>
            </Position>
            <AltitudeMeters>61.40000152587890625</AltitudeMeters>
            <DistanceMeters>NAN</DistanceMeters>
          </Trackpoint>
          <Trackpoint>
            <Time>2022-07-06T07:39:04.000Z</Time>
            <Position>
              <LatitudeDegrees>44.1619952581822872161865234375</LatitudeDegrees>
              <LongitudeDegrees>-1.05462471954524517059326171875</LongitudeDegrees>
            </Position>
            <AltitudeMeters>61.200000762939453125</AltitudeMeters>
            <DistanceMeters>NAN</DistanceMeters>
          </Trackpoint>
          <Trackpoint>
            <Time>2022-07-06T07:39:06.000Z</Time>
            <Position>
              <LatitudeDegrees>44.161970280110836029052734375</LatitudeDegrees>
              <LongitudeDegrees>-1.05479906313121318817138671875</LongitudeDegrees>
            </Position>
            <AltitudeMeters>61</AltitudeMeters>
            <DistanceMeters>NAN</DistanceMeters>
          </Trackpoint>
          <Trackpoint>
            <Time>2022-07-06T07:39:07.000Z</Time>
            <Position>
              <LatitudeDegrees>44.16196030564606189727783203125</LatitudeDegrees>
              <LongitudeDegrees>-1.0548807866871356964111328125</LongitudeDegrees>
            </Position>
            <AltitudeMeters>61</AltitudeMeters>
            <DistanceMeters>NAN</DistanceMeters>
          </Trackpoint>
          <Trackpoint>
            <Time>2022-07-06T07:39:08.000Z</Time>
            <Position>
              <LatitudeDegrees>44.16194957681000232696533203125</LatitudeDegrees>
              <LongitudeDegrees>-1.05496318079531192779541015625</LongitudeDegrees>
            </Position>
            <AltitudeMeters>60.799999237060546875</AltitudeMeters>
            <DistanceMeters>NAN</DistanceMeters>
          </Trackpoint>
          <Trackpoint>
            <Time>2022-07-06T07:39:09.000Z</Time>
            <Position>
              <LatitudeDegrees>44.16193935088813304901123046875</LatitudeDegrees>
              <LongitudeDegrees>-1.05503861792385578155517578125</LongitudeDegrees>
            </Position>
            <AltitudeMeters>59.799999237060546875</AltitudeMeters>
            <DistanceMeters>NAN</DistanceMeters>
          </Trackpoint>
          <Trackpoint>
            <Time>2022-07-06T07:39:15.000Z</Time>
            <Position>
              <LatitudeDegrees>44.1618561185896396636962890625</LatitudeDegrees>
              <LongitudeDegrees>-1.05549258179962635040283203125</LongitudeDegrees>
            </Position>
            <AltitudeMeters>60</AltitudeMeters>
            <DistanceMeters>NAN</DistanceMeters>
          </Trackpoint>
          <Trackpoint>
            <Time>2022-07-06T07:39:17.000Z</Time>
            <Position>
              <LatitudeDegrees>44.16183658875524997711181640625</LatitudeDegrees>
              <LongitudeDegrees>-1.05563230812549591064453125</LongitudeDegrees>
            </Position>
            <AltitudeMeters>61</AltitudeMeters>
            <DistanceMeters>NAN</DistanceMeters>
          </Trackpoint>
          <Trackpoint>
            <Time>2022-07-06T07:39:21.000Z</Time>
            <Position>
              <LatitudeDegrees>44.16179853491485118865966796875</LatitudeDegrees>
              <LongitudeDegrees>-1.05590061284601688385009765625</LongitudeDegrees>
            </Position>
            <AltitudeMeters>61.59999847412109375</AltitudeMeters>
            <DistanceMeters>NAN</DistanceMeters>
          </Trackpoint>
          <Trackpoint>
            <Time>2022-07-06T07:39:26.000Z</Time>
            <Position>
              <LatitudeDegrees>44.16177188046276569366455078125</LatitudeDegrees>
              <LongitudeDegrees>-1.05620898306369781494140625</LongitudeDegrees>
            </Position>
            <AltitudeMeters>62.200000762939453125</AltitudeMeters>
            <DistanceMeters>NAN</DistanceMeters>
          </Trackpoint>
          <Trackpoint>
            <Time>2022-07-06T07:39:27.000Z</Time>
            <Position>
              <LatitudeDegrees>44.1617722995579242706298828125</LatitudeDegrees>
              <LongitudeDegrees>-1.05626405216753482818603515625</LongitudeDegrees>
            </Position>
            <AltitudeMeters>62.200000762939453125</AltitudeMeters>
            <DistanceMeters>NAN</DistanceMeters>
          </Trackpoint>
          <Trackpoint>
            <Time>2022-07-06T07:39:29.000Z</Time>
            <Position>
              <LatitudeDegrees>44.1617572121322154998779296875</LatitudeDegrees>
              <LongitudeDegrees>-1.056382991373538970947265625</LongitudeDegrees>
            </Position>
            <AltitudeMeters>62.40000152587890625</AltitudeMeters>
            <DistanceMeters>NAN</DistanceMeters>
          </Trackpoint>
          <Trackpoint>
            <Time>2022-07-06T07:39:31.000Z</Time>
            <Position>
              <LatitudeDegrees>44.1617287136614322662353515625</LatitudeDegrees>
              <LongitudeDegrees>-1.05650578625500202178955078125</LongitudeDegrees>
            </Position>
            <AltitudeMeters>62.40000152587890625</AltitudeMeters>
            <DistanceMeters>NAN</DistanceMeters>
          </Trackpoint>
          <Trackpoint>
            <Time>2022-07-06T07:39:32.000Z</Time>
            <Position>
              <LatitudeDegrees>44.16172594763338565826416015625</LatitudeDegrees>
              <LongitudeDegrees>-1.05656412430107593536376953125</LongitudeDegrees>
            </Position>
            <AltitudeMeters>62.40000152587890625</AltitudeMeters>
            <DistanceMeters>NAN</DistanceMeters>
          </Trackpoint>
          <Trackpoint>
            <Time>2022-07-06T07:39:34.000Z</Time>
            <Position>
              <LatitudeDegrees>44.16170482523739337921142578125</LatitudeDegrees>
              <LongitudeDegrees>-1.056692115962505340576171875</LongitudeDegrees>
            </Position>
            <AltitudeMeters>62.40000152587890625</AltitudeMeters>
            <DistanceMeters>NAN</DistanceMeters>
          </Trackpoint>
          <Trackpoint>
            <Time>2022-07-06T07:39:36.000Z</Time>
            <Position>
              <LatitudeDegrees>44.16168152354657649993896484375</LatitudeDegrees>
              <LongitudeDegrees>-1.05682396329939365386962890625</LongitudeDegrees>
            </Position>
            <AltitudeMeters>62.40000152587890625</AltitudeMeters>
            <DistanceMeters>NAN</DistanceMeters>
          </Trackpoint>
          <Trackpoint>
            <Time>2022-07-06T07:39:37.000Z</Time>
            <Position>
              <LatitudeDegrees>44.1616743989288806915283203125</LatitudeDegrees>
              <LongitudeDegrees>-1.05689252726733684539794921875</LongitudeDegrees>
            </Position>
            <AltitudeMeters>62.40000152587890625</AltitudeMeters>
            <DistanceMeters>NAN</DistanceMeters>
          </Trackpoint>
          <Trackpoint>
            <Time>2022-07-06T07:39:41.000Z</Time>
            <Position>
              <LatitudeDegrees>44.161616228520870208740234375</LatitudeDegrees>
              <LongitudeDegrees>-1.05717726051807403564453125</LongitudeDegrees>
            </Position>
            <AltitudeMeters>62.59999847412109375</AltitudeMeters>
            <DistanceMeters>NAN</DistanceMeters>
          </Trackpoint>
          <Trackpoint>
            <Time>2022-07-06T07:39:42.000Z</Time>
            <Position>
              <LatitudeDegrees>44.16160491295158863067626953125</LatitudeDegrees>
              <LongitudeDegrees>-1.05725009925663471221923828125</LongitudeDegrees>
            </Position>
            <AltitudeMeters>62.59999847412109375</AltitudeMeters>
            <DistanceMeters>NAN</DistanceMeters>
          </Trackpoint>
          <Trackpoint>
            <Time>2022-07-06T07:39:43.000Z</Time>
            <Position>
              <LatitudeDegrees>44.161594100296497344970703125</LatitudeDegrees>
              <LongitudeDegrees>-1.05732536874711513519287109375</LongitudeDegrees>
            </Position>
            <AltitudeMeters>62.59999847412109375</AltitudeMeters>
            <DistanceMeters>NAN</DistanceMeters>
          </Trackpoint>
          <Trackpoint>
            <Time>2022-07-06T07:39:44.000Z</Time>
            <Position>
              <LatitudeDegrees>44.16158102452754974365234375</LatitudeDegrees>
              <LongitudeDegrees>-1.05740784667432308197021484375</LongitudeDegrees>
            </Position>
            <AltitudeMeters>62.59999847412109375</AltitudeMeters>
            <DistanceMeters>NAN</DistanceMeters>
          </Trackpoint>
          <Trackpoint>
            <Time>2022-07-06T07:39:46.000Z</Time>
            <Position>
              <LatitudeDegrees>44.16157339699566364288330078125</LatitudeDegrees>
              <LongitudeDegrees>-1.05754128657281398773193359375</LongitudeDegrees>
            </Position>
            <AltitudeMeters>62.59999847412109375</AltitudeMeters>
            <DistanceMeters>NAN</DistanceMeters>
          </Trackpoint>
          <Trackpoint>
            <Time>2022-07-06T07:39:47.000Z</Time>
            <Position>
              <LatitudeDegrees>44.1615704633295536041259765625</LatitudeDegrees>
              <LongitudeDegrees>-1.05759970843791961669921875</LongitudeDegrees>
            </Position>
            <AltitudeMeters>62.59999847412109375</AltitudeMeters>
            <DistanceMeters>NAN</DistanceMeters>
          </Trackpoint>
          <Trackpoint>
            <Time>2022-07-06T07:39:48.000Z</Time>
            <Position>
              <LatitudeDegrees>44.16156602092087268829345703125</LatitudeDegrees>
              <LongitudeDegrees>-1.0576622374355792999267578125</LongitudeDegrees>
            </Position>
            <AltitudeMeters>62.799999237060546875</AltitudeMeters>
            <DistanceMeters>NAN</DistanceMeters>
          </Trackpoint>
          <Trackpoint>
            <Time>2022-07-06T07:39:50.000Z</Time>
            <Position>
              <LatitudeDegrees>44.16152846999466419219970703125</LatitudeDegrees>
              <LongitudeDegrees>-1.057791821658611297607421875</LongitudeDegrees>
            </Position>
            <AltitudeMeters>62.799999237060546875</AltitudeMeters>
            <DistanceMeters>NAN</DistanceMeters>
          </Trackpoint>
          <Trackpoint>
            <Time>2022-07-06T07:39:57.000Z</Time>
            <Position>
              <LatitudeDegrees>44.16146627627313137054443359375</LatitudeDegrees>
              <LongitudeDegrees>-1.05825894512236118316650390625</LongitudeDegrees>
            </Position>
            <AltitudeMeters>62.59999847412109375</AltitudeMeters>
            <DistanceMeters>NAN</DistanceMeters>
          </Trackpoint>
          <Trackpoint>
            <Time>2022-07-06T07:39:58.000Z</Time>
            <Position>
              <LatitudeDegrees>44.1614641807973384857177734375</LatitudeDegrees>
              <LongitudeDegrees>-1.0583254136145114898681640625</LongitudeDegrees>
            </Position>
            <AltitudeMeters>62.59999847412109375</AltitudeMeters>
            <DistanceMeters>NAN</DistanceMeters>
          </Trackpoint>
          <Trackpoint>
            <Time>2022-07-06T07:40:07.000Z</Time>
            <Position>
              <LatitudeDegrees>44.16136988438665866851806640625</LatitudeDegrees>
              <LongitudeDegrees>-1.05892966501414775848388671875</LongitudeDegrees>
            </Position>
            <AltitudeMeters>62.799999237060546875</AltitudeMeters>
            <DistanceMeters>NAN</DistanceMeters>
          </Trackpoint>
          <Trackpoint>
            <Time>2022-07-06T07:40:10.000Z</Time>
            <Position>
              <LatitudeDegrees>44.1613362729549407958984375</LatitudeDegrees>
              <LongitudeDegrees>-1.0591305792331695556640625</LongitudeDegrees>
            </Position>
            <AltitudeMeters>62.59999847412109375</AltitudeMeters>
            <DistanceMeters>NAN</DistanceMeters>
          </Trackpoint>
          <Trackpoint>
            <Time>2022-07-06T07:40:12.000Z</Time>
            <Position>
              <LatitudeDegrees>44.16131816804409027099609375</LatitudeDegrees>
              <LongitudeDegrees>-1.0592635162174701690673828125</LongitudeDegrees>
            </Position>
            <AltitudeMeters>62.59999847412109375</AltitudeMeters>
            <DistanceMeters>NAN</DistanceMeters>
          </Trackpoint>
          <Trackpoint>
            <Time>2022-07-06T07:40:13.000Z</Time>
            <Position>
              <LatitudeDegrees>44.1613123007118701934814453125</LatitudeDegrees>
              <LongitudeDegrees>-1.05933283455669879913330078125</LongitudeDegrees>
            </Position>
            <AltitudeMeters>62.59999847412109375</AltitudeMeters>
            <DistanceMeters>NAN</DistanceMeters>
          </Trackpoint>
          <Trackpoint>
            <Time>2022-07-06T07:40:22.000Z</Time>
            <Position>
              <LatitudeDegrees>44.1612412221729755401611328125</LatitudeDegrees>
              <LongitudeDegrees>-1.059969104826450347900390625</LongitudeDegrees>
            </Position>
            <AltitudeMeters>62.799999237060546875</AltitudeMeters>
            <DistanceMeters>NAN</DistanceMeters>
          </Trackpoint>
          <Trackpoint>
            <Time>2022-07-06T07:40:29.000Z</Time>
            <Position>
              <LatitudeDegrees>44.16122672148048877716064453125</LatitudeDegrees>
              <LongitudeDegrees>-1.06045047752559185028076171875</LongitudeDegrees>
            </Position>
            <AltitudeMeters>63.200000762939453125</AltitudeMeters>
            <DistanceMeters>NAN</DistanceMeters>
          </Trackpoint>
          <Trackpoint>
            <Time>2022-07-06T07:40:32.000Z</Time>
            <Position>
              <LatitudeDegrees>44.16122638620436191558837890625</LatitudeDegrees>
              <LongitudeDegrees>-1.060653738677501678466796875</LongitudeDegrees>
            </Position>
            <AltitudeMeters>63.200000762939453125</AltitudeMeters>
            <DistanceMeters>NAN</DistanceMeters>
          </Trackpoint>
          <Trackpoint>
            <Time>2022-07-06T07:40:35.000Z</Time>
            <Position>
              <LatitudeDegrees>44.1612345166504383087158203125</LatitudeDegrees>
              <LongitudeDegrees>-1.060848534107208251953125</LongitudeDegrees>
            </Position>
            <AltitudeMeters>63.200000762939453125</AltitudeMeters>
            <DistanceMeters>NAN</DistanceMeters>
          </Trackpoint>
          <Trackpoint>
            <Time>2022-07-06T07:40:42.000Z</Time>
            <Position>
              <LatitudeDegrees>44.161256141960620880126953125</LatitudeDegrees>
              <LongitudeDegrees>-1.0613147355616092681884765625</LongitudeDegrees>
            </Position>
            <AltitudeMeters>63</AltitudeMeters>
            <DistanceMeters>NAN</DistanceMeters>
          </Trackpoint>
          <Trackpoint>
            <Time>2022-07-06T07:40:49.000Z</Time>
            <Position>
              <LatitudeDegrees>44.161268211901187896728515625</LatitudeDegrees>
              <LongitudeDegrees>-1.0617857985198497772216796875</LongitudeDegrees>
            </Position>
            <AltitudeMeters>63</AltitudeMeters>
            <DistanceMeters>NAN</DistanceMeters>
          </Trackpoint>
          <Trackpoint>
            <Time>2022-07-06T07:40:58.000Z</Time>
            <Position>
              <LatitudeDegrees>44.1612948663532733917236328125</LatitudeDegrees>
              <LongitudeDegrees>-1.06240161694586277008056640625</LongitudeDegrees>
            </Position>
            <AltitudeMeters>62.59999847412109375</AltitudeMeters>
            <DistanceMeters>NAN</DistanceMeters>
          </Trackpoint>
          <Trackpoint>
            <Time>2022-07-06T07:41:01.000Z</Time>
            <Position>
              <LatitudeDegrees>44.16130333207547664642333984375</LatitudeDegrees>
              <LongitudeDegrees>-1.062610410153865814208984375</LongitudeDegrees>
            </Position>
            <AltitudeMeters>62.40000152587890625</AltitudeMeters>
            <DistanceMeters>NAN</DistanceMeters>
          </Trackpoint>
          <Trackpoint>
            <Time>2022-07-06T07:41:05.000Z</Time>
            <Position>
              <LatitudeDegrees>44.16130542755126953125</LatitudeDegrees>
              <LongitudeDegrees>-1.0628928802907466888427734375</LongitudeDegrees>
            </Position>
            <AltitudeMeters>62.40000152587890625</AltitudeMeters>
            <DistanceMeters>NAN</DistanceMeters>
          </Trackpoint>
          <Trackpoint>
            <Time>2022-07-06T07:41:06.000Z</Time>
            <Position>
              <LatitudeDegrees>44.16130878031253814697265625</LatitudeDegrees>
              <LongitudeDegrees>-1.062961108982563018798828125</LongitudeDegrees>
            </Position>
            <AltitudeMeters>62.40000152587890625</AltitudeMeters>
            <DistanceMeters>NAN</DistanceMeters>
          </Trackpoint>
          <Trackpoint>
            <Time>2022-07-06T07:41:09.000Z</Time>
            <Position>
              <LatitudeDegrees>44.16131087578833103179931640625</LatitudeDegrees>
              <LongitudeDegrees>-1.063171327114105224609375</LongitudeDegrees>
            </Position>
            <AltitudeMeters>62.40000152587890625</AltitudeMeters>
            <DistanceMeters>NAN</DistanceMeters>
          </Trackpoint>
          <Trackpoint>
            <Time>2022-07-06T07:41:20.000Z</Time>
            <Position>
              <LatitudeDegrees>44.16133224964141845703125</LatitudeDegrees>
              <LongitudeDegrees>-1.06392779387533664703369140625</LongitudeDegrees>
            </Position>
            <AltitudeMeters>62.59999847412109375</AltitudeMeters>
            <DistanceMeters>NAN</DistanceMeters>
          </Trackpoint>
          <Trackpoint>
            <Time>2022-07-06T07:41:21.000Z</Time>
            <Position>
              <LatitudeDegrees>44.16133560240268707275390625</LatitudeDegrees>
              <LongitudeDegrees>-1.06399283744394779205322265625</LongitudeDegrees>
            </Position>
            <AltitudeMeters>62.59999847412109375</AltitudeMeters>
            <DistanceMeters>NAN</DistanceMeters>
          </Trackpoint>
          <Trackpoint>
            <Time>2022-07-06T07:41:31.000Z</Time>
            <Position>
              <LatitudeDegrees>44.161349348723888397216796875</LatitudeDegrees>
              <LongitudeDegrees>-1.0646416805684566497802734375</LongitudeDegrees>
            </Position>
            <AltitudeMeters>62.799999237060546875</AltitudeMeters>
            <DistanceMeters>NAN</DistanceMeters>
          </Trackpoint>
          <Trackpoint>
            <Time>2022-07-06T07:41:33.000Z</Time>
            <Position>
              <LatitudeDegrees>44.16135513223707675933837890625</LatitudeDegrees>
              <LongitudeDegrees>-1.06477419845759868621826171875</LongitudeDegrees>
            </Position>
            <AltitudeMeters>62.59999847412109375</AltitudeMeters>
            <DistanceMeters>NAN</DistanceMeters>
          </Trackpoint>
          <Trackpoint>
            <Time>2022-07-06T07:41:44.000Z</Time>
            <Position>
              <LatitudeDegrees>44.1613780148327350616455078125</LatitudeDegrees>
              <LongitudeDegrees>-1.0655035078525543212890625</LongitudeDegrees>
            </Position>
            <AltitudeMeters>62.40000152587890625</AltitudeMeters>
            <DistanceMeters>NAN</DistanceMeters>
          </Trackpoint>
          <Trackpoint>
            <Time>2022-07-06T07:41:47.000Z</Time>
            <Position>
              <LatitudeDegrees>44.1613817028701305389404296875</LatitudeDegrees>
              <LongitudeDegrees>-1.0657041706144809722900390625</LongitudeDegrees>
            </Position>
            <AltitudeMeters>62.200000762939453125</AltitudeMeters>
            <DistanceMeters>NAN</DistanceMeters>
          </Trackpoint>
          <Trackpoint>
            <Time>2022-07-06T07:41:57.000Z</Time>
            <Position>
              <LatitudeDegrees>44.1613907553255558013916015625</LatitudeDegrees>
              <LongitudeDegrees>-1.066383607685565948486328125</LongitudeDegrees>
            </Position>
            <AltitudeMeters>62.200000762939453125</AltitudeMeters>
            <DistanceMeters>NAN</DistanceMeters>
          </Trackpoint>
          <Trackpoint>
            <Time>2022-07-06T07:42:05.000Z</Time>
            <Position>
              <LatitudeDegrees>44.16140693239867687225341796875</LatitudeDegrees>
              <LongitudeDegrees>-1.0669423453509807586669921875</LongitudeDegrees>
            </Position>
            <AltitudeMeters>62.200000762939453125</AltitudeMeters>
            <DistanceMeters>NAN</DistanceMeters>
          </Trackpoint>
          <Trackpoint>
            <Time>2022-07-06T07:42:08.000Z</Time>
            <Position>
              <LatitudeDegrees>44.16141732595860958099365234375</LatitudeDegrees>
              <LongitudeDegrees>-1.067150048911571502685546875</LongitudeDegrees>
            </Position>
            <AltitudeMeters>62</AltitudeMeters>
            <DistanceMeters>NAN</DistanceMeters>
          </Trackpoint>
          <Trackpoint>
            <Time>2022-07-06T07:42:12.000Z</Time>
            <Position>
              <LatitudeDegrees>44.1614299826323986053466796875</LatitudeDegrees>
              <LongitudeDegrees>-1.06743000447750091552734375</LongitudeDegrees>
            </Position>
            <AltitudeMeters>62</AltitudeMeters>
            <DistanceMeters>NAN</DistanceMeters>
          </Trackpoint>
          <Trackpoint>
            <Time>2022-07-06T07:42:18.000Z</Time>
            <Position>
              <LatitudeDegrees>44.16144213639199733734130859375</LatitudeDegrees>
              <LongitudeDegrees>-1.06785102747380733489990234375</LongitudeDegrees>
            </Position>
            <AltitudeMeters>61.799999237060546875</AltitudeMeters>
            <DistanceMeters>NAN</DistanceMeters>
          </Trackpoint>
          <Trackpoint>
            <Time>2022-07-06T07:42:22.000Z</Time>
            <Position>
              <LatitudeDegrees>44.1614407114684581756591796875</LatitudeDegrees>
              <LongitudeDegrees>-1.068125031888484954833984375</LongitudeDegrees>
            </Position>
            <AltitudeMeters>61.799999237060546875</AltitudeMeters>
            <DistanceMeters>NAN</DistanceMeters>
          </Trackpoint>
          <Trackpoint>
            <Time>2022-07-06T07:42:25.000Z</Time>
            <Position>
              <LatitudeDegrees>44.1614008136093616485595703125</LatitudeDegrees>
              <LongitudeDegrees>-1.06830365024507045745849609375</LongitudeDegrees>
            </Position>
            <AltitudeMeters>61.59999847412109375</AltitudeMeters>
            <DistanceMeters>NAN</DistanceMeters>
          </Trackpoint>
          <Trackpoint>
            <Time>2022-07-06T07:42:30.000Z</Time>
            <Position>
              <LatitudeDegrees>44.1612826287746429443359375</LatitudeDegrees>
              <LongitudeDegrees>-1.0685169696807861328125</LongitudeDegrees>
            </Position>
            <AltitudeMeters>61.59999847412109375</AltitudeMeters>
            <DistanceMeters>NAN</DistanceMeters>
          </Trackpoint>
          <Trackpoint>
            <Time>2022-07-06T07:42:38.000Z</Time>
            <Position>
              <LatitudeDegrees>44.16109512560069561004638671875</LatitudeDegrees>
              <LongitudeDegrees>-1.06878628022968769073486328125</LongitudeDegrees>
            </Position>
            <AltitudeMeters>61.59999847412109375</AltitudeMeters>
            <DistanceMeters>NAN</DistanceMeters>
          </Trackpoint>
          <Trackpoint>
            <Time>2022-07-06T07:42:41.000Z</Time>
            <Position>
              <LatitudeDegrees>44.161075763404369354248046875</LatitudeDegrees>
              <LongitudeDegrees>-1.06883455999195575714111328125</LongitudeDegrees>
            </Position>
            <AltitudeMeters>61.40000152587890625</AltitudeMeters>
            <DistanceMeters>NAN</DistanceMeters>
          </Trackpoint>
          <Trackpoint>
            <Time>2022-07-06T07:42:43.000Z</Time>
            <Position>
              <LatitudeDegrees>44.1610801219940185546875</LatitudeDegrees>
              <LongitudeDegrees>-1.06888107955455780029296875</LongitudeDegrees>
            </Position>
            <AltitudeMeters>61.40000152587890625</AltitudeMeters>
            <DistanceMeters>NAN</DistanceMeters>
          </Trackpoint>
          <Trackpoint>
            <Time>2022-07-06T07:42:49.000Z</Time>
            <Position>
              <LatitudeDegrees>44.16109864600002765655517578125</LatitudeDegrees>
              <LongitudeDegrees>-1.06899146921932697296142578125</LongitudeDegrees>
            </Position>
            <AltitudeMeters>61.200000762939453125</AltitudeMeters>
            <DistanceMeters>NAN</DistanceMeters>
          </Trackpoint>
          <Trackpoint>
            <Time>2022-07-06T07:42:50.000Z</Time>
            <Position>
              <LatitudeDegrees>44.16109864600002765655517578125</LatitudeDegrees>
              <LongitudeDegrees>-1.06899146921932697296142578125</LongitudeDegrees>
            </Position>
            <AltitudeMeters>61</AltitudeMeters>
            <DistanceMeters>NAN</DistanceMeters>
          </Trackpoint>
          <Trackpoint>
            <Time>2022-07-06T07:46:19.000Z</Time>
            <Position>
              <LatitudeDegrees>44.16111859492957592010498046875</LatitudeDegrees>
              <LongitudeDegrees>-1.06872710399329662322998046875</LongitudeDegrees>
            </Position>
            <AltitudeMeters>58.59999847412109375</AltitudeMeters>
            <DistanceMeters>NAN</DistanceMeters>
          </Trackpoint>
          <Trackpoint>
            <Time>2022-07-06T07:46:20.000Z</Time>
            <Position>
              <LatitudeDegrees>44.1611416451632976531982421875</LatitudeDegrees>
              <LongitudeDegrees>-1.06869474984705448150634765625</LongitudeDegrees>
            </Position>
            <AltitudeMeters>58.59999847412109375</AltitudeMeters>
            <DistanceMeters>NAN</DistanceMeters>
          </Trackpoint>
          <Trackpoint>
            <Time>2022-07-06T07:46:21.000Z</Time>
            <Position>
              <LatitudeDegrees>44.1611614264547824859619140625</LatitudeDegrees>
              <LongitudeDegrees>-1.06866759248077869415283203125</LongitudeDegrees>
            </Position>
            <AltitudeMeters>58.59999847412109375</AltitudeMeters>
            <DistanceMeters>NAN</DistanceMeters>
          </Trackpoint>
          <Trackpoint>
            <Time>2022-07-06T07:46:28.000Z</Time>
            <Position>
              <LatitudeDegrees>44.1613076068460941314697265625</LatitudeDegrees>
              <LongitudeDegrees>-1.06845033355057239532470703125</LongitudeDegrees>
            </Position>
            <AltitudeMeters>58.200000762939453125</AltitudeMeters>
            <DistanceMeters>NAN</DistanceMeters>
          </Trackpoint>
          <Trackpoint>
            <Time>2022-07-06T07:46:32.000Z</Time>
            <Position>
              <LatitudeDegrees>44.16138480417430400848388671875</LatitudeDegrees>
              <LongitudeDegrees>-1.06836919672787189483642578125</LongitudeDegrees>
            </Position>
            <AltitudeMeters>58</AltitudeMeters>
            <DistanceMeters>NAN</DistanceMeters>
          </Trackpoint>
          <Trackpoint>
            <Time>2022-07-06T07:46:33.000Z</Time>
            <Position>
              <LatitudeDegrees>44.1614051721990108489990234375</LatitudeDegrees>
              <LongitudeDegrees>-1.068371124565601348876953125</LongitudeDegrees>
            </Position>
            <AltitudeMeters>58</AltitudeMeters>
            <DistanceMeters>NAN</DistanceMeters>
          </Trackpoint>
          <Trackpoint>
            <Time>2022-07-06T07:46:35.000Z</Time>
            <Position>
              <LatitudeDegrees>44.1614423878490924835205078125</LatitudeDegrees>
              <LongitudeDegrees>-1.0684041492640972137451171875</LongitudeDegrees>
            </Position>
            <AltitudeMeters>58</AltitudeMeters>
            <DistanceMeters>NAN</DistanceMeters>
          </Trackpoint>
          <Trackpoint>
            <Time>2022-07-06T07:46:37.000Z</Time>
            <Position>
              <LatitudeDegrees>44.16146099567413330078125</LatitudeDegrees>
              <LongitudeDegrees>-1.06849475763738155364990234375</LongitudeDegrees>
            </Position>
            <AltitudeMeters>57.799999237060546875</AltitudeMeters>
            <DistanceMeters>NAN</DistanceMeters>
          </Trackpoint>
          <Trackpoint>
            <Time>2022-07-06T07:46:39.000Z</Time>
            <Position>
              <LatitudeDegrees>44.1614638455212116241455078125</LatitudeDegrees>
              <LongitudeDegrees>-1.0686153732240200042724609375</LongitudeDegrees>
            </Position>
            <AltitudeMeters>57.799999237060546875</AltitudeMeters>
            <DistanceMeters>NAN</DistanceMeters>
          </Trackpoint>
          <Trackpoint>
            <Time>2022-07-06T07:46:42.000Z</Time>
            <Position>
              <LatitudeDegrees>44.161470048129558563232421875</LatitudeDegrees>
              <LongitudeDegrees>-1.06881578452885150909423828125</LongitudeDegrees>
            </Position>
            <AltitudeMeters>57.59999847412109375</AltitudeMeters>
            <DistanceMeters>NAN</DistanceMeters>
          </Trackpoint>
          <Trackpoint>
            <Time>2022-07-06T07:46:51.000Z</Time>
            <Position>
              <LatitudeDegrees>44.1615079343318939208984375</LatitudeDegrees>
              <LongitudeDegrees>-1.0694465227425098419189453125</LongitudeDegrees>
            </Position>
            <AltitudeMeters>57.799999237060546875</AltitudeMeters>
            <DistanceMeters>NAN</DistanceMeters>
          </Trackpoint>
          <Trackpoint>
            <Time>2022-07-06T07:46:58.000Z</Time>
            <Position>
              <LatitudeDegrees>44.16149192489683628082275390625</LatitudeDegrees>
              <LongitudeDegrees>-1.06992688961327075958251953125</LongitudeDegrees>
            </Position>
            <AltitudeMeters>58</AltitudeMeters>
            <DistanceMeters>NAN</DistanceMeters>
          </Trackpoint>
          <Trackpoint>
            <Time>2022-07-06T07:47:05.000Z</Time>
            <Position>
              <LatitudeDegrees>44.1614571399986743927001953125</LatitudeDegrees>
              <LongitudeDegrees>-1.07040432281792163848876953125</LongitudeDegrees>
            </Position>
            <AltitudeMeters>58.200000762939453125</AltitudeMeters>
            <DistanceMeters>NAN</DistanceMeters>
          </Trackpoint>
          <Trackpoint>
            <Time>2022-07-06T07:47:12.000Z</Time>
            <Position>
              <LatitudeDegrees>44.16136887855827808380126953125</LatitudeDegrees>
              <LongitudeDegrees>-1.07093992643058300018310546875</LongitudeDegrees>
            </Position>
            <AltitudeMeters>57.59999847412109375</AltitudeMeters>
            <DistanceMeters>NAN</DistanceMeters>
          </Trackpoint>
          <Trackpoint>
            <Time>2022-07-06T07:47:13.000Z</Time>
            <Position>
              <LatitudeDegrees>44.1613521985709667205810546875</LatitudeDegrees>
              <LongitudeDegrees>-1.07102056033909320831298828125</LongitudeDegrees>
            </Position>
            <AltitudeMeters>57.40000152587890625</AltitudeMeters>
            <DistanceMeters>NAN</DistanceMeters>
          </Trackpoint>
          <Trackpoint>
            <Time>2022-07-06T07:47:15.000Z</Time>
            <Position>
              <LatitudeDegrees>44.16131389327347278594970703125</LatitudeDegrees>
              <LongitudeDegrees>-1.07119339518249034881591796875</LongitudeDegrees>
            </Position>
            <AltitudeMeters>57.200000762939453125</AltitudeMeters>
            <DistanceMeters>NAN</DistanceMeters>
          </Trackpoint>
          <Trackpoint>
            <Time>2022-07-06T07:47:18.000Z</Time>
            <Position>
              <LatitudeDegrees>44.16125002317130565643310546875</LatitudeDegrees>
              <LongitudeDegrees>-1.07147536240518093109130859375</LongitudeDegrees>
            </Position>
            <AltitudeMeters>56.799999237060546875</AltitudeMeters>
            <DistanceMeters>NAN</DistanceMeters>
          </Trackpoint>
          <Trackpoint>
            <Time>2022-07-06T07:47:21.000Z</Time>
            <Position>
              <LatitudeDegrees>44.1611812077462673187255859375</LatitudeDegrees>
              <LongitudeDegrees>-1.07176621444523334503173828125</LongitudeDegrees>
            </Position>
            <AltitudeMeters>56.40000152587890625</AltitudeMeters>
            <DistanceMeters>NAN</DistanceMeters>
          </Trackpoint>
          <Trackpoint>
            <Time>2022-07-06T07:47:24.000Z</Time>
            <Position>
              <LatitudeDegrees>44.16110132820904254913330078125</LatitudeDegrees>
              <LongitudeDegrees>-1.072053797543048858642578125</LongitudeDegrees>
            </Position>
            <AltitudeMeters>55.799999237060546875</AltitudeMeters>
            <DistanceMeters>NAN</DistanceMeters>
          </Trackpoint>
          <Trackpoint>
            <Time>2022-07-06T07:47:26.000Z</Time>
            <Position>
              <LatitudeDegrees>44.1610631905496120452880859375</LatitudeDegrees>
              <LongitudeDegrees>-1.072230823338031768798828125</LongitudeDegrees>
            </Position>
            <AltitudeMeters>55.40000152587890625</AltitudeMeters>
            <DistanceMeters>NAN</DistanceMeters>
          </Trackpoint>
          <Trackpoint>
            <Time>2022-07-06T07:47:27.000Z</Time>
            <Position>
              <LatitudeDegrees>44.1610465943813323974609375</LatitudeDegrees>
              <LongitudeDegrees>-1.07232143171131610870361328125</LongitudeDegrees>
            </Position>
            <AltitudeMeters>55.40000152587890625</AltitudeMeters>
            <DistanceMeters>NAN</DistanceMeters>
          </Trackpoint>
          <Trackpoint>
            <Time>2022-07-06T07:47:28.000Z</Time>
            <Position>
              <LatitudeDegrees>44.16103159077465534210205078125</LatitudeDegrees>
              <LongitudeDegrees>-1.0724060051143169403076171875</LongitudeDegrees>
            </Position>
            <AltitudeMeters>55.200000762939453125</AltitudeMeters>
            <DistanceMeters>NAN</DistanceMeters>
          </Trackpoint>
          <Trackpoint>
            <Time>2022-07-06T07:47:29.000Z</Time>
            <Position>
              <LatitudeDegrees>44.1610219515860080718994140625</LatitudeDegrees>
              <LongitudeDegrees>-1.072483956813812255859375</LongitudeDegrees>
            </Position>
            <AltitudeMeters>55.200000762939453125</AltitudeMeters>
            <DistanceMeters>NAN</DistanceMeters>
          </Trackpoint>
          <Trackpoint>
            <Time>2022-07-06T07:47:30.000Z</Time>
            <Position>
              <LatitudeDegrees>44.16101432405412197113037109375</LatitudeDegrees>
              <LongitudeDegrees>-1.0725619085133075714111328125</LongitudeDegrees>
            </Position>
            <AltitudeMeters>55.200000762939453125</AltitudeMeters>
            <DistanceMeters>NAN</DistanceMeters>
          </Trackpoint>
          <Trackpoint>
            <Time>2022-07-06T07:47:31.000Z</Time>
            <Position>
              <LatitudeDegrees>44.16100309230387210845947265625</LatitudeDegrees>
              <LongitudeDegrees>-1.07263038866221904754638671875</LongitudeDegrees>
            </Position>
            <AltitudeMeters>55</AltitudeMeters>
            <DistanceMeters>NAN</DistanceMeters>
          </Trackpoint>
          <Trackpoint>
            <Time>2022-07-06T07:47:33.000Z</Time>
            <Position>
              <LatitudeDegrees>44.1609693132340908050537109375</LatitudeDegrees>
              <LongitudeDegrees>-1.07276366092264652252197265625</LongitudeDegrees>
            </Position>
            <AltitudeMeters>55</AltitudeMeters>
            <DistanceMeters>NAN</DistanceMeters>
          </Trackpoint>
          <Trackpoint>
            <Time>2022-07-06T07:47:36.000Z</Time>
            <Position>
              <LatitudeDegrees>44.16095112450420856475830078125</LatitudeDegrees>
              <LongitudeDegrees>-1.07293699868023395538330078125</LongitudeDegrees>
            </Position>
            <AltitudeMeters>55</AltitudeMeters>
            <DistanceMeters>NAN</DistanceMeters>
          </Trackpoint>
          <Trackpoint>
            <Time>2022-07-06T07:47:38.000Z</Time>
            <Position>
              <LatitudeDegrees>44.1609280742704868316650390625</LatitudeDegrees>
              <LongitudeDegrees>-1.07305753044784069061279296875</LongitudeDegrees>
            </Position>
            <AltitudeMeters>55.40000152587890625</AltitudeMeters>
            <DistanceMeters>NAN</DistanceMeters>
          </Trackpoint>
          <Trackpoint>
            <Time>2022-07-06T07:47:40.000Z</Time>
            <Position>
              <LatitudeDegrees>44.16091893799602985382080078125</LatitudeDegrees>
              <LongitudeDegrees>-1.073182336986064910888671875</LongitudeDegrees>
            </Position>
            <AltitudeMeters>56</AltitudeMeters>
            <DistanceMeters>NAN</DistanceMeters>
          </Trackpoint>
          <Trackpoint>
            <Time>2022-07-06T07:47:41.000Z</Time>
            <Position>
              <LatitudeDegrees>44.16091826744377613067626953125</LatitudeDegrees>
              <LongitudeDegrees>-1.0732321254909038543701171875</LongitudeDegrees>
            </Position>
            <AltitudeMeters>56</AltitudeMeters>
            <DistanceMeters>NAN</DistanceMeters>
          </Trackpoint>
          <Trackpoint>
            <Time>2022-07-06T07:47:45.000Z</Time>
            <Position>
              <LatitudeDegrees>44.16090636514127254486083984375</LatitudeDegrees>
              <LongitudeDegrees>-1.07346505858004093170166015625</LongitudeDegrees>
            </Position>
            <AltitudeMeters>56.40000152587890625</AltitudeMeters>
            <DistanceMeters>NAN</DistanceMeters>
          </Trackpoint>
          <Trackpoint>
            <Time>2022-07-06T07:47:48.000Z</Time>
            <Position>
              <LatitudeDegrees>44.1609143279492855072021484375</LatitudeDegrees>
              <LongitudeDegrees>-1.07364040799438953399658203125</LongitudeDegrees>
            </Position>
            <AltitudeMeters>56.40000152587890625</AltitudeMeters>
            <DistanceMeters>NAN</DistanceMeters>
          </Trackpoint>
          <Trackpoint>
            <Time>2022-07-06T07:47:50.000Z</Time>
            <Position>
              <LatitudeDegrees>44.16091206483542919158935546875</LatitudeDegrees>
              <LongitudeDegrees>-1.073757000267505645751953125</LongitudeDegrees>
            </Position>
            <AltitudeMeters>56.799999237060546875</AltitudeMeters>
            <DistanceMeters>NAN</DistanceMeters>
          </Trackpoint>
          <Trackpoint>
            <Time>2022-07-06T07:47:52.000Z</Time>
            <Position>
              <LatitudeDegrees>44.16093151085078716278076171875</LatitudeDegrees>
              <LongitudeDegrees>-1.0738768614828586578369140625</LongitudeDegrees>
            </Position>
            <AltitudeMeters>57</AltitudeMeters>
            <DistanceMeters>NAN</DistanceMeters>
          </Trackpoint>
          <Trackpoint>
            <Time>2022-07-06T07:47:53.000Z</Time>
            <Position>
              <LatitudeDegrees>44.16094534099102020263671875</LatitudeDegrees>
              <LongitudeDegrees>-1.07393410988152027130126953125</LongitudeDegrees>
            </Position>
            <AltitudeMeters>57</AltitudeMeters>
            <DistanceMeters>NAN</DistanceMeters>
          </Trackpoint>
          <Trackpoint>
            <Time>2022-07-06T07:47:55.000Z</Time>
            <Position>
              <LatitudeDegrees>44.160961098968982696533203125</LatitudeDegrees>
              <LongitudeDegrees>-1.07405581511557102203369140625</LongitudeDegrees>
            </Position>
            <AltitudeMeters>57</AltitudeMeters>
            <DistanceMeters>NAN</DistanceMeters>
          </Trackpoint>
          <Trackpoint>
            <Time>2022-07-06T07:47:57.000Z</Time>
            <Position>
              <LatitudeDegrees>44.16098289191722869873046875</LatitudeDegrees>
              <LongitudeDegrees>-1.07417902909219264984130859375</LongitudeDegrees>
            </Position>
            <AltitudeMeters>57.200000762939453125</AltitudeMeters>
            <DistanceMeters>NAN</DistanceMeters>
          </Trackpoint>
          <Trackpoint>
            <Time>2022-07-06T07:47:59.000Z</Time>
            <Position>
              <LatitudeDegrees>44.1610051877796649932861328125</LatitudeDegrees>
              <LongitudeDegrees>-1.07430358417332172393798828125</LongitudeDegrees>
            </Position>
            <AltitudeMeters>57.40000152587890625</AltitudeMeters>
            <DistanceMeters>NAN</DistanceMeters>
          </Trackpoint>
          <Trackpoint>
            <Time>2022-07-06T07:48:01.000Z</Time>
            <Position>
              <LatitudeDegrees>44.1610336862504482269287109375</LatitudeDegrees>
              <LongitudeDegrees>-1.0744220204651355743408203125</LongitudeDegrees>
            </Position>
            <AltitudeMeters>57.40000152587890625</AltitudeMeters>
            <DistanceMeters>NAN</DistanceMeters>
          </Trackpoint>
          <Trackpoint>
            <Time>2022-07-06T07:48:09.000Z</Time>
            <Position>
              <LatitudeDegrees>44.16114742867648601531982421875</LatitudeDegrees>
              <LongitudeDegrees>-1.07494848780333995819091796875</LongitudeDegrees>
            </Position>
            <AltitudeMeters>57.200000762939453125</AltitudeMeters>
            <DistanceMeters>NAN</DistanceMeters>
          </Trackpoint>
          <Trackpoint>
            <Time>2022-07-06T07:48:13.000Z</Time>
            <Position>
              <LatitudeDegrees>44.161226637661457061767578125</LatitudeDegrees>
              <LongitudeDegrees>-1.07522509060800075531005859375</LongitudeDegrees>
            </Position>
            <AltitudeMeters>57.200000762939453125</AltitudeMeters>
            <DistanceMeters>NAN</DistanceMeters>
          </Trackpoint>
          <Trackpoint>
            <Time>2022-07-06T07:48:17.000Z</Time>
            <Position>
              <LatitudeDegrees>44.16130366735160350799560546875</LatitudeDegrees>
              <LongitudeDegrees>-1.0755012743175029754638671875</LongitudeDegrees>
            </Position>
            <AltitudeMeters>57.200000762939453125</AltitudeMeters>
            <DistanceMeters>NAN</DistanceMeters>
          </Trackpoint>
          <Trackpoint>
            <Time>2022-07-06T07:48:27.000Z</Time>
            <Position>
              <LatitudeDegrees>44.16149293072521686553955078125</LatitudeDegrees>
              <LongitudeDegrees>-1.0762377083301544189453125</LongitudeDegrees>
            </Position>
            <AltitudeMeters>57.40000152587890625</AltitudeMeters>
            <DistanceMeters>NAN</DistanceMeters>
          </Trackpoint>
          <Trackpoint>
            <Time>2022-07-06T07:48:35.000Z</Time>
            <Position>
              <LatitudeDegrees>44.1616445593535900115966796875</LatitudeDegrees>
              <LongitudeDegrees>-1.07679015956819057464599609375</LongitudeDegrees>
            </Position>
            <AltitudeMeters>57.40000152587890625</AltitudeMeters>
            <DistanceMeters>NAN</DistanceMeters>
          </Trackpoint>
          <Trackpoint>
            <Time>2022-07-06T07:48:36.000Z</Time>
            <Position>
              <LatitudeDegrees>44.1616619937121868133544921875</LatitudeDegrees>
              <LongitudeDegrees>-1.0768608190119266510009765625</LongitudeDegrees>
            </Position>
            <AltitudeMeters>57.40000152587890625</AltitudeMeters>
            <DistanceMeters>NAN</DistanceMeters>
          </Trackpoint>
          <Trackpoint>
            <Time>2022-07-06T07:48:43.000Z</Time>
            <Position>
              <LatitudeDegrees>44.1617853753268718719482421875</LatitudeDegrees>
              <LongitudeDegrees>-1.077311933040618896484375</LongitudeDegrees>
            </Position>
            <AltitudeMeters>57.59999847412109375</AltitudeMeters>
            <DistanceMeters>NAN</DistanceMeters>
          </Trackpoint>
          <Trackpoint>
            <Time>2022-07-06T07:48:50.000Z</Time>
            <Position>
              <LatitudeDegrees>44.16192610748112201690673828125</LatitudeDegrees>
              <LongitudeDegrees>-1.07778609730303287506103515625</LongitudeDegrees>
            </Position>
            <AltitudeMeters>57.799999237060546875</AltitudeMeters>
            <DistanceMeters>NAN</DistanceMeters>
          </Trackpoint>
          <Trackpoint>
            <Time>2022-07-06T07:48:52.000Z</Time>
            <Position>
              <LatitudeDegrees>44.1619570367038249969482421875</LatitudeDegrees>
              <LongitudeDegrees>-1.077926494181156158447265625</LongitudeDegrees>
            </Position>
            <AltitudeMeters>57.799999237060546875</AltitudeMeters>
            <DistanceMeters>NAN</DistanceMeters>
          </Trackpoint>
          <Trackpoint>
            <Time>2022-07-06T07:49:03.000Z</Time>
            <Position>
              <LatitudeDegrees>44.16216063313186168670654296875</LatitudeDegrees>
              <LongitudeDegrees>-1.07868245802819728851318359375</LongitudeDegrees>
            </Position>
            <AltitudeMeters>57.59999847412109375</AltitudeMeters>
            <DistanceMeters>NAN</DistanceMeters>
          </Trackpoint>
          <Trackpoint>
            <Time>2022-07-06T07:49:14.000Z</Time>
            <Position>
              <LatitudeDegrees>44.162361882627010345458984375</LatitudeDegrees>
              <LongitudeDegrees>-1.0794226638972759246826171875</LongitudeDegrees>
            </Position>
            <AltitudeMeters>57.799999237060546875</AltitudeMeters>
            <DistanceMeters>NAN</DistanceMeters>
          </Trackpoint>
          <Trackpoint>
            <Time>2022-07-06T07:49:15.000Z</Time>
            <Position>
              <LatitudeDegrees>44.1623831726610660552978515625</LatitudeDegrees>
              <LongitudeDegrees>-1.0795027948915958404541015625</LongitudeDegrees>
            </Position>
            <AltitudeMeters>57.799999237060546875</AltitudeMeters>
            <DistanceMeters>NAN</DistanceMeters>
          </Trackpoint>
          <Trackpoint>
            <Time>2022-07-06T07:49:26.000Z</Time>
            <Position>
              <LatitudeDegrees>44.16258282959461212158203125</LatitudeDegrees>
              <LongitudeDegrees>-1.08024367131292819976806640625</LongitudeDegrees>
            </Position>
            <AltitudeMeters>58</AltitudeMeters>
            <DistanceMeters>NAN</DistanceMeters>
          </Trackpoint>
          <Trackpoint>
            <Time>2022-07-06T07:49:27.000Z</Time>
            <Position>
              <LatitudeDegrees>44.162601269781589508056640625</LatitudeDegrees>
              <LongitudeDegrees>-1.080308966338634490966796875</LongitudeDegrees>
            </Position>
            <AltitudeMeters>58</AltitudeMeters>
            <DistanceMeters>NAN</DistanceMeters>
          </Trackpoint>
          <Trackpoint>
            <Time>2022-07-06T07:49:37.000Z</Time>
            <Position>
              <LatitudeDegrees>44.1628039442002773284912109375</LatitudeDegrees>
              <LongitudeDegrees>-1.08103693462908267974853515625</LongitudeDegrees>
            </Position>
            <AltitudeMeters>57.59999847412109375</AltitudeMeters>
            <DistanceMeters>NAN</DistanceMeters>
          </Trackpoint>
          <Trackpoint>
            <Time>2022-07-06T07:49:38.000Z</Time>
            <Position>
              <LatitudeDegrees>44.1628193669021129608154296875</LatitudeDegrees>
              <LongitudeDegrees>-1.08109560795128345489501953125</LongitudeDegrees>
            </Position>
            <AltitudeMeters>57.59999847412109375</AltitudeMeters>
            <DistanceMeters>NAN</DistanceMeters>
          </Trackpoint>
          <Trackpoint>
            <Time>2022-07-06T07:49:48.000Z</Time>
            <Position>
              <LatitudeDegrees>44.1630275733768939971923828125</LatitudeDegrees>
              <LongitudeDegrees>-1.0818537510931491851806640625</LongitudeDegrees>
            </Position>
            <AltitudeMeters>57.200000762939453125</AltitudeMeters>
            <DistanceMeters>NAN</DistanceMeters>
          </Trackpoint>
          <Trackpoint>
            <Time>2022-07-06T07:49:50.000Z</Time>
            <Position>
              <LatitudeDegrees>44.16306520812213420867919921875</LatitudeDegrees>
              <LongitudeDegrees>-1.08198962174355983734130859375</LongitudeDegrees>
            </Position>
            <AltitudeMeters>57.200000762939453125</AltitudeMeters>
            <DistanceMeters>NAN</DistanceMeters>
          </Trackpoint>
          <Trackpoint>
            <Time>2022-07-06T07:49:58.000Z</Time>
            <Position>
              <LatitudeDegrees>44.1632287390530109405517578125</LatitudeDegrees>
              <LongitudeDegrees>-1.082612983882427215576171875</LongitudeDegrees>
            </Position>
            <AltitudeMeters>57.200000762939453125</AltitudeMeters>
            <DistanceMeters>NAN</DistanceMeters>
          </Trackpoint>
          <Trackpoint>
            <Time>2022-07-06T07:50:07.000Z</Time>
            <Position>
              <LatitudeDegrees>44.16339294053614139556884765625</LatitudeDegrees>
              <LongitudeDegrees>-1.0832436382770538330078125</LongitudeDegrees>
            </Position>
            <AltitudeMeters>57</AltitudeMeters>
            <DistanceMeters>NAN</DistanceMeters>
          </Trackpoint>
          <Trackpoint>
            <Time>2022-07-06T07:50:17.000Z</Time>
            <Position>
              <LatitudeDegrees>44.1635774262249469757080078125</LatitudeDegrees>
              <LongitudeDegrees>-1.0839220695197582244873046875</LongitudeDegrees>
            </Position>
            <AltitudeMeters>57.40000152587890625</AltitudeMeters>
            <DistanceMeters>NAN</DistanceMeters>
          </Trackpoint>
          <Trackpoint>
            <Time>2022-07-06T07:50:23.000Z</Time>
            <Position>
              <LatitudeDegrees>44.1636729799211025238037109375</LatitudeDegrees>
              <LongitudeDegrees>-1.08431342057883739471435546875</LongitudeDegrees>
            </Position>
            <AltitudeMeters>57</AltitudeMeters>
            <DistanceMeters>NAN</DistanceMeters>
          </Trackpoint>
          <Trackpoint>
            <Time>2022-07-06T07:50:25.000Z</Time>
            <Position>
              <LatitudeDegrees>44.1637112013995647430419921875</LatitudeDegrees>
              <LongitudeDegrees>-1.08445809222757816314697265625</LongitudeDegrees>
            </Position>
            <AltitudeMeters>56.799999237060546875</AltitudeMeters>
            <DistanceMeters>NAN</DistanceMeters>
          </Trackpoint>
          <Trackpoint>
            <Time>2022-07-06T07:50:30.000Z</Time>
            <Position>
              <LatitudeDegrees>44.16380616836249828338623046875</LatitudeDegrees>
              <LongitudeDegrees>-1.08479605056345462799072265625</LongitudeDegrees>
            </Position>
            <AltitudeMeters>56.40000152587890625</AltitudeMeters>
            <DistanceMeters>NAN</DistanceMeters>
          </Trackpoint>
          <Trackpoint>
            <Time>2022-07-06T07:50:33.000Z</Time>
            <Position>
              <LatitudeDegrees>44.1638583876192569732666015625</LatitudeDegrees>
              <LongitudeDegrees>-1.08498036861419677734375</LongitudeDegrees>
            </Position>
            <AltitudeMeters>56.200000762939453125</AltitudeMeters>
            <DistanceMeters>NAN</DistanceMeters>
          </Trackpoint>
          <Trackpoint>
            <Time>2022-07-06T07:50:34.000Z</Time>
            <Position>
              <LatitudeDegrees>44.1638795100152492523193359375</LatitudeDegrees>
              <LongitudeDegrees>-1.0850482620298862457275390625</LongitudeDegrees>
            </Position>
            <AltitudeMeters>56.200000762939453125</AltitudeMeters>
            <DistanceMeters>NAN</DistanceMeters>
          </Trackpoint>
          <Trackpoint>
            <Time>2022-07-06T07:50:42.000Z</Time>
            <Position>
              <LatitudeDegrees>44.16404421441256999969482421875</LatitudeDegrees>
              <LongitudeDegrees>-1.08558629639446735382080078125</LongitudeDegrees>
            </Position>
            <AltitudeMeters>56.40000152587890625</AltitudeMeters>
            <DistanceMeters>NAN</DistanceMeters>
          </Trackpoint>
          <Trackpoint>
            <Time>2022-07-06T07:50:46.000Z</Time>
            <Position>
              <LatitudeDegrees>44.164120070636272430419921875</LatitudeDegrees>
              <LongitudeDegrees>-1.08586356975138187408447265625</LongitudeDegrees>
            </Position>
            <AltitudeMeters>56.40000152587890625</AltitudeMeters>
            <DistanceMeters>NAN</DistanceMeters>
          </Trackpoint>
          <Trackpoint>
            <Time>2022-07-06T07:50:50.000Z</Time>
            <Position>
              <LatitudeDegrees>44.1641986928880214691162109375</LatitudeDegrees>
              <LongitudeDegrees>-1.0861439444124698638916015625</LongitudeDegrees>
            </Position>
            <AltitudeMeters>56.40000152587890625</AltitudeMeters>
            <DistanceMeters>NAN</DistanceMeters>
          </Trackpoint>
          <Trackpoint>
            <Time>2022-07-06T07:50:58.000Z</Time>
            <Position>
              <LatitudeDegrees>44.1643431968986988067626953125</LatitudeDegrees>
              <LongitudeDegrees>-1.08669404871761798858642578125</LongitudeDegrees>
            </Position>
            <AltitudeMeters>56.40000152587890625</AltitudeMeters>
            <DistanceMeters>NAN</DistanceMeters>
          </Trackpoint>
          <Trackpoint>
            <Time>2022-07-06T07:51:09.000Z</Time>
            <Position>
              <LatitudeDegrees>44.1645483858883380889892578125</LatitudeDegrees>
              <LongitudeDegrees>-1.0874417982995510101318359375</LongitudeDegrees>
            </Position>
            <AltitudeMeters>56</AltitudeMeters>
            <DistanceMeters>NAN</DistanceMeters>
          </Trackpoint>
          <Trackpoint>
            <Time>2022-07-06T07:51:10.000Z</Time>
            <Position>
              <LatitudeDegrees>44.16456355713307857513427734375</LatitudeDegrees>
              <LongitudeDegrees>-1.08749384991824626922607421875</LongitudeDegrees>
            </Position>
            <AltitudeMeters>56</AltitudeMeters>
            <DistanceMeters>NAN</DistanceMeters>
          </Trackpoint>
          <Trackpoint>
            <Time>2022-07-06T07:51:19.000Z</Time>
            <Position>
              <LatitudeDegrees>44.164728932082653045654296875</LatitudeDegrees>
              <LongitudeDegrees>-1.08810220845043659210205078125</LongitudeDegrees>
            </Position>
            <AltitudeMeters>56</AltitudeMeters>
            <DistanceMeters>NAN</DistanceMeters>
          </Trackpoint>
          <Trackpoint>
            <Time>2022-07-06T07:51:24.000Z</Time>
            <Position>
              <LatitudeDegrees>44.16481283493340015411376953125</LatitudeDegrees>
              <LongitudeDegrees>-1.08844419009983539581298828125</LongitudeDegrees>
            </Position>
            <AltitudeMeters>55.799999237060546875</AltitudeMeters>
            <DistanceMeters>NAN</DistanceMeters>
          </Trackpoint>
          <Trackpoint>
            <Time>2022-07-06T07:51:27.000Z</Time>
            <Position>
              <LatitudeDegrees>44.16486564092338085174560546875</LatitudeDegrees>
              <LongitudeDegrees>-1.08864552341401576995849609375</LongitudeDegrees>
            </Position>
            <AltitudeMeters>56</AltitudeMeters>
            <DistanceMeters>NAN</DistanceMeters>
          </Trackpoint>
          <Trackpoint>
            <Time>2022-07-06T07:51:37.000Z</Time>
            <Position>
              <LatitudeDegrees>44.16505255736410617828369140625</LatitudeDegrees>
              <LongitudeDegrees>-1.0893049277365207672119140625</LongitudeDegrees>
            </Position>
            <AltitudeMeters>55.59999847412109375</AltitudeMeters>
            <DistanceMeters>NAN</DistanceMeters>
          </Trackpoint>
          <Trackpoint>
            <Time>2022-07-06T07:51:40.000Z</Time>
            <Position>
              <LatitudeDegrees>44.16510351933538913726806640625</LatitudeDegrees>
              <LongitudeDegrees>-1.08951556496322154998779296875</LongitudeDegrees>
            </Position>
            <AltitudeMeters>55.59999847412109375</AltitudeMeters>
            <DistanceMeters>NAN</DistanceMeters>
          </Trackpoint>
          <Trackpoint>
            <Time>2022-07-06T07:51:47.000Z</Time>
            <Position>
              <LatitudeDegrees>44.16524249128997325897216796875</LatitudeDegrees>
              <LongitudeDegrees>-1.09000054188072681427001953125</LongitudeDegrees>
            </Position>
            <AltitudeMeters>55.799999237060546875</AltitudeMeters>
            <DistanceMeters>NAN</DistanceMeters>
          </Trackpoint>
          <Trackpoint>
            <Time>2022-07-06T07:51:57.000Z</Time>
            <Position>
              <LatitudeDegrees>44.165433011949062347412109375</LatitudeDegrees>
              <LongitudeDegrees>-1.09069892205297946929931640625</LongitudeDegrees>
            </Position>
            <AltitudeMeters>55.799999237060546875</AltitudeMeters>
            <DistanceMeters>NAN</DistanceMeters>
          </Trackpoint>
          <Trackpoint>
            <Time>2022-07-06T07:51:59.000Z</Time>
            <Position>
              <LatitudeDegrees>44.16546863503754138946533203125</LatitudeDegrees>
              <LongitudeDegrees>-1.09082263894379138946533203125</LongitudeDegrees>
            </Position>
            <AltitudeMeters>55.799999237060546875</AltitudeMeters>
            <DistanceMeters>NAN</DistanceMeters>
          </Trackpoint>
          <Trackpoint>
            <Time>2022-07-06T07:52:00.000Z</Time>
            <Position>
              <LatitudeDegrees>44.16548791341483592987060546875</LatitudeDegrees>
              <LongitudeDegrees>-1.0908891074359416961669921875</LongitudeDegrees>
            </Position>
            <AltitudeMeters>55.59999847412109375</AltitudeMeters>
            <DistanceMeters>NAN</DistanceMeters>
          </Trackpoint>
          <Trackpoint>
            <Time>2022-07-06T07:52:11.000Z</Time>
            <Position>
              <LatitudeDegrees>44.16569427587091922760009765625</LatitudeDegrees>
              <LongitudeDegrees>-1.09165060333907604217529296875</LongitudeDegrees>
            </Position>
            <AltitudeMeters>55.59999847412109375</AltitudeMeters>
            <DistanceMeters>NAN</DistanceMeters>
          </Trackpoint>
          <Trackpoint>
            <Time>2022-07-06T07:52:12.000Z</Time>
            <Position>
              <LatitudeDegrees>44.1657127998769283294677734375</LatitudeDegrees>
              <LongitudeDegrees>-1.0917031578719615936279296875</LongitudeDegrees>
            </Position>
            <AltitudeMeters>55.59999847412109375</AltitudeMeters>
            <DistanceMeters>NAN</DistanceMeters>
          </Trackpoint>
          <Trackpoint>
            <Time>2022-07-06T07:52:17.000Z</Time>
            <Position>
              <LatitudeDegrees>44.1658053360879421234130859375</LatitudeDegrees>
              <LongitudeDegrees>-1.09204958193004131317138671875</LongitudeDegrees>
            </Position>
            <AltitudeMeters>55.59999847412109375</AltitudeMeters>
            <DistanceMeters>NAN</DistanceMeters>
          </Trackpoint>
          <Trackpoint>
            <Time>2022-07-06T07:52:20.000Z</Time>
            <Position>
              <LatitudeDegrees>44.16586006991565227508544921875</LatitudeDegrees>
              <LongitudeDegrees>-1.09226332046091556549072265625</LongitudeDegrees>
            </Position>
            <AltitudeMeters>55.59999847412109375</AltitudeMeters>
            <DistanceMeters>NAN</DistanceMeters>
          </Trackpoint>
          <Trackpoint>
            <Time>2022-07-06T07:52:22.000Z</Time>
            <Position>
              <LatitudeDegrees>44.16589133441448211669921875</LatitudeDegrees>
              <LongitudeDegrees>-1.09238527715206146240234375</LongitudeDegrees>
            </Position>
            <AltitudeMeters>55.59999847412109375</AltitudeMeters>
            <DistanceMeters>NAN</DistanceMeters>
          </Trackpoint>
          <Trackpoint>
            <Time>2022-07-06T07:52:23.000Z</Time>
            <Position>
              <LatitudeDegrees>44.16591153480112552642822265625</LatitudeDegrees>
              <LongitudeDegrees>-1.0924650728702545166015625</LongitudeDegrees>
            </Position>
            <AltitudeMeters>55.59999847412109375</AltitudeMeters>
            <DistanceMeters>NAN</DistanceMeters>
          </Trackpoint>
          <Trackpoint>
            <Time>2022-07-06T07:52:27.000Z</Time>
            <Position>
              <LatitudeDegrees>44.16598387062549591064453125</LatitudeDegrees>
              <LongitudeDegrees>-1.09271384775638580322265625</LongitudeDegrees>
            </Position>
            <AltitudeMeters>55.59999847412109375</AltitudeMeters>
            <DistanceMeters>NAN</DistanceMeters>
          </Trackpoint>
          <Trackpoint>
            <Time>2022-07-06T07:52:33.000Z</Time>
            <Position>
              <LatitudeDegrees>44.16609342209994792938232421875</LatitudeDegrees>
              <LongitudeDegrees>-1.09311374835669994354248046875</LongitudeDegrees>
            </Position>
            <AltitudeMeters>55.59999847412109375</AltitudeMeters>
            <DistanceMeters>NAN</DistanceMeters>
          </Trackpoint>
          <Trackpoint>
            <Time>2022-07-06T07:52:42.000Z</Time>
            <Position>
              <LatitudeDegrees>44.16626106016337871551513671875</LatitudeDegrees>
              <LongitudeDegrees>-1.09373719431459903717041015625</LongitudeDegrees>
            </Position>
            <AltitudeMeters>55.40000152587890625</AltitudeMeters>
            <DistanceMeters>NAN</DistanceMeters>
          </Trackpoint>
          <Trackpoint>
            <Time>2022-07-06T07:52:43.000Z</Time>
            <Position>
              <LatitudeDegrees>44.16628117673099040985107421875</LatitudeDegrees>
              <LongitudeDegrees>-1.09380827285349369049072265625</LongitudeDegrees>
            </Position>
            <AltitudeMeters>55.40000152587890625</AltitudeMeters>
            <DistanceMeters>NAN</DistanceMeters>
          </Trackpoint>
          <Trackpoint>
            <Time>2022-07-06T07:52:44.000Z</Time>
            <Position>
              <LatitudeDegrees>44.16630573570728302001953125</LatitudeDegrees>
              <LongitudeDegrees>-1.0938955284655094146728515625</LongitudeDegrees>
            </Position>
            <AltitudeMeters>55.200000762939453125</AltitudeMeters>
            <DistanceMeters>NAN</DistanceMeters>
          </Trackpoint>
          <Trackpoint>
            <Time>2022-07-06T07:52:53.000Z</Time>
            <Position>
              <LatitudeDegrees>44.16648678481578826904296875</LatitudeDegrees>
              <LongitudeDegrees>-1.09451352618634700775146484375</LongitudeDegrees>
            </Position>
            <AltitudeMeters>55.40000152587890625</AltitudeMeters>
            <DistanceMeters>NAN</DistanceMeters>
          </Trackpoint>
          <Trackpoint>
            <Time>2022-07-06T07:52:58.000Z</Time>
            <Position>
              <LatitudeDegrees>44.16658728383481502532958984375</LatitudeDegrees>
              <LongitudeDegrees>-1.09487512148916721343994140625</LongitudeDegrees>
            </Position>
            <AltitudeMeters>55.200000762939453125</AltitudeMeters>
            <DistanceMeters>NAN</DistanceMeters>
          </Trackpoint>
          <Trackpoint>
            <Time>2022-07-06T07:52:59.000Z</Time>
            <Position>
              <LatitudeDegrees>44.16660270653665065765380859375</LatitudeDegrees>
              <LongitudeDegrees>-1.09492977149784564971923828125</LongitudeDegrees>
            </Position>
            <AltitudeMeters>55.200000762939453125</AltitudeMeters>
            <DistanceMeters>NAN</DistanceMeters>
          </Trackpoint>
          <Trackpoint>
            <Time>2022-07-06T07:53:01.000Z</Time>
            <Position>
              <LatitudeDegrees>44.16664243675768375396728515625</LatitudeDegrees>
              <LongitudeDegrees>-1.09507779590785503387451171875</LongitudeDegrees>
            </Position>
            <AltitudeMeters>55</AltitudeMeters>
            <DistanceMeters>NAN</DistanceMeters>
          </Trackpoint>
          <Trackpoint>
            <Time>2022-07-06T07:53:02.000Z</Time>
            <Position>
              <LatitudeDegrees>44.16665844619274139404296875</LatitudeDegrees>
              <LongitudeDegrees>-1.09513261355459690093994140625</LongitudeDegrees>
            </Position>
            <AltitudeMeters>55</AltitudeMeters>
            <DistanceMeters>NAN</DistanceMeters>
          </Trackpoint>
          <Trackpoint>
            <Time>2022-07-06T07:53:03.000Z</Time>
            <Position>
              <LatitudeDegrees>44.16667579673230648040771484375</LatitudeDegrees>
              <LongitudeDegrees>-1.09519715420901775360107421875</LongitudeDegrees>
            </Position>
            <AltitudeMeters>55</AltitudeMeters>
            <DistanceMeters>NAN</DistanceMeters>
          </Trackpoint>
          <Trackpoint>
            <Time>2022-07-06T07:53:04.000Z</Time>
            <Position>
              <LatitudeDegrees>44.1666978411376476287841796875</LatitudeDegrees>
              <LongitudeDegrees>-1.09527979977428913116455078125</LongitudeDegrees>
            </Position>
            <AltitudeMeters>55</AltitudeMeters>
            <DistanceMeters>NAN</DistanceMeters>
          </Trackpoint>
          <Trackpoint>
            <Time>2022-07-06T07:53:05.000Z</Time>
            <Position>
              <LatitudeDegrees>44.16671368293464183807373046875</LatitudeDegrees>
              <LongitudeDegrees>-1.09533579088747501373291015625</LongitudeDegrees>
            </Position>
            <AltitudeMeters>55</AltitudeMeters>
            <DistanceMeters>NAN</DistanceMeters>
          </Trackpoint>
          <Trackpoint>
            <Time>2022-07-06T07:53:08.000Z</Time>
            <Position>
              <LatitudeDegrees>44.16676799766719341278076171875</LatitudeDegrees>
              <LongitudeDegrees>-1.095537208020687103271484375</LongitudeDegrees>
            </Position>
            <AltitudeMeters>55</AltitudeMeters>
            <DistanceMeters>NAN</DistanceMeters>
          </Trackpoint>
          <Trackpoint>
            <Time>2022-07-06T07:53:12.000Z</Time>
            <Position>
              <LatitudeDegrees>44.16684041731059551239013671875</LatitudeDegrees>
              <LongitudeDegrees>-1.09580886550247669219970703125</LongitudeDegrees>
            </Position>
            <AltitudeMeters>55</AltitudeMeters>
            <DistanceMeters>NAN</DistanceMeters>
          </Trackpoint>
          <Trackpoint>
            <Time>2022-07-06T07:53:17.000Z</Time>
            <Position>
              <LatitudeDegrees>44.1669315285980701446533203125</LatitudeDegrees>
              <LongitudeDegrees>-1.0961241088807582855224609375</LongitudeDegrees>
            </Position>
            <AltitudeMeters>54.799999237060546875</AltitudeMeters>
            <DistanceMeters>NAN</DistanceMeters>
          </Trackpoint>
          <Trackpoint>
            <Time>2022-07-06T07:53:20.000Z</Time>
            <Position>
              <LatitudeDegrees>44.1669871844351291656494140625</LatitudeDegrees>
              <LongitudeDegrees>-1.0963145457208156585693359375</LongitudeDegrees>
            </Position>
            <AltitudeMeters>54.799999237060546875</AltitudeMeters>
            <DistanceMeters>NAN</DistanceMeters>
          </Trackpoint>
          <Trackpoint>
            <Time>2022-07-06T07:53:26.000Z</Time>
            <Position>
              <LatitudeDegrees>44.16709472425282001495361328125</LatitudeDegrees>
              <LongitudeDegrees>-1.09667949378490447998046875</LongitudeDegrees>
            </Position>
            <AltitudeMeters>54.59999847412109375</AltitudeMeters>
            <DistanceMeters>NAN</DistanceMeters>
          </Trackpoint>
          <Trackpoint>
            <Time>2022-07-06T07:53:29.000Z</Time>
            <Position>
              <LatitudeDegrees>44.16716714389622211456298828125</LatitudeDegrees>
              <LongitudeDegrees>-1.096873618662357330322265625</LongitudeDegrees>
            </Position>
            <AltitudeMeters>54.59999847412109375</AltitudeMeters>
            <DistanceMeters>NAN</DistanceMeters>
          </Trackpoint>
          <Trackpoint>
            <Time>2022-07-06T07:53:33.000Z</Time>
            <Position>
              <LatitudeDegrees>44.16727325879037380218505859375</LatitudeDegrees>
              <LongitudeDegrees>-1.09711661003530025482177734375</LongitudeDegrees>
            </Position>
            <AltitudeMeters>54.799999237060546875</AltitudeMeters>
            <DistanceMeters>NAN</DistanceMeters>
          </Trackpoint>
          <Trackpoint>
            <Time>2022-07-06T07:53:37.000Z</Time>
            <Position>
              <LatitudeDegrees>44.167415164411067962646484375</LatitudeDegrees>
              <LongitudeDegrees>-1.09735985286533832550048828125</LongitudeDegrees>
            </Position>
            <AltitudeMeters>54.799999237060546875</AltitudeMeters>
            <DistanceMeters>NAN</DistanceMeters>
          </Trackpoint>
          <Trackpoint>
            <Time>2022-07-06T07:53:48.000Z</Time>
            <Position>
              <LatitudeDegrees>44.1678111255168914794921875</LatitudeDegrees>
              <LongitudeDegrees>-1.09794205985963344573974609375</LongitudeDegrees>
            </Position>
            <AltitudeMeters>54.59999847412109375</AltitudeMeters>
            <DistanceMeters>NAN</DistanceMeters>
          </Trackpoint>
          <Trackpoint>
            <Time>2022-07-06T07:53:50.000Z</Time>
            <Position>
              <LatitudeDegrees>44.16788279078900814056396484375</LatitudeDegrees>
              <LongitudeDegrees>-1.0980502702295780181884765625</LongitudeDegrees>
            </Position>
            <AltitudeMeters>54.59999847412109375</AltitudeMeters>
            <DistanceMeters>NAN</DistanceMeters>
          </Trackpoint>
          <Trackpoint>
            <Time>2022-07-06T07:54:01.000Z</Time>
            <Position>
              <LatitudeDegrees>44.16828998364508152008056640625</LatitudeDegrees>
              <LongitudeDegrees>-1.09864848665893077850341796875</LongitudeDegrees>
            </Position>
            <AltitudeMeters>54.40000152587890625</AltitudeMeters>
            <DistanceMeters>NAN</DistanceMeters>
          </Trackpoint>
          <Trackpoint>
            <Time>2022-07-06T07:54:02.000Z</Time>
            <Position>
              <LatitudeDegrees>44.16832602582871913909912109375</LatitudeDegrees>
              <LongitudeDegrees>-1.098701544106006622314453125</LongitudeDegrees>
            </Position>
            <AltitudeMeters>54.40000152587890625</AltitudeMeters>
            <DistanceMeters>NAN</DistanceMeters>
          </Trackpoint>
          <Trackpoint>
            <Time>2022-07-06T07:54:09.000Z</Time>
            <Position>
              <LatitudeDegrees>44.16855669580399990081787109375</LatitudeDegrees>
              <LongitudeDegrees>-1.09905333258211612701416015625</LongitudeDegrees>
            </Position>
            <AltitudeMeters>54.200000762939453125</AltitudeMeters>
            <DistanceMeters>NAN</DistanceMeters>
          </Trackpoint>
          <Trackpoint>
            <Time>2022-07-06T07:54:10.000Z</Time>
            <Position>
              <LatitudeDegrees>44.16858904995024204254150390625</LatitudeDegrees>
              <LongitudeDegrees>-1.09910597093403339385986328125</LongitudeDegrees>
            </Position>
            <AltitudeMeters>54.200000762939453125</AltitudeMeters>
            <DistanceMeters>NAN</DistanceMeters>
          </Trackpoint>
          <Trackpoint>
            <Time>2022-07-06T07:54:20.000Z</Time>
            <Position>
              <LatitudeDegrees>44.1689592786133289337158203125</LatitudeDegrees>
              <LongitudeDegrees>-1.0996471904218196868896484375</LongitudeDegrees>
            </Position>
            <AltitudeMeters>54.40000152587890625</AltitudeMeters>
            <DistanceMeters>NAN</DistanceMeters>
          </Trackpoint>
          <Trackpoint>
            <Time>2022-07-06T07:54:27.000Z</Time>
            <Position>
              <LatitudeDegrees>44.16923076845705509185791015625</LatitudeDegrees>
              <LongitudeDegrees>-1.10004742629826068878173828125</LongitudeDegrees>
            </Position>
            <AltitudeMeters>54.40000152587890625</AltitudeMeters>
            <DistanceMeters>NAN</DistanceMeters>
          </Trackpoint>
          <Trackpoint>
            <Time>2022-07-06T07:54:31.000Z</Time>
            <Position>
              <LatitudeDegrees>44.169390611350536346435546875</LatitudeDegrees>
              <LongitudeDegrees>-1.10028010793030261993408203125</LongitudeDegrees>
            </Position>
            <AltitudeMeters>54</AltitudeMeters>
            <DistanceMeters>NAN</DistanceMeters>
          </Trackpoint>
          <Trackpoint>
            <Time>2022-07-06T07:54:39.000Z</Time>
            <Position>
              <LatitudeDegrees>44.16970853693783283233642578125</LatitudeDegrees>
              <LongitudeDegrees>-1.10075016506016254425048828125</LongitudeDegrees>
            </Position>
            <AltitudeMeters>53.799999237060546875</AltitudeMeters>
            <DistanceMeters>NAN</DistanceMeters>
          </Trackpoint>
          <Trackpoint>
            <Time>2022-07-06T07:54:45.000Z</Time>
            <Position>
              <LatitudeDegrees>44.16994951665401458740234375</LatitudeDegrees>
              <LongitudeDegrees>-1.10110740177333354949951171875</LongitudeDegrees>
            </Position>
            <AltitudeMeters>54</AltitudeMeters>
            <DistanceMeters>NAN</DistanceMeters>
          </Trackpoint>
          <Trackpoint>
            <Time>2022-07-06T07:54:47.000Z</Time>
            <Position>
              <LatitudeDegrees>44.17003174312412738800048828125</LatitudeDegrees>
              <LongitudeDegrees>-1.10123245976865291595458984375</LongitudeDegrees>
            </Position>
            <AltitudeMeters>54</AltitudeMeters>
            <DistanceMeters>NAN</DistanceMeters>
          </Trackpoint>
          <Trackpoint>
            <Time>2022-07-06T07:54:49.000Z</Time>
            <Position>
              <LatitudeDegrees>44.1701156459748744964599609375</LatitudeDegrees>
              <LongitudeDegrees>-1.10135567374527454376220703125</LongitudeDegrees>
            </Position>
            <AltitudeMeters>54</AltitudeMeters>
            <DistanceMeters>NAN</DistanceMeters>
          </Trackpoint>
          <Trackpoint>
            <Time>2022-07-06T07:54:53.000Z</Time>
            <Position>
              <LatitudeDegrees>44.1702899895608425140380859375</LatitudeDegrees>
              <LongitudeDegrees>-1.101618111133575439453125</LongitudeDegrees>
            </Position>
            <AltitudeMeters>54</AltitudeMeters>
            <DistanceMeters>NAN</DistanceMeters>
          </Trackpoint>
          <Trackpoint>
            <Time>2022-07-06T07:54:56.000Z</Time>
            <Position>
              <LatitudeDegrees>44.17042435146868228912353515625</LatitudeDegrees>
              <LongitudeDegrees>-1.10181190073490142822265625</LongitudeDegrees>
            </Position>
            <AltitudeMeters>54</AltitudeMeters>
            <DistanceMeters>NAN</DistanceMeters>
          </Trackpoint>
          <Trackpoint>
            <Time>2022-07-06T07:54:58.000Z</Time>
            <Position>
              <LatitudeDegrees>44.17050900869071483612060546875</LatitudeDegrees>
              <LongitudeDegrees>-1.1019381321966648101806640625</LongitudeDegrees>
            </Position>
            <AltitudeMeters>54</AltitudeMeters>
            <DistanceMeters>NAN</DistanceMeters>
          </Trackpoint>
          <Trackpoint>
            <Time>2022-07-06T07:55:03.000Z</Time>
            <Position>
              <LatitudeDegrees>44.1707107611000537872314453125</LatitudeDegrees>
              <LongitudeDegrees>-1.10223761759698390960693359375</LongitudeDegrees>
            </Position>
            <AltitudeMeters>53.799999237060546875</AltitudeMeters>
            <DistanceMeters>NAN</DistanceMeters>
          </Trackpoint>
          <Trackpoint>
            <Time>2022-07-06T07:55:06.000Z</Time>
            <Position>
              <LatitudeDegrees>44.17082936502993106842041015625</LatitudeDegrees>
              <LongitudeDegrees>-1.1024162359535694122314453125</LongitudeDegrees>
            </Position>
            <AltitudeMeters>53.799999237060546875</AltitudeMeters>
            <DistanceMeters>NAN</DistanceMeters>
          </Trackpoint>
          <Trackpoint>
            <Time>2022-07-06T07:55:16.000Z</Time>
            <Position>
              <LatitudeDegrees>44.17121945880353450775146484375</LatitudeDegrees>
              <LongitudeDegrees>-1.1030096746981143951416015625</LongitudeDegrees>
            </Position>
            <AltitudeMeters>53.40000152587890625</AltitudeMeters>
            <DistanceMeters>NAN</DistanceMeters>
          </Trackpoint>
          <Trackpoint>
            <Time>2022-07-06T07:55:18.000Z</Time>
            <Position>
              <LatitudeDegrees>44.1712988354265689849853515625</LatitudeDegrees>
              <LongitudeDegrees>-1.1031266860663890838623046875</LongitudeDegrees>
            </Position>
            <AltitudeMeters>53.200000762939453125</AltitudeMeters>
            <DistanceMeters>NAN</DistanceMeters>
          </Trackpoint>
          <Trackpoint>
            <Time>2022-07-06T07:55:19.000Z</Time>
            <Position>
              <LatitudeDegrees>44.17133764363825321197509765625</LatitudeDegrees>
              <LongitudeDegrees>-1.10318762250244617462158203125</LongitudeDegrees>
            </Position>
            <AltitudeMeters>53.200000762939453125</AltitudeMeters>
            <DistanceMeters>NAN</DistanceMeters>
          </Trackpoint>
          <Trackpoint>
            <Time>2022-07-06T07:55:23.000Z</Time>
            <Position>
              <LatitudeDegrees>44.17150251567363739013671875</LatitudeDegrees>
              <LongitudeDegrees>-1.1034393310546875</LongitudeDegrees>
            </Position>
            <AltitudeMeters>52.799999237060546875</AltitudeMeters>
            <DistanceMeters>NAN</DistanceMeters>
          </Trackpoint>
          <Trackpoint>
            <Time>2022-07-06T07:55:30.000Z</Time>
            <Position>
              <LatitudeDegrees>44.1717826388776302337646484375</LatitudeDegrees>
              <LongitudeDegrees>-1.10385716892778873443603515625</LongitudeDegrees>
            </Position>
            <AltitudeMeters>52.59999847412109375</AltitudeMeters>
            <DistanceMeters>NAN</DistanceMeters>
          </Trackpoint>
          <Trackpoint>
            <Time>2022-07-06T07:55:35.000Z</Time>
            <Position>
              <LatitudeDegrees>44.17199428193271160125732421875</LatitudeDegrees>
              <LongitudeDegrees>-1.10416478477418422698974609375</LongitudeDegrees>
            </Position>
            <AltitudeMeters>52.200000762939453125</AltitudeMeters>
            <DistanceMeters>NAN</DistanceMeters>
          </Trackpoint>
          <Trackpoint>
            <Time>2022-07-06T07:55:38.000Z</Time>
            <Position>
              <LatitudeDegrees>44.1721199266612529754638671875</LatitudeDegrees>
              <LongitudeDegrees>-1.10435320995748043060302734375</LongitudeDegrees>
            </Position>
            <AltitudeMeters>52.200000762939453125</AltitudeMeters>
            <DistanceMeters>NAN</DistanceMeters>
          </Trackpoint>
          <Trackpoint>
            <Time>2022-07-06T07:55:40.000Z</Time>
            <Position>
              <LatitudeDegrees>44.17220952920615673065185546875</LatitudeDegrees>
              <LongitudeDegrees>-1.10448145307600498199462890625</LongitudeDegrees>
            </Position>
            <AltitudeMeters>52.200000762939453125</AltitudeMeters>
            <DistanceMeters>NAN</DistanceMeters>
          </Trackpoint>
          <Trackpoint>
            <Time>2022-07-06T07:55:42.000Z</Time>
            <Position>
              <LatitudeDegrees>44.1722959466278553009033203125</LatitudeDegrees>
              <LongitudeDegrees>-1.1046062596142292022705078125</LongitudeDegrees>
            </Position>
            <AltitudeMeters>52.200000762939453125</AltitudeMeters>
            <DistanceMeters>NAN</DistanceMeters>
          </Trackpoint>
          <Trackpoint>
            <Time>2022-07-06T07:55:49.000Z</Time>
            <Position>
              <LatitudeDegrees>44.17258436791598796844482421875</LatitudeDegrees>
              <LongitudeDegrees>-1.1050392687320709228515625</LongitudeDegrees>
            </Position>
            <AltitudeMeters>52</AltitudeMeters>
            <DistanceMeters>NAN</DistanceMeters>
          </Trackpoint>
          <Trackpoint>
            <Time>2022-07-06T07:55:51.000Z</Time>
            <Position>
              <LatitudeDegrees>44.17267019860446453094482421875</LatitudeDegrees>
              <LongitudeDegrees>-1.10516910441219806671142578125</LongitudeDegrees>
            </Position>
            <AltitudeMeters>52</AltitudeMeters>
            <DistanceMeters>NAN</DistanceMeters>
          </Trackpoint>
          <Trackpoint>
            <Time>2022-07-06T07:56:00.000Z</Time>
            <Position>
              <LatitudeDegrees>44.17305643670260906219482421875</LatitudeDegrees>
              <LongitudeDegrees>-1.1057361401617527008056640625</LongitudeDegrees>
            </Position>
            <AltitudeMeters>51.799999237060546875</AltitudeMeters>
            <DistanceMeters>NAN</DistanceMeters>
          </Trackpoint>
          <Trackpoint>
            <Time>2022-07-06T07:56:02.000Z</Time>
            <Position>
              <LatitudeDegrees>44.1731406748294830322265625</LatitudeDegrees>
              <LongitudeDegrees>-1.10585709102451801300048828125</LongitudeDegrees>
            </Position>
            <AltitudeMeters>51.799999237060546875</AltitudeMeters>
            <DistanceMeters>NAN</DistanceMeters>
          </Trackpoint>
          <Trackpoint>
            <Time>2022-07-06T07:56:09.000Z</Time>
            <Position>
              <LatitudeDegrees>44.1734197922050952911376953125</LatitudeDegrees>
              <LongitudeDegrees>-1.10628758557140827178955078125</LongitudeDegrees>
            </Position>
            <AltitudeMeters>51.200000762939453125</AltitudeMeters>
            <DistanceMeters>NAN</DistanceMeters>
          </Trackpoint>
          <Trackpoint>
            <Time>2022-07-06T07:56:14.000Z</Time>
            <Position>
              <LatitudeDegrees>44.17362774722278118133544921875</LatitudeDegrees>
              <LongitudeDegrees>-1.10658313147723674774169921875</LongitudeDegrees>
            </Position>
            <AltitudeMeters>51</AltitudeMeters>
            <DistanceMeters>NAN</DistanceMeters>
          </Trackpoint>
          <Trackpoint>
            <Time>2022-07-06T07:56:18.000Z</Time>
            <Position>
              <LatitudeDegrees>44.173796474933624267578125</LatitudeDegrees>
              <LongitudeDegrees>-1.10682637430727481842041015625</LongitudeDegrees>
            </Position>
            <AltitudeMeters>51</AltitudeMeters>
            <DistanceMeters>NAN</DistanceMeters>
          </Trackpoint>
          <Trackpoint>
            <Time>2022-07-06T07:56:24.000Z</Time>
            <Position>
              <LatitudeDegrees>44.1740564815700054168701171875</LatitudeDegrees>
              <LongitudeDegrees>-1.1072261072695255279541015625</LongitudeDegrees>
            </Position>
            <AltitudeMeters>51</AltitudeMeters>
            <DistanceMeters>NAN</DistanceMeters>
          </Trackpoint>
          <Trackpoint>
            <Time>2022-07-06T07:56:32.000Z</Time>
            <Position>
              <LatitudeDegrees>44.17438379488885402679443359375</LatitudeDegrees>
              <LongitudeDegrees>-1.10772307030856609344482421875</LongitudeDegrees>
            </Position>
            <AltitudeMeters>51.200000762939453125</AltitudeMeters>
            <DistanceMeters>NAN</DistanceMeters>
          </Trackpoint>
          <Trackpoint>
            <Time>2022-07-06T07:56:35.000Z</Time>
            <Position>
              <LatitudeDegrees>44.1744792647659778594970703125</LatitudeDegrees>
              <LongitudeDegrees>-1.107918284833431243896484375</LongitudeDegrees>
            </Position>
            <AltitudeMeters>51.200000762939453125</AltitudeMeters>
            <DistanceMeters>NAN</DistanceMeters>
          </Trackpoint>
          <Trackpoint>
            <Time>2022-07-06T07:56:43.000Z</Time>
            <Position>
              <LatitudeDegrees>44.17468705214560031890869140625</LatitudeDegrees>
              <LongitudeDegrees>-1.10850870609283447265625</LongitudeDegrees>
            </Position>
            <AltitudeMeters>51.200000762939453125</AltitudeMeters>
            <DistanceMeters>NAN</DistanceMeters>
          </Trackpoint>
          <Trackpoint>
            <Time>2022-07-06T07:56:52.000Z</Time>
            <Position>
              <LatitudeDegrees>44.17491654865443706512451171875</LatitudeDegrees>
              <LongitudeDegrees>-1.1092132888734340667724609375</LongitudeDegrees>
            </Position>
            <AltitudeMeters>50.40000152587890625</AltitudeMeters>
            <DistanceMeters>NAN</DistanceMeters>
          </Trackpoint>
          <Trackpoint>
            <Time>2022-07-06T07:56:56.000Z</Time>
            <Position>
              <LatitudeDegrees>44.17501218616962432861328125</LatitudeDegrees>
              <LongitudeDegrees>-1.10952970571815967559814453125</LongitudeDegrees>
            </Position>
            <AltitudeMeters>50.200000762939453125</AltitudeMeters>
            <DistanceMeters>NAN</DistanceMeters>
          </Trackpoint>
          <Trackpoint>
            <Time>2022-07-06T07:57:02.000Z</Time>
            <Position>
              <LatitudeDegrees>44.17514495551586151123046875</LatitudeDegrees>
              <LongitudeDegrees>-1.109958775341510772705078125</LongitudeDegrees>
            </Position>
            <AltitudeMeters>50</AltitudeMeters>
            <DistanceMeters>NAN</DistanceMeters>
          </Trackpoint>
          <Trackpoint>
            <Time>2022-07-06T07:57:12.000Z</Time>
            <Position>
              <LatitudeDegrees>44.175395071506500244140625</LatitudeDegrees>
              <LongitudeDegrees>-1.11065623350441455841064453125</LongitudeDegrees>
            </Position>
            <AltitudeMeters>50.40000152587890625</AltitudeMeters>
            <DistanceMeters>NAN</DistanceMeters>
          </Trackpoint>
          <Trackpoint>
            <Time>2022-07-06T07:57:21.000Z</Time>
            <Position>
              <LatitudeDegrees>44.17560822330415248870849609375</LatitudeDegrees>
              <LongitudeDegrees>-1.11124791204929351806640625</LongitudeDegrees>
            </Position>
            <AltitudeMeters>50.200000762939453125</AltitudeMeters>
            <DistanceMeters>NAN</DistanceMeters>
          </Trackpoint>
          <Trackpoint>
            <Time>2022-07-06T07:57:27.000Z</Time>
            <Position>
              <LatitudeDegrees>44.1757509671151638031005859375</LatitudeDegrees>
              <LongitudeDegrees>-1.11165426671504974365234375</LongitudeDegrees>
            </Position>
            <AltitudeMeters>50</AltitudeMeters>
            <DistanceMeters>NAN</DistanceMeters>
          </Trackpoint>
          <Trackpoint>
            <Time>2022-07-06T07:57:28.000Z</Time>
            <Position>
              <LatitudeDegrees>44.1757799685001373291015625</LatitudeDegrees>
              <LongitudeDegrees>-1.111735068261623382568359375</LongitudeDegrees>
            </Position>
            <AltitudeMeters>50</AltitudeMeters>
            <DistanceMeters>NAN</DistanceMeters>
          </Trackpoint>
          <Trackpoint>
            <Time>2022-07-06T07:57:29.000Z</Time>
            <Position>
              <LatitudeDegrees>44.17579748667776584625244140625</LatitudeDegrees>
              <LongitudeDegrees>-1.1117905564606189727783203125</LongitudeDegrees>
            </Position>
            <AltitudeMeters>50</AltitudeMeters>
            <DistanceMeters>NAN</DistanceMeters>
          </Trackpoint>
          <Trackpoint>
            <Time>2022-07-06T07:57:36.000Z</Time>
            <Position>
              <LatitudeDegrees>44.17596562765538692474365234375</LatitudeDegrees>
              <LongitudeDegrees>-1.11228919588029384613037109375</LongitudeDegrees>
            </Position>
            <AltitudeMeters>49.799999237060546875</AltitudeMeters>
            <DistanceMeters>NAN</DistanceMeters>
          </Trackpoint>
          <Trackpoint>
            <Time>2022-07-06T07:57:43.000Z</Time>
            <Position>
              <LatitudeDegrees>44.176135361194610595703125</LatitudeDegrees>
              <LongitudeDegrees>-1.11277283169329166412353515625</LongitudeDegrees>
            </Position>
            <AltitudeMeters>49.40000152587890625</AltitudeMeters>
            <DistanceMeters>NAN</DistanceMeters>
          </Trackpoint>
          <Trackpoint>
            <Time>2022-07-06T07:57:45.000Z</Time>
            <Position>
              <LatitudeDegrees>44.1761801205575466156005859375</LatitudeDegrees>
              <LongitudeDegrees>-1.11290073953568935394287109375</LongitudeDegrees>
            </Position>
            <AltitudeMeters>49</AltitudeMeters>
            <DistanceMeters>NAN</DistanceMeters>
          </Trackpoint>
          <Trackpoint>
            <Time>2022-07-06T07:57:48.000Z</Time>
            <Position>
              <LatitudeDegrees>44.17626201175153255462646484375</LatitudeDegrees>
              <LongitudeDegrees>-1.11313593573868274688720703125</LongitudeDegrees>
            </Position>
            <AltitudeMeters>48.59999847412109375</AltitudeMeters>
            <DistanceMeters>NAN</DistanceMeters>
          </Trackpoint>
          <Trackpoint>
            <Time>2022-07-06T07:57:51.000Z</Time>
            <Position>
              <LatitudeDegrees>44.1763306595385074615478515625</LatitudeDegrees>
              <LongitudeDegrees>-1.1133556254208087921142578125</LongitudeDegrees>
            </Position>
            <AltitudeMeters>48.40000152587890625</AltitudeMeters>
            <DistanceMeters>NAN</DistanceMeters>
          </Trackpoint>
          <Trackpoint>
            <Time>2022-07-06T07:57:55.000Z</Time>
            <Position>
              <LatitudeDegrees>44.17642964981496334075927734375</LatitudeDegrees>
              <LongitudeDegrees>-1.1136491596698760986328125</LongitudeDegrees>
            </Position>
            <AltitudeMeters>48.200000762939453125</AltitudeMeters>
            <DistanceMeters>NAN</DistanceMeters>
          </Trackpoint>
          <Trackpoint>
            <Time>2022-07-06T07:57:56.000Z</Time>
            <Position>
              <LatitudeDegrees>44.176454208791255950927734375</LatitudeDegrees>
              <LongitudeDegrees>-1.11372702755033969879150390625</LongitudeDegrees>
            </Position>
            <AltitudeMeters>48.200000762939453125</AltitudeMeters>
            <DistanceMeters>NAN</DistanceMeters>
          </Trackpoint>
          <Trackpoint>
            <Time>2022-07-06T07:58:00.000Z</Time>
            <Position>
              <LatitudeDegrees>44.1765495948493480682373046875</LatitudeDegrees>
              <LongitudeDegrees>-1.1140201427042484283447265625</LongitudeDegrees>
            </Position>
            <AltitudeMeters>48.40000152587890625</AltitudeMeters>
            <DistanceMeters>NAN</DistanceMeters>
          </Trackpoint>
          <Trackpoint>
            <Time>2022-07-06T07:58:06.000Z</Time>
            <Position>
              <LatitudeDegrees>44.17668932117521762847900390625</LatitudeDegrees>
              <LongitudeDegrees>-1.11443429253995418548583984375</LongitudeDegrees>
            </Position>
            <AltitudeMeters>48.59999847412109375</AltitudeMeters>
            <DistanceMeters>NAN</DistanceMeters>
          </Trackpoint>
          <Trackpoint>
            <Time>2022-07-06T07:58:12.000Z</Time>
            <Position>
              <LatitudeDegrees>44.176839776337146759033203125</LatitudeDegrees>
              <LongitudeDegrees>-1.11484852619469165802001953125</LongitudeDegrees>
            </Position>
            <AltitudeMeters>48.59999847412109375</AltitudeMeters>
            <DistanceMeters>NAN</DistanceMeters>
          </Trackpoint>
          <Trackpoint>
            <Time>2022-07-06T07:58:13.000Z</Time>
            <Position>
              <LatitudeDegrees>44.17686651460826396942138671875</LatitudeDegrees>
              <LongitudeDegrees>-1.11491859890520572662353515625</LongitudeDegrees>
            </Position>
            <AltitudeMeters>48.59999847412109375</AltitudeMeters>
            <DistanceMeters>NAN</DistanceMeters>
          </Trackpoint>
          <Trackpoint>
            <Time>2022-07-06T07:58:23.000Z</Time>
            <Position>
              <LatitudeDegrees>44.17709986679255962371826171875</LatitudeDegrees>
              <LongitudeDegrees>-1.11561186611652374267578125</LongitudeDegrees>
            </Position>
            <AltitudeMeters>48.59999847412109375</AltitudeMeters>
            <DistanceMeters>NAN</DistanceMeters>
          </Trackpoint>
          <Trackpoint>
            <Time>2022-07-06T07:58:25.000Z</Time>
            <Position>
              <LatitudeDegrees>44.1771411895751953125</LatitudeDegrees>
              <LongitudeDegrees>-1.11574756912887096405029296875</LongitudeDegrees>
            </Position>
            <AltitudeMeters>48.59999847412109375</AltitudeMeters>
            <DistanceMeters>NAN</DistanceMeters>
          </Trackpoint>
          <Trackpoint>
            <Time>2022-07-06T07:58:27.000Z</Time>
            <Position>
              <LatitudeDegrees>44.1771846078336238861083984375</LatitudeDegrees>
              <LongitudeDegrees>-1.115879751741886138916015625</LongitudeDegrees>
            </Position>
            <AltitudeMeters>48.59999847412109375</AltitudeMeters>
            <DistanceMeters>NAN</DistanceMeters>
          </Trackpoint>
          <Trackpoint>
            <Time>2022-07-06T07:58:36.000Z</Time>
            <Position>
              <LatitudeDegrees>44.1774025373160839080810546875</LatitudeDegrees>
              <LongitudeDegrees>-1.11650370061397552490234375</LongitudeDegrees>
            </Position>
            <AltitudeMeters>48.799999237060546875</AltitudeMeters>
            <DistanceMeters>NAN</DistanceMeters>
          </Trackpoint>
          <Trackpoint>
            <Time>2022-07-06T07:58:37.000Z</Time>
            <Position>
              <LatitudeDegrees>44.17742659337818622589111328125</LatitudeDegrees>
              <LongitudeDegrees>-1.11657452769577503204345703125</LongitudeDegrees>
            </Position>
            <AltitudeMeters>48.799999237060546875</AltitudeMeters>
            <DistanceMeters>NAN</DistanceMeters>
          </Trackpoint>
          <Trackpoint>
            <Time>2022-07-06T07:58:43.000Z</Time>
            <Position>
              <LatitudeDegrees>44.17757579125463962554931640625</LatitudeDegrees>
              <LongitudeDegrees>-1.11700301058590412139892578125</LongitudeDegrees>
            </Position>
            <AltitudeMeters>48.40000152587890625</AltitudeMeters>
            <DistanceMeters>NAN</DistanceMeters>
          </Trackpoint>
          <Trackpoint>
            <Time>2022-07-06T07:58:46.000Z</Time>
            <Position>
              <LatitudeDegrees>44.17765541933476924896240234375</LatitudeDegrees>
              <LongitudeDegrees>-1.11720836721360683441162109375</LongitudeDegrees>
            </Position>
            <AltitudeMeters>48.200000762939453125</AltitudeMeters>
            <DistanceMeters>NAN</DistanceMeters>
          </Trackpoint>
          <Trackpoint>
            <Time>2022-07-06T07:58:47.000Z</Time>
            <Position>
              <LatitudeDegrees>44.1776781342923641204833984375</LatitudeDegrees>
              <LongitudeDegrees>-1.1172753386199474334716796875</LongitudeDegrees>
            </Position>
            <AltitudeMeters>48.200000762939453125</AltitudeMeters>
            <DistanceMeters>NAN</DistanceMeters>
          </Trackpoint>
          <Trackpoint>
            <Time>2022-07-06T07:58:51.000Z</Time>
            <Position>
              <LatitudeDegrees>44.17777025140821933746337890625</LatitudeDegrees>
              <LongitudeDegrees>-1.11754699610173702239990234375</LongitudeDegrees>
            </Position>
            <AltitudeMeters>48.200000762939453125</AltitudeMeters>
            <DistanceMeters>NAN</DistanceMeters>
          </Trackpoint>
          <Trackpoint>
            <Time>2022-07-06T07:58:53.000Z</Time>
            <Position>
              <LatitudeDegrees>44.177809059619903564453125</LatitudeDegrees>
              <LongitudeDegrees>-1.1176837049424648284912109375</LongitudeDegrees>
            </Position>
            <AltitudeMeters>48.200000762939453125</AltitudeMeters>
            <DistanceMeters>NAN</DistanceMeters>
          </Trackpoint>
          <Trackpoint>
            <Time>2022-07-06T07:58:54.000Z</Time>
            <Position>
              <LatitudeDegrees>44.17783026583492755889892578125</LatitudeDegrees>
              <LongitudeDegrees>-1.11774983815848827362060546875</LongitudeDegrees>
            </Position>
            <AltitudeMeters>48.200000762939453125</AltitudeMeters>
            <DistanceMeters>NAN</DistanceMeters>
          </Trackpoint>
          <Trackpoint>
            <Time>2022-07-06T07:58:56.000Z</Time>
            <Position>
              <LatitudeDegrees>44.1778725944459438323974609375</LatitudeDegrees>
              <LongitudeDegrees>-1.1178821884095668792724609375</LongitudeDegrees>
            </Position>
            <AltitudeMeters>48.200000762939453125</AltitudeMeters>
            <DistanceMeters>NAN</DistanceMeters>
          </Trackpoint>
          <Trackpoint>
            <Time>2022-07-06T07:59:03.000Z</Time>
            <Position>
              <LatitudeDegrees>44.17798281647264957427978515625</LatitudeDegrees>
              <LongitudeDegrees>-1.11839675344526767730712890625</LongitudeDegrees>
            </Position>
            <AltitudeMeters>48</AltitudeMeters>
            <DistanceMeters>NAN</DistanceMeters>
          </Trackpoint>
          <Trackpoint>
            <Time>2022-07-06T07:59:09.000Z</Time>
            <Position>
              <LatitudeDegrees>44.177997820079326629638671875</LatitudeDegrees>
              <LongitudeDegrees>-1.1188558302819728851318359375</LongitudeDegrees>
            </Position>
            <AltitudeMeters>48.200000762939453125</AltitudeMeters>
            <DistanceMeters>NAN</DistanceMeters>
          </Trackpoint>
          <Trackpoint>
            <Time>2022-07-06T07:59:18.000Z</Time>
            <Position>
              <LatitudeDegrees>44.17799723334610462188720703125</LatitudeDegrees>
              <LongitudeDegrees>-1.11954892985522747039794921875</LongitudeDegrees>
            </Position>
            <AltitudeMeters>48.200000762939453125</AltitudeMeters>
            <DistanceMeters>NAN</DistanceMeters>
          </Trackpoint>
          <Trackpoint>
            <Time>2022-07-06T07:59:21.000Z</Time>
            <Position>
              <LatitudeDegrees>44.17799882590770721435546875</LatitudeDegrees>
              <LongitudeDegrees>-1.11977155320346355438232421875</LongitudeDegrees>
            </Position>
            <AltitudeMeters>48</AltitudeMeters>
            <DistanceMeters>NAN</DistanceMeters>
          </Trackpoint>
          <Trackpoint>
            <Time>2022-07-06T07:59:24.000Z</Time>
            <Position>
              <LatitudeDegrees>44.17799907736480236053466796875</LatitudeDegrees>
              <LongitudeDegrees>-1.1199873872101306915283203125</LongitudeDegrees>
            </Position>
            <AltitudeMeters>48</AltitudeMeters>
            <DistanceMeters>NAN</DistanceMeters>
          </Trackpoint>
          <Trackpoint>
            <Time>2022-07-06T07:59:25.000Z</Time>
            <Position>
              <LatitudeDegrees>44.17800527997314929962158203125</LatitudeDegrees>
              <LongitudeDegrees>-1.120062656700611114501953125</LongitudeDegrees>
            </Position>
            <AltitudeMeters>48</AltitudeMeters>
            <DistanceMeters>NAN</DistanceMeters>
          </Trackpoint>
          <Trackpoint>
            <Time>2022-07-06T07:59:31.000Z</Time>
            <Position>
              <LatitudeDegrees>44.17800075374543666839599609375</LatitudeDegrees>
              <LongitudeDegrees>-1.12049709074199199676513671875</LongitudeDegrees>
            </Position>
            <AltitudeMeters>48.200000762939453125</AltitudeMeters>
            <DistanceMeters>NAN</DistanceMeters>
          </Trackpoint>
          <Trackpoint>
            <Time>2022-07-06T07:59:34.000Z</Time>
            <Position>
              <LatitudeDegrees>44.17800284922122955322265625</LatitudeDegrees>
              <LongitudeDegrees>-1.12071820534765720367431640625</LongitudeDegrees>
            </Position>
            <AltitudeMeters>48.200000762939453125</AltitudeMeters>
            <DistanceMeters>NAN</DistanceMeters>
          </Trackpoint>
          <Trackpoint>
            <Time>2022-07-06T07:59:42.000Z</Time>
            <Position>
              <LatitudeDegrees>44.17800108902156352996826171875</LatitudeDegrees>
              <LongitudeDegrees>-1.121291108429431915283203125</LongitudeDegrees>
            </Position>
            <AltitudeMeters>47.799999237060546875</AltitudeMeters>
            <DistanceMeters>NAN</DistanceMeters>
          </Trackpoint>
          <Trackpoint>
            <Time>2022-07-06T07:59:51.000Z</Time>
            <Position>
              <LatitudeDegrees>44.17799019254744052886962890625</LatitudeDegrees>
              <LongitudeDegrees>-1.12194347195327281951904296875</LongitudeDegrees>
            </Position>
            <AltitudeMeters>47.799999237060546875</AltitudeMeters>
            <DistanceMeters>NAN</DistanceMeters>
          </Trackpoint>
          <Trackpoint>
            <Time>2022-07-06T08:00:00.000Z</Time>
            <Position>
              <LatitudeDegrees>44.1780003346502780914306640625</LatitudeDegrees>
              <LongitudeDegrees>-1.1225981824100017547607421875</LongitudeDegrees>
            </Position>
            <AltitudeMeters>48</AltitudeMeters>
            <DistanceMeters>NAN</DistanceMeters>
          </Trackpoint>
          <Trackpoint>
            <Time>2022-07-06T08:00:08.000Z</Time>
            <Position>
              <LatitudeDegrees>44.17798717506229877471923828125</LatitudeDegrees>
              <LongitudeDegrees>-1.12319019623100757598876953125</LongitudeDegrees>
            </Position>
            <AltitudeMeters>48</AltitudeMeters>
            <DistanceMeters>NAN</DistanceMeters>
          </Trackpoint>
          <Trackpoint>
            <Time>2022-07-06T08:00:10.000Z</Time>
            <Position>
              <LatitudeDegrees>44.17799723334610462188720703125</LatitudeDegrees>
              <LongitudeDegrees>-1.12333771772682666778564453125</LongitudeDegrees>
            </Position>
            <AltitudeMeters>48</AltitudeMeters>
            <DistanceMeters>NAN</DistanceMeters>
          </Trackpoint>
          <Trackpoint>
            <Time>2022-07-06T08:00:13.000Z</Time>
            <Position>
              <LatitudeDegrees>44.17800175957381725311279296875</LatitudeDegrees>
              <LongitudeDegrees>-1.12354525364935398101806640625</LongitudeDegrees>
            </Position>
            <AltitudeMeters>47.799999237060546875</AltitudeMeters>
            <DistanceMeters>NAN</DistanceMeters>
          </Trackpoint>
          <Trackpoint>
            <Time>2022-07-06T08:00:21.000Z</Time>
            <Position>
              <LatitudeDegrees>44.17798197828233242034912109375</LatitudeDegrees>
              <LongitudeDegrees>-1.1241394467651844024658203125</LongitudeDegrees>
            </Position>
            <AltitudeMeters>47.59999847412109375</AltitudeMeters>
            <DistanceMeters>NAN</DistanceMeters>
          </Trackpoint>
          <Trackpoint>
            <Time>2022-07-06T08:00:22.000Z</Time>
            <Position>
              <LatitudeDegrees>44.1779751889407634735107421875</LatitudeDegrees>
              <LongitudeDegrees>-1.12421496771275997161865234375</LongitudeDegrees>
            </Position>
            <AltitudeMeters>47.59999847412109375</AltitudeMeters>
            <DistanceMeters>NAN</DistanceMeters>
          </Trackpoint>
          <Trackpoint>
            <Time>2022-07-06T08:00:25.000Z</Time>
            <Position>
              <LatitudeDegrees>44.1779594309628009796142578125</LatitudeDegrees>
              <LongitudeDegrees>-1.1244405247271060943603515625</LongitudeDegrees>
            </Position>
            <AltitudeMeters>47.40000152587890625</AltitudeMeters>
            <DistanceMeters>NAN</DistanceMeters>
          </Trackpoint>
          <Trackpoint>
            <Time>2022-07-06T08:00:27.000Z</Time>
            <Position>
              <LatitudeDegrees>44.177956245839595794677734375</LatitudeDegrees>
              <LongitudeDegrees>-1.12458251416683197021484375</LongitudeDegrees>
            </Position>
            <AltitudeMeters>47.40000152587890625</AltitudeMeters>
            <DistanceMeters>NAN</DistanceMeters>
          </Trackpoint>
          <Trackpoint>
            <Time>2022-07-06T08:00:30.000Z</Time>
            <Position>
              <LatitudeDegrees>44.17795917950570583343505859375</LatitudeDegrees>
              <LongitudeDegrees>-1.12480538897216320037841796875</LongitudeDegrees>
            </Position>
            <AltitudeMeters>47.40000152587890625</AltitudeMeters>
            <DistanceMeters>NAN</DistanceMeters>
          </Trackpoint>
          <Trackpoint>
            <Time>2022-07-06T08:00:34.000Z</Time>
            <Position>
              <LatitudeDegrees>44.17795264162123203277587890625</LatitudeDegrees>
              <LongitudeDegrees>-1.12509808503091335296630859375</LongitudeDegrees>
            </Position>
            <AltitudeMeters>47.40000152587890625</AltitudeMeters>
            <DistanceMeters>NAN</DistanceMeters>
          </Trackpoint>
          <Trackpoint>
            <Time>2022-07-06T08:00:36.000Z</Time>
            <Position>
              <LatitudeDegrees>44.177964627742767333984375</LatitudeDegrees>
              <LongitudeDegrees>-1.12524292431771755218505859375</LongitudeDegrees>
            </Position>
            <AltitudeMeters>47.200000762939453125</AltitudeMeters>
            <DistanceMeters>NAN</DistanceMeters>
          </Trackpoint>
          <Trackpoint>
            <Time>2022-07-06T08:00:38.000Z</Time>
            <Position>
              <LatitudeDegrees>44.17796605266630649566650390625</LatitudeDegrees>
              <LongitudeDegrees>-1.12537854351103305816650390625</LongitudeDegrees>
            </Position>
            <AltitudeMeters>47.200000762939453125</AltitudeMeters>
            <DistanceMeters>NAN</DistanceMeters>
          </Trackpoint>
          <Trackpoint>
            <Time>2022-07-06T08:00:40.000Z</Time>
            <Position>
              <LatitudeDegrees>44.17797661386430263519287109375</LatitudeDegrees>
              <LongitudeDegrees>-1.1255177669227123260498046875</LongitudeDegrees>
            </Position>
            <AltitudeMeters>47</AltitudeMeters>
            <DistanceMeters>NAN</DistanceMeters>
          </Trackpoint>
          <Trackpoint>
            <Time>2022-07-06T08:00:42.000Z</Time>
            <Position>
              <LatitudeDegrees>44.1779969818890094757080078125</LatitudeDegrees>
              <LongitudeDegrees>-1.12566386349499225616455078125</LongitudeDegrees>
            </Position>
            <AltitudeMeters>47</AltitudeMeters>
            <DistanceMeters>NAN</DistanceMeters>
          </Trackpoint>
          <Trackpoint>
            <Time>2022-07-06T08:00:44.000Z</Time>
            <Position>
              <LatitudeDegrees>44.17799270711839199066162109375</LatitudeDegrees>
              <LongitudeDegrees>-1.12579713575541973114013671875</LongitudeDegrees>
            </Position>
            <AltitudeMeters>47</AltitudeMeters>
            <DistanceMeters>NAN</DistanceMeters>
          </Trackpoint>
          <Trackpoint>
            <Time>2022-07-06T08:00:47.000Z</Time>
            <Position>
              <LatitudeDegrees>44.17798063717782497406005859375</LatitudeDegrees>
              <LongitudeDegrees>-1.12601087428629398345947265625</LongitudeDegrees>
            </Position>
            <AltitudeMeters>47</AltitudeMeters>
            <DistanceMeters>NAN</DistanceMeters>
          </Trackpoint>
          <Trackpoint>
            <Time>2022-07-06T08:00:49.000Z</Time>
            <Position>
              <LatitudeDegrees>44.1779936291277408599853515625</LatitudeDegrees>
              <LongitudeDegrees>-1.12615537829697132110595703125</LongitudeDegrees>
            </Position>
            <AltitudeMeters>46.799999237060546875</AltitudeMeters>
            <DistanceMeters>NAN</DistanceMeters>
          </Trackpoint>
          <Trackpoint>
            <Time>2022-07-06T08:00:50.000Z</Time>
            <Position>
              <LatitudeDegrees>44.17799622751772403717041015625</LatitudeDegrees>
              <LongitudeDegrees>-1.12622947432100772857666015625</LongitudeDegrees>
            </Position>
            <AltitudeMeters>46.799999237060546875</AltitudeMeters>
            <DistanceMeters>NAN</DistanceMeters>
          </Trackpoint>
          <Trackpoint>
            <Time>2022-07-06T08:01:00.000Z</Time>
            <Position>
              <LatitudeDegrees>44.1779956407845020294189453125</LatitudeDegrees>
              <LongitudeDegrees>-1.12700580619275569915771484375</LongitudeDegrees>
            </Position>
            <AltitudeMeters>46.799999237060546875</AltitudeMeters>
            <DistanceMeters>NAN</DistanceMeters>
          </Trackpoint>
          <Trackpoint>
            <Time>2022-07-06T08:01:10.000Z</Time>
            <Position>
              <LatitudeDegrees>44.1780016757547855377197265625</LatitudeDegrees>
              <LongitudeDegrees>-1.1277656257152557373046875</LongitudeDegrees>
            </Position>
            <AltitudeMeters>46</AltitudeMeters>
            <DistanceMeters>NAN</DistanceMeters>
          </Trackpoint>
          <Trackpoint>
            <Time>2022-07-06T08:01:12.000Z</Time>
            <Position>
              <LatitudeDegrees>44.17800226248800754547119140625</LatitudeDegrees>
              <LongitudeDegrees>-1.127920188009738922119140625</LongitudeDegrees>
            </Position>
            <AltitudeMeters>46</AltitudeMeters>
            <DistanceMeters>NAN</DistanceMeters>
          </Trackpoint>
          <Trackpoint>
            <Time>2022-07-06T08:01:14.000Z</Time>
            <Position>
              <LatitudeDegrees>44.178001843392848968505859375</LatitudeDegrees>
              <LongitudeDegrees>-1.12806946970522403717041015625</LongitudeDegrees>
            </Position>
            <AltitudeMeters>46</AltitudeMeters>
            <DistanceMeters>NAN</DistanceMeters>
          </Trackpoint>
          <Trackpoint>
            <Time>2022-07-06T08:01:21.000Z</Time>
            <Position>
              <LatitudeDegrees>44.177997149527072906494140625</LatitudeDegrees>
              <LongitudeDegrees>-1.12859132699668407440185546875</LongitudeDegrees>
            </Position>
            <AltitudeMeters>45.59999847412109375</AltitudeMeters>
            <DistanceMeters>NAN</DistanceMeters>
          </Trackpoint>
          <Trackpoint>
            <Time>2022-07-06T08:01:23.000Z</Time>
            <Position>
              <LatitudeDegrees>44.17799337767064571380615234375</LatitudeDegrees>
              <LongitudeDegrees>-1.12874287180602550506591796875</LongitudeDegrees>
            </Position>
            <AltitudeMeters>45.40000152587890625</AltitudeMeters>
            <DistanceMeters>NAN</DistanceMeters>
          </Trackpoint>
          <Trackpoint>
            <Time>2022-07-06T08:01:28.000Z</Time>
            <Position>
              <LatitudeDegrees>44.17799622751772403717041015625</LatitudeDegrees>
              <LongitudeDegrees>-1.1291152797639369964599609375</LongitudeDegrees>
            </Position>
            <AltitudeMeters>45.40000152587890625</AltitudeMeters>
            <DistanceMeters>NAN</DistanceMeters>
          </Trackpoint>
          <Trackpoint>
            <Time>2022-07-06T08:01:33.000Z</Time>
            <Position>
              <LatitudeDegrees>44.177997820079326629638671875</LatitudeDegrees>
              <LongitudeDegrees>-1.12948081456124782562255859375</LongitudeDegrees>
            </Position>
            <AltitudeMeters>45.200000762939453125</AltitudeMeters>
            <DistanceMeters>NAN</DistanceMeters>
          </Trackpoint>
          <Trackpoint>
            <Time>2022-07-06T08:01:39.000Z</Time>
            <Position>
              <LatitudeDegrees>44.17799253948032855987548828125</LatitudeDegrees>
              <LongitudeDegrees>-1.1299212835729122161865234375</LongitudeDegrees>
            </Position>
            <AltitudeMeters>45.200000762939453125</AltitudeMeters>
            <DistanceMeters>NAN</DistanceMeters>
          </Trackpoint>
          <Trackpoint>
            <Time>2022-07-06T08:01:40.000Z</Time>
            <Position>
              <LatitudeDegrees>44.1779932938516139984130859375</LatitudeDegrees>
              <LongitudeDegrees>-1.129994206130504608154296875</LongitudeDegrees>
            </Position>
            <AltitudeMeters>45.200000762939453125</AltitudeMeters>
            <DistanceMeters>NAN</DistanceMeters>
          </Trackpoint>
          <Trackpoint>
            <Time>2022-07-06T08:01:46.000Z</Time>
            <Position>
              <LatitudeDegrees>44.1779932938516139984130859375</LatitudeDegrees>
              <LongitudeDegrees>-1.130425371229648590087890625</LongitudeDegrees>
            </Position>
            <AltitudeMeters>44.799999237060546875</AltitudeMeters>
            <DistanceMeters>NAN</DistanceMeters>
          </Trackpoint>
          <Trackpoint>
            <Time>2022-07-06T08:01:51.000Z</Time>
            <Position>
              <LatitudeDegrees>44.17799253948032855987548828125</LatitudeDegrees>
              <LongitudeDegrees>-1.13078252412378787994384765625</LongitudeDegrees>
            </Position>
            <AltitudeMeters>44.59999847412109375</AltitudeMeters>
            <DistanceMeters>NAN</DistanceMeters>
          </Trackpoint>
          <Trackpoint>
            <Time>2022-07-06T08:01:59.000Z</Time>
            <Position>
              <LatitudeDegrees>44.1780006699264049530029296875</LatitudeDegrees>
              <LongitudeDegrees>-1.1313693411648273468017578125</LongitudeDegrees>
            </Position>
            <AltitudeMeters>44.40000152587890625</AltitudeMeters>
            <DistanceMeters>NAN</DistanceMeters>
          </Trackpoint>
          <Trackpoint>
            <Time>2022-07-06T08:02:02.000Z</Time>
            <Position>
              <LatitudeDegrees>44.17800008319318294525146484375</LatitudeDegrees>
              <LongitudeDegrees>-1.13159841857850551605224609375</LongitudeDegrees>
            </Position>
            <AltitudeMeters>44.200000762939453125</AltitudeMeters>
            <DistanceMeters>NAN</DistanceMeters>
          </Trackpoint>
          <Trackpoint>
            <Time>2022-07-06T08:02:08.000Z</Time>
            <Position>
              <LatitudeDegrees>44.178001843392848968505859375</LatitudeDegrees>
              <LongitudeDegrees>-1.1320398934185504913330078125</LongitudeDegrees>
            </Position>
            <AltitudeMeters>44.200000762939453125</AltitudeMeters>
            <DistanceMeters>NAN</DistanceMeters>
          </Trackpoint>
          <Trackpoint>
            <Time>2022-07-06T08:02:10.000Z</Time>
            <Position>
              <LatitudeDegrees>44.17800762690603733062744140625</LatitudeDegrees>
              <LongitudeDegrees>-1.132186241447925567626953125</LongitudeDegrees>
            </Position>
            <AltitudeMeters>44.200000762939453125</AltitudeMeters>
            <DistanceMeters>NAN</DistanceMeters>
          </Trackpoint>
          <Trackpoint>
            <Time>2022-07-06T08:02:16.000Z</Time>
            <Position>
              <LatitudeDegrees>44.17801885865628719329833984375</LatitudeDegrees>
              <LongitudeDegrees>-1.13261078484356403350830078125</LongitudeDegrees>
            </Position>
            <AltitudeMeters>44</AltitudeMeters>
            <DistanceMeters>NAN</DistanceMeters>
          </Trackpoint>
          <Trackpoint>
            <Time>2022-07-06T08:02:19.000Z</Time>
            <Position>
              <LatitudeDegrees>44.1780144162476062774658203125</LatitudeDegrees>
              <LongitudeDegrees>-1.13282033242285251617431640625</LongitudeDegrees>
            </Position>
            <AltitudeMeters>43.799999237060546875</AltitudeMeters>
            <DistanceMeters>NAN</DistanceMeters>
          </Trackpoint>
          <Trackpoint>
            <Time>2022-07-06T08:02:23.000Z</Time>
            <Position>
              <LatitudeDegrees>44.17801667936146259307861328125</LatitudeDegrees>
              <LongitudeDegrees>-1.133101880550384521484375</LongitudeDegrees>
            </Position>
            <AltitudeMeters>43.59999847412109375</AltitudeMeters>
            <DistanceMeters>NAN</DistanceMeters>
          </Trackpoint>
          <Trackpoint>
            <Time>2022-07-06T08:02:27.000Z</Time>
            <Position>
              <LatitudeDegrees>44.178016595542430877685546875</LatitudeDegrees>
              <LongitudeDegrees>-1.1333964206278324127197265625</LongitudeDegrees>
            </Position>
            <AltitudeMeters>43.59999847412109375</AltitudeMeters>
            <DistanceMeters>NAN</DistanceMeters>
          </Trackpoint>
          <Trackpoint>
            <Time>2022-07-06T08:02:32.000Z</Time>
            <Position>
              <LatitudeDegrees>44.17799203656613826751708984375</LatitudeDegrees>
              <LongitudeDegrees>-1.13377117551863193511962890625</LongitudeDegrees>
            </Position>
            <AltitudeMeters>43.59999847412109375</AltitudeMeters>
            <DistanceMeters>NAN</DistanceMeters>
          </Trackpoint>
          <Trackpoint>
            <Time>2022-07-06T08:02:33.000Z</Time>
            <Position>
              <LatitudeDegrees>44.17799304239451885223388671875</LatitudeDegrees>
              <LongitudeDegrees>-1.13384610973298549652099609375</LongitudeDegrees>
            </Position>
            <AltitudeMeters>43.59999847412109375</AltitudeMeters>
            <DistanceMeters>NAN</DistanceMeters>
          </Trackpoint>
          <Trackpoint>
            <Time>2022-07-06T08:02:39.000Z</Time>
            <Position>
              <LatitudeDegrees>44.17798600159585475921630859375</LatitudeDegrees>
              <LongitudeDegrees>-1.1342889256775379180908203125</LongitudeDegrees>
            </Position>
            <AltitudeMeters>43.40000152587890625</AltitudeMeters>
            <DistanceMeters>NAN</DistanceMeters>
          </Trackpoint>
          <Trackpoint>
            <Time>2022-07-06T08:02:40.000Z</Time>
            <Position>
              <LatitudeDegrees>44.177984409034252166748046875</LatitudeDegrees>
              <LongitudeDegrees>-1.13436427898705005645751953125</LongitudeDegrees>
            </Position>
            <AltitudeMeters>43.40000152587890625</AltitudeMeters>
            <DistanceMeters>NAN</DistanceMeters>
          </Trackpoint>
          <Trackpoint>
            <Time>2022-07-06T08:02:44.000Z</Time>
            <Position>
              <LatitudeDegrees>44.177963621914386749267578125</LatitudeDegrees>
              <LongitudeDegrees>-1.1346443183720111846923828125</LongitudeDegrees>
            </Position>
            <AltitudeMeters>43.59999847412109375</AltitudeMeters>
            <DistanceMeters>NAN</DistanceMeters>
          </Trackpoint>
          <Trackpoint>
            <Time>2022-07-06T08:02:49.000Z</Time>
            <Position>
              <LatitudeDegrees>44.177927076816558837890625</LatitudeDegrees>
              <LongitudeDegrees>-1.1349752359092235565185546875</LongitudeDegrees>
            </Position>
            <AltitudeMeters>43.40000152587890625</AltitudeMeters>
            <DistanceMeters>NAN</DistanceMeters>
          </Trackpoint>
          <Trackpoint>
            <Time>2022-07-06T08:02:57.000Z</Time>
            <Position>
              <LatitudeDegrees>44.17781651951372623443603515625</LatitudeDegrees>
              <LongitudeDegrees>-1.1355002783238887786865234375</LongitudeDegrees>
            </Position>
            <AltitudeMeters>43.40000152587890625</AltitudeMeters>
            <DistanceMeters>NAN</DistanceMeters>
          </Trackpoint>
          <Trackpoint>
            <Time>2022-07-06T08:02:58.000Z</Time>
            <Position>
              <LatitudeDegrees>44.17780126444995403289794921875</LatitudeDegrees>
              <LongitudeDegrees>-1.13556657917797565460205078125</LongitudeDegrees>
            </Position>
            <AltitudeMeters>43.40000152587890625</AltitudeMeters>
            <DistanceMeters>NAN</DistanceMeters>
          </Trackpoint>
          <Trackpoint>
            <Time>2022-07-06T08:03:05.000Z</Time>
            <Position>
              <LatitudeDegrees>44.17766916565597057342529296875</LatitudeDegrees>
              <LongitudeDegrees>-1.1360041983425617218017578125</LongitudeDegrees>
            </Position>
            <AltitudeMeters>43.40000152587890625</AltitudeMeters>
            <DistanceMeters>NAN</DistanceMeters>
          </Trackpoint>
          <Trackpoint>
            <Time>2022-07-06T08:03:11.000Z</Time>
            <Position>
              <LatitudeDegrees>44.1775555908679962158203125</LatitudeDegrees>
              <LongitudeDegrees>-1.136395297944545745849609375</LongitudeDegrees>
            </Position>
            <AltitudeMeters>43.200000762939453125</AltitudeMeters>
            <DistanceMeters>NAN</DistanceMeters>
          </Trackpoint>
          <Trackpoint>
            <Time>2022-07-06T08:03:12.000Z</Time>
            <Position>
              <LatitudeDegrees>44.17752700857818126678466796875</LatitudeDegrees>
              <LongitudeDegrees>-1.13644215278327465057373046875</LongitudeDegrees>
            </Position>
            <AltitudeMeters>43.200000762939453125</AltitudeMeters>
            <DistanceMeters>NAN</DistanceMeters>
          </Trackpoint>
          <Trackpoint>
            <Time>2022-07-06T08:03:13.000Z</Time>
            <Position>
              <LatitudeDegrees>44.17748459614813327789306640625</LatitudeDegrees>
              <LongitudeDegrees>-1.13648255355656147003173828125</LongitudeDegrees>
            </Position>
            <AltitudeMeters>43.40000152587890625</AltitudeMeters>
            <DistanceMeters>NAN</DistanceMeters>
          </Trackpoint>
          <Trackpoint>
            <Time>2022-07-06T08:03:17.000Z</Time>
            <Position>
              <LatitudeDegrees>44.1773234121501445770263671875</LatitudeDegrees>
              <LongitudeDegrees>-1.13662370480597019195556640625</LongitudeDegrees>
            </Position>
            <AltitudeMeters>43.200000762939453125</AltitudeMeters>
            <DistanceMeters>NAN</DistanceMeters>
          </Trackpoint>
          <Trackpoint>
            <Time>2022-07-06T08:03:24.000Z</Time>
            <Position>
              <LatitudeDegrees>44.17707019485533237457275390625</LatitudeDegrees>
              <LongitudeDegrees>-1.136781536042690277099609375</LongitudeDegrees>
            </Position>
            <AltitudeMeters>43.200000762939453125</AltitudeMeters>
            <DistanceMeters>NAN</DistanceMeters>
          </Trackpoint>
          <Trackpoint>
            <Time>2022-07-06T08:03:32.000Z</Time>
            <Position>
              <LatitudeDegrees>44.1767775826156139373779296875</LatitudeDegrees>
              <LongitudeDegrees>-1.13692863844335079193115234375</LongitudeDegrees>
            </Position>
            <AltitudeMeters>43.59999847412109375</AltitudeMeters>
            <DistanceMeters>NAN</DistanceMeters>
          </Trackpoint>
          <Trackpoint>
            <Time>2022-07-06T08:03:40.000Z</Time>
            <Position>
              <LatitudeDegrees>44.17646083049476146697998046875</LatitudeDegrees>
              <LongitudeDegrees>-1.1371179856359958648681640625</LongitudeDegrees>
            </Position>
            <AltitudeMeters>44</AltitudeMeters>
            <DistanceMeters>NAN</DistanceMeters>
          </Trackpoint>
          <Trackpoint>
            <Time>2022-07-06T08:03:43.000Z</Time>
            <Position>
              <LatitudeDegrees>44.17634985409677028656005859375</LatitudeDegrees>
              <LongitudeDegrees>-1.13718529231846332550048828125</LongitudeDegrees>
            </Position>
            <AltitudeMeters>44.200000762939453125</AltitudeMeters>
            <DistanceMeters>NAN</DistanceMeters>
          </Trackpoint>
          <Trackpoint>
            <Time>2022-07-06T08:03:48.000Z</Time>
            <Position>
              <LatitudeDegrees>44.176147766411304473876953125</LatitudeDegrees>
              <LongitudeDegrees>-1.1373037286102771759033203125</LongitudeDegrees>
            </Position>
            <AltitudeMeters>44.200000762939453125</AltitudeMeters>
            <DistanceMeters>NAN</DistanceMeters>
          </Trackpoint>
          <Trackpoint>
            <Time>2022-07-06T08:03:57.000Z</Time>
            <Position>
              <LatitudeDegrees>44.1757808066904544830322265625</LatitudeDegrees>
              <LongitudeDegrees>-1.1374874599277973175048828125</LongitudeDegrees>
            </Position>
            <AltitudeMeters>44.40000152587890625</AltitudeMeters>
            <DistanceMeters>NAN</DistanceMeters>
          </Trackpoint>
          <Trackpoint>
            <Time>2022-07-06T08:04:07.000Z</Time>
            <Position>
              <LatitudeDegrees>44.17537285946309566497802734375</LatitudeDegrees>
              <LongitudeDegrees>-1.13765400834381580352783203125</LongitudeDegrees>
            </Position>
            <AltitudeMeters>44.59999847412109375</AltitudeMeters>
            <DistanceMeters>NAN</DistanceMeters>
          </Trackpoint>
          <Trackpoint>
            <Time>2022-07-06T08:04:13.000Z</Time>
            <Position>
              <LatitudeDegrees>44.1750961728394031524658203125</LatitudeDegrees>
              <LongitudeDegrees>-1.13770195282995700836181640625</LongitudeDegrees>
            </Position>
            <AltitudeMeters>45</AltitudeMeters>
            <DistanceMeters>NAN</DistanceMeters>
          </Trackpoint>
          <Trackpoint>
            <Time>2022-07-06T08:04:16.000Z</Time>
            <Position>
              <LatitudeDegrees>44.17496122419834136962890625</LatitudeDegrees>
              <LongitudeDegrees>-1.13773531280457973480224609375</LongitudeDegrees>
            </Position>
            <AltitudeMeters>45.200000762939453125</AltitudeMeters>
            <DistanceMeters>NAN</DistanceMeters>
          </Trackpoint>
          <Trackpoint>
            <Time>2022-07-06T08:04:26.000Z</Time>
            <Position>
              <LatitudeDegrees>44.17453869245946407318115234375</LatitudeDegrees>
              <LongitudeDegrees>-1.13779901526868343353271484375</LongitudeDegrees>
            </Position>
            <AltitudeMeters>45.40000152587890625</AltitudeMeters>
            <DistanceMeters>NAN</DistanceMeters>
          </Trackpoint>
          <Trackpoint>
            <Time>2022-07-06T08:04:34.000Z</Time>
            <Position>
              <LatitudeDegrees>44.17420626617968082427978515625</LatitudeDegrees>
              <LongitudeDegrees>-1.13784947432577610015869140625</LongitudeDegrees>
            </Position>
            <AltitudeMeters>45.40000152587890625</AltitudeMeters>
            <DistanceMeters>NAN</DistanceMeters>
          </Trackpoint>
          <Trackpoint>
            <Time>2022-07-06T08:04:36.000Z</Time>
            <Position>
              <LatitudeDegrees>44.1741171665489673614501953125</LatitudeDegrees>
              <LongitudeDegrees>-1.1378643102943897247314453125</LongitudeDegrees>
            </Position>
            <AltitudeMeters>45.40000152587890625</AltitudeMeters>
            <DistanceMeters>NAN</DistanceMeters>
          </Trackpoint>
          <Trackpoint>
            <Time>2022-07-06T08:04:47.000Z</Time>
            <Position>
              <LatitudeDegrees>44.1736792959272861480712890625</LatitudeDegrees>
              <LongitudeDegrees>-1.13792273215949535369873046875</LongitudeDegrees>
            </Position>
            <AltitudeMeters>45.799999237060546875</AltitudeMeters>
            <DistanceMeters>NAN</DistanceMeters>
          </Trackpoint>
          <Trackpoint>
            <Time>2022-07-06T08:04:57.000Z</Time>
            <Position>
              <LatitudeDegrees>44.173275791108608245849609375</LatitudeDegrees>
              <LongitudeDegrees>-1.13801878876984119415283203125</LongitudeDegrees>
            </Position>
            <AltitudeMeters>46</AltitudeMeters>
            <DistanceMeters>NAN</DistanceMeters>
          </Trackpoint>
          <Trackpoint>
            <Time>2022-07-06T08:04:58.000Z</Time>
            <Position>
              <LatitudeDegrees>44.17323849163949489593505859375</LatitudeDegrees>
              <LongitudeDegrees>-1.13802708685398101806640625</LongitudeDegrees>
            </Position>
            <AltitudeMeters>46</AltitudeMeters>
            <DistanceMeters>NAN</DistanceMeters>
          </Trackpoint>
          <Trackpoint>
            <Time>2022-07-06T08:05:06.000Z</Time>
            <Position>
              <LatitudeDegrees>44.17291444726288318634033203125</LatitudeDegrees>
              <LongitudeDegrees>-1.1381016857922077178955078125</LongitudeDegrees>
            </Position>
            <AltitudeMeters>46</AltitudeMeters>
            <DistanceMeters>NAN</DistanceMeters>
          </Trackpoint>
          <Trackpoint>
            <Time>2022-07-06T08:05:07.000Z</Time>
            <Position>
              <LatitudeDegrees>44.17287589050829410552978515625</LatitudeDegrees>
              <LongitudeDegrees>-1.1381104029715061187744140625</LongitudeDegrees>
            </Position>
            <AltitudeMeters>46</AltitudeMeters>
            <DistanceMeters>NAN</DistanceMeters>
          </Trackpoint>
          <Trackpoint>
            <Time>2022-07-06T08:05:14.000Z</Time>
            <Position>
              <LatitudeDegrees>44.17262678034603595733642578125</LatitudeDegrees>
              <LongitudeDegrees>-1.13818407990038394927978515625</LongitudeDegrees>
            </Position>
            <AltitudeMeters>46.200000762939453125</AltitudeMeters>
            <DistanceMeters>NAN</DistanceMeters>
          </Trackpoint>
          <Trackpoint>
            <Time>2022-07-06T08:05:17.000Z</Time>
            <Position>
              <LatitudeDegrees>44.1725054942071437835693359375</LatitudeDegrees>
              <LongitudeDegrees>-1.13821391947567462921142578125</LongitudeDegrees>
            </Position>
            <AltitudeMeters>46.200000762939453125</AltitudeMeters>
            <DistanceMeters>NAN</DistanceMeters>
          </Trackpoint>
          <Trackpoint>
            <Time>2022-07-06T08:05:20.000Z</Time>
            <Position>
              <LatitudeDegrees>44.1723928414285182952880859375</LatitudeDegrees>
              <LongitudeDegrees>-1.1382435075938701629638671875</LongitudeDegrees>
            </Position>
            <AltitudeMeters>46.200000762939453125</AltitudeMeters>
            <DistanceMeters>NAN</DistanceMeters>
          </Trackpoint>
          <Trackpoint>
            <Time>2022-07-06T08:05:26.000Z</Time>
            <Position>
              <LatitudeDegrees>44.17216233909130096435546875</LatitudeDegrees>
              <LongitudeDegrees>-1.13831005990505218505859375</LongitudeDegrees>
            </Position>
            <AltitudeMeters>46.200000762939453125</AltitudeMeters>
            <DistanceMeters>NAN</DistanceMeters>
          </Trackpoint>
          <Trackpoint>
            <Time>2022-07-06T08:05:31.000Z</Time>
            <Position>
              <LatitudeDegrees>44.17198405601084232330322265625</LatitudeDegrees>
              <LongitudeDegrees>-1.13836144097149372100830078125</LongitudeDegrees>
            </Position>
            <AltitudeMeters>46.40000152587890625</AltitudeMeters>
            <DistanceMeters>NAN</DistanceMeters>
          </Trackpoint>
          <Trackpoint>
            <Time>2022-07-06T08:05:42.000Z</Time>
            <Position>
              <LatitudeDegrees>44.17158910073339939117431640625</LatitudeDegrees>
              <LongitudeDegrees>-1.1384678073227405548095703125</LongitudeDegrees>
            </Position>
            <AltitudeMeters>46.40000152587890625</AltitudeMeters>
            <DistanceMeters>NAN</DistanceMeters>
          </Trackpoint>
          <Trackpoint>
            <Time>2022-07-06T08:05:52.000Z</Time>
            <Position>
              <LatitudeDegrees>44.17120051570236682891845703125</LatitudeDegrees>
              <LongitudeDegrees>-1.13856017589569091796875</LongitudeDegrees>
            </Position>
            <AltitudeMeters>46.200000762939453125</AltitudeMeters>
            <DistanceMeters>NAN</DistanceMeters>
          </Trackpoint>
          <Trackpoint>
            <Time>2022-07-06T08:06:03.000Z</Time>
            <Position>
              <LatitudeDegrees>44.17076566256582736968994140625</LatitudeDegrees>
              <LongitudeDegrees>-1.13868431188166141510009765625</LongitudeDegrees>
            </Position>
            <AltitudeMeters>46.200000762939453125</AltitudeMeters>
            <DistanceMeters>NAN</DistanceMeters>
          </Trackpoint>
          <Trackpoint>
            <Time>2022-07-06T08:06:04.000Z</Time>
            <Position>
              <LatitudeDegrees>44.1707235015928745269775390625</LatitudeDegrees>
              <LongitudeDegrees>-1.13869437016546726226806640625</LongitudeDegrees>
            </Position>
            <AltitudeMeters>46.200000762939453125</AltitudeMeters>
            <DistanceMeters>NAN</DistanceMeters>
          </Trackpoint>
          <Trackpoint>
            <Time>2022-07-06T08:06:11.000Z</Time>
            <Position>
              <LatitudeDegrees>44.1704343259334564208984375</LatitudeDegrees>
              <LongitudeDegrees>-1.138769723474979400634765625</LongitudeDegrees>
            </Position>
            <AltitudeMeters>46</AltitudeMeters>
            <DistanceMeters>NAN</DistanceMeters>
          </Trackpoint>
          <Trackpoint>
            <Time>2022-07-06T08:06:12.000Z</Time>
            <Position>
              <LatitudeDegrees>44.170401804149150848388671875</LatitudeDegrees>
              <LongitudeDegrees>-1.1387812905013561248779296875</LongitudeDegrees>
            </Position>
            <AltitudeMeters>46</AltitudeMeters>
            <DistanceMeters>NAN</DistanceMeters>
          </Trackpoint>
          <Trackpoint>
            <Time>2022-07-06T08:06:19.000Z</Time>
            <Position>
              <LatitudeDegrees>44.1701102815568447113037109375</LatitudeDegrees>
              <LongitudeDegrees>-1.138864271342754364013671875</LongitudeDegrees>
            </Position>
            <AltitudeMeters>46</AltitudeMeters>
            <DistanceMeters>NAN</DistanceMeters>
          </Trackpoint>
          <Trackpoint>
            <Time>2022-07-06T08:06:23.000Z</Time>
            <Position>
              <LatitudeDegrees>44.1699527017772197723388671875</LatitudeDegrees>
              <LongitudeDegrees>-1.13890626467764377593994140625</LongitudeDegrees>
            </Position>
            <AltitudeMeters>46</AltitudeMeters>
            <DistanceMeters>NAN</DistanceMeters>
          </Trackpoint>
          <Trackpoint>
            <Time>2022-07-06T08:06:35.000Z</Time>
            <Position>
              <LatitudeDegrees>44.16948960162699222564697265625</LatitudeDegrees>
              <LongitudeDegrees>-1.1390736512839794158935546875</LongitudeDegrees>
            </Position>
            <AltitudeMeters>45.59999847412109375</AltitudeMeters>
            <DistanceMeters>NAN</DistanceMeters>
          </Trackpoint>
          <Trackpoint>
            <Time>2022-07-06T08:06:46.000Z</Time>
            <Position>
              <LatitudeDegrees>44.16908106766641139984130859375</LatitudeDegrees>
              <LongitudeDegrees>-1.13924992270767688751220703125</LongitudeDegrees>
            </Position>
            <AltitudeMeters>45.799999237060546875</AltitudeMeters>
            <DistanceMeters>NAN</DistanceMeters>
          </Trackpoint>
          <Trackpoint>
            <Time>2022-07-06T08:06:53.000Z</Time>
            <Position>
              <LatitudeDegrees>44.16881217621266841888427734375</LatitudeDegrees>
              <LongitudeDegrees>-1.13934832625091075897216796875</LongitudeDegrees>
            </Position>
            <AltitudeMeters>46</AltitudeMeters>
            <DistanceMeters>NAN</DistanceMeters>
          </Trackpoint>
          <Trackpoint>
            <Time>2022-07-06T08:07:01.000Z</Time>
            <Position>
              <LatitudeDegrees>44.16850984096527099609375</LatitudeDegrees>
              <LongitudeDegrees>-1.139493919909000396728515625</LongitudeDegrees>
            </Position>
            <AltitudeMeters>46.200000762939453125</AltitudeMeters>
            <DistanceMeters>NAN</DistanceMeters>
          </Trackpoint>
          <Trackpoint>
            <Time>2022-07-06T08:07:09.000Z</Time>
            <Position>
              <LatitudeDegrees>44.16822359897196292877197265625</LatitudeDegrees>
              <LongitudeDegrees>-1.13966130651533603668212890625</LongitudeDegrees>
            </Position>
            <AltitudeMeters>45.799999237060546875</AltitudeMeters>
            <DistanceMeters>NAN</DistanceMeters>
          </Trackpoint>
          <Trackpoint>
            <Time>2022-07-06T08:07:12.000Z</Time>
            <Position>
              <LatitudeDegrees>44.1681157238781452178955078125</LatitudeDegrees>
              <LongitudeDegrees>-1.1397374980151653289794921875</LongitudeDegrees>
            </Position>
            <AltitudeMeters>45.799999237060546875</AltitudeMeters>
            <DistanceMeters>NAN</DistanceMeters>
          </Trackpoint>
          <Trackpoint>
            <Time>2022-07-06T08:07:22.000Z</Time>
            <Position>
              <LatitudeDegrees>44.1677655279636383056640625</LatitudeDegrees>
              <LongitudeDegrees>-1.13999716937541961669921875</LongitudeDegrees>
            </Position>
            <AltitudeMeters>45.59999847412109375</AltitudeMeters>
            <DistanceMeters>NAN</DistanceMeters>
          </Trackpoint>
          <Trackpoint>
            <Time>2022-07-06T08:07:26.000Z</Time>
            <Position>
              <LatitudeDegrees>44.1676367819309234619140625</LatitudeDegrees>
              <LongitudeDegrees>-1.14008459262549877166748046875</LongitudeDegrees>
            </Position>
            <AltitudeMeters>45.40000152587890625</AltitudeMeters>
            <DistanceMeters>NAN</DistanceMeters>
          </Trackpoint>
          <Trackpoint>
            <Time>2022-07-06T08:07:29.000Z</Time>
            <Position>
              <LatitudeDegrees>44.16754131205379962921142578125</LatitudeDegrees>
              <LongitudeDegrees>-1.140160448849201202392578125</LongitudeDegrees>
            </Position>
            <AltitudeMeters>45.59999847412109375</AltitudeMeters>
            <DistanceMeters>NAN</DistanceMeters>
          </Trackpoint>
          <Trackpoint>
            <Time>2022-07-06T08:07:33.000Z</Time>
            <Position>
              <LatitudeDegrees>44.167393706738948822021484375</LatitudeDegrees>
              <LongitudeDegrees>-1.14027603529393672943115234375</LongitudeDegrees>
            </Position>
            <AltitudeMeters>45.799999237060546875</AltitudeMeters>
            <DistanceMeters>NAN</DistanceMeters>
          </Trackpoint>
          <Trackpoint>
            <Time>2022-07-06T08:07:37.000Z</Time>
            <Position>
              <LatitudeDegrees>44.167250879108905792236328125</LatitudeDegrees>
              <LongitudeDegrees>-1.14038852043449878692626953125</LongitudeDegrees>
            </Position>
            <AltitudeMeters>45.799999237060546875</AltitudeMeters>
            <DistanceMeters>NAN</DistanceMeters>
          </Trackpoint>
          <Trackpoint>
            <Time>2022-07-06T08:07:38.000Z</Time>
            <Position>
              <LatitudeDegrees>44.16722045280039310455322265625</LatitudeDegrees>
              <LongitudeDegrees>-1.14041182212531566619873046875</LongitudeDegrees>
            </Position>
            <AltitudeMeters>45.799999237060546875</AltitudeMeters>
            <DistanceMeters>NAN</DistanceMeters>
          </Trackpoint>
          <Trackpoint>
            <Time>2022-07-06T08:07:40.000Z</Time>
            <Position>
              <LatitudeDegrees>44.167138226330280303955078125</LatitudeDegrees>
              <LongitudeDegrees>-1.1404697410762310028076171875</LongitudeDegrees>
            </Position>
            <AltitudeMeters>45.799999237060546875</AltitudeMeters>
            <DistanceMeters>NAN</DistanceMeters>
          </Trackpoint>
          <Trackpoint>
            <Time>2022-07-06T08:07:48.000Z</Time>
            <Position>
              <LatitudeDegrees>44.16684896685183048248291015625</LatitudeDegrees>
              <LongitudeDegrees>-1.1406558193266391754150390625</LongitudeDegrees>
            </Position>
            <AltitudeMeters>46.200000762939453125</AltitudeMeters>
            <DistanceMeters>NAN</DistanceMeters>
          </Trackpoint>
          <Trackpoint>
            <Time>2022-07-06T08:07:52.000Z</Time>
            <Position>
              <LatitudeDegrees>44.1667152754962444305419921875</LatitudeDegrees>
              <LongitudeDegrees>-1.140755899250507354736328125</LongitudeDegrees>
            </Position>
            <AltitudeMeters>46.200000762939453125</AltitudeMeters>
            <DistanceMeters>NAN</DistanceMeters>
          </Trackpoint>
          <Trackpoint>
            <Time>2022-07-06T08:07:57.000Z</Time>
            <Position>
              <LatitudeDegrees>44.16654109954833984375</LatitudeDegrees>
              <LongitudeDegrees>-1.14087416790425777435302734375</LongitudeDegrees>
            </Position>
            <AltitudeMeters>46</AltitudeMeters>
            <DistanceMeters>NAN</DistanceMeters>
          </Trackpoint>
          <Trackpoint>
            <Time>2022-07-06T08:08:03.000Z</Time>
            <Position>
              <LatitudeDegrees>44.166316799819469451904296875</LatitudeDegrees>
              <LongitudeDegrees>-1.14102034829556941986083984375</LongitudeDegrees>
            </Position>
            <AltitudeMeters>45.799999237060546875</AltitudeMeters>
            <DistanceMeters>NAN</DistanceMeters>
          </Trackpoint>
          <Trackpoint>
            <Time>2022-07-06T08:08:05.000Z</Time>
            <Position>
              <LatitudeDegrees>44.16624194942414760589599609375</LatitudeDegrees>
              <LongitudeDegrees>-1.14106929861009120941162109375</LongitudeDegrees>
            </Position>
            <AltitudeMeters>45.799999237060546875</AltitudeMeters>
            <DistanceMeters>NAN</DistanceMeters>
          </Trackpoint>
          <Trackpoint>
            <Time>2022-07-06T08:08:06.000Z</Time>
            <Position>
              <LatitudeDegrees>44.1662059910595417022705078125</LatitudeDegrees>
              <LongitudeDegrees>-1.141095869243144989013671875</LongitudeDegrees>
            </Position>
            <AltitudeMeters>45.799999237060546875</AltitudeMeters>
            <DistanceMeters>NAN</DistanceMeters>
          </Trackpoint>
          <Trackpoint>
            <Time>2022-07-06T08:08:17.000Z</Time>
            <Position>
              <LatitudeDegrees>44.1658251173794269561767578125</LatitudeDegrees>
              <LongitudeDegrees>-1.14135964773595333099365234375</LongitudeDegrees>
            </Position>
            <AltitudeMeters>46</AltitudeMeters>
            <DistanceMeters>NAN</DistanceMeters>
          </Trackpoint>
          <Trackpoint>
            <Time>2022-07-06T08:08:24.000Z</Time>
            <Position>
              <LatitudeDegrees>44.165573827922344207763671875</LatitudeDegrees>
              <LongitudeDegrees>-1.14147615619003772735595703125</LongitudeDegrees>
            </Position>
            <AltitudeMeters>46.40000152587890625</AltitudeMeters>
            <DistanceMeters>NAN</DistanceMeters>
          </Trackpoint>
          <Trackpoint>
            <Time>2022-07-06T08:08:28.000Z</Time>
            <Position>
              <LatitudeDegrees>44.16543108411133289337158203125</LatitudeDegrees>
              <LongitudeDegrees>-1.141534410417079925537109375</LongitudeDegrees>
            </Position>
            <AltitudeMeters>46.40000152587890625</AltitudeMeters>
            <DistanceMeters>NAN</DistanceMeters>
          </Trackpoint>
          <Trackpoint>
            <Time>2022-07-06T08:08:33.000Z</Time>
            <Position>
              <LatitudeDegrees>44.1652444191277027130126953125</LatitudeDegrees>
              <LongitudeDegrees>-1.1416004598140716552734375</LongitudeDegrees>
            </Position>
            <AltitudeMeters>46.200000762939453125</AltitudeMeters>
            <DistanceMeters>NAN</DistanceMeters>
          </Trackpoint>
          <Trackpoint>
            <Time>2022-07-06T08:08:41.000Z</Time>
            <Position>
              <LatitudeDegrees>44.16494711302220821380615234375</LatitudeDegrees>
              <LongitudeDegrees>-1.14170716144144535064697265625</LongitudeDegrees>
            </Position>
            <AltitudeMeters>46.200000762939453125</AltitudeMeters>
            <DistanceMeters>NAN</DistanceMeters>
          </Trackpoint>
          <Trackpoint>
            <Time>2022-07-06T08:08:52.000Z</Time>
            <Position>
              <LatitudeDegrees>44.1645373217761516571044921875</LatitudeDegrees>
              <LongitudeDegrees>-1.14178377203643321990966796875</LongitudeDegrees>
            </Position>
            <AltitudeMeters>46.200000762939453125</AltitudeMeters>
            <DistanceMeters>NAN</DistanceMeters>
          </Trackpoint>
          <Trackpoint>
            <Time>2022-07-06T08:09:00.000Z</Time>
            <Position>
              <LatitudeDegrees>44.16421973146498203277587890625</LatitudeDegrees>
              <LongitudeDegrees>-1.141788549721240997314453125</LongitudeDegrees>
            </Position>
            <AltitudeMeters>46.40000152587890625</AltitudeMeters>
            <DistanceMeters>NAN</DistanceMeters>
          </Trackpoint>
          <Trackpoint>
            <Time>2022-07-06T08:09:03.000Z</Time>
            <Position>
              <LatitudeDegrees>44.1640960983932018280029296875</LatitudeDegrees>
              <LongitudeDegrees>-1.1417873762547969818115234375</LongitudeDegrees>
            </Position>
            <AltitudeMeters>46.40000152587890625</AltitudeMeters>
            <DistanceMeters>NAN</DistanceMeters>
          </Trackpoint>
          <Trackpoint>
            <Time>2022-07-06T08:09:04.000Z</Time>
            <Position>
              <LatitudeDegrees>44.16405846364796161651611328125</LatitudeDegrees>
              <LongitudeDegrees>-1.1417887173593044281005859375</LongitudeDegrees>
            </Position>
            <AltitudeMeters>46.40000152587890625</AltitudeMeters>
            <DistanceMeters>NAN</DistanceMeters>
          </Trackpoint>
          <Trackpoint>
            <Time>2022-07-06T08:09:11.000Z</Time>
            <Position>
              <LatitudeDegrees>44.16378521360456943511962890625</LatitudeDegrees>
              <LongitudeDegrees>-1.141808666288852691650390625</LongitudeDegrees>
            </Position>
            <AltitudeMeters>46.200000762939453125</AltitudeMeters>
            <DistanceMeters>NAN</DistanceMeters>
          </Trackpoint>
          <Trackpoint>
            <Time>2022-07-06T08:09:20.000Z</Time>
            <Position>
              <LatitudeDegrees>44.1634530387818813323974609375</LatitudeDegrees>
              <LongitudeDegrees>-1.14183037541806697845458984375</LongitudeDegrees>
            </Position>
            <AltitudeMeters>46.200000762939453125</AltitudeMeters>
            <DistanceMeters>NAN</DistanceMeters>
          </Trackpoint>
          <Trackpoint>
            <Time>2022-07-06T08:09:21.000Z</Time>
            <Position>
              <LatitudeDegrees>44.1634188406169414520263671875</LatitudeDegrees>
              <LongitudeDegrees>-1.14183356054127216339111328125</LongitudeDegrees>
            </Position>
            <AltitudeMeters>46.200000762939453125</AltitudeMeters>
            <DistanceMeters>NAN</DistanceMeters>
          </Trackpoint>
          <Trackpoint>
            <Time>2022-07-06T08:09:22.000Z</Time>
            <Position>
              <LatitudeDegrees>44.16338338516652584075927734375</LatitudeDegrees>
              <LongitudeDegrees>-1.14183473400771617889404296875</LongitudeDegrees>
            </Position>
            <AltitudeMeters>46.200000762939453125</AltitudeMeters>
            <DistanceMeters>NAN</DistanceMeters>
          </Trackpoint>
          <Trackpoint>
            <Time>2022-07-06T08:09:25.000Z</Time>
            <Position>
              <LatitudeDegrees>44.16327458806335926055908203125</LatitudeDegrees>
              <LongitudeDegrees>-1.14183473400771617889404296875</LongitudeDegrees>
            </Position>
            <AltitudeMeters>46.59999847412109375</AltitudeMeters>
            <DistanceMeters>NAN</DistanceMeters>
          </Trackpoint>
          <Trackpoint>
            <Time>2022-07-06T08:09:31.000Z</Time>
            <Position>
              <LatitudeDegrees>44.1630649566650390625</LatitudeDegrees>
              <LongitudeDegrees>-1.141842193901538848876953125</LongitudeDegrees>
            </Position>
            <AltitudeMeters>46.799999237060546875</AltitudeMeters>
            <DistanceMeters>NAN</DistanceMeters>
          </Trackpoint>
          <Trackpoint>
            <Time>2022-07-06T08:09:33.000Z</Time>
            <Position>
              <LatitudeDegrees>44.16299195028841495513916015625</LatitudeDegrees>
              <LongitudeDegrees>-1.14185619167983531951904296875</LongitudeDegrees>
            </Position>
            <AltitudeMeters>46.59999847412109375</AltitudeMeters>
            <DistanceMeters>NAN</DistanceMeters>
          </Trackpoint>
          <Trackpoint>
            <Time>2022-07-06T08:09:34.000Z</Time>
            <Position>
              <LatitudeDegrees>44.16295607574284076690673828125</LatitudeDegrees>
              <LongitudeDegrees>-1.1418552696704864501953125</LongitudeDegrees>
            </Position>
            <AltitudeMeters>46.59999847412109375</AltitudeMeters>
            <DistanceMeters>NAN</DistanceMeters>
          </Trackpoint>
          <Trackpoint>
            <Time>2022-07-06T08:09:36.000Z</Time>
            <Position>
              <LatitudeDegrees>44.16287862695753574371337890625</LatitudeDegrees>
              <LongitudeDegrees>-1.14186172373592853546142578125</LongitudeDegrees>
            </Position>
            <AltitudeMeters>46.59999847412109375</AltitudeMeters>
            <DistanceMeters>NAN</DistanceMeters>
          </Trackpoint>
          <Trackpoint>
            <Time>2022-07-06T08:09:38.000Z</Time>
            <Position>
              <LatitudeDegrees>44.16280570439994335174560546875</LatitudeDegrees>
              <LongitudeDegrees>-1.14187203347682952880859375</LongitudeDegrees>
            </Position>
            <AltitudeMeters>46.40000152587890625</AltitudeMeters>
            <DistanceMeters>NAN</DistanceMeters>
          </Trackpoint>
          <Trackpoint>
            <Time>2022-07-06T08:09:41.000Z</Time>
            <Position>
              <LatitudeDegrees>44.16270026005804538726806640625</LatitudeDegrees>
              <LongitudeDegrees>-1.14187932573258876800537109375</LongitudeDegrees>
            </Position>
            <AltitudeMeters>46.40000152587890625</AltitudeMeters>
            <DistanceMeters>NAN</DistanceMeters>
          </Trackpoint>
          <Trackpoint>
            <Time>2022-07-06T08:09:51.000Z</Time>
            <Position>
              <LatitudeDegrees>44.16230882517993450164794921875</LatitudeDegrees>
              <LongitudeDegrees>-1.14189885556697845458984375</LongitudeDegrees>
            </Position>
            <AltitudeMeters>46.40000152587890625</AltitudeMeters>
            <DistanceMeters>NAN</DistanceMeters>
          </Trackpoint>
          <Trackpoint>
            <Time>2022-07-06T08:10:02.000Z</Time>
            <Position>
              <LatitudeDegrees>44.1618512570858001708984375</LatitudeDegrees>
              <LongitudeDegrees>-1.14192157052457332611083984375</LongitudeDegrees>
            </Position>
            <AltitudeMeters>46.40000152587890625</AltitudeMeters>
            <DistanceMeters>NAN</DistanceMeters>
          </Trackpoint>
          <Trackpoint>
            <Time>2022-07-06T08:10:11.000Z</Time>
            <Position>
              <LatitudeDegrees>44.16149460710585117340087890625</LatitudeDegrees>
              <LongitudeDegrees>-1.14193883724510669708251953125</LongitudeDegrees>
            </Position>
            <AltitudeMeters>46.799999237060546875</AltitudeMeters>
            <DistanceMeters>NAN</DistanceMeters>
          </Trackpoint>
          <Trackpoint>
            <Time>2022-07-06T08:10:20.000Z</Time>
            <Position>
              <LatitudeDegrees>44.1611372865736484527587890625</LatitudeDegrees>
              <LongitudeDegrees>-1.141960211098194122314453125</LongitudeDegrees>
            </Position>
            <AltitudeMeters>47</AltitudeMeters>
            <DistanceMeters>NAN</DistanceMeters>
          </Trackpoint>
          <Trackpoint>
            <Time>2022-07-06T08:10:21.000Z</Time>
            <Position>
              <LatitudeDegrees>44.1610975563526153564453125</LatitudeDegrees>
              <LongitudeDegrees>-1.141960881650447845458984375</LongitudeDegrees>
            </Position>
            <AltitudeMeters>47</AltitudeMeters>
            <DistanceMeters>NAN</DistanceMeters>
          </Trackpoint>
          <Trackpoint>
            <Time>2022-07-06T08:10:28.000Z</Time>
            <Position>
              <LatitudeDegrees>44.16083361022174358367919921875</LatitudeDegrees>
              <LongitudeDegrees>-1.14198007620871067047119140625</LongitudeDegrees>
            </Position>
            <AltitudeMeters>47</AltitudeMeters>
            <DistanceMeters>NAN</DistanceMeters>
          </Trackpoint>
          <Trackpoint>
            <Time>2022-07-06T08:10:30.000Z</Time>
            <Position>
              <LatitudeDegrees>44.160753227770328521728515625</LatitudeDegrees>
              <LongitudeDegrees>-1.14198208786547183990478515625</LongitudeDegrees>
            </Position>
            <AltitudeMeters>47</AltitudeMeters>
            <DistanceMeters>NAN</DistanceMeters>
          </Trackpoint>
          <Trackpoint>
            <Time>2022-07-06T08:10:37.000Z</Time>
            <Position>
              <LatitudeDegrees>44.16047737933695316314697265625</LatitudeDegrees>
              <LongitudeDegrees>-1.14199273288249969482421875</LongitudeDegrees>
            </Position>
            <AltitudeMeters>46.799999237060546875</AltitudeMeters>
            <DistanceMeters>NAN</DistanceMeters>
          </Trackpoint>
          <Trackpoint>
            <Time>2022-07-06T08:10:40.000Z</Time>
            <Position>
              <LatitudeDegrees>44.16035986505448818206787109375</LatitudeDegrees>
              <LongitudeDegrees>-1.1420123465359210968017578125</LongitudeDegrees>
            </Position>
            <AltitudeMeters>46.799999237060546875</AltitudeMeters>
            <DistanceMeters>NAN</DistanceMeters>
          </Trackpoint>
          <Trackpoint>
            <Time>2022-07-06T08:10:54.000Z</Time>
            <Position>
              <LatitudeDegrees>44.15981587953865528106689453125</LatitudeDegrees>
              <LongitudeDegrees>-1.14203657023608684539794921875</LongitudeDegrees>
            </Position>
            <AltitudeMeters>47</AltitudeMeters>
            <DistanceMeters>NAN</DistanceMeters>
          </Trackpoint>
          <Trackpoint>
            <Time>2022-07-06T08:11:02.000Z</Time>
            <Position>
              <LatitudeDegrees>44.159503988921642303466796875</LatitudeDegrees>
              <LongitudeDegrees>-1.1420623026788234710693359375</LongitudeDegrees>
            </Position>
            <AltitudeMeters>47</AltitudeMeters>
            <DistanceMeters>NAN</DistanceMeters>
          </Trackpoint>
          <Trackpoint>
            <Time>2022-07-06T08:11:05.000Z</Time>
            <Position>
              <LatitudeDegrees>44.15939158760011196136474609375</LatitudeDegrees>
              <LongitudeDegrees>-1.14206607453525066375732421875</LongitudeDegrees>
            </Position>
            <AltitudeMeters>47.200000762939453125</AltitudeMeters>
            <DistanceMeters>NAN</DistanceMeters>
          </Trackpoint>
          <Trackpoint>
            <Time>2022-07-06T08:11:15.000Z</Time>
            <Position>
              <LatitudeDegrees>44.15899529121816158294677734375</LatitudeDegrees>
              <LongitudeDegrees>-1.14208920858800411224365234375</LongitudeDegrees>
            </Position>
            <AltitudeMeters>47</AltitudeMeters>
            <DistanceMeters>NAN</DistanceMeters>
          </Trackpoint>
          <Trackpoint>
            <Time>2022-07-06T08:11:16.000Z</Time>
            <Position>
              <LatitudeDegrees>44.15894801728427410125732421875</LatitudeDegrees>
              <LongitudeDegrees>-1.142090968787670135498046875</LongitudeDegrees>
            </Position>
            <AltitudeMeters>47</AltitudeMeters>
            <DistanceMeters>NAN</DistanceMeters>
          </Trackpoint>
          <Trackpoint>
            <Time>2022-07-06T08:11:22.000Z</Time>
            <Position>
              <LatitudeDegrees>44.15872388519346714019775390625</LatitudeDegrees>
              <LongitudeDegrees>-1.14208661019802093505859375</LongitudeDegrees>
            </Position>
            <AltitudeMeters>47.200000762939453125</AltitudeMeters>
            <DistanceMeters>NAN</DistanceMeters>
          </Trackpoint>
          <Trackpoint>
            <Time>2022-07-06T08:11:24.000Z</Time>
            <Position>
              <LatitudeDegrees>44.158663451671600341796875</LatitudeDegrees>
              <LongitudeDegrees>-1.14207127131521701812744140625</LongitudeDegrees>
            </Position>
            <AltitudeMeters>47.200000762939453125</AltitudeMeters>
            <DistanceMeters>NAN</DistanceMeters>
          </Trackpoint>
          <Trackpoint>
            <Time>2022-07-06T08:11:28.000Z</Time>
            <Position>
              <LatitudeDegrees>44.158600084483623504638671875</LatitudeDegrees>
              <LongitudeDegrees>-1.1420579440891742706298828125</LongitudeDegrees>
            </Position>
            <AltitudeMeters>47</AltitudeMeters>
            <DistanceMeters>NAN</DistanceMeters>
          </Trackpoint>
          <Trackpoint>
            <Time>2022-07-06T08:11:29.000Z</Time>
            <Position>
              <LatitudeDegrees>44.158600084483623504638671875</LatitudeDegrees>
              <LongitudeDegrees>-1.1420579440891742706298828125</LongitudeDegrees>
            </Position>
            <AltitudeMeters>47</AltitudeMeters>
            <DistanceMeters>NAN</DistanceMeters>
          </Trackpoint>
          <Trackpoint>
            <Time>2022-07-06T08:18:05.000Z</Time>
            <Position>
              <LatitudeDegrees>44.1585523076355457305908203125</LatitudeDegrees>
              <LongitudeDegrees>-1.1420911364257335662841796875</LongitudeDegrees>
            </Position>
            <AltitudeMeters>48.59999847412109375</AltitudeMeters>
            <DistanceMeters>NAN</DistanceMeters>
          </Trackpoint>
          <Trackpoint>
            <Time>2022-07-06T08:18:07.000Z</Time>
            <Position>
              <LatitudeDegrees>44.15849916636943817138671875</LatitudeDegrees>
              <LongitudeDegrees>-1.14211988635361194610595703125</LongitudeDegrees>
            </Position>
            <AltitudeMeters>48.59999847412109375</AltitudeMeters>
            <DistanceMeters>NAN</DistanceMeters>
          </Trackpoint>
          <Trackpoint>
            <Time>2022-07-06T08:18:13.000Z</Time>
            <Position>
              <LatitudeDegrees>44.1583149321377277374267578125</LatitudeDegrees>
              <LongitudeDegrees>-1.14214587025344371795654296875</LongitudeDegrees>
            </Position>
            <AltitudeMeters>48.799999237060546875</AltitudeMeters>
            <DistanceMeters>NAN</DistanceMeters>
          </Trackpoint>
          <Trackpoint>
            <Time>2022-07-06T08:18:14.000Z</Time>
            <Position>
              <LatitudeDegrees>44.1582837514579296112060546875</LatitudeDegrees>
              <LongitudeDegrees>-1.14214519970118999481201171875</LongitudeDegrees>
            </Position>
            <AltitudeMeters>48.799999237060546875</AltitudeMeters>
            <DistanceMeters>NAN</DistanceMeters>
          </Trackpoint>
          <Trackpoint>
            <Time>2022-07-06T08:18:15.000Z</Time>
            <Position>
              <LatitudeDegrees>44.15825240314006805419921875</LatitudeDegrees>
              <LongitudeDegrees>-1.14214964210987091064453125</LongitudeDegrees>
            </Position>
            <AltitudeMeters>48.799999237060546875</AltitudeMeters>
            <DistanceMeters>NAN</DistanceMeters>
          </Trackpoint>
          <Trackpoint>
            <Time>2022-07-06T08:18:18.000Z</Time>
            <Position>
              <LatitudeDegrees>44.15814645588397979736328125</LatitudeDegrees>
              <LongitudeDegrees>-1.1421551741659641265869140625</LongitudeDegrees>
            </Position>
            <AltitudeMeters>49</AltitudeMeters>
            <DistanceMeters>NAN</DistanceMeters>
          </Trackpoint>
          <Trackpoint>
            <Time>2022-07-06T08:18:19.000Z</Time>
            <Position>
              <LatitudeDegrees>44.1581117548048496246337890625</LatitudeDegrees>
              <LongitudeDegrees>-1.14215961657464504241943359375</LongitudeDegrees>
            </Position>
            <AltitudeMeters>49</AltitudeMeters>
            <DistanceMeters>NAN</DistanceMeters>
          </Trackpoint>
          <Trackpoint>
            <Time>2022-07-06T08:18:21.000Z</Time>
            <Position>
              <LatitudeDegrees>44.1580460406839847564697265625</LatitudeDegrees>
              <LongitudeDegrees>-1.14216682501137256622314453125</LongitudeDegrees>
            </Position>
            <AltitudeMeters>49</AltitudeMeters>
            <DistanceMeters>NAN</DistanceMeters>
          </Trackpoint>
          <Trackpoint>
            <Time>2022-07-06T08:18:25.000Z</Time>
            <Position>
              <LatitudeDegrees>44.15790832601487636566162109375</LatitudeDegrees>
              <LongitudeDegrees>-1.14216581918299198150634765625</LongitudeDegrees>
            </Position>
            <AltitudeMeters>49</AltitudeMeters>
            <DistanceMeters>NAN</DistanceMeters>
          </Trackpoint>
          <Trackpoint>
            <Time>2022-07-06T08:18:31.000Z</Time>
            <Position>
              <LatitudeDegrees>44.1576859541237354278564453125</LatitudeDegrees>
              <LongitudeDegrees>-1.1421685852110385894775390625</LongitudeDegrees>
            </Position>
            <AltitudeMeters>49.200000762939453125</AltitudeMeters>
            <DistanceMeters>NAN</DistanceMeters>
          </Trackpoint>
          <Trackpoint>
            <Time>2022-07-06T08:18:42.000Z</Time>
            <Position>
              <LatitudeDegrees>44.1572692058980464935302734375</LatitudeDegrees>
              <LongitudeDegrees>-1.14217520691454410552978515625</LongitudeDegrees>
            </Position>
            <AltitudeMeters>49.200000762939453125</AltitudeMeters>
            <DistanceMeters>NAN</DistanceMeters>
          </Trackpoint>
          <Trackpoint>
            <Time>2022-07-06T08:18:44.000Z</Time>
            <Position>
              <LatitudeDegrees>44.15719502605497837066650390625</LatitudeDegrees>
              <LongitudeDegrees>-1.142182163894176483154296875</LongitudeDegrees>
            </Position>
            <AltitudeMeters>49.200000762939453125</AltitudeMeters>
            <DistanceMeters>NAN</DistanceMeters>
          </Trackpoint>
          <Trackpoint>
            <Time>2022-07-06T08:18:46.000Z</Time>
            <Position>
              <LatitudeDegrees>44.1571163199841976165771484375</LatitudeDegrees>
              <LongitudeDegrees>-1.14218358881771564483642578125</LongitudeDegrees>
            </Position>
            <AltitudeMeters>49.200000762939453125</AltitudeMeters>
            <DistanceMeters>NAN</DistanceMeters>
          </Trackpoint>
          <Trackpoint>
            <Time>2022-07-06T08:18:49.000Z</Time>
            <Position>
              <LatitudeDegrees>44.15699989534914493560791015625</LatitudeDegrees>
              <LongitudeDegrees>-1.14219012670218944549560546875</LongitudeDegrees>
            </Position>
            <AltitudeMeters>49.200000762939453125</AltitudeMeters>
            <DistanceMeters>NAN</DistanceMeters>
          </Trackpoint>
          <Trackpoint>
            <Time>2022-07-06T08:18:52.000Z</Time>
            <Position>
              <LatitudeDegrees>44.15689210407435894012451171875</LatitudeDegrees>
              <LongitudeDegrees>-1.14221376366913318634033203125</LongitudeDegrees>
            </Position>
            <AltitudeMeters>49.200000762939453125</AltitudeMeters>
            <DistanceMeters>NAN</DistanceMeters>
          </Trackpoint>
          <Trackpoint>
            <Time>2022-07-06T08:18:53.000Z</Time>
            <Position>
              <LatitudeDegrees>44.1568568162620067596435546875</LatitudeDegrees>
              <LongitudeDegrees>-1.14221862517297267913818359375</LongitudeDegrees>
            </Position>
            <AltitudeMeters>49.200000762939453125</AltitudeMeters>
            <DistanceMeters>NAN</DistanceMeters>
          </Trackpoint>
          <Trackpoint>
            <Time>2022-07-06T08:19:01.000Z</Time>
            <Position>
              <LatitudeDegrees>44.15655783377587795257568359375</LatitudeDegrees>
              <LongitudeDegrees>-1.14225768484175205230712890625</LongitudeDegrees>
            </Position>
            <AltitudeMeters>49</AltitudeMeters>
            <DistanceMeters>NAN</DistanceMeters>
          </Trackpoint>
          <Trackpoint>
            <Time>2022-07-06T08:19:12.000Z</Time>
            <Position>
              <LatitudeDegrees>44.15616857819259166717529296875</LatitudeDegrees>
              <LongitudeDegrees>-1.1422741971909999847412109375</LongitudeDegrees>
            </Position>
            <AltitudeMeters>48.59999847412109375</AltitudeMeters>
            <DistanceMeters>NAN</DistanceMeters>
          </Trackpoint>
          <Trackpoint>
            <Time>2022-07-06T08:19:23.000Z</Time>
            <Position>
              <LatitudeDegrees>44.15575853548943996429443359375</LatitudeDegrees>
              <LongitudeDegrees>-1.14228903315961360931396484375</LongitudeDegrees>
            </Position>
            <AltitudeMeters>48.59999847412109375</AltitudeMeters>
            <DistanceMeters>NAN</DistanceMeters>
          </Trackpoint>
          <Trackpoint>
            <Time>2022-07-06T08:19:26.000Z</Time>
            <Position>
              <LatitudeDegrees>44.15565275587141513824462890625</LatitudeDegrees>
              <LongitudeDegrees>-1.142301522195339202880859375</LongitudeDegrees>
            </Position>
            <AltitudeMeters>48</AltitudeMeters>
            <DistanceMeters>NAN</DistanceMeters>
          </Trackpoint>
          <Trackpoint>
            <Time>2022-07-06T08:19:30.000Z</Time>
            <Position>
              <LatitudeDegrees>44.1555220820009708404541015625</LatitudeDegrees>
              <LongitudeDegrees>-1.14230914972722530364990234375</LongitudeDegrees>
            </Position>
            <AltitudeMeters>48.40000152587890625</AltitudeMeters>
            <DistanceMeters>NAN</DistanceMeters>
          </Trackpoint>
          <Trackpoint>
            <Time>2022-07-06T08:19:38.000Z</Time>
            <Position>
              <LatitudeDegrees>44.155233912169933319091796875</LatitudeDegrees>
              <LongitudeDegrees>-1.14232323132455348968505859375</LongitudeDegrees>
            </Position>
            <AltitudeMeters>48.799999237060546875</AltitudeMeters>
            <DistanceMeters>NAN</DistanceMeters>
          </Trackpoint>
          <Trackpoint>
            <Time>2022-07-06T08:19:39.000Z</Time>
            <Position>
              <LatitudeDegrees>44.1551965288817882537841796875</LatitudeDegrees>
              <LongitudeDegrees>-1.1423254944384098052978515625</LongitudeDegrees>
            </Position>
            <AltitudeMeters>48.799999237060546875</AltitudeMeters>
            <DistanceMeters>NAN</DistanceMeters>
          </Trackpoint>
          <Trackpoint>
            <Time>2022-07-06T08:19:51.000Z</Time>
            <Position>
              <LatitudeDegrees>44.15475019253790378570556640625</LatitudeDegrees>
              <LongitudeDegrees>-1.14234670065343379974365234375</LongitudeDegrees>
            </Position>
            <AltitudeMeters>49</AltitudeMeters>
            <DistanceMeters>NAN</DistanceMeters>
          </Trackpoint>
          <Trackpoint>
            <Time>2022-07-06T08:20:03.000Z</Time>
            <Position>
              <LatitudeDegrees>44.1542986594140529632568359375</LatitudeDegrees>
              <LongitudeDegrees>-1.1423808149993419647216796875</LongitudeDegrees>
            </Position>
            <AltitudeMeters>49</AltitudeMeters>
            <DistanceMeters>NAN</DistanceMeters>
          </Trackpoint>
          <Trackpoint>
            <Time>2022-07-06T08:20:13.000Z</Time>
            <Position>
              <LatitudeDegrees>44.15392340160906314849853515625</LatitudeDegrees>
              <LongitudeDegrees>-1.14240990020334720611572265625</LongitudeDegrees>
            </Position>
            <AltitudeMeters>48.799999237060546875</AltitudeMeters>
            <DistanceMeters>NAN</DistanceMeters>
          </Trackpoint>
          <Trackpoint>
            <Time>2022-07-06T08:20:15.000Z</Time>
            <Position>
              <LatitudeDegrees>44.15384746156632900238037109375</LatitudeDegrees>
              <LongitudeDegrees>-1.14241786301136016845703125</LongitudeDegrees>
            </Position>
            <AltitudeMeters>48.799999237060546875</AltitudeMeters>
            <DistanceMeters>NAN</DistanceMeters>
          </Trackpoint>
          <Trackpoint>
            <Time>2022-07-06T08:20:26.000Z</Time>
            <Position>
              <LatitudeDegrees>44.15342216379940509796142578125</LatitudeDegrees>
              <LongitudeDegrees>-1.14245600067079067230224609375</LongitudeDegrees>
            </Position>
            <AltitudeMeters>49</AltitudeMeters>
            <DistanceMeters>NAN</DistanceMeters>
          </Trackpoint>
          <Trackpoint>
            <Time>2022-07-06T08:20:36.000Z</Time>
            <Position>
              <LatitudeDegrees>44.153054617345333099365234375</LatitudeDegrees>
              <LongitudeDegrees>-1.14246480166912078857421875</LongitudeDegrees>
            </Position>
            <AltitudeMeters>49.200000762939453125</AltitudeMeters>
            <DistanceMeters>NAN</DistanceMeters>
          </Trackpoint>
          <Trackpoint>
            <Time>2022-07-06T08:20:47.000Z</Time>
            <Position>
              <LatitudeDegrees>44.15263996459543704986572265625</LatitudeDegrees>
              <LongitudeDegrees>-1.142480559647083282470703125</LongitudeDegrees>
            </Position>
            <AltitudeMeters>49.200000762939453125</AltitudeMeters>
            <DistanceMeters>NAN</DistanceMeters>
          </Trackpoint>
          <Trackpoint>
            <Time>2022-07-06T08:20:58.000Z</Time>
            <Position>
              <LatitudeDegrees>44.15223176591098308563232421875</LatitudeDegrees>
              <LongitudeDegrees>-1.1424991674721240997314453125</LongitudeDegrees>
            </Position>
            <AltitudeMeters>49.40000152587890625</AltitudeMeters>
            <DistanceMeters>NAN</DistanceMeters>
          </Trackpoint>
          <Trackpoint>
            <Time>2022-07-06T08:21:04.000Z</Time>
            <Position>
              <LatitudeDegrees>44.15200176648795604705810546875</LatitudeDegrees>
              <LongitudeDegrees>-1.1425186134874820709228515625</LongitudeDegrees>
            </Position>
            <AltitudeMeters>49.59999847412109375</AltitudeMeters>
            <DistanceMeters>NAN</DistanceMeters>
          </Trackpoint>
          <Trackpoint>
            <Time>2022-07-06T08:21:10.000Z</Time>
            <Position>
              <LatitudeDegrees>44.15177193470299243927001953125</LatitudeDegrees>
              <LongitudeDegrees>-1.14253629930317401885986328125</LongitudeDegrees>
            </Position>
            <AltitudeMeters>49.799999237060546875</AltitudeMeters>
            <DistanceMeters>NAN</DistanceMeters>
          </Trackpoint>
          <Trackpoint>
            <Time>2022-07-06T08:21:15.000Z</Time>
            <Position>
              <LatitudeDegrees>44.15159557946026325225830078125</LatitudeDegrees>
              <LongitudeDegrees>-1.1425357125699520111083984375</LongitudeDegrees>
            </Position>
            <AltitudeMeters>49.799999237060546875</AltitudeMeters>
            <DistanceMeters>NAN</DistanceMeters>
          </Trackpoint>
          <Trackpoint>
            <Time>2022-07-06T08:21:19.000Z</Time>
            <Position>
              <LatitudeDegrees>44.15143330581486225128173828125</LatitudeDegrees>
              <LongitudeDegrees>-1.1425430886447429656982421875</LongitudeDegrees>
            </Position>
            <AltitudeMeters>49.59999847412109375</AltitudeMeters>
            <DistanceMeters>NAN</DistanceMeters>
          </Trackpoint>
          <Trackpoint>
            <Time>2022-07-06T08:21:23.000Z</Time>
            <Position>
              <LatitudeDegrees>44.15128092281520366668701171875</LatitudeDegrees>
              <LongitudeDegrees>-1.14255809225142002105712890625</LongitudeDegrees>
            </Position>
            <AltitudeMeters>49.59999847412109375</AltitudeMeters>
            <DistanceMeters>NAN</DistanceMeters>
          </Trackpoint>
          <Trackpoint>
            <Time>2022-07-06T08:21:24.000Z</Time>
            <Position>
              <LatitudeDegrees>44.15123532526195049285888671875</LatitudeDegrees>
              <LongitudeDegrees>-1.14255792461335659027099609375</LongitudeDegrees>
            </Position>
            <AltitudeMeters>49.59999847412109375</AltitudeMeters>
            <DistanceMeters>NAN</DistanceMeters>
          </Trackpoint>
          <Trackpoint>
            <Time>2022-07-06T08:21:27.000Z</Time>
            <Position>
              <LatitudeDegrees>44.1511232592165470123291015625</LatitudeDegrees>
              <LongitudeDegrees>-1.14256672561168670654296875</LongitudeDegrees>
            </Position>
            <AltitudeMeters>49.799999237060546875</AltitudeMeters>
            <DistanceMeters>NAN</DistanceMeters>
          </Trackpoint>
          <Trackpoint>
            <Time>2022-07-06T08:21:35.000Z</Time>
            <Position>
              <LatitudeDegrees>44.150837771594524383544921875</LatitudeDegrees>
              <LongitudeDegrees>-1.14258223213255405426025390625</LongitudeDegrees>
            </Position>
            <AltitudeMeters>50</AltitudeMeters>
            <DistanceMeters>NAN</DistanceMeters>
          </Trackpoint>
          <Trackpoint>
            <Time>2022-07-06T08:21:45.000Z</Time>
            <Position>
              <LatitudeDegrees>44.1504491865634918212890625</LatitudeDegrees>
              <LongitudeDegrees>-1.14261844195425510406494140625</LongitudeDegrees>
            </Position>
            <AltitudeMeters>50</AltitudeMeters>
            <DistanceMeters>NAN</DistanceMeters>
          </Trackpoint>
          <Trackpoint>
            <Time>2022-07-06T08:21:56.000Z</Time>
            <Position>
              <LatitudeDegrees>44.15003688074648380279541015625</LatitudeDegrees>
              <LongitudeDegrees>-1.14264124073088169097900390625</LongitudeDegrees>
            </Position>
            <AltitudeMeters>50.799999237060546875</AltitudeMeters>
            <DistanceMeters>NAN</DistanceMeters>
          </Trackpoint>
          <Trackpoint>
            <Time>2022-07-06T08:22:05.000Z</Time>
            <Position>
              <LatitudeDegrees>44.1496954858303070068359375</LatitudeDegrees>
              <LongitudeDegrees>-1.14267543889582157135009765625</LongitudeDegrees>
            </Position>
            <AltitudeMeters>50.799999237060546875</AltitudeMeters>
            <DistanceMeters>NAN</DistanceMeters>
          </Trackpoint>
          <Trackpoint>
            <Time>2022-07-06T08:22:09.000Z</Time>
            <Position>
              <LatitudeDegrees>44.14954972453415393829345703125</LatitudeDegrees>
              <LongitudeDegrees>-1.142689101397991180419921875</LongitudeDegrees>
            </Position>
            <AltitudeMeters>50.799999237060546875</AltitudeMeters>
            <DistanceMeters>NAN</DistanceMeters>
          </Trackpoint>
          <Trackpoint>
            <Time>2022-07-06T08:22:14.000Z</Time>
            <Position>
              <LatitudeDegrees>44.14936917833983898162841796875</LatitudeDegrees>
              <LongitudeDegrees>-1.1427043564617633819580078125</LongitudeDegrees>
            </Position>
            <AltitudeMeters>50.799999237060546875</AltitudeMeters>
            <DistanceMeters>NAN</DistanceMeters>
          </Trackpoint>
          <Trackpoint>
            <Time>2022-07-06T08:22:25.000Z</Time>
            <Position>
              <LatitudeDegrees>44.14895695634186267852783203125</LatitudeDegrees>
              <LongitudeDegrees>-1.14273168146610260009765625</LongitudeDegrees>
            </Position>
            <AltitudeMeters>50.799999237060546875</AltitudeMeters>
            <DistanceMeters>NAN</DistanceMeters>
          </Trackpoint>
          <Trackpoint>
            <Time>2022-07-06T08:22:38.000Z</Time>
            <Position>
              <LatitudeDegrees>44.14846912957727909088134765625</LatitudeDegrees>
              <LongitudeDegrees>-1.1427606828510761260986328125</LongitudeDegrees>
            </Position>
            <AltitudeMeters>50.799999237060546875</AltitudeMeters>
            <DistanceMeters>NAN</DistanceMeters>
          </Trackpoint>
          <Trackpoint>
            <Time>2022-07-06T08:22:53.000Z</Time>
            <Position>
              <LatitudeDegrees>44.1479025967419147491455078125</LatitudeDegrees>
              <LongitudeDegrees>-1.1428025923669338226318359375</LongitudeDegrees>
            </Position>
            <AltitudeMeters>50.40000152587890625</AltitudeMeters>
            <DistanceMeters>NAN</DistanceMeters>
          </Trackpoint>
          <Trackpoint>
            <Time>2022-07-06T08:22:55.000Z</Time>
            <Position>
              <LatitudeDegrees>44.14783059619367122650146484375</LatitudeDegrees>
              <LongitudeDegrees>-1.14280787296593189239501953125</LongitudeDegrees>
            </Position>
            <AltitudeMeters>50.200000762939453125</AltitudeMeters>
            <DistanceMeters>NAN</DistanceMeters>
          </Trackpoint>
          <Trackpoint>
            <Time>2022-07-06T08:22:57.000Z</Time>
            <Position>
              <LatitudeDegrees>44.147755913436412811279296875</LatitudeDegrees>
              <LongitudeDegrees>-1.14280854351818561553955078125</LongitudeDegrees>
            </Position>
            <AltitudeMeters>50.200000762939453125</AltitudeMeters>
            <DistanceMeters>NAN</DistanceMeters>
          </Trackpoint>
          <Trackpoint>
            <Time>2022-07-06T08:22:59.000Z</Time>
            <Position>
              <LatitudeDegrees>44.1476816497743129730224609375</LatitudeDegrees>
              <LongitudeDegrees>-1.14280921407043933868408203125</LongitudeDegrees>
            </Position>
            <AltitudeMeters>50.40000152587890625</AltitudeMeters>
            <DistanceMeters>NAN</DistanceMeters>
          </Trackpoint>
          <Trackpoint>
            <Time>2022-07-06T08:23:02.000Z</Time>
            <Position>
              <LatitudeDegrees>44.1475649736821651458740234375</LatitudeDegrees>
              <LongitudeDegrees>-1.1428128182888031005859375</LongitudeDegrees>
            </Position>
            <AltitudeMeters>50.59999847412109375</AltitudeMeters>
            <DistanceMeters>NAN</DistanceMeters>
          </Trackpoint>
          <Trackpoint>
            <Time>2022-07-06T08:23:13.000Z</Time>
            <Position>
              <LatitudeDegrees>44.14716146886348724365234375</LatitudeDegrees>
              <LongitudeDegrees>-1.14283318631350994110107421875</LongitudeDegrees>
            </Position>
            <AltitudeMeters>50.799999237060546875</AltitudeMeters>
            <DistanceMeters>NAN</DistanceMeters>
          </Trackpoint>
          <Trackpoint>
            <Time>2022-07-06T08:23:14.000Z</Time>
            <Position>
              <LatitudeDegrees>44.14712584577500820159912109375</LatitudeDegrees>
              <LongitudeDegrees>-1.14283285103738307952880859375</LongitudeDegrees>
            </Position>
            <AltitudeMeters>51</AltitudeMeters>
            <DistanceMeters>NAN</DistanceMeters>
          </Trackpoint>
          <Trackpoint>
            <Time>2022-07-06T08:23:26.000Z</Time>
            <Position>
              <LatitudeDegrees>44.1466899029910564422607421875</LatitudeDegrees>
              <LongitudeDegrees>-1.14285615272819995880126953125</LongitudeDegrees>
            </Position>
            <AltitudeMeters>51.40000152587890625</AltitudeMeters>
            <DistanceMeters>NAN</DistanceMeters>
          </Trackpoint>
          <Trackpoint>
            <Time>2022-07-06T08:23:39.000Z</Time>
            <Position>
              <LatitudeDegrees>44.1462111286818981170654296875</LatitudeDegrees>
              <LongitudeDegrees>-1.14288934506475925445556640625</LongitudeDegrees>
            </Position>
            <AltitudeMeters>51.200000762939453125</AltitudeMeters>
            <DistanceMeters>NAN</DistanceMeters>
          </Trackpoint>
          <Trackpoint>
            <Time>2022-07-06T08:23:43.000Z</Time>
            <Position>
              <LatitudeDegrees>44.14606570266187191009521484375</LatitudeDegrees>
              <LongitudeDegrees>-1.14289437420666217803955078125</LongitudeDegrees>
            </Position>
            <AltitudeMeters>51.200000762939453125</AltitudeMeters>
            <DistanceMeters>NAN</DistanceMeters>
          </Trackpoint>
          <Trackpoint>
            <Time>2022-07-06T08:23:46.000Z</Time>
            <Position>
              <LatitudeDegrees>44.14595170877873897552490234375</LatitudeDegrees>
              <LongitudeDegrees>-1.1429045163094997406005859375</LongitudeDegrees>
            </Position>
            <AltitudeMeters>51.200000762939453125</AltitudeMeters>
            <DistanceMeters>NAN</DistanceMeters>
          </Trackpoint>
          <Trackpoint>
            <Time>2022-07-06T08:23:48.000Z</Time>
            <Position>
              <LatitudeDegrees>44.145877696573734283447265625</LatitudeDegrees>
              <LongitudeDegrees>-1.1429088748991489410400390625</LongitudeDegrees>
            </Position>
            <AltitudeMeters>51.200000762939453125</AltitudeMeters>
            <DistanceMeters>NAN</DistanceMeters>
          </Trackpoint>
          <Trackpoint>
            <Time>2022-07-06T08:23:59.000Z</Time>
            <Position>
              <LatitudeDegrees>44.145447202026844024658203125</LatitudeDegrees>
              <LongitudeDegrees>-1.14294231869280338287353515625</LongitudeDegrees>
            </Position>
            <AltitudeMeters>51</AltitudeMeters>
            <DistanceMeters>NAN</DistanceMeters>
          </Trackpoint>
          <Trackpoint>
            <Time>2022-07-06T08:24:02.000Z</Time>
            <Position>
              <LatitudeDegrees>44.14532775990664958953857421875</LatitudeDegrees>
              <LongitudeDegrees>-1.14295086823403835296630859375</LongitudeDegrees>
            </Position>
            <AltitudeMeters>51.200000762939453125</AltitudeMeters>
            <DistanceMeters>NAN</DistanceMeters>
          </Trackpoint>
          <Trackpoint>
            <Time>2022-07-06T08:24:15.000Z</Time>
            <Position>
              <LatitudeDegrees>44.14481797255575656890869140625</LatitudeDegrees>
              <LongitudeDegrees>-1.14297651685774326324462890625</LongitudeDegrees>
            </Position>
            <AltitudeMeters>51.200000762939453125</AltitudeMeters>
            <DistanceMeters>NAN</DistanceMeters>
          </Trackpoint>
          <Trackpoint>
            <Time>2022-07-06T08:24:23.000Z</Time>
            <Position>
              <LatitudeDegrees>44.14449258707463741302490234375</LatitudeDegrees>
              <LongitudeDegrees>-1.14299495704472064971923828125</LongitudeDegrees>
            </Position>
            <AltitudeMeters>51.59999847412109375</AltitudeMeters>
            <DistanceMeters>NAN</DistanceMeters>
          </Trackpoint>
          <Trackpoint>
            <Time>2022-07-06T08:24:26.000Z</Time>
            <Position>
              <LatitudeDegrees>44.144371636211872100830078125</LatitudeDegrees>
              <LongitudeDegrees>-1.14299713633954524993896484375</LongitudeDegrees>
            </Position>
            <AltitudeMeters>51.799999237060546875</AltitudeMeters>
            <DistanceMeters>NAN</DistanceMeters>
          </Trackpoint>
          <Trackpoint>
            <Time>2022-07-06T08:24:27.000Z</Time>
            <Position>
              <LatitudeDegrees>44.1443310678005218505859375</LatitudeDegrees>
              <LongitudeDegrees>-1.14299864508211612701416015625</LongitudeDegrees>
            </Position>
            <AltitudeMeters>51.799999237060546875</AltitudeMeters>
            <DistanceMeters>NAN</DistanceMeters>
          </Trackpoint>
          <Trackpoint>
            <Time>2022-07-06T08:24:30.000Z</Time>
            <Position>
              <LatitudeDegrees>44.1442118771374225616455078125</LatitudeDegrees>
              <LongitudeDegrees>-1.14300618879497051239013671875</LongitudeDegrees>
            </Position>
            <AltitudeMeters>52</AltitudeMeters>
            <DistanceMeters>NAN</DistanceMeters>
          </Trackpoint>
          <Trackpoint>
            <Time>2022-07-06T08:24:37.000Z</Time>
            <Position>
              <LatitudeDegrees>44.14393854327499866485595703125</LatitudeDegrees>
              <LongitudeDegrees>-1.1430356092751026153564453125</LongitudeDegrees>
            </Position>
            <AltitudeMeters>52.200000762939453125</AltitudeMeters>
            <DistanceMeters>NAN</DistanceMeters>
          </Trackpoint>
          <Trackpoint>
            <Time>2022-07-06T08:24:43.000Z</Time>
            <Position>
              <LatitudeDegrees>44.14370150305330753326416015625</LatitudeDegrees>
              <LongitudeDegrees>-1.1430510319769382476806640625</LongitudeDegrees>
            </Position>
            <AltitudeMeters>52.200000762939453125</AltitudeMeters>
            <DistanceMeters>NAN</DistanceMeters>
          </Trackpoint>
          <Trackpoint>
            <Time>2022-07-06T08:24:48.000Z</Time>
            <Position>
              <LatitudeDegrees>44.143503941595554351806640625</LatitudeDegrees>
              <LongitudeDegrees>-1.143051870167255401611328125</LongitudeDegrees>
            </Position>
            <AltitudeMeters>52.40000152587890625</AltitudeMeters>
            <DistanceMeters>NAN</DistanceMeters>
          </Trackpoint>
          <Trackpoint>
            <Time>2022-07-06T08:24:59.000Z</Time>
            <Position>
              <LatitudeDegrees>44.14305341430008411407470703125</LatitudeDegrees>
              <LongitudeDegrees>-1.14307341165840625762939453125</LongitudeDegrees>
            </Position>
            <AltitudeMeters>51.799999237060546875</AltitudeMeters>
            <DistanceMeters>NAN</DistanceMeters>
          </Trackpoint>
          <Trackpoint>
            <Time>2022-07-06T08:25:07.000Z</Time>
            <Position>
              <LatitudeDegrees>44.1427155397832393646240234375</LatitudeDegrees>
              <LongitudeDegrees>-1.14310643635690212249755859375</LongitudeDegrees>
            </Position>
            <AltitudeMeters>51.799999237060546875</AltitudeMeters>
            <DistanceMeters>NAN</DistanceMeters>
          </Trackpoint>
          <Trackpoint>
            <Time>2022-07-06T08:25:12.000Z</Time>
            <Position>
              <LatitudeDegrees>44.142500460147857666015625</LatitudeDegrees>
              <LongitudeDegrees>-1.1431170813739299774169921875</LongitudeDegrees>
            </Position>
            <AltitudeMeters>51.799999237060546875</AltitudeMeters>
            <DistanceMeters>NAN</DistanceMeters>
          </Trackpoint>
          <Trackpoint>
            <Time>2022-07-06T08:25:17.000Z</Time>
            <Position>
              <LatitudeDegrees>44.1422917507588863372802734375</LatitudeDegrees>
              <LongitudeDegrees>-1.143122613430023193359375</LongitudeDegrees>
            </Position>
            <AltitudeMeters>51.799999237060546875</AltitudeMeters>
            <DistanceMeters>NAN</DistanceMeters>
          </Trackpoint>
          <Trackpoint>
            <Time>2022-07-06T08:25:19.000Z</Time>
            <Position>
              <LatitudeDegrees>44.142210781574249267578125</LatitudeDegrees>
              <LongitudeDegrees>-1.143130324780941009521484375</LongitudeDegrees>
            </Position>
            <AltitudeMeters>51.799999237060546875</AltitudeMeters>
            <DistanceMeters>NAN</DistanceMeters>
          </Trackpoint>
          <Trackpoint>
            <Time>2022-07-06T08:25:29.000Z</Time>
            <Position>
              <LatitudeDegrees>44.1418032534420490264892578125</LatitudeDegrees>
              <LongitudeDegrees>-1.14316351711750030517578125</LongitudeDegrees>
            </Position>
            <AltitudeMeters>52.59999847412109375</AltitudeMeters>
            <DistanceMeters>NAN</DistanceMeters>
          </Trackpoint>
          <Trackpoint>
            <Time>2022-07-06T08:25:38.000Z</Time>
            <Position>
              <LatitudeDegrees>44.14141978137195110321044921875</LatitudeDegrees>
              <LongitudeDegrees>-1.1431821249425411224365234375</LongitudeDegrees>
            </Position>
            <AltitudeMeters>53</AltitudeMeters>
            <DistanceMeters>NAN</DistanceMeters>
          </Trackpoint>
          <Trackpoint>
            <Time>2022-07-06T08:25:40.000Z</Time>
            <Position>
              <LatitudeDegrees>44.14133948273956775665283203125</LatitudeDegrees>
              <LongitudeDegrees>-1.1431915126740932464599609375</LongitudeDegrees>
            </Position>
            <AltitudeMeters>53.200000762939453125</AltitudeMeters>
            <DistanceMeters>NAN</DistanceMeters>
          </Trackpoint>
          <Trackpoint>
            <Time>2022-07-06T08:25:50.000Z</Time>
            <Position>
              <LatitudeDegrees>44.14094285108149051666259765625</LatitudeDegrees>
              <LongitudeDegrees>-1.14323199726641178131103515625</LongitudeDegrees>
            </Position>
            <AltitudeMeters>52.40000152587890625</AltitudeMeters>
            <DistanceMeters>NAN</DistanceMeters>
          </Trackpoint>
          <Trackpoint>
            <Time>2022-07-06T08:25:55.000Z</Time>
            <Position>
              <LatitudeDegrees>44.14073196239769458770751953125</LatitudeDegrees>
              <LongitudeDegrees>-1.143243312835693359375</LongitudeDegrees>
            </Position>
            <AltitudeMeters>52.59999847412109375</AltitudeMeters>
            <DistanceMeters>NAN</DistanceMeters>
          </Trackpoint>
          <Trackpoint>
            <Time>2022-07-06T08:26:01.000Z</Time>
            <Position>
              <LatitudeDegrees>44.14048545062541961669921875</LatitudeDegrees>
              <LongitudeDegrees>-1.14326099865138530731201171875</LongitudeDegrees>
            </Position>
            <AltitudeMeters>52.799999237060546875</AltitudeMeters>
            <DistanceMeters>NAN</DistanceMeters>
          </Trackpoint>
          <Trackpoint>
            <Time>2022-07-06T08:26:12.000Z</Time>
            <Position>
              <LatitudeDegrees>44.140017740428447723388671875</LatitudeDegrees>
              <LongitudeDegrees>-1.14328698255121707916259765625</LongitudeDegrees>
            </Position>
            <AltitudeMeters>52.799999237060546875</AltitudeMeters>
            <DistanceMeters>NAN</DistanceMeters>
          </Trackpoint>
          <Trackpoint>
            <Time>2022-07-06T08:26:23.000Z</Time>
            <Position>
              <LatitudeDegrees>44.13953737355768680572509765625</LatitudeDegrees>
              <LongitudeDegrees>-1.14331908524036407470703125</LongitudeDegrees>
            </Position>
            <AltitudeMeters>52.59999847412109375</AltitudeMeters>
            <DistanceMeters>NAN</DistanceMeters>
          </Trackpoint>
          <Trackpoint>
            <Time>2022-07-06T08:26:36.000Z</Time>
            <Position>
              <LatitudeDegrees>44.1389787197113037109375</LatitudeDegrees>
              <LongitudeDegrees>-1.14334515295922756195068359375</LongitudeDegrees>
            </Position>
            <AltitudeMeters>52.200000762939453125</AltitudeMeters>
            <DistanceMeters>NAN</DistanceMeters>
          </Trackpoint>
          <Trackpoint>
            <Time>2022-07-06T08:26:37.000Z</Time>
            <Position>
              <LatitudeDegrees>44.138935469090938568115234375</LatitudeDegrees>
              <LongitudeDegrees>-1.14334867335855960845947265625</LongitudeDegrees>
            </Position>
            <AltitudeMeters>52.200000762939453125</AltitudeMeters>
            <DistanceMeters>NAN</DistanceMeters>
          </Trackpoint>
          <Trackpoint>
            <Time>2022-07-06T08:26:48.000Z</Time>
            <Position>
              <LatitudeDegrees>44.13845141418278217315673828125</LatitudeDegrees>
              <LongitudeDegrees>-1.14338002167642116546630859375</LongitudeDegrees>
            </Position>
            <AltitudeMeters>53</AltitudeMeters>
            <DistanceMeters>NAN</DistanceMeters>
          </Trackpoint>
          <Trackpoint>
            <Time>2022-07-06T08:26:54.000Z</Time>
            <Position>
              <LatitudeDegrees>44.13818503729999065399169921875</LatitudeDegrees>
              <LongitudeDegrees>-1.1434020660817623138427734375</LongitudeDegrees>
            </Position>
            <AltitudeMeters>53</AltitudeMeters>
            <DistanceMeters>NAN</DistanceMeters>
          </Trackpoint>
          <Trackpoint>
            <Time>2022-07-06T08:26:59.000Z</Time>
            <Position>
              <LatitudeDegrees>44.13797968067228794097900390625</LatitudeDegrees>
              <LongitudeDegrees>-1.14341271109879016876220703125</LongitudeDegrees>
            </Position>
            <AltitudeMeters>53</AltitudeMeters>
            <DistanceMeters>NAN</DistanceMeters>
          </Trackpoint>
          <Trackpoint>
            <Time>2022-07-06T08:27:09.000Z</Time>
            <Position>
              <LatitudeDegrees>44.1375727392733097076416015625</LatitudeDegrees>
              <LongitudeDegrees>-1.14345512352883815765380859375</LongitudeDegrees>
            </Position>
            <AltitudeMeters>53.40000152587890625</AltitudeMeters>
            <DistanceMeters>NAN</DistanceMeters>
          </Trackpoint>
          <Trackpoint>
            <Time>2022-07-06T08:27:19.000Z</Time>
            <Position>
              <LatitudeDegrees>44.137169234454631805419921875</LatitudeDegrees>
              <LongitudeDegrees>-1.14346501417458057403564453125</LongitudeDegrees>
            </Position>
            <AltitudeMeters>53.200000762939453125</AltitudeMeters>
            <DistanceMeters>NAN</DistanceMeters>
          </Trackpoint>
          <Trackpoint>
            <Time>2022-07-06T08:27:28.000Z</Time>
            <Position>
              <LatitudeDegrees>44.13679330609738826751708984375</LatitudeDegrees>
              <LongitudeDegrees>-1.14348680712282657623291015625</LongitudeDegrees>
            </Position>
            <AltitudeMeters>53.200000762939453125</AltitudeMeters>
            <DistanceMeters>NAN</DistanceMeters>
          </Trackpoint>
          <Trackpoint>
            <Time>2022-07-06T08:27:29.000Z</Time>
            <Position>
              <LatitudeDegrees>44.13675240240991115570068359375</LatitudeDegrees>
              <LongitudeDegrees>-1.143493764102458953857421875</LongitudeDegrees>
            </Position>
            <AltitudeMeters>53.40000152587890625</AltitudeMeters>
            <DistanceMeters>NAN</DistanceMeters>
          </Trackpoint>
          <Trackpoint>
            <Time>2022-07-06T08:27:34.000Z</Time>
            <Position>
              <LatitudeDegrees>44.13653698749840259552001953125</LatitudeDegrees>
              <LongitudeDegrees>-1.1435063369572162628173828125</LongitudeDegrees>
            </Position>
            <AltitudeMeters>53.59999847412109375</AltitudeMeters>
            <DistanceMeters>NAN</DistanceMeters>
          </Trackpoint>
          <Trackpoint>
            <Time>2022-07-06T08:27:38.000Z</Time>
            <Position>
              <LatitudeDegrees>44.13637001998722553253173828125</LatitudeDegrees>
              <LongitudeDegrees>-1.14352033473551273345947265625</LongitudeDegrees>
            </Position>
            <AltitudeMeters>53.59999847412109375</AltitudeMeters>
            <DistanceMeters>NAN</DistanceMeters>
          </Trackpoint>
          <Trackpoint>
            <Time>2022-07-06T08:27:39.000Z</Time>
            <Position>
              <LatitudeDegrees>44.13632693700492382049560546875</LatitudeDegrees>
              <LongitudeDegrees>-1.14352234639227390289306640625</LongitudeDegrees>
            </Position>
            <AltitudeMeters>53.59999847412109375</AltitudeMeters>
            <DistanceMeters>NAN</DistanceMeters>
          </Trackpoint>
          <Trackpoint>
            <Time>2022-07-06T08:27:46.000Z</Time>
            <Position>
              <LatitudeDegrees>44.136032648384571075439453125</LatitudeDegrees>
              <LongitudeDegrees>-1.14354950375854969024658203125</LongitudeDegrees>
            </Position>
            <AltitudeMeters>53.59999847412109375</AltitudeMeters>
            <DistanceMeters>NAN</DistanceMeters>
          </Trackpoint>
          <Trackpoint>
            <Time>2022-07-06T08:27:48.000Z</Time>
            <Position>
              <LatitudeDegrees>44.135940112173557281494140625</LatitudeDegrees>
              <LongitudeDegrees>-1.1435519345104694366455078125</LongitudeDegrees>
            </Position>
            <AltitudeMeters>53.59999847412109375</AltitudeMeters>
            <DistanceMeters>NAN</DistanceMeters>
          </Trackpoint>
          <Trackpoint>
            <Time>2022-07-06T08:27:58.000Z</Time>
            <Position>
              <LatitudeDegrees>44.1355312429368495941162109375</LatitudeDegrees>
              <LongitudeDegrees>-1.14357464946806430816650390625</LongitudeDegrees>
            </Position>
            <AltitudeMeters>53.799999237060546875</AltitudeMeters>
            <DistanceMeters>NAN</DistanceMeters>
          </Trackpoint>
          <Trackpoint>
            <Time>2022-07-06T08:28:04.000Z</Time>
            <Position>
              <LatitudeDegrees>44.13527064956724643707275390625</LatitudeDegrees>
              <LongitudeDegrees>-1.14360608160495758056640625</LongitudeDegrees>
            </Position>
            <AltitudeMeters>53.59999847412109375</AltitudeMeters>
            <DistanceMeters>NAN</DistanceMeters>
          </Trackpoint>
          <Trackpoint>
            <Time>2022-07-06T08:28:08.000Z</Time>
            <Position>
              <LatitudeDegrees>44.1351044364273548126220703125</LatitudeDegrees>
              <LongitudeDegrees>-1.14361572079360485076904296875</LongitudeDegrees>
            </Position>
            <AltitudeMeters>53.59999847412109375</AltitudeMeters>
            <DistanceMeters>NAN</DistanceMeters>
          </Trackpoint>
          <Trackpoint>
            <Time>2022-07-06T08:28:17.000Z</Time>
            <Position>
              <LatitudeDegrees>44.13472314365208148956298828125</LatitudeDegrees>
              <LongitudeDegrees>-1.1436267010867595672607421875</LongitudeDegrees>
            </Position>
            <AltitudeMeters>53.799999237060546875</AltitudeMeters>
            <DistanceMeters>NAN</DistanceMeters>
          </Trackpoint>
          <Trackpoint>
            <Time>2022-07-06T08:28:26.000Z</Time>
            <Position>
              <LatitudeDegrees>44.1343601234257221221923828125</LatitudeDegrees>
              <LongitudeDegrees>-1.1437396891415119171142578125</LongitudeDegrees>
            </Position>
            <AltitudeMeters>53.59999847412109375</AltitudeMeters>
            <DistanceMeters>NAN</DistanceMeters>
          </Trackpoint>
          <Trackpoint>
            <Time>2022-07-06T08:28:36.000Z</Time>
            <Position>
              <LatitudeDegrees>44.133977405726909637451171875</LatitudeDegrees>
              <LongitudeDegrees>-1.14395921118557453155517578125</LongitudeDegrees>
            </Position>
            <AltitudeMeters>53.40000152587890625</AltitudeMeters>
            <DistanceMeters>NAN</DistanceMeters>
          </Trackpoint>
          <Trackpoint>
            <Time>2022-07-06T08:28:47.000Z</Time>
            <Position>
              <LatitudeDegrees>44.13358588702976703643798828125</LatitudeDegrees>
              <LongitudeDegrees>-1.14422508515417575836181640625</LongitudeDegrees>
            </Position>
            <AltitudeMeters>53.200000762939453125</AltitudeMeters>
            <DistanceMeters>NAN</DistanceMeters>
          </Trackpoint>
          <Trackpoint>
            <Time>2022-07-06T08:28:58.000Z</Time>
            <Position>
              <LatitudeDegrees>44.133169390261173248291015625</LatitudeDegrees>
              <LongitudeDegrees>-1.14451711066067218780517578125</LongitudeDegrees>
            </Position>
            <AltitudeMeters>53.200000762939453125</AltitudeMeters>
            <DistanceMeters>NAN</DistanceMeters>
          </Trackpoint>
          <Trackpoint>
            <Time>2022-07-06T08:29:04.000Z</Time>
            <Position>
              <LatitudeDegrees>44.13295389153063297271728515625</LatitudeDegrees>
              <LongitudeDegrees>-1.14471911452710628509521484375</LongitudeDegrees>
            </Position>
            <AltitudeMeters>53.200000762939453125</AltitudeMeters>
            <DistanceMeters>NAN</DistanceMeters>
          </Trackpoint>
          <Trackpoint>
            <Time>2022-07-06T08:29:09.000Z</Time>
            <Position>
              <LatitudeDegrees>44.13278122432529926300048828125</LatitudeDegrees>
              <LongitudeDegrees>-1.14490988664329051971435546875</LongitudeDegrees>
            </Position>
            <AltitudeMeters>53.40000152587890625</AltitudeMeters>
            <DistanceMeters>NAN</DistanceMeters>
          </Trackpoint>
          <Trackpoint>
            <Time>2022-07-06T08:29:22.000Z</Time>
            <Position>
              <LatitudeDegrees>44.13234234787523746490478515625</LatitudeDegrees>
              <LongitudeDegrees>-1.14538975059986114501953125</LongitudeDegrees>
            </Position>
            <AltitudeMeters>53</AltitudeMeters>
            <DistanceMeters>NAN</DistanceMeters>
          </Trackpoint>
          <Trackpoint>
            <Time>2022-07-06T08:29:23.000Z</Time>
            <Position>
              <LatitudeDegrees>44.13231007754802703857421875</LatitudeDegrees>
              <LongitudeDegrees>-1.14542872644960880279541015625</LongitudeDegrees>
            </Position>
            <AltitudeMeters>53</AltitudeMeters>
            <DistanceMeters>NAN</DistanceMeters>
          </Trackpoint>
          <Trackpoint>
            <Time>2022-07-06T08:29:33.000Z</Time>
            <Position>
              <LatitudeDegrees>44.1320084966719150543212890625</LatitudeDegrees>
              <LongitudeDegrees>-1.1458391882479190826416015625</LongitudeDegrees>
            </Position>
            <AltitudeMeters>52.799999237060546875</AltitudeMeters>
            <DistanceMeters>NAN</DistanceMeters>
          </Trackpoint>
          <Trackpoint>
            <Time>2022-07-06T08:29:45.000Z</Time>
            <Position>
              <LatitudeDegrees>44.1316507570445537567138671875</LatitudeDegrees>
              <LongitudeDegrees>-1.1463578604161739349365234375</LongitudeDegrees>
            </Position>
            <AltitudeMeters>52.59999847412109375</AltitudeMeters>
            <DistanceMeters>NAN</DistanceMeters>
          </Trackpoint>
          <Trackpoint>
            <Time>2022-07-06T08:29:57.000Z</Time>
            <Position>
              <LatitudeDegrees>44.13129293359816074371337890625</LatitudeDegrees>
              <LongitudeDegrees>-1.14690377376973628997802734375</LongitudeDegrees>
            </Position>
            <AltitudeMeters>52.200000762939453125</AltitudeMeters>
            <DistanceMeters>NAN</DistanceMeters>
          </Trackpoint>
          <Trackpoint>
            <Time>2022-07-06T08:30:03.000Z</Time>
            <Position>
              <LatitudeDegrees>44.13112496025860309600830078125</LatitudeDegrees>
              <LongitudeDegrees>-1.14716629497706890106201171875</LongitudeDegrees>
            </Position>
            <AltitudeMeters>52</AltitudeMeters>
            <DistanceMeters>NAN</DistanceMeters>
          </Trackpoint>
          <Trackpoint>
            <Time>2022-07-06T08:30:06.000Z</Time>
            <Position>
              <LatitudeDegrees>44.13104164414107799530029296875</LatitudeDegrees>
              <LongitudeDegrees>-1.14729948341846466064453125</LongitudeDegrees>
            </Position>
            <AltitudeMeters>52.200000762939453125</AltitudeMeters>
            <DistanceMeters>NAN</DistanceMeters>
          </Trackpoint>
          <Trackpoint>
            <Time>2022-07-06T08:30:10.000Z</Time>
            <Position>
              <LatitudeDegrees>44.13092337548732757568359375</LatitudeDegrees>
              <LongitudeDegrees>-1.147466115653514862060546875</LongitudeDegrees>
            </Position>
            <AltitudeMeters>52.200000762939453125</AltitudeMeters>
            <DistanceMeters>NAN</DistanceMeters>
          </Trackpoint>
          <Trackpoint>
            <Time>2022-07-06T08:30:12.000Z</Time>
            <Position>
              <LatitudeDegrees>44.13085355423390865325927734375</LatitudeDegrees>
              <LongitudeDegrees>-1.14756661467254161834716796875</LongitudeDegrees>
            </Position>
            <AltitudeMeters>52.200000762939453125</AltitudeMeters>
            <DistanceMeters>NAN</DistanceMeters>
          </Trackpoint>
          <Trackpoint>
            <Time>2022-07-06T08:30:15.000Z</Time>
            <Position>
              <LatitudeDegrees>44.13077090866863727569580078125</LatitudeDegrees>
              <LongitudeDegrees>-1.147707514464855194091796875</LongitudeDegrees>
            </Position>
            <AltitudeMeters>52.200000762939453125</AltitudeMeters>
            <DistanceMeters>NAN</DistanceMeters>
          </Trackpoint>
          <Trackpoint>
            <Time>2022-07-06T08:30:23.000Z</Time>
            <Position>
              <LatitudeDegrees>44.1305084712803363800048828125</LatitudeDegrees>
              <LongitudeDegrees>-1.14807522855699062347412109375</LongitudeDegrees>
            </Position>
            <AltitudeMeters>52.200000762939453125</AltitudeMeters>
            <DistanceMeters>NAN</DistanceMeters>
          </Trackpoint>
          <Trackpoint>
            <Time>2022-07-06T08:30:24.000Z</Time>
            <Position>
              <LatitudeDegrees>44.1304747760295867919921875</LatitudeDegrees>
              <LongitudeDegrees>-1.14811210893094539642333984375</LongitudeDegrees>
            </Position>
            <AltitudeMeters>52.200000762939453125</AltitudeMeters>
            <DistanceMeters>NAN</DistanceMeters>
          </Trackpoint>
          <Trackpoint>
            <Time>2022-07-06T08:30:30.000Z</Time>
            <Position>
              <LatitudeDegrees>44.1302690841257572174072265625</LatitudeDegrees>
              <LongitudeDegrees>-1.14834730513393878936767578125</LongitudeDegrees>
            </Position>
            <AltitudeMeters>52.40000152587890625</AltitudeMeters>
            <DistanceMeters>NAN</DistanceMeters>
          </Trackpoint>
          <Trackpoint>
            <Time>2022-07-06T08:30:35.000Z</Time>
            <Position>
              <LatitudeDegrees>44.13009264506399631500244140625</LatitudeDegrees>
              <LongitudeDegrees>-1.14851930178701877593994140625</LongitudeDegrees>
            </Position>
            <AltitudeMeters>52.200000762939453125</AltitudeMeters>
            <DistanceMeters>NAN</DistanceMeters>
          </Trackpoint>
          <Trackpoint>
            <Time>2022-07-06T08:30:41.000Z</Time>
            <Position>
              <LatitudeDegrees>44.12986918352544307708740234375</LatitudeDegrees>
              <LongitudeDegrees>-1.1487244069576263427734375</LongitudeDegrees>
            </Position>
            <AltitudeMeters>52.200000762939453125</AltitudeMeters>
            <DistanceMeters>NAN</DistanceMeters>
          </Trackpoint>
          <Trackpoint>
            <Time>2022-07-06T08:30:50.000Z</Time>
            <Position>
              <LatitudeDegrees>44.1295415349304676055908203125</LatitudeDegrees>
              <LongitudeDegrees>-1.14900511689484119415283203125</LongitudeDegrees>
            </Position>
            <AltitudeMeters>52</AltitudeMeters>
            <DistanceMeters>NAN</DistanceMeters>
          </Trackpoint>
          <Trackpoint>
            <Time>2022-07-06T08:30:51.000Z</Time>
            <Position>
              <LatitudeDegrees>44.12950021214783191680908203125</LatitudeDegrees>
              <LongitudeDegrees>-1.14904836751520633697509765625</LongitudeDegrees>
            </Position>
            <AltitudeMeters>51.799999237060546875</AltitudeMeters>
            <DistanceMeters>NAN</DistanceMeters>
          </Trackpoint>
          <Trackpoint>
            <Time>2022-07-06T08:31:00.000Z</Time>
            <Position>
              <LatitudeDegrees>44.12917130626738071441650390625</LatitudeDegrees>
              <LongitudeDegrees>-1.14934491924941539764404296875</LongitudeDegrees>
            </Position>
            <AltitudeMeters>51.799999237060546875</AltitudeMeters>
            <DistanceMeters>NAN</DistanceMeters>
          </Trackpoint>
          <Trackpoint>
            <Time>2022-07-06T08:31:07.000Z</Time>
            <Position>
              <LatitudeDegrees>44.12890710867941379547119140625</LatitudeDegrees>
              <LongitudeDegrees>-1.14957592450082302093505859375</LongitudeDegrees>
            </Position>
            <AltitudeMeters>51.59999847412109375</AltitudeMeters>
            <DistanceMeters>NAN</DistanceMeters>
          </Trackpoint>
          <Trackpoint>
            <Time>2022-07-06T08:31:10.000Z</Time>
            <Position>
              <LatitudeDegrees>44.12878406234085559844970703125</LatitudeDegrees>
              <LongitudeDegrees>-1.14966276101768016815185546875</LongitudeDegrees>
            </Position>
            <AltitudeMeters>51.40000152587890625</AltitudeMeters>
            <DistanceMeters>NAN</DistanceMeters>
          </Trackpoint>
          <Trackpoint>
            <Time>2022-07-06T08:31:18.000Z</Time>
            <Position>
              <LatitudeDegrees>44.1284250654280185699462890625</LatitudeDegrees>
              <LongitudeDegrees>-1.149855293333530426025390625</LongitudeDegrees>
            </Position>
            <AltitudeMeters>51.40000152587890625</AltitudeMeters>
            <DistanceMeters>NAN</DistanceMeters>
          </Trackpoint>
          <Trackpoint>
            <Time>2022-07-06T08:31:28.000Z</Time>
            <Position>
              <LatitudeDegrees>44.1279486380517482757568359375</LatitudeDegrees>
              <LongitudeDegrees>-1.1501079238951206207275390625</LongitudeDegrees>
            </Position>
            <AltitudeMeters>51</AltitudeMeters>
            <DistanceMeters>NAN</DistanceMeters>
          </Trackpoint>
          <Trackpoint>
            <Time>2022-07-06T08:31:30.000Z</Time>
            <Position>
              <LatitudeDegrees>44.12783539853990077972412109375</LatitudeDegrees>
              <LongitudeDegrees>-1.15016249008476734161376953125</LongitudeDegrees>
            </Position>
            <AltitudeMeters>50.799999237060546875</AltitudeMeters>
            <DistanceMeters>NAN</DistanceMeters>
          </Trackpoint>
          <Trackpoint>
            <Time>2022-07-06T08:31:33.000Z</Time>
            <Position>
              <LatitudeDegrees>44.127657450735569000244140625</LatitudeDegrees>
              <LongitudeDegrees>-1.150254271924495697021484375</LongitudeDegrees>
            </Position>
            <AltitudeMeters>50.40000152587890625</AltitudeMeters>
            <DistanceMeters>NAN</DistanceMeters>
          </Trackpoint>
          <Trackpoint>
            <Time>2022-07-06T08:31:36.000Z</Time>
            <Position>
              <LatitudeDegrees>44.12746542133390903472900390625</LatitudeDegrees>
              <LongitudeDegrees>-1.15037421695888042449951171875</LongitudeDegrees>
            </Position>
            <AltitudeMeters>49.799999237060546875</AltitudeMeters>
            <DistanceMeters>NAN</DistanceMeters>
          </Trackpoint>
          <Trackpoint>
            <Time>2022-07-06T08:31:39.000Z</Time>
            <Position>
              <LatitudeDegrees>44.12725168280303478240966796875</LatitudeDegrees>
              <LongitudeDegrees>-1.15052442066371440887451171875</LongitudeDegrees>
            </Position>
            <AltitudeMeters>49.200000762939453125</AltitudeMeters>
            <DistanceMeters>NAN</DistanceMeters>
          </Trackpoint>
          <Trackpoint>
            <Time>2022-07-06T08:31:41.000Z</Time>
            <Position>
              <LatitudeDegrees>44.12713014520704746246337890625</LatitudeDegrees>
              <LongitudeDegrees>-1.150603629648685455322265625</LongitudeDegrees>
            </Position>
            <AltitudeMeters>48.59999847412109375</AltitudeMeters>
            <DistanceMeters>NAN</DistanceMeters>
          </Trackpoint>
          <Trackpoint>
            <Time>2022-07-06T08:31:44.000Z</Time>
            <Position>
              <LatitudeDegrees>44.12689796648919582366943359375</LatitudeDegrees>
              <LongitudeDegrees>-1.150709576904773712158203125</LongitudeDegrees>
            </Position>
            <AltitudeMeters>47.799999237060546875</AltitudeMeters>
            <DistanceMeters>NAN</DistanceMeters>
          </Trackpoint>
          <Trackpoint>
            <Time>2022-07-06T08:31:45.000Z</Time>
            <Position>
              <LatitudeDegrees>44.12684113718569278717041015625</LatitudeDegrees>
              <LongitudeDegrees>-1.15072307176887989044189453125</LongitudeDegrees>
            </Position>
            <AltitudeMeters>47.40000152587890625</AltitudeMeters>
            <DistanceMeters>NAN</DistanceMeters>
          </Trackpoint>
          <Trackpoint>
            <Time>2022-07-06T08:31:50.000Z</Time>
            <Position>
              <LatitudeDegrees>44.12652195431292057037353515625</LatitudeDegrees>
              <LongitudeDegrees>-1.150830946862697601318359375</LongitudeDegrees>
            </Position>
            <AltitudeMeters>47</AltitudeMeters>
            <DistanceMeters>NAN</DistanceMeters>
          </Trackpoint>
          <Trackpoint>
            <Time>2022-07-06T08:31:52.000Z</Time>
            <Position>
              <LatitudeDegrees>44.12640251219272613525390625</LatitudeDegrees>
              <LongitudeDegrees>-1.15089498460292816162109375</LongitudeDegrees>
            </Position>
            <AltitudeMeters>46.799999237060546875</AltitudeMeters>
            <DistanceMeters>NAN</DistanceMeters>
          </Trackpoint>
          <Trackpoint>
            <Time>2022-07-06T08:31:55.000Z</Time>
            <Position>
              <LatitudeDegrees>44.12627720274031162261962890625</LatitudeDegrees>
              <LongitudeDegrees>-1.1509628780186176300048828125</LongitudeDegrees>
            </Position>
            <AltitudeMeters>47</AltitudeMeters>
            <DistanceMeters>NAN</DistanceMeters>
          </Trackpoint>
          <Trackpoint>
            <Time>2022-07-06T08:31:58.000Z</Time>
            <Position>
              <LatitudeDegrees>44.12617863155901432037353515625</LatitudeDegrees>
              <LongitudeDegrees>-1.15105248056352138519287109375</LongitudeDegrees>
            </Position>
            <AltitudeMeters>47.40000152587890625</AltitudeMeters>
            <DistanceMeters>NAN</DistanceMeters>
          </Trackpoint>
          <Trackpoint>
            <Time>2022-07-06T08:32:00.000Z</Time>
            <Position>
              <LatitudeDegrees>44.12612096406519412994384765625</LatitudeDegrees>
              <LongitudeDegrees>-1.15110419690608978271484375</LongitudeDegrees>
            </Position>
            <AltitudeMeters>47.59999847412109375</AltitudeMeters>
            <DistanceMeters>NAN</DistanceMeters>
          </Trackpoint>
          <Trackpoint>
            <Time>2022-07-06T08:32:02.000Z</Time>
            <Position>
              <LatitudeDegrees>44.12606849335134029388427734375</LatitudeDegrees>
              <LongitudeDegrees>-1.151159517467021942138671875</LongitudeDegrees>
            </Position>
            <AltitudeMeters>47.799999237060546875</AltitudeMeters>
            <DistanceMeters>NAN</DistanceMeters>
          </Trackpoint>
          <Trackpoint>
            <Time>2022-07-06T08:32:08.000Z</Time>
            <Position>
              <LatitudeDegrees>44.12593773566186428070068359375</LatitudeDegrees>
              <LongitudeDegrees>-1.15129890851676464080810546875</LongitudeDegrees>
            </Position>
            <AltitudeMeters>48.59999847412109375</AltitudeMeters>
            <DistanceMeters>NAN</DistanceMeters>
          </Trackpoint>
          <Trackpoint>
            <Time>2022-07-06T08:32:09.000Z</Time>
            <Position>
              <LatitudeDegrees>44.12591728381812572479248046875</LatitudeDegrees>
              <LongitudeDegrees>-1.15131818689405918121337890625</LongitudeDegrees>
            </Position>
            <AltitudeMeters>48.59999847412109375</AltitudeMeters>
            <DistanceMeters>NAN</DistanceMeters>
          </Trackpoint>
          <Trackpoint>
            <Time>2022-07-06T08:32:15.000Z</Time>
            <Position>
              <LatitudeDegrees>44.125781916081905364990234375</LatitudeDegrees>
              <LongitudeDegrees>-1.151427738368511199951171875</LongitudeDegrees>
            </Position>
            <AltitudeMeters>49.40000152587890625</AltitudeMeters>
            <DistanceMeters>NAN</DistanceMeters>
          </Trackpoint>
          <Trackpoint>
            <Time>2022-07-06T08:32:17.000Z</Time>
            <Position>
              <LatitudeDegrees>44.1257438622415065765380859375</LatitudeDegrees>
              <LongitudeDegrees>-1.151465959846973419189453125</LongitudeDegrees>
            </Position>
            <AltitudeMeters>49.59999847412109375</AltitudeMeters>
            <DistanceMeters>NAN</DistanceMeters>
          </Trackpoint>
          <Trackpoint>
            <Time>2022-07-06T08:32:19.000Z</Time>
            <Position>
              <LatitudeDegrees>44.12570379674434661865234375</LatitudeDegrees>
              <LongitudeDegrees>-1.15151767618954181671142578125</LongitudeDegrees>
            </Position>
            <AltitudeMeters>50</AltitudeMeters>
            <DistanceMeters>NAN</DistanceMeters>
          </Trackpoint>
          <Trackpoint>
            <Time>2022-07-06T08:32:20.000Z</Time>
            <Position>
              <LatitudeDegrees>44.125690050423145294189453125</LatitudeDegrees>
              <LongitudeDegrees>-1.15153511054813861846923828125</LongitudeDegrees>
            </Position>
            <AltitudeMeters>50</AltitudeMeters>
            <DistanceMeters>NAN</DistanceMeters>
          </Trackpoint>
          <Trackpoint>
            <Time>2022-07-06T08:32:25.000Z</Time>
            <Position>
              <LatitudeDegrees>44.1256063990294933319091796875</LatitudeDegrees>
              <LongitudeDegrees>-1.15162194706499576568603515625</LongitudeDegrees>
            </Position>
            <AltitudeMeters>50.799999237060546875</AltitudeMeters>
            <DistanceMeters>NAN</DistanceMeters>
          </Trackpoint>
          <Trackpoint>
            <Time>2022-07-06T08:32:29.000Z</Time>
            <Position>
              <LatitudeDegrees>44.1255269385874271392822265625</LatitudeDegrees>
              <LongitudeDegrees>-1.151703335344791412353515625</LongitudeDegrees>
            </Position>
            <AltitudeMeters>51.200000762939453125</AltitudeMeters>
            <DistanceMeters>NAN</DistanceMeters>
          </Trackpoint>
          <Trackpoint>
            <Time>2022-07-06T08:32:31.000Z</Time>
            <Position>
              <LatitudeDegrees>44.12549014203250408172607421875</LatitudeDegrees>
              <LongitudeDegrees>-1.1517491005361080169677734375</LongitudeDegrees>
            </Position>
            <AltitudeMeters>51.40000152587890625</AltitudeMeters>
            <DistanceMeters>NAN</DistanceMeters>
          </Trackpoint>
          <Trackpoint>
            <Time>2022-07-06T08:32:35.000Z</Time>
            <Position>
              <LatitudeDegrees>44.12540280260145664215087890625</LatitudeDegrees>
              <LongitudeDegrees>-1.151804588735103607177734375</LongitudeDegrees>
            </Position>
            <AltitudeMeters>51.59999847412109375</AltitudeMeters>
            <DistanceMeters>NAN</DistanceMeters>
          </Trackpoint>
          <Trackpoint>
            <Time>2022-07-06T08:32:37.000Z</Time>
            <Position>
              <LatitudeDegrees>44.1253586299717426300048828125</LatitudeDegrees>
              <LongitudeDegrees>-1.15184574387967586517333984375</LongitudeDegrees>
            </Position>
            <AltitudeMeters>51.59999847412109375</AltitudeMeters>
            <DistanceMeters>NAN</DistanceMeters>
          </Trackpoint>
          <Trackpoint>
            <Time>2022-07-06T08:32:39.000Z</Time>
            <Position>
              <LatitudeDegrees>44.12531512789428234100341796875</LatitudeDegrees>
              <LongitudeDegrees>-1.15189201198518276214599609375</LongitudeDegrees>
            </Position>
            <AltitudeMeters>51.59999847412109375</AltitudeMeters>
            <DistanceMeters>NAN</DistanceMeters>
          </Trackpoint>
          <Trackpoint>
            <Time>2022-07-06T08:32:42.000Z</Time>
            <Position>
              <LatitudeDegrees>44.1252406127750873565673828125</LatitudeDegrees>
              <LongitudeDegrees>-1.15196677856147289276123046875</LongitudeDegrees>
            </Position>
            <AltitudeMeters>51.799999237060546875</AltitudeMeters>
            <DistanceMeters>NAN</DistanceMeters>
          </Trackpoint>
          <Trackpoint>
            <Time>2022-07-06T08:32:47.000Z</Time>
            <Position>
              <LatitudeDegrees>44.12509091198444366455078125</LatitudeDegrees>
              <LongitudeDegrees>-1.15206719376146793365478515625</LongitudeDegrees>
            </Position>
            <AltitudeMeters>52</AltitudeMeters>
            <DistanceMeters>NAN</DistanceMeters>
          </Trackpoint>
          <Trackpoint>
            <Time>2022-07-06T08:32:57.000Z</Time>
            <Position>
              <LatitudeDegrees>44.12478690035641193389892578125</LatitudeDegrees>
              <LongitudeDegrees>-1.15220264531672000885009765625</LongitudeDegrees>
            </Position>
            <AltitudeMeters>52</AltitudeMeters>
            <DistanceMeters>NAN</DistanceMeters>
          </Trackpoint>
          <Trackpoint>
            <Time>2022-07-06T08:33:07.000Z</Time>
            <Position>
              <LatitudeDegrees>44.1244262270629405975341796875</LatitudeDegrees>
              <LongitudeDegrees>-1.15228327922523021697998046875</LongitudeDegrees>
            </Position>
            <AltitudeMeters>52</AltitudeMeters>
            <DistanceMeters>NAN</DistanceMeters>
          </Trackpoint>
          <Trackpoint>
            <Time>2022-07-06T08:33:13.000Z</Time>
            <Position>
              <LatitudeDegrees>44.124210141599178314208984375</LatitudeDegrees>
              <LongitudeDegrees>-1.15233541466295719146728515625</LongitudeDegrees>
            </Position>
            <AltitudeMeters>52</AltitudeMeters>
            <DistanceMeters>NAN</DistanceMeters>
          </Trackpoint>
          <Trackpoint>
            <Time>2022-07-06T08:33:17.000Z</Time>
            <Position>
              <LatitudeDegrees>44.1240735165774822235107421875</LatitudeDegrees>
              <LongitudeDegrees>-1.152362488210201263427734375</LongitudeDegrees>
            </Position>
            <AltitudeMeters>52</AltitudeMeters>
            <DistanceMeters>NAN</DistanceMeters>
          </Trackpoint>
          <Trackpoint>
            <Time>2022-07-06T08:33:20.000Z</Time>
            <Position>
              <LatitudeDegrees>44.12396497093141078948974609375</LatitudeDegrees>
              <LongitudeDegrees>-1.152392663061618804931640625</LongitudeDegrees>
            </Position>
            <AltitudeMeters>51.799999237060546875</AltitudeMeters>
            <DistanceMeters>NAN</DistanceMeters>
          </Trackpoint>
          <Trackpoint>
            <Time>2022-07-06T08:33:26.000Z</Time>
            <Position>
              <LatitudeDegrees>44.123743437230587005615234375</LatitudeDegrees>
              <LongitudeDegrees>-1.15244530141353607177734375</LongitudeDegrees>
            </Position>
            <AltitudeMeters>51.799999237060546875</AltitudeMeters>
            <DistanceMeters>NAN</DistanceMeters>
          </Trackpoint>
          <Trackpoint>
            <Time>2022-07-06T08:33:36.000Z</Time>
            <Position>
              <LatitudeDegrees>44.1233640722930431365966796875</LatitudeDegrees>
              <LongitudeDegrees>-1.15251746959984302520751953125</LongitudeDegrees>
            </Position>
            <AltitudeMeters>51.799999237060546875</AltitudeMeters>
            <DistanceMeters>NAN</DistanceMeters>
          </Trackpoint>
          <Trackpoint>
            <Time>2022-07-06T08:33:39.000Z</Time>
            <Position>
              <LatitudeDegrees>44.1232443787157535552978515625</LatitudeDegrees>
              <LongitudeDegrees>-1.15254596807062625885009765625</LongitudeDegrees>
            </Position>
            <AltitudeMeters>51.799999237060546875</AltitudeMeters>
            <DistanceMeters>NAN</DistanceMeters>
          </Trackpoint>
          <Trackpoint>
            <Time>2022-07-06T08:33:47.000Z</Time>
            <Position>
              <LatitudeDegrees>44.1229292191565036773681640625</LatitudeDegrees>
              <LongitudeDegrees>-1.15260665304958820343017578125</LongitudeDegrees>
            </Position>
            <AltitudeMeters>51.799999237060546875</AltitudeMeters>
            <DistanceMeters>NAN</DistanceMeters>
          </Trackpoint>
          <Trackpoint>
            <Time>2022-07-06T08:33:51.000Z</Time>
            <Position>
              <LatitudeDegrees>44.12277641706168651580810546875</LatitudeDegrees>
              <LongitudeDegrees>-1.1526372469961643218994140625</LongitudeDegrees>
            </Position>
            <AltitudeMeters>51.799999237060546875</AltitudeMeters>
            <DistanceMeters>NAN</DistanceMeters>
          </Trackpoint>
          <Trackpoint>
            <Time>2022-07-06T08:33:53.000Z</Time>
            <Position>
              <LatitudeDegrees>44.122702069580554962158203125</LatitudeDegrees>
              <LongitudeDegrees>-1.15265275351703166961669921875</LongitudeDegrees>
            </Position>
            <AltitudeMeters>51.799999237060546875</AltitudeMeters>
            <DistanceMeters>NAN</DistanceMeters>
          </Trackpoint>
          <Trackpoint>
            <Time>2022-07-06T08:33:55.000Z</Time>
            <Position>
              <LatitudeDegrees>44.1226241178810596466064453125</LatitudeDegrees>
              <LongitudeDegrees>-1.15266884677112102508544921875</LongitudeDegrees>
            </Position>
            <AltitudeMeters>51.799999237060546875</AltitudeMeters>
            <DistanceMeters>NAN</DistanceMeters>
          </Trackpoint>
          <Trackpoint>
            <Time>2022-07-06T08:33:56.000Z</Time>
            <Position>
              <LatitudeDegrees>44.12258681841194629669189453125</LatitudeDegrees>
              <LongitudeDegrees>-1.15267731249332427978515625</LongitudeDegrees>
            </Position>
            <AltitudeMeters>51.799999237060546875</AltitudeMeters>
            <DistanceMeters>NAN</DistanceMeters>
          </Trackpoint>
          <Trackpoint>
            <Time>2022-07-06T08:34:09.000Z</Time>
            <Position>
              <LatitudeDegrees>44.122059680521488189697265625</LatitudeDegrees>
              <LongitudeDegrees>-1.15279004909098148345947265625</LongitudeDegrees>
            </Position>
            <AltitudeMeters>52</AltitudeMeters>
            <DistanceMeters>NAN</DistanceMeters>
          </Trackpoint>
          <Trackpoint>
            <Time>2022-07-06T08:34:20.000Z</Time>
            <Position>
              <LatitudeDegrees>44.12164838053286075592041015625</LatitudeDegrees>
              <LongitudeDegrees>-1.15289381705224514007568359375</LongitudeDegrees>
            </Position>
            <AltitudeMeters>52.200000762939453125</AltitudeMeters>
            <DistanceMeters>NAN</DistanceMeters>
          </Trackpoint>
          <Trackpoint>
            <Time>2022-07-06T08:34:29.000Z</Time>
            <Position>
              <LatitudeDegrees>44.12130472250282764434814453125</LatitudeDegrees>
              <LongitudeDegrees>-1.1529617942869663238525390625</LongitudeDegrees>
            </Position>
            <AltitudeMeters>52.200000762939453125</AltitudeMeters>
            <DistanceMeters>NAN</DistanceMeters>
          </Trackpoint>
          <Trackpoint>
            <Time>2022-07-06T08:34:36.000Z</Time>
            <Position>
              <LatitudeDegrees>44.121033735573291778564453125</LatitudeDegrees>
              <LongitudeDegrees>-1.15301971323788166046142578125</LongitudeDegrees>
            </Position>
            <AltitudeMeters>52</AltitudeMeters>
            <DistanceMeters>NAN</DistanceMeters>
          </Trackpoint>
          <Trackpoint>
            <Time>2022-07-06T08:34:39.000Z</Time>
            <Position>
              <LatitudeDegrees>44.1209207475185394287109375</LatitudeDegrees>
              <LongitudeDegrees>-1.153051145374774932861328125</LongitudeDegrees>
            </Position>
            <AltitudeMeters>51.799999237060546875</AltitudeMeters>
            <DistanceMeters>NAN</DistanceMeters>
          </Trackpoint>
          <Trackpoint>
            <Time>2022-07-06T08:34:48.000Z</Time>
            <Position>
              <LatitudeDegrees>44.120560325682163238525390625</LatitudeDegrees>
              <LongitudeDegrees>-1.15312063135206699371337890625</LongitudeDegrees>
            </Position>
            <AltitudeMeters>51.59999847412109375</AltitudeMeters>
            <DistanceMeters>NAN</DistanceMeters>
          </Trackpoint>
          <Trackpoint>
            <Time>2022-07-06T08:34:58.000Z</Time>
            <Position>
              <LatitudeDegrees>44.1201212815940380096435546875</LatitudeDegrees>
              <LongitudeDegrees>-1.15320679731667041778564453125</LongitudeDegrees>
            </Position>
            <AltitudeMeters>51.40000152587890625</AltitudeMeters>
            <DistanceMeters>NAN</DistanceMeters>
          </Trackpoint>
          <Trackpoint>
            <Time>2022-07-06T08:35:01.000Z</Time>
            <Position>
              <LatitudeDegrees>44.11997803486883640289306640625</LatitudeDegrees>
              <LongitudeDegrees>-1.15323789417743682861328125</LongitudeDegrees>
            </Position>
            <AltitudeMeters>51.40000152587890625</AltitudeMeters>
            <DistanceMeters>NAN</DistanceMeters>
          </Trackpoint>
          <Trackpoint>
            <Time>2022-07-06T08:35:05.000Z</Time>
            <Position>
              <LatitudeDegrees>44.119806624948978424072265625</LatitudeDegrees>
              <LongitudeDegrees>-1.153278462588787078857421875</LongitudeDegrees>
            </Position>
            <AltitudeMeters>51</AltitudeMeters>
            <DistanceMeters>NAN</DistanceMeters>
          </Trackpoint>
          <Trackpoint>
            <Time>2022-07-06T08:35:09.000Z</Time>
            <Position>
              <LatitudeDegrees>44.1196113266050815582275390625</LatitudeDegrees>
              <LongitudeDegrees>-1.15332531742751598358154296875</LongitudeDegrees>
            </Position>
            <AltitudeMeters>50.799999237060546875</AltitudeMeters>
            <DistanceMeters>NAN</DistanceMeters>
          </Trackpoint>
          <Trackpoint>
            <Time>2022-07-06T08:35:10.000Z</Time>
            <Position>
              <LatitudeDegrees>44.1195623762905597686767578125</LatitudeDegrees>
              <LongitudeDegrees>-1.15333520807325839996337890625</LongitudeDegrees>
            </Position>
            <AltitudeMeters>50.799999237060546875</AltitudeMeters>
            <DistanceMeters>NAN</DistanceMeters>
          </Trackpoint>
          <Trackpoint>
            <Time>2022-07-06T08:35:18.000Z</Time>
            <Position>
              <LatitudeDegrees>44.1191660799086093902587890625</LatitudeDegrees>
              <LongitudeDegrees>-1.15343193523585796356201171875</LongitudeDegrees>
            </Position>
            <AltitudeMeters>50.59999847412109375</AltitudeMeters>
            <DistanceMeters>NAN</DistanceMeters>
          </Trackpoint>
          <Trackpoint>
            <Time>2022-07-06T08:35:26.000Z</Time>
            <Position>
              <LatitudeDegrees>44.118765257298946380615234375</LatitudeDegrees>
              <LongitudeDegrees>-1.15351156331598758697509765625</LongitudeDegrees>
            </Position>
            <AltitudeMeters>50.200000762939453125</AltitudeMeters>
            <DistanceMeters>NAN</DistanceMeters>
          </Trackpoint>
          <Trackpoint>
            <Time>2022-07-06T08:35:35.000Z</Time>
            <Position>
              <LatitudeDegrees>44.11831674166023731231689453125</LatitudeDegrees>
              <LongitudeDegrees>-1.153607703745365142822265625</LongitudeDegrees>
            </Position>
            <AltitudeMeters>50.200000762939453125</AltitudeMeters>
            <DistanceMeters>NAN</DistanceMeters>
          </Trackpoint>
          <Trackpoint>
            <Time>2022-07-06T08:35:41.000Z</Time>
            <Position>
              <LatitudeDegrees>44.118033349514007568359375</LatitudeDegrees>
              <LongitudeDegrees>-1.15368305705487728118896484375</LongitudeDegrees>
            </Position>
            <AltitudeMeters>50.200000762939453125</AltitudeMeters>
            <DistanceMeters>NAN</DistanceMeters>
          </Trackpoint>
          <Trackpoint>
            <Time>2022-07-06T08:35:42.000Z</Time>
            <Position>
              <LatitudeDegrees>44.1179738380014896392822265625</LatitudeDegrees>
              <LongitudeDegrees>-1.1536945402622222900390625</LongitudeDegrees>
            </Position>
            <AltitudeMeters>50</AltitudeMeters>
            <DistanceMeters>NAN</DistanceMeters>
          </Trackpoint>
          <Trackpoint>
            <Time>2022-07-06T08:35:50.000Z</Time>
            <Position>
              <LatitudeDegrees>44.1175869293510913848876953125</LatitudeDegrees>
              <LongitudeDegrees>-1.1537745036184787750244140625</LongitudeDegrees>
            </Position>
            <AltitudeMeters>50.200000762939453125</AltitudeMeters>
            <DistanceMeters>NAN</DistanceMeters>
          </Trackpoint>
          <Trackpoint>
            <Time>2022-07-06T08:35:57.000Z</Time>
            <Position>
              <LatitudeDegrees>44.117255173623561859130859375</LatitudeDegrees>
              <LongitudeDegrees>-1.1538326740264892578125</LongitudeDegrees>
            </Position>
            <AltitudeMeters>50.200000762939453125</AltitudeMeters>
            <DistanceMeters>NAN</DistanceMeters>
          </Trackpoint>
          <Trackpoint>
            <Time>2022-07-06T08:35:59.000Z</Time>
            <Position>
              <LatitudeDegrees>44.11715886555612087249755859375</LatitudeDegrees>
              <LongitudeDegrees>-1.1538536287844181060791015625</LongitudeDegrees>
            </Position>
            <AltitudeMeters>50</AltitudeMeters>
            <DistanceMeters>NAN</DistanceMeters>
          </Trackpoint>
          <Trackpoint>
            <Time>2022-07-06T08:36:07.000Z</Time>
            <Position>
              <LatitudeDegrees>44.116751253604888916015625</LatitudeDegrees>
              <LongitudeDegrees>-1.15393971092998981475830078125</LongitudeDegrees>
            </Position>
            <AltitudeMeters>50.200000762939453125</AltitudeMeters>
            <DistanceMeters>NAN</DistanceMeters>
          </Trackpoint>
          <Trackpoint>
            <Time>2022-07-06T08:36:11.000Z</Time>
            <Position>
              <LatitudeDegrees>44.11653332412242889404296875</LatitudeDegrees>
              <LongitudeDegrees>-1.15398564375936985015869140625</LongitudeDegrees>
            </Position>
            <AltitudeMeters>49.799999237060546875</AltitudeMeters>
            <DistanceMeters>NAN</DistanceMeters>
          </Trackpoint>
          <Trackpoint>
            <Time>2022-07-06T08:36:14.000Z</Time>
            <Position>
              <LatitudeDegrees>44.1163609921932220458984375</LatitudeDegrees>
              <LongitudeDegrees>-1.15401933901011943817138671875</LongitudeDegrees>
            </Position>
            <AltitudeMeters>49.40000152587890625</AltitudeMeters>
            <DistanceMeters>NAN</DistanceMeters>
          </Trackpoint>
          <Trackpoint>
            <Time>2022-07-06T08:36:16.000Z</Time>
            <Position>
              <LatitudeDegrees>44.11624590866267681121826171875</LatitudeDegrees>
              <LongitudeDegrees>-1.154049597680568695068359375</LongitudeDegrees>
            </Position>
            <AltitudeMeters>49.200000762939453125</AltitudeMeters>
            <DistanceMeters>NAN</DistanceMeters>
          </Trackpoint>
          <Trackpoint>
            <Time>2022-07-06T08:36:17.000Z</Time>
            <Position>
              <LatitudeDegrees>44.11619159393012523651123046875</LatitudeDegrees>
              <LongitudeDegrees>-1.154062338173389434814453125</LongitudeDegrees>
            </Position>
            <AltitudeMeters>49</AltitudeMeters>
            <DistanceMeters>NAN</DistanceMeters>
          </Trackpoint>
          <Trackpoint>
            <Time>2022-07-06T08:36:20.000Z</Time>
            <Position>
              <LatitudeDegrees>44.11602714098989963531494140625</LatitudeDegrees>
              <LongitudeDegrees>-1.154096536338329315185546875</LongitudeDegrees>
            </Position>
            <AltitudeMeters>48.799999237060546875</AltitudeMeters>
            <DistanceMeters>NAN</DistanceMeters>
          </Trackpoint>
          <Trackpoint>
            <Time>2022-07-06T08:36:22.000Z</Time>
            <Position>
              <LatitudeDegrees>44.1159340180456638336181640625</LatitudeDegrees>
              <LongitudeDegrees>-1.15410617552697658538818359375</LongitudeDegrees>
            </Position>
            <AltitudeMeters>48.59999847412109375</AltitudeMeters>
            <DistanceMeters>NAN</DistanceMeters>
          </Trackpoint>
          <Trackpoint>
            <Time>2022-07-06T08:36:23.000Z</Time>
            <Position>
              <LatitudeDegrees>44.1158847324550151824951171875</LatitudeDegrees>
              <LongitudeDegrees>-1.15411321632564067840576171875</LongitudeDegrees>
            </Position>
            <AltitudeMeters>48.59999847412109375</AltitudeMeters>
            <DistanceMeters>NAN</DistanceMeters>
          </Trackpoint>
          <Trackpoint>
            <Time>2022-07-06T08:36:26.000Z</Time>
            <Position>
              <LatitudeDegrees>44.11573276855051517486572265625</LatitudeDegrees>
              <LongitudeDegrees>-1.154142133891582489013671875</LongitudeDegrees>
            </Position>
            <AltitudeMeters>48.59999847412109375</AltitudeMeters>
            <DistanceMeters>NAN</DistanceMeters>
          </Trackpoint>
          <Trackpoint>
            <Time>2022-07-06T08:36:28.000Z</Time>
            <Position>
              <LatitudeDegrees>44.1156356222927570343017578125</LatitudeDegrees>
              <LongitudeDegrees>-1.1541644297540187835693359375</LongitudeDegrees>
            </Position>
            <AltitudeMeters>48.40000152587890625</AltitudeMeters>
            <DistanceMeters>NAN</DistanceMeters>
          </Trackpoint>
          <Trackpoint>
            <Time>2022-07-06T08:36:36.000Z</Time>
            <Position>
              <LatitudeDegrees>44.11528475582599639892578125</LatitudeDegrees>
              <LongitudeDegrees>-1.15424682386219501495361328125</LongitudeDegrees>
            </Position>
            <AltitudeMeters>48</AltitudeMeters>
            <DistanceMeters>NAN</DistanceMeters>
          </Trackpoint>
          <Trackpoint>
            <Time>2022-07-06T08:36:43.000Z</Time>
            <Position>
              <LatitudeDegrees>44.114965908229351043701171875</LatitudeDegrees>
              <LongitudeDegrees>-1.154305748641490936279296875</LongitudeDegrees>
            </Position>
            <AltitudeMeters>48.40000152587890625</AltitudeMeters>
            <DistanceMeters>NAN</DistanceMeters>
          </Trackpoint>
          <Trackpoint>
            <Time>2022-07-06T08:36:46.000Z</Time>
            <Position>
              <LatitudeDegrees>44.114825427532196044921875</LatitudeDegrees>
              <LongitudeDegrees>-1.15433223545551300048828125</LongitudeDegrees>
            </Position>
            <AltitudeMeters>48.59999847412109375</AltitudeMeters>
            <DistanceMeters>NAN</DistanceMeters>
          </Trackpoint>
          <Trackpoint>
            <Time>2022-07-06T08:36:56.000Z</Time>
            <Position>
              <LatitudeDegrees>44.1143412888050079345703125</LatitudeDegrees>
              <LongitudeDegrees>-1.15444044582545757293701171875</LongitudeDegrees>
            </Position>
            <AltitudeMeters>48.200000762939453125</AltitudeMeters>
            <DistanceMeters>NAN</DistanceMeters>
          </Trackpoint>
          <Trackpoint>
            <Time>2022-07-06T08:37:01.000Z</Time>
            <Position>
              <LatitudeDegrees>44.11407013423740863800048828125</LatitudeDegrees>
              <LongitudeDegrees>-1.1544992029666900634765625</LongitudeDegrees>
            </Position>
            <AltitudeMeters>48</AltitudeMeters>
            <DistanceMeters>NAN</DistanceMeters>
          </Trackpoint>
          <Trackpoint>
            <Time>2022-07-06T08:37:02.000Z</Time>
            <Position>
              <LatitudeDegrees>44.11401472985744476318359375</LatitudeDegrees>
              <LongitudeDegrees>-1.1545047350227832794189453125</LongitudeDegrees>
            </Position>
            <AltitudeMeters>48</AltitudeMeters>
            <DistanceMeters>NAN</DistanceMeters>
          </Trackpoint>
          <Trackpoint>
            <Time>2022-07-06T08:37:04.000Z</Time>
            <Position>
              <LatitudeDegrees>44.1139035858213901519775390625</LatitudeDegrees>
              <LongitudeDegrees>-1.15451806224882602691650390625</LongitudeDegrees>
            </Position>
            <AltitudeMeters>48</AltitudeMeters>
            <DistanceMeters>NAN</DistanceMeters>
          </Trackpoint>
          <Trackpoint>
            <Time>2022-07-06T08:37:08.000Z</Time>
            <Position>
              <LatitudeDegrees>44.11369445733726024627685546875</LatitudeDegrees>
              <LongitudeDegrees>-1.1545340716838836669921875</LongitudeDegrees>
            </Position>
            <AltitudeMeters>48</AltitudeMeters>
            <DistanceMeters>NAN</DistanceMeters>
          </Trackpoint>
          <Trackpoint>
            <Time>2022-07-06T08:37:10.000Z</Time>
            <Position>
              <LatitudeDegrees>44.1135897673666477203369140625</LatitudeDegrees>
              <LongitudeDegrees>-1.1545597203075885772705078125</LongitudeDegrees>
            </Position>
            <AltitudeMeters>48</AltitudeMeters>
            <DistanceMeters>NAN</DistanceMeters>
          </Trackpoint>
          <Trackpoint>
            <Time>2022-07-06T08:37:16.000Z</Time>
            <Position>
              <LatitudeDegrees>44.11327569745481014251708984375</LatitudeDegrees>
              <LongitudeDegrees>-1.15464010275900363922119140625</LongitudeDegrees>
            </Position>
            <AltitudeMeters>47.799999237060546875</AltitudeMeters>
            <DistanceMeters>NAN</DistanceMeters>
          </Trackpoint>
          <Trackpoint>
            <Time>2022-07-06T08:37:17.000Z</Time>
            <Position>
              <LatitudeDegrees>44.11322213709354400634765625</LatitudeDegrees>
              <LongitudeDegrees>-1.1546512506902217864990234375</LongitudeDegrees>
            </Position>
            <AltitudeMeters>47.59999847412109375</AltitudeMeters>
            <DistanceMeters>NAN</DistanceMeters>
          </Trackpoint>
          <Trackpoint>
            <Time>2022-07-06T08:37:19.000Z</Time>
            <Position>
              <LatitudeDegrees>44.11311627365648746490478515625</LatitudeDegrees>
              <LongitudeDegrees>-1.15467824041843414306640625</LongitudeDegrees>
            </Position>
            <AltitudeMeters>47.59999847412109375</AltitudeMeters>
            <DistanceMeters>NAN</DistanceMeters>
          </Trackpoint>
          <Trackpoint>
            <Time>2022-07-06T08:37:28.000Z</Time>
            <Position>
              <LatitudeDegrees>44.11264118738472461700439453125</LatitudeDegrees>
              <LongitudeDegrees>-1.1548071540892124176025390625</LongitudeDegrees>
            </Position>
            <AltitudeMeters>47.40000152587890625</AltitudeMeters>
            <DistanceMeters>NAN</DistanceMeters>
          </Trackpoint>
          <Trackpoint>
            <Time>2022-07-06T08:37:31.000Z</Time>
            <Position>
              <LatitudeDegrees>44.11248855292797088623046875</LatitudeDegrees>
              <LongitudeDegrees>-1.15484143607318401336669921875</LongitudeDegrees>
            </Position>
            <AltitudeMeters>47.200000762939453125</AltitudeMeters>
            <DistanceMeters>NAN</DistanceMeters>
          </Trackpoint>
          <Trackpoint>
            <Time>2022-07-06T08:37:40.000Z</Time>
            <Position>
              <LatitudeDegrees>44.1120077669620513916015625</LatitudeDegrees>
              <LongitudeDegrees>-1.15493129007518291473388671875</LongitudeDegrees>
            </Position>
            <AltitudeMeters>47.40000152587890625</AltitudeMeters>
            <DistanceMeters>NAN</DistanceMeters>
          </Trackpoint>
          <Trackpoint>
            <Time>2022-07-06T08:37:44.000Z</Time>
            <Position>
              <LatitudeDegrees>44.1117933578789234161376953125</LatitudeDegrees>
              <LongitudeDegrees>-1.1549835093319416046142578125</LongitudeDegrees>
            </Position>
            <AltitudeMeters>47.40000152587890625</AltitudeMeters>
            <DistanceMeters>NAN</DistanceMeters>
          </Trackpoint>
          <Trackpoint>
            <Time>2022-07-06T08:37:51.000Z</Time>
            <Position>
              <LatitudeDegrees>44.11143067292869091033935546875</LatitudeDegrees>
              <LongitudeDegrees>-1.15505366586148738861083984375</LongitudeDegrees>
            </Position>
            <AltitudeMeters>47.59999847412109375</AltitudeMeters>
            <DistanceMeters>NAN</DistanceMeters>
          </Trackpoint>
          <Trackpoint>
            <Time>2022-07-06T08:37:54.000Z</Time>
            <Position>
              <LatitudeDegrees>44.1112780384719371795654296875</LatitudeDegrees>
              <LongitudeDegrees>-1.1550897918641567230224609375</LongitudeDegrees>
            </Position>
            <AltitudeMeters>47.59999847412109375</AltitudeMeters>
            <DistanceMeters>NAN</DistanceMeters>
          </Trackpoint>
          <Trackpoint>
            <Time>2022-07-06T08:37:57.000Z</Time>
            <Position>
              <LatitudeDegrees>44.1111271642148494720458984375</LatitudeDegrees>
              <LongitudeDegrees>-1.15512407384812831878662109375</LongitudeDegrees>
            </Position>
            <AltitudeMeters>47</AltitudeMeters>
            <DistanceMeters>NAN</DistanceMeters>
          </Trackpoint>
          <Trackpoint>
            <Time>2022-07-06T08:37:59.000Z</Time>
            <Position>
              <LatitudeDegrees>44.1110235638916492462158203125</LatitudeDegrees>
              <LongitudeDegrees>-1.15514016710221767425537109375</LongitudeDegrees>
            </Position>
            <AltitudeMeters>46.799999237060546875</AltitudeMeters>
            <DistanceMeters>NAN</DistanceMeters>
          </Trackpoint>
          <Trackpoint>
            <Time>2022-07-06T08:38:09.000Z</Time>
            <Position>
              <LatitudeDegrees>44.11051318980753421783447265625</LatitudeDegrees>
              <LongitudeDegrees>-1.1552601121366024017333984375</LongitudeDegrees>
            </Position>
            <AltitudeMeters>46.799999237060546875</AltitudeMeters>
            <DistanceMeters>NAN</DistanceMeters>
          </Trackpoint>
          <Trackpoint>
            <Time>2022-07-06T08:38:11.000Z</Time>
            <Position>
              <LatitudeDegrees>44.110408835113048553466796875</LatitudeDegrees>
              <LongitudeDegrees>-1.15527997724711894989013671875</LongitudeDegrees>
            </Position>
            <AltitudeMeters>46.59999847412109375</AltitudeMeters>
            <DistanceMeters>NAN</DistanceMeters>
          </Trackpoint>
          <Trackpoint>
            <Time>2022-07-06T08:38:17.000Z</Time>
            <Position>
              <LatitudeDegrees>44.1101005487143993377685546875</LatitudeDegrees>
              <LongitudeDegrees>-1.15534602664411067962646484375</LongitudeDegrees>
            </Position>
            <AltitudeMeters>46.40000152587890625</AltitudeMeters>
            <DistanceMeters>NAN</DistanceMeters>
          </Trackpoint>
          <Trackpoint>
            <Time>2022-07-06T08:38:19.000Z</Time>
            <Position>
              <LatitudeDegrees>44.1099999658763408660888671875</LatitudeDegrees>
              <LongitudeDegrees>-1.1553707532584667205810546875</LongitudeDegrees>
            </Position>
            <AltitudeMeters>46.200000762939453125</AltitudeMeters>
            <DistanceMeters>NAN</DistanceMeters>
          </Trackpoint>
          <Trackpoint>
            <Time>2022-07-06T08:38:30.000Z</Time>
            <Position>
              <LatitudeDegrees>44.10944751463830471038818359375</LatitudeDegrees>
              <LongitudeDegrees>-1.15551416762173175811767578125</LongitudeDegrees>
            </Position>
            <AltitudeMeters>46.200000762939453125</AltitudeMeters>
            <DistanceMeters>NAN</DistanceMeters>
          </Trackpoint>
          <Trackpoint>
            <Time>2022-07-06T08:38:39.000Z</Time>
            <Position>
              <LatitudeDegrees>44.10897527821362018585205078125</LatitudeDegrees>
              <LongitudeDegrees>-1.15561676211655139923095703125</LongitudeDegrees>
            </Position>
            <AltitudeMeters>46</AltitudeMeters>
            <DistanceMeters>NAN</DistanceMeters>
          </Trackpoint>
          <Trackpoint>
            <Time>2022-07-06T08:38:48.000Z</Time>
            <Position>
              <LatitudeDegrees>44.10850639455020427703857421875</LatitudeDegrees>
              <LongitudeDegrees>-1.15572337992489337921142578125</LongitudeDegrees>
            </Position>
            <AltitudeMeters>45.799999237060546875</AltitudeMeters>
            <DistanceMeters>NAN</DistanceMeters>
          </Trackpoint>
          <Trackpoint>
            <Time>2022-07-06T08:38:52.000Z</Time>
            <Position>
              <LatitudeDegrees>44.1083024628460407257080078125</LatitudeDegrees>
              <LongitudeDegrees>-1.155766546726226806640625</LongitudeDegrees>
            </Position>
            <AltitudeMeters>45.59999847412109375</AltitudeMeters>
            <DistanceMeters>NAN</DistanceMeters>
          </Trackpoint>
          <Trackpoint>
            <Time>2022-07-06T08:38:59.000Z</Time>
            <Position>
              <LatitudeDegrees>44.1079549491405487060546875</LatitudeDegrees>
              <LongitudeDegrees>-1.15583720616996288299560546875</LongitudeDegrees>
            </Position>
            <AltitudeMeters>45.59999847412109375</AltitudeMeters>
            <DistanceMeters>NAN</DistanceMeters>
          </Trackpoint>
          <Trackpoint>
            <Time>2022-07-06T08:39:10.000Z</Time>
            <Position>
              <LatitudeDegrees>44.10738338716328144073486328125</LatitudeDegrees>
              <LongitudeDegrees>-1.155958659946918487548828125</LongitudeDegrees>
            </Position>
            <AltitudeMeters>46</AltitudeMeters>
            <DistanceMeters>NAN</DistanceMeters>
          </Trackpoint>
          <Trackpoint>
            <Time>2022-07-06T08:39:13.000Z</Time>
            <Position>
              <LatitudeDegrees>44.1072450019419193267822265625</LatitudeDegrees>
              <LongitudeDegrees>-1.15599210374057292938232421875</LongitudeDegrees>
            </Position>
            <AltitudeMeters>46</AltitudeMeters>
            <DistanceMeters>NAN</DistanceMeters>
          </Trackpoint>
          <Trackpoint>
            <Time>2022-07-06T08:39:23.000Z</Time>
            <Position>
              <LatitudeDegrees>44.10674720071256160736083984375</LatitudeDegrees>
              <LongitudeDegrees>-1.1560869030654430389404296875</LongitudeDegrees>
            </Position>
            <AltitudeMeters>46.40000152587890625</AltitudeMeters>
            <DistanceMeters>NAN</DistanceMeters>
          </Trackpoint>
          <Trackpoint>
            <Time>2022-07-06T08:39:25.000Z</Time>
            <Position>
              <LatitudeDegrees>44.1066401638090610504150390625</LatitudeDegrees>
              <LongitudeDegrees>-1.1561070196330547332763671875</LongitudeDegrees>
            </Position>
            <AltitudeMeters>46</AltitudeMeters>
            <DistanceMeters>NAN</DistanceMeters>
          </Trackpoint>
          <Trackpoint>
            <Time>2022-07-06T08:39:30.000Z</Time>
            <Position>
              <LatitudeDegrees>44.106400273740291595458984375</LatitudeDegrees>
              <LongitudeDegrees>-1.156159155070781707763671875</LongitudeDegrees>
            </Position>
            <AltitudeMeters>45.799999237060546875</AltitudeMeters>
            <DistanceMeters>NAN</DistanceMeters>
          </Trackpoint>
          <Trackpoint>
            <Time>2022-07-06T08:39:36.000Z</Time>
            <Position>
              <LatitudeDegrees>44.10612828098237514495849609375</LatitudeDegrees>
              <LongitudeDegrees>-1.1562250368297100067138671875</LongitudeDegrees>
            </Position>
            <AltitudeMeters>45.799999237060546875</AltitudeMeters>
            <DistanceMeters>NAN</DistanceMeters>
          </Trackpoint>
          <Trackpoint>
            <Time>2022-07-06T08:39:46.000Z</Time>
            <Position>
              <LatitudeDegrees>44.10566342063248157501220703125</LatitudeDegrees>
              <LongitudeDegrees>-1.15632134489715099334716796875</LongitudeDegrees>
            </Position>
            <AltitudeMeters>45.40000152587890625</AltitudeMeters>
            <DistanceMeters>NAN</DistanceMeters>
          </Trackpoint>
          <Trackpoint>
            <Time>2022-07-06T08:39:57.000Z</Time>
            <Position>
              <LatitudeDegrees>44.1051270626485347747802734375</LatitudeDegrees>
              <LongitudeDegrees>-1.15642176009714603424072265625</LongitudeDegrees>
            </Position>
            <AltitudeMeters>45.59999847412109375</AltitudeMeters>
            <DistanceMeters>NAN</DistanceMeters>
          </Trackpoint>
          <Trackpoint>
            <Time>2022-07-06T08:39:59.000Z</Time>
            <Position>
              <LatitudeDegrees>44.105022959411144256591796875</LatitudeDegrees>
              <LongitudeDegrees>-1.1564473249018192291259765625</LongitudeDegrees>
            </Position>
            <AltitudeMeters>45.40000152587890625</AltitudeMeters>
            <DistanceMeters>NAN</DistanceMeters>
          </Trackpoint>
          <Trackpoint>
            <Time>2022-07-06T08:40:06.000Z</Time>
            <Position>
              <LatitudeDegrees>44.10469849593937397003173828125</LatitudeDegrees>
              <LongitudeDegrees>-1.15651580505073070526123046875</LongitudeDegrees>
            </Position>
            <AltitudeMeters>44.59999847412109375</AltitudeMeters>
            <DistanceMeters>NAN</DistanceMeters>
          </Trackpoint>
          <Trackpoint>
            <Time>2022-07-06T08:40:13.000Z</Time>
            <Position>
              <LatitudeDegrees>44.1043311171233654022216796875</LatitudeDegrees>
              <LongitudeDegrees>-1.15659224800765514373779296875</LongitudeDegrees>
            </Position>
            <AltitudeMeters>44.40000152587890625</AltitudeMeters>
            <DistanceMeters>NAN</DistanceMeters>
          </Trackpoint>
          <Trackpoint>
            <Time>2022-07-06T08:40:16.000Z</Time>
            <Position>
              <LatitudeDegrees>44.10418904386460781097412109375</LatitudeDegrees>
              <LongitudeDegrees>-1.1566199921071529388427734375</LongitudeDegrees>
            </Position>
            <AltitudeMeters>44.40000152587890625</AltitudeMeters>
            <DistanceMeters>NAN</DistanceMeters>
          </Trackpoint>
          <Trackpoint>
            <Time>2022-07-06T08:40:23.000Z</Time>
            <Position>
              <LatitudeDegrees>44.10382593981921672821044921875</LatitudeDegrees>
              <LongitudeDegrees>-1.1567039787769317626953125</LongitudeDegrees>
            </Position>
            <AltitudeMeters>44</AltitudeMeters>
            <DistanceMeters>NAN</DistanceMeters>
          </Trackpoint>
          <Trackpoint>
            <Time>2022-07-06T08:40:34.000Z</Time>
            <Position>
              <LatitudeDegrees>44.10325965844094753265380859375</LatitudeDegrees>
              <LongitudeDegrees>-1.156827025115489959716796875</LongitudeDegrees>
            </Position>
            <AltitudeMeters>43.799999237060546875</AltitudeMeters>
            <DistanceMeters>NAN</DistanceMeters>
          </Trackpoint>
          <Trackpoint>
            <Time>2022-07-06T08:40:36.000Z</Time>
            <Position>
              <LatitudeDegrees>44.103136695921421051025390625</LatitudeDegrees>
              <LongitudeDegrees>-1.15684906952083110809326171875</LongitudeDegrees>
            </Position>
            <AltitudeMeters>43.799999237060546875</AltitudeMeters>
            <DistanceMeters>NAN</DistanceMeters>
          </Trackpoint>
          <Trackpoint>
            <Time>2022-07-06T08:40:39.000Z</Time>
            <Position>
              <LatitudeDegrees>44.102986492216587066650390625</LatitudeDegrees>
              <LongitudeDegrees>-1.15687907673418521881103515625</LongitudeDegrees>
            </Position>
            <AltitudeMeters>43.59999847412109375</AltitudeMeters>
            <DistanceMeters>NAN</DistanceMeters>
          </Trackpoint>
          <Trackpoint>
            <Time>2022-07-06T08:40:41.000Z</Time>
            <Position>
              <LatitudeDegrees>44.1028817184269428253173828125</LatitudeDegrees>
              <LongitudeDegrees>-1.15690422244369983673095703125</LongitudeDegrees>
            </Position>
            <AltitudeMeters>43.59999847412109375</AltitudeMeters>
            <DistanceMeters>NAN</DistanceMeters>
          </Trackpoint>
          <Trackpoint>
            <Time>2022-07-06T08:40:47.000Z</Time>
            <Position>
              <LatitudeDegrees>44.10255633294582366943359375</LatitudeDegrees>
              <LongitudeDegrees>-1.15696876309812068939208984375</LongitudeDegrees>
            </Position>
            <AltitudeMeters>43.40000152587890625</AltitudeMeters>
            <DistanceMeters>NAN</DistanceMeters>
          </Trackpoint>
          <Trackpoint>
            <Time>2022-07-06T08:40:50.000Z</Time>
            <Position>
              <LatitudeDegrees>44.1023925505578517913818359375</LatitudeDegrees>
              <LongitudeDegrees>-1.1569981835782527923583984375</LongitudeDegrees>
            </Position>
            <AltitudeMeters>43.40000152587890625</AltitudeMeters>
            <DistanceMeters>NAN</DistanceMeters>
          </Trackpoint>
          <Trackpoint>
            <Time>2022-07-06T08:40:53.000Z</Time>
            <Position>
              <LatitudeDegrees>44.10225181840360164642333984375</LatitudeDegrees>
              <LongitudeDegrees>-1.157026179134845733642578125</LongitudeDegrees>
            </Position>
            <AltitudeMeters>43.59999847412109375</AltitudeMeters>
            <DistanceMeters>NAN</DistanceMeters>
          </Trackpoint>
          <Trackpoint>
            <Time>2022-07-06T08:41:03.000Z</Time>
            <Position>
              <LatitudeDegrees>44.10171017982065677642822265625</LatitudeDegrees>
              <LongitudeDegrees>-1.15713841281831264495849609375</LongitudeDegrees>
            </Position>
            <AltitudeMeters>43.59999847412109375</AltitudeMeters>
            <DistanceMeters>NAN</DistanceMeters>
          </Trackpoint>
          <Trackpoint>
            <Time>2022-07-06T08:41:10.000Z</Time>
            <Position>
              <LatitudeDegrees>44.1013474948704242706298828125</LatitudeDegrees>
              <LongitudeDegrees>-1.15721954964101314544677734375</LongitudeDegrees>
            </Position>
            <AltitudeMeters>43.40000152587890625</AltitudeMeters>
            <DistanceMeters>NAN</DistanceMeters>
          </Trackpoint>
          <Trackpoint>
            <Time>2022-07-06T08:41:11.000Z</Time>
            <Position>
              <LatitudeDegrees>44.10128454677760601043701171875</LatitudeDegrees>
              <LongitudeDegrees>-1.1572348885238170623779296875</LongitudeDegrees>
            </Position>
            <AltitudeMeters>43.40000152587890625</AltitudeMeters>
            <DistanceMeters>NAN</DistanceMeters>
          </Trackpoint>
          <Trackpoint>
            <Time>2022-07-06T08:41:17.000Z</Time>
            <Position>
              <LatitudeDegrees>44.100974500179290771484375</LatitudeDegrees>
              <LongitudeDegrees>-1.1572912149131298065185546875</LongitudeDegrees>
            </Position>
            <AltitudeMeters>43</AltitudeMeters>
            <DistanceMeters>NAN</DistanceMeters>
          </Trackpoint>
          <Trackpoint>
            <Time>2022-07-06T08:41:24.000Z</Time>
            <Position>
              <LatitudeDegrees>44.1006083786487579345703125</LatitudeDegrees>
              <LongitudeDegrees>-1.157368160784244537353515625</LongitudeDegrees>
            </Position>
            <AltitudeMeters>42.799999237060546875</AltitudeMeters>
            <DistanceMeters>NAN</DistanceMeters>
          </Trackpoint>
          <Trackpoint>
            <Time>2022-07-06T08:41:27.000Z</Time>
            <Position>
              <LatitudeDegrees>44.10044518299400806427001953125</LatitudeDegrees>
              <LongitudeDegrees>-1.15740814246237277984619140625</LongitudeDegrees>
            </Position>
            <AltitudeMeters>42.59999847412109375</AltitudeMeters>
            <DistanceMeters>NAN</DistanceMeters>
          </Trackpoint>
          <Trackpoint>
            <Time>2022-07-06T08:41:29.000Z</Time>
            <Position>
              <LatitudeDegrees>44.1003265790641307830810546875</LatitudeDegrees>
              <LongitudeDegrees>-1.157433874905109405517578125</LongitudeDegrees>
            </Position>
            <AltitudeMeters>42.40000152587890625</AltitudeMeters>
            <DistanceMeters>NAN</DistanceMeters>
          </Trackpoint>
          <Trackpoint>
            <Time>2022-07-06T08:41:30.000Z</Time>
            <Position>
              <LatitudeDegrees>44.10027385689318180084228515625</LatitudeDegrees>
              <LongitudeDegrees>-1.15744804032146930694580078125</LongitudeDegrees>
            </Position>
            <AltitudeMeters>42.40000152587890625</AltitudeMeters>
            <DistanceMeters>NAN</DistanceMeters>
          </Trackpoint>
          <Trackpoint>
            <Time>2022-07-06T08:41:31.000Z</Time>
            <Position>
              <LatitudeDegrees>44.1002209670841693878173828125</LatitudeDegrees>
              <LongitudeDegrees>-1.15746773779392242431640625</LongitudeDegrees>
            </Position>
            <AltitudeMeters>42.200000762939453125</AltitudeMeters>
            <DistanceMeters>NAN</DistanceMeters>
          </Trackpoint>
          <Trackpoint>
            <Time>2022-07-06T08:41:33.000Z</Time>
            <Position>
              <LatitudeDegrees>44.10012080334126949310302734375</LatitudeDegrees>
              <LongitudeDegrees>-1.1574893631041049957275390625</LongitudeDegrees>
            </Position>
            <AltitudeMeters>42</AltitudeMeters>
            <DistanceMeters>NAN</DistanceMeters>
          </Trackpoint>
          <Trackpoint>
            <Time>2022-07-06T08:41:38.000Z</Time>
            <Position>
              <LatitudeDegrees>44.09982852637767791748046875</LatitudeDegrees>
              <LongitudeDegrees>-1.157543174922466278076171875</LongitudeDegrees>
            </Position>
            <AltitudeMeters>41.799999237060546875</AltitudeMeters>
            <DistanceMeters>NAN</DistanceMeters>
          </Trackpoint>
          <Trackpoint>
            <Time>2022-07-06T08:41:46.000Z</Time>
            <Position>
              <LatitudeDegrees>44.099401049315929412841796875</LatitudeDegrees>
              <LongitudeDegrees>-1.157624311745166778564453125</LongitudeDegrees>
            </Position>
            <AltitudeMeters>41.59999847412109375</AltitudeMeters>
            <DistanceMeters>NAN</DistanceMeters>
          </Trackpoint>
          <Trackpoint>
            <Time>2022-07-06T08:41:48.000Z</Time>
            <Position>
              <LatitudeDegrees>44.09929468296468257904052734375</LatitudeDegrees>
              <LongitudeDegrees>-1.15763193927705287933349609375</LongitudeDegrees>
            </Position>
            <AltitudeMeters>41.40000152587890625</AltitudeMeters>
            <DistanceMeters>NAN</DistanceMeters>
          </Trackpoint>
          <Trackpoint>
            <Time>2022-07-06T08:41:50.000Z</Time>
            <Position>
              <LatitudeDegrees>44.09918085671961307525634765625</LatitudeDegrees>
              <LongitudeDegrees>-1.15764400921761989593505859375</LongitudeDegrees>
            </Position>
            <AltitudeMeters>41.40000152587890625</AltitudeMeters>
            <DistanceMeters>NAN</DistanceMeters>
          </Trackpoint>
          <Trackpoint>
            <Time>2022-07-06T08:41:52.000Z</Time>
            <Position>
              <LatitudeDegrees>44.09907055087387561798095703125</LatitudeDegrees>
              <LongitudeDegrees>-1.15766647271811962127685546875</LongitudeDegrees>
            </Position>
            <AltitudeMeters>41.200000762939453125</AltitudeMeters>
            <DistanceMeters>NAN</DistanceMeters>
          </Trackpoint>
          <Trackpoint>
            <Time>2022-07-06T08:41:55.000Z</Time>
            <Position>
              <LatitudeDegrees>44.09889939241111278533935546875</LatitudeDegrees>
              <LongitudeDegrees>-1.157696060836315155029296875</LongitudeDegrees>
            </Position>
            <AltitudeMeters>41.200000762939453125</AltitudeMeters>
            <DistanceMeters>NAN</DistanceMeters>
          </Trackpoint>
          <Trackpoint>
            <Time>2022-07-06T08:41:59.000Z</Time>
            <Position>
              <LatitudeDegrees>44.0986812114715576171875</LatitudeDegrees>
              <LongitudeDegrees>-1.15774258039891719818115234375</LongitudeDegrees>
            </Position>
            <AltitudeMeters>41.200000762939453125</AltitudeMeters>
            <DistanceMeters>NAN</DistanceMeters>
          </Trackpoint>
          <Trackpoint>
            <Time>2022-07-06T08:42:03.000Z</Time>
            <Position>
              <LatitudeDegrees>44.0984621085226535797119140625</LatitudeDegrees>
              <LongitudeDegrees>-1.1577800475060939788818359375</LongitudeDegrees>
            </Position>
            <AltitudeMeters>41</AltitudeMeters>
            <DistanceMeters>NAN</DistanceMeters>
          </Trackpoint>
          <Trackpoint>
            <Time>2022-07-06T08:42:06.000Z</Time>
            <Position>
              <LatitudeDegrees>44.098299331963062286376953125</LatitudeDegrees>
              <LongitudeDegrees>-1.15781952627003192901611328125</LongitudeDegrees>
            </Position>
            <AltitudeMeters>40.799999237060546875</AltitudeMeters>
            <DistanceMeters>NAN</DistanceMeters>
          </Trackpoint>
          <Trackpoint>
            <Time>2022-07-06T08:42:15.000Z</Time>
            <Position>
              <LatitudeDegrees>44.09781821072101593017578125</LatitudeDegrees>
              <LongitudeDegrees>-1.1579299159348011016845703125</LongitudeDegrees>
            </Position>
            <AltitudeMeters>40.799999237060546875</AltitudeMeters>
            <DistanceMeters>NAN</DistanceMeters>
          </Trackpoint>
          <Trackpoint>
            <Time>2022-07-06T08:42:20.000Z</Time>
            <Position>
              <LatitudeDegrees>44.097568094730377197265625</LatitudeDegrees>
              <LongitudeDegrees>-1.1579590849578380584716796875</LongitudeDegrees>
            </Position>
            <AltitudeMeters>40.59999847412109375</AltitudeMeters>
            <DistanceMeters>NAN</DistanceMeters>
          </Trackpoint>
          <Trackpoint>
            <Time>2022-07-06T08:42:21.000Z</Time>
            <Position>
              <LatitudeDegrees>44.097512774169445037841796875</LatitudeDegrees>
              <LongitudeDegrees>-1.15796394646167755126953125</LongitudeDegrees>
            </Position>
            <AltitudeMeters>40.59999847412109375</AltitudeMeters>
            <DistanceMeters>NAN</DistanceMeters>
          </Trackpoint>
          <Trackpoint>
            <Time>2022-07-06T08:42:25.000Z</Time>
            <Position>
              <LatitudeDegrees>44.09729509614408016204833984375</LatitudeDegrees>
              <LongitudeDegrees>-1.1579721607267856597900390625</LongitudeDegrees>
            </Position>
            <AltitudeMeters>40.59999847412109375</AltitudeMeters>
            <DistanceMeters>NAN</DistanceMeters>
          </Trackpoint>
          <Trackpoint>
            <Time>2022-07-06T08:42:33.000Z</Time>
            <Position>
              <LatitudeDegrees>44.096896536648273468017578125</LatitudeDegrees>
              <LongitudeDegrees>-1.15803502500057220458984375</LongitudeDegrees>
            </Position>
            <AltitudeMeters>40.59999847412109375</AltitudeMeters>
            <DistanceMeters>NAN</DistanceMeters>
          </Trackpoint>
          <Trackpoint>
            <Time>2022-07-06T08:42:36.000Z</Time>
            <Position>
              <LatitudeDegrees>44.0967337600886821746826171875</LatitudeDegrees>
              <LongitudeDegrees>-1.15804097615182399749755859375</LongitudeDegrees>
            </Position>
            <AltitudeMeters>40.200000762939453125</AltitudeMeters>
            <DistanceMeters>NAN</DistanceMeters>
          </Trackpoint>
          <Trackpoint>
            <Time>2022-07-06T08:42:37.000Z</Time>
            <Position>
              <LatitudeDegrees>44.0966858156025409698486328125</LatitudeDegrees>
              <LongitudeDegrees>-1.15803997032344341278076171875</LongitudeDegrees>
            </Position>
            <AltitudeMeters>40.200000762939453125</AltitudeMeters>
            <DistanceMeters>NAN</DistanceMeters>
          </Trackpoint>
          <Trackpoint>
            <Time>2022-07-06T08:42:40.000Z</Time>
            <Position>
              <LatitudeDegrees>44.09654877148568630218505859375</LatitudeDegrees>
              <LongitudeDegrees>-1.158049441874027252197265625</LongitudeDegrees>
            </Position>
            <AltitudeMeters>40</AltitudeMeters>
            <DistanceMeters>NAN</DistanceMeters>
          </Trackpoint>
          <Trackpoint>
            <Time>2022-07-06T08:42:41.000Z</Time>
            <Position>
              <LatitudeDegrees>44.09649780951440334320068359375</LatitudeDegrees>
              <LongitudeDegrees>-1.15805237554013729095458984375</LongitudeDegrees>
            </Position>
            <AltitudeMeters>39.799999237060546875</AltitudeMeters>
            <DistanceMeters>NAN</DistanceMeters>
          </Trackpoint>
          <Trackpoint>
            <Time>2022-07-06T08:42:49.000Z</Time>
            <Position>
              <LatitudeDegrees>44.0960974059998989105224609375</LatitudeDegrees>
              <LongitudeDegrees>-1.15808439441025257110595703125</LongitudeDegrees>
            </Position>
            <AltitudeMeters>39.799999237060546875</AltitudeMeters>
            <DistanceMeters>NAN</DistanceMeters>
          </Trackpoint>
          <Trackpoint>
            <Time>2022-07-06T08:42:55.000Z</Time>
            <Position>
              <LatitudeDegrees>44.09579792059957981109619140625</LatitudeDegrees>
              <LongitudeDegrees>-1.15810367278754711151123046875</LongitudeDegrees>
            </Position>
            <AltitudeMeters>40.200000762939453125</AltitudeMeters>
            <DistanceMeters>NAN</DistanceMeters>
          </Trackpoint>
          <Trackpoint>
            <Time>2022-07-06T08:42:58.000Z</Time>
            <Position>
              <LatitudeDegrees>44.0956504829227924346923828125</LatitudeDegrees>
              <LongitudeDegrees>-1.15809939801692962646484375</LongitudeDegrees>
            </Position>
            <AltitudeMeters>40.200000762939453125</AltitudeMeters>
            <DistanceMeters>NAN</DistanceMeters>
          </Trackpoint>
          <Trackpoint>
            <Time>2022-07-06T08:43:06.000Z</Time>
            <Position>
              <LatitudeDegrees>44.095259718596935272216796875</LatitudeDegrees>
              <LongitudeDegrees>-1.1581374518573284149169921875</LongitudeDegrees>
            </Position>
            <AltitudeMeters>39.59999847412109375</AltitudeMeters>
            <DistanceMeters>NAN</DistanceMeters>
          </Trackpoint>
          <Trackpoint>
            <Time>2022-07-06T08:43:07.000Z</Time>
            <Position>
              <LatitudeDegrees>44.095212109386920928955078125</LatitudeDegrees>
              <LongitudeDegrees>-1.1581416428089141845703125</LongitudeDegrees>
            </Position>
            <AltitudeMeters>39.59999847412109375</AltitudeMeters>
            <DistanceMeters>NAN</DistanceMeters>
          </Trackpoint>
          <Trackpoint>
            <Time>2022-07-06T08:43:13.000Z</Time>
            <Position>
              <LatitudeDegrees>44.09497297368943691253662109375</LatitudeDegrees>
              <LongitudeDegrees>-1.15815111435949802398681640625</LongitudeDegrees>
            </Position>
            <AltitudeMeters>39.40000152587890625</AltitudeMeters>
            <DistanceMeters>NAN</DistanceMeters>
          </Trackpoint>
          <Trackpoint>
            <Time>2022-07-06T08:43:18.000Z</Time>
            <Position>
              <LatitudeDegrees>44.09478957764804363250732421875</LatitudeDegrees>
              <LongitudeDegrees>-1.1581671237945556640625</LongitudeDegrees>
            </Position>
            <AltitudeMeters>39.40000152587890625</AltitudeMeters>
            <DistanceMeters>NAN</DistanceMeters>
          </Trackpoint>
          <Trackpoint>
            <Time>2022-07-06T08:43:19.000Z</Time>
            <Position>
              <LatitudeDegrees>44.0947552956640720367431640625</LatitudeDegrees>
              <LongitudeDegrees>-1.1581659503281116485595703125</LongitudeDegrees>
            </Position>
            <AltitudeMeters>39.40000152587890625</AltitudeMeters>
            <DistanceMeters>NAN</DistanceMeters>
          </Trackpoint>
          <Trackpoint>
            <Time>2022-07-06T08:43:22.000Z</Time>
            <Position>
              <LatitudeDegrees>44.0946537069976329803466796875</LatitudeDegrees>
              <LongitudeDegrees>-1.1581672914326190948486328125</LongitudeDegrees>
            </Position>
            <AltitudeMeters>39.200000762939453125</AltitudeMeters>
            <DistanceMeters>NAN</DistanceMeters>
          </Trackpoint>
          <Trackpoint>
            <Time>2022-07-06T08:43:28.000Z</Time>
            <Position>
              <LatitudeDegrees>44.09446737729012966156005859375</LatitudeDegrees>
              <LongitudeDegrees>-1.1581914313137531280517578125</LongitudeDegrees>
            </Position>
            <AltitudeMeters>39</AltitudeMeters>
            <DistanceMeters>NAN</DistanceMeters>
          </Trackpoint>
          <Trackpoint>
            <Time>2022-07-06T08:43:34.000Z</Time>
            <Position>
              <LatitudeDegrees>44.09419513307511806488037109375</LatitudeDegrees>
              <LongitudeDegrees>-1.1582051776349544525146484375</LongitudeDegrees>
            </Position>
            <AltitudeMeters>39.200000762939453125</AltitudeMeters>
            <DistanceMeters>NAN</DistanceMeters>
          </Trackpoint>
          <Trackpoint>
            <Time>2022-07-06T08:43:37.000Z</Time>
            <Position>
              <LatitudeDegrees>44.0940538980066776275634765625</LatitudeDegrees>
              <LongitudeDegrees>-1.15822470746934413909912109375</LongitudeDegrees>
            </Position>
            <AltitudeMeters>39</AltitudeMeters>
            <DistanceMeters>NAN</DistanceMeters>
          </Trackpoint>
          <Trackpoint>
            <Time>2022-07-06T08:43:39.000Z</Time>
            <Position>
              <LatitudeDegrees>44.0939600206911563873291015625</LatitudeDegrees>
              <LongitudeDegrees>-1.15822470746934413909912109375</LongitudeDegrees>
            </Position>
            <AltitudeMeters>38.799999237060546875</AltitudeMeters>
            <DistanceMeters>NAN</DistanceMeters>
          </Trackpoint>
          <Trackpoint>
            <Time>2022-07-06T08:43:40.000Z</Time>
            <Position>
              <LatitudeDegrees>44.0939224697649478912353515625</LatitudeDegrees>
              <LongitudeDegrees>-1.1582226119935512542724609375</LongitudeDegrees>
            </Position>
            <AltitudeMeters>38.799999237060546875</AltitudeMeters>
            <DistanceMeters>NAN</DistanceMeters>
          </Trackpoint>
          <Trackpoint>
            <Time>2022-07-06T08:43:47.000Z</Time>
            <Position>
              <LatitudeDegrees>44.0936485491693019866943359375</LatitudeDegrees>
              <LongitudeDegrees>-1.158235855400562286376953125</LongitudeDegrees>
            </Position>
            <AltitudeMeters>38.799999237060546875</AltitudeMeters>
            <DistanceMeters>NAN</DistanceMeters>
          </Trackpoint>
          <Trackpoint>
            <Time>2022-07-06T08:43:54.000Z</Time>
            <Position>
              <LatitudeDegrees>44.0933100879192352294921875</LatitudeDegrees>
              <LongitudeDegrees>-1.15827105939388275146484375</LongitudeDegrees>
            </Position>
            <AltitudeMeters>39.40000152587890625</AltitudeMeters>
            <DistanceMeters>NAN</DistanceMeters>
          </Trackpoint>
          <Trackpoint>
            <Time>2022-07-06T08:43:55.000Z</Time>
            <Position>
              <LatitudeDegrees>44.093266837298870086669921875</LatitudeDegrees>
              <LongitudeDegrees>-1.15827969275414943695068359375</LongitudeDegrees>
            </Position>
            <AltitudeMeters>39.59999847412109375</AltitudeMeters>
            <DistanceMeters>NAN</DistanceMeters>
          </Trackpoint>
          <Trackpoint>
            <Time>2022-07-06T08:44:03.000Z</Time>
            <Position>
              <LatitudeDegrees>44.0929183177649974822998046875</LatitudeDegrees>
              <LongitudeDegrees>-1.1582946963608264923095703125</LongitudeDegrees>
            </Position>
            <AltitudeMeters>39.59999847412109375</AltitudeMeters>
            <DistanceMeters>NAN</DistanceMeters>
          </Trackpoint>
          <Trackpoint>
            <Time>2022-07-06T08:44:04.000Z</Time>
            <Position>
              <LatitudeDegrees>44.092877246439456939697265625</LatitudeDegrees>
              <LongitudeDegrees>-1.1582950316369533538818359375</LongitudeDegrees>
            </Position>
            <AltitudeMeters>39.59999847412109375</AltitudeMeters>
            <DistanceMeters>NAN</DistanceMeters>
          </Trackpoint>
          <Trackpoint>
            <Time>2022-07-06T08:44:09.000Z</Time>
            <Position>
              <LatitudeDegrees>44.09264448098838329315185546875</LatitudeDegrees>
              <LongitudeDegrees>-1.15830651484429836273193359375</LongitudeDegrees>
            </Position>
            <AltitudeMeters>39.40000152587890625</AltitudeMeters>
            <DistanceMeters>NAN</DistanceMeters>
          </Trackpoint>
          <Trackpoint>
            <Time>2022-07-06T08:44:17.000Z</Time>
            <Position>
              <LatitudeDegrees>44.09232948906719684600830078125</LatitudeDegrees>
              <LongitudeDegrees>-1.158325374126434326171875</LongitudeDegrees>
            </Position>
            <AltitudeMeters>39.200000762939453125</AltitudeMeters>
            <DistanceMeters>NAN</DistanceMeters>
          </Trackpoint>
          <Trackpoint>
            <Time>2022-07-06T08:44:19.000Z</Time>
            <Position>
              <LatitudeDegrees>44.0922333486378192901611328125</LatitudeDegrees>
              <LongitudeDegrees>-1.15832931362092494964599609375</LongitudeDegrees>
            </Position>
            <AltitudeMeters>39.200000762939453125</AltitudeMeters>
            <DistanceMeters>NAN</DistanceMeters>
          </Trackpoint>
          <Trackpoint>
            <Time>2022-07-06T08:44:23.000Z</Time>
            <Position>
              <LatitudeDegrees>44.09207166172564029693603515625</LatitudeDegrees>
              <LongitudeDegrees>-1.15833945572376251220703125</LongitudeDegrees>
            </Position>
            <AltitudeMeters>39.200000762939453125</AltitudeMeters>
            <DistanceMeters>NAN</DistanceMeters>
          </Trackpoint>
          <Trackpoint>
            <Time>2022-07-06T08:44:34.000Z</Time>
            <Position>
              <LatitudeDegrees>44.0915792249143123626708984375</LatitudeDegrees>
              <LongitudeDegrees>-1.15835554897785186767578125</LongitudeDegrees>
            </Position>
            <AltitudeMeters>39.59999847412109375</AltitudeMeters>
            <DistanceMeters>NAN</DistanceMeters>
          </Trackpoint>
          <Trackpoint>
            <Time>2022-07-06T08:44:42.000Z</Time>
            <Position>
              <LatitudeDegrees>44.0912530012428760528564453125</LatitudeDegrees>
              <LongitudeDegrees>-1.15837340243160724639892578125</LongitudeDegrees>
            </Position>
            <AltitudeMeters>38.799999237060546875</AltitudeMeters>
            <DistanceMeters>NAN</DistanceMeters>
          </Trackpoint>
          <Trackpoint>
            <Time>2022-07-06T08:44:50.000Z</Time>
            <Position>
              <LatitudeDegrees>44.09088830463588237762451171875</LatitudeDegrees>
              <LongitudeDegrees>-1.15844062529504299163818359375</LongitudeDegrees>
            </Position>
            <AltitudeMeters>38</AltitudeMeters>
            <DistanceMeters>NAN</DistanceMeters>
          </Trackpoint>
          <Trackpoint>
            <Time>2022-07-06T08:44:51.000Z</Time>
            <Position>
              <LatitudeDegrees>44.09084186889231204986572265625</LatitudeDegrees>
              <LongitudeDegrees>-1.1584438942372798919677734375</LongitudeDegrees>
            </Position>
            <AltitudeMeters>37.799999237060546875</AltitudeMeters>
            <DistanceMeters>NAN</DistanceMeters>
          </Trackpoint>
          <Trackpoint>
            <Time>2022-07-06T08:45:00.000Z</Time>
            <Position>
              <LatitudeDegrees>44.09046049229800701141357421875</LatitudeDegrees>
              <LongitudeDegrees>-1.15848722867667675018310546875</LongitudeDegrees>
            </Position>
            <AltitudeMeters>37.799999237060546875</AltitudeMeters>
            <DistanceMeters>NAN</DistanceMeters>
          </Trackpoint>
          <Trackpoint>
            <Time>2022-07-06T08:45:03.000Z</Time>
            <Position>
              <LatitudeDegrees>44.090437777340412139892578125</LatitudeDegrees>
              <LongitudeDegrees>-1.1584901623427867889404296875</LongitudeDegrees>
            </Position>
            <AltitudeMeters>37</AltitudeMeters>
            <DistanceMeters>NAN</DistanceMeters>
          </Trackpoint>
          <Trackpoint>
            <Time>2022-07-06T08:45:04.000Z</Time>
            <Position>
              <LatitudeDegrees>44.09043216146528720855712890625</LatitudeDegrees>
              <LongitudeDegrees>-1.158492006361484527587890625</LongitudeDegrees>
            </Position>
            <AltitudeMeters>37</AltitudeMeters>
            <DistanceMeters>NAN</DistanceMeters>
          </Trackpoint>
          <Trackpoint>
            <Time>2022-07-06T08:45:08.000Z</Time>
            <Position>
              <LatitudeDegrees>44.09036376513540744781494140625</LatitudeDegrees>
              <LongitudeDegrees>-1.15849980153143405914306640625</LongitudeDegrees>
            </Position>
            <AltitudeMeters>36.799999237060546875</AltitudeMeters>
            <DistanceMeters>NAN</DistanceMeters>
          </Trackpoint>
          <Trackpoint>
            <Time>2022-07-06T08:45:10.000Z</Time>
            <Position>
              <LatitudeDegrees>44.09031850285828113555908203125</LatitudeDegrees>
              <LongitudeDegrees>-1.15849745459854602813720703125</LongitudeDegrees>
            </Position>
            <AltitudeMeters>36.799999237060546875</AltitudeMeters>
            <DistanceMeters>NAN</DistanceMeters>
          </Trackpoint>
          <Trackpoint>
            <Time>2022-07-06T08:45:13.000Z</Time>
            <Position>
              <LatitudeDegrees>44.090244658291339874267578125</LatitudeDegrees>
              <LongitudeDegrees>-1.1584930121898651123046875</LongitudeDegrees>
            </Position>
            <AltitudeMeters>36.59999847412109375</AltitudeMeters>
            <DistanceMeters>NAN</DistanceMeters>
          </Trackpoint>
          <Trackpoint>
            <Time>2022-07-06T08:45:17.000Z</Time>
            <Position>
              <LatitudeDegrees>44.09019595943391323089599609375</LatitudeDegrees>
              <LongitudeDegrees>-1.15850248374044895172119140625</LongitudeDegrees>
            </Position>
            <AltitudeMeters>36.799999237060546875</AltitudeMeters>
            <DistanceMeters>NAN</DistanceMeters>
          </Trackpoint>
          <Trackpoint>
            <Time>2022-07-06T08:45:19.000Z</Time>
            <Position>
              <LatitudeDegrees>44.09019595943391323089599609375</LatitudeDegrees>
              <LongitudeDegrees>-1.15850248374044895172119140625</LongitudeDegrees>
            </Position>
            <AltitudeMeters>37</AltitudeMeters>
            <DistanceMeters>NAN</DistanceMeters>
          </Trackpoint>
          <Trackpoint>
            <Time>2022-07-06T08:46:45.000Z</Time>
            <Position>
              <LatitudeDegrees>44.09000887535512447357177734375</LatitudeDegrees>
              <LongitudeDegrees>-1.1585189960896968841552734375</LongitudeDegrees>
            </Position>
            <AltitudeMeters>37.59999847412109375</AltitudeMeters>
            <DistanceMeters>NAN</DistanceMeters>
          </Trackpoint>
          <Trackpoint>
            <Time>2022-07-06T08:46:46.000Z</Time>
            <Position>
              <LatitudeDegrees>44.0899880044162273406982421875</LatitudeDegrees>
              <LongitudeDegrees>-1.158514805138111114501953125</LongitudeDegrees>
            </Position>
            <AltitudeMeters>37.59999847412109375</AltitudeMeters>
            <DistanceMeters>NAN</DistanceMeters>
          </Trackpoint>
          <Trackpoint>
            <Time>2022-07-06T08:46:52.000Z</Time>
            <Position>
              <LatitudeDegrees>44.08987157978117465972900390625</LatitudeDegrees>
              <LongitudeDegrees>-1.158518157899379730224609375</LongitudeDegrees>
            </Position>
            <AltitudeMeters>38</AltitudeMeters>
            <DistanceMeters>NAN</DistanceMeters>
          </Trackpoint>
          <Trackpoint>
            <Time>2022-07-06T08:46:54.000Z</Time>
            <Position>
              <LatitudeDegrees>44.0898378007113933563232421875</LatitudeDegrees>
              <LongitudeDegrees>-1.1585216782987117767333984375</LongitudeDegrees>
            </Position>
            <AltitudeMeters>38</AltitudeMeters>
            <DistanceMeters>NAN</DistanceMeters>
          </Trackpoint>
          <Trackpoint>
            <Time>2022-07-06T08:47:00.000Z</Time>
            <Position>
              <LatitudeDegrees>44.0897244773805141448974609375</LatitudeDegrees>
              <LongitudeDegrees>-1.15855042822659015655517578125</LongitudeDegrees>
            </Position>
            <AltitudeMeters>38</AltitudeMeters>
            <DistanceMeters>NAN</DistanceMeters>
          </Trackpoint>
          <Trackpoint>
            <Time>2022-07-06T08:47:06.000Z</Time>
            <Position>
              <LatitudeDegrees>44.08957955427467823028564453125</LatitudeDegrees>
              <LongitudeDegrees>-1.15854196250438690185546875</LongitudeDegrees>
            </Position>
            <AltitudeMeters>37.59999847412109375</AltitudeMeters>
            <DistanceMeters>NAN</DistanceMeters>
          </Trackpoint>
          <Trackpoint>
            <Time>2022-07-06T08:47:13.000Z</Time>
            <Position>
              <LatitudeDegrees>44.08948215655982494354248046875</LatitudeDegrees>
              <LongitudeDegrees>-1.1585632525384426116943359375</LongitudeDegrees>
            </Position>
            <AltitudeMeters>37.40000152587890625</AltitudeMeters>
            <DistanceMeters>NAN</DistanceMeters>
          </Trackpoint>
          <Trackpoint>
            <Time>2022-07-06T08:47:16.000Z</Time>
            <Position>
              <LatitudeDegrees>44.0894579328596591949462890625</LatitudeDegrees>
              <LongitudeDegrees>-1.15853718481957912445068359375</LongitudeDegrees>
            </Position>
            <AltitudeMeters>37.59999847412109375</AltitudeMeters>
            <DistanceMeters>NAN</DistanceMeters>
          </Trackpoint>
          <Trackpoint>
            <Time>2022-07-06T08:47:18.000Z</Time>
            <Position>
              <LatitudeDegrees>44.089456088840961456298828125</LatitudeDegrees>
              <LongitudeDegrees>-1.15853567607700824737548828125</LongitudeDegrees>
            </Position>
            <AltitudeMeters>37.59999847412109375</AltitudeMeters>
            <DistanceMeters>NAN</DistanceMeters>
          </Trackpoint>
          <Trackpoint>
            <Time>2022-07-06T08:47:21.000Z</Time>
            <Position>
              <LatitudeDegrees>44.08945449627935886383056640625</LatitudeDegrees>
              <LongitudeDegrees>-1.1585394479334354400634765625</LongitudeDegrees>
            </Position>
            <AltitudeMeters>37.59999847412109375</AltitudeMeters>
            <DistanceMeters>NAN</DistanceMeters>
          </Trackpoint>
          <Trackpoint>
            <Time>2022-07-06T08:47:27.000Z</Time>
            <Position>
              <LatitudeDegrees>44.0894039534032344818115234375</LatitudeDegrees>
              <LongitudeDegrees>-1.15853467024862766265869140625</LongitudeDegrees>
            </Position>
            <AltitudeMeters>37.799999237060546875</AltitudeMeters>
            <DistanceMeters>NAN</DistanceMeters>
          </Trackpoint>
          <Trackpoint>
            <Time>2022-07-06T08:47:30.000Z</Time>
            <Position>
              <LatitudeDegrees>44.08934620209038257598876953125</LatitudeDegrees>
              <LongitudeDegrees>-1.1585412919521331787109375</LongitudeDegrees>
            </Position>
            <AltitudeMeters>37.799999237060546875</AltitudeMeters>
            <DistanceMeters>NAN</DistanceMeters>
          </Trackpoint>
          <Trackpoint>
            <Time>2022-07-06T08:47:33.000Z</Time>
            <Position>
              <LatitudeDegrees>44.08925903029739856719970703125</LatitudeDegrees>
              <LongitudeDegrees>-1.1585293896496295928955078125</LongitudeDegrees>
            </Position>
            <AltitudeMeters>37.59999847412109375</AltitudeMeters>
            <DistanceMeters>NAN</DistanceMeters>
          </Trackpoint>
          <Trackpoint>
            <Time>2022-07-06T08:47:36.000Z</Time>
            <Position>
              <LatitudeDegrees>44.08919482491910457611083984375</LatitudeDegrees>
              <LongitudeDegrees>-1.15852712653577327728271484375</LongitudeDegrees>
            </Position>
            <AltitudeMeters>37.59999847412109375</AltitudeMeters>
            <DistanceMeters>NAN</DistanceMeters>
          </Trackpoint>
          <Trackpoint>
            <Time>2022-07-06T08:47:43.000Z</Time>
            <Position>
              <LatitudeDegrees>44.0889932401478290557861328125</LatitudeDegrees>
              <LongitudeDegrees>-1.15856149233877658843994140625</LongitudeDegrees>
            </Position>
            <AltitudeMeters>37.40000152587890625</AltitudeMeters>
            <DistanceMeters>NAN</DistanceMeters>
          </Trackpoint>
          <Trackpoint>
            <Time>2022-07-06T08:47:49.000Z</Time>
            <Position>
              <LatitudeDegrees>44.08892090432345867156982421875</LatitudeDegrees>
              <LongitudeDegrees>-1.15857121534645557403564453125</LongitudeDegrees>
            </Position>
            <AltitudeMeters>37.59999847412109375</AltitudeMeters>
            <DistanceMeters>NAN</DistanceMeters>
          </Trackpoint>
          <Trackpoint>
            <Time>2022-07-06T08:47:53.000Z</Time>
            <Position>
              <LatitudeDegrees>44.0888852812349796295166015625</LatitudeDegrees>
              <LongitudeDegrees>-1.1585883982479572296142578125</LongitudeDegrees>
            </Position>
            <AltitudeMeters>37.59999847412109375</AltitudeMeters>
            <DistanceMeters>NAN</DistanceMeters>
          </Trackpoint>
          <Trackpoint>
            <Time>2022-07-06T08:47:54.000Z</Time>
            <Position>
              <LatitudeDegrees>44.0888852812349796295166015625</LatitudeDegrees>
              <LongitudeDegrees>-1.1585883982479572296142578125</LongitudeDegrees>
            </Position>
            <AltitudeMeters>37.59999847412109375</AltitudeMeters>
            <DistanceMeters>NAN</DistanceMeters>
          </Trackpoint>
          <Trackpoint>
            <Time>2022-07-06T08:49:24.000Z</Time>
            <Position>
              <LatitudeDegrees>44.08817055635154247283935546875</LatitudeDegrees>
              <LongitudeDegrees>-1.1585525237023830413818359375</LongitudeDegrees>
            </Position>
            <AltitudeMeters>35.59999847412109375</AltitudeMeters>
            <DistanceMeters>NAN</DistanceMeters>
          </Trackpoint>
          <Trackpoint>
            <Time>2022-07-06T08:49:29.000Z</Time>
            <Position>
              <LatitudeDegrees>44.08810400404036045074462890625</LatitudeDegrees>
              <LongitudeDegrees>-1.15856870077550411224365234375</LongitudeDegrees>
            </Position>
            <AltitudeMeters>35.59999847412109375</AltitudeMeters>
            <DistanceMeters>NAN</DistanceMeters>
          </Trackpoint>
          <Trackpoint>
            <Time>2022-07-06T08:49:30.000Z</Time>
            <Position>
              <LatitudeDegrees>44.08810115419328212738037109375</LatitudeDegrees>
              <LongitudeDegrees>-1.1585689522325992584228515625</LongitudeDegrees>
            </Position>
            <AltitudeMeters>35.59999847412109375</AltitudeMeters>
            <DistanceMeters>NAN</DistanceMeters>
          </Trackpoint>
          <Trackpoint>
            <Time>2022-07-06T08:49:34.000Z</Time>
            <Position>
              <LatitudeDegrees>44.0880776010453701019287109375</LatitudeDegrees>
              <LongitudeDegrees>-1.1585870571434497833251953125</LongitudeDegrees>
            </Position>
            <AltitudeMeters>35.40000152587890625</AltitudeMeters>
            <DistanceMeters>NAN</DistanceMeters>
          </Trackpoint>
          <Trackpoint>
            <Time>2022-07-06T08:49:35.000Z</Time>
            <Position>
              <LatitudeDegrees>44.08806159161031246185302734375</LatitudeDegrees>
              <LongitudeDegrees>-1.15859384648501873016357421875</LongitudeDegrees>
            </Position>
            <AltitudeMeters>35.40000152587890625</AltitudeMeters>
            <DistanceMeters>NAN</DistanceMeters>
          </Trackpoint>
          <Trackpoint>
            <Time>2022-07-06T08:49:36.000Z</Time>
            <Position>
              <LatitudeDegrees>44.08804818056523799896240234375</LatitudeDegrees>
              <LongitudeDegrees>-1.15859971381723880767822265625</LongitudeDegrees>
            </Position>
            <AltitudeMeters>35.40000152587890625</AltitudeMeters>
            <DistanceMeters>NAN</DistanceMeters>
          </Trackpoint>
          <Trackpoint>
            <Time>2022-07-06T08:49:40.000Z</Time>
            <Position>
              <LatitudeDegrees>44.08801347948610782623291015625</LatitudeDegrees>
              <LongitudeDegrees>-1.1586202494800090789794921875</LongitudeDegrees>
            </Position>
            <AltitudeMeters>35.40000152587890625</AltitudeMeters>
            <DistanceMeters>NAN</DistanceMeters>
          </Trackpoint>
          <Trackpoint>
            <Time>2022-07-06T08:49:42.000Z</Time>
            <Position>
              <LatitudeDegrees>44.08798079006373882293701171875</LatitudeDegrees>
              <LongitudeDegrees>-1.158631145954132080078125</LongitudeDegrees>
            </Position>
            <AltitudeMeters>35.40000152587890625</AltitudeMeters>
            <DistanceMeters>NAN</DistanceMeters>
          </Trackpoint>
          <Trackpoint>
            <Time>2022-07-06T08:49:43.000Z</Time>
            <Position>
              <LatitudeDegrees>44.087965451180934906005859375</LatitudeDegrees>
              <LongitudeDegrees>-1.15863575600087642669677734375</LongitudeDegrees>
            </Position>
            <AltitudeMeters>35.40000152587890625</AltitudeMeters>
            <DistanceMeters>NAN</DistanceMeters>
          </Trackpoint>
          <Trackpoint>
            <Time>2022-07-06T08:49:46.000Z</Time>
            <Position>
              <LatitudeDegrees>44.0879376232624053955078125</LatitudeDegrees>
              <LongitudeDegrees>-1.15863315761089324951171875</LongitudeDegrees>
            </Position>
            <AltitudeMeters>35.40000152587890625</AltitudeMeters>
            <DistanceMeters>NAN</DistanceMeters>
          </Trackpoint>
          <Trackpoint>
            <Time>2022-07-06T08:49:49.000Z</Time>
            <Position>
              <LatitudeDegrees>44.0879376232624053955078125</LatitudeDegrees>
              <LongitudeDegrees>-1.15863315761089324951171875</LongitudeDegrees>
            </Position>
            <AltitudeMeters>35.40000152587890625</AltitudeMeters>
            <DistanceMeters>NAN</DistanceMeters>
          </Trackpoint>
          <Trackpoint>
            <Time>2022-07-06T08:49:55.000Z</Time>
            <Position>
              <LatitudeDegrees>44.0878757648169994354248046875</LatitudeDegrees>
              <LongitudeDegrees>-1.1586427129805088043212890625</LongitudeDegrees>
            </Position>
            <AltitudeMeters>35.59999847412109375</AltitudeMeters>
            <DistanceMeters>NAN</DistanceMeters>
          </Trackpoint>
          <Trackpoint>
            <Time>2022-07-06T08:49:57.000Z</Time>
            <Position>
              <LatitudeDegrees>44.0878516249358654022216796875</LatitudeDegrees>
              <LongitudeDegrees>-1.158647239208221435546875</LongitudeDegrees>
            </Position>
            <AltitudeMeters>35.59999847412109375</AltitudeMeters>
            <DistanceMeters>NAN</DistanceMeters>
          </Trackpoint>
          <Trackpoint>
            <Time>2022-07-06T08:50:02.000Z</Time>
            <Position>
              <LatitudeDegrees>44.08776219002902507781982421875</LatitudeDegrees>
              <LongitudeDegrees>-1.15864179097115993499755859375</LongitudeDegrees>
            </Position>
            <AltitudeMeters>35.40000152587890625</AltitudeMeters>
            <DistanceMeters>NAN</DistanceMeters>
          </Trackpoint>
          <Trackpoint>
            <Time>2022-07-06T08:50:05.000Z</Time>
            <Position>
              <LatitudeDegrees>44.08768457360565662384033203125</LatitudeDegrees>
              <LongitudeDegrees>-1.15864061750471591949462890625</LongitudeDegrees>
            </Position>
            <AltitudeMeters>35.200000762939453125</AltitudeMeters>
            <DistanceMeters>NAN</DistanceMeters>
          </Trackpoint>
          <Trackpoint>
            <Time>2022-07-06T08:50:08.000Z</Time>
            <Position>
              <LatitudeDegrees>44.08762137405574321746826171875</LatitudeDegrees>
              <LongitudeDegrees>-1.1586189083755016326904296875</LongitudeDegrees>
            </Position>
            <AltitudeMeters>35</AltitudeMeters>
            <DistanceMeters>NAN</DistanceMeters>
          </Trackpoint>
          <Trackpoint>
            <Time>2022-07-06T08:50:17.000Z</Time>
            <Position>
              <LatitudeDegrees>44.08740059472620487213134765625</LatitudeDegrees>
              <LongitudeDegrees>-1.15865997970104217529296875</LongitudeDegrees>
            </Position>
            <AltitudeMeters>35</AltitudeMeters>
            <DistanceMeters>NAN</DistanceMeters>
          </Trackpoint>
          <Trackpoint>
            <Time>2022-07-06T08:50:19.000Z</Time>
            <Position>
              <LatitudeDegrees>44.08737100660800933837890625</LatitudeDegrees>
              <LongitudeDegrees>-1.1586497537791728973388671875</LongitudeDegrees>
            </Position>
            <AltitudeMeters>34.799999237060546875</AltitudeMeters>
            <DistanceMeters>NAN</DistanceMeters>
          </Trackpoint>
          <Trackpoint>
            <Time>2022-07-06T08:50:20.000Z</Time>
            <Position>
              <LatitudeDegrees>44.0873582661151885986328125</LatitudeDegrees>
              <LongitudeDegrees>-1.1586380191147327423095703125</LongitudeDegrees>
            </Position>
            <AltitudeMeters>34.799999237060546875</AltitudeMeters>
            <DistanceMeters>NAN</DistanceMeters>
          </Trackpoint>
          <Trackpoint>
            <Time>2022-07-06T08:50:22.000Z</Time>
            <Position>
              <LatitudeDegrees>44.08731660805642604827880859375</LatitudeDegrees>
              <LongitudeDegrees>-1.15863726474344730377197265625</LongitudeDegrees>
            </Position>
            <AltitudeMeters>34.799999237060546875</AltitudeMeters>
            <DistanceMeters>NAN</DistanceMeters>
          </Trackpoint>
          <Trackpoint>
            <Time>2022-07-06T08:50:26.000Z</Time>
            <Position>
              <LatitudeDegrees>44.08730101771652698516845703125</LatitudeDegrees>
              <LongitudeDegrees>-1.1586413718760013580322265625</LongitudeDegrees>
            </Position>
            <AltitudeMeters>34.799999237060546875</AltitudeMeters>
            <DistanceMeters>NAN</DistanceMeters>
          </Trackpoint>
          <Trackpoint>
            <Time>2022-07-06T08:50:46.000Z</Time>
            <Position>
              <LatitudeDegrees>44.08721669577062129974365234375</LatitudeDegrees>
              <LongitudeDegrees>-1.1586458981037139892578125</LongitudeDegrees>
            </Position>
            <AltitudeMeters>34.799999237060546875</AltitudeMeters>
            <DistanceMeters>NAN</DistanceMeters>
          </Trackpoint>
          <Trackpoint>
            <Time>2022-07-06T08:50:52.000Z</Time>
            <Position>
              <LatitudeDegrees>44.08707420341670513153076171875</LatitudeDegrees>
              <LongitudeDegrees>-1.15868085063993930816650390625</LongitudeDegrees>
            </Position>
            <AltitudeMeters>34.799999237060546875</AltitudeMeters>
            <DistanceMeters>NAN</DistanceMeters>
          </Trackpoint>
          <Trackpoint>
            <Time>2022-07-06T08:50:54.000Z</Time>
            <Position>
              <LatitudeDegrees>44.087031371891498565673828125</LatitudeDegrees>
              <LongitudeDegrees>-1.15868185646831989288330078125</LongitudeDegrees>
            </Position>
            <AltitudeMeters>34.59999847412109375</AltitudeMeters>
            <DistanceMeters>NAN</DistanceMeters>
          </Trackpoint>
          <Trackpoint>
            <Time>2022-07-06T08:50:55.000Z</Time>
            <Position>
              <LatitudeDegrees>44.0870221517980098724365234375</LatitudeDegrees>
              <LongitudeDegrees>-1.15868738852441310882568359375</LongitudeDegrees>
            </Position>
            <AltitudeMeters>34.59999847412109375</AltitudeMeters>
            <DistanceMeters>NAN</DistanceMeters>
          </Trackpoint>
          <Trackpoint>
            <Time>2022-07-06T08:50:58.000Z</Time>
            <Position>
              <LatitudeDegrees>44.0870094113051891326904296875</LatitudeDegrees>
              <LongitudeDegrees>-1.15868889726698398590087890625</LongitudeDegrees>
            </Position>
            <AltitudeMeters>34.59999847412109375</AltitudeMeters>
            <DistanceMeters>NAN</DistanceMeters>
          </Trackpoint>
          <Trackpoint>
            <Time>2022-07-06T08:50:59.000Z</Time>
            <Position>
              <LatitudeDegrees>44.0870094113051891326904296875</LatitudeDegrees>
              <LongitudeDegrees>-1.15868889726698398590087890625</LongitudeDegrees>
            </Position>
            <AltitudeMeters>34.59999847412109375</AltitudeMeters>
            <DistanceMeters>NAN</DistanceMeters>
          </Trackpoint>
          <Trackpoint>
            <Time>2022-07-06T08:51:05.000Z</Time>
            <Position>
              <LatitudeDegrees>44.0869438648223876953125</LatitudeDegrees>
              <LongitudeDegrees>-1.1587258614599704742431640625</LongitudeDegrees>
            </Position>
            <AltitudeMeters>34.59999847412109375</AltitudeMeters>
            <DistanceMeters>NAN</DistanceMeters>
          </Trackpoint>
          <Trackpoint>
            <Time>2022-07-06T08:51:07.000Z</Time>
            <Position>
              <LatitudeDegrees>44.0869098342955112457275390625</LatitudeDegrees>
              <LongitudeDegrees>-1.15873784758150577545166015625</LongitudeDegrees>
            </Position>
            <AltitudeMeters>34.59999847412109375</AltitudeMeters>
            <DistanceMeters>NAN</DistanceMeters>
          </Trackpoint>
          <Trackpoint>
            <Time>2022-07-06T08:51:08.000Z</Time>
            <Position>
              <LatitudeDegrees>44.08689600415527820587158203125</LatitudeDegrees>
              <LongitudeDegrees>-1.15873432718217372894287109375</LongitudeDegrees>
            </Position>
            <AltitudeMeters>34.59999847412109375</AltitudeMeters>
            <DistanceMeters>NAN</DistanceMeters>
          </Trackpoint>
          <Trackpoint>
            <Time>2022-07-06T08:51:10.000Z</Time>
            <Position>
              <LatitudeDegrees>44.08686717040836811065673828125</LatitudeDegrees>
              <LongitudeDegrees>-1.15871764719486236572265625</LongitudeDegrees>
            </Position>
            <AltitudeMeters>34.799999237060546875</AltitudeMeters>
            <DistanceMeters>NAN</DistanceMeters>
          </Trackpoint>
          <Trackpoint>
            <Time>2022-07-06T08:51:11.000Z</Time>
            <Position>
              <LatitudeDegrees>44.086848981678485870361328125</LatitudeDegrees>
              <LongitudeDegrees>-1.158717311918735504150390625</LongitudeDegrees>
            </Position>
            <AltitudeMeters>34.59999847412109375</AltitudeMeters>
            <DistanceMeters>NAN</DistanceMeters>
          </Trackpoint>
          <Trackpoint>
            <Time>2022-07-06T08:51:13.000Z</Time>
            <Position>
              <LatitudeDegrees>44.08682241104543209075927734375</LatitudeDegrees>
              <LongitudeDegrees>-1.15871102549135684967041015625</LongitudeDegrees>
            </Position>
            <AltitudeMeters>34.59999847412109375</AltitudeMeters>
            <DistanceMeters>NAN</DistanceMeters>
          </Trackpoint>
          <Trackpoint>
            <Time>2022-07-06T08:51:15.000Z</Time>
            <Position>
              <LatitudeDegrees>44.08679273910820484161376953125</LatitudeDegrees>
              <LongitudeDegrees>-1.15871764719486236572265625</LongitudeDegrees>
            </Position>
            <AltitudeMeters>34.59999847412109375</AltitudeMeters>
            <DistanceMeters>NAN</DistanceMeters>
          </Trackpoint>
          <Trackpoint>
            <Time>2022-07-06T08:51:22.000Z</Time>
            <Position>
              <LatitudeDegrees>44.08666818402707576751708984375</LatitudeDegrees>
              <LongitudeDegrees>-1.15875444374978542327880859375</LongitudeDegrees>
            </Position>
            <AltitudeMeters>34.40000152587890625</AltitudeMeters>
            <DistanceMeters>NAN</DistanceMeters>
          </Trackpoint>
          <Trackpoint>
            <Time>2022-07-06T08:51:26.000Z</Time>
            <Position>
              <LatitudeDegrees>44.08659844659268856048583984375</LatitudeDegrees>
              <LongitudeDegrees>-1.1587424576282501220703125</LongitudeDegrees>
            </Position>
            <AltitudeMeters>34.200000762939453125</AltitudeMeters>
            <DistanceMeters>NAN</DistanceMeters>
          </Trackpoint>
          <Trackpoint>
            <Time>2022-07-06T08:51:27.000Z</Time>
            <Position>
              <LatitudeDegrees>44.08658017404377460479736328125</LatitudeDegrees>
              <LongitudeDegrees>-1.1587422899901866912841796875</LongitudeDegrees>
            </Position>
            <AltitudeMeters>34.200000762939453125</AltitudeMeters>
            <DistanceMeters>NAN</DistanceMeters>
          </Trackpoint>
          <Trackpoint>
            <Time>2022-07-06T08:51:29.000Z</Time>
            <Position>
              <LatitudeDegrees>44.08655184321105480194091796875</LatitudeDegrees>
              <LongitudeDegrees>-1.15874036215245723724365234375</LongitudeDegrees>
            </Position>
            <AltitudeMeters>34.200000762939453125</AltitudeMeters>
            <DistanceMeters>NAN</DistanceMeters>
          </Trackpoint>
          <Trackpoint>
            <Time>2022-07-06T08:51:33.000Z</Time>
            <Position>
              <LatitudeDegrees>44.08648344688117504119873046875</LatitudeDegrees>
              <LongitudeDegrees>-1.1587121151387691497802734375</LongitudeDegrees>
            </Position>
            <AltitudeMeters>34.200000762939453125</AltitudeMeters>
            <DistanceMeters>NAN</DistanceMeters>
          </Trackpoint>
          <Trackpoint>
            <Time>2022-07-06T08:51:37.000Z</Time>
            <Position>
              <LatitudeDegrees>44.08638085238635540008544921875</LatitudeDegrees>
              <LongitudeDegrees>-1.158706247806549072265625</LongitudeDegrees>
            </Position>
            <AltitudeMeters>34.200000762939453125</AltitudeMeters>
            <DistanceMeters>NAN</DistanceMeters>
          </Trackpoint>
          <Trackpoint>
            <Time>2022-07-06T08:51:43.000Z</Time>
            <Position>
              <LatitudeDegrees>44.08623232506215572357177734375</LatitudeDegrees>
              <LongitudeDegrees>-1.15867917425930500030517578125</LongitudeDegrees>
            </Position>
            <AltitudeMeters>34.40000152587890625</AltitudeMeters>
            <DistanceMeters>NAN</DistanceMeters>
          </Trackpoint>
          <Trackpoint>
            <Time>2022-07-06T08:51:44.000Z</Time>
            <Position>
              <LatitudeDegrees>44.08620483241975307464599609375</LatitudeDegrees>
              <LongitudeDegrees>-1.1586792580783367156982421875</LongitudeDegrees>
            </Position>
            <AltitudeMeters>34.40000152587890625</AltitudeMeters>
            <DistanceMeters>NAN</DistanceMeters>
          </Trackpoint>
          <Trackpoint>
            <Time>2022-07-06T08:51:49.000Z</Time>
            <Position>
              <LatitudeDegrees>44.086152613162994384765625</LatitudeDegrees>
              <LongitudeDegrees>-1.1586909927427768707275390625</LongitudeDegrees>
            </Position>
            <AltitudeMeters>34</AltitudeMeters>
            <DistanceMeters>NAN</DistanceMeters>
          </Trackpoint>
          <Trackpoint>
            <Time>2022-07-06T08:52:10.000Z</Time>
            <Position>
              <LatitudeDegrees>44.08603451214730739593505859375</LatitudeDegrees>
              <LongitudeDegrees>-1.15868621505796909332275390625</LongitudeDegrees>
            </Position>
            <AltitudeMeters>33.799999237060546875</AltitudeMeters>
            <DistanceMeters>NAN</DistanceMeters>
          </Trackpoint>
          <Trackpoint>
            <Time>2022-07-06T08:52:12.000Z</Time>
            <Position>
              <LatitudeDegrees>44.08600442111492156982421875</LatitudeDegrees>
              <LongitudeDegrees>-1.1586983688175678253173828125</LongitudeDegrees>
            </Position>
            <AltitudeMeters>33.799999237060546875</AltitudeMeters>
            <DistanceMeters>NAN</DistanceMeters>
          </Trackpoint>
          <Trackpoint>
            <Time>2022-07-06T08:52:13.000Z</Time>
            <Position>
              <LatitudeDegrees>44.08598707057535648345947265625</LatitudeDegrees>
              <LongitudeDegrees>-1.15870733745396137237548828125</LongitudeDegrees>
            </Position>
            <AltitudeMeters>33.799999237060546875</AltitudeMeters>
            <DistanceMeters>NAN</DistanceMeters>
          </Trackpoint>
          <Trackpoint>
            <Time>2022-07-06T08:52:18.000Z</Time>
            <Position>
              <LatitudeDegrees>44.08595588989555835723876953125</LatitudeDegrees>
              <LongitudeDegrees>-1.15872745402157306671142578125</LongitudeDegrees>
            </Position>
            <AltitudeMeters>33.799999237060546875</AltitudeMeters>
            <DistanceMeters>NAN</DistanceMeters>
          </Trackpoint>
          <Trackpoint>
            <Time>2022-07-06T08:52:22.000Z</Time>
            <Position>
              <LatitudeDegrees>44.0858691371977329254150390625</LatitudeDegrees>
              <LongitudeDegrees>-1.1587553657591342926025390625</LongitudeDegrees>
            </Position>
            <AltitudeMeters>34</AltitudeMeters>
            <DistanceMeters>NAN</DistanceMeters>
          </Trackpoint>
          <Trackpoint>
            <Time>2022-07-06T08:52:28.000Z</Time>
            <Position>
              <LatitudeDegrees>44.0856961347162723541259765625</LatitudeDegrees>
              <LongitudeDegrees>-1.15876466967165470123291015625</LongitudeDegrees>
            </Position>
            <AltitudeMeters>34.200000762939453125</AltitudeMeters>
            <DistanceMeters>NAN</DistanceMeters>
          </Trackpoint>
          <Trackpoint>
            <Time>2022-07-06T08:52:34.000Z</Time>
            <Position>
              <LatitudeDegrees>44.0855868346989154815673828125</LatitudeDegrees>
              <LongitudeDegrees>-1.15878076292574405670166015625</LongitudeDegrees>
            </Position>
            <AltitudeMeters>34.200000762939453125</AltitudeMeters>
            <DistanceMeters>NAN</DistanceMeters>
          </Trackpoint>
          <Trackpoint>
            <Time>2022-07-06T08:52:35.000Z</Time>
            <Position>
              <LatitudeDegrees>44.08557526767253875732421875</LatitudeDegrees>
              <LongitudeDegrees>-1.1587945930659770965576171875</LongitudeDegrees>
            </Position>
            <AltitudeMeters>34.200000762939453125</AltitudeMeters>
            <DistanceMeters>NAN</DistanceMeters>
          </Trackpoint>
          <Trackpoint>
            <Time>2022-07-06T08:52:42.000Z</Time>
            <Position>
              <LatitudeDegrees>44.08540427684783935546875</LatitudeDegrees>
              <LongitudeDegrees>-1.1588121950626373291015625</LongitudeDegrees>
            </Position>
            <AltitudeMeters>34</AltitudeMeters>
            <DistanceMeters>NAN</DistanceMeters>
          </Trackpoint>
          <Trackpoint>
            <Time>2022-07-06T08:52:45.000Z</Time>
            <Position>
              <LatitudeDegrees>44.085302688181400299072265625</LatitudeDegrees>
              <LongitudeDegrees>-1.15881077013909816741943359375</LongitudeDegrees>
            </Position>
            <AltitudeMeters>34</AltitudeMeters>
            <DistanceMeters>NAN</DistanceMeters>
          </Trackpoint>
          <Trackpoint>
            <Time>2022-07-06T08:52:46.000Z</Time>
            <Position>
              <LatitudeDegrees>44.08527745865285396575927734375</LatitudeDegrees>
              <LongitudeDegrees>-1.15881043486297130584716796875</LongitudeDegrees>
            </Position>
            <AltitudeMeters>34</AltitudeMeters>
            <DistanceMeters>NAN</DistanceMeters>
          </Trackpoint>
          <Trackpoint>
            <Time>2022-07-06T08:52:51.000Z</Time>
            <Position>
              <LatitudeDegrees>44.08515223301947116851806640625</LatitudeDegrees>
              <LongitudeDegrees>-1.15881730802357196807861328125</LongitudeDegrees>
            </Position>
            <AltitudeMeters>34</AltitudeMeters>
            <DistanceMeters>NAN</DistanceMeters>
          </Trackpoint>
          <Trackpoint>
            <Time>2022-07-06T08:52:59.000Z</Time>
            <Position>
              <LatitudeDegrees>44.08490882255136966705322265625</LatitudeDegrees>
              <LongitudeDegrees>-1.15882887504994869232177734375</LongitudeDegrees>
            </Position>
            <AltitudeMeters>34</AltitudeMeters>
            <DistanceMeters>NAN</DistanceMeters>
          </Trackpoint>
          <Trackpoint>
            <Time>2022-07-06T08:53:02.000Z</Time>
            <Position>
              <LatitudeDegrees>44.08479801379144191741943359375</LatitudeDegrees>
              <LongitudeDegrees>-1.15881009958684444427490234375</LongitudeDegrees>
            </Position>
            <AltitudeMeters>34</AltitudeMeters>
            <DistanceMeters>NAN</DistanceMeters>
          </Trackpoint>
          <Trackpoint>
            <Time>2022-07-06T08:53:04.000Z</Time>
            <Position>
              <LatitudeDegrees>44.0847297012805938720703125</LatitudeDegrees>
              <LongitudeDegrees>-1.15881211124360561370849609375</LongitudeDegrees>
            </Position>
            <AltitudeMeters>34</AltitudeMeters>
            <DistanceMeters>NAN</DistanceMeters>
          </Trackpoint>
          <Trackpoint>
            <Time>2022-07-06T08:53:05.000Z</Time>
            <Position>
              <LatitudeDegrees>44.08470698632299900054931640625</LatitudeDegrees>
              <LongitudeDegrees>-1.15881730802357196807861328125</LongitudeDegrees>
            </Position>
            <AltitudeMeters>34</AltitudeMeters>
            <DistanceMeters>NAN</DistanceMeters>
          </Trackpoint>
          <Trackpoint>
            <Time>2022-07-06T08:53:06.000Z</Time>
            <Position>
              <LatitudeDegrees>44.0846849419176578521728515625</LatitudeDegrees>
              <LongitudeDegrees>-1.15881554782390594482421875</LongitudeDegrees>
            </Position>
            <AltitudeMeters>34</AltitudeMeters>
            <DistanceMeters>NAN</DistanceMeters>
          </Trackpoint>
          <Trackpoint>
            <Time>2022-07-06T08:53:07.000Z</Time>
            <Position>
              <LatitudeDegrees>44.08466398715972900390625</LatitudeDegrees>
              <LongitudeDegrees>-1.15881278179585933685302734375</LongitudeDegrees>
            </Position>
            <AltitudeMeters>34</AltitudeMeters>
            <DistanceMeters>NAN</DistanceMeters>
          </Trackpoint>
          <Trackpoint>
            <Time>2022-07-06T08:53:08.000Z</Time>
            <Position>
              <LatitudeDegrees>44.084637500345706939697265625</LatitudeDegrees>
              <LongitudeDegrees>-1.15880456753075122833251953125</LongitudeDegrees>
            </Position>
            <AltitudeMeters>34</AltitudeMeters>
            <DistanceMeters>NAN</DistanceMeters>
          </Trackpoint>
          <Trackpoint>
            <Time>2022-07-06T08:53:14.000Z</Time>
            <Position>
              <LatitudeDegrees>44.0844955109059810638427734375</LatitudeDegrees>
              <LongitudeDegrees>-1.15879953838884830474853515625</LongitudeDegrees>
            </Position>
            <AltitudeMeters>33.799999237060546875</AltitudeMeters>
            <DistanceMeters>NAN</DistanceMeters>
          </Trackpoint>
          <Trackpoint>
            <Time>2022-07-06T08:53:19.000Z</Time>
            <Position>
              <LatitudeDegrees>44.0843724645674228668212890625</LatitudeDegrees>
              <LongitudeDegrees>-1.1588309705257415771484375</LongitudeDegrees>
            </Position>
            <AltitudeMeters>33.799999237060546875</AltitudeMeters>
            <DistanceMeters>NAN</DistanceMeters>
          </Trackpoint>
          <Trackpoint>
            <Time>2022-07-06T08:53:21.000Z</Time>
            <Position>
              <LatitudeDegrees>44.08432066440582275390625</LatitudeDegrees>
              <LongitudeDegrees>-1.1588365025818347930908203125</LongitudeDegrees>
            </Position>
            <AltitudeMeters>33.799999237060546875</AltitudeMeters>
            <DistanceMeters>NAN</DistanceMeters>
          </Trackpoint>
          <Trackpoint>
            <Time>2022-07-06T08:53:22.000Z</Time>
            <Position>
              <LatitudeDegrees>44.08429543487727642059326171875</LatitudeDegrees>
              <LongitudeDegrees>-1.15883960388600826263427734375</LongitudeDegrees>
            </Position>
            <AltitudeMeters>33.799999237060546875</AltitudeMeters>
            <DistanceMeters>NAN</DistanceMeters>
          </Trackpoint>
          <Trackpoint>
            <Time>2022-07-06T08:53:25.000Z</Time>
            <Position>
              <LatitudeDegrees>44.08422368578612804412841796875</LatitudeDegrees>
              <LongitudeDegrees>-1.1588323116302490234375</LongitudeDegrees>
            </Position>
            <AltitudeMeters>33.799999237060546875</AltitudeMeters>
            <DistanceMeters>NAN</DistanceMeters>
          </Trackpoint>
          <Trackpoint>
            <Time>2022-07-06T08:53:27.000Z</Time>
            <Position>
              <LatitudeDegrees>44.08417423255741596221923828125</LatitudeDegrees>
              <LongitudeDegrees>-1.1588365025818347930908203125</LongitudeDegrees>
            </Position>
            <AltitudeMeters>33.799999237060546875</AltitudeMeters>
            <DistanceMeters>NAN</DistanceMeters>
          </Trackpoint>
          <Trackpoint>
            <Time>2022-07-06T08:53:33.000Z</Time>
            <Position>
              <LatitudeDegrees>44.08399804495275020599365234375</LatitudeDegrees>
              <LongitudeDegrees>-1.1588871292769908905029296875</LongitudeDegrees>
            </Position>
            <AltitudeMeters>33.59999847412109375</AltitudeMeters>
            <DistanceMeters>NAN</DistanceMeters>
          </Trackpoint>
          <Trackpoint>
            <Time>2022-07-06T08:53:34.000Z</Time>
            <Position>
              <LatitudeDegrees>44.08396954648196697235107421875</LatitudeDegrees>
              <LongitudeDegrees>-1.15889777429401874542236328125</LongitudeDegrees>
            </Position>
            <AltitudeMeters>33.59999847412109375</AltitudeMeters>
            <DistanceMeters>NAN</DistanceMeters>
          </Trackpoint>
          <Trackpoint>
            <Time>2022-07-06T08:53:41.000Z</Time>
            <Position>
              <LatitudeDegrees>44.08376209437847137451171875</LatitudeDegrees>
              <LongitudeDegrees>-1.15895477123558521270751953125</LongitudeDegrees>
            </Position>
            <AltitudeMeters>33.40000152587890625</AltitudeMeters>
            <DistanceMeters>NAN</DistanceMeters>
          </Trackpoint>
          <Trackpoint>
            <Time>2022-07-06T08:53:47.000Z</Time>
            <Position>
              <LatitudeDegrees>44.083578027784824371337890625</LatitudeDegrees>
              <LongitudeDegrees>-1.15896214731037616729736328125</LongitudeDegrees>
            </Position>
            <AltitudeMeters>33.40000152587890625</AltitudeMeters>
            <DistanceMeters>NAN</DistanceMeters>
          </Trackpoint>
          <Trackpoint>
            <Time>2022-07-06T08:53:49.000Z</Time>
            <Position>
              <LatitudeDegrees>44.0835429914295673370361328125</LatitudeDegrees>
              <LongitudeDegrees>-1.15898787975311279296875</LongitudeDegrees>
            </Position>
            <AltitudeMeters>33.40000152587890625</AltitudeMeters>
            <DistanceMeters>NAN</DistanceMeters>
          </Trackpoint>
          <Trackpoint>
            <Time>2022-07-06T08:53:52.000Z</Time>
            <Position>
              <LatitudeDegrees>44.0835372917354106903076171875</LatitudeDegrees>
              <LongitudeDegrees>-1.15898720920085906982421875</LongitudeDegrees>
            </Position>
            <AltitudeMeters>33.40000152587890625</AltitudeMeters>
            <DistanceMeters>NAN</DistanceMeters>
          </Trackpoint>
          <Trackpoint>
            <Time>2022-07-06T08:54:50.000Z</Time>
            <Position>
              <LatitudeDegrees>44.08347266726195812225341796875</LatitudeDegrees>
              <LongitudeDegrees>-1.15898913703858852386474609375</LongitudeDegrees>
            </Position>
            <AltitudeMeters>33.40000152587890625</AltitudeMeters>
            <DistanceMeters>NAN</DistanceMeters>
          </Trackpoint>
          <Trackpoint>
            <Time>2022-07-06T08:54:51.000Z</Time>
            <Position>
              <LatitudeDegrees>44.08344852738082408905029296875</LatitudeDegrees>
              <LongitudeDegrees>-1.15898779593408107757568359375</LongitudeDegrees>
            </Position>
            <AltitudeMeters>33.40000152587890625</AltitudeMeters>
            <DistanceMeters>NAN</DistanceMeters>
          </Trackpoint>
          <Trackpoint>
            <Time>2022-07-06T08:54:52.000Z</Time>
            <Position>
              <LatitudeDegrees>44.08342505805194377899169921875</LatitudeDegrees>
              <LongitudeDegrees>-1.158985532820224761962890625</LongitudeDegrees>
            </Position>
            <AltitudeMeters>33.40000152587890625</AltitudeMeters>
            <DistanceMeters>NAN</DistanceMeters>
          </Trackpoint>
          <Trackpoint>
            <Time>2022-07-06T08:55:00.000Z</Time>
            <Position>
              <LatitudeDegrees>44.0832325257360935211181640625</LatitudeDegrees>
              <LongitudeDegrees>-1.15899735130369663238525390625</LongitudeDegrees>
            </Position>
            <AltitudeMeters>33.200000762939453125</AltitudeMeters>
            <DistanceMeters>NAN</DistanceMeters>
          </Trackpoint>
          <Trackpoint>
            <Time>2022-07-06T08:55:07.000Z</Time>
            <Position>
              <LatitudeDegrees>44.08304485492408275604248046875</LatitudeDegrees>
              <LongitudeDegrees>-1.159027777612209320068359375</LongitudeDegrees>
            </Position>
            <AltitudeMeters>33.200000762939453125</AltitudeMeters>
            <DistanceMeters>NAN</DistanceMeters>
          </Trackpoint>
          <Trackpoint>
            <Time>2022-07-06T08:55:14.000Z</Time>
            <Position>
              <LatitudeDegrees>44.08280177973210811614990234375</LatitudeDegrees>
              <LongitudeDegrees>-1.15918141789734363555908203125</LongitudeDegrees>
            </Position>
            <AltitudeMeters>33.200000762939453125</AltitudeMeters>
            <DistanceMeters>NAN</DistanceMeters>
          </Trackpoint>
          <Trackpoint>
            <Time>2022-07-06T08:55:23.000Z</Time>
            <Position>
              <LatitudeDegrees>44.08244538120925426483154296875</LatitudeDegrees>
              <LongitudeDegrees>-1.15938191302120685577392578125</LongitudeDegrees>
            </Position>
            <AltitudeMeters>33.200000762939453125</AltitudeMeters>
            <DistanceMeters>NAN</DistanceMeters>
          </Trackpoint>
          <Trackpoint>
            <Time>2022-07-06T08:55:32.000Z</Time>
            <Position>
              <LatitudeDegrees>44.08211463131010532379150390625</LatitudeDegrees>
              <LongitudeDegrees>-1.15956983529031276702880859375</LongitudeDegrees>
            </Position>
            <AltitudeMeters>32.799999237060546875</AltitudeMeters>
            <DistanceMeters>NAN</DistanceMeters>
          </Trackpoint>
          <Trackpoint>
            <Time>2022-07-06T08:55:33.000Z</Time>
            <Position>
              <LatitudeDegrees>44.08207523636519908905029296875</LatitudeDegrees>
              <LongitudeDegrees>-1.15959380753338336944580078125</LongitudeDegrees>
            </Position>
            <AltitudeMeters>32.59999847412109375</AltitudeMeters>
            <DistanceMeters>NAN</DistanceMeters>
          </Trackpoint>
          <Trackpoint>
            <Time>2022-07-06T08:55:41.000Z</Time>
            <Position>
              <LatitudeDegrees>44.08176795579493045806884765625</LatitudeDegrees>
              <LongitudeDegrees>-1.15977820940315723419189453125</LongitudeDegrees>
            </Position>
            <AltitudeMeters>32.40000152587890625</AltitudeMeters>
            <DistanceMeters>NAN</DistanceMeters>
          </Trackpoint>
          <Trackpoint>
            <Time>2022-07-06T08:55:47.000Z</Time>
            <Position>
              <LatitudeDegrees>44.081538878381252288818359375</LatitudeDegrees>
              <LongitudeDegrees>-1.159912236034870147705078125</LongitudeDegrees>
            </Position>
            <AltitudeMeters>32.40000152587890625</AltitudeMeters>
            <DistanceMeters>NAN</DistanceMeters>
          </Trackpoint>
          <Trackpoint>
            <Time>2022-07-06T08:55:51.000Z</Time>
            <Position>
              <LatitudeDegrees>44.0813824720680713653564453125</LatitudeDegrees>
              <LongitudeDegrees>-1.16000401787459850311279296875</LongitudeDegrees>
            </Position>
            <AltitudeMeters>32</AltitudeMeters>
            <DistanceMeters>NAN</DistanceMeters>
          </Trackpoint>
          <Trackpoint>
            <Time>2022-07-06T08:56:00.000Z</Time>
            <Position>
              <LatitudeDegrees>44.0810197032988071441650390625</LatitudeDegrees>
              <LongitudeDegrees>-1.160219013690948486328125</LongitudeDegrees>
            </Position>
            <AltitudeMeters>32</AltitudeMeters>
            <DistanceMeters>NAN</DistanceMeters>
          </Trackpoint>
          <Trackpoint>
            <Time>2022-07-06T08:56:02.000Z</Time>
            <Position>
              <LatitudeDegrees>44.080938398838043212890625</LatitudeDegrees>
              <LongitudeDegrees>-1.1602627672255039215087890625</LongitudeDegrees>
            </Position>
            <AltitudeMeters>31.799999237060546875</AltitudeMeters>
            <DistanceMeters>NAN</DistanceMeters>
          </Trackpoint>
          <Trackpoint>
            <Time>2022-07-06T08:56:05.000Z</Time>
            <Position>
              <LatitudeDegrees>44.08081971108913421630859375</LatitudeDegrees>
              <LongitudeDegrees>-1.16032236255705356597900390625</LongitudeDegrees>
            </Position>
            <AltitudeMeters>31.6000003814697265625</AltitudeMeters>
            <DistanceMeters>NAN</DistanceMeters>
          </Trackpoint>
          <Trackpoint>
            <Time>2022-07-06T08:56:11.000Z</Time>
            <Position>
              <LatitudeDegrees>44.08057772554457187652587890625</LatitudeDegrees>
              <LongitudeDegrees>-1.16045295260846614837646484375</LongitudeDegrees>
            </Position>
            <AltitudeMeters>31.3999996185302734375</AltitudeMeters>
            <DistanceMeters>NAN</DistanceMeters>
          </Trackpoint>
          <Trackpoint>
            <Time>2022-07-06T08:56:17.000Z</Time>
            <Position>
              <LatitudeDegrees>44.08030346967279911041259765625</LatitudeDegrees>
              <LongitudeDegrees>-1.16061405278742313385009765625</LongitudeDegrees>
            </Position>
            <AltitudeMeters>31.3999996185302734375</AltitudeMeters>
            <DistanceMeters>NAN</DistanceMeters>
          </Trackpoint>
          <Trackpoint>
            <Time>2022-07-06T08:56:19.000Z</Time>
            <Position>
              <LatitudeDegrees>44.08020372502505779266357421875</LatitudeDegrees>
              <LongitudeDegrees>-1.16067976690828800201416015625</LongitudeDegrees>
            </Position>
            <AltitudeMeters>31.200000762939453125</AltitudeMeters>
            <DistanceMeters>NAN</DistanceMeters>
          </Trackpoint>
          <Trackpoint>
            <Time>2022-07-06T08:56:20.000Z</Time>
            <Position>
              <LatitudeDegrees>44.08015854656696319580078125</LatitudeDegrees>
              <LongitudeDegrees>-1.160707511007785797119140625</LongitudeDegrees>
            </Position>
            <AltitudeMeters>31</AltitudeMeters>
            <DistanceMeters>NAN</DistanceMeters>
          </Trackpoint>
          <Trackpoint>
            <Time>2022-07-06T08:56:21.000Z</Time>
            <Position>
              <LatitudeDegrees>44.080122672021389007568359375</LatitudeDegrees>
              <LongitudeDegrees>-1.16073693148791790008544921875</LongitudeDegrees>
            </Position>
            <AltitudeMeters>31</AltitudeMeters>
            <DistanceMeters>NAN</DistanceMeters>
          </Trackpoint>
          <Trackpoint>
            <Time>2022-07-06T08:56:22.000Z</Time>
            <Position>
              <LatitudeDegrees>44.0800680220127105712890625</LatitudeDegrees>
              <LongitudeDegrees>-1.16077615879476070404052734375</LongitudeDegrees>
            </Position>
            <AltitudeMeters>30.799999237060546875</AltitudeMeters>
            <DistanceMeters>NAN</DistanceMeters>
          </Trackpoint>
          <Trackpoint>
            <Time>2022-07-06T08:56:26.000Z</Time>
            <Position>
              <LatitudeDegrees>44.0798807702958583831787109375</LatitudeDegrees>
              <LongitudeDegrees>-1.1609101854264736175537109375</LongitudeDegrees>
            </Position>
            <AltitudeMeters>30.3999996185302734375</AltitudeMeters>
            <DistanceMeters>NAN</DistanceMeters>
          </Trackpoint>
          <Trackpoint>
            <Time>2022-07-06T08:56:27.000Z</Time>
            <Position>
              <LatitudeDegrees>44.07983425073325634002685546875</LatitudeDegrees>
              <LongitudeDegrees>-1.160943210124969482421875</LongitudeDegrees>
            </Position>
            <AltitudeMeters>30.3999996185302734375</AltitudeMeters>
            <DistanceMeters>NAN</DistanceMeters>
          </Trackpoint>
          <Trackpoint>
            <Time>2022-07-06T08:56:37.000Z</Time>
            <Position>
              <LatitudeDegrees>44.0794097073376178741455078125</LatitudeDegrees>
              <LongitudeDegrees>-1.16131142713129520416259765625</LongitudeDegrees>
            </Position>
            <AltitudeMeters>30</AltitudeMeters>
            <DistanceMeters>NAN</DistanceMeters>
          </Trackpoint>
          <Trackpoint>
            <Time>2022-07-06T08:56:45.000Z</Time>
            <Position>
              <LatitudeDegrees>44.079113490879535675048828125</LatitudeDegrees>
              <LongitudeDegrees>-1.161664389073848724365234375</LongitudeDegrees>
            </Position>
            <AltitudeMeters>29.6000003814697265625</AltitudeMeters>
            <DistanceMeters>NAN</DistanceMeters>
          </Trackpoint>
          <Trackpoint>
            <Time>2022-07-06T08:56:47.000Z</Time>
            <Position>
              <LatitudeDegrees>44.07903981395065784454345703125</LatitudeDegrees>
              <LongitudeDegrees>-1.1617664806544780731201171875</LongitudeDegrees>
            </Position>
            <AltitudeMeters>29.3999996185302734375</AltitudeMeters>
            <DistanceMeters>NAN</DistanceMeters>
          </Trackpoint>
          <Trackpoint>
            <Time>2022-07-06T08:56:51.000Z</Time>
            <Position>
              <LatitudeDegrees>44.07892028801143169403076171875</LatitudeDegrees>
              <LongitudeDegrees>-1.1619495414197444915771484375</LongitudeDegrees>
            </Position>
            <AltitudeMeters>29.3999996185302734375</AltitudeMeters>
            <DistanceMeters>NAN</DistanceMeters>
          </Trackpoint>
          <Trackpoint>
            <Time>2022-07-06T08:56:54.000Z</Time>
            <Position>
              <LatitudeDegrees>44.0788206271827220916748046875</LatitudeDegrees>
              <LongitudeDegrees>-1.16210988722741603851318359375</LongitudeDegrees>
            </Position>
            <AltitudeMeters>29.3999996185302734375</AltitudeMeters>
            <DistanceMeters>NAN</DistanceMeters>
          </Trackpoint>
          <Trackpoint>
            <Time>2022-07-06T08:56:57.000Z</Time>
            <Position>
              <LatitudeDegrees>44.0787054598331451416015625</LatitudeDegrees>
              <LongitudeDegrees>-1.1622616834938526153564453125</LongitudeDegrees>
            </Position>
            <AltitudeMeters>29.200000762939453125</AltitudeMeters>
            <DistanceMeters>NAN</DistanceMeters>
          </Trackpoint>
          <Trackpoint>
            <Time>2022-07-06T08:57:02.000Z</Time>
            <Position>
              <LatitudeDegrees>44.07853857614099979400634765625</LatitudeDegrees>
              <LongitudeDegrees>-1.1625235341489315032958984375</LongitudeDegrees>
            </Position>
            <AltitudeMeters>28.799999237060546875</AltitudeMeters>
            <DistanceMeters>NAN</DistanceMeters>
          </Trackpoint>
          <Trackpoint>
            <Time>2022-07-06T08:57:05.000Z</Time>
            <Position>
              <LatitudeDegrees>44.07843380235135555267333984375</LatitudeDegrees>
              <LongitudeDegrees>-1.162675917148590087890625</LongitudeDegrees>
            </Position>
            <AltitudeMeters>28.6000003814697265625</AltitudeMeters>
            <DistanceMeters>NAN</DistanceMeters>
          </Trackpoint>
          <Trackpoint>
            <Time>2022-07-06T08:57:07.000Z</Time>
            <Position>
              <LatitudeDegrees>44.0783673338592052459716796875</LatitudeDegrees>
              <LongitudeDegrees>-1.16279150359332561492919921875</LongitudeDegrees>
            </Position>
            <AltitudeMeters>28.6000003814697265625</AltitudeMeters>
            <DistanceMeters>NAN</DistanceMeters>
          </Trackpoint>
          <Trackpoint>
            <Time>2022-07-06T08:57:09.000Z</Time>
            <Position>
              <LatitudeDegrees>44.07830178737640380859375</LatitudeDegrees>
              <LongitudeDegrees>-1.1628946848213672637939453125</LongitudeDegrees>
            </Position>
            <AltitudeMeters>28.799999237060546875</AltitudeMeters>
            <DistanceMeters>NAN</DistanceMeters>
          </Trackpoint>
          <Trackpoint>
            <Time>2022-07-06T08:57:11.000Z</Time>
            <Position>
              <LatitudeDegrees>44.078227020800113677978515625</LatitudeDegrees>
              <LongitudeDegrees>-1.16301496513187885284423828125</LongitudeDegrees>
            </Position>
            <AltitudeMeters>28.799999237060546875</AltitudeMeters>
            <DistanceMeters>NAN</DistanceMeters>
          </Trackpoint>
          <Trackpoint>
            <Time>2022-07-06T08:57:16.000Z</Time>
            <Position>
              <LatitudeDegrees>44.07805242575705051422119140625</LatitudeDegrees>
              <LongitudeDegrees>-1.16324563510715961456298828125</LongitudeDegrees>
            </Position>
            <AltitudeMeters>28.3999996185302734375</AltitudeMeters>
            <DistanceMeters>NAN</DistanceMeters>
          </Trackpoint>
          <Trackpoint>
            <Time>2022-07-06T08:57:17.000Z</Time>
            <Position>
              <LatitudeDegrees>44.078020155429840087890625</LatitudeDegrees>
              <LongitudeDegrees>-1.1632950045168399810791015625</LongitudeDegrees>
            </Position>
            <AltitudeMeters>28.3999996185302734375</AltitudeMeters>
            <DistanceMeters>NAN</DistanceMeters>
          </Trackpoint>
          <Trackpoint>
            <Time>2022-07-06T08:57:24.000Z</Time>
            <Position>
              <LatitudeDegrees>44.07777314074337482452392578125</LatitudeDegrees>
              <LongitudeDegrees>-1.163698844611644744873046875</LongitudeDegrees>
            </Position>
            <AltitudeMeters>28.799999237060546875</AltitudeMeters>
            <DistanceMeters>NAN</DistanceMeters>
          </Trackpoint>
          <Trackpoint>
            <Time>2022-07-06T08:57:33.000Z</Time>
            <Position>
              <LatitudeDegrees>44.07743467949330806732177734375</LatitudeDegrees>
              <LongitudeDegrees>-1.164201088249683380126953125</LongitudeDegrees>
            </Position>
            <AltitudeMeters>28.6000003814697265625</AltitudeMeters>
            <DistanceMeters>NAN</DistanceMeters>
          </Trackpoint>
          <Trackpoint>
            <Time>2022-07-06T08:57:43.000Z</Time>
            <Position>
              <LatitudeDegrees>44.07709035091102123260498046875</LatitudeDegrees>
              <LongitudeDegrees>-1.164726130664348602294921875</LongitudeDegrees>
            </Position>
            <AltitudeMeters>28.799999237060546875</AltitudeMeters>
            <DistanceMeters>NAN</DistanceMeters>
          </Trackpoint>
          <Trackpoint>
            <Time>2022-07-06T08:57:51.000Z</Time>
            <Position>
              <LatitudeDegrees>44.076845012605190277099609375</LatitudeDegrees>
              <LongitudeDegrees>-1.16513642482459545135498046875</LongitudeDegrees>
            </Position>
            <AltitudeMeters>28.6000003814697265625</AltitudeMeters>
            <DistanceMeters>NAN</DistanceMeters>
          </Trackpoint>
          <Trackpoint>
            <Time>2022-07-06T08:57:55.000Z</Time>
            <Position>
              <LatitudeDegrees>44.0767026878893375396728515625</LatitudeDegrees>
              <LongitudeDegrees>-1.1653324775397777557373046875</LongitudeDegrees>
            </Position>
            <AltitudeMeters>28.6000003814697265625</AltitudeMeters>
            <DistanceMeters>NAN</DistanceMeters>
          </Trackpoint>
          <Trackpoint>
            <Time>2022-07-06T08:57:58.000Z</Time>
            <Position>
              <LatitudeDegrees>44.07660671509802341461181640625</LatitudeDegrees>
              <LongitudeDegrees>-1.165471784770488739013671875</LongitudeDegrees>
            </Position>
            <AltitudeMeters>28.3999996185302734375</AltitudeMeters>
            <DistanceMeters>NAN</DistanceMeters>
          </Trackpoint>
          <Trackpoint>
            <Time>2022-07-06T08:58:08.000Z</Time>
            <Position>
              <LatitudeDegrees>44.0762953273952007293701171875</LatitudeDegrees>
              <LongitudeDegrees>-1.1659433506429195404052734375</LongitudeDegrees>
            </Position>
            <AltitudeMeters>28.200000762939453125</AltitudeMeters>
            <DistanceMeters>NAN</DistanceMeters>
          </Trackpoint>
          <Trackpoint>
            <Time>2022-07-06T08:58:11.000Z</Time>
            <Position>
              <LatitudeDegrees>44.07621863298118114471435546875</LatitudeDegrees>
              <LongitudeDegrees>-1.1660724319517612457275390625</LongitudeDegrees>
            </Position>
            <AltitudeMeters>28</AltitudeMeters>
            <DistanceMeters>NAN</DistanceMeters>
          </Trackpoint>
          <Trackpoint>
            <Time>2022-07-06T08:58:14.000Z</Time>
            <Position>
              <LatitudeDegrees>44.0761226601898670196533203125</LatitudeDegrees>
              <LongitudeDegrees>-1.16619606502354145050048828125</LongitudeDegrees>
            </Position>
            <AltitudeMeters>27.799999237060546875</AltitudeMeters>
            <DistanceMeters>NAN</DistanceMeters>
          </Trackpoint>
          <Trackpoint>
            <Time>2022-07-06T08:58:15.000Z</Time>
            <Position>
              <LatitudeDegrees>44.07609843648970127105712890625</LatitudeDegrees>
              <LongitudeDegrees>-1.166237890720367431640625</LongitudeDegrees>
            </Position>
            <AltitudeMeters>27.799999237060546875</AltitudeMeters>
            <DistanceMeters>NAN</DistanceMeters>
          </Trackpoint>
          <Trackpoint>
            <Time>2022-07-06T08:58:19.000Z</Time>
            <Position>
              <LatitudeDegrees>44.07598972320556640625</LatitudeDegrees>
              <LongitudeDegrees>-1.1664130724966526031494140625</LongitudeDegrees>
            </Position>
            <AltitudeMeters>27.799999237060546875</AltitudeMeters>
            <DistanceMeters>NAN</DistanceMeters>
          </Trackpoint>
          <Trackpoint>
            <Time>2022-07-06T08:58:24.000Z</Time>
            <Position>
              <LatitudeDegrees>44.0758571214973926544189453125</LatitudeDegrees>
              <LongitudeDegrees>-1.16659923456609249114990234375</LongitudeDegrees>
            </Position>
            <AltitudeMeters>27.799999237060546875</AltitudeMeters>
            <DistanceMeters>NAN</DistanceMeters>
          </Trackpoint>
          <Trackpoint>
            <Time>2022-07-06T08:58:28.000Z</Time>
            <Position>
              <LatitudeDegrees>44.07575578428804874420166015625</LatitudeDegrees>
              <LongitudeDegrees>-1.16673954762518405914306640625</LongitudeDegrees>
            </Position>
            <AltitudeMeters>27.6000003814697265625</AltitudeMeters>
            <DistanceMeters>NAN</DistanceMeters>
          </Trackpoint>
          <Trackpoint>
            <Time>2022-07-06T08:58:29.000Z</Time>
            <Position>
              <LatitudeDegrees>44.07574455253779888153076171875</LatitudeDegrees>
              <LongitudeDegrees>-1.1667466722428798675537109375</LongitudeDegrees>
            </Position>
            <AltitudeMeters>27.6000003814697265625</AltitudeMeters>
            <DistanceMeters>NAN</DistanceMeters>
          </Trackpoint>
          <Trackpoint>
            <Time>2022-07-06T08:58:31.000Z</Time>
            <Position>
              <LatitudeDegrees>44.07573600299656391143798828125</LatitudeDegrees>
              <LongitudeDegrees>-1.16675413213670253753662109375</LongitudeDegrees>
            </Position>
            <AltitudeMeters>27.200000762939453125</AltitudeMeters>
            <DistanceMeters>NAN</DistanceMeters>
          </Trackpoint>
          <Trackpoint>
            <Time>2022-07-06T08:58:36.000Z</Time>
            <Position>
              <LatitudeDegrees>44.07574589364230632781982421875</LatitudeDegrees>
              <LongitudeDegrees>-1.1667111329734325408935546875</LongitudeDegrees>
            </Position>
            <AltitudeMeters>27.200000762939453125</AltitudeMeters>
            <DistanceMeters>NAN</DistanceMeters>
          </Trackpoint>
          <Trackpoint>
            <Time>2022-07-06T08:58:41.000Z</Time>
            <Position>
              <LatitudeDegrees>44.0758373402059078216552734375</LatitudeDegrees>
              <LongitudeDegrees>-1.1666484363377094268798828125</LongitudeDegrees>
            </Position>
            <AltitudeMeters>27.6000003814697265625</AltitudeMeters>
            <DistanceMeters>NAN</DistanceMeters>
          </Trackpoint>
          <Trackpoint>
            <Time>2022-07-06T08:58:45.000Z</Time>
            <Position>
              <LatitudeDegrees>44.07588771544396877288818359375</LatitudeDegrees>
              <LongitudeDegrees>-1.16661046631634235382080078125</LongitudeDegrees>
            </Position>
            <AltitudeMeters>27.6000003814697265625</AltitudeMeters>
            <DistanceMeters>NAN</DistanceMeters>
          </Trackpoint>
          <Trackpoint>
            <Time>2022-07-06T08:58:46.000Z</Time>
            <Position>
              <LatitudeDegrees>44.07589509151875972747802734375</LatitudeDegrees>
              <LongitudeDegrees>-1.1666122265160083770751953125</LongitudeDegrees>
            </Position>
            <AltitudeMeters>27.6000003814697265625</AltitudeMeters>
            <DistanceMeters>NAN</DistanceMeters>
          </Trackpoint>
          <Trackpoint>
            <Time>2022-07-06T08:58:50.000Z</Time>
            <Position>
              <LatitudeDegrees>44.07590045593678951263427734375</LatitudeDegrees>
              <LongitudeDegrees>-1.16661029867827892303466796875</LongitudeDegrees>
            </Position>
            <AltitudeMeters>27.6000003814697265625</AltitudeMeters>
            <DistanceMeters>NAN</DistanceMeters>
          </Trackpoint>
          <Trackpoint>
            <Time>2022-07-06T08:58:51.000Z</Time>
            <Position>
              <LatitudeDegrees>44.0758943371474742889404296875</LatitudeDegrees>
              <LongitudeDegrees>-1.16660459898412227630615234375</LongitudeDegrees>
            </Position>
            <AltitudeMeters>27.6000003814697265625</AltitudeMeters>
            <DistanceMeters>NAN</DistanceMeters>
          </Trackpoint>
          <Trackpoint>
            <Time>2022-07-06T08:58:52.000Z</Time>
            <Position>
              <LatitudeDegrees>44.07588520087301731109619140625</LatitudeDegrees>
              <LongitudeDegrees>-1.16659931838512420654296875</LongitudeDegrees>
            </Position>
            <AltitudeMeters>27.6000003814697265625</AltitudeMeters>
            <DistanceMeters>NAN</DistanceMeters>
          </Trackpoint>
          <Trackpoint>
            <Time>2022-07-06T08:58:55.000Z</Time>
            <Position>
              <LatitudeDegrees>44.07584144733846187591552734375</LatitudeDegrees>
              <LongitudeDegrees>-1.16660309024155139923095703125</LongitudeDegrees>
            </Position>
            <AltitudeMeters>27.6000003814697265625</AltitudeMeters>
            <DistanceMeters>NAN</DistanceMeters>
          </Trackpoint>
          <Trackpoint>
            <Time>2022-07-06T08:58:56.000Z</Time>
            <Position>
              <LatitudeDegrees>44.0758222527801990509033203125</LatitudeDegrees>
              <LongitudeDegrees>-1.1666169203817844390869140625</LongitudeDegrees>
            </Position>
            <AltitudeMeters>27.3999996185302734375</AltitudeMeters>
            <DistanceMeters>NAN</DistanceMeters>
          </Trackpoint>
          <Trackpoint>
            <Time>2022-07-06T08:59:02.000Z</Time>
            <Position>
              <LatitudeDegrees>44.075697697699069976806640625</LatitudeDegrees>
              <LongitudeDegrees>-1.1667476780712604522705078125</LongitudeDegrees>
            </Position>
            <AltitudeMeters>27.3999996185302734375</AltitudeMeters>
            <DistanceMeters>NAN</DistanceMeters>
          </Trackpoint>
          <Trackpoint>
            <Time>2022-07-06T08:59:03.000Z</Time>
            <Position>
              <LatitudeDegrees>44.07567397691309452056884765625</LatitudeDegrees>
              <LongitudeDegrees>-1.16679956205189228057861328125</LongitudeDegrees>
            </Position>
            <AltitudeMeters>27.3999996185302734375</AltitudeMeters>
            <DistanceMeters>NAN</DistanceMeters>
          </Trackpoint>
          <Trackpoint>
            <Time>2022-07-06T08:59:07.000Z</Time>
            <Position>
              <LatitudeDegrees>44.0756036527454853057861328125</LatitudeDegrees>
              <LongitudeDegrees>-1.16692160256206989288330078125</LongitudeDegrees>
            </Position>
            <AltitudeMeters>27.3999996185302734375</AltitudeMeters>
            <DistanceMeters>NAN</DistanceMeters>
          </Trackpoint>
          <Trackpoint>
            <Time>2022-07-06T08:59:10.000Z</Time>
            <Position>
              <LatitudeDegrees>44.07556652091443538665771484375</LatitudeDegrees>
              <LongitudeDegrees>-1.16702704690396785736083984375</LongitudeDegrees>
            </Position>
            <AltitudeMeters>27.3999996185302734375</AltitudeMeters>
            <DistanceMeters>NAN</DistanceMeters>
          </Trackpoint>
          <Trackpoint>
            <Time>2022-07-06T08:59:12.000Z</Time>
            <Position>
              <LatitudeDegrees>44.07557599246501922607421875</LatitudeDegrees>
              <LongitudeDegrees>-1.1670960299670696258544921875</LongitudeDegrees>
            </Position>
            <AltitudeMeters>27.3999996185302734375</AltitudeMeters>
            <DistanceMeters>NAN</DistanceMeters>
          </Trackpoint>
          <Trackpoint>
            <Time>2022-07-06T08:59:14.000Z</Time>
            <Position>
              <LatitudeDegrees>44.075613878667354583740234375</LatitudeDegrees>
              <LongitudeDegrees>-1.16716065444052219390869140625</LongitudeDegrees>
            </Position>
            <AltitudeMeters>27.3999996185302734375</AltitudeMeters>
            <DistanceMeters>NAN</DistanceMeters>
          </Trackpoint>
          <Trackpoint>
            <Time>2022-07-06T08:59:20.000Z</Time>
            <Position>
              <LatitudeDegrees>44.07573885284364223480224609375</LatitudeDegrees>
              <LongitudeDegrees>-1.16734497249126434326171875</LongitudeDegrees>
            </Position>
            <AltitudeMeters>27.200000762939453125</AltitudeMeters>
            <DistanceMeters>NAN</DistanceMeters>
          </Trackpoint>
          <Trackpoint>
            <Time>2022-07-06T08:59:24.000Z</Time>
            <Position>
              <LatitudeDegrees>44.07584362663328647613525390625</LatitudeDegrees>
              <LongitudeDegrees>-1.16747933439910411834716796875</LongitudeDegrees>
            </Position>
            <AltitudeMeters>27.200000762939453125</AltitudeMeters>
            <DistanceMeters>NAN</DistanceMeters>
          </Trackpoint>
          <Trackpoint>
            <Time>2022-07-06T08:59:25.000Z</Time>
            <Position>
              <LatitudeDegrees>44.07586508430540561676025390625</LatitudeDegrees>
              <LongitudeDegrees>-1.16751118563115596771240234375</LongitudeDegrees>
            </Position>
            <AltitudeMeters>27.200000762939453125</AltitudeMeters>
            <DistanceMeters>NAN</DistanceMeters>
          </Trackpoint>
          <Trackpoint>
            <Time>2022-07-06T08:59:30.000Z</Time>
            <Position>
              <LatitudeDegrees>44.07598192803561687469482421875</LatitudeDegrees>
              <LongitudeDegrees>-1.16765677928924560546875</LongitudeDegrees>
            </Position>
            <AltitudeMeters>27.200000762939453125</AltitudeMeters>
            <DistanceMeters>NAN</DistanceMeters>
          </Trackpoint>
          <Trackpoint>
            <Time>2022-07-06T08:59:31.000Z</Time>
            <Position>
              <LatitudeDegrees>44.07599064521491527557373046875</LatitudeDegrees>
              <LongitudeDegrees>-1.1676737107336521148681640625</LongitudeDegrees>
            </Position>
            <AltitudeMeters>27.200000762939453125</AltitudeMeters>
            <DistanceMeters>NAN</DistanceMeters>
          </Trackpoint>
          <Trackpoint>
            <Time>2022-07-06T08:59:34.000Z</Time>
            <Position>
              <LatitudeDegrees>44.0760004520416259765625</LatitudeDegrees>
              <LongitudeDegrees>-1.167686618864536285400390625</LongitudeDegrees>
            </Position>
            <AltitudeMeters>27.200000762939453125</AltitudeMeters>
            <DistanceMeters>NAN</DistanceMeters>
          </Trackpoint>
          <Trackpoint>
            <Time>2022-07-06T08:59:36.000Z</Time>
            <Position>
              <LatitudeDegrees>44.0760004520416259765625</LatitudeDegrees>
              <LongitudeDegrees>-1.167686618864536285400390625</LongitudeDegrees>
            </Position>
            <AltitudeMeters>27.200000762939453125</AltitudeMeters>
            <DistanceMeters>NAN</DistanceMeters>
          </Trackpoint>
          <Trackpoint>
            <Time>2022-07-06T08:59:50.000Z</Time>
            <Position>
              <LatitudeDegrees>44.07603959552943706512451171875</LatitudeDegrees>
              <LongitudeDegrees>-1.16750028915703296661376953125</LongitudeDegrees>
            </Position>
            <AltitudeMeters>27.200000762939453125</AltitudeMeters>
            <DistanceMeters>NAN</DistanceMeters>
          </Trackpoint>
          <Trackpoint>
            <Time>2022-07-06T08:59:51.000Z</Time>
            <Position>
              <LatitudeDegrees>44.0760636515915393829345703125</LatitudeDegrees>
              <LongitudeDegrees>-1.1674661748111248016357421875</LongitudeDegrees>
            </Position>
            <AltitudeMeters>27.200000762939453125</AltitudeMeters>
            <DistanceMeters>NAN</DistanceMeters>
          </Trackpoint>
          <Trackpoint>
            <Time>2022-07-06T08:59:52.000Z</Time>
            <Position>
              <LatitudeDegrees>44.0760851092636585235595703125</LatitudeDegrees>
              <LongitudeDegrees>-1.167439855635166168212890625</LongitudeDegrees>
            </Position>
            <AltitudeMeters>27.200000762939453125</AltitudeMeters>
            <DistanceMeters>NAN</DistanceMeters>
          </Trackpoint>
          <Trackpoint>
            <Time>2022-07-06T08:59:54.000Z</Time>
            <Position>
              <LatitudeDegrees>44.076123498380184173583984375</LatitudeDegrees>
              <LongitudeDegrees>-1.16739987395703792572021484375</LongitudeDegrees>
            </Position>
            <AltitudeMeters>27.200000762939453125</AltitudeMeters>
            <DistanceMeters>NAN</DistanceMeters>
          </Trackpoint>
          <Trackpoint>
            <Time>2022-07-06T09:00:00.000Z</Time>
            <Position>
              <LatitudeDegrees>44.076276384294033050537109375</LatitudeDegrees>
              <LongitudeDegrees>-1.167231984436511993408203125</LongitudeDegrees>
            </Position>
            <AltitudeMeters>27.200000762939453125</AltitudeMeters>
            <DistanceMeters>NAN</DistanceMeters>
          </Trackpoint>
          <Trackpoint>
            <Time>2022-07-06T09:00:07.000Z</Time>
            <Position>
              <LatitudeDegrees>44.07640052028000354766845703125</LatitudeDegrees>
              <LongitudeDegrees>-1.16707281209528446197509765625</LongitudeDegrees>
            </Position>
            <AltitudeMeters>27</AltitudeMeters>
            <DistanceMeters>NAN</DistanceMeters>
          </Trackpoint>
          <Trackpoint>
            <Time>2022-07-06T09:00:11.000Z</Time>
            <Position>
              <LatitudeDegrees>44.076418541371822357177734375</LatitudeDegrees>
              <LongitudeDegrees>-1.16704012267291545867919921875</LongitudeDegrees>
            </Position>
            <AltitudeMeters>26.799999237060546875</AltitudeMeters>
            <DistanceMeters>NAN</DistanceMeters>
          </Trackpoint>
          <Trackpoint>
            <Time>2022-07-06T09:00:14.000Z</Time>
            <Position>
              <LatitudeDegrees>44.0764193795621395111083984375</LatitudeDegrees>
              <LongitudeDegrees>-1.16703651845455169677734375</LongitudeDegrees>
            </Position>
            <AltitudeMeters>26.799999237060546875</AltitudeMeters>
            <DistanceMeters>NAN</DistanceMeters>
          </Trackpoint>
          <Trackpoint>
            <Time>2022-07-06T09:00:37.000Z</Time>
            <Position>
              <LatitudeDegrees>44.07647578977048397064208984375</LatitudeDegrees>
              <LongitudeDegrees>-1.1670105345547199249267578125</LongitudeDegrees>
            </Position>
            <AltitudeMeters>26.6000003814697265625</AltitudeMeters>
            <DistanceMeters>NAN</DistanceMeters>
          </Trackpoint>
          <Trackpoint>
            <Time>2022-07-06T09:00:38.000Z</Time>
            <Position>
              <LatitudeDegrees>44.0764954872429370880126953125</LatitudeDegrees>
              <LongitudeDegrees>-1.16699217818677425384521484375</LongitudeDegrees>
            </Position>
            <AltitudeMeters>26.799999237060546875</AltitudeMeters>
            <DistanceMeters>NAN</DistanceMeters>
          </Trackpoint>
          <Trackpoint>
            <Time>2022-07-06T09:00:44.000Z</Time>
            <Position>
              <LatitudeDegrees>44.07664627768099308013916015625</LatitudeDegrees>
              <LongitudeDegrees>-1.166914142668247222900390625</LongitudeDegrees>
            </Position>
            <AltitudeMeters>26.799999237060546875</AltitudeMeters>
            <DistanceMeters>NAN</DistanceMeters>
          </Trackpoint>
          <Trackpoint>
            <Time>2022-07-06T09:00:48.000Z</Time>
            <Position>
              <LatitudeDegrees>44.076739065349102020263671875</LatitudeDegrees>
              <LongitudeDegrees>-1.16702654398977756500244140625</LongitudeDegrees>
            </Position>
            <AltitudeMeters>26.6000003814697265625</AltitudeMeters>
            <DistanceMeters>NAN</DistanceMeters>
          </Trackpoint>
          <Trackpoint>
            <Time>2022-07-06T09:00:49.000Z</Time>
            <Position>
              <LatitudeDegrees>44.07675608061254024505615234375</LatitudeDegrees>
              <LongitudeDegrees>-1.167056299746036529541015625</LongitudeDegrees>
            </Position>
            <AltitudeMeters>26.6000003814697265625</AltitudeMeters>
            <DistanceMeters>NAN</DistanceMeters>
          </Trackpoint>
          <Trackpoint>
            <Time>2022-07-06T09:00:53.000Z</Time>
            <Position>
              <LatitudeDegrees>44.0768411569297313690185546875</LatitudeDegrees>
              <LongitudeDegrees>-1.1672019772231578826904296875</LongitudeDegrees>
            </Position>
            <AltitudeMeters>26.6000003814697265625</AltitudeMeters>
            <DistanceMeters>NAN</DistanceMeters>
          </Trackpoint>
          <Trackpoint>
            <Time>2022-07-06T09:00:56.000Z</Time>
            <Position>
              <LatitudeDegrees>44.07688868232071399688720703125</LatitudeDegrees>
              <LongitudeDegrees>-1.1673136241734027862548828125</LongitudeDegrees>
            </Position>
            <AltitudeMeters>26.6000003814697265625</AltitudeMeters>
            <DistanceMeters>NAN</DistanceMeters>
          </Trackpoint>
          <Trackpoint>
            <Time>2022-07-06T09:01:05.000Z</Time>
            <Position>
              <LatitudeDegrees>44.07702698372304439544677734375</LatitudeDegrees>
              <LongitudeDegrees>-1.16760774515569210052490234375</LongitudeDegrees>
            </Position>
            <AltitudeMeters>26.3999996185302734375</AltitudeMeters>
            <DistanceMeters>NAN</DistanceMeters>
          </Trackpoint>
          <Trackpoint>
            <Time>2022-07-06T09:01:07.000Z</Time>
            <Position>
              <LatitudeDegrees>44.077058918774127960205078125</LatitudeDegrees>
              <LongitudeDegrees>-1.167681254446506500244140625</LongitudeDegrees>
            </Position>
            <AltitudeMeters>26.3999996185302734375</AltitudeMeters>
            <DistanceMeters>NAN</DistanceMeters>
          </Trackpoint>
          <Trackpoint>
            <Time>2022-07-06T09:01:10.000Z</Time>
            <Position>
              <LatitudeDegrees>44.0770973078906536102294921875</LatitudeDegrees>
              <LongitudeDegrees>-1.16778577677905559539794921875</LongitudeDegrees>
            </Position>
            <AltitudeMeters>26.200000762939453125</AltitudeMeters>
            <DistanceMeters>NAN</DistanceMeters>
          </Trackpoint>
          <Trackpoint>
            <Time>2022-07-06T09:01:12.000Z</Time>
            <Position>
              <LatitudeDegrees>44.07714583911001682281494140625</LatitudeDegrees>
              <LongitudeDegrees>-1.16784009151160717010498046875</LongitudeDegrees>
            </Position>
            <AltitudeMeters>26.200000762939453125</AltitudeMeters>
            <DistanceMeters>NAN</DistanceMeters>
          </Trackpoint>
          <Trackpoint>
            <Time>2022-07-06T09:01:16.000Z</Time>
            <Position>
              <LatitudeDegrees>44.07728397287428379058837890625</LatitudeDegrees>
              <LongitudeDegrees>-1.16786389611661434173583984375</LongitudeDegrees>
            </Position>
            <AltitudeMeters>26.200000762939453125</AltitudeMeters>
            <DistanceMeters>NAN</DistanceMeters>
          </Trackpoint>
          <Trackpoint>
            <Time>2022-07-06T09:01:18.000Z</Time>
            <Position>
              <LatitudeDegrees>44.07738254405558109283447265625</LatitudeDegrees>
              <LongitudeDegrees>-1.1678440310060977935791015625</LongitudeDegrees>
            </Position>
            <AltitudeMeters>26.200000762939453125</AltitudeMeters>
            <DistanceMeters>NAN</DistanceMeters>
          </Trackpoint>
          <Trackpoint>
            <Time>2022-07-06T09:01:25.000Z</Time>
            <Position>
              <LatitudeDegrees>44.07768898643553256988525390625</LatitudeDegrees>
              <LongitudeDegrees>-1.16782517172396183013916015625</LongitudeDegrees>
            </Position>
            <AltitudeMeters>25.6000003814697265625</AltitudeMeters>
            <DistanceMeters>NAN</DistanceMeters>
          </Trackpoint>
          <Trackpoint>
            <Time>2022-07-06T09:01:29.000Z</Time>
            <Position>
              <LatitudeDegrees>44.07789099030196666717529296875</LatitudeDegrees>
              <LongitudeDegrees>-1.16784528829157352447509765625</LongitudeDegrees>
            </Position>
            <AltitudeMeters>25.200000762939453125</AltitudeMeters>
            <DistanceMeters>NAN</DistanceMeters>
          </Trackpoint>
          <Trackpoint>
            <Time>2022-07-06T09:01:30.000Z</Time>
            <Position>
              <LatitudeDegrees>44.077940694987773895263671875</LatitudeDegrees>
              <LongitudeDegrees>-1.16786062717437744140625</LongitudeDegrees>
            </Position>
            <AltitudeMeters>25.200000762939453125</AltitudeMeters>
            <DistanceMeters>NAN</DistanceMeters>
          </Trackpoint>
          <Trackpoint>
            <Time>2022-07-06T09:01:31.000Z</Time>
            <Position>
              <LatitudeDegrees>44.07799936830997467041015625</LatitudeDegrees>
              <LongitudeDegrees>-1.16788971237838268280029296875</LongitudeDegrees>
            </Position>
            <AltitudeMeters>25.200000762939453125</AltitudeMeters>
            <DistanceMeters>NAN</DistanceMeters>
          </Trackpoint>
          <Trackpoint>
            <Time>2022-07-06T09:01:32.000Z</Time>
            <Position>
              <LatitudeDegrees>44.0780444629490375518798828125</LatitudeDegrees>
              <LongitudeDegrees>-1.1679251678287982940673828125</LongitudeDegrees>
            </Position>
            <AltitudeMeters>25.200000762939453125</AltitudeMeters>
            <DistanceMeters>NAN</DistanceMeters>
          </Trackpoint>
          <Trackpoint>
            <Time>2022-07-06T09:01:36.000Z</Time>
            <Position>
              <LatitudeDegrees>44.07819919288158416748046875</LatitudeDegrees>
              <LongitudeDegrees>-1.168123818933963775634765625</LongitudeDegrees>
            </Position>
            <AltitudeMeters>24.799999237060546875</AltitudeMeters>
            <DistanceMeters>NAN</DistanceMeters>
          </Trackpoint>
          <Trackpoint>
            <Time>2022-07-06T09:01:43.000Z</Time>
            <Position>
              <LatitudeDegrees>44.07844738103449344635009765625</LatitudeDegrees>
              <LongitudeDegrees>-1.168528497219085693359375</LongitudeDegrees>
            </Position>
            <AltitudeMeters>24.200000762939453125</AltitudeMeters>
            <DistanceMeters>NAN</DistanceMeters>
          </Trackpoint>
          <Trackpoint>
            <Time>2022-07-06T09:01:50.000Z</Time>
            <Position>
              <LatitudeDegrees>44.0787016041576862335205078125</LatitudeDegrees>
              <LongitudeDegrees>-1.16895069368183612823486328125</LongitudeDegrees>
            </Position>
            <AltitudeMeters>23.6000003814697265625</AltitudeMeters>
            <DistanceMeters>NAN</DistanceMeters>
          </Trackpoint>
          <Trackpoint>
            <Time>2022-07-06T09:01:55.000Z</Time>
            <Position>
              <LatitudeDegrees>44.07890134491026401519775390625</LatitudeDegrees>
              <LongitudeDegrees>-1.1691827885806560516357421875</LongitudeDegrees>
            </Position>
            <AltitudeMeters>23.3999996185302734375</AltitudeMeters>
            <DistanceMeters>NAN</DistanceMeters>
          </Trackpoint>
          <Trackpoint>
            <Time>2022-07-06T09:01:56.000Z</Time>
            <Position>
              <LatitudeDegrees>44.07894191332161426544189453125</LatitudeDegrees>
              <LongitudeDegrees>-1.16922863759100437164306640625</LongitudeDegrees>
            </Position>
            <AltitudeMeters>23.3999996185302734375</AltitudeMeters>
            <DistanceMeters>NAN</DistanceMeters>
          </Trackpoint>
          <Trackpoint>
            <Time>2022-07-06T09:01:57.000Z</Time>
            <Position>
              <LatitudeDegrees>44.0789795480668544769287109375</LatitudeDegrees>
              <LongitudeDegrees>-1.1692743189632892608642578125</LongitudeDegrees>
            </Position>
            <AltitudeMeters>23.3999996185302734375</AltitudeMeters>
            <DistanceMeters>NAN</DistanceMeters>
          </Trackpoint>
          <Trackpoint>
            <Time>2022-07-06T09:02:01.000Z</Time>
            <Position>
              <LatitudeDegrees>44.07911994494497776031494140625</LatitudeDegrees>
              <LongitudeDegrees>-1.16945276968181133270263671875</LongitudeDegrees>
            </Position>
            <AltitudeMeters>23.6000003814697265625</AltitudeMeters>
            <DistanceMeters>NAN</DistanceMeters>
          </Trackpoint>
          <Trackpoint>
            <Time>2022-07-06T09:02:03.000Z</Time>
            <Position>
              <LatitudeDegrees>44.07917610369622707366943359375</LatitudeDegrees>
              <LongitudeDegrees>-1.1695437133312225341796875</LongitudeDegrees>
            </Position>
            <AltitudeMeters>24</AltitudeMeters>
            <DistanceMeters>NAN</DistanceMeters>
          </Trackpoint>
          <Trackpoint>
            <Time>2022-07-06T09:02:09.000Z</Time>
            <Position>
              <LatitudeDegrees>44.0793304145336151123046875</LatitudeDegrees>
              <LongitudeDegrees>-1.1698359064757823944091796875</LongitudeDegrees>
            </Position>
            <AltitudeMeters>24.6000003814697265625</AltitudeMeters>
            <DistanceMeters>NAN</DistanceMeters>
          </Trackpoint>
          <Trackpoint>
            <Time>2022-07-06T09:02:10.000Z</Time>
            <Position>
              <LatitudeDegrees>44.07934977672994136810302734375</LatitudeDegrees>
              <LongitudeDegrees>-1.169883348047733306884765625</LongitudeDegrees>
            </Position>
            <AltitudeMeters>24.6000003814697265625</AltitudeMeters>
            <DistanceMeters>NAN</DistanceMeters>
          </Trackpoint>
          <Trackpoint>
            <Time>2022-07-06T09:02:16.000Z</Time>
            <Position>
              <LatitudeDegrees>44.079455472528934478759765625</LatitudeDegrees>
              <LongitudeDegrees>-1.17016665637493133544921875</LongitudeDegrees>
            </Position>
            <AltitudeMeters>25</AltitudeMeters>
            <DistanceMeters>NAN</DistanceMeters>
          </Trackpoint>
          <Trackpoint>
            <Time>2022-07-06T09:02:19.000Z</Time>
            <Position>
              <LatitudeDegrees>44.07950735650956630706787109375</LatitudeDegrees>
              <LongitudeDegrees>-1.170321218669414520263671875</LongitudeDegrees>
            </Position>
            <AltitudeMeters>25</AltitudeMeters>
            <DistanceMeters>NAN</DistanceMeters>
          </Trackpoint>
          <Trackpoint>
            <Time>2022-07-06T09:02:20.000Z</Time>
            <Position>
              <LatitudeDegrees>44.07952277921140193939208984375</LatitudeDegrees>
              <LongitudeDegrees>-1.17036522366106510162353515625</LongitudeDegrees>
            </Position>
            <AltitudeMeters>25</AltitudeMeters>
            <DistanceMeters>NAN</DistanceMeters>
          </Trackpoint>
          <Trackpoint>
            <Time>2022-07-06T09:02:29.000Z</Time>
            <Position>
              <LatitudeDegrees>44.0796630084514617919921875</LatitudeDegrees>
              <LongitudeDegrees>-1.17075313813984394073486328125</LongitudeDegrees>
            </Position>
            <AltitudeMeters>25.200000762939453125</AltitudeMeters>
            <DistanceMeters>NAN</DistanceMeters>
          </Trackpoint>
          <Trackpoint>
            <Time>2022-07-06T09:02:32.000Z</Time>
            <Position>
              <LatitudeDegrees>44.07971841283142566680908203125</LatitudeDegrees>
              <LongitudeDegrees>-1.17088138125836849212646484375</LongitudeDegrees>
            </Position>
            <AltitudeMeters>25.3999996185302734375</AltitudeMeters>
            <DistanceMeters>NAN</DistanceMeters>
          </Trackpoint>
          <Trackpoint>
            <Time>2022-07-06T09:02:37.000Z</Time>
            <Position>
              <LatitudeDegrees>44.079796783626079559326171875</LatitudeDegrees>
              <LongitudeDegrees>-1.171074248850345611572265625</LongitudeDegrees>
            </Position>
            <AltitudeMeters>25.3999996185302734375</AltitudeMeters>
            <DistanceMeters>NAN</DistanceMeters>
          </Trackpoint>
          <Trackpoint>
            <Time>2022-07-06T09:02:40.000Z</Time>
            <Position>
              <LatitudeDegrees>44.0798479132354259490966796875</LatitudeDegrees>
              <LongitudeDegrees>-1.1712013185024261474609375</LongitudeDegrees>
            </Position>
            <AltitudeMeters>25.799999237060546875</AltitudeMeters>
            <DistanceMeters>NAN</DistanceMeters>
          </Trackpoint>
          <Trackpoint>
            <Time>2022-07-06T09:02:42.000Z</Time>
            <Position>
              <LatitudeDegrees>44.0798774175345897674560546875</LatitudeDegrees>
              <LongitudeDegrees>-1.1712809465825557708740234375</LongitudeDegrees>
            </Position>
            <AltitudeMeters>26</AltitudeMeters>
            <DistanceMeters>NAN</DistanceMeters>
          </Trackpoint>
          <Trackpoint>
            <Time>2022-07-06T09:02:45.000Z</Time>
            <Position>
              <LatitudeDegrees>44.0799223445355892181396484375</LatitudeDegrees>
              <LongitudeDegrees>-1.1714023165404796600341796875</LongitudeDegrees>
            </Position>
            <AltitudeMeters>26.200000762939453125</AltitudeMeters>
            <DistanceMeters>NAN</DistanceMeters>
          </Trackpoint>
          <Trackpoint>
            <Time>2022-07-06T09:02:55.000Z</Time>
            <Position>
              <LatitudeDegrees>44.08007632009685039520263671875</LatitudeDegrees>
              <LongitudeDegrees>-1.17181663401424884796142578125</LongitudeDegrees>
            </Position>
            <AltitudeMeters>26.3999996185302734375</AltitudeMeters>
            <DistanceMeters>NAN</DistanceMeters>
          </Trackpoint>
          <Trackpoint>
            <Time>2022-07-06T09:03:01.000Z</Time>
            <Position>
              <LatitudeDegrees>44.08014052547514438629150390625</LatitudeDegrees>
              <LongitudeDegrees>-1.17212466895580291748046875</LongitudeDegrees>
            </Position>
            <AltitudeMeters>26.3999996185302734375</AltitudeMeters>
            <DistanceMeters>NAN</DistanceMeters>
          </Trackpoint>
          <Trackpoint>
            <Time>2022-07-06T09:03:06.000Z</Time>
            <Position>
              <LatitudeDegrees>44.0801805071532726287841796875</LatitudeDegrees>
              <LongitudeDegrees>-1.172356344759464263916015625</LongitudeDegrees>
            </Position>
            <AltitudeMeters>26.3999996185302734375</AltitudeMeters>
            <DistanceMeters>NAN</DistanceMeters>
          </Trackpoint>
          <Trackpoint>
            <Time>2022-07-06T09:03:08.000Z</Time>
            <Position>
              <LatitudeDegrees>44.0801888890564441680908203125</LatitudeDegrees>
              <LongitudeDegrees>-1.17244762368500232696533203125</LongitudeDegrees>
            </Position>
            <AltitudeMeters>26.3999996185302734375</AltitudeMeters>
            <DistanceMeters>NAN</DistanceMeters>
          </Trackpoint>
          <Trackpoint>
            <Time>2022-07-06T09:03:10.000Z</Time>
            <Position>
              <LatitudeDegrees>44.08019551075994968414306640625</LatitudeDegrees>
              <LongitudeDegrees>-1.17253345437347888946533203125</LongitudeDegrees>
            </Position>
            <AltitudeMeters>26.3999996185302734375</AltitudeMeters>
            <DistanceMeters>NAN</DistanceMeters>
          </Trackpoint>
          <Trackpoint>
            <Time>2022-07-06T09:03:14.000Z</Time>
            <Position>
              <LatitudeDegrees>44.0802069939672946929931640625</LatitudeDegrees>
              <LongitudeDegrees>-1.17272942326962947845458984375</LongitudeDegrees>
            </Position>
            <AltitudeMeters>26.799999237060546875</AltitudeMeters>
            <DistanceMeters>NAN</DistanceMeters>
          </Trackpoint>
          <Trackpoint>
            <Time>2022-07-06T09:03:17.000Z</Time>
            <Position>
              <LatitudeDegrees>44.08022157847881317138671875</LatitudeDegrees>
              <LongitudeDegrees>-1.172876693308353424072265625</LongitudeDegrees>
            </Position>
            <AltitudeMeters>27</AltitudeMeters>
            <DistanceMeters>NAN</DistanceMeters>
          </Trackpoint>
          <Trackpoint>
            <Time>2022-07-06T09:03:18.000Z</Time>
            <Position>
              <LatitudeDegrees>44.08022182993590831756591796875</LatitudeDegrees>
              <LongitudeDegrees>-1.17292539216578006744384765625</LongitudeDegrees>
            </Position>
            <AltitudeMeters>27</AltitudeMeters>
            <DistanceMeters>NAN</DistanceMeters>
          </Trackpoint>
          <Trackpoint>
            <Time>2022-07-06T09:03:21.000Z</Time>
            <Position>
              <LatitudeDegrees>44.0802284516394138336181640625</LatitudeDegrees>
              <LongitudeDegrees>-1.17306570522487163543701171875</LongitudeDegrees>
            </Position>
            <AltitudeMeters>27.3999996185302734375</AltitudeMeters>
            <DistanceMeters>NAN</DistanceMeters>
          </Trackpoint>
          <Trackpoint>
            <Time>2022-07-06T09:03:24.000Z</Time>
            <Position>
              <LatitudeDegrees>44.0802378393709659576416015625</LatitudeDegrees>
              <LongitudeDegrees>-1.17321708239614963531494140625</LongitudeDegrees>
            </Position>
            <AltitudeMeters>27.6000003814697265625</AltitudeMeters>
            <DistanceMeters>NAN</DistanceMeters>
          </Trackpoint>
          <Trackpoint>
            <Time>2022-07-06T09:03:26.000Z</Time>
            <Position>
              <LatitudeDegrees>44.080241024494171142578125</LatitudeDegrees>
              <LongitudeDegrees>-1.17331163026392459869384765625</LongitudeDegrees>
            </Position>
            <AltitudeMeters>27.6000003814697265625</AltitudeMeters>
            <DistanceMeters>NAN</DistanceMeters>
          </Trackpoint>
          <Trackpoint>
            <Time>2022-07-06T09:03:32.000Z</Time>
            <Position>
              <LatitudeDegrees>44.080262817442417144775390625</LatitudeDegrees>
              <LongitudeDegrees>-1.17364942096173763275146484375</LongitudeDegrees>
            </Position>
            <AltitudeMeters>28.200000762939453125</AltitudeMeters>
            <DistanceMeters>NAN</DistanceMeters>
          </Trackpoint>
          <Trackpoint>
            <Time>2022-07-06T09:03:34.000Z</Time>
            <Position>
              <LatitudeDegrees>44.08027597703039646148681640625</LatitudeDegrees>
              <LongitudeDegrees>-1.17375771515071392059326171875</LongitudeDegrees>
            </Position>
            <AltitudeMeters>28.200000762939453125</AltitudeMeters>
            <DistanceMeters>NAN</DistanceMeters>
          </Trackpoint>
          <Trackpoint>
            <Time>2022-07-06T09:03:39.000Z</Time>
            <Position>
              <LatitudeDegrees>44.0803281962871551513671875</LatitudeDegrees>
              <LongitudeDegrees>-1.17404839955270290374755859375</LongitudeDegrees>
            </Position>
            <AltitudeMeters>28.3999996185302734375</AltitudeMeters>
            <DistanceMeters>NAN</DistanceMeters>
          </Trackpoint>
          <Trackpoint>
            <Time>2022-07-06T09:03:42.000Z</Time>
            <Position>
              <LatitudeDegrees>44.080370105803012847900390625</LatitudeDegrees>
              <LongitudeDegrees>-1.17421251721680164337158203125</LongitudeDegrees>
            </Position>
            <AltitudeMeters>28.3999996185302734375</AltitudeMeters>
            <DistanceMeters>NAN</DistanceMeters>
          </Trackpoint>
          <Trackpoint>
            <Time>2022-07-06T09:03:43.000Z</Time>
            <Position>
              <LatitudeDegrees>44.080386199057102203369140625</LatitudeDegrees>
              <LongitudeDegrees>-1.1742645688354969024658203125</LongitudeDegrees>
            </Position>
            <AltitudeMeters>28.3999996185302734375</AltitudeMeters>
            <DistanceMeters>NAN</DistanceMeters>
          </Trackpoint>
          <Trackpoint>
            <Time>2022-07-06T09:03:45.000Z</Time>
            <Position>
              <LatitudeDegrees>44.08041880466043949127197265625</LatitudeDegrees>
              <LongitudeDegrees>-1.1743685044348239898681640625</LongitudeDegrees>
            </Position>
            <AltitudeMeters>28.3999996185302734375</AltitudeMeters>
            <DistanceMeters>NAN</DistanceMeters>
          </Trackpoint>
          <Trackpoint>
            <Time>2022-07-06T09:03:48.000Z</Time>
            <Position>
              <LatitudeDegrees>44.08047261647880077362060546875</LatitudeDegrees>
              <LongitudeDegrees>-1.1745084822177886962890625</LongitudeDegrees>
            </Position>
            <AltitudeMeters>28.6000003814697265625</AltitudeMeters>
            <DistanceMeters>NAN</DistanceMeters>
          </Trackpoint>
          <Trackpoint>
            <Time>2022-07-06T09:03:51.000Z</Time>
            <Position>
              <LatitudeDegrees>44.0805335529148578643798828125</LatitudeDegrees>
              <LongitudeDegrees>-1.1746424250304698944091796875</LongitudeDegrees>
            </Position>
            <AltitudeMeters>28.799999237060546875</AltitudeMeters>
            <DistanceMeters>NAN</DistanceMeters>
          </Trackpoint>
          <Trackpoint>
            <Time>2022-07-06T09:03:56.000Z</Time>
            <Position>
              <LatitudeDegrees>44.0805620513856410980224609375</LatitudeDegrees>
              <LongitudeDegrees>-1.174820624291896820068359375</LongitudeDegrees>
            </Position>
            <AltitudeMeters>28.3999996185302734375</AltitudeMeters>
            <DistanceMeters>NAN</DistanceMeters>
          </Trackpoint>
          <Trackpoint>
            <Time>2022-07-06T09:03:59.000Z</Time>
            <Position>
              <LatitudeDegrees>44.08052206970751285552978515625</LatitudeDegrees>
              <LongitudeDegrees>-1.17478332482278347015380859375</LongitudeDegrees>
            </Position>
            <AltitudeMeters>28.3999996185302734375</AltitudeMeters>
            <DistanceMeters>NAN</DistanceMeters>
          </Trackpoint>
          <Trackpoint>
            <Time>2022-07-06T09:04:04.000Z</Time>
            <Position>
              <LatitudeDegrees>44.080499522387981414794921875</LatitudeDegrees>
              <LongitudeDegrees>-1.17475113831460475921630859375</LongitudeDegrees>
            </Position>
            <AltitudeMeters>28.3999996185302734375</AltitudeMeters>
            <DistanceMeters>NAN</DistanceMeters>
          </Trackpoint>
          <Trackpoint>
            <Time>2022-07-06T09:14:37.000Z</Time>
            <Position>
              <LatitudeDegrees>44.080535061657428741455078125</LatitudeDegrees>
              <LongitudeDegrees>-1.17468240670859813690185546875</LongitudeDegrees>
            </Position>
            <AltitudeMeters>27.200000762939453125</AltitudeMeters>
            <DistanceMeters>NAN</DistanceMeters>
          </Trackpoint>
          <Trackpoint>
            <Time>2022-07-06T09:14:38.000Z</Time>
            <Position>
              <LatitudeDegrees>44.08052391372621059417724609375</LatitudeDegrees>
              <LongitudeDegrees>-1.17469246499240398406982421875</LongitudeDegrees>
            </Position>
            <AltitudeMeters>27.200000762939453125</AltitudeMeters>
            <DistanceMeters>NAN</DistanceMeters>
          </Trackpoint>
          <Trackpoint>
            <Time>2022-07-06T09:14:40.000Z</Time>
            <Position>
              <LatitudeDegrees>44.08051670528948307037353515625</LatitudeDegrees>
              <LongitudeDegrees>-1.174708642065525054931640625</LongitudeDegrees>
            </Position>
            <AltitudeMeters>27.200000762939453125</AltitudeMeters>
            <DistanceMeters>NAN</DistanceMeters>
          </Trackpoint>
          <Trackpoint>
            <Time>2022-07-06T09:14:44.000Z</Time>
            <Position>
              <LatitudeDegrees>44.080506227910518646240234375</LatitudeDegrees>
              <LongitudeDegrees>-1.1747178621590137481689453125</LongitudeDegrees>
            </Position>
            <AltitudeMeters>27</AltitudeMeters>
            <DistanceMeters>NAN</DistanceMeters>
          </Trackpoint>
          <Trackpoint>
            <Time>2022-07-06T09:20:42.000Z</Time>
            <Position>
              <LatitudeDegrees>44.08058158122003078460693359375</LatitudeDegrees>
              <LongitudeDegrees>-1.1747510544955730438232421875</LongitudeDegrees>
            </Position>
            <AltitudeMeters>27</AltitudeMeters>
            <DistanceMeters>NAN</DistanceMeters>
          </Trackpoint>
          <Trackpoint>
            <Time>2022-07-06T09:20:43.000Z</Time>
            <Position>
              <LatitudeDegrees>44.08059415407478809356689453125</LatitudeDegrees>
              <LongitudeDegrees>-1.17478097788989543914794921875</LongitudeDegrees>
            </Position>
            <AltitudeMeters>27.200000762939453125</AltitudeMeters>
            <DistanceMeters>NAN</DistanceMeters>
          </Trackpoint>
          <Trackpoint>
            <Time>2022-07-06T09:20:46.000Z</Time>
            <Position>
              <LatitudeDegrees>44.080636985599994659423828125</LatitudeDegrees>
              <LongitudeDegrees>-1.17487929761409759521484375</LongitudeDegrees>
            </Position>
            <AltitudeMeters>27.200000762939453125</AltitudeMeters>
            <DistanceMeters>NAN</DistanceMeters>
          </Trackpoint>
          <Trackpoint>
            <Time>2022-07-06T09:20:50.000Z</Time>
            <Position>
              <LatitudeDegrees>44.0806884504854679107666015625</LatitudeDegrees>
              <LongitudeDegrees>-1.175042577087879180908203125</LongitudeDegrees>
            </Position>
            <AltitudeMeters>27.3999996185302734375</AltitudeMeters>
            <DistanceMeters>NAN</DistanceMeters>
          </Trackpoint>
          <Trackpoint>
            <Time>2022-07-06T09:20:57.000Z</Time>
            <Position>
              <LatitudeDegrees>44.08079766668379306793212890625</LatitudeDegrees>
              <LongitudeDegrees>-1.17539562284946441650390625</LongitudeDegrees>
            </Position>
            <AltitudeMeters>27.6000003814697265625</AltitudeMeters>
            <DistanceMeters>NAN</DistanceMeters>
          </Trackpoint>
          <Trackpoint>
            <Time>2022-07-06T09:20:58.000Z</Time>
            <Position>
              <LatitudeDegrees>44.0808125026524066925048828125</LatitudeDegrees>
              <LongitudeDegrees>-1.1754417233169078826904296875</LongitudeDegrees>
            </Position>
            <AltitudeMeters>27.6000003814697265625</AltitudeMeters>
            <DistanceMeters>NAN</DistanceMeters>
          </Trackpoint>
          <Trackpoint>
            <Time>2022-07-06T09:21:02.000Z</Time>
            <Position>
              <LatitudeDegrees>44.080868326127529144287109375</LatitudeDegrees>
              <LongitudeDegrees>-1.17567189037799835205078125</LongitudeDegrees>
            </Position>
            <AltitudeMeters>27.3999996185302734375</AltitudeMeters>
            <DistanceMeters>NAN</DistanceMeters>
          </Trackpoint>
          <Trackpoint>
            <Time>2022-07-06T09:21:05.000Z</Time>
            <Position>
              <LatitudeDegrees>44.08091400749981403350830078125</LatitudeDegrees>
              <LongitudeDegrees>-1.1758584715425968170166015625</LongitudeDegrees>
            </Position>
            <AltitudeMeters>27.3999996185302734375</AltitudeMeters>
            <DistanceMeters>NAN</DistanceMeters>
          </Trackpoint>
          <Trackpoint>
            <Time>2022-07-06T09:21:06.000Z</Time>
            <Position>
              <LatitudeDegrees>44.08092875964939594268798828125</LatitudeDegrees>
              <LongitudeDegrees>-1.17592644877731800079345703125</LongitudeDegrees>
            </Position>
            <AltitudeMeters>27.200000762939453125</AltitudeMeters>
            <DistanceMeters>NAN</DistanceMeters>
          </Trackpoint>
          <Trackpoint>
            <Time>2022-07-06T09:21:10.000Z</Time>
            <Position>
              <LatitudeDegrees>44.08098475076258182525634765625</LatitudeDegrees>
              <LongitudeDegrees>-1.17619953118264675140380859375</LongitudeDegrees>
            </Position>
            <AltitudeMeters>27</AltitudeMeters>
            <DistanceMeters>NAN</DistanceMeters>
          </Trackpoint>
          <Trackpoint>
            <Time>2022-07-06T09:21:16.000Z</Time>
            <Position>
              <LatitudeDegrees>44.08104174770414829254150390625</LatitudeDegrees>
              <LongitudeDegrees>-1.1765415966510772705078125</LongitudeDegrees>
            </Position>
            <AltitudeMeters>26.799999237060546875</AltitudeMeters>
            <DistanceMeters>NAN</DistanceMeters>
          </Trackpoint>
          <Trackpoint>
            <Time>2022-07-06T09:21:17.000Z</Time>
            <Position>
              <LatitudeDegrees>44.08105297945439815521240234375</LatitudeDegrees>
              <LongitudeDegrees>-1.17660169489681720733642578125</LongitudeDegrees>
            </Position>
            <AltitudeMeters>26.799999237060546875</AltitudeMeters>
            <DistanceMeters>NAN</DistanceMeters>
          </Trackpoint>
          <Trackpoint>
            <Time>2022-07-06T09:21:19.000Z</Time>
            <Position>
              <LatitudeDegrees>44.081083573400974273681640625</LatitudeDegrees>
              <LongitudeDegrees>-1.176704876124858856201171875</LongitudeDegrees>
            </Position>
            <AltitudeMeters>26.799999237060546875</AltitudeMeters>
            <DistanceMeters>NAN</DistanceMeters>
          </Trackpoint>
          <Trackpoint>
            <Time>2022-07-06T09:21:20.000Z</Time>
            <Position>
              <LatitudeDegrees>44.08108265139162540435791015625</LatitudeDegrees>
              <LongitudeDegrees>-1.17676220834255218505859375</LongitudeDegrees>
            </Position>
            <AltitudeMeters>26.799999237060546875</AltitudeMeters>
            <DistanceMeters>NAN</DistanceMeters>
          </Trackpoint>
          <Trackpoint>
            <Time>2022-07-06T09:21:25.000Z</Time>
            <Position>
              <LatitudeDegrees>44.08112347126007080078125</LatitudeDegrees>
              <LongitudeDegrees>-1.17702699266374111175537109375</LongitudeDegrees>
            </Position>
            <AltitudeMeters>27.6000003814697265625</AltitudeMeters>
            <DistanceMeters>NAN</DistanceMeters>
          </Trackpoint>
          <Trackpoint>
            <Time>2022-07-06T09:21:28.000Z</Time>
            <Position>
              <LatitudeDegrees>44.081163369119167327880859375</LatitudeDegrees>
              <LongitudeDegrees>-1.1771549843251705169677734375</LongitudeDegrees>
            </Position>
            <AltitudeMeters>27.799999237060546875</AltitudeMeters>
            <DistanceMeters>NAN</DistanceMeters>
          </Trackpoint>
          <Trackpoint>
            <Time>2022-07-06T09:21:31.000Z</Time>
            <Position>
              <LatitudeDegrees>44.0811918675899505615234375</LatitudeDegrees>
              <LongitudeDegrees>-1.17730175144970417022705078125</LongitudeDegrees>
            </Position>
            <AltitudeMeters>28.3999996185302734375</AltitudeMeters>
            <DistanceMeters>NAN</DistanceMeters>
          </Trackpoint>
          <Trackpoint>
            <Time>2022-07-06T09:21:32.000Z</Time>
            <Position>
              <LatitudeDegrees>44.08119882456958293914794921875</LatitudeDegrees>
              <LongitudeDegrees>-1.17734215222299098968505859375</LongitudeDegrees>
            </Position>
            <AltitudeMeters>28.3999996185302734375</AltitudeMeters>
            <DistanceMeters>NAN</DistanceMeters>
          </Trackpoint>
          <Trackpoint>
            <Time>2022-07-06T09:21:43.000Z</Time>
            <Position>
              <LatitudeDegrees>44.08131030388176441192626953125</LatitudeDegrees>
              <LongitudeDegrees>-1.1778697930276393890380859375</LongitudeDegrees>
            </Position>
            <AltitudeMeters>29.200000762939453125</AltitudeMeters>
            <DistanceMeters>NAN</DistanceMeters>
          </Trackpoint>
          <Trackpoint>
            <Time>2022-07-06T09:21:48.000Z</Time>
            <Position>
              <LatitudeDegrees>44.08134684897959232330322265625</LatitudeDegrees>
              <LongitudeDegrees>-1.17812753655016422271728515625</LongitudeDegrees>
            </Position>
            <AltitudeMeters>29.200000762939453125</AltitudeMeters>
            <DistanceMeters>NAN</DistanceMeters>
          </Trackpoint>
          <Trackpoint>
            <Time>2022-07-06T09:21:50.000Z</Time>
            <Position>
              <LatitudeDegrees>44.081356823444366455078125</LatitudeDegrees>
              <LongitudeDegrees>-1.17823113687336444854736328125</LongitudeDegrees>
            </Position>
            <AltitudeMeters>29.3999996185302734375</AltitudeMeters>
            <DistanceMeters>NAN</DistanceMeters>
          </Trackpoint>
          <Trackpoint>
            <Time>2022-07-06T09:21:52.000Z</Time>
            <Position>
              <LatitudeDegrees>44.08137048594653606414794921875</LatitudeDegrees>
              <LongitudeDegrees>-1.17833398282527923583984375</LongitudeDegrees>
            </Position>
            <AltitudeMeters>29.3999996185302734375</AltitudeMeters>
            <DistanceMeters>NAN</DistanceMeters>
          </Trackpoint>
          <Trackpoint>
            <Time>2022-07-06T09:22:02.000Z</Time>
            <Position>
              <LatitudeDegrees>44.081415496766567230224609375</LatitudeDegrees>
              <LongitudeDegrees>-1.1788595281541347503662109375</LongitudeDegrees>
            </Position>
            <AltitudeMeters>29.6000003814697265625</AltitudeMeters>
            <DistanceMeters>NAN</DistanceMeters>
          </Trackpoint>
          <Trackpoint>
            <Time>2022-07-06T09:22:11.000Z</Time>
            <Position>
              <LatitudeDegrees>44.0814515389502048492431640625</LatitudeDegrees>
              <LongitudeDegrees>-1.17930351756513118743896484375</LongitudeDegrees>
            </Position>
            <AltitudeMeters>29.3999996185302734375</AltitudeMeters>
            <DistanceMeters>NAN</DistanceMeters>
          </Trackpoint>
          <Trackpoint>
            <Time>2022-07-06T09:22:16.000Z</Time>
            <Position>
              <LatitudeDegrees>44.08147257752716541290283203125</LatitudeDegrees>
              <LongitudeDegrees>-1.1795659549534320831298828125</LongitudeDegrees>
            </Position>
            <AltitudeMeters>29.3999996185302734375</AltitudeMeters>
            <DistanceMeters>NAN</DistanceMeters>
          </Trackpoint>
          <Trackpoint>
            <Time>2022-07-06T09:22:25.000Z</Time>
            <Position>
              <LatitudeDegrees>44.08153527416288852691650390625</LatitudeDegrees>
              <LongitudeDegrees>-1.18006937205791473388671875</LongitudeDegrees>
            </Position>
            <AltitudeMeters>29.799999237060546875</AltitudeMeters>
            <DistanceMeters>NAN</DistanceMeters>
          </Trackpoint>
          <Trackpoint>
            <Time>2022-07-06T09:22:32.000Z</Time>
            <Position>
              <LatitudeDegrees>44.081579782068729400634765625</LatitudeDegrees>
              <LongitudeDegrees>-1.18046499788761138916015625</LongitudeDegrees>
            </Position>
            <AltitudeMeters>29.799999237060546875</AltitudeMeters>
            <DistanceMeters>NAN</DistanceMeters>
          </Trackpoint>
          <Trackpoint>
            <Time>2022-07-06T09:22:35.000Z</Time>
            <Position>
              <LatitudeDegrees>44.081597216427326202392578125</LatitudeDegrees>
              <LongitudeDegrees>-1.180624254047870635986328125</LongitudeDegrees>
            </Position>
            <AltitudeMeters>29.799999237060546875</AltitudeMeters>
            <DistanceMeters>NAN</DistanceMeters>
          </Trackpoint>
          <Trackpoint>
            <Time>2022-07-06T09:22:42.000Z</Time>
            <Position>
              <LatitudeDegrees>44.0816419757902622222900390625</LatitudeDegrees>
              <LongitudeDegrees>-1.1810351349413394927978515625</LongitudeDegrees>
            </Position>
            <AltitudeMeters>29.6000003814697265625</AltitudeMeters>
            <DistanceMeters>NAN</DistanceMeters>
          </Trackpoint>
          <Trackpoint>
            <Time>2022-07-06T09:22:43.000Z</Time>
            <Position>
              <LatitudeDegrees>44.081648848950862884521484375</LatitudeDegrees>
              <LongitudeDegrees>-1.18107796646654605865478515625</LongitudeDegrees>
            </Position>
            <AltitudeMeters>29.3999996185302734375</AltitudeMeters>
            <DistanceMeters>NAN</DistanceMeters>
          </Trackpoint>
          <Trackpoint>
            <Time>2022-07-06T09:22:52.000Z</Time>
            <Position>
              <LatitudeDegrees>44.08169788308441638946533203125</LatitudeDegrees>
              <LongitudeDegrees>-1.18160300888121128082275390625</LongitudeDegrees>
            </Position>
            <AltitudeMeters>29.799999237060546875</AltitudeMeters>
            <DistanceMeters>NAN</DistanceMeters>
          </Trackpoint>
          <Trackpoint>
            <Time>2022-07-06T09:23:01.000Z</Time>
            <Position>
              <LatitudeDegrees>44.08173157833516597747802734375</LatitudeDegrees>
              <LongitudeDegrees>-1.1821234412491321563720703125</LongitudeDegrees>
            </Position>
            <AltitudeMeters>29.3999996185302734375</AltitudeMeters>
            <DistanceMeters>NAN</DistanceMeters>
          </Trackpoint>
          <Trackpoint>
            <Time>2022-07-06T09:23:03.000Z</Time>
            <Position>
              <LatitudeDegrees>44.0817301534116268157958984375</LatitudeDegrees>
              <LongitudeDegrees>-1.1822508461773395538330078125</LongitudeDegrees>
            </Position>
            <AltitudeMeters>29.3999996185302734375</AltitudeMeters>
            <DistanceMeters>NAN</DistanceMeters>
          </Trackpoint>
          <Trackpoint>
            <Time>2022-07-06T09:23:09.000Z</Time>
            <Position>
              <LatitudeDegrees>44.08171020448207855224609375</LatitudeDegrees>
              <LongitudeDegrees>-1.1826263554394245147705078125</LongitudeDegrees>
            </Position>
            <AltitudeMeters>29</AltitudeMeters>
            <DistanceMeters>NAN</DistanceMeters>
          </Trackpoint>
          <Trackpoint>
            <Time>2022-07-06T09:23:15.000Z</Time>
            <Position>
              <LatitudeDegrees>44.08167256973683834075927734375</LatitudeDegrees>
              <LongitudeDegrees>-1.18299004621803760528564453125</LongitudeDegrees>
            </Position>
            <AltitudeMeters>28.799999237060546875</AltitudeMeters>
            <DistanceMeters>NAN</DistanceMeters>
          </Trackpoint>
          <Trackpoint>
            <Time>2022-07-06T09:23:18.000Z</Time>
            <Position>
              <LatitudeDegrees>44.08165312372148036956787109375</LatitudeDegrees>
              <LongitudeDegrees>-1.18316103704273700714111328125</LongitudeDegrees>
            </Position>
            <AltitudeMeters>28.6000003814697265625</AltitudeMeters>
            <DistanceMeters>NAN</DistanceMeters>
          </Trackpoint>
          <Trackpoint>
            <Time>2022-07-06T09:23:22.000Z</Time>
            <Position>
              <LatitudeDegrees>44.081624038517475128173828125</LatitudeDegrees>
              <LongitudeDegrees>-1.18341651745140552520751953125</LongitudeDegrees>
            </Position>
            <AltitudeMeters>28.3999996185302734375</AltitudeMeters>
            <DistanceMeters>NAN</DistanceMeters>
          </Trackpoint>
          <Trackpoint>
            <Time>2022-07-06T09:23:26.000Z</Time>
            <Position>
              <LatitudeDegrees>44.08158942125737667083740234375</LatitudeDegrees>
              <LongitudeDegrees>-1.18366445414721965789794921875</LongitudeDegrees>
            </Position>
            <AltitudeMeters>28</AltitudeMeters>
            <DistanceMeters>NAN</DistanceMeters>
          </Trackpoint>
          <Trackpoint>
            <Time>2022-07-06T09:23:27.000Z</Time>
            <Position>
              <LatitudeDegrees>44.08158405683934688568115234375</LatitudeDegrees>
              <LongitudeDegrees>-1.183718182146549224853515625</LongitudeDegrees>
            </Position>
            <AltitudeMeters>27.799999237060546875</AltitudeMeters>
            <DistanceMeters>NAN</DistanceMeters>
          </Trackpoint>
          <Trackpoint>
            <Time>2022-07-06T09:23:34.000Z</Time>
            <Position>
              <LatitudeDegrees>44.08153208903968334197998046875</LatitudeDegrees>
              <LongitudeDegrees>-1.18410768918693065643310546875</LongitudeDegrees>
            </Position>
            <AltitudeMeters>27.6000003814697265625</AltitudeMeters>
            <DistanceMeters>NAN</DistanceMeters>
          </Trackpoint>
          <Trackpoint>
            <Time>2022-07-06T09:23:36.000Z</Time>
            <Position>
              <LatitudeDegrees>44.0815162472426891326904296875</LatitudeDegrees>
              <LongitudeDegrees>-1.1842450685799121856689453125</LongitudeDegrees>
            </Position>
            <AltitudeMeters>27.6000003814697265625</AltitudeMeters>
            <DistanceMeters>NAN</DistanceMeters>
          </Trackpoint>
          <Trackpoint>
            <Time>2022-07-06T09:23:38.000Z</Time>
            <Position>
              <LatitudeDegrees>44.0815031714737415313720703125</LatitudeDegrees>
              <LongitudeDegrees>-1.1843536980450153350830078125</LongitudeDegrees>
            </Position>
            <AltitudeMeters>27.6000003814697265625</AltitudeMeters>
            <DistanceMeters>NAN</DistanceMeters>
          </Trackpoint>
          <Trackpoint>
            <Time>2022-07-06T09:23:41.000Z</Time>
            <Position>
              <LatitudeDegrees>44.0814817138016223907470703125</LatitudeDegrees>
              <LongitudeDegrees>-1.18454455398023128509521484375</LongitudeDegrees>
            </Position>
            <AltitudeMeters>27.200000762939453125</AltitudeMeters>
            <DistanceMeters>NAN</DistanceMeters>
          </Trackpoint>
          <Trackpoint>
            <Time>2022-07-06T09:23:43.000Z</Time>
            <Position>
              <LatitudeDegrees>44.08147123642265796661376953125</LatitudeDegrees>
              <LongitudeDegrees>-1.18466877378523349761962890625</LongitudeDegrees>
            </Position>
            <AltitudeMeters>27.200000762939453125</AltitudeMeters>
            <DistanceMeters>NAN</DistanceMeters>
          </Trackpoint>
          <Trackpoint>
            <Time>2022-07-06T09:23:49.000Z</Time>
            <Position>
              <LatitudeDegrees>44.081447683274745941162109375</LatitudeDegrees>
              <LongitudeDegrees>-1.1850607953965663909912109375</LongitudeDegrees>
            </Position>
            <AltitudeMeters>26.799999237060546875</AltitudeMeters>
            <DistanceMeters>NAN</DistanceMeters>
          </Trackpoint>
          <Trackpoint>
            <Time>2022-07-06T09:23:51.000Z</Time>
            <Position>
              <LatitudeDegrees>44.08146251924335956573486328125</LatitudeDegrees>
              <LongitudeDegrees>-1.18519297800958156585693359375</LongitudeDegrees>
            </Position>
            <AltitudeMeters>26.799999237060546875</AltitudeMeters>
            <DistanceMeters>NAN</DistanceMeters>
          </Trackpoint>
          <Trackpoint>
            <Time>2022-07-06T09:23:54.000Z</Time>
            <Position>
              <LatitudeDegrees>44.08149135299026966094970703125</LatitudeDegrees>
              <LongitudeDegrees>-1.1854326166212558746337890625</LongitudeDegrees>
            </Position>
            <AltitudeMeters>26.3999996185302734375</AltitudeMeters>
            <DistanceMeters>NAN</DistanceMeters>
          </Trackpoint>
          <Trackpoint>
            <Time>2022-07-06T09:23:55.000Z</Time>
            <Position>
              <LatitudeDegrees>44.081499315798282623291015625</LatitudeDegrees>
              <LongitudeDegrees>-1.1855070479214191436767578125</LongitudeDegrees>
            </Position>
            <AltitudeMeters>26</AltitudeMeters>
            <DistanceMeters>NAN</DistanceMeters>
          </Trackpoint>
          <Trackpoint>
            <Time>2022-07-06T09:23:56.000Z</Time>
            <Position>
              <LatitudeDegrees>44.0815152414143085479736328125</LatitudeDegrees>
              <LongitudeDegrees>-1.1856210418045520782470703125</LongitudeDegrees>
            </Position>
            <AltitudeMeters>25.6000003814697265625</AltitudeMeters>
            <DistanceMeters>NAN</DistanceMeters>
          </Trackpoint>
          <Trackpoint>
            <Time>2022-07-06T09:23:59.000Z</Time>
            <Position>
              <LatitudeDegrees>44.08157165162265300750732421875</LatitudeDegrees>
              <LongitudeDegrees>-1.18591868318617343902587890625</LongitudeDegrees>
            </Position>
            <AltitudeMeters>25</AltitudeMeters>
            <DistanceMeters>NAN</DistanceMeters>
          </Trackpoint>
          <Trackpoint>
            <Time>2022-07-06T09:24:02.000Z</Time>
            <Position>
              <LatitudeDegrees>44.08162571489810943603515625</LatitudeDegrees>
              <LongitudeDegrees>-1.186197213828563690185546875</LongitudeDegrees>
            </Position>
            <AltitudeMeters>24.200000762939453125</AltitudeMeters>
            <DistanceMeters>NAN</DistanceMeters>
          </Trackpoint>
          <Trackpoint>
            <Time>2022-07-06T09:24:04.000Z</Time>
            <Position>
              <LatitudeDegrees>44.0816641040146350860595703125</LatitudeDegrees>
              <LongitudeDegrees>-1.186356134712696075439453125</LongitudeDegrees>
            </Position>
            <AltitudeMeters>23.799999237060546875</AltitudeMeters>
            <DistanceMeters>NAN</DistanceMeters>
          </Trackpoint>
          <Trackpoint>
            <Time>2022-07-06T09:24:07.000Z</Time>
            <Position>
              <LatitudeDegrees>44.081701822578907012939453125</LatitudeDegrees>
              <LongitudeDegrees>-1.1865816079080104827880859375</LongitudeDegrees>
            </Position>
            <AltitudeMeters>23.799999237060546875</AltitudeMeters>
            <DistanceMeters>NAN</DistanceMeters>
          </Trackpoint>
          <Trackpoint>
            <Time>2022-07-06T09:24:12.000Z</Time>
            <Position>
              <LatitudeDegrees>44.08176125027239322662353515625</LatitudeDegrees>
              <LongitudeDegrees>-1.18685192428529262542724609375</LongitudeDegrees>
            </Position>
            <AltitudeMeters>24.6000003814697265625</AltitudeMeters>
            <DistanceMeters>NAN</DistanceMeters>
          </Trackpoint>
          <Trackpoint>
            <Time>2022-07-06T09:24:14.000Z</Time>
            <Position>
              <LatitudeDegrees>44.08177801407873630523681640625</LatitudeDegrees>
              <LongitudeDegrees>-1.1869376711547374725341796875</LongitudeDegrees>
            </Position>
            <AltitudeMeters>24.799999237060546875</AltitudeMeters>
            <DistanceMeters>NAN</DistanceMeters>
          </Trackpoint>
          <Trackpoint>
            <Time>2022-07-06T09:24:17.000Z</Time>
            <Position>
              <LatitudeDegrees>44.081807099282741546630859375</LatitudeDegrees>
              <LongitudeDegrees>-1.18703464977443218231201171875</LongitudeDegrees>
            </Position>
            <AltitudeMeters>25</AltitudeMeters>
            <DistanceMeters>NAN</DistanceMeters>
          </Trackpoint>
          <Trackpoint>
            <Time>2022-07-06T09:24:18.000Z</Time>
            <Position>
              <LatitudeDegrees>44.08181657083332538604736328125</LatitudeDegrees>
              <LongitudeDegrees>-1.18706767447292804718017578125</LongitudeDegrees>
            </Position>
            <AltitudeMeters>25.200000762939453125</AltitudeMeters>
            <DistanceMeters>NAN</DistanceMeters>
          </Trackpoint>
          <Trackpoint>
            <Time>2022-07-06T09:24:21.000Z</Time>
            <Position>
              <LatitudeDegrees>44.08183551393449306488037109375</LatitudeDegrees>
              <LongitudeDegrees>-1.18718233890831470489501953125</LongitudeDegrees>
            </Position>
            <AltitudeMeters>25.3999996185302734375</AltitudeMeters>
            <DistanceMeters>NAN</DistanceMeters>
          </Trackpoint>
          <Trackpoint>
            <Time>2022-07-06T09:24:22.000Z</Time>
            <Position>
              <LatitudeDegrees>44.08184020780026912689208984375</LatitudeDegrees>
              <LongitudeDegrees>-1.1872194707393646240234375</LongitudeDegrees>
            </Position>
            <AltitudeMeters>25.6000003814697265625</AltitudeMeters>
            <DistanceMeters>NAN</DistanceMeters>
          </Trackpoint>
          <Trackpoint>
            <Time>2022-07-06T09:24:26.000Z</Time>
            <Position>
              <LatitudeDegrees>44.0818659402430057525634765625</LatitudeDegrees>
              <LongitudeDegrees>-1.18737244047224521636962890625</LongitudeDegrees>
            </Position>
            <AltitudeMeters>26</AltitudeMeters>
            <DistanceMeters>NAN</DistanceMeters>
          </Trackpoint>
          <Trackpoint>
            <Time>2022-07-06T09:24:33.000Z</Time>
            <Position>
              <LatitudeDegrees>44.08192050643265247344970703125</LatitudeDegrees>
              <LongitudeDegrees>-1.18763177655637264251708984375</LongitudeDegrees>
            </Position>
            <AltitudeMeters>26.3999996185302734375</AltitudeMeters>
            <DistanceMeters>NAN</DistanceMeters>
          </Trackpoint>
          <Trackpoint>
            <Time>2022-07-06T09:24:40.000Z</Time>
            <Position>
              <LatitudeDegrees>44.08196694217622280120849609375</LatitudeDegrees>
              <LongitudeDegrees>-1.1879257299005985260009765625</LongitudeDegrees>
            </Position>
            <AltitudeMeters>26.799999237060546875</AltitudeMeters>
            <DistanceMeters>NAN</DistanceMeters>
          </Trackpoint>
          <Trackpoint>
            <Time>2022-07-06T09:24:42.000Z</Time>
            <Position>
              <LatitudeDegrees>44.081971384584903717041015625</LatitudeDegrees>
              <LongitudeDegrees>-1.18800158612430095672607421875</LongitudeDegrees>
            </Position>
            <AltitudeMeters>26.799999237060546875</AltitudeMeters>
            <DistanceMeters>NAN</DistanceMeters>
          </Trackpoint>
          <Trackpoint>
            <Time>2022-07-06T09:24:45.000Z</Time>
            <Position>
              <LatitudeDegrees>44.08199946396052837371826171875</LatitudeDegrees>
              <LongitudeDegrees>-1.18814843706786632537841796875</LongitudeDegrees>
            </Position>
            <AltitudeMeters>27</AltitudeMeters>
            <DistanceMeters>NAN</DistanceMeters>
          </Trackpoint>
          <Trackpoint>
            <Time>2022-07-06T09:24:51.000Z</Time>
            <Position>
              <LatitudeDegrees>44.08205109648406505584716796875</LatitudeDegrees>
              <LongitudeDegrees>-1.1884423904120922088623046875</LongitudeDegrees>
            </Position>
            <AltitudeMeters>26.799999237060546875</AltitudeMeters>
            <DistanceMeters>NAN</DistanceMeters>
          </Trackpoint>
          <Trackpoint>
            <Time>2022-07-06T09:24:52.000Z</Time>
            <Position>
              <LatitudeDegrees>44.082057885825634002685546875</LatitudeDegrees>
              <LongitudeDegrees>-1.1884953640401363372802734375</LongitudeDegrees>
            </Position>
            <AltitudeMeters>26.799999237060546875</AltitudeMeters>
            <DistanceMeters>NAN</DistanceMeters>
          </Trackpoint>
          <Trackpoint>
            <Time>2022-07-06T09:24:57.000Z</Time>
            <Position>
              <LatitudeDegrees>44.082106836140155792236328125</LatitudeDegrees>
              <LongitudeDegrees>-1.18879065848886966705322265625</LongitudeDegrees>
            </Position>
            <AltitudeMeters>27</AltitudeMeters>
            <DistanceMeters>NAN</DistanceMeters>
          </Trackpoint>
          <Trackpoint>
            <Time>2022-07-06T09:24:58.000Z</Time>
            <Position>
              <LatitudeDegrees>44.08211412839591503143310546875</LatitudeDegrees>
              <LongitudeDegrees>-1.18885486386716365814208984375</LongitudeDegrees>
            </Position>
            <AltitudeMeters>27</AltitudeMeters>
            <DistanceMeters>NAN</DistanceMeters>
          </Trackpoint>
          <Trackpoint>
            <Time>2022-07-06T09:24:59.000Z</Time>
            <Position>
              <LatitudeDegrees>44.08212653361260890960693359375</LatitudeDegrees>
              <LongitudeDegrees>-1.18891655467450618743896484375</LongitudeDegrees>
            </Position>
            <AltitudeMeters>26.799999237060546875</AltitudeMeters>
            <DistanceMeters>NAN</DistanceMeters>
          </Trackpoint>
          <Trackpoint>
            <Time>2022-07-06T09:25:04.000Z</Time>
            <Position>
              <LatitudeDegrees>44.08214874565601348876953125</LatitudeDegrees>
              <LongitudeDegrees>-1.18925300426781177520751953125</LongitudeDegrees>
            </Position>
            <AltitudeMeters>26.200000762939453125</AltitudeMeters>
            <DistanceMeters>NAN</DistanceMeters>
          </Trackpoint>
          <Trackpoint>
            <Time>2022-07-06T09:25:06.000Z</Time>
            <Position>
              <LatitudeDegrees>44.08215050585567951202392578125</LatitudeDegrees>
              <LongitudeDegrees>-1.1893985979259014129638671875</LongitudeDegrees>
            </Position>
            <AltitudeMeters>26</AltitudeMeters>
            <DistanceMeters>NAN</DistanceMeters>
          </Trackpoint>
          <Trackpoint>
            <Time>2022-07-06T09:25:08.000Z</Time>
            <Position>
              <LatitudeDegrees>44.08213575370609760284423828125</LatitudeDegrees>
              <LongitudeDegrees>-1.18954469449818134307861328125</LongitudeDegrees>
            </Position>
            <AltitudeMeters>26</AltitudeMeters>
            <DistanceMeters>NAN</DistanceMeters>
          </Trackpoint>
          <Trackpoint>
            <Time>2022-07-06T09:25:11.000Z</Time>
            <Position>
              <LatitudeDegrees>44.0821163915097713470458984375</LatitudeDegrees>
              <LongitudeDegrees>-1.1897308565676212310791015625</LongitudeDegrees>
            </Position>
            <AltitudeMeters>26</AltitudeMeters>
            <DistanceMeters>NAN</DistanceMeters>
          </Trackpoint>
          <Trackpoint>
            <Time>2022-07-06T09:25:13.000Z</Time>
            <Position>
              <LatitudeDegrees>44.082104153931140899658203125</LatitudeDegrees>
              <LongitudeDegrees>-1.18990176357328891754150390625</LongitudeDegrees>
            </Position>
            <AltitudeMeters>25.799999237060546875</AltitudeMeters>
            <DistanceMeters>NAN</DistanceMeters>
          </Trackpoint>
          <Trackpoint>
            <Time>2022-07-06T09:25:21.000Z</Time>
            <Position>
              <LatitudeDegrees>44.0820188261568546295166015625</LatitudeDegrees>
              <LongitudeDegrees>-1.190517246723175048828125</LongitudeDegrees>
            </Position>
            <AltitudeMeters>25</AltitudeMeters>
            <DistanceMeters>NAN</DistanceMeters>
          </Trackpoint>
          <Trackpoint>
            <Time>2022-07-06T09:25:23.000Z</Time>
            <Position>
              <LatitudeDegrees>44.08199711702764034271240234375</LatitudeDegrees>
              <LongitudeDegrees>-1.1906622536480426788330078125</LongitudeDegrees>
            </Position>
            <AltitudeMeters>25</AltitudeMeters>
            <DistanceMeters>NAN</DistanceMeters>
          </Trackpoint>
          <Trackpoint>
            <Time>2022-07-06T09:25:26.000Z</Time>
            <Position>
              <LatitudeDegrees>44.0819638408720493316650390625</LatitudeDegrees>
              <LongitudeDegrees>-1.190883032977581024169921875</LongitudeDegrees>
            </Position>
            <AltitudeMeters>24.6000003814697265625</AltitudeMeters>
            <DistanceMeters>NAN</DistanceMeters>
          </Trackpoint>
          <Trackpoint>
            <Time>2022-07-06T09:25:30.000Z</Time>
            <Position>
              <LatitudeDegrees>44.08192771486937999725341796875</LatitudeDegrees>
              <LongitudeDegrees>-1.19115016423165798187255859375</LongitudeDegrees>
            </Position>
            <AltitudeMeters>24.3999996185302734375</AltitudeMeters>
            <DistanceMeters>NAN</DistanceMeters>
          </Trackpoint>
          <Trackpoint>
            <Time>2022-07-06T09:25:32.000Z</Time>
            <Position>
              <LatitudeDegrees>44.08190826885402202606201171875</LatitudeDegrees>
              <LongitudeDegrees>-1.1912955902516841888427734375</LongitudeDegrees>
            </Position>
            <AltitudeMeters>24</AltitudeMeters>
            <DistanceMeters>NAN</DistanceMeters>
          </Trackpoint>
          <Trackpoint>
            <Time>2022-07-06T09:25:35.000Z</Time>
            <Position>
              <LatitudeDegrees>44.081886224448680877685546875</LatitudeDegrees>
              <LongitudeDegrees>-1.19146046228706836700439453125</LongitudeDegrees>
            </Position>
            <AltitudeMeters>23.3999996185302734375</AltitudeMeters>
            <DistanceMeters>NAN</DistanceMeters>
          </Trackpoint>
          <Trackpoint>
            <Time>2022-07-06T09:25:37.000Z</Time>
            <Position>
              <LatitudeDegrees>44.08187323249876499176025390625</LatitudeDegrees>
              <LongitudeDegrees>-1.1915795691311359405517578125</LongitudeDegrees>
            </Position>
            <AltitudeMeters>23.3999996185302734375</AltitudeMeters>
            <DistanceMeters>NAN</DistanceMeters>
          </Trackpoint>
          <Trackpoint>
            <Time>2022-07-06T09:25:38.000Z</Time>
            <Position>
              <LatitudeDegrees>44.08186183311045169830322265625</LatitudeDegrees>
              <LongitudeDegrees>-1.1916389130055904388427734375</LongitudeDegrees>
            </Position>
            <AltitudeMeters>23.3999996185302734375</AltitudeMeters>
            <DistanceMeters>NAN</DistanceMeters>
          </Trackpoint>
          <Trackpoint>
            <Time>2022-07-06T09:25:39.000Z</Time>
            <Position>
              <LatitudeDegrees>44.08185328356921672821044921875</LatitudeDegrees>
              <LongitudeDegrees>-1.1917002685368061065673828125</LongitudeDegrees>
            </Position>
            <AltitudeMeters>23.3999996185302734375</AltitudeMeters>
            <DistanceMeters>NAN</DistanceMeters>
          </Trackpoint>
          <Trackpoint>
            <Time>2022-07-06T09:25:45.000Z</Time>
            <Position>
              <LatitudeDegrees>44.0817911736667156219482421875</LatitudeDegrees>
              <LongitudeDegrees>-1.19211039505898952484130859375</LongitudeDegrees>
            </Position>
            <AltitudeMeters>24.6000003814697265625</AltitudeMeters>
            <DistanceMeters>NAN</DistanceMeters>
          </Trackpoint>
          <Trackpoint>
            <Time>2022-07-06T09:25:56.000Z</Time>
            <Position>
              <LatitudeDegrees>44.0816738270223140716552734375</LatitudeDegrees>
              <LongitudeDegrees>-1.1928918398916721343994140625</LongitudeDegrees>
            </Position>
            <AltitudeMeters>24</AltitudeMeters>
            <DistanceMeters>NAN</DistanceMeters>
          </Trackpoint>
          <Trackpoint>
            <Time>2022-07-06T09:25:58.000Z</Time>
            <Position>
              <LatitudeDegrees>44.081651531159877777099609375</LatitudeDegrees>
              <LongitudeDegrees>-1.19304346852004528045654296875</LongitudeDegrees>
            </Position>
            <AltitudeMeters>23.799999237060546875</AltitudeMeters>
            <DistanceMeters>NAN</DistanceMeters>
          </Trackpoint>
          <Trackpoint>
            <Time>2022-07-06T09:26:00.000Z</Time>
            <Position>
              <LatitudeDegrees>44.08162697218358516693115234375</LatitudeDegrees>
              <LongitudeDegrees>-1.19319819845259189605712890625</LongitudeDegrees>
            </Position>
            <AltitudeMeters>23.6000003814697265625</AltitudeMeters>
            <DistanceMeters>NAN</DistanceMeters>
          </Trackpoint>
          <Trackpoint>
            <Time>2022-07-06T09:26:04.000Z</Time>
            <Position>
              <LatitudeDegrees>44.081590175628662109375</LatitudeDegrees>
              <LongitudeDegrees>-1.1934758909046649932861328125</LongitudeDegrees>
            </Position>
            <AltitudeMeters>23.3999996185302734375</AltitudeMeters>
            <DistanceMeters>NAN</DistanceMeters>
          </Trackpoint>
          <Trackpoint>
            <Time>2022-07-06T09:26:11.000Z</Time>
            <Position>
              <LatitudeDegrees>44.08153443597257137298583984375</LatitudeDegrees>
              <LongitudeDegrees>-1.19390160776674747467041015625</LongitudeDegrees>
            </Position>
            <AltitudeMeters>23.799999237060546875</AltitudeMeters>
            <DistanceMeters>NAN</DistanceMeters>
          </Trackpoint>
          <Trackpoint>
            <Time>2022-07-06T09:26:13.000Z</Time>
            <Position>
              <LatitudeDegrees>44.0815145708620548248291015625</LatitudeDegrees>
              <LongitudeDegrees>-1.194020546972751617431640625</LongitudeDegrees>
            </Position>
            <AltitudeMeters>23.799999237060546875</AltitudeMeters>
            <DistanceMeters>NAN</DistanceMeters>
          </Trackpoint>
          <Trackpoint>
            <Time>2022-07-06T09:26:18.000Z</Time>
            <Position>
              <LatitudeDegrees>44.0814709849655628204345703125</LatitudeDegrees>
              <LongitudeDegrees>-1.19432003237307071685791015625</LongitudeDegrees>
            </Position>
            <AltitudeMeters>24.3999996185302734375</AltitudeMeters>
            <DistanceMeters>NAN</DistanceMeters>
          </Trackpoint>
          <Trackpoint>
            <Time>2022-07-06T09:26:20.000Z</Time>
            <Position>
              <LatitudeDegrees>44.08144944347441196441650390625</LatitudeDegrees>
              <LongitudeDegrees>-1.19444726966321468353271484375</LongitudeDegrees>
            </Position>
            <AltitudeMeters>24.3999996185302734375</AltitudeMeters>
            <DistanceMeters>NAN</DistanceMeters>
          </Trackpoint>
          <Trackpoint>
            <Time>2022-07-06T09:26:28.000Z</Time>
            <Position>
              <LatitudeDegrees>44.08138959668576717376708984375</LatitudeDegrees>
              <LongitudeDegrees>-1.19489335455000400543212890625</LongitudeDegrees>
            </Position>
            <AltitudeMeters>24.200000762939453125</AltitudeMeters>
            <DistanceMeters>NAN</DistanceMeters>
          </Trackpoint>
          <Trackpoint>
            <Time>2022-07-06T09:26:29.000Z</Time>
            <Position>
              <LatitudeDegrees>44.081382639706134796142578125</LatitudeDegrees>
              <LongitudeDegrees>-1.1949534527957439422607421875</LongitudeDegrees>
            </Position>
            <AltitudeMeters>24.200000762939453125</AltitudeMeters>
            <DistanceMeters>NAN</DistanceMeters>
          </Trackpoint>
          <Trackpoint>
            <Time>2022-07-06T09:26:33.000Z</Time>
            <Position>
              <LatitudeDegrees>44.0813472680747509002685546875</LatitudeDegrees>
              <LongitudeDegrees>-1.19519971311092376708984375</LongitudeDegrees>
            </Position>
            <AltitudeMeters>24.3999996185302734375</AltitudeMeters>
            <DistanceMeters>NAN</DistanceMeters>
          </Trackpoint>
          <Trackpoint>
            <Time>2022-07-06T09:26:35.000Z</Time>
            <Position>
              <LatitudeDegrees>44.08133293502032756805419921875</LatitudeDegrees>
              <LongitudeDegrees>-1.19532384909689426422119140625</LongitudeDegrees>
            </Position>
            <AltitudeMeters>24.3999996185302734375</AltitudeMeters>
            <DistanceMeters>NAN</DistanceMeters>
          </Trackpoint>
          <Trackpoint>
            <Time>2022-07-06T09:26:37.000Z</Time>
            <Position>
              <LatitudeDegrees>44.08131483010947704315185546875</LatitudeDegrees>
              <LongitudeDegrees>-1.1954355798661708831787109375</LongitudeDegrees>
            </Position>
            <AltitudeMeters>24.200000762939453125</AltitudeMeters>
            <DistanceMeters>NAN</DistanceMeters>
          </Trackpoint>
          <Trackpoint>
            <Time>2022-07-06T09:26:38.000Z</Time>
            <Position>
              <LatitudeDegrees>44.08130242489278316497802734375</LatitudeDegrees>
              <LongitudeDegrees>-1.19551093317568302154541015625</LongitudeDegrees>
            </Position>
            <AltitudeMeters>24.200000762939453125</AltitudeMeters>
            <DistanceMeters>NAN</DistanceMeters>
          </Trackpoint>
          <Trackpoint>
            <Time>2022-07-06T09:26:40.000Z</Time>
            <Position>
              <LatitudeDegrees>44.08128029666841030120849609375</LatitudeDegrees>
              <LongitudeDegrees>-1.19563557207584381103515625</LongitudeDegrees>
            </Position>
            <AltitudeMeters>24</AltitudeMeters>
            <DistanceMeters>NAN</DistanceMeters>
          </Trackpoint>
          <Trackpoint>
            <Time>2022-07-06T09:26:42.000Z</Time>
            <Position>
              <LatitudeDegrees>44.0812654606997966766357421875</LatitudeDegrees>
              <LongitudeDegrees>-1.1957554332911968231201171875</LongitudeDegrees>
            </Position>
            <AltitudeMeters>24</AltitudeMeters>
            <DistanceMeters>NAN</DistanceMeters>
          </Trackpoint>
          <Trackpoint>
            <Time>2022-07-06T09:26:47.000Z</Time>
            <Position>
              <LatitudeDegrees>44.081221036612987518310546875</LatitudeDegrees>
              <LongitudeDegrees>-1.19606204330921173095703125</LongitudeDegrees>
            </Position>
            <AltitudeMeters>23.799999237060546875</AltitudeMeters>
            <DistanceMeters>NAN</DistanceMeters>
          </Trackpoint>
          <Trackpoint>
            <Time>2022-07-06T09:26:48.000Z</Time>
            <Position>
              <LatitudeDegrees>44.081210978329181671142578125</LatitudeDegrees>
              <LongitudeDegrees>-1.19612733833491802215576171875</LongitudeDegrees>
            </Position>
            <AltitudeMeters>23.799999237060546875</AltitudeMeters>
            <DistanceMeters>NAN</DistanceMeters>
          </Trackpoint>
          <Trackpoint>
            <Time>2022-07-06T09:26:52.000Z</Time>
            <Position>
              <LatitudeDegrees>44.0811595134437084197998046875</LatitudeDegrees>
              <LongitudeDegrees>-1.19637896306812763214111328125</LongitudeDegrees>
            </Position>
            <AltitudeMeters>23.799999237060546875</AltitudeMeters>
            <DistanceMeters>NAN</DistanceMeters>
          </Trackpoint>
          <Trackpoint>
            <Time>2022-07-06T09:26:54.000Z</Time>
            <Position>
              <LatitudeDegrees>44.08114702440798282623291015625</LatitudeDegrees>
              <LongitudeDegrees>-1.19653201662003993988037109375</LongitudeDegrees>
            </Position>
            <AltitudeMeters>23.799999237060546875</AltitudeMeters>
            <DistanceMeters>NAN</DistanceMeters>
          </Trackpoint>
          <Trackpoint>
            <Time>2022-07-06T09:26:59.000Z</Time>
            <Position>
              <LatitudeDegrees>44.08110360614955425262451171875</LatitudeDegrees>
              <LongitudeDegrees>-1.19688950479030609130859375</LongitudeDegrees>
            </Position>
            <AltitudeMeters>24.200000762939453125</AltitudeMeters>
            <DistanceMeters>NAN</DistanceMeters>
          </Trackpoint>
          <Trackpoint>
            <Time>2022-07-06T09:27:00.000Z</Time>
            <Position>
              <LatitudeDegrees>44.08109438605606555938720703125</LatitudeDegrees>
              <LongitudeDegrees>-1.19696301408112049102783203125</LongitudeDegrees>
            </Position>
            <AltitudeMeters>24.200000762939453125</AltitudeMeters>
            <DistanceMeters>NAN</DistanceMeters>
          </Trackpoint>
          <Trackpoint>
            <Time>2022-07-06T09:27:05.000Z</Time>
            <Position>
              <LatitudeDegrees>44.0810508839786052703857421875</LatitudeDegrees>
              <LongitudeDegrees>-1.1973179876804351806640625</LongitudeDegrees>
            </Position>
            <AltitudeMeters>24.200000762939453125</AltitudeMeters>
            <DistanceMeters>NAN</DistanceMeters>
          </Trackpoint>
          <Trackpoint>
            <Time>2022-07-06T09:27:08.000Z</Time>
            <Position>
              <LatitudeDegrees>44.08101685345172882080078125</LatitudeDegrees>
              <LongitudeDegrees>-1.19752879254519939422607421875</LongitudeDegrees>
            </Position>
            <AltitudeMeters>23.6000003814697265625</AltitudeMeters>
            <DistanceMeters>NAN</DistanceMeters>
          </Trackpoint>
          <Trackpoint>
            <Time>2022-07-06T09:27:14.000Z</Time>
            <Position>
              <LatitudeDegrees>44.08095407299697399139404296875</LatitudeDegrees>
              <LongitudeDegrees>-1.1978830955922603607177734375</LongitudeDegrees>
            </Position>
            <AltitudeMeters>23.799999237060546875</AltitudeMeters>
            <DistanceMeters>NAN</DistanceMeters>
          </Trackpoint>
          <Trackpoint>
            <Time>2022-07-06T09:27:15.000Z</Time>
            <Position>
              <LatitudeDegrees>44.0809378959238529205322265625</LatitudeDegrees>
              <LongitudeDegrees>-1.19794604368507862091064453125</LongitudeDegrees>
            </Position>
            <AltitudeMeters>23.799999237060546875</AltitudeMeters>
            <DistanceMeters>NAN</DistanceMeters>
          </Trackpoint>
          <Trackpoint>
            <Time>2022-07-06T09:27:19.000Z</Time>
            <Position>
              <LatitudeDegrees>44.08086824230849742889404296875</LatitudeDegrees>
              <LongitudeDegrees>-1.19819532148540019989013671875</LongitudeDegrees>
            </Position>
            <AltitudeMeters>24</AltitudeMeters>
            <DistanceMeters>NAN</DistanceMeters>
          </Trackpoint>
          <Trackpoint>
            <Time>2022-07-06T09:27:24.000Z</Time>
            <Position>
              <LatitudeDegrees>44.0807531587779521942138671875</LatitudeDegrees>
              <LongitudeDegrees>-1.19850511662662029266357421875</LongitudeDegrees>
            </Position>
            <AltitudeMeters>23.799999237060546875</AltitudeMeters>
            <DistanceMeters>NAN</DistanceMeters>
          </Trackpoint>
          <Trackpoint>
            <Time>2022-07-06T09:27:33.000Z</Time>
            <Position>
              <LatitudeDegrees>44.08052642829716205596923828125</LatitudeDegrees>
              <LongitudeDegrees>-1.1990421451628208160400390625</LongitudeDegrees>
            </Position>
            <AltitudeMeters>23</AltitudeMeters>
            <DistanceMeters>NAN</DistanceMeters>
          </Trackpoint>
          <Trackpoint>
            <Time>2022-07-06T09:27:34.000Z</Time>
            <Position>
              <LatitudeDegrees>44.0804980136454105377197265625</LatitudeDegrees>
              <LongitudeDegrees>-1.19910366833209991455078125</LongitudeDegrees>
            </Position>
            <AltitudeMeters>23</AltitudeMeters>
            <DistanceMeters>NAN</DistanceMeters>
          </Trackpoint>
          <Trackpoint>
            <Time>2022-07-06T09:27:42.000Z</Time>
            <Position>
              <LatitudeDegrees>44.08029240556061267852783203125</LatitudeDegrees>
              <LongitudeDegrees>-1.19962091557681560516357421875</LongitudeDegrees>
            </Position>
            <AltitudeMeters>22.6000003814697265625</AltitudeMeters>
            <DistanceMeters>NAN</DistanceMeters>
          </Trackpoint>
          <Trackpoint>
            <Time>2022-07-06T09:27:49.000Z</Time>
            <Position>
              <LatitudeDegrees>44.08018578775227069854736328125</LatitudeDegrees>
              <LongitudeDegrees>-1.20007102377712726593017578125</LongitudeDegrees>
            </Position>
            <AltitudeMeters>22.6000003814697265625</AltitudeMeters>
            <DistanceMeters>NAN</DistanceMeters>
          </Trackpoint>
          <Trackpoint>
            <Time>2022-07-06T09:27:52.000Z</Time>
            <Position>
              <LatitudeDegrees>44.08017153851687908172607421875</LatitudeDegrees>
              <LongitudeDegrees>-1.20025693438947200775146484375</LongitudeDegrees>
            </Position>
            <AltitudeMeters>22.799999237060546875</AltitudeMeters>
            <DistanceMeters>NAN</DistanceMeters>
          </Trackpoint>
          <Trackpoint>
            <Time>2022-07-06T09:27:57.000Z</Time>
            <Position>
              <LatitudeDegrees>44.08016768284142017364501953125</LatitudeDegrees>
              <LongitudeDegrees>-1.200562454760074615478515625</LongitudeDegrees>
            </Position>
            <AltitudeMeters>23</AltitudeMeters>
            <DistanceMeters>NAN</DistanceMeters>
          </Trackpoint>
          <Trackpoint>
            <Time>2022-07-06T09:28:08.000Z</Time>
            <Position>
              <LatitudeDegrees>44.080197103321552276611328125</LatitudeDegrees>
              <LongitudeDegrees>-1.201253794133663177490234375</LongitudeDegrees>
            </Position>
            <AltitudeMeters>23.200000762939453125</AltitudeMeters>
            <DistanceMeters>NAN</DistanceMeters>
          </Trackpoint>
          <Trackpoint>
            <Time>2022-07-06T09:28:10.000Z</Time>
            <Position>
              <LatitudeDegrees>44.0802090056240558624267578125</LatitudeDegrees>
              <LongitudeDegrees>-1.20139016769826412200927734375</LongitudeDegrees>
            </Position>
            <AltitudeMeters>22.799999237060546875</AltitudeMeters>
            <DistanceMeters>NAN</DistanceMeters>
          </Trackpoint>
          <Trackpoint>
            <Time>2022-07-06T09:28:11.000Z</Time>
            <Position>
              <LatitudeDegrees>44.0802147053182125091552734375</LatitudeDegrees>
              <LongitudeDegrees>-1.2014521099627017974853515625</LongitudeDegrees>
            </Position>
            <AltitudeMeters>22.799999237060546875</AltitudeMeters>
            <DistanceMeters>NAN</DistanceMeters>
          </Trackpoint>
          <Trackpoint>
            <Time>2022-07-06T09:28:15.000Z</Time>
            <Position>
              <LatitudeDegrees>44.080221913754940032958984375</LatitudeDegrees>
              <LongitudeDegrees>-1.20169174857437610626220703125</LongitudeDegrees>
            </Position>
            <AltitudeMeters>22.6000003814697265625</AltitudeMeters>
            <DistanceMeters>NAN</DistanceMeters>
          </Trackpoint>
          <Trackpoint>
            <Time>2022-07-06T09:28:20.000Z</Time>
            <Position>
              <LatitudeDegrees>44.0802101790904998779296875</LatitudeDegrees>
              <LongitudeDegrees>-1.20201713405549526214599609375</LongitudeDegrees>
            </Position>
            <AltitudeMeters>22.6000003814697265625</AltitudeMeters>
            <DistanceMeters>NAN</DistanceMeters>
          </Trackpoint>
          <Trackpoint>
            <Time>2022-07-06T09:28:21.000Z</Time>
            <Position>
              <LatitudeDegrees>44.0802120231091976165771484375</LatitudeDegrees>
              <LongitudeDegrees>-1.20207798667252063751220703125</LongitudeDegrees>
            </Position>
            <AltitudeMeters>22.6000003814697265625</AltitudeMeters>
            <DistanceMeters>NAN</DistanceMeters>
          </Trackpoint>
          <Trackpoint>
            <Time>2022-07-06T09:28:24.000Z</Time>
            <Position>
              <LatitudeDegrees>44.08022560179233551025390625</LatitudeDegrees>
              <LongitudeDegrees>-1.2022842653095722198486328125</LongitudeDegrees>
            </Position>
            <AltitudeMeters>22.6000003814697265625</AltitudeMeters>
            <DistanceMeters>NAN</DistanceMeters>
          </Trackpoint>
          <Trackpoint>
            <Time>2022-07-06T09:28:25.000Z</Time>
            <Position>
              <LatitudeDegrees>44.0802358277142047882080078125</LatitudeDegrees>
              <LongitudeDegrees>-1.202350147068500518798828125</LongitudeDegrees>
            </Position>
            <AltitudeMeters>22.6000003814697265625</AltitudeMeters>
            <DistanceMeters>NAN</DistanceMeters>
          </Trackpoint>
          <Trackpoint>
            <Time>2022-07-06T09:28:27.000Z</Time>
            <Position>
              <LatitudeDegrees>44.08024412579834461212158203125</LatitudeDegrees>
              <LongitudeDegrees>-1.20247830636799335479736328125</LongitudeDegrees>
            </Position>
            <AltitudeMeters>22.6000003814697265625</AltitudeMeters>
            <DistanceMeters>NAN</DistanceMeters>
          </Trackpoint>
          <Trackpoint>
            <Time>2022-07-06T09:28:34.000Z</Time>
            <Position>
              <LatitudeDegrees>44.08028754405677318572998046875</LatitudeDegrees>
              <LongitudeDegrees>-1.2029631994664669036865234375</LongitudeDegrees>
            </Position>
            <AltitudeMeters>22.3999996185302734375</AltitudeMeters>
            <DistanceMeters>NAN</DistanceMeters>
          </Trackpoint>
          <Trackpoint>
            <Time>2022-07-06T09:28:42.000Z</Time>
            <Position>
              <LatitudeDegrees>44.08031545579433441162109375</LatitudeDegrees>
              <LongitudeDegrees>-1.20354766957461833953857421875</LongitudeDegrees>
            </Position>
            <AltitudeMeters>22.200000762939453125</AltitudeMeters>
            <DistanceMeters>NAN</DistanceMeters>
          </Trackpoint>
          <Trackpoint>
            <Time>2022-07-06T09:28:44.000Z</Time>
            <Position>
              <LatitudeDegrees>44.0803119353950023651123046875</LatitudeDegrees>
              <LongitudeDegrees>-1.20370424352586269378662109375</LongitudeDegrees>
            </Position>
            <AltitudeMeters>22</AltitudeMeters>
            <DistanceMeters>NAN</DistanceMeters>
          </Trackpoint>
          <Trackpoint>
            <Time>2022-07-06T09:28:45.000Z</Time>
            <Position>
              <LatitudeDegrees>44.080310761928558349609375</LatitudeDegrees>
              <LongitudeDegrees>-1.20377196930348873138427734375</LongitudeDegrees>
            </Position>
            <AltitudeMeters>22</AltitudeMeters>
            <DistanceMeters>NAN</DistanceMeters>
          </Trackpoint>
          <Trackpoint>
            <Time>2022-07-06T09:28:47.000Z</Time>
            <Position>
              <LatitudeDegrees>44.08031486906111240386962890625</LatitudeDegrees>
              <LongitudeDegrees>-1.20391043834388256072998046875</LongitudeDegrees>
            </Position>
            <AltitudeMeters>21.200000762939453125</AltitudeMeters>
            <DistanceMeters>NAN</DistanceMeters>
          </Trackpoint>
          <Trackpoint>
            <Time>2022-07-06T09:28:49.000Z</Time>
            <Position>
              <LatitudeDegrees>44.08031654544174671173095703125</LatitudeDegrees>
              <LongitudeDegrees>-1.20405259542167186737060546875</LongitudeDegrees>
            </Position>
            <AltitudeMeters>21</AltitudeMeters>
            <DistanceMeters>NAN</DistanceMeters>
          </Trackpoint>
          <Trackpoint>
            <Time>2022-07-06T09:28:50.000Z</Time>
            <Position>
              <LatitudeDegrees>44.0803162939846515655517578125</LatitudeDegrees>
              <LongitudeDegrees>-1.20412669144570827484130859375</LongitudeDegrees>
            </Position>
            <AltitudeMeters>21</AltitudeMeters>
            <DistanceMeters>NAN</DistanceMeters>
          </Trackpoint>
          <Trackpoint>
            <Time>2022-07-06T09:28:55.000Z</Time>
            <Position>
              <LatitudeDegrees>44.08032484352588653564453125</LatitudeDegrees>
              <LongitudeDegrees>-1.20449113659560680389404296875</LongitudeDegrees>
            </Position>
            <AltitudeMeters>21.200000762939453125</AltitudeMeters>
            <DistanceMeters>NAN</DistanceMeters>
          </Trackpoint>
          <Trackpoint>
            <Time>2022-07-06T09:28:57.000Z</Time>
            <Position>
              <LatitudeDegrees>44.0803260169923305511474609375</LatitudeDegrees>
              <LongitudeDegrees>-1.2046135962009429931640625</LongitudeDegrees>
            </Position>
            <AltitudeMeters>21.3999996185302734375</AltitudeMeters>
            <DistanceMeters>NAN</DistanceMeters>
          </Trackpoint>
          <Trackpoint>
            <Time>2022-07-06T09:29:05.000Z</Time>
            <Position>
              <LatitudeDegrees>44.08035057596862316131591796875</LatitudeDegrees>
              <LongitudeDegrees>-1.2051381357014179229736328125</LongitudeDegrees>
            </Position>
            <AltitudeMeters>21.799999237060546875</AltitudeMeters>
            <DistanceMeters>NAN</DistanceMeters>
          </Trackpoint>
          <Trackpoint>
            <Time>2022-07-06T09:29:10.000Z</Time>
            <Position>
              <LatitudeDegrees>44.0803672559559345245361328125</LatitudeDegrees>
              <LongitudeDegrees>-1.2054638564586639404296875</LongitudeDegrees>
            </Position>
            <AltitudeMeters>22</AltitudeMeters>
            <DistanceMeters>NAN</DistanceMeters>
          </Trackpoint>
          <Trackpoint>
            <Time>2022-07-06T09:29:15.000Z</Time>
            <Position>
              <LatitudeDegrees>44.08038544468581676483154296875</LatitudeDegrees>
              <LongitudeDegrees>-1.20578907430171966552734375</LongitudeDegrees>
            </Position>
            <AltitudeMeters>22</AltitudeMeters>
            <DistanceMeters>NAN</DistanceMeters>
          </Trackpoint>
          <Trackpoint>
            <Time>2022-07-06T09:29:17.000Z</Time>
            <Position>
              <LatitudeDegrees>44.08038762398064136505126953125</LatitudeDegrees>
              <LongitudeDegrees>-1.20591907761991024017333984375</LongitudeDegrees>
            </Position>
            <AltitudeMeters>21.799999237060546875</AltitudeMeters>
            <DistanceMeters>NAN</DistanceMeters>
          </Trackpoint>
          <Trackpoint>
            <Time>2022-07-06T09:29:26.000Z</Time>
            <Position>
              <LatitudeDegrees>44.0804111771285533905029296875</LatitudeDegrees>
              <LongitudeDegrees>-1.2065017037093639373779296875</LongitudeDegrees>
            </Position>
            <AltitudeMeters>21.799999237060546875</AltitudeMeters>
            <DistanceMeters>NAN</DistanceMeters>
          </Trackpoint>
          <Trackpoint>
            <Time>2022-07-06T09:29:36.000Z</Time>
            <Position>
              <LatitudeDegrees>44.08039726316928863525390625</LatitudeDegrees>
              <LongitudeDegrees>-1.20710243470966815948486328125</LongitudeDegrees>
            </Position>
            <AltitudeMeters>22</AltitudeMeters>
            <DistanceMeters>NAN</DistanceMeters>
          </Trackpoint>
          <Trackpoint>
            <Time>2022-07-06T09:29:38.000Z</Time>
            <Position>
              <LatitudeDegrees>44.0803615562617778778076171875</LatitudeDegrees>
              <LongitudeDegrees>-1.20720653794705867767333984375</LongitudeDegrees>
            </Position>
            <AltitudeMeters>22</AltitudeMeters>
            <DistanceMeters>NAN</DistanceMeters>
          </Trackpoint>
          <Trackpoint>
            <Time>2022-07-06T09:29:41.000Z</Time>
            <Position>
              <LatitudeDegrees>44.08028720878064632415771484375</LatitudeDegrees>
              <LongitudeDegrees>-1.2073472701013088226318359375</LongitudeDegrees>
            </Position>
            <AltitudeMeters>22</AltitudeMeters>
            <DistanceMeters>NAN</DistanceMeters>
          </Trackpoint>
          <Trackpoint>
            <Time>2022-07-06T09:29:42.000Z</Time>
            <Position>
              <LatitudeDegrees>44.08025803975760936737060546875</LatitudeDegrees>
              <LongitudeDegrees>-1.20739412494003772735595703125</LongitudeDegrees>
            </Position>
            <AltitudeMeters>22</AltitudeMeters>
            <DistanceMeters>NAN</DistanceMeters>
          </Trackpoint>
          <Trackpoint>
            <Time>2022-07-06T09:29:46.000Z</Time>
            <Position>
              <LatitudeDegrees>44.08016148023307323455810546875</LatitudeDegrees>
              <LongitudeDegrees>-1.2075779400765895843505859375</LongitudeDegrees>
            </Position>
            <AltitudeMeters>22</AltitudeMeters>
            <DistanceMeters>NAN</DistanceMeters>
          </Trackpoint>
          <Trackpoint>
            <Time>2022-07-06T09:29:47.000Z</Time>
            <Position>
              <LatitudeDegrees>44.08014253713190555572509765625</LatitudeDegrees>
              <LongitudeDegrees>-1.207631416618824005126953125</LongitudeDegrees>
            </Position>
            <AltitudeMeters>22</AltitudeMeters>
            <DistanceMeters>NAN</DistanceMeters>
          </Trackpoint>
          <Trackpoint>
            <Time>2022-07-06T09:29:56.000Z</Time>
            <Position>
              <LatitudeDegrees>44.079967103898525238037109375</LatitudeDegrees>
              <LongitudeDegrees>-1.20814447291195392608642578125</LongitudeDegrees>
            </Position>
            <AltitudeMeters>22</AltitudeMeters>
            <DistanceMeters>NAN</DistanceMeters>
          </Trackpoint>
          <Trackpoint>
            <Time>2022-07-06T09:30:02.000Z</Time>
            <Position>
              <LatitudeDegrees>44.07987096346914768218994140625</LatitudeDegrees>
              <LongitudeDegrees>-1.20854328386485576629638671875</LongitudeDegrees>
            </Position>
            <AltitudeMeters>21.6000003814697265625</AltitudeMeters>
            <DistanceMeters>NAN</DistanceMeters>
          </Trackpoint>
          <Trackpoint>
            <Time>2022-07-06T09:30:04.000Z</Time>
            <Position>
              <LatitudeDegrees>44.079831652343273162841796875</LatitudeDegrees>
              <LongitudeDegrees>-1.20867521502077579498291015625</LongitudeDegrees>
            </Position>
            <AltitudeMeters>21.6000003814697265625</AltitudeMeters>
            <DistanceMeters>NAN</DistanceMeters>
          </Trackpoint>
          <Trackpoint>
            <Time>2022-07-06T09:30:06.000Z</Time>
            <Position>
              <LatitudeDegrees>44.07978312112390995025634765625</LatitudeDegrees>
              <LongitudeDegrees>-1.2088072299957275390625</LongitudeDegrees>
            </Position>
            <AltitudeMeters>21.3999996185302734375</AltitudeMeters>
            <DistanceMeters>NAN</DistanceMeters>
          </Trackpoint>
          <Trackpoint>
            <Time>2022-07-06T09:30:08.000Z</Time>
            <Position>
              <LatitudeDegrees>44.0797359310090541839599609375</LatitudeDegrees>
              <LongitudeDegrees>-1.20892859995365142822265625</LongitudeDegrees>
            </Position>
            <AltitudeMeters>21.3999996185302734375</AltitudeMeters>
            <DistanceMeters>NAN</DistanceMeters>
          </Trackpoint>
          <Trackpoint>
            <Time>2022-07-06T09:30:10.000Z</Time>
            <Position>
              <LatitudeDegrees>44.07968019135296344757080078125</LatitudeDegrees>
              <LongitudeDegrees>-1.20904100127518177032470703125</LongitudeDegrees>
            </Position>
            <AltitudeMeters>21.3999996185302734375</AltitudeMeters>
            <DistanceMeters>NAN</DistanceMeters>
          </Trackpoint>
          <Trackpoint>
            <Time>2022-07-06T09:30:11.000Z</Time>
            <Position>
              <LatitudeDegrees>44.07964716665446758270263671875</LatitudeDegrees>
              <LongitudeDegrees>-1.20910000987350940704345703125</LongitudeDegrees>
            </Position>
            <AltitudeMeters>21.3999996185302734375</AltitudeMeters>
            <DistanceMeters>NAN</DistanceMeters>
          </Trackpoint>
          <Trackpoint>
            <Time>2022-07-06T09:30:13.000Z</Time>
            <Position>
              <LatitudeDegrees>44.079565443098545074462890625</LatitudeDegrees>
              <LongitudeDegrees>-1.2091996707022190093994140625</LongitudeDegrees>
            </Position>
            <AltitudeMeters>21.3999996185302734375</AltitudeMeters>
            <DistanceMeters>NAN</DistanceMeters>
          </Trackpoint>
          <Trackpoint>
            <Time>2022-07-06T09:30:14.000Z</Time>
            <Position>
              <LatitudeDegrees>44.079525209963321685791015625</LatitudeDegrees>
              <LongitudeDegrees>-1.20924149639904499053955078125</LongitudeDegrees>
            </Position>
            <AltitudeMeters>21.200000762939453125</AltitudeMeters>
            <DistanceMeters>NAN</DistanceMeters>
          </Trackpoint>
          <Trackpoint>
            <Time>2022-07-06T09:30:16.000Z</Time>
            <Position>
              <LatitudeDegrees>44.07943527214229106903076171875</LatitudeDegrees>
              <LongitudeDegrees>-1.20931609533727169036865234375</LongitudeDegrees>
            </Position>
            <AltitudeMeters>20.799999237060546875</AltitudeMeters>
            <DistanceMeters>NAN</DistanceMeters>
          </Trackpoint>
          <Trackpoint>
            <Time>2022-07-06T09:30:20.000Z</Time>
            <Position>
              <LatitudeDegrees>44.0792383812367916107177734375</LatitudeDegrees>
              <LongitudeDegrees>-1.2094102241098880767822265625</LongitudeDegrees>
            </Position>
            <AltitudeMeters>20.6000003814697265625</AltitudeMeters>
            <DistanceMeters>NAN</DistanceMeters>
          </Trackpoint>
          <Trackpoint>
            <Time>2022-07-06T09:30:21.000Z</Time>
            <Position>
              <LatitudeDegrees>44.07919789664447307586669921875</LatitudeDegrees>
              <LongitudeDegrees>-1.20942807756364345550537109375</LongitudeDegrees>
            </Position>
            <AltitudeMeters>20.6000003814697265625</AltitudeMeters>
            <DistanceMeters>NAN</DistanceMeters>
          </Trackpoint>
          <Trackpoint>
            <Time>2022-07-06T09:30:28.000Z</Time>
            <Position>
              <LatitudeDegrees>44.07885155640542507171630859375</LatitudeDegrees>
              <LongitudeDegrees>-1.209611557424068450927734375</LongitudeDegrees>
            </Position>
            <AltitudeMeters>20.799999237060546875</AltitudeMeters>
            <DistanceMeters>NAN</DistanceMeters>
          </Trackpoint>
          <Trackpoint>
            <Time>2022-07-06T09:30:31.000Z</Time>
            <Position>
              <LatitudeDegrees>44.078725911676883697509765625</LatitudeDegrees>
              <LongitudeDegrees>-1.20969696901738643646240234375</LongitudeDegrees>
            </Position>
            <AltitudeMeters>20.799999237060546875</AltitudeMeters>
            <DistanceMeters>NAN</DistanceMeters>
          </Trackpoint>
          <Trackpoint>
            <Time>2022-07-06T09:30:33.000Z</Time>
            <Position>
              <LatitudeDegrees>44.0786647237837314605712890625</LatitudeDegrees>
              <LongitudeDegrees>-1.20980928651988506317138671875</LongitudeDegrees>
            </Position>
            <AltitudeMeters>21</AltitudeMeters>
            <DistanceMeters>NAN</DistanceMeters>
          </Trackpoint>
          <Trackpoint>
            <Time>2022-07-06T09:30:36.000Z</Time>
            <Position>
              <LatitudeDegrees>44.07859389670193195343017578125</LatitudeDegrees>
              <LongitudeDegrees>-1.20998161844909191131591796875</LongitudeDegrees>
            </Position>
            <AltitudeMeters>20.799999237060546875</AltitudeMeters>
            <DistanceMeters>NAN</DistanceMeters>
          </Trackpoint>
          <Trackpoint>
            <Time>2022-07-06T09:30:38.000Z</Time>
            <Position>
              <LatitudeDegrees>44.0785571001470088958740234375</LatitudeDegrees>
              <LongitudeDegrees>-1.210093684494495391845703125</LongitudeDegrees>
            </Position>
            <AltitudeMeters>20.799999237060546875</AltitudeMeters>
            <DistanceMeters>NAN</DistanceMeters>
          </Trackpoint>
          <Trackpoint>
            <Time>2022-07-06T09:30:40.000Z</Time>
            <Position>
              <LatitudeDegrees>44.07850605435669422149658203125</LatitudeDegrees>
              <LongitudeDegrees>-1.21020122431218624114990234375</LongitudeDegrees>
            </Position>
            <AltitudeMeters>20.6000003814697265625</AltitudeMeters>
            <DistanceMeters>NAN</DistanceMeters>
          </Trackpoint>
          <Trackpoint>
            <Time>2022-07-06T09:30:44.000Z</Time>
            <Position>
              <LatitudeDegrees>44.0784112550318241119384765625</LatitudeDegrees>
              <LongitudeDegrees>-1.2104717083275318145751953125</LongitudeDegrees>
            </Position>
            <AltitudeMeters>20.3999996185302734375</AltitudeMeters>
            <DistanceMeters>NAN</DistanceMeters>
          </Trackpoint>
          <Trackpoint>
            <Time>2022-07-06T09:30:47.000Z</Time>
            <Position>
              <LatitudeDegrees>44.07831930555403232574462890625</LatitudeDegrees>
              <LongitudeDegrees>-1.21067228727042675018310546875</LongitudeDegrees>
            </Position>
            <AltitudeMeters>19.6000003814697265625</AltitudeMeters>
            <DistanceMeters>NAN</DistanceMeters>
          </Trackpoint>
          <Trackpoint>
            <Time>2022-07-06T09:30:49.000Z</Time>
            <Position>
              <LatitudeDegrees>44.07826758921146392822265625</LatitudeDegrees>
              <LongitudeDegrees>-1.21081310324370861053466796875</LongitudeDegrees>
            </Position>
            <AltitudeMeters>19.200000762939453125</AltitudeMeters>
            <DistanceMeters>NAN</DistanceMeters>
          </Trackpoint>
          <Trackpoint>
            <Time>2022-07-06T09:30:53.000Z</Time>
            <Position>
              <LatitudeDegrees>44.07816440798342227935791015625</LatitudeDegrees>
              <LongitudeDegrees>-1.21109892614185810089111328125</LongitudeDegrees>
            </Position>
            <AltitudeMeters>18.799999237060546875</AltitudeMeters>
            <DistanceMeters>NAN</DistanceMeters>
          </Trackpoint>
          <Trackpoint>
            <Time>2022-07-06T09:30:56.000Z</Time>
            <Position>
              <LatitudeDegrees>44.0780850313603878021240234375</LatitudeDegrees>
              <LongitudeDegrees>-1.21132641099393367767333984375</LongitudeDegrees>
            </Position>
            <AltitudeMeters>18.799999237060546875</AltitudeMeters>
            <DistanceMeters>NAN</DistanceMeters>
          </Trackpoint>
          <Trackpoint>
            <Time>2022-07-06T09:31:00.000Z</Time>
            <Position>
              <LatitudeDegrees>44.077989645302295684814453125</LatitudeDegrees>
              <LongitudeDegrees>-1.2116009183228015899658203125</LongitudeDegrees>
            </Position>
            <AltitudeMeters>18.6000003814697265625</AltitudeMeters>
            <DistanceMeters>NAN</DistanceMeters>
          </Trackpoint>
          <Trackpoint>
            <Time>2022-07-06T09:31:02.000Z</Time>
            <Position>
              <LatitudeDegrees>44.07795033417642116546630859375</LatitudeDegrees>
              <LongitudeDegrees>-1.21171315200626850128173828125</LongitudeDegrees>
            </Position>
            <AltitudeMeters>18.6000003814697265625</AltitudeMeters>
            <DistanceMeters>NAN</DistanceMeters>
          </Trackpoint>
          <Trackpoint>
            <Time>2022-07-06T09:31:04.000Z</Time>
            <Position>
              <LatitudeDegrees>44.07789987511932849884033203125</LatitudeDegrees>
              <LongitudeDegrees>-1.21182496659457683563232421875</LongitudeDegrees>
            </Position>
            <AltitudeMeters>18.6000003814697265625</AltitudeMeters>
            <DistanceMeters>NAN</DistanceMeters>
          </Trackpoint>
          <Trackpoint>
            <Time>2022-07-06T09:31:08.000Z</Time>
            <Position>
              <LatitudeDegrees>44.07778789289295673370361328125</LatitudeDegrees>
              <LongitudeDegrees>-1.211998723447322845458984375</LongitudeDegrees>
            </Position>
            <AltitudeMeters>18.799999237060546875</AltitudeMeters>
            <DistanceMeters>NAN</DistanceMeters>
          </Trackpoint>
          <Trackpoint>
            <Time>2022-07-06T09:31:16.000Z</Time>
            <Position>
              <LatitudeDegrees>44.07757080160081386566162109375</LatitudeDegrees>
              <LongitudeDegrees>-1.21224917471408843994140625</LongitudeDegrees>
            </Position>
            <AltitudeMeters>19.6000003814697265625</AltitudeMeters>
            <DistanceMeters>NAN</DistanceMeters>
          </Trackpoint>
          <Trackpoint>
            <Time>2022-07-06T09:31:23.000Z</Time>
            <Position>
              <LatitudeDegrees>44.07737986184656620025634765625</LatitudeDegrees>
              <LongitudeDegrees>-1.21242594905197620391845703125</LongitudeDegrees>
            </Position>
            <AltitudeMeters>19.6000003814697265625</AltitudeMeters>
            <DistanceMeters>NAN</DistanceMeters>
          </Trackpoint>
          <Trackpoint>
            <Time>2022-07-06T09:31:27.000Z</Time>
            <Position>
              <LatitudeDegrees>44.077284894883632659912109375</LatitudeDegrees>
              <LongitudeDegrees>-1.2125095166265964508056640625</LongitudeDegrees>
            </Position>
            <AltitudeMeters>19.6000003814697265625</AltitudeMeters>
            <DistanceMeters>NAN</DistanceMeters>
          </Trackpoint>
          <Trackpoint>
            <Time>2022-07-06T09:31:28.000Z</Time>
            <Position>
              <LatitudeDegrees>44.07725907862186431884765625</LatitudeDegrees>
              <LongitudeDegrees>-1.21252720244228839874267578125</LongitudeDegrees>
            </Position>
            <AltitudeMeters>19.6000003814697265625</AltitudeMeters>
            <DistanceMeters>NAN</DistanceMeters>
          </Trackpoint>
          <Trackpoint>
            <Time>2022-07-06T09:31:31.000Z</Time>
            <Position>
              <LatitudeDegrees>44.0772002376616001129150390625</LatitudeDegrees>
              <LongitudeDegrees>-1.21258051134645938873291015625</LongitudeDegrees>
            </Position>
            <AltitudeMeters>19.3999996185302734375</AltitudeMeters>
            <DistanceMeters>NAN</DistanceMeters>
          </Trackpoint>
          <Trackpoint>
            <Time>2022-07-06T09:31:33.000Z</Time>
            <Position>
              <LatitudeDegrees>44.0771606750786304473876953125</LatitudeDegrees>
              <LongitudeDegrees>-1.21261605061590671539306640625</LongitudeDegrees>
            </Position>
            <AltitudeMeters>19.3999996185302734375</AltitudeMeters>
            <DistanceMeters>NAN</DistanceMeters>
          </Trackpoint>
          <Trackpoint>
            <Time>2022-07-06T09:31:38.000Z</Time>
            <Position>
              <LatitudeDegrees>44.07706998288631439208984375</LatitudeDegrees>
              <LongitudeDegrees>-1.21268813498318195343017578125</LongitudeDegrees>
            </Position>
            <AltitudeMeters>19.3999996185302734375</AltitudeMeters>
            <DistanceMeters>NAN</DistanceMeters>
          </Trackpoint>
          <Trackpoint>
            <Time>2022-07-06T09:31:39.000Z</Time>
            <Position>
              <LatitudeDegrees>44.07705011777579784393310546875</LatitudeDegrees>
              <LongitudeDegrees>-1.21270590461790561676025390625</LongitudeDegrees>
            </Position>
            <AltitudeMeters>19.3999996185302734375</AltitudeMeters>
            <DistanceMeters>NAN</DistanceMeters>
          </Trackpoint>
          <Trackpoint>
            <Time>2022-07-06T09:31:42.000Z</Time>
            <Position>
              <LatitudeDegrees>44.0769807994365692138671875</LatitudeDegrees>
              <LongitudeDegrees>-1.21275451965630054473876953125</LongitudeDegrees>
            </Position>
            <AltitudeMeters>19.3999996185302734375</AltitudeMeters>
            <DistanceMeters>NAN</DistanceMeters>
          </Trackpoint>
          <Trackpoint>
            <Time>2022-07-06T09:31:47.000Z</Time>
            <Position>
              <LatitudeDegrees>44.07687040977180004119873046875</LatitudeDegrees>
              <LongitudeDegrees>-1.2128424458205699920654296875</LongitudeDegrees>
            </Position>
            <AltitudeMeters>19.3999996185302734375</AltitudeMeters>
            <DistanceMeters>NAN</DistanceMeters>
          </Trackpoint>
          <Trackpoint>
            <Time>2022-07-06T09:31:53.000Z</Time>
            <Position>
              <LatitudeDegrees>44.07669581472873687744140625</LatitudeDegrees>
              <LongitudeDegrees>-1.21298938058316707611083984375</LongitudeDegrees>
            </Position>
            <AltitudeMeters>19.6000003814697265625</AltitudeMeters>
            <DistanceMeters>NAN</DistanceMeters>
          </Trackpoint>
          <Trackpoint>
            <Time>2022-07-06T09:31:58.000Z</Time>
            <Position>
              <LatitudeDegrees>44.07653429545462131500244140625</LatitudeDegrees>
              <LongitudeDegrees>-1.2131847627460956573486328125</LongitudeDegrees>
            </Position>
            <AltitudeMeters>19.6000003814697265625</AltitudeMeters>
            <DistanceMeters>NAN</DistanceMeters>
          </Trackpoint>
          <Trackpoint>
            <Time>2022-07-06T09:32:01.000Z</Time>
            <Position>
              <LatitudeDegrees>44.07642834819853305816650390625</LatitudeDegrees>
              <LongitudeDegrees>-1.21331132948398590087890625</LongitudeDegrees>
            </Position>
            <AltitudeMeters>19.6000003814697265625</AltitudeMeters>
            <DistanceMeters>NAN</DistanceMeters>
          </Trackpoint>
          <Trackpoint>
            <Time>2022-07-06T09:32:04.000Z</Time>
            <Position>
              <LatitudeDegrees>44.07632843591272830963134765625</LatitudeDegrees>
              <LongitudeDegrees>-1.21347226202487945556640625</LongitudeDegrees>
            </Position>
            <AltitudeMeters>19.3999996185302734375</AltitudeMeters>
            <DistanceMeters>NAN</DistanceMeters>
          </Trackpoint>
          <Trackpoint>
            <Time>2022-07-06T09:32:08.000Z</Time>
            <Position>
              <LatitudeDegrees>44.07620287500321865081787109375</LatitudeDegrees>
              <LongitudeDegrees>-1.213704608380794525146484375</LongitudeDegrees>
            </Position>
            <AltitudeMeters>19.200000762939453125</AltitudeMeters>
            <DistanceMeters>NAN</DistanceMeters>
          </Trackpoint>
          <Trackpoint>
            <Time>2022-07-06T09:32:09.000Z</Time>
            <Position>
              <LatitudeDegrees>44.07616901211440563201904296875</LatitudeDegrees>
              <LongitudeDegrees>-1.21377535164356231689453125</LongitudeDegrees>
            </Position>
            <AltitudeMeters>19.200000762939453125</AltitudeMeters>
            <DistanceMeters>NAN</DistanceMeters>
          </Trackpoint>
          <Trackpoint>
            <Time>2022-07-06T09:32:10.000Z</Time>
            <Position>
              <LatitudeDegrees>44.07613615505397319793701171875</LatitudeDegrees>
              <LongitudeDegrees>-1.21384852565824985504150390625</LongitudeDegrees>
            </Position>
            <AltitudeMeters>19.200000762939453125</AltitudeMeters>
            <DistanceMeters>NAN</DistanceMeters>
          </Trackpoint>
          <Trackpoint>
            <Time>2022-07-06T09:32:15.000Z</Time>
            <Position>
              <LatitudeDegrees>44.0759669244289398193359375</LatitudeDegrees>
              <LongitudeDegrees>-1.21418572962284088134765625</LongitudeDegrees>
            </Position>
            <AltitudeMeters>19</AltitudeMeters>
            <DistanceMeters>NAN</DistanceMeters>
          </Trackpoint>
          <Trackpoint>
            <Time>2022-07-06T09:32:16.000Z</Time>
            <Position>
              <LatitudeDegrees>44.07594035379588603973388671875</LatitudeDegrees>
              <LongitudeDegrees>-1.2142546288669109344482421875</LongitudeDegrees>
            </Position>
            <AltitudeMeters>19</AltitudeMeters>
            <DistanceMeters>NAN</DistanceMeters>
          </Trackpoint>
          <Trackpoint>
            <Time>2022-07-06T09:32:23.000Z</Time>
            <Position>
              <LatitudeDegrees>44.0757300518453121185302734375</LatitudeDegrees>
              <LongitudeDegrees>-1.2146492488682270050048828125</LongitudeDegrees>
            </Position>
            <AltitudeMeters>19.200000762939453125</AltitudeMeters>
            <DistanceMeters>NAN</DistanceMeters>
          </Trackpoint>
          <Trackpoint>
            <Time>2022-07-06T09:32:29.000Z</Time>
            <Position>
              <LatitudeDegrees>44.075574316084384918212890625</LatitudeDegrees>
              <LongitudeDegrees>-1.2149607203900814056396484375</LongitudeDegrees>
            </Position>
            <AltitudeMeters>19.200000762939453125</AltitudeMeters>
            <DistanceMeters>NAN</DistanceMeters>
          </Trackpoint>
          <Trackpoint>
            <Time>2022-07-06T09:32:34.000Z</Time>
            <Position>
              <LatitudeDegrees>44.075459651648998260498046875</LatitudeDegrees>
              <LongitudeDegrees>-1.21519885025918483734130859375</LongitudeDegrees>
            </Position>
            <AltitudeMeters>19.200000762939453125</AltitudeMeters>
            <DistanceMeters>NAN</DistanceMeters>
          </Trackpoint>
          <Trackpoint>
            <Time>2022-07-06T09:32:42.000Z</Time>
            <Position>
              <LatitudeDegrees>44.07519771717488765716552734375</LatitudeDegrees>
              <LongitudeDegrees>-1.2156369723379611968994140625</LongitudeDegrees>
            </Position>
            <AltitudeMeters>19.6000003814697265625</AltitudeMeters>
            <DistanceMeters>NAN</DistanceMeters>
          </Trackpoint>
          <Trackpoint>
            <Time>2022-07-06T09:32:48.000Z</Time>
            <Position>
              <LatitudeDegrees>44.07499873079359531402587890625</LatitudeDegrees>
              <LongitudeDegrees>-1.21596193872392177581787109375</LongitudeDegrees>
            </Position>
            <AltitudeMeters>19.799999237060546875</AltitudeMeters>
            <DistanceMeters>NAN</DistanceMeters>
          </Trackpoint>
          <Trackpoint>
            <Time>2022-07-06T09:32:49.000Z</Time>
            <Position>
              <LatitudeDegrees>44.0749672986567020416259765625</LatitudeDegrees>
              <LongitudeDegrees>-1.21600284241139888763427734375</LongitudeDegrees>
            </Position>
            <AltitudeMeters>19.799999237060546875</AltitudeMeters>
            <DistanceMeters>NAN</DistanceMeters>
          </Trackpoint>
          <Trackpoint>
            <Time>2022-07-06T09:32:53.000Z</Time>
            <Position>
              <LatitudeDegrees>44.07482757233083248138427734375</LatitudeDegrees>
              <LongitudeDegrees>-1.21619042940437793731689453125</LongitudeDegrees>
            </Position>
            <AltitudeMeters>18.799999237060546875</AltitudeMeters>
            <DistanceMeters>NAN</DistanceMeters>
          </Trackpoint>
          <Trackpoint>
            <Time>2022-07-06T09:32:54.000Z</Time>
            <Position>
              <LatitudeDegrees>44.07478499226272106170654296875</LatitudeDegrees>
              <LongitudeDegrees>-1.216227896511554718017578125</LongitudeDegrees>
            </Position>
            <AltitudeMeters>18.799999237060546875</AltitudeMeters>
            <DistanceMeters>NAN</DistanceMeters>
          </Trackpoint>
          <Trackpoint>
            <Time>2022-07-06T09:32:58.000Z</Time>
            <Position>
              <LatitudeDegrees>44.074687175452709197998046875</LatitudeDegrees>
              <LongitudeDegrees>-1.21637583710253238677978515625</LongitudeDegrees>
            </Position>
            <AltitudeMeters>19.6000003814697265625</AltitudeMeters>
            <DistanceMeters>NAN</DistanceMeters>
          </Trackpoint>
          <Trackpoint>
            <Time>2022-07-06T09:33:04.000Z</Time>
            <Position>
              <LatitudeDegrees>44.074431695044040679931640625</LatitudeDegrees>
              <LongitudeDegrees>-1.21672720648348331451416015625</LongitudeDegrees>
            </Position>
            <AltitudeMeters>19.6000003814697265625</AltitudeMeters>
            <DistanceMeters>NAN</DistanceMeters>
          </Trackpoint>
          <Trackpoint>
            <Time>2022-07-06T09:33:05.000Z</Time>
            <Position>
              <LatitudeDegrees>44.07440378330647945404052734375</LatitudeDegrees>
              <LongitudeDegrees>-1.216797195374965667724609375</LongitudeDegrees>
            </Position>
            <AltitudeMeters>19.6000003814697265625</AltitudeMeters>
            <DistanceMeters>NAN</DistanceMeters>
          </Trackpoint>
          <Trackpoint>
            <Time>2022-07-06T09:33:12.000Z</Time>
            <Position>
              <LatitudeDegrees>44.074187614023685455322265625</LatitudeDegrees>
              <LongitudeDegrees>-1.21723548509180545806884765625</LongitudeDegrees>
            </Position>
            <AltitudeMeters>19.200000762939453125</AltitudeMeters>
            <DistanceMeters>NAN</DistanceMeters>
          </Trackpoint>
          <Trackpoint>
            <Time>2022-07-06T09:33:13.000Z</Time>
            <Position>
              <LatitudeDegrees>44.074152074754238128662109375</LatitudeDegrees>
              <LongitudeDegrees>-1.21726758778095245361328125</LongitudeDegrees>
            </Position>
            <AltitudeMeters>19</AltitudeMeters>
            <DistanceMeters>NAN</DistanceMeters>
          </Trackpoint>
          <Trackpoint>
            <Time>2022-07-06T09:33:18.000Z</Time>
            <Position>
              <LatitudeDegrees>44.07395468093454837799072265625</LatitudeDegrees>
              <LongitudeDegrees>-1.21749691665172576904296875</LongitudeDegrees>
            </Position>
            <AltitudeMeters>19.200000762939453125</AltitudeMeters>
            <DistanceMeters>NAN</DistanceMeters>
          </Trackpoint>
          <Trackpoint>
            <Time>2022-07-06T09:33:22.000Z</Time>
            <Position>
              <LatitudeDegrees>44.07377094961702823638916015625</LatitudeDegrees>
              <LongitudeDegrees>-1.21750588528811931610107421875</LongitudeDegrees>
            </Position>
            <AltitudeMeters>19.200000762939453125</AltitudeMeters>
            <DistanceMeters>NAN</DistanceMeters>
          </Trackpoint>
          <Trackpoint>
            <Time>2022-07-06T09:33:27.000Z</Time>
            <Position>
              <LatitudeDegrees>44.07354824244976043701171875</LatitudeDegrees>
              <LongitudeDegrees>-1.21738166548311710357666015625</LongitudeDegrees>
            </Position>
            <AltitudeMeters>19.200000762939453125</AltitudeMeters>
            <DistanceMeters>NAN</DistanceMeters>
          </Trackpoint>
          <Trackpoint>
            <Time>2022-07-06T09:33:33.000Z</Time>
            <Position>
              <LatitudeDegrees>44.073204584419727325439453125</LatitudeDegrees>
              <LongitudeDegrees>-1.2172087468206882476806640625</LongitudeDegrees>
            </Position>
            <AltitudeMeters>18.799999237060546875</AltitudeMeters>
            <DistanceMeters>NAN</DistanceMeters>
          </Trackpoint>
          <Trackpoint>
            <Time>2022-07-06T09:33:37.000Z</Time>
            <Position>
              <LatitudeDegrees>44.07301255501806735992431640625</LatitudeDegrees>
              <LongitudeDegrees>-1.21709299273788928985595703125</LongitudeDegrees>
            </Position>
            <AltitudeMeters>18.6000003814697265625</AltitudeMeters>
            <DistanceMeters>NAN</DistanceMeters>
          </Trackpoint>
          <Trackpoint>
            <Time>2022-07-06T09:33:41.000Z</Time>
            <Position>
              <LatitudeDegrees>44.072810970246791839599609375</LatitudeDegrees>
              <LongitudeDegrees>-1.2169750593602657318115234375</LongitudeDegrees>
            </Position>
            <AltitudeMeters>18.200000762939453125</AltitudeMeters>
            <DistanceMeters>NAN</DistanceMeters>
          </Trackpoint>
          <Trackpoint>
            <Time>2022-07-06T09:33:50.000Z</Time>
            <Position>
              <LatitudeDegrees>44.07235876657068729400634765625</LatitudeDegrees>
              <LongitudeDegrees>-1.2167390249669551849365234375</LongitudeDegrees>
            </Position>
            <AltitudeMeters>18.200000762939453125</AltitudeMeters>
            <DistanceMeters>NAN</DistanceMeters>
          </Trackpoint>
          <Trackpoint>
            <Time>2022-07-06T09:33:53.000Z</Time>
            <Position>
              <LatitudeDegrees>44.072224907577037811279296875</LatitudeDegrees>
              <LongitudeDegrees>-1.21666400693356990814208984375</LongitudeDegrees>
            </Position>
            <AltitudeMeters>18.3999996185302734375</AltitudeMeters>
            <DistanceMeters>NAN</DistanceMeters>
          </Trackpoint>
          <Trackpoint>
            <Time>2022-07-06T09:34:00.000Z</Time>
            <Position>
              <LatitudeDegrees>44.07193296588957309722900390625</LatitudeDegrees>
              <LongitudeDegrees>-1.216493435204029083251953125</LongitudeDegrees>
            </Position>
            <AltitudeMeters>18</AltitudeMeters>
            <DistanceMeters>NAN</DistanceMeters>
          </Trackpoint>
          <Trackpoint>
            <Time>2022-07-06T09:34:05.000Z</Time>
            <Position>
              <LatitudeDegrees>44.07172861509025096893310546875</LatitudeDegrees>
              <LongitudeDegrees>-1.21637734584510326385498046875</LongitudeDegrees>
            </Position>
            <AltitudeMeters>18</AltitudeMeters>
            <DistanceMeters>NAN</DistanceMeters>
          </Trackpoint>
          <Trackpoint>
            <Time>2022-07-06T09:34:07.000Z</Time>
            <Position>
              <LatitudeDegrees>44.07165083102881908416748046875</LatitudeDegrees>
              <LongitudeDegrees>-1.2163313291966915130615234375</LongitudeDegrees>
            </Position>
            <AltitudeMeters>18.200000762939453125</AltitudeMeters>
            <DistanceMeters>NAN</DistanceMeters>
          </Trackpoint>
          <Trackpoint>
            <Time>2022-07-06T09:34:09.000Z</Time>
            <Position>
              <LatitudeDegrees>44.07156583853065967559814453125</LatitudeDegrees>
              <LongitudeDegrees>-1.2162880785763263702392578125</LongitudeDegrees>
            </Position>
            <AltitudeMeters>18.200000762939453125</AltitudeMeters>
            <DistanceMeters>NAN</DistanceMeters>
          </Trackpoint>
          <Trackpoint>
            <Time>2022-07-06T09:34:20.000Z</Time>
            <Position>
              <LatitudeDegrees>44.07111958600580692291259765625</LatitudeDegrees>
              <LongitudeDegrees>-1.216073334217071533203125</LongitudeDegrees>
            </Position>
            <AltitudeMeters>18.3999996185302734375</AltitudeMeters>
            <DistanceMeters>NAN</DistanceMeters>
          </Trackpoint>
          <Trackpoint>
            <Time>2022-07-06T09:34:22.000Z</Time>
            <Position>
              <LatitudeDegrees>44.07104347832500934600830078125</LatitudeDegrees>
              <LongitudeDegrees>-1.21602966450154781341552734375</LongitudeDegrees>
            </Position>
            <AltitudeMeters>18.3999996185302734375</AltitudeMeters>
            <DistanceMeters>NAN</DistanceMeters>
          </Trackpoint>
          <Trackpoint>
            <Time>2022-07-06T09:34:28.000Z</Time>
            <Position>
              <LatitudeDegrees>44.07081750221550464630126953125</LatitudeDegrees>
              <LongitudeDegrees>-1.21592405252158641815185546875</LongitudeDegrees>
            </Position>
            <AltitudeMeters>18.3999996185302734375</AltitudeMeters>
            <DistanceMeters>NAN</DistanceMeters>
          </Trackpoint>
          <Trackpoint>
            <Time>2022-07-06T09:34:30.000Z</Time>
            <Position>
              <LatitudeDegrees>44.07074131071567535400390625</LatitudeDegrees>
              <LongitudeDegrees>-1.21590041555464267730712890625</LongitudeDegrees>
            </Position>
            <AltitudeMeters>18.3999996185302734375</AltitudeMeters>
            <DistanceMeters>NAN</DistanceMeters>
          </Trackpoint>
          <Trackpoint>
            <Time>2022-07-06T09:34:32.000Z</Time>
            <Position>
              <LatitudeDegrees>44.07067031599581241607666015625</LatitudeDegrees>
              <LongitudeDegrees>-1.21589438058435916900634765625</LongitudeDegrees>
            </Position>
            <AltitudeMeters>18.6000003814697265625</AltitudeMeters>
            <DistanceMeters>NAN</DistanceMeters>
          </Trackpoint>
          <Trackpoint>
            <Time>2022-07-06T09:34:36.000Z</Time>
            <Position>
              <LatitudeDegrees>44.07053989358246326446533203125</LatitudeDegrees>
              <LongitudeDegrees>-1.2158807180821895599365234375</LongitudeDegrees>
            </Position>
            <AltitudeMeters>19</AltitudeMeters>
            <DistanceMeters>NAN</DistanceMeters>
          </Trackpoint>
          <Trackpoint>
            <Time>2022-07-06T09:34:43.000Z</Time>
            <Position>
              <LatitudeDegrees>44.07033805735409259796142578125</LatitudeDegrees>
              <LongitudeDegrees>-1.21586806140840053558349609375</LongitudeDegrees>
            </Position>
            <AltitudeMeters>19.6000003814697265625</AltitudeMeters>
            <DistanceMeters>NAN</DistanceMeters>
          </Trackpoint>
          <Trackpoint>
            <Time>2022-07-06T09:34:44.000Z</Time>
            <Position>
              <LatitudeDegrees>44.07031291164457798004150390625</LatitudeDegrees>
              <LongitudeDegrees>-1.21586839668452739715576171875</LongitudeDegrees>
            </Position>
            <AltitudeMeters>19.799999237060546875</AltitudeMeters>
            <DistanceMeters>NAN</DistanceMeters>
          </Trackpoint>
          <Trackpoint>
            <Time>2022-07-06T09:34:53.000Z</Time>
            <Position>
              <LatitudeDegrees>44.07010705210268497467041015625</LatitudeDegrees>
              <LongitudeDegrees>-1.21587216854095458984375</LongitudeDegrees>
            </Position>
            <AltitudeMeters>20.6000003814697265625</AltitudeMeters>
            <DistanceMeters>NAN</DistanceMeters>
          </Trackpoint>
          <Trackpoint>
            <Time>2022-07-06T09:34:57.000Z</Time>
            <Position>
              <LatitudeDegrees>44.0700323693454265594482421875</LatitudeDegrees>
              <LongitudeDegrees>-1.2158901058137416839599609375</LongitudeDegrees>
            </Position>
            <AltitudeMeters>21.200000762939453125</AltitudeMeters>
            <DistanceMeters>NAN</DistanceMeters>
          </Trackpoint>
          <Trackpoint>
            <Time>2022-07-06T09:34:59.000Z</Time>
            <Position>
              <LatitudeDegrees>44.07000093720853328704833984375</LatitudeDegrees>
              <LongitudeDegrees>-1.2159018404781818389892578125</LongitudeDegrees>
            </Position>
            <AltitudeMeters>21.6000003814697265625</AltitudeMeters>
            <DistanceMeters>NAN</DistanceMeters>
          </Trackpoint>
          <Trackpoint>
            <Time>2022-07-06T09:35:00.000Z</Time>
            <Position>
              <LatitudeDegrees>44.06998501159250736236572265625</LatitudeDegrees>
              <LongitudeDegrees>-1.2159102223813533782958984375</LongitudeDegrees>
            </Position>
            <AltitudeMeters>21.6000003814697265625</AltitudeMeters>
            <DistanceMeters>NAN</DistanceMeters>
          </Trackpoint>
          <Trackpoint>
            <Time>2022-07-06T09:35:01.000Z</Time>
            <Position>
              <LatitudeDegrees>44.0699710138142108917236328125</LatitudeDegrees>
              <LongitudeDegrees>-1.215915419161319732666015625</LongitudeDegrees>
            </Position>
            <AltitudeMeters>21.799999237060546875</AltitudeMeters>
            <DistanceMeters>NAN</DistanceMeters>
          </Trackpoint>
          <Trackpoint>
            <Time>2022-07-06T09:35:03.000Z</Time>
            <Position>
              <LatitudeDegrees>44.0699438564479351043701171875</LatitudeDegrees>
              <LongitudeDegrees>-1.21593612246215343475341796875</LongitudeDegrees>
            </Position>
            <AltitudeMeters>22</AltitudeMeters>
            <DistanceMeters>NAN</DistanceMeters>
          </Trackpoint>
          <Trackpoint>
            <Time>2022-07-06T09:35:06.000Z</Time>
            <Position>
              <LatitudeDegrees>44.06990446150302886962890625</LatitudeDegrees>
              <LongitudeDegrees>-1.21597417630255222320556640625</LongitudeDegrees>
            </Position>
            <AltitudeMeters>22.3999996185302734375</AltitudeMeters>
            <DistanceMeters>NAN</DistanceMeters>
          </Trackpoint>
          <Trackpoint>
            <Time>2022-07-06T09:35:07.000Z</Time>
            <Position>
              <LatitudeDegrees>44.06988836824893951416015625</LatitudeDegrees>
              <LongitudeDegrees>-1.21599094010889530181884765625</LongitudeDegrees>
            </Position>
            <AltitudeMeters>22.3999996185302734375</AltitudeMeters>
            <DistanceMeters>NAN</DistanceMeters>
          </Trackpoint>
          <Trackpoint>
            <Time>2022-07-06T09:35:10.000Z</Time>
            <Position>
              <LatitudeDegrees>44.06984922476112842559814453125</LatitudeDegrees>
              <LongitudeDegrees>-1.21602999977767467498779296875</LongitudeDegrees>
            </Position>
            <AltitudeMeters>22.6000003814697265625</AltitudeMeters>
            <DistanceMeters>NAN</DistanceMeters>
          </Trackpoint>
          <Trackpoint>
            <Time>2022-07-06T09:35:12.000Z</Time>
            <Position>
              <LatitudeDegrees>44.06981418840587139129638671875</LatitudeDegrees>
              <LongitudeDegrees>-1.21605564840137958526611328125</LongitudeDegrees>
            </Position>
            <AltitudeMeters>22.799999237060546875</AltitudeMeters>
            <DistanceMeters>NAN</DistanceMeters>
          </Trackpoint>
          <Trackpoint>
            <Time>2022-07-06T09:35:13.000Z</Time>
            <Position>
              <LatitudeDegrees>44.0697951614856719970703125</LatitudeDegrees>
              <LongitudeDegrees>-1.2160688079893589019775390625</LongitudeDegrees>
            </Position>
            <AltitudeMeters>22.799999237060546875</AltitudeMeters>
            <DistanceMeters>NAN</DistanceMeters>
          </Trackpoint>
          <Trackpoint>
            <Time>2022-07-06T09:35:15.000Z</Time>
            <Position>
              <LatitudeDegrees>44.0697624720633029937744140625</LatitudeDegrees>
              <LongitudeDegrees>-1.21609722264111042022705078125</LongitudeDegrees>
            </Position>
            <AltitudeMeters>23.200000762939453125</AltitudeMeters>
            <DistanceMeters>NAN</DistanceMeters>
          </Trackpoint>
          <Trackpoint>
            <Time>2022-07-06T09:35:16.000Z</Time>
            <Position>
              <LatitudeDegrees>44.06974763609468936920166015625</LatitudeDegrees>
              <LongitudeDegrees>-1.2161122262477874755859375</LongitudeDegrees>
            </Position>
            <AltitudeMeters>23.3999996185302734375</AltitudeMeters>
            <DistanceMeters>NAN</DistanceMeters>
          </Trackpoint>
          <Trackpoint>
            <Time>2022-07-06T09:35:21.000Z</Time>
            <Position>
              <LatitudeDegrees>44.0696565248072147369384765625</LatitudeDegrees>
              <LongitudeDegrees>-1.21620199643075466156005859375</LongitudeDegrees>
            </Position>
            <AltitudeMeters>23.799999237060546875</AltitudeMeters>
            <DistanceMeters>NAN</DistanceMeters>
          </Trackpoint>
          <Trackpoint>
            <Time>2022-07-06T09:35:24.000Z</Time>
            <Position>
              <LatitudeDegrees>44.06962014734745025634765625</LatitudeDegrees>
              <LongitudeDegrees>-1.2162713147699832916259765625</LongitudeDegrees>
            </Position>
            <AltitudeMeters>24</AltitudeMeters>
            <DistanceMeters>NAN</DistanceMeters>
          </Trackpoint>
          <Trackpoint>
            <Time>2022-07-06T09:35:25.000Z</Time>
            <Position>
              <LatitudeDegrees>44.06960430555045604705810546875</LatitudeDegrees>
              <LongitudeDegrees>-1.21630199253559112548828125</LongitudeDegrees>
            </Position>
            <AltitudeMeters>24.200000762939453125</AltitudeMeters>
            <DistanceMeters>NAN</DistanceMeters>
          </Trackpoint>
          <Trackpoint>
            <Time>2022-07-06T09:35:27.000Z</Time>
            <Position>
              <LatitudeDegrees>44.0695763938128948211669921875</LatitudeDegrees>
              <LongitudeDegrees>-1.21635287068784236907958984375</LongitudeDegrees>
            </Position>
            <AltitudeMeters>24.200000762939453125</AltitudeMeters>
            <DistanceMeters>NAN</DistanceMeters>
          </Trackpoint>
          <Trackpoint>
            <Time>2022-07-06T09:35:29.000Z</Time>
            <Position>
              <LatitudeDegrees>44.0695391781628131866455078125</LatitudeDegrees>
              <LongitudeDegrees>-1.2164131365716457366943359375</LongitudeDegrees>
            </Position>
            <AltitudeMeters>24.3999996185302734375</AltitudeMeters>
            <DistanceMeters>NAN</DistanceMeters>
          </Trackpoint>
          <Trackpoint>
            <Time>2022-07-06T09:35:34.000Z</Time>
            <Position>
              <LatitudeDegrees>44.069452844560146331787109375</LatitudeDegrees>
              <LongitudeDegrees>-1.2165749073028564453125</LongitudeDegrees>
            </Position>
            <AltitudeMeters>24.6000003814697265625</AltitudeMeters>
            <DistanceMeters>NAN</DistanceMeters>
          </Trackpoint>
          <Trackpoint>
            <Time>2022-07-06T09:35:42.000Z</Time>
            <Position>
              <LatitudeDegrees>44.069312028586864471435546875</LatitudeDegrees>
              <LongitudeDegrees>-1.21685628779232501983642578125</LongitudeDegrees>
            </Position>
            <AltitudeMeters>24.6000003814697265625</AltitudeMeters>
            <DistanceMeters>NAN</DistanceMeters>
          </Trackpoint>
          <Trackpoint>
            <Time>2022-07-06T09:35:48.000Z</Time>
            <Position>
              <LatitudeDegrees>44.06921245157718658447265625</LatitudeDegrees>
              <LongitudeDegrees>-1.2170789949595928192138671875</LongitudeDegrees>
            </Position>
            <AltitudeMeters>24.799999237060546875</AltitudeMeters>
            <DistanceMeters>NAN</DistanceMeters>
          </Trackpoint>
          <Trackpoint>
            <Time>2022-07-06T09:35:51.000Z</Time>
            <Position>
              <LatitudeDegrees>44.0691458992660045623779296875</LatitudeDegrees>
              <LongitudeDegrees>-1.21720514260232448577880859375</LongitudeDegrees>
            </Position>
            <AltitudeMeters>25</AltitudeMeters>
            <DistanceMeters>NAN</DistanceMeters>
          </Trackpoint>
          <Trackpoint>
            <Time>2022-07-06T09:35:59.000Z</Time>
            <Position>
              <LatitudeDegrees>44.06896795146167278289794921875</LatitudeDegrees>
              <LongitudeDegrees>-1.2175302766263484954833984375</LongitudeDegrees>
            </Position>
            <AltitudeMeters>24.799999237060546875</AltitudeMeters>
            <DistanceMeters>NAN</DistanceMeters>
          </Trackpoint>
          <Trackpoint>
            <Time>2022-07-06T09:36:00.000Z</Time>
            <Position>
              <LatitudeDegrees>44.06894959509372711181640625</LatitudeDegrees>
              <LongitudeDegrees>-1.217559278011322021484375</LongitudeDegrees>
            </Position>
            <AltitudeMeters>24.799999237060546875</AltitudeMeters>
            <DistanceMeters>NAN</DistanceMeters>
          </Trackpoint>
          <Trackpoint>
            <Time>2022-07-06T09:36:04.000Z</Time>
            <Position>
              <LatitudeDegrees>44.0688525326550006866455078125</LatitudeDegrees>
              <LongitudeDegrees>-1.2177391536533832550048828125</LongitudeDegrees>
            </Position>
            <AltitudeMeters>24.799999237060546875</AltitudeMeters>
            <DistanceMeters>NAN</DistanceMeters>
          </Trackpoint>
          <Trackpoint>
            <Time>2022-07-06T09:36:07.000Z</Time>
            <Position>
              <LatitudeDegrees>44.06877030618488788604736328125</LatitudeDegrees>
              <LongitudeDegrees>-1.2178610265254974365234375</LongitudeDegrees>
            </Position>
            <AltitudeMeters>24.6000003814697265625</AltitudeMeters>
            <DistanceMeters>NAN</DistanceMeters>
          </Trackpoint>
          <Trackpoint>
            <Time>2022-07-06T09:36:08.000Z</Time>
            <Position>
              <LatitudeDegrees>44.0687395446002483367919921875</LatitudeDegrees>
              <LongitudeDegrees>-1.21791123412549495697021484375</LongitudeDegrees>
            </Position>
            <AltitudeMeters>24.3999996185302734375</AltitudeMeters>
            <DistanceMeters>NAN</DistanceMeters>
          </Trackpoint>
          <Trackpoint>
            <Time>2022-07-06T09:36:10.000Z</Time>
            <Position>
              <LatitudeDegrees>44.068677686154842376708984375</LatitudeDegrees>
              <LongitudeDegrees>-1.2180278263986110687255859375</LongitudeDegrees>
            </Position>
            <AltitudeMeters>24.200000762939453125</AltitudeMeters>
            <DistanceMeters>NAN</DistanceMeters>
          </Trackpoint>
          <Trackpoint>
            <Time>2022-07-06T09:36:11.000Z</Time>
            <Position>
              <LatitudeDegrees>44.06865044496953487396240234375</LatitudeDegrees>
              <LongitudeDegrees>-1.21808121912181377410888671875</LongitudeDegrees>
            </Position>
            <AltitudeMeters>24.200000762939453125</AltitudeMeters>
            <DistanceMeters>NAN</DistanceMeters>
          </Trackpoint>
          <Trackpoint>
            <Time>2022-07-06T09:36:12.000Z</Time>
            <Position>
              <LatitudeDegrees>44.0686128102242946624755859375</LatitudeDegrees>
              <LongitudeDegrees>-1.218149699270725250244140625</LongitudeDegrees>
            </Position>
            <AltitudeMeters>24</AltitudeMeters>
            <DistanceMeters>NAN</DistanceMeters>
          </Trackpoint>
          <Trackpoint>
            <Time>2022-07-06T09:36:15.000Z</Time>
            <Position>
              <LatitudeDegrees>44.06847425736486911773681640625</LatitudeDegrees>
              <LongitudeDegrees>-1.2183718197047710418701171875</LongitudeDegrees>
            </Position>
            <AltitudeMeters>23</AltitudeMeters>
            <DistanceMeters>NAN</DistanceMeters>
          </Trackpoint>
          <Trackpoint>
            <Time>2022-07-06T09:36:16.000Z</Time>
            <Position>
              <LatitudeDegrees>44.06844223849475383758544921875</LatitudeDegrees>
              <LongitudeDegrees>-1.21843175031244754791259765625</LongitudeDegrees>
            </Position>
            <AltitudeMeters>22.6000003814697265625</AltitudeMeters>
            <DistanceMeters>NAN</DistanceMeters>
          </Trackpoint>
          <Trackpoint>
            <Time>2022-07-06T09:36:19.000Z</Time>
            <Position>
              <LatitudeDegrees>44.06830712221562862396240234375</LatitudeDegrees>
              <LongitudeDegrees>-1.21868438087403774261474609375</LongitudeDegrees>
            </Position>
            <AltitudeMeters>21.6000003814697265625</AltitudeMeters>
            <DistanceMeters>NAN</DistanceMeters>
          </Trackpoint>
          <Trackpoint>
            <Time>2022-07-06T09:36:24.000Z</Time>
            <Position>
              <LatitudeDegrees>44.06801979057490825653076171875</LatitudeDegrees>
              <LongitudeDegrees>-1.21907229535281658172607421875</LongitudeDegrees>
            </Position>
            <AltitudeMeters>21.200000762939453125</AltitudeMeters>
            <DistanceMeters>NAN</DistanceMeters>
          </Trackpoint>
          <Trackpoint>
            <Time>2022-07-06T09:36:30.000Z</Time>
            <Position>
              <LatitudeDegrees>44.06774251721799373626708984375</LatitudeDegrees>
              <LongitudeDegrees>-1.21949507854878902435302734375</LongitudeDegrees>
            </Position>
            <AltitudeMeters>21</AltitudeMeters>
            <DistanceMeters>NAN</DistanceMeters>
          </Trackpoint>
          <Trackpoint>
            <Time>2022-07-06T09:36:32.000Z</Time>
            <Position>
              <LatitudeDegrees>44.0676780603826045989990234375</LatitudeDegrees>
              <LongitudeDegrees>-1.21956917457282543182373046875</LongitudeDegrees>
            </Position>
            <AltitudeMeters>20.799999237060546875</AltitudeMeters>
            <DistanceMeters>NAN</DistanceMeters>
          </Trackpoint>
          <Trackpoint>
            <Time>2022-07-06T09:36:34.000Z</Time>
            <Position>
              <LatitudeDegrees>44.067655764520168304443359375</LatitudeDegrees>
              <LongitudeDegrees>-1.21960219927132129669189453125</LongitudeDegrees>
            </Position>
            <AltitudeMeters>21</AltitudeMeters>
            <DistanceMeters>NAN</DistanceMeters>
          </Trackpoint>
          <Trackpoint>
            <Time>2022-07-06T09:36:36.000Z</Time>
            <Position>
              <LatitudeDegrees>44.0675734542310237884521484375</LatitudeDegrees>
              <LongitudeDegrees>-1.21970479376614093780517578125</LongitudeDegrees>
            </Position>
            <AltitudeMeters>21.200000762939453125</AltitudeMeters>
            <DistanceMeters>NAN</DistanceMeters>
          </Trackpoint>
          <Trackpoint>
            <Time>2022-07-06T09:36:37.000Z</Time>
            <Position>
              <LatitudeDegrees>44.067547805607318878173828125</LatitudeDegrees>
              <LongitudeDegrees>-1.21972776018083095550537109375</LongitudeDegrees>
            </Position>
            <AltitudeMeters>21.200000762939453125</AltitudeMeters>
            <DistanceMeters>NAN</DistanceMeters>
          </Trackpoint>
          <Trackpoint>
            <Time>2022-07-06T09:36:39.000Z</Time>
            <Position>
              <LatitudeDegrees>44.06750614754855632781982421875</LatitudeDegrees>
              <LongitudeDegrees>-1.219765730202198028564453125</LongitudeDegrees>
            </Position>
            <AltitudeMeters>21.6000003814697265625</AltitudeMeters>
            <DistanceMeters>NAN</DistanceMeters>
          </Trackpoint>
          <Trackpoint>
            <Time>2022-07-06T09:36:44.000Z</Time>
            <Position>
              <LatitudeDegrees>44.06741579063236713409423828125</LatitudeDegrees>
              <LongitudeDegrees>-1.21984762139618396759033203125</LongitudeDegrees>
            </Position>
            <AltitudeMeters>22.200000762939453125</AltitudeMeters>
            <DistanceMeters>NAN</DistanceMeters>
          </Trackpoint>
          <Trackpoint>
            <Time>2022-07-06T09:36:45.000Z</Time>
            <Position>
              <LatitudeDegrees>44.06740841455757617950439453125</LatitudeDegrees>
              <LongitudeDegrees>-1.219843514263629913330078125</LongitudeDegrees>
            </Position>
            <AltitudeMeters>22.200000762939453125</AltitudeMeters>
            <DistanceMeters>NAN</DistanceMeters>
          </Trackpoint>
          <Trackpoint>
            <Time>2022-07-06T09:36:47.000Z</Time>
            <Position>
              <LatitudeDegrees>44.06741411425173282623291015625</LatitudeDegrees>
              <LongitudeDegrees>-1.2198299355804920196533203125</LongitudeDegrees>
            </Position>
            <AltitudeMeters>22.200000762939453125</AltitudeMeters>
            <DistanceMeters>NAN</DistanceMeters>
          </Trackpoint>
          <Trackpoint>
            <Time>2022-07-06T09:36:48.000Z</Time>
            <Position>
              <LatitudeDegrees>44.06742434017360210418701171875</LatitudeDegrees>
              <LongitudeDegrees>-1.21982641518115997314453125</LongitudeDegrees>
            </Position>
            <AltitudeMeters>22.200000762939453125</AltitudeMeters>
            <DistanceMeters>NAN</DistanceMeters>
          </Trackpoint>
          <Trackpoint>
            <Time>2022-07-06T09:36:50.000Z</Time>
            <Position>
              <LatitudeDegrees>44.06743641011416912078857421875</LatitudeDegrees>
              <LongitudeDegrees>-1.2198232300579547882080078125</LongitudeDegrees>
            </Position>
            <AltitudeMeters>22.200000762939453125</AltitudeMeters>
            <DistanceMeters>NAN</DistanceMeters>
          </Trackpoint>
          <Trackpoint>
            <Time>2022-07-06T09:36:54.000Z</Time>
            <Position>
              <LatitudeDegrees>44.06744127161800861358642578125</LatitudeDegrees>
              <LongitudeDegrees>-1.2198202125728130340576171875</LongitudeDegrees>
            </Position>
            <AltitudeMeters>22</AltitudeMeters>
            <DistanceMeters>NAN</DistanceMeters>
          </Trackpoint>
          <Trackpoint>
            <Time>2022-07-06T09:38:17.000Z</Time>
            <Position>
              <LatitudeDegrees>44.0674269385635852813720703125</LatitudeDegrees>
              <LongitudeDegrees>-1.21983471326529979705810546875</LongitudeDegrees>
            </Position>
            <AltitudeMeters>22.3999996185302734375</AltitudeMeters>
            <DistanceMeters>NAN</DistanceMeters>
          </Trackpoint>
          <Trackpoint>
            <Time>2022-07-06T09:38:18.000Z</Time>
            <Position>
              <LatitudeDegrees>44.06740673817694187164306640625</LatitudeDegrees>
              <LongitudeDegrees>-1.2198527343571186065673828125</LongitudeDegrees>
            </Position>
            <AltitudeMeters>22.6000003814697265625</AltitudeMeters>
            <DistanceMeters>NAN</DistanceMeters>
          </Trackpoint>
          <Trackpoint>
            <Time>2022-07-06T09:38:19.000Z</Time>
            <Position>
              <LatitudeDegrees>44.06738360412418842315673828125</LatitudeDegrees>
              <LongitudeDegrees>-1.219873689115047454833984375</LongitudeDegrees>
            </Position>
            <AltitudeMeters>22.6000003814697265625</AltitudeMeters>
            <DistanceMeters>NAN</DistanceMeters>
          </Trackpoint>
          <Trackpoint>
            <Time>2022-07-06T09:38:21.000Z</Time>
            <Position>
              <LatitudeDegrees>44.06733616255223751068115234375</LatitudeDegrees>
              <LongitudeDegrees>-1.21991283260285854339599609375</LongitudeDegrees>
            </Position>
            <AltitudeMeters>22.799999237060546875</AltitudeMeters>
            <DistanceMeters>NAN</DistanceMeters>
          </Trackpoint>
          <Trackpoint>
            <Time>2022-07-06T09:38:23.000Z</Time>
            <Position>
              <LatitudeDegrees>44.067278914153575897216796875</LatitudeDegrees>
              <LongitudeDegrees>-1.2199439294636249542236328125</LongitudeDegrees>
            </Position>
            <AltitudeMeters>23</AltitudeMeters>
            <DistanceMeters>NAN</DistanceMeters>
          </Trackpoint>
          <Trackpoint>
            <Time>2022-07-06T09:38:24.000Z</Time>
            <Position>
              <LatitudeDegrees>44.06725167296826839447021484375</LatitudeDegrees>
              <LongitudeDegrees>-1.21995910070836544036865234375</LongitudeDegrees>
            </Position>
            <AltitudeMeters>23</AltitudeMeters>
            <DistanceMeters>NAN</DistanceMeters>
          </Trackpoint>
          <Trackpoint>
            <Time>2022-07-06T09:38:33.000Z</Time>
            <Position>
              <LatitudeDegrees>44.06702351756393909454345703125</LatitudeDegrees>
              <LongitudeDegrees>-1.22007208876311779022216796875</LongitudeDegrees>
            </Position>
            <AltitudeMeters>23.6000003814697265625</AltitudeMeters>
            <DistanceMeters>NAN</DistanceMeters>
          </Trackpoint>
          <Trackpoint>
            <Time>2022-07-06T09:38:38.000Z</Time>
            <Position>
              <LatitudeDegrees>44.06687784008681774139404296875</LatitudeDegrees>
              <LongitudeDegrees>-1.2201246432960033416748046875</LongitudeDegrees>
            </Position>
            <AltitudeMeters>23.6000003814697265625</AltitudeMeters>
            <DistanceMeters>NAN</DistanceMeters>
          </Trackpoint>
          <Trackpoint>
            <Time>2022-07-06T09:38:40.000Z</Time>
            <Position>
              <LatitudeDegrees>44.0668180771172046661376953125</LatitudeDegrees>
              <LongitudeDegrees>-1.220153309404850006103515625</LongitudeDegrees>
            </Position>
            <AltitudeMeters>23.6000003814697265625</AltitudeMeters>
            <DistanceMeters>NAN</DistanceMeters>
          </Trackpoint>
          <Trackpoint>
            <Time>2022-07-06T09:38:50.000Z</Time>
            <Position>
              <LatitudeDegrees>44.0665213577449321746826171875</LatitudeDegrees>
              <LongitudeDegrees>-1.22027493081986904144287109375</LongitudeDegrees>
            </Position>
            <AltitudeMeters>24.3999996185302734375</AltitudeMeters>
            <DistanceMeters>NAN</DistanceMeters>
          </Trackpoint>
          <Trackpoint>
            <Time>2022-07-06T09:38:55.000Z</Time>
            <Position>
              <LatitudeDegrees>44.06635455787181854248046875</LatitudeDegrees>
              <LongitudeDegrees>-1.22033209539949893951416015625</LongitudeDegrees>
            </Position>
            <AltitudeMeters>24.6000003814697265625</AltitudeMeters>
            <DistanceMeters>NAN</DistanceMeters>
          </Trackpoint>
          <Trackpoint>
            <Time>2022-07-06T09:38:56.000Z</Time>
            <Position>
              <LatitudeDegrees>44.066320359706878662109375</LatitudeDegrees>
              <LongitudeDegrees>-1.2203469313681125640869140625</LongitudeDegrees>
            </Position>
            <AltitudeMeters>24.6000003814697265625</AltitudeMeters>
            <DistanceMeters>NAN</DistanceMeters>
          </Trackpoint>
          <Trackpoint>
            <Time>2022-07-06T09:38:59.000Z</Time>
            <Position>
              <LatitudeDegrees>44.0662145800888538360595703125</LatitudeDegrees>
              <LongitudeDegrees>-1.2203824706375598907470703125</LongitudeDegrees>
            </Position>
            <AltitudeMeters>25</AltitudeMeters>
            <DistanceMeters>NAN</DistanceMeters>
          </Trackpoint>
          <Trackpoint>
            <Time>2022-07-06T09:39:07.000Z</Time>
            <Position>
              <LatitudeDegrees>44.06593353487551212310791015625</LatitudeDegrees>
              <LongitudeDegrees>-1.2204897589981555938720703125</LongitudeDegrees>
            </Position>
            <AltitudeMeters>25.3999996185302734375</AltitudeMeters>
            <DistanceMeters>NAN</DistanceMeters>
          </Trackpoint>
          <Trackpoint>
            <Time>2022-07-06T09:39:13.000Z</Time>
            <Position>
              <LatitudeDegrees>44.06574008055031299591064453125</LatitudeDegrees>
              <LongitudeDegrees>-1.2205566465854644775390625</LongitudeDegrees>
            </Position>
            <AltitudeMeters>25.799999237060546875</AltitudeMeters>
            <DistanceMeters>NAN</DistanceMeters>
          </Trackpoint>
          <Trackpoint>
            <Time>2022-07-06T09:39:16.000Z</Time>
            <Position>
              <LatitudeDegrees>44.06564251519739627838134765625</LatitudeDegrees>
              <LongitudeDegrees>-1.22060568071901798248291015625</LongitudeDegrees>
            </Position>
            <AltitudeMeters>25.799999237060546875</AltitudeMeters>
            <DistanceMeters>NAN</DistanceMeters>
          </Trackpoint>
          <Trackpoint>
            <Time>2022-07-06T09:39:25.000Z</Time>
            <Position>
              <LatitudeDegrees>44.06535283662378787994384765625</LatitudeDegrees>
              <LongitudeDegrees>-1.220711879432201385498046875</LongitudeDegrees>
            </Position>
            <AltitudeMeters>26.200000762939453125</AltitudeMeters>
            <DistanceMeters>NAN</DistanceMeters>
          </Trackpoint>
          <Trackpoint>
            <Time>2022-07-06T09:39:31.000Z</Time>
            <Position>
              <LatitudeDegrees>44.06518285162746906280517578125</LatitudeDegrees>
              <LongitudeDegrees>-1.22078186832368373870849609375</LongitudeDegrees>
            </Position>
            <AltitudeMeters>26.6000003814697265625</AltitudeMeters>
            <DistanceMeters>NAN</DistanceMeters>
          </Trackpoint>
          <Trackpoint>
            <Time>2022-07-06T09:39:34.000Z</Time>
            <Position>
              <LatitudeDegrees>44.06508729793131351470947265625</LatitudeDegrees>
              <LongitudeDegrees>-1.22082226909697055816650390625</LongitudeDegrees>
            </Position>
            <AltitudeMeters>26.799999237060546875</AltitudeMeters>
            <DistanceMeters>NAN</DistanceMeters>
          </Trackpoint>
          <Trackpoint>
            <Time>2022-07-06T09:39:37.000Z</Time>
            <Position>
              <LatitudeDegrees>44.0650250203907489776611328125</LatitudeDegrees>
              <LongitudeDegrees>-1.220829226076602935791015625</LongitudeDegrees>
            </Position>
            <AltitudeMeters>26.799999237060546875</AltitudeMeters>
            <DistanceMeters>NAN</DistanceMeters>
          </Trackpoint>
          <Trackpoint>
            <Time>2022-07-06T09:39:38.000Z</Time>
            <Position>
              <LatitudeDegrees>44.06502191908657550811767578125</LatitudeDegrees>
              <LongitudeDegrees>-1.22081925161182880401611328125</LongitudeDegrees>
            </Position>
            <AltitudeMeters>26.799999237060546875</AltitudeMeters>
            <DistanceMeters>NAN</DistanceMeters>
          </Trackpoint>
          <Trackpoint>
            <Time>2022-07-06T09:39:42.000Z</Time>
            <Position>
              <LatitudeDegrees>44.06507355161011219024658203125</LatitudeDegrees>
              <LongitudeDegrees>-1.2208069302141666412353515625</LongitudeDegrees>
            </Position>
            <AltitudeMeters>26.799999237060546875</AltitudeMeters>
            <DistanceMeters>NAN</DistanceMeters>
          </Trackpoint>
          <Trackpoint>
            <Time>2022-07-06T09:39:46.000Z</Time>
            <Position>
              <LatitudeDegrees>44.0651514194905757904052734375</LatitudeDegrees>
              <LongitudeDegrees>-1.22095420025289058685302734375</LongitudeDegrees>
            </Position>
            <AltitudeMeters>26.799999237060546875</AltitudeMeters>
            <DistanceMeters>NAN</DistanceMeters>
          </Trackpoint>
          <Trackpoint>
            <Time>2022-07-06T09:39:51.000Z</Time>
            <Position>
              <LatitudeDegrees>44.065204560756683349609375</LatitudeDegrees>
              <LongitudeDegrees>-1.2211968563497066497802734375</LongitudeDegrees>
            </Position>
            <AltitudeMeters>27</AltitudeMeters>
            <DistanceMeters>NAN</DistanceMeters>
          </Trackpoint>
          <Trackpoint>
            <Time>2022-07-06T09:39:53.000Z</Time>
            <Position>
              <LatitudeDegrees>44.0652300417423248291015625</LatitudeDegrees>
              <LongitudeDegrees>-1.22129224240779876708984375</LongitudeDegrees>
            </Position>
            <AltitudeMeters>27</AltitudeMeters>
            <DistanceMeters>NAN</DistanceMeters>
          </Trackpoint>
          <Trackpoint>
            <Time>2022-07-06T09:40:02.000Z</Time>
            <Position>
              <LatitudeDegrees>44.06535920687019824981689453125</LatitudeDegrees>
              <LongitudeDegrees>-1.2217393331229686737060546875</LongitudeDegrees>
            </Position>
            <AltitudeMeters>26.6000003814697265625</AltitudeMeters>
            <DistanceMeters>NAN</DistanceMeters>
          </Trackpoint>
          <Trackpoint>
            <Time>2022-07-06T09:40:09.000Z</Time>
            <Position>
              <LatitudeDegrees>44.065459705889225006103515625</LatitudeDegrees>
              <LongitudeDegrees>-1.22214560396969318389892578125</LongitudeDegrees>
            </Position>
            <AltitudeMeters>26</AltitudeMeters>
            <DistanceMeters>NAN</DistanceMeters>
          </Trackpoint>
          <Trackpoint>
            <Time>2022-07-06T09:40:17.000Z</Time>
            <Position>
              <LatitudeDegrees>44.06561032868921756744384765625</LatitudeDegrees>
              <LongitudeDegrees>-1.22265757061541080474853515625</LongitudeDegrees>
            </Position>
            <AltitudeMeters>25.799999237060546875</AltitudeMeters>
            <DistanceMeters>NAN</DistanceMeters>
          </Trackpoint>
          <Trackpoint>
            <Time>2022-07-06T09:40:23.000Z</Time>
            <Position>
              <LatitudeDegrees>44.06573153100907802581787109375</LatitudeDegrees>
              <LongitudeDegrees>-1.223112456500530242919921875</LongitudeDegrees>
            </Position>
            <AltitudeMeters>25.799999237060546875</AltitudeMeters>
            <DistanceMeters>NAN</DistanceMeters>
          </Trackpoint>
          <Trackpoint>
            <Time>2022-07-06T09:40:24.000Z</Time>
            <Position>
              <LatitudeDegrees>44.065752737224102020263671875</LatitudeDegrees>
              <LongitudeDegrees>-1.223188228905200958251953125</LongitudeDegrees>
            </Position>
            <AltitudeMeters>25.6000003814697265625</AltitudeMeters>
            <DistanceMeters>NAN</DistanceMeters>
          </Trackpoint>
          <Trackpoint>
            <Time>2022-07-06T09:40:33.000Z</Time>
            <Position>
              <LatitudeDegrees>44.0659420005977153778076171875</LatitudeDegrees>
              <LongitudeDegrees>-1.223910748958587646484375</LongitudeDegrees>
            </Position>
            <AltitudeMeters>25</AltitudeMeters>
            <DistanceMeters>NAN</DistanceMeters>
          </Trackpoint>
          <Trackpoint>
            <Time>2022-07-06T09:40:34.000Z</Time>
            <Position>
              <LatitudeDegrees>44.06595801003277301788330078125</LatitudeDegrees>
              <LongitudeDegrees>-1.22399347834289073944091796875</LongitudeDegrees>
            </Position>
            <AltitudeMeters>25</AltitudeMeters>
            <DistanceMeters>NAN</DistanceMeters>
          </Trackpoint>
          <Trackpoint>
            <Time>2022-07-06T09:40:36.000Z</Time>
            <Position>
              <LatitudeDegrees>44.06598768197000026702880859375</LatitudeDegrees>
              <LongitudeDegrees>-1.22415424324572086334228515625</LongitudeDegrees>
            </Position>
            <AltitudeMeters>24.6000003814697265625</AltitudeMeters>
            <DistanceMeters>NAN</DistanceMeters>
          </Trackpoint>
          <Trackpoint>
            <Time>2022-07-06T09:40:39.000Z</Time>
            <Position>
              <LatitudeDegrees>44.0660214610397815704345703125</LatitudeDegrees>
              <LongitudeDegrees>-1.22440050356090068817138671875</LongitudeDegrees>
            </Position>
            <AltitudeMeters>24</AltitudeMeters>
            <DistanceMeters>NAN</DistanceMeters>
          </Trackpoint>
          <Trackpoint>
            <Time>2022-07-06T09:40:40.000Z</Time>
            <Position>
              <LatitudeDegrees>44.06603847630321979522705078125</LatitudeDegrees>
              <LongitudeDegrees>-1.22448004782199859619140625</LongitudeDegrees>
            </Position>
            <AltitudeMeters>24</AltitudeMeters>
            <DistanceMeters>NAN</DistanceMeters>
          </Trackpoint>
          <Trackpoint>
            <Time>2022-07-06T09:40:49.000Z</Time>
            <Position>
              <LatitudeDegrees>44.06615749932825565338134765625</LatitudeDegrees>
              <LongitudeDegrees>-1.225179769098758697509765625</LongitudeDegrees>
            </Position>
            <AltitudeMeters>23.799999237060546875</AltitudeMeters>
            <DistanceMeters>NAN</DistanceMeters>
          </Trackpoint>
          <Trackpoint>
            <Time>2022-07-06T09:40:55.000Z</Time>
            <Position>
              <LatitudeDegrees>44.06621349044144153594970703125</LatitudeDegrees>
              <LongitudeDegrees>-1.225638426840305328369140625</LongitudeDegrees>
            </Position>
            <AltitudeMeters>23.6000003814697265625</AltitudeMeters>
            <DistanceMeters>NAN</DistanceMeters>
          </Trackpoint>
          <Trackpoint>
            <Time>2022-07-06T09:40:58.000Z</Time>
            <Position>
              <LatitudeDegrees>44.06623922288417816162109375</LatitudeDegrees>
              <LongitudeDegrees>-1.22586364857852458953857421875</LongitudeDegrees>
            </Position>
            <AltitudeMeters>23.3999996185302734375</AltitudeMeters>
            <DistanceMeters>NAN</DistanceMeters>
          </Trackpoint>
          <Trackpoint>
            <Time>2022-07-06T09:40:59.000Z</Time>
            <Position>
              <LatitudeDegrees>44.0662511251866817474365234375</LatitudeDegrees>
              <LongitudeDegrees>-1.2259343080222606658935546875</LongitudeDegrees>
            </Position>
            <AltitudeMeters>23.3999996185302734375</AltitudeMeters>
            <DistanceMeters>NAN</DistanceMeters>
          </Trackpoint>
          <Trackpoint>
            <Time>2022-07-06T09:41:08.000Z</Time>
            <Position>
              <LatitudeDegrees>44.06634223647415637969970703125</LatitudeDegrees>
              <LongitudeDegrees>-1.22661651112139225006103515625</LongitudeDegrees>
            </Position>
            <AltitudeMeters>22.799999237060546875</AltitudeMeters>
            <DistanceMeters>NAN</DistanceMeters>
          </Trackpoint>
          <Trackpoint>
            <Time>2022-07-06T09:41:11.000Z</Time>
            <Position>
              <LatitudeDegrees>44.06637065112590789794921875</LatitudeDegrees>
              <LongitudeDegrees>-1.2268526293337345123291015625</LongitudeDegrees>
            </Position>
            <AltitudeMeters>22.3999996185302734375</AltitudeMeters>
            <DistanceMeters>NAN</DistanceMeters>
          </Trackpoint>
          <Trackpoint>
            <Time>2022-07-06T09:41:16.000Z</Time>
            <Position>
              <LatitudeDegrees>44.06641247682273387908935546875</LatitudeDegrees>
              <LongitudeDegrees>-1.2272345088422298431396484375</LongitudeDegrees>
            </Position>
            <AltitudeMeters>21.799999237060546875</AltitudeMeters>
            <DistanceMeters>NAN</DistanceMeters>
          </Trackpoint>
          <Trackpoint>
            <Time>2022-07-06T09:41:22.000Z</Time>
            <Position>
              <LatitudeDegrees>44.06646327115595340728759765625</LatitudeDegrees>
              <LongitudeDegrees>-1.22769157402217388153076171875</LongitudeDegrees>
            </Position>
            <AltitudeMeters>21.200000762939453125</AltitudeMeters>
            <DistanceMeters>NAN</DistanceMeters>
          </Trackpoint>
          <Trackpoint>
            <Time>2022-07-06T09:41:25.000Z</Time>
            <Position>
              <LatitudeDegrees>44.06648841686546802520751953125</LatitudeDegrees>
              <LongitudeDegrees>-1.2279112637042999267578125</LongitudeDegrees>
            </Position>
            <AltitudeMeters>20.799999237060546875</AltitudeMeters>
            <DistanceMeters>NAN</DistanceMeters>
          </Trackpoint>
          <Trackpoint>
            <Time>2022-07-06T09:41:28.000Z</Time>
            <Position>
              <LatitudeDegrees>44.0665257163345813751220703125</LatitudeDegrees>
              <LongitudeDegrees>-1.22808937914669513702392578125</LongitudeDegrees>
            </Position>
            <AltitudeMeters>20.3999996185302734375</AltitudeMeters>
            <DistanceMeters>NAN</DistanceMeters>
          </Trackpoint>
          <Trackpoint>
            <Time>2022-07-06T09:41:29.000Z</Time>
            <Position>
              <LatitudeDegrees>44.0665428154170513153076171875</LatitudeDegrees>
              <LongitudeDegrees>-1.22813330031931400299072265625</LongitudeDegrees>
            </Position>
            <AltitudeMeters>20.3999996185302734375</AltitudeMeters>
            <DistanceMeters>NAN</DistanceMeters>
          </Trackpoint>
          <Trackpoint>
            <Time>2022-07-06T09:41:31.000Z</Time>
            <Position>
              <LatitudeDegrees>44.06657994724810123443603515625</LatitudeDegrees>
              <LongitudeDegrees>-1.2282061390578746795654296875</LongitudeDegrees>
            </Position>
            <AltitudeMeters>20</AltitudeMeters>
            <DistanceMeters>NAN</DistanceMeters>
          </Trackpoint>
          <Trackpoint>
            <Time>2022-07-06T09:41:33.000Z</Time>
            <Position>
              <LatitudeDegrees>44.0666390396654605865478515625</LatitudeDegrees>
              <LongitudeDegrees>-1.22825517319142818450927734375</LongitudeDegrees>
            </Position>
            <AltitudeMeters>19.799999237060546875</AltitudeMeters>
            <DistanceMeters>NAN</DistanceMeters>
          </Trackpoint>
          <Trackpoint>
            <Time>2022-07-06T09:41:41.000Z</Time>
            <Position>
              <LatitudeDegrees>44.06695394776761531829833984375</LatitudeDegrees>
              <LongitudeDegrees>-1.2284213863313198089599609375</LongitudeDegrees>
            </Position>
            <AltitudeMeters>19.6000003814697265625</AltitudeMeters>
            <DistanceMeters>NAN</DistanceMeters>
          </Trackpoint>
          <Trackpoint>
            <Time>2022-07-06T09:41:45.000Z</Time>
            <Position>
              <LatitudeDegrees>44.06713834963738918304443359375</LatitudeDegrees>
              <LongitudeDegrees>-1.22852691449224948883056640625</LongitudeDegrees>
            </Position>
            <AltitudeMeters>19.3999996185302734375</AltitudeMeters>
            <DistanceMeters>NAN</DistanceMeters>
          </Trackpoint>
          <Trackpoint>
            <Time>2022-07-06T09:41:47.000Z</Time>
            <Position>
              <LatitudeDegrees>44.06723474152386188507080078125</LatitudeDegrees>
              <LongitudeDegrees>-1.2285699136555194854736328125</LongitudeDegrees>
            </Position>
            <AltitudeMeters>19.200000762939453125</AltitudeMeters>
            <DistanceMeters>NAN</DistanceMeters>
          </Trackpoint>
          <Trackpoint>
            <Time>2022-07-06T09:41:52.000Z</Time>
            <Position>
              <LatitudeDegrees>44.0674735419452190399169921875</LatitudeDegrees>
              <LongitudeDegrees>-1.2286932952702045440673828125</LongitudeDegrees>
            </Position>
            <AltitudeMeters>19.200000762939453125</AltitudeMeters>
            <DistanceMeters>NAN</DistanceMeters>
          </Trackpoint>
          <Trackpoint>
            <Time>2022-07-06T09:41:57.000Z</Time>
            <Position>
              <LatitudeDegrees>44.0677038766443729400634765625</LatitudeDegrees>
              <LongitudeDegrees>-1.2288190238177776336669921875</LongitudeDegrees>
            </Position>
            <AltitudeMeters>19</AltitudeMeters>
            <DistanceMeters>NAN</DistanceMeters>
          </Trackpoint>
          <Trackpoint>
            <Time>2022-07-06T09:41:58.000Z</Time>
            <Position>
              <LatitudeDegrees>44.06774394214153289794921875</LatitudeDegrees>
              <LongitudeDegrees>-1.22885012067854404449462890625</LongitudeDegrees>
            </Position>
            <AltitudeMeters>19</AltitudeMeters>
            <DistanceMeters>NAN</DistanceMeters>
          </Trackpoint>
          <Trackpoint>
            <Time>2022-07-06T09:42:00.000Z</Time>
            <Position>
              <LatitudeDegrees>44.0678232349455356597900390625</LatitudeDegrees>
              <LongitudeDegrees>-1.22891566716134548187255859375</LongitudeDegrees>
            </Position>
            <AltitudeMeters>18.799999237060546875</AltitudeMeters>
            <DistanceMeters>NAN</DistanceMeters>
          </Trackpoint>
          <Trackpoint>
            <Time>2022-07-06T09:42:03.000Z</Time>
            <Position>
              <LatitudeDegrees>44.06793228350579738616943359375</LatitudeDegrees>
              <LongitudeDegrees>-1.229037456214427947998046875</LongitudeDegrees>
            </Position>
            <AltitudeMeters>18.6000003814697265625</AltitudeMeters>
            <DistanceMeters>NAN</DistanceMeters>
          </Trackpoint>
          <Trackpoint>
            <Time>2022-07-06T09:42:04.000Z</Time>
            <Position>
              <LatitudeDegrees>44.06797167845070362091064453125</LatitudeDegrees>
              <LongitudeDegrees>-1.22907006181776523590087890625</LongitudeDegrees>
            </Position>
            <AltitudeMeters>18.6000003814697265625</AltitudeMeters>
            <DistanceMeters>NAN</DistanceMeters>
          </Trackpoint>
          <Trackpoint>
            <Time>2022-07-06T09:42:07.000Z</Time>
            <Position>
              <LatitudeDegrees>44.06809690408408641815185546875</LatitudeDegrees>
              <LongitudeDegrees>-1.229136697947978973388671875</LongitudeDegrees>
            </Position>
            <AltitudeMeters>18.6000003814697265625</AltitudeMeters>
            <DistanceMeters>NAN</DistanceMeters>
          </Trackpoint>
          <Trackpoint>
            <Time>2022-07-06T09:42:09.000Z</Time>
            <Position>
              <LatitudeDegrees>44.0681809745728969573974609375</LatitudeDegrees>
              <LongitudeDegrees>-1.2291794456541538238525390625</LongitudeDegrees>
            </Position>
            <AltitudeMeters>18.6000003814697265625</AltitudeMeters>
            <DistanceMeters>NAN</DistanceMeters>
          </Trackpoint>
          <Trackpoint>
            <Time>2022-07-06T09:42:11.000Z</Time>
            <Position>
              <LatitudeDegrees>44.068261273205280303955078125</LatitudeDegrees>
              <LongitudeDegrees>-1.22922889888286590576171875</LongitudeDegrees>
            </Position>
            <AltitudeMeters>18.6000003814697265625</AltitudeMeters>
            <DistanceMeters>NAN</DistanceMeters>
          </Trackpoint>
          <Trackpoint>
            <Time>2022-07-06T09:42:19.000Z</Time>
            <Position>
              <LatitudeDegrees>44.0685742534697055816650390625</LatitudeDegrees>
              <LongitudeDegrees>-1.22942394576966762542724609375</LongitudeDegrees>
            </Position>
            <AltitudeMeters>18.3999996185302734375</AltitudeMeters>
            <DistanceMeters>NAN</DistanceMeters>
          </Trackpoint>
          <Trackpoint>
            <Time>2022-07-06T09:42:22.000Z</Time>
            <Position>
              <LatitudeDegrees>44.068677015602588653564453125</LatitudeDegrees>
              <LongitudeDegrees>-1.22950525023043155670166015625</LongitudeDegrees>
            </Position>
            <AltitudeMeters>18.3999996185302734375</AltitudeMeters>
            <DistanceMeters>NAN</DistanceMeters>
          </Trackpoint>
          <Trackpoint>
            <Time>2022-07-06T09:42:25.000Z</Time>
            <Position>
              <LatitudeDegrees>44.0687410533428192138671875</LatitudeDegrees>
              <LongitudeDegrees>-1.2296042405068874359130859375</LongitudeDegrees>
            </Position>
            <AltitudeMeters>18.200000762939453125</AltitudeMeters>
            <DistanceMeters>NAN</DistanceMeters>
          </Trackpoint>
          <Trackpoint>
            <Time>2022-07-06T09:42:29.000Z</Time>
            <Position>
              <LatitudeDegrees>44.06883115880191326141357421875</LatitudeDegrees>
              <LongitudeDegrees>-1.2296962738037109375</LongitudeDegrees>
            </Position>
            <AltitudeMeters>18</AltitudeMeters>
            <DistanceMeters>NAN</DistanceMeters>
          </Trackpoint>
          <Trackpoint>
            <Time>2022-07-06T09:42:30.000Z</Time>
            <Position>
              <LatitudeDegrees>44.0688537061214447021484375</LatitudeDegrees>
              <LongitudeDegrees>-1.22970926575362682342529296875</LongitudeDegrees>
            </Position>
            <AltitudeMeters>18</AltitudeMeters>
            <DistanceMeters>NAN</DistanceMeters>
          </Trackpoint>
          <Trackpoint>
            <Time>2022-07-06T09:42:37.000Z</Time>
            <Position>
              <LatitudeDegrees>44.06898354180157184600830078125</LatitudeDegrees>
              <LongitudeDegrees>-1.22977648861706256866455078125</LongitudeDegrees>
            </Position>
            <AltitudeMeters>17.6000003814697265625</AltitudeMeters>
            <DistanceMeters>NAN</DistanceMeters>
          </Trackpoint>
          <Trackpoint>
            <Time>2022-07-06T09:42:39.000Z</Time>
            <Position>
              <LatitudeDegrees>44.06898354180157184600830078125</LatitudeDegrees>
              <LongitudeDegrees>-1.22977648861706256866455078125</LongitudeDegrees>
            </Position>
            <AltitudeMeters>17.3999996185302734375</AltitudeMeters>
            <DistanceMeters>NAN</DistanceMeters>
          </Trackpoint>
          <Trackpoint>
            <Time>2022-07-06T09:42:48.000Z</Time>
            <Position>
              <LatitudeDegrees>44.069014303386211395263671875</LatitudeDegrees>
              <LongitudeDegrees>-1.22978554107248783111572265625</LongitudeDegrees>
            </Position>
            <AltitudeMeters>17.3999996185302734375</AltitudeMeters>
            <DistanceMeters>NAN</DistanceMeters>
          </Trackpoint>
          <Trackpoint>
            <Time>2022-07-06T09:42:49.000Z</Time>
            <Position>
              <LatitudeDegrees>44.06903115101158618927001953125</LatitudeDegrees>
              <LongitudeDegrees>-1.2297866307199001312255859375</LongitudeDegrees>
            </Position>
            <AltitudeMeters>17.3999996185302734375</AltitudeMeters>
            <DistanceMeters>NAN</DistanceMeters>
          </Trackpoint>
          <Trackpoint>
            <Time>2022-07-06T09:42:51.000Z</Time>
            <Position>
              <LatitudeDegrees>44.06906895339488983154296875</LatitudeDegrees>
              <LongitudeDegrees>-1.2297779135406017303466796875</LongitudeDegrees>
            </Position>
            <AltitudeMeters>17.3999996185302734375</AltitudeMeters>
            <DistanceMeters>NAN</DistanceMeters>
          </Trackpoint>
          <Trackpoint>
            <Time>2022-07-06T09:42:55.000Z</Time>
            <Position>
              <LatitudeDegrees>44.0691415406763553619384765625</LatitudeDegrees>
              <LongitudeDegrees>-1.2297440506517887115478515625</LongitudeDegrees>
            </Position>
            <AltitudeMeters>17.6000003814697265625</AltitudeMeters>
            <DistanceMeters>NAN</DistanceMeters>
          </Trackpoint>
          <Trackpoint>
            <Time>2022-07-06T09:43:02.000Z</Time>
            <Position>
              <LatitudeDegrees>44.0692920796573162078857421875</LatitudeDegrees>
              <LongitudeDegrees>-1.22981789521872997283935546875</LongitudeDegrees>
            </Position>
            <AltitudeMeters>17.799999237060546875</AltitudeMeters>
            <DistanceMeters>NAN</DistanceMeters>
          </Trackpoint>
          <Trackpoint>
            <Time>2022-07-06T09:43:09.000Z</Time>
            <Position>
              <LatitudeDegrees>44.06950204633176326751708984375</LatitudeDegrees>
              <LongitudeDegrees>-1.22993658296763896942138671875</LongitudeDegrees>
            </Position>
            <AltitudeMeters>17.799999237060546875</AltitudeMeters>
            <DistanceMeters>NAN</DistanceMeters>
          </Trackpoint>
          <Trackpoint>
            <Time>2022-07-06T09:43:18.000Z</Time>
            <Position>
              <LatitudeDegrees>44.06980362720787525177001953125</LatitudeDegrees>
              <LongitudeDegrees>-1.230103634297847747802734375</LongitudeDegrees>
            </Position>
            <AltitudeMeters>17.799999237060546875</AltitudeMeters>
            <DistanceMeters>NAN</DistanceMeters>
          </Trackpoint>
          <Trackpoint>
            <Time>2022-07-06T09:43:20.000Z</Time>
            <Position>
              <LatitudeDegrees>44.06983849592506885528564453125</LatitudeDegrees>
              <LongitudeDegrees>-1.23014898039400577545166015625</LongitudeDegrees>
            </Position>
            <AltitudeMeters>17.6000003814697265625</AltitudeMeters>
            <DistanceMeters>NAN</DistanceMeters>
          </Trackpoint>
          <Trackpoint>
            <Time>2022-07-06T09:43:21.000Z</Time>
            <Position>
              <LatitudeDegrees>44.06984168104827404022216796875</LatitudeDegrees>
              <LongitudeDegrees>-1.23018552549183368682861328125</LongitudeDegrees>
            </Position>
            <AltitudeMeters>17.6000003814697265625</AltitudeMeters>
            <DistanceMeters>NAN</DistanceMeters>
          </Trackpoint>
          <Trackpoint>
            <Time>2022-07-06T09:43:26.000Z</Time>
            <Position>
              <LatitudeDegrees>44.0697842650115489959716796875</LatitudeDegrees>
              <LongitudeDegrees>-1.23041334562003612518310546875</LongitudeDegrees>
            </Position>
            <AltitudeMeters>17.6000003814697265625</AltitudeMeters>
            <DistanceMeters>NAN</DistanceMeters>
          </Trackpoint>
          <Trackpoint>
            <Time>2022-07-06T09:43:35.000Z</Time>
            <Position>
              <LatitudeDegrees>44.069645293056964874267578125</LatitudeDegrees>
              <LongitudeDegrees>-1.2308427505195140838623046875</LongitudeDegrees>
            </Position>
            <AltitudeMeters>17.6000003814697265625</AltitudeMeters>
            <DistanceMeters>NAN</DistanceMeters>
          </Trackpoint>
          <Trackpoint>
            <Time>2022-07-06T09:43:41.000Z</Time>
            <Position>
              <LatitudeDegrees>44.06957446597516536712646484375</LatitudeDegrees>
              <LongitudeDegrees>-1.23111139051616191864013671875</LongitudeDegrees>
            </Position>
            <AltitudeMeters>17.200000762939453125</AltitudeMeters>
            <DistanceMeters>NAN</DistanceMeters>
          </Trackpoint>
          <Trackpoint>
            <Time>2022-07-06T09:43:43.000Z</Time>
            <Position>
              <LatitudeDegrees>44.06955736689269542694091796875</LatitudeDegrees>
              <LongitudeDegrees>-1.23115195892751216888427734375</LongitudeDegrees>
            </Position>
            <AltitudeMeters>17</AltitudeMeters>
            <DistanceMeters>NAN</DistanceMeters>
          </Trackpoint>
          <Trackpoint>
            <Time>2022-07-06T09:43:44.000Z</Time>
            <Position>
              <LatitudeDegrees>44.06954077072441577911376953125</LatitudeDegrees>
              <LongitudeDegrees>-1.2311666272580623626708984375</LongitudeDegrees>
            </Position>
            <AltitudeMeters>16.799999237060546875</AltitudeMeters>
            <DistanceMeters>NAN</DistanceMeters>
          </Trackpoint>
          <Trackpoint>
            <Time>2022-07-06T09:43:46.000Z</Time>
            <Position>
              <LatitudeDegrees>44.069507829844951629638671875</LatitudeDegrees>
              <LongitudeDegrees>-1.23118347488343715667724609375</LongitudeDegrees>
            </Position>
            <AltitudeMeters>16.799999237060546875</AltitudeMeters>
            <DistanceMeters>NAN</DistanceMeters>
          </Trackpoint>
          <Trackpoint>
            <Time>2022-07-06T09:43:49.000Z</Time>
            <Position>
              <LatitudeDegrees>44.06950204633176326751708984375</LatitudeDegrees>
              <LongitudeDegrees>-1.23118850402534008026123046875</LongitudeDegrees>
            </Position>
            <AltitudeMeters>16.6000003814697265625</AltitudeMeters>
            <DistanceMeters>NAN</DistanceMeters>
          </Trackpoint>
          <Trackpoint>
            <Time>2022-07-06T09:44:18.000Z</Time>
            <Position>
              <LatitudeDegrees>44.0695569477975368499755859375</LatitudeDegrees>
              <LongitudeDegrees>-1.23109647072851657867431640625</LongitudeDegrees>
            </Position>
            <AltitudeMeters>16.3999996185302734375</AltitudeMeters>
            <DistanceMeters>NAN</DistanceMeters>
          </Trackpoint>
          <Trackpoint>
            <Time>2022-07-06T09:44:19.000Z</Time>
            <Position>
              <LatitudeDegrees>44.06956650316715240478515625</LatitudeDegrees>
              <LongitudeDegrees>-1.23105556704103946685791015625</LongitudeDegrees>
            </Position>
            <AltitudeMeters>16.6000003814697265625</AltitudeMeters>
            <DistanceMeters>NAN</DistanceMeters>
          </Trackpoint>
          <Trackpoint>
            <Time>2022-07-06T09:44:23.000Z</Time>
            <Position>
              <LatitudeDegrees>44.06961872242391109466552734375</LatitudeDegrees>
              <LongitudeDegrees>-1.23087317682802677154541015625</LongitudeDegrees>
            </Position>
            <AltitudeMeters>16.6000003814697265625</AltitudeMeters>
            <DistanceMeters>NAN</DistanceMeters>
          </Trackpoint>
          <Trackpoint>
            <Time>2022-07-06T09:44:30.000Z</Time>
            <Position>
              <LatitudeDegrees>44.069714359939098358154296875</LatitudeDegrees>
              <LongitudeDegrees>-1.2305114977061748504638671875</LongitudeDegrees>
            </Position>
            <AltitudeMeters>16.6000003814697265625</AltitudeMeters>
            <DistanceMeters>NAN</DistanceMeters>
          </Trackpoint>
          <Trackpoint>
            <Time>2022-07-06T09:44:33.000Z</Time>
            <Position>
              <LatitudeDegrees>44.06975559890270233154296875</LatitudeDegrees>
              <LongitudeDegrees>-1.2303713522851467132568359375</LongitudeDegrees>
            </Position>
            <AltitudeMeters>16.799999237060546875</AltitudeMeters>
            <DistanceMeters>NAN</DistanceMeters>
          </Trackpoint>
          <Trackpoint>
            <Time>2022-07-06T09:44:38.000Z</Time>
            <Position>
              <LatitudeDegrees>44.06982391141355037689208984375</LatitudeDegrees>
              <LongitudeDegrees>-1.2301664985716342926025390625</LongitudeDegrees>
            </Position>
            <AltitudeMeters>16.6000003814697265625</AltitudeMeters>
            <DistanceMeters>NAN</DistanceMeters>
          </Trackpoint>
          <Trackpoint>
            <Time>2022-07-06T09:44:39.000Z</Time>
            <Position>
              <LatitudeDegrees>44.06983698718249797821044921875</LatitudeDegrees>
              <LongitudeDegrees>-1.23014043085277080535888671875</LongitudeDegrees>
            </Position>
            <AltitudeMeters>16.6000003814697265625</AltitudeMeters>
            <DistanceMeters>NAN</DistanceMeters>
          </Trackpoint>
          <Trackpoint>
            <Time>2022-07-06T09:44:43.000Z</Time>
            <Position>
              <LatitudeDegrees>44.0698526613414287567138671875</LatitudeDegrees>
              <LongitudeDegrees>-1.23011863790452480316162109375</LongitudeDegrees>
            </Position>
            <AltitudeMeters>16.3999996185302734375</AltitudeMeters>
            <DistanceMeters>NAN</DistanceMeters>
          </Trackpoint>
          <Trackpoint>
            <Time>2022-07-06T09:44:45.000Z</Time>
            <Position>
              <LatitudeDegrees>44.06986682675778865814208984375</LatitudeDegrees>
              <LongitudeDegrees>-1.2301235832273960113525390625</LongitudeDegrees>
            </Position>
            <AltitudeMeters>16.3999996185302734375</AltitudeMeters>
            <DistanceMeters>NAN</DistanceMeters>
          </Trackpoint>
          <Trackpoint>
            <Time>2022-07-06T09:44:46.000Z</Time>
            <Position>
              <LatitudeDegrees>44.06988241709768772125244140625</LatitudeDegrees>
              <LongitudeDegrees>-1.23013682663440704345703125</LongitudeDegrees>
            </Position>
            <AltitudeMeters>16.3999996185302734375</AltitudeMeters>
            <DistanceMeters>NAN</DistanceMeters>
          </Trackpoint>
          <Trackpoint>
            <Time>2022-07-06T09:44:48.000Z</Time>
            <Position>
              <LatitudeDegrees>44.06993304379284381866455078125</LatitudeDegrees>
              <LongitudeDegrees>-1.2301852740347385406494140625</LongitudeDegrees>
            </Position>
            <AltitudeMeters>16.3999996185302734375</AltitudeMeters>
            <DistanceMeters>NAN</DistanceMeters>
          </Trackpoint>
          <Trackpoint>
            <Time>2022-07-06T09:44:51.000Z</Time>
            <Position>
              <LatitudeDegrees>44.07002625055611133575439453125</LatitudeDegrees>
              <LongitudeDegrees>-1.23023598454892635345458984375</LongitudeDegrees>
            </Position>
            <AltitudeMeters>16.799999237060546875</AltitudeMeters>
            <DistanceMeters>NAN</DistanceMeters>
          </Trackpoint>
          <Trackpoint>
            <Time>2022-07-06T09:44:54.000Z</Time>
            <Position>
              <LatitudeDegrees>44.070118032395839691162109375</LatitudeDegrees>
              <LongitudeDegrees>-1.230290047824382781982421875</LongitudeDegrees>
            </Position>
            <AltitudeMeters>17</AltitudeMeters>
            <DistanceMeters>NAN</DistanceMeters>
          </Trackpoint>
          <Trackpoint>
            <Time>2022-07-06T09:44:56.000Z</Time>
            <Position>
              <LatitudeDegrees>44.0701859258115291595458984375</LatitudeDegrees>
              <LongitudeDegrees>-1.23032952658832073211669921875</LongitudeDegrees>
            </Position>
            <AltitudeMeters>17.200000762939453125</AltitudeMeters>
            <DistanceMeters>NAN</DistanceMeters>
          </Trackpoint>
          <Trackpoint>
            <Time>2022-07-06T09:45:01.000Z</Time>
            <Position>
              <LatitudeDegrees>44.0703562460839748382568359375</LatitudeDegrees>
              <LongitudeDegrees>-1.2304273433983325958251953125</LongitudeDegrees>
            </Position>
            <AltitudeMeters>17.200000762939453125</AltitudeMeters>
            <DistanceMeters>NAN</DistanceMeters>
          </Trackpoint>
          <Trackpoint>
            <Time>2022-07-06T09:45:05.000Z</Time>
            <Position>
              <LatitudeDegrees>44.0704742632806301116943359375</LatitudeDegrees>
              <LongitudeDegrees>-1.23046983964741230010986328125</LongitudeDegrees>
            </Position>
            <AltitudeMeters>17</AltitudeMeters>
            <DistanceMeters>NAN</DistanceMeters>
          </Trackpoint>
          <Trackpoint>
            <Time>2022-07-06T09:45:06.000Z</Time>
            <Position>
              <LatitudeDegrees>44.070499576628208160400390625</LatitudeDegrees>
              <LongitudeDegrees>-1.23044871725142002105712890625</LongitudeDegrees>
            </Position>
            <AltitudeMeters>17</AltitudeMeters>
            <DistanceMeters>NAN</DistanceMeters>
          </Trackpoint>
          <Trackpoint>
            <Time>2022-07-06T09:45:07.000Z</Time>
            <Position>
              <LatitudeDegrees>44.07050871290266513824462890625</LatitudeDegrees>
              <LongitudeDegrees>-1.23041845858097076416015625</LongitudeDegrees>
            </Position>
            <AltitudeMeters>17</AltitudeMeters>
            <DistanceMeters>NAN</DistanceMeters>
          </Trackpoint>
          <Trackpoint>
            <Time>2022-07-06T09:45:09.000Z</Time>
            <Position>
              <LatitudeDegrees>44.07051860354840755462646484375</LatitudeDegrees>
              <LongitudeDegrees>-1.23034578748047351837158203125</LongitudeDegrees>
            </Position>
            <AltitudeMeters>16.6000003814697265625</AltitudeMeters>
            <DistanceMeters>NAN</DistanceMeters>
          </Trackpoint>
          <Trackpoint>
            <Time>2022-07-06T09:45:10.000Z</Time>
            <Position>
              <LatitudeDegrees>44.07052430324256420135498046875</LatitudeDegrees>
              <LongitudeDegrees>-1.230314858257770538330078125</LongitudeDegrees>
            </Position>
            <AltitudeMeters>16.6000003814697265625</AltitudeMeters>
            <DistanceMeters>NAN</DistanceMeters>
          </Trackpoint>
          <Trackpoint>
            <Time>2022-07-06T09:45:15.000Z</Time>
            <Position>
              <LatitudeDegrees>44.07056369818747043609619140625</LatitudeDegrees>
              <LongitudeDegrees>-1.2301923148334026336669921875</LongitudeDegrees>
            </Position>
            <AltitudeMeters>16.200000762939453125</AltitudeMeters>
            <DistanceMeters>NAN</DistanceMeters>
          </Trackpoint>
          <Trackpoint>
            <Time>2022-07-06T09:45:17.000Z</Time>
            <Position>
              <LatitudeDegrees>44.0705781988799571990966796875</LatitudeDegrees>
              <LongitudeDegrees>-1.2301745451986789703369140625</LongitudeDegrees>
            </Position>
            <AltitudeMeters>16.200000762939453125</AltitudeMeters>
            <DistanceMeters>NAN</DistanceMeters>
          </Trackpoint>
          <Trackpoint>
            <Time>2022-07-06T09:45:19.000Z</Time>
            <Position>
              <LatitudeDegrees>44.07060879282653331756591796875</LatitudeDegrees>
              <LongitudeDegrees>-1.23013657517731189727783203125</LongitudeDegrees>
            </Position>
            <AltitudeMeters>16.200000762939453125</AltitudeMeters>
            <DistanceMeters>NAN</DistanceMeters>
          </Trackpoint>
          <Trackpoint>
            <Time>2022-07-06T09:45:20.000Z</Time>
            <Position>
              <LatitudeDegrees>44.07062103040516376495361328125</LatitudeDegrees>
              <LongitudeDegrees>-1.2301078252494335174560546875</LongitudeDegrees>
            </Position>
            <AltitudeMeters>16.200000762939453125</AltitudeMeters>
            <DistanceMeters>NAN</DistanceMeters>
          </Trackpoint>
          <Trackpoint>
            <Time>2022-07-06T09:45:28.000Z</Time>
            <Position>
              <LatitudeDegrees>44.07065120525658130645751953125</LatitudeDegrees>
              <LongitudeDegrees>-1.22986382804811000823974609375</LongitudeDegrees>
            </Position>
            <AltitudeMeters>16.3999996185302734375</AltitudeMeters>
            <DistanceMeters>NAN</DistanceMeters>
          </Trackpoint>
          <Trackpoint>
            <Time>2022-07-06T09:45:34.000Z</Time>
            <Position>
              <LatitudeDegrees>44.07065237872302532196044921875</LatitudeDegrees>
              <LongitudeDegrees>-1.22974120080471038818359375</LongitudeDegrees>
            </Position>
            <AltitudeMeters>16</AltitudeMeters>
            <DistanceMeters>NAN</DistanceMeters>
          </Trackpoint>
          <Trackpoint>
            <Time>2022-07-06T09:45:39.000Z</Time>
            <Position>
              <LatitudeDegrees>44.07066092826426029205322265625</LatitudeDegrees>
              <LongitudeDegrees>-1.22972502373158931732177734375</LongitudeDegrees>
            </Position>
            <AltitudeMeters>16</AltitudeMeters>
            <DistanceMeters>NAN</DistanceMeters>
          </Trackpoint>
          <Trackpoint>
            <Time>2022-07-06T09:45:40.000Z</Time>
            <Position>
              <LatitudeDegrees>44.07066713087260723114013671875</LatitudeDegrees>
              <LongitudeDegrees>-1.22972703538835048675537109375</LongitudeDegrees>
            </Position>
            <AltitudeMeters>16</AltitudeMeters>
            <DistanceMeters>NAN</DistanceMeters>
          </Trackpoint>
          <Trackpoint>
            <Time>2022-07-06T09:45:42.000Z</Time>
            <Position>
              <LatitudeDegrees>44.07067383639514446258544921875</LatitudeDegrees>
              <LongitudeDegrees>-1.229743547737598419189453125</LongitudeDegrees>
            </Position>
            <AltitudeMeters>16</AltitudeMeters>
            <DistanceMeters>NAN</DistanceMeters>
          </Trackpoint>
          <Trackpoint>
            <Time>2022-07-06T09:45:45.000Z</Time>
            <Position>
              <LatitudeDegrees>44.07067635096609592437744140625</LatitudeDegrees>
              <LongitudeDegrees>-1.22974614612758159637451171875</LongitudeDegrees>
            </Position>
            <AltitudeMeters>16</AltitudeMeters>
            <DistanceMeters>NAN</DistanceMeters>
          </Trackpoint>
          <Trackpoint>
            <Time>2022-07-06T09:45:57.000Z</Time>
            <Position>
              <LatitudeDegrees>44.0707341022789478302001953125</LatitudeDegrees>
              <LongitudeDegrees>-1.22979442588984966278076171875</LongitudeDegrees>
            </Position>
            <AltitudeMeters>15.80000019073486328125</AltitudeMeters>
            <DistanceMeters>NAN</DistanceMeters>
          </Trackpoint>
          <Trackpoint>
            <Time>2022-07-06T09:45:59.000Z</Time>
            <Position>
              <LatitudeDegrees>44.07076536677777767181396484375</LatitudeDegrees>
              <LongitudeDegrees>-1.229805238544940948486328125</LongitudeDegrees>
            </Position>
            <AltitudeMeters>15.80000019073486328125</AltitudeMeters>
            <DistanceMeters>NAN</DistanceMeters>
          </Trackpoint>
          <Trackpoint>
            <Time>2022-07-06T09:46:01.000Z</Time>
            <Position>
              <LatitudeDegrees>44.07080006785690784454345703125</LatitudeDegrees>
              <LongitudeDegrees>-1.22981554828584194183349609375</LongitudeDegrees>
            </Position>
            <AltitudeMeters>15.80000019073486328125</AltitudeMeters>
            <DistanceMeters>NAN</DistanceMeters>
          </Trackpoint>
          <Trackpoint>
            <Time>2022-07-06T09:46:02.000Z</Time>
            <Position>
              <LatitudeDegrees>44.07082772813737392425537109375</LatitudeDegrees>
              <LongitudeDegrees>-1.2298033945262432098388671875</LongitudeDegrees>
            </Position>
            <AltitudeMeters>15.80000019073486328125</AltitudeMeters>
            <DistanceMeters>NAN</DistanceMeters>
          </Trackpoint>
          <Trackpoint>
            <Time>2022-07-06T09:46:03.000Z</Time>
            <Position>
              <LatitudeDegrees>44.070847593247890472412109375</LatitudeDegrees>
              <LongitudeDegrees>-1.22980448417365550994873046875</LongitudeDegrees>
            </Position>
            <AltitudeMeters>15.6000003814697265625</AltitudeMeters>
            <DistanceMeters>NAN</DistanceMeters>
          </Trackpoint>
          <Trackpoint>
            <Time>2022-07-06T09:46:06.000Z</Time>
            <Position>
              <LatitudeDegrees>44.0708920173346996307373046875</LatitudeDegrees>
              <LongitudeDegrees>-1.22983549721539020538330078125</LongitudeDegrees>
            </Position>
            <AltitudeMeters>15.6000003814697265625</AltitudeMeters>
            <DistanceMeters>NAN</DistanceMeters>
          </Trackpoint>
          <Trackpoint>
            <Time>2022-07-06T09:46:07.000Z</Time>
            <Position>
              <LatitudeDegrees>44.0708990581333637237548828125</LatitudeDegrees>
              <LongitudeDegrees>-1.22986684553325176239013671875</LongitudeDegrees>
            </Position>
            <AltitudeMeters>15.6000003814697265625</AltitudeMeters>
            <DistanceMeters>NAN</DistanceMeters>
          </Trackpoint>
          <Trackpoint>
            <Time>2022-07-06T09:46:11.000Z</Time>
            <Position>
              <LatitudeDegrees>44.070877097547054290771484375</LatitudeDegrees>
              <LongitudeDegrees>-1.22999022714793682098388671875</LongitudeDegrees>
            </Position>
            <AltitudeMeters>15.80000019073486328125</AltitudeMeters>
            <DistanceMeters>NAN</DistanceMeters>
          </Trackpoint>
          <Trackpoint>
            <Time>2022-07-06T09:46:16.000Z</Time>
            <Position>
              <LatitudeDegrees>44.07078959047794342041015625</LatitudeDegrees>
              <LongitudeDegrees>-1.23003465123474597930908203125</LongitudeDegrees>
            </Position>
            <AltitudeMeters>15.6000003814697265625</AltitudeMeters>
            <DistanceMeters>NAN</DistanceMeters>
          </Trackpoint>
          <Trackpoint>
            <Time>2022-07-06T09:46:21.000Z</Time>
            <Position>
              <LatitudeDegrees>44.07072429545223712921142578125</LatitudeDegrees>
              <LongitudeDegrees>-1.23003683052957057952880859375</LongitudeDegrees>
            </Position>
            <AltitudeMeters>15.3999996185302734375</AltitudeMeters>
            <DistanceMeters>NAN</DistanceMeters>
          </Trackpoint>
          <Trackpoint>
            <Time>2022-07-06T09:46:23.000Z</Time>
            <Position>
              <LatitudeDegrees>44.07072429545223712921142578125</LatitudeDegrees>
              <LongitudeDegrees>-1.23003683052957057952880859375</LongitudeDegrees>
            </Position>
            <AltitudeMeters>15.19999980926513671875</AltitudeMeters>
            <DistanceMeters>NAN</DistanceMeters>
          </Trackpoint>
          <Trackpoint>
            <Time>2022-07-06T09:52:04.000Z</Time>
            <Position>
              <LatitudeDegrees>44.07081247307360172271728515625</LatitudeDegrees>
              <LongitudeDegrees>-1.22982074506580829620361328125</LongitudeDegrees>
            </Position>
            <AltitudeMeters>16</AltitudeMeters>
            <DistanceMeters>NAN</DistanceMeters>
          </Trackpoint>
          <Trackpoint>
            <Time>2022-07-06T09:52:05.000Z</Time>
            <Position>
              <LatitudeDegrees>44.07073720358312129974365234375</LatitudeDegrees>
              <LongitudeDegrees>-1.22991277836263179779052734375</LongitudeDegrees>
            </Position>
            <AltitudeMeters>16</AltitudeMeters>
            <DistanceMeters>NAN</DistanceMeters>
          </Trackpoint>
          <Trackpoint>
            <Time>2022-07-06T09:52:13.000Z</Time>
            <Position>
              <LatitudeDegrees>44.07076151110231876373291015625</LatitudeDegrees>
              <LongitudeDegrees>-1.22994563542306423187255859375</LongitudeDegrees>
            </Position>
            <AltitudeMeters>16</AltitudeMeters>
            <DistanceMeters>NAN</DistanceMeters>
          </Trackpoint>
          <Trackpoint>
            <Time>2022-07-06T09:52:16.000Z</Time>
            <Position>
              <LatitudeDegrees>44.07076142728328704833984375</LatitudeDegrees>
              <LongitudeDegrees>-1.2299774028360843658447265625</LongitudeDegrees>
            </Position>
            <AltitudeMeters>16</AltitudeMeters>
            <DistanceMeters>NAN</DistanceMeters>
          </Trackpoint>
          <Trackpoint>
            <Time>2022-07-06T09:52:20.000Z</Time>
            <Position>
              <LatitudeDegrees>44.07073988579213619232177734375</LatitudeDegrees>
              <LongitudeDegrees>-1.230011098086833953857421875</LongitudeDegrees>
            </Position>
            <AltitudeMeters>16</AltitudeMeters>
            <DistanceMeters>NAN</DistanceMeters>
          </Trackpoint>
          <Trackpoint>
            <Time>2022-07-06T09:52:23.000Z</Time>
            <Position>
              <LatitudeDegrees>44.07073368318378925323486328125</LatitudeDegrees>
              <LongitudeDegrees>-1.23002392239868640899658203125</LongitudeDegrees>
            </Position>
            <AltitudeMeters>15.80000019073486328125</AltitudeMeters>
            <DistanceMeters>NAN</DistanceMeters>
          </Trackpoint>
          <Trackpoint>
            <Time>2022-07-06T09:55:38.000Z</Time>
            <Position>
              <LatitudeDegrees>44.070684649050235748291015625</LatitudeDegrees>
              <LongitudeDegrees>-1.23010707087814807891845703125</LongitudeDegrees>
            </Position>
            <AltitudeMeters>15.3999996185302734375</AltitudeMeters>
            <DistanceMeters>NAN</DistanceMeters>
          </Trackpoint>
          <Trackpoint>
            <Time>2022-07-06T09:55:39.000Z</Time>
            <Position>
              <LatitudeDegrees>44.07067802734673023223876953125</LatitudeDegrees>
              <LongitudeDegrees>-1.23012014664709568023681640625</LongitudeDegrees>
            </Position>
            <AltitudeMeters>15.3999996185302734375</AltitudeMeters>
            <DistanceMeters>NAN</DistanceMeters>
          </Trackpoint>
          <Trackpoint>
            <Time>2022-07-06T09:55:41.000Z</Time>
            <Position>
              <LatitudeDegrees>44.07066411338746547698974609375</LatitudeDegrees>
              <LongitudeDegrees>-1.23015015386044979095458984375</LongitudeDegrees>
            </Position>
            <AltitudeMeters>15.3999996185302734375</AltitudeMeters>
            <DistanceMeters>NAN</DistanceMeters>
          </Trackpoint>
          <Trackpoint>
            <Time>2022-07-06T09:55:43.000Z</Time>
            <Position>
              <LatitudeDegrees>44.07064517028629779815673828125</LatitudeDegrees>
              <LongitudeDegrees>-1.23018971644341945648193359375</LongitudeDegrees>
            </Position>
            <AltitudeMeters>15.19999980926513671875</AltitudeMeters>
            <DistanceMeters>NAN</DistanceMeters>
          </Trackpoint>
          <Trackpoint>
            <Time>2022-07-06T09:55:45.000Z</Time>
            <Position>
              <LatitudeDegrees>44.0706191025674343109130859375</LatitudeDegrees>
              <LongitudeDegrees>-1.2302104197442531585693359375</LongitudeDegrees>
            </Position>
            <AltitudeMeters>15.19999980926513671875</AltitudeMeters>
            <DistanceMeters>NAN</DistanceMeters>
          </Trackpoint>
          <Trackpoint>
            <Time>2022-07-06T09:55:47.000Z</Time>
            <Position>
              <LatitudeDegrees>44.07058398239314556121826171875</LatitudeDegrees>
              <LongitudeDegrees>-1.23022274114191532135009765625</LongitudeDegrees>
            </Position>
            <AltitudeMeters>15.19999980926513671875</AltitudeMeters>
            <DistanceMeters>NAN</DistanceMeters>
          </Trackpoint>
          <Trackpoint>
            <Time>2022-07-06T09:55:48.000Z</Time>
            <Position>
              <LatitudeDegrees>44.07057258300483226776123046875</LatitudeDegrees>
              <LongitudeDegrees>-1.23022089712321758270263671875</LongitudeDegrees>
            </Position>
            <AltitudeMeters>15</AltitudeMeters>
            <DistanceMeters>NAN</DistanceMeters>
          </Trackpoint>
          <Trackpoint>
            <Time>2022-07-06T09:55:51.000Z</Time>
            <Position>
              <LatitudeDegrees>44.0705460123717784881591796875</LatitudeDegrees>
              <LongitudeDegrees>-1.2302335537970066070556640625</LongitudeDegrees>
            </Position>
            <AltitudeMeters>15</AltitudeMeters>
            <DistanceMeters>NAN</DistanceMeters>
          </Trackpoint>
          <Trackpoint>
            <Time>2022-07-06T09:55:52.000Z</Time>
            <Position>
              <LatitudeDegrees>44.07053880393505096435546875</LatitudeDegrees>
              <LongitudeDegrees>-1.23024822212755680084228515625</LongitudeDegrees>
            </Position>
            <AltitudeMeters>15</AltitudeMeters>
            <DistanceMeters>NAN</DistanceMeters>
          </Trackpoint>
          <Trackpoint>
            <Time>2022-07-06T09:55:55.000Z</Time>
            <Position>
              <LatitudeDegrees>44.07052011229097843170166015625</LatitudeDegrees>
              <LongitudeDegrees>-1.23032324016094207763671875</LongitudeDegrees>
            </Position>
            <AltitudeMeters>14.80000019073486328125</AltitudeMeters>
            <DistanceMeters>NAN</DistanceMeters>
          </Trackpoint>
          <Trackpoint>
            <Time>2022-07-06T09:55:59.000Z</Time>
            <Position>
              <LatitudeDegrees>44.0704898536205291748046875</LatitudeDegrees>
              <LongitudeDegrees>-1.23040781356394290924072265625</LongitudeDegrees>
            </Position>
            <AltitudeMeters>14.80000019073486328125</AltitudeMeters>
            <DistanceMeters>NAN</DistanceMeters>
          </Trackpoint>
          <Trackpoint>
            <Time>2022-07-06T09:56:01.000Z</Time>
            <Position>
              <LatitudeDegrees>44.07047082670032978057861328125</LatitudeDegrees>
              <LongitudeDegrees>-1.2304447777569293975830078125</LongitudeDegrees>
            </Position>
            <AltitudeMeters>14.6000003814697265625</AltitudeMeters>
            <DistanceMeters>NAN</DistanceMeters>
          </Trackpoint>
          <Trackpoint>
            <Time>2022-07-06T09:56:04.000Z</Time>
            <Position>
              <LatitudeDegrees>44.07041433267295360565185546875</LatitudeDegrees>
              <LongitudeDegrees>-1.23045374639332294464111328125</LongitudeDegrees>
            </Position>
            <AltitudeMeters>14.6000003814697265625</AltitudeMeters>
            <DistanceMeters>NAN</DistanceMeters>
          </Trackpoint>
          <Trackpoint>
            <Time>2022-07-06T09:56:09.000Z</Time>
            <Position>
              <LatitudeDegrees>44.07028131186962127685546875</LatitudeDegrees>
              <LongitudeDegrees>-1.23037998564541339874267578125</LongitudeDegrees>
            </Position>
            <AltitudeMeters>14.19999980926513671875</AltitudeMeters>
            <DistanceMeters>NAN</DistanceMeters>
          </Trackpoint>
          <Trackpoint>
            <Time>2022-07-06T09:56:16.000Z</Time>
            <Position>
              <LatitudeDegrees>44.07006262801587581634521484375</LatitudeDegrees>
              <LongitudeDegrees>-1.23026498593389987945556640625</LongitudeDegrees>
            </Position>
            <AltitudeMeters>14</AltitudeMeters>
            <DistanceMeters>NAN</DistanceMeters>
          </Trackpoint>
          <Trackpoint>
            <Time>2022-07-06T09:56:17.000Z</Time>
            <Position>
              <LatitudeDegrees>44.07003111205995082855224609375</LatitudeDegrees>
              <LongitudeDegrees>-1.23024788685142993927001953125</LongitudeDegrees>
            </Position>
            <AltitudeMeters>14</AltitudeMeters>
            <DistanceMeters>NAN</DistanceMeters>
          </Trackpoint>
          <Trackpoint>
            <Time>2022-07-06T09:56:23.000Z</Time>
            <Position>
              <LatitudeDegrees>44.0698660723865032196044921875</LatitudeDegrees>
              <LongitudeDegrees>-1.23015451245009899139404296875</LongitudeDegrees>
            </Position>
            <AltitudeMeters>13.80000019073486328125</AltitudeMeters>
            <DistanceMeters>NAN</DistanceMeters>
          </Trackpoint>
          <Trackpoint>
            <Time>2022-07-06T09:56:24.000Z</Time>
            <Position>
              <LatitudeDegrees>44.06983204185962677001953125</LatitudeDegrees>
              <LongitudeDegrees>-1.23017278499901294708251953125</LongitudeDegrees>
            </Position>
            <AltitudeMeters>13.80000019073486328125</AltitudeMeters>
            <DistanceMeters>NAN</DistanceMeters>
          </Trackpoint>
          <Trackpoint>
            <Time>2022-07-06T09:56:28.000Z</Time>
            <Position>
              <LatitudeDegrees>44.06977311708033084869384765625</LatitudeDegrees>
              <LongitudeDegrees>-1.23032332397997379302978515625</LongitudeDegrees>
            </Position>
            <AltitudeMeters>13.3999996185302734375</AltitudeMeters>
            <DistanceMeters>NAN</DistanceMeters>
          </Trackpoint>
          <Trackpoint>
            <Time>2022-07-06T09:56:36.000Z</Time>
            <Position>
              <LatitudeDegrees>44.06966465525329113006591796875</LatitudeDegrees>
              <LongitudeDegrees>-1.23074032366275787353515625</LongitudeDegrees>
            </Position>
            <AltitudeMeters>13.19999980926513671875</AltitudeMeters>
            <DistanceMeters>NAN</DistanceMeters>
          </Trackpoint>
          <Trackpoint>
            <Time>2022-07-06T09:56:42.000Z</Time>
            <Position>
              <LatitudeDegrees>44.069566838443279266357421875</LatitudeDegrees>
              <LongitudeDegrees>-1.2310843169689178466796875</LongitudeDegrees>
            </Position>
            <AltitudeMeters>13.19999980926513671875</AltitudeMeters>
            <DistanceMeters>NAN</DistanceMeters>
          </Trackpoint>
          <Trackpoint>
            <Time>2022-07-06T09:56:46.000Z</Time>
            <Position>
              <LatitudeDegrees>44.06950674019753932952880859375</LatitudeDegrees>
              <LongitudeDegrees>-1.23129445128142833709716796875</LongitudeDegrees>
            </Position>
            <AltitudeMeters>13</AltitudeMeters>
            <DistanceMeters>NAN</DistanceMeters>
          </Trackpoint>
          <Trackpoint>
            <Time>2022-07-06T09:56:54.000Z</Time>
            <Position>
              <LatitudeDegrees>44.06937849707901477813720703125</LatitudeDegrees>
              <LongitudeDegrees>-1.23173349536955356597900390625</LongitudeDegrees>
            </Position>
            <AltitudeMeters>12.80000019073486328125</AltitudeMeters>
            <DistanceMeters>NAN</DistanceMeters>
          </Trackpoint>
          <Trackpoint>
            <Time>2022-07-06T09:56:59.000Z</Time>
            <Position>
              <LatitudeDegrees>44.06930155120790004730224609375</LatitudeDegrees>
              <LongitudeDegrees>-1.23200154863297939300537109375</LongitudeDegrees>
            </Position>
            <AltitudeMeters>12.80000019073486328125</AltitudeMeters>
            <DistanceMeters>NAN</DistanceMeters>
          </Trackpoint>
          <Trackpoint>
            <Time>2022-07-06T09:57:08.000Z</Time>
            <Position>
              <LatitudeDegrees>44.06914598308503627777099609375</LatitudeDegrees>
              <LongitudeDegrees>-1.23253262601792812347412109375</LongitudeDegrees>
            </Position>
            <AltitudeMeters>12.80000019073486328125</AltitudeMeters>
            <DistanceMeters>NAN</DistanceMeters>
          </Trackpoint>
          <Trackpoint>
            <Time>2022-07-06T09:57:18.000Z</Time>
            <Position>
              <LatitudeDegrees>44.0690121240913867950439453125</LatitudeDegrees>
              <LongitudeDegrees>-1.23309035785496234893798828125</LongitudeDegrees>
            </Position>
            <AltitudeMeters>13</AltitudeMeters>
            <DistanceMeters>NAN</DistanceMeters>
          </Trackpoint>
          <Trackpoint>
            <Time>2022-07-06T09:57:19.000Z</Time>
            <Position>
              <LatitudeDegrees>44.06900432892143726348876953125</LatitudeDegrees>
              <LongitudeDegrees>-1.2331497855484485626220703125</LongitudeDegrees>
            </Position>
            <AltitudeMeters>13</AltitudeMeters>
            <DistanceMeters>NAN</DistanceMeters>
          </Trackpoint>
          <Trackpoint>
            <Time>2022-07-06T09:57:23.000Z</Time>
            <Position>
              <LatitudeDegrees>44.06901874579489231109619140625</LatitudeDegrees>
              <LongitudeDegrees>-1.233396716415882110595703125</LongitudeDegrees>
            </Position>
            <AltitudeMeters>13</AltitudeMeters>
            <DistanceMeters>NAN</DistanceMeters>
          </Trackpoint>
          <Trackpoint>
            <Time>2022-07-06T09:57:30.000Z</Time>
            <Position>
              <LatitudeDegrees>44.06910524703562259674072265625</LatitudeDegrees>
              <LongitudeDegrees>-1.23384573496878147125244140625</LongitudeDegrees>
            </Position>
            <AltitudeMeters>13</AltitudeMeters>
            <DistanceMeters>NAN</DistanceMeters>
          </Trackpoint>
          <Trackpoint>
            <Time>2022-07-06T09:57:34.000Z</Time>
            <Position>
              <LatitudeDegrees>44.06914162449538707733154296875</LatitudeDegrees>
              <LongitudeDegrees>-1.23408495448529720306396484375</LongitudeDegrees>
            </Position>
            <AltitudeMeters>13</AltitudeMeters>
            <DistanceMeters>NAN</DistanceMeters>
          </Trackpoint>
          <Trackpoint>
            <Time>2022-07-06T09:57:38.000Z</Time>
            <Position>
              <LatitudeDegrees>44.0691460669040679931640625</LatitudeDegrees>
              <LongitudeDegrees>-1.23432232998311519622802734375</LongitudeDegrees>
            </Position>
            <AltitudeMeters>13</AltitudeMeters>
            <DistanceMeters>NAN</DistanceMeters>
          </Trackpoint>
          <Trackpoint>
            <Time>2022-07-06T09:57:41.000Z</Time>
            <Position>
              <LatitudeDegrees>44.06913458369672298431396484375</LatitudeDegrees>
              <LongitudeDegrees>-1.23451913706958293914794921875</LongitudeDegrees>
            </Position>
            <AltitudeMeters>13</AltitudeMeters>
            <DistanceMeters>NAN</DistanceMeters>
          </Trackpoint>
          <Trackpoint>
            <Time>2022-07-06T09:57:43.000Z</Time>
            <Position>
              <LatitudeDegrees>44.06914564780890941619873046875</LatitudeDegrees>
              <LongitudeDegrees>-1.234647296369075775146484375</LongitudeDegrees>
            </Position>
            <AltitudeMeters>13</AltitudeMeters>
            <DistanceMeters>NAN</DistanceMeters>
          </Trackpoint>
          <Trackpoint>
            <Time>2022-07-06T09:57:44.000Z</Time>
            <Position>
              <LatitudeDegrees>44.06915738247334957122802734375</LatitudeDegrees>
              <LongitudeDegrees>-1.234708316624164581298828125</LongitudeDegrees>
            </Position>
            <AltitudeMeters>13</AltitudeMeters>
            <DistanceMeters>NAN</DistanceMeters>
          </Trackpoint>
          <Trackpoint>
            <Time>2022-07-06T09:57:54.000Z</Time>
            <Position>
              <LatitudeDegrees>44.0692873857915401458740234375</LatitudeDegrees>
              <LongitudeDegrees>-1.23530167154967784881591796875</LongitudeDegrees>
            </Position>
            <AltitudeMeters>12.6000003814697265625</AltitudeMeters>
            <DistanceMeters>NAN</DistanceMeters>
          </Trackpoint>
          <Trackpoint>
            <Time>2022-07-06T09:58:04.000Z</Time>
            <Position>
              <LatitudeDegrees>44.0693748928606510162353515625</LatitudeDegrees>
              <LongitudeDegrees>-1.23591489158570766448974609375</LongitudeDegrees>
            </Position>
            <AltitudeMeters>13</AltitudeMeters>
            <DistanceMeters>NAN</DistanceMeters>
          </Trackpoint>
          <Trackpoint>
            <Time>2022-07-06T09:58:05.000Z</Time>
            <Position>
              <LatitudeDegrees>44.06938537023961544036865234375</LatitudeDegrees>
              <LongitudeDegrees>-1.235959567129611968994140625</LongitudeDegrees>
            </Position>
            <AltitudeMeters>13</AltitudeMeters>
            <DistanceMeters>NAN</DistanceMeters>
          </Trackpoint>
          <Trackpoint>
            <Time>2022-07-06T09:58:13.000Z</Time>
            <Position>
              <LatitudeDegrees>44.06948293559253215789794921875</LatitudeDegrees>
              <LongitudeDegrees>-1.23640573583543300628662109375</LongitudeDegrees>
            </Position>
            <AltitudeMeters>13.3999996185302734375</AltitudeMeters>
            <DistanceMeters>NAN</DistanceMeters>
          </Trackpoint>
          <Trackpoint>
            <Time>2022-07-06T09:58:20.000Z</Time>
            <Position>
              <LatitudeDegrees>44.069547392427921295166015625</LatitudeDegrees>
              <LongitudeDegrees>-1.23676179908215999603271484375</LongitudeDegrees>
            </Position>
            <AltitudeMeters>13.19999980926513671875</AltitudeMeters>
            <DistanceMeters>NAN</DistanceMeters>
          </Trackpoint>
          <Trackpoint>
            <Time>2022-07-06T09:58:22.000Z</Time>
            <Position>
              <LatitudeDegrees>44.06956876628100872039794921875</LatitudeDegrees>
              <LongitudeDegrees>-1.236882917582988739013671875</LongitudeDegrees>
            </Position>
            <AltitudeMeters>13.19999980926513671875</AltitudeMeters>
            <DistanceMeters>NAN</DistanceMeters>
          </Trackpoint>
          <Trackpoint>
            <Time>2022-07-06T09:58:35.000Z</Time>
            <Position>
              <LatitudeDegrees>44.0696806646883487701416015625</LatitudeDegrees>
              <LongitudeDegrees>-1.2375700660049915313720703125</LongitudeDegrees>
            </Position>
            <AltitudeMeters>13.19999980926513671875</AltitudeMeters>
            <DistanceMeters>NAN</DistanceMeters>
          </Trackpoint>
          <Trackpoint>
            <Time>2022-07-06T09:58:45.000Z</Time>
            <Position>
              <LatitudeDegrees>44.06978133134543895721435546875</LatitudeDegrees>
              <LongitudeDegrees>-1.23810843564569950103759765625</LongitudeDegrees>
            </Position>
            <AltitudeMeters>13</AltitudeMeters>
            <DistanceMeters>NAN</DistanceMeters>
          </Trackpoint>
          <Trackpoint>
            <Time>2022-07-06T09:58:53.000Z</Time>
            <Position>
              <LatitudeDegrees>44.069860540330410003662109375</LatitudeDegrees>
              <LongitudeDegrees>-1.2385326437652111053466796875</LongitudeDegrees>
            </Position>
            <AltitudeMeters>12.80000019073486328125</AltitudeMeters>
            <DistanceMeters>NAN</DistanceMeters>
          </Trackpoint>
          <Trackpoint>
            <Time>2022-07-06T09:59:01.000Z</Time>
            <Position>
              <LatitudeDegrees>44.06994402408599853515625</LatitudeDegrees>
              <LongitudeDegrees>-1.23895266093313694000244140625</LongitudeDegrees>
            </Position>
            <AltitudeMeters>12.6000003814697265625</AltitudeMeters>
            <DistanceMeters>NAN</DistanceMeters>
          </Trackpoint>
          <Trackpoint>
            <Time>2022-07-06T09:59:10.000Z</Time>
            <Position>
              <LatitudeDegrees>44.07003580592572689056396484375</LatitudeDegrees>
              <LongitudeDegrees>-1.239465214312076568603515625</LongitudeDegrees>
            </Position>
            <AltitudeMeters>12.80000019073486328125</AltitudeMeters>
            <DistanceMeters>NAN</DistanceMeters>
          </Trackpoint>
          <Trackpoint>
            <Time>2022-07-06T09:59:12.000Z</Time>
            <Position>
              <LatitudeDegrees>44.0700548328459262847900390625</LatitudeDegrees>
              <LongitudeDegrees>-1.23955632559955120086669921875</LongitudeDegrees>
            </Position>
            <AltitudeMeters>13</AltitudeMeters>
            <DistanceMeters>NAN</DistanceMeters>
          </Trackpoint>
          <Trackpoint>
            <Time>2022-07-06T09:59:17.000Z</Time>
            <Position>
              <LatitudeDegrees>44.07010453753173351287841796875</LatitudeDegrees>
              <LongitudeDegrees>-1.2398137338459491729736328125</LongitudeDegrees>
            </Position>
            <AltitudeMeters>13</AltitudeMeters>
            <DistanceMeters>NAN</DistanceMeters>
          </Trackpoint>
          <Trackpoint>
            <Time>2022-07-06T09:59:26.000Z</Time>
            <Position>
              <LatitudeDegrees>44.0701909549534320831298828125</LatitudeDegrees>
              <LongitudeDegrees>-1.24026895500719547271728515625</LongitudeDegrees>
            </Position>
            <AltitudeMeters>13.3999996185302734375</AltitudeMeters>
            <DistanceMeters>NAN</DistanceMeters>
          </Trackpoint>
          <Trackpoint>
            <Time>2022-07-06T09:59:33.000Z</Time>
            <Position>
              <LatitudeDegrees>44.070256836712360382080078125</LatitudeDegrees>
              <LongitudeDegrees>-1.24063105322420597076416015625</LongitudeDegrees>
            </Position>
            <AltitudeMeters>13.80000019073486328125</AltitudeMeters>
            <DistanceMeters>NAN</DistanceMeters>
          </Trackpoint>
          <Trackpoint>
            <Time>2022-07-06T09:59:39.000Z</Time>
            <Position>
              <LatitudeDegrees>44.07031157054007053375244140625</LatitudeDegrees>
              <LongitudeDegrees>-1.2409208156168460845947265625</LongitudeDegrees>
            </Position>
            <AltitudeMeters>14</AltitudeMeters>
            <DistanceMeters>NAN</DistanceMeters>
          </Trackpoint>
          <Trackpoint>
            <Time>2022-07-06T09:59:45.000Z</Time>
            <Position>
              <LatitudeDegrees>44.0703606046736240386962890625</LatitudeDegrees>
              <LongitudeDegrees>-1.241205297410488128662109375</LongitudeDegrees>
            </Position>
            <AltitudeMeters>14.6000003814697265625</AltitudeMeters>
            <DistanceMeters>NAN</DistanceMeters>
          </Trackpoint>
          <Trackpoint>
            <Time>2022-07-06T09:59:52.000Z</Time>
            <Position>
              <LatitudeDegrees>44.07041902653872966766357421875</LatitudeDegrees>
              <LongitudeDegrees>-1.24153898097574710845947265625</LongitudeDegrees>
            </Position>
            <AltitudeMeters>14.3999996185302734375</AltitudeMeters>
            <DistanceMeters>NAN</DistanceMeters>
          </Trackpoint>
          <Trackpoint>
            <Time>2022-07-06T09:59:55.000Z</Time>
            <Position>
              <LatitudeDegrees>44.0704461000859737396240234375</LatitudeDegrees>
              <LongitudeDegrees>-1.24171332456171512603759765625</LongitudeDegrees>
            </Position>
            <AltitudeMeters>14.3999996185302734375</AltitudeMeters>
            <DistanceMeters>NAN</DistanceMeters>
          </Trackpoint>
          <Trackpoint>
            <Time>2022-07-06T09:59:59.000Z</Time>
            <Position>
              <LatitudeDegrees>44.07048557884991168975830078125</LatitudeDegrees>
              <LongitudeDegrees>-1.24193980358541011810302734375</LongitudeDegrees>
            </Position>
            <AltitudeMeters>14.6000003814697265625</AltitudeMeters>
            <DistanceMeters>NAN</DistanceMeters>
          </Trackpoint>
          <Trackpoint>
            <Time>2022-07-06T10:00:02.000Z</Time>
            <Position>
              <LatitudeDegrees>44.07051265239715576171875</LatitudeDegrees>
              <LongitudeDegrees>-1.2420946173369884490966796875</LongitudeDegrees>
            </Position>
            <AltitudeMeters>14.6000003814697265625</AltitudeMeters>
            <DistanceMeters>NAN</DistanceMeters>
          </Trackpoint>
          <Trackpoint>
            <Time>2022-07-06T10:00:05.000Z</Time>
            <Position>
              <LatitudeDegrees>44.070530422031879425048828125</LatitudeDegrees>
              <LongitudeDegrees>-1.24227457679808139801025390625</LongitudeDegrees>
            </Position>
            <AltitudeMeters>14.19999980926513671875</AltitudeMeters>
            <DistanceMeters>NAN</DistanceMeters>
          </Trackpoint>
          <Trackpoint>
            <Time>2022-07-06T10:00:07.000Z</Time>
            <Position>
              <LatitudeDegrees>44.07056562602519989013671875</LatitudeDegrees>
              <LongitudeDegrees>-1.242361329495906829833984375</LongitudeDegrees>
            </Position>
            <AltitudeMeters>14.19999980926513671875</AltitudeMeters>
            <DistanceMeters>NAN</DistanceMeters>
          </Trackpoint>
          <Trackpoint>
            <Time>2022-07-06T10:00:09.000Z</Time>
            <Position>
              <LatitudeDegrees>44.07063578255474567413330078125</LatitudeDegrees>
              <LongitudeDegrees>-1.2424248643219470977783203125</LongitudeDegrees>
            </Position>
            <AltitudeMeters>14.19999980926513671875</AltitudeMeters>
            <DistanceMeters>NAN</DistanceMeters>
          </Trackpoint>
          <Trackpoint>
            <Time>2022-07-06T10:00:11.000Z</Time>
            <Position>
              <LatitudeDegrees>44.07068154774606227874755859375</LatitudeDegrees>
              <LongitudeDegrees>-1.24249770306050777435302734375</LongitudeDegrees>
            </Position>
            <AltitudeMeters>14.3999996185302734375</AltitudeMeters>
            <DistanceMeters>NAN</DistanceMeters>
          </Trackpoint>
          <Trackpoint>
            <Time>2022-07-06T10:00:20.000Z</Time>
            <Position>
              <LatitudeDegrees>44.07080157659947872161865234375</LatitudeDegrees>
              <LongitudeDegrees>-1.242919228971004486083984375</LongitudeDegrees>
            </Position>
            <AltitudeMeters>14.80000019073486328125</AltitudeMeters>
            <DistanceMeters>NAN</DistanceMeters>
          </Trackpoint>
          <Trackpoint>
            <Time>2022-07-06T10:00:26.000Z</Time>
            <Position>
              <LatitudeDegrees>44.07087449915707111358642578125</LatitudeDegrees>
              <LongitudeDegrees>-1.243215613067150115966796875</LongitudeDegrees>
            </Position>
            <AltitudeMeters>14.6000003814697265625</AltitudeMeters>
            <DistanceMeters>NAN</DistanceMeters>
          </Trackpoint>
          <Trackpoint>
            <Time>2022-07-06T10:00:29.000Z</Time>
            <Position>
              <LatitudeDegrees>44.07090165652334690093994140625</LatitudeDegrees>
              <LongitudeDegrees>-1.24340110458433628082275390625</LongitudeDegrees>
            </Position>
            <AltitudeMeters>15</AltitudeMeters>
            <DistanceMeters>NAN</DistanceMeters>
          </Trackpoint>
          <Trackpoint>
            <Time>2022-07-06T10:00:35.000Z</Time>
            <Position>
              <LatitudeDegrees>44.0709342621266841888427734375</LatitudeDegrees>
              <LongitudeDegrees>-1.243731267750263214111328125</LongitudeDegrees>
            </Position>
            <AltitudeMeters>15.3999996185302734375</AltitudeMeters>
            <DistanceMeters>NAN</DistanceMeters>
          </Trackpoint>
          <Trackpoint>
            <Time>2022-07-06T10:00:39.000Z</Time>
            <Position>
              <LatitudeDegrees>44.0709275566041469573974609375</LatitudeDegrees>
              <LongitudeDegrees>-1.243960596621036529541015625</LongitudeDegrees>
            </Position>
            <AltitudeMeters>14.80000019073486328125</AltitudeMeters>
            <DistanceMeters>NAN</DistanceMeters>
          </Trackpoint>
          <Trackpoint>
            <Time>2022-07-06T10:00:43.000Z</Time>
            <Position>
              <LatitudeDegrees>44.070906601846218109130859375</LatitudeDegrees>
              <LongitudeDegrees>-1.244190596044063568115234375</LongitudeDegrees>
            </Position>
            <AltitudeMeters>14.6000003814697265625</AltitudeMeters>
            <DistanceMeters>NAN</DistanceMeters>
          </Trackpoint>
          <Trackpoint>
            <Time>2022-07-06T10:00:52.000Z</Time>
            <Position>
              <LatitudeDegrees>44.07092646695673465728759765625</LatitudeDegrees>
              <LongitudeDegrees>-1.24468755908310413360595703125</LongitudeDegrees>
            </Position>
            <AltitudeMeters>15.3999996185302734375</AltitudeMeters>
            <DistanceMeters>NAN</DistanceMeters>
          </Trackpoint>
          <Trackpoint>
            <Time>2022-07-06T10:00:59.000Z</Time>
            <Position>
              <LatitudeDegrees>44.070928394794464111328125</LatitudeDegrees>
              <LongitudeDegrees>-1.2450654990971088409423828125</LongitudeDegrees>
            </Position>
            <AltitudeMeters>15.3999996185302734375</AltitudeMeters>
            <DistanceMeters>NAN</DistanceMeters>
          </Trackpoint>
          <Trackpoint>
            <Time>2022-07-06T10:01:07.000Z</Time>
            <Position>
              <LatitudeDegrees>44.070942141115665435791015625</LatitudeDegrees>
              <LongitudeDegrees>-1.24552155844867229461669921875</LongitudeDegrees>
            </Position>
            <AltitudeMeters>15.3999996185302734375</AltitudeMeters>
            <DistanceMeters>NAN</DistanceMeters>
          </Trackpoint>
          <Trackpoint>
            <Time>2022-07-06T10:01:15.000Z</Time>
            <Position>
              <LatitudeDegrees>44.07094574533402919769287109375</LatitudeDegrees>
              <LongitudeDegrees>-1.24597602523863315582275390625</LongitudeDegrees>
            </Position>
            <AltitudeMeters>15.6000003814697265625</AltitudeMeters>
            <DistanceMeters>NAN</DistanceMeters>
          </Trackpoint>
          <Trackpoint>
            <Time>2022-07-06T10:01:21.000Z</Time>
            <Position>
              <LatitudeDegrees>44.07094381749629974365234375</LatitudeDegrees>
              <LongitudeDegrees>-1.2463294900953769683837890625</LongitudeDegrees>
            </Position>
            <AltitudeMeters>15.6000003814697265625</AltitudeMeters>
            <DistanceMeters>NAN</DistanceMeters>
          </Trackpoint>
          <Trackpoint>
            <Time>2022-07-06T10:01:23.000Z</Time>
            <Position>
              <LatitudeDegrees>44.0709433145821094512939453125</LatitudeDegrees>
              <LongitudeDegrees>-1.24642445705831050872802734375</LongitudeDegrees>
            </Position>
            <AltitudeMeters>15.6000003814697265625</AltitudeMeters>
            <DistanceMeters>NAN</DistanceMeters>
          </Trackpoint>
          <Trackpoint>
            <Time>2022-07-06T10:01:33.000Z</Time>
            <Position>
              <LatitudeDegrees>44.07095781527459621429443359375</LatitudeDegrees>
              <LongitudeDegrees>-1.24697573482990264892578125</LongitudeDegrees>
            </Position>
            <AltitudeMeters>15.6000003814697265625</AltitudeMeters>
            <DistanceMeters>NAN</DistanceMeters>
          </Trackpoint>
          <Trackpoint>
            <Time>2022-07-06T10:01:37.000Z</Time>
            <Position>
              <LatitudeDegrees>44.0709516964852809906005859375</LatitudeDegrees>
              <LongitudeDegrees>-1.24719425104558467864990234375</LongitudeDegrees>
            </Position>
            <AltitudeMeters>16</AltitudeMeters>
            <DistanceMeters>NAN</DistanceMeters>
          </Trackpoint>
          <Trackpoint>
            <Time>2022-07-06T10:01:42.000Z</Time>
            <Position>
              <LatitudeDegrees>44.07091238535940647125244140625</LatitudeDegrees>
              <LongitudeDegrees>-1.247477643191814422607421875</LongitudeDegrees>
            </Position>
            <AltitudeMeters>16</AltitudeMeters>
            <DistanceMeters>NAN</DistanceMeters>
          </Trackpoint>
          <Trackpoint>
            <Time>2022-07-06T10:01:52.000Z</Time>
            <Position>
              <LatitudeDegrees>44.0708400495350360870361328125</LatitudeDegrees>
              <LongitudeDegrees>-1.24804166145622730255126953125</LongitudeDegrees>
            </Position>
            <AltitudeMeters>16</AltitudeMeters>
            <DistanceMeters>NAN</DistanceMeters>
          </Trackpoint>
          <Trackpoint>
            <Time>2022-07-06T10:01:54.000Z</Time>
            <Position>
              <LatitudeDegrees>44.0708239562809467315673828125</LatitudeDegrees>
              <LongitudeDegrees>-1.24815012328326702117919921875</LongitudeDegrees>
            </Position>
            <AltitudeMeters>16</AltitudeMeters>
            <DistanceMeters>NAN</DistanceMeters>
          </Trackpoint>
          <Trackpoint>
            <Time>2022-07-06T10:02:02.000Z</Time>
            <Position>
              <LatitudeDegrees>44.07074390910565853118896484375</LatitudeDegrees>
              <LongitudeDegrees>-1.248571984469890594482421875</LongitudeDegrees>
            </Position>
            <AltitudeMeters>16.200000762939453125</AltitudeMeters>
            <DistanceMeters>NAN</DistanceMeters>
          </Trackpoint>
          <Trackpoint>
            <Time>2022-07-06T10:02:04.000Z</Time>
            <Position>
              <LatitudeDegrees>44.07072999514639377593994140625</LatitudeDegrees>
              <LongitudeDegrees>-1.2486583180725574493408203125</LongitudeDegrees>
            </Position>
            <AltitudeMeters>16.200000762939453125</AltitudeMeters>
            <DistanceMeters>NAN</DistanceMeters>
          </Trackpoint>
          <Trackpoint>
            <Time>2022-07-06T10:02:13.000Z</Time>
            <Position>
              <LatitudeDegrees>44.0706335194408893585205078125</LatitudeDegrees>
              <LongitudeDegrees>-1.2491253577172756195068359375</LongitudeDegrees>
            </Position>
            <AltitudeMeters>16</AltitudeMeters>
            <DistanceMeters>NAN</DistanceMeters>
          </Trackpoint>
          <Trackpoint>
            <Time>2022-07-06T10:02:23.000Z</Time>
            <Position>
              <LatitudeDegrees>44.07053754664957523345947265625</LatitudeDegrees>
              <LongitudeDegrees>-1.24966691248118877410888671875</LongitudeDegrees>
            </Position>
            <AltitudeMeters>15.6000003814697265625</AltitudeMeters>
            <DistanceMeters>NAN</DistanceMeters>
          </Trackpoint>
          <Trackpoint>
            <Time>2022-07-06T10:02:26.000Z</Time>
            <Position>
              <LatitudeDegrees>44.0705302543938159942626953125</LatitudeDegrees>
              <LongitudeDegrees>-1.24983270652592182159423828125</LongitudeDegrees>
            </Position>
            <AltitudeMeters>15.80000019073486328125</AltitudeMeters>
            <DistanceMeters>NAN</DistanceMeters>
          </Trackpoint>
          <Trackpoint>
            <Time>2022-07-06T10:02:30.000Z</Time>
            <Position>
              <LatitudeDegrees>44.07053117640316486358642578125</LatitudeDegrees>
              <LongitudeDegrees>-1.2500564195215702056884765625</LongitudeDegrees>
            </Position>
            <AltitudeMeters>15.80000019073486328125</AltitudeMeters>
            <DistanceMeters>NAN</DistanceMeters>
          </Trackpoint>
          <Trackpoint>
            <Time>2022-07-06T10:02:39.000Z</Time>
            <Position>
              <LatitudeDegrees>44.07053117640316486358642578125</LatitudeDegrees>
              <LongitudeDegrees>-1.2505596689879894256591796875</LongitudeDegrees>
            </Position>
            <AltitudeMeters>15.80000019073486328125</AltitudeMeters>
            <DistanceMeters>NAN</DistanceMeters>
          </Trackpoint>
          <Trackpoint>
            <Time>2022-07-06T10:02:50.000Z</Time>
            <Position>
              <LatitudeDegrees>44.070490859448909759521484375</LatitudeDegrees>
              <LongitudeDegrees>-1.25117984600365161895751953125</LongitudeDegrees>
            </Position>
            <AltitudeMeters>15.6000003814697265625</AltitudeMeters>
            <DistanceMeters>NAN</DistanceMeters>
          </Trackpoint>
          <Trackpoint>
            <Time>2022-07-06T10:02:52.000Z</Time>
            <Position>
              <LatitudeDegrees>44.07048306427896022796630859375</LatitudeDegrees>
              <LongitudeDegrees>-1.2512788362801074981689453125</LongitudeDegrees>
            </Position>
            <AltitudeMeters>15.6000003814697265625</AltitudeMeters>
            <DistanceMeters>NAN</DistanceMeters>
          </Trackpoint>
          <Trackpoint>
            <Time>2022-07-06T10:02:58.000Z</Time>
            <Position>
              <LatitudeDegrees>44.07041450031101703643798828125</LatitudeDegrees>
              <LongitudeDegrees>-1.2515953369438648223876953125</LongitudeDegrees>
            </Position>
            <AltitudeMeters>15.80000019073486328125</AltitudeMeters>
            <DistanceMeters>NAN</DistanceMeters>
          </Trackpoint>
          <Trackpoint>
            <Time>2022-07-06T10:03:01.000Z</Time>
            <Position>
              <LatitudeDegrees>44.0703999996185302734375</LatitudeDegrees>
              <LongitudeDegrees>-1.2517616339027881622314453125</LongitudeDegrees>
            </Position>
            <AltitudeMeters>15.80000019073486328125</AltitudeMeters>
            <DistanceMeters>NAN</DistanceMeters>
          </Trackpoint>
          <Trackpoint>
            <Time>2022-07-06T10:03:04.000Z</Time>
            <Position>
              <LatitudeDegrees>44.070411734282970428466796875</LatitudeDegrees>
              <LongitudeDegrees>-1.25192415900528430938720703125</LongitudeDegrees>
            </Position>
            <AltitudeMeters>15.80000019073486328125</AltitudeMeters>
            <DistanceMeters>NAN</DistanceMeters>
          </Trackpoint>
          <Trackpoint>
            <Time>2022-07-06T10:03:07.000Z</Time>
            <Position>
              <LatitudeDegrees>44.0704290010035037994384765625</LatitudeDegrees>
              <LongitudeDegrees>-1.2520905397832393646240234375</LongitudeDegrees>
            </Position>
            <AltitudeMeters>15.80000019073486328125</AltitudeMeters>
            <DistanceMeters>NAN</DistanceMeters>
          </Trackpoint>
          <Trackpoint>
            <Time>2022-07-06T10:03:14.000Z</Time>
            <Position>
              <LatitudeDegrees>44.0704254806041717529296875</LatitudeDegrees>
              <LongitudeDegrees>-1.2524724192917346954345703125</LongitudeDegrees>
            </Position>
            <AltitudeMeters>15.80000019073486328125</AltitudeMeters>
            <DistanceMeters>NAN</DistanceMeters>
          </Trackpoint>
          <Trackpoint>
            <Time>2022-07-06T10:03:20.000Z</Time>
            <Position>
              <LatitudeDegrees>44.07039606012403964996337890625</LatitudeDegrees>
              <LongitudeDegrees>-1.25278271734714508056640625</LongitudeDegrees>
            </Position>
            <AltitudeMeters>15.3999996185302734375</AltitudeMeters>
            <DistanceMeters>NAN</DistanceMeters>
          </Trackpoint>
          <Trackpoint>
            <Time>2022-07-06T10:03:25.000Z</Time>
            <Position>
              <LatitudeDegrees>44.07038834877312183380126953125</LatitudeDegrees>
              <LongitudeDegrees>-1.25303559936583042144775390625</LongitudeDegrees>
            </Position>
            <AltitudeMeters>15.3999996185302734375</AltitudeMeters>
            <DistanceMeters>NAN</DistanceMeters>
          </Trackpoint>
          <Trackpoint>
            <Time>2022-07-06T10:03:32.000Z</Time>
            <Position>
              <LatitudeDegrees>44.070372171700000762939453125</LatitudeDegrees>
              <LongitudeDegrees>-1.2534071691334247589111328125</LongitudeDegrees>
            </Position>
            <AltitudeMeters>15.80000019073486328125</AltitudeMeters>
            <DistanceMeters>NAN</DistanceMeters>
          </Trackpoint>
          <Trackpoint>
            <Time>2022-07-06T10:03:33.000Z</Time>
            <Position>
              <LatitudeDegrees>44.07036504708230495452880859375</LatitudeDegrees>
              <LongitudeDegrees>-1.25345905311405658721923828125</LongitudeDegrees>
            </Position>
            <AltitudeMeters>15.80000019073486328125</AltitudeMeters>
            <DistanceMeters>NAN</DistanceMeters>
          </Trackpoint>
          <Trackpoint>
            <Time>2022-07-06T10:03:40.000Z</Time>
            <Position>
              <LatitudeDegrees>44.07032967545092105865478515625</LatitudeDegrees>
              <LongitudeDegrees>-1.25377907417714595794677734375</LongitudeDegrees>
            </Position>
            <AltitudeMeters>15.6000003814697265625</AltitudeMeters>
            <DistanceMeters>NAN</DistanceMeters>
          </Trackpoint>
          <Trackpoint>
            <Time>2022-07-06T10:03:41.000Z</Time>
            <Position>
              <LatitudeDegrees>44.07032632268965244293212890625</LatitudeDegrees>
              <LongitudeDegrees>-1.2538312934339046478271484375</LongitudeDegrees>
            </Position>
            <AltitudeMeters>15.6000003814697265625</AltitudeMeters>
            <DistanceMeters>NAN</DistanceMeters>
          </Trackpoint>
          <Trackpoint>
            <Time>2022-07-06T10:03:48.000Z</Time>
            <Position>
              <LatitudeDegrees>44.0703289210796356201171875</LatitudeDegrees>
              <LongitudeDegrees>-1.25416497699916362762451171875</LongitudeDegrees>
            </Position>
            <AltitudeMeters>15.6000003814697265625</AltitudeMeters>
            <DistanceMeters>NAN</DistanceMeters>
          </Trackpoint>
          <Trackpoint>
            <Time>2022-07-06T10:03:56.000Z</Time>
            <Position>
              <LatitudeDegrees>44.070289023220539093017578125</LatitudeDegrees>
              <LongitudeDegrees>-1.25458926893770694732666015625</LongitudeDegrees>
            </Position>
            <AltitudeMeters>15.3999996185302734375</AltitudeMeters>
            <DistanceMeters>NAN</DistanceMeters>
          </Trackpoint>
          <Trackpoint>
            <Time>2022-07-06T10:03:58.000Z</Time>
            <Position>
              <LatitudeDegrees>44.07027971930801868438720703125</LatitudeDegrees>
              <LongitudeDegrees>-1.25469337217509746551513671875</LongitudeDegrees>
            </Position>
            <AltitudeMeters>15.3999996185302734375</AltitudeMeters>
            <DistanceMeters>NAN</DistanceMeters>
          </Trackpoint>
          <Trackpoint>
            <Time>2022-07-06T10:04:02.000Z</Time>
            <Position>
              <LatitudeDegrees>44.0703203715384006500244140625</LatitudeDegrees>
              <LongitudeDegrees>-1.254902668297290802001953125</LongitudeDegrees>
            </Position>
            <AltitudeMeters>15.3999996185302734375</AltitudeMeters>
            <DistanceMeters>NAN</DistanceMeters>
          </Trackpoint>
          <Trackpoint>
            <Time>2022-07-06T10:04:11.000Z</Time>
            <Position>
              <LatitudeDegrees>44.0705503709614276885986328125</LatitudeDegrees>
              <LongitudeDegrees>-1.2552692927420139312744140625</LongitudeDegrees>
            </Position>
            <AltitudeMeters>15.3999996185302734375</AltitudeMeters>
            <DistanceMeters>NAN</DistanceMeters>
          </Trackpoint>
          <Trackpoint>
            <Time>2022-07-06T10:04:16.000Z</Time>
            <Position>
              <LatitudeDegrees>44.0706740878522396087646484375</LatitudeDegrees>
              <LongitudeDegrees>-1.2554466538131237030029296875</LongitudeDegrees>
            </Position>
            <AltitudeMeters>15</AltitudeMeters>
            <DistanceMeters>NAN</DistanceMeters>
          </Trackpoint>
          <Trackpoint>
            <Time>2022-07-06T10:04:20.000Z</Time>
            <Position>
              <LatitudeDegrees>44.07077810727059841156005859375</LatitudeDegrees>
              <LongitudeDegrees>-1.255589313805103302001953125</LongitudeDegrees>
            </Position>
            <AltitudeMeters>15</AltitudeMeters>
            <DistanceMeters>NAN</DistanceMeters>
          </Trackpoint>
          <Trackpoint>
            <Time>2022-07-06T10:04:26.000Z</Time>
            <Position>
              <LatitudeDegrees>44.07094121910631656646728515625</LatitudeDegrees>
              <LongitudeDegrees>-1.2558124400675296783447265625</LongitudeDegrees>
            </Position>
            <AltitudeMeters>14.80000019073486328125</AltitudeMeters>
            <DistanceMeters>NAN</DistanceMeters>
          </Trackpoint>
          <Trackpoint>
            <Time>2022-07-06T10:04:31.000Z</Time>
            <Position>
              <LatitudeDegrees>44.07108538784086704254150390625</LatitudeDegrees>
              <LongitudeDegrees>-1.2559941597282886505126953125</LongitudeDegrees>
            </Position>
            <AltitudeMeters>14.6000003814697265625</AltitudeMeters>
            <DistanceMeters>NAN</DistanceMeters>
          </Trackpoint>
          <Trackpoint>
            <Time>2022-07-06T10:04:39.000Z</Time>
            <Position>
              <LatitudeDegrees>44.07134891487658023834228515625</LatitudeDegrees>
              <LongitudeDegrees>-1.256325580179691314697265625</LongitudeDegrees>
            </Position>
            <AltitudeMeters>14.80000019073486328125</AltitudeMeters>
            <DistanceMeters>NAN</DistanceMeters>
          </Trackpoint>
          <Trackpoint>
            <Time>2022-07-06T10:04:48.000Z</Time>
            <Position>
              <LatitudeDegrees>44.0716048143804073333740234375</LatitudeDegrees>
              <LongitudeDegrees>-1.25666915439069271087646484375</LongitudeDegrees>
            </Position>
            <AltitudeMeters>15</AltitudeMeters>
            <DistanceMeters>NAN</DistanceMeters>
          </Trackpoint>
          <Trackpoint>
            <Time>2022-07-06T10:04:49.000Z</Time>
            <Position>
              <LatitudeDegrees>44.0716403536498546600341796875</LatitudeDegrees>
              <LongitudeDegrees>-1.25671508722007274627685546875</LongitudeDegrees>
            </Position>
            <AltitudeMeters>15</AltitudeMeters>
            <DistanceMeters>NAN</DistanceMeters>
          </Trackpoint>
          <Trackpoint>
            <Time>2022-07-06T10:04:58.000Z</Time>
            <Position>
              <LatitudeDegrees>44.0718908049166202545166015625</LatitudeDegrees>
              <LongitudeDegrees>-1.25707961618900299072265625</LongitudeDegrees>
            </Position>
            <AltitudeMeters>15.19999980926513671875</AltitudeMeters>
            <DistanceMeters>NAN</DistanceMeters>
          </Trackpoint>
          <Trackpoint>
            <Time>2022-07-06T10:04:59.000Z</Time>
            <Position>
              <LatitudeDegrees>44.071926511824131011962890625</LatitudeDegrees>
              <LongitudeDegrees>-1.25713057816028594970703125</LongitudeDegrees>
            </Position>
            <AltitudeMeters>15</AltitudeMeters>
            <DistanceMeters>NAN</DistanceMeters>
          </Trackpoint>
          <Trackpoint>
            <Time>2022-07-06T10:05:00.000Z</Time>
            <Position>
              <LatitudeDegrees>44.0719623863697052001953125</LatitudeDegrees>
              <LongitudeDegrees>-1.25716670416295528411865234375</LongitudeDegrees>
            </Position>
            <AltitudeMeters>15</AltitudeMeters>
            <DistanceMeters>NAN</DistanceMeters>
          </Trackpoint>
          <Trackpoint>
            <Time>2022-07-06T10:05:03.000Z</Time>
            <Position>
              <LatitudeDegrees>44.07205316238105297088623046875</LatitudeDegrees>
              <LongitudeDegrees>-1.2572601623833179473876953125</LongitudeDegrees>
            </Position>
            <AltitudeMeters>15</AltitudeMeters>
            <DistanceMeters>NAN</DistanceMeters>
          </Trackpoint>
          <Trackpoint>
            <Time>2022-07-06T10:05:04.000Z</Time>
            <Position>
              <LatitudeDegrees>44.07208375632762908935546875</LatitudeDegrees>
              <LongitudeDegrees>-1.25730223953723907470703125</LongitudeDegrees>
            </Position>
            <AltitudeMeters>15</AltitudeMeters>
            <DistanceMeters>NAN</DistanceMeters>
          </Trackpoint>
          <Trackpoint>
            <Time>2022-07-06T10:05:11.000Z</Time>
            <Position>
              <LatitudeDegrees>44.07228785566985607147216796875</LatitudeDegrees>
              <LongitudeDegrees>-1.2575917504727840423583984375</LongitudeDegrees>
            </Position>
            <AltitudeMeters>15.19999980926513671875</AltitudeMeters>
            <DistanceMeters>NAN</DistanceMeters>
          </Trackpoint>
          <Trackpoint>
            <Time>2022-07-06T10:05:17.000Z</Time>
            <Position>
              <LatitudeDegrees>44.0724460221827030181884765625</LatitudeDegrees>
              <LongitudeDegrees>-1.25779501162469387054443359375</LongitudeDegrees>
            </Position>
            <AltitudeMeters>15.6000003814697265625</AltitudeMeters>
            <DistanceMeters>NAN</DistanceMeters>
          </Trackpoint>
          <Trackpoint>
            <Time>2022-07-06T10:05:20.000Z</Time>
            <Position>
              <LatitudeDegrees>44.0725449286401271820068359375</LatitudeDegrees>
              <LongitudeDegrees>-1.25790514983236789703369140625</LongitudeDegrees>
            </Position>
            <AltitudeMeters>15.6000003814697265625</AltitudeMeters>
            <DistanceMeters>NAN</DistanceMeters>
          </Trackpoint>
          <Trackpoint>
            <Time>2022-07-06T10:05:25.000Z</Time>
            <Position>
              <LatitudeDegrees>44.072695635259151458740234375</LatitudeDegrees>
              <LongitudeDegrees>-1.25810061581432819366455078125</LongitudeDegrees>
            </Position>
            <AltitudeMeters>15.3999996185302734375</AltitudeMeters>
            <DistanceMeters>NAN</DistanceMeters>
          </Trackpoint>
          <Trackpoint>
            <Time>2022-07-06T10:05:34.000Z</Time>
            <Position>
              <LatitudeDegrees>44.0729469247162342071533203125</LatitudeDegrees>
              <LongitudeDegrees>-1.2584758736193180084228515625</LongitudeDegrees>
            </Position>
            <AltitudeMeters>16.200000762939453125</AltitudeMeters>
            <DistanceMeters>NAN</DistanceMeters>
          </Trackpoint>
          <Trackpoint>
            <Time>2022-07-06T10:05:35.000Z</Time>
            <Position>
              <LatitudeDegrees>44.072971902787685394287109375</LatitudeDegrees>
              <LongitudeDegrees>-1.2585090659558773040771484375</LongitudeDegrees>
            </Position>
            <AltitudeMeters>16.200000762939453125</AltitudeMeters>
            <DistanceMeters>NAN</DistanceMeters>
          </Trackpoint>
          <Trackpoint>
            <Time>2022-07-06T10:05:39.000Z</Time>
            <Position>
              <LatitudeDegrees>44.07309201546013355255126953125</LatitudeDegrees>
              <LongitudeDegrees>-1.25865533016622066497802734375</LongitudeDegrees>
            </Position>
            <AltitudeMeters>15.80000019073486328125</AltitudeMeters>
            <DistanceMeters>NAN</DistanceMeters>
          </Trackpoint>
          <Trackpoint>
            <Time>2022-07-06T10:05:43.000Z</Time>
            <Position>
              <LatitudeDegrees>44.073205254971981048583984375</LatitudeDegrees>
              <LongitudeDegrees>-1.2588017620146274566650390625</LongitudeDegrees>
            </Position>
            <AltitudeMeters>15.3999996185302734375</AltitudeMeters>
            <DistanceMeters>NAN</DistanceMeters>
          </Trackpoint>
          <Trackpoint>
            <Time>2022-07-06T10:05:50.000Z</Time>
            <Position>
              <LatitudeDegrees>44.07339426688849925994873046875</LatitudeDegrees>
              <LongitudeDegrees>-1.2590790353715419769287109375</LongitudeDegrees>
            </Position>
            <AltitudeMeters>15.3999996185302734375</AltitudeMeters>
            <DistanceMeters>NAN</DistanceMeters>
          </Trackpoint>
          <Trackpoint>
            <Time>2022-07-06T10:05:52.000Z</Time>
            <Position>
              <LatitudeDegrees>44.0734535269439220428466796875</LatitudeDegrees>
              <LongitudeDegrees>-1.2591672129929065704345703125</LongitudeDegrees>
            </Position>
            <AltitudeMeters>15.3999996185302734375</AltitudeMeters>
            <DistanceMeters>NAN</DistanceMeters>
          </Trackpoint>
          <Trackpoint>
            <Time>2022-07-06T10:06:03.000Z</Time>
            <Position>
              <LatitudeDegrees>44.07373599708080291748046875</LatitudeDegrees>
              <LongitudeDegrees>-1.25958320684731006622314453125</LongitudeDegrees>
            </Position>
            <AltitudeMeters>15.80000019073486328125</AltitudeMeters>
            <DistanceMeters>NAN</DistanceMeters>
          </Trackpoint>
          <Trackpoint>
            <Time>2022-07-06T10:06:10.000Z</Time>
            <Position>
              <LatitudeDegrees>44.0739095024764537811279296875</LatitudeDegrees>
              <LongitudeDegrees>-1.25985570251941680908203125</LongitudeDegrees>
            </Position>
            <AltitudeMeters>15.3999996185302734375</AltitudeMeters>
            <DistanceMeters>NAN</DistanceMeters>
          </Trackpoint>
          <Trackpoint>
            <Time>2022-07-06T10:06:13.000Z</Time>
            <Position>
              <LatitudeDegrees>44.07399323768913745880126953125</LatitudeDegrees>
              <LongitudeDegrees>-1.2599878013134002685546875</LongitudeDegrees>
            </Position>
            <AltitudeMeters>15.6000003814697265625</AltitudeMeters>
            <DistanceMeters>NAN</DistanceMeters>
          </Trackpoint>
          <Trackpoint>
            <Time>2022-07-06T10:06:21.000Z</Time>
            <Position>
              <LatitudeDegrees>44.07422390766441822052001953125</LatitudeDegrees>
              <LongitudeDegrees>-1.26032869331538677215576171875</LongitudeDegrees>
            </Position>
            <AltitudeMeters>15.3999996185302734375</AltitudeMeters>
            <DistanceMeters>NAN</DistanceMeters>
          </Trackpoint>
          <Trackpoint>
            <Time>2022-07-06T10:06:22.000Z</Time>
            <Position>
              <LatitudeDegrees>44.074255339801311492919921875</LatitudeDegrees>
              <LongitudeDegrees>-1.2603856064379215240478515625</LongitudeDegrees>
            </Position>
            <AltitudeMeters>15.3999996185302734375</AltitudeMeters>
            <DistanceMeters>NAN</DistanceMeters>
          </Trackpoint>
          <Trackpoint>
            <Time>2022-07-06T10:06:33.000Z</Time>
            <Position>
              <LatitudeDegrees>44.07455499283969402313232421875</LatitudeDegrees>
              <LongitudeDegrees>-1.26084032468497753143310546875</LongitudeDegrees>
            </Position>
            <AltitudeMeters>15.6000003814697265625</AltitudeMeters>
            <DistanceMeters>NAN</DistanceMeters>
          </Trackpoint>
          <Trackpoint>
            <Time>2022-07-06T10:06:42.000Z</Time>
            <Position>
              <LatitudeDegrees>44.07484232448041439056396484375</LatitudeDegrees>
              <LongitudeDegrees>-1.2612110562622547149658203125</LongitudeDegrees>
            </Position>
            <AltitudeMeters>15.3999996185302734375</AltitudeMeters>
            <DistanceMeters>NAN</DistanceMeters>
          </Trackpoint>
          <Trackpoint>
            <Time>2022-07-06T10:06:47.000Z</Time>
            <Position>
              <LatitudeDegrees>44.07503016293048858642578125</LatitudeDegrees>
              <LongitudeDegrees>-1.26141482032835483551025390625</LongitudeDegrees>
            </Position>
            <AltitudeMeters>15</AltitudeMeters>
            <DistanceMeters>NAN</DistanceMeters>
          </Trackpoint>
          <Trackpoint>
            <Time>2022-07-06T10:06:51.000Z</Time>
            <Position>
              <LatitudeDegrees>44.0751837193965911865234375</LatitudeDegrees>
              <LongitudeDegrees>-1.26157608814537525177001953125</LongitudeDegrees>
            </Position>
            <AltitudeMeters>15</AltitudeMeters>
            <DistanceMeters>NAN</DistanceMeters>
          </Trackpoint>
          <Trackpoint>
            <Time>2022-07-06T10:07:02.000Z</Time>
            <Position>
              <LatitudeDegrees>44.07562167383730411529541015625</LatitudeDegrees>
              <LongitudeDegrees>-1.26201814971864223480224609375</LongitudeDegrees>
            </Position>
            <AltitudeMeters>15.19999980926513671875</AltitudeMeters>
            <DistanceMeters>NAN</DistanceMeters>
          </Trackpoint>
          <Trackpoint>
            <Time>2022-07-06T10:07:08.000Z</Time>
            <Position>
              <LatitudeDegrees>44.07582535408437252044677734375</LatitudeDegrees>
              <LongitudeDegrees>-1.2622014619410037994384765625</LongitudeDegrees>
            </Position>
            <AltitudeMeters>14.80000019073486328125</AltitudeMeters>
            <DistanceMeters>NAN</DistanceMeters>
          </Trackpoint>
          <Trackpoint>
            <Time>2022-07-06T10:07:18.000Z</Time>
            <Position>
              <LatitudeDegrees>44.07617152668535709381103515625</LatitudeDegrees>
              <LongitudeDegrees>-1.26250681467354297637939453125</LongitudeDegrees>
            </Position>
            <AltitudeMeters>15.6000003814697265625</AltitudeMeters>
            <DistanceMeters>NAN</DistanceMeters>
          </Trackpoint>
          <Trackpoint>
            <Time>2022-07-06T10:07:27.000Z</Time>
            <Position>
              <LatitudeDegrees>44.0764663182199001312255859375</LatitudeDegrees>
              <LongitudeDegrees>-1.2628019414842128753662109375</LongitudeDegrees>
            </Position>
            <AltitudeMeters>15.6000003814697265625</AltitudeMeters>
            <DistanceMeters>NAN</DistanceMeters>
          </Trackpoint>
          <Trackpoint>
            <Time>2022-07-06T10:07:33.000Z</Time>
            <Position>
              <LatitudeDegrees>44.0766500495374202728271484375</LatitudeDegrees>
              <LongitudeDegrees>-1.2630148418247699737548828125</LongitudeDegrees>
            </Position>
            <AltitudeMeters>15.80000019073486328125</AltitudeMeters>
            <DistanceMeters>NAN</DistanceMeters>
          </Trackpoint>
          <Trackpoint>
            <Time>2022-07-06T10:07:38.000Z</Time>
            <Position>
              <LatitudeDegrees>44.07680201344192028045654296875</LatitudeDegrees>
              <LongitudeDegrees>-1.26320301555097103118896484375</LongitudeDegrees>
            </Position>
            <AltitudeMeters>16.200000762939453125</AltitudeMeters>
            <DistanceMeters>NAN</DistanceMeters>
          </Trackpoint>
          <Trackpoint>
            <Time>2022-07-06T10:07:46.000Z</Time>
            <Position>
              <LatitudeDegrees>44.0770183503627777099609375</LatitudeDegrees>
              <LongitudeDegrees>-1.2635056860744953155517578125</LongitudeDegrees>
            </Position>
            <AltitudeMeters>16.3999996185302734375</AltitudeMeters>
            <DistanceMeters>NAN</DistanceMeters>
          </Trackpoint>
          <Trackpoint>
            <Time>2022-07-06T10:07:47.000Z</Time>
            <Position>
              <LatitudeDegrees>44.07704408280551433563232421875</LatitudeDegrees>
              <LongitudeDegrees>-1.263543069362640380859375</LongitudeDegrees>
            </Position>
            <AltitudeMeters>16.3999996185302734375</AltitudeMeters>
            <DistanceMeters>NAN</DistanceMeters>
          </Trackpoint>
          <Trackpoint>
            <Time>2022-07-06T10:07:58.000Z</Time>
            <Position>
              <LatitudeDegrees>44.07733074389398097991943359375</LatitudeDegrees>
              <LongitudeDegrees>-1.26394162885844707489013671875</LongitudeDegrees>
            </Position>
            <AltitudeMeters>16.6000003814697265625</AltitudeMeters>
            <DistanceMeters>NAN</DistanceMeters>
          </Trackpoint>
          <Trackpoint>
            <Time>2022-07-06T10:08:06.000Z</Time>
            <Position>
              <LatitudeDegrees>44.0775435604155063629150390625</LatitudeDegrees>
              <LongitudeDegrees>-1.26424740068614482879638671875</LongitudeDegrees>
            </Position>
            <AltitudeMeters>17</AltitudeMeters>
            <DistanceMeters>NAN</DistanceMeters>
          </Trackpoint>
          <Trackpoint>
            <Time>2022-07-06T10:08:14.000Z</Time>
            <Position>
              <LatitudeDegrees>44.07775461673736572265625</LatitudeDegrees>
              <LongitudeDegrees>-1.2645500712096691131591796875</LongitudeDegrees>
            </Position>
            <AltitudeMeters>16.799999237060546875</AltitudeMeters>
            <DistanceMeters>NAN</DistanceMeters>
          </Trackpoint>
          <Trackpoint>
            <Time>2022-07-06T10:08:23.000Z</Time>
            <Position>
              <LatitudeDegrees>44.0780012123286724090576171875</LatitudeDegrees>
              <LongitudeDegrees>-1.2648990936577320098876953125</LongitudeDegrees>
            </Position>
            <AltitudeMeters>16.799999237060546875</AltitudeMeters>
            <DistanceMeters>NAN</DistanceMeters>
          </Trackpoint>
          <Trackpoint>
            <Time>2022-07-06T10:08:28.000Z</Time>
            <Position>
              <LatitudeDegrees>44.07812383957207202911376953125</LatitudeDegrees>
              <LongitudeDegrees>-1.2650979124009609222412109375</LongitudeDegrees>
            </Position>
            <AltitudeMeters>16.6000003814697265625</AltitudeMeters>
            <DistanceMeters>NAN</DistanceMeters>
          </Trackpoint>
          <Trackpoint>
            <Time>2022-07-06T10:08:33.000Z</Time>
            <Position>
              <LatitudeDegrees>44.078259207308292388916015625</LatitudeDegrees>
              <LongitudeDegrees>-1.26528047025203704833984375</LongitudeDegrees>
            </Position>
            <AltitudeMeters>16.3999996185302734375</AltitudeMeters>
            <DistanceMeters>NAN</DistanceMeters>
          </Trackpoint>
          <Trackpoint>
            <Time>2022-07-06T10:08:39.000Z</Time>
            <Position>
              <LatitudeDegrees>44.07840438187122344970703125</LatitudeDegrees>
              <LongitudeDegrees>-1.265520192682743072509765625</LongitudeDegrees>
            </Position>
            <AltitudeMeters>16.3999996185302734375</AltitudeMeters>
            <DistanceMeters>NAN</DistanceMeters>
          </Trackpoint>
          <Trackpoint>
            <Time>2022-07-06T10:08:42.000Z</Time>
            <Position>
              <LatitudeDegrees>44.07848090864717960357666015625</LatitudeDegrees>
              <LongitudeDegrees>-1.2656445801258087158203125</LongitudeDegrees>
            </Position>
            <AltitudeMeters>16.6000003814697265625</AltitudeMeters>
            <DistanceMeters>NAN</DistanceMeters>
          </Trackpoint>
          <Trackpoint>
            <Time>2022-07-06T10:08:47.000Z</Time>
            <Position>
              <LatitudeDegrees>44.07859884202480316162109375</LatitudeDegrees>
              <LongitudeDegrees>-1.2658459134399890899658203125</LongitudeDegrees>
            </Position>
            <AltitudeMeters>16.6000003814697265625</AltitudeMeters>
            <DistanceMeters>NAN</DistanceMeters>
          </Trackpoint>
          <Trackpoint>
            <Time>2022-07-06T10:08:53.000Z</Time>
            <Position>
              <LatitudeDegrees>44.07875399105250835418701171875</LatitudeDegrees>
              <LongitudeDegrees>-1.26611606217920780181884765625</LongitudeDegrees>
            </Position>
            <AltitudeMeters>16.3999996185302734375</AltitudeMeters>
            <DistanceMeters>NAN</DistanceMeters>
          </Trackpoint>
          <Trackpoint>
            <Time>2022-07-06T10:08:56.000Z</Time>
            <Position>
              <LatitudeDegrees>44.078835882246494293212890625</LatitudeDegrees>
              <LongitudeDegrees>-1.26624681986868381500244140625</LongitudeDegrees>
            </Position>
            <AltitudeMeters>16.3999996185302734375</AltitudeMeters>
            <DistanceMeters>NAN</DistanceMeters>
          </Trackpoint>
          <Trackpoint>
            <Time>2022-07-06T10:09:00.000Z</Time>
            <Position>
              <LatitudeDegrees>44.07894392497837543487548828125</LatitudeDegrees>
              <LongitudeDegrees>-1.26640222035348415374755859375</LongitudeDegrees>
            </Position>
            <AltitudeMeters>16.200000762939453125</AltitudeMeters>
            <DistanceMeters>NAN</DistanceMeters>
          </Trackpoint>
          <Trackpoint>
            <Time>2022-07-06T10:09:02.000Z</Time>
            <Position>
              <LatitudeDegrees>44.07899069599807262420654296875</LatitudeDegrees>
              <LongitudeDegrees>-1.266482770442962646484375</LongitudeDegrees>
            </Position>
            <AltitudeMeters>16.200000762939453125</AltitudeMeters>
            <DistanceMeters>NAN</DistanceMeters>
          </Trackpoint>
          <Trackpoint>
            <Time>2022-07-06T10:09:09.000Z</Time>
            <Position>
              <LatitudeDegrees>44.07916009426116943359375</LatitudeDegrees>
              <LongitudeDegrees>-1.2668219022452831268310546875</LongitudeDegrees>
            </Position>
            <AltitudeMeters>15.80000019073486328125</AltitudeMeters>
            <DistanceMeters>NAN</DistanceMeters>
          </Trackpoint>
          <Trackpoint>
            <Time>2022-07-06T10:09:18.000Z</Time>
            <Position>
              <LatitudeDegrees>44.07937626354396343231201171875</LatitudeDegrees>
              <LongitudeDegrees>-1.2672083079814910888671875</LongitudeDegrees>
            </Position>
            <AltitudeMeters>15.6000003814697265625</AltitudeMeters>
            <DistanceMeters>NAN</DistanceMeters>
          </Trackpoint>
          <Trackpoint>
            <Time>2022-07-06T10:09:25.000Z</Time>
            <Position>
              <LatitudeDegrees>44.07956435345113277435302734375</LatitudeDegrees>
              <LongitudeDegrees>-1.26751315779983997344970703125</LongitudeDegrees>
            </Position>
            <AltitudeMeters>15.6000003814697265625</AltitudeMeters>
            <DistanceMeters>NAN</DistanceMeters>
          </Trackpoint>
          <Trackpoint>
            <Time>2022-07-06T10:09:26.000Z</Time>
            <Position>
              <LatitudeDegrees>44.07958748750388622283935546875</LatitudeDegrees>
              <LongitudeDegrees>-1.26754366792738437652587890625</LongitudeDegrees>
            </Position>
            <AltitudeMeters>15.6000003814697265625</AltitudeMeters>
            <DistanceMeters>NAN</DistanceMeters>
          </Trackpoint>
          <Trackpoint>
            <Time>2022-07-06T10:09:27.000Z</Time>
            <Position>
              <LatitudeDegrees>44.0796165727078914642333984375</LatitudeDegrees>
              <LongitudeDegrees>-1.267584152519702911376953125</LongitudeDegrees>
            </Position>
            <AltitudeMeters>15.6000003814697265625</AltitudeMeters>
            <DistanceMeters>NAN</DistanceMeters>
          </Trackpoint>
          <Trackpoint>
            <Time>2022-07-06T10:09:36.000Z</Time>
            <Position>
              <LatitudeDegrees>44.07983911223709583282470703125</LatitudeDegrees>
              <LongitudeDegrees>-1.267965026199817657470703125</LongitudeDegrees>
            </Position>
            <AltitudeMeters>16.3999996185302734375</AltitudeMeters>
            <DistanceMeters>NAN</DistanceMeters>
          </Trackpoint>
          <Trackpoint>
            <Time>2022-07-06T10:09:44.000Z</Time>
            <Position>
              <LatitudeDegrees>44.079978168010711669921875</LatitudeDegrees>
              <LongitudeDegrees>-1.268223859369754791259765625</LongitudeDegrees>
            </Position>
            <AltitudeMeters>15.80000019073486328125</AltitudeMeters>
            <DistanceMeters>NAN</DistanceMeters>
          </Trackpoint>
          <Trackpoint>
            <Time>2022-07-06T10:09:54.000Z</Time>
            <Position>
              <LatitudeDegrees>44.080159552395343780517578125</LatitudeDegrees>
              <LongitudeDegrees>-1.2685458920896053314208984375</LongitudeDegrees>
            </Position>
            <AltitudeMeters>16.6000003814697265625</AltitudeMeters>
            <DistanceMeters>NAN</DistanceMeters>
          </Trackpoint>
          <Trackpoint>
            <Time>2022-07-06T10:10:01.000Z</Time>
            <Position>
              <LatitudeDegrees>44.08022685907781124114990234375</LatitudeDegrees>
              <LongitudeDegrees>-1.26882542856037616729736328125</LongitudeDegrees>
            </Position>
            <AltitudeMeters>16.3999996185302734375</AltitudeMeters>
            <DistanceMeters>NAN</DistanceMeters>
          </Trackpoint>
          <Trackpoint>
            <Time>2022-07-06T10:10:05.000Z</Time>
            <Position>
              <LatitudeDegrees>44.0802370011806488037109375</LatitudeDegrees>
              <LongitudeDegrees>-1.26898988150060176849365234375</LongitudeDegrees>
            </Position>
            <AltitudeMeters>16.6000003814697265625</AltitudeMeters>
            <DistanceMeters>NAN</DistanceMeters>
          </Trackpoint>
          <Trackpoint>
            <Time>2022-07-06T10:10:09.000Z</Time>
            <Position>
              <LatitudeDegrees>44.08023021183907985687255859375</LatitudeDegrees>
              <LongitudeDegrees>-1.2691768817603588104248046875</LongitudeDegrees>
            </Position>
            <AltitudeMeters>16.799999237060546875</AltitudeMeters>
            <DistanceMeters>NAN</DistanceMeters>
          </Trackpoint>
          <Trackpoint>
            <Time>2022-07-06T10:10:17.000Z</Time>
            <Position>
              <LatitudeDegrees>44.08019048161804676055908203125</LatitudeDegrees>
              <LongitudeDegrees>-1.2696137465536594390869140625</LongitudeDegrees>
            </Position>
            <AltitudeMeters>16.6000003814697265625</AltitudeMeters>
            <DistanceMeters>NAN</DistanceMeters>
          </Trackpoint>
          <Trackpoint>
            <Time>2022-07-06T10:10:24.000Z</Time>
            <Position>
              <LatitudeDegrees>44.08014915883541107177734375</LatitudeDegrees>
              <LongitudeDegrees>-1.2699929438531398773193359375</LongitudeDegrees>
            </Position>
            <AltitudeMeters>16.6000003814697265625</AltitudeMeters>
            <DistanceMeters>NAN</DistanceMeters>
          </Trackpoint>
          <Trackpoint>
            <Time>2022-07-06T10:10:25.000Z</Time>
            <Position>
              <LatitudeDegrees>44.08014337532222270965576171875</LatitudeDegrees>
              <LongitudeDegrees>-1.27006351947784423828125</LongitudeDegrees>
            </Position>
            <AltitudeMeters>16.6000003814697265625</AltitudeMeters>
            <DistanceMeters>NAN</DistanceMeters>
          </Trackpoint>
          <Trackpoint>
            <Time>2022-07-06T10:10:28.000Z</Time>
            <Position>
              <LatitudeDegrees>44.080130718648433685302734375</LatitudeDegrees>
              <LongitudeDegrees>-1.27021984197199344635009765625</LongitudeDegrees>
            </Position>
            <AltitudeMeters>16.3999996185302734375</AltitudeMeters>
            <DistanceMeters>NAN</DistanceMeters>
          </Trackpoint>
          <Trackpoint>
            <Time>2022-07-06T10:10:32.000Z</Time>
            <Position>
              <LatitudeDegrees>44.08011957071721553802490234375</LatitudeDegrees>
              <LongitudeDegrees>-1.27044581808149814605712890625</LongitudeDegrees>
            </Position>
            <AltitudeMeters>16.200000762939453125</AltitudeMeters>
            <DistanceMeters>NAN</DistanceMeters>
          </Trackpoint>
          <Trackpoint>
            <Time>2022-07-06T10:10:41.000Z</Time>
            <Position>
              <LatitudeDegrees>44.08012778498232364654541015625</LatitudeDegrees>
              <LongitudeDegrees>-1.2709555216133594512939453125</LongitudeDegrees>
            </Position>
            <AltitudeMeters>15.3999996185302734375</AltitudeMeters>
            <DistanceMeters>NAN</DistanceMeters>
          </Trackpoint>
          <Trackpoint>
            <Time>2022-07-06T10:10:47.000Z</Time>
            <Position>
              <LatitudeDegrees>44.0801439620554447174072265625</LatitudeDegrees>
              <LongitudeDegrees>-1.27131736837327480316162109375</LongitudeDegrees>
            </Position>
            <AltitudeMeters>16</AltitudeMeters>
            <DistanceMeters>NAN</DistanceMeters>
          </Trackpoint>
          <Trackpoint>
            <Time>2022-07-06T10:10:51.000Z</Time>
            <Position>
              <LatitudeDegrees>44.0801597200334072113037109375</LatitudeDegrees>
              <LongitudeDegrees>-1.2715452723205089569091796875</LongitudeDegrees>
            </Position>
            <AltitudeMeters>16.200000762939453125</AltitudeMeters>
            <DistanceMeters>NAN</DistanceMeters>
          </Trackpoint>
          <Trackpoint>
            <Time>2022-07-06T10:10:54.000Z</Time>
            <Position>
              <LatitudeDegrees>44.0801684372127056121826171875</LatitudeDegrees>
              <LongitudeDegrees>-1.27171911299228668212890625</LongitudeDegrees>
            </Position>
            <AltitudeMeters>16.200000762939453125</AltitudeMeters>
            <DistanceMeters>NAN</DistanceMeters>
          </Trackpoint>
          <Trackpoint>
            <Time>2022-07-06T10:11:00.000Z</Time>
            <Position>
              <LatitudeDegrees>44.0801845304667949676513671875</LatitudeDegrees>
              <LongitudeDegrees>-1.27206101082265377044677734375</LongitudeDegrees>
            </Position>
            <AltitudeMeters>16</AltitudeMeters>
            <DistanceMeters>NAN</DistanceMeters>
          </Trackpoint>
          <Trackpoint>
            <Time>2022-07-06T10:11:06.000Z</Time>
            <Position>
              <LatitudeDegrees>44.080211184918880462646484375</LatitudeDegrees>
              <LongitudeDegrees>-1.27238773740828037261962890625</LongitudeDegrees>
            </Position>
            <AltitudeMeters>16</AltitudeMeters>
            <DistanceMeters>NAN</DistanceMeters>
          </Trackpoint>
          <Trackpoint>
            <Time>2022-07-06T10:11:09.000Z</Time>
            <Position>
              <LatitudeDegrees>44.08022099174559116363525390625</LatitudeDegrees>
              <LongitudeDegrees>-1.27254447899758815765380859375</LongitudeDegrees>
            </Position>
            <AltitudeMeters>15.80000019073486328125</AltitudeMeters>
            <DistanceMeters>NAN</DistanceMeters>
          </Trackpoint>
          <Trackpoint>
            <Time>2022-07-06T10:11:12.000Z</Time>
            <Position>
              <LatitudeDegrees>44.08023239113390445709228515625</LatitudeDegrees>
              <LongitudeDegrees>-1.2727210856974124908447265625</LongitudeDegrees>
            </Position>
            <AltitudeMeters>15.6000003814697265625</AltitudeMeters>
            <DistanceMeters>NAN</DistanceMeters>
          </Trackpoint>
          <Trackpoint>
            <Time>2022-07-06T10:11:15.000Z</Time>
            <Position>
              <LatitudeDegrees>44.0802472271025180816650390625</LatitudeDegrees>
              <LongitudeDegrees>-1.2729014642536640167236328125</LongitudeDegrees>
            </Position>
            <AltitudeMeters>16.3999996185302734375</AltitudeMeters>
            <DistanceMeters>NAN</DistanceMeters>
          </Trackpoint>
          <Trackpoint>
            <Time>2022-07-06T10:11:20.000Z</Time>
            <Position>
              <LatitudeDegrees>44.0802710317075252532958984375</LatitudeDegrees>
              <LongitudeDegrees>-1.27320094965398311614990234375</LongitudeDegrees>
            </Position>
            <AltitudeMeters>16.3999996185302734375</AltitudeMeters>
            <DistanceMeters>NAN</DistanceMeters>
          </Trackpoint>
          <Trackpoint>
            <Time>2022-07-06T10:11:22.000Z</Time>
            <Position>
              <LatitudeDegrees>44.08028419129550457000732421875</LatitudeDegrees>
              <LongitudeDegrees>-1.2733239121735095977783203125</LongitudeDegrees>
            </Position>
            <AltitudeMeters>16.200000762939453125</AltitudeMeters>
            <DistanceMeters>NAN</DistanceMeters>
          </Trackpoint>
          <Trackpoint>
            <Time>2022-07-06T10:11:25.000Z</Time>
            <Position>
              <LatitudeDegrees>44.08030129037797451019287109375</LatitudeDegrees>
              <LongitudeDegrees>-1.27350068651139736175537109375</LongitudeDegrees>
            </Position>
            <AltitudeMeters>16.200000762939453125</AltitudeMeters>
            <DistanceMeters>NAN</DistanceMeters>
          </Trackpoint>
          <Trackpoint>
            <Time>2022-07-06T10:11:28.000Z</Time>
            <Position>
              <LatitudeDegrees>44.080314449965953826904296875</LatitudeDegrees>
              <LongitudeDegrees>-1.27366899512708187103271484375</LongitudeDegrees>
            </Position>
            <AltitudeMeters>16.200000762939453125</AltitudeMeters>
            <DistanceMeters>NAN</DistanceMeters>
          </Trackpoint>
          <Trackpoint>
            <Time>2022-07-06T10:11:32.000Z</Time>
            <Position>
              <LatitudeDegrees>44.0803286992013454437255859375</LatitudeDegrees>
              <LongitudeDegrees>-1.2738982401788234710693359375</LongitudeDegrees>
            </Position>
            <AltitudeMeters>16.200000762939453125</AltitudeMeters>
            <DistanceMeters>NAN</DistanceMeters>
          </Trackpoint>
          <Trackpoint>
            <Time>2022-07-06T10:11:33.000Z</Time>
            <Position>
              <LatitudeDegrees>44.08033548854291439056396484375</LatitudeDegrees>
              <LongitudeDegrees>-1.273955404758453369140625</LongitudeDegrees>
            </Position>
            <AltitudeMeters>16.200000762939453125</AltitudeMeters>
            <DistanceMeters>NAN</DistanceMeters>
          </Trackpoint>
          <Trackpoint>
            <Time>2022-07-06T10:11:35.000Z</Time>
            <Position>
              <LatitudeDegrees>44.08035099506378173828125</LatitudeDegrees>
              <LongitudeDegrees>-1.27408524043858051300048828125</LongitudeDegrees>
            </Position>
            <AltitudeMeters>16.200000762939453125</AltitudeMeters>
            <DistanceMeters>NAN</DistanceMeters>
          </Trackpoint>
          <Trackpoint>
            <Time>2022-07-06T10:11:36.000Z</Time>
            <Position>
              <LatitudeDegrees>44.08035761676728725433349609375</LatitudeDegrees>
              <LongitudeDegrees>-1.27414290793240070343017578125</LongitudeDegrees>
            </Position>
            <AltitudeMeters>16.200000762939453125</AltitudeMeters>
            <DistanceMeters>NAN</DistanceMeters>
          </Trackpoint>
          <Trackpoint>
            <Time>2022-07-06T10:11:38.000Z</Time>
            <Position>
              <LatitudeDegrees>44.080368094146251678466796875</LatitudeDegrees>
              <LongitudeDegrees>-1.27424449659883975982666015625</LongitudeDegrees>
            </Position>
            <AltitudeMeters>16.3999996185302734375</AltitudeMeters>
            <DistanceMeters>NAN</DistanceMeters>
          </Trackpoint>
          <Trackpoint>
            <Time>2022-07-06T10:11:42.000Z</Time>
            <Position>
              <LatitudeDegrees>44.0804006159305572509765625</LatitudeDegrees>
              <LongitudeDegrees>-1.274472065269947052001953125</LongitudeDegrees>
            </Position>
            <AltitudeMeters>16.3999996185302734375</AltitudeMeters>
            <DistanceMeters>NAN</DistanceMeters>
          </Trackpoint>
          <Trackpoint>
            <Time>2022-07-06T10:11:44.000Z</Time>
            <Position>
              <LatitudeDegrees>44.08041444607079029083251953125</LatitudeDegrees>
              <LongitudeDegrees>-1.27458932809531688690185546875</LongitudeDegrees>
            </Position>
            <AltitudeMeters>16.3999996185302734375</AltitudeMeters>
            <DistanceMeters>NAN</DistanceMeters>
          </Trackpoint>
          <Trackpoint>
            <Time>2022-07-06T10:11:49.000Z</Time>
            <Position>
              <LatitudeDegrees>44.08043724484741687774658203125</LatitudeDegrees>
              <LongitudeDegrees>-1.2748926691710948944091796875</LongitudeDegrees>
            </Position>
            <AltitudeMeters>16.799999237060546875</AltitudeMeters>
            <DistanceMeters>NAN</DistanceMeters>
          </Trackpoint>
          <Trackpoint>
            <Time>2022-07-06T10:11:50.000Z</Time>
            <Position>
              <LatitudeDegrees>44.08044378273189067840576171875</LatitudeDegrees>
              <LongitudeDegrees>-1.2749520130455493927001953125</LongitudeDegrees>
            </Position>
            <AltitudeMeters>17</AltitudeMeters>
            <DistanceMeters>NAN</DistanceMeters>
          </Trackpoint>
          <Trackpoint>
            <Time>2022-07-06T10:11:52.000Z</Time>
            <Position>
              <LatitudeDegrees>44.08044579438865184783935546875</LatitudeDegrees>
              <LongitudeDegrees>-1.27506273798644542694091796875</LongitudeDegrees>
            </Position>
            <AltitudeMeters>16.799999237060546875</AltitudeMeters>
            <DistanceMeters>NAN</DistanceMeters>
          </Trackpoint>
          <Trackpoint>
            <Time>2022-07-06T10:11:55.000Z</Time>
            <Position>
              <LatitudeDegrees>44.08048334531486034393310546875</LatitudeDegrees>
              <LongitudeDegrees>-1.2752654962241649627685546875</LongitudeDegrees>
            </Position>
            <AltitudeMeters>16.3999996185302734375</AltitudeMeters>
            <DistanceMeters>NAN</DistanceMeters>
          </Trackpoint>
          <Trackpoint>
            <Time>2022-07-06T10:12:05.000Z</Time>
            <Position>
              <LatitudeDegrees>44.08062064088881015777587890625</LatitudeDegrees>
              <LongitudeDegrees>-1.27582850866019725799560546875</LongitudeDegrees>
            </Position>
            <AltitudeMeters>16.6000003814697265625</AltitudeMeters>
            <DistanceMeters>NAN</DistanceMeters>
          </Trackpoint>
          <Trackpoint>
            <Time>2022-07-06T10:12:15.000Z</Time>
            <Position>
              <LatitudeDegrees>44.08072625286877155303955078125</LatitudeDegrees>
              <LongitudeDegrees>-1.2764201872050762176513671875</LongitudeDegrees>
            </Position>
            <AltitudeMeters>16.6000003814697265625</AltitudeMeters>
            <DistanceMeters>NAN</DistanceMeters>
          </Trackpoint>
          <Trackpoint>
            <Time>2022-07-06T10:12:23.000Z</Time>
            <Position>
              <LatitudeDegrees>44.080814011394977569580078125</LatitudeDegrees>
              <LongitudeDegrees>-1.27689309418201446533203125</LongitudeDegrees>
            </Position>
            <AltitudeMeters>17</AltitudeMeters>
            <DistanceMeters>NAN</DistanceMeters>
          </Trackpoint>
          <Trackpoint>
            <Time>2022-07-06T10:12:24.000Z</Time>
            <Position>
              <LatitudeDegrees>44.08081023953855037689208984375</LatitudeDegrees>
              <LongitudeDegrees>-1.27694631926715373992919921875</LongitudeDegrees>
            </Position>
            <AltitudeMeters>17</AltitudeMeters>
            <DistanceMeters>NAN</DistanceMeters>
          </Trackpoint>
          <Trackpoint>
            <Time>2022-07-06T10:12:28.000Z</Time>
            <Position>
              <LatitudeDegrees>44.08081007190048694610595703125</LatitudeDegrees>
              <LongitudeDegrees>-1.2772003747522830963134765625</LongitudeDegrees>
            </Position>
            <AltitudeMeters>17</AltitudeMeters>
            <DistanceMeters>NAN</DistanceMeters>
          </Trackpoint>
          <Trackpoint>
            <Time>2022-07-06T10:12:30.000Z</Time>
            <Position>
              <LatitudeDegrees>44.0808309428393840789794921875</LatitudeDegrees>
              <LongitudeDegrees>-1.27732895314693450927734375</LongitudeDegrees>
            </Position>
            <AltitudeMeters>17</AltitudeMeters>
            <DistanceMeters>NAN</DistanceMeters>
          </Trackpoint>
          <Trackpoint>
            <Time>2022-07-06T10:12:33.000Z</Time>
            <Position>
              <LatitudeDegrees>44.080862961709499359130859375</LatitudeDegrees>
              <LongitudeDegrees>-1.2775014527142047882080078125</LongitudeDegrees>
            </Position>
            <AltitudeMeters>16.799999237060546875</AltitudeMeters>
            <DistanceMeters>NAN</DistanceMeters>
          </Trackpoint>
          <Trackpoint>
            <Time>2022-07-06T10:12:39.000Z</Time>
            <Position>
              <LatitudeDegrees>44.08093362115323543548583984375</LatitudeDegrees>
              <LongitudeDegrees>-1.27784435637295246124267578125</LongitudeDegrees>
            </Position>
            <AltitudeMeters>16.799999237060546875</AltitudeMeters>
            <DistanceMeters>NAN</DistanceMeters>
          </Trackpoint>
          <Trackpoint>
            <Time>2022-07-06T10:12:49.000Z</Time>
            <Position>
              <LatitudeDegrees>44.08105230890214443206787109375</LatitudeDegrees>
              <LongitudeDegrees>-1.27843729220330715179443359375</LongitudeDegrees>
            </Position>
            <AltitudeMeters>16.3999996185302734375</AltitudeMeters>
            <DistanceMeters>NAN</DistanceMeters>
          </Trackpoint>
          <Trackpoint>
            <Time>2022-07-06T10:12:51.000Z</Time>
            <Position>
              <LatitudeDegrees>44.081074185669422149658203125</LatitudeDegrees>
              <LongitudeDegrees>-1.27853728830814361572265625</LongitudeDegrees>
            </Position>
            <AltitudeMeters>16.3999996185302734375</AltitudeMeters>
            <DistanceMeters>NAN</DistanceMeters>
          </Trackpoint>
          <Trackpoint>
            <Time>2022-07-06T10:13:00.000Z</Time>
            <Position>
              <LatitudeDegrees>44.08117267303168773651123046875</LatitudeDegrees>
              <LongitudeDegrees>-1.27900508232414722442626953125</LongitudeDegrees>
            </Position>
            <AltitudeMeters>16.799999237060546875</AltitudeMeters>
            <DistanceMeters>NAN</DistanceMeters>
          </Trackpoint>
          <Trackpoint>
            <Time>2022-07-06T10:13:07.000Z</Time>
            <Position>
              <LatitudeDegrees>44.0812527202069759368896484375</LatitudeDegrees>
              <LongitudeDegrees>-1.2793426215648651123046875</LongitudeDegrees>
            </Position>
            <AltitudeMeters>16.799999237060546875</AltitudeMeters>
            <DistanceMeters>NAN</DistanceMeters>
          </Trackpoint>
          <Trackpoint>
            <Time>2022-07-06T10:13:13.000Z</Time>
            <Position>
              <LatitudeDegrees>44.08130963332951068878173828125</LatitudeDegrees>
              <LongitudeDegrees>-1.27965585328638553619384765625</LongitudeDegrees>
            </Position>
            <AltitudeMeters>17</AltitudeMeters>
            <DistanceMeters>NAN</DistanceMeters>
          </Trackpoint>
          <Trackpoint>
            <Time>2022-07-06T10:13:15.000Z</Time>
            <Position>
              <LatitudeDegrees>44.08133494667708873748779296875</LatitudeDegrees>
              <LongitudeDegrees>-1.27975308336317539215087890625</LongitudeDegrees>
            </Position>
            <AltitudeMeters>17.200000762939453125</AltitudeMeters>
            <DistanceMeters>NAN</DistanceMeters>
          </Trackpoint>
          <Trackpoint>
            <Time>2022-07-06T10:13:21.000Z</Time>
            <Position>
              <LatitudeDegrees>44.081406109035015106201171875</LatitudeDegrees>
              <LongitudeDegrees>-1.28005617298185825347900390625</LongitudeDegrees>
            </Position>
            <AltitudeMeters>17.6000003814697265625</AltitudeMeters>
            <DistanceMeters>NAN</DistanceMeters>
          </Trackpoint>
          <Trackpoint>
            <Time>2022-07-06T10:13:30.000Z</Time>
            <Position>
              <LatitudeDegrees>44.08154533244669437408447265625</LatitudeDegrees>
              <LongitudeDegrees>-1.280529499053955078125</LongitudeDegrees>
            </Position>
            <AltitudeMeters>17.6000003814697265625</AltitudeMeters>
            <DistanceMeters>NAN</DistanceMeters>
          </Trackpoint>
          <Trackpoint>
            <Time>2022-07-06T10:13:33.000Z</Time>
            <Position>
              <LatitudeDegrees>44.0815973840653896331787109375</LatitudeDegrees>
              <LongitudeDegrees>-1.28069906495511531829833984375</LongitudeDegrees>
            </Position>
            <AltitudeMeters>17.6000003814697265625</AltitudeMeters>
            <DistanceMeters>NAN</DistanceMeters>
          </Trackpoint>
          <Trackpoint>
            <Time>2022-07-06T10:13:38.000Z</Time>
            <Position>
              <LatitudeDegrees>44.08167122863233089447021484375</LatitudeDegrees>
              <LongitudeDegrees>-1.28101992420852184295654296875</LongitudeDegrees>
            </Position>
            <AltitudeMeters>17.799999237060546875</AltitudeMeters>
            <DistanceMeters>NAN</DistanceMeters>
          </Trackpoint>
          <Trackpoint>
            <Time>2022-07-06T10:13:43.000Z</Time>
            <Position>
              <LatitudeDegrees>44.081728644669055938720703125</LatitudeDegrees>
              <LongitudeDegrees>-1.2813569605350494384765625</LongitudeDegrees>
            </Position>
            <AltitudeMeters>18</AltitudeMeters>
            <DistanceMeters>NAN</DistanceMeters>
          </Trackpoint>
          <Trackpoint>
            <Time>2022-07-06T10:13:44.000Z</Time>
            <Position>
              <LatitudeDegrees>44.08174063079059123992919921875</LatitudeDegrees>
              <LongitudeDegrees>-1.28142745234072208404541015625</LongitudeDegrees>
            </Position>
            <AltitudeMeters>18</AltitudeMeters>
            <DistanceMeters>NAN</DistanceMeters>
          </Trackpoint>
          <Trackpoint>
            <Time>2022-07-06T10:13:49.000Z</Time>
            <Position>
              <LatitudeDegrees>44.08179712481796741485595703125</LatitudeDegrees>
              <LongitudeDegrees>-1.28174546174705028533935546875</LongitudeDegrees>
            </Position>
            <AltitudeMeters>17.3999996185302734375</AltitudeMeters>
            <DistanceMeters>NAN</DistanceMeters>
          </Trackpoint>
          <Trackpoint>
            <Time>2022-07-06T10:13:51.000Z</Time>
            <Position>
              <LatitudeDegrees>44.0818290598690509796142578125</LatitudeDegrees>
              <LongitudeDegrees>-1.28188376314938068389892578125</LongitudeDegrees>
            </Position>
            <AltitudeMeters>17.3999996185302734375</AltitudeMeters>
            <DistanceMeters>NAN</DistanceMeters>
          </Trackpoint>
          <Trackpoint>
            <Time>2022-07-06T10:13:53.000Z</Time>
            <Position>
              <LatitudeDegrees>44.08185529522597789764404296875</LatitudeDegrees>
              <LongitudeDegrees>-1.28200110979378223419189453125</LongitudeDegrees>
            </Position>
            <AltitudeMeters>17.200000762939453125</AltitudeMeters>
            <DistanceMeters>NAN</DistanceMeters>
          </Trackpoint>
          <Trackpoint>
            <Time>2022-07-06T10:13:54.000Z</Time>
            <Position>
              <LatitudeDegrees>44.08187205903232097625732421875</LatitudeDegrees>
              <LongitudeDegrees>-1.28207587637007236480712890625</LongitudeDegrees>
            </Position>
            <AltitudeMeters>17.200000762939453125</AltitudeMeters>
            <DistanceMeters>NAN</DistanceMeters>
          </Trackpoint>
          <Trackpoint>
            <Time>2022-07-06T10:13:55.000Z</Time>
            <Position>
              <LatitudeDegrees>44.0818827040493488311767578125</LatitudeDegrees>
              <LongitudeDegrees>-1.28212876617908477783203125</LongitudeDegrees>
            </Position>
            <AltitudeMeters>17.200000762939453125</AltitudeMeters>
            <DistanceMeters>NAN</DistanceMeters>
          </Trackpoint>
          <Trackpoint>
            <Time>2022-07-06T10:14:02.000Z</Time>
            <Position>
              <LatitudeDegrees>44.082019664347171783447265625</LatitudeDegrees>
              <LongitudeDegrees>-1.28255079500377178192138671875</LongitudeDegrees>
            </Position>
            <AltitudeMeters>17</AltitudeMeters>
            <DistanceMeters>NAN</DistanceMeters>
          </Trackpoint>
          <Trackpoint>
            <Time>2022-07-06T10:14:05.000Z</Time>
            <Position>
              <LatitudeDegrees>44.0820704586803913116455078125</LatitudeDegrees>
              <LongitudeDegrees>-1.2827052734792232513427734375</LongitudeDegrees>
            </Position>
            <AltitudeMeters>16.799999237060546875</AltitudeMeters>
            <DistanceMeters>NAN</DistanceMeters>
          </Trackpoint>
          <Trackpoint>
            <Time>2022-07-06T10:14:08.000Z</Time>
            <Position>
              <LatitudeDegrees>44.08213374204933643341064453125</LatitudeDegrees>
              <LongitudeDegrees>-1.28286763094365596771240234375</LongitudeDegrees>
            </Position>
            <AltitudeMeters>17</AltitudeMeters>
            <DistanceMeters>NAN</DistanceMeters>
          </Trackpoint>
          <Trackpoint>
            <Time>2022-07-06T10:14:16.000Z</Time>
            <Position>
              <LatitudeDegrees>44.08227338455617427825927734375</LatitudeDegrees>
              <LongitudeDegrees>-1.28329376690089702606201171875</LongitudeDegrees>
            </Position>
            <AltitudeMeters>17</AltitudeMeters>
            <DistanceMeters>NAN</DistanceMeters>
          </Trackpoint>
          <Trackpoint>
            <Time>2022-07-06T10:14:20.000Z</Time>
            <Position>
              <LatitudeDegrees>44.082362987101078033447265625</LatitudeDegrees>
              <LongitudeDegrees>-1.28351504914462566375732421875</LongitudeDegrees>
            </Position>
            <AltitudeMeters>17</AltitudeMeters>
            <DistanceMeters>NAN</DistanceMeters>
          </Trackpoint>
          <Trackpoint>
            <Time>2022-07-06T10:14:23.000Z</Time>
            <Position>
              <LatitudeDegrees>44.08240967430174350738525390625</LatitudeDegrees>
              <LongitudeDegrees>-1.2836985290050506591796875</LongitudeDegrees>
            </Position>
            <AltitudeMeters>17</AltitudeMeters>
            <DistanceMeters>NAN</DistanceMeters>
          </Trackpoint>
          <Trackpoint>
            <Time>2022-07-06T10:14:25.000Z</Time>
            <Position>
              <LatitudeDegrees>44.08244336955249309539794921875</LatitudeDegrees>
              <LongitudeDegrees>-1.28384261392056941986083984375</LongitudeDegrees>
            </Position>
            <AltitudeMeters>17</AltitudeMeters>
            <DistanceMeters>NAN</DistanceMeters>
          </Trackpoint>
          <Trackpoint>
            <Time>2022-07-06T10:14:29.000Z</Time>
            <Position>
              <LatitudeDegrees>44.082496426999568939208984375</LatitudeDegrees>
              <LongitudeDegrees>-1.2841196358203887939453125</LongitudeDegrees>
            </Position>
            <AltitudeMeters>16.799999237060546875</AltitudeMeters>
            <DistanceMeters>NAN</DistanceMeters>
          </Trackpoint>
          <Trackpoint>
            <Time>2022-07-06T10:14:30.000Z</Time>
            <Position>
              <LatitudeDegrees>44.0825240872800350189208984375</LatitudeDegrees>
              <LongitudeDegrees>-1.28419934771955013275146484375</LongitudeDegrees>
            </Position>
            <AltitudeMeters>16.6000003814697265625</AltitudeMeters>
            <DistanceMeters>NAN</DistanceMeters>
          </Trackpoint>
          <Trackpoint>
            <Time>2022-07-06T10:14:34.000Z</Time>
            <Position>
              <LatitudeDegrees>44.08262106589972972869873046875</LatitudeDegrees>
              <LongitudeDegrees>-1.28442876040935516357421875</LongitudeDegrees>
            </Position>
            <AltitudeMeters>16.200000762939453125</AltitudeMeters>
            <DistanceMeters>NAN</DistanceMeters>
          </Trackpoint>
          <Trackpoint>
            <Time>2022-07-06T10:14:35.000Z</Time>
            <Position>
              <LatitudeDegrees>44.0826410986483097076416015625</LatitudeDegrees>
              <LongitudeDegrees>-1.28448299132287502288818359375</LongitudeDegrees>
            </Position>
            <AltitudeMeters>16.200000762939453125</AltitudeMeters>
            <DistanceMeters>NAN</DistanceMeters>
          </Trackpoint>
          <Trackpoint>
            <Time>2022-07-06T10:14:42.000Z</Time>
            <Position>
              <LatitudeDegrees>44.08278979361057281494140625</LatitudeDegrees>
              <LongitudeDegrees>-1.28487727604806423187255859375</LongitudeDegrees>
            </Position>
            <AltitudeMeters>16.200000762939453125</AltitudeMeters>
            <DistanceMeters>NAN</DistanceMeters>
          </Trackpoint>
          <Trackpoint>
            <Time>2022-07-06T10:14:43.000Z</Time>
            <Position>
              <LatitudeDegrees>44.08280580304563045501708984375</LatitudeDegrees>
              <LongitudeDegrees>-1.2849368713796138763427734375</LongitudeDegrees>
            </Position>
            <AltitudeMeters>16.200000762939453125</AltitudeMeters>
            <DistanceMeters>NAN</DistanceMeters>
          </Trackpoint>
          <Trackpoint>
            <Time>2022-07-06T10:14:48.000Z</Time>
            <Position>
              <LatitudeDegrees>44.082905463874340057373046875</LatitudeDegrees>
              <LongitudeDegrees>-1.28522177226841449737548828125</LongitudeDegrees>
            </Position>
            <AltitudeMeters>15.80000019073486328125</AltitudeMeters>
            <DistanceMeters>NAN</DistanceMeters>
          </Trackpoint>
          <Trackpoint>
            <Time>2022-07-06T10:14:50.000Z</Time>
            <Position>
              <LatitudeDegrees>44.08294443972408771514892578125</LatitudeDegrees>
              <LongitudeDegrees>-1.2853231094777584075927734375</LongitudeDegrees>
            </Position>
            <AltitudeMeters>15.6000003814697265625</AltitudeMeters>
            <DistanceMeters>NAN</DistanceMeters>
          </Trackpoint>
          <Trackpoint>
            <Time>2022-07-06T10:14:57.000Z</Time>
            <Position>
              <LatitudeDegrees>44.08305306918919086456298828125</LatitudeDegrees>
              <LongitudeDegrees>-1.2857021391391754150390625</LongitudeDegrees>
            </Position>
            <AltitudeMeters>15.19999980926513671875</AltitudeMeters>
            <DistanceMeters>NAN</DistanceMeters>
          </Trackpoint>
          <Trackpoint>
            <Time>2022-07-06T10:14:59.000Z</Time>
            <Position>
              <LatitudeDegrees>44.08307955600321292877197265625</LatitudeDegrees>
              <LongitudeDegrees>-1.28581386990845203399658203125</LongitudeDegrees>
            </Position>
            <AltitudeMeters>15.3999996185302734375</AltitudeMeters>
            <DistanceMeters>NAN</DistanceMeters>
          </Trackpoint>
          <Trackpoint>
            <Time>2022-07-06T10:15:02.000Z</Time>
            <Position>
              <LatitudeDegrees>44.08312381245195865631103515625</LatitudeDegrees>
              <LongitudeDegrees>-1.285978071391582489013671875</LongitudeDegrees>
            </Position>
            <AltitudeMeters>15.6000003814697265625</AltitudeMeters>
            <DistanceMeters>NAN</DistanceMeters>
          </Trackpoint>
          <Trackpoint>
            <Time>2022-07-06T10:15:03.000Z</Time>
            <Position>
              <LatitudeDegrees>44.083142839372158050537109375</LatitudeDegrees>
              <LongitudeDegrees>-1.28602811135351657867431640625</LongitudeDegrees>
            </Position>
            <AltitudeMeters>15.6000003814697265625</AltitudeMeters>
            <DistanceMeters>NAN</DistanceMeters>
          </Trackpoint>
          <Trackpoint>
            <Time>2022-07-06T10:15:06.000Z</Time>
            <Position>
              <LatitudeDegrees>44.083202183246612548828125</LatitudeDegrees>
              <LongitudeDegrees>-1.28616641275584697723388671875</LongitudeDegrees>
            </Position>
            <AltitudeMeters>15.6000003814697265625</AltitudeMeters>
            <DistanceMeters>NAN</DistanceMeters>
          </Trackpoint>
          <Trackpoint>
            <Time>2022-07-06T10:15:14.000Z</Time>
            <Position>
              <LatitudeDegrees>44.0833411552011966705322265625</LatitudeDegrees>
              <LongitudeDegrees>-1.28660864196717739105224609375</LongitudeDegrees>
            </Position>
            <AltitudeMeters>16.200000762939453125</AltitudeMeters>
            <DistanceMeters>NAN</DistanceMeters>
          </Trackpoint>
          <Trackpoint>
            <Time>2022-07-06T10:15:16.000Z</Time>
            <Position>
              <LatitudeDegrees>44.08336822874844074249267578125</LatitudeDegrees>
              <LongitudeDegrees>-1.28671861253678798675537109375</LongitudeDegrees>
            </Position>
            <AltitudeMeters>16.200000762939453125</AltitudeMeters>
            <DistanceMeters>NAN</DistanceMeters>
          </Trackpoint>
          <Trackpoint>
            <Time>2022-07-06T10:15:18.000Z</Time>
            <Position>
              <LatitudeDegrees>44.0833867527544498443603515625</LatitudeDegrees>
              <LongitudeDegrees>-1.28683009184896945953369140625</LongitudeDegrees>
            </Position>
            <AltitudeMeters>16.200000762939453125</AltitudeMeters>
            <DistanceMeters>NAN</DistanceMeters>
          </Trackpoint>
          <Trackpoint>
            <Time>2022-07-06T10:15:21.000Z</Time>
            <Position>
              <LatitudeDegrees>44.08340670168399810791015625</LatitudeDegrees>
              <LongitudeDegrees>-1.28700099885463714599609375</LongitudeDegrees>
            </Position>
            <AltitudeMeters>16.200000762939453125</AltitudeMeters>
            <DistanceMeters>NAN</DistanceMeters>
          </Trackpoint>
          <Trackpoint>
            <Time>2022-07-06T10:15:26.000Z</Time>
            <Position>
              <LatitudeDegrees>44.0834269858896732330322265625</LatitudeDegrees>
              <LongitudeDegrees>-1.28728589974343776702880859375</LongitudeDegrees>
            </Position>
            <AltitudeMeters>16.3999996185302734375</AltitudeMeters>
            <DistanceMeters>NAN</DistanceMeters>
          </Trackpoint>
          <Trackpoint>
            <Time>2022-07-06T10:15:30.000Z</Time>
            <Position>
              <LatitudeDegrees>44.08343712799251079559326171875</LatitudeDegrees>
              <LongitudeDegrees>-1.28751070238649845123291015625</LongitudeDegrees>
            </Position>
            <AltitudeMeters>16.799999237060546875</AltitudeMeters>
            <DistanceMeters>NAN</DistanceMeters>
          </Trackpoint>
          <Trackpoint>
            <Time>2022-07-06T10:15:39.000Z</Time>
            <Position>
              <LatitudeDegrees>44.08351910300552845001220703125</LatitudeDegrees>
              <LongitudeDegrees>-1.2880438752472400665283203125</LongitudeDegrees>
            </Position>
            <AltitudeMeters>15.80000019073486328125</AltitudeMeters>
            <DistanceMeters>NAN</DistanceMeters>
          </Trackpoint>
          <Trackpoint>
            <Time>2022-07-06T10:15:50.000Z</Time>
            <Position>
              <LatitudeDegrees>44.0836945362389087677001953125</LatitudeDegrees>
              <LongitudeDegrees>-1.2886725179851055145263671875</LongitudeDegrees>
            </Position>
            <AltitudeMeters>15.3999996185302734375</AltitudeMeters>
            <DistanceMeters>NAN</DistanceMeters>
          </Trackpoint>
          <Trackpoint>
            <Time>2022-07-06T10:15:58.000Z</Time>
            <Position>
              <LatitudeDegrees>44.0838202647864818572998046875</LatitudeDegrees>
              <LongitudeDegrees>-1.289104185998439788818359375</LongitudeDegrees>
            </Position>
            <AltitudeMeters>15.80000019073486328125</AltitudeMeters>
            <DistanceMeters>NAN</DistanceMeters>
          </Trackpoint>
          <Trackpoint>
            <Time>2022-07-06T10:15:59.000Z</Time>
            <Position>
              <LatitudeDegrees>44.083834849298000335693359375</LatitudeDegrees>
              <LongitudeDegrees>-1.28915556706488132476806640625</LongitudeDegrees>
            </Position>
            <AltitudeMeters>15.80000019073486328125</AltitudeMeters>
            <DistanceMeters>NAN</DistanceMeters>
          </Trackpoint>
          <Trackpoint>
            <Time>2022-07-06T10:16:04.000Z</Time>
            <Position>
              <LatitudeDegrees>44.08389628864824771881103515625</LatitudeDegrees>
              <LongitudeDegrees>-1.2893953733146190643310546875</LongitudeDegrees>
            </Position>
            <AltitudeMeters>16</AltitudeMeters>
            <DistanceMeters>NAN</DistanceMeters>
          </Trackpoint>
          <Trackpoint>
            <Time>2022-07-06T10:16:12.000Z</Time>
            <Position>
              <LatitudeDegrees>44.08392445184290409088134765625</LatitudeDegrees>
              <LongitudeDegrees>-1.28977616317570209503173828125</LongitudeDegrees>
            </Position>
            <AltitudeMeters>16.200000762939453125</AltitudeMeters>
            <DistanceMeters>NAN</DistanceMeters>
          </Trackpoint>
          <Trackpoint>
            <Time>2022-07-06T10:16:19.000Z</Time>
            <Position>
              <LatitudeDegrees>44.083930067718029022216796875</LatitudeDegrees>
              <LongitudeDegrees>-1.29010624252259731292724609375</LongitudeDegrees>
            </Position>
            <AltitudeMeters>15.80000019073486328125</AltitudeMeters>
            <DistanceMeters>NAN</DistanceMeters>
          </Trackpoint>
          <Trackpoint>
            <Time>2022-07-06T10:16:21.000Z</Time>
            <Position>
              <LatitudeDegrees>44.08394046127796173095703125</LatitudeDegrees>
              <LongitudeDegrees>-1.29021034575998783111572265625</LongitudeDegrees>
            </Position>
            <AltitudeMeters>15.80000019073486328125</AltitudeMeters>
            <DistanceMeters>NAN</DistanceMeters>
          </Trackpoint>
          <Trackpoint>
            <Time>2022-07-06T10:16:26.000Z</Time>
            <Position>
              <LatitudeDegrees>44.084007851779460906982421875</LatitudeDegrees>
              <LongitudeDegrees>-1.2904635630548000335693359375</LongitudeDegrees>
            </Position>
            <AltitudeMeters>15.6000003814697265625</AltitudeMeters>
            <DistanceMeters>NAN</DistanceMeters>
          </Trackpoint>
          <Trackpoint>
            <Time>2022-07-06T10:16:35.000Z</Time>
            <Position>
              <LatitudeDegrees>44.084090329706668853759765625</LatitudeDegrees>
              <LongitudeDegrees>-1.29087855108082294464111328125</LongitudeDegrees>
            </Position>
            <AltitudeMeters>15.80000019073486328125</AltitudeMeters>
            <DistanceMeters>NAN</DistanceMeters>
          </Trackpoint>
          <Trackpoint>
            <Time>2022-07-06T10:16:42.000Z</Time>
            <Position>
              <LatitudeDegrees>44.0841396152973175048828125</LatitudeDegrees>
              <LongitudeDegrees>-1.29122019745409488677978515625</LongitudeDegrees>
            </Position>
            <AltitudeMeters>15.80000019073486328125</AltitudeMeters>
            <DistanceMeters>NAN</DistanceMeters>
          </Trackpoint>
          <Trackpoint>
            <Time>2022-07-06T10:16:51.000Z</Time>
            <Position>
              <LatitudeDegrees>44.0841910801827907562255859375</LatitudeDegrees>
              <LongitudeDegrees>-1.29164868034422397613525390625</LongitudeDegrees>
            </Position>
            <AltitudeMeters>15.80000019073486328125</AltitudeMeters>
            <DistanceMeters>NAN</DistanceMeters>
          </Trackpoint>
          <Trackpoint>
            <Time>2022-07-06T10:17:00.000Z</Time>
            <Position>
              <LatitudeDegrees>44.08422485925257205963134765625</LatitudeDegrees>
              <LongitudeDegrees>-1.2920873053371906280517578125</LongitudeDegrees>
            </Position>
            <AltitudeMeters>16.200000762939453125</AltitudeMeters>
            <DistanceMeters>NAN</DistanceMeters>
          </Trackpoint>
          <Trackpoint>
            <Time>2022-07-06T10:17:09.000Z</Time>
            <Position>
              <LatitudeDegrees>44.08425101079046726226806640625</LatitudeDegrees>
              <LongitudeDegrees>-1.2925793230533599853515625</LongitudeDegrees>
            </Position>
            <AltitudeMeters>16.200000762939453125</AltitudeMeters>
            <DistanceMeters>NAN</DistanceMeters>
          </Trackpoint>
          <Trackpoint>
            <Time>2022-07-06T10:17:15.000Z</Time>
            <Position>
              <LatitudeDegrees>44.0842531062662601470947265625</LatitudeDegrees>
              <LongitudeDegrees>-1.29295005463063716888427734375</LongitudeDegrees>
            </Position>
            <AltitudeMeters>15.80000019073486328125</AltitudeMeters>
            <DistanceMeters>NAN</DistanceMeters>
          </Trackpoint>
          <Trackpoint>
            <Time>2022-07-06T10:17:16.000Z</Time>
            <Position>
              <LatitudeDegrees>44.08424648456275463104248046875</LatitudeDegrees>
              <LongitudeDegrees>-1.293021552264690399169921875</LongitudeDegrees>
            </Position>
            <AltitudeMeters>15.6000003814697265625</AltitudeMeters>
            <DistanceMeters>NAN</DistanceMeters>
          </Trackpoint>
          <Trackpoint>
            <Time>2022-07-06T10:17:17.000Z</Time>
            <Position>
              <LatitudeDegrees>44.08424112014472484588623046875</LatitudeDegrees>
              <LongitudeDegrees>-1.29309841431677341461181640625</LongitudeDegrees>
            </Position>
            <AltitudeMeters>15.19999980926513671875</AltitudeMeters>
            <DistanceMeters>NAN</DistanceMeters>
          </Trackpoint>
          <Trackpoint>
            <Time>2022-07-06T10:17:18.000Z</Time>
            <Position>
              <LatitudeDegrees>44.08424329943954944610595703125</LatitudeDegrees>
              <LongitudeDegrees>-1.29317552782595157623291015625</LongitudeDegrees>
            </Position>
            <AltitudeMeters>15.19999980926513671875</AltitudeMeters>
            <DistanceMeters>NAN</DistanceMeters>
          </Trackpoint>
          <Trackpoint>
            <Time>2022-07-06T10:17:19.000Z</Time>
            <Position>
              <LatitudeDegrees>44.084250591695308685302734375</LatitudeDegrees>
              <LongitudeDegrees>-1.29324492998421192169189453125</LongitudeDegrees>
            </Position>
            <AltitudeMeters>15</AltitudeMeters>
            <DistanceMeters>NAN</DistanceMeters>
          </Trackpoint>
          <Trackpoint>
            <Time>2022-07-06T10:17:20.000Z</Time>
            <Position>
              <LatitudeDegrees>44.0842618234455585479736328125</LatitudeDegrees>
              <LongitudeDegrees>-1.2933056987822055816650390625</LongitudeDegrees>
            </Position>
            <AltitudeMeters>15</AltitudeMeters>
            <DistanceMeters>NAN</DistanceMeters>
          </Trackpoint>
          <Trackpoint>
            <Time>2022-07-06T10:17:22.000Z</Time>
            <Position>
              <LatitudeDegrees>44.0842765755951404571533203125</LatitudeDegrees>
              <LongitudeDegrees>-1.29342111758887767791748046875</LongitudeDegrees>
            </Position>
            <AltitudeMeters>15</AltitudeMeters>
            <DistanceMeters>NAN</DistanceMeters>
          </Trackpoint>
          <Trackpoint>
            <Time>2022-07-06T10:17:26.000Z</Time>
            <Position>
              <LatitudeDegrees>44.0842903219163417816162109375</LatitudeDegrees>
              <LongitudeDegrees>-1.29364441148936748504638671875</LongitudeDegrees>
            </Position>
            <AltitudeMeters>14.80000019073486328125</AltitudeMeters>
            <DistanceMeters>NAN</DistanceMeters>
          </Trackpoint>
          <Trackpoint>
            <Time>2022-07-06T10:17:32.000Z</Time>
            <Position>
              <LatitudeDegrees>44.08434287644922733306884765625</LatitudeDegrees>
              <LongitudeDegrees>-1.2939970381557941436767578125</LongitudeDegrees>
            </Position>
            <AltitudeMeters>14.19999980926513671875</AltitudeMeters>
            <DistanceMeters>NAN</DistanceMeters>
          </Trackpoint>
          <Trackpoint>
            <Time>2022-07-06T10:17:34.000Z</Time>
            <Position>
              <LatitudeDegrees>44.08436232246458530426025390625</LatitudeDegrees>
              <LongitudeDegrees>-1.29412000067532062530517578125</LongitudeDegrees>
            </Position>
            <AltitudeMeters>14.19999980926513671875</AltitudeMeters>
            <DistanceMeters>NAN</DistanceMeters>
          </Trackpoint>
          <Trackpoint>
            <Time>2022-07-06T10:17:39.000Z</Time>
            <Position>
              <LatitudeDegrees>44.08443868160247802734375</LatitudeDegrees>
              <LongitudeDegrees>-1.2944251857697963714599609375</LongitudeDegrees>
            </Position>
            <AltitudeMeters>13.80000019073486328125</AltitudeMeters>
            <DistanceMeters>NAN</DistanceMeters>
          </Trackpoint>
          <Trackpoint>
            <Time>2022-07-06T10:17:43.000Z</Time>
            <Position>
              <LatitudeDegrees>44.08448235131800174713134765625</LatitudeDegrees>
              <LongitudeDegrees>-1.2946682609617710113525390625</LongitudeDegrees>
            </Position>
            <AltitudeMeters>13.80000019073486328125</AltitudeMeters>
            <DistanceMeters>NAN</DistanceMeters>
          </Trackpoint>
          <Trackpoint>
            <Time>2022-07-06T10:17:45.000Z</Time>
            <Position>
              <LatitudeDegrees>44.08447665162384510040283203125</LatitudeDegrees>
              <LongitudeDegrees>-1.294783093035221099853515625</LongitudeDegrees>
            </Position>
            <AltitudeMeters>13.80000019073486328125</AltitudeMeters>
            <DistanceMeters>NAN</DistanceMeters>
          </Trackpoint>
          <Trackpoint>
            <Time>2022-07-06T10:17:47.000Z</Time>
            <Position>
              <LatitudeDegrees>44.08442468382418155670166015625</LatitudeDegrees>
              <LongitudeDegrees>-1.29486179910600185394287109375</LongitudeDegrees>
            </Position>
            <AltitudeMeters>13.6000003814697265625</AltitudeMeters>
            <DistanceMeters>NAN</DistanceMeters>
          </Trackpoint>
          <Trackpoint>
            <Time>2022-07-06T10:17:48.000Z</Time>
            <Position>
              <LatitudeDegrees>44.08438864164054393768310546875</LatitudeDegrees>
              <LongitudeDegrees>-1.2948969192802906036376953125</LongitudeDegrees>
            </Position>
            <AltitudeMeters>13.6000003814697265625</AltitudeMeters>
            <DistanceMeters>NAN</DistanceMeters>
          </Trackpoint>
          <Trackpoint>
            <Time>2022-07-06T10:17:51.000Z</Time>
            <Position>
              <LatitudeDegrees>44.084275402128696441650390625</LatitudeDegrees>
              <LongitudeDegrees>-1.294989623129367828369140625</LongitudeDegrees>
            </Position>
            <AltitudeMeters>13.6000003814697265625</AltitudeMeters>
            <DistanceMeters>NAN</DistanceMeters>
          </Trackpoint>
          <Trackpoint>
            <Time>2022-07-06T10:17:53.000Z</Time>
            <Position>
              <LatitudeDegrees>44.0842279605567455291748046875</LatitudeDegrees>
              <LongitudeDegrees>-1.29508257843554019927978515625</LongitudeDegrees>
            </Position>
            <AltitudeMeters>13.6000003814697265625</AltitudeMeters>
            <DistanceMeters>NAN</DistanceMeters>
          </Trackpoint>
          <Trackpoint>
            <Time>2022-07-06T10:17:55.000Z</Time>
            <Position>
              <LatitudeDegrees>44.08422569744288921356201171875</LatitudeDegrees>
              <LongitudeDegrees>-1.29519556649029254913330078125</LongitudeDegrees>
            </Position>
            <AltitudeMeters>13.3999996185302734375</AltitudeMeters>
            <DistanceMeters>NAN</DistanceMeters>
          </Trackpoint>
          <Trackpoint>
            <Time>2022-07-06T10:17:56.000Z</Time>
            <Position>
              <LatitudeDegrees>44.08424396999180316925048828125</LatitudeDegrees>
              <LongitudeDegrees>-1.29524585790932178497314453125</LongitudeDegrees>
            </Position>
            <AltitudeMeters>13.3999996185302734375</AltitudeMeters>
            <DistanceMeters>NAN</DistanceMeters>
          </Trackpoint>
          <Trackpoint>
            <Time>2022-07-06T10:17:59.000Z</Time>
            <Position>
              <LatitudeDegrees>44.08431353978812694549560546875</LatitudeDegrees>
              <LongitudeDegrees>-1.29538298584520816802978515625</LongitudeDegrees>
            </Position>
            <AltitudeMeters>13.3999996185302734375</AltitudeMeters>
            <DistanceMeters>NAN</DistanceMeters>
          </Trackpoint>
          <Trackpoint>
            <Time>2022-07-06T10:18:02.000Z</Time>
            <Position>
              <LatitudeDegrees>44.08441714011132717132568359375</LatitudeDegrees>
              <LongitudeDegrees>-1.2954792939126491546630859375</LongitudeDegrees>
            </Position>
            <AltitudeMeters>13.19999980926513671875</AltitudeMeters>
            <DistanceMeters>NAN</DistanceMeters>
          </Trackpoint>
          <Trackpoint>
            <Time>2022-07-06T10:18:03.000Z</Time>
            <Position>
              <LatitudeDegrees>44.08445469103753566741943359375</LatitudeDegrees>
              <LongitudeDegrees>-1.2954997457563877105712890625</LongitudeDegrees>
            </Position>
            <AltitudeMeters>13.19999980926513671875</AltitudeMeters>
            <DistanceMeters>NAN</DistanceMeters>
          </Trackpoint>
          <Trackpoint>
            <Time>2022-07-06T10:18:07.000Z</Time>
            <Position>
              <LatitudeDegrees>44.084604643285274505615234375</LatitudeDegrees>
              <LongitudeDegrees>-1.29556805826723575592041015625</LongitudeDegrees>
            </Position>
            <AltitudeMeters>12.80000019073486328125</AltitudeMeters>
            <DistanceMeters>NAN</DistanceMeters>
          </Trackpoint>
          <Trackpoint>
            <Time>2022-07-06T10:18:09.000Z</Time>
            <Position>
              <LatitudeDegrees>44.08467094413936138153076171875</LatitudeDegrees>
              <LongitudeDegrees>-1.29563293419778347015380859375</LongitudeDegrees>
            </Position>
            <AltitudeMeters>12.6000003814697265625</AltitudeMeters>
            <DistanceMeters>NAN</DistanceMeters>
          </Trackpoint>
          <Trackpoint>
            <Time>2022-07-06T10:18:12.000Z</Time>
            <Position>
              <LatitudeDegrees>44.0847452916204929351806640625</LatitudeDegrees>
              <LongitudeDegrees>-1.295767463743686676025390625</LongitudeDegrees>
            </Position>
            <AltitudeMeters>12.80000019073486328125</AltitudeMeters>
            <DistanceMeters>NAN</DistanceMeters>
          </Trackpoint>
          <Trackpoint>
            <Time>2022-07-06T10:18:13.000Z</Time>
            <Position>
              <LatitudeDegrees>44.0847603790462017059326171875</LatitudeDegrees>
              <LongitudeDegrees>-1.2958309985697269439697265625</LongitudeDegrees>
            </Position>
            <AltitudeMeters>12.80000019073486328125</AltitudeMeters>
            <DistanceMeters>NAN</DistanceMeters>
          </Trackpoint>
          <Trackpoint>
            <Time>2022-07-06T10:18:21.000Z</Time>
            <Position>
              <LatitudeDegrees>44.0848602913320064544677734375</LatitudeDegrees>
              <LongitudeDegrees>-1.2962920032441616058349609375</LongitudeDegrees>
            </Position>
            <AltitudeMeters>13</AltitudeMeters>
            <DistanceMeters>NAN</DistanceMeters>
          </Trackpoint>
          <Trackpoint>
            <Time>2022-07-06T10:18:26.000Z</Time>
            <Position>
              <LatitudeDegrees>44.08487177453935146331787109375</LatitudeDegrees>
              <LongitudeDegrees>-1.296523846685886383056640625</LongitudeDegrees>
            </Position>
            <AltitudeMeters>13.6000003814697265625</AltitudeMeters>
            <DistanceMeters>NAN</DistanceMeters>
          </Trackpoint>
          <Trackpoint>
            <Time>2022-07-06T10:18:28.000Z</Time>
            <Position>
              <LatitudeDegrees>44.0848852694034576416015625</LatitudeDegrees>
              <LongitudeDegrees>-1.29663658328354358673095703125</LongitudeDegrees>
            </Position>
            <AltitudeMeters>13.6000003814697265625</AltitudeMeters>
            <DistanceMeters>NAN</DistanceMeters>
          </Trackpoint>
          <Trackpoint>
            <Time>2022-07-06T10:18:32.000Z</Time>
            <Position>
              <LatitudeDegrees>44.0849119238555431365966796875</LatitudeDegrees>
              <LongitudeDegrees>-1.29688301123678684234619140625</LongitudeDegrees>
            </Position>
            <AltitudeMeters>13.19999980926513671875</AltitudeMeters>
            <DistanceMeters>NAN</DistanceMeters>
          </Trackpoint>
          <Trackpoint>
            <Time>2022-07-06T10:18:34.000Z</Time>
            <Position>
              <LatitudeDegrees>44.08492508344352245330810546875</LatitudeDegrees>
              <LongitudeDegrees>-1.29700069315731525421142578125</LongitudeDegrees>
            </Position>
            <AltitudeMeters>13</AltitudeMeters>
            <DistanceMeters>NAN</DistanceMeters>
          </Trackpoint>
          <Trackpoint>
            <Time>2022-07-06T10:18:37.000Z</Time>
            <Position>
              <LatitudeDegrees>44.084963388741016387939453125</LatitudeDegrees>
              <LongitudeDegrees>-1.29718861542642116546630859375</LongitudeDegrees>
            </Position>
            <AltitudeMeters>12.80000019073486328125</AltitudeMeters>
            <DistanceMeters>NAN</DistanceMeters>
          </Trackpoint>
          <Trackpoint>
            <Time>2022-07-06T10:18:41.000Z</Time>
            <Position>
              <LatitudeDegrees>44.08505299128592014312744140625</LatitudeDegrees>
              <LongitudeDegrees>-1.2973751127719879150390625</LongitudeDegrees>
            </Position>
            <AltitudeMeters>12.6000003814697265625</AltitudeMeters>
            <DistanceMeters>NAN</DistanceMeters>
          </Trackpoint>
          <Trackpoint>
            <Time>2022-07-06T10:18:43.000Z</Time>
            <Position>
              <LatitudeDegrees>44.085082076489925384521484375</LatitudeDegrees>
              <LongitudeDegrees>-1.2974369712173938751220703125</LongitudeDegrees>
            </Position>
            <AltitudeMeters>13</AltitudeMeters>
            <DistanceMeters>NAN</DistanceMeters>
          </Trackpoint>
          <Trackpoint>
            <Time>2022-07-06T10:18:49.000Z</Time>
            <Position>
              <LatitudeDegrees>44.08515659160912036895751953125</LatitudeDegrees>
              <LongitudeDegrees>-1.29760888405144214630126953125</LongitudeDegrees>
            </Position>
            <AltitudeMeters>14.3999996185302734375</AltitudeMeters>
            <DistanceMeters>NAN</DistanceMeters>
          </Trackpoint>
          <Trackpoint>
            <Time>2022-07-06T10:18:52.000Z</Time>
            <Position>
              <LatitudeDegrees>44.0851878561079502105712890625</LatitudeDegrees>
              <LongitudeDegrees>-1.29769924096763134002685546875</LongitudeDegrees>
            </Position>
            <AltitudeMeters>14.80000019073486328125</AltitudeMeters>
            <DistanceMeters>NAN</DistanceMeters>
          </Trackpoint>
          <Trackpoint>
            <Time>2022-07-06T10:18:54.000Z</Time>
            <Position>
              <LatitudeDegrees>44.08520109951496124267578125</LatitudeDegrees>
              <LongitudeDegrees>-1.2977635301649570465087890625</LongitudeDegrees>
            </Position>
            <AltitudeMeters>14.80000019073486328125</AltitudeMeters>
            <DistanceMeters>NAN</DistanceMeters>
          </Trackpoint>
          <Trackpoint>
            <Time>2022-07-06T10:18:56.000Z</Time>
            <Position>
              <LatitudeDegrees>44.08521643839776515960693359375</LatitudeDegrees>
              <LongitudeDegrees>-1.2978389672935009002685546875</LongitudeDegrees>
            </Position>
            <AltitudeMeters>15</AltitudeMeters>
            <DistanceMeters>NAN</DistanceMeters>
          </Trackpoint>
          <Trackpoint>
            <Time>2022-07-06T10:19:00.000Z</Time>
            <Position>
              <LatitudeDegrees>44.08524611033499240875244140625</LatitudeDegrees>
              <LongitudeDegrees>-1.29799093119800090789794921875</LongitudeDegrees>
            </Position>
            <AltitudeMeters>15</AltitudeMeters>
            <DistanceMeters>NAN</DistanceMeters>
          </Trackpoint>
          <Trackpoint>
            <Time>2022-07-06T10:19:01.000Z</Time>
            <Position>
              <LatitudeDegrees>44.085255749523639678955078125</LatitudeDegrees>
              <LongitudeDegrees>-1.29803602583706378936767578125</LongitudeDegrees>
            </Position>
            <AltitudeMeters>15.19999980926513671875</AltitudeMeters>
            <DistanceMeters>NAN</DistanceMeters>
          </Trackpoint>
          <Trackpoint>
            <Time>2022-07-06T10:19:08.000Z</Time>
            <Position>
              <LatitudeDegrees>44.08531500957906246185302734375</LatitudeDegrees>
              <LongitudeDegrees>-1.29839560948312282562255859375</LongitudeDegrees>
            </Position>
            <AltitudeMeters>15.19999980926513671875</AltitudeMeters>
            <DistanceMeters>NAN</DistanceMeters>
          </Trackpoint>
          <Trackpoint>
            <Time>2022-07-06T10:19:16.000Z</Time>
            <Position>
              <LatitudeDegrees>44.08532314002513885498046875</LatitudeDegrees>
              <LongitudeDegrees>-1.298884190618991851806640625</LongitudeDegrees>
            </Position>
            <AltitudeMeters>14.3999996185302734375</AltitudeMeters>
            <DistanceMeters>NAN</DistanceMeters>
          </Trackpoint>
          <Trackpoint>
            <Time>2022-07-06T10:19:19.000Z</Time>
            <Position>
              <LatitudeDegrees>44.0853358805179595947265625</LatitudeDegrees>
              <LongitudeDegrees>-1.29908912815153598785400390625</LongitudeDegrees>
            </Position>
            <AltitudeMeters>14</AltitudeMeters>
            <DistanceMeters>NAN</DistanceMeters>
          </Trackpoint>
          <Trackpoint>
            <Time>2022-07-06T10:19:20.000Z</Time>
            <Position>
              <LatitudeDegrees>44.08533059991896152496337890625</LatitudeDegrees>
              <LongitudeDegrees>-1.29916221834719181060791015625</LongitudeDegrees>
            </Position>
            <AltitudeMeters>13.80000019073486328125</AltitudeMeters>
            <DistanceMeters>NAN</DistanceMeters>
          </Trackpoint>
          <Trackpoint>
            <Time>2022-07-06T10:19:26.000Z</Time>
            <Position>
              <LatitudeDegrees>44.08528701402246952056884765625</LatitudeDegrees>
              <LongitudeDegrees>-1.29959723912179470062255859375</LongitudeDegrees>
            </Position>
            <AltitudeMeters>13.19999980926513671875</AltitudeMeters>
            <DistanceMeters>NAN</DistanceMeters>
          </Trackpoint>
          <Trackpoint>
            <Time>2022-07-06T10:19:28.000Z</Time>
            <Position>
              <LatitudeDegrees>44.08527620136737823486328125</LatitudeDegrees>
              <LongitudeDegrees>-1.29974442534148693084716796875</LongitudeDegrees>
            </Position>
            <AltitudeMeters>13</AltitudeMeters>
            <DistanceMeters>NAN</DistanceMeters>
          </Trackpoint>
          <Trackpoint>
            <Time>2022-07-06T10:19:33.000Z</Time>
            <Position>
              <LatitudeDegrees>44.0852525644004344940185546875</LatitudeDegrees>
              <LongitudeDegrees>-1.30004164762794971466064453125</LongitudeDegrees>
            </Position>
            <AltitudeMeters>13</AltitudeMeters>
            <DistanceMeters>NAN</DistanceMeters>
          </Trackpoint>
          <Trackpoint>
            <Time>2022-07-06T10:19:38.000Z</Time>
            <Position>
              <LatitudeDegrees>44.08528693020343780517578125</LatitudeDegrees>
              <LongitudeDegrees>-1.30025974474847316741943359375</LongitudeDegrees>
            </Position>
            <AltitudeMeters>13.19999980926513671875</AltitudeMeters>
            <DistanceMeters>NAN</DistanceMeters>
          </Trackpoint>
          <Trackpoint>
            <Time>2022-07-06T10:19:39.000Z</Time>
            <Position>
              <LatitudeDegrees>44.08529891632497310638427734375</LatitudeDegrees>
              <LongitudeDegrees>-1.300305761396884918212890625</LongitudeDegrees>
            </Position>
            <AltitudeMeters>13.19999980926513671875</AltitudeMeters>
            <DistanceMeters>NAN</DistanceMeters>
          </Trackpoint>
          <Trackpoint>
            <Time>2022-07-06T10:19:46.000Z</Time>
            <Position>
              <LatitudeDegrees>44.08532582223415374755859375</LatitudeDegrees>
              <LongitudeDegrees>-1.30064732395112514495849609375</LongitudeDegrees>
            </Position>
            <AltitudeMeters>13.80000019073486328125</AltitudeMeters>
            <DistanceMeters>NAN</DistanceMeters>
          </Trackpoint>
          <Trackpoint>
            <Time>2022-07-06T10:19:52.000Z</Time>
            <Position>
              <LatitudeDegrees>44.08530780114233493804931640625</LatitudeDegrees>
              <LongitudeDegrees>-1.30095091648399829864501953125</LongitudeDegrees>
            </Position>
            <AltitudeMeters>13.80000019073486328125</AltitudeMeters>
            <DistanceMeters>NAN</DistanceMeters>
          </Trackpoint>
          <Trackpoint>
            <Time>2022-07-06T10:19:56.000Z</Time>
            <Position>
              <LatitudeDegrees>44.08528064377605915069580078125</LatitudeDegrees>
              <LongitudeDegrees>-1.30108636803925037384033203125</LongitudeDegrees>
            </Position>
            <AltitudeMeters>14.3999996185302734375</AltitudeMeters>
            <DistanceMeters>NAN</DistanceMeters>
          </Trackpoint>
          <Trackpoint>
            <Time>2022-07-06T10:19:58.000Z</Time>
            <Position>
              <LatitudeDegrees>44.08525398932397365570068359375</LatitudeDegrees>
              <LongitudeDegrees>-1.301151327788829803466796875</LongitudeDegrees>
            </Position>
            <AltitudeMeters>14.6000003814697265625</AltitudeMeters>
            <DistanceMeters>NAN</DistanceMeters>
          </Trackpoint>
          <Trackpoint>
            <Time>2022-07-06T10:20:05.000Z</Time>
            <Position>
              <LatitudeDegrees>44.0851720981299877166748046875</LatitudeDegrees>
              <LongitudeDegrees>-1.301361881196498870849609375</LongitudeDegrees>
            </Position>
            <AltitudeMeters>15.19999980926513671875</AltitudeMeters>
            <DistanceMeters>NAN</DistanceMeters>
          </Trackpoint>
          <Trackpoint>
            <Time>2022-07-06T10:20:08.000Z</Time>
            <Position>
              <LatitudeDegrees>44.08512691967189311981201171875</LatitudeDegrees>
              <LongitudeDegrees>-1.30145483650267124176025390625</LongitudeDegrees>
            </Position>
            <AltitudeMeters>15.3999996185302734375</AltitudeMeters>
            <DistanceMeters>NAN</DistanceMeters>
          </Trackpoint>
          <Trackpoint>
            <Time>2022-07-06T10:20:10.000Z</Time>
            <Position>
              <LatitudeDegrees>44.085094816982746124267578125</LatitudeDegrees>
              <LongitudeDegrees>-1.30154703743755817413330078125</LongitudeDegrees>
            </Position>
            <AltitudeMeters>15.3999996185302734375</AltitudeMeters>
            <DistanceMeters>NAN</DistanceMeters>
          </Trackpoint>
          <Trackpoint>
            <Time>2022-07-06T10:20:11.000Z</Time>
            <Position>
              <LatitudeDegrees>44.085079394280910491943359375</LatitudeDegrees>
              <LongitudeDegrees>-1.301589198410511016845703125</LongitudeDegrees>
            </Position>
            <AltitudeMeters>15.6000003814697265625</AltitudeMeters>
            <DistanceMeters>NAN</DistanceMeters>
          </Trackpoint>
          <Trackpoint>
            <Time>2022-07-06T10:20:14.000Z</Time>
            <Position>
              <LatitudeDegrees>44.0850487165153026580810546875</LatitudeDegrees>
              <LongitudeDegrees>-1.3017070479691028594970703125</LongitudeDegrees>
            </Position>
            <AltitudeMeters>15.6000003814697265625</AltitudeMeters>
            <DistanceMeters>NAN</DistanceMeters>
          </Trackpoint>
          <Trackpoint>
            <Time>2022-07-06T10:20:18.000Z</Time>
            <Position>
              <LatitudeDegrees>44.0850369818508625030517578125</LatitudeDegrees>
              <LongitudeDegrees>-1.30187829025089740753173828125</LongitudeDegrees>
            </Position>
            <AltitudeMeters>15.6000003814697265625</AltitudeMeters>
            <DistanceMeters>NAN</DistanceMeters>
          </Trackpoint>
          <Trackpoint>
            <Time>2022-07-06T10:20:20.000Z</Time>
            <Position>
              <LatitudeDegrees>44.08503388054668903350830078125</LatitudeDegrees>
              <LongitudeDegrees>-1.3019642047584056854248046875</LongitudeDegrees>
            </Position>
            <AltitudeMeters>15.6000003814697265625</AltitudeMeters>
            <DistanceMeters>NAN</DistanceMeters>
          </Trackpoint>
          <Trackpoint>
            <Time>2022-07-06T10:20:21.000Z</Time>
            <Position>
              <LatitudeDegrees>44.0850363112986087799072265625</LatitudeDegrees>
              <LongitudeDegrees>-1.3020057789981365203857421875</LongitudeDegrees>
            </Position>
            <AltitudeMeters>15.6000003814697265625</AltitudeMeters>
            <DistanceMeters>NAN</DistanceMeters>
          </Trackpoint>
          <Trackpoint>
            <Time>2022-07-06T10:20:25.000Z</Time>
            <Position>
              <LatitudeDegrees>44.0850772149860858917236328125</LatitudeDegrees>
              <LongitudeDegrees>-1.30216889083385467529296875</LongitudeDegrees>
            </Position>
            <AltitudeMeters>15.6000003814697265625</AltitudeMeters>
            <DistanceMeters>NAN</DistanceMeters>
          </Trackpoint>
          <Trackpoint>
            <Time>2022-07-06T10:20:31.000Z</Time>
            <Position>
              <LatitudeDegrees>44.085170924663543701171875</LatitudeDegrees>
              <LongitudeDegrees>-1.30244004540145397186279296875</LongitudeDegrees>
            </Position>
            <AltitudeMeters>15.6000003814697265625</AltitudeMeters>
            <DistanceMeters>NAN</DistanceMeters>
          </Trackpoint>
          <Trackpoint>
            <Time>2022-07-06T10:20:34.000Z</Time>
            <Position>
              <LatitudeDegrees>44.085226245224475860595703125</LatitudeDegrees>
              <LongitudeDegrees>-1.30256828851997852325439453125</LongitudeDegrees>
            </Position>
            <AltitudeMeters>15.3999996185302734375</AltitudeMeters>
            <DistanceMeters>NAN</DistanceMeters>
          </Trackpoint>
          <Trackpoint>
            <Time>2022-07-06T10:20:36.000Z</Time>
            <Position>
              <LatitudeDegrees>44.08525943756103515625</LatitudeDegrees>
              <LongitudeDegrees>-1.30265043117105960845947265625</LongitudeDegrees>
            </Position>
            <AltitudeMeters>15.3999996185302734375</AltitudeMeters>
            <DistanceMeters>NAN</DistanceMeters>
          </Trackpoint>
          <Trackpoint>
            <Time>2022-07-06T10:20:38.000Z</Time>
            <Position>
              <LatitudeDegrees>44.08530361019074916839599609375</LatitudeDegrees>
              <LongitudeDegrees>-1.30276224575936794281005859375</LongitudeDegrees>
            </Position>
            <AltitudeMeters>15.3999996185302734375</AltitudeMeters>
            <DistanceMeters>NAN</DistanceMeters>
          </Trackpoint>
          <Trackpoint>
            <Time>2022-07-06T10:20:44.000Z</Time>
            <Position>
              <LatitudeDegrees>44.08545331098139286041259765625</LatitudeDegrees>
              <LongitudeDegrees>-1.303047649562358856201171875</LongitudeDegrees>
            </Position>
            <AltitudeMeters>15.19999980926513671875</AltitudeMeters>
            <DistanceMeters>NAN</DistanceMeters>
          </Trackpoint>
          <Trackpoint>
            <Time>2022-07-06T10:20:46.000Z</Time>
            <Position>
              <LatitudeDegrees>44.08550712279975414276123046875</LatitudeDegrees>
              <LongitudeDegrees>-1.303145885467529296875</LongitudeDegrees>
            </Position>
            <AltitudeMeters>15.19999980926513671875</AltitudeMeters>
            <DistanceMeters>NAN</DistanceMeters>
          </Trackpoint>
          <Trackpoint>
            <Time>2022-07-06T10:20:50.000Z</Time>
            <Position>
              <LatitudeDegrees>44.08559077419340610504150390625</LatitudeDegrees>
              <LongitudeDegrees>-1.30331025458872318267822265625</LongitudeDegrees>
            </Position>
            <AltitudeMeters>15.19999980926513671875</AltitudeMeters>
            <DistanceMeters>NAN</DistanceMeters>
          </Trackpoint>
          <Trackpoint>
            <Time>2022-07-06T10:20:54.000Z</Time>
            <Position>
              <LatitudeDegrees>44.08568699844181537628173828125</LatitudeDegrees>
              <LongitudeDegrees>-1.30351728759706020355224609375</LongitudeDegrees>
            </Position>
            <AltitudeMeters>15.19999980926513671875</AltitudeMeters>
            <DistanceMeters>NAN</DistanceMeters>
          </Trackpoint>
          <Trackpoint>
            <Time>2022-07-06T10:20:56.000Z</Time>
            <Position>
              <LatitudeDegrees>44.085731841623783111572265625</LatitudeDegrees>
              <LongitudeDegrees>-1.3036047108471393585205078125</LongitudeDegrees>
            </Position>
            <AltitudeMeters>15.19999980926513671875</AltitudeMeters>
            <DistanceMeters>NAN</DistanceMeters>
          </Trackpoint>
          <Trackpoint>
            <Time>2022-07-06T10:20:58.000Z</Time>
            <Position>
              <LatitudeDegrees>44.08578255213797092437744140625</LatitudeDegrees>
              <LongitudeDegrees>-1.30369766615331172943115234375</LongitudeDegrees>
            </Position>
            <AltitudeMeters>15.19999980926513671875</AltitudeMeters>
            <DistanceMeters>NAN</DistanceMeters>
          </Trackpoint>
          <Trackpoint>
            <Time>2022-07-06T10:21:02.000Z</Time>
            <Position>
              <LatitudeDegrees>44.08587357960641384124755859375</LatitudeDegrees>
              <LongitudeDegrees>-1.3038886897265911102294921875</LongitudeDegrees>
            </Position>
            <AltitudeMeters>15.19999980926513671875</AltitudeMeters>
            <DistanceMeters>NAN</DistanceMeters>
          </Trackpoint>
          <Trackpoint>
            <Time>2022-07-06T10:21:05.000Z</Time>
            <Position>
              <LatitudeDegrees>44.08593527041375637054443359375</LatitudeDegrees>
              <LongitudeDegrees>-1.30402171052992343902587890625</LongitudeDegrees>
            </Position>
            <AltitudeMeters>15.19999980926513671875</AltitudeMeters>
            <DistanceMeters>NAN</DistanceMeters>
          </Trackpoint>
          <Trackpoint>
            <Time>2022-07-06T10:21:07.000Z</Time>
            <Position>
              <LatitudeDegrees>44.0859720669686794281005859375</LatitudeDegrees>
              <LongitudeDegrees>-1.3041160069406032562255859375</LongitudeDegrees>
            </Position>
            <AltitudeMeters>15.3999996185302734375</AltitudeMeters>
            <DistanceMeters>NAN</DistanceMeters>
          </Trackpoint>
          <Trackpoint>
            <Time>2022-07-06T10:21:08.000Z</Time>
            <Position>
              <LatitudeDegrees>44.0859888307750225067138671875</LatitudeDegrees>
              <LongitudeDegrees>-1.3041723333299160003662109375</LongitudeDegrees>
            </Position>
            <AltitudeMeters>15.3999996185302734375</AltitudeMeters>
            <DistanceMeters>NAN</DistanceMeters>
          </Trackpoint>
          <Trackpoint>
            <Time>2022-07-06T10:21:11.000Z</Time>
            <Position>
              <LatitudeDegrees>44.08603702671825885772705078125</LatitudeDegrees>
              <LongitudeDegrees>-1.3043220341205596923828125</LongitudeDegrees>
            </Position>
            <AltitudeMeters>15.6000003814697265625</AltitudeMeters>
            <DistanceMeters>NAN</DistanceMeters>
          </Trackpoint>
          <Trackpoint>
            <Time>2022-07-06T10:21:17.000Z</Time>
            <Position>
              <LatitudeDegrees>44.08611246384680271148681640625</LatitudeDegrees>
              <LongitudeDegrees>-1.30456804297864437103271484375</LongitudeDegrees>
            </Position>
            <AltitudeMeters>15.6000003814697265625</AltitudeMeters>
            <DistanceMeters>NAN</DistanceMeters>
          </Trackpoint>
          <Trackpoint>
            <Time>2022-07-06T10:21:23.000Z</Time>
            <Position>
              <LatitudeDegrees>44.08617348410189151763916015625</LatitudeDegrees>
              <LongitudeDegrees>-1.304867528378963470458984375</LongitudeDegrees>
            </Position>
            <AltitudeMeters>15.80000019073486328125</AltitudeMeters>
            <DistanceMeters>NAN</DistanceMeters>
          </Trackpoint>
          <Trackpoint>
            <Time>2022-07-06T10:21:29.000Z</Time>
            <Position>
              <LatitudeDegrees>44.0862359292805194854736328125</LatitudeDegrees>
              <LongitudeDegrees>-1.3051982782781124114990234375</LongitudeDegrees>
            </Position>
            <AltitudeMeters>16</AltitudeMeters>
            <DistanceMeters>NAN</DistanceMeters>
          </Trackpoint>
          <Trackpoint>
            <Time>2022-07-06T10:21:36.000Z</Time>
            <Position>
              <LatitudeDegrees>44.0863100253045558929443359375</LatitudeDegrees>
              <LongitudeDegrees>-1.305573619902133941650390625</LongitudeDegrees>
            </Position>
            <AltitudeMeters>16.200000762939453125</AltitudeMeters>
            <DistanceMeters>NAN</DistanceMeters>
          </Trackpoint>
          <Trackpoint>
            <Time>2022-07-06T10:21:37.000Z</Time>
            <Position>
              <LatitudeDegrees>44.086320586502552032470703125</LatitudeDegrees>
              <LongitudeDegrees>-1.305629946291446685791015625</LongitudeDegrees>
            </Position>
            <AltitudeMeters>16.200000762939453125</AltitudeMeters>
            <DistanceMeters>NAN</DistanceMeters>
          </Trackpoint>
          <Trackpoint>
            <Time>2022-07-06T10:21:38.000Z</Time>
            <Position>
              <LatitudeDegrees>44.08633190207183361053466796875</LatitudeDegrees>
              <LongitudeDegrees>-1.30568820051848888397216796875</LongitudeDegrees>
            </Position>
            <AltitudeMeters>16.3999996185302734375</AltitudeMeters>
            <DistanceMeters>NAN</DistanceMeters>
          </Trackpoint>
          <Trackpoint>
            <Time>2022-07-06T10:21:43.000Z</Time>
            <Position>
              <LatitudeDegrees>44.08638529479503631591796875</LatitudeDegrees>
              <LongitudeDegrees>-1.30595256574451923370361328125</LongitudeDegrees>
            </Position>
            <AltitudeMeters>16.799999237060546875</AltitudeMeters>
            <DistanceMeters>NAN</DistanceMeters>
          </Trackpoint>
          <Trackpoint>
            <Time>2022-07-06T10:21:48.000Z</Time>
            <Position>
              <LatitudeDegrees>44.08641924150288105010986328125</LatitudeDegrees>
              <LongitudeDegrees>-1.30618826486170291900634765625</LongitudeDegrees>
            </Position>
            <AltitudeMeters>16.3999996185302734375</AltitudeMeters>
            <DistanceMeters>NAN</DistanceMeters>
          </Trackpoint>
          <Trackpoint>
            <Time>2022-07-06T10:21:50.000Z</Time>
            <Position>
              <LatitudeDegrees>44.08643902279436588287353515625</LatitudeDegrees>
              <LongitudeDegrees>-1.30630209110677242279052734375</LongitudeDegrees>
            </Position>
            <AltitudeMeters>16.200000762939453125</AltitudeMeters>
            <DistanceMeters>NAN</DistanceMeters>
          </Trackpoint>
          <Trackpoint>
            <Time>2022-07-06T10:21:52.000Z</Time>
            <Position>
              <LatitudeDegrees>44.08646643161773681640625</LatitudeDegrees>
              <LongitudeDegrees>-1.3064146600663661956787109375</LongitudeDegrees>
            </Position>
            <AltitudeMeters>16.200000762939453125</AltitudeMeters>
            <DistanceMeters>NAN</DistanceMeters>
          </Trackpoint>
          <Trackpoint>
            <Time>2022-07-06T10:21:53.000Z</Time>
            <Position>
              <LatitudeDegrees>44.08647892065346240997314453125</LatitudeDegrees>
              <LongitudeDegrees>-1.30646268837153911590576171875</LongitudeDegrees>
            </Position>
            <AltitudeMeters>16</AltitudeMeters>
            <DistanceMeters>NAN</DistanceMeters>
          </Trackpoint>
          <Trackpoint>
            <Time>2022-07-06T10:21:58.000Z</Time>
            <Position>
              <LatitudeDegrees>44.08652233891189098358154296875</LatitudeDegrees>
              <LongitudeDegrees>-1.30675856955349445343017578125</LongitudeDegrees>
            </Position>
            <AltitudeMeters>16</AltitudeMeters>
            <DistanceMeters>NAN</DistanceMeters>
          </Trackpoint>
          <Trackpoint>
            <Time>2022-07-06T10:21:59.000Z</Time>
            <Position>
              <LatitudeDegrees>44.08653549849987030029296875</LatitudeDegrees>
              <LongitudeDegrees>-1.3068179972469806671142578125</LongitudeDegrees>
            </Position>
            <AltitudeMeters>16.200000762939453125</AltitudeMeters>
            <DistanceMeters>NAN</DistanceMeters>
          </Trackpoint>
          <Trackpoint>
            <Time>2022-07-06T10:22:01.000Z</Time>
            <Position>
              <LatitudeDegrees>44.0865631587803363800048828125</LatitudeDegrees>
              <LongitudeDegrees>-1.306951940059661865234375</LongitudeDegrees>
            </Position>
            <AltitudeMeters>16.200000762939453125</AltitudeMeters>
            <DistanceMeters>NAN</DistanceMeters>
          </Trackpoint>
          <Trackpoint>
            <Time>2022-07-06T10:22:05.000Z</Time>
            <Position>
              <LatitudeDegrees>44.08661487512290477752685546875</LatitudeDegrees>
              <LongitudeDegrees>-1.30719509907066822052001953125</LongitudeDegrees>
            </Position>
            <AltitudeMeters>16.200000762939453125</AltitudeMeters>
            <DistanceMeters>NAN</DistanceMeters>
          </Trackpoint>
          <Trackpoint>
            <Time>2022-07-06T10:22:08.000Z</Time>
            <Position>
              <LatitudeDegrees>44.0866429544985294342041015625</LatitudeDegrees>
              <LongitudeDegrees>-1.3073584623634815216064453125</LongitudeDegrees>
            </Position>
            <AltitudeMeters>15.6000003814697265625</AltitudeMeters>
            <DistanceMeters>NAN</DistanceMeters>
          </Trackpoint>
          <Trackpoint>
            <Time>2022-07-06T10:22:11.000Z</Time>
            <Position>
              <LatitudeDegrees>44.08666650764644145965576171875</LatitudeDegrees>
              <LongitudeDegrees>-1.30753934383392333984375</LongitudeDegrees>
            </Position>
            <AltitudeMeters>15.6000003814697265625</AltitudeMeters>
            <DistanceMeters>NAN</DistanceMeters>
          </Trackpoint>
          <Trackpoint>
            <Time>2022-07-06T10:22:13.000Z</Time>
            <Position>
              <LatitudeDegrees>44.0866788290441036224365234375</LatitudeDegrees>
              <LongitudeDegrees>-1.3076350651681423187255859375</LongitudeDegrees>
            </Position>
            <AltitudeMeters>15.3999996185302734375</AltitudeMeters>
            <DistanceMeters>NAN</DistanceMeters>
          </Trackpoint>
          <Trackpoint>
            <Time>2022-07-06T10:22:16.000Z</Time>
            <Position>
              <LatitudeDegrees>44.08669651485979557037353515625</LatitudeDegrees>
              <LongitudeDegrees>-1.30780546925961971282958984375</LongitudeDegrees>
            </Position>
            <AltitudeMeters>15.3999996185302734375</AltitudeMeters>
            <DistanceMeters>NAN</DistanceMeters>
          </Trackpoint>
          <Trackpoint>
            <Time>2022-07-06T10:22:23.000Z</Time>
            <Position>
              <LatitudeDegrees>44.08672115765511989593505859375</LatitudeDegrees>
              <LongitudeDegrees>-1.3081312738358974456787109375</LongitudeDegrees>
            </Position>
            <AltitudeMeters>15.3999996185302734375</AltitudeMeters>
            <DistanceMeters>NAN</DistanceMeters>
          </Trackpoint>
          <Trackpoint>
            <Time>2022-07-06T10:22:27.000Z</Time>
            <Position>
              <LatitudeDegrees>44.08671143464744091033935546875</LatitudeDegrees>
              <LongitudeDegrees>-1.3082580082118511199951171875</LongitudeDegrees>
            </Position>
            <AltitudeMeters>15.80000019073486328125</AltitudeMeters>
            <DistanceMeters>NAN</DistanceMeters>
          </Trackpoint>
          <Trackpoint>
            <Time>2022-07-06T10:22:32.000Z</Time>
            <Position>
              <LatitudeDegrees>44.08671252429485321044921875</LatitudeDegrees>
              <LongitudeDegrees>-1.30838918499648571014404296875</LongitudeDegrees>
            </Position>
            <AltitudeMeters>16.3999996185302734375</AltitudeMeters>
            <DistanceMeters>NAN</DistanceMeters>
          </Trackpoint>
          <Trackpoint>
            <Time>2022-07-06T10:22:33.000Z</Time>
            <Position>
              <LatitudeDegrees>44.08672115765511989593505859375</LatitudeDegrees>
              <LongitudeDegrees>-1.308409385383129119873046875</LongitudeDegrees>
            </Position>
            <AltitudeMeters>16.6000003814697265625</AltitudeMeters>
            <DistanceMeters>NAN</DistanceMeters>
          </Trackpoint>
          <Trackpoint>
            <Time>2022-07-06T10:22:37.000Z</Time>
            <Position>
              <LatitudeDegrees>44.086722247302532196044921875</LatitudeDegrees>
              <LongitudeDegrees>-1.30855866707861423492431640625</LongitudeDegrees>
            </Position>
            <AltitudeMeters>16.6000003814697265625</AltitudeMeters>
            <DistanceMeters>NAN</DistanceMeters>
          </Trackpoint>
          <Trackpoint>
            <Time>2022-07-06T10:22:43.000Z</Time>
            <Position>
              <LatitudeDegrees>44.08665108494460582733154296875</LatitudeDegrees>
              <LongitudeDegrees>-1.30889729596674442291259765625</LongitudeDegrees>
            </Position>
            <AltitudeMeters>16.3999996185302734375</AltitudeMeters>
            <DistanceMeters>NAN</DistanceMeters>
          </Trackpoint>
          <Trackpoint>
            <Time>2022-07-06T10:22:48.000Z</Time>
            <Position>
              <LatitudeDegrees>44.08657975494861602783203125</LatitudeDegrees>
              <LongitudeDegrees>-1.30918663926422595977783203125</LongitudeDegrees>
            </Position>
            <AltitudeMeters>16</AltitudeMeters>
            <DistanceMeters>NAN</DistanceMeters>
          </Trackpoint>
          <Trackpoint>
            <Time>2022-07-06T10:22:49.000Z</Time>
            <Position>
              <LatitudeDegrees>44.08656508661806583404541015625</LatitudeDegrees>
              <LongitudeDegrees>-1.30928303115069866180419921875</LongitudeDegrees>
            </Position>
            <AltitudeMeters>15.6000003814697265625</AltitudeMeters>
            <DistanceMeters>NAN</DistanceMeters>
          </Trackpoint>
          <Trackpoint>
            <Time>2022-07-06T10:22:50.000Z</Time>
            <Position>
              <LatitudeDegrees>44.08656525425612926483154296875</LatitudeDegrees>
              <LongitudeDegrees>-1.30936391651630401611328125</LongitudeDegrees>
            </Position>
            <AltitudeMeters>15.3999996185302734375</AltitudeMeters>
            <DistanceMeters>NAN</DistanceMeters>
          </Trackpoint>
          <Trackpoint>
            <Time>2022-07-06T10:22:52.000Z</Time>
            <Position>
              <LatitudeDegrees>44.08656441606581211090087890625</LatitudeDegrees>
              <LongitudeDegrees>-1.3094933331012725830078125</LongitudeDegrees>
            </Position>
            <AltitudeMeters>15.19999980926513671875</AltitudeMeters>
            <DistanceMeters>NAN</DistanceMeters>
          </Trackpoint>
          <Trackpoint>
            <Time>2022-07-06T10:22:58.000Z</Time>
            <Position>
              <LatitudeDegrees>44.086547903716564178466796875</LatitudeDegrees>
              <LongitudeDegrees>-1.30990480072796344757080078125</LongitudeDegrees>
            </Position>
            <AltitudeMeters>15.19999980926513671875</AltitudeMeters>
            <DistanceMeters>NAN</DistanceMeters>
          </Trackpoint>
          <Trackpoint>
            <Time>2022-07-06T10:23:02.000Z</Time>
            <Position>
              <LatitudeDegrees>44.08655419014394283294677734375</LatitudeDegrees>
              <LongitudeDegrees>-1.310050226747989654541015625</LongitudeDegrees>
            </Position>
            <AltitudeMeters>15.3999996185302734375</AltitudeMeters>
            <DistanceMeters>NAN</DistanceMeters>
          </Trackpoint>
          <Trackpoint>
            <Time>2022-07-06T10:23:03.000Z</Time>
            <Position>
              <LatitudeDegrees>44.08654530532658100128173828125</LatitudeDegrees>
              <LongitudeDegrees>-1.31008266471326351165771484375</LongitudeDegrees>
            </Position>
            <AltitudeMeters>15.3999996185302734375</AltitudeMeters>
            <DistanceMeters>NAN</DistanceMeters>
          </Trackpoint>
          <Trackpoint>
            <Time>2022-07-06T10:23:04.000Z</Time>
            <Position>
              <LatitudeDegrees>44.0865455567836761474609375</LatitudeDegrees>
              <LongitudeDegrees>-1.31010479293763637542724609375</LongitudeDegrees>
            </Position>
            <AltitudeMeters>15.6000003814697265625</AltitudeMeters>
            <DistanceMeters>NAN</DistanceMeters>
          </Trackpoint>
          <Trackpoint>
            <Time>2022-07-06T10:23:06.000Z</Time>
            <Position>
              <LatitudeDegrees>44.08657128922641277313232421875</LatitudeDegrees>
              <LongitudeDegrees>-1.31014284677803516387939453125</LongitudeDegrees>
            </Position>
            <AltitudeMeters>15.80000019073486328125</AltitudeMeters>
            <DistanceMeters>NAN</DistanceMeters>
          </Trackpoint>
          <Trackpoint>
            <Time>2022-07-06T10:23:11.000Z</Time>
            <Position>
              <LatitudeDegrees>44.08664924092590808868408203125</LatitudeDegrees>
              <LongitudeDegrees>-1.31025147624313831329345703125</LongitudeDegrees>
            </Position>
            <AltitudeMeters>16.200000762939453125</AltitudeMeters>
            <DistanceMeters>NAN</DistanceMeters>
          </Trackpoint>
          <Trackpoint>
            <Time>2022-07-06T10:23:15.000Z</Time>
            <Position>
              <LatitudeDegrees>44.0867579542100429534912109375</LatitudeDegrees>
              <LongitudeDegrees>-1.3103186152875423431396484375</LongitudeDegrees>
            </Position>
            <AltitudeMeters>16.3999996185302734375</AltitudeMeters>
            <DistanceMeters>NAN</DistanceMeters>
          </Trackpoint>
          <Trackpoint>
            <Time>2022-07-06T10:23:16.000Z</Time>
            <Position>
              <LatitudeDegrees>44.0867763943970203399658203125</LatitudeDegrees>
              <LongitudeDegrees>-1.31033328361809253692626953125</LongitudeDegrees>
            </Position>
            <AltitudeMeters>16.3999996185302734375</AltitudeMeters>
            <DistanceMeters>NAN</DistanceMeters>
          </Trackpoint>
          <Trackpoint>
            <Time>2022-07-06T10:23:23.000Z</Time>
            <Position>
              <LatitudeDegrees>44.08694311045110225677490234375</LatitudeDegrees>
              <LongitudeDegrees>-1.3104347884654998779296875</LongitudeDegrees>
            </Position>
            <AltitudeMeters>16.3999996185302734375</AltitudeMeters>
            <DistanceMeters>NAN</DistanceMeters>
          </Trackpoint>
          <Trackpoint>
            <Time>2022-07-06T10:23:26.000Z</Time>
            <Position>
              <LatitudeDegrees>44.08701402135193347930908203125</LatitudeDegrees>
              <LongitudeDegrees>-1.31048382259905338287353515625</LongitudeDegrees>
            </Position>
            <AltitudeMeters>16.799999237060546875</AltitudeMeters>
            <DistanceMeters>NAN</DistanceMeters>
          </Trackpoint>
          <Trackpoint>
            <Time>2022-07-06T10:23:33.000Z</Time>
            <Position>
              <LatitudeDegrees>44.08715307712554931640625</LatitudeDegrees>
              <LongitudeDegrees>-1.31061977706849575042724609375</LongitudeDegrees>
            </Position>
            <AltitudeMeters>16</AltitudeMeters>
            <DistanceMeters>NAN</DistanceMeters>
          </Trackpoint>
          <Trackpoint>
            <Time>2022-07-06T10:23:39.000Z</Time>
            <Position>
              <LatitudeDegrees>44.08725273795425891876220703125</LatitudeDegrees>
              <LongitudeDegrees>-1.31075204350054264068603515625</LongitudeDegrees>
            </Position>
            <AltitudeMeters>16.200000762939453125</AltitudeMeters>
            <DistanceMeters>NAN</DistanceMeters>
          </Trackpoint>
          <Trackpoint>
            <Time>2022-07-06T10:23:45.000Z</Time>
            <Position>
              <LatitudeDegrees>44.08732130192220211029052734375</LatitudeDegrees>
              <LongitudeDegrees>-1.31090828217566013336181640625</LongitudeDegrees>
            </Position>
            <AltitudeMeters>16</AltitudeMeters>
            <DistanceMeters>NAN</DistanceMeters>
          </Trackpoint>
          <Trackpoint>
            <Time>2022-07-06T10:23:47.000Z</Time>
            <Position>
              <LatitudeDegrees>44.08732130192220211029052734375</LatitudeDegrees>
              <LongitudeDegrees>-1.31090828217566013336181640625</LongitudeDegrees>
            </Position>
            <AltitudeMeters>15.80000019073486328125</AltitudeMeters>
            <DistanceMeters>NAN</DistanceMeters>
          </Trackpoint>
          <Trackpoint>
            <Time>2022-07-06T10:24:06.000Z</Time>
            <Position>
              <LatitudeDegrees>44.08734812401235103607177734375</LatitudeDegrees>
              <LongitudeDegrees>-1.31099344231188297271728515625</LongitudeDegrees>
            </Position>
            <AltitudeMeters>16</AltitudeMeters>
            <DistanceMeters>NAN</DistanceMeters>
          </Trackpoint>
          <Trackpoint>
            <Time>2022-07-06T10:24:07.000Z</Time>
            <Position>
              <LatitudeDegrees>44.08736187033355236053466796875</LatitudeDegrees>
              <LongitudeDegrees>-1.31103417836129665374755859375</LongitudeDegrees>
            </Position>
            <AltitudeMeters>16.200000762939453125</AltitudeMeters>
            <DistanceMeters>NAN</DistanceMeters>
          </Trackpoint>
          <Trackpoint>
            <Time>2022-07-06T10:24:14.000Z</Time>
            <Position>
              <LatitudeDegrees>44.08747469075024127960205078125</LatitudeDegrees>
              <LongitudeDegrees>-1.3113574683666229248046875</LongitudeDegrees>
            </Position>
            <AltitudeMeters>16.6000003814697265625</AltitudeMeters>
            <DistanceMeters>NAN</DistanceMeters>
          </Trackpoint>
          <Trackpoint>
            <Time>2022-07-06T10:24:21.000Z</Time>
            <Position>
              <LatitudeDegrees>44.08757627941668033599853515625</LatitudeDegrees>
              <LongitudeDegrees>-1.311666928231716156005859375</LongitudeDegrees>
            </Position>
            <AltitudeMeters>16.3999996185302734375</AltitudeMeters>
            <DistanceMeters>NAN</DistanceMeters>
          </Trackpoint>
          <Trackpoint>
            <Time>2022-07-06T10:24:25.000Z</Time>
            <Position>
              <LatitudeDegrees>44.087626151740550994873046875</LatitudeDegrees>
              <LongitudeDegrees>-1.3118411041796207427978515625</LongitudeDegrees>
            </Position>
            <AltitudeMeters>16.200000762939453125</AltitudeMeters>
            <DistanceMeters>NAN</DistanceMeters>
          </Trackpoint>
          <Trackpoint>
            <Time>2022-07-06T10:24:27.000Z</Time>
            <Position>
              <LatitudeDegrees>44.08765087835490703582763671875</LatitudeDegrees>
              <LongitudeDegrees>-1.31193305365741252899169921875</LongitudeDegrees>
            </Position>
            <AltitudeMeters>16.200000762939453125</AltitudeMeters>
            <DistanceMeters>NAN</DistanceMeters>
          </Trackpoint>
          <Trackpoint>
            <Time>2022-07-06T10:24:35.000Z</Time>
            <Position>
              <LatitudeDegrees>44.08777006901800632476806640625</LatitudeDegrees>
              <LongitudeDegrees>-1.3123168610036373138427734375</LongitudeDegrees>
            </Position>
            <AltitudeMeters>16.3999996185302734375</AltitudeMeters>
            <DistanceMeters>NAN</DistanceMeters>
          </Trackpoint>
          <Trackpoint>
            <Time>2022-07-06T10:24:41.000Z</Time>
            <Position>
              <LatitudeDegrees>44.08786411397159099578857421875</LatitudeDegrees>
              <LongitudeDegrees>-1.3126341998577117919921875</LongitudeDegrees>
            </Position>
            <AltitudeMeters>16</AltitudeMeters>
            <DistanceMeters>NAN</DistanceMeters>
          </Trackpoint>
          <Trackpoint>
            <Time>2022-07-06T10:24:45.000Z</Time>
            <Position>
              <LatitudeDegrees>44.087906777858734130859375</LatitudeDegrees>
              <LongitudeDegrees>-1.312792114913463592529296875</LongitudeDegrees>
            </Position>
            <AltitudeMeters>16</AltitudeMeters>
            <DistanceMeters>NAN</DistanceMeters>
          </Trackpoint>
          <Trackpoint>
            <Time>2022-07-06T10:24:46.000Z</Time>
            <Position>
              <LatitudeDegrees>44.0879196859896183013916015625</LatitudeDegrees>
              <LongitudeDegrees>-1.31284818984568119049072265625</LongitudeDegrees>
            </Position>
            <AltitudeMeters>16</AltitudeMeters>
            <DistanceMeters>NAN</DistanceMeters>
          </Trackpoint>
          <Trackpoint>
            <Time>2022-07-06T10:24:50.000Z</Time>
            <Position>
              <LatitudeDegrees>44.08797894604504108428955078125</LatitudeDegrees>
              <LongitudeDegrees>-1.3130745850503444671630859375</LongitudeDegrees>
            </Position>
            <AltitudeMeters>16</AltitudeMeters>
            <DistanceMeters>NAN</DistanceMeters>
          </Trackpoint>
          <Trackpoint>
            <Time>2022-07-06T10:24:56.000Z</Time>
            <Position>
              <LatitudeDegrees>44.08806796185672283172607421875</LatitudeDegrees>
              <LongitudeDegrees>-1.31335361860692501068115234375</LongitudeDegrees>
            </Position>
            <AltitudeMeters>15.80000019073486328125</AltitudeMeters>
            <DistanceMeters>NAN</DistanceMeters>
          </Trackpoint>
          <Trackpoint>
            <Time>2022-07-06T10:25:03.000Z</Time>
            <Position>
              <LatitudeDegrees>44.0881966240704059600830078125</LatitudeDegrees>
              <LongitudeDegrees>-1.31376801989972591400146484375</LongitudeDegrees>
            </Position>
            <AltitudeMeters>16</AltitudeMeters>
            <DistanceMeters>NAN</DistanceMeters>
          </Trackpoint>
          <Trackpoint>
            <Time>2022-07-06T10:25:04.000Z</Time>
            <Position>
              <LatitudeDegrees>44.088217578828334808349609375</LatitudeDegrees>
              <LongitudeDegrees>-1.313826777040958404541015625</LongitudeDegrees>
            </Position>
            <AltitudeMeters>16</AltitudeMeters>
            <DistanceMeters>NAN</DistanceMeters>
          </Trackpoint>
          <Trackpoint>
            <Time>2022-07-06T10:25:10.000Z</Time>
            <Position>
              <LatitudeDegrees>44.08832453191280364990234375</LatitudeDegrees>
              <LongitudeDegrees>-1.31416381336748600006103515625</LongitudeDegrees>
            </Position>
            <AltitudeMeters>15.80000019073486328125</AltitudeMeters>
            <DistanceMeters>NAN</DistanceMeters>
          </Trackpoint>
          <Trackpoint>
            <Time>2022-07-06T10:25:13.000Z</Time>
            <Position>
              <LatitudeDegrees>44.08838027156889438629150390625</LatitudeDegrees>
              <LongitudeDegrees>-1.31433941423892974853515625</LongitudeDegrees>
            </Position>
            <AltitudeMeters>15.6000003814697265625</AltitudeMeters>
            <DistanceMeters>NAN</DistanceMeters>
          </Trackpoint>
          <Trackpoint>
            <Time>2022-07-06T10:25:14.000Z</Time>
            <Position>
              <LatitudeDegrees>44.08839695155620574951171875</LatitudeDegrees>
              <LongitudeDegrees>-1.31439934484660625457763671875</LongitudeDegrees>
            </Position>
            <AltitudeMeters>15.6000003814697265625</AltitudeMeters>
            <DistanceMeters>NAN</DistanceMeters>
          </Trackpoint>
          <Trackpoint>
            <Time>2022-07-06T10:25:16.000Z</Time>
            <Position>
              <LatitudeDegrees>44.08842335455119609832763671875</LatitudeDegrees>
              <LongitudeDegrees>-1.3144854269921779632568359375</LongitudeDegrees>
            </Position>
            <AltitudeMeters>15.6000003814697265625</AltitudeMeters>
            <DistanceMeters>NAN</DistanceMeters>
          </Trackpoint>
          <Trackpoint>
            <Time>2022-07-06T10:25:17.000Z</Time>
            <Position>
              <LatitudeDegrees>44.08843718469142913818359375</LatitudeDegrees>
              <LongitudeDegrees>-1.314545609056949615478515625</LongitudeDegrees>
            </Position>
            <AltitudeMeters>15.3999996185302734375</AltitudeMeters>
            <DistanceMeters>NAN</DistanceMeters>
          </Trackpoint>
          <Trackpoint>
            <Time>2022-07-06T10:25:19.000Z</Time>
            <Position>
              <LatitudeDegrees>44.08847875893115997314453125</LatitudeDegrees>
              <LongitudeDegrees>-1.31467661820352077484130859375</LongitudeDegrees>
            </Position>
            <AltitudeMeters>15.3999996185302734375</AltitudeMeters>
            <DistanceMeters>NAN</DistanceMeters>
          </Trackpoint>
          <Trackpoint>
            <Time>2022-07-06T10:25:25.000Z</Time>
            <Position>
              <LatitudeDegrees>44.08861027099192142486572265625</LatitudeDegrees>
              <LongitudeDegrees>-1.31502446718513965606689453125</LongitudeDegrees>
            </Position>
            <AltitudeMeters>15.19999980926513671875</AltitudeMeters>
            <DistanceMeters>NAN</DistanceMeters>
          </Trackpoint>
          <Trackpoint>
            <Time>2022-07-06T10:25:27.000Z</Time>
            <Position>
              <LatitudeDegrees>44.08865352161228656768798828125</LatitudeDegrees>
              <LongitudeDegrees>-1.31511515937745571136474609375</LongitudeDegrees>
            </Position>
            <AltitudeMeters>15</AltitudeMeters>
            <DistanceMeters>NAN</DistanceMeters>
          </Trackpoint>
          <Trackpoint>
            <Time>2022-07-06T10:25:29.000Z</Time>
            <Position>
              <LatitudeDegrees>44.0886888094246387481689453125</LatitudeDegrees>
              <LongitudeDegrees>-1.3152267225086688995361328125</LongitudeDegrees>
            </Position>
            <AltitudeMeters>15</AltitudeMeters>
            <DistanceMeters>NAN</DistanceMeters>
          </Trackpoint>
          <Trackpoint>
            <Time>2022-07-06T10:25:31.000Z</Time>
            <Position>
              <LatitudeDegrees>44.0887206606566905975341796875</LatitudeDegrees>
              <LongitudeDegrees>-1.315337531268596649169921875</LongitudeDegrees>
            </Position>
            <AltitudeMeters>15</AltitudeMeters>
            <DistanceMeters>NAN</DistanceMeters>
          </Trackpoint>
          <Trackpoint>
            <Time>2022-07-06T10:25:38.000Z</Time>
            <Position>
              <LatitudeDegrees>44.08883876167237758636474609375</LatitudeDegrees>
              <LongitudeDegrees>-1.3157241046428680419921875</LongitudeDegrees>
            </Position>
            <AltitudeMeters>15</AltitudeMeters>
            <DistanceMeters>NAN</DistanceMeters>
          </Trackpoint>
          <Trackpoint>
            <Time>2022-07-06T10:25:47.000Z</Time>
            <Position>
              <LatitudeDegrees>44.08897169865667819976806640625</LatitudeDegrees>
              <LongitudeDegrees>-1.3161537609994411468505859375</LongitudeDegrees>
            </Position>
            <AltitudeMeters>14.80000019073486328125</AltitudeMeters>
            <DistanceMeters>NAN</DistanceMeters>
          </Trackpoint>
          <Trackpoint>
            <Time>2022-07-06T10:25:52.000Z</Time>
            <Position>
              <LatitudeDegrees>44.08902995288372039794921875</LatitudeDegrees>
              <LongitudeDegrees>-1.3163549266755580902099609375</LongitudeDegrees>
            </Position>
            <AltitudeMeters>15.19999980926513671875</AltitudeMeters>
            <DistanceMeters>NAN</DistanceMeters>
          </Trackpoint>
          <Trackpoint>
            <Time>2022-07-06T10:25:53.000Z</Time>
            <Position>
              <LatitudeDegrees>44.0890398435294628143310546875</LatitudeDegrees>
              <LongitudeDegrees>-1.31639440543949604034423828125</LongitudeDegrees>
            </Position>
            <AltitudeMeters>15.19999980926513671875</AltitudeMeters>
            <DistanceMeters>NAN</DistanceMeters>
          </Trackpoint>
          <Trackpoint>
            <Time>2022-07-06T10:25:56.000Z</Time>
            <Position>
              <LatitudeDegrees>44.08907647244632244110107421875</LatitudeDegrees>
              <LongitudeDegrees>-1.3165151886641979217529296875</LongitudeDegrees>
            </Position>
            <AltitudeMeters>15.3999996185302734375</AltitudeMeters>
            <DistanceMeters>NAN</DistanceMeters>
          </Trackpoint>
          <Trackpoint>
            <Time>2022-07-06T10:25:58.000Z</Time>
            <Position>
              <LatitudeDegrees>44.08908887766301631927490234375</LatitudeDegrees>
              <LongitudeDegrees>-1.31660177372395992279052734375</LongitudeDegrees>
            </Position>
            <AltitudeMeters>15.3999996185302734375</AltitudeMeters>
            <DistanceMeters>NAN</DistanceMeters>
          </Trackpoint>
          <Trackpoint>
            <Time>2022-07-06T10:26:01.000Z</Time>
            <Position>
              <LatitudeDegrees>44.0891176275908946990966796875</LatitudeDegrees>
              <LongitudeDegrees>-1.31673060357570648193359375</LongitudeDegrees>
            </Position>
            <AltitudeMeters>15.6000003814697265625</AltitudeMeters>
            <DistanceMeters>NAN</DistanceMeters>
          </Trackpoint>
          <Trackpoint>
            <Time>2022-07-06T10:26:03.000Z</Time>
            <Position>
              <LatitudeDegrees>44.08914419822394847869873046875</LatitudeDegrees>
              <LongitudeDegrees>-1.31681718863546848297119140625</LongitudeDegrees>
            </Position>
            <AltitudeMeters>15.6000003814697265625</AltitudeMeters>
            <DistanceMeters>NAN</DistanceMeters>
          </Trackpoint>
          <Trackpoint>
            <Time>2022-07-06T10:26:07.000Z</Time>
            <Position>
              <LatitudeDegrees>44.08919616602361202239990234375</LatitudeDegrees>
              <LongitudeDegrees>-1.31698097102344036102294921875</LongitudeDegrees>
            </Position>
            <AltitudeMeters>15.3999996185302734375</AltitudeMeters>
            <DistanceMeters>NAN</DistanceMeters>
          </Trackpoint>
          <Trackpoint>
            <Time>2022-07-06T10:26:12.000Z</Time>
            <Position>
              <LatitudeDegrees>44.08926338888704776763916015625</LatitudeDegrees>
              <LongitudeDegrees>-1.317194961011409759521484375</LongitudeDegrees>
            </Position>
            <AltitudeMeters>15.3999996185302734375</AltitudeMeters>
            <DistanceMeters>NAN</DistanceMeters>
          </Trackpoint>
          <Trackpoint>
            <Time>2022-07-06T10:26:16.000Z</Time>
            <Position>
              <LatitudeDegrees>44.08931300975382328033447265625</LatitudeDegrees>
              <LongitudeDegrees>-1.31735933013260364532470703125</LongitudeDegrees>
            </Position>
            <AltitudeMeters>15.6000003814697265625</AltitudeMeters>
            <DistanceMeters>NAN</DistanceMeters>
          </Trackpoint>
          <Trackpoint>
            <Time>2022-07-06T10:26:21.000Z</Time>
            <Position>
              <LatitudeDegrees>44.08937252126634120941162109375</LatitudeDegrees>
              <LongitudeDegrees>-1.3175488449633121490478515625</LongitudeDegrees>
            </Position>
            <AltitudeMeters>15.6000003814697265625</AltitudeMeters>
            <DistanceMeters>NAN</DistanceMeters>
          </Trackpoint>
          <Trackpoint>
            <Time>2022-07-06T10:26:27.000Z</Time>
            <Position>
              <LatitudeDegrees>44.0894468687474727630615234375</LatitudeDegrees>
              <LongitudeDegrees>-1.31780155934393405914306640625</LongitudeDegrees>
            </Position>
            <AltitudeMeters>16</AltitudeMeters>
            <DistanceMeters>NAN</DistanceMeters>
          </Trackpoint>
          <Trackpoint>
            <Time>2022-07-06T10:26:30.000Z</Time>
            <Position>
              <LatitudeDegrees>44.0894783847033977508544921875</LatitudeDegrees>
              <LongitudeDegrees>-1.3179194927215576171875</LongitudeDegrees>
            </Position>
            <AltitudeMeters>16</AltitudeMeters>
            <DistanceMeters>NAN</DistanceMeters>
          </Trackpoint>
          <Trackpoint>
            <Time>2022-07-06T10:26:35.000Z</Time>
            <Position>
              <LatitudeDegrees>44.0895397402346134185791015625</LatitudeDegrees>
              <LongitudeDegrees>-1.31811956875026226043701171875</LongitudeDegrees>
            </Position>
            <AltitudeMeters>16.3999996185302734375</AltitudeMeters>
            <DistanceMeters>NAN</DistanceMeters>
          </Trackpoint>
          <Trackpoint>
            <Time>2022-07-06T10:26:39.000Z</Time>
            <Position>
              <LatitudeDegrees>44.0895950607955455780029296875</LatitudeDegrees>
              <LongitudeDegrees>-1.318276561796665191650390625</LongitudeDegrees>
            </Position>
            <AltitudeMeters>16.6000003814697265625</AltitudeMeters>
            <DistanceMeters>NAN</DistanceMeters>
          </Trackpoint>
          <Trackpoint>
            <Time>2022-07-06T10:26:45.000Z</Time>
            <Position>
              <LatitudeDegrees>44.089686088263988494873046875</LatitudeDegrees>
              <LongitudeDegrees>-1.3184919767081737518310546875</LongitudeDegrees>
            </Position>
            <AltitudeMeters>16.6000003814697265625</AltitudeMeters>
            <DistanceMeters>NAN</DistanceMeters>
          </Trackpoint>
          <Trackpoint>
            <Time>2022-07-06T10:26:46.000Z</Time>
            <Position>
              <LatitudeDegrees>44.08970477990806102752685546875</LatitudeDegrees>
              <LongitudeDegrees>-1.3185301981866359710693359375</LongitudeDegrees>
            </Position>
            <AltitudeMeters>16.6000003814697265625</AltitudeMeters>
            <DistanceMeters>NAN</DistanceMeters>
          </Trackpoint>
          <Trackpoint>
            <Time>2022-07-06T10:26:55.000Z</Time>
            <Position>
              <LatitudeDegrees>44.08987107686698436737060546875</LatitudeDegrees>
              <LongitudeDegrees>-1.31881878711283206939697265625</LongitudeDegrees>
            </Position>
            <AltitudeMeters>17</AltitudeMeters>
            <DistanceMeters>NAN</DistanceMeters>
          </Trackpoint>
          <Trackpoint>
            <Time>2022-07-06T10:27:05.000Z</Time>
            <Position>
              <LatitudeDegrees>44.0900941193103790283203125</LatitudeDegrees>
              <LongitudeDegrees>-1.3190854154527187347412109375</LongitudeDegrees>
            </Position>
            <AltitudeMeters>17.3999996185302734375</AltitudeMeters>
            <DistanceMeters>NAN</DistanceMeters>
          </Trackpoint>
          <Trackpoint>
            <Time>2022-07-06T10:27:07.000Z</Time>
            <Position>
              <LatitudeDegrees>44.0901422314345836639404296875</LatitudeDegrees>
              <LongitudeDegrees>-1.31913947872817516326904296875</LongitudeDegrees>
            </Position>
            <AltitudeMeters>17.6000003814697265625</AltitudeMeters>
            <DistanceMeters>NAN</DistanceMeters>
          </Trackpoint>
          <Trackpoint>
            <Time>2022-07-06T10:27:16.000Z</Time>
            <Position>
              <LatitudeDegrees>44.0903343446552753448486328125</LatitudeDegrees>
              <LongitudeDegrees>-1.319338716566562652587890625</LongitudeDegrees>
            </Position>
            <AltitudeMeters>18</AltitudeMeters>
            <DistanceMeters>NAN</DistanceMeters>
          </Trackpoint>
          <Trackpoint>
            <Time>2022-07-06T10:27:23.000Z</Time>
            <Position>
              <LatitudeDegrees>44.09047021530568599700927734375</LatitudeDegrees>
              <LongitudeDegrees>-1.31949386559426784515380859375</LongitudeDegrees>
            </Position>
            <AltitudeMeters>17.6000003814697265625</AltitudeMeters>
            <DistanceMeters>NAN</DistanceMeters>
          </Trackpoint>
          <Trackpoint>
            <Time>2022-07-06T10:27:31.000Z</Time>
            <Position>
              <LatitudeDegrees>44.09063533879816532135009765625</LatitudeDegrees>
              <LongitudeDegrees>-1.3196691311895847320556640625</LongitudeDegrees>
            </Position>
            <AltitudeMeters>18.200000762939453125</AltitudeMeters>
            <DistanceMeters>NAN</DistanceMeters>
          </Trackpoint>
          <Trackpoint>
            <Time>2022-07-06T10:27:34.000Z</Time>
            <Position>
              <LatitudeDegrees>44.09069065935909748077392578125</LatitudeDegrees>
              <LongitudeDegrees>-1.31973459385335445404052734375</LongitudeDegrees>
            </Position>
            <AltitudeMeters>18.3999996185302734375</AltitudeMeters>
            <DistanceMeters>NAN</DistanceMeters>
          </Trackpoint>
          <Trackpoint>
            <Time>2022-07-06T10:27:38.000Z</Time>
            <Position>
              <LatitudeDegrees>44.090769030153751373291015625</LatitudeDegrees>
              <LongitudeDegrees>-1.3198250345885753631591796875</LongitudeDegrees>
            </Position>
            <AltitudeMeters>18.6000003814697265625</AltitudeMeters>
            <DistanceMeters>NAN</DistanceMeters>
          </Trackpoint>
          <Trackpoint>
            <Time>2022-07-06T10:27:39.000Z</Time>
            <Position>
              <LatitudeDegrees>44.0907819382846355438232421875</LatitudeDegrees>
              <LongitudeDegrees>-1.3198384456336498260498046875</LongitudeDegrees>
            </Position>
            <AltitudeMeters>18.799999237060546875</AltitudeMeters>
            <DistanceMeters>NAN</DistanceMeters>
          </Trackpoint>
          <Trackpoint>
            <Time>2022-07-06T10:27:46.000Z</Time>
            <Position>
              <LatitudeDegrees>44.09088067710399627685546875</LatitudeDegrees>
              <LongitudeDegrees>-1.3200282119214534759521484375</LongitudeDegrees>
            </Position>
            <AltitudeMeters>19</AltitudeMeters>
            <DistanceMeters>NAN</DistanceMeters>
          </Trackpoint>
          <Trackpoint>
            <Time>2022-07-06T10:27:55.000Z</Time>
            <Position>
              <LatitudeDegrees>44.0909609757363796234130859375</LatitudeDegrees>
              <LongitudeDegrees>-1.32024941034615039825439453125</LongitudeDegrees>
            </Position>
            <AltitudeMeters>19.799999237060546875</AltitudeMeters>
            <DistanceMeters>NAN</DistanceMeters>
          </Trackpoint>
          <Trackpoint>
            <Time>2022-07-06T10:28:05.000Z</Time>
            <Position>
              <LatitudeDegrees>44.09100229851901531219482421875</LatitudeDegrees>
              <LongitudeDegrees>-1.3205197267234325408935546875</LongitudeDegrees>
            </Position>
            <AltitudeMeters>20.3999996185302734375</AltitudeMeters>
            <DistanceMeters>NAN</DistanceMeters>
          </Trackpoint>
          <Trackpoint>
            <Time>2022-07-06T10:28:10.000Z</Time>
            <Position>
              <LatitudeDegrees>44.09101922996342182159423828125</LatitudeDegrees>
              <LongitudeDegrees>-1.320626847445964813232421875</LongitudeDegrees>
            </Position>
            <AltitudeMeters>20.799999237060546875</AltitudeMeters>
            <DistanceMeters>NAN</DistanceMeters>
          </Trackpoint>
          <Trackpoint>
            <Time>2022-07-06T10:28:15.000Z</Time>
            <Position>
              <LatitudeDegrees>44.09107957966625690460205078125</LatitudeDegrees>
              <LongitudeDegrees>-1.320633552968502044677734375</LongitudeDegrees>
            </Position>
            <AltitudeMeters>20.799999237060546875</AltitudeMeters>
            <DistanceMeters>NAN</DistanceMeters>
          </Trackpoint>
          <Trackpoint>
            <Time>2022-07-06T10:28:17.000Z</Time>
            <Position>
              <LatitudeDegrees>44.09107890911400318145751953125</LatitudeDegrees>
              <LongitudeDegrees>-1.320634223520755767822265625</LongitudeDegrees>
            </Position>
            <AltitudeMeters>20.799999237060546875</AltitudeMeters>
            <DistanceMeters>NAN</DistanceMeters>
          </Trackpoint>
          <Trackpoint>
            <Time>2022-07-06T10:28:22.000Z</Time>
            <Position>
              <LatitudeDegrees>44.0910283662378787994384765625</LatitudeDegrees>
              <LongitudeDegrees>-1.32067252881824970245361328125</LongitudeDegrees>
            </Position>
            <AltitudeMeters>20.6000003814697265625</AltitudeMeters>
            <DistanceMeters>NAN</DistanceMeters>
          </Trackpoint>
          <Trackpoint>
            <Time>2022-07-06T10:28:23.000Z</Time>
            <Position>
              <LatitudeDegrees>44.09101185388863086700439453125</LatitudeDegrees>
              <LongitudeDegrees>-1.32069398649036884307861328125</LongitudeDegrees>
            </Position>
            <AltitudeMeters>20.6000003814697265625</AltitudeMeters>
            <DistanceMeters>NAN</DistanceMeters>
          </Trackpoint>
          <Trackpoint>
            <Time>2022-07-06T10:28:28.000Z</Time>
            <Position>
              <LatitudeDegrees>44.0909931622445583343505859375</LatitudeDegrees>
              <LongitudeDegrees>-1.3208739459514617919921875</LongitudeDegrees>
            </Position>
            <AltitudeMeters>20.799999237060546875</AltitudeMeters>
            <DistanceMeters>NAN</DistanceMeters>
          </Trackpoint>
          <Trackpoint>
            <Time>2022-07-06T10:28:37.000Z</Time>
            <Position>
              <LatitudeDegrees>44.0909931622445583343505859375</LatitudeDegrees>
              <LongitudeDegrees>-1.3211859203875064849853515625</LongitudeDegrees>
            </Position>
            <AltitudeMeters>21.6000003814697265625</AltitudeMeters>
            <DistanceMeters>NAN</DistanceMeters>
          </Trackpoint>
          <Trackpoint>
            <Time>2022-07-06T10:28:38.000Z</Time>
            <Position>
              <LatitudeDegrees>44.0909991972148418426513671875</LatitudeDegrees>
              <LongitudeDegrees>-1.32120226509869098663330078125</LongitudeDegrees>
            </Position>
            <AltitudeMeters>21.799999237060546875</AltitudeMeters>
            <DistanceMeters>NAN</DistanceMeters>
          </Trackpoint>
          <Trackpoint>
            <Time>2022-07-06T10:28:41.000Z</Time>
            <Position>
              <LatitudeDegrees>44.0909955091774463653564453125</LatitudeDegrees>
              <LongitudeDegrees>-1.32127502001821994781494140625</LongitudeDegrees>
            </Position>
            <AltitudeMeters>21.799999237060546875</AltitudeMeters>
            <DistanceMeters>NAN</DistanceMeters>
          </Trackpoint>
          <Trackpoint>
            <Time>2022-07-06T10:28:42.000Z</Time>
            <Position>
              <LatitudeDegrees>44.0909857861697673797607421875</LatitudeDegrees>
              <LongitudeDegrees>-1.32130284793674945831298828125</LongitudeDegrees>
            </Position>
            <AltitudeMeters>22</AltitudeMeters>
            <DistanceMeters>NAN</DistanceMeters>
          </Trackpoint>
          <Trackpoint>
            <Time>2022-07-06T10:28:44.000Z</Time>
            <Position>
              <LatitudeDegrees>44.0909603051841259002685546875</LatitudeDegrees>
              <LongitudeDegrees>-1.32133721373975276947021484375</LongitudeDegrees>
            </Position>
            <AltitudeMeters>21.799999237060546875</AltitudeMeters>
            <DistanceMeters>NAN</DistanceMeters>
          </Trackpoint>
          <Trackpoint>
            <Time>2022-07-06T10:28:47.000Z</Time>
            <Position>
              <LatitudeDegrees>44.090922586619853973388671875</LatitudeDegrees>
              <LongitudeDegrees>-1.3213621079921722412109375</LongitudeDegrees>
            </Position>
            <AltitudeMeters>21.6000003814697265625</AltitudeMeters>
            <DistanceMeters>NAN</DistanceMeters>
          </Trackpoint>
          <Trackpoint>
            <Time>2022-07-06T10:28:49.000Z</Time>
            <Position>
              <LatitudeDegrees>44.090922586619853973388671875</LatitudeDegrees>
              <LongitudeDegrees>-1.3213621079921722412109375</LongitudeDegrees>
            </Position>
            <AltitudeMeters>21.6000003814697265625</AltitudeMeters>
            <DistanceMeters>NAN</DistanceMeters>
          </Trackpoint>
          <Trackpoint>
            <Time>2022-07-06T10:29:00.000Z</Time>
            <Position>
              <LatitudeDegrees>44.09083952195942401885986328125</LatitudeDegrees>
              <LongitudeDegrees>-1.321345008909702301025390625</LongitudeDegrees>
            </Position>
            <AltitudeMeters>21.200000762939453125</AltitudeMeters>
            <DistanceMeters>NAN</DistanceMeters>
          </Trackpoint>
          <Trackpoint>
            <Time>2022-07-06T10:29:02.000Z</Time>
            <Position>
              <LatitudeDegrees>44.0908124484121799468994140625</LatitudeDegrees>
              <LongitudeDegrees>-1.3213445059955120086669921875</LongitudeDegrees>
            </Position>
            <AltitudeMeters>21.200000762939453125</AltitudeMeters>
            <DistanceMeters>NAN</DistanceMeters>
          </Trackpoint>
          <Trackpoint>
            <Time>2022-07-06T10:29:03.000Z</Time>
            <Position>
              <LatitudeDegrees>44.090802557766437530517578125</LatitudeDegrees>
              <LongitudeDegrees>-1.32135548628866672515869140625</LongitudeDegrees>
            </Position>
            <AltitudeMeters>21.200000762939453125</AltitudeMeters>
            <DistanceMeters>NAN</DistanceMeters>
          </Trackpoint>
          <Trackpoint>
            <Time>2022-07-06T10:29:04.000Z</Time>
            <Position>
              <LatitudeDegrees>44.090796522796154022216796875</LatitudeDegrees>
              <LongitudeDegrees>-1.3213703222572803497314453125</LongitudeDegrees>
            </Position>
            <AltitudeMeters>21.200000762939453125</AltitudeMeters>
            <DistanceMeters>NAN</DistanceMeters>
          </Trackpoint>
          <Trackpoint>
            <Time>2022-07-06T10:29:06.000Z</Time>
            <Position>
              <LatitudeDegrees>44.09078948199748992919921875</LatitudeDegrees>
              <LongitudeDegrees>-1.32139974273741245269775390625</LongitudeDegrees>
            </Position>
            <AltitudeMeters>21.200000762939453125</AltitudeMeters>
            <DistanceMeters>NAN</DistanceMeters>
          </Trackpoint>
          <Trackpoint>
            <Time>2022-07-06T10:29:07.000Z</Time>
            <Position>
              <LatitudeDegrees>44.09079576842486858367919921875</LatitudeDegrees>
              <LongitudeDegrees>-1.321411393582820892333984375</LongitudeDegrees>
            </Position>
            <AltitudeMeters>21</AltitudeMeters>
            <DistanceMeters>NAN</DistanceMeters>
          </Trackpoint>
          <Trackpoint>
            <Time>2022-07-06T10:29:11.000Z</Time>
            <Position>
              <LatitudeDegrees>44.09082409925758838653564453125</LatitudeDegrees>
              <LongitudeDegrees>-1.321420781314373016357421875</LongitudeDegrees>
            </Position>
            <AltitudeMeters>21</AltitudeMeters>
            <DistanceMeters>NAN</DistanceMeters>
          </Trackpoint>
          <Trackpoint>
            <Time>2022-07-06T10:29:12.000Z</Time>
            <Position>
              <LatitudeDegrees>44.09082728438079357147216796875</LatitudeDegrees>
              <LongitudeDegrees>-1.3214135728776454925537109375</LongitudeDegrees>
            </Position>
            <AltitudeMeters>20.799999237060546875</AltitudeMeters>
            <DistanceMeters>NAN</DistanceMeters>
          </Trackpoint>
          <Trackpoint>
            <Time>2022-07-06T10:29:17.000Z</Time>
            <Position>
              <LatitudeDegrees>44.0908245183527469635009765625</LatitudeDegrees>
              <LongitudeDegrees>-1.32136587984859943389892578125</LongitudeDegrees>
            </Position>
            <AltitudeMeters>20.799999237060546875</AltitudeMeters>
            <DistanceMeters>NAN</DistanceMeters>
          </Trackpoint>
          <Trackpoint>
            <Time>2022-07-06T10:29:18.000Z</Time>
            <Position>
              <LatitudeDegrees>44.090830050408840179443359375</LatitudeDegrees>
              <LongitudeDegrees>-1.32135816849768161773681640625</LongitudeDegrees>
            </Position>
            <AltitudeMeters>20.6000003814697265625</AltitudeMeters>
            <DistanceMeters>NAN</DistanceMeters>
          </Trackpoint>
          <Trackpoint>
            <Time>2022-07-06T10:29:19.000Z</Time>
            <Position>
              <LatitudeDegrees>44.09084052778780460357666015625</LatitudeDegrees>
              <LongitudeDegrees>-1.321351714432239532470703125</LongitudeDegrees>
            </Position>
            <AltitudeMeters>20.6000003814697265625</AltitudeMeters>
            <DistanceMeters>NAN</DistanceMeters>
          </Trackpoint>
          <Trackpoint>
            <Time>2022-07-06T10:29:24.000Z</Time>
            <Position>
              <LatitudeDegrees>44.09090858884155750274658203125</LatitudeDegrees>
              <LongitudeDegrees>-1.32130100391805171966552734375</LongitudeDegrees>
            </Position>
            <AltitudeMeters>20.6000003814697265625</AltitudeMeters>
            <DistanceMeters>NAN</DistanceMeters>
          </Trackpoint>
          <Trackpoint>
            <Time>2022-07-06T10:29:30.000Z</Time>
            <Position>
              <LatitudeDegrees>44.0909631550312042236328125</LatitudeDegrees>
              <LongitudeDegrees>-1.3212606869637966156005859375</LongitudeDegrees>
            </Position>
            <AltitudeMeters>20.3999996185302734375</AltitudeMeters>
            <DistanceMeters>NAN</DistanceMeters>
          </Trackpoint>
          <Trackpoint>
            <Time>2022-07-06T10:29:35.000Z</Time>
            <Position>
              <LatitudeDegrees>44.0909676812589168548583984375</LatitudeDegrees>
              <LongitudeDegrees>-1.32110260426998138427734375</LongitudeDegrees>
            </Position>
            <AltitudeMeters>20</AltitudeMeters>
            <DistanceMeters>NAN</DistanceMeters>
          </Trackpoint>
          <Trackpoint>
            <Time>2022-07-06T10:29:40.000Z</Time>
            <Position>
              <LatitudeDegrees>44.09097044728696346282958984375</LatitudeDegrees>
              <LongitudeDegrees>-1.32090747356414794921875</LongitudeDegrees>
            </Position>
            <AltitudeMeters>19.799999237060546875</AltitudeMeters>
            <DistanceMeters>NAN</DistanceMeters>
          </Trackpoint>
          <Trackpoint>
            <Time>2022-07-06T10:29:41.000Z</Time>
            <Position>
              <LatitudeDegrees>44.09097078256309032440185546875</LatitudeDegrees>
              <LongitudeDegrees>-1.32086363621056079864501953125</LongitudeDegrees>
            </Position>
            <AltitudeMeters>19.6000003814697265625</AltitudeMeters>
            <DistanceMeters>NAN</DistanceMeters>
          </Trackpoint>
          <Trackpoint>
            <Time>2022-07-06T10:29:44.000Z</Time>
            <Position>
              <LatitudeDegrees>44.0909872949123382568359375</LatitudeDegrees>
              <LongitudeDegrees>-1.32073790766298770904541015625</LongitudeDegrees>
            </Position>
            <AltitudeMeters>19.3999996185302734375</AltitudeMeters>
            <DistanceMeters>NAN</DistanceMeters>
          </Trackpoint>
          <Trackpoint>
            <Time>2022-07-06T10:29:48.000Z</Time>
            <Position>
              <LatitudeDegrees>44.0910890512168407440185546875</LatitudeDegrees>
              <LongitudeDegrees>-1.320635564625263214111328125</LongitudeDegrees>
            </Position>
            <AltitudeMeters>19</AltitudeMeters>
            <DistanceMeters>NAN</DistanceMeters>
          </Trackpoint>
          <Trackpoint>
            <Time>2022-07-06T10:29:57.000Z</Time>
            <Position>
              <LatitudeDegrees>44.0914062224328517913818359375</LatitudeDegrees>
              <LongitudeDegrees>-1.320573873817920684814453125</LongitudeDegrees>
            </Position>
            <AltitudeMeters>18.799999237060546875</AltitudeMeters>
            <DistanceMeters>NAN</DistanceMeters>
          </Trackpoint>
          <Trackpoint>
            <Time>2022-07-06T10:29:58.000Z</Time>
            <Position>
              <LatitudeDegrees>44.09144436009228229522705078125</LatitudeDegrees>
              <LongitudeDegrees>-1.32056641392409801483154296875</LongitudeDegrees>
            </Position>
            <AltitudeMeters>18.6000003814697265625</AltitudeMeters>
            <DistanceMeters>NAN</DistanceMeters>
          </Trackpoint>
          <Trackpoint>
            <Time>2022-07-06T10:30:05.000Z</Time>
            <Position>
              <LatitudeDegrees>44.09171375446021556854248046875</LatitudeDegrees>
              <LongitudeDegrees>-1.32051629014313220977783203125</LongitudeDegrees>
            </Position>
            <AltitudeMeters>17.6000003814697265625</AltitudeMeters>
            <DistanceMeters>NAN</DistanceMeters>
          </Trackpoint>
          <Trackpoint>
            <Time>2022-07-06T10:30:07.000Z</Time>
            <Position>
              <LatitudeDegrees>44.091783575713634490966796875</LatitudeDegrees>
              <LongitudeDegrees>-1.3205002807080745697021484375</LongitudeDegrees>
            </Position>
            <AltitudeMeters>17.6000003814697265625</AltitudeMeters>
            <DistanceMeters>NAN</DistanceMeters>
          </Trackpoint>
          <Trackpoint>
            <Time>2022-07-06T10:30:13.000Z</Time>
            <Position>
              <LatitudeDegrees>44.0919528901576995849609375</LatitudeDegrees>
              <LongitudeDegrees>-1.3205225765705108642578125</LongitudeDegrees>
            </Position>
            <AltitudeMeters>17</AltitudeMeters>
            <DistanceMeters>NAN</DistanceMeters>
          </Trackpoint>
          <Trackpoint>
            <Time>2022-07-06T10:30:14.000Z</Time>
            <Position>
              <LatitudeDegrees>44.09195951186120510101318359375</LatitudeDegrees>
              <LongitudeDegrees>-1.320523582398891448974609375</LongitudeDegrees>
            </Position>
            <AltitudeMeters>16.3999996185302734375</AltitudeMeters>
            <DistanceMeters>NAN</DistanceMeters>
          </Trackpoint>
          <Trackpoint>
            <Time>2022-07-06T10:30:16.000Z</Time>
            <Position>
              <LatitudeDegrees>44.09195951186120510101318359375</LatitudeDegrees>
              <LongitudeDegrees>-1.320523582398891448974609375</LongitudeDegrees>
            </Position>
            <AltitudeMeters>16</AltitudeMeters>
            <DistanceMeters>NAN</DistanceMeters>
          </Trackpoint>
          <Trackpoint>
            <Time>2022-07-06T10:30:25.000Z</Time>
            <Position>
              <LatitudeDegrees>44.092021621763706207275390625</LatitudeDegrees>
              <LongitudeDegrees>-1.32050354965031147003173828125</LongitudeDegrees>
            </Position>
            <AltitudeMeters>16</AltitudeMeters>
            <DistanceMeters>NAN</DistanceMeters>
          </Trackpoint>
          <Trackpoint>
            <Time>2022-07-06T10:30:28.000Z</Time>
            <Position>
              <LatitudeDegrees>44.092094041407108306884765625</LatitudeDegrees>
              <LongitudeDegrees>-1.320478655397891998291015625</LongitudeDegrees>
            </Position>
            <AltitudeMeters>16</AltitudeMeters>
            <DistanceMeters>NAN</DistanceMeters>
          </Trackpoint>
          <Trackpoint>
            <Time>2022-07-06T10:30:31.000Z</Time>
            <Position>
              <LatitudeDegrees>44.0921699814498424530029296875</LatitudeDegrees>
              <LongitudeDegrees>-1.32045845501124858856201171875</LongitudeDegrees>
            </Position>
            <AltitudeMeters>15.3999996185302734375</AltitudeMeters>
            <DistanceMeters>NAN</DistanceMeters>
          </Trackpoint>
          <Trackpoint>
            <Time>2022-07-06T10:30:32.000Z</Time>
            <Position>
              <LatitudeDegrees>44.092193953692913055419921875</LatitudeDegrees>
              <LongitudeDegrees>-1.320443116128444671630859375</LongitudeDegrees>
            </Position>
            <AltitudeMeters>15.19999980926513671875</AltitudeMeters>
            <DistanceMeters>NAN</DistanceMeters>
          </Trackpoint>
          <Trackpoint>
            <Time>2022-07-06T10:30:41.000Z</Time>
            <Position>
              <LatitudeDegrees>44.09242085181176662445068359375</LatitudeDegrees>
              <LongitudeDegrees>-1.320305652916431427001953125</LongitudeDegrees>
            </Position>
            <AltitudeMeters>16</AltitudeMeters>
            <DistanceMeters>NAN</DistanceMeters>
          </Trackpoint>
          <Trackpoint>
            <Time>2022-07-06T10:30:43.000Z</Time>
            <Position>
              <LatitudeDegrees>44.0924797765910625457763671875</LatitudeDegrees>
              <LongitudeDegrees>-1.3202853687107563018798828125</LongitudeDegrees>
            </Position>
            <AltitudeMeters>16.200000762939453125</AltitudeMeters>
            <DistanceMeters>NAN</DistanceMeters>
          </Trackpoint>
          <Trackpoint>
            <Time>2022-07-06T10:30:46.000Z</Time>
            <Position>
              <LatitudeDegrees>44.0925565548241138458251953125</LatitudeDegrees>
              <LongitudeDegrees>-1.32024119608104228973388671875</LongitudeDegrees>
            </Position>
            <AltitudeMeters>16.6000003814697265625</AltitudeMeters>
            <DistanceMeters>NAN</DistanceMeters>
          </Trackpoint>
          <Trackpoint>
            <Time>2022-07-06T10:30:52.000Z</Time>
            <Position>
              <LatitudeDegrees>44.0926983766257762908935546875</LatitudeDegrees>
              <LongitudeDegrees>-1.3201666809618473052978515625</LongitudeDegrees>
            </Position>
            <AltitudeMeters>16.6000003814697265625</AltitudeMeters>
            <DistanceMeters>NAN</DistanceMeters>
          </Trackpoint>
          <Trackpoint>
            <Time>2022-07-06T10:30:57.000Z</Time>
            <Position>
              <LatitudeDegrees>44.09278898499906063079833984375</LatitudeDegrees>
              <LongitudeDegrees>-1.32015016861259937286376953125</LongitudeDegrees>
            </Position>
            <AltitudeMeters>16.3999996185302734375</AltitudeMeters>
            <DistanceMeters>NAN</DistanceMeters>
          </Trackpoint>
          <Trackpoint>
            <Time>2022-07-06T10:30:59.000Z</Time>
            <Position>
              <LatitudeDegrees>44.09282737411558628082275390625</LatitudeDegrees>
              <LongitudeDegrees>-1.320141367614269256591796875</LongitudeDegrees>
            </Position>
            <AltitudeMeters>16.200000762939453125</AltitudeMeters>
            <DistanceMeters>NAN</DistanceMeters>
          </Trackpoint>
          <Trackpoint>
            <Time>2022-07-06T10:31:01.000Z</Time>
            <Position>
              <LatitudeDegrees>44.092858135700225830078125</LatitudeDegrees>
              <LongitudeDegrees>-1.32012938149273395538330078125</LongitudeDegrees>
            </Position>
            <AltitudeMeters>16</AltitudeMeters>
            <DistanceMeters>NAN</DistanceMeters>
          </Trackpoint>
          <Trackpoint>
            <Time>2022-07-06T10:31:04.000Z</Time>
            <Position>
              <LatitudeDegrees>44.09289577044546604156494140625</LatitudeDegrees>
              <LongitudeDegrees>-1.3200989551842212677001953125</LongitudeDegrees>
            </Position>
            <AltitudeMeters>16</AltitudeMeters>
            <DistanceMeters>NAN</DistanceMeters>
          </Trackpoint>
          <Trackpoint>
            <Time>2022-07-06T10:31:07.000Z</Time>
            <Position>
              <LatitudeDegrees>44.09286844544112682342529296875</LatitudeDegrees>
              <LongitudeDegrees>-1.32009116001427173614501953125</LongitudeDegrees>
            </Position>
            <AltitudeMeters>16</AltitudeMeters>
            <DistanceMeters>NAN</DistanceMeters>
          </Trackpoint>
          <Trackpoint>
            <Time>2022-07-06T10:31:08.000Z</Time>
            <Position>
              <LatitudeDegrees>44.092857129871845245361328125</LatitudeDegrees>
              <LongitudeDegrees>-1.32010976783931255340576171875</LongitudeDegrees>
            </Position>
            <AltitudeMeters>16</AltitudeMeters>
            <DistanceMeters>NAN</DistanceMeters>
          </Trackpoint>
          <Trackpoint>
            <Time>2022-07-06T10:31:10.000Z</Time>
            <Position>
              <LatitudeDegrees>44.09283374436199665069580078125</LatitudeDegrees>
              <LongitudeDegrees>-1.32015419192612171173095703125</LongitudeDegrees>
            </Position>
            <AltitudeMeters>16</AltitudeMeters>
            <DistanceMeters>NAN</DistanceMeters>
          </Trackpoint>
          <Trackpoint>
            <Time>2022-07-06T10:31:12.000Z</Time>
            <Position>
              <LatitudeDegrees>44.0928006358444690704345703125</LatitudeDegrees>
              <LongitudeDegrees>-1.32017464376986026763916015625</LongitudeDegrees>
            </Position>
            <AltitudeMeters>16.200000762939453125</AltitudeMeters>
            <DistanceMeters>NAN</DistanceMeters>
          </Trackpoint>
          <Trackpoint>
            <Time>2022-07-06T10:31:16.000Z</Time>
            <Position>
              <LatitudeDegrees>44.09277691505849361419677734375</LatitudeDegrees>
              <LongitudeDegrees>-1.3202005438506603240966796875</LongitudeDegrees>
            </Position>
            <AltitudeMeters>16.200000762939453125</AltitudeMeters>
            <DistanceMeters>NAN</DistanceMeters>
          </Trackpoint>
          <Trackpoint>
            <Time>2022-07-06T10:31:17.000Z</Time>
            <Position>
              <LatitudeDegrees>44.09277691505849361419677734375</LatitudeDegrees>
              <LongitudeDegrees>-1.3202005438506603240966796875</LongitudeDegrees>
            </Position>
            <AltitudeMeters>16.200000762939453125</AltitudeMeters>
            <DistanceMeters>NAN</DistanceMeters>
          </Trackpoint>
          <Trackpoint>
            <Time>2022-07-06T10:31:56.000Z</Time>
            <Position>
              <LatitudeDegrees>44.0927768312394618988037109375</LatitudeDegrees>
              <LongitudeDegrees>-1.320208422839641571044921875</LongitudeDegrees>
            </Position>
            <AltitudeMeters>15.6000003814697265625</AltitudeMeters>
            <DistanceMeters>NAN</DistanceMeters>
          </Trackpoint>
          <Trackpoint>
            <Time>2022-07-06T10:31:59.000Z</Time>
            <Position>
              <LatitudeDegrees>44.09275545738637447357177734375</LatitudeDegrees>
              <LongitudeDegrees>-1.32020599208772182464599609375</LongitudeDegrees>
            </Position>
            <AltitudeMeters>15.80000019073486328125</AltitudeMeters>
            <DistanceMeters>NAN</DistanceMeters>
          </Trackpoint>
          <Trackpoint>
            <Time>2022-07-06T10:32:01.000Z</Time>
            <Position>
              <LatitudeDegrees>44.09275545738637447357177734375</LatitudeDegrees>
              <LongitudeDegrees>-1.32020599208772182464599609375</LongitudeDegrees>
            </Position>
            <AltitudeMeters>16</AltitudeMeters>
            <DistanceMeters>NAN</DistanceMeters>
          </Trackpoint>
          <Trackpoint>
            <Time>2022-07-06T10:51:21.000Z</Time>
            <Position>
              <LatitudeDegrees>44.0928219258785247802734375</LatitudeDegrees>
              <LongitudeDegrees>-1.32024622522294521331787109375</LongitudeDegrees>
            </Position>
            <AltitudeMeters>12.3999996185302734375</AltitudeMeters>
            <DistanceMeters>NAN</DistanceMeters>
          </Trackpoint>
          <Trackpoint>
            <Time>2022-07-06T10:51:22.000Z</Time>
            <Position>
              <LatitudeDegrees>44.09279837273061275482177734375</LatitudeDegrees>
              <LongitudeDegrees>-1.32025301456451416015625</LongitudeDegrees>
            </Position>
            <AltitudeMeters>12.3999996185302734375</AltitudeMeters>
            <DistanceMeters>NAN</DistanceMeters>
          </Trackpoint>
          <Trackpoint>
            <Time>2022-07-06T10:51:26.000Z</Time>
            <Position>
              <LatitudeDegrees>44.09276434220373630523681640625</LatitudeDegrees>
              <LongitudeDegrees>-1.32025980390608310699462890625</LongitudeDegrees>
            </Position>
            <AltitudeMeters>12.6000003814697265625</AltitudeMeters>
            <DistanceMeters>NAN</DistanceMeters>
          </Trackpoint>
          <Trackpoint>
            <Time>2022-07-06T11:48:27.000Z</Time>
            <Position>
              <LatitudeDegrees>44.092847071588039398193359375</LatitudeDegrees>
              <LongitudeDegrees>-1.3201951794326305389404296875</LongitudeDegrees>
            </Position>
            <AltitudeMeters>12.6000003814697265625</AltitudeMeters>
            <DistanceMeters>NAN</DistanceMeters>
          </Trackpoint>
          <Trackpoint>
            <Time>2022-07-06T11:48:28.000Z</Time>
            <Position>
              <LatitudeDegrees>44.092847071588039398193359375</LatitudeDegrees>
              <LongitudeDegrees>-1.3201951794326305389404296875</LongitudeDegrees>
            </Position>
            <AltitudeMeters>12.3999996185302734375</AltitudeMeters>
            <DistanceMeters>NAN</DistanceMeters>
          </Trackpoint>
          <Trackpoint>
            <Time>2022-07-06T11:48:29.000Z</Time>
            <Position>
              <LatitudeDegrees>44.092847071588039398193359375</LatitudeDegrees>
              <LongitudeDegrees>-1.3201951794326305389404296875</LongitudeDegrees>
            </Position>
            <AltitudeMeters>12.3999996185302734375</AltitudeMeters>
            <DistanceMeters>NAN</DistanceMeters>
          </Trackpoint>
          <Trackpoint>
            <Time>2022-07-06T12:03:01.000Z</Time>
            <Position>
              <LatitudeDegrees>44.09279166720807552337646484375</LatitudeDegrees>
              <LongitudeDegrees>-1.32026550360023975372314453125</LongitudeDegrees>
            </Position>
            <AltitudeMeters>13.80000019073486328125</AltitudeMeters>
            <DistanceMeters>NAN</DistanceMeters>
          </Trackpoint>
          <Trackpoint>
            <Time>2022-07-06T12:03:02.000Z</Time>
            <Position>
              <LatitudeDegrees>44.09278429113328456878662109375</LatitudeDegrees>
              <LongitudeDegrees>-1.32026885636150836944580078125</LongitudeDegrees>
            </Position>
            <AltitudeMeters>13.80000019073486328125</AltitudeMeters>
            <DistanceMeters>NAN</DistanceMeters>
          </Trackpoint>
          <Trackpoint>
            <Time>2022-07-06T12:03:04.000Z</Time>
            <Position>
              <LatitudeDegrees>44.09278429113328456878662109375</LatitudeDegrees>
              <LongitudeDegrees>-1.32026885636150836944580078125</LongitudeDegrees>
            </Position>
            <AltitudeMeters>14</AltitudeMeters>
            <DistanceMeters>NAN</DistanceMeters>
          </Trackpoint>
          <Trackpoint>
            <Time>2022-07-06T12:04:29.000Z</Time>
            <Position>
              <LatitudeDegrees>44.0927959419786930084228515625</LatitudeDegrees>
              <LongitudeDegrees>-1.32019425742328166961669921875</LongitudeDegrees>
            </Position>
            <AltitudeMeters>13.6000003814697265625</AltitudeMeters>
            <DistanceMeters>NAN</DistanceMeters>
          </Trackpoint>
          <Trackpoint>
            <Time>2022-07-06T12:04:30.000Z</Time>
            <Position>
              <LatitudeDegrees>44.0928073413670063018798828125</LatitudeDegrees>
              <LongitudeDegrees>-1.32018352858722209930419921875</LongitudeDegrees>
            </Position>
            <AltitudeMeters>13.6000003814697265625</AltitudeMeters>
            <DistanceMeters>NAN</DistanceMeters>
          </Trackpoint>
          <Trackpoint>
            <Time>2022-07-06T12:04:33.000Z</Time>
            <Position>
              <LatitudeDegrees>44.0928529389202594757080078125</LatitudeDegrees>
              <LongitudeDegrees>-1.32014547474682331085205078125</LongitudeDegrees>
            </Position>
            <AltitudeMeters>13.6000003814697265625</AltitudeMeters>
            <DistanceMeters>NAN</DistanceMeters>
          </Trackpoint>
          <Trackpoint>
            <Time>2022-07-06T12:04:35.000Z</Time>
            <Position>
              <LatitudeDegrees>44.09289862029254436492919921875</LatitudeDegrees>
              <LongitudeDegrees>-1.32010809145867824554443359375</LongitudeDegrees>
            </Position>
            <AltitudeMeters>13.3999996185302734375</AltitudeMeters>
            <DistanceMeters>NAN</DistanceMeters>
          </Trackpoint>
          <Trackpoint>
            <Time>2022-07-06T12:04:37.000Z</Time>
            <Position>
              <LatitudeDegrees>44.09293130971491336822509765625</LatitudeDegrees>
              <LongitudeDegrees>-1.32005025632679462432861328125</LongitudeDegrees>
            </Position>
            <AltitudeMeters>13.19999980926513671875</AltitudeMeters>
            <DistanceMeters>NAN</DistanceMeters>
          </Trackpoint>
          <Trackpoint>
            <Time>2022-07-06T12:04:39.000Z</Time>
            <Position>
              <LatitudeDegrees>44.09294488839805126190185546875</LatitudeDegrees>
              <LongitudeDegrees>-1.31998185999691486358642578125</LongitudeDegrees>
            </Position>
            <AltitudeMeters>13.19999980926513671875</AltitudeMeters>
            <DistanceMeters>NAN</DistanceMeters>
          </Trackpoint>
          <Trackpoint>
            <Time>2022-07-06T12:04:41.000Z</Time>
            <Position>
              <LatitudeDegrees>44.092940278351306915283203125</LatitudeDegrees>
              <LongitudeDegrees>-1.31990709342062473297119140625</LongitudeDegrees>
            </Position>
            <AltitudeMeters>13.19999980926513671875</AltitudeMeters>
            <DistanceMeters>NAN</DistanceMeters>
          </Trackpoint>
          <Trackpoint>
            <Time>2022-07-06T12:04:44.000Z</Time>
            <Position>
              <LatitudeDegrees>44.0929008834064006805419921875</LatitudeDegrees>
              <LongitudeDegrees>-1.31980164907872676849365234375</LongitudeDegrees>
            </Position>
            <AltitudeMeters>13.6000003814697265625</AltitudeMeters>
            <DistanceMeters>NAN</DistanceMeters>
          </Trackpoint>
          <Trackpoint>
            <Time>2022-07-06T12:04:50.000Z</Time>
            <Position>
              <LatitudeDegrees>44.09279217012226581573486328125</LatitudeDegrees>
              <LongitudeDegrees>-1.319555304944515228271484375</LongitudeDegrees>
            </Position>
            <AltitudeMeters>13.6000003814697265625</AltitudeMeters>
            <DistanceMeters>NAN</DistanceMeters>
          </Trackpoint>
          <Trackpoint>
            <Time>2022-07-06T12:04:54.000Z</Time>
            <Position>
              <LatitudeDegrees>44.0927359275519847869873046875</LatitudeDegrees>
              <LongitudeDegrees>-1.31938724778592586517333984375</LongitudeDegrees>
            </Position>
            <AltitudeMeters>12.3999996185302734375</AltitudeMeters>
            <DistanceMeters>NAN</DistanceMeters>
          </Trackpoint>
          <Trackpoint>
            <Time>2022-07-06T12:04:56.000Z</Time>
            <Position>
              <LatitudeDegrees>44.09272075630724430084228515625</LatitudeDegrees>
              <LongitudeDegrees>-1.31933008320629596710205078125</LongitudeDegrees>
            </Position>
            <AltitudeMeters>12</AltitudeMeters>
            <DistanceMeters>NAN</DistanceMeters>
          </Trackpoint>
          <Trackpoint>
            <Time>2022-07-06T12:04:58.000Z</Time>
            <Position>
              <LatitudeDegrees>44.09268555231392383575439453125</LatitudeDegrees>
              <LongitudeDegrees>-1.3192818872630596160888671875</LongitudeDegrees>
            </Position>
            <AltitudeMeters>11.80000019073486328125</AltitudeMeters>
            <DistanceMeters>NAN</DistanceMeters>
          </Trackpoint>
          <Trackpoint>
            <Time>2022-07-06T12:05:00.000Z</Time>
            <Position>
              <LatitudeDegrees>44.0926397033035755157470703125</LatitudeDegrees>
              <LongitudeDegrees>-1.31927174516022205352783203125</LongitudeDegrees>
            </Position>
            <AltitudeMeters>11.80000019073486328125</AltitudeMeters>
            <DistanceMeters>NAN</DistanceMeters>
          </Trackpoint>
          <Trackpoint>
            <Time>2022-07-06T12:05:03.000Z</Time>
            <Position>
              <LatitudeDegrees>44.09257977269589900970458984375</LatitudeDegrees>
              <LongitudeDegrees>-1.31931466050446033477783203125</LongitudeDegrees>
            </Position>
            <AltitudeMeters>12</AltitudeMeters>
            <DistanceMeters>NAN</DistanceMeters>
          </Trackpoint>
          <Trackpoint>
            <Time>2022-07-06T12:05:05.000Z</Time>
            <Position>
              <LatitudeDegrees>44.09254557453095912933349609375</LatitudeDegrees>
              <LongitudeDegrees>-1.31935271434485912322998046875</LongitudeDegrees>
            </Position>
            <AltitudeMeters>12</AltitudeMeters>
            <DistanceMeters>NAN</DistanceMeters>
          </Trackpoint>
          <Trackpoint>
            <Time>2022-07-06T12:05:07.000Z</Time>
            <Position>
              <LatitudeDegrees>44.0925109572708606719970703125</LatitudeDegrees>
              <LongitudeDegrees>-1.3193697296082973480224609375</LongitudeDegrees>
            </Position>
            <AltitudeMeters>12</AltitudeMeters>
            <DistanceMeters>NAN</DistanceMeters>
          </Trackpoint>
          <Trackpoint>
            <Time>2022-07-06T12:05:09.000Z</Time>
            <Position>
              <LatitudeDegrees>44.0924866497516632080078125</LatitudeDegrees>
              <LongitudeDegrees>-1.3193452544510364532470703125</LongitudeDegrees>
            </Position>
            <AltitudeMeters>11.80000019073486328125</AltitudeMeters>
            <DistanceMeters>NAN</DistanceMeters>
          </Trackpoint>
          <Trackpoint>
            <Time>2022-07-06T12:05:12.000Z</Time>
            <Position>
              <LatitudeDegrees>44.09245370887219905853271484375</LatitudeDegrees>
              <LongitudeDegrees>-1.31926403380930423736572265625</LongitudeDegrees>
            </Position>
            <AltitudeMeters>11.6000003814697265625</AltitudeMeters>
            <DistanceMeters>NAN</DistanceMeters>
          </Trackpoint>
          <Trackpoint>
            <Time>2022-07-06T12:05:13.000Z</Time>
            <Position>
              <LatitudeDegrees>44.09244800917804241180419921875</LatitudeDegrees>
              <LongitudeDegrees>-1.3192315958440303802490234375</LongitudeDegrees>
            </Position>
            <AltitudeMeters>11.3999996185302734375</AltitudeMeters>
            <DistanceMeters>NAN</DistanceMeters>
          </Trackpoint>
          <Trackpoint>
            <Time>2022-07-06T12:05:15.000Z</Time>
            <Position>
              <LatitudeDegrees>44.09244851209223270416259765625</LatitudeDegrees>
              <LongitudeDegrees>-1.319164372980594635009765625</LongitudeDegrees>
            </Position>
            <AltitudeMeters>11.19999980926513671875</AltitudeMeters>
            <DistanceMeters>NAN</DistanceMeters>
          </Trackpoint>
          <Trackpoint>
            <Time>2022-07-06T12:05:18.000Z</Time>
            <Position>
              <LatitudeDegrees>44.09245639108121395111083984375</LatitudeDegrees>
              <LongitudeDegrees>-1.31905465386807918548583984375</LongitudeDegrees>
            </Position>
            <AltitudeMeters>11.6000003814697265625</AltitudeMeters>
            <DistanceMeters>NAN</DistanceMeters>
          </Trackpoint>
          <Trackpoint>
            <Time>2022-07-06T12:05:21.000Z</Time>
            <Position>
              <LatitudeDegrees>44.09248338080942630767822265625</LatitudeDegrees>
              <LongitudeDegrees>-1.31893001496791839599609375</LongitudeDegrees>
            </Position>
            <AltitudeMeters>11.80000019073486328125</AltitudeMeters>
            <DistanceMeters>NAN</DistanceMeters>
          </Trackpoint>
          <Trackpoint>
            <Time>2022-07-06T12:05:28.000Z</Time>
            <Position>
              <LatitudeDegrees>44.09250601194798946380615234375</LatitudeDegrees>
              <LongitudeDegrees>-1.31862156093120574951171875</LongitudeDegrees>
            </Position>
            <AltitudeMeters>12</AltitudeMeters>
            <DistanceMeters>NAN</DistanceMeters>
          </Trackpoint>
          <Trackpoint>
            <Time>2022-07-06T12:05:34.000Z</Time>
            <Position>
              <LatitudeDegrees>44.0925273858010768890380859375</LatitudeDegrees>
              <LongitudeDegrees>-1.31839801557362079620361328125</LongitudeDegrees>
            </Position>
            <AltitudeMeters>12.19999980926513671875</AltitudeMeters>
            <DistanceMeters>NAN</DistanceMeters>
          </Trackpoint>
          <Trackpoint>
            <Time>2022-07-06T12:05:36.000Z</Time>
            <Position>
              <LatitudeDegrees>44.0925344265997409820556640625</LatitudeDegrees>
              <LongitudeDegrees>-1.31833129562437534332275390625</LongitudeDegrees>
            </Position>
            <AltitudeMeters>12.6000003814697265625</AltitudeMeters>
            <DistanceMeters>NAN</DistanceMeters>
          </Trackpoint>
          <Trackpoint>
            <Time>2022-07-06T12:05:41.000Z</Time>
            <Position>
              <LatitudeDegrees>44.092545323073863983154296875</LatitudeDegrees>
              <LongitudeDegrees>-1.3181476481258869171142578125</LongitudeDegrees>
            </Position>
            <AltitudeMeters>13.19999980926513671875</AltitudeMeters>
            <DistanceMeters>NAN</DistanceMeters>
          </Trackpoint>
          <Trackpoint>
            <Time>2022-07-06T12:05:44.000Z</Time>
            <Position>
              <LatitudeDegrees>44.09253685735166072845458984375</LatitudeDegrees>
              <LongitudeDegrees>-1.31804882548749446868896484375</LongitudeDegrees>
            </Position>
            <AltitudeMeters>13.6000003814697265625</AltitudeMeters>
            <DistanceMeters>NAN</DistanceMeters>
          </Trackpoint>
          <Trackpoint>
            <Time>2022-07-06T12:05:48.000Z</Time>
            <Position>
              <LatitudeDegrees>44.09260877408087253570556640625</LatitudeDegrees>
              <LongitudeDegrees>-1.31792359985411167144775390625</LongitudeDegrees>
            </Position>
            <AltitudeMeters>14.19999980926513671875</AltitudeMeters>
            <DistanceMeters>NAN</DistanceMeters>
          </Trackpoint>
          <Trackpoint>
            <Time>2022-07-06T12:05:52.000Z</Time>
            <Position>
              <LatitudeDegrees>44.09264129586517810821533203125</LatitudeDegrees>
              <LongitudeDegrees>-1.31779284216463565826416015625</LongitudeDegrees>
            </Position>
            <AltitudeMeters>14.6000003814697265625</AltitudeMeters>
            <DistanceMeters>NAN</DistanceMeters>
          </Trackpoint>
          <Trackpoint>
            <Time>2022-07-06T12:05:53.000Z</Time>
            <Position>
              <LatitudeDegrees>44.0926494263112545013427734375</LatitudeDegrees>
              <LongitudeDegrees>-1.3177637569606304168701171875</LongitudeDegrees>
            </Position>
            <AltitudeMeters>14.80000019073486328125</AltitudeMeters>
            <DistanceMeters>NAN</DistanceMeters>
          </Trackpoint>
          <Trackpoint>
            <Time>2022-07-06T12:05:58.000Z</Time>
            <Position>
              <LatitudeDegrees>44.092724025249481201171875</LatitudeDegrees>
              <LongitudeDegrees>-1.3176527805626392364501953125</LongitudeDegrees>
            </Position>
            <AltitudeMeters>15.3999996185302734375</AltitudeMeters>
            <DistanceMeters>NAN</DistanceMeters>
          </Trackpoint>
          <Trackpoint>
            <Time>2022-07-06T12:06:02.000Z</Time>
            <Position>
              <LatitudeDegrees>44.0928080119192600250244140625</LatitudeDegrees>
              <LongitudeDegrees>-1.317579858005046844482421875</LongitudeDegrees>
            </Position>
            <AltitudeMeters>15.6000003814697265625</AltitudeMeters>
            <DistanceMeters>NAN</DistanceMeters>
          </Trackpoint>
          <Trackpoint>
            <Time>2022-07-06T12:06:05.000Z</Time>
            <Position>
              <LatitudeDegrees>44.09284581430256366729736328125</LatitudeDegrees>
              <LongitudeDegrees>-1.317548342049121856689453125</LongitudeDegrees>
            </Position>
            <AltitudeMeters>16.200000762939453125</AltitudeMeters>
            <DistanceMeters>NAN</DistanceMeters>
          </Trackpoint>
          <Trackpoint>
            <Time>2022-07-06T12:06:08.000Z</Time>
            <Position>
              <LatitudeDegrees>44.0928864665329456329345703125</LatitudeDegrees>
              <LongitudeDegrees>-1.3175471685826778411865234375</LongitudeDegrees>
            </Position>
            <AltitudeMeters>16.799999237060546875</AltitudeMeters>
            <DistanceMeters>NAN</DistanceMeters>
          </Trackpoint>
          <Trackpoint>
            <Time>2022-07-06T12:06:11.000Z</Time>
            <Position>
              <LatitudeDegrees>44.09291245043277740478515625</LatitudeDegrees>
              <LongitudeDegrees>-1.317559741437435150146484375</LongitudeDegrees>
            </Position>
            <AltitudeMeters>17.200000762939453125</AltitudeMeters>
            <DistanceMeters>NAN</DistanceMeters>
          </Trackpoint>
          <Trackpoint>
            <Time>2022-07-06T12:06:12.000Z</Time>
            <Position>
              <LatitudeDegrees>44.0929166413843631744384765625</LatitudeDegrees>
              <LongitudeDegrees>-1.317575164139270782470703125</LongitudeDegrees>
            </Position>
            <AltitudeMeters>17.3999996185302734375</AltitudeMeters>
            <DistanceMeters>NAN</DistanceMeters>
          </Trackpoint>
          <Trackpoint>
            <Time>2022-07-06T12:06:13.000Z</Time>
            <Position>
              <LatitudeDegrees>44.09293885342776775360107421875</LatitudeDegrees>
              <LongitudeDegrees>-1.31755881942808628082275390625</LongitudeDegrees>
            </Position>
            <AltitudeMeters>17.3999996185302734375</AltitudeMeters>
            <DistanceMeters>NAN</DistanceMeters>
          </Trackpoint>
          <Trackpoint>
            <Time>2022-07-06T12:06:18.000Z</Time>
            <Position>
              <LatitudeDegrees>44.09307681955397129058837890625</LatitudeDegrees>
              <LongitudeDegrees>-1.317487321794033050537109375</LongitudeDegrees>
            </Position>
            <AltitudeMeters>17.6000003814697265625</AltitudeMeters>
            <DistanceMeters>NAN</DistanceMeters>
          </Trackpoint>
          <Trackpoint>
            <Time>2022-07-06T12:06:20.000Z</Time>
            <Position>
              <LatitudeDegrees>44.0931228362023830413818359375</LatitudeDegrees>
              <LongitudeDegrees>-1.3174703903496265411376953125</LongitudeDegrees>
            </Position>
            <AltitudeMeters>17.799999237060546875</AltitudeMeters>
            <DistanceMeters>NAN</DistanceMeters>
          </Trackpoint>
          <Trackpoint>
            <Time>2022-07-06T12:06:23.000Z</Time>
            <Position>
              <LatitudeDegrees>44.09318092279136180877685546875</LatitudeDegrees>
              <LongitudeDegrees>-1.31744004786014556884765625</LongitudeDegrees>
            </Position>
            <AltitudeMeters>18.200000762939453125</AltitudeMeters>
            <DistanceMeters>NAN</DistanceMeters>
          </Trackpoint>
          <Trackpoint>
            <Time>2022-07-06T12:06:25.000Z</Time>
            <Position>
              <LatitudeDegrees>44.09321947954595088958740234375</LatitudeDegrees>
              <LongitudeDegrees>-1.31742571480572223663330078125</LongitudeDegrees>
            </Position>
            <AltitudeMeters>18.3999996185302734375</AltitudeMeters>
            <DistanceMeters>NAN</DistanceMeters>
          </Trackpoint>
          <Trackpoint>
            <Time>2022-07-06T12:06:29.000Z</Time>
            <Position>
              <LatitudeDegrees>44.093272201716899871826171875</LatitudeDegrees>
              <LongitudeDegrees>-1.3173495233058929443359375</LongitudeDegrees>
            </Position>
            <AltitudeMeters>18.799999237060546875</AltitudeMeters>
            <DistanceMeters>NAN</DistanceMeters>
          </Trackpoint>
          <Trackpoint>
            <Time>2022-07-06T12:06:30.000Z</Time>
            <Position>
              <LatitudeDegrees>44.09327077679336071014404296875</LatitudeDegrees>
              <LongitudeDegrees>-1.31733368150889873504638671875</LongitudeDegrees>
            </Position>
            <AltitudeMeters>18.799999237060546875</AltitudeMeters>
            <DistanceMeters>NAN</DistanceMeters>
          </Trackpoint>
          <Trackpoint>
            <Time>2022-07-06T12:06:32.000Z</Time>
            <Position>
              <LatitudeDegrees>44.09327044151723384857177734375</LatitudeDegrees>
              <LongitudeDegrees>-1.317327730357646942138671875</LongitudeDegrees>
            </Position>
            <AltitudeMeters>18.799999237060546875</AltitudeMeters>
            <DistanceMeters>NAN</DistanceMeters>
          </Trackpoint>
          <Trackpoint>
            <Time>2022-07-06T12:06:33.000Z</Time>
            <Position>
              <LatitudeDegrees>44.09327044151723384857177734375</LatitudeDegrees>
              <LongitudeDegrees>-1.317327730357646942138671875</LongitudeDegrees>
            </Position>
            <AltitudeMeters>18.799999237060546875</AltitudeMeters>
            <DistanceMeters>NAN</DistanceMeters>
          </Trackpoint>
          <Trackpoint>
            <Time>2022-07-06T12:06:50.000Z</Time>
            <Position>
              <LatitudeDegrees>44.093264155089855194091796875</LatitudeDegrees>
              <LongitudeDegrees>-1.3172859884798526763916015625</LongitudeDegrees>
            </Position>
            <AltitudeMeters>19.200000762939453125</AltitudeMeters>
            <DistanceMeters>NAN</DistanceMeters>
          </Trackpoint>
          <Trackpoint>
            <Time>2022-07-06T12:06:51.000Z</Time>
            <Position>
              <LatitudeDegrees>44.0932562761008739471435546875</LatitudeDegrees>
              <LongitudeDegrees>-1.31725137121975421905517578125</LongitudeDegrees>
            </Position>
            <AltitudeMeters>19.200000762939453125</AltitudeMeters>
            <DistanceMeters>NAN</DistanceMeters>
          </Trackpoint>
          <Trackpoint>
            <Time>2022-07-06T12:06:58.000Z</Time>
            <Position>
              <LatitudeDegrees>44.0932284481823444366455078125</LatitudeDegrees>
              <LongitudeDegrees>-1.31707870401442050933837890625</LongitudeDegrees>
            </Position>
            <AltitudeMeters>19.200000762939453125</AltitudeMeters>
            <DistanceMeters>NAN</DistanceMeters>
          </Trackpoint>
          <Trackpoint>
            <Time>2022-07-06T12:07:00.000Z</Time>
            <Position>
              <LatitudeDegrees>44.0932529233396053314208984375</LatitudeDegrees>
              <LongitudeDegrees>-1.317058838903903961181640625</LongitudeDegrees>
            </Position>
            <AltitudeMeters>19.200000762939453125</AltitudeMeters>
            <DistanceMeters>NAN</DistanceMeters>
          </Trackpoint>
          <Trackpoint>
            <Time>2022-07-06T12:07:02.000Z</Time>
            <Position>
              <LatitudeDegrees>44.0932887978851795196533203125</LatitudeDegrees>
              <LongitudeDegrees>-1.3170462660491466522216796875</LongitudeDegrees>
            </Position>
            <AltitudeMeters>19.200000762939453125</AltitudeMeters>
            <DistanceMeters>NAN</DistanceMeters>
          </Trackpoint>
          <Trackpoint>
            <Time>2022-07-06T12:07:03.000Z</Time>
            <Position>
              <LatitudeDegrees>44.09329332411289215087890625</LatitudeDegrees>
              <LongitudeDegrees>-1.31702807731926441192626953125</LongitudeDegrees>
            </Position>
            <AltitudeMeters>19.200000762939453125</AltitudeMeters>
            <DistanceMeters>NAN</DistanceMeters>
          </Trackpoint>
          <Trackpoint>
            <Time>2022-07-06T12:07:05.000Z</Time>
            <Position>
              <LatitudeDegrees>44.09328301437199115753173828125</LatitudeDegrees>
              <LongitudeDegrees>-1.31698809564113616943359375</LongitudeDegrees>
            </Position>
            <AltitudeMeters>19.200000762939453125</AltitudeMeters>
            <DistanceMeters>NAN</DistanceMeters>
          </Trackpoint>
          <Trackpoint>
            <Time>2022-07-06T12:07:06.000Z</Time>
            <Position>
              <LatitudeDegrees>44.0932988561689853668212890625</LatitudeDegrees>
              <LongitudeDegrees>-1.31695230491459369659423828125</LongitudeDegrees>
            </Position>
            <AltitudeMeters>19.200000762939453125</AltitudeMeters>
            <DistanceMeters>NAN</DistanceMeters>
          </Trackpoint>
          <Trackpoint>
            <Time>2022-07-06T12:07:07.000Z</Time>
            <Position>
              <LatitudeDegrees>44.0933032147586345672607421875</LatitudeDegrees>
              <LongitudeDegrees>-1.316929757595062255859375</LongitudeDegrees>
            </Position>
            <AltitudeMeters>19.200000762939453125</AltitudeMeters>
            <DistanceMeters>NAN</DistanceMeters>
          </Trackpoint>
          <Trackpoint>
            <Time>2022-07-06T12:07:10.000Z</Time>
            <Position>
              <LatitudeDegrees>44.0933069027960300445556640625</LatitudeDegrees>
              <LongitudeDegrees>-1.3168816454708576202392578125</LongitudeDegrees>
            </Position>
            <AltitudeMeters>19.200000762939453125</AltitudeMeters>
            <DistanceMeters>NAN</DistanceMeters>
          </Trackpoint>
          <Trackpoint>
            <Time>2022-07-06T12:07:17.000Z</Time>
            <Position>
              <LatitudeDegrees>44.09337571822106838226318359375</LatitudeDegrees>
              <LongitudeDegrees>-1.3167844153940677642822265625</LongitudeDegrees>
            </Position>
            <AltitudeMeters>19.6000003814697265625</AltitudeMeters>
            <DistanceMeters>NAN</DistanceMeters>
          </Trackpoint>
          <Trackpoint>
            <Time>2022-07-06T12:07:19.000Z</Time>
            <Position>
              <LatitudeDegrees>44.093368090689182281494140625</LatitudeDegrees>
              <LongitudeDegrees>-1.31674543954432010650634765625</LongitudeDegrees>
            </Position>
            <AltitudeMeters>19.6000003814697265625</AltitudeMeters>
            <DistanceMeters>NAN</DistanceMeters>
          </Trackpoint>
          <Trackpoint>
            <Time>2022-07-06T12:07:21.000Z</Time>
            <Position>
              <LatitudeDegrees>44.09338192082941532135009765625</LatitudeDegrees>
              <LongitudeDegrees>-1.3167049549520015716552734375</LongitudeDegrees>
            </Position>
            <AltitudeMeters>19.6000003814697265625</AltitudeMeters>
            <DistanceMeters>NAN</DistanceMeters>
          </Trackpoint>
          <Trackpoint>
            <Time>2022-07-06T12:07:26.000Z</Time>
            <Position>
              <LatitudeDegrees>44.09341662190854549407958984375</LatitudeDegrees>
              <LongitudeDegrees>-1.31667293608188629150390625</LongitudeDegrees>
            </Position>
            <AltitudeMeters>19.799999237060546875</AltitudeMeters>
            <DistanceMeters>NAN</DistanceMeters>
          </Trackpoint>
          <Trackpoint>
            <Time>2022-07-06T12:08:35.000Z</Time>
            <Position>
              <LatitudeDegrees>44.09333984367549419403076171875</LatitudeDegrees>
              <LongitudeDegrees>-1.31695129908621311187744140625</LongitudeDegrees>
            </Position>
            <AltitudeMeters>18.6000003814697265625</AltitudeMeters>
            <DistanceMeters>NAN</DistanceMeters>
          </Trackpoint>
          <Trackpoint>
            <Time>2022-07-06T12:08:36.000Z</Time>
            <Position>
              <LatitudeDegrees>44.0933293662965297698974609375</LatitudeDegrees>
              <LongitudeDegrees>-1.31694610230624675750732421875</LongitudeDegrees>
            </Position>
            <AltitudeMeters>18.6000003814697265625</AltitudeMeters>
            <DistanceMeters>NAN</DistanceMeters>
          </Trackpoint>
          <Trackpoint>
            <Time>2022-07-06T12:08:39.000Z</Time>
            <Position>
              <LatitudeDegrees>44.0932981856167316436767578125</LatitudeDegrees>
              <LongitudeDegrees>-1.31695029325783252716064453125</LongitudeDegrees>
            </Position>
            <AltitudeMeters>18.6000003814697265625</AltitudeMeters>
            <DistanceMeters>NAN</DistanceMeters>
          </Trackpoint>
          <Trackpoint>
            <Time>2022-07-06T12:08:42.000Z</Time>
            <Position>
              <LatitudeDegrees>44.0932606346905231475830078125</LatitudeDegrees>
              <LongitudeDegrees>-1.31698030047118663787841796875</LongitudeDegrees>
            </Position>
            <AltitudeMeters>18.3999996185302734375</AltitudeMeters>
            <DistanceMeters>NAN</DistanceMeters>
          </Trackpoint>
          <Trackpoint>
            <Time>2022-07-06T12:08:43.000Z</Time>
            <Position>
              <LatitudeDegrees>44.0932515822350978851318359375</LatitudeDegrees>
              <LongitudeDegrees>-1.31699454970657825469970703125</LongitudeDegrees>
            </Position>
            <AltitudeMeters>18.3999996185302734375</AltitudeMeters>
            <DistanceMeters>NAN</DistanceMeters>
          </Trackpoint>
          <Trackpoint>
            <Time>2022-07-06T12:08:45.000Z</Time>
            <Position>
              <LatitudeDegrees>44.09324546344578266143798828125</LatitudeDegrees>
              <LongitudeDegrees>-1.31703159771859645843505859375</LongitudeDegrees>
            </Position>
            <AltitudeMeters>18.3999996185302734375</AltitudeMeters>
            <DistanceMeters>NAN</DistanceMeters>
          </Trackpoint>
          <Trackpoint>
            <Time>2022-07-06T12:08:46.000Z</Time>
            <Position>
              <LatitudeDegrees>44.093246050179004669189453125</LatitudeDegrees>
              <LongitudeDegrees>-1.31705489940941333770751953125</LongitudeDegrees>
            </Position>
            <AltitudeMeters>18.3999996185302734375</AltitudeMeters>
            <DistanceMeters>NAN</DistanceMeters>
          </Trackpoint>
          <Trackpoint>
            <Time>2022-07-06T12:08:50.000Z</Time>
            <Position>
              <LatitudeDegrees>44.0932524204254150390625</LatitudeDegrees>
              <LongitudeDegrees>-1.3171498663723468780517578125</LongitudeDegrees>
            </Position>
            <AltitudeMeters>18.200000762939453125</AltitudeMeters>
            <DistanceMeters>NAN</DistanceMeters>
          </Trackpoint>
          <Trackpoint>
            <Time>2022-07-06T12:08:52.000Z</Time>
            <Position>
              <LatitudeDegrees>44.0932465530931949615478515625</LatitudeDegrees>
              <LongitudeDegrees>-1.3171854056417942047119140625</LongitudeDegrees>
            </Position>
            <AltitudeMeters>18</AltitudeMeters>
            <DistanceMeters>NAN</DistanceMeters>
          </Trackpoint>
          <Trackpoint>
            <Time>2022-07-06T12:08:53.000Z</Time>
            <Position>
              <LatitudeDegrees>44.09324546344578266143798828125</LatitudeDegrees>
              <LongitudeDegrees>-1.3172082044184207916259765625</LongitudeDegrees>
            </Position>
            <AltitudeMeters>18</AltitudeMeters>
            <DistanceMeters>NAN</DistanceMeters>
          </Trackpoint>
          <Trackpoint>
            <Time>2022-07-06T12:08:58.000Z</Time>
            <Position>
              <LatitudeDegrees>44.09323574043810367584228515625</LatitudeDegrees>
              <LongitudeDegrees>-1.31735044531524181365966796875</LongitudeDegrees>
            </Position>
            <AltitudeMeters>18</AltitudeMeters>
            <DistanceMeters>NAN</DistanceMeters>
          </Trackpoint>
          <Trackpoint>
            <Time>2022-07-06T12:08:59.000Z</Time>
            <Position>
              <LatitudeDegrees>44.093220569193363189697265625</LatitudeDegrees>
              <LongitudeDegrees>-1.317376680672168731689453125</LongitudeDegrees>
            </Position>
            <AltitudeMeters>18</AltitudeMeters>
            <DistanceMeters>NAN</DistanceMeters>
          </Trackpoint>
          <Trackpoint>
            <Time>2022-07-06T12:09:03.000Z</Time>
            <Position>
              <LatitudeDegrees>44.093093164265155792236328125</LatitudeDegrees>
              <LongitudeDegrees>-1.31745438091456890106201171875</LongitudeDegrees>
            </Position>
            <AltitudeMeters>17.799999237060546875</AltitudeMeters>
            <DistanceMeters>NAN</DistanceMeters>
          </Trackpoint>
          <Trackpoint>
            <Time>2022-07-06T12:09:04.000Z</Time>
            <Position>
              <LatitudeDegrees>44.093048237264156341552734375</LatitudeDegrees>
              <LongitudeDegrees>-1.31745957769453525543212890625</LongitudeDegrees>
            </Position>
            <AltitudeMeters>17.6000003814697265625</AltitudeMeters>
            <DistanceMeters>NAN</DistanceMeters>
          </Trackpoint>
          <Trackpoint>
            <Time>2022-07-06T12:09:08.000Z</Time>
            <Position>
              <LatitudeDegrees>44.09286408685147762298583984375</LatitudeDegrees>
              <LongitudeDegrees>-1.31750567816197872161865234375</LongitudeDegrees>
            </Position>
            <AltitudeMeters>17</AltitudeMeters>
            <DistanceMeters>NAN</DistanceMeters>
          </Trackpoint>
          <Trackpoint>
            <Time>2022-07-06T12:09:10.000Z</Time>
            <Position>
              <LatitudeDegrees>44.09276702441275119781494140625</LatitudeDegrees>
              <LongitudeDegrees>-1.317558400332927703857421875</LongitudeDegrees>
            </Position>
            <AltitudeMeters>16.3999996185302734375</AltitudeMeters>
            <DistanceMeters>NAN</DistanceMeters>
          </Trackpoint>
          <Trackpoint>
            <Time>2022-07-06T12:09:12.000Z</Time>
            <Position>
              <LatitudeDegrees>44.09267365001142024993896484375</LatitudeDegrees>
              <LongitudeDegrees>-1.31766241975128650665283203125</LongitudeDegrees>
            </Position>
            <AltitudeMeters>15.80000019073486328125</AltitudeMeters>
            <DistanceMeters>NAN</DistanceMeters>
          </Trackpoint>
          <Trackpoint>
            <Time>2022-07-06T12:09:14.000Z</Time>
            <Position>
              <LatitudeDegrees>44.092614389955997467041015625</LatitudeDegrees>
              <LongitudeDegrees>-1.31777465343475341796875</LongitudeDegrees>
            </Position>
            <AltitudeMeters>15.19999980926513671875</AltitudeMeters>
            <DistanceMeters>NAN</DistanceMeters>
          </Trackpoint>
          <Trackpoint>
            <Time>2022-07-06T12:09:15.000Z</Time>
            <Position>
              <LatitudeDegrees>44.0926014818251132965087890625</LatitudeDegrees>
              <LongitudeDegrees>-1.31782620213925838470458984375</LongitudeDegrees>
            </Position>
            <AltitudeMeters>15</AltitudeMeters>
            <DistanceMeters>NAN</DistanceMeters>
          </Trackpoint>
          <Trackpoint>
            <Time>2022-07-06T12:09:17.000Z</Time>
            <Position>
              <LatitudeDegrees>44.0925749950110912322998046875</LatitudeDegrees>
              <LongitudeDegrees>-1.3179853744804859161376953125</LongitudeDegrees>
            </Position>
            <AltitudeMeters>14.3999996185302734375</AltitudeMeters>
            <DistanceMeters>NAN</DistanceMeters>
          </Trackpoint>
          <Trackpoint>
            <Time>2022-07-06T12:09:18.000Z</Time>
            <Position>
              <LatitudeDegrees>44.092567451298236846923828125</LatitudeDegrees>
              <LongitudeDegrees>-1.31809056736528873443603515625</LongitudeDegrees>
            </Position>
            <AltitudeMeters>14</AltitudeMeters>
            <DistanceMeters>NAN</DistanceMeters>
          </Trackpoint>
          <Trackpoint>
            <Time>2022-07-06T12:09:20.000Z</Time>
            <Position>
              <LatitudeDegrees>44.0925605781376361846923828125</LatitudeDegrees>
              <LongitudeDegrees>-1.318297684192657470703125</LongitudeDegrees>
            </Position>
            <AltitudeMeters>13.3999996185302734375</AltitudeMeters>
            <DistanceMeters>NAN</DistanceMeters>
          </Trackpoint>
          <Trackpoint>
            <Time>2022-07-06T12:09:22.000Z</Time>
            <Position>
              <LatitudeDegrees>44.09254389815032482147216796875</LatitudeDegrees>
              <LongitudeDegrees>-1.318470351397991180419921875</LongitudeDegrees>
            </Position>
            <AltitudeMeters>13.19999980926513671875</AltitudeMeters>
            <DistanceMeters>NAN</DistanceMeters>
          </Trackpoint>
          <Trackpoint>
            <Time>2022-07-06T12:09:23.000Z</Time>
            <Position>
              <LatitudeDegrees>44.09253895282745361328125</LatitudeDegrees>
              <LongitudeDegrees>-1.31855207495391368865966796875</LongitudeDegrees>
            </Position>
            <AltitudeMeters>12.80000019073486328125</AltitudeMeters>
            <DistanceMeters>NAN</DistanceMeters>
          </Trackpoint>
          <Trackpoint>
            <Time>2022-07-06T12:09:24.000Z</Time>
            <Position>
              <LatitudeDegrees>44.09252830781042575836181640625</LatitudeDegrees>
              <LongitudeDegrees>-1.3186237402260303497314453125</LongitudeDegrees>
            </Position>
            <AltitudeMeters>12.6000003814697265625</AltitudeMeters>
            <DistanceMeters>NAN</DistanceMeters>
          </Trackpoint>
          <Trackpoint>
            <Time>2022-07-06T12:09:25.000Z</Time>
            <Position>
              <LatitudeDegrees>44.09252277575433254241943359375</LatitudeDegrees>
              <LongitudeDegrees>-1.3186961598694324493408203125</LongitudeDegrees>
            </Position>
            <AltitudeMeters>12.3999996185302734375</AltitudeMeters>
            <DistanceMeters>NAN</DistanceMeters>
          </Trackpoint>
          <Trackpoint>
            <Time>2022-07-06T12:09:27.000Z</Time>
            <Position>
              <LatitudeDegrees>44.092516489326953887939453125</LatitudeDegrees>
              <LongitudeDegrees>-1.31883521564304828643798828125</LongitudeDegrees>
            </Position>
            <AltitudeMeters>12.19999980926513671875</AltitudeMeters>
            <DistanceMeters>NAN</DistanceMeters>
          </Trackpoint>
          <Trackpoint>
            <Time>2022-07-06T12:09:30.000Z</Time>
            <Position>
              <LatitudeDegrees>44.09251187928020954132080078125</LatitudeDegrees>
              <LongitudeDegrees>-1.31899463944137096405029296875</LongitudeDegrees>
            </Position>
            <AltitudeMeters>11.80000019073486328125</AltitudeMeters>
            <DistanceMeters>NAN</DistanceMeters>
          </Trackpoint>
          <Trackpoint>
            <Time>2022-07-06T12:09:35.000Z</Time>
            <Position>
              <LatitudeDegrees>44.09247851930558681488037109375</LatitudeDegrees>
              <LongitudeDegrees>-1.31924785673618316650390625</LongitudeDegrees>
            </Position>
            <AltitudeMeters>11.80000019073486328125</AltitudeMeters>
            <DistanceMeters>NAN</DistanceMeters>
          </Trackpoint>
          <Trackpoint>
            <Time>2022-07-06T12:09:37.000Z</Time>
            <Position>
              <LatitudeDegrees>44.09247181378304958343505859375</LatitudeDegrees>
              <LongitudeDegrees>-1.3193244673311710357666015625</LongitudeDegrees>
            </Position>
            <AltitudeMeters>11.6000003814697265625</AltitudeMeters>
            <DistanceMeters>NAN</DistanceMeters>
          </Trackpoint>
          <Trackpoint>
            <Time>2022-07-06T12:09:43.000Z</Time>
            <Position>
              <LatitudeDegrees>44.09239704720675945281982421875</LatitudeDegrees>
              <LongitudeDegrees>-1.3194797001779079437255859375</LongitudeDegrees>
            </Position>
            <AltitudeMeters>11.3999996185302734375</AltitudeMeters>
            <DistanceMeters>NAN</DistanceMeters>
          </Trackpoint>
          <Trackpoint>
            <Time>2022-07-06T12:09:52.000Z</Time>
            <Position>
              <LatitudeDegrees>44.09216503612697124481201171875</LatitudeDegrees>
              <LongitudeDegrees>-1.31962529383599758148193359375</LongitudeDegrees>
            </Position>
            <AltitudeMeters>12</AltitudeMeters>
            <DistanceMeters>NAN</DistanceMeters>
          </Trackpoint>
          <Trackpoint>
            <Time>2022-07-06T12:09:58.000Z</Time>
            <Position>
              <LatitudeDegrees>44.09203494898974895477294921875</LatitudeDegrees>
              <LongitudeDegrees>-1.31971363909542560577392578125</LongitudeDegrees>
            </Position>
            <AltitudeMeters>12.80000019073486328125</AltitudeMeters>
            <DistanceMeters>NAN</DistanceMeters>
          </Trackpoint>
          <Trackpoint>
            <Time>2022-07-06T12:09:59.000Z</Time>
            <Position>
              <LatitudeDegrees>44.092015922069549560546875</LatitudeDegrees>
              <LongitudeDegrees>-1.3197433948516845703125</LongitudeDegrees>
            </Position>
            <AltitudeMeters>12.80000019073486328125</AltitudeMeters>
            <DistanceMeters>NAN</DistanceMeters>
          </Trackpoint>
          <Trackpoint>
            <Time>2022-07-06T12:10:00.000Z</Time>
            <Position>
              <LatitudeDegrees>44.09200963564217090606689453125</LatitudeDegrees>
              <LongitudeDegrees>-1.31977558135986328125</LongitudeDegrees>
            </Position>
            <AltitudeMeters>13</AltitudeMeters>
            <DistanceMeters>NAN</DistanceMeters>
          </Trackpoint>
          <Trackpoint>
            <Time>2022-07-06T12:10:05.000Z</Time>
            <Position>
              <LatitudeDegrees>44.0920440852642059326171875</LatitudeDegrees>
              <LongitudeDegrees>-1.31995302625000476837158203125</LongitudeDegrees>
            </Position>
            <AltitudeMeters>13.80000019073486328125</AltitudeMeters>
            <DistanceMeters>NAN</DistanceMeters>
          </Trackpoint>
          <Trackpoint>
            <Time>2022-07-06T12:10:13.000Z</Time>
            <Position>
              <LatitudeDegrees>44.09211474470794200897216796875</LatitudeDegrees>
              <LongitudeDegrees>-1.32027405314147472381591796875</LongitudeDegrees>
            </Position>
            <AltitudeMeters>14</AltitudeMeters>
            <DistanceMeters>NAN</DistanceMeters>
          </Trackpoint>
          <Trackpoint>
            <Time>2022-07-06T12:10:14.000Z</Time>
            <Position>
              <LatitudeDegrees>44.09211776219308376312255859375</LatitudeDegrees>
              <LongitudeDegrees>-1.32031478919088840484619140625</LongitudeDegrees>
            </Position>
            <AltitudeMeters>14</AltitudeMeters>
            <DistanceMeters>NAN</DistanceMeters>
          </Trackpoint>
          <Trackpoint>
            <Time>2022-07-06T12:10:16.000Z</Time>
            <Position>
              <LatitudeDegrees>44.09210988320410251617431640625</LatitudeDegrees>
              <LongitudeDegrees>-1.320392824709415435791015625</LongitudeDegrees>
            </Position>
            <AltitudeMeters>13.6000003814697265625</AltitudeMeters>
            <DistanceMeters>NAN</DistanceMeters>
          </Trackpoint>
          <Trackpoint>
            <Time>2022-07-06T12:10:17.000Z</Time>
            <Position>
              <LatitudeDegrees>44.0920921973884105682373046875</LatitudeDegrees>
              <LongitudeDegrees>-1.32042459212243556976318359375</LongitudeDegrees>
            </Position>
            <AltitudeMeters>13.19999980926513671875</AltitudeMeters>
            <DistanceMeters>NAN</DistanceMeters>
          </Trackpoint>
          <Trackpoint>
            <Time>2022-07-06T12:10:21.000Z</Time>
            <Position>
              <LatitudeDegrees>44.0920023433864116668701171875</LatitudeDegrees>
              <LongitudeDegrees>-1.32047488354146480560302734375</LongitudeDegrees>
            </Position>
            <AltitudeMeters>12.80000019073486328125</AltitudeMeters>
            <DistanceMeters>NAN</DistanceMeters>
          </Trackpoint>
          <Trackpoint>
            <Time>2022-07-06T12:10:23.000Z</Time>
            <Position>
              <LatitudeDegrees>44.09194895066320896148681640625</LatitudeDegrees>
              <LongitudeDegrees>-1.3204801641404628753662109375</LongitudeDegrees>
            </Position>
            <AltitudeMeters>12.80000019073486328125</AltitudeMeters>
            <DistanceMeters>NAN</DistanceMeters>
          </Trackpoint>
          <Trackpoint>
            <Time>2022-07-06T12:10:27.000Z</Time>
            <Position>
              <LatitudeDegrees>44.09187451936304569244384765625</LatitudeDegrees>
              <LongitudeDegrees>-1.3205089978873729705810546875</LongitudeDegrees>
            </Position>
            <AltitudeMeters>13.19999980926513671875</AltitudeMeters>
            <DistanceMeters>NAN</DistanceMeters>
          </Trackpoint>
          <Trackpoint>
            <Time>2022-07-06T12:10:34.000Z</Time>
            <Position>
              <LatitudeDegrees>44.09173236228525638580322265625</LatitudeDegrees>
              <LongitudeDegrees>-1.320534311234951019287109375</LongitudeDegrees>
            </Position>
            <AltitudeMeters>13.80000019073486328125</AltitudeMeters>
            <DistanceMeters>NAN</DistanceMeters>
          </Trackpoint>
          <Trackpoint>
            <Time>2022-07-06T12:10:40.000Z</Time>
            <Position>
              <LatitudeDegrees>44.09156623296439647674560546875</LatitudeDegrees>
              <LongitudeDegrees>-1.3205606304109096527099609375</LongitudeDegrees>
            </Position>
            <AltitudeMeters>14</AltitudeMeters>
            <DistanceMeters>NAN</DistanceMeters>
          </Trackpoint>
          <Trackpoint>
            <Time>2022-07-06T12:10:46.000Z</Time>
            <Position>
              <LatitudeDegrees>44.09140630625188350677490234375</LatitudeDegrees>
              <LongitudeDegrees>-1.32058317773044109344482421875</LongitudeDegrees>
            </Position>
            <AltitudeMeters>14.3999996185302734375</AltitudeMeters>
            <DistanceMeters>NAN</DistanceMeters>
          </Trackpoint>
          <Trackpoint>
            <Time>2022-07-06T12:10:47.000Z</Time>
            <Position>
              <LatitudeDegrees>44.09137981943786144256591796875</LatitudeDegrees>
              <LongitudeDegrees>-1.32058753632009029388427734375</LongitudeDegrees>
            </Position>
            <AltitudeMeters>14.6000003814697265625</AltitudeMeters>
            <DistanceMeters>NAN</DistanceMeters>
          </Trackpoint>
          <Trackpoint>
            <Time>2022-07-06T12:10:50.000Z</Time>
            <Position>
              <LatitudeDegrees>44.09129817970097064971923828125</LatitudeDegrees>
              <LongitudeDegrees>-1.32059742696583271026611328125</LongitudeDegrees>
            </Position>
            <AltitudeMeters>14.6000003814697265625</AltitudeMeters>
            <DistanceMeters>NAN</DistanceMeters>
          </Trackpoint>
          <Trackpoint>
            <Time>2022-07-06T12:10:52.000Z</Time>
            <Position>
              <LatitudeDegrees>44.09124302677810192108154296875</LatitudeDegrees>
              <LongitudeDegrees>-1.32061385549604892730712890625</LongitudeDegrees>
            </Position>
            <AltitudeMeters>14.80000019073486328125</AltitudeMeters>
            <DistanceMeters>NAN</DistanceMeters>
          </Trackpoint>
          <Trackpoint>
            <Time>2022-07-06T12:10:55.000Z</Time>
            <Position>
              <LatitudeDegrees>44.09116826020181179046630859375</LatitudeDegrees>
              <LongitudeDegrees>-1.32062793709337711334228515625</LongitudeDegrees>
            </Position>
            <AltitudeMeters>15</AltitudeMeters>
            <DistanceMeters>NAN</DistanceMeters>
          </Trackpoint>
          <Trackpoint>
            <Time>2022-07-06T12:11:02.000Z</Time>
            <Position>
              <LatitudeDegrees>44.09100665710866451263427734375</LatitudeDegrees>
              <LongitudeDegrees>-1.32070002146065235137939453125</LongitudeDegrees>
            </Position>
            <AltitudeMeters>15.3999996185302734375</AltitudeMeters>
            <DistanceMeters>NAN</DistanceMeters>
          </Trackpoint>
          <Trackpoint>
            <Time>2022-07-06T12:11:07.000Z</Time>
            <Position>
              <LatitudeDegrees>44.09098452888429164886474609375</LatitudeDegrees>
              <LongitudeDegrees>-1.3208523206412792205810546875</LongitudeDegrees>
            </Position>
            <AltitudeMeters>15.80000019073486328125</AltitudeMeters>
            <DistanceMeters>NAN</DistanceMeters>
          </Trackpoint>
          <Trackpoint>
            <Time>2022-07-06T12:11:12.000Z</Time>
            <Position>
              <LatitudeDegrees>44.09095284529030323028564453125</LatitudeDegrees>
              <LongitudeDegrees>-1.32093655876815319061279296875</LongitudeDegrees>
            </Position>
            <AltitudeMeters>15.80000019073486328125</AltitudeMeters>
            <DistanceMeters>NAN</DistanceMeters>
          </Trackpoint>
          <Trackpoint>
            <Time>2022-07-06T12:11:13.000Z</Time>
            <Position>
              <LatitudeDegrees>44.090949408710002899169921875</LatitudeDegrees>
              <LongitudeDegrees>-1.32094074971973896026611328125</LongitudeDegrees>
            </Position>
            <AltitudeMeters>16</AltitudeMeters>
            <DistanceMeters>NAN</DistanceMeters>
          </Trackpoint>
          <Trackpoint>
            <Time>2022-07-06T12:11:15.000Z</Time>
            <Position>
              <LatitudeDegrees>44.090949408710002899169921875</LatitudeDegrees>
              <LongitudeDegrees>-1.32094074971973896026611328125</LongitudeDegrees>
            </Position>
            <AltitudeMeters>16</AltitudeMeters>
            <DistanceMeters>NAN</DistanceMeters>
          </Trackpoint>
          <Trackpoint>
            <Time>2022-07-06T12:12:47.000Z</Time>
            <Position>
              <LatitudeDegrees>44.0909497439861297607421875</LatitudeDegrees>
              <LongitudeDegrees>-1.320883333683013916015625</LongitudeDegrees>
            </Position>
            <AltitudeMeters>15.80000019073486328125</AltitudeMeters>
            <DistanceMeters>NAN</DistanceMeters>
          </Trackpoint>
          <Trackpoint>
            <Time>2022-07-06T12:12:48.000Z</Time>
            <Position>
              <LatitudeDegrees>44.0909492410719394683837890625</LatitudeDegrees>
              <LongitudeDegrees>-1.32085072807967662811279296875</LongitudeDegrees>
            </Position>
            <AltitudeMeters>15.6000003814697265625</AltitudeMeters>
            <DistanceMeters>NAN</DistanceMeters>
          </Trackpoint>
          <Trackpoint>
            <Time>2022-07-06T12:12:53.000Z</Time>
            <Position>
              <LatitudeDegrees>44.09095535986125469207763671875</LatitudeDegrees>
              <LongitudeDegrees>-1.32070505060255527496337890625</LongitudeDegrees>
            </Position>
            <AltitudeMeters>15</AltitudeMeters>
            <DistanceMeters>NAN</DistanceMeters>
          </Trackpoint>
          <Trackpoint>
            <Time>2022-07-06T12:12:54.000Z</Time>
            <Position>
              <LatitudeDegrees>44.09095577895641326904296875</LatitudeDegrees>
              <LongitudeDegrees>-1.32067185826599597930908203125</LongitudeDegrees>
            </Position>
            <AltitudeMeters>15</AltitudeMeters>
            <DistanceMeters>NAN</DistanceMeters>
          </Trackpoint>
          <Trackpoint>
            <Time>2022-07-06T12:12:57.000Z</Time>
            <Position>
              <LatitudeDegrees>44.0909502469003200531005859375</LatitudeDegrees>
              <LongitudeDegrees>-1.3205609656870365142822265625</LongitudeDegrees>
            </Position>
            <AltitudeMeters>14.80000019073486328125</AltitudeMeters>
            <DistanceMeters>NAN</DistanceMeters>
          </Trackpoint>
          <Trackpoint>
            <Time>2022-07-06T12:12:59.000Z</Time>
            <Position>
              <LatitudeDegrees>44.09094781614840030670166015625</LatitudeDegrees>
              <LongitudeDegrees>-1.3204875402152538299560546875</LongitudeDegrees>
            </Position>
            <AltitudeMeters>14.6000003814697265625</AltitudeMeters>
            <DistanceMeters>NAN</DistanceMeters>
          </Trackpoint>
          <Trackpoint>
            <Time>2022-07-06T12:13:01.000Z</Time>
            <Position>
              <LatitudeDegrees>44.0909388475120067596435546875</LatitudeDegrees>
              <LongitudeDegrees>-1.3204141147434711456298828125</LongitudeDegrees>
            </Position>
            <AltitudeMeters>14.3999996185302734375</AltitudeMeters>
            <DistanceMeters>NAN</DistanceMeters>
          </Trackpoint>
          <Trackpoint>
            <Time>2022-07-06T12:13:02.000Z</Time>
            <Position>
              <LatitudeDegrees>44.0909309685230255126953125</LatitudeDegrees>
              <LongitudeDegrees>-1.32038000039756298065185546875</LongitudeDegrees>
            </Position>
            <AltitudeMeters>14.19999980926513671875</AltitudeMeters>
            <DistanceMeters>NAN</DistanceMeters>
          </Trackpoint>
          <Trackpoint>
            <Time>2022-07-06T12:13:07.000Z</Time>
            <Position>
              <LatitudeDegrees>44.09089584834873676300048828125</LatitudeDegrees>
              <LongitudeDegrees>-1.3202330656349658966064453125</LongitudeDegrees>
            </Position>
            <AltitudeMeters>13.80000019073486328125</AltitudeMeters>
            <DistanceMeters>NAN</DistanceMeters>
          </Trackpoint>
          <Trackpoint>
            <Time>2022-07-06T12:13:09.000Z</Time>
            <Position>
              <LatitudeDegrees>44.09089266322553157806396484375</LatitudeDegrees>
              <LongitudeDegrees>-1.32023013196885585784912109375</LongitudeDegrees>
            </Position>
            <AltitudeMeters>13.6000003814697265625</AltitudeMeters>
            <DistanceMeters>NAN</DistanceMeters>
          </Trackpoint>
          <Trackpoint>
            <Time>2022-07-06T12:13:10.000Z</Time>
            <Position>
              <LatitudeDegrees>44.09089266322553157806396484375</LatitudeDegrees>
              <LongitudeDegrees>-1.32023013196885585784912109375</LongitudeDegrees>
            </Position>
            <AltitudeMeters>13.3999996185302734375</AltitudeMeters>
            <DistanceMeters>NAN</DistanceMeters>
          </Trackpoint>
          <Trackpoint>
            <Time>2022-07-06T12:14:03.000Z</Time>
            <Position>
              <LatitudeDegrees>44.09089014865458011627197265625</LatitudeDegrees>
              <LongitudeDegrees>-1.32020196877419948577880859375</LongitudeDegrees>
            </Position>
            <AltitudeMeters>14</AltitudeMeters>
            <DistanceMeters>NAN</DistanceMeters>
          </Trackpoint>
          <Trackpoint>
            <Time>2022-07-06T12:14:04.000Z</Time>
            <Position>
              <LatitudeDegrees>44.0908768214285373687744140625</LatitudeDegrees>
              <LongitudeDegrees>-1.32014664821326732635498046875</LongitudeDegrees>
            </Position>
            <AltitudeMeters>14</AltitudeMeters>
            <DistanceMeters>NAN</DistanceMeters>
          </Trackpoint>
          <Trackpoint>
            <Time>2022-07-06T12:14:05.000Z</Time>
            <Position>
              <LatitudeDegrees>44.09086190164089202880859375</LatitudeDegrees>
              <LongitudeDegrees>-1.32010675035417079925537109375</LongitudeDegrees>
            </Position>
            <AltitudeMeters>14</AltitudeMeters>
            <DistanceMeters>NAN</DistanceMeters>
          </Trackpoint>
          <Trackpoint>
            <Time>2022-07-06T12:14:09.000Z</Time>
            <Position>
              <LatitudeDegrees>44.09076592884957790374755859375</LatitudeDegrees>
              <LongitudeDegrees>-1.31992821581661701202392578125</LongitudeDegrees>
            </Position>
            <AltitudeMeters>13.80000019073486328125</AltitudeMeters>
            <DistanceMeters>NAN</DistanceMeters>
          </Trackpoint>
          <Trackpoint>
            <Time>2022-07-06T12:14:12.000Z</Time>
            <Position>
              <LatitudeDegrees>44.09066132269799709320068359375</LatitudeDegrees>
              <LongitudeDegrees>-1.31977817974984645843505859375</LongitudeDegrees>
            </Position>
            <AltitudeMeters>13.3999996185302734375</AltitudeMeters>
            <DistanceMeters>NAN</DistanceMeters>
          </Trackpoint>
          <Trackpoint>
            <Time>2022-07-06T12:14:15.000Z</Time>
            <Position>
              <LatitudeDegrees>44.0905469097197055816650390625</LatitudeDegrees>
              <LongitudeDegrees>-1.3196637667715549468994140625</LongitudeDegrees>
            </Position>
            <AltitudeMeters>13.19999980926513671875</AltitudeMeters>
            <DistanceMeters>NAN</DistanceMeters>
          </Trackpoint>
          <Trackpoint>
            <Time>2022-07-06T12:14:20.000Z</Time>
            <Position>
              <LatitudeDegrees>44.0903462469577789306640625</LatitudeDegrees>
              <LongitudeDegrees>-1.31944893859326839447021484375</LongitudeDegrees>
            </Position>
            <AltitudeMeters>13</AltitudeMeters>
            <DistanceMeters>NAN</DistanceMeters>
          </Trackpoint>
          <Trackpoint>
            <Time>2022-07-06T12:14:22.000Z</Time>
            <Position>
              <LatitudeDegrees>44.09025438129901885986328125</LatitudeDegrees>
              <LongitudeDegrees>-1.3193569891154766082763671875</LongitudeDegrees>
            </Position>
            <AltitudeMeters>13</AltitudeMeters>
            <DistanceMeters>NAN</DistanceMeters>
          </Trackpoint>
          <Trackpoint>
            <Time>2022-07-06T12:14:27.000Z</Time>
            <Position>
              <LatitudeDegrees>44.09003846347332000732421875</LatitudeDegrees>
              <LongitudeDegrees>-1.31910494528710842132568359375</LongitudeDegrees>
            </Position>
            <AltitudeMeters>13.19999980926513671875</AltitudeMeters>
            <DistanceMeters>NAN</DistanceMeters>
          </Trackpoint>
          <Trackpoint>
            <Time>2022-07-06T12:14:31.000Z</Time>
            <Position>
              <LatitudeDegrees>44.08986747264862060546875</LatitudeDegrees>
              <LongitudeDegrees>-1.31889824755489826202392578125</LongitudeDegrees>
            </Position>
            <AltitudeMeters>13</AltitudeMeters>
            <DistanceMeters>NAN</DistanceMeters>
          </Trackpoint>
          <Trackpoint>
            <Time>2022-07-06T12:14:37.000Z</Time>
            <Position>
              <LatitudeDegrees>44.089643172919750213623046875</LatitudeDegrees>
              <LongitudeDegrees>-1.3185570202767848968505859375</LongitudeDegrees>
            </Position>
            <AltitudeMeters>12.80000019073486328125</AltitudeMeters>
            <DistanceMeters>NAN</DistanceMeters>
          </Trackpoint>
          <Trackpoint>
            <Time>2022-07-06T12:14:38.000Z</Time>
            <Position>
              <LatitudeDegrees>44.0896118246018886566162109375</LatitudeDegrees>
              <LongitudeDegrees>-1.31849474273622035980224609375</LongitudeDegrees>
            </Position>
            <AltitudeMeters>12.80000019073486328125</AltitudeMeters>
            <DistanceMeters>NAN</DistanceMeters>
          </Trackpoint>
          <Trackpoint>
            <Time>2022-07-06T12:14:45.000Z</Time>
            <Position>
              <LatitudeDegrees>44.0894415043294429779052734375</LatitudeDegrees>
              <LongitudeDegrees>-1.31800591014325618743896484375</LongitudeDegrees>
            </Position>
            <AltitudeMeters>12</AltitudeMeters>
            <DistanceMeters>NAN</DistanceMeters>
          </Trackpoint>
          <Trackpoint>
            <Time>2022-07-06T12:14:46.000Z</Time>
            <Position>
              <LatitudeDegrees>44.08942197449505329132080078125</LatitudeDegrees>
              <LongitudeDegrees>-1.3179494999349117279052734375</LongitudeDegrees>
            </Position>
            <AltitudeMeters>12</AltitudeMeters>
            <DistanceMeters>NAN</DistanceMeters>
          </Trackpoint>
          <Trackpoint>
            <Time>2022-07-06T12:14:52.000Z</Time>
            <Position>
              <LatitudeDegrees>44.08928367309272289276123046875</LatitudeDegrees>
              <LongitudeDegrees>-1.31753803230822086334228515625</LongitudeDegrees>
            </Position>
            <AltitudeMeters>12.6000003814697265625</AltitudeMeters>
            <DistanceMeters>NAN</DistanceMeters>
          </Trackpoint>
          <Trackpoint>
            <Time>2022-07-06T12:14:57.000Z</Time>
            <Position>
              <LatitudeDegrees>44.08918795175850391387939453125</LatitudeDegrees>
              <LongitudeDegrees>-1.31718113087117671966552734375</LongitudeDegrees>
            </Position>
            <AltitudeMeters>12.80000019073486328125</AltitudeMeters>
            <DistanceMeters>NAN</DistanceMeters>
          </Trackpoint>
          <Trackpoint>
            <Time>2022-07-06T12:14:59.000Z</Time>
            <Position>
              <LatitudeDegrees>44.08914662897586822509765625</LatitudeDegrees>
              <LongitudeDegrees>-1.31703662686049938201904296875</LongitudeDegrees>
            </Position>
            <AltitudeMeters>12.6000003814697265625</AltitudeMeters>
            <DistanceMeters>NAN</DistanceMeters>
          </Trackpoint>
          <Trackpoint>
            <Time>2022-07-06T12:15:00.000Z</Time>
            <Position>
              <LatitudeDegrees>44.08911972306668758392333984375</LatitudeDegrees>
              <LongitudeDegrees>-1.3169520534574985504150390625</LongitudeDegrees>
            </Position>
            <AltitudeMeters>12.6000003814697265625</AltitudeMeters>
            <DistanceMeters>NAN</DistanceMeters>
          </Trackpoint>
          <Trackpoint>
            <Time>2022-07-06T12:15:02.000Z</Time>
            <Position>
              <LatitudeDegrees>44.08907429315149784088134765625</LatitudeDegrees>
              <LongitudeDegrees>-1.3168238103389739990234375</LongitudeDegrees>
            </Position>
            <AltitudeMeters>12.3999996185302734375</AltitudeMeters>
            <DistanceMeters>NAN</DistanceMeters>
          </Trackpoint>
          <Trackpoint>
            <Time>2022-07-06T12:15:06.000Z</Time>
            <Position>
              <LatitudeDegrees>44.08898008055984973907470703125</LatitudeDegrees>
              <LongitudeDegrees>-1.31651745177805423736572265625</LongitudeDegrees>
            </Position>
            <AltitudeMeters>12</AltitudeMeters>
            <DistanceMeters>NAN</DistanceMeters>
          </Trackpoint>
          <Trackpoint>
            <Time>2022-07-06T12:15:09.000Z</Time>
            <Position>
              <LatitudeDegrees>44.0889191441237926483154296875</LatitudeDegrees>
              <LongitudeDegrees>-1.316312514245510101318359375</LongitudeDegrees>
            </Position>
            <AltitudeMeters>11.80000019073486328125</AltitudeMeters>
            <DistanceMeters>NAN</DistanceMeters>
          </Trackpoint>
          <Trackpoint>
            <Time>2022-07-06T12:15:10.000Z</Time>
            <Position>
              <LatitudeDegrees>44.0889003686606884002685546875</LatitudeDegrees>
              <LongitudeDegrees>-1.3162613846361637115478515625</LongitudeDegrees>
            </Position>
            <AltitudeMeters>11.80000019073486328125</AltitudeMeters>
            <DistanceMeters>NAN</DistanceMeters>
          </Trackpoint>
          <Trackpoint>
            <Time>2022-07-06T12:15:11.000Z</Time>
            <Position>
              <LatitudeDegrees>44.088881425559520721435546875</LatitudeDegrees>
              <LongitudeDegrees>-1.31622576154768466949462890625</LongitudeDegrees>
            </Position>
            <AltitudeMeters>11.6000003814697265625</AltitudeMeters>
            <DistanceMeters>NAN</DistanceMeters>
          </Trackpoint>
          <Trackpoint>
            <Time>2022-07-06T12:15:12.000Z</Time>
            <Position>
              <LatitudeDegrees>44.088859967887401580810546875</LatitudeDegrees>
              <LongitudeDegrees>-1.31621218286454677581787109375</LongitudeDegrees>
            </Position>
            <AltitudeMeters>11.6000003814697265625</AltitudeMeters>
            <DistanceMeters>NAN</DistanceMeters>
          </Trackpoint>
          <Trackpoint>
            <Time>2022-07-06T12:15:16.000Z</Time>
            <Position>
              <LatitudeDegrees>44.08875527791678905487060546875</LatitudeDegrees>
              <LongitudeDegrees>-1.31628409959375858306884765625</LongitudeDegrees>
            </Position>
            <AltitudeMeters>11.19999980926513671875</AltitudeMeters>
            <DistanceMeters>NAN</DistanceMeters>
          </Trackpoint>
          <Trackpoint>
            <Time>2022-07-06T12:15:20.000Z</Time>
            <Position>
              <LatitudeDegrees>44.088667519390583038330078125</LatitudeDegrees>
              <LongitudeDegrees>-1.31640228442847728729248046875</LongitudeDegrees>
            </Position>
            <AltitudeMeters>11</AltitudeMeters>
            <DistanceMeters>NAN</DistanceMeters>
          </Trackpoint>
          <Trackpoint>
            <Time>2022-07-06T12:15:22.000Z</Time>
            <Position>
              <LatitudeDegrees>44.08866408281028270721435546875</LatitudeDegrees>
              <LongitudeDegrees>-1.31645224057137966156005859375</LongitudeDegrees>
            </Position>
            <AltitudeMeters>11</AltitudeMeters>
            <DistanceMeters>NAN</DistanceMeters>
          </Trackpoint>
          <Trackpoint>
            <Time>2022-07-06T12:15:24.000Z</Time>
            <Position>
              <LatitudeDegrees>44.08866249024868011474609375</LatitudeDegrees>
              <LongitudeDegrees>-1.31645844317972660064697265625</LongitudeDegrees>
            </Position>
            <AltitudeMeters>10.80000019073486328125</AltitudeMeters>
            <DistanceMeters>NAN</DistanceMeters>
          </Trackpoint>
          <Trackpoint>
            <Time>2022-07-06T12:15:25.000Z</Time>
            <Position>
              <LatitudeDegrees>44.08866249024868011474609375</LatitudeDegrees>
              <LongitudeDegrees>-1.31645844317972660064697265625</LongitudeDegrees>
            </Position>
            <AltitudeMeters>10.80000019073486328125</AltitudeMeters>
            <DistanceMeters>NAN</DistanceMeters>
          </Trackpoint>
          <Trackpoint>
            <Time>2022-07-06T12:15:35.000Z</Time>
            <Position>
              <LatitudeDegrees>44.08871806226670742034912109375</LatitudeDegrees>
              <LongitudeDegrees>-1.31648476235568523406982421875</LongitudeDegrees>
            </Position>
            <AltitudeMeters>10.3999996185302734375</AltitudeMeters>
            <DistanceMeters>NAN</DistanceMeters>
          </Trackpoint>
          <Trackpoint>
            <Time>2022-07-06T12:15:37.000Z</Time>
            <Position>
              <LatitudeDegrees>44.08874924294650554656982421875</LatitudeDegrees>
              <LongitudeDegrees>-1.316447295248508453369140625</LongitudeDegrees>
            </Position>
            <AltitudeMeters>10.3999996185302734375</AltitudeMeters>
            <DistanceMeters>NAN</DistanceMeters>
          </Trackpoint>
          <Trackpoint>
            <Time>2022-07-06T12:15:42.000Z</Time>
            <Position>
              <LatitudeDegrees>44.08877137117087841033935546875</LatitudeDegrees>
              <LongitudeDegrees>-1.3163019530475139617919921875</LongitudeDegrees>
            </Position>
            <AltitudeMeters>10.6000003814697265625</AltitudeMeters>
            <DistanceMeters>NAN</DistanceMeters>
          </Trackpoint>
          <Trackpoint>
            <Time>2022-07-06T12:15:44.000Z</Time>
            <Position>
              <LatitudeDegrees>44.08880758099257946014404296875</LatitudeDegrees>
              <LongitudeDegrees>-1.31624755449593067169189453125</LongitudeDegrees>
            </Position>
            <AltitudeMeters>10.80000019073486328125</AltitudeMeters>
            <DistanceMeters>NAN</DistanceMeters>
          </Trackpoint>
          <Trackpoint>
            <Time>2022-07-06T12:15:47.000Z</Time>
            <Position>
              <LatitudeDegrees>44.0888708643615245819091796875</LatitudeDegrees>
              <LongitudeDegrees>-1.316206566989421844482421875</LongitudeDegrees>
            </Position>
            <AltitudeMeters>10.80000019073486328125</AltitudeMeters>
            <DistanceMeters>NAN</DistanceMeters>
          </Trackpoint>
          <Trackpoint>
            <Time>2022-07-06T12:15:49.000Z</Time>
            <Position>
              <LatitudeDegrees>44.0888844430446624755859375</LatitudeDegrees>
              <LongitudeDegrees>-1.3161537609994411468505859375</LongitudeDegrees>
            </Position>
            <AltitudeMeters>11</AltitudeMeters>
            <DistanceMeters>NAN</DistanceMeters>
          </Trackpoint>
          <Trackpoint>
            <Time>2022-07-06T12:15:51.000Z</Time>
            <Position>
              <LatitudeDegrees>44.0888648293912410736083984375</LatitudeDegrees>
              <LongitudeDegrees>-1.3160786591470241546630859375</LongitudeDegrees>
            </Position>
            <AltitudeMeters>11</AltitudeMeters>
            <DistanceMeters>NAN</DistanceMeters>
          </Trackpoint>
          <Trackpoint>
            <Time>2022-07-06T12:15:56.000Z</Time>
            <Position>
              <LatitudeDegrees>44.08876801840960979461669921875</LatitudeDegrees>
              <LongitudeDegrees>-1.31584555841982364654541015625</LongitudeDegrees>
            </Position>
            <AltitudeMeters>11.19999980926513671875</AltitudeMeters>
            <DistanceMeters>NAN</DistanceMeters>
          </Trackpoint>
          <Trackpoint>
            <Time>2022-07-06T12:15:58.000Z</Time>
            <Position>
              <LatitudeDegrees>44.08873490989208221435546875</LatitudeDegrees>
              <LongitudeDegrees>-1.3157554529607295989990234375</LongitudeDegrees>
            </Position>
            <AltitudeMeters>11</AltitudeMeters>
            <DistanceMeters>NAN</DistanceMeters>
          </Trackpoint>
          <Trackpoint>
            <Time>2022-07-06T12:16:00.000Z</Time>
            <Position>
              <LatitudeDegrees>44.08870280720293521881103515625</LatitudeDegrees>
              <LongitudeDegrees>-1.31566853262484073638916015625</LongitudeDegrees>
            </Position>
            <AltitudeMeters>10.80000019073486328125</AltitudeMeters>
            <DistanceMeters>NAN</DistanceMeters>
          </Trackpoint>
          <Trackpoint>
            <Time>2022-07-06T12:16:03.000Z</Time>
            <Position>
              <LatitudeDegrees>44.0886767394840717315673828125</LatitudeDegrees>
              <LongitudeDegrees>-1.31557767279446125030517578125</LongitudeDegrees>
            </Position>
            <AltitudeMeters>10.80000019073486328125</AltitudeMeters>
            <DistanceMeters>NAN</DistanceMeters>
          </Trackpoint>
          <Trackpoint>
            <Time>2022-07-06T12:16:05.000Z</Time>
            <Position>
              <LatitudeDegrees>44.0886403620243072509765625</LatitudeDegrees>
              <LongitudeDegrees>-1.3154322467744350433349609375</LongitudeDegrees>
            </Position>
            <AltitudeMeters>10.80000019073486328125</AltitudeMeters>
            <DistanceMeters>NAN</DistanceMeters>
          </Trackpoint>
          <Trackpoint>
            <Time>2022-07-06T12:16:14.000Z</Time>
            <Position>
              <LatitudeDegrees>44.0885047428309917449951171875</LatitudeDegrees>
              <LongitudeDegrees>-1.31497283466160297393798828125</LongitudeDegrees>
            </Position>
            <AltitudeMeters>11.3999996185302734375</AltitudeMeters>
            <DistanceMeters>NAN</DistanceMeters>
          </Trackpoint>
          <Trackpoint>
            <Time>2022-07-06T12:16:15.000Z</Time>
            <Position>
              <LatitudeDegrees>44.08848940394818782806396484375</LatitudeDegrees>
              <LongitudeDegrees>-1.31491717882454395294189453125</LongitudeDegrees>
            </Position>
            <AltitudeMeters>11.3999996185302734375</AltitudeMeters>
            <DistanceMeters>NAN</DistanceMeters>
          </Trackpoint>
          <Trackpoint>
            <Time>2022-07-06T12:16:18.000Z</Time>
            <Position>
              <LatitudeDegrees>44.08843844197690486907958984375</LatitudeDegrees>
              <LongitudeDegrees>-1.31475591100752353668212890625</LongitudeDegrees>
            </Position>
            <AltitudeMeters>11.3999996185302734375</AltitudeMeters>
            <DistanceMeters>NAN</DistanceMeters>
          </Trackpoint>
          <Trackpoint>
            <Time>2022-07-06T12:16:21.000Z</Time>
            <Position>
              <LatitudeDegrees>44.08838345669209957122802734375</LatitudeDegrees>
              <LongitudeDegrees>-1.31459531374275684356689453125</LongitudeDegrees>
            </Position>
            <AltitudeMeters>11.6000003814697265625</AltitudeMeters>
            <DistanceMeters>NAN</DistanceMeters>
          </Trackpoint>
          <Trackpoint>
            <Time>2022-07-06T12:16:22.000Z</Time>
            <Position>
              <LatitudeDegrees>44.0883699618279933929443359375</LatitudeDegrees>
              <LongitudeDegrees>-1.314537227153778076171875</LongitudeDegrees>
            </Position>
            <AltitudeMeters>11.6000003814697265625</AltitudeMeters>
            <DistanceMeters>NAN</DistanceMeters>
          </Trackpoint>
          <Trackpoint>
            <Time>2022-07-06T12:16:27.000Z</Time>
            <Position>
              <LatitudeDegrees>44.088287316262722015380859375</LatitudeDegrees>
              <LongitudeDegrees>-1.3142440281808376312255859375</LongitudeDegrees>
            </Position>
            <AltitudeMeters>11.6000003814697265625</AltitudeMeters>
            <DistanceMeters>NAN</DistanceMeters>
          </Trackpoint>
          <Trackpoint>
            <Time>2022-07-06T12:16:29.000Z</Time>
            <Position>
              <LatitudeDegrees>44.08825538121163845062255859375</LatitudeDegrees>
              <LongitudeDegrees>-1.31411955691874027252197265625</LongitudeDegrees>
            </Position>
            <AltitudeMeters>11.6000003814697265625</AltitudeMeters>
            <DistanceMeters>NAN</DistanceMeters>
          </Trackpoint>
          <Trackpoint>
            <Time>2022-07-06T12:16:40.000Z</Time>
            <Position>
              <LatitudeDegrees>44.08805723302066326141357421875</LatitudeDegrees>
              <LongitudeDegrees>-1.3134604878723621368408203125</LongitudeDegrees>
            </Position>
            <AltitudeMeters>11.6000003814697265625</AltitudeMeters>
            <DistanceMeters>NAN</DistanceMeters>
          </Trackpoint>
          <Trackpoint>
            <Time>2022-07-06T12:16:49.000Z</Time>
            <Position>
              <LatitudeDegrees>44.087892360985279083251953125</LatitudeDegrees>
              <LongitudeDegrees>-1.312911808490753173828125</LongitudeDegrees>
            </Position>
            <AltitudeMeters>11.80000019073486328125</AltitudeMeters>
            <DistanceMeters>NAN</DistanceMeters>
          </Trackpoint>
          <Trackpoint>
            <Time>2022-07-06T12:16:57.000Z</Time>
            <Position>
              <LatitudeDegrees>44.08773989416658878326416015625</LatitudeDegrees>
              <LongitudeDegrees>-1.312429346144199371337890625</LongitudeDegrees>
            </Position>
            <AltitudeMeters>11.80000019073486328125</AltitudeMeters>
            <DistanceMeters>NAN</DistanceMeters>
          </Trackpoint>
          <Trackpoint>
            <Time>2022-07-06T12:17:02.000Z</Time>
            <Position>
              <LatitudeDegrees>44.08762774430215358734130859375</LatitudeDegrees>
              <LongitudeDegrees>-1.312134303152561187744140625</LongitudeDegrees>
            </Position>
            <AltitudeMeters>11.80000019073486328125</AltitudeMeters>
            <DistanceMeters>NAN</DistanceMeters>
          </Trackpoint>
          <Trackpoint>
            <Time>2022-07-06T12:17:03.000Z</Time>
            <Position>
              <LatitudeDegrees>44.08761433325707912445068359375</LatitudeDegrees>
              <LongitudeDegrees>-1.3120771385729312896728515625</LongitudeDegrees>
            </Position>
            <AltitudeMeters>11.80000019073486328125</AltitudeMeters>
            <DistanceMeters>NAN</DistanceMeters>
          </Trackpoint>
          <Trackpoint>
            <Time>2022-07-06T12:17:04.000Z</Time>
            <Position>
              <LatitudeDegrees>44.08760301768779754638671875</LatitudeDegrees>
              <LongitudeDegrees>-1.312014944851398468017578125</LongitudeDegrees>
            </Position>
            <AltitudeMeters>11.80000019073486328125</AltitudeMeters>
            <DistanceMeters>NAN</DistanceMeters>
          </Trackpoint>
          <Trackpoint>
            <Time>2022-07-06T12:17:07.000Z</Time>
            <Position>
              <LatitudeDegrees>44.087553061544895172119140625</LatitudeDegrees>
              <LongitudeDegrees>-1.31185124628245830535888671875</LongitudeDegrees>
            </Position>
            <AltitudeMeters>11.80000019073486328125</AltitudeMeters>
            <DistanceMeters>NAN</DistanceMeters>
          </Trackpoint>
          <Trackpoint>
            <Time>2022-07-06T12:17:09.000Z</Time>
            <Position>
              <LatitudeDegrees>44.08751877956092357635498046875</LatitudeDegrees>
              <LongitudeDegrees>-1.311738006770610809326171875</LongitudeDegrees>
            </Position>
            <AltitudeMeters>11.80000019073486328125</AltitudeMeters>
            <DistanceMeters>NAN</DistanceMeters>
          </Trackpoint>
          <Trackpoint>
            <Time>2022-07-06T12:17:18.000Z</Time>
            <Position>
              <LatitudeDegrees>44.08736698329448699951171875</LatitudeDegrees>
              <LongitudeDegrees>-1.31122402846813201904296875</LongitudeDegrees>
            </Position>
            <AltitudeMeters>12.19999980926513671875</AltitudeMeters>
            <DistanceMeters>NAN</DistanceMeters>
          </Trackpoint>
          <Trackpoint>
            <Time>2022-07-06T12:17:22.000Z</Time>
            <Position>
              <LatitudeDegrees>44.08728609792888164520263671875</LatitudeDegrees>
              <LongitudeDegrees>-1.310999728739261627197265625</LongitudeDegrees>
            </Position>
            <AltitudeMeters>12.19999980926513671875</AltitudeMeters>
            <DistanceMeters>NAN</DistanceMeters>
          </Trackpoint>
          <Trackpoint>
            <Time>2022-07-06T12:17:24.000Z</Time>
            <Position>
              <LatitudeDegrees>44.0872417576611042022705078125</LatitudeDegrees>
              <LongitudeDegrees>-1.310891099274158477783203125</LongitudeDegrees>
            </Position>
            <AltitudeMeters>12.19999980926513671875</AltitudeMeters>
            <DistanceMeters>NAN</DistanceMeters>
          </Trackpoint>
          <Trackpoint>
            <Time>2022-07-06T12:17:25.000Z</Time>
            <Position>
              <LatitudeDegrees>44.08722675405442714691162109375</LatitudeDegrees>
              <LongitudeDegrees>-1.31083016283810138702392578125</LongitudeDegrees>
            </Position>
            <AltitudeMeters>12.19999980926513671875</AltitudeMeters>
            <DistanceMeters>NAN</DistanceMeters>
          </Trackpoint>
          <Trackpoint>
            <Time>2022-07-06T12:17:30.000Z</Time>
            <Position>
              <LatitudeDegrees>44.0871230699121952056884765625</LatitudeDegrees>
              <LongitudeDegrees>-1.31057786755263805389404296875</LongitudeDegrees>
            </Position>
            <AltitudeMeters>12.6000003814697265625</AltitudeMeters>
            <DistanceMeters>NAN</DistanceMeters>
          </Trackpoint>
          <Trackpoint>
            <Time>2022-07-06T12:17:31.000Z</Time>
            <Position>
              <LatitudeDegrees>44.08709230832755565643310546875</LatitudeDegrees>
              <LongitudeDegrees>-1.31054182536900043487548828125</LongitudeDegrees>
            </Position>
            <AltitudeMeters>12.6000003814697265625</AltitudeMeters>
            <DistanceMeters>NAN</DistanceMeters>
          </Trackpoint>
          <Trackpoint>
            <Time>2022-07-06T12:17:33.000Z</Time>
            <Position>
              <LatitudeDegrees>44.0870275162160396575927734375</LatitudeDegrees>
              <LongitudeDegrees>-1.31048684008419513702392578125</LongitudeDegrees>
            </Position>
            <AltitudeMeters>12.6000003814697265625</AltitudeMeters>
            <DistanceMeters>NAN</DistanceMeters>
          </Trackpoint>
          <Trackpoint>
            <Time>2022-07-06T12:17:35.000Z</Time>
            <Position>
              <LatitudeDegrees>44.0869577787816524505615234375</LatitudeDegrees>
              <LongitudeDegrees>-1.31043621338903903961181640625</LongitudeDegrees>
            </Position>
            <AltitudeMeters>12.6000003814697265625</AltitudeMeters>
            <DistanceMeters>NAN</DistanceMeters>
          </Trackpoint>
          <Trackpoint>
            <Time>2022-07-06T12:17:37.000Z</Time>
            <Position>
              <LatitudeDegrees>44.08688443712890148162841796875</LatitudeDegrees>
              <LongitudeDegrees>-1.3103945553302764892578125</LongitudeDegrees>
            </Position>
            <AltitudeMeters>12.6000003814697265625</AltitudeMeters>
            <DistanceMeters>NAN</DistanceMeters>
          </Trackpoint>
          <Trackpoint>
            <Time>2022-07-06T12:17:44.000Z</Time>
            <Position>
              <LatitudeDegrees>44.08662862144410610198974609375</LatitudeDegrees>
              <LongitudeDegrees>-1.3102569244801998138427734375</LongitudeDegrees>
            </Position>
            <AltitudeMeters>12.3999996185302734375</AltitudeMeters>
            <DistanceMeters>NAN</DistanceMeters>
          </Trackpoint>
          <Trackpoint>
            <Time>2022-07-06T12:17:51.000Z</Time>
            <Position>
              <LatitudeDegrees>44.0863770805299282073974609375</LatitudeDegrees>
              <LongitudeDegrees>-1.3101154379546642303466796875</LongitudeDegrees>
            </Position>
            <AltitudeMeters>12.6000003814697265625</AltitudeMeters>
            <DistanceMeters>NAN</DistanceMeters>
          </Trackpoint>
          <Trackpoint>
            <Time>2022-07-06T12:17:58.000Z</Time>
            <Position>
              <LatitudeDegrees>44.086112715303897857666015625</LatitudeDegrees>
              <LongitudeDegrees>-1.3100182078778743743896484375</LongitudeDegrees>
            </Position>
            <AltitudeMeters>12.80000019073486328125</AltitudeMeters>
            <DistanceMeters>NAN</DistanceMeters>
          </Trackpoint>
          <Trackpoint>
            <Time>2022-07-06T12:18:07.000Z</Time>
            <Position>
              <LatitudeDegrees>44.08578087575733661651611328125</LatitudeDegrees>
              <LongitudeDegrees>-1.30990714766085147857666015625</LongitudeDegrees>
            </Position>
            <AltitudeMeters>12.80000019073486328125</AltitudeMeters>
            <DistanceMeters>NAN</DistanceMeters>
          </Trackpoint>
          <Trackpoint>
            <Time>2022-07-06T12:18:08.000Z</Time>
            <Position>
              <LatitudeDegrees>44.08574399538338184356689453125</LatitudeDegrees>
              <LongitudeDegrees>-1.3098981790244579315185546875</LongitudeDegrees>
            </Position>
            <AltitudeMeters>12.80000019073486328125</AltitudeMeters>
            <DistanceMeters>NAN</DistanceMeters>
          </Trackpoint>
          <Trackpoint>
            <Time>2022-07-06T12:18:10.000Z</Time>
            <Position>
              <LatitudeDegrees>44.0856662951409816741943359375</LatitudeDegrees>
              <LongitudeDegrees>-1.30991804413497447967529296875</LongitudeDegrees>
            </Position>
            <AltitudeMeters>12.6000003814697265625</AltitudeMeters>
            <DistanceMeters>NAN</DistanceMeters>
          </Trackpoint>
          <Trackpoint>
            <Time>2022-07-06T12:18:11.000Z</Time>
            <Position>
              <LatitudeDegrees>44.08563469536602497100830078125</LatitudeDegrees>
              <LongitudeDegrees>-1.3099571876227855682373046875</LongitudeDegrees>
            </Position>
            <AltitudeMeters>12.6000003814697265625</AltitudeMeters>
            <DistanceMeters>NAN</DistanceMeters>
          </Trackpoint>
          <Trackpoint>
            <Time>2022-07-06T12:18:16.000Z</Time>
            <Position>
              <LatitudeDegrees>44.08551718108355998992919921875</LatitudeDegrees>
              <LongitudeDegrees>-1.31024544127285480499267578125</LongitudeDegrees>
            </Position>
            <AltitudeMeters>12.19999980926513671875</AltitudeMeters>
            <DistanceMeters>NAN</DistanceMeters>
          </Trackpoint>
          <Trackpoint>
            <Time>2022-07-06T12:18:23.000Z</Time>
            <Position>
              <LatitudeDegrees>44.08538625575602054595947265625</LatitudeDegrees>
              <LongitudeDegrees>-1.3106471858918666839599609375</LongitudeDegrees>
            </Position>
            <AltitudeMeters>11.6000003814697265625</AltitudeMeters>
            <DistanceMeters>NAN</DistanceMeters>
          </Trackpoint>
          <Trackpoint>
            <Time>2022-07-06T12:18:24.000Z</Time>
            <Position>
              <LatitudeDegrees>44.08536714501678943634033203125</LatitudeDegrees>
              <LongitudeDegrees>-1.31070996634662151336669921875</LongitudeDegrees>
            </Position>
            <AltitudeMeters>11.3999996185302734375</AltitudeMeters>
            <DistanceMeters>NAN</DistanceMeters>
          </Trackpoint>
          <Trackpoint>
            <Time>2022-07-06T12:18:30.000Z</Time>
            <Position>
              <LatitudeDegrees>44.0852522291243076324462890625</LatitudeDegrees>
              <LongitudeDegrees>-1.31108321249485015869140625</LongitudeDegrees>
            </Position>
            <AltitudeMeters>11.19999980926513671875</AltitudeMeters>
            <DistanceMeters>NAN</DistanceMeters>
          </Trackpoint>
          <Trackpoint>
            <Time>2022-07-06T12:18:32.000Z</Time>
            <Position>
              <LatitudeDegrees>44.085206128656864166259765625</LatitudeDegrees>
              <LongitudeDegrees>-1.3112013973295688629150390625</LongitudeDegrees>
            </Position>
            <AltitudeMeters>11.19999980926513671875</AltitudeMeters>
            <DistanceMeters>NAN</DistanceMeters>
          </Trackpoint>
          <Trackpoint>
            <Time>2022-07-06T12:18:36.000Z</Time>
            <Position>
              <LatitudeDegrees>44.08508299849927425384521484375</LatitudeDegrees>
              <LongitudeDegrees>-1.31138454191386699676513671875</LongitudeDegrees>
            </Position>
            <AltitudeMeters>11.19999980926513671875</AltitudeMeters>
            <DistanceMeters>NAN</DistanceMeters>
          </Trackpoint>
          <Trackpoint>
            <Time>2022-07-06T12:18:38.000Z</Time>
            <Position>
              <LatitudeDegrees>44.08500261604785919189453125</LatitudeDegrees>
              <LongitudeDegrees>-1.31146232597529888153076171875</LongitudeDegrees>
            </Position>
            <AltitudeMeters>11.19999980926513671875</AltitudeMeters>
            <DistanceMeters>NAN</DistanceMeters>
          </Trackpoint>
          <Trackpoint>
            <Time>2022-07-06T12:18:43.000Z</Time>
            <Position>
              <LatitudeDegrees>44.0848195552825927734375</LatitudeDegrees>
              <LongitudeDegrees>-1.31164454855024814605712890625</LongitudeDegrees>
            </Position>
            <AltitudeMeters>11.19999980926513671875</AltitudeMeters>
            <DistanceMeters>NAN</DistanceMeters>
          </Trackpoint>
          <Trackpoint>
            <Time>2022-07-06T12:18:46.000Z</Time>
            <Position>
              <LatitudeDegrees>44.08471704460680484771728515625</LatitudeDegrees>
              <LongitudeDegrees>-1.31178100593388080596923828125</LongitudeDegrees>
            </Position>
            <AltitudeMeters>11.19999980926513671875</AltitudeMeters>
            <DistanceMeters>NAN</DistanceMeters>
          </Trackpoint>
          <Trackpoint>
            <Time>2022-07-06T12:18:50.000Z</Time>
            <Position>
              <LatitudeDegrees>44.08460891805589199066162109375</LatitudeDegrees>
              <LongitudeDegrees>-1.311979405581951141357421875</LongitudeDegrees>
            </Position>
            <AltitudeMeters>11.19999980926513671875</AltitudeMeters>
            <DistanceMeters>NAN</DistanceMeters>
          </Trackpoint>
          <Trackpoint>
            <Time>2022-07-06T12:18:54.000Z</Time>
            <Position>
              <LatitudeDegrees>44.0845059044659137725830078125</LatitudeDegrees>
              <LongitudeDegrees>-1.3121887855231761932373046875</LongitudeDegrees>
            </Position>
            <AltitudeMeters>10.80000019073486328125</AltitudeMeters>
            <DistanceMeters>NAN</DistanceMeters>
          </Trackpoint>
          <Trackpoint>
            <Time>2022-07-06T12:19:02.000Z</Time>
            <Position>
              <LatitudeDegrees>44.0843218378722667694091796875</LatitudeDegrees>
              <LongitudeDegrees>-1.31259589456021785736083984375</LongitudeDegrees>
            </Position>
            <AltitudeMeters>11</AltitudeMeters>
            <DistanceMeters>NAN</DistanceMeters>
          </Trackpoint>
          <Trackpoint>
            <Time>2022-07-06T12:19:05.000Z</Time>
            <Position>
              <LatitudeDegrees>44.0842370130121707916259765625</LatitudeDegrees>
              <LongitudeDegrees>-1.31270016543567180633544921875</LongitudeDegrees>
            </Position>
            <AltitudeMeters>10.80000019073486328125</AltitudeMeters>
            <DistanceMeters>NAN</DistanceMeters>
          </Trackpoint>
          <Trackpoint>
            <Time>2022-07-06T12:19:08.000Z</Time>
            <Position>
              <LatitudeDegrees>44.08413500525057315826416015625</LatitudeDegrees>
              <LongitudeDegrees>-1.31278934888541698455810546875</LongitudeDegrees>
            </Position>
            <AltitudeMeters>10.6000003814697265625</AltitudeMeters>
            <DistanceMeters>NAN</DistanceMeters>
          </Trackpoint>
          <Trackpoint>
            <Time>2022-07-06T12:19:11.000Z</Time>
            <Position>
              <LatitudeDegrees>44.08403157256543636322021484375</LatitudeDegrees>
              <LongitudeDegrees>-1.3128704018890857696533203125</LongitudeDegrees>
            </Position>
            <AltitudeMeters>10.3999996185302734375</AltitudeMeters>
            <DistanceMeters>NAN</DistanceMeters>
          </Trackpoint>
          <Trackpoint>
            <Time>2022-07-06T12:19:15.000Z</Time>
            <Position>
              <LatitudeDegrees>44.08392411656677722930908203125</LatitudeDegrees>
              <LongitudeDegrees>-1.313008032739162445068359375</LongitudeDegrees>
            </Position>
            <AltitudeMeters>10.3999996185302734375</AltitudeMeters>
            <DistanceMeters>NAN</DistanceMeters>
          </Trackpoint>
          <Trackpoint>
            <Time>2022-07-06T12:19:19.000Z</Time>
            <Position>
              <LatitudeDegrees>44.083851613104343414306640625</LatitudeDegrees>
              <LongitudeDegrees>-1.3130742497742176055908203125</LongitudeDegrees>
            </Position>
            <AltitudeMeters>10.3999996185302734375</AltitudeMeters>
            <DistanceMeters>NAN</DistanceMeters>
          </Trackpoint>
          <Trackpoint>
            <Time>2022-07-06T12:19:20.000Z</Time>
            <Position>
              <LatitudeDegrees>44.0838383696973323822021484375</LatitudeDegrees>
              <LongitudeDegrees>-1.3130712322890758514404296875</LongitudeDegrees>
            </Position>
            <AltitudeMeters>10.19999980926513671875</AltitudeMeters>
            <DistanceMeters>NAN</DistanceMeters>
          </Trackpoint>
          <Trackpoint>
            <Time>2022-07-06T12:19:25.000Z</Time>
            <Position>
              <LatitudeDegrees>44.0837703086435794830322265625</LatitudeDegrees>
              <LongitudeDegrees>-1.31303183734416961669921875</LongitudeDegrees>
            </Position>
            <AltitudeMeters>9.80000019073486328125</AltitudeMeters>
            <DistanceMeters>NAN</DistanceMeters>
          </Trackpoint>
          <Trackpoint>
            <Time>2022-07-06T12:19:26.000Z</Time>
            <Position>
              <LatitudeDegrees>44.08376620151102542877197265625</LatitudeDegrees>
              <LongitudeDegrees>-1.31300409324467182159423828125</LongitudeDegrees>
            </Position>
            <AltitudeMeters>10</AltitudeMeters>
            <DistanceMeters>NAN</DistanceMeters>
          </Trackpoint>
          <Trackpoint>
            <Time>2022-07-06T12:19:32.000Z</Time>
            <Position>
              <LatitudeDegrees>44.0837672911584377288818359375</LatitudeDegrees>
              <LongitudeDegrees>-1.3127691484987735748291015625</LongitudeDegrees>
            </Position>
            <AltitudeMeters>10</AltitudeMeters>
            <DistanceMeters>NAN</DistanceMeters>
          </Trackpoint>
          <Trackpoint>
            <Time>2022-07-06T12:19:35.000Z</Time>
            <Position>
              <LatitudeDegrees>44.08376117236912250518798828125</LatitudeDegrees>
              <LongitudeDegrees>-1.31266127340495586395263671875</LongitudeDegrees>
            </Position>
            <AltitudeMeters>10</AltitudeMeters>
            <DistanceMeters>NAN</DistanceMeters>
          </Trackpoint>
          <Trackpoint>
            <Time>2022-07-06T12:19:38.000Z</Time>
            <Position>
              <LatitudeDegrees>44.08375530503690242767333984375</LatitudeDegrees>
              <LongitudeDegrees>-1.3126259855926036834716796875</LongitudeDegrees>
            </Position>
            <AltitudeMeters>10</AltitudeMeters>
            <DistanceMeters>NAN</DistanceMeters>
          </Trackpoint>
          <Trackpoint>
            <Time>2022-07-06T12:19:39.000Z</Time>
            <Position>
              <LatitudeDegrees>44.08375530503690242767333984375</LatitudeDegrees>
              <LongitudeDegrees>-1.3126259855926036834716796875</LongitudeDegrees>
            </Position>
            <AltitudeMeters>10</AltitudeMeters>
            <DistanceMeters>NAN</DistanceMeters>
          </Trackpoint>
          <Trackpoint>
            <Time>2022-07-06T12:21:33.000Z</Time>
            <Position>
              <LatitudeDegrees>44.08376988954842090606689453125</LatitudeDegrees>
              <LongitudeDegrees>-1.31269077770411968231201171875</LongitudeDegrees>
            </Position>
            <AltitudeMeters>10.3999996185302734375</AltitudeMeters>
            <DistanceMeters>NAN</DistanceMeters>
          </Trackpoint>
          <Trackpoint>
            <Time>2022-07-06T12:21:34.000Z</Time>
            <Position>
              <LatitudeDegrees>44.08377022482454776763916015625</LatitudeDegrees>
              <LongitudeDegrees>-1.31273117847740650177001953125</LongitudeDegrees>
            </Position>
            <AltitudeMeters>10.3999996185302734375</AltitudeMeters>
            <DistanceMeters>NAN</DistanceMeters>
          </Trackpoint>
          <Trackpoint>
            <Time>2022-07-06T12:21:35.000Z</Time>
            <Position>
              <LatitudeDegrees>44.0837696380913257598876953125</LatitudeDegrees>
              <LongitudeDegrees>-1.31277568638324737548828125</LongitudeDegrees>
            </Position>
            <AltitudeMeters>10.6000003814697265625</AltitudeMeters>
            <DistanceMeters>NAN</DistanceMeters>
          </Trackpoint>
          <Trackpoint>
            <Time>2022-07-06T12:21:42.000Z</Time>
            <Position>
              <LatitudeDegrees>44.08378615044057369232177734375</LatitudeDegrees>
              <LongitudeDegrees>-1.3131357729434967041015625</LongitudeDegrees>
            </Position>
            <AltitudeMeters>11</AltitudeMeters>
            <DistanceMeters>NAN</DistanceMeters>
          </Trackpoint>
          <Trackpoint>
            <Time>2022-07-06T12:21:50.000Z</Time>
            <Position>
              <LatitudeDegrees>44.08380006439983844757080078125</LatitudeDegrees>
              <LongitudeDegrees>-1.31356802769005298614501953125</LongitudeDegrees>
            </Position>
            <AltitudeMeters>11.19999980926513671875</AltitudeMeters>
            <DistanceMeters>NAN</DistanceMeters>
          </Trackpoint>
          <Trackpoint>
            <Time>2022-07-06T12:21:57.000Z</Time>
            <Position>
              <LatitudeDegrees>44.08382101915776729583740234375</LatitudeDegrees>
              <LongitudeDegrees>-1.31398259662091732025146484375</LongitudeDegrees>
            </Position>
            <AltitudeMeters>11.19999980926513671875</AltitudeMeters>
            <DistanceMeters>NAN</DistanceMeters>
          </Trackpoint>
          <Trackpoint>
            <Time>2022-07-06T12:22:00.000Z</Time>
            <Position>
              <LatitudeDegrees>44.0838279761373996734619140625</LatitudeDegrees>
              <LongitudeDegrees>-1.31415694020688533782958984375</LongitudeDegrees>
            </Position>
            <AltitudeMeters>11.19999980926513671875</AltitudeMeters>
            <DistanceMeters>NAN</DistanceMeters>
          </Trackpoint>
          <Trackpoint>
            <Time>2022-07-06T12:22:02.000Z</Time>
            <Position>
              <LatitudeDegrees>44.08383225090801715850830078125</LatitudeDegrees>
              <LongitudeDegrees>-1.3142701797187328338623046875</LongitudeDegrees>
            </Position>
            <AltitudeMeters>11.19999980926513671875</AltitudeMeters>
            <DistanceMeters>NAN</DistanceMeters>
          </Trackpoint>
          <Trackpoint>
            <Time>2022-07-06T12:22:04.000Z</Time>
            <Position>
              <LatitudeDegrees>44.08383543603122234344482421875</LatitudeDegrees>
              <LongitudeDegrees>-1.31438643671572208404541015625</LongitudeDegrees>
            </Position>
            <AltitudeMeters>11.3999996185302734375</AltitudeMeters>
            <DistanceMeters>NAN</DistanceMeters>
          </Trackpoint>
          <Trackpoint>
            <Time>2022-07-06T12:22:05.000Z</Time>
            <Position>
              <LatitudeDegrees>44.08383728004992008209228515625</LatitudeDegrees>
              <LongitudeDegrees>-1.31442532874643802642822265625</LongitudeDegrees>
            </Position>
            <AltitudeMeters>11.6000003814697265625</AltitudeMeters>
            <DistanceMeters>NAN</DistanceMeters>
          </Trackpoint>
          <Trackpoint>
            <Time>2022-07-06T12:22:09.000Z</Time>
            <Position>
              <LatitudeDegrees>44.08384784124791622161865234375</LatitudeDegrees>
              <LongitudeDegrees>-1.3145970739424228668212890625</LongitudeDegrees>
            </Position>
            <AltitudeMeters>12</AltitudeMeters>
            <DistanceMeters>NAN</DistanceMeters>
          </Trackpoint>
          <Trackpoint>
            <Time>2022-07-06T12:22:14.000Z</Time>
            <Position>
              <LatitudeDegrees>44.0838581509888172149658203125</LatitudeDegrees>
              <LongitudeDegrees>-1.3147724233567714691162109375</LongitudeDegrees>
            </Position>
            <AltitudeMeters>12.3999996185302734375</AltitudeMeters>
            <DistanceMeters>NAN</DistanceMeters>
          </Trackpoint>
          <Trackpoint>
            <Time>2022-07-06T12:22:15.000Z</Time>
            <Position>
              <LatitudeDegrees>44.0838631801307201385498046875</LatitudeDegrees>
              <LongitudeDegrees>-1.31480569951236248016357421875</LongitudeDegrees>
            </Position>
            <AltitudeMeters>12.6000003814697265625</AltitudeMeters>
            <DistanceMeters>NAN</DistanceMeters>
          </Trackpoint>
          <Trackpoint>
            <Time>2022-07-06T12:22:17.000Z</Time>
            <Position>
              <LatitudeDegrees>44.08385756425559520721435546875</LatitudeDegrees>
              <LongitudeDegrees>-1.3148720003664493560791015625</LongitudeDegrees>
            </Position>
            <AltitudeMeters>12.80000019073486328125</AltitudeMeters>
            <DistanceMeters>NAN</DistanceMeters>
          </Trackpoint>
          <Trackpoint>
            <Time>2022-07-06T12:22:18.000Z</Time>
            <Position>
              <LatitudeDegrees>44.0838497690856456756591796875</LatitudeDegrees>
              <LongitudeDegrees>-1.3149085454642772674560546875</LongitudeDegrees>
            </Position>
            <AltitudeMeters>13</AltitudeMeters>
            <DistanceMeters>NAN</DistanceMeters>
          </Trackpoint>
          <Trackpoint>
            <Time>2022-07-06T12:22:22.000Z</Time>
            <Position>
              <LatitudeDegrees>44.0838269703090190887451171875</LatitudeDegrees>
              <LongitudeDegrees>-1.31506402976810932159423828125</LongitudeDegrees>
            </Position>
            <AltitudeMeters>13</AltitudeMeters>
            <DistanceMeters>NAN</DistanceMeters>
          </Trackpoint>
          <Trackpoint>
            <Time>2022-07-06T12:22:23.000Z</Time>
            <Position>
              <LatitudeDegrees>44.08382512629032135009765625</LatitudeDegrees>
              <LongitudeDegrees>-1.3151056878268718719482421875</LongitudeDegrees>
            </Position>
            <AltitudeMeters>13</AltitudeMeters>
            <DistanceMeters>NAN</DistanceMeters>
          </Trackpoint>
          <Trackpoint>
            <Time>2022-07-06T12:22:24.000Z</Time>
            <Position>
              <LatitudeDegrees>44.0838216058909893035888671875</LatitudeDegrees>
              <LongitudeDegrees>-1.3151569850742816925048828125</LongitudeDegrees>
            </Position>
            <AltitudeMeters>13</AltitudeMeters>
            <DistanceMeters>NAN</DistanceMeters>
          </Trackpoint>
          <Trackpoint>
            <Time>2022-07-06T12:22:25.000Z</Time>
            <Position>
              <LatitudeDegrees>44.08381414599716663360595703125</LatitudeDegrees>
              <LongitudeDegrees>-1.31520182825624942779541015625</LongitudeDegrees>
            </Position>
            <AltitudeMeters>13.19999980926513671875</AltitudeMeters>
            <DistanceMeters>NAN</DistanceMeters>
          </Trackpoint>
          <Trackpoint>
            <Time>2022-07-06T12:22:26.000Z</Time>
            <Position>
              <LatitudeDegrees>44.083805344998836517333984375</LatitudeDegrees>
              <LongitudeDegrees>-1.31525111384689807891845703125</LongitudeDegrees>
            </Position>
            <AltitudeMeters>13.19999980926513671875</AltitudeMeters>
            <DistanceMeters>NAN</DistanceMeters>
          </Trackpoint>
          <Trackpoint>
            <Time>2022-07-06T12:22:28.000Z</Time>
            <Position>
              <LatitudeDegrees>44.08378916792571544647216796875</LatitudeDegrees>
              <LongitudeDegrees>-1.315343566238880157470703125</LongitudeDegrees>
            </Position>
            <AltitudeMeters>13.19999980926513671875</AltitudeMeters>
            <DistanceMeters>NAN</DistanceMeters>
          </Trackpoint>
          <Trackpoint>
            <Time>2022-07-06T12:22:32.000Z</Time>
            <Position>
              <LatitudeDegrees>44.08376100473105907440185546875</LatitudeDegrees>
              <LongitudeDegrees>-1.31554372608661651611328125</LongitudeDegrees>
            </Position>
            <AltitudeMeters>13.3999996185302734375</AltitudeMeters>
            <DistanceMeters>NAN</DistanceMeters>
          </Trackpoint>
          <Trackpoint>
            <Time>2022-07-06T12:22:34.000Z</Time>
            <Position>
              <LatitudeDegrees>44.0837468393146991729736328125</LatitudeDegrees>
              <LongitudeDegrees>-1.31562360562384128570556640625</LongitudeDegrees>
            </Position>
            <AltitudeMeters>13.3999996185302734375</AltitudeMeters>
            <DistanceMeters>NAN</DistanceMeters>
          </Trackpoint>
          <Trackpoint>
            <Time>2022-07-06T12:22:39.000Z</Time>
            <Position>
              <LatitudeDegrees>44.083697386085987091064453125</LatitudeDegrees>
              <LongitudeDegrees>-1.3158312253654003143310546875</LongitudeDegrees>
            </Position>
            <AltitudeMeters>13.6000003814697265625</AltitudeMeters>
            <DistanceMeters>NAN</DistanceMeters>
          </Trackpoint>
          <Trackpoint>
            <Time>2022-07-06T12:22:43.000Z</Time>
            <Position>
              <LatitudeDegrees>44.08365136943757534027099609375</LatitudeDegrees>
              <LongitudeDegrees>-1.3159700296819210052490234375</LongitudeDegrees>
            </Position>
            <AltitudeMeters>13.80000019073486328125</AltitudeMeters>
            <DistanceMeters>NAN</DistanceMeters>
          </Trackpoint>
          <Trackpoint>
            <Time>2022-07-06T12:22:49.000Z</Time>
            <Position>
              <LatitudeDegrees>44.08365991897881031036376953125</LatitudeDegrees>
              <LongitudeDegrees>-1.31625912152230739593505859375</LongitudeDegrees>
            </Position>
            <AltitudeMeters>14.3999996185302734375</AltitudeMeters>
            <DistanceMeters>NAN</DistanceMeters>
          </Trackpoint>
          <Trackpoint>
            <Time>2022-07-06T12:22:51.000Z</Time>
            <Position>
              <LatitudeDegrees>44.08364248462021350860595703125</LatitudeDegrees>
              <LongitudeDegrees>-1.3163509033620357513427734375</LongitudeDegrees>
            </Position>
            <AltitudeMeters>14.3999996185302734375</AltitudeMeters>
            <DistanceMeters>NAN</DistanceMeters>
          </Trackpoint>
          <Trackpoint>
            <Time>2022-07-06T12:22:53.000Z</Time>
            <Position>
              <LatitudeDegrees>44.0835825540125370025634765625</LatitudeDegrees>
              <LongitudeDegrees>-1.31639088504016399383544921875</LongitudeDegrees>
            </Position>
            <AltitudeMeters>14.19999980926513671875</AltitudeMeters>
            <DistanceMeters>NAN</DistanceMeters>
          </Trackpoint>
          <Trackpoint>
            <Time>2022-07-06T12:22:54.000Z</Time>
            <Position>
              <LatitudeDegrees>44.0835403092205524444580078125</LatitudeDegrees>
              <LongitudeDegrees>-1.31639356724917888641357421875</LongitudeDegrees>
            </Position>
            <AltitudeMeters>14.19999980926513671875</AltitudeMeters>
            <DistanceMeters>NAN</DistanceMeters>
          </Trackpoint>
          <Trackpoint>
            <Time>2022-07-06T12:22:57.000Z</Time>
            <Position>
              <LatitudeDegrees>44.083409048616886138916015625</LatitudeDegrees>
              <LongitudeDegrees>-1.3163839280605316162109375</LongitudeDegrees>
            </Position>
            <AltitudeMeters>14</AltitudeMeters>
            <DistanceMeters>NAN</DistanceMeters>
          </Trackpoint>
          <Trackpoint>
            <Time>2022-07-06T12:22:59.000Z</Time>
            <Position>
              <LatitudeDegrees>44.08334207721054553985595703125</LatitudeDegrees>
              <LongitudeDegrees>-1.31637990474700927734375</LongitudeDegrees>
            </Position>
            <AltitudeMeters>13.6000003814697265625</AltitudeMeters>
            <DistanceMeters>NAN</DistanceMeters>
          </Trackpoint>
          <Trackpoint>
            <Time>2022-07-06T12:23:01.000Z</Time>
            <Position>
              <LatitudeDegrees>44.08324719406664371490478515625</LatitudeDegrees>
              <LongitudeDegrees>-1.316366158425807952880859375</LongitudeDegrees>
            </Position>
            <AltitudeMeters>13.3999996185302734375</AltitudeMeters>
            <DistanceMeters>NAN</DistanceMeters>
          </Trackpoint>
          <Trackpoint>
            <Time>2022-07-06T12:23:02.000Z</Time>
            <Position>
              <LatitudeDegrees>44.08320008777081966400146484375</LatitudeDegrees>
              <LongitudeDegrees>-1.3163606263697147369384765625</LongitudeDegrees>
            </Position>
            <AltitudeMeters>13.19999980926513671875</AltitudeMeters>
            <DistanceMeters>NAN</DistanceMeters>
          </Trackpoint>
          <Trackpoint>
            <Time>2022-07-06T12:23:03.000Z</Time>
            <Position>
              <LatitudeDegrees>44.0831641294062137603759765625</LatitudeDegrees>
              <LongitudeDegrees>-1.3163555972278118133544921875</LongitudeDegrees>
            </Position>
            <AltitudeMeters>13.19999980926513671875</AltitudeMeters>
            <DistanceMeters>NAN</DistanceMeters>
          </Trackpoint>
          <Trackpoint>
            <Time>2022-07-06T12:23:04.000Z</Time>
            <Position>
              <LatitudeDegrees>44.08312548883259296417236328125</LatitudeDegrees>
              <LongitudeDegrees>-1.31634813733398914337158203125</LongitudeDegrees>
            </Position>
            <AltitudeMeters>13.19999980926513671875</AltitudeMeters>
            <DistanceMeters>NAN</DistanceMeters>
          </Trackpoint>
          <Trackpoint>
            <Time>2022-07-06T12:23:06.000Z</Time>
            <Position>
              <LatitudeDegrees>44.08304326236248016357421875</LatitudeDegrees>
              <LongitudeDegrees>-1.316336654126644134521484375</LongitudeDegrees>
            </Position>
            <AltitudeMeters>13.19999980926513671875</AltitudeMeters>
            <DistanceMeters>NAN</DistanceMeters>
          </Trackpoint>
          <Trackpoint>
            <Time>2022-07-06T12:23:11.000Z</Time>
            <Position>
              <LatitudeDegrees>44.08284586854279041290283203125</LatitudeDegrees>
              <LongitudeDegrees>-1.3163141906261444091796875</LongitudeDegrees>
            </Position>
            <AltitudeMeters>13.19999980926513671875</AltitudeMeters>
            <DistanceMeters>NAN</DistanceMeters>
          </Trackpoint>
          <Trackpoint>
            <Time>2022-07-06T12:23:13.000Z</Time>
            <Position>
              <LatitudeDegrees>44.08279457129538059234619140625</LatitudeDegrees>
              <LongitudeDegrees>-1.31633036769926548004150390625</LongitudeDegrees>
            </Position>
            <AltitudeMeters>13.19999980926513671875</AltitudeMeters>
            <DistanceMeters>NAN</DistanceMeters>
          </Trackpoint>
          <Trackpoint>
            <Time>2022-07-06T12:23:14.000Z</Time>
            <Position>
              <LatitudeDegrees>44.08275425434112548828125</LatitudeDegrees>
              <LongitudeDegrees>-1.31634302437305450439453125</LongitudeDegrees>
            </Position>
            <AltitudeMeters>13.19999980926513671875</AltitudeMeters>
            <DistanceMeters>NAN</DistanceMeters>
          </Trackpoint>
          <Trackpoint>
            <Time>2022-07-06T12:23:15.000Z</Time>
            <Position>
              <LatitudeDegrees>44.082715027034282684326171875</LatitudeDegrees>
              <LongitudeDegrees>-1.3163485564291477203369140625</LongitudeDegrees>
            </Position>
            <AltitudeMeters>13.19999980926513671875</AltitudeMeters>
            <DistanceMeters>NAN</DistanceMeters>
          </Trackpoint>
          <Trackpoint>
            <Time>2022-07-06T12:23:16.000Z</Time>
            <Position>
              <LatitudeDegrees>44.0826836787164211273193359375</LatitudeDegrees>
              <LongitudeDegrees>-1.31634570658206939697265625</LongitudeDegrees>
            </Position>
            <AltitudeMeters>13.3999996185302734375</AltitudeMeters>
            <DistanceMeters>NAN</DistanceMeters>
          </Trackpoint>
          <Trackpoint>
            <Time>2022-07-06T12:23:17.000Z</Time>
            <Position>
              <LatitudeDegrees>44.082654677331447601318359375</LatitudeDegrees>
              <LongitudeDegrees>-1.3163452036678791046142578125</LongitudeDegrees>
            </Position>
            <AltitudeMeters>13.3999996185302734375</AltitudeMeters>
            <DistanceMeters>NAN</DistanceMeters>
          </Trackpoint>
          <Trackpoint>
            <Time>2022-07-06T12:23:18.000Z</Time>
            <Position>
              <LatitudeDegrees>44.08261888660490512847900390625</LatitudeDegrees>
              <LongitudeDegrees>-1.31634193472564220428466796875</LongitudeDegrees>
            </Position>
            <AltitudeMeters>13.3999996185302734375</AltitudeMeters>
            <DistanceMeters>NAN</DistanceMeters>
          </Trackpoint>
          <Trackpoint>
            <Time>2022-07-06T12:23:20.000Z</Time>
            <Position>
              <LatitudeDegrees>44.0825190581381320953369140625</LatitudeDegrees>
              <LongitudeDegrees>-1.316331960260868072509765625</LongitudeDegrees>
            </Position>
            <AltitudeMeters>13.19999980926513671875</AltitudeMeters>
            <DistanceMeters>NAN</DistanceMeters>
          </Trackpoint>
          <Trackpoint>
            <Time>2022-07-06T12:23:21.000Z</Time>
            <Position>
              <LatitudeDegrees>44.08247488550841808319091796875</LatitudeDegrees>
              <LongitudeDegrees>-1.31632047705352306365966796875</LongitudeDegrees>
            </Position>
            <AltitudeMeters>13.19999980926513671875</AltitudeMeters>
            <DistanceMeters>NAN</DistanceMeters>
          </Trackpoint>
          <Trackpoint>
            <Time>2022-07-06T12:23:23.000Z</Time>
            <Position>
              <LatitudeDegrees>44.0823732130229473114013671875</LatitudeDegrees>
              <LongitudeDegrees>-1.31631326861679553985595703125</LongitudeDegrees>
            </Position>
            <AltitudeMeters>13</AltitudeMeters>
            <DistanceMeters>NAN</DistanceMeters>
          </Trackpoint>
          <Trackpoint>
            <Time>2022-07-06T12:23:27.000Z</Time>
            <Position>
              <LatitudeDegrees>44.0821341611444950103759765625</LatitudeDegrees>
              <LongitudeDegrees>-1.31630723364651203155517578125</LongitudeDegrees>
            </Position>
            <AltitudeMeters>12.80000019073486328125</AltitudeMeters>
            <DistanceMeters>NAN</DistanceMeters>
          </Trackpoint>
          <Trackpoint>
            <Time>2022-07-06T12:23:29.000Z</Time>
            <Position>
              <LatitudeDegrees>44.082017652690410614013671875</LatitudeDegrees>
              <LongitudeDegrees>-1.31630413234233856201171875</LongitudeDegrees>
            </Position>
            <AltitudeMeters>12.80000019073486328125</AltitudeMeters>
            <DistanceMeters>NAN</DistanceMeters>
          </Trackpoint>
          <Trackpoint>
            <Time>2022-07-06T12:23:30.000Z</Time>
            <Position>
              <LatitudeDegrees>44.0819668583571910858154296875</LatitudeDegrees>
              <LongitudeDegrees>-1.31630673073232173919677734375</LongitudeDegrees>
            </Position>
            <AltitudeMeters>13</AltitudeMeters>
            <DistanceMeters>NAN</DistanceMeters>
          </Trackpoint>
          <Trackpoint>
            <Time>2022-07-06T12:23:35.000Z</Time>
            <Position>
              <LatitudeDegrees>44.0816986374557018280029296875</LatitudeDegrees>
              <LongitudeDegrees>-1.31640614010393619537353515625</LongitudeDegrees>
            </Position>
            <AltitudeMeters>13</AltitudeMeters>
            <DistanceMeters>NAN</DistanceMeters>
          </Trackpoint>
          <Trackpoint>
            <Time>2022-07-06T12:23:37.000Z</Time>
            <Position>
              <LatitudeDegrees>44.0816114656627178192138671875</LatitudeDegrees>
              <LongitudeDegrees>-1.3164214789867401123046875</LongitudeDegrees>
            </Position>
            <AltitudeMeters>12.80000019073486328125</AltitudeMeters>
            <DistanceMeters>NAN</DistanceMeters>
          </Trackpoint>
          <Trackpoint>
            <Time>2022-07-06T12:23:40.000Z</Time>
            <Position>
              <LatitudeDegrees>44.08145598135888576507568359375</LatitudeDegrees>
              <LongitudeDegrees>-1.31642617285251617431640625</LongitudeDegrees>
            </Position>
            <AltitudeMeters>12.6000003814697265625</AltitudeMeters>
            <DistanceMeters>NAN</DistanceMeters>
          </Trackpoint>
          <Trackpoint>
            <Time>2022-07-06T12:23:41.000Z</Time>
            <Position>
              <LatitudeDegrees>44.0814092941582202911376953125</LatitudeDegrees>
              <LongitudeDegrees>-1.316425502300262451171875</LongitudeDegrees>
            </Position>
            <AltitudeMeters>12.6000003814697265625</AltitudeMeters>
            <DistanceMeters>NAN</DistanceMeters>
          </Trackpoint>
          <Trackpoint>
            <Time>2022-07-06T12:23:45.000Z</Time>
            <Position>
              <LatitudeDegrees>44.0812232159078121185302734375</LatitudeDegrees>
              <LongitudeDegrees>-1.31643547676503658294677734375</LongitudeDegrees>
            </Position>
            <AltitudeMeters>12.6000003814697265625</AltitudeMeters>
            <DistanceMeters>NAN</DistanceMeters>
          </Trackpoint>
          <Trackpoint>
            <Time>2022-07-06T12:23:47.000Z</Time>
            <Position>
              <LatitudeDegrees>44.081151299178600311279296875</LatitudeDegrees>
              <LongitudeDegrees>-1.31644620560109615325927734375</LongitudeDegrees>
            </Position>
            <AltitudeMeters>12.80000019073486328125</AltitudeMeters>
            <DistanceMeters>NAN</DistanceMeters>
          </Trackpoint>
          <Trackpoint>
            <Time>2022-07-06T12:23:51.000Z</Time>
            <Position>
              <LatitudeDegrees>44.08097016625106334686279296875</LatitudeDegrees>
              <LongitudeDegrees>-1.31644536741077899932861328125</LongitudeDegrees>
            </Position>
            <AltitudeMeters>13.19999980926513671875</AltitudeMeters>
            <DistanceMeters>NAN</DistanceMeters>
          </Trackpoint>
          <Trackpoint>
            <Time>2022-07-06T12:23:58.000Z</Time>
            <Position>
              <LatitudeDegrees>44.08067931421101093292236328125</LatitudeDegrees>
              <LongitudeDegrees>-1.3164903782308101654052734375</LongitudeDegrees>
            </Position>
            <AltitudeMeters>13.6000003814697265625</AltitudeMeters>
            <DistanceMeters>NAN</DistanceMeters>
          </Trackpoint>
          <Trackpoint>
            <Time>2022-07-06T12:24:02.000Z</Time>
            <Position>
              <LatitudeDegrees>44.08054168336093425750732421875</LatitudeDegrees>
              <LongitudeDegrees>-1.31650873459875583648681640625</LongitudeDegrees>
            </Position>
            <AltitudeMeters>14</AltitudeMeters>
            <DistanceMeters>NAN</DistanceMeters>
          </Trackpoint>
          <Trackpoint>
            <Time>2022-07-06T12:24:05.000Z</Time>
            <Position>
              <LatitudeDegrees>44.0804198943078517913818359375</LatitudeDegrees>
              <LongitudeDegrees>-1.31651946343481540679931640625</LongitudeDegrees>
            </Position>
            <AltitudeMeters>14.19999980926513671875</AltitudeMeters>
            <DistanceMeters>NAN</DistanceMeters>
          </Trackpoint>
          <Trackpoint>
            <Time>2022-07-06T12:24:06.000Z</Time>
            <Position>
              <LatitudeDegrees>44.08036482520401477813720703125</LatitudeDegrees>
              <LongitudeDegrees>-1.316537149250507354736328125</LongitudeDegrees>
            </Position>
            <AltitudeMeters>14.19999980926513671875</AltitudeMeters>
            <DistanceMeters>NAN</DistanceMeters>
          </Trackpoint>
          <Trackpoint>
            <Time>2022-07-06T12:24:07.000Z</Time>
            <Position>
              <LatitudeDegrees>44.0803069062530994415283203125</LatitudeDegrees>
              <LongitudeDegrees>-1.3165366463363170623779296875</LongitudeDegrees>
            </Position>
            <AltitudeMeters>14.19999980926513671875</AltitudeMeters>
            <DistanceMeters>NAN</DistanceMeters>
          </Trackpoint>
          <Trackpoint>
            <Time>2022-07-06T12:24:12.000Z</Time>
            <Position>
              <LatitudeDegrees>44.08002619631588459014892578125</LatitudeDegrees>
              <LongitudeDegrees>-1.31657377816736698150634765625</LongitudeDegrees>
            </Position>
            <AltitudeMeters>14.3999996185302734375</AltitudeMeters>
            <DistanceMeters>NAN</DistanceMeters>
          </Trackpoint>
          <Trackpoint>
            <Time>2022-07-06T12:24:17.000Z</Time>
            <Position>
              <LatitudeDegrees>44.07986878417432308197021484375</LatitudeDegrees>
              <LongitudeDegrees>-1.31658065132796764373779296875</LongitudeDegrees>
            </Position>
            <AltitudeMeters>14.80000019073486328125</AltitudeMeters>
            <DistanceMeters>NAN</DistanceMeters>
          </Trackpoint>
          <Trackpoint>
            <Time>2022-07-06T12:24:19.000Z</Time>
            <Position>
              <LatitudeDegrees>44.0797434747219085693359375</LatitudeDegrees>
              <LongitudeDegrees>-1.31658576428890228271484375</LongitudeDegrees>
            </Position>
            <AltitudeMeters>14.80000019073486328125</AltitudeMeters>
            <DistanceMeters>NAN</DistanceMeters>
          </Trackpoint>
          <Trackpoint>
            <Time>2022-07-06T12:24:20.000Z</Time>
            <Position>
              <LatitudeDegrees>44.0797104500234127044677734375</LatitudeDegrees>
              <LongitudeDegrees>-1.31659506820142269134521484375</LongitudeDegrees>
            </Position>
            <AltitudeMeters>15</AltitudeMeters>
            <DistanceMeters>NAN</DistanceMeters>
          </Trackpoint>
          <Trackpoint>
            <Time>2022-07-06T12:24:25.000Z</Time>
            <Position>
              <LatitudeDegrees>44.0794905088841915130615234375</LatitudeDegrees>
              <LongitudeDegrees>-1.3165969960391521453857421875</LongitudeDegrees>
            </Position>
            <AltitudeMeters>14.3999996185302734375</AltitudeMeters>
            <DistanceMeters>NAN</DistanceMeters>
          </Trackpoint>
          <Trackpoint>
            <Time>2022-07-06T12:24:29.000Z</Time>
            <Position>
              <LatitudeDegrees>44.07924349419772624969482421875</LatitudeDegrees>
              <LongitudeDegrees>-1.31657713092863559722900390625</LongitudeDegrees>
            </Position>
            <AltitudeMeters>14</AltitudeMeters>
            <DistanceMeters>NAN</DistanceMeters>
          </Trackpoint>
          <Trackpoint>
            <Time>2022-07-06T12:24:30.000Z</Time>
            <Position>
              <LatitudeDegrees>44.0791860781610012054443359375</LatitudeDegrees>
              <LongitudeDegrees>-1.31657293997704982757568359375</LongitudeDegrees>
            </Position>
            <AltitudeMeters>13.6000003814697265625</AltitudeMeters>
            <DistanceMeters>NAN</DistanceMeters>
          </Trackpoint>
          <Trackpoint>
            <Time>2022-07-06T12:24:31.000Z</Time>
            <Position>
              <LatitudeDegrees>44.0791431628167629241943359375</LatitudeDegrees>
              <LongitudeDegrees>-1.31656740792095661163330078125</LongitudeDegrees>
            </Position>
            <AltitudeMeters>13.3999996185302734375</AltitudeMeters>
            <DistanceMeters>NAN</DistanceMeters>
          </Trackpoint>
          <Trackpoint>
            <Time>2022-07-06T12:24:33.000Z</Time>
            <Position>
              <LatitudeDegrees>44.07905087806284427642822265625</LatitudeDegrees>
              <LongitudeDegrees>-1.31656170822679996490478515625</LongitudeDegrees>
            </Position>
            <AltitudeMeters>13.19999980926513671875</AltitudeMeters>
            <DistanceMeters>NAN</DistanceMeters>
          </Trackpoint>
          <Trackpoint>
            <Time>2022-07-06T12:24:37.000Z</Time>
            <Position>
              <LatitudeDegrees>44.0788967348635196685791015625</LatitudeDegrees>
              <LongitudeDegrees>-1.316586434841156005859375</LongitudeDegrees>
            </Position>
            <AltitudeMeters>13.3999996185302734375</AltitudeMeters>
            <DistanceMeters>NAN</DistanceMeters>
          </Trackpoint>
          <Trackpoint>
            <Time>2022-07-06T12:24:43.000Z</Time>
            <Position>
              <LatitudeDegrees>44.07865106128156185150146484375</LatitudeDegrees>
              <LongitudeDegrees>-1.31665156222879886627197265625</LongitudeDegrees>
            </Position>
            <AltitudeMeters>14</AltitudeMeters>
            <DistanceMeters>NAN</DistanceMeters>
          </Trackpoint>
          <Trackpoint>
            <Time>2022-07-06T12:24:44.000Z</Time>
            <Position>
              <LatitudeDegrees>44.07858702354133129119873046875</LatitudeDegrees>
              <LongitudeDegrees>-1.31668257527053356170654296875</LongitudeDegrees>
            </Position>
            <AltitudeMeters>14</AltitudeMeters>
            <DistanceMeters>NAN</DistanceMeters>
          </Trackpoint>
          <Trackpoint>
            <Time>2022-07-06T12:24:50.000Z</Time>
            <Position>
              <LatitudeDegrees>44.07827018760144710540771484375</LatitudeDegrees>
              <LongitudeDegrees>-1.316790282726287841796875</LongitudeDegrees>
            </Position>
            <AltitudeMeters>14.19999980926513671875</AltitudeMeters>
            <DistanceMeters>NAN</DistanceMeters>
          </Trackpoint>
          <Trackpoint>
            <Time>2022-07-06T12:24:52.000Z</Time>
            <Position>
              <LatitudeDegrees>44.07817429862916469573974609375</LatitudeDegrees>
              <LongitudeDegrees>-1.31682456471025943756103515625</LongitudeDegrees>
            </Position>
            <AltitudeMeters>13.80000019073486328125</AltitudeMeters>
            <DistanceMeters>NAN</DistanceMeters>
          </Trackpoint>
          <Trackpoint>
            <Time>2022-07-06T12:24:53.000Z</Time>
            <Position>
              <LatitudeDegrees>44.07811294309794902801513671875</LatitudeDegrees>
              <LongitudeDegrees>-1.31683495827019214630126953125</LongitudeDegrees>
            </Position>
            <AltitudeMeters>13.3999996185302734375</AltitudeMeters>
            <DistanceMeters>NAN</DistanceMeters>
          </Trackpoint>
          <Trackpoint>
            <Time>2022-07-06T12:24:56.000Z</Time>
            <Position>
              <LatitudeDegrees>44.07792828977108001708984375</LatitudeDegrees>
              <LongitudeDegrees>-1.3168937154114246368408203125</LongitudeDegrees>
            </Position>
            <AltitudeMeters>12.6000003814697265625</AltitudeMeters>
            <DistanceMeters>NAN</DistanceMeters>
          </Trackpoint>
          <Trackpoint>
            <Time>2022-07-06T12:24:57.000Z</Time>
            <Position>
              <LatitudeDegrees>44.07785997726023197174072265625</LatitudeDegrees>
              <LongitudeDegrees>-1.3169359602034091949462890625</LongitudeDegrees>
            </Position>
            <AltitudeMeters>12.6000003814697265625</AltitudeMeters>
            <DistanceMeters>NAN</DistanceMeters>
          </Trackpoint>
          <Trackpoint>
            <Time>2022-07-06T12:25:03.000Z</Time>
            <Position>
              <LatitudeDegrees>44.0774413011968135833740234375</LatitudeDegrees>
              <LongitudeDegrees>-1.31711809895932674407958984375</LongitudeDegrees>
            </Position>
            <AltitudeMeters>11.6000003814697265625</AltitudeMeters>
            <DistanceMeters>NAN</DistanceMeters>
          </Trackpoint>
          <Trackpoint>
            <Time>2022-07-06T12:25:05.000Z</Time>
            <Position>
              <LatitudeDegrees>44.0773048438131809234619140625</LatitudeDegrees>
              <LongitudeDegrees>-1.31718230433762073516845703125</LongitudeDegrees>
            </Position>
            <AltitudeMeters>11.3999996185302734375</AltitudeMeters>
            <DistanceMeters>NAN</DistanceMeters>
          </Trackpoint>
          <Trackpoint>
            <Time>2022-07-06T12:25:10.000Z</Time>
            <Position>
              <LatitudeDegrees>44.07699412666261196136474609375</LatitudeDegrees>
              <LongitudeDegrees>-1.317300237715244293212890625</LongitudeDegrees>
            </Position>
            <AltitudeMeters>11.3999996185302734375</AltitudeMeters>
            <DistanceMeters>NAN</DistanceMeters>
          </Trackpoint>
          <Trackpoint>
            <Time>2022-07-06T12:25:16.000Z</Time>
            <Position>
              <LatitudeDegrees>44.0766440145671367645263671875</LatitudeDegrees>
              <LongitudeDegrees>-1.31743845529854297637939453125</LongitudeDegrees>
            </Position>
            <AltitudeMeters>11.3999996185302734375</AltitudeMeters>
            <DistanceMeters>NAN</DistanceMeters>
          </Trackpoint>
          <Trackpoint>
            <Time>2022-07-06T12:25:18.000Z</Time>
            <Position>
              <LatitudeDegrees>44.07651250250637531280517578125</LatitudeDegrees>
              <LongitudeDegrees>-1.3174831308424472808837890625</LongitudeDegrees>
            </Position>
            <AltitudeMeters>11.6000003814697265625</AltitudeMeters>
            <DistanceMeters>NAN</DistanceMeters>
          </Trackpoint>
          <Trackpoint>
            <Time>2022-07-06T12:25:19.000Z</Time>
            <Position>
              <LatitudeDegrees>44.0764364786446094512939453125</LatitudeDegrees>
              <LongitudeDegrees>-1.3175096176564693450927734375</LongitudeDegrees>
            </Position>
            <AltitudeMeters>11.6000003814697265625</AltitudeMeters>
            <DistanceMeters>NAN</DistanceMeters>
          </Trackpoint>
          <Trackpoint>
            <Time>2022-07-06T12:25:22.000Z</Time>
            <Position>
              <LatitudeDegrees>44.076356180012226104736328125</LatitudeDegrees>
              <LongitudeDegrees>-1.31753048859536647796630859375</LongitudeDegrees>
            </Position>
            <AltitudeMeters>10.3999996185302734375</AltitudeMeters>
            <DistanceMeters>NAN</DistanceMeters>
          </Trackpoint>
          <Trackpoint>
            <Time>2022-07-06T12:25:23.000Z</Time>
            <Position>
              <LatitudeDegrees>44.076356180012226104736328125</LatitudeDegrees>
              <LongitudeDegrees>-1.31753048859536647796630859375</LongitudeDegrees>
            </Position>
            <AltitudeMeters>10.19999980926513671875</AltitudeMeters>
            <DistanceMeters>NAN</DistanceMeters>
          </Trackpoint>
          <Trackpoint>
            <Time>2022-07-06T12:25:24.000Z</Time>
            <Position>
              <LatitudeDegrees>44.07635961659252643585205078125</LatitudeDegrees>
              <LongitudeDegrees>-1.3175267167389392852783203125</LongitudeDegrees>
            </Position>
            <AltitudeMeters>10</AltitudeMeters>
            <DistanceMeters>NAN</DistanceMeters>
          </Trackpoint>
          <Trackpoint>
            <Time>2022-07-06T12:25:34.000Z</Time>
            <Position>
              <LatitudeDegrees>44.07649020664393901824951171875</LatitudeDegrees>
              <LongitudeDegrees>-1.31748430430889129638671875</LongitudeDegrees>
            </Position>
            <AltitudeMeters>9.6000003814697265625</AltitudeMeters>
            <DistanceMeters>NAN</DistanceMeters>
          </Trackpoint>
          <Trackpoint>
            <Time>2022-07-06T12:25:37.000Z</Time>
            <Position>
              <LatitudeDegrees>44.07649322412908077239990234375</LatitudeDegrees>
              <LongitudeDegrees>-1.3174836337566375732421875</LongitudeDegrees>
            </Position>
            <AltitudeMeters>9.6000003814697265625</AltitudeMeters>
            <DistanceMeters>NAN</DistanceMeters>
          </Trackpoint>
          <Trackpoint>
            <Time>2022-07-06T12:25:56.000Z</Time>
            <Position>
              <LatitudeDegrees>44.07641661353409290313720703125</LatitudeDegrees>
              <LongitudeDegrees>-1.3175076059997081756591796875</LongitudeDegrees>
            </Position>
            <AltitudeMeters>9.3999996185302734375</AltitudeMeters>
            <DistanceMeters>NAN</DistanceMeters>
          </Trackpoint>
          <Trackpoint>
            <Time>2022-07-06T12:25:57.000Z</Time>
            <Position>
              <LatitudeDegrees>44.07639767043292522430419921875</LatitudeDegrees>
              <LongitudeDegrees>-1.317513473331928253173828125</LongitudeDegrees>
            </Position>
            <AltitudeMeters>9.3999996185302734375</AltitudeMeters>
            <DistanceMeters>NAN</DistanceMeters>
          </Trackpoint>
          <Trackpoint>
            <Time>2022-07-06T12:26:02.000Z</Time>
            <Position>
              <LatitudeDegrees>44.07628677785396575927734375</LatitudeDegrees>
              <LongitudeDegrees>-1.3175575621426105499267578125</LongitudeDegrees>
            </Position>
            <AltitudeMeters>9.19999980926513671875</AltitudeMeters>
            <DistanceMeters>NAN</DistanceMeters>
          </Trackpoint>
          <Trackpoint>
            <Time>2022-07-06T12:26:04.000Z</Time>
            <Position>
              <LatitudeDegrees>44.0762262605130672454833984375</LatitudeDegrees>
              <LongitudeDegrees>-1.31758731789886951446533203125</LongitudeDegrees>
            </Position>
            <AltitudeMeters>9.19999980926513671875</AltitudeMeters>
            <DistanceMeters>NAN</DistanceMeters>
          </Trackpoint>
          <Trackpoint>
            <Time>2022-07-06T12:26:10.000Z</Time>
            <Position>
              <LatitudeDegrees>44.07603339292109012603759765625</LatitudeDegrees>
              <LongitudeDegrees>-1.3177044130861759185791015625</LongitudeDegrees>
            </Position>
            <AltitudeMeters>9.3999996185302734375</AltitudeMeters>
            <DistanceMeters>NAN</DistanceMeters>
          </Trackpoint>
          <Trackpoint>
            <Time>2022-07-06T12:26:13.000Z</Time>
            <Position>
              <LatitudeDegrees>44.0759360790252685546875</LatitudeDegrees>
              <LongitudeDegrees>-1.3177526928484439849853515625</LongitudeDegrees>
            </Position>
            <AltitudeMeters>9.80000019073486328125</AltitudeMeters>
            <DistanceMeters>NAN</DistanceMeters>
          </Trackpoint>
          <Trackpoint>
            <Time>2022-07-06T12:26:18.000Z</Time>
            <Position>
              <LatitudeDegrees>44.075800962746143341064453125</LatitudeDegrees>
              <LongitudeDegrees>-1.3178103603422641754150390625</LongitudeDegrees>
            </Position>
            <AltitudeMeters>10.3999996185302734375</AltitudeMeters>
            <DistanceMeters>NAN</DistanceMeters>
          </Trackpoint>
          <Trackpoint>
            <Time>2022-07-06T12:26:25.000Z</Time>
            <Position>
              <LatitudeDegrees>44.0755885653197765350341796875</LatitudeDegrees>
              <LongitudeDegrees>-1.31789778359234333038330078125</LongitudeDegrees>
            </Position>
            <AltitudeMeters>10.80000019073486328125</AltitudeMeters>
            <DistanceMeters>NAN</DistanceMeters>
          </Trackpoint>
          <Trackpoint>
            <Time>2022-07-06T12:26:32.000Z</Time>
            <Position>
              <LatitudeDegrees>44.07530265860259532928466796875</LatitudeDegrees>
              <LongitudeDegrees>-1.3180165551602840423583984375</LongitudeDegrees>
            </Position>
            <AltitudeMeters>11</AltitudeMeters>
            <DistanceMeters>NAN</DistanceMeters>
          </Trackpoint>
          <Trackpoint>
            <Time>2022-07-06T12:26:36.000Z</Time>
            <Position>
              <LatitudeDegrees>44.0751252137124538421630859375</LatitudeDegrees>
              <LongitudeDegrees>-1.318080425262451171875</LongitudeDegrees>
            </Position>
            <AltitudeMeters>11.19999980926513671875</AltitudeMeters>
            <DistanceMeters>NAN</DistanceMeters>
          </Trackpoint>
          <Trackpoint>
            <Time>2022-07-06T12:26:38.000Z</Time>
            <Position>
              <LatitudeDegrees>44.07503946684300899505615234375</LatitudeDegrees>
              <LongitudeDegrees>-1.31812728010118007659912109375</LongitudeDegrees>
            </Position>
            <AltitudeMeters>11.3999996185302734375</AltitudeMeters>
            <DistanceMeters>NAN</DistanceMeters>
          </Trackpoint>
          <Trackpoint>
            <Time>2022-07-06T12:26:40.000Z</Time>
            <Position>
              <LatitudeDegrees>44.07495145685970783233642578125</LatitudeDegrees>
              <LongitudeDegrees>-1.318165920674800872802734375</LongitudeDegrees>
            </Position>
            <AltitudeMeters>11.3999996185302734375</AltitudeMeters>
            <DistanceMeters>NAN</DistanceMeters>
          </Trackpoint>
          <Trackpoint>
            <Time>2022-07-06T12:26:42.000Z</Time>
            <Position>
              <LatitudeDegrees>44.07486948184669017791748046875</LatitudeDegrees>
              <LongitudeDegrees>-1.3182090036571025848388671875</LongitudeDegrees>
            </Position>
            <AltitudeMeters>11.6000003814697265625</AltitudeMeters>
            <DistanceMeters>NAN</DistanceMeters>
          </Trackpoint>
          <Trackpoint>
            <Time>2022-07-06T12:26:47.000Z</Time>
            <Position>
              <LatitudeDegrees>44.074671752750873565673828125</LatitudeDegrees>
              <LongitudeDegrees>-1.3183139450848102569580078125</LongitudeDegrees>
            </Position>
            <AltitudeMeters>12.3999996185302734375</AltitudeMeters>
            <DistanceMeters>NAN</DistanceMeters>
          </Trackpoint>
          <Trackpoint>
            <Time>2022-07-06T12:26:51.000Z</Time>
            <Position>
              <LatitudeDegrees>44.07453236170113086700439453125</LatitudeDegrees>
              <LongitudeDegrees>-1.31838980130851268768310546875</LongitudeDegrees>
            </Position>
            <AltitudeMeters>12.19999980926513671875</AltitudeMeters>
            <DistanceMeters>NAN</DistanceMeters>
          </Trackpoint>
          <Trackpoint>
            <Time>2022-07-06T12:26:55.000Z</Time>
            <Position>
              <LatitudeDegrees>44.07436070032417774200439453125</LatitudeDegrees>
              <LongitudeDegrees>-1.31848342716693878173828125</LongitudeDegrees>
            </Position>
            <AltitudeMeters>11.6000003814697265625</AltitudeMeters>
            <DistanceMeters>NAN</DistanceMeters>
          </Trackpoint>
          <Trackpoint>
            <Time>2022-07-06T12:26:57.000Z</Time>
            <Position>
              <LatitudeDegrees>44.07428274862468242645263671875</LatitudeDegrees>
              <LongitudeDegrees>-1.31852458231151103973388671875</LongitudeDegrees>
            </Position>
            <AltitudeMeters>11</AltitudeMeters>
            <DistanceMeters>NAN</DistanceMeters>
          </Trackpoint>
          <Trackpoint>
            <Time>2022-07-06T12:26:59.000Z</Time>
            <Position>
              <LatitudeDegrees>44.07419021241366863250732421875</LatitudeDegrees>
              <LongitudeDegrees>-1.31858694367110729217529296875</LongitudeDegrees>
            </Position>
            <AltitudeMeters>10.80000019073486328125</AltitudeMeters>
            <DistanceMeters>NAN</DistanceMeters>
          </Trackpoint>
          <Trackpoint>
            <Time>2022-07-06T12:27:04.000Z</Time>
            <Position>
              <LatitudeDegrees>44.07397965900599956512451171875</LatitudeDegrees>
              <LongitudeDegrees>-1.3187095709145069122314453125</LongitudeDegrees>
            </Position>
            <AltitudeMeters>10.19999980926513671875</AltitudeMeters>
            <DistanceMeters>NAN</DistanceMeters>
          </Trackpoint>
          <Trackpoint>
            <Time>2022-07-06T12:27:05.000Z</Time>
            <Position>
              <LatitudeDegrees>44.07393984496593475341796875</LatitudeDegrees>
              <LongitudeDegrees>-1.31873178295791149139404296875</LongitudeDegrees>
            </Position>
            <AltitudeMeters>10</AltitudeMeters>
            <DistanceMeters>NAN</DistanceMeters>
          </Trackpoint>
          <Trackpoint>
            <Time>2022-07-06T12:27:10.000Z</Time>
            <Position>
              <LatitudeDegrees>44.07375955022871494293212890625</LatitudeDegrees>
              <LongitudeDegrees>-1.318855918943881988525390625</LongitudeDegrees>
            </Position>
            <AltitudeMeters>10.3999996185302734375</AltitudeMeters>
            <DistanceMeters>NAN</DistanceMeters>
          </Trackpoint>
          <Trackpoint>
            <Time>2022-07-06T12:27:16.000Z</Time>
            <Position>
              <LatitudeDegrees>44.0734857134521007537841796875</LatitudeDegrees>
              <LongitudeDegrees>-1.31904660724103450775146484375</LongitudeDegrees>
            </Position>
            <AltitudeMeters>10.6000003814697265625</AltitudeMeters>
            <DistanceMeters>NAN</DistanceMeters>
          </Trackpoint>
          <Trackpoint>
            <Time>2022-07-06T12:27:23.000Z</Time>
            <Position>
              <LatitudeDegrees>44.0731899999082088470458984375</LatitudeDegrees>
              <LongitudeDegrees>-1.3192148320376873016357421875</LongitudeDegrees>
            </Position>
            <AltitudeMeters>10.6000003814697265625</AltitudeMeters>
            <DistanceMeters>NAN</DistanceMeters>
          </Trackpoint>
          <Trackpoint>
            <Time>2022-07-06T12:27:25.000Z</Time>
            <Position>
              <LatitudeDegrees>44.073117077350616455078125</LatitudeDegrees>
              <LongitudeDegrees>-1.31925783120095729827880859375</LongitudeDegrees>
            </Position>
            <AltitudeMeters>10.6000003814697265625</AltitudeMeters>
            <DistanceMeters>NAN</DistanceMeters>
          </Trackpoint>
          <Trackpoint>
            <Time>2022-07-06T12:27:26.000Z</Time>
            <Position>
              <LatitudeDegrees>44.07308329828083515167236328125</LatitudeDegrees>
              <LongitudeDegrees>-1.31927878595888614654541015625</LongitudeDegrees>
            </Position>
            <AltitudeMeters>10.80000019073486328125</AltitudeMeters>
            <DistanceMeters>NAN</DistanceMeters>
          </Trackpoint>
          <Trackpoint>
            <Time>2022-07-06T12:27:28.000Z</Time>
            <Position>
              <LatitudeDegrees>44.07302730716764926910400390625</LatitudeDegrees>
              <LongitudeDegrees>-1.31931935437023639678955078125</LongitudeDegrees>
            </Position>
            <AltitudeMeters>11.19999980926513671875</AltitudeMeters>
            <DistanceMeters>NAN</DistanceMeters>
          </Trackpoint>
          <Trackpoint>
            <Time>2022-07-06T12:27:31.000Z</Time>
            <Position>
              <LatitudeDegrees>44.07294206321239471435546875</LatitudeDegrees>
              <LongitudeDegrees>-1.319375596940517425537109375</LongitudeDegrees>
            </Position>
            <AltitudeMeters>11.3999996185302734375</AltitudeMeters>
            <DistanceMeters>NAN</DistanceMeters>
          </Trackpoint>
          <Trackpoint>
            <Time>2022-07-06T12:27:38.000Z</Time>
            <Position>
              <LatitudeDegrees>44.07266386784613132476806640625</LatitudeDegrees>
              <LongitudeDegrees>-1.31950593553483486175537109375</LongitudeDegrees>
            </Position>
            <AltitudeMeters>11.6000003814697265625</AltitudeMeters>
            <DistanceMeters>NAN</DistanceMeters>
          </Trackpoint>
          <Trackpoint>
            <Time>2022-07-06T12:27:43.000Z</Time>
            <Position>
              <LatitudeDegrees>44.07245851121842861175537109375</LatitudeDegrees>
              <LongitudeDegrees>-1.31963233463466167449951171875</LongitudeDegrees>
            </Position>
            <AltitudeMeters>11.6000003814697265625</AltitudeMeters>
            <DistanceMeters>NAN</DistanceMeters>
          </Trackpoint>
          <Trackpoint>
            <Time>2022-07-06T12:27:49.000Z</Time>
            <Position>
              <LatitudeDegrees>44.07218140549957752227783203125</LatitudeDegrees>
              <LongitudeDegrees>-1.3197358511388301849365234375</LongitudeDegrees>
            </Position>
            <AltitudeMeters>11.6000003814697265625</AltitudeMeters>
            <DistanceMeters>NAN</DistanceMeters>
          </Trackpoint>
          <Trackpoint>
            <Time>2022-07-06T12:27:51.000Z</Time>
            <Position>
              <LatitudeDegrees>44.072095490992069244384765625</LatitudeDegrees>
              <LongitudeDegrees>-1.31974968127906322479248046875</LongitudeDegrees>
            </Position>
            <AltitudeMeters>11.6000003814697265625</AltitudeMeters>
            <DistanceMeters>NAN</DistanceMeters>
          </Trackpoint>
          <Trackpoint>
            <Time>2022-07-06T12:27:58.000Z</Time>
            <Position>
              <LatitudeDegrees>44.07176700420677661895751953125</LatitudeDegrees>
              <LongitudeDegrees>-1.319857053458690643310546875</LongitudeDegrees>
            </Position>
            <AltitudeMeters>11.19999980926513671875</AltitudeMeters>
            <DistanceMeters>NAN</DistanceMeters>
          </Trackpoint>
          <Trackpoint>
            <Time>2022-07-06T12:28:00.000Z</Time>
            <Position>
              <LatitudeDegrees>44.07167631201446056365966796875</LatitudeDegrees>
              <LongitudeDegrees>-1.3198961131274700164794921875</LongitudeDegrees>
            </Position>
            <AltitudeMeters>11</AltitudeMeters>
            <DistanceMeters>NAN</DistanceMeters>
          </Trackpoint>
          <Trackpoint>
            <Time>2022-07-06T12:28:05.000Z</Time>
            <Position>
              <LatitudeDegrees>44.07148218713700771331787109375</LatitudeDegrees>
              <LongitudeDegrees>-1.3199762441217899322509765625</LongitudeDegrees>
            </Position>
            <AltitudeMeters>10.80000019073486328125</AltitudeMeters>
            <DistanceMeters>NAN</DistanceMeters>
          </Trackpoint>
          <Trackpoint>
            <Time>2022-07-06T12:28:07.000Z</Time>
            <Position>
              <LatitudeDegrees>44.07138369977474212646484375</LatitudeDegrees>
              <LongitudeDegrees>-1.320011615753173828125</LongitudeDegrees>
            </Position>
            <AltitudeMeters>10.80000019073486328125</AltitudeMeters>
            <DistanceMeters>NAN</DistanceMeters>
          </Trackpoint>
          <Trackpoint>
            <Time>2022-07-06T12:28:09.000Z</Time>
            <Position>
              <LatitudeDegrees>44.0712998807430267333984375</LatitudeDegrees>
              <LongitudeDegrees>-1.32005780003964900970458984375</LongitudeDegrees>
            </Position>
            <AltitudeMeters>10.6000003814697265625</AltitudeMeters>
            <DistanceMeters>NAN</DistanceMeters>
          </Trackpoint>
          <Trackpoint>
            <Time>2022-07-06T12:28:11.000Z</Time>
            <Position>
              <LatitudeDegrees>44.0712142176926136016845703125</LatitudeDegrees>
              <LongitudeDegrees>-1.3201200775802135467529296875</LongitudeDegrees>
            </Position>
            <AltitudeMeters>10.3999996185302734375</AltitudeMeters>
            <DistanceMeters>NAN</DistanceMeters>
          </Trackpoint>
          <Trackpoint>
            <Time>2022-07-06T12:28:13.000Z</Time>
            <Position>
              <LatitudeDegrees>44.071103073656558990478515625</LatitudeDegrees>
              <LongitudeDegrees>-1.32019878365099430084228515625</LongitudeDegrees>
            </Position>
            <AltitudeMeters>10</AltitudeMeters>
            <DistanceMeters>NAN</DistanceMeters>
          </Trackpoint>
          <Trackpoint>
            <Time>2022-07-06T12:28:16.000Z</Time>
            <Position>
              <LatitudeDegrees>44.07096049748361110687255859375</LatitudeDegrees>
              <LongitudeDegrees>-1.32030942477285861968994140625</LongitudeDegrees>
            </Position>
            <AltitudeMeters>9.80000019073486328125</AltitudeMeters>
            <DistanceMeters>NAN</DistanceMeters>
          </Trackpoint>
          <Trackpoint>
            <Time>2022-07-06T12:28:18.000Z</Time>
            <Position>
              <LatitudeDegrees>44.0708340145647525787353515625</LatitudeDegrees>
              <LongitudeDegrees>-1.32035887800157070159912109375</LongitudeDegrees>
            </Position>
            <AltitudeMeters>9.6000003814697265625</AltitudeMeters>
            <DistanceMeters>NAN</DistanceMeters>
          </Trackpoint>
          <Trackpoint>
            <Time>2022-07-06T12:28:27.000Z</Time>
            <Position>
              <LatitudeDegrees>44.07031173817813396453857421875</LatitudeDegrees>
              <LongitudeDegrees>-1.32055543363094329833984375</LongitudeDegrees>
            </Position>
            <AltitudeMeters>10.19999980926513671875</AltitudeMeters>
            <DistanceMeters>NAN</DistanceMeters>
          </Trackpoint>
          <Trackpoint>
            <Time>2022-07-06T12:28:28.000Z</Time>
            <Position>
              <LatitudeDegrees>44.07027754001319408416748046875</LatitudeDegrees>
              <LongitudeDegrees>-1.3205602951347827911376953125</LongitudeDegrees>
            </Position>
            <AltitudeMeters>10.3999996185302734375</AltitudeMeters>
            <DistanceMeters>NAN</DistanceMeters>
          </Trackpoint>
          <Trackpoint>
            <Time>2022-07-06T12:28:31.000Z</Time>
            <Position>
              <LatitudeDegrees>44.07016421668231487274169921875</LatitudeDegrees>
              <LongitudeDegrees>-1.32061771117150783538818359375</LongitudeDegrees>
            </Position>
            <AltitudeMeters>10.6000003814697265625</AltitudeMeters>
            <DistanceMeters>NAN</DistanceMeters>
          </Trackpoint>
          <Trackpoint>
            <Time>2022-07-06T12:28:33.000Z</Time>
            <Position>
              <LatitudeDegrees>44.07008492387831211090087890625</LatitudeDegrees>
              <LongitudeDegrees>-1.32066565565764904022216796875</LongitudeDegrees>
            </Position>
            <AltitudeMeters>10.6000003814697265625</AltitudeMeters>
            <DistanceMeters>NAN</DistanceMeters>
          </Trackpoint>
          <Trackpoint>
            <Time>2022-07-06T12:28:35.000Z</Time>
            <Position>
              <LatitudeDegrees>44.069985933601856231689453125</LatitudeDegrees>
              <LongitudeDegrees>-1.32072600536048412322998046875</LongitudeDegrees>
            </Position>
            <AltitudeMeters>10.6000003814697265625</AltitudeMeters>
            <DistanceMeters>NAN</DistanceMeters>
          </Trackpoint>
          <Trackpoint>
            <Time>2022-07-06T12:28:36.000Z</Time>
            <Position>
              <LatitudeDegrees>44.06993170268833637237548828125</LatitudeDegrees>
              <LongitudeDegrees>-1.32075165398418903350830078125</LongitudeDegrees>
            </Position>
            <AltitudeMeters>10.6000003814697265625</AltitudeMeters>
            <DistanceMeters>NAN</DistanceMeters>
          </Trackpoint>
          <Trackpoint>
            <Time>2022-07-06T12:28:44.000Z</Time>
            <Position>
              <LatitudeDegrees>44.06953163444995880126953125</LatitudeDegrees>
              <LongitudeDegrees>-1.32096841000020503997802734375</LongitudeDegrees>
            </Position>
            <AltitudeMeters>10.6000003814697265625</AltitudeMeters>
            <DistanceMeters>NAN</DistanceMeters>
          </Trackpoint>
          <Trackpoint>
            <Time>2022-07-06T12:28:45.000Z</Time>
            <Position>
              <LatitudeDegrees>44.06948737800121307373046875</LatitudeDegrees>
              <LongitudeDegrees>-1.32099037058651447296142578125</LongitudeDegrees>
            </Position>
            <AltitudeMeters>10.6000003814697265625</AltitudeMeters>
            <DistanceMeters>NAN</DistanceMeters>
          </Trackpoint>
          <Trackpoint>
            <Time>2022-07-06T12:28:49.000Z</Time>
            <Position>
              <LatitudeDegrees>44.06936131417751312255859375</LatitudeDegrees>
              <LongitudeDegrees>-1.32106279022991657257080078125</LongitudeDegrees>
            </Position>
            <AltitudeMeters>10.3999996185302734375</AltitudeMeters>
            <DistanceMeters>NAN</DistanceMeters>
          </Trackpoint>
          <Trackpoint>
            <Time>2022-07-06T12:28:55.000Z</Time>
            <Position>
              <LatitudeDegrees>44.06905462034046649932861328125</LatitudeDegrees>
              <LongitudeDegrees>-1.32120721042156219482421875</LongitudeDegrees>
            </Position>
            <AltitudeMeters>10.6000003814697265625</AltitudeMeters>
            <DistanceMeters>NAN</DistanceMeters>
          </Trackpoint>
          <Trackpoint>
            <Time>2022-07-06T12:29:07.000Z</Time>
            <Position>
              <LatitudeDegrees>44.06848817132413387298583984375</LatitudeDegrees>
              <LongitudeDegrees>-1.32140510715544223785400390625</LongitudeDegrees>
            </Position>
            <AltitudeMeters>10.19999980926513671875</AltitudeMeters>
            <DistanceMeters>NAN</DistanceMeters>
          </Trackpoint>
          <Trackpoint>
            <Time>2022-07-06T12:29:16.000Z</Time>
            <Position>
              <LatitudeDegrees>44.06807661987841129302978515625</LatitudeDegrees>
              <LongitudeDegrees>-1.3215470127761363983154296875</LongitudeDegrees>
            </Position>
            <AltitudeMeters>10.3999996185302734375</AltitudeMeters>
            <DistanceMeters>NAN</DistanceMeters>
          </Trackpoint>
          <Trackpoint>
            <Time>2022-07-06T12:29:19.000Z</Time>
            <Position>
              <LatitudeDegrees>44.0679321996867656707763671875</LatitudeDegrees>
              <LongitudeDegrees>-1.32158632390201091766357421875</LongitudeDegrees>
            </Position>
            <AltitudeMeters>10.3999996185302734375</AltitudeMeters>
            <DistanceMeters>NAN</DistanceMeters>
          </Trackpoint>
          <Trackpoint>
            <Time>2022-07-06T12:29:21.000Z</Time>
            <Position>
              <LatitudeDegrees>44.06783907674252986907958984375</LatitudeDegrees>
              <LongitudeDegrees>-1.32161214016377925872802734375</LongitudeDegrees>
            </Position>
            <AltitudeMeters>10.6000003814697265625</AltitudeMeters>
            <DistanceMeters>NAN</DistanceMeters>
          </Trackpoint>
          <Trackpoint>
            <Time>2022-07-06T12:29:28.000Z</Time>
            <Position>
              <LatitudeDegrees>44.06748552806675434112548828125</LatitudeDegrees>
              <LongitudeDegrees>-1.32171037606894969940185546875</LongitudeDegrees>
            </Position>
            <AltitudeMeters>10.6000003814697265625</AltitudeMeters>
            <DistanceMeters>NAN</DistanceMeters>
          </Trackpoint>
          <Trackpoint>
            <Time>2022-07-06T12:29:29.000Z</Time>
            <Position>
              <LatitudeDegrees>44.0674286149442195892333984375</LatitudeDegrees>
              <LongitudeDegrees>-1.32173988036811351776123046875</LongitudeDegrees>
            </Position>
            <AltitudeMeters>10.6000003814697265625</AltitudeMeters>
            <DistanceMeters>NAN</DistanceMeters>
          </Trackpoint>
          <Trackpoint>
            <Time>2022-07-06T12:29:32.000Z</Time>
            <Position>
              <LatitudeDegrees>44.067307077348232269287109375</LatitudeDegrees>
              <LongitudeDegrees>-1.32186569273471832275390625</LongitudeDegrees>
            </Position>
            <AltitudeMeters>10.6000003814697265625</AltitudeMeters>
            <DistanceMeters>NAN</DistanceMeters>
          </Trackpoint>
          <Trackpoint>
            <Time>2022-07-06T12:29:40.000Z</Time>
            <Position>
              <LatitudeDegrees>44.06704128719866275787353515625</LatitudeDegrees>
              <LongitudeDegrees>-1.3223268650472164154052734375</LongitudeDegrees>
            </Position>
            <AltitudeMeters>10.19999980926513671875</AltitudeMeters>
            <DistanceMeters>NAN</DistanceMeters>
          </Trackpoint>
          <Trackpoint>
            <Time>2022-07-06T12:29:48.000Z</Time>
            <Position>
              <LatitudeDegrees>44.0667630918323993682861328125</LatitudeDegrees>
              <LongitudeDegrees>-1.3227563537657260894775390625</LongitudeDegrees>
            </Position>
            <AltitudeMeters>10.3999996185302734375</AltitudeMeters>
            <DistanceMeters>NAN</DistanceMeters>
          </Trackpoint>
          <Trackpoint>
            <Time>2022-07-06T12:29:49.000Z</Time>
            <Position>
              <LatitudeDegrees>44.06673585064709186553955078125</LatitudeDegrees>
              <LongitudeDegrees>-1.3227890431880950927734375</LongitudeDegrees>
            </Position>
            <AltitudeMeters>10.6000003814697265625</AltitudeMeters>
            <DistanceMeters>NAN</DistanceMeters>
          </Trackpoint>
          <Trackpoint>
            <Time>2022-07-06T12:29:50.000Z</Time>
            <Position>
              <LatitudeDegrees>44.0666967071592807769775390625</LatitudeDegrees>
              <LongitudeDegrees>-1.322839669883251190185546875</LongitudeDegrees>
            </Position>
            <AltitudeMeters>10.6000003814697265625</AltitudeMeters>
            <DistanceMeters>NAN</DistanceMeters>
          </Trackpoint>
          <Trackpoint>
            <Time>2022-07-06T12:29:53.000Z</Time>
            <Position>
              <LatitudeDegrees>44.06658614985644817352294921875</LatitudeDegrees>
              <LongitudeDegrees>-1.32294586859643459320068359375</LongitudeDegrees>
            </Position>
            <AltitudeMeters>10.6000003814697265625</AltitudeMeters>
            <DistanceMeters>NAN</DistanceMeters>
          </Trackpoint>
          <Trackpoint>
            <Time>2022-07-06T12:30:00.000Z</Time>
            <Position>
              <LatitudeDegrees>44.06629412434995174407958984375</LatitudeDegrees>
              <LongitudeDegrees>-1.32325918413698673248291015625</LongitudeDegrees>
            </Position>
            <AltitudeMeters>9.80000019073486328125</AltitudeMeters>
            <DistanceMeters>NAN</DistanceMeters>
          </Trackpoint>
          <Trackpoint>
            <Time>2022-07-06T12:30:07.000Z</Time>
            <Position>
              <LatitudeDegrees>44.06595314852893352508544921875</LatitudeDegrees>
              <LongitudeDegrees>-1.32361005060374736785888671875</LongitudeDegrees>
            </Position>
            <AltitudeMeters>8.80000019073486328125</AltitudeMeters>
            <DistanceMeters>NAN</DistanceMeters>
          </Trackpoint>
          <Trackpoint>
            <Time>2022-07-06T12:30:08.000Z</Time>
            <Position>
              <LatitudeDegrees>44.0659071318805217742919921875</LatitudeDegrees>
              <LongitudeDegrees>-1.3236569054424762725830078125</LongitudeDegrees>
            </Position>
            <AltitudeMeters>8.80000019073486328125</AltitudeMeters>
            <DistanceMeters>NAN</DistanceMeters>
          </Trackpoint>
          <Trackpoint>
            <Time>2022-07-06T12:30:12.000Z</Time>
            <Position>
              <LatitudeDegrees>44.06571409665048122406005859375</LatitudeDegrees>
              <LongitudeDegrees>-1.3238527067005634307861328125</LongitudeDegrees>
            </Position>
            <AltitudeMeters>8.3999996185302734375</AltitudeMeters>
            <DistanceMeters>NAN</DistanceMeters>
          </Trackpoint>
          <Trackpoint>
            <Time>2022-07-06T12:30:15.000Z</Time>
            <Position>
              <LatitudeDegrees>44.0655706822872161865234375</LatitudeDegrees>
              <LongitudeDegrees>-1.32398656569421291351318359375</LongitudeDegrees>
            </Position>
            <AltitudeMeters>8.19999980926513671875</AltitudeMeters>
            <DistanceMeters>NAN</DistanceMeters>
          </Trackpoint>
          <Trackpoint>
            <Time>2022-07-06T12:30:18.000Z</Time>
            <Position>
              <LatitudeDegrees>44.06543279998004436492919921875</LatitudeDegrees>
              <LongitudeDegrees>-1.324126459658145904541015625</LongitudeDegrees>
            </Position>
            <AltitudeMeters>8</AltitudeMeters>
            <DistanceMeters>NAN</DistanceMeters>
          </Trackpoint>
          <Trackpoint>
            <Time>2022-07-06T12:30:23.000Z</Time>
            <Position>
              <LatitudeDegrees>44.065219648182392120361328125</LatitudeDegrees>
              <LongitudeDegrees>-1.32432921789586544036865234375</LongitudeDegrees>
            </Position>
            <AltitudeMeters>8</AltitudeMeters>
            <DistanceMeters>NAN</DistanceMeters>
          </Trackpoint>
          <Trackpoint>
            <Time>2022-07-06T12:30:24.000Z</Time>
            <Position>
              <LatitudeDegrees>44.0651765652000904083251953125</LatitudeDegrees>
              <LongitudeDegrees>-1.32436961866915225982666015625</LongitudeDegrees>
            </Position>
            <AltitudeMeters>8</AltitudeMeters>
            <DistanceMeters>NAN</DistanceMeters>
          </Trackpoint>
          <Trackpoint>
            <Time>2022-07-06T12:30:27.000Z</Time>
            <Position>
              <LatitudeDegrees>44.06505159102380275726318359375</LatitudeDegrees>
              <LongitudeDegrees>-1.32448864169418811798095703125</LongitudeDegrees>
            </Position>
            <AltitudeMeters>8.19999980926513671875</AltitudeMeters>
            <DistanceMeters>NAN</DistanceMeters>
          </Trackpoint>
          <Trackpoint>
            <Time>2022-07-06T12:30:29.000Z</Time>
            <Position>
              <LatitudeDegrees>44.0649733878672122955322265625</LatitudeDegrees>
              <LongitudeDegrees>-1.32455921731889247894287109375</LongitudeDegrees>
            </Position>
            <AltitudeMeters>8.3999996185302734375</AltitudeMeters>
            <DistanceMeters>NAN</DistanceMeters>
          </Trackpoint>
          <Trackpoint>
            <Time>2022-07-06T12:30:31.000Z</Time>
            <Position>
              <LatitudeDegrees>44.064891748130321502685546875</LatitudeDegrees>
              <LongitudeDegrees>-1.3246298767626285552978515625</LongitudeDegrees>
            </Position>
            <AltitudeMeters>8.3999996185302734375</AltitudeMeters>
            <DistanceMeters>NAN</DistanceMeters>
          </Trackpoint>
          <Trackpoint>
            <Time>2022-07-06T12:30:35.000Z</Time>
            <Position>
              <LatitudeDegrees>44.064750261604785919189453125</LatitudeDegrees>
              <LongitudeDegrees>-1.3247720338404178619384765625</LongitudeDegrees>
            </Position>
            <AltitudeMeters>8.6000003814697265625</AltitudeMeters>
            <DistanceMeters>NAN</DistanceMeters>
          </Trackpoint>
          <Trackpoint>
            <Time>2022-07-06T12:30:36.000Z</Time>
            <Position>
              <LatitudeDegrees>44.064718745648860931396484375</LatitudeDegrees>
              <LongitudeDegrees>-1.3248006999492645263671875</LongitudeDegrees>
            </Position>
            <AltitudeMeters>8.6000003814697265625</AltitudeMeters>
            <DistanceMeters>NAN</DistanceMeters>
          </Trackpoint>
          <Trackpoint>
            <Time>2022-07-06T12:30:41.000Z</Time>
            <Position>
              <LatitudeDegrees>44.064556472003459930419921875</LatitudeDegrees>
              <LongitudeDegrees>-1.32496976293623447418212890625</LongitudeDegrees>
            </Position>
            <AltitudeMeters>8.19999980926513671875</AltitudeMeters>
            <DistanceMeters>NAN</DistanceMeters>
          </Trackpoint>
          <Trackpoint>
            <Time>2022-07-06T12:30:42.000Z</Time>
            <Position>
              <LatitudeDegrees>44.06451917253434658050537109375</LatitudeDegrees>
              <LongitudeDegrees>-1.3249963335692882537841796875</LongitudeDegrees>
            </Position>
            <AltitudeMeters>8</AltitudeMeters>
            <DistanceMeters>NAN</DistanceMeters>
          </Trackpoint>
          <Trackpoint>
            <Time>2022-07-06T12:30:46.000Z</Time>
            <Position>
              <LatitudeDegrees>44.06436025165021419525146484375</LatitudeDegrees>
              <LongitudeDegrees>-1.325079984962940216064453125</LongitudeDegrees>
            </Position>
            <AltitudeMeters>7.80000019073486328125</AltitudeMeters>
            <DistanceMeters>NAN</DistanceMeters>
          </Trackpoint>
          <Trackpoint>
            <Time>2022-07-06T12:30:48.000Z</Time>
            <Position>
              <LatitudeDegrees>44.06426872126758098602294921875</LatitudeDegrees>
              <LongitudeDegrees>-1.3251297734677791595458984375</LongitudeDegrees>
            </Position>
            <AltitudeMeters>7.80000019073486328125</AltitudeMeters>
            <DistanceMeters>NAN</DistanceMeters>
          </Trackpoint>
          <Trackpoint>
            <Time>2022-07-06T12:30:54.000Z</Time>
            <Position>
              <LatitudeDegrees>44.0639528073370456695556640625</LatitudeDegrees>
              <LongitudeDegrees>-1.325314007699489593505859375</LongitudeDegrees>
            </Position>
            <AltitudeMeters>7.599999904632568359375</AltitudeMeters>
            <DistanceMeters>NAN</DistanceMeters>
          </Trackpoint>
          <Trackpoint>
            <Time>2022-07-06T12:30:55.000Z</Time>
            <Position>
              <LatitudeDegrees>44.0639125742018222808837890625</LatitudeDegrees>
              <LongitudeDegrees>-1.3253363035619258880615234375</LongitudeDegrees>
            </Position>
            <AltitudeMeters>7.599999904632568359375</AltitudeMeters>
            <DistanceMeters>NAN</DistanceMeters>
          </Trackpoint>
          <Trackpoint>
            <Time>2022-07-06T12:31:01.000Z</Time>
            <Position>
              <LatitudeDegrees>44.0636218897998332977294921875</LatitudeDegrees>
              <LongitudeDegrees>-1.32547133602201938629150390625</LongitudeDegrees>
            </Position>
            <AltitudeMeters>8</AltitudeMeters>
            <DistanceMeters>NAN</DistanceMeters>
          </Trackpoint>
          <Trackpoint>
            <Time>2022-07-06T12:31:06.000Z</Time>
            <Position>
              <LatitudeDegrees>44.063438661396503448486328125</LatitudeDegrees>
              <LongitudeDegrees>-1.325572170317173004150390625</LongitudeDegrees>
            </Position>
            <AltitudeMeters>8.19999980926513671875</AltitudeMeters>
            <DistanceMeters>NAN</DistanceMeters>
          </Trackpoint>
          <Trackpoint>
            <Time>2022-07-06T12:31:10.000Z</Time>
            <Position>
              <LatitudeDegrees>44.06326708383858203887939453125</LatitudeDegrees>
              <LongitudeDegrees>-1.32564081810414791107177734375</LongitudeDegrees>
            </Position>
            <AltitudeMeters>8.3999996185302734375</AltitudeMeters>
            <DistanceMeters>NAN</DistanceMeters>
          </Trackpoint>
          <Trackpoint>
            <Time>2022-07-06T12:31:11.000Z</Time>
            <Position>
              <LatitudeDegrees>44.06321511603891849517822265625</LatitudeDegrees>
              <LongitudeDegrees>-1.32566378451883792877197265625</LongitudeDegrees>
            </Position>
            <AltitudeMeters>8.3999996185302734375</AltitudeMeters>
            <DistanceMeters>NAN</DistanceMeters>
          </Trackpoint>
          <Trackpoint>
            <Time>2022-07-06T12:31:16.000Z</Time>
            <Position>
              <LatitudeDegrees>44.06304144300520420074462890625</LatitudeDegrees>
              <LongitudeDegrees>-1.32575565017759799957275390625</LongitudeDegrees>
            </Position>
            <AltitudeMeters>8.6000003814697265625</AltitudeMeters>
            <DistanceMeters>NAN</DistanceMeters>
          </Trackpoint>
          <Trackpoint>
            <Time>2022-07-06T12:31:21.000Z</Time>
            <Position>
              <LatitudeDegrees>44.06281798146665096282958984375</LatitudeDegrees>
              <LongitudeDegrees>-1.32578381337225437164306640625</LongitudeDegrees>
            </Position>
            <AltitudeMeters>8.3999996185302734375</AltitudeMeters>
            <DistanceMeters>NAN</DistanceMeters>
          </Trackpoint>
          <Trackpoint>
            <Time>2022-07-06T12:31:26.000Z</Time>
            <Position>
              <LatitudeDegrees>44.0625500120222568511962890625</LatitudeDegrees>
              <LongitudeDegrees>-1.3257832266390323638916015625</LongitudeDegrees>
            </Position>
            <AltitudeMeters>8.80000019073486328125</AltitudeMeters>
            <DistanceMeters>NAN</DistanceMeters>
          </Trackpoint>
          <Trackpoint>
            <Time>2022-07-06T12:31:27.000Z</Time>
            <Position>
              <LatitudeDegrees>44.0625161491334438323974609375</LatitudeDegrees>
              <LongitudeDegrees>-1.32576738484203815460205078125</LongitudeDegrees>
            </Position>
            <AltitudeMeters>9</AltitudeMeters>
            <DistanceMeters>NAN</DistanceMeters>
          </Trackpoint>
          <Trackpoint>
            <Time>2022-07-06T12:31:30.000Z</Time>
            <Position>
              <LatitudeDegrees>44.0624034963548183441162109375</LatitudeDegrees>
              <LongitudeDegrees>-1.325729079544544219970703125</LongitudeDegrees>
            </Position>
            <AltitudeMeters>9.3999996185302734375</AltitudeMeters>
            <DistanceMeters>NAN</DistanceMeters>
          </Trackpoint>
          <Trackpoint>
            <Time>2022-07-06T12:31:31.000Z</Time>
            <Position>
              <LatitudeDegrees>44.0623654425144195556640625</LatitudeDegrees>
              <LongitudeDegrees>-1.3257339410483837127685546875</LongitudeDegrees>
            </Position>
            <AltitudeMeters>9.6000003814697265625</AltitudeMeters>
            <DistanceMeters>NAN</DistanceMeters>
          </Trackpoint>
          <Trackpoint>
            <Time>2022-07-06T12:31:34.000Z</Time>
            <Position>
              <LatitudeDegrees>44.06227349303662776947021484375</LatitudeDegrees>
              <LongitudeDegrees>-1.32566328160464763641357421875</LongitudeDegrees>
            </Position>
            <AltitudeMeters>10</AltitudeMeters>
            <DistanceMeters>NAN</DistanceMeters>
          </Trackpoint>
          <Trackpoint>
            <Time>2022-07-06T12:31:41.000Z</Time>
            <Position>
              <LatitudeDegrees>44.0620434097945690155029296875</LatitudeDegrees>
              <LongitudeDegrees>-1.3255341164767742156982421875</LongitudeDegrees>
            </Position>
            <AltitudeMeters>10.6000003814697265625</AltitudeMeters>
            <DistanceMeters>NAN</DistanceMeters>
          </Trackpoint>
          <Trackpoint>
            <Time>2022-07-06T12:31:48.000Z</Time>
            <Position>
              <LatitudeDegrees>44.06179253943264484405517578125</LatitudeDegrees>
              <LongitudeDegrees>-1.3254124112427234649658203125</LongitudeDegrees>
            </Position>
            <AltitudeMeters>10.6000003814697265625</AltitudeMeters>
            <DistanceMeters>NAN</DistanceMeters>
          </Trackpoint>
          <Trackpoint>
            <Time>2022-07-06T12:31:56.000Z</Time>
            <Position>
              <LatitudeDegrees>44.0614824928343296051025390625</LatitudeDegrees>
              <LongitudeDegrees>-1.32527654059231281280517578125</LongitudeDegrees>
            </Position>
            <AltitudeMeters>10.6000003814697265625</AltitudeMeters>
            <DistanceMeters>NAN</DistanceMeters>
          </Trackpoint>
          <Trackpoint>
            <Time>2022-07-06T12:31:57.000Z</Time>
            <Position>
              <LatitudeDegrees>44.06144251115620136260986328125</LatitudeDegrees>
              <LongitudeDegrees>-1.32525994442403316497802734375</LongitudeDegrees>
            </Position>
            <AltitudeMeters>10.6000003814697265625</AltitudeMeters>
            <DistanceMeters>NAN</DistanceMeters>
          </Trackpoint>
          <Trackpoint>
            <Time>2022-07-06T12:32:04.000Z</Time>
            <Position>
              <LatitudeDegrees>44.0611235797405242919921875</LatitudeDegrees>
              <LongitudeDegrees>-1.32511116564273834228515625</LongitudeDegrees>
            </Position>
            <AltitudeMeters>10</AltitudeMeters>
            <DistanceMeters>NAN</DistanceMeters>
          </Trackpoint>
          <Trackpoint>
            <Time>2022-07-06T12:32:09.000Z</Time>
            <Position>
              <LatitudeDegrees>44.06085292808711528778076171875</LatitudeDegrees>
              <LongitudeDegrees>-1.32498786784708499908447265625</LongitudeDegrees>
            </Position>
            <AltitudeMeters>9.3999996185302734375</AltitudeMeters>
            <DistanceMeters>NAN</DistanceMeters>
          </Trackpoint>
          <Trackpoint>
            <Time>2022-07-06T12:32:10.000Z</Time>
            <Position>
              <LatitudeDegrees>44.0607935003936290740966796875</LatitudeDegrees>
              <LongitudeDegrees>-1.3249628059566020965576171875</LongitudeDegrees>
            </Position>
            <AltitudeMeters>9.19999980926513671875</AltitudeMeters>
            <DistanceMeters>NAN</DistanceMeters>
          </Trackpoint>
          <Trackpoint>
            <Time>2022-07-06T12:32:15.000Z</Time>
            <Position>
              <LatitudeDegrees>44.0605430491268634796142578125</LatitudeDegrees>
              <LongitudeDegrees>-1.324870102107524871826171875</LongitudeDegrees>
            </Position>
            <AltitudeMeters>9.3999996185302734375</AltitudeMeters>
            <DistanceMeters>NAN</DistanceMeters>
          </Trackpoint>
          <Trackpoint>
            <Time>2022-07-06T12:32:18.000Z</Time>
            <Position>
              <LatitudeDegrees>44.06039175577461719512939453125</LatitudeDegrees>
              <LongitudeDegrees>-1.3248176313936710357666015625</LongitudeDegrees>
            </Position>
            <AltitudeMeters>9.6000003814697265625</AltitudeMeters>
            <DistanceMeters>NAN</DistanceMeters>
          </Trackpoint>
          <Trackpoint>
            <Time>2022-07-06T12:32:24.000Z</Time>
            <Position>
              <LatitudeDegrees>44.0601125545799732208251953125</LatitudeDegrees>
              <LongitudeDegrees>-1.3246908970177173614501953125</LongitudeDegrees>
            </Position>
            <AltitudeMeters>9.80000019073486328125</AltitudeMeters>
            <DistanceMeters>NAN</DistanceMeters>
          </Trackpoint>
          <Trackpoint>
            <Time>2022-07-06T12:32:25.000Z</Time>
            <Position>
              <LatitudeDegrees>44.060072489082813262939453125</LatitudeDegrees>
              <LongitudeDegrees>-1.32467958144843578338623046875</LongitudeDegrees>
            </Position>
            <AltitudeMeters>10</AltitudeMeters>
            <DistanceMeters>NAN</DistanceMeters>
          </Trackpoint>
          <Trackpoint>
            <Time>2022-07-06T12:32:27.000Z</Time>
            <Position>
              <LatitudeDegrees>44.0599781088531017303466796875</LatitudeDegrees>
              <LongitudeDegrees>-1.32468142546713352203369140625</LongitudeDegrees>
            </Position>
            <AltitudeMeters>10</AltitudeMeters>
            <DistanceMeters>NAN</DistanceMeters>
          </Trackpoint>
          <Trackpoint>
            <Time>2022-07-06T12:32:29.000Z</Time>
            <Position>
              <LatitudeDegrees>44.0598963014781475067138671875</LatitudeDegrees>
              <LongitudeDegrees>-1.324676312506198883056640625</LongitudeDegrees>
            </Position>
            <AltitudeMeters>10</AltitudeMeters>
            <DistanceMeters>NAN</DistanceMeters>
          </Trackpoint>
          <Trackpoint>
            <Time>2022-07-06T12:32:34.000Z</Time>
            <Position>
              <LatitudeDegrees>44.0596455149352550506591796875</LatitudeDegrees>
              <LongitudeDegrees>-1.32462442852556705474853515625</LongitudeDegrees>
            </Position>
            <AltitudeMeters>10</AltitudeMeters>
            <DistanceMeters>NAN</DistanceMeters>
          </Trackpoint>
          <Trackpoint>
            <Time>2022-07-06T12:32:42.000Z</Time>
            <Position>
              <LatitudeDegrees>44.05929632484912872314453125</LatitudeDegrees>
              <LongitudeDegrees>-1.32459777407348155975341796875</LongitudeDegrees>
            </Position>
            <AltitudeMeters>10.3999996185302734375</AltitudeMeters>
            <DistanceMeters>NAN</DistanceMeters>
          </Trackpoint>
          <Trackpoint>
            <Time>2022-07-06T12:32:49.000Z</Time>
            <Position>
              <LatitudeDegrees>44.05892358161509037017822265625</LatitudeDegrees>
              <LongitudeDegrees>-1.32455955259501934051513671875</LongitudeDegrees>
            </Position>
            <AltitudeMeters>10</AltitudeMeters>
            <DistanceMeters>NAN</DistanceMeters>
          </Trackpoint>
          <Trackpoint>
            <Time>2022-07-06T12:32:58.000Z</Time>
            <Position>
              <LatitudeDegrees>44.05844514258205890655517578125</LatitudeDegrees>
              <LongitudeDegrees>-1.32450020872056484222412109375</LongitudeDegrees>
            </Position>
            <AltitudeMeters>9.6000003814697265625</AltitudeMeters>
            <DistanceMeters>NAN</DistanceMeters>
          </Trackpoint>
          <Trackpoint>
            <Time>2022-07-06T12:33:02.000Z</Time>
            <Position>
              <LatitudeDegrees>44.05824758112430572509765625</LatitudeDegrees>
              <LongitudeDegrees>-1.3244692794978618621826171875</LongitudeDegrees>
            </Position>
            <AltitudeMeters>9.3999996185302734375</AltitudeMeters>
            <DistanceMeters>NAN</DistanceMeters>
          </Trackpoint>
          <Trackpoint>
            <Time>2022-07-06T12:33:06.000Z</Time>
            <Position>
              <LatitudeDegrees>44.0580633468925952911376953125</LatitudeDegrees>
              <LongitudeDegrees>-1.3244253583252429962158203125</LongitudeDegrees>
            </Position>
            <AltitudeMeters>9.3999996185302734375</AltitudeMeters>
            <DistanceMeters>NAN</DistanceMeters>
          </Trackpoint>
          <Trackpoint>
            <Time>2022-07-06T12:33:15.000Z</Time>
            <Position>
              <LatitudeDegrees>44.05762991867959499359130859375</LatitudeDegrees>
              <LongitudeDegrees>-1.32439241744577884674072265625</LongitudeDegrees>
            </Position>
            <AltitudeMeters>9.80000019073486328125</AltitudeMeters>
            <DistanceMeters>NAN</DistanceMeters>
          </Trackpoint>
          <Trackpoint>
            <Time>2022-07-06T12:33:22.000Z</Time>
            <Position>
              <LatitudeDegrees>44.0572987496852874755859375</LatitudeDegrees>
              <LongitudeDegrees>-1.3244280405342578887939453125</LongitudeDegrees>
            </Position>
            <AltitudeMeters>9.6000003814697265625</AltitudeMeters>
            <DistanceMeters>NAN</DistanceMeters>
          </Trackpoint>
          <Trackpoint>
            <Time>2022-07-06T12:33:26.000Z</Time>
            <Position>
              <LatitudeDegrees>44.0571145154535770416259765625</LatitudeDegrees>
              <LongitudeDegrees>-1.32446265779435634613037109375</LongitudeDegrees>
            </Position>
            <AltitudeMeters>9.3999996185302734375</AltitudeMeters>
            <DistanceMeters>NAN</DistanceMeters>
          </Trackpoint>
          <Trackpoint>
            <Time>2022-07-06T12:33:30.000Z</Time>
            <Position>
              <LatitudeDegrees>44.056921899318695068359375</LatitudeDegrees>
              <LongitudeDegrees>-1.32448746822774410247802734375</LongitudeDegrees>
            </Position>
            <AltitudeMeters>9.6000003814697265625</AltitudeMeters>
            <DistanceMeters>NAN</DistanceMeters>
          </Trackpoint>
          <Trackpoint>
            <Time>2022-07-06T12:33:31.000Z</Time>
            <Position>
              <LatitudeDegrees>44.05687521211802959442138671875</LatitudeDegrees>
              <LongitudeDegrees>-1.324491910636425018310546875</LongitudeDegrees>
            </Position>
            <AltitudeMeters>9.3999996185302734375</AltitudeMeters>
            <DistanceMeters>NAN</DistanceMeters>
          </Trackpoint>
          <Trackpoint>
            <Time>2022-07-06T12:33:36.000Z</Time>
            <Position>
              <LatitudeDegrees>44.0566575340926647186279296875</LatitudeDegrees>
              <LongitudeDegrees>-1.3245266117155551910400390625</LongitudeDegrees>
            </Position>
            <AltitudeMeters>9.3999996185302734375</AltitudeMeters>
            <DistanceMeters>NAN</DistanceMeters>
          </Trackpoint>
          <Trackpoint>
            <Time>2022-07-06T12:33:39.000Z</Time>
            <Position>
              <LatitudeDegrees>44.05652116052806377410888671875</LatitudeDegrees>
              <LongitudeDegrees>-1.324540860950946807861328125</LongitudeDegrees>
            </Position>
            <AltitudeMeters>9.3999996185302734375</AltitudeMeters>
            <DistanceMeters>NAN</DistanceMeters>
          </Trackpoint>
          <Trackpoint>
            <Time>2022-07-06T12:33:40.000Z</Time>
            <Position>
              <LatitudeDegrees>44.05647589825093746185302734375</LatitudeDegrees>
              <LongitudeDegrees>-1.32454731501638889312744140625</LongitudeDegrees>
            </Position>
            <AltitudeMeters>9.3999996185302734375</AltitudeMeters>
            <DistanceMeters>NAN</DistanceMeters>
          </Trackpoint>
          <Trackpoint>
            <Time>2022-07-06T12:33:44.000Z</Time>
            <Position>
              <LatitudeDegrees>44.05628747306764125823974609375</LatitudeDegrees>
              <LongitudeDegrees>-1.32456927560269832611083984375</LongitudeDegrees>
            </Position>
            <AltitudeMeters>9.19999980926513671875</AltitudeMeters>
            <DistanceMeters>NAN</DistanceMeters>
          </Trackpoint>
          <Trackpoint>
            <Time>2022-07-06T12:33:49.000Z</Time>
            <Position>
              <LatitudeDegrees>44.05605160631239414215087890625</LatitudeDegrees>
              <LongitudeDegrees>-1.32457782514393329620361328125</LongitudeDegrees>
            </Position>
            <AltitudeMeters>9</AltitudeMeters>
            <DistanceMeters>NAN</DistanceMeters>
          </Trackpoint>
          <Trackpoint>
            <Time>2022-07-06T12:33:51.000Z</Time>
            <Position>
              <LatitudeDegrees>44.05595873482525348663330078125</LatitudeDegrees>
              <LongitudeDegrees>-1.3245792500674724578857421875</LongitudeDegrees>
            </Position>
            <AltitudeMeters>8.80000019073486328125</AltitudeMeters>
            <DistanceMeters>NAN</DistanceMeters>
          </Trackpoint>
          <Trackpoint>
            <Time>2022-07-06T12:33:58.000Z</Time>
            <Position>
              <LatitudeDegrees>44.05562035739421844482421875</LatitudeDegrees>
              <LongitudeDegrees>-1.3245346583425998687744140625</LongitudeDegrees>
            </Position>
            <AltitudeMeters>8.80000019073486328125</AltitudeMeters>
            <DistanceMeters>NAN</DistanceMeters>
          </Trackpoint>
          <Trackpoint>
            <Time>2022-07-06T12:34:04.000Z</Time>
            <Position>
              <LatitudeDegrees>44.05533059500157833099365234375</LatitudeDegrees>
              <LongitudeDegrees>-1.32443533279001712799072265625</LongitudeDegrees>
            </Position>
            <AltitudeMeters>8.80000019073486328125</AltitudeMeters>
            <DistanceMeters>NAN</DistanceMeters>
          </Trackpoint>
          <Trackpoint>
            <Time>2022-07-06T12:34:06.000Z</Time>
            <Position>
              <LatitudeDegrees>44.0552352927625179290771484375</LatitudeDegrees>
              <LongitudeDegrees>-1.32439124397933483123779296875</LongitudeDegrees>
            </Position>
            <AltitudeMeters>8.80000019073486328125</AltitudeMeters>
            <DistanceMeters>NAN</DistanceMeters>
          </Trackpoint>
          <Trackpoint>
            <Time>2022-07-06T12:34:08.000Z</Time>
            <Position>
              <LatitudeDegrees>44.05514049343764781951904296875</LatitudeDegrees>
              <LongitudeDegrees>-1.32435738109052181243896484375</LongitudeDegrees>
            </Position>
            <AltitudeMeters>8.80000019073486328125</AltitudeMeters>
            <DistanceMeters>NAN</DistanceMeters>
          </Trackpoint>
          <Trackpoint>
            <Time>2022-07-06T12:34:13.000Z</Time>
            <Position>
              <LatitudeDegrees>44.0549154393374919891357421875</LatitudeDegrees>
              <LongitudeDegrees>-1.32426316849887371063232421875</LongitudeDegrees>
            </Position>
            <AltitudeMeters>8.6000003814697265625</AltitudeMeters>
            <DistanceMeters>NAN</DistanceMeters>
          </Trackpoint>
          <Trackpoint>
            <Time>2022-07-06T12:34:17.000Z</Time>
            <Position>
              <LatitudeDegrees>44.0547317080199718475341796875</LatitudeDegrees>
              <LongitudeDegrees>-1.3241869769990444183349609375</LongitudeDegrees>
            </Position>
            <AltitudeMeters>8.6000003814697265625</AltitudeMeters>
            <DistanceMeters>NAN</DistanceMeters>
          </Trackpoint>
          <Trackpoint>
            <Time>2022-07-06T12:34:24.000Z</Time>
            <Position>
              <LatitudeDegrees>44.05443909578025341033935546875</LatitudeDegrees>
              <LongitudeDegrees>-1.32405705749988555908203125</LongitudeDegrees>
            </Position>
            <AltitudeMeters>8.3999996185302734375</AltitudeMeters>
            <DistanceMeters>NAN</DistanceMeters>
          </Trackpoint>
          <Trackpoint>
            <Time>2022-07-06T12:34:26.000Z</Time>
            <Position>
              <LatitudeDegrees>44.05435175634920597076416015625</LatitudeDegrees>
              <LongitudeDegrees>-1.324029900133609771728515625</LongitudeDegrees>
            </Position>
            <AltitudeMeters>8.3999996185302734375</AltitudeMeters>
            <DistanceMeters>NAN</DistanceMeters>
          </Trackpoint>
          <Trackpoint>
            <Time>2022-07-06T12:34:27.000Z</Time>
            <Position>
              <LatitudeDegrees>44.05430850572884082794189453125</LatitudeDegrees>
              <LongitudeDegrees>-1.3240146450698375701904296875</LongitudeDegrees>
            </Position>
            <AltitudeMeters>8.3999996185302734375</AltitudeMeters>
            <DistanceMeters>NAN</DistanceMeters>
          </Trackpoint>
          <Trackpoint>
            <Time>2022-07-06T12:34:32.000Z</Time>
            <Position>
              <LatitudeDegrees>44.05410826206207275390625</LatitudeDegrees>
              <LongitudeDegrees>-1.32394566200673580169677734375</LongitudeDegrees>
            </Position>
            <AltitudeMeters>8.80000019073486328125</AltitudeMeters>
            <DistanceMeters>NAN</DistanceMeters>
          </Trackpoint>
          <Trackpoint>
            <Time>2022-07-06T12:34:34.000Z</Time>
            <Position>
              <LatitudeDegrees>44.05404196120798587799072265625</LatitudeDegrees>
              <LongitudeDegrees>-1.32391297258436679840087890625</LongitudeDegrees>
            </Position>
            <AltitudeMeters>9</AltitudeMeters>
            <DistanceMeters>NAN</DistanceMeters>
          </Trackpoint>
          <Trackpoint>
            <Time>2022-07-06T12:34:40.000Z</Time>
            <Position>
              <LatitudeDegrees>44.05383811332285404205322265625</LatitudeDegrees>
              <LongitudeDegrees>-1.32380618713796138763427734375</LongitudeDegrees>
            </Position>
            <AltitudeMeters>9.80000019073486328125</AltitudeMeters>
            <DistanceMeters>NAN</DistanceMeters>
          </Trackpoint>
          <Trackpoint>
            <Time>2022-07-06T12:34:42.000Z</Time>
            <Position>
              <LatitudeDegrees>44.0537654422223567962646484375</LatitudeDegrees>
              <LongitudeDegrees>-1.32376578636467456817626953125</LongitudeDegrees>
            </Position>
            <AltitudeMeters>9.80000019073486328125</AltitudeMeters>
            <DistanceMeters>NAN</DistanceMeters>
          </Trackpoint>
          <Trackpoint>
            <Time>2022-07-06T12:34:47.000Z</Time>
            <Position>
              <LatitudeDegrees>44.0535753406584262847900390625</LatitudeDegrees>
              <LongitudeDegrees>-1.32363787852227687835693359375</LongitudeDegrees>
            </Position>
            <AltitudeMeters>10.19999980926513671875</AltitudeMeters>
            <DistanceMeters>NAN</DistanceMeters>
          </Trackpoint>
          <Trackpoint>
            <Time>2022-07-06T12:34:49.000Z</Time>
            <Position>
              <LatitudeDegrees>44.05349814333021640777587890625</LatitudeDegrees>
              <LongitudeDegrees>-1.32359697483479976654052734375</LongitudeDegrees>
            </Position>
            <AltitudeMeters>10.6000003814697265625</AltitudeMeters>
            <DistanceMeters>NAN</DistanceMeters>
          </Trackpoint>
          <Trackpoint>
            <Time>2022-07-06T12:34:52.000Z</Time>
            <Position>
              <LatitudeDegrees>44.05339588411152362823486328125</LatitudeDegrees>
              <LongitudeDegrees>-1.32353276945650577545166015625</LongitudeDegrees>
            </Position>
            <AltitudeMeters>10.80000019073486328125</AltitudeMeters>
            <DistanceMeters>NAN</DistanceMeters>
          </Trackpoint>
          <Trackpoint>
            <Time>2022-07-06T12:34:54.000Z</Time>
            <Position>
              <LatitudeDegrees>44.05331424437463283538818359375</LatitudeDegrees>
              <LongitudeDegrees>-1.323504857718944549560546875</LongitudeDegrees>
            </Position>
            <AltitudeMeters>11</AltitudeMeters>
            <DistanceMeters>NAN</DistanceMeters>
          </Trackpoint>
          <Trackpoint>
            <Time>2022-07-06T12:34:55.000Z</Time>
            <Position>
              <LatitudeDegrees>44.05327602289617061614990234375</LatitudeDegrees>
              <LongitudeDegrees>-1.32349471561610698699951171875</LongitudeDegrees>
            </Position>
            <AltitudeMeters>11.19999980926513671875</AltitudeMeters>
            <DistanceMeters>NAN</DistanceMeters>
          </Trackpoint>
          <Trackpoint>
            <Time>2022-07-06T12:34:56.000Z</Time>
            <Position>
              <LatitudeDegrees>44.05323713086545467376708984375</LatitudeDegrees>
              <LongitudeDegrees>-1.32348398678004741668701171875</LongitudeDegrees>
            </Position>
            <AltitudeMeters>11.19999980926513671875</AltitudeMeters>
            <DistanceMeters>NAN</DistanceMeters>
          </Trackpoint>
          <Trackpoint>
            <Time>2022-07-06T12:34:57.000Z</Time>
            <Position>
              <LatitudeDegrees>44.0531978197395801544189453125</LatitudeDegrees>
              <LongitudeDegrees>-1.3234704919159412384033203125</LongitudeDegrees>
            </Position>
            <AltitudeMeters>11.19999980926513671875</AltitudeMeters>
            <DistanceMeters>NAN</DistanceMeters>
          </Trackpoint>
          <Trackpoint>
            <Time>2022-07-06T12:34:58.000Z</Time>
            <Position>
              <LatitudeDegrees>44.053156077861785888671875</LatitudeDegrees>
              <LongitudeDegrees>-1.32345263846218585968017578125</LongitudeDegrees>
            </Position>
            <AltitudeMeters>11.19999980926513671875</AltitudeMeters>
            <DistanceMeters>NAN</DistanceMeters>
          </Trackpoint>
          <Trackpoint>
            <Time>2022-07-06T12:35:01.000Z</Time>
            <Position>
              <LatitudeDegrees>44.05304543673992156982421875</LatitudeDegrees>
              <LongitudeDegrees>-1.3234027661383152008056640625</LongitudeDegrees>
            </Position>
            <AltitudeMeters>11.6000003814697265625</AltitudeMeters>
            <DistanceMeters>NAN</DistanceMeters>
          </Trackpoint>
          <Trackpoint>
            <Time>2022-07-06T12:35:03.000Z</Time>
            <Position>
              <LatitudeDegrees>44.05298533849418163299560546875</LatitudeDegrees>
              <LongitudeDegrees>-1.3233880139887332916259765625</LongitudeDegrees>
            </Position>
            <AltitudeMeters>11.80000019073486328125</AltitudeMeters>
            <DistanceMeters>NAN</DistanceMeters>
          </Trackpoint>
          <Trackpoint>
            <Time>2022-07-06T12:35:04.000Z</Time>
            <Position>
              <LatitudeDegrees>44.05294812284409999847412109375</LatitudeDegrees>
              <LongitudeDegrees>-1.32337217219173908233642578125</LongitudeDegrees>
            </Position>
            <AltitudeMeters>12</AltitudeMeters>
            <DistanceMeters>NAN</DistanceMeters>
          </Trackpoint>
          <Trackpoint>
            <Time>2022-07-06T12:35:09.000Z</Time>
            <Position>
              <LatitudeDegrees>44.0528092347085475921630859375</LatitudeDegrees>
              <LongitudeDegrees>-1.32329271174967288970947265625</LongitudeDegrees>
            </Position>
            <AltitudeMeters>12.80000019073486328125</AltitudeMeters>
            <DistanceMeters>NAN</DistanceMeters>
          </Trackpoint>
          <Trackpoint>
            <Time>2022-07-06T12:35:14.000Z</Time>
            <Position>
              <LatitudeDegrees>44.052653498947620391845703125</LatitudeDegrees>
              <LongitudeDegrees>-1.323238648474216461181640625</LongitudeDegrees>
            </Position>
            <AltitudeMeters>13</AltitudeMeters>
            <DistanceMeters>NAN</DistanceMeters>
          </Trackpoint>
          <Trackpoint>
            <Time>2022-07-06T12:35:15.000Z</Time>
            <Position>
              <LatitudeDegrees>44.05262575484812259674072265625</LatitudeDegrees>
              <LongitudeDegrees>-1.32322716526687145233154296875</LongitudeDegrees>
            </Position>
            <AltitudeMeters>13.19999980926513671875</AltitudeMeters>
            <DistanceMeters>NAN</DistanceMeters>
          </Trackpoint>
          <Trackpoint>
            <Time>2022-07-06T12:35:20.000Z</Time>
            <Position>
              <LatitudeDegrees>44.05246700160205364227294921875</LatitudeDegrees>
              <LongitudeDegrees>-1.32318441756069660186767578125</LongitudeDegrees>
            </Position>
            <AltitudeMeters>13.3999996185302734375</AltitudeMeters>
            <DistanceMeters>NAN</DistanceMeters>
          </Trackpoint>
          <Trackpoint>
            <Time>2022-07-06T12:35:24.000Z</Time>
            <Position>
              <LatitudeDegrees>44.05233875848352909088134765625</LatitudeDegrees>
              <LongitudeDegrees>-1.32313546724617481231689453125</LongitudeDegrees>
            </Position>
            <AltitudeMeters>14</AltitudeMeters>
            <DistanceMeters>NAN</DistanceMeters>
          </Trackpoint>
          <Trackpoint>
            <Time>2022-07-06T12:35:25.000Z</Time>
            <Position>
              <LatitudeDegrees>44.0523110143840312957763671875</LatitudeDegrees>
              <LongitudeDegrees>-1.32312121801078319549560546875</LongitudeDegrees>
            </Position>
            <AltitudeMeters>14</AltitudeMeters>
            <DistanceMeters>NAN</DistanceMeters>
          </Trackpoint>
          <Trackpoint>
            <Time>2022-07-06T12:35:30.000Z</Time>
            <Position>
              <LatitudeDegrees>44.0521819330751895904541015625</LatitudeDegrees>
              <LongitudeDegrees>-1.3230705074965953826904296875</LongitudeDegrees>
            </Position>
            <AltitudeMeters>14.6000003814697265625</AltitudeMeters>
            <DistanceMeters>NAN</DistanceMeters>
          </Trackpoint>
          <Trackpoint>
            <Time>2022-07-06T12:35:36.000Z</Time>
            <Position>
              <LatitudeDegrees>44.052002392709255218505859375</LatitudeDegrees>
              <LongitudeDegrees>-1.3230165280401706695556640625</LongitudeDegrees>
            </Position>
            <AltitudeMeters>15.19999980926513671875</AltitudeMeters>
            <DistanceMeters>NAN</DistanceMeters>
          </Trackpoint>
          <Trackpoint>
            <Time>2022-07-06T12:35:37.000Z</Time>
            <Position>
              <LatitudeDegrees>44.0519623272120952606201171875</LatitudeDegrees>
              <LongitudeDegrees>-1.32299180142581462860107421875</LongitudeDegrees>
            </Position>
            <AltitudeMeters>15.19999980926513671875</AltitudeMeters>
            <DistanceMeters>NAN</DistanceMeters>
          </Trackpoint>
          <Trackpoint>
            <Time>2022-07-06T12:35:42.000Z</Time>
            <Position>
              <LatitudeDegrees>44.051783122122287750244140625</LatitudeDegrees>
              <LongitudeDegrees>-1.32291921414434909820556640625</LongitudeDegrees>
            </Position>
            <AltitudeMeters>15.6000003814697265625</AltitudeMeters>
            <DistanceMeters>NAN</DistanceMeters>
          </Trackpoint>
          <Trackpoint>
            <Time>2022-07-06T12:35:48.000Z</Time>
            <Position>
              <LatitudeDegrees>44.05161221511662006378173828125</LatitudeDegrees>
              <LongitudeDegrees>-1.32283925078809261322021484375</LongitudeDegrees>
            </Position>
            <AltitudeMeters>16.200000762939453125</AltitudeMeters>
            <DistanceMeters>NAN</DistanceMeters>
          </Trackpoint>
          <Trackpoint>
            <Time>2022-07-06T12:35:49.000Z</Time>
            <Position>
              <LatitudeDegrees>44.0515888296067714691162109375</LatitudeDegrees>
              <LongitudeDegrees>-1.3228426873683929443359375</LongitudeDegrees>
            </Position>
            <AltitudeMeters>16.3999996185302734375</AltitudeMeters>
            <DistanceMeters>NAN</DistanceMeters>
          </Trackpoint>
          <Trackpoint>
            <Time>2022-07-06T12:35:53.000Z</Time>
            <Position>
              <LatitudeDegrees>44.05149604193866252899169921875</LatitudeDegrees>
              <LongitudeDegrees>-1.32281326688826084136962890625</LongitudeDegrees>
            </Position>
            <AltitudeMeters>16.799999237060546875</AltitudeMeters>
            <DistanceMeters>NAN</DistanceMeters>
          </Trackpoint>
          <Trackpoint>
            <Time>2022-07-06T12:35:56.000Z</Time>
            <Position>
              <LatitudeDegrees>44.051419012248516082763671875</LatitudeDegrees>
              <LongitudeDegrees>-1.32279298268258571624755859375</LongitudeDegrees>
            </Position>
            <AltitudeMeters>17.200000762939453125</AltitudeMeters>
            <DistanceMeters>NAN</DistanceMeters>
          </Trackpoint>
          <Trackpoint>
            <Time>2022-07-06T12:35:57.000Z</Time>
            <Position>
              <LatitudeDegrees>44.05139730311930179595947265625</LatitudeDegrees>
              <LongitudeDegrees>-1.32278812117874622344970703125</LongitudeDegrees>
            </Position>
            <AltitudeMeters>17.200000762939453125</AltitudeMeters>
            <DistanceMeters>NAN</DistanceMeters>
          </Trackpoint>
          <Trackpoint>
            <Time>2022-07-06T12:35:58.000Z</Time>
            <Position>
              <LatitudeDegrees>44.05137098394334316253662109375</LatitudeDegrees>
              <LongitudeDegrees>-1.32278443314135074615478515625</LongitudeDegrees>
            </Position>
            <AltitudeMeters>17.3999996185302734375</AltitudeMeters>
            <DistanceMeters>NAN</DistanceMeters>
          </Trackpoint>
          <Trackpoint>
            <Time>2022-07-06T12:36:03.000Z</Time>
            <Position>
              <LatitudeDegrees>44.0512139908969402313232421875</LatitudeDegrees>
              <LongitudeDegrees>-1.322742439806461334228515625</LongitudeDegrees>
            </Position>
            <AltitudeMeters>17.6000003814697265625</AltitudeMeters>
            <DistanceMeters>NAN</DistanceMeters>
          </Trackpoint>
          <Trackpoint>
            <Time>2022-07-06T12:36:04.000Z</Time>
            <Position>
              <LatitudeDegrees>44.05117853544652462005615234375</LatitudeDegrees>
              <LongitudeDegrees>-1.32273347117006778717041015625</LongitudeDegrees>
            </Position>
            <AltitudeMeters>17.6000003814697265625</AltitudeMeters>
            <DistanceMeters>NAN</DistanceMeters>
          </Trackpoint>
          <Trackpoint>
            <Time>2022-07-06T12:36:06.000Z</Time>
            <Position>
              <LatitudeDegrees>44.05110075138509273529052734375</LatitudeDegrees>
              <LongitudeDegrees>-1.3227188028395175933837890625</LongitudeDegrees>
            </Position>
            <AltitudeMeters>17.6000003814697265625</AltitudeMeters>
            <DistanceMeters>NAN</DistanceMeters>
          </Trackpoint>
          <Trackpoint>
            <Time>2022-07-06T12:36:08.000Z</Time>
            <Position>
              <LatitudeDegrees>44.05101508833467960357666015625</LatitudeDegrees>
              <LongitudeDegrees>-1.3227053917944431304931640625</LongitudeDegrees>
            </Position>
            <AltitudeMeters>17.3999996185302734375</AltitudeMeters>
            <DistanceMeters>NAN</DistanceMeters>
          </Trackpoint>
          <Trackpoint>
            <Time>2022-07-06T12:36:13.000Z</Time>
            <Position>
              <LatitudeDegrees>44.05077821575105190277099609375</LatitudeDegrees>
              <LongitudeDegrees>-1.32266004569828510284423828125</LongitudeDegrees>
            </Position>
            <AltitudeMeters>17</AltitudeMeters>
            <DistanceMeters>NAN</DistanceMeters>
          </Trackpoint>
          <Trackpoint>
            <Time>2022-07-06T12:36:15.000Z</Time>
            <Position>
              <LatitudeDegrees>44.0506862662732601165771484375</LatitudeDegrees>
              <LongitudeDegrees>-1.32263959385454654693603515625</LongitudeDegrees>
            </Position>
            <AltitudeMeters>17</AltitudeMeters>
            <DistanceMeters>NAN</DistanceMeters>
          </Trackpoint>
          <Trackpoint>
            <Time>2022-07-06T12:36:18.000Z</Time>
            <Position>
              <LatitudeDegrees>44.05053581111133098602294921875</LatitudeDegrees>
              <LongitudeDegrees>-1.32261134684085845947265625</LongitudeDegrees>
            </Position>
            <AltitudeMeters>16.6000003814697265625</AltitudeMeters>
            <DistanceMeters>NAN</DistanceMeters>
          </Trackpoint>
          <Trackpoint>
            <Time>2022-07-06T12:36:21.000Z</Time>
            <Position>
              <LatitudeDegrees>44.0503711067140102386474609375</LatitudeDegrees>
              <LongitudeDegrees>-1.3225789926946163177490234375</LongitudeDegrees>
            </Position>
            <AltitudeMeters>16.200000762939453125</AltitudeMeters>
            <DistanceMeters>NAN</DistanceMeters>
          </Trackpoint>
          <Trackpoint>
            <Time>2022-07-06T12:36:24.000Z</Time>
            <Position>
              <LatitudeDegrees>44.0501682646572589874267578125</LatitudeDegrees>
              <LongitudeDegrees>-1.322524845600128173828125</LongitudeDegrees>
            </Position>
            <AltitudeMeters>15.6000003814697265625</AltitudeMeters>
            <DistanceMeters>NAN</DistanceMeters>
          </Trackpoint>
          <Trackpoint>
            <Time>2022-07-06T12:36:27.000Z</Time>
            <Position>
              <LatitudeDegrees>44.04997833073139190673828125</LatitudeDegrees>
              <LongitudeDegrees>-1.32247933186590671539306640625</LongitudeDegrees>
            </Position>
            <AltitudeMeters>15.3999996185302734375</AltitudeMeters>
            <DistanceMeters>NAN</DistanceMeters>
          </Trackpoint>
          <Trackpoint>
            <Time>2022-07-06T12:36:29.000Z</Time>
            <Position>
              <LatitudeDegrees>44.049847237765789031982421875</LatitudeDegrees>
              <LongitudeDegrees>-1.3224613107740879058837890625</LongitudeDegrees>
            </Position>
            <AltitudeMeters>15</AltitudeMeters>
            <DistanceMeters>NAN</DistanceMeters>
          </Trackpoint>
          <Trackpoint>
            <Time>2022-07-06T12:36:32.000Z</Time>
            <Position>
              <LatitudeDegrees>44.04963970184326171875</LatitudeDegrees>
              <LongitudeDegrees>-1.322442032396793365478515625</LongitudeDegrees>
            </Position>
            <AltitudeMeters>14.3999996185302734375</AltitudeMeters>
            <DistanceMeters>NAN</DistanceMeters>
          </Trackpoint>
          <Trackpoint>
            <Time>2022-07-06T12:36:34.000Z</Time>
            <Position>
              <LatitudeDegrees>44.0495104528963565826416015625</LatitudeDegrees>
              <LongitudeDegrees>-1.3224777393043041229248046875</LongitudeDegrees>
            </Position>
            <AltitudeMeters>14</AltitudeMeters>
            <DistanceMeters>NAN</DistanceMeters>
          </Trackpoint>
          <Trackpoint>
            <Time>2022-07-06T12:36:39.000Z</Time>
            <Position>
              <LatitudeDegrees>44.04924868606030941009521484375</LatitudeDegrees>
              <LongitudeDegrees>-1.32261461578309535980224609375</LongitudeDegrees>
            </Position>
            <AltitudeMeters>13</AltitudeMeters>
            <DistanceMeters>NAN</DistanceMeters>
          </Trackpoint>
          <Trackpoint>
            <Time>2022-07-06T12:36:41.000Z</Time>
            <Position>
              <LatitudeDegrees>44.04915195889770984649658203125</LatitudeDegrees>
              <LongitudeDegrees>-1.322668679058551788330078125</LongitudeDegrees>
            </Position>
            <AltitudeMeters>13</AltitudeMeters>
            <DistanceMeters>NAN</DistanceMeters>
          </Trackpoint>
          <Trackpoint>
            <Time>2022-07-06T12:36:45.000Z</Time>
            <Position>
              <LatitudeDegrees>44.04889740049839019775390625</LatitudeDegrees>
              <LongitudeDegrees>-1.322812177240848541259765625</LongitudeDegrees>
            </Position>
            <AltitudeMeters>12.80000019073486328125</AltitudeMeters>
            <DistanceMeters>NAN</DistanceMeters>
          </Trackpoint>
          <Trackpoint>
            <Time>2022-07-06T12:36:47.000Z</Time>
            <Position>
              <LatitudeDegrees>44.04878382571041584014892578125</LatitudeDegrees>
              <LongitudeDegrees>-1.3228830881416797637939453125</LongitudeDegrees>
            </Position>
            <AltitudeMeters>12.80000019073486328125</AltitudeMeters>
            <DistanceMeters>NAN</DistanceMeters>
          </Trackpoint>
          <Trackpoint>
            <Time>2022-07-06T12:36:50.000Z</Time>
            <Position>
              <LatitudeDegrees>44.04863932169973850250244140625</LatitudeDegrees>
              <LongitudeDegrees>-1.3229687511920928955078125</LongitudeDegrees>
            </Position>
            <AltitudeMeters>12.80000019073486328125</AltitudeMeters>
            <DistanceMeters>NAN</DistanceMeters>
          </Trackpoint>
          <Trackpoint>
            <Time>2022-07-06T12:36:56.000Z</Time>
            <Position>
              <LatitudeDegrees>44.048413932323455810546875</LatitudeDegrees>
              <LongitudeDegrees>-1.3231171108782291412353515625</LongitudeDegrees>
            </Position>
            <AltitudeMeters>12.80000019073486328125</AltitudeMeters>
            <DistanceMeters>NAN</DistanceMeters>
          </Trackpoint>
          <Trackpoint>
            <Time>2022-07-06T12:36:58.000Z</Time>
            <Position>
              <LatitudeDegrees>44.04831058345735073089599609375</LatitudeDegrees>
              <LongitudeDegrees>-1.3232009299099445343017578125</LongitudeDegrees>
            </Position>
            <AltitudeMeters>12.80000019073486328125</AltitudeMeters>
            <DistanceMeters>NAN</DistanceMeters>
          </Trackpoint>
          <Trackpoint>
            <Time>2022-07-06T12:37:03.000Z</Time>
            <Position>
              <LatitudeDegrees>44.0480831824243068695068359375</LatitudeDegrees>
              <LongitudeDegrees>-1.3233072124421596527099609375</LongitudeDegrees>
            </Position>
            <AltitudeMeters>12.80000019073486328125</AltitudeMeters>
            <DistanceMeters>NAN</DistanceMeters>
          </Trackpoint>
          <Trackpoint>
            <Time>2022-07-06T12:37:09.000Z</Time>
            <Position>
              <LatitudeDegrees>44.0477482415735721588134765625</LatitudeDegrees>
              <LongitudeDegrees>-1.32348968647420406341552734375</LongitudeDegrees>
            </Position>
            <AltitudeMeters>12.80000019073486328125</AltitudeMeters>
            <DistanceMeters>NAN</DistanceMeters>
          </Trackpoint>
          <Trackpoint>
            <Time>2022-07-06T12:37:11.000Z</Time>
            <Position>
              <LatitudeDegrees>44.0475926734507083892822265625</LatitudeDegrees>
              <LongitudeDegrees>-1.32362010888755321502685546875</LongitudeDegrees>
            </Position>
            <AltitudeMeters>12.6000003814697265625</AltitudeMeters>
            <DistanceMeters>NAN</DistanceMeters>
          </Trackpoint>
          <Trackpoint>
            <Time>2022-07-06T12:37:17.000Z</Time>
            <Position>
              <LatitudeDegrees>44.047320596873760223388671875</LatitudeDegrees>
              <LongitudeDegrees>-1.3237760961055755615234375</LongitudeDegrees>
            </Position>
            <AltitudeMeters>12.6000003814697265625</AltitudeMeters>
            <DistanceMeters>NAN</DistanceMeters>
          </Trackpoint>
          <Trackpoint>
            <Time>2022-07-06T12:37:24.000Z</Time>
            <Position>
              <LatitudeDegrees>44.0470512025058269500732421875</LatitudeDegrees>
              <LongitudeDegrees>-1.323979608714580535888671875</LongitudeDegrees>
            </Position>
            <AltitudeMeters>13.19999980926513671875</AltitudeMeters>
            <DistanceMeters>NAN</DistanceMeters>
          </Trackpoint>
          <Trackpoint>
            <Time>2022-07-06T12:37:25.000Z</Time>
            <Position>
              <LatitudeDegrees>44.047002084553241729736328125</LatitudeDegrees>
              <LongitudeDegrees>-1.32400584407150745391845703125</LongitudeDegrees>
            </Position>
            <AltitudeMeters>13.19999980926513671875</AltitudeMeters>
            <DistanceMeters>NAN</DistanceMeters>
          </Trackpoint>
          <Trackpoint>
            <Time>2022-07-06T12:37:27.000Z</Time>
            <Position>
              <LatitudeDegrees>44.04690795578062534332275390625</LatitudeDegrees>
              <LongitudeDegrees>-1.3240589015185832977294921875</LongitudeDegrees>
            </Position>
            <AltitudeMeters>13</AltitudeMeters>
            <DistanceMeters>NAN</DistanceMeters>
          </Trackpoint>
          <Trackpoint>
            <Time>2022-07-06T12:37:28.000Z</Time>
            <Position>
              <LatitudeDegrees>44.04686051420867443084716796875</LatitudeDegrees>
              <LongitudeDegrees>-1.32408312521874904632568359375</LongitudeDegrees>
            </Position>
            <AltitudeMeters>13</AltitudeMeters>
            <DistanceMeters>NAN</DistanceMeters>
          </Trackpoint>
          <Trackpoint>
            <Time>2022-07-06T12:37:31.000Z</Time>
            <Position>
              <LatitudeDegrees>44.04670997522771358489990234375</LatitudeDegrees>
              <LongitudeDegrees>-1.32416090928018093109130859375</LongitudeDegrees>
            </Position>
            <AltitudeMeters>12.80000019073486328125</AltitudeMeters>
            <DistanceMeters>NAN</DistanceMeters>
          </Trackpoint>
          <Trackpoint>
            <Time>2022-07-06T12:37:34.000Z</Time>
            <Position>
              <LatitudeDegrees>44.04655474238097667694091796875</LatitudeDegrees>
              <LongitudeDegrees>-1.32422679103910923004150390625</LongitudeDegrees>
            </Position>
            <AltitudeMeters>12.6000003814697265625</AltitudeMeters>
            <DistanceMeters>NAN</DistanceMeters>
          </Trackpoint>
          <Trackpoint>
            <Time>2022-07-06T12:37:37.000Z</Time>
            <Position>
              <LatitudeDegrees>44.04639196582138538360595703125</LatitudeDegrees>
              <LongitudeDegrees>-1.32428236305713653564453125</LongitudeDegrees>
            </Position>
            <AltitudeMeters>12.3999996185302734375</AltitudeMeters>
            <DistanceMeters>NAN</DistanceMeters>
          </Trackpoint>
          <Trackpoint>
            <Time>2022-07-06T12:37:46.000Z</Time>
            <Position>
              <LatitudeDegrees>44.0459193103015422821044921875</LatitudeDegrees>
              <LongitudeDegrees>-1.32444824092090129852294921875</LongitudeDegrees>
            </Position>
            <AltitudeMeters>12.6000003814697265625</AltitudeMeters>
            <DistanceMeters>NAN</DistanceMeters>
          </Trackpoint>
          <Trackpoint>
            <Time>2022-07-06T12:37:47.000Z</Time>
            <Position>
              <LatitudeDegrees>44.04586742632091045379638671875</LatitudeDegrees>
              <LongitudeDegrees>-1.3244665972888469696044921875</LongitudeDegrees>
            </Position>
            <AltitudeMeters>12.3999996185302734375</AltitudeMeters>
            <DistanceMeters>NAN</DistanceMeters>
          </Trackpoint>
          <Trackpoint>
            <Time>2022-07-06T12:37:53.000Z</Time>
            <Position>
              <LatitudeDegrees>44.0455652587115764617919921875</LatitudeDegrees>
              <LongitudeDegrees>-1.32457396946847438812255859375</LongitudeDegrees>
            </Position>
            <AltitudeMeters>12</AltitudeMeters>
            <DistanceMeters>NAN</DistanceMeters>
          </Trackpoint>
          <Trackpoint>
            <Time>2022-07-06T12:37:56.000Z</Time>
            <Position>
              <LatitudeDegrees>44.04541321098804473876953125</LatitudeDegrees>
              <LongitudeDegrees>-1.3246278651058673858642578125</LongitudeDegrees>
            </Position>
            <AltitudeMeters>11.80000019073486328125</AltitudeMeters>
            <DistanceMeters>NAN</DistanceMeters>
          </Trackpoint>
          <Trackpoint>
            <Time>2022-07-06T12:37:57.000Z</Time>
            <Position>
              <LatitudeDegrees>44.04536367394030094146728515625</LatitudeDegrees>
              <LongitudeDegrees>-1.32464521564543247222900390625</LongitudeDegrees>
            </Position>
            <AltitudeMeters>11.80000019073486328125</AltitudeMeters>
            <DistanceMeters>NAN</DistanceMeters>
          </Trackpoint>
          <Trackpoint>
            <Time>2022-07-06T12:38:06.000Z</Time>
            <Position>
              <LatitudeDegrees>44.04494055546820163726806640625</LatitudeDegrees>
              <LongitudeDegrees>-1.32479525171220302581787109375</LongitudeDegrees>
            </Position>
            <AltitudeMeters>12</AltitudeMeters>
            <DistanceMeters>NAN</DistanceMeters>
          </Trackpoint>
          <Trackpoint>
            <Time>2022-07-06T12:38:14.000Z</Time>
            <Position>
              <LatitudeDegrees>44.04452179558575153350830078125</LatitudeDegrees>
              <LongitudeDegrees>-1.3249410130083560943603515625</LongitudeDegrees>
            </Position>
            <AltitudeMeters>12</AltitudeMeters>
            <DistanceMeters>NAN</DistanceMeters>
          </Trackpoint>
          <Trackpoint>
            <Time>2022-07-06T12:38:22.000Z</Time>
            <Position>
              <LatitudeDegrees>44.04410454444587230682373046875</LatitudeDegrees>
              <LongitudeDegrees>-1.325065903365612030029296875</LongitudeDegrees>
            </Position>
            <AltitudeMeters>11.80000019073486328125</AltitudeMeters>
            <DistanceMeters>NAN</DistanceMeters>
          </Trackpoint>
          <Trackpoint>
            <Time>2022-07-06T12:38:23.000Z</Time>
            <Position>
              <LatitudeDegrees>44.044055677950382232666015625</LatitudeDegrees>
              <LongitudeDegrees>-1.32508099079132080078125</LongitudeDegrees>
            </Position>
            <AltitudeMeters>12</AltitudeMeters>
            <DistanceMeters>NAN</DistanceMeters>
          </Trackpoint>
          <Trackpoint>
            <Time>2022-07-06T12:38:30.000Z</Time>
            <Position>
              <LatitudeDegrees>44.04371780343353748321533203125</LatitudeDegrees>
              <LongitudeDegrees>-1.32519892416894435882568359375</LongitudeDegrees>
            </Position>
            <AltitudeMeters>12.19999980926513671875</AltitudeMeters>
            <DistanceMeters>NAN</DistanceMeters>
          </Trackpoint>
          <Trackpoint>
            <Time>2022-07-06T12:38:32.000Z</Time>
            <Position>
              <LatitudeDegrees>44.0436193160712718963623046875</LatitudeDegrees>
              <LongitudeDegrees>-1.3252286799252033233642578125</LongitudeDegrees>
            </Position>
            <AltitudeMeters>12.19999980926513671875</AltitudeMeters>
            <DistanceMeters>NAN</DistanceMeters>
          </Trackpoint>
          <Trackpoint>
            <Time>2022-07-06T12:38:36.000Z</Time>
            <Position>
              <LatitudeDegrees>44.043434746563434600830078125</LatitudeDegrees>
              <LongitudeDegrees>-1.325265727937221527099609375</LongitudeDegrees>
            </Position>
            <AltitudeMeters>12.19999980926513671875</AltitudeMeters>
            <DistanceMeters>NAN</DistanceMeters>
          </Trackpoint>
          <Trackpoint>
            <Time>2022-07-06T12:38:38.000Z</Time>
            <Position>
              <LatitudeDegrees>44.04334028251469135284423828125</LatitudeDegrees>
              <LongitudeDegrees>-1.32527754642069339752197265625</LongitudeDegrees>
            </Position>
            <AltitudeMeters>12.3999996185302734375</AltitudeMeters>
            <DistanceMeters>NAN</DistanceMeters>
          </Trackpoint>
          <Trackpoint>
            <Time>2022-07-06T12:38:41.000Z</Time>
            <Position>
              <LatitudeDegrees>44.0431770868599414825439453125</LatitudeDegrees>
              <LongitudeDegrees>-1.32531777955591678619384765625</LongitudeDegrees>
            </Position>
            <AltitudeMeters>12.6000003814697265625</AltitudeMeters>
            <DistanceMeters>NAN</DistanceMeters>
          </Trackpoint>
          <Trackpoint>
            <Time>2022-07-06T12:38:42.000Z</Time>
            <Position>
              <LatitudeDegrees>44.0431221015751361846923828125</LatitudeDegrees>
              <LongitudeDegrees>-1.32533739320933818817138671875</LongitudeDegrees>
            </Position>
            <AltitudeMeters>12.80000019073486328125</AltitudeMeters>
            <DistanceMeters>NAN</DistanceMeters>
          </Trackpoint>
          <Trackpoint>
            <Time>2022-07-06T12:38:46.000Z</Time>
            <Position>
              <LatitudeDegrees>44.0429165773093700408935546875</LatitudeDegrees>
              <LongitudeDegrees>-1.32541014812886714935302734375</LongitudeDegrees>
            </Position>
            <AltitudeMeters>12.80000019073486328125</AltitudeMeters>
            <DistanceMeters>NAN</DistanceMeters>
          </Trackpoint>
          <Trackpoint>
            <Time>2022-07-06T12:38:48.000Z</Time>
            <Position>
              <LatitudeDegrees>44.0428193472325801849365234375</LatitudeDegrees>
              <LongitudeDegrees>-1.325443089008331298828125</LongitudeDegrees>
            </Position>
            <AltitudeMeters>12.80000019073486328125</AltitudeMeters>
            <DistanceMeters>NAN</DistanceMeters>
          </Trackpoint>
          <Trackpoint>
            <Time>2022-07-06T12:38:49.000Z</Time>
            <Position>
              <LatitudeDegrees>44.0427730791270732879638671875</LatitudeDegrees>
              <LongitudeDegrees>-1.325466893613338470458984375</LongitudeDegrees>
            </Position>
            <AltitudeMeters>12.80000019073486328125</AltitudeMeters>
            <DistanceMeters>NAN</DistanceMeters>
          </Trackpoint>
          <Trackpoint>
            <Time>2022-07-06T12:38:52.000Z</Time>
            <Position>
              <LatitudeDegrees>44.04262103140354156494140625</LatitudeDegrees>
              <LongitudeDegrees>-1.32551844231784343719482421875</LongitudeDegrees>
            </Position>
            <AltitudeMeters>13</AltitudeMeters>
            <DistanceMeters>NAN</DistanceMeters>
          </Trackpoint>
          <Trackpoint>
            <Time>2022-07-06T12:38:56.000Z</Time>
            <Position>
              <LatitudeDegrees>44.0424287505447864532470703125</LatitudeDegrees>
              <LongitudeDegrees>-1.3255699910223484039306640625</LongitudeDegrees>
            </Position>
            <AltitudeMeters>13</AltitudeMeters>
            <DistanceMeters>NAN</DistanceMeters>
          </Trackpoint>
          <Trackpoint>
            <Time>2022-07-06T12:39:03.000Z</Time>
            <Position>
              <LatitudeDegrees>44.04207788407802581787109375</LatitudeDegrees>
              <LongitudeDegrees>-1.32568289525806903839111328125</LongitudeDegrees>
            </Position>
            <AltitudeMeters>12.80000019073486328125</AltitudeMeters>
            <DistanceMeters>NAN</DistanceMeters>
          </Trackpoint>
          <Trackpoint>
            <Time>2022-07-06T12:39:10.000Z</Time>
            <Position>
              <LatitudeDegrees>44.04171603731811046600341796875</LatitudeDegrees>
              <LongitudeDegrees>-1.32578381337225437164306640625</LongitudeDegrees>
            </Position>
            <AltitudeMeters>12.80000019073486328125</AltitudeMeters>
            <DistanceMeters>NAN</DistanceMeters>
          </Trackpoint>
          <Trackpoint>
            <Time>2022-07-06T12:39:11.000Z</Time>
            <Position>
              <LatitudeDegrees>44.0416668355464935302734375</LatitudeDegrees>
              <LongitudeDegrees>-1.3257976435124874114990234375</LongitudeDegrees>
            </Position>
            <AltitudeMeters>12.80000019073486328125</AltitudeMeters>
            <DistanceMeters>NAN</DistanceMeters>
          </Trackpoint>
          <Trackpoint>
            <Time>2022-07-06T12:39:19.000Z</Time>
            <Position>
              <LatitudeDegrees>44.041271544992923736572265625</LatitudeDegrees>
              <LongitudeDegrees>-1.32587769068777561187744140625</LongitudeDegrees>
            </Position>
            <AltitudeMeters>13</AltitudeMeters>
            <DistanceMeters>NAN</DistanceMeters>
          </Trackpoint>
          <Trackpoint>
            <Time>2022-07-06T12:39:20.000Z</Time>
            <Position>
              <LatitudeDegrees>44.04122292995452880859375</LatitudeDegrees>
              <LongitudeDegrees>-1.32588364183902740478515625</LongitudeDegrees>
            </Position>
            <AltitudeMeters>13</AltitudeMeters>
            <DistanceMeters>NAN</DistanceMeters>
          </Trackpoint>
          <Trackpoint>
            <Time>2022-07-06T12:39:22.000Z</Time>
            <Position>
              <LatitudeDegrees>44.0411218442022800445556640625</LatitudeDegrees>
              <LongitudeDegrees>-1.3258982263505458831787109375</LongitudeDegrees>
            </Position>
            <AltitudeMeters>13</AltitudeMeters>
            <DistanceMeters>NAN</DistanceMeters>
          </Trackpoint>
          <Trackpoint>
            <Time>2022-07-06T12:39:24.000Z</Time>
            <Position>
              <LatitudeDegrees>44.04103173874318599700927734375</LatitudeDegrees>
              <LongitudeDegrees>-1.3259334303438663482666015625</LongitudeDegrees>
            </Position>
            <AltitudeMeters>13</AltitudeMeters>
            <DistanceMeters>NAN</DistanceMeters>
          </Trackpoint>
          <Trackpoint>
            <Time>2022-07-06T12:39:25.000Z</Time>
            <Position>
              <LatitudeDegrees>44.04098882339894771575927734375</LatitudeDegrees>
              <LongitudeDegrees>-1.325953714549541473388671875</LongitudeDegrees>
            </Position>
            <AltitudeMeters>13</AltitudeMeters>
            <DistanceMeters>NAN</DistanceMeters>
          </Trackpoint>
          <Trackpoint>
            <Time>2022-07-06T12:39:29.000Z</Time>
            <Position>
              <LatitudeDegrees>44.04082487337291240692138671875</LatitudeDegrees>
              <LongitudeDegrees>-1.32602890022099018096923828125</LongitudeDegrees>
            </Position>
            <AltitudeMeters>13.3999996185302734375</AltitudeMeters>
            <DistanceMeters>NAN</DistanceMeters>
          </Trackpoint>
          <Trackpoint>
            <Time>2022-07-06T12:39:33.000Z</Time>
            <Position>
              <LatitudeDegrees>44.0407007373869419097900390625</LatitudeDegrees>
              <LongitudeDegrees>-1.326054632663726806640625</LongitudeDegrees>
            </Position>
            <AltitudeMeters>13.3999996185302734375</AltitudeMeters>
            <DistanceMeters>NAN</DistanceMeters>
          </Trackpoint>
          <Trackpoint>
            <Time>2022-07-06T12:39:38.000Z</Time>
            <Position>
              <LatitudeDegrees>44.040513150393962860107421875</LatitudeDegrees>
              <LongitudeDegrees>-1.32611070759594440460205078125</LongitudeDegrees>
            </Position>
            <AltitudeMeters>13.19999980926513671875</AltitudeMeters>
            <DistanceMeters>NAN</DistanceMeters>
          </Trackpoint>
          <Trackpoint>
            <Time>2022-07-06T12:39:44.000Z</Time>
            <Position>
              <LatitudeDegrees>44.0401877649128437042236328125</LatitudeDegrees>
              <LongitudeDegrees>-1.32624884136021137237548828125</LongitudeDegrees>
            </Position>
            <AltitudeMeters>13</AltitudeMeters>
            <DistanceMeters>NAN</DistanceMeters>
          </Trackpoint>
          <Trackpoint>
            <Time>2022-07-06T12:39:47.000Z</Time>
            <Position>
              <LatitudeDegrees>44.0400556661188602447509765625</LatitudeDegrees>
              <LongitudeDegrees>-1.32630583830177783966064453125</LongitudeDegrees>
            </Position>
            <AltitudeMeters>13</AltitudeMeters>
            <DistanceMeters>NAN</DistanceMeters>
          </Trackpoint>
          <Trackpoint>
            <Time>2022-07-06T12:39:50.000Z</Time>
            <Position>
              <LatitudeDegrees>44.03992197476327419281005859375</LatitudeDegrees>
              <LongitudeDegrees>-1.326367445290088653564453125</LongitudeDegrees>
            </Position>
            <AltitudeMeters>12.80000019073486328125</AltitudeMeters>
            <DistanceMeters>NAN</DistanceMeters>
          </Trackpoint>
          <Trackpoint>
            <Time>2022-07-06T12:39:59.000Z</Time>
            <Position>
              <LatitudeDegrees>44.03954244218766689300537109375</LatitudeDegrees>
              <LongitudeDegrees>-1.3264356739819049835205078125</LongitudeDegrees>
            </Position>
            <AltitudeMeters>13.80000019073486328125</AltitudeMeters>
            <DistanceMeters>NAN</DistanceMeters>
          </Trackpoint>
          <Trackpoint>
            <Time>2022-07-06T12:40:00.000Z</Time>
            <Position>
              <LatitudeDegrees>44.03949852101504802703857421875</LatitudeDegrees>
              <LongitudeDegrees>-1.3264457322657108306884765625</LongitudeDegrees>
            </Position>
            <AltitudeMeters>14</AltitudeMeters>
            <DistanceMeters>NAN</DistanceMeters>
          </Trackpoint>
          <Trackpoint>
            <Time>2022-07-06T12:40:07.000Z</Time>
            <Position>
              <LatitudeDegrees>44.03922409750521183013916015625</LatitudeDegrees>
              <LongitudeDegrees>-1.326555199921131134033203125</LongitudeDegrees>
            </Position>
            <AltitudeMeters>14.6000003814697265625</AltitudeMeters>
            <DistanceMeters>NAN</DistanceMeters>
          </Trackpoint>
          <Trackpoint>
            <Time>2022-07-06T12:40:16.000Z</Time>
            <Position>
              <LatitudeDegrees>44.038870967924594879150390625</LatitudeDegrees>
              <LongitudeDegrees>-1.3266562856733798980712890625</LongitudeDegrees>
            </Position>
            <AltitudeMeters>13.80000019073486328125</AltitudeMeters>
            <DistanceMeters>NAN</DistanceMeters>
          </Trackpoint>
          <Trackpoint>
            <Time>2022-07-06T12:40:23.000Z</Time>
            <Position>
              <LatitudeDegrees>44.03856754302978515625</LatitudeDegrees>
              <LongitudeDegrees>-1.32683004252612590789794921875</LongitudeDegrees>
            </Position>
            <AltitudeMeters>13.19999980926513671875</AltitudeMeters>
            <DistanceMeters>NAN</DistanceMeters>
          </Trackpoint>
          <Trackpoint>
            <Time>2022-07-06T12:40:27.000Z</Time>
            <Position>
              <LatitudeDegrees>44.0384114719927310943603515625</LatitudeDegrees>
              <LongitudeDegrees>-1.32693431340157985687255859375</LongitudeDegrees>
            </Position>
            <AltitudeMeters>13</AltitudeMeters>
            <DistanceMeters>NAN</DistanceMeters>
          </Trackpoint>
          <Trackpoint>
            <Time>2022-07-06T12:40:28.000Z</Time>
            <Position>
              <LatitudeDegrees>44.03836914338171482086181640625</LatitudeDegrees>
              <LongitudeDegrees>-1.32695442996919155120849609375</LongitudeDegrees>
            </Position>
            <AltitudeMeters>13</AltitudeMeters>
            <DistanceMeters>NAN</DistanceMeters>
          </Trackpoint>
          <Trackpoint>
            <Time>2022-07-06T12:40:31.000Z</Time>
            <Position>
              <LatitudeDegrees>44.038232602179050445556640625</LatitudeDegrees>
              <LongitudeDegrees>-1.327040009200572967529296875</LongitudeDegrees>
            </Position>
            <AltitudeMeters>13</AltitudeMeters>
            <DistanceMeters>NAN</DistanceMeters>
          </Trackpoint>
          <Trackpoint>
            <Time>2022-07-06T12:40:38.000Z</Time>
            <Position>
              <LatitudeDegrees>44.0379036962985992431640625</LatitudeDegrees>
              <LongitudeDegrees>-1.32725567556917667388916015625</LongitudeDegrees>
            </Position>
            <AltitudeMeters>12.6000003814697265625</AltitudeMeters>
            <DistanceMeters>NAN</DistanceMeters>
          </Trackpoint>
          <Trackpoint>
            <Time>2022-07-06T12:40:39.000Z</Time>
            <Position>
              <LatitudeDegrees>44.03784158639609813690185546875</LatitudeDegrees>
              <LongitudeDegrees>-1.32729859091341495513916015625</LongitudeDegrees>
            </Position>
            <AltitudeMeters>12.3999996185302734375</AltitudeMeters>
            <DistanceMeters>NAN</DistanceMeters>
          </Trackpoint>
          <Trackpoint>
            <Time>2022-07-06T12:40:44.000Z</Time>
            <Position>
              <LatitudeDegrees>44.0376081503927707672119140625</LatitudeDegrees>
              <LongitudeDegrees>-1.3274855911731719970703125</LongitudeDegrees>
            </Position>
            <AltitudeMeters>12.19999980926513671875</AltitudeMeters>
            <DistanceMeters>NAN</DistanceMeters>
          </Trackpoint>
          <Trackpoint>
            <Time>2022-07-06T12:40:48.000Z</Time>
            <Position>
              <LatitudeDegrees>44.037444032728672027587890625</LatitudeDegrees>
              <LongitudeDegrees>-1.32763822562992572784423828125</LongitudeDegrees>
            </Position>
            <AltitudeMeters>12</AltitudeMeters>
            <DistanceMeters>NAN</DistanceMeters>
          </Trackpoint>
          <Trackpoint>
            <Time>2022-07-06T12:40:51.000Z</Time>
            <Position>
              <LatitudeDegrees>44.03732878156006336212158203125</LatitudeDegrees>
              <LongitudeDegrees>-1.32778926752507686614990234375</LongitudeDegrees>
            </Position>
            <AltitudeMeters>11.80000019073486328125</AltitudeMeters>
            <DistanceMeters>NAN</DistanceMeters>
          </Trackpoint>
          <Trackpoint>
            <Time>2022-07-06T12:40:58.000Z</Time>
            <Position>
              <LatitudeDegrees>44.0371106006205081939697265625</LatitudeDegrees>
              <LongitudeDegrees>-1.32809638045728206634521484375</LongitudeDegrees>
            </Position>
            <AltitudeMeters>11.80000019073486328125</AltitudeMeters>
            <DistanceMeters>NAN</DistanceMeters>
          </Trackpoint>
          <Trackpoint>
            <Time>2022-07-06T12:41:02.000Z</Time>
            <Position>
              <LatitudeDegrees>44.03699970804154872894287109375</LatitudeDegrees>
              <LongitudeDegrees>-1.32822244428098201751708984375</LongitudeDegrees>
            </Position>
            <AltitudeMeters>12.19999980926513671875</AltitudeMeters>
            <DistanceMeters>NAN</DistanceMeters>
          </Trackpoint>
          <Trackpoint>
            <Time>2022-07-06T12:41:03.000Z</Time>
            <Position>
              <LatitudeDegrees>44.0369689464569091796875</LatitudeDegrees>
              <LongitudeDegrees>-1.32825999520719051361083984375</LongitudeDegrees>
            </Position>
            <AltitudeMeters>12.3999996185302734375</AltitudeMeters>
            <DistanceMeters>NAN</DistanceMeters>
          </Trackpoint>
          <Trackpoint>
            <Time>2022-07-06T12:41:05.000Z</Time>
            <Position>
              <LatitudeDegrees>44.03692058287560939788818359375</LatitudeDegrees>
              <LongitudeDegrees>-1.328314058482646942138671875</LongitudeDegrees>
            </Position>
            <AltitudeMeters>12.6000003814697265625</AltitudeMeters>
            <DistanceMeters>NAN</DistanceMeters>
          </Trackpoint>
          <Trackpoint>
            <Time>2022-07-06T12:41:08.000Z</Time>
            <Position>
              <LatitudeDegrees>44.03684112243354320526123046875</LatitudeDegrees>
              <LongitudeDegrees>-1.32839125581085681915283203125</LongitudeDegrees>
            </Position>
            <AltitudeMeters>13</AltitudeMeters>
            <DistanceMeters>NAN</DistanceMeters>
          </Trackpoint>
          <Trackpoint>
            <Time>2022-07-06T12:41:12.000Z</Time>
            <Position>
              <LatitudeDegrees>44.036716483533382415771484375</LatitudeDegrees>
              <LongitudeDegrees>-1.32850038819015026092529296875</LongitudeDegrees>
            </Position>
            <AltitudeMeters>13.19999980926513671875</AltitudeMeters>
            <DistanceMeters>NAN</DistanceMeters>
          </Trackpoint>
          <Trackpoint>
            <Time>2022-07-06T12:41:18.000Z</Time>
            <Position>
              <LatitudeDegrees>44.0364501066505908966064453125</LatitudeDegrees>
              <LongitudeDegrees>-1.32868445478379726409912109375</LongitudeDegrees>
            </Position>
            <AltitudeMeters>13</AltitudeMeters>
            <DistanceMeters>NAN</DistanceMeters>
          </Trackpoint>
          <Trackpoint>
            <Time>2022-07-06T12:41:24.000Z</Time>
            <Position>
              <LatitudeDegrees>44.03619043529033660888671875</LatitudeDegrees>
              <LongitudeDegrees>-1.3287249393761157989501953125</LongitudeDegrees>
            </Position>
            <AltitudeMeters>13</AltitudeMeters>
            <DistanceMeters>NAN</DistanceMeters>
          </Trackpoint>
          <Trackpoint>
            <Time>2022-07-06T12:41:29.000Z</Time>
            <Position>
              <LatitudeDegrees>44.035970158874988555908203125</LatitudeDegrees>
              <LongitudeDegrees>-1.32877866737544536590576171875</LongitudeDegrees>
            </Position>
            <AltitudeMeters>13.3999996185302734375</AltitudeMeters>
            <DistanceMeters>NAN</DistanceMeters>
          </Trackpoint>
          <Trackpoint>
            <Time>2022-07-06T12:41:35.000Z</Time>
            <Position>
              <LatitudeDegrees>44.03585574589669704437255859375</LatitudeDegrees>
              <LongitudeDegrees>-1.3288456387817859649658203125</LongitudeDegrees>
            </Position>
            <AltitudeMeters>13.80000019073486328125</AltitudeMeters>
            <DistanceMeters>NAN</DistanceMeters>
          </Trackpoint>
          <Trackpoint>
            <Time>2022-07-06T12:41:38.000Z</Time>
            <Position>
              <LatitudeDegrees>44.0358491241931915283203125</LatitudeDegrees>
              <LongitudeDegrees>-1.32886634208261966705322265625</LongitudeDegrees>
            </Position>
            <AltitudeMeters>14</AltitudeMeters>
            <DistanceMeters>NAN</DistanceMeters>
          </Trackpoint>
          <Trackpoint>
            <Time>2022-07-06T12:41:39.000Z</Time>
            <Position>
              <LatitudeDegrees>44.0358491241931915283203125</LatitudeDegrees>
              <LongitudeDegrees>-1.32886634208261966705322265625</LongitudeDegrees>
            </Position>
            <AltitudeMeters>14.19999980926513671875</AltitudeMeters>
            <DistanceMeters>NAN</DistanceMeters>
          </Trackpoint>
          <Trackpoint>
            <Time>2022-07-06T12:44:17.000Z</Time>
            <Position>
              <LatitudeDegrees>44.03570520691573619842529296875</LatitudeDegrees>
              <LongitudeDegrees>-1.32892585359513759613037109375</LongitudeDegrees>
            </Position>
            <AltitudeMeters>13.6000003814697265625</AltitudeMeters>
            <DistanceMeters>NAN</DistanceMeters>
          </Trackpoint>
          <Trackpoint>
            <Time>2022-07-06T12:44:23.000Z</Time>
            <Position>
              <LatitudeDegrees>44.03558769263327121734619140625</LatitudeDegrees>
              <LongitudeDegrees>-1.32903448306024074554443359375</LongitudeDegrees>
            </Position>
            <AltitudeMeters>13</AltitudeMeters>
            <DistanceMeters>NAN</DistanceMeters>
          </Trackpoint>
          <Trackpoint>
            <Time>2022-07-06T12:44:24.000Z</Time>
            <Position>
              <LatitudeDegrees>44.0355515666306018829345703125</LatitudeDegrees>
              <LongitudeDegrees>-1.329052336513996124267578125</LongitudeDegrees>
            </Position>
            <AltitudeMeters>13</AltitudeMeters>
            <DistanceMeters>NAN</DistanceMeters>
          </Trackpoint>
          <Trackpoint>
            <Time>2022-07-06T12:44:28.000Z</Time>
            <Position>
              <LatitudeDegrees>44.03538501821458339691162109375</LatitudeDegrees>
              <LongitudeDegrees>-1.3290868699550628662109375</LongitudeDegrees>
            </Position>
            <AltitudeMeters>12.6000003814697265625</AltitudeMeters>
            <DistanceMeters>NAN</DistanceMeters>
          </Trackpoint>
          <Trackpoint>
            <Time>2022-07-06T12:44:31.000Z</Time>
            <Position>
              <LatitudeDegrees>44.03530522249639034271240234375</LatitudeDegrees>
              <LongitudeDegrees>-1.329105310142040252685546875</LongitudeDegrees>
            </Position>
            <AltitudeMeters>12</AltitudeMeters>
            <DistanceMeters>NAN</DistanceMeters>
          </Trackpoint>
          <Trackpoint>
            <Time>2022-07-06T12:44:32.000Z</Time>
            <Position>
              <LatitudeDegrees>44.0353017859160900115966796875</LatitudeDegrees>
              <LongitudeDegrees>-1.32910505868494510650634765625</LongitudeDegrees>
            </Position>
            <AltitudeMeters>12</AltitudeMeters>
            <DistanceMeters>NAN</DistanceMeters>
          </Trackpoint>
          <Trackpoint>
            <Time>2022-07-06T12:44:33.000Z</Time>
            <Position>
              <LatitudeDegrees>44.0353017859160900115966796875</LatitudeDegrees>
              <LongitudeDegrees>-1.32910505868494510650634765625</LongitudeDegrees>
            </Position>
            <AltitudeMeters>11.80000019073486328125</AltitudeMeters>
            <DistanceMeters>NAN</DistanceMeters>
          </Trackpoint>
          <Trackpoint>
            <Time>2022-07-06T12:44:36.000Z</Time>
            <Position>
              <LatitudeDegrees>44.035299606621265411376953125</LatitudeDegrees>
              <LongitudeDegrees>-1.32910405285656452178955078125</LongitudeDegrees>
            </Position>
            <AltitudeMeters>11.6000003814697265625</AltitudeMeters>
            <DistanceMeters>NAN</DistanceMeters>
          </Trackpoint>
          <Trackpoint>
            <Time>2022-07-06T12:44:53.000Z</Time>
            <Position>
              <LatitudeDegrees>44.0352303721010684967041015625</LatitudeDegrees>
              <LongitudeDegrees>-1.329071111977100372314453125</LongitudeDegrees>
            </Position>
            <AltitudeMeters>11.3999996185302734375</AltitudeMeters>
            <DistanceMeters>NAN</DistanceMeters>
          </Trackpoint>
          <Trackpoint>
            <Time>2022-07-06T12:44:55.000Z</Time>
            <Position>
              <LatitudeDegrees>44.03517211787402629852294921875</LatitudeDegrees>
              <LongitudeDegrees>-1.32905292324721813201904296875</LongitudeDegrees>
            </Position>
            <AltitudeMeters>11.3999996185302734375</AltitudeMeters>
            <DistanceMeters>NAN</DistanceMeters>
          </Trackpoint>
          <Trackpoint>
            <Time>2022-07-06T12:45:00.000Z</Time>
            <Position>
              <LatitudeDegrees>44.0350090898573398590087890625</LatitudeDegrees>
              <LongitudeDegrees>-1.32898268289864063262939453125</LongitudeDegrees>
            </Position>
            <AltitudeMeters>11.3999996185302734375</AltitudeMeters>
            <DistanceMeters>NAN</DistanceMeters>
          </Trackpoint>
          <Trackpoint>
            <Time>2022-07-06T12:45:04.000Z</Time>
            <Position>
              <LatitudeDegrees>44.03493088670074939727783203125</LatitudeDegrees>
              <LongitudeDegrees>-1.3288409449160099029541015625</LongitudeDegrees>
            </Position>
            <AltitudeMeters>12</AltitudeMeters>
            <DistanceMeters>NAN</DistanceMeters>
          </Trackpoint>
          <Trackpoint>
            <Time>2022-07-06T12:45:07.000Z</Time>
            <Position>
              <LatitudeDegrees>44.0348602272570133209228515625</LatitudeDegrees>
              <LongitudeDegrees>-1.32870658300817012786865234375</LongitudeDegrees>
            </Position>
            <AltitudeMeters>12</AltitudeMeters>
            <DistanceMeters>NAN</DistanceMeters>
          </Trackpoint>
          <Trackpoint>
            <Time>2022-07-06T12:45:12.000Z</Time>
            <Position>
              <LatitudeDegrees>44.0347281284630298614501953125</LatitudeDegrees>
              <LongitudeDegrees>-1.32850675843656063079833984375</LongitudeDegrees>
            </Position>
            <AltitudeMeters>12.19999980926513671875</AltitudeMeters>
            <DistanceMeters>NAN</DistanceMeters>
          </Trackpoint>
          <Trackpoint>
            <Time>2022-07-06T12:45:14.000Z</Time>
            <Position>
              <LatitudeDegrees>44.034682027995586395263671875</LatitudeDegrees>
              <LongitudeDegrees>-1.328441798686981201171875</LongitudeDegrees>
            </Position>
            <AltitudeMeters>12.3999996185302734375</AltitudeMeters>
            <DistanceMeters>NAN</DistanceMeters>
          </Trackpoint>
          <Trackpoint>
            <Time>2022-07-06T12:45:16.000Z</Time>
            <Position>
              <LatitudeDegrees>44.034626372158527374267578125</LatitudeDegrees>
              <LongitudeDegrees>-1.328381113708019256591796875</LongitudeDegrees>
            </Position>
            <AltitudeMeters>12.3999996185302734375</AltitudeMeters>
            <DistanceMeters>NAN</DistanceMeters>
          </Trackpoint>
          <Trackpoint>
            <Time>2022-07-06T12:45:19.000Z</Time>
            <Position>
              <LatitudeDegrees>44.03456761501729488372802734375</LatitudeDegrees>
              <LongitudeDegrees>-1.32828195579349994659423828125</LongitudeDegrees>
            </Position>
            <AltitudeMeters>12.6000003814697265625</AltitudeMeters>
            <DistanceMeters>NAN</DistanceMeters>
          </Trackpoint>
          <Trackpoint>
            <Time>2022-07-06T12:45:20.000Z</Time>
            <Position>
              <LatitudeDegrees>44.0345400385558605194091796875</LatitudeDegrees>
              <LongitudeDegrees>-1.3282505236566066741943359375</LongitudeDegrees>
            </Position>
            <AltitudeMeters>12.6000003814697265625</AltitudeMeters>
            <DistanceMeters>NAN</DistanceMeters>
          </Trackpoint>
          <Trackpoint>
            <Time>2022-07-06T12:45:21.000Z</Time>
            <Position>
              <LatitudeDegrees>44.0345098637044429779052734375</LatitudeDegrees>
              <LongitudeDegrees>-1.32822948507964611053466796875</LongitudeDegrees>
            </Position>
            <AltitudeMeters>12.6000003814697265625</AltitudeMeters>
            <DistanceMeters>NAN</DistanceMeters>
          </Trackpoint>
          <Trackpoint>
            <Time>2022-07-06T12:45:22.000Z</Time>
            <Position>
              <LatitudeDegrees>44.0344817005097866058349609375</LatitudeDegrees>
              <LongitudeDegrees>-1.3282126374542713165283203125</LongitudeDegrees>
            </Position>
            <AltitudeMeters>12.6000003814697265625</AltitudeMeters>
            <DistanceMeters>NAN</DistanceMeters>
          </Trackpoint>
          <Trackpoint>
            <Time>2022-07-06T12:45:25.000Z</Time>
            <Position>
              <LatitudeDegrees>44.0344304032623767852783203125</LatitudeDegrees>
              <LongitudeDegrees>-1.32820383645594120025634765625</LongitudeDegrees>
            </Position>
            <AltitudeMeters>12.80000019073486328125</AltitudeMeters>
            <DistanceMeters>NAN</DistanceMeters>
          </Trackpoint>
          <Trackpoint>
            <Time>2022-07-06T12:45:31.000Z</Time>
            <Position>
              <LatitudeDegrees>44.03424323536455631256103515625</LatitudeDegrees>
              <LongitudeDegrees>-1.3282392919063568115234375</LongitudeDegrees>
            </Position>
            <AltitudeMeters>12.80000019073486328125</AltitudeMeters>
            <DistanceMeters>NAN</DistanceMeters>
          </Trackpoint>
          <Trackpoint>
            <Time>2022-07-06T12:45:35.000Z</Time>
            <Position>
              <LatitudeDegrees>44.03408397920429706573486328125</LatitudeDegrees>
              <LongitudeDegrees>-1.32822562940418720245361328125</LongitudeDegrees>
            </Position>
            <AltitudeMeters>12.80000019073486328125</AltitudeMeters>
            <DistanceMeters>NAN</DistanceMeters>
          </Trackpoint>
          <Trackpoint>
            <Time>2022-07-06T12:45:36.000Z</Time>
            <Position>
              <LatitudeDegrees>44.03405112214386463165283203125</LatitudeDegrees>
              <LongitudeDegrees>-1.32822680287063121795654296875</LongitudeDegrees>
            </Position>
            <AltitudeMeters>12.6000003814697265625</AltitudeMeters>
            <DistanceMeters>NAN</DistanceMeters>
          </Trackpoint>
          <Trackpoint>
            <Time>2022-07-06T12:45:37.000Z</Time>
            <Position>
              <LatitudeDegrees>44.0340106375515460968017578125</LatitudeDegrees>
              <LongitudeDegrees>-1.32822898216545581817626953125</LongitudeDegrees>
            </Position>
            <AltitudeMeters>12.6000003814697265625</AltitudeMeters>
            <DistanceMeters>NAN</DistanceMeters>
          </Trackpoint>
          <Trackpoint>
            <Time>2022-07-06T12:45:43.000Z</Time>
            <Position>
              <LatitudeDegrees>44.03378189541399478912353515625</LatitudeDegrees>
              <LongitudeDegrees>-1.32821590639650821685791015625</LongitudeDegrees>
            </Position>
            <AltitudeMeters>12.80000019073486328125</AltitudeMeters>
            <DistanceMeters>NAN</DistanceMeters>
          </Trackpoint>
          <Trackpoint>
            <Time>2022-07-06T12:45:44.000Z</Time>
            <Position>
              <LatitudeDegrees>44.03374434448778629302978515625</LatitudeDegrees>
              <LongitudeDegrees>-1.3282203488051891326904296875</LongitudeDegrees>
            </Position>
            <AltitudeMeters>13</AltitudeMeters>
            <DistanceMeters>NAN</DistanceMeters>
          </Trackpoint>
          <Trackpoint>
            <Time>2022-07-06T12:45:51.000Z</Time>
            <Position>
              <LatitudeDegrees>44.0334661491215229034423828125</LatitudeDegrees>
              <LongitudeDegrees>-1.32822789251804351806640625</LongitudeDegrees>
            </Position>
            <AltitudeMeters>13.6000003814697265625</AltitudeMeters>
            <DistanceMeters>NAN</DistanceMeters>
          </Trackpoint>
          <Trackpoint>
            <Time>2022-07-06T12:45:59.000Z</Time>
            <Position>
              <LatitudeDegrees>44.03308711946010589599609375</LatitudeDegrees>
              <LongitudeDegrees>-1.3282312452793121337890625</LongitudeDegrees>
            </Position>
            <AltitudeMeters>13.19999980926513671875</AltitudeMeters>
            <DistanceMeters>NAN</DistanceMeters>
          </Trackpoint>
          <Trackpoint>
            <Time>2022-07-06T12:46:08.000Z</Time>
            <Position>
              <LatitudeDegrees>44.03267347253859043121337890625</LatitudeDegrees>
              <LongitudeDegrees>-1.32823216728866100311279296875</LongitudeDegrees>
            </Position>
            <AltitudeMeters>13.3999996185302734375</AltitudeMeters>
            <DistanceMeters>NAN</DistanceMeters>
          </Trackpoint>
          <Trackpoint>
            <Time>2022-07-06T12:46:17.000Z</Time>
            <Position>
              <LatitudeDegrees>44.03232134878635406494140625</LatitudeDegrees>
              <LongitudeDegrees>-1.32822789251804351806640625</LongitudeDegrees>
            </Position>
            <AltitudeMeters>14</AltitudeMeters>
            <DistanceMeters>NAN</DistanceMeters>
          </Trackpoint>
          <Trackpoint>
            <Time>2022-07-06T12:46:22.000Z</Time>
            <Position>
              <LatitudeDegrees>44.032070897519588470458984375</LatitudeDegrees>
              <LongitudeDegrees>-1.3282086141407489776611328125</LongitudeDegrees>
            </Position>
            <AltitudeMeters>13.6000003814697265625</AltitudeMeters>
            <DistanceMeters>NAN</DistanceMeters>
          </Trackpoint>
          <Trackpoint>
            <Time>2022-07-06T12:46:26.000Z</Time>
            <Position>
              <LatitudeDegrees>44.0318514592945575714111328125</LatitudeDegrees>
              <LongitudeDegrees>-1.3281687162816524505615234375</LongitudeDegrees>
            </Position>
            <AltitudeMeters>13</AltitudeMeters>
            <DistanceMeters>NAN</DistanceMeters>
          </Trackpoint>
          <Trackpoint>
            <Time>2022-07-06T12:46:27.000Z</Time>
            <Position>
              <LatitudeDegrees>44.03181650675833225250244140625</LatitudeDegrees>
              <LongitudeDegrees>-1.32815471850335597991943359375</LongitudeDegrees>
            </Position>
            <AltitudeMeters>12.80000019073486328125</AltitudeMeters>
            <DistanceMeters>NAN</DistanceMeters>
          </Trackpoint>
          <Trackpoint>
            <Time>2022-07-06T12:46:28.000Z</Time>
            <Position>
              <LatitudeDegrees>44.03176747262477874755859375</LatitudeDegrees>
              <LongitudeDegrees>-1.32813946343958377838134765625</LongitudeDegrees>
            </Position>
            <AltitudeMeters>12.80000019073486328125</AltitudeMeters>
            <DistanceMeters>NAN</DistanceMeters>
          </Trackpoint>
          <Trackpoint>
            <Time>2022-07-06T12:46:34.000Z</Time>
            <Position>
              <LatitudeDegrees>44.03152582235634326934814453125</LatitudeDegrees>
              <LongitudeDegrees>-1.32809537462890148162841796875</LongitudeDegrees>
            </Position>
            <AltitudeMeters>12.80000019073486328125</AltitudeMeters>
            <DistanceMeters>NAN</DistanceMeters>
          </Trackpoint>
          <Trackpoint>
            <Time>2022-07-06T12:46:42.000Z</Time>
            <Position>
              <LatitudeDegrees>44.03122005052864551544189453125</LatitudeDegrees>
              <LongitudeDegrees>-1.32807492278516292572021484375</LongitudeDegrees>
            </Position>
            <AltitudeMeters>12.80000019073486328125</AltitudeMeters>
            <DistanceMeters>NAN</DistanceMeters>
          </Trackpoint>
          <Trackpoint>
            <Time>2022-07-06T12:46:47.000Z</Time>
            <Position>
              <LatitudeDegrees>44.0310199744999408721923828125</LatitudeDegrees>
              <LongitudeDegrees>-1.32807433605194091796875</LongitudeDegrees>
            </Position>
            <AltitudeMeters>12.80000019073486328125</AltitudeMeters>
            <DistanceMeters>NAN</DistanceMeters>
          </Trackpoint>
          <Trackpoint>
            <Time>2022-07-06T12:46:48.000Z</Time>
            <Position>
              <LatitudeDegrees>44.03098334558308124542236328125</LatitudeDegrees>
              <LongitudeDegrees>-1.32805866189301013946533203125</LongitudeDegrees>
            </Position>
            <AltitudeMeters>12.80000019073486328125</AltitudeMeters>
            <DistanceMeters>NAN</DistanceMeters>
          </Trackpoint>
          <Trackpoint>
            <Time>2022-07-06T12:46:50.000Z</Time>
            <Position>
              <LatitudeDegrees>44.03089441359043121337890625</LatitudeDegrees>
              <LongitudeDegrees>-1.32802429609000682830810546875</LongitudeDegrees>
            </Position>
            <AltitudeMeters>12.80000019073486328125</AltitudeMeters>
            <DistanceMeters>NAN</DistanceMeters>
          </Trackpoint>
          <Trackpoint>
            <Time>2022-07-06T12:46:53.000Z</Time>
            <Position>
              <LatitudeDegrees>44.03077815659344196319580078125</LatitudeDegrees>
              <LongitudeDegrees>-1.32797970436513423919677734375</LongitudeDegrees>
            </Position>
            <AltitudeMeters>13</AltitudeMeters>
            <DistanceMeters>NAN</DistanceMeters>
          </Trackpoint>
          <Trackpoint>
            <Time>2022-07-06T12:46:54.000Z</Time>
            <Position>
              <LatitudeDegrees>44.0307421982288360595703125</LatitudeDegrees>
              <LongitudeDegrees>-1.32796704769134521484375</LongitudeDegrees>
            </Position>
            <AltitudeMeters>13</AltitudeMeters>
            <DistanceMeters>NAN</DistanceMeters>
          </Trackpoint>
          <Trackpoint>
            <Time>2022-07-06T12:46:59.000Z</Time>
            <Position>
              <LatitudeDegrees>44.03051597066223621368408203125</LatitudeDegrees>
              <LongitudeDegrees>-1.3279206119477748870849609375</LongitudeDegrees>
            </Position>
            <AltitudeMeters>13.19999980926513671875</AltitudeMeters>
            <DistanceMeters>NAN</DistanceMeters>
          </Trackpoint>
          <Trackpoint>
            <Time>2022-07-06T12:47:00.000Z</Time>
            <Position>
              <LatitudeDegrees>44.03047121129930019378662109375</LatitudeDegrees>
              <LongitudeDegrees>-1.32792253978550434112548828125</LongitudeDegrees>
            </Position>
            <AltitudeMeters>13.19999980926513671875</AltitudeMeters>
            <DistanceMeters>NAN</DistanceMeters>
          </Trackpoint>
          <Trackpoint>
            <Time>2022-07-06T12:47:03.000Z</Time>
            <Position>
              <LatitudeDegrees>44.0303398668766021728515625</LatitudeDegrees>
              <LongitudeDegrees>-1.327916085720062255859375</LongitudeDegrees>
            </Position>
            <AltitudeMeters>13.19999980926513671875</AltitudeMeters>
            <DistanceMeters>NAN</DistanceMeters>
          </Trackpoint>
          <Trackpoint>
            <Time>2022-07-06T12:47:06.000Z</Time>
            <Position>
              <LatitudeDegrees>44.03022008948028087615966796875</LatitudeDegrees>
              <LongitudeDegrees>-1.3278959691524505615234375</LongitudeDegrees>
            </Position>
            <AltitudeMeters>13.6000003814697265625</AltitudeMeters>
            <DistanceMeters>NAN</DistanceMeters>
          </Trackpoint>
          <Trackpoint>
            <Time>2022-07-06T12:47:13.000Z</Time>
            <Position>
              <LatitudeDegrees>44.02992940507829189300537109375</LatitudeDegrees>
              <LongitudeDegrees>-1.32791985757648944854736328125</LongitudeDegrees>
            </Position>
            <AltitudeMeters>13.6000003814697265625</AltitudeMeters>
            <DistanceMeters>NAN</DistanceMeters>
          </Trackpoint>
          <Trackpoint>
            <Time>2022-07-06T12:47:19.000Z</Time>
            <Position>
              <LatitudeDegrees>44.02958608232438564300537109375</LatitudeDegrees>
              <LongitudeDegrees>-1.32794952951371669769287109375</LongitudeDegrees>
            </Position>
            <AltitudeMeters>13.6000003814697265625</AltitudeMeters>
            <DistanceMeters>NAN</DistanceMeters>
          </Trackpoint>
          <Trackpoint>
            <Time>2022-07-06T12:47:24.000Z</Time>
            <Position>
              <LatitudeDegrees>44.0293080545961856842041015625</LatitudeDegrees>
              <LongitudeDegrees>-1.32796503603458404541015625</LongitudeDegrees>
            </Position>
            <AltitudeMeters>13.80000019073486328125</AltitudeMeters>
            <DistanceMeters>NAN</DistanceMeters>
          </Trackpoint>
          <Trackpoint>
            <Time>2022-07-06T12:47:28.000Z</Time>
            <Position>
              <LatitudeDegrees>44.02908434160053730010986328125</LatitudeDegrees>
              <LongitudeDegrees>-1.32792413234710693359375</LongitudeDegrees>
            </Position>
            <AltitudeMeters>14</AltitudeMeters>
            <DistanceMeters>NAN</DistanceMeters>
          </Trackpoint>
          <Trackpoint>
            <Time>2022-07-06T12:47:31.000Z</Time>
            <Position>
              <LatitudeDegrees>44.02892240323126316070556640625</LatitudeDegrees>
              <LongitudeDegrees>-1.327913738787174224853515625</LongitudeDegrees>
            </Position>
            <AltitudeMeters>14</AltitudeMeters>
            <DistanceMeters>NAN</DistanceMeters>
          </Trackpoint>
          <Trackpoint>
            <Time>2022-07-06T12:47:39.000Z</Time>
            <Position>
              <LatitudeDegrees>44.0285293757915496826171875</LatitudeDegrees>
              <LongitudeDegrees>-1.3278408162295818328857421875</LongitudeDegrees>
            </Position>
            <AltitudeMeters>14.3999996185302734375</AltitudeMeters>
            <DistanceMeters>NAN</DistanceMeters>
          </Trackpoint>
          <Trackpoint>
            <Time>2022-07-06T12:47:47.000Z</Time>
            <Position>
              <LatitudeDegrees>44.02823760174214839935302734375</LatitudeDegrees>
              <LongitudeDegrees>-1.32776261307299137115478515625</LongitudeDegrees>
            </Position>
            <AltitudeMeters>15.19999980926513671875</AltitudeMeters>
            <DistanceMeters>NAN</DistanceMeters>
          </Trackpoint>
          <Trackpoint>
            <Time>2022-07-06T12:47:51.000Z</Time>
            <Position>
              <LatitudeDegrees>44.0281339175999164581298828125</LatitudeDegrees>
              <LongitudeDegrees>-1.32777191698551177978515625</LongitudeDegrees>
            </Position>
            <AltitudeMeters>15.80000019073486328125</AltitudeMeters>
            <DistanceMeters>NAN</DistanceMeters>
          </Trackpoint>
          <Trackpoint>
            <Time>2022-07-06T12:47:52.000Z</Time>
            <Position>
              <LatitudeDegrees>44.0281060896813869476318359375</LatitudeDegrees>
              <LongitudeDegrees>-1.3277683965861797332763671875</LongitudeDegrees>
            </Position>
            <AltitudeMeters>16.200000762939453125</AltitudeMeters>
            <DistanceMeters>NAN</DistanceMeters>
          </Trackpoint>
          <Trackpoint>
            <Time>2022-07-06T12:47:57.000Z</Time>
            <Position>
              <LatitudeDegrees>44.027970135211944580078125</LatitudeDegrees>
              <LongitudeDegrees>-1.3277808018028736114501953125</LongitudeDegrees>
            </Position>
            <AltitudeMeters>16.799999237060546875</AltitudeMeters>
            <DistanceMeters>NAN</DistanceMeters>
          </Trackpoint>
          <Trackpoint>
            <Time>2022-07-06T12:48:01.000Z</Time>
            <Position>
              <LatitudeDegrees>44.02786561287939548492431640625</LatitudeDegrees>
              <LongitudeDegrees>-1.3277596794068813323974609375</LongitudeDegrees>
            </Position>
            <AltitudeMeters>17.200000762939453125</AltitudeMeters>
            <DistanceMeters>NAN</DistanceMeters>
          </Trackpoint>
          <Trackpoint>
            <Time>2022-07-06T12:48:06.000Z</Time>
            <Position>
              <LatitudeDegrees>44.02770803309977054595947265625</LatitudeDegrees>
              <LongitudeDegrees>-1.32773528806865215301513671875</LongitudeDegrees>
            </Position>
            <AltitudeMeters>17.200000762939453125</AltitudeMeters>
            <DistanceMeters>NAN</DistanceMeters>
          </Trackpoint>
          <Trackpoint>
            <Time>2022-07-06T12:48:09.000Z</Time>
            <Position>
              <LatitudeDegrees>44.02757375501096248626708984375</LatitudeDegrees>
              <LongitudeDegrees>-1.3277700729668140411376953125</LongitudeDegrees>
            </Position>
            <AltitudeMeters>17</AltitudeMeters>
            <DistanceMeters>NAN</DistanceMeters>
          </Trackpoint>
          <Trackpoint>
            <Time>2022-07-06T12:48:12.000Z</Time>
            <Position>
              <LatitudeDegrees>44.02742120437324047088623046875</LatitudeDegrees>
              <LongitudeDegrees>-1.32780586369335651397705078125</LongitudeDegrees>
            </Position>
            <AltitudeMeters>17</AltitudeMeters>
            <DistanceMeters>NAN</DistanceMeters>
          </Trackpoint>
          <Trackpoint>
            <Time>2022-07-06T12:48:14.000Z</Time>
            <Position>
              <LatitudeDegrees>44.027317352592945098876953125</LatitudeDegrees>
              <LongitudeDegrees>-1.32780955173075199127197265625</LongitudeDegrees>
            </Position>
            <AltitudeMeters>17</AltitudeMeters>
            <DistanceMeters>NAN</DistanceMeters>
          </Trackpoint>
          <Trackpoint>
            <Time>2022-07-06T12:48:20.000Z</Time>
            <Position>
              <LatitudeDegrees>44.02709095738828182220458984375</LatitudeDegrees>
              <LongitudeDegrees>-1.32778742350637912750244140625</LongitudeDegrees>
            </Position>
            <AltitudeMeters>17.799999237060546875</AltitudeMeters>
            <DistanceMeters>NAN</DistanceMeters>
          </Trackpoint>
          <Trackpoint>
            <Time>2022-07-06T12:48:26.000Z</Time>
            <Position>
              <LatitudeDegrees>44.02689532376825809478759765625</LatitudeDegrees>
              <LongitudeDegrees>-1.32777996361255645751953125</LongitudeDegrees>
            </Position>
            <AltitudeMeters>18.200000762939453125</AltitudeMeters>
            <DistanceMeters>NAN</DistanceMeters>
          </Trackpoint>
          <Trackpoint>
            <Time>2022-07-06T12:48:28.000Z</Time>
            <Position>
              <LatitudeDegrees>44.026816450059413909912109375</LatitudeDegrees>
              <LongitudeDegrees>-1.32777686230838298797607421875</LongitudeDegrees>
            </Position>
            <AltitudeMeters>18.3999996185302734375</AltitudeMeters>
            <DistanceMeters>NAN</DistanceMeters>
          </Trackpoint>
          <Trackpoint>
            <Time>2022-07-06T12:48:36.000Z</Time>
            <Position>
              <LatitudeDegrees>44.02646952308714389801025390625</LatitudeDegrees>
              <LongitudeDegrees>-1.32778373546898365020751953125</LongitudeDegrees>
            </Position>
            <AltitudeMeters>18</AltitudeMeters>
            <DistanceMeters>NAN</DistanceMeters>
          </Trackpoint>
          <Trackpoint>
            <Time>2022-07-06T12:48:43.000Z</Time>
            <Position>
              <LatitudeDegrees>44.02614464052021503448486328125</LatitudeDegrees>
              <LongitudeDegrees>-1.32777535356581211090087890625</LongitudeDegrees>
            </Position>
            <AltitudeMeters>18.200000762939453125</AltitudeMeters>
            <DistanceMeters>NAN</DistanceMeters>
          </Trackpoint>
          <Trackpoint>
            <Time>2022-07-06T12:48:48.000Z</Time>
            <Position>
              <LatitudeDegrees>44.02594037353992462158203125</LatitudeDegrees>
              <LongitudeDegrees>-1.3277685642242431640625</LongitudeDegrees>
            </Position>
            <AltitudeMeters>18.200000762939453125</AltitudeMeters>
            <DistanceMeters>NAN</DistanceMeters>
          </Trackpoint>
          <Trackpoint>
            <Time>2022-07-06T12:48:51.000Z</Time>
            <Position>
              <LatitudeDegrees>44.0258101187646389007568359375</LatitudeDegrees>
              <LongitudeDegrees>-1.32777468301355838775634765625</LongitudeDegrees>
            </Position>
            <AltitudeMeters>18</AltitudeMeters>
            <DistanceMeters>NAN</DistanceMeters>
          </Trackpoint>
          <Trackpoint>
            <Time>2022-07-06T12:48:54.000Z</Time>
            <Position>
              <LatitudeDegrees>44.02566804550588130950927734375</LatitudeDegrees>
              <LongitudeDegrees>-1.32777191698551177978515625</LongitudeDegrees>
            </Position>
            <AltitudeMeters>17.200000762939453125</AltitudeMeters>
            <DistanceMeters>NAN</DistanceMeters>
          </Trackpoint>
          <Trackpoint>
            <Time>2022-07-06T12:48:58.000Z</Time>
            <Position>
              <LatitudeDegrees>44.0254761837422847747802734375</LatitudeDegrees>
              <LongitudeDegrees>-1.32776563055813312530517578125</LongitudeDegrees>
            </Position>
            <AltitudeMeters>16.6000003814697265625</AltitudeMeters>
            <DistanceMeters>NAN</DistanceMeters>
          </Trackpoint>
          <Trackpoint>
            <Time>2022-07-06T12:49:04.000Z</Time>
            <Position>
              <LatitudeDegrees>44.02516177855432033538818359375</LatitudeDegrees>
              <LongitudeDegrees>-1.327727325260639190673828125</LongitudeDegrees>
            </Position>
            <AltitudeMeters>16.799999237060546875</AltitudeMeters>
            <DistanceMeters>NAN</DistanceMeters>
          </Trackpoint>
          <Trackpoint>
            <Time>2022-07-06T12:49:06.000Z</Time>
            <Position>
              <LatitudeDegrees>44.02506354264914989471435546875</LatitudeDegrees>
              <LongitudeDegrees>-1.32772095501422882080078125</LongitudeDegrees>
            </Position>
            <AltitudeMeters>16.799999237060546875</AltitudeMeters>
            <DistanceMeters>NAN</DistanceMeters>
          </Trackpoint>
          <Trackpoint>
            <Time>2022-07-06T12:49:11.000Z</Time>
            <Position>
              <LatitudeDegrees>44.02485047467052936553955078125</LatitudeDegrees>
              <LongitudeDegrees>-1.32770326919853687286376953125</LongitudeDegrees>
            </Position>
            <AltitudeMeters>16.6000003814697265625</AltitudeMeters>
            <DistanceMeters>NAN</DistanceMeters>
          </Trackpoint>
          <Trackpoint>
            <Time>2022-07-06T12:49:16.000Z</Time>
            <Position>
              <LatitudeDegrees>44.02459080331027507781982421875</LatitudeDegrees>
              <LongitudeDegrees>-1.3276886008679866790771484375</LongitudeDegrees>
            </Position>
            <AltitudeMeters>15.6000003814697265625</AltitudeMeters>
            <DistanceMeters>NAN</DistanceMeters>
          </Trackpoint>
          <Trackpoint>
            <Time>2022-07-06T12:49:19.000Z</Time>
            <Position>
              <LatitudeDegrees>44.02441964484751224517822265625</LatitudeDegrees>
              <LongitudeDegrees>-1.3276761956512928009033203125</LongitudeDegrees>
            </Position>
            <AltitudeMeters>14.80000019073486328125</AltitudeMeters>
            <DistanceMeters>NAN</DistanceMeters>
          </Trackpoint>
          <Trackpoint>
            <Time>2022-07-06T12:49:23.000Z</Time>
            <Position>
              <LatitudeDegrees>44.0241707861423492431640625</LatitudeDegrees>
              <LongitudeDegrees>-1.32767175324261188507080078125</LongitudeDegrees>
            </Position>
            <AltitudeMeters>14.6000003814697265625</AltitudeMeters>
            <DistanceMeters>NAN</DistanceMeters>
          </Trackpoint>
          <Trackpoint>
            <Time>2022-07-06T12:49:26.000Z</Time>
            <Position>
              <LatitudeDegrees>44.024012871086597442626953125</LatitudeDegrees>
              <LongitudeDegrees>-1.32764643989503383636474609375</LongitudeDegrees>
            </Position>
            <AltitudeMeters>14.80000019073486328125</AltitudeMeters>
            <DistanceMeters>NAN</DistanceMeters>
          </Trackpoint>
          <Trackpoint>
            <Time>2022-07-06T12:49:33.000Z</Time>
            <Position>
              <LatitudeDegrees>44.02367533184587955474853515625</LatitudeDegrees>
              <LongitudeDegrees>-1.32757519371807575225830078125</LongitudeDegrees>
            </Position>
            <AltitudeMeters>15.19999980926513671875</AltitudeMeters>
            <DistanceMeters>NAN</DistanceMeters>
          </Trackpoint>
          <Trackpoint>
            <Time>2022-07-06T12:49:44.000Z</Time>
            <Position>
              <LatitudeDegrees>44.02314819395542144775390625</LatitudeDegrees>
              <LongitudeDegrees>-1.32748718373477458953857421875</LongitudeDegrees>
            </Position>
            <AltitudeMeters>15.6000003814697265625</AltitudeMeters>
            <DistanceMeters>NAN</DistanceMeters>
          </Trackpoint>
          <Trackpoint>
            <Time>2022-07-06T12:49:48.000Z</Time>
            <Position>
              <LatitudeDegrees>44.0229503810405731201171875</LatitudeDegrees>
              <LongitudeDegrees>-1.32746002636849880218505859375</LongitudeDegrees>
            </Position>
            <AltitudeMeters>15.6000003814697265625</AltitudeMeters>
            <DistanceMeters>NAN</DistanceMeters>
          </Trackpoint>
          <Trackpoint>
            <Time>2022-07-06T12:49:49.000Z</Time>
            <Position>
              <LatitudeDegrees>44.02289615012705326080322265625</LatitudeDegrees>
              <LongitudeDegrees>-1.32745030336081981658935546875</LongitudeDegrees>
            </Position>
            <AltitudeMeters>15.6000003814697265625</AltitudeMeters>
            <DistanceMeters>NAN</DistanceMeters>
          </Trackpoint>
          <Trackpoint>
            <Time>2022-07-06T12:49:52.000Z</Time>
            <Position>
              <LatitudeDegrees>44.02277662418782711029052734375</LatitudeDegrees>
              <LongitudeDegrees>-1.3274294324219226837158203125</LongitudeDegrees>
            </Position>
            <AltitudeMeters>15.6000003814697265625</AltitudeMeters>
            <DistanceMeters>NAN</DistanceMeters>
          </Trackpoint>
          <Trackpoint>
            <Time>2022-07-06T12:49:59.000Z</Time>
            <Position>
              <LatitudeDegrees>44.022482000291347503662109375</LatitudeDegrees>
              <LongitudeDegrees>-1.32740252651274204254150390625</LongitudeDegrees>
            </Position>
            <AltitudeMeters>15.80000019073486328125</AltitudeMeters>
            <DistanceMeters>NAN</DistanceMeters>
          </Trackpoint>
          <Trackpoint>
            <Time>2022-07-06T12:50:04.000Z</Time>
            <Position>
              <LatitudeDegrees>44.02231134474277496337890625</LatitudeDegrees>
              <LongitudeDegrees>-1.32740772329270839691162109375</LongitudeDegrees>
            </Position>
            <AltitudeMeters>16.200000762939453125</AltitudeMeters>
            <DistanceMeters>NAN</DistanceMeters>
          </Trackpoint>
          <Trackpoint>
            <Time>2022-07-06T12:50:07.000Z</Time>
            <Position>
              <LatitudeDegrees>44.0222156234085559844970703125</LatitudeDegrees>
              <LongitudeDegrees>-1.3273992575705051422119140625</LongitudeDegrees>
            </Position>
            <AltitudeMeters>16.3999996185302734375</AltitudeMeters>
            <DistanceMeters>NAN</DistanceMeters>
          </Trackpoint>
          <Trackpoint>
            <Time>2022-07-06T12:50:12.000Z</Time>
            <Position>
              <LatitudeDegrees>44.021998532116413116455078125</LatitudeDegrees>
              <LongitudeDegrees>-1.327369920909404754638671875</LongitudeDegrees>
            </Position>
            <AltitudeMeters>16.3999996185302734375</AltitudeMeters>
            <DistanceMeters>NAN</DistanceMeters>
          </Trackpoint>
          <Trackpoint>
            <Time>2022-07-06T12:50:20.000Z</Time>
            <Position>
              <LatitudeDegrees>44.021650850772857666015625</LatitudeDegrees>
              <LongitudeDegrees>-1.32727294228971004486083984375</LongitudeDegrees>
            </Position>
            <AltitudeMeters>16.3999996185302734375</AltitudeMeters>
            <DistanceMeters>NAN</DistanceMeters>
          </Trackpoint>
          <Trackpoint>
            <Time>2022-07-06T12:50:27.000Z</Time>
            <Position>
              <LatitudeDegrees>44.02134516276419162750244140625</LatitudeDegrees>
              <LongitudeDegrees>-1.32720320485532283782958984375</LongitudeDegrees>
            </Position>
            <AltitudeMeters>16.3999996185302734375</AltitudeMeters>
            <DistanceMeters>NAN</DistanceMeters>
          </Trackpoint>
          <Trackpoint>
            <Time>2022-07-06T12:50:28.000Z</Time>
            <Position>
              <LatitudeDegrees>44.02129537425935268402099609375</LatitudeDegrees>
              <LongitudeDegrees>-1.32719012908637523651123046875</LongitudeDegrees>
            </Position>
            <AltitudeMeters>16.6000003814697265625</AltitudeMeters>
            <DistanceMeters>NAN</DistanceMeters>
          </Trackpoint>
          <Trackpoint>
            <Time>2022-07-06T12:50:35.000Z</Time>
            <Position>
              <LatitudeDegrees>44.02096210978925228118896484375</LatitudeDegrees>
              <LongitudeDegrees>-1.3271270133554935455322265625</LongitudeDegrees>
            </Position>
            <AltitudeMeters>15.80000019073486328125</AltitudeMeters>
            <DistanceMeters>NAN</DistanceMeters>
          </Trackpoint>
          <Trackpoint>
            <Time>2022-07-06T12:50:36.000Z</Time>
            <Position>
              <LatitudeDegrees>44.0208984911441802978515625</LatitudeDegrees>
              <LongitudeDegrees>-1.32711938582360744476318359375</LongitudeDegrees>
            </Position>
            <AltitudeMeters>15.80000019073486328125</AltitudeMeters>
            <DistanceMeters>NAN</DistanceMeters>
          </Trackpoint>
          <Trackpoint>
            <Time>2022-07-06T12:50:41.000Z</Time>
            <Position>
              <LatitudeDegrees>44.0206488780677318572998046875</LatitudeDegrees>
              <LongitudeDegrees>-1.32707261480391025543212890625</LongitudeDegrees>
            </Position>
            <AltitudeMeters>15.6000003814697265625</AltitudeMeters>
            <DistanceMeters>NAN</DistanceMeters>
          </Trackpoint>
          <Trackpoint>
            <Time>2022-07-06T12:50:43.000Z</Time>
            <Position>
              <LatitudeDegrees>44.02057302184402942657470703125</LatitudeDegrees>
              <LongitudeDegrees>-1.32705367170274257659912109375</LongitudeDegrees>
            </Position>
            <AltitudeMeters>15.6000003814697265625</AltitudeMeters>
            <DistanceMeters>NAN</DistanceMeters>
          </Trackpoint>
          <Trackpoint>
            <Time>2022-07-06T12:50:44.000Z</Time>
            <Position>
              <LatitudeDegrees>44.0205204673111438751220703125</LatitudeDegrees>
              <LongitudeDegrees>-1.32704260759055614471435546875</LongitudeDegrees>
            </Position>
            <AltitudeMeters>15.6000003814697265625</AltitudeMeters>
            <DistanceMeters>NAN</DistanceMeters>
          </Trackpoint>
          <Trackpoint>
            <Time>2022-07-06T12:50:45.000Z</Time>
            <Position>
              <LatitudeDegrees>44.020456261932849884033203125</LatitudeDegrees>
              <LongitudeDegrees>-1.32703539915382862091064453125</LongitudeDegrees>
            </Position>
            <AltitudeMeters>15.6000003814697265625</AltitudeMeters>
            <DistanceMeters>NAN</DistanceMeters>
          </Trackpoint>
          <Trackpoint>
            <Time>2022-07-06T12:50:47.000Z</Time>
            <Position>
              <LatitudeDegrees>44.0203293599188327789306640625</LatitudeDegrees>
              <LongitudeDegrees>-1.32703690789639949798583984375</LongitudeDegrees>
            </Position>
            <AltitudeMeters>15.6000003814697265625</AltitudeMeters>
            <DistanceMeters>NAN</DistanceMeters>
          </Trackpoint>
          <Trackpoint>
            <Time>2022-07-06T12:50:49.000Z</Time>
            <Position>
              <LatitudeDegrees>44.0202220715582370758056640625</LatitudeDegrees>
              <LongitudeDegrees>-1.3270314596593379974365234375</LongitudeDegrees>
            </Position>
            <AltitudeMeters>15.6000003814697265625</AltitudeMeters>
            <DistanceMeters>NAN</DistanceMeters>
          </Trackpoint>
          <Trackpoint>
            <Time>2022-07-06T12:50:50.000Z</Time>
            <Position>
              <LatitudeDegrees>44.02015862055122852325439453125</LatitudeDegrees>
              <LongitudeDegrees>-1.3270403444766998291015625</LongitudeDegrees>
            </Position>
            <AltitudeMeters>15.80000019073486328125</AltitudeMeters>
            <DistanceMeters>NAN</DistanceMeters>
          </Trackpoint>
          <Trackpoint>
            <Time>2022-07-06T12:50:54.000Z</Time>
            <Position>
              <LatitudeDegrees>44.01994119398295879364013671875</LatitudeDegrees>
              <LongitudeDegrees>-1.32706842385232448577880859375</LongitudeDegrees>
            </Position>
            <AltitudeMeters>15.80000019073486328125</AltitudeMeters>
            <DistanceMeters>NAN</DistanceMeters>
          </Trackpoint>
          <Trackpoint>
            <Time>2022-07-06T12:50:56.000Z</Time>
            <Position>
              <LatitudeDegrees>44.01985921896994113922119140625</LatitudeDegrees>
              <LongitudeDegrees>-1.3270804099738597869873046875</LongitudeDegrees>
            </Position>
            <AltitudeMeters>15.80000019073486328125</AltitudeMeters>
            <DistanceMeters>NAN</DistanceMeters>
          </Trackpoint>
          <Trackpoint>
            <Time>2022-07-06T12:50:57.000Z</Time>
            <Position>
              <LatitudeDegrees>44.01983424089848995208740234375</LatitudeDegrees>
              <LongitudeDegrees>-1.32708334363996982574462890625</LongitudeDegrees>
            </Position>
            <AltitudeMeters>16</AltitudeMeters>
            <DistanceMeters>NAN</DistanceMeters>
          </Trackpoint>
          <Trackpoint>
            <Time>2022-07-06T12:51:01.000Z</Time>
            <Position>
              <LatitudeDegrees>44.01963047683238983154296875</LatitudeDegrees>
              <LongitudeDegrees>-1.327102370560169219970703125</LongitudeDegrees>
            </Position>
            <AltitudeMeters>16</AltitudeMeters>
            <DistanceMeters>NAN</DistanceMeters>
          </Trackpoint>
          <Trackpoint>
            <Time>2022-07-06T12:51:02.000Z</Time>
            <Position>
              <LatitudeDegrees>44.019573815166950225830078125</LatitudeDegrees>
              <LongitudeDegrees>-1.327109746634960174560546875</LongitudeDegrees>
            </Position>
            <AltitudeMeters>15.80000019073486328125</AltitudeMeters>
            <DistanceMeters>NAN</DistanceMeters>
          </Trackpoint>
          <Trackpoint>
            <Time>2022-07-06T12:51:08.000Z</Time>
            <Position>
              <LatitudeDegrees>44.0192410536110401153564453125</LatitudeDegrees>
              <LongitudeDegrees>-1.327153332531452178955078125</LongitudeDegrees>
            </Position>
            <AltitudeMeters>16.200000762939453125</AltitudeMeters>
            <DistanceMeters>NAN</DistanceMeters>
          </Trackpoint>
          <Trackpoint>
            <Time>2022-07-06T12:51:12.000Z</Time>
            <Position>
              <LatitudeDegrees>44.0190355293452739715576171875</LatitudeDegrees>
              <LongitudeDegrees>-1.3271628879010677337646484375</LongitudeDegrees>
            </Position>
            <AltitudeMeters>16.3999996185302734375</AltitudeMeters>
            <DistanceMeters>NAN</DistanceMeters>
          </Trackpoint>
          <Trackpoint>
            <Time>2022-07-06T12:51:14.000Z</Time>
            <Position>
              <LatitudeDegrees>44.01893016882240772247314453125</LatitudeDegrees>
              <LongitudeDegrees>-1.32717755623161792755126953125</LongitudeDegrees>
            </Position>
            <AltitudeMeters>16.3999996185302734375</AltitudeMeters>
            <DistanceMeters>NAN</DistanceMeters>
          </Trackpoint>
          <Trackpoint>
            <Time>2022-07-06T12:51:16.000Z</Time>
            <Position>
              <LatitudeDegrees>44.01883386075496673583984375</LatitudeDegrees>
              <LongitudeDegrees>-1.32720731198787689208984375</LongitudeDegrees>
            </Position>
            <AltitudeMeters>16.3999996185302734375</AltitudeMeters>
            <DistanceMeters>NAN</DistanceMeters>
          </Trackpoint>
          <Trackpoint>
            <Time>2022-07-06T12:51:20.000Z</Time>
            <Position>
              <LatitudeDegrees>44.01862322352826595306396484375</LatitudeDegrees>
              <LongitudeDegrees>-1.32722298614680767059326171875</LongitudeDegrees>
            </Position>
            <AltitudeMeters>16.6000003814697265625</AltitudeMeters>
            <DistanceMeters>NAN</DistanceMeters>
          </Trackpoint>
          <Trackpoint>
            <Time>2022-07-06T12:51:25.000Z</Time>
            <Position>
              <LatitudeDegrees>44.01835550554096698760986328125</LatitudeDegrees>
              <LongitudeDegrees>-1.32723572663962841033935546875</LongitudeDegrees>
            </Position>
            <AltitudeMeters>16.200000762939453125</AltitudeMeters>
            <DistanceMeters>NAN</DistanceMeters>
          </Trackpoint>
          <Trackpoint>
            <Time>2022-07-06T12:51:27.000Z</Time>
            <Position>
              <LatitudeDegrees>44.0182493068277835845947265625</LatitudeDegrees>
              <LongitudeDegrees>-1.32730060257017612457275390625</LongitudeDegrees>
            </Position>
            <AltitudeMeters>15.3999996185302734375</AltitudeMeters>
            <DistanceMeters>NAN</DistanceMeters>
          </Trackpoint>
          <Trackpoint>
            <Time>2022-07-06T12:51:35.000Z</Time>
            <Position>
              <LatitudeDegrees>44.0178724564611911773681640625</LatitudeDegrees>
              <LongitudeDegrees>-1.3275491259992122650146484375</LongitudeDegrees>
            </Position>
            <AltitudeMeters>15.3999996185302734375</AltitudeMeters>
            <DistanceMeters>NAN</DistanceMeters>
          </Trackpoint>
          <Trackpoint>
            <Time>2022-07-06T12:51:44.000Z</Time>
            <Position>
              <LatitudeDegrees>44.01748898439109325408935546875</LatitudeDegrees>
              <LongitudeDegrees>-1.32782028056681156158447265625</LongitudeDegrees>
            </Position>
            <AltitudeMeters>15.6000003814697265625</AltitudeMeters>
            <DistanceMeters>NAN</DistanceMeters>
          </Trackpoint>
          <Trackpoint>
            <Time>2022-07-06T12:51:50.000Z</Time>
            <Position>
              <LatitudeDegrees>44.0172310732305049896240234375</LatitudeDegrees>
              <LongitudeDegrees>-1.32801465690135955810546875</LongitudeDegrees>
            </Position>
            <AltitudeMeters>16.3999996185302734375</AltitudeMeters>
            <DistanceMeters>NAN</DistanceMeters>
          </Trackpoint>
          <Trackpoint>
            <Time>2022-07-06T12:51:51.000Z</Time>
            <Position>
              <LatitudeDegrees>44.0171982161700725555419921875</LatitudeDegrees>
              <LongitudeDegrees>-1.3280419819056987762451171875</LongitudeDegrees>
            </Position>
            <AltitudeMeters>16.6000003814697265625</AltitudeMeters>
            <DistanceMeters>NAN</DistanceMeters>
          </Trackpoint>
          <Trackpoint>
            <Time>2022-07-06T12:51:56.000Z</Time>
            <Position>
              <LatitudeDegrees>44.01706469245254993438720703125</LatitudeDegrees>
              <LongitudeDegrees>-1.32815404795110225677490234375</LongitudeDegrees>
            </Position>
            <AltitudeMeters>16.799999237060546875</AltitudeMeters>
            <DistanceMeters>NAN</DistanceMeters>
          </Trackpoint>
          <Trackpoint>
            <Time>2022-07-06T12:52:03.000Z</Time>
            <Position>
              <LatitudeDegrees>44.01685900054872035980224609375</LatitudeDegrees>
              <LongitudeDegrees>-1.32830525748431682586669921875</LongitudeDegrees>
            </Position>
            <AltitudeMeters>16.799999237060546875</AltitudeMeters>
            <DistanceMeters>NAN</DistanceMeters>
          </Trackpoint>
          <Trackpoint>
            <Time>2022-07-06T12:52:06.000Z</Time>
            <Position>
              <LatitudeDegrees>44.0167771093547344207763671875</LatitudeDegrees>
              <LongitudeDegrees>-1.3283588178455829620361328125</LongitudeDegrees>
            </Position>
            <AltitudeMeters>17</AltitudeMeters>
            <DistanceMeters>NAN</DistanceMeters>
          </Trackpoint>
          <Trackpoint>
            <Time>2022-07-06T12:52:08.000Z</Time>
            <Position>
              <LatitudeDegrees>44.01671667583286762237548828125</LatitudeDegrees>
              <LongitudeDegrees>-1.32839125581085681915283203125</LongitudeDegrees>
            </Position>
            <AltitudeMeters>17.3999996185302734375</AltitudeMeters>
            <DistanceMeters>NAN</DistanceMeters>
          </Trackpoint>
          <Trackpoint>
            <Time>2022-07-06T12:52:10.000Z</Time>
            <Position>
              <LatitudeDegrees>44.01665548793971538543701171875</LatitudeDegrees>
              <LongitudeDegrees>-1.3284195028245449066162109375</LongitudeDegrees>
            </Position>
            <AltitudeMeters>17.6000003814697265625</AltitudeMeters>
            <DistanceMeters>NAN</DistanceMeters>
          </Trackpoint>
          <Trackpoint>
            <Time>2022-07-06T12:52:12.000Z</Time>
            <Position>
              <LatitudeDegrees>44.01658474467694759368896484375</LatitudeDegrees>
              <LongitudeDegrees>-1.32845588028430938720703125</LongitudeDegrees>
            </Position>
            <AltitudeMeters>17.6000003814697265625</AltitudeMeters>
            <DistanceMeters>NAN</DistanceMeters>
          </Trackpoint>
          <Trackpoint>
            <Time>2022-07-06T12:52:18.000Z</Time>
            <Position>
              <LatitudeDegrees>44.01636354625225067138671875</LatitudeDegrees>
              <LongitudeDegrees>-1.3285509310662746429443359375</LongitudeDegrees>
            </Position>
            <AltitudeMeters>17.799999237060546875</AltitudeMeters>
            <DistanceMeters>NAN</DistanceMeters>
          </Trackpoint>
          <Trackpoint>
            <Time>2022-07-06T12:52:21.000Z</Time>
            <Position>
              <LatitudeDegrees>44.01623588986694812774658203125</LatitudeDegrees>
              <LongitudeDegrees>-1.3285643421113491058349609375</LongitudeDegrees>
            </Position>
            <AltitudeMeters>17.6000003814697265625</AltitudeMeters>
            <DistanceMeters>NAN</DistanceMeters>
          </Trackpoint>
          <Trackpoint>
            <Time>2022-07-06T12:52:24.000Z</Time>
            <Position>
              <LatitudeDegrees>44.01609666645526885986328125</LatitudeDegrees>
              <LongitudeDegrees>-1.32853810675442218780517578125</LongitudeDegrees>
            </Position>
            <AltitudeMeters>17</AltitudeMeters>
            <DistanceMeters>NAN</DistanceMeters>
          </Trackpoint>
          <Trackpoint>
            <Time>2022-07-06T12:52:26.000Z</Time>
            <Position>
              <LatitudeDegrees>44.0159875340759754180908203125</LatitudeDegrees>
              <LongitudeDegrees>-1.3285100273787975311279296875</LongitudeDegrees>
            </Position>
            <AltitudeMeters>16.799999237060546875</AltitudeMeters>
            <DistanceMeters>NAN</DistanceMeters>
          </Trackpoint>
          <Trackpoint>
            <Time>2022-07-06T12:52:27.000Z</Time>
            <Position>
              <LatitudeDegrees>44.01593112386763095855712890625</LatitudeDegrees>
              <LongitudeDegrees>-1.32849468849599361419677734375</LongitudeDegrees>
            </Position>
            <AltitudeMeters>16.3999996185302734375</AltitudeMeters>
            <DistanceMeters>NAN</DistanceMeters>
          </Trackpoint>
          <Trackpoint>
            <Time>2022-07-06T12:52:29.000Z</Time>
            <Position>
              <LatitudeDegrees>44.01580891571938991546630859375</LatitudeDegrees>
              <LongitudeDegrees>-1.32845948450267314910888671875</LongitudeDegrees>
            </Position>
            <AltitudeMeters>15.80000019073486328125</AltitudeMeters>
            <DistanceMeters>NAN</DistanceMeters>
          </Trackpoint>
          <Trackpoint>
            <Time>2022-07-06T12:52:30.000Z</Time>
            <Position>
              <LatitudeDegrees>44.01574471034109592437744140625</LatitudeDegrees>
              <LongitudeDegrees>-1.328439451754093170166015625</LongitudeDegrees>
            </Position>
            <AltitudeMeters>15.80000019073486328125</AltitudeMeters>
            <DistanceMeters>NAN</DistanceMeters>
          </Trackpoint>
          <Trackpoint>
            <Time>2022-07-06T12:52:31.000Z</Time>
            <Position>
              <LatitudeDegrees>44.0156760625541210174560546875</LatitudeDegrees>
              <LongitudeDegrees>-1.3284163177013397216796875</LongitudeDegrees>
            </Position>
            <AltitudeMeters>15.19999980926513671875</AltitudeMeters>
            <DistanceMeters>NAN</DistanceMeters>
          </Trackpoint>
          <Trackpoint>
            <Time>2022-07-06T12:52:36.000Z</Time>
            <Position>
              <LatitudeDegrees>44.015325866639614105224609375</LatitudeDegrees>
              <LongitudeDegrees>-1.32830743677914142608642578125</LongitudeDegrees>
            </Position>
            <AltitudeMeters>14.19999980926513671875</AltitudeMeters>
            <DistanceMeters>NAN</DistanceMeters>
          </Trackpoint>
          <Trackpoint>
            <Time>2022-07-06T12:52:37.000Z</Time>
            <Position>
              <LatitudeDegrees>44.0152549557387828826904296875</LatitudeDegrees>
              <LongitudeDegrees>-1.3282894156873226165771484375</LongitudeDegrees>
            </Position>
            <AltitudeMeters>14.19999980926513671875</AltitudeMeters>
            <DistanceMeters>NAN</DistanceMeters>
          </Trackpoint>
          <Trackpoint>
            <Time>2022-07-06T12:52:45.000Z</Time>
            <Position>
              <LatitudeDegrees>44.014703929424285888671875</LatitudeDegrees>
              <LongitudeDegrees>-1.32813937962055206298828125</LongitudeDegrees>
            </Position>
            <AltitudeMeters>13.3999996185302734375</AltitudeMeters>
            <DistanceMeters>NAN</DistanceMeters>
          </Trackpoint>
          <Trackpoint>
            <Time>2022-07-06T12:52:48.000Z</Time>
            <Position>
              <LatitudeDegrees>44.01451642625033855438232421875</LatitudeDegrees>
              <LongitudeDegrees>-1.32809118367731571197509765625</LongitudeDegrees>
            </Position>
            <AltitudeMeters>13.3999996185302734375</AltitudeMeters>
            <DistanceMeters>NAN</DistanceMeters>
          </Trackpoint>
          <Trackpoint>
            <Time>2022-07-06T12:52:49.000Z</Time>
            <Position>
              <LatitudeDegrees>44.0144549869000911712646484375</LatitudeDegrees>
              <LongitudeDegrees>-1.32808229885995388031005859375</LongitudeDegrees>
            </Position>
            <AltitudeMeters>13.3999996185302734375</AltitudeMeters>
            <DistanceMeters>NAN</DistanceMeters>
          </Trackpoint>
          <Trackpoint>
            <Time>2022-07-06T12:52:52.000Z</Time>
            <Position>
              <LatitudeDegrees>44.014272429049015045166015625</LatitudeDegrees>
              <LongitudeDegrees>-1.328059248626232147216796875</LongitudeDegrees>
            </Position>
            <AltitudeMeters>13.3999996185302734375</AltitudeMeters>
            <DistanceMeters>NAN</DistanceMeters>
          </Trackpoint>
          <Trackpoint>
            <Time>2022-07-06T12:52:56.000Z</Time>
            <Position>
              <LatitudeDegrees>44.014037735760211944580078125</LatitudeDegrees>
              <LongitudeDegrees>-1.32806385867297649383544921875</LongitudeDegrees>
            </Position>
            <AltitudeMeters>13.6000003814697265625</AltitudeMeters>
            <DistanceMeters>NAN</DistanceMeters>
          </Trackpoint>
          <Trackpoint>
            <Time>2022-07-06T12:52:57.000Z</Time>
            <Position>
              <LatitudeDegrees>44.01398048736155033111572265625</LatitudeDegrees>
              <LongitudeDegrees>-1.328066289424896240234375</LongitudeDegrees>
            </Position>
            <AltitudeMeters>13.6000003814697265625</AltitudeMeters>
            <DistanceMeters>NAN</DistanceMeters>
          </Trackpoint>
          <Trackpoint>
            <Time>2022-07-06T12:53:02.000Z</Time>
            <Position>
              <LatitudeDegrees>44.013717882335186004638671875</LatitudeDegrees>
              <LongitudeDegrees>-1.3280815444886684417724609375</LongitudeDegrees>
            </Position>
            <AltitudeMeters>13.6000003814697265625</AltitudeMeters>
            <DistanceMeters>NAN</DistanceMeters>
          </Trackpoint>
          <Trackpoint>
            <Time>2022-07-06T12:53:03.000Z</Time>
            <Position>
              <LatitudeDegrees>44.0136754699051380157470703125</LatitudeDegrees>
              <LongitudeDegrees>-1.32808296941220760345458984375</LongitudeDegrees>
            </Position>
            <AltitudeMeters>13.80000019073486328125</AltitudeMeters>
            <DistanceMeters>NAN</DistanceMeters>
          </Trackpoint>
          <Trackpoint>
            <Time>2022-07-06T12:53:08.000Z</Time>
            <Position>
              <LatitudeDegrees>44.01349450461566448211669921875</LatitudeDegrees>
              <LongitudeDegrees>-1.328086741268634796142578125</LongitudeDegrees>
            </Position>
            <AltitudeMeters>15.19999980926513671875</AltitudeMeters>
            <DistanceMeters>NAN</DistanceMeters>
          </Trackpoint>
          <Trackpoint>
            <Time>2022-07-06T12:53:09.000Z</Time>
            <Position>
              <LatitudeDegrees>44.01346131227910518646240234375</LatitudeDegrees>
              <LongitudeDegrees>-1.32808699272572994232177734375</LongitudeDegrees>
            </Position>
            <AltitudeMeters>15.19999980926513671875</AltitudeMeters>
            <DistanceMeters>NAN</DistanceMeters>
          </Trackpoint>
          <Trackpoint>
            <Time>2022-07-06T12:53:15.000Z</Time>
            <Position>
              <LatitudeDegrees>44.01326416991651058197021484375</LatitudeDegrees>
              <LongitudeDegrees>-1.3280912674963474273681640625</LongitudeDegrees>
            </Position>
            <AltitudeMeters>16</AltitudeMeters>
            <DistanceMeters>NAN</DistanceMeters>
          </Trackpoint>
          <Trackpoint>
            <Time>2022-07-06T12:53:18.000Z</Time>
            <Position>
              <LatitudeDegrees>44.0131792612373828887939453125</LatitudeDegrees>
              <LongitudeDegrees>-1.3280838914215564727783203125</LongitudeDegrees>
            </Position>
            <AltitudeMeters>16.3999996185302734375</AltitudeMeters>
            <DistanceMeters>NAN</DistanceMeters>
          </Trackpoint>
          <Trackpoint>
            <Time>2022-07-06T12:53:25.000Z</Time>
            <Position>
              <LatitudeDegrees>44.0129878185689449310302734375</LatitudeDegrees>
              <LongitudeDegrees>-1.32805732078850269317626953125</LongitudeDegrees>
            </Position>
            <AltitudeMeters>16.799999237060546875</AltitudeMeters>
            <DistanceMeters>NAN</DistanceMeters>
          </Trackpoint>
          <Trackpoint>
            <Time>2022-07-06T12:53:31.000Z</Time>
            <Position>
              <LatitudeDegrees>44.01277148164808750152587890625</LatitudeDegrees>
              <LongitudeDegrees>-1.32798423059284687042236328125</LongitudeDegrees>
            </Position>
            <AltitudeMeters>16.799999237060546875</AltitudeMeters>
            <DistanceMeters>NAN</DistanceMeters>
          </Trackpoint>
          <Trackpoint>
            <Time>2022-07-06T12:53:33.000Z</Time>
            <Position>
              <LatitudeDegrees>44.01269051246345043182373046875</LatitudeDegrees>
              <LongitudeDegrees>-1.3279481045901775360107421875</LongitudeDegrees>
            </Position>
            <AltitudeMeters>16.799999237060546875</AltitudeMeters>
            <DistanceMeters>NAN</DistanceMeters>
          </Trackpoint>
          <Trackpoint>
            <Time>2022-07-06T12:53:36.000Z</Time>
            <Position>
              <LatitudeDegrees>44.0125465951859951019287109375</LatitudeDegrees>
              <LongitudeDegrees>-1.32787006907165050506591796875</LongitudeDegrees>
            </Position>
            <AltitudeMeters>16.3999996185302734375</AltitudeMeters>
            <DistanceMeters>NAN</DistanceMeters>
          </Trackpoint>
          <Trackpoint>
            <Time>2022-07-06T12:53:37.000Z</Time>
            <Position>
              <LatitudeDegrees>44.0124929510056972503662109375</LatitudeDegrees>
              <LongitudeDegrees>-1.3278404809534549713134765625</LongitudeDegrees>
            </Position>
            <AltitudeMeters>16.200000762939453125</AltitudeMeters>
            <DistanceMeters>NAN</DistanceMeters>
          </Trackpoint>
          <Trackpoint>
            <Time>2022-07-06T12:53:39.000Z</Time>
            <Position>
              <LatitudeDegrees>44.012381136417388916015625</LatitudeDegrees>
              <LongitudeDegrees>-1.32777300663292407989501953125</LongitudeDegrees>
            </Position>
            <AltitudeMeters>16</AltitudeMeters>
            <DistanceMeters>NAN</DistanceMeters>
          </Trackpoint>
          <Trackpoint>
            <Time>2022-07-06T12:53:41.000Z</Time>
            <Position>
              <LatitudeDegrees>44.012261442840099334716796875</LatitudeDegrees>
              <LongitudeDegrees>-1.327701173722743988037109375</LongitudeDegrees>
            </Position>
            <AltitudeMeters>15.6000003814697265625</AltitudeMeters>
            <DistanceMeters>NAN</DistanceMeters>
          </Trackpoint>
          <Trackpoint>
            <Time>2022-07-06T12:53:42.000Z</Time>
            <Position>
              <LatitudeDegrees>44.0121985785663127899169921875</LatitudeDegrees>
              <LongitudeDegrees>-1.3276711665093898773193359375</LongitudeDegrees>
            </Position>
            <AltitudeMeters>15.19999980926513671875</AltitudeMeters>
            <DistanceMeters>NAN</DistanceMeters>
          </Trackpoint>
          <Trackpoint>
            <Time>2022-07-06T12:53:43.000Z</Time>
            <Position>
              <LatitudeDegrees>44.01213646866381168365478515625</LatitudeDegrees>
              <LongitudeDegrees>-1.3276419974863529205322265625</LongitudeDegrees>
            </Position>
            <AltitudeMeters>15</AltitudeMeters>
            <DistanceMeters>NAN</DistanceMeters>
          </Trackpoint>
          <Trackpoint>
            <Time>2022-07-06T12:53:45.000Z</Time>
            <Position>
              <LatitudeDegrees>44.0120145119726657867431640625</LatitudeDegrees>
              <LongitudeDegrees>-1.32759816013276576995849609375</LongitudeDegrees>
            </Position>
            <AltitudeMeters>15</AltitudeMeters>
            <DistanceMeters>NAN</DistanceMeters>
          </Trackpoint>
          <Trackpoint>
            <Time>2022-07-06T12:53:50.000Z</Time>
            <Position>
              <LatitudeDegrees>44.01173849590122699737548828125</LatitudeDegrees>
              <LongitudeDegrees>-1.32752657867968082427978515625</LongitudeDegrees>
            </Position>
            <AltitudeMeters>14.80000019073486328125</AltitudeMeters>
            <DistanceMeters>NAN</DistanceMeters>
          </Trackpoint>
          <Trackpoint>
            <Time>2022-07-06T12:53:56.000Z</Time>
            <Position>
              <LatitudeDegrees>44.01152509264647960662841796875</LatitudeDegrees>
              <LongitudeDegrees>-1.3274763710796833038330078125</LongitudeDegrees>
            </Position>
            <AltitudeMeters>15.6000003814697265625</AltitudeMeters>
            <DistanceMeters>NAN</DistanceMeters>
          </Trackpoint>
          <Trackpoint>
            <Time>2022-07-06T12:53:59.000Z</Time>
            <Position>
              <LatitudeDegrees>44.011434651911258697509765625</LatitudeDegrees>
              <LongitudeDegrees>-1.32745885290205478668212890625</LongitudeDegrees>
            </Position>
            <AltitudeMeters>16.200000762939453125</AltitudeMeters>
            <DistanceMeters>NAN</DistanceMeters>
          </Trackpoint>
          <Trackpoint>
            <Time>2022-07-06T12:54:00.000Z</Time>
            <Position>
              <LatitudeDegrees>44.01140975765883922576904296875</LatitudeDegrees>
              <LongitudeDegrees>-1.3274525664746761322021484375</LongitudeDegrees>
            </Position>
            <AltitudeMeters>16.3999996185302734375</AltitudeMeters>
            <DistanceMeters>NAN</DistanceMeters>
          </Trackpoint>
          <Trackpoint>
            <Time>2022-07-06T12:54:05.000Z</Time>
            <Position>
              <LatitudeDegrees>44.0112634934484958648681640625</LatitudeDegrees>
              <LongitudeDegrees>-1.32743504829704761505126953125</LongitudeDegrees>
            </Position>
            <AltitudeMeters>17</AltitudeMeters>
            <DistanceMeters>NAN</DistanceMeters>
          </Trackpoint>
          <Trackpoint>
            <Time>2022-07-06T12:54:09.000Z</Time>
            <Position>
              <LatitudeDegrees>44.0111639164388179779052734375</LatitudeDegrees>
              <LongitudeDegrees>-1.32740805856883525848388671875</LongitudeDegrees>
            </Position>
            <AltitudeMeters>17.3999996185302734375</AltitudeMeters>
            <DistanceMeters>NAN</DistanceMeters>
          </Trackpoint>
          <Trackpoint>
            <Time>2022-07-06T12:54:11.000Z</Time>
            <Position>
              <LatitudeDegrees>44.01111236773431301116943359375</LatitudeDegrees>
              <LongitudeDegrees>-1.3273928873240947723388671875</LongitudeDegrees>
            </Position>
            <AltitudeMeters>17.799999237060546875</AltitudeMeters>
            <DistanceMeters>NAN</DistanceMeters>
          </Trackpoint>
          <Trackpoint>
            <Time>2022-07-06T12:54:16.000Z</Time>
            <Position>
              <LatitudeDegrees>44.01099300943315029144287109375</LatitudeDegrees>
              <LongitudeDegrees>-1.3273541629314422607421875</LongitudeDegrees>
            </Position>
            <AltitudeMeters>18.3999996185302734375</AltitudeMeters>
            <DistanceMeters>NAN</DistanceMeters>
          </Trackpoint>
          <Trackpoint>
            <Time>2022-07-06T12:54:17.000Z</Time>
            <Position>
              <LatitudeDegrees>44.0109738148748874664306640625</LatitudeDegrees>
              <LongitudeDegrees>-1.32735072635114192962646484375</LongitudeDegrees>
            </Position>
            <AltitudeMeters>18.3999996185302734375</AltitudeMeters>
            <DistanceMeters>NAN</DistanceMeters>
          </Trackpoint>
          <Trackpoint>
            <Time>2022-07-06T12:54:19.000Z</Time>
            <Position>
              <LatitudeDegrees>44.01093785651028156280517578125</LatitudeDegrees>
              <LongitudeDegrees>-1.32734284736216068267822265625</LongitudeDegrees>
            </Position>
            <AltitudeMeters>18.799999237060546875</AltitudeMeters>
            <DistanceMeters>NAN</DistanceMeters>
          </Trackpoint>
          <Trackpoint>
            <Time>2022-07-06T12:54:22.000Z</Time>
            <Position>
              <LatitudeDegrees>44.010827802121639251708984375</LatitudeDegrees>
              <LongitudeDegrees>-1.3273298554122447967529296875</LongitudeDegrees>
            </Position>
            <AltitudeMeters>19.200000762939453125</AltitudeMeters>
            <DistanceMeters>NAN</DistanceMeters>
          </Trackpoint>
          <Trackpoint>
            <Time>2022-07-06T12:54:26.000Z</Time>
            <Position>
              <LatitudeDegrees>44.01072260923683643341064453125</LatitudeDegrees>
              <LongitudeDegrees>-1.32730697281658649444580078125</LongitudeDegrees>
            </Position>
            <AltitudeMeters>19.6000003814697265625</AltitudeMeters>
            <DistanceMeters>NAN</DistanceMeters>
          </Trackpoint>
          <Trackpoint>
            <Time>2022-07-06T12:54:27.000Z</Time>
            <Position>
              <LatitudeDegrees>44.01069913990795612335205078125</LatitudeDegrees>
              <LongitudeDegrees>-1.32730110548436641693115234375</LongitudeDegrees>
            </Position>
            <AltitudeMeters>19.6000003814697265625</AltitudeMeters>
            <DistanceMeters>NAN</DistanceMeters>
          </Trackpoint>
          <Trackpoint>
            <Time>2022-07-06T12:54:33.000Z</Time>
            <Position>
              <LatitudeDegrees>44.01050702668726444244384765625</LatitudeDegrees>
              <LongitudeDegrees>-1.32729113101959228515625</LongitudeDegrees>
            </Position>
            <AltitudeMeters>19.799999237060546875</AltitudeMeters>
            <DistanceMeters>NAN</DistanceMeters>
          </Trackpoint>
          <Trackpoint>
            <Time>2022-07-06T12:54:38.000Z</Time>
            <Position>
              <LatitudeDegrees>44.01029546745121479034423828125</LatitudeDegrees>
              <LongitudeDegrees>-1.3272736966609954833984375</LongitudeDegrees>
            </Position>
            <AltitudeMeters>19.6000003814697265625</AltitudeMeters>
            <DistanceMeters>NAN</DistanceMeters>
          </Trackpoint>
          <Trackpoint>
            <Time>2022-07-06T12:54:39.000Z</Time>
            <Position>
              <LatitudeDegrees>44.010247774422168731689453125</LatitudeDegrees>
              <LongitudeDegrees>-1.3272785581648349761962890625</LongitudeDegrees>
            </Position>
            <AltitudeMeters>19.3999996185302734375</AltitudeMeters>
            <DistanceMeters>NAN</DistanceMeters>
          </Trackpoint>
          <Trackpoint>
            <Time>2022-07-06T12:54:43.000Z</Time>
            <Position>
              <LatitudeDegrees>44.00997578166425228118896484375</LatitudeDegrees>
              <LongitudeDegrees>-1.32731317542493343353271484375</LongitudeDegrees>
            </Position>
            <AltitudeMeters>18.3999996185302734375</AltitudeMeters>
            <DistanceMeters>NAN</DistanceMeters>
          </Trackpoint>
          <Trackpoint>
            <Time>2022-07-06T12:54:48.000Z</Time>
            <Position>
              <LatitudeDegrees>44.00953941978514194488525390625</LatitudeDegrees>
              <LongitudeDegrees>-1.327342428267002105712890625</LongitudeDegrees>
            </Position>
            <AltitudeMeters>17.3999996185302734375</AltitudeMeters>
            <DistanceMeters>NAN</DistanceMeters>
          </Trackpoint>
          <Trackpoint>
            <Time>2022-07-06T12:54:52.000Z</Time>
            <Position>
              <LatitudeDegrees>44.0092300437390804290771484375</LatitudeDegrees>
              <LongitudeDegrees>-1.32740939967334270477294921875</LongitudeDegrees>
            </Position>
            <AltitudeMeters>16.200000762939453125</AltitudeMeters>
            <DistanceMeters>NAN</DistanceMeters>
          </Trackpoint>
          <Trackpoint>
            <Time>2022-07-06T12:54:53.000Z</Time>
            <Position>
              <LatitudeDegrees>44.0091557800769805908203125</LatitudeDegrees>
              <LongitudeDegrees>-1.3274398259818553924560546875</LongitudeDegrees>
            </Position>
            <AltitudeMeters>16</AltitudeMeters>
            <DistanceMeters>NAN</DistanceMeters>
          </Trackpoint>
          <Trackpoint>
            <Time>2022-07-06T12:54:57.000Z</Time>
            <Position>
              <LatitudeDegrees>44.0089044906198978424072265625</LatitudeDegrees>
              <LongitudeDegrees>-1.3275365531444549560546875</LongitudeDegrees>
            </Position>
            <AltitudeMeters>15.19999980926513671875</AltitudeMeters>
            <DistanceMeters>NAN</DistanceMeters>
          </Trackpoint>
          <Trackpoint>
            <Time>2022-07-06T12:54:58.000Z</Time>
            <Position>
              <LatitudeDegrees>44.0088473260402679443359375</LatitudeDegrees>
              <LongitudeDegrees>-1.3275622017681598663330078125</LongitudeDegrees>
            </Position>
            <AltitudeMeters>15</AltitudeMeters>
            <DistanceMeters>NAN</DistanceMeters>
          </Trackpoint>
          <Trackpoint>
            <Time>2022-07-06T12:54:59.000Z</Time>
            <Position>
              <LatitudeDegrees>44.00878773070871829986572265625</LatitudeDegrees>
              <LongitudeDegrees>-1.327585168182849884033203125</LongitudeDegrees>
            </Position>
            <AltitudeMeters>14.3999996185302734375</AltitudeMeters>
            <DistanceMeters>NAN</DistanceMeters>
          </Trackpoint>
          <Trackpoint>
            <Time>2022-07-06T12:55:00.000Z</Time>
            <Position>
              <LatitudeDegrees>44.0087291412055492401123046875</LatitudeDegrees>
              <LongitudeDegrees>-1.32760318927466869354248046875</LongitudeDegrees>
            </Position>
            <AltitudeMeters>13.80000019073486328125</AltitudeMeters>
            <DistanceMeters>NAN</DistanceMeters>
          </Trackpoint>
          <Trackpoint>
            <Time>2022-07-06T12:55:03.000Z</Time>
            <Position>
              <LatitudeDegrees>44.00856343097984790802001953125</LatitudeDegrees>
              <LongitudeDegrees>-1.32764845155179500579833984375</LongitudeDegrees>
            </Position>
            <AltitudeMeters>13.19999980926513671875</AltitudeMeters>
            <DistanceMeters>NAN</DistanceMeters>
          </Trackpoint>
          <Trackpoint>
            <Time>2022-07-06T12:55:08.000Z</Time>
            <Position>
              <LatitudeDegrees>44.00829638354480266571044921875</LatitudeDegrees>
              <LongitudeDegrees>-1.32772942073643207550048828125</LongitudeDegrees>
            </Position>
            <AltitudeMeters>13</AltitudeMeters>
            <DistanceMeters>NAN</DistanceMeters>
          </Trackpoint>
          <Trackpoint>
            <Time>2022-07-06T12:55:10.000Z</Time>
            <Position>
              <LatitudeDegrees>44.00818473659455776214599609375</LatitudeDegrees>
              <LongitudeDegrees>-1.327754147350788116455078125</LongitudeDegrees>
            </Position>
            <AltitudeMeters>13</AltitudeMeters>
            <DistanceMeters>NAN</DistanceMeters>
          </Trackpoint>
          <Trackpoint>
            <Time>2022-07-06T12:55:14.000Z</Time>
            <Position>
              <LatitudeDegrees>44.007947109639644622802734375</LatitudeDegrees>
              <LongitudeDegrees>-1.32784559391438961029052734375</LongitudeDegrees>
            </Position>
            <AltitudeMeters>13.3999996185302734375</AltitudeMeters>
            <DistanceMeters>NAN</DistanceMeters>
          </Trackpoint>
          <Trackpoint>
            <Time>2022-07-06T12:55:17.000Z</Time>
            <Position>
              <LatitudeDegrees>44.00779531337320804595947265625</LatitudeDegrees>
              <LongitudeDegrees>-1.32788297720253467559814453125</LongitudeDegrees>
            </Position>
            <AltitudeMeters>13.6000003814697265625</AltitudeMeters>
            <DistanceMeters>NAN</DistanceMeters>
          </Trackpoint>
          <Trackpoint>
            <Time>2022-07-06T12:55:22.000Z</Time>
            <Position>
              <LatitudeDegrees>44.00753782130777835845947265625</LatitudeDegrees>
              <LongitudeDegrees>-1.32793025113642215728759765625</LongitudeDegrees>
            </Position>
            <AltitudeMeters>13.80000019073486328125</AltitudeMeters>
            <DistanceMeters>NAN</DistanceMeters>
          </Trackpoint>
          <Trackpoint>
            <Time>2022-07-06T12:55:25.000Z</Time>
            <Position>
              <LatitudeDegrees>44.0074021182954311370849609375</LatitudeDegrees>
              <LongitudeDegrees>-1.32795631885528564453125</LongitudeDegrees>
            </Position>
            <AltitudeMeters>14</AltitudeMeters>
            <DistanceMeters>NAN</DistanceMeters>
          </Trackpoint>
          <Trackpoint>
            <Time>2022-07-06T12:55:26.000Z</Time>
            <Position>
              <LatitudeDegrees>44.00735559873282909393310546875</LatitudeDegrees>
              <LongitudeDegrees>-1.32796227000653743743896484375</LongitudeDegrees>
            </Position>
            <AltitudeMeters>14</AltitudeMeters>
            <DistanceMeters>NAN</DistanceMeters>
          </Trackpoint>
          <Trackpoint>
            <Time>2022-07-06T12:55:31.000Z</Time>
            <Position>
              <LatitudeDegrees>44.00711704976856708526611328125</LatitudeDegrees>
              <LongitudeDegrees>-1.32802211679518222808837890625</LongitudeDegrees>
            </Position>
            <AltitudeMeters>14</AltitudeMeters>
            <DistanceMeters>NAN</DistanceMeters>
          </Trackpoint>
          <Trackpoint>
            <Time>2022-07-06T12:55:37.000Z</Time>
            <Position>
              <LatitudeDegrees>44.0068854577839374542236328125</LatitudeDegrees>
              <LongitudeDegrees>-1.32804491557180881500244140625</LongitudeDegrees>
            </Position>
            <AltitudeMeters>13.6000003814697265625</AltitudeMeters>
            <DistanceMeters>NAN</DistanceMeters>
          </Trackpoint>
          <Trackpoint>
            <Time>2022-07-06T12:55:42.000Z</Time>
            <Position>
              <LatitudeDegrees>44.00671069510281085968017578125</LatitudeDegrees>
              <LongitudeDegrees>-1.32803401909768581390380859375</LongitudeDegrees>
            </Position>
            <AltitudeMeters>13.80000019073486328125</AltitudeMeters>
            <DistanceMeters>NAN</DistanceMeters>
          </Trackpoint>
          <Trackpoint>
            <Time>2022-07-06T12:55:46.000Z</Time>
            <Position>
              <LatitudeDegrees>44.006491340696811676025390625</LatitudeDegrees>
              <LongitudeDegrees>-1.3280473463237285614013671875</LongitudeDegrees>
            </Position>
            <AltitudeMeters>13.80000019073486328125</AltitudeMeters>
            <DistanceMeters>NAN</DistanceMeters>
          </Trackpoint>
          <Trackpoint>
            <Time>2022-07-06T12:55:52.000Z</Time>
            <Position>
              <LatitudeDegrees>44.006164781749248504638671875</LatitudeDegrees>
              <LongitudeDegrees>-1.32815186865627765655517578125</LongitudeDegrees>
            </Position>
            <AltitudeMeters>13.80000019073486328125</AltitudeMeters>
            <DistanceMeters>NAN</DistanceMeters>
          </Trackpoint>
          <Trackpoint>
            <Time>2022-07-06T12:55:53.000Z</Time>
            <Position>
              <LatitudeDegrees>44.006115496158599853515625</LatitudeDegrees>
              <LongitudeDegrees>-1.3281667046248912811279296875</LongitudeDegrees>
            </Position>
            <AltitudeMeters>13.80000019073486328125</AltitudeMeters>
            <DistanceMeters>NAN</DistanceMeters>
          </Trackpoint>
          <Trackpoint>
            <Time>2022-07-06T12:55:57.000Z</Time>
            <Position>
              <LatitudeDegrees>44.0059800446033477783203125</LatitudeDegrees>
              <LongitudeDegrees>-1.32817617617547512054443359375</LongitudeDegrees>
            </Position>
            <AltitudeMeters>14.19999980926513671875</AltitudeMeters>
            <DistanceMeters>NAN</DistanceMeters>
          </Trackpoint>
          <Trackpoint>
            <Time>2022-07-06T12:56:03.000Z</Time>
            <Position>
              <LatitudeDegrees>44.005756080150604248046875</LatitudeDegrees>
              <LongitudeDegrees>-1.32820785976946353912353515625</LongitudeDegrees>
            </Position>
            <AltitudeMeters>14.6000003814697265625</AltitudeMeters>
            <DistanceMeters>NAN</DistanceMeters>
          </Trackpoint>
          <Trackpoint>
            <Time>2022-07-06T12:56:09.000Z</Time>
            <Position>
              <LatitudeDegrees>44.00549900718033313751220703125</LatitudeDegrees>
              <LongitudeDegrees>-1.32821582257747650146484375</LongitudeDegrees>
            </Position>
            <AltitudeMeters>14.19999980926513671875</AltitudeMeters>
            <DistanceMeters>NAN</DistanceMeters>
          </Trackpoint>
          <Trackpoint>
            <Time>2022-07-06T12:56:13.000Z</Time>
            <Position>
              <LatitudeDegrees>44.005370177328586578369140625</LatitudeDegrees>
              <LongitudeDegrees>-1.32821582257747650146484375</LongitudeDegrees>
            </Position>
            <AltitudeMeters>14.6000003814697265625</AltitudeMeters>
            <DistanceMeters>NAN</DistanceMeters>
          </Trackpoint>
          <Trackpoint>
            <Time>2022-07-06T12:56:14.000Z</Time>
            <Position>
              <LatitudeDegrees>44.0053425170481204986572265625</LatitudeDegrees>
              <LongitudeDegrees>-1.3282260484993457794189453125</LongitudeDegrees>
            </Position>
            <AltitudeMeters>14.80000019073486328125</AltitudeMeters>
            <DistanceMeters>NAN</DistanceMeters>
          </Trackpoint>
          <Trackpoint>
            <Time>2022-07-06T12:56:19.000Z</Time>
            <Position>
              <LatitudeDegrees>44.00519977323710918426513671875</LatitudeDegrees>
              <LongitudeDegrees>-1.32825345732271671295166015625</LongitudeDegrees>
            </Position>
            <AltitudeMeters>15.3999996185302734375</AltitudeMeters>
            <DistanceMeters>NAN</DistanceMeters>
          </Trackpoint>
          <Trackpoint>
            <Time>2022-07-06T12:56:26.000Z</Time>
            <Position>
              <LatitudeDegrees>44.0049800835549831390380859375</LatitudeDegrees>
              <LongitudeDegrees>-1.32829905487596988677978515625</LongitudeDegrees>
            </Position>
            <AltitudeMeters>15.6000003814697265625</AltitudeMeters>
            <DistanceMeters>NAN</DistanceMeters>
          </Trackpoint>
          <Trackpoint>
            <Time>2022-07-06T12:56:33.000Z</Time>
            <Position>
              <LatitudeDegrees>44.0047906525433063507080078125</LatitudeDegrees>
              <LongitudeDegrees>-1.32844305597245693206787109375</LongitudeDegrees>
            </Position>
            <AltitudeMeters>15.6000003814697265625</AltitudeMeters>
            <DistanceMeters>NAN</DistanceMeters>
          </Trackpoint>
          <Trackpoint>
            <Time>2022-07-06T12:56:38.000Z</Time>
            <Position>
              <LatitudeDegrees>44.00463516823947429656982421875</LatitudeDegrees>
              <LongitudeDegrees>-1.3285774178802967071533203125</LongitudeDegrees>
            </Position>
            <AltitudeMeters>15.6000003814697265625</AltitudeMeters>
            <DistanceMeters>NAN</DistanceMeters>
          </Trackpoint>
          <Trackpoint>
            <Time>2022-07-06T12:56:39.000Z</Time>
            <Position>
              <LatitudeDegrees>44.00460650213062763214111328125</LatitudeDegrees>
              <LongitudeDegrees>-1.32860516197979450225830078125</LongitudeDegrees>
            </Position>
            <AltitudeMeters>15.6000003814697265625</AltitudeMeters>
            <DistanceMeters>NAN</DistanceMeters>
          </Trackpoint>
          <Trackpoint>
            <Time>2022-07-06T12:56:45.000Z</Time>
            <Position>
              <LatitudeDegrees>44.00440231896936893463134765625</LatitudeDegrees>
              <LongitudeDegrees>-1.32884371094405651092529296875</LongitudeDegrees>
            </Position>
            <AltitudeMeters>15.6000003814697265625</AltitudeMeters>
            <DistanceMeters>NAN</DistanceMeters>
          </Trackpoint>
          <Trackpoint>
            <Time>2022-07-06T12:56:46.000Z</Time>
            <Position>
              <LatitudeDegrees>44.004366695880889892578125</LatitudeDegrees>
              <LongitudeDegrees>-1.32888293825089931488037109375</LongitudeDegrees>
            </Position>
            <AltitudeMeters>15.6000003814697265625</AltitudeMeters>
            <DistanceMeters>NAN</DistanceMeters>
          </Trackpoint>
          <Trackpoint>
            <Time>2022-07-06T12:56:49.000Z</Time>
            <Position>
              <LatitudeDegrees>44.00425027124583721160888671875</LatitudeDegrees>
              <LongitudeDegrees>-1.32899089716374874114990234375</LongitudeDegrees>
            </Position>
            <AltitudeMeters>15.3999996185302734375</AltitudeMeters>
            <DistanceMeters>NAN</DistanceMeters>
          </Trackpoint>
          <Trackpoint>
            <Time>2022-07-06T12:56:51.000Z</Time>
            <Position>
              <LatitudeDegrees>44.004184305667877197265625</LatitudeDegrees>
              <LongitudeDegrees>-1.329069435596466064453125</LongitudeDegrees>
            </Position>
            <AltitudeMeters>15.3999996185302734375</AltitudeMeters>
            <DistanceMeters>NAN</DistanceMeters>
          </Trackpoint>
          <Trackpoint>
            <Time>2022-07-06T12:56:53.000Z</Time>
            <Position>
              <LatitudeDegrees>44.0041244588792324066162109375</LatitudeDegrees>
              <LongitudeDegrees>-1.32914294488728046417236328125</LongitudeDegrees>
            </Position>
            <AltitudeMeters>15.6000003814697265625</AltitudeMeters>
            <DistanceMeters>NAN</DistanceMeters>
          </Trackpoint>
          <Trackpoint>
            <Time>2022-07-06T12:56:55.000Z</Time>
            <Position>
              <LatitudeDegrees>44.00405891239643096923828125</LatitudeDegrees>
              <LongitudeDegrees>-1.32920421659946441650390625</LongitudeDegrees>
            </Position>
            <AltitudeMeters>15.6000003814697265625</AltitudeMeters>
            <DistanceMeters>NAN</DistanceMeters>
          </Trackpoint>
          <Trackpoint>
            <Time>2022-07-06T12:56:56.000Z</Time>
            <Position>
              <LatitudeDegrees>44.00402144528925418853759765625</LatitudeDegrees>
              <LongitudeDegrees>-1.32922374643385410308837890625</LongitudeDegrees>
            </Position>
            <AltitudeMeters>15.6000003814697265625</AltitudeMeters>
            <DistanceMeters>NAN</DistanceMeters>
          </Trackpoint>
          <Trackpoint>
            <Time>2022-07-06T12:56:57.000Z</Time>
            <Position>
              <LatitudeDegrees>44.00398238562047481536865234375</LatitudeDegrees>
              <LongitudeDegrees>-1.329237408936023712158203125</LongitudeDegrees>
            </Position>
            <AltitudeMeters>15.6000003814697265625</AltitudeMeters>
            <DistanceMeters>NAN</DistanceMeters>
          </Trackpoint>
          <Trackpoint>
            <Time>2022-07-06T12:57:01.000Z</Time>
            <Position>
              <LatitudeDegrees>44.00383855216205120086669921875</LatitudeDegrees>
              <LongitudeDegrees>-1.32924788631498813629150390625</LongitudeDegrees>
            </Position>
            <AltitudeMeters>15.80000019073486328125</AltitudeMeters>
            <DistanceMeters>NAN</DistanceMeters>
          </Trackpoint>
          <Trackpoint>
            <Time>2022-07-06T12:57:03.000Z</Time>
            <Position>
              <LatitudeDegrees>44.00378356687724590301513671875</LatitudeDegrees>
              <LongitudeDegrees>-1.32924352772533893585205078125</LongitudeDegrees>
            </Position>
            <AltitudeMeters>16</AltitudeMeters>
            <DistanceMeters>NAN</DistanceMeters>
          </Trackpoint>
          <Trackpoint>
            <Time>2022-07-06T12:57:06.000Z</Time>
            <Position>
              <LatitudeDegrees>44.0037087164819240570068359375</LatitudeDegrees>
              <LongitudeDegrees>-1.32923363707959651947021484375</LongitudeDegrees>
            </Position>
            <AltitudeMeters>16.3999996185302734375</AltitudeMeters>
            <DistanceMeters>NAN</DistanceMeters>
          </Trackpoint>
          <Trackpoint>
            <Time>2022-07-06T12:57:12.000Z</Time>
            <Position>
              <LatitudeDegrees>44.003595225512981414794921875</LatitudeDegrees>
              <LongitudeDegrees>-1.32924570702016353607177734375</LongitudeDegrees>
            </Position>
            <AltitudeMeters>17</AltitudeMeters>
            <DistanceMeters>NAN</DistanceMeters>
          </Trackpoint>
          <Trackpoint>
            <Time>2022-07-06T12:57:18.000Z</Time>
            <Position>
              <LatitudeDegrees>44.00348735041916370391845703125</LatitudeDegrees>
              <LongitudeDegrees>-1.32928174920380115509033203125</LongitudeDegrees>
            </Position>
            <AltitudeMeters>17.3999996185302734375</AltitudeMeters>
            <DistanceMeters>NAN</DistanceMeters>
          </Trackpoint>
          <Trackpoint>
            <Time>2022-07-06T12:57:22.000Z</Time>
            <Position>
              <LatitudeDegrees>44.00342716835439205169677734375</LatitudeDegrees>
              <LongitudeDegrees>-1.32929113693535327911376953125</LongitudeDegrees>
            </Position>
            <AltitudeMeters>18.3999996185302734375</AltitudeMeters>
            <DistanceMeters>NAN</DistanceMeters>
          </Trackpoint>
          <Trackpoint>
            <Time>2022-07-06T12:57:26.000Z</Time>
            <Position>
              <LatitudeDegrees>44.00338006205856800079345703125</LatitudeDegrees>
              <LongitudeDegrees>-1.3292962498962879180908203125</LongitudeDegrees>
            </Position>
            <AltitudeMeters>18.799999237060546875</AltitudeMeters>
            <DistanceMeters>NAN</DistanceMeters>
          </Trackpoint>
          <Trackpoint>
            <Time>2022-07-06T12:57:30.000Z</Time>
            <Position>
              <LatitudeDegrees>44.0033127553761005401611328125</LatitudeDegrees>
              <LongitudeDegrees>-1.32930345833301544189453125</LongitudeDegrees>
            </Position>
            <AltitudeMeters>19.200000762939453125</AltitudeMeters>
            <DistanceMeters>NAN</DistanceMeters>
          </Trackpoint>
          <Trackpoint>
            <Time>2022-07-06T12:57:31.000Z</Time>
            <Position>
              <LatitudeDegrees>44.0033003501594066619873046875</LatitudeDegrees>
              <LongitudeDegrees>-1.329301781952381134033203125</LongitudeDegrees>
            </Position>
            <AltitudeMeters>19.3999996185302734375</AltitudeMeters>
            <DistanceMeters>NAN</DistanceMeters>
          </Trackpoint>
          <Trackpoint>
            <Time>2022-07-06T12:57:33.000Z</Time>
            <Position>
              <LatitudeDegrees>44.003259949386119842529296875</LatitudeDegrees>
              <LongitudeDegrees>-1.329289041459560394287109375</LongitudeDegrees>
            </Position>
            <AltitudeMeters>19.3999996185302734375</AltitudeMeters>
            <DistanceMeters>NAN</DistanceMeters>
          </Trackpoint>
          <Trackpoint>
            <Time>2022-07-06T12:57:40.000Z</Time>
            <Position>
              <LatitudeDegrees>44.0030966699123382568359375</LatitudeDegrees>
              <LongitudeDegrees>-1.32926096208393573760986328125</LongitudeDegrees>
            </Position>
            <AltitudeMeters>20</AltitudeMeters>
            <DistanceMeters>NAN</DistanceMeters>
          </Trackpoint>
          <Trackpoint>
            <Time>2022-07-06T12:57:44.000Z</Time>
            <Position>
              <LatitudeDegrees>44.00298736989498138427734375</LatitudeDegrees>
              <LongitudeDegrees>-1.3293676637113094329833984375</LongitudeDegrees>
            </Position>
            <AltitudeMeters>20.200000762939453125</AltitudeMeters>
            <DistanceMeters>NAN</DistanceMeters>
          </Trackpoint>
          <Trackpoint>
            <Time>2022-07-06T12:57:48.000Z</Time>
            <Position>
              <LatitudeDegrees>44.0028740465641021728515625</LatitudeDegrees>
              <LongitudeDegrees>-1.329510323703289031982421875</LongitudeDegrees>
            </Position>
            <AltitudeMeters>20.3999996185302734375</AltitudeMeters>
            <DistanceMeters>NAN</DistanceMeters>
          </Trackpoint>
          <Trackpoint>
            <Time>2022-07-06T12:57:51.000Z</Time>
            <Position>
              <LatitudeDegrees>44.00276969186961650848388671875</LatitudeDegrees>
              <LongitudeDegrees>-1.3296394050121307373046875</LongitudeDegrees>
            </Position>
            <AltitudeMeters>19.799999237060546875</AltitudeMeters>
            <DistanceMeters>NAN</DistanceMeters>
          </Trackpoint>
          <Trackpoint>
            <Time>2022-07-06T12:57:57.000Z</Time>
            <Position>
              <LatitudeDegrees>44.0025593899190425872802734375</LatitudeDegrees>
              <LongitudeDegrees>-1.329938136041164398193359375</LongitudeDegrees>
            </Position>
            <AltitudeMeters>18.799999237060546875</AltitudeMeters>
            <DistanceMeters>NAN</DistanceMeters>
          </Trackpoint>
          <Trackpoint>
            <Time>2022-07-06T12:58:00.000Z</Time>
            <Position>
              <LatitudeDegrees>44.00243885815143585205078125</LatitudeDegrees>
              <LongitudeDegrees>-1.33009496144950389862060546875</LongitudeDegrees>
            </Position>
            <AltitudeMeters>18.200000762939453125</AltitudeMeters>
            <DistanceMeters>NAN</DistanceMeters>
          </Trackpoint>
          <Trackpoint>
            <Time>2022-07-06T12:58:02.000Z</Time>
            <Position>
              <LatitudeDegrees>44.0023407898843288421630859375</LatitudeDegrees>
              <LongitudeDegrees>-1.33022186346352100372314453125</LongitudeDegrees>
            </Position>
            <AltitudeMeters>18</AltitudeMeters>
            <DistanceMeters>NAN</DistanceMeters>
          </Trackpoint>
          <Trackpoint>
            <Time>2022-07-06T12:58:04.000Z</Time>
            <Position>
              <LatitudeDegrees>44.00223559699952602386474609375</LatitudeDegrees>
              <LongitudeDegrees>-1.330349855124950408935546875</LongitudeDegrees>
            </Position>
            <AltitudeMeters>17.6000003814697265625</AltitudeMeters>
            <DistanceMeters>NAN</DistanceMeters>
          </Trackpoint>
          <Trackpoint>
            <Time>2022-07-06T12:58:06.000Z</Time>
            <Position>
              <LatitudeDegrees>44.0021364390850067138671875</LatitudeDegrees>
              <LongitudeDegrees>-1.330505423247814178466796875</LongitudeDegrees>
            </Position>
            <AltitudeMeters>16.799999237060546875</AltitudeMeters>
            <DistanceMeters>NAN</DistanceMeters>
          </Trackpoint>
          <Trackpoint>
            <Time>2022-07-06T12:58:07.000Z</Time>
            <Position>
              <LatitudeDegrees>44.00209092535078525543212890625</LatitudeDegrees>
              <LongitudeDegrees>-1.33058764971792697906494140625</LongitudeDegrees>
            </Position>
            <AltitudeMeters>16.6000003814697265625</AltitudeMeters>
            <DistanceMeters>NAN</DistanceMeters>
          </Trackpoint>
          <Trackpoint>
            <Time>2022-07-06T12:58:10.000Z</Time>
            <Position>
              <LatitudeDegrees>44.0019652806222438812255859375</LatitudeDegrees>
              <LongitudeDegrees>-1.330858804285526275634765625</LongitudeDegrees>
            </Position>
            <AltitudeMeters>15.80000019073486328125</AltitudeMeters>
            <DistanceMeters>NAN</DistanceMeters>
          </Trackpoint>
          <Trackpoint>
            <Time>2022-07-06T12:58:12.000Z</Time>
            <Position>
              <LatitudeDegrees>44.0018801204860210418701171875</LatitudeDegrees>
              <LongitudeDegrees>-1.3310480676591396331787109375</LongitudeDegrees>
            </Position>
            <AltitudeMeters>15.19999980926513671875</AltitudeMeters>
            <DistanceMeters>NAN</DistanceMeters>
          </Trackpoint>
          <Trackpoint>
            <Time>2022-07-06T12:58:13.000Z</Time>
            <Position>
              <LatitudeDegrees>44.00185086764395236968994140625</LatitudeDegrees>
              <LongitudeDegrees>-1.331143788993358612060546875</LongitudeDegrees>
            </Position>
            <AltitudeMeters>15.19999980926513671875</AltitudeMeters>
            <DistanceMeters>NAN</DistanceMeters>
          </Trackpoint>
          <Trackpoint>
            <Time>2022-07-06T12:58:14.000Z</Time>
            <Position>
              <LatitudeDegrees>44.0018348582088947296142578125</LatitudeDegrees>
              <LongitudeDegrees>-1.33124135434627532958984375</LongitudeDegrees>
            </Position>
            <AltitudeMeters>15</AltitudeMeters>
            <DistanceMeters>NAN</DistanceMeters>
          </Trackpoint>
          <Trackpoint>
            <Time>2022-07-06T12:58:15.000Z</Time>
            <Position>
              <LatitudeDegrees>44.0018204413354396820068359375</LatitudeDegrees>
              <LongitudeDegrees>-1.3313384167850017547607421875</LongitudeDegrees>
            </Position>
            <AltitudeMeters>14.6000003814697265625</AltitudeMeters>
            <DistanceMeters>NAN</DistanceMeters>
          </Trackpoint>
          <Trackpoint>
            <Time>2022-07-06T12:58:17.000Z</Time>
            <Position>
              <LatitudeDegrees>44.00179185904562473297119140625</LatitudeDegrees>
              <LongitudeDegrees>-1.33150848560035228729248046875</LongitudeDegrees>
            </Position>
            <AltitudeMeters>14.19999980926513671875</AltitudeMeters>
            <DistanceMeters>NAN</DistanceMeters>
          </Trackpoint>
          <Trackpoint>
            <Time>2022-07-06T12:58:21.000Z</Time>
            <Position>
              <LatitudeDegrees>44.00172480382025241851806640625</LatitudeDegrees>
              <LongitudeDegrees>-1.33171970956027507781982421875</LongitudeDegrees>
            </Position>
            <AltitudeMeters>14.19999980926513671875</AltitudeMeters>
            <DistanceMeters>NAN</DistanceMeters>
          </Trackpoint>
          <Trackpoint>
            <Time>2022-07-06T12:58:24.000Z</Time>
            <Position>
              <LatitudeDegrees>44.0016813017427921295166015625</LatitudeDegrees>
              <LongitudeDegrees>-1.33181132376194000244140625</LongitudeDegrees>
            </Position>
            <AltitudeMeters>14.6000003814697265625</AltitudeMeters>
            <DistanceMeters>NAN</DistanceMeters>
          </Trackpoint>
          <Trackpoint>
            <Time>2022-07-06T12:58:27.000Z</Time>
            <Position>
              <LatitudeDegrees>44.0016380511224269866943359375</LatitudeDegrees>
              <LongitudeDegrees>-1.331923305988311767578125</LongitudeDegrees>
            </Position>
            <AltitudeMeters>15.19999980926513671875</AltitudeMeters>
            <DistanceMeters>NAN</DistanceMeters>
          </Trackpoint>
          <Trackpoint>
            <Time>2022-07-06T12:58:31.000Z</Time>
            <Position>
              <LatitudeDegrees>44.00155766867101192474365234375</LatitudeDegrees>
              <LongitudeDegrees>-1.33208717219531536102294921875</LongitudeDegrees>
            </Position>
            <AltitudeMeters>15.3999996185302734375</AltitudeMeters>
            <DistanceMeters>NAN</DistanceMeters>
          </Trackpoint>
          <Trackpoint>
            <Time>2022-07-06T12:58:32.000Z</Time>
            <Position>
              <LatitudeDegrees>44.0015354566276073455810546875</LatitudeDegrees>
              <LongitudeDegrees>-1.3321273215115070343017578125</LongitudeDegrees>
            </Position>
            <AltitudeMeters>15.3999996185302734375</AltitudeMeters>
            <DistanceMeters>NAN</DistanceMeters>
          </Trackpoint>
          <Trackpoint>
            <Time>2022-07-06T12:58:33.000Z</Time>
            <Position>
              <LatitudeDegrees>44.00151877664029598236083984375</LatitudeDegrees>
              <LongitudeDegrees>-1.33216881193220615386962890625</LongitudeDegrees>
            </Position>
            <AltitudeMeters>15.3999996185302734375</AltitudeMeters>
            <DistanceMeters>NAN</DistanceMeters>
          </Trackpoint>
          <Trackpoint>
            <Time>2022-07-06T12:58:37.000Z</Time>
            <Position>
              <LatitudeDegrees>44.00142171420156955718994140625</LatitudeDegrees>
              <LongitudeDegrees>-1.33233703672885894775390625</LongitudeDegrees>
            </Position>
            <AltitudeMeters>15.3999996185302734375</AltitudeMeters>
            <DistanceMeters>NAN</DistanceMeters>
          </Trackpoint>
          <Trackpoint>
            <Time>2022-07-06T12:58:39.000Z</Time>
            <Position>
              <LatitudeDegrees>44.0013795532286167144775390625</LatitudeDegrees>
              <LongitudeDegrees>-1.33239914663136005401611328125</LongitudeDegrees>
            </Position>
            <AltitudeMeters>15.6000003814697265625</AltitudeMeters>
            <DistanceMeters>NAN</DistanceMeters>
          </Trackpoint>
          <Trackpoint>
            <Time>2022-07-06T12:58:40.000Z</Time>
            <Position>
              <LatitudeDegrees>44.0013604424893856048583984375</LatitudeDegrees>
              <LongitudeDegrees>-1.33243217132985591888427734375</LongitudeDegrees>
            </Position>
            <AltitudeMeters>15.6000003814697265625</AltitudeMeters>
            <DistanceMeters>NAN</DistanceMeters>
          </Trackpoint>
          <Trackpoint>
            <Time>2022-07-06T12:58:45.000Z</Time>
            <Position>
              <LatitudeDegrees>44.0012836642563343048095703125</LatitudeDegrees>
              <LongitudeDegrees>-1.3325737416744232177734375</LongitudeDegrees>
            </Position>
            <AltitudeMeters>15.80000019073486328125</AltitudeMeters>
            <DistanceMeters>NAN</DistanceMeters>
          </Trackpoint>
          <Trackpoint>
            <Time>2022-07-06T12:58:46.000Z</Time>
            <Position>
              <LatitudeDegrees>44.00126270949840545654296875</LatitudeDegrees>
              <LongitudeDegrees>-1.33259830065071582794189453125</LongitudeDegrees>
            </Position>
            <AltitudeMeters>16</AltitudeMeters>
            <DistanceMeters>NAN</DistanceMeters>
          </Trackpoint>
          <Trackpoint>
            <Time>2022-07-06T12:58:48.000Z</Time>
            <Position>
              <LatitudeDegrees>44.001237563788890838623046875</LatitudeDegrees>
              <LongitudeDegrees>-1.3326354324817657470703125</LongitudeDegrees>
            </Position>
            <AltitudeMeters>16.3999996185302734375</AltitudeMeters>
            <DistanceMeters>NAN</DistanceMeters>
          </Trackpoint>
          <Trackpoint>
            <Time>2022-07-06T12:58:50.000Z</Time>
            <Position>
              <LatitudeDegrees>44.00121518410742282867431640625</LatitudeDegrees>
              <LongitudeDegrees>-1.3326734863221645355224609375</LongitudeDegrees>
            </Position>
            <AltitudeMeters>16.799999237060546875</AltitudeMeters>
            <DistanceMeters>NAN</DistanceMeters>
          </Trackpoint>
          <Trackpoint>
            <Time>2022-07-06T12:58:54.000Z</Time>
            <Position>
              <LatitudeDegrees>44.001143686473369598388671875</LatitudeDegrees>
              <LongitudeDegrees>-1.3327847979962825775146484375</LongitudeDegrees>
            </Position>
            <AltitudeMeters>17.6000003814697265625</AltitudeMeters>
            <DistanceMeters>NAN</DistanceMeters>
          </Trackpoint>
          <Trackpoint>
            <Time>2022-07-06T12:58:56.000Z</Time>
            <Position>
              <LatitudeDegrees>44.0011091530323028564453125</LatitudeDegrees>
              <LongitudeDegrees>-1.3328297249972820281982421875</LongitudeDegrees>
            </Position>
            <AltitudeMeters>17.799999237060546875</AltitudeMeters>
            <DistanceMeters>NAN</DistanceMeters>
          </Trackpoint>
          <Trackpoint>
            <Time>2022-07-06T12:59:02.000Z</Time>
            <Position>
              <LatitudeDegrees>44.0010633878409862518310546875</LatitudeDegrees>
              <LongitudeDegrees>-1.33292821235954761505126953125</LongitudeDegrees>
            </Position>
            <AltitudeMeters>18.6000003814697265625</AltitudeMeters>
            <DistanceMeters>NAN</DistanceMeters>
          </Trackpoint>
          <Trackpoint>
            <Time>2022-07-06T12:59:03.000Z</Time>
            <Position>
              <LatitudeDegrees>44.00105307810008525848388671875</LatitudeDegrees>
              <LongitudeDegrees>-1.33294397033751010894775390625</LongitudeDegrees>
            </Position>
            <AltitudeMeters>18.6000003814697265625</AltitudeMeters>
            <DistanceMeters>NAN</DistanceMeters>
          </Trackpoint>
          <Trackpoint>
            <Time>2022-07-06T12:59:08.000Z</Time>
            <Position>
              <LatitudeDegrees>44.00099608115851879119873046875</LatitudeDegrees>
              <LongitudeDegrees>-1.33304245769977569580078125</LongitudeDegrees>
            </Position>
            <AltitudeMeters>18.799999237060546875</AltitudeMeters>
            <DistanceMeters>NAN</DistanceMeters>
          </Trackpoint>
          <Trackpoint>
            <Time>2022-07-06T12:59:10.000Z</Time>
            <Position>
              <LatitudeDegrees>44.00096372701227664947509765625</LatitudeDegrees>
              <LongitudeDegrees>-1.33308914490044116973876953125</LongitudeDegrees>
            </Position>
            <AltitudeMeters>18.799999237060546875</AltitudeMeters>
            <DistanceMeters>NAN</DistanceMeters>
          </Trackpoint>
          <Trackpoint>
            <Time>2022-07-06T12:59:17.000Z</Time>
            <Position>
              <LatitudeDegrees>44.00085191242396831512451171875</LatitudeDegrees>
              <LongitudeDegrees>-1.33325359784066677093505859375</LongitudeDegrees>
            </Position>
            <AltitudeMeters>19</AltitudeMeters>
            <DistanceMeters>NAN</DistanceMeters>
          </Trackpoint>
          <Trackpoint>
            <Time>2022-07-06T12:59:23.000Z</Time>
            <Position>
              <LatitudeDegrees>44.00076105259358882904052734375</LatitudeDegrees>
              <LongitudeDegrees>-1.33342735469341278076171875</LongitudeDegrees>
            </Position>
            <AltitudeMeters>18.799999237060546875</AltitudeMeters>
            <DistanceMeters>NAN</DistanceMeters>
          </Trackpoint>
          <Trackpoint>
            <Time>2022-07-06T12:59:28.000Z</Time>
            <Position>
              <LatitudeDegrees>44.00067421607673168182373046875</LatitudeDegrees>
              <LongitudeDegrees>-1.3335743732750415802001953125</LongitudeDegrees>
            </Position>
            <AltitudeMeters>19.200000762939453125</AltitudeMeters>
            <DistanceMeters>NAN</DistanceMeters>
          </Trackpoint>
          <Trackpoint>
            <Time>2022-07-06T12:59:35.000Z</Time>
            <Position>
              <LatitudeDegrees>44.00052912533283233642578125</LatitudeDegrees>
              <LongitudeDegrees>-1.3338251598179340362548828125</LongitudeDegrees>
            </Position>
            <AltitudeMeters>18.799999237060546875</AltitudeMeters>
            <DistanceMeters>NAN</DistanceMeters>
          </Trackpoint>
          <Trackpoint>
            <Time>2022-07-06T12:59:38.000Z</Time>
            <Position>
              <LatitudeDegrees>44.00042527355253696441650390625</LatitudeDegrees>
              <LongitudeDegrees>-1.33399221114814281463623046875</LongitudeDegrees>
            </Position>
            <AltitudeMeters>18.6000003814697265625</AltitudeMeters>
            <DistanceMeters>NAN</DistanceMeters>
          </Trackpoint>
          <Trackpoint>
            <Time>2022-07-06T12:59:40.000Z</Time>
            <Position>
              <LatitudeDegrees>44.00035553611814975738525390625</LatitudeDegrees>
              <LongitudeDegrees>-1.334126405417919158935546875</LongitudeDegrees>
            </Position>
            <AltitudeMeters>18</AltitudeMeters>
            <DistanceMeters>NAN</DistanceMeters>
          </Trackpoint>
          <Trackpoint>
            <Time>2022-07-06T12:59:41.000Z</Time>
            <Position>
              <LatitudeDegrees>44.00032184086740016937255859375</LatitudeDegrees>
              <LongitudeDegrees>-1.33419505320489406585693359375</LongitudeDegrees>
            </Position>
            <AltitudeMeters>17.799999237060546875</AltitudeMeters>
            <DistanceMeters>NAN</DistanceMeters>
          </Trackpoint>
          <Trackpoint>
            <Time>2022-07-06T12:59:44.000Z</Time>
            <Position>
              <LatitudeDegrees>44.00018940679728984832763671875</LatitudeDegrees>
              <LongitudeDegrees>-1.33441532962024211883544921875</LongitudeDegrees>
            </Position>
            <AltitudeMeters>16.6000003814697265625</AltitudeMeters>
            <DistanceMeters>NAN</DistanceMeters>
          </Trackpoint>
          <Trackpoint>
            <Time>2022-07-06T12:59:46.000Z</Time>
            <Position>
              <LatitudeDegrees>44.00007407180964946746826171875</LatitudeDegrees>
              <LongitudeDegrees>-1.334575004875659942626953125</LongitudeDegrees>
            </Position>
            <AltitudeMeters>15.19999980926513671875</AltitudeMeters>
            <DistanceMeters>NAN</DistanceMeters>
          </Trackpoint>
          <Trackpoint>
            <Time>2022-07-06T12:59:50.000Z</Time>
            <Position>
              <LatitudeDegrees>43.99981406517326831817626953125</LatitudeDegrees>
              <LongitudeDegrees>-1.3349577225744724273681640625</LongitudeDegrees>
            </Position>
            <AltitudeMeters>14.19999980926513671875</AltitudeMeters>
            <DistanceMeters>NAN</DistanceMeters>
          </Trackpoint>
          <Trackpoint>
            <Time>2022-07-06T12:59:52.000Z</Time>
            <Position>
              <LatitudeDegrees>43.99972320534288883209228515625</LatitudeDegrees>
              <LongitudeDegrees>-1.33510566316545009613037109375</LongitudeDegrees>
            </Position>
            <AltitudeMeters>14</AltitudeMeters>
            <DistanceMeters>NAN</DistanceMeters>
          </Trackpoint>
          <Trackpoint>
            <Time>2022-07-06T12:59:59.000Z</Time>
            <Position>
              <LatitudeDegrees>43.999356329441070556640625</LatitudeDegrees>
              <LongitudeDegrees>-1.335590220987796783447265625</LongitudeDegrees>
            </Position>
            <AltitudeMeters>13.6000003814697265625</AltitudeMeters>
            <DistanceMeters>NAN</DistanceMeters>
          </Trackpoint>
          <Trackpoint>
            <Time>2022-07-06T13:00:03.000Z</Time>
            <Position>
              <LatitudeDegrees>43.9992622844874858856201171875</LatitudeDegrees>
              <LongitudeDegrees>-1.3357137702405452728271484375</LongitudeDegrees>
            </Position>
            <AltitudeMeters>13.80000019073486328125</AltitudeMeters>
            <DistanceMeters>NAN</DistanceMeters>
          </Trackpoint>
          <Trackpoint>
            <Time>2022-07-06T13:00:08.000Z</Time>
            <Position>
              <LatitudeDegrees>43.99909925647079944610595703125</LatitudeDegrees>
              <LongitudeDegrees>-1.33582382462918758392333984375</LongitudeDegrees>
            </Position>
            <AltitudeMeters>14.19999980926513671875</AltitudeMeters>
            <DistanceMeters>NAN</DistanceMeters>
          </Trackpoint>
          <Trackpoint>
            <Time>2022-07-06T13:00:16.000Z</Time>
            <Position>
              <LatitudeDegrees>43.9988076500594615936279296875</LatitudeDegrees>
              <LongitudeDegrees>-1.3359970785677433013916015625</LongitudeDegrees>
            </Position>
            <AltitudeMeters>14.19999980926513671875</AltitudeMeters>
            <DistanceMeters>NAN</DistanceMeters>
          </Trackpoint>
          <Trackpoint>
            <Time>2022-07-06T13:00:23.000Z</Time>
            <Position>
              <LatitudeDegrees>43.99859701283276081085205078125</LatitudeDegrees>
              <LongitudeDegrees>-1.33612297475337982177734375</LongitudeDegrees>
            </Position>
            <AltitudeMeters>14.6000003814697265625</AltitudeMeters>
            <DistanceMeters>NAN</DistanceMeters>
          </Trackpoint>
          <Trackpoint>
            <Time>2022-07-06T13:00:28.000Z</Time>
            <Position>
              <LatitudeDegrees>43.99836868979036808013916015625</LatitudeDegrees>
              <LongitudeDegrees>-1.336182989180088043212890625</LongitudeDegrees>
            </Position>
            <AltitudeMeters>14.3999996185302734375</AltitudeMeters>
            <DistanceMeters>NAN</DistanceMeters>
          </Trackpoint>
          <Trackpoint>
            <Time>2022-07-06T13:00:30.000Z</Time>
            <Position>
              <LatitudeDegrees>43.998246900737285614013671875</LatitudeDegrees>
              <LongitudeDegrees>-1.33620805107057094573974609375</LongitudeDegrees>
            </Position>
            <AltitudeMeters>13.80000019073486328125</AltitudeMeters>
            <DistanceMeters>NAN</DistanceMeters>
          </Trackpoint>
          <Trackpoint>
            <Time>2022-07-06T13:00:32.000Z</Time>
            <Position>
              <LatitudeDegrees>43.99812578223645687103271484375</LatitudeDegrees>
              <LongitudeDegrees>-1.33623990230262279510498046875</LongitudeDegrees>
            </Position>
            <AltitudeMeters>13.3999996185302734375</AltitudeMeters>
            <DistanceMeters>NAN</DistanceMeters>
          </Trackpoint>
          <Trackpoint>
            <Time>2022-07-06T13:00:33.000Z</Time>
            <Position>
              <LatitudeDegrees>43.99805151857435703277587890625</LatitudeDegrees>
              <LongitudeDegrees>-1.33625465445220470428466796875</LongitudeDegrees>
            </Position>
            <AltitudeMeters>13.19999980926513671875</AltitudeMeters>
            <DistanceMeters>NAN</DistanceMeters>
          </Trackpoint>
          <Trackpoint>
            <Time>2022-07-06T13:00:34.000Z</Time>
            <Position>
              <LatitudeDegrees>43.9979731477797031402587890625</LatitudeDegrees>
              <LongitudeDegrees>-1.33626990951597690582275390625</LongitudeDegrees>
            </Position>
            <AltitudeMeters>13</AltitudeMeters>
            <DistanceMeters>NAN</DistanceMeters>
          </Trackpoint>
          <Trackpoint>
            <Time>2022-07-06T13:00:36.000Z</Time>
            <Position>
              <LatitudeDegrees>43.99781866930425167083740234375</LatitudeDegrees>
              <LongitudeDegrees>-1.33629002608358860015869140625</LongitudeDegrees>
            </Position>
            <AltitudeMeters>12.3999996185302734375</AltitudeMeters>
            <DistanceMeters>NAN</DistanceMeters>
          </Trackpoint>
          <Trackpoint>
            <Time>2022-07-06T13:00:37.000Z</Time>
            <Position>
              <LatitudeDegrees>43.99775303900241851806640625</LatitudeDegrees>
              <LongitudeDegrees>-1.3363035209476947784423828125</LongitudeDegrees>
            </Position>
            <AltitudeMeters>12</AltitudeMeters>
            <DistanceMeters>NAN</DistanceMeters>
          </Trackpoint>
          <Trackpoint>
            <Time>2022-07-06T13:00:41.000Z</Time>
            <Position>
              <LatitudeDegrees>43.9974584989249706268310546875</LatitudeDegrees>
              <LongitudeDegrees>-1.33633327670395374298095703125</LongitudeDegrees>
            </Position>
            <AltitudeMeters>11.19999980926513671875</AltitudeMeters>
            <DistanceMeters>NAN</DistanceMeters>
          </Trackpoint>
          <Trackpoint>
            <Time>2022-07-06T13:00:43.000Z</Time>
            <Position>
              <LatitudeDegrees>43.99730988778173923492431640625</LatitudeDegrees>
              <LongitudeDegrees>-1.3363162614405155181884765625</LongitudeDegrees>
            </Position>
            <AltitudeMeters>11</AltitudeMeters>
            <DistanceMeters>NAN</DistanceMeters>
          </Trackpoint>
          <Trackpoint>
            <Time>2022-07-06T13:00:46.000Z</Time>
            <Position>
              <LatitudeDegrees>43.99713722057640552520751953125</LatitudeDegrees>
              <LongitudeDegrees>-1.3363028503954410552978515625</LongitudeDegrees>
            </Position>
            <AltitudeMeters>11</AltitudeMeters>
            <DistanceMeters>NAN</DistanceMeters>
          </Trackpoint>
          <Trackpoint>
            <Time>2022-07-06T13:00:49.000Z</Time>
            <Position>
              <LatitudeDegrees>43.9970000088214874267578125</LatitudeDegrees>
              <LongitudeDegrees>-1.33631718344986438751220703125</LongitudeDegrees>
            </Position>
            <AltitudeMeters>11</AltitudeMeters>
            <DistanceMeters>NAN</DistanceMeters>
          </Trackpoint>
          <Trackpoint>
            <Time>2022-07-06T13:00:55.000Z</Time>
            <Position>
              <LatitudeDegrees>43.99671946652233600616455078125</LatitudeDegrees>
              <LongitudeDegrees>-1.33624778129160404205322265625</LongitudeDegrees>
            </Position>
            <AltitudeMeters>10.6000003814697265625</AltitudeMeters>
            <DistanceMeters>NAN</DistanceMeters>
          </Trackpoint>
          <Trackpoint>
            <Time>2022-07-06T13:01:02.000Z</Time>
            <Position>
              <LatitudeDegrees>43.99641470052301883697509765625</LatitudeDegrees>
              <LongitudeDegrees>-1.336155496537685394287109375</LongitudeDegrees>
            </Position>
            <AltitudeMeters>11.19999980926513671875</AltitudeMeters>
            <DistanceMeters>NAN</DistanceMeters>
          </Trackpoint>
          <Trackpoint>
            <Time>2022-07-06T13:01:09.000Z</Time>
            <Position>
              <LatitudeDegrees>43.99603231810033321380615234375</LatitudeDegrees>
              <LongitudeDegrees>-1.336048208177089691162109375</LongitudeDegrees>
            </Position>
            <AltitudeMeters>12</AltitudeMeters>
            <DistanceMeters>NAN</DistanceMeters>
          </Trackpoint>
          <Trackpoint>
            <Time>2022-07-06T13:01:10.000Z</Time>
            <Position>
              <LatitudeDegrees>43.99598504416644573211669921875</LatitudeDegrees>
              <LongitudeDegrees>-1.3360369764268398284912109375</LongitudeDegrees>
            </Position>
            <AltitudeMeters>12</AltitudeMeters>
            <DistanceMeters>NAN</DistanceMeters>
          </Trackpoint>
          <Trackpoint>
            <Time>2022-07-06T13:01:15.000Z</Time>
            <Position>
              <LatitudeDegrees>43.9957432262599468231201171875</LatitudeDegrees>
              <LongitudeDegrees>-1.33595458231866359710693359375</LongitudeDegrees>
            </Position>
            <AltitudeMeters>12.3999996185302734375</AltitudeMeters>
            <DistanceMeters>NAN</DistanceMeters>
          </Trackpoint>
          <Trackpoint>
            <Time>2022-07-06T13:01:22.000Z</Time>
            <Position>
              <LatitudeDegrees>43.9954820461571216583251953125</LatitudeDegrees>
              <LongitudeDegrees>-1.335852406919002532958984375</LongitudeDegrees>
            </Position>
            <AltitudeMeters>12.3999996185302734375</AltitudeMeters>
            <DistanceMeters>NAN</DistanceMeters>
          </Trackpoint>
          <Trackpoint>
            <Time>2022-07-06T13:01:27.000Z</Time>
            <Position>
              <LatitudeDegrees>43.9952141605317592620849609375</LatitudeDegrees>
              <LongitudeDegrees>-1.33576867170631885528564453125</LongitudeDegrees>
            </Position>
            <AltitudeMeters>12.3999996185302734375</AltitudeMeters>
            <DistanceMeters>NAN</DistanceMeters>
          </Trackpoint>
          <Trackpoint>
            <Time>2022-07-06T13:01:29.000Z</Time>
            <Position>
              <LatitudeDegrees>43.995107710361480712890625</LatitudeDegrees>
              <LongitudeDegrees>-1.33577487431466579437255859375</LongitudeDegrees>
            </Position>
            <AltitudeMeters>12.3999996185302734375</AltitudeMeters>
            <DistanceMeters>NAN</DistanceMeters>
          </Trackpoint>
          <Trackpoint>
            <Time>2022-07-06T13:01:35.000Z</Time>
            <Position>
              <LatitudeDegrees>43.994842506945133209228515625</LatitudeDegrees>
              <LongitudeDegrees>-1.33570111356675624847412109375</LongitudeDegrees>
            </Position>
            <AltitudeMeters>12.3999996185302734375</AltitudeMeters>
            <DistanceMeters>NAN</DistanceMeters>
          </Trackpoint>
          <Trackpoint>
            <Time>2022-07-06T13:01:37.000Z</Time>
            <Position>
              <LatitudeDegrees>43.994781486690044403076171875</LatitudeDegrees>
              <LongitudeDegrees>-1.33568569086492061614990234375</LongitudeDegrees>
            </Position>
            <AltitudeMeters>12.6000003814697265625</AltitudeMeters>
            <DistanceMeters>NAN</DistanceMeters>
          </Trackpoint>
          <Trackpoint>
            <Time>2022-07-06T13:01:40.000Z</Time>
            <Position>
              <LatitudeDegrees>43.994710743427276611328125</LatitudeDegrees>
              <LongitudeDegrees>-1.3356936536729335784912109375</LongitudeDegrees>
            </Position>
            <AltitudeMeters>12.6000003814697265625</AltitudeMeters>
            <DistanceMeters>NAN</DistanceMeters>
          </Trackpoint>
          <Trackpoint>
            <Time>2022-07-06T13:01:43.000Z</Time>
            <Position>
              <LatitudeDegrees>43.99456121027469635009765625</LatitudeDegrees>
              <LongitudeDegrees>-1.33573028258979320526123046875</LongitudeDegrees>
            </Position>
            <AltitudeMeters>12.3999996185302734375</AltitudeMeters>
            <DistanceMeters>NAN</DistanceMeters>
          </Trackpoint>
          <Trackpoint>
            <Time>2022-07-06T13:01:47.000Z</Time>
            <Position>
              <LatitudeDegrees>43.99439533241093158721923828125</LatitudeDegrees>
              <LongitudeDegrees>-1.33572491817176342010498046875</LongitudeDegrees>
            </Position>
            <AltitudeMeters>12.3999996185302734375</AltitudeMeters>
            <DistanceMeters>NAN</DistanceMeters>
          </Trackpoint>
          <Trackpoint>
            <Time>2022-07-06T13:01:50.000Z</Time>
            <Position>
              <LatitudeDegrees>43.9942633174359798431396484375</LatitudeDegrees>
              <LongitudeDegrees>-1.33571184240281581878662109375</LongitudeDegrees>
            </Position>
            <AltitudeMeters>12.6000003814697265625</AltitudeMeters>
            <DistanceMeters>NAN</DistanceMeters>
          </Trackpoint>
          <Trackpoint>
            <Time>2022-07-06T13:02:01.000Z</Time>
            <Position>
              <LatitudeDegrees>43.993789739906787872314453125</LatitudeDegrees>
              <LongitudeDegrees>-1.33568602614104747772216796875</LongitudeDegrees>
            </Position>
            <AltitudeMeters>12.6000003814697265625</AltitudeMeters>
            <DistanceMeters>NAN</DistanceMeters>
          </Trackpoint>
          <Trackpoint>
            <Time>2022-07-06T13:02:11.000Z</Time>
            <Position>
              <LatitudeDegrees>43.99332261644303798675537109375</LatitudeDegrees>
              <LongitudeDegrees>-1.33560287766158580780029296875</LongitudeDegrees>
            </Position>
            <AltitudeMeters>12.19999980926513671875</AltitudeMeters>
            <DistanceMeters>NAN</DistanceMeters>
          </Trackpoint>
          <Trackpoint>
            <Time>2022-07-06T13:02:14.000Z</Time>
            <Position>
              <LatitudeDegrees>43.99320107884705066680908203125</LatitudeDegrees>
              <LongitudeDegrees>-1.33558242581784725189208984375</LongitudeDegrees>
            </Position>
            <AltitudeMeters>12.19999980926513671875</AltitudeMeters>
            <DistanceMeters>NAN</DistanceMeters>
          </Trackpoint>
          <Trackpoint>
            <Time>2022-07-06T13:02:18.000Z</Time>
            <Position>
              <LatitudeDegrees>43.99303964339196681976318359375</LatitudeDegrees>
              <LongitudeDegrees>-1.3355846889317035675048828125</LongitudeDegrees>
            </Position>
            <AltitudeMeters>11.80000019073486328125</AltitudeMeters>
            <DistanceMeters>NAN</DistanceMeters>
          </Trackpoint>
          <Trackpoint>
            <Time>2022-07-06T13:02:26.000Z</Time>
            <Position>
              <LatitudeDegrees>43.9926992543041706085205078125</LatitudeDegrees>
              <LongitudeDegrees>-1.33562542498111724853515625</LongitudeDegrees>
            </Position>
            <AltitudeMeters>11.80000019073486328125</AltitudeMeters>
            <DistanceMeters>NAN</DistanceMeters>
          </Trackpoint>
          <Trackpoint>
            <Time>2022-07-06T13:02:32.000Z</Time>
            <Position>
              <LatitudeDegrees>43.992416448891162872314453125</LatitudeDegrees>
              <LongitudeDegrees>-1.33563481271266937255859375</LongitudeDegrees>
            </Position>
            <AltitudeMeters>11.6000003814697265625</AltitudeMeters>
            <DistanceMeters>NAN</DistanceMeters>
          </Trackpoint>
          <Trackpoint>
            <Time>2022-07-06T13:02:35.000Z</Time>
            <Position>
              <LatitudeDegrees>43.99228535592555999755859375</LatitudeDegrees>
              <LongitudeDegrees>-1.33564495481550693511962890625</LongitudeDegrees>
            </Position>
            <AltitudeMeters>12</AltitudeMeters>
            <DistanceMeters>NAN</DistanceMeters>
          </Trackpoint>
          <Trackpoint>
            <Time>2022-07-06T13:02:43.000Z</Time>
            <Position>
              <LatitudeDegrees>43.991908170282840728759765625</LatitudeDegrees>
              <LongitudeDegrees>-1.33563824929296970367431640625</LongitudeDegrees>
            </Position>
            <AltitudeMeters>12.3999996185302734375</AltitudeMeters>
            <DistanceMeters>NAN</DistanceMeters>
          </Trackpoint>
          <Trackpoint>
            <Time>2022-07-06T13:02:45.000Z</Time>
            <Position>
              <LatitudeDegrees>43.99182108230888843536376953125</LatitudeDegrees>
              <LongitudeDegrees>-1.33563254959881305694580078125</LongitudeDegrees>
            </Position>
            <AltitudeMeters>12.3999996185302734375</AltitudeMeters>
            <DistanceMeters>NAN</DistanceMeters>
          </Trackpoint>
          <Trackpoint>
            <Time>2022-07-06T13:02:53.000Z</Time>
            <Position>
              <LatitudeDegrees>43.9914855547249317169189453125</LatitudeDegrees>
              <LongitudeDegrees>-1.335635818541049957275390625</LongitudeDegrees>
            </Position>
            <AltitudeMeters>11.80000019073486328125</AltitudeMeters>
            <DistanceMeters>NAN</DistanceMeters>
          </Trackpoint>
          <Trackpoint>
            <Time>2022-07-06T13:03:00.000Z</Time>
            <Position>
              <LatitudeDegrees>43.9912304095923900604248046875</LatitudeDegrees>
              <LongitudeDegrees>-1.33559952490031719207763671875</LongitudeDegrees>
            </Position>
            <AltitudeMeters>12</AltitudeMeters>
            <DistanceMeters>NAN</DistanceMeters>
          </Trackpoint>
          <Trackpoint>
            <Time>2022-07-06T13:03:07.000Z</Time>
            <Position>
              <LatitudeDegrees>43.99096981622278690338134765625</LatitudeDegrees>
              <LongitudeDegrees>-1.335562728345394134521484375</LongitudeDegrees>
            </Position>
            <AltitudeMeters>12.6000003814697265625</AltitudeMeters>
            <DistanceMeters>NAN</DistanceMeters>
          </Trackpoint>
          <Trackpoint>
            <Time>2022-07-06T13:03:08.000Z</Time>
            <Position>
              <LatitudeDegrees>43.99092103354632854461669921875</LatitudeDegrees>
              <LongitudeDegrees>-1.33555443026125431060791015625</LongitudeDegrees>
            </Position>
            <AltitudeMeters>12.6000003814697265625</AltitudeMeters>
            <DistanceMeters>NAN</DistanceMeters>
          </Trackpoint>
          <Trackpoint>
            <Time>2022-07-06T13:03:12.000Z</Time>
            <Position>
              <LatitudeDegrees>43.99071282707154750823974609375</LatitudeDegrees>
              <LongitudeDegrees>-1.33551386184990406036376953125</LongitudeDegrees>
            </Position>
            <AltitudeMeters>12.3999996185302734375</AltitudeMeters>
            <DistanceMeters>NAN</DistanceMeters>
          </Trackpoint>
          <Trackpoint>
            <Time>2022-07-06T13:03:14.000Z</Time>
            <Position>
              <LatitudeDegrees>43.99060721509158611297607421875</LatitudeDegrees>
              <LongitudeDegrees>-1.3355025462806224822998046875</LongitudeDegrees>
            </Position>
            <AltitudeMeters>12.19999980926513671875</AltitudeMeters>
            <DistanceMeters>NAN</DistanceMeters>
          </Trackpoint>
          <Trackpoint>
            <Time>2022-07-06T13:03:19.000Z</Time>
            <Position>
              <LatitudeDegrees>43.99035206995904445648193359375</LatitudeDegrees>
              <LongitudeDegrees>-1.33548251353204250335693359375</LongitudeDegrees>
            </Position>
            <AltitudeMeters>12.19999980926513671875</AltitudeMeters>
            <DistanceMeters>NAN</DistanceMeters>
          </Trackpoint>
          <Trackpoint>
            <Time>2022-07-06T13:03:22.000Z</Time>
            <Position>
              <LatitudeDegrees>43.9902192167937755584716796875</LatitudeDegrees>
              <LongitudeDegrees>-1.33546927012503147125244140625</LongitudeDegrees>
            </Position>
            <AltitudeMeters>12.19999980926513671875</AltitudeMeters>
            <DistanceMeters>NAN</DistanceMeters>
          </Trackpoint>
          <Trackpoint>
            <Time>2022-07-06T13:03:24.000Z</Time>
            <Position>
              <LatitudeDegrees>43.9901394210755825042724609375</LatitudeDegrees>
              <LongitudeDegrees>-1.33545686490833759307861328125</LongitudeDegrees>
            </Position>
            <AltitudeMeters>12.3999996185302734375</AltitudeMeters>
            <DistanceMeters>NAN</DistanceMeters>
          </Trackpoint>
          <Trackpoint>
            <Time>2022-07-06T13:03:28.000Z</Time>
            <Position>
              <LatitudeDegrees>43.989965915679931640625</LatitudeDegrees>
              <LongitudeDegrees>-1.33546373806893825531005859375</LongitudeDegrees>
            </Position>
            <AltitudeMeters>12.80000019073486328125</AltitudeMeters>
            <DistanceMeters>NAN</DistanceMeters>
          </Trackpoint>
          <Trackpoint>
            <Time>2022-07-06T13:03:30.000Z</Time>
            <Position>
              <LatitudeDegrees>43.98988611996173858642578125</LatitudeDegrees>
              <LongitudeDegrees>-1.3354680128395557403564453125</LongitudeDegrees>
            </Position>
            <AltitudeMeters>13</AltitudeMeters>
            <DistanceMeters>NAN</DistanceMeters>
          </Trackpoint>
          <Trackpoint>
            <Time>2022-07-06T13:03:34.000Z</Time>
            <Position>
              <LatitudeDegrees>43.98971035145223140716552734375</LatitudeDegrees>
              <LongitudeDegrees>-1.33547522127628326416015625</LongitudeDegrees>
            </Position>
            <AltitudeMeters>12.80000019073486328125</AltitudeMeters>
            <DistanceMeters>NAN</DistanceMeters>
          </Trackpoint>
          <Trackpoint>
            <Time>2022-07-06T13:03:39.000Z</Time>
            <Position>
              <LatitudeDegrees>43.98949460126459598541259765625</LatitudeDegrees>
              <LongitudeDegrees>-1.33549860678613185882568359375</LongitudeDegrees>
            </Position>
            <AltitudeMeters>12.80000019073486328125</AltitudeMeters>
            <DistanceMeters>NAN</DistanceMeters>
          </Trackpoint>
          <Trackpoint>
            <Time>2022-07-06T13:03:47.000Z</Time>
            <Position>
              <LatitudeDegrees>43.98916636593639850616455078125</LatitudeDegrees>
              <LongitudeDegrees>-1.33553213439881801605224609375</LongitudeDegrees>
            </Position>
            <AltitudeMeters>12.3999996185302734375</AltitudeMeters>
            <DistanceMeters>NAN</DistanceMeters>
          </Trackpoint>
          <Trackpoint>
            <Time>2022-07-06T13:03:52.000Z</Time>
            <Position>
              <LatitudeDegrees>43.98895430378615856170654296875</LatitudeDegrees>
              <LongitudeDegrees>-1.335554011166095733642578125</LongitudeDegrees>
            </Position>
            <AltitudeMeters>12.80000019073486328125</AltitudeMeters>
            <DistanceMeters>NAN</DistanceMeters>
          </Trackpoint>
          <Trackpoint>
            <Time>2022-07-06T13:03:54.000Z</Time>
            <Position>
              <LatitudeDegrees>43.9888673834502696990966796875</LatitudeDegrees>
              <LongitudeDegrees>-1.33558116853237152099609375</LongitudeDegrees>
            </Position>
            <AltitudeMeters>12.80000019073486328125</AltitudeMeters>
            <DistanceMeters>NAN</DistanceMeters>
          </Trackpoint>
          <Trackpoint>
            <Time>2022-07-06T13:03:58.000Z</Time>
            <Position>
              <LatitudeDegrees>43.988684825599193572998046875</LatitudeDegrees>
              <LongitudeDegrees>-1.335631795227527618408203125</LongitudeDegrees>
            </Position>
            <AltitudeMeters>12.80000019073486328125</AltitudeMeters>
            <DistanceMeters>NAN</DistanceMeters>
          </Trackpoint>
          <Trackpoint>
            <Time>2022-07-06T13:04:01.000Z</Time>
            <Position>
              <LatitudeDegrees>43.9885590970516204833984375</LatitudeDegrees>
              <LongitudeDegrees>-1.33567102253437042236328125</LongitudeDegrees>
            </Position>
            <AltitudeMeters>12.80000019073486328125</AltitudeMeters>
            <DistanceMeters>NAN</DistanceMeters>
          </Trackpoint>
          <Trackpoint>
            <Time>2022-07-06T13:04:03.000Z</Time>
            <Position>
              <LatitudeDegrees>43.98846949450671672821044921875</LatitudeDegrees>
              <LongitudeDegrees>-1.33569248020648956298828125</LongitudeDegrees>
            </Position>
            <AltitudeMeters>13</AltitudeMeters>
            <DistanceMeters>NAN</DistanceMeters>
          </Trackpoint>
          <Trackpoint>
            <Time>2022-07-06T13:04:11.000Z</Time>
            <Position>
              <LatitudeDegrees>43.9881572686135768890380859375</LatitudeDegrees>
              <LongitudeDegrees>-1.3357892073690891265869140625</LongitudeDegrees>
            </Position>
            <AltitudeMeters>13.19999980926513671875</AltitudeMeters>
            <DistanceMeters>NAN</DistanceMeters>
          </Trackpoint>
          <Trackpoint>
            <Time>2022-07-06T13:04:19.000Z</Time>
            <Position>
              <LatitudeDegrees>43.9878161251544952392578125</LatitudeDegrees>
              <LongitudeDegrees>-1.33594385348260402679443359375</LongitudeDegrees>
            </Position>
            <AltitudeMeters>13.3999996185302734375</AltitudeMeters>
            <DistanceMeters>NAN</DistanceMeters>
          </Trackpoint>
          <Trackpoint>
            <Time>2022-07-06T13:04:21.000Z</Time>
            <Position>
              <LatitudeDegrees>43.98772601969540119171142578125</LatitudeDegrees>
              <LongitudeDegrees>-1.33597771637141704559326171875</LongitudeDegrees>
            </Position>
            <AltitudeMeters>13.3999996185302734375</AltitudeMeters>
            <DistanceMeters>NAN</DistanceMeters>
          </Trackpoint>
          <Trackpoint>
            <Time>2022-07-06T13:04:23.000Z</Time>
            <Position>
              <LatitudeDegrees>43.98763935081660747528076171875</LatitudeDegrees>
              <LongitudeDegrees>-1.3360141776502132415771484375</LongitudeDegrees>
            </Position>
            <AltitudeMeters>13.3999996185302734375</AltitudeMeters>
            <DistanceMeters>NAN</DistanceMeters>
          </Trackpoint>
          <Trackpoint>
            <Time>2022-07-06T13:04:26.000Z</Time>
            <Position>
              <LatitudeDegrees>43.987520746886730194091796875</LatitudeDegrees>
              <LongitudeDegrees>-1.336047537624835968017578125</LongitudeDegrees>
            </Position>
            <AltitudeMeters>13.3999996185302734375</AltitudeMeters>
            <DistanceMeters>NAN</DistanceMeters>
          </Trackpoint>
          <Trackpoint>
            <Time>2022-07-06T13:04:31.000Z</Time>
            <Position>
              <LatitudeDegrees>43.98733533918857574462890625</LatitudeDegrees>
              <LongitudeDegrees>-1.33611015044152736663818359375</LongitudeDegrees>
            </Position>
            <AltitudeMeters>13.80000019073486328125</AltitudeMeters>
            <DistanceMeters>NAN</DistanceMeters>
          </Trackpoint>
          <Trackpoint>
            <Time>2022-07-06T13:04:32.000Z</Time>
            <Position>
              <LatitudeDegrees>43.98729653097689151763916015625</LatitudeDegrees>
              <LongitudeDegrees>-1.33612473495304584503173828125</LongitudeDegrees>
            </Position>
            <AltitudeMeters>13.80000019073486328125</AltitudeMeters>
            <DistanceMeters>NAN</DistanceMeters>
          </Trackpoint>
          <Trackpoint>
            <Time>2022-07-06T13:04:39.000Z</Time>
            <Position>
              <LatitudeDegrees>43.98701188154518604278564453125</LatitudeDegrees>
              <LongitudeDegrees>-1.336241997778415679931640625</LongitudeDegrees>
            </Position>
            <AltitudeMeters>14</AltitudeMeters>
            <DistanceMeters>NAN</DistanceMeters>
          </Trackpoint>
          <Trackpoint>
            <Time>2022-07-06T13:04:44.000Z</Time>
            <Position>
              <LatitudeDegrees>43.98681842721998691558837890625</LatitudeDegrees>
              <LongitudeDegrees>-1.3363229669630527496337890625</LongitudeDegrees>
            </Position>
            <AltitudeMeters>13.80000019073486328125</AltitudeMeters>
            <DistanceMeters>NAN</DistanceMeters>
          </Trackpoint>
          <Trackpoint>
            <Time>2022-07-06T13:04:50.000Z</Time>
            <Position>
              <LatitudeDegrees>43.98659815080463886260986328125</LatitudeDegrees>
              <LongitudeDegrees>-1.3364160060882568359375</LongitudeDegrees>
            </Position>
            <AltitudeMeters>13.80000019073486328125</AltitudeMeters>
            <DistanceMeters>NAN</DistanceMeters>
          </Trackpoint>
          <Trackpoint>
            <Time>2022-07-06T13:04:53.000Z</Time>
            <Position>
              <LatitudeDegrees>43.98650125600397586822509765625</LatitudeDegrees>
              <LongitudeDegrees>-1.336461603641510009765625</LongitudeDegrees>
            </Position>
            <AltitudeMeters>14</AltitudeMeters>
            <DistanceMeters>NAN</DistanceMeters>
          </Trackpoint>
          <Trackpoint>
            <Time>2022-07-06T13:04:55.000Z</Time>
            <Position>
              <LatitudeDegrees>43.986452557146549224853515625</LatitudeDegrees>
              <LongitudeDegrees>-1.33648549206554889678955078125</LongitudeDegrees>
            </Position>
            <AltitudeMeters>14.3999996185302734375</AltitudeMeters>
            <DistanceMeters>NAN</DistanceMeters>
          </Trackpoint>
          <Trackpoint>
            <Time>2022-07-06T13:05:02.000Z</Time>
            <Position>
              <LatitudeDegrees>43.986310064792633056640625</LatitudeDegrees>
              <LongitudeDegrees>-1.33655338548123836517333984375</LongitudeDegrees>
            </Position>
            <AltitudeMeters>15.19999980926513671875</AltitudeMeters>
            <DistanceMeters>NAN</DistanceMeters>
          </Trackpoint>
          <Trackpoint>
            <Time>2022-07-06T13:05:07.000Z</Time>
            <Position>
              <LatitudeDegrees>43.9862223900854587554931640625</LatitudeDegrees>
              <LongitudeDegrees>-1.33663259446620941162109375</LongitudeDegrees>
            </Position>
            <AltitudeMeters>15.6000003814697265625</AltitudeMeters>
            <DistanceMeters>NAN</DistanceMeters>
          </Trackpoint>
          <Trackpoint>
            <Time>2022-07-06T13:05:10.000Z</Time>
            <Position>
              <LatitudeDegrees>43.98617100901901721954345703125</LatitudeDegrees>
              <LongitudeDegrees>-1.3366911001503467559814453125</LongitudeDegrees>
            </Position>
            <AltitudeMeters>16</AltitudeMeters>
            <DistanceMeters>NAN</DistanceMeters>
          </Trackpoint>
          <Trackpoint>
            <Time>2022-07-06T13:05:11.000Z</Time>
            <Position>
              <LatitudeDegrees>43.98617100901901721954345703125</LatitudeDegrees>
              <LongitudeDegrees>-1.3366911001503467559814453125</LongitudeDegrees>
            </Position>
            <AltitudeMeters>16.200000762939453125</AltitudeMeters>
            <DistanceMeters>NAN</DistanceMeters>
          </Trackpoint>
          <Trackpoint>
            <Time>2022-07-06T13:05:20.000Z</Time>
            <Position>
              <LatitudeDegrees>43.9860044606029987335205078125</LatitudeDegrees>
              <LongitudeDegrees>-1.33693560026586055755615234375</LongitudeDegrees>
            </Position>
            <AltitudeMeters>16.6000003814697265625</AltitudeMeters>
            <DistanceMeters>NAN</DistanceMeters>
          </Trackpoint>
          <Trackpoint>
            <Time>2022-07-06T13:05:25.000Z</Time>
            <Position>
              <LatitudeDegrees>43.98588820360600948333740234375</LatitudeDegrees>
              <LongitudeDegrees>-1.33719074539840221405029296875</LongitudeDegrees>
            </Position>
            <AltitudeMeters>16.200000762939453125</AltitudeMeters>
            <DistanceMeters>NAN</DistanceMeters>
          </Trackpoint>
          <Trackpoint>
            <Time>2022-07-06T13:05:30.000Z</Time>
            <Position>
              <LatitudeDegrees>43.98575761355459690093994140625</LatitudeDegrees>
              <LongitudeDegrees>-1.3375601358711719512939453125</LongitudeDegrees>
            </Position>
            <AltitudeMeters>15.80000019073486328125</AltitudeMeters>
            <DistanceMeters>NAN</DistanceMeters>
          </Trackpoint>
          <Trackpoint>
            <Time>2022-07-06T13:05:33.000Z</Time>
            <Position>
              <LatitudeDegrees>43.98568100295960903167724609375</LatitudeDegrees>
              <LongitudeDegrees>-1.33779139257967472076416015625</LongitudeDegrees>
            </Position>
            <AltitudeMeters>15.19999980926513671875</AltitudeMeters>
            <DistanceMeters>NAN</DistanceMeters>
          </Trackpoint>
          <Trackpoint>
            <Time>2022-07-06T13:05:36.000Z</Time>
            <Position>
              <LatitudeDegrees>43.9856078289449214935302734375</LatitudeDegrees>
              <LongitudeDegrees>-1.33802893571555614471435546875</LongitudeDegrees>
            </Position>
            <AltitudeMeters>14.19999980926513671875</AltitudeMeters>
            <DistanceMeters>NAN</DistanceMeters>
          </Trackpoint>
          <Trackpoint>
            <Time>2022-07-06T13:05:37.000Z</Time>
            <Position>
              <LatitudeDegrees>43.98558318614959716796875</LatitudeDegrees>
              <LongitudeDegrees>-1.33810169063508510589599609375</LongitudeDegrees>
            </Position>
            <AltitudeMeters>13.80000019073486328125</AltitudeMeters>
            <DistanceMeters>NAN</DistanceMeters>
          </Trackpoint>
          <Trackpoint>
            <Time>2022-07-06T13:05:41.000Z</Time>
            <Position>
              <LatitudeDegrees>43.98547966964542865753173828125</LatitudeDegrees>
              <LongitudeDegrees>-1.33834945969283580780029296875</LongitudeDegrees>
            </Position>
            <AltitudeMeters>13</AltitudeMeters>
            <DistanceMeters>NAN</DistanceMeters>
          </Trackpoint>
          <Trackpoint>
            <Time>2022-07-06T13:05:42.000Z</Time>
            <Position>
              <LatitudeDegrees>43.98545351810753345489501953125</LatitudeDegrees>
              <LongitudeDegrees>-1.3384023495018482208251953125</LongitudeDegrees>
            </Position>
            <AltitudeMeters>12.80000019073486328125</AltitudeMeters>
            <DistanceMeters>NAN</DistanceMeters>
          </Trackpoint>
          <Trackpoint>
            <Time>2022-07-06T13:05:47.000Z</Time>
            <Position>
              <LatitudeDegrees>43.98532762192189693450927734375</LatitudeDegrees>
              <LongitudeDegrees>-1.33866076357662677764892578125</LongitudeDegrees>
            </Position>
            <AltitudeMeters>12.19999980926513671875</AltitudeMeters>
            <DistanceMeters>NAN</DistanceMeters>
          </Trackpoint>
          <Trackpoint>
            <Time>2022-07-06T13:05:48.000Z</Time>
            <Position>
              <LatitudeDegrees>43.9853007160127162933349609375</LatitudeDegrees>
              <LongitudeDegrees>-1.3387121446430683135986328125</LongitudeDegrees>
            </Position>
            <AltitudeMeters>12.19999980926513671875</AltitudeMeters>
            <DistanceMeters>NAN</DistanceMeters>
          </Trackpoint>
          <Trackpoint>
            <Time>2022-07-06T13:05:50.000Z</Time>
            <Position>
              <LatitudeDegrees>43.98524564690887928009033203125</LatitudeDegrees>
              <LongitudeDegrees>-1.3388144038617610931396484375</LongitudeDegrees>
            </Position>
            <AltitudeMeters>12.19999980926513671875</AltitudeMeters>
            <DistanceMeters>NAN</DistanceMeters>
          </Trackpoint>
          <Trackpoint>
            <Time>2022-07-06T13:05:53.000Z</Time>
            <Position>
              <LatitudeDegrees>43.98516702465713024139404296875</LatitudeDegrees>
              <LongitudeDegrees>-1.3389532081782817840576171875</LongitudeDegrees>
            </Position>
            <AltitudeMeters>12.19999980926513671875</AltitudeMeters>
            <DistanceMeters>NAN</DistanceMeters>
          </Trackpoint>
          <Trackpoint>
            <Time>2022-07-06T13:05:56.000Z</Time>
            <Position>
              <LatitudeDegrees>43.98508287034928798675537109375</LatitudeDegrees>
              <LongitudeDegrees>-1.33908689953386783599853515625</LongitudeDegrees>
            </Position>
            <AltitudeMeters>12.19999980926513671875</AltitudeMeters>
            <DistanceMeters>NAN</DistanceMeters>
          </Trackpoint>
          <Trackpoint>
            <Time>2022-07-06T13:06:01.000Z</Time>
            <Position>
              <LatitudeDegrees>43.984945826232433319091796875</LatitudeDegrees>
              <LongitudeDegrees>-1.3393194973468780517578125</LongitudeDegrees>
            </Position>
            <AltitudeMeters>12.3999996185302734375</AltitudeMeters>
            <DistanceMeters>NAN</DistanceMeters>
          </Trackpoint>
          <Trackpoint>
            <Time>2022-07-06T13:06:02.000Z</Time>
            <Position>
              <LatitudeDegrees>43.98492277599871158599853515625</LatitudeDegrees>
              <LongitudeDegrees>-1.33937071077525615692138671875</LongitudeDegrees>
            </Position>
            <AltitudeMeters>12.3999996185302734375</AltitudeMeters>
            <DistanceMeters>NAN</DistanceMeters>
          </Trackpoint>
          <Trackpoint>
            <Time>2022-07-06T13:06:12.000Z</Time>
            <Position>
              <LatitudeDegrees>43.9847005717456340789794921875</LatitudeDegrees>
              <LongitudeDegrees>-1.33984982036054134368896484375</LongitudeDegrees>
            </Position>
            <AltitudeMeters>12.3999996185302734375</AltitudeMeters>
            <DistanceMeters>NAN</DistanceMeters>
          </Trackpoint>
          <Trackpoint>
            <Time>2022-07-06T13:06:24.000Z</Time>
            <Position>
              <LatitudeDegrees>43.98444450460374355316162109375</LatitudeDegrees>
              <LongitudeDegrees>-1.3404066301882266998291015625</LongitudeDegrees>
            </Position>
            <AltitudeMeters>12.19999980926513671875</AltitudeMeters>
            <DistanceMeters>NAN</DistanceMeters>
          </Trackpoint>
          <Trackpoint>
            <Time>2022-07-06T13:06:35.000Z</Time>
            <Position>
              <LatitudeDegrees>43.98418885655701160430908203125</LatitudeDegrees>
              <LongitudeDegrees>-1.34087719023227691650390625</LongitudeDegrees>
            </Position>
            <AltitudeMeters>12</AltitudeMeters>
            <DistanceMeters>NAN</DistanceMeters>
          </Trackpoint>
          <Trackpoint>
            <Time>2022-07-06T13:06:41.000Z</Time>
            <Position>
              <LatitudeDegrees>43.98399875499308109283447265625</LatitudeDegrees>
              <LongitudeDegrees>-1.34107768535614013671875</LongitudeDegrees>
            </Position>
            <AltitudeMeters>11.80000019073486328125</AltitudeMeters>
            <DistanceMeters>NAN</DistanceMeters>
          </Trackpoint>
          <Trackpoint>
            <Time>2022-07-06T13:06:42.000Z</Time>
            <Position>
              <LatitudeDegrees>43.98396304808557033538818359375</LatitudeDegrees>
              <LongitudeDegrees>-1.3411056809127330780029296875</LongitudeDegrees>
            </Position>
            <AltitudeMeters>11.6000003814697265625</AltitudeMeters>
            <DistanceMeters>NAN</DistanceMeters>
          </Trackpoint>
          <Trackpoint>
            <Time>2022-07-06T13:06:50.000Z</Time>
            <Position>
              <LatitudeDegrees>43.98363254964351654052734375</LatitudeDegrees>
              <LongitudeDegrees>-1.34130273945629596710205078125</LongitudeDegrees>
            </Position>
            <AltitudeMeters>10.80000019073486328125</AltitudeMeters>
            <DistanceMeters>NAN</DistanceMeters>
          </Trackpoint>
          <Trackpoint>
            <Time>2022-07-06T13:06:51.000Z</Time>
            <Position>
              <LatitudeDegrees>43.983590304851531982421875</LatitudeDegrees>
              <LongitudeDegrees>-1.34132637642323970794677734375</LongitudeDegrees>
            </Position>
            <AltitudeMeters>10.80000019073486328125</AltitudeMeters>
            <DistanceMeters>NAN</DistanceMeters>
          </Trackpoint>
          <Trackpoint>
            <Time>2022-07-06T13:06:54.000Z</Time>
            <Position>
              <LatitudeDegrees>43.98346533067524433135986328125</LatitudeDegrees>
              <LongitudeDegrees>-1.34139963425695896148681640625</LongitudeDegrees>
            </Position>
            <AltitudeMeters>10.80000019073486328125</AltitudeMeters>
            <DistanceMeters>NAN</DistanceMeters>
          </Trackpoint>
          <Trackpoint>
            <Time>2022-07-06T13:06:58.000Z</Time>
            <Position>
              <LatitudeDegrees>43.9833202399313449859619140625</LatitudeDegrees>
              <LongitudeDegrees>-1.34147926233708858489990234375</LongitudeDegrees>
            </Position>
            <AltitudeMeters>10.80000019073486328125</AltitudeMeters>
            <DistanceMeters>NAN</DistanceMeters>
          </Trackpoint>
          <Trackpoint>
            <Time>2022-07-06T13:07:03.000Z</Time>
            <Position>
              <LatitudeDegrees>43.98313005454838275909423828125</LatitudeDegrees>
              <LongitudeDegrees>-1.34157515130937099456787109375</LongitudeDegrees>
            </Position>
            <AltitudeMeters>10.6000003814697265625</AltitudeMeters>
            <DistanceMeters>NAN</DistanceMeters>
          </Trackpoint>
          <Trackpoint>
            <Time>2022-07-06T13:07:07.000Z</Time>
            <Position>
              <LatitudeDegrees>43.98298001848161220550537109375</LatitudeDegrees>
              <LongitudeDegrees>-1.341654025018215179443359375</LongitudeDegrees>
            </Position>
            <AltitudeMeters>10.6000003814697265625</AltitudeMeters>
            <DistanceMeters>NAN</DistanceMeters>
          </Trackpoint>
          <Trackpoint>
            <Time>2022-07-06T13:07:15.000Z</Time>
            <Position>
              <LatitudeDegrees>43.982705511152744293212890625</LatitudeDegrees>
              <LongitudeDegrees>-1.34175586514174938201904296875</LongitudeDegrees>
            </Position>
            <AltitudeMeters>11</AltitudeMeters>
            <DistanceMeters>NAN</DistanceMeters>
          </Trackpoint>
          <Trackpoint>
            <Time>2022-07-06T13:07:24.000Z</Time>
            <Position>
              <LatitudeDegrees>43.982404433190822601318359375</LatitudeDegrees>
              <LongitudeDegrees>-1.341823674738407135009765625</LongitudeDegrees>
            </Position>
            <AltitudeMeters>11</AltitudeMeters>
            <DistanceMeters>NAN</DistanceMeters>
          </Trackpoint>
          <Trackpoint>
            <Time>2022-07-06T13:07:31.000Z</Time>
            <Position>
              <LatitudeDegrees>43.9821400679647922515869140625</LatitudeDegrees>
              <LongitudeDegrees>-1.3419022969901561737060546875</LongitudeDegrees>
            </Position>
            <AltitudeMeters>10.80000019073486328125</AltitudeMeters>
            <DistanceMeters>NAN</DistanceMeters>
          </Trackpoint>
          <Trackpoint>
            <Time>2022-07-06T13:07:40.000Z</Time>
            <Position>
              <LatitudeDegrees>43.98176514543592929840087890625</LatitudeDegrees>
              <LongitudeDegrees>-1.3419963419437408447265625</LongitudeDegrees>
            </Position>
            <AltitudeMeters>10.3999996185302734375</AltitudeMeters>
            <DistanceMeters>NAN</DistanceMeters>
          </Trackpoint>
          <Trackpoint>
            <Time>2022-07-06T13:07:50.000Z</Time>
            <Position>
              <LatitudeDegrees>43.98135543800890445709228515625</LatitudeDegrees>
              <LongitudeDegrees>-1.34210438467562198638916015625</LongitudeDegrees>
            </Position>
            <AltitudeMeters>10.19999980926513671875</AltitudeMeters>
            <DistanceMeters>NAN</DistanceMeters>
          </Trackpoint>
          <Trackpoint>
            <Time>2022-07-06T13:07:58.000Z</Time>
            <Position>
              <LatitudeDegrees>43.98101739585399627685546875</LatitudeDegrees>
              <LongitudeDegrees>-1.34220027364790439605712890625</LongitudeDegrees>
            </Position>
            <AltitudeMeters>10.19999980926513671875</AltitudeMeters>
            <DistanceMeters>NAN</DistanceMeters>
          </Trackpoint>
          <Trackpoint>
            <Time>2022-07-06T13:08:04.000Z</Time>
            <Position>
              <LatitudeDegrees>43.9807352609932422637939453125</LatitudeDegrees>
              <LongitudeDegrees>-1.34227403439581394195556640625</LongitudeDegrees>
            </Position>
            <AltitudeMeters>10.19999980926513671875</AltitudeMeters>
            <DistanceMeters>NAN</DistanceMeters>
          </Trackpoint>
          <Trackpoint>
            <Time>2022-07-06T13:08:11.000Z</Time>
            <Position>
              <LatitudeDegrees>43.98039805702865123748779296875</LatitudeDegrees>
              <LongitudeDegrees>-1.342372186481952667236328125</LongitudeDegrees>
            </Position>
            <AltitudeMeters>10.3999996185302734375</AltitudeMeters>
            <DistanceMeters>NAN</DistanceMeters>
          </Trackpoint>
          <Trackpoint>
            <Time>2022-07-06T13:08:16.000Z</Time>
            <Position>
              <LatitudeDegrees>43.98016537539660930633544921875</LatitudeDegrees>
              <LongitudeDegrees>-1.3424477912485599517822265625</LongitudeDegrees>
            </Position>
            <AltitudeMeters>10.3999996185302734375</AltitudeMeters>
            <DistanceMeters>NAN</DistanceMeters>
          </Trackpoint>
          <Trackpoint>
            <Time>2022-07-06T13:08:19.000Z</Time>
            <Position>
              <LatitudeDegrees>43.98003034293651580810546875</LatitudeDegrees>
              <LongitudeDegrees>-1.34248056448996067047119140625</LongitudeDegrees>
            </Position>
            <AltitudeMeters>10.6000003814697265625</AltitudeMeters>
            <DistanceMeters>NAN</DistanceMeters>
          </Trackpoint>
          <Trackpoint>
            <Time>2022-07-06T13:08:27.000Z</Time>
            <Position>
              <LatitudeDegrees>43.97963781841099262237548828125</LatitudeDegrees>
              <LongitudeDegrees>-1.34258701466023921966552734375</LongitudeDegrees>
            </Position>
            <AltitudeMeters>10.3999996185302734375</AltitudeMeters>
            <DistanceMeters>NAN</DistanceMeters>
          </Trackpoint>
          <Trackpoint>
            <Time>2022-07-06T13:08:29.000Z</Time>
            <Position>
              <LatitudeDegrees>43.97953824140131473541259765625</LatitudeDegrees>
              <LongitudeDegrees>-1.34262104518711566925048828125</LongitudeDegrees>
            </Position>
            <AltitudeMeters>10.19999980926513671875</AltitudeMeters>
            <DistanceMeters>NAN</DistanceMeters>
          </Trackpoint>
          <Trackpoint>
            <Time>2022-07-06T13:08:33.000Z</Time>
            <Position>
              <LatitudeDegrees>43.9793458767235279083251953125</LatitudeDegrees>
              <LongitudeDegrees>-1.3426657207310199737548828125</LongitudeDegrees>
            </Position>
            <AltitudeMeters>10</AltitudeMeters>
            <DistanceMeters>NAN</DistanceMeters>
          </Trackpoint>
          <Trackpoint>
            <Time>2022-07-06T13:08:44.000Z</Time>
            <Position>
              <LatitudeDegrees>43.9788255281746387481689453125</LatitudeDegrees>
              <LongitudeDegrees>-1.34280477650463581085205078125</LongitudeDegrees>
            </Position>
            <AltitudeMeters>9.80000019073486328125</AltitudeMeters>
            <DistanceMeters>NAN</DistanceMeters>
          </Trackpoint>
          <Trackpoint>
            <Time>2022-07-06T13:08:45.000Z</Time>
            <Position>
              <LatitudeDegrees>43.97877532057464122772216796875</LatitudeDegrees>
              <LongitudeDegrees>-1.34281785227358341217041015625</LongitudeDegrees>
            </Position>
            <AltitudeMeters>9.80000019073486328125</AltitudeMeters>
            <DistanceMeters>NAN</DistanceMeters>
          </Trackpoint>
          <Trackpoint>
            <Time>2022-07-06T13:08:47.000Z</Time>
            <Position>
              <LatitudeDegrees>43.97867716848850250244140625</LatitudeDegrees>
              <LongitudeDegrees>-1.34284568019211292266845703125</LongitudeDegrees>
            </Position>
            <AltitudeMeters>9.80000019073486328125</AltitudeMeters>
            <DistanceMeters>NAN</DistanceMeters>
          </Trackpoint>
          <Trackpoint>
            <Time>2022-07-06T13:08:54.000Z</Time>
            <Position>
              <LatitudeDegrees>43.97836058400571346282958984375</LatitudeDegrees>
              <LongitudeDegrees>-1.34293310344219207763671875</LongitudeDegrees>
            </Position>
            <AltitudeMeters>9.80000019073486328125</AltitudeMeters>
            <DistanceMeters>NAN</DistanceMeters>
          </Trackpoint>
          <Trackpoint>
            <Time>2022-07-06T13:08:58.000Z</Time>
            <Position>
              <LatitudeDegrees>43.97808532230556011199951171875</LatitudeDegrees>
              <LongitudeDegrees>-1.34300191886723041534423828125</LongitudeDegrees>
            </Position>
            <AltitudeMeters>9.80000019073486328125</AltitudeMeters>
            <DistanceMeters>NAN</DistanceMeters>
          </Trackpoint>
          <Trackpoint>
            <Time>2022-07-06T13:09:04.000Z</Time>
            <Position>
              <LatitudeDegrees>43.97771735675632953643798828125</LatitudeDegrees>
              <LongitudeDegrees>-1.343098394572734832763671875</LongitudeDegrees>
            </Position>
            <AltitudeMeters>10.19999980926513671875</AltitudeMeters>
            <DistanceMeters>NAN</DistanceMeters>
          </Trackpoint>
          <Trackpoint>
            <Time>2022-07-06T13:09:12.000Z</Time>
            <Position>
              <LatitudeDegrees>43.9772812463343143463134765625</LatitudeDegrees>
              <LongitudeDegrees>-1.34322814643383026123046875</LongitudeDegrees>
            </Position>
            <AltitudeMeters>10.6000003814697265625</AltitudeMeters>
            <DistanceMeters>NAN</DistanceMeters>
          </Trackpoint>
          <Trackpoint>
            <Time>2022-07-06T13:09:19.000Z</Time>
            <Position>
              <LatitudeDegrees>43.97688067518174648284912109375</LatitudeDegrees>
              <LongitudeDegrees>-1.3433293998241424560546875</LongitudeDegrees>
            </Position>
            <AltitudeMeters>10</AltitudeMeters>
            <DistanceMeters>NAN</DistanceMeters>
          </Trackpoint>
          <Trackpoint>
            <Time>2022-07-06T13:09:23.000Z</Time>
            <Position>
              <LatitudeDegrees>43.97665821947157382965087890625</LatitudeDegrees>
              <LongitudeDegrees>-1.3433962874114513397216796875</LongitudeDegrees>
            </Position>
            <AltitudeMeters>9.6000003814697265625</AltitudeMeters>
            <DistanceMeters>NAN</DistanceMeters>
          </Trackpoint>
          <Trackpoint>
            <Time>2022-07-06T13:09:28.000Z</Time>
            <Position>
              <LatitudeDegrees>43.9763974584639072418212890625</LatitudeDegrees>
              <LongitudeDegrees>-1.3434804417192935943603515625</LongitudeDegrees>
            </Position>
            <AltitudeMeters>9.3999996185302734375</AltitudeMeters>
            <DistanceMeters>NAN</DistanceMeters>
          </Trackpoint>
          <Trackpoint>
            <Time>2022-07-06T13:09:37.000Z</Time>
            <Position>
              <LatitudeDegrees>43.97594190202653408050537109375</LatitudeDegrees>
              <LongitudeDegrees>-1.34360499680042266845703125</LongitudeDegrees>
            </Position>
            <AltitudeMeters>10</AltitudeMeters>
            <DistanceMeters>NAN</DistanceMeters>
          </Trackpoint>
          <Trackpoint>
            <Time>2022-07-06T13:09:46.000Z</Time>
            <Position>
              <LatitudeDegrees>43.975492380559444427490234375</LatitudeDegrees>
              <LongitudeDegrees>-1.343728043138980865478515625</LongitudeDegrees>
            </Position>
            <AltitudeMeters>10.19999980926513671875</AltitudeMeters>
            <DistanceMeters>NAN</DistanceMeters>
          </Trackpoint>
          <Trackpoint>
            <Time>2022-07-06T13:09:55.000Z</Time>
            <Position>
              <LatitudeDegrees>43.97504453547298908233642578125</LatitudeDegrees>
              <LongitudeDegrees>-1.3438448868691921234130859375</LongitudeDegrees>
            </Position>
            <AltitudeMeters>10.6000003814697265625</AltitudeMeters>
            <DistanceMeters>NAN</DistanceMeters>
          </Trackpoint>
          <Trackpoint>
            <Time>2022-07-06T13:09:56.000Z</Time>
            <Position>
              <LatitudeDegrees>43.9749943278729915618896484375</LatitudeDegrees>
              <LongitudeDegrees>-1.34385704062879085540771484375</LongitudeDegrees>
            </Position>
            <AltitudeMeters>10.80000019073486328125</AltitudeMeters>
            <DistanceMeters>NAN</DistanceMeters>
          </Trackpoint>
          <Trackpoint>
            <Time>2022-07-06T13:09:59.000Z</Time>
            <Position>
              <LatitudeDegrees>43.97483917884528636932373046875</LatitudeDegrees>
              <LongitudeDegrees>-1.343896687030792236328125</LongitudeDegrees>
            </Position>
            <AltitudeMeters>11</AltitudeMeters>
            <DistanceMeters>NAN</DistanceMeters>
          </Trackpoint>
          <Trackpoint>
            <Time>2022-07-06T13:10:05.000Z</Time>
            <Position>
              <LatitudeDegrees>43.974524773657321929931640625</LatitudeDegrees>
              <LongitudeDegrees>-1.34398343972861766815185546875</LongitudeDegrees>
            </Position>
            <AltitudeMeters>10.80000019073486328125</AltitudeMeters>
            <DistanceMeters>NAN</DistanceMeters>
          </Trackpoint>
          <Trackpoint>
            <Time>2022-07-06T13:10:13.000Z</Time>
            <Position>
              <LatitudeDegrees>43.974141888320446014404296875</LatitudeDegrees>
              <LongitudeDegrees>-1.344115622341632843017578125</LongitudeDegrees>
            </Position>
            <AltitudeMeters>10.3999996185302734375</AltitudeMeters>
            <DistanceMeters>NAN</DistanceMeters>
          </Trackpoint>
          <Trackpoint>
            <Time>2022-07-06T13:10:17.000Z</Time>
            <Position>
              <LatitudeDegrees>43.9739700593054294586181640625</LatitudeDegrees>
              <LongitudeDegrees>-1.3441905565559864044189453125</LongitudeDegrees>
            </Position>
            <AltitudeMeters>10.3999996185302734375</AltitudeMeters>
            <DistanceMeters>NAN</DistanceMeters>
          </Trackpoint>
          <Trackpoint>
            <Time>2022-07-06T13:10:23.000Z</Time>
            <Position>
              <LatitudeDegrees>43.9736998267471790313720703125</LatitudeDegrees>
              <LongitudeDegrees>-1.34430714882910251617431640625</LongitudeDegrees>
            </Position>
            <AltitudeMeters>10.6000003814697265625</AltitudeMeters>
            <DistanceMeters>NAN</DistanceMeters>
          </Trackpoint>
          <Trackpoint>
            <Time>2022-07-06T13:10:29.000Z</Time>
            <Position>
              <LatitudeDegrees>43.97341827861964702606201171875</LatitudeDegrees>
              <LongitudeDegrees>-1.34442835114896297454833984375</LongitudeDegrees>
            </Position>
            <AltitudeMeters>10.80000019073486328125</AltitudeMeters>
            <DistanceMeters>NAN</DistanceMeters>
          </Trackpoint>
          <Trackpoint>
            <Time>2022-07-06T13:10:32.000Z</Time>
            <Position>
              <LatitudeDegrees>43.9732917957007884979248046875</LatitudeDegrees>
              <LongitudeDegrees>-1.34446472860872745513916015625</LongitudeDegrees>
            </Position>
            <AltitudeMeters>11</AltitudeMeters>
            <DistanceMeters>NAN</DistanceMeters>
          </Trackpoint>
          <Trackpoint>
            <Time>2022-07-06T13:10:35.000Z</Time>
            <Position>
              <LatitudeDegrees>43.9731580205261707305908203125</LatitudeDegrees>
              <LongitudeDegrees>-1.34449624456465244293212890625</LongitudeDegrees>
            </Position>
            <AltitudeMeters>11.19999980926513671875</AltitudeMeters>
            <DistanceMeters>NAN</DistanceMeters>
          </Trackpoint>
          <Trackpoint>
            <Time>2022-07-06T13:10:39.000Z</Time>
            <Position>
              <LatitudeDegrees>43.97297789342701435089111328125</LatitudeDegrees>
              <LongitudeDegrees>-1.3445804826915264129638671875</LongitudeDegrees>
            </Position>
            <AltitudeMeters>11.3999996185302734375</AltitudeMeters>
            <DistanceMeters>NAN</DistanceMeters>
          </Trackpoint>
          <Trackpoint>
            <Time>2022-07-06T13:10:44.000Z</Time>
            <Position>
              <LatitudeDegrees>43.97275091148912906646728515625</LatitudeDegrees>
              <LongitudeDegrees>-1.34472875855863094329833984375</LongitudeDegrees>
            </Position>
            <AltitudeMeters>11.6000003814697265625</AltitudeMeters>
            <DistanceMeters>NAN</DistanceMeters>
          </Trackpoint>
          <Trackpoint>
            <Time>2022-07-06T13:10:45.000Z</Time>
            <Position>
              <LatitudeDegrees>43.9727047272026538848876953125</LatitudeDegrees>
              <LongitudeDegrees>-1.34475708939135074615478515625</LongitudeDegrees>
            </Position>
            <AltitudeMeters>11.80000019073486328125</AltitudeMeters>
            <DistanceMeters>NAN</DistanceMeters>
          </Trackpoint>
          <Trackpoint>
            <Time>2022-07-06T13:10:46.000Z</Time>
            <Position>
              <LatitudeDegrees>43.9726581238210201263427734375</LatitudeDegrees>
              <LongitudeDegrees>-1.3447823189198970794677734375</LongitudeDegrees>
            </Position>
            <AltitudeMeters>11.80000019073486328125</AltitudeMeters>
            <DistanceMeters>NAN</DistanceMeters>
          </Trackpoint>
          <Trackpoint>
            <Time>2022-07-06T13:10:52.000Z</Time>
            <Position>
              <LatitudeDegrees>43.972370624542236328125</LatitudeDegrees>
              <LongitudeDegrees>-1.34498658590018749237060546875</LongitudeDegrees>
            </Position>
            <AltitudeMeters>11.80000019073486328125</AltitudeMeters>
            <DistanceMeters>NAN</DistanceMeters>
          </Trackpoint>
          <Trackpoint>
            <Time>2022-07-06T13:10:56.000Z</Time>
            <Position>
              <LatitudeDegrees>43.9721686206758022308349609375</LatitudeDegrees>
              <LongitudeDegrees>-1.345108039677143096923828125</LongitudeDegrees>
            </Position>
            <AltitudeMeters>12</AltitudeMeters>
            <DistanceMeters>NAN</DistanceMeters>
          </Trackpoint>
          <Trackpoint>
            <Time>2022-07-06T13:11:02.000Z</Time>
            <Position>
              <LatitudeDegrees>43.97191758267581462860107421875</LatitudeDegrees>
              <LongitudeDegrees>-1.3453355245292186737060546875</LongitudeDegrees>
            </Position>
            <AltitudeMeters>12.19999980926513671875</AltitudeMeters>
            <DistanceMeters>NAN</DistanceMeters>
          </Trackpoint>
          <Trackpoint>
            <Time>2022-07-06T13:11:03.000Z</Time>
            <Position>
              <LatitudeDegrees>43.97188321687281131744384765625</LatitudeDegrees>
              <LongitudeDegrees>-1.3453660346567630767822265625</LongitudeDegrees>
            </Position>
            <AltitudeMeters>12.19999980926513671875</AltitudeMeters>
            <DistanceMeters>NAN</DistanceMeters>
          </Trackpoint>
          <Trackpoint>
            <Time>2022-07-06T13:11:07.000Z</Time>
            <Position>
              <LatitudeDegrees>43.97174139507114887237548828125</LatitudeDegrees>
              <LongitudeDegrees>-1.34553375653922557830810546875</LongitudeDegrees>
            </Position>
            <AltitudeMeters>12.80000019073486328125</AltitudeMeters>
            <DistanceMeters>NAN</DistanceMeters>
          </Trackpoint>
          <Trackpoint>
            <Time>2022-07-06T13:11:16.000Z</Time>
            <Position>
              <LatitudeDegrees>43.97134811617434024810791015625</LatitudeDegrees>
              <LongitudeDegrees>-1.34582008235156536102294921875</LongitudeDegrees>
            </Position>
            <AltitudeMeters>13.19999980926513671875</AltitudeMeters>
            <DistanceMeters>NAN</DistanceMeters>
          </Trackpoint>
          <Trackpoint>
            <Time>2022-07-06T13:11:18.000Z</Time>
            <Position>
              <LatitudeDegrees>43.97126832045614719390869140625</LatitudeDegrees>
              <LongitudeDegrees>-1.34588194079697132110595703125</LongitudeDegrees>
            </Position>
            <AltitudeMeters>13.19999980926513671875</AltitudeMeters>
            <DistanceMeters>NAN</DistanceMeters>
          </Trackpoint>
          <Trackpoint>
            <Time>2022-07-06T13:11:20.000Z</Time>
            <Position>
              <LatitudeDegrees>43.97119824774563312530517578125</LatitudeDegrees>
              <LongitudeDegrees>-1.34592837654054164886474609375</LongitudeDegrees>
            </Position>
            <AltitudeMeters>13.6000003814697265625</AltitudeMeters>
            <DistanceMeters>NAN</DistanceMeters>
          </Trackpoint>
          <Trackpoint>
            <Time>2022-07-06T13:11:21.000Z</Time>
            <Position>
              <LatitudeDegrees>43.9711705036461353302001953125</LatitudeDegrees>
              <LongitudeDegrees>-1.3459500856697559356689453125</LongitudeDegrees>
            </Position>
            <AltitudeMeters>13.80000019073486328125</AltitudeMeters>
            <DistanceMeters>NAN</DistanceMeters>
          </Trackpoint>
          <Trackpoint>
            <Time>2022-07-06T13:11:22.000Z</Time>
            <Position>
              <LatitudeDegrees>43.971147872507572174072265625</LatitudeDegrees>
              <LongitudeDegrees>-1.34597338736057281494140625</LongitudeDegrees>
            </Position>
            <AltitudeMeters>13.80000019073486328125</AltitudeMeters>
            <DistanceMeters>NAN</DistanceMeters>
          </Trackpoint>
          <Trackpoint>
            <Time>2022-07-06T13:11:26.000Z</Time>
            <Position>
              <LatitudeDegrees>43.97105022333562374114990234375</LatitudeDegrees>
              <LongitudeDegrees>-1.346060223877429962158203125</LongitudeDegrees>
            </Position>
            <AltitudeMeters>14.6000003814697265625</AltitudeMeters>
            <DistanceMeters>NAN</DistanceMeters>
          </Trackpoint>
          <Trackpoint>
            <Time>2022-07-06T13:11:27.000Z</Time>
            <Position>
              <LatitudeDegrees>43.97102373652160167694091796875</LatitudeDegrees>
              <LongitudeDegrees>-1.34608067572116851806640625</LongitudeDegrees>
            </Position>
            <AltitudeMeters>14.80000019073486328125</AltitudeMeters>
            <DistanceMeters>NAN</DistanceMeters>
          </Trackpoint>
          <Trackpoint>
            <Time>2022-07-06T13:11:28.000Z</Time>
            <Position>
              <LatitudeDegrees>43.970994651317596435546875</LatitudeDegrees>
              <LongitudeDegrees>-1.34610171429812908172607421875</LongitudeDegrees>
            </Position>
            <AltitudeMeters>15</AltitudeMeters>
            <DistanceMeters>NAN</DistanceMeters>
          </Trackpoint>
          <Trackpoint>
            <Time>2022-07-06T13:11:35.000Z</Time>
            <Position>
              <LatitudeDegrees>43.97082659415900707244873046875</LatitudeDegrees>
              <LongitudeDegrees>-1.34625476785004138946533203125</LongitudeDegrees>
            </Position>
            <AltitudeMeters>15.80000019073486328125</AltitudeMeters>
            <DistanceMeters>NAN</DistanceMeters>
          </Trackpoint>
          <Trackpoint>
            <Time>2022-07-06T13:11:37.000Z</Time>
            <Position>
              <LatitudeDegrees>43.9707685075700283050537109375</LatitudeDegrees>
              <LongitudeDegrees>-1.34629885666072368621826171875</LongitudeDegrees>
            </Position>
            <AltitudeMeters>16</AltitudeMeters>
            <DistanceMeters>NAN</DistanceMeters>
          </Trackpoint>
          <Trackpoint>
            <Time>2022-07-06T13:11:42.000Z</Time>
            <Position>
              <LatitudeDegrees>43.97060045041143894195556640625</LatitudeDegrees>
              <LongitudeDegrees>-1.34642475284636020660400390625</LongitudeDegrees>
            </Position>
            <AltitudeMeters>16.3999996185302734375</AltitudeMeters>
            <DistanceMeters>NAN</DistanceMeters>
          </Trackpoint>
          <Trackpoint>
            <Time>2022-07-06T13:11:45.000Z</Time>
            <Position>
              <LatitudeDegrees>43.97047706879675388336181640625</LatitudeDegrees>
              <LongitudeDegrees>-1.34651385247707366943359375</LongitudeDegrees>
            </Position>
            <AltitudeMeters>14.80000019073486328125</AltitudeMeters>
            <DistanceMeters>NAN</DistanceMeters>
          </Trackpoint>
          <Trackpoint>
            <Time>2022-07-06T13:11:48.000Z</Time>
            <Position>
              <LatitudeDegrees>43.97034916095435619354248046875</LatitudeDegrees>
              <LongitudeDegrees>-1.34661309421062469482421875</LongitudeDegrees>
            </Position>
            <AltitudeMeters>14.6000003814697265625</AltitudeMeters>
            <DistanceMeters>NAN</DistanceMeters>
          </Trackpoint>
          <Trackpoint>
            <Time>2022-07-06T13:11:51.000Z</Time>
            <Position>
              <LatitudeDegrees>43.97022779099643230438232421875</LatitudeDegrees>
              <LongitudeDegrees>-1.34670353494584560394287109375</LongitudeDegrees>
            </Position>
            <AltitudeMeters>14.80000019073486328125</AltitudeMeters>
            <DistanceMeters>NAN</DistanceMeters>
          </Trackpoint>
          <Trackpoint>
            <Time>2022-07-06T13:11:54.000Z</Time>
            <Position>
              <LatitudeDegrees>43.970127291977405548095703125</LatitudeDegrees>
              <LongitudeDegrees>-1.34676572866737842559814453125</LongitudeDegrees>
            </Position>
            <AltitudeMeters>15</AltitudeMeters>
            <DistanceMeters>NAN</DistanceMeters>
          </Trackpoint>
          <Trackpoint>
            <Time>2022-07-06T13:12:00.000Z</Time>
            <Position>
              <LatitudeDegrees>43.9699611626565456390380859375</LatitudeDegrees>
              <LongitudeDegrees>-1.34689883328974246978759765625</LongitudeDegrees>
            </Position>
            <AltitudeMeters>16</AltitudeMeters>
            <DistanceMeters>NAN</DistanceMeters>
          </Trackpoint>
          <Trackpoint>
            <Time>2022-07-06T13:12:01.000Z</Time>
            <Position>
              <LatitudeDegrees>43.9699346758425235748291015625</LatitudeDegrees>
              <LongitudeDegrees>-1.3469240628182888031005859375</LongitudeDegrees>
            </Position>
            <AltitudeMeters>16</AltitudeMeters>
            <DistanceMeters>NAN</DistanceMeters>
          </Trackpoint>
          <Trackpoint>
            <Time>2022-07-06T13:12:12.000Z</Time>
            <Position>
              <LatitudeDegrees>43.96956779994070529937744140625</LatitudeDegrees>
              <LongitudeDegrees>-1.34720049798488616943359375</LongitudeDegrees>
            </Position>
            <AltitudeMeters>16.3999996185302734375</AltitudeMeters>
            <DistanceMeters>NAN</DistanceMeters>
          </Trackpoint>
          <Trackpoint>
            <Time>2022-07-06T13:12:18.000Z</Time>
            <Position>
              <LatitudeDegrees>43.96935255266726016998291015625</LatitudeDegrees>
              <LongitudeDegrees>-1.34734491817653179168701171875</LongitudeDegrees>
            </Position>
            <AltitudeMeters>16.6000003814697265625</AltitudeMeters>
            <DistanceMeters>NAN</DistanceMeters>
          </Trackpoint>
          <Trackpoint>
            <Time>2022-07-06T13:12:25.000Z</Time>
            <Position>
              <LatitudeDegrees>43.969074189662933349609375</LatitudeDegrees>
              <LongitudeDegrees>-1.34756787680089473724365234375</LongitudeDegrees>
            </Position>
            <AltitudeMeters>16.3999996185302734375</AltitudeMeters>
            <DistanceMeters>NAN</DistanceMeters>
          </Trackpoint>
          <Trackpoint>
            <Time>2022-07-06T13:12:31.000Z</Time>
            <Position>
              <LatitudeDegrees>43.9687417633831501007080078125</LatitudeDegrees>
              <LongitudeDegrees>-1.3478212617337703704833984375</LongitudeDegrees>
            </Position>
            <AltitudeMeters>15.6000003814697265625</AltitudeMeters>
            <DistanceMeters>NAN</DistanceMeters>
          </Trackpoint>
          <Trackpoint>
            <Time>2022-07-06T13:12:35.000Z</Time>
            <Position>
              <LatitudeDegrees>43.96851000376045703887939453125</LatitudeDegrees>
              <LongitudeDegrees>-1.3479671068489551544189453125</LongitudeDegrees>
            </Position>
            <AltitudeMeters>14.80000019073486328125</AltitudeMeters>
            <DistanceMeters>NAN</DistanceMeters>
          </Trackpoint>
          <Trackpoint>
            <Time>2022-07-06T13:12:38.000Z</Time>
            <Position>
              <LatitudeDegrees>43.96833599545061588287353515625</LatitudeDegrees>
              <LongitudeDegrees>-1.348061822354793548583984375</LongitudeDegrees>
            </Position>
            <AltitudeMeters>14.19999980926513671875</AltitudeMeters>
            <DistanceMeters>NAN</DistanceMeters>
          </Trackpoint>
          <Trackpoint>
            <Time>2022-07-06T13:12:40.000Z</Time>
            <Position>
              <LatitudeDegrees>43.968214206397533416748046875</LatitudeDegrees>
              <LongitudeDegrees>-1.348110772669315338134765625</LongitudeDegrees>
            </Position>
            <AltitudeMeters>13.80000019073486328125</AltitudeMeters>
            <DistanceMeters>NAN</DistanceMeters>
          </Trackpoint>
          <Trackpoint>
            <Time>2022-07-06T13:12:45.000Z</Time>
            <Position>
              <LatitudeDegrees>43.96791857667267322540283203125</LatitudeDegrees>
              <LongitudeDegrees>-1.348196603357791900634765625</LongitudeDegrees>
            </Position>
            <AltitudeMeters>13.19999980926513671875</AltitudeMeters>
            <DistanceMeters>NAN</DistanceMeters>
          </Trackpoint>
          <Trackpoint>
            <Time>2022-07-06T13:12:49.000Z</Time>
            <Position>
              <LatitudeDegrees>43.9677034132182598114013671875</LatitudeDegrees>
              <LongitudeDegrees>-1.348177827894687652587890625</LongitudeDegrees>
            </Position>
            <AltitudeMeters>13</AltitudeMeters>
            <DistanceMeters>NAN</DistanceMeters>
          </Trackpoint>
          <Trackpoint>
            <Time>2022-07-06T13:12:51.000Z</Time>
            <Position>
              <LatitudeDegrees>43.96758866496384143829345703125</LatitudeDegrees>
              <LongitudeDegrees>-1.3481528498232364654541015625</LongitudeDegrees>
            </Position>
            <AltitudeMeters>13</AltitudeMeters>
            <DistanceMeters>NAN</DistanceMeters>
          </Trackpoint>
          <Trackpoint>
            <Time>2022-07-06T13:12:55.000Z</Time>
            <Position>
              <LatitudeDegrees>43.9673855714499950408935546875</LatitudeDegrees>
              <LongitudeDegrees>-1.34811186231672763824462890625</LongitudeDegrees>
            </Position>
            <AltitudeMeters>13</AltitudeMeters>
            <DistanceMeters>NAN</DistanceMeters>
          </Trackpoint>
          <Trackpoint>
            <Time>2022-07-06T13:12:56.000Z</Time>
            <Position>
              <LatitudeDegrees>43.967348523437976837158203125</LatitudeDegrees>
              <LongitudeDegrees>-1.34810029529035091400146484375</LongitudeDegrees>
            </Position>
            <AltitudeMeters>13.19999980926513671875</AltitudeMeters>
            <DistanceMeters>NAN</DistanceMeters>
          </Trackpoint>
          <Trackpoint>
            <Time>2022-07-06T13:12:58.000Z</Time>
            <Position>
              <LatitudeDegrees>43.967264033854007720947265625</LatitudeDegrees>
              <LongitudeDegrees>-1.34807531721889972686767578125</LongitudeDegrees>
            </Position>
            <AltitudeMeters>13.19999980926513671875</AltitudeMeters>
            <DistanceMeters>NAN</DistanceMeters>
          </Trackpoint>
          <Trackpoint>
            <Time>2022-07-06T13:13:06.000Z</Time>
            <Position>
              <LatitudeDegrees>43.96693152375519275665283203125</LatitudeDegrees>
              <LongitudeDegrees>-1.34794791229069232940673828125</LongitudeDegrees>
            </Position>
            <AltitudeMeters>13.3999996185302734375</AltitudeMeters>
            <DistanceMeters>NAN</DistanceMeters>
          </Trackpoint>
          <Trackpoint>
            <Time>2022-07-06T13:13:07.000Z</Time>
            <Position>
              <LatitudeDegrees>43.9668782986700534820556640625</LatitudeDegrees>
              <LongitudeDegrees>-1.34793064557015895843505859375</LongitudeDegrees>
            </Position>
            <AltitudeMeters>13.6000003814697265625</AltitudeMeters>
            <DistanceMeters>NAN</DistanceMeters>
          </Trackpoint>
          <Trackpoint>
            <Time>2022-07-06T13:13:12.000Z</Time>
            <Position>
              <LatitudeDegrees>43.96665911190211772918701171875</LatitudeDegrees>
              <LongitudeDegrees>-1.34786694310605525970458984375</LongitudeDegrees>
            </Position>
            <AltitudeMeters>13.80000019073486328125</AltitudeMeters>
            <DistanceMeters>NAN</DistanceMeters>
          </Trackpoint>
          <Trackpoint>
            <Time>2022-07-06T13:13:16.000Z</Time>
            <Position>
              <LatitudeDegrees>43.966508321464061737060546875</LatitudeDegrees>
              <LongitudeDegrees>-1.3478125445544719696044921875</LongitudeDegrees>
            </Position>
            <AltitudeMeters>14.19999980926513671875</AltitudeMeters>
            <DistanceMeters>NAN</DistanceMeters>
          </Trackpoint>
          <Trackpoint>
            <Time>2022-07-06T13:13:21.000Z</Time>
            <Position>
              <LatitudeDegrees>43.9662932418286800384521484375</LatitudeDegrees>
              <LongitudeDegrees>-1.3477478362619876861572265625</LongitudeDegrees>
            </Position>
            <AltitudeMeters>14.3999996185302734375</AltitudeMeters>
            <DistanceMeters>NAN</DistanceMeters>
          </Trackpoint>
          <Trackpoint>
            <Time>2022-07-06T13:13:24.000Z</Time>
            <Position>
              <LatitudeDegrees>43.9661742188036441802978515625</LatitudeDegrees>
              <LongitudeDegrees>-1.34770500473678112030029296875</LongitudeDegrees>
            </Position>
            <AltitudeMeters>14.3999996185302734375</AltitudeMeters>
            <DistanceMeters>NAN</DistanceMeters>
          </Trackpoint>
          <Trackpoint>
            <Time>2022-07-06T13:13:29.000Z</Time>
            <Position>
              <LatitudeDegrees>43.96594933234155178070068359375</LatitudeDegrees>
              <LongitudeDegrees>-1.34762696921825408935546875</LongitudeDegrees>
            </Position>
            <AltitudeMeters>14.19999980926513671875</AltitudeMeters>
            <DistanceMeters>NAN</DistanceMeters>
          </Trackpoint>
          <Trackpoint>
            <Time>2022-07-06T13:13:31.000Z</Time>
            <Position>
              <LatitudeDegrees>43.96584858186542987823486328125</LatitudeDegrees>
              <LongitudeDegrees>-1.34758941829204559326171875</LongitudeDegrees>
            </Position>
            <AltitudeMeters>14</AltitudeMeters>
            <DistanceMeters>NAN</DistanceMeters>
          </Trackpoint>
          <Trackpoint>
            <Time>2022-07-06T13:13:33.000Z</Time>
            <Position>
              <LatitudeDegrees>43.965729810297489166259765625</LatitudeDegrees>
              <LongitudeDegrees>-1.34755589067935943603515625</LongitudeDegrees>
            </Position>
            <AltitudeMeters>13.80000019073486328125</AltitudeMeters>
            <DistanceMeters>NAN</DistanceMeters>
          </Trackpoint>
          <Trackpoint>
            <Time>2022-07-06T13:13:35.000Z</Time>
            <Position>
              <LatitudeDegrees>43.965635262429714202880859375</LatitudeDegrees>
              <LongitudeDegrees>-1.347538791596889495849609375</LongitudeDegrees>
            </Position>
            <AltitudeMeters>13.6000003814697265625</AltitudeMeters>
            <DistanceMeters>NAN</DistanceMeters>
          </Trackpoint>
          <Trackpoint>
            <Time>2022-07-06T13:13:37.000Z</Time>
            <Position>
              <LatitudeDegrees>43.96552369929850101470947265625</LatitudeDegrees>
              <LongitudeDegrees>-1.3475485146045684814453125</LongitudeDegrees>
            </Position>
            <AltitudeMeters>13.6000003814697265625</AltitudeMeters>
            <DistanceMeters>NAN</DistanceMeters>
          </Trackpoint>
          <Trackpoint>
            <Time>2022-07-06T13:13:39.000Z</Time>
            <Position>
              <LatitudeDegrees>43.9654443226754665374755859375</LatitudeDegrees>
              <LongitudeDegrees>-1.34755429811775684356689453125</LongitudeDegrees>
            </Position>
            <AltitudeMeters>13.6000003814697265625</AltitudeMeters>
            <DistanceMeters>NAN</DistanceMeters>
          </Trackpoint>
          <Trackpoint>
            <Time>2022-07-06T13:13:41.000Z</Time>
            <Position>
              <LatitudeDegrees>43.96535924635827541351318359375</LatitudeDegrees>
              <LongitudeDegrees>-1.34755454957485198974609375</LongitudeDegrees>
            </Position>
            <AltitudeMeters>13.80000019073486328125</AltitudeMeters>
            <DistanceMeters>NAN</DistanceMeters>
          </Trackpoint>
          <Trackpoint>
            <Time>2022-07-06T13:13:44.000Z</Time>
            <Position>
              <LatitudeDegrees>43.96520786918699741363525390625</LatitudeDegrees>
              <LongitudeDegrees>-1.34754876606166362762451171875</LongitudeDegrees>
            </Position>
            <AltitudeMeters>13.80000019073486328125</AltitudeMeters>
            <DistanceMeters>NAN</DistanceMeters>
          </Trackpoint>
          <Trackpoint>
            <Time>2022-07-06T13:13:47.000Z</Time>
            <Position>
              <LatitudeDegrees>43.96505565382540225982666015625</LatitudeDegrees>
              <LongitudeDegrees>-1.34752647019922733306884765625</LongitudeDegrees>
            </Position>
            <AltitudeMeters>13.80000019073486328125</AltitudeMeters>
            <DistanceMeters>NAN</DistanceMeters>
          </Trackpoint>
          <Trackpoint>
            <Time>2022-07-06T13:13:53.000Z</Time>
            <Position>
              <LatitudeDegrees>43.96472473628818988800048828125</LatitudeDegrees>
              <LongitudeDegrees>-1.34749663062393665313720703125</LongitudeDegrees>
            </Position>
            <AltitudeMeters>13.3999996185302734375</AltitudeMeters>
            <DistanceMeters>NAN</DistanceMeters>
          </Trackpoint>
          <Trackpoint>
            <Time>2022-07-06T13:13:54.000Z</Time>
            <Position>
              <LatitudeDegrees>43.9646829105913639068603515625</LatitudeDegrees>
              <LongitudeDegrees>-1.34749419987201690673828125</LongitudeDegrees>
            </Position>
            <AltitudeMeters>13.19999980926513671875</AltitudeMeters>
            <DistanceMeters>NAN</DistanceMeters>
          </Trackpoint>
          <Trackpoint>
            <Time>2022-07-06T13:13:58.000Z</Time>
            <Position>
              <LatitudeDegrees>43.9644924737513065338134765625</LatitudeDegrees>
              <LongitudeDegrees>-1.34750015102326869964599609375</LongitudeDegrees>
            </Position>
            <AltitudeMeters>13.19999980926513671875</AltitudeMeters>
            <DistanceMeters>NAN</DistanceMeters>
          </Trackpoint>
          <Trackpoint>
            <Time>2022-07-06T13:14:00.000Z</Time>
            <Position>
              <LatitudeDegrees>43.96440538577735424041748046875</LatitudeDegrees>
              <LongitudeDegrees>-1.34750224649906158447265625</LongitudeDegrees>
            </Position>
            <AltitudeMeters>13.19999980926513671875</AltitudeMeters>
            <DistanceMeters>NAN</DistanceMeters>
          </Trackpoint>
          <Trackpoint>
            <Time>2022-07-06T13:14:03.000Z</Time>
            <Position>
              <LatitudeDegrees>43.96427504718303680419921875</LatitudeDegrees>
              <LongitudeDegrees>-1.3475017435848712921142578125</LongitudeDegrees>
            </Position>
            <AltitudeMeters>13.6000003814697265625</AltitudeMeters>
            <DistanceMeters>NAN</DistanceMeters>
          </Trackpoint>
          <Trackpoint>
            <Time>2022-07-06T13:14:10.000Z</Time>
            <Position>
              <LatitudeDegrees>43.9639624021947383880615234375</LatitudeDegrees>
              <LongitudeDegrees>-1.34747718460857868194580078125</LongitudeDegrees>
            </Position>
            <AltitudeMeters>14</AltitudeMeters>
            <DistanceMeters>NAN</DistanceMeters>
          </Trackpoint>
          <Trackpoint>
            <Time>2022-07-06T13:14:14.000Z</Time>
            <Position>
              <LatitudeDegrees>43.963753022253513336181640625</LatitudeDegrees>
              <LongitudeDegrees>-1.34745673276484012603759765625</LongitudeDegrees>
            </Position>
            <AltitudeMeters>14</AltitudeMeters>
            <DistanceMeters>NAN</DistanceMeters>
          </Trackpoint>
          <Trackpoint>
            <Time>2022-07-06T13:14:16.000Z</Time>
            <Position>
              <LatitudeDegrees>43.96365403197705745697021484375</LatitudeDegrees>
              <LongitudeDegrees>-1.3474769331514835357666015625</LongitudeDegrees>
            </Position>
            <AltitudeMeters>14</AltitudeMeters>
            <DistanceMeters>NAN</DistanceMeters>
          </Trackpoint>
          <Trackpoint>
            <Time>2022-07-06T13:14:18.000Z</Time>
            <Position>
              <LatitudeDegrees>43.9635449834167957305908203125</LatitudeDegrees>
              <LongitudeDegrees>-1.34751875884830951690673828125</LongitudeDegrees>
            </Position>
            <AltitudeMeters>14</AltitudeMeters>
            <DistanceMeters>NAN</DistanceMeters>
          </Trackpoint>
          <Trackpoint>
            <Time>2022-07-06T13:14:20.000Z</Time>
            <Position>
              <LatitudeDegrees>43.96343819797039031982421875</LatitudeDegrees>
              <LongitudeDegrees>-1.3476160727441310882568359375</LongitudeDegrees>
            </Position>
            <AltitudeMeters>14</AltitudeMeters>
            <DistanceMeters>NAN</DistanceMeters>
          </Trackpoint>
          <Trackpoint>
            <Time>2022-07-06T13:14:21.000Z</Time>
            <Position>
              <LatitudeDegrees>43.96339134313166141510009765625</LatitudeDegrees>
              <LongitudeDegrees>-1.34766980074346065521240234375</LongitudeDegrees>
            </Position>
            <AltitudeMeters>14.19999980926513671875</AltitudeMeters>
            <DistanceMeters>NAN</DistanceMeters>
          </Trackpoint>
          <Trackpoint>
            <Time>2022-07-06T13:14:25.000Z</Time>
            <Position>
              <LatitudeDegrees>43.96323074586689472198486328125</LatitudeDegrees>
              <LongitudeDegrees>-1.347940452396869659423828125</LongitudeDegrees>
            </Position>
            <AltitudeMeters>14.19999980926513671875</AltitudeMeters>
            <DistanceMeters>NAN</DistanceMeters>
          </Trackpoint>
          <Trackpoint>
            <Time>2022-07-06T13:14:28.000Z</Time>
            <Position>
              <LatitudeDegrees>43.96312035620212554931640625</LatitudeDegrees>
              <LongitudeDegrees>-1.34811705909669399261474609375</LongitudeDegrees>
            </Position>
            <AltitudeMeters>14.19999980926513671875</AltitudeMeters>
            <DistanceMeters>NAN</DistanceMeters>
          </Trackpoint>
          <Trackpoint>
            <Time>2022-07-06T13:14:32.000Z</Time>
            <Position>
              <LatitudeDegrees>43.962975852191448211669921875</LatitudeDegrees>
              <LongitudeDegrees>-1.34833029471337795257568359375</LongitudeDegrees>
            </Position>
            <AltitudeMeters>14.19999980926513671875</AltitudeMeters>
            <DistanceMeters>NAN</DistanceMeters>
          </Trackpoint>
          <Trackpoint>
            <Time>2022-07-06T13:14:36.000Z</Time>
            <Position>
              <LatitudeDegrees>43.96285925991833209991455078125</LatitudeDegrees>
              <LongitudeDegrees>-1.34850011207163333892822265625</LongitudeDegrees>
            </Position>
            <AltitudeMeters>14.19999980926513671875</AltitudeMeters>
            <DistanceMeters>NAN</DistanceMeters>
          </Trackpoint>
          <Trackpoint>
            <Time>2022-07-06T13:14:38.000Z</Time>
            <Position>
              <LatitudeDegrees>43.9628154225647449493408203125</LatitudeDegrees>
              <LongitudeDegrees>-1.34857102297246456146240234375</LongitudeDegrees>
            </Position>
            <AltitudeMeters>14.19999980926513671875</AltitudeMeters>
            <DistanceMeters>NAN</DistanceMeters>
          </Trackpoint>
          <Trackpoint>
            <Time>2022-07-06T13:14:42.000Z</Time>
            <Position>
              <LatitudeDegrees>43.9627148397266864776611328125</LatitudeDegrees>
              <LongitudeDegrees>-1.34874201379716396331787109375</LongitudeDegrees>
            </Position>
            <AltitudeMeters>14</AltitudeMeters>
            <DistanceMeters>NAN</DistanceMeters>
          </Trackpoint>
          <Trackpoint>
            <Time>2022-07-06T13:14:44.000Z</Time>
            <Position>
              <LatitudeDegrees>43.9626729302108287811279296875</LatitudeDegrees>
              <LongitudeDegrees>-1.3488394953310489654541015625</LongitudeDegrees>
            </Position>
            <AltitudeMeters>14</AltitudeMeters>
            <DistanceMeters>NAN</DistanceMeters>
          </Trackpoint>
          <Trackpoint>
            <Time>2022-07-06T13:14:46.000Z</Time>
            <Position>
              <LatitudeDegrees>43.9626273326575756072998046875</LatitudeDegrees>
              <LongitudeDegrees>-1.34893395937979221343994140625</LongitudeDegrees>
            </Position>
            <AltitudeMeters>14</AltitudeMeters>
            <DistanceMeters>NAN</DistanceMeters>
          </Trackpoint>
          <Trackpoint>
            <Time>2022-07-06T13:14:50.000Z</Time>
            <Position>
              <LatitudeDegrees>43.96255348809063434600830078125</LatitudeDegrees>
              <LongitudeDegrees>-1.34907444007694721221923828125</LongitudeDegrees>
            </Position>
            <AltitudeMeters>14.80000019073486328125</AltitudeMeters>
            <DistanceMeters>NAN</DistanceMeters>
          </Trackpoint>
          <Trackpoint>
            <Time>2022-07-06T13:14:54.000Z</Time>
            <Position>
              <LatitudeDegrees>43.96252532489597797393798828125</LatitudeDegrees>
              <LongitudeDegrees>-1.34918726049363613128662109375</LongitudeDegrees>
            </Position>
            <AltitudeMeters>15.3999996185302734375</AltitudeMeters>
            <DistanceMeters>NAN</DistanceMeters>
          </Trackpoint>
          <Trackpoint>
            <Time>2022-07-06T13:14:56.000Z</Time>
            <Position>
              <LatitudeDegrees>43.9624962396919727325439453125</LatitudeDegrees>
              <LongitudeDegrees>-1.34926336817443370819091796875</LongitudeDegrees>
            </Position>
            <AltitudeMeters>15.80000019073486328125</AltitudeMeters>
            <DistanceMeters>NAN</DistanceMeters>
          </Trackpoint>
          <Trackpoint>
            <Time>2022-07-06T13:15:04.000Z</Time>
            <Position>
              <LatitudeDegrees>43.9623698405921459197998046875</LatitudeDegrees>
              <LongitudeDegrees>-1.34943804703652858734130859375</LongitudeDegrees>
            </Position>
            <AltitudeMeters>17</AltitudeMeters>
            <DistanceMeters>NAN</DistanceMeters>
          </Trackpoint>
          <Trackpoint>
            <Time>2022-07-06T13:15:08.000Z</Time>
            <Position>
              <LatitudeDegrees>43.96230437792837619781494140625</LatitudeDegrees>
              <LongitudeDegrees>-1.34951331652700901031494140625</LongitudeDegrees>
            </Position>
            <AltitudeMeters>17.3999996185302734375</AltitudeMeters>
            <DistanceMeters>NAN</DistanceMeters>
          </Trackpoint>
          <Trackpoint>
            <Time>2022-07-06T13:15:10.000Z</Time>
            <Position>
              <LatitudeDegrees>43.96227856166660785675048828125</LatitudeDegrees>
              <LongitudeDegrees>-1.3495405577123165130615234375</LongitudeDegrees>
            </Position>
            <AltitudeMeters>17.6000003814697265625</AltitudeMeters>
            <DistanceMeters>NAN</DistanceMeters>
          </Trackpoint>
          <Trackpoint>
            <Time>2022-07-06T13:15:18.000Z</Time>
            <Position>
              <LatitudeDegrees>43.962124921381473541259765625</LatitudeDegrees>
              <LongitudeDegrees>-1.34967039339244365692138671875</LongitudeDegrees>
            </Position>
            <AltitudeMeters>17.799999237060546875</AltitudeMeters>
            <DistanceMeters>NAN</DistanceMeters>
          </Trackpoint>
          <Trackpoint>
            <Time>2022-07-06T13:15:22.000Z</Time>
            <Position>
              <LatitudeDegrees>43.9619547687470912933349609375</LatitudeDegrees>
              <LongitudeDegrees>-1.34977416135370731353759765625</LongitudeDegrees>
            </Position>
            <AltitudeMeters>17.6000003814697265625</AltitudeMeters>
            <DistanceMeters>NAN</DistanceMeters>
          </Trackpoint>
          <Trackpoint>
            <Time>2022-07-06T13:15:24.000Z</Time>
            <Position>
              <LatitudeDegrees>43.9618759788572788238525390625</LatitudeDegrees>
              <LongitudeDegrees>-1.34983266703784465789794921875</LongitudeDegrees>
            </Position>
            <AltitudeMeters>17.200000762939453125</AltitudeMeters>
            <DistanceMeters>NAN</DistanceMeters>
          </Trackpoint>
          <Trackpoint>
            <Time>2022-07-06T13:15:26.000Z</Time>
            <Position>
              <LatitudeDegrees>43.96173206157982349395751953125</LatitudeDegrees>
              <LongitudeDegrees>-1.3499133847653865814208984375</LongitudeDegrees>
            </Position>
            <AltitudeMeters>16.6000003814697265625</AltitudeMeters>
            <DistanceMeters>NAN</DistanceMeters>
          </Trackpoint>
          <Trackpoint>
            <Time>2022-07-06T13:15:28.000Z</Time>
            <Position>
              <LatitudeDegrees>43.96159694530069828033447265625</LatitudeDegrees>
              <LongitudeDegrees>-1.35000206530094146728515625</LongitudeDegrees>
            </Position>
            <AltitudeMeters>16.200000762939453125</AltitudeMeters>
            <DistanceMeters>NAN</DistanceMeters>
          </Trackpoint>
          <Trackpoint>
            <Time>2022-07-06T13:15:29.000Z</Time>
            <Position>
              <LatitudeDegrees>43.96151279099285602569580078125</LatitudeDegrees>
              <LongitudeDegrees>-1.35003282688558101654052734375</LongitudeDegrees>
            </Position>
            <AltitudeMeters>15.80000019073486328125</AltitudeMeters>
            <DistanceMeters>NAN</DistanceMeters>
          </Trackpoint>
          <Trackpoint>
            <Time>2022-07-06T13:15:32.000Z</Time>
            <Position>
              <LatitudeDegrees>43.9612956158816814422607421875</LatitudeDegrees>
              <LongitudeDegrees>-1.35017330758273601531982421875</LongitudeDegrees>
            </Position>
            <AltitudeMeters>14.80000019073486328125</AltitudeMeters>
            <DistanceMeters>NAN</DistanceMeters>
          </Trackpoint>
          <Trackpoint>
            <Time>2022-07-06T13:15:37.000Z</Time>
            <Position>
              <LatitudeDegrees>43.9609911851584911346435546875</LatitudeDegrees>
              <LongitudeDegrees>-1.3503318093717098236083984375</LongitudeDegrees>
            </Position>
            <AltitudeMeters>13.80000019073486328125</AltitudeMeters>
            <DistanceMeters>NAN</DistanceMeters>
          </Trackpoint>
          <Trackpoint>
            <Time>2022-07-06T13:15:38.000Z</Time>
            <Position>
              <LatitudeDegrees>43.96093578077852725982666015625</LatitudeDegrees>
              <LongitudeDegrees>-1.35035812854766845703125</LongitudeDegrees>
            </Position>
            <AltitudeMeters>13.6000003814697265625</AltitudeMeters>
            <DistanceMeters>NAN</DistanceMeters>
          </Trackpoint>
          <Trackpoint>
            <Time>2022-07-06T13:15:45.000Z</Time>
            <Position>
              <LatitudeDegrees>43.96056815050542354583740234375</LatitudeDegrees>
              <LongitudeDegrees>-1.3505311310291290283203125</LongitudeDegrees>
            </Position>
            <AltitudeMeters>13.80000019073486328125</AltitudeMeters>
            <DistanceMeters>NAN</DistanceMeters>
          </Trackpoint>
          <Trackpoint>
            <Time>2022-07-06T13:15:49.000Z</Time>
            <Position>
              <LatitudeDegrees>43.96038123406469821929931640625</LatitudeDegrees>
              <LongitudeDegrees>-1.3506194762885570526123046875</LongitudeDegrees>
            </Position>
            <AltitudeMeters>13.6000003814697265625</AltitudeMeters>
            <DistanceMeters>NAN</DistanceMeters>
          </Trackpoint>
          <Trackpoint>
            <Time>2022-07-06T13:15:53.000Z</Time>
            <Position>
              <LatitudeDegrees>43.96018870174884796142578125</LatitudeDegrees>
              <LongitudeDegrees>-1.3507203944027423858642578125</LongitudeDegrees>
            </Position>
            <AltitudeMeters>13.3999996185302734375</AltitudeMeters>
            <DistanceMeters>NAN</DistanceMeters>
          </Trackpoint>
          <Trackpoint>
            <Time>2022-07-06T13:15:56.000Z</Time>
            <Position>
              <LatitudeDegrees>43.96003539673984050750732421875</LatitudeDegrees>
              <LongitudeDegrees>-1.3507934845983982086181640625</LongitudeDegrees>
            </Position>
            <AltitudeMeters>13</AltitudeMeters>
            <DistanceMeters>NAN</DistanceMeters>
          </Trackpoint>
          <Trackpoint>
            <Time>2022-07-06T13:15:58.000Z</Time>
            <Position>
              <LatitudeDegrees>43.95993498153984546661376953125</LatitudeDegrees>
              <LongitudeDegrees>-1.350845284759998321533203125</LongitudeDegrees>
            </Position>
            <AltitudeMeters>12.80000019073486328125</AltitudeMeters>
            <DistanceMeters>NAN</DistanceMeters>
          </Trackpoint>
          <Trackpoint>
            <Time>2022-07-06T13:16:01.000Z</Time>
            <Position>
              <LatitudeDegrees>43.95979173481464385986328125</LatitudeDegrees>
              <LongitudeDegrees>-1.35092063806951045989990234375</LongitudeDegrees>
            </Position>
            <AltitudeMeters>12.6000003814697265625</AltitudeMeters>
            <DistanceMeters>NAN</DistanceMeters>
          </Trackpoint>
          <Trackpoint>
            <Time>2022-07-06T13:16:02.000Z</Time>
            <Position>
              <LatitudeDegrees>43.95974286831915378570556640625</LatitudeDegrees>
              <LongitudeDegrees>-1.35094352066516876220703125</LongitudeDegrees>
            </Position>
            <AltitudeMeters>12.6000003814697265625</AltitudeMeters>
            <DistanceMeters>NAN</DistanceMeters>
          </Trackpoint>
          <Trackpoint>
            <Time>2022-07-06T13:16:06.000Z</Time>
            <Position>
              <LatitudeDegrees>43.959561400115489959716796875</LatitudeDegrees>
              <LongitudeDegrees>-1.35103496722877025604248046875</LongitudeDegrees>
            </Position>
            <AltitudeMeters>12.6000003814697265625</AltitudeMeters>
            <DistanceMeters>NAN</DistanceMeters>
          </Trackpoint>
          <Trackpoint>
            <Time>2022-07-06T13:16:07.000Z</Time>
            <Position>
              <LatitudeDegrees>43.9595152996480464935302734375</LatitudeDegrees>
              <LongitudeDegrees>-1.351059190928936004638671875</LongitudeDegrees>
            </Position>
            <AltitudeMeters>12.6000003814697265625</AltitudeMeters>
            <DistanceMeters>NAN</DistanceMeters>
          </Trackpoint>
          <Trackpoint>
            <Time>2022-07-06T13:16:16.000Z</Time>
            <Position>
              <LatitudeDegrees>43.95913333632051944732666015625</LatitudeDegrees>
              <LongitudeDegrees>-1.35131542570888996124267578125</LongitudeDegrees>
            </Position>
            <AltitudeMeters>12.6000003814697265625</AltitudeMeters>
            <DistanceMeters>NAN</DistanceMeters>
          </Trackpoint>
          <Trackpoint>
            <Time>2022-07-06T13:16:18.000Z</Time>
            <Position>
              <LatitudeDegrees>43.9590519480407238006591796875</LatitudeDegrees>
              <LongitudeDegrees>-1.35138566605746746063232421875</LongitudeDegrees>
            </Position>
            <AltitudeMeters>12.6000003814697265625</AltitudeMeters>
            <DistanceMeters>NAN</DistanceMeters>
          </Trackpoint>
          <Trackpoint>
            <Time>2022-07-06T13:16:25.000Z</Time>
            <Position>
              <LatitudeDegrees>43.95878096111118793487548828125</LatitudeDegrees>
              <LongitudeDegrees>-1.35162941180169582366943359375</LongitudeDegrees>
            </Position>
            <AltitudeMeters>12.6000003814697265625</AltitudeMeters>
            <DistanceMeters>NAN</DistanceMeters>
          </Trackpoint>
          <Trackpoint>
            <Time>2022-07-06T13:16:34.000Z</Time>
            <Position>
              <LatitudeDegrees>43.95843797363340854644775390625</LatitudeDegrees>
              <LongitudeDegrees>-1.35190735571086406707763671875</LongitudeDegrees>
            </Position>
            <AltitudeMeters>12.80000019073486328125</AltitudeMeters>
            <DistanceMeters>NAN</DistanceMeters>
          </Trackpoint>
          <Trackpoint>
            <Time>2022-07-06T13:16:39.000Z</Time>
            <Position>
              <LatitudeDegrees>43.958233036100864410400390625</LatitudeDegrees>
              <LongitudeDegrees>-1.3520393706858158111572265625</LongitudeDegrees>
            </Position>
            <AltitudeMeters>12.6000003814697265625</AltitudeMeters>
            <DistanceMeters>NAN</DistanceMeters>
          </Trackpoint>
          <Trackpoint>
            <Time>2022-07-06T13:16:41.000Z</Time>
            <Position>
              <LatitudeDegrees>43.9581581018865108489990234375</LatitudeDegrees>
              <LongitudeDegrees>-1.35209041647613048553466796875</LongitudeDegrees>
            </Position>
            <AltitudeMeters>12.6000003814697265625</AltitudeMeters>
            <DistanceMeters>NAN</DistanceMeters>
          </Trackpoint>
          <Trackpoint>
            <Time>2022-07-06T13:16:51.000Z</Time>
            <Position>
              <LatitudeDegrees>43.95775753073394298553466796875</LatitudeDegrees>
              <LongitudeDegrees>-1.3523562066256999969482421875</LongitudeDegrees>
            </Position>
            <AltitudeMeters>12.6000003814697265625</AltitudeMeters>
            <DistanceMeters>NAN</DistanceMeters>
          </Trackpoint>
          <Trackpoint>
            <Time>2022-07-06T13:16:52.000Z</Time>
            <Position>
              <LatitudeDegrees>43.95771394483745098114013671875</LatitudeDegrees>
              <LongitudeDegrees>-1.3523944281041622161865234375</LongitudeDegrees>
            </Position>
            <AltitudeMeters>12.6000003814697265625</AltitudeMeters>
            <DistanceMeters>NAN</DistanceMeters>
          </Trackpoint>
          <Trackpoint>
            <Time>2022-07-06T13:16:55.000Z</Time>
            <Position>
              <LatitudeDegrees>43.9575774036347866058349609375</LatitudeDegrees>
              <LongitudeDegrees>-1.3524940051138401031494140625</LongitudeDegrees>
            </Position>
            <AltitudeMeters>12.6000003814697265625</AltitudeMeters>
            <DistanceMeters>NAN</DistanceMeters>
          </Trackpoint>
          <Trackpoint>
            <Time>2022-07-06T13:16:58.000Z</Time>
            <Position>
              <LatitudeDegrees>43.95746902562677860260009765625</LatitudeDegrees>
              <LongitudeDegrees>-1.3525952585041522979736328125</LongitudeDegrees>
            </Position>
            <AltitudeMeters>12.80000019073486328125</AltitudeMeters>
            <DistanceMeters>NAN</DistanceMeters>
          </Trackpoint>
          <Trackpoint>
            <Time>2022-07-06T13:16:59.000Z</Time>
            <Position>
              <LatitudeDegrees>43.95743004977703094482421875</LatitudeDegrees>
              <LongitudeDegrees>-1.3526220805943012237548828125</LongitudeDegrees>
            </Position>
            <AltitudeMeters>13</AltitudeMeters>
            <DistanceMeters>NAN</DistanceMeters>
          </Trackpoint>
          <Trackpoint>
            <Time>2022-07-06T13:17:04.000Z</Time>
            <Position>
              <LatitudeDegrees>43.95724338479340076446533203125</LatitudeDegrees>
              <LongitudeDegrees>-1.35276474058628082275390625</LongitudeDegrees>
            </Position>
            <AltitudeMeters>13</AltitudeMeters>
            <DistanceMeters>NAN</DistanceMeters>
          </Trackpoint>
          <Trackpoint>
            <Time>2022-07-06T13:17:06.000Z</Time>
            <Position>
              <LatitudeDegrees>43.95717381499707698822021484375</LatitudeDegrees>
              <LongitudeDegrees>-1.35283104144036769866943359375</LongitudeDegrees>
            </Position>
            <AltitudeMeters>13</AltitudeMeters>
            <DistanceMeters>NAN</DistanceMeters>
          </Trackpoint>
          <Trackpoint>
            <Time>2022-07-06T13:17:12.000Z</Time>
            <Position>
              <LatitudeDegrees>43.95691112615168094635009765625</LatitudeDegrees>
              <LongitudeDegrees>-1.35300689376890659332275390625</LongitudeDegrees>
            </Position>
            <AltitudeMeters>12.3999996185302734375</AltitudeMeters>
            <DistanceMeters>NAN</DistanceMeters>
          </Trackpoint>
          <Trackpoint>
            <Time>2022-07-06T13:17:18.000Z</Time>
            <Position>
              <LatitudeDegrees>43.956641145050525665283203125</LatitudeDegrees>
              <LongitudeDegrees>-1.3532158546149730682373046875</LongitudeDegrees>
            </Position>
            <AltitudeMeters>12.80000019073486328125</AltitudeMeters>
            <DistanceMeters>NAN</DistanceMeters>
          </Trackpoint>
          <Trackpoint>
            <Time>2022-07-06T13:17:20.000Z</Time>
            <Position>
              <LatitudeDegrees>43.9565742574632167816162109375</LatitudeDegrees>
              <LongitudeDegrees>-1.35324561037123203277587890625</LongitudeDegrees>
            </Position>
            <AltitudeMeters>12.80000019073486328125</AltitudeMeters>
            <DistanceMeters>NAN</DistanceMeters>
          </Trackpoint>
          <Trackpoint>
            <Time>2022-07-06T13:17:22.000Z</Time>
            <Position>
              <LatitudeDegrees>43.9564718306064605712890625</LatitudeDegrees>
              <LongitudeDegrees>-1.35326287709176540374755859375</LongitudeDegrees>
            </Position>
            <AltitudeMeters>12.80000019073486328125</AltitudeMeters>
            <DistanceMeters>NAN</DistanceMeters>
          </Trackpoint>
          <Trackpoint>
            <Time>2022-07-06T13:17:23.000Z</Time>
            <Position>
              <LatitudeDegrees>43.9564168453216552734375</LatitudeDegrees>
              <LongitudeDegrees>-1.35326606221497058868408203125</LongitudeDegrees>
            </Position>
            <AltitudeMeters>12.80000019073486328125</AltitudeMeters>
            <DistanceMeters>NAN</DistanceMeters>
          </Trackpoint>
          <Trackpoint>
            <Time>2022-07-06T13:17:30.000Z</Time>
            <Position>
              <LatitudeDegrees>43.956144936382770538330078125</LatitudeDegrees>
              <LongitudeDegrees>-1.35326975025236606597900390625</LongitudeDegrees>
            </Position>
            <AltitudeMeters>12.3999996185302734375</AltitudeMeters>
            <DistanceMeters>NAN</DistanceMeters>
          </Trackpoint>
          <Trackpoint>
            <Time>2022-07-06T13:17:38.000Z</Time>
            <Position>
              <LatitudeDegrees>43.95582516677677631378173828125</LatitudeDegrees>
              <LongitudeDegrees>-1.35330830700695514678955078125</LongitudeDegrees>
            </Position>
            <AltitudeMeters>12.80000019073486328125</AltitudeMeters>
            <DistanceMeters>NAN</DistanceMeters>
          </Trackpoint>
          <Trackpoint>
            <Time>2022-07-06T13:17:40.000Z</Time>
            <Position>
              <LatitudeDegrees>43.9557571895420551300048828125</LatitudeDegrees>
              <LongitudeDegrees>-1.35331501252949237823486328125</LongitudeDegrees>
            </Position>
            <AltitudeMeters>13</AltitudeMeters>
            <DistanceMeters>NAN</DistanceMeters>
          </Trackpoint>
          <Trackpoint>
            <Time>2022-07-06T13:17:41.000Z</Time>
            <Position>
              <LatitudeDegrees>43.95571670494973659515380859375</LatitudeDegrees>
              <LongitudeDegrees>-1.35332188569009304046630859375</LongitudeDegrees>
            </Position>
            <AltitudeMeters>13</AltitudeMeters>
            <DistanceMeters>NAN</DistanceMeters>
          </Trackpoint>
          <Trackpoint>
            <Time>2022-07-06T13:17:44.000Z</Time>
            <Position>
              <LatitudeDegrees>43.9555701054632663726806640625</LatitudeDegrees>
              <LongitudeDegrees>-1.35332666337490081787109375</LongitudeDegrees>
            </Position>
            <AltitudeMeters>13</AltitudeMeters>
            <DistanceMeters>NAN</DistanceMeters>
          </Trackpoint>
          <Trackpoint>
            <Time>2022-07-06T13:17:45.000Z</Time>
            <Position>
              <LatitudeDegrees>43.95553297363221645355224609375</LatitudeDegrees>
              <LongitudeDegrees>-1.35332959704101085662841796875</LongitudeDegrees>
            </Position>
            <AltitudeMeters>13</AltitudeMeters>
            <DistanceMeters>NAN</DistanceMeters>
          </Trackpoint>
          <Trackpoint>
            <Time>2022-07-06T13:17:49.000Z</Time>
            <Position>
              <LatitudeDegrees>43.95535670220851898193359375</LatitudeDegrees>
              <LongitudeDegrees>-1.35333177633583545684814453125</LongitudeDegrees>
            </Position>
            <AltitudeMeters>13</AltitudeMeters>
            <DistanceMeters>NAN</DistanceMeters>
          </Trackpoint>
          <Trackpoint>
            <Time>2022-07-06T13:17:52.000Z</Time>
            <Position>
              <LatitudeDegrees>43.95522217266261577606201171875</LatitudeDegrees>
              <LongitudeDegrees>-1.35334937833249568939208984375</LongitudeDegrees>
            </Position>
            <AltitudeMeters>13.19999980926513671875</AltitudeMeters>
            <DistanceMeters>NAN</DistanceMeters>
          </Trackpoint>
          <Trackpoint>
            <Time>2022-07-06T13:17:57.000Z</Time>
            <Position>
              <LatitudeDegrees>43.95507096312940120697021484375</LatitudeDegrees>
              <LongitudeDegrees>-1.35336832143366336822509765625</LongitudeDegrees>
            </Position>
            <AltitudeMeters>13.80000019073486328125</AltitudeMeters>
            <DistanceMeters>NAN</DistanceMeters>
          </Trackpoint>
          <Trackpoint>
            <Time>2022-07-06T13:17:58.000Z</Time>
            <Position>
              <LatitudeDegrees>43.95503626205027103424072265625</LatitudeDegrees>
              <LongitudeDegrees>-1.35335884988307952880859375</LongitudeDegrees>
            </Position>
            <AltitudeMeters>14</AltitudeMeters>
            <DistanceMeters>NAN</DistanceMeters>
          </Trackpoint>
          <Trackpoint>
            <Time>2022-07-06T13:18:03.000Z</Time>
            <Position>
              <LatitudeDegrees>43.95491070114076137542724609375</LatitudeDegrees>
              <LongitudeDegrees>-1.35338726453483104705810546875</LongitudeDegrees>
            </Position>
            <AltitudeMeters>14.6000003814697265625</AltitudeMeters>
            <DistanceMeters>NAN</DistanceMeters>
          </Trackpoint>
          <Trackpoint>
            <Time>2022-07-06T13:18:04.000Z</Time>
            <Position>
              <LatitudeDegrees>43.95488840527832508087158203125</LatitudeDegrees>
              <LongitudeDegrees>-1.353398747742176055908203125</LongitudeDegrees>
            </Position>
            <AltitudeMeters>14.6000003814697265625</AltitudeMeters>
            <DistanceMeters>NAN</DistanceMeters>
          </Trackpoint>
          <Trackpoint>
            <Time>2022-07-06T13:18:05.000Z</Time>
            <Position>
              <LatitudeDegrees>43.95486627705395221710205078125</LatitudeDegrees>
              <LongitudeDegrees>-1.35340578854084014892578125</LongitudeDegrees>
            </Position>
            <AltitudeMeters>14.80000019073486328125</AltitudeMeters>
            <DistanceMeters>NAN</DistanceMeters>
          </Trackpoint>
          <Trackpoint>
            <Time>2022-07-06T13:18:08.000Z</Time>
            <Position>
              <LatitudeDegrees>43.95480777136981487274169921875</LatitudeDegrees>
              <LongitudeDegrees>-1.35342079214751720428466796875</LongitudeDegrees>
            </Position>
            <AltitudeMeters>15.19999980926513671875</AltitudeMeters>
            <DistanceMeters>NAN</DistanceMeters>
          </Trackpoint>
          <Trackpoint>
            <Time>2022-07-06T13:18:09.000Z</Time>
            <Position>
              <LatitudeDegrees>43.954787738621234893798828125</LatitudeDegrees>
              <LongitudeDegrees>-1.3534227199852466583251953125</LongitudeDegrees>
            </Position>
            <AltitudeMeters>15.3999996185302734375</AltitudeMeters>
            <DistanceMeters>NAN</DistanceMeters>
          </Trackpoint>
          <Trackpoint>
            <Time>2022-07-06T13:18:13.000Z</Time>
            <Position>
              <LatitudeDegrees>43.95468824543058872222900390625</LatitudeDegrees>
              <LongitudeDegrees>-1.35343185625970363616943359375</LongitudeDegrees>
            </Position>
            <AltitudeMeters>15.80000019073486328125</AltitudeMeters>
            <DistanceMeters>NAN</DistanceMeters>
          </Trackpoint>
          <Trackpoint>
            <Time>2022-07-06T13:18:14.000Z</Time>
            <Position>
              <LatitudeDegrees>43.95466159097850322723388671875</LatitudeDegrees>
              <LongitudeDegrees>-1.35342632420361042022705078125</LongitudeDegrees>
            </Position>
            <AltitudeMeters>15.80000019073486328125</AltitudeMeters>
            <DistanceMeters>NAN</DistanceMeters>
          </Trackpoint>
          <Trackpoint>
            <Time>2022-07-06T13:18:19.000Z</Time>
            <Position>
              <LatitudeDegrees>43.9545119740068912506103515625</LatitudeDegrees>
              <LongitudeDegrees>-1.353406794369220733642578125</LongitudeDegrees>
            </Position>
            <AltitudeMeters>16.200000762939453125</AltitudeMeters>
            <DistanceMeters>NAN</DistanceMeters>
          </Trackpoint>
          <Trackpoint>
            <Time>2022-07-06T13:18:22.000Z</Time>
            <Position>
              <LatitudeDegrees>43.95438649691641330718994140625</LatitudeDegrees>
              <LongitudeDegrees>-1.35339849628508090972900390625</LongitudeDegrees>
            </Position>
            <AltitudeMeters>16.200000762939453125</AltitudeMeters>
            <DistanceMeters>NAN</DistanceMeters>
          </Trackpoint>
          <Trackpoint>
            <Time>2022-07-06T13:18:24.000Z</Time>
            <Position>
              <LatitudeDegrees>43.95423562265932559967041015625</LatitudeDegrees>
              <LongitudeDegrees>-1.35338793508708477020263671875</LongitudeDegrees>
            </Position>
            <AltitudeMeters>16</AltitudeMeters>
            <DistanceMeters>NAN</DistanceMeters>
          </Trackpoint>
          <Trackpoint>
            <Time>2022-07-06T13:18:26.000Z</Time>
            <Position>
              <LatitudeDegrees>43.95411676727235317230224609375</LatitudeDegrees>
              <LongitudeDegrees>-1.3533938862383365631103515625</LongitudeDegrees>
            </Position>
            <AltitudeMeters>15.80000019073486328125</AltitudeMeters>
            <DistanceMeters>NAN</DistanceMeters>
          </Trackpoint>
          <Trackpoint>
            <Time>2022-07-06T13:18:29.000Z</Time>
            <Position>
              <LatitudeDegrees>43.95387318916618824005126953125</LatitudeDegrees>
              <LongitudeDegrees>-1.35344912298023700714111328125</LongitudeDegrees>
            </Position>
            <AltitudeMeters>15</AltitudeMeters>
            <DistanceMeters>NAN</DistanceMeters>
          </Trackpoint>
          <Trackpoint>
            <Time>2022-07-06T13:18:31.000Z</Time>
            <Position>
              <LatitudeDegrees>43.9537555910646915435791015625</LatitudeDegrees>
              <LongitudeDegrees>-1.3534777052700519561767578125</LongitudeDegrees>
            </Position>
            <AltitudeMeters>14.80000019073486328125</AltitudeMeters>
            <DistanceMeters>NAN</DistanceMeters>
          </Trackpoint>
          <Trackpoint>
            <Time>2022-07-06T13:18:36.000Z</Time>
            <Position>
              <LatitudeDegrees>43.95345761440694332122802734375</LatitudeDegrees>
              <LongitudeDegrees>-1.3534958101809024810791015625</LongitudeDegrees>
            </Position>
            <AltitudeMeters>13.80000019073486328125</AltitudeMeters>
            <DistanceMeters>NAN</DistanceMeters>
          </Trackpoint>
          <Trackpoint>
            <Time>2022-07-06T13:18:39.000Z</Time>
            <Position>
              <LatitudeDegrees>43.95331143401563167572021484375</LatitudeDegrees>
              <LongitudeDegrees>-1.35352757759392261505126953125</LongitudeDegrees>
            </Position>
            <AltitudeMeters>13.80000019073486328125</AltitudeMeters>
            <DistanceMeters>NAN</DistanceMeters>
          </Trackpoint>
          <Trackpoint>
            <Time>2022-07-06T13:18:42.000Z</Time>
            <Position>
              <LatitudeDegrees>43.953187130391597747802734375</LatitudeDegrees>
              <LongitudeDegrees>-1.35355272330343723297119140625</LongitudeDegrees>
            </Position>
            <AltitudeMeters>14</AltitudeMeters>
            <DistanceMeters>NAN</DistanceMeters>
          </Trackpoint>
          <Trackpoint>
            <Time>2022-07-06T13:18:47.000Z</Time>
            <Position>
              <LatitudeDegrees>43.95296744070947170257568359375</LatitudeDegrees>
              <LongitudeDegrees>-1.3536121509969234466552734375</LongitudeDegrees>
            </Position>
            <AltitudeMeters>14.19999980926513671875</AltitudeMeters>
            <DistanceMeters>NAN</DistanceMeters>
          </Trackpoint>
          <Trackpoint>
            <Time>2022-07-06T13:18:55.000Z</Time>
            <Position>
              <LatitudeDegrees>43.95259796641767024993896484375</LatitudeDegrees>
              <LongitudeDegrees>-1.3536128215491771697998046875</LongitudeDegrees>
            </Position>
            <AltitudeMeters>14.6000003814697265625</AltitudeMeters>
            <DistanceMeters>NAN</DistanceMeters>
          </Trackpoint>
          <Trackpoint>
            <Time>2022-07-06T13:18:58.000Z</Time>
            <Position>
              <LatitudeDegrees>43.95245321094989776611328125</LatitudeDegrees>
              <LongitudeDegrees>-1.35358951985836029052734375</LongitudeDegrees>
            </Position>
            <AltitudeMeters>14.6000003814697265625</AltitudeMeters>
            <DistanceMeters>NAN</DistanceMeters>
          </Trackpoint>
          <Trackpoint>
            <Time>2022-07-06T13:19:03.000Z</Time>
            <Position>
              <LatitudeDegrees>43.95223922096192836761474609375</LatitudeDegrees>
              <LongitudeDegrees>-1.35359010659158229827880859375</LongitudeDegrees>
            </Position>
            <AltitudeMeters>14.80000019073486328125</AltitudeMeters>
            <DistanceMeters>NAN</DistanceMeters>
          </Trackpoint>
          <Trackpoint>
            <Time>2022-07-06T13:19:08.000Z</Time>
            <Position>
              <LatitudeDegrees>43.952094130218029022216796875</LatitudeDegrees>
              <LongitudeDegrees>-1.35359915904700756072998046875</LongitudeDegrees>
            </Position>
            <AltitudeMeters>14.3999996185302734375</AltitudeMeters>
            <DistanceMeters>NAN</DistanceMeters>
          </Trackpoint>
          <Trackpoint>
            <Time>2022-07-06T13:19:14.000Z</Time>
            <Position>
              <LatitudeDegrees>43.95196597091853618621826171875</LatitudeDegrees>
              <LongitudeDegrees>-1.35356898419559001922607421875</LongitudeDegrees>
            </Position>
            <AltitudeMeters>14.19999980926513671875</AltitudeMeters>
            <DistanceMeters>NAN</DistanceMeters>
          </Trackpoint>
          <Trackpoint>
            <Time>2022-07-06T13:19:20.000Z</Time>
            <Position>
              <LatitudeDegrees>43.9517442695796489715576171875</LatitudeDegrees>
              <LongitudeDegrees>-1.35357418097555637359619140625</LongitudeDegrees>
            </Position>
            <AltitudeMeters>14</AltitudeMeters>
            <DistanceMeters>NAN</DistanceMeters>
          </Trackpoint>
          <Trackpoint>
            <Time>2022-07-06T13:19:25.000Z</Time>
            <Position>
              <LatitudeDegrees>43.9515659026801586151123046875</LatitudeDegrees>
              <LongitudeDegrees>-1.35356026701629161834716796875</LongitudeDegrees>
            </Position>
            <AltitudeMeters>14</AltitudeMeters>
            <DistanceMeters>NAN</DistanceMeters>
          </Trackpoint>
          <Trackpoint>
            <Time>2022-07-06T13:19:27.000Z</Time>
            <Position>
              <LatitudeDegrees>43.951497338712215423583984375</LatitudeDegrees>
              <LongitudeDegrees>-1.3535673916339874267578125</LongitudeDegrees>
            </Position>
            <AltitudeMeters>14</AltitudeMeters>
            <DistanceMeters>NAN</DistanceMeters>
          </Trackpoint>
          <Trackpoint>
            <Time>2022-07-06T13:19:30.000Z</Time>
            <Position>
              <LatitudeDegrees>43.95137093961238861083984375</LatitudeDegrees>
              <LongitudeDegrees>-1.35356144048273563385009765625</LongitudeDegrees>
            </Position>
            <AltitudeMeters>14.19999980926513671875</AltitudeMeters>
            <DistanceMeters>NAN</DistanceMeters>
          </Trackpoint>
          <Trackpoint>
            <Time>2022-07-06T13:19:35.000Z</Time>
            <Position>
              <LatitudeDegrees>43.95114219747483730316162109375</LatitudeDegrees>
              <LongitudeDegrees>-1.3535471074283123016357421875</LongitudeDegrees>
            </Position>
            <AltitudeMeters>14.19999980926513671875</AltitudeMeters>
            <DistanceMeters>NAN</DistanceMeters>
          </Trackpoint>
          <Trackpoint>
            <Time>2022-07-06T13:19:38.000Z</Time>
            <Position>
              <LatitudeDegrees>43.95101345144212245941162109375</LatitudeDegrees>
              <LongitudeDegrees>-1.3535397313535213470458984375</LongitudeDegrees>
            </Position>
            <AltitudeMeters>14.3999996185302734375</AltitudeMeters>
            <DistanceMeters>NAN</DistanceMeters>
          </Trackpoint>
          <Trackpoint>
            <Time>2022-07-06T13:19:47.000Z</Time>
            <Position>
              <LatitudeDegrees>43.95060827024281024932861328125</LatitudeDegrees>
              <LongitudeDegrees>-1.3535712473094463348388671875</LongitudeDegrees>
            </Position>
            <AltitudeMeters>14.6000003814697265625</AltitudeMeters>
            <DistanceMeters>NAN</DistanceMeters>
          </Trackpoint>
          <Trackpoint>
            <Time>2022-07-06T13:19:55.000Z</Time>
            <Position>
              <LatitudeDegrees>43.95027383230626583099365234375</LatitudeDegrees>
              <LongitudeDegrees>-1.353595554828643798828125</LongitudeDegrees>
            </Position>
            <AltitudeMeters>15</AltitudeMeters>
            <DistanceMeters>NAN</DistanceMeters>
          </Trackpoint>
          <Trackpoint>
            <Time>2022-07-06T13:20:01.000Z</Time>
            <Position>
              <LatitudeDegrees>43.9500159211456775665283203125</LatitudeDegrees>
              <LongitudeDegrees>-1.3535995781421661376953125</LongitudeDegrees>
            </Position>
            <AltitudeMeters>15</AltitudeMeters>
            <DistanceMeters>NAN</DistanceMeters>
          </Trackpoint>
          <Trackpoint>
            <Time>2022-07-06T13:20:09.000Z</Time>
            <Position>
              <LatitudeDegrees>43.9497393183410167694091796875</LatitudeDegrees>
              <LongitudeDegrees>-1.35362078435719013214111328125</LongitudeDegrees>
            </Position>
            <AltitudeMeters>15.80000019073486328125</AltitudeMeters>
            <DistanceMeters>NAN</DistanceMeters>
          </Trackpoint>
          <Trackpoint>
            <Time>2022-07-06T13:20:14.000Z</Time>
            <Position>
              <LatitudeDegrees>43.949612416326999664306640625</LatitudeDegrees>
              <LongitudeDegrees>-1.35361500084400177001953125</LongitudeDegrees>
            </Position>
            <AltitudeMeters>16.200000762939453125</AltitudeMeters>
            <DistanceMeters>NAN</DistanceMeters>
          </Trackpoint>
          <Trackpoint>
            <Time>2022-07-06T13:20:19.000Z</Time>
            <Position>
              <LatitudeDegrees>43.9495034515857696533203125</LatitudeDegrees>
              <LongitudeDegrees>-1.3536279089748859405517578125</LongitudeDegrees>
            </Position>
            <AltitudeMeters>16.799999237060546875</AltitudeMeters>
            <DistanceMeters>NAN</DistanceMeters>
          </Trackpoint>
          <Trackpoint>
            <Time>2022-07-06T13:20:21.000Z</Time>
            <Position>
              <LatitudeDegrees>43.94947788678109645843505859375</LatitudeDegrees>
              <LongitudeDegrees>-1.3536389730870723724365234375</LongitudeDegrees>
            </Position>
            <AltitudeMeters>17.200000762939453125</AltitudeMeters>
            <DistanceMeters>NAN</DistanceMeters>
          </Trackpoint>
          <Trackpoint>
            <Time>2022-07-06T13:20:22.000Z</Time>
            <Position>
              <LatitudeDegrees>43.9494578540325164794921875</LatitudeDegrees>
              <LongitudeDegrees>-1.35364106856286525726318359375</LongitudeDegrees>
            </Position>
            <AltitudeMeters>17.200000762939453125</AltitudeMeters>
            <DistanceMeters>NAN</DistanceMeters>
          </Trackpoint>
          <Trackpoint>
            <Time>2022-07-06T13:20:23.000Z</Time>
            <Position>
              <LatitudeDegrees>43.949430696666240692138671875</LatitudeDegrees>
              <LongitudeDegrees>-1.35364978574216365814208984375</LongitudeDegrees>
            </Position>
            <AltitudeMeters>17.3999996185302734375</AltitudeMeters>
            <DistanceMeters>NAN</DistanceMeters>
          </Trackpoint>
          <Trackpoint>
            <Time>2022-07-06T13:20:26.000Z</Time>
            <Position>
              <LatitudeDegrees>43.94936263561248779296875</LatitudeDegrees>
              <LongitudeDegrees>-1.3536852411925792694091796875</LongitudeDegrees>
            </Position>
            <AltitudeMeters>18</AltitudeMeters>
            <DistanceMeters>NAN</DistanceMeters>
          </Trackpoint>
          <Trackpoint>
            <Time>2022-07-06T13:20:27.000Z</Time>
            <Position>
              <LatitudeDegrees>43.94934729672968387603759765625</LatitudeDegrees>
              <LongitudeDegrees>-1.35369303636252880096435546875</LongitudeDegrees>
            </Position>
            <AltitudeMeters>18</AltitudeMeters>
            <DistanceMeters>NAN</DistanceMeters>
          </Trackpoint>
          <Trackpoint>
            <Time>2022-07-06T13:20:31.000Z</Time>
            <Position>
              <LatitudeDegrees>43.94925744272768497467041015625</LatitudeDegrees>
              <LongitudeDegrees>-1.35370527394115924835205078125</LongitudeDegrees>
            </Position>
            <AltitudeMeters>18.799999237060546875</AltitudeMeters>
            <DistanceMeters>NAN</DistanceMeters>
          </Trackpoint>
          <Trackpoint>
            <Time>2022-07-06T13:20:33.000Z</Time>
            <Position>
              <LatitudeDegrees>43.94921980798244476318359375</LatitudeDegrees>
              <LongitudeDegrees>-1.3537127338349819183349609375</LongitudeDegrees>
            </Position>
            <AltitudeMeters>18.799999237060546875</AltitudeMeters>
            <DistanceMeters>NAN</DistanceMeters>
          </Trackpoint>
          <Trackpoint>
            <Time>2022-07-06T13:20:37.000Z</Time>
            <Position>
              <LatitudeDegrees>43.94908561371266841888427734375</LatitudeDegrees>
              <LongitudeDegrees>-1.3536751829087734222412109375</LongitudeDegrees>
            </Position>
            <AltitudeMeters>18.799999237060546875</AltitudeMeters>
            <DistanceMeters>NAN</DistanceMeters>
          </Trackpoint>
          <Trackpoint>
            <Time>2022-07-06T13:20:42.000Z</Time>
            <Position>
              <LatitudeDegrees>43.9489026367664337158203125</LatitudeDegrees>
              <LongitudeDegrees>-1.3536352850496768951416015625</LongitudeDegrees>
            </Position>
            <AltitudeMeters>18.6000003814697265625</AltitudeMeters>
            <DistanceMeters>NAN</DistanceMeters>
          </Trackpoint>
          <Trackpoint>
            <Time>2022-07-06T13:20:45.000Z</Time>
            <Position>
              <LatitudeDegrees>43.94882242195308208465576171875</LatitudeDegrees>
              <LongitudeDegrees>-1.3536104746162891387939453125</LongitudeDegrees>
            </Position>
            <AltitudeMeters>19</AltitudeMeters>
            <DistanceMeters>NAN</DistanceMeters>
          </Trackpoint>
          <Trackpoint>
            <Time>2022-07-06T13:20:47.000Z</Time>
            <Position>
              <LatitudeDegrees>43.9487992040812969207763671875</LatitudeDegrees>
              <LongitudeDegrees>-1.3535883463919162750244140625</LongitudeDegrees>
            </Position>
            <AltitudeMeters>19.3999996185302734375</AltitudeMeters>
            <DistanceMeters>NAN</DistanceMeters>
          </Trackpoint>
          <Trackpoint>
            <Time>2022-07-06T13:20:50.000Z</Time>
            <Position>
              <LatitudeDegrees>43.94875285215675830841064453125</LatitudeDegrees>
              <LongitudeDegrees>-1.35356261394917964935302734375</LongitudeDegrees>
            </Position>
            <AltitudeMeters>20.200000762939453125</AltitudeMeters>
            <DistanceMeters>NAN</DistanceMeters>
          </Trackpoint>
          <Trackpoint>
            <Time>2022-07-06T13:20:52.000Z</Time>
            <Position>
              <LatitudeDegrees>43.9487224258482456207275390625</LatitudeDegrees>
              <LongitudeDegrees>-1.35354635305702686309814453125</LongitudeDegrees>
            </Position>
            <AltitudeMeters>20.6000003814697265625</AltitudeMeters>
            <DistanceMeters>NAN</DistanceMeters>
          </Trackpoint>
          <Trackpoint>
            <Time>2022-07-06T13:20:55.000Z</Time>
            <Position>
              <LatitudeDegrees>43.94866920076310634613037109375</LatitudeDegrees>
              <LongitudeDegrees>-1.3535155914723873138427734375</LongitudeDegrees>
            </Position>
            <AltitudeMeters>20.799999237060546875</AltitudeMeters>
            <DistanceMeters>NAN</DistanceMeters>
          </Trackpoint>
          <Trackpoint>
            <Time>2022-07-06T13:20:58.000Z</Time>
            <Position>
              <LatitudeDegrees>43.9485883153975009918212890625</LatitudeDegrees>
              <LongitudeDegrees>-1.35345666669309139251708984375</LongitudeDegrees>
            </Position>
            <AltitudeMeters>20.3999996185302734375</AltitudeMeters>
            <DistanceMeters>NAN</DistanceMeters>
          </Trackpoint>
          <Trackpoint>
            <Time>2022-07-06T13:20:59.000Z</Time>
            <Position>
              <LatitudeDegrees>43.94854984246194362640380859375</LatitudeDegrees>
              <LongitudeDegrees>-1.35342414490878582000732421875</LongitudeDegrees>
            </Position>
            <AltitudeMeters>20.200000762939453125</AltitudeMeters>
            <DistanceMeters>NAN</DistanceMeters>
          </Trackpoint>
          <Trackpoint>
            <Time>2022-07-06T13:21:00.000Z</Time>
            <Position>
              <LatitudeDegrees>43.94850826822221279144287109375</LatitudeDegrees>
              <LongitudeDegrees>-1.35339732281863689422607421875</LongitudeDegrees>
            </Position>
            <AltitudeMeters>20</AltitudeMeters>
            <DistanceMeters>NAN</DistanceMeters>
          </Trackpoint>
          <Trackpoint>
            <Time>2022-07-06T13:21:04.000Z</Time>
            <Position>
              <LatitudeDegrees>43.948273994028568267822265625</LatitudeDegrees>
              <LongitudeDegrees>-1.3532648049294948577880859375</LongitudeDegrees>
            </Position>
            <AltitudeMeters>19.3999996185302734375</AltitudeMeters>
            <DistanceMeters>NAN</DistanceMeters>
          </Trackpoint>
          <Trackpoint>
            <Time>2022-07-06T13:21:05.000Z</Time>
            <Position>
              <LatitudeDegrees>43.9481967128813266754150390625</LatitudeDegrees>
              <LongitudeDegrees>-1.353231780230998992919921875</LongitudeDegrees>
            </Position>
            <AltitudeMeters>19</AltitudeMeters>
            <DistanceMeters>NAN</DistanceMeters>
          </Trackpoint>
          <Trackpoint>
            <Time>2022-07-06T13:21:06.000Z</Time>
            <Position>
              <LatitudeDegrees>43.948117084801197052001953125</LatitudeDegrees>
              <LongitudeDegrees>-1.35320822708308696746826171875</LongitudeDegrees>
            </Position>
            <AltitudeMeters>18.6000003814697265625</AltitudeMeters>
            <DistanceMeters>NAN</DistanceMeters>
          </Trackpoint>
          <Trackpoint>
            <Time>2022-07-06T13:21:08.000Z</Time>
            <Position>
              <LatitudeDegrees>43.94796361215412616729736328125</LatitudeDegrees>
              <LongitudeDegrees>-1.3531967438757419586181640625</LongitudeDegrees>
            </Position>
            <AltitudeMeters>18.200000762939453125</AltitudeMeters>
            <DistanceMeters>NAN</DistanceMeters>
          </Trackpoint>
          <Trackpoint>
            <Time>2022-07-06T13:21:11.000Z</Time>
            <Position>
              <LatitudeDegrees>43.94776244647800922393798828125</LatitudeDegrees>
              <LongitudeDegrees>-1.3532131724059581756591796875</LongitudeDegrees>
            </Position>
            <AltitudeMeters>17.799999237060546875</AltitudeMeters>
            <DistanceMeters>NAN</DistanceMeters>
          </Trackpoint>
          <Trackpoint>
            <Time>2022-07-06T13:21:12.000Z</Time>
            <Position>
              <LatitudeDegrees>43.94769991748034954071044921875</LatitudeDegrees>
              <LongitudeDegrees>-1.3532165251672267913818359375</LongitudeDegrees>
            </Position>
            <AltitudeMeters>17.6000003814697265625</AltitudeMeters>
            <DistanceMeters>NAN</DistanceMeters>
          </Trackpoint>
          <Trackpoint>
            <Time>2022-07-06T13:21:14.000Z</Time>
            <Position>
              <LatitudeDegrees>43.947577290236949920654296875</LatitudeDegrees>
              <LongitudeDegrees>-1.35323144495487213134765625</LongitudeDegrees>
            </Position>
            <AltitudeMeters>17.3999996185302734375</AltitudeMeters>
            <DistanceMeters>NAN</DistanceMeters>
          </Trackpoint>
          <Trackpoint>
            <Time>2022-07-06T13:21:17.000Z</Time>
            <Position>
              <LatitudeDegrees>43.94739666022360324859619140625</LatitudeDegrees>
              <LongitudeDegrees>-1.35323404334485530853271484375</LongitudeDegrees>
            </Position>
            <AltitudeMeters>17</AltitudeMeters>
            <DistanceMeters>NAN</DistanceMeters>
          </Trackpoint>
          <Trackpoint>
            <Time>2022-07-06T13:21:19.000Z</Time>
            <Position>
              <LatitudeDegrees>43.94727713428437709808349609375</LatitudeDegrees>
              <LongitudeDegrees>-1.353245861828327178955078125</LongitudeDegrees>
            </Position>
            <AltitudeMeters>16.6000003814697265625</AltitudeMeters>
            <DistanceMeters>NAN</DistanceMeters>
          </Trackpoint>
          <Trackpoint>
            <Time>2022-07-06T13:21:25.000Z</Time>
            <Position>
              <LatitudeDegrees>43.94692249596118927001953125</LatitudeDegrees>
              <LongitudeDegrees>-1.353253908455371856689453125</LongitudeDegrees>
            </Position>
            <AltitudeMeters>15.6000003814697265625</AltitudeMeters>
            <DistanceMeters>NAN</DistanceMeters>
          </Trackpoint>
          <Trackpoint>
            <Time>2022-07-06T13:21:26.000Z</Time>
            <Position>
              <LatitudeDegrees>43.94687354564666748046875</LatitudeDegrees>
              <LongitudeDegrees>-1.35326019488275051116943359375</LongitudeDegrees>
            </Position>
            <AltitudeMeters>15.6000003814697265625</AltitudeMeters>
            <DistanceMeters>NAN</DistanceMeters>
          </Trackpoint>
          <Trackpoint>
            <Time>2022-07-06T13:21:27.000Z</Time>
            <Position>
              <LatitudeDegrees>43.9468012936413288116455078125</LatitudeDegrees>
              <LongitudeDegrees>-1.3532731868326663970947265625</LongitudeDegrees>
            </Position>
            <AltitudeMeters>15.6000003814697265625</AltitudeMeters>
            <DistanceMeters>NAN</DistanceMeters>
          </Trackpoint>
          <Trackpoint>
            <Time>2022-07-06T13:21:30.000Z</Time>
            <Position>
              <LatitudeDegrees>43.94662066362798213958740234375</LatitudeDegrees>
              <LongitudeDegrees>-1.3532808981835842132568359375</LongitudeDegrees>
            </Position>
            <AltitudeMeters>15.19999980926513671875</AltitudeMeters>
            <DistanceMeters>NAN</DistanceMeters>
          </Trackpoint>
          <Trackpoint>
            <Time>2022-07-06T13:21:31.000Z</Time>
            <Position>
              <LatitudeDegrees>43.9465645886957645416259765625</LatitudeDegrees>
              <LongitudeDegrees>-1.35328198783099651336669921875</LongitudeDegrees>
            </Position>
            <AltitudeMeters>15.19999980926513671875</AltitudeMeters>
            <DistanceMeters>NAN</DistanceMeters>
          </Trackpoint>
          <Trackpoint>
            <Time>2022-07-06T13:21:35.000Z</Time>
            <Position>
              <LatitudeDegrees>43.94637390039861202239990234375</LatitudeDegrees>
              <LongitudeDegrees>-1.3532949797809123992919921875</LongitudeDegrees>
            </Position>
            <AltitudeMeters>15.19999980926513671875</AltitudeMeters>
            <DistanceMeters>NAN</DistanceMeters>
          </Trackpoint>
          <Trackpoint>
            <Time>2022-07-06T13:21:36.000Z</Time>
            <Position>
              <LatitudeDegrees>43.946303911507129669189453125</LatitudeDegrees>
              <LongitudeDegrees>-1.35328936390578746795654296875</LongitudeDegrees>
            </Position>
            <AltitudeMeters>15.19999980926513671875</AltitudeMeters>
            <DistanceMeters>NAN</DistanceMeters>
          </Trackpoint>
          <Trackpoint>
            <Time>2022-07-06T13:21:42.000Z</Time>
            <Position>
              <LatitudeDegrees>43.94596092402935028076171875</LatitudeDegrees>
              <LongitudeDegrees>-1.3533043675124645233154296875</LongitudeDegrees>
            </Position>
            <AltitudeMeters>15.19999980926513671875</AltitudeMeters>
            <DistanceMeters>NAN</DistanceMeters>
          </Trackpoint>
          <Trackpoint>
            <Time>2022-07-06T13:21:43.000Z</Time>
            <Position>
              <LatitudeDegrees>43.945908285677433013916015625</LatitudeDegrees>
              <LongitudeDegrees>-1.353326328098773956298828125</LongitudeDegrees>
            </Position>
            <AltitudeMeters>15.19999980926513671875</AltitudeMeters>
            <DistanceMeters>NAN</DistanceMeters>
          </Trackpoint>
          <Trackpoint>
            <Time>2022-07-06T13:21:47.000Z</Time>
            <Position>
              <LatitudeDegrees>43.9457349479198455810546875</LatitudeDegrees>
              <LongitudeDegrees>-1.35339782573282718658447265625</LongitudeDegrees>
            </Position>
            <AltitudeMeters>15.3999996185302734375</AltitudeMeters>
            <DistanceMeters>NAN</DistanceMeters>
          </Trackpoint>
          <Trackpoint>
            <Time>2022-07-06T13:21:50.000Z</Time>
            <Position>
              <LatitudeDegrees>43.9456137455999851226806640625</LatitudeDegrees>
              <LongitudeDegrees>-1.35345540940761566162109375</LongitudeDegrees>
            </Position>
            <AltitudeMeters>15.80000019073486328125</AltitudeMeters>
            <DistanceMeters>NAN</DistanceMeters>
          </Trackpoint>
          <Trackpoint>
            <Time>2022-07-06T13:21:51.000Z</Time>
            <Position>
              <LatitudeDegrees>43.94556806422770023345947265625</LatitudeDegrees>
              <LongitudeDegrees>-1.35349656455218791961669921875</LongitudeDegrees>
            </Position>
            <AltitudeMeters>16</AltitudeMeters>
            <DistanceMeters>NAN</DistanceMeters>
          </Trackpoint>
          <Trackpoint>
            <Time>2022-07-06T13:21:54.000Z</Time>
            <Position>
              <LatitudeDegrees>43.9454518072307109832763671875</LatitudeDegrees>
              <LongitudeDegrees>-1.35358155705034732818603515625</LongitudeDegrees>
            </Position>
            <AltitudeMeters>16</AltitudeMeters>
            <DistanceMeters>NAN</DistanceMeters>
          </Trackpoint>
          <Trackpoint>
            <Time>2022-07-06T13:21:55.000Z</Time>
            <Position>
              <LatitudeDegrees>43.94540562294423580169677734375</LatitudeDegrees>
              <LongitudeDegrees>-1.35361826978623867034912109375</LongitudeDegrees>
            </Position>
            <AltitudeMeters>16</AltitudeMeters>
            <DistanceMeters>NAN</DistanceMeters>
          </Trackpoint>
          <Trackpoint>
            <Time>2022-07-06T13:21:56.000Z</Time>
            <Position>
              <LatitudeDegrees>43.94536673091351985931396484375</LatitudeDegrees>
              <LongitudeDegrees>-1.3536543957889080047607421875</LongitudeDegrees>
            </Position>
            <AltitudeMeters>16</AltitudeMeters>
            <DistanceMeters>NAN</DistanceMeters>
          </Trackpoint>
          <Trackpoint>
            <Time>2022-07-06T13:21:58.000Z</Time>
            <Position>
              <LatitudeDegrees>43.94529280252754688262939453125</LatitudeDegrees>
              <LongitudeDegrees>-1.353723965585231781005859375</LongitudeDegrees>
            </Position>
            <AltitudeMeters>16</AltitudeMeters>
            <DistanceMeters>NAN</DistanceMeters>
          </Trackpoint>
          <Trackpoint>
            <Time>2022-07-06T13:22:01.000Z</Time>
            <Position>
              <LatitudeDegrees>43.9451845921576023101806640625</LatitudeDegrees>
              <LongitudeDegrees>-1.3538324274122714996337890625</LongitudeDegrees>
            </Position>
            <AltitudeMeters>16</AltitudeMeters>
            <DistanceMeters>NAN</DistanceMeters>
          </Trackpoint>
          <Trackpoint>
            <Time>2022-07-06T13:22:07.000Z</Time>
            <Position>
              <LatitudeDegrees>43.94502483308315277099609375</LatitudeDegrees>
              <LongitudeDegrees>-1.354021690785884857177734375</LongitudeDegrees>
            </Position>
            <AltitudeMeters>16.799999237060546875</AltitudeMeters>
            <DistanceMeters>NAN</DistanceMeters>
          </Trackpoint>
          <Trackpoint>
            <Time>2022-07-06T13:22:11.000Z</Time>
            <Position>
              <LatitudeDegrees>43.9449421875178813934326171875</LatitudeDegrees>
              <LongitudeDegrees>-1.35409184731543064117431640625</LongitudeDegrees>
            </Position>
            <AltitudeMeters>17.3999996185302734375</AltitudeMeters>
            <DistanceMeters>NAN</DistanceMeters>
          </Trackpoint>
          <Trackpoint>
            <Time>2022-07-06T13:22:13.000Z</Time>
            <Position>
              <LatitudeDegrees>43.94489742815494537353515625</LatitudeDegrees>
              <LongitudeDegrees>-1.3541194237768650054931640625</LongitudeDegrees>
            </Position>
            <AltitudeMeters>17.799999237060546875</AltitudeMeters>
            <DistanceMeters>NAN</DistanceMeters>
          </Trackpoint>
          <Trackpoint>
            <Time>2022-07-06T13:22:16.000Z</Time>
            <Position>
              <LatitudeDegrees>43.94482232630252838134765625</LatitudeDegrees>
              <LongitudeDegrees>-1.3541858084499835968017578125</LongitudeDegrees>
            </Position>
            <AltitudeMeters>18</AltitudeMeters>
            <DistanceMeters>NAN</DistanceMeters>
          </Trackpoint>
          <Trackpoint>
            <Time>2022-07-06T13:22:18.000Z</Time>
            <Position>
              <LatitudeDegrees>43.94478200934827327728271484375</LatitudeDegrees>
              <LongitudeDegrees>-1.35423802770674228668212890625</LongitudeDegrees>
            </Position>
            <AltitudeMeters>18</AltitudeMeters>
            <DistanceMeters>NAN</DistanceMeters>
          </Trackpoint>
          <Trackpoint>
            <Time>2022-07-06T13:22:20.000Z</Time>
            <Position>
              <LatitudeDegrees>43.94472400657832622528076171875</LatitudeDegrees>
              <LongitudeDegrees>-1.354294605553150177001953125</LongitudeDegrees>
            </Position>
            <AltitudeMeters>18.200000762939453125</AltitudeMeters>
            <DistanceMeters>NAN</DistanceMeters>
          </Trackpoint>
          <Trackpoint>
            <Time>2022-07-06T13:22:24.000Z</Time>
            <Position>
              <LatitudeDegrees>43.944596014916896820068359375</LatitudeDegrees>
              <LongitudeDegrees>-1.35441027581691741943359375</LongitudeDegrees>
            </Position>
            <AltitudeMeters>18</AltitudeMeters>
            <DistanceMeters>NAN</DistanceMeters>
          </Trackpoint>
          <Trackpoint>
            <Time>2022-07-06T13:22:28.000Z</Time>
            <Position>
              <LatitudeDegrees>43.94440130330622196197509765625</LatitudeDegrees>
              <LongitudeDegrees>-1.35453407652676105499267578125</LongitudeDegrees>
            </Position>
            <AltitudeMeters>17.3999996185302734375</AltitudeMeters>
            <DistanceMeters>NAN</DistanceMeters>
          </Trackpoint>
          <Trackpoint>
            <Time>2022-07-06T13:22:29.000Z</Time>
            <Position>
              <LatitudeDegrees>43.94433123059570789337158203125</LatitudeDegrees>
              <LongitudeDegrees>-1.3545700348913669586181640625</LongitudeDegrees>
            </Position>
            <AltitudeMeters>17.200000762939453125</AltitudeMeters>
            <DistanceMeters>NAN</DistanceMeters>
          </Trackpoint>
          <Trackpoint>
            <Time>2022-07-06T13:22:30.000Z</Time>
            <Position>
              <LatitudeDegrees>43.94427758641541004180908203125</LatitudeDegrees>
              <LongitudeDegrees>-1.354603059589862823486328125</LongitudeDegrees>
            </Position>
            <AltitudeMeters>17</AltitudeMeters>
            <DistanceMeters>NAN</DistanceMeters>
          </Trackpoint>
          <Trackpoint>
            <Time>2022-07-06T13:22:32.000Z</Time>
            <Position>
              <LatitudeDegrees>43.94417230971157550811767578125</LatitudeDegrees>
              <LongitudeDegrees>-1.354654021561145782470703125</LongitudeDegrees>
            </Position>
            <AltitudeMeters>16.6000003814697265625</AltitudeMeters>
            <DistanceMeters>NAN</DistanceMeters>
          </Trackpoint>
          <Trackpoint>
            <Time>2022-07-06T13:22:33.000Z</Time>
            <Position>
              <LatitudeDegrees>43.94413308240473270416259765625</LatitudeDegrees>
              <LongitudeDegrees>-1.3546625711023807525634765625</LongitudeDegrees>
            </Position>
            <AltitudeMeters>16.3999996185302734375</AltitudeMeters>
            <DistanceMeters>NAN</DistanceMeters>
          </Trackpoint>
          <Trackpoint>
            <Time>2022-07-06T13:22:34.000Z</Time>
            <Position>
              <LatitudeDegrees>43.9440718106925487518310546875</LatitudeDegrees>
              <LongitudeDegrees>-1.35467489250004291534423828125</LongitudeDegrees>
            </Position>
            <AltitudeMeters>16.200000762939453125</AltitudeMeters>
            <DistanceMeters>NAN</DistanceMeters>
          </Trackpoint>
          <Trackpoint>
            <Time>2022-07-06T13:22:36.000Z</Time>
            <Position>
              <LatitudeDegrees>43.94396594725549221038818359375</LatitudeDegrees>
              <LongitudeDegrees>-1.3546870462596416473388671875</LongitudeDegrees>
            </Position>
            <AltitudeMeters>16</AltitudeMeters>
            <DistanceMeters>NAN</DistanceMeters>
          </Trackpoint>
          <Trackpoint>
            <Time>2022-07-06T13:22:38.000Z</Time>
            <Position>
              <LatitudeDegrees>43.94385765306651592254638671875</LatitudeDegrees>
              <LongitudeDegrees>-1.35467045009136199951171875</LongitudeDegrees>
            </Position>
            <AltitudeMeters>15.80000019073486328125</AltitudeMeters>
            <DistanceMeters>NAN</DistanceMeters>
          </Trackpoint>
          <Trackpoint>
            <Time>2022-07-06T13:22:39.000Z</Time>
            <Position>
              <LatitudeDegrees>43.94382295198738574981689453125</LatitudeDegrees>
              <LongitudeDegrees>-1.35466885752975940704345703125</LongitudeDegrees>
            </Position>
            <AltitudeMeters>15.80000019073486328125</AltitudeMeters>
            <DistanceMeters>NAN</DistanceMeters>
          </Trackpoint>
          <Trackpoint>
            <Time>2022-07-06T13:22:41.000Z</Time>
            <Position>
              <LatitudeDegrees>43.94372991286218166351318359375</LatitudeDegrees>
              <LongitudeDegrees>-1.3546665944159030914306640625</LongitudeDegrees>
            </Position>
            <AltitudeMeters>15.6000003814697265625</AltitudeMeters>
            <DistanceMeters>NAN</DistanceMeters>
          </Trackpoint>
          <Trackpoint>
            <Time>2022-07-06T13:22:44.000Z</Time>
            <Position>
              <LatitudeDegrees>43.9435886777937412261962890625</LatitudeDegrees>
              <LongitudeDegrees>-1.3546421192586421966552734375</LongitudeDegrees>
            </Position>
            <AltitudeMeters>15.19999980926513671875</AltitudeMeters>
            <DistanceMeters>NAN</DistanceMeters>
          </Trackpoint>
          <Trackpoint>
            <Time>2022-07-06T13:22:50.000Z</Time>
            <Position>
              <LatitudeDegrees>43.943328671157360076904296875</LatitudeDegrees>
              <LongitudeDegrees>-1.354637928307056427001953125</LongitudeDegrees>
            </Position>
            <AltitudeMeters>14.6000003814697265625</AltitudeMeters>
            <DistanceMeters>NAN</DistanceMeters>
          </Trackpoint>
          <Trackpoint>
            <Time>2022-07-06T13:22:51.000Z</Time>
            <Position>
              <LatitudeDegrees>43.9432906173169612884521484375</LatitudeDegrees>
              <LongitudeDegrees>-1.35463164187967777252197265625</LongitudeDegrees>
            </Position>
            <AltitudeMeters>14.3999996185302734375</AltitudeMeters>
            <DistanceMeters>NAN</DistanceMeters>
          </Trackpoint>
          <Trackpoint>
            <Time>2022-07-06T13:22:53.000Z</Time>
            <Position>
              <LatitudeDegrees>43.94320964813232421875</LatitudeDegrees>
              <LongitudeDegrees>-1.35461336933076381683349609375</LongitudeDegrees>
            </Position>
            <AltitudeMeters>14.3999996185302734375</AltitudeMeters>
            <DistanceMeters>NAN</DistanceMeters>
          </Trackpoint>
          <Trackpoint>
            <Time>2022-07-06T13:22:54.000Z</Time>
            <Position>
              <LatitudeDegrees>43.94315131008625030517578125</LatitudeDegrees>
              <LongitudeDegrees>-1.3545998744666576385498046875</LongitudeDegrees>
            </Position>
            <AltitudeMeters>14.3999996185302734375</AltitudeMeters>
            <DistanceMeters>NAN</DistanceMeters>
          </Trackpoint>
          <Trackpoint>
            <Time>2022-07-06T13:22:55.000Z</Time>
            <Position>
              <LatitudeDegrees>43.94309137947857379913330078125</LatitudeDegrees>
              <LongitudeDegrees>-1.3545894809067249298095703125</LongitudeDegrees>
            </Position>
            <AltitudeMeters>14.3999996185302734375</AltitudeMeters>
            <DistanceMeters>NAN</DistanceMeters>
          </Trackpoint>
          <Trackpoint>
            <Time>2022-07-06T13:22:59.000Z</Time>
            <Position>
              <LatitudeDegrees>43.942886106669902801513671875</LatitudeDegrees>
              <LongitudeDegrees>-1.35457280091941356658935546875</LongitudeDegrees>
            </Position>
            <AltitudeMeters>14.3999996185302734375</AltitudeMeters>
            <DistanceMeters>NAN</DistanceMeters>
          </Trackpoint>
          <Trackpoint>
            <Time>2022-07-06T13:23:02.000Z</Time>
            <Position>
              <LatitudeDegrees>43.942747972905635833740234375</LatitudeDegrees>
              <LongitudeDegrees>-1.35458487085998058319091796875</LongitudeDegrees>
            </Position>
            <AltitudeMeters>14.3999996185302734375</AltitudeMeters>
            <DistanceMeters>NAN</DistanceMeters>
          </Trackpoint>
          <Trackpoint>
            <Time>2022-07-06T13:23:03.000Z</Time>
            <Position>
              <LatitudeDegrees>43.94269458018243312835693359375</LatitudeDegrees>
              <LongitudeDegrees>-1.35458721779286861419677734375</LongitudeDegrees>
            </Position>
            <AltitudeMeters>14.3999996185302734375</AltitudeMeters>
            <DistanceMeters>NAN</DistanceMeters>
          </Trackpoint>
          <Trackpoint>
            <Time>2022-07-06T13:23:05.000Z</Time>
            <Position>
              <LatitudeDegrees>43.9426009543240070343017578125</LatitudeDegrees>
              <LongitudeDegrees>-1.35459442622959613800048828125</LongitudeDegrees>
            </Position>
            <AltitudeMeters>14.3999996185302734375</AltitudeMeters>
            <DistanceMeters>NAN</DistanceMeters>
          </Trackpoint>
          <Trackpoint>
            <Time>2022-07-06T13:23:09.000Z</Time>
            <Position>
              <LatitudeDegrees>43.942426107823848724365234375</LatitudeDegrees>
              <LongitudeDegrees>-1.3545921631157398223876953125</LongitudeDegrees>
            </Position>
            <AltitudeMeters>14.6000003814697265625</AltitudeMeters>
            <DistanceMeters>NAN</DistanceMeters>
          </Trackpoint>
          <Trackpoint>
            <Time>2022-07-06T13:23:15.000Z</Time>
            <Position>
              <LatitudeDegrees>43.94216970540583133697509765625</LatitudeDegrees>
              <LongitudeDegrees>-1.35456584393978118896484375</LongitudeDegrees>
            </Position>
            <AltitudeMeters>15</AltitudeMeters>
            <DistanceMeters>NAN</DistanceMeters>
          </Trackpoint>
          <Trackpoint>
            <Time>2022-07-06T13:23:21.000Z</Time>
            <Position>
              <LatitudeDegrees>43.941937945783138275146484375</LatitudeDegrees>
              <LongitudeDegrees>-1.35451488196849822998046875</LongitudeDegrees>
            </Position>
            <AltitudeMeters>15.19999980926513671875</AltitudeMeters>
            <DistanceMeters>NAN</DistanceMeters>
          </Trackpoint>
          <Trackpoint>
            <Time>2022-07-06T13:23:26.000Z</Time>
            <Position>
              <LatitudeDegrees>43.94177139736711978912353515625</LatitudeDegrees>
              <LongitudeDegrees>-1.35441832244396209716796875</LongitudeDegrees>
            </Position>
            <AltitudeMeters>15.19999980926513671875</AltitudeMeters>
            <DistanceMeters>NAN</DistanceMeters>
          </Trackpoint>
          <Trackpoint>
            <Time>2022-07-06T13:23:33.000Z</Time>
            <Position>
              <LatitudeDegrees>43.9415374584496021270751953125</LatitudeDegrees>
              <LongitudeDegrees>-1.35429183952510356903076171875</LongitudeDegrees>
            </Position>
            <AltitudeMeters>15.3999996185302734375</AltitudeMeters>
            <DistanceMeters>NAN</DistanceMeters>
          </Trackpoint>
          <Trackpoint>
            <Time>2022-07-06T13:23:36.000Z</Time>
            <Position>
              <LatitudeDegrees>43.9414315111935138702392578125</LatitudeDegrees>
              <LongitudeDegrees>-1.35427750647068023681640625</LongitudeDegrees>
            </Position>
            <AltitudeMeters>15.6000003814697265625</AltitudeMeters>
            <DistanceMeters>NAN</DistanceMeters>
          </Trackpoint>
          <Trackpoint>
            <Time>2022-07-06T13:23:38.000Z</Time>
            <Position>
              <LatitudeDegrees>43.94135230220854282379150390625</LatitudeDegrees>
              <LongitudeDegrees>-1.3542620837688446044921875</LongitudeDegrees>
            </Position>
            <AltitudeMeters>15.80000019073486328125</AltitudeMeters>
            <DistanceMeters>NAN</DistanceMeters>
          </Trackpoint>
          <Trackpoint>
            <Time>2022-07-06T13:23:45.000Z</Time>
            <Position>
              <LatitudeDegrees>43.94114292226731777191162109375</LatitudeDegrees>
              <LongitudeDegrees>-1.3541851378977298736572265625</LongitudeDegrees>
            </Position>
            <AltitudeMeters>16.3999996185302734375</AltitudeMeters>
            <DistanceMeters>NAN</DistanceMeters>
          </Trackpoint>
          <Trackpoint>
            <Time>2022-07-06T13:23:50.000Z</Time>
            <Position>
              <LatitudeDegrees>43.9408534951508045196533203125</LatitudeDegrees>
              <LongitudeDegrees>-1.3541767559945583343505859375</LongitudeDegrees>
            </Position>
            <AltitudeMeters>16.200000762939453125</AltitudeMeters>
            <DistanceMeters>NAN</DistanceMeters>
          </Trackpoint>
          <Trackpoint>
            <Time>2022-07-06T13:23:55.000Z</Time>
            <Position>
              <LatitudeDegrees>43.9406506530940532684326171875</LatitudeDegrees>
              <LongitudeDegrees>-1.354222185909748077392578125</LongitudeDegrees>
            </Position>
            <AltitudeMeters>16.3999996185302734375</AltitudeMeters>
            <DistanceMeters>NAN</DistanceMeters>
          </Trackpoint>
          <Trackpoint>
            <Time>2022-07-06T13:23:59.000Z</Time>
            <Position>
              <LatitudeDegrees>43.9405074901878833770751953125</LatitudeDegrees>
              <LongitudeDegrees>-1.3542486727237701416015625</LongitudeDegrees>
            </Position>
            <AltitudeMeters>16.6000003814697265625</AltitudeMeters>
            <DistanceMeters>NAN</DistanceMeters>
          </Trackpoint>
          <Trackpoint>
            <Time>2022-07-06T13:24:00.000Z</Time>
            <Position>
              <LatitudeDegrees>43.940471448004245758056640625</LatitudeDegrees>
              <LongitudeDegrees>-1.3542540371417999267578125</LongitudeDegrees>
            </Position>
            <AltitudeMeters>16.6000003814697265625</AltitudeMeters>
            <DistanceMeters>NAN</DistanceMeters>
          </Trackpoint>
          <Trackpoint>
            <Time>2022-07-06T13:24:03.000Z</Time>
            <Position>
              <LatitudeDegrees>43.940347731113433837890625</LatitudeDegrees>
              <LongitudeDegrees>-1.3543098606169223785400390625</LongitudeDegrees>
            </Position>
            <AltitudeMeters>16.799999237060546875</AltitudeMeters>
            <DistanceMeters>NAN</DistanceMeters>
          </Trackpoint>
          <Trackpoint>
            <Time>2022-07-06T13:24:05.000Z</Time>
            <Position>
              <LatitudeDegrees>43.940255530178546905517578125</LatitudeDegrees>
              <LongitudeDegrees>-1.35434028692543506622314453125</LongitudeDegrees>
            </Position>
            <AltitudeMeters>16.6000003814697265625</AltitudeMeters>
            <DistanceMeters>NAN</DistanceMeters>
          </Trackpoint>
          <Trackpoint>
            <Time>2022-07-06T13:24:07.000Z</Time>
            <Position>
              <LatitudeDegrees>43.94016441889107227325439453125</LatitudeDegrees>
              <LongitudeDegrees>-1.3543822802603244781494140625</LongitudeDegrees>
            </Position>
            <AltitudeMeters>16.3999996185302734375</AltitudeMeters>
            <DistanceMeters>NAN</DistanceMeters>
          </Trackpoint>
          <Trackpoint>
            <Time>2022-07-06T13:24:09.000Z</Time>
            <Position>
              <LatitudeDegrees>43.94008931703865528106689453125</LatitudeDegrees>
              <LongitudeDegrees>-1.35443986393511295318603515625</LongitudeDegrees>
            </Position>
            <AltitudeMeters>16.200000762939453125</AltitudeMeters>
            <DistanceMeters>NAN</DistanceMeters>
          </Trackpoint>
          <Trackpoint>
            <Time>2022-07-06T13:24:10.000Z</Time>
            <Position>
              <LatitudeDegrees>43.94005377776920795440673828125</LatitudeDegrees>
              <LongitudeDegrees>-1.35447733104228973388671875</LongitudeDegrees>
            </Position>
            <AltitudeMeters>16</AltitudeMeters>
            <DistanceMeters>NAN</DistanceMeters>
          </Trackpoint>
          <Trackpoint>
            <Time>2022-07-06T13:24:13.000Z</Time>
            <Position>
              <LatitudeDegrees>43.93998630344867706298828125</LatitudeDegrees>
              <LongitudeDegrees>-1.3546236790716648101806640625</LongitudeDegrees>
            </Position>
            <AltitudeMeters>15.6000003814697265625</AltitudeMeters>
            <DistanceMeters>NAN</DistanceMeters>
          </Trackpoint>
          <Trackpoint>
            <Time>2022-07-06T13:24:14.000Z</Time>
            <Position>
              <LatitudeDegrees>43.93996543250977993011474609375</LatitudeDegrees>
              <LongitudeDegrees>-1.35466030798852443695068359375</LongitudeDegrees>
            </Position>
            <AltitudeMeters>15.3999996185302734375</AltitudeMeters>
            <DistanceMeters>NAN</DistanceMeters>
          </Trackpoint>
          <Trackpoint>
            <Time>2022-07-06T13:24:18.000Z</Time>
            <Position>
              <LatitudeDegrees>43.9399395324289798736572265625</LatitudeDegrees>
              <LongitudeDegrees>-1.35470456443727016448974609375</LongitudeDegrees>
            </Position>
            <AltitudeMeters>15.3999996185302734375</AltitudeMeters>
            <DistanceMeters>NAN</DistanceMeters>
          </Trackpoint>
          <Trackpoint>
            <Time>2022-07-06T13:24:26.000Z</Time>
            <Position>
              <LatitudeDegrees>43.93997984938323497772216796875</LatitudeDegrees>
              <LongitudeDegrees>-1.35476273484528064727783203125</LongitudeDegrees>
            </Position>
            <AltitudeMeters>15.6000003814697265625</AltitudeMeters>
            <DistanceMeters>NAN</DistanceMeters>
          </Trackpoint>
          <Trackpoint>
            <Time>2022-07-06T13:24:28.000Z</Time>
            <Position>
              <LatitudeDegrees>43.940004743635654449462890625</LatitudeDegrees>
              <LongitudeDegrees>-1.35477161966264247894287109375</LongitudeDegrees>
            </Position>
            <AltitudeMeters>15.80000019073486328125</AltitudeMeters>
            <DistanceMeters>NAN</DistanceMeters>
          </Trackpoint>
          <Trackpoint>
            <Time>2022-07-06T13:24:33.000Z</Time>
            <Position>
              <LatitudeDegrees>43.9400997944176197052001953125</LatitudeDegrees>
              <LongitudeDegrees>-1.3548023812472820281982421875</LongitudeDegrees>
            </Position>
            <AltitudeMeters>16.200000762939453125</AltitudeMeters>
            <DistanceMeters>NAN</DistanceMeters>
          </Trackpoint>
          <Trackpoint>
            <Time>2022-07-06T13:24:35.000Z</Time>
            <Position>
              <LatitudeDegrees>43.9401396922767162322998046875</LatitudeDegrees>
              <LongitudeDegrees>-1.3548362441360950469970703125</LongitudeDegrees>
            </Position>
            <AltitudeMeters>16.6000003814697265625</AltitudeMeters>
            <DistanceMeters>NAN</DistanceMeters>
          </Trackpoint>
          <Trackpoint>
            <Time>2022-07-06T13:24:41.000Z</Time>
            <Position>
              <LatitudeDegrees>43.94022191874682903289794921875</LatitudeDegrees>
              <LongitudeDegrees>-1.35491997934877872467041015625</LongitudeDegrees>
            </Position>
            <AltitudeMeters>17.200000762939453125</AltitudeMeters>
            <DistanceMeters>NAN</DistanceMeters>
          </Trackpoint>
          <Trackpoint>
            <Time>2022-07-06T13:24:42.000Z</Time>
            <Position>
              <LatitudeDegrees>43.94022862426936626434326171875</LatitudeDegrees>
              <LongitudeDegrees>-1.35493473149836063385009765625</LongitudeDegrees>
            </Position>
            <AltitudeMeters>17.200000762939453125</AltitudeMeters>
            <DistanceMeters>NAN</DistanceMeters>
          </Trackpoint>
          <Trackpoint>
            <Time>2022-07-06T13:24:45.000Z</Time>
            <Position>
              <LatitudeDegrees>43.940269947052001953125</LatitudeDegrees>
              <LongitudeDegrees>-1.3549549318850040435791015625</LongitudeDegrees>
            </Position>
            <AltitudeMeters>17.6000003814697265625</AltitudeMeters>
            <DistanceMeters>NAN</DistanceMeters>
          </Trackpoint>
          <Trackpoint>
            <Time>2022-07-06T13:24:46.000Z</Time>
            <Position>
              <LatitudeDegrees>43.94028176553547382354736328125</LatitudeDegrees>
              <LongitudeDegrees>-1.35496356524527072906494140625</LongitudeDegrees>
            </Position>
            <AltitudeMeters>17.6000003814697265625</AltitudeMeters>
            <DistanceMeters>NAN</DistanceMeters>
          </Trackpoint>
          <Trackpoint>
            <Time>2022-07-06T13:24:47.000Z</Time>
            <Position>
              <LatitudeDegrees>43.94028830341994762420654296875</LatitudeDegrees>
              <LongitudeDegrees>-1.35496892966330051422119140625</LongitudeDegrees>
            </Position>
            <AltitudeMeters>17.6000003814697265625</AltitudeMeters>
            <DistanceMeters>NAN</DistanceMeters>
          </Trackpoint>
          <Trackpoint>
            <Time>2022-07-06T13:24:49.000Z</Time>
            <Position>
              <LatitudeDegrees>43.9403036423027515411376953125</LatitudeDegrees>
              <LongitudeDegrees>-1.3549978472292423248291015625</LongitudeDegrees>
            </Position>
            <AltitudeMeters>17.799999237060546875</AltitudeMeters>
            <DistanceMeters>NAN</DistanceMeters>
          </Trackpoint>
          <Trackpoint>
            <Time>2022-07-06T13:24:52.000Z</Time>
            <Position>
              <LatitudeDegrees>43.94033138640224933624267578125</LatitudeDegrees>
              <LongitudeDegrees>-1.3550327159464359283447265625</LongitudeDegrees>
            </Position>
            <AltitudeMeters>18</AltitudeMeters>
            <DistanceMeters>NAN</DistanceMeters>
          </Trackpoint>
          <Trackpoint>
            <Time>2022-07-06T13:24:54.000Z</Time>
            <Position>
              <LatitudeDegrees>43.9403432048857212066650390625</LatitudeDegrees>
              <LongitudeDegrees>-1.3550555147230625152587890625</LongitudeDegrees>
            </Position>
            <AltitudeMeters>18</AltitudeMeters>
            <DistanceMeters>NAN</DistanceMeters>
          </Trackpoint>
          <Trackpoint>
            <Time>2022-07-06T13:24:56.000Z</Time>
            <Position>
              <LatitudeDegrees>43.94035116769373416900634765625</LatitudeDegrees>
              <LongitudeDegrees>-1.355059035122394561767578125</LongitudeDegrees>
            </Position>
            <AltitudeMeters>17.799999237060546875</AltitudeMeters>
            <DistanceMeters>NAN</DistanceMeters>
          </Trackpoint>
          <Trackpoint>
            <Time>2022-07-06T13:25:00.000Z</Time>
            <Position>
              <LatitudeDegrees>43.94036659039556980133056640625</LatitudeDegrees>
              <LongitudeDegrees>-1.35507437400519847869873046875</LongitudeDegrees>
            </Position>
            <AltitudeMeters>17.799999237060546875</AltitudeMeters>
            <DistanceMeters>NAN</DistanceMeters>
          </Trackpoint>
          <Trackpoint>
            <Time>2022-07-06T13:25:05.000Z</Time>
            <Position>
              <LatitudeDegrees>43.94042224623262882232666015625</LatitudeDegrees>
              <LongitudeDegrees>-1.35509583167731761932373046875</LongitudeDegrees>
            </Position>
            <AltitudeMeters>18</AltitudeMeters>
            <DistanceMeters>NAN</DistanceMeters>
          </Trackpoint>
          <Trackpoint>
            <Time>2022-07-06T13:25:07.000Z</Time>
            <Position>
              <LatitudeDegrees>43.9404622279107570648193359375</LatitudeDegrees>
              <LongitudeDegrees>-1.3551155291497707366943359375</LongitudeDegrees>
            </Position>
            <AltitudeMeters>18</AltitudeMeters>
            <DistanceMeters>NAN</DistanceMeters>
          </Trackpoint>
          <Trackpoint>
            <Time>2022-07-06T13:25:11.000Z</Time>
            <Position>
              <LatitudeDegrees>43.940480835735797882080078125</LatitudeDegrees>
              <LongitudeDegrees>-1.35512466542422771453857421875</LongitudeDegrees>
            </Position>
            <AltitudeMeters>17.799999237060546875</AltitudeMeters>
            <DistanceMeters>NAN</DistanceMeters>
          </Trackpoint>
          <Trackpoint>
            <Time>2022-07-06T13:27:46.000Z</Time>
            <Position>
              <LatitudeDegrees>43.94045166671276092529296875</LatitudeDegrees>
              <LongitudeDegrees>-1.3550412654876708984375</LongitudeDegrees>
            </Position>
            <AltitudeMeters>16.799999237060546875</AltitudeMeters>
            <DistanceMeters>NAN</DistanceMeters>
          </Trackpoint>
          <Trackpoint>
            <Time>2022-07-06T13:27:47.000Z</Time>
            <Position>
              <LatitudeDegrees>43.94043230451643466949462890625</LatitudeDegrees>
              <LongitudeDegrees>-1.35502994991838932037353515625</LongitudeDegrees>
            </Position>
            <AltitudeMeters>16.799999237060546875</AltitudeMeters>
            <DistanceMeters>NAN</DistanceMeters>
          </Trackpoint>
          <Trackpoint>
            <Time>2022-07-06T13:27:53.000Z</Time>
            <Position>
              <LatitudeDegrees>43.9403053186833858489990234375</LatitudeDegrees>
              <LongitudeDegrees>-1.35497496463358402252197265625</LongitudeDegrees>
            </Position>
            <AltitudeMeters>16.6000003814697265625</AltitudeMeters>
            <DistanceMeters>NAN</DistanceMeters>
          </Trackpoint>
          <Trackpoint>
            <Time>2022-07-06T13:27:58.000Z</Time>
            <Position>
              <LatitudeDegrees>43.940149582922458648681640625</LatitudeDegrees>
              <LongitudeDegrees>-1.354891397058963775634765625</LongitudeDegrees>
            </Position>
            <AltitudeMeters>15.80000019073486328125</AltitudeMeters>
            <DistanceMeters>NAN</DistanceMeters>
          </Trackpoint>
          <Trackpoint>
            <Time>2022-07-06T13:28:00.000Z</Time>
            <Position>
              <LatitudeDegrees>43.9400726370513439178466796875</LatitudeDegrees>
              <LongitudeDegrees>-1.3548469729721546173095703125</LongitudeDegrees>
            </Position>
            <AltitudeMeters>15.3999996185302734375</AltitudeMeters>
            <DistanceMeters>NAN</DistanceMeters>
          </Trackpoint>
          <Trackpoint>
            <Time>2022-07-06T13:28:03.000Z</Time>
            <Position>
              <LatitudeDegrees>43.939973227679729461669921875</LatitudeDegrees>
              <LongitudeDegrees>-1.35479391552507877349853515625</LongitudeDegrees>
            </Position>
            <AltitudeMeters>14.3999996185302734375</AltitudeMeters>
            <DistanceMeters>NAN</DistanceMeters>
          </Trackpoint>
          <Trackpoint>
            <Time>2022-07-06T13:28:04.000Z</Time>
            <Position>
              <LatitudeDegrees>43.93993844278156757354736328125</LatitudeDegrees>
              <LongitudeDegrees>-1.3547769002616405487060546875</LongitudeDegrees>
            </Position>
            <AltitudeMeters>14.19999980926513671875</AltitudeMeters>
            <DistanceMeters>NAN</DistanceMeters>
          </Trackpoint>
          <Trackpoint>
            <Time>2022-07-06T13:28:05.000Z</Time>
            <Position>
              <LatitudeDegrees>43.93990759737789630889892578125</LatitudeDegrees>
              <LongitudeDegrees>-1.354786455631256103515625</LongitudeDegrees>
            </Position>
            <AltitudeMeters>14</AltitudeMeters>
            <DistanceMeters>NAN</DistanceMeters>
          </Trackpoint>
          <Trackpoint>
            <Time>2022-07-06T13:28:08.000Z</Time>
            <Position>
              <LatitudeDegrees>43.9398045837879180908203125</LatitudeDegrees>
              <LongitudeDegrees>-1.3548523373901844024658203125</LongitudeDegrees>
            </Position>
            <AltitudeMeters>14</AltitudeMeters>
            <DistanceMeters>NAN</DistanceMeters>
          </Trackpoint>
          <Trackpoint>
            <Time>2022-07-06T13:28:14.000Z</Time>
            <Position>
              <LatitudeDegrees>43.93962646834552288055419921875</LatitudeDegrees>
              <LongitudeDegrees>-1.35496708564460277557373046875</LongitudeDegrees>
            </Position>
            <AltitudeMeters>14</AltitudeMeters>
            <DistanceMeters>NAN</DistanceMeters>
          </Trackpoint>
          <Trackpoint>
            <Time>2022-07-06T13:28:20.000Z</Time>
            <Position>
              <LatitudeDegrees>43.939451538026332855224609375</LatitudeDegrees>
              <LongitudeDegrees>-1.35504503734409809112548828125</LongitudeDegrees>
            </Position>
            <AltitudeMeters>13.80000019073486328125</AltitudeMeters>
            <DistanceMeters>NAN</DistanceMeters>
          </Trackpoint>
          <Trackpoint>
            <Time>2022-07-06T13:28:25.000Z</Time>
            <Position>
              <LatitudeDegrees>43.93930326215922832489013671875</LatitudeDegrees>
              <LongitudeDegrees>-1.3550893776118755340576171875</LongitudeDegrees>
            </Position>
            <AltitudeMeters>13.6000003814697265625</AltitudeMeters>
            <DistanceMeters>NAN</DistanceMeters>
          </Trackpoint>
          <Trackpoint>
            <Time>2022-07-06T13:28:30.000Z</Time>
            <Position>
              <LatitudeDegrees>43.93917652778327465057373046875</LatitudeDegrees>
              <LongitudeDegrees>-1.3551567681133747100830078125</LongitudeDegrees>
            </Position>
            <AltitudeMeters>13.3999996185302734375</AltitudeMeters>
            <DistanceMeters>NAN</DistanceMeters>
          </Trackpoint>
          <Trackpoint>
            <Time>2022-07-06T13:28:31.000Z</Time>
            <Position>
              <LatitudeDegrees>43.93916328437626361846923828125</LatitudeDegrees>
              <LongitudeDegrees>-1.35516908951103687286376953125</LongitudeDegrees>
            </Position>
            <AltitudeMeters>13.19999980926513671875</AltitudeMeters>
            <DistanceMeters>NAN</DistanceMeters>
          </Trackpoint>
          <Trackpoint>
            <Time>2022-07-06T13:28:33.000Z</Time>
            <Position>
              <LatitudeDegrees>43.93916420638561248779296875</LatitudeDegrees>
              <LongitudeDegrees>-1.35519406758248805999755859375</LongitudeDegrees>
            </Position>
            <AltitudeMeters>12.6000003814697265625</AltitudeMeters>
            <DistanceMeters>NAN</DistanceMeters>
          </Trackpoint>
          <Trackpoint>
            <Time>2022-07-06T13:28:36.000Z</Time>
            <Position>
              <LatitudeDegrees>43.9391670562326908111572265625</LatitudeDegrees>
              <LongitudeDegrees>-1.3551980070769786834716796875</LongitudeDegrees>
            </Position>
            <AltitudeMeters>12.19999980926513671875</AltitudeMeters>
            <DistanceMeters>NAN</DistanceMeters>
          </Trackpoint>
          <Trackpoint>
            <Time>2022-07-06T14:33:06.000Z</Time>
            <Position>
              <LatitudeDegrees>43.9387719333171844482421875</LatitudeDegrees>
              <LongitudeDegrees>-1.355395652353763580322265625</LongitudeDegrees>
            </Position>
            <AltitudeMeters>9.80000019073486328125</AltitudeMeters>
            <DistanceMeters>NAN</DistanceMeters>
          </Trackpoint>
          <Trackpoint>
            <Time>2022-07-06T14:33:07.000Z</Time>
            <Position>
              <LatitudeDegrees>43.93875575624406337738037109375</LatitudeDegrees>
              <LongitudeDegrees>-1.35540135204792022705078125</LongitudeDegrees>
            </Position>
            <AltitudeMeters>10</AltitudeMeters>
            <DistanceMeters>NAN</DistanceMeters>
          </Trackpoint>
          <Trackpoint>
            <Time>2022-07-06T14:33:13.000Z</Time>
            <Position>
              <LatitudeDegrees>43.93863656558096408843994140625</LatitudeDegrees>
              <LongitudeDegrees>-1.35545927099883556365966796875</LongitudeDegrees>
            </Position>
            <AltitudeMeters>10</AltitudeMeters>
            <DistanceMeters>NAN</DistanceMeters>
          </Trackpoint>
          <Trackpoint>
            <Time>2022-07-06T14:33:16.000Z</Time>
            <Position>
              <LatitudeDegrees>43.93857018090784549713134765625</LatitudeDegrees>
              <LongitudeDegrees>-1.35547217912971973419189453125</LongitudeDegrees>
            </Position>
            <AltitudeMeters>10.3999996185302734375</AltitudeMeters>
            <DistanceMeters>NAN</DistanceMeters>
          </Trackpoint>
          <Trackpoint>
            <Time>2022-07-06T14:33:20.000Z</Time>
            <Position>
              <LatitudeDegrees>43.93844713456928730010986328125</LatitudeDegrees>
              <LongitudeDegrees>-1.35543060488998889923095703125</LongitudeDegrees>
            </Position>
            <AltitudeMeters>10.3999996185302734375</AltitudeMeters>
            <DistanceMeters>NAN</DistanceMeters>
          </Trackpoint>
          <Trackpoint>
            <Time>2022-07-06T14:33:22.000Z</Time>
            <Position>
              <LatitudeDegrees>43.9383861981332302093505859375</LatitudeDegrees>
              <LongitudeDegrees>-1.35539372451603412628173828125</LongitudeDegrees>
            </Position>
            <AltitudeMeters>10.3999996185302734375</AltitudeMeters>
            <DistanceMeters>NAN</DistanceMeters>
          </Trackpoint>
          <Trackpoint>
            <Time>2022-07-06T14:33:25.000Z</Time>
            <Position>
              <LatitudeDegrees>43.93830162473022937774658203125</LatitudeDegrees>
              <LongitudeDegrees>-1.35534678585827350616455078125</LongitudeDegrees>
            </Position>
            <AltitudeMeters>10.3999996185302734375</AltitudeMeters>
            <DistanceMeters>NAN</DistanceMeters>
          </Trackpoint>
          <Trackpoint>
            <Time>2022-07-06T14:33:28.000Z</Time>
            <Position>
              <LatitudeDegrees>43.93819768913090229034423828125</LatitudeDegrees>
              <LongitudeDegrees>-1.355295740067958831787109375</LongitudeDegrees>
            </Position>
            <AltitudeMeters>10.3999996185302734375</AltitudeMeters>
            <DistanceMeters>NAN</DistanceMeters>
          </Trackpoint>
          <Trackpoint>
            <Time>2022-07-06T14:33:34.000Z</Time>
            <Position>
              <LatitudeDegrees>43.93798210658133029937744140625</LatitudeDegrees>
              <LongitudeDegrees>-1.35529766790568828582763671875</LongitudeDegrees>
            </Position>
            <AltitudeMeters>10.3999996185302734375</AltitudeMeters>
            <DistanceMeters>NAN</DistanceMeters>
          </Trackpoint>
          <Trackpoint>
            <Time>2022-07-06T14:33:41.000Z</Time>
            <Position>
              <LatitudeDegrees>43.9377029053866863250732421875</LatitudeDegrees>
              <LongitudeDegrees>-1.35528928600251674652099609375</LongitudeDegrees>
            </Position>
            <AltitudeMeters>10.19999980926513671875</AltitudeMeters>
            <DistanceMeters>NAN</DistanceMeters>
          </Trackpoint>
          <Trackpoint>
            <Time>2022-07-06T14:33:42.000Z</Time>
            <Position>
              <LatitudeDegrees>43.9376683719456195831298828125</LatitudeDegrees>
              <LongitudeDegrees>-1.35529465042054653167724609375</LongitudeDegrees>
            </Position>
            <AltitudeMeters>10.19999980926513671875</AltitudeMeters>
            <DistanceMeters>NAN</DistanceMeters>
          </Trackpoint>
          <Trackpoint>
            <Time>2022-07-06T14:33:47.000Z</Time>
            <Position>
              <LatitudeDegrees>43.93750484101474285125732421875</LatitudeDegrees>
              <LongitudeDegrees>-1.35529699735343456268310546875</LongitudeDegrees>
            </Position>
            <AltitudeMeters>10</AltitudeMeters>
            <DistanceMeters>NAN</DistanceMeters>
          </Trackpoint>
          <Trackpoint>
            <Time>2022-07-06T14:33:49.000Z</Time>
            <Position>
              <LatitudeDegrees>43.93744583241641521453857421875</LatitudeDegrees>
              <LongitudeDegrees>-1.35530102066695690155029296875</LongitudeDegrees>
            </Position>
            <AltitudeMeters>10</AltitudeMeters>
            <DistanceMeters>NAN</DistanceMeters>
          </Trackpoint>
          <Trackpoint>
            <Time>2022-07-06T14:33:57.000Z</Time>
            <Position>
              <LatitudeDegrees>43.9371822215616703033447265625</LatitudeDegrees>
              <LongitudeDegrees>-1.35535449720919132232666015625</LongitudeDegrees>
            </Position>
            <AltitudeMeters>10.19999980926513671875</AltitudeMeters>
            <DistanceMeters>NAN</DistanceMeters>
          </Trackpoint>
          <Trackpoint>
            <Time>2022-07-06T14:34:02.000Z</Time>
            <Position>
              <LatitudeDegrees>43.937044255435466766357421875</LatitudeDegrees>
              <LongitudeDegrees>-1.35549791157245635986328125</LongitudeDegrees>
            </Position>
            <AltitudeMeters>10.6000003814697265625</AltitudeMeters>
            <DistanceMeters>NAN</DistanceMeters>
          </Trackpoint>
          <Trackpoint>
            <Time>2022-07-06T14:34:04.000Z</Time>
            <Position>
              <LatitudeDegrees>43.93700393848121166229248046875</LatitudeDegrees>
              <LongitudeDegrees>-1.35553604923188686370849609375</LongitudeDegrees>
            </Position>
            <AltitudeMeters>10.6000003814697265625</AltitudeMeters>
            <DistanceMeters>NAN</DistanceMeters>
          </Trackpoint>
          <Trackpoint>
            <Time>2022-07-06T14:34:07.000Z</Time>
            <Position>
              <LatitudeDegrees>43.93692431040108203887939453125</LatitudeDegrees>
              <LongitudeDegrees>-1.35556890629231929779052734375</LongitudeDegrees>
            </Position>
            <AltitudeMeters>10.80000019073486328125</AltitudeMeters>
            <DistanceMeters>NAN</DistanceMeters>
          </Trackpoint>
          <Trackpoint>
            <Time>2022-07-06T14:34:12.000Z</Time>
            <Position>
              <LatitudeDegrees>43.936761952936649322509765625</LatitudeDegrees>
              <LongitudeDegrees>-1.3556690700352191925048828125</LongitudeDegrees>
            </Position>
            <AltitudeMeters>10.80000019073486328125</AltitudeMeters>
            <DistanceMeters>NAN</DistanceMeters>
          </Trackpoint>
          <Trackpoint>
            <Time>2022-07-06T14:34:14.000Z</Time>
            <Position>
              <LatitudeDegrees>43.93671057187020778656005859375</LatitudeDegrees>
              <LongitudeDegrees>-1.3557146675884723663330078125</LongitudeDegrees>
            </Position>
            <AltitudeMeters>11</AltitudeMeters>
            <DistanceMeters>NAN</DistanceMeters>
          </Trackpoint>
          <Trackpoint>
            <Time>2022-07-06T14:34:19.000Z</Time>
            <Position>
              <LatitudeDegrees>43.93652021884918212890625</LatitudeDegrees>
              <LongitudeDegrees>-1.3558256439864635467529296875</LongitudeDegrees>
            </Position>
            <AltitudeMeters>11.19999980926513671875</AltitudeMeters>
            <DistanceMeters>NAN</DistanceMeters>
          </Trackpoint>
          <Trackpoint>
            <Time>2022-07-06T14:34:26.000Z</Time>
            <Position>
              <LatitudeDegrees>43.93623934127390384674072265625</LatitudeDegrees>
              <LongitudeDegrees>-1.3558558188378810882568359375</LongitudeDegrees>
            </Position>
            <AltitudeMeters>11.6000003814697265625</AltitudeMeters>
            <DistanceMeters>NAN</DistanceMeters>
          </Trackpoint>
          <Trackpoint>
            <Time>2022-07-06T14:34:33.000Z</Time>
            <Position>
              <LatitudeDegrees>43.93591873347759246826171875</LatitudeDegrees>
              <LongitudeDegrees>-1.35589948855340480804443359375</LongitudeDegrees>
            </Position>
            <AltitudeMeters>10.80000019073486328125</AltitudeMeters>
            <DistanceMeters>NAN</DistanceMeters>
          </Trackpoint>
          <Trackpoint>
            <Time>2022-07-06T14:34:39.000Z</Time>
            <Position>
              <LatitudeDegrees>43.93569233827292919158935546875</LatitudeDegrees>
              <LongitudeDegrees>-1.35589781217277050018310546875</LongitudeDegrees>
            </Position>
            <AltitudeMeters>11</AltitudeMeters>
            <DistanceMeters>NAN</DistanceMeters>
          </Trackpoint>
          <Trackpoint>
            <Time>2022-07-06T14:34:40.000Z</Time>
            <Position>
              <LatitudeDegrees>43.9356654323637485504150390625</LatitudeDegrees>
              <LongitudeDegrees>-1.35590870864689350128173828125</LongitudeDegrees>
            </Position>
            <AltitudeMeters>11</AltitudeMeters>
            <DistanceMeters>NAN</DistanceMeters>
          </Trackpoint>
          <Trackpoint>
            <Time>2022-07-06T14:34:44.000Z</Time>
            <Position>
              <LatitudeDegrees>43.935575745999813079833984375</LatitudeDegrees>
              <LongitudeDegrees>-1.355905272066593170166015625</LongitudeDegrees>
            </Position>
            <AltitudeMeters>11.19999980926513671875</AltitudeMeters>
            <DistanceMeters>NAN</DistanceMeters>
          </Trackpoint>
          <Trackpoint>
            <Time>2022-07-06T14:34:45.000Z</Time>
            <Position>
              <LatitudeDegrees>43.93555772490799427032470703125</LatitudeDegrees>
              <LongitudeDegrees>-1.355888843536376953125</LongitudeDegrees>
            </Position>
            <AltitudeMeters>11.19999980926513671875</AltitudeMeters>
            <DistanceMeters>NAN</DistanceMeters>
          </Trackpoint>
          <Trackpoint>
            <Time>2022-07-06T14:34:49.000Z</Time>
            <Position>
              <LatitudeDegrees>43.93547139130532741546630859375</LatitudeDegrees>
              <LongitudeDegrees>-1.355760432779788970947265625</LongitudeDegrees>
            </Position>
            <AltitudeMeters>11</AltitudeMeters>
            <DistanceMeters>NAN</DistanceMeters>
          </Trackpoint>
          <Trackpoint>
            <Time>2022-07-06T14:34:54.000Z</Time>
            <Position>
              <LatitudeDegrees>43.93537768162786960601806640625</LatitudeDegrees>
              <LongitudeDegrees>-1.35549279861152172088623046875</LongitudeDegrees>
            </Position>
            <AltitudeMeters>11.19999980926513671875</AltitudeMeters>
            <DistanceMeters>NAN</DistanceMeters>
          </Trackpoint>
          <Trackpoint>
            <Time>2022-07-06T14:35:00.000Z</Time>
            <Position>
              <LatitudeDegrees>43.935320265591144561767578125</LatitudeDegrees>
              <LongitudeDegrees>-1.355151571333408355712890625</LongitudeDegrees>
            </Position>
            <AltitudeMeters>11.19999980926513671875</AltitudeMeters>
            <DistanceMeters>NAN</DistanceMeters>
          </Trackpoint>
          <Trackpoint>
            <Time>2022-07-06T14:35:03.000Z</Time>
            <Position>
              <LatitudeDegrees>43.93528765998780727386474609375</LatitudeDegrees>
              <LongitudeDegrees>-1.3549874536693096160888671875</LongitudeDegrees>
            </Position>
            <AltitudeMeters>11</AltitudeMeters>
            <DistanceMeters>NAN</DistanceMeters>
          </Trackpoint>
          <Trackpoint>
            <Time>2022-07-06T14:35:07.000Z</Time>
            <Position>
              <LatitudeDegrees>43.93519730307161808013916015625</LatitudeDegrees>
              <LongitudeDegrees>-1.3548228330910205841064453125</LongitudeDegrees>
            </Position>
            <AltitudeMeters>11.3999996185302734375</AltitudeMeters>
            <DistanceMeters>NAN</DistanceMeters>
          </Trackpoint>
          <Trackpoint>
            <Time>2022-07-06T14:35:15.000Z</Time>
            <Position>
              <LatitudeDegrees>43.93496411852538585662841796875</LatitudeDegrees>
              <LongitudeDegrees>-1.3545981980860233306884765625</LongitudeDegrees>
            </Position>
            <AltitudeMeters>11.80000019073486328125</AltitudeMeters>
            <DistanceMeters>NAN</DistanceMeters>
          </Trackpoint>
          <Trackpoint>
            <Time>2022-07-06T14:35:20.000Z</Time>
            <Position>
              <LatitudeDegrees>43.934847526252269744873046875</LatitudeDegrees>
              <LongitudeDegrees>-1.35451848618686199188232421875</LongitudeDegrees>
            </Position>
            <AltitudeMeters>11.80000019073486328125</AltitudeMeters>
            <DistanceMeters>NAN</DistanceMeters>
          </Trackpoint>
          <Trackpoint>
            <Time>2022-07-06T14:35:22.000Z</Time>
            <Position>
              <LatitudeDegrees>43.93480100668966770172119140625</LatitudeDegrees>
              <LongitudeDegrees>-1.35447892360389232635498046875</LongitudeDegrees>
            </Position>
            <AltitudeMeters>11.80000019073486328125</AltitudeMeters>
            <DistanceMeters>NAN</DistanceMeters>
          </Trackpoint>
          <Trackpoint>
            <Time>2022-07-06T14:35:24.000Z</Time>
            <Position>
              <LatitudeDegrees>43.93475775606930255889892578125</LatitudeDegrees>
              <LongitudeDegrees>-1.3544399477541446685791015625</LongitudeDegrees>
            </Position>
            <AltitudeMeters>11.80000019073486328125</AltitudeMeters>
            <DistanceMeters>NAN</DistanceMeters>
          </Trackpoint>
          <Trackpoint>
            <Time>2022-07-06T14:35:26.000Z</Time>
            <Position>
              <LatitudeDegrees>43.93470997922122478485107421875</LatitudeDegrees>
              <LongitudeDegrees>-1.35440088808536529541015625</LongitudeDegrees>
            </Position>
            <AltitudeMeters>12</AltitudeMeters>
            <DistanceMeters>NAN</DistanceMeters>
          </Trackpoint>
          <Trackpoint>
            <Time>2022-07-06T14:35:36.000Z</Time>
            <Position>
              <LatitudeDegrees>43.93442331813275814056396484375</LatitudeDegrees>
              <LongitudeDegrees>-1.35413342155516147613525390625</LongitudeDegrees>
            </Position>
            <AltitudeMeters>12.19999980926513671875</AltitudeMeters>
            <DistanceMeters>NAN</DistanceMeters>
          </Trackpoint>
          <Trackpoint>
            <Time>2022-07-06T14:35:44.000Z</Time>
            <Position>
              <LatitudeDegrees>43.93419432453811168670654296875</LatitudeDegrees>
              <LongitudeDegrees>-1.35393091477453708648681640625</LongitudeDegrees>
            </Position>
            <AltitudeMeters>12.6000003814697265625</AltitudeMeters>
            <DistanceMeters>NAN</DistanceMeters>
          </Trackpoint>
          <Trackpoint>
            <Time>2022-07-06T14:35:54.000Z</Time>
            <Position>
              <LatitudeDegrees>43.93390950746834278106689453125</LatitudeDegrees>
              <LongitudeDegrees>-1.3536292500793933868408203125</LongitudeDegrees>
            </Position>
            <AltitudeMeters>13</AltitudeMeters>
            <DistanceMeters>NAN</DistanceMeters>
          </Trackpoint>
          <Trackpoint>
            <Time>2022-07-06T14:35:55.000Z</Time>
            <Position>
              <LatitudeDegrees>43.93387614749372005462646484375</LatitudeDegrees>
              <LongitudeDegrees>-1.35359781794250011444091796875</LongitudeDegrees>
            </Position>
            <AltitudeMeters>13</AltitudeMeters>
            <DistanceMeters>NAN</DistanceMeters>
          </Trackpoint>
          <Trackpoint>
            <Time>2022-07-06T14:35:57.000Z</Time>
            <Position>
              <LatitudeDegrees>43.9338133670389652252197265625</LatitudeDegrees>
              <LongitudeDegrees>-1.35353260673582553863525390625</LongitudeDegrees>
            </Position>
            <AltitudeMeters>13.19999980926513671875</AltitudeMeters>
            <DistanceMeters>NAN</DistanceMeters>
          </Trackpoint>
          <Trackpoint>
            <Time>2022-07-06T14:36:02.000Z</Time>
            <Position>
              <LatitudeDegrees>43.933652602136135101318359375</LatitudeDegrees>
              <LongitudeDegrees>-1.353386677801609039306640625</LongitudeDegrees>
            </Position>
            <AltitudeMeters>13.3999996185302734375</AltitudeMeters>
            <DistanceMeters>NAN</DistanceMeters>
          </Trackpoint>
          <Trackpoint>
            <Time>2022-07-06T14:36:04.000Z</Time>
            <Position>
              <LatitudeDegrees>43.93359325826168060302734375</LatitudeDegrees>
              <LongitudeDegrees>-1.35332691483199596405029296875</LongitudeDegrees>
            </Position>
            <AltitudeMeters>13.19999980926513671875</AltitudeMeters>
            <DistanceMeters>NAN</DistanceMeters>
          </Trackpoint>
          <Trackpoint>
            <Time>2022-07-06T14:36:07.000Z</Time>
            <Position>
              <LatitudeDegrees>43.93350541591644287109375</LatitudeDegrees>
              <LongitudeDegrees>-1.35324477218091487884521484375</LongitudeDegrees>
            </Position>
            <AltitudeMeters>13.19999980926513671875</AltitudeMeters>
            <DistanceMeters>NAN</DistanceMeters>
          </Trackpoint>
          <Trackpoint>
            <Time>2022-07-06T14:36:12.000Z</Time>
            <Position>
              <LatitudeDegrees>43.93335093744099140167236328125</LatitudeDegrees>
              <LongitudeDegrees>-1.353099010884761810302734375</LongitudeDegrees>
            </Position>
            <AltitudeMeters>12.80000019073486328125</AltitudeMeters>
            <DistanceMeters>NAN</DistanceMeters>
          </Trackpoint>
          <Trackpoint>
            <Time>2022-07-06T14:36:14.000Z</Time>
            <Position>
              <LatitudeDegrees>43.93329083919525146484375</LatitudeDegrees>
              <LongitudeDegrees>-1.35304980911314487457275390625</LongitudeDegrees>
            </Position>
            <AltitudeMeters>12.80000019073486328125</AltitudeMeters>
            <DistanceMeters>NAN</DistanceMeters>
          </Trackpoint>
          <Trackpoint>
            <Time>2022-07-06T14:36:17.000Z</Time>
            <Position>
              <LatitudeDegrees>43.933194614946842193603515625</LatitudeDegrees>
              <LongitudeDegrees>-1.3529826700687408447265625</LongitudeDegrees>
            </Position>
            <AltitudeMeters>12.80000019073486328125</AltitudeMeters>
            <DistanceMeters>NAN</DistanceMeters>
          </Trackpoint>
          <Trackpoint>
            <Time>2022-07-06T14:36:20.000Z</Time>
            <Position>
              <LatitudeDegrees>43.933077938854694366455078125</LatitudeDegrees>
              <LongitudeDegrees>-1.352940090000629425048828125</LongitudeDegrees>
            </Position>
            <AltitudeMeters>13</AltitudeMeters>
            <DistanceMeters>NAN</DistanceMeters>
          </Trackpoint>
          <Trackpoint>
            <Time>2022-07-06T14:36:26.000Z</Time>
            <Position>
              <LatitudeDegrees>43.9328608475625514984130859375</LatitudeDegrees>
              <LongitudeDegrees>-1.3528396748006343841552734375</LongitudeDegrees>
            </Position>
            <AltitudeMeters>12.80000019073486328125</AltitudeMeters>
            <DistanceMeters>NAN</DistanceMeters>
          </Trackpoint>
          <Trackpoint>
            <Time>2022-07-06T14:36:28.000Z</Time>
            <Position>
              <LatitudeDegrees>43.932781219482421875</LatitudeDegrees>
              <LongitudeDegrees>-1.35281913913786411285400390625</LongitudeDegrees>
            </Position>
            <AltitudeMeters>12.6000003814697265625</AltitudeMeters>
            <DistanceMeters>NAN</DistanceMeters>
          </Trackpoint>
          <Trackpoint>
            <Time>2022-07-06T14:36:35.000Z</Time>
            <Position>
              <LatitudeDegrees>43.9324907027184963226318359375</LatitudeDegrees>
              <LongitudeDegrees>-1.3527317158877849578857421875</LongitudeDegrees>
            </Position>
            <AltitudeMeters>12.3999996185302734375</AltitudeMeters>
            <DistanceMeters>NAN</DistanceMeters>
          </Trackpoint>
          <Trackpoint>
            <Time>2022-07-06T14:36:43.000Z</Time>
            <Position>
              <LatitudeDegrees>43.9321899600327014923095703125</LatitudeDegrees>
              <LongitudeDegrees>-1.352657116949558258056640625</LongitudeDegrees>
            </Position>
            <AltitudeMeters>12.80000019073486328125</AltitudeMeters>
            <DistanceMeters>NAN</DistanceMeters>
          </Trackpoint>
          <Trackpoint>
            <Time>2022-07-06T14:36:51.000Z</Time>
            <Position>
              <LatitudeDegrees>43.93188963644206523895263671875</LatitudeDegrees>
              <LongitudeDegrees>-1.3525805063545703887939453125</LongitudeDegrees>
            </Position>
            <AltitudeMeters>12.80000019073486328125</AltitudeMeters>
            <DistanceMeters>NAN</DistanceMeters>
          </Trackpoint>
          <Trackpoint>
            <Time>2022-07-06T14:36:58.000Z</Time>
            <Position>
              <LatitudeDegrees>43.9316290430724620819091796875</LatitudeDegrees>
              <LongitudeDegrees>-1.35249383747577667236328125</LongitudeDegrees>
            </Position>
            <AltitudeMeters>13.3999996185302734375</AltitudeMeters>
            <DistanceMeters>NAN</DistanceMeters>
          </Trackpoint>
          <Trackpoint>
            <Time>2022-07-06T14:37:04.000Z</Time>
            <Position>
              <LatitudeDegrees>43.931378759443759918212890625</LatitudeDegrees>
              <LongitudeDegrees>-1.352457962930202484130859375</LongitudeDegrees>
            </Position>
            <AltitudeMeters>13.3999996185302734375</AltitudeMeters>
            <DistanceMeters>NAN</DistanceMeters>
          </Trackpoint>
          <Trackpoint>
            <Time>2022-07-06T14:37:06.000Z</Time>
            <Position>
              <LatitudeDegrees>43.93129636533558368682861328125</LatitudeDegrees>
              <LongitudeDegrees>-1.35245100595057010650634765625</LongitudeDegrees>
            </Position>
            <AltitudeMeters>13.19999980926513671875</AltitudeMeters>
            <DistanceMeters>NAN</DistanceMeters>
          </Trackpoint>
          <Trackpoint>
            <Time>2022-07-06T14:37:14.000Z</Time>
            <Position>
              <LatitudeDegrees>43.9310017414391040802001953125</LatitudeDegrees>
              <LongitudeDegrees>-1.35238830931484699249267578125</LongitudeDegrees>
            </Position>
            <AltitudeMeters>13</AltitudeMeters>
            <DistanceMeters>NAN</DistanceMeters>
          </Trackpoint>
          <Trackpoint>
            <Time>2022-07-06T14:37:19.000Z</Time>
            <Position>
              <LatitudeDegrees>43.9308272302150726318359375</LatitudeDegrees>
              <LongitudeDegrees>-1.35233248583972454071044921875</LongitudeDegrees>
            </Position>
            <AltitudeMeters>12.6000003814697265625</AltitudeMeters>
            <DistanceMeters>NAN</DistanceMeters>
          </Trackpoint>
          <Trackpoint>
            <Time>2022-07-06T14:37:26.000Z</Time>
            <Position>
              <LatitudeDegrees>43.93048214726150035858154296875</LatitudeDegrees>
              <LongitudeDegrees>-1.35225838981568813323974609375</LongitudeDegrees>
            </Position>
            <AltitudeMeters>13.19999980926513671875</AltitudeMeters>
            <DistanceMeters>NAN</DistanceMeters>
          </Trackpoint>
          <Trackpoint>
            <Time>2022-07-06T14:37:33.000Z</Time>
            <Position>
              <LatitudeDegrees>43.93014234490692615509033203125</LatitudeDegrees>
              <LongitudeDegrees>-1.35216258466243743896484375</LongitudeDegrees>
            </Position>
            <AltitudeMeters>13.19999980926513671875</AltitudeMeters>
            <DistanceMeters>NAN</DistanceMeters>
          </Trackpoint>
          <Trackpoint>
            <Time>2022-07-06T14:37:41.000Z</Time>
            <Position>
              <LatitudeDegrees>43.92976800911128520965576171875</LatitudeDegrees>
              <LongitudeDegrees>-1.352029144763946533203125</LongitudeDegrees>
            </Position>
            <AltitudeMeters>13.6000003814697265625</AltitudeMeters>
            <DistanceMeters>NAN</DistanceMeters>
          </Trackpoint>
          <Trackpoint>
            <Time>2022-07-06T14:37:45.000Z</Time>
            <Position>
              <LatitudeDegrees>43.9296066574752330780029296875</LatitudeDegrees>
              <LongitudeDegrees>-1.35195245034992694854736328125</LongitudeDegrees>
            </Position>
            <AltitudeMeters>14</AltitudeMeters>
            <DistanceMeters>NAN</DistanceMeters>
          </Trackpoint>
          <Trackpoint>
            <Time>2022-07-06T14:37:49.000Z</Time>
            <Position>
              <LatitudeDegrees>43.92948738299310207366943359375</LatitudeDegrees>
              <LongitudeDegrees>-1.35193635709583759307861328125</LongitudeDegrees>
            </Position>
            <AltitudeMeters>14.3999996185302734375</AltitudeMeters>
            <DistanceMeters>NAN</DistanceMeters>
          </Trackpoint>
          <Trackpoint>
            <Time>2022-07-06T14:37:59.000Z</Time>
            <Position>
              <LatitudeDegrees>43.929147161543369293212890625</LatitudeDegrees>
              <LongitudeDegrees>-1.35185438208281993865966796875</LongitudeDegrees>
            </Position>
            <AltitudeMeters>14.3999996185302734375</AltitudeMeters>
            <DistanceMeters>NAN</DistanceMeters>
          </Trackpoint>
          <Trackpoint>
            <Time>2022-07-06T14:38:07.000Z</Time>
            <Position>
              <LatitudeDegrees>43.92881398089230060577392578125</LatitudeDegrees>
              <LongitudeDegrees>-1.35174281895160675048828125</LongitudeDegrees>
            </Position>
            <AltitudeMeters>14</AltitudeMeters>
            <DistanceMeters>NAN</DistanceMeters>
          </Trackpoint>
          <Trackpoint>
            <Time>2022-07-06T14:38:11.000Z</Time>
            <Position>
              <LatitudeDegrees>43.9286465942859649658203125</LatitudeDegrees>
              <LongitudeDegrees>-1.35170996189117431640625</LongitudeDegrees>
            </Position>
            <AltitudeMeters>13.80000019073486328125</AltitudeMeters>
            <DistanceMeters>NAN</DistanceMeters>
          </Trackpoint>
          <Trackpoint>
            <Time>2022-07-06T14:38:14.000Z</Time>
            <Position>
              <LatitudeDegrees>43.9284888468682765960693359375</LatitudeDegrees>
              <LongitudeDegrees>-1.3516796194016933441162109375</LongitudeDegrees>
            </Position>
            <AltitudeMeters>14</AltitudeMeters>
            <DistanceMeters>NAN</DistanceMeters>
          </Trackpoint>
          <Trackpoint>
            <Time>2022-07-06T14:38:18.000Z</Time>
            <Position>
              <LatitudeDegrees>43.9283031038939952850341796875</LatitudeDegrees>
              <LongitudeDegrees>-1.3516424037516117095947265625</LongitudeDegrees>
            </Position>
            <AltitudeMeters>14</AltitudeMeters>
            <DistanceMeters>NAN</DistanceMeters>
          </Trackpoint>
          <Trackpoint>
            <Time>2022-07-06T14:38:20.000Z</Time>
            <Position>
              <LatitudeDegrees>43.92820361070334911346435546875</LatitudeDegrees>
              <LongitudeDegrees>-1.35163343511521816253662109375</LongitudeDegrees>
            </Position>
            <AltitudeMeters>14</AltitudeMeters>
            <DistanceMeters>NAN</DistanceMeters>
          </Trackpoint>
          <Trackpoint>
            <Time>2022-07-06T14:38:21.000Z</Time>
            <Position>
              <LatitudeDegrees>43.928153403103351593017578125</LatitudeDegrees>
              <LongitudeDegrees>-1.35163460858166217803955078125</LongitudeDegrees>
            </Position>
            <AltitudeMeters>14</AltitudeMeters>
            <DistanceMeters>NAN</DistanceMeters>
          </Trackpoint>
          <Trackpoint>
            <Time>2022-07-06T14:38:24.000Z</Time>
            <Position>
              <LatitudeDegrees>43.92800152301788330078125</LatitudeDegrees>
              <LongitudeDegrees>-1.35164617560803890228271484375</LongitudeDegrees>
            </Position>
            <AltitudeMeters>14</AltitudeMeters>
            <DistanceMeters>NAN</DistanceMeters>
          </Trackpoint>
          <Trackpoint>
            <Time>2022-07-06T14:38:26.000Z</Time>
            <Position>
              <LatitudeDegrees>43.9278967492282390594482421875</LatitudeDegrees>
              <LongitudeDegrees>-1.35164416395127773284912109375</LongitudeDegrees>
            </Position>
            <AltitudeMeters>14</AltitudeMeters>
            <DistanceMeters>NAN</DistanceMeters>
          </Trackpoint>
          <Trackpoint>
            <Time>2022-07-06T14:38:27.000Z</Time>
            <Position>
              <LatitudeDegrees>43.927851654589176177978515625</LatitudeDegrees>
              <LongitudeDegrees>-1.3516527973115444183349609375</LongitudeDegrees>
            </Position>
            <AltitudeMeters>14</AltitudeMeters>
            <DistanceMeters>NAN</DistanceMeters>
          </Trackpoint>
          <Trackpoint>
            <Time>2022-07-06T14:38:28.000Z</Time>
            <Position>
              <LatitudeDegrees>43.9278075657784938812255859375</LatitudeDegrees>
              <LongitudeDegrees>-1.35165522806346416473388671875</LongitudeDegrees>
            </Position>
            <AltitudeMeters>14.19999980926513671875</AltitudeMeters>
            <DistanceMeters>NAN</DistanceMeters>
          </Trackpoint>
          <Trackpoint>
            <Time>2022-07-06T14:38:29.000Z</Time>
            <Position>
              <LatitudeDegrees>43.92776574008166790008544921875</LatitudeDegrees>
              <LongitudeDegrees>-1.35164969600737094879150390625</LongitudeDegrees>
            </Position>
            <AltitudeMeters>14.3999996185302734375</AltitudeMeters>
            <DistanceMeters>NAN</DistanceMeters>
          </Trackpoint>
          <Trackpoint>
            <Time>2022-07-06T14:38:31.000Z</Time>
            <Position>
              <LatitudeDegrees>43.92768342979252338409423828125</LatitudeDegrees>
              <LongitudeDegrees>-1.351642571389675140380859375</LongitudeDegrees>
            </Position>
            <AltitudeMeters>14.6000003814697265625</AltitudeMeters>
            <DistanceMeters>NAN</DistanceMeters>
          </Trackpoint>
          <Trackpoint>
            <Time>2022-07-06T14:38:35.000Z</Time>
            <Position>
              <LatitudeDegrees>43.9275074936449527740478515625</LatitudeDegrees>
              <LongitudeDegrees>-1.35165791027247905731201171875</LongitudeDegrees>
            </Position>
            <AltitudeMeters>14.6000003814697265625</AltitudeMeters>
            <DistanceMeters>NAN</DistanceMeters>
          </Trackpoint>
          <Trackpoint>
            <Time>2022-07-06T14:38:36.000Z</Time>
            <Position>
              <LatitudeDegrees>43.92746633850038051605224609375</LatitudeDegrees>
              <LongitudeDegrees>-1.3516702316701412200927734375</LongitudeDegrees>
            </Position>
            <AltitudeMeters>14.3999996185302734375</AltitudeMeters>
            <DistanceMeters>NAN</DistanceMeters>
          </Trackpoint>
          <Trackpoint>
            <Time>2022-07-06T14:38:37.000Z</Time>
            <Position>
              <LatitudeDegrees>43.927425183355808258056640625</LatitudeDegrees>
              <LongitudeDegrees>-1.35168372653424739837646484375</LongitudeDegrees>
            </Position>
            <AltitudeMeters>14.3999996185302734375</AltitudeMeters>
            <DistanceMeters>NAN</DistanceMeters>
          </Trackpoint>
          <Trackpoint>
            <Time>2022-07-06T14:38:42.000Z</Time>
            <Position>
              <LatitudeDegrees>43.92723717726767063140869140625</LatitudeDegrees>
              <LongitudeDegrees>-1.3518167473375797271728515625</LongitudeDegrees>
            </Position>
            <AltitudeMeters>14.19999980926513671875</AltitudeMeters>
            <DistanceMeters>NAN</DistanceMeters>
          </Trackpoint>
          <Trackpoint>
            <Time>2022-07-06T14:38:44.000Z</Time>
            <Position>
              <LatitudeDegrees>43.9271564595401287078857421875</LatitudeDegrees>
              <LongitudeDegrees>-1.351873911917209625244140625</LongitudeDegrees>
            </Position>
            <AltitudeMeters>14.3999996185302734375</AltitudeMeters>
            <DistanceMeters>NAN</DistanceMeters>
          </Trackpoint>
          <Trackpoint>
            <Time>2022-07-06T14:38:46.000Z</Time>
            <Position>
              <LatitudeDegrees>43.9270842075347900390625</LatitudeDegrees>
              <LongitudeDegrees>-1.3519304059445858001708984375</LongitudeDegrees>
            </Position>
            <AltitudeMeters>14.6000003814697265625</AltitudeMeters>
            <DistanceMeters>NAN</DistanceMeters>
          </Trackpoint>
          <Trackpoint>
            <Time>2022-07-06T14:38:48.000Z</Time>
            <Position>
              <LatitudeDegrees>43.9269945211708545684814453125</LatitudeDegrees>
              <LongitudeDegrees>-1.35200777091085910797119140625</LongitudeDegrees>
            </Position>
            <AltitudeMeters>15</AltitudeMeters>
            <DistanceMeters>NAN</DistanceMeters>
          </Trackpoint>
          <Trackpoint>
            <Time>2022-07-06T14:38:53.000Z</Time>
            <Position>
              <LatitudeDegrees>43.92679645679891109466552734375</LatitudeDegrees>
              <LongitudeDegrees>-1.35215998627245426177978515625</LongitudeDegrees>
            </Position>
            <AltitudeMeters>14.80000019073486328125</AltitudeMeters>
            <DistanceMeters>NAN</DistanceMeters>
          </Trackpoint>
          <Trackpoint>
            <Time>2022-07-06T14:38:55.000Z</Time>
            <Position>
              <LatitudeDegrees>43.92671129666268825531005859375</LatitudeDegrees>
              <LongitudeDegrees>-1.3522331602871417999267578125</LongitudeDegrees>
            </Position>
            <AltitudeMeters>14.6000003814697265625</AltitudeMeters>
            <DistanceMeters>NAN</DistanceMeters>
          </Trackpoint>
          <Trackpoint>
            <Time>2022-07-06T14:38:59.000Z</Time>
            <Position>
              <LatitudeDegrees>43.9265600033104419708251953125</LatitudeDegrees>
              <LongitudeDegrees>-1.35240842588245868682861328125</LongitudeDegrees>
            </Position>
            <AltitudeMeters>14.6000003814697265625</AltitudeMeters>
            <DistanceMeters>NAN</DistanceMeters>
          </Trackpoint>
          <Trackpoint>
            <Time>2022-07-06T14:39:03.000Z</Time>
            <Position>
              <LatitudeDegrees>43.9264309220016002655029296875</LatitudeDegrees>
              <LongitudeDegrees>-1.35255418717861175537109375</LongitudeDegrees>
            </Position>
            <AltitudeMeters>14.80000019073486328125</AltitudeMeters>
            <DistanceMeters>NAN</DistanceMeters>
          </Trackpoint>
          <Trackpoint>
            <Time>2022-07-06T14:39:07.000Z</Time>
            <Position>
              <LatitudeDegrees>43.9263157546520233154296875</LatitudeDegrees>
              <LongitudeDegrees>-1.35269626043736934661865234375</LongitudeDegrees>
            </Position>
            <AltitudeMeters>15</AltitudeMeters>
            <DistanceMeters>NAN</DistanceMeters>
          </Trackpoint>
          <Trackpoint>
            <Time>2022-07-06T14:39:11.000Z</Time>
            <Position>
              <LatitudeDegrees>43.9262084662914276123046875</LatitudeDegrees>
              <LongitudeDegrees>-1.35282735340297222137451171875</LongitudeDegrees>
            </Position>
            <AltitudeMeters>15</AltitudeMeters>
            <DistanceMeters>NAN</DistanceMeters>
          </Trackpoint>
          <Trackpoint>
            <Time>2022-07-06T14:39:16.000Z</Time>
            <Position>
              <LatitudeDegrees>43.9260716736316680908203125</LatitudeDegrees>
              <LongitudeDegrees>-1.35302491486072540283203125</LongitudeDegrees>
            </Position>
            <AltitudeMeters>15.19999980926513671875</AltitudeMeters>
            <DistanceMeters>NAN</DistanceMeters>
          </Trackpoint>
          <Trackpoint>
            <Time>2022-07-06T14:39:18.000Z</Time>
            <Position>
              <LatitudeDegrees>43.92601006664335727691650390625</LatitudeDegrees>
              <LongitudeDegrees>-1.3531132601201534271240234375</LongitudeDegrees>
            </Position>
            <AltitudeMeters>15.19999980926513671875</AltitudeMeters>
            <DistanceMeters>NAN</DistanceMeters>
          </Trackpoint>
          <Trackpoint>
            <Time>2022-07-06T14:39:19.000Z</Time>
            <Position>
              <LatitudeDegrees>43.92598274163901805877685546875</LatitudeDegrees>
              <LongitudeDegrees>-1.35316095314919948577880859375</LongitudeDegrees>
            </Position>
            <AltitudeMeters>15.19999980926513671875</AltitudeMeters>
            <DistanceMeters>NAN</DistanceMeters>
          </Trackpoint>
          <Trackpoint>
            <Time>2022-07-06T14:39:23.000Z</Time>
            <Position>
              <LatitudeDegrees>43.925874195992946624755859375</LatitudeDegrees>
              <LongitudeDegrees>-1.3533402420580387115478515625</LongitudeDegrees>
            </Position>
            <AltitudeMeters>15.19999980926513671875</AltitudeMeters>
            <DistanceMeters>NAN</DistanceMeters>
          </Trackpoint>
          <Trackpoint>
            <Time>2022-07-06T14:39:27.000Z</Time>
            <Position>
              <LatitudeDegrees>43.9257902093231678009033203125</LatitudeDegrees>
              <LongitudeDegrees>-1.35346488095819950103759765625</LongitudeDegrees>
            </Position>
            <AltitudeMeters>15.3999996185302734375</AltitudeMeters>
            <DistanceMeters>NAN</DistanceMeters>
          </Trackpoint>
          <Trackpoint>
            <Time>2022-07-06T14:39:33.000Z</Time>
            <Position>
              <LatitudeDegrees>43.9256514050066471099853515625</LatitudeDegrees>
              <LongitudeDegrees>-1.3536949642002582550048828125</LongitudeDegrees>
            </Position>
            <AltitudeMeters>15.80000019073486328125</AltitudeMeters>
            <DistanceMeters>NAN</DistanceMeters>
          </Trackpoint>
          <Trackpoint>
            <Time>2022-07-06T14:39:36.000Z</Time>
            <Position>
              <LatitudeDegrees>43.92558778636157512664794921875</LatitudeDegrees>
              <LongitudeDegrees>-1.3537958823144435882568359375</LongitudeDegrees>
            </Position>
            <AltitudeMeters>15.80000019073486328125</AltitudeMeters>
            <DistanceMeters>NAN</DistanceMeters>
          </Trackpoint>
          <Trackpoint>
            <Time>2022-07-06T14:39:37.000Z</Time>
            <Position>
              <LatitudeDegrees>43.92555601894855499267578125</LatitudeDegrees>
              <LongitudeDegrees>-1.35384793393313884735107421875</LongitudeDegrees>
            </Position>
            <AltitudeMeters>15.80000019073486328125</AltitudeMeters>
            <DistanceMeters>NAN</DistanceMeters>
          </Trackpoint>
          <Trackpoint>
            <Time>2022-07-06T14:39:43.000Z</Time>
            <Position>
              <LatitudeDegrees>43.9253982715308666229248046875</LatitudeDegrees>
              <LongitudeDegrees>-1.3540260493755340576171875</LongitudeDegrees>
            </Position>
            <AltitudeMeters>15.6000003814697265625</AltitudeMeters>
            <DistanceMeters>NAN</DistanceMeters>
          </Trackpoint>
          <Trackpoint>
            <Time>2022-07-06T14:39:48.000Z</Time>
            <Position>
              <LatitudeDegrees>43.9252899773418903350830078125</LatitudeDegrees>
              <LongitudeDegrees>-1.35414607822895050048828125</LongitudeDegrees>
            </Position>
            <AltitudeMeters>15.80000019073486328125</AltitudeMeters>
            <DistanceMeters>NAN</DistanceMeters>
          </Trackpoint>
          <Trackpoint>
            <Time>2022-07-06T14:39:55.000Z</Time>
            <Position>
              <LatitudeDegrees>43.92511974088847637176513671875</LatitudeDegrees>
              <LongitudeDegrees>-1.3543157279491424560546875</LongitudeDegrees>
            </Position>
            <AltitudeMeters>16.200000762939453125</AltitudeMeters>
            <DistanceMeters>NAN</DistanceMeters>
          </Trackpoint>
          <Trackpoint>
            <Time>2022-07-06T14:39:57.000Z</Time>
            <Position>
              <LatitudeDegrees>43.925064504146575927734375</LatitudeDegrees>
              <LongitudeDegrees>-1.35435956530272960662841796875</LongitudeDegrees>
            </Position>
            <AltitudeMeters>16.200000762939453125</AltitudeMeters>
            <DistanceMeters>NAN</DistanceMeters>
          </Trackpoint>
          <Trackpoint>
            <Time>2022-07-06T14:39:58.000Z</Time>
            <Position>
              <LatitudeDegrees>43.9250257797539234161376953125</LatitudeDegrees>
              <LongitudeDegrees>-1.35439208708703517913818359375</LongitudeDegrees>
            </Position>
            <AltitudeMeters>16.200000762939453125</AltitudeMeters>
            <DistanceMeters>NAN</DistanceMeters>
          </Trackpoint>
          <Trackpoint>
            <Time>2022-07-06T14:40:00.000Z</Time>
            <Position>
              <LatitudeDegrees>43.92496014945209026336669921875</LatitudeDegrees>
              <LongitudeDegrees>-1.35444640181958675384521484375</LongitudeDegrees>
            </Position>
            <AltitudeMeters>16.3999996185302734375</AltitudeMeters>
            <DistanceMeters>NAN</DistanceMeters>
          </Trackpoint>
          <Trackpoint>
            <Time>2022-07-06T14:40:01.000Z</Time>
            <Position>
              <LatitudeDegrees>43.924929387867450714111328125</LatitudeDegrees>
              <LongitudeDegrees>-1.35446584783494472503662109375</LongitudeDegrees>
            </Position>
            <AltitudeMeters>16.3999996185302734375</AltitudeMeters>
            <DistanceMeters>NAN</DistanceMeters>
          </Trackpoint>
          <Trackpoint>
            <Time>2022-07-06T14:40:04.000Z</Time>
            <Position>
              <LatitudeDegrees>43.92480097711086273193359375</LatitudeDegrees>
              <LongitudeDegrees>-1.354533322155475616455078125</LongitudeDegrees>
            </Position>
            <AltitudeMeters>16</AltitudeMeters>
            <DistanceMeters>NAN</DistanceMeters>
          </Trackpoint>
          <Trackpoint>
            <Time>2022-07-06T14:40:05.000Z</Time>
            <Position>
              <LatitudeDegrees>43.92475806176662445068359375</LatitudeDegrees>
              <LongitudeDegrees>-1.35455838404595851898193359375</LongitudeDegrees>
            </Position>
            <AltitudeMeters>16</AltitudeMeters>
            <DistanceMeters>NAN</DistanceMeters>
          </Trackpoint>
          <Trackpoint>
            <Time>2022-07-06T14:40:08.000Z</Time>
            <Position>
              <LatitudeDegrees>43.9246366918087005615234375</LatitudeDegrees>
              <LongitudeDegrees>-1.35463566519320011138916015625</LongitudeDegrees>
            </Position>
            <AltitudeMeters>15.6000003814697265625</AltitudeMeters>
            <DistanceMeters>NAN</DistanceMeters>
          </Trackpoint>
          <Trackpoint>
            <Time>2022-07-06T14:40:12.000Z</Time>
            <Position>
              <LatitudeDegrees>43.92447617836296558380126953125</LatitudeDegrees>
              <LongitudeDegrees>-1.3547172211110591888427734375</LongitudeDegrees>
            </Position>
            <AltitudeMeters>15.19999980926513671875</AltitudeMeters>
            <DistanceMeters>NAN</DistanceMeters>
          </Trackpoint>
          <Trackpoint>
            <Time>2022-07-06T14:40:13.000Z</Time>
            <Position>
              <LatitudeDegrees>43.92442789860069751739501953125</LatitudeDegrees>
              <LongitudeDegrees>-1.35474882088601589202880859375</LongitudeDegrees>
            </Position>
            <AltitudeMeters>15</AltitudeMeters>
            <DistanceMeters>NAN</DistanceMeters>
          </Trackpoint>
          <Trackpoint>
            <Time>2022-07-06T14:40:19.000Z</Time>
            <Position>
              <LatitudeDegrees>43.92414827831089496612548828125</LatitudeDegrees>
              <LongitudeDegrees>-1.35486893355846405029296875</LongitudeDegrees>
            </Position>
            <AltitudeMeters>14.3999996185302734375</AltitudeMeters>
            <DistanceMeters>NAN</DistanceMeters>
          </Trackpoint>
          <Trackpoint>
            <Time>2022-07-06T14:40:22.000Z</Time>
            <Position>
              <LatitudeDegrees>43.9240461029112339019775390625</LatitudeDegrees>
              <LongitudeDegrees>-1.35492081753909587860107421875</LongitudeDegrees>
            </Position>
            <AltitudeMeters>14</AltitudeMeters>
            <DistanceMeters>NAN</DistanceMeters>
          </Trackpoint>
          <Trackpoint>
            <Time>2022-07-06T14:40:25.000Z</Time>
            <Position>
              <LatitudeDegrees>43.9239592663943767547607421875</LatitudeDegrees>
              <LongitudeDegrees>-1.35497647337615489959716796875</LongitudeDegrees>
            </Position>
            <AltitudeMeters>13.6000003814697265625</AltitudeMeters>
            <DistanceMeters>NAN</DistanceMeters>
          </Trackpoint>
          <Trackpoint>
            <Time>2022-07-06T14:40:27.000Z</Time>
            <Position>
              <LatitudeDegrees>43.923953734338283538818359375</LatitudeDegrees>
              <LongitudeDegrees>-1.3549790717661380767822265625</LongitudeDegrees>
            </Position>
            <AltitudeMeters>13.19999980926513671875</AltitudeMeters>
            <DistanceMeters>NAN</DistanceMeters>
          </Trackpoint>
          <Trackpoint>
            <Time>2022-07-06T14:41:05.000Z</Time>
            <Position>
              <LatitudeDegrees>43.9238925464451313018798828125</LatitudeDegrees>
              <LongitudeDegrees>-1.35500011034309864044189453125</LongitudeDegrees>
            </Position>
            <AltitudeMeters>13</AltitudeMeters>
            <DistanceMeters>NAN</DistanceMeters>
          </Trackpoint>
          <Trackpoint>
            <Time>2022-07-06T14:41:07.000Z</Time>
            <Position>
              <LatitudeDegrees>43.923841416835784912109375</LatitudeDegrees>
              <LongitudeDegrees>-1.35503590106964111328125</LongitudeDegrees>
            </Position>
            <AltitudeMeters>13</AltitudeMeters>
            <DistanceMeters>NAN</DistanceMeters>
          </Trackpoint>
          <Trackpoint>
            <Time>2022-07-06T14:41:11.000Z</Time>
            <Position>
              <LatitudeDegrees>43.9237274229526519775390625</LatitudeDegrees>
              <LongitudeDegrees>-1.355092562735080718994140625</LongitudeDegrees>
            </Position>
            <AltitudeMeters>12.80000019073486328125</AltitudeMeters>
            <DistanceMeters>NAN</DistanceMeters>
          </Trackpoint>
          <Trackpoint>
            <Time>2022-07-06T14:41:17.000Z</Time>
            <Position>
              <LatitudeDegrees>43.92352835275232791900634765625</LatitudeDegrees>
              <LongitudeDegrees>-1.35520018637180328369140625</LongitudeDegrees>
            </Position>
            <AltitudeMeters>13.3999996185302734375</AltitudeMeters>
            <DistanceMeters>NAN</DistanceMeters>
          </Trackpoint>
          <Trackpoint>
            <Time>2022-07-06T14:41:24.000Z</Time>
            <Position>
              <LatitudeDegrees>43.92328594811260700225830078125</LatitudeDegrees>
              <LongitudeDegrees>-1.35532214306294918060302734375</LongitudeDegrees>
            </Position>
            <AltitudeMeters>13.6000003814697265625</AltitudeMeters>
            <DistanceMeters>NAN</DistanceMeters>
          </Trackpoint>
          <Trackpoint>
            <Time>2022-07-06T14:41:29.000Z</Time>
            <Position>
              <LatitudeDegrees>43.9230600558221340179443359375</LatitudeDegrees>
              <LongitudeDegrees>-1.35540998540818691253662109375</LongitudeDegrees>
            </Position>
            <AltitudeMeters>14</AltitudeMeters>
            <DistanceMeters>NAN</DistanceMeters>
          </Trackpoint>
          <Trackpoint>
            <Time>2022-07-06T14:41:30.000Z</Time>
            <Position>
              <LatitudeDegrees>43.923002891242504119873046875</LatitudeDegrees>
              <LongitudeDegrees>-1.35544317774474620819091796875</LongitudeDegrees>
            </Position>
            <AltitudeMeters>14</AltitudeMeters>
            <DistanceMeters>NAN</DistanceMeters>
          </Trackpoint>
          <Trackpoint>
            <Time>2022-07-06T14:41:34.000Z</Time>
            <Position>
              <LatitudeDegrees>43.92285168170928955078125</LatitudeDegrees>
              <LongitudeDegrees>-1.35552481748163700103759765625</LongitudeDegrees>
            </Position>
            <AltitudeMeters>13.6000003814697265625</AltitudeMeters>
            <DistanceMeters>NAN</DistanceMeters>
          </Trackpoint>
          <Trackpoint>
            <Time>2022-07-06T14:41:35.000Z</Time>
            <Position>
              <LatitudeDegrees>43.92281773500144481658935546875</LatitudeDegrees>
              <LongitudeDegrees>-1.355543844401836395263671875</LongitudeDegrees>
            </Position>
            <AltitudeMeters>13.3999996185302734375</AltitudeMeters>
            <DistanceMeters>NAN</DistanceMeters>
          </Trackpoint>
          <Trackpoint>
            <Time>2022-07-06T14:41:36.000Z</Time>
            <Position>
              <LatitudeDegrees>43.9227784238755702972412109375</LatitudeDegrees>
              <LongitudeDegrees>-1.35556253604590892791748046875</LongitudeDegrees>
            </Position>
            <AltitudeMeters>13.3999996185302734375</AltitudeMeters>
            <DistanceMeters>NAN</DistanceMeters>
          </Trackpoint>
          <Trackpoint>
            <Time>2022-07-06T14:41:40.000Z</Time>
            <Position>
              <LatitudeDegrees>43.92262143082916736602783203125</LatitudeDegrees>
              <LongitudeDegrees>-1.35559639893472194671630859375</LongitudeDegrees>
            </Position>
            <AltitudeMeters>12.80000019073486328125</AltitudeMeters>
            <DistanceMeters>NAN</DistanceMeters>
          </Trackpoint>
          <Trackpoint>
            <Time>2022-07-06T14:41:41.000Z</Time>
            <Position>
              <LatitudeDegrees>43.92258522100746631622314453125</LatitudeDegrees>
              <LongitudeDegrees>-1.35562439449131488800048828125</LongitudeDegrees>
            </Position>
            <AltitudeMeters>12.80000019073486328125</AltitudeMeters>
            <DistanceMeters>NAN</DistanceMeters>
          </Trackpoint>
          <Trackpoint>
            <Time>2022-07-06T14:41:47.000Z</Time>
            <Position>
              <LatitudeDegrees>43.92241171561181545257568359375</LatitudeDegrees>
              <LongitudeDegrees>-1.35569714941084384918212890625</LongitudeDegrees>
            </Position>
            <AltitudeMeters>13.80000019073486328125</AltitudeMeters>
            <DistanceMeters>NAN</DistanceMeters>
          </Trackpoint>
          <Trackpoint>
            <Time>2022-07-06T14:41:48.000Z</Time>
            <Position>
              <LatitudeDegrees>43.92238858155906200408935546875</LatitudeDegrees>
              <LongitudeDegrees>-1.35571341030299663543701171875</LongitudeDegrees>
            </Position>
            <AltitudeMeters>13.80000019073486328125</AltitudeMeters>
            <DistanceMeters>NAN</DistanceMeters>
          </Trackpoint>
          <Trackpoint>
            <Time>2022-07-06T14:41:51.000Z</Time>
            <Position>
              <LatitudeDegrees>43.92227659933269023895263671875</LatitudeDegrees>
              <LongitudeDegrees>-1.3557800464332103729248046875</LongitudeDegrees>
            </Position>
            <AltitudeMeters>14</AltitudeMeters>
            <DistanceMeters>NAN</DistanceMeters>
          </Trackpoint>
          <Trackpoint>
            <Time>2022-07-06T14:41:53.000Z</Time>
            <Position>
              <LatitudeDegrees>43.92218221910297870635986328125</LatitudeDegrees>
              <LongitudeDegrees>-1.35582857765257358551025390625</LongitudeDegrees>
            </Position>
            <AltitudeMeters>14.19999980926513671875</AltitudeMeters>
            <DistanceMeters>NAN</DistanceMeters>
          </Trackpoint>
          <Trackpoint>
            <Time>2022-07-06T14:41:54.000Z</Time>
            <Position>
              <LatitudeDegrees>43.92215070314705371856689453125</LatitudeDegrees>
              <LongitudeDegrees>-1.35585154406726360321044921875</LongitudeDegrees>
            </Position>
            <AltitudeMeters>14.19999980926513671875</AltitudeMeters>
            <DistanceMeters>NAN</DistanceMeters>
          </Trackpoint>
          <Trackpoint>
            <Time>2022-07-06T14:41:56.000Z</Time>
            <Position>
              <LatitudeDegrees>43.92208180390298366546630859375</LatitudeDegrees>
              <LongitudeDegrees>-1.35588574223220348358154296875</LongitudeDegrees>
            </Position>
            <AltitudeMeters>14.19999980926513671875</AltitudeMeters>
            <DistanceMeters>NAN</DistanceMeters>
          </Trackpoint>
          <Trackpoint>
            <Time>2022-07-06T14:42:03.000Z</Time>
            <Position>
              <LatitudeDegrees>43.92176211811602115631103515625</LatitudeDegrees>
              <LongitudeDegrees>-1.356005184352397918701171875</LongitudeDegrees>
            </Position>
            <AltitudeMeters>13.80000019073486328125</AltitudeMeters>
            <DistanceMeters>NAN</DistanceMeters>
          </Trackpoint>
          <Trackpoint>
            <Time>2022-07-06T14:42:09.000Z</Time>
            <Position>
              <LatitudeDegrees>43.92148048616945743560791015625</LatitudeDegrees>
              <LongitudeDegrees>-1.35605522431433200836181640625</LongitudeDegrees>
            </Position>
            <AltitudeMeters>13.6000003814697265625</AltitudeMeters>
            <DistanceMeters>NAN</DistanceMeters>
          </Trackpoint>
          <Trackpoint>
            <Time>2022-07-06T14:42:11.000Z</Time>
            <Position>
              <LatitudeDegrees>43.9213900454342365264892578125</LatitudeDegrees>
              <LongitudeDegrees>-1.356068216264247894287109375</LongitudeDegrees>
            </Position>
            <AltitudeMeters>13.19999980926513671875</AltitudeMeters>
            <DistanceMeters>NAN</DistanceMeters>
          </Trackpoint>
          <Trackpoint>
            <Time>2022-07-06T14:42:14.000Z</Time>
            <Position>
              <LatitudeDegrees>43.9212512411177158355712890625</LatitudeDegrees>
              <LongitudeDegrees>-1.3560767658054828643798828125</LongitudeDegrees>
            </Position>
            <AltitudeMeters>13</AltitudeMeters>
            <DistanceMeters>NAN</DistanceMeters>
          </Trackpoint>
          <Trackpoint>
            <Time>2022-07-06T14:42:15.000Z</Time>
            <Position>
              <LatitudeDegrees>43.92119835130870342254638671875</LatitudeDegrees>
              <LongitudeDegrees>-1.3560807891190052032470703125</LongitudeDegrees>
            </Position>
            <AltitudeMeters>13</AltitudeMeters>
            <DistanceMeters>NAN</DistanceMeters>
          </Trackpoint>
          <Trackpoint>
            <Time>2022-07-06T14:42:16.000Z</Time>
            <Position>
              <LatitudeDegrees>43.9211496524512767791748046875</LatitudeDegrees>
              <LongitudeDegrees>-1.35608405806124210357666015625</LongitudeDegrees>
            </Position>
            <AltitudeMeters>13</AltitudeMeters>
            <DistanceMeters>NAN</DistanceMeters>
          </Trackpoint>
          <Trackpoint>
            <Time>2022-07-06T14:42:17.000Z</Time>
            <Position>
              <LatitudeDegrees>43.9211000315845012664794921875</LatitudeDegrees>
              <LongitudeDegrees>-1.3560844771564006805419921875</LongitudeDegrees>
            </Position>
            <AltitudeMeters>12.6000003814697265625</AltitudeMeters>
            <DistanceMeters>NAN</DistanceMeters>
          </Trackpoint>
          <Trackpoint>
            <Time>2022-07-06T14:42:20.000Z</Time>
            <Position>
              <LatitudeDegrees>43.9209337346255779266357421875</LatitudeDegrees>
              <LongitudeDegrees>-1.35608506388962268829345703125</LongitudeDegrees>
            </Position>
            <AltitudeMeters>12.19999980926513671875</AltitudeMeters>
            <DistanceMeters>NAN</DistanceMeters>
          </Trackpoint>
          <Trackpoint>
            <Time>2022-07-06T14:42:22.000Z</Time>
            <Position>
              <LatitudeDegrees>43.92083264887332916259765625</LatitudeDegrees>
              <LongitudeDegrees>-1.3560673780739307403564453125</LongitudeDegrees>
            </Position>
            <AltitudeMeters>12.3999996185302734375</AltitudeMeters>
            <DistanceMeters>NAN</DistanceMeters>
          </Trackpoint>
          <Trackpoint>
            <Time>2022-07-06T14:42:23.000Z</Time>
            <Position>
              <LatitudeDegrees>43.92078881151974201202392578125</LatitudeDegrees>
              <LongitudeDegrees>-1.3560519553720951080322265625</LongitudeDegrees>
            </Position>
            <AltitudeMeters>12.3999996185302734375</AltitudeMeters>
            <DistanceMeters>NAN</DistanceMeters>
          </Trackpoint>
          <Trackpoint>
            <Time>2022-07-06T14:42:32.000Z</Time>
            <Position>
              <LatitudeDegrees>43.9203084446489810943603515625</LatitudeDegrees>
              <LongitudeDegrees>-1.3559034280478954315185546875</LongitudeDegrees>
            </Position>
            <AltitudeMeters>12.80000019073486328125</AltitudeMeters>
            <DistanceMeters>NAN</DistanceMeters>
          </Trackpoint>
          <Trackpoint>
            <Time>2022-07-06T14:42:37.000Z</Time>
            <Position>
              <LatitudeDegrees>43.92010509967803955078125</LatitudeDegrees>
              <LongitudeDegrees>-1.35578985325992107391357421875</LongitudeDegrees>
            </Position>
            <AltitudeMeters>12.80000019073486328125</AltitudeMeters>
            <DistanceMeters>NAN</DistanceMeters>
          </Trackpoint>
          <Trackpoint>
            <Time>2022-07-06T14:42:38.000Z</Time>
            <Position>
              <LatitudeDegrees>43.92007316462695598602294921875</LatitudeDegrees>
              <LongitudeDegrees>-1.35576068423688411712646484375</LongitudeDegrees>
            </Position>
            <AltitudeMeters>12.80000019073486328125</AltitudeMeters>
            <DistanceMeters>NAN</DistanceMeters>
          </Trackpoint>
          <Trackpoint>
            <Time>2022-07-06T14:42:41.000Z</Time>
            <Position>
              <LatitudeDegrees>43.9199830591678619384765625</LatitudeDegrees>
              <LongitudeDegrees>-1.3556509651243686676025390625</LongitudeDegrees>
            </Position>
            <AltitudeMeters>13</AltitudeMeters>
            <DistanceMeters>NAN</DistanceMeters>
          </Trackpoint>
          <Trackpoint>
            <Time>2022-07-06T14:42:46.000Z</Time>
            <Position>
              <LatitudeDegrees>43.91983746550977230072021484375</LatitudeDegrees>
              <LongitudeDegrees>-1.355462037026882171630859375</LongitudeDegrees>
            </Position>
            <AltitudeMeters>13.19999980926513671875</AltitudeMeters>
            <DistanceMeters>NAN</DistanceMeters>
          </Trackpoint>
          <Trackpoint>
            <Time>2022-07-06T14:42:48.000Z</Time>
            <Position>
              <LatitudeDegrees>43.9197926223278045654296875</LatitudeDegrees>
              <LongitudeDegrees>-1.35539540089666843414306640625</LongitudeDegrees>
            </Position>
            <AltitudeMeters>13.19999980926513671875</AltitudeMeters>
            <DistanceMeters>NAN</DistanceMeters>
          </Trackpoint>
          <Trackpoint>
            <Time>2022-07-06T14:42:50.000Z</Time>
            <Position>
              <LatitudeDegrees>43.91972950659692287445068359375</LatitudeDegrees>
              <LongitudeDegrees>-1.355333626270294189453125</LongitudeDegrees>
            </Position>
            <AltitudeMeters>13.3999996185302734375</AltitudeMeters>
            <DistanceMeters>NAN</DistanceMeters>
          </Trackpoint>
          <Trackpoint>
            <Time>2022-07-06T14:42:51.000Z</Time>
            <Position>
              <LatitudeDegrees>43.91969849355518817901611328125</LatitudeDegrees>
              <LongitudeDegrees>-1.355300433933734893798828125</LongitudeDegrees>
            </Position>
            <AltitudeMeters>13.3999996185302734375</AltitudeMeters>
            <DistanceMeters>NAN</DistanceMeters>
          </Trackpoint>
          <Trackpoint>
            <Time>2022-07-06T14:43:00.000Z</Time>
            <Position>
              <LatitudeDegrees>43.91940026544034481048583984375</LatitudeDegrees>
              <LongitudeDegrees>-1.35503263212740421295166015625</LongitudeDegrees>
            </Position>
            <AltitudeMeters>13.3999996185302734375</AltitudeMeters>
            <DistanceMeters>NAN</DistanceMeters>
          </Trackpoint>
          <Trackpoint>
            <Time>2022-07-06T14:43:07.000Z</Time>
            <Position>
              <LatitudeDegrees>43.91915048472583293914794921875</LatitudeDegrees>
              <LongitudeDegrees>-1.35482660494744777679443359375</LongitudeDegrees>
            </Position>
            <AltitudeMeters>13.80000019073486328125</AltitudeMeters>
            <DistanceMeters>NAN</DistanceMeters>
          </Trackpoint>
          <Trackpoint>
            <Time>2022-07-06T14:43:14.000Z</Time>
            <Position>
              <LatitudeDegrees>43.9188737981021404266357421875</LatitudeDegrees>
              <LongitudeDegrees>-1.35461823083460330963134765625</LongitudeDegrees>
            </Position>
            <AltitudeMeters>13.6000003814697265625</AltitudeMeters>
            <DistanceMeters>NAN</DistanceMeters>
          </Trackpoint>
          <Trackpoint>
            <Time>2022-07-06T14:43:21.000Z</Time>
            <Position>
              <LatitudeDegrees>43.918553106486797332763671875</LatitudeDegrees>
              <LongitudeDegrees>-1.35441907681524753570556640625</LongitudeDegrees>
            </Position>
            <AltitudeMeters>13.19999980926513671875</AltitudeMeters>
            <DistanceMeters>NAN</DistanceMeters>
          </Trackpoint>
          <Trackpoint>
            <Time>2022-07-06T14:43:28.000Z</Time>
            <Position>
              <LatitudeDegrees>43.91823736019432544708251953125</LatitudeDegrees>
              <LongitudeDegrees>-1.35423450730741024017333984375</LongitudeDegrees>
            </Position>
            <AltitudeMeters>13</AltitudeMeters>
            <DistanceMeters>NAN</DistanceMeters>
          </Trackpoint>
          <Trackpoint>
            <Time>2022-07-06T14:43:29.000Z</Time>
            <Position>
              <LatitudeDegrees>43.9182002283632755279541015625</LatitudeDegrees>
              <LongitudeDegrees>-1.3542059250175952911376953125</LongitudeDegrees>
            </Position>
            <AltitudeMeters>13</AltitudeMeters>
            <DistanceMeters>NAN</DistanceMeters>
          </Trackpoint>
          <Trackpoint>
            <Time>2022-07-06T14:43:32.000Z</Time>
            <Position>
              <LatitudeDegrees>43.91808095388114452362060546875</LatitudeDegrees>
              <LongitudeDegrees>-1.354116238653659820556640625</LongitudeDegrees>
            </Position>
            <AltitudeMeters>13.19999980926513671875</AltitudeMeters>
            <DistanceMeters>NAN</DistanceMeters>
          </Trackpoint>
          <Trackpoint>
            <Time>2022-07-06T14:43:34.000Z</Time>
            <Position>
              <LatitudeDegrees>43.9179987274110317230224609375</LatitudeDegrees>
              <LongitudeDegrees>-1.3540630973875522613525390625</LongitudeDegrees>
            </Position>
            <AltitudeMeters>13.19999980926513671875</AltitudeMeters>
            <DistanceMeters>NAN</DistanceMeters>
          </Trackpoint>
          <Trackpoint>
            <Time>2022-07-06T14:43:35.000Z</Time>
            <Position>
              <LatitudeDegrees>43.91794952563941478729248046875</LatitudeDegrees>
              <LongitudeDegrees>-1.35403132997453212738037109375</LongitudeDegrees>
            </Position>
            <AltitudeMeters>13.19999980926513671875</AltitudeMeters>
            <DistanceMeters>NAN</DistanceMeters>
          </Trackpoint>
          <Trackpoint>
            <Time>2022-07-06T14:43:41.000Z</Time>
            <Position>
              <LatitudeDegrees>43.91769488342106342315673828125</LatitudeDegrees>
              <LongitudeDegrees>-1.35386721231043338775634765625</LongitudeDegrees>
            </Position>
            <AltitudeMeters>13.6000003814697265625</AltitudeMeters>
            <DistanceMeters>NAN</DistanceMeters>
          </Trackpoint>
          <Trackpoint>
            <Time>2022-07-06T14:43:48.000Z</Time>
            <Position>
              <LatitudeDegrees>43.917387686669826507568359375</LatitudeDegrees>
              <LongitudeDegrees>-1.3536895997822284698486328125</LongitudeDegrees>
            </Position>
            <AltitudeMeters>13.80000019073486328125</AltitudeMeters>
            <DistanceMeters>NAN</DistanceMeters>
          </Trackpoint>
          <Trackpoint>
            <Time>2022-07-06T14:43:49.000Z</Time>
            <Position>
              <LatitudeDegrees>43.91735851764678955078125</LatitudeDegrees>
              <LongitudeDegrees>-1.35366839356720447540283203125</LongitudeDegrees>
            </Position>
            <AltitudeMeters>14</AltitudeMeters>
            <DistanceMeters>NAN</DistanceMeters>
          </Trackpoint>
          <Trackpoint>
            <Time>2022-07-06T14:43:51.000Z</Time>
            <Position>
              <LatitudeDegrees>43.91729481518268585205078125</LatitudeDegrees>
              <LongitudeDegrees>-1.35361365973949432373046875</LongitudeDegrees>
            </Position>
            <AltitudeMeters>14.19999980926513671875</AltitudeMeters>
            <DistanceMeters>NAN</DistanceMeters>
          </Trackpoint>
          <Trackpoint>
            <Time>2022-07-06T14:43:53.000Z</Time>
            <Position>
              <LatitudeDegrees>43.9172312803566455841064453125</LatitudeDegrees>
              <LongitudeDegrees>-1.35357066057622432708740234375</LongitudeDegrees>
            </Position>
            <AltitudeMeters>14.19999980926513671875</AltitudeMeters>
            <DistanceMeters>NAN</DistanceMeters>
          </Trackpoint>
          <Trackpoint>
            <Time>2022-07-06T14:44:01.000Z</Time>
            <Position>
              <LatitudeDegrees>43.91694386489689350128173828125</LatitudeDegrees>
              <LongitudeDegrees>-1.35340034030377864837646484375</LongitudeDegrees>
            </Position>
            <AltitudeMeters>15</AltitudeMeters>
            <DistanceMeters>NAN</DistanceMeters>
          </Trackpoint>
          <Trackpoint>
            <Time>2022-07-06T14:44:08.000Z</Time>
            <Position>
              <LatitudeDegrees>43.91671889461576938629150390625</LatitudeDegrees>
              <LongitudeDegrees>-1.35322163812816143035888671875</LongitudeDegrees>
            </Position>
            <AltitudeMeters>15</AltitudeMeters>
            <DistanceMeters>NAN</DistanceMeters>
          </Trackpoint>
          <Trackpoint>
            <Time>2022-07-06T14:44:15.000Z</Time>
            <Position>
              <LatitudeDegrees>43.9164480753242969512939453125</LatitudeDegrees>
              <LongitudeDegrees>-1.35303807444870471954345703125</LongitudeDegrees>
            </Position>
            <AltitudeMeters>14.6000003814697265625</AltitudeMeters>
            <DistanceMeters>NAN</DistanceMeters>
          </Trackpoint>
          <Trackpoint>
            <Time>2022-07-06T14:44:20.000Z</Time>
            <Position>
              <LatitudeDegrees>43.9162992127239704132080078125</LatitudeDegrees>
              <LongitudeDegrees>-1.352933384478092193603515625</LongitudeDegrees>
            </Position>
            <AltitudeMeters>15.19999980926513671875</AltitudeMeters>
            <DistanceMeters>NAN</DistanceMeters>
          </Trackpoint>
          <Trackpoint>
            <Time>2022-07-06T14:44:22.000Z</Time>
            <Position>
              <LatitudeDegrees>43.91626023687422275543212890625</LatitudeDegrees>
              <LongitudeDegrees>-1.352897845208644866943359375</LongitudeDegrees>
            </Position>
            <AltitudeMeters>15.3999996185302734375</AltitudeMeters>
            <DistanceMeters>NAN</DistanceMeters>
          </Trackpoint>
          <Trackpoint>
            <Time>2022-07-06T14:44:27.000Z</Time>
            <Position>
              <LatitudeDegrees>43.91614414751529693603515625</LatitudeDegrees>
              <LongitudeDegrees>-1.35280338115990161895751953125</LongitudeDegrees>
            </Position>
            <AltitudeMeters>15.80000019073486328125</AltitudeMeters>
            <DistanceMeters>NAN</DistanceMeters>
          </Trackpoint>
          <Trackpoint>
            <Time>2022-07-06T14:44:33.000Z</Time>
            <Position>
              <LatitudeDegrees>43.9159361086785793304443359375</LatitudeDegrees>
              <LongitudeDegrees>-1.35279047302901744842529296875</LongitudeDegrees>
            </Position>
            <AltitudeMeters>15.6000003814697265625</AltitudeMeters>
            <DistanceMeters>NAN</DistanceMeters>
          </Trackpoint>
          <Trackpoint>
            <Time>2022-07-06T14:44:38.000Z</Time>
            <Position>
              <LatitudeDegrees>43.915687836706638336181640625</LatitudeDegrees>
              <LongitudeDegrees>-1.35279784910380840301513671875</LongitudeDegrees>
            </Position>
            <AltitudeMeters>14.80000019073486328125</AltitudeMeters>
            <DistanceMeters>NAN</DistanceMeters>
          </Trackpoint>
          <Trackpoint>
            <Time>2022-07-06T14:44:39.000Z</Time>
            <Position>
              <LatitudeDegrees>43.9156350307166576385498046875</LatitudeDegrees>
              <LongitudeDegrees>-1.35280497372150421142578125</LongitudeDegrees>
            </Position>
            <AltitudeMeters>14.6000003814697265625</AltitudeMeters>
            <DistanceMeters>NAN</DistanceMeters>
          </Trackpoint>
          <Trackpoint>
            <Time>2022-07-06T14:44:43.000Z</Time>
            <Position>
              <LatitudeDegrees>43.91540980897843837738037109375</LatitudeDegrees>
              <LongitudeDegrees>-1.35281444527208805084228515625</LongitudeDegrees>
            </Position>
            <AltitudeMeters>14.6000003814697265625</AltitudeMeters>
            <DistanceMeters>NAN</DistanceMeters>
          </Trackpoint>
          <Trackpoint>
            <Time>2022-07-06T14:44:45.000Z</Time>
            <Position>
              <LatitudeDegrees>43.9153186976909637451171875</LatitudeDegrees>
              <LongitudeDegrees>-1.35282374918460845947265625</LongitudeDegrees>
            </Position>
            <AltitudeMeters>14.80000019073486328125</AltitudeMeters>
            <DistanceMeters>NAN</DistanceMeters>
          </Trackpoint>
          <Trackpoint>
            <Time>2022-07-06T14:44:51.000Z</Time>
            <Position>
              <LatitudeDegrees>43.9150422625243663787841796875</LatitudeDegrees>
              <LongitudeDegrees>-1.35284394957125186920166015625</LongitudeDegrees>
            </Position>
            <AltitudeMeters>15.19999980926513671875</AltitudeMeters>
            <DistanceMeters>NAN</DistanceMeters>
          </Trackpoint>
          <Trackpoint>
            <Time>2022-07-06T14:44:53.000Z</Time>
            <Position>
              <LatitudeDegrees>43.91497227363288402557373046875</LatitudeDegrees>
              <LongitudeDegrees>-1.35286540724337100982666015625</LongitudeDegrees>
            </Position>
            <AltitudeMeters>15.3999996185302734375</AltitudeMeters>
            <DistanceMeters>NAN</DistanceMeters>
          </Trackpoint>
          <Trackpoint>
            <Time>2022-07-06T14:45:00.000Z</Time>
            <Position>
              <LatitudeDegrees>43.9146566949784755706787109375</LatitudeDegrees>
              <LongitudeDegrees>-1.35290916077792644500732421875</LongitudeDegrees>
            </Position>
            <AltitudeMeters>15.6000003814697265625</AltitudeMeters>
            <DistanceMeters>NAN</DistanceMeters>
          </Trackpoint>
          <Trackpoint>
            <Time>2022-07-06T14:45:06.000Z</Time>
            <Position>
              <LatitudeDegrees>43.91439408995211124420166015625</LatitudeDegrees>
              <LongitudeDegrees>-1.35294034145772457122802734375</LongitudeDegrees>
            </Position>
            <AltitudeMeters>15.3999996185302734375</AltitudeMeters>
            <DistanceMeters>NAN</DistanceMeters>
          </Trackpoint>
          <Trackpoint>
            <Time>2022-07-06T14:45:09.000Z</Time>
            <Position>
              <LatitudeDegrees>43.91425587236881256103515625</LatitudeDegrees>
              <LongitudeDegrees>-1.35295257903635501861572265625</LongitudeDegrees>
            </Position>
            <AltitudeMeters>15.19999980926513671875</AltitudeMeters>
            <DistanceMeters>NAN</DistanceMeters>
          </Trackpoint>
          <Trackpoint>
            <Time>2022-07-06T14:45:15.000Z</Time>
            <Position>
              <LatitudeDegrees>43.91395923681557178497314453125</LatitudeDegrees>
              <LongitudeDegrees>-1.35301192291080951690673828125</LongitudeDegrees>
            </Position>
            <AltitudeMeters>14.80000019073486328125</AltitudeMeters>
            <DistanceMeters>NAN</DistanceMeters>
          </Trackpoint>
          <Trackpoint>
            <Time>2022-07-06T14:45:18.000Z</Time>
            <Position>
              <LatitudeDegrees>43.913827054202556610107421875</LatitudeDegrees>
              <LongitudeDegrees>-1.35302298702299594879150390625</LongitudeDegrees>
            </Position>
            <AltitudeMeters>14.80000019073486328125</AltitudeMeters>
            <DistanceMeters>NAN</DistanceMeters>
          </Trackpoint>
          <Trackpoint>
            <Time>2022-07-06T14:45:20.000Z</Time>
            <Position>
              <LatitudeDegrees>43.91374432481825351715087890625</LatitudeDegrees>
              <LongitudeDegrees>-1.35301242582499980926513671875</LongitudeDegrees>
            </Position>
            <AltitudeMeters>14.6000003814697265625</AltitudeMeters>
            <DistanceMeters>NAN</DistanceMeters>
          </Trackpoint>
          <Trackpoint>
            <Time>2022-07-06T14:45:23.000Z</Time>
            <Position>
              <LatitudeDegrees>43.913627229630947113037109375</LatitudeDegrees>
              <LongitudeDegrees>-1.3529761321842670440673828125</LongitudeDegrees>
            </Position>
            <AltitudeMeters>14.3999996185302734375</AltitudeMeters>
            <DistanceMeters>NAN</DistanceMeters>
          </Trackpoint>
          <Trackpoint>
            <Time>2022-07-06T14:45:26.000Z</Time>
            <Position>
              <LatitudeDegrees>43.91350686550140380859375</LatitudeDegrees>
              <LongitudeDegrees>-1.3529030419886112213134765625</LongitudeDegrees>
            </Position>
            <AltitudeMeters>14.19999980926513671875</AltitudeMeters>
            <DistanceMeters>NAN</DistanceMeters>
          </Trackpoint>
          <Trackpoint>
            <Time>2022-07-06T14:45:29.000Z</Time>
            <Position>
              <LatitudeDegrees>43.913365714251995086669921875</LatitudeDegrees>
              <LongitudeDegrees>-1.35281578637659549713134765625</LongitudeDegrees>
            </Position>
            <AltitudeMeters>14.3999996185302734375</AltitudeMeters>
            <DistanceMeters>NAN</DistanceMeters>
          </Trackpoint>
          <Trackpoint>
            <Time>2022-07-06T14:45:30.000Z</Time>
            <Position>
              <LatitudeDegrees>43.91332447528839111328125</LatitudeDegrees>
              <LongitudeDegrees>-1.35278494097292423248291015625</LongitudeDegrees>
            </Position>
            <AltitudeMeters>14.3999996185302734375</AltitudeMeters>
            <DistanceMeters>NAN</DistanceMeters>
          </Trackpoint>
          <Trackpoint>
            <Time>2022-07-06T14:45:33.000Z</Time>
            <Position>
              <LatitudeDegrees>43.9132069610059261322021484375</LatitudeDegrees>
              <LongitudeDegrees>-1.3527028821408748626708984375</LongitudeDegrees>
            </Position>
            <AltitudeMeters>14.6000003814697265625</AltitudeMeters>
            <DistanceMeters>NAN</DistanceMeters>
          </Trackpoint>
          <Trackpoint>
            <Time>2022-07-06T14:45:37.000Z</Time>
            <Position>
              <LatitudeDegrees>43.9130443520843982696533203125</LatitudeDegrees>
              <LongitudeDegrees>-1.35258494876325130462646484375</LongitudeDegrees>
            </Position>
            <AltitudeMeters>14.6000003814697265625</AltitudeMeters>
            <DistanceMeters>NAN</DistanceMeters>
          </Trackpoint>
          <Trackpoint>
            <Time>2022-07-06T14:45:39.000Z</Time>
            <Position>
              <LatitudeDegrees>43.912951648235321044921875</LatitudeDegrees>
              <LongitudeDegrees>-1.352518983185291290283203125</LongitudeDegrees>
            </Position>
            <AltitudeMeters>14.80000019073486328125</AltitudeMeters>
            <DistanceMeters>NAN</DistanceMeters>
          </Trackpoint>
          <Trackpoint>
            <Time>2022-07-06T14:45:41.000Z</Time>
            <Position>
              <LatitudeDegrees>43.9128736965358257293701171875</LatitudeDegrees>
              <LongitudeDegrees>-1.35246106423437595367431640625</LongitudeDegrees>
            </Position>
            <AltitudeMeters>14.80000019073486328125</AltitudeMeters>
            <DistanceMeters>NAN</DistanceMeters>
          </Trackpoint>
          <Trackpoint>
            <Time>2022-07-06T14:45:45.000Z</Time>
            <Position>
              <LatitudeDegrees>43.9127483032643795013427734375</LatitudeDegrees>
              <LongitudeDegrees>-1.35235578753054141998291015625</LongitudeDegrees>
            </Position>
            <AltitudeMeters>15</AltitudeMeters>
            <DistanceMeters>NAN</DistanceMeters>
          </Trackpoint>
          <Trackpoint>
            <Time>2022-07-06T14:45:47.000Z</Time>
            <Position>
              <LatitudeDegrees>43.91270019114017486572265625</LatitudeDegrees>
              <LongitudeDegrees>-1.35234690271317958831787109375</LongitudeDegrees>
            </Position>
            <AltitudeMeters>15</AltitudeMeters>
            <DistanceMeters>NAN</DistanceMeters>
          </Trackpoint>
          <Trackpoint>
            <Time>2022-07-06T14:45:48.000Z</Time>
            <Position>
              <LatitudeDegrees>43.9126926474273204803466796875</LatitudeDegrees>
              <LongitudeDegrees>-1.3523672707378864288330078125</LongitudeDegrees>
            </Position>
            <AltitudeMeters>15</AltitudeMeters>
            <DistanceMeters>NAN</DistanceMeters>
          </Trackpoint>
          <Trackpoint>
            <Time>2022-07-06T14:45:49.000Z</Time>
            <Position>
              <LatitudeDegrees>43.912672698497772216796875</LatitudeDegrees>
              <LongitudeDegrees>-1.35238847695291042327880859375</LongitudeDegrees>
            </Position>
            <AltitudeMeters>15</AltitudeMeters>
            <DistanceMeters>NAN</DistanceMeters>
          </Trackpoint>
          <Trackpoint>
            <Time>2022-07-06T14:45:51.000Z</Time>
            <Position>
              <LatitudeDegrees>43.9126799069344997406005859375</LatitudeDegrees>
              <LongitudeDegrees>-1.35240876115858554840087890625</LongitudeDegrees>
            </Position>
            <AltitudeMeters>14.80000019073486328125</AltitudeMeters>
            <DistanceMeters>NAN</DistanceMeters>
          </Trackpoint>
          <Trackpoint>
            <Time>2022-07-06T14:45:52.000Z</Time>
            <Position>
              <LatitudeDegrees>43.9126842655241489410400390625</LatitudeDegrees>
              <LongitudeDegrees>-1.3524105213582515716552734375</LongitudeDegrees>
            </Position>
            <AltitudeMeters>14.80000019073486328125</AltitudeMeters>
            <DistanceMeters>NAN</DistanceMeters>
          </Trackpoint>
          <Trackpoint>
            <Time>2022-07-06T14:45:55.000Z</Time>
            <Position>
              <LatitudeDegrees>43.9126842655241489410400390625</LatitudeDegrees>
              <LongitudeDegrees>-1.3524105213582515716552734375</LongitudeDegrees>
            </Position>
            <AltitudeMeters>14.6000003814697265625</AltitudeMeters>
            <DistanceMeters>NAN</DistanceMeters>
          </Trackpoint>
          <Trackpoint>
            <Time>2022-07-06T14:48:21.000Z</Time>
            <Position>
              <LatitudeDegrees>43.9126668311655521392822265625</LatitudeDegrees>
              <LongitudeDegrees>-1.352362744510173797607421875</LongitudeDegrees>
            </Position>
            <AltitudeMeters>14.6000003814697265625</AltitudeMeters>
            <DistanceMeters>NAN</DistanceMeters>
          </Trackpoint>
          <Trackpoint>
            <Time>2022-07-06T14:48:22.000Z</Time>
            <Position>
              <LatitudeDegrees>43.91265870071947574615478515625</LatitudeDegrees>
              <LongitudeDegrees>-1.35235109366476535797119140625</LongitudeDegrees>
            </Position>
            <AltitudeMeters>14.6000003814697265625</AltitudeMeters>
            <DistanceMeters>NAN</DistanceMeters>
          </Trackpoint>
          <Trackpoint>
            <Time>2022-07-06T14:48:27.000Z</Time>
            <Position>
              <LatitudeDegrees>43.9125974290072917938232421875</LatitudeDegrees>
              <LongitudeDegrees>-1.3522995449602603912353515625</LongitudeDegrees>
            </Position>
            <AltitudeMeters>15.19999980926513671875</AltitudeMeters>
            <DistanceMeters>NAN</DistanceMeters>
          </Trackpoint>
          <Trackpoint>
            <Time>2022-07-06T14:48:29.000Z</Time>
            <Position>
              <LatitudeDegrees>43.91255241818726062774658203125</LatitudeDegrees>
              <LongitudeDegrees>-1.35228236205875873565673828125</LongitudeDegrees>
            </Position>
            <AltitudeMeters>15.6000003814697265625</AltitudeMeters>
            <DistanceMeters>NAN</DistanceMeters>
          </Trackpoint>
          <Trackpoint>
            <Time>2022-07-06T14:48:30.000Z</Time>
            <Position>
              <LatitudeDegrees>43.91254185698926448822021484375</LatitudeDegrees>
              <LongitudeDegrees>-1.352271549403667449951171875</LongitudeDegrees>
            </Position>
            <AltitudeMeters>15.6000003814697265625</AltitudeMeters>
            <DistanceMeters>NAN</DistanceMeters>
          </Trackpoint>
          <Trackpoint>
            <Time>2022-07-06T14:48:32.000Z</Time>
            <Position>
              <LatitudeDegrees>43.9125162921845912933349609375</LatitudeDegrees>
              <LongitudeDegrees>-1.3522485829889774322509765625</LongitudeDegrees>
            </Position>
            <AltitudeMeters>15.80000019073486328125</AltitudeMeters>
            <DistanceMeters>NAN</DistanceMeters>
          </Trackpoint>
          <Trackpoint>
            <Time>2022-07-06T14:48:34.000Z</Time>
            <Position>
              <LatitudeDegrees>43.912484943866729736328125</LatitudeDegrees>
              <LongitudeDegrees>-1.3522308133542537689208984375</LongitudeDegrees>
            </Position>
            <AltitudeMeters>15.80000019073486328125</AltitudeMeters>
            <DistanceMeters>NAN</DistanceMeters>
          </Trackpoint>
          <Trackpoint>
            <Time>2022-07-06T14:48:36.000Z</Time>
            <Position>
              <LatitudeDegrees>43.91245619393885135650634765625</LatitudeDegrees>
              <LongitudeDegrees>-1.35220474563539028167724609375</LongitudeDegrees>
            </Position>
            <AltitudeMeters>16.200000762939453125</AltitudeMeters>
            <DistanceMeters>NAN</DistanceMeters>
          </Trackpoint>
          <Trackpoint>
            <Time>2022-07-06T14:48:37.000Z</Time>
            <Position>
              <LatitudeDegrees>43.9124432019889354705810546875</LatitudeDegrees>
              <LongitudeDegrees>-1.35219871066510677337646484375</LongitudeDegrees>
            </Position>
            <AltitudeMeters>16.3999996185302734375</AltitudeMeters>
            <DistanceMeters>NAN</DistanceMeters>
          </Trackpoint>
          <Trackpoint>
            <Time>2022-07-06T14:48:38.000Z</Time>
            <Position>
              <LatitudeDegrees>43.9124318026006221771240234375</LatitudeDegrees>
              <LongitudeDegrees>-1.3521889038383960723876953125</LongitudeDegrees>
            </Position>
            <AltitudeMeters>16.3999996185302734375</AltitudeMeters>
            <DistanceMeters>NAN</DistanceMeters>
          </Trackpoint>
          <Trackpoint>
            <Time>2022-07-06T14:48:40.000Z</Time>
            <Position>
              <LatitudeDegrees>43.91240657307207584381103515625</LatitudeDegrees>
              <LongitudeDegrees>-1.3521657697856426239013671875</LongitudeDegrees>
            </Position>
            <AltitudeMeters>16.799999237060546875</AltitudeMeters>
            <DistanceMeters>NAN</DistanceMeters>
          </Trackpoint>
          <Trackpoint>
            <Time>2022-07-06T14:48:41.000Z</Time>
            <Position>
              <LatitudeDegrees>43.91239131800830364227294921875</LatitudeDegrees>
              <LongitudeDegrees>-1.35215680114924907684326171875</LongitudeDegrees>
            </Position>
            <AltitudeMeters>16.799999237060546875</AltitudeMeters>
            <DistanceMeters>NAN</DistanceMeters>
          </Trackpoint>
          <Trackpoint>
            <Time>2022-07-06T14:48:42.000Z</Time>
            <Position>
              <LatitudeDegrees>43.91237589530646800994873046875</LatitudeDegrees>
              <LongitudeDegrees>-1.35215043090283870697021484375</LongitudeDegrees>
            </Position>
            <AltitudeMeters>17</AltitudeMeters>
            <DistanceMeters>NAN</DistanceMeters>
          </Trackpoint>
          <Trackpoint>
            <Time>2022-07-06T14:48:44.000Z</Time>
            <Position>
              <LatitudeDegrees>43.912350833415985107421875</LatitudeDegrees>
              <LongitudeDegrees>-1.3521258719265460968017578125</LongitudeDegrees>
            </Position>
            <AltitudeMeters>17.200000762939453125</AltitudeMeters>
            <DistanceMeters>NAN</DistanceMeters>
          </Trackpoint>
          <Trackpoint>
            <Time>2022-07-06T14:48:45.000Z</Time>
            <Position>
              <LatitudeDegrees>43.91234588809311389923095703125</LatitudeDegrees>
              <LongitudeDegrees>-1.35210935957729816436767578125</LongitudeDegrees>
            </Position>
            <AltitudeMeters>17.3999996185302734375</AltitudeMeters>
            <DistanceMeters>NAN</DistanceMeters>
          </Trackpoint>
          <Trackpoint>
            <Time>2022-07-06T14:48:46.000Z</Time>
            <Position>
              <LatitudeDegrees>43.9123372547328472137451171875</LatitudeDegrees>
              <LongitudeDegrees>-1.35209879837930202484130859375</LongitudeDegrees>
            </Position>
            <AltitudeMeters>17.3999996185302734375</AltitudeMeters>
            <DistanceMeters>NAN</DistanceMeters>
          </Trackpoint>
          <Trackpoint>
            <Time>2022-07-06T14:48:47.000Z</Time>
            <Position>
              <LatitudeDegrees>43.91232510097324848175048828125</LatitudeDegrees>
              <LongitudeDegrees>-1.3520853035151958465576171875</LongitudeDegrees>
            </Position>
            <AltitudeMeters>17.6000003814697265625</AltitudeMeters>
            <DistanceMeters>NAN</DistanceMeters>
          </Trackpoint>
          <Trackpoint>
            <Time>2022-07-06T14:48:51.000Z</Time>
            <Position>
              <LatitudeDegrees>43.91229291446506977081298828125</LatitudeDegrees>
              <LongitudeDegrees>-1.3519931025803089141845703125</LongitudeDegrees>
            </Position>
            <AltitudeMeters>18</AltitudeMeters>
            <DistanceMeters>NAN</DistanceMeters>
          </Trackpoint>
          <Trackpoint>
            <Time>2022-07-06T14:48:54.000Z</Time>
            <Position>
              <LatitudeDegrees>43.912260644137859344482421875</LatitudeDegrees>
              <LongitudeDegrees>-1.35192261077463626861572265625</LongitudeDegrees>
            </Position>
            <AltitudeMeters>18.200000762939453125</AltitudeMeters>
            <DistanceMeters>NAN</DistanceMeters>
          </Trackpoint>
          <Trackpoint>
            <Time>2022-07-06T14:48:56.000Z</Time>
            <Position>
              <LatitudeDegrees>43.91223574988543987274169921875</LatitudeDegrees>
              <LongitudeDegrees>-1.35188623331487178802490234375</LongitudeDegrees>
            </Position>
            <AltitudeMeters>18.3999996185302734375</AltitudeMeters>
            <DistanceMeters>NAN</DistanceMeters>
          </Trackpoint>
          <Trackpoint>
            <Time>2022-07-06T14:48:57.000Z</Time>
            <Position>
              <LatitudeDegrees>43.9122287929058074951171875</LatitudeDegrees>
              <LongitudeDegrees>-1.35186393745243549346923828125</LongitudeDegrees>
            </Position>
            <AltitudeMeters>18.6000003814697265625</AltitudeMeters>
            <DistanceMeters>NAN</DistanceMeters>
          </Trackpoint>
          <Trackpoint>
            <Time>2022-07-06T14:48:58.000Z</Time>
            <Position>
              <LatitudeDegrees>43.91222233884036540985107421875</LatitudeDegrees>
              <LongitudeDegrees>-1.35184365324676036834716796875</LongitudeDegrees>
            </Position>
            <AltitudeMeters>18.6000003814697265625</AltitudeMeters>
            <DistanceMeters>NAN</DistanceMeters>
          </Trackpoint>
          <Trackpoint>
            <Time>2022-07-06T14:49:02.000Z</Time>
            <Position>
              <LatitudeDegrees>43.91220842488110065460205078125</LatitudeDegrees>
              <LongitudeDegrees>-1.35173745453357696533203125</LongitudeDegrees>
            </Position>
            <AltitudeMeters>19</AltitudeMeters>
            <DistanceMeters>NAN</DistanceMeters>
          </Trackpoint>
          <Trackpoint>
            <Time>2022-07-06T14:49:07.000Z</Time>
            <Position>
              <LatitudeDegrees>43.91219769604504108428955078125</LatitudeDegrees>
              <LongitudeDegrees>-1.35162538848817348480224609375</LongitudeDegrees>
            </Position>
            <AltitudeMeters>19.6000003814697265625</AltitudeMeters>
            <DistanceMeters>NAN</DistanceMeters>
          </Trackpoint>
          <Trackpoint>
            <Time>2022-07-06T14:49:10.000Z</Time>
            <Position>
              <LatitudeDegrees>43.9121940918266773223876953125</LatitudeDegrees>
              <LongitudeDegrees>-1.35156051255762577056884765625</LongitudeDegrees>
            </Position>
            <AltitudeMeters>19.799999237060546875</AltitudeMeters>
            <DistanceMeters>NAN</DistanceMeters>
          </Trackpoint>
          <Trackpoint>
            <Time>2022-07-06T14:49:16.000Z</Time>
            <Position>
              <LatitudeDegrees>43.9122098498046398162841796875</LatitudeDegrees>
              <LongitudeDegrees>-1.35141014121472835540771484375</LongitudeDegrees>
            </Position>
            <AltitudeMeters>20.6000003814697265625</AltitudeMeters>
            <DistanceMeters>NAN</DistanceMeters>
          </Trackpoint>
          <Trackpoint>
            <Time>2022-07-06T14:49:20.000Z</Time>
            <Position>
              <LatitudeDegrees>43.91222988255321979522705078125</LatitudeDegrees>
              <LongitudeDegrees>-1.3513101451098918914794921875</LongitudeDegrees>
            </Position>
            <AltitudeMeters>21</AltitudeMeters>
            <DistanceMeters>NAN</DistanceMeters>
          </Trackpoint>
          <Trackpoint>
            <Time>2022-07-06T14:49:24.000Z</Time>
            <Position>
              <LatitudeDegrees>43.91223214566707611083984375</LatitudeDegrees>
              <LongitudeDegrees>-1.35121853090822696685791015625</LongitudeDegrees>
            </Position>
            <AltitudeMeters>21.200000762939453125</AltitudeMeters>
            <DistanceMeters>NAN</DistanceMeters>
          </Trackpoint>
          <Trackpoint>
            <Time>2022-07-06T14:49:26.000Z</Time>
            <Position>
              <LatitudeDegrees>43.91223021782934665679931640625</LatitudeDegrees>
              <LongitudeDegrees>-1.3511666469275951385498046875</LongitudeDegrees>
            </Position>
            <AltitudeMeters>21.3999996185302734375</AltitudeMeters>
            <DistanceMeters>NAN</DistanceMeters>
          </Trackpoint>
          <Trackpoint>
            <Time>2022-07-06T14:49:27.000Z</Time>
            <Position>
              <LatitudeDegrees>43.91223072074353694915771484375</LatitudeDegrees>
              <LongitudeDegrees>-1.3511428423225879669189453125</LongitudeDegrees>
            </Position>
            <AltitudeMeters>21.3999996185302734375</AltitudeMeters>
            <DistanceMeters>NAN</DistanceMeters>
          </Trackpoint>
          <Trackpoint>
            <Time>2022-07-06T14:49:29.000Z</Time>
            <Position>
              <LatitudeDegrees>43.91222770325839519500732421875</LatitudeDegrees>
              <LongitudeDegrees>-1.3510908745229244232177734375</LongitudeDegrees>
            </Position>
            <AltitudeMeters>21.3999996185302734375</AltitudeMeters>
            <DistanceMeters>NAN</DistanceMeters>
          </Trackpoint>
          <Trackpoint>
            <Time>2022-07-06T14:49:33.000Z</Time>
            <Position>
              <LatitudeDegrees>43.912229798734188079833984375</LatitudeDegrees>
              <LongitudeDegrees>-1.35100655257701873779296875</LongitudeDegrees>
            </Position>
            <AltitudeMeters>21.6000003814697265625</AltitudeMeters>
            <DistanceMeters>NAN</DistanceMeters>
          </Trackpoint>
          <Trackpoint>
            <Time>2022-07-06T14:49:34.000Z</Time>
            <Position>
              <LatitudeDegrees>43.91223206184804439544677734375</LatitudeDegrees>
              <LongitudeDegrees>-1.35097377933561801910400390625</LongitudeDegrees>
            </Position>
            <AltitudeMeters>21.6000003814697265625</AltitudeMeters>
            <DistanceMeters>NAN</DistanceMeters>
          </Trackpoint>
          <Trackpoint>
            <Time>2022-07-06T14:49:39.000Z</Time>
            <Position>
              <LatitudeDegrees>43.91225419007241725921630859375</LatitudeDegrees>
              <LongitudeDegrees>-1.3508441112935543060302734375</LongitudeDegrees>
            </Position>
            <AltitudeMeters>21.799999237060546875</AltitudeMeters>
            <DistanceMeters>NAN</DistanceMeters>
          </Trackpoint>
          <Trackpoint>
            <Time>2022-07-06T14:49:40.000Z</Time>
            <Position>
              <LatitudeDegrees>43.9122594706714153289794921875</LatitudeDegrees>
              <LongitudeDegrees>-1.3508100807666778564453125</LongitudeDegrees>
            </Position>
            <AltitudeMeters>21.799999237060546875</AltitudeMeters>
            <DistanceMeters>NAN</DistanceMeters>
          </Trackpoint>
          <Trackpoint>
            <Time>2022-07-06T14:49:44.000Z</Time>
            <Position>
              <LatitudeDegrees>43.9122795872390270233154296875</LatitudeDegrees>
              <LongitudeDegrees>-1.35069516487419605255126953125</LongitudeDegrees>
            </Position>
            <AltitudeMeters>22</AltitudeMeters>
            <DistanceMeters>NAN</DistanceMeters>
          </Trackpoint>
          <Trackpoint>
            <Time>2022-07-06T14:49:47.000Z</Time>
            <Position>
              <LatitudeDegrees>43.91226835548877716064453125</LatitudeDegrees>
              <LongitudeDegrees>-1.35061536915600299835205078125</LongitudeDegrees>
            </Position>
            <AltitudeMeters>22</AltitudeMeters>
            <DistanceMeters>NAN</DistanceMeters>
          </Trackpoint>
          <Trackpoint>
            <Time>2022-07-06T14:49:53.000Z</Time>
            <Position>
              <LatitudeDegrees>43.91226877458393573760986328125</LatitudeDegrees>
              <LongitudeDegrees>-1.35043515823781490325927734375</LongitudeDegrees>
            </Position>
            <AltitudeMeters>22.3999996185302734375</AltitudeMeters>
            <DistanceMeters>NAN</DistanceMeters>
          </Trackpoint>
          <Trackpoint>
            <Time>2022-07-06T14:49:56.000Z</Time>
            <Position>
              <LatitudeDegrees>43.912267349660396575927734375</LatitudeDegrees>
              <LongitudeDegrees>-1.350344382226467132568359375</LongitudeDegrees>
            </Position>
            <AltitudeMeters>22.799999237060546875</AltitudeMeters>
            <DistanceMeters>NAN</DistanceMeters>
          </Trackpoint>
          <Trackpoint>
            <Time>2022-07-06T14:50:00.000Z</Time>
            <Position>
              <LatitudeDegrees>43.91229090280830860137939453125</LatitudeDegrees>
              <LongitudeDegrees>-1.3502238504588603973388671875</LongitudeDegrees>
            </Position>
            <AltitudeMeters>23</AltitudeMeters>
            <DistanceMeters>NAN</DistanceMeters>
          </Trackpoint>
          <Trackpoint>
            <Time>2022-07-06T14:50:06.000Z</Time>
            <Position>
              <LatitudeDegrees>43.91230096109211444854736328125</LatitudeDegrees>
              <LongitudeDegrees>-1.35009200312197208404541015625</LongitudeDegrees>
            </Position>
            <AltitudeMeters>23.799999237060546875</AltitudeMeters>
            <DistanceMeters>NAN</DistanceMeters>
          </Trackpoint>
          <Trackpoint>
            <Time>2022-07-06T14:50:07.000Z</Time>
            <Position>
              <LatitudeDegrees>43.91230590641498565673828125</LatitudeDegrees>
              <LongitudeDegrees>-1.35006065480411052703857421875</LongitudeDegrees>
            </Position>
            <AltitudeMeters>23.799999237060546875</AltitudeMeters>
            <DistanceMeters>NAN</DistanceMeters>
          </Trackpoint>
          <Trackpoint>
            <Time>2022-07-06T14:50:13.000Z</Time>
            <Position>
              <LatitudeDegrees>43.91228889115154743194580078125</LatitudeDegrees>
              <LongitudeDegrees>-1.34991229511797428131103515625</LongitudeDegrees>
            </Position>
            <AltitudeMeters>24.200000762939453125</AltitudeMeters>
            <DistanceMeters>NAN</DistanceMeters>
          </Trackpoint>
          <Trackpoint>
            <Time>2022-07-06T14:50:18.000Z</Time>
            <Position>
              <LatitudeDegrees>43.91230414621531963348388671875</LatitudeDegrees>
              <LongitudeDegrees>-1.3497541286051273345947265625</LongitudeDegrees>
            </Position>
            <AltitudeMeters>24.6000003814697265625</AltitudeMeters>
            <DistanceMeters>NAN</DistanceMeters>
          </Trackpoint>
          <Trackpoint>
            <Time>2022-07-06T14:50:23.000Z</Time>
            <Position>
              <LatitudeDegrees>43.91230858862400054931640625</LatitudeDegrees>
              <LongitudeDegrees>-1.3496146537363529205322265625</LongitudeDegrees>
            </Position>
            <AltitudeMeters>25</AltitudeMeters>
            <DistanceMeters>NAN</DistanceMeters>
          </Trackpoint>
          <Trackpoint>
            <Time>2022-07-06T14:50:31.000Z</Time>
            <Position>
              <LatitudeDegrees>43.91233465634286403656005859375</LatitudeDegrees>
              <LongitudeDegrees>-1.34944240562617778778076171875</LongitudeDegrees>
            </Position>
            <AltitudeMeters>25.6000003814697265625</AltitudeMeters>
            <DistanceMeters>NAN</DistanceMeters>
          </Trackpoint>
          <Trackpoint>
            <Time>2022-07-06T14:50:38.000Z</Time>
            <Position>
              <LatitudeDegrees>43.912388384342193603515625</LatitudeDegrees>
              <LongitudeDegrees>-1.3492730073630809783935546875</LongitudeDegrees>
            </Position>
            <AltitudeMeters>26</AltitudeMeters>
            <DistanceMeters>NAN</DistanceMeters>
          </Trackpoint>
          <Trackpoint>
            <Time>2022-07-06T14:50:39.000Z</Time>
            <Position>
              <LatitudeDegrees>43.9123942516744136810302734375</LatitudeDegrees>
              <LongitudeDegrees>-1.34924693964421749114990234375</LongitudeDegrees>
            </Position>
            <AltitudeMeters>26</AltitudeMeters>
            <DistanceMeters>NAN</DistanceMeters>
          </Trackpoint>
          <Trackpoint>
            <Time>2022-07-06T14:50:45.000Z</Time>
            <Position>
              <LatitudeDegrees>43.91245032660663127899169921875</LatitudeDegrees>
              <LongitudeDegrees>-1.34908500127494335174560546875</LongitudeDegrees>
            </Position>
            <AltitudeMeters>26.200000762939453125</AltitudeMeters>
            <DistanceMeters>NAN</DistanceMeters>
          </Trackpoint>
          <Trackpoint>
            <Time>2022-07-06T14:50:52.000Z</Time>
            <Position>
              <LatitudeDegrees>43.9125077426433563232421875</LatitudeDegrees>
              <LongitudeDegrees>-1.348887272179126739501953125</LongitudeDegrees>
            </Position>
            <AltitudeMeters>26.799999237060546875</AltitudeMeters>
            <DistanceMeters>NAN</DistanceMeters>
          </Trackpoint>
          <Trackpoint>
            <Time>2022-07-06T14:50:54.000Z</Time>
            <Position>
              <LatitudeDegrees>43.9125156216323375701904296875</LatitudeDegrees>
              <LongitudeDegrees>-1.34882616810500621795654296875</LongitudeDegrees>
            </Position>
            <AltitudeMeters>27.200000762939453125</AltitudeMeters>
            <DistanceMeters>NAN</DistanceMeters>
          </Trackpoint>
          <Trackpoint>
            <Time>2022-07-06T14:50:59.000Z</Time>
            <Position>
              <LatitudeDegrees>43.912536911666393280029296875</LatitudeDegrees>
              <LongitudeDegrees>-1.34869189001619815826416015625</LongitudeDegrees>
            </Position>
            <AltitudeMeters>27.6000003814697265625</AltitudeMeters>
            <DistanceMeters>NAN</DistanceMeters>
          </Trackpoint>
          <Trackpoint>
            <Time>2022-07-06T14:51:05.000Z</Time>
            <Position>
              <LatitudeDegrees>43.912571109831333160400390625</LatitudeDegrees>
              <LongitudeDegrees>-1.34850396774709224700927734375</LongitudeDegrees>
            </Position>
            <AltitudeMeters>27.6000003814697265625</AltitudeMeters>
            <DistanceMeters>NAN</DistanceMeters>
          </Trackpoint>
          <Trackpoint>
            <Time>2022-07-06T14:51:06.000Z</Time>
            <Position>
              <LatitudeDegrees>43.912586532533168792724609375</LatitudeDegrees>
              <LongitudeDegrees>-1.34847580455243587493896484375</LongitudeDegrees>
            </Position>
            <AltitudeMeters>27.6000003814697265625</AltitudeMeters>
            <DistanceMeters>NAN</DistanceMeters>
          </Trackpoint>
          <Trackpoint>
            <Time>2022-07-06T14:51:12.000Z</Time>
            <Position>
              <LatitudeDegrees>43.912643529474735260009765625</LatitudeDegrees>
              <LongitudeDegrees>-1.34817405603826045989990234375</LongitudeDegrees>
            </Position>
            <AltitudeMeters>27.6000003814697265625</AltitudeMeters>
            <DistanceMeters>NAN</DistanceMeters>
          </Trackpoint>
          <Trackpoint>
            <Time>2022-07-06T14:51:15.000Z</Time>
            <Position>
              <LatitudeDegrees>43.91266808845102787017822265625</LatitudeDegrees>
              <LongitudeDegrees>-1.3480412028729915618896484375</LongitudeDegrees>
            </Position>
            <AltitudeMeters>27.3999996185302734375</AltitudeMeters>
            <DistanceMeters>NAN</DistanceMeters>
          </Trackpoint>
          <Trackpoint>
            <Time>2022-07-06T14:51:17.000Z</Time>
            <Position>
              <LatitudeDegrees>43.91266507096588611602783203125</LatitudeDegrees>
              <LongitudeDegrees>-1.34793098084628582000732421875</LongitudeDegrees>
            </Position>
            <AltitudeMeters>27.200000762939453125</AltitudeMeters>
            <DistanceMeters>NAN</DistanceMeters>
          </Trackpoint>
          <Trackpoint>
            <Time>2022-07-06T14:51:18.000Z</Time>
            <Position>
              <LatitudeDegrees>43.9126579463481903076171875</LatitudeDegrees>
              <LongitudeDegrees>-1.3478886522352695465087890625</LongitudeDegrees>
            </Position>
            <AltitudeMeters>27.200000762939453125</AltitudeMeters>
            <DistanceMeters>NAN</DistanceMeters>
          </Trackpoint>
          <Trackpoint>
            <Time>2022-07-06T14:51:20.000Z</Time>
            <Position>
              <LatitudeDegrees>43.91263984143733978271484375</LatitudeDegrees>
              <LongitudeDegrees>-1.3477930985391139984130859375</LongitudeDegrees>
            </Position>
            <AltitudeMeters>27</AltitudeMeters>
            <DistanceMeters>NAN</DistanceMeters>
          </Trackpoint>
          <Trackpoint>
            <Time>2022-07-06T14:51:24.000Z</Time>
            <Position>
              <LatitudeDegrees>43.91266523860394954681396484375</LatitudeDegrees>
              <LongitudeDegrees>-1.34757910855114459991455078125</LongitudeDegrees>
            </Position>
            <AltitudeMeters>27.200000762939453125</AltitudeMeters>
            <DistanceMeters>NAN</DistanceMeters>
          </Trackpoint>
          <Trackpoint>
            <Time>2022-07-06T14:51:30.000Z</Time>
            <Position>
              <LatitudeDegrees>43.9126742072403430938720703125</LatitudeDegrees>
              <LongitudeDegrees>-1.3473049364984035491943359375</LongitudeDegrees>
            </Position>
            <AltitudeMeters>27.799999237060546875</AltitudeMeters>
            <DistanceMeters>NAN</DistanceMeters>
          </Trackpoint>
          <Trackpoint>
            <Time>2022-07-06T14:51:36.000Z</Time>
            <Position>
              <LatitudeDegrees>43.9127358980476856231689453125</LatitudeDegrees>
              <LongitudeDegrees>-1.3470139168202877044677734375</LongitudeDegrees>
            </Position>
            <AltitudeMeters>28.200000762939453125</AltitudeMeters>
            <DistanceMeters>NAN</DistanceMeters>
          </Trackpoint>
          <Trackpoint>
            <Time>2022-07-06T14:51:38.000Z</Time>
            <Position>
              <LatitudeDegrees>43.91273614950478076934814453125</LatitudeDegrees>
              <LongitudeDegrees>-1.34691492654383182525634765625</LongitudeDegrees>
            </Position>
            <AltitudeMeters>28.200000762939453125</AltitudeMeters>
            <DistanceMeters>NAN</DistanceMeters>
          </Trackpoint>
          <Trackpoint>
            <Time>2022-07-06T14:51:43.000Z</Time>
            <Position>
              <LatitudeDegrees>43.9127436093986034393310546875</LatitudeDegrees>
              <LongitudeDegrees>-1.3467145152390003204345703125</LongitudeDegrees>
            </Position>
            <AltitudeMeters>28.3999996185302734375</AltitudeMeters>
            <DistanceMeters>NAN</DistanceMeters>
          </Trackpoint>
          <Trackpoint>
            <Time>2022-07-06T14:51:50.000Z</Time>
            <Position>
              <LatitudeDegrees>43.91277655027806758880615234375</LatitudeDegrees>
              <LongitudeDegrees>-1.34641997516155242919921875</LongitudeDegrees>
            </Position>
            <AltitudeMeters>29.200000762939453125</AltitudeMeters>
            <DistanceMeters>NAN</DistanceMeters>
          </Trackpoint>
          <Trackpoint>
            <Time>2022-07-06T14:51:51.000Z</Time>
            <Position>
              <LatitudeDegrees>43.9127744548022747039794921875</LatitudeDegrees>
              <LongitudeDegrees>-1.34638435207307338714599609375</LongitudeDegrees>
            </Position>
            <AltitudeMeters>29.200000762939453125</AltitudeMeters>
            <DistanceMeters>NAN</DistanceMeters>
          </Trackpoint>
          <Trackpoint>
            <Time>2022-07-06T14:51:54.000Z</Time>
            <Position>
              <LatitudeDegrees>43.9127838425338268280029296875</LatitudeDegrees>
              <LongitudeDegrees>-1.346241272985935211181640625</LongitudeDegrees>
            </Position>
            <AltitudeMeters>29.3999996185302734375</AltitudeMeters>
            <DistanceMeters>NAN</DistanceMeters>
          </Trackpoint>
          <Trackpoint>
            <Time>2022-07-06T14:51:55.000Z</Time>
            <Position>
              <LatitudeDegrees>43.9127905480563640594482421875</LatitudeDegrees>
              <LongitudeDegrees>-1.346195004880428314208984375</LongitudeDegrees>
            </Position>
            <AltitudeMeters>29.6000003814697265625</AltitudeMeters>
            <DistanceMeters>NAN</DistanceMeters>
          </Trackpoint>
          <Trackpoint>
            <Time>2022-07-06T14:51:57.000Z</Time>
            <Position>
              <LatitudeDegrees>43.91278778202831745147705078125</LatitudeDegrees>
              <LongitudeDegrees>-1.3461026363074779510498046875</LongitudeDegrees>
            </Position>
            <AltitudeMeters>29.6000003814697265625</AltitudeMeters>
            <DistanceMeters>NAN</DistanceMeters>
          </Trackpoint>
          <Trackpoint>
            <Time>2022-07-06T14:52:00.000Z</Time>
            <Position>
              <LatitudeDegrees>43.91280974261462688446044921875</LatitudeDegrees>
              <LongitudeDegrees>-1.34596936404705047607421875</LongitudeDegrees>
            </Position>
            <AltitudeMeters>29.799999237060546875</AltitudeMeters>
            <DistanceMeters>NAN</DistanceMeters>
          </Trackpoint>
          <Trackpoint>
            <Time>2022-07-06T14:52:04.000Z</Time>
            <Position>
              <LatitudeDegrees>43.912791050970554351806640625</LatitudeDegrees>
              <LongitudeDegrees>-1.345785297453403472900390625</LongitudeDegrees>
            </Position>
            <AltitudeMeters>30.200000762939453125</AltitudeMeters>
            <DistanceMeters>NAN</DistanceMeters>
          </Trackpoint>
          <Trackpoint>
            <Time>2022-07-06T14:52:06.000Z</Time>
            <Position>
              <LatitudeDegrees>43.9127798192203044891357421875</LatitudeDegrees>
              <LongitudeDegrees>-1.34573073126375675201416015625</LongitudeDegrees>
            </Position>
            <AltitudeMeters>30.200000762939453125</AltitudeMeters>
            <DistanceMeters>NAN</DistanceMeters>
          </Trackpoint>
          <Trackpoint>
            <Time>2022-07-06T14:52:09.000Z</Time>
            <Position>
              <LatitudeDegrees>43.91278040595352649688720703125</LatitudeDegrees>
              <LongitudeDegrees>-1.345639117062091827392578125</LongitudeDegrees>
            </Position>
            <AltitudeMeters>30.799999237060546875</AltitudeMeters>
            <DistanceMeters>NAN</DistanceMeters>
          </Trackpoint>
          <Trackpoint>
            <Time>2022-07-06T14:52:11.000Z</Time>
            <Position>
              <LatitudeDegrees>43.91278794966638088226318359375</LatitudeDegrees>
              <LongitudeDegrees>-1.345562674105167388916015625</LongitudeDegrees>
            </Position>
            <AltitudeMeters>31</AltitudeMeters>
            <DistanceMeters>NAN</DistanceMeters>
          </Trackpoint>
          <Trackpoint>
            <Time>2022-07-06T14:52:13.000Z</Time>
            <Position>
              <LatitudeDegrees>43.91279683448374271392822265625</LatitudeDegrees>
              <LongitudeDegrees>-1.3454746641218662261962890625</LongitudeDegrees>
            </Position>
            <AltitudeMeters>31.200000762939453125</AltitudeMeters>
            <DistanceMeters>NAN</DistanceMeters>
          </Trackpoint>
          <Trackpoint>
            <Time>2022-07-06T14:52:18.000Z</Time>
            <Position>
              <LatitudeDegrees>43.91280303709208965301513671875</LatitudeDegrees>
              <LongitudeDegrees>-1.34531758725643157958984375</LongitudeDegrees>
            </Position>
            <AltitudeMeters>31.799999237060546875</AltitudeMeters>
            <DistanceMeters>NAN</DistanceMeters>
          </Trackpoint>
          <Trackpoint>
            <Time>2022-07-06T14:52:22.000Z</Time>
            <Position>
              <LatitudeDegrees>43.91276816837489604949951171875</LatitudeDegrees>
              <LongitudeDegrees>-1.34520133025944232940673828125</LongitudeDegrees>
            </Position>
            <AltitudeMeters>32.200000762939453125</AltitudeMeters>
            <DistanceMeters>NAN</DistanceMeters>
          </Trackpoint>
          <Trackpoint>
            <Time>2022-07-06T14:52:23.000Z</Time>
            <Position>
              <LatitudeDegrees>43.912755511701107025146484375</LatitudeDegrees>
              <LongitudeDegrees>-1.34518674574792385101318359375</LongitudeDegrees>
            </Position>
            <AltitudeMeters>32.40000152587890625</AltitudeMeters>
            <DistanceMeters>NAN</DistanceMeters>
          </Trackpoint>
          <Trackpoint>
            <Time>2022-07-06T14:52:27.000Z</Time>
            <Position>
              <LatitudeDegrees>43.91275727190077304840087890625</LatitudeDegrees>
              <LongitudeDegrees>-1.3450904376804828643798828125</LongitudeDegrees>
            </Position>
            <AltitudeMeters>32.799999237060546875</AltitudeMeters>
            <DistanceMeters>NAN</DistanceMeters>
          </Trackpoint>
          <Trackpoint>
            <Time>2022-07-06T14:52:28.000Z</Time>
            <Position>
              <LatitudeDegrees>43.91275651752948760986328125</LatitudeDegrees>
              <LongitudeDegrees>-1.34506772272288799285888671875</LongitudeDegrees>
            </Position>
            <AltitudeMeters>33</AltitudeMeters>
            <DistanceMeters>NAN</DistanceMeters>
          </Trackpoint>
          <Trackpoint>
            <Time>2022-07-06T14:52:30.000Z</Time>
            <Position>
              <LatitudeDegrees>43.91274511814117431640625</LatitudeDegrees>
              <LongitudeDegrees>-1.3450176827609539031982421875</LongitudeDegrees>
            </Position>
            <AltitudeMeters>33.200000762939453125</AltitudeMeters>
            <DistanceMeters>NAN</DistanceMeters>
          </Trackpoint>
          <Trackpoint>
            <Time>2022-07-06T14:52:31.000Z</Time>
            <Position>
              <LatitudeDegrees>43.9127384126186370849609375</LatitudeDegrees>
              <LongitudeDegrees>-1.34498390369117259979248046875</LongitudeDegrees>
            </Position>
            <AltitudeMeters>33.200000762939453125</AltitudeMeters>
            <DistanceMeters>NAN</DistanceMeters>
          </Trackpoint>
          <Trackpoint>
            <Time>2022-07-06T14:52:33.000Z</Time>
            <Position>
              <LatitudeDegrees>43.91272542066872119903564453125</LatitudeDegrees>
              <LongitudeDegrees>-1.34493428282439708709716796875</LongitudeDegrees>
            </Position>
            <AltitudeMeters>33.40000152587890625</AltitudeMeters>
            <DistanceMeters>NAN</DistanceMeters>
          </Trackpoint>
          <Trackpoint>
            <Time>2022-07-06T14:52:40.000Z</Time>
            <Position>
              <LatitudeDegrees>43.91273011453449726104736328125</LatitudeDegrees>
              <LongitudeDegrees>-1.3447501324117183685302734375</LongitudeDegrees>
            </Position>
            <AltitudeMeters>34</AltitudeMeters>
            <DistanceMeters>NAN</DistanceMeters>
          </Trackpoint>
          <Trackpoint>
            <Time>2022-07-06T14:52:42.000Z</Time>
            <Position>
              <LatitudeDegrees>43.91272072680294513702392578125</LatitudeDegrees>
              <LongitudeDegrees>-1.34470344521105289459228515625</LongitudeDegrees>
            </Position>
            <AltitudeMeters>34.200000762939453125</AltitudeMeters>
            <DistanceMeters>NAN</DistanceMeters>
          </Trackpoint>
          <Trackpoint>
            <Time>2022-07-06T14:52:44.000Z</Time>
            <Position>
              <LatitudeDegrees>43.9127070643007755279541015625</LatitudeDegrees>
              <LongitudeDegrees>-1.344639994204044342041015625</LongitudeDegrees>
            </Position>
            <AltitudeMeters>34.59999847412109375</AltitudeMeters>
            <DistanceMeters>NAN</DistanceMeters>
          </Trackpoint>
          <Trackpoint>
            <Time>2022-07-06T14:52:46.000Z</Time>
            <Position>
              <LatitudeDegrees>43.91269885003566741943359375</LatitudeDegrees>
              <LongitudeDegrees>-1.34457268752157688140869140625</LongitudeDegrees>
            </Position>
            <AltitudeMeters>34.799999237060546875</AltitudeMeters>
            <DistanceMeters>NAN</DistanceMeters>
          </Trackpoint>
          <Trackpoint>
            <Time>2022-07-06T14:52:48.000Z</Time>
            <Position>
              <LatitudeDegrees>43.912696503102779388427734375</LatitudeDegrees>
              <LongitudeDegrees>-1.34452340193092823028564453125</LongitudeDegrees>
            </Position>
            <AltitudeMeters>35.200000762939453125</AltitudeMeters>
            <DistanceMeters>NAN</DistanceMeters>
          </Trackpoint>
          <Trackpoint>
            <Time>2022-07-06T14:52:51.000Z</Time>
            <Position>
              <LatitudeDegrees>43.91268267296254634857177734375</LatitudeDegrees>
              <LongitudeDegrees>-1.3444544188678264617919921875</LongitudeDegrees>
            </Position>
            <AltitudeMeters>35.40000152587890625</AltitudeMeters>
            <DistanceMeters>NAN</DistanceMeters>
          </Trackpoint>
          <Trackpoint>
            <Time>2022-07-06T14:52:52.000Z</Time>
            <Position>
              <LatitudeDegrees>43.9126832596957683563232421875</LatitudeDegrees>
              <LongitudeDegrees>-1.34443581104278564453125</LongitudeDegrees>
            </Position>
            <AltitudeMeters>35.40000152587890625</AltitudeMeters>
            <DistanceMeters>NAN</DistanceMeters>
          </Trackpoint>
          <Trackpoint>
            <Time>2022-07-06T14:52:55.000Z</Time>
            <Position>
              <LatitudeDegrees>43.91267026774585247039794921875</LatitudeDegrees>
              <LongitudeDegrees>-1.34437571279704570770263671875</LongitudeDegrees>
            </Position>
            <AltitudeMeters>36</AltitudeMeters>
            <DistanceMeters>NAN</DistanceMeters>
          </Trackpoint>
          <Trackpoint>
            <Time>2022-07-06T14:52:57.000Z</Time>
            <Position>
              <LatitudeDegrees>43.91266942955553531646728515625</LatitudeDegrees>
              <LongitudeDegrees>-1.34433363564312458038330078125</LongitudeDegrees>
            </Position>
            <AltitudeMeters>36.40000152587890625</AltitudeMeters>
            <DistanceMeters>NAN</DistanceMeters>
          </Trackpoint>
          <Trackpoint>
            <Time>2022-07-06T14:52:58.000Z</Time>
            <Position>
              <LatitudeDegrees>43.91267093829810619354248046875</LatitudeDegrees>
              <LongitudeDegrees>-1.3443089090287685394287109375</LongitudeDegrees>
            </Position>
            <AltitudeMeters>36.40000152587890625</AltitudeMeters>
            <DistanceMeters>NAN</DistanceMeters>
          </Trackpoint>
          <Trackpoint>
            <Time>2022-07-06T14:53:06.000Z</Time>
            <Position>
              <LatitudeDegrees>43.9126473851501941680908203125</LatitudeDegrees>
              <LongitudeDegrees>-1.34412341751158237457275390625</LongitudeDegrees>
            </Position>
            <AltitudeMeters>37</AltitudeMeters>
            <DistanceMeters>NAN</DistanceMeters>
          </Trackpoint>
          <Trackpoint>
            <Time>2022-07-06T14:53:12.000Z</Time>
            <Position>
              <LatitudeDegrees>43.91263405792415142059326171875</LatitudeDegrees>
              <LongitudeDegrees>-1.3439146243035793304443359375</LongitudeDegrees>
            </Position>
            <AltitudeMeters>37.40000152587890625</AltitudeMeters>
            <DistanceMeters>NAN</DistanceMeters>
          </Trackpoint>
          <Trackpoint>
            <Time>2022-07-06T14:53:18.000Z</Time>
            <Position>
              <LatitudeDegrees>43.9126165397465229034423828125</LatitudeDegrees>
              <LongitudeDegrees>-1.34366056881844997406005859375</LongitudeDegrees>
            </Position>
            <AltitudeMeters>37.799999237060546875</AltitudeMeters>
            <DistanceMeters>NAN</DistanceMeters>
          </Trackpoint>
          <Trackpoint>
            <Time>2022-07-06T14:53:21.000Z</Time>
            <Position>
              <LatitudeDegrees>43.912571780383586883544921875</LatitudeDegrees>
              <LongitudeDegrees>-1.3435521908104419708251953125</LongitudeDegrees>
            </Position>
            <AltitudeMeters>38</AltitudeMeters>
            <DistanceMeters>NAN</DistanceMeters>
          </Trackpoint>
          <Trackpoint>
            <Time>2022-07-06T14:53:25.000Z</Time>
            <Position>
              <LatitudeDegrees>43.912547640502452850341796875</LatitudeDegrees>
              <LongitudeDegrees>-1.3433838821947574615478515625</LongitudeDegrees>
            </Position>
            <AltitudeMeters>38.200000762939453125</AltitudeMeters>
            <DistanceMeters>NAN</DistanceMeters>
          </Trackpoint>
          <Trackpoint>
            <Time>2022-07-06T14:53:28.000Z</Time>
            <Position>
              <LatitudeDegrees>43.91253984533250331878662109375</LatitudeDegrees>
              <LongitudeDegrees>-1.34327483363449573516845703125</LongitudeDegrees>
            </Position>
            <AltitudeMeters>38.40000152587890625</AltitudeMeters>
            <DistanceMeters>NAN</DistanceMeters>
          </Trackpoint>
          <Trackpoint>
            <Time>2022-07-06T14:53:31.000Z</Time>
            <Position>
              <LatitudeDegrees>43.91249768435955047607421875</LatitudeDegrees>
              <LongitudeDegrees>-1.34315899573266506195068359375</LongitudeDegrees>
            </Position>
            <AltitudeMeters>38.40000152587890625</AltitudeMeters>
            <DistanceMeters>NAN</DistanceMeters>
          </Trackpoint>
          <Trackpoint>
            <Time>2022-07-06T14:53:38.000Z</Time>
            <Position>
              <LatitudeDegrees>43.91246491111814975738525390625</LatitudeDegrees>
              <LongitudeDegrees>-1.3428906910121440887451171875</LongitudeDegrees>
            </Position>
            <AltitudeMeters>38.799999237060546875</AltitudeMeters>
            <DistanceMeters>NAN</DistanceMeters>
          </Trackpoint>
          <Trackpoint>
            <Time>2022-07-06T14:53:39.000Z</Time>
            <Position>
              <LatitudeDegrees>43.91245619393885135650634765625</LatitudeDegrees>
              <LongitudeDegrees>-1.34285640902817249298095703125</LongitudeDegrees>
            </Position>
            <AltitudeMeters>38.799999237060546875</AltitudeMeters>
            <DistanceMeters>NAN</DistanceMeters>
          </Trackpoint>
          <Trackpoint>
            <Time>2022-07-06T14:53:46.000Z</Time>
            <Position>
              <LatitudeDegrees>43.9124031364917755126953125</LatitudeDegrees>
              <LongitudeDegrees>-1.3426105678081512451171875</LongitudeDegrees>
            </Position>
            <AltitudeMeters>39</AltitudeMeters>
            <DistanceMeters>NAN</DistanceMeters>
          </Trackpoint>
          <Trackpoint>
            <Time>2022-07-06T14:53:52.000Z</Time>
            <Position>
              <LatitudeDegrees>43.91237120144069194793701171875</LatitudeDegrees>
              <LongitudeDegrees>-1.34239397943019866943359375</LongitudeDegrees>
            </Position>
            <AltitudeMeters>39</AltitudeMeters>
            <DistanceMeters>NAN</DistanceMeters>
          </Trackpoint>
          <Trackpoint>
            <Time>2022-07-06T14:53:56.000Z</Time>
            <Position>
              <LatitudeDegrees>43.912320993840694427490234375</LatitudeDegrees>
              <LongitudeDegrees>-1.34227193892002105712890625</LongitudeDegrees>
            </Position>
            <AltitudeMeters>39.40000152587890625</AltitudeMeters>
            <DistanceMeters>NAN</DistanceMeters>
          </Trackpoint>
          <Trackpoint>
            <Time>2022-07-06T14:54:01.000Z</Time>
            <Position>
              <LatitudeDegrees>43.912259638309478759765625</LatitudeDegrees>
              <LongitudeDegrees>-1.34213657118380069732666015625</LongitudeDegrees>
            </Position>
            <AltitudeMeters>40</AltitudeMeters>
            <DistanceMeters>NAN</DistanceMeters>
          </Trackpoint>
          <Trackpoint>
            <Time>2022-07-06T14:54:05.000Z</Time>
            <Position>
              <LatitudeDegrees>43.91222954727709293365478515625</LatitudeDegrees>
              <LongitudeDegrees>-1.34202517569065093994140625</LongitudeDegrees>
            </Position>
            <AltitudeMeters>40.59999847412109375</AltitudeMeters>
            <DistanceMeters>NAN</DistanceMeters>
          </Trackpoint>
          <Trackpoint>
            <Time>2022-07-06T14:54:08.000Z</Time>
            <Position>
              <LatitudeDegrees>43.9122108556330204010009765625</LatitudeDegrees>
              <LongitudeDegrees>-1.3419344834983348846435546875</LongitudeDegrees>
            </Position>
            <AltitudeMeters>40.799999237060546875</AltitudeMeters>
            <DistanceMeters>NAN</DistanceMeters>
          </Trackpoint>
          <Trackpoint>
            <Time>2022-07-06T14:54:14.000Z</Time>
            <Position>
              <LatitudeDegrees>43.91217322088778018951416015625</LatitudeDegrees>
              <LongitudeDegrees>-1.34174488484859466552734375</LongitudeDegrees>
            </Position>
            <AltitudeMeters>41.200000762939453125</AltitudeMeters>
            <DistanceMeters>NAN</DistanceMeters>
          </Trackpoint>
          <Trackpoint>
            <Time>2022-07-06T14:54:15.000Z</Time>
            <Position>
              <LatitudeDegrees>43.91216509044170379638671875</LatitudeDegrees>
              <LongitudeDegrees>-1.34172074496746063232421875</LongitudeDegrees>
            </Position>
            <AltitudeMeters>41.40000152587890625</AltitudeMeters>
            <DistanceMeters>NAN</DistanceMeters>
          </Trackpoint>
          <Trackpoint>
            <Time>2022-07-06T14:54:16.000Z</Time>
            <Position>
              <LatitudeDegrees>43.91215109266340732574462890625</LatitudeDegrees>
              <LongitudeDegrees>-1.3416852056980133056640625</LongitudeDegrees>
            </Position>
            <AltitudeMeters>41.59999847412109375</AltitudeMeters>
            <DistanceMeters>NAN</DistanceMeters>
          </Trackpoint>
          <Trackpoint>
            <Time>2022-07-06T14:54:18.000Z</Time>
            <Position>
              <LatitudeDegrees>43.91214572824537754058837890625</LatitudeDegrees>
              <LongitudeDegrees>-1.34162812493741512298583984375</LongitudeDegrees>
            </Position>
            <AltitudeMeters>41.59999847412109375</AltitudeMeters>
            <DistanceMeters>NAN</DistanceMeters>
          </Trackpoint>
          <Trackpoint>
            <Time>2022-07-06T14:54:22.000Z</Time>
            <Position>
              <LatitudeDegrees>43.91212594695389270782470703125</LatitudeDegrees>
              <LongitudeDegrees>-1.34150608442723751068115234375</LongitudeDegrees>
            </Position>
            <AltitudeMeters>42</AltitudeMeters>
            <DistanceMeters>NAN</DistanceMeters>
          </Trackpoint>
          <Trackpoint>
            <Time>2022-07-06T14:54:28.000Z</Time>
            <Position>
              <LatitudeDegrees>43.91207523643970489501953125</LatitudeDegrees>
              <LongitudeDegrees>-1.34132285602390766143798828125</LongitudeDegrees>
            </Position>
            <AltitudeMeters>42.40000152587890625</AltitudeMeters>
            <DistanceMeters>NAN</DistanceMeters>
          </Trackpoint>
          <Trackpoint>
            <Time>2022-07-06T14:54:31.000Z</Time>
            <Position>
              <LatitudeDegrees>43.91204011626541614532470703125</LatitudeDegrees>
              <LongitudeDegrees>-1.34122847579419612884521484375</LongitudeDegrees>
            </Position>
            <AltitudeMeters>42.59999847412109375</AltitudeMeters>
            <DistanceMeters>NAN</DistanceMeters>
          </Trackpoint>
          <Trackpoint>
            <Time>2022-07-06T14:54:41.000Z</Time>
            <Position>
              <LatitudeDegrees>43.91195512376725673675537109375</LatitudeDegrees>
              <LongitudeDegrees>-1.3409360311925411224365234375</LongitudeDegrees>
            </Position>
            <AltitudeMeters>43.40000152587890625</AltitudeMeters>
            <DistanceMeters>NAN</DistanceMeters>
          </Trackpoint>
          <Trackpoint>
            <Time>2022-07-06T14:54:44.000Z</Time>
            <Position>
              <LatitudeDegrees>43.91192159615457057952880859375</LatitudeDegrees>
              <LongitudeDegrees>-1.34084257297217845916748046875</LongitudeDegrees>
            </Position>
            <AltitudeMeters>43.59999847412109375</AltitudeMeters>
            <DistanceMeters>NAN</DistanceMeters>
          </Trackpoint>
          <Trackpoint>
            <Time>2022-07-06T14:54:48.000Z</Time>
            <Position>
              <LatitudeDegrees>43.91186912544071674346923828125</LatitudeDegrees>
              <LongitudeDegrees>-1.34073964320123195648193359375</LongitudeDegrees>
            </Position>
            <AltitudeMeters>44</AltitudeMeters>
            <DistanceMeters>NAN</DistanceMeters>
          </Trackpoint>
          <Trackpoint>
            <Time>2022-07-06T14:54:51.000Z</Time>
            <Position>
              <LatitudeDegrees>43.9118319936096668243408203125</LatitudeDegrees>
              <LongitudeDegrees>-1.34066772647202014923095703125</LongitudeDegrees>
            </Position>
            <AltitudeMeters>44.40000152587890625</AltitudeMeters>
            <DistanceMeters>NAN</DistanceMeters>
          </Trackpoint>
          <Trackpoint>
            <Time>2022-07-06T14:54:54.000Z</Time>
            <Position>
              <LatitudeDegrees>43.911795280873775482177734375</LatitudeDegrees>
              <LongitudeDegrees>-1.34059346280992031097412109375</LongitudeDegrees>
            </Position>
            <AltitudeMeters>44.59999847412109375</AltitudeMeters>
            <DistanceMeters>NAN</DistanceMeters>
          </Trackpoint>
          <Trackpoint>
            <Time>2022-07-06T14:55:03.000Z</Time>
            <Position>
              <LatitudeDegrees>43.9116864837706089019775390625</LatitudeDegrees>
              <LongitudeDegrees>-1.340378634631633758544921875</LongitudeDegrees>
            </Position>
            <AltitudeMeters>45.200000762939453125</AltitudeMeters>
            <DistanceMeters>NAN</DistanceMeters>
          </Trackpoint>
          <Trackpoint>
            <Time>2022-07-06T14:55:12.000Z</Time>
            <Position>
              <LatitudeDegrees>43.91158263199031352996826171875</LatitudeDegrees>
              <LongitudeDegrees>-1.3400552608072757720947265625</LongitudeDegrees>
            </Position>
            <AltitudeMeters>44.799999237060546875</AltitudeMeters>
            <DistanceMeters>NAN</DistanceMeters>
          </Trackpoint>
          <Trackpoint>
            <Time>2022-07-06T14:55:15.000Z</Time>
            <Position>
              <LatitudeDegrees>43.91155094839632511138916015625</LatitudeDegrees>
              <LongitudeDegrees>-1.33987345732748508453369140625</LongitudeDegrees>
            </Position>
            <AltitudeMeters>44.59999847412109375</AltitudeMeters>
            <DistanceMeters>NAN</DistanceMeters>
          </Trackpoint>
          <Trackpoint>
            <Time>2022-07-06T14:55:17.000Z</Time>
            <Position>
              <LatitudeDegrees>43.9115429855883121490478515625</LatitudeDegrees>
              <LongitudeDegrees>-1.339706070721149444580078125</LongitudeDegrees>
            </Position>
            <AltitudeMeters>44.40000152587890625</AltitudeMeters>
            <DistanceMeters>NAN</DistanceMeters>
          </Trackpoint>
          <Trackpoint>
            <Time>2022-07-06T14:55:20.000Z</Time>
            <Position>
              <LatitudeDegrees>43.91155262477695941925048828125</LatitudeDegrees>
              <LongitudeDegrees>-1.33947313763201236724853515625</LongitudeDegrees>
            </Position>
            <AltitudeMeters>43.59999847412109375</AltitudeMeters>
            <DistanceMeters>NAN</DistanceMeters>
          </Trackpoint>
          <Trackpoint>
            <Time>2022-07-06T14:55:23.000Z</Time>
            <Position>
              <LatitudeDegrees>43.9115788601338863372802734375</LatitudeDegrees>
              <LongitudeDegrees>-1.3391751609742641448974609375</LongitudeDegrees>
            </Position>
            <AltitudeMeters>42.799999237060546875</AltitudeMeters>
            <DistanceMeters>NAN</DistanceMeters>
          </Trackpoint>
          <Trackpoint>
            <Time>2022-07-06T14:55:27.000Z</Time>
            <Position>
              <LatitudeDegrees>43.91161934472620487213134765625</LatitudeDegrees>
              <LongitudeDegrees>-1.33880627341568470001220703125</LongitudeDegrees>
            </Position>
            <AltitudeMeters>42.200000762939453125</AltitudeMeters>
            <DistanceMeters>NAN</DistanceMeters>
          </Trackpoint>
          <Trackpoint>
            <Time>2022-07-06T14:55:29.000Z</Time>
            <Position>
              <LatitudeDegrees>43.91164884902536869049072265625</LatitudeDegrees>
              <LongitudeDegrees>-1.33863578550517559051513671875</LongitudeDegrees>
            </Position>
            <AltitudeMeters>42</AltitudeMeters>
            <DistanceMeters>NAN</DistanceMeters>
          </Trackpoint>
          <Trackpoint>
            <Time>2022-07-06T14:55:30.000Z</Time>
            <Position>
              <LatitudeDegrees>43.91167047433555126190185546875</LatitudeDegrees>
              <LongitudeDegrees>-1.33854811079800128936767578125</LongitudeDegrees>
            </Position>
            <AltitudeMeters>41.799999237060546875</AltitudeMeters>
            <DistanceMeters>NAN</DistanceMeters>
          </Trackpoint>
          <Trackpoint>
            <Time>2022-07-06T14:55:31.000Z</Time>
            <Position>
              <LatitudeDegrees>43.91169168055057525634765625</LatitudeDegrees>
              <LongitudeDegrees>-1.33847082965075969696044921875</LongitudeDegrees>
            </Position>
            <AltitudeMeters>41.799999237060546875</AltitudeMeters>
            <DistanceMeters>NAN</DistanceMeters>
          </Trackpoint>
          <Trackpoint>
            <Time>2022-07-06T14:55:33.000Z</Time>
            <Position>
              <LatitudeDegrees>43.91172579489648342132568359375</LatitudeDegrees>
              <LongitudeDegrees>-1.3383376412093639373779296875</LongitudeDegrees>
            </Position>
            <AltitudeMeters>41.799999237060546875</AltitudeMeters>
            <DistanceMeters>NAN</DistanceMeters>
          </Trackpoint>
          <Trackpoint>
            <Time>2022-07-06T14:55:34.000Z</Time>
            <Position>
              <LatitudeDegrees>43.9117397926747798919677734375</LatitudeDegrees>
              <LongitudeDegrees>-1.33827754296362400054931640625</LongitudeDegrees>
            </Position>
            <AltitudeMeters>41.799999237060546875</AltitudeMeters>
            <DistanceMeters>NAN</DistanceMeters>
          </Trackpoint>
          <Trackpoint>
            <Time>2022-07-06T14:55:36.000Z</Time>
            <Position>
              <LatitudeDegrees>43.91177709214389324188232421875</LatitudeDegrees>
              <LongitudeDegrees>-1.3381656445562839508056640625</LongitudeDegrees>
            </Position>
            <AltitudeMeters>42</AltitudeMeters>
            <DistanceMeters>NAN</DistanceMeters>
          </Trackpoint>
          <Trackpoint>
            <Time>2022-07-06T14:55:37.000Z</Time>
            <Position>
              <LatitudeDegrees>43.91179586760699748992919921875</LatitudeDegrees>
              <LongitudeDegrees>-1.33811593987047672271728515625</LongitudeDegrees>
            </Position>
            <AltitudeMeters>42</AltitudeMeters>
            <DistanceMeters>NAN</DistanceMeters>
          </Trackpoint>
          <Trackpoint>
            <Time>2022-07-06T14:55:39.000Z</Time>
            <Position>
              <LatitudeDegrees>43.91182889230549335479736328125</LatitudeDegrees>
              <LongitudeDegrees>-1.3380130939185619354248046875</LongitudeDegrees>
            </Position>
            <AltitudeMeters>42.200000762939453125</AltitudeMeters>
            <DistanceMeters>NAN</DistanceMeters>
          </Trackpoint>
          <Trackpoint>
            <Time>2022-07-06T14:55:40.000Z</Time>
            <Position>
              <LatitudeDegrees>43.91184632666409015655517578125</LatitudeDegrees>
              <LongitudeDegrees>-1.33796162903308868408203125</LongitudeDegrees>
            </Position>
            <AltitudeMeters>42.200000762939453125</AltitudeMeters>
            <DistanceMeters>NAN</DistanceMeters>
          </Trackpoint>
          <Trackpoint>
            <Time>2022-07-06T14:55:47.000Z</Time>
            <Position>
              <LatitudeDegrees>43.91197054646909236907958984375</LatitudeDegrees>
              <LongitudeDegrees>-1.337609589099884033203125</LongitudeDegrees>
            </Position>
            <AltitudeMeters>42.799999237060546875</AltitudeMeters>
            <DistanceMeters>NAN</DistanceMeters>
          </Trackpoint>
          <Trackpoint>
            <Time>2022-07-06T14:55:52.000Z</Time>
            <Position>
              <LatitudeDegrees>43.91208236105740070343017578125</LatitudeDegrees>
              <LongitudeDegrees>-1.33727096021175384521484375</LongitudeDegrees>
            </Position>
            <AltitudeMeters>42.40000152587890625</AltitudeMeters>
            <DistanceMeters>NAN</DistanceMeters>
          </Trackpoint>
          <Trackpoint>
            <Time>2022-07-06T14:55:56.000Z</Time>
            <Position>
              <LatitudeDegrees>43.91217523254454135894775390625</LatitudeDegrees>
              <LongitudeDegrees>-1.33696694858372211456298828125</LongitudeDegrees>
            </Position>
            <AltitudeMeters>42.200000762939453125</AltitudeMeters>
            <DistanceMeters>NAN</DistanceMeters>
          </Trackpoint>
          <Trackpoint>
            <Time>2022-07-06T14:55:57.000Z</Time>
            <Position>
              <LatitudeDegrees>43.91219685785472393035888671875</LatitudeDegrees>
              <LongitudeDegrees>-1.33687290363013744354248046875</LongitudeDegrees>
            </Position>
            <AltitudeMeters>41.799999237060546875</AltitudeMeters>
            <DistanceMeters>NAN</DistanceMeters>
          </Trackpoint>
          <Trackpoint>
            <Time>2022-07-06T14:55:58.000Z</Time>
            <Position>
              <LatitudeDegrees>43.91220867633819580078125</LatitudeDegrees>
              <LongitudeDegrees>-1.33677600882947444915771484375</LongitudeDegrees>
            </Position>
            <AltitudeMeters>41.59999847412109375</AltitudeMeters>
            <DistanceMeters>NAN</DistanceMeters>
          </Trackpoint>
          <Trackpoint>
            <Time>2022-07-06T14:55:59.000Z</Time>
            <Position>
              <LatitudeDegrees>43.9122088439762592315673828125</LatitudeDegrees>
              <LongitudeDegrees>-1.3366802036762237548828125</LongitudeDegrees>
            </Position>
            <AltitudeMeters>41.200000762939453125</AltitudeMeters>
            <DistanceMeters>NAN</DistanceMeters>
          </Trackpoint>
          <Trackpoint>
            <Time>2022-07-06T14:56:02.000Z</Time>
            <Position>
              <LatitudeDegrees>43.9122205786406993865966796875</LatitudeDegrees>
              <LongitudeDegrees>-1.33639865554869174957275390625</LongitudeDegrees>
            </Position>
            <AltitudeMeters>40.799999237060546875</AltitudeMeters>
            <DistanceMeters>NAN</DistanceMeters>
          </Trackpoint>
          <Trackpoint>
            <Time>2022-07-06T14:56:04.000Z</Time>
            <Position>
              <LatitudeDegrees>43.91223994083702564239501953125</LatitudeDegrees>
              <LongitudeDegrees>-1.33621559478342533111572265625</LongitudeDegrees>
            </Position>
            <AltitudeMeters>40.40000152587890625</AltitudeMeters>
            <DistanceMeters>NAN</DistanceMeters>
          </Trackpoint>
          <Trackpoint>
            <Time>2022-07-06T14:56:08.000Z</Time>
            <Position>
              <LatitudeDegrees>43.91226491890847682952880859375</LatitudeDegrees>
              <LongitudeDegrees>-1.335855424404144287109375</LongitudeDegrees>
            </Position>
            <AltitudeMeters>40.40000152587890625</AltitudeMeters>
            <DistanceMeters>NAN</DistanceMeters>
          </Trackpoint>
          <Trackpoint>
            <Time>2022-07-06T14:56:09.000Z</Time>
            <Position>
              <LatitudeDegrees>43.91226072795689105987548828125</LatitudeDegrees>
              <LongitudeDegrees>-1.335757188498973846435546875</LongitudeDegrees>
            </Position>
            <AltitudeMeters>40.40000152587890625</AltitudeMeters>
            <DistanceMeters>NAN</DistanceMeters>
          </Trackpoint>
          <Trackpoint>
            <Time>2022-07-06T14:56:10.000Z</Time>
            <Position>
              <LatitudeDegrees>43.9122561179101467132568359375</LatitudeDegrees>
              <LongitudeDegrees>-1.33565224707126617431640625</LongitudeDegrees>
            </Position>
            <AltitudeMeters>40.200000762939453125</AltitudeMeters>
            <DistanceMeters>NAN</DistanceMeters>
          </Trackpoint>
          <Trackpoint>
            <Time>2022-07-06T14:56:12.000Z</Time>
            <Position>
              <LatitudeDegrees>43.91225402243435382843017578125</LatitudeDegrees>
              <LongitudeDegrees>-1.33544479496777057647705078125</LongitudeDegrees>
            </Position>
            <AltitudeMeters>39.799999237060546875</AltitudeMeters>
            <DistanceMeters>NAN</DistanceMeters>
          </Trackpoint>
          <Trackpoint>
            <Time>2022-07-06T14:56:14.000Z</Time>
            <Position>
              <LatitudeDegrees>43.91225628554821014404296875</LatitudeDegrees>
              <LongitudeDegrees>-1.33524681441485881805419921875</LongitudeDegrees>
            </Position>
            <AltitudeMeters>39.200000762939453125</AltitudeMeters>
            <DistanceMeters>NAN</DistanceMeters>
          </Trackpoint>
          <Trackpoint>
            <Time>2022-07-06T14:56:16.000Z</Time>
            <Position>
              <LatitudeDegrees>43.91225838102400302886962890625</LatitudeDegrees>
              <LongitudeDegrees>-1.335067190229892730712890625</LongitudeDegrees>
            </Position>
            <AltitudeMeters>38.799999237060546875</AltitudeMeters>
            <DistanceMeters>NAN</DistanceMeters>
          </Trackpoint>
          <Trackpoint>
            <Time>2022-07-06T14:56:17.000Z</Time>
            <Position>
              <LatitudeDegrees>43.91225771047174930572509765625</LatitudeDegrees>
              <LongitudeDegrees>-1.334971301257610321044921875</LongitudeDegrees>
            </Position>
            <AltitudeMeters>38.799999237060546875</AltitudeMeters>
            <DistanceMeters>NAN</DistanceMeters>
          </Trackpoint>
          <Trackpoint>
            <Time>2022-07-06T14:56:24.000Z</Time>
            <Position>
              <LatitudeDegrees>43.91222736798226833343505859375</LatitudeDegrees>
              <LongitudeDegrees>-1.3344303332269191741943359375</LongitudeDegrees>
            </Position>
            <AltitudeMeters>39</AltitudeMeters>
            <DistanceMeters>NAN</DistanceMeters>
          </Trackpoint>
          <Trackpoint>
            <Time>2022-07-06T14:56:26.000Z</Time>
            <Position>
              <LatitudeDegrees>43.9122153818607330322265625</LatitudeDegrees>
              <LongitudeDegrees>-1.33428960107266902923583984375</LongitudeDegrees>
            </Position>
            <AltitudeMeters>38.799999237060546875</AltitudeMeters>
            <DistanceMeters>NAN</DistanceMeters>
          </Trackpoint>
          <Trackpoint>
            <Time>2022-07-06T14:56:29.000Z</Time>
            <Position>
              <LatitudeDegrees>43.91222141683101654052734375</LatitudeDegrees>
              <LongitudeDegrees>-1.33411224000155925750732421875</LongitudeDegrees>
            </Position>
            <AltitudeMeters>39.200000762939453125</AltitudeMeters>
            <DistanceMeters>NAN</DistanceMeters>
          </Trackpoint>
          <Trackpoint>
            <Time>2022-07-06T14:56:36.000Z</Time>
            <Position>
              <LatitudeDegrees>43.91224865801632404327392578125</LatitudeDegrees>
              <LongitudeDegrees>-1.33361108601093292236328125</LongitudeDegrees>
            </Position>
            <AltitudeMeters>38.799999237060546875</AltitudeMeters>
            <DistanceMeters>NAN</DistanceMeters>
          </Trackpoint>
          <Trackpoint>
            <Time>2022-07-06T14:56:40.000Z</Time>
            <Position>
              <LatitudeDegrees>43.91227128915488719940185546875</LatitudeDegrees>
              <LongitudeDegrees>-1.3332967646420001983642578125</LongitudeDegrees>
            </Position>
            <AltitudeMeters>38.200000762939453125</AltitudeMeters>
            <DistanceMeters>NAN</DistanceMeters>
          </Trackpoint>
          <Trackpoint>
            <Time>2022-07-06T14:56:43.000Z</Time>
            <Position>
              <LatitudeDegrees>43.91230523586273193359375</LatitudeDegrees>
              <LongitudeDegrees>-1.33303851820528507232666015625</LongitudeDegrees>
            </Position>
            <AltitudeMeters>37.799999237060546875</AltitudeMeters>
            <DistanceMeters>NAN</DistanceMeters>
          </Trackpoint>
          <Trackpoint>
            <Time>2022-07-06T14:56:44.000Z</Time>
            <Position>
              <LatitudeDegrees>43.91232308931648731231689453125</LatitudeDegrees>
              <LongitudeDegrees>-1.33296467363834381103515625</LongitudeDegrees>
            </Position>
            <AltitudeMeters>37.799999237060546875</AltitudeMeters>
            <DistanceMeters>NAN</DistanceMeters>
          </Trackpoint>
          <Trackpoint>
            <Time>2022-07-06T14:56:47.000Z</Time>
            <Position>
              <LatitudeDegrees>43.91241252422332763671875</LatitudeDegrees>
              <LongitudeDegrees>-1.332745067775249481201171875</LongitudeDegrees>
            </Position>
            <AltitudeMeters>37.799999237060546875</AltitudeMeters>
            <DistanceMeters>NAN</DistanceMeters>
          </Trackpoint>
          <Trackpoint>
            <Time>2022-07-06T14:56:50.000Z</Time>
            <Position>
              <LatitudeDegrees>43.91249927692115306854248046875</LatitudeDegrees>
              <LongitudeDegrees>-1.33249956183135509490966796875</LongitudeDegrees>
            </Position>
            <AltitudeMeters>37.40000152587890625</AltitudeMeters>
            <DistanceMeters>NAN</DistanceMeters>
          </Trackpoint>
          <Trackpoint>
            <Time>2022-07-06T14:56:51.000Z</Time>
            <Position>
              <LatitudeDegrees>43.91251386143267154693603515625</LatitudeDegrees>
              <LongitudeDegrees>-1.3324190117418766021728515625</LongitudeDegrees>
            </Position>
            <AltitudeMeters>36.799999237060546875</AltitudeMeters>
            <DistanceMeters>NAN</DistanceMeters>
          </Trackpoint>
          <Trackpoint>
            <Time>2022-07-06T14:56:52.000Z</Time>
            <Position>
              <LatitudeDegrees>43.9125193096697330474853515625</LatitudeDegrees>
              <LongitudeDegrees>-1.3323133997619152069091796875</LongitudeDegrees>
            </Position>
            <AltitudeMeters>36.59999847412109375</AltitudeMeters>
            <DistanceMeters>NAN</DistanceMeters>
          </Trackpoint>
          <Trackpoint>
            <Time>2022-07-06T14:56:54.000Z</Time>
            <Position>
              <LatitudeDegrees>43.912495672702789306640625</LatitudeDegrees>
              <LongitudeDegrees>-1.3320911116898059844970703125</LongitudeDegrees>
            </Position>
            <AltitudeMeters>35.799999237060546875</AltitudeMeters>
            <DistanceMeters>NAN</DistanceMeters>
          </Trackpoint>
          <Trackpoint>
            <Time>2022-07-06T14:56:55.000Z</Time>
            <Position>
              <LatitudeDegrees>43.9124728739261627197265625</LatitudeDegrees>
              <LongitudeDegrees>-1.331971921026706695556640625</LongitudeDegrees>
            </Position>
            <AltitudeMeters>35.59999847412109375</AltitudeMeters>
            <DistanceMeters>NAN</DistanceMeters>
          </Trackpoint>
          <Trackpoint>
            <Time>2022-07-06T14:56:56.000Z</Time>
            <Position>
              <LatitudeDegrees>43.9124371670186519622802734375</LatitudeDegrees>
              <LongitudeDegrees>-1.3318497128784656524658203125</LongitudeDegrees>
            </Position>
            <AltitudeMeters>35.200000762939453125</AltitudeMeters>
            <DistanceMeters>NAN</DistanceMeters>
          </Trackpoint>
          <Trackpoint>
            <Time>2022-07-06T14:56:57.000Z</Time>
            <Position>
              <LatitudeDegrees>43.91239735297858715057373046875</LatitudeDegrees>
              <LongitudeDegrees>-1.33172306232154369354248046875</LongitudeDegrees>
            </Position>
            <AltitudeMeters>34.200000762939453125</AltitudeMeters>
            <DistanceMeters>NAN</DistanceMeters>
          </Trackpoint>
          <Trackpoint>
            <Time>2022-07-06T14:56:59.000Z</Time>
            <Position>
              <LatitudeDegrees>43.91231940127909183502197265625</LatitudeDegrees>
              <LongitudeDegrees>-1.33145567961037158966064453125</LongitudeDegrees>
            </Position>
            <AltitudeMeters>33</AltitudeMeters>
            <DistanceMeters>NAN</DistanceMeters>
          </Trackpoint>
          <Trackpoint>
            <Time>2022-07-06T14:57:01.000Z</Time>
            <Position>
              <LatitudeDegrees>43.91224781982600688934326171875</LatitudeDegrees>
              <LongitudeDegrees>-1.33114353753626346588134765625</LongitudeDegrees>
            </Position>
            <AltitudeMeters>31.3999996185302734375</AltitudeMeters>
            <DistanceMeters>NAN</DistanceMeters>
          </Trackpoint>
          <Trackpoint>
            <Time>2022-07-06T14:57:03.000Z</Time>
            <Position>
              <LatitudeDegrees>43.91219970770180225372314453125</LatitudeDegrees>
              <LongitudeDegrees>-1.33088596165180206298828125</LongitudeDegrees>
            </Position>
            <AltitudeMeters>29.799999237060546875</AltitudeMeters>
            <DistanceMeters>NAN</DistanceMeters>
          </Trackpoint>
          <Trackpoint>
            <Time>2022-07-06T14:57:04.000Z</Time>
            <Position>
              <LatitudeDegrees>43.9121910743415355682373046875</LatitudeDegrees>
              <LongitudeDegrees>-1.33073952980339527130126953125</LongitudeDegrees>
            </Position>
            <AltitudeMeters>28.799999237060546875</AltitudeMeters>
            <DistanceMeters>NAN</DistanceMeters>
          </Trackpoint>
          <Trackpoint>
            <Time>2022-07-06T14:57:05.000Z</Time>
            <Position>
              <LatitudeDegrees>43.9121907390654087066650390625</LatitudeDegrees>
              <LongitudeDegrees>-1.33059536106884479522705078125</LongitudeDegrees>
            </Position>
            <AltitudeMeters>28</AltitudeMeters>
            <DistanceMeters>NAN</DistanceMeters>
          </Trackpoint>
          <Trackpoint>
            <Time>2022-07-06T14:57:06.000Z</Time>
            <Position>
              <LatitudeDegrees>43.91219467855989933013916015625</LatitudeDegrees>
              <LongitudeDegrees>-1.3304512761533260345458984375</LongitudeDegrees>
            </Position>
            <AltitudeMeters>27.200000762939453125</AltitudeMeters>
            <DistanceMeters>NAN</DistanceMeters>
          </Trackpoint>
          <Trackpoint>
            <Time>2022-07-06T14:57:07.000Z</Time>
            <Position>
              <LatitudeDegrees>43.9122054912149906158447265625</LatitudeDegrees>
              <LongitudeDegrees>-1.330313980579376220703125</LongitudeDegrees>
            </Position>
            <AltitudeMeters>26</AltitudeMeters>
            <DistanceMeters>NAN</DistanceMeters>
          </Trackpoint>
          <Trackpoint>
            <Time>2022-07-06T14:57:09.000Z</Time>
            <Position>
              <LatitudeDegrees>43.912231139838695526123046875</LatitudeDegrees>
              <LongitudeDegrees>-1.33004701696336269378662109375</LongitudeDegrees>
            </Position>
            <AltitudeMeters>24.799999237060546875</AltitudeMeters>
            <DistanceMeters>NAN</DistanceMeters>
          </Trackpoint>
          <Trackpoint>
            <Time>2022-07-06T14:57:10.000Z</Time>
            <Position>
              <LatitudeDegrees>43.9122356660664081573486328125</LatitudeDegrees>
              <LongitudeDegrees>-1.32991659455001354217529296875</LongitudeDegrees>
            </Position>
            <AltitudeMeters>24</AltitudeMeters>
            <DistanceMeters>NAN</DistanceMeters>
          </Trackpoint>
          <Trackpoint>
            <Time>2022-07-06T14:57:11.000Z</Time>
            <Position>
              <LatitudeDegrees>43.91223642043769359588623046875</LatitudeDegrees>
              <LongitudeDegrees>-1.3297904469072818756103515625</LongitudeDegrees>
            </Position>
            <AltitudeMeters>23.3999996185302734375</AltitudeMeters>
            <DistanceMeters>NAN</DistanceMeters>
          </Trackpoint>
          <Trackpoint>
            <Time>2022-07-06T14:57:15.000Z</Time>
            <Position>
              <LatitudeDegrees>43.9122054912149906158447265625</LatitudeDegrees>
              <LongitudeDegrees>-1.32930723018944263458251953125</LongitudeDegrees>
            </Position>
            <AltitudeMeters>22.3999996185302734375</AltitudeMeters>
            <DistanceMeters>NAN</DistanceMeters>
          </Trackpoint>
          <Trackpoint>
            <Time>2022-07-06T14:57:20.000Z</Time>
            <Position>
              <LatitudeDegrees>43.9121511764824390411376953125</LatitudeDegrees>
              <LongitudeDegrees>-1.3287598080933094024658203125</LongitudeDegrees>
            </Position>
            <AltitudeMeters>21.799999237060546875</AltitudeMeters>
            <DistanceMeters>NAN</DistanceMeters>
          </Trackpoint>
          <Trackpoint>
            <Time>2022-07-06T14:57:24.000Z</Time>
            <Position>
              <LatitudeDegrees>43.912111110985279083251953125</LatitudeDegrees>
              <LongitudeDegrees>-1.32838069461286067962646484375</LongitudeDegrees>
            </Position>
            <AltitudeMeters>22.200000762939453125</AltitudeMeters>
            <DistanceMeters>NAN</DistanceMeters>
          </Trackpoint>
          <Trackpoint>
            <Time>2022-07-06T14:57:25.000Z</Time>
            <Position>
              <LatitudeDegrees>43.9121045731008052825927734375</LatitudeDegrees>
              <LongitudeDegrees>-1.32827625609934329986572265625</LongitudeDegrees>
            </Position>
            <AltitudeMeters>22.200000762939453125</AltitudeMeters>
            <DistanceMeters>NAN</DistanceMeters>
          </Trackpoint>
          <Trackpoint>
            <Time>2022-07-06T14:57:31.000Z</Time>
            <Position>
              <LatitudeDegrees>43.9120603166520595550537109375</LatitudeDegrees>
              <LongitudeDegrees>-1.32781491614878177642822265625</LongitudeDegrees>
            </Position>
            <AltitudeMeters>22.200000762939453125</AltitudeMeters>
            <DistanceMeters>NAN</DistanceMeters>
          </Trackpoint>
          <Trackpoint>
            <Time>2022-07-06T14:57:33.000Z</Time>
            <Position>
              <LatitudeDegrees>43.91204749234020709991455078125</LatitudeDegrees>
              <LongitudeDegrees>-1.327668316662311553955078125</LongitudeDegrees>
            </Position>
            <AltitudeMeters>22.200000762939453125</AltitudeMeters>
            <DistanceMeters>NAN</DistanceMeters>
          </Trackpoint>
          <Trackpoint>
            <Time>2022-07-06T14:57:37.000Z</Time>
            <Position>
              <LatitudeDegrees>43.91205671243369579315185546875</LatitudeDegrees>
              <LongitudeDegrees>-1.32736547850072383880615234375</LongitudeDegrees>
            </Position>
            <AltitudeMeters>21.799999237060546875</AltitudeMeters>
            <DistanceMeters>NAN</DistanceMeters>
          </Trackpoint>
          <Trackpoint>
            <Time>2022-07-06T14:57:38.000Z</Time>
            <Position>
              <LatitudeDegrees>43.91206559725105762481689453125</LatitudeDegrees>
              <LongitudeDegrees>-1.32729054428637027740478515625</LongitudeDegrees>
            </Position>
            <AltitudeMeters>21.799999237060546875</AltitudeMeters>
            <DistanceMeters>NAN</DistanceMeters>
          </Trackpoint>
          <Trackpoint>
            <Time>2022-07-06T14:57:43.000Z</Time>
            <Position>
              <LatitudeDegrees>43.912141621112823486328125</LatitudeDegrees>
              <LongitudeDegrees>-1.3269706070423126220703125</LongitudeDegrees>
            </Position>
            <AltitudeMeters>21.6000003814697265625</AltitudeMeters>
            <DistanceMeters>NAN</DistanceMeters>
          </Trackpoint>
          <Trackpoint>
            <Time>2022-07-06T14:57:44.000Z</Time>
            <Position>
              <LatitudeDegrees>43.912164084613323211669921875</LatitudeDegrees>
              <LongitudeDegrees>-1.32690916769206523895263671875</LongitudeDegrees>
            </Position>
            <AltitudeMeters>21.799999237060546875</AltitudeMeters>
            <DistanceMeters>NAN</DistanceMeters>
          </Trackpoint>
          <Trackpoint>
            <Time>2022-07-06T14:57:48.000Z</Time>
            <Position>
              <LatitudeDegrees>43.91225385479629039764404296875</LatitudeDegrees>
              <LongitudeDegrees>-1.326698698103427886962890625</LongitudeDegrees>
            </Position>
            <AltitudeMeters>21.799999237060546875</AltitudeMeters>
            <DistanceMeters>NAN</DistanceMeters>
          </Trackpoint>
          <Trackpoint>
            <Time>2022-07-06T14:57:50.000Z</Time>
            <Position>
              <LatitudeDegrees>43.91231286339461803436279296875</LatitudeDegrees>
              <LongitudeDegrees>-1.32657288573682308197021484375</LongitudeDegrees>
            </Position>
            <AltitudeMeters>21.799999237060546875</AltitudeMeters>
            <DistanceMeters>NAN</DistanceMeters>
          </Trackpoint>
          <Trackpoint>
            <Time>2022-07-06T14:57:53.000Z</Time>
            <Position>
              <LatitudeDegrees>43.9123888872563838958740234375</LatitudeDegrees>
              <LongitudeDegrees>-1.32639862596988677978515625</LongitudeDegrees>
            </Position>
            <AltitudeMeters>21.799999237060546875</AltitudeMeters>
            <DistanceMeters>NAN</DistanceMeters>
          </Trackpoint>
          <Trackpoint>
            <Time>2022-07-06T14:57:54.000Z</Time>
            <Position>
              <LatitudeDegrees>43.91241679899394512176513671875</LatitudeDegrees>
              <LongitudeDegrees>-1.32634171284735202789306640625</LongitudeDegrees>
            </Position>
            <AltitudeMeters>21.799999237060546875</AltitudeMeters>
            <DistanceMeters>NAN</DistanceMeters>
          </Trackpoint>
          <Trackpoint>
            <Time>2022-07-06T14:57:55.000Z</Time>
            <Position>
              <LatitudeDegrees>43.9124391786754131317138671875</LatitudeDegrees>
              <LongitudeDegrees>-1.3262839615345001220703125</LongitudeDegrees>
            </Position>
            <AltitudeMeters>21.799999237060546875</AltitudeMeters>
            <DistanceMeters>NAN</DistanceMeters>
          </Trackpoint>
          <Trackpoint>
            <Time>2022-07-06T14:57:59.000Z</Time>
            <Position>
              <LatitudeDegrees>43.91249391250312328338623046875</LatitudeDegrees>
              <LongitudeDegrees>-1.3260574825108051300048828125</LongitudeDegrees>
            </Position>
            <AltitudeMeters>21.799999237060546875</AltitudeMeters>
            <DistanceMeters>NAN</DistanceMeters>
          </Trackpoint>
          <Trackpoint>
            <Time>2022-07-06T14:58:02.000Z</Time>
            <Position>
              <LatitudeDegrees>43.9125555194914340972900390625</LatitudeDegrees>
              <LongitudeDegrees>-1.32587266154587268829345703125</LongitudeDegrees>
            </Position>
            <AltitudeMeters>21.3999996185302734375</AltitudeMeters>
            <DistanceMeters>NAN</DistanceMeters>
          </Trackpoint>
          <Trackpoint>
            <Time>2022-07-06T14:58:06.000Z</Time>
            <Position>
              <LatitudeDegrees>43.912586867809295654296875</LatitudeDegrees>
              <LongitudeDegrees>-1.3257490284740924835205078125</LongitudeDegrees>
            </Position>
            <AltitudeMeters>20.6000003814697265625</AltitudeMeters>
            <DistanceMeters>NAN</DistanceMeters>
          </Trackpoint>
          <Trackpoint>
            <Time>2022-07-06T14:58:07.000Z</Time>
            <Position>
              <LatitudeDegrees>43.912577815353870391845703125</LatitudeDegrees>
              <LongitudeDegrees>-1.32572161965072154998779296875</LongitudeDegrees>
            </Position>
            <AltitudeMeters>20.6000003814697265625</AltitudeMeters>
            <DistanceMeters>NAN</DistanceMeters>
          </Trackpoint>
          <Trackpoint>
            <Time>2022-07-06T14:58:08.000Z</Time>
            <Position>
              <LatitudeDegrees>43.9125729538500308990478515625</LatitudeDegrees>
              <LongitudeDegrees>-1.32569747976958751678466796875</LongitudeDegrees>
            </Position>
            <AltitudeMeters>20.3999996185302734375</AltitudeMeters>
            <DistanceMeters>NAN</DistanceMeters>
          </Trackpoint>
          <Trackpoint>
            <Time>2022-07-06T14:58:10.000Z</Time>
            <Position>
              <LatitudeDegrees>43.91258108429610729217529296875</LatitudeDegrees>
              <LongitudeDegrees>-1.32563897408545017242431640625</LongitudeDegrees>
            </Position>
            <AltitudeMeters>20.3999996185302734375</AltitudeMeters>
            <DistanceMeters>NAN</DistanceMeters>
          </Trackpoint>
          <Trackpoint>
            <Time>2022-07-06T14:58:11.000Z</Time>
            <Position>
              <LatitudeDegrees>43.9125984348356723785400390625</LatitudeDegrees>
              <LongitudeDegrees>-1.32559119723737239837646484375</LongitudeDegrees>
            </Position>
            <AltitudeMeters>20.3999996185302734375</AltitudeMeters>
            <DistanceMeters>NAN</DistanceMeters>
          </Trackpoint>
          <Trackpoint>
            <Time>2022-07-06T14:58:14.000Z</Time>
            <Position>
              <LatitudeDegrees>43.91267068684101104736328125</LatitudeDegrees>
              <LongitudeDegrees>-1.32547753863036632537841796875</LongitudeDegrees>
            </Position>
            <AltitudeMeters>20.6000003814697265625</AltitudeMeters>
            <DistanceMeters>NAN</DistanceMeters>
          </Trackpoint>
          <Trackpoint>
            <Time>2022-07-06T14:58:21.000Z</Time>
            <Position>
              <LatitudeDegrees>43.9127895422279834747314453125</LatitudeDegrees>
              <LongitudeDegrees>-1.325234882533550262451171875</LongitudeDegrees>
            </Position>
            <AltitudeMeters>21.200000762939453125</AltitudeMeters>
            <DistanceMeters>NAN</DistanceMeters>
          </Trackpoint>
          <Trackpoint>
            <Time>2022-07-06T14:58:26.000Z</Time>
            <Position>
              <LatitudeDegrees>43.9128706790506839752197265625</LatitudeDegrees>
              <LongitudeDegrees>-1.32507772184908390045166015625</LongitudeDegrees>
            </Position>
            <AltitudeMeters>21.3999996185302734375</AltitudeMeters>
            <DistanceMeters>NAN</DistanceMeters>
          </Trackpoint>
          <Trackpoint>
            <Time>2022-07-06T14:58:32.000Z</Time>
            <Position>
              <LatitudeDegrees>43.91298182308673858642578125</LatitudeDegrees>
              <LongitudeDegrees>-1.324845291674137115478515625</LongitudeDegrees>
            </Position>
            <AltitudeMeters>21.799999237060546875</AltitudeMeters>
            <DistanceMeters>NAN</DistanceMeters>
          </Trackpoint>
          <Trackpoint>
            <Time>2022-07-06T14:58:33.000Z</Time>
            <Position>
              <LatitudeDegrees>43.912984840571880340576171875</LatitudeDegrees>
              <LongitudeDegrees>-1.32479692809283733367919921875</LongitudeDegrees>
            </Position>
            <AltitudeMeters>21.799999237060546875</AltitudeMeters>
            <DistanceMeters>NAN</DistanceMeters>
          </Trackpoint>
          <Trackpoint>
            <Time>2022-07-06T14:58:35.000Z</Time>
            <Position>
              <LatitudeDegrees>43.912953324615955352783203125</LatitudeDegrees>
              <LongitudeDegrees>-1.32469550706446170806884765625</LongitudeDegrees>
            </Position>
            <AltitudeMeters>21.799999237060546875</AltitudeMeters>
            <DistanceMeters>NAN</DistanceMeters>
          </Trackpoint>
          <Trackpoint>
            <Time>2022-07-06T14:58:41.000Z</Time>
            <Position>
              <LatitudeDegrees>43.91283941455185413360595703125</LatitudeDegrees>
              <LongitudeDegrees>-1.32437967695295810699462890625</LongitudeDegrees>
            </Position>
            <AltitudeMeters>21.6000003814697265625</AltitudeMeters>
            <DistanceMeters>NAN</DistanceMeters>
          </Trackpoint>
          <Trackpoint>
            <Time>2022-07-06T14:58:46.000Z</Time>
            <Position>
              <LatitudeDegrees>43.912763558328151702880859375</LatitudeDegrees>
              <LongitudeDegrees>-1.32408815436065196990966796875</LongitudeDegrees>
            </Position>
            <AltitudeMeters>21.3999996185302734375</AltitudeMeters>
            <DistanceMeters>NAN</DistanceMeters>
          </Trackpoint>
          <Trackpoint>
            <Time>2022-07-06T14:58:47.000Z</Time>
            <Position>
              <LatitudeDegrees>43.91274939291179180145263671875</LatitudeDegrees>
              <LongitudeDegrees>-1.32404758594930171966552734375</LongitudeDegrees>
            </Position>
            <AltitudeMeters>21.3999996185302734375</AltitudeMeters>
            <DistanceMeters>NAN</DistanceMeters>
          </Trackpoint>
          <Trackpoint>
            <Time>2022-07-06T14:58:52.000Z</Time>
            <Position>
              <LatitudeDegrees>43.91262869350612163543701171875</LatitudeDegrees>
              <LongitudeDegrees>-1.32376796565949916839599609375</LongitudeDegrees>
            </Position>
            <AltitudeMeters>21.200000762939453125</AltitudeMeters>
            <DistanceMeters>NAN</DistanceMeters>
          </Trackpoint>
          <Trackpoint>
            <Time>2022-07-06T14:58:53.000Z</Time>
            <Position>
              <LatitudeDegrees>43.912602625787258148193359375</LatitudeDegrees>
              <LongitudeDegrees>-1.32371415384113788604736328125</LongitudeDegrees>
            </Position>
            <AltitudeMeters>21.200000762939453125</AltitudeMeters>
            <DistanceMeters>NAN</DistanceMeters>
          </Trackpoint>
          <Trackpoint>
            <Time>2022-07-06T14:58:56.000Z</Time>
            <Position>
              <LatitudeDegrees>43.91251402907073497772216796875</LatitudeDegrees>
              <LongitudeDegrees>-1.323595382273197174072265625</LongitudeDegrees>
            </Position>
            <AltitudeMeters>21.200000762939453125</AltitudeMeters>
            <DistanceMeters>NAN</DistanceMeters>
          </Trackpoint>
          <Trackpoint>
            <Time>2022-07-06T14:58:59.000Z</Time>
            <Position>
              <LatitudeDegrees>43.9124613068997859954833984375</LatitudeDegrees>
              <LongitudeDegrees>-1.32349018938839435577392578125</LongitudeDegrees>
            </Position>
            <AltitudeMeters>21.200000762939453125</AltitudeMeters>
            <DistanceMeters>NAN</DistanceMeters>
          </Trackpoint>
          <Trackpoint>
            <Time>2022-07-06T14:59:05.000Z</Time>
            <Position>
              <LatitudeDegrees>43.912445046007633209228515625</LatitudeDegrees>
              <LongitudeDegrees>-1.32314703427255153656005859375</LongitudeDegrees>
            </Position>
            <AltitudeMeters>21.6000003814697265625</AltitudeMeters>
            <DistanceMeters>NAN</DistanceMeters>
          </Trackpoint>
          <Trackpoint>
            <Time>2022-07-06T14:59:09.000Z</Time>
            <Position>
              <LatitudeDegrees>43.91240322031080722808837890625</LatitudeDegrees>
              <LongitudeDegrees>-1.32294469512999057769775390625</LongitudeDegrees>
            </Position>
            <AltitudeMeters>21.6000003814697265625</AltitudeMeters>
            <DistanceMeters>NAN</DistanceMeters>
          </Trackpoint>
          <Trackpoint>
            <Time>2022-07-06T14:59:12.000Z</Time>
            <Position>
              <LatitudeDegrees>43.9124058187007904052734375</LatitudeDegrees>
              <LongitudeDegrees>-1.3227580301463603973388671875</LongitudeDegrees>
            </Position>
            <AltitudeMeters>21.6000003814697265625</AltitudeMeters>
            <DistanceMeters>NAN</DistanceMeters>
          </Trackpoint>
          <Trackpoint>
            <Time>2022-07-06T14:59:16.000Z</Time>
            <Position>
              <LatitudeDegrees>43.91238343901932239532470703125</LatitudeDegrees>
              <LongitudeDegrees>-1.32248586975038051605224609375</LongitudeDegrees>
            </Position>
            <AltitudeMeters>21.6000003814697265625</AltitudeMeters>
            <DistanceMeters>NAN</DistanceMeters>
          </Trackpoint>
          <Trackpoint>
            <Time>2022-07-06T14:59:22.000Z</Time>
            <Position>
              <LatitudeDegrees>43.912313617765903472900390625</LatitudeDegrees>
              <LongitudeDegrees>-1.32206694222986698150634765625</LongitudeDegrees>
            </Position>
            <AltitudeMeters>21.799999237060546875</AltitudeMeters>
            <DistanceMeters>NAN</DistanceMeters>
          </Trackpoint>
          <Trackpoint>
            <Time>2022-07-06T14:59:24.000Z</Time>
            <Position>
              <LatitudeDegrees>43.91228872351348400115966796875</LatitudeDegrees>
              <LongitudeDegrees>-1.32192495279014110565185546875</LongitudeDegrees>
            </Position>
            <AltitudeMeters>21.799999237060546875</AltitudeMeters>
            <DistanceMeters>NAN</DistanceMeters>
          </Trackpoint>
          <Trackpoint>
            <Time>2022-07-06T14:59:27.000Z</Time>
            <Position>
              <LatitudeDegrees>43.91229274682700634002685546875</LatitudeDegrees>
              <LongitudeDegrees>-1.32171808741986751556396484375</LongitudeDegrees>
            </Position>
            <AltitudeMeters>21.799999237060546875</AltitudeMeters>
            <DistanceMeters>NAN</DistanceMeters>
          </Trackpoint>
          <Trackpoint>
            <Time>2022-07-06T14:59:28.000Z</Time>
            <Position>
              <LatitudeDegrees>43.9122809283435344696044921875</LatitudeDegrees>
              <LongitudeDegrees>-1.32165354676544666290283203125</LongitudeDegrees>
            </Position>
            <AltitudeMeters>21.799999237060546875</AltitudeMeters>
            <DistanceMeters>NAN</DistanceMeters>
          </Trackpoint>
          <Trackpoint>
            <Time>2022-07-06T14:59:30.000Z</Time>
            <Position>
              <LatitudeDegrees>43.9122544415295124053955078125</LatitudeDegrees>
              <LongitudeDegrees>-1.3215211965143680572509765625</LongitudeDegrees>
            </Position>
            <AltitudeMeters>21.3999996185302734375</AltitudeMeters>
            <DistanceMeters>NAN</DistanceMeters>
          </Trackpoint>
          <Trackpoint>
            <Time>2022-07-06T14:59:31.000Z</Time>
            <Position>
              <LatitudeDegrees>43.91224312596023082733154296875</LatitudeDegrees>
              <LongitudeDegrees>-1.321453638374805450439453125</LongitudeDegrees>
            </Position>
            <AltitudeMeters>21.3999996185302734375</AltitudeMeters>
            <DistanceMeters>NAN</DistanceMeters>
          </Trackpoint>
          <Trackpoint>
            <Time>2022-07-06T14:59:32.000Z</Time>
            <Position>
              <LatitudeDegrees>43.91223206184804439544677734375</LatitudeDegrees>
              <LongitudeDegrees>-1.32139018736779689788818359375</LongitudeDegrees>
            </Position>
            <AltitudeMeters>21.3999996185302734375</AltitudeMeters>
            <DistanceMeters>NAN</DistanceMeters>
          </Trackpoint>
          <Trackpoint>
            <Time>2022-07-06T14:59:33.000Z</Time>
            <Position>
              <LatitudeDegrees>43.91222133301198482513427734375</LatitudeDegrees>
              <LongitudeDegrees>-1.32132899947464466094970703125</LongitudeDegrees>
            </Position>
            <AltitudeMeters>21.6000003814697265625</AltitudeMeters>
            <DistanceMeters>NAN</DistanceMeters>
          </Trackpoint>
          <Trackpoint>
            <Time>2022-07-06T14:59:34.000Z</Time>
            <Position>
              <LatitudeDegrees>43.9122199080884456634521484375</LatitudeDegrees>
              <LongitudeDegrees>-1.32126261480152606964111328125</LongitudeDegrees>
            </Position>
            <AltitudeMeters>21.6000003814697265625</AltitudeMeters>
            <DistanceMeters>NAN</DistanceMeters>
          </Trackpoint>
          <Trackpoint>
            <Time>2022-07-06T14:59:36.000Z</Time>
            <Position>
              <LatitudeDegrees>43.9122323133051395416259765625</LatitudeDegrees>
              <LongitudeDegrees>-1.3211450167000293731689453125</LongitudeDegrees>
            </Position>
            <AltitudeMeters>21.799999237060546875</AltitudeMeters>
            <DistanceMeters>NAN</DistanceMeters>
          </Trackpoint>
          <Trackpoint>
            <Time>2022-07-06T14:59:38.000Z</Time>
            <Position>
              <LatitudeDegrees>43.91224446706473827362060546875</LatitudeDegrees>
              <LongitudeDegrees>-1.32102574221789836883544921875</LongitudeDegrees>
            </Position>
            <AltitudeMeters>22</AltitudeMeters>
            <DistanceMeters>NAN</DistanceMeters>
          </Trackpoint>
          <Trackpoint>
            <Time>2022-07-06T14:59:40.000Z</Time>
            <Position>
              <LatitudeDegrees>43.9122500829398632049560546875</LatitudeDegrees>
              <LongitudeDegrees>-1.320899091660976409912109375</LongitudeDegrees>
            </Position>
            <AltitudeMeters>22.200000762939453125</AltitudeMeters>
            <DistanceMeters>NAN</DistanceMeters>
          </Trackpoint>
          <Trackpoint>
            <Time>2022-07-06T14:59:41.000Z</Time>
            <Position>
              <LatitudeDegrees>43.91225838102400302886962890625</LatitudeDegrees>
              <LongitudeDegrees>-1.32083480246365070343017578125</LongitudeDegrees>
            </Position>
            <AltitudeMeters>22.3999996185302734375</AltitudeMeters>
            <DistanceMeters>NAN</DistanceMeters>
          </Trackpoint>
          <Trackpoint>
            <Time>2022-07-06T14:59:42.000Z</Time>
            <Position>
              <LatitudeDegrees>43.9122675172984600067138671875</LatitudeDegrees>
              <LongitudeDegrees>-1.32076942361891269683837890625</LongitudeDegrees>
            </Position>
            <AltitudeMeters>22.3999996185302734375</AltitudeMeters>
            <DistanceMeters>NAN</DistanceMeters>
          </Trackpoint>
          <Trackpoint>
            <Time>2022-07-06T14:59:47.000Z</Time>
            <Position>
              <LatitudeDegrees>43.91227045096457004547119140625</LatitudeDegrees>
              <LongitudeDegrees>-1.32041570730507373809814453125</LongitudeDegrees>
            </Position>
            <AltitudeMeters>22.6000003814697265625</AltitudeMeters>
            <DistanceMeters>NAN</DistanceMeters>
          </Trackpoint>
          <Trackpoint>
            <Time>2022-07-06T14:59:49.000Z</Time>
            <Position>
              <LatitudeDegrees>43.9122621528804302215576171875</LatitudeDegrees>
              <LongitudeDegrees>-1.32027220912277698516845703125</LongitudeDegrees>
            </Position>
            <AltitudeMeters>22.6000003814697265625</AltitudeMeters>
            <DistanceMeters>NAN</DistanceMeters>
          </Trackpoint>
          <Trackpoint>
            <Time>2022-07-06T14:59:51.000Z</Time>
            <Position>
              <LatitudeDegrees>43.9122380129992961883544921875</LatitudeDegrees>
              <LongitudeDegrees>-1.32014396600425243377685546875</LongitudeDegrees>
            </Position>
            <AltitudeMeters>22.3999996185302734375</AltitudeMeters>
            <DistanceMeters>NAN</DistanceMeters>
          </Trackpoint>
          <Trackpoint>
            <Time>2022-07-06T14:59:52.000Z</Time>
            <Position>
              <LatitudeDegrees>43.91221848316490650177001953125</LatitudeDegrees>
              <LongitudeDegrees>-1.32007976062595844268798828125</LongitudeDegrees>
            </Position>
            <AltitudeMeters>22.3999996185302734375</AltitudeMeters>
            <DistanceMeters>NAN</DistanceMeters>
          </Trackpoint>
          <Trackpoint>
            <Time>2022-07-06T14:59:56.000Z</Time>
            <Position>
              <LatitudeDegrees>43.91211739741265773773193359375</LatitudeDegrees>
              <LongitudeDegrees>-1.31988043896853923797607421875</LongitudeDegrees>
            </Position>
            <AltitudeMeters>22.3999996185302734375</AltitudeMeters>
            <DistanceMeters>NAN</DistanceMeters>
          </Trackpoint>
          <Trackpoint>
            <Time>2022-07-06T15:00:01.000Z</Time>
            <Position>
              <LatitudeDegrees>43.9119728095829486846923828125</LatitudeDegrees>
              <LongitudeDegrees>-1.31967223249375820159912109375</LongitudeDegrees>
            </Position>
            <AltitudeMeters>22.3999996185302734375</AltitudeMeters>
            <DistanceMeters>NAN</DistanceMeters>
          </Trackpoint>
          <Trackpoint>
            <Time>2022-07-06T15:00:06.000Z</Time>
            <Position>
              <LatitudeDegrees>43.9118693768978118896484375</LatitudeDegrees>
              <LongitudeDegrees>-1.319475509226322174072265625</LongitudeDegrees>
            </Position>
            <AltitudeMeters>22.200000762939453125</AltitudeMeters>
            <DistanceMeters>NAN</DistanceMeters>
          </Trackpoint>
          <Trackpoint>
            <Time>2022-07-06T15:00:11.000Z</Time>
            <Position>
              <LatitudeDegrees>43.911756388843059539794921875</LatitudeDegrees>
              <LongitudeDegrees>-1.31925062276422977447509765625</LongitudeDegrees>
            </Position>
            <AltitudeMeters>22.3999996185302734375</AltitudeMeters>
            <DistanceMeters>NAN</DistanceMeters>
          </Trackpoint>
          <Trackpoint>
            <Time>2022-07-06T15:00:13.000Z</Time>
            <Position>
              <LatitudeDegrees>43.91169260255992412567138671875</LatitudeDegrees>
              <LongitudeDegrees>-1.31919546984136104583740234375</LongitudeDegrees>
            </Position>
            <AltitudeMeters>22.3999996185302734375</AltitudeMeters>
            <DistanceMeters>NAN</DistanceMeters>
          </Trackpoint>
          <Trackpoint>
            <Time>2022-07-06T15:00:14.000Z</Time>
            <Position>
              <LatitudeDegrees>43.91165119595825672149658203125</LatitudeDegrees>
              <LongitudeDegrees>-1.319193206727504730224609375</LongitudeDegrees>
            </Position>
            <AltitudeMeters>22.3999996185302734375</AltitudeMeters>
            <DistanceMeters>NAN</DistanceMeters>
          </Trackpoint>
          <Trackpoint>
            <Time>2022-07-06T15:00:17.000Z</Time>
            <Position>
              <LatitudeDegrees>43.9115396328270435333251953125</LatitudeDegrees>
              <LongitudeDegrees>-1.31921927444636821746826171875</LongitudeDegrees>
            </Position>
            <AltitudeMeters>22.3999996185302734375</AltitudeMeters>
            <DistanceMeters>NAN</DistanceMeters>
          </Trackpoint>
          <Trackpoint>
            <Time>2022-07-06T15:00:21.000Z</Time>
            <Position>
              <LatitudeDegrees>43.91137459315359592437744140625</LatitudeDegrees>
              <LongitudeDegrees>-1.31925414316356182098388671875</LongitudeDegrees>
            </Position>
            <AltitudeMeters>22.799999237060546875</AltitudeMeters>
            <DistanceMeters>NAN</DistanceMeters>
          </Trackpoint>
          <Trackpoint>
            <Time>2022-07-06T15:00:27.000Z</Time>
            <Position>
              <LatitudeDegrees>43.9111004211008548736572265625</LatitudeDegrees>
              <LongitudeDegrees>-1.31933427415788173675537109375</LongitudeDegrees>
            </Position>
            <AltitudeMeters>22</AltitudeMeters>
            <DistanceMeters>NAN</DistanceMeters>
          </Trackpoint>
          <Trackpoint>
            <Time>2022-07-06T15:00:28.000Z</Time>
            <Position>
              <LatitudeDegrees>43.911049626767635345458984375</LatitudeDegrees>
              <LongitudeDegrees>-1.3193455897271633148193359375</LongitudeDegrees>
            </Position>
            <AltitudeMeters>22</AltitudeMeters>
            <DistanceMeters>NAN</DistanceMeters>
          </Trackpoint>
          <Trackpoint>
            <Time>2022-07-06T15:00:29.000Z</Time>
            <Position>
              <LatitudeDegrees>43.91100411303341388702392578125</LatitudeDegrees>
              <LongitudeDegrees>-1.31935472600162029266357421875</LongitudeDegrees>
            </Position>
            <AltitudeMeters>21.799999237060546875</AltitudeMeters>
            <DistanceMeters>NAN</DistanceMeters>
          </Trackpoint>
          <Trackpoint>
            <Time>2022-07-06T15:00:33.000Z</Time>
            <Position>
              <LatitudeDegrees>43.910822980105876922607421875</LatitudeDegrees>
              <LongitudeDegrees>-1.31939479149878025054931640625</LongitudeDegrees>
            </Position>
            <AltitudeMeters>21.3999996185302734375</AltitudeMeters>
            <DistanceMeters>NAN</DistanceMeters>
          </Trackpoint>
          <Trackpoint>
            <Time>2022-07-06T15:00:34.000Z</Time>
            <Position>
              <LatitudeDegrees>43.9107755385339260101318359375</LatitudeDegrees>
              <LongitudeDegrees>-1.319401748478412628173828125</LongitudeDegrees>
            </Position>
            <AltitudeMeters>21.3999996185302734375</AltitudeMeters>
            <DistanceMeters>NAN</DistanceMeters>
          </Trackpoint>
          <Trackpoint>
            <Time>2022-07-06T15:00:38.000Z</Time>
            <Position>
              <LatitudeDegrees>43.91057244502007961273193359375</LatitudeDegrees>
              <LongitudeDegrees>-1.31943871267139911651611328125</LongitudeDegrees>
            </Position>
            <AltitudeMeters>21.6000003814697265625</AltitudeMeters>
            <DistanceMeters>NAN</DistanceMeters>
          </Trackpoint>
          <Trackpoint>
            <Time>2022-07-06T15:00:41.000Z</Time>
            <Position>
              <LatitudeDegrees>43.910426683723926544189453125</LatitudeDegrees>
              <LongitudeDegrees>-1.31946419365704059600830078125</LongitudeDegrees>
            </Position>
            <AltitudeMeters>21.6000003814697265625</AltitudeMeters>
            <DistanceMeters>NAN</DistanceMeters>
          </Trackpoint>
          <Trackpoint>
            <Time>2022-07-06T15:00:49.000Z</Time>
            <Position>
              <LatitudeDegrees>43.91005955636501312255859375</LatitudeDegrees>
              <LongitudeDegrees>-1.31953057833015918731689453125</LongitudeDegrees>
            </Position>
            <AltitudeMeters>22.200000762939453125</AltitudeMeters>
            <DistanceMeters>NAN</DistanceMeters>
          </Trackpoint>
          <Trackpoint>
            <Time>2022-07-06T15:00:51.000Z</Time>
            <Position>
              <LatitudeDegrees>43.909966014325618743896484375</LatitudeDegrees>
              <LongitudeDegrees>-1.31954717449843883514404296875</LongitudeDegrees>
            </Position>
            <AltitudeMeters>22.200000762939453125</AltitudeMeters>
            <DistanceMeters>NAN</DistanceMeters>
          </Trackpoint>
          <Trackpoint>
            <Time>2022-07-06T15:00:54.000Z</Time>
            <Position>
              <LatitudeDegrees>43.9098303951323032379150390625</LatitudeDegrees>
              <LongitudeDegrees>-1.31957315839827060699462890625</LongitudeDegrees>
            </Position>
            <AltitudeMeters>22.200000762939453125</AltitudeMeters>
            <DistanceMeters>NAN</DistanceMeters>
          </Trackpoint>
          <Trackpoint>
            <Time>2022-07-06T15:00:58.000Z</Time>
            <Position>
              <LatitudeDegrees>43.9096701331436634063720703125</LatitudeDegrees>
              <LongitudeDegrees>-1.31959310732781887054443359375</LongitudeDegrees>
            </Position>
            <AltitudeMeters>21.6000003814697265625</AltitudeMeters>
            <DistanceMeters>NAN</DistanceMeters>
          </Trackpoint>
          <Trackpoint>
            <Time>2022-07-06T15:01:05.000Z</Time>
            <Position>
              <LatitudeDegrees>43.90934416092932224273681640625</LatitudeDegrees>
              <LongitudeDegrees>-1.31964172236621379852294921875</LongitudeDegrees>
            </Position>
            <AltitudeMeters>20.799999237060546875</AltitudeMeters>
            <DistanceMeters>NAN</DistanceMeters>
          </Trackpoint>
          <Trackpoint>
            <Time>2022-07-06T15:01:09.000Z</Time>
            <Position>
              <LatitudeDegrees>43.909149952232837677001953125</LatitudeDegrees>
              <LongitudeDegrees>-1.31966167129576206207275390625</LongitudeDegrees>
            </Position>
            <AltitudeMeters>20.3999996185302734375</AltitudeMeters>
            <DistanceMeters>NAN</DistanceMeters>
          </Trackpoint>
          <Trackpoint>
            <Time>2022-07-06T15:01:13.000Z</Time>
            <Position>
              <LatitudeDegrees>43.9089564979076385498046875</LatitudeDegrees>
              <LongitudeDegrees>-1.31969176232814788818359375</LongitudeDegrees>
            </Position>
            <AltitudeMeters>20.200000762939453125</AltitudeMeters>
            <DistanceMeters>NAN</DistanceMeters>
          </Trackpoint>
          <Trackpoint>
            <Time>2022-07-06T15:01:18.000Z</Time>
            <Position>
              <LatitudeDegrees>43.9087860099971294403076171875</LatitudeDegrees>
              <LongitudeDegrees>-1.31969419308006763458251953125</LongitudeDegrees>
            </Position>
            <AltitudeMeters>19.6000003814697265625</AltitudeMeters>
            <DistanceMeters>NAN</DistanceMeters>
          </Trackpoint>
          <Trackpoint>
            <Time>2022-07-06T15:01:21.000Z</Time>
            <Position>
              <LatitudeDegrees>43.9087719283998012542724609375</LatitudeDegrees>
              <LongitudeDegrees>-1.31954960525035858154296875</LongitudeDegrees>
            </Position>
            <AltitudeMeters>19.200000762939453125</AltitudeMeters>
            <DistanceMeters>NAN</DistanceMeters>
          </Trackpoint>
          <Trackpoint>
            <Time>2022-07-06T15:01:23.000Z</Time>
            <Position>
              <LatitudeDegrees>43.90877268277108669281005859375</LatitudeDegrees>
              <LongitudeDegrees>-1.3194538839161396026611328125</LongitudeDegrees>
            </Position>
            <AltitudeMeters>19.200000762939453125</AltitudeMeters>
            <DistanceMeters>NAN</DistanceMeters>
          </Trackpoint>
          <Trackpoint>
            <Time>2022-07-06T15:01:28.000Z</Time>
            <Position>
              <LatitudeDegrees>43.90883370302617549896240234375</LatitudeDegrees>
              <LongitudeDegrees>-1.31917350925505161285400390625</LongitudeDegrees>
            </Position>
            <AltitudeMeters>19.200000762939453125</AltitudeMeters>
            <DistanceMeters>NAN</DistanceMeters>
          </Trackpoint>
          <Trackpoint>
            <Time>2022-07-06T15:01:34.000Z</Time>
            <Position>
              <LatitudeDegrees>43.9088580943644046783447265625</LatitudeDegrees>
              <LongitudeDegrees>-1.3187685795128345489501953125</LongitudeDegrees>
            </Position>
            <AltitudeMeters>19</AltitudeMeters>
            <DistanceMeters>NAN</DistanceMeters>
          </Trackpoint>
          <Trackpoint>
            <Time>2022-07-06T15:01:36.000Z</Time>
            <Position>
              <LatitudeDegrees>43.90886823646724224090576171875</LatitudeDegrees>
              <LongitudeDegrees>-1.31865777075290679931640625</LongitudeDegrees>
            </Position>
            <AltitudeMeters>19</AltitudeMeters>
            <DistanceMeters>NAN</DistanceMeters>
          </Trackpoint>
          <Trackpoint>
            <Time>2022-07-06T15:01:38.000Z</Time>
            <Position>
              <LatitudeDegrees>43.90889774076640605926513671875</LatitudeDegrees>
              <LongitudeDegrees>-1.31851938553154468536376953125</LongitudeDegrees>
            </Position>
            <AltitudeMeters>19</AltitudeMeters>
            <DistanceMeters>NAN</DistanceMeters>
          </Trackpoint>
          <Trackpoint>
            <Time>2022-07-06T15:01:40.000Z</Time>
            <Position>
              <LatitudeDegrees>43.9089003391563892364501953125</LatitudeDegrees>
              <LongitudeDegrees>-1.318387873470783233642578125</LongitudeDegrees>
            </Position>
            <AltitudeMeters>19.200000762939453125</AltitudeMeters>
            <DistanceMeters>NAN</DistanceMeters>
          </Trackpoint>
          <Trackpoint>
            <Time>2022-07-06T15:01:44.000Z</Time>
            <Position>
              <LatitudeDegrees>43.9088912867009639739990234375</LatitudeDegrees>
              <LongitudeDegrees>-1.3181416131556034088134765625</LongitudeDegrees>
            </Position>
            <AltitudeMeters>19.200000762939453125</AltitudeMeters>
            <DistanceMeters>NAN</DistanceMeters>
          </Trackpoint>
          <Trackpoint>
            <Time>2022-07-06T15:01:46.000Z</Time>
            <Position>
              <LatitudeDegrees>43.90889857895672321319580078125</LatitudeDegrees>
              <LongitudeDegrees>-1.3180495798587799072265625</LongitudeDegrees>
            </Position>
            <AltitudeMeters>19.6000003814697265625</AltitudeMeters>
            <DistanceMeters>NAN</DistanceMeters>
          </Trackpoint>
          <Trackpoint>
            <Time>2022-07-06T15:01:52.000Z</Time>
            <Position>
              <LatitudeDegrees>43.908971250057220458984375</LatitudeDegrees>
              <LongitudeDegrees>-1.3176725618541240692138671875</LongitudeDegrees>
            </Position>
            <AltitudeMeters>19.3999996185302734375</AltitudeMeters>
            <DistanceMeters>NAN</DistanceMeters>
          </Trackpoint>
          <Trackpoint>
            <Time>2022-07-06T15:01:55.000Z</Time>
            <Position>
              <LatitudeDegrees>43.9090101420879364013671875</LatitudeDegrees>
              <LongitudeDegrees>-1.31748874671757221221923828125</LongitudeDegrees>
            </Position>
            <AltitudeMeters>19.3999996185302734375</AltitudeMeters>
            <DistanceMeters>NAN</DistanceMeters>
          </Trackpoint>
          <Trackpoint>
            <Time>2022-07-06T15:01:58.000Z</Time>
            <Position>
              <LatitudeDegrees>43.909023888409137725830078125</LatitudeDegrees>
              <LongitudeDegrees>-1.31726562045514583587646484375</LongitudeDegrees>
            </Position>
            <AltitudeMeters>20</AltitudeMeters>
            <DistanceMeters>NAN</DistanceMeters>
          </Trackpoint>
          <Trackpoint>
            <Time>2022-07-06T15:02:01.000Z</Time>
            <Position>
              <LatitudeDegrees>43.90899874269962310791015625</LatitudeDegrees>
              <LongitudeDegrees>-1.317101083695888519287109375</LongitudeDegrees>
            </Position>
            <AltitudeMeters>20.200000762939453125</AltitudeMeters>
            <DistanceMeters>NAN</DistanceMeters>
          </Trackpoint>
          <Trackpoint>
            <Time>2022-07-06T15:02:04.000Z</Time>
            <Position>
              <LatitudeDegrees>43.9090129919350147247314453125</LatitudeDegrees>
              <LongitudeDegrees>-1.31691626273095607757568359375</LongitudeDegrees>
            </Position>
            <AltitudeMeters>20.200000762939453125</AltitudeMeters>
            <DistanceMeters>NAN</DistanceMeters>
          </Trackpoint>
          <Trackpoint>
            <Time>2022-07-06T15:02:11.000Z</Time>
            <Position>
              <LatitudeDegrees>43.90902816317975521087646484375</LatitudeDegrees>
              <LongitudeDegrees>-1.31643849425017833709716796875</LongitudeDegrees>
            </Position>
            <AltitudeMeters>20.200000762939453125</AltitudeMeters>
            <DistanceMeters>NAN</DistanceMeters>
          </Trackpoint>
          <Trackpoint>
            <Time>2022-07-06T15:02:14.000Z</Time>
            <Position>
              <LatitudeDegrees>43.9090367965400218963623046875</LatitudeDegrees>
              <LongitudeDegrees>-1.31624956615269184112548828125</LongitudeDegrees>
            </Position>
            <AltitudeMeters>20.6000003814697265625</AltitudeMeters>
            <DistanceMeters>NAN</DistanceMeters>
          </Trackpoint>
          <Trackpoint>
            <Time>2022-07-06T15:02:16.000Z</Time>
            <Position>
              <LatitudeDegrees>43.90905641019344329833984375</LatitudeDegrees>
              <LongitudeDegrees>-1.31614881567656993865966796875</LongitudeDegrees>
            </Position>
            <AltitudeMeters>20.6000003814697265625</AltitudeMeters>
            <DistanceMeters>NAN</DistanceMeters>
          </Trackpoint>
          <Trackpoint>
            <Time>2022-07-06T15:02:19.000Z</Time>
            <Position>
              <LatitudeDegrees>43.9091088809072971343994140625</LatitudeDegrees>
              <LongitudeDegrees>-1.31596961058676242828369140625</LongitudeDegrees>
            </Position>
            <AltitudeMeters>20.6000003814697265625</AltitudeMeters>
            <DistanceMeters>NAN</DistanceMeters>
          </Trackpoint>
          <Trackpoint>
            <Time>2022-07-06T15:02:22.000Z</Time>
            <Position>
              <LatitudeDegrees>43.90912614762783050537109375</LatitudeDegrees>
              <LongitudeDegrees>-1.31577649153769016265869140625</LongitudeDegrees>
            </Position>
            <AltitudeMeters>20.3999996185302734375</AltitudeMeters>
            <DistanceMeters>NAN</DistanceMeters>
          </Trackpoint>
          <Trackpoint>
            <Time>2022-07-06T15:02:24.000Z</Time>
            <Position>
              <LatitudeDegrees>43.9091172628104686737060546875</LatitudeDegrees>
              <LongitudeDegrees>-1.31565663032233715057373046875</LongitudeDegrees>
            </Position>
            <AltitudeMeters>20.3999996185302734375</AltitudeMeters>
            <DistanceMeters>NAN</DistanceMeters>
          </Trackpoint>
          <Trackpoint>
            <Time>2022-07-06T15:02:27.000Z</Time>
            <Position>
              <LatitudeDegrees>43.9091517962515354156494140625</LatitudeDegrees>
              <LongitudeDegrees>-1.31547105498611927032470703125</LongitudeDegrees>
            </Position>
            <AltitudeMeters>20.3999996185302734375</AltitudeMeters>
            <DistanceMeters>NAN</DistanceMeters>
          </Trackpoint>
          <Trackpoint>
            <Time>2022-07-06T15:02:33.000Z</Time>
            <Position>
              <LatitudeDegrees>43.90920753590762615203857421875</LatitudeDegrees>
              <LongitudeDegrees>-1.315053217113018035888671875</LongitudeDegrees>
            </Position>
            <AltitudeMeters>20.6000003814697265625</AltitudeMeters>
            <DistanceMeters>NAN</DistanceMeters>
          </Trackpoint>
          <Trackpoint>
            <Time>2022-07-06T15:02:34.000Z</Time>
            <Position>
              <LatitudeDegrees>43.9092017523944377899169921875</LatitudeDegrees>
              <LongitudeDegrees>-1.31498314440250396728515625</LongitudeDegrees>
            </Position>
            <AltitudeMeters>20.6000003814697265625</AltitudeMeters>
            <DistanceMeters>NAN</DistanceMeters>
          </Trackpoint>
          <Trackpoint>
            <Time>2022-07-06T15:02:35.000Z</Time>
            <Position>
              <LatitudeDegrees>43.90918641351163387298583984375</LatitudeDegrees>
              <LongitudeDegrees>-1.3149139098823070526123046875</LongitudeDegrees>
            </Position>
            <AltitudeMeters>20.6000003814697265625</AltitudeMeters>
            <DistanceMeters>NAN</DistanceMeters>
          </Trackpoint>
          <Trackpoint>
            <Time>2022-07-06T15:02:37.000Z</Time>
            <Position>
              <LatitudeDegrees>43.90914567746222019195556640625</LatitudeDegrees>
              <LongitudeDegrees>-1.31477837450802326202392578125</LongitudeDegrees>
            </Position>
            <AltitudeMeters>20.799999237060546875</AltitudeMeters>
            <DistanceMeters>NAN</DistanceMeters>
          </Trackpoint>
          <Trackpoint>
            <Time>2022-07-06T15:02:38.000Z</Time>
            <Position>
              <LatitudeDegrees>43.9091112278401851654052734375</LatitudeDegrees>
              <LongitudeDegrees>-1.31471852771937847137451171875</LongitudeDegrees>
            </Position>
            <AltitudeMeters>20.799999237060546875</AltitudeMeters>
            <DistanceMeters>NAN</DistanceMeters>
          </Trackpoint>
          <Trackpoint>
            <Time>2022-07-06T15:02:40.000Z</Time>
            <Position>
              <LatitudeDegrees>43.90903168357908725738525390625</LatitudeDegrees>
              <LongitudeDegrees>-1.31461325101554393768310546875</LongitudeDegrees>
            </Position>
            <AltitudeMeters>20.799999237060546875</AltitudeMeters>
            <DistanceMeters>NAN</DistanceMeters>
          </Trackpoint>
          <Trackpoint>
            <Time>2022-07-06T15:02:41.000Z</Time>
            <Position>
              <LatitudeDegrees>43.9089955575764179229736328125</LatitudeDegrees>
              <LongitudeDegrees>-1.31456228904426097869873046875</LongitudeDegrees>
            </Position>
            <AltitudeMeters>20.799999237060546875</AltitudeMeters>
            <DistanceMeters>NAN</DistanceMeters>
          </Trackpoint>
          <Trackpoint>
            <Time>2022-07-06T15:02:43.000Z</Time>
            <Position>
              <LatitudeDegrees>43.90892975963652133941650390625</LatitudeDegrees>
              <LongitudeDegrees>-1.3144643045961856842041015625</LongitudeDegrees>
            </Position>
            <AltitudeMeters>20.6000003814697265625</AltitudeMeters>
            <DistanceMeters>NAN</DistanceMeters>
          </Trackpoint>
          <Trackpoint>
            <Time>2022-07-06T15:02:44.000Z</Time>
            <Position>
              <LatitudeDegrees>43.90890042297542095184326171875</LatitudeDegrees>
              <LongitudeDegrees>-1.31441275589168071746826171875</LongitudeDegrees>
            </Position>
            <AltitudeMeters>20.6000003814697265625</AltitudeMeters>
            <DistanceMeters>NAN</DistanceMeters>
          </Trackpoint>
          <Trackpoint>
            <Time>2022-07-06T15:02:45.000Z</Time>
            <Position>
              <LatitudeDegrees>43.90886974520981311798095703125</LatitudeDegrees>
              <LongitudeDegrees>-1.3143620453774929046630859375</LongitudeDegrees>
            </Position>
            <AltitudeMeters>20.3999996185302734375</AltitudeMeters>
            <DistanceMeters>NAN</DistanceMeters>
          </Trackpoint>
          <Trackpoint>
            <Time>2022-07-06T15:02:47.000Z</Time>
            <Position>
              <LatitudeDegrees>43.90879497863352298736572265625</LatitudeDegrees>
              <LongitudeDegrees>-1.31430898793041706085205078125</LongitudeDegrees>
            </Position>
            <AltitudeMeters>20.3999996185302734375</AltitudeMeters>
            <DistanceMeters>NAN</DistanceMeters>
          </Trackpoint>
          <Trackpoint>
            <Time>2022-07-06T15:02:48.000Z</Time>
            <Position>
              <LatitudeDegrees>43.90875658951699733734130859375</LatitudeDegrees>
              <LongitudeDegrees>-1.314298845827579498291015625</LongitudeDegrees>
            </Position>
            <AltitudeMeters>20.200000762939453125</AltitudeMeters>
            <DistanceMeters>NAN</DistanceMeters>
          </Trackpoint>
          <Trackpoint>
            <Time>2022-07-06T15:02:49.000Z</Time>
            <Position>
              <LatitudeDegrees>43.90871803276240825653076171875</LatitudeDegrees>
              <LongitudeDegrees>-1.3142973370850086212158203125</LongitudeDegrees>
            </Position>
            <AltitudeMeters>20.200000762939453125</AltitudeMeters>
            <DistanceMeters>NAN</DistanceMeters>
          </Trackpoint>
          <Trackpoint>
            <Time>2022-07-06T15:02:50.000Z</Time>
            <Position>
              <LatitudeDegrees>43.90867612324655055999755859375</LatitudeDegrees>
              <LongitudeDegrees>-1.31429993547499179840087890625</LongitudeDegrees>
            </Position>
            <AltitudeMeters>20.200000762939453125</AltitudeMeters>
            <DistanceMeters>NAN</DistanceMeters>
          </Trackpoint>
          <Trackpoint>
            <Time>2022-07-06T15:02:51.000Z</Time>
            <Position>
              <LatitudeDegrees>43.90862993896007537841796875</LatitudeDegrees>
              <LongitudeDegrees>-1.314300186932086944580078125</LongitudeDegrees>
            </Position>
            <AltitudeMeters>20.200000762939453125</AltitudeMeters>
            <DistanceMeters>NAN</DistanceMeters>
          </Trackpoint>
          <Trackpoint>
            <Time>2022-07-06T15:02:54.000Z</Time>
            <Position>
              <LatitudeDegrees>43.90851183794438838958740234375</LatitudeDegrees>
              <LongitudeDegrees>-1.31430915556848049163818359375</LongitudeDegrees>
            </Position>
            <AltitudeMeters>20.200000762939453125</AltitudeMeters>
            <DistanceMeters>NAN</DistanceMeters>
          </Trackpoint>
          <Trackpoint>
            <Time>2022-07-06T15:02:57.000Z</Time>
            <Position>
              <LatitudeDegrees>43.90838409774005413055419921875</LatitudeDegrees>
              <LongitudeDegrees>-1.31431602872908115386962890625</LongitudeDegrees>
            </Position>
            <AltitudeMeters>20</AltitudeMeters>
            <DistanceMeters>NAN</DistanceMeters>
          </Trackpoint>
          <Trackpoint>
            <Time>2022-07-06T15:03:03.000Z</Time>
            <Position>
              <LatitudeDegrees>43.90806692652404308319091796875</LatitudeDegrees>
              <LongitudeDegrees>-1.31432709284126758575439453125</LongitudeDegrees>
            </Position>
            <AltitudeMeters>20</AltitudeMeters>
            <DistanceMeters>NAN</DistanceMeters>
          </Trackpoint>
          <Trackpoint>
            <Time>2022-07-06T15:03:04.000Z</Time>
            <Position>
              <LatitudeDegrees>43.90802250243723392486572265625</LatitudeDegrees>
              <LongitudeDegrees>-1.3143191300332546234130859375</LongitudeDegrees>
            </Position>
            <AltitudeMeters>20</AltitudeMeters>
            <DistanceMeters>NAN</DistanceMeters>
          </Trackpoint>
          <Trackpoint>
            <Time>2022-07-06T15:03:08.000Z</Time>
            <Position>
              <LatitudeDegrees>43.9078230969607830047607421875</LatitudeDegrees>
              <LongitudeDegrees>-1.31431125104427337646484375</LongitudeDegrees>
            </Position>
            <AltitudeMeters>20</AltitudeMeters>
            <DistanceMeters>NAN</DistanceMeters>
          </Trackpoint>
          <Trackpoint>
            <Time>2022-07-06T15:03:10.000Z</Time>
            <Position>
              <LatitudeDegrees>43.90772511251270771026611328125</LatitudeDegrees>
              <LongitudeDegrees>-1.314302869141101837158203125</LongitudeDegrees>
            </Position>
            <AltitudeMeters>19.799999237060546875</AltitudeMeters>
            <DistanceMeters>NAN</DistanceMeters>
          </Trackpoint>
          <Trackpoint>
            <Time>2022-07-06T15:03:11.000Z</Time>
            <Position>
              <LatitudeDegrees>43.90767498873174190521240234375</LatitudeDegrees>
              <LongitudeDegrees>-1.3143241591751575469970703125</LongitudeDegrees>
            </Position>
            <AltitudeMeters>19.6000003814697265625</AltitudeMeters>
            <DistanceMeters>NAN</DistanceMeters>
          </Trackpoint>
          <Trackpoint>
            <Time>2022-07-06T15:03:13.000Z</Time>
            <Position>
              <LatitudeDegrees>43.90757851302623748779296875</LatitudeDegrees>
              <LongitudeDegrees>-1.3143449462950229644775390625</LongitudeDegrees>
            </Position>
            <AltitudeMeters>19.6000003814697265625</AltitudeMeters>
            <DistanceMeters>NAN</DistanceMeters>
          </Trackpoint>
          <Trackpoint>
            <Time>2022-07-06T15:03:17.000Z</Time>
            <Position>
              <LatitudeDegrees>43.9073389582335948944091796875</LatitudeDegrees>
              <LongitudeDegrees>-1.31436682306230068206787109375</LongitudeDegrees>
            </Position>
            <AltitudeMeters>19.200000762939453125</AltitudeMeters>
            <DistanceMeters>NAN</DistanceMeters>
          </Trackpoint>
          <Trackpoint>
            <Time>2022-07-06T15:03:18.000Z</Time>
            <Position>
              <LatitudeDegrees>43.90727668069303035736083984375</LatitudeDegrees>
              <LongitudeDegrees>-1.31437872536480426788330078125</LongitudeDegrees>
            </Position>
            <AltitudeMeters>19.200000762939453125</AltitudeMeters>
            <DistanceMeters>NAN</DistanceMeters>
          </Trackpoint>
          <Trackpoint>
            <Time>2022-07-06T15:03:23.000Z</Time>
            <Position>
              <LatitudeDegrees>43.90706378035247325897216796875</LatitudeDegrees>
              <LongitudeDegrees>-1.314395405352115631103515625</LongitudeDegrees>
            </Position>
            <AltitudeMeters>18.799999237060546875</AltitudeMeters>
            <DistanceMeters>NAN</DistanceMeters>
          </Trackpoint>
          <Trackpoint>
            <Time>2022-07-06T15:03:27.000Z</Time>
            <Position>
              <LatitudeDegrees>43.9070070348680019378662109375</LatitudeDegrees>
              <LongitudeDegrees>-1.31442063488066196441650390625</LongitudeDegrees>
            </Position>
            <AltitudeMeters>18.200000762939453125</AltitudeMeters>
            <DistanceMeters>NAN</DistanceMeters>
          </Trackpoint>
          <Trackpoint>
            <Time>2022-07-06T15:03:28.000Z</Time>
            <Position>
              <LatitudeDegrees>43.90700644813477993011474609375</LatitudeDegrees>
              <LongitudeDegrees>-1.31442398764193058013916015625</LongitudeDegrees>
            </Position>
            <AltitudeMeters>18.200000762939453125</AltitudeMeters>
            <DistanceMeters>NAN</DistanceMeters>
          </Trackpoint>
          <Trackpoint>
            <Time>2022-07-06T15:03:30.000Z</Time>
            <Position>
              <LatitudeDegrees>43.90700644813477993011474609375</LatitudeDegrees>
              <LongitudeDegrees>-1.31442398764193058013916015625</LongitudeDegrees>
            </Position>
            <AltitudeMeters>18</AltitudeMeters>
            <DistanceMeters>NAN</DistanceMeters>
          </Trackpoint>
          <Trackpoint>
            <Time>2022-07-06T15:04:26.000Z</Time>
            <Position>
              <LatitudeDegrees>43.906904943287372589111328125</LatitudeDegrees>
              <LongitudeDegrees>-1.314416192471981048583984375</LongitudeDegrees>
            </Position>
            <AltitudeMeters>18.3999996185302734375</AltitudeMeters>
            <DistanceMeters>NAN</DistanceMeters>
          </Trackpoint>
          <Trackpoint>
            <Time>2022-07-06T15:04:27.000Z</Time>
            <Position>
              <LatitudeDegrees>43.90688273124396800994873046875</LatitudeDegrees>
              <LongitudeDegrees>-1.3144049607217311859130859375</LongitudeDegrees>
            </Position>
            <AltitudeMeters>18.3999996185302734375</AltitudeMeters>
            <DistanceMeters>NAN</DistanceMeters>
          </Trackpoint>
          <Trackpoint>
            <Time>2022-07-06T15:04:31.000Z</Time>
            <Position>
              <LatitudeDegrees>43.90681299380958080291748046875</LatitudeDegrees>
              <LongitudeDegrees>-1.31427160464227199554443359375</LongitudeDegrees>
            </Position>
            <AltitudeMeters>18</AltitudeMeters>
            <DistanceMeters>NAN</DistanceMeters>
          </Trackpoint>
          <Trackpoint>
            <Time>2022-07-06T15:04:36.000Z</Time>
            <Position>
              <LatitudeDegrees>43.90676982700824737548828125</LatitudeDegrees>
              <LongitudeDegrees>-1.31403707899153232574462890625</LongitudeDegrees>
            </Position>
            <AltitudeMeters>17.799999237060546875</AltitudeMeters>
            <DistanceMeters>NAN</DistanceMeters>
          </Trackpoint>
          <Trackpoint>
            <Time>2022-07-06T15:04:41.000Z</Time>
            <Position>
              <LatitudeDegrees>43.90670067630708217620849609375</LatitudeDegrees>
              <LongitudeDegrees>-1.31388084031641483306884765625</LongitudeDegrees>
            </Position>
            <AltitudeMeters>17.6000003814697265625</AltitudeMeters>
            <DistanceMeters>NAN</DistanceMeters>
          </Trackpoint>
          <Trackpoint>
            <Time>2022-07-06T15:04:43.000Z</Time>
            <Position>
              <LatitudeDegrees>43.90670067630708217620849609375</LatitudeDegrees>
              <LongitudeDegrees>-1.31388084031641483306884765625</LongitudeDegrees>
            </Position>
            <AltitudeMeters>17.6000003814697265625</AltitudeMeters>
            <DistanceMeters>NAN</DistanceMeters>
          </Trackpoint>
          <Trackpoint>
            <Time>2022-07-06T15:05:55.000Z</Time>
            <Position>
              <LatitudeDegrees>43.90670721419155597686767578125</LatitudeDegrees>
              <LongitudeDegrees>-1.3138299621641635894775390625</LongitudeDegrees>
            </Position>
            <AltitudeMeters>16.3999996185302734375</AltitudeMeters>
            <DistanceMeters>NAN</DistanceMeters>
          </Trackpoint>
          <Trackpoint>
            <Time>2022-07-06T15:05:56.000Z</Time>
            <Position>
              <LatitudeDegrees>43.906702101230621337890625</LatitudeDegrees>
              <LongitudeDegrees>-1.313807666301727294921875</LongitudeDegrees>
            </Position>
            <AltitudeMeters>16.3999996185302734375</AltitudeMeters>
            <DistanceMeters>NAN</DistanceMeters>
          </Trackpoint>
          <Trackpoint>
            <Time>2022-07-06T15:06:01.000Z</Time>
            <Position>
              <LatitudeDegrees>43.9066658914089202880859375</LatitudeDegrees>
              <LongitudeDegrees>-1.31363742984831333160400390625</LongitudeDegrees>
            </Position>
            <AltitudeMeters>16.3999996185302734375</AltitudeMeters>
            <DistanceMeters>NAN</DistanceMeters>
          </Trackpoint>
          <Trackpoint>
            <Time>2022-07-06T15:06:05.000Z</Time>
            <Position>
              <LatitudeDegrees>43.90664066188037395477294921875</LatitudeDegrees>
              <LongitudeDegrees>-1.3134293071925640106201171875</LongitudeDegrees>
            </Position>
            <AltitudeMeters>16.3999996185302734375</AltitudeMeters>
            <DistanceMeters>NAN</DistanceMeters>
          </Trackpoint>
          <Trackpoint>
            <Time>2022-07-06T15:06:11.000Z</Time>
            <Position>
              <LatitudeDegrees>43.90658031217753887176513671875</LatitudeDegrees>
              <LongitudeDegrees>-1.313109286129474639892578125</LongitudeDegrees>
            </Position>
            <AltitudeMeters>16.3999996185302734375</AltitudeMeters>
            <DistanceMeters>NAN</DistanceMeters>
          </Trackpoint>
          <Trackpoint>
            <Time>2022-07-06T15:06:17.000Z</Time>
            <Position>
              <LatitudeDegrees>43.906500600278377532958984375</LatitudeDegrees>
              <LongitudeDegrees>-1.312790773808956146240234375</LongitudeDegrees>
            </Position>
            <AltitudeMeters>16.3999996185302734375</AltitudeMeters>
            <DistanceMeters>NAN</DistanceMeters>
          </Trackpoint>
          <Trackpoint>
            <Time>2022-07-06T15:06:22.000Z</Time>
            <Position>
              <LatitudeDegrees>43.9064320363104343414306640625</LatitudeDegrees>
              <LongitudeDegrees>-1.312507800757884979248046875</LongitudeDegrees>
            </Position>
            <AltitudeMeters>16.3999996185302734375</AltitudeMeters>
            <DistanceMeters>NAN</DistanceMeters>
          </Trackpoint>
          <Trackpoint>
            <Time>2022-07-06T15:06:26.000Z</Time>
            <Position>
              <LatitudeDegrees>43.9063763804733753204345703125</LatitudeDegrees>
              <LongitudeDegrees>-1.312296576797962188720703125</LongitudeDegrees>
            </Position>
            <AltitudeMeters>16.3999996185302734375</AltitudeMeters>
            <DistanceMeters>NAN</DistanceMeters>
          </Trackpoint>
          <Trackpoint>
            <Time>2022-07-06T15:06:29.000Z</Time>
            <Position>
              <LatitudeDegrees>43.90629666857421398162841796875</LatitudeDegrees>
              <LongitudeDegrees>-1.312165819108486175537109375</LongitudeDegrees>
            </Position>
            <AltitudeMeters>16.6000003814697265625</AltitudeMeters>
            <DistanceMeters>NAN</DistanceMeters>
          </Trackpoint>
          <Trackpoint>
            <Time>2022-07-06T15:06:31.000Z</Time>
            <Position>
              <LatitudeDegrees>43.90623665414750576019287109375</LatitudeDegrees>
              <LongitudeDegrees>-1.31209180690348148345947265625</LongitudeDegrees>
            </Position>
            <AltitudeMeters>16.6000003814697265625</AltitudeMeters>
            <DistanceMeters>NAN</DistanceMeters>
          </Trackpoint>
          <Trackpoint>
            <Time>2022-07-06T15:06:32.000Z</Time>
            <Position>
              <LatitudeDegrees>43.9062164537608623504638671875</LatitudeDegrees>
              <LongitudeDegrees>-1.31205945275723934173583984375</LongitudeDegrees>
            </Position>
            <AltitudeMeters>16.6000003814697265625</AltitudeMeters>
            <DistanceMeters>NAN</DistanceMeters>
          </Trackpoint>
          <Trackpoint>
            <Time>2022-07-06T15:06:33.000Z</Time>
            <Position>
              <LatitudeDegrees>43.90619256533682346343994140625</LatitudeDegrees>
              <LongitudeDegrees>-1.31201351992785930633544921875</LongitudeDegrees>
            </Position>
            <AltitudeMeters>16.6000003814697265625</AltitudeMeters>
            <DistanceMeters>NAN</DistanceMeters>
          </Trackpoint>
          <Trackpoint>
            <Time>2022-07-06T15:06:40.000Z</Time>
            <Position>
              <LatitudeDegrees>43.90601621009409427642822265625</LatitudeDegrees>
              <LongitudeDegrees>-1.31165276281535625457763671875</LongitudeDegrees>
            </Position>
            <AltitudeMeters>16.3999996185302734375</AltitudeMeters>
            <DistanceMeters>NAN</DistanceMeters>
          </Trackpoint>
          <Trackpoint>
            <Time>2022-07-06T15:06:43.000Z</Time>
            <Position>
              <LatitudeDegrees>43.9059421978890895843505859375</LatitudeDegrees>
              <LongitudeDegrees>-1.31151664070785045623779296875</LongitudeDegrees>
            </Position>
            <AltitudeMeters>16.3999996185302734375</AltitudeMeters>
            <DistanceMeters>NAN</DistanceMeters>
          </Trackpoint>
          <Trackpoint>
            <Time>2022-07-06T15:06:46.000Z</Time>
            <Position>
              <LatitudeDegrees>43.90584723092615604400634765625</LatitudeDegrees>
              <LongitudeDegrees>-1.311394684016704559326171875</LongitudeDegrees>
            </Position>
            <AltitudeMeters>16.3999996185302734375</AltitudeMeters>
            <DistanceMeters>NAN</DistanceMeters>
          </Trackpoint>
          <Trackpoint>
            <Time>2022-07-06T15:06:51.000Z</Time>
            <Position>
              <LatitudeDegrees>43.9056947641074657440185546875</LatitudeDegrees>
              <LongitudeDegrees>-1.3111598230898380279541015625</LongitudeDegrees>
            </Position>
            <AltitudeMeters>16.799999237060546875</AltitudeMeters>
            <DistanceMeters>NAN</DistanceMeters>
          </Trackpoint>
          <Trackpoint>
            <Time>2022-07-06T15:06:53.000Z</Time>
            <Position>
              <LatitudeDegrees>43.9056250266730785369873046875</LatitudeDegrees>
              <LongitudeDegrees>-1.31107524968683719635009765625</LongitudeDegrees>
            </Position>
            <AltitudeMeters>16.799999237060546875</AltitudeMeters>
            <DistanceMeters>NAN</DistanceMeters>
          </Trackpoint>
          <Trackpoint>
            <Time>2022-07-06T15:06:54.000Z</Time>
            <Position>
              <LatitudeDegrees>43.90559636056423187255859375</LatitudeDegrees>
              <LongitudeDegrees>-1.311032585799694061279296875</LongitudeDegrees>
            </Position>
            <AltitudeMeters>16.799999237060546875</AltitudeMeters>
            <DistanceMeters>NAN</DistanceMeters>
          </Trackpoint>
          <Trackpoint>
            <Time>2022-07-06T15:06:56.000Z</Time>
            <Position>
              <LatitudeDegrees>43.9055328257381916046142578125</LatitudeDegrees>
              <LongitudeDegrees>-1.31093812175095081329345703125</LongitudeDegrees>
            </Position>
            <AltitudeMeters>16.799999237060546875</AltitudeMeters>
            <DistanceMeters>NAN</DistanceMeters>
          </Trackpoint>
          <Trackpoint>
            <Time>2022-07-06T15:06:59.000Z</Time>
            <Position>
              <LatitudeDegrees>43.90543878078460693359375</LatitudeDegrees>
              <LongitudeDegrees>-1.3107937015593051910400390625</LongitudeDegrees>
            </Position>
            <AltitudeMeters>16.6000003814697265625</AltitudeMeters>
            <DistanceMeters>NAN</DistanceMeters>
          </Trackpoint>
          <Trackpoint>
            <Time>2022-07-06T15:07:00.000Z</Time>
            <Position>
              <LatitudeDegrees>43.90540667809545993804931640625</LatitudeDegrees>
              <LongitudeDegrees>-1.31074659526348114013671875</LongitudeDegrees>
            </Position>
            <AltitudeMeters>16.6000003814697265625</AltitudeMeters>
            <DistanceMeters>NAN</DistanceMeters>
          </Trackpoint>
          <Trackpoint>
            <Time>2022-07-06T15:07:01.000Z</Time>
            <Position>
              <LatitudeDegrees>43.90537583269178867340087890625</LatitudeDegrees>
              <LongitudeDegrees>-1.31071231327950954437255859375</LongitudeDegrees>
            </Position>
            <AltitudeMeters>16.6000003814697265625</AltitudeMeters>
            <DistanceMeters>NAN</DistanceMeters>
          </Trackpoint>
          <Trackpoint>
            <Time>2022-07-06T15:07:02.000Z</Time>
            <Position>
              <LatitudeDegrees>43.9053423888981342315673828125</LatitudeDegrees>
              <LongitudeDegrees>-1.31065062247216701507568359375</LongitudeDegrees>
            </Position>
            <AltitudeMeters>16.3999996185302734375</AltitudeMeters>
            <DistanceMeters>NAN</DistanceMeters>
          </Trackpoint>
          <Trackpoint>
            <Time>2022-07-06T15:07:06.000Z</Time>
            <Position>
              <LatitudeDegrees>43.9052300713956356048583984375</LatitudeDegrees>
              <LongitudeDegrees>-1.31044191308319568634033203125</LongitudeDegrees>
            </Position>
            <AltitudeMeters>16.200000762939453125</AltitudeMeters>
            <DistanceMeters>NAN</DistanceMeters>
          </Trackpoint>
          <Trackpoint>
            <Time>2022-07-06T15:07:12.000Z</Time>
            <Position>
              <LatitudeDegrees>43.90509369783103466033935546875</LatitudeDegrees>
              <LongitudeDegrees>-1.31011753343045711517333984375</LongitudeDegrees>
            </Position>
            <AltitudeMeters>16.6000003814697265625</AltitudeMeters>
            <DistanceMeters>NAN</DistanceMeters>
          </Trackpoint>
          <Trackpoint>
            <Time>2022-07-06T15:07:13.000Z</Time>
            <Position>
              <LatitudeDegrees>43.905061595141887664794921875</LatitudeDegrees>
              <LongitudeDegrees>-1.3100762106478214263916015625</LongitudeDegrees>
            </Position>
            <AltitudeMeters>16.6000003814697265625</AltitudeMeters>
            <DistanceMeters>NAN</DistanceMeters>
          </Trackpoint>
          <Trackpoint>
            <Time>2022-07-06T15:07:14.000Z</Time>
            <Position>
              <LatitudeDegrees>43.90502479858696460723876953125</LatitudeDegrees>
              <LongitudeDegrees>-1.310041844844818115234375</LongitudeDegrees>
            </Position>
            <AltitudeMeters>16.799999237060546875</AltitudeMeters>
            <DistanceMeters>NAN</DistanceMeters>
          </Trackpoint>
          <Trackpoint>
            <Time>2022-07-06T15:07:16.000Z</Time>
            <Position>
              <LatitudeDegrees>43.90495003201067447662353515625</LatitudeDegrees>
              <LongitudeDegrees>-1.31000496447086334228515625</LongitudeDegrees>
            </Position>
            <AltitudeMeters>16.799999237060546875</AltitudeMeters>
            <DistanceMeters>NAN</DistanceMeters>
          </Trackpoint>
          <Trackpoint>
            <Time>2022-07-06T15:07:17.000Z</Time>
            <Position>
              <LatitudeDegrees>43.90489286743104457855224609375</LatitudeDegrees>
              <LongitudeDegrees>-1.30999750457704067230224609375</LongitudeDegrees>
            </Position>
            <AltitudeMeters>17</AltitudeMeters>
            <DistanceMeters>NAN</DistanceMeters>
          </Trackpoint>
          <Trackpoint>
            <Time>2022-07-06T15:07:22.000Z</Time>
            <Position>
              <LatitudeDegrees>43.9047254808247089385986328125</LatitudeDegrees>
              <LongitudeDegrees>-1.30995056591928005218505859375</LongitudeDegrees>
            </Position>
            <AltitudeMeters>16.799999237060546875</AltitudeMeters>
            <DistanceMeters>NAN</DistanceMeters>
          </Trackpoint>
          <Trackpoint>
            <Time>2022-07-06T15:07:25.000Z</Time>
            <Position>
              <LatitudeDegrees>43.90471416525542736053466796875</LatitudeDegrees>
              <LongitudeDegrees>-1.309865154325962066650390625</LongitudeDegrees>
            </Position>
            <AltitudeMeters>16.6000003814697265625</AltitudeMeters>
            <DistanceMeters>NAN</DistanceMeters>
          </Trackpoint>
          <Trackpoint>
            <Time>2022-07-06T15:07:26.000Z</Time>
            <Position>
              <LatitudeDegrees>43.90470184385776519775390625</LatitudeDegrees>
              <LongitudeDegrees>-1.30984948016703128814697265625</LongitudeDegrees>
            </Position>
            <AltitudeMeters>16.6000003814697265625</AltitudeMeters>
            <DistanceMeters>NAN</DistanceMeters>
          </Trackpoint>
          <Trackpoint>
            <Time>2022-07-06T15:07:30.000Z</Time>
            <Position>
              <LatitudeDegrees>43.90468516387045383453369140625</LatitudeDegrees>
              <LongitudeDegrees>-1.3098472170531749725341796875</LongitudeDegrees>
            </Position>
            <AltitudeMeters>16.6000003814697265625</AltitudeMeters>
            <DistanceMeters>NAN</DistanceMeters>
          </Trackpoint>
          <Trackpoint>
            <Time>2022-07-06T15:07:33.000Z</Time>
            <Position>
              <LatitudeDegrees>43.90466840006411075592041015625</LatitudeDegrees>
              <LongitudeDegrees>-1.3097815029323101043701171875</LongitudeDegrees>
            </Position>
            <AltitudeMeters>16.3999996185302734375</AltitudeMeters>
            <DistanceMeters>NAN</DistanceMeters>
          </Trackpoint>
          <Trackpoint>
            <Time>2022-07-06T15:07:37.000Z</Time>
            <Position>
              <LatitudeDegrees>43.90458382666110992431640625</LatitudeDegrees>
              <LongitudeDegrees>-1.30968636833131313323974609375</LongitudeDegrees>
            </Position>
            <AltitudeMeters>16.6000003814697265625</AltitudeMeters>
            <DistanceMeters>NAN</DistanceMeters>
          </Trackpoint>
          <Trackpoint>
            <Time>2022-07-06T15:07:41.000Z</Time>
            <Position>
              <LatitudeDegrees>43.904473520815372467041015625</LatitudeDegrees>
              <LongitudeDegrees>-1.30960087291896343231201171875</LongitudeDegrees>
            </Position>
            <AltitudeMeters>16.6000003814697265625</AltitudeMeters>
            <DistanceMeters>NAN</DistanceMeters>
          </Trackpoint>
          <Trackpoint>
            <Time>2022-07-06T15:07:42.000Z</Time>
            <Position>
              <LatitudeDegrees>43.90445910394191741943359375</LatitudeDegrees>
              <LongitudeDegrees>-1.3095521740615367889404296875</LongitudeDegrees>
            </Position>
            <AltitudeMeters>16.6000003814697265625</AltitudeMeters>
            <DistanceMeters>NAN</DistanceMeters>
          </Trackpoint>
          <Trackpoint>
            <Time>2022-07-06T15:07:47.000Z</Time>
            <Position>
              <LatitudeDegrees>43.9044369757175445556640625</LatitudeDegrees>
              <LongitudeDegrees>-1.3092779181897640228271484375</LongitudeDegrees>
            </Position>
            <AltitudeMeters>16.6000003814697265625</AltitudeMeters>
            <DistanceMeters>NAN</DistanceMeters>
          </Trackpoint>
          <Trackpoint>
            <Time>2022-07-06T15:07:55.000Z</Time>
            <Position>
              <LatitudeDegrees>43.90441878698766231536865234375</LatitudeDegrees>
              <LongitudeDegrees>-1.3088420592248439788818359375</LongitudeDegrees>
            </Position>
            <AltitudeMeters>16.799999237060546875</AltitudeMeters>
            <DistanceMeters>NAN</DistanceMeters>
          </Trackpoint>
          <Trackpoint>
            <Time>2022-07-06T15:08:00.000Z</Time>
            <Position>
              <LatitudeDegrees>43.904382325708866119384765625</LatitudeDegrees>
              <LongitudeDegrees>-1.30859152413904666900634765625</LongitudeDegrees>
            </Position>
            <AltitudeMeters>16.6000003814697265625</AltitudeMeters>
            <DistanceMeters>NAN</DistanceMeters>
          </Trackpoint>
          <Trackpoint>
            <Time>2022-07-06T15:08:01.000Z</Time>
            <Position>
              <LatitudeDegrees>43.904355503618717193603515625</LatitudeDegrees>
              <LongitudeDegrees>-1.30856319330632686614990234375</LongitudeDegrees>
            </Position>
            <AltitudeMeters>16.6000003814697265625</AltitudeMeters>
            <DistanceMeters>NAN</DistanceMeters>
          </Trackpoint>
          <Trackpoint>
            <Time>2022-07-06T15:08:05.000Z</Time>
            <Position>
              <LatitudeDegrees>43.90427805483341217041015625</LatitudeDegrees>
              <LongitudeDegrees>-1.3084045238792896270751953125</LongitudeDegrees>
            </Position>
            <AltitudeMeters>16.6000003814697265625</AltitudeMeters>
            <DistanceMeters>NAN</DistanceMeters>
          </Trackpoint>
          <Trackpoint>
            <Time>2022-07-06T15:08:06.000Z</Time>
            <Position>
              <LatitudeDegrees>43.9042708463966846466064453125</LatitudeDegrees>
              <LongitudeDegrees>-1.30834559909999370574951171875</LongitudeDegrees>
            </Position>
            <AltitudeMeters>16.6000003814697265625</AltitudeMeters>
            <DistanceMeters>NAN</DistanceMeters>
          </Trackpoint>
          <Trackpoint>
            <Time>2022-07-06T15:08:10.000Z</Time>
            <Position>
              <LatitudeDegrees>43.904229439795017242431640625</LatitudeDegrees>
              <LongitudeDegrees>-1.3081034459173679351806640625</LongitudeDegrees>
            </Position>
            <AltitudeMeters>16.6000003814697265625</AltitudeMeters>
            <DistanceMeters>NAN</DistanceMeters>
          </Trackpoint>
          <Trackpoint>
            <Time>2022-07-06T15:08:13.000Z</Time>
            <Position>
              <LatitudeDegrees>43.9042001031339168548583984375</LatitudeDegrees>
              <LongitudeDegrees>-1.3079428486526012420654296875</LongitudeDegrees>
            </Position>
            <AltitudeMeters>16.3999996185302734375</AltitudeMeters>
            <DistanceMeters>NAN</DistanceMeters>
          </Trackpoint>
          <Trackpoint>
            <Time>2022-07-06T15:08:15.000Z</Time>
            <Position>
              <LatitudeDegrees>43.90419817529618740081787109375</LatitudeDegrees>
              <LongitudeDegrees>-1.3078063912689685821533203125</LongitudeDegrees>
            </Position>
            <AltitudeMeters>16.3999996185302734375</AltitudeMeters>
            <DistanceMeters>NAN</DistanceMeters>
          </Trackpoint>
          <Trackpoint>
            <Time>2022-07-06T15:08:16.000Z</Time>
            <Position>
              <LatitudeDegrees>43.90420295298099517822265625</LatitudeDegrees>
              <LongitudeDegrees>-1.307742185890674591064453125</LongitudeDegrees>
            </Position>
            <AltitudeMeters>16.3999996185302734375</AltitudeMeters>
            <DistanceMeters>NAN</DistanceMeters>
          </Trackpoint>
          <Trackpoint>
            <Time>2022-07-06T15:08:19.000Z</Time>
            <Position>
              <LatitudeDegrees>43.9042158611118793487548828125</LatitudeDegrees>
              <LongitudeDegrees>-1.307551749050617218017578125</LongitudeDegrees>
            </Position>
            <AltitudeMeters>16.200000762939453125</AltitudeMeters>
            <DistanceMeters>NAN</DistanceMeters>
          </Trackpoint>
          <Trackpoint>
            <Time>2022-07-06T15:08:26.000Z</Time>
            <Position>
              <LatitudeDegrees>43.90424863435328006744384765625</LatitudeDegrees>
              <LongitudeDegrees>-1.3071234337985515594482421875</LongitudeDegrees>
            </Position>
            <AltitudeMeters>15.3999996185302734375</AltitudeMeters>
            <DistanceMeters>NAN</DistanceMeters>
          </Trackpoint>
          <Trackpoint>
            <Time>2022-07-06T15:08:27.000Z</Time>
            <Position>
              <LatitudeDegrees>43.904251568019390106201171875</LatitudeDegrees>
              <LongitudeDegrees>-1.307075321674346923828125</LongitudeDegrees>
            </Position>
            <AltitudeMeters>15.3999996185302734375</AltitudeMeters>
            <DistanceMeters>NAN</DistanceMeters>
          </Trackpoint>
          <Trackpoint>
            <Time>2022-07-06T15:08:31.000Z</Time>
            <Position>
              <LatitudeDegrees>43.90428819693624973297119140625</LatitudeDegrees>
              <LongitudeDegrees>-1.3067968748509883880615234375</LongitudeDegrees>
            </Position>
            <AltitudeMeters>15.19999980926513671875</AltitudeMeters>
            <DistanceMeters>NAN</DistanceMeters>
          </Trackpoint>
          <Trackpoint>
            <Time>2022-07-06T15:08:33.000Z</Time>
            <Position>
              <LatitudeDegrees>43.904281742870807647705078125</LatitudeDegrees>
              <LongitudeDegrees>-1.30665916018187999725341796875</LongitudeDegrees>
            </Position>
            <AltitudeMeters>15.19999980926513671875</AltitudeMeters>
            <DistanceMeters>NAN</DistanceMeters>
          </Trackpoint>
          <Trackpoint>
            <Time>2022-07-06T15:08:35.000Z</Time>
            <Position>
              <LatitudeDegrees>43.904263973236083984375</LatitudeDegrees>
              <LongitudeDegrees>-1.30652588792145252227783203125</LongitudeDegrees>
            </Position>
            <AltitudeMeters>15.3999996185302734375</AltitudeMeters>
            <DistanceMeters>NAN</DistanceMeters>
          </Trackpoint>
          <Trackpoint>
            <Time>2022-07-06T15:08:37.000Z</Time>
            <Position>
              <LatitudeDegrees>43.90423488803207874298095703125</LatitudeDegrees>
              <LongitudeDegrees>-1.30639471113681793212890625</LongitudeDegrees>
            </Position>
            <AltitudeMeters>15.3999996185302734375</AltitudeMeters>
            <DistanceMeters>NAN</DistanceMeters>
          </Trackpoint>
          <Trackpoint>
            <Time>2022-07-06T15:08:38.000Z</Time>
            <Position>
              <LatitudeDegrees>43.90421829186379909515380859375</LatitudeDegrees>
              <LongitudeDegrees>-1.3063348643481731414794921875</LongitudeDegrees>
            </Position>
            <AltitudeMeters>15.3999996185302734375</AltitudeMeters>
            <DistanceMeters>NAN</DistanceMeters>
          </Trackpoint>
          <Trackpoint>
            <Time>2022-07-06T15:08:40.000Z</Time>
            <Position>
              <LatitudeDegrees>43.90418057329952716827392578125</LatitudeDegrees>
              <LongitudeDegrees>-1.30620804615318775177001953125</LongitudeDegrees>
            </Position>
            <AltitudeMeters>15.3999996185302734375</AltitudeMeters>
            <DistanceMeters>NAN</DistanceMeters>
          </Trackpoint>
          <Trackpoint>
            <Time>2022-07-06T15:08:42.000Z</Time>
            <Position>
              <LatitudeDegrees>43.904131539165973663330078125</LatitudeDegrees>
              <LongitudeDegrees>-1.30609002895653247833251953125</LongitudeDegrees>
            </Position>
            <AltitudeMeters>15.6000003814697265625</AltitudeMeters>
            <DistanceMeters>NAN</DistanceMeters>
          </Trackpoint>
          <Trackpoint>
            <Time>2022-07-06T15:08:43.000Z</Time>
            <Position>
              <LatitudeDegrees>43.90410463325679302215576171875</LatitudeDegrees>
              <LongitudeDegrees>-1.3060364685952663421630859375</LongitudeDegrees>
            </Position>
            <AltitudeMeters>15.6000003814697265625</AltitudeMeters>
            <DistanceMeters>NAN</DistanceMeters>
          </Trackpoint>
          <Trackpoint>
            <Time>2022-07-06T15:08:44.000Z</Time>
            <Position>
              <LatitudeDegrees>43.9040814153850078582763671875</LatitudeDegrees>
              <LongitudeDegrees>-1.30597787909209728240966796875</LongitudeDegrees>
            </Position>
            <AltitudeMeters>15.3999996185302734375</AltitudeMeters>
            <DistanceMeters>NAN</DistanceMeters>
          </Trackpoint>
          <Trackpoint>
            <Time>2022-07-06T15:08:46.000Z</Time>
            <Position>
              <LatitudeDegrees>43.904057778418064117431640625</LatitudeDegrees>
              <LongitudeDegrees>-1.305856592953205108642578125</LongitudeDegrees>
            </Position>
            <AltitudeMeters>15.3999996185302734375</AltitudeMeters>
            <DistanceMeters>NAN</DistanceMeters>
          </Trackpoint>
          <Trackpoint>
            <Time>2022-07-06T15:08:47.000Z</Time>
            <Position>
              <LatitudeDegrees>43.90405283309519290924072265625</LatitudeDegrees>
              <LongitudeDegrees>-1.30579615943133831024169921875</LongitudeDegrees>
            </Position>
            <AltitudeMeters>15.19999980926513671875</AltitudeMeters>
            <DistanceMeters>NAN</DistanceMeters>
          </Trackpoint>
          <Trackpoint>
            <Time>2022-07-06T15:08:48.000Z</Time>
            <Position>
              <LatitudeDegrees>43.904046379029750823974609375</LatitudeDegrees>
              <LongitudeDegrees>-1.30573748610913753509521484375</LongitudeDegrees>
            </Position>
            <AltitudeMeters>15.19999980926513671875</AltitudeMeters>
            <DistanceMeters>NAN</DistanceMeters>
          </Trackpoint>
          <Trackpoint>
            <Time>2022-07-06T15:08:50.000Z</Time>
            <Position>
              <LatitudeDegrees>43.90403154306113719940185546875</LatitudeDegrees>
              <LongitudeDegrees>-1.305620558559894561767578125</LongitudeDegrees>
            </Position>
            <AltitudeMeters>15.19999980926513671875</AltitudeMeters>
            <DistanceMeters>NAN</DistanceMeters>
          </Trackpoint>
          <Trackpoint>
            <Time>2022-07-06T15:08:51.000Z</Time>
            <Position>
              <LatitudeDegrees>43.90402316115796566009521484375</LatitudeDegrees>
              <LongitudeDegrees>-1.3055620528757572174072265625</LongitudeDegrees>
            </Position>
            <AltitudeMeters>15.3999996185302734375</AltitudeMeters>
            <DistanceMeters>NAN</DistanceMeters>
          </Trackpoint>
          <Trackpoint>
            <Time>2022-07-06T15:08:52.000Z</Time>
            <Position>
              <LatitudeDegrees>43.9040079899132251739501953125</LatitudeDegrees>
              <LongitudeDegrees>-1.30550949834287166595458984375</LongitudeDegrees>
            </Position>
            <AltitudeMeters>15.6000003814697265625</AltitudeMeters>
            <DistanceMeters>NAN</DistanceMeters>
          </Trackpoint>
          <Trackpoint>
            <Time>2022-07-06T15:08:57.000Z</Time>
            <Position>
              <LatitudeDegrees>43.903937749564647674560546875</LatitudeDegrees>
              <LongitudeDegrees>-1.3053072430193424224853515625</LongitudeDegrees>
            </Position>
            <AltitudeMeters>16.3999996185302734375</AltitudeMeters>
            <DistanceMeters>NAN</DistanceMeters>
          </Trackpoint>
          <Trackpoint>
            <Time>2022-07-06T15:09:04.000Z</Time>
            <Position>
              <LatitudeDegrees>43.90378494746983051300048828125</LatitudeDegrees>
              <LongitudeDegrees>-1.3050782494246959686279296875</LongitudeDegrees>
            </Position>
            <AltitudeMeters>17</AltitudeMeters>
            <DistanceMeters>NAN</DistanceMeters>
          </Trackpoint>
          <Trackpoint>
            <Time>2022-07-06T15:09:06.000Z</Time>
            <Position>
              <LatitudeDegrees>43.90374672599136829376220703125</LatitudeDegrees>
              <LongitudeDegrees>-1.30500054918229579925537109375</LongitudeDegrees>
            </Position>
            <AltitudeMeters>17</AltitudeMeters>
            <DistanceMeters>NAN</DistanceMeters>
          </Trackpoint>
          <Trackpoint>
            <Time>2022-07-06T15:09:07.000Z</Time>
            <Position>
              <LatitudeDegrees>43.9037327282130718231201171875</LatitudeDegrees>
              <LongitudeDegrees>-1.30495696328580379486083984375</LongitudeDegrees>
            </Position>
            <AltitudeMeters>17</AltitudeMeters>
            <DistanceMeters>NAN</DistanceMeters>
          </Trackpoint>
          <Trackpoint>
            <Time>2022-07-06T15:09:10.000Z</Time>
            <Position>
              <LatitudeDegrees>43.903680928051471710205078125</LatitudeDegrees>
              <LongitudeDegrees>-1.3048311509191989898681640625</LongitudeDegrees>
            </Position>
            <AltitudeMeters>17</AltitudeMeters>
            <DistanceMeters>NAN</DistanceMeters>
          </Trackpoint>
          <Trackpoint>
            <Time>2022-07-06T15:09:16.000Z</Time>
            <Position>
              <LatitudeDegrees>43.903579674661159515380859375</LatitudeDegrees>
              <LongitudeDegrees>-1.30457541905343532562255859375</LongitudeDegrees>
            </Position>
            <AltitudeMeters>17</AltitudeMeters>
            <DistanceMeters>NAN</DistanceMeters>
          </Trackpoint>
          <Trackpoint>
            <Time>2022-07-06T15:09:22.000Z</Time>
            <Position>
              <LatitudeDegrees>43.9035359211266040802001953125</LatitudeDegrees>
              <LongitudeDegrees>-1.30430501885712146759033203125</LongitudeDegrees>
            </Position>
            <AltitudeMeters>17.3999996185302734375</AltitudeMeters>
            <DistanceMeters>NAN</DistanceMeters>
          </Trackpoint>
          <Trackpoint>
            <Time>2022-07-06T15:09:24.000Z</Time>
            <Position>
              <LatitudeDegrees>43.90350381843745708465576171875</LatitudeDegrees>
              <LongitudeDegrees>-1.3042229600250720977783203125</LongitudeDegrees>
            </Position>
            <AltitudeMeters>17.3999996185302734375</AltitudeMeters>
            <DistanceMeters>NAN</DistanceMeters>
          </Trackpoint>
          <Trackpoint>
            <Time>2022-07-06T15:09:26.000Z</Time>
            <Position>
              <LatitudeDegrees>43.90348303131759166717529296875</LatitudeDegrees>
              <LongitudeDegrees>-1.3041274063289165496826171875</LongitudeDegrees>
            </Position>
            <AltitudeMeters>17.3999996185302734375</AltitudeMeters>
            <DistanceMeters>NAN</DistanceMeters>
          </Trackpoint>
          <Trackpoint>
            <Time>2022-07-06T15:09:27.000Z</Time>
            <Position>
              <LatitudeDegrees>43.90347314067184925079345703125</LatitudeDegrees>
              <LongitudeDegrees>-1.3040683977305889129638671875</LongitudeDegrees>
            </Position>
            <AltitudeMeters>17.3999996185302734375</AltitudeMeters>
            <DistanceMeters>NAN</DistanceMeters>
          </Trackpoint>
          <Trackpoint>
            <Time>2022-07-06T15:09:29.000Z</Time>
            <Position>
              <LatitudeDegrees>43.9034467376768589019775390625</LatitudeDegrees>
              <LongitudeDegrees>-1.30397460423409938812255859375</LongitudeDegrees>
            </Position>
            <AltitudeMeters>17.3999996185302734375</AltitudeMeters>
            <DistanceMeters>NAN</DistanceMeters>
          </Trackpoint>
          <Trackpoint>
            <Time>2022-07-06T15:09:32.000Z</Time>
            <Position>
              <LatitudeDegrees>43.90341530553996562957763671875</LatitudeDegrees>
              <LongitudeDegrees>-1.30383697338402271270751953125</LongitudeDegrees>
            </Position>
            <AltitudeMeters>17.3999996185302734375</AltitudeMeters>
            <DistanceMeters>NAN</DistanceMeters>
          </Trackpoint>
          <Trackpoint>
            <Time>2022-07-06T15:09:34.000Z</Time>
            <Position>
              <LatitudeDegrees>43.90339971520006656646728515625</LatitudeDegrees>
              <LongitudeDegrees>-1.3037492148578166961669921875</LongitudeDegrees>
            </Position>
            <AltitudeMeters>17.6000003814697265625</AltitudeMeters>
            <DistanceMeters>NAN</DistanceMeters>
          </Trackpoint>
          <Trackpoint>
            <Time>2022-07-06T15:09:36.000Z</Time>
            <Position>
              <LatitudeDegrees>43.90339032746851444244384765625</LatitudeDegrees>
              <LongitudeDegrees>-1.3036650605499744415283203125</LongitudeDegrees>
            </Position>
            <AltitudeMeters>17.6000003814697265625</AltitudeMeters>
            <DistanceMeters>NAN</DistanceMeters>
          </Trackpoint>
          <Trackpoint>
            <Time>2022-07-06T15:09:38.000Z</Time>
            <Position>
              <LatitudeDegrees>43.90337674878537654876708984375</LatitudeDegrees>
              <LongitudeDegrees>-1.3036050461232662200927734375</LongitudeDegrees>
            </Position>
            <AltitudeMeters>17.799999237060546875</AltitudeMeters>
            <DistanceMeters>NAN</DistanceMeters>
          </Trackpoint>
          <Trackpoint>
            <Time>2022-07-06T15:09:42.000Z</Time>
            <Position>
              <LatitudeDegrees>43.903429470956325531005859375</LatitudeDegrees>
              <LongitudeDegrees>-1.30344654433429241180419921875</LongitudeDegrees>
            </Position>
            <AltitudeMeters>18.3999996185302734375</AltitudeMeters>
            <DistanceMeters>NAN</DistanceMeters>
          </Trackpoint>
          <Trackpoint>
            <Time>2022-07-06T15:09:43.000Z</Time>
            <Position>
              <LatitudeDegrees>43.9034323208034038543701171875</LatitudeDegrees>
              <LongitudeDegrees>-1.3034109212458133697509765625</LongitudeDegrees>
            </Position>
            <AltitudeMeters>18.3999996185302734375</AltitudeMeters>
            <DistanceMeters>NAN</DistanceMeters>
          </Trackpoint>
          <Trackpoint>
            <Time>2022-07-06T15:09:45.000Z</Time>
            <Position>
              <LatitudeDegrees>43.9034246094524860382080078125</LatitudeDegrees>
              <LongitudeDegrees>-1.303348056972026824951171875</LongitudeDegrees>
            </Position>
            <AltitudeMeters>18.6000003814697265625</AltitudeMeters>
            <DistanceMeters>NAN</DistanceMeters>
          </Trackpoint>
          <Trackpoint>
            <Time>2022-07-06T15:09:46.000Z</Time>
            <Position>
              <LatitudeDegrees>43.9034313149750232696533203125</LatitudeDegrees>
              <LongitudeDegrees>-1.30332299508154392242431640625</LongitudeDegrees>
            </Position>
            <AltitudeMeters>18.6000003814697265625</AltitudeMeters>
            <DistanceMeters>NAN</DistanceMeters>
          </Trackpoint>
          <Trackpoint>
            <Time>2022-07-06T15:09:49.000Z</Time>
            <Position>
              <LatitudeDegrees>43.90347129665315151214599609375</LatitudeDegrees>
              <LongitudeDegrees>-1.30320397205650806427001953125</LongitudeDegrees>
            </Position>
            <AltitudeMeters>18.799999237060546875</AltitudeMeters>
            <DistanceMeters>NAN</DistanceMeters>
          </Trackpoint>
          <Trackpoint>
            <Time>2022-07-06T15:09:50.000Z</Time>
            <Position>
              <LatitudeDegrees>43.90348621644079685211181640625</LatitudeDegrees>
              <LongitudeDegrees>-1.3031564466655254364013671875</LongitudeDegrees>
            </Position>
            <AltitudeMeters>18.799999237060546875</AltitudeMeters>
            <DistanceMeters>NAN</DistanceMeters>
          </Trackpoint>
          <Trackpoint>
            <Time>2022-07-06T15:09:54.000Z</Time>
            <Position>
              <LatitudeDegrees>43.90352829359471797943115234375</LatitudeDegrees>
              <LongitudeDegrees>-1.302993334829807281494140625</LongitudeDegrees>
            </Position>
            <AltitudeMeters>19.3999996185302734375</AltitudeMeters>
            <DistanceMeters>NAN</DistanceMeters>
          </Trackpoint>
          <Trackpoint>
            <Time>2022-07-06T15:09:56.000Z</Time>
            <Position>
              <LatitudeDegrees>43.9035359211266040802001953125</LatitudeDegrees>
              <LongitudeDegrees>-1.302916221320629119873046875</LongitudeDegrees>
            </Position>
            <AltitudeMeters>19.3999996185302734375</AltitudeMeters>
            <DistanceMeters>NAN</DistanceMeters>
          </Trackpoint>
          <Trackpoint>
            <Time>2022-07-06T15:09:57.000Z</Time>
            <Position>
              <LatitudeDegrees>43.90354706905782222747802734375</LatitudeDegrees>
              <LongitudeDegrees>-1.3028778322041034698486328125</LongitudeDegrees>
            </Position>
            <AltitudeMeters>19.6000003814697265625</AltitudeMeters>
            <DistanceMeters>NAN</DistanceMeters>
          </Trackpoint>
          <Trackpoint>
            <Time>2022-07-06T15:10:02.000Z</Time>
            <Position>
              <LatitudeDegrees>43.9036180637776851654052734375</LatitudeDegrees>
              <LongitudeDegrees>-1.3026518560945987701416015625</LongitudeDegrees>
            </Position>
            <AltitudeMeters>20</AltitudeMeters>
            <DistanceMeters>NAN</DistanceMeters>
          </Trackpoint>
          <Trackpoint>
            <Time>2022-07-06T15:10:09.000Z</Time>
            <Position>
              <LatitudeDegrees>43.90370951034128665924072265625</LatitudeDegrees>
              <LongitudeDegrees>-1.30228984169661998748779296875</LongitudeDegrees>
            </Position>
            <AltitudeMeters>20</AltitudeMeters>
            <DistanceMeters>NAN</DistanceMeters>
          </Trackpoint>
          <Trackpoint>
            <Time>2022-07-06T15:10:11.000Z</Time>
            <Position>
              <LatitudeDegrees>43.90374697744846343994140625</LatitudeDegrees>
              <LongitudeDegrees>-1.3021948747336864471435546875</LongitudeDegrees>
            </Position>
            <AltitudeMeters>20</AltitudeMeters>
            <DistanceMeters>NAN</DistanceMeters>
          </Trackpoint>
          <Trackpoint>
            <Time>2022-07-06T15:10:14.000Z</Time>
            <Position>
              <LatitudeDegrees>43.90379198826849460601806640625</LatitudeDegrees>
              <LongitudeDegrees>-1.302043162286281585693359375</LongitudeDegrees>
            </Position>
            <AltitudeMeters>20</AltitudeMeters>
            <DistanceMeters>NAN</DistanceMeters>
          </Trackpoint>
          <Trackpoint>
            <Time>2022-07-06T15:10:15.000Z</Time>
            <Position>
              <LatitudeDegrees>43.90381176955997943878173828125</LatitudeDegrees>
              <LongitudeDegrees>-1.3019911944866180419921875</LongitudeDegrees>
            </Position>
            <AltitudeMeters>20</AltitudeMeters>
            <DistanceMeters>NAN</DistanceMeters>
          </Trackpoint>
          <Trackpoint>
            <Time>2022-07-06T15:10:18.000Z</Time>
            <Position>
              <LatitudeDegrees>43.90387044288218021392822265625</LatitudeDegrees>
              <LongitudeDegrees>-1.3018391467630863189697265625</LongitudeDegrees>
            </Position>
            <AltitudeMeters>20.200000762939453125</AltitudeMeters>
            <DistanceMeters>NAN</DistanceMeters>
          </Trackpoint>
          <Trackpoint>
            <Time>2022-07-06T15:10:19.000Z</Time>
            <Position>
              <LatitudeDegrees>43.90388871543109416961669921875</LatitudeDegrees>
              <LongitudeDegrees>-1.3017833232879638671875</LongitudeDegrees>
            </Position>
            <AltitudeMeters>20.200000762939453125</AltitudeMeters>
            <DistanceMeters>NAN</DistanceMeters>
          </Trackpoint>
          <Trackpoint>
            <Time>2022-07-06T15:10:20.000Z</Time>
            <Position>
              <LatitudeDegrees>43.9039064012467861175537109375</LatitudeDegrees>
              <LongitudeDegrees>-1.30172775126993656158447265625</LongitudeDegrees>
            </Position>
            <AltitudeMeters>20.3999996185302734375</AltitudeMeters>
            <DistanceMeters>NAN</DistanceMeters>
          </Trackpoint>
          <Trackpoint>
            <Time>2022-07-06T15:10:22.000Z</Time>
            <Position>
              <LatitudeDegrees>43.9039327204227447509765625</LatitudeDegrees>
              <LongitudeDegrees>-1.30162012763321399688720703125</LongitudeDegrees>
            </Position>
            <AltitudeMeters>20.3999996185302734375</AltitudeMeters>
            <DistanceMeters>NAN</DistanceMeters>
          </Trackpoint>
          <Trackpoint>
            <Time>2022-07-06T15:10:23.000Z</Time>
            <Position>
              <LatitudeDegrees>43.903949148952960968017578125</LatitudeDegrees>
              <LongitudeDegrees>-1.3015585206449031829833984375</LongitudeDegrees>
            </Position>
            <AltitudeMeters>20.3999996185302734375</AltitudeMeters>
            <DistanceMeters>NAN</DistanceMeters>
          </Trackpoint>
          <Trackpoint>
            <Time>2022-07-06T15:10:25.000Z</Time>
            <Position>
              <LatitudeDegrees>43.9039810001850128173828125</LatitudeDegrees>
              <LongitudeDegrees>-1.30143790505826473236083984375</LongitudeDegrees>
            </Position>
            <AltitudeMeters>20.3999996185302734375</AltitudeMeters>
            <DistanceMeters>NAN</DistanceMeters>
          </Trackpoint>
          <Trackpoint>
            <Time>2022-07-06T15:10:26.000Z</Time>
            <Position>
              <LatitudeDegrees>43.90399684198200702667236328125</LatitudeDegrees>
              <LongitudeDegrees>-1.3013808242976665496826171875</LongitudeDegrees>
            </Position>
            <AltitudeMeters>20.3999996185302734375</AltitudeMeters>
            <DistanceMeters>NAN</DistanceMeters>
          </Trackpoint>
          <Trackpoint>
            <Time>2022-07-06T15:10:27.000Z</Time>
            <Position>
              <LatitudeDegrees>43.90401494689285755157470703125</LatitudeDegrees>
              <LongitudeDegrees>-1.30132759921252727508544921875</LongitudeDegrees>
            </Position>
            <AltitudeMeters>20.200000762939453125</AltitudeMeters>
            <DistanceMeters>NAN</DistanceMeters>
          </Trackpoint>
          <Trackpoint>
            <Time>2022-07-06T15:10:30.000Z</Time>
            <Position>
              <LatitudeDegrees>43.9040559343993663787841796875</LatitudeDegrees>
              <LongitudeDegrees>-1.30115241743624210357666015625</LongitudeDegrees>
            </Position>
            <AltitudeMeters>20.200000762939453125</AltitudeMeters>
            <DistanceMeters>NAN</DistanceMeters>
          </Trackpoint>
          <Trackpoint>
            <Time>2022-07-06T15:10:35.000Z</Time>
            <Position>
              <LatitudeDegrees>43.90410077758133411407470703125</LatitudeDegrees>
              <LongitudeDegrees>-1.3008537702262401580810546875</LongitudeDegrees>
            </Position>
            <AltitudeMeters>20.200000762939453125</AltitudeMeters>
            <DistanceMeters>NAN</DistanceMeters>
          </Trackpoint>
          <Trackpoint>
            <Time>2022-07-06T15:10:36.000Z</Time>
            <Position>
              <LatitudeDegrees>43.90408535487949848175048828125</LatitudeDegrees>
              <LongitudeDegrees>-1.3007977791130542755126953125</LongitudeDegrees>
            </Position>
            <AltitudeMeters>20.200000762939453125</AltitudeMeters>
            <DistanceMeters>NAN</DistanceMeters>
          </Trackpoint>
          <Trackpoint>
            <Time>2022-07-06T15:10:38.000Z</Time>
            <Position>
              <LatitudeDegrees>43.9040757156908512115478515625</LatitudeDegrees>
              <LongitudeDegrees>-1.30067288875579833984375</LongitudeDegrees>
            </Position>
            <AltitudeMeters>20.3999996185302734375</AltitudeMeters>
            <DistanceMeters>NAN</DistanceMeters>
          </Trackpoint>
          <Trackpoint>
            <Time>2022-07-06T15:10:40.000Z</Time>
            <Position>
              <LatitudeDegrees>43.90409625135362148284912109375</LatitudeDegrees>
              <LongitudeDegrees>-1.30054187960922718048095703125</LongitudeDegrees>
            </Position>
            <AltitudeMeters>20.200000762939453125</AltitudeMeters>
            <DistanceMeters>NAN</DistanceMeters>
          </Trackpoint>
          <Trackpoint>
            <Time>2022-07-06T15:10:42.000Z</Time>
            <Position>
              <LatitudeDegrees>43.90412357635796070098876953125</LatitudeDegrees>
              <LongitudeDegrees>-1.30041279830038547515869140625</LongitudeDegrees>
            </Position>
            <AltitudeMeters>20.200000762939453125</AltitudeMeters>
            <DistanceMeters>NAN</DistanceMeters>
          </Trackpoint>
          <Trackpoint>
            <Time>2022-07-06T15:10:43.000Z</Time>
            <Position>
              <LatitudeDegrees>43.904128186404705047607421875</LatitudeDegrees>
              <LongitudeDegrees>-1.30034138448536396026611328125</LongitudeDegrees>
            </Position>
            <AltitudeMeters>20.200000762939453125</AltitudeMeters>
            <DistanceMeters>NAN</DistanceMeters>
          </Trackpoint>
          <Trackpoint>
            <Time>2022-07-06T15:10:45.000Z</Time>
            <Position>
              <LatitudeDegrees>43.90412458218634128570556640625</LatitudeDegrees>
              <LongitudeDegrees>-1.30021330900490283966064453125</LongitudeDegrees>
            </Position>
            <AltitudeMeters>20.200000762939453125</AltitudeMeters>
            <DistanceMeters>NAN</DistanceMeters>
          </Trackpoint>
          <Trackpoint>
            <Time>2022-07-06T15:10:47.000Z</Time>
            <Position>
              <LatitudeDegrees>43.90412659384310245513916015625</LatitudeDegrees>
              <LongitudeDegrees>-1.30008213222026824951171875</LongitudeDegrees>
            </Position>
            <AltitudeMeters>20.3999996185302734375</AltitudeMeters>
            <DistanceMeters>NAN</DistanceMeters>
          </Trackpoint>
          <Trackpoint>
            <Time>2022-07-06T15:10:56.000Z</Time>
            <Position>
              <LatitudeDegrees>43.9040928147733211517333984375</LatitudeDegrees>
              <LongitudeDegrees>-1.29950621165335178375244140625</LongitudeDegrees>
            </Position>
            <AltitudeMeters>20.3999996185302734375</AltitudeMeters>
            <DistanceMeters>NAN</DistanceMeters>
          </Trackpoint>
          <Trackpoint>
            <Time>2022-07-06T15:10:59.000Z</Time>
            <Position>
              <LatitudeDegrees>43.90407957136631011962890625</LatitudeDegrees>
              <LongitudeDegrees>-1.2993128411471843719482421875</LongitudeDegrees>
            </Position>
            <AltitudeMeters>20.3999996185302734375</AltitudeMeters>
            <DistanceMeters>NAN</DistanceMeters>
          </Trackpoint>
          <Trackpoint>
            <Time>2022-07-06T15:11:11.000Z</Time>
            <Position>
              <LatitudeDegrees>43.90403791330754756927490234375</LatitudeDegrees>
              <LongitudeDegrees>-1.29861370660364627838134765625</LongitudeDegrees>
            </Position>
            <AltitudeMeters>20.6000003814697265625</AltitudeMeters>
            <DistanceMeters>NAN</DistanceMeters>
          </Trackpoint>
          <Trackpoint>
            <Time>2022-07-06T15:11:17.000Z</Time>
            <Position>
              <LatitudeDegrees>43.9040193893015384674072265625</LatitudeDegrees>
              <LongitudeDegrees>-1.29825194366276264190673828125</LongitudeDegrees>
            </Position>
            <AltitudeMeters>20.6000003814697265625</AltitudeMeters>
            <DistanceMeters>NAN</DistanceMeters>
          </Trackpoint>
          <Trackpoint>
            <Time>2022-07-06T15:11:23.000Z</Time>
            <Position>
              <LatitudeDegrees>43.90399835072457790374755859375</LatitudeDegrees>
              <LongitudeDegrees>-1.29789940081536769866943359375</LongitudeDegrees>
            </Position>
            <AltitudeMeters>20.6000003814697265625</AltitudeMeters>
            <DistanceMeters>NAN</DistanceMeters>
          </Trackpoint>
          <Trackpoint>
            <Time>2022-07-06T15:11:25.000Z</Time>
            <Position>
              <LatitudeDegrees>43.90399902127683162689208984375</LatitudeDegrees>
              <LongitudeDegrees>-1.29776763729751110076904296875</LongitudeDegrees>
            </Position>
            <AltitudeMeters>20.6000003814697265625</AltitudeMeters>
            <DistanceMeters>NAN</DistanceMeters>
          </Trackpoint>
          <Trackpoint>
            <Time>2022-07-06T15:11:32.000Z</Time>
            <Position>
              <LatitudeDegrees>43.90398091636598110198974609375</LatitudeDegrees>
              <LongitudeDegrees>-1.2973253242671489715576171875</LongitudeDegrees>
            </Position>
            <AltitudeMeters>21</AltitudeMeters>
            <DistanceMeters>NAN</DistanceMeters>
          </Trackpoint>
          <Trackpoint>
            <Time>2022-07-06T15:11:34.000Z</Time>
            <Position>
              <LatitudeDegrees>43.903971947729587554931640625</LatitudeDegrees>
              <LongitudeDegrees>-1.29721694625914096832275390625</LongitudeDegrees>
            </Position>
            <AltitudeMeters>21.200000762939453125</AltitudeMeters>
            <DistanceMeters>NAN</DistanceMeters>
          </Trackpoint>
          <Trackpoint>
            <Time>2022-07-06T15:11:41.000Z</Time>
            <Position>
              <LatitudeDegrees>43.90394118614494800567626953125</LatitudeDegrees>
              <LongitudeDegrees>-1.296794414520263671875</LongitudeDegrees>
            </Position>
            <AltitudeMeters>21.3999996185302734375</AltitudeMeters>
            <DistanceMeters>NAN</DistanceMeters>
          </Trackpoint>
          <Trackpoint>
            <Time>2022-07-06T15:11:44.000Z</Time>
            <Position>
              <LatitudeDegrees>43.903912939131259918212890625</LatitudeDegrees>
              <LongitudeDegrees>-1.296637170016765594482421875</LongitudeDegrees>
            </Position>
            <AltitudeMeters>21.6000003814697265625</AltitudeMeters>
            <DistanceMeters>NAN</DistanceMeters>
          </Trackpoint>
          <Trackpoint>
            <Time>2022-07-06T15:11:45.000Z</Time>
            <Position>
              <LatitudeDegrees>43.90389961190521717071533203125</LatitudeDegrees>
              <LongitudeDegrees>-1.29659182392060756683349609375</LongitudeDegrees>
            </Position>
            <AltitudeMeters>21.6000003814697265625</AltitudeMeters>
            <DistanceMeters>NAN</DistanceMeters>
          </Trackpoint>
          <Trackpoint>
            <Time>2022-07-06T15:11:48.000Z</Time>
            <Position>
              <LatitudeDegrees>43.90388200990855693817138671875</LatitudeDegrees>
              <LongitudeDegrees>-1.29642318002879619598388671875</LongitudeDegrees>
            </Position>
            <AltitudeMeters>22</AltitudeMeters>
            <DistanceMeters>NAN</DistanceMeters>
          </Trackpoint>
          <Trackpoint>
            <Time>2022-07-06T15:11:56.000Z</Time>
            <Position>
              <LatitudeDegrees>43.90381336212158203125</LatitudeDegrees>
              <LongitudeDegrees>-1.2959691323339939117431640625</LongitudeDegrees>
            </Position>
            <AltitudeMeters>22</AltitudeMeters>
            <DistanceMeters>NAN</DistanceMeters>
          </Trackpoint>
          <Trackpoint>
            <Time>2022-07-06T15:12:05.000Z</Time>
            <Position>
              <LatitudeDegrees>43.90374706126749515533447265625</LatitudeDegrees>
              <LongitudeDegrees>-1.295481137931346893310546875</LongitudeDegrees>
            </Position>
            <AltitudeMeters>22</AltitudeMeters>
            <DistanceMeters>NAN</DistanceMeters>
          </Trackpoint>
          <Trackpoint>
            <Time>2022-07-06T15:12:08.000Z</Time>
            <Position>
              <LatitudeDegrees>43.90371353365480899810791015625</LatitudeDegrees>
              <LongitudeDegrees>-1.29533470608294010162353515625</LongitudeDegrees>
            </Position>
            <AltitudeMeters>22</AltitudeMeters>
            <DistanceMeters>NAN</DistanceMeters>
          </Trackpoint>
          <Trackpoint>
            <Time>2022-07-06T15:12:09.000Z</Time>
            <Position>
              <LatitudeDegrees>43.90371001325547695159912109375</LatitudeDegrees>
              <LongitudeDegrees>-1.29528474994003772735595703125</LongitudeDegrees>
            </Position>
            <AltitudeMeters>22.200000762939453125</AltitudeMeters>
            <DistanceMeters>NAN</DistanceMeters>
          </Trackpoint>
          <Trackpoint>
            <Time>2022-07-06T15:12:14.000Z</Time>
            <Position>
              <LatitudeDegrees>43.903671540319919586181640625</LatitudeDegrees>
              <LongitudeDegrees>-1.2950504757463932037353515625</LongitudeDegrees>
            </Position>
            <AltitudeMeters>22.3999996185302734375</AltitudeMeters>
            <DistanceMeters>NAN</DistanceMeters>
          </Trackpoint>
          <Trackpoint>
            <Time>2022-07-06T15:12:18.000Z</Time>
            <Position>
              <LatitudeDegrees>43.9036564528942108154296875</LatitudeDegrees>
              <LongitudeDegrees>-1.29486925899982452392578125</LongitudeDegrees>
            </Position>
            <AltitudeMeters>22.3999996185302734375</AltitudeMeters>
            <DistanceMeters>NAN</DistanceMeters>
          </Trackpoint>
          <Trackpoint>
            <Time>2022-07-06T15:12:21.000Z</Time>
            <Position>
              <LatitudeDegrees>43.903632648289203643798828125</LatitudeDegrees>
              <LongitudeDegrees>-1.29470841027796268463134765625</LongitudeDegrees>
            </Position>
            <AltitudeMeters>22.3999996185302734375</AltitudeMeters>
            <DistanceMeters>NAN</DistanceMeters>
          </Trackpoint>
          <Trackpoint>
            <Time>2022-07-06T15:12:25.000Z</Time>
            <Position>
              <LatitudeDegrees>43.903594426810741424560546875</LatitudeDegrees>
              <LongitudeDegrees>-1.294494085013866424560546875</LongitudeDegrees>
            </Position>
            <AltitudeMeters>22.3999996185302734375</AltitudeMeters>
            <DistanceMeters>NAN</DistanceMeters>
          </Trackpoint>
          <Trackpoint>
            <Time>2022-07-06T15:12:32.000Z</Time>
            <Position>
              <LatitudeDegrees>43.90350214205682277679443359375</LatitudeDegrees>
              <LongitudeDegrees>-1.294147074222564697265625</LongitudeDegrees>
            </Position>
            <AltitudeMeters>22.3999996185302734375</AltitudeMeters>
            <DistanceMeters>NAN</DistanceMeters>
          </Trackpoint>
          <Trackpoint>
            <Time>2022-07-06T15:12:37.000Z</Time>
            <Position>
              <LatitudeDegrees>43.903483450412750244140625</LatitudeDegrees>
              <LongitudeDegrees>-1.29390391521155834197998046875</LongitudeDegrees>
            </Position>
            <AltitudeMeters>22.6000003814697265625</AltitudeMeters>
            <DistanceMeters>NAN</DistanceMeters>
          </Trackpoint>
          <Trackpoint>
            <Time>2022-07-06T15:12:38.000Z</Time>
            <Position>
              <LatitudeDegrees>43.90347431413829326629638671875</LatitudeDegrees>
              <LongitudeDegrees>-1.293855048716068267822265625</LongitudeDegrees>
            </Position>
            <AltitudeMeters>22.6000003814697265625</AltitudeMeters>
            <DistanceMeters>NAN</DistanceMeters>
          </Trackpoint>
          <Trackpoint>
            <Time>2022-07-06T15:12:42.000Z</Time>
            <Position>
              <LatitudeDegrees>43.9034142158925533294677734375</LatitudeDegrees>
              <LongitudeDegrees>-1.293663270771503448486328125</LongitudeDegrees>
            </Position>
            <AltitudeMeters>22.3999996185302734375</AltitudeMeters>
            <DistanceMeters>NAN</DistanceMeters>
          </Trackpoint>
          <Trackpoint>
            <Time>2022-07-06T15:12:51.000Z</Time>
            <Position>
              <LatitudeDegrees>43.903220929205417633056640625</LatitudeDegrees>
              <LongitudeDegrees>-1.2932295911014080047607421875</LongitudeDegrees>
            </Position>
            <AltitudeMeters>22.3999996185302734375</AltitudeMeters>
            <DistanceMeters>NAN</DistanceMeters>
          </Trackpoint>
          <Trackpoint>
            <Time>2022-07-06T15:12:57.000Z</Time>
            <Position>
              <LatitudeDegrees>43.903082795441150665283203125</LatitudeDegrees>
              <LongitudeDegrees>-1.2929801456630229949951171875</LongitudeDegrees>
            </Position>
            <AltitudeMeters>22.3999996185302734375</AltitudeMeters>
            <DistanceMeters>NAN</DistanceMeters>
          </Trackpoint>
          <Trackpoint>
            <Time>2022-07-06T15:13:02.000Z</Time>
            <Position>
              <LatitudeDegrees>43.902914486825466156005859375</LatitudeDegrees>
              <LongitudeDegrees>-1.29290831275284290313720703125</LongitudeDegrees>
            </Position>
            <AltitudeMeters>22.6000003814697265625</AltitudeMeters>
            <DistanceMeters>NAN</DistanceMeters>
          </Trackpoint>
          <Trackpoint>
            <Time>2022-07-06T15:13:09.000Z</Time>
            <Position>
              <LatitudeDegrees>43.90266311354935169219970703125</LatitudeDegrees>
              <LongitudeDegrees>-1.29291082732379436492919921875</LongitudeDegrees>
            </Position>
            <AltitudeMeters>22.3999996185302734375</AltitudeMeters>
            <DistanceMeters>NAN</DistanceMeters>
          </Trackpoint>
          <Trackpoint>
            <Time>2022-07-06T15:13:17.000Z</Time>
            <Position>
              <LatitudeDegrees>43.90230889432132244110107421875</LatitudeDegrees>
              <LongitudeDegrees>-1.292837820947170257568359375</LongitudeDegrees>
            </Position>
            <AltitudeMeters>21.799999237060546875</AltitudeMeters>
            <DistanceMeters>NAN</DistanceMeters>
          </Trackpoint>
          <Trackpoint>
            <Time>2022-07-06T15:13:18.000Z</Time>
            <Position>
              <LatitudeDegrees>43.902262710034847259521484375</LatitudeDegrees>
              <LongitudeDegrees>-1.292838491499423980712890625</LongitudeDegrees>
            </Position>
            <AltitudeMeters>21.6000003814697265625</AltitudeMeters>
            <DistanceMeters>NAN</DistanceMeters>
          </Trackpoint>
          <Trackpoint>
            <Time>2022-07-06T15:13:25.000Z</Time>
            <Position>
              <LatitudeDegrees>43.90195484273135662078857421875</LatitudeDegrees>
              <LongitudeDegrees>-1.29278912208974361419677734375</LongitudeDegrees>
            </Position>
            <AltitudeMeters>21.6000003814697265625</AltitudeMeters>
            <DistanceMeters>NAN</DistanceMeters>
          </Trackpoint>
          <Trackpoint>
            <Time>2022-07-06T15:13:34.000Z</Time>
            <Position>
              <LatitudeDegrees>43.90154086053371429443359375</LatitudeDegrees>
              <LongitudeDegrees>-1.292736232280731201171875</LongitudeDegrees>
            </Position>
            <AltitudeMeters>21.6000003814697265625</AltitudeMeters>
            <DistanceMeters>NAN</DistanceMeters>
          </Trackpoint>
          <Trackpoint>
            <Time>2022-07-06T15:13:35.000Z</Time>
            <Position>
              <LatitudeDegrees>43.90147984027862548828125</LatitudeDegrees>
              <LongitudeDegrees>-1.292736567556858062744140625</LongitudeDegrees>
            </Position>
            <AltitudeMeters>21.6000003814697265625</AltitudeMeters>
            <DistanceMeters>NAN</DistanceMeters>
          </Trackpoint>
          <Trackpoint>
            <Time>2022-07-06T15:13:39.000Z</Time>
            <Position>
              <LatitudeDegrees>43.901295773684978485107421875</LatitudeDegrees>
              <LongitudeDegrees>-1.2927300296723842620849609375</LongitudeDegrees>
            </Position>
            <AltitudeMeters>21.3999996185302734375</AltitudeMeters>
            <DistanceMeters>NAN</DistanceMeters>
          </Trackpoint>
          <Trackpoint>
            <Time>2022-07-06T15:13:45.000Z</Time>
            <Position>
              <LatitudeDegrees>43.9010163210332393646240234375</LatitudeDegrees>
              <LongitudeDegrees>-1.29266389645636081695556640625</LongitudeDegrees>
            </Position>
            <AltitudeMeters>21.200000762939453125</AltitudeMeters>
            <DistanceMeters>NAN</DistanceMeters>
          </Trackpoint>
          <Trackpoint>
            <Time>2022-07-06T15:13:52.000Z</Time>
            <Position>
              <LatitudeDegrees>43.9006753452122211456298828125</LatitudeDegrees>
              <LongitudeDegrees>-1.29260974936187267303466796875</LongitudeDegrees>
            </Position>
            <AltitudeMeters>21.200000762939453125</AltitudeMeters>
            <DistanceMeters>NAN</DistanceMeters>
          </Trackpoint>
          <Trackpoint>
            <Time>2022-07-06T15:14:00.000Z</Time>
            <Position>
              <LatitudeDegrees>43.90029053203761577606201171875</LatitudeDegrees>
              <LongitudeDegrees>-1.29257320426404476165771484375</LongitudeDegrees>
            </Position>
            <AltitudeMeters>20.6000003814697265625</AltitudeMeters>
            <DistanceMeters>NAN</DistanceMeters>
          </Trackpoint>
          <Trackpoint>
            <Time>2022-07-06T15:14:02.000Z</Time>
            <Position>
              <LatitudeDegrees>43.90018508769571781158447265625</LatitudeDegrees>
              <LongitudeDegrees>-1.29255308769643306732177734375</LongitudeDegrees>
            </Position>
            <AltitudeMeters>20.3999996185302734375</AltitudeMeters>
            <DistanceMeters>NAN</DistanceMeters>
          </Trackpoint>
          <Trackpoint>
            <Time>2022-07-06T15:14:10.000Z</Time>
            <Position>
              <LatitudeDegrees>43.89976481907069683074951171875</LatitudeDegrees>
              <LongitudeDegrees>-1.29250086843967437744140625</LongitudeDegrees>
            </Position>
            <AltitudeMeters>20</AltitudeMeters>
            <DistanceMeters>NAN</DistanceMeters>
          </Trackpoint>
          <Trackpoint>
            <Time>2022-07-06T15:14:20.000Z</Time>
            <Position>
              <LatitudeDegrees>43.89927330426871776580810546875</LatitudeDegrees>
              <LongitudeDegrees>-1.29238980822265148162841796875</LongitudeDegrees>
            </Position>
            <AltitudeMeters>20</AltitudeMeters>
            <DistanceMeters>NAN</DistanceMeters>
          </Trackpoint>
          <Trackpoint>
            <Time>2022-07-06T15:14:27.000Z</Time>
            <Position>
              <LatitudeDegrees>43.8989533670246601104736328125</LatitudeDegrees>
              <LongitudeDegrees>-1.29234404303133487701416015625</LongitudeDegrees>
            </Position>
            <AltitudeMeters>19.799999237060546875</AltitudeMeters>
            <DistanceMeters>NAN</DistanceMeters>
          </Trackpoint>
          <Trackpoint>
            <Time>2022-07-06T15:14:32.000Z</Time>
            <Position>
              <LatitudeDegrees>43.89872252941131591796875</LatitudeDegrees>
              <LongitudeDegrees>-1.29229693673551082611083984375</LongitudeDegrees>
            </Position>
            <AltitudeMeters>19.799999237060546875</AltitudeMeters>
            <DistanceMeters>NAN</DistanceMeters>
          </Trackpoint>
          <Trackpoint>
            <Time>2022-07-06T15:14:34.000Z</Time>
            <Position>
              <LatitudeDegrees>43.8986227847635746002197265625</LatitudeDegrees>
              <LongitudeDegrees>-1.29228536970913410186767578125</LongitudeDegrees>
            </Position>
            <AltitudeMeters>19.799999237060546875</AltitudeMeters>
            <DistanceMeters>NAN</DistanceMeters>
          </Trackpoint>
          <Trackpoint>
            <Time>2022-07-06T15:14:39.000Z</Time>
            <Position>
              <LatitudeDegrees>43.8983800448477268218994140625</LatitudeDegrees>
              <LongitudeDegrees>-1.2922775745391845703125</LongitudeDegrees>
            </Position>
            <AltitudeMeters>19.3999996185302734375</AltitudeMeters>
            <DistanceMeters>NAN</DistanceMeters>
          </Trackpoint>
          <Trackpoint>
            <Time>2022-07-06T15:14:42.000Z</Time>
            <Position>
              <LatitudeDegrees>43.89822900295257568359375</LatitudeDegrees>
              <LongitudeDegrees>-1.29227313213050365447998046875</LongitudeDegrees>
            </Position>
            <AltitudeMeters>19.3999996185302734375</AltitudeMeters>
            <DistanceMeters>NAN</DistanceMeters>
          </Trackpoint>
          <Trackpoint>
            <Time>2022-07-06T15:14:43.000Z</Time>
            <Position>
              <LatitudeDegrees>43.89817795716226100921630859375</LatitudeDegrees>
              <LongitudeDegrees>-1.29227044992148876190185546875</LongitudeDegrees>
            </Position>
            <AltitudeMeters>19.200000762939453125</AltitudeMeters>
            <DistanceMeters>NAN</DistanceMeters>
          </Trackpoint>
          <Trackpoint>
            <Time>2022-07-06T15:14:47.000Z</Time>
            <Position>
              <LatitudeDegrees>43.89798249118030071258544921875</LatitudeDegrees>
              <LongitudeDegrees>-1.2922360002994537353515625</LongitudeDegrees>
            </Position>
            <AltitudeMeters>19.200000762939453125</AltitudeMeters>
            <DistanceMeters>NAN</DistanceMeters>
          </Trackpoint>
          <Trackpoint>
            <Time>2022-07-06T15:14:51.000Z</Time>
            <Position>
              <LatitudeDegrees>43.89780412428081035614013671875</LatitudeDegrees>
              <LongitudeDegrees>-1.292194761335849761962890625</LongitudeDegrees>
            </Position>
            <AltitudeMeters>19.200000762939453125</AltitudeMeters>
            <DistanceMeters>NAN</DistanceMeters>
          </Trackpoint>
          <Trackpoint>
            <Time>2022-07-06T15:14:52.000Z</Time>
            <Position>
              <LatitudeDegrees>43.89776766300201416015625</LatitudeDegrees>
              <LongitudeDegrees>-1.29218663088977336883544921875</LongitudeDegrees>
            </Position>
            <AltitudeMeters>19.3999996185302734375</AltitudeMeters>
            <DistanceMeters>NAN</DistanceMeters>
          </Trackpoint>
          <Trackpoint>
            <Time>2022-07-06T15:14:54.000Z</Time>
            <Position>
              <LatitudeDegrees>43.897694237530231475830078125</LatitudeDegrees>
              <LongitudeDegrees>-1.29217707552015781402587890625</LongitudeDegrees>
            </Position>
            <AltitudeMeters>19.6000003814697265625</AltitudeMeters>
            <DistanceMeters>NAN</DistanceMeters>
          </Trackpoint>
          <Trackpoint>
            <Time>2022-07-06T15:14:58.000Z</Time>
            <Position>
              <LatitudeDegrees>43.897550404071807861328125</LatitudeDegrees>
              <LongitudeDegrees>-1.29216031171381473541259765625</LongitudeDegrees>
            </Position>
            <AltitudeMeters>20</AltitudeMeters>
            <DistanceMeters>NAN</DistanceMeters>
          </Trackpoint>
          <Trackpoint>
            <Time>2022-07-06T15:15:00.000Z</Time>
            <Position>
              <LatitudeDegrees>43.8974726200103759765625</LatitudeDegrees>
              <LongitudeDegrees>-1.29214690066874027252197265625</LongitudeDegrees>
            </Position>
            <AltitudeMeters>20</AltitudeMeters>
            <DistanceMeters>NAN</DistanceMeters>
          </Trackpoint>
          <Trackpoint>
            <Time>2022-07-06T15:15:08.000Z</Time>
            <Position>
              <LatitudeDegrees>43.89712502248585224151611328125</LatitudeDegrees>
              <LongitudeDegrees>-1.29209325648844242095947265625</LongitudeDegrees>
            </Position>
            <AltitudeMeters>19.6000003814697265625</AltitudeMeters>
            <DistanceMeters>NAN</DistanceMeters>
          </Trackpoint>
          <Trackpoint>
            <Time>2022-07-06T15:15:13.000Z</Time>
            <Position>
              <LatitudeDegrees>43.8968934305012226104736328125</LatitudeDegrees>
              <LongitudeDegrees>-1.29203877411782741546630859375</LongitudeDegrees>
            </Position>
            <AltitudeMeters>18.6000003814697265625</AltitudeMeters>
            <DistanceMeters>NAN</DistanceMeters>
          </Trackpoint>
          <Trackpoint>
            <Time>2022-07-06T15:15:15.000Z</Time>
            <Position>
              <LatitudeDegrees>43.89679796062409877777099609375</LatitudeDegrees>
              <LongitudeDegrees>-1.29201597534120082855224609375</LongitudeDegrees>
            </Position>
            <AltitudeMeters>18.3999996185302734375</AltitudeMeters>
            <DistanceMeters>NAN</DistanceMeters>
          </Trackpoint>
          <Trackpoint>
            <Time>2022-07-06T15:15:16.000Z</Time>
            <Position>
              <LatitudeDegrees>43.8967519439756870269775390625</LatitudeDegrees>
              <LongitudeDegrees>-1.29200876690447330474853515625</LongitudeDegrees>
            </Position>
            <AltitudeMeters>18.200000762939453125</AltitudeMeters>
            <DistanceMeters>NAN</DistanceMeters>
          </Trackpoint>
          <Trackpoint>
            <Time>2022-07-06T15:15:18.000Z</Time>
            <Position>
              <LatitudeDegrees>43.896658234298229217529296875</LatitudeDegrees>
              <LongitudeDegrees>-1.292000971734523773193359375</LongitudeDegrees>
            </Position>
            <AltitudeMeters>18.200000762939453125</AltitudeMeters>
            <DistanceMeters>NAN</DistanceMeters>
          </Trackpoint>
          <Trackpoint>
            <Time>2022-07-06T15:15:19.000Z</Time>
            <Position>
              <LatitudeDegrees>43.89661255292594432830810546875</LatitudeDegrees>
              <LongitudeDegrees>-1.291998289525508880615234375</LongitudeDegrees>
            </Position>
            <AltitudeMeters>18</AltitudeMeters>
            <DistanceMeters>NAN</DistanceMeters>
          </Trackpoint>
          <Trackpoint>
            <Time>2022-07-06T15:15:20.000Z</Time>
            <Position>
              <LatitudeDegrees>43.89656527899205684661865234375</LatitudeDegrees>
              <LongitudeDegrees>-1.292001642286777496337890625</LongitudeDegrees>
            </Position>
            <AltitudeMeters>18</AltitudeMeters>
            <DistanceMeters>NAN</DistanceMeters>
          </Trackpoint>
          <Trackpoint>
            <Time>2022-07-06T15:15:22.000Z</Time>
            <Position>
              <LatitudeDegrees>43.89647844247519969940185546875</LatitudeDegrees>
              <LongitudeDegrees>-1.29200222901999950408935546875</LongitudeDegrees>
            </Position>
            <AltitudeMeters>17.799999237060546875</AltitudeMeters>
            <DistanceMeters>NAN</DistanceMeters>
          </Trackpoint>
          <Trackpoint>
            <Time>2022-07-06T15:15:25.000Z</Time>
            <Position>
              <LatitudeDegrees>43.8963714055716991424560546875</LatitudeDegrees>
              <LongitudeDegrees>-1.29198462702333927154541015625</LongitudeDegrees>
            </Position>
            <AltitudeMeters>17.799999237060546875</AltitudeMeters>
            <DistanceMeters>NAN</DistanceMeters>
          </Trackpoint>
          <Trackpoint>
            <Time>2022-07-06T15:15:30.000Z</Time>
            <Position>
              <LatitudeDegrees>43.89618775807321071624755859375</LatitudeDegrees>
              <LongitudeDegrees>-1.291950680315494537353515625</LongitudeDegrees>
            </Position>
            <AltitudeMeters>17.3999996185302734375</AltitudeMeters>
            <DistanceMeters>NAN</DistanceMeters>
          </Trackpoint>
          <Trackpoint>
            <Time>2022-07-06T15:15:33.000Z</Time>
            <Position>
              <LatitudeDegrees>43.89611735008656978607177734375</LatitudeDegrees>
              <LongitudeDegrees>-1.291931234300136566162109375</LongitudeDegrees>
            </Position>
            <AltitudeMeters>17.200000762939453125</AltitudeMeters>
            <DistanceMeters>NAN</DistanceMeters>
          </Trackpoint>
          <Trackpoint>
            <Time>2022-07-06T15:15:35.000Z</Time>
            <Position>
              <LatitudeDegrees>43.89611165039241313934326171875</LatitudeDegrees>
              <LongitudeDegrees>-1.291928552091121673583984375</LongitudeDegrees>
            </Position>
            <AltitudeMeters>17.200000762939453125</AltitudeMeters>
            <DistanceMeters>NAN</DistanceMeters>
          </Trackpoint>
          <Trackpoint>
            <Time>2022-07-06T15:20:43.000Z</Time>
            <Position>
              <LatitudeDegrees>43.89603964984416961669921875</LatitudeDegrees>
              <LongitudeDegrees>-1.2919169850647449493408203125</LongitudeDegrees>
            </Position>
            <AltitudeMeters>17.200000762939453125</AltitudeMeters>
            <DistanceMeters>NAN</DistanceMeters>
          </Trackpoint>
          <Trackpoint>
            <Time>2022-07-06T15:20:44.000Z</Time>
            <Position>
              <LatitudeDegrees>43.89601014554500579833984375</LatitudeDegrees>
              <LongitudeDegrees>-1.2919168174266815185546875</LongitudeDegrees>
            </Position>
            <AltitudeMeters>17.200000762939453125</AltitudeMeters>
            <DistanceMeters>NAN</DistanceMeters>
          </Trackpoint>
          <Trackpoint>
            <Time>2022-07-06T15:20:46.000Z</Time>
            <Position>
              <LatitudeDegrees>43.8959311880171298980712890625</LatitudeDegrees>
              <LongitudeDegrees>-1.29192327149212360382080078125</LongitudeDegrees>
            </Position>
            <AltitudeMeters>17.200000762939453125</AltitudeMeters>
            <DistanceMeters>NAN</DistanceMeters>
          </Trackpoint>
          <Trackpoint>
            <Time>2022-07-06T15:20:47.000Z</Time>
            <Position>
              <LatitudeDegrees>43.895896486937999725341796875</LatitudeDegrees>
              <LongitudeDegrees>-1.29192427732050418853759765625</LongitudeDegrees>
            </Position>
            <AltitudeMeters>17.200000762939453125</AltitudeMeters>
            <DistanceMeters>NAN</DistanceMeters>
          </Trackpoint>
          <Trackpoint>
            <Time>2022-07-06T15:20:48.000Z</Time>
            <Position>
              <LatitudeDegrees>43.8958627916872501373291015625</LatitudeDegrees>
              <LongitudeDegrees>-1.29191438667476177215576171875</LongitudeDegrees>
            </Position>
            <AltitudeMeters>17.200000762939453125</AltitudeMeters>
            <DistanceMeters>NAN</DistanceMeters>
          </Trackpoint>
          <Trackpoint>
            <Time>2022-07-06T15:20:52.000Z</Time>
            <Position>
              <LatitudeDegrees>43.8957145996391773223876953125</LatitudeDegrees>
              <LongitudeDegrees>-1.2918824516236782073974609375</LongitudeDegrees>
            </Position>
            <AltitudeMeters>17.200000762939453125</AltitudeMeters>
            <DistanceMeters>NAN</DistanceMeters>
          </Trackpoint>
          <Trackpoint>
            <Time>2022-07-06T15:20:54.000Z</Time>
            <Position>
              <LatitudeDegrees>43.8956415094435214996337890625</LatitudeDegrees>
              <LongitudeDegrees>-1.29187549464404582977294921875</LongitudeDegrees>
            </Position>
            <AltitudeMeters>17</AltitudeMeters>
            <DistanceMeters>NAN</DistanceMeters>
          </Trackpoint>
          <Trackpoint>
            <Time>2022-07-06T15:20:55.000Z</Time>
            <Position>
              <LatitudeDegrees>43.8956022821366786956787109375</LatitudeDegrees>
              <LongitudeDegrees>-1.29186895675957202911376953125</LongitudeDegrees>
            </Position>
            <AltitudeMeters>17</AltitudeMeters>
            <DistanceMeters>NAN</DistanceMeters>
          </Trackpoint>
          <Trackpoint>
            <Time>2022-07-06T15:21:05.000Z</Time>
            <Position>
              <LatitudeDegrees>43.89525149948894977569580078125</LatitudeDegrees>
              <LongitudeDegrees>-1.291727721691131591796875</LongitudeDegrees>
            </Position>
            <AltitudeMeters>16.3999996185302734375</AltitudeMeters>
            <DistanceMeters>NAN</DistanceMeters>
          </Trackpoint>
          <Trackpoint>
            <Time>2022-07-06T15:21:06.000Z</Time>
            <Position>
              <LatitudeDegrees>43.8952183909714221954345703125</LatitudeDegrees>
              <LongitudeDegrees>-1.29172478802502155303955078125</LongitudeDegrees>
            </Position>
            <AltitudeMeters>16.3999996185302734375</AltitudeMeters>
            <DistanceMeters>NAN</DistanceMeters>
          </Trackpoint>
          <Trackpoint>
            <Time>2022-07-06T15:21:07.000Z</Time>
            <Position>
              <LatitudeDegrees>43.89519752003252506256103515625</LatitudeDegrees>
              <LongitudeDegrees>-1.29171540029346942901611328125</LongitudeDegrees>
            </Position>
            <AltitudeMeters>16.3999996185302734375</AltitudeMeters>
            <DistanceMeters>NAN</DistanceMeters>
          </Trackpoint>
          <Trackpoint>
            <Time>2022-07-06T15:21:13.000Z</Time>
            <Position>
              <LatitudeDegrees>43.8949981145560741424560546875</LatitudeDegrees>
              <LongitudeDegrees>-1.29170634783804416656494140625</LongitudeDegrees>
            </Position>
            <AltitudeMeters>16.200000762939453125</AltitudeMeters>
            <DistanceMeters>NAN</DistanceMeters>
          </Trackpoint>
          <Trackpoint>
            <Time>2022-07-06T15:21:21.000Z</Time>
            <Position>
              <LatitudeDegrees>43.89469561167061328887939453125</LatitudeDegrees>
              <LongitudeDegrees>-1.291659660637378692626953125</LongitudeDegrees>
            </Position>
            <AltitudeMeters>16.3999996185302734375</AltitudeMeters>
            <DistanceMeters>NAN</DistanceMeters>
          </Trackpoint>
          <Trackpoint>
            <Time>2022-07-06T15:21:30.000Z</Time>
            <Position>
              <LatitudeDegrees>43.894344829022884368896484375</LatitudeDegrees>
              <LongitudeDegrees>-1.29163174889981746673583984375</LongitudeDegrees>
            </Position>
            <AltitudeMeters>16.3999996185302734375</AltitudeMeters>
            <DistanceMeters>NAN</DistanceMeters>
          </Trackpoint>
          <Trackpoint>
            <Time>2022-07-06T15:21:40.000Z</Time>
            <Position>
              <LatitudeDegrees>43.89396672137081623077392578125</LatitudeDegrees>
              <LongitudeDegrees>-1.29168053157627582550048828125</LongitudeDegrees>
            </Position>
            <AltitudeMeters>16.6000003814697265625</AltitudeMeters>
            <DistanceMeters>NAN</DistanceMeters>
          </Trackpoint>
          <Trackpoint>
            <Time>2022-07-06T15:21:49.000Z</Time>
            <Position>
              <LatitudeDegrees>43.8935959897935390472412109375</LatitudeDegrees>
              <LongitudeDegrees>-1.29176870919764041900634765625</LongitudeDegrees>
            </Position>
            <AltitudeMeters>16.6000003814697265625</AltitudeMeters>
            <DistanceMeters>NAN</DistanceMeters>
          </Trackpoint>
          <Trackpoint>
            <Time>2022-07-06T15:21:58.000Z</Time>
            <Position>
              <LatitudeDegrees>43.89324478805065155029296875</LatitudeDegrees>
              <LongitudeDegrees>-1.29188127815723419189453125</LongitudeDegrees>
            </Position>
            <AltitudeMeters>16.200000762939453125</AltitudeMeters>
            <DistanceMeters>NAN</DistanceMeters>
          </Trackpoint>
          <Trackpoint>
            <Time>2022-07-06T15:22:05.000Z</Time>
            <Position>
              <LatitudeDegrees>43.89295368455350399017333984375</LatitudeDegrees>
              <LongitudeDegrees>-1.29199502058327198028564453125</LongitudeDegrees>
            </Position>
            <AltitudeMeters>16.200000762939453125</AltitudeMeters>
            <DistanceMeters>NAN</DistanceMeters>
          </Trackpoint>
          <Trackpoint>
            <Time>2022-07-06T15:22:13.000Z</Time>
            <Position>
              <LatitudeDegrees>43.89263785444200038909912109375</LatitudeDegrees>
              <LongitudeDegrees>-1.29209895618259906768798828125</LongitudeDegrees>
            </Position>
            <AltitudeMeters>16.3999996185302734375</AltitudeMeters>
            <DistanceMeters>NAN</DistanceMeters>
          </Trackpoint>
          <Trackpoint>
            <Time>2022-07-06T15:22:20.000Z</Time>
            <Position>
              <LatitudeDegrees>43.89236292801797389984130859375</LatitudeDegrees>
              <LongitudeDegrees>-1.29218948073685169219970703125</LongitudeDegrees>
            </Position>
            <AltitudeMeters>16.3999996185302734375</AltitudeMeters>
            <DistanceMeters>NAN</DistanceMeters>
          </Trackpoint>
          <Trackpoint>
            <Time>2022-07-06T15:22:30.000Z</Time>
            <Position>
              <LatitudeDegrees>43.891967050731182098388671875</LatitudeDegrees>
              <LongitudeDegrees>-1.29232778213918209075927734375</LongitudeDegrees>
            </Position>
            <AltitudeMeters>17</AltitudeMeters>
            <DistanceMeters>NAN</DistanceMeters>
          </Trackpoint>
          <Trackpoint>
            <Time>2022-07-06T15:22:32.000Z</Time>
            <Position>
              <LatitudeDegrees>43.89187744818627834320068359375</LatitudeDegrees>
              <LongitudeDegrees>-1.29236415959894657135009765625</LongitudeDegrees>
            </Position>
            <AltitudeMeters>16.799999237060546875</AltitudeMeters>
            <DistanceMeters>NAN</DistanceMeters>
          </Trackpoint>
          <Trackpoint>
            <Time>2022-07-06T15:22:38.000Z</Time>
            <Position>
              <LatitudeDegrees>43.89162330888211727142333984375</LatitudeDegrees>
              <LongitudeDegrees>-1.2924634851515293121337890625</LongitudeDegrees>
            </Position>
            <AltitudeMeters>16.799999237060546875</AltitudeMeters>
            <DistanceMeters>NAN</DistanceMeters>
          </Trackpoint>
          <Trackpoint>
            <Time>2022-07-06T15:22:48.000Z</Time>
            <Position>
              <LatitudeDegrees>43.8911887072026729583740234375</LatitudeDegrees>
              <LongitudeDegrees>-1.29262634553015232086181640625</LongitudeDegrees>
            </Position>
            <AltitudeMeters>16.799999237060546875</AltitudeMeters>
            <DistanceMeters>NAN</DistanceMeters>
          </Trackpoint>
          <Trackpoint>
            <Time>2022-07-06T15:22:59.000Z</Time>
            <Position>
              <LatitudeDegrees>43.89073650352656841278076171875</LatitudeDegrees>
              <LongitudeDegrees>-1.292802281677722930908203125</LongitudeDegrees>
            </Position>
            <AltitudeMeters>16.6000003814697265625</AltitudeMeters>
            <DistanceMeters>NAN</DistanceMeters>
          </Trackpoint>
          <Trackpoint>
            <Time>2022-07-06T15:23:06.000Z</Time>
            <Position>
              <LatitudeDegrees>43.89048437587916851043701171875</LatitudeDegrees>
              <LongitudeDegrees>-1.2928192131221294403076171875</LongitudeDegrees>
            </Position>
            <AltitudeMeters>16.6000003814697265625</AltitudeMeters>
            <DistanceMeters>NAN</DistanceMeters>
          </Trackpoint>
          <Trackpoint>
            <Time>2022-07-06T15:23:12.000Z</Time>
            <Position>
              <LatitudeDegrees>43.8902811147272586822509765625</LatitudeDegrees>
              <LongitudeDegrees>-1.29282449372112751007080078125</LongitudeDegrees>
            </Position>
            <AltitudeMeters>16.799999237060546875</AltitudeMeters>
            <DistanceMeters>NAN</DistanceMeters>
          </Trackpoint>
          <Trackpoint>
            <Time>2022-07-06T15:23:24.000Z</Time>
            <Position>
              <LatitudeDegrees>43.8898590020835399627685546875</LatitudeDegrees>
              <LongitudeDegrees>-1.29297293722629547119140625</LongitudeDegrees>
            </Position>
            <AltitudeMeters>16.3999996185302734375</AltitudeMeters>
            <DistanceMeters>NAN</DistanceMeters>
          </Trackpoint>
          <Trackpoint>
            <Time>2022-07-06T15:23:36.000Z</Time>
            <Position>
              <LatitudeDegrees>43.889440409839153289794921875</LatitudeDegrees>
              <LongitudeDegrees>-1.2931139208376407623291015625</LongitudeDegrees>
            </Position>
            <AltitudeMeters>16.200000762939453125</AltitudeMeters>
            <DistanceMeters>NAN</DistanceMeters>
          </Trackpoint>
          <Trackpoint>
            <Time>2022-07-06T15:23:47.000Z</Time>
            <Position>
              <LatitudeDegrees>43.88903263024985790252685546875</LatitudeDegrees>
              <LongitudeDegrees>-1.29325482062995433807373046875</LongitudeDegrees>
            </Position>
            <AltitudeMeters>16.200000762939453125</AltitudeMeters>
            <DistanceMeters>NAN</DistanceMeters>
          </Trackpoint>
          <Trackpoint>
            <Time>2022-07-06T15:23:57.000Z</Time>
            <Position>
              <LatitudeDegrees>43.88866751454770565032958984375</LatitudeDegrees>
              <LongitudeDegrees>-1.29338038153946399688720703125</LongitudeDegrees>
            </Position>
            <AltitudeMeters>16</AltitudeMeters>
            <DistanceMeters>NAN</DistanceMeters>
          </Trackpoint>
          <Trackpoint>
            <Time>2022-07-06T15:23:58.000Z</Time>
            <Position>
              <LatitudeDegrees>43.88862979598343372344970703125</LatitudeDegrees>
              <LongitudeDegrees>-1.293392367660999298095703125</LongitudeDegrees>
            </Position>
            <AltitudeMeters>16</AltitudeMeters>
            <DistanceMeters>NAN</DistanceMeters>
          </Trackpoint>
          <Trackpoint>
            <Time>2022-07-06T15:24:10.000Z</Time>
            <Position>
              <LatitudeDegrees>43.888194859027862548828125</LatitudeDegrees>
              <LongitudeDegrees>-1.2935380451381206512451171875</LongitudeDegrees>
            </Position>
            <AltitudeMeters>16.3999996185302734375</AltitudeMeters>
            <DistanceMeters>NAN</DistanceMeters>
          </Trackpoint>
          <Trackpoint>
            <Time>2022-07-06T15:24:14.000Z</Time>
            <Position>
              <LatitudeDegrees>43.88805312104523181915283203125</LatitudeDegrees>
              <LongitudeDegrees>-1.293592862784862518310546875</LongitudeDegrees>
            </Position>
            <AltitudeMeters>16.6000003814697265625</AltitudeMeters>
            <DistanceMeters>NAN</DistanceMeters>
          </Trackpoint>
          <Trackpoint>
            <Time>2022-07-06T15:24:21.000Z</Time>
            <Position>
              <LatitudeDegrees>43.8878501951694488525390625</LatitudeDegrees>
              <LongitudeDegrees>-1.29370409063994884490966796875</LongitudeDegrees>
            </Position>
            <AltitudeMeters>16.3999996185302734375</AltitudeMeters>
            <DistanceMeters>NAN</DistanceMeters>
          </Trackpoint>
          <Trackpoint>
            <Time>2022-07-06T15:24:26.000Z</Time>
            <Position>
              <LatitudeDegrees>43.88770342804491519927978515625</LatitudeDegrees>
              <LongitudeDegrees>-1.29379914142191410064697265625</LongitudeDegrees>
            </Position>
            <AltitudeMeters>16.6000003814697265625</AltitudeMeters>
            <DistanceMeters>NAN</DistanceMeters>
          </Trackpoint>
          <Trackpoint>
            <Time>2022-07-06T15:24:31.000Z</Time>
            <Position>
              <LatitudeDegrees>43.88755003921687602996826171875</LatitudeDegrees>
              <LongitudeDegrees>-1.293927133083343505859375</LongitudeDegrees>
            </Position>
            <AltitudeMeters>16.6000003814697265625</AltitudeMeters>
            <DistanceMeters>NAN</DistanceMeters>
          </Trackpoint>
          <Trackpoint>
            <Time>2022-07-06T15:24:33.000Z</Time>
            <Position>
              <LatitudeDegrees>43.8874896056950092315673828125</LatitudeDegrees>
              <LongitudeDegrees>-1.29398019053041934967041015625</LongitudeDegrees>
            </Position>
            <AltitudeMeters>16.799999237060546875</AltitudeMeters>
            <DistanceMeters>NAN</DistanceMeters>
          </Trackpoint>
          <Trackpoint>
            <Time>2022-07-06T15:24:37.000Z</Time>
            <Position>
              <LatitudeDegrees>43.8873689062893390655517578125</LatitudeDegrees>
              <LongitudeDegrees>-1.29408680833876132965087890625</LongitudeDegrees>
            </Position>
            <AltitudeMeters>16.799999237060546875</AltitudeMeters>
            <DistanceMeters>NAN</DistanceMeters>
          </Trackpoint>
          <Trackpoint>
            <Time>2022-07-06T15:24:39.000Z</Time>
            <Position>
              <LatitudeDegrees>43.88730864040553569793701171875</LatitudeDegrees>
              <LongitudeDegrees>-1.29413760267198085784912109375</LongitudeDegrees>
            </Position>
            <AltitudeMeters>16.6000003814697265625</AltitudeMeters>
            <DistanceMeters>NAN</DistanceMeters>
          </Trackpoint>
          <Trackpoint>
            <Time>2022-07-06T15:24:42.000Z</Time>
            <Position>
              <LatitudeDegrees>43.88721275143325328826904296875</LatitudeDegrees>
              <LongitudeDegrees>-1.2942315638065338134765625</LongitudeDegrees>
            </Position>
            <AltitudeMeters>16.6000003814697265625</AltitudeMeters>
            <DistanceMeters>NAN</DistanceMeters>
          </Trackpoint>
          <Trackpoint>
            <Time>2022-07-06T15:24:46.000Z</Time>
            <Position>
              <LatitudeDegrees>43.8870916329324245452880859375</LatitudeDegrees>
              <LongitudeDegrees>-1.2943722121417522430419921875</LongitudeDegrees>
            </Position>
            <AltitudeMeters>16.3999996185302734375</AltitudeMeters>
            <DistanceMeters>NAN</DistanceMeters>
          </Trackpoint>
          <Trackpoint>
            <Time>2022-07-06T15:24:49.000Z</Time>
            <Position>
              <LatitudeDegrees>43.88701980002224445343017578125</LatitudeDegrees>
              <LongitudeDegrees>-1.294485032558441162109375</LongitudeDegrees>
            </Position>
            <AltitudeMeters>16.200000762939453125</AltitudeMeters>
            <DistanceMeters>NAN</DistanceMeters>
          </Trackpoint>
          <Trackpoint>
            <Time>2022-07-06T15:24:54.000Z</Time>
            <Position>
              <LatitudeDegrees>43.88686305843293666839599609375</LatitudeDegrees>
              <LongitudeDegrees>-1.294720731675624847412109375</LongitudeDegrees>
            </Position>
            <AltitudeMeters>16.200000762939453125</AltitudeMeters>
            <DistanceMeters>NAN</DistanceMeters>
          </Trackpoint>
          <Trackpoint>
            <Time>2022-07-06T15:24:57.000Z</Time>
            <Position>
              <LatitudeDegrees>43.88676348142325878143310546875</LatitudeDegrees>
              <LongitudeDegrees>-1.294874288141727447509765625</LongitudeDegrees>
            </Position>
            <AltitudeMeters>16.200000762939453125</AltitudeMeters>
            <DistanceMeters>NAN</DistanceMeters>
          </Trackpoint>
          <Trackpoint>
            <Time>2022-07-06T15:25:04.000Z</Time>
            <Position>
              <LatitudeDegrees>43.8865759782493114471435546875</LatitudeDegrees>
              <LongitudeDegrees>-1.2951617874205112457275390625</LongitudeDegrees>
            </Position>
            <AltitudeMeters>16.200000762939453125</AltitudeMeters>
            <DistanceMeters>NAN</DistanceMeters>
          </Trackpoint>
          <Trackpoint>
            <Time>2022-07-06T15:25:10.000Z</Time>
            <Position>
              <LatitudeDegrees>43.88639987446367740631103515625</LatitudeDegrees>
              <LongitudeDegrees>-1.295408047735691070556640625</LongitudeDegrees>
            </Position>
            <AltitudeMeters>16</AltitudeMeters>
            <DistanceMeters>NAN</DistanceMeters>
          </Trackpoint>
          <Trackpoint>
            <Time>2022-07-06T15:25:15.000Z</Time>
            <Position>
              <LatitudeDegrees>43.88629090972244739532470703125</LatitudeDegrees>
              <LongitudeDegrees>-1.29556101746857166290283203125</LongitudeDegrees>
            </Position>
            <AltitudeMeters>16</AltitudeMeters>
            <DistanceMeters>NAN</DistanceMeters>
          </Trackpoint>
          <Trackpoint>
            <Time>2022-07-06T15:25:20.000Z</Time>
            <Position>
              <LatitudeDegrees>43.8861692883074283599853515625</LatitudeDegrees>
              <LongitudeDegrees>-1.29575765691697597503662109375</LongitudeDegrees>
            </Position>
            <AltitudeMeters>16</AltitudeMeters>
            <DistanceMeters>NAN</DistanceMeters>
          </Trackpoint>
          <Trackpoint>
            <Time>2022-07-06T15:25:24.000Z</Time>
            <Position>
              <LatitudeDegrees>43.8860573060810565948486328125</LatitudeDegrees>
              <LongitudeDegrees>-1.2959630973637104034423828125</LongitudeDegrees>
            </Position>
            <AltitudeMeters>15.80000019073486328125</AltitudeMeters>
            <DistanceMeters>NAN</DistanceMeters>
          </Trackpoint>
          <Trackpoint>
            <Time>2022-07-06T15:25:26.000Z</Time>
            <Position>
              <LatitudeDegrees>43.88600709848105907440185546875</LatitudeDegrees>
              <LongitudeDegrees>-1.29607499577105045318603515625</LongitudeDegrees>
            </Position>
            <AltitudeMeters>16</AltitudeMeters>
            <DistanceMeters>NAN</DistanceMeters>
          </Trackpoint>
          <Trackpoint>
            <Time>2022-07-06T15:25:29.000Z</Time>
            <Position>
              <LatitudeDegrees>43.88593618758022785186767578125</LatitudeDegrees>
              <LongitudeDegrees>-1.2962272949516773223876953125</LongitudeDegrees>
            </Position>
            <AltitudeMeters>16</AltitudeMeters>
            <DistanceMeters>NAN</DistanceMeters>
          </Trackpoint>
          <Trackpoint>
            <Time>2022-07-06T15:25:36.000Z</Time>
            <Position>
              <LatitudeDegrees>43.8857776857912540435791015625</LatitudeDegrees>
              <LongitudeDegrees>-1.2965981103479862213134765625</LongitudeDegrees>
            </Position>
            <AltitudeMeters>16</AltitudeMeters>
            <DistanceMeters>NAN</DistanceMeters>
          </Trackpoint>
          <Trackpoint>
            <Time>2022-07-06T15:25:45.000Z</Time>
            <Position>
              <LatitudeDegrees>43.88560694642364978790283203125</LatitudeDegrees>
              <LongitudeDegrees>-1.29700320772826671600341796875</LongitudeDegrees>
            </Position>
            <AltitudeMeters>16.3999996185302734375</AltitudeMeters>
            <DistanceMeters>NAN</DistanceMeters>
          </Trackpoint>
          <Trackpoint>
            <Time>2022-07-06T15:25:57.000Z</Time>
            <Position>
              <LatitudeDegrees>43.88538180850446224212646484375</LatitudeDegrees>
              <LongitudeDegrees>-1.29751257598400115966796875</LongitudeDegrees>
            </Position>
            <AltitudeMeters>16</AltitudeMeters>
            <DistanceMeters>NAN</DistanceMeters>
          </Trackpoint>
          <Trackpoint>
            <Time>2022-07-06T15:26:06.000Z</Time>
            <Position>
              <LatitudeDegrees>43.88520964421331882476806640625</LatitudeDegrees>
              <LongitudeDegrees>-1.29790954291820526123046875</LongitudeDegrees>
            </Position>
            <AltitudeMeters>15.6000003814697265625</AltitudeMeters>
            <DistanceMeters>NAN</DistanceMeters>
          </Trackpoint>
          <Trackpoint>
            <Time>2022-07-06T15:26:14.000Z</Time>
            <Position>
              <LatitudeDegrees>43.88504887931048870086669921875</LatitudeDegrees>
              <LongitudeDegrees>-1.298259235918521881103515625</LongitudeDegrees>
            </Position>
            <AltitudeMeters>15.6000003814697265625</AltitudeMeters>
            <DistanceMeters>NAN</DistanceMeters>
          </Trackpoint>
          <Trackpoint>
            <Time>2022-07-06T15:26:20.000Z</Time>
            <Position>
              <LatitudeDegrees>43.8849317841231822967529296875</LatitudeDegrees>
              <LongitudeDegrees>-1.29849736578762531280517578125</LongitudeDegrees>
            </Position>
            <AltitudeMeters>15.6000003814697265625</AltitudeMeters>
            <DistanceMeters>NAN</DistanceMeters>
          </Trackpoint>
          <Trackpoint>
            <Time>2022-07-06T15:26:22.000Z</Time>
            <Position>
              <LatitudeDegrees>43.88489398173987865447998046875</LatitudeDegrees>
              <LongitudeDegrees>-1.298568360507488250732421875</LongitudeDegrees>
            </Position>
            <AltitudeMeters>15.80000019073486328125</AltitudeMeters>
            <DistanceMeters>NAN</DistanceMeters>
          </Trackpoint>
          <Trackpoint>
            <Time>2022-07-06T15:26:31.000Z</Time>
            <Position>
              <LatitudeDegrees>43.88472751714289188385009765625</LatitudeDegrees>
              <LongitudeDegrees>-1.29888259805738925933837890625</LongitudeDegrees>
            </Position>
            <AltitudeMeters>16.200000762939453125</AltitudeMeters>
            <DistanceMeters>NAN</DistanceMeters>
          </Trackpoint>
          <Trackpoint>
            <Time>2022-07-06T15:26:36.000Z</Time>
            <Position>
              <LatitudeDegrees>43.8846917264163494110107421875</LatitudeDegrees>
              <LongitudeDegrees>-1.2989524193108081817626953125</LongitudeDegrees>
            </Position>
            <AltitudeMeters>15.80000019073486328125</AltitudeMeters>
            <DistanceMeters>NAN</DistanceMeters>
          </Trackpoint>
          <Trackpoint>
            <Time>2022-07-06T15:26:37.000Z</Time>
            <Position>
              <LatitudeDegrees>43.8846917264163494110107421875</LatitudeDegrees>
              <LongitudeDegrees>-1.2989524193108081817626953125</LongitudeDegrees>
            </Position>
            <AltitudeMeters>15.80000019073486328125</AltitudeMeters>
            <DistanceMeters>NAN</DistanceMeters>
          </Trackpoint>
          <Trackpoint>
            <Time>2022-07-06T15:27:14.000Z</Time>
            <Position>
              <LatitudeDegrees>43.88465744443237781524658203125</LatitudeDegrees>
              <LongitudeDegrees>-1.2989849410951137542724609375</LongitudeDegrees>
            </Position>
            <AltitudeMeters>15.3999996185302734375</AltitudeMeters>
            <DistanceMeters>NAN</DistanceMeters>
          </Trackpoint>
          <Trackpoint>
            <Time>2022-07-06T15:27:15.000Z</Time>
            <Position>
              <LatitudeDegrees>43.88463984243571758270263671875</LatitudeDegrees>
              <LongitudeDegrees>-1.29900522530078887939453125</LongitudeDegrees>
            </Position>
            <AltitudeMeters>15.3999996185302734375</AltitudeMeters>
            <DistanceMeters>NAN</DistanceMeters>
          </Trackpoint>
          <Trackpoint>
            <Time>2022-07-06T15:27:16.000Z</Time>
            <Position>
              <LatitudeDegrees>43.88462056405842304229736328125</LatitudeDegrees>
              <LongitudeDegrees>-1.29902995191514492034912109375</LongitudeDegrees>
            </Position>
            <AltitudeMeters>15.3999996185302734375</AltitudeMeters>
            <DistanceMeters>NAN</DistanceMeters>
          </Trackpoint>
          <Trackpoint>
            <Time>2022-07-06T15:27:21.000Z</Time>
            <Position>
              <LatitudeDegrees>43.88447723351418972015380859375</LatitudeDegrees>
              <LongitudeDegrees>-1.29916942678391933441162109375</LongitudeDegrees>
            </Position>
            <AltitudeMeters>15.3999996185302734375</AltitudeMeters>
            <DistanceMeters>NAN</DistanceMeters>
          </Trackpoint>
          <Trackpoint>
            <Time>2022-07-06T15:27:25.000Z</Time>
            <Position>
              <LatitudeDegrees>43.88435728847980499267578125</LatitudeDegrees>
              <LongitudeDegrees>-1.29930588416755199432373046875</LongitudeDegrees>
            </Position>
            <AltitudeMeters>15.3999996185302734375</AltitudeMeters>
            <DistanceMeters>NAN</DistanceMeters>
          </Trackpoint>
          <Trackpoint>
            <Time>2022-07-06T15:27:26.000Z</Time>
            <Position>
              <LatitudeDegrees>43.88432585634291172027587890625</LatitudeDegrees>
              <LongitudeDegrees>-1.29933639429509639739990234375</LongitudeDegrees>
            </Position>
            <AltitudeMeters>15.3999996185302734375</AltitudeMeters>
            <DistanceMeters>NAN</DistanceMeters>
          </Trackpoint>
          <Trackpoint>
            <Time>2022-07-06T15:27:27.000Z</Time>
            <Position>
              <LatitudeDegrees>43.88429434038698673248291015625</LatitudeDegrees>
              <LongitudeDegrees>-1.2993681617081165313720703125</LongitudeDegrees>
            </Position>
            <AltitudeMeters>15.3999996185302734375</AltitudeMeters>
            <DistanceMeters>NAN</DistanceMeters>
          </Trackpoint>
          <Trackpoint>
            <Time>2022-07-06T15:27:28.000Z</Time>
            <Position>
              <LatitudeDegrees>43.884263746440410614013671875</LatitudeDegrees>
              <LongitudeDegrees>-1.29939951002597808837890625</LongitudeDegrees>
            </Position>
            <AltitudeMeters>15.3999996185302734375</AltitudeMeters>
            <DistanceMeters>NAN</DistanceMeters>
          </Trackpoint>
          <Trackpoint>
            <Time>2022-07-06T15:27:31.000Z</Time>
            <Position>
              <LatitudeDegrees>43.88417431153357028961181640625</LatitudeDegrees>
              <LongitudeDegrees>-1.29949950613081455230712890625</LongitudeDegrees>
            </Position>
            <AltitudeMeters>15.19999980926513671875</AltitudeMeters>
            <DistanceMeters>NAN</DistanceMeters>
          </Trackpoint>
          <Trackpoint>
            <Time>2022-07-06T15:27:33.000Z</Time>
            <Position>
              <LatitudeDegrees>43.8841053284704685211181640625</LatitudeDegrees>
              <LongitudeDegrees>-1.29956572316586971282958984375</LongitudeDegrees>
            </Position>
            <AltitudeMeters>15</AltitudeMeters>
            <DistanceMeters>NAN</DistanceMeters>
          </Trackpoint>
          <Trackpoint>
            <Time>2022-07-06T15:27:37.000Z</Time>
            <Position>
              <LatitudeDegrees>43.88398219831287860870361328125</LatitudeDegrees>
              <LongitudeDegrees>-1.29970519803464412689208984375</LongitudeDegrees>
            </Position>
            <AltitudeMeters>15</AltitudeMeters>
            <DistanceMeters>NAN</DistanceMeters>
          </Trackpoint>
          <Trackpoint>
            <Time>2022-07-06T15:27:46.000Z</Time>
            <Position>
              <LatitudeDegrees>43.8836969621479511260986328125</LatitudeDegrees>
              <LongitudeDegrees>-1.30003460682928562164306640625</LongitudeDegrees>
            </Position>
            <AltitudeMeters>14.80000019073486328125</AltitudeMeters>
            <DistanceMeters>NAN</DistanceMeters>
          </Trackpoint>
          <Trackpoint>
            <Time>2022-07-06T15:27:53.000Z</Time>
            <Position>
              <LatitudeDegrees>43.88348012231290340423583984375</LatitudeDegrees>
              <LongitudeDegrees>-1.3002653606235980987548828125</LongitudeDegrees>
            </Position>
            <AltitudeMeters>14.80000019073486328125</AltitudeMeters>
            <DistanceMeters>NAN</DistanceMeters>
          </Trackpoint>
          <Trackpoint>
            <Time>2022-07-06T15:27:55.000Z</Time>
            <Position>
              <LatitudeDegrees>43.8834149949252605438232421875</LatitudeDegrees>
              <LongitudeDegrees>-1.30033602006733417510986328125</LongitudeDegrees>
            </Position>
            <AltitudeMeters>14.80000019073486328125</AltitudeMeters>
            <DistanceMeters>NAN</DistanceMeters>
          </Trackpoint>
          <Trackpoint>
            <Time>2022-07-06T15:28:03.000Z</Time>
            <Position>
              <LatitudeDegrees>43.88317585922777652740478515625</LatitudeDegrees>
              <LongitudeDegrees>-1.30060038529336452484130859375</LongitudeDegrees>
            </Position>
            <AltitudeMeters>14.80000019073486328125</AltitudeMeters>
            <DistanceMeters>NAN</DistanceMeters>
          </Trackpoint>
          <Trackpoint>
            <Time>2022-07-06T15:28:11.000Z</Time>
            <Position>
              <LatitudeDegrees>43.88293303549289703369140625</LatitudeDegrees>
              <LongitudeDegrees>-1.3008574582636356353759765625</LongitudeDegrees>
            </Position>
            <AltitudeMeters>15.19999980926513671875</AltitudeMeters>
            <DistanceMeters>NAN</DistanceMeters>
          </Trackpoint>
          <Trackpoint>
            <Time>2022-07-06T15:28:18.000Z</Time>
            <Position>
              <LatitudeDegrees>43.88275408186018466949462890625</LatitudeDegrees>
              <LongitudeDegrees>-1.30105711519718170166015625</LongitudeDegrees>
            </Position>
            <AltitudeMeters>15.80000019073486328125</AltitudeMeters>
            <DistanceMeters>NAN</DistanceMeters>
          </Trackpoint>
          <Trackpoint>
            <Time>2022-07-06T15:28:24.000Z</Time>
            <Position>
              <LatitudeDegrees>43.88263120315968990325927734375</LatitudeDegrees>
              <LongitudeDegrees>-1.30119985900819301605224609375</LongitudeDegrees>
            </Position>
            <AltitudeMeters>16</AltitudeMeters>
            <DistanceMeters>NAN</DistanceMeters>
          </Trackpoint>
          <Trackpoint>
            <Time>2022-07-06T15:28:25.000Z</Time>
            <Position>
              <LatitudeDegrees>43.882608152925968170166015625</LatitudeDegrees>
              <LongitudeDegrees>-1.30122617818415164947509765625</LongitudeDegrees>
            </Position>
            <AltitudeMeters>16</AltitudeMeters>
            <DistanceMeters>NAN</DistanceMeters>
          </Trackpoint>
          <Trackpoint>
            <Time>2022-07-06T15:28:28.000Z</Time>
            <Position>
              <LatitudeDegrees>43.88253062032163143157958984375</LatitudeDegrees>
              <LongitudeDegrees>-1.30129524506628513336181640625</LongitudeDegrees>
            </Position>
            <AltitudeMeters>16.3999996185302734375</AltitudeMeters>
            <DistanceMeters>NAN</DistanceMeters>
          </Trackpoint>
          <Trackpoint>
            <Time>2022-07-06T15:28:34.000Z</Time>
            <Position>
              <LatitudeDegrees>43.88239324092864990234375</LatitudeDegrees>
              <LongitudeDegrees>-1.30141141824424266815185546875</LongitudeDegrees>
            </Position>
            <AltitudeMeters>17</AltitudeMeters>
            <DistanceMeters>NAN</DistanceMeters>
          </Trackpoint>
          <Trackpoint>
            <Time>2022-07-06T15:28:38.000Z</Time>
            <Position>
              <LatitudeDegrees>43.8822918199002742767333984375</LatitudeDegrees>
              <LongitudeDegrees>-1.3014884479343891143798828125</LongitudeDegrees>
            </Position>
            <AltitudeMeters>17.3999996185302734375</AltitudeMeters>
            <DistanceMeters>NAN</DistanceMeters>
          </Trackpoint>
          <Trackpoint>
            <Time>2022-07-06T15:28:43.000Z</Time>
            <Position>
              <LatitudeDegrees>43.88216433115303516387939453125</LatitudeDegrees>
              <LongitudeDegrees>-1.30157838575541973114013671875</LongitudeDegrees>
            </Position>
            <AltitudeMeters>17.799999237060546875</AltitudeMeters>
            <DistanceMeters>NAN</DistanceMeters>
          </Trackpoint>
          <Trackpoint>
            <Time>2022-07-06T15:28:54.000Z</Time>
            <Position>
              <LatitudeDegrees>43.881854116916656494140625</LatitudeDegrees>
              <LongitudeDegrees>-1.30174535326659679412841796875</LongitudeDegrees>
            </Position>
            <AltitudeMeters>18</AltitudeMeters>
            <DistanceMeters>NAN</DistanceMeters>
          </Trackpoint>
          <Trackpoint>
            <Time>2022-07-06T15:29:05.000Z</Time>
            <Position>
              <LatitudeDegrees>43.881521522998809814453125</LatitudeDegrees>
              <LongitudeDegrees>-1.30178960971534252166748046875</LongitudeDegrees>
            </Position>
            <AltitudeMeters>18.3999996185302734375</AltitudeMeters>
            <DistanceMeters>NAN</DistanceMeters>
          </Trackpoint>
          <Trackpoint>
            <Time>2022-07-06T15:29:07.000Z</Time>
            <Position>
              <LatitudeDegrees>43.8814569823443889617919921875</LatitudeDegrees>
              <LongitudeDegrees>-1.3017948903143405914306640625</LongitudeDegrees>
            </Position>
            <AltitudeMeters>18.3999996185302734375</AltitudeMeters>
            <DistanceMeters>NAN</DistanceMeters>
          </Trackpoint>
          <Trackpoint>
            <Time>2022-07-06T15:29:14.000Z</Time>
            <Position>
              <LatitudeDegrees>43.881244249641895294189453125</LatitudeDegrees>
              <LongitudeDegrees>-1.30176379345357418060302734375</LongitudeDegrees>
            </Position>
            <AltitudeMeters>18.799999237060546875</AltitudeMeters>
            <DistanceMeters>NAN</DistanceMeters>
          </Trackpoint>
          <Trackpoint>
            <Time>2022-07-06T15:29:19.000Z</Time>
            <Position>
              <LatitudeDegrees>43.88107552193105220794677734375</LatitudeDegrees>
              <LongitudeDegrees>-1.3017204590141773223876953125</LongitudeDegrees>
            </Position>
            <AltitudeMeters>18.799999237060546875</AltitudeMeters>
            <DistanceMeters>NAN</DistanceMeters>
          </Trackpoint>
          <Trackpoint>
            <Time>2022-07-06T15:29:23.000Z</Time>
            <Position>
              <LatitudeDegrees>43.88093504123389720916748046875</LatitudeDegrees>
              <LongitudeDegrees>-1.30167796276509761810302734375</LongitudeDegrees>
            </Position>
            <AltitudeMeters>18.799999237060546875</AltitudeMeters>
            <DistanceMeters>NAN</DistanceMeters>
          </Trackpoint>
          <Trackpoint>
            <Time>2022-07-06T15:29:25.000Z</Time>
            <Position>
              <LatitudeDegrees>43.8808791339397430419921875</LatitudeDegrees>
              <LongitudeDegrees>-1.30165348760783672332763671875</LongitudeDegrees>
            </Position>
            <AltitudeMeters>18.799999237060546875</AltitudeMeters>
            <DistanceMeters>NAN</DistanceMeters>
          </Trackpoint>
          <Trackpoint>
            <Time>2022-07-06T15:29:32.000Z</Time>
            <Position>
              <LatitudeDegrees>43.8806627131998538970947265625</LatitudeDegrees>
              <LongitudeDegrees>-1.30157218314707279205322265625</LongitudeDegrees>
            </Position>
            <AltitudeMeters>18.799999237060546875</AltitudeMeters>
            <DistanceMeters>NAN</DistanceMeters>
          </Trackpoint>
          <Trackpoint>
            <Time>2022-07-06T15:29:39.000Z</Time>
            <Position>
              <LatitudeDegrees>43.880450315773487091064453125</LatitudeDegrees>
              <LongitudeDegrees>-1.301527507603168487548828125</LongitudeDegrees>
            </Position>
            <AltitudeMeters>19.200000762939453125</AltitudeMeters>
            <DistanceMeters>NAN</DistanceMeters>
          </Trackpoint>
          <Trackpoint>
            <Time>2022-07-06T15:29:42.000Z</Time>
            <Position>
              <LatitudeDegrees>43.88036155141890048980712890625</LatitudeDegrees>
              <LongitudeDegrees>-1.30153798498213291168212890625</LongitudeDegrees>
            </Position>
            <AltitudeMeters>19.3999996185302734375</AltitudeMeters>
            <DistanceMeters>NAN</DistanceMeters>
          </Trackpoint>
          <Trackpoint>
            <Time>2022-07-06T15:29:47.000Z</Time>
            <Position>
              <LatitudeDegrees>43.8801846094429492950439453125</LatitudeDegrees>
              <LongitudeDegrees>-1.30154150538146495819091796875</LongitudeDegrees>
            </Position>
            <AltitudeMeters>19.3999996185302734375</AltitudeMeters>
            <DistanceMeters>NAN</DistanceMeters>
          </Trackpoint>
          <Trackpoint>
            <Time>2022-07-06T15:29:53.000Z</Time>
            <Position>
              <LatitudeDegrees>43.87996877543628215789794921875</LatitudeDegrees>
              <LongitudeDegrees>-1.30160453729331493377685546875</LongitudeDegrees>
            </Position>
            <AltitudeMeters>19.200000762939453125</AltitudeMeters>
            <DistanceMeters>NAN</DistanceMeters>
          </Trackpoint>
          <Trackpoint>
            <Time>2022-07-06T15:29:55.000Z</Time>
            <Position>
              <LatitudeDegrees>43.879900462925434112548828125</LatitudeDegrees>
              <LongitudeDegrees>-1.30162783898413181304931640625</LongitudeDegrees>
            </Position>
            <AltitudeMeters>19.3999996185302734375</AltitudeMeters>
            <DistanceMeters>NAN</DistanceMeters>
          </Trackpoint>
          <Trackpoint>
            <Time>2022-07-06T15:29:59.000Z</Time>
            <Position>
              <LatitudeDegrees>43.87976693920791149139404296875</LatitudeDegrees>
              <LongitudeDegrees>-1.30168433301150798797607421875</LongitudeDegrees>
            </Position>
            <AltitudeMeters>19.3999996185302734375</AltitudeMeters>
            <DistanceMeters>NAN</DistanceMeters>
          </Trackpoint>
          <Trackpoint>
            <Time>2022-07-06T15:30:07.000Z</Time>
            <Position>
              <LatitudeDegrees>43.87950492091476917266845703125</LatitudeDegrees>
              <LongitudeDegrees>-1.3017771206796169281005859375</LongitudeDegrees>
            </Position>
            <AltitudeMeters>19.6000003814697265625</AltitudeMeters>
            <DistanceMeters>NAN</DistanceMeters>
          </Trackpoint>
          <Trackpoint>
            <Time>2022-07-06T15:30:14.000Z</Time>
            <Position>
              <LatitudeDegrees>43.87928196229040622711181640625</LatitudeDegrees>
              <LongitudeDegrees>-1.301866807043552398681640625</LongitudeDegrees>
            </Position>
            <AltitudeMeters>19.3999996185302734375</AltitudeMeters>
            <DistanceMeters>NAN</DistanceMeters>
          </Trackpoint>
          <Trackpoint>
            <Time>2022-07-06T15:30:22.000Z</Time>
            <Position>
              <LatitudeDegrees>43.879019357264041900634765625</LatitudeDegrees>
              <LongitudeDegrees>-1.30197585560381412506103515625</LongitudeDegrees>
            </Position>
            <AltitudeMeters>19.200000762939453125</AltitudeMeters>
            <DistanceMeters>NAN</DistanceMeters>
          </Trackpoint>
          <Trackpoint>
            <Time>2022-07-06T15:30:27.000Z</Time>
            <Position>
              <LatitudeDegrees>43.87890259735286235809326171875</LatitudeDegrees>
              <LongitudeDegrees>-1.30204760469496250152587890625</LongitudeDegrees>
            </Position>
            <AltitudeMeters>19</AltitudeMeters>
            <DistanceMeters>NAN</DistanceMeters>
          </Trackpoint>
          <Trackpoint>
            <Time>2022-07-06T15:30:28.000Z</Time>
            <Position>
              <LatitudeDegrees>43.87889270670711994171142578125</LatitudeDegrees>
              <LongitudeDegrees>-1.30205565132200717926025390625</LongitudeDegrees>
            </Position>
            <AltitudeMeters>19</AltitudeMeters>
            <DistanceMeters>NAN</DistanceMeters>
          </Trackpoint>
          <Trackpoint>
            <Time>2022-07-06T15:30:31.000Z</Time>
            <Position>
              <LatitudeDegrees>43.8788901083171367645263671875</LatitudeDegrees>
              <LongitudeDegrees>-1.302059926092624664306640625</LongitudeDegrees>
            </Position>
            <AltitudeMeters>19</AltitudeMeters>
            <DistanceMeters>NAN</DistanceMeters>
          </Trackpoint>
          <Trackpoint>
            <Time>2022-07-06T15:30:48.000Z</Time>
            <Position>
              <LatitudeDegrees>43.87885850854218006134033203125</LatitudeDegrees>
              <LongitudeDegrees>-1.30203905515372753143310546875</LongitudeDegrees>
            </Position>
            <AltitudeMeters>18.799999237060546875</AltitudeMeters>
            <DistanceMeters>NAN</DistanceMeters>
          </Trackpoint>
          <Trackpoint>
            <Time>2022-07-06T15:30:51.000Z</Time>
            <Position>
              <LatitudeDegrees>43.8788106478750705718994140625</LatitudeDegrees>
              <LongitudeDegrees>-1.3019692339003086090087890625</LongitudeDegrees>
            </Position>
            <AltitudeMeters>19</AltitudeMeters>
            <DistanceMeters>NAN</DistanceMeters>
          </Trackpoint>
          <Trackpoint>
            <Time>2022-07-06T15:30:58.000Z</Time>
            <Position>
              <LatitudeDegrees>43.87875071726739406585693359375</LatitudeDegrees>
              <LongitudeDegrees>-1.3017171062529087066650390625</LongitudeDegrees>
            </Position>
            <AltitudeMeters>18.799999237060546875</AltitudeMeters>
            <DistanceMeters>NAN</DistanceMeters>
          </Trackpoint>
          <Trackpoint>
            <Time>2022-07-06T15:31:03.000Z</Time>
            <Position>
              <LatitudeDegrees>43.8788478635251522064208984375</LatitudeDegrees>
              <LongitudeDegrees>-1.30157955922186374664306640625</LongitudeDegrees>
            </Position>
            <AltitudeMeters>18.6000003814697265625</AltitudeMeters>
            <DistanceMeters>NAN</DistanceMeters>
          </Trackpoint>
          <Trackpoint>
            <Time>2022-07-06T15:31:08.000Z</Time>
            <Position>
              <LatitudeDegrees>43.87897149659693241119384765625</LatitudeDegrees>
              <LongitudeDegrees>-1.30151753313839435577392578125</LongitudeDegrees>
            </Position>
            <AltitudeMeters>18.799999237060546875</AltitudeMeters>
            <DistanceMeters>NAN</DistanceMeters>
          </Trackpoint>
          <Trackpoint>
            <Time>2022-07-06T15:31:13.000Z</Time>
            <Position>
              <LatitudeDegrees>43.879085741937160491943359375</LatitudeDegrees>
              <LongitudeDegrees>-1.3014332950115203857421875</LongitudeDegrees>
            </Position>
            <AltitudeMeters>18.799999237060546875</AltitudeMeters>
            <DistanceMeters>NAN</DistanceMeters>
          </Trackpoint>
          <Trackpoint>
            <Time>2022-07-06T15:31:18.000Z</Time>
            <Position>
              <LatitudeDegrees>43.87911901809275150299072265625</LatitudeDegrees>
              <LongitudeDegrees>-1.30133095197379589080810546875</LongitudeDegrees>
            </Position>
            <AltitudeMeters>18.799999237060546875</AltitudeMeters>
            <DistanceMeters>NAN</DistanceMeters>
          </Trackpoint>
          <Trackpoint>
            <Time>2022-07-06T15:31:21.000Z</Time>
            <Position>
              <LatitudeDegrees>43.87912287376821041107177734375</LatitudeDegrees>
              <LongitudeDegrees>-1.3012711890041828155517578125</LongitudeDegrees>
            </Position>
            <AltitudeMeters>19</AltitudeMeters>
            <DistanceMeters>NAN</DistanceMeters>
          </Trackpoint>
          <Trackpoint>
            <Time>2022-07-06T15:31:23.000Z</Time>
            <Position>
              <LatitudeDegrees>43.87910225428640842437744140625</LatitudeDegrees>
              <LongitudeDegrees>-1.30123254843056201934814453125</LongitudeDegrees>
            </Position>
            <AltitudeMeters>18.799999237060546875</AltitudeMeters>
            <DistanceMeters>NAN</DistanceMeters>
          </Trackpoint>
          <Trackpoint>
            <Time>2022-07-06T15:31:27.000Z</Time>
            <Position>
              <LatitudeDegrees>43.87907442636787891387939453125</LatitudeDegrees>
              <LongitudeDegrees>-1.30117521621286869049072265625</LongitudeDegrees>
            </Position>
            <AltitudeMeters>18.799999237060546875</AltitudeMeters>
            <DistanceMeters>NAN</DistanceMeters>
          </Trackpoint>
          <Trackpoint>
            <Time>2022-07-06T15:31:29.000Z</Time>
            <Position>
              <LatitudeDegrees>43.87906386516988277435302734375</LatitudeDegrees>
              <LongitudeDegrees>-1.3011374138295650482177734375</LongitudeDegrees>
            </Position>
            <AltitudeMeters>18.799999237060546875</AltitudeMeters>
            <DistanceMeters>NAN</DistanceMeters>
          </Trackpoint>
          <Trackpoint>
            <Time>2022-07-06T15:31:30.000Z</Time>
            <Position>
              <LatitudeDegrees>43.87905456125736236572265625</LatitudeDegrees>
              <LongitudeDegrees>-1.30112282931804656982421875</LongitudeDegrees>
            </Position>
            <AltitudeMeters>18.799999237060546875</AltitudeMeters>
            <DistanceMeters>NAN</DistanceMeters>
          </Trackpoint>
          <Trackpoint>
            <Time>2022-07-06T15:31:35.000Z</Time>
            <Position>
              <LatitudeDegrees>43.87903268449008464813232421875</LatitudeDegrees>
              <LongitudeDegrees>-1.30105904303491115570068359375</LongitudeDegrees>
            </Position>
            <AltitudeMeters>19</AltitudeMeters>
            <DistanceMeters>NAN</DistanceMeters>
          </Trackpoint>
          <Trackpoint>
            <Time>2022-07-06T15:31:37.000Z</Time>
            <Position>
              <LatitudeDegrees>43.87903268449008464813232421875</LatitudeDegrees>
              <LongitudeDegrees>-1.30105904303491115570068359375</LongitudeDegrees>
            </Position>
            <AltitudeMeters>19</AltitudeMeters>
            <DistanceMeters>NAN</DistanceMeters>
          </Trackpoint>
          <Trackpoint>
            <Time>2022-07-06T15:36:06.000Z</Time>
            <Position>
              <LatitudeDegrees>43.87919696979224681854248046875</LatitudeDegrees>
              <LongitudeDegrees>-1.30117454566061496734619140625</LongitudeDegrees>
            </Position>
            <AltitudeMeters>20.3999996185302734375</AltitudeMeters>
            <DistanceMeters>NAN</DistanceMeters>
          </Trackpoint>
          <Trackpoint>
            <Time>2022-07-06T15:36:08.000Z</Time>
            <Position>
              <LatitudeDegrees>43.8791893422603607177734375</LatitudeDegrees>
              <LongitudeDegrees>-1.301198266446590423583984375</LongitudeDegrees>
            </Position>
            <AltitudeMeters>20.3999996185302734375</AltitudeMeters>
            <DistanceMeters>NAN</DistanceMeters>
          </Trackpoint>
          <Trackpoint>
            <Time>2022-07-06T15:36:09.000Z</Time>
            <Position>
              <LatitudeDegrees>43.8791975565254688262939453125</LatitudeDegrees>
              <LongitudeDegrees>-1.30118720233440399169921875</LongitudeDegrees>
            </Position>
            <AltitudeMeters>20.3999996185302734375</AltitudeMeters>
            <DistanceMeters>NAN</DistanceMeters>
          </Trackpoint>
          <Trackpoint>
            <Time>2022-07-06T15:36:11.000Z</Time>
            <Position>
              <LatitudeDegrees>43.87921490706503391265869140625</LatitudeDegrees>
              <LongitudeDegrees>-1.3011618889868259429931640625</LongitudeDegrees>
            </Position>
            <AltitudeMeters>20.200000762939453125</AltitudeMeters>
            <DistanceMeters>NAN</DistanceMeters>
          </Trackpoint>
          <Trackpoint>
            <Time>2022-07-06T15:36:12.000Z</Time>
            <Position>
              <LatitudeDegrees>43.87921490706503391265869140625</LatitudeDegrees>
              <LongitudeDegrees>-1.3011618889868259429931640625</LongitudeDegrees>
            </Position>
            <AltitudeMeters>20.200000762939453125</AltitudeMeters>
            <DistanceMeters>NAN</DistanceMeters>
          </Trackpoint>
          <Trackpoint>
            <Time>2022-07-06T15:36:33.000Z</Time>
            <Position>
              <LatitudeDegrees>43.87916411273181438446044921875</LatitudeDegrees>
              <LongitudeDegrees>-1.3010267727077007293701171875</LongitudeDegrees>
            </Position>
            <AltitudeMeters>19.799999237060546875</AltitudeMeters>
            <DistanceMeters>NAN</DistanceMeters>
          </Trackpoint>
          <Trackpoint>
            <Time>2022-07-06T15:36:35.000Z</Time>
            <Position>
              <LatitudeDegrees>43.87915053404867649078369140625</LatitudeDegrees>
              <LongitudeDegrees>-1.3010515831410884857177734375</LongitudeDegrees>
            </Position>
            <AltitudeMeters>19.799999237060546875</AltitudeMeters>
            <DistanceMeters>NAN</DistanceMeters>
          </Trackpoint>
          <Trackpoint>
            <Time>2022-07-06T15:36:41.000Z</Time>
            <Position>
              <LatitudeDegrees>43.87919671833515167236328125</LatitudeDegrees>
              <LongitudeDegrees>-1.30108393728733062744140625</LongitudeDegrees>
            </Position>
            <AltitudeMeters>20.6000003814697265625</AltitudeMeters>
            <DistanceMeters>NAN</DistanceMeters>
          </Trackpoint>
          <Trackpoint>
            <Time>2022-07-06T15:38:03.000Z</Time>
            <Position>
              <LatitudeDegrees>43.87930266559123992919921875</LatitudeDegrees>
              <LongitudeDegrees>-1.30102358758449554443359375</LongitudeDegrees>
            </Position>
            <AltitudeMeters>20.200000762939453125</AltitudeMeters>
            <DistanceMeters>NAN</DistanceMeters>
          </Trackpoint>
          <Trackpoint>
            <Time>2022-07-06T15:38:04.000Z</Time>
            <Position>
              <LatitudeDegrees>43.879335857927799224853515625</LatitudeDegrees>
              <LongitudeDegrees>-1.30072225816547870635986328125</LongitudeDegrees>
            </Position>
            <AltitudeMeters>20.200000762939453125</AltitudeMeters>
            <DistanceMeters>NAN</DistanceMeters>
          </Trackpoint>
          <Trackpoint>
            <Time>2022-07-06T15:38:05.000Z</Time>
            <Position>
              <LatitudeDegrees>43.87935806997120380401611328125</LatitudeDegrees>
              <LongitudeDegrees>-1.3006787560880184173583984375</LongitudeDegrees>
            </Position>
            <AltitudeMeters>20.200000762939453125</AltitudeMeters>
            <DistanceMeters>NAN</DistanceMeters>
          </Trackpoint>
          <Trackpoint>
            <Time>2022-07-06T15:38:06.000Z</Time>
            <Position>
              <LatitudeDegrees>43.8793611712753772735595703125</LatitudeDegrees>
              <LongitudeDegrees>-1.300732232630252838134765625</LongitudeDegrees>
            </Position>
            <AltitudeMeters>20.3999996185302734375</AltitudeMeters>
            <DistanceMeters>NAN</DistanceMeters>
          </Trackpoint>
          <Trackpoint>
            <Time>2022-07-06T15:38:08.000Z</Time>
            <Position>
              <LatitudeDegrees>43.8793502748012542724609375</LatitudeDegrees>
              <LongitudeDegrees>-1.30078327842056751251220703125</LongitudeDegrees>
            </Position>
            <AltitudeMeters>20.3999996185302734375</AltitudeMeters>
            <DistanceMeters>NAN</DistanceMeters>
          </Trackpoint>
          <Trackpoint>
            <Time>2022-07-06T15:38:09.000Z</Time>
            <Position>
              <LatitudeDegrees>43.8793408870697021484375</LatitudeDegrees>
              <LongitudeDegrees>-1.30082904361188411712646484375</LongitudeDegrees>
            </Position>
            <AltitudeMeters>20.3999996185302734375</AltitudeMeters>
            <DistanceMeters>NAN</DistanceMeters>
          </Trackpoint>
          <Trackpoint>
            <Time>2022-07-06T15:38:10.000Z</Time>
            <Position>
              <LatitudeDegrees>43.8793286494910717010498046875</LatitudeDegrees>
              <LongitudeDegrees>-1.30083994008600711822509765625</LongitudeDegrees>
            </Position>
            <AltitudeMeters>20.3999996185302734375</AltitudeMeters>
            <DistanceMeters>NAN</DistanceMeters>
          </Trackpoint>
          <Trackpoint>
            <Time>2022-07-06T15:38:12.000Z</Time>
            <Position>
              <LatitudeDegrees>43.87929822318255901336669921875</LatitudeDegrees>
              <LongitudeDegrees>-1.3009037263691425323486328125</LongitudeDegrees>
            </Position>
            <AltitudeMeters>20.200000762939453125</AltitudeMeters>
            <DistanceMeters>NAN</DistanceMeters>
          </Trackpoint>
          <Trackpoint>
            <Time>2022-07-06T15:38:15.000Z</Time>
            <Position>
              <LatitudeDegrees>43.8792639411985874176025390625</LatitudeDegrees>
              <LongitudeDegrees>-1.3010049797594547271728515625</LongitudeDegrees>
            </Position>
            <AltitudeMeters>20.200000762939453125</AltitudeMeters>
            <DistanceMeters>NAN</DistanceMeters>
          </Trackpoint>
          <Trackpoint>
            <Time>2022-07-06T15:38:20.000Z</Time>
            <Position>
              <LatitudeDegrees>43.8792756758630275726318359375</LatitudeDegrees>
              <LongitudeDegrees>-1.3012393377721309661865234375</LongitudeDegrees>
            </Position>
            <AltitudeMeters>20.200000762939453125</AltitudeMeters>
            <DistanceMeters>NAN</DistanceMeters>
          </Trackpoint>
          <Trackpoint>
            <Time>2022-07-06T15:48:15.000Z</Time>
            <Position>
              <LatitudeDegrees>43.87982913292944431304931640625</LatitudeDegrees>
              <LongitudeDegrees>-1.30073525011539459228515625</LongitudeDegrees>
            </Position>
            <AltitudeMeters>22.200000762939453125</AltitudeMeters>
            <DistanceMeters>NAN</DistanceMeters>
          </Trackpoint>
          <Trackpoint>
            <Time>2022-07-06T15:48:17.000Z</Time>
            <Position>
              <LatitudeDegrees>43.879954777657985687255859375</LatitudeDegrees>
              <LongitudeDegrees>-1.30059652961790561676025390625</LongitudeDegrees>
            </Position>
            <AltitudeMeters>22.200000762939453125</AltitudeMeters>
            <DistanceMeters>NAN</DistanceMeters>
          </Trackpoint>
          <Trackpoint>
            <Time>2022-07-06T15:51:08.000Z</Time>
            <Position>
              <LatitudeDegrees>43.87909068726003170013427734375</LatitudeDegrees>
              <LongitudeDegrees>-1.301711238920688629150390625</LongitudeDegrees>
            </Position>
            <AltitudeMeters>22</AltitudeMeters>
            <DistanceMeters>NAN</DistanceMeters>
          </Trackpoint>
          <Trackpoint>
            <Time>2022-07-06T15:51:09.000Z</Time>
            <Position>
              <LatitudeDegrees>43.8801737129688262939453125</LatitudeDegrees>
              <LongitudeDegrees>-1.30096969194710254669189453125</LongitudeDegrees>
            </Position>
            <AltitudeMeters>22</AltitudeMeters>
            <DistanceMeters>NAN</DistanceMeters>
          </Trackpoint>
          <Trackpoint>
            <Time>2022-07-06T15:51:12.000Z</Time>
            <Position>
              <LatitudeDegrees>43.87931196950376033782958984375</LatitudeDegrees>
              <LongitudeDegrees>-1.3014187105000019073486328125</LongitudeDegrees>
            </Position>
            <AltitudeMeters>22</AltitudeMeters>
            <DistanceMeters>NAN</DistanceMeters>
          </Trackpoint>
          <Trackpoint>
            <Time>2022-07-06T15:51:13.000Z</Time>
            <Position>
              <LatitudeDegrees>43.87935354374349117279052734375</LatitudeDegrees>
              <LongitudeDegrees>-1.30137856118381023406982421875</LongitudeDegrees>
            </Position>
            <AltitudeMeters>22.200000762939453125</AltitudeMeters>
            <DistanceMeters>NAN</DistanceMeters>
          </Trackpoint>
          <Trackpoint>
            <Time>2022-07-06T15:51:14.000Z</Time>
            <Position>
              <LatitudeDegrees>43.87928531505167484283447265625</LatitudeDegrees>
              <LongitudeDegrees>-1.30139264278113842010498046875</LongitudeDegrees>
            </Position>
            <AltitudeMeters>22</AltitudeMeters>
            <DistanceMeters>NAN</DistanceMeters>
          </Trackpoint>
          <Trackpoint>
            <Time>2022-07-06T15:51:16.000Z</Time>
            <Position>
              <LatitudeDegrees>43.87925949878990650177001953125</LatitudeDegrees>
              <LongitudeDegrees>-1.30141644738614559173583984375</LongitudeDegrees>
            </Position>
            <AltitudeMeters>22.200000762939453125</AltitudeMeters>
            <DistanceMeters>NAN</DistanceMeters>
          </Trackpoint>
          <Trackpoint>
            <Time>2022-07-06T15:51:17.000Z</Time>
            <Position>
              <LatitudeDegrees>43.87926838360726833343505859375</LatitudeDegrees>
              <LongitudeDegrees>-1.30142047069966793060302734375</LongitudeDegrees>
            </Position>
            <AltitudeMeters>22.200000762939453125</AltitudeMeters>
            <DistanceMeters>NAN</DistanceMeters>
          </Trackpoint>
          <Trackpoint>
            <Time>2022-07-06T15:51:18.000Z</Time>
            <Position>
              <LatitudeDegrees>43.87926243245601654052734375</LatitudeDegrees>
              <LongitudeDegrees>-1.3014354743063449859619140625</LongitudeDegrees>
            </Position>
            <AltitudeMeters>22.200000762939453125</AltitudeMeters>
            <DistanceMeters>NAN</DistanceMeters>
          </Trackpoint>
          <Trackpoint>
            <Time>2022-07-06T15:51:51.000Z</Time>
            <Position>
              <LatitudeDegrees>43.87936125509440898895263671875</LatitudeDegrees>
              <LongitudeDegrees>-1.30145936273038387298583984375</LongitudeDegrees>
            </Position>
            <AltitudeMeters>22.200000762939453125</AltitudeMeters>
            <DistanceMeters>NAN</DistanceMeters>
          </Trackpoint>
          <Trackpoint>
            <Time>2022-07-06T15:51:53.000Z</Time>
            <Position>
              <LatitudeDegrees>43.87932186014950275421142578125</LatitudeDegrees>
              <LongitudeDegrees>-1.301477216184139251708984375</LongitudeDegrees>
            </Position>
            <AltitudeMeters>22.200000762939453125</AltitudeMeters>
            <DistanceMeters>NAN</DistanceMeters>
          </Trackpoint>
          <Trackpoint>
            <Time>2022-07-06T15:51:55.000Z</Time>
            <Position>
              <LatitudeDegrees>43.8793648593127727508544921875</LatitudeDegrees>
              <LongitudeDegrees>-1.30142767913639545440673828125</LongitudeDegrees>
            </Position>
            <AltitudeMeters>22</AltitudeMeters>
            <DistanceMeters>NAN</DistanceMeters>
          </Trackpoint>
          <Trackpoint>
            <Time>2022-07-06T15:51:56.000Z</Time>
            <Position>
              <LatitudeDegrees>43.87936192564666271209716796875</LatitudeDegrees>
              <LongitudeDegrees>-1.3014133460819721221923828125</LongitudeDegrees>
            </Position>
            <AltitudeMeters>22</AltitudeMeters>
            <DistanceMeters>NAN</DistanceMeters>
          </Trackpoint>
          <Trackpoint>
            <Time>2022-07-06T15:52:00.000Z</Time>
            <Position>
              <LatitudeDegrees>43.8793115504086017608642578125</LatitudeDegrees>
              <LongitudeDegrees>-1.30137302912771701812744140625</LongitudeDegrees>
            </Position>
            <AltitudeMeters>21.799999237060546875</AltitudeMeters>
            <DistanceMeters>NAN</DistanceMeters>
          </Trackpoint>
          <Trackpoint>
            <Time>2022-07-06T15:52:01.000Z</Time>
            <Position>
              <LatitudeDegrees>43.87936770915985107421875</LatitudeDegrees>
              <LongitudeDegrees>-1.3013255037367343902587890625</LongitudeDegrees>
            </Position>
            <AltitudeMeters>21.799999237060546875</AltitudeMeters>
            <DistanceMeters>NAN</DistanceMeters>
          </Trackpoint>
          <Trackpoint>
            <Time>2022-07-06T15:52:02.000Z</Time>
            <Position>
              <LatitudeDegrees>43.8793688826262950897216796875</LatitudeDegrees>
              <LongitudeDegrees>-1.30133514292538166046142578125</LongitudeDegrees>
            </Position>
            <AltitudeMeters>21.6000003814697265625</AltitudeMeters>
            <DistanceMeters>NAN</DistanceMeters>
          </Trackpoint>
          <Trackpoint>
            <Time>2022-07-06T15:52:04.000Z</Time>
            <Position>
              <LatitudeDegrees>43.879370726644992828369140625</LatitudeDegrees>
              <LongitudeDegrees>-1.301351152360439300537109375</LongitudeDegrees>
            </Position>
            <AltitudeMeters>21.6000003814697265625</AltitudeMeters>
            <DistanceMeters>NAN</DistanceMeters>
          </Trackpoint>
          <Trackpoint>
            <Time>2022-07-06T15:52:06.000Z</Time>
            <Position>
              <LatitudeDegrees>43.8792934454977512359619140625</LatitudeDegrees>
              <LongitudeDegrees>-1.30146187730133533477783203125</LongitudeDegrees>
            </Position>
            <AltitudeMeters>21.3999996185302734375</AltitudeMeters>
            <DistanceMeters>NAN</DistanceMeters>
          </Trackpoint>
          <Trackpoint>
            <Time>2022-07-06T15:52:12.000Z</Time>
            <Position>
              <LatitudeDegrees>43.879163525998592376708984375</LatitudeDegrees>
              <LongitudeDegrees>-1.30155223421752452850341796875</LongitudeDegrees>
            </Position>
            <AltitudeMeters>21.6000003814697265625</AltitudeMeters>
            <DistanceMeters>NAN</DistanceMeters>
          </Trackpoint>
          <Trackpoint>
            <Time>2022-07-06T15:58:33.000Z</Time>
            <Position>
              <LatitudeDegrees>43.87926553376019001007080078125</LatitudeDegrees>
              <LongitudeDegrees>-1.30102870054543018341064453125</LongitudeDegrees>
            </Position>
            <AltitudeMeters>20.3999996185302734375</AltitudeMeters>
            <DistanceMeters>NAN</DistanceMeters>
          </Trackpoint>
          <Trackpoint>
            <Time>2022-07-06T15:58:34.000Z</Time>
            <Position>
              <LatitudeDegrees>43.87923468835651874542236328125</LatitudeDegrees>
              <LongitudeDegrees>-1.3010348193347454071044921875</LongitudeDegrees>
            </Position>
            <AltitudeMeters>20.3999996185302734375</AltitudeMeters>
            <DistanceMeters>NAN</DistanceMeters>
          </Trackpoint>
          <Trackpoint>
            <Time>2022-07-06T15:58:35.000Z</Time>
            <Position>
              <LatitudeDegrees>43.8792324252426624298095703125</LatitudeDegrees>
              <LongitudeDegrees>-1.301044039428234100341796875</LongitudeDegrees>
            </Position>
            <AltitudeMeters>20.3999996185302734375</AltitudeMeters>
            <DistanceMeters>NAN</DistanceMeters>
          </Trackpoint>
          <Trackpoint>
            <Time>2022-07-06T15:58:36.000Z</Time>
            <Position>
              <LatitudeDegrees>43.8792357780039310455322265625</LatitudeDegrees>
              <LongitudeDegrees>-1.30105334334075450897216796875</LongitudeDegrees>
            </Position>
            <AltitudeMeters>20.3999996185302734375</AltitudeMeters>
            <DistanceMeters>NAN</DistanceMeters>
          </Trackpoint>
          <Trackpoint>
            <Time>2022-07-06T15:58:38.000Z</Time>
            <Position>
              <LatitudeDegrees>43.87922647409141063690185546875</LatitudeDegrees>
              <LongitudeDegrees>-1.30106977187097072601318359375</LongitudeDegrees>
            </Position>
            <AltitudeMeters>20.3999996185302734375</AltitudeMeters>
            <DistanceMeters>NAN</DistanceMeters>
          </Trackpoint>
          <Trackpoint>
            <Time>2022-07-06T15:59:12.000Z</Time>
            <Position>
              <LatitudeDegrees>43.8790901005268096923828125</LatitudeDegrees>
              <LongitudeDegrees>-1.3012349791824817657470703125</LongitudeDegrees>
            </Position>
            <AltitudeMeters>20.3999996185302734375</AltitudeMeters>
            <DistanceMeters>NAN</DistanceMeters>
          </Trackpoint>
          <Trackpoint>
            <Time>2022-07-06T15:59:14.000Z</Time>
            <Position>
              <LatitudeDegrees>43.87904693372547626495361328125</LatitudeDegrees>
              <LongitudeDegrees>-1.301285438239574432373046875</LongitudeDegrees>
            </Position>
            <AltitudeMeters>20.3999996185302734375</AltitudeMeters>
            <DistanceMeters>NAN</DistanceMeters>
          </Trackpoint>
          <Trackpoint>
            <Time>2022-07-06T16:14:05.000Z</Time>
            <Position>
              <LatitudeDegrees>43.87907861731946468353271484375</LatitudeDegrees>
              <LongitudeDegrees>-1.30111654289066791534423828125</LongitudeDegrees>
            </Position>
            <AltitudeMeters>23.200000762939453125</AltitudeMeters>
            <DistanceMeters>NAN</DistanceMeters>
          </Trackpoint>
          <Trackpoint>
            <Time>2022-07-06T16:14:06.000Z</Time>
            <Position>
              <LatitudeDegrees>43.879082389175891876220703125</LatitudeDegrees>
              <LongitudeDegrees>-1.30114252679049968719482421875</LongitudeDegrees>
            </Position>
            <AltitudeMeters>23.200000762939453125</AltitudeMeters>
            <DistanceMeters>NAN</DistanceMeters>
          </Trackpoint>
          <Trackpoint>
            <Time>2022-07-06T16:14:07.000Z</Time>
            <Position>
              <LatitudeDegrees>43.87907979078590869903564453125</LatitudeDegrees>
              <LongitudeDegrees>-1.30117404274642467498779296875</LongitudeDegrees>
            </Position>
            <AltitudeMeters>23</AltitudeMeters>
            <DistanceMeters>NAN</DistanceMeters>
          </Trackpoint>
          <Trackpoint>
            <Time>2022-07-06T16:14:08.000Z</Time>
            <Position>
              <LatitudeDegrees>43.8790688104927539825439453125</LatitudeDegrees>
              <LongitudeDegrees>-1.30120404995977878570556640625</LongitudeDegrees>
            </Position>
            <AltitudeMeters>23</AltitudeMeters>
            <DistanceMeters>NAN</DistanceMeters>
          </Trackpoint>
          <Trackpoint>
            <Time>2022-07-06T16:14:12.000Z</Time>
            <Position>
              <LatitudeDegrees>43.878952972590923309326171875</LatitudeDegrees>
              <LongitudeDegrees>-1.301287114620208740234375</LongitudeDegrees>
            </Position>
            <AltitudeMeters>22.799999237060546875</AltitudeMeters>
            <DistanceMeters>NAN</DistanceMeters>
          </Trackpoint>
          <Trackpoint>
            <Time>2022-07-06T16:14:13.000Z</Time>
            <Position>
              <LatitudeDegrees>43.87892782688140869140625</LatitudeDegrees>
              <LongitudeDegrees>-1.301303207874298095703125</LongitudeDegrees>
            </Position>
            <AltitudeMeters>22.6000003814697265625</AltitudeMeters>
            <DistanceMeters>NAN</DistanceMeters>
          </Trackpoint>
          <Trackpoint>
            <Time>2022-07-06T16:14:15.000Z</Time>
            <Position>
              <LatitudeDegrees>43.87888231314718723297119140625</LatitudeDegrees>
              <LongitudeDegrees>-1.30133799277245998382568359375</LongitudeDegrees>
            </Position>
            <AltitudeMeters>22.799999237060546875</AltitudeMeters>
            <DistanceMeters>NAN</DistanceMeters>
          </Trackpoint>
          <Trackpoint>
            <Time>2022-07-06T16:14:21.000Z</Time>
            <Position>
              <LatitudeDegrees>43.878750465810298919677734375</LatitudeDegrees>
              <LongitudeDegrees>-1.301428265869617462158203125</LongitudeDegrees>
            </Position>
            <AltitudeMeters>22.6000003814697265625</AltitudeMeters>
            <DistanceMeters>NAN</DistanceMeters>
          </Trackpoint>
          <Trackpoint>
            <Time>2022-07-06T16:14:24.000Z</Time>
            <Position>
              <LatitudeDegrees>43.8786983303725719451904296875</LatitudeDegrees>
              <LongitudeDegrees>-1.30147042684257030487060546875</LongitudeDegrees>
            </Position>
            <AltitudeMeters>22.799999237060546875</AltitudeMeters>
            <DistanceMeters>NAN</DistanceMeters>
          </Trackpoint>
          <Trackpoint>
            <Time>2022-07-06T16:14:26.000Z</Time>
            <Position>
              <LatitudeDegrees>43.87869690544903278350830078125</LatitudeDegrees>
              <LongitudeDegrees>-1.30151116289198398590087890625</LongitudeDegrees>
            </Position>
            <AltitudeMeters>22.799999237060546875</AltitudeMeters>
            <DistanceMeters>NAN</DistanceMeters>
          </Trackpoint>
          <Trackpoint>
            <Time>2022-07-06T16:14:31.000Z</Time>
            <Position>
              <LatitudeDegrees>43.878751806914806365966796875</LatitudeDegrees>
              <LongitudeDegrees>-1.30166706629097461700439453125</LongitudeDegrees>
            </Position>
            <AltitudeMeters>22.6000003814697265625</AltitudeMeters>
            <DistanceMeters>NAN</DistanceMeters>
          </Trackpoint>
          <Trackpoint>
            <Time>2022-07-06T16:14:38.000Z</Time>
            <Position>
              <LatitudeDegrees>43.87879396788775920867919921875</LatitudeDegrees>
              <LongitudeDegrees>-1.30186018534004688262939453125</LongitudeDegrees>
            </Position>
            <AltitudeMeters>22.3999996185302734375</AltitudeMeters>
            <DistanceMeters>NAN</DistanceMeters>
          </Trackpoint>
          <Trackpoint>
            <Time>2022-07-06T16:14:44.000Z</Time>
            <Position>
              <LatitudeDegrees>43.87881659902632236480712890625</LatitudeDegrees>
              <LongitudeDegrees>-1.30201105959713459014892578125</LongitudeDegrees>
            </Position>
            <AltitudeMeters>22.6000003814697265625</AltitudeMeters>
            <DistanceMeters>NAN</DistanceMeters>
          </Trackpoint>
          <Trackpoint>
            <Time>2022-07-06T16:14:45.000Z</Time>
            <Position>
              <LatitudeDegrees>43.8788069598376750946044921875</LatitudeDegrees>
              <LongitudeDegrees>-1.3020336069166660308837890625</LongitudeDegrees>
            </Position>
            <AltitudeMeters>22.6000003814697265625</AltitudeMeters>
            <DistanceMeters>NAN</DistanceMeters>
          </Trackpoint>
          <Trackpoint>
            <Time>2022-07-06T16:14:48.000Z</Time>
            <Position>
              <LatitudeDegrees>43.8787365518510341644287109375</LatitudeDegrees>
              <LongitudeDegrees>-1.30206830799579620361328125</LongitudeDegrees>
            </Position>
            <AltitudeMeters>22.6000003814697265625</AltitudeMeters>
            <DistanceMeters>NAN</DistanceMeters>
          </Trackpoint>
          <Trackpoint>
            <Time>2022-07-06T16:14:52.000Z</Time>
            <Position>
              <LatitudeDegrees>43.87862632982432842254638671875</LatitudeDegrees>
              <LongitudeDegrees>-1.3021211139857769012451171875</LongitudeDegrees>
            </Position>
            <AltitudeMeters>22.6000003814697265625</AltitudeMeters>
            <DistanceMeters>NAN</DistanceMeters>
          </Trackpoint>
          <Trackpoint>
            <Time>2022-07-06T16:14:54.000Z</Time>
            <Position>
              <LatitudeDegrees>43.8785662315785884857177734375</LatitudeDegrees>
              <LongitudeDegrees>-1.3021482713520526885986328125</LongitudeDegrees>
            </Position>
            <AltitudeMeters>22.6000003814697265625</AltitudeMeters>
            <DistanceMeters>NAN</DistanceMeters>
          </Trackpoint>
          <Trackpoint>
            <Time>2022-07-06T16:14:55.000Z</Time>
            <Position>
              <LatitudeDegrees>43.8785360567271709442138671875</LatitudeDegrees>
              <LongitudeDegrees>-1.30216310732066631317138671875</LongitudeDegrees>
            </Position>
            <AltitudeMeters>22.6000003814697265625</AltitudeMeters>
            <DistanceMeters>NAN</DistanceMeters>
          </Trackpoint>
          <Trackpoint>
            <Time>2022-07-06T16:14:56.000Z</Time>
            <Position>
              <LatitudeDegrees>43.87850202620029449462890625</LatitudeDegrees>
              <LongitudeDegrees>-1.3021747581660747528076171875</LongitudeDegrees>
            </Position>
            <AltitudeMeters>22.6000003814697265625</AltitudeMeters>
            <DistanceMeters>NAN</DistanceMeters>
          </Trackpoint>
          <Trackpoint>
            <Time>2022-07-06T16:14:59.000Z</Time>
            <Position>
              <LatitudeDegrees>43.878412507474422454833984375</LatitudeDegrees>
              <LongitudeDegrees>-1.302209459245204925537109375</LongitudeDegrees>
            </Position>
            <AltitudeMeters>22.6000003814697265625</AltitudeMeters>
            <DistanceMeters>NAN</DistanceMeters>
          </Trackpoint>
          <Trackpoint>
            <Time>2022-07-06T16:15:04.000Z</Time>
            <Position>
              <LatitudeDegrees>43.8782497309148311614990234375</LatitudeDegrees>
              <LongitudeDegrees>-1.30226285196840763092041015625</LongitudeDegrees>
            </Position>
            <AltitudeMeters>22.6000003814697265625</AltitudeMeters>
            <DistanceMeters>NAN</DistanceMeters>
          </Trackpoint>
          <Trackpoint>
            <Time>2022-07-06T16:15:08.000Z</Time>
            <Position>
              <LatitudeDegrees>43.87813364155590534210205078125</LatitudeDegrees>
              <LongitudeDegrees>-1.30231247283518314361572265625</LongitudeDegrees>
            </Position>
            <AltitudeMeters>22.3999996185302734375</AltitudeMeters>
            <DistanceMeters>NAN</DistanceMeters>
          </Trackpoint>
          <Trackpoint>
            <Time>2022-07-06T16:15:16.000Z</Time>
            <Position>
              <LatitudeDegrees>43.877898193895816802978515625</LatitudeDegrees>
              <LongitudeDegrees>-1.3024050928652286529541015625</LongitudeDegrees>
            </Position>
            <AltitudeMeters>22.6000003814697265625</AltitudeMeters>
            <DistanceMeters>NAN</DistanceMeters>
          </Trackpoint>
          <Trackpoint>
            <Time>2022-07-06T16:15:17.000Z</Time>
            <Position>
              <LatitudeDegrees>43.8778691925108432769775390625</LatitudeDegrees>
              <LongitudeDegrees>-1.3024161569774150848388671875</LongitudeDegrees>
            </Position>
            <AltitudeMeters>22.6000003814697265625</AltitudeMeters>
            <DistanceMeters>NAN</DistanceMeters>
          </Trackpoint>
          <Trackpoint>
            <Time>2022-07-06T16:15:23.000Z</Time>
            <Position>
              <LatitudeDegrees>43.87770364992320537567138671875</LatitudeDegrees>
              <LongitudeDegrees>-1.302489750087261199951171875</LongitudeDegrees>
            </Position>
            <AltitudeMeters>22.799999237060546875</AltitudeMeters>
            <DistanceMeters>NAN</DistanceMeters>
          </Trackpoint>
          <Trackpoint>
            <Time>2022-07-06T16:15:25.000Z</Time>
            <Position>
              <LatitudeDegrees>43.8776578009128570556640625</LatitudeDegrees>
              <LongitudeDegrees>-1.30252637900412082672119140625</LongitudeDegrees>
            </Position>
            <AltitudeMeters>23</AltitudeMeters>
            <DistanceMeters>NAN</DistanceMeters>
          </Trackpoint>
          <Trackpoint>
            <Time>2022-07-06T16:15:29.000Z</Time>
            <Position>
              <LatitudeDegrees>43.8775909133255481719970703125</LatitudeDegrees>
              <LongitudeDegrees>-1.30262293852865695953369140625</LongitudeDegrees>
            </Position>
            <AltitudeMeters>23</AltitudeMeters>
            <DistanceMeters>NAN</DistanceMeters>
          </Trackpoint>
          <Trackpoint>
            <Time>2022-07-06T16:15:31.000Z</Time>
            <Position>
              <LatitudeDegrees>43.877585045993328094482421875</LatitudeDegrees>
              <LongitudeDegrees>-1.30268462933599948883056640625</LongitudeDegrees>
            </Position>
            <AltitudeMeters>23.200000762939453125</AltitudeMeters>
            <DistanceMeters>NAN</DistanceMeters>
          </Trackpoint>
          <Trackpoint>
            <Time>2022-07-06T16:15:37.000Z</Time>
            <Position>
              <LatitudeDegrees>43.87756015174090862274169921875</LatitudeDegrees>
              <LongitudeDegrees>-1.3028583861887454986572265625</LongitudeDegrees>
            </Position>
            <AltitudeMeters>23.6000003814697265625</AltitudeMeters>
            <DistanceMeters>NAN</DistanceMeters>
          </Trackpoint>
          <Trackpoint>
            <Time>2022-07-06T16:15:38.000Z</Time>
            <Position>
              <LatitudeDegrees>43.877544142305850982666015625</LatitudeDegrees>
              <LongitudeDegrees>-1.302868612110614776611328125</LongitudeDegrees>
            </Position>
            <AltitudeMeters>23.3999996185302734375</AltitudeMeters>
            <DistanceMeters>NAN</DistanceMeters>
          </Trackpoint>
          <Trackpoint>
            <Time>2022-07-06T16:15:41.000Z</Time>
            <Position>
              <LatitudeDegrees>43.87746669352054595947265625</LatitudeDegrees>
              <LongitudeDegrees>-1.30286266095936298370361328125</LongitudeDegrees>
            </Position>
            <AltitudeMeters>23.6000003814697265625</AltitudeMeters>
            <DistanceMeters>NAN</DistanceMeters>
          </Trackpoint>
          <Trackpoint>
            <Time>2022-07-06T16:15:48.000Z</Time>
            <Position>
              <LatitudeDegrees>43.877333588898181915283203125</LatitudeDegrees>
              <LongitudeDegrees>-1.3027923367917537689208984375</LongitudeDegrees>
            </Position>
            <AltitudeMeters>23.799999237060546875</AltitudeMeters>
            <DistanceMeters>NAN</DistanceMeters>
          </Trackpoint>
          <Trackpoint>
            <Time>2022-07-06T16:15:49.000Z</Time>
            <Position>
              <LatitudeDegrees>43.87732319533824920654296875</LatitudeDegrees>
              <LongitudeDegrees>-1.30277481861412525177001953125</LongitudeDegrees>
            </Position>
            <AltitudeMeters>23.799999237060546875</AltitudeMeters>
            <DistanceMeters>NAN</DistanceMeters>
          </Trackpoint>
          <Trackpoint>
            <Time>2022-07-06T16:15:52.000Z</Time>
            <Position>
              <LatitudeDegrees>43.877295367419719696044921875</LatitudeDegrees>
              <LongitudeDegrees>-1.30268412642180919647216796875</LongitudeDegrees>
            </Position>
            <AltitudeMeters>23.799999237060546875</AltitudeMeters>
            <DistanceMeters>NAN</DistanceMeters>
          </Trackpoint>
          <Trackpoint>
            <Time>2022-07-06T16:15:54.000Z</Time>
            <Position>
              <LatitudeDegrees>43.877294361591339111328125</LatitudeDegrees>
              <LongitudeDegrees>-1.3026188313961029052734375</LongitudeDegrees>
            </Position>
            <AltitudeMeters>23.6000003814697265625</AltitudeMeters>
            <DistanceMeters>NAN</DistanceMeters>
          </Trackpoint>
          <Trackpoint>
            <Time>2022-07-06T16:16:00.000Z</Time>
            <Position>
              <LatitudeDegrees>43.8772764243185520172119140625</LatitudeDegrees>
              <LongitudeDegrees>-1.30244021303951740264892578125</LongitudeDegrees>
            </Position>
            <AltitudeMeters>23.200000762939453125</AltitudeMeters>
            <DistanceMeters>NAN</DistanceMeters>
          </Trackpoint>
          <Trackpoint>
            <Time>2022-07-06T16:16:02.000Z</Time>
            <Position>
              <LatitudeDegrees>43.877266533672809600830078125</LatitudeDegrees>
              <LongitudeDegrees>-1.3024124689400196075439453125</LongitudeDegrees>
            </Position>
            <AltitudeMeters>23</AltitudeMeters>
            <DistanceMeters>NAN</DistanceMeters>
          </Trackpoint>
          <Trackpoint>
            <Time>2022-07-06T16:16:04.000Z</Time>
            <Position>
              <LatitudeDegrees>43.87728539295494556427001953125</LatitudeDegrees>
              <LongitudeDegrees>-1.30240065045654773712158203125</LongitudeDegrees>
            </Position>
            <AltitudeMeters>22.799999237060546875</AltitudeMeters>
            <DistanceMeters>NAN</DistanceMeters>
          </Trackpoint>
          <Trackpoint>
            <Time>2022-07-06T16:16:09.000Z</Time>
            <Position>
              <LatitudeDegrees>43.87734775431454181671142578125</LatitudeDegrees>
              <LongitudeDegrees>-1.30243845283985137939453125</LongitudeDegrees>
            </Position>
            <AltitudeMeters>22.799999237060546875</AltitudeMeters>
            <DistanceMeters>NAN</DistanceMeters>
          </Trackpoint>
          <Trackpoint>
            <Time>2022-07-06T16:16:10.000Z</Time>
            <Position>
              <LatitudeDegrees>43.87734909541904926300048828125</LatitudeDegrees>
              <LongitudeDegrees>-1.3024386204779148101806640625</LongitudeDegrees>
            </Position>
            <AltitudeMeters>22.799999237060546875</AltitudeMeters>
            <DistanceMeters>NAN</DistanceMeters>
          </Trackpoint>
          <Trackpoint>
            <Time>2022-07-06T16:17:48.000Z</Time>
            <Position>
              <LatitudeDegrees>43.87724583037197589874267578125</LatitudeDegrees>
              <LongitudeDegrees>-1.30238740704953670501708984375</LongitudeDegrees>
            </Position>
            <AltitudeMeters>21.200000762939453125</AltitudeMeters>
            <DistanceMeters>NAN</DistanceMeters>
          </Trackpoint>
          <Trackpoint>
            <Time>2022-07-06T16:17:49.000Z</Time>
            <Position>
              <LatitudeDegrees>43.87722663581371307373046875</LatitudeDegrees>
              <LongitudeDegrees>-1.302376426756381988525390625</LongitudeDegrees>
            </Position>
            <AltitudeMeters>21.200000762939453125</AltitudeMeters>
            <DistanceMeters>NAN</DistanceMeters>
          </Trackpoint>
          <Trackpoint>
            <Time>2022-07-06T16:17:50.000Z</Time>
            <Position>
              <LatitudeDegrees>43.877204172313213348388671875</LatitudeDegrees>
              <LongitudeDegrees>-1.302360333502292633056640625</LongitudeDegrees>
            </Position>
            <AltitudeMeters>21.200000762939453125</AltitudeMeters>
            <DistanceMeters>NAN</DistanceMeters>
          </Trackpoint>
          <Trackpoint>
            <Time>2022-07-06T16:17:53.000Z</Time>
            <Position>
              <LatitudeDegrees>43.8771292380988597869873046875</LatitudeDegrees>
              <LongitudeDegrees>-1.30229101516306400299072265625</LongitudeDegrees>
            </Position>
            <AltitudeMeters>21</AltitudeMeters>
            <DistanceMeters>NAN</DistanceMeters>
          </Trackpoint>
          <Trackpoint>
            <Time>2022-07-06T16:17:55.000Z</Time>
            <Position>
              <LatitudeDegrees>43.8770772702991962432861328125</LatitudeDegrees>
              <LongitudeDegrees>-1.30223988555371761322021484375</LongitudeDegrees>
            </Position>
            <AltitudeMeters>21</AltitudeMeters>
            <DistanceMeters>NAN</DistanceMeters>
          </Trackpoint>
          <Trackpoint>
            <Time>2022-07-06T16:18:01.000Z</Time>
            <Position>
              <LatitudeDegrees>43.87693033553659915924072265625</LatitudeDegrees>
              <LongitudeDegrees>-1.30207392387092113494873046875</LongitudeDegrees>
            </Position>
            <AltitudeMeters>21.200000762939453125</AltitudeMeters>
            <DistanceMeters>NAN</DistanceMeters>
          </Trackpoint>
          <Trackpoint>
            <Time>2022-07-06T16:18:07.000Z</Time>
            <Position>
              <LatitudeDegrees>43.8767657987773418426513671875</LatitudeDegrees>
              <LongitudeDegrees>-1.30199295468628406524658203125</LongitudeDegrees>
            </Position>
            <AltitudeMeters>21</AltitudeMeters>
            <DistanceMeters>NAN</DistanceMeters>
          </Trackpoint>
          <Trackpoint>
            <Time>2022-07-06T16:18:09.000Z</Time>
            <Position>
              <LatitudeDegrees>43.876709304749965667724609375</LatitudeDegrees>
              <LongitudeDegrees>-1.301962696015834808349609375</LongitudeDegrees>
            </Position>
            <AltitudeMeters>21.200000762939453125</AltitudeMeters>
            <DistanceMeters>NAN</DistanceMeters>
          </Trackpoint>
          <Trackpoint>
            <Time>2022-07-06T16:18:13.000Z</Time>
            <Position>
              <LatitudeDegrees>43.87658692896366119384765625</LatitudeDegrees>
              <LongitudeDegrees>-1.3019051961600780487060546875</LongitudeDegrees>
            </Position>
            <AltitudeMeters>21.3999996185302734375</AltitudeMeters>
            <DistanceMeters>NAN</DistanceMeters>
          </Trackpoint>
          <Trackpoint>
            <Time>2022-07-06T16:18:16.000Z</Time>
            <Position>
              <LatitudeDegrees>43.87650319375097751617431640625</LatitudeDegrees>
              <LongitudeDegrees>-1.301862783730030059814453125</LongitudeDegrees>
            </Position>
            <AltitudeMeters>21.200000762939453125</AltitudeMeters>
            <DistanceMeters>NAN</DistanceMeters>
          </Trackpoint>
          <Trackpoint>
            <Time>2022-07-06T16:18:22.000Z</Time>
            <Position>
              <LatitudeDegrees>43.876322396099567413330078125</LatitudeDegrees>
              <LongitudeDegrees>-1.3017918728291988372802734375</LongitudeDegrees>
            </Position>
            <AltitudeMeters>21.200000762939453125</AltitudeMeters>
            <DistanceMeters>NAN</DistanceMeters>
          </Trackpoint>
          <Trackpoint>
            <Time>2022-07-06T16:18:24.000Z</Time>
            <Position>
              <LatitudeDegrees>43.87625458650290966033935546875</LatitudeDegrees>
              <LongitudeDegrees>-1.3017640449106693267822265625</LongitudeDegrees>
            </Position>
            <AltitudeMeters>21.3999996185302734375</AltitudeMeters>
            <DistanceMeters>NAN</DistanceMeters>
          </Trackpoint>
          <Trackpoint>
            <Time>2022-07-06T16:18:33.000Z</Time>
            <Position>
              <LatitudeDegrees>43.87596893124282360076904296875</LatitudeDegrees>
              <LongitudeDegrees>-1.30161426030099391937255859375</LongitudeDegrees>
            </Position>
            <AltitudeMeters>21.6000003814697265625</AltitudeMeters>
            <DistanceMeters>NAN</DistanceMeters>
          </Trackpoint>
          <Trackpoint>
            <Time>2022-07-06T16:18:37.000Z</Time>
            <Position>
              <LatitudeDegrees>43.87584454379975795745849609375</LatitudeDegrees>
              <LongitudeDegrees>-1.301525495946407318115234375</LongitudeDegrees>
            </Position>
            <AltitudeMeters>21.6000003814697265625</AltitudeMeters>
            <DistanceMeters>NAN</DistanceMeters>
          </Trackpoint>
          <Trackpoint>
            <Time>2022-07-06T16:18:42.000Z</Time>
            <Position>
              <LatitudeDegrees>43.87569568119943141937255859375</LatitudeDegrees>
              <LongitudeDegrees>-1.301414184272289276123046875</LongitudeDegrees>
            </Position>
            <AltitudeMeters>21.799999237060546875</AltitudeMeters>
            <DistanceMeters>NAN</DistanceMeters>
          </Trackpoint>
          <Trackpoint>
            <Time>2022-07-06T16:18:48.000Z</Time>
            <Position>
              <LatitudeDegrees>43.87553676031529903411865234375</LatitudeDegrees>
              <LongitudeDegrees>-1.30129876546561717987060546875</LongitudeDegrees>
            </Position>
            <AltitudeMeters>22.200000762939453125</AltitudeMeters>
            <DistanceMeters>NAN</DistanceMeters>
          </Trackpoint>
          <Trackpoint>
            <Time>2022-07-06T16:18:51.000Z</Time>
            <Position>
              <LatitudeDegrees>43.87545931152999401092529296875</LatitudeDegrees>
              <LongitudeDegrees>-1.301276721060276031494140625</LongitudeDegrees>
            </Position>
            <AltitudeMeters>22.6000003814697265625</AltitudeMeters>
            <DistanceMeters>NAN</DistanceMeters>
          </Trackpoint>
          <Trackpoint>
            <Time>2022-07-06T16:18:55.000Z</Time>
            <Position>
              <LatitudeDegrees>43.875373899936676025390625</LatitudeDegrees>
              <LongitudeDegrees>-1.30129306577146053314208984375</LongitudeDegrees>
            </Position>
            <AltitudeMeters>22.799999237060546875</AltitudeMeters>
            <DistanceMeters>NAN</DistanceMeters>
          </Trackpoint>
          <Trackpoint>
            <Time>2022-07-06T16:18:57.000Z</Time>
            <Position>
              <LatitudeDegrees>43.8753448985517024993896484375</LatitudeDegrees>
              <LongitudeDegrees>-1.30132541991770267486572265625</LongitudeDegrees>
            </Position>
            <AltitudeMeters>23</AltitudeMeters>
            <DistanceMeters>NAN</DistanceMeters>
          </Trackpoint>
          <Trackpoint>
            <Time>2022-07-06T16:19:00.000Z</Time>
            <Position>
              <LatitudeDegrees>43.8753127120435237884521484375</LatitudeDegrees>
              <LongitudeDegrees>-1.301386356353759765625</LongitudeDegrees>
            </Position>
            <AltitudeMeters>23.3999996185302734375</AltitudeMeters>
            <DistanceMeters>NAN</DistanceMeters>
          </Trackpoint>
          <Trackpoint>
            <Time>2022-07-06T16:19:03.000Z</Time>
            <Position>
              <LatitudeDegrees>43.87527625076472759246826171875</LatitudeDegrees>
              <LongitudeDegrees>-1.30144444294273853302001953125</LongitudeDegrees>
            </Position>
            <AltitudeMeters>23.3999996185302734375</AltitudeMeters>
            <DistanceMeters>NAN</DistanceMeters>
          </Trackpoint>
          <Trackpoint>
            <Time>2022-07-06T16:19:12.000Z</Time>
            <Position>
              <LatitudeDegrees>43.87515462934970855712890625</LatitudeDegrees>
              <LongitudeDegrees>-1.30160830914974212646484375</LongitudeDegrees>
            </Position>
            <AltitudeMeters>24.200000762939453125</AltitudeMeters>
            <DistanceMeters>NAN</DistanceMeters>
          </Trackpoint>
          <Trackpoint>
            <Time>2022-07-06T16:19:13.000Z</Time>
            <Position>
              <LatitudeDegrees>43.87514281086623668670654296875</LatitudeDegrees>
              <LongitudeDegrees>-1.3016275875270366668701171875</LongitudeDegrees>
            </Position>
            <AltitudeMeters>24.3999996185302734375</AltitudeMeters>
            <DistanceMeters>NAN</DistanceMeters>
          </Trackpoint>
          <Trackpoint>
            <Time>2022-07-06T16:19:17.000Z</Time>
            <Position>
              <LatitudeDegrees>43.87508614920079708099365234375</LatitudeDegrees>
              <LongitudeDegrees>-1.301691122353076934814453125</LongitudeDegrees>
            </Position>
            <AltitudeMeters>24.799999237060546875</AltitudeMeters>
            <DistanceMeters>NAN</DistanceMeters>
          </Trackpoint>
          <Trackpoint>
            <Time>2022-07-06T16:19:20.000Z</Time>
            <Position>
              <LatitudeDegrees>43.87504407204687595367431640625</LatitudeDegrees>
              <LongitudeDegrees>-1.30173009820282459259033203125</LongitudeDegrees>
            </Position>
            <AltitudeMeters>25.6000003814697265625</AltitudeMeters>
            <DistanceMeters>NAN</DistanceMeters>
          </Trackpoint>
          <Trackpoint>
            <Time>2022-07-06T16:19:21.000Z</Time>
            <Position>
              <LatitudeDegrees>43.87502965517342090606689453125</LatitudeDegrees>
              <LongitudeDegrees>-1.30174233578145503997802734375</LongitudeDegrees>
            </Position>
            <AltitudeMeters>25.6000003814697265625</AltitudeMeters>
            <DistanceMeters>NAN</DistanceMeters>
          </Trackpoint>
          <Trackpoint>
            <Time>2022-07-06T16:19:23.000Z</Time>
            <Position>
              <LatitudeDegrees>43.875004090368747711181640625</LatitudeDegrees>
              <LongitudeDegrees>-1.30176446400582790374755859375</LongitudeDegrees>
            </Position>
            <AltitudeMeters>26</AltitudeMeters>
            <DistanceMeters>NAN</DistanceMeters>
          </Trackpoint>
          <Trackpoint>
            <Time>2022-07-06T16:19:24.000Z</Time>
            <Position>
              <LatitudeDegrees>43.874987997114658355712890625</LatitudeDegrees>
              <LongitudeDegrees>-1.30176949314773082733154296875</LongitudeDegrees>
            </Position>
            <AltitudeMeters>26.200000762939453125</AltitudeMeters>
            <DistanceMeters>NAN</DistanceMeters>
          </Trackpoint>
          <Trackpoint>
            <Time>2022-07-06T16:19:26.000Z</Time>
            <Position>
              <LatitudeDegrees>43.87496662326157093048095703125</LatitudeDegrees>
              <LongitudeDegrees>-1.3017953932285308837890625</LongitudeDegrees>
            </Position>
            <AltitudeMeters>26.3999996185302734375</AltitudeMeters>
            <DistanceMeters>NAN</DistanceMeters>
          </Trackpoint>
          <Trackpoint>
            <Time>2022-07-06T16:19:27.000Z</Time>
            <Position>
              <LatitudeDegrees>43.87495824135839939117431640625</LatitudeDegrees>
              <LongitudeDegrees>-1.30180788226425647735595703125</LongitudeDegrees>
            </Position>
            <AltitudeMeters>26.3999996185302734375</AltitudeMeters>
            <DistanceMeters>NAN</DistanceMeters>
          </Trackpoint>
          <Trackpoint>
            <Time>2022-07-06T16:19:28.000Z</Time>
            <Position>
              <LatitudeDegrees>43.87494365684688091278076171875</LatitudeDegrees>
              <LongitudeDegrees>-1.301820538938045501708984375</LongitudeDegrees>
            </Position>
            <AltitudeMeters>26.6000003814697265625</AltitudeMeters>
            <DistanceMeters>NAN</DistanceMeters>
          </Trackpoint>
          <Trackpoint>
            <Time>2022-07-06T16:19:30.000Z</Time>
            <Position>
              <LatitudeDegrees>43.87490945868194103240966796875</LatitudeDegrees>
              <LongitudeDegrees>-1.301823556423187255859375</LongitudeDegrees>
            </Position>
            <AltitudeMeters>26.6000003814697265625</AltitudeMeters>
            <DistanceMeters>NAN</DistanceMeters>
          </Trackpoint>
          <Trackpoint>
            <Time>2022-07-06T16:19:33.000Z</Time>
            <Position>
              <LatitudeDegrees>43.8748825527727603912353515625</LatitudeDegrees>
              <LongitudeDegrees>-1.30179111845791339874267578125</LongitudeDegrees>
            </Position>
            <AltitudeMeters>26.799999237060546875</AltitudeMeters>
            <DistanceMeters>NAN</DistanceMeters>
          </Trackpoint>
          <Trackpoint>
            <Time>2022-07-06T16:19:34.000Z</Time>
            <Position>
              <LatitudeDegrees>43.87487911619246006011962890625</LatitudeDegrees>
              <LongitudeDegrees>-1.30177728831768035888671875</LongitudeDegrees>
            </Position>
            <AltitudeMeters>26.799999237060546875</AltitudeMeters>
            <DistanceMeters>NAN</DistanceMeters>
          </Trackpoint>
          <Trackpoint>
            <Time>2022-07-06T16:19:38.000Z</Time>
            <Position>
              <LatitudeDegrees>43.874901831150054931640625</LatitudeDegrees>
              <LongitudeDegrees>-1.30172657780349254608154296875</LongitudeDegrees>
            </Position>
            <AltitudeMeters>26.799999237060546875</AltitudeMeters>
            <DistanceMeters>NAN</DistanceMeters>
          </Trackpoint>
          <Trackpoint>
            <Time>2022-07-06T16:19:41.000Z</Time>
            <Position>
              <LatitudeDegrees>43.8749241270124912261962890625</LatitudeDegrees>
              <LongitudeDegrees>-1.30167536437511444091796875</LongitudeDegrees>
            </Position>
            <AltitudeMeters>26.799999237060546875</AltitudeMeters>
            <DistanceMeters>NAN</DistanceMeters>
          </Trackpoint>
          <Trackpoint>
            <Time>2022-07-06T16:19:44.000Z</Time>
            <Position>
              <LatitudeDegrees>43.874935023486614227294921875</LatitudeDegrees>
              <LongitudeDegrees>-1.3016544096171855926513671875</LongitudeDegrees>
            </Position>
            <AltitudeMeters>27</AltitudeMeters>
            <DistanceMeters>NAN</DistanceMeters>
          </Trackpoint>
          <Trackpoint>
            <Time>2022-07-06T16:19:45.000Z</Time>
            <Position>
              <LatitudeDegrees>43.87493594549596309661865234375</LatitudeDegrees>
              <LongitudeDegrees>-1.30164661444723606109619140625</LongitudeDegrees>
            </Position>
            <AltitudeMeters>27</AltitudeMeters>
            <DistanceMeters>NAN</DistanceMeters>
          </Trackpoint>
          <Trackpoint>
            <Time>2022-07-06T16:20:03.000Z</Time>
            <Position>
              <LatitudeDegrees>43.87496544979512691497802734375</LatitudeDegrees>
              <LongitudeDegrees>-1.30157788284122943878173828125</LongitudeDegrees>
            </Position>
            <AltitudeMeters>27</AltitudeMeters>
            <DistanceMeters>NAN</DistanceMeters>
          </Trackpoint>
          <Trackpoint>
            <Time>2022-07-06T16:20:05.000Z</Time>
            <Position>
              <LatitudeDegrees>43.874979950487613677978515625</LatitudeDegrees>
              <LongitudeDegrees>-1.30155826918780803680419921875</LongitudeDegrees>
            </Position>
            <AltitudeMeters>27</AltitudeMeters>
            <DistanceMeters>NAN</DistanceMeters>
          </Trackpoint>
          <Trackpoint>
            <Time>2022-07-06T16:20:06.000Z</Time>
            <Position>
              <LatitudeDegrees>43.874976933002471923828125</LatitudeDegrees>
              <LongitudeDegrees>-1.30156078375875949859619140625</LongitudeDegrees>
            </Position>
            <AltitudeMeters>26.799999237060546875</AltitudeMeters>
            <DistanceMeters>NAN</DistanceMeters>
          </Trackpoint>
          <Trackpoint>
            <Time>2022-07-06T16:20:07.000Z</Time>
            <Position>
              <LatitudeDegrees>43.87497483752667903900146484375</LatitudeDegrees>
              <LongitudeDegrees>-1.30157637409865856170654296875</LongitudeDegrees>
            </Position>
            <AltitudeMeters>26.799999237060546875</AltitudeMeters>
            <DistanceMeters>NAN</DistanceMeters>
          </Trackpoint>
          <Trackpoint>
            <Time>2022-07-06T16:20:14.000Z</Time>
            <Position>
              <LatitudeDegrees>43.87500836513936519622802734375</LatitudeDegrees>
              <LongitudeDegrees>-1.301709227263927459716796875</LongitudeDegrees>
            </Position>
            <AltitudeMeters>27</AltitudeMeters>
            <DistanceMeters>NAN</DistanceMeters>
          </Trackpoint>
          <Trackpoint>
            <Time>2022-07-06T16:20:16.000Z</Time>
            <Position>
              <LatitudeDegrees>43.8749529607594013214111328125</LatitudeDegrees>
              <LongitudeDegrees>-1.30174853838980197906494140625</LongitudeDegrees>
            </Position>
            <AltitudeMeters>27</AltitudeMeters>
            <DistanceMeters>NAN</DistanceMeters>
          </Trackpoint>
          <Trackpoint>
            <Time>2022-07-06T16:20:18.000Z</Time>
            <Position>
              <LatitudeDegrees>43.874949105083942413330078125</LatitudeDegrees>
              <LongitudeDegrees>-1.30172557197511196136474609375</LongitudeDegrees>
            </Position>
            <AltitudeMeters>27</AltitudeMeters>
            <DistanceMeters>NAN</DistanceMeters>
          </Trackpoint>
          <Trackpoint>
            <Time>2022-07-06T16:20:43.000Z</Time>
            <Position>
              <LatitudeDegrees>43.87499545700848102569580078125</LatitudeDegrees>
              <LongitudeDegrees>-1.30162113346159458160400390625</LongitudeDegrees>
            </Position>
            <AltitudeMeters>27.200000762939453125</AltitudeMeters>
            <DistanceMeters>NAN</DistanceMeters>
          </Trackpoint>
          <Trackpoint>
            <Time>2022-07-06T16:22:48.000Z</Time>
            <Position>
              <LatitudeDegrees>43.87489713728427886962890625</LatitudeDegrees>
              <LongitudeDegrees>-1.30165969021618366241455078125</LongitudeDegrees>
            </Position>
            <AltitudeMeters>27.6000003814697265625</AltitudeMeters>
            <DistanceMeters>NAN</DistanceMeters>
          </Trackpoint>
          <Trackpoint>
            <Time>2022-07-06T16:22:54.000Z</Time>
            <Position>
              <LatitudeDegrees>43.8749563135206699371337890625</LatitudeDegrees>
              <LongitudeDegrees>-1.30156899802386760711669921875</LongitudeDegrees>
            </Position>
            <AltitudeMeters>27.6000003814697265625</AltitudeMeters>
            <DistanceMeters>NAN</DistanceMeters>
          </Trackpoint>
          <Trackpoint>
            <Time>2022-07-06T16:22:59.000Z</Time>
            <Position>
              <LatitudeDegrees>43.87493024580180644989013671875</LatitudeDegrees>
              <LongitudeDegrees>-1.3016118295490741729736328125</LongitudeDegrees>
            </Position>
            <AltitudeMeters>27.6000003814697265625</AltitudeMeters>
            <DistanceMeters>NAN</DistanceMeters>
          </Trackpoint>
          <Trackpoint>
            <Time>2022-07-06T16:23:02.000Z</Time>
            <Position>
              <LatitudeDegrees>43.8749304972589015960693359375</LatitudeDegrees>
              <LongitudeDegrees>-1.30163781344890594482421875</LongitudeDegrees>
            </Position>
            <AltitudeMeters>27.799999237060546875</AltitudeMeters>
            <DistanceMeters>NAN</DistanceMeters>
          </Trackpoint>
          <Trackpoint>
            <Time>2022-07-06T16:23:17.000Z</Time>
            <Position>
              <LatitudeDegrees>43.87494181282818317413330078125</LatitudeDegrees>
              <LongitudeDegrees>-1.30189270712435245513916015625</LongitudeDegrees>
            </Position>
            <AltitudeMeters>28</AltitudeMeters>
            <DistanceMeters>NAN</DistanceMeters>
          </Trackpoint>
          <Trackpoint>
            <Time>2022-07-06T16:23:18.000Z</Time>
            <Position>
              <LatitudeDegrees>43.87495069764554500579833984375</LatitudeDegrees>
              <LongitudeDegrees>-1.30191483534872531890869140625</LongitudeDegrees>
            </Position>
            <AltitudeMeters>28</AltitudeMeters>
            <DistanceMeters>NAN</DistanceMeters>
          </Trackpoint>
          <Trackpoint>
            <Time>2022-07-06T16:23:25.000Z</Time>
            <Position>
              <LatitudeDegrees>43.87502445839345455169677734375</LatitudeDegrees>
              <LongitudeDegrees>-1.30204550921916961669921875</LongitudeDegrees>
            </Position>
            <AltitudeMeters>28.3999996185302734375</AltitudeMeters>
            <DistanceMeters>NAN</DistanceMeters>
          </Trackpoint>
          <Trackpoint>
            <Time>2022-07-06T16:23:29.000Z</Time>
            <Position>
              <LatitudeDegrees>43.8750622607767581939697265625</LatitudeDegrees>
              <LongitudeDegrees>-1.30211164243519306182861328125</LongitudeDegrees>
            </Position>
            <AltitudeMeters>28.799999237060546875</AltitudeMeters>
            <DistanceMeters>NAN</DistanceMeters>
          </Trackpoint>
          <Trackpoint>
            <Time>2022-07-06T16:23:34.000Z</Time>
            <Position>
              <LatitudeDegrees>43.8751155696809291839599609375</LatitudeDegrees>
              <LongitudeDegrees>-1.30219328217208385467529296875</LongitudeDegrees>
            </Position>
            <AltitudeMeters>29</AltitudeMeters>
            <DistanceMeters>NAN</DistanceMeters>
          </Trackpoint>
          <Trackpoint>
            <Time>2022-07-06T16:23:39.000Z</Time>
            <Position>
              <LatitudeDegrees>43.87517080642282962799072265625</LatitudeDegrees>
              <LongitudeDegrees>-1.302255727350711822509765625</LongitudeDegrees>
            </Position>
            <AltitudeMeters>29.799999237060546875</AltitudeMeters>
            <DistanceMeters>NAN</DistanceMeters>
          </Trackpoint>
          <Trackpoint>
            <Time>2022-07-06T16:23:45.000Z</Time>
            <Position>
              <LatitudeDegrees>43.87524171732366085052490234375</LatitudeDegrees>
              <LongitudeDegrees>-1.30231196992099285125732421875</LongitudeDegrees>
            </Position>
            <AltitudeMeters>30.6000003814697265625</AltitudeMeters>
            <DistanceMeters>NAN</DistanceMeters>
          </Trackpoint>
          <Trackpoint>
            <Time>2022-07-06T16:23:46.000Z</Time>
            <Position>
              <LatitudeDegrees>43.875244818627834320068359375</LatitudeDegrees>
              <LongitudeDegrees>-1.30232445895671844482421875</LongitudeDegrees>
            </Position>
            <AltitudeMeters>30.6000003814697265625</AltitudeMeters>
            <DistanceMeters>NAN</DistanceMeters>
          </Trackpoint>
          <Trackpoint>
            <Time>2022-07-06T16:23:49.000Z</Time>
            <Position>
              <LatitudeDegrees>43.87524389661848545074462890625</LatitudeDegrees>
              <LongitudeDegrees>-1.302371062338352203369140625</LongitudeDegrees>
            </Position>
            <AltitudeMeters>30.799999237060546875</AltitudeMeters>
            <DistanceMeters>NAN</DistanceMeters>
          </Trackpoint>
          <Trackpoint>
            <Time>2022-07-06T16:23:50.000Z</Time>
            <Position>
              <LatitudeDegrees>43.87524783611297607421875</LatitudeDegrees>
              <LongitudeDegrees>-1.3023827970027923583984375</LongitudeDegrees>
            </Position>
            <AltitudeMeters>30.799999237060546875</AltitudeMeters>
            <DistanceMeters>NAN</DistanceMeters>
          </Trackpoint>
          <Trackpoint>
            <Time>2022-07-06T16:23:51.000Z</Time>
            <Position>
              <LatitudeDegrees>43.8752520270645618438720703125</LatitudeDegrees>
              <LongitudeDegrees>-1.30238950252532958984375</LongitudeDegrees>
            </Position>
            <AltitudeMeters>31</AltitudeMeters>
            <DistanceMeters>NAN</DistanceMeters>
          </Trackpoint>
          <Trackpoint>
            <Time>2022-07-06T16:23:52.000Z</Time>
            <Position>
              <LatitudeDegrees>43.87525646947324275970458984375</LatitudeDegrees>
              <LongitudeDegrees>-1.30239285528659820556640625</LongitudeDegrees>
            </Position>
            <AltitudeMeters>31</AltitudeMeters>
            <DistanceMeters>NAN</DistanceMeters>
          </Trackpoint>
          <Trackpoint>
            <Time>2022-07-06T16:24:00.000Z</Time>
            <Position>
              <LatitudeDegrees>43.8752974569797515869140625</LatitudeDegrees>
              <LongitudeDegrees>-1.3024525344371795654296875</LongitudeDegrees>
            </Position>
            <AltitudeMeters>31.200000762939453125</AltitudeMeters>
            <DistanceMeters>NAN</DistanceMeters>
          </Trackpoint>
          <Trackpoint>
            <Time>2022-07-06T16:24:07.000Z</Time>
            <Position>
              <LatitudeDegrees>43.8753859698772430419921875</LatitudeDegrees>
              <LongitudeDegrees>-1.3025174103677272796630859375</LongitudeDegrees>
            </Position>
            <AltitudeMeters>31.6000003814697265625</AltitudeMeters>
            <DistanceMeters>NAN</DistanceMeters>
          </Trackpoint>
          <Trackpoint>
            <Time>2022-07-06T16:24:10.000Z</Time>
            <Position>
              <LatitudeDegrees>43.87541807256639003753662109375</LatitudeDegrees>
              <LongitudeDegrees>-1.30255387164652347564697265625</LongitudeDegrees>
            </Position>
            <AltitudeMeters>32</AltitudeMeters>
            <DistanceMeters>NAN</DistanceMeters>
          </Trackpoint>
          <Trackpoint>
            <Time>2022-07-06T16:24:14.000Z</Time>
            <Position>
              <LatitudeDegrees>43.87546232901513576507568359375</LatitudeDegrees>
              <LongitudeDegrees>-1.30260600708425045013427734375</LongitudeDegrees>
            </Position>
            <AltitudeMeters>32.40000152587890625</AltitudeMeters>
            <DistanceMeters>NAN</DistanceMeters>
          </Trackpoint>
          <Trackpoint>
            <Time>2022-07-06T16:24:15.000Z</Time>
            <Position>
              <LatitudeDegrees>43.87547087855637073516845703125</LatitudeDegrees>
              <LongitudeDegrees>-1.30261589772999286651611328125</LongitudeDegrees>
            </Position>
            <AltitudeMeters>32.40000152587890625</AltitudeMeters>
            <DistanceMeters>NAN</DistanceMeters>
          </Trackpoint>
          <Trackpoint>
            <Time>2022-07-06T16:24:18.000Z</Time>
            <Position>
              <LatitudeDegrees>43.8754986226558685302734375</LatitudeDegrees>
              <LongitudeDegrees>-1.30266015417873859405517578125</LongitudeDegrees>
            </Position>
            <AltitudeMeters>32.59999847412109375</AltitudeMeters>
            <DistanceMeters>NAN</DistanceMeters>
          </Trackpoint>
          <Trackpoint>
            <Time>2022-07-06T16:24:20.000Z</Time>
            <Position>
              <LatitudeDegrees>43.875509686768054962158203125</LatitudeDegrees>
              <LongitudeDegrees>-1.30270776338875293731689453125</LongitudeDegrees>
            </Position>
            <AltitudeMeters>33</AltitudeMeters>
            <DistanceMeters>NAN</DistanceMeters>
          </Trackpoint>
          <Trackpoint>
            <Time>2022-07-06T16:24:21.000Z</Time>
            <Position>
              <LatitudeDegrees>43.8755168952047824859619140625</LatitudeDegrees>
              <LongitudeDegrees>-1.302730143070220947265625</LongitudeDegrees>
            </Position>
            <AltitudeMeters>33</AltitudeMeters>
            <DistanceMeters>NAN</DistanceMeters>
          </Trackpoint>
          <Trackpoint>
            <Time>2022-07-06T16:24:24.000Z</Time>
            <Position>
              <LatitudeDegrees>43.875560648739337921142578125</LatitudeDegrees>
              <LongitudeDegrees>-1.302751936018466949462890625</LongitudeDegrees>
            </Position>
            <AltitudeMeters>33.40000152587890625</AltitudeMeters>
            <DistanceMeters>NAN</DistanceMeters>
          </Trackpoint>
          <Trackpoint>
            <Time>2022-07-06T16:24:30.000Z</Time>
            <Position>
              <LatitudeDegrees>43.87563197873532772064208984375</LatitudeDegrees>
              <LongitudeDegrees>-1.302765347063541412353515625</LongitudeDegrees>
            </Position>
            <AltitudeMeters>33.200000762939453125</AltitudeMeters>
            <DistanceMeters>NAN</DistanceMeters>
          </Trackpoint>
          <Trackpoint>
            <Time>2022-07-06T16:24:32.000Z</Time>
            <Position>
              <LatitudeDegrees>43.8756399415433406829833984375</LatitudeDegrees>
              <LongitudeDegrees>-1.302769370377063751220703125</LongitudeDegrees>
            </Position>
            <AltitudeMeters>32.59999847412109375</AltitudeMeters>
            <DistanceMeters>NAN</DistanceMeters>
          </Trackpoint>
          <Trackpoint>
            <Time>2022-07-06T16:24:33.000Z</Time>
            <Position>
              <LatitudeDegrees>43.87564002536237239837646484375</LatitudeDegrees>
              <LongitudeDegrees>-1.30276693962514400482177734375</LongitudeDegrees>
            </Position>
            <AltitudeMeters>32.40000152587890625</AltitudeMeters>
            <DistanceMeters>NAN</DistanceMeters>
          </Trackpoint>
          <Trackpoint>
            <Time>2022-07-06T16:24:42.000Z</Time>
            <Position>
              <LatitudeDegrees>43.87565393932163715362548828125</LatitudeDegrees>
              <LongitudeDegrees>-1.30275118164718151092529296875</LongitudeDegrees>
            </Position>
            <AltitudeMeters>32.40000152587890625</AltitudeMeters>
            <DistanceMeters>NAN</DistanceMeters>
          </Trackpoint>
          <Trackpoint>
            <Time>2022-07-06T16:24:44.000Z</Time>
            <Position>
              <LatitudeDegrees>43.87564974837005138397216796875</LatitudeDegrees>
              <LongitudeDegrees>-1.30278605036437511444091796875</LongitudeDegrees>
            </Position>
            <AltitudeMeters>32.799999237060546875</AltitudeMeters>
            <DistanceMeters>NAN</DistanceMeters>
          </Trackpoint>
          <Trackpoint>
            <Time>2022-07-06T16:24:49.000Z</Time>
            <Position>
              <LatitudeDegrees>43.87565511278808116912841796875</LatitudeDegrees>
              <LongitudeDegrees>-1.3029433786869049072265625</LongitudeDegrees>
            </Position>
            <AltitudeMeters>32.799999237060546875</AltitudeMeters>
            <DistanceMeters>NAN</DistanceMeters>
          </Trackpoint>
          <Trackpoint>
            <Time>2022-07-06T16:24:50.000Z</Time>
            <Position>
              <LatitudeDegrees>43.87567766010761260986328125</LatitudeDegrees>
              <LongitudeDegrees>-1.30292753688991069793701171875</LongitudeDegrees>
            </Position>
            <AltitudeMeters>32.799999237060546875</AltitudeMeters>
            <DistanceMeters>NAN</DistanceMeters>
          </Trackpoint>
          <Trackpoint>
            <Time>2022-07-06T16:24:55.000Z</Time>
            <Position>
              <LatitudeDegrees>43.8756835274398326873779296875</LatitudeDegrees>
              <LongitudeDegrees>-1.30288294516503810882568359375</LongitudeDegrees>
            </Position>
            <AltitudeMeters>32.40000152587890625</AltitudeMeters>
            <DistanceMeters>NAN</DistanceMeters>
          </Trackpoint>
          <Trackpoint>
            <Time>2022-07-06T16:24:57.000Z</Time>
            <Position>
              <LatitudeDegrees>43.8756520114839076995849609375</LatitudeDegrees>
              <LongitudeDegrees>-1.30289853550493717193603515625</LongitudeDegrees>
            </Position>
            <AltitudeMeters>32.40000152587890625</AltitudeMeters>
            <DistanceMeters>NAN</DistanceMeters>
          </Trackpoint>
          <Trackpoint>
            <Time>2022-07-06T16:24:59.000Z</Time>
            <Position>
              <LatitudeDegrees>43.875665254890918731689453125</LatitudeDegrees>
              <LongitudeDegrees>-1.30290306173264980316162109375</LongitudeDegrees>
            </Position>
            <AltitudeMeters>32</AltitudeMeters>
            <DistanceMeters>NAN</DistanceMeters>
          </Trackpoint>
          <Trackpoint>
            <Time>2022-07-06T16:25:02.000Z</Time>
            <Position>
              <LatitudeDegrees>43.87563935481011867523193359375</LatitudeDegrees>
              <LongitudeDegrees>-1.30292795598506927490234375</LongitudeDegrees>
            </Position>
            <AltitudeMeters>31.799999237060546875</AltitudeMeters>
            <DistanceMeters>NAN</DistanceMeters>
          </Trackpoint>
          <Trackpoint>
            <Time>2022-07-06T16:25:08.000Z</Time>
            <Position>
              <LatitudeDegrees>43.8756895624101161956787109375</LatitudeDegrees>
              <LongitudeDegrees>-1.30283080972731113433837890625</LongitudeDegrees>
            </Position>
            <AltitudeMeters>32.200000762939453125</AltitudeMeters>
            <DistanceMeters>NAN</DistanceMeters>
          </Trackpoint>
          <Trackpoint>
            <Time>2022-07-06T16:25:09.000Z</Time>
            <Position>
              <LatitudeDegrees>43.87570406310260295867919921875</LatitudeDegrees>
              <LongitudeDegrees>-1.3027571327984333038330078125</LongitudeDegrees>
            </Position>
            <AltitudeMeters>32.200000762939453125</AltitudeMeters>
            <DistanceMeters>NAN</DistanceMeters>
          </Trackpoint>
          <Trackpoint>
            <Time>2022-07-06T16:25:10.000Z</Time>
            <Position>
              <LatitudeDegrees>43.8757170550525188446044921875</LatitudeDegrees>
              <LongitudeDegrees>-1.30271597765386104583740234375</LongitudeDegrees>
            </Position>
            <AltitudeMeters>32.200000762939453125</AltitudeMeters>
            <DistanceMeters>NAN</DistanceMeters>
          </Trackpoint>
          <Trackpoint>
            <Time>2022-07-06T16:25:12.000Z</Time>
            <Position>
              <LatitudeDegrees>43.8757314719259738922119140625</LatitudeDegrees>
              <LongitudeDegrees>-1.3026277162134647369384765625</LongitudeDegrees>
            </Position>
            <AltitudeMeters>32.40000152587890625</AltitudeMeters>
            <DistanceMeters>NAN</DistanceMeters>
          </Trackpoint>
          <Trackpoint>
            <Time>2022-07-06T16:25:13.000Z</Time>
            <Position>
              <LatitudeDegrees>43.87569970451295375823974609375</LatitudeDegrees>
              <LongitudeDegrees>-1.3026102818548679351806640625</LongitudeDegrees>
            </Position>
            <AltitudeMeters>32.59999847412109375</AltitudeMeters>
            <DistanceMeters>NAN</DistanceMeters>
          </Trackpoint>
          <Trackpoint>
            <Time>2022-07-06T16:25:15.000Z</Time>
            <Position>
              <LatitudeDegrees>43.8756890594959259033203125</LatitudeDegrees>
              <LongitudeDegrees>-1.30258857272565364837646484375</LongitudeDegrees>
            </Position>
            <AltitudeMeters>32.59999847412109375</AltitudeMeters>
            <DistanceMeters>NAN</DistanceMeters>
          </Trackpoint>
          <Trackpoint>
            <Time>2022-07-06T16:25:16.000Z</Time>
            <Position>
              <LatitudeDegrees>43.875708840787410736083984375</LatitudeDegrees>
              <LongitudeDegrees>-1.30257247947156429290771484375</LongitudeDegrees>
            </Position>
            <AltitudeMeters>32.59999847412109375</AltitudeMeters>
            <DistanceMeters>NAN</DistanceMeters>
          </Trackpoint>
          <Trackpoint>
            <Time>2022-07-06T16:25:18.000Z</Time>
            <Position>
              <LatitudeDegrees>43.8757455535233020782470703125</LatitudeDegrees>
              <LongitudeDegrees>-1.30254305899143218994140625</LongitudeDegrees>
            </Position>
            <AltitudeMeters>32.59999847412109375</AltitudeMeters>
            <DistanceMeters>NAN</DistanceMeters>
          </Trackpoint>
          <Trackpoint>
            <Time>2022-07-06T16:25:24.000Z</Time>
            <Position>
              <LatitudeDegrees>43.87573457323014736175537109375</LatitudeDegrees>
              <LongitudeDegrees>-1.302557475864887237548828125</LongitudeDegrees>
            </Position>
            <AltitudeMeters>32.799999237060546875</AltitudeMeters>
            <DistanceMeters>NAN</DistanceMeters>
          </Trackpoint>
          <Trackpoint>
            <Time>2022-07-06T16:25:25.000Z</Time>
            <Position>
              <LatitudeDegrees>43.8757257722318172454833984375</LatitudeDegrees>
              <LongitudeDegrees>-1.30257113836705684661865234375</LongitudeDegrees>
            </Position>
            <AltitudeMeters>32.799999237060546875</AltitudeMeters>
            <DistanceMeters>NAN</DistanceMeters>
          </Trackpoint>
          <Trackpoint>
            <Time>2022-07-06T16:25:27.000Z</Time>
            <Position>
              <LatitudeDegrees>43.87570288963615894317626953125</LatitudeDegrees>
              <LongitudeDegrees>-1.30259041674435138702392578125</LongitudeDegrees>
            </Position>
            <AltitudeMeters>33</AltitudeMeters>
            <DistanceMeters>NAN</DistanceMeters>
          </Trackpoint>
          <Trackpoint>
            <Time>2022-07-06T16:25:28.000Z</Time>
            <Position>
              <LatitudeDegrees>43.87568947859108448028564453125</LatitudeDegrees>
              <LongitudeDegrees>-1.30259091965854167938232421875</LongitudeDegrees>
            </Position>
            <AltitudeMeters>33</AltitudeMeters>
            <DistanceMeters>NAN</DistanceMeters>
          </Trackpoint>
          <Trackpoint>
            <Time>2022-07-06T16:25:29.000Z</Time>
            <Position>
              <LatitudeDegrees>43.87566869147121906280517578125</LatitudeDegrees>
              <LongitudeDegrees>-1.30258773453533649444580078125</LongitudeDegrees>
            </Position>
            <AltitudeMeters>33</AltitudeMeters>
            <DistanceMeters>NAN</DistanceMeters>
          </Trackpoint>
          <Trackpoint>
            <Time>2022-07-06T16:25:31.000Z</Time>
            <Position>
              <LatitudeDegrees>43.87561261653900146484375</LatitudeDegrees>
              <LongitudeDegrees>-1.30256745032966136932373046875</LongitudeDegrees>
            </Position>
            <AltitudeMeters>33</AltitudeMeters>
            <DistanceMeters>NAN</DistanceMeters>
          </Trackpoint>
          <Trackpoint>
            <Time>2022-07-06T16:25:32.000Z</Time>
            <Position>
              <LatitudeDegrees>43.87559560127556324005126953125</LatitudeDegrees>
              <LongitudeDegrees>-1.30256275646388530731201171875</LongitudeDegrees>
            </Position>
            <AltitudeMeters>33</AltitudeMeters>
            <DistanceMeters>NAN</DistanceMeters>
          </Trackpoint>
          <Trackpoint>
            <Time>2022-07-06T16:25:33.000Z</Time>
            <Position>
              <LatitudeDegrees>43.87557414360344409942626953125</LatitudeDegrees>
              <LongitudeDegrees>-1.30255789496004581451416015625</LongitudeDegrees>
            </Position>
            <AltitudeMeters>33.200000762939453125</AltitudeMeters>
            <DistanceMeters>NAN</DistanceMeters>
          </Trackpoint>
          <Trackpoint>
            <Time>2022-07-06T16:25:35.000Z</Time>
            <Position>
              <LatitudeDegrees>43.87552209198474884033203125</LatitudeDegrees>
              <LongitudeDegrees>-1.302561499178409576416015625</LongitudeDegrees>
            </Position>
            <AltitudeMeters>33.200000762939453125</AltitudeMeters>
            <DistanceMeters>NAN</DistanceMeters>
          </Trackpoint>
          <Trackpoint>
            <Time>2022-07-06T16:25:36.000Z</Time>
            <Position>
              <LatitudeDegrees>43.87554480694234371185302734375</LatitudeDegrees>
              <LongitudeDegrees>-1.30258060991764068603515625</LongitudeDegrees>
            </Position>
            <AltitudeMeters>33.200000762939453125</AltitudeMeters>
            <DistanceMeters>NAN</DistanceMeters>
          </Trackpoint>
          <Trackpoint>
            <Time>2022-07-06T16:25:37.000Z</Time>
            <Position>
              <LatitudeDegrees>43.8755557872354984283447265625</LatitudeDegrees>
              <LongitudeDegrees>-1.3025921769440174102783203125</LongitudeDegrees>
            </Position>
            <AltitudeMeters>33.200000762939453125</AltitudeMeters>
            <DistanceMeters>NAN</DistanceMeters>
          </Trackpoint>
          <Trackpoint>
            <Time>2022-07-06T16:25:40.000Z</Time>
            <Position>
              <LatitudeDegrees>43.875600881874561309814453125</LatitudeDegrees>
              <LongitudeDegrees>-1.30262645892798900604248046875</LongitudeDegrees>
            </Position>
            <AltitudeMeters>33</AltitudeMeters>
            <DistanceMeters>NAN</DistanceMeters>
          </Trackpoint>
          <Trackpoint>
            <Time>2022-07-06T16:25:42.000Z</Time>
            <Position>
              <LatitudeDegrees>43.87560783885419368743896484375</LatitudeDegrees>
              <LongitudeDegrees>-1.30265026353299617767333984375</LongitudeDegrees>
            </Position>
            <AltitudeMeters>32.799999237060546875</AltitudeMeters>
            <DistanceMeters>NAN</DistanceMeters>
          </Trackpoint>
          <Trackpoint>
            <Time>2022-07-06T16:25:44.000Z</Time>
            <Position>
              <LatitudeDegrees>43.8755856268107891082763671875</LatitudeDegrees>
              <LongitudeDegrees>-1.30271606147289276123046875</LongitudeDegrees>
            </Position>
            <AltitudeMeters>32.799999237060546875</AltitudeMeters>
            <DistanceMeters>NAN</DistanceMeters>
          </Trackpoint>
          <Trackpoint>
            <Time>2022-07-06T16:25:45.000Z</Time>
            <Position>
              <LatitudeDegrees>43.87564145028591156005859375</LatitudeDegrees>
              <LongitudeDegrees>-1.30272855050861835479736328125</LongitudeDegrees>
            </Position>
            <AltitudeMeters>32.799999237060546875</AltitudeMeters>
            <DistanceMeters>NAN</DistanceMeters>
          </Trackpoint>
          <Trackpoint>
            <Time>2022-07-06T16:25:46.000Z</Time>
            <Position>
              <LatitudeDegrees>43.87569584883749485015869140625</LatitudeDegrees>
              <LongitudeDegrees>-1.30275201983749866485595703125</LongitudeDegrees>
            </Position>
            <AltitudeMeters>32.799999237060546875</AltitudeMeters>
            <DistanceMeters>NAN</DistanceMeters>
          </Trackpoint>
          <Trackpoint>
            <Time>2022-07-06T16:25:53.000Z</Time>
            <Position>
              <LatitudeDegrees>43.8756624050438404083251953125</LatitudeDegrees>
              <LongitudeDegrees>-1.30279694683849811553955078125</LongitudeDegrees>
            </Position>
            <AltitudeMeters>32.799999237060546875</AltitudeMeters>
            <DistanceMeters>NAN</DistanceMeters>
          </Trackpoint>
          <Trackpoint>
            <Time>2022-07-06T16:25:54.000Z</Time>
            <Position>
              <LatitudeDegrees>43.87564337812364101409912109375</LatitudeDegrees>
              <LongitudeDegrees>-1.302793510258197784423828125</LongitudeDegrees>
            </Position>
            <AltitudeMeters>33</AltitudeMeters>
            <DistanceMeters>NAN</DistanceMeters>
          </Trackpoint>
          <Trackpoint>
            <Time>2022-07-06T16:25:58.000Z</Time>
            <Position>
              <LatitudeDegrees>43.875657208263874053955078125</LatitudeDegrees>
              <LongitudeDegrees>-1.30282963626086711883544921875</LongitudeDegrees>
            </Position>
            <AltitudeMeters>33</AltitudeMeters>
            <DistanceMeters>NAN</DistanceMeters>
          </Trackpoint>
          <Trackpoint>
            <Time>2022-07-06T16:26:00.000Z</Time>
            <Position>
              <LatitudeDegrees>43.87565125711262226104736328125</LatitudeDegrees>
              <LongitudeDegrees>-1.302854530513286590576171875</LongitudeDegrees>
            </Position>
            <AltitudeMeters>33</AltitudeMeters>
            <DistanceMeters>NAN</DistanceMeters>
          </Trackpoint>
          <Trackpoint>
            <Time>2022-07-06T16:26:07.000Z</Time>
            <Position>
              <LatitudeDegrees>43.8756701163947582244873046875</LatitudeDegrees>
              <LongitudeDegrees>-1.3029110245406627655029296875</LongitudeDegrees>
            </Position>
            <AltitudeMeters>33.799999237060546875</AltitudeMeters>
            <DistanceMeters>NAN</DistanceMeters>
          </Trackpoint>
          <Trackpoint>
            <Time>2022-07-06T16:26:49.000Z</Time>
            <Position>
              <LatitudeDegrees>43.8754127919673919677734375</LatitudeDegrees>
              <LongitudeDegrees>-1.30259159021079540252685546875</LongitudeDegrees>
            </Position>
            <AltitudeMeters>32.40000152587890625</AltitudeMeters>
            <DistanceMeters>NAN</DistanceMeters>
          </Trackpoint>
          <Trackpoint>
            <Time>2022-07-06T16:26:50.000Z</Time>
            <Position>
              <LatitudeDegrees>43.8753978721797466278076171875</LatitudeDegrees>
              <LongitudeDegrees>-1.30258731544017791748046875</LongitudeDegrees>
            </Position>
            <AltitudeMeters>32.200000762939453125</AltitudeMeters>
            <DistanceMeters>NAN</DistanceMeters>
          </Trackpoint>
          <Trackpoint>
            <Time>2022-07-06T16:26:52.000Z</Time>
            <Position>
              <LatitudeDegrees>43.8753707148134708404541015625</LatitudeDegrees>
              <LongitudeDegrees>-1.30258521996438503265380859375</LongitudeDegrees>
            </Position>
            <AltitudeMeters>32</AltitudeMeters>
            <DistanceMeters>NAN</DistanceMeters>
          </Trackpoint>
          <Trackpoint>
            <Time>2022-07-06T16:26:53.000Z</Time>
            <Position>
              <LatitudeDegrees>43.875358141958713531494140625</LatitudeDegrees>
              <LongitudeDegrees>-1.30258488468825817108154296875</LongitudeDegrees>
            </Position>
            <AltitudeMeters>32</AltitudeMeters>
            <DistanceMeters>NAN</DistanceMeters>
          </Trackpoint>
          <Trackpoint>
            <Time>2022-07-06T16:26:55.000Z</Time>
            <Position>
              <LatitudeDegrees>43.87533827684819698333740234375</LatitudeDegrees>
              <LongitudeDegrees>-1.3025740720331668853759765625</LongitudeDegrees>
            </Position>
            <AltitudeMeters>31.799999237060546875</AltitudeMeters>
            <DistanceMeters>NAN</DistanceMeters>
          </Trackpoint>
          <Trackpoint>
            <Time>2022-07-06T16:26:57.000Z</Time>
            <Position>
              <LatitudeDegrees>43.87529418803751468658447265625</LatitudeDegrees>
              <LongitudeDegrees>-1.30256342701613903045654296875</LongitudeDegrees>
            </Position>
            <AltitudeMeters>31.3999996185302734375</AltitudeMeters>
            <DistanceMeters>NAN</DistanceMeters>
          </Trackpoint>
          <Trackpoint>
            <Time>2022-07-06T16:26:58.000Z</Time>
            <Position>
              <LatitudeDegrees>43.8752751611173152923583984375</LatitudeDegrees>
              <LongitudeDegrees>-1.30257465876638889312744140625</LongitudeDegrees>
            </Position>
            <AltitudeMeters>31.200000762939453125</AltitudeMeters>
            <DistanceMeters>NAN</DistanceMeters>
          </Trackpoint>
          <Trackpoint>
            <Time>2022-07-06T16:27:02.000Z</Time>
            <Position>
              <LatitudeDegrees>43.875225372612476348876953125</LatitudeDegrees>
              <LongitudeDegrees>-1.30261070095002651214599609375</LongitudeDegrees>
            </Position>
            <AltitudeMeters>30.799999237060546875</AltitudeMeters>
            <DistanceMeters>NAN</DistanceMeters>
          </Trackpoint>
          <Trackpoint>
            <Time>2022-07-06T16:27:03.000Z</Time>
            <Position>
              <LatitudeDegrees>43.87521640397608280181884765625</LatitudeDegrees>
              <LongitudeDegrees>-1.30261170677840709686279296875</LongitudeDegrees>
            </Position>
            <AltitudeMeters>30.799999237060546875</AltitudeMeters>
            <DistanceMeters>NAN</DistanceMeters>
          </Trackpoint>
          <Trackpoint>
            <Time>2022-07-06T16:27:05.000Z</Time>
            <Position>
              <LatitudeDegrees>43.87520517222583293914794921875</LatitudeDegrees>
              <LongitudeDegrees>-1.3026139698922634124755859375</LongitudeDegrees>
            </Position>
            <AltitudeMeters>30.799999237060546875</AltitudeMeters>
            <DistanceMeters>NAN</DistanceMeters>
          </Trackpoint>
          <Trackpoint>
            <Time>2022-07-06T16:27:07.000Z</Time>
            <Position>
              <LatitudeDegrees>43.87518220581114292144775390625</LatitudeDegrees>
              <LongitudeDegrees>-1.30260801874101161956787109375</LongitudeDegrees>
            </Position>
            <AltitudeMeters>30.799999237060546875</AltitudeMeters>
            <DistanceMeters>NAN</DistanceMeters>
          </Trackpoint>
          <Trackpoint>
            <Time>2022-07-06T16:27:10.000Z</Time>
            <Position>
              <LatitudeDegrees>43.87514113448560237884521484375</LatitudeDegrees>
              <LongitudeDegrees>-1.30254632793366909027099609375</LongitudeDegrees>
            </Position>
            <AltitudeMeters>30.6000003814697265625</AltitudeMeters>
            <DistanceMeters>NAN</DistanceMeters>
          </Trackpoint>
          <Trackpoint>
            <Time>2022-07-06T16:27:14.000Z</Time>
            <Position>
              <LatitudeDegrees>43.8751011528074741363525390625</LatitudeDegrees>
              <LongitudeDegrees>-1.30238749086856842041015625</LongitudeDegrees>
            </Position>
            <AltitudeMeters>29.799999237060546875</AltitudeMeters>
            <DistanceMeters>NAN</DistanceMeters>
          </Trackpoint>
          <Trackpoint>
            <Time>2022-07-06T16:27:16.000Z</Time>
            <Position>
              <LatitudeDegrees>43.87507843784987926483154296875</LatitudeDegrees>
              <LongitudeDegrees>-1.30231582559645175933837890625</LongitudeDegrees>
            </Position>
            <AltitudeMeters>29.6000003814697265625</AltitudeMeters>
            <DistanceMeters>NAN</DistanceMeters>
          </Trackpoint>
          <Trackpoint>
            <Time>2022-07-06T16:27:17.000Z</Time>
            <Position>
              <LatitudeDegrees>43.87506016530096530914306640625</LatitudeDegrees>
              <LongitudeDegrees>-1.30229067988693714141845703125</LongitudeDegrees>
            </Position>
            <AltitudeMeters>29.6000003814697265625</AltitudeMeters>
            <DistanceMeters>NAN</DistanceMeters>
          </Trackpoint>
          <Trackpoint>
            <Time>2022-07-06T16:27:20.000Z</Time>
            <Position>
              <LatitudeDegrees>43.87498757801949977874755859375</LatitudeDegrees>
              <LongitudeDegrees>-1.30226335488259792327880859375</LongitudeDegrees>
            </Position>
            <AltitudeMeters>29.200000762939453125</AltitudeMeters>
            <DistanceMeters>NAN</DistanceMeters>
          </Trackpoint>
          <Trackpoint>
            <Time>2022-07-06T16:27:24.000Z</Time>
            <Position>
              <LatitudeDegrees>43.87484709732234477996826171875</LatitudeDegrees>
              <LongitudeDegrees>-1.30223535932600498199462890625</LongitudeDegrees>
            </Position>
            <AltitudeMeters>28.6000003814697265625</AltitudeMeters>
            <DistanceMeters>NAN</DistanceMeters>
          </Trackpoint>
          <Trackpoint>
            <Time>2022-07-06T16:27:25.000Z</Time>
            <Position>
              <LatitudeDegrees>43.87479127384722232818603515625</LatitudeDegrees>
              <LongitudeDegrees>-1.3022056035697460174560546875</LongitudeDegrees>
            </Position>
            <AltitudeMeters>28.3999996185302734375</AltitudeMeters>
            <DistanceMeters>NAN</DistanceMeters>
          </Trackpoint>
          <Trackpoint>
            <Time>2022-07-06T16:27:29.000Z</Time>
            <Position>
              <LatitudeDegrees>43.87464073486626148223876953125</LatitudeDegrees>
              <LongitudeDegrees>-1.3021026737987995147705078125</LongitudeDegrees>
            </Position>
            <AltitudeMeters>27.6000003814697265625</AltitudeMeters>
            <DistanceMeters>NAN</DistanceMeters>
          </Trackpoint>
          <Trackpoint>
            <Time>2022-07-06T16:27:31.000Z</Time>
            <Position>
              <LatitudeDegrees>43.87455775402486324310302734375</LatitudeDegrees>
              <LongitudeDegrees>-1.3020302541553974151611328125</LongitudeDegrees>
            </Position>
            <AltitudeMeters>27.3999996185302734375</AltitudeMeters>
            <DistanceMeters>NAN</DistanceMeters>
          </Trackpoint>
          <Trackpoint>
            <Time>2022-07-06T16:27:38.000Z</Time>
            <Position>
              <LatitudeDegrees>43.8742522336542606353759765625</LatitudeDegrees>
              <LongitudeDegrees>-1.301805786788463592529296875</LongitudeDegrees>
            </Position>
            <AltitudeMeters>27</AltitudeMeters>
            <DistanceMeters>NAN</DistanceMeters>
          </Trackpoint>
          <Trackpoint>
            <Time>2022-07-06T16:27:43.000Z</Time>
            <Position>
              <LatitudeDegrees>43.8740121759474277496337890625</LatitudeDegrees>
              <LongitudeDegrees>-1.3016195408999919891357421875</LongitudeDegrees>
            </Position>
            <AltitudeMeters>26.3999996185302734375</AltitudeMeters>
            <DistanceMeters>NAN</DistanceMeters>
          </Trackpoint>
          <Trackpoint>
            <Time>2022-07-06T16:27:47.000Z</Time>
            <Position>
              <LatitudeDegrees>43.8738009519875049591064453125</LatitudeDegrees>
              <LongitudeDegrees>-1.30145274102687835693359375</LongitudeDegrees>
            </Position>
            <AltitudeMeters>25.6000003814697265625</AltitudeMeters>
            <DistanceMeters>NAN</DistanceMeters>
          </Trackpoint>
          <Trackpoint>
            <Time>2022-07-06T16:27:50.000Z</Time>
            <Position>
              <LatitudeDegrees>43.873660974204540252685546875</LatitudeDegrees>
              <LongitudeDegrees>-1.301347799599170684814453125</LongitudeDegrees>
            </Position>
            <AltitudeMeters>25.200000762939453125</AltitudeMeters>
            <DistanceMeters>NAN</DistanceMeters>
          </Trackpoint>
          <Trackpoint>
            <Time>2022-07-06T16:27:53.000Z</Time>
            <Position>
              <LatitudeDegrees>43.87355963699519634246826171875</LatitudeDegrees>
              <LongitudeDegrees>-1.30128837190568447113037109375</LongitudeDegrees>
            </Position>
            <AltitudeMeters>25</AltitudeMeters>
            <DistanceMeters>NAN</DistanceMeters>
          </Trackpoint>
          <Trackpoint>
            <Time>2022-07-06T16:27:56.000Z</Time>
            <Position>
              <LatitudeDegrees>43.8735528476536273956298828125</LatitudeDegrees>
              <LongitudeDegrees>-1.3012856058776378631591796875</LongitudeDegrees>
            </Position>
            <AltitudeMeters>24.6000003814697265625</AltitudeMeters>
            <DistanceMeters>NAN</DistanceMeters>
          </Trackpoint>
          <Trackpoint>
            <Time>2022-07-06T16:28:00.000Z</Time>
            <Position>
              <LatitudeDegrees>43.873526863753795623779296875</LatitudeDegrees>
              <LongitudeDegrees>-1.3012708537280559539794921875</LongitudeDegrees>
            </Position>
            <AltitudeMeters>24.3999996185302734375</AltitudeMeters>
            <DistanceMeters>NAN</DistanceMeters>
          </Trackpoint>
          <Trackpoint>
            <Time>2022-07-06T16:28:03.000Z</Time>
            <Position>
              <LatitudeDegrees>43.87348570860922336578369140625</LatitudeDegrees>
              <LongitudeDegrees>-1.301241852343082427978515625</LongitudeDegrees>
            </Position>
            <AltitudeMeters>24.3999996185302734375</AltitudeMeters>
            <DistanceMeters>NAN</DistanceMeters>
          </Trackpoint>
          <Trackpoint>
            <Time>2022-07-06T16:28:05.000Z</Time>
            <Position>
              <LatitudeDegrees>43.87345151044428348541259765625</LatitudeDegrees>
              <LongitudeDegrees>-1.30121938884258270263671875</LongitudeDegrees>
            </Position>
            <AltitudeMeters>24.6000003814697265625</AltitudeMeters>
            <DistanceMeters>NAN</DistanceMeters>
          </Trackpoint>
          <Trackpoint>
            <Time>2022-07-06T16:28:11.000Z</Time>
            <Position>
              <LatitudeDegrees>43.87330348603427410125732421875</LatitudeDegrees>
              <LongitudeDegrees>-1.3011087477207183837890625</LongitudeDegrees>
            </Position>
            <AltitudeMeters>24.799999237060546875</AltitudeMeters>
            <DistanceMeters>NAN</DistanceMeters>
          </Trackpoint>
          <Trackpoint>
            <Time>2022-07-06T16:28:13.000Z</Time>
            <Position>
              <LatitudeDegrees>43.87325202114880084991455078125</LatitudeDegrees>
              <LongitudeDegrees>-1.30108284763991832733154296875</LongitudeDegrees>
            </Position>
            <AltitudeMeters>24.799999237060546875</AltitudeMeters>
            <DistanceMeters>NAN</DistanceMeters>
          </Trackpoint>
          <Trackpoint>
            <Time>2022-07-06T16:28:17.000Z</Time>
            <Position>
              <LatitudeDegrees>43.8731193356215953826904296875</LatitudeDegrees>
              <LongitudeDegrees>-1.3010720349848270416259765625</LongitudeDegrees>
            </Position>
            <AltitudeMeters>25.6000003814697265625</AltitudeMeters>
            <DistanceMeters>NAN</DistanceMeters>
          </Trackpoint>
          <Trackpoint>
            <Time>2022-07-06T16:28:22.000Z</Time>
            <Position>
              <LatitudeDegrees>43.87295898981392383575439453125</LatitudeDegrees>
              <LongitudeDegrees>-1.30105418153107166290283203125</LongitudeDegrees>
            </Position>
            <AltitudeMeters>25.6000003814697265625</AltitudeMeters>
            <DistanceMeters>NAN</DistanceMeters>
          </Trackpoint>
          <Trackpoint>
            <Time>2022-07-06T16:28:26.000Z</Time>
            <Position>
              <LatitudeDegrees>43.87287885881960391998291015625</LatitudeDegrees>
              <LongitudeDegrees>-1.30090246908366680145263671875</LongitudeDegrees>
            </Position>
            <AltitudeMeters>24.799999237060546875</AltitudeMeters>
            <DistanceMeters>NAN</DistanceMeters>
          </Trackpoint>
          <Trackpoint>
            <Time>2022-07-06T16:28:31.000Z</Time>
            <Position>
              <LatitudeDegrees>43.8727961294353008270263671875</LatitudeDegrees>
              <LongitudeDegrees>-1.30069929175078868865966796875</LongitudeDegrees>
            </Position>
            <AltitudeMeters>24.799999237060546875</AltitudeMeters>
            <DistanceMeters>NAN</DistanceMeters>
          </Trackpoint>
          <Trackpoint>
            <Time>2022-07-06T16:28:37.000Z</Time>
            <Position>
              <LatitudeDegrees>43.87264651246368885040283203125</LatitudeDegrees>
              <LongitudeDegrees>-1.30056501366198062896728515625</LongitudeDegrees>
            </Position>
            <AltitudeMeters>25</AltitudeMeters>
            <DistanceMeters>NAN</DistanceMeters>
          </Trackpoint>
          <Trackpoint>
            <Time>2022-07-06T16:28:38.000Z</Time>
            <Position>
              <LatitudeDegrees>43.87261918745934963226318359375</LatitudeDegrees>
              <LongitudeDegrees>-1.30054540000855922698974609375</LongitudeDegrees>
            </Position>
            <AltitudeMeters>25</AltitudeMeters>
            <DistanceMeters>NAN</DistanceMeters>
          </Trackpoint>
          <Trackpoint>
            <Time>2022-07-06T16:28:39.000Z</Time>
            <Position>
              <LatitudeDegrees>43.87258431874215602874755859375</LatitudeDegrees>
              <LongitudeDegrees>-1.30052109248936176300048828125</LongitudeDegrees>
            </Position>
            <AltitudeMeters>25</AltitudeMeters>
            <DistanceMeters>NAN</DistanceMeters>
          </Trackpoint>
          <Trackpoint>
            <Time>2022-07-06T16:28:41.000Z</Time>
            <Position>
              <LatitudeDegrees>43.87252380140125751495361328125</LatitudeDegrees>
              <LongitudeDegrees>-1.300477087497711181640625</LongitudeDegrees>
            </Position>
            <AltitudeMeters>25.200000762939453125</AltitudeMeters>
            <DistanceMeters>NAN</DistanceMeters>
          </Trackpoint>
          <Trackpoint>
            <Time>2022-07-06T16:28:48.000Z</Time>
            <Position>
              <LatitudeDegrees>43.87232397682964801788330078125</LatitudeDegrees>
              <LongitudeDegrees>-1.30032059736549854278564453125</LongitudeDegrees>
            </Position>
            <AltitudeMeters>25.3999996185302734375</AltitudeMeters>
            <DistanceMeters>NAN</DistanceMeters>
          </Trackpoint>
          <Trackpoint>
            <Time>2022-07-06T16:28:56.000Z</Time>
            <Position>
              <LatitudeDegrees>43.87208727188408374786376953125</LatitudeDegrees>
              <LongitudeDegrees>-1.30013602785766124725341796875</LongitudeDegrees>
            </Position>
            <AltitudeMeters>25.3999996185302734375</AltitudeMeters>
            <DistanceMeters>NAN</DistanceMeters>
          </Trackpoint>
          <Trackpoint>
            <Time>2022-07-06T16:29:01.000Z</Time>
            <Position>
              <LatitudeDegrees>43.87194075621664524078369140625</LatitudeDegrees>
              <LongitudeDegrees>-1.300022117793560028076171875</LongitudeDegrees>
            </Position>
            <AltitudeMeters>25.6000003814697265625</AltitudeMeters>
            <DistanceMeters>NAN</DistanceMeters>
          </Trackpoint>
          <Trackpoint>
            <Time>2022-07-06T16:29:05.000Z</Time>
            <Position>
              <LatitudeDegrees>43.87183330021798610687255859375</LatitudeDegrees>
              <LongitudeDegrees>-1.29993637092411518096923828125</LongitudeDegrees>
            </Position>
            <AltitudeMeters>25.799999237060546875</AltitudeMeters>
            <DistanceMeters>NAN</DistanceMeters>
          </Trackpoint>
          <Trackpoint>
            <Time>2022-07-06T16:29:14.000Z</Time>
            <Position>
              <LatitudeDegrees>43.8715666718780994415283203125</LatitudeDegrees>
              <LongitudeDegrees>-1.2997339479625225067138671875</LongitudeDegrees>
            </Position>
            <AltitudeMeters>26.200000762939453125</AltitudeMeters>
            <DistanceMeters>NAN</DistanceMeters>
          </Trackpoint>
          <Trackpoint>
            <Time>2022-07-06T16:29:16.000Z</Time>
            <Position>
              <LatitudeDegrees>43.87150154449045658111572265625</LatitudeDegrees>
              <LongitudeDegrees>-1.29968290217220783233642578125</LongitudeDegrees>
            </Position>
            <AltitudeMeters>26.3999996185302734375</AltitudeMeters>
            <DistanceMeters>NAN</DistanceMeters>
          </Trackpoint>
          <Trackpoint>
            <Time>2022-07-06T16:29:21.000Z</Time>
            <Position>
              <LatitudeDegrees>43.8713494129478931427001953125</LatitudeDegrees>
              <LongitudeDegrees>-1.29956421442329883575439453125</LongitudeDegrees>
            </Position>
            <AltitudeMeters>26.6000003814697265625</AltitudeMeters>
            <DistanceMeters>NAN</DistanceMeters>
          </Trackpoint>
          <Trackpoint>
            <Time>2022-07-06T16:29:24.000Z</Time>
            <Position>
              <LatitudeDegrees>43.87127137742936611175537109375</LatitudeDegrees>
              <LongitudeDegrees>-1.29950545728206634521484375</LongitudeDegrees>
            </Position>
            <AltitudeMeters>26.799999237060546875</AltitudeMeters>
            <DistanceMeters>NAN</DistanceMeters>
          </Trackpoint>
          <Trackpoint>
            <Time>2022-07-06T16:29:26.000Z</Time>
            <Position>
              <LatitudeDegrees>43.8712327368557453155517578125</LatitudeDegrees>
              <LongitudeDegrees>-1.29950436763465404510498046875</LongitudeDegrees>
            </Position>
            <AltitudeMeters>26.799999237060546875</AltitudeMeters>
            <DistanceMeters>NAN</DistanceMeters>
          </Trackpoint>
          <Trackpoint>
            <Time>2022-07-06T16:29:27.000Z</Time>
            <Position>
              <LatitudeDegrees>43.87123055756092071533203125</LatitudeDegrees>
              <LongitudeDegrees>-1.29951744340360164642333984375</LongitudeDegrees>
            </Position>
            <AltitudeMeters>26.799999237060546875</AltitudeMeters>
            <DistanceMeters>NAN</DistanceMeters>
          </Trackpoint>
          <Trackpoint>
            <Time>2022-07-06T16:29:31.000Z</Time>
            <Position>
              <LatitudeDegrees>43.871282525360584259033203125</LatitudeDegrees>
              <LongitudeDegrees>-1.29955465905368328094482421875</LongitudeDegrees>
            </Position>
            <AltitudeMeters>26.799999237060546875</AltitudeMeters>
            <DistanceMeters>NAN</DistanceMeters>
          </Trackpoint>
          <Trackpoint>
            <Time>2022-07-06T16:29:32.000Z</Time>
            <Position>
              <LatitudeDegrees>43.8713004626333713531494140625</LatitudeDegrees>
              <LongitudeDegrees>-1.29956086166203022003173828125</LongitudeDegrees>
            </Position>
            <AltitudeMeters>26.799999237060546875</AltitudeMeters>
            <DistanceMeters>NAN</DistanceMeters>
          </Trackpoint>
          <Trackpoint>
            <Time>2022-07-06T16:29:37.000Z</Time>
            <Position>
              <LatitudeDegrees>43.871427364647388458251953125</LatitudeDegrees>
              <LongitudeDegrees>-1.29958986304700374603271484375</LongitudeDegrees>
            </Position>
            <AltitudeMeters>27</AltitudeMeters>
            <DistanceMeters>NAN</DistanceMeters>
          </Trackpoint>
          <Trackpoint>
            <Time>2022-07-06T16:29:42.000Z</Time>
            <Position>
              <LatitudeDegrees>43.87157480232417583465576171875</LatitudeDegrees>
              <LongitudeDegrees>-1.29969195462763309478759765625</LongitudeDegrees>
            </Position>
            <AltitudeMeters>27.3999996185302734375</AltitudeMeters>
            <DistanceMeters>NAN</DistanceMeters>
          </Trackpoint>
          <Trackpoint>
            <Time>2022-07-06T16:29:43.000Z</Time>
            <Position>
              <LatitudeDegrees>43.87159709818661212921142578125</LatitudeDegrees>
              <LongitudeDegrees>-1.29971257410943508148193359375</LongitudeDegrees>
            </Position>
            <AltitudeMeters>27.3999996185302734375</AltitudeMeters>
            <DistanceMeters>NAN</DistanceMeters>
          </Trackpoint>
          <Trackpoint>
            <Time>2022-07-06T16:29:51.000Z</Time>
            <Position>
              <LatitudeDegrees>43.87185442261397838592529296875</LatitudeDegrees>
              <LongitudeDegrees>-1.29992195405066013336181640625</LongitudeDegrees>
            </Position>
            <AltitudeMeters>27.3999996185302734375</AltitudeMeters>
            <DistanceMeters>NAN</DistanceMeters>
          </Trackpoint>
          <Trackpoint>
            <Time>2022-07-06T16:30:00.000Z</Time>
            <Position>
              <LatitudeDegrees>43.87217737734317779541015625</LatitudeDegrees>
              <LongitudeDegrees>-1.30016435869038105010986328125</LongitudeDegrees>
            </Position>
            <AltitudeMeters>26.6000003814697265625</AltitudeMeters>
            <DistanceMeters>NAN</DistanceMeters>
          </Trackpoint>
          <Trackpoint>
            <Time>2022-07-06T16:30:03.000Z</Time>
            <Position>
              <LatitudeDegrees>43.87228474952280521392822265625</LatitudeDegrees>
              <LongitudeDegrees>-1.30024096928536891937255859375</LongitudeDegrees>
            </Position>
            <AltitudeMeters>26.3999996185302734375</AltitudeMeters>
            <DistanceMeters>NAN</DistanceMeters>
          </Trackpoint>
          <Trackpoint>
            <Time>2022-07-06T16:30:08.000Z</Time>
            <Position>
              <LatitudeDegrees>43.87242808006703853607177734375</LatitudeDegrees>
              <LongitudeDegrees>-1.30039033479988574981689453125</LongitudeDegrees>
            </Position>
            <AltitudeMeters>26.3999996185302734375</AltitudeMeters>
            <DistanceMeters>NAN</DistanceMeters>
          </Trackpoint>
          <Trackpoint>
            <Time>2022-07-06T16:30:10.000Z</Time>
            <Position>
              <LatitudeDegrees>43.8724776171147823333740234375</LatitudeDegrees>
              <LongitudeDegrees>-1.30047398619353771209716796875</LongitudeDegrees>
            </Position>
            <AltitudeMeters>26.3999996185302734375</AltitudeMeters>
            <DistanceMeters>NAN</DistanceMeters>
          </Trackpoint>
          <Trackpoint>
            <Time>2022-07-06T16:30:12.000Z</Time>
            <Position>
              <LatitudeDegrees>43.87248608283698558807373046875</LatitudeDegrees>
              <LongitudeDegrees>-1.300552524626255035400390625</LongitudeDegrees>
            </Position>
            <AltitudeMeters>26.3999996185302734375</AltitudeMeters>
            <DistanceMeters>NAN</DistanceMeters>
          </Trackpoint>
          <Trackpoint>
            <Time>2022-07-06T16:30:16.000Z</Time>
            <Position>
              <LatitudeDegrees>43.87242816388607025146484375</LatitudeDegrees>
              <LongitudeDegrees>-1.300730891525745391845703125</LongitudeDegrees>
            </Position>
            <AltitudeMeters>26.3999996185302734375</AltitudeMeters>
            <DistanceMeters>NAN</DistanceMeters>
          </Trackpoint>
          <Trackpoint>
            <Time>2022-07-06T16:30:17.000Z</Time>
            <Position>
              <LatitudeDegrees>43.87241131626069545745849609375</LatitudeDegrees>
              <LongitudeDegrees>-1.300775147974491119384765625</LongitudeDegrees>
            </Position>
            <AltitudeMeters>26.3999996185302734375</AltitudeMeters>
            <DistanceMeters>NAN</DistanceMeters>
          </Trackpoint>
          <Trackpoint>
            <Time>2022-07-06T16:30:27.000Z</Time>
            <Position>
              <LatitudeDegrees>43.87227259576320648193359375</LatitudeDegrees>
              <LongitudeDegrees>-1.3011934049427509307861328125</LongitudeDegrees>
            </Position>
            <AltitudeMeters>26.3999996185302734375</AltitudeMeters>
            <DistanceMeters>NAN</DistanceMeters>
          </Trackpoint>
          <Trackpoint>
            <Time>2022-07-06T16:30:32.000Z</Time>
            <Position>
              <LatitudeDegrees>43.8721959851682186126708984375</LatitudeDegrees>
              <LongitudeDegrees>-1.30130924284458160400390625</LongitudeDegrees>
            </Position>
            <AltitudeMeters>26.200000762939453125</AltitudeMeters>
            <DistanceMeters>NAN</DistanceMeters>
          </Trackpoint>
          <Trackpoint>
            <Time>2022-07-06T16:30:36.000Z</Time>
            <Position>
              <LatitudeDegrees>43.8721845857799053192138671875</LatitudeDegrees>
              <LongitudeDegrees>-1.30129625089466571807861328125</LongitudeDegrees>
            </Position>
            <AltitudeMeters>26.200000762939453125</AltitudeMeters>
            <DistanceMeters>NAN</DistanceMeters>
          </Trackpoint>
          <Trackpoint>
            <Time>2022-07-06T16:30:38.000Z</Time>
            <Position>
              <LatitudeDegrees>43.87218282558023929595947265625</LatitudeDegrees>
              <LongitudeDegrees>-1.30129340104758739471435546875</LongitudeDegrees>
            </Position>
            <AltitudeMeters>26</AltitudeMeters>
            <DistanceMeters>NAN</DistanceMeters>
          </Trackpoint>
          <Trackpoint>
            <Time>2022-07-06T16:31:45.000Z</Time>
            <Position>
              <LatitudeDegrees>43.87217310257256031036376953125</LatitudeDegrees>
              <LongitudeDegrees>-1.30130178295075893402099609375</LongitudeDegrees>
            </Position>
            <AltitudeMeters>26.6000003814697265625</AltitudeMeters>
            <DistanceMeters>NAN</DistanceMeters>
          </Trackpoint>
          <Trackpoint>
            <Time>2022-07-06T16:31:47.000Z</Time>
            <Position>
              <LatitudeDegrees>43.8721614517271518707275390625</LatitudeDegrees>
              <LongitudeDegrees>-1.3013365678489208221435546875</LongitudeDegrees>
            </Position>
            <AltitudeMeters>26.6000003814697265625</AltitudeMeters>
            <DistanceMeters>NAN</DistanceMeters>
          </Trackpoint>
          <Trackpoint>
            <Time>2022-07-06T16:31:51.000Z</Time>
            <Position>
              <LatitudeDegrees>43.872128091752529144287109375</LatitudeDegrees>
              <LongitudeDegrees>-1.3014187105000019073486328125</LongitudeDegrees>
            </Position>
            <AltitudeMeters>26.6000003814697265625</AltitudeMeters>
            <DistanceMeters>NAN</DistanceMeters>
          </Trackpoint>
          <Trackpoint>
            <Time>2022-07-06T16:31:53.000Z</Time>
            <Position>
              <LatitudeDegrees>43.8720853440463542938232421875</LatitudeDegrees>
              <LongitudeDegrees>-1.30144326947629451751708984375</LongitudeDegrees>
            </Position>
            <AltitudeMeters>26.3999996185302734375</AltitudeMeters>
            <DistanceMeters>NAN</DistanceMeters>
          </Trackpoint>
          <Trackpoint>
            <Time>2022-07-06T16:31:59.000Z</Time>
            <Position>
              <LatitudeDegrees>43.87194461189210414886474609375</LatitudeDegrees>
              <LongitudeDegrees>-1.30149121396243572235107421875</LongitudeDegrees>
            </Position>
            <AltitudeMeters>26</AltitudeMeters>
            <DistanceMeters>NAN</DistanceMeters>
          </Trackpoint>
          <Trackpoint>
            <Time>2022-07-06T16:32:00.000Z</Time>
            <Position>
              <LatitudeDegrees>43.87191376648843288421630859375</LatitudeDegrees>
              <LongitudeDegrees>-1.30150613375008106231689453125</LongitudeDegrees>
            </Position>
            <AltitudeMeters>26.3999996185302734375</AltitudeMeters>
            <DistanceMeters>NAN</DistanceMeters>
          </Trackpoint>
          <Trackpoint>
            <Time>2022-07-06T16:32:02.000Z</Time>
            <Position>
              <LatitudeDegrees>43.8718803226947784423828125</LatitudeDegrees>
              <LongitudeDegrees>-1.3015806488692760467529296875</LongitudeDegrees>
            </Position>
            <AltitudeMeters>26.799999237060546875</AltitudeMeters>
            <DistanceMeters>NAN</DistanceMeters>
          </Trackpoint>
          <Trackpoint>
            <Time>2022-07-06T16:32:09.000Z</Time>
            <Position>
              <LatitudeDegrees>43.8717842660844326019287109375</LatitudeDegrees>
              <LongitudeDegrees>-1.30189220421016216278076171875</LongitudeDegrees>
            </Position>
            <AltitudeMeters>26.799999237060546875</AltitudeMeters>
            <DistanceMeters>NAN</DistanceMeters>
          </Trackpoint>
          <Trackpoint>
            <Time>2022-07-06T16:32:19.000Z</Time>
            <Position>
              <LatitudeDegrees>43.87161319144070148468017578125</LatitudeDegrees>
              <LongitudeDegrees>-1.30233711563050746917724609375</LongitudeDegrees>
            </Position>
            <AltitudeMeters>26.799999237060546875</AltitudeMeters>
            <DistanceMeters>NAN</DistanceMeters>
          </Trackpoint>
          <Trackpoint>
            <Time>2022-07-06T16:32:28.000Z</Time>
            <Position>
              <LatitudeDegrees>43.87144689448177814483642578125</LatitudeDegrees>
              <LongitudeDegrees>-1.30277582444250583648681640625</LongitudeDegrees>
            </Position>
            <AltitudeMeters>27</AltitudeMeters>
            <DistanceMeters>NAN</DistanceMeters>
          </Trackpoint>
          <Trackpoint>
            <Time>2022-07-06T16:32:34.000Z</Time>
            <Position>
              <LatitudeDegrees>43.87134698219597339630126953125</LatitudeDegrees>
              <LongitudeDegrees>-1.3030334003269672393798828125</LongitudeDegrees>
            </Position>
            <AltitudeMeters>26.6000003814697265625</AltitudeMeters>
            <DistanceMeters>NAN</DistanceMeters>
          </Trackpoint>
          <Trackpoint>
            <Time>2022-07-06T16:32:35.000Z</Time>
            <Position>
              <LatitudeDegrees>43.8713306374847888946533203125</LatitudeDegrees>
              <LongitudeDegrees>-1.303073465824127197265625</LongitudeDegrees>
            </Position>
            <AltitudeMeters>26.3999996185302734375</AltitudeMeters>
            <DistanceMeters>NAN</DistanceMeters>
          </Trackpoint>
          <Trackpoint>
            <Time>2022-07-06T16:32:43.000Z</Time>
            <Position>
              <LatitudeDegrees>43.8712354190647602081298828125</LatitudeDegrees>
              <LongitudeDegrees>-1.303355433046817779541015625</LongitudeDegrees>
            </Position>
            <AltitudeMeters>26</AltitudeMeters>
            <DistanceMeters>NAN</DistanceMeters>
          </Trackpoint>
          <Trackpoint>
            <Time>2022-07-06T16:32:52.000Z</Time>
            <Position>
              <LatitudeDegrees>43.8710986264050006866455078125</LatitudeDegrees>
              <LongitudeDegrees>-1.303704790771007537841796875</LongitudeDegrees>
            </Position>
            <AltitudeMeters>26.200000762939453125</AltitudeMeters>
            <DistanceMeters>NAN</DistanceMeters>
          </Trackpoint>
          <Trackpoint>
            <Time>2022-07-06T16:32:56.000Z</Time>
            <Position>
              <LatitudeDegrees>43.87103400193154811859130859375</LatitudeDegrees>
              <LongitudeDegrees>-1.30386848933994770050048828125</LongitudeDegrees>
            </Position>
            <AltitudeMeters>26.200000762939453125</AltitudeMeters>
            <DistanceMeters>NAN</DistanceMeters>
          </Trackpoint>
          <Trackpoint>
            <Time>2022-07-06T16:33:00.000Z</Time>
            <Position>
              <LatitudeDegrees>43.87097977101802825927734375</LatitudeDegrees>
              <LongitudeDegrees>-1.30403646267950534820556640625</LongitudeDegrees>
            </Position>
            <AltitudeMeters>26.3999996185302734375</AltitudeMeters>
            <DistanceMeters>NAN</DistanceMeters>
          </Trackpoint>
          <Trackpoint>
            <Time>2022-07-06T16:33:07.000Z</Time>
            <Position>
              <LatitudeDegrees>43.8708723150193691253662109375</LatitudeDegrees>
              <LongitudeDegrees>-1.30434726364910602569580078125</LongitudeDegrees>
            </Position>
            <AltitudeMeters>26.3999996185302734375</AltitudeMeters>
            <DistanceMeters>NAN</DistanceMeters>
          </Trackpoint>
          <Trackpoint>
            <Time>2022-07-06T16:33:15.000Z</Time>
            <Position>
              <LatitudeDegrees>43.87072303332388401031494140625</LatitudeDegrees>
              <LongitudeDegrees>-1.304698884487152099609375</LongitudeDegrees>
            </Position>
            <AltitudeMeters>26.3999996185302734375</AltitudeMeters>
            <DistanceMeters>NAN</DistanceMeters>
          </Trackpoint>
          <Trackpoint>
            <Time>2022-07-06T16:33:22.000Z</Time>
            <Position>
              <LatitudeDegrees>43.8705809600651264190673828125</LatitudeDegrees>
              <LongitudeDegrees>-1.30501069128513336181640625</LongitudeDegrees>
            </Position>
            <AltitudeMeters>26.6000003814697265625</AltitudeMeters>
            <DistanceMeters>NAN</DistanceMeters>
          </Trackpoint>
          <Trackpoint>
            <Time>2022-07-06T16:33:34.000Z</Time>
            <Position>
              <LatitudeDegrees>43.87032992206513881683349609375</LatitudeDegrees>
              <LongitudeDegrees>-1.3055838458240032196044921875</LongitudeDegrees>
            </Position>
            <AltitudeMeters>26.3999996185302734375</AltitudeMeters>
            <DistanceMeters>NAN</DistanceMeters>
          </Trackpoint>
          <Trackpoint>
            <Time>2022-07-06T16:33:42.000Z</Time>
            <Position>
              <LatitudeDegrees>43.87016228400170803070068359375</LatitudeDegrees>
              <LongitudeDegrees>-1.30594770424067974090576171875</LongitudeDegrees>
            </Position>
            <AltitudeMeters>26.799999237060546875</AltitudeMeters>
            <DistanceMeters>NAN</DistanceMeters>
          </Trackpoint>
          <Trackpoint>
            <Time>2022-07-06T16:33:51.000Z</Time>
            <Position>
              <LatitudeDegrees>43.8699518144130706787109375</LatitudeDegrees>
              <LongitudeDegrees>-1.30635045468807220458984375</LongitudeDegrees>
            </Position>
            <AltitudeMeters>26.6000003814697265625</AltitudeMeters>
            <DistanceMeters>NAN</DistanceMeters>
          </Trackpoint>
          <Trackpoint>
            <Time>2022-07-06T16:33:58.000Z</Time>
            <Position>
              <LatitudeDegrees>43.8698007725179195404052734375</LatitudeDegrees>
              <LongitudeDegrees>-1.3066573999822139739990234375</LongitudeDegrees>
            </Position>
            <AltitudeMeters>26.6000003814697265625</AltitudeMeters>
            <DistanceMeters>NAN</DistanceMeters>
          </Trackpoint>
          <Trackpoint>
            <Time>2022-07-06T16:34:06.000Z</Time>
            <Position>
              <LatitudeDegrees>43.8696022890508174896240234375</LatitudeDegrees>
              <LongitudeDegrees>-1.30697918124496936798095703125</LongitudeDegrees>
            </Position>
            <AltitudeMeters>26.3999996185302734375</AltitudeMeters>
            <DistanceMeters>NAN</DistanceMeters>
          </Trackpoint>
          <Trackpoint>
            <Time>2022-07-06T16:34:16.000Z</Time>
            <Position>
              <LatitudeDegrees>43.8693652488291263580322265625</LatitudeDegrees>
              <LongitudeDegrees>-1.30737665109336376190185546875</LongitudeDegrees>
            </Position>
            <AltitudeMeters>26.3999996185302734375</AltitudeMeters>
            <DistanceMeters>NAN</DistanceMeters>
          </Trackpoint>
          <Trackpoint>
            <Time>2022-07-06T16:34:26.000Z</Time>
            <Position>
              <LatitudeDegrees>43.86912234127521514892578125</LatitudeDegrees>
              <LongitudeDegrees>-1.30778283812105655670166015625</LongitudeDegrees>
            </Position>
            <AltitudeMeters>26.3999996185302734375</AltitudeMeters>
            <DistanceMeters>NAN</DistanceMeters>
          </Trackpoint>
          <Trackpoint>
            <Time>2022-07-06T16:34:34.000Z</Time>
            <Position>
              <LatitudeDegrees>43.868929557502269744873046875</LatitudeDegrees>
              <LongitudeDegrees>-1.30809313617646694183349609375</LongitudeDegrees>
            </Position>
            <AltitudeMeters>26.3999996185302734375</AltitudeMeters>
            <DistanceMeters>NAN</DistanceMeters>
          </Trackpoint>
          <Trackpoint>
            <Time>2022-07-06T16:34:40.000Z</Time>
            <Position>
              <LatitudeDegrees>43.8687758333981037139892578125</LatitudeDegrees>
              <LongitudeDegrees>-1.30831257440149784088134765625</LongitudeDegrees>
            </Position>
            <AltitudeMeters>26.3999996185302734375</AltitudeMeters>
            <DistanceMeters>NAN</DistanceMeters>
          </Trackpoint>
          <Trackpoint>
            <Time>2022-07-06T16:34:47.000Z</Time>
            <Position>
              <LatitudeDegrees>43.86862604878842830657958984375</LatitudeDegrees>
              <LongitudeDegrees>-1.3085745088756084442138671875</LongitudeDegrees>
            </Position>
            <AltitudeMeters>26.3999996185302734375</AltitudeMeters>
            <DistanceMeters>NAN</DistanceMeters>
          </Trackpoint>
          <Trackpoint>
            <Time>2022-07-06T16:34:56.000Z</Time>
            <Position>
              <LatitudeDegrees>43.86844717897474765777587890625</LatitudeDegrees>
              <LongitudeDegrees>-1.30887508392333984375</LongitudeDegrees>
            </Position>
            <AltitudeMeters>26.6000003814697265625</AltitudeMeters>
            <DistanceMeters>NAN</DistanceMeters>
          </Trackpoint>
          <Trackpoint>
            <Time>2022-07-06T16:35:04.000Z</Time>
            <Position>
              <LatitudeDegrees>43.8682995736598968505859375</LatitudeDegrees>
              <LongitudeDegrees>-1.30916903726756572723388671875</LongitudeDegrees>
            </Position>
            <AltitudeMeters>26.799999237060546875</AltitudeMeters>
            <DistanceMeters>NAN</DistanceMeters>
          </Trackpoint>
          <Trackpoint>
            <Time>2022-07-06T16:35:08.000Z</Time>
            <Position>
              <LatitudeDegrees>43.86823176406323909759521484375</LatitudeDegrees>
              <LongitudeDegrees>-1.30933566950261592864990234375</LongitudeDegrees>
            </Position>
            <AltitudeMeters>26.799999237060546875</AltitudeMeters>
            <DistanceMeters>NAN</DistanceMeters>
          </Trackpoint>
          <Trackpoint>
            <Time>2022-07-06T16:35:11.000Z</Time>
            <Position>
              <LatitudeDegrees>43.8681850768625736236572265625</LatitudeDegrees>
              <LongitudeDegrees>-1.30946642719209194183349609375</LongitudeDegrees>
            </Position>
            <AltitudeMeters>26.6000003814697265625</AltitudeMeters>
            <DistanceMeters>NAN</DistanceMeters>
          </Trackpoint>
          <Trackpoint>
            <Time>2022-07-06T16:35:15.000Z</Time>
            <Position>
              <LatitudeDegrees>43.86812497861683368682861328125</LatitudeDegrees>
              <LongitudeDegrees>-1.30964999087154865264892578125</LongitudeDegrees>
            </Position>
            <AltitudeMeters>26.6000003814697265625</AltitudeMeters>
            <DistanceMeters>NAN</DistanceMeters>
          </Trackpoint>
          <Trackpoint>
            <Time>2022-07-06T16:35:19.000Z</Time>
            <Position>
              <LatitudeDegrees>43.8680647127330303192138671875</LatitudeDegrees>
              <LongitudeDegrees>-1.30982215516269207000732421875</LongitudeDegrees>
            </Position>
            <AltitudeMeters>26.6000003814697265625</AltitudeMeters>
            <DistanceMeters>NAN</DistanceMeters>
          </Trackpoint>
          <Trackpoint>
            <Time>2022-07-06T16:35:22.000Z</Time>
            <Position>
              <LatitudeDegrees>43.8680244795978069305419921875</LatitudeDegrees>
              <LongitudeDegrees>-1.30994000472128391265869140625</LongitudeDegrees>
            </Position>
            <AltitudeMeters>26.799999237060546875</AltitudeMeters>
            <DistanceMeters>NAN</DistanceMeters>
          </Trackpoint>
          <Trackpoint>
            <Time>2022-07-06T16:35:26.000Z</Time>
            <Position>
              <LatitudeDegrees>43.86796706356108188629150390625</LatitudeDegrees>
              <LongitudeDegrees>-1.3101151026785373687744140625</LongitudeDegrees>
            </Position>
            <AltitudeMeters>26.799999237060546875</AltitudeMeters>
            <DistanceMeters>NAN</DistanceMeters>
          </Trackpoint>
          <Trackpoint>
            <Time>2022-07-06T16:35:35.000Z</Time>
            <Position>
              <LatitudeDegrees>43.86785424314439296722412109375</LatitudeDegrees>
              <LongitudeDegrees>-1.31050528027117252349853515625</LongitudeDegrees>
            </Position>
            <AltitudeMeters>27</AltitudeMeters>
            <DistanceMeters>NAN</DistanceMeters>
          </Trackpoint>
          <Trackpoint>
            <Time>2022-07-06T16:35:38.000Z</Time>
            <Position>
              <LatitudeDegrees>43.8678301870822906494140625</LatitudeDegrees>
              <LongitudeDegrees>-1.31064173765480518341064453125</LongitudeDegrees>
            </Position>
            <AltitudeMeters>26.799999237060546875</AltitudeMeters>
            <DistanceMeters>NAN</DistanceMeters>
          </Trackpoint>
          <Trackpoint>
            <Time>2022-07-06T16:35:41.000Z</Time>
            <Position>
              <LatitudeDegrees>43.86781451292335987091064453125</LatitudeDegrees>
              <LongitudeDegrees>-1.31076226942241191864013671875</LongitudeDegrees>
            </Position>
            <AltitudeMeters>27</AltitudeMeters>
            <DistanceMeters>NAN</DistanceMeters>
          </Trackpoint>
          <Trackpoint>
            <Time>2022-07-06T16:35:46.000Z</Time>
            <Position>
              <LatitudeDegrees>43.867786936461925506591796875</LatitudeDegrees>
              <LongitudeDegrees>-1.310925297439098358154296875</LongitudeDegrees>
            </Position>
            <AltitudeMeters>27.200000762939453125</AltitudeMeters>
            <DistanceMeters>NAN</DistanceMeters>
          </Trackpoint>
          <Trackpoint>
            <Time>2022-07-06T16:35:51.000Z</Time>
            <Position>
              <LatitudeDegrees>43.86770253069698810577392578125</LatitudeDegrees>
              <LongitudeDegrees>-1.3111444003880023956298828125</LongitudeDegrees>
            </Position>
            <AltitudeMeters>27.200000762939453125</AltitudeMeters>
            <DistanceMeters>NAN</DistanceMeters>
          </Trackpoint>
          <Trackpoint>
            <Time>2022-07-06T16:35:57.000Z</Time>
            <Position>
              <LatitudeDegrees>43.86761770583689212799072265625</LatitudeDegrees>
              <LongitudeDegrees>-1.311408765614032745361328125</LongitudeDegrees>
            </Position>
            <AltitudeMeters>27.200000762939453125</AltitudeMeters>
            <DistanceMeters>NAN</DistanceMeters>
          </Trackpoint>
          <Trackpoint>
            <Time>2022-07-06T16:36:00.000Z</Time>
            <Position>
              <LatitudeDegrees>43.8675731979310512542724609375</LatitudeDegrees>
              <LongitudeDegrees>-1.31155394017696380615234375</LongitudeDegrees>
            </Position>
            <AltitudeMeters>27.3999996185302734375</AltitudeMeters>
            <DistanceMeters>NAN</DistanceMeters>
          </Trackpoint>
          <Trackpoint>
            <Time>2022-07-06T16:36:02.000Z</Time>
            <Position>
              <LatitudeDegrees>43.86754126287996768951416015625</LatitudeDegrees>
              <LongitudeDegrees>-1.31166315637528896331787109375</LongitudeDegrees>
            </Position>
            <AltitudeMeters>27.3999996185302734375</AltitudeMeters>
            <DistanceMeters>NAN</DistanceMeters>
          </Trackpoint>
          <Trackpoint>
            <Time>2022-07-06T16:36:07.000Z</Time>
            <Position>
              <LatitudeDegrees>43.8674789853394031524658203125</LatitudeDegrees>
              <LongitudeDegrees>-1.31189499981701374053955078125</LongitudeDegrees>
            </Position>
            <AltitudeMeters>27.6000003814697265625</AltitudeMeters>
            <DistanceMeters>NAN</DistanceMeters>
          </Trackpoint>
          <Trackpoint>
            <Time>2022-07-06T16:36:09.000Z</Time>
            <Position>
              <LatitudeDegrees>43.867485187947750091552734375</LatitudeDegrees>
              <LongitudeDegrees>-1.31205107085406780242919921875</LongitudeDegrees>
            </Position>
            <AltitudeMeters>27.6000003814697265625</AltitudeMeters>
            <DistanceMeters>NAN</DistanceMeters>
          </Trackpoint>
          <Trackpoint>
            <Time>2022-07-06T16:36:11.000Z</Time>
            <Position>
              <LatitudeDegrees>43.86748887598514556884765625</LatitudeDegrees>
              <LongitudeDegrees>-1.31218970753252506256103515625</LongitudeDegrees>
            </Position>
            <AltitudeMeters>27.3999996185302734375</AltitudeMeters>
            <DistanceMeters>NAN</DistanceMeters>
          </Trackpoint>
          <Trackpoint>
            <Time>2022-07-06T16:36:12.000Z</Time>
            <Position>
              <LatitudeDegrees>43.8674689270555973052978515625</LatitudeDegrees>
              <LongitudeDegrees>-1.3122518174350261688232421875</LongitudeDegrees>
            </Position>
            <AltitudeMeters>27.3999996185302734375</AltitudeMeters>
            <DistanceMeters>NAN</DistanceMeters>
          </Trackpoint>
          <Trackpoint>
            <Time>2022-07-06T16:36:14.000Z</Time>
            <Position>
              <LatitudeDegrees>43.86744084767997264862060546875</LatitudeDegrees>
              <LongitudeDegrees>-1.312404535710811614990234375</LongitudeDegrees>
            </Position>
            <AltitudeMeters>27.200000762939453125</AltitudeMeters>
            <DistanceMeters>NAN</DistanceMeters>
          </Trackpoint>
          <Trackpoint>
            <Time>2022-07-06T16:36:20.000Z</Time>
            <Position>
              <LatitudeDegrees>43.86734009720385074615478515625</LatitudeDegrees>
              <LongitudeDegrees>-1.312801837921142578125</LongitudeDegrees>
            </Position>
            <AltitudeMeters>27.6000003814697265625</AltitudeMeters>
            <DistanceMeters>NAN</DistanceMeters>
          </Trackpoint>
          <Trackpoint>
            <Time>2022-07-06T16:36:24.000Z</Time>
            <Position>
              <LatitudeDegrees>43.86727455072104930877685546875</LatitudeDegrees>
              <LongitudeDegrees>-1.31302773021161556243896484375</LongitudeDegrees>
            </Position>
            <AltitudeMeters>27.3999996185302734375</AltitudeMeters>
            <DistanceMeters>NAN</DistanceMeters>
          </Trackpoint>
          <Trackpoint>
            <Time>2022-07-06T16:36:27.000Z</Time>
            <Position>
              <LatitudeDegrees>43.86723247356712818145751953125</LatitudeDegrees>
              <LongitudeDegrees>-1.3132033310830593109130859375</LongitudeDegrees>
            </Position>
            <AltitudeMeters>27.3999996185302734375</AltitudeMeters>
            <DistanceMeters>NAN</DistanceMeters>
          </Trackpoint>
          <Trackpoint>
            <Time>2022-07-06T16:36:36.000Z</Time>
            <Position>
              <LatitudeDegrees>43.8670957647264003753662109375</LatitudeDegrees>
              <LongitudeDegrees>-1.31376785226166248321533203125</LongitudeDegrees>
            </Position>
            <AltitudeMeters>27.3999996185302734375</AltitudeMeters>
            <DistanceMeters>NAN</DistanceMeters>
          </Trackpoint>
          <Trackpoint>
            <Time>2022-07-06T16:36:46.000Z</Time>
            <Position>
              <LatitudeDegrees>43.866976909339427947998046875</LatitudeDegrees>
              <LongitudeDegrees>-1.3144177012145519256591796875</LongitudeDegrees>
            </Position>
            <AltitudeMeters>27.3999996185302734375</AltitudeMeters>
            <DistanceMeters>NAN</DistanceMeters>
          </Trackpoint>
          <Trackpoint>
            <Time>2022-07-06T16:36:56.000Z</Time>
            <Position>
              <LatitudeDegrees>43.86684648692607879638671875</LatitudeDegrees>
              <LongitudeDegrees>-1.31503821350634098052978515625</LongitudeDegrees>
            </Position>
            <AltitudeMeters>27.3999996185302734375</AltitudeMeters>
            <DistanceMeters>NAN</DistanceMeters>
          </Trackpoint>
          <Trackpoint>
            <Time>2022-07-06T16:37:04.000Z</Time>
            <Position>
              <LatitudeDegrees>43.86674900539219379425048828125</LatitudeDegrees>
              <LongitudeDegrees>-1.31548027507960796356201171875</LongitudeDegrees>
            </Position>
            <AltitudeMeters>26.799999237060546875</AltitudeMeters>
            <DistanceMeters>NAN</DistanceMeters>
          </Trackpoint>
          <Trackpoint>
            <Time>2022-07-06T16:37:08.000Z</Time>
            <Position>
              <LatitudeDegrees>43.86669552884995937347412109375</LatitudeDegrees>
              <LongitudeDegrees>-1.31571815349161624908447265625</LongitudeDegrees>
            </Position>
            <AltitudeMeters>26.3999996185302734375</AltitudeMeters>
            <DistanceMeters>NAN</DistanceMeters>
          </Trackpoint>
          <Trackpoint>
            <Time>2022-07-06T16:37:13.000Z</Time>
            <Position>
              <LatitudeDegrees>43.86663316749036312103271484375</LatitudeDegrees>
              <LongitudeDegrees>-1.316003389656543731689453125</LongitudeDegrees>
            </Position>
            <AltitudeMeters>26.200000762939453125</AltitudeMeters>
            <DistanceMeters>NAN</DistanceMeters>
          </Trackpoint>
          <Trackpoint>
            <Time>2022-07-06T16:37:14.000Z</Time>
            <Position>
              <LatitudeDegrees>43.86662109754979610443115234375</LatitudeDegrees>
              <LongitudeDegrees>-1.316058374941349029541015625</LongitudeDegrees>
            </Position>
            <AltitudeMeters>26.200000762939453125</AltitudeMeters>
            <DistanceMeters>NAN</DistanceMeters>
          </Trackpoint>
          <Trackpoint>
            <Time>2022-07-06T16:37:21.000Z</Time>
            <Position>
              <LatitudeDegrees>43.8665140606462955474853515625</LatitudeDegrees>
              <LongitudeDegrees>-1.3164638914167881011962890625</LongitudeDegrees>
            </Position>
            <AltitudeMeters>25.799999237060546875</AltitudeMeters>
            <DistanceMeters>NAN</DistanceMeters>
          </Trackpoint>
          <Trackpoint>
            <Time>2022-07-06T16:37:28.000Z</Time>
            <Position>
              <LatitudeDegrees>43.866420350968837738037109375</LatitudeDegrees>
              <LongitudeDegrees>-1.316886842250823974609375</LongitudeDegrees>
            </Position>
            <AltitudeMeters>25.6000003814697265625</AltitudeMeters>
            <DistanceMeters>NAN</DistanceMeters>
          </Trackpoint>
          <Trackpoint>
            <Time>2022-07-06T16:37:29.000Z</Time>
            <Position>
              <LatitudeDegrees>43.8664032518863677978515625</LatitudeDegrees>
              <LongitudeDegrees>-1.31694476120173931121826171875</LongitudeDegrees>
            </Position>
            <AltitudeMeters>25.6000003814697265625</AltitudeMeters>
            <DistanceMeters>NAN</DistanceMeters>
          </Trackpoint>
          <Trackpoint>
            <Time>2022-07-06T16:37:35.000Z</Time>
            <Position>
              <LatitudeDegrees>43.86631716974079608917236328125</LatitudeDegrees>
              <LongitudeDegrees>-1.31725220941007137298583984375</LongitudeDegrees>
            </Position>
            <AltitudeMeters>26</AltitudeMeters>
            <DistanceMeters>NAN</DistanceMeters>
          </Trackpoint>
          <Trackpoint>
            <Time>2022-07-06T16:37:36.000Z</Time>
            <Position>
              <LatitudeDegrees>43.86630677618086338043212890625</LatitudeDegrees>
              <LongitudeDegrees>-1.31730501540005207061767578125</LongitudeDegrees>
            </Position>
            <AltitudeMeters>26</AltitudeMeters>
            <DistanceMeters>NAN</DistanceMeters>
          </Trackpoint>
          <Trackpoint>
            <Time>2022-07-06T16:37:43.000Z</Time>
            <Position>
              <LatitudeDegrees>43.86622647754848003387451171875</LatitudeDegrees>
              <LongitudeDegrees>-1.317681781947612762451171875</LongitudeDegrees>
            </Position>
            <AltitudeMeters>25.799999237060546875</AltitudeMeters>
            <DistanceMeters>NAN</DistanceMeters>
          </Trackpoint>
          <Trackpoint>
            <Time>2022-07-06T16:37:47.000Z</Time>
            <Position>
              <LatitudeDegrees>43.86618532240390777587890625</LatitudeDegrees>
              <LongitudeDegrees>-1.3178824447095394134521484375</LongitudeDegrees>
            </Position>
            <AltitudeMeters>25.6000003814697265625</AltitudeMeters>
            <DistanceMeters>NAN</DistanceMeters>
          </Trackpoint>
          <Trackpoint>
            <Time>2022-07-06T16:37:49.000Z</Time>
            <Position>
              <LatitudeDegrees>43.86615003459155559539794921875</LatitudeDegrees>
              <LongitudeDegrees>-1.31798244081437587738037109375</LongitudeDegrees>
            </Position>
            <AltitudeMeters>25.799999237060546875</AltitudeMeters>
            <DistanceMeters>NAN</DistanceMeters>
          </Trackpoint>
          <Trackpoint>
            <Time>2022-07-06T16:37:54.000Z</Time>
            <Position>
              <LatitudeDegrees>43.8660647906363010406494140625</LatitudeDegrees>
              <LongitudeDegrees>-1.318216882646083831787109375</LongitudeDegrees>
            </Position>
            <AltitudeMeters>25.799999237060546875</AltitudeMeters>
            <DistanceMeters>NAN</DistanceMeters>
          </Trackpoint>
          <Trackpoint>
            <Time>2022-07-06T16:37:56.000Z</Time>
            <Position>
              <LatitudeDegrees>43.86607560329139232635498046875</LatitudeDegrees>
              <LongitudeDegrees>-1.3183364085853099822998046875</LongitudeDegrees>
            </Position>
            <AltitudeMeters>25.799999237060546875</AltitudeMeters>
            <DistanceMeters>NAN</DistanceMeters>
          </Trackpoint>
          <Trackpoint>
            <Time>2022-07-06T16:37:58.000Z</Time>
            <Position>
              <LatitudeDegrees>43.866055570542812347412109375</LatitudeDegrees>
              <LongitudeDegrees>-1.3184664957225322723388671875</LongitudeDegrees>
            </Position>
            <AltitudeMeters>25.799999237060546875</AltitudeMeters>
            <DistanceMeters>NAN</DistanceMeters>
          </Trackpoint>
          <Trackpoint>
            <Time>2022-07-06T16:38:04.000Z</Time>
            <Position>
              <LatitudeDegrees>43.8659662194550037384033203125</LatitudeDegrees>
              <LongitudeDegrees>-1.3188295997679233551025390625</LongitudeDegrees>
            </Position>
            <AltitudeMeters>26.200000762939453125</AltitudeMeters>
            <DistanceMeters>NAN</DistanceMeters>
          </Trackpoint>
          <Trackpoint>
            <Time>2022-07-06T16:38:09.000Z</Time>
            <Position>
              <LatitudeDegrees>43.86590343900024890899658203125</LatitudeDegrees>
              <LongitudeDegrees>-1.319089941680431365966796875</LongitudeDegrees>
            </Position>
            <AltitudeMeters>26.6000003814697265625</AltitudeMeters>
            <DistanceMeters>NAN</DistanceMeters>
          </Trackpoint>
          <Trackpoint>
            <Time>2022-07-06T16:38:14.000Z</Time>
            <Position>
              <LatitudeDegrees>43.86576027609407901763916015625</LatitudeDegrees>
              <LongitudeDegrees>-1.31926336325705051422119140625</LongitudeDegrees>
            </Position>
            <AltitudeMeters>27</AltitudeMeters>
            <DistanceMeters>NAN</DistanceMeters>
          </Trackpoint>
          <Trackpoint>
            <Time>2022-07-06T16:38:20.000Z</Time>
            <Position>
              <LatitudeDegrees>43.86568198911845684051513671875</LatitudeDegrees>
              <LongitudeDegrees>-1.31950207985937595367431640625</LongitudeDegrees>
            </Position>
            <AltitudeMeters>27.200000762939453125</AltitudeMeters>
            <DistanceMeters>NAN</DistanceMeters>
          </Trackpoint>
          <Trackpoint>
            <Time>2022-07-06T16:38:24.000Z</Time>
            <Position>
              <LatitudeDegrees>43.8656359724700450897216796875</LatitudeDegrees>
              <LongitudeDegrees>-1.31966418586671352386474609375</LongitudeDegrees>
            </Position>
            <AltitudeMeters>27.3999996185302734375</AltitudeMeters>
            <DistanceMeters>NAN</DistanceMeters>
          </Trackpoint>
          <Trackpoint>
            <Time>2022-07-06T16:38:25.000Z</Time>
            <Position>
              <LatitudeDegrees>43.86561560444533824920654296875</LatitudeDegrees>
              <LongitudeDegrees>-1.31969469599425792694091796875</LongitudeDegrees>
            </Position>
            <AltitudeMeters>27.3999996185302734375</AltitudeMeters>
            <DistanceMeters>NAN</DistanceMeters>
          </Trackpoint>
          <Trackpoint>
            <Time>2022-07-06T16:38:30.000Z</Time>
            <Position>
              <LatitudeDegrees>43.86557470075786113739013671875</LatitudeDegrees>
              <LongitudeDegrees>-1.3199051655828952789306640625</LongitudeDegrees>
            </Position>
            <AltitudeMeters>27.6000003814697265625</AltitudeMeters>
            <DistanceMeters>NAN</DistanceMeters>
          </Trackpoint>
          <Trackpoint>
            <Time>2022-07-06T16:38:36.000Z</Time>
            <Position>
              <LatitudeDegrees>43.86553949676454067230224609375</LatitudeDegrees>
              <LongitudeDegrees>-1.3202803395688533782958984375</LongitudeDegrees>
            </Position>
            <AltitudeMeters>27.6000003814697265625</AltitudeMeters>
            <DistanceMeters>NAN</DistanceMeters>
          </Trackpoint>
          <Trackpoint>
            <Time>2022-07-06T16:38:40.000Z</Time>
            <Position>
              <LatitudeDegrees>43.86549658142030239105224609375</LatitudeDegrees>
              <LongitudeDegrees>-1.32052400149405002593994140625</LongitudeDegrees>
            </Position>
            <AltitudeMeters>27.6000003814697265625</AltitudeMeters>
            <DistanceMeters>NAN</DistanceMeters>
          </Trackpoint>
          <Trackpoint>
            <Time>2022-07-06T16:38:46.000Z</Time>
            <Position>
              <LatitudeDegrees>43.86545433662831783294677734375</LatitudeDegrees>
              <LongitudeDegrees>-1.32085240446031093597412109375</LongitudeDegrees>
            </Position>
            <AltitudeMeters>27.799999237060546875</AltitudeMeters>
            <DistanceMeters>NAN</DistanceMeters>
          </Trackpoint>
          <Trackpoint>
            <Time>2022-07-06T16:38:51.000Z</Time>
            <Position>
              <LatitudeDegrees>43.86540890671312808990478515625</LatitudeDegrees>
              <LongitudeDegrees>-1.3211421668529510498046875</LongitudeDegrees>
            </Position>
            <AltitudeMeters>28</AltitudeMeters>
            <DistanceMeters>NAN</DistanceMeters>
          </Trackpoint>
          <Trackpoint>
            <Time>2022-07-06T16:38:59.000Z</Time>
            <Position>
              <LatitudeDegrees>43.86531435884535312652587890625</LatitudeDegrees>
              <LongitudeDegrees>-1.32164382375776767730712890625</LongitudeDegrees>
            </Position>
            <AltitudeMeters>28.200000762939453125</AltitudeMeters>
            <DistanceMeters>NAN</DistanceMeters>
          </Trackpoint>
          <Trackpoint>
            <Time>2022-07-06T16:39:03.000Z</Time>
            <Position>
              <LatitudeDegrees>43.865207992494106292724609375</LatitudeDegrees>
              <LongitudeDegrees>-1.3219577260315418243408203125</LongitudeDegrees>
            </Position>
            <AltitudeMeters>28.200000762939453125</AltitudeMeters>
            <DistanceMeters>NAN</DistanceMeters>
          </Trackpoint>
          <Trackpoint>
            <Time>2022-07-06T16:39:08.000Z</Time>
            <Position>
              <LatitudeDegrees>43.8651491515338420867919921875</LatitudeDegrees>
              <LongitudeDegrees>-1.32228118367493152618408203125</LongitudeDegrees>
            </Position>
            <AltitudeMeters>28.3999996185302734375</AltitudeMeters>
            <DistanceMeters>NAN</DistanceMeters>
          </Trackpoint>
          <Trackpoint>
            <Time>2022-07-06T16:39:09.000Z</Time>
            <Position>
              <LatitudeDegrees>43.865154348313808441162109375</LatitudeDegrees>
              <LongitudeDegrees>-1.32235041819512844085693359375</LongitudeDegrees>
            </Position>
            <AltitudeMeters>28.3999996185302734375</AltitudeMeters>
            <DistanceMeters>NAN</DistanceMeters>
          </Trackpoint>
          <Trackpoint>
            <Time>2022-07-06T16:39:11.000Z</Time>
            <Position>
              <LatitudeDegrees>43.86513523757457733154296875</LatitudeDegrees>
              <LongitudeDegrees>-1.32249735295772552490234375</LongitudeDegrees>
            </Position>
            <AltitudeMeters>28.200000762939453125</AltitudeMeters>
            <DistanceMeters>NAN</DistanceMeters>
          </Trackpoint>
          <Trackpoint>
            <Time>2022-07-06T16:39:13.000Z</Time>
            <Position>
              <LatitudeDegrees>43.86509357951581478118896484375</LatitudeDegrees>
              <LongitudeDegrees>-1.32262836210429668426513671875</LongitudeDegrees>
            </Position>
            <AltitudeMeters>28.200000762939453125</AltitudeMeters>
            <DistanceMeters>NAN</DistanceMeters>
          </Trackpoint>
          <Trackpoint>
            <Time>2022-07-06T16:39:21.000Z</Time>
            <Position>
              <LatitudeDegrees>43.86498277075588703155517578125</LatitudeDegrees>
              <LongitudeDegrees>-1.32311987690627574920654296875</LongitudeDegrees>
            </Position>
            <AltitudeMeters>28.200000762939453125</AltitudeMeters>
            <DistanceMeters>NAN</DistanceMeters>
          </Trackpoint>
          <Trackpoint>
            <Time>2022-07-06T16:39:23.000Z</Time>
            <Position>
              <LatitudeDegrees>43.8649426214396953582763671875</LatitudeDegrees>
              <LongitudeDegrees>-1.3232458569109439849853515625</LongitudeDegrees>
            </Position>
            <AltitudeMeters>28.3999996185302734375</AltitudeMeters>
            <DistanceMeters>NAN</DistanceMeters>
          </Trackpoint>
          <Trackpoint>
            <Time>2022-07-06T16:39:24.000Z</Time>
            <Position>
              <LatitudeDegrees>43.86492845602333545684814453125</LatitudeDegrees>
              <LongitudeDegrees>-1.32330872118473052978515625</LongitudeDegrees>
            </Position>
            <AltitudeMeters>28.3999996185302734375</AltitudeMeters>
            <DistanceMeters>NAN</DistanceMeters>
          </Trackpoint>
          <Trackpoint>
            <Time>2022-07-06T16:39:25.000Z</Time>
            <Position>
              <LatitudeDegrees>43.8649127818644046783447265625</LatitudeDegrees>
              <LongitudeDegrees>-1.323366723954677581787109375</LongitudeDegrees>
            </Position>
            <AltitudeMeters>28.3999996185302734375</AltitudeMeters>
            <DistanceMeters>NAN</DistanceMeters>
          </Trackpoint>
          <Trackpoint>
            <Time>2022-07-06T16:39:26.000Z</Time>
            <Position>
              <LatitudeDegrees>43.864885456860065460205078125</LatitudeDegrees>
              <LongitudeDegrees>-1.32342581637203693389892578125</LongitudeDegrees>
            </Position>
            <AltitudeMeters>28.6000003814697265625</AltitudeMeters>
            <DistanceMeters>NAN</DistanceMeters>
          </Trackpoint>
          <Trackpoint>
            <Time>2022-07-06T16:39:29.000Z</Time>
            <Position>
              <LatitudeDegrees>43.86483273468911647796630859375</LatitudeDegrees>
              <LongitudeDegrees>-1.32360217161476612091064453125</LongitudeDegrees>
            </Position>
            <AltitudeMeters>28.6000003814697265625</AltitudeMeters>
            <DistanceMeters>NAN</DistanceMeters>
          </Trackpoint>
          <Trackpoint>
            <Time>2022-07-06T16:39:32.000Z</Time>
            <Position>
              <LatitudeDegrees>43.8647753186523914337158203125</LatitudeDegrees>
              <LongitudeDegrees>-1.32372857071459293365478515625</LongitudeDegrees>
            </Position>
            <AltitudeMeters>28.799999237060546875</AltitudeMeters>
            <DistanceMeters>NAN</DistanceMeters>
          </Trackpoint>
          <Trackpoint>
            <Time>2022-07-06T16:39:35.000Z</Time>
            <Position>
              <LatitudeDegrees>43.8647142983973026275634765625</LatitudeDegrees>
              <LongitudeDegrees>-1.323860920965671539306640625</LongitudeDegrees>
            </Position>
            <AltitudeMeters>28.6000003814697265625</AltitudeMeters>
            <DistanceMeters>NAN</DistanceMeters>
          </Trackpoint>
          <Trackpoint>
            <Time>2022-07-06T16:39:39.000Z</Time>
            <Position>
              <LatitudeDegrees>43.8646495901048183441162109375</LatitudeDegrees>
              <LongitudeDegrees>-1.324043311178684234619140625</LongitudeDegrees>
            </Position>
            <AltitudeMeters>28.799999237060546875</AltitudeMeters>
            <DistanceMeters>NAN</DistanceMeters>
          </Trackpoint>
          <Trackpoint>
            <Time>2022-07-06T16:39:45.000Z</Time>
            <Position>
              <LatitudeDegrees>43.86456551961600780487060546875</LatitudeDegrees>
              <LongitudeDegrees>-1.32428948767483234405517578125</LongitudeDegrees>
            </Position>
            <AltitudeMeters>29</AltitudeMeters>
            <DistanceMeters>NAN</DistanceMeters>
          </Trackpoint>
          <Trackpoint>
            <Time>2022-07-06T16:39:50.000Z</Time>
            <Position>
              <LatitudeDegrees>43.86447080411016941070556640625</LatitudeDegrees>
              <LongitudeDegrees>-1.32448176853358745574951171875</LongitudeDegrees>
            </Position>
            <AltitudeMeters>29</AltitudeMeters>
            <DistanceMeters>NAN</DistanceMeters>
          </Trackpoint>
          <Trackpoint>
            <Time>2022-07-06T16:39:55.000Z</Time>
            <Position>
              <LatitudeDegrees>43.864388577640056610107421875</LatitudeDegrees>
              <LongitudeDegrees>-1.32471310906112194061279296875</LongitudeDegrees>
            </Position>
            <AltitudeMeters>29.3999996185302734375</AltitudeMeters>
            <DistanceMeters>NAN</DistanceMeters>
          </Trackpoint>
          <Trackpoint>
            <Time>2022-07-06T16:39:59.000Z</Time>
            <Position>
              <LatitudeDegrees>43.86429704725742340087890625</LatitudeDegrees>
              <LongitudeDegrees>-1.3248793222010135650634765625</LongitudeDegrees>
            </Position>
            <AltitudeMeters>29.200000762939453125</AltitudeMeters>
            <DistanceMeters>NAN</DistanceMeters>
          </Trackpoint>
          <Trackpoint>
            <Time>2022-07-06T16:40:03.000Z</Time>
            <Position>
              <LatitudeDegrees>43.8641721569001674652099609375</LatitudeDegrees>
              <LongitudeDegrees>-1.32503782398998737335205078125</LongitudeDegrees>
            </Position>
            <AltitudeMeters>28.799999237060546875</AltitudeMeters>
            <DistanceMeters>NAN</DistanceMeters>
          </Trackpoint>
          <Trackpoint>
            <Time>2022-07-06T16:40:09.000Z</Time>
            <Position>
              <LatitudeDegrees>43.864006362855434417724609375</LatitudeDegrees>
              <LongitudeDegrees>-1.3252601958811283111572265625</LongitudeDegrees>
            </Position>
            <AltitudeMeters>29.200000762939453125</AltitudeMeters>
            <DistanceMeters>NAN</DistanceMeters>
          </Trackpoint>
          <Trackpoint>
            <Time>2022-07-06T16:40:12.000Z</Time>
            <Position>
              <LatitudeDegrees>43.86393452994525432586669921875</LatitudeDegrees>
              <LongitudeDegrees>-1.3253845833241939544677734375</LongitudeDegrees>
            </Position>
            <AltitudeMeters>29.3999996185302734375</AltitudeMeters>
            <DistanceMeters>NAN</DistanceMeters>
          </Trackpoint>
          <Trackpoint>
            <Time>2022-07-06T16:40:15.000Z</Time>
            <Position>
              <LatitudeDegrees>43.86384165845811367034912109375</LatitudeDegrees>
              <LongitudeDegrees>-1.32548592053353786468505859375</LongitudeDegrees>
            </Position>
            <AltitudeMeters>29.6000003814697265625</AltitudeMeters>
            <DistanceMeters>NAN</DistanceMeters>
          </Trackpoint>
          <Trackpoint>
            <Time>2022-07-06T16:40:23.000Z</Time>
            <Position>
              <LatitudeDegrees>43.86361652053892612457275390625</LatitudeDegrees>
              <LongitudeDegrees>-1.32577543146908283233642578125</LongitudeDegrees>
            </Position>
            <AltitudeMeters>29.6000003814697265625</AltitudeMeters>
            <DistanceMeters>NAN</DistanceMeters>
          </Trackpoint>
          <Trackpoint>
            <Time>2022-07-06T16:40:32.000Z</Time>
            <Position>
              <LatitudeDegrees>43.86330890469253063201904296875</LatitudeDegrees>
              <LongitudeDegrees>-1.326097883284091949462890625</LongitudeDegrees>
            </Position>
            <AltitudeMeters>29.3999996185302734375</AltitudeMeters>
            <DistanceMeters>NAN</DistanceMeters>
          </Trackpoint>
          <Trackpoint>
            <Time>2022-07-06T16:40:35.000Z</Time>
            <Position>
              <LatitudeDegrees>43.8632079027593135833740234375</LatitudeDegrees>
              <LongitudeDegrees>-1.32621833123266696929931640625</LongitudeDegrees>
            </Position>
            <AltitudeMeters>29.3999996185302734375</AltitudeMeters>
            <DistanceMeters>NAN</DistanceMeters>
          </Trackpoint>
          <Trackpoint>
            <Time>2022-07-06T16:40:41.000Z</Time>
            <Position>
              <LatitudeDegrees>43.86303934268653392791748046875</LatitudeDegrees>
              <LongitudeDegrees>-1.32644598372280597686767578125</LongitudeDegrees>
            </Position>
            <AltitudeMeters>29.799999237060546875</AltitudeMeters>
            <DistanceMeters>NAN</DistanceMeters>
          </Trackpoint>
          <Trackpoint>
            <Time>2022-07-06T16:40:43.000Z</Time>
            <Position>
              <LatitudeDegrees>43.862979747354984283447265625</LatitudeDegrees>
              <LongitudeDegrees>-1.32652544416487216949462890625</LongitudeDegrees>
            </Position>
            <AltitudeMeters>29.799999237060546875</AltitudeMeters>
            <DistanceMeters>NAN</DistanceMeters>
          </Trackpoint>
          <Trackpoint>
            <Time>2022-07-06T16:40:49.000Z</Time>
            <Position>
              <LatitudeDegrees>43.86281353421509265899658203125</LatitudeDegrees>
              <LongitudeDegrees>-1.3267360813915729522705078125</LongitudeDegrees>
            </Position>
            <AltitudeMeters>29.799999237060546875</AltitudeMeters>
            <DistanceMeters>NAN</DistanceMeters>
          </Trackpoint>
          <Trackpoint>
            <Time>2022-07-06T16:40:51.000Z</Time>
            <Position>
              <LatitudeDegrees>43.86275972239673137664794921875</LatitudeDegrees>
              <LongitudeDegrees>-1.32679936476051807403564453125</LongitudeDegrees>
            </Position>
            <AltitudeMeters>30</AltitudeMeters>
            <DistanceMeters>NAN</DistanceMeters>
          </Trackpoint>
          <Trackpoint>
            <Time>2022-07-06T16:41:00.000Z</Time>
            <Position>
              <LatitudeDegrees>43.8625044934451580047607421875</LatitudeDegrees>
              <LongitudeDegrees>-1.32712148129940032958984375</LongitudeDegrees>
            </Position>
            <AltitudeMeters>30.3999996185302734375</AltitudeMeters>
            <DistanceMeters>NAN</DistanceMeters>
          </Trackpoint>
          <Trackpoint>
            <Time>2022-07-06T16:41:05.000Z</Time>
            <Position>
              <LatitudeDegrees>43.86235571466386318206787109375</LatitudeDegrees>
              <LongitudeDegrees>-1.32729305885732173919677734375</LongitudeDegrees>
            </Position>
            <AltitudeMeters>30.6000003814697265625</AltitudeMeters>
            <DistanceMeters>NAN</DistanceMeters>
          </Trackpoint>
          <Trackpoint>
            <Time>2022-07-06T16:41:09.000Z</Time>
            <Position>
              <LatitudeDegrees>43.86224524118006229400634765625</LatitudeDegrees>
              <LongitudeDegrees>-1.3274358026683330535888671875</LongitudeDegrees>
            </Position>
            <AltitudeMeters>30.799999237060546875</AltitudeMeters>
            <DistanceMeters>NAN</DistanceMeters>
          </Trackpoint>
          <Trackpoint>
            <Time>2022-07-06T16:41:10.000Z</Time>
            <Position>
              <LatitudeDegrees>43.86220618151128292083740234375</LatitudeDegrees>
              <LongitudeDegrees>-1.3274803943932056427001953125</LongitudeDegrees>
            </Position>
            <AltitudeMeters>31</AltitudeMeters>
            <DistanceMeters>NAN</DistanceMeters>
          </Trackpoint>
          <Trackpoint>
            <Time>2022-07-06T16:41:20.000Z</Time>
            <Position>
              <LatitudeDegrees>43.861912898719310760498046875</LatitudeDegrees>
              <LongitudeDegrees>-1.32784408517181873321533203125</LongitudeDegrees>
            </Position>
            <AltitudeMeters>31</AltitudeMeters>
            <DistanceMeters>NAN</DistanceMeters>
          </Trackpoint>
          <Trackpoint>
            <Time>2022-07-06T16:41:21.000Z</Time>
            <Position>
              <LatitudeDegrees>43.86188431642949581146240234375</LatitudeDegrees>
              <LongitudeDegrees>-1.327879540622234344482421875</LongitudeDegrees>
            </Position>
            <AltitudeMeters>31</AltitudeMeters>
            <DistanceMeters>NAN</DistanceMeters>
          </Trackpoint>
          <Trackpoint>
            <Time>2022-07-06T16:41:25.000Z</Time>
            <Position>
              <LatitudeDegrees>43.86176562868058681488037109375</LatitudeDegrees>
              <LongitudeDegrees>-1.32801624946296215057373046875</LongitudeDegrees>
            </Position>
            <AltitudeMeters>31</AltitudeMeters>
            <DistanceMeters>NAN</DistanceMeters>
          </Trackpoint>
          <Trackpoint>
            <Time>2022-07-06T16:41:30.000Z</Time>
            <Position>
              <LatitudeDegrees>43.86162883602082729339599609375</LatitudeDegrees>
              <LongitudeDegrees>-1.328191347420215606689453125</LongitudeDegrees>
            </Position>
            <AltitudeMeters>30.799999237060546875</AltitudeMeters>
            <DistanceMeters>NAN</DistanceMeters>
          </Trackpoint>
          <Trackpoint>
            <Time>2022-07-06T16:41:31.000Z</Time>
            <Position>
              <LatitudeDegrees>43.86160075664520263671875</LatitudeDegrees>
              <LongitudeDegrees>-1.32822613231837749481201171875</LongitudeDegrees>
            </Position>
            <AltitudeMeters>30.799999237060546875</AltitudeMeters>
            <DistanceMeters>NAN</DistanceMeters>
          </Trackpoint>
          <Trackpoint>
            <Time>2022-07-06T16:41:32.000Z</Time>
            <Position>
              <LatitudeDegrees>43.86157033033668994903564453125</LatitudeDegrees>
              <LongitudeDegrees>-1.32826167158782482147216796875</LongitudeDegrees>
            </Position>
            <AltitudeMeters>30.799999237060546875</AltitudeMeters>
            <DistanceMeters>NAN</DistanceMeters>
          </Trackpoint>
          <Trackpoint>
            <Time>2022-07-06T16:41:35.000Z</Time>
            <Position>
              <LatitudeDegrees>43.861478380858898162841796875</LatitudeDegrees>
              <LongitudeDegrees>-1.32837248034775257110595703125</LongitudeDegrees>
            </Position>
            <AltitudeMeters>30.799999237060546875</AltitudeMeters>
            <DistanceMeters>NAN</DistanceMeters>
          </Trackpoint>
          <Trackpoint>
            <Time>2022-07-06T16:41:40.000Z</Time>
            <Position>
              <LatitudeDegrees>43.8613313622772693634033203125</LatitudeDegrees>
              <LongitudeDegrees>-1.32854866795241832733154296875</LongitudeDegrees>
            </Position>
            <AltitudeMeters>31.200000762939453125</AltitudeMeters>
            <DistanceMeters>NAN</DistanceMeters>
          </Trackpoint>
          <Trackpoint>
            <Time>2022-07-06T16:41:42.000Z</Time>
            <Position>
              <LatitudeDegrees>43.861283920705318450927734375</LatitudeDegrees>
              <LongitudeDegrees>-1.32861404679715633392333984375</LongitudeDegrees>
            </Position>
            <AltitudeMeters>31.3999996185302734375</AltitudeMeters>
            <DistanceMeters>NAN</DistanceMeters>
          </Trackpoint>
          <Trackpoint>
            <Time>2022-07-06T16:41:43.000Z</Time>
            <Position>
              <LatitudeDegrees>43.86126338504254817962646484375</LatitudeDegrees>
              <LongitudeDegrees>-1.32864438928663730621337890625</LongitudeDegrees>
            </Position>
            <AltitudeMeters>31.6000003814697265625</AltitudeMeters>
            <DistanceMeters>NAN</DistanceMeters>
          </Trackpoint>
          <Trackpoint>
            <Time>2022-07-06T16:41:45.000Z</Time>
            <Position>
              <LatitudeDegrees>43.8611972518265247344970703125</LatitudeDegrees>
              <LongitudeDegrees>-1.328720413148403167724609375</LongitudeDegrees>
            </Position>
            <AltitudeMeters>31.799999237060546875</AltitudeMeters>
            <DistanceMeters>NAN</DistanceMeters>
          </Trackpoint>
          <Trackpoint>
            <Time>2022-07-06T16:41:47.000Z</Time>
            <Position>
              <LatitudeDegrees>43.86113698594272136688232421875</LatitudeDegrees>
              <LongitudeDegrees>-1.32878973148763179779052734375</LongitudeDegrees>
            </Position>
            <AltitudeMeters>31.799999237060546875</AltitudeMeters>
            <DistanceMeters>NAN</DistanceMeters>
          </Trackpoint>
          <Trackpoint>
            <Time>2022-07-06T16:41:49.000Z</Time>
            <Position>
              <LatitudeDegrees>43.86107973754405975341796875</LatitudeDegrees>
              <LongitudeDegrees>-1.32886357605457305908203125</LongitudeDegrees>
            </Position>
            <AltitudeMeters>32</AltitudeMeters>
            <DistanceMeters>NAN</DistanceMeters>
          </Trackpoint>
          <Trackpoint>
            <Time>2022-07-06T16:41:53.000Z</Time>
            <Position>
              <LatitudeDegrees>43.86098577640950679779052734375</LatitudeDegrees>
              <LongitudeDegrees>-1.3290102593600749969482421875</LongitudeDegrees>
            </Position>
            <AltitudeMeters>32.200000762939453125</AltitudeMeters>
            <DistanceMeters>NAN</DistanceMeters>
          </Trackpoint>
          <Trackpoint>
            <Time>2022-07-06T16:41:58.000Z</Time>
            <Position>
              <LatitudeDegrees>43.86087714694440364837646484375</LatitudeDegrees>
              <LongitudeDegrees>-1.32918820716440677642822265625</LongitudeDegrees>
            </Position>
            <AltitudeMeters>32.40000152587890625</AltitudeMeters>
            <DistanceMeters>NAN</DistanceMeters>
          </Trackpoint>
          <Trackpoint>
            <Time>2022-07-06T16:42:06.000Z</Time>
            <Position>
              <LatitudeDegrees>43.86071068234741687774658203125</LatitudeDegrees>
              <LongitudeDegrees>-1.3294803164899349212646484375</LongitudeDegrees>
            </Position>
            <AltitudeMeters>32.59999847412109375</AltitudeMeters>
            <DistanceMeters>NAN</DistanceMeters>
          </Trackpoint>
          <Trackpoint>
            <Time>2022-07-06T16:42:14.000Z</Time>
            <Position>
              <LatitudeDegrees>43.8605364225804805755615234375</LatitudeDegrees>
              <LongitudeDegrees>-1.329809390008449554443359375</LongitudeDegrees>
            </Position>
            <AltitudeMeters>33</AltitudeMeters>
            <DistanceMeters>NAN</DistanceMeters>
          </Trackpoint>
          <Trackpoint>
            <Time>2022-07-06T16:42:17.000Z</Time>
            <Position>
              <LatitudeDegrees>43.860472552478313446044921875</LatitudeDegrees>
              <LongitudeDegrees>-1.329941488802433013916015625</LongitudeDegrees>
            </Position>
            <AltitudeMeters>33</AltitudeMeters>
            <DistanceMeters>NAN</DistanceMeters>
          </Trackpoint>
          <Trackpoint>
            <Time>2022-07-06T16:42:23.000Z</Time>
            <Position>
              <LatitudeDegrees>43.86034757830202579498291015625</LatitudeDegrees>
              <LongitudeDegrees>-1.33021716959774494171142578125</LongitudeDegrees>
            </Position>
            <AltitudeMeters>33</AltitudeMeters>
            <DistanceMeters>NAN</DistanceMeters>
          </Trackpoint>
          <Trackpoint>
            <Time>2022-07-06T16:42:31.000Z</Time>
            <Position>
              <LatitudeDegrees>43.86017960496246814727783203125</LatitudeDegrees>
              <LongitudeDegrees>-1.3305947743356227874755859375</LongitudeDegrees>
            </Position>
            <AltitudeMeters>33.40000152587890625</AltitudeMeters>
            <DistanceMeters>NAN</DistanceMeters>
          </Trackpoint>
          <Trackpoint>
            <Time>2022-07-06T16:42:32.000Z</Time>
            <Position>
              <LatitudeDegrees>43.86016284115612506866455078125</LatitudeDegrees>
              <LongitudeDegrees>-1.3306470774114131927490234375</LongitudeDegrees>
            </Position>
            <AltitudeMeters>33.40000152587890625</AltitudeMeters>
            <DistanceMeters>NAN</DistanceMeters>
          </Trackpoint>
          <Trackpoint>
            <Time>2022-07-06T16:42:35.000Z</Time>
            <Position>
              <LatitudeDegrees>43.860125206410884857177734375</LatitudeDegrees>
              <LongitudeDegrees>-1.33081530220806598663330078125</LongitudeDegrees>
            </Position>
            <AltitudeMeters>33.40000152587890625</AltitudeMeters>
            <DistanceMeters>NAN</DistanceMeters>
          </Trackpoint>
          <Trackpoint>
            <Time>2022-07-06T16:42:36.000Z</Time>
            <Position>
              <LatitudeDegrees>43.8601148128509521484375</LatitudeDegrees>
              <LongitudeDegrees>-1.33087112568318843841552734375</LongitudeDegrees>
            </Position>
            <AltitudeMeters>33.40000152587890625</AltitudeMeters>
            <DistanceMeters>NAN</DistanceMeters>
          </Trackpoint>
          <Trackpoint>
            <Time>2022-07-06T16:42:39.000Z</Time>
            <Position>
              <LatitudeDegrees>43.8600777648389339447021484375</LatitudeDegrees>
              <LongitudeDegrees>-1.33103440515697002410888671875</LongitudeDegrees>
            </Position>
            <AltitudeMeters>33</AltitudeMeters>
            <DistanceMeters>NAN</DistanceMeters>
          </Trackpoint>
          <Trackpoint>
            <Time>2022-07-06T16:42:44.000Z</Time>
            <Position>
              <LatitudeDegrees>43.86002655141055583953857421875</LatitudeDegrees>
              <LongitudeDegrees>-1.3313001953065395355224609375</LongitudeDegrees>
            </Position>
            <AltitudeMeters>33</AltitudeMeters>
            <DistanceMeters>NAN</DistanceMeters>
          </Trackpoint>
          <Trackpoint>
            <Time>2022-07-06T16:42:45.000Z</Time>
            <Position>
              <LatitudeDegrees>43.8600195944309234619140625</LatitudeDegrees>
              <LongitudeDegrees>-1.3313551805913448333740234375</LongitudeDegrees>
            </Position>
            <AltitudeMeters>32.799999237060546875</AltitudeMeters>
            <DistanceMeters>NAN</DistanceMeters>
          </Trackpoint>
          <Trackpoint>
            <Time>2022-07-06T16:42:53.000Z</Time>
            <Position>
              <LatitudeDegrees>43.8599054329097270965576171875</LatitudeDegrees>
              <LongitudeDegrees>-1.3318064622581005096435546875</LongitudeDegrees>
            </Position>
            <AltitudeMeters>32.59999847412109375</AltitudeMeters>
            <DistanceMeters>NAN</DistanceMeters>
          </Trackpoint>
          <Trackpoint>
            <Time>2022-07-06T16:42:54.000Z</Time>
            <Position>
              <LatitudeDegrees>43.85989428497850894927978515625</LatitudeDegrees>
              <LongitudeDegrees>-1.331862621009349822998046875</LongitudeDegrees>
            </Position>
            <AltitudeMeters>32.59999847412109375</AltitudeMeters>
            <DistanceMeters>NAN</DistanceMeters>
          </Trackpoint>
          <Trackpoint>
            <Time>2022-07-06T16:43:04.000Z</Time>
            <Position>
              <LatitudeDegrees>43.85972849093377590179443359375</LatitudeDegrees>
              <LongitudeDegrees>-1.3324216939508914947509765625</LongitudeDegrees>
            </Position>
            <AltitudeMeters>32.200000762939453125</AltitudeMeters>
            <DistanceMeters>NAN</DistanceMeters>
          </Trackpoint>
          <Trackpoint>
            <Time>2022-07-06T16:43:11.000Z</Time>
            <Position>
              <LatitudeDegrees>43.85963000357151031494140625</LatitudeDegrees>
              <LongitudeDegrees>-1.3328092731535434722900390625</LongitudeDegrees>
            </Position>
            <AltitudeMeters>32.200000762939453125</AltitudeMeters>
            <DistanceMeters>NAN</DistanceMeters>
          </Trackpoint>
          <Trackpoint>
            <Time>2022-07-06T16:43:19.000Z</Time>
            <Position>
              <LatitudeDegrees>43.85953319258987903594970703125</LatitudeDegrees>
              <LongitudeDegrees>-1.3332545198500156402587890625</LongitudeDegrees>
            </Position>
            <AltitudeMeters>31.799999237060546875</AltitudeMeters>
            <DistanceMeters>NAN</DistanceMeters>
          </Trackpoint>
          <Trackpoint>
            <Time>2022-07-06T16:43:25.000Z</Time>
            <Position>
              <LatitudeDegrees>43.8594494573771953582763671875</LatitudeDegrees>
              <LongitudeDegrees>-1.3335554301738739013671875</LongitudeDegrees>
            </Position>
            <AltitudeMeters>31.6000003814697265625</AltitudeMeters>
            <DistanceMeters>NAN</DistanceMeters>
          </Trackpoint>
          <Trackpoint>
            <Time>2022-07-06T16:43:26.000Z</Time>
            <Position>
              <LatitudeDegrees>43.85944132693111896514892578125</LatitudeDegrees>
              <LongitudeDegrees>-1.333607733249664306640625</LongitudeDegrees>
            </Position>
            <AltitudeMeters>31.6000003814697265625</AltitudeMeters>
            <DistanceMeters>NAN</DistanceMeters>
          </Trackpoint>
          <Trackpoint>
            <Time>2022-07-06T16:43:27.000Z</Time>
            <Position>
              <LatitudeDegrees>43.85943009518086910247802734375</LatitudeDegrees>
              <LongitudeDegrees>-1.33366900496184825897216796875</LongitudeDegrees>
            </Position>
            <AltitudeMeters>31.6000003814697265625</AltitudeMeters>
            <DistanceMeters>NAN</DistanceMeters>
          </Trackpoint>
          <Trackpoint>
            <Time>2022-07-06T16:43:28.000Z</Time>
            <Position>
              <LatitudeDegrees>43.8594129122793674468994140625</LatitudeDegrees>
              <LongitudeDegrees>-1.3337202183902263641357421875</LongitudeDegrees>
            </Position>
            <AltitudeMeters>31.6000003814697265625</AltitudeMeters>
            <DistanceMeters>NAN</DistanceMeters>
          </Trackpoint>
          <Trackpoint>
            <Time>2022-07-06T16:43:32.000Z</Time>
            <Position>
              <LatitudeDegrees>43.85933361947536468505859375</LatitudeDegrees>
              <LongitudeDegrees>-1.33392892777919769287109375</LongitudeDegrees>
            </Position>
            <AltitudeMeters>31.3999996185302734375</AltitudeMeters>
            <DistanceMeters>NAN</DistanceMeters>
          </Trackpoint>
          <Trackpoint>
            <Time>2022-07-06T16:43:33.000Z</Time>
            <Position>
              <LatitudeDegrees>43.85931224562227725982666015625</LatitudeDegrees>
              <LongitudeDegrees>-1.333980895578861236572265625</LongitudeDegrees>
            </Position>
            <AltitudeMeters>31.3999996185302734375</AltitudeMeters>
            <DistanceMeters>NAN</DistanceMeters>
          </Trackpoint>
          <Trackpoint>
            <Time>2022-07-06T16:43:34.000Z</Time>
            <Position>
              <LatitudeDegrees>43.85929363779723644256591796875</LatitudeDegrees>
              <LongitudeDegrees>-1.33403529413044452667236328125</LongitudeDegrees>
            </Position>
            <AltitudeMeters>31.3999996185302734375</AltitudeMeters>
            <DistanceMeters>NAN</DistanceMeters>
          </Trackpoint>
          <Trackpoint>
            <Time>2022-07-06T16:43:36.000Z</Time>
            <Position>
              <LatitudeDegrees>43.85926497168838977813720703125</LatitudeDegrees>
              <LongitudeDegrees>-1.33413612842559814453125</LongitudeDegrees>
            </Position>
            <AltitudeMeters>31.3999996185302734375</AltitudeMeters>
            <DistanceMeters>NAN</DistanceMeters>
          </Trackpoint>
          <Trackpoint>
            <Time>2022-07-06T16:43:38.000Z</Time>
            <Position>
              <LatitudeDegrees>43.85923261754214763641357421875</LatitudeDegrees>
              <LongitudeDegrees>-1.3342439197003841400146484375</LongitudeDegrees>
            </Position>
            <AltitudeMeters>31.3999996185302734375</AltitudeMeters>
            <DistanceMeters>NAN</DistanceMeters>
          </Trackpoint>
          <Trackpoint>
            <Time>2022-07-06T16:43:39.000Z</Time>
            <Position>
              <LatitudeDegrees>43.85921199806034564971923828125</LatitudeDegrees>
              <LongitudeDegrees>-1.3342984020709991455078125</LongitudeDegrees>
            </Position>
            <AltitudeMeters>31.200000762939453125</AltitudeMeters>
            <DistanceMeters>NAN</DistanceMeters>
          </Trackpoint>
          <Trackpoint>
            <Time>2022-07-06T16:43:43.000Z</Time>
            <Position>
              <LatitudeDegrees>43.85914812795817852020263671875</LatitudeDegrees>
              <LongitudeDegrees>-1.334526725113391876220703125</LongitudeDegrees>
            </Position>
            <AltitudeMeters>31.200000762939453125</AltitudeMeters>
            <DistanceMeters>NAN</DistanceMeters>
          </Trackpoint>
          <Trackpoint>
            <Time>2022-07-06T16:43:45.000Z</Time>
            <Position>
              <LatitudeDegrees>43.859106637537479400634765625</LatitudeDegrees>
              <LongitudeDegrees>-1.33461423218250274658203125</LongitudeDegrees>
            </Position>
            <AltitudeMeters>31.3999996185302734375</AltitudeMeters>
            <DistanceMeters>NAN</DistanceMeters>
          </Trackpoint>
          <Trackpoint>
            <Time>2022-07-06T16:43:51.000Z</Time>
            <Position>
              <LatitudeDegrees>43.858964145183563232421875</LatitudeDegrees>
              <LongitudeDegrees>-1.3348728977143764495849609375</LongitudeDegrees>
            </Position>
            <AltitudeMeters>31.799999237060546875</AltitudeMeters>
            <DistanceMeters>NAN</DistanceMeters>
          </Trackpoint>
          <Trackpoint>
            <Time>2022-07-06T16:43:53.000Z</Time>
            <Position>
              <LatitudeDegrees>43.858947716653347015380859375</LatitudeDegrees>
              <LongitudeDegrees>-1.33498127572238445281982421875</LongitudeDegrees>
            </Position>
            <AltitudeMeters>31.799999237060546875</AltitudeMeters>
            <DistanceMeters>NAN</DistanceMeters>
          </Trackpoint>
          <Trackpoint>
            <Time>2022-07-06T16:43:56.000Z</Time>
            <Position>
              <LatitudeDegrees>43.8588962517678737640380859375</LatitudeDegrees>
              <LongitudeDegrees>-1.33511689491569995880126953125</LongitudeDegrees>
            </Position>
            <AltitudeMeters>31.6000003814697265625</AltitudeMeters>
            <DistanceMeters>NAN</DistanceMeters>
          </Trackpoint>
          <Trackpoint>
            <Time>2022-07-06T16:43:59.000Z</Time>
            <Position>
              <LatitudeDegrees>43.85884168557822704315185546875</LatitudeDegrees>
              <LongitudeDegrees>-1.335238181054592132568359375</LongitudeDegrees>
            </Position>
            <AltitudeMeters>31.6000003814697265625</AltitudeMeters>
            <DistanceMeters>NAN</DistanceMeters>
          </Trackpoint>
          <Trackpoint>
            <Time>2022-07-06T16:44:01.000Z</Time>
            <Position>
              <LatitudeDegrees>43.8587929867208003997802734375</LatitudeDegrees>
              <LongitudeDegrees>-1.33533063344657421112060546875</LongitudeDegrees>
            </Position>
            <AltitudeMeters>31.3999996185302734375</AltitudeMeters>
            <DistanceMeters>NAN</DistanceMeters>
          </Trackpoint>
          <Trackpoint>
            <Time>2022-07-06T16:44:05.000Z</Time>
            <Position>
              <LatitudeDegrees>43.858710341155529022216796875</LatitudeDegrees>
              <LongitudeDegrees>-1.33550941944122314453125</LongitudeDegrees>
            </Position>
            <AltitudeMeters>31.3999996185302734375</AltitudeMeters>
            <DistanceMeters>NAN</DistanceMeters>
          </Trackpoint>
          <Trackpoint>
            <Time>2022-07-06T16:44:09.000Z</Time>
            <Position>
              <LatitudeDegrees>43.8586196489632129669189453125</LatitudeDegrees>
              <LongitudeDegrees>-1.33569692261517047882080078125</LongitudeDegrees>
            </Position>
            <AltitudeMeters>31.799999237060546875</AltitudeMeters>
            <DistanceMeters>NAN</DistanceMeters>
          </Trackpoint>
          <Trackpoint>
            <Time>2022-07-06T16:44:11.000Z</Time>
            <Position>
              <LatitudeDegrees>43.85860263369977474212646484375</LatitudeDegrees>
              <LongitudeDegrees>-1.3358049653470516204833984375</LongitudeDegrees>
            </Position>
            <AltitudeMeters>31.6000003814697265625</AltitudeMeters>
            <DistanceMeters>NAN</DistanceMeters>
          </Trackpoint>
          <Trackpoint>
            <Time>2022-07-06T16:44:16.000Z</Time>
            <Position>
              <LatitudeDegrees>43.85850456543266773223876953125</LatitudeDegrees>
              <LongitudeDegrees>-1.33602616377174854278564453125</LongitudeDegrees>
            </Position>
            <AltitudeMeters>31.3999996185302734375</AltitudeMeters>
            <DistanceMeters>NAN</DistanceMeters>
          </Trackpoint>
          <Trackpoint>
            <Time>2022-07-06T16:44:26.000Z</Time>
            <Position>
              <LatitudeDegrees>43.8583056628704071044921875</LatitudeDegrees>
              <LongitudeDegrees>-1.3363994099199771881103515625</LongitudeDegrees>
            </Position>
            <AltitudeMeters>31.3999996185302734375</AltitudeMeters>
            <DistanceMeters>NAN</DistanceMeters>
          </Trackpoint>
          <Trackpoint>
            <Time>2022-07-06T16:44:33.000Z</Time>
            <Position>
              <LatitudeDegrees>43.85817130096256732940673828125</LatitudeDegrees>
              <LongitudeDegrees>-1.33661440573632717132568359375</LongitudeDegrees>
            </Position>
            <AltitudeMeters>31.799999237060546875</AltitudeMeters>
            <DistanceMeters>NAN</DistanceMeters>
          </Trackpoint>
          <Trackpoint>
            <Time>2022-07-06T16:44:38.000Z</Time>
            <Position>
              <LatitudeDegrees>43.85806820355355739593505859375</LatitudeDegrees>
              <LongitudeDegrees>-1.3367336802184581756591796875</LongitudeDegrees>
            </Position>
            <AltitudeMeters>32.200000762939453125</AltitudeMeters>
            <DistanceMeters>NAN</DistanceMeters>
          </Trackpoint>
          <Trackpoint>
            <Time>2022-07-06T16:44:39.000Z</Time>
            <Position>
              <LatitudeDegrees>43.85804104618728160858154296875</LatitudeDegrees>
              <LongitudeDegrees>-1.336770392954349517822265625</LongitudeDegrees>
            </Position>
            <AltitudeMeters>32.200000762939453125</AltitudeMeters>
            <DistanceMeters>NAN</DistanceMeters>
          </Trackpoint>
          <Trackpoint>
            <Time>2022-07-06T16:44:47.000Z</Time>
            <Position>
              <LatitudeDegrees>43.8578180037438869476318359375</LatitudeDegrees>
              <LongitudeDegrees>-1.337076835334300994873046875</LongitudeDegrees>
            </Position>
            <AltitudeMeters>32.40000152587890625</AltitudeMeters>
            <DistanceMeters>NAN</DistanceMeters>
          </Trackpoint>
          <Trackpoint>
            <Time>2022-07-06T16:44:51.000Z</Time>
            <Position>
              <LatitudeDegrees>43.8577026687562465667724609375</LatitudeDegrees>
              <LongitudeDegrees>-1.33725075982511043548583984375</LongitudeDegrees>
            </Position>
            <AltitudeMeters>32.59999847412109375</AltitudeMeters>
            <DistanceMeters>NAN</DistanceMeters>
          </Trackpoint>
          <Trackpoint>
            <Time>2022-07-06T16:44:56.000Z</Time>
            <Position>
              <LatitudeDegrees>43.857571743428707122802734375</LatitudeDegrees>
              <LongitudeDegrees>-1.33744060993194580078125</LongitudeDegrees>
            </Position>
            <AltitudeMeters>32.799999237060546875</AltitudeMeters>
            <DistanceMeters>NAN</DistanceMeters>
          </Trackpoint>
          <Trackpoint>
            <Time>2022-07-06T16:44:59.000Z</Time>
            <Position>
              <LatitudeDegrees>43.8575088791549205780029296875</LatitudeDegrees>
              <LongitudeDegrees>-1.337566338479518890380859375</LongitudeDegrees>
            </Position>
            <AltitudeMeters>32.799999237060546875</AltitudeMeters>
            <DistanceMeters>NAN</DistanceMeters>
          </Trackpoint>
          <Trackpoint>
            <Time>2022-07-06T16:45:05.000Z</Time>
            <Position>
              <LatitudeDegrees>43.85736814700067043304443359375</LatitudeDegrees>
              <LongitudeDegrees>-1.33778351359069347381591796875</LongitudeDegrees>
            </Position>
            <AltitudeMeters>32.59999847412109375</AltitudeMeters>
            <DistanceMeters>NAN</DistanceMeters>
          </Trackpoint>
          <Trackpoint>
            <Time>2022-07-06T16:45:12.000Z</Time>
            <Position>
              <LatitudeDegrees>43.85721107013523578643798828125</LatitudeDegrees>
              <LongitudeDegrees>-1.33801569230854511260986328125</LongitudeDegrees>
            </Position>
            <AltitudeMeters>33.40000152587890625</AltitudeMeters>
            <DistanceMeters>NAN</DistanceMeters>
          </Trackpoint>
          <Trackpoint>
            <Time>2022-07-06T16:45:16.000Z</Time>
            <Position>
              <LatitudeDegrees>43.85712482035160064697265625</LatitudeDegrees>
              <LongitudeDegrees>-1.338149048388004302978515625</LongitudeDegrees>
            </Position>
            <AltitudeMeters>33.59999847412109375</AltitudeMeters>
            <DistanceMeters>NAN</DistanceMeters>
          </Trackpoint>
          <Trackpoint>
            <Time>2022-07-06T16:45:20.000Z</Time>
            <Position>
              <LatitudeDegrees>43.85702557861804962158203125</LatitudeDegrees>
              <LongitudeDegrees>-1.338295899331569671630859375</LongitudeDegrees>
            </Position>
            <AltitudeMeters>33.799999237060546875</AltitudeMeters>
            <DistanceMeters>NAN</DistanceMeters>
          </Trackpoint>
          <Trackpoint>
            <Time>2022-07-06T16:45:27.000Z</Time>
            <Position>
              <LatitudeDegrees>43.8568384945392608642578125</LatitudeDegrees>
              <LongitudeDegrees>-1.3385418243706226348876953125</LongitudeDegrees>
            </Position>
            <AltitudeMeters>33.59999847412109375</AltitudeMeters>
            <DistanceMeters>NAN</DistanceMeters>
          </Trackpoint>
          <Trackpoint>
            <Time>2022-07-06T16:45:32.000Z</Time>
            <Position>
              <LatitudeDegrees>43.856667838990688323974609375</LatitudeDegrees>
              <LongitudeDegrees>-1.33871189318597316741943359375</LongitudeDegrees>
            </Position>
            <AltitudeMeters>33.799999237060546875</AltitudeMeters>
            <DistanceMeters>NAN</DistanceMeters>
          </Trackpoint>
          <Trackpoint>
            <Time>2022-07-06T16:45:37.000Z</Time>
            <Position>
              <LatitudeDegrees>43.85652392171323299407958984375</LatitudeDegrees>
              <LongitudeDegrees>-1.33892714045941829681396484375</LongitudeDegrees>
            </Position>
            <AltitudeMeters>33.799999237060546875</AltitudeMeters>
            <DistanceMeters>NAN</DistanceMeters>
          </Trackpoint>
          <Trackpoint>
            <Time>2022-07-06T16:45:44.000Z</Time>
            <Position>
              <LatitudeDegrees>43.856329210102558135986328125</LatitudeDegrees>
              <LongitudeDegrees>-1.3392636738717555999755859375</LongitudeDegrees>
            </Position>
            <AltitudeMeters>33.59999847412109375</AltitudeMeters>
            <DistanceMeters>NAN</DistanceMeters>
          </Trackpoint>
          <Trackpoint>
            <Time>2022-07-06T16:45:49.000Z</Time>
            <Position>
              <LatitudeDegrees>43.85615528561174869537353515625</LatitudeDegrees>
              <LongitudeDegrees>-1.3394940085709095001220703125</LongitudeDegrees>
            </Position>
            <AltitudeMeters>33.40000152587890625</AltitudeMeters>
            <DistanceMeters>NAN</DistanceMeters>
          </Trackpoint>
          <Trackpoint>
            <Time>2022-07-06T16:45:50.000Z</Time>
            <Position>
              <LatitudeDegrees>43.85612192563712596893310546875</LatitudeDegrees>
              <LongitudeDegrees>-1.33954471908509731292724609375</LongitudeDegrees>
            </Position>
            <AltitudeMeters>33.40000152587890625</AltitudeMeters>
            <DistanceMeters>NAN</DistanceMeters>
          </Trackpoint>
          <Trackpoint>
            <Time>2022-07-06T16:45:56.000Z</Time>
            <Position>
              <LatitudeDegrees>43.85595261119306087493896484375</LatitudeDegrees>
              <LongitudeDegrees>-1.33986105211079120635986328125</LongitudeDegrees>
            </Position>
            <AltitudeMeters>33.200000762939453125</AltitudeMeters>
            <DistanceMeters>NAN</DistanceMeters>
          </Trackpoint>
          <Trackpoint>
            <Time>2022-07-06T16:45:58.000Z</Time>
            <Position>
              <LatitudeDegrees>43.85588505305349826812744140625</LatitudeDegrees>
              <LongitudeDegrees>-1.3399566896259784698486328125</LongitudeDegrees>
            </Position>
            <AltitudeMeters>33.200000762939453125</AltitudeMeters>
            <DistanceMeters>NAN</DistanceMeters>
          </Trackpoint>
          <Trackpoint>
            <Time>2022-07-06T16:46:05.000Z</Time>
            <Position>
              <LatitudeDegrees>43.85562068782746791839599609375</LatitudeDegrees>
              <LongitudeDegrees>-1.34032272733747959136962890625</LongitudeDegrees>
            </Position>
            <AltitudeMeters>33.200000762939453125</AltitudeMeters>
            <DistanceMeters>NAN</DistanceMeters>
          </Trackpoint>
          <Trackpoint>
            <Time>2022-07-06T16:46:08.000Z</Time>
            <Position>
              <LatitudeDegrees>43.85551591403782367706298828125</LatitudeDegrees>
              <LongitudeDegrees>-1.34046941064298152923583984375</LongitudeDegrees>
            </Position>
            <AltitudeMeters>33.200000762939453125</AltitudeMeters>
            <DistanceMeters>NAN</DistanceMeters>
          </Trackpoint>
          <Trackpoint>
            <Time>2022-07-06T16:46:11.000Z</Time>
            <Position>
              <LatitudeDegrees>43.8554204441606998443603515625</LatitudeDegrees>
              <LongitudeDegrees>-1.3406322710216045379638671875</LongitudeDegrees>
            </Position>
            <AltitudeMeters>33</AltitudeMeters>
            <DistanceMeters>NAN</DistanceMeters>
          </Trackpoint>
          <Trackpoint>
            <Time>2022-07-06T16:46:13.000Z</Time>
            <Position>
              <LatitudeDegrees>43.855364285409450531005859375</LatitudeDegrees>
              <LongitudeDegrees>-1.3407445885241031646728515625</LongitudeDegrees>
            </Position>
            <AltitudeMeters>32.799999237060546875</AltitudeMeters>
            <DistanceMeters>NAN</DistanceMeters>
          </Trackpoint>
          <Trackpoint>
            <Time>2022-07-06T16:46:16.000Z</Time>
            <Position>
              <LatitudeDegrees>43.85527401231229305267333984375</LatitudeDegrees>
              <LongitudeDegrees>-1.3408864103257656097412109375</LongitudeDegrees>
            </Position>
            <AltitudeMeters>32.59999847412109375</AltitudeMeters>
            <DistanceMeters>NAN</DistanceMeters>
          </Trackpoint>
          <Trackpoint>
            <Time>2022-07-06T16:46:17.000Z</Time>
            <Position>
              <LatitudeDegrees>43.85523797012865543365478515625</LatitudeDegrees>
              <LongitudeDegrees>-1.34093460626900196075439453125</LongitudeDegrees>
            </Position>
            <AltitudeMeters>32.59999847412109375</AltitudeMeters>
            <DistanceMeters>NAN</DistanceMeters>
          </Trackpoint>
          <Trackpoint>
            <Time>2022-07-06T16:46:18.000Z</Time>
            <Position>
              <LatitudeDegrees>43.85520511306822299957275390625</LatitudeDegrees>
              <LongitudeDegrees>-1.34100484661757946014404296875</LongitudeDegrees>
            </Position>
            <AltitudeMeters>32.59999847412109375</AltitudeMeters>
            <DistanceMeters>NAN</DistanceMeters>
          </Trackpoint>
          <Trackpoint>
            <Time>2022-07-06T16:46:21.000Z</Time>
            <Position>
              <LatitudeDegrees>43.8551180250942707061767578125</LatitudeDegrees>
              <LongitudeDegrees>-1.34118488989770412445068359375</LongitudeDegrees>
            </Position>
            <AltitudeMeters>32.40000152587890625</AltitudeMeters>
            <DistanceMeters>NAN</DistanceMeters>
          </Trackpoint>
          <Trackpoint>
            <Time>2022-07-06T16:46:23.000Z</Time>
            <Position>
              <LatitudeDegrees>43.85505725629627704620361328125</LatitudeDegrees>
              <LongitudeDegrees>-1.34130106307566165924072265625</LongitudeDegrees>
            </Position>
            <AltitudeMeters>32.40000152587890625</AltitudeMeters>
            <DistanceMeters>NAN</DistanceMeters>
          </Trackpoint>
          <Trackpoint>
            <Time>2022-07-06T16:46:25.000Z</Time>
            <Position>
              <LatitudeDegrees>43.855004869401454925537109375</LatitudeDegrees>
              <LongitudeDegrees>-1.34140416048467159271240234375</LongitudeDegrees>
            </Position>
            <AltitudeMeters>32.200000762939453125</AltitudeMeters>
            <DistanceMeters>NAN</DistanceMeters>
          </Trackpoint>
          <Trackpoint>
            <Time>2022-07-06T16:46:27.000Z</Time>
            <Position>
              <LatitudeDegrees>43.85494058020412921905517578125</LatitudeDegrees>
              <LongitudeDegrees>-1.34152628481388092041015625</LongitudeDegrees>
            </Position>
            <AltitudeMeters>32</AltitudeMeters>
            <DistanceMeters>NAN</DistanceMeters>
          </Trackpoint>
          <Trackpoint>
            <Time>2022-07-06T16:46:28.000Z</Time>
            <Position>
              <LatitudeDegrees>43.8549073040485382080078125</LatitudeDegrees>
              <LongitudeDegrees>-1.341580264270305633544921875</LongitudeDegrees>
            </Position>
            <AltitudeMeters>32</AltitudeMeters>
            <DistanceMeters>NAN</DistanceMeters>
          </Trackpoint>
          <Trackpoint>
            <Time>2022-07-06T16:46:32.000Z</Time>
            <Position>
              <LatitudeDegrees>43.8548146001994609832763671875</LatitudeDegrees>
              <LongitudeDegrees>-1.34178620763123035430908203125</LongitudeDegrees>
            </Position>
            <AltitudeMeters>31.799999237060546875</AltitudeMeters>
            <DistanceMeters>NAN</DistanceMeters>
          </Trackpoint>
          <Trackpoint>
            <Time>2022-07-06T16:46:35.000Z</Time>
            <Position>
              <LatitudeDegrees>43.85473405010998249053955078125</LatitudeDegrees>
              <LongitudeDegrees>-1.341955102980136871337890625</LongitudeDegrees>
            </Position>
            <AltitudeMeters>31.6000003814697265625</AltitudeMeters>
            <DistanceMeters>NAN</DistanceMeters>
          </Trackpoint>
          <Trackpoint>
            <Time>2022-07-06T16:46:36.000Z</Time>
            <Position>
              <LatitudeDegrees>43.8547089882194995880126953125</LatitudeDegrees>
              <LongitudeDegrees>-1.34200505912303924560546875</LongitudeDegrees>
            </Position>
            <AltitudeMeters>31.6000003814697265625</AltitudeMeters>
            <DistanceMeters>NAN</DistanceMeters>
          </Trackpoint>
          <Trackpoint>
            <Time>2022-07-06T16:46:37.000Z</Time>
            <Position>
              <LatitudeDegrees>43.85467235930263996124267578125</LatitudeDegrees>
              <LongitudeDegrees>-1.34207169525325298309326171875</LongitudeDegrees>
            </Position>
            <AltitudeMeters>31.6000003814697265625</AltitudeMeters>
            <DistanceMeters>NAN</DistanceMeters>
          </Trackpoint>
          <Trackpoint>
            <Time>2022-07-06T16:46:39.000Z</Time>
            <Position>
              <LatitudeDegrees>43.85462173260748386383056640625</LatitudeDegrees>
              <LongitudeDegrees>-1.342184431850910186767578125</LongitudeDegrees>
            </Position>
            <AltitudeMeters>31.6000003814697265625</AltitudeMeters>
            <DistanceMeters>NAN</DistanceMeters>
          </Trackpoint>
          <Trackpoint>
            <Time>2022-07-06T16:46:40.000Z</Time>
            <Position>
              <LatitudeDegrees>43.85459574870765209197998046875</LatitudeDegrees>
              <LongitudeDegrees>-1.34224335663020610809326171875</LongitudeDegrees>
            </Position>
            <AltitudeMeters>31.6000003814697265625</AltitudeMeters>
            <DistanceMeters>NAN</DistanceMeters>
          </Trackpoint>
          <Trackpoint>
            <Time>2022-07-06T16:46:44.000Z</Time>
            <Position>
              <LatitudeDegrees>43.85449013672769069671630859375</LatitudeDegrees>
              <LongitudeDegrees>-1.3424840010702610015869140625</LongitudeDegrees>
            </Position>
            <AltitudeMeters>31.6000003814697265625</AltitudeMeters>
            <DistanceMeters>NAN</DistanceMeters>
          </Trackpoint>
          <Trackpoint>
            <Time>2022-07-06T16:46:47.000Z</Time>
            <Position>
              <LatitudeDegrees>43.85438435710966587066650390625</LatitudeDegrees>
              <LongitudeDegrees>-1.3427140004932880401611328125</LongitudeDegrees>
            </Position>
            <AltitudeMeters>31.3999996185302734375</AltitudeMeters>
            <DistanceMeters>NAN</DistanceMeters>
          </Trackpoint>
          <Trackpoint>
            <Time>2022-07-06T16:46:48.000Z</Time>
            <Position>
              <LatitudeDegrees>43.85437496937811374664306640625</LatitudeDegrees>
              <LongitudeDegrees>-1.34276923723518848419189453125</LongitudeDegrees>
            </Position>
            <AltitudeMeters>31.3999996185302734375</AltitudeMeters>
            <DistanceMeters>NAN</DistanceMeters>
          </Trackpoint>
          <Trackpoint>
            <Time>2022-07-06T16:46:52.000Z</Time>
            <Position>
              <LatitudeDegrees>43.85428092442452907562255859375</LatitudeDegrees>
              <LongitudeDegrees>-1.34298272430896759033203125</LongitudeDegrees>
            </Position>
            <AltitudeMeters>31</AltitudeMeters>
            <DistanceMeters>NAN</DistanceMeters>
          </Trackpoint>
          <Trackpoint>
            <Time>2022-07-06T16:46:53.000Z</Time>
            <Position>
              <LatitudeDegrees>43.85423532687127590179443359375</LatitudeDegrees>
              <LongitudeDegrees>-1.343027316033840179443359375</LongitudeDegrees>
            </Position>
            <AltitudeMeters>31</AltitudeMeters>
            <DistanceMeters>NAN</DistanceMeters>
          </Trackpoint>
          <Trackpoint>
            <Time>2022-07-06T16:46:54.000Z</Time>
            <Position>
              <LatitudeDegrees>43.85419291444122791290283203125</LatitudeDegrees>
              <LongitudeDegrees>-1.34306897409260272979736328125</LongitudeDegrees>
            </Position>
            <AltitudeMeters>31</AltitudeMeters>
            <DistanceMeters>NAN</DistanceMeters>
          </Trackpoint>
          <Trackpoint>
            <Time>2022-07-06T16:46:56.000Z</Time>
            <Position>
              <LatitudeDegrees>43.85411060415208339691162109375</LatitudeDegrees>
              <LongitudeDegrees>-1.3431455008685588836669921875</LongitudeDegrees>
            </Position>
            <AltitudeMeters>31</AltitudeMeters>
            <DistanceMeters>NAN</DistanceMeters>
          </Trackpoint>
          <Trackpoint>
            <Time>2022-07-06T16:46:57.000Z</Time>
            <Position>
              <LatitudeDegrees>43.85405578650534152984619140625</LatitudeDegrees>
              <LongitudeDegrees>-1.343198306858539581298828125</LongitudeDegrees>
            </Position>
            <AltitudeMeters>30.799999237060546875</AltitudeMeters>
            <DistanceMeters>NAN</DistanceMeters>
          </Trackpoint>
          <Trackpoint>
            <Time>2022-07-06T16:47:00.000Z</Time>
            <Position>
              <LatitudeDegrees>43.85397263802587985992431640625</LatitudeDegrees>
              <LongitudeDegrees>-1.34333954192698001861572265625</LongitudeDegrees>
            </Position>
            <AltitudeMeters>31</AltitudeMeters>
            <DistanceMeters>NAN</DistanceMeters>
          </Trackpoint>
          <Trackpoint>
            <Time>2022-07-06T16:47:02.000Z</Time>
            <Position>
              <LatitudeDegrees>43.85389368049800395965576171875</LatitudeDegrees>
              <LongitudeDegrees>-1.34345387108623981475830078125</LongitudeDegrees>
            </Position>
            <AltitudeMeters>30.799999237060546875</AltitudeMeters>
            <DistanceMeters>NAN</DistanceMeters>
          </Trackpoint>
          <Trackpoint>
            <Time>2022-07-06T16:47:03.000Z</Time>
            <Position>
              <LatitudeDegrees>43.853864260017871856689453125</LatitudeDegrees>
              <LongitudeDegrees>-1.34351321496069431304931640625</LongitudeDegrees>
            </Position>
            <AltitudeMeters>30.799999237060546875</AltitudeMeters>
            <DistanceMeters>NAN</DistanceMeters>
          </Trackpoint>
          <Trackpoint>
            <Time>2022-07-06T16:47:04.000Z</Time>
            <Position>
              <LatitudeDegrees>43.8538491725921630859375</LatitudeDegrees>
              <LongitudeDegrees>-1.34358353912830352783203125</LongitudeDegrees>
            </Position>
            <AltitudeMeters>30.799999237060546875</AltitudeMeters>
            <DistanceMeters>NAN</DistanceMeters>
          </Trackpoint>
          <Trackpoint>
            <Time>2022-07-06T16:47:06.000Z</Time>
            <Position>
              <LatitudeDegrees>43.853809274733066558837890625</LatitudeDegrees>
              <LongitudeDegrees>-1.3437121175229549407958984375</LongitudeDegrees>
            </Position>
            <AltitudeMeters>30.799999237060546875</AltitudeMeters>
            <DistanceMeters>NAN</DistanceMeters>
          </Trackpoint>
          <Trackpoint>
            <Time>2022-07-06T16:47:08.000Z</Time>
            <Position>
              <LatitudeDegrees>43.85374381206929683685302734375</LatitudeDegrees>
              <LongitudeDegrees>-1.34380658157169818878173828125</LongitudeDegrees>
            </Position>
            <AltitudeMeters>30.799999237060546875</AltitudeMeters>
            <DistanceMeters>NAN</DistanceMeters>
          </Trackpoint>
          <Trackpoint>
            <Time>2022-07-06T16:47:10.000Z</Time>
            <Position>
              <LatitudeDegrees>43.8536790199577808380126953125</LatitudeDegrees>
              <LongitudeDegrees>-1.34389241226017475128173828125</LongitudeDegrees>
            </Position>
            <AltitudeMeters>30.799999237060546875</AltitudeMeters>
            <DistanceMeters>NAN</DistanceMeters>
          </Trackpoint>
          <Trackpoint>
            <Time>2022-07-06T16:47:12.000Z</Time>
            <Position>
              <LatitudeDegrees>43.85361255146563053131103515625</LatitudeDegrees>
              <LongitudeDegrees>-1.344009675085544586181640625</LongitudeDegrees>
            </Position>
            <AltitudeMeters>30.6000003814697265625</AltitudeMeters>
            <DistanceMeters>NAN</DistanceMeters>
          </Trackpoint>
          <Trackpoint>
            <Time>2022-07-06T16:47:13.000Z</Time>
            <Position>
              <LatitudeDegrees>43.8535998947918415069580078125</LatitudeDegrees>
              <LongitudeDegrees>-1.34407706558704376220703125</LongitudeDegrees>
            </Position>
            <AltitudeMeters>30.6000003814697265625</AltitudeMeters>
            <DistanceMeters>NAN</DistanceMeters>
          </Trackpoint>
          <Trackpoint>
            <Time>2022-07-06T16:47:17.000Z</Time>
            <Position>
              <LatitudeDegrees>43.85349579155445098876953125</LatitudeDegrees>
              <LongitudeDegrees>-1.34429843164980411529541015625</LongitudeDegrees>
            </Position>
            <AltitudeMeters>30.6000003814697265625</AltitudeMeters>
            <DistanceMeters>NAN</DistanceMeters>
          </Trackpoint>
          <Trackpoint>
            <Time>2022-07-06T16:47:19.000Z</Time>
            <Position>
              <LatitudeDegrees>43.85344692505896091461181640625</LatitudeDegrees>
              <LongitudeDegrees>-1.34441527538001537322998046875</LongitudeDegrees>
            </Position>
            <AltitudeMeters>30.6000003814697265625</AltitudeMeters>
            <DistanceMeters>NAN</DistanceMeters>
          </Trackpoint>
          <Trackpoint>
            <Time>2022-07-06T16:47:21.000Z</Time>
            <Position>
              <LatitudeDegrees>43.853382803499698638916015625</LatitudeDegrees>
              <LongitudeDegrees>-1.34452340193092823028564453125</LongitudeDegrees>
            </Position>
            <AltitudeMeters>30.6000003814697265625</AltitudeMeters>
            <DistanceMeters>NAN</DistanceMeters>
          </Trackpoint>
          <Trackpoint>
            <Time>2022-07-06T16:47:25.000Z</Time>
            <Position>
              <LatitudeDegrees>43.8532673008739948272705078125</LatitudeDegrees>
              <LongitudeDegrees>-1.34473823010921478271484375</LongitudeDegrees>
            </Position>
            <AltitudeMeters>30.6000003814697265625</AltitudeMeters>
            <DistanceMeters>NAN</DistanceMeters>
          </Trackpoint>
          <Trackpoint>
            <Time>2022-07-06T16:47:31.000Z</Time>
            <Position>
              <LatitudeDegrees>43.8531499542295932769775390625</LatitudeDegrees>
              <LongitudeDegrees>-1.34510963223874568939208984375</LongitudeDegrees>
            </Position>
            <AltitudeMeters>30.200000762939453125</AltitudeMeters>
            <DistanceMeters>NAN</DistanceMeters>
          </Trackpoint>
          <Trackpoint>
            <Time>2022-07-06T16:47:36.000Z</Time>
            <Position>
              <LatitudeDegrees>43.853026069700717926025390625</LatitudeDegrees>
              <LongitudeDegrees>-1.34536913596093654632568359375</LongitudeDegrees>
            </Position>
            <AltitudeMeters>30.200000762939453125</AltitudeMeters>
            <DistanceMeters>NAN</DistanceMeters>
          </Trackpoint>
          <Trackpoint>
            <Time>2022-07-06T16:47:38.000Z</Time>
            <Position>
              <LatitudeDegrees>43.85296010412275791168212890625</LatitudeDegrees>
              <LongitudeDegrees>-1.3454833813011646270751953125</LongitudeDegrees>
            </Position>
            <AltitudeMeters>30.200000762939453125</AltitudeMeters>
            <DistanceMeters>NAN</DistanceMeters>
          </Trackpoint>
          <Trackpoint>
            <Time>2022-07-06T16:47:41.000Z</Time>
            <Position>
              <LatitudeDegrees>43.85287829674780368804931640625</LatitudeDegrees>
              <LongitudeDegrees>-1.3456215150654315948486328125</LongitudeDegrees>
            </Position>
            <AltitudeMeters>30.200000762939453125</AltitudeMeters>
            <DistanceMeters>NAN</DistanceMeters>
          </Trackpoint>
          <Trackpoint>
            <Time>2022-07-06T16:47:43.000Z</Time>
            <Position>
              <LatitudeDegrees>43.8528294302523136138916015625</LatitudeDegrees>
              <LongitudeDegrees>-1.34573844261467456817626953125</LongitudeDegrees>
            </Position>
            <AltitudeMeters>30.200000762939453125</AltitudeMeters>
            <DistanceMeters>NAN</DistanceMeters>
          </Trackpoint>
          <Trackpoint>
            <Time>2022-07-06T16:47:44.000Z</Time>
            <Position>
              <LatitudeDegrees>43.85280520655214786529541015625</LatitudeDegrees>
              <LongitudeDegrees>-1.3457881473004817962646484375</LongitudeDegrees>
            </Position>
            <AltitudeMeters>30.200000762939453125</AltitudeMeters>
            <DistanceMeters>NAN</DistanceMeters>
          </Trackpoint>
          <Trackpoint>
            <Time>2022-07-06T16:47:46.000Z</Time>
            <Position>
              <LatitudeDegrees>43.85275877080857753753662109375</LatitudeDegrees>
              <LongitudeDegrees>-1.3458813540637493133544921875</LongitudeDegrees>
            </Position>
            <AltitudeMeters>30.200000762939453125</AltitudeMeters>
            <DistanceMeters>NAN</DistanceMeters>
          </Trackpoint>
          <Trackpoint>
            <Time>2022-07-06T16:47:47.000Z</Time>
            <Position>
              <LatitudeDegrees>43.8527328707277774810791015625</LatitudeDegrees>
              <LongitudeDegrees>-1.345943547785282135009765625</LongitudeDegrees>
            </Position>
            <AltitudeMeters>30.200000762939453125</AltitudeMeters>
            <DistanceMeters>NAN</DistanceMeters>
          </Trackpoint>
          <Trackpoint>
            <Time>2022-07-06T16:47:48.000Z</Time>
            <Position>
              <LatitudeDegrees>43.8527385704219341278076171875</LatitudeDegrees>
              <LongitudeDegrees>-1.3460104353725910186767578125</LongitudeDegrees>
            </Position>
            <AltitudeMeters>30.200000762939453125</AltitudeMeters>
            <DistanceMeters>NAN</DistanceMeters>
          </Trackpoint>
          <Trackpoint>
            <Time>2022-07-06T16:47:50.000Z</Time>
            <Position>
              <LatitudeDegrees>43.85270160622894763946533203125</LatitudeDegrees>
              <LongitudeDegrees>-1.3461106829345226287841796875</LongitudeDegrees>
            </Position>
            <AltitudeMeters>30.200000762939453125</AltitudeMeters>
            <DistanceMeters>NAN</DistanceMeters>
          </Trackpoint>
          <Trackpoint>
            <Time>2022-07-06T16:47:52.000Z</Time>
            <Position>
              <LatitudeDegrees>43.852635137736797332763671875</LatitudeDegrees>
              <LongitudeDegrees>-1.3462008722126483917236328125</LongitudeDegrees>
            </Position>
            <AltitudeMeters>30</AltitudeMeters>
            <DistanceMeters>NAN</DistanceMeters>
          </Trackpoint>
          <Trackpoint>
            <Time>2022-07-06T16:47:55.000Z</Time>
            <Position>
              <LatitudeDegrees>43.85255257599055767059326171875</LatitudeDegrees>
              <LongitudeDegrees>-1.34633640758693218231201171875</LongitudeDegrees>
            </Position>
            <AltitudeMeters>30</AltitudeMeters>
            <DistanceMeters>NAN</DistanceMeters>
          </Trackpoint>
          <Trackpoint>
            <Time>2022-07-06T16:47:57.000Z</Time>
            <Position>
              <LatitudeDegrees>43.85249800980091094970703125</LatitudeDegrees>
              <LongitudeDegrees>-1.3464369066059589385986328125</LongitudeDegrees>
            </Position>
            <AltitudeMeters>29.799999237060546875</AltitudeMeters>
            <DistanceMeters>NAN</DistanceMeters>
          </Trackpoint>
          <Trackpoint>
            <Time>2022-07-06T16:48:00.000Z</Time>
            <Position>
              <LatitudeDegrees>43.85241217911243438720703125</LatitudeDegrees>
              <LongitudeDegrees>-1.3466021977365016937255859375</LongitudeDegrees>
            </Position>
            <AltitudeMeters>29.799999237060546875</AltitudeMeters>
            <DistanceMeters>NAN</DistanceMeters>
          </Trackpoint>
          <Trackpoint>
            <Time>2022-07-06T16:48:04.000Z</Time>
            <Position>
              <LatitudeDegrees>43.85233012028038501739501953125</LatitudeDegrees>
              <LongitudeDegrees>-1.34686253964900970458984375</LongitudeDegrees>
            </Position>
            <AltitudeMeters>29.799999237060546875</AltitudeMeters>
            <DistanceMeters>NAN</DistanceMeters>
          </Trackpoint>
          <Trackpoint>
            <Time>2022-07-06T16:48:06.000Z</Time>
            <Position>
              <LatitudeDegrees>43.85227060876786708831787109375</LatitudeDegrees>
              <LongitudeDegrees>-1.34698717854917049407958984375</LongitudeDegrees>
            </Position>
            <AltitudeMeters>29.3999996185302734375</AltitudeMeters>
            <DistanceMeters>NAN</DistanceMeters>
          </Trackpoint>
          <Trackpoint>
            <Time>2022-07-06T16:48:07.000Z</Time>
            <Position>
              <LatitudeDegrees>43.8522440381348133087158203125</LatitudeDegrees>
              <LongitudeDegrees>-1.34702808223664760589599609375</LongitudeDegrees>
            </Position>
            <AltitudeMeters>29.3999996185302734375</AltitudeMeters>
            <DistanceMeters>NAN</DistanceMeters>
          </Trackpoint>
          <Trackpoint>
            <Time>2022-07-06T16:48:14.000Z</Time>
            <Position>
              <LatitudeDegrees>43.8520468957722187042236328125</LatitudeDegrees>
              <LongitudeDegrees>-1.34743510745465755462646484375</LongitudeDegrees>
            </Position>
            <AltitudeMeters>29.200000762939453125</AltitudeMeters>
            <DistanceMeters>NAN</DistanceMeters>
          </Trackpoint>
          <Trackpoint>
            <Time>2022-07-06T16:48:16.000Z</Time>
            <Position>
              <LatitudeDegrees>43.85199333541095256805419921875</LatitudeDegrees>
              <LongitudeDegrees>-1.347544491291046142578125</LongitudeDegrees>
            </Position>
            <AltitudeMeters>29.200000762939453125</AltitudeMeters>
            <DistanceMeters>NAN</DistanceMeters>
          </Trackpoint>
          <Trackpoint>
            <Time>2022-07-06T16:48:20.000Z</Time>
            <Position>
              <LatitudeDegrees>43.8518836162984371185302734375</LatitudeDegrees>
              <LongitudeDegrees>-1.34773216210305690765380859375</LongitudeDegrees>
            </Position>
            <AltitudeMeters>29</AltitudeMeters>
            <DistanceMeters>NAN</DistanceMeters>
          </Trackpoint>
          <Trackpoint>
            <Time>2022-07-06T16:48:22.000Z</Time>
            <Position>
              <LatitudeDegrees>43.85184061713516712188720703125</LatitudeDegrees>
              <LongitudeDegrees>-1.3478393666446208953857421875</LongitudeDegrees>
            </Position>
            <AltitudeMeters>29</AltitudeMeters>
            <DistanceMeters>NAN</DistanceMeters>
          </Trackpoint>
          <Trackpoint>
            <Time>2022-07-06T16:48:25.000Z</Time>
            <Position>
              <LatitudeDegrees>43.851749002933502197265625</LatitudeDegrees>
              <LongitudeDegrees>-1.3479751534759998321533203125</LongitudeDegrees>
            </Position>
            <AltitudeMeters>28.799999237060546875</AltitudeMeters>
            <DistanceMeters>NAN</DistanceMeters>
          </Trackpoint>
          <Trackpoint>
            <Time>2022-07-06T16:48:29.000Z</Time>
            <Position>
              <LatitudeDegrees>43.8516341708600521087646484375</LatitudeDegrees>
              <LongitudeDegrees>-1.3481548614799976348876953125</LongitudeDegrees>
            </Position>
            <AltitudeMeters>28.799999237060546875</AltitudeMeters>
            <DistanceMeters>NAN</DistanceMeters>
          </Trackpoint>
          <Trackpoint>
            <Time>2022-07-06T16:48:31.000Z</Time>
            <Position>
              <LatitudeDegrees>43.85156284086406230926513671875</LatitudeDegrees>
              <LongitudeDegrees>-1.34823440574109554290771484375</LongitudeDegrees>
            </Position>
            <AltitudeMeters>28.799999237060546875</AltitudeMeters>
            <DistanceMeters>NAN</DistanceMeters>
          </Trackpoint>
          <Trackpoint>
            <Time>2022-07-06T16:48:33.000Z</Time>
            <Position>
              <LatitudeDegrees>43.85151095688343048095703125</LatitudeDegrees>
              <LongitudeDegrees>-1.34833431802690029144287109375</LongitudeDegrees>
            </Position>
            <AltitudeMeters>28.799999237060546875</AltitudeMeters>
            <DistanceMeters>NAN</DistanceMeters>
          </Trackpoint>
          <Trackpoint>
            <Time>2022-07-06T16:48:36.000Z</Time>
            <Position>
              <LatitudeDegrees>43.85143275372684001922607421875</LatitudeDegrees>
              <LongitudeDegrees>-1.348482258617877960205078125</LongitudeDegrees>
            </Position>
            <AltitudeMeters>28.799999237060546875</AltitudeMeters>
            <DistanceMeters>NAN</DistanceMeters>
          </Trackpoint>
          <Trackpoint>
            <Time>2022-07-06T16:48:37.000Z</Time>
            <Position>
              <LatitudeDegrees>43.8514061830937862396240234375</LatitudeDegrees>
              <LongitudeDegrees>-1.3485337235033512115478515625</LongitudeDegrees>
            </Position>
            <AltitudeMeters>28.799999237060546875</AltitudeMeters>
            <DistanceMeters>NAN</DistanceMeters>
          </Trackpoint>
          <Trackpoint>
            <Time>2022-07-06T16:48:39.000Z</Time>
            <Position>
              <LatitudeDegrees>43.851347677409648895263671875</LatitudeDegrees>
              <LongitudeDegrees>-1.348631121218204498291015625</LongitudeDegrees>
            </Position>
            <AltitudeMeters>28.799999237060546875</AltitudeMeters>
            <DistanceMeters>NAN</DistanceMeters>
          </Trackpoint>
          <Trackpoint>
            <Time>2022-07-06T16:48:41.000Z</Time>
            <Position>
              <LatitudeDegrees>43.85129026137292385101318359375</LatitudeDegrees>
              <LongitudeDegrees>-1.3487313687801361083984375</LongitudeDegrees>
            </Position>
            <AltitudeMeters>28.6000003814697265625</AltitudeMeters>
            <DistanceMeters>NAN</DistanceMeters>
          </Trackpoint>
          <Trackpoint>
            <Time>2022-07-06T16:48:42.000Z</Time>
            <Position>
              <LatitudeDegrees>43.85125639848411083221435546875</LatitudeDegrees>
              <LongitudeDegrees>-1.34877705015242099761962890625</LongitudeDegrees>
            </Position>
            <AltitudeMeters>28.6000003814697265625</AltitudeMeters>
            <DistanceMeters>NAN</DistanceMeters>
          </Trackpoint>
          <Trackpoint>
            <Time>2022-07-06T16:48:44.000Z</Time>
            <Position>
              <LatitudeDegrees>43.85118146426975727081298828125</LatitudeDegrees>
              <LongitudeDegrees>-1.34888048283755779266357421875</LongitudeDegrees>
            </Position>
            <AltitudeMeters>28.6000003814697265625</AltitudeMeters>
            <DistanceMeters>NAN</DistanceMeters>
          </Trackpoint>
          <Trackpoint>
            <Time>2022-07-06T16:48:46.000Z</Time>
            <Position>
              <LatitudeDegrees>43.85111792944371700286865234375</LatitudeDegrees>
              <LongitudeDegrees>-1.34900067932903766632080078125</LongitudeDegrees>
            </Position>
            <AltitudeMeters>28.6000003814697265625</AltitudeMeters>
            <DistanceMeters>NAN</DistanceMeters>
          </Trackpoint>
          <Trackpoint>
            <Time>2022-07-06T16:48:47.000Z</Time>
            <Position>
              <LatitudeDegrees>43.8510905206203460693359375</LatitudeDegrees>
              <LongitudeDegrees>-1.34906488470733165740966796875</LongitudeDegrees>
            </Position>
            <AltitudeMeters>28.6000003814697265625</AltitudeMeters>
            <DistanceMeters>NAN</DistanceMeters>
          </Trackpoint>
          <Trackpoint>
            <Time>2022-07-06T16:48:49.000Z</Time>
            <Position>
              <LatitudeDegrees>43.85105791501700878143310546875</LatitudeDegrees>
              <LongitudeDegrees>-1.3491861708462238311767578125</LongitudeDegrees>
            </Position>
            <AltitudeMeters>28.6000003814697265625</AltitudeMeters>
            <DistanceMeters>NAN</DistanceMeters>
          </Trackpoint>
          <Trackpoint>
            <Time>2022-07-06T16:48:51.000Z</Time>
            <Position>
              <LatitudeDegrees>43.85102304629981517791748046875</LatitudeDegrees>
              <LongitudeDegrees>-1.34931483305990695953369140625</LongitudeDegrees>
            </Position>
            <AltitudeMeters>28.3999996185302734375</AltitudeMeters>
            <DistanceMeters>NAN</DistanceMeters>
          </Trackpoint>
          <Trackpoint>
            <Time>2022-07-06T16:48:54.000Z</Time>
            <Position>
              <LatitudeDegrees>43.85094635188579559326171875</LatitudeDegrees>
              <LongitudeDegrees>-1.3494590856134891510009765625</LongitudeDegrees>
            </Position>
            <AltitudeMeters>28.3999996185302734375</AltitudeMeters>
            <DistanceMeters>NAN</DistanceMeters>
          </Trackpoint>
          <Trackpoint>
            <Time>2022-07-06T16:49:02.000Z</Time>
            <Position>
              <LatitudeDegrees>43.85078734718263149261474609375</LatitudeDegrees>
              <LongitudeDegrees>-1.3498687930405139923095703125</LongitudeDegrees>
            </Position>
            <AltitudeMeters>28.3999996185302734375</AltitudeMeters>
            <DistanceMeters>NAN</DistanceMeters>
          </Trackpoint>
          <Trackpoint>
            <Time>2022-07-06T16:49:03.000Z</Time>
            <Position>
              <LatitudeDegrees>43.8507651351392269134521484375</LatitudeDegrees>
              <LongitudeDegrees>-1.3499197550117969512939453125</LongitudeDegrees>
            </Position>
            <AltitudeMeters>28.3999996185302734375</AltitudeMeters>
            <DistanceMeters>NAN</DistanceMeters>
          </Trackpoint>
          <Trackpoint>
            <Time>2022-07-06T16:49:04.000Z</Time>
            <Position>
              <LatitudeDegrees>43.85073789395391941070556640625</LatitudeDegrees>
              <LongitudeDegrees>-1.34997247718274593353271484375</LongitudeDegrees>
            </Position>
            <AltitudeMeters>28.3999996185302734375</AltitudeMeters>
            <DistanceMeters>NAN</DistanceMeters>
          </Trackpoint>
          <Trackpoint>
            <Time>2022-07-06T16:49:08.000Z</Time>
            <Position>
              <LatitudeDegrees>43.8506826572120189666748046875</LatitudeDegrees>
              <LongitudeDegrees>-1.3500692881643772125244140625</LongitudeDegrees>
            </Position>
            <AltitudeMeters>28</AltitudeMeters>
            <DistanceMeters>NAN</DistanceMeters>
          </Trackpoint>
          <Trackpoint>
            <Time>2022-07-06T16:49:10.000Z</Time>
            <Position>
              <LatitudeDegrees>43.8506826572120189666748046875</LatitudeDegrees>
              <LongitudeDegrees>-1.3500692881643772125244140625</LongitudeDegrees>
            </Position>
            <AltitudeMeters>28</AltitudeMeters>
            <DistanceMeters>NAN</DistanceMeters>
          </Trackpoint>
          <Trackpoint>
            <Time>2022-07-06T16:49:25.000Z</Time>
            <Position>
              <LatitudeDegrees>43.85066849179565906524658203125</LatitudeDegrees>
              <LongitudeDegrees>-1.3501081801950931549072265625</LongitudeDegrees>
            </Position>
            <AltitudeMeters>27.6000003814697265625</AltitudeMeters>
            <DistanceMeters>NAN</DistanceMeters>
          </Trackpoint>
          <Trackpoint>
            <Time>2022-07-06T16:49:27.000Z</Time>
            <Position>
              <LatitudeDegrees>43.85064887814223766326904296875</LatitudeDegrees>
              <LongitudeDegrees>-1.3501556217670440673828125</LongitudeDegrees>
            </Position>
            <AltitudeMeters>27.6000003814697265625</AltitudeMeters>
            <DistanceMeters>NAN</DistanceMeters>
          </Trackpoint>
          <Trackpoint>
            <Time>2022-07-06T16:49:30.000Z</Time>
            <Position>
              <LatitudeDegrees>43.8506176136434078216552734375</LatitudeDegrees>
              <LongitudeDegrees>-1.35023432783782482147216796875</LongitudeDegrees>
            </Position>
            <AltitudeMeters>27.3999996185302734375</AltitudeMeters>
            <DistanceMeters>NAN</DistanceMeters>
          </Trackpoint>
          <Trackpoint>
            <Time>2022-07-06T16:49:34.000Z</Time>
            <Position>
              <LatitudeDegrees>43.85061183013021945953369140625</LatitudeDegrees>
              <LongitudeDegrees>-1.35025008581578731536865234375</LongitudeDegrees>
            </Position>
            <AltitudeMeters>26.799999237060546875</AltitudeMeters>
            <DistanceMeters>NAN</DistanceMeters>
          </Trackpoint>
          <Trackpoint>
            <Time>2022-07-06T16:51:16.000Z</Time>
            <Position>
              <LatitudeDegrees>43.85064326226711273193359375</LatitudeDegrees>
              <LongitudeDegrees>-1.35020633228123188018798828125</LongitudeDegrees>
            </Position>
            <AltitudeMeters>26.3999996185302734375</AltitudeMeters>
            <DistanceMeters>NAN</DistanceMeters>
          </Trackpoint>
          <Trackpoint>
            <Time>2022-07-06T16:51:17.000Z</Time>
            <Position>
              <LatitudeDegrees>43.8506548292934894561767578125</LatitudeDegrees>
              <LongitudeDegrees>-1.350182108581066131591796875</LongitudeDegrees>
            </Position>
            <AltitudeMeters>26.3999996185302734375</AltitudeMeters>
            <DistanceMeters>NAN</DistanceMeters>
          </Trackpoint>
          <Trackpoint>
            <Time>2022-07-06T16:51:18.000Z</Time>
            <Position>
              <LatitudeDegrees>43.850663714110851287841796875</LatitudeDegrees>
              <LongitudeDegrees>-1.35015654377639293670654296875</LongitudeDegrees>
            </Position>
            <AltitudeMeters>26.3999996185302734375</AltitudeMeters>
            <DistanceMeters>NAN</DistanceMeters>
          </Trackpoint>
          <Trackpoint>
            <Time>2022-07-06T16:51:20.000Z</Time>
            <Position>
              <LatitudeDegrees>43.85069095529615879058837890625</LatitudeDegrees>
              <LongitudeDegrees>-1.3501155562698841094970703125</LongitudeDegrees>
            </Position>
            <AltitudeMeters>26.3999996185302734375</AltitudeMeters>
            <DistanceMeters>NAN</DistanceMeters>
          </Trackpoint>
          <Trackpoint>
            <Time>2022-07-06T16:51:22.000Z</Time>
            <Position>
              <LatitudeDegrees>43.8507138378918170928955078125</LatitudeDegrees>
              <LongitudeDegrees>-1.35012142360210418701171875</LongitudeDegrees>
            </Position>
            <AltitudeMeters>26.3999996185302734375</AltitudeMeters>
            <DistanceMeters>NAN</DistanceMeters>
          </Trackpoint>
          <Trackpoint>
            <Time>2022-07-06T16:51:23.000Z</Time>
            <Position>
              <LatitudeDegrees>43.8507202081382274627685546875</LatitudeDegrees>
              <LongitudeDegrees>-1.35013910941779613494873046875</LongitudeDegrees>
            </Position>
            <AltitudeMeters>26.3999996185302734375</AltitudeMeters>
            <DistanceMeters>NAN</DistanceMeters>
          </Trackpoint>
          <Trackpoint>
            <Time>2022-07-06T16:51:26.000Z</Time>
            <Position>
              <LatitudeDegrees>43.85072448290884494781494140625</LatitudeDegrees>
              <LongitudeDegrees>-1.3502456434071063995361328125</LongitudeDegrees>
            </Position>
            <AltitudeMeters>26.799999237060546875</AltitudeMeters>
            <DistanceMeters>NAN</DistanceMeters>
          </Trackpoint>
          <Trackpoint>
            <Time>2022-07-06T16:51:31.000Z</Time>
            <Position>
              <LatitudeDegrees>43.85078273713588714599609375</LatitudeDegrees>
              <LongitudeDegrees>-1.35048779658973217010498046875</LongitudeDegrees>
            </Position>
            <AltitudeMeters>27</AltitudeMeters>
            <DistanceMeters>NAN</DistanceMeters>
          </Trackpoint>
          <Trackpoint>
            <Time>2022-07-06T16:51:32.000Z</Time>
            <Position>
              <LatitudeDegrees>43.85079354979097843170166015625</LatitudeDegrees>
              <LongitudeDegrees>-1.3505386747419834136962890625</LongitudeDegrees>
            </Position>
            <AltitudeMeters>27</AltitudeMeters>
            <DistanceMeters>NAN</DistanceMeters>
          </Trackpoint>
          <Trackpoint>
            <Time>2022-07-06T16:51:38.000Z</Time>
            <Position>
              <LatitudeDegrees>43.85089094750583171844482421875</LatitudeDegrees>
              <LongitudeDegrees>-1.3507619686424732208251953125</LongitudeDegrees>
            </Position>
            <AltitudeMeters>26.6000003814697265625</AltitudeMeters>
            <DistanceMeters>NAN</DistanceMeters>
          </Trackpoint>
          <Trackpoint>
            <Time>2022-07-06T16:51:46.000Z</Time>
            <Position>
              <LatitudeDegrees>43.8510943762958049774169921875</LatitudeDegrees>
              <LongitudeDegrees>-1.35104871354997158050537109375</LongitudeDegrees>
            </Position>
            <AltitudeMeters>26.3999996185302734375</AltitudeMeters>
            <DistanceMeters>NAN</DistanceMeters>
          </Trackpoint>
          <Trackpoint>
            <Time>2022-07-06T16:51:48.000Z</Time>
            <Position>
              <LatitudeDegrees>43.8511584140360355377197265625</LatitudeDegrees>
              <LongitudeDegrees>-1.35112230665981769561767578125</LongitudeDegrees>
            </Position>
            <AltitudeMeters>26.6000003814697265625</AltitudeMeters>
            <DistanceMeters>NAN</DistanceMeters>
          </Trackpoint>
          <Trackpoint>
            <Time>2022-07-06T16:51:51.000Z</Time>
            <Position>
              <LatitudeDegrees>43.8512563146650791168212890625</LatitudeDegrees>
              <LongitudeDegrees>-1.35122976265847682952880859375</LongitudeDegrees>
            </Position>
            <AltitudeMeters>26.6000003814697265625</AltitudeMeters>
            <DistanceMeters>NAN</DistanceMeters>
          </Trackpoint>
          <Trackpoint>
            <Time>2022-07-06T16:51:57.000Z</Time>
            <Position>
              <LatitudeDegrees>43.851452954113483428955078125</LatitudeDegrees>
              <LongitudeDegrees>-1.3513778708875179290771484375</LongitudeDegrees>
            </Position>
            <AltitudeMeters>26.3999996185302734375</AltitudeMeters>
            <DistanceMeters>NAN</DistanceMeters>
          </Trackpoint>
          <Trackpoint>
            <Time>2022-07-06T16:51:58.000Z</Time>
            <Position>
              <LatitudeDegrees>43.85148547589778900146484375</LatitudeDegrees>
              <LongitudeDegrees>-1.3513906113803386688232421875</LongitudeDegrees>
            </Position>
            <AltitudeMeters>26.200000762939453125</AltitudeMeters>
            <DistanceMeters>NAN</DistanceMeters>
          </Trackpoint>
          <Trackpoint>
            <Time>2022-07-06T16:52:02.000Z</Time>
            <Position>
              <LatitudeDegrees>43.8516291417181491851806640625</LatitudeDegrees>
              <LongitudeDegrees>-1.351407207548618316650390625</LongitudeDegrees>
            </Position>
            <AltitudeMeters>25.6000003814697265625</AltitudeMeters>
            <DistanceMeters>NAN</DistanceMeters>
          </Trackpoint>
          <Trackpoint>
            <Time>2022-07-06T16:52:04.000Z</Time>
            <Position>
              <LatitudeDegrees>43.85168085806071758270263671875</LatitudeDegrees>
              <LongitudeDegrees>-1.3514439202845096588134765625</LongitudeDegrees>
            </Position>
            <AltitudeMeters>25.6000003814697265625</AltitudeMeters>
            <DistanceMeters>NAN</DistanceMeters>
          </Trackpoint>
          <Trackpoint>
            <Time>2022-07-06T16:52:06.000Z</Time>
            <Position>
              <LatitudeDegrees>43.85171924717724323272705078125</LatitudeDegrees>
              <LongitudeDegrees>-1.3515193574130535125732421875</LongitudeDegrees>
            </Position>
            <AltitudeMeters>26</AltitudeMeters>
            <DistanceMeters>NAN</DistanceMeters>
          </Trackpoint>
          <Trackpoint>
            <Time>2022-07-06T16:52:08.000Z</Time>
            <Position>
              <LatitudeDegrees>43.851740621030330657958984375</LatitudeDegrees>
              <LongitudeDegrees>-1.351611055433750152587890625</LongitudeDegrees>
            </Position>
            <AltitudeMeters>26.6000003814697265625</AltitudeMeters>
            <DistanceMeters>NAN</DistanceMeters>
          </Trackpoint>
          <Trackpoint>
            <Time>2022-07-06T16:52:13.000Z</Time>
            <Position>
              <LatitudeDegrees>43.8517986238002777099609375</LatitudeDegrees>
              <LongitudeDegrees>-1.3518066890537738800048828125</LongitudeDegrees>
            </Position>
            <AltitudeMeters>26</AltitudeMeters>
            <DistanceMeters>NAN</DistanceMeters>
          </Trackpoint>
          <Trackpoint>
            <Time>2022-07-06T16:52:14.000Z</Time>
            <Position>
              <LatitudeDegrees>43.85179468430578708648681640625</LatitudeDegrees>
              <LongitudeDegrees>-1.35183401405811309814453125</LongitudeDegrees>
            </Position>
            <AltitudeMeters>26</AltitudeMeters>
            <DistanceMeters>NAN</DistanceMeters>
          </Trackpoint>
          <Trackpoint>
            <Time>2022-07-06T16:52:16.000Z</Time>
            <Position>
              <LatitudeDegrees>43.85175361298024654388427734375</LatitudeDegrees>
              <LongitudeDegrees>-1.3518737442791461944580078125</LongitudeDegrees>
            </Position>
            <AltitudeMeters>25.6000003814697265625</AltitudeMeters>
            <DistanceMeters>NAN</DistanceMeters>
          </Trackpoint>
          <Trackpoint>
            <Time>2022-07-06T16:52:20.000Z</Time>
            <Position>
              <LatitudeDegrees>43.85164012201130390167236328125</LatitudeDegrees>
              <LongitudeDegrees>-1.35193887166678905487060546875</LongitudeDegrees>
            </Position>
            <AltitudeMeters>25.3999996185302734375</AltitudeMeters>
            <DistanceMeters>NAN</DistanceMeters>
          </Trackpoint>
          <Trackpoint>
            <Time>2022-07-06T16:52:23.000Z</Time>
            <Position>
              <LatitudeDegrees>43.85155177675187587738037109375</LatitudeDegrees>
              <LongitudeDegrees>-1.35196678340435028076171875</LongitudeDegrees>
            </Position>
            <AltitudeMeters>25.3999996185302734375</AltitudeMeters>
            <DistanceMeters>NAN</DistanceMeters>
          </Trackpoint>
          <Trackpoint>
            <Time>2022-07-06T16:52:28.000Z</Time>
            <Position>
              <LatitudeDegrees>43.851435519754886627197265625</LatitudeDegrees>
              <LongitudeDegrees>-1.35209125466644763946533203125</LongitudeDegrees>
            </Position>
            <AltitudeMeters>25.3999996185302734375</AltitudeMeters>
            <DistanceMeters>NAN</DistanceMeters>
          </Trackpoint>
          <Trackpoint>
            <Time>2022-07-06T16:52:33.000Z</Time>
            <Position>
              <LatitudeDegrees>43.85133585892617702484130859375</LatitudeDegrees>
              <LongitudeDegrees>-1.3522448949515819549560546875</LongitudeDegrees>
            </Position>
            <AltitudeMeters>25.3999996185302734375</AltitudeMeters>
            <DistanceMeters>NAN</DistanceMeters>
          </Trackpoint>
          <Trackpoint>
            <Time>2022-07-06T16:52:39.000Z</Time>
            <Position>
              <LatitudeDegrees>43.851200155913829803466796875</LatitudeDegrees>
              <LongitudeDegrees>-1.3524735532701015472412109375</LongitudeDegrees>
            </Position>
            <AltitudeMeters>25.3999996185302734375</AltitudeMeters>
            <DistanceMeters>NAN</DistanceMeters>
          </Trackpoint>
          <Trackpoint>
            <Time>2022-07-06T16:52:45.000Z</Time>
            <Position>
              <LatitudeDegrees>43.85105171240866184234619140625</LatitudeDegrees>
              <LongitudeDegrees>-1.35273884050548076629638671875</LongitudeDegrees>
            </Position>
            <AltitudeMeters>25.6000003814697265625</AltitudeMeters>
            <DistanceMeters>NAN</DistanceMeters>
          </Trackpoint>
          <Trackpoint>
            <Time>2022-07-06T16:52:48.000Z</Time>
            <Position>
              <LatitudeDegrees>43.8509934581816196441650390625</LatitudeDegrees>
              <LongitudeDegrees>-1.3528835959732532501220703125</LongitudeDegrees>
            </Position>
            <AltitudeMeters>25.799999237060546875</AltitudeMeters>
            <DistanceMeters>NAN</DistanceMeters>
          </Trackpoint>
          <Trackpoint>
            <Time>2022-07-06T16:52:50.000Z</Time>
            <Position>
              <LatitudeDegrees>43.8509575836360454559326171875</LatitudeDegrees>
              <LongitudeDegrees>-1.35298660956323146820068359375</LongitudeDegrees>
            </Position>
            <AltitudeMeters>25.799999237060546875</AltitudeMeters>
            <DistanceMeters>NAN</DistanceMeters>
          </Trackpoint>
          <Trackpoint>
            <Time>2022-07-06T16:52:52.000Z</Time>
            <Position>
              <LatitudeDegrees>43.85092246346175670623779296875</LatitudeDegrees>
              <LongitudeDegrees>-1.35309071280062198638916015625</LongitudeDegrees>
            </Position>
            <AltitudeMeters>25.799999237060546875</AltitudeMeters>
            <DistanceMeters>NAN</DistanceMeters>
          </Trackpoint>
          <Trackpoint>
            <Time>2022-07-06T16:52:53.000Z</Time>
            <Position>
              <LatitudeDegrees>43.85090737603604793548583984375</LatitudeDegrees>
              <LongitudeDegrees>-1.35314502753317356109619140625</LongitudeDegrees>
            </Position>
            <AltitudeMeters>25.799999237060546875</AltitudeMeters>
            <DistanceMeters>NAN</DistanceMeters>
          </Trackpoint>
          <Trackpoint>
            <Time>2022-07-06T16:52:57.000Z</Time>
            <Position>
              <LatitudeDegrees>43.85086161084473133087158203125</LatitudeDegrees>
              <LongitudeDegrees>-1.3533543236553668975830078125</LongitudeDegrees>
            </Position>
            <AltitudeMeters>25.799999237060546875</AltitudeMeters>
            <DistanceMeters>NAN</DistanceMeters>
          </Trackpoint>
          <Trackpoint>
            <Time>2022-07-06T16:52:58.000Z</Time>
            <Position>
              <LatitudeDegrees>43.85085121728479862213134765625</LatitudeDegrees>
              <LongitudeDegrees>-1.35340704582631587982177734375</LongitudeDegrees>
            </Position>
            <AltitudeMeters>25.799999237060546875</AltitudeMeters>
            <DistanceMeters>NAN</DistanceMeters>
          </Trackpoint>
          <Trackpoint>
            <Time>2022-07-06T16:53:01.000Z</Time>
            <Position>
              <LatitudeDegrees>43.85082699358463287353515625</LatitudeDegrees>
              <LongitudeDegrees>-1.3535662181675434112548828125</LongitudeDegrees>
            </Position>
            <AltitudeMeters>25.6000003814697265625</AltitudeMeters>
            <DistanceMeters>NAN</DistanceMeters>
          </Trackpoint>
          <Trackpoint>
            <Time>2022-07-06T16:53:06.000Z</Time>
            <Position>
              <LatitudeDegrees>43.85080712847411632537841796875</LatitudeDegrees>
              <LongitudeDegrees>-1.35382949374616146087646484375</LongitudeDegrees>
            </Position>
            <AltitudeMeters>25.200000762939453125</AltitudeMeters>
            <DistanceMeters>NAN</DistanceMeters>
          </Trackpoint>
          <Trackpoint>
            <Time>2022-07-06T16:53:11.000Z</Time>
            <Position>
              <LatitudeDegrees>43.85080025531351566314697265625</LatitudeDegrees>
              <LongitudeDegrees>-1.35411917231976985931396484375</LongitudeDegrees>
            </Position>
            <AltitudeMeters>25</AltitudeMeters>
            <DistanceMeters>NAN</DistanceMeters>
          </Trackpoint>
          <Trackpoint>
            <Time>2022-07-06T16:53:13.000Z</Time>
            <Position>
              <LatitudeDegrees>43.85079589672386646270751953125</LatitudeDegrees>
              <LongitudeDegrees>-1.3542334176599979400634765625</LongitudeDegrees>
            </Position>
            <AltitudeMeters>25</AltitudeMeters>
            <DistanceMeters>NAN</DistanceMeters>
          </Trackpoint>
          <Trackpoint>
            <Time>2022-07-06T16:53:15.000Z</Time>
            <Position>
              <LatitudeDegrees>43.85078935883939266204833984375</LatitudeDegrees>
              <LongitudeDegrees>-1.354342885315418243408203125</LongitudeDegrees>
            </Position>
            <AltitudeMeters>25</AltitudeMeters>
            <DistanceMeters>NAN</DistanceMeters>
          </Trackpoint>
          <Trackpoint>
            <Time>2022-07-06T16:53:19.000Z</Time>
            <Position>
              <LatitudeDegrees>43.85077544488012790679931640625</LatitudeDegrees>
              <LongitudeDegrees>-1.35456240735948085784912109375</LongitudeDegrees>
            </Position>
            <AltitudeMeters>25</AltitudeMeters>
            <DistanceMeters>NAN</DistanceMeters>
          </Trackpoint>
          <Trackpoint>
            <Time>2022-07-06T16:53:24.000Z</Time>
            <Position>
              <LatitudeDegrees>43.8508035242557525634765625</LatitudeDegrees>
              <LongitudeDegrees>-1.35482870042324066162109375</LongitudeDegrees>
            </Position>
            <AltitudeMeters>24.799999237060546875</AltitudeMeters>
            <DistanceMeters>NAN</DistanceMeters>
          </Trackpoint>
          <Trackpoint>
            <Time>2022-07-06T16:53:25.000Z</Time>
            <Position>
              <LatitudeDegrees>43.8508342020213603973388671875</LatitudeDegrees>
              <LongitudeDegrees>-1.35485460050404071807861328125</LongitudeDegrees>
            </Position>
            <AltitudeMeters>24.6000003814697265625</AltitudeMeters>
            <DistanceMeters>NAN</DistanceMeters>
          </Trackpoint>
          <Trackpoint>
            <Time>2022-07-06T16:53:29.000Z</Time>
            <Position>
              <LatitudeDegrees>43.85100645013153553009033203125</LatitudeDegrees>
              <LongitudeDegrees>-1.35484118945896625518798828125</LongitudeDegrees>
            </Position>
            <AltitudeMeters>24.200000762939453125</AltitudeMeters>
            <DistanceMeters>NAN</DistanceMeters>
          </Trackpoint>
          <Trackpoint>
            <Time>2022-07-06T16:53:30.000Z</Time>
            <Position>
              <LatitudeDegrees>43.85105003602802753448486328125</LatitudeDegrees>
              <LongitudeDegrees>-1.3548372499644756317138671875</LongitudeDegrees>
            </Position>
            <AltitudeMeters>24.200000762939453125</AltitudeMeters>
            <DistanceMeters>NAN</DistanceMeters>
          </Trackpoint>
          <Trackpoint>
            <Time>2022-07-06T16:53:33.000Z</Time>
            <Position>
              <LatitudeDegrees>43.85116386227309703826904296875</LatitudeDegrees>
              <LongitudeDegrees>-1.3548751361668109893798828125</LongitudeDegrees>
            </Position>
            <AltitudeMeters>24.200000762939453125</AltitudeMeters>
            <DistanceMeters>NAN</DistanceMeters>
          </Trackpoint>
          <Trackpoint>
            <Time>2022-07-06T16:53:36.000Z</Time>
            <Position>
              <LatitudeDegrees>43.85120241902768611907958984375</LatitudeDegrees>
              <LongitudeDegrees>-1.35501335375010967254638671875</LongitudeDegrees>
            </Position>
            <AltitudeMeters>24.3999996185302734375</AltitudeMeters>
            <DistanceMeters>NAN</DistanceMeters>
          </Trackpoint>
          <Trackpoint>
            <Time>2022-07-06T16:53:39.000Z</Time>
            <Position>
              <LatitudeDegrees>43.8512217812240123748779296875</LatitudeDegrees>
              <LongitudeDegrees>-1.355163641273975372314453125</LongitudeDegrees>
            </Position>
            <AltitudeMeters>24.3999996185302734375</AltitudeMeters>
            <DistanceMeters>NAN</DistanceMeters>
          </Trackpoint>
          <Trackpoint>
            <Time>2022-07-06T16:53:43.000Z</Time>
            <Position>
              <LatitudeDegrees>43.85119705460965633392333984375</LatitudeDegrees>
              <LongitudeDegrees>-1.355333626270294189453125</LongitudeDegrees>
            </Position>
            <AltitudeMeters>24.200000762939453125</AltitudeMeters>
            <DistanceMeters>NAN</DistanceMeters>
          </Trackpoint>
          <Trackpoint>
            <Time>2022-07-06T16:53:48.000Z</Time>
            <Position>
              <LatitudeDegrees>43.8510444201529026031494140625</LatitudeDegrees>
              <LongitudeDegrees>-1.3554746098816394805908203125</LongitudeDegrees>
            </Position>
            <AltitudeMeters>24.200000762939453125</AltitudeMeters>
            <DistanceMeters>NAN</DistanceMeters>
          </Trackpoint>
          <Trackpoint>
            <Time>2022-07-06T16:53:55.000Z</Time>
            <Position>
              <LatitudeDegrees>43.85080126114189624786376953125</LatitudeDegrees>
              <LongitudeDegrees>-1.35565741918981075286865234375</LongitudeDegrees>
            </Position>
            <AltitudeMeters>24.200000762939453125</AltitudeMeters>
            <DistanceMeters>NAN</DistanceMeters>
          </Trackpoint>
          <Trackpoint>
            <Time>2022-07-06T16:54:00.000Z</Time>
            <Position>
              <LatitudeDegrees>43.85068642906844615936279296875</LatitudeDegrees>
              <LongitudeDegrees>-1.3558048568665981292724609375</LongitudeDegrees>
            </Position>
            <AltitudeMeters>24.3999996185302734375</AltitudeMeters>
            <DistanceMeters>NAN</DistanceMeters>
          </Trackpoint>
          <Trackpoint>
            <Time>2022-07-06T16:54:04.000Z</Time>
            <Position>
              <LatitudeDegrees>43.850621469318866729736328125</LatitudeDegrees>
              <LongitudeDegrees>-1.35597727261483669281005859375</LongitudeDegrees>
            </Position>
            <AltitudeMeters>24.6000003814697265625</AltitudeMeters>
            <DistanceMeters>NAN</DistanceMeters>
          </Trackpoint>
          <Trackpoint>
            <Time>2022-07-06T16:54:05.000Z</Time>
            <Position>
              <LatitudeDegrees>43.85060864500701427459716796875</LatitudeDegrees>
              <LongitudeDegrees>-1.35602722875773906707763671875</LongitudeDegrees>
            </Position>
            <AltitudeMeters>24.6000003814697265625</AltitudeMeters>
            <DistanceMeters>NAN</DistanceMeters>
          </Trackpoint>
          <Trackpoint>
            <Time>2022-07-06T16:54:11.000Z</Time>
            <Position>
              <LatitudeDegrees>43.85057109408080577850341796875</LatitudeDegrees>
              <LongitudeDegrees>-1.35633476078510284423828125</LongitudeDegrees>
            </Position>
            <AltitudeMeters>24.6000003814697265625</AltitudeMeters>
            <DistanceMeters>NAN</DistanceMeters>
          </Trackpoint>
          <Trackpoint>
            <Time>2022-07-06T16:54:12.000Z</Time>
            <Position>
              <LatitudeDegrees>43.85058886371552944183349609375</LatitudeDegrees>
              <LongitudeDegrees>-1.35639511048793792724609375</LongitudeDegrees>
            </Position>
            <AltitudeMeters>24.6000003814697265625</AltitudeMeters>
            <DistanceMeters>NAN</DistanceMeters>
          </Trackpoint>
          <Trackpoint>
            <Time>2022-07-06T16:54:16.000Z</Time>
            <Position>
              <LatitudeDegrees>43.85059833526611328125</LatitudeDegrees>
              <LongitudeDegrees>-1.35660541243851184844970703125</LongitudeDegrees>
            </Position>
            <AltitudeMeters>24.200000762939453125</AltitudeMeters>
            <DistanceMeters>NAN</DistanceMeters>
          </Trackpoint>
          <Trackpoint>
            <Time>2022-07-06T16:54:21.000Z</Time>
            <Position>
              <LatitudeDegrees>43.85052901692688465118408203125</LatitudeDegrees>
              <LongitudeDegrees>-1.35676500387489795684814453125</LongitudeDegrees>
            </Position>
            <AltitudeMeters>24.200000762939453125</AltitudeMeters>
            <DistanceMeters>NAN</DistanceMeters>
          </Trackpoint>
          <Trackpoint>
            <Time>2022-07-06T16:54:27.000Z</Time>
            <Position>
              <LatitudeDegrees>43.85041116736829280853271484375</LatitudeDegrees>
              <LongitudeDegrees>-1.35680339299142360687255859375</LongitudeDegrees>
            </Position>
            <AltitudeMeters>23.6000003814697265625</AltitudeMeters>
            <DistanceMeters>NAN</DistanceMeters>
          </Trackpoint>
          <Trackpoint>
            <Time>2022-07-06T16:54:32.000Z</Time>
            <Position>
              <LatitudeDegrees>43.85037495754659175872802734375</LatitudeDegrees>
              <LongitudeDegrees>-1.356785707175731658935546875</LongitudeDegrees>
            </Position>
            <AltitudeMeters>23.3999996185302734375</AltitudeMeters>
            <DistanceMeters>NAN</DistanceMeters>
          </Trackpoint>
          <Trackpoint>
            <Time>2022-07-06T16:54:44.000Z</Time>
            <Position>
              <LatitudeDegrees>43.85041636414825916290283203125</LatitudeDegrees>
              <LongitudeDegrees>-1.356809176504611968994140625</LongitudeDegrees>
            </Position>
            <AltitudeMeters>23.3999996185302734375</AltitudeMeters>
            <DistanceMeters>NAN</DistanceMeters>
          </Trackpoint>
          <Trackpoint>
            <Time>2022-07-06T16:54:45.000Z</Time>
            <Position>
              <LatitudeDegrees>43.85042910464107990264892578125</LatitudeDegrees>
              <LongitudeDegrees>-1.35681043379008769989013671875</LongitudeDegrees>
            </Position>
            <AltitudeMeters>23.3999996185302734375</AltitudeMeters>
            <DistanceMeters>NAN</DistanceMeters>
          </Trackpoint>
          <Trackpoint>
            <Time>2022-07-06T16:54:47.000Z</Time>
            <Position>
              <LatitudeDegrees>43.85045072995126247406005859375</LatitudeDegrees>
              <LongitudeDegrees>-1.3568190671503543853759765625</LongitudeDegrees>
            </Position>
            <AltitudeMeters>23.3999996185302734375</AltitudeMeters>
            <DistanceMeters>NAN</DistanceMeters>
          </Trackpoint>
          <Trackpoint>
            <Time>2022-07-06T16:54:49.000Z</Time>
            <Position>
              <LatitudeDegrees>43.85045072995126247406005859375</LatitudeDegrees>
              <LongitudeDegrees>-1.3568190671503543853759765625</LongitudeDegrees>
            </Position>
            <AltitudeMeters>23.3999996185302734375</AltitudeMeters>
            <DistanceMeters>NAN</DistanceMeters>
          </Trackpoint>
          <Trackpoint>
            <Time>2022-07-06T16:55:16.000Z</Time>
            <Position>
              <LatitudeDegrees>43.85051895864307880401611328125</LatitudeDegrees>
              <LongitudeDegrees>-1.35683407075703144073486328125</LongitudeDegrees>
            </Position>
            <AltitudeMeters>23</AltitudeMeters>
            <DistanceMeters>NAN</DistanceMeters>
          </Trackpoint>
          <Trackpoint>
            <Time>2022-07-06T16:55:17.000Z</Time>
            <Position>
              <LatitudeDegrees>43.85054293088614940643310546875</LatitudeDegrees>
              <LongitudeDegrees>-1.35686189867556095123291015625</LongitudeDegrees>
            </Position>
            <AltitudeMeters>23</AltitudeMeters>
            <DistanceMeters>NAN</DistanceMeters>
          </Trackpoint>
          <Trackpoint>
            <Time>2022-07-06T16:55:21.000Z</Time>
            <Position>
              <LatitudeDegrees>43.85060261003673076629638671875</LatitudeDegrees>
              <LongitudeDegrees>-1.35703305713832378387451171875</LongitudeDegrees>
            </Position>
            <AltitudeMeters>23.3999996185302734375</AltitudeMeters>
            <DistanceMeters>NAN</DistanceMeters>
          </Trackpoint>
          <Trackpoint>
            <Time>2022-07-06T16:55:27.000Z</Time>
            <Position>
              <LatitudeDegrees>43.85068274103105068206787109375</LatitudeDegrees>
              <LongitudeDegrees>-1.35737034492194652557373046875</LongitudeDegrees>
            </Position>
            <AltitudeMeters>23</AltitudeMeters>
            <DistanceMeters>NAN</DistanceMeters>
          </Trackpoint>
          <Trackpoint>
            <Time>2022-07-06T16:55:36.000Z</Time>
            <Position>
              <LatitudeDegrees>43.8508040271699428558349609375</LatitudeDegrees>
              <LongitudeDegrees>-1.35783503763377666473388671875</LongitudeDegrees>
            </Position>
            <AltitudeMeters>22.6000003814697265625</AltitudeMeters>
            <DistanceMeters>NAN</DistanceMeters>
          </Trackpoint>
          <Trackpoint>
            <Time>2022-07-06T16:55:43.000Z</Time>
            <Position>
              <LatitudeDegrees>43.85091341100633144378662109375</LatitudeDegrees>
              <LongitudeDegrees>-1.358138881623744964599609375</LongitudeDegrees>
            </Position>
            <AltitudeMeters>22.200000762939453125</AltitudeMeters>
            <DistanceMeters>NAN</DistanceMeters>
          </Trackpoint>
          <Trackpoint>
            <Time>2022-07-06T16:55:46.000Z</Time>
            <Position>
              <LatitudeDegrees>43.85095976293087005615234375</LatitudeDegrees>
              <LongitudeDegrees>-1.3582734949886798858642578125</LongitudeDegrees>
            </Position>
            <AltitudeMeters>22.200000762939453125</AltitudeMeters>
            <DistanceMeters>NAN</DistanceMeters>
          </Trackpoint>
          <Trackpoint>
            <Time>2022-07-06T16:55:49.000Z</Time>
            <Position>
              <LatitudeDegrees>43.8510075397789478302001953125</LatitudeDegrees>
              <LongitudeDegrees>-1.3584106229245662689208984375</LongitudeDegrees>
            </Position>
            <AltitudeMeters>22.3999996185302734375</AltitudeMeters>
            <DistanceMeters>NAN</DistanceMeters>
          </Trackpoint>
          <Trackpoint>
            <Time>2022-07-06T16:55:50.000Z</Time>
            <Position>
              <LatitudeDegrees>43.85102371685206890106201171875</LatitudeDegrees>
              <LongitudeDegrees>-1.35845630429685115814208984375</LongitudeDegrees>
            </Position>
            <AltitudeMeters>22.3999996185302734375</AltitudeMeters>
            <DistanceMeters>NAN</DistanceMeters>
          </Trackpoint>
          <Trackpoint>
            <Time>2022-07-06T16:55:54.000Z</Time>
            <Position>
              <LatitudeDegrees>43.85109848342835903167724609375</LatitudeDegrees>
              <LongitudeDegrees>-1.35863400064408779144287109375</LongitudeDegrees>
            </Position>
            <AltitudeMeters>22.3999996185302734375</AltitudeMeters>
            <DistanceMeters>NAN</DistanceMeters>
          </Trackpoint>
          <Trackpoint>
            <Time>2022-07-06T16:55:55.000Z</Time>
            <Position>
              <LatitudeDegrees>43.85111390613019466400146484375</LatitudeDegrees>
              <LongitudeDegrees>-1.35868060402572154998779296875</LongitudeDegrees>
            </Position>
            <AltitudeMeters>22.3999996185302734375</AltitudeMeters>
            <DistanceMeters>NAN</DistanceMeters>
          </Trackpoint>
          <Trackpoint>
            <Time>2022-07-06T16:55:56.000Z</Time>
            <Position>
              <LatitudeDegrees>43.851141147315502166748046875</LatitudeDegrees>
              <LongitudeDegrees>-1.358738355338573455810546875</LongitudeDegrees>
            </Position>
            <AltitudeMeters>22.3999996185302734375</AltitudeMeters>
            <DistanceMeters>NAN</DistanceMeters>
          </Trackpoint>
          <Trackpoint>
            <Time>2022-07-06T16:55:57.000Z</Time>
            <Position>
              <LatitudeDegrees>43.85116503573954105377197265625</LatitudeDegrees>
              <LongitudeDegrees>-1.35878688655793666839599609375</LongitudeDegrees>
            </Position>
            <AltitudeMeters>22.200000762939453125</AltitudeMeters>
            <DistanceMeters>NAN</DistanceMeters>
          </Trackpoint>
          <Trackpoint>
            <Time>2022-07-06T16:55:59.000Z</Time>
            <Position>
              <LatitudeDegrees>43.851205520331859588623046875</LatitudeDegrees>
              <LongitudeDegrees>-1.35889300145208835601806640625</LongitudeDegrees>
            </Position>
            <AltitudeMeters>22.200000762939453125</AltitudeMeters>
            <DistanceMeters>NAN</DistanceMeters>
          </Trackpoint>
          <Trackpoint>
            <Time>2022-07-06T16:56:01.000Z</Time>
            <Position>
              <LatitudeDegrees>43.851241730153560638427734375</LatitudeDegrees>
              <LongitudeDegrees>-1.3589862920343875885009765625</LongitudeDegrees>
            </Position>
            <AltitudeMeters>22.3999996185302734375</AltitudeMeters>
            <DistanceMeters>NAN</DistanceMeters>
          </Trackpoint>
          <Trackpoint>
            <Time>2022-07-06T16:56:03.000Z</Time>
            <Position>
              <LatitudeDegrees>43.85127617977559566497802734375</LatitudeDegrees>
              <LongitudeDegrees>-1.35908159427344799041748046875</LongitudeDegrees>
            </Position>
            <AltitudeMeters>22.6000003814697265625</AltitudeMeters>
            <DistanceMeters>NAN</DistanceMeters>
          </Trackpoint>
          <Trackpoint>
            <Time>2022-07-06T16:56:05.000Z</Time>
            <Position>
              <LatitudeDegrees>43.85130451060831546783447265625</LatitudeDegrees>
              <LongitudeDegrees>-1.35918050073087215423583984375</LongitudeDegrees>
            </Position>
            <AltitudeMeters>22.799999237060546875</AltitudeMeters>
            <DistanceMeters>NAN</DistanceMeters>
          </Trackpoint>
          <Trackpoint>
            <Time>2022-07-06T16:56:12.000Z</Time>
            <Position>
              <LatitudeDegrees>43.8514316640794277191162109375</LatitudeDegrees>
              <LongitudeDegrees>-1.35950555093586444854736328125</LongitudeDegrees>
            </Position>
            <AltitudeMeters>22.3999996185302734375</AltitudeMeters>
            <DistanceMeters>NAN</DistanceMeters>
          </Trackpoint>
          <Trackpoint>
            <Time>2022-07-06T16:56:17.000Z</Time>
            <Position>
              <LatitudeDegrees>43.851560913026332855224609375</LatitudeDegrees>
              <LongitudeDegrees>-1.35966061614453792572021484375</LongitudeDegrees>
            </Position>
            <AltitudeMeters>22.200000762939453125</AltitudeMeters>
            <DistanceMeters>NAN</DistanceMeters>
          </Trackpoint>
          <Trackpoint>
            <Time>2022-07-06T16:56:21.000Z</Time>
            <Position>
              <LatitudeDegrees>43.85158647783100605010986328125</LatitudeDegrees>
              <LongitudeDegrees>-1.3598348759114742279052734375</LongitudeDegrees>
            </Position>
            <AltitudeMeters>22</AltitudeMeters>
            <DistanceMeters>NAN</DistanceMeters>
          </Trackpoint>
          <Trackpoint>
            <Time>2022-07-06T16:56:23.000Z</Time>
            <Position>
              <LatitudeDegrees>43.85158312506973743438720703125</LatitudeDegrees>
              <LongitudeDegrees>-1.35991442017257213592529296875</LongitudeDegrees>
            </Position>
            <AltitudeMeters>21.799999237060546875</AltitudeMeters>
            <DistanceMeters>NAN</DistanceMeters>
          </Trackpoint>
          <Trackpoint>
            <Time>2022-07-06T16:56:26.000Z</Time>
            <Position>
              <LatitudeDegrees>43.85160860605537891387939453125</LatitudeDegrees>
              <LongitudeDegrees>-1.36002338491380214691162109375</LongitudeDegrees>
            </Position>
            <AltitudeMeters>21.799999237060546875</AltitudeMeters>
            <DistanceMeters>NAN</DistanceMeters>
          </Trackpoint>
          <Trackpoint>
            <Time>2022-07-06T16:56:32.000Z</Time>
            <Position>
              <LatitudeDegrees>43.85169628076255321502685546875</LatitudeDegrees>
              <LongitudeDegrees>-1.36030040681362152099609375</LongitudeDegrees>
            </Position>
            <AltitudeMeters>21.799999237060546875</AltitudeMeters>
            <DistanceMeters>NAN</DistanceMeters>
          </Trackpoint>
          <Trackpoint>
            <Time>2022-07-06T16:56:38.000Z</Time>
            <Position>
              <LatitudeDegrees>43.8517986238002777099609375</LatitudeDegrees>
              <LongitudeDegrees>-1.360601484775543212890625</LongitudeDegrees>
            </Position>
            <AltitudeMeters>21.6000003814697265625</AltitudeMeters>
            <DistanceMeters>NAN</DistanceMeters>
          </Trackpoint>
          <Trackpoint>
            <Time>2022-07-06T16:56:39.000Z</Time>
            <Position>
              <LatitudeDegrees>43.85181010700762271881103515625</LatitudeDegrees>
              <LongitudeDegrees>-1.3606479205191135406494140625</LongitudeDegrees>
            </Position>
            <AltitudeMeters>21.6000003814697265625</AltitudeMeters>
            <DistanceMeters>NAN</DistanceMeters>
          </Trackpoint>
          <Trackpoint>
            <Time>2022-07-06T16:56:46.000Z</Time>
            <Position>
              <LatitudeDegrees>43.851931057870388031005859375</LatitudeDegrees>
              <LongitudeDegrees>-1.36102653108537197113037109375</LongitudeDegrees>
            </Position>
            <AltitudeMeters>21.3999996185302734375</AltitudeMeters>
            <DistanceMeters>NAN</DistanceMeters>
          </Trackpoint>
          <Trackpoint>
            <Time>2022-07-06T16:56:47.000Z</Time>
            <Position>
              <LatitudeDegrees>43.85194555856287479400634765625</LatitudeDegrees>
              <LongitudeDegrees>-1.3610794208943843841552734375</LongitudeDegrees>
            </Position>
            <AltitudeMeters>21.3999996185302734375</AltitudeMeters>
            <DistanceMeters>NAN</DistanceMeters>
          </Trackpoint>
          <Trackpoint>
            <Time>2022-07-06T16:56:49.000Z</Time>
            <Position>
              <LatitudeDegrees>43.85197757743299007415771484375</LatitudeDegrees>
              <LongitudeDegrees>-1.36118075810372829437255859375</LongitudeDegrees>
            </Position>
            <AltitudeMeters>21.3999996185302734375</AltitudeMeters>
            <DistanceMeters>NAN</DistanceMeters>
          </Trackpoint>
          <Trackpoint>
            <Time>2022-07-06T16:56:52.000Z</Time>
            <Position>
              <LatitudeDegrees>43.85203340090811252593994140625</LatitudeDegrees>
              <LongitudeDegrees>-1.3613292016088962554931640625</LongitudeDegrees>
            </Position>
            <AltitudeMeters>21.3999996185302734375</AltitudeMeters>
            <DistanceMeters>NAN</DistanceMeters>
          </Trackpoint>
          <Trackpoint>
            <Time>2022-07-06T16:56:59.000Z</Time>
            <Position>
              <LatitudeDegrees>43.85214622132480144500732421875</LatitudeDegrees>
              <LongitudeDegrees>-1.36168199591338634490966796875</LongitudeDegrees>
            </Position>
            <AltitudeMeters>21.200000762939453125</AltitudeMeters>
            <DistanceMeters>NAN</DistanceMeters>
          </Trackpoint>
          <Trackpoint>
            <Time>2022-07-06T16:57:00.000Z</Time>
            <Position>
              <LatitudeDegrees>43.85216767899692058563232421875</LatitudeDegrees>
              <LongitudeDegrees>-1.36173832230269908905029296875</LongitudeDegrees>
            </Position>
            <AltitudeMeters>21.200000762939453125</AltitudeMeters>
            <DistanceMeters>NAN</DistanceMeters>
          </Trackpoint>
          <Trackpoint>
            <Time>2022-07-06T16:57:05.000Z</Time>
            <Position>
              <LatitudeDegrees>43.85225334204733371734619140625</LatitudeDegrees>
              <LongitudeDegrees>-1.3620336167514324188232421875</LongitudeDegrees>
            </Position>
            <AltitudeMeters>21</AltitudeMeters>
            <DistanceMeters>NAN</DistanceMeters>
          </Trackpoint>
          <Trackpoint>
            <Time>2022-07-06T16:57:08.000Z</Time>
            <Position>
              <LatitudeDegrees>43.8522836007177829742431640625</LatitudeDegrees>
              <LongitudeDegrees>-1.3622067868709564208984375</LongitudeDegrees>
            </Position>
            <AltitudeMeters>21</AltitudeMeters>
            <DistanceMeters>NAN</DistanceMeters>
          </Trackpoint>
          <Trackpoint>
            <Time>2022-07-06T16:57:13.000Z</Time>
            <Position>
              <LatitudeDegrees>43.85233615525066852569580078125</LatitudeDegrees>
              <LongitudeDegrees>-1.362497806549072265625</LongitudeDegrees>
            </Position>
            <AltitudeMeters>20.799999237060546875</AltitudeMeters>
            <DistanceMeters>NAN</DistanceMeters>
          </Trackpoint>
          <Trackpoint>
            <Time>2022-07-06T16:57:17.000Z</Time>
            <Position>
              <LatitudeDegrees>43.852359540760517120361328125</LatitudeDegrees>
              <LongitudeDegrees>-1.3627112098038196563720703125</LongitudeDegrees>
            </Position>
            <AltitudeMeters>20.799999237060546875</AltitudeMeters>
            <DistanceMeters>NAN</DistanceMeters>
          </Trackpoint>
          <Trackpoint>
            <Time>2022-07-06T16:57:23.000Z</Time>
            <Position>
              <LatitudeDegrees>43.8523452915251255035400390625</LatitudeDegrees>
              <LongitudeDegrees>-1.3630129583179950714111328125</LongitudeDegrees>
            </Position>
            <AltitudeMeters>20.799999237060546875</AltitudeMeters>
            <DistanceMeters>NAN</DistanceMeters>
          </Trackpoint>
          <Trackpoint>
            <Time>2022-07-06T16:57:24.000Z</Time>
            <Position>
              <LatitudeDegrees>43.85234101675450801849365234375</LatitudeDegrees>
              <LongitudeDegrees>-1.36306283064186573028564453125</LongitudeDegrees>
            </Position>
            <AltitudeMeters>20.799999237060546875</AltitudeMeters>
            <DistanceMeters>NAN</DistanceMeters>
          </Trackpoint>
          <Trackpoint>
            <Time>2022-07-06T16:57:30.000Z</Time>
            <Position>
              <LatitudeDegrees>43.852304555475711822509765625</LatitudeDegrees>
              <LongitudeDegrees>-1.36336977593600749969482421875</LongitudeDegrees>
            </Position>
            <AltitudeMeters>20.799999237060546875</AltitudeMeters>
            <DistanceMeters>NAN</DistanceMeters>
          </Trackpoint>
          <Trackpoint>
            <Time>2022-07-06T16:57:40.000Z</Time>
            <Position>
              <LatitudeDegrees>43.85230430401861667633056640625</LatitudeDegrees>
              <LongitudeDegrees>-1.364033035933971405029296875</LongitudeDegrees>
            </Position>
            <AltitudeMeters>20.3999996185302734375</AltitudeMeters>
            <DistanceMeters>NAN</DistanceMeters>
          </Trackpoint>
          <Trackpoint>
            <Time>2022-07-06T16:57:43.000Z</Time>
            <Position>
              <LatitudeDegrees>43.852291144430637359619140625</LatitudeDegrees>
              <LongitudeDegrees>-1.3642291724681854248046875</LongitudeDegrees>
            </Position>
            <AltitudeMeters>19.799999237060546875</AltitudeMeters>
            <DistanceMeters>NAN</DistanceMeters>
          </Trackpoint>
          <Trackpoint>
            <Time>2022-07-06T16:57:46.000Z</Time>
            <Position>
              <LatitudeDegrees>43.85225820355117321014404296875</LatitudeDegrees>
              <LongitudeDegrees>-1.364395804703235626220703125</LongitudeDegrees>
            </Position>
            <AltitudeMeters>19.6000003814697265625</AltitudeMeters>
            <DistanceMeters>NAN</DistanceMeters>
          </Trackpoint>
          <Trackpoint>
            <Time>2022-07-06T16:57:47.000Z</Time>
            <Position>
              <LatitudeDegrees>43.85224630124866962432861328125</LatitudeDegrees>
              <LongitudeDegrees>-1.36444651521742343902587890625</LongitudeDegrees>
            </Position>
            <AltitudeMeters>19.6000003814697265625</AltitudeMeters>
            <DistanceMeters>NAN</DistanceMeters>
          </Trackpoint>
          <Trackpoint>
            <Time>2022-07-06T16:57:50.000Z</Time>
            <Position>
              <LatitudeDegrees>43.85221461765468120574951171875</LatitudeDegrees>
              <LongitudeDegrees>-1.36460241861641407012939453125</LongitudeDegrees>
            </Position>
            <AltitudeMeters>19.6000003814697265625</AltitudeMeters>
            <DistanceMeters>NAN</DistanceMeters>
          </Trackpoint>
          <Trackpoint>
            <Time>2022-07-06T16:57:53.000Z</Time>
            <Position>
              <LatitudeDegrees>43.8521977700293064117431640625</LatitudeDegrees>
              <LongitudeDegrees>-1.36475614272058010101318359375</LongitudeDegrees>
            </Position>
            <AltitudeMeters>19.6000003814697265625</AltitudeMeters>
            <DistanceMeters>NAN</DistanceMeters>
          </Trackpoint>
          <Trackpoint>
            <Time>2022-07-06T16:57:54.000Z</Time>
            <Position>
              <LatitudeDegrees>43.8521940819919109344482421875</LatitudeDegrees>
              <LongitudeDegrees>-1.36482235975563526153564453125</LongitudeDegrees>
            </Position>
            <AltitudeMeters>19.799999237060546875</AltitudeMeters>
            <DistanceMeters>NAN</DistanceMeters>
          </Trackpoint>
          <Trackpoint>
            <Time>2022-07-06T16:57:58.000Z</Time>
            <Position>
              <LatitudeDegrees>43.85217539034783840179443359375</LatitudeDegrees>
              <LongitudeDegrees>-1.36500894092023372650146484375</LongitudeDegrees>
            </Position>
            <AltitudeMeters>19.799999237060546875</AltitudeMeters>
            <DistanceMeters>NAN</DistanceMeters>
          </Trackpoint>
          <Trackpoint>
            <Time>2022-07-06T16:57:59.000Z</Time>
            <Position>
              <LatitudeDegrees>43.85218511335551738739013671875</LatitudeDegrees>
              <LongitudeDegrees>-1.36505772359669208526611328125</LongitudeDegrees>
            </Position>
            <AltitudeMeters>19.799999237060546875</AltitudeMeters>
            <DistanceMeters>NAN</DistanceMeters>
          </Trackpoint>
          <Trackpoint>
            <Time>2022-07-06T16:58:03.000Z</Time>
            <Position>
              <LatitudeDegrees>43.85222149081528186798095703125</LatitudeDegrees>
              <LongitudeDegrees>-1.36529266834259033203125</LongitudeDegrees>
            </Position>
            <AltitudeMeters>19.799999237060546875</AltitudeMeters>
            <DistanceMeters>NAN</DistanceMeters>
          </Trackpoint>
          <Trackpoint>
            <Time>2022-07-06T16:58:05.000Z</Time>
            <Position>
              <LatitudeDegrees>43.85224998928606510162353515625</LatitudeDegrees>
              <LongitudeDegrees>-1.3654267787933349609375</LongitudeDegrees>
            </Position>
            <AltitudeMeters>19.799999237060546875</AltitudeMeters>
            <DistanceMeters>NAN</DistanceMeters>
          </Trackpoint>
          <Trackpoint>
            <Time>2022-07-06T16:58:12.000Z</Time>
            <Position>
              <LatitudeDegrees>43.8523912243545055389404296875</LatitudeDegrees>
              <LongitudeDegrees>-1.36586003936827182769775390625</LongitudeDegrees>
            </Position>
            <AltitudeMeters>20</AltitudeMeters>
            <DistanceMeters>NAN</DistanceMeters>
          </Trackpoint>
          <Trackpoint>
            <Time>2022-07-06T16:58:21.000Z</Time>
            <Position>
              <LatitudeDegrees>43.8525716029107570648193359375</LatitudeDegrees>
              <LongitudeDegrees>-1.36635675095021724700927734375</LongitudeDegrees>
            </Position>
            <AltitudeMeters>20.6000003814697265625</AltitudeMeters>
            <DistanceMeters>NAN</DistanceMeters>
          </Trackpoint>
          <Trackpoint>
            <Time>2022-07-06T16:58:26.000Z</Time>
            <Position>
              <LatitudeDegrees>43.85265550576150417327880859375</LatitudeDegrees>
              <LongitudeDegrees>-1.366593874990940093994140625</LongitudeDegrees>
            </Position>
            <AltitudeMeters>20.799999237060546875</AltitudeMeters>
            <DistanceMeters>NAN</DistanceMeters>
          </Trackpoint>
          <Trackpoint>
            <Time>2022-07-06T16:58:28.000Z</Time>
            <Position>
              <LatitudeDegrees>43.85269138030707836151123046875</LatitudeDegrees>
              <LongitudeDegrees>-1.366683728992938995361328125</LongitudeDegrees>
            </Position>
            <AltitudeMeters>20.6000003814697265625</AltitudeMeters>
            <DistanceMeters>NAN</DistanceMeters>
          </Trackpoint>
          <Trackpoint>
            <Time>2022-07-06T16:58:33.000Z</Time>
            <Position>
              <LatitudeDegrees>43.85273479856550693511962890625</LatitudeDegrees>
              <LongitudeDegrees>-1.36686167679727077484130859375</LongitudeDegrees>
            </Position>
            <AltitudeMeters>20.3999996185302734375</AltitudeMeters>
            <DistanceMeters>NAN</DistanceMeters>
          </Trackpoint>
          <Trackpoint>
            <Time>2022-07-06T16:58:38.000Z</Time>
            <Position>
              <LatitudeDegrees>43.8527630455791950225830078125</LatitudeDegrees>
              <LongitudeDegrees>-1.36690123938024044036865234375</LongitudeDegrees>
            </Position>
            <AltitudeMeters>20.200000762939453125</AltitudeMeters>
            <DistanceMeters>NAN</DistanceMeters>
          </Trackpoint>
          <Trackpoint>
            <Time>2022-07-06T16:58:39.000Z</Time>
            <Position>
              <LatitudeDegrees>43.8527630455791950225830078125</LatitudeDegrees>
              <LongitudeDegrees>-1.36690123938024044036865234375</LongitudeDegrees>
            </Position>
            <AltitudeMeters>20.200000762939453125</AltitudeMeters>
            <DistanceMeters>NAN</DistanceMeters>
          </Trackpoint>
          <Trackpoint>
            <Time>2022-07-06T16:59:42.000Z</Time>
            <Position>
              <LatitudeDegrees>43.8527586869895458221435546875</LatitudeDegrees>
              <LongitudeDegrees>-1.3668927736580371856689453125</LongitudeDegrees>
            </Position>
            <AltitudeMeters>20.799999237060546875</AltitudeMeters>
            <DistanceMeters>NAN</DistanceMeters>
          </Trackpoint>
          <Trackpoint>
            <Time>2022-07-06T16:59:43.000Z</Time>
            <Position>
              <LatitudeDegrees>43.852753154933452606201171875</LatitudeDegrees>
              <LongitudeDegrees>-1.36686570011079311370849609375</LongitudeDegrees>
            </Position>
            <AltitudeMeters>21</AltitudeMeters>
            <DistanceMeters>NAN</DistanceMeters>
          </Trackpoint>
          <Trackpoint>
            <Time>2022-07-06T16:59:45.000Z</Time>
            <Position>
              <LatitudeDegrees>43.85273949243128299713134765625</LatitudeDegrees>
              <LongitudeDegrees>-1.366806440055370330810546875</LongitudeDegrees>
            </Position>
            <AltitudeMeters>21</AltitudeMeters>
            <DistanceMeters>NAN</DistanceMeters>
          </Trackpoint>
          <Trackpoint>
            <Time>2022-07-06T16:59:51.000Z</Time>
            <Position>
              <LatitudeDegrees>43.85264578275382518768310546875</LatitudeDegrees>
              <LongitudeDegrees>-1.36656948365271091461181640625</LongitudeDegrees>
            </Position>
            <AltitudeMeters>21</AltitudeMeters>
            <DistanceMeters>NAN</DistanceMeters>
          </Trackpoint>
          <Trackpoint>
            <Time>2022-07-06T16:59:58.000Z</Time>
            <Position>
              <LatitudeDegrees>43.852511756122112274169921875</LatitudeDegrees>
              <LongitudeDegrees>-1.36625734157860279083251953125</LongitudeDegrees>
            </Position>
            <AltitudeMeters>21</AltitudeMeters>
            <DistanceMeters>NAN</DistanceMeters>
          </Trackpoint>
          <Trackpoint>
            <Time>2022-07-06T17:00:03.000Z</Time>
            <Position>
              <LatitudeDegrees>43.8523965887725353240966796875</LatitudeDegrees>
              <LongitudeDegrees>-1.36604846455156803131103515625</LongitudeDegrees>
            </Position>
            <AltitudeMeters>21.200000762939453125</AltitudeMeters>
            <DistanceMeters>NAN</DistanceMeters>
          </Trackpoint>
          <Trackpoint>
            <Time>2022-07-06T17:00:06.000Z</Time>
            <Position>
              <LatitudeDegrees>43.852347470819950103759765625</LatitudeDegrees>
              <LongitudeDegrees>-1.36589608155190944671630859375</LongitudeDegrees>
            </Position>
            <AltitudeMeters>21.3999996185302734375</AltitudeMeters>
            <DistanceMeters>NAN</DistanceMeters>
          </Trackpoint>
          <Trackpoint>
            <Time>2022-07-06T17:00:08.000Z</Time>
            <Position>
              <LatitudeDegrees>43.85231788270175457000732421875</LatitudeDegrees>
              <LongitudeDegrees>-1.36578627862036228179931640625</LongitudeDegrees>
            </Position>
            <AltitudeMeters>21.3999996185302734375</AltitudeMeters>
            <DistanceMeters>NAN</DistanceMeters>
          </Trackpoint>
          <Trackpoint>
            <Time>2022-07-06T17:00:11.000Z</Time>
            <Position>
              <LatitudeDegrees>43.85227228514850139617919921875</LatitudeDegrees>
              <LongitudeDegrees>-1.36561118066310882568359375</LongitudeDegrees>
            </Position>
            <AltitudeMeters>21.3999996185302734375</AltitudeMeters>
            <DistanceMeters>NAN</DistanceMeters>
          </Trackpoint>
          <Trackpoint>
            <Time>2022-07-06T17:00:14.000Z</Time>
            <Position>
              <LatitudeDegrees>43.85225434787571430206298828125</LatitudeDegrees>
              <LongitudeDegrees>-1.365482099354267120361328125</LongitudeDegrees>
            </Position>
            <AltitudeMeters>21.200000762939453125</AltitudeMeters>
            <DistanceMeters>NAN</DistanceMeters>
          </Trackpoint>
          <Trackpoint>
            <Time>2022-07-06T17:00:15.000Z</Time>
            <Position>
              <LatitudeDegrees>43.85224009864032268524169921875</LatitudeDegrees>
              <LongitudeDegrees>-1.3654598034918308258056640625</LongitudeDegrees>
            </Position>
            <AltitudeMeters>21.200000762939453125</AltitudeMeters>
            <DistanceMeters>NAN</DistanceMeters>
          </Trackpoint>
          <Trackpoint>
            <Time>2022-07-06T17:00:17.000Z</Time>
            <Position>
              <LatitudeDegrees>43.8522178865969181060791015625</LatitudeDegrees>
              <LongitudeDegrees>-1.36544966138899326324462890625</LongitudeDegrees>
            </Position>
            <AltitudeMeters>21</AltitudeMeters>
            <DistanceMeters>NAN</DistanceMeters>
          </Trackpoint>
          <Trackpoint>
            <Time>2022-07-06T17:00:21.000Z</Time>
            <Position>
              <LatitudeDegrees>43.85220422409474849700927734375</LatitudeDegrees>
              <LongitudeDegrees>-1.36545502580702304840087890625</LongitudeDegrees>
            </Position>
            <AltitudeMeters>20.799999237060546875</AltitudeMeters>
            <DistanceMeters>NAN</DistanceMeters>
          </Trackpoint>
          <Trackpoint>
            <Time>2022-07-06T17:00:40.000Z</Time>
            <Position>
              <LatitudeDegrees>43.852203302085399627685546875</LatitudeDegrees>
              <LongitudeDegrees>-1.36537288315594196319580078125</LongitudeDegrees>
            </Position>
            <AltitudeMeters>21</AltitudeMeters>
            <DistanceMeters>NAN</DistanceMeters>
          </Trackpoint>
          <Trackpoint>
            <Time>2022-07-06T17:00:44.000Z</Time>
            <Position>
              <LatitudeDegrees>43.85219366289675235748291015625</LatitudeDegrees>
              <LongitudeDegrees>-1.36520943604409694671630859375</LongitudeDegrees>
            </Position>
            <AltitudeMeters>21.200000762939453125</AltitudeMeters>
            <DistanceMeters>NAN</DistanceMeters>
          </Trackpoint>
          <Trackpoint>
            <Time>2022-07-06T17:00:45.000Z</Time>
            <Position>
              <LatitudeDegrees>43.85219651274383068084716796875</LatitudeDegrees>
              <LongitudeDegrees>-1.36515528894960880279541015625</LongitudeDegrees>
            </Position>
            <AltitudeMeters>21.200000762939453125</AltitudeMeters>
            <DistanceMeters>NAN</DistanceMeters>
          </Trackpoint>
          <Trackpoint>
            <Time>2022-07-06T17:00:49.000Z</Time>
            <Position>
              <LatitudeDegrees>43.852211348712444305419921875</LatitudeDegrees>
              <LongitudeDegrees>-1.36496879160404205322265625</LongitudeDegrees>
            </Position>
            <AltitudeMeters>21.3999996185302734375</AltitudeMeters>
            <DistanceMeters>NAN</DistanceMeters>
          </Trackpoint>
          <Trackpoint>
            <Time>2022-07-06T17:00:50.000Z</Time>
            <Position>
              <LatitudeDegrees>43.852218724787235260009765625</LatitudeDegrees>
              <LongitudeDegrees>-1.3649253733456134796142578125</LongitudeDegrees>
            </Position>
            <AltitudeMeters>21.3999996185302734375</AltitudeMeters>
            <DistanceMeters>NAN</DistanceMeters>
          </Trackpoint>
          <Trackpoint>
            <Time>2022-07-06T17:00:52.000Z</Time>
            <Position>
              <LatitudeDegrees>43.85223808698356151580810546875</LatitudeDegrees>
              <LongitudeDegrees>-1.36481967754662036895751953125</LongitudeDegrees>
            </Position>
            <AltitudeMeters>21.3999996185302734375</AltitudeMeters>
            <DistanceMeters>NAN</DistanceMeters>
          </Trackpoint>
          <Trackpoint>
            <Time>2022-07-06T17:00:56.000Z</Time>
            <Position>
              <LatitudeDegrees>43.85226331651210784912109375</LatitudeDegrees>
              <LongitudeDegrees>-1.36458297260105609893798828125</LongitudeDegrees>
            </Position>
            <AltitudeMeters>21.3999996185302734375</AltitudeMeters>
            <DistanceMeters>NAN</DistanceMeters>
          </Trackpoint>
          <Trackpoint>
            <Time>2022-07-06T17:00:57.000Z</Time>
            <Position>
              <LatitudeDegrees>43.85226155631244182586669921875</LatitudeDegrees>
              <LongitudeDegrees>-1.364514492452144622802734375</LongitudeDegrees>
            </Position>
            <AltitudeMeters>21.3999996185302734375</AltitudeMeters>
            <DistanceMeters>NAN</DistanceMeters>
          </Trackpoint>
          <Trackpoint>
            <Time>2022-07-06T17:00:58.000Z</Time>
            <Position>
              <LatitudeDegrees>43.85226977057754993438720703125</LatitudeDegrees>
              <LongitudeDegrees>-1.36444634757936000823974609375</LongitudeDegrees>
            </Position>
            <AltitudeMeters>21.3999996185302734375</AltitudeMeters>
            <DistanceMeters>NAN</DistanceMeters>
          </Trackpoint>
          <Trackpoint>
            <Time>2022-07-06T17:01:00.000Z</Time>
            <Position>
              <LatitudeDegrees>43.852291814982891082763671875</LatitudeDegrees>
              <LongitudeDegrees>-1.36432061903178691864013671875</LongitudeDegrees>
            </Position>
            <AltitudeMeters>21.6000003814697265625</AltitudeMeters>
            <DistanceMeters>NAN</DistanceMeters>
          </Trackpoint>
          <Trackpoint>
            <Time>2022-07-06T17:01:05.000Z</Time>
            <Position>
              <LatitudeDegrees>43.85228812694549560546875</LatitudeDegrees>
              <LongitudeDegrees>-1.36400797404348850250244140625</LongitudeDegrees>
            </Position>
            <AltitudeMeters>21.6000003814697265625</AltitudeMeters>
            <DistanceMeters>NAN</DistanceMeters>
          </Trackpoint>
          <Trackpoint>
            <Time>2022-07-06T17:01:07.000Z</Time>
            <Position>
              <LatitudeDegrees>43.8522836007177829742431640625</LatitudeDegrees>
              <LongitudeDegrees>-1.36391040869057178497314453125</LongitudeDegrees>
            </Position>
            <AltitudeMeters>21.6000003814697265625</AltitudeMeters>
            <DistanceMeters>NAN</DistanceMeters>
          </Trackpoint>
          <Trackpoint>
            <Time>2022-07-06T17:01:09.000Z</Time>
            <Position>
              <LatitudeDegrees>43.8522859476506710052490234375</LatitudeDegrees>
              <LongitudeDegrees>-1.363799683749675750732421875</LongitudeDegrees>
            </Position>
            <AltitudeMeters>21.6000003814697265625</AltitudeMeters>
            <DistanceMeters>NAN</DistanceMeters>
          </Trackpoint>
          <Trackpoint>
            <Time>2022-07-06T17:01:13.000Z</Time>
            <Position>
              <LatitudeDegrees>43.85226926766335964202880859375</LatitudeDegrees>
              <LongitudeDegrees>-1.36363078840076923370361328125</LongitudeDegrees>
            </Position>
            <AltitudeMeters>21.799999237060546875</AltitudeMeters>
            <DistanceMeters>NAN</DistanceMeters>
          </Trackpoint>
          <Trackpoint>
            <Time>2022-07-06T17:01:14.000Z</Time>
            <Position>
              <LatitudeDegrees>43.85226055048406124114990234375</LatitudeDegrees>
              <LongitudeDegrees>-1.36358284391462802886962890625</LongitudeDegrees>
            </Position>
            <AltitudeMeters>21.799999237060546875</AltitudeMeters>
            <DistanceMeters>NAN</DistanceMeters>
          </Trackpoint>
          <Trackpoint>
            <Time>2022-07-06T17:01:16.000Z</Time>
            <Position>
              <LatitudeDegrees>43.85225082747638225555419921875</LatitudeDegrees>
              <LongitudeDegrees>-1.363485194742679595947265625</LongitudeDegrees>
            </Position>
            <AltitudeMeters>22</AltitudeMeters>
            <DistanceMeters>NAN</DistanceMeters>
          </Trackpoint>
          <Trackpoint>
            <Time>2022-07-06T17:01:19.000Z</Time>
            <Position>
              <LatitudeDegrees>43.8522326387465000152587890625</LatitudeDegrees>
              <LongitudeDegrees>-1.36335502378642559051513671875</LongitudeDegrees>
            </Position>
            <AltitudeMeters>22</AltitudeMeters>
            <DistanceMeters>NAN</DistanceMeters>
          </Trackpoint>
          <Trackpoint>
            <Time>2022-07-06T17:01:21.000Z</Time>
            <Position>
              <LatitudeDegrees>43.85221478529274463653564453125</LatitudeDegrees>
              <LongitudeDegrees>-1.3632734678685665130615234375</LongitudeDegrees>
            </Position>
            <AltitudeMeters>22</AltitudeMeters>
            <DistanceMeters>NAN</DistanceMeters>
          </Trackpoint>
          <Trackpoint>
            <Time>2022-07-06T17:01:25.000Z</Time>
            <Position>
              <LatitudeDegrees>43.8521773181855678558349609375</LatitudeDegrees>
              <LongitudeDegrees>-1.36311043985188007354736328125</LongitudeDegrees>
            </Position>
            <AltitudeMeters>22.200000762939453125</AltitudeMeters>
            <DistanceMeters>NAN</DistanceMeters>
          </Trackpoint>
          <Trackpoint>
            <Time>2022-07-06T17:01:29.000Z</Time>
            <Position>
              <LatitudeDegrees>43.852130211889743804931640625</LatitudeDegrees>
              <LongitudeDegrees>-1.36293609626591205596923828125</LongitudeDegrees>
            </Position>
            <AltitudeMeters>22.3999996185302734375</AltitudeMeters>
            <DistanceMeters>NAN</DistanceMeters>
          </Trackpoint>
          <Trackpoint>
            <Time>2022-07-06T17:01:35.000Z</Time>
            <Position>
              <LatitudeDegrees>43.8520552776753902435302734375</LatitudeDegrees>
              <LongitudeDegrees>-1.362659744918346405029296875</LongitudeDegrees>
            </Position>
            <AltitudeMeters>22.6000003814697265625</AltitudeMeters>
            <DistanceMeters>NAN</DistanceMeters>
          </Trackpoint>
          <Trackpoint>
            <Time>2022-07-06T17:01:40.000Z</Time>
            <Position>
              <LatitudeDegrees>43.85197204537689685821533203125</LatitudeDegrees>
              <LongitudeDegrees>-1.36243754066526889801025390625</LongitudeDegrees>
            </Position>
            <AltitudeMeters>23</AltitudeMeters>
            <DistanceMeters>NAN</DistanceMeters>
          </Trackpoint>
          <Trackpoint>
            <Time>2022-07-06T17:01:41.000Z</Time>
            <Position>
              <LatitudeDegrees>43.85195829905569553375244140625</LatitudeDegrees>
              <LongitudeDegrees>-1.362378112971782684326171875</LongitudeDegrees>
            </Position>
            <AltitudeMeters>23</AltitudeMeters>
            <DistanceMeters>NAN</DistanceMeters>
          </Trackpoint>
          <Trackpoint>
            <Time>2022-07-06T17:01:48.000Z</Time>
            <Position>
              <LatitudeDegrees>43.851894848048686981201171875</LatitudeDegrees>
              <LongitudeDegrees>-1.36216898448765277862548828125</LongitudeDegrees>
            </Position>
            <AltitudeMeters>23</AltitudeMeters>
            <DistanceMeters>NAN</DistanceMeters>
          </Trackpoint>
          <Trackpoint>
            <Time>2022-07-06T17:01:50.000Z</Time>
            <Position>
              <LatitudeDegrees>43.851894848048686981201171875</LatitudeDegrees>
              <LongitudeDegrees>-1.36216898448765277862548828125</LongitudeDegrees>
            </Position>
            <AltitudeMeters>23</AltitudeMeters>
            <DistanceMeters>NAN</DistanceMeters>
          </Trackpoint>
          <Trackpoint>
            <Time>2022-07-06T17:02:58.000Z</Time>
            <Position>
              <LatitudeDegrees>43.8518631644546985626220703125</LatitudeDegrees>
              <LongitudeDegrees>-1.3621060363948345184326171875</LongitudeDegrees>
            </Position>
            <AltitudeMeters>23.200000762939453125</AltitudeMeters>
            <DistanceMeters>NAN</DistanceMeters>
          </Trackpoint>
          <Trackpoint>
            <Time>2022-07-06T17:02:59.000Z</Time>
            <Position>
              <LatitudeDegrees>43.85184883140027523040771484375</LatitudeDegrees>
              <LongitudeDegrees>-1.3620778732001781463623046875</LongitudeDegrees>
            </Position>
            <AltitudeMeters>23.200000762939453125</AltitudeMeters>
            <DistanceMeters>NAN</DistanceMeters>
          </Trackpoint>
          <Trackpoint>
            <Time>2022-07-06T17:03:05.000Z</Time>
            <Position>
              <LatitudeDegrees>43.851754367351531982421875</LatitudeDegrees>
              <LongitudeDegrees>-1.36187746189534664154052734375</LongitudeDegrees>
            </Position>
            <AltitudeMeters>23.6000003814697265625</AltitudeMeters>
            <DistanceMeters>NAN</DistanceMeters>
          </Trackpoint>
          <Trackpoint>
            <Time>2022-07-06T17:03:06.000Z</Time>
            <Position>
              <LatitudeDegrees>43.85173634625971317291259765625</LatitudeDegrees>
              <LongitudeDegrees>-1.361852400004863739013671875</LongitudeDegrees>
            </Position>
            <AltitudeMeters>23.6000003814697265625</AltitudeMeters>
            <DistanceMeters>NAN</DistanceMeters>
          </Trackpoint>
          <Trackpoint>
            <Time>2022-07-06T17:03:08.000Z</Time>
            <Position>
              <LatitudeDegrees>43.85169980116188526153564453125</LatitudeDegrees>
              <LongitudeDegrees>-1.36180822737514972686767578125</LongitudeDegrees>
            </Position>
            <AltitudeMeters>23.799999237060546875</AltitudeMeters>
            <DistanceMeters>NAN</DistanceMeters>
          </Trackpoint>
          <Trackpoint>
            <Time>2022-07-06T17:03:11.000Z</Time>
            <Position>
              <LatitudeDegrees>43.85162704624235630035400390625</LatitudeDegrees>
              <LongitudeDegrees>-1.36173781938850879669189453125</LongitudeDegrees>
            </Position>
            <AltitudeMeters>24</AltitudeMeters>
            <DistanceMeters>NAN</DistanceMeters>
          </Trackpoint>
          <Trackpoint>
            <Time>2022-07-06T17:03:14.000Z</Time>
            <Position>
              <LatitudeDegrees>43.85154984891414642333984375</LatitudeDegrees>
              <LongitudeDegrees>-1.36165433563292026519775390625</LongitudeDegrees>
            </Position>
            <AltitudeMeters>24.200000762939453125</AltitudeMeters>
            <DistanceMeters>NAN</DistanceMeters>
          </Trackpoint>
          <Trackpoint>
            <Time>2022-07-06T17:03:22.000Z</Time>
            <Position>
              <LatitudeDegrees>43.8513146527111530303955078125</LatitudeDegrees>
              <LongitudeDegrees>-1.3614378310739994049072265625</LongitudeDegrees>
            </Position>
            <AltitudeMeters>24.3999996185302734375</AltitudeMeters>
            <DistanceMeters>NAN</DistanceMeters>
          </Trackpoint>
          <Trackpoint>
            <Time>2022-07-06T17:03:25.000Z</Time>
            <Position>
              <LatitudeDegrees>43.85121365077793598175048828125</LatitudeDegrees>
              <LongitudeDegrees>-1.3613446243107318878173828125</LongitudeDegrees>
            </Position>
            <AltitudeMeters>24.3999996185302734375</AltitudeMeters>
            <DistanceMeters>NAN</DistanceMeters>
          </Trackpoint>
          <Trackpoint>
            <Time>2022-07-06T17:03:31.000Z</Time>
            <Position>
              <LatitudeDegrees>43.85101231746375560760498046875</LatitudeDegrees>
              <LongitudeDegrees>-1.36116298846900463104248046875</LongitudeDegrees>
            </Position>
            <AltitudeMeters>24</AltitudeMeters>
            <DistanceMeters>NAN</DistanceMeters>
          </Trackpoint>
          <Trackpoint>
            <Time>2022-07-06T17:03:36.000Z</Time>
            <Position>
              <LatitudeDegrees>43.85084853507578372955322265625</LatitudeDegrees>
              <LongitudeDegrees>-1.36100976727902889251708984375</LongitudeDegrees>
            </Position>
            <AltitudeMeters>24</AltitudeMeters>
            <DistanceMeters>NAN</DistanceMeters>
          </Trackpoint>
          <Trackpoint>
            <Time>2022-07-06T17:03:41.000Z</Time>
            <Position>
              <LatitudeDegrees>43.85067184455692768096923828125</LatitudeDegrees>
              <LongitudeDegrees>-1.3608403690159320831298828125</LongitudeDegrees>
            </Position>
            <AltitudeMeters>24</AltitudeMeters>
            <DistanceMeters>NAN</DistanceMeters>
          </Trackpoint>
          <Trackpoint>
            <Time>2022-07-06T17:03:44.000Z</Time>
            <Position>
              <LatitudeDegrees>43.85056656785309314727783203125</LatitudeDegrees>
              <LongitudeDegrees>-1.36074699461460113525390625</LongitudeDegrees>
            </Position>
            <AltitudeMeters>23.799999237060546875</AltitudeMeters>
            <DistanceMeters>NAN</DistanceMeters>
          </Trackpoint>
          <Trackpoint>
            <Time>2022-07-06T17:03:45.000Z</Time>
            <Position>
              <LatitudeDegrees>43.85053136385977268218994140625</LatitudeDegrees>
              <LongitudeDegrees>-1.3607189990580081939697265625</LongitudeDegrees>
            </Position>
            <AltitudeMeters>23.799999237060546875</AltitudeMeters>
            <DistanceMeters>NAN</DistanceMeters>
          </Trackpoint>
          <Trackpoint>
            <Time>2022-07-06T17:03:47.000Z</Time>
            <Position>
              <LatitudeDegrees>43.850457854568958282470703125</LatitudeDegrees>
              <LongitudeDegrees>-1.36069603264331817626953125</LongitudeDegrees>
            </Position>
            <AltitudeMeters>24</AltitudeMeters>
            <DistanceMeters>NAN</DistanceMeters>
          </Trackpoint>
          <Trackpoint>
            <Time>2022-07-06T17:03:50.000Z</Time>
            <Position>
              <LatitudeDegrees>43.85036422871053218841552734375</LatitudeDegrees>
              <LongitudeDegrees>-1.36069393716752529144287109375</LongitudeDegrees>
            </Position>
            <AltitudeMeters>24</AltitudeMeters>
            <DistanceMeters>NAN</DistanceMeters>
          </Trackpoint>
          <Trackpoint>
            <Time>2022-07-06T17:03:52.000Z</Time>
            <Position>
              <LatitudeDegrees>43.85027848184108734130859375</LatitudeDegrees>
              <LongitudeDegrees>-1.36069963686168193817138671875</LongitudeDegrees>
            </Position>
            <AltitudeMeters>24</AltitudeMeters>
            <DistanceMeters>NAN</DistanceMeters>
          </Trackpoint>
          <Trackpoint>
            <Time>2022-07-06T17:03:59.000Z</Time>
            <Position>
              <LatitudeDegrees>43.8500208221375942230224609375</LatitudeDegrees>
              <LongitudeDegrees>-1.36069695465266704559326171875</LongitudeDegrees>
            </Position>
            <AltitudeMeters>24.3999996185302734375</AltitudeMeters>
            <DistanceMeters>NAN</DistanceMeters>
          </Trackpoint>
          <Trackpoint>
            <Time>2022-07-06T17:04:07.000Z</Time>
            <Position>
              <LatitudeDegrees>43.8496957719326019287109375</LatitudeDegrees>
              <LongitudeDegrees>-1.36063409037888050079345703125</LongitudeDegrees>
            </Position>
            <AltitudeMeters>24.6000003814697265625</AltitudeMeters>
            <DistanceMeters>NAN</DistanceMeters>
          </Trackpoint>
          <Trackpoint>
            <Time>2022-07-06T17:04:11.000Z</Time>
            <Position>
              <LatitudeDegrees>43.84953819215297698974609375</LatitudeDegrees>
              <LongitudeDegrees>-1.36058270931243896484375</LongitudeDegrees>
            </Position>
            <AltitudeMeters>24.6000003814697265625</AltitudeMeters>
            <DistanceMeters>NAN</DistanceMeters>
          </Trackpoint>
          <Trackpoint>
            <Time>2022-07-06T17:04:13.000Z</Time>
            <Position>
              <LatitudeDegrees>43.8494639284908771514892578125</LatitudeDegrees>
              <LongitudeDegrees>-1.36052562855184078216552734375</LongitudeDegrees>
            </Position>
            <AltitudeMeters>24.6000003814697265625</AltitudeMeters>
            <DistanceMeters>NAN</DistanceMeters>
          </Trackpoint>
          <Trackpoint>
            <Time>2022-07-06T17:04:15.000Z</Time>
            <Position>
              <LatitudeDegrees>43.849397711455821990966796875</LatitudeDegrees>
              <LongitudeDegrees>-1.36044650338590145111083984375</LongitudeDegrees>
            </Position>
            <AltitudeMeters>24.6000003814697265625</AltitudeMeters>
            <DistanceMeters>NAN</DistanceMeters>
          </Trackpoint>
          <Trackpoint>
            <Time>2022-07-06T17:04:17.000Z</Time>
            <Position>
              <LatitudeDegrees>43.84935337118804454803466796875</LatitudeDegrees>
              <LongitudeDegrees>-1.3603592477738857269287109375</LongitudeDegrees>
            </Position>
            <AltitudeMeters>24.6000003814697265625</AltitudeMeters>
            <DistanceMeters>NAN</DistanceMeters>
          </Trackpoint>
          <Trackpoint>
            <Time>2022-07-06T17:04:19.000Z</Time>
            <Position>
              <LatitudeDegrees>43.8493211008608341217041015625</LatitudeDegrees>
              <LongitudeDegrees>-1.3602616824209690093994140625</LongitudeDegrees>
            </Position>
            <AltitudeMeters>24.6000003814697265625</AltitudeMeters>
            <DistanceMeters>NAN</DistanceMeters>
          </Trackpoint>
          <Trackpoint>
            <Time>2022-07-06T17:04:27.000Z</Time>
            <Position>
              <LatitudeDegrees>43.8491883315145969390869140625</LatitudeDegrees>
              <LongitudeDegrees>-1.35990880429744720458984375</LongitudeDegrees>
            </Position>
            <AltitudeMeters>24.799999237060546875</AltitudeMeters>
            <DistanceMeters>NAN</DistanceMeters>
          </Trackpoint>
          <Trackpoint>
            <Time>2022-07-06T17:04:29.000Z</Time>
            <Position>
              <LatitudeDegrees>43.849160335958003997802734375</LatitudeDegrees>
              <LongitudeDegrees>-1.3598191179335117340087890625</LongitudeDegrees>
            </Position>
            <AltitudeMeters>24.799999237060546875</AltitudeMeters>
            <DistanceMeters>NAN</DistanceMeters>
          </Trackpoint>
          <Trackpoint>
            <Time>2022-07-06T17:04:34.000Z</Time>
            <Position>
              <LatitudeDegrees>43.84909001179039478302001953125</LatitudeDegrees>
              <LongitudeDegrees>-1.3596166111528873443603515625</LongitudeDegrees>
            </Position>
            <AltitudeMeters>25</AltitudeMeters>
            <DistanceMeters>NAN</DistanceMeters>
          </Trackpoint>
          <Trackpoint>
            <Time>2022-07-06T17:04:40.000Z</Time>
            <Position>
              <LatitudeDegrees>43.8490118086338043212890625</LatitudeDegrees>
              <LongitudeDegrees>-1.359387449920177459716796875</LongitudeDegrees>
            </Position>
            <AltitudeMeters>25.3999996185302734375</AltitudeMeters>
            <DistanceMeters>NAN</DistanceMeters>
          </Trackpoint>
          <Trackpoint>
            <Time>2022-07-06T17:04:41.000Z</Time>
            <Position>
              <LatitudeDegrees>43.8490032590925693511962890625</LatitudeDegrees>
              <LongitudeDegrees>-1.35934109799563884735107421875</LongitudeDegrees>
            </Position>
            <AltitudeMeters>25.3999996185302734375</AltitudeMeters>
            <DistanceMeters>NAN</DistanceMeters>
          </Trackpoint>
          <Trackpoint>
            <Time>2022-07-06T17:04:42.000Z</Time>
            <Position>
              <LatitudeDegrees>43.8489930331707000732421875</LatitudeDegrees>
              <LongitudeDegrees>-1.359302289783954620361328125</LongitudeDegrees>
            </Position>
            <AltitudeMeters>25.3999996185302734375</AltitudeMeters>
            <DistanceMeters>NAN</DistanceMeters>
          </Trackpoint>
          <Trackpoint>
            <Time>2022-07-06T17:04:44.000Z</Time>
            <Position>
              <LatitudeDegrees>43.84896545670926570892333984375</LatitudeDegrees>
              <LongitudeDegrees>-1.3592188060283660888671875</LongitudeDegrees>
            </Position>
            <AltitudeMeters>25.6000003814697265625</AltitudeMeters>
            <DistanceMeters>NAN</DistanceMeters>
          </Trackpoint>
          <Trackpoint>
            <Time>2022-07-06T17:04:45.000Z</Time>
            <Position>
              <LatitudeDegrees>43.84895187802612781524658203125</LatitudeDegrees>
              <LongitudeDegrees>-1.35917832143604755401611328125</LongitudeDegrees>
            </Position>
            <AltitudeMeters>25.6000003814697265625</AltitudeMeters>
            <DistanceMeters>NAN</DistanceMeters>
          </Trackpoint>
          <Trackpoint>
            <Time>2022-07-06T17:04:46.000Z</Time>
            <Position>
              <LatitudeDegrees>43.84893603622913360595703125</LatitudeDegrees>
              <LongitudeDegrees>-1.35913825593888759613037109375</LongitudeDegrees>
            </Position>
            <AltitudeMeters>25.6000003814697265625</AltitudeMeters>
            <DistanceMeters>NAN</DistanceMeters>
          </Trackpoint>
          <Trackpoint>
            <Time>2022-07-06T17:04:47.000Z</Time>
            <Position>
              <LatitudeDegrees>43.8489221222698688507080078125</LatitudeDegrees>
              <LongitudeDegrees>-1.359094418585300445556640625</LongitudeDegrees>
            </Position>
            <AltitudeMeters>25.799999237060546875</AltitudeMeters>
            <DistanceMeters>NAN</DistanceMeters>
          </Trackpoint>
          <Trackpoint>
            <Time>2022-07-06T17:04:51.000Z</Time>
            <Position>
              <LatitudeDegrees>43.8488664664328098297119140625</LatitudeDegrees>
              <LongitudeDegrees>-1.35892988182604312896728515625</LongitudeDegrees>
            </Position>
            <AltitudeMeters>25.6000003814697265625</AltitudeMeters>
            <DistanceMeters>NAN</DistanceMeters>
          </Trackpoint>
          <Trackpoint>
            <Time>2022-07-06T17:04:55.000Z</Time>
            <Position>
              <LatitudeDegrees>43.84882899932563304901123046875</LatitudeDegrees>
              <LongitudeDegrees>-1.358766518533229827880859375</LongitudeDegrees>
            </Position>
            <AltitudeMeters>25.799999237060546875</AltitudeMeters>
            <DistanceMeters>NAN</DistanceMeters>
          </Trackpoint>
          <Trackpoint>
            <Time>2022-07-06T17:04:58.000Z</Time>
            <Position>
              <LatitudeDegrees>43.848802261054515838623046875</LatitudeDegrees>
              <LongitudeDegrees>-1.35864204727113246917724609375</LongitudeDegrees>
            </Position>
            <AltitudeMeters>25.799999237060546875</AltitudeMeters>
            <DistanceMeters>NAN</DistanceMeters>
          </Trackpoint>
          <Trackpoint>
            <Time>2022-07-06T17:05:00.000Z</Time>
            <Position>
              <LatitudeDegrees>43.84877786971628665924072265625</LatitudeDegrees>
              <LongitudeDegrees>-1.3585427217185497283935546875</LongitudeDegrees>
            </Position>
            <AltitudeMeters>25.799999237060546875</AltitudeMeters>
            <DistanceMeters>NAN</DistanceMeters>
          </Trackpoint>
          <Trackpoint>
            <Time>2022-07-06T17:05:07.000Z</Time>
            <Position>
              <LatitudeDegrees>43.84870670735836029052734375</LatitudeDegrees>
              <LongitudeDegrees>-1.35826100595295429229736328125</LongitudeDegrees>
            </Position>
            <AltitudeMeters>25.6000003814697265625</AltitudeMeters>
            <DistanceMeters>NAN</DistanceMeters>
          </Trackpoint>
          <Trackpoint>
            <Time>2022-07-06T17:05:09.000Z</Time>
            <Position>
              <LatitudeDegrees>43.8486904464662075042724609375</LatitudeDegrees>
              <LongitudeDegrees>-1.358205266296863555908203125</LongitudeDegrees>
            </Position>
            <AltitudeMeters>25.6000003814697265625</AltitudeMeters>
            <DistanceMeters>NAN</DistanceMeters>
          </Trackpoint>
          <Trackpoint>
            <Time>2022-07-06T17:05:13.000Z</Time>
            <Position>
              <LatitudeDegrees>43.84868659079074859619140625</LatitudeDegrees>
              <LongitudeDegrees>-1.35817618109285831451416015625</LongitudeDegrees>
            </Position>
            <AltitudeMeters>25.799999237060546875</AltitudeMeters>
            <DistanceMeters>NAN</DistanceMeters>
          </Trackpoint>
          <Trackpoint>
            <Time>2022-07-06T17:05:14.000Z</Time>
            <Position>
              <LatitudeDegrees>43.84868659079074859619140625</LatitudeDegrees>
              <LongitudeDegrees>-1.35817618109285831451416015625</LongitudeDegrees>
            </Position>
            <AltitudeMeters>25.799999237060546875</AltitudeMeters>
            <DistanceMeters>NAN</DistanceMeters>
          </Trackpoint>
          <Trackpoint>
            <Time>2022-07-06T17:05:20.000Z</Time>
            <Position>
              <LatitudeDegrees>43.84864426217973232269287109375</LatitudeDegrees>
              <LongitudeDegrees>-1.35813913308084011077880859375</LongitudeDegrees>
            </Position>
            <AltitudeMeters>26.200000762939453125</AltitudeMeters>
            <DistanceMeters>NAN</DistanceMeters>
          </Trackpoint>
          <Trackpoint>
            <Time>2022-07-06T17:05:22.000Z</Time>
            <Position>
              <LatitudeDegrees>43.84858776815235614776611328125</LatitudeDegrees>
              <LongitudeDegrees>-1.35813175700604915618896484375</LongitudeDegrees>
            </Position>
            <AltitudeMeters>26.200000762939453125</AltitudeMeters>
            <DistanceMeters>NAN</DistanceMeters>
          </Trackpoint>
          <Trackpoint>
            <Time>2022-07-06T17:05:27.000Z</Time>
            <Position>
              <LatitudeDegrees>43.8484342955052852630615234375</LatitudeDegrees>
              <LongitudeDegrees>-1.3581407256424427032470703125</LongitudeDegrees>
            </Position>
            <AltitudeMeters>26.200000762939453125</AltitudeMeters>
            <DistanceMeters>NAN</DistanceMeters>
          </Trackpoint>
          <Trackpoint>
            <Time>2022-07-06T17:05:28.000Z</Time>
            <Position>
              <LatitudeDegrees>43.84839531965553760528564453125</LatitudeDegrees>
              <LongitudeDegrees>-1.35813209228217601776123046875</LongitudeDegrees>
            </Position>
            <AltitudeMeters>26.200000762939453125</AltitudeMeters>
            <DistanceMeters>NAN</DistanceMeters>
          </Trackpoint>
          <Trackpoint>
            <Time>2022-07-06T17:05:29.000Z</Time>
            <Position>
              <LatitudeDegrees>43.8483591936528682708740234375</LatitudeDegrees>
              <LongitudeDegrees>-1.35811977088451385498046875</LongitudeDegrees>
            </Position>
            <AltitudeMeters>26.200000762939453125</AltitudeMeters>
            <DistanceMeters>NAN</DistanceMeters>
          </Trackpoint>
          <Trackpoint>
            <Time>2022-07-06T17:05:32.000Z</Time>
            <Position>
              <LatitudeDegrees>43.84824578650295734405517578125</LatitudeDegrees>
              <LongitudeDegrees>-1.358085572719573974609375</LongitudeDegrees>
            </Position>
            <AltitudeMeters>26.200000762939453125</AltitudeMeters>
            <DistanceMeters>NAN</DistanceMeters>
          </Trackpoint>
          <Trackpoint>
            <Time>2022-07-06T17:05:37.000Z</Time>
            <Position>
              <LatitudeDegrees>43.84807370603084564208984375</LatitudeDegrees>
              <LongitudeDegrees>-1.35807241313159465789794921875</LongitudeDegrees>
            </Position>
            <AltitudeMeters>26.6000003814697265625</AltitudeMeters>
            <DistanceMeters>NAN</DistanceMeters>
          </Trackpoint>
          <Trackpoint>
            <Time>2022-07-06T17:05:45.000Z</Time>
            <Position>
              <LatitudeDegrees>43.847801126539707183837890625</LatitudeDegrees>
              <LongitudeDegrees>-1.35802061296999454498291015625</LongitudeDegrees>
            </Position>
            <AltitudeMeters>26.799999237060546875</AltitudeMeters>
            <DistanceMeters>NAN</DistanceMeters>
          </Trackpoint>
          <Trackpoint>
            <Time>2022-07-06T17:05:46.000Z</Time>
            <Position>
              <LatitudeDegrees>43.8477654196321964263916015625</LatitudeDegrees>
              <LongitudeDegrees>-1.35800502263009548187255859375</LongitudeDegrees>
            </Position>
            <AltitudeMeters>26.799999237060546875</AltitudeMeters>
            <DistanceMeters>NAN</DistanceMeters>
          </Trackpoint>
          <Trackpoint>
            <Time>2022-07-06T17:05:52.000Z</Time>
            <Position>
              <LatitudeDegrees>43.84753298945724964141845703125</LatitudeDegrees>
              <LongitudeDegrees>-1.35795322246849536895751953125</LongitudeDegrees>
            </Position>
            <AltitudeMeters>26.3999996185302734375</AltitudeMeters>
            <DistanceMeters>NAN</DistanceMeters>
          </Trackpoint>
          <Trackpoint>
            <Time>2022-07-06T17:06:00.000Z</Time>
            <Position>
              <LatitudeDegrees>43.84724549017846584320068359375</LatitudeDegrees>
              <LongitudeDegrees>-1.35778675787150859832763671875</LongitudeDegrees>
            </Position>
            <AltitudeMeters>26</AltitudeMeters>
            <DistanceMeters>NAN</DistanceMeters>
          </Trackpoint>
          <Trackpoint>
            <Time>2022-07-06T17:06:04.000Z</Time>
            <Position>
              <LatitudeDegrees>43.8470898382365703582763671875</LatitudeDegrees>
              <LongitudeDegrees>-1.35769187472760677337646484375</LongitudeDegrees>
            </Position>
            <AltitudeMeters>26</AltitudeMeters>
            <DistanceMeters>NAN</DistanceMeters>
          </Trackpoint>
          <Trackpoint>
            <Time>2022-07-06T17:06:07.000Z</Time>
            <Position>
              <LatitudeDegrees>43.8469718210399150848388671875</LatitudeDegrees>
              <LongitudeDegrees>-1.357608474791049957275390625</LongitudeDegrees>
            </Position>
            <AltitudeMeters>26</AltitudeMeters>
            <DistanceMeters>NAN</DistanceMeters>
          </Trackpoint>
          <Trackpoint>
            <Time>2022-07-06T17:06:14.000Z</Time>
            <Position>
              <LatitudeDegrees>43.84671156294643878936767578125</LatitudeDegrees>
              <LongitudeDegrees>-1.3574342988431453704833984375</LongitudeDegrees>
            </Position>
            <AltitudeMeters>26.200000762939453125</AltitudeMeters>
            <DistanceMeters>NAN</DistanceMeters>
          </Trackpoint>
          <Trackpoint>
            <Time>2022-07-06T17:06:15.000Z</Time>
            <Position>
              <LatitudeDegrees>43.8466744311153888702392578125</LatitudeDegrees>
              <LongitudeDegrees>-1.3574230670928955078125</LongitudeDegrees>
            </Position>
            <AltitudeMeters>26.200000762939453125</AltitudeMeters>
            <DistanceMeters>NAN</DistanceMeters>
          </Trackpoint>
          <Trackpoint>
            <Time>2022-07-06T17:06:17.000Z</Time>
            <Position>
              <LatitudeDegrees>43.84659446775913238525390625</LatitudeDegrees>
              <LongitudeDegrees>-1.35739800520241260528564453125</LongitudeDegrees>
            </Position>
            <AltitudeMeters>26.200000762939453125</AltitudeMeters>
            <DistanceMeters>NAN</DistanceMeters>
          </Trackpoint>
          <Trackpoint>
            <Time>2022-07-06T17:06:21.000Z</Time>
            <Position>
              <LatitudeDegrees>43.84646697901189327239990234375</LatitudeDegrees>
              <LongitudeDegrees>-1.3573444448411464691162109375</LongitudeDegrees>
            </Position>
            <AltitudeMeters>26.3999996185302734375</AltitudeMeters>
            <DistanceMeters>NAN</DistanceMeters>
          </Trackpoint>
          <Trackpoint>
            <Time>2022-07-06T17:06:22.000Z</Time>
            <Position>
              <LatitudeDegrees>43.84644418023526668548583984375</LatitudeDegrees>
              <LongitudeDegrees>-1.35732424445450305938720703125</LongitudeDegrees>
            </Position>
            <AltitudeMeters>26.3999996185302734375</AltitudeMeters>
            <DistanceMeters>NAN</DistanceMeters>
          </Trackpoint>
          <Trackpoint>
            <Time>2022-07-06T17:06:25.000Z</Time>
            <Position>
              <LatitudeDegrees>43.84638927876949310302734375</LatitudeDegrees>
              <LongitudeDegrees>-1.3572234101593494415283203125</LongitudeDegrees>
            </Position>
            <AltitudeMeters>26.3999996185302734375</AltitudeMeters>
            <DistanceMeters>NAN</DistanceMeters>
          </Trackpoint>
          <Trackpoint>
            <Time>2022-07-06T17:06:30.000Z</Time>
            <Position>
              <LatitudeDegrees>43.84626262821257114410400390625</LatitudeDegrees>
              <LongitudeDegrees>-1.35708309710025787353515625</LongitudeDegrees>
            </Position>
            <AltitudeMeters>26.799999237060546875</AltitudeMeters>
            <DistanceMeters>NAN</DistanceMeters>
          </Trackpoint>
          <Trackpoint>
            <Time>2022-07-06T17:06:35.000Z</Time>
            <Position>
              <LatitudeDegrees>43.84610152803361415863037109375</LatitudeDegrees>
              <LongitudeDegrees>-1.35696968995034694671630859375</LongitudeDegrees>
            </Position>
            <AltitudeMeters>26.799999237060546875</AltitudeMeters>
            <DistanceMeters>NAN</DistanceMeters>
          </Trackpoint>
          <Trackpoint>
            <Time>2022-07-06T17:06:38.000Z</Time>
            <Position>
              <LatitudeDegrees>43.84599474258720874786376953125</LatitudeDegrees>
              <LongitudeDegrees>-1.356894336640834808349609375</LongitudeDegrees>
            </Position>
            <AltitudeMeters>26.6000003814697265625</AltitudeMeters>
            <DistanceMeters>NAN</DistanceMeters>
          </Trackpoint>
          <Trackpoint>
            <Time>2022-07-06T17:06:39.000Z</Time>
            <Position>
              <LatitudeDegrees>43.84595853276550769805908203125</LatitudeDegrees>
              <LongitudeDegrees>-1.356867514550685882568359375</LongitudeDegrees>
            </Position>
            <AltitudeMeters>26.6000003814697265625</AltitudeMeters>
            <DistanceMeters>NAN</DistanceMeters>
          </Trackpoint>
          <Trackpoint>
            <Time>2022-07-06T17:06:40.000Z</Time>
            <Position>
              <LatitudeDegrees>43.84592215530574321746826171875</LatitudeDegrees>
              <LongitudeDegrees>-1.3568432070314884185791015625</LongitudeDegrees>
            </Position>
            <AltitudeMeters>26.6000003814697265625</AltitudeMeters>
            <DistanceMeters>NAN</DistanceMeters>
          </Trackpoint>
          <Trackpoint>
            <Time>2022-07-06T17:06:48.000Z</Time>
            <Position>
              <LatitudeDegrees>43.845640607178211212158203125</LatitudeDegrees>
              <LongitudeDegrees>-1.3566229306161403656005859375</LongitudeDegrees>
            </Position>
            <AltitudeMeters>26.6000003814697265625</AltitudeMeters>
            <DistanceMeters>NAN</DistanceMeters>
          </Trackpoint>
          <Trackpoint>
            <Time>2022-07-06T17:06:57.000Z</Time>
            <Position>
              <LatitudeDegrees>43.84530105628073215484619140625</LatitudeDegrees>
              <LongitudeDegrees>-1.35638513602316379547119140625</LongitudeDegrees>
            </Position>
            <AltitudeMeters>27</AltitudeMeters>
            <DistanceMeters>NAN</DistanceMeters>
          </Trackpoint>
          <Trackpoint>
            <Time>2022-07-06T17:07:06.000Z</Time>
            <Position>
              <LatitudeDegrees>43.84497173130512237548828125</LatitudeDegrees>
              <LongitudeDegrees>-1.35614021681249141693115234375</LongitudeDegrees>
            </Position>
            <AltitudeMeters>27.200000762939453125</AltitudeMeters>
            <DistanceMeters>NAN</DistanceMeters>
          </Trackpoint>
          <Trackpoint>
            <Time>2022-07-06T17:07:16.000Z</Time>
            <Position>
              <LatitudeDegrees>43.84461726061999797821044921875</LatitudeDegrees>
              <LongitudeDegrees>-1.3558823056519031524658203125</LongitudeDegrees>
            </Position>
            <AltitudeMeters>28</AltitudeMeters>
            <DistanceMeters>NAN</DistanceMeters>
          </Trackpoint>
          <Trackpoint>
            <Time>2022-07-06T17:07:23.000Z</Time>
            <Position>
              <LatitudeDegrees>43.84437971748411655426025390625</LatitudeDegrees>
              <LongitudeDegrees>-1.3557093031704425811767578125</LongitudeDegrees>
            </Position>
            <AltitudeMeters>28</AltitudeMeters>
            <DistanceMeters>NAN</DistanceMeters>
          </Trackpoint>
          <Trackpoint>
            <Time>2022-07-06T17:07:27.000Z</Time>
            <Position>
              <LatitudeDegrees>43.84424393065273761749267578125</LatitudeDegrees>
              <LongitudeDegrees>-1.355600170791149139404296875</LongitudeDegrees>
            </Position>
            <AltitudeMeters>27.799999237060546875</AltitudeMeters>
            <DistanceMeters>NAN</DistanceMeters>
          </Trackpoint>
          <Trackpoint>
            <Time>2022-07-06T17:07:35.000Z</Time>
            <Position>
              <LatitudeDegrees>43.84397797286510467529296875</LatitudeDegrees>
              <LongitudeDegrees>-1.35540629737079143524169921875</LongitudeDegrees>
            </Position>
            <AltitudeMeters>28.200000762939453125</AltitudeMeters>
            <DistanceMeters>NAN</DistanceMeters>
          </Trackpoint>
          <Trackpoint>
            <Time>2022-07-06T17:07:37.000Z</Time>
            <Position>
              <LatitudeDegrees>43.84392407722771167755126953125</LatitudeDegrees>
              <LongitudeDegrees>-1.3553609512746334075927734375</LongitudeDegrees>
            </Position>
            <AltitudeMeters>28.3999996185302734375</AltitudeMeters>
            <DistanceMeters>NAN</DistanceMeters>
          </Trackpoint>
          <Trackpoint>
            <Time>2022-07-06T17:07:38.000Z</Time>
            <Position>
              <LatitudeDegrees>43.8438959978520870208740234375</LatitudeDegrees>
              <LongitudeDegrees>-1.355344355106353759765625</LongitudeDegrees>
            </Position>
            <AltitudeMeters>28.3999996185302734375</AltitudeMeters>
            <DistanceMeters>NAN</DistanceMeters>
          </Trackpoint>
          <Trackpoint>
            <Time>2022-07-06T17:07:40.000Z</Time>
            <Position>
              <LatitudeDegrees>43.8438349775969982147216796875</LatitudeDegrees>
              <LongitudeDegrees>-1.35535441339015960693359375</LongitudeDegrees>
            </Position>
            <AltitudeMeters>28.6000003814697265625</AltitudeMeters>
            <DistanceMeters>NAN</DistanceMeters>
          </Trackpoint>
          <Trackpoint>
            <Time>2022-07-06T17:07:45.000Z</Time>
            <Position>
              <LatitudeDegrees>43.843649737536907196044921875</LatitudeDegrees>
              <LongitudeDegrees>-1.3554397411644458770751953125</LongitudeDegrees>
            </Position>
            <AltitudeMeters>28.6000003814697265625</AltitudeMeters>
            <DistanceMeters>NAN</DistanceMeters>
          </Trackpoint>
          <Trackpoint>
            <Time>2022-07-06T17:07:48.000Z</Time>
            <Position>
              <LatitudeDegrees>43.84353146888315677642822265625</LatitudeDegrees>
              <LongitudeDegrees>-1.3555054552853107452392578125</LongitudeDegrees>
            </Position>
            <AltitudeMeters>28.3999996185302734375</AltitudeMeters>
            <DistanceMeters>NAN</DistanceMeters>
          </Trackpoint>
          <Trackpoint>
            <Time>2022-07-06T17:07:51.000Z</Time>
            <Position>
              <LatitudeDegrees>43.84341663680970668792724609375</LatitudeDegrees>
              <LongitudeDegrees>-1.35556991212069988250732421875</LongitudeDegrees>
            </Position>
            <AltitudeMeters>28.6000003814697265625</AltitudeMeters>
            <DistanceMeters>NAN</DistanceMeters>
          </Trackpoint>
          <Trackpoint>
            <Time>2022-07-06T17:07:58.000Z</Time>
            <Position>
              <LatitudeDegrees>43.8431687839329242706298828125</LatitudeDegrees>
              <LongitudeDegrees>-1.355738304555416107177734375</LongitudeDegrees>
            </Position>
            <AltitudeMeters>28.6000003814697265625</AltitudeMeters>
            <DistanceMeters>NAN</DistanceMeters>
          </Trackpoint>
          <Trackpoint>
            <Time>2022-07-06T17:08:03.000Z</Time>
            <Position>
              <LatitudeDegrees>43.84297088719904422760009765625</LatitudeDegrees>
              <LongitudeDegrees>-1.35584852658212184906005859375</LongitudeDegrees>
            </Position>
            <AltitudeMeters>29</AltitudeMeters>
            <DistanceMeters>NAN</DistanceMeters>
          </Trackpoint>
          <Trackpoint>
            <Time>2022-07-06T17:08:05.000Z</Time>
            <Position>
              <LatitudeDegrees>43.8429057598114013671875</LatitudeDegrees>
              <LongitudeDegrees>-1.35590015910565853118896484375</LongitudeDegrees>
            </Position>
            <AltitudeMeters>29</AltitudeMeters>
            <DistanceMeters>NAN</DistanceMeters>
          </Trackpoint>
          <Trackpoint>
            <Time>2022-07-06T17:08:10.000Z</Time>
            <Position>
              <LatitudeDegrees>43.84272445924580097198486328125</LatitudeDegrees>
              <LongitudeDegrees>-1.35600694455206394195556640625</LongitudeDegrees>
            </Position>
            <AltitudeMeters>28.799999237060546875</AltitudeMeters>
            <DistanceMeters>NAN</DistanceMeters>
          </Trackpoint>
          <Trackpoint>
            <Time>2022-07-06T17:08:14.000Z</Time>
            <Position>
              <LatitudeDegrees>43.84257995523512363433837890625</LatitudeDegrees>
              <LongitudeDegrees>-1.35609311051666736602783203125</LongitudeDegrees>
            </Position>
            <AltitudeMeters>28.6000003814697265625</AltitudeMeters>
            <DistanceMeters>NAN</DistanceMeters>
          </Trackpoint>
          <Trackpoint>
            <Time>2022-07-06T17:08:16.000Z</Time>
            <Position>
              <LatitudeDegrees>43.842505104839801788330078125</LatitudeDegrees>
              <LongitudeDegrees>-1.35614155791699886322021484375</LongitudeDegrees>
            </Position>
            <AltitudeMeters>28.3999996185302734375</AltitudeMeters>
            <DistanceMeters>NAN</DistanceMeters>
          </Trackpoint>
          <Trackpoint>
            <Time>2022-07-06T17:08:17.000Z</Time>
            <Position>
              <LatitudeDegrees>43.842466212809085845947265625</LatitudeDegrees>
              <LongitudeDegrees>-1.35616444051265716552734375</LongitudeDegrees>
            </Position>
            <AltitudeMeters>28.3999996185302734375</AltitudeMeters>
            <DistanceMeters>NAN</DistanceMeters>
          </Trackpoint>
          <Trackpoint>
            <Time>2022-07-06T17:08:26.000Z</Time>
            <Position>
              <LatitudeDegrees>43.8421143405139446258544921875</LatitudeDegrees>
              <LongitudeDegrees>-1.35636652819812297821044921875</LongitudeDegrees>
            </Position>
            <AltitudeMeters>28.6000003814697265625</AltitudeMeters>
            <DistanceMeters>NAN</DistanceMeters>
          </Trackpoint>
          <Trackpoint>
            <Time>2022-07-06T17:08:27.000Z</Time>
            <Position>
              <LatitudeDegrees>43.842080645263195037841796875</LatitudeDegrees>
              <LongitudeDegrees>-1.3563858903944492340087890625</LongitudeDegrees>
            </Position>
            <AltitudeMeters>28.6000003814697265625</AltitudeMeters>
            <DistanceMeters>NAN</DistanceMeters>
          </Trackpoint>
          <Trackpoint>
            <Time>2022-07-06T17:08:31.000Z</Time>
            <Position>
              <LatitudeDegrees>43.84194108657538890838623046875</LatitudeDegrees>
              <LongitudeDegrees>-1.3564727269113063812255859375</LongitudeDegrees>
            </Position>
            <AltitudeMeters>28.3999996185302734375</AltitudeMeters>
            <DistanceMeters>NAN</DistanceMeters>
          </Trackpoint>
          <Trackpoint>
            <Time>2022-07-06T17:08:35.000Z</Time>
            <Position>
              <LatitudeDegrees>43.8417871110141277313232421875</LatitudeDegrees>
              <LongitudeDegrees>-1.35654405690729618072509765625</LongitudeDegrees>
            </Position>
            <AltitudeMeters>28.6000003814697265625</AltitudeMeters>
            <DistanceMeters>NAN</DistanceMeters>
          </Trackpoint>
          <Trackpoint>
            <Time>2022-07-06T17:08:38.000Z</Time>
            <Position>
              <LatitudeDegrees>43.841683007776737213134765625</LatitudeDegrees>
              <LongitudeDegrees>-1.356610693037509918212890625</LongitudeDegrees>
            </Position>
            <AltitudeMeters>28.6000003814697265625</AltitudeMeters>
            <DistanceMeters>NAN</DistanceMeters>
          </Trackpoint>
          <Trackpoint>
            <Time>2022-07-06T17:08:46.000Z</Time>
            <Position>
              <LatitudeDegrees>43.84140296839177608489990234375</LatitudeDegrees>
              <LongitudeDegrees>-1.3567694462835788726806640625</LongitudeDegrees>
            </Position>
            <AltitudeMeters>29</AltitudeMeters>
            <DistanceMeters>NAN</DistanceMeters>
          </Trackpoint>
          <Trackpoint>
            <Time>2022-07-06T17:08:49.000Z</Time>
            <Position>
              <LatitudeDegrees>43.841298781335353851318359375</LatitudeDegrees>
              <LongitudeDegrees>-1.35682719759643077850341796875</LongitudeDegrees>
            </Position>
            <AltitudeMeters>28.799999237060546875</AltitudeMeters>
            <DistanceMeters>NAN</DistanceMeters>
          </Trackpoint>
          <Trackpoint>
            <Time>2022-07-06T17:08:52.000Z</Time>
            <Position>
              <LatitudeDegrees>43.8412040658295154571533203125</LatitudeDegrees>
              <LongitudeDegrees>-1.35687480680644512176513671875</LongitudeDegrees>
            </Position>
            <AltitudeMeters>28.6000003814697265625</AltitudeMeters>
            <DistanceMeters>NAN</DistanceMeters>
          </Trackpoint>
          <Trackpoint>
            <Time>2022-07-06T17:08:57.000Z</Time>
            <Position>
              <LatitudeDegrees>43.841013796627521514892578125</LatitudeDegrees>
              <LongitudeDegrees>-1.35697178542613983154296875</LongitudeDegrees>
            </Position>
            <AltitudeMeters>28.200000762939453125</AltitudeMeters>
            <DistanceMeters>NAN</DistanceMeters>
          </Trackpoint>
          <Trackpoint>
            <Time>2022-07-06T17:09:00.000Z</Time>
            <Position>
              <LatitudeDegrees>43.84087474085390567779541015625</LatitudeDegrees>
              <LongitudeDegrees>-1.35702433995902538299560546875</LongitudeDegrees>
            </Position>
            <AltitudeMeters>28.200000762939453125</AltitudeMeters>
            <DistanceMeters>NAN</DistanceMeters>
          </Trackpoint>
          <Trackpoint>
            <Time>2022-07-06T17:09:04.000Z</Time>
            <Position>
              <LatitudeDegrees>43.84067910723388195037841796875</LatitudeDegrees>
              <LongitudeDegrees>-1.35713766328990459442138671875</LongitudeDegrees>
            </Position>
            <AltitudeMeters>28.200000762939453125</AltitudeMeters>
            <DistanceMeters>NAN</DistanceMeters>
          </Trackpoint>
          <Trackpoint>
            <Time>2022-07-06T17:09:05.000Z</Time>
            <Position>
              <LatitudeDegrees>43.84063401259481906890869140625</LatitudeDegrees>
              <LongitudeDegrees>-1.35716347955167293548583984375</LongitudeDegrees>
            </Position>
            <AltitudeMeters>28.200000762939453125</AltitudeMeters>
            <DistanceMeters>NAN</DistanceMeters>
          </Trackpoint>
          <Trackpoint>
            <Time>2022-07-06T17:09:13.000Z</Time>
            <Position>
              <LatitudeDegrees>43.8403440825641155242919921875</LatitudeDegrees>
              <LongitudeDegrees>-1.3573612086474895477294921875</LongitudeDegrees>
            </Position>
            <AltitudeMeters>27.799999237060546875</AltitudeMeters>
            <DistanceMeters>NAN</DistanceMeters>
          </Trackpoint>
          <Trackpoint>
            <Time>2022-07-06T17:09:15.000Z</Time>
            <Position>
              <LatitudeDegrees>43.840267471969127655029296875</LatitudeDegrees>
              <LongitudeDegrees>-1.35740923695266246795654296875</LongitudeDegrees>
            </Position>
            <AltitudeMeters>28</AltitudeMeters>
            <DistanceMeters>NAN</DistanceMeters>
          </Trackpoint>
          <Trackpoint>
            <Time>2022-07-06T17:09:22.000Z</Time>
            <Position>
              <LatitudeDegrees>43.8399997539818286895751953125</LatitudeDegrees>
              <LongitudeDegrees>-1.357563547790050506591796875</LongitudeDegrees>
            </Position>
            <AltitudeMeters>28</AltitudeMeters>
            <DistanceMeters>NAN</DistanceMeters>
          </Trackpoint>
          <Trackpoint>
            <Time>2022-07-06T17:09:28.000Z</Time>
            <Position>
              <LatitudeDegrees>43.8397496379911899566650390625</LatitudeDegrees>
              <LongitudeDegrees>-1.3577001728117465972900390625</LongitudeDegrees>
            </Position>
            <AltitudeMeters>27.799999237060546875</AltitudeMeters>
            <DistanceMeters>NAN</DistanceMeters>
          </Trackpoint>
          <Trackpoint>
            <Time>2022-07-06T17:09:29.000Z</Time>
            <Position>
              <LatitudeDegrees>43.83971820585429668426513671875</LatitudeDegrees>
              <LongitudeDegrees>-1.35771970264613628387451171875</LongitudeDegrees>
            </Position>
            <AltitudeMeters>27.799999237060546875</AltitudeMeters>
            <DistanceMeters>NAN</DistanceMeters>
          </Trackpoint>
          <Trackpoint>
            <Time>2022-07-06T17:09:34.000Z</Time>
            <Position>
              <LatitudeDegrees>43.83950538933277130126953125</LatitudeDegrees>
              <LongitudeDegrees>-1.35783386416733264923095703125</LongitudeDegrees>
            </Position>
            <AltitudeMeters>27.799999237060546875</AltitudeMeters>
            <DistanceMeters>NAN</DistanceMeters>
          </Trackpoint>
          <Trackpoint>
            <Time>2022-07-06T17:09:36.000Z</Time>
            <Position>
              <LatitudeDegrees>43.8394116796553134918212890625</LatitudeDegrees>
              <LongitudeDegrees>-1.3578835688531398773193359375</LongitudeDegrees>
            </Position>
            <AltitudeMeters>27.799999237060546875</AltitudeMeters>
            <DistanceMeters>NAN</DistanceMeters>
          </Trackpoint>
          <Trackpoint>
            <Time>2022-07-06T17:09:39.000Z</Time>
            <Position>
              <LatitudeDegrees>43.8392705284059047698974609375</LatitudeDegrees>
              <LongitudeDegrees>-1.35792891494929790496826171875</LongitudeDegrees>
            </Position>
            <AltitudeMeters>27.799999237060546875</AltitudeMeters>
            <DistanceMeters>NAN</DistanceMeters>
          </Trackpoint>
          <Trackpoint>
            <Time>2022-07-06T17:09:42.000Z</Time>
            <Position>
              <LatitudeDegrees>43.83914991281926631927490234375</LatitudeDegrees>
              <LongitudeDegrees>-1.3579559884965419769287109375</LongitudeDegrees>
            </Position>
            <AltitudeMeters>27.799999237060546875</AltitudeMeters>
            <DistanceMeters>NAN</DistanceMeters>
          </Trackpoint>
          <Trackpoint>
            <Time>2022-07-06T17:09:43.000Z</Time>
            <Position>
              <LatitudeDegrees>43.8391136191785335540771484375</LatitudeDegrees>
              <LongitudeDegrees>-1.35799043811857700347900390625</LongitudeDegrees>
            </Position>
            <AltitudeMeters>27.799999237060546875</AltitudeMeters>
            <DistanceMeters>NAN</DistanceMeters>
          </Trackpoint>
          <Trackpoint>
            <Time>2022-07-06T17:09:46.000Z</Time>
            <Position>
              <LatitudeDegrees>43.8390344940125942230224609375</LatitudeDegrees>
              <LongitudeDegrees>-1.35809588246047496795654296875</LongitudeDegrees>
            </Position>
            <AltitudeMeters>28</AltitudeMeters>
            <DistanceMeters>NAN</DistanceMeters>
          </Trackpoint>
          <Trackpoint>
            <Time>2022-07-06T17:09:49.000Z</Time>
            <Position>
              <LatitudeDegrees>43.83890449069440364837646484375</LatitudeDegrees>
              <LongitudeDegrees>-1.35816193185746669769287109375</LongitudeDegrees>
            </Position>
            <AltitudeMeters>27.799999237060546875</AltitudeMeters>
            <DistanceMeters>NAN</DistanceMeters>
          </Trackpoint>
          <Trackpoint>
            <Time>2022-07-06T17:09:56.000Z</Time>
            <Position>
              <LatitudeDegrees>43.838623277842998504638671875</LatitudeDegrees>
              <LongitudeDegrees>-1.35831196792423725128173828125</LongitudeDegrees>
            </Position>
            <AltitudeMeters>27.6000003814697265625</AltitudeMeters>
            <DistanceMeters>NAN</DistanceMeters>
          </Trackpoint>
          <Trackpoint>
            <Time>2022-07-06T17:09:57.000Z</Time>
            <Position>
              <LatitudeDegrees>43.83858539164066314697265625</LatitudeDegrees>
              <LongitudeDegrees>-1.3583358563482761383056640625</LongitudeDegrees>
            </Position>
            <AltitudeMeters>27.6000003814697265625</AltitudeMeters>
            <DistanceMeters>NAN</DistanceMeters>
          </Trackpoint>
          <Trackpoint>
            <Time>2022-07-06T17:10:02.000Z</Time>
            <Position>
              <LatitudeDegrees>43.83838556706905364990234375</LatitudeDegrees>
              <LongitudeDegrees>-1.35844205506145954132080078125</LongitudeDegrees>
            </Position>
            <AltitudeMeters>27.6000003814697265625</AltitudeMeters>
            <DistanceMeters>NAN</DistanceMeters>
          </Trackpoint>
          <Trackpoint>
            <Time>2022-07-06T17:10:06.000Z</Time>
            <Position>
              <LatitudeDegrees>43.83821264840662479400634765625</LatitudeDegrees>
              <LongitudeDegrees>-1.3585353456437587738037109375</LongitudeDegrees>
            </Position>
            <AltitudeMeters>27.6000003814697265625</AltitudeMeters>
            <DistanceMeters>NAN</DistanceMeters>
          </Trackpoint>
          <Trackpoint>
            <Time>2022-07-06T17:10:08.000Z</Time>
            <Position>
              <LatitudeDegrees>43.83813687600195407867431640625</LatitudeDegrees>
              <LongitudeDegrees>-1.35858471505343914031982421875</LongitudeDegrees>
            </Position>
            <AltitudeMeters>27.799999237060546875</AltitudeMeters>
            <DistanceMeters>NAN</DistanceMeters>
          </Trackpoint>
          <Trackpoint>
            <Time>2022-07-06T17:10:11.000Z</Time>
            <Position>
              <LatitudeDegrees>43.83800201117992401123046875</LatitudeDegrees>
              <LongitudeDegrees>-1.35865621268749237060546875</LongitudeDegrees>
            </Position>
            <AltitudeMeters>27.799999237060546875</AltitudeMeters>
            <DistanceMeters>NAN</DistanceMeters>
          </Trackpoint>
          <Trackpoint>
            <Time>2022-07-06T17:10:13.000Z</Time>
            <Position>
              <LatitudeDegrees>43.83793856017291545867919921875</LatitudeDegrees>
              <LongitudeDegrees>-1.35869166813790798187255859375</LongitudeDegrees>
            </Position>
            <AltitudeMeters>27.3999996185302734375</AltitudeMeters>
            <DistanceMeters>NAN</DistanceMeters>
          </Trackpoint>
          <Trackpoint>
            <Time>2022-07-06T17:10:17.000Z</Time>
            <Position>
              <LatitudeDegrees>43.837811239063739776611328125</LatitudeDegrees>
              <LongitudeDegrees>-1.35880432091653347015380859375</LongitudeDegrees>
            </Position>
            <AltitudeMeters>27.200000762939453125</AltitudeMeters>
            <DistanceMeters>NAN</DistanceMeters>
          </Trackpoint>
          <Trackpoint>
            <Time>2022-07-06T17:10:18.000Z</Time>
            <Position>
              <LatitudeDegrees>43.8377641327679157257080078125</LatitudeDegrees>
              <LongitudeDegrees>-1.35882494039833545684814453125</LongitudeDegrees>
            </Position>
            <AltitudeMeters>27.200000762939453125</AltitudeMeters>
            <DistanceMeters>NAN</DistanceMeters>
          </Trackpoint>
          <Trackpoint>
            <Time>2022-07-06T17:10:20.000Z</Time>
            <Position>
              <LatitudeDegrees>43.83767151273787021636962890625</LatitudeDegrees>
              <LongitudeDegrees>-1.3588709570467472076416015625</LongitudeDegrees>
            </Position>
            <AltitudeMeters>27.200000762939453125</AltitudeMeters>
            <DistanceMeters>NAN</DistanceMeters>
          </Trackpoint>
          <Trackpoint>
            <Time>2022-07-06T17:10:22.000Z</Time>
            <Position>
              <LatitudeDegrees>43.83758702315390110015869140625</LatitudeDegrees>
              <LongitudeDegrees>-1.35890892706811428070068359375</LongitudeDegrees>
            </Position>
            <AltitudeMeters>27.200000762939453125</AltitudeMeters>
            <DistanceMeters>NAN</DistanceMeters>
          </Trackpoint>
          <Trackpoint>
            <Time>2022-07-06T17:10:23.000Z</Time>
            <Position>
              <LatitudeDegrees>43.83753974922001361846923828125</LatitudeDegrees>
              <LongitudeDegrees>-1.35892988182604312896728515625</LongitudeDegrees>
            </Position>
            <AltitudeMeters>27.200000762939453125</AltitudeMeters>
            <DistanceMeters>NAN</DistanceMeters>
          </Trackpoint>
          <Trackpoint>
            <Time>2022-07-06T17:10:27.000Z</Time>
            <Position>
              <LatitudeDegrees>43.837382085621356964111328125</LatitudeDegrees>
              <LongitudeDegrees>-1.35900531895458698272705078125</LongitudeDegrees>
            </Position>
            <AltitudeMeters>27.3999996185302734375</AltitudeMeters>
            <DistanceMeters>NAN</DistanceMeters>
          </Trackpoint>
          <Trackpoint>
            <Time>2022-07-06T17:10:30.000Z</Time>
            <Position>
              <LatitudeDegrees>43.83725392632186412811279296875</LatitudeDegrees>
              <LongitudeDegrees>-1.359075643122196197509765625</LongitudeDegrees>
            </Position>
            <AltitudeMeters>27.3999996185302734375</AltitudeMeters>
            <DistanceMeters>NAN</DistanceMeters>
          </Trackpoint>
          <Trackpoint>
            <Time>2022-07-06T17:10:31.000Z</Time>
            <Position>
              <LatitudeDegrees>43.83721235208213329315185546875</LatitudeDegrees>
              <LongitudeDegrees>-1.3590976037085056304931640625</LongitudeDegrees>
            </Position>
            <AltitudeMeters>27.6000003814697265625</AltitudeMeters>
            <DistanceMeters>NAN</DistanceMeters>
          </Trackpoint>
          <Trackpoint>
            <Time>2022-07-06T17:10:38.000Z</Time>
            <Position>
              <LatitudeDegrees>43.8369031436741352081298828125</LatitudeDegrees>
              <LongitudeDegrees>-1.359205730259418487548828125</LongitudeDegrees>
            </Position>
            <AltitudeMeters>27.3999996185302734375</AltitudeMeters>
            <DistanceMeters>NAN</DistanceMeters>
          </Trackpoint>
          <Trackpoint>
            <Time>2022-07-06T17:10:39.000Z</Time>
            <Position>
              <LatitudeDegrees>43.83685846813023090362548828125</LatitudeDegrees>
              <LongitudeDegrees>-1.35921319015324115753173828125</LongitudeDegrees>
            </Position>
            <AltitudeMeters>27.200000762939453125</AltitudeMeters>
            <DistanceMeters>NAN</DistanceMeters>
          </Trackpoint>
          <Trackpoint>
            <Time>2022-07-06T17:10:41.000Z</Time>
            <Position>
              <LatitudeDegrees>43.83679501712322235107421875</LatitudeDegrees>
              <LongitudeDegrees>-1.3592161238193511962890625</LongitudeDegrees>
            </Position>
            <AltitudeMeters>27.200000762939453125</AltitudeMeters>
            <DistanceMeters>NAN</DistanceMeters>
          </Trackpoint>
          <Trackpoint>
            <Time>2022-07-06T17:10:42.000Z</Time>
            <Position>
              <LatitudeDegrees>43.83674464188516139984130859375</LatitudeDegrees>
              <LongitudeDegrees>-1.359238922595977783203125</LongitudeDegrees>
            </Position>
            <AltitudeMeters>27.200000762939453125</AltitudeMeters>
            <DistanceMeters>NAN</DistanceMeters>
          </Trackpoint>
          <Trackpoint>
            <Time>2022-07-06T17:10:43.000Z</Time>
            <Position>
              <LatitudeDegrees>43.83669468574225902557373046875</LatitudeDegrees>
              <LongitudeDegrees>-1.35925560258328914642333984375</LongitudeDegrees>
            </Position>
            <AltitudeMeters>27.200000762939453125</AltitudeMeters>
            <DistanceMeters>NAN</DistanceMeters>
          </Trackpoint>
          <Trackpoint>
            <Time>2022-07-06T17:10:44.000Z</Time>
            <Position>
              <LatitudeDegrees>43.83662335574626922607421875</LatitudeDegrees>
              <LongitudeDegrees>-1.359271444380283355712890625</LongitudeDegrees>
            </Position>
            <AltitudeMeters>27.200000762939453125</AltitudeMeters>
            <DistanceMeters>NAN</DistanceMeters>
          </Trackpoint>
          <Trackpoint>
            <Time>2022-07-06T17:10:46.000Z</Time>
            <Position>
              <LatitudeDegrees>43.8365108706057071685791015625</LatitudeDegrees>
              <LongitudeDegrees>-1.35929147712886333465576171875</LongitudeDegrees>
            </Position>
            <AltitudeMeters>27.200000762939453125</AltitudeMeters>
            <DistanceMeters>NAN</DistanceMeters>
          </Trackpoint>
          <Trackpoint>
            <Time>2022-07-06T17:10:48.000Z</Time>
            <Position>
              <LatitudeDegrees>43.83641204796731472015380859375</LatitudeDegrees>
              <LongitudeDegrees>-1.35932232253253459930419921875</LongitudeDegrees>
            </Position>
            <AltitudeMeters>27.200000762939453125</AltitudeMeters>
            <DistanceMeters>NAN</DistanceMeters>
          </Trackpoint>
          <Trackpoint>
            <Time>2022-07-06T17:10:55.000Z</Time>
            <Position>
              <LatitudeDegrees>43.83611097000539302825927734375</LatitudeDegrees>
              <LongitudeDegrees>-1.35942039079964160919189453125</LongitudeDegrees>
            </Position>
            <AltitudeMeters>27.200000762939453125</AltitudeMeters>
            <DistanceMeters>NAN</DistanceMeters>
          </Trackpoint>
          <Trackpoint>
            <Time>2022-07-06T17:10:58.000Z</Time>
            <Position>
              <LatitudeDegrees>43.83598440326750278472900390625</LatitudeDegrees>
              <LongitudeDegrees>-1.35947319678962230682373046875</LongitudeDegrees>
            </Position>
            <AltitudeMeters>27.200000762939453125</AltitudeMeters>
            <DistanceMeters>NAN</DistanceMeters>
          </Trackpoint>
          <Trackpoint>
            <Time>2022-07-06T17:11:01.000Z</Time>
            <Position>
              <LatitudeDegrees>43.83585624396800994873046875</LatitudeDegrees>
              <LongitudeDegrees>-1.3595257513225078582763671875</LongitudeDegrees>
            </Position>
            <AltitudeMeters>27.200000762939453125</AltitudeMeters>
            <DistanceMeters>NAN</DistanceMeters>
          </Trackpoint>
          <Trackpoint>
            <Time>2022-07-06T17:11:09.000Z</Time>
            <Position>
              <LatitudeDegrees>43.835521303117275238037109375</LatitudeDegrees>
              <LongitudeDegrees>-1.359545029699802398681640625</LongitudeDegrees>
            </Position>
            <AltitudeMeters>27.200000762939453125</AltitudeMeters>
            <DistanceMeters>NAN</DistanceMeters>
          </Trackpoint>
          <Trackpoint>
            <Time>2022-07-06T17:11:14.000Z</Time>
            <Position>
              <LatitudeDegrees>43.8353243283927440643310546875</LatitudeDegrees>
              <LongitudeDegrees>-1.35955533944070339202880859375</LongitudeDegrees>
            </Position>
            <AltitudeMeters>27.3999996185302734375</AltitudeMeters>
            <DistanceMeters>NAN</DistanceMeters>
          </Trackpoint>
          <Trackpoint>
            <Time>2022-07-06T17:11:19.000Z</Time>
            <Position>
              <LatitudeDegrees>43.8351080752909183502197265625</LatitudeDegrees>
              <LongitudeDegrees>-1.359526924788951873779296875</LongitudeDegrees>
            </Position>
            <AltitudeMeters>27.6000003814697265625</AltitudeMeters>
            <DistanceMeters>NAN</DistanceMeters>
          </Trackpoint>
          <Trackpoint>
            <Time>2022-07-06T17:11:20.000Z</Time>
            <Position>
              <LatitudeDegrees>43.83506365120410919189453125</LatitudeDegrees>
              <LongitudeDegrees>-1.35952365584671497344970703125</LongitudeDegrees>
            </Position>
            <AltitudeMeters>27.6000003814697265625</AltitudeMeters>
            <DistanceMeters>NAN</DistanceMeters>
          </Trackpoint>
          <Trackpoint>
            <Time>2022-07-06T17:11:26.000Z</Time>
            <Position>
              <LatitudeDegrees>43.834817893803119659423828125</LatitudeDegrees>
              <LongitudeDegrees>-1.35951049625873565673828125</LongitudeDegrees>
            </Position>
            <AltitudeMeters>27.6000003814697265625</AltitudeMeters>
            <DistanceMeters>NAN</DistanceMeters>
          </Trackpoint>
          <Trackpoint>
            <Time>2022-07-06T17:11:28.000Z</Time>
            <Position>
              <LatitudeDegrees>43.83473332040011882781982421875</LatitudeDegrees>
              <LongitudeDegrees>-1.3595059700310230255126953125</LongitudeDegrees>
            </Position>
            <AltitudeMeters>27.3999996185302734375</AltitudeMeters>
            <DistanceMeters>NAN</DistanceMeters>
          </Trackpoint>
          <Trackpoint>
            <Time>2022-07-06T17:11:29.000Z</Time>
            <Position>
              <LatitudeDegrees>43.83469375781714916229248046875</LatitudeDegrees>
              <LongitudeDegrees>-1.359500773251056671142578125</LongitudeDegrees>
            </Position>
            <AltitudeMeters>27.3999996185302734375</AltitudeMeters>
            <DistanceMeters>NAN</DistanceMeters>
          </Trackpoint>
          <Trackpoint>
            <Time>2022-07-06T17:11:32.000Z</Time>
            <Position>
              <LatitudeDegrees>43.83457205258309841156005859375</LatitudeDegrees>
              <LongitudeDegrees>-1.35949130170047283172607421875</LongitudeDegrees>
            </Position>
            <AltitudeMeters>27.200000762939453125</AltitudeMeters>
            <DistanceMeters>NAN</DistanceMeters>
          </Trackpoint>
          <Trackpoint>
            <Time>2022-07-06T17:11:35.000Z</Time>
            <Position>
              <LatitudeDegrees>43.83444045670330524444580078125</LatitudeDegrees>
              <LongitudeDegrees>-1.35948593728244304656982421875</LongitudeDegrees>
            </Position>
            <AltitudeMeters>27</AltitudeMeters>
            <DistanceMeters>NAN</DistanceMeters>
          </Trackpoint>
          <Trackpoint>
            <Time>2022-07-06T17:11:39.000Z</Time>
            <Position>
              <LatitudeDegrees>43.83426544256508350372314453125</LatitudeDegrees>
              <LongitudeDegrees>-1.35947185568511486053466796875</LongitudeDegrees>
            </Position>
            <AltitudeMeters>27.200000762939453125</AltitudeMeters>
            <DistanceMeters>NAN</DistanceMeters>
          </Trackpoint>
          <Trackpoint>
            <Time>2022-07-06T17:11:44.000Z</Time>
            <Position>
              <LatitudeDegrees>43.83406360633671283721923828125</LatitudeDegrees>
              <LongitudeDegrees>-1.359454505145549774169921875</LongitudeDegrees>
            </Position>
            <AltitudeMeters>27.200000762939453125</AltitudeMeters>
            <DistanceMeters>NAN</DistanceMeters>
          </Trackpoint>
          <Trackpoint>
            <Time>2022-07-06T17:11:50.000Z</Time>
            <Position>
              <LatitudeDegrees>43.83382304571568965911865234375</LatitudeDegrees>
              <LongitudeDegrees>-1.35944017209112644195556640625</LongitudeDegrees>
            </Position>
            <AltitudeMeters>27</AltitudeMeters>
            <DistanceMeters>NAN</DistanceMeters>
          </Trackpoint>
          <Trackpoint>
            <Time>2022-07-06T17:11:53.000Z</Time>
            <Position>
              <LatitudeDegrees>43.83370167575776576995849609375</LatitudeDegrees>
              <LongitudeDegrees>-1.35944821871817111968994140625</LongitudeDegrees>
            </Position>
            <AltitudeMeters>27</AltitudeMeters>
            <DistanceMeters>NAN</DistanceMeters>
          </Trackpoint>
          <Trackpoint>
            <Time>2022-07-06T17:12:02.000Z</Time>
            <Position>
              <LatitudeDegrees>43.8333026133477687835693359375</LatitudeDegrees>
              <LongitudeDegrees>-1.3594613783061504364013671875</LongitudeDegrees>
            </Position>
            <AltitudeMeters>27.3999996185302734375</AltitudeMeters>
            <DistanceMeters>NAN</DistanceMeters>
          </Trackpoint>
          <Trackpoint>
            <Time>2022-07-06T17:12:12.000Z</Time>
            <Position>
              <LatitudeDegrees>43.83285887539386749267578125</LatitudeDegrees>
              <LongitudeDegrees>-1.359563805162906646728515625</LongitudeDegrees>
            </Position>
            <AltitudeMeters>27.3999996185302734375</AltitudeMeters>
            <DistanceMeters>NAN</DistanceMeters>
          </Trackpoint>
          <Trackpoint>
            <Time>2022-07-06T17:12:19.000Z</Time>
            <Position>
              <LatitudeDegrees>43.8325529359281063079833984375</LatitudeDegrees>
              <LongitudeDegrees>-1.359692551195621490478515625</LongitudeDegrees>
            </Position>
            <AltitudeMeters>27.3999996185302734375</AltitudeMeters>
            <DistanceMeters>NAN</DistanceMeters>
          </Trackpoint>
          <Trackpoint>
            <Time>2022-07-06T17:12:21.000Z</Time>
            <Position>
              <LatitudeDegrees>43.83246324956417083740234375</LatitudeDegrees>
              <LongitudeDegrees>-1.35973923839628696441650390625</LongitudeDegrees>
            </Position>
            <AltitudeMeters>27.3999996185302734375</AltitudeMeters>
            <DistanceMeters>NAN</DistanceMeters>
          </Trackpoint>
          <Trackpoint>
            <Time>2022-07-06T17:12:29.000Z</Time>
            <Position>
              <LatitudeDegrees>43.83211456239223480224609375</LatitudeDegrees>
              <LongitudeDegrees>-1.359943337738513946533203125</LongitudeDegrees>
            </Position>
            <AltitudeMeters>27.200000762939453125</AltitudeMeters>
            <DistanceMeters>NAN</DistanceMeters>
          </Trackpoint>
          <Trackpoint>
            <Time>2022-07-06T17:12:33.000Z</Time>
            <Position>
              <LatitudeDegrees>43.83194382302463054656982421875</LatitudeDegrees>
              <LongitudeDegrees>-1.360055319964885711669921875</LongitudeDegrees>
            </Position>
            <AltitudeMeters>27</AltitudeMeters>
            <DistanceMeters>NAN</DistanceMeters>
          </Trackpoint>
          <Trackpoint>
            <Time>2022-07-06T17:12:39.000Z</Time>
            <Position>
              <LatitudeDegrees>43.8316721655428409576416015625</LatitudeDegrees>
              <LongitudeDegrees>-1.360207535326480865478515625</LongitudeDegrees>
            </Position>
            <AltitudeMeters>26.6000003814697265625</AltitudeMeters>
            <DistanceMeters>NAN</DistanceMeters>
          </Trackpoint>
          <Trackpoint>
            <Time>2022-07-06T17:12:43.000Z</Time>
            <Position>
              <LatitudeDegrees>43.83149036206305027008056640625</LatitudeDegrees>
              <LongitudeDegrees>-1.36030820198357105255126953125</LongitudeDegrees>
            </Position>
            <AltitudeMeters>26.799999237060546875</AltitudeMeters>
            <DistanceMeters>NAN</DistanceMeters>
          </Trackpoint>
          <Trackpoint>
            <Time>2022-07-06T17:12:44.000Z</Time>
            <Position>
              <LatitudeDegrees>43.83144644089043140411376953125</LatitudeDegrees>
              <LongitudeDegrees>-1.36033183895051479339599609375</LongitudeDegrees>
            </Position>
            <AltitudeMeters>26.799999237060546875</AltitudeMeters>
            <DistanceMeters>NAN</DistanceMeters>
          </Trackpoint>
          <Trackpoint>
            <Time>2022-07-06T17:12:54.000Z</Time>
            <Position>
              <LatitudeDegrees>43.83098610676825046539306640625</LatitudeDegrees>
              <LongitudeDegrees>-1.3605894148349761962890625</LongitudeDegrees>
            </Position>
            <AltitudeMeters>26.3999996185302734375</AltitudeMeters>
            <DistanceMeters>NAN</DistanceMeters>
          </Trackpoint>
          <Trackpoint>
            <Time>2022-07-06T17:12:59.000Z</Time>
            <Position>
              <LatitudeDegrees>43.830746971070766448974609375</LatitudeDegrees>
              <LongitudeDegrees>-1.3607208430767059326171875</LongitudeDegrees>
            </Position>
            <AltitudeMeters>26.6000003814697265625</AltitudeMeters>
            <DistanceMeters>NAN</DistanceMeters>
          </Trackpoint>
          <Trackpoint>
            <Time>2022-07-06T17:13:02.000Z</Time>
            <Position>
              <LatitudeDegrees>43.8306069932878017425537109375</LatitudeDegrees>
              <LongitudeDegrees>-1.3608055002987384796142578125</LongitudeDegrees>
            </Position>
            <AltitudeMeters>26.3999996185302734375</AltitudeMeters>
            <DistanceMeters>NAN</DistanceMeters>
          </Trackpoint>
          <Trackpoint>
            <Time>2022-07-06T17:13:05.000Z</Time>
            <Position>
              <LatitudeDegrees>43.830463998019695281982421875</LatitudeDegrees>
              <LongitudeDegrees>-1.3608886487782001495361328125</LongitudeDegrees>
            </Position>
            <AltitudeMeters>26.200000762939453125</AltitudeMeters>
            <DistanceMeters>NAN</DistanceMeters>
          </Trackpoint>
          <Trackpoint>
            <Time>2022-07-06T17:13:06.000Z</Time>
            <Position>
              <LatitudeDegrees>43.8304106891155242919921875</LatitudeDegrees>
              <LongitudeDegrees>-1.36091907508671283721923828125</LongitudeDegrees>
            </Position>
            <AltitudeMeters>26.200000762939453125</AltitudeMeters>
            <DistanceMeters>NAN</DistanceMeters>
          </Trackpoint>
          <Trackpoint>
            <Time>2022-07-06T17:13:10.000Z</Time>
            <Position>
              <LatitudeDegrees>43.8302251137793064117431640625</LatitudeDegrees>
              <LongitudeDegrees>-1.36102485470473766326904296875</LongitudeDegrees>
            </Position>
            <AltitudeMeters>26</AltitudeMeters>
            <DistanceMeters>NAN</DistanceMeters>
          </Trackpoint>
          <Trackpoint>
            <Time>2022-07-06T17:13:13.000Z</Time>
            <Position>
              <LatitudeDegrees>43.83008203469216823577880859375</LatitudeDegrees>
              <LongitudeDegrees>-1.3611095957458019256591796875</LongitudeDegrees>
            </Position>
            <AltitudeMeters>25.799999237060546875</AltitudeMeters>
            <DistanceMeters>NAN</DistanceMeters>
          </Trackpoint>
          <Trackpoint>
            <Time>2022-07-06T17:13:15.000Z</Time>
            <Position>
              <LatitudeDegrees>43.82998631335794925689697265625</LatitudeDegrees>
              <LongitudeDegrees>-1.361168436706066131591796875</LongitudeDegrees>
            </Position>
            <AltitudeMeters>25.799999237060546875</AltitudeMeters>
            <DistanceMeters>NAN</DistanceMeters>
          </Trackpoint>
          <Trackpoint>
            <Time>2022-07-06T17:13:20.000Z</Time>
            <Position>
              <LatitudeDegrees>43.82974843494594097137451171875</LatitudeDegrees>
              <LongitudeDegrees>-1.36129776947200298309326171875</LongitudeDegrees>
            </Position>
            <AltitudeMeters>25.799999237060546875</AltitudeMeters>
            <DistanceMeters>NAN</DistanceMeters>
          </Trackpoint>
          <Trackpoint>
            <Time>2022-07-06T17:13:25.000Z</Time>
            <Position>
              <LatitudeDegrees>43.829509802162647247314453125</LatitudeDegrees>
              <LongitudeDegrees>-1.361427940428256988525390625</LongitudeDegrees>
            </Position>
            <AltitudeMeters>25.6000003814697265625</AltitudeMeters>
            <DistanceMeters>NAN</DistanceMeters>
          </Trackpoint>
          <Trackpoint>
            <Time>2022-07-06T17:13:27.000Z</Time>
            <Position>
              <LatitudeDegrees>43.8294147513806819915771484375</LatitudeDegrees>
              <LongitudeDegrees>-1.36148636229336261749267578125</LongitudeDegrees>
            </Position>
            <AltitudeMeters>25.6000003814697265625</AltitudeMeters>
            <DistanceMeters>NAN</DistanceMeters>
          </Trackpoint>
          <Trackpoint>
            <Time>2022-07-06T17:13:33.000Z</Time>
            <Position>
              <LatitudeDegrees>43.8291415013372898101806640625</LatitudeDegrees>
              <LongitudeDegrees>-1.36164419353008270263671875</LongitudeDegrees>
            </Position>
            <AltitudeMeters>25.3999996185302734375</AltitudeMeters>
            <DistanceMeters>NAN</DistanceMeters>
          </Trackpoint>
          <Trackpoint>
            <Time>2022-07-06T17:13:34.000Z</Time>
            <Position>
              <LatitudeDegrees>43.82909615524113178253173828125</LatitudeDegrees>
              <LongitudeDegrees>-1.3616742007434368133544921875</LongitudeDegrees>
            </Position>
            <AltitudeMeters>25.3999996185302734375</AltitudeMeters>
            <DistanceMeters>NAN</DistanceMeters>
          </Trackpoint>
          <Trackpoint>
            <Time>2022-07-06T17:13:41.000Z</Time>
            <Position>
              <LatitudeDegrees>43.82877881638705730438232421875</LatitudeDegrees>
              <LongitudeDegrees>-1.36183974333107471466064453125</LongitudeDegrees>
            </Position>
            <AltitudeMeters>25.3999996185302734375</AltitudeMeters>
            <DistanceMeters>NAN</DistanceMeters>
          </Trackpoint>
          <Trackpoint>
            <Time>2022-07-06T17:13:48.000Z</Time>
            <Position>
              <LatitudeDegrees>43.82845980115234851837158203125</LatitudeDegrees>
              <LongitudeDegrees>-1.362001597881317138671875</LongitudeDegrees>
            </Position>
            <AltitudeMeters>25</AltitudeMeters>
            <DistanceMeters>NAN</DistanceMeters>
          </Trackpoint>
          <Trackpoint>
            <Time>2022-07-06T17:13:49.000Z</Time>
            <Position>
              <LatitudeDegrees>43.82840917445719242095947265625</LatitudeDegrees>
              <LongitudeDegrees>-1.36202313937246799468994140625</LongitudeDegrees>
            </Position>
            <AltitudeMeters>25</AltitudeMeters>
            <DistanceMeters>NAN</DistanceMeters>
          </Trackpoint>
          <Trackpoint>
            <Time>2022-07-06T17:13:55.000Z</Time>
            <Position>
              <LatitudeDegrees>43.82812418974936008453369140625</LatitudeDegrees>
              <LongitudeDegrees>-1.36217082850635051727294921875</LongitudeDegrees>
            </Position>
            <AltitudeMeters>25.200000762939453125</AltitudeMeters>
            <DistanceMeters>NAN</DistanceMeters>
          </Trackpoint>
          <Trackpoint>
            <Time>2022-07-06T17:14:02.000Z</Time>
            <Position>
              <LatitudeDegrees>43.82781825028359889984130859375</LatitudeDegrees>
              <LongitudeDegrees>-1.3623162545263767242431640625</LongitudeDegrees>
            </Position>
            <AltitudeMeters>25.200000762939453125</AltitudeMeters>
            <DistanceMeters>NAN</DistanceMeters>
          </Trackpoint>
          <Trackpoint>
            <Time>2022-07-06T17:14:03.000Z</Time>
            <Position>
              <LatitudeDegrees>43.8277661986649036407470703125</LatitudeDegrees>
              <LongitudeDegrees>-1.362344920635223388671875</LongitudeDegrees>
            </Position>
            <AltitudeMeters>25.200000762939453125</AltitudeMeters>
            <DistanceMeters>NAN</DistanceMeters>
          </Trackpoint>
          <Trackpoint>
            <Time>2022-07-06T17:14:05.000Z</Time>
            <Position>
              <LatitudeDegrees>43.8276817090809345245361328125</LatitudeDegrees>
              <LongitudeDegrees>-1.3623963855206966400146484375</LongitudeDegrees>
            </Position>
            <AltitudeMeters>25.3999996185302734375</AltitudeMeters>
            <DistanceMeters>NAN</DistanceMeters>
          </Trackpoint>
          <Trackpoint>
            <Time>2022-07-06T17:14:07.000Z</Time>
            <Position>
              <LatitudeDegrees>43.82759864442050457000732421875</LatitudeDegrees>
              <LongitudeDegrees>-1.36243871413171291351318359375</LongitudeDegrees>
            </Position>
            <AltitudeMeters>25.3999996185302734375</AltitudeMeters>
            <DistanceMeters>NAN</DistanceMeters>
          </Trackpoint>
          <Trackpoint>
            <Time>2022-07-06T17:14:14.000Z</Time>
            <Position>
              <LatitudeDegrees>43.8273494504392147064208984375</LatitudeDegrees>
              <LongitudeDegrees>-1.362627558410167694091796875</LongitudeDegrees>
            </Position>
            <AltitudeMeters>25.3999996185302734375</AltitudeMeters>
            <DistanceMeters>NAN</DistanceMeters>
          </Trackpoint>
          <Trackpoint>
            <Time>2022-07-06T17:14:17.000Z</Time>
            <Position>
              <LatitudeDegrees>43.82722531445324420928955078125</LatitudeDegrees>
              <LongitudeDegrees>-1.362684555351734161376953125</LongitudeDegrees>
            </Position>
            <AltitudeMeters>25.3999996185302734375</AltitudeMeters>
            <DistanceMeters>NAN</DistanceMeters>
          </Trackpoint>
          <Trackpoint>
            <Time>2022-07-06T17:14:21.000Z</Time>
            <Position>
              <LatitudeDegrees>43.82706773467361927032470703125</LatitudeDegrees>
              <LongitudeDegrees>-1.3627772592008113861083984375</LongitudeDegrees>
            </Position>
            <AltitudeMeters>25.3999996185302734375</AltitudeMeters>
            <DistanceMeters>NAN</DistanceMeters>
          </Trackpoint>
          <Trackpoint>
            <Time>2022-07-06T17:14:23.000Z</Time>
            <Position>
              <LatitudeDegrees>43.827000595629215240478515625</LatitudeDegrees>
              <LongitudeDegrees>-1.362831406295299530029296875</LongitudeDegrees>
            </Position>
            <AltitudeMeters>25.3999996185302734375</AltitudeMeters>
            <DistanceMeters>NAN</DistanceMeters>
          </Trackpoint>
          <Trackpoint>
            <Time>2022-07-06T17:14:25.000Z</Time>
            <Position>
              <LatitudeDegrees>43.82690579630434513092041015625</LatitudeDegrees>
              <LongitudeDegrees>-1.36287289671599864959716796875</LongitudeDegrees>
            </Position>
            <AltitudeMeters>25.3999996185302734375</AltitudeMeters>
            <DistanceMeters>NAN</DistanceMeters>
          </Trackpoint>
          <Trackpoint>
            <Time>2022-07-06T17:14:26.000Z</Time>
            <Position>
              <LatitudeDegrees>43.8268649764358997344970703125</LatitudeDegrees>
              <LongitudeDegrees>-1.36289200745522975921630859375</LongitudeDegrees>
            </Position>
            <AltitudeMeters>25.3999996185302734375</AltitudeMeters>
            <DistanceMeters>NAN</DistanceMeters>
          </Trackpoint>
          <Trackpoint>
            <Time>2022-07-06T17:14:33.000Z</Time>
            <Position>
              <LatitudeDegrees>43.8265402615070343017578125</LatitudeDegrees>
              <LongitudeDegrees>-1.36301522143185138702392578125</LongitudeDegrees>
            </Position>
            <AltitudeMeters>25.3999996185302734375</AltitudeMeters>
            <DistanceMeters>NAN</DistanceMeters>
          </Trackpoint>
          <Trackpoint>
            <Time>2022-07-06T17:14:34.000Z</Time>
            <Position>
              <LatitudeDegrees>43.826467506587505340576171875</LatitudeDegrees>
              <LongitudeDegrees>-1.36304355226457118988037109375</LongitudeDegrees>
            </Position>
            <AltitudeMeters>25.3999996185302734375</AltitudeMeters>
            <DistanceMeters>NAN</DistanceMeters>
          </Trackpoint>
          <Trackpoint>
            <Time>2022-07-06T17:14:36.000Z</Time>
            <Position>
              <LatitudeDegrees>43.8264046423137187957763671875</LatitudeDegrees>
              <LongitudeDegrees>-1.36309635825455188751220703125</LongitudeDegrees>
            </Position>
            <AltitudeMeters>25.6000003814697265625</AltitudeMeters>
            <DistanceMeters>NAN</DistanceMeters>
          </Trackpoint>
          <Trackpoint>
            <Time>2022-07-06T17:14:38.000Z</Time>
            <Position>
              <LatitudeDegrees>43.82632493041455745697021484375</LatitudeDegrees>
              <LongitudeDegrees>-1.36314614675939083099365234375</LongitudeDegrees>
            </Position>
            <AltitudeMeters>25.6000003814697265625</AltitudeMeters>
            <DistanceMeters>NAN</DistanceMeters>
          </Trackpoint>
          <Trackpoint>
            <Time>2022-07-06T17:14:44.000Z</Time>
            <Position>
              <LatitudeDegrees>43.82605989463627338409423828125</LatitudeDegrees>
              <LongitudeDegrees>-1.36327757500112056732177734375</LongitudeDegrees>
            </Position>
            <AltitudeMeters>25.6000003814697265625</AltitudeMeters>
            <DistanceMeters>NAN</DistanceMeters>
          </Trackpoint>
          <Trackpoint>
            <Time>2022-07-06T17:14:51.000Z</Time>
            <Position>
              <LatitudeDegrees>43.82577658630907535552978515625</LatitudeDegrees>
              <LongitudeDegrees>-1.36348360218107700347900390625</LongitudeDegrees>
            </Position>
            <AltitudeMeters>25.3999996185302734375</AltitudeMeters>
            <DistanceMeters>NAN</DistanceMeters>
          </Trackpoint>
          <Trackpoint>
            <Time>2022-07-06T17:14:54.000Z</Time>
            <Position>
              <LatitudeDegrees>43.82565177977085113525390625</LatitudeDegrees>
              <LongitudeDegrees>-1.36354948394000530242919921875</LongitudeDegrees>
            </Position>
            <AltitudeMeters>25.200000762939453125</AltitudeMeters>
            <DistanceMeters>NAN</DistanceMeters>
          </Trackpoint>
          <Trackpoint>
            <Time>2022-07-06T17:14:56.000Z</Time>
            <Position>
              <LatitudeDegrees>43.82556318305432796478271484375</LatitudeDegrees>
              <LongitudeDegrees>-1.36357270181179046630859375</LongitudeDegrees>
            </Position>
            <AltitudeMeters>25.200000762939453125</AltitudeMeters>
            <DistanceMeters>NAN</DistanceMeters>
          </Trackpoint>
          <Trackpoint>
            <Time>2022-07-06T17:15:00.000Z</Time>
            <Position>
              <LatitudeDegrees>43.82541985251009464263916015625</LatitudeDegrees>
              <LongitudeDegrees>-1.363650821149349212646484375</LongitudeDegrees>
            </Position>
            <AltitudeMeters>25.200000762939453125</AltitudeMeters>
            <DistanceMeters>NAN</DistanceMeters>
          </Trackpoint>
          <Trackpoint>
            <Time>2022-07-06T17:15:03.000Z</Time>
            <Position>
              <LatitudeDegrees>43.8253666274249553680419921875</LatitudeDegrees>
              <LongitudeDegrees>-1.3637519069015979766845703125</LongitudeDegrees>
            </Position>
            <AltitudeMeters>25.3999996185302734375</AltitudeMeters>
            <DistanceMeters>NAN</DistanceMeters>
          </Trackpoint>
          <Trackpoint>
            <Time>2022-07-06T17:15:04.000Z</Time>
            <Position>
              <LatitudeDegrees>43.8253237120807170867919921875</LatitudeDegrees>
              <LongitudeDegrees>-1.3637656532227993011474609375</LongitudeDegrees>
            </Position>
            <AltitudeMeters>25.3999996185302734375</AltitudeMeters>
            <DistanceMeters>NAN</DistanceMeters>
          </Trackpoint>
          <Trackpoint>
            <Time>2022-07-06T17:15:06.000Z</Time>
            <Position>
              <LatitudeDegrees>43.82520024664700031280517578125</LatitudeDegrees>
              <LongitudeDegrees>-1.36374704539775848388671875</LongitudeDegrees>
            </Position>
            <AltitudeMeters>25.6000003814697265625</AltitudeMeters>
            <DistanceMeters>NAN</DistanceMeters>
          </Trackpoint>
          <Trackpoint>
            <Time>2022-07-06T17:15:08.000Z</Time>
            <Position>
              <LatitudeDegrees>43.82507870905101299285888671875</LatitudeDegrees>
              <LongitudeDegrees>-1.36374025605618953704833984375</LongitudeDegrees>
            </Position>
            <AltitudeMeters>25.6000003814697265625</AltitudeMeters>
            <DistanceMeters>NAN</DistanceMeters>
          </Trackpoint>
          <Trackpoint>
            <Time>2022-07-06T17:15:09.000Z</Time>
            <Position>
              <LatitudeDegrees>43.8250192813575267791748046875</LatitudeDegrees>
              <LongitudeDegrees>-1.3637569360435009002685546875</LongitudeDegrees>
            </Position>
            <AltitudeMeters>25.6000003814697265625</AltitudeMeters>
            <DistanceMeters>NAN</DistanceMeters>
          </Trackpoint>
          <Trackpoint>
            <Time>2022-07-06T17:15:11.000Z</Time>
            <Position>
              <LatitudeDegrees>43.82490620948374271392822265625</LatitudeDegrees>
              <LongitudeDegrees>-1.3638152740895748138427734375</LongitudeDegrees>
            </Position>
            <AltitudeMeters>25.6000003814697265625</AltitudeMeters>
            <DistanceMeters>NAN</DistanceMeters>
          </Trackpoint>
          <Trackpoint>
            <Time>2022-07-06T17:15:12.000Z</Time>
            <Position>
              <LatitudeDegrees>43.82486044429242610931396484375</LatitudeDegrees>
              <LongitudeDegrees>-1.36384771205484867095947265625</LongitudeDegrees>
            </Position>
            <AltitudeMeters>25.6000003814697265625</AltitudeMeters>
            <DistanceMeters>NAN</DistanceMeters>
          </Trackpoint>
          <Trackpoint>
            <Time>2022-07-06T17:15:14.000Z</Time>
            <Position>
              <LatitudeDegrees>43.82477545179426670074462890625</LatitudeDegrees>
              <LongitudeDegrees>-1.363905631005764007568359375</LongitudeDegrees>
            </Position>
            <AltitudeMeters>25.6000003814697265625</AltitudeMeters>
            <DistanceMeters>NAN</DistanceMeters>
          </Trackpoint>
          <Trackpoint>
            <Time>2022-07-06T17:15:16.000Z</Time>
            <Position>
              <LatitudeDegrees>43.82469615899026393890380859375</LatitudeDegrees>
              <LongitudeDegrees>-1.3639664836227893829345703125</LongitudeDegrees>
            </Position>
            <AltitudeMeters>25.6000003814697265625</AltitudeMeters>
            <DistanceMeters>NAN</DistanceMeters>
          </Trackpoint>
          <Trackpoint>
            <Time>2022-07-06T17:15:18.000Z</Time>
            <Position>
              <LatitudeDegrees>43.82460395805537700653076171875</LatitudeDegrees>
              <LongitudeDegrees>-1.36400193907320499420166015625</LongitudeDegrees>
            </Position>
            <AltitudeMeters>25.6000003814697265625</AltitudeMeters>
            <DistanceMeters>NAN</DistanceMeters>
          </Trackpoint>
          <Trackpoint>
            <Time>2022-07-06T17:15:19.000Z</Time>
            <Position>
              <LatitudeDegrees>43.8245616294443607330322265625</LatitudeDegrees>
              <LongitudeDegrees>-1.3640521466732025146484375</LongitudeDegrees>
            </Position>
            <AltitudeMeters>25.6000003814697265625</AltitudeMeters>
            <DistanceMeters>NAN</DistanceMeters>
          </Trackpoint>
          <Trackpoint>
            <Time>2022-07-06T17:15:20.000Z</Time>
            <Position>
              <LatitudeDegrees>43.82451896555721759796142578125</LatitudeDegrees>
              <LongitudeDegrees>-1.3640912063419818878173828125</LongitudeDegrees>
            </Position>
            <AltitudeMeters>25.6000003814697265625</AltitudeMeters>
            <DistanceMeters>NAN</DistanceMeters>
          </Trackpoint>
          <Trackpoint>
            <Time>2022-07-06T17:15:22.000Z</Time>
            <Position>
              <LatitudeDegrees>43.82441687397658824920654296875</LatitudeDegrees>
              <LongitudeDegrees>-1.364145688712596893310546875</LongitudeDegrees>
            </Position>
            <AltitudeMeters>25.3999996185302734375</AltitudeMeters>
            <DistanceMeters>NAN</DistanceMeters>
          </Trackpoint>
          <Trackpoint>
            <Time>2022-07-06T17:15:24.000Z</Time>
            <Position>
              <LatitudeDegrees>43.82428008131682872772216796875</LatitudeDegrees>
              <LongitudeDegrees>-1.36417427100241184234619140625</LongitudeDegrees>
            </Position>
            <AltitudeMeters>25.3999996185302734375</AltitudeMeters>
            <DistanceMeters>NAN</DistanceMeters>
          </Trackpoint>
          <Trackpoint>
            <Time>2022-07-06T17:15:26.000Z</Time>
            <Position>
              <LatitudeDegrees>43.824105150997638702392578125</LatitudeDegrees>
              <LongitudeDegrees>-1.3642199523746967315673828125</LongitudeDegrees>
            </Position>
            <AltitudeMeters>25.200000762939453125</AltitudeMeters>
            <DistanceMeters>NAN</DistanceMeters>
          </Trackpoint>
          <Trackpoint>
            <Time>2022-07-06T17:15:27.000Z</Time>
            <Position>
              <LatitudeDegrees>43.82404890842735767364501953125</LatitudeDegrees>
              <LongitudeDegrees>-1.36426395736634731292724609375</LongitudeDegrees>
            </Position>
            <AltitudeMeters>25.200000762939453125</AltitudeMeters>
            <DistanceMeters>NAN</DistanceMeters>
          </Trackpoint>
          <Trackpoint>
            <Time>2022-07-06T17:15:31.000Z</Time>
            <Position>
              <LatitudeDegrees>43.8238877244293689727783203125</LatitudeDegrees>
              <LongitudeDegrees>-1.36443126015365123748779296875</LongitudeDegrees>
            </Position>
            <AltitudeMeters>25</AltitudeMeters>
            <DistanceMeters>NAN</DistanceMeters>
          </Trackpoint>
          <Trackpoint>
            <Time>2022-07-06T17:15:32.000Z</Time>
            <Position>
              <LatitudeDegrees>43.82384824566543102264404296875</LatitudeDegrees>
              <LongitudeDegrees>-1.36448255740106105804443359375</LongitudeDegrees>
            </Position>
            <AltitudeMeters>25</AltitudeMeters>
            <DistanceMeters>NAN</DistanceMeters>
          </Trackpoint>
          <Trackpoint>
            <Time>2022-07-06T17:15:33.000Z</Time>
            <Position>
              <LatitudeDegrees>43.82381706498563289642333984375</LatitudeDegrees>
              <LongitudeDegrees>-1.36450367979705333709716796875</LongitudeDegrees>
            </Position>
            <AltitudeMeters>25</AltitudeMeters>
            <DistanceMeters>NAN</DistanceMeters>
          </Trackpoint>
          <Trackpoint>
            <Time>2022-07-06T17:15:36.000Z</Time>
            <Position>
              <LatitudeDegrees>43.82371815852820873260498046875</LatitudeDegrees>
              <LongitudeDegrees>-1.36458414606750011444091796875</LongitudeDegrees>
            </Position>
            <AltitudeMeters>25</AltitudeMeters>
            <DistanceMeters>NAN</DistanceMeters>
          </Trackpoint>
          <Trackpoint>
            <Time>2022-07-06T17:15:38.000Z</Time>
            <Position>
              <LatitudeDegrees>43.8235896639525890350341796875</LatitudeDegrees>
              <LongitudeDegrees>-1.3646180927753448486328125</LongitudeDegrees>
            </Position>
            <AltitudeMeters>25</AltitudeMeters>
            <DistanceMeters>NAN</DistanceMeters>
          </Trackpoint>
          <Trackpoint>
            <Time>2022-07-06T17:15:39.000Z</Time>
            <Position>
              <LatitudeDegrees>43.82353627122938632965087890625</LatitudeDegrees>
              <LongitudeDegrees>-1.364636532962322235107421875</LongitudeDegrees>
            </Position>
            <AltitudeMeters>25</AltitudeMeters>
            <DistanceMeters>NAN</DistanceMeters>
          </Trackpoint>
          <Trackpoint>
            <Time>2022-07-06T17:15:41.000Z</Time>
            <Position>
              <LatitudeDegrees>43.82343384437263011932373046875</LatitudeDegrees>
              <LongitudeDegrees>-1.36468037031590938568115234375</LongitudeDegrees>
            </Position>
            <AltitudeMeters>25</AltitudeMeters>
            <DistanceMeters>NAN</DistanceMeters>
          </Trackpoint>
          <Trackpoint>
            <Time>2022-07-06T17:15:43.000Z</Time>
            <Position>
              <LatitudeDegrees>43.823344409465789794921875</LatitudeDegrees>
              <LongitudeDegrees>-1.364716999232769012451171875</LongitudeDegrees>
            </Position>
            <AltitudeMeters>25</AltitudeMeters>
            <DistanceMeters>NAN</DistanceMeters>
          </Trackpoint>
          <Trackpoint>
            <Time>2022-07-06T17:15:46.000Z</Time>
            <Position>
              <LatitudeDegrees>43.82322362624108791351318359375</LatitudeDegrees>
              <LongitudeDegrees>-1.36477810330688953399658203125</LongitudeDegrees>
            </Position>
            <AltitudeMeters>24.6000003814697265625</AltitudeMeters>
            <DistanceMeters>NAN</DistanceMeters>
          </Trackpoint>
          <Trackpoint>
            <Time>2022-07-06T17:15:48.000Z</Time>
            <Position>
              <LatitudeDegrees>43.82314315997064113616943359375</LatitudeDegrees>
              <LongitudeDegrees>-1.3648080267012119293212890625</LongitudeDegrees>
            </Position>
            <AltitudeMeters>24.3999996185302734375</AltitudeMeters>
            <DistanceMeters>NAN</DistanceMeters>
          </Trackpoint>
          <Trackpoint>
            <Time>2022-07-06T17:15:50.000Z</Time>
            <Position>
              <LatitudeDegrees>43.8230890966951847076416015625</LatitudeDegrees>
              <LongitudeDegrees>-1.3648633472621440887451171875</LongitudeDegrees>
            </Position>
            <AltitudeMeters>24.3999996185302734375</AltitudeMeters>
            <DistanceMeters>NAN</DistanceMeters>
          </Trackpoint>
          <Trackpoint>
            <Time>2022-07-06T17:15:51.000Z</Time>
            <Position>
              <LatitudeDegrees>43.8230505399405956268310546875</LatitudeDegrees>
              <LongitudeDegrees>-1.36488388292491436004638671875</LongitudeDegrees>
            </Position>
            <AltitudeMeters>24.3999996185302734375</AltitudeMeters>
            <DistanceMeters>NAN</DistanceMeters>
          </Trackpoint>
          <Trackpoint>
            <Time>2022-07-06T17:15:52.000Z</Time>
            <Position>
              <LatitudeDegrees>43.82301357574760913848876953125</LatitudeDegrees>
              <LongitudeDegrees>-1.36490366421639919281005859375</LongitudeDegrees>
            </Position>
            <AltitudeMeters>24.3999996185302734375</AltitudeMeters>
            <DistanceMeters>NAN</DistanceMeters>
          </Trackpoint>
          <Trackpoint>
            <Time>2022-07-06T17:15:54.000Z</Time>
            <Position>
              <LatitudeDegrees>43.82292590104043483734130859375</LatitudeDegrees>
              <LongitudeDegrees>-1.36495412327349185943603515625</LongitudeDegrees>
            </Position>
            <AltitudeMeters>24.3999996185302734375</AltitudeMeters>
            <DistanceMeters>NAN</DistanceMeters>
          </Trackpoint>
          <Trackpoint>
            <Time>2022-07-06T17:15:56.000Z</Time>
            <Position>
              <LatitudeDegrees>43.82283671759068965911865234375</LatitudeDegrees>
              <LongitudeDegrees>-1.36504649184644222259521484375</LongitudeDegrees>
            </Position>
            <AltitudeMeters>24.3999996185302734375</AltitudeMeters>
            <DistanceMeters>NAN</DistanceMeters>
          </Trackpoint>
          <Trackpoint>
            <Time>2022-07-06T17:15:58.000Z</Time>
            <Position>
              <LatitudeDegrees>43.82272951304912567138671875</LatitudeDegrees>
              <LongitudeDegrees>-1.36510466225445270538330078125</LongitudeDegrees>
            </Position>
            <AltitudeMeters>24.3999996185302734375</AltitudeMeters>
            <DistanceMeters>NAN</DistanceMeters>
          </Trackpoint>
          <Trackpoint>
            <Time>2022-07-06T17:16:01.000Z</Time>
            <Position>
              <LatitudeDegrees>43.82254871539771556854248046875</LatitudeDegrees>
              <LongitudeDegrees>-1.36516367085278034210205078125</LongitudeDegrees>
            </Position>
            <AltitudeMeters>24</AltitudeMeters>
            <DistanceMeters>NAN</DistanceMeters>
          </Trackpoint>
          <Trackpoint>
            <Time>2022-07-06T17:16:02.000Z</Time>
            <Position>
              <LatitudeDegrees>43.82248635403811931610107421875</LatitudeDegrees>
              <LongitudeDegrees>-1.36518537998199462890625</LongitudeDegrees>
            </Position>
            <AltitudeMeters>24.200000762939453125</AltitudeMeters>
            <DistanceMeters>NAN</DistanceMeters>
          </Trackpoint>
          <Trackpoint>
            <Time>2022-07-06T17:16:04.000Z</Time>
            <Position>
              <LatitudeDegrees>43.82240236736834049224853515625</LatitudeDegrees>
              <LongitudeDegrees>-1.3653035648167133331298828125</LongitudeDegrees>
            </Position>
            <AltitudeMeters>24.200000762939453125</AltitudeMeters>
            <DistanceMeters>NAN</DistanceMeters>
          </Trackpoint>
          <Trackpoint>
            <Time>2022-07-06T17:16:11.000Z</Time>
            <Position>
              <LatitudeDegrees>43.82202367298305034637451171875</LatitudeDegrees>
              <LongitudeDegrees>-1.36554370634257793426513671875</LongitudeDegrees>
            </Position>
            <AltitudeMeters>24.200000762939453125</AltitudeMeters>
            <DistanceMeters>NAN</DistanceMeters>
          </Trackpoint>
          <Trackpoint>
            <Time>2022-07-06T17:16:17.000Z</Time>
            <Position>
              <LatitudeDegrees>43.8218137063086032867431640625</LatitudeDegrees>
              <LongitudeDegrees>-1.3657343946397304534912109375</LongitudeDegrees>
            </Position>
            <AltitudeMeters>24.200000762939453125</AltitudeMeters>
            <DistanceMeters>NAN</DistanceMeters>
          </Trackpoint>
          <Trackpoint>
            <Time>2022-07-06T17:16:24.000Z</Time>
            <Position>
              <LatitudeDegrees>43.82152427919209003448486328125</LatitudeDegrees>
              <LongitudeDegrees>-1.36590831913053989410400390625</LongitudeDegrees>
            </Position>
            <AltitudeMeters>24.3999996185302734375</AltitudeMeters>
            <DistanceMeters>NAN</DistanceMeters>
          </Trackpoint>
          <Trackpoint>
            <Time>2022-07-06T17:16:25.000Z</Time>
            <Position>
              <LatitudeDegrees>43.82148102857172489166259765625</LatitudeDegrees>
              <LongitudeDegrees>-1.36593296192586421966552734375</LongitudeDegrees>
            </Position>
            <AltitudeMeters>24.3999996185302734375</AltitudeMeters>
            <DistanceMeters>NAN</DistanceMeters>
          </Trackpoint>
          <Trackpoint>
            <Time>2022-07-06T17:16:26.000Z</Time>
            <Position>
              <LatitudeDegrees>43.82143040187656879425048828125</LatitudeDegrees>
              <LongitudeDegrees>-1.36596229858696460723876953125</LongitudeDegrees>
            </Position>
            <AltitudeMeters>24.3999996185302734375</AltitudeMeters>
            <DistanceMeters>NAN</DistanceMeters>
          </Trackpoint>
          <Trackpoint>
            <Time>2022-07-06T17:16:37.000Z</Time>
            <Position>
              <LatitudeDegrees>43.82096520625054836273193359375</LatitudeDegrees>
              <LongitudeDegrees>-1.36624543927609920501708984375</LongitudeDegrees>
            </Position>
            <AltitudeMeters>24.3999996185302734375</AltitudeMeters>
            <DistanceMeters>NAN</DistanceMeters>
          </Trackpoint>
          <Trackpoint>
            <Time>2022-07-06T17:16:41.000Z</Time>
            <Position>
              <LatitudeDegrees>43.82078826427459716796875</LatitudeDegrees>
              <LongitudeDegrees>-1.3663452677428722381591796875</LongitudeDegrees>
            </Position>
            <AltitudeMeters>24.200000762939453125</AltitudeMeters>
            <DistanceMeters>NAN</DistanceMeters>
          </Trackpoint>
          <Trackpoint>
            <Time>2022-07-06T17:16:44.000Z</Time>
            <Position>
              <LatitudeDegrees>43.82064568810164928436279296875</LatitudeDegrees>
              <LongitudeDegrees>-1.3664205372333526611328125</LongitudeDegrees>
            </Position>
            <AltitudeMeters>24.200000762939453125</AltitudeMeters>
            <DistanceMeters>NAN</DistanceMeters>
          </Trackpoint>
          <Trackpoint>
            <Time>2022-07-06T17:16:52.000Z</Time>
            <Position>
              <LatitudeDegrees>43.82026053965091705322265625</LatitudeDegrees>
              <LongitudeDegrees>-1.3666161708533763885498046875</LongitudeDegrees>
            </Position>
            <AltitudeMeters>23.799999237060546875</AltitudeMeters>
            <DistanceMeters>NAN</DistanceMeters>
          </Trackpoint>
          <Trackpoint>
            <Time>2022-07-06T17:16:53.000Z</Time>
            <Position>
              <LatitudeDegrees>43.82021653465926647186279296875</LatitudeDegrees>
              <LongitudeDegrees>-1.36664207093417644500732421875</LongitudeDegrees>
            </Position>
            <AltitudeMeters>23.799999237060546875</AltitudeMeters>
            <DistanceMeters>NAN</DistanceMeters>
          </Trackpoint>
          <Trackpoint>
            <Time>2022-07-06T17:16:59.000Z</Time>
            <Position>
              <LatitudeDegrees>43.81994412280619144439697265625</LatitudeDegrees>
              <LongitudeDegrees>-1.36680384166538715362548828125</LongitudeDegrees>
            </Position>
            <AltitudeMeters>23.6000003814697265625</AltitudeMeters>
            <DistanceMeters>NAN</DistanceMeters>
          </Trackpoint>
          <Trackpoint>
            <Time>2022-07-06T17:17:01.000Z</Time>
            <Position>
              <LatitudeDegrees>43.81985628046095371246337890625</LatitudeDegrees>
              <LongitudeDegrees>-1.36685379780828952789306640625</LongitudeDegrees>
            </Position>
            <AltitudeMeters>23.3999996185302734375</AltitudeMeters>
            <DistanceMeters>NAN</DistanceMeters>
          </Trackpoint>
          <Trackpoint>
            <Time>2022-07-06T17:17:04.000Z</Time>
            <Position>
              <LatitudeDegrees>43.81974111311137676239013671875</LatitudeDegrees>
              <LongitudeDegrees>-1.36692948639392852783203125</LongitudeDegrees>
            </Position>
            <AltitudeMeters>23</AltitudeMeters>
            <DistanceMeters>NAN</DistanceMeters>
          </Trackpoint>
          <Trackpoint>
            <Time>2022-07-06T17:17:10.000Z</Time>
            <Position>
              <LatitudeDegrees>43.81950289942324161529541015625</LatitudeDegrees>
              <LongitudeDegrees>-1.36705680750310420989990234375</LongitudeDegrees>
            </Position>
            <AltitudeMeters>23</AltitudeMeters>
            <DistanceMeters>NAN</DistanceMeters>
          </Trackpoint>
          <Trackpoint>
            <Time>2022-07-06T17:17:19.000Z</Time>
            <Position>
              <LatitudeDegrees>43.81918430328369140625</LatitudeDegrees>
              <LongitudeDegrees>-1.367237269878387451171875</LongitudeDegrees>
            </Position>
            <AltitudeMeters>22.200000762939453125</AltitudeMeters>
            <DistanceMeters>NAN</DistanceMeters>
          </Trackpoint>
          <Trackpoint>
            <Time>2022-07-06T17:17:20.000Z</Time>
            <Position>
              <LatitudeDegrees>43.81918430328369140625</LatitudeDegrees>
              <LongitudeDegrees>-1.367237269878387451171875</LongitudeDegrees>
            </Position>
            <AltitudeMeters>22</AltitudeMeters>
            <DistanceMeters>NAN</DistanceMeters>
          </Trackpoint>
          <Trackpoint>
            <Time>2022-07-06T17:17:22.000Z</Time>
            <Position>
              <LatitudeDegrees>43.81918673403561115264892578125</LatitudeDegrees>
              <LongitudeDegrees>-1.3672371022403240203857421875</LongitudeDegrees>
            </Position>
            <AltitudeMeters>21.6000003814697265625</AltitudeMeters>
            <DistanceMeters>NAN</DistanceMeters>
          </Trackpoint>
          <Trackpoint>
            <Time>2022-07-06T17:17:58.000Z</Time>
            <Position>
              <LatitudeDegrees>43.81914742290973663330078125</LatitudeDegrees>
              <LongitudeDegrees>-1.367249004542827606201171875</LongitudeDegrees>
            </Position>
            <AltitudeMeters>21.200000762939453125</AltitudeMeters>
            <DistanceMeters>NAN</DistanceMeters>
          </Trackpoint>
          <Trackpoint>
            <Time>2022-07-06T17:18:00.000Z</Time>
            <Position>
              <LatitudeDegrees>43.81908866576850414276123046875</LatitudeDegrees>
              <LongitudeDegrees>-1.36728647165000438690185546875</LongitudeDegrees>
            </Position>
            <AltitudeMeters>21.200000762939453125</AltitudeMeters>
            <DistanceMeters>NAN</DistanceMeters>
          </Trackpoint>
          <Trackpoint>
            <Time>2022-07-06T17:18:07.000Z</Time>
            <Position>
              <LatitudeDegrees>43.8188691437244415283203125</LatitudeDegrees>
              <LongitudeDegrees>-1.36739258654415607452392578125</LongitudeDegrees>
            </Position>
            <AltitudeMeters>21.200000762939453125</AltitudeMeters>
            <DistanceMeters>NAN</DistanceMeters>
          </Trackpoint>
          <Trackpoint>
            <Time>2022-07-06T17:18:15.000Z</Time>
            <Position>
              <LatitudeDegrees>43.81858013570308685302734375</LatitudeDegrees>
              <LongitudeDegrees>-1.367479003965854644775390625</LongitudeDegrees>
            </Position>
            <AltitudeMeters>21</AltitudeMeters>
            <DistanceMeters>NAN</DistanceMeters>
          </Trackpoint>
          <Trackpoint>
            <Time>2022-07-06T17:18:24.000Z</Time>
            <Position>
              <LatitudeDegrees>43.81822616793215274810791015625</LatitudeDegrees>
              <LongitudeDegrees>-1.367533989250659942626953125</LongitudeDegrees>
            </Position>
            <AltitudeMeters>21.200000762939453125</AltitudeMeters>
            <DistanceMeters>NAN</DistanceMeters>
          </Trackpoint>
          <Trackpoint>
            <Time>2022-07-06T17:18:26.000Z</Time>
            <Position>
              <LatitudeDegrees>43.8181571848690509796142578125</LatitudeDegrees>
              <LongitudeDegrees>-1.36754496954381465911865234375</LongitudeDegrees>
            </Position>
            <AltitudeMeters>21.200000762939453125</AltitudeMeters>
            <DistanceMeters>NAN</DistanceMeters>
          </Trackpoint>
          <Trackpoint>
            <Time>2022-07-06T17:18:27.000Z</Time>
            <Position>
              <LatitudeDegrees>43.818115778267383575439453125</LatitudeDegrees>
              <LongitudeDegrees>-1.36755033396184444427490234375</LongitudeDegrees>
            </Position>
            <AltitudeMeters>21.200000762939453125</AltitudeMeters>
            <DistanceMeters>NAN</DistanceMeters>
          </Trackpoint>
          <Trackpoint>
            <Time>2022-07-06T17:18:28.000Z</Time>
            <Position>
              <LatitudeDegrees>43.81807261146605014801025390625</LatitudeDegrees>
              <LongitudeDegrees>-1.36755335144698619842529296875</LongitudeDegrees>
            </Position>
            <AltitudeMeters>21.200000762939453125</AltitudeMeters>
            <DistanceMeters>NAN</DistanceMeters>
          </Trackpoint>
          <Trackpoint>
            <Time>2022-07-06T17:18:30.000Z</Time>
            <Position>
              <LatitudeDegrees>43.817995749413967132568359375</LatitudeDegrees>
              <LongitudeDegrees>-1.36757262982428073883056640625</LongitudeDegrees>
            </Position>
            <AltitudeMeters>21.3999996185302734375</AltitudeMeters>
            <DistanceMeters>NAN</DistanceMeters>
          </Trackpoint>
          <Trackpoint>
            <Time>2022-07-06T17:18:31.000Z</Time>
            <Position>
              <LatitudeDegrees>43.817957527935504913330078125</LatitudeDegrees>
              <LongitudeDegrees>-1.36758738197386264801025390625</LongitudeDegrees>
            </Position>
            <AltitudeMeters>21.3999996185302734375</AltitudeMeters>
            <DistanceMeters>NAN</DistanceMeters>
          </Trackpoint>
          <Trackpoint>
            <Time>2022-07-06T17:18:33.000Z</Time>
            <Position>
              <LatitudeDegrees>43.8178691826760768890380859375</LatitudeDegrees>
              <LongitudeDegrees>-1.36759492568671703338623046875</LongitudeDegrees>
            </Position>
            <AltitudeMeters>21.3999996185302734375</AltitudeMeters>
            <DistanceMeters>NAN</DistanceMeters>
          </Trackpoint>
          <Trackpoint>
            <Time>2022-07-06T17:18:36.000Z</Time>
            <Position>
              <LatitudeDegrees>43.81773884408175945281982421875</LatitudeDegrees>
              <LongitudeDegrees>-1.36762359179556369781494140625</LongitudeDegrees>
            </Position>
            <AltitudeMeters>21.6000003814697265625</AltitudeMeters>
            <DistanceMeters>NAN</DistanceMeters>
          </Trackpoint>
          <Trackpoint>
            <Time>2022-07-06T17:18:41.000Z</Time>
            <Position>
              <LatitudeDegrees>43.8175158016383647918701171875</LatitudeDegrees>
              <LongitudeDegrees>-1.367646642029285430908203125</LongitudeDegrees>
            </Position>
            <AltitudeMeters>21</AltitudeMeters>
            <DistanceMeters>NAN</DistanceMeters>
          </Trackpoint>
          <Trackpoint>
            <Time>2022-07-06T17:18:42.000Z</Time>
            <Position>
              <LatitudeDegrees>43.817458637058734893798828125</LatitudeDegrees>
              <LongitudeDegrees>-1.36765058152377605438232421875</LongitudeDegrees>
            </Position>
            <AltitudeMeters>21</AltitudeMeters>
            <DistanceMeters>NAN</DistanceMeters>
          </Trackpoint>
          <Trackpoint>
            <Time>2022-07-06T17:18:43.000Z</Time>
            <Position>
              <LatitudeDegrees>43.81740272976458072662353515625</LatitudeDegrees>
              <LongitudeDegrees>-1.3676597177982330322265625</LongitudeDegrees>
            </Position>
            <AltitudeMeters>21</AltitudeMeters>
            <DistanceMeters>NAN</DistanceMeters>
          </Trackpoint>
          <Trackpoint>
            <Time>2022-07-06T17:18:46.000Z</Time>
            <Position>
              <LatitudeDegrees>43.817276246845722198486328125</LatitudeDegrees>
              <LongitudeDegrees>-1.36768327094614505767822265625</LongitudeDegrees>
            </Position>
            <AltitudeMeters>21</AltitudeMeters>
            <DistanceMeters>NAN</DistanceMeters>
          </Trackpoint>
          <Trackpoint>
            <Time>2022-07-06T17:18:50.000Z</Time>
            <Position>
              <LatitudeDegrees>43.8171101175248622894287109375</LatitudeDegrees>
              <LongitudeDegrees>-1.36769869364798069000244140625</LongitudeDegrees>
            </Position>
            <AltitudeMeters>21</AltitudeMeters>
            <DistanceMeters>NAN</DistanceMeters>
          </Trackpoint>
          <Trackpoint>
            <Time>2022-07-06T17:18:52.000Z</Time>
            <Position>
              <LatitudeDegrees>43.81701934151351451873779296875</LatitudeDegrees>
              <LongitudeDegrees>-1.36770908720791339874267578125</LongitudeDegrees>
            </Position>
            <AltitudeMeters>21.200000762939453125</AltitudeMeters>
            <DistanceMeters>NAN</DistanceMeters>
          </Trackpoint>
          <Trackpoint>
            <Time>2022-07-06T17:18:55.000Z</Time>
            <Position>
              <LatitudeDegrees>43.8168663717806339263916015625</LatitudeDegrees>
              <LongitudeDegrees>-1.3677403517067432403564453125</LongitudeDegrees>
            </Position>
            <AltitudeMeters>21.3999996185302734375</AltitudeMeters>
            <DistanceMeters>NAN</DistanceMeters>
          </Trackpoint>
          <Trackpoint>
            <Time>2022-07-06T17:18:57.000Z</Time>
            <Position>
              <LatitudeDegrees>43.81674340926110744476318359375</LatitudeDegrees>
              <LongitudeDegrees>-1.36776507832109928131103515625</LongitudeDegrees>
            </Position>
            <AltitudeMeters>21.3999996185302734375</AltitudeMeters>
            <DistanceMeters>NAN</DistanceMeters>
          </Trackpoint>
          <Trackpoint>
            <Time>2022-07-06T17:18:59.000Z</Time>
            <Position>
              <LatitudeDegrees>43.81664299406111240386962890625</LatitudeDegrees>
              <LongitudeDegrees>-1.3677802495658397674560546875</LongitudeDegrees>
            </Position>
            <AltitudeMeters>21.3999996185302734375</AltitudeMeters>
            <DistanceMeters>NAN</DistanceMeters>
          </Trackpoint>
          <Trackpoint>
            <Time>2022-07-06T17:19:01.000Z</Time>
            <Position>
              <LatitudeDegrees>43.81655179895460605621337890625</LatitudeDegrees>
              <LongitudeDegrees>-1.36780531145632266998291015625</LongitudeDegrees>
            </Position>
            <AltitudeMeters>21.3999996185302734375</AltitudeMeters>
            <DistanceMeters>NAN</DistanceMeters>
          </Trackpoint>
          <Trackpoint>
            <Time>2022-07-06T17:19:02.000Z</Time>
            <Position>
              <LatitudeDegrees>43.81650435738265514373779296875</LatitudeDegrees>
              <LongitudeDegrees>-1.36781788431107997894287109375</LongitudeDegrees>
            </Position>
            <AltitudeMeters>21.3999996185302734375</AltitudeMeters>
            <DistanceMeters>NAN</DistanceMeters>
          </Trackpoint>
          <Trackpoint>
            <Time>2022-07-06T17:19:07.000Z</Time>
            <Position>
              <LatitudeDegrees>43.81625826470553874969482421875</LatitudeDegrees>
              <LongitudeDegrees>-1.3678474724292755126953125</LongitudeDegrees>
            </Position>
            <AltitudeMeters>21.3999996185302734375</AltitudeMeters>
            <DistanceMeters>NAN</DistanceMeters>
          </Trackpoint>
          <Trackpoint>
            <Time>2022-07-06T17:19:13.000Z</Time>
            <Position>
              <LatitudeDegrees>43.815991468727588653564453125</LatitudeDegrees>
              <LongitudeDegrees>-1.3679066486656665802001953125</LongitudeDegrees>
            </Position>
            <AltitudeMeters>21.3999996185302734375</AltitudeMeters>
            <DistanceMeters>NAN</DistanceMeters>
          </Trackpoint>
          <Trackpoint>
            <Time>2022-07-06T17:19:14.000Z</Time>
            <Position>
              <LatitudeDegrees>43.81594218313694000244140625</LatitudeDegrees>
              <LongitudeDegrees>-1.3679126836359500885009765625</LongitudeDegrees>
            </Position>
            <AltitudeMeters>21.6000003814697265625</AltitudeMeters>
            <DistanceMeters>NAN</DistanceMeters>
          </Trackpoint>
          <Trackpoint>
            <Time>2022-07-06T17:19:21.000Z</Time>
            <Position>
              <LatitudeDegrees>43.8156644068658351898193359375</LatitudeDegrees>
              <LongitudeDegrees>-1.36796347796916961669921875</LongitudeDegrees>
            </Position>
            <AltitudeMeters>21.3999996185302734375</AltitudeMeters>
            <DistanceMeters>NAN</DistanceMeters>
          </Trackpoint>
          <Trackpoint>
            <Time>2022-07-06T17:19:25.000Z</Time>
            <Position>
              <LatitudeDegrees>43.815497942268848419189453125</LatitudeDegrees>
              <LongitudeDegrees>-1.3679493963718414306640625</LongitudeDegrees>
            </Position>
            <AltitudeMeters>21.200000762939453125</AltitudeMeters>
            <DistanceMeters>NAN</DistanceMeters>
          </Trackpoint>
          <Trackpoint>
            <Time>2022-07-06T17:19:28.000Z</Time>
            <Position>
              <LatitudeDegrees>43.8152982853353023529052734375</LatitudeDegrees>
              <LongitudeDegrees>-1.3680189661681652069091796875</LongitudeDegrees>
            </Position>
            <AltitudeMeters>21</AltitudeMeters>
            <DistanceMeters>NAN</DistanceMeters>
          </Trackpoint>
          <Trackpoint>
            <Time>2022-07-06T17:19:32.000Z</Time>
            <Position>
              <LatitudeDegrees>43.8151205889880657196044921875</LatitudeDegrees>
              <LongitudeDegrees>-1.368030868470668792724609375</LongitudeDegrees>
            </Position>
            <AltitudeMeters>21</AltitudeMeters>
            <DistanceMeters>NAN</DistanceMeters>
          </Trackpoint>
          <Trackpoint>
            <Time>2022-07-06T17:19:36.000Z</Time>
            <Position>
              <LatitudeDegrees>43.81495378911495208740234375</LatitudeDegrees>
              <LongitudeDegrees>-1.36804997920989990234375</LongitudeDegrees>
            </Position>
            <AltitudeMeters>21</AltitudeMeters>
            <DistanceMeters>NAN</DistanceMeters>
          </Trackpoint>
          <Trackpoint>
            <Time>2022-07-06T17:19:37.000Z</Time>
            <Position>
              <LatitudeDegrees>43.81492068059742450714111328125</LatitudeDegrees>
              <LongitudeDegrees>-1.36804603971540927886962890625</LongitudeDegrees>
            </Position>
            <AltitudeMeters>21</AltitudeMeters>
            <DistanceMeters>NAN</DistanceMeters>
          </Trackpoint>
          <Trackpoint>
            <Time>2022-07-06T17:19:38.000Z</Time>
            <Position>
              <LatitudeDegrees>43.8149029947817325592041015625</LatitudeDegrees>
              <LongitudeDegrees>-1.36804168112576007843017578125</LongitudeDegrees>
            </Position>
            <AltitudeMeters>21</AltitudeMeters>
            <DistanceMeters>NAN</DistanceMeters>
          </Trackpoint>
          <Trackpoint>
            <Time>2022-07-06T17:19:40.000Z</Time>
            <Position>
              <LatitudeDegrees>43.81489838473498821258544921875</LatitudeDegrees>
              <LongitudeDegrees>-1.3680474646389484405517578125</LongitudeDegrees>
            </Position>
            <AltitudeMeters>21</AltitudeMeters>
            <DistanceMeters>NAN</DistanceMeters>
          </Trackpoint>
          <Trackpoint>
            <Time>2022-07-06T17:19:41.000Z</Time>
            <Position>
              <LatitudeDegrees>43.81489838473498821258544921875</LatitudeDegrees>
              <LongitudeDegrees>-1.3680474646389484405517578125</LongitudeDegrees>
            </Position>
            <AltitudeMeters>21</AltitudeMeters>
            <DistanceMeters>NAN</DistanceMeters>
          </Trackpoint>
          <Trackpoint>
            <Time>2022-07-06T17:24:41.000Z</Time>
            <Position>
              <LatitudeDegrees>43.81484515964984893798828125</LatitudeDegrees>
              <LongitudeDegrees>-1.368078477680683135986328125</LongitudeDegrees>
            </Position>
            <AltitudeMeters>19.200000762939453125</AltitudeMeters>
            <DistanceMeters>NAN</DistanceMeters>
          </Trackpoint>
          <Trackpoint>
            <Time>2022-07-06T17:24:43.000Z</Time>
            <Position>
              <LatitudeDegrees>43.8148047588765621185302734375</LatitudeDegrees>
              <LongitudeDegrees>-1.36810831725597381591796875</LongitudeDegrees>
            </Position>
            <AltitudeMeters>19.200000762939453125</AltitudeMeters>
            <DistanceMeters>NAN</DistanceMeters>
          </Trackpoint>
          <Trackpoint>
            <Time>2022-07-06T17:24:48.000Z</Time>
            <Position>
              <LatitudeDegrees>43.81463619880378246307373046875</LatitudeDegrees>
              <LongitudeDegrees>-1.3681800663471221923828125</LongitudeDegrees>
            </Position>
            <AltitudeMeters>19.200000762939453125</AltitudeMeters>
            <DistanceMeters>NAN</DistanceMeters>
          </Trackpoint>
          <Trackpoint>
            <Time>2022-07-06T17:24:51.000Z</Time>
            <Position>
              <LatitudeDegrees>43.81453477777540683746337890625</LatitudeDegrees>
              <LongitudeDegrees>-1.368201859295368194580078125</LongitudeDegrees>
            </Position>
            <AltitudeMeters>19.200000762939453125</AltitudeMeters>
            <DistanceMeters>NAN</DistanceMeters>
          </Trackpoint>
          <Trackpoint>
            <Time>2022-07-06T17:24:54.000Z</Time>
            <Position>
              <LatitudeDegrees>43.814461268484592437744140625</LatitudeDegrees>
              <LongitudeDegrees>-1.36822038330137729644775390625</LongitudeDegrees>
            </Position>
            <AltitudeMeters>19</AltitudeMeters>
            <DistanceMeters>NAN</DistanceMeters>
          </Trackpoint>
          <Trackpoint>
            <Time>2022-07-06T17:24:59.000Z</Time>
            <Position>
              <LatitudeDegrees>43.81431668065488338470458984375</LatitudeDegrees>
              <LongitudeDegrees>-1.36825072579085826873779296875</LongitudeDegrees>
            </Position>
            <AltitudeMeters>18.799999237060546875</AltitudeMeters>
            <DistanceMeters>NAN</DistanceMeters>
          </Trackpoint>
          <Trackpoint>
            <Time>2022-07-06T17:25:03.000Z</Time>
            <Position>
              <LatitudeDegrees>43.81418131291866302490234375</LatitudeDegrees>
              <LongitudeDegrees>-1.3683016039431095123291015625</LongitudeDegrees>
            </Position>
            <AltitudeMeters>19</AltitudeMeters>
            <DistanceMeters>NAN</DistanceMeters>
          </Trackpoint>
          <Trackpoint>
            <Time>2022-07-06T17:25:08.000Z</Time>
            <Position>
              <LatitudeDegrees>43.81398995406925678253173828125</LatitudeDegrees>
              <LongitudeDegrees>-1.36835969053208827972412109375</LongitudeDegrees>
            </Position>
            <AltitudeMeters>19</AltitudeMeters>
            <DistanceMeters>NAN</DistanceMeters>
          </Trackpoint>
          <Trackpoint>
            <Time>2022-07-06T17:25:09.000Z</Time>
            <Position>
              <LatitudeDegrees>43.81394888274371623992919921875</LatitudeDegrees>
              <LongitudeDegrees>-1.368375532329082489013671875</LongitudeDegrees>
            </Position>
            <AltitudeMeters>19</AltitudeMeters>
            <DistanceMeters>NAN</DistanceMeters>
          </Trackpoint>
          <Trackpoint>
            <Time>2022-07-06T17:25:17.000Z</Time>
            <Position>
              <LatitudeDegrees>43.81364160217344760894775390625</LatitudeDegrees>
              <LongitudeDegrees>-1.36853051371872425079345703125</LongitudeDegrees>
            </Position>
            <AltitudeMeters>19</AltitudeMeters>
            <DistanceMeters>NAN</DistanceMeters>
          </Trackpoint>
          <Trackpoint>
            <Time>2022-07-06T17:25:28.000Z</Time>
            <Position>
              <LatitudeDegrees>43.813202641904354095458984375</LatitudeDegrees>
              <LongitudeDegrees>-1.36883259750902652740478515625</LongitudeDegrees>
            </Position>
            <AltitudeMeters>19.200000762939453125</AltitudeMeters>
            <DistanceMeters>NAN</DistanceMeters>
          </Trackpoint>
          <Trackpoint>
            <Time>2022-07-06T17:25:32.000Z</Time>
            <Position>
              <LatitudeDegrees>43.8130452297627925872802734375</LatitudeDegrees>
              <LongitudeDegrees>-1.36897190473973751068115234375</LongitudeDegrees>
            </Position>
            <AltitudeMeters>18.799999237060546875</AltitudeMeters>
            <DistanceMeters>NAN</DistanceMeters>
          </Trackpoint>
          <Trackpoint>
            <Time>2022-07-06T17:25:35.000Z</Time>
            <Position>
              <LatitudeDegrees>43.81293064914643764495849609375</LatitudeDegrees>
              <LongitudeDegrees>-1.3690770976245403289794921875</LongitudeDegrees>
            </Position>
            <AltitudeMeters>18.799999237060546875</AltitudeMeters>
            <DistanceMeters>NAN</DistanceMeters>
          </Trackpoint>
          <Trackpoint>
            <Time>2022-07-06T17:25:44.000Z</Time>
            <Position>
              <LatitudeDegrees>43.812581039965152740478515625</LatitudeDegrees>
              <LongitudeDegrees>-1.36942285113036632537841796875</LongitudeDegrees>
            </Position>
            <AltitudeMeters>18.3999996185302734375</AltitudeMeters>
            <DistanceMeters>NAN</DistanceMeters>
          </Trackpoint>
          <Trackpoint>
            <Time>2022-07-06T17:25:47.000Z</Time>
            <Position>
              <LatitudeDegrees>43.81246067583560943603515625</LatitudeDegrees>
              <LongitudeDegrees>-1.369538269937038421630859375</LongitudeDegrees>
            </Position>
            <AltitudeMeters>18.200000762939453125</AltitudeMeters>
            <DistanceMeters>NAN</DistanceMeters>
          </Trackpoint>
          <Trackpoint>
            <Time>2022-07-06T17:25:48.000Z</Time>
            <Position>
              <LatitudeDegrees>43.812420777976512908935546875</LatitudeDegrees>
              <LongitudeDegrees>-1.3695746473968029022216796875</LongitudeDegrees>
            </Position>
            <AltitudeMeters>18.200000762939453125</AltitudeMeters>
            <DistanceMeters>NAN</DistanceMeters>
          </Trackpoint>
          <Trackpoint>
            <Time>2022-07-06T17:25:50.000Z</Time>
            <Position>
              <LatitudeDegrees>43.81233788095414638519287109375</LatitudeDegrees>
              <LongitudeDegrees>-1.36964547447860240936279296875</LongitudeDegrees>
            </Position>
            <AltitudeMeters>18</AltitudeMeters>
            <DistanceMeters>NAN</DistanceMeters>
          </Trackpoint>
          <Trackpoint>
            <Time>2022-07-06T17:25:53.000Z</Time>
            <Position>
              <LatitudeDegrees>43.812218606472015380859375</LatitudeDegrees>
              <LongitudeDegrees>-1.36976466514170169830322265625</LongitudeDegrees>
            </Position>
            <AltitudeMeters>17.799999237060546875</AltitudeMeters>
            <DistanceMeters>NAN</DistanceMeters>
          </Trackpoint>
          <Trackpoint>
            <Time>2022-07-06T17:26:00.000Z</Time>
            <Position>
              <LatitudeDegrees>43.8119421713054180145263671875</LatitudeDegrees>
              <LongitudeDegrees>-1.3700262643396854400634765625</LongitudeDegrees>
            </Position>
            <AltitudeMeters>17.6000003814697265625</AltitudeMeters>
            <DistanceMeters>NAN</DistanceMeters>
          </Trackpoint>
          <Trackpoint>
            <Time>2022-07-06T17:26:08.000Z</Time>
            <Position>
              <LatitudeDegrees>43.8116327114403247833251953125</LatitudeDegrees>
              <LongitudeDegrees>-1.3703347183763980865478515625</LongitudeDegrees>
            </Position>
            <AltitudeMeters>18</AltitudeMeters>
            <DistanceMeters>NAN</DistanceMeters>
          </Trackpoint>
          <Trackpoint>
            <Time>2022-07-06T17:26:16.000Z</Time>
            <Position>
              <LatitudeDegrees>43.811311013996601104736328125</LatitudeDegrees>
              <LongitudeDegrees>-1.37061484158039093017578125</LongitudeDegrees>
            </Position>
            <AltitudeMeters>18.200000762939453125</AltitudeMeters>
            <DistanceMeters>NAN</DistanceMeters>
          </Trackpoint>
          <Trackpoint>
            <Time>2022-07-06T17:26:19.000Z</Time>
            <Position>
              <LatitudeDegrees>43.8111981935799121856689453125</LatitudeDegrees>
              <LongitudeDegrees>-1.370713412761688232421875</LongitudeDegrees>
            </Position>
            <AltitudeMeters>18</AltitudeMeters>
            <DistanceMeters>NAN</DistanceMeters>
          </Trackpoint>
          <Trackpoint>
            <Time>2022-07-06T17:26:21.000Z</Time>
            <Position>
              <LatitudeDegrees>43.81111445836722850799560546875</LatitudeDegrees>
              <LongitudeDegrees>-1.3707818090915679931640625</LongitudeDegrees>
            </Position>
            <AltitudeMeters>18</AltitudeMeters>
            <DistanceMeters>NAN</DistanceMeters>
          </Trackpoint>
          <Trackpoint>
            <Time>2022-07-06T17:26:22.000Z</Time>
            <Position>
              <LatitudeDegrees>43.81107724271714687347412109375</LatitudeDegrees>
              <LongitudeDegrees>-1.3708235509693622589111328125</LongitudeDegrees>
            </Position>
            <AltitudeMeters>18</AltitudeMeters>
            <DistanceMeters>NAN</DistanceMeters>
          </Trackpoint>
          <Trackpoint>
            <Time>2022-07-06T17:26:27.000Z</Time>
            <Position>
              <LatitudeDegrees>43.8109058327972888946533203125</LatitudeDegrees>
              <LongitudeDegrees>-1.371014155447483062744140625</LongitudeDegrees>
            </Position>
            <AltitudeMeters>18.200000762939453125</AltitudeMeters>
            <DistanceMeters>NAN</DistanceMeters>
          </Trackpoint>
          <Trackpoint>
            <Time>2022-07-06T17:26:29.000Z</Time>
            <Position>
              <LatitudeDegrees>43.81082578562200069427490234375</LatitudeDegrees>
              <LongitudeDegrees>-1.371088586747646331787109375</LongitudeDegrees>
            </Position>
            <AltitudeMeters>18.200000762939453125</AltitudeMeters>
            <DistanceMeters>NAN</DistanceMeters>
          </Trackpoint>
          <Trackpoint>
            <Time>2022-07-06T17:26:32.000Z</Time>
            <Position>
              <LatitudeDegrees>43.810708522796630859375</LatitudeDegrees>
              <LongitudeDegrees>-1.37119528837502002716064453125</LongitudeDegrees>
            </Position>
            <AltitudeMeters>18.3999996185302734375</AltitudeMeters>
            <DistanceMeters>NAN</DistanceMeters>
          </Trackpoint>
          <Trackpoint>
            <Time>2022-07-06T17:26:35.000Z</Time>
            <Position>
              <LatitudeDegrees>43.81061674095690250396728515625</LatitudeDegrees>
              <LongitudeDegrees>-1.37129754759371280670166015625</LongitudeDegrees>
            </Position>
            <AltitudeMeters>18.200000762939453125</AltitudeMeters>
            <DistanceMeters>NAN</DistanceMeters>
          </Trackpoint>
          <Trackpoint>
            <Time>2022-07-06T17:26:44.000Z</Time>
            <Position>
              <LatitudeDegrees>43.81031599827110767364501953125</LatitudeDegrees>
              <LongitudeDegrees>-1.37163466773927211761474609375</LongitudeDegrees>
            </Position>
            <AltitudeMeters>18</AltitudeMeters>
            <DistanceMeters>NAN</DistanceMeters>
          </Trackpoint>
          <Trackpoint>
            <Time>2022-07-06T17:26:51.000Z</Time>
            <Position>
              <LatitudeDegrees>43.81007325835525989532470703125</LatitudeDegrees>
              <LongitudeDegrees>-1.37187774293124675750732421875</LongitudeDegrees>
            </Position>
            <AltitudeMeters>18</AltitudeMeters>
            <DistanceMeters>NAN</DistanceMeters>
          </Trackpoint>
          <Trackpoint>
            <Time>2022-07-06T17:26:59.000Z</Time>
            <Position>
              <LatitudeDegrees>43.80980201996862888336181640625</LatitudeDegrees>
              <LongitudeDegrees>-1.372140347957611083984375</LongitudeDegrees>
            </Position>
            <AltitudeMeters>18</AltitudeMeters>
            <DistanceMeters>NAN</DistanceMeters>
          </Trackpoint>
          <Trackpoint>
            <Time>2022-07-06T17:27:02.000Z</Time>
            <Position>
              <LatitudeDegrees>43.80966908298432826995849609375</LatitudeDegrees>
              <LongitudeDegrees>-1.372246630489826202392578125</LongitudeDegrees>
            </Position>
            <AltitudeMeters>17.799999237060546875</AltitudeMeters>
            <DistanceMeters>NAN</DistanceMeters>
          </Trackpoint>
          <Trackpoint>
            <Time>2022-07-06T17:27:05.000Z</Time>
            <Position>
              <LatitudeDegrees>43.80956162698566913604736328125</LatitudeDegrees>
              <LongitudeDegrees>-1.3723198883235454559326171875</LongitudeDegrees>
            </Position>
            <AltitudeMeters>17.6000003814697265625</AltitudeMeters>
            <DistanceMeters>NAN</DistanceMeters>
          </Trackpoint>
          <Trackpoint>
            <Time>2022-07-06T17:27:06.000Z</Time>
            <Position>
              <LatitudeDegrees>43.809528350830078125</LatitudeDegrees>
              <LongitudeDegrees>-1.372344531118869781494140625</LongitudeDegrees>
            </Position>
            <AltitudeMeters>17.6000003814697265625</AltitudeMeters>
            <DistanceMeters>NAN</DistanceMeters>
          </Trackpoint>
          <Trackpoint>
            <Time>2022-07-06T17:27:08.000Z</Time>
            <Position>
              <LatitudeDegrees>43.80948853679001331329345703125</LatitudeDegrees>
              <LongitudeDegrees>-1.3724191300570964813232421875</LongitudeDegrees>
            </Position>
            <AltitudeMeters>17.6000003814697265625</AltitudeMeters>
            <DistanceMeters>NAN</DistanceMeters>
          </Trackpoint>
          <Trackpoint>
            <Time>2022-07-06T17:27:09.000Z</Time>
            <Position>
              <LatitudeDegrees>43.80948199890553951263427734375</LatitudeDegrees>
              <LongitudeDegrees>-1.3724573515355587005615234375</LongitudeDegrees>
            </Position>
            <AltitudeMeters>17.6000003814697265625</AltitudeMeters>
            <DistanceMeters>NAN</DistanceMeters>
          </Trackpoint>
          <Trackpoint>
            <Time>2022-07-06T17:27:10.000Z</Time>
            <Position>
              <LatitudeDegrees>43.80947001278400421142578125</LatitudeDegrees>
              <LongitudeDegrees>-1.372494734823703765869140625</LongitudeDegrees>
            </Position>
            <AltitudeMeters>17.6000003814697265625</AltitudeMeters>
            <DistanceMeters>NAN</DistanceMeters>
          </Trackpoint>
          <Trackpoint>
            <Time>2022-07-06T17:27:12.000Z</Time>
            <Position>
              <LatitudeDegrees>43.80941293202340602874755859375</LatitudeDegrees>
              <LongitudeDegrees>-1.3725361414253711700439453125</LongitudeDegrees>
            </Position>
            <AltitudeMeters>17.6000003814697265625</AltitudeMeters>
            <DistanceMeters>NAN</DistanceMeters>
          </Trackpoint>
          <Trackpoint>
            <Time>2022-07-06T17:27:16.000Z</Time>
            <Position>
              <LatitudeDegrees>43.8092733733355998992919921875</LatitudeDegrees>
              <LongitudeDegrees>-1.37265658937394618988037109375</LongitudeDegrees>
            </Position>
            <AltitudeMeters>17.799999237060546875</AltitudeMeters>
            <DistanceMeters>NAN</DistanceMeters>
          </Trackpoint>
          <Trackpoint>
            <Time>2022-07-06T17:27:24.000Z</Time>
            <Position>
              <LatitudeDegrees>43.80894086323678493499755859375</LatitudeDegrees>
              <LongitudeDegrees>-1.3729991577565670013427734375</LongitudeDegrees>
            </Position>
            <AltitudeMeters>17.6000003814697265625</AltitudeMeters>
            <DistanceMeters>NAN</DistanceMeters>
          </Trackpoint>
          <Trackpoint>
            <Time>2022-07-06T17:27:30.000Z</Time>
            <Position>
              <LatitudeDegrees>43.80868689157068729400634765625</LatitudeDegrees>
              <LongitudeDegrees>-1.37325237505137920379638671875</LongitudeDegrees>
            </Position>
            <AltitudeMeters>17.3999996185302734375</AltitudeMeters>
            <DistanceMeters>NAN</DistanceMeters>
          </Trackpoint>
          <Trackpoint>
            <Time>2022-07-06T17:27:33.000Z</Time>
            <Position>
              <LatitudeDegrees>43.8085575588047504425048828125</LatitudeDegrees>
              <LongitudeDegrees>-1.3733813725411891937255859375</LongitudeDegrees>
            </Position>
            <AltitudeMeters>17.3999996185302734375</AltitudeMeters>
            <DistanceMeters>NAN</DistanceMeters>
          </Trackpoint>
          <Trackpoint>
            <Time>2022-07-06T17:27:40.000Z</Time>
            <Position>
              <LatitudeDegrees>43.8082712329924106597900390625</LatitudeDegrees>
              <LongitudeDegrees>-1.37367901392281055450439453125</LongitudeDegrees>
            </Position>
            <AltitudeMeters>17.200000762939453125</AltitudeMeters>
            <DistanceMeters>NAN</DistanceMeters>
          </Trackpoint>
          <Trackpoint>
            <Time>2022-07-06T17:27:42.000Z</Time>
            <Position>
              <LatitudeDegrees>43.808192275464534759521484375</LatitudeDegrees>
              <LongitudeDegrees>-1.37376165948808193206787109375</LongitudeDegrees>
            </Position>
            <AltitudeMeters>17.200000762939453125</AltitudeMeters>
            <DistanceMeters>NAN</DistanceMeters>
          </Trackpoint>
          <Trackpoint>
            <Time>2022-07-06T17:27:49.000Z</Time>
            <Position>
              <LatitudeDegrees>43.807934783399105072021484375</LatitudeDegrees>
              <LongitudeDegrees>-1.37402258813381195068359375</LongitudeDegrees>
            </Position>
            <AltitudeMeters>17.6000003814697265625</AltitudeMeters>
            <DistanceMeters>NAN</DistanceMeters>
          </Trackpoint>
          <Trackpoint>
            <Time>2022-07-06T17:27:55.000Z</Time>
            <Position>
              <LatitudeDegrees>43.80774459801614284515380859375</LatitudeDegrees>
              <LongitudeDegrees>-1.3742145337164402008056640625</LongitudeDegrees>
            </Position>
            <AltitudeMeters>17.200000762939453125</AltitudeMeters>
            <DistanceMeters>NAN</DistanceMeters>
          </Trackpoint>
          <Trackpoint>
            <Time>2022-07-06T17:27:56.000Z</Time>
            <Position>
              <LatitudeDegrees>43.80771718919277191162109375</LatitudeDegrees>
              <LongitudeDegrees>-1.37423926033079624176025390625</LongitudeDegrees>
            </Position>
            <AltitudeMeters>17.200000762939453125</AltitudeMeters>
            <DistanceMeters>NAN</DistanceMeters>
          </Trackpoint>
          <Trackpoint>
            <Time>2022-07-06T17:28:01.000Z</Time>
            <Position>
              <LatitudeDegrees>43.8075560890138149261474609375</LatitudeDegrees>
              <LongitudeDegrees>-1.37439985759556293487548828125</LongitudeDegrees>
            </Position>
            <AltitudeMeters>17</AltitudeMeters>
            <DistanceMeters>NAN</DistanceMeters>
          </Trackpoint>
          <Trackpoint>
            <Time>2022-07-06T17:28:02.000Z</Time>
            <Position>
              <LatitudeDegrees>43.80752700380980968475341796875</LatitudeDegrees>
              <LongitudeDegrees>-1.3744344748556613922119140625</LongitudeDegrees>
            </Position>
            <AltitudeMeters>17</AltitudeMeters>
            <DistanceMeters>NAN</DistanceMeters>
          </Trackpoint>
          <Trackpoint>
            <Time>2022-07-06T17:28:11.000Z</Time>
            <Position>
              <LatitudeDegrees>43.80722098052501678466796875</LatitudeDegrees>
              <LongitudeDegrees>-1.37477905489504337310791015625</LongitudeDegrees>
            </Position>
            <AltitudeMeters>17</AltitudeMeters>
            <DistanceMeters>NAN</DistanceMeters>
          </Trackpoint>
          <Trackpoint>
            <Time>2022-07-06T17:28:18.000Z</Time>
            <Position>
              <LatitudeDegrees>43.806939013302326202392578125</LatitudeDegrees>
              <LongitudeDegrees>-1.375022716820240020751953125</LongitudeDegrees>
            </Position>
            <AltitudeMeters>16.6000003814697265625</AltitudeMeters>
            <DistanceMeters>NAN</DistanceMeters>
          </Trackpoint>
          <Trackpoint>
            <Time>2022-07-06T17:28:19.000Z</Time>
            <Position>
              <LatitudeDegrees>43.80689752288162708282470703125</LatitudeDegrees>
              <LongitudeDegrees>-1.37504962272942066192626953125</LongitudeDegrees>
            </Position>
            <AltitudeMeters>16.6000003814697265625</AltitudeMeters>
            <DistanceMeters>NAN</DistanceMeters>
          </Trackpoint>
          <Trackpoint>
            <Time>2022-07-06T17:28:22.000Z</Time>
            <Position>
              <LatitudeDegrees>43.80680046044290065765380859375</LatitudeDegrees>
              <LongitudeDegrees>-1.37513427995145320892333984375</LongitudeDegrees>
            </Position>
            <AltitudeMeters>16.3999996185302734375</AltitudeMeters>
            <DistanceMeters>NAN</DistanceMeters>
          </Trackpoint>
          <Trackpoint>
            <Time>2022-07-06T17:28:28.000Z</Time>
            <Position>
              <LatitudeDegrees>43.8065566308796405792236328125</LatitudeDegrees>
              <LongitudeDegrees>-1.37533678673207759857177734375</LongitudeDegrees>
            </Position>
            <AltitudeMeters>16.799999237060546875</AltitudeMeters>
            <DistanceMeters>NAN</DistanceMeters>
          </Trackpoint>
          <Trackpoint>
            <Time>2022-07-06T17:28:33.000Z</Time>
            <Position>
              <LatitudeDegrees>43.8063866458833217620849609375</LatitudeDegrees>
              <LongitudeDegrees>-1.37555505149066448211669921875</LongitudeDegrees>
            </Position>
            <AltitudeMeters>16.799999237060546875</AltitudeMeters>
            <DistanceMeters>NAN</DistanceMeters>
          </Trackpoint>
          <Trackpoint>
            <Time>2022-07-06T17:28:34.000Z</Time>
            <Position>
              <LatitudeDegrees>43.80634792149066925048828125</LatitudeDegrees>
              <LongitudeDegrees>-1.37560048140585422515869140625</LongitudeDegrees>
            </Position>
            <AltitudeMeters>16.799999237060546875</AltitudeMeters>
            <DistanceMeters>NAN</DistanceMeters>
          </Trackpoint>
          <Trackpoint>
            <Time>2022-07-06T17:28:42.000Z</Time>
            <Position>
              <LatitudeDegrees>43.806036449968814849853515625</LatitudeDegrees>
              <LongitudeDegrees>-1.375950090587139129638671875</LongitudeDegrees>
            </Position>
            <AltitudeMeters>16.799999237060546875</AltitudeMeters>
            <DistanceMeters>NAN</DistanceMeters>
          </Trackpoint>
          <Trackpoint>
            <Time>2022-07-06T17:28:43.000Z</Time>
            <Position>
              <LatitudeDegrees>43.8059990666806697845458984375</LatitudeDegrees>
              <LongitudeDegrees>-1.37598856352269649505615234375</LongitudeDegrees>
            </Position>
            <AltitudeMeters>16.799999237060546875</AltitudeMeters>
            <DistanceMeters>NAN</DistanceMeters>
          </Trackpoint>
          <Trackpoint>
            <Time>2022-07-06T17:28:44.000Z</Time>
            <Position>
              <LatitudeDegrees>43.80595841445028781890869140625</LatitudeDegrees>
              <LongitudeDegrees>-1.3760226778686046600341796875</LongitudeDegrees>
            </Position>
            <AltitudeMeters>16.799999237060546875</AltitudeMeters>
            <DistanceMeters>NAN</DistanceMeters>
          </Trackpoint>
          <Trackpoint>
            <Time>2022-07-06T17:28:47.000Z</Time>
            <Position>
              <LatitudeDegrees>43.80583654157817363739013671875</LatitudeDegrees>
              <LongitudeDegrees>-1.37613943777978420257568359375</LongitudeDegrees>
            </Position>
            <AltitudeMeters>16.799999237060546875</AltitudeMeters>
            <DistanceMeters>NAN</DistanceMeters>
          </Trackpoint>
          <Trackpoint>
            <Time>2022-07-06T17:28:49.000Z</Time>
            <Position>
              <LatitudeDegrees>43.8057496212422847747802734375</LatitudeDegrees>
              <LongitudeDegrees>-1.37620867229998111724853515625</LongitudeDegrees>
            </Position>
            <AltitudeMeters>17</AltitudeMeters>
            <DistanceMeters>NAN</DistanceMeters>
          </Trackpoint>
          <Trackpoint>
            <Time>2022-07-06T17:28:55.000Z</Time>
            <Position>
              <LatitudeDegrees>43.80549229681491851806640625</LatitudeDegrees>
              <LongitudeDegrees>-1.3764260150492191314697265625</LongitudeDegrees>
            </Position>
            <AltitudeMeters>17.200000762939453125</AltitudeMeters>
            <DistanceMeters>NAN</DistanceMeters>
          </Trackpoint>
          <Trackpoint>
            <Time>2022-07-06T17:28:57.000Z</Time>
            <Position>
              <LatitudeDegrees>43.8054233975708484649658203125</LatitudeDegrees>
              <LongitudeDegrees>-1.3765014521777629852294921875</LongitudeDegrees>
            </Position>
            <AltitudeMeters>17</AltitudeMeters>
            <DistanceMeters>NAN</DistanceMeters>
          </Trackpoint>
          <Trackpoint>
            <Time>2022-07-06T17:28:58.000Z</Time>
            <Position>
              <LatitudeDegrees>43.80538525991141796112060546875</LatitudeDegrees>
              <LongitudeDegrees>-1.3765378296375274658203125</LongitudeDegrees>
            </Position>
            <AltitudeMeters>17</AltitudeMeters>
            <DistanceMeters>NAN</DistanceMeters>
          </Trackpoint>
          <Trackpoint>
            <Time>2022-07-06T17:29:03.000Z</Time>
            <Position>
              <LatitudeDegrees>43.8051769696176052093505859375</LatitudeDegrees>
              <LongitudeDegrees>-1.37669197283685207366943359375</LongitudeDegrees>
            </Position>
            <AltitudeMeters>16.799999237060546875</AltitudeMeters>
            <DistanceMeters>NAN</DistanceMeters>
          </Trackpoint>
          <Trackpoint>
            <Time>2022-07-06T17:29:04.000Z</Time>
            <Position>
              <LatitudeDegrees>43.80514889024198055267333984375</LatitudeDegrees>
              <LongitudeDegrees>-1.3767267577350139617919921875</LongitudeDegrees>
            </Position>
            <AltitudeMeters>16.799999237060546875</AltitudeMeters>
            <DistanceMeters>NAN</DistanceMeters>
          </Trackpoint>
          <Trackpoint>
            <Time>2022-07-06T17:29:06.000Z</Time>
            <Position>
              <LatitudeDegrees>43.80505920387804508209228515625</LatitudeDegrees>
              <LongitudeDegrees>-1.3768135942518711090087890625</LongitudeDegrees>
            </Position>
            <AltitudeMeters>16.799999237060546875</AltitudeMeters>
            <DistanceMeters>NAN</DistanceMeters>
          </Trackpoint>
          <Trackpoint>
            <Time>2022-07-06T17:29:08.000Z</Time>
            <Position>
              <LatitudeDegrees>43.80495845340192317962646484375</LatitudeDegrees>
              <LongitudeDegrees>-1.3769017718732357025146484375</LongitudeDegrees>
            </Position>
            <AltitudeMeters>16.799999237060546875</AltitudeMeters>
            <DistanceMeters>NAN</DistanceMeters>
          </Trackpoint>
          <Trackpoint>
            <Time>2022-07-06T17:29:12.000Z</Time>
            <Position>
              <LatitudeDegrees>43.80477773956954479217529296875</LatitudeDegrees>
              <LongitudeDegrees>-1.3770412467420101165771484375</LongitudeDegrees>
            </Position>
            <AltitudeMeters>16.799999237060546875</AltitudeMeters>
            <DistanceMeters>NAN</DistanceMeters>
          </Trackpoint>
          <Trackpoint>
            <Time>2022-07-06T17:29:15.000Z</Time>
            <Position>
              <LatitudeDegrees>43.8046462275087833404541015625</LatitudeDegrees>
              <LongitudeDegrees>-1.37714208103716373443603515625</LongitudeDegrees>
            </Position>
            <AltitudeMeters>16.799999237060546875</AltitudeMeters>
            <DistanceMeters>NAN</DistanceMeters>
          </Trackpoint>
          <Trackpoint>
            <Time>2022-07-06T17:29:18.000Z</Time>
            <Position>
              <LatitudeDegrees>43.80456517450511455535888671875</LatitudeDegrees>
              <LongitudeDegrees>-1.37723729945719242095947265625</LongitudeDegrees>
            </Position>
            <AltitudeMeters>16.6000003814697265625</AltitudeMeters>
            <DistanceMeters>NAN</DistanceMeters>
          </Trackpoint>
          <Trackpoint>
            <Time>2022-07-06T17:29:21.000Z</Time>
            <Position>
              <LatitudeDegrees>43.8044554553925991058349609375</LatitudeDegrees>
              <LongitudeDegrees>-1.37737476266920566558837890625</LongitudeDegrees>
            </Position>
            <AltitudeMeters>16.6000003814697265625</AltitudeMeters>
            <DistanceMeters>NAN</DistanceMeters>
          </Trackpoint>
          <Trackpoint>
            <Time>2022-07-06T17:29:22.000Z</Time>
            <Position>
              <LatitudeDegrees>43.80439066328108310699462890625</LatitudeDegrees>
              <LongitudeDegrees>-1.377424299716949462890625</LongitudeDegrees>
            </Position>
            <AltitudeMeters>16.3999996185302734375</AltitudeMeters>
            <DistanceMeters>NAN</DistanceMeters>
          </Trackpoint>
          <Trackpoint>
            <Time>2022-07-06T17:29:25.000Z</Time>
            <Position>
              <LatitudeDegrees>43.80424196831881999969482421875</LatitudeDegrees>
              <LongitudeDegrees>-1.377560086548328399658203125</LongitudeDegrees>
            </Position>
            <AltitudeMeters>16.3999996185302734375</AltitudeMeters>
            <DistanceMeters>NAN</DistanceMeters>
          </Trackpoint>
          <Trackpoint>
            <Time>2022-07-06T17:29:26.000Z</Time>
            <Position>
              <LatitudeDegrees>43.804197795689105987548828125</LatitudeDegrees>
              <LongitudeDegrees>-1.377603001892566680908203125</LongitudeDegrees>
            </Position>
            <AltitudeMeters>16.3999996185302734375</AltitudeMeters>
            <DistanceMeters>NAN</DistanceMeters>
          </Trackpoint>
          <Trackpoint>
            <Time>2022-07-06T17:29:28.000Z</Time>
            <Position>
              <LatitudeDegrees>43.8041104562580585479736328125</LatitudeDegrees>
              <LongitudeDegrees>-1.37768941931426525115966796875</LongitudeDegrees>
            </Position>
            <AltitudeMeters>16.3999996185302734375</AltitudeMeters>
            <DistanceMeters>NAN</DistanceMeters>
          </Trackpoint>
          <Trackpoint>
            <Time>2022-07-06T17:29:32.000Z</Time>
            <Position>
              <LatitudeDegrees>43.80394726060330867767333984375</LatitudeDegrees>
              <LongitudeDegrees>-1.377891339361667633056640625</LongitudeDegrees>
            </Position>
            <AltitudeMeters>16.200000762939453125</AltitudeMeters>
            <DistanceMeters>NAN</DistanceMeters>
          </Trackpoint>
          <Trackpoint>
            <Time>2022-07-06T17:29:34.000Z</Time>
            <Position>
              <LatitudeDegrees>43.8038782775402069091796875</LatitudeDegrees>
              <LongitudeDegrees>-1.3779816962778568267822265625</LongitudeDegrees>
            </Position>
            <AltitudeMeters>15.80000019073486328125</AltitudeMeters>
            <DistanceMeters>NAN</DistanceMeters>
          </Trackpoint>
          <Trackpoint>
            <Time>2022-07-06T17:29:35.000Z</Time>
            <Position>
              <LatitudeDegrees>43.80384583957493305206298828125</LatitudeDegrees>
              <LongitudeDegrees>-1.37802268378436565399169921875</LongitudeDegrees>
            </Position>
            <AltitudeMeters>15.80000019073486328125</AltitudeMeters>
            <DistanceMeters>NAN</DistanceMeters>
          </Trackpoint>
          <Trackpoint>
            <Time>2022-07-06T17:29:36.000Z</Time>
            <Position>
              <LatitudeDegrees>43.803818933665752410888671875</LatitudeDegrees>
              <LongitudeDegrees>-1.378054283559322357177734375</LongitudeDegrees>
            </Position>
            <AltitudeMeters>15.6000003814697265625</AltitudeMeters>
            <DistanceMeters>NAN</DistanceMeters>
          </Trackpoint>
          <Trackpoint>
            <Time>2022-07-06T17:29:37.000Z</Time>
            <Position>
              <LatitudeDegrees>43.80379714071750640869140625</LatitudeDegrees>
              <LongitudeDegrees>-1.3780822791159152984619140625</LongitudeDegrees>
            </Position>
            <AltitudeMeters>15.3999996185302734375</AltitudeMeters>
            <DistanceMeters>NAN</DistanceMeters>
          </Trackpoint>
          <Trackpoint>
            <Time>2022-07-06T17:29:39.000Z</Time>
            <Position>
              <LatitudeDegrees>43.80377811379730701446533203125</LatitudeDegrees>
              <LongitudeDegrees>-1.37813349254429340362548828125</LongitudeDegrees>
            </Position>
            <AltitudeMeters>15.3999996185302734375</AltitudeMeters>
            <DistanceMeters>NAN</DistanceMeters>
          </Trackpoint>
          <Trackpoint>
            <Time>2022-07-06T17:29:41.000Z</Time>
            <Position>
              <LatitudeDegrees>43.8037879206240177154541015625</LatitudeDegrees>
              <LongitudeDegrees>-1.37819166295230388641357421875</LongitudeDegrees>
            </Position>
            <AltitudeMeters>15.19999980926513671875</AltitudeMeters>
            <DistanceMeters>NAN</DistanceMeters>
          </Trackpoint>
          <Trackpoint>
            <Time>2022-07-06T17:29:44.000Z</Time>
            <Position>
              <LatitudeDegrees>43.80383024923503398895263671875</LatitudeDegrees>
              <LongitudeDegrees>-1.37827313505113124847412109375</LongitudeDegrees>
            </Position>
            <AltitudeMeters>15</AltitudeMeters>
            <DistanceMeters>NAN</DistanceMeters>
          </Trackpoint>
          <Trackpoint>
            <Time>2022-07-06T17:29:52.000Z</Time>
            <Position>
              <LatitudeDegrees>43.803939633071422576904296875</LatitudeDegrees>
              <LongitudeDegrees>-1.378612183034420013427734375</LongitudeDegrees>
            </Position>
            <AltitudeMeters>14.3999996185302734375</AltitudeMeters>
            <DistanceMeters>NAN</DistanceMeters>
          </Trackpoint>
          <Trackpoint>
            <Time>2022-07-06T17:29:55.000Z</Time>
            <Position>
              <LatitudeDegrees>43.80395145155489444732666015625</LatitudeDegrees>
              <LongitudeDegrees>-1.37871452607214450836181640625</LongitudeDegrees>
            </Position>
            <AltitudeMeters>14.6000003814697265625</AltitudeMeters>
            <DistanceMeters>NAN</DistanceMeters>
          </Trackpoint>
          <Trackpoint>
            <Time>2022-07-06T17:30:00.000Z</Time>
            <Position>
              <LatitudeDegrees>43.8039300777018070220947265625</LatitudeDegrees>
              <LongitudeDegrees>-1.3788654841482639312744140625</LongitudeDegrees>
            </Position>
            <AltitudeMeters>14.6000003814697265625</AltitudeMeters>
            <DistanceMeters>NAN</DistanceMeters>
          </Trackpoint>
          <Trackpoint>
            <Time>2022-07-06T17:30:07.000Z</Time>
            <Position>
              <LatitudeDegrees>43.80394139327108860015869140625</LatitudeDegrees>
              <LongitudeDegrees>-1.37903002090752124786376953125</LongitudeDegrees>
            </Position>
            <AltitudeMeters>14.6000003814697265625</AltitudeMeters>
            <DistanceMeters>NAN</DistanceMeters>
          </Trackpoint>
          <Trackpoint>
            <Time>2022-07-06T17:30:16.000Z</Time>
            <Position>
              <LatitudeDegrees>43.8039458356797695159912109375</LatitudeDegrees>
              <LongitudeDegrees>-1.37920553795993328094482421875</LongitudeDegrees>
            </Position>
            <AltitudeMeters>14.19999980926513671875</AltitudeMeters>
            <DistanceMeters>NAN</DistanceMeters>
          </Trackpoint>
          <Trackpoint>
            <Time>2022-07-06T17:30:17.000Z</Time>
            <Position>
              <LatitudeDegrees>43.8039451651275157928466796875</LatitudeDegrees>
              <LongitudeDegrees>-1.37920855544507503509521484375</LongitudeDegrees>
            </Position>
            <AltitudeMeters>14</AltitudeMeters>
            <DistanceMeters>NAN</DistanceMeters>
          </Trackpoint>
          <Trackpoint>
            <Time>2022-07-06T17:30:20.000Z</Time>
            <Position>
              <LatitudeDegrees>43.8039444945752620697021484375</LatitudeDegrees>
              <LongitudeDegrees>-1.379213668406009674072265625</LongitudeDegrees>
            </Position>
            <AltitudeMeters>13.80000019073486328125</AltitudeMeters>
            <DistanceMeters>NAN</DistanceMeters>
          </Trackpoint>
          <Trackpoint>
            <Time>2022-07-06T17:37:24.000Z</Time>
            <Position>
              <LatitudeDegrees>43.80389713682234287261962890625</LatitudeDegrees>
              <LongitudeDegrees>-1.37906572781503200531005859375</LongitudeDegrees>
            </Position>
            <AltitudeMeters>10</AltitudeMeters>
            <DistanceMeters>NAN</DistanceMeters>
          </Trackpoint>
          <Trackpoint>
            <Time>2022-07-06T17:37:25.000Z</Time>
            <Position>
              <LatitudeDegrees>43.8038952089846134185791015625</LatitudeDegrees>
              <LongitudeDegrees>-1.3790388219058513641357421875</LongitudeDegrees>
            </Position>
            <AltitudeMeters>10</AltitudeMeters>
            <DistanceMeters>NAN</DistanceMeters>
          </Trackpoint>
          <Trackpoint>
            <Time>2022-07-06T17:37:33.000Z</Time>
            <Position>
              <LatitudeDegrees>43.8039022497832775115966796875</LatitudeDegrees>
              <LongitudeDegrees>-1.37880085967481136322021484375</LongitudeDegrees>
            </Position>
            <AltitudeMeters>9.80000019073486328125</AltitudeMeters>
            <DistanceMeters>NAN</DistanceMeters>
          </Trackpoint>
          <Trackpoint>
            <Time>2022-07-06T17:37:42.000Z</Time>
            <Position>
              <LatitudeDegrees>43.8038797862827777862548828125</LatitudeDegrees>
              <LongitudeDegrees>-1.37852199375629425048828125</LongitudeDegrees>
            </Position>
            <AltitudeMeters>9.19999980926513671875</AltitudeMeters>
            <DistanceMeters>NAN</DistanceMeters>
          </Trackpoint>
          <Trackpoint>
            <Time>2022-07-06T17:37:47.000Z</Time>
            <Position>
              <LatitudeDegrees>43.80385925062000751495361328125</LatitudeDegrees>
              <LongitudeDegrees>-1.378391571342945098876953125</LongitudeDegrees>
            </Position>
            <AltitudeMeters>9.19999980926513671875</AltitudeMeters>
            <DistanceMeters>NAN</DistanceMeters>
          </Trackpoint>
          <Trackpoint>
            <Time>2022-07-06T17:37:55.000Z</Time>
            <Position>
              <LatitudeDegrees>43.80382304079830646514892578125</LatitudeDegrees>
              <LongitudeDegrees>-1.37817640788853168487548828125</LongitudeDegrees>
            </Position>
            <AltitudeMeters>9.3999996185302734375</AltitudeMeters>
            <DistanceMeters>NAN</DistanceMeters>
          </Trackpoint>
          <Trackpoint>
            <Time>2022-07-06T17:37:56.000Z</Time>
            <Position>
              <LatitudeDegrees>43.80381650291383266448974609375</LatitudeDegrees>
              <LongitudeDegrees>-1.37815528549253940582275390625</LongitudeDegrees>
            </Position>
            <AltitudeMeters>9.3999996185302734375</AltitudeMeters>
            <DistanceMeters>NAN</DistanceMeters>
          </Trackpoint>
          <Trackpoint>
            <Time>2022-07-06T17:37:58.000Z</Time>
            <Position>
              <LatitudeDegrees>43.80379085429012775421142578125</LatitudeDegrees>
              <LongitudeDegrees>-1.3781305588781833648681640625</LongitudeDegrees>
            </Position>
            <AltitudeMeters>9.6000003814697265625</AltitudeMeters>
            <DistanceMeters>NAN</DistanceMeters>
          </Trackpoint>
          <Trackpoint>
            <Time>2022-07-06T17:37:59.000Z</Time>
            <Position>
              <LatitudeDegrees>43.803769983351230621337890625</LatitudeDegrees>
              <LongitudeDegrees>-1.37813801877200603485107421875</LongitudeDegrees>
            </Position>
            <AltitudeMeters>9.6000003814697265625</AltitudeMeters>
            <DistanceMeters>NAN</DistanceMeters>
          </Trackpoint>
          <Trackpoint>
            <Time>2022-07-06T17:38:01.000Z</Time>
            <Position>
              <LatitudeDegrees>43.80372664891183376312255859375</LatitudeDegrees>
              <LongitudeDegrees>-1.37817523442208766937255859375</LongitudeDegrees>
            </Position>
            <AltitudeMeters>9.6000003814697265625</AltitudeMeters>
            <DistanceMeters>NAN</DistanceMeters>
          </Trackpoint>
          <Trackpoint>
            <Time>2022-07-06T17:38:05.000Z</Time>
            <Position>
              <LatitudeDegrees>43.8036276586353778839111328125</LatitudeDegrees>
              <LongitudeDegrees>-1.3782713748514652252197265625</LongitudeDegrees>
            </Position>
            <AltitudeMeters>9.3999996185302734375</AltitudeMeters>
            <DistanceMeters>NAN</DistanceMeters>
          </Trackpoint>
          <Trackpoint>
            <Time>2022-07-06T17:38:11.000Z</Time>
            <Position>
              <LatitudeDegrees>43.80347116850316524505615234375</LatitudeDegrees>
              <LongitudeDegrees>-1.37847078032791614532470703125</LongitudeDegrees>
            </Position>
            <AltitudeMeters>9.3999996185302734375</AltitudeMeters>
            <DistanceMeters>NAN</DistanceMeters>
          </Trackpoint>
          <Trackpoint>
            <Time>2022-07-06T17:38:17.000Z</Time>
            <Position>
              <LatitudeDegrees>43.80327167920768260955810546875</LatitudeDegrees>
              <LongitudeDegrees>-1.37866146862506866455078125</LongitudeDegrees>
            </Position>
            <AltitudeMeters>9.3999996185302734375</AltitudeMeters>
            <DistanceMeters>NAN</DistanceMeters>
          </Trackpoint>
          <Trackpoint>
            <Time>2022-07-06T17:38:21.000Z</Time>
            <Position>
              <LatitudeDegrees>43.80312616936862468719482421875</LatitudeDegrees>
              <LongitudeDegrees>-1.37879264540970325469970703125</LongitudeDegrees>
            </Position>
            <AltitudeMeters>9</AltitudeMeters>
            <DistanceMeters>NAN</DistanceMeters>
          </Trackpoint>
          <Trackpoint>
            <Time>2022-07-06T17:38:22.000Z</Time>
            <Position>
              <LatitudeDegrees>43.803094737231731414794921875</LatitudeDegrees>
              <LongitudeDegrees>-1.37882349081337451934814453125</LongitudeDegrees>
            </Position>
            <AltitudeMeters>8.80000019073486328125</AltitudeMeters>
            <DistanceMeters>NAN</DistanceMeters>
          </Trackpoint>
          <Trackpoint>
            <Time>2022-07-06T17:38:27.000Z</Time>
            <Position>
              <LatitudeDegrees>43.8029584474861621856689453125</LatitudeDegrees>
              <LongitudeDegrees>-1.3789808191359043121337890625</LongitudeDegrees>
            </Position>
            <AltitudeMeters>8.6000003814697265625</AltitudeMeters>
            <DistanceMeters>NAN</DistanceMeters>
          </Trackpoint>
          <Trackpoint>
            <Time>2022-07-06T17:38:29.000Z</Time>
            <Position>
              <LatitudeDegrees>43.80290857516229152679443359375</LatitudeDegrees>
              <LongitudeDegrees>-1.37904577888548374176025390625</LongitudeDegrees>
            </Position>
            <AltitudeMeters>8.6000003814697265625</AltitudeMeters>
            <DistanceMeters>NAN</DistanceMeters>
          </Trackpoint>
          <Trackpoint>
            <Time>2022-07-06T17:38:31.000Z</Time>
            <Position>
              <LatitudeDegrees>43.80285074003040790557861328125</LatitudeDegrees>
              <LongitudeDegrees>-1.379095651209354400634765625</LongitudeDegrees>
            </Position>
            <AltitudeMeters>8.80000019073486328125</AltitudeMeters>
            <DistanceMeters>NAN</DistanceMeters>
          </Trackpoint>
          <Trackpoint>
            <Time>2022-07-06T17:38:32.000Z</Time>
            <Position>
              <LatitudeDegrees>43.802821822464466094970703125</LatitudeDegrees>
              <LongitudeDegrees>-1.37912255711853504180908203125</LongitudeDegrees>
            </Position>
            <AltitudeMeters>9</AltitudeMeters>
            <DistanceMeters>NAN</DistanceMeters>
          </Trackpoint>
          <Trackpoint>
            <Time>2022-07-06T17:38:36.000Z</Time>
            <Position>
              <LatitudeDegrees>43.80270439200103282928466796875</LatitudeDegrees>
              <LongitudeDegrees>-1.3792356289923191070556640625</LongitudeDegrees>
            </Position>
            <AltitudeMeters>9</AltitudeMeters>
            <DistanceMeters>NAN</DistanceMeters>
          </Trackpoint>
          <Trackpoint>
            <Time>2022-07-06T17:38:39.000Z</Time>
            <Position>
              <LatitudeDegrees>43.80262074060738086700439453125</LatitudeDegrees>
              <LongitudeDegrees>-1.37931684963405132293701171875</LongitudeDegrees>
            </Position>
            <AltitudeMeters>9</AltitudeMeters>
            <DistanceMeters>NAN</DistanceMeters>
          </Trackpoint>
          <Trackpoint>
            <Time>2022-07-06T17:38:46.000Z</Time>
            <Position>
              <LatitudeDegrees>43.8024406135082244873046875</LatitudeDegrees>
              <LongitudeDegrees>-1.37949052266776561737060546875</LongitudeDegrees>
            </Position>
            <AltitudeMeters>9.80000019073486328125</AltitudeMeters>
            <DistanceMeters>NAN</DistanceMeters>
          </Trackpoint>
          <Trackpoint>
            <Time>2022-07-06T17:38:47.000Z</Time>
            <Position>
              <LatitudeDegrees>43.80241018719971179962158203125</LatitudeDegrees>
              <LongitudeDegrees>-1.37952052988111972808837890625</LongitudeDegrees>
            </Position>
            <AltitudeMeters>10</AltitudeMeters>
            <DistanceMeters>NAN</DistanceMeters>
          </Trackpoint>
          <Trackpoint>
            <Time>2022-07-06T17:38:48.000Z</Time>
            <Position>
              <LatitudeDegrees>43.8023814372718334197998046875</LatitudeDegrees>
              <LongitudeDegrees>-1.379548944532871246337890625</LongitudeDegrees>
            </Position>
            <AltitudeMeters>10</AltitudeMeters>
            <DistanceMeters>NAN</DistanceMeters>
          </Trackpoint>
          <Trackpoint>
            <Time>2022-07-06T17:38:56.000Z</Time>
            <Position>
              <LatitudeDegrees>43.8021343387663364410400390625</LatitudeDegrees>
              <LongitudeDegrees>-1.37977860867977142333984375</LongitudeDegrees>
            </Position>
            <AltitudeMeters>10.19999980926513671875</AltitudeMeters>
            <DistanceMeters>NAN</DistanceMeters>
          </Trackpoint>
          <Trackpoint>
            <Time>2022-07-06T17:39:05.000Z</Time>
            <Position>
              <LatitudeDegrees>43.80186335183680057525634765625</LatitudeDegrees>
              <LongitudeDegrees>-1.3800379447638988494873046875</LongitudeDegrees>
            </Position>
            <AltitudeMeters>10.19999980926513671875</AltitudeMeters>
            <DistanceMeters>NAN</DistanceMeters>
          </Trackpoint>
          <Trackpoint>
            <Time>2022-07-06T17:39:13.000Z</Time>
            <Position>
              <LatitudeDegrees>43.80164944566786289215087890625</LatitudeDegrees>
              <LongitudeDegrees>-1.38026140630245208740234375</LongitudeDegrees>
            </Position>
            <AltitudeMeters>10</AltitudeMeters>
            <DistanceMeters>NAN</DistanceMeters>
          </Trackpoint>
          <Trackpoint>
            <Time>2022-07-06T17:39:20.000Z</Time>
            <Position>
              <LatitudeDegrees>43.8014668039977550506591796875</LatitudeDegrees>
              <LongitudeDegrees>-1.380436420440673828125</LongitudeDegrees>
            </Position>
            <AltitudeMeters>10.19999980926513671875</AltitudeMeters>
            <DistanceMeters>NAN</DistanceMeters>
          </Trackpoint>
          <Trackpoint>
            <Time>2022-07-06T17:39:22.000Z</Time>
            <Position>
              <LatitudeDegrees>43.80142011679708957672119140625</LatitudeDegrees>
              <LongitudeDegrees>-1.38046869076788425445556640625</LongitudeDegrees>
            </Position>
            <AltitudeMeters>10.19999980926513671875</AltitudeMeters>
            <DistanceMeters>NAN</DistanceMeters>
          </Trackpoint>
          <Trackpoint>
            <Time>2022-07-06T17:39:24.000Z</Time>
            <Position>
              <LatitudeDegrees>43.8013876788318157196044921875</LatitudeDegrees>
              <LongitudeDegrees>-1.38050439767539501190185546875</LongitudeDegrees>
            </Position>
            <AltitudeMeters>10.19999980926513671875</AltitudeMeters>
            <DistanceMeters>NAN</DistanceMeters>
          </Trackpoint>
          <Trackpoint>
            <Time>2022-07-06T17:39:25.000Z</Time>
            <Position>
              <LatitudeDegrees>43.801382146775722503662109375</LatitudeDegrees>
              <LongitudeDegrees>-1.3805086724460124969482421875</LongitudeDegrees>
            </Position>
            <AltitudeMeters>10.19999980926513671875</AltitudeMeters>
            <DistanceMeters>NAN</DistanceMeters>
          </Trackpoint>
          <Trackpoint>
            <Time>2022-07-06T17:39:27.000Z</Time>
            <Position>
              <LatitudeDegrees>43.801382146775722503662109375</LatitudeDegrees>
              <LongitudeDegrees>-1.3805086724460124969482421875</LongitudeDegrees>
            </Position>
            <AltitudeMeters>10</AltitudeMeters>
            <DistanceMeters>NAN</DistanceMeters>
          </Trackpoint>
          <Trackpoint>
            <Time>2022-07-06T17:39:35.000Z</Time>
            <Position>
              <LatitudeDegrees>43.8013196177780628204345703125</LatitudeDegrees>
              <LongitudeDegrees>-1.3805462233722209930419921875</LongitudeDegrees>
            </Position>
            <AltitudeMeters>10.3999996185302734375</AltitudeMeters>
            <DistanceMeters>NAN</DistanceMeters>
          </Trackpoint>
          <Trackpoint>
            <Time>2022-07-06T17:39:36.000Z</Time>
            <Position>
              <LatitudeDegrees>43.8013052009046077728271484375</LatitudeDegrees>
              <LongitudeDegrees>-1.3805599696934223175048828125</LongitudeDegrees>
            </Position>
            <AltitudeMeters>10.3999996185302734375</AltitudeMeters>
            <DistanceMeters>NAN</DistanceMeters>
          </Trackpoint>
          <Trackpoint>
            <Time>2022-07-06T17:39:39.000Z</Time>
            <Position>
              <LatitudeDegrees>43.801256753504276275634765625</LatitudeDegrees>
              <LongitudeDegrees>-1.38061302714049816131591796875</LongitudeDegrees>
            </Position>
            <AltitudeMeters>10.3999996185302734375</AltitudeMeters>
            <DistanceMeters>NAN</DistanceMeters>
          </Trackpoint>
          <Trackpoint>
            <Time>2022-07-06T17:39:43.000Z</Time>
            <Position>
              <LatitudeDegrees>43.80115860141813755035400390625</LatitudeDegrees>
              <LongitudeDegrees>-1.3807011209428310394287109375</LongitudeDegrees>
            </Position>
            <AltitudeMeters>10.19999980926513671875</AltitudeMeters>
            <DistanceMeters>NAN</DistanceMeters>
          </Trackpoint>
          <Trackpoint>
            <Time>2022-07-06T17:39:49.000Z</Time>
            <Position>
              <LatitudeDegrees>43.80097252316772937774658203125</LatitudeDegrees>
              <LongitudeDegrees>-1.38084051199257373809814453125</LongitudeDegrees>
            </Position>
            <AltitudeMeters>9.80000019073486328125</AltitudeMeters>
            <DistanceMeters>NAN</DistanceMeters>
          </Trackpoint>
          <Trackpoint>
            <Time>2022-07-06T17:39:51.000Z</Time>
            <Position>
              <LatitudeDegrees>43.800900019705295562744140625</LatitudeDegrees>
              <LongitudeDegrees>-1.38089046813547611236572265625</LongitudeDegrees>
            </Position>
            <AltitudeMeters>9.80000019073486328125</AltitudeMeters>
            <DistanceMeters>NAN</DistanceMeters>
          </Trackpoint>
          <Trackpoint>
            <Time>2022-07-06T17:39:59.000Z</Time>
            <Position>
              <LatitudeDegrees>43.8006155379116535186767578125</LatitudeDegrees>
              <LongitudeDegrees>-1.38107218779623508453369140625</LongitudeDegrees>
            </Position>
            <AltitudeMeters>10</AltitudeMeters>
            <DistanceMeters>NAN</DistanceMeters>
          </Trackpoint>
          <Trackpoint>
            <Time>2022-07-06T17:40:07.000Z</Time>
            <Position>
              <LatitudeDegrees>43.80033398978412151336669921875</LatitudeDegrees>
              <LongitudeDegrees>-1.38123110868036746978759765625</LongitudeDegrees>
            </Position>
            <AltitudeMeters>10</AltitudeMeters>
            <DistanceMeters>NAN</DistanceMeters>
          </Trackpoint>
          <Trackpoint>
            <Time>2022-07-06T17:40:15.000Z</Time>
            <Position>
              <LatitudeDegrees>43.8000398688018321990966796875</LatitudeDegrees>
              <LongitudeDegrees>-1.381405033171176910400390625</LongitudeDegrees>
            </Position>
            <AltitudeMeters>10.3999996185302734375</AltitudeMeters>
            <DistanceMeters>NAN</DistanceMeters>
          </Trackpoint>
          <Trackpoint>
            <Time>2022-07-06T17:40:16.000Z</Time>
            <Position>
              <LatitudeDegrees>43.80000181496143341064453125</LatitudeDegrees>
              <LongitudeDegrees>-1.3814246468245983123779296875</LongitudeDegrees>
            </Position>
            <AltitudeMeters>10.19999980926513671875</AltitudeMeters>
            <DistanceMeters>NAN</DistanceMeters>
          </Trackpoint>
          <Trackpoint>
            <Time>2022-07-06T17:40:21.000Z</Time>
            <Position>
              <LatitudeDegrees>43.79982453770935535430908203125</LatitudeDegrees>
              <LongitudeDegrees>-1.381523050367832183837890625</LongitudeDegrees>
            </Position>
            <AltitudeMeters>10.19999980926513671875</AltitudeMeters>
            <DistanceMeters>NAN</DistanceMeters>
          </Trackpoint>
          <Trackpoint>
            <Time>2022-07-06T17:40:23.000Z</Time>
            <Position>
              <LatitudeDegrees>43.799756728112697601318359375</LatitudeDegrees>
              <LongitudeDegrees>-1.3815607689321041107177734375</LongitudeDegrees>
            </Position>
            <AltitudeMeters>10.6000003814697265625</AltitudeMeters>
            <DistanceMeters>NAN</DistanceMeters>
          </Trackpoint>
          <Trackpoint>
            <Time>2022-07-06T17:40:27.000Z</Time>
            <Position>
              <LatitudeDegrees>43.79961884580552577972412109375</LatitudeDegrees>
              <LongitudeDegrees>-1.38163964264094829559326171875</LongitudeDegrees>
            </Position>
            <AltitudeMeters>10.80000019073486328125</AltitudeMeters>
            <DistanceMeters>NAN</DistanceMeters>
          </Trackpoint>
          <Trackpoint>
            <Time>2022-07-06T17:40:28.000Z</Time>
            <Position>
              <LatitudeDegrees>43.79957576282322406768798828125</LatitudeDegrees>
              <LongitudeDegrees>-1.3816603459417819976806640625</LongitudeDegrees>
            </Position>
            <AltitudeMeters>10.80000019073486328125</AltitudeMeters>
            <DistanceMeters>NAN</DistanceMeters>
          </Trackpoint>
          <Trackpoint>
            <Time>2022-07-06T17:40:36.000Z</Time>
            <Position>
              <LatitudeDegrees>43.799251131713390350341796875</LatitudeDegrees>
              <LongitudeDegrees>-1.38185472227632999420166015625</LongitudeDegrees>
            </Position>
            <AltitudeMeters>10.19999980926513671875</AltitudeMeters>
            <DistanceMeters>NAN</DistanceMeters>
          </Trackpoint>
          <Trackpoint>
            <Time>2022-07-06T17:40:37.000Z</Time>
            <Position>
              <LatitudeDegrees>43.79920913837850093841552734375</LatitudeDegrees>
              <LongitudeDegrees>-1.3818781077861785888671875</LongitudeDegrees>
            </Position>
            <AltitudeMeters>10.3999996185302734375</AltitudeMeters>
            <DistanceMeters>NAN</DistanceMeters>
          </Trackpoint>
          <Trackpoint>
            <Time>2022-07-06T17:40:48.000Z</Time>
            <Position>
              <LatitudeDegrees>43.7987845949828624725341796875</LatitudeDegrees>
              <LongitudeDegrees>-1.382124535739421844482421875</LongitudeDegrees>
            </Position>
            <AltitudeMeters>10.19999980926513671875</AltitudeMeters>
            <DistanceMeters>NAN</DistanceMeters>
          </Trackpoint>
          <Trackpoint>
            <Time>2022-07-06T17:40:54.000Z</Time>
            <Position>
              <LatitudeDegrees>43.79856884479522705078125</LatitudeDegrees>
              <LongitudeDegrees>-1.3822571374475955963134765625</LongitudeDegrees>
            </Position>
            <AltitudeMeters>9.80000019073486328125</AltitudeMeters>
            <DistanceMeters>NAN</DistanceMeters>
          </Trackpoint>
          <Trackpoint>
            <Time>2022-07-06T17:40:57.000Z</Time>
            <Position>
              <LatitudeDegrees>43.79846080206334590911865234375</LatitudeDegrees>
              <LongitudeDegrees>-1.38232142664492130279541015625</LongitudeDegrees>
            </Position>
            <AltitudeMeters>9.80000019073486328125</AltitudeMeters>
            <DistanceMeters>NAN</DistanceMeters>
          </Trackpoint>
          <Trackpoint>
            <Time>2022-07-06T17:41:02.000Z</Time>
            <Position>
              <LatitudeDegrees>43.79828478209674358367919921875</LatitudeDegrees>
              <LongitudeDegrees>-1.3824197463691234588623046875</LongitudeDegrees>
            </Position>
            <AltitudeMeters>10.19999980926513671875</AltitudeMeters>
            <DistanceMeters>NAN</DistanceMeters>
          </Trackpoint>
          <Trackpoint>
            <Time>2022-07-06T17:41:03.000Z</Time>
            <Position>
              <LatitudeDegrees>43.798246644437313079833984375</LatitudeDegrees>
              <LongitudeDegrees>-1.3824385218322277069091796875</LongitudeDegrees>
            </Position>
            <AltitudeMeters>10.19999980926513671875</AltitudeMeters>
            <DistanceMeters>NAN</DistanceMeters>
          </Trackpoint>
          <Trackpoint>
            <Time>2022-07-06T17:41:07.000Z</Time>
            <Position>
              <LatitudeDegrees>43.79811010323464870452880859375</LatitudeDegrees>
              <LongitudeDegrees>-1.382504738867282867431640625</LongitudeDegrees>
            </Position>
            <AltitudeMeters>10.6000003814697265625</AltitudeMeters>
            <DistanceMeters>NAN</DistanceMeters>
          </Trackpoint>
          <Trackpoint>
            <Time>2022-07-06T17:41:09.000Z</Time>
            <Position>
              <LatitudeDegrees>43.79805260337889194488525390625</LatitudeDegrees>
              <LongitudeDegrees>-1.3825347460806369781494140625</LongitudeDegrees>
            </Position>
            <AltitudeMeters>10.6000003814697265625</AltitudeMeters>
            <DistanceMeters>NAN</DistanceMeters>
          </Trackpoint>
          <Trackpoint>
            <Time>2022-07-06T17:41:11.000Z</Time>
            <Position>
              <LatitudeDegrees>43.7979759089648723602294921875</LatitudeDegrees>
              <LongitudeDegrees>-1.38257556594908237457275390625</LongitudeDegrees>
            </Position>
            <AltitudeMeters>10.80000019073486328125</AltitudeMeters>
            <DistanceMeters>NAN</DistanceMeters>
          </Trackpoint>
          <Trackpoint>
            <Time>2022-07-06T17:41:13.000Z</Time>
            <Position>
              <LatitudeDegrees>43.7979152239859104156494140625</LatitudeDegrees>
              <LongitudeDegrees>-1.38262451626360416412353515625</LongitudeDegrees>
            </Position>
            <AltitudeMeters>10.80000019073486328125</AltitudeMeters>
            <DistanceMeters>NAN</DistanceMeters>
          </Trackpoint>
          <Trackpoint>
            <Time>2022-07-06T17:41:14.000Z</Time>
            <Position>
              <LatitudeDegrees>43.797871135175228118896484375</LatitudeDegrees>
              <LongitudeDegrees>-1.382644884288311004638671875</LongitudeDegrees>
            </Position>
            <AltitudeMeters>10.80000019073486328125</AltitudeMeters>
            <DistanceMeters>NAN</DistanceMeters>
          </Trackpoint>
          <Trackpoint>
            <Time>2022-07-06T17:41:17.000Z</Time>
            <Position>
              <LatitudeDegrees>43.79775169305503368377685546875</LatitudeDegrees>
              <LongitudeDegrees>-1.38271638192236423492431640625</LongitudeDegrees>
            </Position>
            <AltitudeMeters>10.80000019073486328125</AltitudeMeters>
            <DistanceMeters>NAN</DistanceMeters>
          </Trackpoint>
          <Trackpoint>
            <Time>2022-07-06T17:41:21.000Z</Time>
            <Position>
              <LatitudeDegrees>43.7976287305355072021484375</LatitudeDegrees>
              <LongitudeDegrees>-1.3828061521053314208984375</LongitudeDegrees>
            </Position>
            <AltitudeMeters>11</AltitudeMeters>
            <DistanceMeters>NAN</DistanceMeters>
          </Trackpoint>
          <Trackpoint>
            <Time>2022-07-06T17:41:22.000Z</Time>
            <Position>
              <LatitudeDegrees>43.7976054288446903228759765625</LatitudeDegrees>
              <LongitudeDegrees>-1.38282350264489650726318359375</LongitudeDegrees>
            </Position>
            <AltitudeMeters>11</AltitudeMeters>
            <DistanceMeters>NAN</DistanceMeters>
          </Trackpoint>
          <Trackpoint>
            <Time>2022-07-06T17:41:27.000Z</Time>
            <Position>
              <LatitudeDegrees>43.79744701087474822998046875</LatitudeDegrees>
              <LongitudeDegrees>-1.3828881271183490753173828125</LongitudeDegrees>
            </Position>
            <AltitudeMeters>11</AltitudeMeters>
            <DistanceMeters>NAN</DistanceMeters>
          </Trackpoint>
          <Trackpoint>
            <Time>2022-07-06T17:41:36.000Z</Time>
            <Position>
              <LatitudeDegrees>43.79715875722467899322509765625</LatitudeDegrees>
              <LongitudeDegrees>-1.383123658597469329833984375</LongitudeDegrees>
            </Position>
            <AltitudeMeters>11.19999980926513671875</AltitudeMeters>
            <DistanceMeters>NAN</DistanceMeters>
          </Trackpoint>
          <Trackpoint>
            <Time>2022-07-06T17:41:42.000Z</Time>
            <Position>
              <LatitudeDegrees>43.79695055074989795684814453125</LatitudeDegrees>
              <LongitudeDegrees>-1.3832916319370269775390625</LongitudeDegrees>
            </Position>
            <AltitudeMeters>11.19999980926513671875</AltitudeMeters>
            <DistanceMeters>NAN</DistanceMeters>
          </Trackpoint>
          <Trackpoint>
            <Time>2022-07-06T17:41:48.000Z</Time>
            <Position>
              <LatitudeDegrees>43.79676346667110919952392578125</LatitudeDegrees>
              <LongitudeDegrees>-1.38349975459277629852294921875</LongitudeDegrees>
            </Position>
            <AltitudeMeters>11.19999980926513671875</AltitudeMeters>
            <DistanceMeters>NAN</DistanceMeters>
          </Trackpoint>
          <Trackpoint>
            <Time>2022-07-06T17:41:56.000Z</Time>
            <Position>
              <LatitudeDegrees>43.79652500152587890625</LatitudeDegrees>
              <LongitudeDegrees>-1.3837789557874202728271484375</LongitudeDegrees>
            </Position>
            <AltitudeMeters>11</AltitudeMeters>
            <DistanceMeters>NAN</DistanceMeters>
          </Trackpoint>
          <Trackpoint>
            <Time>2022-07-06T17:42:02.000Z</Time>
            <Position>
              <LatitudeDegrees>43.79637052305042743682861328125</LatitudeDegrees>
              <LongitudeDegrees>-1.3839935325086116790771484375</LongitudeDegrees>
            </Position>
            <AltitudeMeters>11.3999996185302734375</AltitudeMeters>
            <DistanceMeters>NAN</DistanceMeters>
          </Trackpoint>
          <Trackpoint>
            <Time>2022-07-06T17:42:07.000Z</Time>
            <Position>
              <LatitudeDegrees>43.79625854082405567169189453125</LatitudeDegrees>
              <LongitudeDegrees>-1.38415387831628322601318359375</LongitudeDegrees>
            </Position>
            <AltitudeMeters>11.6000003814697265625</AltitudeMeters>
            <DistanceMeters>NAN</DistanceMeters>
          </Trackpoint>
          <Trackpoint>
            <Time>2022-07-06T17:42:14.000Z</Time>
            <Position>
              <LatitudeDegrees>43.79604765214025974273681640625</LatitudeDegrees>
              <LongitudeDegrees>-1.38440751470625400543212890625</LongitudeDegrees>
            </Position>
            <AltitudeMeters>11.3999996185302734375</AltitudeMeters>
            <DistanceMeters>NAN</DistanceMeters>
          </Trackpoint>
          <Trackpoint>
            <Time>2022-07-06T17:42:19.000Z</Time>
            <Position>
              <LatitudeDegrees>43.79588739015161991119384765625</LatitudeDegrees>
              <LongitudeDegrees>-1.3845742307603359222412109375</LongitudeDegrees>
            </Position>
            <AltitudeMeters>11.80000019073486328125</AltitudeMeters>
            <DistanceMeters>NAN</DistanceMeters>
          </Trackpoint>
          <Trackpoint>
            <Time>2022-07-06T17:42:20.000Z</Time>
            <Position>
              <LatitudeDegrees>43.795859478414058685302734375</LatitudeDegrees>
              <LongitudeDegrees>-1.38460792601108551025390625</LongitudeDegrees>
            </Position>
            <AltitudeMeters>11.80000019073486328125</AltitudeMeters>
            <DistanceMeters>NAN</DistanceMeters>
          </Trackpoint>
          <Trackpoint>
            <Time>2022-07-06T17:42:25.000Z</Time>
            <Position>
              <LatitudeDegrees>43.79573517479002475738525390625</LatitudeDegrees>
              <LongitudeDegrees>-1.38478905893862247467041015625</LongitudeDegrees>
            </Position>
            <AltitudeMeters>11.80000019073486328125</AltitudeMeters>
            <DistanceMeters>NAN</DistanceMeters>
          </Trackpoint>
          <Trackpoint>
            <Time>2022-07-06T17:42:27.000Z</Time>
            <Position>
              <LatitudeDegrees>43.7956765852868556976318359375</LatitudeDegrees>
              <LongitudeDegrees>-1.384852342307567596435546875</LongitudeDegrees>
            </Position>
            <AltitudeMeters>11.80000019073486328125</AltitudeMeters>
            <DistanceMeters>NAN</DistanceMeters>
          </Trackpoint>
          <Trackpoint>
            <Time>2022-07-06T17:42:33.000Z</Time>
            <Position>
              <LatitudeDegrees>43.7955290637910366058349609375</LatitudeDegrees>
              <LongitudeDegrees>-1.38504512608051300048828125</LongitudeDegrees>
            </Position>
            <AltitudeMeters>11.6000003814697265625</AltitudeMeters>
            <DistanceMeters>NAN</DistanceMeters>
          </Trackpoint>
          <Trackpoint>
            <Time>2022-07-06T17:42:40.000Z</Time>
            <Position>
              <LatitudeDegrees>43.79531255923211574554443359375</LatitudeDegrees>
              <LongitudeDegrees>-1.38527554459869861602783203125</LongitudeDegrees>
            </Position>
            <AltitudeMeters>11.3999996185302734375</AltitudeMeters>
            <DistanceMeters>NAN</DistanceMeters>
          </Trackpoint>
          <Trackpoint>
            <Time>2022-07-06T17:42:46.000Z</Time>
            <Position>
              <LatitudeDegrees>43.79512731917202472686767578125</LatitudeDegrees>
              <LongitudeDegrees>-1.38549230061471462249755859375</LongitudeDegrees>
            </Position>
            <AltitudeMeters>11.3999996185302734375</AltitudeMeters>
            <DistanceMeters>NAN</DistanceMeters>
          </Trackpoint>
          <Trackpoint>
            <Time>2022-07-06T17:42:48.000Z</Time>
            <Position>
              <LatitudeDegrees>43.795074932277202606201171875</LatitudeDegrees>
              <LongitudeDegrees>-1.38556639663875102996826171875</LongitudeDegrees>
            </Position>
            <AltitudeMeters>11.3999996185302734375</AltitudeMeters>
            <DistanceMeters>NAN</DistanceMeters>
          </Trackpoint>
          <Trackpoint>
            <Time>2022-07-06T17:42:52.000Z</Time>
            <Position>
              <LatitudeDegrees>43.7949674762785434722900390625</LatitudeDegrees>
              <LongitudeDegrees>-1.38571039773523807525634765625</LongitudeDegrees>
            </Position>
            <AltitudeMeters>11.3999996185302734375</AltitudeMeters>
            <DistanceMeters>NAN</DistanceMeters>
          </Trackpoint>
          <Trackpoint>
            <Time>2022-07-06T17:42:58.000Z</Time>
            <Position>
              <LatitudeDegrees>43.794766478240489959716796875</LatitudeDegrees>
              <LongitudeDegrees>-1.38589329086244106292724609375</LongitudeDegrees>
            </Position>
            <AltitudeMeters>11.6000003814697265625</AltitudeMeters>
            <DistanceMeters>NAN</DistanceMeters>
          </Trackpoint>
          <Trackpoint>
            <Time>2022-07-06T17:42:59.000Z</Time>
            <Position>
              <LatitudeDegrees>43.79473269917070865631103515625</LatitudeDegrees>
              <LongitudeDegrees>-1.38593570329248905181884765625</LongitudeDegrees>
            </Position>
            <AltitudeMeters>11.6000003814697265625</AltitudeMeters>
            <DistanceMeters>NAN</DistanceMeters>
          </Trackpoint>
          <Trackpoint>
            <Time>2022-07-06T17:43:01.000Z</Time>
            <Position>
              <LatitudeDegrees>43.7946881912648677825927734375</LatitudeDegrees>
              <LongitudeDegrees>-1.38602522201836109161376953125</LongitudeDegrees>
            </Position>
            <AltitudeMeters>11.6000003814697265625</AltitudeMeters>
            <DistanceMeters>NAN</DistanceMeters>
          </Trackpoint>
          <Trackpoint>
            <Time>2022-07-06T17:43:03.000Z</Time>
            <Position>
              <LatitudeDegrees>43.794623315334320068359375</LatitudeDegrees>
              <LongitudeDegrees>-1.38611909933388233184814453125</LongitudeDegrees>
            </Position>
            <AltitudeMeters>11.6000003814697265625</AltitudeMeters>
            <DistanceMeters>NAN</DistanceMeters>
          </Trackpoint>
          <Trackpoint>
            <Time>2022-07-06T17:43:07.000Z</Time>
            <Position>
              <LatitudeDegrees>43.79448040388524532318115234375</LatitudeDegrees>
              <LongitudeDegrees>-1.38625974766910076141357421875</LongitudeDegrees>
            </Position>
            <AltitudeMeters>11.6000003814697265625</AltitudeMeters>
            <DistanceMeters>NAN</DistanceMeters>
          </Trackpoint>
          <Trackpoint>
            <Time>2022-07-06T17:43:08.000Z</Time>
            <Position>
              <LatitudeDegrees>43.79444285295903682708740234375</LatitudeDegrees>
              <LongitudeDegrees>-1.38630450703203678131103515625</LongitudeDegrees>
            </Position>
            <AltitudeMeters>11.6000003814697265625</AltitudeMeters>
            <DistanceMeters>NAN</DistanceMeters>
          </Trackpoint>
          <Trackpoint>
            <Time>2022-07-06T17:43:12.000Z</Time>
            <Position>
              <LatitudeDegrees>43.7943304516375064849853515625</LatitudeDegrees>
              <LongitudeDegrees>-1.38646242208778858184814453125</LongitudeDegrees>
            </Position>
            <AltitudeMeters>11.6000003814697265625</AltitudeMeters>
            <DistanceMeters>NAN</DistanceMeters>
          </Trackpoint>
          <Trackpoint>
            <Time>2022-07-06T17:43:16.000Z</Time>
            <Position>
              <LatitudeDegrees>43.79417731426656246185302734375</LatitudeDegrees>
              <LongitudeDegrees>-1.3865721412003040313720703125</LongitudeDegrees>
            </Position>
            <AltitudeMeters>11.6000003814697265625</AltitudeMeters>
            <DistanceMeters>NAN</DistanceMeters>
          </Trackpoint>
          <Trackpoint>
            <Time>2022-07-06T17:43:21.000Z</Time>
            <Position>
              <LatitudeDegrees>43.79406985826790332794189453125</LatitudeDegrees>
              <LongitudeDegrees>-1.38676903210580348968505859375</LongitudeDegrees>
            </Position>
            <AltitudeMeters>11.80000019073486328125</AltitudeMeters>
            <DistanceMeters>NAN</DistanceMeters>
          </Trackpoint>
          <Trackpoint>
            <Time>2022-07-06T17:43:24.000Z</Time>
            <Position>
              <LatitudeDegrees>43.793984614312648773193359375</LatitudeDegrees>
              <LongitudeDegrees>-1.38689073733985424041748046875</LongitudeDegrees>
            </Position>
            <AltitudeMeters>11.80000019073486328125</AltitudeMeters>
            <DistanceMeters>NAN</DistanceMeters>
          </Trackpoint>
          <Trackpoint>
            <Time>2022-07-06T17:43:25.000Z</Time>
            <Position>
              <LatitudeDegrees>43.79395334981381893157958984375</LatitudeDegrees>
              <LongitudeDegrees>-1.3869147934019565582275390625</LongitudeDegrees>
            </Position>
            <AltitudeMeters>11.80000019073486328125</AltitudeMeters>
            <DistanceMeters>NAN</DistanceMeters>
          </Trackpoint>
          <Trackpoint>
            <Time>2022-07-06T17:43:26.000Z</Time>
            <Position>
              <LatitudeDegrees>43.79391613416373729705810546875</LatitudeDegrees>
              <LongitudeDegrees>-1.38694304041564464569091796875</LongitudeDegrees>
            </Position>
            <AltitudeMeters>11.80000019073486328125</AltitudeMeters>
            <DistanceMeters>NAN</DistanceMeters>
          </Trackpoint>
          <Trackpoint>
            <Time>2022-07-06T17:43:27.000Z</Time>
            <Position>
              <LatitudeDegrees>43.79387707449495792388916015625</LatitudeDegrees>
              <LongitudeDegrees>-1.38698763214051723480224609375</LongitudeDegrees>
            </Position>
            <AltitudeMeters>11.80000019073486328125</AltitudeMeters>
            <DistanceMeters>NAN</DistanceMeters>
          </Trackpoint>
          <Trackpoint>
            <Time>2022-07-06T17:43:30.000Z</Time>
            <Position>
              <LatitudeDegrees>43.79380096681416034698486328125</LatitudeDegrees>
              <LongitudeDegrees>-1.38712543062865734100341796875</LongitudeDegrees>
            </Position>
            <AltitudeMeters>11.80000019073486328125</AltitudeMeters>
            <DistanceMeters>NAN</DistanceMeters>
          </Trackpoint>
          <Trackpoint>
            <Time>2022-07-06T17:43:35.000Z</Time>
            <Position>
              <LatitudeDegrees>43.79363961517810821533203125</LatitudeDegrees>
              <LongitudeDegrees>-1.38731486164033412933349609375</LongitudeDegrees>
            </Position>
            <AltitudeMeters>12</AltitudeMeters>
            <DistanceMeters>NAN</DistanceMeters>
          </Trackpoint>
          <Trackpoint>
            <Time>2022-07-06T17:43:39.000Z</Time>
            <Position>
              <LatitudeDegrees>43.7935029901564121246337890625</LatitudeDegrees>
              <LongitudeDegrees>-1.38747110031545162200927734375</LongitudeDegrees>
            </Position>
            <AltitudeMeters>11.80000019073486328125</AltitudeMeters>
            <DistanceMeters>NAN</DistanceMeters>
          </Trackpoint>
          <Trackpoint>
            <Time>2022-07-06T17:43:40.000Z</Time>
            <Position>
              <LatitudeDegrees>43.7934701330959796905517578125</LatitudeDegrees>
              <LongitudeDegrees>-1.38751015998423099517822265625</LongitudeDegrees>
            </Position>
            <AltitudeMeters>11.80000019073486328125</AltitudeMeters>
            <DistanceMeters>NAN</DistanceMeters>
          </Trackpoint>
          <Trackpoint>
            <Time>2022-07-06T17:43:42.000Z</Time>
            <Position>
              <LatitudeDegrees>43.79335102625191211700439453125</LatitudeDegrees>
              <LongitudeDegrees>-1.387620382010936737060546875</LongitudeDegrees>
            </Position>
            <AltitudeMeters>12</AltitudeMeters>
            <DistanceMeters>NAN</DistanceMeters>
          </Trackpoint>
          <Trackpoint>
            <Time>2022-07-06T17:43:45.000Z</Time>
            <Position>
              <LatitudeDegrees>43.79320618696510791778564453125</LatitudeDegrees>
              <LongitudeDegrees>-1.38776496984064579010009765625</LongitudeDegrees>
            </Position>
            <AltitudeMeters>12</AltitudeMeters>
            <DistanceMeters>NAN</DistanceMeters>
          </Trackpoint>
          <Trackpoint>
            <Time>2022-07-06T17:43:48.000Z</Time>
            <Position>
              <LatitudeDegrees>43.7931003235280513763427734375</LatitudeDegrees>
              <LongitudeDegrees>-1.38792607001960277557373046875</LongitudeDegrees>
            </Position>
            <AltitudeMeters>12.19999980926513671875</AltitudeMeters>
            <DistanceMeters>NAN</DistanceMeters>
          </Trackpoint>
          <Trackpoint>
            <Time>2022-07-06T17:43:56.000Z</Time>
            <Position>
              <LatitudeDegrees>43.7928505428135395050048828125</LatitudeDegrees>
              <LongitudeDegrees>-1.3883011601865291595458984375</LongitudeDegrees>
            </Position>
            <AltitudeMeters>12</AltitudeMeters>
            <DistanceMeters>NAN</DistanceMeters>
          </Trackpoint>
          <Trackpoint>
            <Time>2022-07-06T17:44:05.000Z</Time>
            <Position>
              <LatitudeDegrees>43.7925467826426029205322265625</LatitudeDegrees>
              <LongitudeDegrees>-1.3886560499668121337890625</LongitudeDegrees>
            </Position>
            <AltitudeMeters>11.3999996185302734375</AltitudeMeters>
            <DistanceMeters>NAN</DistanceMeters>
          </Trackpoint>
          <Trackpoint>
            <Time>2022-07-06T17:44:06.000Z</Time>
            <Position>
              <LatitudeDegrees>43.7925129197537899017333984375</LatitudeDegrees>
              <LongitudeDegrees>-1.38869519345462322235107421875</LongitudeDegrees>
            </Position>
            <AltitudeMeters>11.3999996185302734375</AltitudeMeters>
            <DistanceMeters>NAN</DistanceMeters>
          </Trackpoint>
          <Trackpoint>
            <Time>2022-07-06T17:44:12.000Z</Time>
            <Position>
              <LatitudeDegrees>43.7923144362866878509521484375</LatitudeDegrees>
              <LongitudeDegrees>-1.38893474824726581573486328125</LongitudeDegrees>
            </Position>
            <AltitudeMeters>11.19999980926513671875</AltitudeMeters>
            <DistanceMeters>NAN</DistanceMeters>
          </Trackpoint>
          <Trackpoint>
            <Time>2022-07-06T17:44:14.000Z</Time>
            <Position>
              <LatitudeDegrees>43.7922644801437854766845703125</LatitudeDegrees>
              <LongitudeDegrees>-1.38900448568165302276611328125</LongitudeDegrees>
            </Position>
            <AltitudeMeters>11</AltitudeMeters>
            <DistanceMeters>NAN</DistanceMeters>
          </Trackpoint>
          <Trackpoint>
            <Time>2022-07-06T17:44:16.000Z</Time>
            <Position>
              <LatitudeDegrees>43.79220865666866302490234375</LatitudeDegrees>
              <LongitudeDegrees>-1.389073468744754791259765625</LongitudeDegrees>
            </Position>
            <AltitudeMeters>11</AltitudeMeters>
            <DistanceMeters>NAN</DistanceMeters>
          </Trackpoint>
          <Trackpoint>
            <Time>2022-07-06T17:44:21.000Z</Time>
            <Position>
              <LatitudeDegrees>43.79209340550005435943603515625</LatitudeDegrees>
              <LongitudeDegrees>-1.389223001897335052490234375</LongitudeDegrees>
            </Position>
            <AltitudeMeters>10.80000019073486328125</AltitudeMeters>
            <DistanceMeters>NAN</DistanceMeters>
          </Trackpoint>
          <Trackpoint>
            <Time>2022-07-06T17:44:25.000Z</Time>
            <Position>
              <LatitudeDegrees>43.79207965917885303497314453125</LatitudeDegrees>
              <LongitudeDegrees>-1.3892543502151966094970703125</LongitudeDegrees>
            </Position>
            <AltitudeMeters>10.6000003814697265625</AltitudeMeters>
            <DistanceMeters>NAN</DistanceMeters>
          </Trackpoint>
          <Trackpoint>
            <Time>2022-07-06T17:45:42.000Z</Time>
            <Position>
              <LatitudeDegrees>43.79198946990072727203369140625</LatitudeDegrees>
              <LongitudeDegrees>-1.3892892189323902130126953125</LongitudeDegrees>
            </Position>
            <AltitudeMeters>10.19999980926513671875</AltitudeMeters>
            <DistanceMeters>NAN</DistanceMeters>
          </Trackpoint>
          <Trackpoint>
            <Time>2022-07-06T17:45:44.000Z</Time>
            <Position>
              <LatitudeDegrees>43.79196918569505214691162109375</LatitudeDegrees>
              <LongitudeDegrees>-1.3893239200115203857421875</LongitudeDegrees>
            </Position>
            <AltitudeMeters>10.19999980926513671875</AltitudeMeters>
            <DistanceMeters>NAN</DistanceMeters>
          </Trackpoint>
          <Trackpoint>
            <Time>2022-07-06T17:45:45.000Z</Time>
            <Position>
              <LatitudeDegrees>43.79195921123027801513671875</LatitudeDegrees>
              <LongitudeDegrees>-1.3893405161798000335693359375</LongitudeDegrees>
            </Position>
            <AltitudeMeters>10.19999980926513671875</AltitudeMeters>
            <DistanceMeters>NAN</DistanceMeters>
          </Trackpoint>
          <Trackpoint>
            <Time>2022-07-06T17:45:46.000Z</Time>
            <Position>
              <LatitudeDegrees>43.7919504940509796142578125</LatitudeDegrees>
              <LongitudeDegrees>-1.389361135661602020263671875</LongitudeDegrees>
            </Position>
            <AltitudeMeters>10.19999980926513671875</AltitudeMeters>
            <DistanceMeters>NAN</DistanceMeters>
          </Trackpoint>
          <Trackpoint>
            <Time>2022-07-06T17:45:47.000Z</Time>
            <Position>
              <LatitudeDegrees>43.7919399328529834747314453125</LatitudeDegrees>
              <LongitudeDegrees>-1.3893824256956577301025390625</LongitudeDegrees>
            </Position>
            <AltitudeMeters>10.3999996185302734375</AltitudeMeters>
            <DistanceMeters>NAN</DistanceMeters>
          </Trackpoint>
          <Trackpoint>
            <Time>2022-07-06T17:45:48.000Z</Time>
            <Position>
              <LatitudeDegrees>43.79192777909338474273681640625</LatitudeDegrees>
              <LongitudeDegrees>-1.3894058950245380401611328125</LongitudeDegrees>
            </Position>
            <AltitudeMeters>10.3999996185302734375</AltitudeMeters>
            <DistanceMeters>NAN</DistanceMeters>
          </Trackpoint>
          <Trackpoint>
            <Time>2022-07-06T17:45:54.000Z</Time>
            <Position>
              <LatitudeDegrees>43.79184379242360591888427734375</LatitudeDegrees>
              <LongitudeDegrees>-1.38951460830867290496826171875</LongitudeDegrees>
            </Position>
            <AltitudeMeters>10.3999996185302734375</AltitudeMeters>
            <DistanceMeters>NAN</DistanceMeters>
          </Trackpoint>
          <Trackpoint>
            <Time>2022-07-06T17:46:02.000Z</Time>
            <Position>
              <LatitudeDegrees>43.79171404056251049041748046875</LatitudeDegrees>
              <LongitudeDegrees>-1.3896643929183483123779296875</LongitudeDegrees>
            </Position>
            <AltitudeMeters>10.6000003814697265625</AltitudeMeters>
            <DistanceMeters>NAN</DistanceMeters>
          </Trackpoint>
          <Trackpoint>
            <Time>2022-07-06T17:46:07.000Z</Time>
            <Position>
              <LatitudeDegrees>43.79157758317887783050537109375</LatitudeDegrees>
              <LongitudeDegrees>-1.38982876203954219818115234375</LongitudeDegrees>
            </Position>
            <AltitudeMeters>10.6000003814697265625</AltitudeMeters>
            <DistanceMeters>NAN</DistanceMeters>
          </Trackpoint>
          <Trackpoint>
            <Time>2022-07-06T17:46:13.000Z</Time>
            <Position>
              <LatitudeDegrees>43.7913974560797214508056640625</LatitudeDegrees>
              <LongitudeDegrees>-1.3900387287139892578125</LongitudeDegrees>
            </Position>
            <AltitudeMeters>10.80000019073486328125</AltitudeMeters>
            <DistanceMeters>NAN</DistanceMeters>
          </Trackpoint>
          <Trackpoint>
            <Time>2022-07-06T17:46:18.000Z</Time>
            <Position>
              <LatitudeDegrees>43.7912455759942531585693359375</LatitudeDegrees>
              <LongitudeDegrees>-1.39021575450897216796875</LongitudeDegrees>
            </Position>
            <AltitudeMeters>10.6000003814697265625</AltitudeMeters>
            <DistanceMeters>NAN</DistanceMeters>
          </Trackpoint>
          <Trackpoint>
            <Time>2022-07-06T17:46:20.000Z</Time>
            <Position>
              <LatitudeDegrees>43.791187740862369537353515625</LatitudeDegrees>
              <LongitudeDegrees>-1.39028909616172313690185546875</LongitudeDegrees>
            </Position>
            <AltitudeMeters>10.80000019073486328125</AltitudeMeters>
            <DistanceMeters>NAN</DistanceMeters>
          </Trackpoint>
          <Trackpoint>
            <Time>2022-07-06T17:46:22.000Z</Time>
            <Position>
              <LatitudeDegrees>43.7911248765885829925537109375</LatitudeDegrees>
              <LongitudeDegrees>-1.3903647847473621368408203125</LongitudeDegrees>
            </Position>
            <AltitudeMeters>10.80000019073486328125</AltitudeMeters>
            <DistanceMeters>NAN</DistanceMeters>
          </Trackpoint>
          <Trackpoint>
            <Time>2022-07-06T17:46:25.000Z</Time>
            <Position>
              <LatitudeDegrees>43.7910491041839122772216796875</LatitudeDegrees>
              <LongitudeDegrees>-1.3904781080782413482666015625</LongitudeDegrees>
            </Position>
            <AltitudeMeters>10.6000003814697265625</AltitudeMeters>
            <DistanceMeters>NAN</DistanceMeters>
          </Trackpoint>
          <Trackpoint>
            <Time>2022-07-06T17:46:27.000Z</Time>
            <Position>
              <LatitudeDegrees>43.7909786961972713470458984375</LatitudeDegrees>
              <LongitudeDegrees>-1.39055195264518260955810546875</LongitudeDegrees>
            </Position>
            <AltitudeMeters>10.6000003814697265625</AltitudeMeters>
            <DistanceMeters>NAN</DistanceMeters>
          </Trackpoint>
          <Trackpoint>
            <Time>2022-07-06T17:46:33.000Z</Time>
            <Position>
              <LatitudeDegrees>43.7907756865024566650390625</LatitudeDegrees>
              <LongitudeDegrees>-1.390776336193084716796875</LongitudeDegrees>
            </Position>
            <AltitudeMeters>10.3999996185302734375</AltitudeMeters>
            <DistanceMeters>NAN</DistanceMeters>
          </Trackpoint>
          <Trackpoint>
            <Time>2022-07-06T17:46:35.000Z</Time>
            <Position>
              <LatitudeDegrees>43.790693543851375579833984375</LatitudeDegrees>
              <LongitudeDegrees>-1.39086426235735416412353515625</LongitudeDegrees>
            </Position>
            <AltitudeMeters>10.3999996185302734375</AltitudeMeters>
            <DistanceMeters>NAN</DistanceMeters>
          </Trackpoint>
          <Trackpoint>
            <Time>2022-07-06T17:46:45.000Z</Time>
            <Position>
              <LatitudeDegrees>43.7903795577585697174072265625</LatitudeDegrees>
              <LongitudeDegrees>-1.39125980436801910400390625</LongitudeDegrees>
            </Position>
            <AltitudeMeters>10.3999996185302734375</AltitudeMeters>
            <DistanceMeters>NAN</DistanceMeters>
          </Trackpoint>
          <Trackpoint>
            <Time>2022-07-06T17:46:47.000Z</Time>
            <Position>
              <LatitudeDegrees>43.7903114967048168182373046875</LatitudeDegrees>
              <LongitudeDegrees>-1.39134303666651248931884765625</LongitudeDegrees>
            </Position>
            <AltitudeMeters>10.3999996185302734375</AltitudeMeters>
            <DistanceMeters>NAN</DistanceMeters>
          </Trackpoint>
          <Trackpoint>
            <Time>2022-07-06T17:46:51.000Z</Time>
            <Position>
              <LatitudeDegrees>43.790167830884456634521484375</LatitudeDegrees>
              <LongitudeDegrees>-1.3915099203586578369140625</LongitudeDegrees>
            </Position>
            <AltitudeMeters>10.6000003814697265625</AltitudeMeters>
            <DistanceMeters>NAN</DistanceMeters>
          </Trackpoint>
          <Trackpoint>
            <Time>2022-07-06T17:46:56.000Z</Time>
            <Position>
              <LatitudeDegrees>43.79000564105808734893798828125</LatitudeDegrees>
              <LongitudeDegrees>-1.3916998542845249176025390625</LongitudeDegrees>
            </Position>
            <AltitudeMeters>10.6000003814697265625</AltitudeMeters>
            <DistanceMeters>NAN</DistanceMeters>
          </Trackpoint>
          <Trackpoint>
            <Time>2022-07-06T17:46:58.000Z</Time>
            <Position>
              <LatitudeDegrees>43.78993816673755645751953125</LatitudeDegrees>
              <LongitudeDegrees>-1.39177939854562282562255859375</LongitudeDegrees>
            </Position>
            <AltitudeMeters>10.6000003814697265625</AltitudeMeters>
            <DistanceMeters>NAN</DistanceMeters>
          </Trackpoint>
          <Trackpoint>
            <Time>2022-07-06T17:47:02.000Z</Time>
            <Position>
              <LatitudeDegrees>43.7898109294474124908447265625</LatitudeDegrees>
              <LongitudeDegrees>-1.39194318093359470367431640625</LongitudeDegrees>
            </Position>
            <AltitudeMeters>10.80000019073486328125</AltitudeMeters>
            <DistanceMeters>NAN</DistanceMeters>
          </Trackpoint>
          <Trackpoint>
            <Time>2022-07-06T17:47:10.000Z</Time>
            <Position>
              <LatitudeDegrees>43.7895769067108631134033203125</LatitudeDegrees>
              <LongitudeDegrees>-1.39224191196262836456298828125</LongitudeDegrees>
            </Position>
            <AltitudeMeters>11</AltitudeMeters>
            <DistanceMeters>NAN</DistanceMeters>
          </Trackpoint>
          <Trackpoint>
            <Time>2022-07-06T17:47:16.000Z</Time>
            <Position>
              <LatitudeDegrees>43.78940348513424396514892578125</LatitudeDegrees>
              <LongitudeDegrees>-1.39245070517063140869140625</LongitudeDegrees>
            </Position>
            <AltitudeMeters>11</AltitudeMeters>
            <DistanceMeters>NAN</DistanceMeters>
          </Trackpoint>
          <Trackpoint>
            <Time>2022-07-06T17:47:19.000Z</Time>
            <Position>
              <LatitudeDegrees>43.78932268358767032623291015625</LatitudeDegrees>
              <LongitudeDegrees>-1.39254231937229633331298828125</LongitudeDegrees>
            </Position>
            <AltitudeMeters>11.19999980926513671875</AltitudeMeters>
            <DistanceMeters>NAN</DistanceMeters>
          </Trackpoint>
          <Trackpoint>
            <Time>2022-07-06T17:47:24.000Z</Time>
            <Position>
              <LatitudeDegrees>43.7892173230648040771484375</LatitudeDegrees>
              <LongitudeDegrees>-1.3926835544407367706298828125</LongitudeDegrees>
            </Position>
            <AltitudeMeters>11.19999980926513671875</AltitudeMeters>
            <DistanceMeters>NAN</DistanceMeters>
          </Trackpoint>
          <Trackpoint>
            <Time>2022-07-06T17:47:31.000Z</Time>
            <Position>
              <LatitudeDegrees>43.78901188261806964874267578125</LatitudeDegrees>
              <LongitudeDegrees>-1.3929547928273677825927734375</LongitudeDegrees>
            </Position>
            <AltitudeMeters>11.6000003814697265625</AltitudeMeters>
            <DistanceMeters>NAN</DistanceMeters>
          </Trackpoint>
          <Trackpoint>
            <Time>2022-07-06T17:47:36.000Z</Time>
            <Position>
              <LatitudeDegrees>43.78887106664478778839111328125</LatitudeDegrees>
              <LongitudeDegrees>-1.39314330182969570159912109375</LongitudeDegrees>
            </Position>
            <AltitudeMeters>11.6000003814697265625</AltitudeMeters>
            <DistanceMeters>NAN</DistanceMeters>
          </Trackpoint>
          <Trackpoint>
            <Time>2022-07-06T17:47:39.000Z</Time>
            <Position>
              <LatitudeDegrees>43.7887776084244251251220703125</LatitudeDegrees>
              <LongitudeDegrees>-1.39324539341032505035400390625</LongitudeDegrees>
            </Position>
            <AltitudeMeters>11.80000019073486328125</AltitudeMeters>
            <DistanceMeters>NAN</DistanceMeters>
          </Trackpoint>
          <Trackpoint>
            <Time>2022-07-06T17:47:41.000Z</Time>
            <Position>
              <LatitudeDegrees>43.7887088768184185028076171875</LatitudeDegrees>
              <LongitudeDegrees>-1.39332585968077182769775390625</LongitudeDegrees>
            </Position>
            <AltitudeMeters>11.80000019073486328125</AltitudeMeters>
            <DistanceMeters>NAN</DistanceMeters>
          </Trackpoint>
          <Trackpoint>
            <Time>2022-07-06T17:47:50.000Z</Time>
            <Position>
              <LatitudeDegrees>43.78841073252260684967041015625</LatitudeDegrees>
              <LongitudeDegrees>-1.39367379248142242431640625</LongitudeDegrees>
            </Position>
            <AltitudeMeters>11.80000019073486328125</AltitudeMeters>
            <DistanceMeters>NAN</DistanceMeters>
          </Trackpoint>
          <Trackpoint>
            <Time>2022-07-06T17:47:52.000Z</Time>
            <Position>
              <LatitudeDegrees>43.7883494608104228973388671875</LatitudeDegrees>
              <LongitudeDegrees>-1.39374780468642711639404296875</LongitudeDegrees>
            </Position>
            <AltitudeMeters>12</AltitudeMeters>
            <DistanceMeters>NAN</DistanceMeters>
          </Trackpoint>
          <Trackpoint>
            <Time>2022-07-06T17:47:53.000Z</Time>
            <Position>
              <LatitudeDegrees>43.788321800529956817626953125</LatitudeDegrees>
              <LongitudeDegrees>-1.39377705752849578857421875</LongitudeDegrees>
            </Position>
            <AltitudeMeters>12</AltitudeMeters>
            <DistanceMeters>NAN</DistanceMeters>
          </Trackpoint>
          <Trackpoint>
            <Time>2022-07-06T17:47:56.000Z</Time>
            <Position>
              <LatitudeDegrees>43.7882146798074245452880859375</LatitudeDegrees>
              <LongitudeDegrees>-1.39389750547707080841064453125</LongitudeDegrees>
            </Position>
            <AltitudeMeters>12</AltitudeMeters>
            <DistanceMeters>NAN</DistanceMeters>
          </Trackpoint>
          <Trackpoint>
            <Time>2022-07-06T17:48:00.000Z</Time>
            <Position>
              <LatitudeDegrees>43.78808886744081974029541015625</LatitudeDegrees>
              <LongitudeDegrees>-1.39403522014617919921875</LongitudeDegrees>
            </Position>
            <AltitudeMeters>11.80000019073486328125</AltitudeMeters>
            <DistanceMeters>NAN</DistanceMeters>
          </Trackpoint>
          <Trackpoint>
            <Time>2022-07-06T17:48:01.000Z</Time>
            <Position>
              <LatitudeDegrees>43.78805668093264102935791015625</LatitudeDegrees>
              <LongitudeDegrees>-1.39406413771212100982666015625</LongitudeDegrees>
            </Position>
            <AltitudeMeters>11.80000019073486328125</AltitudeMeters>
            <DistanceMeters>NAN</DistanceMeters>
          </Trackpoint>
          <Trackpoint>
            <Time>2022-07-06T17:48:06.000Z</Time>
            <Position>
              <LatitudeDegrees>43.78789138980209827423095703125</LatitudeDegrees>
              <LongitudeDegrees>-1.39423278160393238067626953125</LongitudeDegrees>
            </Position>
            <AltitudeMeters>11.3999996185302734375</AltitudeMeters>
            <DistanceMeters>NAN</DistanceMeters>
          </Trackpoint>
          <Trackpoint>
            <Time>2022-07-06T17:48:13.000Z</Time>
            <Position>
              <LatitudeDegrees>43.78762484528124332427978515625</LatitudeDegrees>
              <LongitudeDegrees>-1.39446814544498920440673828125</LongitudeDegrees>
            </Position>
            <AltitudeMeters>11.3999996185302734375</AltitudeMeters>
            <DistanceMeters>NAN</DistanceMeters>
          </Trackpoint>
          <Trackpoint>
            <Time>2022-07-06T17:48:15.000Z</Time>
            <Position>
              <LatitudeDegrees>43.78754974342882633209228515625</LatitudeDegrees>
              <LongitudeDegrees>-1.3945312611758708953857421875</LongitudeDegrees>
            </Position>
            <AltitudeMeters>11.19999980926513671875</AltitudeMeters>
            <DistanceMeters>NAN</DistanceMeters>
          </Trackpoint>
          <Trackpoint>
            <Time>2022-07-06T17:48:17.000Z</Time>
            <Position>
              <LatitudeDegrees>43.7874861247837543487548828125</LatitudeDegrees>
              <LongitudeDegrees>-1.39460426755249500274658203125</LongitudeDegrees>
            </Position>
            <AltitudeMeters>11.19999980926513671875</AltitudeMeters>
            <DistanceMeters>NAN</DistanceMeters>
          </Trackpoint>
          <Trackpoint>
            <Time>2022-07-06T17:48:18.000Z</Time>
            <Position>
              <LatitudeDegrees>43.78744999878108501434326171875</LatitudeDegrees>
              <LongitudeDegrees>-1.39463611878454685211181640625</LongitudeDegrees>
            </Position>
            <AltitudeMeters>11.19999980926513671875</AltitudeMeters>
            <DistanceMeters>NAN</DistanceMeters>
          </Trackpoint>
          <Trackpoint>
            <Time>2022-07-06T17:48:28.000Z</Time>
            <Position>
              <LatitudeDegrees>43.787017576396465301513671875</LatitudeDegrees>
              <LongitudeDegrees>-1.3949322514235973358154296875</LongitudeDegrees>
            </Position>
            <AltitudeMeters>11.3999996185302734375</AltitudeMeters>
            <DistanceMeters>NAN</DistanceMeters>
          </Trackpoint>
          <Trackpoint>
            <Time>2022-07-06T17:48:37.000Z</Time>
            <Position>
              <LatitudeDegrees>43.78660954535007476806640625</LatitudeDegrees>
              <LongitudeDegrees>-1.3951330818235874176025390625</LongitudeDegrees>
            </Position>
            <AltitudeMeters>11</AltitudeMeters>
            <DistanceMeters>NAN</DistanceMeters>
          </Trackpoint>
          <Trackpoint>
            <Time>2022-07-06T17:48:44.000Z</Time>
            <Position>
              <LatitudeDegrees>43.78628005273640155792236328125</LatitudeDegrees>
              <LongitudeDegrees>-1.39523626305162906646728515625</LongitudeDegrees>
            </Position>
            <AltitudeMeters>11.19999980926513671875</AltitudeMeters>
            <DistanceMeters>NAN</DistanceMeters>
          </Trackpoint>
          <Trackpoint>
            <Time>2022-07-06T17:48:49.000Z</Time>
            <Position>
              <LatitudeDegrees>43.78612213768064975738525390625</LatitudeDegrees>
              <LongitudeDegrees>-1.395292840898036956787109375</LongitudeDegrees>
            </Position>
            <AltitudeMeters>11.19999980926513671875</AltitudeMeters>
            <DistanceMeters>NAN</DistanceMeters>
          </Trackpoint>
          <Trackpoint>
            <Time>2022-07-06T17:48:55.000Z</Time>
            <Position>
              <LatitudeDegrees>43.78598400391638278961181640625</LatitudeDegrees>
              <LongitudeDegrees>-1.3953610695898532867431640625</LongitudeDegrees>
            </Position>
            <AltitudeMeters>11.3999996185302734375</AltitudeMeters>
            <DistanceMeters>NAN</DistanceMeters>
          </Trackpoint>
          <Trackpoint>
            <Time>2022-07-06T17:49:02.000Z</Time>
            <Position>
              <LatitudeDegrees>43.78571729175746440887451171875</LatitudeDegrees>
              <LongitudeDegrees>-1.39548151753842830657958984375</LongitudeDegrees>
            </Position>
            <AltitudeMeters>11</AltitudeMeters>
            <DistanceMeters>NAN</DistanceMeters>
          </Trackpoint>
          <Trackpoint>
            <Time>2022-07-06T17:49:09.000Z</Time>
            <Position>
              <LatitudeDegrees>43.78543247468769550323486328125</LatitudeDegrees>
              <LongitudeDegrees>-1.39560573734343051910400390625</LongitudeDegrees>
            </Position>
            <AltitudeMeters>11</AltitudeMeters>
            <DistanceMeters>NAN</DistanceMeters>
          </Trackpoint>
          <Trackpoint>
            <Time>2022-07-06T17:49:11.000Z</Time>
            <Position>
              <LatitudeDegrees>43.78535049967467784881591796875</LatitudeDegrees>
              <LongitudeDegrees>-1.39564094133675098419189453125</LongitudeDegrees>
            </Position>
            <AltitudeMeters>11</AltitudeMeters>
            <DistanceMeters>NAN</DistanceMeters>
          </Trackpoint>
          <Trackpoint>
            <Time>2022-07-06T17:49:15.000Z</Time>
            <Position>
              <LatitudeDegrees>43.785187304019927978515625</LatitudeDegrees>
              <LongitudeDegrees>-1.39569751918315887451171875</LongitudeDegrees>
            </Position>
            <AltitudeMeters>10.80000019073486328125</AltitudeMeters>
            <DistanceMeters>NAN</DistanceMeters>
          </Trackpoint>
          <Trackpoint>
            <Time>2022-07-06T17:49:19.000Z</Time>
            <Position>
              <LatitudeDegrees>43.78503031097352504730224609375</LatitudeDegrees>
              <LongitudeDegrees>-1.39575979672372341156005859375</LongitudeDegrees>
            </Position>
            <AltitudeMeters>10.6000003814697265625</AltitudeMeters>
            <DistanceMeters>NAN</DistanceMeters>
          </Trackpoint>
          <Trackpoint>
            <Time>2022-07-06T17:49:24.000Z</Time>
            <Position>
              <LatitudeDegrees>43.78484674729406833648681640625</LatitudeDegrees>
              <LongitudeDegrees>-1.39583573676645755767822265625</LongitudeDegrees>
            </Position>
            <AltitudeMeters>10.80000019073486328125</AltitudeMeters>
            <DistanceMeters>NAN</DistanceMeters>
          </Trackpoint>
          <Trackpoint>
            <Time>2022-07-06T17:49:26.000Z</Time>
            <Position>
              <LatitudeDegrees>43.78478388302028179168701171875</LatitudeDegrees>
              <LongitudeDegrees>-1.39585887081921100616455078125</LongitudeDegrees>
            </Position>
            <AltitudeMeters>11</AltitudeMeters>
            <DistanceMeters>NAN</DistanceMeters>
          </Trackpoint>
          <Trackpoint>
            <Time>2022-07-06T17:49:33.000Z</Time>
            <Position>
              <LatitudeDegrees>43.78456838428974151611328125</LatitudeDegrees>
              <LongitudeDegrees>-1.39593984000384807586669921875</LongitudeDegrees>
            </Position>
            <AltitudeMeters>11</AltitudeMeters>
            <DistanceMeters>NAN</DistanceMeters>
          </Trackpoint>
          <Trackpoint>
            <Time>2022-07-06T17:49:39.000Z</Time>
            <Position>
              <LatitudeDegrees>43.78440485335886478424072265625</LatitudeDegrees>
              <LongitudeDegrees>-1.3960172049701213836669921875</LongitudeDegrees>
            </Position>
            <AltitudeMeters>11</AltitudeMeters>
            <DistanceMeters>NAN</DistanceMeters>
          </Trackpoint>
          <Trackpoint>
            <Time>2022-07-06T17:49:42.000Z</Time>
            <Position>
              <LatitudeDegrees>43.78432162106037139892578125</LatitudeDegrees>
              <LongitudeDegrees>-1.396047882735729217529296875</LongitudeDegrees>
            </Position>
            <AltitudeMeters>11</AltitudeMeters>
            <DistanceMeters>NAN</DistanceMeters>
          </Trackpoint>
          <Trackpoint>
            <Time>2022-07-06T17:49:45.000Z</Time>
            <Position>
              <LatitudeDegrees>43.78422397188842296600341796875</LatitudeDegrees>
              <LongitudeDegrees>-1.3960892893373966217041015625</LongitudeDegrees>
            </Position>
            <AltitudeMeters>11</AltitudeMeters>
            <DistanceMeters>NAN</DistanceMeters>
          </Trackpoint>
          <Trackpoint>
            <Time>2022-07-06T17:49:49.000Z</Time>
            <Position>
              <LatitudeDegrees>43.7840720079839229583740234375</LatitudeDegrees>
              <LongitudeDegrees>-1.39614452607929706573486328125</LongitudeDegrees>
            </Position>
            <AltitudeMeters>11</AltitudeMeters>
            <DistanceMeters>NAN</DistanceMeters>
          </Trackpoint>
          <Trackpoint>
            <Time>2022-07-06T17:49:53.000Z</Time>
            <Position>
              <LatitudeDegrees>43.7839130870997905731201171875</LatitudeDegrees>
              <LongitudeDegrees>-1.3962009362876415252685546875</LongitudeDegrees>
            </Position>
            <AltitudeMeters>11</AltitudeMeters>
            <DistanceMeters>NAN</DistanceMeters>
          </Trackpoint>
          <Trackpoint>
            <Time>2022-07-06T17:49:57.000Z</Time>
            <Position>
              <LatitudeDegrees>43.78375777043402194976806640625</LatitudeDegrees>
              <LongitudeDegrees>-1.39624158851802349090576171875</LongitudeDegrees>
            </Position>
            <AltitudeMeters>11</AltitudeMeters>
            <DistanceMeters>NAN</DistanceMeters>
          </Trackpoint>
          <Trackpoint>
            <Time>2022-07-06T17:49:58.000Z</Time>
            <Position>
              <LatitudeDegrees>43.78371820785105228424072265625</LatitudeDegrees>
              <LongitudeDegrees>-1.39624812640249729156494140625</LongitudeDegrees>
            </Position>
            <AltitudeMeters>11</AltitudeMeters>
            <DistanceMeters>NAN</DistanceMeters>
          </Trackpoint>
          <Trackpoint>
            <Time>2022-07-06T17:49:59.000Z</Time>
            <Position>
              <LatitudeDegrees>43.78367864526808261871337890625</LatitudeDegrees>
              <LongitudeDegrees>-1.39625273644924163818359375</LongitudeDegrees>
            </Position>
            <AltitudeMeters>11</AltitudeMeters>
            <DistanceMeters>NAN</DistanceMeters>
          </Trackpoint>
          <Trackpoint>
            <Time>2022-07-06T17:50:00.000Z</Time>
            <Position>
              <LatitudeDegrees>43.78363958559930324554443359375</LatitudeDegrees>
              <LongitudeDegrees>-1.3962614536285400390625</LongitudeDegrees>
            </Position>
            <AltitudeMeters>11</AltitudeMeters>
            <DistanceMeters>NAN</DistanceMeters>
          </Trackpoint>
          <Trackpoint>
            <Time>2022-07-06T17:50:01.000Z</Time>
            <Position>
              <LatitudeDegrees>43.783599436283111572265625</LatitudeDegrees>
              <LongitudeDegrees>-1.39626958407461643218994140625</LongitudeDegrees>
            </Position>
            <AltitudeMeters>11</AltitudeMeters>
            <DistanceMeters>NAN</DistanceMeters>
          </Trackpoint>
          <Trackpoint>
            <Time>2022-07-06T17:50:07.000Z</Time>
            <Position>
              <LatitudeDegrees>43.7833566963672637939453125</LatitudeDegrees>
              <LongitudeDegrees>-1.39629104174673557281494140625</LongitudeDegrees>
            </Position>
            <AltitudeMeters>11.19999980926513671875</AltitudeMeters>
            <DistanceMeters>NAN</DistanceMeters>
          </Trackpoint>
          <Trackpoint>
            <Time>2022-07-06T17:50:11.000Z</Time>
            <Position>
              <LatitudeDegrees>43.78318972885608673095703125</LatitudeDegrees>
              <LongitudeDegrees>-1.39630512334406375885009765625</LongitudeDegrees>
            </Position>
            <AltitudeMeters>11.19999980926513671875</AltitudeMeters>
            <DistanceMeters>NAN</DistanceMeters>
          </Trackpoint>
          <Trackpoint>
            <Time>2022-07-06T17:50:14.000Z</Time>
            <Position>
              <LatitudeDegrees>43.7830670177936553955078125</LatitudeDegrees>
              <LongitudeDegrees>-1.396311409771442413330078125</LongitudeDegrees>
            </Position>
            <AltitudeMeters>11.19999980926513671875</AltitudeMeters>
            <DistanceMeters>NAN</DistanceMeters>
          </Trackpoint>
          <Trackpoint>
            <Time>2022-07-06T17:50:16.000Z</Time>
            <Position>
              <LatitudeDegrees>43.78298881463706493377685546875</LatitudeDegrees>
              <LongitudeDegrees>-1.396313421428203582763671875</LongitudeDegrees>
            </Position>
            <AltitudeMeters>11</AltitudeMeters>
            <DistanceMeters>NAN</DistanceMeters>
          </Trackpoint>
          <Trackpoint>
            <Time>2022-07-06T17:50:18.000Z</Time>
            <Position>
              <LatitudeDegrees>43.782917149364948272705078125</LatitudeDegrees>
              <LongitudeDegrees>-1.3963206298649311065673828125</LongitudeDegrees>
            </Position>
            <AltitudeMeters>11</AltitudeMeters>
            <DistanceMeters>NAN</DistanceMeters>
          </Trackpoint>
          <Trackpoint>
            <Time>2022-07-06T17:50:19.000Z</Time>
            <Position>
              <LatitudeDegrees>43.7828824482858180999755859375</LatitudeDegrees>
              <LongitudeDegrees>-1.39632021076977252960205078125</LongitudeDegrees>
            </Position>
            <AltitudeMeters>11</AltitudeMeters>
            <DistanceMeters>NAN</DistanceMeters>
          </Trackpoint>
          <Trackpoint>
            <Time>2022-07-06T17:50:22.000Z</Time>
            <Position>
              <LatitudeDegrees>43.78278731368482112884521484375</LatitudeDegrees>
              <LongitudeDegrees>-1.396315097808837890625</LongitudeDegrees>
            </Position>
            <AltitudeMeters>11.19999980926513671875</AltitudeMeters>
            <DistanceMeters>NAN</DistanceMeters>
          </Trackpoint>
          <Trackpoint>
            <Time>2022-07-06T17:50:25.000Z</Time>
            <Position>
              <LatitudeDegrees>43.78272579051554203033447265625</LatitudeDegrees>
              <LongitudeDegrees>-1.3963052071630954742431640625</LongitudeDegrees>
            </Position>
            <AltitudeMeters>11</AltitudeMeters>
            <DistanceMeters>NAN</DistanceMeters>
          </Trackpoint>
          <Trackpoint>
            <Time>2022-07-06T17:50:27.000Z</Time>
            <Position>
              <LatitudeDegrees>43.782679103314876556396484375</LatitudeDegrees>
              <LongitudeDegrees>-1.396308727562427520751953125</LongitudeDegrees>
            </Position>
            <AltitudeMeters>11</AltitudeMeters>
            <DistanceMeters>NAN</DistanceMeters>
          </Trackpoint>
          <Trackpoint>
            <Time>2022-07-06T17:50:29.000Z</Time>
            <Position>
              <LatitudeDegrees>43.7826296500861644744873046875</LatitudeDegrees>
              <LongitudeDegrees>-1.3963008485734462738037109375</LongitudeDegrees>
            </Position>
            <AltitudeMeters>11</AltitudeMeters>
            <DistanceMeters>NAN</DistanceMeters>
          </Trackpoint>
          <Trackpoint>
            <Time>2022-07-06T17:50:34.000Z</Time>
            <Position>
              <LatitudeDegrees>43.7824831344187259674072265625</LatitudeDegrees>
              <LongitudeDegrees>-1.39630646444857120513916015625</LongitudeDegrees>
            </Position>
            <AltitudeMeters>11.3999996185302734375</AltitudeMeters>
            <DistanceMeters>NAN</DistanceMeters>
          </Trackpoint>
          <Trackpoint>
            <Time>2022-07-06T17:50:38.000Z</Time>
            <Position>
              <LatitudeDegrees>43.78233837895095348358154296875</LatitudeDegrees>
              <LongitudeDegrees>-1.39629699289798736572265625</LongitudeDegrees>
            </Position>
            <AltitudeMeters>11.3999996185302734375</AltitudeMeters>
            <DistanceMeters>NAN</DistanceMeters>
          </Trackpoint>
          <Trackpoint>
            <Time>2022-07-06T17:50:40.000Z</Time>
            <Position>
              <LatitudeDegrees>43.78227082081139087677001953125</LatitudeDegrees>
              <LongitudeDegrees>-1.3962877728044986724853515625</LongitudeDegrees>
            </Position>
            <AltitudeMeters>11.3999996185302734375</AltitudeMeters>
            <DistanceMeters>NAN</DistanceMeters>
          </Trackpoint>
          <Trackpoint>
            <Time>2022-07-06T17:50:46.000Z</Time>
            <Position>
              <LatitudeDegrees>43.78200151026248931884765625</LatitudeDegrees>
              <LongitudeDegrees>-1.3962988369166851043701171875</LongitudeDegrees>
            </Position>
            <AltitudeMeters>11.19999980926513671875</AltitudeMeters>
            <DistanceMeters>NAN</DistanceMeters>
          </Trackpoint>
          <Trackpoint>
            <Time>2022-07-06T17:50:54.000Z</Time>
            <Position>
              <LatitudeDegrees>43.781596831977367401123046875</LatitudeDegrees>
              <LongitudeDegrees>-1.3962820731103420257568359375</LongitudeDegrees>
            </Position>
            <AltitudeMeters>11.6000003814697265625</AltitudeMeters>
            <DistanceMeters>NAN</DistanceMeters>
          </Trackpoint>
          <Trackpoint>
            <Time>2022-07-06T17:50:58.000Z</Time>
            <Position>
              <LatitudeDegrees>43.7814105860888957977294921875</LatitudeDegrees>
              <LongitudeDegrees>-1.39628433622419834136962890625</LongitudeDegrees>
            </Position>
            <AltitudeMeters>11</AltitudeMeters>
            <DistanceMeters>NAN</DistanceMeters>
          </Trackpoint>
          <Trackpoint>
            <Time>2022-07-06T17:51:00.000Z</Time>
            <Position>
              <LatitudeDegrees>43.7813170440495014190673828125</LatitudeDegrees>
              <LongitudeDegrees>-1.396296657621860504150390625</LongitudeDegrees>
            </Position>
            <AltitudeMeters>10.6000003814697265625</AltitudeMeters>
            <DistanceMeters>NAN</DistanceMeters>
          </Trackpoint>
          <Trackpoint>
            <Time>2022-07-06T17:51:01.000Z</Time>
            <Position>
              <LatitudeDegrees>43.78127337433397769927978515625</LatitudeDegrees>
              <LongitudeDegrees>-1.3963011838495731353759765625</LongitudeDegrees>
            </Position>
            <AltitudeMeters>10.6000003814697265625</AltitudeMeters>
            <DistanceMeters>NAN</DistanceMeters>
          </Trackpoint>
          <Trackpoint>
            <Time>2022-07-06T17:51:02.000Z</Time>
            <Position>
              <LatitudeDegrees>43.781230710446834564208984375</LatitudeDegrees>
              <LongitudeDegrees>-1.396301686763763427734375</LongitudeDegrees>
            </Position>
            <AltitudeMeters>10.6000003814697265625</AltitudeMeters>
            <DistanceMeters>NAN</DistanceMeters>
          </Trackpoint>
          <Trackpoint>
            <Time>2022-07-06T17:51:07.000Z</Time>
            <Position>
              <LatitudeDegrees>43.7810344062745571136474609375</LatitudeDegrees>
              <LongitudeDegrees>-1.39629070647060871124267578125</LongitudeDegrees>
            </Position>
            <AltitudeMeters>10.6000003814697265625</AltitudeMeters>
            <DistanceMeters>NAN</DistanceMeters>
          </Trackpoint>
          <Trackpoint>
            <Time>2022-07-06T17:51:11.000Z</Time>
            <Position>
              <LatitudeDegrees>43.78085629083216190338134765625</LatitudeDegrees>
              <LongitudeDegrees>-1.39629565179347991943359375</LongitudeDegrees>
            </Position>
            <AltitudeMeters>11</AltitudeMeters>
            <DistanceMeters>NAN</DistanceMeters>
          </Trackpoint>
          <Trackpoint>
            <Time>2022-07-06T17:51:13.000Z</Time>
            <Position>
              <LatitudeDegrees>43.7807708792388439178466796875</LatitudeDegrees>
              <LongitudeDegrees>-1.3962944783270359039306640625</LongitudeDegrees>
            </Position>
            <AltitudeMeters>11</AltitudeMeters>
            <DistanceMeters>NAN</DistanceMeters>
          </Trackpoint>
          <Trackpoint>
            <Time>2022-07-06T17:51:15.000Z</Time>
            <Position>
              <LatitudeDegrees>43.78068412654101848602294921875</LatitudeDegrees>
              <LongitudeDegrees>-1.39628953300416469573974609375</LongitudeDegrees>
            </Position>
            <AltitudeMeters>11.6000003814697265625</AltitudeMeters>
            <DistanceMeters>NAN</DistanceMeters>
          </Trackpoint>
          <Trackpoint>
            <Time>2022-07-06T17:51:17.000Z</Time>
            <Position>
              <LatitudeDegrees>43.78059913404285907745361328125</LatitudeDegrees>
              <LongitudeDegrees>-1.3962914608418941497802734375</LongitudeDegrees>
            </Position>
            <AltitudeMeters>11.6000003814697265625</AltitudeMeters>
            <DistanceMeters>NAN</DistanceMeters>
          </Trackpoint>
          <Trackpoint>
            <Time>2022-07-06T17:51:21.000Z</Time>
            <Position>
              <LatitudeDegrees>43.7804384529590606689453125</LatitudeDegrees>
              <LongitudeDegrees>-1.396294645965099334716796875</LongitudeDegrees>
            </Position>
            <AltitudeMeters>11.6000003814697265625</AltitudeMeters>
            <DistanceMeters>NAN</DistanceMeters>
          </Trackpoint>
          <Trackpoint>
            <Time>2022-07-06T17:51:24.000Z</Time>
            <Position>
              <LatitudeDegrees>43.78031951375305652618408203125</LatitudeDegrees>
              <LongitudeDegrees>-1.39630177058279514312744140625</LongitudeDegrees>
            </Position>
            <AltitudeMeters>11.6000003814697265625</AltitudeMeters>
            <DistanceMeters>NAN</DistanceMeters>
          </Trackpoint>
          <Trackpoint>
            <Time>2022-07-06T17:51:25.000Z</Time>
            <Position>
              <LatitudeDegrees>43.78027743659913539886474609375</LatitudeDegrees>
              <LongitudeDegrees>-1.39630110003054141998291015625</LongitudeDegrees>
            </Position>
            <AltitudeMeters>11.6000003814697265625</AltitudeMeters>
            <DistanceMeters>NAN</DistanceMeters>
          </Trackpoint>
          <Trackpoint>
            <Time>2022-07-06T17:51:31.000Z</Time>
            <Position>
              <LatitudeDegrees>43.78001458011567592620849609375</LatitudeDegrees>
              <LongitudeDegrees>-1.39627545140683650970458984375</LongitudeDegrees>
            </Position>
            <AltitudeMeters>11.6000003814697265625</AltitudeMeters>
            <DistanceMeters>NAN</DistanceMeters>
          </Trackpoint>
          <Trackpoint>
            <Time>2022-07-06T17:51:39.000Z</Time>
            <Position>
              <LatitudeDegrees>43.7796705029904842376708984375</LatitudeDegrees>
              <LongitudeDegrees>-1.3962173648178577423095703125</LongitudeDegrees>
            </Position>
            <AltitudeMeters>12</AltitudeMeters>
            <DistanceMeters>NAN</DistanceMeters>
          </Trackpoint>
          <Trackpoint>
            <Time>2022-07-06T17:51:45.000Z</Time>
            <Position>
              <LatitudeDegrees>43.77947595901787281036376953125</LatitudeDegrees>
              <LongitudeDegrees>-1.39618073590099811553955078125</LongitudeDegrees>
            </Position>
            <AltitudeMeters>12.3999996185302734375</AltitudeMeters>
            <DistanceMeters>NAN</DistanceMeters>
          </Trackpoint>
          <Trackpoint>
            <Time>2022-07-06T17:51:48.000Z</Time>
            <Position>
              <LatitudeDegrees>43.7793908827006816864013671875</LatitudeDegrees>
              <LongitudeDegrees>-1.39623035676777362823486328125</LongitudeDegrees>
            </Position>
            <AltitudeMeters>12.6000003814697265625</AltitudeMeters>
            <DistanceMeters>NAN</DistanceMeters>
          </Trackpoint>
          <Trackpoint>
            <Time>2022-07-06T17:51:52.000Z</Time>
            <Position>
              <LatitudeDegrees>43.7793627195060253143310546875</LatitudeDegrees>
              <LongitudeDegrees>-1.396373100578784942626953125</LongitudeDegrees>
            </Position>
            <AltitudeMeters>12.80000019073486328125</AltitudeMeters>
            <DistanceMeters>NAN</DistanceMeters>
          </Trackpoint>
          <Trackpoint>
            <Time>2022-07-06T17:51:54.000Z</Time>
            <Position>
              <LatitudeDegrees>43.77936062403023242950439453125</LatitudeDegrees>
              <LongitudeDegrees>-1.39644660986959934234619140625</LongitudeDegrees>
            </Position>
            <AltitudeMeters>13</AltitudeMeters>
            <DistanceMeters>NAN</DistanceMeters>
          </Trackpoint>
          <Trackpoint>
            <Time>2022-07-06T17:51:59.000Z</Time>
            <Position>
              <LatitudeDegrees>43.77939172089099884033203125</LatitudeDegrees>
              <LongitudeDegrees>-1.39664970338344573974609375</LongitudeDegrees>
            </Position>
            <AltitudeMeters>13</AltitudeMeters>
            <DistanceMeters>NAN</DistanceMeters>
          </Trackpoint>
          <Trackpoint>
            <Time>2022-07-06T17:52:05.000Z</Time>
            <Position>
              <LatitudeDegrees>43.779419548809528350830078125</LatitudeDegrees>
              <LongitudeDegrees>-1.39692773111164569854736328125</LongitudeDegrees>
            </Position>
            <AltitudeMeters>13</AltitudeMeters>
            <DistanceMeters>NAN</DistanceMeters>
          </Trackpoint>
          <Trackpoint>
            <Time>2022-07-06T17:52:07.000Z</Time>
            <Position>
              <LatitudeDegrees>43.77941879443824291229248046875</LatitudeDegrees>
              <LongitudeDegrees>-1.39702227897942066192626953125</LongitudeDegrees>
            </Position>
            <AltitudeMeters>13</AltitudeMeters>
            <DistanceMeters>NAN</DistanceMeters>
          </Trackpoint>
          <Trackpoint>
            <Time>2022-07-06T17:52:12.000Z</Time>
            <Position>
              <LatitudeDegrees>43.77936950884759426116943359375</LatitudeDegrees>
              <LongitudeDegrees>-1.397244147956371307373046875</LongitudeDegrees>
            </Position>
            <AltitudeMeters>12.80000019073486328125</AltitudeMeters>
            <DistanceMeters>NAN</DistanceMeters>
          </Trackpoint>
          <Trackpoint>
            <Time>2022-07-06T17:52:16.000Z</Time>
            <Position>
              <LatitudeDegrees>43.77935777418315410614013671875</LatitudeDegrees>
              <LongitudeDegrees>-1.39743718318641185760498046875</LongitudeDegrees>
            </Position>
            <AltitudeMeters>13</AltitudeMeters>
            <DistanceMeters>NAN</DistanceMeters>
          </Trackpoint>
          <Trackpoint>
            <Time>2022-07-06T17:52:23.000Z</Time>
            <Position>
              <LatitudeDegrees>43.77940420992672443389892578125</LatitudeDegrees>
              <LongitudeDegrees>-1.39775745570659637451171875</LongitudeDegrees>
            </Position>
            <AltitudeMeters>12.80000019073486328125</AltitudeMeters>
            <DistanceMeters>NAN</DistanceMeters>
          </Trackpoint>
          <Trackpoint>
            <Time>2022-07-06T17:52:27.000Z</Time>
            <Position>
              <LatitudeDegrees>43.77934134565293788909912109375</LatitudeDegrees>
              <LongitudeDegrees>-1.39795233495533466339111328125</LongitudeDegrees>
            </Position>
            <AltitudeMeters>13</AltitudeMeters>
            <DistanceMeters>NAN</DistanceMeters>
          </Trackpoint>
          <Trackpoint>
            <Time>2022-07-06T17:52:28.000Z</Time>
            <Position>
              <LatitudeDegrees>43.7793100811541080474853515625</LatitudeDegrees>
              <LongitudeDegrees>-1.39799340628087520599365234375</LongitudeDegrees>
            </Position>
            <AltitudeMeters>13</AltitudeMeters>
            <DistanceMeters>NAN</DistanceMeters>
          </Trackpoint>
          <Trackpoint>
            <Time>2022-07-06T17:52:32.000Z</Time>
            <Position>
              <LatitudeDegrees>43.77917471341788768768310546875</LatitudeDegrees>
              <LongitudeDegrees>-1.39814813621342182159423828125</LongitudeDegrees>
            </Position>
            <AltitudeMeters>12.80000019073486328125</AltitudeMeters>
            <DistanceMeters>NAN</DistanceMeters>
          </Trackpoint>
          <Trackpoint>
            <Time>2022-07-06T17:52:34.000Z</Time>
            <Position>
              <LatitudeDegrees>43.77912349998950958251953125</LatitudeDegrees>
              <LongitudeDegrees>-1.39824620448052883148193359375</LongitudeDegrees>
            </Position>
            <AltitudeMeters>12.6000003814697265625</AltitudeMeters>
            <DistanceMeters>NAN</DistanceMeters>
          </Trackpoint>
          <Trackpoint>
            <Time>2022-07-06T17:52:36.000Z</Time>
            <Position>
              <LatitudeDegrees>43.77909709699451923370361328125</LatitudeDegrees>
              <LongitudeDegrees>-1.39836338348686695098876953125</LongitudeDegrees>
            </Position>
            <AltitudeMeters>12.3999996185302734375</AltitudeMeters>
            <DistanceMeters>NAN</DistanceMeters>
          </Trackpoint>
          <Trackpoint>
            <Time>2022-07-06T17:52:38.000Z</Time>
            <Position>
              <LatitudeDegrees>43.77908117137849330902099609375</LatitudeDegrees>
              <LongitudeDegrees>-1.3984930515289306640625</LongitudeDegrees>
            </Position>
            <AltitudeMeters>12.19999980926513671875</AltitudeMeters>
            <DistanceMeters>NAN</DistanceMeters>
          </Trackpoint>
          <Trackpoint>
            <Time>2022-07-06T17:52:40.000Z</Time>
            <Position>
              <LatitudeDegrees>43.7790785729885101318359375</LatitudeDegrees>
              <LongitudeDegrees>-1.3986273296177387237548828125</LongitudeDegrees>
            </Position>
            <AltitudeMeters>12</AltitudeMeters>
            <DistanceMeters>NAN</DistanceMeters>
          </Trackpoint>
          <Trackpoint>
            <Time>2022-07-06T17:52:41.000Z</Time>
            <Position>
              <LatitudeDegrees>43.77907630987465381622314453125</LatitudeDegrees>
              <LongitudeDegrees>-1.39870486222207546234130859375</LongitudeDegrees>
            </Position>
            <AltitudeMeters>11.80000019073486328125</AltitudeMeters>
            <DistanceMeters>NAN</DistanceMeters>
          </Trackpoint>
          <Trackpoint>
            <Time>2022-07-06T17:52:42.000Z</Time>
            <Position>
              <LatitudeDegrees>43.77907882444560527801513671875</LatitudeDegrees>
              <LongitudeDegrees>-1.39877929352223873138427734375</LongitudeDegrees>
            </Position>
            <AltitudeMeters>11.80000019073486328125</AltitudeMeters>
            <DistanceMeters>NAN</DistanceMeters>
          </Trackpoint>
          <Trackpoint>
            <Time>2022-07-06T17:52:45.000Z</Time>
            <Position>
              <LatitudeDegrees>43.7790928222239017486572265625</LatitudeDegrees>
              <LongitudeDegrees>-1.3989605940878391265869140625</LongitudeDegrees>
            </Position>
            <AltitudeMeters>11.6000003814697265625</AltitudeMeters>
            <DistanceMeters>NAN</DistanceMeters>
          </Trackpoint>
          <Trackpoint>
            <Time>2022-07-06T17:52:47.000Z</Time>
            <Position>
              <LatitudeDegrees>43.77908972091972827911376953125</LatitudeDegrees>
              <LongitudeDegrees>-1.39907232485711574554443359375</LongitudeDegrees>
            </Position>
            <AltitudeMeters>11.3999996185302734375</AltitudeMeters>
            <DistanceMeters>NAN</DistanceMeters>
          </Trackpoint>
          <Trackpoint>
            <Time>2022-07-06T17:52:49.000Z</Time>
            <Position>
              <LatitudeDegrees>43.77908100374042987823486328125</LatitudeDegrees>
              <LongitudeDegrees>-1.39912177808582782745361328125</LongitudeDegrees>
            </Position>
            <AltitudeMeters>11</AltitudeMeters>
            <DistanceMeters>NAN</DistanceMeters>
          </Trackpoint>
          <Trackpoint>
            <Time>2022-07-06T17:52:50.000Z</Time>
            <Position>
              <LatitudeDegrees>43.7790780700743198394775390625</LatitudeDegrees>
              <LongitudeDegrees>-1.39913787133991718292236328125</LongitudeDegrees>
            </Position>
            <AltitudeMeters>11</AltitudeMeters>
            <DistanceMeters>NAN</DistanceMeters>
          </Trackpoint>
          <Trackpoint>
            <Time>2022-07-06T17:52:55.000Z</Time>
            <Position>
              <LatitudeDegrees>43.779061473906040191650390625</LatitudeDegrees>
              <LongitudeDegrees>-1.39921582303941249847412109375</LongitudeDegrees>
            </Position>
            <AltitudeMeters>10.80000019073486328125</AltitudeMeters>
            <DistanceMeters>NAN</DistanceMeters>
          </Trackpoint>
          <Trackpoint>
            <Time>2022-07-06T17:52:56.000Z</Time>
            <Position>
              <LatitudeDegrees>43.77905971370637416839599609375</LatitudeDegrees>
              <LongitudeDegrees>-1.39923325739800930023193359375</LongitudeDegrees>
            </Position>
            <AltitudeMeters>11</AltitudeMeters>
            <DistanceMeters>NAN</DistanceMeters>
          </Trackpoint>
          <Trackpoint>
            <Time>2022-07-06T17:53:01.000Z</Time>
            <Position>
              <LatitudeDegrees>43.7790592946112155914306640625</LatitudeDegrees>
              <LongitudeDegrees>-1.399413384497165679931640625</LongitudeDegrees>
            </Position>
            <AltitudeMeters>11.19999980926513671875</AltitudeMeters>
            <DistanceMeters>NAN</DistanceMeters>
          </Trackpoint>
          <Trackpoint>
            <Time>2022-07-06T17:53:07.000Z</Time>
            <Position>
              <LatitudeDegrees>43.77906315028667449951171875</LatitudeDegrees>
              <LongitudeDegrees>-1.3996629975736141204833984375</LongitudeDegrees>
            </Position>
            <AltitudeMeters>11.3999996185302734375</AltitudeMeters>
            <DistanceMeters>NAN</DistanceMeters>
          </Trackpoint>
          <Trackpoint>
            <Time>2022-07-06T17:53:08.000Z</Time>
            <Position>
              <LatitudeDegrees>43.779058791697025299072265625</LatitudeDegrees>
              <LongitudeDegrees>-1.3997176475822925567626953125</LongitudeDegrees>
            </Position>
            <AltitudeMeters>11.3999996185302734375</AltitudeMeters>
            <DistanceMeters>NAN</DistanceMeters>
          </Trackpoint>
          <Trackpoint>
            <Time>2022-07-06T17:53:15.000Z</Time>
            <Position>
              <LatitudeDegrees>43.7790452130138874053955078125</LatitudeDegrees>
              <LongitudeDegrees>-1.40007563866674900054931640625</LongitudeDegrees>
            </Position>
            <AltitudeMeters>11.6000003814697265625</AltitudeMeters>
            <DistanceMeters>NAN</DistanceMeters>
          </Trackpoint>
          <Trackpoint>
            <Time>2022-07-06T17:53:22.000Z</Time>
            <Position>
              <LatitudeDegrees>43.77913833595812320709228515625</LatitudeDegrees>
              <LongitudeDegrees>-1.4003654010593891143798828125</LongitudeDegrees>
            </Position>
            <AltitudeMeters>11.6000003814697265625</AltitudeMeters>
            <DistanceMeters>NAN</DistanceMeters>
          </Trackpoint>
          <Trackpoint>
            <Time>2022-07-06T17:53:29.000Z</Time>
            <Position>
              <LatitudeDegrees>43.77923925407230854034423828125</LatitudeDegrees>
              <LongitudeDegrees>-1.400649882853031158447265625</LongitudeDegrees>
            </Position>
            <AltitudeMeters>11.6000003814697265625</AltitudeMeters>
            <DistanceMeters>NAN</DistanceMeters>
          </Trackpoint>
          <Trackpoint>
            <Time>2022-07-06T17:53:31.000Z</Time>
            <Position>
              <LatitudeDegrees>43.779291473329067230224609375</LatitudeDegrees>
              <LongitudeDegrees>-1.4007402397692203521728515625</LongitudeDegrees>
            </Position>
            <AltitudeMeters>11.3999996185302734375</AltitudeMeters>
            <DistanceMeters>NAN</DistanceMeters>
          </Trackpoint>
          <Trackpoint>
            <Time>2022-07-06T17:53:34.000Z</Time>
            <Position>
              <LatitudeDegrees>43.77935056574642658233642578125</LatitudeDegrees>
              <LongitudeDegrees>-1.40084761194884777069091796875</LongitudeDegrees>
            </Position>
            <AltitudeMeters>11.3999996185302734375</AltitudeMeters>
            <DistanceMeters>NAN</DistanceMeters>
          </Trackpoint>
          <Trackpoint>
            <Time>2022-07-06T17:53:40.000Z</Time>
            <Position>
              <LatitudeDegrees>43.7795196287333965301513671875</LatitudeDegrees>
              <LongitudeDegrees>-1.40102832578122615814208984375</LongitudeDegrees>
            </Position>
            <AltitudeMeters>11.3999996185302734375</AltitudeMeters>
            <DistanceMeters>NAN</DistanceMeters>
          </Trackpoint>
          <Trackpoint>
            <Time>2022-07-06T17:53:45.000Z</Time>
            <Position>
              <LatitudeDegrees>43.77968416549265384674072265625</LatitudeDegrees>
              <LongitudeDegrees>-1.40108817256987094879150390625</LongitudeDegrees>
            </Position>
            <AltitudeMeters>11.3999996185302734375</AltitudeMeters>
            <DistanceMeters>NAN</DistanceMeters>
          </Trackpoint>
          <Trackpoint>
            <Time>2022-07-06T17:53:51.000Z</Time>
            <Position>
              <LatitudeDegrees>43.7798096425831317901611328125</LatitudeDegrees>
              <LongitudeDegrees>-1.4012200199067592620849609375</LongitudeDegrees>
            </Position>
            <AltitudeMeters>11.3999996185302734375</AltitudeMeters>
            <DistanceMeters>NAN</DistanceMeters>
          </Trackpoint>
          <Trackpoint>
            <Time>2022-07-06T17:53:53.000Z</Time>
            <Position>
              <LatitudeDegrees>43.77984191291034221649169921875</LatitudeDegrees>
              <LongitudeDegrees>-1.40126620419323444366455078125</LongitudeDegrees>
            </Position>
            <AltitudeMeters>11.3999996185302734375</AltitudeMeters>
            <DistanceMeters>NAN</DistanceMeters>
          </Trackpoint>
          <Trackpoint>
            <Time>2022-07-06T17:53:55.000Z</Time>
            <Position>
              <LatitudeDegrees>43.779852390289306640625</LatitudeDegrees>
              <LongitudeDegrees>-1.4013236202299594879150390625</LongitudeDegrees>
            </Position>
            <AltitudeMeters>11.19999980926513671875</AltitudeMeters>
            <DistanceMeters>NAN</DistanceMeters>
          </Trackpoint>
          <Trackpoint>
            <Time>2022-07-06T17:54:01.000Z</Time>
            <Position>
              <LatitudeDegrees>43.7798170186579227447509765625</LatitudeDegrees>
              <LongitudeDegrees>-1.4014972932636737823486328125</LongitudeDegrees>
            </Position>
            <AltitudeMeters>11.6000003814697265625</AltitudeMeters>
            <DistanceMeters>NAN</DistanceMeters>
          </Trackpoint>
          <Trackpoint>
            <Time>2022-07-06T17:54:06.000Z</Time>
            <Position>
              <LatitudeDegrees>43.7797223031520843505859375</LatitudeDegrees>
              <LongitudeDegrees>-1.40168228186666965484619140625</LongitudeDegrees>
            </Position>
            <AltitudeMeters>11.3999996185302734375</AltitudeMeters>
            <DistanceMeters>NAN</DistanceMeters>
          </Trackpoint>
          <Trackpoint>
            <Time>2022-07-06T17:54:12.000Z</Time>
            <Position>
              <LatitudeDegrees>43.7796808965504169464111328125</LatitudeDegrees>
              <LongitudeDegrees>-1.40190012753009796142578125</LongitudeDegrees>
            </Position>
            <AltitudeMeters>11</AltitudeMeters>
            <DistanceMeters>NAN</DistanceMeters>
          </Trackpoint>
          <Trackpoint>
            <Time>2022-07-06T17:54:15.000Z</Time>
            <Position>
              <LatitudeDegrees>43.77967259846627712249755859375</LatitudeDegrees>
              <LongitudeDegrees>-1.40195586718618869781494140625</LongitudeDegrees>
            </Position>
            <AltitudeMeters>10.80000019073486328125</AltitudeMeters>
            <DistanceMeters>NAN</DistanceMeters>
          </Trackpoint>
          <Trackpoint>
            <Time>2022-07-06T17:54:16.000Z</Time>
            <Position>
              <LatitudeDegrees>43.77966932952404022216796875</LatitudeDegrees>
              <LongitudeDegrees>-1.40195787884294986724853515625</LongitudeDegrees>
            </Position>
            <AltitudeMeters>10.80000019073486328125</AltitudeMeters>
            <DistanceMeters>NAN</DistanceMeters>
          </Trackpoint>
          <Trackpoint>
            <Time>2022-07-06T17:54:18.000Z</Time>
            <Position>
              <LatitudeDegrees>43.77965616993606090545654296875</LatitudeDegrees>
              <LongitudeDegrees>-1.4019331522285938262939453125</LongitudeDegrees>
            </Position>
            <AltitudeMeters>10.6000003814697265625</AltitudeMeters>
            <DistanceMeters>NAN</DistanceMeters>
          </Trackpoint>
          <Trackpoint>
            <Time>2022-07-06T17:54:20.000Z</Time>
            <Position>
              <LatitudeDegrees>43.77963672392070293426513671875</LatitudeDegrees>
              <LongitudeDegrees>-1.40190155245363712310791015625</LongitudeDegrees>
            </Position>
            <AltitudeMeters>10.6000003814697265625</AltitudeMeters>
            <DistanceMeters>NAN</DistanceMeters>
          </Trackpoint>
          <Trackpoint>
            <Time>2022-07-06T17:54:22.000Z</Time>
            <Position>
              <LatitudeDegrees>43.7796031124889850616455078125</LatitudeDegrees>
              <LongitudeDegrees>-1.401856876909732818603515625</LongitudeDegrees>
            </Position>
            <AltitudeMeters>10.6000003814697265625</AltitudeMeters>
            <DistanceMeters>NAN</DistanceMeters>
          </Trackpoint>
          <Trackpoint>
            <Time>2022-07-06T17:54:25.000Z</Time>
            <Position>
              <LatitudeDegrees>43.77954418770968914031982421875</LatitudeDegrees>
              <LongitudeDegrees>-1.40180516056716442108154296875</LongitudeDegrees>
            </Position>
            <AltitudeMeters>10.6000003814697265625</AltitudeMeters>
            <DistanceMeters>NAN</DistanceMeters>
          </Trackpoint>
          <Trackpoint>
            <Time>2022-07-06T17:54:29.000Z</Time>
            <Position>
              <LatitudeDegrees>43.77944595180451869964599609375</LatitudeDegrees>
              <LongitudeDegrees>-1.40189878642559051513671875</LongitudeDegrees>
            </Position>
            <AltitudeMeters>10.80000019073486328125</AltitudeMeters>
            <DistanceMeters>NAN</DistanceMeters>
          </Trackpoint>
          <Trackpoint>
            <Time>2022-07-06T17:54:37.000Z</Time>
            <Position>
              <LatitudeDegrees>43.77922601066529750823974609375</LatitudeDegrees>
              <LongitudeDegrees>-1.4021661691367626190185546875</LongitudeDegrees>
            </Position>
            <AltitudeMeters>10.80000019073486328125</AltitudeMeters>
            <DistanceMeters>NAN</DistanceMeters>
          </Trackpoint>
          <Trackpoint>
            <Time>2022-07-06T17:54:43.000Z</Time>
            <Position>
              <LatitudeDegrees>43.779068849980831146240234375</LatitudeDegrees>
              <LongitudeDegrees>-1.402343697845935821533203125</LongitudeDegrees>
            </Position>
            <AltitudeMeters>11.19999980926513671875</AltitudeMeters>
            <DistanceMeters>NAN</DistanceMeters>
          </Trackpoint>
          <Trackpoint>
            <Time>2022-07-06T17:54:48.000Z</Time>
            <Position>
              <LatitudeDegrees>43.7789127789437770843505859375</LatitudeDegrees>
              <LongitudeDegrees>-1.4024917222559452056884765625</LongitudeDegrees>
            </Position>
            <AltitudeMeters>11</AltitudeMeters>
            <DistanceMeters>NAN</DistanceMeters>
          </Trackpoint>
          <Trackpoint>
            <Time>2022-07-06T17:54:50.000Z</Time>
            <Position>
              <LatitudeDegrees>43.7788705341517925262451171875</LatitudeDegrees>
              <LongitudeDegrees>-1.40254117548465728759765625</LongitudeDegrees>
            </Position>
            <AltitudeMeters>11</AltitudeMeters>
            <DistanceMeters>NAN</DistanceMeters>
          </Trackpoint>
          <Trackpoint>
            <Time>2022-07-06T17:54:55.000Z</Time>
            <Position>
              <LatitudeDegrees>43.778794594109058380126953125</LatitudeDegrees>
              <LongitudeDegrees>-1.4025976695120334625244140625</LongitudeDegrees>
            </Position>
            <AltitudeMeters>11</AltitudeMeters>
            <DistanceMeters>NAN</DistanceMeters>
          </Trackpoint>
          <Trackpoint>
            <Time>2022-07-06T17:55:02.000Z</Time>
            <Position>
              <LatitudeDegrees>43.77876341342926025390625</LatitudeDegrees>
              <LongitudeDegrees>-1.40266455709934234619140625</LongitudeDegrees>
            </Position>
            <AltitudeMeters>11</AltitudeMeters>
            <DistanceMeters>NAN</DistanceMeters>
          </Trackpoint>
          <Trackpoint>
            <Time>2022-07-06T17:55:07.000Z</Time>
            <Position>
              <LatitudeDegrees>43.7787843681871891021728515625</LatitudeDegrees>
              <LongitudeDegrees>-1.4028313569724559783935546875</LongitudeDegrees>
            </Position>
            <AltitudeMeters>11.19999980926513671875</AltitudeMeters>
            <DistanceMeters>NAN</DistanceMeters>
          </Trackpoint>
          <Trackpoint>
            <Time>2022-07-06T17:55:11.000Z</Time>
            <Position>
              <LatitudeDegrees>43.77881144173443317413330078125</LatitudeDegrees>
              <LongitudeDegrees>-1.4029765315353870391845703125</LongitudeDegrees>
            </Position>
            <AltitudeMeters>11.19999980926513671875</AltitudeMeters>
            <DistanceMeters>NAN</DistanceMeters>
          </Trackpoint>
          <Trackpoint>
            <Time>2022-07-06T17:55:14.000Z</Time>
            <Position>
              <LatitudeDegrees>43.7788296304643154144287109375</LatitudeDegrees>
              <LongitudeDegrees>-1.40308407135307788848876953125</LongitudeDegrees>
            </Position>
            <AltitudeMeters>11.19999980926513671875</AltitudeMeters>
            <DistanceMeters>NAN</DistanceMeters>
          </Trackpoint>
          <Trackpoint>
            <Time>2022-07-06T17:55:15.000Z</Time>
            <Position>
              <LatitudeDegrees>43.77883541397750377655029296875</LatitudeDegrees>
              <LongitudeDegrees>-1.4031212031841278076171875</LongitudeDegrees>
            </Position>
            <AltitudeMeters>11.19999980926513671875</AltitudeMeters>
            <DistanceMeters>NAN</DistanceMeters>
          </Trackpoint>
          <Trackpoint>
            <Time>2022-07-06T17:55:20.000Z</Time>
            <Position>
              <LatitudeDegrees>43.77887673676013946533203125</LatitudeDegrees>
              <LongitudeDegrees>-1.4033188484609127044677734375</LongitudeDegrees>
            </Position>
            <AltitudeMeters>11.3999996185302734375</AltitudeMeters>
            <DistanceMeters>NAN</DistanceMeters>
          </Trackpoint>
          <Trackpoint>
            <Time>2022-07-06T17:55:23.000Z</Time>
            <Position>
              <LatitudeDegrees>43.77892090938985347747802734375</LatitudeDegrees>
              <LongitudeDegrees>-1.40341532416641712188720703125</LongitudeDegrees>
            </Position>
            <AltitudeMeters>11.3999996185302734375</AltitudeMeters>
            <DistanceMeters>NAN</DistanceMeters>
          </Trackpoint>
          <Trackpoint>
            <Time>2022-07-06T17:55:28.000Z</Time>
            <Position>
              <LatitudeDegrees>43.77899953164160251617431640625</LatitudeDegrees>
              <LongitudeDegrees>-1.4035086147487163543701171875</LongitudeDegrees>
            </Position>
            <AltitudeMeters>10.80000019073486328125</AltitudeMeters>
            <DistanceMeters>NAN</DistanceMeters>
          </Trackpoint>
          <Trackpoint>
            <Time>2022-07-06T17:55:30.000Z</Time>
            <Position>
              <LatitudeDegrees>43.77899953164160251617431640625</LatitudeDegrees>
              <LongitudeDegrees>-1.4035086147487163543701171875</LongitudeDegrees>
            </Position>
            <AltitudeMeters>10.80000019073486328125</AltitudeMeters>
            <DistanceMeters>NAN</DistanceMeters>
          </Trackpoint>
          <Trackpoint>
            <Time>2022-07-06T17:55:42.000Z</Time>
            <Position>
              <LatitudeDegrees>43.7789526768028736114501953125</LatitudeDegrees>
              <LongitudeDegrees>-1.4034097082912921905517578125</LongitudeDegrees>
            </Position>
            <AltitudeMeters>10.3999996185302734375</AltitudeMeters>
            <DistanceMeters>NAN</DistanceMeters>
          </Trackpoint>
          <Trackpoint>
            <Time>2022-07-06T17:55:49.000Z</Time>
            <Position>
              <LatitudeDegrees>43.77887397073209285736083984375</LatitudeDegrees>
              <LongitudeDegrees>-1.40316923148930072784423828125</LongitudeDegrees>
            </Position>
            <AltitudeMeters>10.19999980926513671875</AltitudeMeters>
            <DistanceMeters>NAN</DistanceMeters>
          </Trackpoint>
          <Trackpoint>
            <Time>2022-07-06T17:55:55.000Z</Time>
            <Position>
              <LatitudeDegrees>43.77884865738451480865478515625</LatitudeDegrees>
              <LongitudeDegrees>-1.40296705998480319976806640625</LongitudeDegrees>
            </Position>
            <AltitudeMeters>10.19999980926513671875</AltitudeMeters>
            <DistanceMeters>NAN</DistanceMeters>
          </Trackpoint>
          <Trackpoint>
            <Time>2022-07-06T17:55:59.000Z</Time>
            <Position>
              <LatitudeDegrees>43.77882166765630245208740234375</LatitudeDegrees>
              <LongitudeDegrees>-1.4028127491474151611328125</LongitudeDegrees>
            </Position>
            <AltitudeMeters>10.19999980926513671875</AltitudeMeters>
            <DistanceMeters>NAN</DistanceMeters>
          </Trackpoint>
          <Trackpoint>
            <Time>2022-07-06T17:56:05.000Z</Time>
            <Position>
              <LatitudeDegrees>43.77877347171306610107421875</LatitudeDegrees>
              <LongitudeDegrees>-1.4025906287133693695068359375</LongitudeDegrees>
            </Position>
            <AltitudeMeters>10.19999980926513671875</AltitudeMeters>
            <DistanceMeters>NAN</DistanceMeters>
          </Trackpoint>
          <Trackpoint>
            <Time>2022-07-06T17:56:11.000Z</Time>
            <Position>
              <LatitudeDegrees>43.77871354110538959503173828125</LatitudeDegrees>
              <LongitudeDegrees>-1.40232349745929241180419921875</LongitudeDegrees>
            </Position>
            <AltitudeMeters>10</AltitudeMeters>
            <DistanceMeters>NAN</DistanceMeters>
          </Trackpoint>
          <Trackpoint>
            <Time>2022-07-06T17:56:14.000Z</Time>
            <Position>
              <LatitudeDegrees>43.77863575704395771026611328125</LatitudeDegrees>
              <LongitudeDegrees>-1.40224537812173366546630859375</LongitudeDegrees>
            </Position>
            <AltitudeMeters>10</AltitudeMeters>
            <DistanceMeters>NAN</DistanceMeters>
          </Trackpoint>
          <Trackpoint>
            <Time>2022-07-06T17:56:17.000Z</Time>
            <Position>
              <LatitudeDegrees>43.77856819890439510345458984375</LatitudeDegrees>
              <LongitudeDegrees>-1.402186788618564605712890625</LongitudeDegrees>
            </Position>
            <AltitudeMeters>9.80000019073486328125</AltitudeMeters>
            <DistanceMeters>NAN</DistanceMeters>
          </Trackpoint>
          <Trackpoint>
            <Time>2022-07-06T17:56:20.000Z</Time>
            <Position>
              <LatitudeDegrees>43.77848421223461627960205078125</LatitudeDegrees>
              <LongitudeDegrees>-1.402139849960803985595703125</LongitudeDegrees>
            </Position>
            <AltitudeMeters>10</AltitudeMeters>
            <DistanceMeters>NAN</DistanceMeters>
          </Trackpoint>
          <Trackpoint>
            <Time>2022-07-06T17:56:23.000Z</Time>
            <Position>
              <LatitudeDegrees>43.7784061767160892486572265625</LatitudeDegrees>
              <LongitudeDegrees>-1.40204672701656818389892578125</LongitudeDegrees>
            </Position>
            <AltitudeMeters>10</AltitudeMeters>
            <DistanceMeters>NAN</DistanceMeters>
          </Trackpoint>
          <Trackpoint>
            <Time>2022-07-06T17:56:33.000Z</Time>
            <Position>
              <LatitudeDegrees>43.77815731801092624664306640625</LatitudeDegrees>
              <LongitudeDegrees>-1.40179845504462718963623046875</LongitudeDegrees>
            </Position>
            <AltitudeMeters>10</AltitudeMeters>
            <DistanceMeters>NAN</DistanceMeters>
          </Trackpoint>
          <Trackpoint>
            <Time>2022-07-06T17:56:35.000Z</Time>
            <Position>
              <LatitudeDegrees>43.7780990637838840484619140625</LatitudeDegrees>
              <LongitudeDegrees>-1.40173919498920440673828125</LongitudeDegrees>
            </Position>
            <AltitudeMeters>10</AltitudeMeters>
            <DistanceMeters>NAN</DistanceMeters>
          </Trackpoint>
          <Trackpoint>
            <Time>2022-07-06T17:56:41.000Z</Time>
            <Position>
              <LatitudeDegrees>43.7779180146753787994384765625</LatitudeDegrees>
              <LongitudeDegrees>-1.40157130546867847442626953125</LongitudeDegrees>
            </Position>
            <AltitudeMeters>10.19999980926513671875</AltitudeMeters>
            <DistanceMeters>NAN</DistanceMeters>
          </Trackpoint>
          <Trackpoint>
            <Time>2022-07-06T17:56:42.000Z</Time>
            <Position>
              <LatitudeDegrees>43.7778878398239612579345703125</LatitudeDegrees>
              <LongitudeDegrees>-1.4015412144362926483154296875</LongitudeDegrees>
            </Position>
            <AltitudeMeters>10</AltitudeMeters>
            <DistanceMeters>NAN</DistanceMeters>
          </Trackpoint>
          <Trackpoint>
            <Time>2022-07-06T17:56:44.000Z</Time>
            <Position>
              <LatitudeDegrees>43.77782237716019153594970703125</LatitudeDegrees>
              <LongitudeDegrees>-1.40148061327636241912841796875</LongitudeDegrees>
            </Position>
            <AltitudeMeters>10</AltitudeMeters>
            <DistanceMeters>NAN</DistanceMeters>
          </Trackpoint>
          <Trackpoint>
            <Time>2022-07-06T17:56:49.000Z</Time>
            <Position>
              <LatitudeDegrees>43.777670077979564666748046875</LatitudeDegrees>
              <LongitudeDegrees>-1.401317752897739410400390625</LongitudeDegrees>
            </Position>
            <AltitudeMeters>10</AltitudeMeters>
            <DistanceMeters>NAN</DistanceMeters>
          </Trackpoint>
          <Trackpoint>
            <Time>2022-07-06T17:56:50.000Z</Time>
            <Position>
              <LatitudeDegrees>43.77764032222330570220947265625</LatitudeDegrees>
              <LongitudeDegrees>-1.40128632076084613800048828125</LongitudeDegrees>
            </Position>
            <AltitudeMeters>10</AltitudeMeters>
            <DistanceMeters>NAN</DistanceMeters>
          </Trackpoint>
          <Trackpoint>
            <Time>2022-07-06T17:56:56.000Z</Time>
            <Position>
              <LatitudeDegrees>43.77745122648775577545166015625</LatitudeDegrees>
              <LongitudeDegrees>-1.40113678760826587677001953125</LongitudeDegrees>
            </Position>
            <AltitudeMeters>10</AltitudeMeters>
            <DistanceMeters>NAN</DistanceMeters>
          </Trackpoint>
          <Trackpoint>
            <Time>2022-07-06T17:57:03.000Z</Time>
            <Position>
              <LatitudeDegrees>43.7771673314273357391357421875</LatitudeDegrees>
              <LongitudeDegrees>-1.400983817875385284423828125</LongitudeDegrees>
            </Position>
            <AltitudeMeters>10</AltitudeMeters>
            <DistanceMeters>NAN</DistanceMeters>
          </Trackpoint>
          <Trackpoint>
            <Time>2022-07-06T17:57:08.000Z</Time>
            <Position>
              <LatitudeDegrees>43.77694579772651195526123046875</LatitudeDegrees>
              <LongitudeDegrees>-1.40088365413248538970947265625</LongitudeDegrees>
            </Position>
            <AltitudeMeters>10</AltitudeMeters>
            <DistanceMeters>NAN</DistanceMeters>
          </Trackpoint>
          <Trackpoint>
            <Time>2022-07-06T17:57:09.000Z</Time>
            <Position>
              <LatitudeDegrees>43.77690204419195652008056640625</LatitudeDegrees>
              <LongitudeDegrees>-1.40087359584867954254150390625</LongitudeDegrees>
            </Position>
            <AltitudeMeters>10</AltitudeMeters>
            <DistanceMeters>NAN</DistanceMeters>
          </Trackpoint>
          <Trackpoint>
            <Time>2022-07-06T17:57:12.000Z</Time>
            <Position>
              <LatitudeDegrees>43.77677581273019313812255859375</LatitudeDegrees>
              <LongitudeDegrees>-1.40086068771779537200927734375</LongitudeDegrees>
            </Position>
            <AltitudeMeters>10</AltitudeMeters>
            <DistanceMeters>NAN</DistanceMeters>
          </Trackpoint>
          <Trackpoint>
            <Time>2022-07-06T17:57:17.000Z</Time>
            <Position>
              <LatitudeDegrees>43.77657263539731502532958984375</LatitudeDegrees>
              <LongitudeDegrees>-1.40087292529642581939697265625</LongitudeDegrees>
            </Position>
            <AltitudeMeters>10</AltitudeMeters>
            <DistanceMeters>NAN</DistanceMeters>
          </Trackpoint>
          <Trackpoint>
            <Time>2022-07-06T17:57:23.000Z</Time>
            <Position>
              <LatitudeDegrees>43.77635906450450420379638671875</LatitudeDegrees>
              <LongitudeDegrees>-1.40095037408173084259033203125</LongitudeDegrees>
            </Position>
            <AltitudeMeters>10.80000019073486328125</AltitudeMeters>
            <DistanceMeters>NAN</DistanceMeters>
          </Trackpoint>
          <Trackpoint>
            <Time>2022-07-06T17:57:26.000Z</Time>
            <Position>
              <LatitudeDegrees>43.77625244669616222381591796875</LatitudeDegrees>
              <LongitudeDegrees>-1.40099999494850635528564453125</LongitudeDegrees>
            </Position>
            <AltitudeMeters>11</AltitudeMeters>
            <DistanceMeters>NAN</DistanceMeters>
          </Trackpoint>
          <Trackpoint>
            <Time>2022-07-06T17:57:30.000Z</Time>
            <Position>
              <LatitudeDegrees>43.77613040618598461151123046875</LatitudeDegrees>
              <LongitudeDegrees>-1.4010785333812236785888671875</LongitudeDegrees>
            </Position>
            <AltitudeMeters>11.19999980926513671875</AltitudeMeters>
            <DistanceMeters>NAN</DistanceMeters>
          </Trackpoint>
          <Trackpoint>
            <Time>2022-07-06T17:57:34.000Z</Time>
            <Position>
              <LatitudeDegrees>43.7760200165212154388427734375</LatitudeDegrees>
              <LongitudeDegrees>-1.40112253837287425994873046875</LongitudeDegrees>
            </Position>
            <AltitudeMeters>10.6000003814697265625</AltitudeMeters>
            <DistanceMeters>NAN</DistanceMeters>
          </Trackpoint>
          <Trackpoint>
            <Time>2022-07-06T17:57:37.000Z</Time>
            <Position>
              <LatitudeDegrees>43.77590895630419254302978515625</LatitudeDegrees>
              <LongitudeDegrees>-1.40109571628272533416748046875</LongitudeDegrees>
            </Position>
            <AltitudeMeters>10.19999980926513671875</AltitudeMeters>
            <DistanceMeters>NAN</DistanceMeters>
          </Trackpoint>
          <Trackpoint>
            <Time>2022-07-06T17:57:43.000Z</Time>
            <Position>
              <LatitudeDegrees>43.77571835182607173919677734375</LatitudeDegrees>
              <LongitudeDegrees>-1.4009890146553516387939453125</LongitudeDegrees>
            </Position>
            <AltitudeMeters>10.19999980926513671875</AltitudeMeters>
            <DistanceMeters>NAN</DistanceMeters>
          </Trackpoint>
          <Trackpoint>
            <Time>2022-07-06T17:57:45.000Z</Time>
            <Position>
              <LatitudeDegrees>43.775646686553955078125</LatitudeDegrees>
              <LongitudeDegrees>-1.400949619710445404052734375</LongitudeDegrees>
            </Position>
            <AltitudeMeters>10.3999996185302734375</AltitudeMeters>
            <DistanceMeters>NAN</DistanceMeters>
          </Trackpoint>
          <Trackpoint>
            <Time>2022-07-06T17:57:50.000Z</Time>
            <Position>
              <LatitudeDegrees>43.77549120225012302398681640625</LatitudeDegrees>
              <LongitudeDegrees>-1.40080310404300689697265625</LongitudeDegrees>
            </Position>
            <AltitudeMeters>10.19999980926513671875</AltitudeMeters>
            <DistanceMeters>NAN</DistanceMeters>
          </Trackpoint>
          <Trackpoint>
            <Time>2022-07-06T17:57:52.000Z</Time>
            <Position>
              <LatitudeDegrees>43.7754252366721630096435546875</LatitudeDegrees>
              <LongitudeDegrees>-1.400739736855030059814453125</LongitudeDegrees>
            </Position>
            <AltitudeMeters>10</AltitudeMeters>
            <DistanceMeters>NAN</DistanceMeters>
          </Trackpoint>
          <Trackpoint>
            <Time>2022-07-06T17:57:57.000Z</Time>
            <Position>
              <LatitudeDegrees>43.77526774071156978607177734375</LatitudeDegrees>
              <LongitudeDegrees>-1.4006051234900951385498046875</LongitudeDegrees>
            </Position>
            <AltitudeMeters>9.80000019073486328125</AltitudeMeters>
            <DistanceMeters>NAN</DistanceMeters>
          </Trackpoint>
          <Trackpoint>
            <Time>2022-07-06T17:58:04.000Z</Time>
            <Position>
              <LatitudeDegrees>43.7750403396785259246826171875</LatitudeDegrees>
              <LongitudeDegrees>-1.40044561587274074554443359375</LongitudeDegrees>
            </Position>
            <AltitudeMeters>10.19999980926513671875</AltitudeMeters>
            <DistanceMeters>NAN</DistanceMeters>
          </Trackpoint>
          <Trackpoint>
            <Time>2022-07-06T17:58:05.000Z</Time>
            <Position>
              <LatitudeDegrees>43.7750121764838695526123046875</LatitudeDegrees>
              <LongitudeDegrees>-1.400454081594944000244140625</LongitudeDegrees>
            </Position>
            <AltitudeMeters>10.3999996185302734375</AltitudeMeters>
            <DistanceMeters>NAN</DistanceMeters>
          </Trackpoint>
          <Trackpoint>
            <Time>2022-07-06T17:58:07.000Z</Time>
            <Position>
              <LatitudeDegrees>43.77497185952961444854736328125</LatitudeDegrees>
              <LongitudeDegrees>-1.4005018584430217742919921875</LongitudeDegrees>
            </Position>
            <AltitudeMeters>10.6000003814697265625</AltitudeMeters>
            <DistanceMeters>NAN</DistanceMeters>
          </Trackpoint>
          <Trackpoint>
            <Time>2022-07-06T17:58:14.000Z</Time>
            <Position>
              <LatitudeDegrees>43.77487680874764919281005859375</LatitudeDegrees>
              <LongitudeDegrees>-1.40070830471813678741455078125</LongitudeDegrees>
            </Position>
            <AltitudeMeters>10.80000019073486328125</AltitudeMeters>
            <DistanceMeters>NAN</DistanceMeters>
          </Trackpoint>
          <Trackpoint>
            <Time>2022-07-06T17:58:15.000Z</Time>
            <Position>
              <LatitudeDegrees>43.774861134588718414306640625</LatitudeDegrees>
              <LongitudeDegrees>-1.400741748511791229248046875</LongitudeDegrees>
            </Position>
            <AltitudeMeters>10.80000019073486328125</AltitudeMeters>
            <DistanceMeters>NAN</DistanceMeters>
          </Trackpoint>
          <Trackpoint>
            <Time>2022-07-06T17:58:17.000Z</Time>
            <Position>
              <LatitudeDegrees>43.7748351506888866424560546875</LatitudeDegrees>
              <LongitudeDegrees>-1.40080871991813182830810546875</LongitudeDegrees>
            </Position>
            <AltitudeMeters>11</AltitudeMeters>
            <DistanceMeters>NAN</DistanceMeters>
          </Trackpoint>
          <Trackpoint>
            <Time>2022-07-06T17:58:19.000Z</Time>
            <Position>
              <LatitudeDegrees>43.77481176517903804779052734375</LatitudeDegrees>
              <LongitudeDegrees>-1.4008748531341552734375</LongitudeDegrees>
            </Position>
            <AltitudeMeters>11.19999980926513671875</AltitudeMeters>
            <DistanceMeters>NAN</DistanceMeters>
          </Trackpoint>
          <Trackpoint>
            <Time>2022-07-06T17:58:20.000Z</Time>
            <Position>
              <LatitudeDegrees>43.7748113460838794708251953125</LatitudeDegrees>
              <LongitudeDegrees>-1.40090913511812686920166015625</LongitudeDegrees>
            </Position>
            <AltitudeMeters>11.19999980926513671875</AltitudeMeters>
            <DistanceMeters>NAN</DistanceMeters>
          </Trackpoint>
          <Trackpoint>
            <Time>2022-07-06T17:58:23.000Z</Time>
            <Position>
              <LatitudeDegrees>43.774833977222442626953125</LatitudeDegrees>
              <LongitudeDegrees>-1.40098993666470050811767578125</LongitudeDegrees>
            </Position>
            <AltitudeMeters>11.19999980926513671875</AltitudeMeters>
            <DistanceMeters>NAN</DistanceMeters>
          </Trackpoint>
          <Trackpoint>
            <Time>2022-07-06T17:58:24.000Z</Time>
            <Position>
              <LatitudeDegrees>43.77484939992427825927734375</LatitudeDegrees>
              <LongitudeDegrees>-1.40100921504199504852294921875</LongitudeDegrees>
            </Position>
            <AltitudeMeters>11.19999980926513671875</AltitudeMeters>
            <DistanceMeters>NAN</DistanceMeters>
          </Trackpoint>
          <Trackpoint>
            <Time>2022-07-06T17:58:30.000Z</Time>
            <Position>
              <LatitudeDegrees>43.77499583177268505096435546875</LatitudeDegrees>
              <LongitudeDegrees>-1.4012458361685276031494140625</LongitudeDegrees>
            </Position>
            <AltitudeMeters>10.80000019073486328125</AltitudeMeters>
            <DistanceMeters>NAN</DistanceMeters>
          </Trackpoint>
          <Trackpoint>
            <Time>2022-07-06T17:58:32.000Z</Time>
            <Position>
              <LatitudeDegrees>43.77502952702343463897705078125</LatitudeDegrees>
              <LongitudeDegrees>-1.40134164132177829742431640625</LongitudeDegrees>
            </Position>
            <AltitudeMeters>10.80000019073486328125</AltitudeMeters>
            <DistanceMeters>NAN</DistanceMeters>
          </Trackpoint>
          <Trackpoint>
            <Time>2022-07-06T17:58:37.000Z</Time>
            <Position>
              <LatitudeDegrees>43.77510144375264644622802734375</LatitudeDegrees>
              <LongitudeDegrees>-1.40156577341258525848388671875</LongitudeDegrees>
            </Position>
            <AltitudeMeters>10.6000003814697265625</AltitudeMeters>
            <DistanceMeters>NAN</DistanceMeters>
          </Trackpoint>
          <Trackpoint>
            <Time>2022-07-06T17:58:39.000Z</Time>
            <Position>
              <LatitudeDegrees>43.77513103187084197998046875</LatitudeDegrees>
              <LongitudeDegrees>-1.4016486704349517822265625</LongitudeDegrees>
            </Position>
            <AltitudeMeters>10.6000003814697265625</AltitudeMeters>
            <DistanceMeters>NAN</DistanceMeters>
          </Trackpoint>
          <Trackpoint>
            <Time>2022-07-06T17:58:43.000Z</Time>
            <Position>
              <LatitudeDegrees>43.7751499749720096588134765625</LatitudeDegrees>
              <LongitudeDegrees>-1.4018124528229236602783203125</LongitudeDegrees>
            </Position>
            <AltitudeMeters>10.80000019073486328125</AltitudeMeters>
            <DistanceMeters>NAN</DistanceMeters>
          </Trackpoint>
          <Trackpoint>
            <Time>2022-07-06T17:58:49.000Z</Time>
            <Position>
              <LatitudeDegrees>43.77513631246984004974365234375</LatitudeDegrees>
              <LongitudeDegrees>-1.40206064097583293914794921875</LongitudeDegrees>
            </Position>
            <AltitudeMeters>11.19999980926513671875</AltitudeMeters>
            <DistanceMeters>NAN</DistanceMeters>
          </Trackpoint>
          <Trackpoint>
            <Time>2022-07-06T17:58:54.000Z</Time>
            <Position>
              <LatitudeDegrees>43.77509423531591892242431640625</LatitudeDegrees>
              <LongitudeDegrees>-1.40228108502924442291259765625</LongitudeDegrees>
            </Position>
            <AltitudeMeters>10.80000019073486328125</AltitudeMeters>
            <DistanceMeters>NAN</DistanceMeters>
          </Trackpoint>
          <Trackpoint>
            <Time>2022-07-06T17:58:56.000Z</Time>
            <Position>
              <LatitudeDegrees>43.775082416832447052001953125</LatitudeDegrees>
              <LongitudeDegrees>-1.40236909501254558563232421875</LongitudeDegrees>
            </Position>
            <AltitudeMeters>10.6000003814697265625</AltitudeMeters>
            <DistanceMeters>NAN</DistanceMeters>
          </Trackpoint>
          <Trackpoint>
            <Time>2022-07-06T17:59:00.000Z</Time>
            <Position>
              <LatitudeDegrees>43.77507680095732212066650390625</LatitudeDegrees>
              <LongitudeDegrees>-1.40251074917614459991455078125</LongitudeDegrees>
            </Position>
            <AltitudeMeters>10.19999980926513671875</AltitudeMeters>
            <DistanceMeters>NAN</DistanceMeters>
          </Trackpoint>
          <Trackpoint>
            <Time>2022-07-06T17:59:03.000Z</Time>
            <Position>
              <LatitudeDegrees>43.77507411874830722808837890625</LatitudeDegrees>
              <LongitudeDegrees>-1.4026013575494289398193359375</LongitudeDegrees>
            </Position>
            <AltitudeMeters>9.80000019073486328125</AltitudeMeters>
            <DistanceMeters>NAN</DistanceMeters>
          </Trackpoint>
          <Trackpoint>
            <Time>2022-07-06T17:59:09.000Z</Time>
            <Position>
              <LatitudeDegrees>43.77505316399037837982177734375</LatitudeDegrees>
              <LongitudeDegrees>-1.40274711884558200836181640625</LongitudeDegrees>
            </Position>
            <AltitudeMeters>9.6000003814697265625</AltitudeMeters>
            <DistanceMeters>NAN</DistanceMeters>
          </Trackpoint>
          <Trackpoint>
            <Time>2022-07-06T17:59:13.000Z</Time>
            <Position>
              <LatitudeDegrees>43.7750498950481414794921875</LatitudeDegrees>
              <LongitudeDegrees>-1.40286035835742950439453125</LongitudeDegrees>
            </Position>
            <AltitudeMeters>9.80000019073486328125</AltitudeMeters>
            <DistanceMeters>NAN</DistanceMeters>
          </Trackpoint>
          <Trackpoint>
            <Time>2022-07-06T17:59:14.000Z</Time>
            <Position>
              <LatitudeDegrees>43.7750530801713466644287109375</LatitudeDegrees>
              <LongitudeDegrees>-1.40288910828530788421630859375</LongitudeDegrees>
            </Position>
            <AltitudeMeters>9.80000019073486328125</AltitudeMeters>
            <DistanceMeters>NAN</DistanceMeters>
          </Trackpoint>
          <Trackpoint>
            <Time>2022-07-06T17:59:17.000Z</Time>
            <Position>
              <LatitudeDegrees>43.77507529221475124359130859375</LatitudeDegrees>
              <LongitudeDegrees>-1.40298164449632167816162109375</LongitudeDegrees>
            </Position>
            <AltitudeMeters>10</AltitudeMeters>
            <DistanceMeters>NAN</DistanceMeters>
          </Trackpoint>
          <Trackpoint>
            <Time>2022-07-06T17:59:26.000Z</Time>
            <Position>
              <LatitudeDegrees>43.77512977458536624908447265625</LatitudeDegrees>
              <LongitudeDegrees>-1.403262354433536529541015625</LongitudeDegrees>
            </Position>
            <AltitudeMeters>11</AltitudeMeters>
            <DistanceMeters>NAN</DistanceMeters>
          </Trackpoint>
          <Trackpoint>
            <Time>2022-07-06T17:59:27.000Z</Time>
            <Position>
              <LatitudeDegrees>43.77513379789888858795166015625</LatitudeDegrees>
              <LongitudeDegrees>-1.40328624285757541656494140625</LongitudeDegrees>
            </Position>
            <AltitudeMeters>11</AltitudeMeters>
            <DistanceMeters>NAN</DistanceMeters>
          </Trackpoint>
          <Trackpoint>
            <Time>2022-07-06T17:59:28.000Z</Time>
            <Position>
              <LatitudeDegrees>43.77513798885047435760498046875</LatitudeDegrees>
              <LongitudeDegrees>-1.40331993810832500457763671875</LongitudeDegrees>
            </Position>
            <AltitudeMeters>11.19999980926513671875</AltitudeMeters>
            <DistanceMeters>NAN</DistanceMeters>
          </Trackpoint>
          <Trackpoint>
            <Time>2022-07-06T17:59:31.000Z</Time>
            <Position>
              <LatitudeDegrees>43.7751493044197559356689453125</LatitudeDegrees>
              <LongitudeDegrees>-1.40344315208494663238525390625</LongitudeDegrees>
            </Position>
            <AltitudeMeters>11.6000003814697265625</AltitudeMeters>
            <DistanceMeters>NAN</DistanceMeters>
          </Trackpoint>
          <Trackpoint>
            <Time>2022-07-06T17:59:34.000Z</Time>
            <Position>
              <LatitudeDegrees>43.77516129054129123687744140625</LatitudeDegrees>
              <LongitudeDegrees>-1.40358162112534046173095703125</LongitudeDegrees>
            </Position>
            <AltitudeMeters>11.3999996185302734375</AltitudeMeters>
            <DistanceMeters>NAN</DistanceMeters>
          </Trackpoint>
          <Trackpoint>
            <Time>2022-07-06T17:59:40.000Z</Time>
            <Position>
              <LatitudeDegrees>43.7752384878695011138916015625</LatitudeDegrees>
              <LongitudeDegrees>-1.40388471074402332305908203125</LongitudeDegrees>
            </Position>
            <AltitudeMeters>10.80000019073486328125</AltitudeMeters>
            <DistanceMeters>NAN</DistanceMeters>
          </Trackpoint>
          <Trackpoint>
            <Time>2022-07-06T17:59:44.000Z</Time>
            <Position>
              <LatitudeDegrees>43.77531719394028186798095703125</LatitudeDegrees>
              <LongitudeDegrees>-1.40398797579109668731689453125</LongitudeDegrees>
            </Position>
            <AltitudeMeters>11</AltitudeMeters>
            <DistanceMeters>NAN</DistanceMeters>
          </Trackpoint>
          <Trackpoint>
            <Time>2022-07-06T17:59:50.000Z</Time>
            <Position>
              <LatitudeDegrees>43.77540453337132930755615234375</LatitudeDegrees>
              <LongitudeDegrees>-1.4041268639266490936279296875</LongitudeDegrees>
            </Position>
            <AltitudeMeters>11.19999980926513671875</AltitudeMeters>
            <DistanceMeters>NAN</DistanceMeters>
          </Trackpoint>
          <Trackpoint>
            <Time>2022-07-06T17:59:51.000Z</Time>
            <Position>
              <LatitudeDegrees>43.77542431466281414031982421875</LatitudeDegrees>
              <LongitudeDegrees>-1.4041302166879177093505859375</LongitudeDegrees>
            </Position>
            <AltitudeMeters>11.19999980926513671875</AltitudeMeters>
            <DistanceMeters>NAN</DistanceMeters>
          </Trackpoint>
          <Trackpoint>
            <Time>2022-07-06T17:59:53.000Z</Time>
            <Position>
              <LatitudeDegrees>43.7754497118294239044189453125</LatitudeDegrees>
              <LongitudeDegrees>-1.40414907597005367279052734375</LongitudeDegrees>
            </Position>
            <AltitudeMeters>11.19999980926513671875</AltitudeMeters>
            <DistanceMeters>NAN</DistanceMeters>
          </Trackpoint>
          <Trackpoint>
            <Time>2022-07-06T17:59:55.000Z</Time>
            <Position>
              <LatitudeDegrees>43.7754805572330951690673828125</LatitudeDegrees>
              <LongitudeDegrees>-1.4041791670024394989013671875</LongitudeDegrees>
            </Position>
            <AltitudeMeters>11.19999980926513671875</AltitudeMeters>
            <DistanceMeters>NAN</DistanceMeters>
          </Trackpoint>
          <Trackpoint>
            <Time>2022-07-06T18:00:01.000Z</Time>
            <Position>
              <LatitudeDegrees>43.7756156735122203826904296875</LatitudeDegrees>
              <LongitudeDegrees>-1.40430699102580547332763671875</LongitudeDegrees>
            </Position>
            <AltitudeMeters>11</AltitudeMeters>
            <DistanceMeters>NAN</DistanceMeters>
          </Trackpoint>
          <Trackpoint>
            <Time>2022-07-06T18:00:05.000Z</Time>
            <Position>
              <LatitudeDegrees>43.77572287805378437042236328125</LatitudeDegrees>
              <LongitudeDegrees>-1.4044423587620258331298828125</LongitudeDegrees>
            </Position>
            <AltitudeMeters>10.6000003814697265625</AltitudeMeters>
            <DistanceMeters>NAN</DistanceMeters>
          </Trackpoint>
          <Trackpoint>
            <Time>2022-07-06T18:00:07.000Z</Time>
            <Position>
              <LatitudeDegrees>43.77577501349151134490966796875</LatitudeDegrees>
              <LongitudeDegrees>-1.40451167710125446319580078125</LongitudeDegrees>
            </Position>
            <AltitudeMeters>10.3999996185302734375</AltitudeMeters>
            <DistanceMeters>NAN</DistanceMeters>
          </Trackpoint>
          <Trackpoint>
            <Time>2022-07-06T18:00:13.000Z</Time>
            <Position>
              <LatitudeDegrees>43.7758889235556125640869140625</LatitudeDegrees>
              <LongitudeDegrees>-1.4047488011419773101806640625</LongitudeDegrees>
            </Position>
            <AltitudeMeters>10.3999996185302734375</AltitudeMeters>
            <DistanceMeters>NAN</DistanceMeters>
          </Trackpoint>
          <Trackpoint>
            <Time>2022-07-06T18:00:18.000Z</Time>
            <Position>
              <LatitudeDegrees>43.77597349695861339569091796875</LatitudeDegrees>
              <LongitudeDegrees>-1.40488433651626110076904296875</LongitudeDegrees>
            </Position>
            <AltitudeMeters>10.3999996185302734375</AltitudeMeters>
            <DistanceMeters>NAN</DistanceMeters>
          </Trackpoint>
          <Trackpoint>
            <Time>2022-07-06T18:00:24.000Z</Time>
            <Position>
              <LatitudeDegrees>43.77606636844575405120849609375</LatitudeDegrees>
              <LongitudeDegrees>-1.40504300594329833984375</LongitudeDegrees>
            </Position>
            <AltitudeMeters>10.3999996185302734375</AltitudeMeters>
            <DistanceMeters>NAN</DistanceMeters>
          </Trackpoint>
          <Trackpoint>
            <Time>2022-07-06T18:00:28.000Z</Time>
            <Position>
              <LatitudeDegrees>43.77607592381536960601806640625</LatitudeDegrees>
              <LongitudeDegrees>-1.40506513416767120361328125</LongitudeDegrees>
            </Position>
            <AltitudeMeters>10.6000003814697265625</AltitudeMeters>
            <DistanceMeters>NAN</DistanceMeters>
          </Trackpoint>
          <Trackpoint>
            <Time>2022-07-06T18:00:44.000Z</Time>
            <Position>
              <LatitudeDegrees>43.77609922550618648529052734375</LatitudeDegrees>
              <LongitudeDegrees>-1.40510528348386287689208984375</LongitudeDegrees>
            </Position>
            <AltitudeMeters>10.80000019073486328125</AltitudeMeters>
            <DistanceMeters>NAN</DistanceMeters>
          </Trackpoint>
          <Trackpoint>
            <Time>2022-07-06T18:00:45.000Z</Time>
            <Position>
              <LatitudeDegrees>43.7761051766574382781982421875</LatitudeDegrees>
              <LongitudeDegrees>-1.40511743724346160888671875</LongitudeDegrees>
            </Position>
            <AltitudeMeters>10.80000019073486328125</AltitudeMeters>
            <DistanceMeters>NAN</DistanceMeters>
          </Trackpoint>
          <Trackpoint>
            <Time>2022-07-06T18:00:47.000Z</Time>
            <Position>
              <LatitudeDegrees>43.77611003816127777099609375</LatitudeDegrees>
              <LongitudeDegrees>-1.405125148594379425048828125</LongitudeDegrees>
            </Position>
            <AltitudeMeters>10.80000019073486328125</AltitudeMeters>
            <DistanceMeters>NAN</DistanceMeters>
          </Trackpoint>
          <Trackpoint>
            <Time>2022-07-06T18:00:48.000Z</Time>
            <Position>
              <LatitudeDegrees>43.77611003816127777099609375</LatitudeDegrees>
              <LongitudeDegrees>-1.405125148594379425048828125</LongitudeDegrees>
            </Position>
            <AltitudeMeters>10.80000019073486328125</AltitudeMeters>
            <DistanceMeters>NAN</DistanceMeters>
          </Trackpoint>
          <Trackpoint>
            <Time>2022-07-06T18:02:25.000Z</Time>
            <Position>
              <LatitudeDegrees>43.776238448917865753173828125</LatitudeDegrees>
              <LongitudeDegrees>-1.40535707585513591766357421875</LongitudeDegrees>
            </Position>
            <AltitudeMeters>11.19999980926513671875</AltitudeMeters>
            <DistanceMeters>NAN</DistanceMeters>
          </Trackpoint>
          <Trackpoint>
            <Time>2022-07-06T18:02:26.000Z</Time>
            <Position>
              <LatitudeDegrees>43.77624657936394214630126953125</LatitudeDegrees>
              <LongitudeDegrees>-1.40538272447884082794189453125</LongitudeDegrees>
            </Position>
            <AltitudeMeters>11.19999980926513671875</AltitudeMeters>
            <DistanceMeters>NAN</DistanceMeters>
          </Trackpoint>
          <Trackpoint>
            <Time>2022-07-06T18:02:28.000Z</Time>
            <Position>
              <LatitudeDegrees>43.7762594036757946014404296875</LatitudeDegrees>
              <LongitudeDegrees>-1.405430920422077178955078125</LongitudeDegrees>
            </Position>
            <AltitudeMeters>11.19999980926513671875</AltitudeMeters>
            <DistanceMeters>NAN</DistanceMeters>
          </Trackpoint>
          <Trackpoint>
            <Time>2022-07-06T18:02:32.000Z</Time>
            <Position>
              <LatitudeDegrees>43.77629670314490795135498046875</LatitudeDegrees>
              <LongitudeDegrees>-1.40550409443676471710205078125</LongitudeDegrees>
            </Position>
            <AltitudeMeters>11.19999980926513671875</AltitudeMeters>
            <DistanceMeters>NAN</DistanceMeters>
          </Trackpoint>
          <Trackpoint>
            <Time>2022-07-06T18:02:34.000Z</Time>
            <Position>
              <LatitudeDegrees>43.7763023190200328826904296875</LatitudeDegrees>
              <LongitudeDegrees>-1.405565701425075531005859375</LongitudeDegrees>
            </Position>
            <AltitudeMeters>11.3999996185302734375</AltitudeMeters>
            <DistanceMeters>NAN</DistanceMeters>
          </Trackpoint>
          <Trackpoint>
            <Time>2022-07-06T18:02:35.000Z</Time>
            <Position>
              <LatitudeDegrees>43.77631346695125102996826171875</LatitudeDegrees>
              <LongitudeDegrees>-1.40559378080070018768310546875</LongitudeDegrees>
            </Position>
            <AltitudeMeters>11.3999996185302734375</AltitudeMeters>
            <DistanceMeters>NAN</DistanceMeters>
          </Trackpoint>
          <Trackpoint>
            <Time>2022-07-06T18:02:39.000Z</Time>
            <Position>
              <LatitudeDegrees>43.7763811089098453521728515625</LatitudeDegrees>
              <LongitudeDegrees>-1.4057363569736480712890625</LongitudeDegrees>
            </Position>
            <AltitudeMeters>11.6000003814697265625</AltitudeMeters>
            <DistanceMeters>NAN</DistanceMeters>
          </Trackpoint>
          <Trackpoint>
            <Time>2022-07-06T18:02:40.000Z</Time>
            <Position>
              <LatitudeDegrees>43.7763898260891437530517578125</LatitudeDegrees>
              <LongitudeDegrees>-1.4057814516127109527587890625</LongitudeDegrees>
            </Position>
            <AltitudeMeters>11.6000003814697265625</AltitudeMeters>
            <DistanceMeters>NAN</DistanceMeters>
          </Trackpoint>
          <Trackpoint>
            <Time>2022-07-06T18:02:46.000Z</Time>
            <Position>
              <LatitudeDegrees>43.77647456713020801544189453125</LatitudeDegrees>
              <LongitudeDegrees>-1.4060010574758052825927734375</LongitudeDegrees>
            </Position>
            <AltitudeMeters>11.80000019073486328125</AltitudeMeters>
            <DistanceMeters>NAN</DistanceMeters>
          </Trackpoint>
          <Trackpoint>
            <Time>2022-07-06T18:02:52.000Z</Time>
            <Position>
              <LatitudeDegrees>43.77657649107277393341064453125</LatitudeDegrees>
              <LongitudeDegrees>-1.40622275881469249725341796875</LongitudeDegrees>
            </Position>
            <AltitudeMeters>12.19999980926513671875</AltitudeMeters>
            <DistanceMeters>NAN</DistanceMeters>
          </Trackpoint>
          <Trackpoint>
            <Time>2022-07-06T18:02:54.000Z</Time>
            <Position>
              <LatitudeDegrees>43.7766002118587493896484375</LatitudeDegrees>
              <LongitudeDegrees>-1.406308673322200775146484375</LongitudeDegrees>
            </Position>
            <AltitudeMeters>12.19999980926513671875</AltitudeMeters>
            <DistanceMeters>NAN</DistanceMeters>
          </Trackpoint>
          <Trackpoint>
            <Time>2022-07-06T18:02:59.000Z</Time>
            <Position>
              <LatitudeDegrees>43.776636756956577301025390625</LatitudeDegrees>
              <LongitudeDegrees>-1.406511850655078887939453125</LongitudeDegrees>
            </Position>
            <AltitudeMeters>12.19999980926513671875</AltitudeMeters>
            <DistanceMeters>NAN</DistanceMeters>
          </Trackpoint>
          <Trackpoint>
            <Time>2022-07-06T18:03:00.000Z</Time>
            <Position>
              <LatitudeDegrees>43.77663977444171905517578125</LatitudeDegrees>
              <LongitudeDegrees>-1.40655334107577800750732421875</LongitudeDegrees>
            </Position>
            <AltitudeMeters>12.19999980926513671875</AltitudeMeters>
            <DistanceMeters>NAN</DistanceMeters>
          </Trackpoint>
          <Trackpoint>
            <Time>2022-07-06T18:03:07.000Z</Time>
            <Position>
              <LatitudeDegrees>43.7766137905418872833251953125</LatitudeDegrees>
              <LongitudeDegrees>-1.40685056336224079132080078125</LongitudeDegrees>
            </Position>
            <AltitudeMeters>12.19999980926513671875</AltitudeMeters>
            <DistanceMeters>NAN</DistanceMeters>
          </Trackpoint>
          <Trackpoint>
            <Time>2022-07-06T18:03:14.000Z</Time>
            <Position>
              <LatitudeDegrees>43.7765748985111713409423828125</LatitudeDegrees>
              <LongitudeDegrees>-1.40714510343968868255615234375</LongitudeDegrees>
            </Position>
            <AltitudeMeters>11.80000019073486328125</AltitudeMeters>
            <DistanceMeters>NAN</DistanceMeters>
          </Trackpoint>
          <Trackpoint>
            <Time>2022-07-06T18:03:21.000Z</Time>
            <Position>
              <LatitudeDegrees>43.776455037295818328857421875</LatitudeDegrees>
              <LongitudeDegrees>-1.40743830241262912750244140625</LongitudeDegrees>
            </Position>
            <AltitudeMeters>12.19999980926513671875</AltitudeMeters>
            <DistanceMeters>NAN</DistanceMeters>
          </Trackpoint>
          <Trackpoint>
            <Time>2022-07-06T18:03:28.000Z</Time>
            <Position>
              <LatitudeDegrees>43.776245824992656707763671875</LatitudeDegrees>
              <LongitudeDegrees>-1.4076278172433376312255859375</LongitudeDegrees>
            </Position>
            <AltitudeMeters>12.19999980926513671875</AltitudeMeters>
            <DistanceMeters>NAN</DistanceMeters>
          </Trackpoint>
          <Trackpoint>
            <Time>2022-07-06T18:03:33.000Z</Time>
            <Position>
              <LatitudeDegrees>43.7761138938367366790771484375</LatitudeDegrees>
              <LongitudeDegrees>-1.4077931083738803863525390625</LongitudeDegrees>
            </Position>
            <AltitudeMeters>12.19999980926513671875</AltitudeMeters>
            <DistanceMeters>NAN</DistanceMeters>
          </Trackpoint>
          <Trackpoint>
            <Time>2022-07-06T18:03:36.000Z</Time>
            <Position>
              <LatitudeDegrees>43.77604139037430286407470703125</LatitudeDegrees>
              <LongitudeDegrees>-1.4078822918236255645751953125</LongitudeDegrees>
            </Position>
            <AltitudeMeters>12.3999996185302734375</AltitudeMeters>
            <DistanceMeters>NAN</DistanceMeters>
          </Trackpoint>
          <Trackpoint>
            <Time>2022-07-06T18:03:37.000Z</Time>
            <Position>
              <LatitudeDegrees>43.77601674757897853851318359375</LatitudeDegrees>
              <LongitudeDegrees>-1.4079084433615207672119140625</LongitudeDegrees>
            </Position>
            <AltitudeMeters>12.3999996185302734375</AltitudeMeters>
            <DistanceMeters>NAN</DistanceMeters>
          </Trackpoint>
          <Trackpoint>
            <Time>2022-07-06T18:03:42.000Z</Time>
            <Position>
              <LatitudeDegrees>43.775884397327899932861328125</LatitudeDegrees>
              <LongitudeDegrees>-1.4080117084085941314697265625</LongitudeDegrees>
            </Position>
            <AltitudeMeters>11.80000019073486328125</AltitudeMeters>
            <DistanceMeters>NAN</DistanceMeters>
          </Trackpoint>
          <Trackpoint>
            <Time>2022-07-06T18:03:43.000Z</Time>
            <Position>
              <LatitudeDegrees>43.7758520431816577911376953125</LatitudeDegrees>
              <LongitudeDegrees>-1.40801715664565563201904296875</LongitudeDegrees>
            </Position>
            <AltitudeMeters>11.80000019073486328125</AltitudeMeters>
            <DistanceMeters>NAN</DistanceMeters>
          </Trackpoint>
          <Trackpoint>
            <Time>2022-07-06T18:03:49.000Z</Time>
            <Position>
              <LatitudeDegrees>43.7756649591028690338134765625</LatitudeDegrees>
              <LongitudeDegrees>-1.40792177058756351470947265625</LongitudeDegrees>
            </Position>
            <AltitudeMeters>11.6000003814697265625</AltitudeMeters>
            <DistanceMeters>NAN</DistanceMeters>
          </Trackpoint>
          <Trackpoint>
            <Time>2022-07-06T18:03:55.000Z</Time>
            <Position>
              <LatitudeDegrees>43.7754658050835132598876953125</LatitudeDegrees>
              <LongitudeDegrees>-1.4078333415091037750244140625</LongitudeDegrees>
            </Position>
            <AltitudeMeters>11.80000019073486328125</AltitudeMeters>
            <DistanceMeters>NAN</DistanceMeters>
          </Trackpoint>
          <Trackpoint>
            <Time>2022-07-06T18:03:58.000Z</Time>
            <Position>
              <LatitudeDegrees>43.77541257999837398529052734375</LatitudeDegrees>
              <LongitudeDegrees>-1.40791774727404117584228515625</LongitudeDegrees>
            </Position>
            <AltitudeMeters>12.19999980926513671875</AltitudeMeters>
            <DistanceMeters>NAN</DistanceMeters>
          </Trackpoint>
          <Trackpoint>
            <Time>2022-07-06T18:04:04.000Z</Time>
            <Position>
              <LatitudeDegrees>43.77535575069487094879150390625</LatitudeDegrees>
              <LongitudeDegrees>-1.4081347547471523284912109375</LongitudeDegrees>
            </Position>
            <AltitudeMeters>12.3999996185302734375</AltitudeMeters>
            <DistanceMeters>NAN</DistanceMeters>
          </Trackpoint>
          <Trackpoint>
            <Time>2022-07-06T18:04:10.000Z</Time>
            <Position>
              <LatitudeDegrees>43.77533328719437122344970703125</LatitudeDegrees>
              <LongitudeDegrees>-1.4082792587578296661376953125</LongitudeDegrees>
            </Position>
            <AltitudeMeters>12.19999980926513671875</AltitudeMeters>
            <DistanceMeters>NAN</DistanceMeters>
          </Trackpoint>
          <Trackpoint>
            <Time>2022-07-06T18:04:15.000Z</Time>
            <Position>
              <LatitudeDegrees>43.77532356418669223785400390625</LatitudeDegrees>
              <LongitudeDegrees>-1.40845133922994136810302734375</LongitudeDegrees>
            </Position>
            <AltitudeMeters>12.3999996185302734375</AltitudeMeters>
            <DistanceMeters>NAN</DistanceMeters>
          </Trackpoint>
          <Trackpoint>
            <Time>2022-07-06T18:04:18.000Z</Time>
            <Position>
              <LatitudeDegrees>43.77532926388084888458251953125</LatitudeDegrees>
              <LongitudeDegrees>-1.4085370860993862152099609375</LongitudeDegrees>
            </Position>
            <AltitudeMeters>12.19999980926513671875</AltitudeMeters>
            <DistanceMeters>NAN</DistanceMeters>
          </Trackpoint>
          <Trackpoint>
            <Time>2022-07-06T18:04:20.000Z</Time>
            <Position>
              <LatitudeDegrees>43.77530797384679317474365234375</LatitudeDegrees>
              <LongitudeDegrees>-1.4086004532873630523681640625</LongitudeDegrees>
            </Position>
            <AltitudeMeters>12.19999980926513671875</AltitudeMeters>
            <DistanceMeters>NAN</DistanceMeters>
          </Trackpoint>
          <Trackpoint>
            <Time>2022-07-06T18:04:22.000Z</Time>
            <Position>
              <LatitudeDegrees>43.7752993404865264892578125</LatitudeDegrees>
              <LongitudeDegrees>-1.4086715318262577056884765625</LongitudeDegrees>
            </Position>
            <AltitudeMeters>12.19999980926513671875</AltitudeMeters>
            <DistanceMeters>NAN</DistanceMeters>
          </Trackpoint>
          <Trackpoint>
            <Time>2022-07-06T18:04:24.000Z</Time>
            <Position>
              <LatitudeDegrees>43.77532658167183399200439453125</LatitudeDegrees>
              <LongitudeDegrees>-1.408743448555469512939453125</LongitudeDegrees>
            </Position>
            <AltitudeMeters>12.19999980926513671875</AltitudeMeters>
            <DistanceMeters>NAN</DistanceMeters>
          </Trackpoint>
          <Trackpoint>
            <Time>2022-07-06T18:04:29.000Z</Time>
            <Position>
              <LatitudeDegrees>43.775400929152965545654296875</LatitudeDegrees>
              <LongitudeDegrees>-1.40893061645328998565673828125</LongitudeDegrees>
            </Position>
            <AltitudeMeters>12.19999980926513671875</AltitudeMeters>
            <DistanceMeters>NAN</DistanceMeters>
          </Trackpoint>
          <Trackpoint>
            <Time>2022-07-06T18:04:31.000Z</Time>
            <Position>
              <LatitudeDegrees>43.77541207708418369293212890625</LatitudeDegrees>
              <LongitudeDegrees>-1.40900538302958011627197265625</LongitudeDegrees>
            </Position>
            <AltitudeMeters>12.19999980926513671875</AltitudeMeters>
            <DistanceMeters>NAN</DistanceMeters>
          </Trackpoint>
          <Trackpoint>
            <Time>2022-07-06T18:04:33.000Z</Time>
            <Position>
              <LatitudeDegrees>43.7754254043102264404296875</LatitudeDegrees>
              <LongitudeDegrees>-1.40911065973341464996337890625</LongitudeDegrees>
            </Position>
            <AltitudeMeters>12.19999980926513671875</AltitudeMeters>
            <DistanceMeters>NAN</DistanceMeters>
          </Trackpoint>
          <Trackpoint>
            <Time>2022-07-06T18:04:36.000Z</Time>
            <Position>
              <LatitudeDegrees>43.775424063205718994140625</LatitudeDegrees>
              <LongitudeDegrees>-1.40926253981888294219970703125</LongitudeDegrees>
            </Position>
            <AltitudeMeters>12.3999996185302734375</AltitudeMeters>
            <DistanceMeters>NAN</DistanceMeters>
          </Trackpoint>
          <Trackpoint>
            <Time>2022-07-06T18:04:43.000Z</Time>
            <Position>
              <LatitudeDegrees>43.7754024378955364227294921875</LatitudeDegrees>
              <LongitudeDegrees>-1.4096559025347232818603515625</LongitudeDegrees>
            </Position>
            <AltitudeMeters>11.80000019073486328125</AltitudeMeters>
            <DistanceMeters>NAN</DistanceMeters>
          </Trackpoint>
          <Trackpoint>
            <Time>2022-07-06T18:04:44.000Z</Time>
            <Position>
              <LatitudeDegrees>43.77540637739002704620361328125</LatitudeDegrees>
              <LongitudeDegrees>-1.4097006618976593017578125</LongitudeDegrees>
            </Position>
            <AltitudeMeters>11.6000003814697265625</AltitudeMeters>
            <DistanceMeters>NAN</DistanceMeters>
          </Trackpoint>
          <Trackpoint>
            <Time>2022-07-06T18:04:45.000Z</Time>
            <Position>
              <LatitudeDegrees>43.775415010750293731689453125</LatitudeDegrees>
              <LongitudeDegrees>-1.40974449925124645233154296875</LongitudeDegrees>
            </Position>
            <AltitudeMeters>11.6000003814697265625</AltitudeMeters>
            <DistanceMeters>NAN</DistanceMeters>
          </Trackpoint>
          <Trackpoint>
            <Time>2022-07-06T18:04:48.000Z</Time>
            <Position>
              <LatitudeDegrees>43.77546940930187702178955078125</LatitudeDegrees>
              <LongitudeDegrees>-1.409894786775112152099609375</LongitudeDegrees>
            </Position>
            <AltitudeMeters>11.3999996185302734375</AltitudeMeters>
            <DistanceMeters>NAN</DistanceMeters>
          </Trackpoint>
          <Trackpoint>
            <Time>2022-07-06T18:04:50.000Z</Time>
            <Position>
              <LatitudeDegrees>43.7754896096885204315185546875</LatitudeDegrees>
              <LongitudeDegrees>-1.409994028508663177490234375</LongitudeDegrees>
            </Position>
            <AltitudeMeters>11.19999980926513671875</AltitudeMeters>
            <DistanceMeters>NAN</DistanceMeters>
          </Trackpoint>
          <Trackpoint>
            <Time>2022-07-06T18:04:54.000Z</Time>
            <Position>
              <LatitudeDegrees>43.775522299110889434814453125</LatitudeDegrees>
              <LongitudeDegrees>-1.410154290497303009033203125</LongitudeDegrees>
            </Position>
            <AltitudeMeters>11.3999996185302734375</AltitudeMeters>
            <DistanceMeters>NAN</DistanceMeters>
          </Trackpoint>
          <Trackpoint>
            <Time>2022-07-06T18:04:59.000Z</Time>
            <Position>
              <LatitudeDegrees>43.7755439244210720062255859375</LatitudeDegrees>
              <LongitudeDegrees>-1.4102255366742610931396484375</LongitudeDegrees>
            </Position>
            <AltitudeMeters>11.80000019073486328125</AltitudeMeters>
            <DistanceMeters>NAN</DistanceMeters>
          </Trackpoint>
          <Trackpoint>
            <Time>2022-07-06T18:05:01.000Z</Time>
            <Position>
              <LatitudeDegrees>43.77554417587816715240478515625</LatitudeDegrees>
              <LongitudeDegrees>-1.41022972762584686279296875</LongitudeDegrees>
            </Position>
            <AltitudeMeters>12</AltitudeMeters>
            <DistanceMeters>NAN</DistanceMeters>
          </Trackpoint>
          <Trackpoint>
            <Time>2022-07-06T18:05:30.000Z</Time>
            <Position>
              <LatitudeDegrees>43.77555859275162220001220703125</LatitudeDegrees>
              <LongitudeDegrees>-1.41032922081649303436279296875</LongitudeDegrees>
            </Position>
            <AltitudeMeters>12.19999980926513671875</AltitudeMeters>
            <DistanceMeters>NAN</DistanceMeters>
          </Trackpoint>
          <Trackpoint>
            <Time>2022-07-06T18:05:31.000Z</Time>
            <Position>
              <LatitudeDegrees>43.77556999213993549346923828125</LatitudeDegrees>
              <LongitudeDegrees>-1.4103578031063079833984375</LongitudeDegrees>
            </Position>
            <AltitudeMeters>12.3999996185302734375</AltitudeMeters>
            <DistanceMeters>NAN</DistanceMeters>
          </Trackpoint>
          <Trackpoint>
            <Time>2022-07-06T18:05:34.000Z</Time>
            <Position>
              <LatitudeDegrees>43.775576613843441009521484375</LatitudeDegrees>
              <LongitudeDegrees>-1.4104625768959522247314453125</LongitudeDegrees>
            </Position>
            <AltitudeMeters>12.3999996185302734375</AltitudeMeters>
            <DistanceMeters>NAN</DistanceMeters>
          </Trackpoint>
          <Trackpoint>
            <Time>2022-07-06T18:05:35.000Z</Time>
            <Position>
              <LatitudeDegrees>43.77557636238634586334228515625</LatitudeDegrees>
              <LongitudeDegrees>-1.4105014689266681671142578125</LongitudeDegrees>
            </Position>
            <AltitudeMeters>12.3999996185302734375</AltitudeMeters>
            <DistanceMeters>NAN</DistanceMeters>
          </Trackpoint>
          <Trackpoint>
            <Time>2022-07-06T18:05:39.000Z</Time>
            <Position>
              <LatitudeDegrees>43.7756166793406009674072265625</LatitudeDegrees>
              <LongitudeDegrees>-1.4106587134301662445068359375</LongitudeDegrees>
            </Position>
            <AltitudeMeters>12.3999996185302734375</AltitudeMeters>
            <DistanceMeters>NAN</DistanceMeters>
          </Trackpoint>
          <Trackpoint>
            <Time>2022-07-06T18:05:41.000Z</Time>
            <Position>
              <LatitudeDegrees>43.77563939429819583892822265625</LatitudeDegrees>
              <LongitudeDegrees>-1.4107385091483592987060546875</LongitudeDegrees>
            </Position>
            <AltitudeMeters>12.19999980926513671875</AltitudeMeters>
            <DistanceMeters>NAN</DistanceMeters>
          </Trackpoint>
          <Trackpoint>
            <Time>2022-07-06T18:05:44.000Z</Time>
            <Position>
              <LatitudeDegrees>43.77567552030086517333984375</LatitudeDegrees>
              <LongitudeDegrees>-1.41086650080978870391845703125</LongitudeDegrees>
            </Position>
            <AltitudeMeters>12</AltitudeMeters>
            <DistanceMeters>NAN</DistanceMeters>
          </Trackpoint>
          <Trackpoint>
            <Time>2022-07-06T18:05:46.000Z</Time>
            <Position>
              <LatitudeDegrees>43.77567443065345287322998046875</LatitudeDegrees>
              <LongitudeDegrees>-1.4109398424625396728515625</LongitudeDegrees>
            </Position>
            <AltitudeMeters>12</AltitudeMeters>
            <DistanceMeters>NAN</DistanceMeters>
          </Trackpoint>
          <Trackpoint>
            <Time>2022-07-06T18:05:52.000Z</Time>
            <Position>
              <LatitudeDegrees>43.77576512284576892852783203125</LatitudeDegrees>
              <LongitudeDegrees>-1.4111669920384883880615234375</LongitudeDegrees>
            </Position>
            <AltitudeMeters>11.80000019073486328125</AltitudeMeters>
            <DistanceMeters>NAN</DistanceMeters>
          </Trackpoint>
          <Trackpoint>
            <Time>2022-07-06T18:05:56.000Z</Time>
            <Position>
              <LatitudeDegrees>43.77588062547147274017333984375</LatitudeDegrees>
              <LongitudeDegrees>-1.41130319796502590179443359375</LongitudeDegrees>
            </Position>
            <AltitudeMeters>11.80000019073486328125</AltitudeMeters>
            <DistanceMeters>NAN</DistanceMeters>
          </Trackpoint>
          <Trackpoint>
            <Time>2022-07-06T18:05:57.000Z</Time>
            <Position>
              <LatitudeDegrees>43.77589386887848377227783203125</LatitudeDegrees>
              <LongitudeDegrees>-1.41136002726852893829345703125</LongitudeDegrees>
            </Position>
            <AltitudeMeters>11.80000019073486328125</AltitudeMeters>
            <DistanceMeters>NAN</DistanceMeters>
          </Trackpoint>
          <Trackpoint>
            <Time>2022-07-06T18:06:02.000Z</Time>
            <Position>
              <LatitudeDegrees>43.775961510837078094482421875</LatitudeDegrees>
              <LongitudeDegrees>-1.41152582131326198577880859375</LongitudeDegrees>
            </Position>
            <AltitudeMeters>12</AltitudeMeters>
            <DistanceMeters>NAN</DistanceMeters>
          </Trackpoint>
          <Trackpoint>
            <Time>2022-07-06T18:06:07.000Z</Time>
            <Position>
              <LatitudeDegrees>43.77593435347080230712890625</LatitudeDegrees>
              <LongitudeDegrees>-1.4115944691002368927001953125</LongitudeDegrees>
            </Position>
            <AltitudeMeters>12.19999980926513671875</AltitudeMeters>
            <DistanceMeters>NAN</DistanceMeters>
          </Trackpoint>
          <Trackpoint>
            <Time>2022-07-06T18:06:14.000Z</Time>
            <Position>
              <LatitudeDegrees>43.77582027576863765716552734375</LatitudeDegrees>
              <LongitudeDegrees>-1.41171324066817760467529296875</LongitudeDegrees>
            </Position>
            <AltitudeMeters>12</AltitudeMeters>
            <DistanceMeters>NAN</DistanceMeters>
          </Trackpoint>
          <Trackpoint>
            <Time>2022-07-06T18:06:18.000Z</Time>
            <Position>
              <LatitudeDegrees>43.77574902959167957305908203125</LatitudeDegrees>
              <LongitudeDegrees>-1.41176487319171428680419921875</LongitudeDegrees>
            </Position>
            <AltitudeMeters>12.19999980926513671875</AltitudeMeters>
            <DistanceMeters>NAN</DistanceMeters>
          </Trackpoint>
          <Trackpoint>
            <Time>2022-07-06T18:06:20.000Z</Time>
            <Position>
              <LatitudeDegrees>43.775720782577991485595703125</LatitudeDegrees>
              <LongitudeDegrees>-1.4117751829326152801513671875</LongitudeDegrees>
            </Position>
            <AltitudeMeters>12.19999980926513671875</AltitudeMeters>
            <DistanceMeters>NAN</DistanceMeters>
          </Trackpoint>
          <Trackpoint>
            <Time>2022-07-06T18:06:22.000Z</Time>
            <Position>
              <LatitudeDegrees>43.77569689415395259857177734375</LatitudeDegrees>
              <LongitudeDegrees>-1.41175188124179840087890625</LongitudeDegrees>
            </Position>
            <AltitudeMeters>12.19999980926513671875</AltitudeMeters>
            <DistanceMeters>NAN</DistanceMeters>
          </Trackpoint>
          <Trackpoint>
            <Time>2022-07-06T18:06:24.000Z</Time>
            <Position>
              <LatitudeDegrees>43.775666467845439910888671875</LatitudeDegrees>
              <LongitudeDegrees>-1.41172111965715885162353515625</LongitudeDegrees>
            </Position>
            <AltitudeMeters>12.3999996185302734375</AltitudeMeters>
            <DistanceMeters>NAN</DistanceMeters>
          </Trackpoint>
          <Trackpoint>
            <Time>2022-07-06T18:06:26.000Z</Time>
            <Position>
              <LatitudeDegrees>43.77562053501605987548828125</LatitudeDegrees>
              <LongitudeDegrees>-1.4117101393640041351318359375</LongitudeDegrees>
            </Position>
            <AltitudeMeters>12.3999996185302734375</AltitudeMeters>
            <DistanceMeters>NAN</DistanceMeters>
          </Trackpoint>
          <Trackpoint>
            <Time>2022-07-06T18:06:28.000Z</Time>
            <Position>
              <LatitudeDegrees>43.77556278370320796966552734375</LatitudeDegrees>
              <LongitudeDegrees>-1.41171541996300220489501953125</LongitudeDegrees>
            </Position>
            <AltitudeMeters>12.6000003814697265625</AltitudeMeters>
            <DistanceMeters>NAN</DistanceMeters>
          </Trackpoint>
          <Trackpoint>
            <Time>2022-07-06T18:06:35.000Z</Time>
            <Position>
              <LatitudeDegrees>43.77541601657867431640625</LatitudeDegrees>
              <LongitudeDegrees>-1.4118372090160846710205078125</LongitudeDegrees>
            </Position>
            <AltitudeMeters>12.80000019073486328125</AltitudeMeters>
            <DistanceMeters>NAN</DistanceMeters>
          </Trackpoint>
          <Trackpoint>
            <Time>2022-07-06T18:06:41.000Z</Time>
            <Position>
              <LatitudeDegrees>43.7753280065953731536865234375</LatitudeDegrees>
              <LongitudeDegrees>-1.4119525440037250518798828125</LongitudeDegrees>
            </Position>
            <AltitudeMeters>13.19999980926513671875</AltitudeMeters>
            <DistanceMeters>NAN</DistanceMeters>
          </Trackpoint>
          <Trackpoint>
            <Time>2022-07-06T18:06:43.000Z</Time>
            <Position>
              <LatitudeDegrees>43.77528970129787921905517578125</LatitudeDegrees>
              <LongitudeDegrees>-1.4119900949299335479736328125</LongitudeDegrees>
            </Position>
            <AltitudeMeters>13</AltitudeMeters>
            <DistanceMeters>NAN</DistanceMeters>
          </Trackpoint>
          <Trackpoint>
            <Time>2022-07-06T18:06:48.000Z</Time>
            <Position>
              <LatitudeDegrees>43.7751947343349456787109375</LatitudeDegrees>
              <LongitudeDegrees>-1.412029825150966644287109375</LongitudeDegrees>
            </Position>
            <AltitudeMeters>12.80000019073486328125</AltitudeMeters>
            <DistanceMeters>NAN</DistanceMeters>
          </Trackpoint>
          <Trackpoint>
            <Time>2022-07-06T18:06:49.000Z</Time>
            <Position>
              <LatitudeDegrees>43.7751808203756809234619140625</LatitudeDegrees>
              <LongitudeDegrees>-1.41201985068619251251220703125</LongitudeDegrees>
            </Position>
            <AltitudeMeters>12.80000019073486328125</AltitudeMeters>
            <DistanceMeters>NAN</DistanceMeters>
          </Trackpoint>
          <Trackpoint>
            <Time>2022-07-06T18:06:50.000Z</Time>
            <Position>
              <LatitudeDegrees>43.775168918073177337646484375</LatitudeDegrees>
              <LongitudeDegrees>-1.41200358979403972625732421875</LongitudeDegrees>
            </Position>
            <AltitudeMeters>12.80000019073486328125</AltitudeMeters>
            <DistanceMeters>NAN</DistanceMeters>
          </Trackpoint>
          <Trackpoint>
            <Time>2022-07-06T18:06:53.000Z</Time>
            <Position>
              <LatitudeDegrees>43.775148130953311920166015625</LatitudeDegrees>
              <LongitudeDegrees>-1.41193653456866741180419921875</LongitudeDegrees>
            </Position>
            <AltitudeMeters>12.80000019073486328125</AltitudeMeters>
            <DistanceMeters>NAN</DistanceMeters>
          </Trackpoint>
          <Trackpoint>
            <Time>2022-07-06T18:06:54.000Z</Time>
            <Position>
              <LatitudeDegrees>43.7751486338675022125244140625</LatitudeDegrees>
              <LongitudeDegrees>-1.41191951930522918701171875</LongitudeDegrees>
            </Position>
            <AltitudeMeters>12.80000019073486328125</AltitudeMeters>
            <DistanceMeters>NAN</DistanceMeters>
          </Trackpoint>
          <Trackpoint>
            <Time>2022-07-06T18:06:57.000Z</Time>
            <Position>
              <LatitudeDegrees>43.77516732551157474517822265625</LatitudeDegrees>
              <LongitudeDegrees>-1.41188062727451324462890625</LongitudeDegrees>
            </Position>
            <AltitudeMeters>12.6000003814697265625</AltitudeMeters>
            <DistanceMeters>NAN</DistanceMeters>
          </Trackpoint>
          <Trackpoint>
            <Time>2022-07-06T18:06:59.000Z</Time>
            <Position>
              <LatitudeDegrees>43.77519364468753337860107421875</LatitudeDegrees>
              <LongitudeDegrees>-1.41187450848519802093505859375</LongitudeDegrees>
            </Position>
            <AltitudeMeters>12.6000003814697265625</AltitudeMeters>
            <DistanceMeters>NAN</DistanceMeters>
          </Trackpoint>
          <Trackpoint>
            <Time>2022-07-06T18:07:01.000Z</Time>
            <Position>
              <LatitudeDegrees>43.77521057613193988800048828125</LatitudeDegrees>
              <LongitudeDegrees>-1.41190703026950359344482421875</LongitudeDegrees>
            </Position>
            <AltitudeMeters>12.6000003814697265625</AltitudeMeters>
            <DistanceMeters>NAN</DistanceMeters>
          </Trackpoint>
          <Trackpoint>
            <Time>2022-07-06T18:07:03.000Z</Time>
            <Position>
              <LatitudeDegrees>43.775200434029102325439453125</LatitudeDegrees>
              <LongitudeDegrees>-1.41196888871490955352783203125</LongitudeDegrees>
            </Position>
            <AltitudeMeters>12.80000019073486328125</AltitudeMeters>
            <DistanceMeters>NAN</DistanceMeters>
          </Trackpoint>
          <Trackpoint>
            <Time>2022-07-06T18:07:10.000Z</Time>
            <Position>
              <LatitudeDegrees>43.7751539982855319976806640625</LatitudeDegrees>
              <LongitudeDegrees>-1.41222034581005573272705078125</LongitudeDegrees>
            </Position>
            <AltitudeMeters>13.19999980926513671875</AltitudeMeters>
            <DistanceMeters>NAN</DistanceMeters>
          </Trackpoint>
          <Trackpoint>
            <Time>2022-07-06T18:07:11.000Z</Time>
            <Position>
              <LatitudeDegrees>43.7751529924571514129638671875</LatitudeDegrees>
              <LongitudeDegrees>-1.41225571744143962860107421875</LongitudeDegrees>
            </Position>
            <AltitudeMeters>13.3999996185302734375</AltitudeMeters>
            <DistanceMeters>NAN</DistanceMeters>
          </Trackpoint>
          <Trackpoint>
            <Time>2022-07-06T18:07:13.000Z</Time>
            <Position>
              <LatitudeDegrees>43.7751496396958827972412109375</LatitudeDegrees>
              <LongitudeDegrees>-1.4123384468257427215576171875</LongitudeDegrees>
            </Position>
            <AltitudeMeters>13.3999996185302734375</AltitudeMeters>
            <DistanceMeters>NAN</DistanceMeters>
          </Trackpoint>
          <Trackpoint>
            <Time>2022-07-06T18:07:15.000Z</Time>
            <Position>
              <LatitudeDegrees>43.77514653839170932769775390625</LatitudeDegrees>
              <LongitudeDegrees>-1.41241899691522121429443359375</LongitudeDegrees>
            </Position>
            <AltitudeMeters>13.3999996185302734375</AltitudeMeters>
            <DistanceMeters>NAN</DistanceMeters>
          </Trackpoint>
          <Trackpoint>
            <Time>2022-07-06T18:07:17.000Z</Time>
            <Position>
              <LatitudeDegrees>43.7751439400017261505126953125</LatitudeDegrees>
              <LongitudeDegrees>-1.41250315122306346893310546875</LongitudeDegrees>
            </Position>
            <AltitudeMeters>13.3999996185302734375</AltitudeMeters>
            <DistanceMeters>NAN</DistanceMeters>
          </Trackpoint>
          <Trackpoint>
            <Time>2022-07-06T18:07:26.000Z</Time>
            <Position>
              <LatitudeDegrees>43.7751254998147487640380859375</LatitudeDegrees>
              <LongitudeDegrees>-1.4128564484417438507080078125</LongitudeDegrees>
            </Position>
            <AltitudeMeters>14</AltitudeMeters>
            <DistanceMeters>NAN</DistanceMeters>
          </Trackpoint>
          <Trackpoint>
            <Time>2022-07-06T18:07:32.000Z</Time>
            <Position>
              <LatitudeDegrees>43.7750886194407939910888671875</LatitudeDegrees>
              <LongitudeDegrees>-1.41303892247378826141357421875</LongitudeDegrees>
            </Position>
            <AltitudeMeters>14.3999996185302734375</AltitudeMeters>
            <DistanceMeters>NAN</DistanceMeters>
          </Trackpoint>
          <Trackpoint>
            <Time>2022-07-06T18:07:33.000Z</Time>
            <Position>
              <LatitudeDegrees>43.77507881261408329010009765625</LatitudeDegrees>
              <LongitudeDegrees>-1.413070857524871826171875</LongitudeDegrees>
            </Position>
            <AltitudeMeters>14.3999996185302734375</AltitudeMeters>
            <DistanceMeters>NAN</DistanceMeters>
          </Trackpoint>
          <Trackpoint>
            <Time>2022-07-06T18:07:37.000Z</Time>
            <Position>
              <LatitudeDegrees>43.775060959160327911376953125</LatitudeDegrees>
              <LongitudeDegrees>-1.41319801099598407745361328125</LongitudeDegrees>
            </Position>
            <AltitudeMeters>15</AltitudeMeters>
            <DistanceMeters>NAN</DistanceMeters>
          </Trackpoint>
          <Trackpoint>
            <Time>2022-07-06T18:07:39.000Z</Time>
            <Position>
              <LatitudeDegrees>43.775058276951313018798828125</LatitudeDegrees>
              <LongitudeDegrees>-1.41324461437761783599853515625</LongitudeDegrees>
            </Position>
            <AltitudeMeters>15.19999980926513671875</AltitudeMeters>
            <DistanceMeters>NAN</DistanceMeters>
          </Trackpoint>
          <Trackpoint>
            <Time>2022-07-06T18:07:40.000Z</Time>
            <Position>
              <LatitudeDegrees>43.77505995333194732666015625</LatitudeDegrees>
              <LongitudeDegrees>-1.413283087313175201416015625</LongitudeDegrees>
            </Position>
            <AltitudeMeters>15.3999996185302734375</AltitudeMeters>
            <DistanceMeters>NAN</DistanceMeters>
          </Trackpoint>
          <Trackpoint>
            <Time>2022-07-06T18:07:45.000Z</Time>
            <Position>
              <LatitudeDegrees>43.7750530801713466644287109375</LatitudeDegrees>
              <LongitudeDegrees>-1.41342130489647388458251953125</LongitudeDegrees>
            </Position>
            <AltitudeMeters>16.200000762939453125</AltitudeMeters>
            <DistanceMeters>NAN</DistanceMeters>
          </Trackpoint>
          <Trackpoint>
            <Time>2022-07-06T18:07:46.000Z</Time>
            <Position>
              <LatitudeDegrees>43.77505567856132984161376953125</LatitudeDegrees>
              <LongitudeDegrees>-1.41344829462468624114990234375</LongitudeDegrees>
            </Position>
            <AltitudeMeters>16.6000003814697265625</AltitudeMeters>
            <DistanceMeters>NAN</DistanceMeters>
          </Trackpoint>
          <Trackpoint>
            <Time>2022-07-06T18:07:50.000Z</Time>
            <Position>
              <LatitudeDegrees>43.7750671617686748504638671875</LatitudeDegrees>
              <LongitudeDegrees>-1.41354787163436412811279296875</LongitudeDegrees>
            </Position>
            <AltitudeMeters>17</AltitudeMeters>
            <DistanceMeters>NAN</DistanceMeters>
          </Trackpoint>
          <Trackpoint>
            <Time>2022-07-06T18:07:51.000Z</Time>
            <Position>
              <LatitudeDegrees>43.775077052414417266845703125</LatitudeDegrees>
              <LongitudeDegrees>-1.41355742700397968292236328125</LongitudeDegrees>
            </Position>
            <AltitudeMeters>17.200000762939453125</AltitudeMeters>
            <DistanceMeters>NAN</DistanceMeters>
          </Trackpoint>
          <Trackpoint>
            <Time>2022-07-06T18:07:54.000Z</Time>
            <Position>
              <LatitudeDegrees>43.7750993482768535614013671875</LatitudeDegrees>
              <LongitudeDegrees>-1.41363118775188922882080078125</LongitudeDegrees>
            </Position>
            <AltitudeMeters>17.6000003814697265625</AltitudeMeters>
            <DistanceMeters>NAN</DistanceMeters>
          </Trackpoint>
          <Trackpoint>
            <Time>2022-07-06T18:08:00.000Z</Time>
            <Position>
              <LatitudeDegrees>43.77512256614863872528076171875</LatitudeDegrees>
              <LongitudeDegrees>-1.41382011584937572479248046875</LongitudeDegrees>
            </Position>
            <AltitudeMeters>18.3999996185302734375</AltitudeMeters>
            <DistanceMeters>NAN</DistanceMeters>
          </Trackpoint>
          <Trackpoint>
            <Time>2022-07-06T18:08:02.000Z</Time>
            <Position>
              <LatitudeDegrees>43.7751342169940471649169921875</LatitudeDegrees>
              <LongitudeDegrees>-1.41387225128710269927978515625</LongitudeDegrees>
            </Position>
            <AltitudeMeters>18.6000003814697265625</AltitudeMeters>
            <DistanceMeters>NAN</DistanceMeters>
          </Trackpoint>
          <Trackpoint>
            <Time>2022-07-06T18:08:09.000Z</Time>
            <Position>
              <LatitudeDegrees>43.77516296692192554473876953125</LatitudeDegrees>
              <LongitudeDegrees>-1.41406796872615814208984375</LongitudeDegrees>
            </Position>
            <AltitudeMeters>19.200000762939453125</AltitudeMeters>
            <DistanceMeters>NAN</DistanceMeters>
          </Trackpoint>
          <Trackpoint>
            <Time>2022-07-06T18:08:13.000Z</Time>
            <Position>
              <LatitudeDegrees>43.77516967244446277618408203125</LatitudeDegrees>
              <LongitudeDegrees>-1.4141871593892574310302734375</LongitudeDegrees>
            </Position>
            <AltitudeMeters>19.799999237060546875</AltitudeMeters>
            <DistanceMeters>NAN</DistanceMeters>
          </Trackpoint>
          <Trackpoint>
            <Time>2022-07-06T18:08:18.000Z</Time>
            <Position>
              <LatitudeDegrees>43.77519230358302593231201171875</LatitudeDegrees>
              <LongitudeDegrees>-1.4143393747508525848388671875</LongitudeDegrees>
            </Position>
            <AltitudeMeters>20.3999996185302734375</AltitudeMeters>
            <DistanceMeters>NAN</DistanceMeters>
          </Trackpoint>
          <Trackpoint>
            <Time>2022-07-06T18:08:23.000Z</Time>
            <Position>
              <LatitudeDegrees>43.7752063013613224029541015625</LatitudeDegrees>
              <LongitudeDegrees>-1.4144842140376567840576171875</LongitudeDegrees>
            </Position>
            <AltitudeMeters>20.799999237060546875</AltitudeMeters>
            <DistanceMeters>NAN</DistanceMeters>
          </Trackpoint>
          <Trackpoint>
            <Time>2022-07-06T18:08:25.000Z</Time>
            <Position>
              <LatitudeDegrees>43.77521510235965251922607421875</LatitudeDegrees>
              <LongitudeDegrees>-1.4145345054566860198974609375</LongitudeDegrees>
            </Position>
            <AltitudeMeters>20.799999237060546875</AltitudeMeters>
            <DistanceMeters>NAN</DistanceMeters>
          </Trackpoint>
          <Trackpoint>
            <Time>2022-07-06T18:08:26.000Z</Time>
            <Position>
              <LatitudeDegrees>43.7752190418541431427001953125</LatitudeDegrees>
              <LongitudeDegrees>-1.4145707152783870697021484375</LongitudeDegrees>
            </Position>
            <AltitudeMeters>21</AltitudeMeters>
            <DistanceMeters>NAN</DistanceMeters>
          </Trackpoint>
          <Trackpoint>
            <Time>2022-07-06T18:08:33.000Z</Time>
            <Position>
              <LatitudeDegrees>43.77524795942008495330810546875</LatitudeDegrees>
              <LongitudeDegrees>-1.41479962505400180816650390625</LongitudeDegrees>
            </Position>
            <AltitudeMeters>21.6000003814697265625</AltitudeMeters>
            <DistanceMeters>NAN</DistanceMeters>
          </Trackpoint>
          <Trackpoint>
            <Time>2022-07-06T18:08:37.000Z</Time>
            <Position>
              <LatitudeDegrees>43.7752617895603179931640625</LatitudeDegrees>
              <LongitudeDegrees>-1.41492920927703380584716796875</LongitudeDegrees>
            </Position>
            <AltitudeMeters>21.799999237060546875</AltitudeMeters>
            <DistanceMeters>NAN</DistanceMeters>
          </Trackpoint>
          <Trackpoint>
            <Time>2022-07-06T18:08:41.000Z</Time>
            <Position>
              <LatitudeDegrees>43.77528727054595947265625</LatitudeDegrees>
              <LongitudeDegrees>-1.41504119150340557098388671875</LongitudeDegrees>
            </Position>
            <AltitudeMeters>22</AltitudeMeters>
            <DistanceMeters>NAN</DistanceMeters>
          </Trackpoint>
          <Trackpoint>
            <Time>2022-07-06T18:08:51.000Z</Time>
            <Position>
              <LatitudeDegrees>43.77533596940338611602783203125</LatitudeDegrees>
              <LongitudeDegrees>-1.4153773896396160125732421875</LongitudeDegrees>
            </Position>
            <AltitudeMeters>22.3999996185302734375</AltitudeMeters>
            <DistanceMeters>NAN</DistanceMeters>
          </Trackpoint>
          <Trackpoint>
            <Time>2022-07-06T18:08:56.000Z</Time>
            <Position>
              <LatitudeDegrees>43.77535055391490459442138671875</LatitudeDegrees>
              <LongitudeDegrees>-1.41553706489503383636474609375</LongitudeDegrees>
            </Position>
            <AltitudeMeters>22.6000003814697265625</AltitudeMeters>
            <DistanceMeters>NAN</DistanceMeters>
          </Trackpoint>
          <Trackpoint>
            <Time>2022-07-06T18:08:59.000Z</Time>
            <Position>
              <LatitudeDegrees>43.77536446787416934967041015625</LatitudeDegrees>
              <LongitudeDegrees>-1.41562893055379390716552734375</LongitudeDegrees>
            </Position>
            <AltitudeMeters>22.799999237060546875</AltitudeMeters>
            <DistanceMeters>NAN</DistanceMeters>
          </Trackpoint>
          <Trackpoint>
            <Time>2022-07-06T18:09:00.000Z</Time>
            <Position>
              <LatitudeDegrees>43.77536832354962825775146484375</LatitudeDegrees>
              <LongitudeDegrees>-1.41566061414778232574462890625</LongitudeDegrees>
            </Position>
            <AltitudeMeters>22.799999237060546875</AltitudeMeters>
            <DistanceMeters>NAN</DistanceMeters>
          </Trackpoint>
          <Trackpoint>
            <Time>2022-07-06T18:09:06.000Z</Time>
            <Position>
              <LatitudeDegrees>43.775390200316905975341796875</LatitudeDegrees>
              <LongitudeDegrees>-1.4158511348068714141845703125</LongitudeDegrees>
            </Position>
            <AltitudeMeters>23.200000762939453125</AltitudeMeters>
            <DistanceMeters>NAN</DistanceMeters>
          </Trackpoint>
          <Trackpoint>
            <Time>2022-07-06T18:09:12.000Z</Time>
            <Position>
              <LatitudeDegrees>43.77541559748351573944091796875</LatitudeDegrees>
              <LongitudeDegrees>-1.4160315133631229400634765625</LongitudeDegrees>
            </Position>
            <AltitudeMeters>23.799999237060546875</AltitudeMeters>
            <DistanceMeters>NAN</DistanceMeters>
          </Trackpoint>
          <Trackpoint>
            <Time>2022-07-06T18:09:17.000Z</Time>
            <Position>
              <LatitudeDegrees>43.77543806098401546478271484375</LatitudeDegrees>
              <LongitudeDegrees>-1.41617962159216403961181640625</LongitudeDegrees>
            </Position>
            <AltitudeMeters>25</AltitudeMeters>
            <DistanceMeters>NAN</DistanceMeters>
          </Trackpoint>
          <Trackpoint>
            <Time>2022-07-06T18:09:18.000Z</Time>
            <Position>
              <LatitudeDegrees>43.7754463590681552886962890625</LatitudeDegrees>
              <LongitudeDegrees>-1.41620242036879062652587890625</LongitudeDegrees>
            </Position>
            <AltitudeMeters>25</AltitudeMeters>
            <DistanceMeters>NAN</DistanceMeters>
          </Trackpoint>
          <Trackpoint>
            <Time>2022-07-06T18:09:24.000Z</Time>
            <Position>
              <LatitudeDegrees>43.77547569572925567626953125</LatitudeDegrees>
              <LongitudeDegrees>-1.41637600958347320556640625</LongitudeDegrees>
            </Position>
            <AltitudeMeters>26</AltitudeMeters>
            <DistanceMeters>NAN</DistanceMeters>
          </Trackpoint>
          <Trackpoint>
            <Time>2022-07-06T18:09:27.000Z</Time>
            <Position>
              <LatitudeDegrees>43.77548298798501491546630859375</LatitudeDegrees>
              <LongitudeDegrees>-1.41645320691168308258056640625</LongitudeDegrees>
            </Position>
            <AltitudeMeters>26.3999996185302734375</AltitudeMeters>
            <DistanceMeters>NAN</DistanceMeters>
          </Trackpoint>
          <Trackpoint>
            <Time>2022-07-06T18:09:30.000Z</Time>
            <Position>
              <LatitudeDegrees>43.77549254335463047027587890625</LatitudeDegrees>
              <LongitudeDegrees>-1.4165314100682735443115234375</LongitudeDegrees>
            </Position>
            <AltitudeMeters>27</AltitudeMeters>
            <DistanceMeters>NAN</DistanceMeters>
          </Trackpoint>
          <Trackpoint>
            <Time>2022-07-06T18:09:34.000Z</Time>
            <Position>
              <LatitudeDegrees>43.775503523647785186767578125</LatitudeDegrees>
              <LongitudeDegrees>-1.416643559932708740234375</LongitudeDegrees>
            </Position>
            <AltitudeMeters>27.6000003814697265625</AltitudeMeters>
            <DistanceMeters>NAN</DistanceMeters>
          </Trackpoint>
          <Trackpoint>
            <Time>2022-07-06T18:09:41.000Z</Time>
            <Position>
              <LatitudeDegrees>43.7755219638347625732421875</LatitudeDegrees>
              <LongitudeDegrees>-1.41678865067660808563232421875</LongitudeDegrees>
            </Position>
            <AltitudeMeters>27.3999996185302734375</AltitudeMeters>
            <DistanceMeters>NAN</DistanceMeters>
          </Trackpoint>
          <Trackpoint>
            <Time>2022-07-06T18:09:48.000Z</Time>
            <Position>
              <LatitudeDegrees>43.7755568325519561767578125</LatitudeDegrees>
              <LongitudeDegrees>-1.416911780834197998046875</LongitudeDegrees>
            </Position>
            <AltitudeMeters>27</AltitudeMeters>
            <DistanceMeters>NAN</DistanceMeters>
          </Trackpoint>
          <Trackpoint>
            <Time>2022-07-06T18:09:54.000Z</Time>
            <Position>
              <LatitudeDegrees>43.7756082974374294281005859375</LatitudeDegrees>
              <LongitudeDegrees>-1.41709760762751102447509765625</LongitudeDegrees>
            </Position>
            <AltitudeMeters>26</AltitudeMeters>
            <DistanceMeters>NAN</DistanceMeters>
          </Trackpoint>
          <Trackpoint>
            <Time>2022-07-06T18:09:57.000Z</Time>
            <Position>
              <LatitudeDegrees>43.77564174123108386993408203125</LatitudeDegrees>
              <LongitudeDegrees>-1.41720506362617015838623046875</LongitudeDegrees>
            </Position>
            <AltitudeMeters>25.200000762939453125</AltitudeMeters>
            <DistanceMeters>NAN</DistanceMeters>
          </Trackpoint>
          <Trackpoint>
            <Time>2022-07-06T18:09:59.000Z</Time>
            <Position>
              <LatitudeDegrees>43.775665797293186187744140625</LatitudeDegrees>
              <LongitudeDegrees>-1.4172686822712421417236328125</LongitudeDegrees>
            </Position>
            <AltitudeMeters>24.3999996185302734375</AltitudeMeters>
            <DistanceMeters>NAN</DistanceMeters>
          </Trackpoint>
          <Trackpoint>
            <Time>2022-07-06T18:10:02.000Z</Time>
            <Position>
              <LatitudeDegrees>43.7756911106407642364501953125</LatitudeDegrees>
              <LongitudeDegrees>-1.41736046411097049713134765625</LongitudeDegrees>
            </Position>
            <AltitudeMeters>23</AltitudeMeters>
            <DistanceMeters>NAN</DistanceMeters>
          </Trackpoint>
          <Trackpoint>
            <Time>2022-07-06T18:10:03.000Z</Time>
            <Position>
              <LatitudeDegrees>43.77569404430687427520751953125</LatitudeDegrees>
              <LongitudeDegrees>-1.41738158650696277618408203125</LongitudeDegrees>
            </Position>
            <AltitudeMeters>22.6000003814697265625</AltitudeMeters>
            <DistanceMeters>NAN</DistanceMeters>
          </Trackpoint>
          <Trackpoint>
            <Time>2022-07-06T18:10:05.000Z</Time>
            <Position>
              <LatitudeDegrees>43.7756941281259059906005859375</LatitudeDegrees>
              <LongitudeDegrees>-1.41738879494369029998779296875</LongitudeDegrees>
            </Position>
            <AltitudeMeters>22</AltitudeMeters>
            <DistanceMeters>NAN</DistanceMeters>
          </Trackpoint>
          <Trackpoint>
            <Time>2022-07-06T18:12:51.000Z</Time>
            <Position>
              <LatitudeDegrees>43.775649704039096832275390625</LatitudeDegrees>
              <LongitudeDegrees>-1.41717891208827495574951171875</LongitudeDegrees>
            </Position>
            <AltitudeMeters>20.6000003814697265625</AltitudeMeters>
            <DistanceMeters>NAN</DistanceMeters>
          </Trackpoint>
          <Trackpoint>
            <Time>2022-07-06T18:12:52.000Z</Time>
            <Position>
              <LatitudeDegrees>43.77564593218266963958740234375</LatitudeDegrees>
              <LongitudeDegrees>-1.417158208787441253662109375</LongitudeDegrees>
            </Position>
            <AltitudeMeters>20.799999237060546875</AltitudeMeters>
            <DistanceMeters>NAN</DistanceMeters>
          </Trackpoint>
          <Trackpoint>
            <Time>2022-07-06T18:12:56.000Z</Time>
            <Position>
              <LatitudeDegrees>43.77562531270086765289306640625</LatitudeDegrees>
              <LongitudeDegrees>-1.417086459696292877197265625</LongitudeDegrees>
            </Position>
            <AltitudeMeters>21.6000003814697265625</AltitudeMeters>
            <DistanceMeters>NAN</DistanceMeters>
          </Trackpoint>
          <Trackpoint>
            <Time>2022-07-06T18:13:00.000Z</Time>
            <Position>
              <LatitudeDegrees>43.77561248838901519775390625</LatitudeDegrees>
              <LongitudeDegrees>-1.41700741834938526153564453125</LongitudeDegrees>
            </Position>
            <AltitudeMeters>22.200000762939453125</AltitudeMeters>
            <DistanceMeters>NAN</DistanceMeters>
          </Trackpoint>
          <Trackpoint>
            <Time>2022-07-06T18:13:03.000Z</Time>
            <Position>
              <LatitudeDegrees>43.77558776177465915679931640625</LatitudeDegrees>
              <LongitudeDegrees>-1.416958384215831756591796875</LongitudeDegrees>
            </Position>
            <AltitudeMeters>22.6000003814697265625</AltitudeMeters>
            <DistanceMeters>NAN</DistanceMeters>
          </Trackpoint>
          <Trackpoint>
            <Time>2022-07-06T18:13:10.000Z</Time>
            <Position>
              <LatitudeDegrees>43.77555037848651409149169921875</LatitudeDegrees>
              <LongitudeDegrees>-1.41683458350598812103271484375</LongitudeDegrees>
            </Position>
            <AltitudeMeters>23.6000003814697265625</AltitudeMeters>
            <DistanceMeters>NAN</DistanceMeters>
          </Trackpoint>
          <Trackpoint>
            <Time>2022-07-06T18:13:12.000Z</Time>
            <Position>
              <LatitudeDegrees>43.77554803155362606048583984375</LatitudeDegrees>
              <LongitudeDegrees>-1.41682586632668972015380859375</LongitudeDegrees>
            </Position>
            <AltitudeMeters>23.6000003814697265625</AltitudeMeters>
            <DistanceMeters>NAN</DistanceMeters>
          </Trackpoint>
          <Trackpoint>
            <Time>2022-07-06T18:13:13.000Z</Time>
            <Position>
              <LatitudeDegrees>43.77554803155362606048583984375</LatitudeDegrees>
              <LongitudeDegrees>-1.41682586632668972015380859375</LongitudeDegrees>
            </Position>
            <AltitudeMeters>23.799999237060546875</AltitudeMeters>
            <DistanceMeters>NAN</DistanceMeters>
          </Trackpoint>
          <Trackpoint>
            <Time>2022-07-06T18:13:20.000Z</Time>
            <Position>
              <LatitudeDegrees>43.77552573569118976593017578125</LatitudeDegrees>
              <LongitudeDegrees>-1.4167563803493976593017578125</LongitudeDegrees>
            </Position>
            <AltitudeMeters>23.799999237060546875</AltitudeMeters>
            <DistanceMeters>NAN</DistanceMeters>
          </Trackpoint>
          <Trackpoint>
            <Time>2022-07-06T18:13:26.000Z</Time>
            <Position>
              <LatitudeDegrees>43.77549321390688419342041015625</LatitudeDegrees>
              <LongitudeDegrees>-1.41657021827995777130126953125</LongitudeDegrees>
            </Position>
            <AltitudeMeters>23.6000003814697265625</AltitudeMeters>
            <DistanceMeters>NAN</DistanceMeters>
          </Trackpoint>
          <Trackpoint>
            <Time>2022-07-06T18:13:33.000Z</Time>
            <Position>
              <LatitudeDegrees>43.77545080147683620452880859375</LatitudeDegrees>
              <LongitudeDegrees>-1.4162967167794704437255859375</LongitudeDegrees>
            </Position>
            <AltitudeMeters>23</AltitudeMeters>
            <DistanceMeters>NAN</DistanceMeters>
          </Trackpoint>
          <Trackpoint>
            <Time>2022-07-06T18:13:35.000Z</Time>
            <Position>
              <LatitudeDegrees>43.77544485032558441162109375</LatitudeDegrees>
              <LongitudeDegrees>-1.41619403846561908721923828125</LongitudeDegrees>
            </Position>
            <AltitudeMeters>22.6000003814697265625</AltitudeMeters>
            <DistanceMeters>NAN</DistanceMeters>
          </Trackpoint>
          <Trackpoint>
            <Time>2022-07-06T18:13:39.000Z</Time>
            <Position>
              <LatitudeDegrees>43.77541023306548595428466796875</LatitudeDegrees>
              <LongitudeDegrees>-1.4159533940255641937255859375</LongitudeDegrees>
            </Position>
            <AltitudeMeters>21.799999237060546875</AltitudeMeters>
            <DistanceMeters>NAN</DistanceMeters>
          </Trackpoint>
          <Trackpoint>
            <Time>2022-07-06T18:13:40.000Z</Time>
            <Position>
              <LatitudeDegrees>43.77540084533393383026123046875</LatitudeDegrees>
              <LongitudeDegrees>-1.41589212231338024139404296875</LongitudeDegrees>
            </Position>
            <AltitudeMeters>21.200000762939453125</AltitudeMeters>
            <DistanceMeters>NAN</DistanceMeters>
          </Trackpoint>
          <Trackpoint>
            <Time>2022-07-06T18:13:42.000Z</Time>
            <Position>
              <LatitudeDegrees>43.7753772921860218048095703125</LatitudeDegrees>
              <LongitudeDegrees>-1.415780894458293914794921875</LongitudeDegrees>
            </Position>
            <AltitudeMeters>20.3999996185302734375</AltitudeMeters>
            <DistanceMeters>NAN</DistanceMeters>
          </Trackpoint>
          <Trackpoint>
            <Time>2022-07-06T18:13:44.000Z</Time>
            <Position>
              <LatitudeDegrees>43.77536262385547161102294921875</LatitudeDegrees>
              <LongitudeDegrees>-1.41565709374845027923583984375</LongitudeDegrees>
            </Position>
            <AltitudeMeters>20.200000762939453125</AltitudeMeters>
            <DistanceMeters>NAN</DistanceMeters>
          </Trackpoint>
          <Trackpoint>
            <Time>2022-07-06T18:13:46.000Z</Time>
            <Position>
              <LatitudeDegrees>43.7753400765359401702880859375</LatitudeDegrees>
              <LongitudeDegrees>-1.4155091531574726104736328125</LongitudeDegrees>
            </Position>
            <AltitudeMeters>19.6000003814697265625</AltitudeMeters>
            <DistanceMeters>NAN</DistanceMeters>
          </Trackpoint>
          <Trackpoint>
            <Time>2022-07-06T18:13:49.000Z</Time>
            <Position>
              <LatitudeDegrees>43.77530730329453945159912109375</LatitudeDegrees>
              <LongitudeDegrees>-1.4152942411601543426513671875</LongitudeDegrees>
            </Position>
            <AltitudeMeters>19</AltitudeMeters>
            <DistanceMeters>NAN</DistanceMeters>
          </Trackpoint>
          <Trackpoint>
            <Time>2022-07-06T18:13:52.000Z</Time>
            <Position>
              <LatitudeDegrees>43.7752787210047245025634765625</LatitudeDegrees>
              <LongitudeDegrees>-1.4150578714907169342041015625</LongitudeDegrees>
            </Position>
            <AltitudeMeters>18.3999996185302734375</AltitudeMeters>
            <DistanceMeters>NAN</DistanceMeters>
          </Trackpoint>
          <Trackpoint>
            <Time>2022-07-06T18:13:54.000Z</Time>
            <Position>
              <LatitudeDegrees>43.77525902353227138519287109375</LatitudeDegrees>
              <LongitudeDegrees>-1.41490322537720203399658203125</LongitudeDegrees>
            </Position>
            <AltitudeMeters>18</AltitudeMeters>
            <DistanceMeters>NAN</DistanceMeters>
          </Trackpoint>
          <Trackpoint>
            <Time>2022-07-06T18:14:01.000Z</Time>
            <Position>
              <LatitudeDegrees>43.77519129775464534759521484375</LatitudeDegrees>
              <LongitudeDegrees>-1.41436192207038402557373046875</LongitudeDegrees>
            </Position>
            <AltitudeMeters>17</AltitudeMeters>
            <DistanceMeters>NAN</DistanceMeters>
          </Trackpoint>
          <Trackpoint>
            <Time>2022-07-06T18:14:02.000Z</Time>
            <Position>
              <LatitudeDegrees>43.77518408931791782379150390625</LatitudeDegrees>
              <LongitudeDegrees>-1.41428614966571331024169921875</LongitudeDegrees>
            </Position>
            <AltitudeMeters>17</AltitudeMeters>
            <DistanceMeters>NAN</DistanceMeters>
          </Trackpoint>
          <Trackpoint>
            <Time>2022-07-06T18:14:03.000Z</Time>
            <Position>
              <LatitudeDegrees>43.77517671324312686920166015625</LatitudeDegrees>
              <LongitudeDegrees>-1.41421155072748661041259765625</LongitudeDegrees>
            </Position>
            <AltitudeMeters>16.799999237060546875</AltitudeMeters>
            <DistanceMeters>NAN</DistanceMeters>
          </Trackpoint>
          <Trackpoint>
            <Time>2022-07-06T18:14:06.000Z</Time>
            <Position>
              <LatitudeDegrees>43.775145113468170166015625</LatitudeDegrees>
              <LongitudeDegrees>-1.41398440115153789520263671875</LongitudeDegrees>
            </Position>
            <AltitudeMeters>16.3999996185302734375</AltitudeMeters>
            <DistanceMeters>NAN</DistanceMeters>
          </Trackpoint>
          <Trackpoint>
            <Time>2022-07-06T18:14:08.000Z</Time>
            <Position>
              <LatitudeDegrees>43.775132708251476287841796875</LatitudeDegrees>
              <LongitudeDegrees>-1.4138324372470378875732421875</LongitudeDegrees>
            </Position>
            <AltitudeMeters>15.80000019073486328125</AltitudeMeters>
            <DistanceMeters>NAN</DistanceMeters>
          </Trackpoint>
          <Trackpoint>
            <Time>2022-07-06T18:14:12.000Z</Time>
            <Position>
              <LatitudeDegrees>43.77512474544346332550048828125</LatitudeDegrees>
              <LongitudeDegrees>-1.4135266654193401336669921875</LongitudeDegrees>
            </Position>
            <AltitudeMeters>14.80000019073486328125</AltitudeMeters>
            <DistanceMeters>NAN</DistanceMeters>
          </Trackpoint>
          <Trackpoint>
            <Time>2022-07-06T18:14:15.000Z</Time>
            <Position>
              <LatitudeDegrees>43.77513346262276172637939453125</LatitudeDegrees>
              <LongitudeDegrees>-1.4132725261151790618896484375</LongitudeDegrees>
            </Position>
            <AltitudeMeters>13.80000019073486328125</AltitudeMeters>
            <DistanceMeters>NAN</DistanceMeters>
          </Trackpoint>
          <Trackpoint>
            <Time>2022-07-06T18:14:16.000Z</Time>
            <Position>
              <LatitudeDegrees>43.775141425430774688720703125</LatitudeDegrees>
              <LongitudeDegrees>-1.41320941038429737091064453125</LongitudeDegrees>
            </Position>
            <AltitudeMeters>13.3999996185302734375</AltitudeMeters>
            <DistanceMeters>NAN</DistanceMeters>
          </Trackpoint>
          <Trackpoint>
            <Time>2022-07-06T18:14:18.000Z</Time>
            <Position>
              <LatitudeDegrees>43.7751570157706737518310546875</LatitudeDegrees>
              <LongitudeDegrees>-1.41305618919432163238525390625</LongitudeDegrees>
            </Position>
            <AltitudeMeters>13</AltitudeMeters>
            <DistanceMeters>NAN</DistanceMeters>
          </Trackpoint>
          <Trackpoint>
            <Time>2022-07-06T18:14:19.000Z</Time>
            <Position>
              <LatitudeDegrees>43.7751625478267669677734375</LatitudeDegrees>
              <LongitudeDegrees>-1.41297723166644573211669921875</LongitudeDegrees>
            </Position>
            <AltitudeMeters>12.19999980926513671875</AltitudeMeters>
            <DistanceMeters>NAN</DistanceMeters>
          </Trackpoint>
          <Trackpoint>
            <Time>2022-07-06T18:14:23.000Z</Time>
            <Position>
              <LatitudeDegrees>43.77518626861274242401123046875</LatitudeDegrees>
              <LongitudeDegrees>-1.4126298017799854278564453125</LongitudeDegrees>
            </Position>
            <AltitudeMeters>11.19999980926513671875</AltitudeMeters>
            <DistanceMeters>NAN</DistanceMeters>
          </Trackpoint>
          <Trackpoint>
            <Time>2022-07-06T18:14:26.000Z</Time>
            <Position>
              <LatitudeDegrees>43.775189034640789031982421875</LatitudeDegrees>
              <LongitudeDegrees>-1.4124202542006969451904296875</LongitudeDegrees>
            </Position>
            <AltitudeMeters>11</AltitudeMeters>
            <DistanceMeters>NAN</DistanceMeters>
          </Trackpoint>
          <Trackpoint>
            <Time>2022-07-06T18:14:28.000Z</Time>
            <Position>
              <LatitudeDegrees>43.775190375745296478271484375</LatitudeDegrees>
              <LongitudeDegrees>-1.41229058615863323211669921875</LongitudeDegrees>
            </Position>
            <AltitudeMeters>10.80000019073486328125</AltitudeMeters>
            <DistanceMeters>NAN</DistanceMeters>
          </Trackpoint>
          <Trackpoint>
            <Time>2022-07-06T18:14:29.000Z</Time>
            <Position>
              <LatitudeDegrees>43.77519280649721622467041015625</LatitudeDegrees>
              <LongitudeDegrees>-1.4122408814728260040283203125</LongitudeDegrees>
            </Position>
            <AltitudeMeters>10.6000003814697265625</AltitudeMeters>
            <DistanceMeters>NAN</DistanceMeters>
          </Trackpoint>
          <Trackpoint>
            <Time>2022-07-06T18:14:31.000Z</Time>
            <Position>
              <LatitudeDegrees>43.7751975841820240020751953125</LatitudeDegrees>
              <LongitudeDegrees>-1.4121738262474536895751953125</LongitudeDegrees>
            </Position>
            <AltitudeMeters>10.6000003814697265625</AltitudeMeters>
            <DistanceMeters>NAN</DistanceMeters>
          </Trackpoint>
          <Trackpoint>
            <Time>2022-07-06T18:14:33.000Z</Time>
            <Position>
              <LatitudeDegrees>43.77519280649721622467041015625</LatitudeDegrees>
              <LongitudeDegrees>-1.4121615886688232421875</LongitudeDegrees>
            </Position>
            <AltitudeMeters>10.19999980926513671875</AltitudeMeters>
            <DistanceMeters>NAN</DistanceMeters>
          </Trackpoint>
          <Trackpoint>
            <Time>2022-07-06T18:14:34.000Z</Time>
            <Position>
              <LatitudeDegrees>43.77518828026950359344482421875</LatitudeDegrees>
              <LongitudeDegrees>-1.41216418705880641937255859375</LongitudeDegrees>
            </Position>
            <AltitudeMeters>10.19999980926513671875</AltitudeMeters>
            <DistanceMeters>NAN</DistanceMeters>
          </Trackpoint>
          <Trackpoint>
            <Time>2022-07-06T18:14:37.000Z</Time>
            <Position>
              <LatitudeDegrees>43.7751851789653301239013671875</LatitudeDegrees>
              <LongitudeDegrees>-1.4121661148965358734130859375</LongitudeDegrees>
            </Position>
            <AltitudeMeters>9.80000019073486328125</AltitudeMeters>
            <DistanceMeters>NAN</DistanceMeters>
          </Trackpoint>
          <Trackpoint>
            <Time>2022-07-06T18:16:10.000Z</Time>
            <Position>
              <LatitudeDegrees>43.77521392889320850372314453125</LatitudeDegrees>
              <LongitudeDegrees>-1.41209746710956096649169921875</LongitudeDegrees>
            </Position>
            <AltitudeMeters>10.6000003814697265625</AltitudeMeters>
            <DistanceMeters>NAN</DistanceMeters>
          </Trackpoint>
          <Trackpoint>
            <Time>2022-07-06T18:16:11.000Z</Time>
            <Position>
              <LatitudeDegrees>43.7752388231456279754638671875</LatitudeDegrees>
              <LongitudeDegrees>-1.41206838190555572509765625</LongitudeDegrees>
            </Position>
            <AltitudeMeters>10.6000003814697265625</AltitudeMeters>
            <DistanceMeters>NAN</DistanceMeters>
          </Trackpoint>
          <Trackpoint>
            <Time>2022-07-06T18:16:14.000Z</Time>
            <Position>
              <LatitudeDegrees>43.775316774845123291015625</LatitudeDegrees>
              <LongitudeDegrees>-1.41198523342609405517578125</LongitudeDegrees>
            </Position>
            <AltitudeMeters>10.6000003814697265625</AltitudeMeters>
            <DistanceMeters>NAN</DistanceMeters>
          </Trackpoint>
          <Trackpoint>
            <Time>2022-07-06T18:16:16.000Z</Time>
            <Position>
              <LatitudeDegrees>43.77536178566515445709228515625</LatitudeDegrees>
              <LongitudeDegrees>-1.41193519346415996551513671875</LongitudeDegrees>
            </Position>
            <AltitudeMeters>10.6000003814697265625</AltitudeMeters>
            <DistanceMeters>NAN</DistanceMeters>
          </Trackpoint>
          <Trackpoint>
            <Time>2022-07-06T18:16:17.000Z</Time>
            <Position>
              <LatitudeDegrees>43.77538609318435192108154296875</LatitudeDegrees>
              <LongitudeDegrees>-1.4119119755923748016357421875</LongitudeDegrees>
            </Position>
            <AltitudeMeters>10.6000003814697265625</AltitudeMeters>
            <DistanceMeters>NAN</DistanceMeters>
          </Trackpoint>
          <Trackpoint>
            <Time>2022-07-06T18:16:23.000Z</Time>
            <Position>
              <LatitudeDegrees>43.77549019642174243927001953125</LatitudeDegrees>
              <LongitudeDegrees>-1.41181751154363155364990234375</LongitudeDegrees>
            </Position>
            <AltitudeMeters>10.3999996185302734375</AltitudeMeters>
            <DistanceMeters>NAN</DistanceMeters>
          </Trackpoint>
          <Trackpoint>
            <Time>2022-07-06T18:16:25.000Z</Time>
            <Position>
              <LatitudeDegrees>43.77551726996898651123046875</LatitudeDegrees>
              <LongitudeDegrees>-1.41179588623344898223876953125</LongitudeDegrees>
            </Position>
            <AltitudeMeters>10.19999980926513671875</AltitudeMeters>
            <DistanceMeters>NAN</DistanceMeters>
          </Trackpoint>
          <Trackpoint>
            <Time>2022-07-06T18:16:28.000Z</Time>
            <Position>
              <LatitudeDegrees>43.77554275095462799072265625</LatitudeDegrees>
              <LongitudeDegrees>-1.41175112687051296234130859375</LongitudeDegrees>
            </Position>
            <AltitudeMeters>10</AltitudeMeters>
            <DistanceMeters>NAN</DistanceMeters>
          </Trackpoint>
          <Trackpoint>
            <Time>2022-07-06T18:16:33.000Z</Time>
            <Position>
              <LatitudeDegrees>43.77559798769652843475341796875</LatitudeDegrees>
              <LongitudeDegrees>-1.4117148332297801971435546875</LongitudeDegrees>
            </Position>
            <AltitudeMeters>9.80000019073486328125</AltitudeMeters>
            <DistanceMeters>NAN</DistanceMeters>
          </Trackpoint>
          <Trackpoint>
            <Time>2022-07-06T18:16:34.000Z</Time>
            <Position>
              <LatitudeDegrees>43.775610141456127166748046875</LatitudeDegrees>
              <LongitudeDegrees>-1.41172011382877826690673828125</LongitudeDegrees>
            </Position>
            <AltitudeMeters>9.80000019073486328125</AltitudeMeters>
            <DistanceMeters>NAN</DistanceMeters>
          </Trackpoint>
          <Trackpoint>
            <Time>2022-07-06T18:16:35.000Z</Time>
            <Position>
              <LatitudeDegrees>43.77562162466347217559814453125</LatitudeDegrees>
              <LongitudeDegrees>-1.41172899864614009857177734375</LongitudeDegrees>
            </Position>
            <AltitudeMeters>9.80000019073486328125</AltitudeMeters>
            <DistanceMeters>NAN</DistanceMeters>
          </Trackpoint>
          <Trackpoint>
            <Time>2022-07-06T18:16:37.000Z</Time>
            <Position>
              <LatitudeDegrees>43.77563662827014923095703125</LatitudeDegrees>
              <LongitudeDegrees>-1.4117600955069065093994140625</LongitudeDegrees>
            </Position>
            <AltitudeMeters>9.80000019073486328125</AltitudeMeters>
            <DistanceMeters>NAN</DistanceMeters>
          </Trackpoint>
          <Trackpoint>
            <Time>2022-07-06T18:16:39.000Z</Time>
            <Position>
              <LatitudeDegrees>43.775644339621067047119140625</LatitudeDegrees>
              <LongitudeDegrees>-1.41179303638637065887451171875</LongitudeDegrees>
            </Position>
            <AltitudeMeters>9.80000019073486328125</AltitudeMeters>
            <DistanceMeters>NAN</DistanceMeters>
          </Trackpoint>
          <Trackpoint>
            <Time>2022-07-06T18:16:43.000Z</Time>
            <Position>
              <LatitudeDegrees>43.7756428308784961700439453125</LatitudeDegrees>
              <LongitudeDegrees>-1.41180695034563541412353515625</LongitudeDegrees>
            </Position>
            <AltitudeMeters>10</AltitudeMeters>
            <DistanceMeters>NAN</DistanceMeters>
          </Trackpoint>
          <Trackpoint>
            <Time>2022-07-06T18:17:08.000Z</Time>
            <Position>
              <LatitudeDegrees>43.77563671208918094635009765625</LatitudeDegrees>
              <LongitudeDegrees>-1.41178633086383342742919921875</LongitudeDegrees>
            </Position>
            <AltitudeMeters>9.6000003814697265625</AltitudeMeters>
            <DistanceMeters>NAN</DistanceMeters>
          </Trackpoint>
          <Trackpoint>
            <Time>2022-07-06T18:17:11.000Z</Time>
            <Position>
              <LatitudeDegrees>43.7756025977432727813720703125</LatitudeDegrees>
              <LongitudeDegrees>-1.41173302195966243743896484375</LongitudeDegrees>
            </Position>
            <AltitudeMeters>9.80000019073486328125</AltitudeMeters>
            <DistanceMeters>NAN</DistanceMeters>
          </Trackpoint>
          <Trackpoint>
            <Time>2022-07-06T18:17:13.000Z</Time>
            <Position>
              <LatitudeDegrees>43.77556965686380863189697265625</LatitudeDegrees>
              <LongitudeDegrees>-1.4117336086928844451904296875</LongitudeDegrees>
            </Position>
            <AltitudeMeters>10</AltitudeMeters>
            <DistanceMeters>NAN</DistanceMeters>
          </Trackpoint>
          <Trackpoint>
            <Time>2022-07-06T18:17:18.000Z</Time>
            <Position>
              <LatitudeDegrees>43.7754614464938640594482421875</LatitudeDegrees>
              <LongitudeDegrees>-1.4118372090160846710205078125</LongitudeDegrees>
            </Position>
            <AltitudeMeters>10.3999996185302734375</AltitudeMeters>
            <DistanceMeters>NAN</DistanceMeters>
          </Trackpoint>
          <Trackpoint>
            <Time>2022-07-06T18:17:21.000Z</Time>
            <Position>
              <LatitudeDegrees>43.775411657989025115966796875</LatitudeDegrees>
              <LongitudeDegrees>-1.4118804596364498138427734375</LongitudeDegrees>
            </Position>
            <AltitudeMeters>10.3999996185302734375</AltitudeMeters>
            <DistanceMeters>NAN</DistanceMeters>
          </Trackpoint>
          <Trackpoint>
            <Time>2022-07-06T18:17:24.000Z</Time>
            <Position>
              <LatitudeDegrees>43.77536715008318424224853515625</LatitudeDegrees>
              <LongitudeDegrees>-1.41192756593227386474609375</LongitudeDegrees>
            </Position>
            <AltitudeMeters>10.3999996185302734375</AltitudeMeters>
            <DistanceMeters>NAN</DistanceMeters>
          </Trackpoint>
          <Trackpoint>
            <Time>2022-07-06T18:17:26.000Z</Time>
            <Position>
              <LatitudeDegrees>43.7753327004611492156982421875</LatitudeDegrees>
              <LongitudeDegrees>-1.41196620650589466094970703125</LongitudeDegrees>
            </Position>
            <AltitudeMeters>10.3999996185302734375</AltitudeMeters>
            <DistanceMeters>NAN</DistanceMeters>
          </Trackpoint>
          <Trackpoint>
            <Time>2022-07-06T18:17:33.000Z</Time>
            <Position>
              <LatitudeDegrees>43.77524100244045257568359375</LatitudeDegrees>
              <LongitudeDegrees>-1.41205488704144954681396484375</LongitudeDegrees>
            </Position>
            <AltitudeMeters>10.19999980926513671875</AltitudeMeters>
            <DistanceMeters>NAN</DistanceMeters>
          </Trackpoint>
          <Trackpoint>
            <Time>2022-07-06T18:17:34.000Z</Time>
            <Position>
              <LatitudeDegrees>43.77524100244045257568359375</LatitudeDegrees>
              <LongitudeDegrees>-1.41205488704144954681396484375</LongitudeDegrees>
            </Position>
            <AltitudeMeters>10.19999980926513671875</AltitudeMeters>
            <DistanceMeters>NAN</DistanceMeters>
          </Trackpoint>
          <Trackpoint>
            <Time>2022-07-06T18:18:01.000Z</Time>
            <Position>
              <LatitudeDegrees>43.77520571462810039520263671875</LatitudeDegrees>
              <LongitudeDegrees>-1.4120655320584774017333984375</LongitudeDegrees>
            </Position>
            <AltitudeMeters>10.3999996185302734375</AltitudeMeters>
            <DistanceMeters>NAN</DistanceMeters>
          </Trackpoint>
          <Trackpoint>
            <Time>2022-07-06T18:18:02.000Z</Time>
            <Position>
              <LatitudeDegrees>43.77518962137401103973388671875</LatitudeDegrees>
              <LongitudeDegrees>-1.412065364420413970947265625</LongitudeDegrees>
            </Position>
            <AltitudeMeters>10.3999996185302734375</AltitudeMeters>
            <DistanceMeters>NAN</DistanceMeters>
          </Trackpoint>
          <Trackpoint>
            <Time>2022-07-06T18:18:04.000Z</Time>
            <Position>
              <LatitudeDegrees>43.77514855004847049713134765625</LatitudeDegrees>
              <LongitudeDegrees>-1.41205362975597381591796875</LongitudeDegrees>
            </Position>
            <AltitudeMeters>10.3999996185302734375</AltitudeMeters>
            <DistanceMeters>NAN</DistanceMeters>
          </Trackpoint>
          <Trackpoint>
            <Time>2022-07-06T18:18:07.000Z</Time>
            <Position>
              <LatitudeDegrees>43.77506992779672145843505859375</LatitudeDegrees>
              <LongitudeDegrees>-1.412056982517242431640625</LongitudeDegrees>
            </Position>
            <AltitudeMeters>10.19999980926513671875</AltitudeMeters>
            <DistanceMeters>NAN</DistanceMeters>
          </Trackpoint>
          <Trackpoint>
            <Time>2022-07-06T18:18:10.000Z</Time>
            <Position>
              <LatitudeDegrees>43.77502516843378543853759765625</LatitudeDegrees>
              <LongitudeDegrees>-1.41204633750021457672119140625</LongitudeDegrees>
            </Position>
            <AltitudeMeters>9.80000019073486328125</AltitudeMeters>
            <DistanceMeters>NAN</DistanceMeters>
          </Trackpoint>
          <Trackpoint>
            <Time>2022-07-06T18:18:13.000Z</Time>
            <Position>
              <LatitudeDegrees>43.77498996444046497344970703125</LatitudeDegrees>
              <LongitudeDegrees>-1.41200744546949863433837890625</LongitudeDegrees>
            </Position>
            <AltitudeMeters>9.19999980926513671875</AltitudeMeters>
            <DistanceMeters>NAN</DistanceMeters>
          </Trackpoint>
          <Trackpoint>
            <Time>2022-07-06T18:18:17.000Z</Time>
            <Position>
              <LatitudeDegrees>43.77490212209522724151611328125</LatitudeDegrees>
              <LongitudeDegrees>-1.41192345879971981048583984375</LongitudeDegrees>
            </Position>
            <AltitudeMeters>8.80000019073486328125</AltitudeMeters>
            <DistanceMeters>NAN</DistanceMeters>
          </Trackpoint>
          <Trackpoint>
            <Time>2022-07-06T18:18:21.000Z</Time>
            <Position>
              <LatitudeDegrees>43.77477387897670269012451171875</LatitudeDegrees>
              <LongitudeDegrees>-1.41192220151424407958984375</LongitudeDegrees>
            </Position>
            <AltitudeMeters>8.3999996185302734375</AltitudeMeters>
            <DistanceMeters>NAN</DistanceMeters>
          </Trackpoint>
          <Trackpoint>
            <Time>2022-07-06T18:18:25.000Z</Time>
            <Position>
              <LatitudeDegrees>43.7747613899409770965576171875</LatitudeDegrees>
              <LongitudeDegrees>-1.4119371213018894195556640625</LongitudeDegrees>
            </Position>
            <AltitudeMeters>8.3999996185302734375</AltitudeMeters>
            <DistanceMeters>NAN</DistanceMeters>
          </Trackpoint>
          <Trackpoint>
            <Time>2022-07-06T18:18:48.000Z</Time>
            <Position>
              <LatitudeDegrees>43.7747406028211116790771484375</LatitudeDegrees>
              <LongitudeDegrees>-1.411807872354984283447265625</LongitudeDegrees>
            </Position>
            <AltitudeMeters>8</AltitudeMeters>
            <DistanceMeters>NAN</DistanceMeters>
          </Trackpoint>
          <Trackpoint>
            <Time>2022-07-06T18:18:50.000Z</Time>
            <Position>
              <LatitudeDegrees>43.7747104279696941375732421875</LatitudeDegrees>
              <LongitudeDegrees>-1.41173779964447021484375</LongitudeDegrees>
            </Position>
            <AltitudeMeters>8</AltitudeMeters>
            <DistanceMeters>NAN</DistanceMeters>
          </Trackpoint>
          <Trackpoint>
            <Time>2022-07-06T18:18:53.000Z</Time>
            <Position>
              <LatitudeDegrees>43.7746661715209484100341796875</LatitudeDegrees>
              <LongitudeDegrees>-1.41163646243512630462646484375</LongitudeDegrees>
            </Position>
            <AltitudeMeters>8.3999996185302734375</AltitudeMeters>
            <DistanceMeters>NAN</DistanceMeters>
          </Trackpoint>
          <Trackpoint>
            <Time>2022-07-06T18:18:56.000Z</Time>
            <Position>
              <LatitudeDegrees>43.77464211545884609222412109375</LatitudeDegrees>
              <LongitudeDegrees>-1.41156119294464588165283203125</LongitudeDegrees>
            </Position>
            <AltitudeMeters>8.80000019073486328125</AltitudeMeters>
            <DistanceMeters>NAN</DistanceMeters>
          </Trackpoint>
          <Trackpoint>
            <Time>2022-07-06T18:18:58.000Z</Time>
            <Position>
              <LatitudeDegrees>43.7746269442141056060791015625</LatitudeDegrees>
              <LongitudeDegrees>-1.41151492483913898468017578125</LongitudeDegrees>
            </Position>
            <AltitudeMeters>9.19999980926513671875</AltitudeMeters>
            <DistanceMeters>NAN</DistanceMeters>
          </Trackpoint>
          <Trackpoint>
            <Time>2022-07-06T18:19:02.000Z</Time>
            <Position>
              <LatitudeDegrees>43.7745803408324718475341796875</LatitudeDegrees>
              <LongitudeDegrees>-1.41141953878104686737060546875</LongitudeDegrees>
            </Position>
            <AltitudeMeters>9.3999996185302734375</AltitudeMeters>
            <DistanceMeters>NAN</DistanceMeters>
          </Trackpoint>
          <Trackpoint>
            <Time>2022-07-06T18:19:11.000Z</Time>
            <Position>
              <LatitudeDegrees>43.77444572746753692626953125</LatitudeDegrees>
              <LongitudeDegrees>-1.41118031926453113555908203125</LongitudeDegrees>
            </Position>
            <AltitudeMeters>9.3999996185302734375</AltitudeMeters>
            <DistanceMeters>NAN</DistanceMeters>
          </Trackpoint>
          <Trackpoint>
            <Time>2022-07-06T18:19:12.000Z</Time>
            <Position>
              <LatitudeDegrees>43.7744311429560184478759765625</LatitudeDegrees>
              <LongitudeDegrees>-1.41114704310894012451171875</LongitudeDegrees>
            </Position>
            <AltitudeMeters>9.19999980926513671875</AltitudeMeters>
            <DistanceMeters>NAN</DistanceMeters>
          </Trackpoint>
          <Trackpoint>
            <Time>2022-07-06T18:19:17.000Z</Time>
            <Position>
              <LatitudeDegrees>43.77434237860143184661865234375</LatitudeDegrees>
              <LongitudeDegrees>-1.41097814776003360748291015625</LongitudeDegrees>
            </Position>
            <AltitudeMeters>9.3999996185302734375</AltitudeMeters>
            <DistanceMeters>NAN</DistanceMeters>
          </Trackpoint>
          <Trackpoint>
            <Time>2022-07-06T18:19:23.000Z</Time>
            <Position>
              <LatitudeDegrees>43.77417474053800106048583984375</LatitudeDegrees>
              <LongitudeDegrees>-1.41076625324785709381103515625</LongitudeDegrees>
            </Position>
            <AltitudeMeters>9.3999996185302734375</AltitudeMeters>
            <DistanceMeters>NAN</DistanceMeters>
          </Trackpoint>
          <Trackpoint>
            <Time>2022-07-06T18:19:28.000Z</Time>
            <Position>
              <LatitudeDegrees>43.7741012312471866607666015625</LatitudeDegrees>
              <LongitudeDegrees>-1.41057983972132205963134765625</LongitudeDegrees>
            </Position>
            <AltitudeMeters>10</AltitudeMeters>
            <DistanceMeters>NAN</DistanceMeters>
          </Trackpoint>
          <Trackpoint>
            <Time>2022-07-06T18:19:34.000Z</Time>
            <Position>
              <LatitudeDegrees>43.7740918435156345367431640625</LatitudeDegrees>
              <LongitudeDegrees>-1.41020868904888629913330078125</LongitudeDegrees>
            </Position>
            <AltitudeMeters>9.6000003814697265625</AltitudeMeters>
            <DistanceMeters>NAN</DistanceMeters>
          </Trackpoint>
          <Trackpoint>
            <Time>2022-07-06T18:19:37.000Z</Time>
            <Position>
              <LatitudeDegrees>43.77401833422482013702392578125</LatitudeDegrees>
              <LongitudeDegrees>-1.41002663411200046539306640625</LongitudeDegrees>
            </Position>
            <AltitudeMeters>9.6000003814697265625</AltitudeMeters>
            <DistanceMeters>NAN</DistanceMeters>
          </Trackpoint>
          <Trackpoint>
            <Time>2022-07-06T18:19:39.000Z</Time>
            <Position>
              <LatitudeDegrees>43.7739604152739048004150390625</LatitudeDegrees>
              <LongitudeDegrees>-1.40993795357644557952880859375</LongitudeDegrees>
            </Position>
            <AltitudeMeters>10</AltitudeMeters>
            <DistanceMeters>NAN</DistanceMeters>
          </Trackpoint>
          <Trackpoint>
            <Time>2022-07-06T18:19:40.000Z</Time>
            <Position>
              <LatitudeDegrees>43.77391976304352283477783203125</LatitudeDegrees>
              <LongitudeDegrees>-1.409887410700321197509765625</LongitudeDegrees>
            </Position>
            <AltitudeMeters>10.19999980926513671875</AltitudeMeters>
            <DistanceMeters>NAN</DistanceMeters>
          </Trackpoint>
          <Trackpoint>
            <Time>2022-07-06T18:19:42.000Z</Time>
            <Position>
              <LatitudeDegrees>43.77383745275437831878662109375</LatitudeDegrees>
              <LongitudeDegrees>-1.40985480509698390960693359375</LongitudeDegrees>
            </Position>
            <AltitudeMeters>10.6000003814697265625</AltitudeMeters>
            <DistanceMeters>NAN</DistanceMeters>
          </Trackpoint>
          <Trackpoint>
            <Time>2022-07-06T18:19:43.000Z</Time>
            <Position>
              <LatitudeDegrees>43.77380576916038990020751953125</LatitudeDegrees>
              <LongitudeDegrees>-1.40985882841050624847412109375</LongitudeDegrees>
            </Position>
            <AltitudeMeters>10.80000019073486328125</AltitudeMeters>
            <DistanceMeters>NAN</DistanceMeters>
          </Trackpoint>
          <Trackpoint>
            <Time>2022-07-06T18:19:45.000Z</Time>
            <Position>
              <LatitudeDegrees>43.77375371754169464111328125</LatitudeDegrees>
              <LongitudeDegrees>-1.40989470295608043670654296875</LongitudeDegrees>
            </Position>
            <AltitudeMeters>11.19999980926513671875</AltitudeMeters>
            <DistanceMeters>NAN</DistanceMeters>
          </Trackpoint>
          <Trackpoint>
            <Time>2022-07-06T18:19:47.000Z</Time>
            <Position>
              <LatitudeDegrees>43.7737377919256687164306640625</LatitudeDegrees>
              <LongitudeDegrees>-1.40995035879313945770263671875</LongitudeDegrees>
            </Position>
            <AltitudeMeters>11.6000003814697265625</AltitudeMeters>
            <DistanceMeters>NAN</DistanceMeters>
          </Trackpoint>
          <Trackpoint>
            <Time>2022-07-06T18:19:53.000Z</Time>
            <Position>
              <LatitudeDegrees>43.77375447191298007965087890625</LatitudeDegrees>
              <LongitudeDegrees>-1.41013258136808872222900390625</LongitudeDegrees>
            </Position>
            <AltitudeMeters>11.6000003814697265625</AltitudeMeters>
            <DistanceMeters>NAN</DistanceMeters>
          </Trackpoint>
          <Trackpoint>
            <Time>2022-07-06T18:19:54.000Z</Time>
            <Position>
              <LatitudeDegrees>43.77375237643718719482421875</LatitudeDegrees>
              <LongitudeDegrees>-1.410184465348720550537109375</LongitudeDegrees>
            </Position>
            <AltitudeMeters>11.6000003814697265625</AltitudeMeters>
            <DistanceMeters>NAN</DistanceMeters>
          </Trackpoint>
          <Trackpoint>
            <Time>2022-07-06T18:20:00.000Z</Time>
            <Position>
              <LatitudeDegrees>43.77373955212533473968505859375</LatitudeDegrees>
              <LongitudeDegrees>-1.41046014614403247833251953125</LongitudeDegrees>
            </Position>
            <AltitudeMeters>12.19999980926513671875</AltitudeMeters>
            <DistanceMeters>NAN</DistanceMeters>
          </Trackpoint>
          <Trackpoint>
            <Time>2022-07-06T18:20:01.000Z</Time>
            <Position>
              <LatitudeDegrees>43.77373502589762210845947265625</LatitudeDegrees>
              <LongitudeDegrees>-1.4104704558849334716796875</LongitudeDegrees>
            </Position>
            <AltitudeMeters>12.3999996185302734375</AltitudeMeters>
            <DistanceMeters>NAN</DistanceMeters>
          </Trackpoint>
          <Trackpoint>
            <Time>2022-07-06T18:20:06.000Z</Time>
            <Position>
              <LatitudeDegrees>43.773697055876255035400390625</LatitudeDegrees>
              <LongitudeDegrees>-1.4105799235403537750244140625</LongitudeDegrees>
            </Position>
            <AltitudeMeters>12.80000019073486328125</AltitudeMeters>
            <DistanceMeters>NAN</DistanceMeters>
          </Trackpoint>
          <Trackpoint>
            <Time>2022-07-06T18:20:09.000Z</Time>
            <Position>
              <LatitudeDegrees>43.773686997592449188232421875</LatitudeDegrees>
              <LongitudeDegrees>-1.410635076463222503662109375</LongitudeDegrees>
            </Position>
            <AltitudeMeters>13</AltitudeMeters>
            <DistanceMeters>NAN</DistanceMeters>
          </Trackpoint>
          <Trackpoint>
            <Time>2022-07-06T18:20:13.000Z</Time>
            <Position>
              <LatitudeDegrees>43.77364617772400379180908203125</LatitudeDegrees>
              <LongitudeDegrees>-1.41075569204986095428466796875</LongitudeDegrees>
            </Position>
            <AltitudeMeters>13.3999996185302734375</AltitudeMeters>
            <DistanceMeters>NAN</DistanceMeters>
          </Trackpoint>
          <Trackpoint>
            <Time>2022-07-06T18:20:14.000Z</Time>
            <Position>
              <LatitudeDegrees>43.77363008446991443634033203125</LatitudeDegrees>
              <LongitudeDegrees>-1.41079693101346492767333984375</LongitudeDegrees>
            </Position>
            <AltitudeMeters>13.3999996185302734375</AltitudeMeters>
            <DistanceMeters>NAN</DistanceMeters>
          </Trackpoint>
          <Trackpoint>
            <Time>2022-07-06T18:20:17.000Z</Time>
            <Position>
              <LatitudeDegrees>43.7736015021800994873046875</LatitudeDegrees>
              <LongitudeDegrees>-1.41089399345219135284423828125</LongitudeDegrees>
            </Position>
            <AltitudeMeters>13.3999996185302734375</AltitudeMeters>
            <DistanceMeters>NAN</DistanceMeters>
          </Trackpoint>
          <Trackpoint>
            <Time>2022-07-06T18:20:19.000Z</Time>
            <Position>
              <LatitudeDegrees>43.77359144389629364013671875</LatitudeDegrees>
              <LongitudeDegrees>-1.41096373088657855987548828125</LongitudeDegrees>
            </Position>
            <AltitudeMeters>13.6000003814697265625</AltitudeMeters>
            <DistanceMeters>NAN</DistanceMeters>
          </Trackpoint>
          <Trackpoint>
            <Time>2022-07-06T18:20:27.000Z</Time>
            <Position>
              <LatitudeDegrees>43.77359814941883087158203125</LatitudeDegrees>
              <LongitudeDegrees>-1.4113554172217845916748046875</LongitudeDegrees>
            </Position>
            <AltitudeMeters>13.80000019073486328125</AltitudeMeters>
            <DistanceMeters>NAN</DistanceMeters>
          </Trackpoint>
          <Trackpoint>
            <Time>2022-07-06T18:20:35.000Z</Time>
            <Position>
              <LatitudeDegrees>43.7736308388411998748779296875</LatitudeDegrees>
              <LongitudeDegrees>-1.411772333085536956787109375</LongitudeDegrees>
            </Position>
            <AltitudeMeters>13.3999996185302734375</AltitudeMeters>
            <DistanceMeters>NAN</DistanceMeters>
          </Trackpoint>
          <Trackpoint>
            <Time>2022-07-06T18:20:37.000Z</Time>
            <Position>
              <LatitudeDegrees>43.7735989876091480255126953125</LatitudeDegrees>
              <LongitudeDegrees>-1.411874592304229736328125</LongitudeDegrees>
            </Position>
            <AltitudeMeters>13.3999996185302734375</AltitudeMeters>
            <DistanceMeters>NAN</DistanceMeters>
          </Trackpoint>
          <Trackpoint>
            <Time>2022-07-06T18:20:39.000Z</Time>
            <Position>
              <LatitudeDegrees>43.77355783246457576751708984375</LatitudeDegrees>
              <LongitudeDegrees>-1.4119724929332733154296875</LongitudeDegrees>
            </Position>
            <AltitudeMeters>13.19999980926513671875</AltitudeMeters>
            <DistanceMeters>NAN</DistanceMeters>
          </Trackpoint>
          <Trackpoint>
            <Time>2022-07-06T18:20:40.000Z</Time>
            <Position>
              <LatitudeDegrees>43.7735322676599025726318359375</LatitudeDegrees>
              <LongitudeDegrees>-1.41201071441173553466796875</LongitudeDegrees>
            </Position>
            <AltitudeMeters>13.3999996185302734375</AltitudeMeters>
            <DistanceMeters>NAN</DistanceMeters>
          </Trackpoint>
          <Trackpoint>
            <Time>2022-07-06T18:20:44.000Z</Time>
            <Position>
              <LatitudeDegrees>43.77341802231967449188232421875</LatitudeDegrees>
              <LongitudeDegrees>-1.41211691312491893768310546875</LongitudeDegrees>
            </Position>
            <AltitudeMeters>13.3999996185302734375</AltitudeMeters>
            <DistanceMeters>NAN</DistanceMeters>
          </Trackpoint>
          <Trackpoint>
            <Time>2022-07-06T18:20:51.000Z</Time>
            <Position>
              <LatitudeDegrees>43.7731882743537425994873046875</LatitudeDegrees>
              <LongitudeDegrees>-1.4122138917446136474609375</LongitudeDegrees>
            </Position>
            <AltitudeMeters>14</AltitudeMeters>
            <DistanceMeters>NAN</DistanceMeters>
          </Trackpoint>
          <Trackpoint>
            <Time>2022-07-06T18:20:56.000Z</Time>
            <Position>
              <LatitudeDegrees>43.77304603345692157745361328125</LatitudeDegrees>
              <LongitudeDegrees>-1.4122888259589672088623046875</LongitudeDegrees>
            </Position>
            <AltitudeMeters>14.19999980926513671875</AltitudeMeters>
            <DistanceMeters>NAN</DistanceMeters>
          </Trackpoint>
          <Trackpoint>
            <Time>2022-07-06T18:20:57.000Z</Time>
            <Position>
              <LatitudeDegrees>43.77302943728864192962646484375</LatitudeDegrees>
              <LongitudeDegrees>-1.41229678876698017120361328125</LongitudeDegrees>
            </Position>
            <AltitudeMeters>14.19999980926513671875</AltitudeMeters>
            <DistanceMeters>NAN</DistanceMeters>
          </Trackpoint>
          <Trackpoint>
            <Time>2022-07-06T18:20:59.000Z</Time>
            <Position>
              <LatitudeDegrees>43.772988617420196533203125</LatitudeDegrees>
              <LongitudeDegrees>-1.41232478432357311248779296875</LongitudeDegrees>
            </Position>
            <AltitudeMeters>14.3999996185302734375</AltitudeMeters>
            <DistanceMeters>NAN</DistanceMeters>
          </Trackpoint>
          <Trackpoint>
            <Time>2022-07-06T18:21:02.000Z</Time>
            <Position>
              <LatitudeDegrees>43.77293220721185207366943359375</LatitudeDegrees>
              <LongitudeDegrees>-1.41237390227615833282470703125</LongitudeDegrees>
            </Position>
            <AltitudeMeters>14.6000003814697265625</AltitudeMeters>
            <DistanceMeters>NAN</DistanceMeters>
          </Trackpoint>
          <Trackpoint>
            <Time>2022-07-06T18:21:03.000Z</Time>
            <Position>
              <LatitudeDegrees>43.77291611395776271820068359375</LatitudeDegrees>
              <LongitudeDegrees>-1.41238010488450527191162109375</LongitudeDegrees>
            </Position>
            <AltitudeMeters>14.80000019073486328125</AltitudeMeters>
            <DistanceMeters>NAN</DistanceMeters>
          </Trackpoint>
          <Trackpoint>
            <Time>2022-07-06T18:21:07.000Z</Time>
            <Position>
              <LatitudeDegrees>43.77289046533405780792236328125</LatitudeDegrees>
              <LongitudeDegrees>-1.4123954437673091888427734375</LongitudeDegrees>
            </Position>
            <AltitudeMeters>15</AltitudeMeters>
            <DistanceMeters>NAN</DistanceMeters>
          </Trackpoint>
          <Trackpoint>
            <Time>2022-07-06T18:21:08.000Z</Time>
            <Position>
              <LatitudeDegrees>43.77289046533405780792236328125</LatitudeDegrees>
              <LongitudeDegrees>-1.4123954437673091888427734375</LongitudeDegrees>
            </Position>
            <AltitudeMeters>15</AltitudeMeters>
            <DistanceMeters>NAN</DistanceMeters>
          </Trackpoint>
          <Trackpoint>
            <Time>2022-07-06T18:21:42.000Z</Time>
            <Position>
              <LatitudeDegrees>43.77297847531735897064208984375</LatitudeDegrees>
              <LongitudeDegrees>-1.412448920309543609619140625</LongitudeDegrees>
            </Position>
            <AltitudeMeters>14.80000019073486328125</AltitudeMeters>
            <DistanceMeters>NAN</DistanceMeters>
          </Trackpoint>
          <Trackpoint>
            <Time>2022-07-06T18:21:44.000Z</Time>
            <Position>
              <LatitudeDegrees>43.7729971669614315032958984375</LatitudeDegrees>
              <LongitudeDegrees>-1.41251723282039165496826171875</LongitudeDegrees>
            </Position>
            <AltitudeMeters>14.6000003814697265625</AltitudeMeters>
            <DistanceMeters>NAN</DistanceMeters>
          </Trackpoint>
          <Trackpoint>
            <Time>2022-07-06T18:21:49.000Z</Time>
            <Position>
              <LatitudeDegrees>43.77302541397511959075927734375</LatitudeDegrees>
              <LongitudeDegrees>-1.4126251079142093658447265625</LongitudeDegrees>
            </Position>
            <AltitudeMeters>13.6000003814697265625</AltitudeMeters>
            <DistanceMeters>NAN</DistanceMeters>
          </Trackpoint>
          <Trackpoint>
            <Time>2022-07-06T18:21:51.000Z</Time>
            <Position>
              <LatitudeDegrees>43.77304100431501865386962890625</LatitudeDegrees>
              <LongitudeDegrees>-1.41265888698399066925048828125</LongitudeDegrees>
            </Position>
            <AltitudeMeters>13.6000003814697265625</AltitudeMeters>
            <DistanceMeters>NAN</DistanceMeters>
          </Trackpoint>
          <Trackpoint>
            <Time>2022-07-06T18:21:52.000Z</Time>
            <Position>
              <LatitudeDegrees>43.77304754219949245452880859375</LatitudeDegrees>
              <LongitudeDegrees>-1.4126804284751415252685546875</LongitudeDegrees>
            </Position>
            <AltitudeMeters>13.3999996185302734375</AltitudeMeters>
            <DistanceMeters>NAN</DistanceMeters>
          </Trackpoint>
          <Trackpoint>
            <Time>2022-07-06T18:21:56.000Z</Time>
            <Position>
              <LatitudeDegrees>43.7730548344552516937255859375</LatitudeDegrees>
              <LongitudeDegrees>-1.4127691090106964111328125</LongitudeDegrees>
            </Position>
            <AltitudeMeters>13</AltitudeMeters>
            <DistanceMeters>NAN</DistanceMeters>
          </Trackpoint>
          <Trackpoint>
            <Time>2022-07-06T18:21:57.000Z</Time>
            <Position>
              <LatitudeDegrees>43.7730588577687740325927734375</LatitudeDegrees>
              <LongitudeDegrees>-1.41279148869216442108154296875</LongitudeDegrees>
            </Position>
            <AltitudeMeters>13</AltitudeMeters>
            <DistanceMeters>NAN</DistanceMeters>
          </Trackpoint>
          <Trackpoint>
            <Time>2022-07-06T18:22:01.000Z</Time>
            <Position>
              <LatitudeDegrees>43.77309062518179416656494140625</LatitudeDegrees>
              <LongitudeDegrees>-1.41289173625409603118896484375</LongitudeDegrees>
            </Position>
            <AltitudeMeters>12.6000003814697265625</AltitudeMeters>
            <DistanceMeters>NAN</DistanceMeters>
          </Trackpoint>
          <Trackpoint>
            <Time>2022-07-06T18:22:02.000Z</Time>
            <Position>
              <LatitudeDegrees>43.7731014378368854522705078125</LatitudeDegrees>
              <LongitudeDegrees>-1.412925012409687042236328125</LongitudeDegrees>
            </Position>
            <AltitudeMeters>12.6000003814697265625</AltitudeMeters>
            <DistanceMeters>NAN</DistanceMeters>
          </Trackpoint>
          <Trackpoint>
            <Time>2022-07-06T18:22:03.000Z</Time>
            <Position>
              <LatitudeDegrees>43.7731068022549152374267578125</LatitudeDegrees>
              <LongitudeDegrees>-1.4129352383315563201904296875</LongitudeDegrees>
            </Position>
            <AltitudeMeters>12.6000003814697265625</AltitudeMeters>
            <DistanceMeters>NAN</DistanceMeters>
          </Trackpoint>
          <Trackpoint>
            <Time>2022-07-06T18:22:06.000Z</Time>
            <Position>
              <LatitudeDegrees>43.7731068022549152374267578125</LatitudeDegrees>
              <LongitudeDegrees>-1.4129352383315563201904296875</LongitudeDegrees>
            </Position>
            <AltitudeMeters>12.6000003814697265625</AltitudeMeters>
            <DistanceMeters>NAN</DistanceMeters>
          </Trackpoint>
          <Trackpoint>
            <Time>2022-07-06T18:29:31.000Z</Time>
            <Position>
              <LatitudeDegrees>43.77323471009731292724609375</LatitudeDegrees>
              <LongitudeDegrees>-1.4133189618587493896484375</LongitudeDegrees>
            </Position>
            <AltitudeMeters>11.6000003814697265625</AltitudeMeters>
            <DistanceMeters>NAN</DistanceMeters>
          </Trackpoint>
          <Trackpoint>
            <Time>2022-07-06T18:29:32.000Z</Time>
            <Position>
              <LatitudeDegrees>43.77322104759514331817626953125</LatitudeDegrees>
              <LongitudeDegrees>-1.413342095911502838134765625</LongitudeDegrees>
            </Position>
            <AltitudeMeters>11.80000019073486328125</AltitudeMeters>
            <DistanceMeters>NAN</DistanceMeters>
          </Trackpoint>
          <Trackpoint>
            <Time>2022-07-06T18:29:37.000Z</Time>
            <Position>
              <LatitudeDegrees>43.77318399958312511444091796875</LatitudeDegrees>
              <LongitudeDegrees>-1.4134183712303638458251953125</LongitudeDegrees>
            </Position>
            <AltitudeMeters>12</AltitudeMeters>
            <DistanceMeters>NAN</DistanceMeters>
          </Trackpoint>
          <Trackpoint>
            <Time>2022-07-06T18:29:39.000Z</Time>
            <Position>
              <LatitudeDegrees>43.7731627933681011199951171875</LatitudeDegrees>
              <LongitudeDegrees>-1.41341811977326869964599609375</LongitudeDegrees>
            </Position>
            <AltitudeMeters>12</AltitudeMeters>
            <DistanceMeters>NAN</DistanceMeters>
          </Trackpoint>
          <Trackpoint>
            <Time>2022-07-06T18:29:40.000Z</Time>
            <Position>
              <LatitudeDegrees>43.7731577642261981964111328125</LatitudeDegrees>
              <LongitudeDegrees>-1.4134287647902965545654296875</LongitudeDegrees>
            </Position>
            <AltitudeMeters>12</AltitudeMeters>
            <DistanceMeters>NAN</DistanceMeters>
          </Trackpoint>
          <Trackpoint>
            <Time>2022-07-06T18:29:41.000Z</Time>
            <Position>
              <LatitudeDegrees>43.77315692603588104248046875</LatitudeDegrees>
              <LongitudeDegrees>-1.41345508396625518798828125</LongitudeDegrees>
            </Position>
            <AltitudeMeters>12</AltitudeMeters>
            <DistanceMeters>NAN</DistanceMeters>
          </Trackpoint>
          <Trackpoint>
            <Time>2022-07-06T18:29:43.000Z</Time>
            <Position>
              <LatitudeDegrees>43.77315617166459560394287109375</LatitudeDegrees>
              <LongitudeDegrees>-1.4134867675602436065673828125</LongitudeDegrees>
            </Position>
            <AltitudeMeters>12</AltitudeMeters>
            <DistanceMeters>NAN</DistanceMeters>
          </Trackpoint>
          <Trackpoint>
            <Time>2022-07-06T18:29:45.000Z</Time>
            <Position>
              <LatitudeDegrees>43.7731527350842952728271484375</LatitudeDegrees>
              <LongitudeDegrees>-1.41349934041500091552734375</LongitudeDegrees>
            </Position>
            <AltitudeMeters>12</AltitudeMeters>
            <DistanceMeters>NAN</DistanceMeters>
          </Trackpoint>
          <Trackpoint>
            <Time>2022-07-06T18:29:47.000Z</Time>
            <Position>
              <LatitudeDegrees>43.77316170372068881988525390625</LatitudeDegrees>
              <LongitudeDegrees>-1.41351015307009220123291015625</LongitudeDegrees>
            </Position>
            <AltitudeMeters>12</AltitudeMeters>
            <DistanceMeters>NAN</DistanceMeters>
          </Trackpoint>
          <Trackpoint>
            <Time>2022-07-06T18:29:48.000Z</Time>
            <Position>
              <LatitudeDegrees>43.77316790632903575897216796875</LatitudeDegrees>
              <LongitudeDegrees>-1.41352121718227863311767578125</LongitudeDegrees>
            </Position>
            <AltitudeMeters>12.19999980926513671875</AltitudeMeters>
            <DistanceMeters>NAN</DistanceMeters>
          </Trackpoint>
          <Trackpoint>
            <Time>2022-07-06T18:29:51.000Z</Time>
            <Position>
              <LatitudeDegrees>43.773163966834545135498046875</LatitudeDegrees>
              <LongitudeDegrees>-1.4135360531508922576904296875</LongitudeDegrees>
            </Position>
            <AltitudeMeters>12.19999980926513671875</AltitudeMeters>
            <DistanceMeters>NAN</DistanceMeters>
          </Trackpoint>
          <Trackpoint>
            <Time>2022-07-06T18:29:53.000Z</Time>
            <Position>
              <LatitudeDegrees>43.7731570936739444732666015625</LatitudeDegrees>
              <LongitudeDegrees>-1.4135658927261829376220703125</LongitudeDegrees>
            </Position>
            <AltitudeMeters>12.3999996185302734375</AltitudeMeters>
            <DistanceMeters>NAN</DistanceMeters>
          </Trackpoint>
          <Trackpoint>
            <Time>2022-07-06T18:29:58.000Z</Time>
            <Position>
              <LatitudeDegrees>43.773157261312007904052734375</LatitudeDegrees>
              <LongitudeDegrees>-1.4136416651308536529541015625</LongitudeDegrees>
            </Position>
            <AltitudeMeters>12.6000003814697265625</AltitudeMeters>
            <DistanceMeters>NAN</DistanceMeters>
          </Trackpoint>
          <Trackpoint>
            <Time>2022-07-06T18:29:59.000Z</Time>
            <Position>
              <LatitudeDegrees>43.7731584347784519195556640625</LatitudeDegrees>
              <LongitudeDegrees>-1.413655579090118408203125</LongitudeDegrees>
            </Position>
            <AltitudeMeters>12.6000003814697265625</AltitudeMeters>
            <DistanceMeters>NAN</DistanceMeters>
          </Trackpoint>
          <Trackpoint>
            <Time>2022-07-06T18:30:08.000Z</Time>
            <Position>
              <LatitudeDegrees>43.7731601111590862274169921875</LatitudeDegrees>
              <LongitudeDegrees>-1.41365633346140384674072265625</LongitudeDegrees>
            </Position>
            <AltitudeMeters>13</AltitudeMeters>
            <DistanceMeters>NAN</DistanceMeters>
          </Trackpoint>
          <Trackpoint>
            <Time>2022-07-06T18:30:12.000Z</Time>
            <Position>
              <LatitudeDegrees>43.773160278797149658203125</LatitudeDegrees>
              <LongitudeDegrees>-1.41365163959562778472900390625</LongitudeDegrees>
            </Position>
            <AltitudeMeters>12.80000019073486328125</AltitudeMeters>
            <DistanceMeters>NAN</DistanceMeters>
          </Trackpoint>
          <Trackpoint>
            <Time>2022-07-06T18:30:41.000Z</Time>
            <Position>
              <LatitudeDegrees>43.7731272540986537933349609375</LatitudeDegrees>
              <LongitudeDegrees>-1.4132131822407245635986328125</LongitudeDegrees>
            </Position>
            <AltitudeMeters>12.19999980926513671875</AltitudeMeters>
            <DistanceMeters>NAN</DistanceMeters>
          </Trackpoint>
          <Trackpoint>
            <Time>2022-07-06T18:30:42.000Z</Time>
            <Position>
              <LatitudeDegrees>43.77312834374606609344482421875</LatitudeDegrees>
              <LongitudeDegrees>-1.4132027886807918548583984375</LongitudeDegrees>
            </Position>
            <AltitudeMeters>12.19999980926513671875</AltitudeMeters>
            <DistanceMeters>NAN</DistanceMeters>
          </Trackpoint>
          <Trackpoint>
            <Time>2022-07-06T18:30:43.000Z</Time>
            <Position>
              <LatitudeDegrees>43.77312834374606609344482421875</LatitudeDegrees>
              <LongitudeDegrees>-1.4132027886807918548583984375</LongitudeDegrees>
            </Position>
            <AltitudeMeters>12</AltitudeMeters>
            <DistanceMeters>NAN</DistanceMeters>
          </Trackpoint>
          <Trackpoint>
            <Time>2022-07-06T18:30:48.000Z</Time>
            <Position>
              <LatitudeDegrees>43.7731410004198551177978515625</LatitudeDegrees>
              <LongitudeDegrees>-1.41318418085575103759765625</LongitudeDegrees>
            </Position>
            <AltitudeMeters>11.6000003814697265625</AltitudeMeters>
            <DistanceMeters>NAN</DistanceMeters>
          </Trackpoint>
          <Trackpoint>
            <Time>2022-07-06T18:30:50.000Z</Time>
            <Position>
              <LatitudeDegrees>43.7731500528752803802490234375</LatitudeDegrees>
              <LongitudeDegrees>-1.4131902158260345458984375</LongitudeDegrees>
            </Position>
            <AltitudeMeters>11.3999996185302734375</AltitudeMeters>
            <DistanceMeters>NAN</DistanceMeters>
          </Trackpoint>
          <Trackpoint>
            <Time>2022-07-06T18:30:54.000Z</Time>
            <Position>
              <LatitudeDegrees>43.7731631286442279815673828125</LatitudeDegrees>
              <LongitudeDegrees>-1.41317957080900669097900390625</LongitudeDegrees>
            </Position>
            <AltitudeMeters>11</AltitudeMeters>
            <DistanceMeters>NAN</DistanceMeters>
          </Trackpoint>
          <Trackpoint>
            <Time>2022-07-06T18:30:58.000Z</Time>
            <Position>
              <LatitudeDegrees>43.77318014390766620635986328125</LatitudeDegrees>
              <LongitudeDegrees>-1.41316968016326427459716796875</LongitudeDegrees>
            </Position>
            <AltitudeMeters>10.80000019073486328125</AltitudeMeters>
            <DistanceMeters>NAN</DistanceMeters>
          </Trackpoint>
          <Trackpoint>
            <Time>2022-07-06T18:31:10.000Z</Time>
            <Position>
              <LatitudeDegrees>43.7732499651610851287841796875</LatitudeDegrees>
              <LongitudeDegrees>-1.41324327327311038970947265625</LongitudeDegrees>
            </Position>
            <AltitudeMeters>10.19999980926513671875</AltitudeMeters>
            <DistanceMeters>NAN</DistanceMeters>
          </Trackpoint>
          <Trackpoint>
            <Time>2022-07-06T18:31:11.000Z</Time>
            <Position>
              <LatitudeDegrees>43.77326630987226963043212890625</LatitudeDegrees>
              <LongitudeDegrees>-1.4132597856223583221435546875</LongitudeDegrees>
            </Position>
            <AltitudeMeters>10</AltitudeMeters>
            <DistanceMeters>NAN</DistanceMeters>
          </Trackpoint>
          <Trackpoint>
            <Time>2022-07-06T18:31:13.000Z</Time>
            <Position>
              <LatitudeDegrees>43.773305118083953857421875</LatitudeDegrees>
              <LongitudeDegrees>-1.41327797435224056243896484375</LongitudeDegrees>
            </Position>
            <AltitudeMeters>10</AltitudeMeters>
            <DistanceMeters>NAN</DistanceMeters>
          </Trackpoint>
          <Trackpoint>
            <Time>2022-07-06T18:31:16.000Z</Time>
            <Position>
              <LatitudeDegrees>43.77331274561583995819091796875</LatitudeDegrees>
              <LongitudeDegrees>-1.4132775552570819854736328125</LongitudeDegrees>
            </Position>
            <AltitudeMeters>9.80000019073486328125</AltitudeMeters>
            <DistanceMeters>NAN</DistanceMeters>
          </Trackpoint>
          <Trackpoint>
            <Time>2022-07-06T18:31:18.000Z</Time>
            <Position>
              <LatitudeDegrees>43.77331274561583995819091796875</LatitudeDegrees>
              <LongitudeDegrees>-1.4132775552570819854736328125</LongitudeDegrees>
            </Position>
            <AltitudeMeters>9.6000003814697265625</AltitudeMeters>
            <DistanceMeters>NAN</DistanceMeters>
          </Trackpoint>
          <Trackpoint>
            <Time>2022-07-06T18:31:22.000Z</Time>
            <Position>
              <LatitudeDegrees>43.77336136065423488616943359375</LatitudeDegrees>
              <LongitudeDegrees>-1.41330412589013576507568359375</LongitudeDegrees>
            </Position>
            <AltitudeMeters>9.6000003814697265625</AltitudeMeters>
            <DistanceMeters>NAN</DistanceMeters>
          </Trackpoint>
          <Trackpoint>
            <Time>2022-07-06T18:31:24.000Z</Time>
            <Position>
              <LatitudeDegrees>43.7733860872685909271240234375</LatitudeDegrees>
              <LongitudeDegrees>-1.41332097351551055908203125</LongitudeDegrees>
            </Position>
            <AltitudeMeters>9.6000003814697265625</AltitudeMeters>
            <DistanceMeters>NAN</DistanceMeters>
          </Trackpoint>
          <Trackpoint>
            <Time>2022-07-06T18:31:33.000Z</Time>
            <Position>
              <LatitudeDegrees>43.77343763597309589385986328125</LatitudeDegrees>
              <LongitudeDegrees>-1.41336916945874691009521484375</LongitudeDegrees>
            </Position>
            <AltitudeMeters>9.80000019073486328125</AltitudeMeters>
            <DistanceMeters>NAN</DistanceMeters>
          </Trackpoint>
          <Trackpoint>
            <Time>2022-07-06T18:31:38.000Z</Time>
            <Position>
              <LatitudeDegrees>43.77349982969462871551513671875</LatitudeDegrees>
              <LongitudeDegrees>-1.41344795934855937957763671875</LongitudeDegrees>
            </Position>
            <AltitudeMeters>10.3999996185302734375</AltitudeMeters>
            <DistanceMeters>NAN</DistanceMeters>
          </Trackpoint>
          <Trackpoint>
            <Time>2022-07-06T18:31:39.000Z</Time>
            <Position>
              <LatitudeDegrees>43.773515336215496063232421875</LatitudeDegrees>
              <LongitudeDegrees>-1.413467489182949066162109375</LongitudeDegrees>
            </Position>
            <AltitudeMeters>10.6000003814697265625</AltitudeMeters>
            <DistanceMeters>NAN</DistanceMeters>
          </Trackpoint>
          <Trackpoint>
            <Time>2022-07-06T18:31:44.000Z</Time>
            <Position>
              <LatitudeDegrees>43.77354676835238933563232421875</LatitudeDegrees>
              <LongitudeDegrees>-1.41350361518561840057373046875</LongitudeDegrees>
            </Position>
            <AltitudeMeters>11</AltitudeMeters>
            <DistanceMeters>NAN</DistanceMeters>
          </Trackpoint>
          <Trackpoint>
            <Time>2022-07-06T18:31:45.000Z</Time>
            <Position>
              <LatitudeDegrees>43.77354676835238933563232421875</LatitudeDegrees>
              <LongitudeDegrees>-1.41350361518561840057373046875</LongitudeDegrees>
            </Position>
            <AltitudeMeters>11</AltitudeMeters>
            <DistanceMeters>NAN</DistanceMeters>
          </Trackpoint>
          <Trackpoint>
            <Time>2022-07-07T06:30:14.000Z</Time>
            <Position>
              <LatitudeDegrees>43.773642741143703460693359375</LatitudeDegrees>
              <LongitudeDegrees>-1.41444079577922821044921875</LongitudeDegrees>
            </Position>
            <AltitudeMeters>34.200000762939453125</AltitudeMeters>
            <DistanceMeters>NAN</DistanceMeters>
          </Trackpoint>
          <Trackpoint>
            <Time>2022-07-07T06:30:15.000Z</Time>
            <Position>
              <LatitudeDegrees>43.77364366315305233001708984375</LatitudeDegrees>
              <LongitudeDegrees>-1.41443719156086444854736328125</LongitudeDegrees>
            </Position>
            <AltitudeMeters>34.200000762939453125</AltitudeMeters>
            <DistanceMeters>NAN</DistanceMeters>
          </Trackpoint>
          <Trackpoint>
            <Time>2022-07-07T06:30:16.000Z</Time>
            <Position>
              <LatitudeDegrees>43.77364349551498889923095703125</LatitudeDegrees>
              <LongitudeDegrees>-1.4144319109618663787841796875</LongitudeDegrees>
            </Position>
            <AltitudeMeters>34.59999847412109375</AltitudeMeters>
            <DistanceMeters>NAN</DistanceMeters>
          </Trackpoint>
          <Trackpoint>
            <Time>2022-07-07T06:30:20.000Z</Time>
            <Position>
              <LatitudeDegrees>43.77363779582083225250244140625</LatitudeDegrees>
              <LongitudeDegrees>-1.41436946578323841094970703125</LongitudeDegrees>
            </Position>
            <AltitudeMeters>34.59999847412109375</AltitudeMeters>
            <DistanceMeters>NAN</DistanceMeters>
          </Trackpoint>
          <Trackpoint>
            <Time>2022-07-07T06:30:22.000Z</Time>
            <Position>
              <LatitudeDegrees>43.77362522296607494354248046875</LatitudeDegrees>
              <LongitudeDegrees>-1.41431682743132114410400390625</LongitudeDegrees>
            </Position>
            <AltitudeMeters>34.59999847412109375</AltitudeMeters>
            <DistanceMeters>NAN</DistanceMeters>
          </Trackpoint>
          <Trackpoint>
            <Time>2022-07-07T06:30:25.000Z</Time>
            <Position>
              <LatitudeDegrees>43.7736080400645732879638671875</LatitudeDegrees>
              <LongitudeDegrees>-1.414227224886417388916015625</LongitudeDegrees>
            </Position>
            <AltitudeMeters>33.59999847412109375</AltitudeMeters>
            <DistanceMeters>NAN</DistanceMeters>
          </Trackpoint>
          <Trackpoint>
            <Time>2022-07-07T06:30:27.000Z</Time>
            <Position>
              <LatitudeDegrees>43.77359454520046710968017578125</LatitudeDegrees>
              <LongitudeDegrees>-1.41416192986071109771728515625</LongitudeDegrees>
            </Position>
            <AltitudeMeters>33</AltitudeMeters>
            <DistanceMeters>NAN</DistanceMeters>
          </Trackpoint>
          <Trackpoint>
            <Time>2022-07-07T06:30:30.000Z</Time>
            <Position>
              <LatitudeDegrees>43.77359680831432342529296875</LatitudeDegrees>
              <LongitudeDegrees>-1.4140470139682292938232421875</LongitudeDegrees>
            </Position>
            <AltitudeMeters>32.40000152587890625</AltitudeMeters>
            <DistanceMeters>NAN</DistanceMeters>
          </Trackpoint>
          <Trackpoint>
            <Time>2022-07-07T06:30:33.000Z</Time>
            <Position>
              <LatitudeDegrees>43.773601166903972625732421875</LatitudeDegrees>
              <LongitudeDegrees>-1.41396227292716503143310546875</LongitudeDegrees>
            </Position>
            <AltitudeMeters>32.200000762939453125</AltitudeMeters>
            <DistanceMeters>NAN</DistanceMeters>
          </Trackpoint>
          <Trackpoint>
            <Time>2022-07-07T06:30:37.000Z</Time>
            <Position>
              <LatitudeDegrees>43.77359253354370594024658203125</LatitudeDegrees>
              <LongitudeDegrees>-1.41389521770179271697998046875</LongitudeDegrees>
            </Position>
            <AltitudeMeters>31.799999237060546875</AltitudeMeters>
            <DistanceMeters>NAN</DistanceMeters>
          </Trackpoint>
          <Trackpoint>
            <Time>2022-07-07T06:30:38.000Z</Time>
            <Position>
              <LatitudeDegrees>43.77360074780881404876708984375</LatitudeDegrees>
              <LongitudeDegrees>-1.41388616524636745452880859375</LongitudeDegrees>
            </Position>
            <AltitudeMeters>31.799999237060546875</AltitudeMeters>
            <DistanceMeters>NAN</DistanceMeters>
          </Trackpoint>
          <Trackpoint>
            <Time>2022-07-07T06:30:48.000Z</Time>
            <Position>
              <LatitudeDegrees>43.77359990961849689483642578125</LatitudeDegrees>
              <LongitudeDegrees>-1.41380134038627147674560546875</LongitudeDegrees>
            </Position>
            <AltitudeMeters>31.6000003814697265625</AltitudeMeters>
            <DistanceMeters>NAN</DistanceMeters>
          </Trackpoint>
          <Trackpoint>
            <Time>2022-07-07T06:30:49.000Z</Time>
            <Position>
              <LatitudeDegrees>43.7735926173627376556396484375</LatitudeDegrees>
              <LongitudeDegrees>-1.41379572451114654541015625</LongitudeDegrees>
            </Position>
            <AltitudeMeters>31.3999996185302734375</AltitudeMeters>
            <DistanceMeters>NAN</DistanceMeters>
          </Trackpoint>
          <Trackpoint>
            <Time>2022-07-07T06:30:50.000Z</Time>
            <Position>
              <LatitudeDegrees>43.77358968369662761688232421875</LatitudeDegrees>
              <LongitudeDegrees>-1.41378440894186496734619140625</LongitudeDegrees>
            </Position>
            <AltitudeMeters>31.3999996185302734375</AltitudeMeters>
            <DistanceMeters>NAN</DistanceMeters>
          </Trackpoint>
          <Trackpoint>
            <Time>2022-07-07T06:30:57.000Z</Time>
            <Position>
              <LatitudeDegrees>43.77355665899813175201416015625</LatitudeDegrees>
              <LongitudeDegrees>-1.41361610032618045806884765625</LongitudeDegrees>
            </Position>
            <AltitudeMeters>30.799999237060546875</AltitudeMeters>
            <DistanceMeters>NAN</DistanceMeters>
          </Trackpoint>
          <Trackpoint>
            <Time>2022-07-07T06:30:59.000Z</Time>
            <Position>
              <LatitudeDegrees>43.77351910807192325592041015625</LatitudeDegrees>
              <LongitudeDegrees>-1.4135662280023097991943359375</LongitudeDegrees>
            </Position>
            <AltitudeMeters>30.200000762939453125</AltitudeMeters>
            <DistanceMeters>NAN</DistanceMeters>
          </Trackpoint>
          <Trackpoint>
            <Time>2022-07-07T06:31:02.000Z</Time>
            <Position>
              <LatitudeDegrees>43.77348440699279308319091796875</LatitudeDegrees>
              <LongitudeDegrees>-1.41349556855857372283935546875</LongitudeDegrees>
            </Position>
            <AltitudeMeters>29.6000003814697265625</AltitudeMeters>
            <DistanceMeters>NAN</DistanceMeters>
          </Trackpoint>
          <Trackpoint>
            <Time>2022-07-07T06:31:03.000Z</Time>
            <Position>
              <LatitudeDegrees>43.77346529625356197357177734375</LatitudeDegrees>
              <LongitudeDegrees>-1.41345416195690631866455078125</LongitudeDegrees>
            </Position>
            <AltitudeMeters>29.200000762939453125</AltitudeMeters>
            <DistanceMeters>NAN</DistanceMeters>
          </Trackpoint>
          <Trackpoint>
            <Time>2022-07-07T06:31:47.000Z</Time>
            <Position>
              <LatitudeDegrees>43.77324812114238739013671875</LatitudeDegrees>
              <LongitudeDegrees>-1.4132081530988216400146484375</LongitudeDegrees>
            </Position>
            <AltitudeMeters>30</AltitudeMeters>
            <DistanceMeters>NAN</DistanceMeters>
          </Trackpoint>
          <Trackpoint>
            <Time>2022-07-07T06:31:49.000Z</Time>
            <Position>
              <LatitudeDegrees>43.77322104759514331817626953125</LatitudeDegrees>
              <LongitudeDegrees>-1.41320387832820415496826171875</LongitudeDegrees>
            </Position>
            <AltitudeMeters>30.200000762939453125</AltitudeMeters>
            <DistanceMeters>NAN</DistanceMeters>
          </Trackpoint>
          <Trackpoint>
            <Time>2022-07-07T06:31:51.000Z</Time>
            <Position>
              <LatitudeDegrees>43.7731634639203548431396484375</LatitudeDegrees>
              <LongitudeDegrees>-1.413199268281459808349609375</LongitudeDegrees>
            </Position>
            <AltitudeMeters>30.6000003814697265625</AltitudeMeters>
            <DistanceMeters>NAN</DistanceMeters>
          </Trackpoint>
          <Trackpoint>
            <Time>2022-07-07T06:31:53.000Z</Time>
            <Position>
              <LatitudeDegrees>43.7731420062482357025146484375</LatitudeDegrees>
              <LongitudeDegrees>-1.413167417049407958984375</LongitudeDegrees>
            </Position>
            <AltitudeMeters>30.6000003814697265625</AltitudeMeters>
            <DistanceMeters>NAN</DistanceMeters>
          </Trackpoint>
          <Trackpoint>
            <Time>2022-07-07T06:31:55.000Z</Time>
            <Position>
              <LatitudeDegrees>43.77313102595508098602294921875</LatitudeDegrees>
              <LongitudeDegrees>-1.4131419360637664794921875</LongitudeDegrees>
            </Position>
            <AltitudeMeters>30.6000003814697265625</AltitudeMeters>
            <DistanceMeters>NAN</DistanceMeters>
          </Trackpoint>
          <Trackpoint>
            <Time>2022-07-07T06:31:58.000Z</Time>
            <Position>
              <LatitudeDegrees>43.77310730516910552978515625</LatitudeDegrees>
              <LongitudeDegrees>-1.4130602963268756866455078125</LongitudeDegrees>
            </Position>
            <AltitudeMeters>30.799999237060546875</AltitudeMeters>
            <DistanceMeters>NAN</DistanceMeters>
          </Trackpoint>
          <Trackpoint>
            <Time>2022-07-07T06:32:00.000Z</Time>
            <Position>
              <LatitudeDegrees>43.773080147802829742431640625</LatitudeDegrees>
              <LongitudeDegrees>-1.413006149232387542724609375</LongitudeDegrees>
            </Position>
            <AltitudeMeters>30.799999237060546875</AltitudeMeters>
            <DistanceMeters>NAN</DistanceMeters>
          </Trackpoint>
          <Trackpoint>
            <Time>2022-07-07T06:32:01.000Z</Time>
            <Position>
              <LatitudeDegrees>43.77307184971868991851806640625</LatitudeDegrees>
              <LongitudeDegrees>-1.41297522000968456268310546875</LongitudeDegrees>
            </Position>
            <AltitudeMeters>30.799999237060546875</AltitudeMeters>
            <DistanceMeters>NAN</DistanceMeters>
          </Trackpoint>
          <Trackpoint>
            <Time>2022-07-07T06:32:04.000Z</Time>
            <Position>
              <LatitudeDegrees>43.77302491106092929840087890625</LatitudeDegrees>
              <LongitudeDegrees>-1.4128745533525943756103515625</LongitudeDegrees>
            </Position>
            <AltitudeMeters>31</AltitudeMeters>
            <DistanceMeters>NAN</DistanceMeters>
          </Trackpoint>
          <Trackpoint>
            <Time>2022-07-07T06:32:05.000Z</Time>
            <Position>
              <LatitudeDegrees>43.77301904372870922088623046875</LatitudeDegrees>
              <LongitudeDegrees>-1.41285385005176067352294921875</LongitudeDegrees>
            </Position>
            <AltitudeMeters>31</AltitudeMeters>
            <DistanceMeters>NAN</DistanceMeters>
          </Trackpoint>
          <Trackpoint>
            <Time>2022-07-07T06:32:07.000Z</Time>
            <Position>
              <LatitudeDegrees>43.7730146013200283050537109375</LatitudeDegrees>
              <LongitudeDegrees>-1.412835158407688140869140625</LongitudeDegrees>
            </Position>
            <AltitudeMeters>31</AltitudeMeters>
            <DistanceMeters>NAN</DistanceMeters>
          </Trackpoint>
          <Trackpoint>
            <Time>2022-07-07T06:32:09.000Z</Time>
            <Position>
              <LatitudeDegrees>43.7730072252452373504638671875</LatitudeDegrees>
              <LongitudeDegrees>-1.41281914897263050079345703125</LongitudeDegrees>
            </Position>
            <AltitudeMeters>31.200000762939453125</AltitudeMeters>
            <DistanceMeters>NAN</DistanceMeters>
          </Trackpoint>
          <Trackpoint>
            <Time>2022-07-07T06:32:11.000Z</Time>
            <Position>
              <LatitudeDegrees>43.773007728159427642822265625</LatitudeDegrees>
              <LongitudeDegrees>-1.4127867110073566436767578125</LongitudeDegrees>
            </Position>
            <AltitudeMeters>31.200000762939453125</AltitudeMeters>
            <DistanceMeters>NAN</DistanceMeters>
          </Trackpoint>
          <Trackpoint>
            <Time>2022-07-07T06:32:16.000Z</Time>
            <Position>
              <LatitudeDegrees>43.7729797326028347015380859375</LatitudeDegrees>
              <LongitudeDegrees>-1.41275427304208278656005859375</LongitudeDegrees>
            </Position>
            <AltitudeMeters>31.6000003814697265625</AltitudeMeters>
            <DistanceMeters>NAN</DistanceMeters>
          </Trackpoint>
          <Trackpoint>
            <Time>2022-07-07T06:32:19.000Z</Time>
            <Position>
              <LatitudeDegrees>43.7729730270802974700927734375</LatitudeDegrees>
              <LongitudeDegrees>-1.4127511717379093170166015625</LongitudeDegrees>
            </Position>
            <AltitudeMeters>31.6000003814697265625</AltitudeMeters>
            <DistanceMeters>NAN</DistanceMeters>
          </Trackpoint>
          <Trackpoint>
            <Time>2022-07-07T06:32:32.000Z</Time>
            <Position>
              <LatitudeDegrees>43.7729854322969913482666015625</LatitudeDegrees>
              <LongitudeDegrees>-1.4125852100551128387451171875</LongitudeDegrees>
            </Position>
            <AltitudeMeters>32.200000762939453125</AltitudeMeters>
            <DistanceMeters>NAN</DistanceMeters>
          </Trackpoint>
          <Trackpoint>
            <Time>2022-07-07T06:32:33.000Z</Time>
            <Position>
              <LatitudeDegrees>43.77298182807862758636474609375</LatitudeDegrees>
              <LongitudeDegrees>-1.4125692844390869140625</LongitudeDegrees>
            </Position>
            <AltitudeMeters>32.200000762939453125</AltitudeMeters>
            <DistanceMeters>NAN</DistanceMeters>
          </Trackpoint>
          <Trackpoint>
            <Time>2022-07-07T06:32:35.000Z</Time>
            <Position>
              <LatitudeDegrees>43.77297478727996349334716796875</LatitudeDegrees>
              <LongitudeDegrees>-1.41254589892923831939697265625</LongitudeDegrees>
            </Position>
            <AltitudeMeters>32.200000762939453125</AltitudeMeters>
            <DistanceMeters>NAN</DistanceMeters>
          </Trackpoint>
          <Trackpoint>
            <Time>2022-07-07T06:32:37.000Z</Time>
            <Position>
              <LatitudeDegrees>43.77297713421285152435302734375</LatitudeDegrees>
              <LongitudeDegrees>-1.4125357568264007568359375</LongitudeDegrees>
            </Position>
            <AltitudeMeters>32.40000152587890625</AltitudeMeters>
            <DistanceMeters>NAN</DistanceMeters>
          </Trackpoint>
          <Trackpoint>
            <Time>2022-07-07T06:32:39.000Z</Time>
            <Position>
              <LatitudeDegrees>43.7729804031550884246826171875</LatitudeDegrees>
              <LongitudeDegrees>-1.4125278778374195098876953125</LongitudeDegrees>
            </Position>
            <AltitudeMeters>32.40000152587890625</AltitudeMeters>
            <DistanceMeters>NAN</DistanceMeters>
          </Trackpoint>
          <Trackpoint>
            <Time>2022-07-07T06:32:55.000Z</Time>
            <Position>
              <LatitudeDegrees>43.77295098267495632171630859375</LatitudeDegrees>
              <LongitudeDegrees>-1.41242109239101409912109375</LongitudeDegrees>
            </Position>
            <AltitudeMeters>33</AltitudeMeters>
            <DistanceMeters>NAN</DistanceMeters>
          </Trackpoint>
          <Trackpoint>
            <Time>2022-07-07T06:32:57.000Z</Time>
            <Position>
              <LatitudeDegrees>43.7729773856699466705322265625</LatitudeDegrees>
              <LongitudeDegrees>-1.412391252815723419189453125</LongitudeDegrees>
            </Position>
            <AltitudeMeters>33</AltitudeMeters>
            <DistanceMeters>NAN</DistanceMeters>
          </Trackpoint>
          <Trackpoint>
            <Time>2022-07-07T06:33:00.000Z</Time>
            <Position>
              <LatitudeDegrees>43.7730236537754535675048828125</LatitudeDegrees>
              <LongitudeDegrees>-1.412359066307544708251953125</LongitudeDegrees>
            </Position>
            <AltitudeMeters>32.799999237060546875</AltitudeMeters>
            <DistanceMeters>NAN</DistanceMeters>
          </Trackpoint>
          <Trackpoint>
            <Time>2022-07-07T06:33:02.000Z</Time>
            <Position>
              <LatitudeDegrees>43.77303262241184711456298828125</LatitudeDegrees>
              <LongitudeDegrees>-1.41235596500337123870849609375</LongitudeDegrees>
            </Position>
            <AltitudeMeters>32.59999847412109375</AltitudeMeters>
            <DistanceMeters>NAN</DistanceMeters>
          </Trackpoint>
          <Trackpoint>
            <Time>2022-07-07T06:33:03.000Z</Time>
            <Position>
              <LatitudeDegrees>43.77303597517311573028564453125</LatitudeDegrees>
              <LongitudeDegrees>-1.41235412098467350006103515625</LongitudeDegrees>
            </Position>
            <AltitudeMeters>32.59999847412109375</AltitudeMeters>
            <DistanceMeters>NAN</DistanceMeters>
          </Trackpoint>
          <Trackpoint>
            <Time>2022-07-07T06:34:14.000Z</Time>
            <Position>
              <LatitudeDegrees>43.77312180586159229278564453125</LatitudeDegrees>
              <LongitudeDegrees>-1.41233517788350582122802734375</LongitudeDegrees>
            </Position>
            <AltitudeMeters>31.799999237060546875</AltitudeMeters>
            <DistanceMeters>NAN</DistanceMeters>
          </Trackpoint>
          <Trackpoint>
            <Time>2022-07-07T06:34:17.000Z</Time>
            <Position>
              <LatitudeDegrees>43.77318508923053741455078125</LatitudeDegrees>
              <LongitudeDegrees>-1.412299387156963348388671875</LongitudeDegrees>
            </Position>
            <AltitudeMeters>31.799999237060546875</AltitudeMeters>
            <DistanceMeters>NAN</DistanceMeters>
          </Trackpoint>
          <Trackpoint>
            <Time>2022-07-07T06:34:21.000Z</Time>
            <Position>
              <LatitudeDegrees>43.77324971370398998260498046875</LatitudeDegrees>
              <LongitudeDegrees>-1.4122636802494525909423828125</LongitudeDegrees>
            </Position>
            <AltitudeMeters>31.200000762939453125</AltitudeMeters>
            <DistanceMeters>NAN</DistanceMeters>
          </Trackpoint>
          <Trackpoint>
            <Time>2022-07-07T06:34:22.000Z</Time>
            <Position>
              <LatitudeDegrees>43.77324401400983333587646484375</LatitudeDegrees>
              <LongitudeDegrees>-1.4122589863836765289306640625</LongitudeDegrees>
            </Position>
            <AltitudeMeters>31.200000762939453125</AltitudeMeters>
            <DistanceMeters>NAN</DistanceMeters>
          </Trackpoint>
          <Trackpoint>
            <Time>2022-07-07T06:34:26.000Z</Time>
            <Position>
              <LatitudeDegrees>43.773243092000484466552734375</LatitudeDegrees>
              <LongitudeDegrees>-1.41221615485846996307373046875</LongitudeDegrees>
            </Position>
            <AltitudeMeters>30.799999237060546875</AltitudeMeters>
            <DistanceMeters>NAN</DistanceMeters>
          </Trackpoint>
          <Trackpoint>
            <Time>2022-07-07T06:35:32.000Z</Time>
            <Position>
              <LatitudeDegrees>43.77332565374672412872314453125</LatitudeDegrees>
              <LongitudeDegrees>-1.41214490868151187896728515625</LongitudeDegrees>
            </Position>
            <AltitudeMeters>30.799999237060546875</AltitudeMeters>
            <DistanceMeters>NAN</DistanceMeters>
          </Trackpoint>
          <Trackpoint>
            <Time>2022-07-07T06:35:33.000Z</Time>
            <Position>
              <LatitudeDegrees>43.7733468599617481231689453125</LatitudeDegrees>
              <LongitudeDegrees>-1.412144489586353302001953125</LongitudeDegrees>
            </Position>
            <AltitudeMeters>30.6000003814697265625</AltitudeMeters>
            <DistanceMeters>NAN</DistanceMeters>
          </Trackpoint>
          <Trackpoint>
            <Time>2022-07-07T06:35:36.000Z</Time>
            <Position>
              <LatitudeDegrees>43.7734217941761016845703125</LatitudeDegrees>
              <LongitudeDegrees>-1.4121231995522975921630859375</LongitudeDegrees>
            </Position>
            <AltitudeMeters>30.6000003814697265625</AltitudeMeters>
            <DistanceMeters>NAN</DistanceMeters>
          </Trackpoint>
          <Trackpoint>
            <Time>2022-07-07T06:35:39.000Z</Time>
            <Position>
              <LatitudeDegrees>43.773488514125347137451171875</LatitudeDegrees>
              <LongitudeDegrees>-1.41209629364311695098876953125</LongitudeDegrees>
            </Position>
            <AltitudeMeters>30.6000003814697265625</AltitudeMeters>
            <DistanceMeters>NAN</DistanceMeters>
          </Trackpoint>
          <Trackpoint>
            <Time>2022-07-07T06:35:40.000Z</Time>
            <Position>
              <LatitudeDegrees>43.77350217662751674652099609375</LatitudeDegrees>
              <LongitudeDegrees>-1.41208657063543796539306640625</LongitudeDegrees>
            </Position>
            <AltitudeMeters>30.6000003814697265625</AltitudeMeters>
            <DistanceMeters>NAN</DistanceMeters>
          </Trackpoint>
          <Trackpoint>
            <Time>2022-07-07T06:35:44.000Z</Time>
            <Position>
              <LatitudeDegrees>43.7735859118402004241943359375</LatitudeDegrees>
              <LongitudeDegrees>-1.41198045574128627777099609375</LongitudeDegrees>
            </Position>
            <AltitudeMeters>30.6000003814697265625</AltitudeMeters>
            <DistanceMeters>NAN</DistanceMeters>
          </Trackpoint>
          <Trackpoint>
            <Time>2022-07-07T06:35:49.000Z</Time>
            <Position>
              <LatitudeDegrees>43.7736901827156543731689453125</LatitudeDegrees>
              <LongitudeDegrees>-1.4118325151503086090087890625</LongitudeDegrees>
            </Position>
            <AltitudeMeters>31</AltitudeMeters>
            <DistanceMeters>NAN</DistanceMeters>
          </Trackpoint>
          <Trackpoint>
            <Time>2022-07-07T06:35:50.000Z</Time>
            <Position>
              <LatitudeDegrees>43.77370283938944339752197265625</LatitudeDegrees>
              <LongitudeDegrees>-1.4117874205112457275390625</LongitudeDegrees>
            </Position>
            <AltitudeMeters>31</AltitudeMeters>
            <DistanceMeters>NAN</DistanceMeters>
          </Trackpoint>
          <Trackpoint>
            <Time>2022-07-07T06:35:53.000Z</Time>
            <Position>
              <LatitudeDegrees>43.77370535396039485931396484375</LatitudeDegrees>
              <LongitudeDegrees>-1.4116665534675121307373046875</LongitudeDegrees>
            </Position>
            <AltitudeMeters>30.799999237060546875</AltitudeMeters>
            <DistanceMeters>NAN</DistanceMeters>
          </Trackpoint>
          <Trackpoint>
            <Time>2022-07-07T06:36:00.000Z</Time>
            <Position>
              <LatitudeDegrees>43.77366629429161548614501953125</LatitudeDegrees>
              <LongitudeDegrees>-1.4113785512745380401611328125</LongitudeDegrees>
            </Position>
            <AltitudeMeters>31</AltitudeMeters>
            <DistanceMeters>NAN</DistanceMeters>
          </Trackpoint>
          <Trackpoint>
            <Time>2022-07-07T06:36:01.000Z</Time>
            <Position>
              <LatitudeDegrees>43.77365925349295139312744140625</LatitudeDegrees>
              <LongitudeDegrees>-1.4113306067883968353271484375</LongitudeDegrees>
            </Position>
            <AltitudeMeters>31</AltitudeMeters>
            <DistanceMeters>NAN</DistanceMeters>
          </Trackpoint>
          <Trackpoint>
            <Time>2022-07-07T06:36:06.000Z</Time>
            <Position>
              <LatitudeDegrees>43.77363729290664196014404296875</LatitudeDegrees>
              <LongitudeDegrees>-1.41113371588289737701416015625</LongitudeDegrees>
            </Position>
            <AltitudeMeters>31</AltitudeMeters>
            <DistanceMeters>NAN</DistanceMeters>
          </Trackpoint>
          <Trackpoint>
            <Time>2022-07-07T06:36:08.000Z</Time>
            <Position>
              <LatitudeDegrees>43.7736365385353565216064453125</LatitudeDegrees>
              <LongitudeDegrees>-1.41104704700410366058349609375</LongitudeDegrees>
            </Position>
            <AltitudeMeters>31</AltitudeMeters>
            <DistanceMeters>NAN</DistanceMeters>
          </Trackpoint>
          <Trackpoint>
            <Time>2022-07-07T06:36:14.000Z</Time>
            <Position>
              <LatitudeDegrees>43.7736744247376918792724609375</LatitudeDegrees>
              <LongitudeDegrees>-1.4107931591570377349853515625</LongitudeDegrees>
            </Position>
            <AltitudeMeters>31</AltitudeMeters>
            <DistanceMeters>NAN</DistanceMeters>
          </Trackpoint>
          <Trackpoint>
            <Time>2022-07-07T06:36:20.000Z</Time>
            <Position>
              <LatitudeDegrees>43.7737743370234966278076171875</LatitudeDegrees>
              <LongitudeDegrees>-1.410501301288604736328125</LongitudeDegrees>
            </Position>
            <AltitudeMeters>30.6000003814697265625</AltitudeMeters>
            <DistanceMeters>NAN</DistanceMeters>
          </Trackpoint>
          <Trackpoint>
            <Time>2022-07-07T06:36:23.000Z</Time>
            <Position>
              <LatitudeDegrees>43.7738058529794216156005859375</LatitudeDegrees>
              <LongitudeDegrees>-1.41032218001782894134521484375</LongitudeDegrees>
            </Position>
            <AltitudeMeters>30.200000762939453125</AltitudeMeters>
            <DistanceMeters>NAN</DistanceMeters>
          </Trackpoint>
          <Trackpoint>
            <Time>2022-07-07T06:36:24.000Z</Time>
            <Position>
              <LatitudeDegrees>43.773808367550373077392578125</LatitudeDegrees>
              <LongitudeDegrees>-1.4102583937346935272216796875</LongitudeDegrees>
            </Position>
            <AltitudeMeters>30</AltitudeMeters>
            <DistanceMeters>NAN</DistanceMeters>
          </Trackpoint>
          <Trackpoint>
            <Time>2022-07-07T06:36:25.000Z</Time>
            <Position>
              <LatitudeDegrees>43.7738088704645633697509765625</LatitudeDegrees>
              <LongitudeDegrees>-1.4101933501660823822021484375</LongitudeDegrees>
            </Position>
            <AltitudeMeters>30</AltitudeMeters>
            <DistanceMeters>NAN</DistanceMeters>
          </Trackpoint>
          <Trackpoint>
            <Time>2022-07-07T06:36:31.000Z</Time>
            <Position>
              <LatitudeDegrees>43.77374927513301372528076171875</LatitudeDegrees>
              <LongitudeDegrees>-1.409754641354084014892578125</LongitudeDegrees>
            </Position>
            <AltitudeMeters>29.200000762939453125</AltitudeMeters>
            <DistanceMeters>NAN</DistanceMeters>
          </Trackpoint>
          <Trackpoint>
            <Time>2022-07-07T06:36:32.000Z</Time>
            <Position>
              <LatitudeDegrees>43.7737382948398590087890625</LatitudeDegrees>
              <LongitudeDegrees>-1.4096968062222003936767578125</LongitudeDegrees>
            </Position>
            <AltitudeMeters>29.200000762939453125</AltitudeMeters>
            <DistanceMeters>NAN</DistanceMeters>
          </Trackpoint>
          <Trackpoint>
            <Time>2022-07-07T06:36:37.000Z</Time>
            <Position>
              <LatitudeDegrees>43.77363746054470539093017578125</LatitudeDegrees>
              <LongitudeDegrees>-1.4093937166035175323486328125</LongitudeDegrees>
            </Position>
            <AltitudeMeters>29.200000762939453125</AltitudeMeters>
            <DistanceMeters>NAN</DistanceMeters>
          </Trackpoint>
          <Trackpoint>
            <Time>2022-07-07T06:36:46.000Z</Time>
            <Position>
              <LatitudeDegrees>43.77344660460948944091796875</LatitudeDegrees>
              <LongitudeDegrees>-1.408928520977497100830078125</LongitudeDegrees>
            </Position>
            <AltitudeMeters>29.200000762939453125</AltitudeMeters>
            <DistanceMeters>NAN</DistanceMeters>
          </Trackpoint>
          <Trackpoint>
            <Time>2022-07-07T06:36:49.000Z</Time>
            <Position>
              <LatitudeDegrees>43.77338315360248088836669921875</LatitudeDegrees>
              <LongitudeDegrees>-1.40879348851740360260009765625</LongitudeDegrees>
            </Position>
            <AltitudeMeters>29</AltitudeMeters>
            <DistanceMeters>NAN</DistanceMeters>
          </Trackpoint>
          <Trackpoint>
            <Time>2022-07-07T06:36:55.000Z</Time>
            <Position>
              <LatitudeDegrees>43.7732375599443912506103515625</LatitudeDegrees>
              <LongitudeDegrees>-1.40856784768402576446533203125</LongitudeDegrees>
            </Position>
            <AltitudeMeters>28.799999237060546875</AltitudeMeters>
            <DistanceMeters>NAN</DistanceMeters>
          </Trackpoint>
          <Trackpoint>
            <Time>2022-07-07T06:37:03.000Z</Time>
            <Position>
              <LatitudeDegrees>43.77303354442119598388671875</LatitudeDegrees>
              <LongitudeDegrees>-1.408280096948146820068359375</LongitudeDegrees>
            </Position>
            <AltitudeMeters>28.6000003814697265625</AltitudeMeters>
            <DistanceMeters>NAN</DistanceMeters>
          </Trackpoint>
          <Trackpoint>
            <Time>2022-07-07T06:37:04.000Z</Time>
            <Position>
              <LatitudeDegrees>43.77301267348229885101318359375</LatitudeDegrees>
              <LongitudeDegrees>-1.40824011527001857757568359375</LongitudeDegrees>
            </Position>
            <AltitudeMeters>28.6000003814697265625</AltitudeMeters>
            <DistanceMeters>NAN</DistanceMeters>
          </Trackpoint>
          <Trackpoint>
            <Time>2022-07-07T06:37:05.000Z</Time>
            <Position>
              <LatitudeDegrees>43.7729928083717823028564453125</LatitudeDegrees>
              <LongitudeDegrees>-1.40819988213479518890380859375</LongitudeDegrees>
            </Position>
            <AltitudeMeters>28.3999996185302734375</AltitudeMeters>
            <DistanceMeters>NAN</DistanceMeters>
          </Trackpoint>
          <Trackpoint>
            <Time>2022-07-07T06:37:10.000Z</Time>
            <Position>
              <LatitudeDegrees>43.77295416779816150665283203125</LatitudeDegrees>
              <LongitudeDegrees>-1.40797809697687625885009765625</LongitudeDegrees>
            </Position>
            <AltitudeMeters>28.200000762939453125</AltitudeMeters>
            <DistanceMeters>NAN</DistanceMeters>
          </Trackpoint>
          <Trackpoint>
            <Time>2022-07-07T06:37:14.000Z</Time>
            <Position>
              <LatitudeDegrees>43.773005045950412750244140625</LatitudeDegrees>
              <LongitudeDegrees>-1.407812051475048065185546875</LongitudeDegrees>
            </Position>
            <AltitudeMeters>28</AltitudeMeters>
            <DistanceMeters>NAN</DistanceMeters>
          </Trackpoint>
          <Trackpoint>
            <Time>2022-07-07T06:37:15.000Z</Time>
            <Position>
              <LatitudeDegrees>43.7730223126709461212158203125</LatitudeDegrees>
              <LongitudeDegrees>-1.40776955522596836090087890625</LongitudeDegrees>
            </Position>
            <AltitudeMeters>28</AltitudeMeters>
            <DistanceMeters>NAN</DistanceMeters>
          </Trackpoint>
          <Trackpoint>
            <Time>2022-07-07T06:37:20.000Z</Time>
            <Position>
              <LatitudeDegrees>43.77315281890332698822021484375</LatitudeDegrees>
              <LongitudeDegrees>-1.4076412282884120941162109375</LongitudeDegrees>
            </Position>
            <AltitudeMeters>27.799999237060546875</AltitudeMeters>
            <DistanceMeters>NAN</DistanceMeters>
          </Trackpoint>
          <Trackpoint>
            <Time>2022-07-07T06:37:29.000Z</Time>
            <Position>
              <LatitudeDegrees>43.773447610437870025634765625</LatitudeDegrees>
              <LongitudeDegrees>-1.4075148291885852813720703125</LongitudeDegrees>
            </Position>
            <AltitudeMeters>28</AltitudeMeters>
            <DistanceMeters>NAN</DistanceMeters>
          </Trackpoint>
          <Trackpoint>
            <Time>2022-07-07T06:37:38.000Z</Time>
            <Position>
              <LatitudeDegrees>43.773725889623165130615234375</LatitudeDegrees>
              <LongitudeDegrees>-1.40747350640594959259033203125</LongitudeDegrees>
            </Position>
            <AltitudeMeters>27.799999237060546875</AltitudeMeters>
            <DistanceMeters>NAN</DistanceMeters>
          </Trackpoint>
          <Trackpoint>
            <Time>2022-07-07T06:37:43.000Z</Time>
            <Position>
              <LatitudeDegrees>43.77386779524385929107666015625</LatitudeDegrees>
              <LongitudeDegrees>-1.407449953258037567138671875</LongitudeDegrees>
            </Position>
            <AltitudeMeters>28.200000762939453125</AltitudeMeters>
            <DistanceMeters>NAN</DistanceMeters>
          </Trackpoint>
          <Trackpoint>
            <Time>2022-07-07T06:37:49.000Z</Time>
            <Position>
              <LatitudeDegrees>43.77406418323516845703125</LatitudeDegrees>
              <LongitudeDegrees>-1.40737560577690601348876953125</LongitudeDegrees>
            </Position>
            <AltitudeMeters>28.3999996185302734375</AltitudeMeters>
            <DistanceMeters>NAN</DistanceMeters>
          </Trackpoint>
          <Trackpoint>
            <Time>2022-07-07T06:37:57.000Z</Time>
            <Position>
              <LatitudeDegrees>43.77430466003715991973876953125</LatitudeDegrees>
              <LongitudeDegrees>-1.4073062874376773834228515625</LongitudeDegrees>
            </Position>
            <AltitudeMeters>28.3999996185302734375</AltitudeMeters>
            <DistanceMeters>NAN</DistanceMeters>
          </Trackpoint>
          <Trackpoint>
            <Time>2022-07-07T06:37:58.000Z</Time>
            <Position>
              <LatitudeDegrees>43.77433232031762599945068359375</LatitudeDegrees>
              <LongitudeDegrees>-1.4072945527732372283935546875</LongitudeDegrees>
            </Position>
            <AltitudeMeters>28.3999996185302734375</AltitudeMeters>
            <DistanceMeters>NAN</DistanceMeters>
          </Trackpoint>
          <Trackpoint>
            <Time>2022-07-07T06:38:06.000Z</Time>
            <Position>
              <LatitudeDegrees>43.77457849681377410888671875</LatitudeDegrees>
              <LongitudeDegrees>-1.40718877315521240234375</LongitudeDegrees>
            </Position>
            <AltitudeMeters>27.799999237060546875</AltitudeMeters>
            <DistanceMeters>NAN</DistanceMeters>
          </Trackpoint>
          <Trackpoint>
            <Time>2022-07-07T06:38:10.000Z</Time>
            <Position>
              <LatitudeDegrees>43.77461914904415607452392578125</LatitudeDegrees>
              <LongitudeDegrees>-1.407202184200286865234375</LongitudeDegrees>
            </Position>
            <AltitudeMeters>27.799999237060546875</AltitudeMeters>
            <DistanceMeters>NAN</DistanceMeters>
          </Trackpoint>
          <Trackpoint>
            <Time>2022-07-07T06:38:11.000Z</Time>
            <Position>
              <LatitudeDegrees>43.77462401054799556732177734375</LatitudeDegrees>
              <LongitudeDegrees>-1.40722070820629596710205078125</LongitudeDegrees>
            </Position>
            <AltitudeMeters>27.799999237060546875</AltitudeMeters>
            <DistanceMeters>NAN</DistanceMeters>
          </Trackpoint>
          <Trackpoint>
            <Time>2022-07-07T06:38:16.000Z</Time>
            <Position>
              <LatitudeDegrees>43.77464731223881244659423828125</LatitudeDegrees>
              <LongitudeDegrees>-1.40735917724668979644775390625</LongitudeDegrees>
            </Position>
            <AltitudeMeters>28.3999996185302734375</AltitudeMeters>
            <DistanceMeters>NAN</DistanceMeters>
          </Trackpoint>
          <Trackpoint>
            <Time>2022-07-07T06:38:22.000Z</Time>
            <Position>
              <LatitudeDegrees>43.77467866055667400360107421875</LatitudeDegrees>
              <LongitudeDegrees>-1.40755229629576206207275390625</LongitudeDegrees>
            </Position>
            <AltitudeMeters>28.6000003814697265625</AltitudeMeters>
            <DistanceMeters>NAN</DistanceMeters>
          </Trackpoint>
          <Trackpoint>
            <Time>2022-07-07T06:38:23.000Z</Time>
            <Position>
              <LatitudeDegrees>43.77468737773597240447998046875</LatitudeDegrees>
              <LongitudeDegrees>-1.40759177505970001220703125</LongitudeDegrees>
            </Position>
            <AltitudeMeters>28.3999996185302734375</AltitudeMeters>
            <DistanceMeters>NAN</DistanceMeters>
          </Trackpoint>
          <Trackpoint>
            <Time>2022-07-07T06:38:25.000Z</Time>
            <Position>
              <LatitudeDegrees>43.77470682375133037567138671875</LatitudeDegrees>
              <LongitudeDegrees>-1.40764617361128330230712890625</LongitudeDegrees>
            </Position>
            <AltitudeMeters>28.3999996185302734375</AltitudeMeters>
            <DistanceMeters>NAN</DistanceMeters>
          </Trackpoint>
          <Trackpoint>
            <Time>2022-07-07T06:38:26.000Z</Time>
            <Position>
              <LatitudeDegrees>43.7747265212237834930419921875</LatitudeDegrees>
              <LongitudeDegrees>-1.4076514542102813720703125</LongitudeDegrees>
            </Position>
            <AltitudeMeters>28.3999996185302734375</AltitudeMeters>
            <DistanceMeters>NAN</DistanceMeters>
          </Trackpoint>
          <Trackpoint>
            <Time>2022-07-07T06:38:30.000Z</Time>
            <Position>
              <LatitudeDegrees>43.7747754715383052825927734375</LatitudeDegrees>
              <LongitudeDegrees>-1.4076595008373260498046875</LongitudeDegrees>
            </Position>
            <AltitudeMeters>28.3999996185302734375</AltitudeMeters>
            <DistanceMeters>NAN</DistanceMeters>
          </Trackpoint>
          <Trackpoint>
            <Time>2022-07-07T06:38:33.000Z</Time>
            <Position>
              <LatitudeDegrees>43.7747986055910587310791015625</LatitudeDegrees>
              <LongitudeDegrees>-1.4076648652553558349609375</LongitudeDegrees>
            </Position>
            <AltitudeMeters>28.3999996185302734375</AltitudeMeters>
            <DistanceMeters>NAN</DistanceMeters>
          </Trackpoint>
          <Trackpoint>
            <Time>2022-07-07T06:38:35.000Z</Time>
            <Position>
              <LatitudeDegrees>43.77482232637703418731689453125</LatitudeDegrees>
              <LongitudeDegrees>-1.4076573215425014495849609375</LongitudeDegrees>
            </Position>
            <AltitudeMeters>28.3999996185302734375</AltitudeMeters>
            <DistanceMeters>NAN</DistanceMeters>
          </Trackpoint>
          <Trackpoint>
            <Time>2022-07-07T06:38:38.000Z</Time>
            <Position>
              <LatitudeDegrees>43.77488560974597930908203125</LatitudeDegrees>
              <LongitudeDegrees>-1.4076512865722179412841796875</LongitudeDegrees>
            </Position>
            <AltitudeMeters>28.3999996185302734375</AltitudeMeters>
            <DistanceMeters>NAN</DistanceMeters>
          </Trackpoint>
          <Trackpoint>
            <Time>2022-07-07T06:38:41.000Z</Time>
            <Position>
              <LatitudeDegrees>43.77492450177669525146484375</LatitudeDegrees>
              <LongitudeDegrees>-1.40764282085001468658447265625</LongitudeDegrees>
            </Position>
            <AltitudeMeters>28.3999996185302734375</AltitudeMeters>
            <DistanceMeters>NAN</DistanceMeters>
          </Trackpoint>
          <Trackpoint>
            <Time>2022-07-07T06:38:42.000Z</Time>
            <Position>
              <LatitudeDegrees>43.77492450177669525146484375</LatitudeDegrees>
              <LongitudeDegrees>-1.40764282085001468658447265625</LongitudeDegrees>
            </Position>
            <AltitudeMeters>28.3999996185302734375</AltitudeMeters>
            <DistanceMeters>NAN</DistanceMeters>
          </Trackpoint>
          <Trackpoint>
            <Time>2022-07-07T06:38:43.000Z</Time>
            <Position>
              <LatitudeDegrees>43.77492450177669525146484375</LatitudeDegrees>
              <LongitudeDegrees>-1.40764282085001468658447265625</LongitudeDegrees>
            </Position>
            <AltitudeMeters>28.3999996185302734375</AltitudeMeters>
            <DistanceMeters>NAN</DistanceMeters>
          </Trackpoint>
          <Trackpoint>
            <Time>2022-07-07T06:39:03.000Z</Time>
            <Position>
              <LatitudeDegrees>43.7749032117426395416259765625</LatitudeDegrees>
              <LongitudeDegrees>-1.407638378441333770751953125</LongitudeDegrees>
            </Position>
            <AltitudeMeters>28.3999996185302734375</AltitudeMeters>
            <DistanceMeters>NAN</DistanceMeters>
          </Trackpoint>
          <Trackpoint>
            <Time>2022-07-07T06:39:05.000Z</Time>
            <Position>
              <LatitudeDegrees>43.77488024532794952392578125</LatitudeDegrees>
              <LongitudeDegrees>-1.40763343311846256256103515625</LongitudeDegrees>
            </Position>
            <AltitudeMeters>28.3999996185302734375</AltitudeMeters>
            <DistanceMeters>NAN</DistanceMeters>
          </Trackpoint>
          <Trackpoint>
            <Time>2022-07-07T06:39:08.000Z</Time>
            <Position>
              <LatitudeDegrees>43.7748341448605060577392578125</LatitudeDegrees>
              <LongitudeDegrees>-1.40766042284667491912841796875</LongitudeDegrees>
            </Position>
            <AltitudeMeters>28.3999996185302734375</AltitudeMeters>
            <DistanceMeters>NAN</DistanceMeters>
          </Trackpoint>
          <Trackpoint>
            <Time>2022-07-07T06:39:11.000Z</Time>
            <Position>
              <LatitudeDegrees>43.774801790714263916015625</LatitudeDegrees>
              <LongitudeDegrees>-1.40769864432513713836669921875</LongitudeDegrees>
            </Position>
            <AltitudeMeters>28.3999996185302734375</AltitudeMeters>
            <DistanceMeters>NAN</DistanceMeters>
          </Trackpoint>
          <Trackpoint>
            <Time>2022-07-07T06:39:15.000Z</Time>
            <Position>
              <LatitudeDegrees>43.7747312150895595550537109375</LatitudeDegrees>
              <LongitudeDegrees>-1.40771037898957729339599609375</LongitudeDegrees>
            </Position>
            <AltitudeMeters>28.200000762939453125</AltitudeMeters>
            <DistanceMeters>NAN</DistanceMeters>
          </Trackpoint>
          <Trackpoint>
            <Time>2022-07-07T06:39:16.000Z</Time>
            <Position>
              <LatitudeDegrees>43.77471151761710643768310546875</LatitudeDegrees>
              <LongitudeDegrees>-1.40772052109241485595703125</LongitudeDegrees>
            </Position>
            <AltitudeMeters>28.200000762939453125</AltitudeMeters>
            <DistanceMeters>NAN</DistanceMeters>
          </Trackpoint>
          <Trackpoint>
            <Time>2022-07-07T06:39:19.000Z</Time>
            <Position>
              <LatitudeDegrees>43.77467782236635684967041015625</LatitudeDegrees>
              <LongitudeDegrees>-1.40779503621160984039306640625</LongitudeDegrees>
            </Position>
            <AltitudeMeters>28.3999996185302734375</AltitudeMeters>
            <DistanceMeters>NAN</DistanceMeters>
          </Trackpoint>
          <Trackpoint>
            <Time>2022-07-07T06:39:24.000Z</Time>
            <Position>
              <LatitudeDegrees>43.77468268387019634246826171875</LatitudeDegrees>
              <LongitudeDegrees>-1.40793082304298877716064453125</LongitudeDegrees>
            </Position>
            <AltitudeMeters>28.200000762939453125</AltitudeMeters>
            <DistanceMeters>NAN</DistanceMeters>
          </Trackpoint>
          <Trackpoint>
            <Time>2022-07-07T06:39:25.000Z</Time>
            <Position>
              <LatitudeDegrees>43.77468804828822612762451171875</LatitudeDegrees>
              <LongitudeDegrees>-1.40793870203197002410888671875</LongitudeDegrees>
            </Position>
            <AltitudeMeters>28.200000762939453125</AltitudeMeters>
            <DistanceMeters>NAN</DistanceMeters>
          </Trackpoint>
          <Trackpoint>
            <Time>2022-07-07T06:39:28.000Z</Time>
            <Position>
              <LatitudeDegrees>43.7747305445373058319091796875</LatitudeDegrees>
              <LongitudeDegrees>-1.40796133317053318023681640625</LongitudeDegrees>
            </Position>
            <AltitudeMeters>28.200000762939453125</AltitudeMeters>
            <DistanceMeters>NAN</DistanceMeters>
          </Trackpoint>
          <Trackpoint>
            <Time>2022-07-07T06:39:30.000Z</Time>
            <Position>
              <LatitudeDegrees>43.77474638633430004119873046875</LatitudeDegrees>
              <LongitudeDegrees>-1.4079674519598484039306640625</LongitudeDegrees>
            </Position>
            <AltitudeMeters>28.200000762939453125</AltitudeMeters>
            <DistanceMeters>NAN</DistanceMeters>
          </Trackpoint>
          <Trackpoint>
            <Time>2022-07-07T06:39:32.000Z</Time>
            <Position>
              <LatitudeDegrees>43.77476080320775508880615234375</LatitudeDegrees>
              <LongitudeDegrees>-1.407970972359180450439453125</LongitudeDegrees>
            </Position>
            <AltitudeMeters>28.200000762939453125</AltitudeMeters>
            <DistanceMeters>NAN</DistanceMeters>
          </Trackpoint>
          <Trackpoint>
            <Time>2022-07-07T06:39:33.000Z</Time>
            <Position>
              <LatitudeDegrees>43.77476080320775508880615234375</LatitudeDegrees>
              <LongitudeDegrees>-1.407970972359180450439453125</LongitudeDegrees>
            </Position>
            <AltitudeMeters>28.200000762939453125</AltitudeMeters>
            <DistanceMeters>NAN</DistanceMeters>
          </Trackpoint>
          <Trackpoint>
            <Time>2022-07-07T06:39:34.000Z</Time>
            <Position>
              <LatitudeDegrees>43.774765245616436004638671875</LatitudeDegrees>
              <LongitudeDegrees>-1.4079704694449901580810546875</LongitudeDegrees>
            </Position>
            <AltitudeMeters>28.200000762939453125</AltitudeMeters>
            <DistanceMeters>NAN</DistanceMeters>
          </Trackpoint>
          <Trackpoint>
            <Time>2022-07-07T06:39:35.000Z</Time>
            <Position>
              <LatitudeDegrees>43.77477161586284637451171875</LatitudeDegrees>
              <LongitudeDegrees>-1.40796535648405551910400390625</LongitudeDegrees>
            </Position>
            <AltitudeMeters>28.200000762939453125</AltitudeMeters>
            <DistanceMeters>NAN</DistanceMeters>
          </Trackpoint>
          <Trackpoint>
            <Time>2022-07-07T06:39:39.000Z</Time>
            <Position>
              <LatitudeDegrees>43.77478745765984058380126953125</LatitudeDegrees>
              <LongitudeDegrees>-1.4079614169895648956298828125</LongitudeDegrees>
            </Position>
            <AltitudeMeters>28.200000762939453125</AltitudeMeters>
            <DistanceMeters>NAN</DistanceMeters>
          </Trackpoint>
          <Trackpoint>
            <Time>2022-07-07T06:39:41.000Z</Time>
            <Position>
              <LatitudeDegrees>43.77479298971593379974365234375</LatitudeDegrees>
              <LongitudeDegrees>-1.407983712852001190185546875</LongitudeDegrees>
            </Position>
            <AltitudeMeters>28.200000762939453125</AltitudeMeters>
            <DistanceMeters>NAN</DistanceMeters>
          </Trackpoint>
          <Trackpoint>
            <Time>2022-07-07T06:39:44.000Z</Time>
            <Position>
              <LatitudeDegrees>43.7748153693974018096923828125</LatitudeDegrees>
              <LongitudeDegrees>-1.4079724811017513275146484375</LongitudeDegrees>
            </Position>
            <AltitudeMeters>28.200000762939453125</AltitudeMeters>
            <DistanceMeters>NAN</DistanceMeters>
          </Trackpoint>
          <Trackpoint>
            <Time>2022-07-07T06:39:49.000Z</Time>
            <Position>
              <LatitudeDegrees>43.774929530918598175048828125</LatitudeDegrees>
              <LongitudeDegrees>-1.40797809697687625885009765625</LongitudeDegrees>
            </Position>
            <AltitudeMeters>28.3999996185302734375</AltitudeMeters>
            <DistanceMeters>NAN</DistanceMeters>
          </Trackpoint>
          <Trackpoint>
            <Time>2022-07-07T06:39:53.000Z</Time>
            <Position>
              <LatitudeDegrees>43.77502198331058025360107421875</LatitudeDegrees>
              <LongitudeDegrees>-1.407938115298748016357421875</LongitudeDegrees>
            </Position>
            <AltitudeMeters>28.6000003814697265625</AltitudeMeters>
            <DistanceMeters>NAN</DistanceMeters>
          </Trackpoint>
          <Trackpoint>
            <Time>2022-07-07T06:39:54.000Z</Time>
            <Position>
              <LatitudeDegrees>43.77502248622477054595947265625</LatitudeDegrees>
              <LongitudeDegrees>-1.4079275541007518768310546875</LongitudeDegrees>
            </Position>
            <AltitudeMeters>28.6000003814697265625</AltitudeMeters>
            <DistanceMeters>NAN</DistanceMeters>
          </Trackpoint>
          <Trackpoint>
            <Time>2022-07-07T06:39:55.000Z</Time>
            <Position>
              <LatitudeDegrees>43.77502215094864368438720703125</LatitudeDegrees>
              <LongitudeDegrees>-1.4079218544065952301025390625</LongitudeDegrees>
            </Position>
            <AltitudeMeters>28.6000003814697265625</AltitudeMeters>
            <DistanceMeters>NAN</DistanceMeters>
          </Trackpoint>
          <Trackpoint>
            <Time>2022-07-07T06:39:57.000Z</Time>
            <Position>
              <LatitudeDegrees>43.7750282697379589080810546875</LatitudeDegrees>
              <LongitudeDegrees>-1.4079268835484981536865234375</LongitudeDegrees>
            </Position>
            <AltitudeMeters>28.3999996185302734375</AltitudeMeters>
            <DistanceMeters>NAN</DistanceMeters>
          </Trackpoint>
          <Trackpoint>
            <Time>2022-07-07T06:39:58.000Z</Time>
            <Position>
              <LatitudeDegrees>43.77505215816199779510498046875</LatitudeDegrees>
              <LongitudeDegrees>-1.40794046223163604736328125</LongitudeDegrees>
            </Position>
            <AltitudeMeters>28.200000762939453125</AltitudeMeters>
            <DistanceMeters>NAN</DistanceMeters>
          </Trackpoint>
          <Trackpoint>
            <Time>2022-07-07T06:46:00.000Z</Time>
            <Position>
              <LatitudeDegrees>43.775084428489208221435546875</LatitudeDegrees>
              <LongitudeDegrees>-1.40775715000927448272705078125</LongitudeDegrees>
            </Position>
            <AltitudeMeters>27.799999237060546875</AltitudeMeters>
            <DistanceMeters>NAN</DistanceMeters>
          </Trackpoint>
          <Trackpoint>
            <Time>2022-07-07T06:46:02.000Z</Time>
            <Position>
              <LatitudeDegrees>43.77509825862944126129150390625</LatitudeDegrees>
              <LongitudeDegrees>-1.40776318497955799102783203125</LongitudeDegrees>
            </Position>
            <AltitudeMeters>27.799999237060546875</AltitudeMeters>
            <DistanceMeters>NAN</DistanceMeters>
          </Trackpoint>
          <Trackpoint>
            <Time>2022-07-07T06:46:04.000Z</Time>
            <Position>
              <LatitudeDegrees>43.77510488033294677734375</LatitudeDegrees>
              <LongitudeDegrees>-1.40776687301695346832275390625</LongitudeDegrees>
            </Position>
            <AltitudeMeters>27.799999237060546875</AltitudeMeters>
            <DistanceMeters>NAN</DistanceMeters>
          </Trackpoint>
          <Trackpoint>
            <Time>2022-07-07T06:46:07.000Z</Time>
            <Position>
              <LatitudeDegrees>43.77514637075364589691162109375</LatitudeDegrees>
              <LongitudeDegrees>-1.4077656157314777374267578125</LongitudeDegrees>
            </Position>
            <AltitudeMeters>28.200000762939453125</AltitudeMeters>
            <DistanceMeters>NAN</DistanceMeters>
          </Trackpoint>
          <Trackpoint>
            <Time>2022-07-07T06:46:08.000Z</Time>
            <Position>
              <LatitudeDegrees>43.77515005879104137420654296875</LatitudeDegrees>
              <LongitudeDegrees>-1.40776385553181171417236328125</LongitudeDegrees>
            </Position>
            <AltitudeMeters>28.200000762939453125</AltitudeMeters>
            <DistanceMeters>NAN</DistanceMeters>
          </Trackpoint>
          <Trackpoint>
            <Time>2022-07-07T06:46:17.000Z</Time>
            <Position>
              <LatitudeDegrees>43.775099851191043853759765625</LatitudeDegrees>
              <LongitudeDegrees>-1.4077319204807281494140625</LongitudeDegrees>
            </Position>
            <AltitudeMeters>28</AltitudeMeters>
            <DistanceMeters>NAN</DistanceMeters>
          </Trackpoint>
          <Trackpoint>
            <Time>2022-07-07T06:46:22.000Z</Time>
            <Position>
              <LatitudeDegrees>43.77504411153495311737060546875</LatitudeDegrees>
              <LongitudeDegrees>-1.407706439495086669921875</LongitudeDegrees>
            </Position>
            <AltitudeMeters>27.799999237060546875</AltitudeMeters>
            <DistanceMeters>NAN</DistanceMeters>
          </Trackpoint>
          <Trackpoint>
            <Time>2022-07-07T06:46:25.000Z</Time>
            <Position>
              <LatitudeDegrees>43.7750138528645038604736328125</LatitudeDegrees>
              <LongitudeDegrees>-1.407696045935153961181640625</LongitudeDegrees>
            </Position>
            <AltitudeMeters>27.799999237060546875</AltitudeMeters>
            <DistanceMeters>NAN</DistanceMeters>
          </Trackpoint>
          <Trackpoint>
            <Time>2022-07-07T06:46:32.000Z</Time>
            <Position>
              <LatitudeDegrees>43.77496833913028240203857421875</LatitudeDegrees>
              <LongitudeDegrees>-1.40765991993248462677001953125</LongitudeDegrees>
            </Position>
            <AltitudeMeters>27.6000003814697265625</AltitudeMeters>
            <DistanceMeters>NAN</DistanceMeters>
          </Trackpoint>
          <Trackpoint>
            <Time>2022-07-07T06:51:52.000Z</Time>
            <Position>
              <LatitudeDegrees>43.77500186674296855926513671875</LatitudeDegrees>
              <LongitudeDegrees>-1.40767551027238368988037109375</LongitudeDegrees>
            </Position>
            <AltitudeMeters>27.3999996185302734375</AltitudeMeters>
            <DistanceMeters>NAN</DistanceMeters>
          </Trackpoint>
          <Trackpoint>
            <Time>2022-07-07T06:51:53.000Z</Time>
            <Position>
              <LatitudeDegrees>43.77492961473762989044189453125</LatitudeDegrees>
              <LongitudeDegrees>-1.40773787163197994232177734375</LongitudeDegrees>
            </Position>
            <AltitudeMeters>27.799999237060546875</AltitudeMeters>
            <DistanceMeters>NAN</DistanceMeters>
          </Trackpoint>
          <Trackpoint>
            <Time>2022-07-07T06:51:54.000Z</Time>
            <Position>
              <LatitudeDegrees>43.7748877890408039093017578125</LatitudeDegrees>
              <LongitudeDegrees>-1.40776637010276317596435546875</LongitudeDegrees>
            </Position>
            <AltitudeMeters>27.799999237060546875</AltitudeMeters>
            <DistanceMeters>NAN</DistanceMeters>
          </Trackpoint>
          <Trackpoint>
            <Time>2022-07-07T06:52:00.000Z</Time>
            <Position>
              <LatitudeDegrees>43.7747727893292903900146484375</LatitudeDegrees>
              <LongitudeDegrees>-1.407668553292751312255859375</LongitudeDegrees>
            </Position>
            <AltitudeMeters>27.200000762939453125</AltitudeMeters>
            <DistanceMeters>NAN</DistanceMeters>
          </Trackpoint>
          <Trackpoint>
            <Time>2022-07-07T06:52:06.000Z</Time>
            <Position>
              <LatitudeDegrees>43.7747033871710300445556640625</LatitudeDegrees>
              <LongitudeDegrees>-1.40738013200461864471435546875</LongitudeDegrees>
            </Position>
            <AltitudeMeters>27.200000762939453125</AltitudeMeters>
            <DistanceMeters>NAN</DistanceMeters>
          </Trackpoint>
          <Trackpoint>
            <Time>2022-07-07T06:52:10.000Z</Time>
            <Position>
              <LatitudeDegrees>43.7747012078762054443359375</LatitudeDegrees>
              <LongitudeDegrees>-1.40720914117991924285888671875</LongitudeDegrees>
            </Position>
            <AltitudeMeters>27.200000762939453125</AltitudeMeters>
            <DistanceMeters>NAN</DistanceMeters>
          </Trackpoint>
          <Trackpoint>
            <Time>2022-07-07T06:52:15.000Z</Time>
            <Position>
              <LatitudeDegrees>43.77469793893396854400634765625</LatitudeDegrees>
              <LongitudeDegrees>-1.407006718218326568603515625</LongitudeDegrees>
            </Position>
            <AltitudeMeters>27</AltitudeMeters>
            <DistanceMeters>NAN</DistanceMeters>
          </Trackpoint>
          <Trackpoint>
            <Time>2022-07-07T06:52:18.000Z</Time>
            <Position>
              <LatitudeDegrees>43.774706907570362091064453125</LatitudeDegrees>
              <LongitudeDegrees>-1.4068767987191677093505859375</LongitudeDegrees>
            </Position>
            <AltitudeMeters>27</AltitudeMeters>
            <DistanceMeters>NAN</DistanceMeters>
          </Trackpoint>
          <Trackpoint>
            <Time>2022-07-07T06:52:21.000Z</Time>
            <Position>
              <LatitudeDegrees>43.7747134454548358917236328125</LatitudeDegrees>
              <LongitudeDegrees>-1.406741179525852203369140625</LongitudeDegrees>
            </Position>
            <AltitudeMeters>27</AltitudeMeters>
            <DistanceMeters>NAN</DistanceMeters>
          </Trackpoint>
          <Trackpoint>
            <Time>2022-07-07T06:52:27.000Z</Time>
            <Position>
              <LatitudeDegrees>43.7747077457606792449951171875</LatitudeDegrees>
              <LongitudeDegrees>-1.40650455839931964874267578125</LongitudeDegrees>
            </Position>
            <AltitudeMeters>26.799999237060546875</AltitudeMeters>
            <DistanceMeters>NAN</DistanceMeters>
          </Trackpoint>
          <Trackpoint>
            <Time>2022-07-07T06:52:29.000Z</Time>
            <Position>
              <LatitudeDegrees>43.774713613092899322509765625</LatitudeDegrees>
              <LongitudeDegrees>-1.4064191468060016632080078125</LongitudeDegrees>
            </Position>
            <AltitudeMeters>26.799999237060546875</AltitudeMeters>
            <DistanceMeters>NAN</DistanceMeters>
          </Trackpoint>
          <Trackpoint>
            <Time>2022-07-07T06:52:34.000Z</Time>
            <Position>
              <LatitudeDegrees>43.77472995780408382415771484375</LatitudeDegrees>
              <LongitudeDegrees>-1.40619593672454357147216796875</LongitudeDegrees>
            </Position>
            <AltitudeMeters>26.799999237060546875</AltitudeMeters>
            <DistanceMeters>NAN</DistanceMeters>
          </Trackpoint>
          <Trackpoint>
            <Time>2022-07-07T06:52:40.000Z</Time>
            <Position>
              <LatitudeDegrees>43.7747151218354701995849609375</LatitudeDegrees>
              <LongitudeDegrees>-1.405957639217376708984375</LongitudeDegrees>
            </Position>
            <AltitudeMeters>26.799999237060546875</AltitudeMeters>
            <DistanceMeters>NAN</DistanceMeters>
          </Trackpoint>
          <Trackpoint>
            <Time>2022-07-07T06:52:47.000Z</Time>
            <Position>
              <LatitudeDegrees>43.774720989167690277099609375</LatitudeDegrees>
              <LongitudeDegrees>-1.40566058456897735595703125</LongitudeDegrees>
            </Position>
            <AltitudeMeters>27</AltitudeMeters>
            <DistanceMeters>NAN</DistanceMeters>
          </Trackpoint>
          <Trackpoint>
            <Time>2022-07-07T06:52:52.000Z</Time>
            <Position>
              <LatitudeDegrees>43.7747017107903957366943359375</LatitudeDegrees>
              <LongitudeDegrees>-1.4055635221302509307861328125</LongitudeDegrees>
            </Position>
            <AltitudeMeters>27.3999996185302734375</AltitudeMeters>
            <DistanceMeters>NAN</DistanceMeters>
          </Trackpoint>
          <Trackpoint>
            <Time>2022-07-07T06:52:56.000Z</Time>
            <Position>
              <LatitudeDegrees>43.774644546210765838623046875</LatitudeDegrees>
              <LongitudeDegrees>-1.405487246811389923095703125</LongitudeDegrees>
            </Position>
            <AltitudeMeters>27.799999237060546875</AltitudeMeters>
            <DistanceMeters>NAN</DistanceMeters>
          </Trackpoint>
          <Trackpoint>
            <Time>2022-07-07T06:52:57.000Z</Time>
            <Position>
              <LatitudeDegrees>43.77463616430759429931640625</LatitudeDegrees>
              <LongitudeDegrees>-1.40546369366347789764404296875</LongitudeDegrees>
            </Position>
            <AltitudeMeters>27.799999237060546875</AltitudeMeters>
            <DistanceMeters>NAN</DistanceMeters>
          </Trackpoint>
          <Trackpoint>
            <Time>2022-07-07T06:52:59.000Z</Time>
            <Position>
              <LatitudeDegrees>43.77464144490659236907958984375</LatitudeDegrees>
              <LongitudeDegrees>-1.40540317632257938385009765625</LongitudeDegrees>
            </Position>
            <AltitudeMeters>28</AltitudeMeters>
            <DistanceMeters>NAN</DistanceMeters>
          </Trackpoint>
          <Trackpoint>
            <Time>2022-07-07T06:53:01.000Z</Time>
            <Position>
              <LatitudeDegrees>43.7746500782668590545654296875</LatitudeDegrees>
              <LongitudeDegrees>-1.4053301699459552764892578125</LongitudeDegrees>
            </Position>
            <AltitudeMeters>28.200000762939453125</AltitudeMeters>
            <DistanceMeters>NAN</DistanceMeters>
          </Trackpoint>
          <Trackpoint>
            <Time>2022-07-07T06:53:06.000Z</Time>
            <Position>
              <LatitudeDegrees>43.774698190391063690185546875</LatitudeDegrees>
              <LongitudeDegrees>-1.40512741170823574066162109375</LongitudeDegrees>
            </Position>
            <AltitudeMeters>28.799999237060546875</AltitudeMeters>
            <DistanceMeters>NAN</DistanceMeters>
          </Trackpoint>
          <Trackpoint>
            <Time>2022-07-07T06:53:08.000Z</Time>
            <Position>
              <LatitudeDegrees>43.77468645572662353515625</LatitudeDegrees>
              <LongitudeDegrees>-1.40507913194596767425537109375</LongitudeDegrees>
            </Position>
            <AltitudeMeters>29</AltitudeMeters>
            <DistanceMeters>NAN</DistanceMeters>
          </Trackpoint>
          <Trackpoint>
            <Time>2022-07-07T06:53:10.000Z</Time>
            <Position>
              <LatitudeDegrees>43.77466206438839435577392578125</LatitudeDegrees>
              <LongitudeDegrees>-1.405037306249141693115234375</LongitudeDegrees>
            </Position>
            <AltitudeMeters>29</AltitudeMeters>
            <DistanceMeters>NAN</DistanceMeters>
          </Trackpoint>
          <Trackpoint>
            <Time>2022-07-07T06:53:16.000Z</Time>
            <Position>
              <LatitudeDegrees>43.77457313239574432373046875</LatitudeDegrees>
              <LongitudeDegrees>-1.40484628267586231231689453125</LongitudeDegrees>
            </Position>
            <AltitudeMeters>29.200000762939453125</AltitudeMeters>
            <DistanceMeters>NAN</DistanceMeters>
          </Trackpoint>
          <Trackpoint>
            <Time>2022-07-07T06:53:23.000Z</Time>
            <Position>
              <LatitudeDegrees>43.77450699917972087860107421875</LatitudeDegrees>
              <LongitudeDegrees>-1.404589712619781494140625</LongitudeDegrees>
            </Position>
            <AltitudeMeters>29.6000003814697265625</AltitudeMeters>
            <DistanceMeters>NAN</DistanceMeters>
          </Trackpoint>
          <Trackpoint>
            <Time>2022-07-07T06:53:27.000Z</Time>
            <Position>
              <LatitudeDegrees>43.77444463782012462615966796875</LatitudeDegrees>
              <LongitudeDegrees>-1.40440204180777072906494140625</LongitudeDegrees>
            </Position>
            <AltitudeMeters>29.3999996185302734375</AltitudeMeters>
            <DistanceMeters>NAN</DistanceMeters>
          </Trackpoint>
          <Trackpoint>
            <Time>2022-07-07T06:53:33.000Z</Time>
            <Position>
              <LatitudeDegrees>43.7743235193192958831787109375</LatitudeDegrees>
              <LongitudeDegrees>-1.40405922196805477142333984375</LongitudeDegrees>
            </Position>
            <AltitudeMeters>28.799999237060546875</AltitudeMeters>
            <DistanceMeters>NAN</DistanceMeters>
          </Trackpoint>
          <Trackpoint>
            <Time>2022-07-07T06:53:35.000Z</Time>
            <Position>
              <LatitudeDegrees>43.774278424680233001708984375</LatitudeDegrees>
              <LongitudeDegrees>-1.40389678068459033966064453125</LongitudeDegrees>
            </Position>
            <AltitudeMeters>28.6000003814697265625</AltitudeMeters>
            <DistanceMeters>NAN</DistanceMeters>
          </Trackpoint>
          <Trackpoint>
            <Time>2022-07-07T06:53:38.000Z</Time>
            <Position>
              <LatitudeDegrees>43.77418261952698230743408203125</LatitudeDegrees>
              <LongitudeDegrees>-1.40366141684353351593017578125</LongitudeDegrees>
            </Position>
            <AltitudeMeters>28</AltitudeMeters>
            <DistanceMeters>NAN</DistanceMeters>
          </Trackpoint>
          <Trackpoint>
            <Time>2022-07-07T06:53:39.000Z</Time>
            <Position>
              <LatitudeDegrees>43.774149678647518157958984375</LatitudeDegrees>
              <LongitudeDegrees>-1.40357977710664272308349609375</LongitudeDegrees>
            </Position>
            <AltitudeMeters>27.799999237060546875</AltitudeMeters>
            <DistanceMeters>NAN</DistanceMeters>
          </Trackpoint>
          <Trackpoint>
            <Time>2022-07-07T06:53:40.000Z</Time>
            <Position>
              <LatitudeDegrees>43.77411254681646823883056640625</LatitudeDegrees>
              <LongitudeDegrees>-1.403510458767414093017578125</LongitudeDegrees>
            </Position>
            <AltitudeMeters>27.6000003814697265625</AltitudeMeters>
            <DistanceMeters>NAN</DistanceMeters>
          </Trackpoint>
          <Trackpoint>
            <Time>2022-07-07T06:53:43.000Z</Time>
            <Position>
              <LatitudeDegrees>43.7739879079163074493408203125</LatitudeDegrees>
              <LongitudeDegrees>-1.4033429883420467376708984375</LongitudeDegrees>
            </Position>
            <AltitudeMeters>27.200000762939453125</AltitudeMeters>
            <DistanceMeters>NAN</DistanceMeters>
          </Trackpoint>
          <Trackpoint>
            <Time>2022-07-07T06:53:44.000Z</Time>
            <Position>
              <LatitudeDegrees>43.7739480100572109222412109375</LatitudeDegrees>
              <LongitudeDegrees>-1.40330426394939422607421875</LongitudeDegrees>
            </Position>
            <AltitudeMeters>27</AltitudeMeters>
            <DistanceMeters>NAN</DistanceMeters>
          </Trackpoint>
          <Trackpoint>
            <Time>2022-07-07T06:53:48.000Z</Time>
            <Position>
              <LatitudeDegrees>43.77376670949161052703857421875</LatitudeDegrees>
              <LongitudeDegrees>-1.40313101001083850860595703125</LongitudeDegrees>
            </Position>
            <AltitudeMeters>26.799999237060546875</AltitudeMeters>
            <DistanceMeters>NAN</DistanceMeters>
          </Trackpoint>
          <Trackpoint>
            <Time>2022-07-07T06:53:49.000Z</Time>
            <Position>
              <LatitudeDegrees>43.77372178249061107635498046875</LatitudeDegrees>
              <LongitudeDegrees>-1.40307602472603321075439453125</LongitudeDegrees>
            </Position>
            <AltitudeMeters>26.799999237060546875</AltitudeMeters>
            <DistanceMeters>NAN</DistanceMeters>
          </Trackpoint>
          <Trackpoint>
            <Time>2022-07-07T06:53:50.000Z</Time>
            <Position>
              <LatitudeDegrees>43.773684315383434295654296875</LatitudeDegrees>
              <LongitudeDegrees>-1.40302204526960849761962890625</LongitudeDegrees>
            </Position>
            <AltitudeMeters>26.799999237060546875</AltitudeMeters>
            <DistanceMeters>NAN</DistanceMeters>
          </Trackpoint>
          <Trackpoint>
            <Time>2022-07-07T06:53:52.000Z</Time>
            <Position>
              <LatitudeDegrees>43.77360728569328784942626953125</LatitudeDegrees>
              <LongitudeDegrees>-1.4029093086719512939453125</LongitudeDegrees>
            </Position>
            <AltitudeMeters>26.6000003814697265625</AltitudeMeters>
            <DistanceMeters>NAN</DistanceMeters>
          </Trackpoint>
          <Trackpoint>
            <Time>2022-07-07T06:53:54.000Z</Time>
            <Position>
              <LatitudeDegrees>43.773542158305644989013671875</LatitudeDegrees>
              <LongitudeDegrees>-1.4027998410165309906005859375</LongitudeDegrees>
            </Position>
            <AltitudeMeters>26.3999996185302734375</AltitudeMeters>
            <DistanceMeters>NAN</DistanceMeters>
          </Trackpoint>
          <Trackpoint>
            <Time>2022-07-07T06:53:55.000Z</Time>
            <Position>
              <LatitudeDegrees>43.77351977862417697906494140625</LatitudeDegrees>
              <LongitudeDegrees>-1.40273320488631725311279296875</LongitudeDegrees>
            </Position>
            <AltitudeMeters>26.200000762939453125</AltitudeMeters>
            <DistanceMeters>NAN</DistanceMeters>
          </Trackpoint>
          <Trackpoint>
            <Time>2022-07-07T06:53:57.000Z</Time>
            <Position>
              <LatitudeDegrees>43.77348742447793483734130859375</LatitudeDegrees>
              <LongitudeDegrees>-1.40258300118148326873779296875</LongitudeDegrees>
            </Position>
            <AltitudeMeters>25.799999237060546875</AltitudeMeters>
            <DistanceMeters>NAN</DistanceMeters>
          </Trackpoint>
          <Trackpoint>
            <Time>2022-07-07T06:53:58.000Z</Time>
            <Position>
              <LatitudeDegrees>43.7734725885093212127685546875</LatitudeDegrees>
              <LongitudeDegrees>-1.40251426957547664642333984375</LongitudeDegrees>
            </Position>
            <AltitudeMeters>25.799999237060546875</AltitudeMeters>
            <DistanceMeters>NAN</DistanceMeters>
          </Trackpoint>
          <Trackpoint>
            <Time>2022-07-07T06:53:59.000Z</Time>
            <Position>
              <LatitudeDegrees>43.773460350930690765380859375</LatitudeDegrees>
              <LongitudeDegrees>-1.40245006419718265533447265625</LongitudeDegrees>
            </Position>
            <AltitudeMeters>25.6000003814697265625</AltitudeMeters>
            <DistanceMeters>NAN</DistanceMeters>
          </Trackpoint>
          <Trackpoint>
            <Time>2022-07-07T06:54:01.000Z</Time>
            <Position>
              <LatitudeDegrees>43.7734497897326946258544921875</LatitudeDegrees>
              <LongitudeDegrees>-1.402330286800861358642578125</LongitudeDegrees>
            </Position>
            <AltitudeMeters>25.6000003814697265625</AltitudeMeters>
            <DistanceMeters>NAN</DistanceMeters>
          </Trackpoint>
          <Trackpoint>
            <Time>2022-07-07T06:54:02.000Z</Time>
            <Position>
              <LatitudeDegrees>43.7734571658074855804443359375</LatitudeDegrees>
              <LongitudeDegrees>-1.40227538533508777618408203125</LongitudeDegrees>
            </Position>
            <AltitudeMeters>25.3999996185302734375</AltitudeMeters>
            <DistanceMeters>NAN</DistanceMeters>
          </Trackpoint>
          <Trackpoint>
            <Time>2022-07-07T06:54:03.000Z</Time>
            <Position>
              <LatitudeDegrees>43.77347133122384548187255859375</LatitudeDegrees>
              <LongitudeDegrees>-1.4022201485931873321533203125</LongitudeDegrees>
            </Position>
            <AltitudeMeters>25.3999996185302734375</AltitudeMeters>
            <DistanceMeters>NAN</DistanceMeters>
          </Trackpoint>
          <Trackpoint>
            <Time>2022-07-07T06:54:07.000Z</Time>
            <Position>
              <LatitudeDegrees>43.7735084630548954010009765625</LatitudeDegrees>
              <LongitudeDegrees>-1.40203884802758693695068359375</LongitudeDegrees>
            </Position>
            <AltitudeMeters>25.6000003814697265625</AltitudeMeters>
            <DistanceMeters>NAN</DistanceMeters>
          </Trackpoint>
          <Trackpoint>
            <Time>2022-07-07T06:54:14.000Z</Time>
            <Position>
              <LatitudeDegrees>43.7735218740999698638916015625</LatitudeDegrees>
              <LongitudeDegrees>-1.401725113391876220703125</LongitudeDegrees>
            </Position>
            <AltitudeMeters>25.799999237060546875</AltitudeMeters>
            <DistanceMeters>NAN</DistanceMeters>
          </Trackpoint>
          <Trackpoint>
            <Time>2022-07-07T06:54:19.000Z</Time>
            <Position>
              <LatitudeDegrees>43.7734915316104888916015625</LatitudeDegrees>
              <LongitudeDegrees>-1.4016139693558216094970703125</LongitudeDegrees>
            </Position>
            <AltitudeMeters>26.200000762939453125</AltitudeMeters>
            <DistanceMeters>NAN</DistanceMeters>
          </Trackpoint>
          <Trackpoint>
            <Time>2022-07-07T06:54:25.000Z</Time>
            <Position>
              <LatitudeDegrees>43.7735044397413730621337890625</LatitudeDegrees>
              <LongitudeDegrees>-1.40140802599489688873291015625</LongitudeDegrees>
            </Position>
            <AltitudeMeters>26.799999237060546875</AltitudeMeters>
            <DistanceMeters>NAN</DistanceMeters>
          </Trackpoint>
          <Trackpoint>
            <Time>2022-07-07T06:54:26.000Z</Time>
            <Position>
              <LatitudeDegrees>43.77350284717977046966552734375</LatitudeDegrees>
              <LongitudeDegrees>-1.40137441456317901611328125</LongitudeDegrees>
            </Position>
            <AltitudeMeters>26.799999237060546875</AltitudeMeters>
            <DistanceMeters>NAN</DistanceMeters>
          </Trackpoint>
          <Trackpoint>
            <Time>2022-07-07T06:54:29.000Z</Time>
            <Position>
              <LatitudeDegrees>43.77351122908294200897216796875</LatitudeDegrees>
              <LongitudeDegrees>-1.40125195495784282684326171875</LongitudeDegrees>
            </Position>
            <AltitudeMeters>27.200000762939453125</AltitudeMeters>
            <DistanceMeters>NAN</DistanceMeters>
          </Trackpoint>
          <Trackpoint>
            <Time>2022-07-07T06:54:32.000Z</Time>
            <Position>
              <LatitudeDegrees>43.7734942138195037841796875</LatitudeDegrees>
              <LongitudeDegrees>-1.40116478316485881805419921875</LongitudeDegrees>
            </Position>
            <AltitudeMeters>27.3999996185302734375</AltitudeMeters>
            <DistanceMeters>NAN</DistanceMeters>
          </Trackpoint>
          <Trackpoint>
            <Time>2022-07-07T06:54:35.000Z</Time>
            <Position>
              <LatitudeDegrees>43.7734792940318584442138671875</LatitudeDegrees>
              <LongitudeDegrees>-1.40109152533113956451416015625</LongitudeDegrees>
            </Position>
            <AltitudeMeters>27.3999996185302734375</AltitudeMeters>
            <DistanceMeters>NAN</DistanceMeters>
          </Trackpoint>
          <Trackpoint>
            <Time>2022-07-07T06:54:36.000Z</Time>
            <Position>
              <LatitudeDegrees>43.77347786910831928253173828125</LatitudeDegrees>
              <LongitudeDegrees>-1.40105933882296085357666015625</LongitudeDegrees>
            </Position>
            <AltitudeMeters>27.3999996185302734375</AltitudeMeters>
            <DistanceMeters>NAN</DistanceMeters>
          </Trackpoint>
          <Trackpoint>
            <Time>2022-07-07T06:54:42.000Z</Time>
            <Position>
              <LatitudeDegrees>43.7734836526215076446533203125</LatitudeDegrees>
              <LongitudeDegrees>-1.40082858502864837646484375</LongitudeDegrees>
            </Position>
            <AltitudeMeters>27.6000003814697265625</AltitudeMeters>
            <DistanceMeters>NAN</DistanceMeters>
          </Trackpoint>
          <Trackpoint>
            <Time>2022-07-07T06:54:48.000Z</Time>
            <Position>
              <LatitudeDegrees>43.7734980694949626922607421875</LatitudeDegrees>
              <LongitudeDegrees>-1.40054552815854549407958984375</LongitudeDegrees>
            </Position>
            <AltitudeMeters>27.6000003814697265625</AltitudeMeters>
            <DistanceMeters>NAN</DistanceMeters>
          </Trackpoint>
          <Trackpoint>
            <Time>2022-07-07T06:54:51.000Z</Time>
            <Position>
              <LatitudeDegrees>43.77352933399379253387451171875</LatitudeDegrees>
              <LongitudeDegrees>-1.400411166250705718994140625</LongitudeDegrees>
            </Position>
            <AltitudeMeters>27.3999996185302734375</AltitudeMeters>
            <DistanceMeters>NAN</DistanceMeters>
          </Trackpoint>
          <Trackpoint>
            <Time>2022-07-07T06:54:54.000Z</Time>
            <Position>
              <LatitudeDegrees>43.7735651247203350067138671875</LatitudeDegrees>
              <LongitudeDegrees>-1.4002534188330173492431640625</LongitudeDegrees>
            </Position>
            <AltitudeMeters>27.200000762939453125</AltitudeMeters>
            <DistanceMeters>NAN</DistanceMeters>
          </Trackpoint>
          <Trackpoint>
            <Time>2022-07-07T06:54:55.000Z</Time>
            <Position>
              <LatitudeDegrees>43.77357526682317256927490234375</LatitudeDegrees>
              <LongitudeDegrees>-1.400193236768245697021484375</LongitudeDegrees>
            </Position>
            <AltitudeMeters>27.200000762939453125</AltitudeMeters>
            <DistanceMeters>NAN</DistanceMeters>
          </Trackpoint>
          <Trackpoint>
            <Time>2022-07-07T06:55:04.000Z</Time>
            <Position>
              <LatitudeDegrees>43.7737119756639003753662109375</LatitudeDegrees>
              <LongitudeDegrees>-1.39963776804506778717041015625</LongitudeDegrees>
            </Position>
            <AltitudeMeters>27.200000762939453125</AltitudeMeters>
            <DistanceMeters>NAN</DistanceMeters>
          </Trackpoint>
          <Trackpoint>
            <Time>2022-07-07T06:55:07.000Z</Time>
            <Position>
              <LatitudeDegrees>43.7737766839563846588134765625</LatitudeDegrees>
              <LongitudeDegrees>-1.39944682829082012176513671875</LongitudeDegrees>
            </Position>
            <AltitudeMeters>26.799999237060546875</AltitudeMeters>
            <DistanceMeters>NAN</DistanceMeters>
          </Trackpoint>
          <Trackpoint>
            <Time>2022-07-07T06:55:10.000Z</Time>
            <Position>
              <LatitudeDegrees>43.77383242361247539520263671875</LatitudeDegrees>
              <LongitudeDegrees>-1.3993044197559356689453125</LongitudeDegrees>
            </Position>
            <AltitudeMeters>26.6000003814697265625</AltitudeMeters>
            <DistanceMeters>NAN</DistanceMeters>
          </Trackpoint>
          <Trackpoint>
            <Time>2022-07-07T06:55:16.000Z</Time>
            <Position>
              <LatitudeDegrees>43.77399872057139873504638671875</LatitudeDegrees>
              <LongitudeDegrees>-1.398996971547603607177734375</LongitudeDegrees>
            </Position>
            <AltitudeMeters>26.200000762939453125</AltitudeMeters>
            <DistanceMeters>NAN</DistanceMeters>
          </Trackpoint>
          <Trackpoint>
            <Time>2022-07-07T06:55:22.000Z</Time>
            <Position>
              <LatitudeDegrees>43.77410835586488246917724609375</LatitudeDegrees>
              <LongitudeDegrees>-1.398749537765979766845703125</LongitudeDegrees>
            </Position>
            <AltitudeMeters>26.200000762939453125</AltitudeMeters>
            <DistanceMeters>NAN</DistanceMeters>
          </Trackpoint>
          <Trackpoint>
            <Time>2022-07-07T06:55:29.000Z</Time>
            <Position>
              <LatitudeDegrees>43.77425252459943294525146484375</LatitudeDegrees>
              <LongitudeDegrees>-1.3984868489205837249755859375</LongitudeDegrees>
            </Position>
            <AltitudeMeters>26.3999996185302734375</AltitudeMeters>
            <DistanceMeters>NAN</DistanceMeters>
          </Trackpoint>
          <Trackpoint>
            <Time>2022-07-07T06:55:34.000Z</Time>
            <Position>
              <LatitudeDegrees>43.774316646158695220947265625</LatitudeDegrees>
              <LongitudeDegrees>-1.39831359498202800750732421875</LongitudeDegrees>
            </Position>
            <AltitudeMeters>26.3999996185302734375</AltitudeMeters>
            <DistanceMeters>NAN</DistanceMeters>
          </Trackpoint>
          <Trackpoint>
            <Time>2022-07-07T06:55:35.000Z</Time>
            <Position>
              <LatitudeDegrees>43.77432175911962985992431640625</LatitudeDegrees>
              <LongitudeDegrees>-1.39827285893261432647705078125</LongitudeDegrees>
            </Position>
            <AltitudeMeters>26.3999996185302734375</AltitudeMeters>
            <DistanceMeters>NAN</DistanceMeters>
          </Trackpoint>
          <Trackpoint>
            <Time>2022-07-07T06:55:41.000Z</Time>
            <Position>
              <LatitudeDegrees>43.7743298895657062530517578125</LatitudeDegrees>
              <LongitudeDegrees>-1.397970020771026611328125</LongitudeDegrees>
            </Position>
            <AltitudeMeters>26.799999237060546875</AltitudeMeters>
            <DistanceMeters>NAN</DistanceMeters>
          </Trackpoint>
          <Trackpoint>
            <Time>2022-07-07T06:55:46.000Z</Time>
            <Position>
              <LatitudeDegrees>43.77429661341011524200439453125</LatitudeDegrees>
              <LongitudeDegrees>-1.39767539687454700469970703125</LongitudeDegrees>
            </Position>
            <AltitudeMeters>26.799999237060546875</AltitudeMeters>
            <DistanceMeters>NAN</DistanceMeters>
          </Trackpoint>
          <Trackpoint>
            <Time>2022-07-07T06:55:48.000Z</Time>
            <Position>
              <LatitudeDegrees>43.774252943694591522216796875</LatitudeDegrees>
              <LongitudeDegrees>-1.39762359671294689178466796875</LongitudeDegrees>
            </Position>
            <AltitudeMeters>26.799999237060546875</AltitudeMeters>
            <DistanceMeters>NAN</DistanceMeters>
          </Trackpoint>
          <Trackpoint>
            <Time>2022-07-07T06:55:50.000Z</Time>
            <Position>
              <LatitudeDegrees>43.774205334484577178955078125</LatitudeDegrees>
              <LongitudeDegrees>-1.39762259088456630706787109375</LongitudeDegrees>
            </Position>
            <AltitudeMeters>26.799999237060546875</AltitudeMeters>
            <DistanceMeters>NAN</DistanceMeters>
          </Trackpoint>
          <Trackpoint>
            <Time>2022-07-07T06:55:52.000Z</Time>
            <Position>
              <LatitudeDegrees>43.7741525284945964813232421875</LatitudeDegrees>
              <LongitudeDegrees>-1.39763717539608478546142578125</LongitudeDegrees>
            </Position>
            <AltitudeMeters>27</AltitudeMeters>
            <DistanceMeters>NAN</DistanceMeters>
          </Trackpoint>
          <Trackpoint>
            <Time>2022-07-07T06:55:56.000Z</Time>
            <Position>
              <LatitudeDegrees>43.77400341443717479705810546875</LatitudeDegrees>
              <LongitudeDegrees>-1.39765092171728610992431640625</LongitudeDegrees>
            </Position>
            <AltitudeMeters>27</AltitudeMeters>
            <DistanceMeters>NAN</DistanceMeters>
          </Trackpoint>
          <Trackpoint>
            <Time>2022-07-07T06:56:01.000Z</Time>
            <Position>
              <LatitudeDegrees>43.773827143013477325439453125</LatitudeDegrees>
              <LongitudeDegrees>-1.397698782384395599365234375</LongitudeDegrees>
            </Position>
            <AltitudeMeters>27.200000762939453125</AltitudeMeters>
            <DistanceMeters>NAN</DistanceMeters>
          </Trackpoint>
          <Trackpoint>
            <Time>2022-07-07T06:56:07.000Z</Time>
            <Position>
              <LatitudeDegrees>43.7736630253493785858154296875</LatitudeDegrees>
              <LongitudeDegrees>-1.3977670110762119293212890625</LongitudeDegrees>
            </Position>
            <AltitudeMeters>27</AltitudeMeters>
            <DistanceMeters>NAN</DistanceMeters>
          </Trackpoint>
          <Trackpoint>
            <Time>2022-07-07T06:56:13.000Z</Time>
            <Position>
              <LatitudeDegrees>43.7734512984752655029296875</LatitudeDegrees>
              <LongitudeDegrees>-1.39774949289858341217041015625</LongitudeDegrees>
            </Position>
            <AltitudeMeters>26</AltitudeMeters>
            <DistanceMeters>NAN</DistanceMeters>
          </Trackpoint>
          <Trackpoint>
            <Time>2022-07-07T06:56:17.000Z</Time>
            <Position>
              <LatitudeDegrees>43.7733441777527332305908203125</LatitudeDegrees>
              <LongitudeDegrees>-1.3977998681366443634033203125</LongitudeDegrees>
            </Position>
            <AltitudeMeters>26.200000762939453125</AltitudeMeters>
            <DistanceMeters>NAN</DistanceMeters>
          </Trackpoint>
          <Trackpoint>
            <Time>2022-07-07T06:56:18.000Z</Time>
            <Position>
              <LatitudeDegrees>43.7733126617968082427978515625</LatitudeDegrees>
              <LongitudeDegrees>-1.3978156261146068572998046875</LongitudeDegrees>
            </Position>
            <AltitudeMeters>26.3999996185302734375</AltitudeMeters>
            <DistanceMeters>NAN</DistanceMeters>
          </Trackpoint>
          <Trackpoint>
            <Time>2022-07-07T06:56:23.000Z</Time>
            <Position>
              <LatitudeDegrees>43.77313337288796901702880859375</LatitudeDegrees>
              <LongitudeDegrees>-1.39784471131861209869384765625</LongitudeDegrees>
            </Position>
            <AltitudeMeters>26.799999237060546875</AltitudeMeters>
            <DistanceMeters>NAN</DistanceMeters>
          </Trackpoint>
          <Trackpoint>
            <Time>2022-07-07T06:56:26.000Z</Time>
            <Position>
              <LatitudeDegrees>43.77304536290466785430908203125</LatitudeDegrees>
              <LongitudeDegrees>-1.39785678125917911529541015625</LongitudeDegrees>
            </Position>
            <AltitudeMeters>26.799999237060546875</AltitudeMeters>
            <DistanceMeters>NAN</DistanceMeters>
          </Trackpoint>
          <Trackpoint>
            <Time>2022-07-07T06:56:29.000Z</Time>
            <Position>
              <LatitudeDegrees>43.7729612924158573150634765625</LatitudeDegrees>
              <LongitudeDegrees>-1.39784462749958038330078125</LongitudeDegrees>
            </Position>
            <AltitudeMeters>26.799999237060546875</AltitudeMeters>
            <DistanceMeters>NAN</DistanceMeters>
          </Trackpoint>
          <Trackpoint>
            <Time>2022-07-07T06:56:36.000Z</Time>
            <Position>
              <LatitudeDegrees>43.77273992635309696197509765625</LatitudeDegrees>
              <LongitudeDegrees>-1.39775879681110382080078125</LongitudeDegrees>
            </Position>
            <AltitudeMeters>26.799999237060546875</AltitudeMeters>
            <DistanceMeters>NAN</DistanceMeters>
          </Trackpoint>
          <Trackpoint>
            <Time>2022-07-07T06:56:39.000Z</Time>
            <Position>
              <LatitudeDegrees>43.77263121306896209716796875</LatitudeDegrees>
              <LongitudeDegrees>-1.39770875684916973114013671875</LongitudeDegrees>
            </Position>
            <AltitudeMeters>26.6000003814697265625</AltitudeMeters>
            <DistanceMeters>NAN</DistanceMeters>
          </Trackpoint>
          <Trackpoint>
            <Time>2022-07-07T06:56:42.000Z</Time>
            <Position>
              <LatitudeDegrees>43.77255569212138652801513671875</LatitudeDegrees>
              <LongitudeDegrees>-1.397627033293247222900390625</LongitudeDegrees>
            </Position>
            <AltitudeMeters>26.3999996185302734375</AltitudeMeters>
            <DistanceMeters>NAN</DistanceMeters>
          </Trackpoint>
          <Trackpoint>
            <Time>2022-07-07T06:56:46.000Z</Time>
            <Position>
              <LatitudeDegrees>43.77252384088933467864990234375</LatitudeDegrees>
              <LongitudeDegrees>-1.39746165834367275238037109375</LongitudeDegrees>
            </Position>
            <AltitudeMeters>26.3999996185302734375</AltitudeMeters>
            <DistanceMeters>NAN</DistanceMeters>
          </Trackpoint>
          <Trackpoint>
            <Time>2022-07-07T06:56:47.000Z</Time>
            <Position>
              <LatitudeDegrees>43.77251428551971912384033203125</LatitudeDegrees>
              <LongitudeDegrees>-1.3974188268184661865234375</LongitudeDegrees>
            </Position>
            <AltitudeMeters>26.6000003814697265625</AltitudeMeters>
            <DistanceMeters>NAN</DistanceMeters>
          </Trackpoint>
          <Trackpoint>
            <Time>2022-07-07T06:56:49.000Z</Time>
            <Position>
              <LatitudeDegrees>43.7724838592112064361572265625</LatitudeDegrees>
              <LongitudeDegrees>-1.397331319749355316162109375</LongitudeDegrees>
            </Position>
            <AltitudeMeters>26.799999237060546875</AltitudeMeters>
            <DistanceMeters>NAN</DistanceMeters>
          </Trackpoint>
          <Trackpoint>
            <Time>2022-07-07T06:56:50.000Z</Time>
            <Position>
              <LatitudeDegrees>43.77247170545160770416259765625</LatitudeDegrees>
              <LongitudeDegrees>-1.3972872309386730194091796875</LongitudeDegrees>
            </Position>
            <AltitudeMeters>26.799999237060546875</AltitudeMeters>
            <DistanceMeters>NAN</DistanceMeters>
          </Trackpoint>
          <Trackpoint>
            <Time>2022-07-07T06:56:56.000Z</Time>
            <Position>
              <LatitudeDegrees>43.77245259471237659454345703125</LatitudeDegrees>
              <LongitudeDegrees>-1.397021524608135223388671875</LongitudeDegrees>
            </Position>
            <AltitudeMeters>27</AltitudeMeters>
            <DistanceMeters>NAN</DistanceMeters>
          </Trackpoint>
          <Trackpoint>
            <Time>2022-07-07T06:56:59.000Z</Time>
            <Position>
              <LatitudeDegrees>43.77245242707431316375732421875</LatitudeDegrees>
              <LongitudeDegrees>-1.39688682742416858673095703125</LongitudeDegrees>
            </Position>
            <AltitudeMeters>27</AltitudeMeters>
            <DistanceMeters>NAN</DistanceMeters>
          </Trackpoint>
          <Trackpoint>
            <Time>2022-07-07T06:57:02.000Z</Time>
            <Position>
              <LatitudeDegrees>43.7724362500011920928955078125</LatitudeDegrees>
              <LongitudeDegrees>-1.396749950945377349853515625</LongitudeDegrees>
            </Position>
            <AltitudeMeters>27</AltitudeMeters>
            <DistanceMeters>NAN</DistanceMeters>
          </Trackpoint>
          <Trackpoint>
            <Time>2022-07-07T06:57:05.000Z</Time>
            <Position>
              <LatitudeDegrees>43.7724396027624607086181640625</LatitudeDegrees>
              <LongitudeDegrees>-1.39660586602985858917236328125</LongitudeDegrees>
            </Position>
            <AltitudeMeters>27</AltitudeMeters>
            <DistanceMeters>NAN</DistanceMeters>
          </Trackpoint>
          <Trackpoint>
            <Time>2022-07-07T06:57:07.000Z</Time>
            <Position>
              <LatitudeDegrees>43.77242912538349628448486328125</LatitudeDegrees>
              <LongitudeDegrees>-1.396517939865589141845703125</LongitudeDegrees>
            </Position>
            <AltitudeMeters>27</AltitudeMeters>
            <DistanceMeters>NAN</DistanceMeters>
          </Trackpoint>
          <Trackpoint>
            <Time>2022-07-07T06:57:09.000Z</Time>
            <Position>
              <LatitudeDegrees>43.772419653832912445068359375</LatitudeDegrees>
              <LongitudeDegrees>-1.39642842113971710205078125</LongitudeDegrees>
            </Position>
            <AltitudeMeters>27</AltitudeMeters>
            <DistanceMeters>NAN</DistanceMeters>
          </Trackpoint>
          <Trackpoint>
            <Time>2022-07-07T06:57:12.000Z</Time>
            <Position>
              <LatitudeDegrees>43.77242074348032474517822265625</LatitudeDegrees>
              <LongitudeDegrees>-1.3962884433567523956298828125</LongitudeDegrees>
            </Position>
            <AltitudeMeters>27.200000762939453125</AltitudeMeters>
            <DistanceMeters>NAN</DistanceMeters>
          </Trackpoint>
          <Trackpoint>
            <Time>2022-07-07T06:57:14.000Z</Time>
            <Position>
              <LatitudeDegrees>43.77239425666630268096923828125</LatitudeDegrees>
              <LongitudeDegrees>-1.39621057547628879547119140625</LongitudeDegrees>
            </Position>
            <AltitudeMeters>27.200000762939453125</AltitudeMeters>
            <DistanceMeters>NAN</DistanceMeters>
          </Trackpoint>
          <Trackpoint>
            <Time>2022-07-07T06:57:15.000Z</Time>
            <Position>
              <LatitudeDegrees>43.77238847315311431884765625</LatitudeDegrees>
              <LongitudeDegrees>-1.3961690850555896759033203125</LongitudeDegrees>
            </Position>
            <AltitudeMeters>27.3999996185302734375</AltitudeMeters>
            <DistanceMeters>NAN</DistanceMeters>
          </Trackpoint>
          <Trackpoint>
            <Time>2022-07-07T06:57:20.000Z</Time>
            <Position>
              <LatitudeDegrees>43.77241789363324642181396484375</LatitudeDegrees>
              <LongitudeDegrees>-1.39592542313039302825927734375</LongitudeDegrees>
            </Position>
            <AltitudeMeters>27.6000003814697265625</AltitudeMeters>
            <DistanceMeters>NAN</DistanceMeters>
          </Trackpoint>
          <Trackpoint>
            <Time>2022-07-07T06:57:25.000Z</Time>
            <Position>
              <LatitudeDegrees>43.7724496610462665557861328125</LatitudeDegrees>
              <LongitudeDegrees>-1.39565384946763515472412109375</LongitudeDegrees>
            </Position>
            <AltitudeMeters>27.3999996185302734375</AltitudeMeters>
            <DistanceMeters>NAN</DistanceMeters>
          </Trackpoint>
          <Trackpoint>
            <Time>2022-07-07T06:57:31.000Z</Time>
            <Position>
              <LatitudeDegrees>43.77253892831504344940185546875</LatitudeDegrees>
              <LongitudeDegrees>-1.39538948424160480499267578125</LongitudeDegrees>
            </Position>
            <AltitudeMeters>27.3999996185302734375</AltitudeMeters>
            <DistanceMeters>NAN</DistanceMeters>
          </Trackpoint>
          <Trackpoint>
            <Time>2022-07-07T06:57:33.000Z</Time>
            <Position>
              <LatitudeDegrees>43.7725170515477657318115234375</LatitudeDegrees>
              <LongitudeDegrees>-1.395295523107051849365234375</LongitudeDegrees>
            </Position>
            <AltitudeMeters>27.3999996185302734375</AltitudeMeters>
            <DistanceMeters>NAN</DistanceMeters>
          </Trackpoint>
          <Trackpoint>
            <Time>2022-07-07T06:57:35.000Z</Time>
            <Position>
              <LatitudeDegrees>43.77251964993774890899658203125</LatitudeDegrees>
              <LongitudeDegrees>-1.395210362970829010009765625</LongitudeDegrees>
            </Position>
            <AltitudeMeters>27.6000003814697265625</AltitudeMeters>
            <DistanceMeters>NAN</DistanceMeters>
          </Trackpoint>
          <Trackpoint>
            <Time>2022-07-07T06:57:39.000Z</Time>
            <Position>
              <LatitudeDegrees>43.77243197523057460784912109375</LatitudeDegrees>
              <LongitudeDegrees>-1.3950563035905361175537109375</LongitudeDegrees>
            </Position>
            <AltitudeMeters>27.799999237060546875</AltitudeMeters>
            <DistanceMeters>NAN</DistanceMeters>
          </Trackpoint>
          <Trackpoint>
            <Time>2022-07-07T06:57:40.000Z</Time>
            <Position>
              <LatitudeDegrees>43.772428371012210845947265625</LatitudeDegrees>
              <LongitudeDegrees>-1.39500861056149005889892578125</LongitudeDegrees>
            </Position>
            <AltitudeMeters>27.799999237060546875</AltitudeMeters>
            <DistanceMeters>NAN</DistanceMeters>
          </Trackpoint>
          <Trackpoint>
            <Time>2022-07-07T06:57:44.000Z</Time>
            <Position>
              <LatitudeDegrees>43.77239408902823925018310546875</LatitudeDegrees>
              <LongitudeDegrees>-1.39486393891274929046630859375</LongitudeDegrees>
            </Position>
            <AltitudeMeters>27.799999237060546875</AltitudeMeters>
            <DistanceMeters>NAN</DistanceMeters>
          </Trackpoint>
          <Trackpoint>
            <Time>2022-07-07T06:57:46.000Z</Time>
            <Position>
              <LatitudeDegrees>43.772382102906703948974609375</LatitudeDegrees>
              <LongitudeDegrees>-1.394793279469013214111328125</LongitudeDegrees>
            </Position>
            <AltitudeMeters>27.799999237060546875</AltitudeMeters>
            <DistanceMeters>NAN</DistanceMeters>
          </Trackpoint>
          <Trackpoint>
            <Time>2022-07-07T06:57:53.000Z</Time>
            <Position>
              <LatitudeDegrees>43.7724020518362522125244140625</LatitudeDegrees>
              <LongitudeDegrees>-1.39451927505433559417724609375</LongitudeDegrees>
            </Position>
            <AltitudeMeters>27.799999237060546875</AltitudeMeters>
            <DistanceMeters>NAN</DistanceMeters>
          </Trackpoint>
          <Trackpoint>
            <Time>2022-07-07T06:58:02.000Z</Time>
            <Position>
              <LatitudeDegrees>43.77242074348032474517822265625</LatitudeDegrees>
              <LongitudeDegrees>-1.39420210383832454681396484375</LongitudeDegrees>
            </Position>
            <AltitudeMeters>27.799999237060546875</AltitudeMeters>
            <DistanceMeters>NAN</DistanceMeters>
          </Trackpoint>
          <Trackpoint>
            <Time>2022-07-07T06:58:03.000Z</Time>
            <Position>
              <LatitudeDegrees>43.772413618862628936767578125</LatitudeDegrees>
              <LongitudeDegrees>-1.39417259953916072845458984375</LongitudeDegrees>
            </Position>
            <AltitudeMeters>27.799999237060546875</AltitudeMeters>
            <DistanceMeters>NAN</DistanceMeters>
          </Trackpoint>
          <Trackpoint>
            <Time>2022-07-07T06:58:06.000Z</Time>
            <Position>
              <LatitudeDegrees>43.772354610264301300048828125</LatitudeDegrees>
              <LongitudeDegrees>-1.3940605334937572479248046875</LongitudeDegrees>
            </Position>
            <AltitudeMeters>28</AltitudeMeters>
            <DistanceMeters>NAN</DistanceMeters>
          </Trackpoint>
          <Trackpoint>
            <Time>2022-07-07T06:58:12.000Z</Time>
            <Position>
              <LatitudeDegrees>43.772193677723407745361328125</LatitudeDegrees>
              <LongitudeDegrees>-1.39393824152648448944091796875</LongitudeDegrees>
            </Position>
            <AltitudeMeters>28</AltitudeMeters>
            <DistanceMeters>NAN</DistanceMeters>
          </Trackpoint>
          <Trackpoint>
            <Time>2022-07-07T06:58:20.000Z</Time>
            <Position>
              <LatitudeDegrees>43.77197138965129852294921875</LatitudeDegrees>
              <LongitudeDegrees>-1.393812261521816253662109375</LongitudeDegrees>
            </Position>
            <AltitudeMeters>28.3999996185302734375</AltitudeMeters>
            <DistanceMeters>NAN</DistanceMeters>
          </Trackpoint>
          <Trackpoint>
            <Time>2022-07-07T06:58:25.000Z</Time>
            <Position>
              <LatitudeDegrees>43.7718475051224231719970703125</LatitudeDegrees>
              <LongitudeDegrees>-1.3937172107398509979248046875</LongitudeDegrees>
            </Position>
            <AltitudeMeters>28.3999996185302734375</AltitudeMeters>
            <DistanceMeters>NAN</DistanceMeters>
          </Trackpoint>
          <Trackpoint>
            <Time>2022-07-07T06:58:26.000Z</Time>
            <Position>
              <LatitudeDegrees>43.7718196772038936614990234375</LatitudeDegrees>
              <LongitudeDegrees>-1.39369835145771503448486328125</LongitudeDegrees>
            </Position>
            <AltitudeMeters>28.3999996185302734375</AltitudeMeters>
            <DistanceMeters>NAN</DistanceMeters>
          </Trackpoint>
          <Trackpoint>
            <Time>2022-07-07T06:58:31.000Z</Time>
            <Position>
              <LatitudeDegrees>43.771666623651981353759765625</LatitudeDegrees>
              <LongitudeDegrees>-1.39359810389578342437744140625</LongitudeDegrees>
            </Position>
            <AltitudeMeters>28.3999996185302734375</AltitudeMeters>
            <DistanceMeters>NAN</DistanceMeters>
          </Trackpoint>
          <Trackpoint>
            <Time>2022-07-07T06:58:32.000Z</Time>
            <Position>
              <LatitudeDegrees>43.771643154323101043701171875</LatitudeDegrees>
              <LongitudeDegrees>-1.39357916079461574554443359375</LongitudeDegrees>
            </Position>
            <AltitudeMeters>28.3999996185302734375</AltitudeMeters>
            <DistanceMeters>NAN</DistanceMeters>
          </Trackpoint>
          <Trackpoint>
            <Time>2022-07-07T06:58:37.000Z</Time>
            <Position>
              <LatitudeDegrees>43.7714542262256145477294921875</LatitudeDegrees>
              <LongitudeDegrees>-1.39348494820296764373779296875</LongitudeDegrees>
            </Position>
            <AltitudeMeters>28.3999996185302734375</AltitudeMeters>
            <DistanceMeters>NAN</DistanceMeters>
          </Trackpoint>
          <Trackpoint>
            <Time>2022-07-07T06:58:41.000Z</Time>
            <Position>
              <LatitudeDegrees>43.77133461646735668182373046875</LatitudeDegrees>
              <LongitudeDegrees>-1.39340448193252086639404296875</LongitudeDegrees>
            </Position>
            <AltitudeMeters>28.3999996185302734375</AltitudeMeters>
            <DistanceMeters>NAN</DistanceMeters>
          </Trackpoint>
          <Trackpoint>
            <Time>2022-07-07T06:58:42.000Z</Time>
            <Position>
              <LatitudeDegrees>43.7713160924613475799560546875</LatitudeDegrees>
              <LongitudeDegrees>-1.3933950103819370269775390625</LongitudeDegrees>
            </Position>
            <AltitudeMeters>28.3999996185302734375</AltitudeMeters>
            <DistanceMeters>NAN</DistanceMeters>
          </Trackpoint>
          <Trackpoint>
            <Time>2022-07-07T06:58:45.000Z</Time>
            <Position>
              <LatitudeDegrees>43.7712570838630199432373046875</LatitudeDegrees>
              <LongitudeDegrees>-1.393369026482105255126953125</LongitudeDegrees>
            </Position>
            <AltitudeMeters>28.3999996185302734375</AltitudeMeters>
            <DistanceMeters>NAN</DistanceMeters>
          </Trackpoint>
          <Trackpoint>
            <Time>2022-07-07T06:58:47.000Z</Time>
            <Position>
              <LatitudeDegrees>43.77119547687470912933349609375</LatitudeDegrees>
              <LongitudeDegrees>-1.3933594711124897003173828125</LongitudeDegrees>
            </Position>
            <AltitudeMeters>28.3999996185302734375</AltitudeMeters>
            <DistanceMeters>NAN</DistanceMeters>
          </Trackpoint>
          <Trackpoint>
            <Time>2022-07-07T06:58:52.000Z</Time>
            <Position>
              <LatitudeDegrees>43.7709781341254711151123046875</LatitudeDegrees>
              <LongitudeDegrees>-1.3932359218597412109375</LongitudeDegrees>
            </Position>
            <AltitudeMeters>28.3999996185302734375</AltitudeMeters>
            <DistanceMeters>NAN</DistanceMeters>
          </Trackpoint>
          <Trackpoint>
            <Time>2022-07-07T06:58:59.000Z</Time>
            <Position>
              <LatitudeDegrees>43.7707538343966007232666015625</LatitudeDegrees>
              <LongitudeDegrees>-1.3930825330317020416259765625</LongitudeDegrees>
            </Position>
            <AltitudeMeters>28.200000762939453125</AltitudeMeters>
            <DistanceMeters>NAN</DistanceMeters>
          </Trackpoint>
          <Trackpoint>
            <Time>2022-07-07T06:59:05.000Z</Time>
            <Position>
              <LatitudeDegrees>43.7705290317535400390625</LatitudeDegrees>
              <LongitudeDegrees>-1.3929541222751140594482421875</LongitudeDegrees>
            </Position>
            <AltitudeMeters>28.200000762939453125</AltitudeMeters>
            <DistanceMeters>NAN</DistanceMeters>
          </Trackpoint>
          <Trackpoint>
            <Time>2022-07-07T06:59:09.000Z</Time>
            <Position>
              <LatitudeDegrees>43.7703997828066349029541015625</LatitudeDegrees>
              <LongitudeDegrees>-1.392827220261096954345703125</LongitudeDegrees>
            </Position>
            <AltitudeMeters>28.200000762939453125</AltitudeMeters>
            <DistanceMeters>NAN</DistanceMeters>
          </Trackpoint>
          <Trackpoint>
            <Time>2022-07-07T06:59:10.000Z</Time>
            <Position>
              <LatitudeDegrees>43.7703649140894412994384765625</LatitudeDegrees>
              <LongitudeDegrees>-1.39281406067311763763427734375</LongitudeDegrees>
            </Position>
            <AltitudeMeters>28.200000762939453125</AltitudeMeters>
            <DistanceMeters>NAN</DistanceMeters>
          </Trackpoint>
          <Trackpoint>
            <Time>2022-07-07T06:59:11.000Z</Time>
            <Position>
              <LatitudeDegrees>43.7703253515064716339111328125</LatitudeDegrees>
              <LongitudeDegrees>-1.3928260467946529388427734375</LongitudeDegrees>
            </Position>
            <AltitudeMeters>28.3999996185302734375</AltitudeMeters>
            <DistanceMeters>NAN</DistanceMeters>
          </Trackpoint>
          <Trackpoint>
            <Time>2022-07-07T06:59:14.000Z</Time>
            <Position>
              <LatitudeDegrees>43.77020490355789661407470703125</LatitudeDegrees>
              <LongitudeDegrees>-1.39287608675658702850341796875</LongitudeDegrees>
            </Position>
            <AltitudeMeters>28.3999996185302734375</AltitudeMeters>
            <DistanceMeters>NAN</DistanceMeters>
          </Trackpoint>
          <Trackpoint>
            <Time>2022-07-07T06:59:18.000Z</Time>
            <Position>
              <LatitudeDegrees>43.770081102848052978515625</LatitudeDegrees>
              <LongitudeDegrees>-1.39294967986643314361572265625</LongitudeDegrees>
            </Position>
            <AltitudeMeters>28.3999996185302734375</AltitudeMeters>
            <DistanceMeters>NAN</DistanceMeters>
          </Trackpoint>
          <Trackpoint>
            <Time>2022-07-07T06:59:22.000Z</Time>
            <Position>
              <LatitudeDegrees>43.76995177008211612701416015625</LatitudeDegrees>
              <LongitudeDegrees>-1.3930030725896358489990234375</LongitudeDegrees>
            </Position>
            <AltitudeMeters>28.3999996185302734375</AltitudeMeters>
            <DistanceMeters>NAN</DistanceMeters>
          </Trackpoint>
          <Trackpoint>
            <Time>2022-07-07T06:59:27.000Z</Time>
            <Position>
              <LatitudeDegrees>43.76978262327611446380615234375</LatitudeDegrees>
              <LongitudeDegrees>-1.39310114085674285888671875</LongitudeDegrees>
            </Position>
            <AltitudeMeters>28.799999237060546875</AltitudeMeters>
            <DistanceMeters>NAN</DistanceMeters>
          </Trackpoint>
          <Trackpoint>
            <Time>2022-07-07T06:59:28.000Z</Time>
            <Position>
              <LatitudeDegrees>43.76974272541701793670654296875</LatitudeDegrees>
              <LongitudeDegrees>-1.393127627670764923095703125</LongitudeDegrees>
            </Position>
            <AltitudeMeters>28.799999237060546875</AltitudeMeters>
            <DistanceMeters>NAN</DistanceMeters>
          </Trackpoint>
          <Trackpoint>
            <Time>2022-07-07T06:59:29.000Z</Time>
            <Position>
              <LatitudeDegrees>43.7697131372988224029541015625</LatitudeDegrees>
              <LongitudeDegrees>-1.393144391477108001708984375</LongitudeDegrees>
            </Position>
            <AltitudeMeters>28.799999237060546875</AltitudeMeters>
            <DistanceMeters>NAN</DistanceMeters>
          </Trackpoint>
          <Trackpoint>
            <Time>2022-07-07T06:59:32.000Z</Time>
            <Position>
              <LatitudeDegrees>43.769634179770946502685546875</LatitudeDegrees>
              <LongitudeDegrees>-1.39318672008812427520751953125</LongitudeDegrees>
            </Position>
            <AltitudeMeters>28.799999237060546875</AltitudeMeters>
            <DistanceMeters>NAN</DistanceMeters>
          </Trackpoint>
          <Trackpoint>
            <Time>2022-07-07T06:59:33.000Z</Time>
            <Position>
              <LatitudeDegrees>43.76959436573088169097900390625</LatitudeDegrees>
              <LongitudeDegrees>-1.39321069233119487762451171875</LongitudeDegrees>
            </Position>
            <AltitudeMeters>28.6000003814697265625</AltitudeMeters>
            <DistanceMeters>NAN</DistanceMeters>
          </Trackpoint>
          <Trackpoint>
            <Time>2022-07-07T06:59:36.000Z</Time>
            <Position>
              <LatitudeDegrees>43.76949436962604522705078125</LatitudeDegrees>
              <LongitudeDegrees>-1.39327037148177623748779296875</LongitudeDegrees>
            </Position>
            <AltitudeMeters>28.799999237060546875</AltitudeMeters>
            <DistanceMeters>NAN</DistanceMeters>
          </Trackpoint>
          <Trackpoint>
            <Time>2022-07-07T06:59:39.000Z</Time>
            <Position>
              <LatitudeDegrees>43.76940744929015636444091796875</LatitudeDegrees>
              <LongitudeDegrees>-1.3933296315371990203857421875</LongitudeDegrees>
            </Position>
            <AltitudeMeters>28.799999237060546875</AltitudeMeters>
            <DistanceMeters>NAN</DistanceMeters>
          </Trackpoint>
          <Trackpoint>
            <Time>2022-07-07T06:59:42.000Z</Time>
            <Position>
              <LatitudeDegrees>43.76934274099767208099365234375</LatitudeDegrees>
              <LongitudeDegrees>-1.39337866567075252532958984375</LongitudeDegrees>
            </Position>
            <AltitudeMeters>28.799999237060546875</AltitudeMeters>
            <DistanceMeters>NAN</DistanceMeters>
          </Trackpoint>
          <Trackpoint>
            <Time>2022-07-07T06:59:43.000Z</Time>
            <Position>
              <LatitudeDegrees>43.76933268271386623382568359375</LatitudeDegrees>
              <LongitudeDegrees>-1.39339827932417392730712890625</LongitudeDegrees>
            </Position>
            <AltitudeMeters>28.799999237060546875</AltitudeMeters>
            <DistanceMeters>NAN</DistanceMeters>
          </Trackpoint>
          <Trackpoint>
            <Time>2022-07-07T06:59:49.000Z</Time>
            <Position>
              <LatitudeDegrees>43.7693168409168720245361328125</LatitudeDegrees>
              <LongitudeDegrees>-1.3934322260320186614990234375</LongitudeDegrees>
            </Position>
            <AltitudeMeters>28.6000003814697265625</AltitudeMeters>
            <DistanceMeters>NAN</DistanceMeters>
          </Trackpoint>
          <Trackpoint>
            <Time>2022-07-07T07:03:21.000Z</Time>
            <Position>
              <LatitudeDegrees>43.76922086812555789947509765625</LatitudeDegrees>
              <LongitudeDegrees>-1.39343666844069957733154296875</LongitudeDegrees>
            </Position>
            <AltitudeMeters>28</AltitudeMeters>
            <DistanceMeters>NAN</DistanceMeters>
          </Trackpoint>
          <Trackpoint>
            <Time>2022-07-07T07:03:22.000Z</Time>
            <Position>
              <LatitudeDegrees>43.76919723115861415863037109375</LatitudeDegrees>
              <LongitudeDegrees>-1.39344002120196819305419921875</LongitudeDegrees>
            </Position>
            <AltitudeMeters>28</AltitudeMeters>
            <DistanceMeters>NAN</DistanceMeters>
          </Trackpoint>
          <Trackpoint>
            <Time>2022-07-07T07:03:23.000Z</Time>
            <Position>
              <LatitudeDegrees>43.76917175017297267913818359375</LatitudeDegrees>
              <LongitudeDegrees>-1.393444128334522247314453125</LongitudeDegrees>
            </Position>
            <AltitudeMeters>28</AltitudeMeters>
            <DistanceMeters>NAN</DistanceMeters>
          </Trackpoint>
          <Trackpoint>
            <Time>2022-07-07T07:03:25.000Z</Time>
            <Position>
              <LatitudeDegrees>43.769114501774311065673828125</LatitudeDegrees>
              <LongitudeDegrees>-1.3934654183685779571533203125</LongitudeDegrees>
            </Position>
            <AltitudeMeters>27.799999237060546875</AltitudeMeters>
            <DistanceMeters>NAN</DistanceMeters>
          </Trackpoint>
          <Trackpoint>
            <Time>2022-07-07T07:03:28.000Z</Time>
            <Position>
              <LatitudeDegrees>43.7690291740000247955322265625</LatitudeDegrees>
              <LongitudeDegrees>-1.39349500648677349090576171875</LongitudeDegrees>
            </Position>
            <AltitudeMeters>27.6000003814697265625</AltitudeMeters>
            <DistanceMeters>NAN</DistanceMeters>
          </Trackpoint>
          <Trackpoint>
            <Time>2022-07-07T07:03:32.000Z</Time>
            <Position>
              <LatitudeDegrees>43.768895231187343597412109375</LatitudeDegrees>
              <LongitudeDegrees>-1.3935296237468719482421875</LongitudeDegrees>
            </Position>
            <AltitudeMeters>28</AltitudeMeters>
            <DistanceMeters>NAN</DistanceMeters>
          </Trackpoint>
          <Trackpoint>
            <Time>2022-07-07T07:03:33.000Z</Time>
            <Position>
              <LatitudeDegrees>43.7688618712127208709716796875</LatitudeDegrees>
              <LongitudeDegrees>-1.39353289268910884857177734375</LongitudeDegrees>
            </Position>
            <AltitudeMeters>28</AltitudeMeters>
            <DistanceMeters>NAN</DistanceMeters>
          </Trackpoint>
          <Trackpoint>
            <Time>2022-07-07T07:03:34.000Z</Time>
            <Position>
              <LatitudeDegrees>43.76883060671389102935791015625</LatitudeDegrees>
              <LongitudeDegrees>-1.393538005650043487548828125</LongitudeDegrees>
            </Position>
            <AltitudeMeters>28</AltitudeMeters>
            <DistanceMeters>NAN</DistanceMeters>
          </Trackpoint>
          <Trackpoint>
            <Time>2022-07-07T07:03:40.000Z</Time>
            <Position>
              <LatitudeDegrees>43.76864033751189708709716796875</LatitudeDegrees>
              <LongitudeDegrees>-1.3936075754463672637939453125</LongitudeDegrees>
            </Position>
            <AltitudeMeters>28</AltitudeMeters>
            <DistanceMeters>NAN</DistanceMeters>
          </Trackpoint>
          <Trackpoint>
            <Time>2022-07-07T07:03:49.000Z</Time>
            <Position>
              <LatitudeDegrees>43.76837127842009067535400390625</LatitudeDegrees>
              <LongitudeDegrees>-1.39363615773618221282958984375</LongitudeDegrees>
            </Position>
            <AltitudeMeters>28.200000762939453125</AltitudeMeters>
            <DistanceMeters>NAN</DistanceMeters>
          </Trackpoint>
          <Trackpoint>
            <Time>2022-07-07T07:03:55.000Z</Time>
            <Position>
              <LatitudeDegrees>43.768167681992053985595703125</LatitudeDegrees>
              <LongitudeDegrees>-1.3936394266784191131591796875</LongitudeDegrees>
            </Position>
            <AltitudeMeters>28.200000762939453125</AltitudeMeters>
            <DistanceMeters>NAN</DistanceMeters>
          </Trackpoint>
          <Trackpoint>
            <Time>2022-07-07T07:03:56.000Z</Time>
            <Position>
              <LatitudeDegrees>43.76812870614230632781982421875</LatitudeDegrees>
              <LongitudeDegrees>-1.39363615773618221282958984375</LongitudeDegrees>
            </Position>
            <AltitudeMeters>28.200000762939453125</AltitudeMeters>
            <DistanceMeters>NAN</DistanceMeters>
          </Trackpoint>
          <Trackpoint>
            <Time>2022-07-07T07:04:03.000Z</Time>
            <Position>
              <LatitudeDegrees>43.76789049245417118072509765625</LatitudeDegrees>
              <LongitudeDegrees>-1.39358553104102611541748046875</LongitudeDegrees>
            </Position>
            <AltitudeMeters>28.200000762939453125</AltitudeMeters>
            <DistanceMeters>NAN</DistanceMeters>
          </Trackpoint>
          <Trackpoint>
            <Time>2022-07-07T07:04:09.000Z</Time>
            <Position>
              <LatitudeDegrees>43.7675864808261394500732421875</LatitudeDegrees>
              <LongitudeDegrees>-1.3935644924640655517578125</LongitudeDegrees>
            </Position>
            <AltitudeMeters>28</AltitudeMeters>
            <DistanceMeters>NAN</DistanceMeters>
          </Trackpoint>
          <Trackpoint>
            <Time>2022-07-07T07:04:14.000Z</Time>
            <Position>
              <LatitudeDegrees>43.7673675455152988433837890625</LatitudeDegrees>
              <LongitudeDegrees>-1.39352300204336643218994140625</LongitudeDegrees>
            </Position>
            <AltitudeMeters>28</AltitudeMeters>
            <DistanceMeters>NAN</DistanceMeters>
          </Trackpoint>
          <Trackpoint>
            <Time>2022-07-07T07:04:20.000Z</Time>
            <Position>
              <LatitudeDegrees>43.7671051919460296630859375</LatitudeDegrees>
              <LongitudeDegrees>-1.39342342503368854522705078125</LongitudeDegrees>
            </Position>
            <AltitudeMeters>28</AltitudeMeters>
            <DistanceMeters>NAN</DistanceMeters>
          </Trackpoint>
          <Trackpoint>
            <Time>2022-07-07T07:04:25.000Z</Time>
            <Position>
              <LatitudeDegrees>43.76692070625722408294677734375</LatitudeDegrees>
              <LongitudeDegrees>-1.39333575032651424407958984375</LongitudeDegrees>
            </Position>
            <AltitudeMeters>27.799999237060546875</AltitudeMeters>
            <DistanceMeters>NAN</DistanceMeters>
          </Trackpoint>
          <Trackpoint>
            <Time>2022-07-07T07:04:27.000Z</Time>
            <Position>
              <LatitudeDegrees>43.76684023998677730560302734375</LatitudeDegrees>
              <LongitudeDegrees>-1.39326601289212703704833984375</LongitudeDegrees>
            </Position>
            <AltitudeMeters>27.799999237060546875</AltitudeMeters>
            <DistanceMeters>NAN</DistanceMeters>
          </Trackpoint>
          <Trackpoint>
            <Time>2022-07-07T07:04:28.000Z</Time>
            <Position>
              <LatitudeDegrees>43.76679765991866588592529296875</LatitudeDegrees>
              <LongitudeDegrees>-1.3932479918003082275390625</LongitudeDegrees>
            </Position>
            <AltitudeMeters>27.6000003814697265625</AltitudeMeters>
            <DistanceMeters>NAN</DistanceMeters>
          </Trackpoint>
          <Trackpoint>
            <Time>2022-07-07T07:04:34.000Z</Time>
            <Position>
              <LatitudeDegrees>43.76657344400882720947265625</LatitudeDegrees>
              <LongitudeDegrees>-1.39314933679997920989990234375</LongitudeDegrees>
            </Position>
            <AltitudeMeters>27.6000003814697265625</AltitudeMeters>
            <DistanceMeters>NAN</DistanceMeters>
          </Trackpoint>
          <Trackpoint>
            <Time>2022-07-07T07:04:42.000Z</Time>
            <Position>
              <LatitudeDegrees>43.7662262655794620513916015625</LatitudeDegrees>
              <LongitudeDegrees>-1.39297214336693286895751953125</LongitudeDegrees>
            </Position>
            <AltitudeMeters>27.799999237060546875</AltitudeMeters>
            <DistanceMeters>NAN</DistanceMeters>
          </Trackpoint>
          <Trackpoint>
            <Time>2022-07-07T07:04:48.000Z</Time>
            <Position>
              <LatitudeDegrees>43.76599400304257869720458984375</LatitudeDegrees>
              <LongitudeDegrees>-1.39285496436059474945068359375</LongitudeDegrees>
            </Position>
            <AltitudeMeters>27.6000003814697265625</AltitudeMeters>
            <DistanceMeters>NAN</DistanceMeters>
          </Trackpoint>
          <Trackpoint>
            <Time>2022-07-07T07:04:49.000Z</Time>
            <Position>
              <LatitudeDegrees>43.7659545242786407470703125</LatitudeDegrees>
              <LongitudeDegrees>-1.3928354345262050628662109375</LongitudeDegrees>
            </Position>
            <AltitudeMeters>27.6000003814697265625</AltitudeMeters>
            <DistanceMeters>NAN</DistanceMeters>
          </Trackpoint>
          <Trackpoint>
            <Time>2022-07-07T07:04:54.000Z</Time>
            <Position>
              <LatitudeDegrees>43.76579384319484233856201171875</LatitudeDegrees>
              <LongitudeDegrees>-1.39275111258029937744140625</LongitudeDegrees>
            </Position>
            <AltitudeMeters>27.799999237060546875</AltitudeMeters>
            <DistanceMeters>NAN</DistanceMeters>
          </Trackpoint>
          <Trackpoint>
            <Time>2022-07-07T07:04:56.000Z</Time>
            <Position>
              <LatitudeDegrees>43.7657327391207218170166015625</LatitudeDegrees>
              <LongitudeDegrees>-1.39271968044340610504150390625</LongitudeDegrees>
            </Position>
            <AltitudeMeters>28</AltitudeMeters>
            <DistanceMeters>NAN</DistanceMeters>
          </Trackpoint>
          <Trackpoint>
            <Time>2022-07-07T07:04:58.000Z</Time>
            <Position>
              <LatitudeDegrees>43.76567834056913852691650390625</LatitudeDegrees>
              <LongitudeDegrees>-1.39268397353589534759521484375</LongitudeDegrees>
            </Position>
            <AltitudeMeters>28</AltitudeMeters>
            <DistanceMeters>NAN</DistanceMeters>
          </Trackpoint>
          <Trackpoint>
            <Time>2022-07-07T07:05:04.000Z</Time>
            <Position>
              <LatitudeDegrees>43.76547130756080150604248046875</LatitudeDegrees>
              <LongitudeDegrees>-1.39257031492888927459716796875</LongitudeDegrees>
            </Position>
            <AltitudeMeters>28</AltitudeMeters>
            <DistanceMeters>NAN</DistanceMeters>
          </Trackpoint>
          <Trackpoint>
            <Time>2022-07-07T07:05:11.000Z</Time>
            <Position>
              <LatitudeDegrees>43.7652271427214145660400390625</LatitudeDegrees>
              <LongitudeDegrees>-1.39246185310184955596923828125</LongitudeDegrees>
            </Position>
            <AltitudeMeters>28</AltitudeMeters>
            <DistanceMeters>NAN</DistanceMeters>
          </Trackpoint>
          <Trackpoint>
            <Time>2022-07-07T07:05:17.000Z</Time>
            <Position>
              <LatitudeDegrees>43.765033520758152008056640625</LatitudeDegrees>
              <LongitudeDegrees>-1.39235825277864933013916015625</LongitudeDegrees>
            </Position>
            <AltitudeMeters>28.3999996185302734375</AltitudeMeters>
            <DistanceMeters>NAN</DistanceMeters>
          </Trackpoint>
          <Trackpoint>
            <Time>2022-07-07T07:05:20.000Z</Time>
            <Position>
              <LatitudeDegrees>43.76493184827268123626708984375</LatitudeDegrees>
              <LongitudeDegrees>-1.39229379594326019287109375</LongitudeDegrees>
            </Position>
            <AltitudeMeters>28.3999996185302734375</AltitudeMeters>
            <DistanceMeters>NAN</DistanceMeters>
          </Trackpoint>
          <Trackpoint>
            <Time>2022-07-07T07:05:22.000Z</Time>
            <Position>
              <LatitudeDegrees>43.7648667208850383758544921875</LatitudeDegrees>
              <LongitudeDegrees>-1.3922704942524433135986328125</LongitudeDegrees>
            </Position>
            <AltitudeMeters>28.6000003814697265625</AltitudeMeters>
            <DistanceMeters>NAN</DistanceMeters>
          </Trackpoint>
          <Trackpoint>
            <Time>2022-07-07T07:05:24.000Z</Time>
            <Position>
              <LatitudeDegrees>43.764810897409915924072265625</LatitudeDegrees>
              <LongitudeDegrees>-1.39224174432456493377685546875</LongitudeDegrees>
            </Position>
            <AltitudeMeters>28.799999237060546875</AltitudeMeters>
            <DistanceMeters>NAN</DistanceMeters>
          </Trackpoint>
          <Trackpoint>
            <Time>2022-07-07T07:05:25.000Z</Time>
            <Position>
              <LatitudeDegrees>43.7647936306893825531005859375</LatitudeDegrees>
              <LongitudeDegrees>-1.3922292552888393402099609375</LongitudeDegrees>
            </Position>
            <AltitudeMeters>28.799999237060546875</AltitudeMeters>
            <DistanceMeters>NAN</DistanceMeters>
          </Trackpoint>
          <Trackpoint>
            <Time>2022-07-07T07:05:28.000Z</Time>
            <Position>
              <LatitudeDegrees>43.76469480805099010467529296875</LatitudeDegrees>
              <LongitudeDegrees>-1.39215574599802494049072265625</LongitudeDegrees>
            </Position>
            <AltitudeMeters>28.799999237060546875</AltitudeMeters>
            <DistanceMeters>NAN</DistanceMeters>
          </Trackpoint>
          <Trackpoint>
            <Time>2022-07-07T07:05:29.000Z</Time>
            <Position>
              <LatitudeDegrees>43.7646548263728618621826171875</LatitudeDegrees>
              <LongitudeDegrees>-1.392144262790679931640625</LongitudeDegrees>
            </Position>
            <AltitudeMeters>29</AltitudeMeters>
            <DistanceMeters>NAN</DistanceMeters>
          </Trackpoint>
          <Trackpoint>
            <Time>2022-07-07T07:05:32.000Z</Time>
            <Position>
              <LatitudeDegrees>43.7645482085645198822021484375</LatitudeDegrees>
              <LongitudeDegrees>-1.39212439768016338348388671875</LongitudeDegrees>
            </Position>
            <AltitudeMeters>29</AltitudeMeters>
            <DistanceMeters>NAN</DistanceMeters>
          </Trackpoint>
          <Trackpoint>
            <Time>2022-07-07T07:05:36.000Z</Time>
            <Position>
              <LatitudeDegrees>43.7645073048770427703857421875</LatitudeDegrees>
              <LongitudeDegrees>-1.392052732408046722412109375</LongitudeDegrees>
            </Position>
            <AltitudeMeters>29.200000762939453125</AltitudeMeters>
            <DistanceMeters>NAN</DistanceMeters>
          </Trackpoint>
          <Trackpoint>
            <Time>2022-07-07T07:05:41.000Z</Time>
            <Position>
              <LatitudeDegrees>43.76434528268873691558837890625</LatitudeDegrees>
              <LongitudeDegrees>-1.39196665026247501373291015625</LongitudeDegrees>
            </Position>
            <AltitudeMeters>29.6000003814697265625</AltitudeMeters>
            <DistanceMeters>NAN</DistanceMeters>
          </Trackpoint>
          <Trackpoint>
            <Time>2022-07-07T07:05:46.000Z</Time>
            <Position>
              <LatitudeDegrees>43.76414177007973194122314453125</LatitudeDegrees>
              <LongitudeDegrees>-1.39187713153660297393798828125</LongitudeDegrees>
            </Position>
            <AltitudeMeters>29.799999237060546875</AltitudeMeters>
            <DistanceMeters>NAN</DistanceMeters>
          </Trackpoint>
          <Trackpoint>
            <Time>2022-07-07T07:05:51.000Z</Time>
            <Position>
              <LatitudeDegrees>43.76395653001964092254638671875</LatitudeDegrees>
              <LongitudeDegrees>-1.39180001802742481231689453125</LongitudeDegrees>
            </Position>
            <AltitudeMeters>30</AltitudeMeters>
            <DistanceMeters>NAN</DistanceMeters>
          </Trackpoint>
          <Trackpoint>
            <Time>2022-07-07T07:05:57.000Z</Time>
            <Position>
              <LatitudeDegrees>43.763723261654376983642578125</LatitudeDegrees>
              <LongitudeDegrees>-1.391720473766326904296875</LongitudeDegrees>
            </Position>
            <AltitudeMeters>29.799999237060546875</AltitudeMeters>
            <DistanceMeters>NAN</DistanceMeters>
          </Trackpoint>
          <Trackpoint>
            <Time>2022-07-07T07:06:05.000Z</Time>
            <Position>
              <LatitudeDegrees>43.76340013928711414337158203125</LatitudeDegrees>
              <LongitudeDegrees>-1.391543112695217132568359375</LongitudeDegrees>
            </Position>
            <AltitudeMeters>29.799999237060546875</AltitudeMeters>
            <DistanceMeters>NAN</DistanceMeters>
          </Trackpoint>
          <Trackpoint>
            <Time>2022-07-07T07:06:15.000Z</Time>
            <Position>
              <LatitudeDegrees>43.763042986392974853515625</LatitudeDegrees>
              <LongitudeDegrees>-1.39136013574898242950439453125</LongitudeDegrees>
            </Position>
            <AltitudeMeters>30</AltitudeMeters>
            <DistanceMeters>NAN</DistanceMeters>
          </Trackpoint>
          <Trackpoint>
            <Time>2022-07-07T07:06:17.000Z</Time>
            <Position>
              <LatitudeDegrees>43.762975595891475677490234375</LatitudeDegrees>
              <LongitudeDegrees>-1.39132878743112087249755859375</LongitudeDegrees>
            </Position>
            <AltitudeMeters>30</AltitudeMeters>
            <DistanceMeters>NAN</DistanceMeters>
          </Trackpoint>
          <Trackpoint>
            <Time>2022-07-07T07:06:22.000Z</Time>
            <Position>
              <LatitudeDegrees>43.76284249126911163330078125</LatitudeDegrees>
              <LongitudeDegrees>-1.39124228619039058685302734375</LongitudeDegrees>
            </Position>
            <AltitudeMeters>29.799999237060546875</AltitudeMeters>
            <DistanceMeters>NAN</DistanceMeters>
          </Trackpoint>
          <Trackpoint>
            <Time>2022-07-07T07:06:28.000Z</Time>
            <Position>
              <LatitudeDegrees>43.7627199478447437286376953125</LatitudeDegrees>
              <LongitudeDegrees>-1.39109375886619091033935546875</LongitudeDegrees>
            </Position>
            <AltitudeMeters>30</AltitudeMeters>
            <DistanceMeters>NAN</DistanceMeters>
          </Trackpoint>
          <Trackpoint>
            <Time>2022-07-07T07:06:29.000Z</Time>
            <Position>
              <LatitudeDegrees>43.76268566586077213287353515625</LatitudeDegrees>
              <LongitudeDegrees>-1.391083113849163055419921875</LongitudeDegrees>
            </Position>
            <AltitudeMeters>30</AltitudeMeters>
            <DistanceMeters>NAN</DistanceMeters>
          </Trackpoint>
          <Trackpoint>
            <Time>2022-07-07T07:06:31.000Z</Time>
            <Position>
              <LatitudeDegrees>43.76263353042304515838623046875</LatitudeDegrees>
              <LongitudeDegrees>-1.39109895564615726470947265625</LongitudeDegrees>
            </Position>
            <AltitudeMeters>30.200000762939453125</AltitudeMeters>
            <DistanceMeters>NAN</DistanceMeters>
          </Trackpoint>
          <Trackpoint>
            <Time>2022-07-07T07:06:36.000Z</Time>
            <Position>
              <LatitudeDegrees>43.76255608163774013519287109375</LatitudeDegrees>
              <LongitudeDegrees>-1.39111571945250034332275390625</LongitudeDegrees>
            </Position>
            <AltitudeMeters>30.3999996185302734375</AltitudeMeters>
            <DistanceMeters>NAN</DistanceMeters>
          </Trackpoint>
          <Trackpoint>
            <Time>2022-07-07T07:06:37.000Z</Time>
            <Position>
              <LatitudeDegrees>43.76255608163774013519287109375</LatitudeDegrees>
              <LongitudeDegrees>-1.39111571945250034332275390625</LongitudeDegrees>
            </Position>
            <AltitudeMeters>30.200000762939453125</AltitudeMeters>
            <DistanceMeters>NAN</DistanceMeters>
          </Trackpoint>
          <Trackpoint>
            <Time>2022-07-07T07:06:53.000Z</Time>
            <Position>
              <LatitudeDegrees>43.76251048408448696136474609375</LatitudeDegrees>
              <LongitudeDegrees>-1.391234658658504486083984375</LongitudeDegrees>
            </Position>
            <AltitudeMeters>30.200000762939453125</AltitudeMeters>
            <DistanceMeters>NAN</DistanceMeters>
          </Trackpoint>
          <Trackpoint>
            <Time>2022-07-07T07:06:54.000Z</Time>
            <Position>
              <LatitudeDegrees>43.76249455846846103668212890625</LatitudeDegrees>
              <LongitudeDegrees>-1.3912551105022430419921875</LongitudeDegrees>
            </Position>
            <AltitudeMeters>30.200000762939453125</AltitudeMeters>
            <DistanceMeters>NAN</DistanceMeters>
          </Trackpoint>
          <Trackpoint>
            <Time>2022-07-07T07:06:55.000Z</Time>
            <Position>
              <LatitudeDegrees>43.76247812993824481964111328125</LatitudeDegrees>
              <LongitudeDegrees>-1.3912767358124256134033203125</LongitudeDegrees>
            </Position>
            <AltitudeMeters>30.200000762939453125</AltitudeMeters>
            <DistanceMeters>NAN</DistanceMeters>
          </Trackpoint>
          <Trackpoint>
            <Time>2022-07-07T07:07:01.000Z</Time>
            <Position>
              <LatitudeDegrees>43.76234083436429500579833984375</LatitudeDegrees>
              <LongitudeDegrees>-1.3913833536207675933837890625</LongitudeDegrees>
            </Position>
            <AltitudeMeters>30.6000003814697265625</AltitudeMeters>
            <DistanceMeters>NAN</DistanceMeters>
          </Trackpoint>
          <Trackpoint>
            <Time>2022-07-07T07:07:09.000Z</Time>
            <Position>
              <LatitudeDegrees>43.762131035327911376953125</LatitudeDegrees>
              <LongitudeDegrees>-1.39157622121274471282958984375</LongitudeDegrees>
            </Position>
            <AltitudeMeters>30</AltitudeMeters>
            <DistanceMeters>NAN</DistanceMeters>
          </Trackpoint>
          <Trackpoint>
            <Time>2022-07-07T07:07:18.000Z</Time>
            <Position>
              <LatitudeDegrees>43.76187563873827457427978515625</LatitudeDegrees>
              <LongitudeDegrees>-1.391813345253467559814453125</LongitudeDegrees>
            </Position>
            <AltitudeMeters>30</AltitudeMeters>
            <DistanceMeters>NAN</DistanceMeters>
          </Trackpoint>
          <Trackpoint>
            <Time>2022-07-07T07:07:27.000Z</Time>
            <Position>
              <LatitudeDegrees>43.76158378086984157562255859375</LatitudeDegrees>
              <LongitudeDegrees>-1.39206388033926486968994140625</LongitudeDegrees>
            </Position>
            <AltitudeMeters>30</AltitudeMeters>
            <DistanceMeters>NAN</DistanceMeters>
          </Trackpoint>
          <Trackpoint>
            <Time>2022-07-07T07:07:28.000Z</Time>
            <Position>
              <LatitudeDegrees>43.76154966652393341064453125</LatitudeDegrees>
              <LongitudeDegrees>-1.39208701439201831817626953125</LongitudeDegrees>
            </Position>
            <AltitudeMeters>30</AltitudeMeters>
            <DistanceMeters>NAN</DistanceMeters>
          </Trackpoint>
          <Trackpoint>
            <Time>2022-07-07T07:07:36.000Z</Time>
            <Position>
              <LatitudeDegrees>43.76130080781877040863037109375</LatitudeDegrees>
              <LongitudeDegrees>-1.392249874770641326904296875</LongitudeDegrees>
            </Position>
            <AltitudeMeters>30</AltitudeMeters>
            <DistanceMeters>NAN</DistanceMeters>
          </Trackpoint>
          <Trackpoint>
            <Time>2022-07-07T07:07:43.000Z</Time>
            <Position>
              <LatitudeDegrees>43.7610861472785472869873046875</LatitudeDegrees>
              <LongitudeDegrees>-1.3923995755612850189208984375</LongitudeDegrees>
            </Position>
            <AltitudeMeters>30</AltitudeMeters>
            <DistanceMeters>NAN</DistanceMeters>
          </Trackpoint>
          <Trackpoint>
            <Time>2022-07-07T07:07:52.000Z</Time>
            <Position>
              <LatitudeDegrees>43.7608395516872406005859375</LatitudeDegrees>
              <LongitudeDegrees>-1.392597891390323638916015625</LongitudeDegrees>
            </Position>
            <AltitudeMeters>30.200000762939453125</AltitudeMeters>
            <DistanceMeters>NAN</DistanceMeters>
          </Trackpoint>
          <Trackpoint>
            <Time>2022-07-07T07:07:59.000Z</Time>
            <Position>
              <LatitudeDegrees>43.7606606818735599517822265625</LatitudeDegrees>
              <LongitudeDegrees>-1.39274801127612590789794921875</LongitudeDegrees>
            </Position>
            <AltitudeMeters>30.3999996185302734375</AltitudeMeters>
            <DistanceMeters>NAN</DistanceMeters>
          </Trackpoint>
          <Trackpoint>
            <Time>2022-07-07T07:08:07.000Z</Time>
            <Position>
              <LatitudeDegrees>43.7604286707937717437744140625</LatitudeDegrees>
              <LongitudeDegrees>-1.39293015003204345703125</LongitudeDegrees>
            </Position>
            <AltitudeMeters>30</AltitudeMeters>
            <DistanceMeters>NAN</DistanceMeters>
          </Trackpoint>
          <Trackpoint>
            <Time>2022-07-07T07:08:10.000Z</Time>
            <Position>
              <LatitudeDegrees>43.7603277526795864105224609375</LatitudeDegrees>
              <LongitudeDegrees>-1.3930097781121730804443359375</LongitudeDegrees>
            </Position>
            <AltitudeMeters>30</AltitudeMeters>
            <DistanceMeters>NAN</DistanceMeters>
          </Trackpoint>
          <Trackpoint>
            <Time>2022-07-07T07:08:14.000Z</Time>
            <Position>
              <LatitudeDegrees>43.76020227558910846710205078125</LatitudeDegrees>
              <LongitudeDegrees>-1.39312519691884517669677734375</LongitudeDegrees>
            </Position>
            <AltitudeMeters>30</AltitudeMeters>
            <DistanceMeters>NAN</DistanceMeters>
          </Trackpoint>
          <Trackpoint>
            <Time>2022-07-07T07:08:18.000Z</Time>
            <Position>
              <LatitudeDegrees>43.76008995808660984039306640625</LatitudeDegrees>
              <LongitudeDegrees>-1.393204741179943084716796875</LongitudeDegrees>
            </Position>
            <AltitudeMeters>30</AltitudeMeters>
            <DistanceMeters>NAN</DistanceMeters>
          </Trackpoint>
          <Trackpoint>
            <Time>2022-07-07T07:08:20.000Z</Time>
            <Position>
              <LatitudeDegrees>43.76003396697342395782470703125</LatitudeDegrees>
              <LongitudeDegrees>-1.39324338175356388092041015625</LongitudeDegrees>
            </Position>
            <AltitudeMeters>30.200000762939453125</AltitudeMeters>
            <DistanceMeters>NAN</DistanceMeters>
          </Trackpoint>
          <Trackpoint>
            <Time>2022-07-07T07:08:23.000Z</Time>
            <Position>
              <LatitudeDegrees>43.75995215959846973419189453125</LatitudeDegrees>
              <LongitudeDegrees>-1.39331546612083911895751953125</LongitudeDegrees>
            </Position>
            <AltitudeMeters>30.200000762939453125</AltitudeMeters>
            <DistanceMeters>NAN</DistanceMeters>
          </Trackpoint>
          <Trackpoint>
            <Time>2022-07-07T07:08:32.000Z</Time>
            <Position>
              <LatitudeDegrees>43.75970874913036823272705078125</LatitudeDegrees>
              <LongitudeDegrees>-1.39353440143167972564697265625</LongitudeDegrees>
            </Position>
            <AltitudeMeters>30.200000762939453125</AltitudeMeters>
            <DistanceMeters>NAN</DistanceMeters>
          </Trackpoint>
          <Trackpoint>
            <Time>2022-07-07T07:08:39.000Z</Time>
            <Position>
              <LatitudeDegrees>43.759474642574787139892578125</LatitudeDegrees>
              <LongitudeDegrees>-1.3937373273074626922607421875</LongitudeDegrees>
            </Position>
            <AltitudeMeters>30.200000762939453125</AltitudeMeters>
            <DistanceMeters>NAN</DistanceMeters>
          </Trackpoint>
          <Trackpoint>
            <Time>2022-07-07T07:08:43.000Z</Time>
            <Position>
              <LatitudeDegrees>43.7593457289040088653564453125</LatitudeDegrees>
              <LongitudeDegrees>-1.39383598230779170989990234375</LongitudeDegrees>
            </Position>
            <AltitudeMeters>30.3999996185302734375</AltitudeMeters>
            <DistanceMeters>NAN</DistanceMeters>
          </Trackpoint>
          <Trackpoint>
            <Time>2022-07-07T07:08:46.000Z</Time>
            <Position>
              <LatitudeDegrees>43.7592490017414093017578125</LatitudeDegrees>
              <LongitudeDegrees>-1.3939104974269866943359375</LongitudeDegrees>
            </Position>
            <AltitudeMeters>30.3999996185302734375</AltitudeMeters>
            <DistanceMeters>NAN</DistanceMeters>
          </Trackpoint>
          <Trackpoint>
            <Time>2022-07-07T07:08:55.000Z</Time>
            <Position>
              <LatitudeDegrees>43.75893375836312770843505859375</LatitudeDegrees>
              <LongitudeDegrees>-1.39416036196053028106689453125</LongitudeDegrees>
            </Position>
            <AltitudeMeters>30.200000762939453125</AltitudeMeters>
            <DistanceMeters>NAN</DistanceMeters>
          </Trackpoint>
          <Trackpoint>
            <Time>2022-07-07T07:09:04.000Z</Time>
            <Position>
              <LatitudeDegrees>43.758589513599872589111328125</LatitudeDegrees>
              <LongitudeDegrees>-1.39442338608205318450927734375</LongitudeDegrees>
            </Position>
            <AltitudeMeters>30.200000762939453125</AltitudeMeters>
            <DistanceMeters>NAN</DistanceMeters>
          </Trackpoint>
          <Trackpoint>
            <Time>2022-07-07T07:09:06.000Z</Time>
            <Position>
              <LatitudeDegrees>43.75853310339152812957763671875</LatitudeDegrees>
              <LongitudeDegrees>-1.3944930396974086761474609375</LongitudeDegrees>
            </Position>
            <AltitudeMeters>30.200000762939453125</AltitudeMeters>
            <DistanceMeters>NAN</DistanceMeters>
          </Trackpoint>
          <Trackpoint>
            <Time>2022-07-07T07:09:10.000Z</Time>
            <Position>
              <LatitudeDegrees>43.75839966349303722381591796875</LatitudeDegrees>
              <LongitudeDegrees>-1.3946063630282878875732421875</LongitudeDegrees>
            </Position>
            <AltitudeMeters>30.3999996185302734375</AltitudeMeters>
            <DistanceMeters>NAN</DistanceMeters>
          </Trackpoint>
          <Trackpoint>
            <Time>2022-07-07T07:09:14.000Z</Time>
            <Position>
              <LatitudeDegrees>43.75825867988169193267822265625</LatitudeDegrees>
              <LongitudeDegrees>-1.39471138827502727508544921875</LongitudeDegrees>
            </Position>
            <AltitudeMeters>30.3999996185302734375</AltitudeMeters>
            <DistanceMeters>NAN</DistanceMeters>
          </Trackpoint>
          <Trackpoint>
            <Time>2022-07-07T07:09:15.000Z</Time>
            <Position>
              <LatitudeDegrees>43.7582316063344478607177734375</LatitudeDegrees>
              <LongitudeDegrees>-1.39473770745098590850830078125</LongitudeDegrees>
            </Position>
            <AltitudeMeters>30.6000003814697265625</AltitudeMeters>
            <DistanceMeters>NAN</DistanceMeters>
          </Trackpoint>
          <Trackpoint>
            <Time>2022-07-07T07:09:16.000Z</Time>
            <Position>
              <LatitudeDegrees>43.75820402987301349639892578125</LatitudeDegrees>
              <LongitudeDegrees>-1.3947634398937225341796875</LongitudeDegrees>
            </Position>
            <AltitudeMeters>30.6000003814697265625</AltitudeMeters>
            <DistanceMeters>NAN</DistanceMeters>
          </Trackpoint>
          <Trackpoint>
            <Time>2022-07-07T07:09:17.000Z</Time>
            <Position>
              <LatitudeDegrees>43.75817620195448398590087890625</LatitudeDegrees>
              <LongitudeDegrees>-1.39479269273579120635986328125</LongitudeDegrees>
            </Position>
            <AltitudeMeters>30.6000003814697265625</AltitudeMeters>
            <DistanceMeters>NAN</DistanceMeters>
          </Trackpoint>
          <Trackpoint>
            <Time>2022-07-07T07:09:25.000Z</Time>
            <Position>
              <LatitudeDegrees>43.7579224817454814910888671875</LatitudeDegrees>
              <LongitudeDegrees>-1.394987739622592926025390625</LongitudeDegrees>
            </Position>
            <AltitudeMeters>30.3999996185302734375</AltitudeMeters>
            <DistanceMeters>NAN</DistanceMeters>
          </Trackpoint>
          <Trackpoint>
            <Time>2022-07-07T07:09:35.000Z</Time>
            <Position>
              <LatitudeDegrees>43.7575992755591869354248046875</LatitudeDegrees>
              <LongitudeDegrees>-1.39526207931339740753173828125</LongitudeDegrees>
            </Position>
            <AltitudeMeters>30.3999996185302734375</AltitudeMeters>
            <DistanceMeters>NAN</DistanceMeters>
          </Trackpoint>
          <Trackpoint>
            <Time>2022-07-07T07:09:44.000Z</Time>
            <Position>
              <LatitudeDegrees>43.75728134997189044952392578125</LatitudeDegrees>
              <LongitudeDegrees>-1.39554672874510288238525390625</LongitudeDegrees>
            </Position>
            <AltitudeMeters>30.799999237060546875</AltitudeMeters>
            <DistanceMeters>NAN</DistanceMeters>
          </Trackpoint>
          <Trackpoint>
            <Time>2022-07-07T07:09:45.000Z</Time>
            <Position>
              <LatitudeDegrees>43.7572502531111240386962890625</LatitudeDegrees>
              <LongitudeDegrees>-1.395579837262630462646484375</LongitudeDegrees>
            </Position>
            <AltitudeMeters>30.799999237060546875</AltitudeMeters>
            <DistanceMeters>NAN</DistanceMeters>
          </Trackpoint>
          <Trackpoint>
            <Time>2022-07-07T07:09:50.000Z</Time>
            <Position>
              <LatitudeDegrees>43.75707565806806087493896484375</LatitudeDegrees>
              <LongitudeDegrees>-1.39571889303624629974365234375</LongitudeDegrees>
            </Position>
            <AltitudeMeters>30.799999237060546875</AltitudeMeters>
            <DistanceMeters>NAN</DistanceMeters>
          </Trackpoint>
          <Trackpoint>
            <Time>2022-07-07T07:09:54.000Z</Time>
            <Position>
              <LatitudeDegrees>43.75693668611347675323486328125</LatitudeDegrees>
              <LongitudeDegrees>-1.39582249335944652557373046875</LongitudeDegrees>
            </Position>
            <AltitudeMeters>31</AltitudeMeters>
            <DistanceMeters>NAN</DistanceMeters>
          </Trackpoint>
          <Trackpoint>
            <Time>2022-07-07T07:09:58.000Z</Time>
            <Position>
              <LatitudeDegrees>43.75680592842400074005126953125</LatitudeDegrees>
              <LongitudeDegrees>-1.39591972343623638153076171875</LongitudeDegrees>
            </Position>
            <AltitudeMeters>30.799999237060546875</AltitudeMeters>
            <DistanceMeters>NAN</DistanceMeters>
          </Trackpoint>
          <Trackpoint>
            <Time>2022-07-07T07:10:05.000Z</Time>
            <Position>
              <LatitudeDegrees>43.7565854005515575408935546875</LatitudeDegrees>
              <LongitudeDegrees>-1.39610144309699535369873046875</LongitudeDegrees>
            </Position>
            <AltitudeMeters>30.3999996185302734375</AltitudeMeters>
            <DistanceMeters>NAN</DistanceMeters>
          </Trackpoint>
          <Trackpoint>
            <Time>2022-07-07T07:10:15.000Z</Time>
            <Position>
              <LatitudeDegrees>43.75625909306108951568603515625</LatitudeDegrees>
              <LongitudeDegrees>-1.3963702507317066192626953125</LongitudeDegrees>
            </Position>
            <AltitudeMeters>30.799999237060546875</AltitudeMeters>
            <DistanceMeters>NAN</DistanceMeters>
          </Trackpoint>
          <Trackpoint>
            <Time>2022-07-07T07:10:27.000Z</Time>
            <Position>
              <LatitudeDegrees>43.7558645568788051605224609375</LatitudeDegrees>
              <LongitudeDegrees>-1.39667007140815258026123046875</LongitudeDegrees>
            </Position>
            <AltitudeMeters>30.6000003814697265625</AltitudeMeters>
            <DistanceMeters>NAN</DistanceMeters>
          </Trackpoint>
          <Trackpoint>
            <Time>2022-07-07T07:10:35.000Z</Time>
            <Position>
              <LatitudeDegrees>43.75559809617698192596435546875</LatitudeDegrees>
              <LongitudeDegrees>-1.39688816852867603302001953125</LongitudeDegrees>
            </Position>
            <AltitudeMeters>30.6000003814697265625</AltitudeMeters>
            <DistanceMeters>NAN</DistanceMeters>
          </Trackpoint>
          <Trackpoint>
            <Time>2022-07-07T07:10:43.000Z</Time>
            <Position>
              <LatitudeDegrees>43.75533792190253734588623046875</LatitudeDegrees>
              <LongitudeDegrees>-1.3971138931810855865478515625</LongitudeDegrees>
            </Position>
            <AltitudeMeters>30.799999237060546875</AltitudeMeters>
            <DistanceMeters>NAN</DistanceMeters>
          </Trackpoint>
          <Trackpoint>
            <Time>2022-07-07T07:10:46.000Z</Time>
            <Position>
              <LatitudeDegrees>43.75524437986314296722412109375</LatitudeDegrees>
              <LongitudeDegrees>-1.39718840830028057098388671875</LongitudeDegrees>
            </Position>
            <AltitudeMeters>30.799999237060546875</AltitudeMeters>
            <DistanceMeters>NAN</DistanceMeters>
          </Trackpoint>
          <Trackpoint>
            <Time>2022-07-07T07:10:49.000Z</Time>
            <Position>
              <LatitudeDegrees>43.75515536405146121978759765625</LatitudeDegrees>
              <LongitudeDegrees>-1.39726049266755580902099609375</LongitudeDegrees>
            </Position>
            <AltitudeMeters>30.799999237060546875</AltitudeMeters>
            <DistanceMeters>NAN</DistanceMeters>
          </Trackpoint>
          <Trackpoint>
            <Time>2022-07-07T07:10:54.000Z</Time>
            <Position>
              <LatitudeDegrees>43.75498387031257152557373046875</LatitudeDegrees>
              <LongitudeDegrees>-1.39740751124918460845947265625</LongitudeDegrees>
            </Position>
            <AltitudeMeters>31</AltitudeMeters>
            <DistanceMeters>NAN</DistanceMeters>
          </Trackpoint>
          <Trackpoint>
            <Time>2022-07-07T07:10:56.000Z</Time>
            <Position>
              <LatitudeDegrees>43.75491924583911895751953125</LatitudeDegrees>
              <LongitudeDegrees>-1.397461406886577606201171875</LongitudeDegrees>
            </Position>
            <AltitudeMeters>31.200000762939453125</AltitudeMeters>
            <DistanceMeters>NAN</DistanceMeters>
          </Trackpoint>
          <Trackpoint>
            <Time>2022-07-07T07:11:02.000Z</Time>
            <Position>
              <LatitudeDegrees>43.75472336076200008392333984375</LatitudeDegrees>
              <LongitudeDegrees>-1.39762124978005886077880859375</LongitudeDegrees>
            </Position>
            <AltitudeMeters>31.200000762939453125</AltitudeMeters>
            <DistanceMeters>NAN</DistanceMeters>
          </Trackpoint>
          <Trackpoint>
            <Time>2022-07-07T07:11:10.000Z</Time>
            <Position>
              <LatitudeDegrees>43.75447005964815616607666015625</LatitudeDegrees>
              <LongitudeDegrees>-1.3978364132344722747802734375</LongitudeDegrees>
            </Position>
            <AltitudeMeters>31.3999996185302734375</AltitudeMeters>
            <DistanceMeters>NAN</DistanceMeters>
          </Trackpoint>
          <Trackpoint>
            <Time>2022-07-07T07:11:18.000Z</Time>
            <Position>
              <LatitudeDegrees>43.75422656536102294921875</LatitudeDegrees>
              <LongitudeDegrees>-1.39805945567786693572998046875</LongitudeDegrees>
            </Position>
            <AltitudeMeters>31.200000762939453125</AltitudeMeters>
            <DistanceMeters>NAN</DistanceMeters>
          </Trackpoint>
          <Trackpoint>
            <Time>2022-07-07T07:11:23.000Z</Time>
            <Position>
              <LatitudeDegrees>43.7540765292942523956298828125</LatitudeDegrees>
              <LongitudeDegrees>-1.39817713759839534759521484375</LongitudeDegrees>
            </Position>
            <AltitudeMeters>31.3999996185302734375</AltitudeMeters>
            <DistanceMeters>NAN</DistanceMeters>
          </Trackpoint>
          <Trackpoint>
            <Time>2022-07-07T07:11:26.000Z</Time>
            <Position>
              <LatitudeDegrees>43.75397737137973308563232421875</LatitudeDegrees>
              <LongitudeDegrees>-1.39823866076767444610595703125</LongitudeDegrees>
            </Position>
            <AltitudeMeters>31.3999996185302734375</AltitudeMeters>
            <DistanceMeters>NAN</DistanceMeters>
          </Trackpoint>
          <Trackpoint>
            <Time>2022-07-07T07:11:35.000Z</Time>
            <Position>
              <LatitudeDegrees>43.75367696397006511688232421875</LatitudeDegrees>
              <LongitudeDegrees>-1.39844007790088653564453125</LongitudeDegrees>
            </Position>
            <AltitudeMeters>31.799999237060546875</AltitudeMeters>
            <DistanceMeters>NAN</DistanceMeters>
          </Trackpoint>
          <Trackpoint>
            <Time>2022-07-07T07:11:41.000Z</Time>
            <Position>
              <LatitudeDegrees>43.75343196094036102294921875</LatitudeDegrees>
              <LongitudeDegrees>-1.39858516864478588104248046875</LongitudeDegrees>
            </Position>
            <AltitudeMeters>31.3999996185302734375</AltitudeMeters>
            <DistanceMeters>NAN</DistanceMeters>
          </Trackpoint>
          <Trackpoint>
            <Time>2022-07-07T07:11:46.000Z</Time>
            <Position>
              <LatitudeDegrees>43.7532728724181652069091796875</LatitudeDegrees>
              <LongitudeDegrees>-1.398760937154293060302734375</LongitudeDegrees>
            </Position>
            <AltitudeMeters>31.3999996185302734375</AltitudeMeters>
            <DistanceMeters>NAN</DistanceMeters>
          </Trackpoint>
          <Trackpoint>
            <Time>2022-07-07T07:11:52.000Z</Time>
            <Position>
              <LatitudeDegrees>43.75309827737510204315185546875</LatitudeDegrees>
              <LongitudeDegrees>-1.3989357836544513702392578125</LongitudeDegrees>
            </Position>
            <AltitudeMeters>31.3999996185302734375</AltitudeMeters>
            <DistanceMeters>NAN</DistanceMeters>
          </Trackpoint>
          <Trackpoint>
            <Time>2022-07-07T07:11:54.000Z</Time>
            <Position>
              <LatitudeDegrees>43.75302921049296855926513671875</LatitudeDegrees>
              <LongitudeDegrees>-1.39898884110152721405029296875</LongitudeDegrees>
            </Position>
            <AltitudeMeters>31.200000762939453125</AltitudeMeters>
            <DistanceMeters>NAN</DistanceMeters>
          </Trackpoint>
          <Trackpoint>
            <Time>2022-07-07T07:12:04.000Z</Time>
            <Position>
              <LatitudeDegrees>43.75267650000751018524169921875</LatitudeDegrees>
              <LongitudeDegrees>-1.39923057518899440765380859375</LongitudeDegrees>
            </Position>
            <AltitudeMeters>31.3999996185302734375</AltitudeMeters>
            <DistanceMeters>NAN</DistanceMeters>
          </Trackpoint>
          <Trackpoint>
            <Time>2022-07-07T07:12:06.000Z</Time>
            <Position>
              <LatitudeDegrees>43.752616234123706817626953125</LatitudeDegrees>
              <LongitudeDegrees>-1.3993035815656185150146484375</LongitudeDegrees>
            </Position>
            <AltitudeMeters>31.6000003814697265625</AltitudeMeters>
            <DistanceMeters>NAN</DistanceMeters>
          </Trackpoint>
          <Trackpoint>
            <Time>2022-07-07T07:12:09.000Z</Time>
            <Position>
              <LatitudeDegrees>43.75252562575042247772216796875</LatitudeDegrees>
              <LongitudeDegrees>-1.39938496984541416168212890625</LongitudeDegrees>
            </Position>
            <AltitudeMeters>31.6000003814697265625</AltitudeMeters>
            <DistanceMeters>NAN</DistanceMeters>
          </Trackpoint>
          <Trackpoint>
            <Time>2022-07-07T07:12:14.000Z</Time>
            <Position>
              <LatitudeDegrees>43.7523149885237216949462890625</LatitudeDegrees>
              <LongitudeDegrees>-1.39955185353755950927734375</LongitudeDegrees>
            </Position>
            <AltitudeMeters>31.3999996185302734375</AltitudeMeters>
            <DistanceMeters>NAN</DistanceMeters>
          </Trackpoint>
          <Trackpoint>
            <Time>2022-07-07T07:12:22.000Z</Time>
            <Position>
              <LatitudeDegrees>43.75199454836547374725341796875</LatitudeDegrees>
              <LongitudeDegrees>-1.399777494370937347412109375</LongitudeDegrees>
            </Position>
            <AltitudeMeters>31.6000003814697265625</AltitudeMeters>
            <DistanceMeters>NAN</DistanceMeters>
          </Trackpoint>
          <Trackpoint>
            <Time>2022-07-07T07:12:23.000Z</Time>
            <Position>
              <LatitudeDegrees>43.7519560754299163818359375</LatitudeDegrees>
              <LongitudeDegrees>-1.39979450963437557220458984375</LongitudeDegrees>
            </Position>
            <AltitudeMeters>31.6000003814697265625</AltitudeMeters>
            <DistanceMeters>NAN</DistanceMeters>
          </Trackpoint>
          <Trackpoint>
            <Time>2022-07-07T07:12:25.000Z</Time>
            <Position>
              <LatitudeDegrees>43.751895725727081298828125</LatitudeDegrees>
              <LongitudeDegrees>-1.39984019100666046142578125</LongitudeDegrees>
            </Position>
            <AltitudeMeters>31.6000003814697265625</AltitudeMeters>
            <DistanceMeters>NAN</DistanceMeters>
          </Trackpoint>
          <Trackpoint>
            <Time>2022-07-07T07:12:27.000Z</Time>
            <Position>
              <LatitudeDegrees>43.75182925723493099212646484375</LatitudeDegrees>
              <LongitudeDegrees>-1.39990263618528842926025390625</LongitudeDegrees>
            </Position>
            <AltitudeMeters>31.6000003814697265625</AltitudeMeters>
            <DistanceMeters>NAN</DistanceMeters>
          </Trackpoint>
          <Trackpoint>
            <Time>2022-07-07T07:12:29.000Z</Time>
            <Position>
              <LatitudeDegrees>43.75175566412508487701416015625</LatitudeDegrees>
              <LongitudeDegrees>-1.39995829202234745025634765625</LongitudeDegrees>
            </Position>
            <AltitudeMeters>31.799999237060546875</AltitudeMeters>
            <DistanceMeters>NAN</DistanceMeters>
          </Trackpoint>
          <Trackpoint>
            <Time>2022-07-07T07:12:31.000Z</Time>
            <Position>
              <LatitudeDegrees>43.75168659724295139312744140625</LatitudeDegrees>
              <LongitudeDegrees>-1.4000096730887889862060546875</LongitudeDegrees>
            </Position>
            <AltitudeMeters>31.799999237060546875</AltitudeMeters>
            <DistanceMeters>NAN</DistanceMeters>
          </Trackpoint>
          <Trackpoint>
            <Time>2022-07-07T07:12:36.000Z</Time>
            <Position>
              <LatitudeDegrees>43.75154091976583003997802734375</LatitudeDegrees>
              <LongitudeDegrees>-1.4001451246440410614013671875</LongitudeDegrees>
            </Position>
            <AltitudeMeters>31.6000003814697265625</AltitudeMeters>
            <DistanceMeters>NAN</DistanceMeters>
          </Trackpoint>
          <Trackpoint>
            <Time>2022-07-07T07:12:39.000Z</Time>
            <Position>
              <LatitudeDegrees>43.7514570169150829315185546875</LatitudeDegrees>
              <LongitudeDegrees>-1.40022450126707553863525390625</LongitudeDegrees>
            </Position>
            <AltitudeMeters>31.6000003814697265625</AltitudeMeters>
            <DistanceMeters>NAN</DistanceMeters>
          </Trackpoint>
          <Trackpoint>
            <Time>2022-07-07T07:12:40.000Z</Time>
            <Position>
              <LatitudeDegrees>43.7514251656830310821533203125</LatitudeDegrees>
              <LongitudeDegrees>-1.40024662949144840240478515625</LongitudeDegrees>
            </Position>
            <AltitudeMeters>31.799999237060546875</AltitudeMeters>
            <DistanceMeters>NAN</DistanceMeters>
          </Trackpoint>
          <Trackpoint>
            <Time>2022-07-07T07:12:41.000Z</Time>
            <Position>
              <LatitudeDegrees>43.75138971023261547088623046875</LatitudeDegrees>
              <LongitudeDegrees>-1.40026867389678955078125</LongitudeDegrees>
            </Position>
            <AltitudeMeters>31.799999237060546875</AltitudeMeters>
            <DistanceMeters>NAN</DistanceMeters>
          </Trackpoint>
          <Trackpoint>
            <Time>2022-07-07T07:12:48.000Z</Time>
            <Position>
              <LatitudeDegrees>43.7511606328189373016357421875</LatitudeDegrees>
              <LongitudeDegrees>-1.40044846571981906890869140625</LongitudeDegrees>
            </Position>
            <AltitudeMeters>32</AltitudeMeters>
            <DistanceMeters>NAN</DistanceMeters>
          </Trackpoint>
          <Trackpoint>
            <Time>2022-07-07T07:12:53.000Z</Time>
            <Position>
              <LatitudeDegrees>43.75101285986602306365966796875</LatitudeDegrees>
              <LongitudeDegrees>-1.400561034679412841796875</LongitudeDegrees>
            </Position>
            <AltitudeMeters>32</AltitudeMeters>
            <DistanceMeters>NAN</DistanceMeters>
          </Trackpoint>
          <Trackpoint>
            <Time>2022-07-07T07:12:54.000Z</Time>
            <Position>
              <LatitudeDegrees>43.7509718723595142364501953125</LatitudeDegrees>
              <LongitudeDegrees>-1.40058592893183231353759765625</LongitudeDegrees>
            </Position>
            <AltitudeMeters>32</AltitudeMeters>
            <DistanceMeters>NAN</DistanceMeters>
          </Trackpoint>
          <Trackpoint>
            <Time>2022-07-07T07:13:02.000Z</Time>
            <Position>
              <LatitudeDegrees>43.7507026456296443939208984375</LatitudeDegrees>
              <LongitudeDegrees>-1.4008091390132904052734375</LongitudeDegrees>
            </Position>
            <AltitudeMeters>32</AltitudeMeters>
            <DistanceMeters>NAN</DistanceMeters>
          </Trackpoint>
          <Trackpoint>
            <Time>2022-07-07T07:13:04.000Z</Time>
            <Position>
              <LatitudeDegrees>43.75063165090978145599365234375</LatitudeDegrees>
              <LongitudeDegrees>-1.40089136548340320587158203125</LongitudeDegrees>
            </Position>
            <AltitudeMeters>32</AltitudeMeters>
            <DistanceMeters>NAN</DistanceMeters>
          </Trackpoint>
          <Trackpoint>
            <Time>2022-07-07T07:13:12.000Z</Time>
            <Position>
              <LatitudeDegrees>43.7503006495535373687744140625</LatitudeDegrees>
              <LongitudeDegrees>-1.40115841291844844818115234375</LongitudeDegrees>
            </Position>
            <AltitudeMeters>32</AltitudeMeters>
            <DistanceMeters>NAN</DistanceMeters>
          </Trackpoint>
          <Trackpoint>
            <Time>2022-07-07T07:13:20.000Z</Time>
            <Position>
              <LatitudeDegrees>43.7500129826366901397705078125</LatitudeDegrees>
              <LongitudeDegrees>-1.40139947645366191864013671875</LongitudeDegrees>
            </Position>
            <AltitudeMeters>32.200000762939453125</AltitudeMeters>
            <DistanceMeters>NAN</DistanceMeters>
          </Trackpoint>
          <Trackpoint>
            <Time>2022-07-07T07:13:22.000Z</Time>
            <Position>
              <LatitudeDegrees>43.74992807395756244659423828125</LatitudeDegrees>
              <LongitudeDegrees>-1.401465274393558502197265625</LongitudeDegrees>
            </Position>
            <AltitudeMeters>32.200000762939453125</AltitudeMeters>
            <DistanceMeters>NAN</DistanceMeters>
          </Trackpoint>
          <Trackpoint>
            <Time>2022-07-07T07:13:24.000Z</Time>
            <Position>
              <LatitudeDegrees>43.74985531903803348541259765625</LatitudeDegrees>
              <LongitudeDegrees>-1.40152101404964923858642578125</LongitudeDegrees>
            </Position>
            <AltitudeMeters>32.200000762939453125</AltitudeMeters>
            <DistanceMeters>NAN</DistanceMeters>
          </Trackpoint>
          <Trackpoint>
            <Time>2022-07-07T07:13:27.000Z</Time>
            <Position>
              <LatitudeDegrees>43.74973126687109470367431640625</LatitudeDegrees>
              <LongitudeDegrees>-1.4016099460422992706298828125</LongitudeDegrees>
            </Position>
            <AltitudeMeters>32</AltitudeMeters>
            <DistanceMeters>NAN</DistanceMeters>
          </Trackpoint>
          <Trackpoint>
            <Time>2022-07-07T07:13:35.000Z</Time>
            <Position>
              <LatitudeDegrees>43.74944309704005718231201171875</LatitudeDegrees>
              <LongitudeDegrees>-1.40181639231741428375244140625</LongitudeDegrees>
            </Position>
            <AltitudeMeters>32.40000152587890625</AltitudeMeters>
            <DistanceMeters>NAN</DistanceMeters>
          </Trackpoint>
          <Trackpoint>
            <Time>2022-07-07T07:13:37.000Z</Time>
            <Position>
              <LatitudeDegrees>43.74937369488179683685302734375</LatitudeDegrees>
              <LongitudeDegrees>-1.40186986885964870452880859375</LongitudeDegrees>
            </Position>
            <AltitudeMeters>32.40000152587890625</AltitudeMeters>
            <DistanceMeters>NAN</DistanceMeters>
          </Trackpoint>
          <Trackpoint>
            <Time>2022-07-07T07:13:46.000Z</Time>
            <Position>
              <LatitudeDegrees>43.7490485608577728271484375</LatitudeDegrees>
              <LongitudeDegrees>-1.4021628163754940032958984375</LongitudeDegrees>
            </Position>
            <AltitudeMeters>32.200000762939453125</AltitudeMeters>
            <DistanceMeters>NAN</DistanceMeters>
          </Trackpoint>
          <Trackpoint>
            <Time>2022-07-07T07:13:57.000Z</Time>
            <Position>
              <LatitudeDegrees>43.74867732636630535125732421875</LatitudeDegrees>
              <LongitudeDegrees>-1.4024806581437587738037109375</LongitudeDegrees>
            </Position>
            <AltitudeMeters>32</AltitudeMeters>
            <DistanceMeters>NAN</DistanceMeters>
          </Trackpoint>
          <Trackpoint>
            <Time>2022-07-07T07:14:06.000Z</Time>
            <Position>
              <LatitudeDegrees>43.74835311435163021087646484375</LatitudeDegrees>
              <LongitudeDegrees>-1.40271577052772045135498046875</LongitudeDegrees>
            </Position>
            <AltitudeMeters>32.40000152587890625</AltitudeMeters>
            <DistanceMeters>NAN</DistanceMeters>
          </Trackpoint>
          <Trackpoint>
            <Time>2022-07-07T07:14:09.000Z</Time>
            <Position>
              <LatitudeDegrees>43.74826108105480670928955078125</LatitudeDegrees>
              <LongitudeDegrees>-1.40279891900718212127685546875</LongitudeDegrees>
            </Position>
            <AltitudeMeters>32.200000762939453125</AltitudeMeters>
            <DistanceMeters>NAN</DistanceMeters>
          </Trackpoint>
          <Trackpoint>
            <Time>2022-07-07T07:14:14.000Z</Time>
            <Position>
              <LatitudeDegrees>43.74808631837368011474609375</LatitudeDegrees>
              <LongitudeDegrees>-1.40292204916477203369140625</LongitudeDegrees>
            </Position>
            <AltitudeMeters>31.799999237060546875</AltitudeMeters>
            <DistanceMeters>NAN</DistanceMeters>
          </Trackpoint>
          <Trackpoint>
            <Time>2022-07-07T07:14:21.000Z</Time>
            <Position>
              <LatitudeDegrees>43.74783553183078765869140625</LatitudeDegrees>
              <LongitudeDegrees>-1.403129585087299346923828125</LongitudeDegrees>
            </Position>
            <AltitudeMeters>31.799999237060546875</AltitudeMeters>
            <DistanceMeters>NAN</DistanceMeters>
          </Trackpoint>
          <Trackpoint>
            <Time>2022-07-07T07:14:31.000Z</Time>
            <Position>
              <LatitudeDegrees>43.74748173169791698455810546875</LatitudeDegrees>
              <LongitudeDegrees>-1.40342253260314464569091796875</LongitudeDegrees>
            </Position>
            <AltitudeMeters>31.6000003814697265625</AltitudeMeters>
            <DistanceMeters>NAN</DistanceMeters>
          </Trackpoint>
          <Trackpoint>
            <Time>2022-07-07T07:14:40.000Z</Time>
            <Position>
              <LatitudeDegrees>43.747164644300937652587890625</LatitudeDegrees>
              <LongitudeDegrees>-1.40367248095571994781494140625</LongitudeDegrees>
            </Position>
            <AltitudeMeters>31.200000762939453125</AltitudeMeters>
            <DistanceMeters>NAN</DistanceMeters>
          </Trackpoint>
          <Trackpoint>
            <Time>2022-07-07T07:14:50.000Z</Time>
            <Position>
              <LatitudeDegrees>43.74679709784686565399169921875</LatitudeDegrees>
              <LongitudeDegrees>-1.40396283008158206939697265625</LongitudeDegrees>
            </Position>
            <AltitudeMeters>31</AltitudeMeters>
            <DistanceMeters>NAN</DistanceMeters>
          </Trackpoint>
          <Trackpoint>
            <Time>2022-07-07T07:14:55.000Z</Time>
            <Position>
              <LatitudeDegrees>43.74664270319044589996337890625</LatitudeDegrees>
              <LongitudeDegrees>-1.404119320213794708251953125</LongitudeDegrees>
            </Position>
            <AltitudeMeters>31</AltitudeMeters>
            <DistanceMeters>NAN</DistanceMeters>
          </Trackpoint>
          <Trackpoint>
            <Time>2022-07-07T07:14:59.000Z</Time>
            <Position>
              <LatitudeDegrees>43.7464969418942928314208984375</LatitudeDegrees>
              <LongitudeDegrees>-1.4042338170111179351806640625</LongitudeDegrees>
            </Position>
            <AltitudeMeters>31</AltitudeMeters>
            <DistanceMeters>NAN</DistanceMeters>
          </Trackpoint>
          <Trackpoint>
            <Time>2022-07-07T07:15:03.000Z</Time>
            <Position>
              <LatitudeDegrees>43.7463480792939662933349609375</LatitudeDegrees>
              <LongitudeDegrees>-1.40433381311595439910888671875</LongitudeDegrees>
            </Position>
            <AltitudeMeters>31</AltitudeMeters>
            <DistanceMeters>NAN</DistanceMeters>
          </Trackpoint>
          <Trackpoint>
            <Time>2022-07-07T07:15:06.000Z</Time>
            <Position>
              <LatitudeDegrees>43.74625914730131626129150390625</LatitudeDegrees>
              <LongitudeDegrees>-1.40442769043147563934326171875</LongitudeDegrees>
            </Position>
            <AltitudeMeters>30.799999237060546875</AltitudeMeters>
            <DistanceMeters>NAN</DistanceMeters>
          </Trackpoint>
          <Trackpoint>
            <Time>2022-07-07T07:15:13.000Z</Time>
            <Position>
              <LatitudeDegrees>43.74603333882987499237060546875</LatitudeDegrees>
              <LongitudeDegrees>-1.404557861387729644775390625</LongitudeDegrees>
            </Position>
            <AltitudeMeters>30.6000003814697265625</AltitudeMeters>
            <DistanceMeters>NAN</DistanceMeters>
          </Trackpoint>
          <Trackpoint>
            <Time>2022-07-07T07:15:15.000Z</Time>
            <Position>
              <LatitudeDegrees>43.7459559738636016845703125</LatitudeDegrees>
              <LongitudeDegrees>-1.404633633792400360107421875</LongitudeDegrees>
            </Position>
            <AltitudeMeters>30.6000003814697265625</AltitudeMeters>
            <DistanceMeters>NAN</DistanceMeters>
          </Trackpoint>
          <Trackpoint>
            <Time>2022-07-07T07:15:21.000Z</Time>
            <Position>
              <LatitudeDegrees>43.7457559816539287567138671875</LatitudeDegrees>
              <LongitudeDegrees>-1.4048068039119243621826171875</LongitudeDegrees>
            </Position>
            <AltitudeMeters>30.6000003814697265625</AltitudeMeters>
            <DistanceMeters>NAN</DistanceMeters>
          </Trackpoint>
          <Trackpoint>
            <Time>2022-07-07T07:15:30.000Z</Time>
            <Position>
              <LatitudeDegrees>43.74543101526796817779541015625</LatitudeDegrees>
              <LongitudeDegrees>-1.40500612556934356689453125</LongitudeDegrees>
            </Position>
            <AltitudeMeters>30.799999237060546875</AltitudeMeters>
            <DistanceMeters>NAN</DistanceMeters>
          </Trackpoint>
          <Trackpoint>
            <Time>2022-07-07T07:15:38.000Z</Time>
            <Position>
              <LatitudeDegrees>43.7451588548719882965087890625</LatitudeDegrees>
              <LongitudeDegrees>-1.40527828596532344818115234375</LongitudeDegrees>
            </Position>
            <AltitudeMeters>30.6000003814697265625</AltitudeMeters>
            <DistanceMeters>NAN</DistanceMeters>
          </Trackpoint>
          <Trackpoint>
            <Time>2022-07-07T07:15:45.000Z</Time>
            <Position>
              <LatitudeDegrees>43.74489423818886280059814453125</LatitudeDegrees>
              <LongitudeDegrees>-1.40546956099569797515869140625</LongitudeDegrees>
            </Position>
            <AltitudeMeters>30.3999996185302734375</AltitudeMeters>
            <DistanceMeters>NAN</DistanceMeters>
          </Trackpoint>
          <Trackpoint>
            <Time>2022-07-07T07:15:46.000Z</Time>
            <Position>
              <LatitudeDegrees>43.7448567710816860198974609375</LatitudeDegrees>
              <LongitudeDegrees>-1.4055018313229084014892578125</LongitudeDegrees>
            </Position>
            <AltitudeMeters>30.3999996185302734375</AltitudeMeters>
            <DistanceMeters>NAN</DistanceMeters>
          </Trackpoint>
          <Trackpoint>
            <Time>2022-07-07T07:15:51.000Z</Time>
            <Position>
              <LatitudeDegrees>43.74467832036316394805908203125</LatitudeDegrees>
              <LongitudeDegrees>-1.4056755043566226959228515625</LongitudeDegrees>
            </Position>
            <AltitudeMeters>30.3999996185302734375</AltitudeMeters>
            <DistanceMeters>NAN</DistanceMeters>
          </Trackpoint>
          <Trackpoint>
            <Time>2022-07-07T07:15:53.000Z</Time>
            <Position>
              <LatitudeDegrees>43.744610510766506195068359375</LatitudeDegrees>
              <LongitudeDegrees>-1.40571917407214641571044921875</LongitudeDegrees>
            </Position>
            <AltitudeMeters>30.3999996185302734375</AltitudeMeters>
            <DistanceMeters>NAN</DistanceMeters>
          </Trackpoint>
          <Trackpoint>
            <Time>2022-07-07T07:15:54.000Z</Time>
            <Position>
              <LatitudeDegrees>43.744571618735790252685546875</LatitudeDegrees>
              <LongitudeDegrees>-1.40575001947581768035888671875</LongitudeDegrees>
            </Position>
            <AltitudeMeters>30.200000762939453125</AltitudeMeters>
            <DistanceMeters>NAN</DistanceMeters>
          </Trackpoint>
          <Trackpoint>
            <Time>2022-07-07T07:15:55.000Z</Time>
            <Position>
              <LatitudeDegrees>43.744529373943805694580078125</LatitudeDegrees>
              <LongitudeDegrees>-1.4057760871946811676025390625</LongitudeDegrees>
            </Position>
            <AltitudeMeters>30.200000762939453125</AltitudeMeters>
            <DistanceMeters>NAN</DistanceMeters>
          </Trackpoint>
          <Trackpoint>
            <Time>2022-07-07T07:15:58.000Z</Time>
            <Position>
              <LatitudeDegrees>43.7444239296019077301025390625</LatitudeDegrees>
              <LongitudeDegrees>-1.40582419931888580322265625</LongitudeDegrees>
            </Position>
            <AltitudeMeters>30.200000762939453125</AltitudeMeters>
            <DistanceMeters>NAN</DistanceMeters>
          </Trackpoint>
          <Trackpoint>
            <Time>2022-07-07T07:15:59.000Z</Time>
            <Position>
              <LatitudeDegrees>43.744397945702075958251953125</LatitudeDegrees>
              <LongitudeDegrees>-1.4058491773903369903564453125</LongitudeDegrees>
            </Position>
            <AltitudeMeters>30.200000762939453125</AltitudeMeters>
            <DistanceMeters>NAN</DistanceMeters>
          </Trackpoint>
          <Trackpoint>
            <Time>2022-07-07T07:16:07.000Z</Time>
            <Position>
              <LatitudeDegrees>43.7441355921328067779541015625</LatitudeDegrees>
              <LongitudeDegrees>-1.40608613379299640655517578125</LongitudeDegrees>
            </Position>
            <AltitudeMeters>30.200000762939453125</AltitudeMeters>
            <DistanceMeters>NAN</DistanceMeters>
          </Trackpoint>
          <Trackpoint>
            <Time>2022-07-07T07:16:15.000Z</Time>
            <Position>
              <LatitudeDegrees>43.743871562182903289794921875</LatitudeDegrees>
              <LongitudeDegrees>-1.406300961971282958984375</LongitudeDegrees>
            </Position>
            <AltitudeMeters>30.200000762939453125</AltitudeMeters>
            <DistanceMeters>NAN</DistanceMeters>
          </Trackpoint>
          <Trackpoint>
            <Time>2022-07-07T07:16:21.000Z</Time>
            <Position>
              <LatitudeDegrees>43.74367408454418182373046875</LatitudeDegrees>
              <LongitudeDegrees>-1.40645845793187618255615234375</LongitudeDegrees>
            </Position>
            <AltitudeMeters>30</AltitudeMeters>
            <DistanceMeters>NAN</DistanceMeters>
          </Trackpoint>
          <Trackpoint>
            <Time>2022-07-07T07:16:27.000Z</Time>
            <Position>
              <LatitudeDegrees>43.74347417615354061126708984375</LatitudeDegrees>
              <LongitudeDegrees>-1.40660581178963184356689453125</LongitudeDegrees>
            </Position>
            <AltitudeMeters>29.799999237060546875</AltitudeMeters>
            <DistanceMeters>NAN</DistanceMeters>
          </Trackpoint>
          <Trackpoint>
            <Time>2022-07-07T07:16:34.000Z</Time>
            <Position>
              <LatitudeDegrees>43.7432340346276760101318359375</LatitudeDegrees>
              <LongitudeDegrees>-1.40682575292885303497314453125</LongitudeDegrees>
            </Position>
            <AltitudeMeters>29.799999237060546875</AltitudeMeters>
            <DistanceMeters>NAN</DistanceMeters>
          </Trackpoint>
          <Trackpoint>
            <Time>2022-07-07T07:16:41.000Z</Time>
            <Position>
              <LatitudeDegrees>43.74300378374755382537841796875</LatitudeDegrees>
              <LongitudeDegrees>-1.40702272765338420867919921875</LongitudeDegrees>
            </Position>
            <AltitudeMeters>30</AltitudeMeters>
            <DistanceMeters>NAN</DistanceMeters>
          </Trackpoint>
          <Trackpoint>
            <Time>2022-07-07T07:16:46.000Z</Time>
            <Position>
              <LatitudeDegrees>43.742848969995975494384765625</LatitudeDegrees>
              <LongitudeDegrees>-1.40715499408543109893798828125</LongitudeDegrees>
            </Position>
            <AltitudeMeters>30</AltitudeMeters>
            <DistanceMeters>NAN</DistanceMeters>
          </Trackpoint>
          <Trackpoint>
            <Time>2022-07-07T07:16:48.000Z</Time>
            <Position>
              <LatitudeDegrees>43.74278250150382518768310546875</LatitudeDegrees>
              <LongitudeDegrees>-1.40720964409410953521728515625</LongitudeDegrees>
            </Position>
            <AltitudeMeters>30</AltitudeMeters>
            <DistanceMeters>NAN</DistanceMeters>
          </Trackpoint>
          <Trackpoint>
            <Time>2022-07-07T07:16:49.000Z</Time>
            <Position>
              <LatitudeDegrees>43.7427445314824581146240234375</LatitudeDegrees>
              <LongitudeDegrees>-1.407244093716144561767578125</LongitudeDegrees>
            </Position>
            <AltitudeMeters>30</AltitudeMeters>
            <DistanceMeters>NAN</DistanceMeters>
          </Trackpoint>
          <Trackpoint>
            <Time>2022-07-07T07:16:53.000Z</Time>
            <Position>
              <LatitudeDegrees>43.74262508936226367950439453125</LatitudeDegrees>
              <LongitudeDegrees>-1.407358087599277496337890625</LongitudeDegrees>
            </Position>
            <AltitudeMeters>30</AltitudeMeters>
            <DistanceMeters>NAN</DistanceMeters>
          </Trackpoint>
          <Trackpoint>
            <Time>2022-07-07T07:16:56.000Z</Time>
            <Position>
              <LatitudeDegrees>43.742524087429046630859375</LatitudeDegrees>
              <LongitudeDegrees>-1.40743042342364788055419921875</LongitudeDegrees>
            </Position>
            <AltitudeMeters>30</AltitudeMeters>
            <DistanceMeters>NAN</DistanceMeters>
          </Trackpoint>
          <Trackpoint>
            <Time>2022-07-07T07:16:57.000Z</Time>
            <Position>
              <LatitudeDegrees>43.7424816749989986419677734375</LatitudeDegrees>
              <LongitudeDegrees>-1.4074585027992725372314453125</LongitudeDegrees>
            </Position>
            <AltitudeMeters>30</AltitudeMeters>
            <DistanceMeters>NAN</DistanceMeters>
          </Trackpoint>
          <Trackpoint>
            <Time>2022-07-07T07:17:06.000Z</Time>
            <Position>
              <LatitudeDegrees>43.74219618737697601318359375</LatitudeDegrees>
              <LongitudeDegrees>-1.40766997821629047393798828125</LongitudeDegrees>
            </Position>
            <AltitudeMeters>30.3999996185302734375</AltitudeMeters>
            <DistanceMeters>NAN</DistanceMeters>
          </Trackpoint>
          <Trackpoint>
            <Time>2022-07-07T07:17:11.000Z</Time>
            <Position>
              <LatitudeDegrees>43.74203349463641643524169921875</LatitudeDegrees>
              <LongitudeDegrees>-1.40777684748172760009765625</LongitudeDegrees>
            </Position>
            <AltitudeMeters>30.3999996185302734375</AltitudeMeters>
            <DistanceMeters>NAN</DistanceMeters>
          </Trackpoint>
          <Trackpoint>
            <Time>2022-07-07T07:17:17.000Z</Time>
            <Position>
              <LatitudeDegrees>43.741864264011383056640625</LatitudeDegrees>
              <LongitudeDegrees>-1.40789796598255634307861328125</LongitudeDegrees>
            </Position>
            <AltitudeMeters>30.3999996185302734375</AltitudeMeters>
            <DistanceMeters>NAN</DistanceMeters>
          </Trackpoint>
          <Trackpoint>
            <Time>2022-07-07T07:17:23.000Z</Time>
            <Position>
              <LatitudeDegrees>43.7416684627532958984375</LatitudeDegrees>
              <LongitudeDegrees>-1.4080566354095935821533203125</LongitudeDegrees>
            </Position>
            <AltitudeMeters>30.6000003814697265625</AltitudeMeters>
            <DistanceMeters>NAN</DistanceMeters>
          </Trackpoint>
          <Trackpoint>
            <Time>2022-07-07T07:17:29.000Z</Time>
            <Position>
              <LatitudeDegrees>43.74146922491490840911865234375</LatitudeDegrees>
              <LongitudeDegrees>-1.4081790111958980560302734375</LongitudeDegrees>
            </Position>
            <AltitudeMeters>30.6000003814697265625</AltitudeMeters>
            <DistanceMeters>NAN</DistanceMeters>
          </Trackpoint>
          <Trackpoint>
            <Time>2022-07-07T07:17:37.000Z</Time>
            <Position>
              <LatitudeDegrees>43.74115356244146823883056640625</LatitudeDegrees>
              <LongitudeDegrees>-1.40849324874579906463623046875</LongitudeDegrees>
            </Position>
            <AltitudeMeters>30.799999237060546875</AltitudeMeters>
            <DistanceMeters>NAN</DistanceMeters>
          </Trackpoint>
          <Trackpoint>
            <Time>2022-07-07T07:17:43.000Z</Time>
            <Position>
              <LatitudeDegrees>43.740963377058506011962890625</LatitudeDegrees>
              <LongitudeDegrees>-1.40867882408201694488525390625</LongitudeDegrees>
            </Position>
            <AltitudeMeters>30.799999237060546875</AltitudeMeters>
            <DistanceMeters>NAN</DistanceMeters>
          </Trackpoint>
          <Trackpoint>
            <Time>2022-07-07T07:17:44.000Z</Time>
            <Position>
              <LatitudeDegrees>43.74093848280608654022216796875</LatitudeDegrees>
              <LongitudeDegrees>-1.4086983539164066314697265625</LongitudeDegrees>
            </Position>
            <AltitudeMeters>30.799999237060546875</AltitudeMeters>
            <DistanceMeters>NAN</DistanceMeters>
          </Trackpoint>
          <Trackpoint>
            <Time>2022-07-07T07:17:47.000Z</Time>
            <Position>
              <LatitudeDegrees>43.7408160232007503509521484375</LatitudeDegrees>
              <LongitudeDegrees>-1.4088012836873531341552734375</LongitudeDegrees>
            </Position>
            <AltitudeMeters>30.6000003814697265625</AltitudeMeters>
            <DistanceMeters>NAN</DistanceMeters>
          </Trackpoint>
          <Trackpoint>
            <Time>2022-07-07T07:17:51.000Z</Time>
            <Position>
              <LatitudeDegrees>43.7406658194959163665771484375</LatitudeDegrees>
              <LongitudeDegrees>-1.40891787596046924591064453125</LongitudeDegrees>
            </Position>
            <AltitudeMeters>30.799999237060546875</AltitudeMeters>
            <DistanceMeters>NAN</DistanceMeters>
          </Trackpoint>
          <Trackpoint>
            <Time>2022-07-07T07:18:00.000Z</Time>
            <Position>
              <LatitudeDegrees>43.7403543479740619659423828125</LatitudeDegrees>
              <LongitudeDegrees>-1.40917989425361156463623046875</LongitudeDegrees>
            </Position>
            <AltitudeMeters>31.200000762939453125</AltitudeMeters>
            <DistanceMeters>NAN</DistanceMeters>
          </Trackpoint>
          <Trackpoint>
            <Time>2022-07-07T07:18:07.000Z</Time>
            <Position>
              <LatitudeDegrees>43.74014706350862979888916015625</LatitudeDegrees>
              <LongitudeDegrees>-1.40936915762722492218017578125</LongitudeDegrees>
            </Position>
            <AltitudeMeters>31.3999996185302734375</AltitudeMeters>
            <DistanceMeters>NAN</DistanceMeters>
          </Trackpoint>
          <Trackpoint>
            <Time>2022-07-07T07:18:08.000Z</Time>
            <Position>
              <LatitudeDegrees>43.740121163427829742431640625</LatitudeDegrees>
              <LongitudeDegrees>-1.40938877128064632415771484375</LongitudeDegrees>
            </Position>
            <AltitudeMeters>31.6000003814697265625</AltitudeMeters>
            <DistanceMeters>NAN</DistanceMeters>
          </Trackpoint>
          <Trackpoint>
            <Time>2022-07-07T07:18:16.000Z</Time>
            <Position>
              <LatitudeDegrees>43.73987196944653987884521484375</LatitudeDegrees>
              <LongitudeDegrees>-1.40958021394908428192138671875</LongitudeDegrees>
            </Position>
            <AltitudeMeters>31.3999996185302734375</AltitudeMeters>
            <DistanceMeters>NAN</DistanceMeters>
          </Trackpoint>
          <Trackpoint>
            <Time>2022-07-07T07:18:22.000Z</Time>
            <Position>
              <LatitudeDegrees>43.7396086938679218292236328125</LatitudeDegrees>
              <LongitudeDegrees>-1.4098124764859676361083984375</LongitudeDegrees>
            </Position>
            <AltitudeMeters>31.3999996185302734375</AltitudeMeters>
            <DistanceMeters>NAN</DistanceMeters>
          </Trackpoint>
          <Trackpoint>
            <Time>2022-07-07T07:18:26.000Z</Time>
            <Position>
              <LatitudeDegrees>43.7394598312675952911376953125</LatitudeDegrees>
              <LongitudeDegrees>-1.40991884283721446990966796875</LongitudeDegrees>
            </Position>
            <AltitudeMeters>31.3999996185302734375</AltitudeMeters>
            <DistanceMeters>NAN</DistanceMeters>
          </Trackpoint>
          <Trackpoint>
            <Time>2022-07-07T07:18:31.000Z</Time>
            <Position>
              <LatitudeDegrees>43.73932865448296070098876953125</LatitudeDegrees>
              <LongitudeDegrees>-1.41000417061150074005126953125</LongitudeDegrees>
            </Position>
            <AltitudeMeters>31.3999996185302734375</AltitudeMeters>
            <DistanceMeters>NAN</DistanceMeters>
          </Trackpoint>
          <Trackpoint>
            <Time>2022-07-07T07:18:35.000Z</Time>
            <Position>
              <LatitudeDegrees>43.73920476995408535003662109375</LatitudeDegrees>
              <LongitudeDegrees>-1.41012453474104404449462890625</LongitudeDegrees>
            </Position>
            <AltitudeMeters>31.3999996185302734375</AltitudeMeters>
            <DistanceMeters>NAN</DistanceMeters>
          </Trackpoint>
          <Trackpoint>
            <Time>2022-07-07T07:18:38.000Z</Time>
            <Position>
              <LatitudeDegrees>43.739109300076961517333984375</LatitudeDegrees>
              <LongitudeDegrees>-1.410201899707317352294921875</LongitudeDegrees>
            </Position>
            <AltitudeMeters>31.6000003814697265625</AltitudeMeters>
            <DistanceMeters>NAN</DistanceMeters>
          </Trackpoint>
          <Trackpoint>
            <Time>2022-07-07T07:18:44.000Z</Time>
            <Position>
              <LatitudeDegrees>43.73890578746795654296875</LatitudeDegrees>
              <LongitudeDegrees>-1.4103415422141551971435546875</LongitudeDegrees>
            </Position>
            <AltitudeMeters>31.799999237060546875</AltitudeMeters>
            <DistanceMeters>NAN</DistanceMeters>
          </Trackpoint>
          <Trackpoint>
            <Time>2022-07-07T07:18:47.000Z</Time>
            <Position>
              <LatitudeDegrees>43.738806881010532379150390625</LatitudeDegrees>
              <LongitudeDegrees>-1.4104035682976245880126953125</LongitudeDegrees>
            </Position>
            <AltitudeMeters>31.799999237060546875</AltitudeMeters>
            <DistanceMeters>NAN</DistanceMeters>
          </Trackpoint>
          <Trackpoint>
            <Time>2022-07-07T07:18:56.000Z</Time>
            <Position>
              <LatitudeDegrees>43.73845358379185199737548828125</LatitudeDegrees>
              <LongitudeDegrees>-1.4106389321386814117431640625</LongitudeDegrees>
            </Position>
            <AltitudeMeters>31.6000003814697265625</AltitudeMeters>
            <DistanceMeters>NAN</DistanceMeters>
          </Trackpoint>
          <Trackpoint>
            <Time>2022-07-07T07:19:02.000Z</Time>
            <Position>
              <LatitudeDegrees>43.738250993192195892333984375</LatitudeDegrees>
              <LongitudeDegrees>-1.4108310453593730926513671875</LongitudeDegrees>
            </Position>
            <AltitudeMeters>31.6000003814697265625</AltitudeMeters>
            <DistanceMeters>NAN</DistanceMeters>
          </Trackpoint>
          <Trackpoint>
            <Time>2022-07-07T07:19:09.000Z</Time>
            <Position>
              <LatitudeDegrees>43.7379909865558147430419921875</LatitudeDegrees>
              <LongitudeDegrees>-1.4110791496932506561279296875</LongitudeDegrees>
            </Position>
            <AltitudeMeters>31.6000003814697265625</AltitudeMeters>
            <DistanceMeters>NAN</DistanceMeters>
          </Trackpoint>
          <Trackpoint>
            <Time>2022-07-07T07:19:14.000Z</Time>
            <Position>
              <LatitudeDegrees>43.73785209842026233673095703125</LatitudeDegrees>
              <LongitudeDegrees>-1.4112216420471668243408203125</LongitudeDegrees>
            </Position>
            <AltitudeMeters>31.6000003814697265625</AltitudeMeters>
            <DistanceMeters>NAN</DistanceMeters>
          </Trackpoint>
          <Trackpoint>
            <Time>2022-07-07T07:19:15.000Z</Time>
            <Position>
              <LatitudeDegrees>43.7378397770226001739501953125</LatitudeDegrees>
              <LongitudeDegrees>-1.41124762594699859619140625</LongitudeDegrees>
            </Position>
            <AltitudeMeters>31.6000003814697265625</AltitudeMeters>
            <DistanceMeters>NAN</DistanceMeters>
          </Trackpoint>
          <Trackpoint>
            <Time>2022-07-07T07:19:20.000Z</Time>
            <Position>
              <LatitudeDegrees>43.7376050837337970733642578125</LatitudeDegrees>
              <LongitudeDegrees>-1.41143747605383396148681640625</LongitudeDegrees>
            </Position>
            <AltitudeMeters>31.6000003814697265625</AltitudeMeters>
            <DistanceMeters>NAN</DistanceMeters>
          </Trackpoint>
          <Trackpoint>
            <Time>2022-07-07T07:19:23.000Z</Time>
            <Position>
              <LatitudeDegrees>43.7374947778880596160888671875</LatitudeDegrees>
              <LongitudeDegrees>-1.4115247316658496856689453125</LongitudeDegrees>
            </Position>
            <AltitudeMeters>31.3999996185302734375</AltitudeMeters>
            <DistanceMeters>NAN</DistanceMeters>
          </Trackpoint>
          <Trackpoint>
            <Time>2022-07-07T07:19:28.000Z</Time>
            <Position>
              <LatitudeDegrees>43.737363517284393310546875</LatitudeDegrees>
              <LongitudeDegrees>-1.41162321902811527252197265625</LongitudeDegrees>
            </Position>
            <AltitudeMeters>31.6000003814697265625</AltitudeMeters>
            <DistanceMeters>NAN</DistanceMeters>
          </Trackpoint>
          <Trackpoint>
            <Time>2022-07-07T07:19:37.000Z</Time>
            <Position>
              <LatitudeDegrees>43.7370847351849079132080078125</LatitudeDegrees>
              <LongitudeDegrees>-1.411831676959991455078125</LongitudeDegrees>
            </Position>
            <AltitudeMeters>32.40000152587890625</AltitudeMeters>
            <DistanceMeters>NAN</DistanceMeters>
          </Trackpoint>
          <Trackpoint>
            <Time>2022-07-07T07:19:41.000Z</Time>
            <Position>
              <LatitudeDegrees>43.7369920313358306884765625</LatitudeDegrees>
              <LongitudeDegrees>-1.41191842965781688690185546875</LongitudeDegrees>
            </Position>
            <AltitudeMeters>32.799999237060546875</AltitudeMeters>
            <DistanceMeters>NAN</DistanceMeters>
          </Trackpoint>
          <Trackpoint>
            <Time>2022-07-07T07:19:46.000Z</Time>
            <Position>
              <LatitudeDegrees>43.7368544004857540130615234375</LatitudeDegrees>
              <LongitudeDegrees>-1.41201381571590900421142578125</LongitudeDegrees>
            </Position>
            <AltitudeMeters>32.799999237060546875</AltitudeMeters>
            <DistanceMeters>NAN</DistanceMeters>
          </Trackpoint>
          <Trackpoint>
            <Time>2022-07-07T07:19:53.000Z</Time>
            <Position>
              <LatitudeDegrees>43.73666035942733287811279296875</LatitudeDegrees>
              <LongitudeDegrees>-1.4121812023222446441650390625</LongitudeDegrees>
            </Position>
            <AltitudeMeters>32.799999237060546875</AltitudeMeters>
            <DistanceMeters>NAN</DistanceMeters>
          </Trackpoint>
          <Trackpoint>
            <Time>2022-07-07T07:19:55.000Z</Time>
            <Position>
              <LatitudeDegrees>43.73658240772783756256103515625</LatitudeDegrees>
              <LongitudeDegrees>-1.41223342157900333404541015625</LongitudeDegrees>
            </Position>
            <AltitudeMeters>32.799999237060546875</AltitudeMeters>
            <DistanceMeters>NAN</DistanceMeters>
          </Trackpoint>
          <Trackpoint>
            <Time>2022-07-07T07:19:56.000Z</Time>
            <Position>
              <LatitudeDegrees>43.73654301278293132781982421875</LatitudeDegrees>
              <LongitudeDegrees>-1.41225219704210758209228515625</LongitudeDegrees>
            </Position>
            <AltitudeMeters>32.59999847412109375</AltitudeMeters>
            <DistanceMeters>NAN</DistanceMeters>
          </Trackpoint>
          <Trackpoint>
            <Time>2022-07-07T07:19:58.000Z</Time>
            <Position>
              <LatitudeDegrees>43.736463300883769989013671875</LatitudeDegrees>
              <LongitudeDegrees>-1.41227482818067073822021484375</LongitudeDegrees>
            </Position>
            <AltitudeMeters>32.59999847412109375</AltitudeMeters>
            <DistanceMeters>NAN</DistanceMeters>
          </Trackpoint>
          <Trackpoint>
            <Time>2022-07-07T07:19:59.000Z</Time>
            <Position>
              <LatitudeDegrees>43.73640772886574268341064453125</LatitudeDegrees>
              <LongitudeDegrees>-1.41228421591222286224365234375</LongitudeDegrees>
            </Position>
            <AltitudeMeters>32.40000152587890625</AltitudeMeters>
            <DistanceMeters>NAN</DistanceMeters>
          </Trackpoint>
          <Trackpoint>
            <Time>2022-07-07T07:20:03.000Z</Time>
            <Position>
              <LatitudeDegrees>43.73623363673686981201171875</LatitudeDegrees>
              <LongitudeDegrees>-1.41224616207182407379150390625</LongitudeDegrees>
            </Position>
            <AltitudeMeters>32</AltitudeMeters>
            <DistanceMeters>NAN</DistanceMeters>
          </Trackpoint>
          <Trackpoint>
            <Time>2022-07-07T07:20:10.000Z</Time>
            <Position>
              <LatitudeDegrees>43.73595695011317729949951171875</LatitudeDegrees>
              <LongitudeDegrees>-1.41208640299737453460693359375</LongitudeDegrees>
            </Position>
            <AltitudeMeters>31.799999237060546875</AltitudeMeters>
            <DistanceMeters>NAN</DistanceMeters>
          </Trackpoint>
          <Trackpoint>
            <Time>2022-07-07T07:20:11.000Z</Time>
            <Position>
              <LatitudeDegrees>43.73592442832887172698974609375</LatitudeDegrees>
              <LongitudeDegrees>-1.4120584912598133087158203125</LongitudeDegrees>
            </Position>
            <AltitudeMeters>31.799999237060546875</AltitudeMeters>
            <DistanceMeters>NAN</DistanceMeters>
          </Trackpoint>
          <Trackpoint>
            <Time>2022-07-07T07:20:15.000Z</Time>
            <Position>
              <LatitudeDegrees>43.73577841557562351226806640625</LatitudeDegrees>
              <LongitudeDegrees>-1.411974169313907623291015625</LongitudeDegrees>
            </Position>
            <AltitudeMeters>31.3999996185302734375</AltitudeMeters>
            <DistanceMeters>NAN</DistanceMeters>
          </Trackpoint>
          <Trackpoint>
            <Time>2022-07-07T07:20:19.000Z</Time>
            <Position>
              <LatitudeDegrees>43.73567313887178897857666015625</LatitudeDegrees>
              <LongitudeDegrees>-1.41188959591090679168701171875</LongitudeDegrees>
            </Position>
            <AltitudeMeters>31.3999996185302734375</AltitudeMeters>
            <DistanceMeters>NAN</DistanceMeters>
          </Trackpoint>
          <Trackpoint>
            <Time>2022-07-07T07:20:20.000Z</Time>
            <Position>
              <LatitudeDegrees>43.735641203820705413818359375</LatitudeDegrees>
              <LongitudeDegrees>-1.4118598401546478271484375</LongitudeDegrees>
            </Position>
            <AltitudeMeters>31.3999996185302734375</AltitudeMeters>
            <DistanceMeters>NAN</DistanceMeters>
          </Trackpoint>
          <Trackpoint>
            <Time>2022-07-07T07:20:23.000Z</Time>
            <Position>
              <LatitudeDegrees>43.735518157482147216796875</LatitudeDegrees>
              <LongitudeDegrees>-1.4117956347763538360595703125</LongitudeDegrees>
            </Position>
            <AltitudeMeters>31.3999996185302734375</AltitudeMeters>
            <DistanceMeters>NAN</DistanceMeters>
          </Trackpoint>
          <Trackpoint>
            <Time>2022-07-07T07:20:27.000Z</Time>
            <Position>
              <LatitudeDegrees>43.735440708696842193603515625</LatitudeDegrees>
              <LongitudeDegrees>-1.411717347800731658935546875</LongitudeDegrees>
            </Position>
            <AltitudeMeters>31.3999996185302734375</AltitudeMeters>
            <DistanceMeters>NAN</DistanceMeters>
          </Trackpoint>
          <Trackpoint>
            <Time>2022-07-07T07:20:32.000Z</Time>
            <Position>
              <LatitudeDegrees>43.7352940253913402557373046875</LatitudeDegrees>
              <LongitudeDegrees>-1.41161785461008548736572265625</LongitudeDegrees>
            </Position>
            <AltitudeMeters>31.3999996185302734375</AltitudeMeters>
            <DistanceMeters>NAN</DistanceMeters>
          </Trackpoint>
          <Trackpoint>
            <Time>2022-07-07T07:20:35.000Z</Time>
            <Position>
              <LatitudeDegrees>43.73519319109618663787841796875</LatitudeDegrees>
              <LongitudeDegrees>-1.41156856901943683624267578125</LongitudeDegrees>
            </Position>
            <AltitudeMeters>31.6000003814697265625</AltitudeMeters>
            <DistanceMeters>NAN</DistanceMeters>
          </Trackpoint>
          <Trackpoint>
            <Time>2022-07-07T07:20:39.000Z</Time>
            <Position>
              <LatitudeDegrees>43.73503829352557659149169921875</LatitudeDegrees>
              <LongitudeDegrees>-1.4114814810454845428466796875</LongitudeDegrees>
            </Position>
            <AltitudeMeters>31.799999237060546875</AltitudeMeters>
            <DistanceMeters>NAN</DistanceMeters>
          </Trackpoint>
          <Trackpoint>
            <Time>2022-07-07T07:20:43.000Z</Time>
            <Position>
              <LatitudeDegrees>43.73490669764578342437744140625</LatitudeDegrees>
              <LongitudeDegrees>-1.41146396286785602569580078125</LongitudeDegrees>
            </Position>
            <AltitudeMeters>32.200000762939453125</AltitudeMeters>
            <DistanceMeters>NAN</DistanceMeters>
          </Trackpoint>
          <Trackpoint>
            <Time>2022-07-07T07:20:48.000Z</Time>
            <Position>
              <LatitudeDegrees>43.734647445380687713623046875</LatitudeDegrees>
              <LongitudeDegrees>-1.41143797896802425384521484375</LongitudeDegrees>
            </Position>
            <AltitudeMeters>32.40000152587890625</AltitudeMeters>
            <DistanceMeters>NAN</DistanceMeters>
          </Trackpoint>
          <Trackpoint>
            <Time>2022-07-07T07:20:53.000Z</Time>
            <Position>
              <LatitudeDegrees>43.734443597495555877685546875</LatitudeDegrees>
              <LongitudeDegrees>-1.411430351436138153076171875</LongitudeDegrees>
            </Position>
            <AltitudeMeters>32.40000152587890625</AltitudeMeters>
            <DistanceMeters>NAN</DistanceMeters>
          </Trackpoint>
          <Trackpoint>
            <Time>2022-07-07T07:20:57.000Z</Time>
            <Position>
              <LatitudeDegrees>43.7342774681746959686279296875</LatitudeDegrees>
              <LongitudeDegrees>-1.4114816486835479736328125</LongitudeDegrees>
            </Position>
            <AltitudeMeters>32.40000152587890625</AltitudeMeters>
            <DistanceMeters>NAN</DistanceMeters>
          </Trackpoint>
          <Trackpoint>
            <Time>2022-07-07T07:21:00.000Z</Time>
            <Position>
              <LatitudeDegrees>43.73413941822946071624755859375</LatitudeDegrees>
              <LongitudeDegrees>-1.411514170467853546142578125</LongitudeDegrees>
            </Position>
            <AltitudeMeters>32.40000152587890625</AltitudeMeters>
            <DistanceMeters>NAN</DistanceMeters>
          </Trackpoint>
          <Trackpoint>
            <Time>2022-07-07T07:21:05.000Z</Time>
            <Position>
              <LatitudeDegrees>43.7339643202722072601318359375</LatitudeDegrees>
              <LongitudeDegrees>-1.4116266556084156036376953125</LongitudeDegrees>
            </Position>
            <AltitudeMeters>32.40000152587890625</AltitudeMeters>
            <DistanceMeters>NAN</DistanceMeters>
          </Trackpoint>
          <Trackpoint>
            <Time>2022-07-07T07:21:10.000Z</Time>
            <Position>
              <LatitudeDegrees>43.73381554149091243743896484375</LatitudeDegrees>
              <LongitudeDegrees>-1.41169111244380474090576171875</LongitudeDegrees>
            </Position>
            <AltitudeMeters>32.59999847412109375</AltitudeMeters>
            <DistanceMeters>NAN</DistanceMeters>
          </Trackpoint>
          <Trackpoint>
            <Time>2022-07-07T07:21:13.000Z</Time>
            <Position>
              <LatitudeDegrees>43.7337400205433368682861328125</LatitudeDegrees>
              <LongitudeDegrees>-1.41171810217201709747314453125</LongitudeDegrees>
            </Position>
            <AltitudeMeters>32.799999237060546875</AltitudeMeters>
            <DistanceMeters>NAN</DistanceMeters>
          </Trackpoint>
          <Trackpoint>
            <Time>2022-07-07T07:21:17.000Z</Time>
            <Position>
              <LatitudeDegrees>43.73359710909426212310791015625</LatitudeDegrees>
              <LongitudeDegrees>-1.41176604665815830230712890625</LongitudeDegrees>
            </Position>
            <AltitudeMeters>32.799999237060546875</AltitudeMeters>
            <DistanceMeters>NAN</DistanceMeters>
          </Trackpoint>
          <Trackpoint>
            <Time>2022-07-07T07:21:27.000Z</Time>
            <Position>
              <LatitudeDegrees>43.73328991234302520751953125</LatitudeDegrees>
              <LongitudeDegrees>-1.411919854581356048583984375</LongitudeDegrees>
            </Position>
            <AltitudeMeters>33.40000152587890625</AltitudeMeters>
            <DistanceMeters>NAN</DistanceMeters>
          </Trackpoint>
          <Trackpoint>
            <Time>2022-07-07T07:21:35.000Z</Time>
            <Position>
              <LatitudeDegrees>43.73306519351899623870849609375</LatitudeDegrees>
              <LongitudeDegrees>-1.4120185934007167816162109375</LongitudeDegrees>
            </Position>
            <AltitudeMeters>33.59999847412109375</AltitudeMeters>
            <DistanceMeters>NAN</DistanceMeters>
          </Trackpoint>
          <Trackpoint>
            <Time>2022-07-07T07:21:36.000Z</Time>
            <Position>
              <LatitudeDegrees>43.7330386228859424591064453125</LatitudeDegrees>
              <LongitudeDegrees>-1.412031836807727813720703125</LongitudeDegrees>
            </Position>
            <AltitudeMeters>33.799999237060546875</AltitudeMeters>
            <DistanceMeters>NAN</DistanceMeters>
          </Trackpoint>
          <Trackpoint>
            <Time>2022-07-07T07:21:41.000Z</Time>
            <Position>
              <LatitudeDegrees>43.73292689211666584014892578125</LatitudeDegrees>
              <LongitudeDegrees>-1.412107944488525390625</LongitudeDegrees>
            </Position>
            <AltitudeMeters>34.200000762939453125</AltitudeMeters>
            <DistanceMeters>NAN</DistanceMeters>
          </Trackpoint>
          <Trackpoint>
            <Time>2022-07-07T07:21:42.000Z</Time>
            <Position>
              <LatitudeDegrees>43.73288221657276153564453125</LatitudeDegrees>
              <LongitudeDegrees>-1.41212202608585357666015625</LongitudeDegrees>
            </Position>
            <AltitudeMeters>34.40000152587890625</AltitudeMeters>
            <DistanceMeters>NAN</DistanceMeters>
          </Trackpoint>
          <Trackpoint>
            <Time>2022-07-07T07:21:49.000Z</Time>
            <Position>
              <LatitudeDegrees>43.73267258517444133758544921875</LatitudeDegrees>
              <LongitudeDegrees>-1.41220022924244403839111328125</LongitudeDegrees>
            </Position>
            <AltitudeMeters>34.799999237060546875</AltitudeMeters>
            <DistanceMeters>NAN</DistanceMeters>
          </Trackpoint>
          <Trackpoint>
            <Time>2022-07-07T07:21:51.000Z</Time>
            <Position>
              <LatitudeDegrees>43.7326201982796192169189453125</LatitudeDegrees>
              <LongitudeDegrees>-1.41222235746681690216064453125</LongitudeDegrees>
            </Position>
            <AltitudeMeters>34.799999237060546875</AltitudeMeters>
            <DistanceMeters>NAN</DistanceMeters>
          </Trackpoint>
          <Trackpoint>
            <Time>2022-07-07T07:21:56.000Z</Time>
            <Position>
              <LatitudeDegrees>43.7324349582195281982421875</LatitudeDegrees>
              <LongitudeDegrees>-1.41230600886046886444091796875</LongitudeDegrees>
            </Position>
            <AltitudeMeters>35</AltitudeMeters>
            <DistanceMeters>NAN</DistanceMeters>
          </Trackpoint>
          <Trackpoint>
            <Time>2022-07-07T07:22:04.000Z</Time>
            <Position>
              <LatitudeDegrees>43.73216606676578521728515625</LatitudeDegrees>
              <LongitudeDegrees>-1.41242503188550472259521484375</LongitudeDegrees>
            </Position>
            <AltitudeMeters>34.799999237060546875</AltitudeMeters>
            <DistanceMeters>NAN</DistanceMeters>
          </Trackpoint>
          <Trackpoint>
            <Time>2022-07-07T07:22:07.000Z</Time>
            <Position>
              <LatitudeDegrees>43.7320406734943389892578125</LatitudeDegrees>
              <LongitudeDegrees>-1.41247012652456760406494140625</LongitudeDegrees>
            </Position>
            <AltitudeMeters>34.59999847412109375</AltitudeMeters>
            <DistanceMeters>NAN</DistanceMeters>
          </Trackpoint>
          <Trackpoint>
            <Time>2022-07-07T07:22:09.000Z</Time>
            <Position>
              <LatitudeDegrees>43.73195894993841648101806640625</LatitudeDegrees>
              <LongitudeDegrees>-1.41249954700469970703125</LongitudeDegrees>
            </Position>
            <AltitudeMeters>34.40000152587890625</AltitudeMeters>
            <DistanceMeters>NAN</DistanceMeters>
          </Trackpoint>
          <Trackpoint>
            <Time>2022-07-07T07:22:12.000Z</Time>
            <Position>
              <LatitudeDegrees>43.7318333052098751068115234375</LatitudeDegrees>
              <LongitudeDegrees>-1.41260809265077114105224609375</LongitudeDegrees>
            </Position>
            <AltitudeMeters>34.200000762939453125</AltitudeMeters>
            <DistanceMeters>NAN</DistanceMeters>
          </Trackpoint>
          <Trackpoint>
            <Time>2022-07-07T07:22:15.000Z</Time>
            <Position>
              <LatitudeDegrees>43.73175459913909435272216796875</LatitudeDegrees>
              <LongitudeDegrees>-1.4126623235642910003662109375</LongitudeDegrees>
            </Position>
            <AltitudeMeters>34</AltitudeMeters>
            <DistanceMeters>NAN</DistanceMeters>
          </Trackpoint>
          <Trackpoint>
            <Time>2022-07-07T07:22:19.000Z</Time>
            <Position>
              <LatitudeDegrees>43.73156567104160785675048828125</LatitudeDegrees>
              <LongitudeDegrees>-1.4127717912197113037109375</LongitudeDegrees>
            </Position>
            <AltitudeMeters>33.799999237060546875</AltitudeMeters>
            <DistanceMeters>NAN</DistanceMeters>
          </Trackpoint>
          <Trackpoint>
            <Time>2022-07-07T07:22:21.000Z</Time>
            <Position>
              <LatitudeDegrees>43.731482438743114471435546875</LatitudeDegrees>
              <LongitudeDegrees>-1.41280154697597026824951171875</LongitudeDegrees>
            </Position>
            <AltitudeMeters>33.59999847412109375</AltitudeMeters>
            <DistanceMeters>NAN</DistanceMeters>
          </Trackpoint>
          <Trackpoint>
            <Time>2022-07-07T07:22:29.000Z</Time>
            <Position>
              <LatitudeDegrees>43.73114280402660369873046875</LatitudeDegrees>
              <LongitudeDegrees>-1.41295677982270717620849609375</LongitudeDegrees>
            </Position>
            <AltitudeMeters>32.799999237060546875</AltitudeMeters>
            <DistanceMeters>NAN</DistanceMeters>
          </Trackpoint>
          <Trackpoint>
            <Time>2022-07-07T07:22:35.000Z</Time>
            <Position>
              <LatitudeDegrees>43.73087265528738498687744140625</LatitudeDegrees>
              <LongitudeDegrees>-1.41300824470818042755126953125</LongitudeDegrees>
            </Position>
            <AltitudeMeters>32.799999237060546875</AltitudeMeters>
            <DistanceMeters>NAN</DistanceMeters>
          </Trackpoint>
          <Trackpoint>
            <Time>2022-07-07T07:22:36.000Z</Time>
            <Position>
              <LatitudeDegrees>43.73082236386835575103759765625</LatitudeDegrees>
              <LongitudeDegrees>-1.41300715506076812744140625</LongitudeDegrees>
            </Position>
            <AltitudeMeters>32.59999847412109375</AltitudeMeters>
            <DistanceMeters>NAN</DistanceMeters>
          </Trackpoint>
          <Trackpoint>
            <Time>2022-07-07T07:22:38.000Z</Time>
            <Position>
              <LatitudeDegrees>43.7307282350957393646240234375</LatitudeDegrees>
              <LongitudeDegrees>-1.41299634240567684173583984375</LongitudeDegrees>
            </Position>
            <AltitudeMeters>32.59999847412109375</AltitudeMeters>
            <DistanceMeters>NAN</DistanceMeters>
          </Trackpoint>
          <Trackpoint>
            <Time>2022-07-07T07:22:42.000Z</Time>
            <Position>
              <LatitudeDegrees>43.73055464588105678558349609375</LatitudeDegrees>
              <LongitudeDegrees>-1.4129181392490863800048828125</LongitudeDegrees>
            </Position>
            <AltitudeMeters>32.59999847412109375</AltitudeMeters>
            <DistanceMeters>NAN</DistanceMeters>
          </Trackpoint>
          <Trackpoint>
            <Time>2022-07-07T07:22:49.000Z</Time>
            <Position>
              <LatitudeDegrees>43.7302672304213047027587890625</LatitudeDegrees>
              <LongitudeDegrees>-1.41269593499600887298583984375</LongitudeDegrees>
            </Position>
            <AltitudeMeters>32.40000152587890625</AltitudeMeters>
            <DistanceMeters>NAN</DistanceMeters>
          </Trackpoint>
          <Trackpoint>
            <Time>2022-07-07T07:22:51.000Z</Time>
            <Position>
              <LatitudeDegrees>43.73018265701830387115478515625</LatitudeDegrees>
              <LongitudeDegrees>-1.41260893084108829498291015625</LongitudeDegrees>
            </Position>
            <AltitudeMeters>32.59999847412109375</AltitudeMeters>
            <DistanceMeters>NAN</DistanceMeters>
          </Trackpoint>
          <Trackpoint>
            <Time>2022-07-07T07:22:54.000Z</Time>
            <Position>
              <LatitudeDegrees>43.73007000423967838287353515625</LatitudeDegrees>
              <LongitudeDegrees>-1.4125127904117107391357421875</LongitudeDegrees>
            </Position>
            <AltitudeMeters>32.59999847412109375</AltitudeMeters>
            <DistanceMeters>NAN</DistanceMeters>
          </Trackpoint>
          <Trackpoint>
            <Time>2022-07-07T07:22:56.000Z</Time>
            <Position>
              <LatitudeDegrees>43.7299953214824199676513671875</LatitudeDegrees>
              <LongitudeDegrees>-1.41245654784142971038818359375</LongitudeDegrees>
            </Position>
            <AltitudeMeters>32.59999847412109375</AltitudeMeters>
            <DistanceMeters>NAN</DistanceMeters>
          </Trackpoint>
          <Trackpoint>
            <Time>2022-07-07T07:22:58.000Z</Time>
            <Position>
              <LatitudeDegrees>43.729930110275745391845703125</LatitudeDegrees>
              <LongitudeDegrees>-1.41240323893725872039794921875</LongitudeDegrees>
            </Position>
            <AltitudeMeters>32.59999847412109375</AltitudeMeters>
            <DistanceMeters>NAN</DistanceMeters>
          </Trackpoint>
          <Trackpoint>
            <Time>2022-07-07T07:22:59.000Z</Time>
            <Position>
              <LatitudeDegrees>43.72989364899694919586181640625</LatitudeDegrees>
              <LongitudeDegrees>-1.41236987896263599395751953125</LongitudeDegrees>
            </Position>
            <AltitudeMeters>32.59999847412109375</AltitudeMeters>
            <DistanceMeters>NAN</DistanceMeters>
          </Trackpoint>
          <Trackpoint>
            <Time>2022-07-07T07:23:04.000Z</Time>
            <Position>
              <LatitudeDegrees>43.72971746139228343963623046875</LatitudeDegrees>
              <LongitudeDegrees>-1.4122040010988712310791015625</LongitudeDegrees>
            </Position>
            <AltitudeMeters>32.59999847412109375</AltitudeMeters>
            <DistanceMeters>NAN</DistanceMeters>
          </Trackpoint>
          <Trackpoint>
            <Time>2022-07-07T07:23:07.000Z</Time>
            <Position>
              <LatitudeDegrees>43.72960564680397510528564453125</LatitudeDegrees>
              <LongitudeDegrees>-1.412121020257472991943359375</LongitudeDegrees>
            </Position>
            <AltitudeMeters>32.59999847412109375</AltitudeMeters>
            <DistanceMeters>NAN</DistanceMeters>
          </Trackpoint>
          <Trackpoint>
            <Time>2022-07-07T07:23:16.000Z</Time>
            <Position>
              <LatitudeDegrees>43.729275651276111602783203125</LatitudeDegrees>
              <LongitudeDegrees>-1.41191708855330944061279296875</LongitudeDegrees>
            </Position>
            <AltitudeMeters>32.40000152587890625</AltitudeMeters>
            <DistanceMeters>NAN</DistanceMeters>
          </Trackpoint>
          <Trackpoint>
            <Time>2022-07-07T07:23:23.000Z</Time>
            <Position>
              <LatitudeDegrees>43.72900114394724369049072265625</LatitudeDegrees>
              <LongitudeDegrees>-1.411786414682865142822265625</LongitudeDegrees>
            </Position>
            <AltitudeMeters>32.799999237060546875</AltitudeMeters>
            <DistanceMeters>NAN</DistanceMeters>
          </Trackpoint>
          <Trackpoint>
            <Time>2022-07-07T07:23:25.000Z</Time>
            <Position>
              <LatitudeDegrees>43.7289207614958286285400390625</LatitudeDegrees>
              <LongitudeDegrees>-1.41175665892660617828369140625</LongitudeDegrees>
            </Position>
            <AltitudeMeters>33</AltitudeMeters>
            <DistanceMeters>NAN</DistanceMeters>
          </Trackpoint>
          <Trackpoint>
            <Time>2022-07-07T07:23:34.000Z</Time>
            <Position>
              <LatitudeDegrees>43.72853930108249187469482421875</LatitudeDegrees>
              <LongitudeDegrees>-1.4115887694060802459716796875</LongitudeDegrees>
            </Position>
            <AltitudeMeters>32.799999237060546875</AltitudeMeters>
            <DistanceMeters>NAN</DistanceMeters>
          </Trackpoint>
          <Trackpoint>
            <Time>2022-07-07T07:23:41.000Z</Time>
            <Position>
              <LatitudeDegrees>43.728242330253124237060546875</LatitudeDegrees>
              <LongitudeDegrees>-1.41154057346284389495849609375</LongitudeDegrees>
            </Position>
            <AltitudeMeters>32.59999847412109375</AltitudeMeters>
            <DistanceMeters>NAN</DistanceMeters>
          </Trackpoint>
          <Trackpoint>
            <Time>2022-07-07T07:23:48.000Z</Time>
            <Position>
              <LatitudeDegrees>43.72797922231256961822509765625</LatitudeDegrees>
              <LongitudeDegrees>-1.41152632422745227813720703125</LongitudeDegrees>
            </Position>
            <AltitudeMeters>32.59999847412109375</AltitudeMeters>
            <DistanceMeters>NAN</DistanceMeters>
          </Trackpoint>
          <Trackpoint>
            <Time>2022-07-07T07:23:51.000Z</Time>
            <Position>
              <LatitudeDegrees>43.72785651125013828277587890625</LatitudeDegrees>
              <LongitudeDegrees>-1.4115277491509914398193359375</LongitudeDegrees>
            </Position>
            <AltitudeMeters>32.59999847412109375</AltitudeMeters>
            <DistanceMeters>NAN</DistanceMeters>
          </Trackpoint>
          <Trackpoint>
            <Time>2022-07-07T07:23:59.000Z</Time>
            <Position>
              <LatitudeDegrees>43.72756767086684703826904296875</LatitudeDegrees>
              <LongitudeDegrees>-1.411536969244480133056640625</LongitudeDegrees>
            </Position>
            <AltitudeMeters>33.40000152587890625</AltitudeMeters>
            <DistanceMeters>NAN</DistanceMeters>
          </Trackpoint>
          <Trackpoint>
            <Time>2022-07-07T07:24:00.000Z</Time>
            <Position>
              <LatitudeDegrees>43.727534897625446319580078125</LatitudeDegrees>
              <LongitudeDegrees>-1.4115428365767002105712890625</LongitudeDegrees>
            </Position>
            <AltitudeMeters>33.40000152587890625</AltitudeMeters>
            <DistanceMeters>NAN</DistanceMeters>
          </Trackpoint>
          <Trackpoint>
            <Time>2022-07-07T07:24:06.000Z</Time>
            <Position>
              <LatitudeDegrees>43.72737069614231586456298828125</LatitudeDegrees>
              <LongitudeDegrees>-1.4115683175623416900634765625</LongitudeDegrees>
            </Position>
            <AltitudeMeters>33.799999237060546875</AltitudeMeters>
            <DistanceMeters>NAN</DistanceMeters>
          </Trackpoint>
          <Trackpoint>
            <Time>2022-07-07T07:24:07.000Z</Time>
            <Position>
              <LatitudeDegrees>43.7273463048040866851806640625</LatitudeDegrees>
              <LongitudeDegrees>-1.41157493926584720611572265625</LongitudeDegrees>
            </Position>
            <AltitudeMeters>33.799999237060546875</AltitudeMeters>
            <DistanceMeters>NAN</DistanceMeters>
          </Trackpoint>
          <Trackpoint>
            <Time>2022-07-07T07:24:15.000Z</Time>
            <Position>
              <LatitudeDegrees>43.72716601006686687469482421875</LatitudeDegrees>
              <LongitudeDegrees>-1.411627829074859619140625</LongitudeDegrees>
            </Position>
            <AltitudeMeters>34.799999237060546875</AltitudeMeters>
            <DistanceMeters>NAN</DistanceMeters>
          </Trackpoint>
          <Trackpoint>
            <Time>2022-07-07T07:24:16.000Z</Time>
            <Position>
              <LatitudeDegrees>43.72714589349925518035888671875</LatitudeDegrees>
              <LongitudeDegrees>-1.411634199321269989013671875</LongitudeDegrees>
            </Position>
            <AltitudeMeters>34.799999237060546875</AltitudeMeters>
            <DistanceMeters>NAN</DistanceMeters>
          </Trackpoint>
          <Trackpoint>
            <Time>2022-07-07T07:24:24.000Z</Time>
            <Position>
              <LatitudeDegrees>43.726953528821468353271484375</LatitudeDegrees>
              <LongitudeDegrees>-1.41169982962310314178466796875</LongitudeDegrees>
            </Position>
            <AltitudeMeters>35</AltitudeMeters>
            <DistanceMeters>NAN</DistanceMeters>
          </Trackpoint>
          <Trackpoint>
            <Time>2022-07-07T07:24:31.000Z</Time>
            <Position>
              <LatitudeDegrees>43.726730905473232269287109375</LatitudeDegrees>
              <LongitudeDegrees>-1.411760933697223663330078125</LongitudeDegrees>
            </Position>
            <AltitudeMeters>34.799999237060546875</AltitudeMeters>
            <DistanceMeters>NAN</DistanceMeters>
          </Trackpoint>
          <Trackpoint>
            <Time>2022-07-07T07:24:37.000Z</Time>
            <Position>
              <LatitudeDegrees>43.7265510298311710357666015625</LatitudeDegrees>
              <LongitudeDegrees>-1.4119161665439605712890625</LongitudeDegrees>
            </Position>
            <AltitudeMeters>34.59999847412109375</AltitudeMeters>
            <DistanceMeters>NAN</DistanceMeters>
          </Trackpoint>
          <Trackpoint>
            <Time>2022-07-07T07:24:41.000Z</Time>
            <Position>
              <LatitudeDegrees>43.72651775367558002471923828125</LatitudeDegrees>
              <LongitudeDegrees>-1.41197391785681247711181640625</LongitudeDegrees>
            </Position>
            <AltitudeMeters>34</AltitudeMeters>
            <DistanceMeters>NAN</DistanceMeters>
          </Trackpoint>
          <Trackpoint>
            <Time>2022-07-07T07:24:44.000Z</Time>
            <Position>
              <LatitudeDegrees>43.72651775367558002471923828125</LatitudeDegrees>
              <LongitudeDegrees>-1.41197391785681247711181640625</LongitudeDegrees>
            </Position>
            <AltitudeMeters>33.799999237060546875</AltitudeMeters>
            <DistanceMeters>NAN</DistanceMeters>
          </Trackpoint>
          <Trackpoint>
            <Time>2022-07-07T07:25:49.000Z</Time>
            <Position>
              <LatitudeDegrees>43.72650350444018840789794921875</LatitudeDegrees>
              <LongitudeDegrees>-1.41199604608118534088134765625</LongitudeDegrees>
            </Position>
            <AltitudeMeters>33.799999237060546875</AltitudeMeters>
            <DistanceMeters>NAN</DistanceMeters>
          </Trackpoint>
          <Trackpoint>
            <Time>2022-07-07T07:25:50.000Z</Time>
            <Position>
              <LatitudeDegrees>43.72648648917675018310546875</LatitudeDegrees>
              <LongitudeDegrees>-1.412019096314907073974609375</LongitudeDegrees>
            </Position>
            <AltitudeMeters>33.799999237060546875</AltitudeMeters>
            <DistanceMeters>NAN</DistanceMeters>
          </Trackpoint>
          <Trackpoint>
            <Time>2022-07-07T07:25:55.000Z</Time>
            <Position>
              <LatitudeDegrees>43.7263263948261737823486328125</LatitudeDegrees>
              <LongitudeDegrees>-1.41213132999837398529052734375</LongitudeDegrees>
            </Position>
            <AltitudeMeters>33.200000762939453125</AltitudeMeters>
            <DistanceMeters>NAN</DistanceMeters>
          </Trackpoint>
          <Trackpoint>
            <Time>2022-07-07T07:26:00.000Z</Time>
            <Position>
              <LatitudeDegrees>43.72613352723419666290283203125</LatitudeDegrees>
              <LongitudeDegrees>-1.4122445695102214813232421875</LongitudeDegrees>
            </Position>
            <AltitudeMeters>32.799999237060546875</AltitudeMeters>
            <DistanceMeters>NAN</DistanceMeters>
          </Trackpoint>
          <Trackpoint>
            <Time>2022-07-07T07:26:01.000Z</Time>
            <Position>
              <LatitudeDegrees>43.72608558274805545806884765625</LatitudeDegrees>
              <LongitudeDegrees>-1.4122663624584674835205078125</LongitudeDegrees>
            </Position>
            <AltitudeMeters>32.59999847412109375</AltitudeMeters>
            <DistanceMeters>NAN</DistanceMeters>
          </Trackpoint>
          <Trackpoint>
            <Time>2022-07-07T07:26:05.000Z</Time>
            <Position>
              <LatitudeDegrees>43.72592389583587646484375</LatitudeDegrees>
              <LongitudeDegrees>-1.41234942711889743804931640625</LongitudeDegrees>
            </Position>
            <AltitudeMeters>31.799999237060546875</AltitudeMeters>
            <DistanceMeters>NAN</DistanceMeters>
          </Trackpoint>
          <Trackpoint>
            <Time>2022-07-07T07:26:07.000Z</Time>
            <Position>
              <LatitudeDegrees>43.72584569267928600311279296875</LatitudeDegrees>
              <LongitudeDegrees>-1.4124162308871746063232421875</LongitudeDegrees>
            </Position>
            <AltitudeMeters>31.6000003814697265625</AltitudeMeters>
            <DistanceMeters>NAN</DistanceMeters>
          </Trackpoint>
          <Trackpoint>
            <Time>2022-07-07T07:26:11.000Z</Time>
            <Position>
              <LatitudeDegrees>43.7256883643567562103271484375</LatitudeDegrees>
              <LongitudeDegrees>-1.4125416241586208343505859375</LongitudeDegrees>
            </Position>
            <AltitudeMeters>31.3999996185302734375</AltitudeMeters>
            <DistanceMeters>NAN</DistanceMeters>
          </Trackpoint>
          <Trackpoint>
            <Time>2022-07-07T07:26:14.000Z</Time>
            <Position>
              <LatitudeDegrees>43.72557478956878185272216796875</LatitudeDegrees>
              <LongitudeDegrees>-1.41259945929050445556640625</LongitudeDegrees>
            </Position>
            <AltitudeMeters>31.3999996185302734375</AltitudeMeters>
            <DistanceMeters>NAN</DistanceMeters>
          </Trackpoint>
          <Trackpoint>
            <Time>2022-07-07T07:26:16.000Z</Time>
            <Position>
              <LatitudeDegrees>43.725491724908351898193359375</LatitudeDegrees>
              <LongitudeDegrees>-1.41263592056930065155029296875</LongitudeDegrees>
            </Position>
            <AltitudeMeters>31.3999996185302734375</AltitudeMeters>
            <DistanceMeters>NAN</DistanceMeters>
          </Trackpoint>
          <Trackpoint>
            <Time>2022-07-07T07:26:21.000Z</Time>
            <Position>
              <LatitudeDegrees>43.7253029644489288330078125</LatitudeDegrees>
              <LongitudeDegrees>-1.4127293787896633148193359375</LongitudeDegrees>
            </Position>
            <AltitudeMeters>32</AltitudeMeters>
            <DistanceMeters>NAN</DistanceMeters>
          </Trackpoint>
          <Trackpoint>
            <Time>2022-07-07T07:26:26.000Z</Time>
            <Position>
              <LatitudeDegrees>43.7251549400389194488525390625</LatitudeDegrees>
              <LongitudeDegrees>-1.4128440432250499725341796875</LongitudeDegrees>
            </Position>
            <AltitudeMeters>32.40000152587890625</AltitudeMeters>
            <DistanceMeters>NAN</DistanceMeters>
          </Trackpoint>
          <Trackpoint>
            <Time>2022-07-07T07:26:28.000Z</Time>
            <Position>
              <LatitudeDegrees>43.72510439716279506683349609375</LatitudeDegrees>
              <LongitudeDegrees>-1.4128906466066837310791015625</LongitudeDegrees>
            </Position>
            <AltitudeMeters>32.59999847412109375</AltitudeMeters>
            <DistanceMeters>NAN</DistanceMeters>
          </Trackpoint>
          <Trackpoint>
            <Time>2022-07-07T07:26:29.000Z</Time>
            <Position>
              <LatitudeDegrees>43.7250805087387561798095703125</LatitudeDegrees>
              <LongitudeDegrees>-1.41290782950818538665771484375</LongitudeDegrees>
            </Position>
            <AltitudeMeters>32.59999847412109375</AltitudeMeters>
            <DistanceMeters>NAN</DistanceMeters>
          </Trackpoint>
          <Trackpoint>
            <Time>2022-07-07T07:26:32.000Z</Time>
            <Position>
              <LatitudeDegrees>43.7250079214572906494140625</LatitudeDegrees>
              <LongitudeDegrees>-1.41296088695526123046875</LongitudeDegrees>
            </Position>
            <AltitudeMeters>32.799999237060546875</AltitudeMeters>
            <DistanceMeters>NAN</DistanceMeters>
          </Trackpoint>
          <Trackpoint>
            <Time>2022-07-07T07:26:35.000Z</Time>
            <Position>
              <LatitudeDegrees>43.7249219231307506561279296875</LatitudeDegrees>
              <LongitudeDegrees>-1.41304110176861286163330078125</LongitudeDegrees>
            </Position>
            <AltitudeMeters>32.799999237060546875</AltitudeMeters>
            <DistanceMeters>NAN</DistanceMeters>
          </Trackpoint>
          <Trackpoint>
            <Time>2022-07-07T07:26:40.000Z</Time>
            <Position>
              <LatitudeDegrees>43.724692761898040771484375</LatitudeDegrees>
              <LongitudeDegrees>-1.4132009446620941162109375</LongitudeDegrees>
            </Position>
            <AltitudeMeters>32.59999847412109375</AltitudeMeters>
            <DistanceMeters>NAN</DistanceMeters>
          </Trackpoint>
          <Trackpoint>
            <Time>2022-07-07T07:26:48.000Z</Time>
            <Position>
              <LatitudeDegrees>43.72435756959021091461181640625</LatitudeDegrees>
              <LongitudeDegrees>-1.41343739815056324005126953125</LongitudeDegrees>
            </Position>
            <AltitudeMeters>32</AltitudeMeters>
            <DistanceMeters>NAN</DistanceMeters>
          </Trackpoint>
          <Trackpoint>
            <Time>2022-07-07T07:26:56.000Z</Time>
            <Position>
              <LatitudeDegrees>43.72400544583797454833984375</LatitudeDegrees>
              <LongitudeDegrees>-1.41363487578928470611572265625</LongitudeDegrees>
            </Position>
            <AltitudeMeters>32</AltitudeMeters>
            <DistanceMeters>NAN</DistanceMeters>
          </Trackpoint>
          <Trackpoint>
            <Time>2022-07-07T07:26:59.000Z</Time>
            <Position>
              <LatitudeDegrees>43.72389622963964939117431640625</LatitudeDegrees>
              <LongitudeDegrees>-1.41367477364838123321533203125</LongitudeDegrees>
            </Position>
            <AltitudeMeters>31.799999237060546875</AltitudeMeters>
            <DistanceMeters>NAN</DistanceMeters>
          </Trackpoint>
          <Trackpoint>
            <Time>2022-07-07T07:27:03.000Z</Time>
            <Position>
              <LatitudeDegrees>43.7237461097538471221923828125</LatitudeDegrees>
              <LongitudeDegrees>-1.4137382246553897857666015625</LongitudeDegrees>
            </Position>
            <AltitudeMeters>31.3999996185302734375</AltitudeMeters>
            <DistanceMeters>NAN</DistanceMeters>
          </Trackpoint>
          <Trackpoint>
            <Time>2022-07-07T07:27:07.000Z</Time>
            <Position>
              <LatitudeDegrees>43.72359431348741054534912109375</LatitudeDegrees>
              <LongitudeDegrees>-1.41381776891648769378662109375</LongitudeDegrees>
            </Position>
            <AltitudeMeters>31.799999237060546875</AltitudeMeters>
            <DistanceMeters>NAN</DistanceMeters>
          </Trackpoint>
          <Trackpoint>
            <Time>2022-07-07T07:27:11.000Z</Time>
            <Position>
              <LatitudeDegrees>43.72343891300261020660400390625</LatitudeDegrees>
              <LongitudeDegrees>-1.4139041863381862640380859375</LongitudeDegrees>
            </Position>
            <AltitudeMeters>32.200000762939453125</AltitudeMeters>
            <DistanceMeters>NAN</DistanceMeters>
          </Trackpoint>
          <Trackpoint>
            <Time>2022-07-07T07:27:18.000Z</Time>
            <Position>
              <LatitudeDegrees>43.72322668321430683135986328125</LatitudeDegrees>
              <LongitudeDegrees>-1.41406687907874584197998046875</LongitudeDegrees>
            </Position>
            <AltitudeMeters>32.200000762939453125</AltitudeMeters>
            <DistanceMeters>NAN</DistanceMeters>
          </Trackpoint>
          <Trackpoint>
            <Time>2022-07-07T07:27:25.000Z</Time>
            <Position>
              <LatitudeDegrees>43.7230081669986248016357421875</LatitudeDegrees>
              <LongitudeDegrees>-1.41425438225269317626953125</LongitudeDegrees>
            </Position>
            <AltitudeMeters>32</AltitudeMeters>
            <DistanceMeters>NAN</DistanceMeters>
          </Trackpoint>
          <Trackpoint>
            <Time>2022-07-07T07:27:30.000Z</Time>
            <Position>
              <LatitudeDegrees>43.72286818921566009521484375</LatitudeDegrees>
              <LongitudeDegrees>-1.4143413864076137542724609375</LongitudeDegrees>
            </Position>
            <AltitudeMeters>31.799999237060546875</AltitudeMeters>
            <DistanceMeters>NAN</DistanceMeters>
          </Trackpoint>
          <Trackpoint>
            <Time>2022-07-07T07:27:33.000Z</Time>
            <Position>
              <LatitudeDegrees>43.722776658833026885986328125</LatitudeDegrees>
              <LongitudeDegrees>-1.41441271640360355377197265625</LongitudeDegrees>
            </Position>
            <AltitudeMeters>31.6000003814697265625</AltitudeMeters>
            <DistanceMeters>NAN</DistanceMeters>
          </Trackpoint>
          <Trackpoint>
            <Time>2022-07-07T07:27:39.000Z</Time>
            <Position>
              <LatitudeDegrees>43.7225840426981449127197265625</LatitudeDegrees>
              <LongitudeDegrees>-1.41451329924166202545166015625</LongitudeDegrees>
            </Position>
            <AltitudeMeters>31.6000003814697265625</AltitudeMeters>
            <DistanceMeters>NAN</DistanceMeters>
          </Trackpoint>
          <Trackpoint>
            <Time>2022-07-07T07:27:44.000Z</Time>
            <Position>
              <LatitudeDegrees>43.72245454229414463043212890625</LatitudeDegrees>
              <LongitudeDegrees>-1.41457146964967250823974609375</LongitudeDegrees>
            </Position>
            <AltitudeMeters>31.799999237060546875</AltitudeMeters>
            <DistanceMeters>NAN</DistanceMeters>
          </Trackpoint>
          <Trackpoint>
            <Time>2022-07-07T07:27:51.000Z</Time>
            <Position>
              <LatitudeDegrees>43.72224298305809497833251953125</LatitudeDegrees>
              <LongitudeDegrees>-1.41468093730509281158447265625</LongitudeDegrees>
            </Position>
            <AltitudeMeters>32</AltitudeMeters>
            <DistanceMeters>NAN</DistanceMeters>
          </Trackpoint>
          <Trackpoint>
            <Time>2022-07-07T07:27:59.000Z</Time>
            <Position>
              <LatitudeDegrees>43.722031004726886749267578125</LatitudeDegrees>
              <LongitudeDegrees>-1.414834074676036834716796875</LongitudeDegrees>
            </Position>
            <AltitudeMeters>32.40000152587890625</AltitudeMeters>
            <DistanceMeters>NAN</DistanceMeters>
          </Trackpoint>
          <Trackpoint>
            <Time>2022-07-07T07:28:02.000Z</Time>
            <Position>
              <LatitudeDegrees>43.7219260632991790771484375</LatitudeDegrees>
              <LongitudeDegrees>-1.4149224199354648590087890625</LongitudeDegrees>
            </Position>
            <AltitudeMeters>32.799999237060546875</AltitudeMeters>
            <DistanceMeters>NAN</DistanceMeters>
          </Trackpoint>
          <Trackpoint>
            <Time>2022-07-07T07:28:07.000Z</Time>
            <Position>
              <LatitudeDegrees>43.7217860855162143707275390625</LatitudeDegrees>
              <LongitudeDegrees>-1.41504722647368907928466796875</LongitudeDegrees>
            </Position>
            <AltitudeMeters>33</AltitudeMeters>
            <DistanceMeters>NAN</DistanceMeters>
          </Trackpoint>
          <Trackpoint>
            <Time>2022-07-07T07:28:13.000Z</Time>
            <Position>
              <LatitudeDegrees>43.72158567421138286590576171875</LatitudeDegrees>
              <LongitudeDegrees>-1.41516021452844142913818359375</LongitudeDegrees>
            </Position>
            <AltitudeMeters>33.200000762939453125</AltitudeMeters>
            <DistanceMeters>NAN</DistanceMeters>
          </Trackpoint>
          <Trackpoint>
            <Time>2022-07-07T07:28:16.000Z</Time>
            <Position>
              <LatitudeDegrees>43.7214498035609722137451171875</LatitudeDegrees>
              <LongitudeDegrees>-1.41521486453711986541748046875</LongitudeDegrees>
            </Position>
            <AltitudeMeters>33.200000762939453125</AltitudeMeters>
            <DistanceMeters>NAN</DistanceMeters>
          </Trackpoint>
          <Trackpoint>
            <Time>2022-07-07T07:28:21.000Z</Time>
            <Position>
              <LatitudeDegrees>43.721235729753971099853515625</LatitudeDegrees>
              <LongitudeDegrees>-1.415355764329433441162109375</LongitudeDegrees>
            </Position>
            <AltitudeMeters>33</AltitudeMeters>
            <DistanceMeters>NAN</DistanceMeters>
          </Trackpoint>
          <Trackpoint>
            <Time>2022-07-07T07:28:24.000Z</Time>
            <Position>
              <LatitudeDegrees>43.721114359796047210693359375</LatitudeDegrees>
              <LongitudeDegrees>-1.4154581911861896514892578125</LongitudeDegrees>
            </Position>
            <AltitudeMeters>32.799999237060546875</AltitudeMeters>
            <DistanceMeters>NAN</DistanceMeters>
          </Trackpoint>
          <Trackpoint>
            <Time>2022-07-07T07:28:28.000Z</Time>
            <Position>
              <LatitudeDegrees>43.72093741782009601593017578125</LatitudeDegrees>
              <LongitudeDegrees>-1.41558752395212650299072265625</LongitudeDegrees>
            </Position>
            <AltitudeMeters>32.200000762939453125</AltitudeMeters>
            <DistanceMeters>NAN</DistanceMeters>
          </Trackpoint>
          <Trackpoint>
            <Time>2022-07-07T07:28:37.000Z</Time>
            <Position>
              <LatitudeDegrees>43.72052905149757862091064453125</LatitudeDegrees>
              <LongitudeDegrees>-1.41581316478550434112548828125</LongitudeDegrees>
            </Position>
            <AltitudeMeters>32</AltitudeMeters>
            <DistanceMeters>NAN</DistanceMeters>
          </Trackpoint>
          <Trackpoint>
            <Time>2022-07-07T07:28:40.000Z</Time>
            <Position>
              <LatitudeDegrees>43.72039728797972202301025390625</LatitudeDegrees>
              <LongitudeDegrees>-1.41589765436947345733642578125</LongitudeDegrees>
            </Position>
            <AltitudeMeters>31.799999237060546875</AltitudeMeters>
            <DistanceMeters>NAN</DistanceMeters>
          </Trackpoint>
          <Trackpoint>
            <Time>2022-07-07T07:28:46.000Z</Time>
            <Position>
              <LatitudeDegrees>43.7201167456805706024169921875</LatitudeDegrees>
              <LongitudeDegrees>-1.4160673879086971282958984375</LongitudeDegrees>
            </Position>
            <AltitudeMeters>32</AltitudeMeters>
            <DistanceMeters>NAN</DistanceMeters>
          </Trackpoint>
          <Trackpoint>
            <Time>2022-07-07T07:28:48.000Z</Time>
            <Position>
              <LatitudeDegrees>43.72003443539142608642578125</LatitudeDegrees>
              <LongitudeDegrees>-1.4161030948162078857421875</LongitudeDegrees>
            </Position>
            <AltitudeMeters>32</AltitudeMeters>
            <DistanceMeters>NAN</DistanceMeters>
          </Trackpoint>
          <Trackpoint>
            <Time>2022-07-07T07:28:52.000Z</Time>
            <Position>
              <LatitudeDegrees>43.7199051864445209503173828125</LatitudeDegrees>
              <LongitudeDegrees>-1.416202001273632049560546875</LongitudeDegrees>
            </Position>
            <AltitudeMeters>31.799999237060546875</AltitudeMeters>
            <DistanceMeters>NAN</DistanceMeters>
          </Trackpoint>
          <Trackpoint>
            <Time>2022-07-07T07:28:58.000Z</Time>
            <Position>
              <LatitudeDegrees>43.71975976042449474334716796875</LatitudeDegrees>
              <LongitudeDegrees>-1.41637274064123630523681640625</LongitudeDegrees>
            </Position>
            <AltitudeMeters>31.6000003814697265625</AltitudeMeters>
            <DistanceMeters>NAN</DistanceMeters>
          </Trackpoint>
          <Trackpoint>
            <Time>2022-07-07T07:29:03.000Z</Time>
            <Position>
              <LatitudeDegrees>43.7196386419236660003662109375</LatitudeDegrees>
              <LongitudeDegrees>-1.416471898555755615234375</LongitudeDegrees>
            </Position>
            <AltitudeMeters>32</AltitudeMeters>
            <DistanceMeters>NAN</DistanceMeters>
          </Trackpoint>
          <Trackpoint>
            <Time>2022-07-07T07:29:08.000Z</Time>
            <Position>
              <LatitudeDegrees>43.719434626400470733642578125</LatitudeDegrees>
              <LongitudeDegrees>-1.4166055060923099517822265625</LongitudeDegrees>
            </Position>
            <AltitudeMeters>32.40000152587890625</AltitudeMeters>
            <DistanceMeters>NAN</DistanceMeters>
          </Trackpoint>
          <Trackpoint>
            <Time>2022-07-07T07:29:15.000Z</Time>
            <Position>
              <LatitudeDegrees>43.71923237107694149017333984375</LatitudeDegrees>
              <LongitudeDegrees>-1.4168110303580760955810546875</LongitudeDegrees>
            </Position>
            <AltitudeMeters>32.59999847412109375</AltitudeMeters>
            <DistanceMeters>NAN</DistanceMeters>
          </Trackpoint>
          <Trackpoint>
            <Time>2022-07-07T07:29:16.000Z</Time>
            <Position>
              <LatitudeDegrees>43.7192161940038204193115234375</LatitudeDegrees>
              <LongitudeDegrees>-1.416822932660579681396484375</LongitudeDegrees>
            </Position>
            <AltitudeMeters>32.59999847412109375</AltitudeMeters>
            <DistanceMeters>NAN</DistanceMeters>
          </Trackpoint>
          <Trackpoint>
            <Time>2022-07-07T07:29:21.000Z</Time>
            <Position>
              <LatitudeDegrees>43.71898963116109371185302734375</LatitudeDegrees>
              <LongitudeDegrees>-1.4169525168836116790771484375</LongitudeDegrees>
            </Position>
            <AltitudeMeters>32.799999237060546875</AltitudeMeters>
            <DistanceMeters>NAN</DistanceMeters>
          </Trackpoint>
          <Trackpoint>
            <Time>2022-07-07T07:29:26.000Z</Time>
            <Position>
              <LatitudeDegrees>43.7188380025327205657958984375</LatitudeDegrees>
              <LongitudeDegrees>-1.4171040616929531097412109375</LongitudeDegrees>
            </Position>
            <AltitudeMeters>33.200000762939453125</AltitudeMeters>
            <DistanceMeters>NAN</DistanceMeters>
          </Trackpoint>
          <Trackpoint>
            <Time>2022-07-07T07:29:31.000Z</Time>
            <Position>
              <LatitudeDegrees>43.7187300436198711395263671875</LatitudeDegrees>
              <LongitudeDegrees>-1.41719215549528598785400390625</LongitudeDegrees>
            </Position>
            <AltitudeMeters>34</AltitudeMeters>
            <DistanceMeters>NAN</DistanceMeters>
          </Trackpoint>
          <Trackpoint>
            <Time>2022-07-07T07:29:34.000Z</Time>
            <Position>
              <LatitudeDegrees>43.71869106777012348175048828125</LatitudeDegrees>
              <LongitudeDegrees>-1.4172485657036304473876953125</LongitudeDegrees>
            </Position>
            <AltitudeMeters>34.59999847412109375</AltitudeMeters>
            <DistanceMeters>NAN</DistanceMeters>
          </Trackpoint>
          <Trackpoint>
            <Time>2022-07-07T07:29:40.000Z</Time>
            <Position>
              <LatitudeDegrees>43.718613199889659881591796875</LatitudeDegrees>
              <LongitudeDegrees>-1.41735141165554523468017578125</LongitudeDegrees>
            </Position>
            <AltitudeMeters>35</AltitudeMeters>
            <DistanceMeters>NAN</DistanceMeters>
          </Trackpoint>
          <Trackpoint>
            <Time>2022-07-07T07:29:43.000Z</Time>
            <Position>
              <LatitudeDegrees>43.71856902725994586944580078125</LatitudeDegrees>
              <LongitudeDegrees>-1.4173934049904346466064453125</LongitudeDegrees>
            </Position>
            <AltitudeMeters>35.200000762939453125</AltitudeMeters>
            <DistanceMeters>NAN</DistanceMeters>
          </Trackpoint>
          <Trackpoint>
            <Time>2022-07-07T07:29:53.000Z</Time>
            <Position>
              <LatitudeDegrees>43.7183984555304050445556640625</LatitudeDegrees>
              <LongitudeDegrees>-1.41755324788391590118408203125</LongitudeDegrees>
            </Position>
            <AltitudeMeters>35.799999237060546875</AltitudeMeters>
            <DistanceMeters>NAN</DistanceMeters>
          </Trackpoint>
          <Trackpoint>
            <Time>2022-07-07T07:29:54.000Z</Time>
            <Position>
              <LatitudeDegrees>43.7183826975524425506591796875</LatitudeDegrees>
              <LongitudeDegrees>-1.4175704307854175567626953125</LongitudeDegrees>
            </Position>
            <AltitudeMeters>36</AltitudeMeters>
            <DistanceMeters>NAN</DistanceMeters>
          </Trackpoint>
          <Trackpoint>
            <Time>2022-07-07T07:29:58.000Z</Time>
            <Position>
              <LatitudeDegrees>43.7183344177901744842529296875</LatitudeDegrees>
              <LongitudeDegrees>-1.41762684099376201629638671875</LongitudeDegrees>
            </Position>
            <AltitudeMeters>36.40000152587890625</AltitudeMeters>
            <DistanceMeters>NAN</DistanceMeters>
          </Trackpoint>
          <Trackpoint>
            <Time>2022-07-07T07:30:03.000Z</Time>
            <Position>
              <LatitudeDegrees>43.71827918104827404022216796875</LatitudeDegrees>
              <LongitudeDegrees>-1.41769607551395893096923828125</LongitudeDegrees>
            </Position>
            <AltitudeMeters>36.799999237060546875</AltitudeMeters>
            <DistanceMeters>NAN</DistanceMeters>
          </Trackpoint>
          <Trackpoint>
            <Time>2022-07-07T07:30:07.000Z</Time>
            <Position>
              <LatitudeDegrees>43.71821053326129913330078125</LatitudeDegrees>
              <LongitudeDegrees>-1.41777721233665943145751953125</LongitudeDegrees>
            </Position>
            <AltitudeMeters>37</AltitudeMeters>
            <DistanceMeters>NAN</DistanceMeters>
          </Trackpoint>
          <Trackpoint>
            <Time>2022-07-07T07:30:08.000Z</Time>
            <Position>
              <LatitudeDegrees>43.71819469146430492401123046875</LatitudeDegrees>
              <LongitudeDegrees>-1.41780168749392032623291015625</LongitudeDegrees>
            </Position>
            <AltitudeMeters>37.200000762939453125</AltitudeMeters>
            <DistanceMeters>NAN</DistanceMeters>
          </Trackpoint>
          <Trackpoint>
            <Time>2022-07-07T07:30:13.000Z</Time>
            <Position>
              <LatitudeDegrees>43.71811539866030216217041015625</LatitudeDegrees>
              <LongitudeDegrees>-1.4179060421884059906005859375</LongitudeDegrees>
            </Position>
            <AltitudeMeters>37.799999237060546875</AltitudeMeters>
            <DistanceMeters>NAN</DistanceMeters>
          </Trackpoint>
          <Trackpoint>
            <Time>2022-07-07T07:30:18.000Z</Time>
            <Position>
              <LatitudeDegrees>43.71803359128534793853759765625</LatitudeDegrees>
              <LongitudeDegrees>-1.41802514903247356414794921875</LongitudeDegrees>
            </Position>
            <AltitudeMeters>38.200000762939453125</AltitudeMeters>
            <DistanceMeters>NAN</DistanceMeters>
          </Trackpoint>
          <Trackpoint>
            <Time>2022-07-07T07:30:22.000Z</Time>
            <Position>
              <LatitudeDegrees>43.71795572340488433837890625</LatitudeDegrees>
              <LongitudeDegrees>-1.41811718232929706573486328125</LongitudeDegrees>
            </Position>
            <AltitudeMeters>38.59999847412109375</AltitudeMeters>
            <DistanceMeters>NAN</DistanceMeters>
          </Trackpoint>
          <Trackpoint>
            <Time>2022-07-07T07:30:29.000Z</Time>
            <Position>
              <LatitudeDegrees>43.7178459204733371734619140625</LatitudeDegrees>
              <LongitudeDegrees>-1.41824995167553424835205078125</LongitudeDegrees>
            </Position>
            <AltitudeMeters>39</AltitudeMeters>
            <DistanceMeters>NAN</DistanceMeters>
          </Trackpoint>
          <Trackpoint>
            <Time>2022-07-07T07:30:32.000Z</Time>
            <Position>
              <LatitudeDegrees>43.71778800152242183685302734375</LatitudeDegrees>
              <LongitudeDegrees>-1.418301500380039215087890625</LongitudeDegrees>
            </Position>
            <AltitudeMeters>39.200000762939453125</AltitudeMeters>
            <DistanceMeters>NAN</DistanceMeters>
          </Trackpoint>
          <Trackpoint>
            <Time>2022-07-07T07:30:35.000Z</Time>
            <Position>
              <LatitudeDegrees>43.71773150749504566192626953125</LatitudeDegrees>
              <LongitudeDegrees>-1.418360173702239990234375</LongitudeDegrees>
            </Position>
            <AltitudeMeters>39.59999847412109375</AltitudeMeters>
            <DistanceMeters>NAN</DistanceMeters>
          </Trackpoint>
          <Trackpoint>
            <Time>2022-07-07T07:30:41.000Z</Time>
            <Position>
              <LatitudeDegrees>43.71765154413878917694091796875</LatitudeDegrees>
              <LongitudeDegrees>-1.41848112456500530242919921875</LongitudeDegrees>
            </Position>
            <AltitudeMeters>40</AltitudeMeters>
            <DistanceMeters>NAN</DistanceMeters>
          </Trackpoint>
          <Trackpoint>
            <Time>2022-07-07T07:30:45.000Z</Time>
            <Position>
              <LatitudeDegrees>43.71758901514112949371337890625</LatitudeDegrees>
              <LongitudeDegrees>-1.41857005655765533447265625</LongitudeDegrees>
            </Position>
            <AltitudeMeters>40.200000762939453125</AltitudeMeters>
            <DistanceMeters>NAN</DistanceMeters>
          </Trackpoint>
          <Trackpoint>
            <Time>2022-07-07T07:30:49.000Z</Time>
            <Position>
              <LatitudeDegrees>43.71751978062093257904052734375</LatitudeDegrees>
              <LongitudeDegrees>-1.41866351477801799774169921875</LongitudeDegrees>
            </Position>
            <AltitudeMeters>40.40000152587890625</AltitudeMeters>
            <DistanceMeters>NAN</DistanceMeters>
          </Trackpoint>
          <Trackpoint>
            <Time>2022-07-07T07:30:54.000Z</Time>
            <Position>
              <LatitudeDegrees>43.7173812277615070343017578125</LatitudeDegrees>
              <LongitudeDegrees>-1.41882629133760929107666015625</LongitudeDegrees>
            </Position>
            <AltitudeMeters>40.59999847412109375</AltitudeMeters>
            <DistanceMeters>NAN</DistanceMeters>
          </Trackpoint>
          <Trackpoint>
            <Time>2022-07-07T07:30:55.000Z</Time>
            <Position>
              <LatitudeDegrees>43.71736739762127399444580078125</LatitudeDegrees>
              <LongitudeDegrees>-1.41884942539036273956298828125</LongitudeDegrees>
            </Position>
            <AltitudeMeters>40.59999847412109375</AltitudeMeters>
            <DistanceMeters>NAN</DistanceMeters>
          </Trackpoint>
          <Trackpoint>
            <Time>2022-07-07T07:31:02.000Z</Time>
            <Position>
              <LatitudeDegrees>43.7172384001314640045166015625</LatitudeDegrees>
              <LongitudeDegrees>-1.419104151427745819091796875</LongitudeDegrees>
            </Position>
            <AltitudeMeters>40.200000762939453125</AltitudeMeters>
            <DistanceMeters>NAN</DistanceMeters>
          </Trackpoint>
          <Trackpoint>
            <Time>2022-07-07T07:31:06.000Z</Time>
            <Position>
              <LatitudeDegrees>43.71708207763731479644775390625</LatitudeDegrees>
              <LongitudeDegrees>-1.41932585276663303375244140625</LongitudeDegrees>
            </Position>
            <AltitudeMeters>39.799999237060546875</AltitudeMeters>
            <DistanceMeters>NAN</DistanceMeters>
          </Trackpoint>
          <Trackpoint>
            <Time>2022-07-07T07:31:08.000Z</Time>
            <Position>
              <LatitudeDegrees>43.716950900852680206298828125</LatitudeDegrees>
              <LongitudeDegrees>-1.419462896883487701416015625</LongitudeDegrees>
            </Position>
            <AltitudeMeters>39.59999847412109375</AltitudeMeters>
            <DistanceMeters>NAN</DistanceMeters>
          </Trackpoint>
          <Trackpoint>
            <Time>2022-07-07T07:31:11.000Z</Time>
            <Position>
              <LatitudeDegrees>43.7168038822710514068603515625</LatitudeDegrees>
              <LongitudeDegrees>-1.41968677751719951629638671875</LongitudeDegrees>
            </Position>
            <AltitudeMeters>39</AltitudeMeters>
            <DistanceMeters>NAN</DistanceMeters>
          </Trackpoint>
          <Trackpoint>
            <Time>2022-07-07T07:31:14.000Z</Time>
            <Position>
              <LatitudeDegrees>43.71669433079659938812255859375</LatitudeDegrees>
              <LongitudeDegrees>-1.41990068368613719940185546875</LongitudeDegrees>
            </Position>
            <AltitudeMeters>38.200000762939453125</AltitudeMeters>
            <DistanceMeters>NAN</DistanceMeters>
          </Trackpoint>
          <Trackpoint>
            <Time>2022-07-07T07:31:15.000Z</Time>
            <Position>
              <LatitudeDegrees>43.7166550196707248687744140625</LatitudeDegrees>
              <LongitudeDegrees>-1.41997754573822021484375</LongitudeDegrees>
            </Position>
            <AltitudeMeters>38</AltitudeMeters>
            <DistanceMeters>NAN</DistanceMeters>
          </Trackpoint>
          <Trackpoint>
            <Time>2022-07-07T07:31:20.000Z</Time>
            <Position>
              <LatitudeDegrees>43.71648545376956462860107421875</LatitudeDegrees>
              <LongitudeDegrees>-1.4203321002423763275146484375</LongitudeDegrees>
            </Position>
            <AltitudeMeters>36.799999237060546875</AltitudeMeters>
            <DistanceMeters>NAN</DistanceMeters>
          </Trackpoint>
          <Trackpoint>
            <Time>2022-07-07T07:31:21.000Z</Time>
            <Position>
              <LatitudeDegrees>43.716466091573238372802734375</LatitudeDegrees>
              <LongitudeDegrees>-1.4203973114490509033203125</LongitudeDegrees>
            </Position>
            <AltitudeMeters>36.59999847412109375</AltitudeMeters>
            <DistanceMeters>NAN</DistanceMeters>
          </Trackpoint>
          <Trackpoint>
            <Time>2022-07-07T07:31:24.000Z</Time>
            <Position>
              <LatitudeDegrees>43.71635352261364459991455078125</LatitudeDegrees>
              <LongitudeDegrees>-1.420584730803966522216796875</LongitudeDegrees>
            </Position>
            <AltitudeMeters>35.799999237060546875</AltitudeMeters>
            <DistanceMeters>NAN</DistanceMeters>
          </Trackpoint>
          <Trackpoint>
            <Time>2022-07-07T07:31:26.000Z</Time>
            <Position>
              <LatitudeDegrees>43.7162798456847667694091796875</LatitudeDegrees>
              <LongitudeDegrees>-1.42068690620362758636474609375</LongitudeDegrees>
            </Position>
            <AltitudeMeters>35.200000762939453125</AltitudeMeters>
            <DistanceMeters>NAN</DistanceMeters>
          </Trackpoint>
          <Trackpoint>
            <Time>2022-07-07T07:31:28.000Z</Time>
            <Position>
              <LatitudeDegrees>43.7162000499665737152099609375</LatitudeDegrees>
              <LongitudeDegrees>-1.42077659256756305694580078125</LongitudeDegrees>
            </Position>
            <AltitudeMeters>34.799999237060546875</AltitudeMeters>
            <DistanceMeters>NAN</DistanceMeters>
          </Trackpoint>
          <Trackpoint>
            <Time>2022-07-07T07:31:29.000Z</Time>
            <Position>
              <LatitudeDegrees>43.71616425924003124237060546875</LatitudeDegrees>
              <LongitudeDegrees>-1.42080894671380519866943359375</LongitudeDegrees>
            </Position>
            <AltitudeMeters>34.59999847412109375</AltitudeMeters>
            <DistanceMeters>NAN</DistanceMeters>
          </Trackpoint>
          <Trackpoint>
            <Time>2022-07-07T07:31:31.000Z</Time>
            <Position>
              <LatitudeDegrees>43.71607691980898380279541015625</LatitudeDegrees>
              <LongitudeDegrees>-1.420888490974903106689453125</LongitudeDegrees>
            </Position>
            <AltitudeMeters>34.59999847412109375</AltitudeMeters>
            <DistanceMeters>NAN</DistanceMeters>
          </Trackpoint>
          <Trackpoint>
            <Time>2022-07-07T07:31:33.000Z</Time>
            <Position>
              <LatitudeDegrees>43.71597222983837127685546875</LatitudeDegrees>
              <LongitudeDegrees>-1.42094406299293041229248046875</LongitudeDegrees>
            </Position>
            <AltitudeMeters>34.59999847412109375</AltitudeMeters>
            <DistanceMeters>NAN</DistanceMeters>
          </Trackpoint>
          <Trackpoint>
            <Time>2022-07-07T07:31:40.000Z</Time>
            <Position>
              <LatitudeDegrees>43.71558791957795619964599609375</LatitudeDegrees>
              <LongitudeDegrees>-1.42107121646404266357421875</LongitudeDegrees>
            </Position>
            <AltitudeMeters>34.40000152587890625</AltitudeMeters>
            <DistanceMeters>NAN</DistanceMeters>
          </Trackpoint>
          <Trackpoint>
            <Time>2022-07-07T07:31:42.000Z</Time>
            <Position>
              <LatitudeDegrees>43.71548633091151714324951171875</LatitudeDegrees>
              <LongitudeDegrees>-1.4211039058864116668701171875</LongitudeDegrees>
            </Position>
            <AltitudeMeters>34</AltitudeMeters>
            <DistanceMeters>NAN</DistanceMeters>
          </Trackpoint>
          <Trackpoint>
            <Time>2022-07-07T07:31:44.000Z</Time>
            <Position>
              <LatitudeDegrees>43.71537753380835056304931640625</LatitudeDegrees>
              <LongitudeDegrees>-1.421120502054691314697265625</LongitudeDegrees>
            </Position>
            <AltitudeMeters>33.59999847412109375</AltitudeMeters>
            <DistanceMeters>NAN</DistanceMeters>
          </Trackpoint>
          <Trackpoint>
            <Time>2022-07-07T07:31:45.000Z</Time>
            <Position>
              <LatitudeDegrees>43.71532380580902099609375</LatitudeDegrees>
              <LongitudeDegrees>-1.4211106114089488983154296875</LongitudeDegrees>
            </Position>
            <AltitudeMeters>33.40000152587890625</AltitudeMeters>
            <DistanceMeters>NAN</DistanceMeters>
          </Trackpoint>
          <Trackpoint>
            <Time>2022-07-07T07:31:47.000Z</Time>
            <Position>
              <LatitudeDegrees>43.71524359099566936492919921875</LatitudeDegrees>
              <LongitudeDegrees>-1.4210951887071132659912109375</LongitudeDegrees>
            </Position>
            <AltitudeMeters>33</AltitudeMeters>
            <DistanceMeters>NAN</DistanceMeters>
          </Trackpoint>
          <Trackpoint>
            <Time>2022-07-07T07:31:49.000Z</Time>
            <Position>
              <LatitudeDegrees>43.71514619328081607818603515625</LatitudeDegrees>
              <LongitudeDegrees>-1.42109057866036891937255859375</LongitudeDegrees>
            </Position>
            <AltitudeMeters>32.799999237060546875</AltitudeMeters>
            <DistanceMeters>NAN</DistanceMeters>
          </Trackpoint>
          <Trackpoint>
            <Time>2022-07-07T07:31:52.000Z</Time>
            <Position>
              <LatitudeDegrees>43.71501208283007144927978515625</LatitudeDegrees>
              <LongitudeDegrees>-1.4211126230657100677490234375</LongitudeDegrees>
            </Position>
            <AltitudeMeters>33</AltitudeMeters>
            <DistanceMeters>NAN</DistanceMeters>
          </Trackpoint>
          <Trackpoint>
            <Time>2022-07-07T07:31:53.000Z</Time>
            <Position>
              <LatitudeDegrees>43.71496397070586681365966796875</LatitudeDegrees>
              <LongitudeDegrees>-1.42111756838858127593994140625</LongitudeDegrees>
            </Position>
            <AltitudeMeters>33.40000152587890625</AltitudeMeters>
            <DistanceMeters>NAN</DistanceMeters>
          </Trackpoint>
          <Trackpoint>
            <Time>2022-07-07T07:31:56.000Z</Time>
            <Position>
              <LatitudeDegrees>43.71481142006814479827880859375</LatitudeDegrees>
              <LongitudeDegrees>-1.42110113985836505889892578125</LongitudeDegrees>
            </Position>
            <AltitudeMeters>33.799999237060546875</AltitudeMeters>
            <DistanceMeters>NAN</DistanceMeters>
          </Trackpoint>
          <Trackpoint>
            <Time>2022-07-07T07:31:58.000Z</Time>
            <Position>
              <LatitudeDegrees>43.71473011560738086700439453125</LatitudeDegrees>
              <LongitudeDegrees>-1.42108068801462650299072265625</LongitudeDegrees>
            </Position>
            <AltitudeMeters>34</AltitudeMeters>
            <DistanceMeters>NAN</DistanceMeters>
          </Trackpoint>
          <Trackpoint>
            <Time>2022-07-07T07:32:01.000Z</Time>
            <Position>
              <LatitudeDegrees>43.71462165378034114837646484375</LatitudeDegrees>
              <LongitudeDegrees>-1.421023942530155181884765625</LongitudeDegrees>
            </Position>
            <AltitudeMeters>34.200000762939453125</AltitudeMeters>
            <DistanceMeters>NAN</DistanceMeters>
          </Trackpoint>
          <Trackpoint>
            <Time>2022-07-07T07:32:06.000Z</Time>
            <Position>
              <LatitudeDegrees>43.71442736126482486724853515625</LatitudeDegrees>
              <LongitudeDegrees>-1.42093920148909091949462890625</LongitudeDegrees>
            </Position>
            <AltitudeMeters>34.40000152587890625</AltitudeMeters>
            <DistanceMeters>NAN</DistanceMeters>
          </Trackpoint>
          <Trackpoint>
            <Time>2022-07-07T07:32:10.000Z</Time>
            <Position>
              <LatitudeDegrees>43.71425905264914035797119140625</LatitudeDegrees>
              <LongitudeDegrees>-1.4208413846790790557861328125</LongitudeDegrees>
            </Position>
            <AltitudeMeters>34.200000762939453125</AltitudeMeters>
            <DistanceMeters>NAN</DistanceMeters>
          </Trackpoint>
          <Trackpoint>
            <Time>2022-07-07T07:32:13.000Z</Time>
            <Position>
              <LatitudeDegrees>43.71413969434797763824462890625</LatitudeDegrees>
              <LongitudeDegrees>-1.42075848765671253204345703125</LongitudeDegrees>
            </Position>
            <AltitudeMeters>34</AltitudeMeters>
            <DistanceMeters>NAN</DistanceMeters>
          </Trackpoint>
          <Trackpoint>
            <Time>2022-07-07T07:32:17.000Z</Time>
            <Position>
              <LatitudeDegrees>43.71398898772895336151123046875</LatitudeDegrees>
              <LongitudeDegrees>-1.42065069638192653656005859375</LongitudeDegrees>
            </Position>
            <AltitudeMeters>34</AltitudeMeters>
            <DistanceMeters>NAN</DistanceMeters>
          </Trackpoint>
          <Trackpoint>
            <Time>2022-07-07T07:32:20.000Z</Time>
            <Position>
              <LatitudeDegrees>43.71386191807687282562255859375</LatitudeDegrees>
              <LongitudeDegrees>-1.4205677993595600128173828125</LongitudeDegrees>
            </Position>
            <AltitudeMeters>34</AltitudeMeters>
            <DistanceMeters>NAN</DistanceMeters>
          </Trackpoint>
          <Trackpoint>
            <Time>2022-07-07T07:32:22.000Z</Time>
            <Position>
              <LatitudeDegrees>43.71377541683614253997802734375</LatitudeDegrees>
              <LongitudeDegrees>-1.42049990594387054443359375</LongitudeDegrees>
            </Position>
            <AltitudeMeters>33.799999237060546875</AltitudeMeters>
            <DistanceMeters>NAN</DistanceMeters>
          </Trackpoint>
          <Trackpoint>
            <Time>2022-07-07T07:32:24.000Z</Time>
            <Position>
              <LatitudeDegrees>43.71369813568890094757080078125</LatitudeDegrees>
              <LongitudeDegrees>-1.4204075373709201812744140625</LongitudeDegrees>
            </Position>
            <AltitudeMeters>33.40000152587890625</AltitudeMeters>
            <DistanceMeters>NAN</DistanceMeters>
          </Trackpoint>
          <Trackpoint>
            <Time>2022-07-07T07:32:27.000Z</Time>
            <Position>
              <LatitudeDegrees>43.7135590799152851104736328125</LatitudeDegrees>
              <LongitudeDegrees>-1.42024249769747257232666015625</LongitudeDegrees>
            </Position>
            <AltitudeMeters>33</AltitudeMeters>
            <DistanceMeters>NAN</DistanceMeters>
          </Trackpoint>
          <Trackpoint>
            <Time>2022-07-07T07:32:28.000Z</Time>
            <Position>
              <LatitudeDegrees>43.713522367179393768310546875</LatitudeDegrees>
              <LongitudeDegrees>-1.4201889373362064361572265625</LongitudeDegrees>
            </Position>
            <AltitudeMeters>33</AltitudeMeters>
            <DistanceMeters>NAN</DistanceMeters>
          </Trackpoint>
          <Trackpoint>
            <Time>2022-07-07T07:32:29.000Z</Time>
            <Position>
              <LatitudeDegrees>43.71348372660577297210693359375</LatitudeDegrees>
              <LongitudeDegrees>-1.42013772390782833099365234375</LongitudeDegrees>
            </Position>
            <AltitudeMeters>32.799999237060546875</AltitudeMeters>
            <DistanceMeters>NAN</DistanceMeters>
          </Trackpoint>
          <Trackpoint>
            <Time>2022-07-07T07:32:31.000Z</Time>
            <Position>
              <LatitudeDegrees>43.713393621146678924560546875</LatitudeDegrees>
              <LongitudeDegrees>-1.4200383983552455902099609375</LongitudeDegrees>
            </Position>
            <AltitudeMeters>32.59999847412109375</AltitudeMeters>
            <DistanceMeters>NAN</DistanceMeters>
          </Trackpoint>
          <Trackpoint>
            <Time>2022-07-07T07:32:34.000Z</Time>
            <Position>
              <LatitudeDegrees>43.71326797641813755035400390625</LatitudeDegrees>
              <LongitudeDegrees>-1.4199146814644336700439453125</LongitudeDegrees>
            </Position>
            <AltitudeMeters>32.40000152587890625</AltitudeMeters>
            <DistanceMeters>NAN</DistanceMeters>
          </Trackpoint>
          <Trackpoint>
            <Time>2022-07-07T07:32:36.000Z</Time>
            <Position>
              <LatitudeDegrees>43.7131922878324985504150390625</LatitudeDegrees>
              <LongitudeDegrees>-1.41982172615826129913330078125</LongitudeDegrees>
            </Position>
            <AltitudeMeters>32.40000152587890625</AltitudeMeters>
            <DistanceMeters>NAN</DistanceMeters>
          </Trackpoint>
          <Trackpoint>
            <Time>2022-07-07T07:32:38.000Z</Time>
            <Position>
              <LatitudeDegrees>43.71315096504986286163330078125</LatitudeDegrees>
              <LongitudeDegrees>-1.41972466371953487396240234375</LongitudeDegrees>
            </Position>
            <AltitudeMeters>32.59999847412109375</AltitudeMeters>
            <DistanceMeters>NAN</DistanceMeters>
          </Trackpoint>
          <Trackpoint>
            <Time>2022-07-07T07:32:39.000Z</Time>
            <Position>
              <LatitudeDegrees>43.7131403200328350067138671875</LatitudeDegrees>
              <LongitudeDegrees>-1.419675461947917938232421875</LongitudeDegrees>
            </Position>
            <AltitudeMeters>32.59999847412109375</AltitudeMeters>
            <DistanceMeters>NAN</DistanceMeters>
          </Trackpoint>
          <Trackpoint>
            <Time>2022-07-07T07:32:41.000Z</Time>
            <Position>
              <LatitudeDegrees>43.71311995200812816619873046875</LatitudeDegrees>
              <LongitudeDegrees>-1.41958233900368213653564453125</LongitudeDegrees>
            </Position>
            <AltitudeMeters>32.799999237060546875</AltitudeMeters>
            <DistanceMeters>NAN</DistanceMeters>
          </Trackpoint>
          <Trackpoint>
            <Time>2022-07-07T07:32:43.000Z</Time>
            <Position>
              <LatitudeDegrees>43.71308290399610996246337890625</LatitudeDegrees>
              <LongitudeDegrees>-1.419537998735904693603515625</LongitudeDegrees>
            </Position>
            <AltitudeMeters>33</AltitudeMeters>
            <DistanceMeters>NAN</DistanceMeters>
          </Trackpoint>
          <Trackpoint>
            <Time>2022-07-07T07:32:45.000Z</Time>
            <Position>
              <LatitudeDegrees>43.713048957288265228271484375</LatitudeDegrees>
              <LongitudeDegrees>-1.419488377869129180908203125</LongitudeDegrees>
            </Position>
            <AltitudeMeters>33.200000762939453125</AltitudeMeters>
            <DistanceMeters>NAN</DistanceMeters>
          </Trackpoint>
          <Trackpoint>
            <Time>2022-07-07T07:32:47.000Z</Time>
            <Position>
              <LatitudeDegrees>43.7130206264555454254150390625</LatitudeDegrees>
              <LongitudeDegrees>-1.41943884082138538360595703125</LongitudeDegrees>
            </Position>
            <AltitudeMeters>33.40000152587890625</AltitudeMeters>
            <DistanceMeters>NAN</DistanceMeters>
          </Trackpoint>
          <Trackpoint>
            <Time>2022-07-07T07:32:48.000Z</Time>
            <Position>
              <LatitudeDegrees>43.71299858205020427703857421875</LatitudeDegrees>
              <LongitudeDegrees>-1.4194235019385814666748046875</LongitudeDegrees>
            </Position>
            <AltitudeMeters>33.40000152587890625</AltitudeMeters>
            <DistanceMeters>NAN</DistanceMeters>
          </Trackpoint>
          <Trackpoint>
            <Time>2022-07-07T07:32:50.000Z</Time>
            <Position>
              <LatitudeDegrees>43.71295969001948833465576171875</LatitudeDegrees>
              <LongitudeDegrees>-1.41939751803874969482421875</LongitudeDegrees>
            </Position>
            <AltitudeMeters>33.799999237060546875</AltitudeMeters>
            <DistanceMeters>NAN</DistanceMeters>
          </Trackpoint>
          <Trackpoint>
            <Time>2022-07-07T07:32:54.000Z</Time>
            <Position>
              <LatitudeDegrees>43.7128521502017974853515625</LatitudeDegrees>
              <LongitudeDegrees>-1.41940698958933353424072265625</LongitudeDegrees>
            </Position>
            <AltitudeMeters>34.200000762939453125</AltitudeMeters>
            <DistanceMeters>NAN</DistanceMeters>
          </Trackpoint>
          <Trackpoint>
            <Time>2022-07-07T07:32:55.000Z</Time>
            <Position>
              <LatitudeDegrees>43.71281937696039676666259765625</LatitudeDegrees>
              <LongitudeDegrees>-1.4193950034677982330322265625</LongitudeDegrees>
            </Position>
            <AltitudeMeters>34.40000152587890625</AltitudeMeters>
            <DistanceMeters>NAN</DistanceMeters>
          </Trackpoint>
          <Trackpoint>
            <Time>2022-07-07T07:32:58.000Z</Time>
            <Position>
              <LatitudeDegrees>43.71273220516741275787353515625</LatitudeDegrees>
              <LongitudeDegrees>-1.41939056105911731719970703125</LongitudeDegrees>
            </Position>
            <AltitudeMeters>34.59999847412109375</AltitudeMeters>
            <DistanceMeters>NAN</DistanceMeters>
          </Trackpoint>
          <Trackpoint>
            <Time>2022-07-07T07:33:00.000Z</Time>
            <Position>
              <LatitudeDegrees>43.7126927264034748077392578125</LatitudeDegrees>
              <LongitudeDegrees>-1.419403553009033203125</LongitudeDegrees>
            </Position>
            <AltitudeMeters>34.799999237060546875</AltitudeMeters>
            <DistanceMeters>NAN</DistanceMeters>
          </Trackpoint>
          <Trackpoint>
            <Time>2022-07-07T07:33:05.000Z</Time>
            <Position>
              <LatitudeDegrees>43.712578229606151580810546875</LatitudeDegrees>
              <LongitudeDegrees>-1.4193423651158809661865234375</LongitudeDegrees>
            </Position>
            <AltitudeMeters>35.200000762939453125</AltitudeMeters>
            <DistanceMeters>NAN</DistanceMeters>
          </Trackpoint>
          <Trackpoint>
            <Time>2022-07-07T07:33:10.000Z</Time>
            <Position>
              <LatitudeDegrees>43.7124670855700969696044921875</LatitudeDegrees>
              <LongitudeDegrees>-1.4192374236881732940673828125</LongitudeDegrees>
            </Position>
            <AltitudeMeters>35.40000152587890625</AltitudeMeters>
            <DistanceMeters>NAN</DistanceMeters>
          </Trackpoint>
          <Trackpoint>
            <Time>2022-07-07T07:33:15.000Z</Time>
            <Position>
              <LatitudeDegrees>43.71235527098178863525390625</LatitudeDegrees>
              <LongitudeDegrees>-1.4190714620053768157958984375</LongitudeDegrees>
            </Position>
            <AltitudeMeters>35.799999237060546875</AltitudeMeters>
            <DistanceMeters>NAN</DistanceMeters>
          </Trackpoint>
          <Trackpoint>
            <Time>2022-07-07T07:33:20.000Z</Time>
            <Position>
              <LatitudeDegrees>43.712220154702663421630859375</LatitudeDegrees>
              <LongitudeDegrees>-1.41888312064111232757568359375</LongitudeDegrees>
            </Position>
            <AltitudeMeters>35.799999237060546875</AltitudeMeters>
            <DistanceMeters>NAN</DistanceMeters>
          </Trackpoint>
          <Trackpoint>
            <Time>2022-07-07T07:33:24.000Z</Time>
            <Position>
              <LatitudeDegrees>43.71201052330434322357177734375</LatitudeDegrees>
              <LongitudeDegrees>-1.41879477538168430328369140625</LongitudeDegrees>
            </Position>
            <AltitudeMeters>35.40000152587890625</AltitudeMeters>
            <DistanceMeters>NAN</DistanceMeters>
          </Trackpoint>
          <Trackpoint>
            <Time>2022-07-07T07:33:26.000Z</Time>
            <Position>
              <LatitudeDegrees>43.71190642006695270538330078125</LatitudeDegrees>
              <LongitudeDegrees>-1.4187717251479625701904296875</LongitudeDegrees>
            </Position>
            <AltitudeMeters>35.200000762939453125</AltitudeMeters>
            <DistanceMeters>NAN</DistanceMeters>
          </Trackpoint>
          <Trackpoint>
            <Time>2022-07-07T07:33:30.000Z</Time>
            <Position>
              <LatitudeDegrees>43.71165831573307514190673828125</LatitudeDegrees>
              <LongitudeDegrees>-1.41878387890756130218505859375</LongitudeDegrees>
            </Position>
            <AltitudeMeters>34.799999237060546875</AltitudeMeters>
            <DistanceMeters>NAN</DistanceMeters>
          </Trackpoint>
          <Trackpoint>
            <Time>2022-07-07T07:33:32.000Z</Time>
            <Position>
              <LatitudeDegrees>43.71153652667999267578125</LatitudeDegrees>
              <LongitudeDegrees>-1.41880651004612445831298828125</LongitudeDegrees>
            </Position>
            <AltitudeMeters>34.59999847412109375</AltitudeMeters>
            <DistanceMeters>NAN</DistanceMeters>
          </Trackpoint>
          <Trackpoint>
            <Time>2022-07-07T07:33:37.000Z</Time>
            <Position>
              <LatitudeDegrees>43.71126973070204257965087890625</LatitudeDegrees>
              <LongitudeDegrees>-1.418875493109226226806640625</LongitudeDegrees>
            </Position>
            <AltitudeMeters>33.59999847412109375</AltitudeMeters>
            <DistanceMeters>NAN</DistanceMeters>
          </Trackpoint>
          <Trackpoint>
            <Time>2022-07-07T07:33:39.000Z</Time>
            <Position>
              <LatitudeDegrees>43.7111682258546352386474609375</LatitudeDegrees>
              <LongitudeDegrees>-1.41891815699636936187744140625</LongitudeDegrees>
            </Position>
            <AltitudeMeters>33.40000152587890625</AltitudeMeters>
            <DistanceMeters>NAN</DistanceMeters>
          </Trackpoint>
          <Trackpoint>
            <Time>2022-07-07T07:33:42.000Z</Time>
            <Position>
              <LatitudeDegrees>43.71102648787200450897216796875</LatitudeDegrees>
              <LongitudeDegrees>-1.41897951252758502960205078125</LongitudeDegrees>
            </Position>
            <AltitudeMeters>33.40000152587890625</AltitudeMeters>
            <DistanceMeters>NAN</DistanceMeters>
          </Trackpoint>
          <Trackpoint>
            <Time>2022-07-07T07:33:45.000Z</Time>
            <Position>
              <LatitudeDegrees>43.71087209321558475494384765625</LatitudeDegrees>
              <LongitudeDegrees>-1.4190044067800045013427734375</LongitudeDegrees>
            </Position>
            <AltitudeMeters>33.59999847412109375</AltitudeMeters>
            <DistanceMeters>NAN</DistanceMeters>
          </Trackpoint>
          <Trackpoint>
            <Time>2022-07-07T07:33:46.000Z</Time>
            <Position>
              <LatitudeDegrees>43.71083387173712253570556640625</LatitudeDegrees>
              <LongitudeDegrees>-1.419002227485179901123046875</LongitudeDegrees>
            </Position>
            <AltitudeMeters>33.59999847412109375</AltitudeMeters>
            <DistanceMeters>NAN</DistanceMeters>
          </Trackpoint>
          <Trackpoint>
            <Time>2022-07-07T07:33:52.000Z</Time>
            <Position>
              <LatitudeDegrees>43.71060311794281005859375</LatitudeDegrees>
              <LongitudeDegrees>-1.4190144650638103485107421875</LongitudeDegrees>
            </Position>
            <AltitudeMeters>33.59999847412109375</AltitudeMeters>
            <DistanceMeters>NAN</DistanceMeters>
          </Trackpoint>
          <Trackpoint>
            <Time>2022-07-07T07:33:59.000Z</Time>
            <Position>
              <LatitudeDegrees>43.71036582626402378082275390625</LatitudeDegrees>
              <LongitudeDegrees>-1.41906869597733020782470703125</LongitudeDegrees>
            </Position>
            <AltitudeMeters>33.59999847412109375</AltitudeMeters>
            <DistanceMeters>NAN</DistanceMeters>
          </Trackpoint>
          <Trackpoint>
            <Time>2022-07-07T07:34:03.000Z</Time>
            <Position>
              <LatitudeDegrees>43.710227943956851959228515625</LatitudeDegrees>
              <LongitudeDegrees>-1.41905930824577808380126953125</LongitudeDegrees>
            </Position>
            <AltitudeMeters>33.59999847412109375</AltitudeMeters>
            <DistanceMeters>NAN</DistanceMeters>
          </Trackpoint>
          <Trackpoint>
            <Time>2022-07-07T07:34:09.000Z</Time>
            <Position>
              <LatitudeDegrees>43.710014708340167999267578125</LatitudeDegrees>
              <LongitudeDegrees>-1.419025361537933349609375</LongitudeDegrees>
            </Position>
            <AltitudeMeters>33.799999237060546875</AltitudeMeters>
            <DistanceMeters>NAN</DistanceMeters>
          </Trackpoint>
          <Trackpoint>
            <Time>2022-07-07T07:34:10.000Z</Time>
            <Position>
              <LatitudeDegrees>43.7099843658506870269775390625</LatitudeDegrees>
              <LongitudeDegrees>-1.41898579895496368408203125</LongitudeDegrees>
            </Position>
            <AltitudeMeters>33.799999237060546875</AltitudeMeters>
            <DistanceMeters>NAN</DistanceMeters>
          </Trackpoint>
          <Trackpoint>
            <Time>2022-07-07T07:34:11.000Z</Time>
            <Position>
              <LatitudeDegrees>43.70996500365436077117919921875</LatitudeDegrees>
              <LongitudeDegrees>-1.41896392218768596649169921875</LongitudeDegrees>
            </Position>
            <AltitudeMeters>34</AltitudeMeters>
            <DistanceMeters>NAN</DistanceMeters>
          </Trackpoint>
          <Trackpoint>
            <Time>2022-07-07T07:34:15.000Z</Time>
            <Position>
              <LatitudeDegrees>43.70983491651713848114013671875</LatitudeDegrees>
              <LongitudeDegrees>-1.41890172846615314483642578125</LongitudeDegrees>
            </Position>
            <AltitudeMeters>34.200000762939453125</AltitudeMeters>
            <DistanceMeters>NAN</DistanceMeters>
          </Trackpoint>
          <Trackpoint>
            <Time>2022-07-07T07:34:17.000Z</Time>
            <Position>
              <LatitudeDegrees>43.709773980081081390380859375</LatitudeDegrees>
              <LongitudeDegrees>-1.4188867248594760894775390625</LongitudeDegrees>
            </Position>
            <AltitudeMeters>34.200000762939453125</AltitudeMeters>
            <DistanceMeters>NAN</DistanceMeters>
          </Trackpoint>
          <Trackpoint>
            <Time>2022-07-07T07:34:23.000Z</Time>
            <Position>
              <LatitudeDegrees>43.70960324071347713470458984375</LatitudeDegrees>
              <LongitudeDegrees>-1.41885328106582164764404296875</LongitudeDegrees>
            </Position>
            <AltitudeMeters>34.59999847412109375</AltitudeMeters>
            <DistanceMeters>NAN</DistanceMeters>
          </Trackpoint>
          <Trackpoint>
            <Time>2022-07-07T07:34:24.000Z</Time>
            <Position>
              <LatitudeDegrees>43.70957759208977222442626953125</LatitudeDegrees>
              <LongitudeDegrees>-1.41882578842341899871826171875</LongitudeDegrees>
            </Position>
            <AltitudeMeters>34.799999237060546875</AltitudeMeters>
            <DistanceMeters>NAN</DistanceMeters>
          </Trackpoint>
          <Trackpoint>
            <Time>2022-07-07T07:34:30.000Z</Time>
            <Position>
              <LatitudeDegrees>43.70945957489311695098876953125</LatitudeDegrees>
              <LongitudeDegrees>-1.41877767629921436309814453125</LongitudeDegrees>
            </Position>
            <AltitudeMeters>35.40000152587890625</AltitudeMeters>
            <DistanceMeters>NAN</DistanceMeters>
          </Trackpoint>
          <Trackpoint>
            <Time>2022-07-07T07:34:34.000Z</Time>
            <Position>
              <LatitudeDegrees>43.70939017273485660552978515625</LatitudeDegrees>
              <LongitudeDegrees>-1.41870123334228992462158203125</LongitudeDegrees>
            </Position>
            <AltitudeMeters>35.799999237060546875</AltitudeMeters>
            <DistanceMeters>NAN</DistanceMeters>
          </Trackpoint>
          <Trackpoint>
            <Time>2022-07-07T07:34:39.000Z</Time>
            <Position>
              <LatitudeDegrees>43.70930719189345836639404296875</LatitudeDegrees>
              <LongitudeDegrees>-1.418613307178020477294921875</LongitudeDegrees>
            </Position>
            <AltitudeMeters>36.200000762939453125</AltitudeMeters>
            <DistanceMeters>NAN</DistanceMeters>
          </Trackpoint>
          <Trackpoint>
            <Time>2022-07-07T07:34:43.000Z</Time>
            <Position>
              <LatitudeDegrees>43.70924902148544788360595703125</LatitudeDegrees>
              <LongitudeDegrees>-1.418549604713916778564453125</LongitudeDegrees>
            </Position>
            <AltitudeMeters>36.59999847412109375</AltitudeMeters>
            <DistanceMeters>NAN</DistanceMeters>
          </Trackpoint>
          <Trackpoint>
            <Time>2022-07-07T07:34:46.000Z</Time>
            <Position>
              <LatitudeDegrees>43.70919604785740375518798828125</LatitudeDegrees>
              <LongitudeDegrees>-1.41848229803144931793212890625</LongitudeDegrees>
            </Position>
            <AltitudeMeters>36.59999847412109375</AltitudeMeters>
            <DistanceMeters>NAN</DistanceMeters>
          </Trackpoint>
          <Trackpoint>
            <Time>2022-07-07T07:34:47.000Z</Time>
            <Position>
              <LatitudeDegrees>43.70916922576725482940673828125</LatitudeDegrees>
              <LongitudeDegrees>-1.4184579066932201385498046875</LongitudeDegrees>
            </Position>
            <AltitudeMeters>36.59999847412109375</AltitudeMeters>
            <DistanceMeters>NAN</DistanceMeters>
          </Trackpoint>
          <Trackpoint>
            <Time>2022-07-07T07:34:54.000Z</Time>
            <Position>
              <LatitudeDegrees>43.7090603448450565338134765625</LatitudeDegrees>
              <LongitudeDegrees>-1.4182627759873867034912109375</LongitudeDegrees>
            </Position>
            <AltitudeMeters>36.799999237060546875</AltitudeMeters>
            <DistanceMeters>NAN</DistanceMeters>
          </Trackpoint>
          <Trackpoint>
            <Time>2022-07-07T07:34:59.000Z</Time>
            <Position>
              <LatitudeDegrees>43.708958588540554046630859375</LatitudeDegrees>
              <LongitudeDegrees>-1.4180974848568439483642578125</LongitudeDegrees>
            </Position>
            <AltitudeMeters>36.799999237060546875</AltitudeMeters>
            <DistanceMeters>NAN</DistanceMeters>
          </Trackpoint>
          <Trackpoint>
            <Time>2022-07-07T07:35:01.000Z</Time>
            <Position>
              <LatitudeDegrees>43.70891558937728404998779296875</LatitudeDegrees>
              <LongitudeDegrees>-1.4180181920528411865234375</LongitudeDegrees>
            </Position>
            <AltitudeMeters>37</AltitudeMeters>
            <DistanceMeters>NAN</DistanceMeters>
          </Trackpoint>
          <Trackpoint>
            <Time>2022-07-07T07:35:10.000Z</Time>
            <Position>
              <LatitudeDegrees>43.70872632600367069244384765625</LatitudeDegrees>
              <LongitudeDegrees>-1.4176622964441776275634765625</LongitudeDegrees>
            </Position>
            <AltitudeMeters>36.799999237060546875</AltitudeMeters>
            <DistanceMeters>NAN</DistanceMeters>
          </Trackpoint>
          <Trackpoint>
            <Time>2022-07-07T07:35:17.000Z</Time>
            <Position>
              <LatitudeDegrees>43.70856120251119136810302734375</LatitudeDegrees>
              <LongitudeDegrees>-1.41735895536839962005615234375</LongitudeDegrees>
            </Position>
            <AltitudeMeters>36.59999847412109375</AltitudeMeters>
            <DistanceMeters>NAN</DistanceMeters>
          </Trackpoint>
          <Trackpoint>
            <Time>2022-07-07T07:35:21.000Z</Time>
            <Position>
              <LatitudeDegrees>43.70843480341136455535888671875</LatitudeDegrees>
              <LongitudeDegrees>-1.41719450242817401885986328125</LongitudeDegrees>
            </Position>
            <AltitudeMeters>36.40000152587890625</AltitudeMeters>
            <DistanceMeters>NAN</DistanceMeters>
          </Trackpoint>
          <Trackpoint>
            <Time>2022-07-07T07:35:23.000Z</Time>
            <Position>
              <LatitudeDegrees>43.7083374895155429840087890625</LatitudeDegrees>
              <LongitudeDegrees>-1.4171332307159900665283203125</LongitudeDegrees>
            </Position>
            <AltitudeMeters>36.40000152587890625</AltitudeMeters>
            <DistanceMeters>NAN</DistanceMeters>
          </Trackpoint>
          <Trackpoint>
            <Time>2022-07-07T07:35:24.000Z</Time>
            <Position>
              <LatitudeDegrees>43.70828568935394287109375</LatitudeDegrees>
              <LongitudeDegrees>-1.417106576263904571533203125</LongitudeDegrees>
            </Position>
            <AltitudeMeters>36.200000762939453125</AltitudeMeters>
            <DistanceMeters>NAN</DistanceMeters>
          </Trackpoint>
          <Trackpoint>
            <Time>2022-07-07T07:35:26.000Z</Time>
            <Position>
              <LatitudeDegrees>43.70818703435361385345458984375</LatitudeDegrees>
              <LongitudeDegrees>-1.41705687157809734344482421875</LongitudeDegrees>
            </Position>
            <AltitudeMeters>36.200000762939453125</AltitudeMeters>
            <DistanceMeters>NAN</DistanceMeters>
          </Trackpoint>
          <Trackpoint>
            <Time>2022-07-07T07:35:29.000Z</Time>
            <Position>
              <LatitudeDegrees>43.7080375850200653076171875</LatitudeDegrees>
              <LongitudeDegrees>-1.416996605694293975830078125</LongitudeDegrees>
            </Position>
            <AltitudeMeters>36</AltitudeMeters>
            <DistanceMeters>NAN</DistanceMeters>
          </Trackpoint>
          <Trackpoint>
            <Time>2022-07-07T07:35:30.000Z</Time>
            <Position>
              <LatitudeDegrees>43.7079866230487823486328125</LatitudeDegrees>
              <LongitudeDegrees>-1.41698813997209072113037109375</LongitudeDegrees>
            </Position>
            <AltitudeMeters>36</AltitudeMeters>
            <DistanceMeters>NAN</DistanceMeters>
          </Trackpoint>
          <Trackpoint>
            <Time>2022-07-07T07:35:32.000Z</Time>
            <Position>
              <LatitudeDegrees>43.70786198414862155914306640625</LatitudeDegrees>
              <LongitudeDegrees>-1.41698512248694896697998046875</LongitudeDegrees>
            </Position>
            <AltitudeMeters>35.799999237060546875</AltitudeMeters>
            <DistanceMeters>NAN</DistanceMeters>
          </Trackpoint>
          <Trackpoint>
            <Time>2022-07-07T07:35:33.000Z</Time>
            <Position>
              <LatitudeDegrees>43.70781035162508487701416015625</LatitudeDegrees>
              <LongitudeDegrees>-1.416993252933025360107421875</LongitudeDegrees>
            </Position>
            <AltitudeMeters>35.799999237060546875</AltitudeMeters>
            <DistanceMeters>NAN</DistanceMeters>
          </Trackpoint>
          <Trackpoint>
            <Time>2022-07-07T07:35:34.000Z</Time>
            <Position>
              <LatitudeDegrees>43.7077586352825164794921875</LatitudeDegrees>
              <LongitudeDegrees>-1.4170038141310214996337890625</LongitudeDegrees>
            </Position>
            <AltitudeMeters>35.59999847412109375</AltitudeMeters>
            <DistanceMeters>NAN</DistanceMeters>
          </Trackpoint>
          <Trackpoint>
            <Time>2022-07-07T07:35:37.000Z</Time>
            <Position>
              <LatitudeDegrees>43.7075975351035594940185546875</LatitudeDegrees>
              <LongitudeDegrees>-1.417054943740367889404296875</LongitudeDegrees>
            </Position>
            <AltitudeMeters>35.40000152587890625</AltitudeMeters>
            <DistanceMeters>NAN</DistanceMeters>
          </Trackpoint>
          <Trackpoint>
            <Time>2022-07-07T07:35:39.000Z</Time>
            <Position>
              <LatitudeDegrees>43.707483373582363128662109375</LatitudeDegrees>
              <LongitudeDegrees>-1.41709886491298675537109375</LongitudeDegrees>
            </Position>
            <AltitudeMeters>35.200000762939453125</AltitudeMeters>
            <DistanceMeters>NAN</DistanceMeters>
          </Trackpoint>
          <Trackpoint>
            <Time>2022-07-07T07:35:41.000Z</Time>
            <Position>
              <LatitudeDegrees>43.7073889933526515960693359375</LatitudeDegrees>
              <LongitudeDegrees>-1.41716399230062961578369140625</LongitudeDegrees>
            </Position>
            <AltitudeMeters>35</AltitudeMeters>
            <DistanceMeters>NAN</DistanceMeters>
          </Trackpoint>
          <Trackpoint>
            <Time>2022-07-07T07:35:43.000Z</Time>
            <Position>
              <LatitudeDegrees>43.7072957865893840789794921875</LatitudeDegrees>
              <LongitudeDegrees>-1.4172361604869365692138671875</LongitudeDegrees>
            </Position>
            <AltitudeMeters>34.799999237060546875</AltitudeMeters>
            <DistanceMeters>NAN</DistanceMeters>
          </Trackpoint>
          <Trackpoint>
            <Time>2022-07-07T07:35:45.000Z</Time>
            <Position>
              <LatitudeDegrees>43.70722244493663311004638671875</LatitudeDegrees>
              <LongitudeDegrees>-1.4173045568168163299560546875</LongitudeDegrees>
            </Position>
            <AltitudeMeters>34.59999847412109375</AltitudeMeters>
            <DistanceMeters>NAN</DistanceMeters>
          </Trackpoint>
          <Trackpoint>
            <Time>2022-07-07T07:35:47.000Z</Time>
            <Position>
              <LatitudeDegrees>43.7071301601827144622802734375</LatitudeDegrees>
              <LongitudeDegrees>-1.417349316179752349853515625</LongitudeDegrees>
            </Position>
            <AltitudeMeters>34.40000152587890625</AltitudeMeters>
            <DistanceMeters>NAN</DistanceMeters>
          </Trackpoint>
          <Trackpoint>
            <Time>2022-07-07T07:35:52.000Z</Time>
            <Position>
              <LatitudeDegrees>43.706932850182056427001953125</LatitudeDegrees>
              <LongitudeDegrees>-1.4175000227987766265869140625</LongitudeDegrees>
            </Position>
            <AltitudeMeters>34.200000762939453125</AltitudeMeters>
            <DistanceMeters>NAN</DistanceMeters>
          </Trackpoint>
          <Trackpoint>
            <Time>2022-07-07T07:35:57.000Z</Time>
            <Position>
              <LatitudeDegrees>43.70677116326987743377685546875</LatitudeDegrees>
              <LongitudeDegrees>-1.4176425151526927947998046875</LongitudeDegrees>
            </Position>
            <AltitudeMeters>33.59999847412109375</AltitudeMeters>
            <DistanceMeters>NAN</DistanceMeters>
          </Trackpoint>
          <Trackpoint>
            <Time>2022-07-07T07:35:58.000Z</Time>
            <Position>
              <LatitudeDegrees>43.706741072237491607666015625</LatitudeDegrees>
              <LongitudeDegrees>-1.41766908578574657440185546875</LongitudeDegrees>
            </Position>
            <AltitudeMeters>33.59999847412109375</AltitudeMeters>
            <DistanceMeters>NAN</DistanceMeters>
          </Trackpoint>
          <Trackpoint>
            <Time>2022-07-07T07:36:03.000Z</Time>
            <Position>
              <LatitudeDegrees>43.70654887519776821136474609375</LatitudeDegrees>
              <LongitudeDegrees>-1.41781107522547245025634765625</LongitudeDegrees>
            </Position>
            <AltitudeMeters>33.200000762939453125</AltitudeMeters>
            <DistanceMeters>NAN</DistanceMeters>
          </Trackpoint>
          <Trackpoint>
            <Time>2022-07-07T07:36:07.000Z</Time>
            <Position>
              <LatitudeDegrees>43.70641820132732391357421875</LatitudeDegrees>
              <LongitudeDegrees>-1.41781233251094818115234375</LongitudeDegrees>
            </Position>
            <AltitudeMeters>32.799999237060546875</AltitudeMeters>
            <DistanceMeters>NAN</DistanceMeters>
          </Trackpoint>
          <Trackpoint>
            <Time>2022-07-07T07:36:08.000Z</Time>
            <Position>
              <LatitudeDegrees>43.70638911612331867218017578125</LatitudeDegrees>
              <LongitudeDegrees>-1.417790539562702178955078125</LongitudeDegrees>
            </Position>
            <AltitudeMeters>32.59999847412109375</AltitudeMeters>
            <DistanceMeters>NAN</DistanceMeters>
          </Trackpoint>
          <Trackpoint>
            <Time>2022-07-07T07:36:11.000Z</Time>
            <Position>
              <LatitudeDegrees>43.7062912993133068084716796875</LatitudeDegrees>
              <LongitudeDegrees>-1.4177635498344898223876953125</LongitudeDegrees>
            </Position>
            <AltitudeMeters>32.40000152587890625</AltitudeMeters>
            <DistanceMeters>NAN</DistanceMeters>
          </Trackpoint>
          <Trackpoint>
            <Time>2022-07-07T07:36:16.000Z</Time>
            <Position>
              <LatitudeDegrees>43.706134222447872161865234375</LatitudeDegrees>
              <LongitudeDegrees>-1.4178560860455036163330078125</LongitudeDegrees>
            </Position>
            <AltitudeMeters>33</AltitudeMeters>
            <DistanceMeters>NAN</DistanceMeters>
          </Trackpoint>
          <Trackpoint>
            <Time>2022-07-07T07:36:17.000Z</Time>
            <Position>
              <LatitudeDegrees>43.7061166204512119293212890625</LatitudeDegrees>
              <LongitudeDegrees>-1.41791249625384807586669921875</LongitudeDegrees>
            </Position>
            <AltitudeMeters>33</AltitudeMeters>
            <DistanceMeters>NAN</DistanceMeters>
          </Trackpoint>
          <Trackpoint>
            <Time>2022-07-07T07:36:19.000Z</Time>
            <Position>
              <LatitudeDegrees>43.706128858029842376708984375</LatitudeDegrees>
              <LongitudeDegrees>-1.4180203713476657867431640625</LongitudeDegrees>
            </Position>
            <AltitudeMeters>33.200000762939453125</AltitudeMeters>
            <DistanceMeters>NAN</DistanceMeters>
          </Trackpoint>
          <Trackpoint>
            <Time>2022-07-07T07:36:24.000Z</Time>
            <Position>
              <LatitudeDegrees>43.7060971744358539581298828125</LatitudeDegrees>
              <LongitudeDegrees>-1.4182500354945659637451171875</LongitudeDegrees>
            </Position>
            <AltitudeMeters>33.200000762939453125</AltitudeMeters>
            <DistanceMeters>NAN</DistanceMeters>
          </Trackpoint>
          <Trackpoint>
            <Time>2022-07-07T07:36:30.000Z</Time>
            <Position>
              <LatitudeDegrees>43.705959878861904144287109375</LatitudeDegrees>
              <LongitudeDegrees>-1.41848280094563961029052734375</LongitudeDegrees>
            </Position>
            <AltitudeMeters>32.59999847412109375</AltitudeMeters>
            <DistanceMeters>NAN</DistanceMeters>
          </Trackpoint>
          <Trackpoint>
            <Time>2022-07-07T07:36:33.000Z</Time>
            <Position>
              <LatitudeDegrees>43.70597806759178638458251953125</LatitudeDegrees>
              <LongitudeDegrees>-1.41859880648553371429443359375</LongitudeDegrees>
            </Position>
            <AltitudeMeters>32.59999847412109375</AltitudeMeters>
            <DistanceMeters>NAN</DistanceMeters>
          </Trackpoint>
          <Trackpoint>
            <Time>2022-07-07T07:36:34.000Z</Time>
            <Position>
              <LatitudeDegrees>43.70600606314837932586669921875</LatitudeDegrees>
              <LongitudeDegrees>-1.418632753193378448486328125</LongitudeDegrees>
            </Position>
            <AltitudeMeters>32.59999847412109375</AltitudeMeters>
            <DistanceMeters>NAN</DistanceMeters>
          </Trackpoint>
          <Trackpoint>
            <Time>2022-07-07T07:36:37.000Z</Time>
            <Position>
              <LatitudeDegrees>43.70605819858610630035400390625</LatitudeDegrees>
              <LongitudeDegrees>-1.4187335036695003509521484375</LongitudeDegrees>
            </Position>
            <AltitudeMeters>32.40000152587890625</AltitudeMeters>
            <DistanceMeters>NAN</DistanceMeters>
          </Trackpoint>
          <Trackpoint>
            <Time>2022-07-07T07:36:38.000Z</Time>
            <Position>
              <LatitudeDegrees>43.7060579471290111541748046875</LatitudeDegrees>
              <LongitudeDegrees>-1.41876141540706157684326171875</LongitudeDegrees>
            </Position>
            <AltitudeMeters>32.59999847412109375</AltitudeMeters>
            <DistanceMeters>NAN</DistanceMeters>
          </Trackpoint>
          <Trackpoint>
            <Time>2022-07-07T07:36:39.000Z</Time>
            <Position>
              <LatitudeDegrees>43.70605099014937877655029296875</LatitudeDegrees>
              <LongitudeDegrees>-1.4187962003052234649658203125</LongitudeDegrees>
            </Position>
            <AltitudeMeters>32.40000152587890625</AltitudeMeters>
            <DistanceMeters>NAN</DistanceMeters>
          </Trackpoint>
          <Trackpoint>
            <Time>2022-07-07T07:36:42.000Z</Time>
            <Position>
              <LatitudeDegrees>43.7060006149113178253173828125</LatitudeDegrees>
              <LongitudeDegrees>-1.418931148946285247802734375</LongitudeDegrees>
            </Position>
            <AltitudeMeters>32.40000152587890625</AltitudeMeters>
            <DistanceMeters>NAN</DistanceMeters>
          </Trackpoint>
          <Trackpoint>
            <Time>2022-07-07T07:36:48.000Z</Time>
            <Position>
              <LatitudeDegrees>43.7059530057013034820556640625</LatitudeDegrees>
              <LongitudeDegrees>-1.4192126132547855377197265625</LongitudeDegrees>
            </Position>
            <AltitudeMeters>32</AltitudeMeters>
            <DistanceMeters>NAN</DistanceMeters>
          </Trackpoint>
          <Trackpoint>
            <Time>2022-07-07T07:36:56.000Z</Time>
            <Position>
              <LatitudeDegrees>43.70588636957108974456787109375</LatitudeDegrees>
              <LongitudeDegrees>-1.41958099789917469024658203125</LongitudeDegrees>
            </Position>
            <AltitudeMeters>32.200000762939453125</AltitudeMeters>
            <DistanceMeters>NAN</DistanceMeters>
          </Trackpoint>
          <Trackpoint>
            <Time>2022-07-07T07:37:00.000Z</Time>
            <Position>
              <LatitudeDegrees>43.70591050945222377777099609375</LatitudeDegrees>
              <LongitudeDegrees>-1.41975332982838153839111328125</LongitudeDegrees>
            </Position>
            <AltitudeMeters>32</AltitudeMeters>
            <DistanceMeters>NAN</DistanceMeters>
          </Trackpoint>
          <Trackpoint>
            <Time>2022-07-07T07:37:06.000Z</Time>
            <Position>
              <LatitudeDegrees>43.7059744633734226226806640625</LatitudeDegrees>
              <LongitudeDegrees>-1.4199659787118434906005859375</LongitudeDegrees>
            </Position>
            <AltitudeMeters>32.40000152587890625</AltitudeMeters>
            <DistanceMeters>NAN</DistanceMeters>
          </Trackpoint>
          <Trackpoint>
            <Time>2022-07-07T07:37:10.000Z</Time>
            <Position>
              <LatitudeDegrees>43.70599717833101749420166015625</LatitudeDegrees>
              <LongitudeDegrees>-1.420062370598316192626953125</LongitudeDegrees>
            </Position>
            <AltitudeMeters>32.799999237060546875</AltitudeMeters>
            <DistanceMeters>NAN</DistanceMeters>
          </Trackpoint>
          <Trackpoint>
            <Time>2022-07-07T07:37:14.000Z</Time>
            <Position>
              <LatitudeDegrees>43.7059865333139896392822265625</LatitudeDegrees>
              <LongitudeDegrees>-1.42022942192852497100830078125</LongitudeDegrees>
            </Position>
            <AltitudeMeters>33</AltitudeMeters>
            <DistanceMeters>NAN</DistanceMeters>
          </Trackpoint>
          <Trackpoint>
            <Time>2022-07-07T07:37:19.000Z</Time>
            <Position>
              <LatitudeDegrees>43.7060820870101451873779296875</LatitudeDegrees>
              <LongitudeDegrees>-1.420494206249713897705078125</LongitudeDegrees>
            </Position>
            <AltitudeMeters>33</AltitudeMeters>
            <DistanceMeters>NAN</DistanceMeters>
          </Trackpoint>
          <Trackpoint>
            <Time>2022-07-07T07:37:23.000Z</Time>
            <Position>
              <LatitudeDegrees>43.7061350606381893157958984375</LatitudeDegrees>
              <LongitudeDegrees>-1.42056754790246486663818359375</LongitudeDegrees>
            </Position>
            <AltitudeMeters>33.200000762939453125</AltitudeMeters>
            <DistanceMeters>NAN</DistanceMeters>
          </Trackpoint>
          <Trackpoint>
            <Time>2022-07-07T07:37:26.000Z</Time>
            <Position>
              <LatitudeDegrees>43.70619314722716808319091796875</LatitudeDegrees>
              <LongitudeDegrees>-1.4205808751285076141357421875</LongitudeDegrees>
            </Position>
            <AltitudeMeters>33.200000762939453125</AltitudeMeters>
            <DistanceMeters>NAN</DistanceMeters>
          </Trackpoint>
          <Trackpoint>
            <Time>2022-07-07T07:37:30.000Z</Time>
            <Position>
              <LatitudeDegrees>43.70628970675170421600341796875</LatitudeDegrees>
              <LongitudeDegrees>-1.42056788317859172821044921875</LongitudeDegrees>
            </Position>
            <AltitudeMeters>33.59999847412109375</AltitudeMeters>
            <DistanceMeters>NAN</DistanceMeters>
          </Trackpoint>
          <Trackpoint>
            <Time>2022-07-07T07:37:35.000Z</Time>
            <Position>
              <LatitudeDegrees>43.70638811029493808746337890625</LatitudeDegrees>
              <LongitudeDegrees>-1.42060585319995880126953125</LongitudeDegrees>
            </Position>
            <AltitudeMeters>34.200000762939453125</AltitudeMeters>
            <DistanceMeters>NAN</DistanceMeters>
          </Trackpoint>
          <Trackpoint>
            <Time>2022-07-07T07:37:41.000Z</Time>
            <Position>
              <LatitudeDegrees>43.70652414858341217041015625</LatitudeDegrees>
              <LongitudeDegrees>-1.4205946214497089385986328125</LongitudeDegrees>
            </Position>
            <AltitudeMeters>34.799999237060546875</AltitudeMeters>
            <DistanceMeters>NAN</DistanceMeters>
          </Trackpoint>
          <Trackpoint>
            <Time>2022-07-07T07:37:47.000Z</Time>
            <Position>
              <LatitudeDegrees>43.706669993698596954345703125</LatitudeDegrees>
              <LongitudeDegrees>-1.42064449377357959747314453125</LongitudeDegrees>
            </Position>
            <AltitudeMeters>35</AltitudeMeters>
            <DistanceMeters>NAN</DistanceMeters>
          </Trackpoint>
          <Trackpoint>
            <Time>2022-07-07T07:37:48.000Z</Time>
            <Position>
              <LatitudeDegrees>43.7066865898668766021728515625</LatitudeDegrees>
              <LongitudeDegrees>-1.42065404914319515228271484375</LongitudeDegrees>
            </Position>
            <AltitudeMeters>35</AltitudeMeters>
            <DistanceMeters>NAN</DistanceMeters>
          </Trackpoint>
          <Trackpoint>
            <Time>2022-07-07T07:37:51.000Z</Time>
            <Position>
              <LatitudeDegrees>43.706742413341999053955078125</LatitudeDegrees>
              <LongitudeDegrees>-1.4206968806684017181396484375</LongitudeDegrees>
            </Position>
            <AltitudeMeters>35</AltitudeMeters>
            <DistanceMeters>NAN</DistanceMeters>
          </Trackpoint>
          <Trackpoint>
            <Time>2022-07-07T07:37:59.000Z</Time>
            <Position>
              <LatitudeDegrees>43.70690099895000457763671875</LatitudeDegrees>
              <LongitudeDegrees>-1.4208252914249897003173828125</LongitudeDegrees>
            </Position>
            <AltitudeMeters>35.40000152587890625</AltitudeMeters>
            <DistanceMeters>NAN</DistanceMeters>
          </Trackpoint>
          <Trackpoint>
            <Time>2022-07-07T07:38:04.000Z</Time>
            <Position>
              <LatitudeDegrees>43.70705388486385345458984375</LatitudeDegrees>
              <LongitudeDegrees>-1.4210665225982666015625</LongitudeDegrees>
            </Position>
            <AltitudeMeters>35.799999237060546875</AltitudeMeters>
            <DistanceMeters>NAN</DistanceMeters>
          </Trackpoint>
          <Trackpoint>
            <Time>2022-07-07T07:38:10.000Z</Time>
            <Position>
              <LatitudeDegrees>43.70719629339873790740966796875</LatitudeDegrees>
              <LongitudeDegrees>-1.42117188312113285064697265625</LongitudeDegrees>
            </Position>
            <AltitudeMeters>36.40000152587890625</AltitudeMeters>
            <DistanceMeters>NAN</DistanceMeters>
          </Trackpoint>
          <Trackpoint>
            <Time>2022-07-07T07:38:14.000Z</Time>
            <Position>
              <LatitudeDegrees>43.70732084847986698150634765625</LatitudeDegrees>
              <LongitudeDegrees>-1.4212460629642009735107421875</LongitudeDegrees>
            </Position>
            <AltitudeMeters>36.59999847412109375</AltitudeMeters>
            <DistanceMeters>NAN</DistanceMeters>
          </Trackpoint>
          <Trackpoint>
            <Time>2022-07-07T07:38:19.000Z</Time>
            <Position>
              <LatitudeDegrees>43.7075026519596576690673828125</LatitudeDegrees>
              <LongitudeDegrees>-1.421467848122119903564453125</LongitudeDegrees>
            </Position>
            <AltitudeMeters>36.40000152587890625</AltitudeMeters>
            <DistanceMeters>NAN</DistanceMeters>
          </Trackpoint>
          <Trackpoint>
            <Time>2022-07-07T07:38:23.000Z</Time>
            <Position>
              <LatitudeDegrees>43.707642965018749237060546875</LatitudeDegrees>
              <LongitudeDegrees>-1.42166356556117534637451171875</LongitudeDegrees>
            </Position>
            <AltitudeMeters>36</AltitudeMeters>
            <DistanceMeters>NAN</DistanceMeters>
          </Trackpoint>
          <Trackpoint>
            <Time>2022-07-07T07:38:27.000Z</Time>
            <Position>
              <LatitudeDegrees>43.70769870467483997344970703125</LatitudeDegrees>
              <LongitudeDegrees>-1.421819888055324554443359375</LongitudeDegrees>
            </Position>
            <AltitudeMeters>36.200000762939453125</AltitudeMeters>
            <DistanceMeters>NAN</DistanceMeters>
          </Trackpoint>
          <Trackpoint>
            <Time>2022-07-07T07:38:28.000Z</Time>
            <Position>
              <LatitudeDegrees>43.7076961062848567962646484375</LatitudeDegrees>
              <LongitudeDegrees>-1.42187680117785930633544921875</LongitudeDegrees>
            </Position>
            <AltitudeMeters>36.200000762939453125</AltitudeMeters>
            <DistanceMeters>NAN</DistanceMeters>
          </Trackpoint>
          <Trackpoint>
            <Time>2022-07-07T07:38:30.000Z</Time>
            <Position>
              <LatitudeDegrees>43.7076776660978794097900390625</LatitudeDegrees>
              <LongitudeDegrees>-1.421970091760158538818359375</LongitudeDegrees>
            </Position>
            <AltitudeMeters>36.200000762939453125</AltitudeMeters>
            <DistanceMeters>NAN</DistanceMeters>
          </Trackpoint>
          <Trackpoint>
            <Time>2022-07-07T07:38:32.000Z</Time>
            <Position>
              <LatitudeDegrees>43.70766433887183666229248046875</LatitudeDegrees>
              <LongitudeDegrees>-1.42208014614880084991455078125</LongitudeDegrees>
            </Position>
            <AltitudeMeters>36.200000762939453125</AltitudeMeters>
            <DistanceMeters>NAN</DistanceMeters>
          </Trackpoint>
          <Trackpoint>
            <Time>2022-07-07T07:38:36.000Z</Time>
            <Position>
              <LatitudeDegrees>43.7077819369733333587646484375</LatitudeDegrees>
              <LongitudeDegrees>-1.4222083054482936859130859375</LongitudeDegrees>
            </Position>
            <AltitudeMeters>35.799999237060546875</AltitudeMeters>
            <DistanceMeters>NAN</DistanceMeters>
          </Trackpoint>
          <Trackpoint>
            <Time>2022-07-07T07:38:39.000Z</Time>
            <Position>
              <LatitudeDegrees>43.707941360771656036376953125</LatitudeDegrees>
              <LongitudeDegrees>-1.4224175177514553070068359375</LongitudeDegrees>
            </Position>
            <AltitudeMeters>35.40000152587890625</AltitudeMeters>
            <DistanceMeters>NAN</DistanceMeters>
          </Trackpoint>
          <Trackpoint>
            <Time>2022-07-07T07:38:40.000Z</Time>
            <Position>
              <LatitudeDegrees>43.7079894728958606719970703125</LatitudeDegrees>
              <LongitudeDegrees>-1.4224785380065441131591796875</LongitudeDegrees>
            </Position>
            <AltitudeMeters>35.200000762939453125</AltitudeMeters>
            <DistanceMeters>NAN</DistanceMeters>
          </Trackpoint>
          <Trackpoint>
            <Time>2022-07-07T07:38:42.000Z</Time>
            <Position>
              <LatitudeDegrees>43.70808091945946216583251953125</LatitudeDegrees>
              <LongitudeDegrees>-1.4225989021360874176025390625</LongitudeDegrees>
            </Position>
            <AltitudeMeters>35</AltitudeMeters>
            <DistanceMeters>NAN</DistanceMeters>
          </Trackpoint>
          <Trackpoint>
            <Time>2022-07-07T07:38:44.000Z</Time>
            <Position>
              <LatitudeDegrees>43.708152584731578826904296875</LatitudeDegrees>
              <LongitudeDegrees>-1.42274248413741588592529296875</LongitudeDegrees>
            </Position>
            <AltitudeMeters>34.59999847412109375</AltitudeMeters>
            <DistanceMeters>NAN</DistanceMeters>
          </Trackpoint>
          <Trackpoint>
            <Time>2022-07-07T07:38:48.000Z</Time>
            <Position>
              <LatitudeDegrees>43.70831343345344066619873046875</LatitudeDegrees>
              <LongitudeDegrees>-1.42304155044257640838623046875</LongitudeDegrees>
            </Position>
            <AltitudeMeters>33.59999847412109375</AltitudeMeters>
            <DistanceMeters>NAN</DistanceMeters>
          </Trackpoint>
          <Trackpoint>
            <Time>2022-07-07T07:38:49.000Z</Time>
            <Position>
              <LatitudeDegrees>43.70833522640168666839599609375</LatitudeDegrees>
              <LongitudeDegrees>-1.42310701310634613037109375</LongitudeDegrees>
            </Position>
            <AltitudeMeters>33.40000152587890625</AltitudeMeters>
            <DistanceMeters>NAN</DistanceMeters>
          </Trackpoint>
          <Trackpoint>
            <Time>2022-07-07T07:38:50.000Z</Time>
            <Position>
              <LatitudeDegrees>43.70836079120635986328125</LatitudeDegrees>
              <LongitudeDegrees>-1.42316727899014949798583984375</LongitudeDegrees>
            </Position>
            <AltitudeMeters>33.200000762939453125</AltitudeMeters>
            <DistanceMeters>NAN</DistanceMeters>
          </Trackpoint>
          <Trackpoint>
            <Time>2022-07-07T07:38:52.000Z</Time>
            <Position>
              <LatitudeDegrees>43.70838635601103305816650390625</LatitudeDegrees>
              <LongitudeDegrees>-1.42329879105091094970703125</LongitudeDegrees>
            </Position>
            <AltitudeMeters>33.200000762939453125</AltitudeMeters>
            <DistanceMeters>NAN</DistanceMeters>
          </Trackpoint>
          <Trackpoint>
            <Time>2022-07-07T07:38:54.000Z</Time>
            <Position>
              <LatitudeDegrees>43.70840965770184993743896484375</LatitudeDegrees>
              <LongitudeDegrees>-1.4234240166842937469482421875</LongitudeDegrees>
            </Position>
            <AltitudeMeters>33.200000762939453125</AltitudeMeters>
            <DistanceMeters>NAN</DistanceMeters>
          </Trackpoint>
          <Trackpoint>
            <Time>2022-07-07T07:38:56.000Z</Time>
            <Position>
              <LatitudeDegrees>43.708449639379978179931640625</LatitudeDegrees>
              <LongitudeDegrees>-1.4235435426235198974609375</LongitudeDegrees>
            </Position>
            <AltitudeMeters>33.200000762939453125</AltitudeMeters>
            <DistanceMeters>NAN</DistanceMeters>
          </Trackpoint>
          <Trackpoint>
            <Time>2022-07-07T07:38:58.000Z</Time>
            <Position>
              <LatitudeDegrees>43.70847411453723907470703125</LatitudeDegrees>
              <LongitudeDegrees>-1.42365627922117710113525390625</LongitudeDegrees>
            </Position>
            <AltitudeMeters>33.200000762939453125</AltitudeMeters>
            <DistanceMeters>NAN</DistanceMeters>
          </Trackpoint>
          <Trackpoint>
            <Time>2022-07-07T07:39:01.000Z</Time>
            <Position>
              <LatitudeDegrees>43.70852239429950714111328125</LatitudeDegrees>
              <LongitudeDegrees>-1.4238144457340240478515625</LongitudeDegrees>
            </Position>
            <AltitudeMeters>33.200000762939453125</AltitudeMeters>
            <DistanceMeters>NAN</DistanceMeters>
          </Trackpoint>
          <Trackpoint>
            <Time>2022-07-07T07:39:06.000Z</Time>
            <Position>
              <LatitudeDegrees>43.70858609676361083984375</LatitudeDegrees>
              <LongitudeDegrees>-1.42402407713234424591064453125</LongitudeDegrees>
            </Position>
            <AltitudeMeters>33.40000152587890625</AltitudeMeters>
            <DistanceMeters>NAN</DistanceMeters>
          </Trackpoint>
          <Trackpoint>
            <Time>2022-07-07T07:39:12.000Z</Time>
            <Position>
              <LatitudeDegrees>43.70859590359032154083251953125</LatitudeDegrees>
              <LongitudeDegrees>-1.42430386506021022796630859375</LongitudeDegrees>
            </Position>
            <AltitudeMeters>33.799999237060546875</AltitudeMeters>
            <DistanceMeters>NAN</DistanceMeters>
          </Trackpoint>
          <Trackpoint>
            <Time>2022-07-07T07:39:18.000Z</Time>
            <Position>
              <LatitudeDegrees>43.708559609949588775634765625</LatitudeDegrees>
              <LongitudeDegrees>-1.42456454224884510040283203125</LongitudeDegrees>
            </Position>
            <AltitudeMeters>34</AltitudeMeters>
            <DistanceMeters>NAN</DistanceMeters>
          </Trackpoint>
          <Trackpoint>
            <Time>2022-07-07T07:39:22.000Z</Time>
            <Position>
              <LatitudeDegrees>43.70853446424007415771484375</LatitudeDegrees>
              <LongitudeDegrees>-1.42473385669291019439697265625</LongitudeDegrees>
            </Position>
            <AltitudeMeters>34.59999847412109375</AltitudeMeters>
            <DistanceMeters>NAN</DistanceMeters>
          </Trackpoint>
          <Trackpoint>
            <Time>2022-07-07T07:39:24.000Z</Time>
            <Position>
              <LatitudeDegrees>43.70850152336061000823974609375</LatitudeDegrees>
              <LongitudeDegrees>-1.42481046728789806365966796875</LongitudeDegrees>
            </Position>
            <AltitudeMeters>34.59999847412109375</AltitudeMeters>
            <DistanceMeters>NAN</DistanceMeters>
          </Trackpoint>
          <Trackpoint>
            <Time>2022-07-07T07:39:25.000Z</Time>
            <Position>
              <LatitudeDegrees>43.7084935605525970458984375</LatitudeDegrees>
              <LongitudeDegrees>-1.42483980394899845123291015625</LongitudeDegrees>
            </Position>
            <AltitudeMeters>34.799999237060546875</AltitudeMeters>
            <DistanceMeters>NAN</DistanceMeters>
          </Trackpoint>
          <Trackpoint>
            <Time>2022-07-07T07:39:28.000Z</Time>
            <Position>
              <LatitudeDegrees>43.70846481062471866607666015625</LatitudeDegrees>
              <LongitudeDegrees>-1.42497324384748935699462890625</LongitudeDegrees>
            </Position>
            <AltitudeMeters>34.799999237060546875</AltitudeMeters>
            <DistanceMeters>NAN</DistanceMeters>
          </Trackpoint>
          <Trackpoint>
            <Time>2022-07-07T07:39:33.000Z</Time>
            <Position>
              <LatitudeDegrees>43.70842189528048038482666015625</LatitudeDegrees>
              <LongitudeDegrees>-1.42510651610791683197021484375</LongitudeDegrees>
            </Position>
            <AltitudeMeters>35</AltitudeMeters>
            <DistanceMeters>NAN</DistanceMeters>
          </Trackpoint>
          <Trackpoint>
            <Time>2022-07-07T07:39:34.000Z</Time>
            <Position>
              <LatitudeDegrees>43.70840781368315219879150390625</LatitudeDegrees>
              <LongitudeDegrees>-1.4251399599015712738037109375</LongitudeDegrees>
            </Position>
            <AltitudeMeters>35</AltitudeMeters>
            <DistanceMeters>NAN</DistanceMeters>
          </Trackpoint>
          <Trackpoint>
            <Time>2022-07-07T07:39:41.000Z</Time>
            <Position>
              <LatitudeDegrees>43.7083542533218860626220703125</LatitudeDegrees>
              <LongitudeDegrees>-1.42543341033160686492919921875</LongitudeDegrees>
            </Position>
            <AltitudeMeters>35.40000152587890625</AltitudeMeters>
            <DistanceMeters>NAN</DistanceMeters>
          </Trackpoint>
          <Trackpoint>
            <Time>2022-07-07T07:39:44.000Z</Time>
            <Position>
              <LatitudeDegrees>43.70836607180535793304443359375</LatitudeDegrees>
              <LongitudeDegrees>-1.4255580492317676544189453125</LongitudeDegrees>
            </Position>
            <AltitudeMeters>35.59999847412109375</AltitudeMeters>
            <DistanceMeters>NAN</DistanceMeters>
          </Trackpoint>
          <Trackpoint>
            <Time>2022-07-07T07:39:47.000Z</Time>
            <Position>
              <LatitudeDegrees>43.708324916660785675048828125</LatitudeDegrees>
              <LongitudeDegrees>-1.4256559498608112335205078125</LongitudeDegrees>
            </Position>
            <AltitudeMeters>35.59999847412109375</AltitudeMeters>
            <DistanceMeters>NAN</DistanceMeters>
          </Trackpoint>
          <Trackpoint>
            <Time>2022-07-07T07:39:53.000Z</Time>
            <Position>
              <LatitudeDegrees>43.7082234956324100494384765625</LatitudeDegrees>
              <LongitudeDegrees>-1.42592492513358592987060546875</LongitudeDegrees>
            </Position>
            <AltitudeMeters>35.40000152587890625</AltitudeMeters>
            <DistanceMeters>NAN</DistanceMeters>
          </Trackpoint>
          <Trackpoint>
            <Time>2022-07-07T07:39:58.000Z</Time>
            <Position>
              <LatitudeDegrees>43.708123080432415008544921875</LatitudeDegrees>
              <LongitudeDegrees>-1.42621108330786228179931640625</LongitudeDegrees>
            </Position>
            <AltitudeMeters>35.200000762939453125</AltitudeMeters>
            <DistanceMeters>NAN</DistanceMeters>
          </Trackpoint>
          <Trackpoint>
            <Time>2022-07-07T07:40:00.000Z</Time>
            <Position>
              <LatitudeDegrees>43.70809684507548809051513671875</LatitudeDegrees>
              <LongitudeDegrees>-1.42632205970585346221923828125</LongitudeDegrees>
            </Position>
            <AltitudeMeters>35</AltitudeMeters>
            <DistanceMeters>NAN</DistanceMeters>
          </Trackpoint>
          <Trackpoint>
            <Time>2022-07-07T07:40:05.000Z</Time>
            <Position>
              <LatitudeDegrees>43.70800682343542575836181640625</LatitudeDegrees>
              <LongitudeDegrees>-1.42666638828814029693603515625</LongitudeDegrees>
            </Position>
            <AltitudeMeters>34.799999237060546875</AltitudeMeters>
            <DistanceMeters>NAN</DistanceMeters>
          </Trackpoint>
          <Trackpoint>
            <Time>2022-07-07T07:40:07.000Z</Time>
            <Position>
              <LatitudeDegrees>43.7079515866935253143310546875</LatitudeDegrees>
              <LongitudeDegrees>-1.426799409091472625732421875</LongitudeDegrees>
            </Position>
            <AltitudeMeters>34.59999847412109375</AltitudeMeters>
            <DistanceMeters>NAN</DistanceMeters>
          </Trackpoint>
          <Trackpoint>
            <Time>2022-07-07T07:40:09.000Z</Time>
            <Position>
              <LatitudeDegrees>43.70790037326514720916748046875</LatitudeDegrees>
              <LongitudeDegrees>-1.42694181762635707855224609375</LongitudeDegrees>
            </Position>
            <AltitudeMeters>34.200000762939453125</AltitudeMeters>
            <DistanceMeters>NAN</DistanceMeters>
          </Trackpoint>
          <Trackpoint>
            <Time>2022-07-07T07:40:10.000Z</Time>
            <Position>
              <LatitudeDegrees>43.70788176544010639190673828125</LatitudeDegrees>
              <LongitudeDegrees>-1.42702060751616954803466796875</LongitudeDegrees>
            </Position>
            <AltitudeMeters>34</AltitudeMeters>
            <DistanceMeters>NAN</DistanceMeters>
          </Trackpoint>
          <Trackpoint>
            <Time>2022-07-07T07:40:13.000Z</Time>
            <Position>
              <LatitudeDegrees>43.70782158337533473968505859375</LatitudeDegrees>
              <LongitudeDegrees>-1.42727541737258434295654296875</LongitudeDegrees>
            </Position>
            <AltitudeMeters>33.40000152587890625</AltitudeMeters>
            <DistanceMeters>NAN</DistanceMeters>
          </Trackpoint>
          <Trackpoint>
            <Time>2022-07-07T07:40:16.000Z</Time>
            <Position>
              <LatitudeDegrees>43.70774949900805950164794921875</LatitudeDegrees>
              <LongitudeDegrees>-1.42747943289577960968017578125</LongitudeDegrees>
            </Position>
            <AltitudeMeters>33</AltitudeMeters>
            <DistanceMeters>NAN</DistanceMeters>
          </Trackpoint>
          <Trackpoint>
            <Time>2022-07-07T07:40:17.000Z</Time>
            <Position>
              <LatitudeDegrees>43.70773407630622386932373046875</LatitudeDegrees>
              <LongitudeDegrees>-1.4275489188730716705322265625</LongitudeDegrees>
            </Position>
            <AltitudeMeters>33</AltitudeMeters>
            <DistanceMeters>NAN</DistanceMeters>
          </Trackpoint>
          <Trackpoint>
            <Time>2022-07-07T07:40:18.000Z</Time>
            <Position>
              <LatitudeDegrees>43.7077189050614833831787109375</LatitudeDegrees>
              <LongitudeDegrees>-1.427616141736507415771484375</LongitudeDegrees>
            </Position>
            <AltitudeMeters>32.799999237060546875</AltitudeMeters>
            <DistanceMeters>NAN</DistanceMeters>
          </Trackpoint>
          <Trackpoint>
            <Time>2022-07-07T07:40:20.000Z</Time>
            <Position>
              <LatitudeDegrees>43.7076915800571441650390625</LatitudeDegrees>
              <LongitudeDegrees>-1.42772711813449859619140625</LongitudeDegrees>
            </Position>
            <AltitudeMeters>32.799999237060546875</AltitudeMeters>
            <DistanceMeters>NAN</DistanceMeters>
          </Trackpoint>
          <Trackpoint>
            <Time>2022-07-07T07:40:21.000Z</Time>
            <Position>
              <LatitudeDegrees>43.7076642550528049468994140625</LatitudeDegrees>
              <LongitudeDegrees>-1.427778415381908416748046875</LongitudeDegrees>
            </Position>
            <AltitudeMeters>32.40000152587890625</AltitudeMeters>
            <DistanceMeters>NAN</DistanceMeters>
          </Trackpoint>
          <Trackpoint>
            <Time>2022-07-07T07:40:22.000Z</Time>
            <Position>
              <LatitudeDegrees>43.7076374329626560211181640625</LatitudeDegrees>
              <LongitudeDegrees>-1.4278325624763965606689453125</LongitudeDegrees>
            </Position>
            <AltitudeMeters>32.40000152587890625</AltitudeMeters>
            <DistanceMeters>NAN</DistanceMeters>
          </Trackpoint>
          <Trackpoint>
            <Time>2022-07-07T07:40:23.000Z</Time>
            <Position>
              <LatitudeDegrees>43.7076220102608203887939453125</LatitudeDegrees>
              <LongitudeDegrees>-1.42789542675018310546875</LongitudeDegrees>
            </Position>
            <AltitudeMeters>32.200000762939453125</AltitudeMeters>
            <DistanceMeters>NAN</DistanceMeters>
          </Trackpoint>
          <Trackpoint>
            <Time>2022-07-07T07:40:25.000Z</Time>
            <Position>
              <LatitudeDegrees>43.70757163502275943756103515625</LatitudeDegrees>
              <LongitudeDegrees>-1.42803163267672061920166015625</LongitudeDegrees>
            </Position>
            <AltitudeMeters>32</AltitudeMeters>
            <DistanceMeters>NAN</DistanceMeters>
          </Trackpoint>
          <Trackpoint>
            <Time>2022-07-07T07:40:28.000Z</Time>
            <Position>
              <LatitudeDegrees>43.707465268671512603759765625</LatitudeDegrees>
              <LongitudeDegrees>-1.42824738286435604095458984375</LongitudeDegrees>
            </Position>
            <AltitudeMeters>31.799999237060546875</AltitudeMeters>
            <DistanceMeters>NAN</DistanceMeters>
          </Trackpoint>
          <Trackpoint>
            <Time>2022-07-07T07:40:29.000Z</Time>
            <Position>
              <LatitudeDegrees>43.7074530310928821563720703125</LatitudeDegrees>
              <LongitudeDegrees>-1.42831452190876007080078125</LongitudeDegrees>
            </Position>
            <AltitudeMeters>31.6000003814697265625</AltitudeMeters>
            <DistanceMeters>NAN</DistanceMeters>
          </Trackpoint>
          <Trackpoint>
            <Time>2022-07-07T07:40:32.000Z</Time>
            <Position>
              <LatitudeDegrees>43.7074292264878749847412109375</LatitudeDegrees>
              <LongitudeDegrees>-1.428510658442974090576171875</LongitudeDegrees>
            </Position>
            <AltitudeMeters>31.200000762939453125</AltitudeMeters>
            <DistanceMeters>NAN</DistanceMeters>
          </Trackpoint>
          <Trackpoint>
            <Time>2022-07-07T07:40:34.000Z</Time>
            <Position>
              <LatitudeDegrees>43.70741522870957851409912109375</LatitudeDegrees>
              <LongitudeDegrees>-1.4286321960389614105224609375</LongitudeDegrees>
            </Position>
            <AltitudeMeters>31</AltitudeMeters>
            <DistanceMeters>NAN</DistanceMeters>
          </Trackpoint>
          <Trackpoint>
            <Time>2022-07-07T07:40:35.000Z</Time>
            <Position>
              <LatitudeDegrees>43.70740902610123157501220703125</LatitudeDegrees>
              <LongitudeDegrees>-1.428693048655986785888671875</LongitudeDegrees>
            </Position>
            <AltitudeMeters>31</AltitudeMeters>
            <DistanceMeters>NAN</DistanceMeters>
          </Trackpoint>
          <Trackpoint>
            <Time>2022-07-07T07:40:36.000Z</Time>
            <Position>
              <LatitudeDegrees>43.7074081040918827056884765625</LatitudeDegrees>
              <LongitudeDegrees>-1.42874778248369693756103515625</LongitudeDegrees>
            </Position>
            <AltitudeMeters>30.799999237060546875</AltitudeMeters>
            <DistanceMeters>NAN</DistanceMeters>
          </Trackpoint>
          <Trackpoint>
            <Time>2022-07-07T07:40:39.000Z</Time>
            <Position>
              <LatitudeDegrees>43.7073997221887111663818359375</LatitudeDegrees>
              <LongitudeDegrees>-1.4289148338139057159423828125</LongitudeDegrees>
            </Position>
            <AltitudeMeters>30.6000003814697265625</AltitudeMeters>
            <DistanceMeters>NAN</DistanceMeters>
          </Trackpoint>
          <Trackpoint>
            <Time>2022-07-07T07:40:44.000Z</Time>
            <Position>
              <LatitudeDegrees>43.7073735706508159637451171875</LatitudeDegrees>
              <LongitudeDegrees>-1.4291344396770000457763671875</LongitudeDegrees>
            </Position>
            <AltitudeMeters>30.6000003814697265625</AltitudeMeters>
            <DistanceMeters>NAN</DistanceMeters>
          </Trackpoint>
          <Trackpoint>
            <Time>2022-07-07T07:40:47.000Z</Time>
            <Position>
              <LatitudeDegrees>43.70737885124981403350830078125</LatitudeDegrees>
              <LongitudeDegrees>-1.4292420633137226104736328125</LongitudeDegrees>
            </Position>
            <AltitudeMeters>30.6000003814697265625</AltitudeMeters>
            <DistanceMeters>NAN</DistanceMeters>
          </Trackpoint>
          <Trackpoint>
            <Time>2022-07-07T07:40:48.000Z</Time>
            <Position>
              <LatitudeDegrees>43.707397878170013427734375</LatitudeDegrees>
              <LongitudeDegrees>-1.4292635209858417510986328125</LongitudeDegrees>
            </Position>
            <AltitudeMeters>30.6000003814697265625</AltitudeMeters>
            <DistanceMeters>NAN</DistanceMeters>
          </Trackpoint>
          <Trackpoint>
            <Time>2022-07-07T07:40:49.000Z</Time>
            <Position>
              <LatitudeDegrees>43.7074124626815319061279296875</LatitudeDegrees>
              <LongitudeDegrees>-1.42927215434610843658447265625</LongitudeDegrees>
            </Position>
            <AltitudeMeters>30.6000003814697265625</AltitudeMeters>
            <DistanceMeters>NAN</DistanceMeters>
          </Trackpoint>
          <Trackpoint>
            <Time>2022-07-07T07:40:52.000Z</Time>
            <Position>
              <LatitudeDegrees>43.707452528178691864013671875</LatitudeDegrees>
              <LongitudeDegrees>-1.4292631857097148895263671875</LongitudeDegrees>
            </Position>
            <AltitudeMeters>30.3999996185302734375</AltitudeMeters>
            <DistanceMeters>NAN</DistanceMeters>
          </Trackpoint>
          <Trackpoint>
            <Time>2022-07-07T07:40:53.000Z</Time>
            <Position>
              <LatitudeDegrees>43.70746023952960968017578125</LatitudeDegrees>
              <LongitudeDegrees>-1.429252959787845611572265625</LongitudeDegrees>
            </Position>
            <AltitudeMeters>30.3999996185302734375</AltitudeMeters>
            <DistanceMeters>NAN</DistanceMeters>
          </Trackpoint>
          <Trackpoint>
            <Time>2022-07-07T07:40:56.000Z</Time>
            <Position>
              <LatitudeDegrees>43.7074754945933818817138671875</LatitudeDegrees>
              <LongitudeDegrees>-1.42919453792273998260498046875</LongitudeDegrees>
            </Position>
            <AltitudeMeters>30.200000762939453125</AltitudeMeters>
            <DistanceMeters>NAN</DistanceMeters>
          </Trackpoint>
          <Trackpoint>
            <Time>2022-07-07T07:40:58.000Z</Time>
            <Position>
              <LatitudeDegrees>43.70750575326383113861083984375</LatitudeDegrees>
              <LongitudeDegrees>-1.42917492426931858062744140625</LongitudeDegrees>
            </Position>
            <AltitudeMeters>30.200000762939453125</AltitudeMeters>
            <DistanceMeters>NAN</DistanceMeters>
          </Trackpoint>
          <Trackpoint>
            <Time>2022-07-07T07:41:00.000Z</Time>
            <Position>
              <LatitudeDegrees>43.70753995142877101898193359375</LatitudeDegrees>
              <LongitudeDegrees>-1.4291971363127231597900390625</LongitudeDegrees>
            </Position>
            <AltitudeMeters>30.200000762939453125</AltitudeMeters>
            <DistanceMeters>NAN</DistanceMeters>
          </Trackpoint>
          <Trackpoint>
            <Time>2022-07-07T07:41:04.000Z</Time>
            <Position>
              <LatitudeDegrees>43.70755545794963836669921875</LatitudeDegrees>
              <LongitudeDegrees>-1.4293211884796619415283203125</LongitudeDegrees>
            </Position>
            <AltitudeMeters>30.200000762939453125</AltitudeMeters>
            <DistanceMeters>NAN</DistanceMeters>
          </Trackpoint>
          <Trackpoint>
            <Time>2022-07-07T07:41:07.000Z</Time>
            <Position>
              <LatitudeDegrees>43.70757565833628177642822265625</LatitudeDegrees>
              <LongitudeDegrees>-1.42943677492439746856689453125</LongitudeDegrees>
            </Position>
            <AltitudeMeters>30.200000762939453125</AltitudeMeters>
            <DistanceMeters>NAN</DistanceMeters>
          </Trackpoint>
          <Trackpoint>
            <Time>2022-07-07T07:41:10.000Z</Time>
            <Position>
              <LatitudeDegrees>43.707574903964996337890625</LatitudeDegrees>
              <LongitudeDegrees>-1.42955378629267215728759765625</LongitudeDegrees>
            </Position>
            <AltitudeMeters>30.200000762939453125</AltitudeMeters>
            <DistanceMeters>NAN</DistanceMeters>
          </Trackpoint>
          <Trackpoint>
            <Time>2022-07-07T07:41:15.000Z</Time>
            <Position>
              <LatitudeDegrees>43.70760231278836727142333984375</LatitudeDegrees>
              <LongitudeDegrees>-1.4297563768923282623291015625</LongitudeDegrees>
            </Position>
            <AltitudeMeters>30.200000762939453125</AltitudeMeters>
            <DistanceMeters>NAN</DistanceMeters>
          </Trackpoint>
          <Trackpoint>
            <Time>2022-07-07T07:41:16.000Z</Time>
            <Position>
              <LatitudeDegrees>43.70761907659471035003662109375</LatitudeDegrees>
              <LongitudeDegrees>-1.429788731038570404052734375</LongitudeDegrees>
            </Position>
            <AltitudeMeters>30.200000762939453125</AltitudeMeters>
            <DistanceMeters>NAN</DistanceMeters>
          </Trackpoint>
          <Trackpoint>
            <Time>2022-07-07T07:41:19.000Z</Time>
            <Position>
              <LatitudeDegrees>43.707671798765659332275390625</LatitudeDegrees>
              <LongitudeDegrees>-1.4298762381076812744140625</LongitudeDegrees>
            </Position>
            <AltitudeMeters>29.799999237060546875</AltitudeMeters>
            <DistanceMeters>NAN</DistanceMeters>
          </Trackpoint>
          <Trackpoint>
            <Time>2022-07-07T07:41:20.000Z</Time>
            <Position>
              <LatitudeDegrees>43.70769049040973186492919921875</LatitudeDegrees>
              <LongitudeDegrees>-1.42988654784858226776123046875</LongitudeDegrees>
            </Position>
            <AltitudeMeters>29.799999237060546875</AltitudeMeters>
            <DistanceMeters>NAN</DistanceMeters>
          </Trackpoint>
          <Trackpoint>
            <Time>2022-07-07T07:41:21.000Z</Time>
            <Position>
              <LatitudeDegrees>43.70770725421607494354248046875</LatitudeDegrees>
              <LongitudeDegrees>-1.42988822422921657562255859375</LongitudeDegrees>
            </Position>
            <AltitudeMeters>29.799999237060546875</AltitudeMeters>
            <DistanceMeters>NAN</DistanceMeters>
          </Trackpoint>
          <Trackpoint>
            <Time>2022-07-07T07:41:24.000Z</Time>
            <Position>
              <LatitudeDegrees>43.707720749080181121826171875</LatitudeDegrees>
              <LongitudeDegrees>-1.42985955812036991119384765625</LongitudeDegrees>
            </Position>
            <AltitudeMeters>29.799999237060546875</AltitudeMeters>
            <DistanceMeters>NAN</DistanceMeters>
          </Trackpoint>
          <Trackpoint>
            <Time>2022-07-07T07:41:28.000Z</Time>
            <Position>
              <LatitudeDegrees>43.70768847875297069549560546875</LatitudeDegrees>
              <LongitudeDegrees>-1.42985687591135501861572265625</LongitudeDegrees>
            </Position>
            <AltitudeMeters>29.799999237060546875</AltitudeMeters>
            <DistanceMeters>NAN</DistanceMeters>
          </Trackpoint>
          <Trackpoint>
            <Time>2022-07-07T07:41:31.000Z</Time>
            <Position>
              <LatitudeDegrees>43.70766383595764636993408203125</LatitudeDegrees>
              <LongitudeDegrees>-1.42991605214774608612060546875</LongitudeDegrees>
            </Position>
            <AltitudeMeters>29.799999237060546875</AltitudeMeters>
            <DistanceMeters>NAN</DistanceMeters>
          </Trackpoint>
          <Trackpoint>
            <Time>2022-07-07T07:41:32.000Z</Time>
            <Position>
              <LatitudeDegrees>43.70766635052859783172607421875</LatitudeDegrees>
              <LongitudeDegrees>-1.42990482039749622344970703125</LongitudeDegrees>
            </Position>
            <AltitudeMeters>29.799999237060546875</AltitudeMeters>
            <DistanceMeters>NAN</DistanceMeters>
          </Trackpoint>
          <Trackpoint>
            <Time>2022-07-07T07:41:35.000Z</Time>
            <Position>
              <LatitudeDegrees>43.70764170773327350616455078125</LatitudeDegrees>
              <LongitudeDegrees>-1.42995025031268596649169921875</LongitudeDegrees>
            </Position>
            <AltitudeMeters>29.799999237060546875</AltitudeMeters>
            <DistanceMeters>NAN</DistanceMeters>
          </Trackpoint>
          <Trackpoint>
            <Time>2022-07-07T07:41:43.000Z</Time>
            <Position>
              <LatitudeDegrees>43.70764874853193759918212890625</LatitudeDegrees>
              <LongitudeDegrees>-1.43001395277678966522216796875</LongitudeDegrees>
            </Position>
            <AltitudeMeters>29.6000003814697265625</AltitudeMeters>
            <DistanceMeters>NAN</DistanceMeters>
          </Trackpoint>
          <Trackpoint>
            <Time>2022-07-07T07:43:48.000Z</Time>
            <Position>
              <LatitudeDegrees>43.7075559608638286590576171875</LatitudeDegrees>
              <LongitudeDegrees>-1.429748833179473876953125</LongitudeDegrees>
            </Position>
            <AltitudeMeters>29.200000762939453125</AltitudeMeters>
            <DistanceMeters>NAN</DistanceMeters>
          </Trackpoint>
          <Trackpoint>
            <Time>2022-07-07T07:43:49.000Z</Time>
            <Position>
              <LatitudeDegrees>43.70754749514162540435791015625</LatitudeDegrees>
              <LongitudeDegrees>-1.4297448098659515380859375</LongitudeDegrees>
            </Position>
            <AltitudeMeters>29.200000762939453125</AltitudeMeters>
            <DistanceMeters>NAN</DistanceMeters>
          </Trackpoint>
          <Trackpoint>
            <Time>2022-07-07T07:43:50.000Z</Time>
            <Position>
              <LatitudeDegrees>43.7075754068791866302490234375</LatitudeDegrees>
              <LongitudeDegrees>-1.4297704584896564483642578125</LongitudeDegrees>
            </Position>
            <AltitudeMeters>29.200000762939453125</AltitudeMeters>
            <DistanceMeters>NAN</DistanceMeters>
          </Trackpoint>
          <Trackpoint>
            <Time>2022-07-07T07:43:52.000Z</Time>
            <Position>
              <LatitudeDegrees>43.707598708570003509521484375</LatitudeDegrees>
              <LongitudeDegrees>-1.4298006333410739898681640625</LongitudeDegrees>
            </Position>
            <AltitudeMeters>29.200000762939453125</AltitudeMeters>
            <DistanceMeters>NAN</DistanceMeters>
          </Trackpoint>
          <Trackpoint>
            <Time>2022-07-07T07:43:54.000Z</Time>
            <Position>
              <LatitudeDegrees>43.70759971439838409423828125</LatitudeDegrees>
              <LongitudeDegrees>-1.4298006333410739898681640625</LongitudeDegrees>
            </Position>
            <AltitudeMeters>29.200000762939453125</AltitudeMeters>
            <DistanceMeters>NAN</DistanceMeters>
          </Trackpoint>
          <Trackpoint>
            <Time>2022-07-07T07:43:56.000Z</Time>
            <Position>
              <LatitudeDegrees>43.70759971439838409423828125</LatitudeDegrees>
              <LongitudeDegrees>-1.4298006333410739898681640625</LongitudeDegrees>
            </Position>
            <AltitudeMeters>29.200000762939453125</AltitudeMeters>
            <DistanceMeters>NAN</DistanceMeters>
          </Trackpoint>
          <Trackpoint>
            <Time>2022-07-07T07:44:45.000Z</Time>
            <Position>
              <LatitudeDegrees>43.70762578211724758148193359375</LatitudeDegrees>
              <LongitudeDegrees>-1.42998143099248409271240234375</LongitudeDegrees>
            </Position>
            <AltitudeMeters>29.200000762939453125</AltitudeMeters>
            <DistanceMeters>NAN</DistanceMeters>
          </Trackpoint>
          <Trackpoint>
            <Time>2022-07-07T07:44:46.000Z</Time>
            <Position>
              <LatitudeDegrees>43.7076459825038909912109375</LatitudeDegrees>
              <LongitudeDegrees>-1.43002266995608806610107421875</LongitudeDegrees>
            </Position>
            <AltitudeMeters>29.200000762939453125</AltitudeMeters>
            <DistanceMeters>NAN</DistanceMeters>
          </Trackpoint>
          <Trackpoint>
            <Time>2022-07-07T07:44:47.000Z</Time>
            <Position>
              <LatitudeDegrees>43.70766769163310527801513671875</LatitudeDegrees>
              <LongitudeDegrees>-1.4300433732569217681884765625</LongitudeDegrees>
            </Position>
            <AltitudeMeters>29.200000762939453125</AltitudeMeters>
            <DistanceMeters>NAN</DistanceMeters>
          </Trackpoint>
          <Trackpoint>
            <Time>2022-07-07T07:44:50.000Z</Time>
            <Position>
              <LatitudeDegrees>43.70776307769119739532470703125</LatitudeDegrees>
              <LongitudeDegrees>-1.4300608076155185699462890625</LongitudeDegrees>
            </Position>
            <AltitudeMeters>29</AltitudeMeters>
            <DistanceMeters>NAN</DistanceMeters>
          </Trackpoint>
          <Trackpoint>
            <Time>2022-07-07T07:44:51.000Z</Time>
            <Position>
              <LatitudeDegrees>43.70780716650187969207763671875</LatitudeDegrees>
              <LongitudeDegrees>-1.43007405102252960205078125</LongitudeDegrees>
            </Position>
            <AltitudeMeters>29</AltitudeMeters>
            <DistanceMeters>NAN</DistanceMeters>
          </Trackpoint>
          <Trackpoint>
            <Time>2022-07-07T07:44:56.000Z</Time>
            <Position>
              <LatitudeDegrees>43.70793633162975311279296875</LatitudeDegrees>
              <LongitudeDegrees>-1.43006022088229656219482421875</LongitudeDegrees>
            </Position>
            <AltitudeMeters>29.200000762939453125</AltitudeMeters>
            <DistanceMeters>NAN</DistanceMeters>
          </Trackpoint>
          <Trackpoint>
            <Time>2022-07-07T07:44:59.000Z</Time>
            <Position>
              <LatitudeDegrees>43.7080149538815021514892578125</LatitudeDegrees>
              <LongitudeDegrees>-1.43008184619247913360595703125</LongitudeDegrees>
            </Position>
            <AltitudeMeters>29.200000762939453125</AltitudeMeters>
            <DistanceMeters>NAN</DistanceMeters>
          </Trackpoint>
          <Trackpoint>
            <Time>2022-07-07T07:45:02.000Z</Time>
            <Position>
              <LatitudeDegrees>43.70807723142206668853759765625</LatitudeDegrees>
              <LongitudeDegrees>-1.43014839850366115570068359375</LongitudeDegrees>
            </Position>
            <AltitudeMeters>29.3999996185302734375</AltitudeMeters>
            <DistanceMeters>NAN</DistanceMeters>
          </Trackpoint>
          <Trackpoint>
            <Time>2022-07-07T07:45:10.000Z</Time>
            <Position>
              <LatitudeDegrees>43.7081410177052021026611328125</LatitudeDegrees>
              <LongitudeDegrees>-1.4302817545831203460693359375</LongitudeDegrees>
            </Position>
            <AltitudeMeters>29.3999996185302734375</AltitudeMeters>
            <DistanceMeters>NAN</DistanceMeters>
          </Trackpoint>
          <Trackpoint>
            <Time>2022-07-07T07:45:13.000Z</Time>
            <Position>
              <LatitudeDegrees>43.70814160443842411041259765625</LatitudeDegrees>
              <LongitudeDegrees>-1.4302847720682621002197265625</LongitudeDegrees>
            </Position>
            <AltitudeMeters>29.3999996185302734375</AltitudeMeters>
            <DistanceMeters>NAN</DistanceMeters>
          </Trackpoint>
          <Trackpoint>
            <Time>2022-07-07T07:48:14.000Z</Time>
            <Position>
              <LatitudeDegrees>43.708554916083812713623046875</LatitudeDegrees>
              <LongitudeDegrees>-1.43039868213236331939697265625</LongitudeDegrees>
            </Position>
            <AltitudeMeters>26.200000762939453125</AltitudeMeters>
            <DistanceMeters>NAN</DistanceMeters>
          </Trackpoint>
          <Trackpoint>
            <Time>2022-07-07T07:48:15.000Z</Time>
            <Position>
              <LatitudeDegrees>43.70858349837362766265869140625</LatitudeDegrees>
              <LongitudeDegrees>-1.43039616756141185760498046875</LongitudeDegrees>
            </Position>
            <AltitudeMeters>26</AltitudeMeters>
            <DistanceMeters>NAN</DistanceMeters>
          </Trackpoint>
          <Trackpoint>
            <Time>2022-07-07T07:48:22.000Z</Time>
            <Position>
              <LatitudeDegrees>43.70875080116093158721923828125</LatitudeDegrees>
              <LongitudeDegrees>-1.4303736202418804168701171875</LongitudeDegrees>
            </Position>
            <AltitudeMeters>25.799999237060546875</AltitudeMeters>
            <DistanceMeters>NAN</DistanceMeters>
          </Trackpoint>
          <Trackpoint>
            <Time>2022-07-07T07:48:25.000Z</Time>
            <Position>
              <LatitudeDegrees>43.7087901122868061065673828125</LatitudeDegrees>
              <LongitudeDegrees>-1.4303858578205108642578125</LongitudeDegrees>
            </Position>
            <AltitudeMeters>25.799999237060546875</AltitudeMeters>
            <DistanceMeters>NAN</DistanceMeters>
          </Trackpoint>
          <Trackpoint>
            <Time>2022-07-07T07:48:30.000Z</Time>
            <Position>
              <LatitudeDegrees>43.7088725902140140533447265625</LatitudeDegrees>
              <LongitudeDegrees>-1.43038359470665454864501953125</LongitudeDegrees>
            </Position>
            <AltitudeMeters>25.799999237060546875</AltitudeMeters>
            <DistanceMeters>NAN</DistanceMeters>
          </Trackpoint>
          <Trackpoint>
            <Time>2022-07-07T07:48:36.000Z</Time>
            <Position>
              <LatitudeDegrees>43.70898549444973468780517578125</LatitudeDegrees>
              <LongitudeDegrees>-1.43036775290966033935546875</LongitudeDegrees>
            </Position>
            <AltitudeMeters>25.6000003814697265625</AltitudeMeters>
            <DistanceMeters>NAN</DistanceMeters>
          </Trackpoint>
          <Trackpoint>
            <Time>2022-07-07T07:48:38.000Z</Time>
            <Position>
              <LatitudeDegrees>43.7090164236724376678466796875</LatitudeDegrees>
              <LongitudeDegrees>-1.43036901019513607025146484375</LongitudeDegrees>
            </Position>
            <AltitudeMeters>25.3999996185302734375</AltitudeMeters>
            <DistanceMeters>NAN</DistanceMeters>
          </Trackpoint>
          <Trackpoint>
            <Time>2022-07-07T07:48:42.000Z</Time>
            <Position>
              <LatitudeDegrees>43.70906822383403778076171875</LatitudeDegrees>
              <LongitudeDegrees>-1.43036968074738979339599609375</LongitudeDegrees>
            </Position>
            <AltitudeMeters>25.3999996185302734375</AltitudeMeters>
            <DistanceMeters>NAN</DistanceMeters>
          </Trackpoint>
          <Trackpoint>
            <Time>2022-07-07T07:48:44.000Z</Time>
            <Position>
              <LatitudeDegrees>43.70909764431416988372802734375</LatitudeDegrees>
              <LongitudeDegrees>-1.43036968074738979339599609375</LongitudeDegrees>
            </Position>
            <AltitudeMeters>25.6000003814697265625</AltitudeMeters>
            <DistanceMeters>NAN</DistanceMeters>
          </Trackpoint>
          <Trackpoint>
            <Time>2022-07-07T07:48:48.000Z</Time>
            <Position>
              <LatitudeDegrees>43.70913988910615444183349609375</LatitudeDegrees>
              <LongitudeDegrees>-1.43036029301583766937255859375</LongitudeDegrees>
            </Position>
            <AltitudeMeters>25.799999237060546875</AltitudeMeters>
            <DistanceMeters>NAN</DistanceMeters>
          </Trackpoint>
          <Trackpoint>
            <Time>2022-07-07T07:48:52.000Z</Time>
            <Position>
              <LatitudeDegrees>43.70918213389813899993896484375</LatitudeDegrees>
              <LongitudeDegrees>-1.4303561858832836151123046875</LongitudeDegrees>
            </Position>
            <AltitudeMeters>25.6000003814697265625</AltitudeMeters>
            <DistanceMeters>NAN</DistanceMeters>
          </Trackpoint>
          <Trackpoint>
            <Time>2022-07-07T07:48:55.000Z</Time>
            <Position>
              <LatitudeDegrees>43.70923393405973911285400390625</LatitudeDegrees>
              <LongitudeDegrees>-1.43037219531834125518798828125</LongitudeDegrees>
            </Position>
            <AltitudeMeters>25.799999237060546875</AltitudeMeters>
            <DistanceMeters>NAN</DistanceMeters>
          </Trackpoint>
          <Trackpoint>
            <Time>2022-07-07T07:48:59.000Z</Time>
            <Position>
              <LatitudeDegrees>43.70929730124771595001220703125</LatitudeDegrees>
              <LongitudeDegrees>-1.43037873320281505584716796875</LongitudeDegrees>
            </Position>
            <AltitudeMeters>25.799999237060546875</AltitudeMeters>
            <DistanceMeters>NAN</DistanceMeters>
          </Trackpoint>
          <Trackpoint>
            <Time>2022-07-07T07:49:03.000Z</Time>
            <Position>
              <LatitudeDegrees>43.7093738280236721038818359375</LatitudeDegrees>
              <LongitudeDegrees>-1.43040035851299762725830078125</LongitudeDegrees>
            </Position>
            <AltitudeMeters>26</AltitudeMeters>
            <DistanceMeters>NAN</DistanceMeters>
          </Trackpoint>
          <Trackpoint>
            <Time>2022-07-07T07:49:11.000Z</Time>
            <Position>
              <LatitudeDegrees>43.70949209667742252349853515625</LatitudeDegrees>
              <LongitudeDegrees>-1.4303806610405445098876953125</LongitudeDegrees>
            </Position>
            <AltitudeMeters>26</AltitudeMeters>
            <DistanceMeters>NAN</DistanceMeters>
          </Trackpoint>
          <Trackpoint>
            <Time>2022-07-07T07:49:19.000Z</Time>
            <Position>
              <LatitudeDegrees>43.70960106141865253448486328125</LatitudeDegrees>
              <LongitudeDegrees>-1.43040237016975879669189453125</LongitudeDegrees>
            </Position>
            <AltitudeMeters>26</AltitudeMeters>
            <DistanceMeters>NAN</DistanceMeters>
          </Trackpoint>
          <Trackpoint>
            <Time>2022-07-07T07:49:25.000Z</Time>
            <Position>
              <LatitudeDegrees>43.70969460345804691314697265625</LatitudeDegrees>
              <LongitudeDegrees>-1.43041578121483325958251953125</LongitudeDegrees>
            </Position>
            <AltitudeMeters>26</AltitudeMeters>
            <DistanceMeters>NAN</DistanceMeters>
          </Trackpoint>
          <Trackpoint>
            <Time>2022-07-07T07:49:34.000Z</Time>
            <Position>
              <LatitudeDegrees>43.709822930395603179931640625</LatitudeDegrees>
              <LongitudeDegrees>-1.43044847063720226287841796875</LongitudeDegrees>
            </Position>
            <AltitudeMeters>25.3999996185302734375</AltitudeMeters>
            <DistanceMeters>NAN</DistanceMeters>
          </Trackpoint>
          <Trackpoint>
            <Time>2022-07-07T07:49:41.000Z</Time>
            <Position>
              <LatitudeDegrees>43.70991789735853672027587890625</LatitudeDegrees>
              <LongitudeDegrees>-1.4305694214999675750732421875</LongitudeDegrees>
            </Position>
            <AltitudeMeters>25.200000762939453125</AltitudeMeters>
            <DistanceMeters>NAN</DistanceMeters>
          </Trackpoint>
          <Trackpoint>
            <Time>2022-07-07T07:49:47.000Z</Time>
            <Position>
              <LatitudeDegrees>43.70995092205703258514404296875</LatitudeDegrees>
              <LongitudeDegrees>-1.43070663325488567352294921875</LongitudeDegrees>
            </Position>
            <AltitudeMeters>25.3999996185302734375</AltitudeMeters>
            <DistanceMeters>NAN</DistanceMeters>
          </Trackpoint>
          <Trackpoint>
            <Time>2022-07-07T07:49:52.000Z</Time>
            <Position>
              <LatitudeDegrees>43.7099334038794040679931640625</LatitudeDegrees>
              <LongitudeDegrees>-1.43073848448693752288818359375</LongitudeDegrees>
            </Position>
            <AltitudeMeters>25.200000762939453125</AltitudeMeters>
            <DistanceMeters>NAN</DistanceMeters>
          </Trackpoint>
          <Trackpoint>
            <Time>2022-07-07T07:49:53.000Z</Time>
            <Position>
              <LatitudeDegrees>43.7099307216703891754150390625</LatitudeDegrees>
              <LongitudeDegrees>-1.43074384890496730804443359375</LongitudeDegrees>
            </Position>
            <AltitudeMeters>25.200000762939453125</AltitudeMeters>
            <DistanceMeters>NAN</DistanceMeters>
          </Trackpoint>
          <Trackpoint>
            <Time>2022-07-07T07:50:00.000Z</Time>
            <Position>
              <LatitudeDegrees>43.709910102188587188720703125</LatitudeDegrees>
              <LongitudeDegrees>-1.430742256343364715576171875</LongitudeDegrees>
            </Position>
            <AltitudeMeters>25</AltitudeMeters>
            <DistanceMeters>NAN</DistanceMeters>
          </Trackpoint>
          <Trackpoint>
            <Time>2022-07-07T07:50:01.000Z</Time>
            <Position>
              <LatitudeDegrees>43.709910102188587188720703125</LatitudeDegrees>
              <LongitudeDegrees>-1.430742256343364715576171875</LongitudeDegrees>
            </Position>
            <AltitudeMeters>25</AltitudeMeters>
            <DistanceMeters>NAN</DistanceMeters>
          </Trackpoint>
          <Trackpoint>
            <Time>2022-07-07T07:50:26.000Z</Time>
            <Position>
              <LatitudeDegrees>43.7097023986279964447021484375</LatitudeDegrees>
              <LongitudeDegrees>-1.4306988380849361419677734375</LongitudeDegrees>
            </Position>
            <AltitudeMeters>24.799999237060546875</AltitudeMeters>
            <DistanceMeters>NAN</DistanceMeters>
          </Trackpoint>
          <Trackpoint>
            <Time>2022-07-07T07:50:29.000Z</Time>
            <Position>
              <LatitudeDegrees>43.7096661888062953948974609375</LatitudeDegrees>
              <LongitudeDegrees>-1.4307129196822643280029296875</LongitudeDegrees>
            </Position>
            <AltitudeMeters>24.799999237060546875</AltitudeMeters>
            <DistanceMeters>NAN</DistanceMeters>
          </Trackpoint>
          <Trackpoint>
            <Time>2022-07-07T07:50:36.000Z</Time>
            <Position>
              <LatitudeDegrees>43.70955479331314563751220703125</LatitudeDegrees>
              <LongitudeDegrees>-1.4307048730552196502685546875</LongitudeDegrees>
            </Position>
            <AltitudeMeters>24.799999237060546875</AltitudeMeters>
            <DistanceMeters>NAN</DistanceMeters>
          </Trackpoint>
          <Trackpoint>
            <Time>2022-07-07T07:50:45.000Z</Time>
            <Position>
              <LatitudeDegrees>43.70940526016056537628173828125</LatitudeDegrees>
              <LongitudeDegrees>-1.4306512288749217987060546875</LongitudeDegrees>
            </Position>
            <AltitudeMeters>25</AltitudeMeters>
            <DistanceMeters>NAN</DistanceMeters>
          </Trackpoint>
          <Trackpoint>
            <Time>2022-07-07T07:50:48.000Z</Time>
            <Position>
              <LatitudeDegrees>43.70938874781131744384765625</LatitudeDegrees>
              <LongitudeDegrees>-1.4306508935987949371337890625</LongitudeDegrees>
            </Position>
            <AltitudeMeters>25</AltitudeMeters>
            <DistanceMeters>NAN</DistanceMeters>
          </Trackpoint>
          <Trackpoint>
            <Time>2022-07-07T07:50:58.000Z</Time>
            <Position>
              <LatitudeDegrees>43.70926192961633205413818359375</LatitudeDegrees>
              <LongitudeDegrees>-1.43061459995806217193603515625</LongitudeDegrees>
            </Position>
            <AltitudeMeters>25.200000762939453125</AltitudeMeters>
            <DistanceMeters>NAN</DistanceMeters>
          </Trackpoint>
          <Trackpoint>
            <Time>2022-07-07T07:51:05.000Z</Time>
            <Position>
              <LatitudeDegrees>43.7091746740043163299560546875</LatitudeDegrees>
              <LongitudeDegrees>-1.4306073077023029327392578125</LongitudeDegrees>
            </Position>
            <AltitudeMeters>25</AltitudeMeters>
            <DistanceMeters>NAN</DistanceMeters>
          </Trackpoint>
          <Trackpoint>
            <Time>2022-07-07T07:51:11.000Z</Time>
            <Position>
              <LatitudeDegrees>43.70912882499396800994873046875</LatitudeDegrees>
              <LongitudeDegrees>-1.43061359412968158721923828125</LongitudeDegrees>
            </Position>
            <AltitudeMeters>24.799999237060546875</AltitudeMeters>
            <DistanceMeters>NAN</DistanceMeters>
          </Trackpoint>
          <Trackpoint>
            <Time>2022-07-07T07:51:12.000Z</Time>
            <Position>
              <LatitudeDegrees>43.70912882499396800994873046875</LatitudeDegrees>
              <LongitudeDegrees>-1.43061359412968158721923828125</LongitudeDegrees>
            </Position>
            <AltitudeMeters>24.799999237060546875</AltitudeMeters>
            <DistanceMeters>NAN</DistanceMeters>
          </Trackpoint>
          <Trackpoint>
            <Time>2022-07-07T07:53:53.000Z</Time>
            <Position>
              <LatitudeDegrees>43.708811737596988677978515625</LatitudeDegrees>
              <LongitudeDegrees>-1.43066924996674060821533203125</LongitudeDegrees>
            </Position>
            <AltitudeMeters>23.6000003814697265625</AltitudeMeters>
            <DistanceMeters>NAN</DistanceMeters>
          </Trackpoint>
          <Trackpoint>
            <Time>2022-07-07T07:53:54.000Z</Time>
            <Position>
              <LatitudeDegrees>43.70879757218062877655029296875</LatitudeDegrees>
              <LongitudeDegrees>-1.43066874705255031585693359375</LongitudeDegrees>
            </Position>
            <AltitudeMeters>23.6000003814697265625</AltitudeMeters>
            <DistanceMeters>NAN</DistanceMeters>
          </Trackpoint>
          <Trackpoint>
            <Time>2022-07-07T07:53:56.000Z</Time>
            <Position>
              <LatitudeDegrees>43.70876873843371868133544921875</LatitudeDegrees>
              <LongitudeDegrees>-1.43068131990730762481689453125</LongitudeDegrees>
            </Position>
            <AltitudeMeters>23.6000003814697265625</AltitudeMeters>
            <DistanceMeters>NAN</DistanceMeters>
          </Trackpoint>
          <Trackpoint>
            <Time>2022-07-07T07:54:01.000Z</Time>
            <Position>
              <LatitudeDegrees>43.7086945585906505584716796875</LatitudeDegrees>
              <LongitudeDegrees>-1.4306964911520481109619140625</LongitudeDegrees>
            </Position>
            <AltitudeMeters>23.799999237060546875</AltitudeMeters>
            <DistanceMeters>NAN</DistanceMeters>
          </Trackpoint>
          <Trackpoint>
            <Time>2022-07-07T07:54:04.000Z</Time>
            <Position>
              <LatitudeDegrees>43.70867192745208740234375</LatitudeDegrees>
              <LongitudeDegrees>-1.4306958205997943878173828125</LongitudeDegrees>
            </Position>
            <AltitudeMeters>23.799999237060546875</AltitudeMeters>
            <DistanceMeters>NAN</DistanceMeters>
          </Trackpoint>
          <Trackpoint>
            <Time>2022-07-07T07:54:06.000Z</Time>
            <Position>
              <LatitudeDegrees>43.70866061188280582427978515625</LatitudeDegrees>
              <LongitudeDegrees>-1.43068936653435230255126953125</LongitudeDegrees>
            </Position>
            <AltitudeMeters>23.799999237060546875</AltitudeMeters>
            <DistanceMeters>NAN</DistanceMeters>
          </Trackpoint>
          <Trackpoint>
            <Time>2022-07-07T07:54:09.000Z</Time>
            <Position>
              <LatitudeDegrees>43.70865792967379093170166015625</LatitudeDegrees>
              <LongitudeDegrees>-1.43068668432533740997314453125</LongitudeDegrees>
            </Position>
            <AltitudeMeters>23.799999237060546875</AltitudeMeters>
            <DistanceMeters>NAN</DistanceMeters>
          </Trackpoint>
          <Trackpoint>
            <Time>2022-07-07T07:54:10.000Z</Time>
            <Position>
              <LatitudeDegrees>43.70865792967379093170166015625</LatitudeDegrees>
              <LongitudeDegrees>-1.43068668432533740997314453125</LongitudeDegrees>
            </Position>
            <AltitudeMeters>23.799999237060546875</AltitudeMeters>
            <DistanceMeters>NAN</DistanceMeters>
          </Trackpoint>
          <Trackpoint>
            <Time>2022-07-07T08:01:54.000Z</Time>
            <Position>
              <LatitudeDegrees>43.70810740627348423004150390625</LatitudeDegrees>
              <LongitudeDegrees>-1.4313328452408313751220703125</LongitudeDegrees>
            </Position>
            <AltitudeMeters>28.6000003814697265625</AltitudeMeters>
            <DistanceMeters>NAN</DistanceMeters>
          </Trackpoint>
          <Trackpoint>
            <Time>2022-07-07T08:01:57.000Z</Time>
            <Position>
              <LatitudeDegrees>43.7080588750541210174560546875</LatitudeDegrees>
              <LongitudeDegrees>-1.431375257670879364013671875</LongitudeDegrees>
            </Position>
            <AltitudeMeters>29</AltitudeMeters>
            <DistanceMeters>NAN</DistanceMeters>
          </Trackpoint>
          <Trackpoint>
            <Time>2022-07-07T08:02:01.000Z</Time>
            <Position>
              <LatitudeDegrees>43.70801411569118499755859375</LatitudeDegrees>
              <LongitudeDegrees>-1.4314434863626956939697265625</LongitudeDegrees>
            </Position>
            <AltitudeMeters>29.200000762939453125</AltitudeMeters>
            <DistanceMeters>NAN</DistanceMeters>
          </Trackpoint>
          <Trackpoint>
            <Time>2022-07-07T08:02:03.000Z</Time>
            <Position>
              <LatitudeDegrees>43.70801436714828014373779296875</LatitudeDegrees>
              <LongitudeDegrees>-1.43148916773498058319091796875</LongitudeDegrees>
            </Position>
            <AltitudeMeters>29.3999996185302734375</AltitudeMeters>
            <DistanceMeters>NAN</DistanceMeters>
          </Trackpoint>
          <Trackpoint>
            <Time>2022-07-07T08:02:04.000Z</Time>
            <Position>
              <LatitudeDegrees>43.70801537297666072845458984375</LatitudeDegrees>
              <LongitudeDegrees>-1.4315078593790531158447265625</LongitudeDegrees>
            </Position>
            <AltitudeMeters>29.6000003814697265625</AltitudeMeters>
            <DistanceMeters>NAN</DistanceMeters>
          </Trackpoint>
          <Trackpoint>
            <Time>2022-07-07T08:02:06.000Z</Time>
            <Position>
              <LatitudeDegrees>43.70802073739469051361083984375</LatitudeDegrees>
              <LongitudeDegrees>-1.4315534569323062896728515625</LongitudeDegrees>
            </Position>
            <AltitudeMeters>29.6000003814697265625</AltitudeMeters>
            <DistanceMeters>NAN</DistanceMeters>
          </Trackpoint>
          <Trackpoint>
            <Time>2022-07-07T08:02:08.000Z</Time>
            <Position>
              <LatitudeDegrees>43.70802844874560832977294921875</LatitudeDegrees>
              <LongitudeDegrees>-1.43159880302846431732177734375</LongitudeDegrees>
            </Position>
            <AltitudeMeters>29.6000003814697265625</AltitudeMeters>
            <DistanceMeters>NAN</DistanceMeters>
          </Trackpoint>
          <Trackpoint>
            <Time>2022-07-07T08:02:15.000Z</Time>
            <Position>
              <LatitudeDegrees>43.70804336853325366973876953125</LatitudeDegrees>
              <LongitudeDegrees>-1.43170944415032863616943359375</LongitudeDegrees>
            </Position>
            <AltitudeMeters>30</AltitudeMeters>
            <DistanceMeters>NAN</DistanceMeters>
          </Trackpoint>
          <Trackpoint>
            <Time>2022-07-07T08:02:18.000Z</Time>
            <Position>
              <LatitudeDegrees>43.70805677957832813262939453125</LatitudeDegrees>
              <LongitudeDegrees>-1.43178622238337993621826171875</LongitudeDegrees>
            </Position>
            <AltitudeMeters>30</AltitudeMeters>
            <DistanceMeters>NAN</DistanceMeters>
          </Trackpoint>
          <Trackpoint>
            <Time>2022-07-07T08:02:20.000Z</Time>
            <Position>
              <LatitudeDegrees>43.7080679275095462799072265625</LatitudeDegrees>
              <LongitudeDegrees>-1.431828550994396209716796875</LongitudeDegrees>
            </Position>
            <AltitudeMeters>30.200000762939453125</AltitudeMeters>
            <DistanceMeters>NAN</DistanceMeters>
          </Trackpoint>
          <Trackpoint>
            <Time>2022-07-07T08:02:21.000Z</Time>
            <Position>
              <LatitudeDegrees>43.70807337574660778045654296875</LatitudeDegrees>
              <LongitudeDegrees>-1.43184405751526355743408203125</LongitudeDegrees>
            </Position>
            <AltitudeMeters>30.200000762939453125</AltitudeMeters>
            <DistanceMeters>NAN</DistanceMeters>
          </Trackpoint>
          <Trackpoint>
            <Time>2022-07-07T08:02:22.000Z</Time>
            <Position>
              <LatitudeDegrees>43.70807991363108158111572265625</LatitudeDegrees>
              <LongitudeDegrees>-1.4318568818271160125732421875</LongitudeDegrees>
            </Position>
            <AltitudeMeters>30.200000762939453125</AltitudeMeters>
            <DistanceMeters>NAN</DistanceMeters>
          </Trackpoint>
          <Trackpoint>
            <Time>2022-07-07T08:02:27.000Z</Time>
            <Position>
              <LatitudeDegrees>43.708100281655788421630859375</LatitudeDegrees>
              <LongitudeDegrees>-1.43189384602010250091552734375</LongitudeDegrees>
            </Position>
            <AltitudeMeters>30.200000762939453125</AltitudeMeters>
            <DistanceMeters>NAN</DistanceMeters>
          </Trackpoint>
          <Trackpoint>
            <Time>2022-07-07T08:02:29.000Z</Time>
            <Position>
              <LatitudeDegrees>43.708100281655788421630859375</LatitudeDegrees>
              <LongitudeDegrees>-1.43189384602010250091552734375</LongitudeDegrees>
            </Position>
            <AltitudeMeters>30.3999996185302734375</AltitudeMeters>
            <DistanceMeters>NAN</DistanceMeters>
          </Trackpoint>
          <Trackpoint>
            <Time>2022-07-07T08:02:55.000Z</Time>
            <Position>
              <LatitudeDegrees>43.70815183036029338836669921875</LatitudeDegrees>
              <LongitudeDegrees>-1.4320007152855396270751953125</LongitudeDegrees>
            </Position>
            <AltitudeMeters>30.799999237060546875</AltitudeMeters>
            <DistanceMeters>NAN</DistanceMeters>
          </Trackpoint>
          <Trackpoint>
            <Time>2022-07-07T08:02:57.000Z</Time>
            <Position>
              <LatitudeDegrees>43.70818099938333034515380859375</LatitudeDegrees>
              <LongitudeDegrees>-1.432045809924602508544921875</LongitudeDegrees>
            </Position>
            <AltitudeMeters>31</AltitudeMeters>
            <DistanceMeters>NAN</DistanceMeters>
          </Trackpoint>
          <Trackpoint>
            <Time>2022-07-07T08:03:00.000Z</Time>
            <Position>
              <LatitudeDegrees>43.70822106488049030303955078125</LatitudeDegrees>
              <LongitudeDegrees>-1.43210993148386478424072265625</LongitudeDegrees>
            </Position>
            <AltitudeMeters>31.200000762939453125</AltitudeMeters>
            <DistanceMeters>NAN</DistanceMeters>
          </Trackpoint>
          <Trackpoint>
            <Time>2022-07-07T08:03:02.000Z</Time>
            <Position>
              <LatitudeDegrees>43.70823564939200878143310546875</LatitudeDegrees>
              <LongitudeDegrees>-1.4321656711399555206298828125</LongitudeDegrees>
            </Position>
            <AltitudeMeters>31.6000003814697265625</AltitudeMeters>
            <DistanceMeters>NAN</DistanceMeters>
          </Trackpoint>
          <Trackpoint>
            <Time>2022-07-07T08:03:04.000Z</Time>
            <Position>
              <LatitudeDegrees>43.70824470184743404388427734375</LatitudeDegrees>
              <LongitudeDegrees>-1.4322196505963802337646484375</LongitudeDegrees>
            </Position>
            <AltitudeMeters>31.799999237060546875</AltitudeMeters>
            <DistanceMeters>NAN</DistanceMeters>
          </Trackpoint>
          <Trackpoint>
            <Time>2022-07-07T08:03:05.000Z</Time>
            <Position>
              <LatitudeDegrees>43.70824637822806835174560546875</LatitudeDegrees>
              <LongitudeDegrees>-1.4322488196194171905517578125</LongitudeDegrees>
            </Position>
            <AltitudeMeters>32</AltitudeMeters>
            <DistanceMeters>NAN</DistanceMeters>
          </Trackpoint>
          <Trackpoint>
            <Time>2022-07-07T08:03:11.000Z</Time>
            <Position>
              <LatitudeDegrees>43.70823263190686702728271484375</LatitudeDegrees>
              <LongitudeDegrees>-1.4323869533836841583251953125</LongitudeDegrees>
            </Position>
            <AltitudeMeters>32.799999237060546875</AltitudeMeters>
            <DistanceMeters>NAN</DistanceMeters>
          </Trackpoint>
          <Trackpoint>
            <Time>2022-07-07T08:03:14.000Z</Time>
            <Position>
              <LatitudeDegrees>43.70822592638432979583740234375</LatitudeDegrees>
              <LongitudeDegrees>-1.432440094649791717529296875</LongitudeDegrees>
            </Position>
            <AltitudeMeters>33</AltitudeMeters>
            <DistanceMeters>NAN</DistanceMeters>
          </Trackpoint>
          <Trackpoint>
            <Time>2022-07-07T08:03:16.000Z</Time>
            <Position>
              <LatitudeDegrees>43.708227686583995819091796875</LatitudeDegrees>
              <LongitudeDegrees>-1.43247772939503192901611328125</LongitudeDegrees>
            </Position>
            <AltitudeMeters>33.200000762939453125</AltitudeMeters>
            <DistanceMeters>NAN</DistanceMeters>
          </Trackpoint>
          <Trackpoint>
            <Time>2022-07-07T08:03:20.000Z</Time>
            <Position>
              <LatitudeDegrees>43.7082302011549472808837890625</LatitudeDegrees>
              <LongitudeDegrees>-1.43252902664244174957275390625</LongitudeDegrees>
            </Position>
            <AltitudeMeters>32.799999237060546875</AltitudeMeters>
            <DistanceMeters>NAN</DistanceMeters>
          </Trackpoint>
          <Trackpoint>
            <Time>2022-07-07T08:03:21.000Z</Time>
            <Position>
              <LatitudeDegrees>43.70823900215327739715576171875</LatitudeDegrees>
              <LongitudeDegrees>-1.432540677487850189208984375</LongitudeDegrees>
            </Position>
            <AltitudeMeters>32.799999237060546875</AltitudeMeters>
            <DistanceMeters>NAN</DistanceMeters>
          </Trackpoint>
          <Trackpoint>
            <Time>2022-07-07T08:03:23.000Z</Time>
            <Position>
              <LatitudeDegrees>43.70825107209384441375732421875</LatitudeDegrees>
              <LongitudeDegrees>-1.432552747428417205810546875</LongitudeDegrees>
            </Position>
            <AltitudeMeters>32.799999237060546875</AltitudeMeters>
            <DistanceMeters>NAN</DistanceMeters>
          </Trackpoint>
          <Trackpoint>
            <Time>2022-07-07T08:03:25.000Z</Time>
            <Position>
              <LatitudeDegrees>43.708269596099853515625</LatitudeDegrees>
              <LongitudeDegrees>-1.4325378276407718658447265625</LongitudeDegrees>
            </Position>
            <AltitudeMeters>32.799999237060546875</AltitudeMeters>
            <DistanceMeters>NAN</DistanceMeters>
          </Trackpoint>
          <Trackpoint>
            <Time>2022-07-07T08:03:26.000Z</Time>
            <Position>
              <LatitudeDegrees>43.7082843482494354248046875</LatitudeDegrees>
              <LongitudeDegrees>-1.43253372050821781158447265625</LongitudeDegrees>
            </Position>
            <AltitudeMeters>32.799999237060546875</AltitudeMeters>
            <DistanceMeters>NAN</DistanceMeters>
          </Trackpoint>
          <Trackpoint>
            <Time>2022-07-07T08:03:32.000Z</Time>
            <Position>
              <LatitudeDegrees>43.708363473415374755859375</LatitudeDegrees>
              <LongitudeDegrees>-1.43252424895763397216796875</LongitudeDegrees>
            </Position>
            <AltitudeMeters>32.799999237060546875</AltitudeMeters>
            <DistanceMeters>NAN</DistanceMeters>
          </Trackpoint>
          <Trackpoint>
            <Time>2022-07-07T08:03:33.000Z</Time>
            <Position>
              <LatitudeDegrees>43.7083835899829864501953125</LatitudeDegrees>
              <LongitudeDegrees>-1.432535983622074127197265625</LongitudeDegrees>
            </Position>
            <AltitudeMeters>32.799999237060546875</AltitudeMeters>
            <DistanceMeters>NAN</DistanceMeters>
          </Trackpoint>
          <Trackpoint>
            <Time>2022-07-07T08:03:36.000Z</Time>
            <Position>
              <LatitudeDegrees>43.70841820724308490753173828125</LatitudeDegrees>
              <LongitudeDegrees>-1.43260329030454158782958984375</LongitudeDegrees>
            </Position>
            <AltitudeMeters>33</AltitudeMeters>
            <DistanceMeters>NAN</DistanceMeters>
          </Trackpoint>
          <Trackpoint>
            <Time>2022-07-07T08:03:37.000Z</Time>
            <Position>
              <LatitudeDegrees>43.7084216438233852386474609375</LatitudeDegrees>
              <LongitudeDegrees>-1.432621479034423828125</LongitudeDegrees>
            </Position>
            <AltitudeMeters>33</AltitudeMeters>
            <DistanceMeters>NAN</DistanceMeters>
          </Trackpoint>
          <Trackpoint>
            <Time>2022-07-07T08:03:39.000Z</Time>
            <Position>
              <LatitudeDegrees>43.708430863916873931884765625</LatitudeDegrees>
              <LongitudeDegrees>-1.43267118372023105621337890625</LongitudeDegrees>
            </Position>
            <AltitudeMeters>33</AltitudeMeters>
            <DistanceMeters>NAN</DistanceMeters>
          </Trackpoint>
          <Trackpoint>
            <Time>2022-07-07T08:03:42.000Z</Time>
            <Position>
              <LatitudeDegrees>43.70844854973256587982177734375</LatitudeDegrees>
              <LongitudeDegrees>-1.432751901447772979736328125</LongitudeDegrees>
            </Position>
            <AltitudeMeters>32.799999237060546875</AltitudeMeters>
            <DistanceMeters>NAN</DistanceMeters>
          </Trackpoint>
          <Trackpoint>
            <Time>2022-07-07T08:03:44.000Z</Time>
            <Position>
              <LatitudeDegrees>43.70846338570117950439453125</LatitudeDegrees>
              <LongitudeDegrees>-1.43282675184309482574462890625</LongitudeDegrees>
            </Position>
            <AltitudeMeters>32.59999847412109375</AltitudeMeters>
            <DistanceMeters>NAN</DistanceMeters>
          </Trackpoint>
          <Trackpoint>
            <Time>2022-07-07T08:03:47.000Z</Time>
            <Position>
              <LatitudeDegrees>43.70849247090518474578857421875</LatitudeDegrees>
              <LongitudeDegrees>-1.4329425059258937835693359375</LongitudeDegrees>
            </Position>
            <AltitudeMeters>32.200000762939453125</AltitudeMeters>
            <DistanceMeters>NAN</DistanceMeters>
          </Trackpoint>
          <Trackpoint>
            <Time>2022-07-07T08:03:51.000Z</Time>
            <Position>
              <LatitudeDegrees>43.70851409621536731719970703125</LatitudeDegrees>
              <LongitudeDegrees>-1.4331020973622798919677734375</LongitudeDegrees>
            </Position>
            <AltitudeMeters>31.6000003814697265625</AltitudeMeters>
            <DistanceMeters>NAN</DistanceMeters>
          </Trackpoint>
          <Trackpoint>
            <Time>2022-07-07T08:03:57.000Z</Time>
            <Position>
              <LatitudeDegrees>43.70854611508548259735107421875</LatitudeDegrees>
              <LongitudeDegrees>-1.4333206973969936370849609375</LongitudeDegrees>
            </Position>
            <AltitudeMeters>31.200000762939453125</AltitudeMeters>
            <DistanceMeters>NAN</DistanceMeters>
          </Trackpoint>
          <Trackpoint>
            <Time>2022-07-07T08:04:04.000Z</Time>
            <Position>
              <LatitudeDegrees>43.708543516695499420166015625</LatitudeDegrees>
              <LongitudeDegrees>-1.43349160440266132354736328125</LongitudeDegrees>
            </Position>
            <AltitudeMeters>31.200000762939453125</AltitudeMeters>
            <DistanceMeters>NAN</DistanceMeters>
          </Trackpoint>
          <Trackpoint>
            <Time>2022-07-07T08:04:09.000Z</Time>
            <Position>
              <LatitudeDegrees>43.70854326523840427398681640625</LatitudeDegrees>
              <LongitudeDegrees>-1.43355480395257472991943359375</LongitudeDegrees>
            </Position>
            <AltitudeMeters>31.200000762939453125</AltitudeMeters>
            <DistanceMeters>NAN</DistanceMeters>
          </Trackpoint>
          <Trackpoint>
            <Time>2022-07-07T08:04:11.000Z</Time>
            <Position>
              <LatitudeDegrees>43.708526082336902618408203125</LatitudeDegrees>
              <LongitudeDegrees>-1.43355430103838443756103515625</LongitudeDegrees>
            </Position>
            <AltitudeMeters>31</AltitudeMeters>
            <DistanceMeters>NAN</DistanceMeters>
          </Trackpoint>
          <Trackpoint>
            <Time>2022-07-07T08:04:13.000Z</Time>
            <Position>
              <LatitudeDegrees>43.7085057981312274932861328125</LatitudeDegrees>
              <LongitudeDegrees>-1.4335483498871326446533203125</LongitudeDegrees>
            </Position>
            <AltitudeMeters>31</AltitudeMeters>
            <DistanceMeters>NAN</DistanceMeters>
          </Trackpoint>
          <Trackpoint>
            <Time>2022-07-07T08:04:21.000Z</Time>
            <Position>
              <LatitudeDegrees>43.70842306874692440032958984375</LatitudeDegrees>
              <LongitudeDegrees>-1.43337710760533809661865234375</LongitudeDegrees>
            </Position>
            <AltitudeMeters>31.200000762939453125</AltitudeMeters>
            <DistanceMeters>NAN</DistanceMeters>
          </Trackpoint>
          <Trackpoint>
            <Time>2022-07-07T08:04:24.000Z</Time>
            <Position>
              <LatitudeDegrees>43.7083995155990123748779296875</LatitudeDegrees>
              <LongitudeDegrees>-1.4333502016961574554443359375</LongitudeDegrees>
            </Position>
            <AltitudeMeters>31.200000762939453125</AltitudeMeters>
            <DistanceMeters>NAN</DistanceMeters>
          </Trackpoint>
          <Trackpoint>
            <Time>2022-07-07T08:04:26.000Z</Time>
            <Position>
              <LatitudeDegrees>43.708363808691501617431640625</LatitudeDegrees>
              <LongitudeDegrees>-1.43334391526877880096435546875</LongitudeDegrees>
            </Position>
            <AltitudeMeters>31.200000762939453125</AltitudeMeters>
            <DistanceMeters>NAN</DistanceMeters>
          </Trackpoint>
          <Trackpoint>
            <Time>2022-07-07T08:04:35.000Z</Time>
            <Position>
              <LatitudeDegrees>43.70814822614192962646484375</LatitudeDegrees>
              <LongitudeDegrees>-1.43331415951251983642578125</LongitudeDegrees>
            </Position>
            <AltitudeMeters>30.3999996185302734375</AltitudeMeters>
            <DistanceMeters>NAN</DistanceMeters>
          </Trackpoint>
          <Trackpoint>
            <Time>2022-07-07T08:04:37.000Z</Time>
            <Position>
              <LatitudeDegrees>43.70808645151555538177490234375</LatitudeDegrees>
              <LongitudeDegrees>-1.43331818282604217529296875</LongitudeDegrees>
            </Position>
            <AltitudeMeters>29.799999237060546875</AltitudeMeters>
            <DistanceMeters>NAN</DistanceMeters>
          </Trackpoint>
          <Trackpoint>
            <Time>2022-07-07T08:04:39.000Z</Time>
            <Position>
              <LatitudeDegrees>43.7080521695315837860107421875</LatitudeDegrees>
              <LongitudeDegrees>-1.43331323750317096710205078125</LongitudeDegrees>
            </Position>
            <AltitudeMeters>29.200000762939453125</AltitudeMeters>
            <DistanceMeters>NAN</DistanceMeters>
          </Trackpoint>
          <Trackpoint>
            <Time>2022-07-07T08:04:40.000Z</Time>
            <Position>
              <LatitudeDegrees>43.7080375850200653076171875</LatitudeDegrees>
              <LongitudeDegrees>-1.43332061357796192169189453125</LongitudeDegrees>
            </Position>
            <AltitudeMeters>29.200000762939453125</AltitudeMeters>
            <DistanceMeters>NAN</DistanceMeters>
          </Trackpoint>
          <Trackpoint>
            <Time>2022-07-07T08:04:43.000Z</Time>
            <Position>
              <LatitudeDegrees>43.708026520907878875732421875</LatitudeDegrees>
              <LongitudeDegrees>-1.4333684742450714111328125</LongitudeDegrees>
            </Position>
            <AltitudeMeters>28.799999237060546875</AltitudeMeters>
            <DistanceMeters>NAN</DistanceMeters>
          </Trackpoint>
          <Trackpoint>
            <Time>2022-07-07T08:04:44.000Z</Time>
            <Position>
              <LatitudeDegrees>43.70802073739469051361083984375</LatitudeDegrees>
              <LongitudeDegrees>-1.43337861634790897369384765625</LongitudeDegrees>
            </Position>
            <AltitudeMeters>28.799999237060546875</AltitudeMeters>
            <DistanceMeters>NAN</DistanceMeters>
          </Trackpoint>
          <Trackpoint>
            <Time>2022-07-07T08:04:53.000Z</Time>
            <Position>
              <LatitudeDegrees>43.70786248706281185150146484375</LatitudeDegrees>
              <LongitudeDegrees>-1.4334806241095066070556640625</LongitudeDegrees>
            </Position>
            <AltitudeMeters>28.3999996185302734375</AltitudeMeters>
            <DistanceMeters>NAN</DistanceMeters>
          </Trackpoint>
          <Trackpoint>
            <Time>2022-07-07T08:05:00.000Z</Time>
            <Position>
              <LatitudeDegrees>43.7076940946280956268310546875</LatitudeDegrees>
              <LongitudeDegrees>-1.43365371040999889373779296875</LongitudeDegrees>
            </Position>
            <AltitudeMeters>28.200000762939453125</AltitudeMeters>
            <DistanceMeters>NAN</DistanceMeters>
          </Trackpoint>
          <Trackpoint>
            <Time>2022-07-07T08:05:06.000Z</Time>
            <Position>
              <LatitudeDegrees>43.70759711600840091705322265625</LatitudeDegrees>
              <LongitudeDegrees>-1.43371975980699062347412109375</LongitudeDegrees>
            </Position>
            <AltitudeMeters>27.799999237060546875</AltitudeMeters>
            <DistanceMeters>NAN</DistanceMeters>
          </Trackpoint>
          <Trackpoint>
            <Time>2022-07-07T08:05:13.000Z</Time>
            <Position>
              <LatitudeDegrees>43.707418330013751983642578125</LatitudeDegrees>
              <LongitudeDegrees>-1.433705426752567291259765625</LongitudeDegrees>
            </Position>
            <AltitudeMeters>27.200000762939453125</AltitudeMeters>
            <DistanceMeters>NAN</DistanceMeters>
          </Trackpoint>
          <Trackpoint>
            <Time>2022-07-07T08:05:22.000Z</Time>
            <Position>
              <LatitudeDegrees>43.7072243727743625640869140625</LatitudeDegrees>
              <LongitudeDegrees>-1.433740295469760894775390625</LongitudeDegrees>
            </Position>
            <AltitudeMeters>27</AltitudeMeters>
            <DistanceMeters>NAN</DistanceMeters>
          </Trackpoint>
          <Trackpoint>
            <Time>2022-07-07T08:05:29.000Z</Time>
            <Position>
              <LatitudeDegrees>43.7070600874722003936767578125</LatitudeDegrees>
              <LongitudeDegrees>-1.43380659632384777069091796875</LongitudeDegrees>
            </Position>
            <AltitudeMeters>27.3999996185302734375</AltitudeMeters>
            <DistanceMeters>NAN</DistanceMeters>
          </Trackpoint>
          <Trackpoint>
            <Time>2022-07-07T08:05:37.000Z</Time>
            <Position>
              <LatitudeDegrees>43.7068559043109416961669921875</LatitudeDegrees>
              <LongitudeDegrees>-1.43378312699496746063232421875</LongitudeDegrees>
            </Position>
            <AltitudeMeters>27.3999996185302734375</AltitudeMeters>
            <DistanceMeters>NAN</DistanceMeters>
          </Trackpoint>
          <Trackpoint>
            <Time>2022-07-07T08:05:45.000Z</Time>
            <Position>
              <LatitudeDegrees>43.706660605967044830322265625</LatitudeDegrees>
              <LongitudeDegrees>-1.43379293382167816162109375</LongitudeDegrees>
            </Position>
            <AltitudeMeters>27.200000762939453125</AltitudeMeters>
            <DistanceMeters>NAN</DistanceMeters>
          </Trackpoint>
          <Trackpoint>
            <Time>2022-07-07T08:05:48.000Z</Time>
            <Position>
              <LatitudeDegrees>43.70665700174868106842041015625</LatitudeDegrees>
              <LongitudeDegrees>-1.43385336734354496002197265625</LongitudeDegrees>
            </Position>
            <AltitudeMeters>27.200000762939453125</AltitudeMeters>
            <DistanceMeters>NAN</DistanceMeters>
          </Trackpoint>
          <Trackpoint>
            <Time>2022-07-07T08:05:52.000Z</Time>
            <Position>
              <LatitudeDegrees>43.70672791264951229095458984375</LatitudeDegrees>
              <LongitudeDegrees>-1.4339003898203372955322265625</LongitudeDegrees>
            </Position>
            <AltitudeMeters>27.200000762939453125</AltitudeMeters>
            <DistanceMeters>NAN</DistanceMeters>
          </Trackpoint>
          <Trackpoint>
            <Time>2022-07-07T08:05:53.000Z</Time>
            <Position>
              <LatitudeDegrees>43.70672288350760936737060546875</LatitudeDegrees>
              <LongitudeDegrees>-1.433903910219669342041015625</LongitudeDegrees>
            </Position>
            <AltitudeMeters>27.200000762939453125</AltitudeMeters>
            <DistanceMeters>NAN</DistanceMeters>
          </Trackpoint>
          <Trackpoint>
            <Time>2022-07-07T08:05:55.000Z</Time>
            <Position>
              <LatitudeDegrees>43.70669790543615818023681640625</LatitudeDegrees>
              <LongitudeDegrees>-1.433927379548549652099609375</LongitudeDegrees>
            </Position>
            <AltitudeMeters>27.200000762939453125</AltitudeMeters>
            <DistanceMeters>NAN</DistanceMeters>
          </Trackpoint>
          <Trackpoint>
            <Time>2022-07-07T08:06:00.000Z</Time>
            <Position>
              <LatitudeDegrees>43.70660285465419292449951171875</LatitudeDegrees>
              <LongitudeDegrees>-1.433933414518833160400390625</LongitudeDegrees>
            </Position>
            <AltitudeMeters>27.6000003814697265625</AltitudeMeters>
            <DistanceMeters>NAN</DistanceMeters>
          </Trackpoint>
          <Trackpoint>
            <Time>2022-07-07T08:06:07.000Z</Time>
            <Position>
              <LatitudeDegrees>43.7064411677420139312744140625</LatitudeDegrees>
              <LongitudeDegrees>-1.4338128827512264251708984375</LongitudeDegrees>
            </Position>
            <AltitudeMeters>27.6000003814697265625</AltitudeMeters>
            <DistanceMeters>NAN</DistanceMeters>
          </Trackpoint>
          <Trackpoint>
            <Time>2022-07-07T08:06:10.000Z</Time>
            <Position>
              <LatitudeDegrees>43.70636631734669208526611328125</LatitudeDegrees>
              <LongitudeDegrees>-1.4338137209415435791015625</LongitudeDegrees>
            </Position>
            <AltitudeMeters>27.6000003814697265625</AltitudeMeters>
            <DistanceMeters>NAN</DistanceMeters>
          </Trackpoint>
          <Trackpoint>
            <Time>2022-07-07T08:06:13.000Z</Time>
            <Position>
              <LatitudeDegrees>43.70628132484853267669677734375</LatitudeDegrees>
              <LongitudeDegrees>-1.433844231069087982177734375</LongitudeDegrees>
            </Position>
            <AltitudeMeters>27.799999237060546875</AltitudeMeters>
            <DistanceMeters>NAN</DistanceMeters>
          </Trackpoint>
          <Trackpoint>
            <Time>2022-07-07T08:06:14.000Z</Time>
            <Position>
              <LatitudeDegrees>43.7062510661780834197998046875</LatitudeDegrees>
              <LongitudeDegrees>-1.4338604919612407684326171875</LongitudeDegrees>
            </Position>
            <AltitudeMeters>27.799999237060546875</AltitudeMeters>
            <DistanceMeters>NAN</DistanceMeters>
          </Trackpoint>
          <Trackpoint>
            <Time>2022-07-07T08:06:15.000Z</Time>
            <Position>
              <LatitudeDegrees>43.706220723688602447509765625</LatitudeDegrees>
              <LongitudeDegrees>-1.433881111443042755126953125</LongitudeDegrees>
            </Position>
            <AltitudeMeters>27.799999237060546875</AltitudeMeters>
            <DistanceMeters>NAN</DistanceMeters>
          </Trackpoint>
          <Trackpoint>
            <Time>2022-07-07T08:06:20.000Z</Time>
            <Position>
              <LatitudeDegrees>43.70611318387091159820556640625</LatitudeDegrees>
              <LongitudeDegrees>-1.43401689827442169189453125</LongitudeDegrees>
            </Position>
            <AltitudeMeters>27.799999237060546875</AltitudeMeters>
            <DistanceMeters>NAN</DistanceMeters>
          </Trackpoint>
          <Trackpoint>
            <Time>2022-07-07T08:06:22.000Z</Time>
            <Position>
              <LatitudeDegrees>43.70606188662350177764892578125</LatitudeDegrees>
              <LongitudeDegrees>-1.43406861461699008941650390625</LongitudeDegrees>
            </Position>
            <AltitudeMeters>27.6000003814697265625</AltitudeMeters>
            <DistanceMeters>NAN</DistanceMeters>
          </Trackpoint>
          <Trackpoint>
            <Time>2022-07-07T08:06:23.000Z</Time>
            <Position>
              <LatitudeDegrees>43.70603338815271854400634765625</LatitudeDegrees>
              <LongitudeDegrees>-1.4340846240520477294921875</LongitudeDegrees>
            </Position>
            <AltitudeMeters>27.6000003814697265625</AltitudeMeters>
            <DistanceMeters>NAN</DistanceMeters>
          </Trackpoint>
          <Trackpoint>
            <Time>2022-07-07T08:06:28.000Z</Time>
            <Position>
              <LatitudeDegrees>43.7058862857520580291748046875</LatitudeDegrees>
              <LongitudeDegrees>-1.43419350497424602508544921875</LongitudeDegrees>
            </Position>
            <AltitudeMeters>27.3999996185302734375</AltitudeMeters>
            <DistanceMeters>NAN</DistanceMeters>
          </Trackpoint>
          <Trackpoint>
            <Time>2022-07-07T08:06:34.000Z</Time>
            <Position>
              <LatitudeDegrees>43.70581864379346370697021484375</LatitudeDegrees>
              <LongitudeDegrees>-1.4343607239425182342529296875</LongitudeDegrees>
            </Position>
            <AltitudeMeters>27.6000003814697265625</AltitudeMeters>
            <DistanceMeters>NAN</DistanceMeters>
          </Trackpoint>
          <Trackpoint>
            <Time>2022-07-07T08:06:39.000Z</Time>
            <Position>
              <LatitudeDegrees>43.70571370236575603485107421875</LatitudeDegrees>
              <LongitudeDegrees>-1.43441654741764068603515625</LongitudeDegrees>
            </Position>
            <AltitudeMeters>27.6000003814697265625</AltitudeMeters>
            <DistanceMeters>NAN</DistanceMeters>
          </Trackpoint>
          <Trackpoint>
            <Time>2022-07-07T08:06:46.000Z</Time>
            <Position>
              <LatitudeDegrees>43.70549845509231090545654296875</LatitudeDegrees>
              <LongitudeDegrees>-1.434398107230663299560546875</LongitudeDegrees>
            </Position>
            <AltitudeMeters>27.3999996185302734375</AltitudeMeters>
            <DistanceMeters>NAN</DistanceMeters>
          </Trackpoint>
          <Trackpoint>
            <Time>2022-07-07T08:06:48.000Z</Time>
            <Position>
              <LatitudeDegrees>43.7054299749433994293212890625</LatitudeDegrees>
              <LongitudeDegrees>-1.43439668230712413787841796875</LongitudeDegrees>
            </Position>
            <AltitudeMeters>27.200000762939453125</AltitudeMeters>
            <DistanceMeters>NAN</DistanceMeters>
          </Trackpoint>
          <Trackpoint>
            <Time>2022-07-07T08:06:53.000Z</Time>
            <Position>
              <LatitudeDegrees>43.7052720598876476287841796875</LatitudeDegrees>
              <LongitudeDegrees>-1.43440053798258304595947265625</LongitudeDegrees>
            </Position>
            <AltitudeMeters>26.799999237060546875</AltitudeMeters>
            <DistanceMeters>NAN</DistanceMeters>
          </Trackpoint>
          <Trackpoint>
            <Time>2022-07-07T08:06:54.000Z</Time>
            <Position>
              <LatitudeDegrees>43.70524012483656406402587890625</LatitudeDegrees>
              <LongitudeDegrees>-1.43440221436321735382080078125</LongitudeDegrees>
            </Position>
            <AltitudeMeters>26.799999237060546875</AltitudeMeters>
            <DistanceMeters>NAN</DistanceMeters>
          </Trackpoint>
          <Trackpoint>
            <Time>2022-07-07T08:07:02.000Z</Time>
            <Position>
              <LatitudeDegrees>43.70499604381620883941650390625</LatitudeDegrees>
              <LongitudeDegrees>-1.434362567961215972900390625</LongitudeDegrees>
            </Position>
            <AltitudeMeters>27</AltitudeMeters>
            <DistanceMeters>NAN</DistanceMeters>
          </Trackpoint>
          <Trackpoint>
            <Time>2022-07-07T08:07:03.000Z</Time>
            <Position>
              <LatitudeDegrees>43.7049656175076961517333984375</LatitudeDegrees>
              <LongitudeDegrees>-1.43436466343700885772705078125</LongitudeDegrees>
            </Position>
            <AltitudeMeters>27</AltitudeMeters>
            <DistanceMeters>NAN</DistanceMeters>
          </Trackpoint>
          <Trackpoint>
            <Time>2022-07-07T08:07:12.000Z</Time>
            <Position>
              <LatitudeDegrees>43.70469085872173309326171875</LatitudeDegrees>
              <LongitudeDegrees>-1.434351839125156402587890625</LongitudeDegrees>
            </Position>
            <AltitudeMeters>27</AltitudeMeters>
            <DistanceMeters>NAN</DistanceMeters>
          </Trackpoint>
          <Trackpoint>
            <Time>2022-07-07T08:07:21.000Z</Time>
            <Position>
              <LatitudeDegrees>43.7044244818389415740966796875</LatitudeDegrees>
              <LongitudeDegrees>-1.4343650825321674346923828125</LongitudeDegrees>
            </Position>
            <AltitudeMeters>26.799999237060546875</AltitudeMeters>
            <DistanceMeters>NAN</DistanceMeters>
          </Trackpoint>
          <Trackpoint>
            <Time>2022-07-07T08:07:24.000Z</Time>
            <Position>
              <LatitudeDegrees>43.704376034438610076904296875</LatitudeDegrees>
              <LongitudeDegrees>-1.43435678444802761077880859375</LongitudeDegrees>
            </Position>
            <AltitudeMeters>26.6000003814697265625</AltitudeMeters>
            <DistanceMeters>NAN</DistanceMeters>
          </Trackpoint>
          <Trackpoint>
            <Time>2022-07-07T08:07:25.000Z</Time>
            <Position>
              <LatitudeDegrees>43.70437075383961200714111328125</LatitudeDegrees>
              <LongitudeDegrees>-1.4343593828380107879638671875</LongitudeDegrees>
            </Position>
            <AltitudeMeters>26.6000003814697265625</AltitudeMeters>
            <DistanceMeters>NAN</DistanceMeters>
          </Trackpoint>
          <Trackpoint>
            <Time>2022-07-07T08:07:31.000Z</Time>
            <Position>
              <LatitudeDegrees>43.70436706580221652984619140625</LatitudeDegrees>
              <LongitudeDegrees>-1.4343848638236522674560546875</LongitudeDegrees>
            </Position>
            <AltitudeMeters>26.6000003814697265625</AltitudeMeters>
            <DistanceMeters>NAN</DistanceMeters>
          </Trackpoint>
          <Trackpoint>
            <Time>2022-07-07T08:07:38.000Z</Time>
            <Position>
              <LatitudeDegrees>43.704364635050296783447265625</LatitudeDegrees>
              <LongitudeDegrees>-1.43438570201396942138671875</LongitudeDegrees>
            </Position>
            <AltitudeMeters>26.3999996185302734375</AltitudeMeters>
            <DistanceMeters>NAN</DistanceMeters>
          </Trackpoint>
          <Trackpoint>
            <Time>2022-07-07T08:07:39.000Z</Time>
            <Position>
              <LatitudeDegrees>43.704364635050296783447265625</LatitudeDegrees>
              <LongitudeDegrees>-1.43438570201396942138671875</LongitudeDegrees>
            </Position>
            <AltitudeMeters>26.3999996185302734375</AltitudeMeters>
            <DistanceMeters>NAN</DistanceMeters>
          </Trackpoint>
          <Trackpoint>
            <Time>2022-07-07T08:07:41.000Z</Time>
            <Position>
              <LatitudeDegrees>43.70435214601457118988037109375</LatitudeDegrees>
              <LongitudeDegrees>-1.43436826765537261962890625</LongitudeDegrees>
            </Position>
            <AltitudeMeters>26.3999996185302734375</AltitudeMeters>
            <DistanceMeters>NAN</DistanceMeters>
          </Trackpoint>
          <Trackpoint>
            <Time>2022-07-07T08:07:43.000Z</Time>
            <Position>
              <LatitudeDegrees>43.704334795475006103515625</LatitudeDegrees>
              <LongitudeDegrees>-1.43434370867908000946044921875</LongitudeDegrees>
            </Position>
            <AltitudeMeters>26.3999996185302734375</AltitudeMeters>
            <DistanceMeters>NAN</DistanceMeters>
          </Trackpoint>
          <Trackpoint>
            <Time>2022-07-07T08:07:46.000Z</Time>
            <Position>
              <LatitudeDegrees>43.70433404110372066497802734375</LatitudeDegrees>
              <LongitudeDegrees>-1.43433474004268646240234375</LongitudeDegrees>
            </Position>
            <AltitudeMeters>26.3999996185302734375</AltitudeMeters>
            <DistanceMeters>NAN</DistanceMeters>
          </Trackpoint>
          <Trackpoint>
            <Time>2022-07-07T08:08:06.000Z</Time>
            <Position>
              <LatitudeDegrees>43.704345189034938812255859375</LatitudeDegrees>
              <LongitudeDegrees>-1.434357203543186187744140625</LongitudeDegrees>
            </Position>
            <AltitudeMeters>26</AltitudeMeters>
            <DistanceMeters>NAN</DistanceMeters>
          </Trackpoint>
          <Trackpoint>
            <Time>2022-07-07T08:08:07.000Z</Time>
            <Position>
              <LatitudeDegrees>43.70435901917517185211181640625</LatitudeDegrees>
              <LongitudeDegrees>-1.43436969257891178131103515625</LongitudeDegrees>
            </Position>
            <AltitudeMeters>26</AltitudeMeters>
            <DistanceMeters>NAN</DistanceMeters>
          </Trackpoint>
          <Trackpoint>
            <Time>2022-07-07T08:08:09.000Z</Time>
            <Position>
              <LatitudeDegrees>43.70436522178351879119873046875</LatitudeDegrees>
              <LongitudeDegrees>-1.43437589518725872039794921875</LongitudeDegrees>
            </Position>
            <AltitudeMeters>26.200000762939453125</AltitudeMeters>
            <DistanceMeters>NAN</DistanceMeters>
          </Trackpoint>
          <Trackpoint>
            <Time>2022-07-07T08:08:10.000Z</Time>
            <Position>
              <LatitudeDegrees>43.70436522178351879119873046875</LatitudeDegrees>
              <LongitudeDegrees>-1.43437589518725872039794921875</LongitudeDegrees>
            </Position>
            <AltitudeMeters>26.200000762939453125</AltitudeMeters>
            <DistanceMeters>NAN</DistanceMeters>
          </Trackpoint>
          <Trackpoint>
            <Time>2022-07-07T08:08:23.000Z</Time>
            <Position>
              <LatitudeDegrees>43.7042826600372791290283203125</LatitudeDegrees>
              <LongitudeDegrees>-1.43437891267240047454833984375</LongitudeDegrees>
            </Position>
            <AltitudeMeters>26.3999996185302734375</AltitudeMeters>
            <DistanceMeters>NAN</DistanceMeters>
          </Trackpoint>
          <Trackpoint>
            <Time>2022-07-07T08:08:31.000Z</Time>
            <Position>
              <LatitudeDegrees>43.7040332145988941192626953125</LatitudeDegrees>
              <LongitudeDegrees>-1.43437623046338558197021484375</LongitudeDegrees>
            </Position>
            <AltitudeMeters>26.6000003814697265625</AltitudeMeters>
            <DistanceMeters>NAN</DistanceMeters>
          </Trackpoint>
          <Trackpoint>
            <Time>2022-07-07T08:08:39.000Z</Time>
            <Position>
              <LatitudeDegrees>43.703790642321109771728515625</LatitudeDegrees>
              <LongitudeDegrees>-1.43439383246004581451416015625</LongitudeDegrees>
            </Position>
            <AltitudeMeters>26.799999237060546875</AltitudeMeters>
            <DistanceMeters>NAN</DistanceMeters>
          </Trackpoint>
          <Trackpoint>
            <Time>2022-07-07T08:08:48.000Z</Time>
            <Position>
              <LatitudeDegrees>43.7034563720226287841796875</LatitudeDegrees>
              <LongitudeDegrees>-1.43450547941029071807861328125</LongitudeDegrees>
            </Position>
            <AltitudeMeters>26</AltitudeMeters>
            <DistanceMeters>NAN</DistanceMeters>
          </Trackpoint>
          <Trackpoint>
            <Time>2022-07-07T08:08:51.000Z</Time>
            <Position>
              <LatitudeDegrees>43.7033546157181262969970703125</LatitudeDegrees>
              <LongitudeDegrees>-1.43450011499226093292236328125</LongitudeDegrees>
            </Position>
            <AltitudeMeters>25.6000003814697265625</AltitudeMeters>
            <DistanceMeters>NAN</DistanceMeters>
          </Trackpoint>
          <Trackpoint>
            <Time>2022-07-07T08:08:52.000Z</Time>
            <Position>
              <LatitudeDegrees>43.70332251302897930145263671875</LatitudeDegrees>
              <LongitudeDegrees>-1.434479244053363800048828125</LongitudeDegrees>
            </Position>
            <AltitudeMeters>25.3999996185302734375</AltitudeMeters>
            <DistanceMeters>NAN</DistanceMeters>
          </Trackpoint>
          <Trackpoint>
            <Time>2022-07-07T08:08:54.000Z</Time>
            <Position>
              <LatitudeDegrees>43.7032768316566944122314453125</LatitudeDegrees>
              <LongitudeDegrees>-1.434437334537506103515625</LongitudeDegrees>
            </Position>
            <AltitudeMeters>25.3999996185302734375</AltitudeMeters>
            <DistanceMeters>NAN</DistanceMeters>
          </Trackpoint>
          <Trackpoint>
            <Time>2022-07-07T08:08:55.000Z</Time>
            <Position>
              <LatitudeDegrees>43.70325721800327301025390625</LatitudeDegrees>
              <LongitudeDegrees>-1.4344287849962711334228515625</LongitudeDegrees>
            </Position>
            <AltitudeMeters>25.200000762939453125</AltitudeMeters>
            <DistanceMeters>NAN</DistanceMeters>
          </Trackpoint>
          <Trackpoint>
            <Time>2022-07-07T08:08:59.000Z</Time>
            <Position>
              <LatitudeDegrees>43.70319628156721591949462890625</LatitudeDegrees>
              <LongitudeDegrees>-1.43449726514518260955810546875</LongitudeDegrees>
            </Position>
            <AltitudeMeters>25.3999996185302734375</AltitudeMeters>
            <DistanceMeters>NAN</DistanceMeters>
          </Trackpoint>
          <Trackpoint>
            <Time>2022-07-07T08:09:05.000Z</Time>
            <Position>
              <LatitudeDegrees>43.70306066237390041351318359375</LatitudeDegrees>
              <LongitudeDegrees>-1.43456800840795040130615234375</LongitudeDegrees>
            </Position>
            <AltitudeMeters>25.6000003814697265625</AltitudeMeters>
            <DistanceMeters>NAN</DistanceMeters>
          </Trackpoint>
          <Trackpoint>
            <Time>2022-07-07T08:09:13.000Z</Time>
            <Position>
              <LatitudeDegrees>43.7028604187071323394775390625</LatitudeDegrees>
              <LongitudeDegrees>-1.43470731563866138458251953125</LongitudeDegrees>
            </Position>
            <AltitudeMeters>25.6000003814697265625</AltitudeMeters>
            <DistanceMeters>NAN</DistanceMeters>
          </Trackpoint>
          <Trackpoint>
            <Time>2022-07-07T08:09:20.000Z</Time>
            <Position>
              <LatitudeDegrees>43.70267274789512157440185546875</LatitudeDegrees>
              <LongitudeDegrees>-1.43477839417755603790283203125</LongitudeDegrees>
            </Position>
            <AltitudeMeters>25.6000003814697265625</AltitudeMeters>
            <DistanceMeters>NAN</DistanceMeters>
          </Trackpoint>
          <Trackpoint>
            <Time>2022-07-07T08:09:26.000Z</Time>
            <Position>
              <LatitudeDegrees>43.70252807624638080596923828125</LatitudeDegrees>
              <LongitudeDegrees>-1.434836648404598236083984375</LongitudeDegrees>
            </Position>
            <AltitudeMeters>25.799999237060546875</AltitudeMeters>
            <DistanceMeters>NAN</DistanceMeters>
          </Trackpoint>
          <Trackpoint>
            <Time>2022-07-07T08:09:27.000Z</Time>
            <Position>
              <LatitudeDegrees>43.70250477455556392669677734375</LatitudeDegrees>
              <LongitudeDegrees>-1.43485249020159244537353515625</LongitudeDegrees>
            </Position>
            <AltitudeMeters>25.799999237060546875</AltitudeMeters>
            <DistanceMeters>NAN</DistanceMeters>
          </Trackpoint>
          <Trackpoint>
            <Time>2022-07-07T08:09:35.000Z</Time>
            <Position>
              <LatitudeDegrees>43.7023283354938030242919921875</LatitudeDegrees>
              <LongitudeDegrees>-1.43492507748305797576904296875</LongitudeDegrees>
            </Position>
            <AltitudeMeters>25.799999237060546875</AltitudeMeters>
            <DistanceMeters>NAN</DistanceMeters>
          </Trackpoint>
          <Trackpoint>
            <Time>2022-07-07T08:09:42.000Z</Time>
            <Position>
              <LatitudeDegrees>43.70215256698429584503173828125</LatitudeDegrees>
              <LongitudeDegrees>-1.43504678271710872650146484375</LongitudeDegrees>
            </Position>
            <AltitudeMeters>25.799999237060546875</AltitudeMeters>
            <DistanceMeters>NAN</DistanceMeters>
          </Trackpoint>
          <Trackpoint>
            <Time>2022-07-07T08:09:48.000Z</Time>
            <Position>
              <LatitudeDegrees>43.702078722417354583740234375</LatitudeDegrees>
              <LongitudeDegrees>-1.4350731857120990753173828125</LongitudeDegrees>
            </Position>
            <AltitudeMeters>25</AltitudeMeters>
            <DistanceMeters>NAN</DistanceMeters>
          </Trackpoint>
          <Trackpoint>
            <Time>2022-07-07T08:09:49.000Z</Time>
            <Position>
              <LatitudeDegrees>43.702078722417354583740234375</LatitudeDegrees>
              <LongitudeDegrees>-1.4350731857120990753173828125</LongitudeDegrees>
            </Position>
            <AltitudeMeters>24.799999237060546875</AltitudeMeters>
            <DistanceMeters>NAN</DistanceMeters>
          </Trackpoint>
          <Trackpoint>
            <Time>2022-07-07T08:11:09.000Z</Time>
            <Position>
              <LatitudeDegrees>43.701814524829387664794921875</LatitudeDegrees>
              <LongitudeDegrees>-1.43512758426368236541748046875</LongitudeDegrees>
            </Position>
            <AltitudeMeters>25.200000762939453125</AltitudeMeters>
            <DistanceMeters>NAN</DistanceMeters>
          </Trackpoint>
          <Trackpoint>
            <Time>2022-07-07T08:11:11.000Z</Time>
            <Position>
              <LatitudeDegrees>43.7017674185335636138916015625</LatitudeDegrees>
              <LongitudeDegrees>-1.43513211049139499664306640625</LongitudeDegrees>
            </Position>
            <AltitudeMeters>25.200000762939453125</AltitudeMeters>
            <DistanceMeters>NAN</DistanceMeters>
          </Trackpoint>
          <Trackpoint>
            <Time>2022-07-07T08:11:17.000Z</Time>
            <Position>
              <LatitudeDegrees>43.701577484607696533203125</LatitudeDegrees>
              <LongitudeDegrees>-1.4351781271398067474365234375</LongitudeDegrees>
            </Position>
            <AltitudeMeters>25.3999996185302734375</AltitudeMeters>
            <DistanceMeters>NAN</DistanceMeters>
          </Trackpoint>
          <Trackpoint>
            <Time>2022-07-07T08:11:24.000Z</Time>
            <Position>
              <LatitudeDegrees>43.7013213336467742919921875</LatitudeDegrees>
              <LongitudeDegrees>-1.43519438803195953369140625</LongitudeDegrees>
            </Position>
            <AltitudeMeters>25</AltitudeMeters>
            <DistanceMeters>NAN</DistanceMeters>
          </Trackpoint>
          <Trackpoint>
            <Time>2022-07-07T08:11:30.000Z</Time>
            <Position>
              <LatitudeDegrees>43.70108219794929027557373046875</LatitudeDegrees>
              <LongitudeDegrees>-1.43526655621826648712158203125</LongitudeDegrees>
            </Position>
            <AltitudeMeters>24.6000003814697265625</AltitudeMeters>
            <DistanceMeters>NAN</DistanceMeters>
          </Trackpoint>
          <Trackpoint>
            <Time>2022-07-07T08:11:31.000Z</Time>
            <Position>
              <LatitudeDegrees>43.7010405398905277252197265625</LatitudeDegrees>
              <LongitudeDegrees>-1.43528415821492671966552734375</LongitudeDegrees>
            </Position>
            <AltitudeMeters>24.3999996185302734375</AltitudeMeters>
            <DistanceMeters>NAN</DistanceMeters>
          </Trackpoint>
          <Trackpoint>
            <Time>2022-07-07T08:11:39.000Z</Time>
            <Position>
              <LatitudeDegrees>43.70070040225982666015625</LatitudeDegrees>
              <LongitudeDegrees>-1.4354932866990566253662109375</LongitudeDegrees>
            </Position>
            <AltitudeMeters>24</AltitudeMeters>
            <DistanceMeters>NAN</DistanceMeters>
          </Trackpoint>
          <Trackpoint>
            <Time>2022-07-07T08:11:43.000Z</Time>
            <Position>
              <LatitudeDegrees>43.70053745806217193603515625</LatitudeDegrees>
              <LongitudeDegrees>-1.43558858893811702728271484375</LongitudeDegrees>
            </Position>
            <AltitudeMeters>23.6000003814697265625</AltitudeMeters>
            <DistanceMeters>NAN</DistanceMeters>
          </Trackpoint>
          <Trackpoint>
            <Time>2022-07-07T08:11:45.000Z</Time>
            <Position>
              <LatitudeDegrees>43.70046436786651611328125</LatitudeDegrees>
              <LongitudeDegrees>-1.4356042630970478057861328125</LongitudeDegrees>
            </Position>
            <AltitudeMeters>23.3999996185302734375</AltitudeMeters>
            <DistanceMeters>NAN</DistanceMeters>
          </Trackpoint>
          <Trackpoint>
            <Time>2022-07-07T08:11:46.000Z</Time>
            <Position>
              <LatitudeDegrees>43.70042153634130954742431640625</LatitudeDegrees>
              <LongitudeDegrees>-1.4355978928506374359130859375</LongitudeDegrees>
            </Position>
            <AltitudeMeters>23.200000762939453125</AltitudeMeters>
            <DistanceMeters>NAN</DistanceMeters>
          </Trackpoint>
          <Trackpoint>
            <Time>2022-07-07T08:11:47.000Z</Time>
            <Position>
              <LatitudeDegrees>43.700376190245151519775390625</LatitudeDegrees>
              <LongitudeDegrees>-1.4355881698429584503173828125</LongitudeDegrees>
            </Position>
            <AltitudeMeters>23.200000762939453125</AltitudeMeters>
            <DistanceMeters>NAN</DistanceMeters>
          </Trackpoint>
          <Trackpoint>
            <Time>2022-07-07T08:11:49.000Z</Time>
            <Position>
              <LatitudeDegrees>43.700300417840480804443359375</LatitudeDegrees>
              <LongitudeDegrees>-1.435555480420589447021484375</LongitudeDegrees>
            </Position>
            <AltitudeMeters>23</AltitudeMeters>
            <DistanceMeters>NAN</DistanceMeters>
          </Trackpoint>
          <Trackpoint>
            <Time>2022-07-07T08:11:51.000Z</Time>
            <Position>
              <LatitudeDegrees>43.70024241507053375244140625</LatitudeDegrees>
              <LongitudeDegrees>-1.43550476990640163421630859375</LongitudeDegrees>
            </Position>
            <AltitudeMeters>23</AltitudeMeters>
            <DistanceMeters>NAN</DistanceMeters>
          </Trackpoint>
          <Trackpoint>
            <Time>2022-07-07T08:11:55.000Z</Time>
            <Position>
              <LatitudeDegrees>43.7001644633710384368896484375</LatitudeDegrees>
              <LongitudeDegrees>-1.43537116236984729766845703125</LongitudeDegrees>
            </Position>
            <AltitudeMeters>23.3999996185302734375</AltitudeMeters>
            <DistanceMeters>NAN</DistanceMeters>
          </Trackpoint>
          <Trackpoint>
            <Time>2022-07-07T08:11:58.000Z</Time>
            <Position>
              <LatitudeDegrees>43.70014040730893611907958984375</LatitudeDegrees>
              <LongitudeDegrees>-1.43530997447669506072998046875</LongitudeDegrees>
            </Position>
            <AltitudeMeters>23.799999237060546875</AltitudeMeters>
            <DistanceMeters>NAN</DistanceMeters>
          </Trackpoint>
          <Trackpoint>
            <Time>2022-07-07T08:11:59.000Z</Time>
            <Position>
              <LatitudeDegrees>43.7001289241015911102294921875</LatitudeDegrees>
              <LongitudeDegrees>-1.4353119023144245147705078125</LongitudeDegrees>
            </Position>
            <AltitudeMeters>23.799999237060546875</AltitudeMeters>
            <DistanceMeters>NAN</DistanceMeters>
          </Trackpoint>
          <Trackpoint>
            <Time>2022-07-07T08:12:03.000Z</Time>
            <Position>
              <LatitudeDegrees>43.70013738982379436492919921875</LatitudeDegrees>
              <LongitudeDegrees>-1.43539094366133213043212890625</LongitudeDegrees>
            </Position>
            <AltitudeMeters>24.3999996185302734375</AltitudeMeters>
            <DistanceMeters>NAN</DistanceMeters>
          </Trackpoint>
          <Trackpoint>
            <Time>2022-07-07T08:12:08.000Z</Time>
            <Position>
              <LatitudeDegrees>43.7001661397516727447509765625</LatitudeDegrees>
              <LongitudeDegrees>-1.4355700649321079254150390625</LongitudeDegrees>
            </Position>
            <AltitudeMeters>23.799999237060546875</AltitudeMeters>
            <DistanceMeters>NAN</DistanceMeters>
          </Trackpoint>
          <Trackpoint>
            <Time>2022-07-07T08:12:13.000Z</Time>
            <Position>
              <LatitudeDegrees>43.70016722939908504486083984375</LatitudeDegrees>
              <LongitudeDegrees>-1.4357081986963748931884765625</LongitudeDegrees>
            </Position>
            <AltitudeMeters>23.200000762939453125</AltitudeMeters>
            <DistanceMeters>NAN</DistanceMeters>
          </Trackpoint>
          <Trackpoint>
            <Time>2022-07-07T08:12:19.000Z</Time>
            <Position>
              <LatitudeDegrees>43.70013252831995487213134765625</LatitudeDegrees>
              <LongitudeDegrees>-1.43588514067232608795166015625</LongitudeDegrees>
            </Position>
            <AltitudeMeters>22.6000003814697265625</AltitudeMeters>
            <DistanceMeters>NAN</DistanceMeters>
          </Trackpoint>
          <Trackpoint>
            <Time>2022-07-07T08:12:26.000Z</Time>
            <Position>
              <LatitudeDegrees>43.6999797262251377105712890625</LatitudeDegrees>
              <LongitudeDegrees>-1.43603567965328693389892578125</LongitudeDegrees>
            </Position>
            <AltitudeMeters>22.3999996185302734375</AltitudeMeters>
            <DistanceMeters>NAN</DistanceMeters>
          </Trackpoint>
          <Trackpoint>
            <Time>2022-07-07T08:12:35.000Z</Time>
            <Position>
              <LatitudeDegrees>43.69975517503917217254638671875</LatitudeDegrees>
              <LongitudeDegrees>-1.43610776402056217193603515625</LongitudeDegrees>
            </Position>
            <AltitudeMeters>22.799999237060546875</AltitudeMeters>
            <DistanceMeters>NAN</DistanceMeters>
          </Trackpoint>
          <Trackpoint>
            <Time>2022-07-07T08:12:37.000Z</Time>
            <Position>
              <LatitudeDegrees>43.6997222341597080230712890625</LatitudeDegrees>
              <LongitudeDegrees>-1.43613575957715511322021484375</LongitudeDegrees>
            </Position>
            <AltitudeMeters>23</AltitudeMeters>
            <DistanceMeters>NAN</DistanceMeters>
          </Trackpoint>
          <Trackpoint>
            <Time>2022-07-07T08:12:41.000Z</Time>
            <Position>
              <LatitudeDegrees>43.69966180063784122467041015625</LatitudeDegrees>
              <LongitudeDegrees>-1.43622728995978832244873046875</LongitudeDegrees>
            </Position>
            <AltitudeMeters>23.6000003814697265625</AltitudeMeters>
            <DistanceMeters>NAN</DistanceMeters>
          </Trackpoint>
          <Trackpoint>
            <Time>2022-07-07T08:12:47.000Z</Time>
            <Position>
              <LatitudeDegrees>43.6995884589850902557373046875</LatitudeDegrees>
              <LongitudeDegrees>-1.4363660104572772979736328125</LongitudeDegrees>
            </Position>
            <AltitudeMeters>24</AltitudeMeters>
            <DistanceMeters>NAN</DistanceMeters>
          </Trackpoint>
          <Trackpoint>
            <Time>2022-07-07T08:12:51.000Z</Time>
            <Position>
              <LatitudeDegrees>43.6995324678719043731689453125</LatitudeDegrees>
              <LongitudeDegrees>-1.43643566407263278961181640625</LongitudeDegrees>
            </Position>
            <AltitudeMeters>24.6000003814697265625</AltitudeMeters>
            <DistanceMeters>NAN</DistanceMeters>
          </Trackpoint>
          <Trackpoint>
            <Time>2022-07-07T08:12:53.000Z</Time>
            <Position>
              <LatitudeDegrees>43.69950187392532825469970703125</LatitudeDegrees>
              <LongitudeDegrees>-1.43644354306161403656005859375</LongitudeDegrees>
            </Position>
            <AltitudeMeters>24.799999237060546875</AltitudeMeters>
            <DistanceMeters>NAN</DistanceMeters>
          </Trackpoint>
          <Trackpoint>
            <Time>2022-07-07T08:12:59.000Z</Time>
            <Position>
              <LatitudeDegrees>43.69941704906523227691650390625</LatitudeDegrees>
              <LongitudeDegrees>-1.4363993704319000244140625</LongitudeDegrees>
            </Position>
            <AltitudeMeters>25.6000003814697265625</AltitudeMeters>
            <DistanceMeters>NAN</DistanceMeters>
          </Trackpoint>
          <Trackpoint>
            <Time>2022-07-07T08:13:03.000Z</Time>
            <Position>
              <LatitudeDegrees>43.69934580288827419281005859375</LatitudeDegrees>
              <LongitudeDegrees>-1.43640582449734210968017578125</LongitudeDegrees>
            </Position>
            <AltitudeMeters>25.6000003814697265625</AltitudeMeters>
            <DistanceMeters>NAN</DistanceMeters>
          </Trackpoint>
          <Trackpoint>
            <Time>2022-07-07T08:13:07.000Z</Time>
            <Position>
              <LatitudeDegrees>43.69925846345722675323486328125</LatitudeDegrees>
              <LongitudeDegrees>-1.4364199899137020111083984375</LongitudeDegrees>
            </Position>
            <AltitudeMeters>25.6000003814697265625</AltitudeMeters>
            <DistanceMeters>NAN</DistanceMeters>
          </Trackpoint>
          <Trackpoint>
            <Time>2022-07-07T08:13:11.000Z</Time>
            <Position>
              <LatitudeDegrees>43.699208088219165802001953125</LatitudeDegrees>
              <LongitudeDegrees>-1.436436586081981658935546875</LongitudeDegrees>
            </Position>
            <AltitudeMeters>25.3999996185302734375</AltitudeMeters>
            <DistanceMeters>NAN</DistanceMeters>
          </Trackpoint>
          <Trackpoint>
            <Time>2022-07-07T08:13:13.000Z</Time>
            <Position>
              <LatitudeDegrees>43.69916358031332492828369140625</LatitudeDegrees>
              <LongitudeDegrees>-1.43643868155777454376220703125</LongitudeDegrees>
            </Position>
            <AltitudeMeters>25.3999996185302734375</AltitudeMeters>
            <DistanceMeters>NAN</DistanceMeters>
          </Trackpoint>
          <Trackpoint>
            <Time>2022-07-07T08:13:19.000Z</Time>
            <Position>
              <LatitudeDegrees>43.69900348596274852752685546875</LatitudeDegrees>
              <LongitudeDegrees>-1.4365064911544322967529296875</LongitudeDegrees>
            </Position>
            <AltitudeMeters>25</AltitudeMeters>
            <DistanceMeters>NAN</DistanceMeters>
          </Trackpoint>
          <Trackpoint>
            <Time>2022-07-07T08:13:25.000Z</Time>
            <Position>
              <LatitudeDegrees>43.6988656036555767059326171875</LatitudeDegrees>
              <LongitudeDegrees>-1.43660833127796649932861328125</LongitudeDegrees>
            </Position>
            <AltitudeMeters>25</AltitudeMeters>
            <DistanceMeters>NAN</DistanceMeters>
          </Trackpoint>
          <Trackpoint>
            <Time>2022-07-07T08:13:26.000Z</Time>
            <Position>
              <LatitudeDegrees>43.69884221814572811126708984375</LatitudeDegrees>
              <LongitudeDegrees>-1.4366238377988338470458984375</LongitudeDegrees>
            </Position>
            <AltitudeMeters>25</AltitudeMeters>
            <DistanceMeters>NAN</DistanceMeters>
          </Trackpoint>
          <Trackpoint>
            <Time>2022-07-07T08:13:28.000Z</Time>
            <Position>
              <LatitudeDegrees>43.69879075326025485992431640625</LatitudeDegrees>
              <LongitudeDegrees>-1.4366587065160274505615234375</LongitudeDegrees>
            </Position>
            <AltitudeMeters>25</AltitudeMeters>
            <DistanceMeters>NAN</DistanceMeters>
          </Trackpoint>
          <Trackpoint>
            <Time>2022-07-07T08:13:33.000Z</Time>
            <Position>
              <LatitudeDegrees>43.69865722954273223876953125</LatitudeDegrees>
              <LongitudeDegrees>-1.43671578727662563323974609375</LongitudeDegrees>
            </Position>
            <AltitudeMeters>25.3999996185302734375</AltitudeMeters>
            <DistanceMeters>NAN</DistanceMeters>
          </Trackpoint>
          <Trackpoint>
            <Time>2022-07-07T08:13:35.000Z</Time>
            <Position>
              <LatitudeDegrees>43.6986131407320499420166015625</LatitudeDegrees>
              <LongitudeDegrees>-1.4367334730923175811767578125</LongitudeDegrees>
            </Position>
            <AltitudeMeters>25.200000762939453125</AltitudeMeters>
            <DistanceMeters>NAN</DistanceMeters>
          </Trackpoint>
          <Trackpoint>
            <Time>2022-07-07T08:13:38.000Z</Time>
            <Position>
              <LatitudeDegrees>43.6985336802899837493896484375</LatitudeDegrees>
              <LongitudeDegrees>-1.43675736151635646820068359375</LongitudeDegrees>
            </Position>
            <AltitudeMeters>25.200000762939453125</AltitudeMeters>
            <DistanceMeters>NAN</DistanceMeters>
          </Trackpoint>
          <Trackpoint>
            <Time>2022-07-07T08:13:44.000Z</Time>
            <Position>
              <LatitudeDegrees>43.698396049439907073974609375</LatitudeDegrees>
              <LongitudeDegrees>-1.43677848391234874725341796875</LongitudeDegrees>
            </Position>
            <AltitudeMeters>25</AltitudeMeters>
            <DistanceMeters>NAN</DistanceMeters>
          </Trackpoint>
          <Trackpoint>
            <Time>2022-07-07T08:13:49.000Z</Time>
            <Position>
              <LatitudeDegrees>43.69829957373440265655517578125</LatitudeDegrees>
              <LongitudeDegrees>-1.43682827241718769073486328125</LongitudeDegrees>
            </Position>
            <AltitudeMeters>25</AltitudeMeters>
            <DistanceMeters>NAN</DistanceMeters>
          </Trackpoint>
          <Trackpoint>
            <Time>2022-07-07T08:13:51.000Z</Time>
            <Position>
              <LatitudeDegrees>43.6982631124556064605712890625</LatitudeDegrees>
              <LongitudeDegrees>-1.43686682917177677154541015625</LongitudeDegrees>
            </Position>
            <AltitudeMeters>25</AltitudeMeters>
            <DistanceMeters>NAN</DistanceMeters>
          </Trackpoint>
          <Trackpoint>
            <Time>2022-07-07T08:13:59.000Z</Time>
            <Position>
              <LatitudeDegrees>43.69811466895043849945068359375</LatitudeDegrees>
              <LongitudeDegrees>-1.43696774728596210479736328125</LongitudeDegrees>
            </Position>
            <AltitudeMeters>25.3999996185302734375</AltitudeMeters>
            <DistanceMeters>NAN</DistanceMeters>
          </Trackpoint>
          <Trackpoint>
            <Time>2022-07-07T08:14:04.000Z</Time>
            <Position>
              <LatitudeDegrees>43.6980059556663036346435546875</LatitudeDegrees>
              <LongitudeDegrees>-1.43693220801651477813720703125</LongitudeDegrees>
            </Position>
            <AltitudeMeters>25.3999996185302734375</AltitudeMeters>
            <DistanceMeters>NAN</DistanceMeters>
          </Trackpoint>
          <Trackpoint>
            <Time>2022-07-07T08:14:05.000Z</Time>
            <Position>
              <LatitudeDegrees>43.69797988794744014739990234375</LatitudeDegrees>
              <LongitudeDegrees>-1.436921395361423492431640625</LongitudeDegrees>
            </Position>
            <AltitudeMeters>25.3999996185302734375</AltitudeMeters>
            <DistanceMeters>NAN</DistanceMeters>
          </Trackpoint>
          <Trackpoint>
            <Time>2022-07-07T08:14:11.000Z</Time>
            <Position>
              <LatitudeDegrees>43.69781392626464366912841796875</LatitudeDegrees>
              <LongitudeDegrees>-1.43695601262152194976806640625</LongitudeDegrees>
            </Position>
            <AltitudeMeters>25</AltitudeMeters>
            <DistanceMeters>NAN</DistanceMeters>
          </Trackpoint>
          <Trackpoint>
            <Time>2022-07-07T08:14:15.000Z</Time>
            <Position>
              <LatitudeDegrees>43.69778559543192386627197265625</LatitudeDegrees>
              <LongitudeDegrees>-1.43704268150031566619873046875</LongitudeDegrees>
            </Position>
            <AltitudeMeters>25.200000762939453125</AltitudeMeters>
            <DistanceMeters>NAN</DistanceMeters>
          </Trackpoint>
          <Trackpoint>
            <Time>2022-07-07T08:14:20.000Z</Time>
            <Position>
              <LatitudeDegrees>43.69775734841823577880859375</LatitudeDegrees>
              <LongitudeDegrees>-1.43715642392635345458984375</LongitudeDegrees>
            </Position>
            <AltitudeMeters>26.3999996185302734375</AltitudeMeters>
            <DistanceMeters>NAN</DistanceMeters>
          </Trackpoint>
          <Trackpoint>
            <Time>2022-07-07T08:14:22.000Z</Time>
            <Position>
              <LatitudeDegrees>43.6977441050112247467041015625</LatitudeDegrees>
              <LongitudeDegrees>-1.437200345098972320556640625</LongitudeDegrees>
            </Position>
            <AltitudeMeters>26.799999237060546875</AltitudeMeters>
            <DistanceMeters>NAN</DistanceMeters>
          </Trackpoint>
          <Trackpoint>
            <Time>2022-07-07T08:14:25.000Z</Time>
            <Position>
              <LatitudeDegrees>43.6977424286305904388427734375</LatitudeDegrees>
              <LongitudeDegrees>-1.4372685737907886505126953125</LongitudeDegrees>
            </Position>
            <AltitudeMeters>27.6000003814697265625</AltitudeMeters>
            <DistanceMeters>NAN</DistanceMeters>
          </Trackpoint>
          <Trackpoint>
            <Time>2022-07-07T08:14:27.000Z</Time>
            <Position>
              <LatitudeDegrees>43.69773983024060726165771484375</LatitudeDegrees>
              <LongitudeDegrees>-1.43731509335339069366455078125</LongitudeDegrees>
            </Position>
            <AltitudeMeters>28</AltitudeMeters>
            <DistanceMeters>NAN</DistanceMeters>
          </Trackpoint>
          <Trackpoint>
            <Time>2022-07-07T08:14:28.000Z</Time>
            <Position>
              <LatitudeDegrees>43.697737567126750946044921875</LatitudeDegrees>
              <LongitudeDegrees>-1.43734174780547618865966796875</LongitudeDegrees>
            </Position>
            <AltitudeMeters>28.200000762939453125</AltitudeMeters>
            <DistanceMeters>NAN</DistanceMeters>
          </Trackpoint>
          <Trackpoint>
            <Time>2022-07-07T08:14:33.000Z</Time>
            <Position>
              <LatitudeDegrees>43.69772306643426418304443359375</LatitudeDegrees>
              <LongitudeDegrees>-1.43744744360446929931640625</LongitudeDegrees>
            </Position>
            <AltitudeMeters>29</AltitudeMeters>
            <DistanceMeters>NAN</DistanceMeters>
          </Trackpoint>
          <Trackpoint>
            <Time>2022-07-07T08:14:36.000Z</Time>
            <Position>
              <LatitudeDegrees>43.69772574864327907562255859375</LatitudeDegrees>
              <LongitudeDegrees>-1.43752011470496654510498046875</LongitudeDegrees>
            </Position>
            <AltitudeMeters>29.3999996185302734375</AltitudeMeters>
            <DistanceMeters>NAN</DistanceMeters>
          </Trackpoint>
          <Trackpoint>
            <Time>2022-07-07T08:14:40.000Z</Time>
            <Position>
              <LatitudeDegrees>43.69772608391940593719482421875</LatitudeDegrees>
              <LongitudeDegrees>-1.4376303367316722869873046875</LongitudeDegrees>
            </Position>
            <AltitudeMeters>30.200000762939453125</AltitudeMeters>
            <DistanceMeters>NAN</DistanceMeters>
          </Trackpoint>
          <Trackpoint>
            <Time>2022-07-07T08:14:45.000Z</Time>
            <Position>
              <LatitudeDegrees>43.69773614220321178436279296875</LatitudeDegrees>
              <LongitudeDegrees>-1.43776972778141498565673828125</LongitudeDegrees>
            </Position>
            <AltitudeMeters>30.6000003814697265625</AltitudeMeters>
            <DistanceMeters>NAN</DistanceMeters>
          </Trackpoint>
          <Trackpoint>
            <Time>2022-07-07T08:14:48.000Z</Time>
            <Position>
              <LatitudeDegrees>43.697731196880340576171875</LatitudeDegrees>
              <LongitudeDegrees>-1.43785119988024234771728515625</LongitudeDegrees>
            </Position>
            <AltitudeMeters>30.799999237060546875</AltitudeMeters>
            <DistanceMeters>NAN</DistanceMeters>
          </Trackpoint>
          <Trackpoint>
            <Time>2022-07-07T08:14:52.000Z</Time>
            <Position>
              <LatitudeDegrees>43.697736226022243499755859375</LatitudeDegrees>
              <LongitudeDegrees>-1.4379535429179668426513671875</LongitudeDegrees>
            </Position>
            <AltitudeMeters>31.200000762939453125</AltitudeMeters>
            <DistanceMeters>NAN</DistanceMeters>
          </Trackpoint>
          <Trackpoint>
            <Time>2022-07-07T08:14:54.000Z</Time>
            <Position>
              <LatitudeDegrees>43.6977410875260829925537109375</LatitudeDegrees>
              <LongitudeDegrees>-1.4380045048892498016357421875</LongitudeDegrees>
            </Position>
            <AltitudeMeters>31</AltitudeMeters>
            <DistanceMeters>NAN</DistanceMeters>
          </Trackpoint>
          <Trackpoint>
            <Time>2022-07-07T08:15:01.000Z</Time>
            <Position>
              <LatitudeDegrees>43.69773698039352893829345703125</LatitudeDegrees>
              <LongitudeDegrees>-1.4381731487810611724853515625</LongitudeDegrees>
            </Position>
            <AltitudeMeters>30</AltitudeMeters>
            <DistanceMeters>NAN</DistanceMeters>
          </Trackpoint>
          <Trackpoint>
            <Time>2022-07-07T08:15:03.000Z</Time>
            <Position>
              <LatitudeDegrees>43.6977387405931949615478515625</LatitudeDegrees>
              <LongitudeDegrees>-1.4382036589086055755615234375</LongitudeDegrees>
            </Position>
            <AltitudeMeters>29.799999237060546875</AltitudeMeters>
            <DistanceMeters>NAN</DistanceMeters>
          </Trackpoint>
          <Trackpoint>
            <Time>2022-07-07T08:15:06.000Z</Time>
            <Position>
              <LatitudeDegrees>43.6977082304656505584716796875</LatitudeDegrees>
              <LongitudeDegrees>-1.43822972662746906280517578125</LongitudeDegrees>
            </Position>
            <AltitudeMeters>29.3999996185302734375</AltitudeMeters>
            <DistanceMeters>NAN</DistanceMeters>
          </Trackpoint>
          <Trackpoint>
            <Time>2022-07-07T08:15:11.000Z</Time>
            <Position>
              <LatitudeDegrees>43.6976633034646511077880859375</LatitudeDegrees>
              <LongitudeDegrees>-1.4383377693593502044677734375</LongitudeDegrees>
            </Position>
            <AltitudeMeters>29.3999996185302734375</AltitudeMeters>
            <DistanceMeters>NAN</DistanceMeters>
          </Trackpoint>
          <Trackpoint>
            <Time>2022-07-07T08:15:12.000Z</Time>
            <Position>
              <LatitudeDegrees>43.6976601183414459228515625</LatitudeDegrees>
              <LongitudeDegrees>-1.43835780210793018341064453125</LongitudeDegrees>
            </Position>
            <AltitudeMeters>29.3999996185302734375</AltitudeMeters>
            <DistanceMeters>NAN</DistanceMeters>
          </Trackpoint>
          <Trackpoint>
            <Time>2022-07-07T08:15:18.000Z</Time>
            <Position>
              <LatitudeDegrees>43.697648383677005767822265625</LatitudeDegrees>
              <LongitudeDegrees>-1.43843642435967922210693359375</LongitudeDegrees>
            </Position>
            <AltitudeMeters>29.200000762939453125</AltitudeMeters>
            <DistanceMeters>NAN</DistanceMeters>
          </Trackpoint>
          <Trackpoint>
            <Time>2022-07-07T08:15:19.000Z</Time>
            <Position>
              <LatitudeDegrees>43.697648383677005767822265625</LatitudeDegrees>
              <LongitudeDegrees>-1.43843642435967922210693359375</LongitudeDegrees>
            </Position>
            <AltitudeMeters>29.200000762939453125</AltitudeMeters>
            <DistanceMeters>NAN</DistanceMeters>
          </Trackpoint>
          <Trackpoint>
            <Time>2022-07-07T08:15:47.000Z</Time>
            <Position>
              <LatitudeDegrees>43.69769104756414890289306640625</LatitudeDegrees>
              <LongitudeDegrees>-1.4383334107697010040283203125</LongitudeDegrees>
            </Position>
            <AltitudeMeters>29.3999996185302734375</AltitudeMeters>
            <DistanceMeters>NAN</DistanceMeters>
          </Trackpoint>
          <Trackpoint>
            <Time>2022-07-07T08:15:48.000Z</Time>
            <Position>
              <LatitudeDegrees>43.69769523851573467254638671875</LatitudeDegrees>
              <LongitudeDegrees>-1.438304744660854339599609375</LongitudeDegrees>
            </Position>
            <AltitudeMeters>29.3999996185302734375</AltitudeMeters>
            <DistanceMeters>NAN</DistanceMeters>
          </Trackpoint>
          <Trackpoint>
            <Time>2022-07-07T08:15:49.000Z</Time>
            <Position>
              <LatitudeDegrees>43.69770102202892303466796875</LatitudeDegrees>
              <LongitudeDegrees>-1.43827867694199085235595703125</LongitudeDegrees>
            </Position>
            <AltitudeMeters>29.3999996185302734375</AltitudeMeters>
            <DistanceMeters>NAN</DistanceMeters>
          </Trackpoint>
          <Trackpoint>
            <Time>2022-07-07T08:15:54.000Z</Time>
            <Position>
              <LatitudeDegrees>43.69774050079286098480224609375</LatitudeDegrees>
              <LongitudeDegrees>-1.4381956122815608978271484375</LongitudeDegrees>
            </Position>
            <AltitudeMeters>29.3999996185302734375</AltitudeMeters>
            <DistanceMeters>NAN</DistanceMeters>
          </Trackpoint>
          <Trackpoint>
            <Time>2022-07-07T08:15:55.000Z</Time>
            <Position>
              <LatitudeDegrees>43.69775089435279369354248046875</LatitudeDegrees>
              <LongitudeDegrees>-1.4381949417293071746826171875</LongitudeDegrees>
            </Position>
            <AltitudeMeters>29.3999996185302734375</AltitudeMeters>
            <DistanceMeters>NAN</DistanceMeters>
          </Trackpoint>
          <Trackpoint>
            <Time>2022-07-07T08:15:57.000Z</Time>
            <Position>
              <LatitudeDegrees>43.69775927625596523284912109375</LatitudeDegrees>
              <LongitudeDegrees>-1.43820240162312984466552734375</LongitudeDegrees>
            </Position>
            <AltitudeMeters>29.6000003814697265625</AltitudeMeters>
            <DistanceMeters>NAN</DistanceMeters>
          </Trackpoint>
          <Trackpoint>
            <Time>2022-07-07T08:15:59.000Z</Time>
            <Position>
              <LatitudeDegrees>43.6977652274072170257568359375</LatitudeDegrees>
              <LongitudeDegrees>-1.43824271857738494873046875</LongitudeDegrees>
            </Position>
            <AltitudeMeters>29.799999237060546875</AltitudeMeters>
            <DistanceMeters>NAN</DistanceMeters>
          </Trackpoint>
          <Trackpoint>
            <Time>2022-07-07T08:16:05.000Z</Time>
            <Position>
              <LatitudeDegrees>43.6977834999561309814453125</LatitudeDegrees>
              <LongitudeDegrees>-1.43843390978872776031494140625</LongitudeDegrees>
            </Position>
            <AltitudeMeters>29</AltitudeMeters>
            <DistanceMeters>NAN</DistanceMeters>
          </Trackpoint>
          <Trackpoint>
            <Time>2022-07-07T08:16:06.000Z</Time>
            <Position>
              <LatitudeDegrees>43.69778492487967014312744140625</LatitudeDegrees>
              <LongitudeDegrees>-1.4384588040411472320556640625</LongitudeDegrees>
            </Position>
            <AltitudeMeters>28.6000003814697265625</AltitudeMeters>
            <DistanceMeters>NAN</DistanceMeters>
          </Trackpoint>
          <Trackpoint>
            <Time>2022-07-07T08:16:08.000Z</Time>
            <Position>
              <LatitudeDegrees>43.69779062457382678985595703125</LatitudeDegrees>
              <LongitudeDegrees>-1.43848143517971038818359375</LongitudeDegrees>
            </Position>
            <AltitudeMeters>27.3999996185302734375</AltitudeMeters>
            <DistanceMeters>NAN</DistanceMeters>
          </Trackpoint>
          <Trackpoint>
            <Time>2022-07-07T08:16:10.000Z</Time>
            <Position>
              <LatitudeDegrees>43.69778341613709926605224609375</LatitudeDegrees>
              <LongitudeDegrees>-1.43850113265216350555419921875</LongitudeDegrees>
            </Position>
            <AltitudeMeters>27</AltitudeMeters>
            <DistanceMeters>NAN</DistanceMeters>
          </Trackpoint>
          <Trackpoint>
            <Time>2022-07-07T08:16:11.000Z</Time>
            <Position>
              <LatitudeDegrees>43.69778014719486236572265625</LatitudeDegrees>
              <LongitudeDegrees>-1.4385094307363033294677734375</LongitudeDegrees>
            </Position>
            <AltitudeMeters>27</AltitudeMeters>
            <DistanceMeters>NAN</DistanceMeters>
          </Trackpoint>
          <Trackpoint>
            <Time>2022-07-07T08:16:14.000Z</Time>
            <Position>
              <LatitudeDegrees>43.69777805171906948089599609375</LatitudeDegrees>
              <LongitudeDegrees>-1.438514292240142822265625</LongitudeDegrees>
            </Position>
            <AltitudeMeters>26.6000003814697265625</AltitudeMeters>
            <DistanceMeters>NAN</DistanceMeters>
          </Trackpoint>
          <Trackpoint>
            <Time>2022-07-07T08:59:53.000Z</Time>
            <Position>
              <LatitudeDegrees>43.697720132768154144287109375</LatitudeDegrees>
              <LongitudeDegrees>-1.437914483249187469482421875</LongitudeDegrees>
            </Position>
            <AltitudeMeters>28.200000762939453125</AltitudeMeters>
            <DistanceMeters>NAN</DistanceMeters>
          </Trackpoint>
          <Trackpoint>
            <Time>2022-07-07T08:59:55.000Z</Time>
            <Position>
              <LatitudeDegrees>43.697711415588855743408203125</LatitudeDegrees>
              <LongitudeDegrees>-1.43787860870361328125</LongitudeDegrees>
            </Position>
            <AltitudeMeters>28.3999996185302734375</AltitudeMeters>
            <DistanceMeters>NAN</DistanceMeters>
          </Trackpoint>
          <Trackpoint>
            <Time>2022-07-07T08:59:58.000Z</Time>
            <Position>
              <LatitudeDegrees>43.69771032594144344329833984375</LatitudeDegrees>
              <LongitudeDegrees>-1.4378107152879238128662109375</LongitudeDegrees>
            </Position>
            <AltitudeMeters>28.200000762939453125</AltitudeMeters>
            <DistanceMeters>NAN</DistanceMeters>
          </Trackpoint>
          <Trackpoint>
            <Time>2022-07-07T09:00:01.000Z</Time>
            <Position>
              <LatitudeDegrees>43.6977052129805088043212890625</LatitudeDegrees>
              <LongitudeDegrees>-1.437728404998779296875</LongitudeDegrees>
            </Position>
            <AltitudeMeters>28</AltitudeMeters>
            <DistanceMeters>NAN</DistanceMeters>
          </Trackpoint>
          <Trackpoint>
            <Time>2022-07-07T09:00:06.000Z</Time>
            <Position>
              <LatitudeDegrees>43.697706721723079681396484375</LatitudeDegrees>
              <LongitudeDegrees>-1.437570154666900634765625</LongitudeDegrees>
            </Position>
            <AltitudeMeters>27.799999237060546875</AltitudeMeters>
            <DistanceMeters>NAN</DistanceMeters>
          </Trackpoint>
          <Trackpoint>
            <Time>2022-07-07T09:00:12.000Z</Time>
            <Position>
              <LatitudeDegrees>43.69771384634077548980712890625</LatitudeDegrees>
              <LongitudeDegrees>-1.437330432236194610595703125</LongitudeDegrees>
            </Position>
            <AltitudeMeters>26.799999237060546875</AltitudeMeters>
            <DistanceMeters>NAN</DistanceMeters>
          </Trackpoint>
          <Trackpoint>
            <Time>2022-07-07T09:00:14.000Z</Time>
            <Position>
              <LatitudeDegrees>43.69771979749202728271484375</LatitudeDegrees>
              <LongitudeDegrees>-1.43724485300481319427490234375</LongitudeDegrees>
            </Position>
            <AltitudeMeters>26.200000762939453125</AltitudeMeters>
            <DistanceMeters>NAN</DistanceMeters>
          </Trackpoint>
          <Trackpoint>
            <Time>2022-07-07T09:00:19.000Z</Time>
            <Position>
              <LatitudeDegrees>43.69775491766631603240966796875</LatitudeDegrees>
              <LongitudeDegrees>-1.43703932873904705047607421875</LongitudeDegrees>
            </Position>
            <AltitudeMeters>25</AltitudeMeters>
            <DistanceMeters>NAN</DistanceMeters>
          </Trackpoint>
          <Trackpoint>
            <Time>2022-07-07T09:00:20.000Z</Time>
            <Position>
              <LatitudeDegrees>43.69776564650237560272216796875</LatitudeDegrees>
              <LongitudeDegrees>-1.43700563348829746246337890625</LongitudeDegrees>
            </Position>
            <AltitudeMeters>24.3999996185302734375</AltitudeMeters>
            <DistanceMeters>NAN</DistanceMeters>
          </Trackpoint>
          <Trackpoint>
            <Time>2022-07-07T09:00:22.000Z</Time>
            <Position>
              <LatitudeDegrees>43.69778609834611415863037109375</LatitudeDegrees>
              <LongitudeDegrees>-1.43695014528930187225341796875</LongitudeDegrees>
            </Position>
            <AltitudeMeters>23.799999237060546875</AltitudeMeters>
            <DistanceMeters>NAN</DistanceMeters>
          </Trackpoint>
          <Trackpoint>
            <Time>2022-07-07T09:00:24.000Z</Time>
            <Position>
              <LatitudeDegrees>43.69781660847365856170654296875</LatitudeDegrees>
              <LongitudeDegrees>-1.43690287135541439056396484375</LongitudeDegrees>
            </Position>
            <AltitudeMeters>23</AltitudeMeters>
            <DistanceMeters>NAN</DistanceMeters>
          </Trackpoint>
          <Trackpoint>
            <Time>2022-07-07T09:00:25.000Z</Time>
            <Position>
              <LatitudeDegrees>43.69783102534711360931396484375</LatitudeDegrees>
              <LongitudeDegrees>-1.43688820302486419677734375</LongitudeDegrees>
            </Position>
            <AltitudeMeters>22.6000003814697265625</AltitudeMeters>
            <DistanceMeters>NAN</DistanceMeters>
          </Trackpoint>
          <Trackpoint>
            <Time>2022-07-07T09:00:28.000Z</Time>
            <Position>
              <LatitudeDegrees>43.69784242473542690277099609375</LatitudeDegrees>
              <LongitudeDegrees>-1.43687973730266094207763671875</LongitudeDegrees>
            </Position>
            <AltitudeMeters>22.200000762939453125</AltitudeMeters>
            <DistanceMeters>NAN</DistanceMeters>
          </Trackpoint>
          <Trackpoint>
            <Time>2022-07-07T09:00:43.000Z</Time>
            <Position>
              <LatitudeDegrees>43.6978192068636417388916015625</LatitudeDegrees>
              <LongitudeDegrees>-1.43680614419281482696533203125</LongitudeDegrees>
            </Position>
            <AltitudeMeters>21.6000003814697265625</AltitudeMeters>
            <DistanceMeters>NAN</DistanceMeters>
          </Trackpoint>
          <Trackpoint>
            <Time>2022-07-07T09:00:44.000Z</Time>
            <Position>
              <LatitudeDegrees>43.69780722074210643768310546875</LatitudeDegrees>
              <LongitudeDegrees>-1.43678225576877593994140625</LongitudeDegrees>
            </Position>
            <AltitudeMeters>21.3999996185302734375</AltitudeMeters>
            <DistanceMeters>NAN</DistanceMeters>
          </Trackpoint>
          <Trackpoint>
            <Time>2022-07-07T09:00:45.000Z</Time>
            <Position>
              <LatitudeDegrees>43.69779615662992000579833984375</LatitudeDegrees>
              <LongitudeDegrees>-1.43675811588764190673828125</LongitudeDegrees>
            </Position>
            <AltitudeMeters>21.200000762939453125</AltitudeMeters>
            <DistanceMeters>NAN</DistanceMeters>
          </Trackpoint>
          <Trackpoint>
            <Time>2022-07-07T09:00:48.000Z</Time>
            <Position>
              <LatitudeDegrees>43.69774921797215938568115234375</LatitudeDegrees>
              <LongitudeDegrees>-1.4366861991584300994873046875</LongitudeDegrees>
            </Position>
            <AltitudeMeters>21.200000762939453125</AltitudeMeters>
            <DistanceMeters>NAN</DistanceMeters>
          </Trackpoint>
          <Trackpoint>
            <Time>2022-07-07T09:00:51.000Z</Time>
            <Position>
              <LatitudeDegrees>43.6977213062345981597900390625</LatitudeDegrees>
              <LongitudeDegrees>-1.43659978173673152923583984375</LongitudeDegrees>
            </Position>
            <AltitudeMeters>21</AltitudeMeters>
            <DistanceMeters>NAN</DistanceMeters>
          </Trackpoint>
          <Trackpoint>
            <Time>2022-07-07T09:00:52.000Z</Time>
            <Position>
              <LatitudeDegrees>43.69772591628134250640869140625</LatitudeDegrees>
              <LongitudeDegrees>-1.43657228909432888031005859375</LongitudeDegrees>
            </Position>
            <AltitudeMeters>20.799999237060546875</AltitudeMeters>
            <DistanceMeters>NAN</DistanceMeters>
          </Trackpoint>
          <Trackpoint>
            <Time>2022-07-07T09:00:56.000Z</Time>
            <Position>
              <LatitudeDegrees>43.69776212610304355621337890625</LatitudeDegrees>
              <LongitudeDegrees>-1.436478160321712493896484375</LongitudeDegrees>
            </Position>
            <AltitudeMeters>20.799999237060546875</AltitudeMeters>
            <DistanceMeters>NAN</DistanceMeters>
          </Trackpoint>
          <Trackpoint>
            <Time>2022-07-07T09:00:58.000Z</Time>
            <Position>
              <LatitudeDegrees>43.69778023101389408111572265625</LatitudeDegrees>
              <LongitudeDegrees>-1.43643583171069622039794921875</LongitudeDegrees>
            </Position>
            <AltitudeMeters>20.799999237060546875</AltitudeMeters>
            <DistanceMeters>NAN</DistanceMeters>
          </Trackpoint>
          <Trackpoint>
            <Time>2022-07-07T09:01:00.000Z</Time>
            <Position>
              <LatitudeDegrees>43.69779079221189022064208984375</LatitudeDegrees>
              <LongitudeDegrees>-1.436408422887325286865234375</LongitudeDegrees>
            </Position>
            <AltitudeMeters>20.799999237060546875</AltitudeMeters>
            <DistanceMeters>NAN</DistanceMeters>
          </Trackpoint>
          <Trackpoint>
            <Time>2022-07-07T09:01:01.000Z</Time>
            <Position>
              <LatitudeDegrees>43.69778928346931934356689453125</LatitudeDegrees>
              <LongitudeDegrees>-1.43640498630702495574951171875</LongitudeDegrees>
            </Position>
            <AltitudeMeters>20.799999237060546875</AltitudeMeters>
            <DistanceMeters>NAN</DistanceMeters>
          </Trackpoint>
          <Trackpoint>
            <Time>2022-07-07T09:01:02.000Z</Time>
            <Position>
              <LatitudeDegrees>43.69778928346931934356689453125</LatitudeDegrees>
              <LongitudeDegrees>-1.43640498630702495574951171875</LongitudeDegrees>
            </Position>
            <AltitudeMeters>20.799999237060546875</AltitudeMeters>
            <DistanceMeters>NAN</DistanceMeters>
          </Trackpoint>
          <Trackpoint>
            <Time>2022-07-07T09:02:50.000Z</Time>
            <Position>
              <LatitudeDegrees>43.697757683694362640380859375</LatitudeDegrees>
              <LongitudeDegrees>-1.4364927448332309722900390625</LongitudeDegrees>
            </Position>
            <AltitudeMeters>21.3999996185302734375</AltitudeMeters>
            <DistanceMeters>NAN</DistanceMeters>
          </Trackpoint>
          <Trackpoint>
            <Time>2022-07-07T09:02:51.000Z</Time>
            <Position>
              <LatitudeDegrees>43.697746954858303070068359375</LatitudeDegrees>
              <LongitudeDegrees>-1.43652333877980709075927734375</LongitudeDegrees>
            </Position>
            <AltitudeMeters>21.3999996185302734375</AltitudeMeters>
            <DistanceMeters>NAN</DistanceMeters>
          </Trackpoint>
          <Trackpoint>
            <Time>2022-07-07T09:02:52.000Z</Time>
            <Position>
              <LatitudeDegrees>43.69773454964160919189453125</LatitudeDegrees>
              <LongitudeDegrees>-1.43655133433640003204345703125</LongitudeDegrees>
            </Position>
            <AltitudeMeters>21.3999996185302734375</AltitudeMeters>
            <DistanceMeters>NAN</DistanceMeters>
          </Trackpoint>
          <Trackpoint>
            <Time>2022-07-07T09:02:58.000Z</Time>
            <Position>
              <LatitudeDegrees>43.697634637355804443359375</LatitudeDegrees>
              <LongitudeDegrees>-1.4367421902716159820556640625</LongitudeDegrees>
            </Position>
            <AltitudeMeters>21.6000003814697265625</AltitudeMeters>
            <DistanceMeters>NAN</DistanceMeters>
          </Trackpoint>
          <Trackpoint>
            <Time>2022-07-07T09:03:04.000Z</Time>
            <Position>
              <LatitudeDegrees>43.69744780473411083221435546875</LatitudeDegrees>
              <LongitudeDegrees>-1.4368397556245326995849609375</LongitudeDegrees>
            </Position>
            <AltitudeMeters>21.3999996185302734375</AltitudeMeters>
            <DistanceMeters>NAN</DistanceMeters>
          </Trackpoint>
          <Trackpoint>
            <Time>2022-07-07T09:03:06.000Z</Time>
            <Position>
              <LatitudeDegrees>43.697385527193546295166015625</LatitudeDegrees>
              <LongitudeDegrees>-1.4368472993373870849609375</LongitudeDegrees>
            </Position>
            <AltitudeMeters>21.3999996185302734375</AltitudeMeters>
            <DistanceMeters>NAN</DistanceMeters>
          </Trackpoint>
          <Trackpoint>
            <Time>2022-07-07T09:03:09.000Z</Time>
            <Position>
              <LatitudeDegrees>43.69728871621191501617431640625</LatitudeDegrees>
              <LongitudeDegrees>-1.436838246881961822509765625</LongitudeDegrees>
            </Position>
            <AltitudeMeters>21.3999996185302734375</AltitudeMeters>
            <DistanceMeters>NAN</DistanceMeters>
          </Trackpoint>
          <Trackpoint>
            <Time>2022-07-07T09:03:11.000Z</Time>
            <Position>
              <LatitudeDegrees>43.69722736068069934844970703125</LatitudeDegrees>
              <LongitudeDegrees>-1.43683766014873981475830078125</LongitudeDegrees>
            </Position>
            <AltitudeMeters>21.3999996185302734375</AltitudeMeters>
            <DistanceMeters>NAN</DistanceMeters>
          </Trackpoint>
          <Trackpoint>
            <Time>2022-07-07T09:03:20.000Z</Time>
            <Position>
              <LatitudeDegrees>43.69696064852178096771240234375</LatitudeDegrees>
              <LongitudeDegrees>-1.4368286915123462677001953125</LongitudeDegrees>
            </Position>
            <AltitudeMeters>21.6000003814697265625</AltitudeMeters>
            <DistanceMeters>NAN</DistanceMeters>
          </Trackpoint>
          <Trackpoint>
            <Time>2022-07-07T09:03:28.000Z</Time>
            <Position>
              <LatitudeDegrees>43.69674422778189182281494140625</LatitudeDegrees>
              <LongitudeDegrees>-1.43681033514440059661865234375</LongitudeDegrees>
            </Position>
            <AltitudeMeters>21.799999237060546875</AltitudeMeters>
            <DistanceMeters>NAN</DistanceMeters>
          </Trackpoint>
          <Trackpoint>
            <Time>2022-07-07T09:03:34.000Z</Time>
            <Position>
              <LatitudeDegrees>43.69662101380527019500732421875</LatitudeDegrees>
              <LongitudeDegrees>-1.4367239177227020263671875</LongitudeDegrees>
            </Position>
            <AltitudeMeters>21.6000003814697265625</AltitudeMeters>
            <DistanceMeters>NAN</DistanceMeters>
          </Trackpoint>
          <Trackpoint>
            <Time>2022-07-07T09:03:42.000Z</Time>
            <Position>
              <LatitudeDegrees>43.696473576128482818603515625</LatitudeDegrees>
              <LongitudeDegrees>-1.43646634183824062347412109375</LongitudeDegrees>
            </Position>
            <AltitudeMeters>22.3999996185302734375</AltitudeMeters>
            <DistanceMeters>NAN</DistanceMeters>
          </Trackpoint>
          <Trackpoint>
            <Time>2022-07-07T09:03:48.000Z</Time>
            <Position>
              <LatitudeDegrees>43.69636385701596736907958984375</LatitudeDegrees>
              <LongitudeDegrees>-1.4362557046115398406982421875</LongitudeDegrees>
            </Position>
            <AltitudeMeters>22.6000003814697265625</AltitudeMeters>
            <DistanceMeters>NAN</DistanceMeters>
          </Trackpoint>
          <Trackpoint>
            <Time>2022-07-07T09:03:52.000Z</Time>
            <Position>
              <LatitudeDegrees>43.6962900124490261077880859375</LatitudeDegrees>
              <LongitudeDegrees>-1.436126120388507843017578125</LongitudeDegrees>
            </Position>
            <AltitudeMeters>22.799999237060546875</AltitudeMeters>
            <DistanceMeters>NAN</DistanceMeters>
          </Trackpoint>
          <Trackpoint>
            <Time>2022-07-07T09:03:56.000Z</Time>
            <Position>
              <LatitudeDegrees>43.69622454978525638580322265625</LatitudeDegrees>
              <LongitudeDegrees>-1.43600449897348880767822265625</LongitudeDegrees>
            </Position>
            <AltitudeMeters>22.799999237060546875</AltitudeMeters>
            <DistanceMeters>NAN</DistanceMeters>
          </Trackpoint>
          <Trackpoint>
            <Time>2022-07-07T09:03:59.000Z</Time>
            <Position>
              <LatitudeDegrees>43.69616520591080188751220703125</LatitudeDegrees>
              <LongitudeDegrees>-1.43589570187032222747802734375</LongitudeDegrees>
            </Position>
            <AltitudeMeters>22.799999237060546875</AltitudeMeters>
            <DistanceMeters>NAN</DistanceMeters>
          </Trackpoint>
          <Trackpoint>
            <Time>2022-07-07T09:04:03.000Z</Time>
            <Position>
              <LatitudeDegrees>43.69608356617391109466552734375</LatitudeDegrees>
              <LongitudeDegrees>-1.43575966358184814453125</LongitudeDegrees>
            </Position>
            <AltitudeMeters>22.799999237060546875</AltitudeMeters>
            <DistanceMeters>NAN</DistanceMeters>
          </Trackpoint>
          <Trackpoint>
            <Time>2022-07-07T09:04:09.000Z</Time>
            <Position>
              <LatitudeDegrees>43.695957921445369720458984375</LatitudeDegrees>
              <LongitudeDegrees>-1.43561440519988536834716796875</LongitudeDegrees>
            </Position>
            <AltitudeMeters>23.200000762939453125</AltitudeMeters>
            <DistanceMeters>NAN</DistanceMeters>
          </Trackpoint>
          <Trackpoint>
            <Time>2022-07-07T09:04:10.000Z</Time>
            <Position>
              <LatitudeDegrees>43.695927746593952178955078125</LatitudeDegrees>
              <LongitudeDegrees>-1.43561976961791515350341796875</LongitudeDegrees>
            </Position>
            <AltitudeMeters>23.3999996185302734375</AltitudeMeters>
            <DistanceMeters>NAN</DistanceMeters>
          </Trackpoint>
          <Trackpoint>
            <Time>2022-07-07T09:04:12.000Z</Time>
            <Position>
              <LatitudeDegrees>43.6958789639174938201904296875</LatitudeDegrees>
              <LongitudeDegrees>-1.43566637299954891204833984375</LongitudeDegrees>
            </Position>
            <AltitudeMeters>23.6000003814697265625</AltitudeMeters>
            <DistanceMeters>NAN</DistanceMeters>
          </Trackpoint>
          <Trackpoint>
            <Time>2022-07-07T09:04:21.000Z</Time>
            <Position>
              <LatitudeDegrees>43.6957181990146636962890625</LatitudeDegrees>
              <LongitudeDegrees>-1.43592101521790027618408203125</LongitudeDegrees>
            </Position>
            <AltitudeMeters>23.6000003814697265625</AltitudeMeters>
            <DistanceMeters>NAN</DistanceMeters>
          </Trackpoint>
          <Trackpoint>
            <Time>2022-07-07T09:04:23.000Z</Time>
            <Position>
              <LatitudeDegrees>43.6956808157265186309814453125</LatitudeDegrees>
              <LongitudeDegrees>-1.43597667105495929718017578125</LongitudeDegrees>
            </Position>
            <AltitudeMeters>23.6000003814697265625</AltitudeMeters>
            <DistanceMeters>NAN</DistanceMeters>
          </Trackpoint>
          <Trackpoint>
            <Time>2022-07-07T09:04:29.000Z</Time>
            <Position>
              <LatitudeDegrees>43.695535473525524139404296875</LatitudeDegrees>
              <LongitudeDegrees>-1.43612737767398357391357421875</LongitudeDegrees>
            </Position>
            <AltitudeMeters>24.6000003814697265625</AltitudeMeters>
            <DistanceMeters>NAN</DistanceMeters>
          </Trackpoint>
          <Trackpoint>
            <Time>2022-07-07T09:04:31.000Z</Time>
            <Position>
              <LatitudeDegrees>43.695467747747898101806640625</LatitudeDegrees>
              <LongitudeDegrees>-1.43617230467498302459716796875</LongitudeDegrees>
            </Position>
            <AltitudeMeters>24.6000003814697265625</AltitudeMeters>
            <DistanceMeters>NAN</DistanceMeters>
          </Trackpoint>
          <Trackpoint>
            <Time>2022-07-07T09:04:37.000Z</Time>
            <Position>
              <LatitudeDegrees>43.695258200168609619140625</LatitudeDegrees>
              <LongitudeDegrees>-1.43626601435244083404541015625</LongitudeDegrees>
            </Position>
            <AltitudeMeters>23.6000003814697265625</AltitudeMeters>
            <DistanceMeters>NAN</DistanceMeters>
          </Trackpoint>
          <Trackpoint>
            <Time>2022-07-07T09:04:44.000Z</Time>
            <Position>
              <LatitudeDegrees>43.694940023124217987060546875</LatitudeDegrees>
              <LongitudeDegrees>-1.43630054779350757598876953125</LongitudeDegrees>
            </Position>
            <AltitudeMeters>23</AltitudeMeters>
            <DistanceMeters>NAN</DistanceMeters>
          </Trackpoint>
          <Trackpoint>
            <Time>2022-07-07T09:04:48.000Z</Time>
            <Position>
              <LatitudeDegrees>43.69471228681504726409912109375</LatitudeDegrees>
              <LongitudeDegrees>-1.4362704567611217498779296875</LongitudeDegrees>
            </Position>
            <AltitudeMeters>22.6000003814697265625</AltitudeMeters>
            <DistanceMeters>NAN</DistanceMeters>
          </Trackpoint>
          <Trackpoint>
            <Time>2022-07-07T09:04:50.000Z</Time>
            <Position>
              <LatitudeDegrees>43.694606088101863861083984375</LatitudeDegrees>
              <LongitudeDegrees>-1.43622611649334430694580078125</LongitudeDegrees>
            </Position>
            <AltitudeMeters>22.200000762939453125</AltitudeMeters>
            <DistanceMeters>NAN</DistanceMeters>
          </Trackpoint>
          <Trackpoint>
            <Time>2022-07-07T09:04:55.000Z</Time>
            <Position>
              <LatitudeDegrees>43.69430576451122760772705078125</LatitudeDegrees>
              <LongitudeDegrees>-1.43605764023959636688232421875</LongitudeDegrees>
            </Position>
            <AltitudeMeters>21.200000762939453125</AltitudeMeters>
            <DistanceMeters>NAN</DistanceMeters>
          </Trackpoint>
          <Trackpoint>
            <Time>2022-07-07T09:04:57.000Z</Time>
            <Position>
              <LatitudeDegrees>43.6941821314394474029541015625</LatitudeDegrees>
              <LongitudeDegrees>-1.4359889924526214599609375</LongitudeDegrees>
            </Position>
            <AltitudeMeters>20</AltitudeMeters>
            <DistanceMeters>NAN</DistanceMeters>
          </Trackpoint>
          <Trackpoint>
            <Time>2022-07-07T09:05:00.000Z</Time>
            <Position>
              <LatitudeDegrees>43.693931512534618377685546875</LatitudeDegrees>
              <LongitudeDegrees>-1.4358852244913578033447265625</LongitudeDegrees>
            </Position>
            <AltitudeMeters>18.799999237060546875</AltitudeMeters>
            <DistanceMeters>NAN</DistanceMeters>
          </Trackpoint>
          <Trackpoint>
            <Time>2022-07-07T09:05:01.000Z</Time>
            <Position>
              <LatitudeDegrees>43.69385314173996448516845703125</LatitudeDegrees>
              <LongitudeDegrees>-1.43586485646665096282958984375</LongitudeDegrees>
            </Position>
            <AltitudeMeters>18.3999996185302734375</AltitudeMeters>
            <DistanceMeters>NAN</DistanceMeters>
          </Trackpoint>
          <Trackpoint>
            <Time>2022-07-07T09:05:06.000Z</Time>
            <Position>
              <LatitudeDegrees>43.69351677596569061279296875</LatitudeDegrees>
              <LongitudeDegrees>-1.43584038130939006805419921875</LongitudeDegrees>
            </Position>
            <AltitudeMeters>18</AltitudeMeters>
            <DistanceMeters>NAN</DistanceMeters>
          </Trackpoint>
          <Trackpoint>
            <Time>2022-07-07T09:05:11.000Z</Time>
            <Position>
              <LatitudeDegrees>43.69329222477972507476806640625</LatitudeDegrees>
              <LongitudeDegrees>-1.43589335493743419647216796875</LongitudeDegrees>
            </Position>
            <AltitudeMeters>18.799999237060546875</AltitudeMeters>
            <DistanceMeters>NAN</DistanceMeters>
          </Trackpoint>
          <Trackpoint>
            <Time>2022-07-07T09:05:18.000Z</Time>
            <Position>
              <LatitudeDegrees>43.69308250956237316131591796875</LatitudeDegrees>
              <LongitudeDegrees>-1.43598287366330623626708984375</LongitudeDegrees>
            </Position>
            <AltitudeMeters>19.799999237060546875</AltitudeMeters>
            <DistanceMeters>NAN</DistanceMeters>
          </Trackpoint>
          <Trackpoint>
            <Time>2022-07-07T09:05:19.000Z</Time>
            <Position>
              <LatitudeDegrees>43.6930482275784015655517578125</LatitudeDegrees>
              <LongitudeDegrees>-1.43599494360387325286865234375</LongitudeDegrees>
            </Position>
            <AltitudeMeters>19.799999237060546875</AltitudeMeters>
            <DistanceMeters>NAN</DistanceMeters>
          </Trackpoint>
          <Trackpoint>
            <Time>2022-07-07T09:05:22.000Z</Time>
            <Position>
              <LatitudeDegrees>43.6929701082408428192138671875</LatitudeDegrees>
              <LongitudeDegrees>-1.43602453172206878662109375</LongitudeDegrees>
            </Position>
            <AltitudeMeters>20</AltitudeMeters>
            <DistanceMeters>NAN</DistanceMeters>
          </Trackpoint>
          <Trackpoint>
            <Time>2022-07-07T09:05:25.000Z</Time>
            <Position>
              <LatitudeDegrees>43.6928829364478588104248046875</LatitudeDegrees>
              <LongitudeDegrees>-1.4360515214502811431884765625</LongitudeDegrees>
            </Position>
            <AltitudeMeters>20.3999996185302734375</AltitudeMeters>
            <DistanceMeters>NAN</DistanceMeters>
          </Trackpoint>
          <Trackpoint>
            <Time>2022-07-07T09:05:27.000Z</Time>
            <Position>
              <LatitudeDegrees>43.69282971136271953582763671875</LatitudeDegrees>
              <LongitudeDegrees>-1.4360568858683109283447265625</LongitudeDegrees>
            </Position>
            <AltitudeMeters>20.3999996185302734375</AltitudeMeters>
            <DistanceMeters>NAN</DistanceMeters>
          </Trackpoint>
          <Trackpoint>
            <Time>2022-07-07T09:05:36.000Z</Time>
            <Position>
              <LatitudeDegrees>43.692552186548709869384765625</LatitudeDegrees>
              <LongitudeDegrees>-1.43606451340019702911376953125</LongitudeDegrees>
            </Position>
            <AltitudeMeters>20.799999237060546875</AltitudeMeters>
            <DistanceMeters>NAN</DistanceMeters>
          </Trackpoint>
          <Trackpoint>
            <Time>2022-07-07T09:05:41.000Z</Time>
            <Position>
              <LatitudeDegrees>43.69234993122518062591552734375</LatitudeDegrees>
              <LongitudeDegrees>-1.43603132106363773345947265625</LongitudeDegrees>
            </Position>
            <AltitudeMeters>20.3999996185302734375</AltitudeMeters>
            <DistanceMeters>NAN</DistanceMeters>
          </Trackpoint>
          <Trackpoint>
            <Time>2022-07-07T09:05:43.000Z</Time>
            <Position>
              <LatitudeDegrees>43.69226527400314807891845703125</LatitudeDegrees>
              <LongitudeDegrees>-1.43601003102958202362060546875</LongitudeDegrees>
            </Position>
            <AltitudeMeters>20</AltitudeMeters>
            <DistanceMeters>NAN</DistanceMeters>
          </Trackpoint>
          <Trackpoint>
            <Time>2022-07-07T09:05:44.000Z</Time>
            <Position>
              <LatitudeDegrees>43.69220777414739131927490234375</LatitudeDegrees>
              <LongitudeDegrees>-1.43599377013742923736572265625</LongitudeDegrees>
            </Position>
            <AltitudeMeters>20</AltitudeMeters>
            <DistanceMeters>NAN</DistanceMeters>
          </Trackpoint>
          <Trackpoint>
            <Time>2022-07-07T09:05:53.000Z</Time>
            <Position>
              <LatitudeDegrees>43.6917906068265438079833984375</LatitudeDegrees>
              <LongitudeDegrees>-1.43589234910905361175537109375</LongitudeDegrees>
            </Position>
            <AltitudeMeters>19.6000003814697265625</AltitudeMeters>
            <DistanceMeters>NAN</DistanceMeters>
          </Trackpoint>
          <Trackpoint>
            <Time>2022-07-07T09:05:55.000Z</Time>
            <Position>
              <LatitudeDegrees>43.691703937947750091552734375</LatitudeDegrees>
              <LongitudeDegrees>-1.43588279373943805694580078125</LongitudeDegrees>
            </Position>
            <AltitudeMeters>19.6000003814697265625</AltitudeMeters>
            <DistanceMeters>NAN</DistanceMeters>
          </Trackpoint>
          <Trackpoint>
            <Time>2022-07-07T09:05:57.000Z</Time>
            <Position>
              <LatitudeDegrees>43.69160838425159454345703125</LatitudeDegrees>
              <LongitudeDegrees>-1.43588849343359470367431640625</LongitudeDegrees>
            </Position>
            <AltitudeMeters>19.6000003814697265625</AltitudeMeters>
            <DistanceMeters>NAN</DistanceMeters>
          </Trackpoint>
          <Trackpoint>
            <Time>2022-07-07T09:05:58.000Z</Time>
            <Position>
              <LatitudeDegrees>43.69155339896678924560546875</LatitudeDegrees>
              <LongitudeDegrees>-1.43590156920254230499267578125</LongitudeDegrees>
            </Position>
            <AltitudeMeters>19.6000003814697265625</AltitudeMeters>
            <DistanceMeters>NAN</DistanceMeters>
          </Trackpoint>
          <Trackpoint>
            <Time>2022-07-07T09:05:59.000Z</Time>
            <Position>
              <LatitudeDegrees>43.6915156804025173187255859375</LatitudeDegrees>
              <LongitudeDegrees>-1.435928307473659515380859375</LongitudeDegrees>
            </Position>
            <AltitudeMeters>19.3999996185302734375</AltitudeMeters>
            <DistanceMeters>NAN</DistanceMeters>
          </Trackpoint>
          <Trackpoint>
            <Time>2022-07-07T09:06:01.000Z</Time>
            <Position>
              <LatitudeDegrees>43.69146287441253662109375</LatitudeDegrees>
              <LongitudeDegrees>-1.43599108792841434478759765625</LongitudeDegrees>
            </Position>
            <AltitudeMeters>19.3999996185302734375</AltitudeMeters>
            <DistanceMeters>NAN</DistanceMeters>
          </Trackpoint>
          <Trackpoint>
            <Time>2022-07-07T09:06:03.000Z</Time>
            <Position>
              <LatitudeDegrees>43.6914093978703022003173828125</LatitudeDegrees>
              <LongitudeDegrees>-1.43608060665428638458251953125</LongitudeDegrees>
            </Position>
            <AltitudeMeters>19.6000003814697265625</AltitudeMeters>
            <DistanceMeters>NAN</DistanceMeters>
          </Trackpoint>
          <Trackpoint>
            <Time>2022-07-07T09:06:06.000Z</Time>
            <Position>
              <LatitudeDegrees>43.69132800959050655364990234375</LatitudeDegrees>
              <LongitudeDegrees>-1.4361477456986904144287109375</LongitudeDegrees>
            </Position>
            <AltitudeMeters>19.6000003814697265625</AltitudeMeters>
            <DistanceMeters>NAN</DistanceMeters>
          </Trackpoint>
          <Trackpoint>
            <Time>2022-07-07T09:06:07.000Z</Time>
            <Position>
              <LatitudeDegrees>43.69129397906363010406494140625</LatitudeDegrees>
              <LongitudeDegrees>-1.43615570850670337677001953125</LongitudeDegrees>
            </Position>
            <AltitudeMeters>19.6000003814697265625</AltitudeMeters>
            <DistanceMeters>NAN</DistanceMeters>
          </Trackpoint>
          <Trackpoint>
            <Time>2022-07-07T09:06:11.000Z</Time>
            <Position>
              <LatitudeDegrees>43.6911270953714847564697265625</LatitudeDegrees>
              <LongitudeDegrees>-1.4361795969307422637939453125</LongitudeDegrees>
            </Position>
            <AltitudeMeters>19.200000762939453125</AltitudeMeters>
            <DistanceMeters>NAN</DistanceMeters>
          </Trackpoint>
          <Trackpoint>
            <Time>2022-07-07T09:06:16.000Z</Time>
            <Position>
              <LatitudeDegrees>43.69094093330204486846923828125</LatitudeDegrees>
              <LongitudeDegrees>-1.43619954586029052734375</LongitudeDegrees>
            </Position>
            <AltitudeMeters>19.200000762939453125</AltitudeMeters>
            <DistanceMeters>NAN</DistanceMeters>
          </Trackpoint>
          <Trackpoint>
            <Time>2022-07-07T09:06:19.000Z</Time>
            <Position>
              <LatitudeDegrees>43.69082073681056499481201171875</LatitudeDegrees>
              <LongitudeDegrees>-1.43622703850269317626953125</LongitudeDegrees>
            </Position>
            <AltitudeMeters>19.3999996185302734375</AltitudeMeters>
            <DistanceMeters>NAN</DistanceMeters>
          </Trackpoint>
          <Trackpoint>
            <Time>2022-07-07T09:06:20.000Z</Time>
            <Position>
              <LatitudeDegrees>43.690787963569164276123046875</LatitudeDegrees>
              <LongitudeDegrees>-1.4362459816038608551025390625</LongitudeDegrees>
            </Position>
            <AltitudeMeters>19.3999996185302734375</AltitudeMeters>
            <DistanceMeters>NAN</DistanceMeters>
          </Trackpoint>
          <Trackpoint>
            <Time>2022-07-07T09:06:21.000Z</Time>
            <Position>
              <LatitudeDegrees>43.69075753726065158843994140625</LatitudeDegrees>
              <LongitudeDegrees>-1.436266601085662841796875</LongitudeDegrees>
            </Position>
            <AltitudeMeters>19.3999996185302734375</AltitudeMeters>
            <DistanceMeters>NAN</DistanceMeters>
          </Trackpoint>
          <Trackpoint>
            <Time>2022-07-07T09:06:22.000Z</Time>
            <Position>
              <LatitudeDegrees>43.6907319724559783935546875</LatitudeDegrees>
              <LongitudeDegrees>-1.43628261052072048187255859375</LongitudeDegrees>
            </Position>
            <AltitudeMeters>19.3999996185302734375</AltitudeMeters>
            <DistanceMeters>NAN</DistanceMeters>
          </Trackpoint>
          <Trackpoint>
            <Time>2022-07-07T09:06:24.000Z</Time>
            <Position>
              <LatitudeDegrees>43.6906838603317737579345703125</LatitudeDegrees>
              <LongitudeDegrees>-1.43629199825227260589599609375</LongitudeDegrees>
            </Position>
            <AltitudeMeters>19.3999996185302734375</AltitudeMeters>
            <DistanceMeters>NAN</DistanceMeters>
          </Trackpoint>
          <Trackpoint>
            <Time>2022-07-07T09:06:25.000Z</Time>
            <Position>
              <LatitudeDegrees>43.69066785089671611785888671875</LatitudeDegrees>
              <LongitudeDegrees>-1.43627657555043697357177734375</LongitudeDegrees>
            </Position>
            <AltitudeMeters>19.200000762939453125</AltitudeMeters>
            <DistanceMeters>NAN</DistanceMeters>
          </Trackpoint>
          <Trackpoint>
            <Time>2022-07-07T09:06:29.000Z</Time>
            <Position>
              <LatitudeDegrees>43.6905343271791934967041015625</LatitudeDegrees>
              <LongitudeDegrees>-1.43620046786963939666748046875</LongitudeDegrees>
            </Position>
            <AltitudeMeters>19</AltitudeMeters>
            <DistanceMeters>NAN</DistanceMeters>
          </Trackpoint>
          <Trackpoint>
            <Time>2022-07-07T09:06:30.000Z</Time>
            <Position>
              <LatitudeDegrees>43.690500967204570770263671875</LatitudeDegrees>
              <LongitudeDegrees>-1.43620692193508148193359375</LongitudeDegrees>
            </Position>
            <AltitudeMeters>18.799999237060546875</AltitudeMeters>
            <DistanceMeters>NAN</DistanceMeters>
          </Trackpoint>
          <Trackpoint>
            <Time>2022-07-07T09:06:34.000Z</Time>
            <Position>
              <LatitudeDegrees>43.69034950621426105499267578125</LatitudeDegrees>
              <LongitudeDegrees>-1.43628696911036968231201171875</LongitudeDegrees>
            </Position>
            <AltitudeMeters>19</AltitudeMeters>
            <DistanceMeters>NAN</DistanceMeters>
          </Trackpoint>
          <Trackpoint>
            <Time>2022-07-07T09:06:35.000Z</Time>
            <Position>
              <LatitudeDegrees>43.6903135478496551513671875</LatitudeDegrees>
              <LongitudeDegrees>-1.43630406819283962249755859375</LongitudeDegrees>
            </Position>
            <AltitudeMeters>19</AltitudeMeters>
            <DistanceMeters>NAN</DistanceMeters>
          </Trackpoint>
          <Trackpoint>
            <Time>2022-07-07T09:06:41.000Z</Time>
            <Position>
              <LatitudeDegrees>43.690085895359516143798828125</LatitudeDegrees>
              <LongitudeDegrees>-1.4363676868379116058349609375</LongitudeDegrees>
            </Position>
            <AltitudeMeters>19.200000762939453125</AltitudeMeters>
            <DistanceMeters>NAN</DistanceMeters>
          </Trackpoint>
          <Trackpoint>
            <Time>2022-07-07T09:06:46.000Z</Time>
            <Position>
              <LatitudeDegrees>43.68991867639124393463134765625</LatitudeDegrees>
              <LongitudeDegrees>-1.43640280701220035552978515625</LongitudeDegrees>
            </Position>
            <AltitudeMeters>19.6000003814697265625</AltitudeMeters>
            <DistanceMeters>NAN</DistanceMeters>
          </Trackpoint>
          <Trackpoint>
            <Time>2022-07-07T09:06:48.000Z</Time>
            <Position>
              <LatitudeDegrees>43.68985556066036224365234375</LatitudeDegrees>
              <LongitudeDegrees>-1.4364112727344036102294921875</LongitudeDegrees>
            </Position>
            <AltitudeMeters>19.6000003814697265625</AltitudeMeters>
            <DistanceMeters>NAN</DistanceMeters>
          </Trackpoint>
          <Trackpoint>
            <Time>2022-07-07T09:06:52.000Z</Time>
            <Position>
              <LatitudeDegrees>43.68971466086804866790771484375</LatitudeDegrees>
              <LongitudeDegrees>-1.43645100295543670654296875</LongitudeDegrees>
            </Position>
            <AltitudeMeters>19.6000003814697265625</AltitudeMeters>
            <DistanceMeters>NAN</DistanceMeters>
          </Trackpoint>
          <Trackpoint>
            <Time>2022-07-07T09:06:54.000Z</Time>
            <Position>
              <LatitudeDegrees>43.68964475579559803009033203125</LatitudeDegrees>
              <LongitudeDegrees>-1.43646198324859142303466796875</LongitudeDegrees>
            </Position>
            <AltitudeMeters>19.3999996185302734375</AltitudeMeters>
            <DistanceMeters>NAN</DistanceMeters>
          </Trackpoint>
          <Trackpoint>
            <Time>2022-07-07T09:07:02.000Z</Time>
            <Position>
              <LatitudeDegrees>43.68932448327541351318359375</LatitudeDegrees>
              <LongitudeDegrees>-1.43652786500751972198486328125</LongitudeDegrees>
            </Position>
            <AltitudeMeters>19.200000762939453125</AltitudeMeters>
            <DistanceMeters>NAN</DistanceMeters>
          </Trackpoint>
          <Trackpoint>
            <Time>2022-07-07T09:07:03.000Z</Time>
            <Position>
              <LatitudeDegrees>43.6892807297408580780029296875</LatitudeDegrees>
              <LongitudeDegrees>-1.436534821987152099609375</LongitudeDegrees>
            </Position>
            <AltitudeMeters>19</AltitudeMeters>
            <DistanceMeters>NAN</DistanceMeters>
          </Trackpoint>
          <Trackpoint>
            <Time>2022-07-07T09:07:07.000Z</Time>
            <Position>
              <LatitudeDegrees>43.689099848270416259765625</LatitudeDegrees>
              <LongitudeDegrees>-1.43656273372471332550048828125</LongitudeDegrees>
            </Position>
            <AltitudeMeters>18.799999237060546875</AltitudeMeters>
            <DistanceMeters>NAN</DistanceMeters>
          </Trackpoint>
          <Trackpoint>
            <Time>2022-07-07T09:07:08.000Z</Time>
            <Position>
              <LatitudeDegrees>43.6890574358403682708740234375</LatitudeDegrees>
              <LongitudeDegrees>-1.43657279200851917266845703125</LongitudeDegrees>
            </Position>
            <AltitudeMeters>18.799999237060546875</AltitudeMeters>
            <DistanceMeters>NAN</DistanceMeters>
          </Trackpoint>
          <Trackpoint>
            <Time>2022-07-07T09:07:10.000Z</Time>
            <Position>
              <LatitudeDegrees>43.68897018022835254669189453125</LatitudeDegrees>
              <LongitudeDegrees>-1.4365936629474163055419921875</LongitudeDegrees>
            </Position>
            <AltitudeMeters>18.799999237060546875</AltitudeMeters>
            <DistanceMeters>NAN</DistanceMeters>
          </Trackpoint>
          <Trackpoint>
            <Time>2022-07-07T09:07:13.000Z</Time>
            <Position>
              <LatitudeDegrees>43.688838668167591094970703125</LatitudeDegrees>
              <LongitudeDegrees>-1.43662777729332447052001953125</LongitudeDegrees>
            </Position>
            <AltitudeMeters>18.799999237060546875</AltitudeMeters>
            <DistanceMeters>NAN</DistanceMeters>
          </Trackpoint>
          <Trackpoint>
            <Time>2022-07-07T09:07:17.000Z</Time>
            <Position>
              <LatitudeDegrees>43.68866222910583019256591796875</LatitudeDegrees>
              <LongitudeDegrees>-1.43667857162654399871826171875</LongitudeDegrees>
            </Position>
            <AltitudeMeters>18.799999237060546875</AltitudeMeters>
            <DistanceMeters>NAN</DistanceMeters>
          </Trackpoint>
          <Trackpoint>
            <Time>2022-07-07T09:07:19.000Z</Time>
            <Position>
              <LatitudeDegrees>43.68858662433922290802001953125</LatitudeDegrees>
              <LongitudeDegrees>-1.43669852055609226226806640625</LongitudeDegrees>
            </Position>
            <AltitudeMeters>18.799999237060546875</AltitudeMeters>
            <DistanceMeters>NAN</DistanceMeters>
          </Trackpoint>
          <Trackpoint>
            <Time>2022-07-07T09:07:23.000Z</Time>
            <Position>
              <LatitudeDegrees>43.68840448558330535888671875</LatitudeDegrees>
              <LongitudeDegrees>-1.4367606304585933685302734375</LongitudeDegrees>
            </Position>
            <AltitudeMeters>18.6000003814697265625</AltitudeMeters>
            <DistanceMeters>NAN</DistanceMeters>
          </Trackpoint>
          <Trackpoint>
            <Time>2022-07-07T09:07:25.000Z</Time>
            <Position>
              <LatitudeDegrees>43.6883194930851459503173828125</LatitudeDegrees>
              <LongitudeDegrees>-1.4367871172726154327392578125</LongitudeDegrees>
            </Position>
            <AltitudeMeters>18.3999996185302734375</AltitudeMeters>
            <DistanceMeters>NAN</DistanceMeters>
          </Trackpoint>
          <Trackpoint>
            <Time>2022-07-07T09:07:33.000Z</Time>
            <Position>
              <LatitudeDegrees>43.68798346258699893951416015625</LatitudeDegrees>
              <LongitudeDegrees>-1.4368595369160175323486328125</LongitudeDegrees>
            </Position>
            <AltitudeMeters>18.200000762939453125</AltitudeMeters>
            <DistanceMeters>NAN</DistanceMeters>
          </Trackpoint>
          <Trackpoint>
            <Time>2022-07-07T09:07:40.000Z</Time>
            <Position>
              <LatitudeDegrees>43.68769411928951740264892578125</LatitudeDegrees>
              <LongitudeDegrees>-1.436880491673946380615234375</LongitudeDegrees>
            </Position>
            <AltitudeMeters>17.799999237060546875</AltitudeMeters>
            <DistanceMeters>NAN</DistanceMeters>
          </Trackpoint>
          <Trackpoint>
            <Time>2022-07-07T09:07:41.000Z</Time>
            <Position>
              <LatitudeDegrees>43.687646090984344482421875</LatitudeDegrees>
              <LongitudeDegrees>-1.4368773065507411956787109375</LongitudeDegrees>
            </Position>
            <AltitudeMeters>17.799999237060546875</AltitudeMeters>
            <DistanceMeters>NAN</DistanceMeters>
          </Trackpoint>
          <Trackpoint>
            <Time>2022-07-07T09:07:42.000Z</Time>
            <Position>
              <LatitudeDegrees>43.6875949613749980926513671875</LatitudeDegrees>
              <LongitudeDegrees>-1.43687319941818714141845703125</LongitudeDegrees>
            </Position>
            <AltitudeMeters>17.799999237060546875</AltitudeMeters>
            <DistanceMeters>NAN</DistanceMeters>
          </Trackpoint>
          <Trackpoint>
            <Time>2022-07-07T09:07:45.000Z</Time>
            <Position>
              <LatitudeDegrees>43.68743897415697574615478515625</LatitudeDegrees>
              <LongitudeDegrees>-1.4368494786322116851806640625</LongitudeDegrees>
            </Position>
            <AltitudeMeters>17.3999996185302734375</AltitudeMeters>
            <DistanceMeters>NAN</DistanceMeters>
          </Trackpoint>
          <Trackpoint>
            <Time>2022-07-07T09:07:48.000Z</Time>
            <Position>
              <LatitudeDegrees>43.6872922070324420928955078125</LatitudeDegrees>
              <LongitudeDegrees>-1.43683698959648609161376953125</LongitudeDegrees>
            </Position>
            <AltitudeMeters>17.200000762939453125</AltitudeMeters>
            <DistanceMeters>NAN</DistanceMeters>
          </Trackpoint>
          <Trackpoint>
            <Time>2022-07-07T09:07:51.000Z</Time>
            <Position>
              <LatitudeDegrees>43.68713052012026309967041015625</LatitudeDegrees>
              <LongitudeDegrees>-1.43683950416743755340576171875</LongitudeDegrees>
            </Position>
            <AltitudeMeters>16.799999237060546875</AltitudeMeters>
            <DistanceMeters>NAN</DistanceMeters>
          </Trackpoint>
          <Trackpoint>
            <Time>2022-07-07T09:07:54.000Z</Time>
            <Position>
              <LatitudeDegrees>43.6870025284588336944580078125</LatitudeDegrees>
              <LongitudeDegrees>-1.43682290799915790557861328125</LongitudeDegrees>
            </Position>
            <AltitudeMeters>16.6000003814697265625</AltitudeMeters>
            <DistanceMeters>NAN</DistanceMeters>
          </Trackpoint>
          <Trackpoint>
            <Time>2022-07-07T09:07:58.000Z</Time>
            <Position>
              <LatitudeDegrees>43.686849139630794525146484375</LatitudeDegrees>
              <LongitudeDegrees>-1.43673724494874477386474609375</LongitudeDegrees>
            </Position>
            <AltitudeMeters>16.6000003814697265625</AltitudeMeters>
            <DistanceMeters>NAN</DistanceMeters>
          </Trackpoint>
          <Trackpoint>
            <Time>2022-07-07T09:07:59.000Z</Time>
            <Position>
              <LatitudeDegrees>43.68679658509790897369384765625</LatitudeDegrees>
              <LongitudeDegrees>-1.436718218028545379638671875</LongitudeDegrees>
            </Position>
            <AltitudeMeters>16.6000003814697265625</AltitudeMeters>
            <DistanceMeters>NAN</DistanceMeters>
          </Trackpoint>
          <Trackpoint>
            <Time>2022-07-07T09:08:00.000Z</Time>
            <Position>
              <LatitudeDegrees>43.6867443658411502838134765625</LatitudeDegrees>
              <LongitudeDegrees>-1.43671059049665927886962890625</LongitudeDegrees>
            </Position>
            <AltitudeMeters>16.6000003814697265625</AltitudeMeters>
            <DistanceMeters>NAN</DistanceMeters>
          </Trackpoint>
          <Trackpoint>
            <Time>2022-07-07T09:08:03.000Z</Time>
            <Position>
              <LatitudeDegrees>43.686592318117618560791015625</LatitudeDegrees>
              <LongitudeDegrees>-1.43672735430300235748291015625</LongitudeDegrees>
            </Position>
            <AltitudeMeters>16.200000762939453125</AltitudeMeters>
            <DistanceMeters>NAN</DistanceMeters>
          </Trackpoint>
          <Trackpoint>
            <Time>2022-07-07T09:08:09.000Z</Time>
            <Position>
              <LatitudeDegrees>43.68631496094167232513427734375</LatitudeDegrees>
              <LongitudeDegrees>-1.43680212087929248809814453125</LongitudeDegrees>
            </Position>
            <AltitudeMeters>16.200000762939453125</AltitudeMeters>
            <DistanceMeters>NAN</DistanceMeters>
          </Trackpoint>
          <Trackpoint>
            <Time>2022-07-07T09:08:11.000Z</Time>
            <Position>
              <LatitudeDegrees>43.6862307228147983551025390625</LatitudeDegrees>
              <LongitudeDegrees>-1.436830870807170867919921875</LongitudeDegrees>
            </Position>
            <AltitudeMeters>16.200000762939453125</AltitudeMeters>
            <DistanceMeters>NAN</DistanceMeters>
          </Trackpoint>
          <Trackpoint>
            <Time>2022-07-07T09:08:19.000Z</Time>
            <Position>
              <LatitudeDegrees>43.6859410442411899566650390625</LatitudeDegrees>
              <LongitudeDegrees>-1.436934135854244232177734375</LongitudeDegrees>
            </Position>
            <AltitudeMeters>16.6000003814697265625</AltitudeMeters>
            <DistanceMeters>NAN</DistanceMeters>
          </Trackpoint>
          <Trackpoint>
            <Time>2022-07-07T09:08:22.000Z</Time>
            <Position>
              <LatitudeDegrees>43.68582646362483501434326171875</LatitudeDegrees>
              <LongitudeDegrees>-1.43697512336075305938720703125</LongitudeDegrees>
            </Position>
            <AltitudeMeters>16.799999237060546875</AltitudeMeters>
            <DistanceMeters>NAN</DistanceMeters>
          </Trackpoint>
          <Trackpoint>
            <Time>2022-07-07T09:08:24.000Z</Time>
            <Position>
              <LatitudeDegrees>43.68575002066791057586669921875</LatitudeDegrees>
              <LongitudeDegrees>-1.43699909560382366180419921875</LongitudeDegrees>
            </Position>
            <AltitudeMeters>16.799999237060546875</AltitudeMeters>
            <DistanceMeters>NAN</DistanceMeters>
          </Trackpoint>
          <Trackpoint>
            <Time>2022-07-07T09:08:28.000Z</Time>
            <Position>
              <LatitudeDegrees>43.68559193797409534454345703125</LatitudeDegrees>
              <LongitudeDegrees>-1.43704066984355449676513671875</LongitudeDegrees>
            </Position>
            <AltitudeMeters>16.6000003814697265625</AltitudeMeters>
            <DistanceMeters>NAN</DistanceMeters>
          </Trackpoint>
          <Trackpoint>
            <Time>2022-07-07T09:08:35.000Z</Time>
            <Position>
              <LatitudeDegrees>43.68529086001217365264892578125</LatitudeDegrees>
              <LongitudeDegrees>-1.43700764514505863189697265625</LongitudeDegrees>
            </Position>
            <AltitudeMeters>16</AltitudeMeters>
            <DistanceMeters>NAN</DistanceMeters>
          </Trackpoint>
          <Trackpoint>
            <Time>2022-07-07T09:08:39.000Z</Time>
            <Position>
              <LatitudeDegrees>43.68513596244156360626220703125</LatitudeDegrees>
              <LongitudeDegrees>-1.43696875311434268951416015625</LongitudeDegrees>
            </Position>
            <AltitudeMeters>16.200000762939453125</AltitudeMeters>
            <DistanceMeters>NAN</DistanceMeters>
          </Trackpoint>
          <Trackpoint>
            <Time>2022-07-07T09:08:44.000Z</Time>
            <Position>
              <LatitudeDegrees>43.6849442683160305023193359375</LatitudeDegrees>
              <LongitudeDegrees>-1.43691862933337688446044921875</LongitudeDegrees>
            </Position>
            <AltitudeMeters>16.6000003814697265625</AltitudeMeters>
            <DistanceMeters>NAN</DistanceMeters>
          </Trackpoint>
          <Trackpoint>
            <Time>2022-07-07T09:08:45.000Z</Time>
            <Position>
              <LatitudeDegrees>43.68490680120885372161865234375</LatitudeDegrees>
              <LongitudeDegrees>-1.43690873868763446807861328125</LongitudeDegrees>
            </Position>
            <AltitudeMeters>16.6000003814697265625</AltitudeMeters>
            <DistanceMeters>NAN</DistanceMeters>
          </Trackpoint>
          <Trackpoint>
            <Time>2022-07-07T09:08:50.000Z</Time>
            <Position>
              <LatitudeDegrees>43.684697337448596954345703125</LatitudeDegrees>
              <LongitudeDegrees>-1.436854340136051177978515625</LongitudeDegrees>
            </Position>
            <AltitudeMeters>16.200000762939453125</AltitudeMeters>
            <DistanceMeters>NAN</DistanceMeters>
          </Trackpoint>
          <Trackpoint>
            <Time>2022-07-07T09:08:58.000Z</Time>
            <Position>
              <LatitudeDegrees>43.6843551881611347198486328125</LatitudeDegrees>
              <LongitudeDegrees>-1.4367884583771228790283203125</LongitudeDegrees>
            </Position>
            <AltitudeMeters>15.80000019073486328125</AltitudeMeters>
            <DistanceMeters>NAN</DistanceMeters>
          </Trackpoint>
          <Trackpoint>
            <Time>2022-07-07T09:09:00.000Z</Time>
            <Position>
              <LatitudeDegrees>43.68428327143192291259765625</LatitudeDegrees>
              <LongitudeDegrees>-1.43676892854273319244384765625</LongitudeDegrees>
            </Position>
            <AltitudeMeters>15.80000019073486328125</AltitudeMeters>
            <DistanceMeters>NAN</DistanceMeters>
          </Trackpoint>
          <Trackpoint>
            <Time>2022-07-07T09:09:02.000Z</Time>
            <Position>
              <LatitudeDegrees>43.68419283069670200347900390625</LatitudeDegrees>
              <LongitudeDegrees>-1.4367545954883098602294921875</LongitudeDegrees>
            </Position>
            <AltitudeMeters>15.80000019073486328125</AltitudeMeters>
            <DistanceMeters>NAN</DistanceMeters>
          </Trackpoint>
          <Trackpoint>
            <Time>2022-07-07T09:09:07.000Z</Time>
            <Position>
              <LatitudeDegrees>43.68397791869938373565673828125</LatitudeDegrees>
              <LongitudeDegrees>-1.43669374287128448486328125</LongitudeDegrees>
            </Position>
            <AltitudeMeters>15.80000019073486328125</AltitudeMeters>
            <DistanceMeters>NAN</DistanceMeters>
          </Trackpoint>
          <Trackpoint>
            <Time>2022-07-07T09:09:13.000Z</Time>
            <Position>
              <LatitudeDegrees>43.68371455930173397064208984375</LatitudeDegrees>
              <LongitudeDegrees>-1.4366342313587665557861328125</LongitudeDegrees>
            </Position>
            <AltitudeMeters>15.6000003814697265625</AltitudeMeters>
            <DistanceMeters>NAN</DistanceMeters>
          </Trackpoint>
          <Trackpoint>
            <Time>2022-07-07T09:09:15.000Z</Time>
            <Position>
              <LatitudeDegrees>43.6836286447942256927490234375</LatitudeDegrees>
              <LongitudeDegrees>-1.43661688081920146942138671875</LongitudeDegrees>
            </Position>
            <AltitudeMeters>15.6000003814697265625</AltitudeMeters>
            <DistanceMeters>NAN</DistanceMeters>
          </Trackpoint>
          <Trackpoint>
            <Time>2022-07-07T09:09:17.000Z</Time>
            <Position>
              <LatitudeDegrees>43.68354155682027339935302734375</LatitudeDegrees>
              <LongitudeDegrees>-1.4366141147911548614501953125</LongitudeDegrees>
            </Position>
            <AltitudeMeters>15.3999996185302734375</AltitudeMeters>
            <DistanceMeters>NAN</DistanceMeters>
          </Trackpoint>
          <Trackpoint>
            <Time>2022-07-07T09:09:20.000Z</Time>
            <Position>
              <LatitudeDegrees>43.68342496454715728759765625</LatitudeDegrees>
              <LongitudeDegrees>-1.43660363741219043731689453125</LongitudeDegrees>
            </Position>
            <AltitudeMeters>15.3999996185302734375</AltitudeMeters>
            <DistanceMeters>NAN</DistanceMeters>
          </Trackpoint>
          <Trackpoint>
            <Time>2022-07-07T09:09:27.000Z</Time>
            <Position>
              <LatitudeDegrees>43.68311919271945953369140625</LatitudeDegrees>
              <LongitudeDegrees>-1.43650506623089313507080078125</LongitudeDegrees>
            </Position>
            <AltitudeMeters>15</AltitudeMeters>
            <DistanceMeters>NAN</DistanceMeters>
          </Trackpoint>
          <Trackpoint>
            <Time>2022-07-07T09:09:28.000Z</Time>
            <Position>
              <LatitudeDegrees>43.6830687336623668670654296875</LatitudeDegrees>
              <LongitudeDegrees>-1.43650171346962451934814453125</LongitudeDegrees>
            </Position>
            <AltitudeMeters>15</AltitudeMeters>
            <DistanceMeters>NAN</DistanceMeters>
          </Trackpoint>
          <Trackpoint>
            <Time>2022-07-07T09:09:34.000Z</Time>
            <Position>
              <LatitudeDegrees>43.6827860958874225616455078125</LatitudeDegrees>
              <LongitudeDegrees>-1.4365028031170368194580078125</LongitudeDegrees>
            </Position>
            <AltitudeMeters>14.80000019073486328125</AltitudeMeters>
            <DistanceMeters>NAN</DistanceMeters>
          </Trackpoint>
          <Trackpoint>
            <Time>2022-07-07T09:09:37.000Z</Time>
            <Position>
              <LatitudeDegrees>43.68264871649444103240966796875</LatitudeDegrees>
              <LongitudeDegrees>-1.43653012812137603759765625</LongitudeDegrees>
            </Position>
            <AltitudeMeters>14.6000003814697265625</AltitudeMeters>
            <DistanceMeters>NAN</DistanceMeters>
          </Trackpoint>
          <Trackpoint>
            <Time>2022-07-07T09:09:44.000Z</Time>
            <Position>
              <LatitudeDegrees>43.68237018585205078125</LatitudeDegrees>
              <LongitudeDegrees>-1.436645798385143280029296875</LongitudeDegrees>
            </Position>
            <AltitudeMeters>14.80000019073486328125</AltitudeMeters>
            <DistanceMeters>NAN</DistanceMeters>
          </Trackpoint>
          <Trackpoint>
            <Time>2022-07-07T09:09:48.000Z</Time>
            <Position>
              <LatitudeDegrees>43.68222140707075595855712890625</LatitudeDegrees>
              <LongitudeDegrees>-1.4367301203310489654541015625</LongitudeDegrees>
            </Position>
            <AltitudeMeters>14.80000019073486328125</AltitudeMeters>
            <DistanceMeters>NAN</DistanceMeters>
          </Trackpoint>
          <Trackpoint>
            <Time>2022-07-07T09:09:50.000Z</Time>
            <Position>
              <LatitudeDegrees>43.6821524240076541900634765625</LatitudeDegrees>
              <LongitudeDegrees>-1.436740346252918243408203125</LongitudeDegrees>
            </Position>
            <AltitudeMeters>14.80000019073486328125</AltitudeMeters>
            <DistanceMeters>NAN</DistanceMeters>
          </Trackpoint>
          <Trackpoint>
            <Time>2022-07-07T09:09:54.000Z</Time>
            <Position>
              <LatitudeDegrees>43.68201102130115032196044921875</LatitudeDegrees>
              <LongitudeDegrees>-1.43679256550967693328857421875</LongitudeDegrees>
            </Position>
            <AltitudeMeters>15</AltitudeMeters>
            <DistanceMeters>NAN</DistanceMeters>
          </Trackpoint>
          <Trackpoint>
            <Time>2022-07-07T09:09:55.000Z</Time>
            <Position>
              <LatitudeDegrees>43.68198252283036708831787109375</LatitudeDegrees>
              <LongitudeDegrees>-1.43679625354707241058349609375</LongitudeDegrees>
            </Position>
            <AltitudeMeters>15</AltitudeMeters>
            <DistanceMeters>NAN</DistanceMeters>
          </Trackpoint>
          <Trackpoint>
            <Time>2022-07-07T09:09:57.000Z</Time>
            <Position>
              <LatitudeDegrees>43.6819355003535747528076171875</LatitudeDegrees>
              <LongitudeDegrees>-1.43678351305425167083740234375</LongitudeDegrees>
            </Position>
            <AltitudeMeters>15</AltitudeMeters>
            <DistanceMeters>NAN</DistanceMeters>
          </Trackpoint>
          <Trackpoint>
            <Time>2022-07-07T09:09:59.000Z</Time>
            <Position>
              <LatitudeDegrees>43.68190121836960315704345703125</LatitudeDegrees>
              <LongitudeDegrees>-1.43673238344490528106689453125</LongitudeDegrees>
            </Position>
            <AltitudeMeters>15.3999996185302734375</AltitudeMeters>
            <DistanceMeters>NAN</DistanceMeters>
          </Trackpoint>
          <Trackpoint>
            <Time>2022-07-07T09:10:01.000Z</Time>
            <Position>
              <LatitudeDegrees>43.681842125952243804931640625</LatitudeDegrees>
              <LongitudeDegrees>-1.43670807592570781707763671875</LongitudeDegrees>
            </Position>
            <AltitudeMeters>15.6000003814697265625</AltitudeMeters>
            <DistanceMeters>NAN</DistanceMeters>
          </Trackpoint>
          <Trackpoint>
            <Time>2022-07-07T09:10:02.000Z</Time>
            <Position>
              <LatitudeDegrees>43.68181337602436542510986328125</LatitudeDegrees>
              <LongitudeDegrees>-1.43672986887395381927490234375</LongitudeDegrees>
            </Position>
            <AltitudeMeters>15.6000003814697265625</AltitudeMeters>
            <DistanceMeters>NAN</DistanceMeters>
          </Trackpoint>
          <Trackpoint>
            <Time>2022-07-07T09:10:08.000Z</Time>
            <Position>
              <LatitudeDegrees>43.68169284425675868988037109375</LatitudeDegrees>
              <LongitudeDegrees>-1.43697001039981842041015625</LongitudeDegrees>
            </Position>
            <AltitudeMeters>15.3999996185302734375</AltitudeMeters>
            <DistanceMeters>NAN</DistanceMeters>
          </Trackpoint>
          <Trackpoint>
            <Time>2022-07-07T09:10:11.000Z</Time>
            <Position>
              <LatitudeDegrees>43.681614808738231658935546875</LatitudeDegrees>
              <LongitudeDegrees>-1.437088362872600555419921875</LongitudeDegrees>
            </Position>
            <AltitudeMeters>15</AltitudeMeters>
            <DistanceMeters>NAN</DistanceMeters>
          </Trackpoint>
          <Trackpoint>
            <Time>2022-07-07T09:10:17.000Z</Time>
            <Position>
              <LatitudeDegrees>43.68145949207246303558349609375</LatitudeDegrees>
              <LongitudeDegrees>-1.43730520270764827728271484375</LongitudeDegrees>
            </Position>
            <AltitudeMeters>15</AltitudeMeters>
            <DistanceMeters>NAN</DistanceMeters>
          </Trackpoint>
          <Trackpoint>
            <Time>2022-07-07T09:10:25.000Z</Time>
            <Position>
              <LatitudeDegrees>43.68122144602239131927490234375</LatitudeDegrees>
              <LongitudeDegrees>-1.4375599287450313568115234375</LongitudeDegrees>
            </Position>
            <AltitudeMeters>14.80000019073486328125</AltitudeMeters>
            <DistanceMeters>NAN</DistanceMeters>
          </Trackpoint>
          <Trackpoint>
            <Time>2022-07-07T09:10:28.000Z</Time>
            <Position>
              <LatitudeDegrees>43.68113628588616847991943359375</LatitudeDegrees>
              <LongitudeDegrees>-1.4376439154148101806640625</LongitudeDegrees>
            </Position>
            <AltitudeMeters>14.6000003814697265625</AltitudeMeters>
            <DistanceMeters>NAN</DistanceMeters>
          </Trackpoint>
          <Trackpoint>
            <Time>2022-07-07T09:10:32.000Z</Time>
            <Position>
              <LatitudeDegrees>43.68101391009986400604248046875</LatitudeDegrees>
              <LongitudeDegrees>-1.4377523772418498992919921875</LongitudeDegrees>
            </Position>
            <AltitudeMeters>14.80000019073486328125</AltitudeMeters>
            <DistanceMeters>NAN</DistanceMeters>
          </Trackpoint>
          <Trackpoint>
            <Time>2022-07-07T09:10:38.000Z</Time>
            <Position>
              <LatitudeDegrees>43.68082632310688495635986328125</LatitudeDegrees>
              <LongitudeDegrees>-1.43790417350828647613525390625</LongitudeDegrees>
            </Position>
            <AltitudeMeters>15</AltitudeMeters>
            <DistanceMeters>NAN</DistanceMeters>
          </Trackpoint>
          <Trackpoint>
            <Time>2022-07-07T09:10:41.000Z</Time>
            <Position>
              <LatitudeDegrees>43.68074703030288219451904296875</LatitudeDegrees>
              <LongitudeDegrees>-1.437967121601104736328125</LongitudeDegrees>
            </Position>
            <AltitudeMeters>14.80000019073486328125</AltitudeMeters>
            <DistanceMeters>NAN</DistanceMeters>
          </Trackpoint>
          <Trackpoint>
            <Time>2022-07-07T09:10:45.000Z</Time>
            <Position>
              <LatitudeDegrees>43.6806406639516353607177734375</LatitudeDegrees>
              <LongitudeDegrees>-1.43803912214934825897216796875</LongitudeDegrees>
            </Position>
            <AltitudeMeters>15.19999980926513671875</AltitudeMeters>
            <DistanceMeters>NAN</DistanceMeters>
          </Trackpoint>
          <Trackpoint>
            <Time>2022-07-07T09:10:49.000Z</Time>
            <Position>
              <LatitudeDegrees>43.6805588565766811370849609375</LatitudeDegrees>
              <LongitudeDegrees>-1.4381052553653717041015625</LongitudeDegrees>
            </Position>
            <AltitudeMeters>15.6000003814697265625</AltitudeMeters>
            <DistanceMeters>NAN</DistanceMeters>
          </Trackpoint>
          <Trackpoint>
            <Time>2022-07-07T09:10:51.000Z</Time>
            <Position>
              <LatitudeDegrees>43.680515773594379425048828125</LatitudeDegrees>
              <LongitudeDegrees>-1.43812897615134716033935546875</LongitudeDegrees>
            </Position>
            <AltitudeMeters>15.80000019073486328125</AltitudeMeters>
            <DistanceMeters>NAN</DistanceMeters>
          </Trackpoint>
          <Trackpoint>
            <Time>2022-07-07T09:10:53.000Z</Time>
            <Position>
              <LatitudeDegrees>43.680468164384365081787109375</LatitudeDegrees>
              <LongitudeDegrees>-1.438151188194751739501953125</LongitudeDegrees>
            </Position>
            <AltitudeMeters>16</AltitudeMeters>
            <DistanceMeters>NAN</DistanceMeters>
          </Trackpoint>
          <Trackpoint>
            <Time>2022-07-07T09:11:00.000Z</Time>
            <Position>
              <LatitudeDegrees>43.68035039864480495452880859375</LatitudeDegrees>
              <LongitudeDegrees>-1.438204832375049591064453125</LongitudeDegrees>
            </Position>
            <AltitudeMeters>16.799999237060546875</AltitudeMeters>
            <DistanceMeters>NAN</DistanceMeters>
          </Trackpoint>
          <Trackpoint>
            <Time>2022-07-07T09:11:01.000Z</Time>
            <Position>
              <LatitudeDegrees>43.68033329956233501434326171875</LatitudeDegrees>
              <LongitudeDegrees>-1.4382110349833965301513671875</LongitudeDegrees>
            </Position>
            <AltitudeMeters>17.200000762939453125</AltitudeMeters>
            <DistanceMeters>NAN</DistanceMeters>
          </Trackpoint>
          <Trackpoint>
            <Time>2022-07-07T09:11:09.000Z</Time>
            <Position>
              <LatitudeDegrees>43.680201284587383270263671875</LatitudeDegrees>
              <LongitudeDegrees>-1.43829879350960254669189453125</LongitudeDegrees>
            </Position>
            <AltitudeMeters>17.799999237060546875</AltitudeMeters>
            <DistanceMeters>NAN</DistanceMeters>
          </Trackpoint>
          <Trackpoint>
            <Time>2022-07-07T09:11:10.000Z</Time>
            <Position>
              <LatitudeDegrees>43.6801850236952304840087890625</LatitudeDegrees>
              <LongitudeDegrees>-1.43831337802112102508544921875</LongitudeDegrees>
            </Position>
            <AltitudeMeters>18.200000762939453125</AltitudeMeters>
            <DistanceMeters>NAN</DistanceMeters>
          </Trackpoint>
          <Trackpoint>
            <Time>2022-07-07T09:11:18.000Z</Time>
            <Position>
              <LatitudeDegrees>43.68004563264548778533935546875</LatitudeDegrees>
              <LongitudeDegrees>-1.438346989452838897705078125</LongitudeDegrees>
            </Position>
            <AltitudeMeters>19</AltitudeMeters>
            <DistanceMeters>NAN</DistanceMeters>
          </Trackpoint>
          <Trackpoint>
            <Time>2022-07-07T09:11:28.000Z</Time>
            <Position>
              <LatitudeDegrees>43.67983809672296047210693359375</LatitudeDegrees>
              <LongitudeDegrees>-1.43841479904949665069580078125</LongitudeDegrees>
            </Position>
            <AltitudeMeters>19</AltitudeMeters>
            <DistanceMeters>NAN</DistanceMeters>
          </Trackpoint>
          <Trackpoint>
            <Time>2022-07-07T09:11:37.000Z</Time>
            <Position>
              <LatitudeDegrees>43.6796123720705509185791015625</LatitudeDegrees>
              <LongitudeDegrees>-1.4384987019002437591552734375</LongitudeDegrees>
            </Position>
            <AltitudeMeters>18.799999237060546875</AltitudeMeters>
            <DistanceMeters>NAN</DistanceMeters>
          </Trackpoint>
          <Trackpoint>
            <Time>2022-07-07T09:11:44.000Z</Time>
            <Position>
              <LatitudeDegrees>43.67936971597373485565185546875</LatitudeDegrees>
              <LongitudeDegrees>-1.4385503344237804412841796875</LongitudeDegrees>
            </Position>
            <AltitudeMeters>18.6000003814697265625</AltitudeMeters>
            <DistanceMeters>NAN</DistanceMeters>
          </Trackpoint>
          <Trackpoint>
            <Time>2022-07-07T09:11:49.000Z</Time>
            <Position>
              <LatitudeDegrees>43.679121024906635284423828125</LatitudeDegrees>
              <LongitudeDegrees>-1.4385516755282878875732421875</LongitudeDegrees>
            </Position>
            <AltitudeMeters>17.799999237060546875</AltitudeMeters>
            <DistanceMeters>NAN</DistanceMeters>
          </Trackpoint>
          <Trackpoint>
            <Time>2022-07-07T09:11:50.000Z</Time>
            <Position>
              <LatitudeDegrees>43.679069392383098602294921875</LatitudeDegrees>
              <LongitudeDegrees>-1.43854740075767040252685546875</LongitudeDegrees>
            </Position>
            <AltitudeMeters>17.6000003814697265625</AltitudeMeters>
            <DistanceMeters>NAN</DistanceMeters>
          </Trackpoint>
          <Trackpoint>
            <Time>2022-07-07T09:11:54.000Z</Time>
            <Position>
              <LatitudeDegrees>43.6788318492472171783447265625</LatitudeDegrees>
              <LongitudeDegrees>-1.43851228058338165283203125</LongitudeDegrees>
            </Position>
            <AltitudeMeters>16.6000003814697265625</AltitudeMeters>
            <DistanceMeters>NAN</DistanceMeters>
          </Trackpoint>
          <Trackpoint>
            <Time>2022-07-07T09:11:55.000Z</Time>
            <Position>
              <LatitudeDegrees>43.6787827312946319580078125</LatitudeDegrees>
              <LongitudeDegrees>-1.43850096501410007476806640625</LongitudeDegrees>
            </Position>
            <AltitudeMeters>16.200000762939453125</AltitudeMeters>
            <DistanceMeters>NAN</DistanceMeters>
          </Trackpoint>
          <Trackpoint>
            <Time>2022-07-07T09:11:59.000Z</Time>
            <Position>
              <LatitudeDegrees>43.678537644445896148681640625</LatitudeDegrees>
              <LongitudeDegrees>-1.43844656646251678466796875</LongitudeDegrees>
            </Position>
            <AltitudeMeters>15.6000003814697265625</AltitudeMeters>
            <DistanceMeters>NAN</DistanceMeters>
          </Trackpoint>
          <Trackpoint>
            <Time>2022-07-07T09:12:01.000Z</Time>
            <Position>
              <LatitudeDegrees>43.67841820232570171356201171875</LatitudeDegrees>
              <LongitudeDegrees>-1.43840943463146686553955078125</LongitudeDegrees>
            </Position>
            <AltitudeMeters>15.19999980926513671875</AltitudeMeters>
            <DistanceMeters>NAN</DistanceMeters>
          </Trackpoint>
          <Trackpoint>
            <Time>2022-07-07T09:12:09.000Z</Time>
            <Position>
              <LatitudeDegrees>43.67799818515777587890625</LatitudeDegrees>
              <LongitudeDegrees>-1.4382445625960826873779296875</LongitudeDegrees>
            </Position>
            <AltitudeMeters>14.80000019073486328125</AltitudeMeters>
            <DistanceMeters>NAN</DistanceMeters>
          </Trackpoint>
          <Trackpoint>
            <Time>2022-07-07T09:12:10.000Z</Time>
            <Position>
              <LatitudeDegrees>43.67795049212872982025146484375</LatitudeDegrees>
              <LongitudeDegrees>-1.438228972256183624267578125</LongitudeDegrees>
            </Position>
            <AltitudeMeters>14.80000019073486328125</AltitudeMeters>
            <DistanceMeters>NAN</DistanceMeters>
          </Trackpoint>
          <Trackpoint>
            <Time>2022-07-07T09:12:12.000Z</Time>
            <Position>
              <LatitudeDegrees>43.67784907110035419464111328125</LatitudeDegrees>
              <LongitudeDegrees>-1.438190080225467681884765625</LongitudeDegrees>
            </Position>
            <AltitudeMeters>14.6000003814697265625</AltitudeMeters>
            <DistanceMeters>NAN</DistanceMeters>
          </Trackpoint>
          <Trackpoint>
            <Time>2022-07-07T09:12:15.000Z</Time>
            <Position>
              <LatitudeDegrees>43.677698113024234771728515625</LatitudeDegrees>
              <LongitudeDegrees>-1.438139118254184722900390625</LongitudeDegrees>
            </Position>
            <AltitudeMeters>14.3999996185302734375</AltitudeMeters>
            <DistanceMeters>NAN</DistanceMeters>
          </Trackpoint>
          <Trackpoint>
            <Time>2022-07-07T09:12:24.000Z</Time>
            <Position>
              <LatitudeDegrees>43.677272312343120574951171875</LatitudeDegrees>
              <LongitudeDegrees>-1.43798732198774814605712890625</LongitudeDegrees>
            </Position>
            <AltitudeMeters>14.6000003814697265625</AltitudeMeters>
            <DistanceMeters>NAN</DistanceMeters>
          </Trackpoint>
          <Trackpoint>
            <Time>2022-07-07T09:12:33.000Z</Time>
            <Position>
              <LatitudeDegrees>43.67685648612678050994873046875</LatitudeDegrees>
              <LongitudeDegrees>-1.43784432671964168548583984375</LongitudeDegrees>
            </Position>
            <AltitudeMeters>14.19999980926513671875</AltitudeMeters>
            <DistanceMeters>NAN</DistanceMeters>
          </Trackpoint>
          <Trackpoint>
            <Time>2022-07-07T09:12:40.000Z</Time>
            <Position>
              <LatitudeDegrees>43.67655021138489246368408203125</LatitudeDegrees>
              <LongitudeDegrees>-1.43773854710161685943603515625</LongitudeDegrees>
            </Position>
            <AltitudeMeters>13.80000019073486328125</AltitudeMeters>
            <DistanceMeters>NAN</DistanceMeters>
          </Trackpoint>
          <Trackpoint>
            <Time>2022-07-07T09:12:42.000Z</Time>
            <Position>
              <LatitudeDegrees>43.6764684878289699554443359375</LatitudeDegrees>
              <LongitudeDegrees>-1.4377158321440219879150390625</LongitudeDegrees>
            </Position>
            <AltitudeMeters>14.19999980926513671875</AltitudeMeters>
            <DistanceMeters>NAN</DistanceMeters>
          </Trackpoint>
          <Trackpoint>
            <Time>2022-07-07T09:12:51.000Z</Time>
            <Position>
              <LatitudeDegrees>43.676134049892425537109375</LatitudeDegrees>
              <LongitudeDegrees>-1.43758825957775115966796875</LongitudeDegrees>
            </Position>
            <AltitudeMeters>14.3999996185302734375</AltitudeMeters>
            <DistanceMeters>NAN</DistanceMeters>
          </Trackpoint>
          <Trackpoint>
            <Time>2022-07-07T09:12:55.000Z</Time>
            <Position>
              <LatitudeDegrees>43.67601276375353336334228515625</LatitudeDegrees>
              <LongitudeDegrees>-1.43754442222416400909423828125</LongitudeDegrees>
            </Position>
            <AltitudeMeters>15</AltitudeMeters>
            <DistanceMeters>NAN</DistanceMeters>
          </Trackpoint>
          <Trackpoint>
            <Time>2022-07-07T09:12:57.000Z</Time>
            <Position>
              <LatitudeDegrees>43.6759518273174762725830078125</LatitudeDegrees>
              <LongitudeDegrees>-1.4375253953039646148681640625</LongitudeDegrees>
            </Position>
            <AltitudeMeters>15.19999980926513671875</AltitudeMeters>
            <DistanceMeters>NAN</DistanceMeters>
          </Trackpoint>
          <Trackpoint>
            <Time>2022-07-07T09:12:59.000Z</Time>
            <Position>
              <LatitudeDegrees>43.67589675821363925933837890625</LatitudeDegrees>
              <LongitudeDegrees>-1.43750888295471668243408203125</LongitudeDegrees>
            </Position>
            <AltitudeMeters>15.3999996185302734375</AltitudeMeters>
            <DistanceMeters>NAN</DistanceMeters>
          </Trackpoint>
          <Trackpoint>
            <Time>2022-07-07T09:13:00.000Z</Time>
            <Position>
              <LatitudeDegrees>43.67586993612349033355712890625</LatitudeDegrees>
              <LongitudeDegrees>-1.4375025965273380279541015625</LongitudeDegrees>
            </Position>
            <AltitudeMeters>15.6000003814697265625</AltitudeMeters>
            <DistanceMeters>NAN</DistanceMeters>
          </Trackpoint>
          <Trackpoint>
            <Time>2022-07-07T09:13:05.000Z</Time>
            <Position>
              <LatitudeDegrees>43.6757238395512104034423828125</LatitudeDegrees>
              <LongitudeDegrees>-1.43753101117908954620361328125</LongitudeDegrees>
            </Position>
            <AltitudeMeters>16</AltitudeMeters>
            <DistanceMeters>NAN</DistanceMeters>
          </Trackpoint>
          <Trackpoint>
            <Time>2022-07-07T09:13:07.000Z</Time>
            <Position>
              <LatitudeDegrees>43.6756604723632335662841796875</LatitudeDegrees>
              <LongitudeDegrees>-1.4375580847263336181640625</LongitudeDegrees>
            </Position>
            <AltitudeMeters>16.200000762939453125</AltitudeMeters>
            <DistanceMeters>NAN</DistanceMeters>
          </Trackpoint>
          <Trackpoint>
            <Time>2022-07-07T09:13:12.000Z</Time>
            <Position>
              <LatitudeDegrees>43.67548889480531215667724609375</LatitudeDegrees>
              <LongitudeDegrees>-1.43761717714369297027587890625</LongitudeDegrees>
            </Position>
            <AltitudeMeters>15.80000019073486328125</AltitudeMeters>
            <DistanceMeters>NAN</DistanceMeters>
          </Trackpoint>
          <Trackpoint>
            <Time>2022-07-07T09:13:13.000Z</Time>
            <Position>
              <LatitudeDegrees>43.67544941604137420654296875</LatitudeDegrees>
              <LongitudeDegrees>-1.437627486884593963623046875</LongitudeDegrees>
            </Position>
            <AltitudeMeters>15.80000019073486328125</AltitudeMeters>
            <DistanceMeters>NAN</DistanceMeters>
          </Trackpoint>
          <Trackpoint>
            <Time>2022-07-07T09:13:16.000Z</Time>
            <Position>
              <LatitudeDegrees>43.6753319017589092254638671875</LatitudeDegrees>
              <LongitudeDegrees>-1.4376340247690677642822265625</LongitudeDegrees>
            </Position>
            <AltitudeMeters>15.19999980926513671875</AltitudeMeters>
            <DistanceMeters>NAN</DistanceMeters>
          </Trackpoint>
          <Trackpoint>
            <Time>2022-07-07T09:13:18.000Z</Time>
            <Position>
              <LatitudeDegrees>43.67525202222168445587158203125</LatitudeDegrees>
              <LongitudeDegrees>-1.43762086518108844757080078125</LongitudeDegrees>
            </Position>
            <AltitudeMeters>15.19999980926513671875</AltitudeMeters>
            <DistanceMeters>NAN</DistanceMeters>
          </Trackpoint>
          <Trackpoint>
            <Time>2022-07-07T09:13:20.000Z</Time>
            <Position>
              <LatitudeDegrees>43.6751682870090007781982421875</LatitudeDegrees>
              <LongitudeDegrees>-1.43764651380479335784912109375</LongitudeDegrees>
            </Position>
            <AltitudeMeters>15.19999980926513671875</AltitudeMeters>
            <DistanceMeters>NAN</DistanceMeters>
          </Trackpoint>
          <Trackpoint>
            <Time>2022-07-07T09:13:22.000Z</Time>
            <Position>
              <LatitudeDegrees>43.67510098032653331756591796875</LatitudeDegrees>
              <LongitudeDegrees>-1.43771491013467311859130859375</LongitudeDegrees>
            </Position>
            <AltitudeMeters>15</AltitudeMeters>
            <DistanceMeters>NAN</DistanceMeters>
          </Trackpoint>
          <Trackpoint>
            <Time>2022-07-07T09:13:25.000Z</Time>
            <Position>
              <LatitudeDegrees>43.67503627203404903411865234375</LatitudeDegrees>
              <LongitudeDegrees>-1.437875926494598388671875</LongitudeDegrees>
            </Position>
            <AltitudeMeters>15</AltitudeMeters>
            <DistanceMeters>NAN</DistanceMeters>
          </Trackpoint>
          <Trackpoint>
            <Time>2022-07-07T09:13:27.000Z</Time>
            <Position>
              <LatitudeDegrees>43.6749788559973239898681640625</LatitudeDegrees>
              <LongitudeDegrees>-1.437961757183074951171875</LongitudeDegrees>
            </Position>
            <AltitudeMeters>14.6000003814697265625</AltitudeMeters>
            <DistanceMeters>NAN</DistanceMeters>
          </Trackpoint>
          <Trackpoint>
            <Time>2022-07-07T09:13:29.000Z</Time>
            <Position>
              <LatitudeDegrees>43.67490534670650959014892578125</LatitudeDegrees>
              <LongitudeDegrees>-1.438043899834156036376953125</LongitudeDegrees>
            </Position>
            <AltitudeMeters>14.3999996185302734375</AltitudeMeters>
            <DistanceMeters>NAN</DistanceMeters>
          </Trackpoint>
          <Trackpoint>
            <Time>2022-07-07T09:13:30.000Z</Time>
            <Position>
              <LatitudeDegrees>43.67486913688480854034423828125</LatitudeDegrees>
              <LongitudeDegrees>-1.43808304332196712493896484375</LongitudeDegrees>
            </Position>
            <AltitudeMeters>14.3999996185302734375</AltitudeMeters>
            <DistanceMeters>NAN</DistanceMeters>
          </Trackpoint>
          <Trackpoint>
            <Time>2022-07-07T09:13:32.000Z</Time>
            <Position>
              <LatitudeDegrees>43.67479629814624786376953125</LatitudeDegrees>
              <LongitudeDegrees>-1.4381617493927478790283203125</LongitudeDegrees>
            </Position>
            <AltitudeMeters>14.3999996185302734375</AltitudeMeters>
            <DistanceMeters>NAN</DistanceMeters>
          </Trackpoint>
          <Trackpoint>
            <Time>2022-07-07T09:13:33.000Z</Time>
            <Position>
              <LatitudeDegrees>43.67475464008748531341552734375</LatitudeDegrees>
              <LongitudeDegrees>-1.4382070116698741912841796875</LongitudeDegrees>
            </Position>
            <AltitudeMeters>14.3999996185302734375</AltitudeMeters>
            <DistanceMeters>NAN</DistanceMeters>
          </Trackpoint>
          <Trackpoint>
            <Time>2022-07-07T09:13:40.000Z</Time>
            <Position>
              <LatitudeDegrees>43.67448893375694751739501953125</LatitudeDegrees>
              <LongitudeDegrees>-1.43850431777536869049072265625</LongitudeDegrees>
            </Position>
            <AltitudeMeters>14.19999980926513671875</AltitudeMeters>
            <DistanceMeters>NAN</DistanceMeters>
          </Trackpoint>
          <Trackpoint>
            <Time>2022-07-07T09:13:41.000Z</Time>
            <Position>
              <LatitudeDegrees>43.67444970645010471343994140625</LatitudeDegrees>
              <LongitudeDegrees>-1.43854488618671894073486328125</LongitudeDegrees>
            </Position>
            <AltitudeMeters>14.19999980926513671875</AltitudeMeters>
            <DistanceMeters>NAN</DistanceMeters>
          </Trackpoint>
          <Trackpoint>
            <Time>2022-07-07T09:13:50.000Z</Time>
            <Position>
              <LatitudeDegrees>43.6740982532501220703125</LatitudeDegrees>
              <LongitudeDegrees>-1.43881897442042827606201171875</LongitudeDegrees>
            </Position>
            <AltitudeMeters>14.19999980926513671875</AltitudeMeters>
            <DistanceMeters>NAN</DistanceMeters>
          </Trackpoint>
          <Trackpoint>
            <Time>2022-07-07T09:13:52.000Z</Time>
            <Position>
              <LatitudeDegrees>43.6740172840654850006103515625</LatitudeDegrees>
              <LongitudeDegrees>-1.4388643205165863037109375</LongitudeDegrees>
            </Position>
            <AltitudeMeters>14.19999980926513671875</AltitudeMeters>
            <DistanceMeters>NAN</DistanceMeters>
          </Trackpoint>
          <Trackpoint>
            <Time>2022-07-07T09:13:55.000Z</Time>
            <Position>
              <LatitudeDegrees>43.673891387879848480224609375</LatitudeDegrees>
              <LongitudeDegrees>-1.43891754560172557830810546875</LongitudeDegrees>
            </Position>
            <AltitudeMeters>14</AltitudeMeters>
            <DistanceMeters>NAN</DistanceMeters>
          </Trackpoint>
          <Trackpoint>
            <Time>2022-07-07T09:13:58.000Z</Time>
            <Position>
              <LatitudeDegrees>43.67376498878002166748046875</LatitudeDegrees>
              <LongitudeDegrees>-1.43896163441240787506103515625</LongitudeDegrees>
            </Position>
            <AltitudeMeters>14</AltitudeMeters>
            <DistanceMeters>NAN</DistanceMeters>
          </Trackpoint>
          <Trackpoint>
            <Time>2022-07-07T09:13:59.000Z</Time>
            <Position>
              <LatitudeDegrees>43.67372467182576656341552734375</LatitudeDegrees>
              <LongitudeDegrees>-1.438971273601055145263671875</LongitudeDegrees>
            </Position>
            <AltitudeMeters>14</AltitudeMeters>
            <DistanceMeters>NAN</DistanceMeters>
          </Trackpoint>
          <Trackpoint>
            <Time>2022-07-07T09:14:02.000Z</Time>
            <Position>
              <LatitudeDegrees>43.67360271513462066650390625</LatitudeDegrees>
              <LongitudeDegrees>-1.43898904323577880859375</LongitudeDegrees>
            </Position>
            <AltitudeMeters>14</AltitudeMeters>
            <DistanceMeters>NAN</DistanceMeters>
          </Trackpoint>
          <Trackpoint>
            <Time>2022-07-07T09:14:04.000Z</Time>
            <Position>
              <LatitudeDegrees>43.6735170520842075347900390625</LatitudeDegrees>
              <LongitudeDegrees>-1.4389878697693347930908203125</LongitudeDegrees>
            </Position>
            <AltitudeMeters>14</AltitudeMeters>
            <DistanceMeters>NAN</DistanceMeters>
          </Trackpoint>
          <Trackpoint>
            <Time>2022-07-07T09:14:05.000Z</Time>
            <Position>
              <LatitudeDegrees>43.67347396910190582275390625</LatitudeDegrees>
              <LongitudeDegrees>-1.43899046815931797027587890625</LongitudeDegrees>
            </Position>
            <AltitudeMeters>14.19999980926513671875</AltitudeMeters>
            <DistanceMeters>NAN</DistanceMeters>
          </Trackpoint>
          <Trackpoint>
            <Time>2022-07-07T09:14:13.000Z</Time>
            <Position>
              <LatitudeDegrees>43.6731157265603542327880859375</LatitudeDegrees>
              <LongitudeDegrees>-1.43905115313827991485595703125</LongitudeDegrees>
            </Position>
            <AltitudeMeters>14.80000019073486328125</AltitudeMeters>
            <DistanceMeters>NAN</DistanceMeters>
          </Trackpoint>
          <Trackpoint>
            <Time>2022-07-07T09:14:14.000Z</Time>
            <Position>
              <LatitudeDegrees>43.673075325787067413330078125</LatitudeDegrees>
              <LongitudeDegrees>-1.4390555955469608306884765625</LongitudeDegrees>
            </Position>
            <AltitudeMeters>14.80000019073486328125</AltitudeMeters>
            <DistanceMeters>NAN</DistanceMeters>
          </Trackpoint>
          <Trackpoint>
            <Time>2022-07-07T09:14:18.000Z</Time>
            <Position>
              <LatitudeDegrees>43.67291464470326900482177734375</LatitudeDegrees>
              <LongitudeDegrees>-1.4390777237713336944580078125</LongitudeDegrees>
            </Position>
            <AltitudeMeters>14.6000003814697265625</AltitudeMeters>
            <DistanceMeters>NAN</DistanceMeters>
          </Trackpoint>
          <Trackpoint>
            <Time>2022-07-07T09:14:22.000Z</Time>
            <Position>
              <LatitudeDegrees>43.67273627780377864837646484375</LatitudeDegrees>
              <LongitudeDegrees>-1.4391057193279266357421875</LongitudeDegrees>
            </Position>
            <AltitudeMeters>14.3999996185302734375</AltitudeMeters>
            <DistanceMeters>NAN</DistanceMeters>
          </Trackpoint>
          <Trackpoint>
            <Time>2022-07-07T09:14:25.000Z</Time>
            <Position>
              <LatitudeDegrees>43.67259244434535503387451171875</LatitudeDegrees>
              <LongitudeDegrees>-1.43912390805780887603759765625</LongitudeDegrees>
            </Position>
            <AltitudeMeters>14.6000003814697265625</AltitudeMeters>
            <DistanceMeters>NAN</DistanceMeters>
          </Trackpoint>
          <Trackpoint>
            <Time>2022-07-07T09:14:32.000Z</Time>
            <Position>
              <LatitudeDegrees>43.67226085625588893890380859375</LatitudeDegrees>
              <LongitudeDegrees>-1.43918761052191257476806640625</LongitudeDegrees>
            </Position>
            <AltitudeMeters>15.19999980926513671875</AltitudeMeters>
            <DistanceMeters>NAN</DistanceMeters>
          </Trackpoint>
          <Trackpoint>
            <Time>2022-07-07T09:14:37.000Z</Time>
            <Position>
              <LatitudeDegrees>43.67202918045222759246826171875</LatitudeDegrees>
              <LongitudeDegrees>-1.43921979703009128570556640625</LongitudeDegrees>
            </Position>
            <AltitudeMeters>15.19999980926513671875</AltitudeMeters>
            <DistanceMeters>NAN</DistanceMeters>
          </Trackpoint>
          <Trackpoint>
            <Time>2022-07-07T09:14:39.000Z</Time>
            <Position>
              <LatitudeDegrees>43.671927340328693389892578125</LatitudeDegrees>
              <LongitudeDegrees>-1.4392359741032123565673828125</LongitudeDegrees>
            </Position>
            <AltitudeMeters>15.19999980926513671875</AltitudeMeters>
            <DistanceMeters>NAN</DistanceMeters>
          </Trackpoint>
          <Trackpoint>
            <Time>2022-07-07T09:14:43.000Z</Time>
            <Position>
              <LatitudeDegrees>43.67173631675541400909423828125</LatitudeDegrees>
              <LongitudeDegrees>-1.43925986252725124359130859375</LongitudeDegrees>
            </Position>
            <AltitudeMeters>15.19999980926513671875</AltitudeMeters>
            <DistanceMeters>NAN</DistanceMeters>
          </Trackpoint>
          <Trackpoint>
            <Time>2022-07-07T09:14:49.000Z</Time>
            <Position>
              <LatitudeDegrees>43.67146968841552734375</LatitudeDegrees>
              <LongitudeDegrees>-1.43929204903542995452880859375</LongitudeDegrees>
            </Position>
            <AltitudeMeters>15</AltitudeMeters>
            <DistanceMeters>NAN</DistanceMeters>
          </Trackpoint>
          <Trackpoint>
            <Time>2022-07-07T09:14:51.000Z</Time>
            <Position>
              <LatitudeDegrees>43.67137757129967212677001953125</LatitudeDegrees>
              <LongitudeDegrees>-1.43930428661406040191650390625</LongitudeDegrees>
            </Position>
            <AltitudeMeters>15</AltitudeMeters>
            <DistanceMeters>NAN</DistanceMeters>
          </Trackpoint>
          <Trackpoint>
            <Time>2022-07-07T09:14:54.000Z</Time>
            <Position>
              <LatitudeDegrees>43.67125150747597217559814453125</LatitudeDegrees>
              <LongitudeDegrees>-1.43934418447315692901611328125</LongitudeDegrees>
            </Position>
            <AltitudeMeters>15.19999980926513671875</AltitudeMeters>
            <DistanceMeters>NAN</DistanceMeters>
          </Trackpoint>
          <Trackpoint>
            <Time>2022-07-07T09:14:57.000Z</Time>
            <Position>
              <LatitudeDegrees>43.671132735908031463623046875</LatitudeDegrees>
              <LongitudeDegrees>-1.43940872512757778167724609375</LongitudeDegrees>
            </Position>
            <AltitudeMeters>15.19999980926513671875</AltitudeMeters>
            <DistanceMeters>NAN</DistanceMeters>
          </Trackpoint>
          <Trackpoint>
            <Time>2022-07-07T09:14:59.000Z</Time>
            <Position>
              <LatitudeDegrees>43.6710487492382526397705078125</LatitudeDegrees>
              <LongitudeDegrees>-1.43942867405712604522705078125</LongitudeDegrees>
            </Position>
            <AltitudeMeters>15.80000019073486328125</AltitudeMeters>
            <DistanceMeters>NAN</DistanceMeters>
          </Trackpoint>
          <Trackpoint>
            <Time>2022-07-07T09:15:02.000Z</Time>
            <Position>
              <LatitudeDegrees>43.670922182500362396240234375</LatitudeDegrees>
              <LongitudeDegrees>-1.43942766822874546051025390625</LongitudeDegrees>
            </Position>
            <AltitudeMeters>16.200000762939453125</AltitudeMeters>
            <DistanceMeters>NAN</DistanceMeters>
          </Trackpoint>
          <Trackpoint>
            <Time>2022-07-07T09:15:03.000Z</Time>
            <Position>
              <LatitudeDegrees>43.6708837933838367462158203125</LatitudeDegrees>
              <LongitudeDegrees>-1.43941677175462245941162109375</LongitudeDegrees>
            </Position>
            <AltitudeMeters>16.200000762939453125</AltitudeMeters>
            <DistanceMeters>NAN</DistanceMeters>
          </Trackpoint>
          <Trackpoint>
            <Time>2022-07-07T09:15:04.000Z</Time>
            <Position>
              <LatitudeDegrees>43.6708442308008670806884765625</LatitudeDegrees>
              <LongitudeDegrees>-1.439403109252452850341796875</LongitudeDegrees>
            </Position>
            <AltitudeMeters>16.200000762939453125</AltitudeMeters>
            <DistanceMeters>NAN</DistanceMeters>
          </Trackpoint>
          <Trackpoint>
            <Time>2022-07-07T09:15:06.000Z</Time>
            <Position>
              <LatitudeDegrees>43.67077457718551158905029296875</LatitudeDegrees>
              <LongitudeDegrees>-1.43934376537799835205078125</LongitudeDegrees>
            </Position>
            <AltitudeMeters>15.80000019073486328125</AltitudeMeters>
            <DistanceMeters>NAN</DistanceMeters>
          </Trackpoint>
          <Trackpoint>
            <Time>2022-07-07T09:15:07.000Z</Time>
            <Position>
              <LatitudeDegrees>43.67074079811573028564453125</LatitudeDegrees>
              <LongitudeDegrees>-1.439301855862140655517578125</LongitudeDegrees>
            </Position>
            <AltitudeMeters>15.80000019073486328125</AltitudeMeters>
            <DistanceMeters>NAN</DistanceMeters>
          </Trackpoint>
          <Trackpoint>
            <Time>2022-07-07T09:15:09.000Z</Time>
            <Position>
              <LatitudeDegrees>43.6706744134426116943359375</LatitudeDegrees>
              <LongitudeDegrees>-1.439211666584014892578125</LongitudeDegrees>
            </Position>
            <AltitudeMeters>15.6000003814697265625</AltitudeMeters>
            <DistanceMeters>NAN</DistanceMeters>
          </Trackpoint>
          <Trackpoint>
            <Time>2022-07-07T09:15:10.000Z</Time>
            <Position>
              <LatitudeDegrees>43.67063895799219608306884765625</LatitudeDegrees>
              <LongitudeDegrees>-1.43916766159236431121826171875</LongitudeDegrees>
            </Position>
            <AltitudeMeters>15.6000003814697265625</AltitudeMeters>
            <DistanceMeters>NAN</DistanceMeters>
          </Trackpoint>
          <Trackpoint>
            <Time>2022-07-07T09:15:11.000Z</Time>
            <Position>
              <LatitudeDegrees>43.67059755139052867889404296875</LatitudeDegrees>
              <LongitudeDegrees>-1.4391330443322658538818359375</LongitudeDegrees>
            </Position>
            <AltitudeMeters>15.6000003814697265625</AltitudeMeters>
            <DistanceMeters>NAN</DistanceMeters>
          </Trackpoint>
          <Trackpoint>
            <Time>2022-07-07T09:15:12.000Z</Time>
            <Position>
              <LatitudeDegrees>43.6705511994659900665283203125</LatitudeDegrees>
              <LongitudeDegrees>-1.4391110837459564208984375</LongitudeDegrees>
            </Position>
            <AltitudeMeters>15.6000003814697265625</AltitudeMeters>
            <DistanceMeters>NAN</DistanceMeters>
          </Trackpoint>
          <Trackpoint>
            <Time>2022-07-07T09:15:13.000Z</Time>
            <Position>
              <LatitudeDegrees>43.6705029197037220001220703125</LatitudeDegrees>
              <LongitudeDegrees>-1.439100690186023712158203125</LongitudeDegrees>
            </Position>
            <AltitudeMeters>15.6000003814697265625</AltitudeMeters>
            <DistanceMeters>NAN</DistanceMeters>
          </Trackpoint>
          <Trackpoint>
            <Time>2022-07-07T09:15:15.000Z</Time>
            <Position>
              <LatitudeDegrees>43.6704169213771820068359375</LatitudeDegrees>
              <LongitudeDegrees>-1.439121477305889129638671875</LongitudeDegrees>
            </Position>
            <AltitudeMeters>15.80000019073486328125</AltitudeMeters>
            <DistanceMeters>NAN</DistanceMeters>
          </Trackpoint>
          <Trackpoint>
            <Time>2022-07-07T09:15:16.000Z</Time>
            <Position>
              <LatitudeDegrees>43.67037978954613208770751953125</LatitudeDegrees>
              <LongitudeDegrees>-1.4391514845192432403564453125</LongitudeDegrees>
            </Position>
            <AltitudeMeters>15.80000019073486328125</AltitudeMeters>
            <DistanceMeters>NAN</DistanceMeters>
          </Trackpoint>
          <Trackpoint>
            <Time>2022-07-07T09:15:22.000Z</Time>
            <Position>
              <LatitudeDegrees>43.6701800487935543060302734375</LatitudeDegrees>
              <LongitudeDegrees>-1.4393026940524578094482421875</LongitudeDegrees>
            </Position>
            <AltitudeMeters>16.200000762939453125</AltitudeMeters>
            <DistanceMeters>NAN</DistanceMeters>
          </Trackpoint>
          <Trackpoint>
            <Time>2022-07-07T09:15:26.000Z</Time>
            <Position>
              <LatitudeDegrees>43.67003730498254299163818359375</LatitudeDegrees>
              <LongitudeDegrees>-1.43934166990220546722412109375</LongitudeDegrees>
            </Position>
            <AltitudeMeters>16.3999996185302734375</AltitudeMeters>
            <DistanceMeters>NAN</DistanceMeters>
          </Trackpoint>
          <Trackpoint>
            <Time>2022-07-07T09:15:29.000Z</Time>
            <Position>
              <LatitudeDegrees>43.669919706881046295166015625</LatitudeDegrees>
              <LongitudeDegrees>-1.4393670670688152313232421875</LongitudeDegrees>
            </Position>
            <AltitudeMeters>16.3999996185302734375</AltitudeMeters>
            <DistanceMeters>NAN</DistanceMeters>
          </Trackpoint>
          <Trackpoint>
            <Time>2022-07-07T09:15:33.000Z</Time>
            <Position>
              <LatitudeDegrees>43.669761456549167633056640625</LatitudeDegrees>
              <LongitudeDegrees>-1.43939380533993244171142578125</LongitudeDegrees>
            </Position>
            <AltitudeMeters>16</AltitudeMeters>
            <DistanceMeters>NAN</DistanceMeters>
          </Trackpoint>
          <Trackpoint>
            <Time>2022-07-07T09:15:37.000Z</Time>
            <Position>
              <LatitudeDegrees>43.66960060782730579376220703125</LatitudeDegrees>
              <LongitudeDegrees>-1.4394099824130535125732421875</LongitudeDegrees>
            </Position>
            <AltitudeMeters>14.80000019073486328125</AltitudeMeters>
            <DistanceMeters>NAN</DistanceMeters>
          </Trackpoint>
          <Trackpoint>
            <Time>2022-07-07T09:15:38.000Z</Time>
            <Position>
              <LatitudeDegrees>43.6695557646453380584716796875</LatitudeDegrees>
              <LongitudeDegrees>-1.439413838088512420654296875</LongitudeDegrees>
            </Position>
            <AltitudeMeters>14.6000003814697265625</AltitudeMeters>
            <DistanceMeters>NAN</DistanceMeters>
          </Trackpoint>
          <Trackpoint>
            <Time>2022-07-07T09:15:47.000Z</Time>
            <Position>
              <LatitudeDegrees>43.669133149087429046630859375</LatitudeDegrees>
              <LongitudeDegrees>-1.43944971263408660888671875</LongitudeDegrees>
            </Position>
            <AltitudeMeters>15.19999980926513671875</AltitudeMeters>
            <DistanceMeters>NAN</DistanceMeters>
          </Trackpoint>
          <Trackpoint>
            <Time>2022-07-07T09:15:58.000Z</Time>
            <Position>
              <LatitudeDegrees>43.66864104755222797393798828125</LatitudeDegrees>
              <LongitudeDegrees>-1.4395008422434329986572265625</LongitudeDegrees>
            </Position>
            <AltitudeMeters>15.3999996185302734375</AltitudeMeters>
            <DistanceMeters>NAN</DistanceMeters>
          </Trackpoint>
          <Trackpoint>
            <Time>2022-07-07T09:16:08.000Z</Time>
            <Position>
              <LatitudeDegrees>43.66821792908012866973876953125</LatitudeDegrees>
              <LongitudeDegrees>-1.43956462852656841278076171875</LongitudeDegrees>
            </Position>
            <AltitudeMeters>15</AltitudeMeters>
            <DistanceMeters>NAN</DistanceMeters>
          </Trackpoint>
          <Trackpoint>
            <Time>2022-07-07T09:16:18.000Z</Time>
            <Position>
              <LatitudeDegrees>43.66777972318232059478759765625</LatitudeDegrees>
              <LongitudeDegrees>-1.43961173482239246368408203125</LongitudeDegrees>
            </Position>
            <AltitudeMeters>14.80000019073486328125</AltitudeMeters>
            <DistanceMeters>NAN</DistanceMeters>
          </Trackpoint>
          <Trackpoint>
            <Time>2022-07-07T09:16:26.000Z</Time>
            <Position>
              <LatitudeDegrees>43.66748166270554065704345703125</LatitudeDegrees>
              <LongitudeDegrees>-1.43964660353958606719970703125</LongitudeDegrees>
            </Position>
            <AltitudeMeters>15.80000019073486328125</AltitudeMeters>
            <DistanceMeters>NAN</DistanceMeters>
          </Trackpoint>
          <Trackpoint>
            <Time>2022-07-07T09:16:31.000Z</Time>
            <Position>
              <LatitudeDegrees>43.667289800941944122314453125</LatitudeDegrees>
              <LongitudeDegrees>-1.439658589661121368408203125</LongitudeDegrees>
            </Position>
            <AltitudeMeters>16.3999996185302734375</AltitudeMeters>
            <DistanceMeters>NAN</DistanceMeters>
          </Trackpoint>
          <Trackpoint>
            <Time>2022-07-07T09:16:36.000Z</Time>
            <Position>
              <LatitudeDegrees>43.66710506379604339599609375</LatitudeDegrees>
              <LongitudeDegrees>-1.4396703243255615234375</LongitudeDegrees>
            </Position>
            <AltitudeMeters>17.200000762939453125</AltitudeMeters>
            <DistanceMeters>NAN</DistanceMeters>
          </Trackpoint>
          <Trackpoint>
            <Time>2022-07-07T09:16:38.000Z</Time>
            <Position>
              <LatitudeDegrees>43.6670381762087345123291015625</LatitudeDegrees>
              <LongitudeDegrees>-1.4396748505532741546630859375</LongitudeDegrees>
            </Position>
            <AltitudeMeters>17.3999996185302734375</AltitudeMeters>
            <DistanceMeters>NAN</DistanceMeters>
          </Trackpoint>
          <Trackpoint>
            <Time>2022-07-07T09:16:41.000Z</Time>
            <Position>
              <LatitudeDegrees>43.66693030111491680145263671875</LatitudeDegrees>
              <LongitudeDegrees>-1.4397013373672962188720703125</LongitudeDegrees>
            </Position>
            <AltitudeMeters>17.3999996185302734375</AltitudeMeters>
            <DistanceMeters>NAN</DistanceMeters>
          </Trackpoint>
          <Trackpoint>
            <Time>2022-07-07T09:16:48.000Z</Time>
            <Position>
              <LatitudeDegrees>43.66664162836968898773193359375</LatitudeDegrees>
              <LongitudeDegrees>-1.43976696766912937164306640625</LongitudeDegrees>
            </Position>
            <AltitudeMeters>16</AltitudeMeters>
            <DistanceMeters>NAN</DistanceMeters>
          </Trackpoint>
          <Trackpoint>
            <Time>2022-07-07T09:16:49.000Z</Time>
            <Position>
              <LatitudeDegrees>43.6666003055870532989501953125</LatitudeDegrees>
              <LongitudeDegrees>-1.43977216444909572601318359375</LongitudeDegrees>
            </Position>
            <AltitudeMeters>16</AltitudeMeters>
            <DistanceMeters>NAN</DistanceMeters>
          </Trackpoint>
          <Trackpoint>
            <Time>2022-07-07T09:16:56.000Z</Time>
            <Position>
              <LatitudeDegrees>43.6663009040057659149169921875</LatitudeDegrees>
              <LongitudeDegrees>-1.43983067013323307037353515625</LongitudeDegrees>
            </Position>
            <AltitudeMeters>16</AltitudeMeters>
            <DistanceMeters>NAN</DistanceMeters>
          </Trackpoint>
          <Trackpoint>
            <Time>2022-07-07T09:16:59.000Z</Time>
            <Position>
              <LatitudeDegrees>43.66619051434099674224853515625</LatitudeDegrees>
              <LongitudeDegrees>-1.4398451708257198333740234375</LongitudeDegrees>
            </Position>
            <AltitudeMeters>16</AltitudeMeters>
            <DistanceMeters>NAN</DistanceMeters>
          </Trackpoint>
          <Trackpoint>
            <Time>2022-07-07T09:17:00.000Z</Time>
            <Position>
              <LatitudeDegrees>43.6661483533680438995361328125</LatitudeDegrees>
              <LongitudeDegrees>-1.4398567378520965576171875</LongitudeDegrees>
            </Position>
            <AltitudeMeters>16</AltitudeMeters>
            <DistanceMeters>NAN</DistanceMeters>
          </Trackpoint>
          <Trackpoint>
            <Time>2022-07-07T09:17:03.000Z</Time>
            <Position>
              <LatitudeDegrees>43.66603259928524494171142578125</LatitudeDegrees>
              <LongitudeDegrees>-1.439878530800342559814453125</LongitudeDegrees>
            </Position>
            <AltitudeMeters>16</AltitudeMeters>
            <DistanceMeters>NAN</DistanceMeters>
          </Trackpoint>
          <Trackpoint>
            <Time>2022-07-07T09:17:05.000Z</Time>
            <Position>
              <LatitudeDegrees>43.66595766507089138031005859375</LatitudeDegrees>
              <LongitudeDegrees>-1.4398927800357341766357421875</LongitudeDegrees>
            </Position>
            <AltitudeMeters>16</AltitudeMeters>
            <DistanceMeters>NAN</DistanceMeters>
          </Trackpoint>
          <Trackpoint>
            <Time>2022-07-07T09:17:06.000Z</Time>
            <Position>
              <LatitudeDegrees>43.66592380218207836151123046875</LatitudeDegrees>
              <LongitudeDegrees>-1.439897976815700531005859375</LongitudeDegrees>
            </Position>
            <AltitudeMeters>15.80000019073486328125</AltitudeMeters>
            <DistanceMeters>NAN</DistanceMeters>
          </Trackpoint>
          <Trackpoint>
            <Time>2022-07-07T09:17:08.000Z</Time>
            <Position>
              <LatitudeDegrees>43.66585440002381801605224609375</LatitudeDegrees>
              <LongitudeDegrees>-1.4399025030434131622314453125</LongitudeDegrees>
            </Position>
            <AltitudeMeters>15.80000019073486328125</AltitudeMeters>
            <DistanceMeters>NAN</DistanceMeters>
          </Trackpoint>
          <Trackpoint>
            <Time>2022-07-07T09:17:10.000Z</Time>
            <Position>
              <LatitudeDegrees>43.66576320491731166839599609375</LatitudeDegrees>
              <LongitudeDegrees>-1.4399157464504241943359375</LongitudeDegrees>
            </Position>
            <AltitudeMeters>16</AltitudeMeters>
            <DistanceMeters>NAN</DistanceMeters>
          </Trackpoint>
          <Trackpoint>
            <Time>2022-07-07T09:17:19.000Z</Time>
            <Position>
              <LatitudeDegrees>43.6653986759483814239501953125</LatitudeDegrees>
              <LongitudeDegrees>-1.43996779806911945343017578125</LongitudeDegrees>
            </Position>
            <AltitudeMeters>16.200000762939453125</AltitudeMeters>
            <DistanceMeters>NAN</DistanceMeters>
          </Trackpoint>
          <Trackpoint>
            <Time>2022-07-07T09:17:20.000Z</Time>
            <Position>
              <LatitudeDegrees>43.665357939898967742919921875</LatitudeDegrees>
              <LongitudeDegrees>-1.4399695582687854766845703125</LongitudeDegrees>
            </Position>
            <AltitudeMeters>16.200000762939453125</AltitudeMeters>
            <DistanceMeters>NAN</DistanceMeters>
          </Trackpoint>
          <Trackpoint>
            <Time>2022-07-07T09:17:29.000Z</Time>
            <Position>
              <LatitudeDegrees>43.665036745369434356689453125</LatitudeDegrees>
              <LongitudeDegrees>-1.44003820605576038360595703125</LongitudeDegrees>
            </Position>
            <AltitudeMeters>17</AltitudeMeters>
            <DistanceMeters>NAN</DistanceMeters>
          </Trackpoint>
          <Trackpoint>
            <Time>2022-07-07T09:17:30.000Z</Time>
            <Position>
              <LatitudeDegrees>43.6650030501186847686767578125</LatitudeDegrees>
              <LongitudeDegrees>-1.4400403015315532684326171875</LongitudeDegrees>
            </Position>
            <AltitudeMeters>17.200000762939453125</AltitudeMeters>
            <DistanceMeters>NAN</DistanceMeters>
          </Trackpoint>
          <Trackpoint>
            <Time>2022-07-07T09:17:38.000Z</Time>
            <Position>
              <LatitudeDegrees>43.6647576279938220977783203125</LatitudeDegrees>
              <LongitudeDegrees>-1.44008003175258636474609375</LongitudeDegrees>
            </Position>
            <AltitudeMeters>17.6000003814697265625</AltitudeMeters>
            <DistanceMeters>NAN</DistanceMeters>
          </Trackpoint>
          <Trackpoint>
            <Time>2022-07-07T09:17:44.000Z</Time>
            <Position>
              <LatitudeDegrees>43.664592839777469635009765625</LatitudeDegrees>
              <LongitudeDegrees>-1.44002906978130340576171875</LongitudeDegrees>
            </Position>
            <AltitudeMeters>17.799999237060546875</AltitudeMeters>
            <DistanceMeters>NAN</DistanceMeters>
          </Trackpoint>
          <Trackpoint>
            <Time>2022-07-07T09:17:47.000Z</Time>
            <Position>
              <LatitudeDegrees>43.66451203823089599609375</LatitudeDegrees>
              <LongitudeDegrees>-1.43995488993823528289794921875</LongitudeDegrees>
            </Position>
            <AltitudeMeters>17.3999996185302734375</AltitudeMeters>
            <DistanceMeters>NAN</DistanceMeters>
          </Trackpoint>
          <Trackpoint>
            <Time>2022-07-07T09:17:48.000Z</Time>
            <Position>
              <LatitudeDegrees>43.6644790135324001312255859375</LatitudeDegrees>
              <LongitudeDegrees>-1.4399628527462482452392578125</LongitudeDegrees>
            </Position>
            <AltitudeMeters>17.3999996185302734375</AltitudeMeters>
            <DistanceMeters>NAN</DistanceMeters>
          </Trackpoint>
          <Trackpoint>
            <Time>2022-07-07T09:17:49.000Z</Time>
            <Position>
              <LatitudeDegrees>43.66445428691804409027099609375</LatitudeDegrees>
              <LongitudeDegrees>-1.4399879984557628631591796875</LongitudeDegrees>
            </Position>
            <AltitudeMeters>17.3999996185302734375</AltitudeMeters>
            <DistanceMeters>NAN</DistanceMeters>
          </Trackpoint>
          <Trackpoint>
            <Time>2022-07-07T09:17:51.000Z</Time>
            <Position>
              <LatitudeDegrees>43.66443199105560779571533203125</LatitudeDegrees>
              <LongitudeDegrees>-1.44005614332854747772216796875</LongitudeDegrees>
            </Position>
            <AltitudeMeters>17.3999996185302734375</AltitudeMeters>
            <DistanceMeters>NAN</DistanceMeters>
          </Trackpoint>
          <Trackpoint>
            <Time>2022-07-07T09:17:55.000Z</Time>
            <Position>
              <LatitudeDegrees>43.66431866772472858428955078125</LatitudeDegrees>
              <LongitudeDegrees>-1.44016343168914318084716796875</LongitudeDegrees>
            </Position>
            <AltitudeMeters>17.200000762939453125</AltitudeMeters>
            <DistanceMeters>NAN</DistanceMeters>
          </Trackpoint>
          <Trackpoint>
            <Time>2022-07-07T09:18:00.000Z</Time>
            <Position>
              <LatitudeDegrees>43.6640817113220691680908203125</LatitudeDegrees>
              <LongitudeDegrees>-1.440204083919525146484375</LongitudeDegrees>
            </Position>
            <AltitudeMeters>17.200000762939453125</AltitudeMeters>
            <DistanceMeters>NAN</DistanceMeters>
          </Trackpoint>
          <Trackpoint>
            <Time>2022-07-07T09:18:08.000Z</Time>
            <Position>
              <LatitudeDegrees>43.6637058667838573455810546875</LatitudeDegrees>
              <LongitudeDegrees>-1.44027524627745151519775390625</LongitudeDegrees>
            </Position>
            <AltitudeMeters>17.3999996185302734375</AltitudeMeters>
            <DistanceMeters>NAN</DistanceMeters>
          </Trackpoint>
          <Trackpoint>
            <Time>2022-07-07T09:18:15.000Z</Time>
            <Position>
              <LatitudeDegrees>43.6634708382189273834228515625</LatitudeDegrees>
              <LongitudeDegrees>-1.440310366451740264892578125</LongitudeDegrees>
            </Position>
            <AltitudeMeters>16.6000003814697265625</AltitudeMeters>
            <DistanceMeters>NAN</DistanceMeters>
          </Trackpoint>
          <Trackpoint>
            <Time>2022-07-07T09:18:19.000Z</Time>
            <Position>
              <LatitudeDegrees>43.6633612029254436492919921875</LatitudeDegrees>
              <LongitudeDegrees>-1.440360657870769500732421875</LongitudeDegrees>
            </Position>
            <AltitudeMeters>16.3999996185302734375</AltitudeMeters>
            <DistanceMeters>NAN</DistanceMeters>
          </Trackpoint>
          <Trackpoint>
            <Time>2022-07-07T09:18:24.000Z</Time>
            <Position>
              <LatitudeDegrees>43.66319985128939151763916015625</LatitudeDegrees>
              <LongitudeDegrees>-1.4404107816517353057861328125</LongitudeDegrees>
            </Position>
            <AltitudeMeters>16.799999237060546875</AltitudeMeters>
            <DistanceMeters>NAN</DistanceMeters>
          </Trackpoint>
          <Trackpoint>
            <Time>2022-07-07T09:18:25.000Z</Time>
            <Position>
              <LatitudeDegrees>43.6631516553461551666259765625</LatitudeDegrees>
              <LongitudeDegrees>-1.44041589461266994476318359375</LongitudeDegrees>
            </Position>
            <AltitudeMeters>16.799999237060546875</AltitudeMeters>
            <DistanceMeters>NAN</DistanceMeters>
          </Trackpoint>
          <Trackpoint>
            <Time>2022-07-07T09:18:31.000Z</Time>
            <Position>
              <LatitudeDegrees>43.66295300424098968505859375</LatitudeDegrees>
              <LongitudeDegrees>-1.44042142666876316070556640625</LongitudeDegrees>
            </Position>
            <AltitudeMeters>17.3999996185302734375</AltitudeMeters>
            <DistanceMeters>NAN</DistanceMeters>
          </Trackpoint>
          <Trackpoint>
            <Time>2022-07-07T09:18:35.000Z</Time>
            <Position>
              <LatitudeDegrees>43.66284211166203022003173828125</LatitudeDegrees>
              <LongitudeDegrees>-1.44039108417928218841552734375</LongitudeDegrees>
            </Position>
            <AltitudeMeters>17.3999996185302734375</AltitudeMeters>
            <DistanceMeters>NAN</DistanceMeters>
          </Trackpoint>
          <Trackpoint>
            <Time>2022-07-07T09:18:37.000Z</Time>
            <Position>
              <LatitudeDegrees>43.66280774585902690887451171875</LatitudeDegrees>
              <LongitudeDegrees>-1.440333835780620574951171875</LongitudeDegrees>
            </Position>
            <AltitudeMeters>17.3999996185302734375</AltitudeMeters>
            <DistanceMeters>NAN</DistanceMeters>
          </Trackpoint>
          <Trackpoint>
            <Time>2022-07-07T09:18:39.000Z</Time>
            <Position>
              <LatitudeDegrees>43.66281780414283275604248046875</LatitudeDegrees>
              <LongitudeDegrees>-1.4402349293231964111328125</LongitudeDegrees>
            </Position>
            <AltitudeMeters>17.200000762939453125</AltitudeMeters>
            <DistanceMeters>NAN</DistanceMeters>
          </Trackpoint>
          <Trackpoint>
            <Time>2022-07-07T09:18:42.000Z</Time>
            <Position>
              <LatitudeDegrees>43.66284177638590335845947265625</LatitudeDegrees>
              <LongitudeDegrees>-1.44004977308213710784912109375</LongitudeDegrees>
            </Position>
            <AltitudeMeters>17</AltitudeMeters>
            <DistanceMeters>NAN</DistanceMeters>
          </Trackpoint>
          <Trackpoint>
            <Time>2022-07-07T09:18:45.000Z</Time>
            <Position>
              <LatitudeDegrees>43.66285719908773899078369140625</LatitudeDegrees>
              <LongitudeDegrees>-1.43986411392688751220703125</LongitudeDegrees>
            </Position>
            <AltitudeMeters>16.6000003814697265625</AltitudeMeters>
            <DistanceMeters>NAN</DistanceMeters>
          </Trackpoint>
          <Trackpoint>
            <Time>2022-07-07T09:18:53.000Z</Time>
            <Position>
              <LatitudeDegrees>43.66289106197655200958251953125</LatitudeDegrees>
              <LongitudeDegrees>-1.439460106194019317626953125</LongitudeDegrees>
            </Position>
            <AltitudeMeters>16.3999996185302734375</AltitudeMeters>
            <DistanceMeters>NAN</DistanceMeters>
          </Trackpoint>
          <Trackpoint>
            <Time>2022-07-07T09:18:58.000Z</Time>
            <Position>
              <LatitudeDegrees>43.6629206500947475433349609375</LatitudeDegrees>
              <LongitudeDegrees>-1.439195908606052398681640625</LongitudeDegrees>
            </Position>
            <AltitudeMeters>16.6000003814697265625</AltitudeMeters>
            <DistanceMeters>NAN</DistanceMeters>
          </Trackpoint>
          <Trackpoint>
            <Time>2022-07-07T09:19:00.000Z</Time>
            <Position>
              <LatitudeDegrees>43.66292660124599933624267578125</LatitudeDegrees>
              <LongitudeDegrees>-1.439067833125591278076171875</LongitudeDegrees>
            </Position>
            <AltitudeMeters>16.6000003814697265625</AltitudeMeters>
            <DistanceMeters>NAN</DistanceMeters>
          </Trackpoint>
          <Trackpoint>
            <Time>2022-07-07T09:19:04.000Z</Time>
            <Position>
              <LatitudeDegrees>43.66289743222296237945556640625</LatitudeDegrees>
              <LongitudeDegrees>-1.43887597136199474334716796875</LongitudeDegrees>
            </Position>
            <AltitudeMeters>16.6000003814697265625</AltitudeMeters>
            <DistanceMeters>NAN</DistanceMeters>
          </Trackpoint>
          <Trackpoint>
            <Time>2022-07-07T09:19:09.000Z</Time>
            <Position>
              <LatitudeDegrees>43.66286776028573513031005859375</LatitudeDegrees>
              <LongitudeDegrees>-1.43859568051993846893310546875</LongitudeDegrees>
            </Position>
            <AltitudeMeters>16.6000003814697265625</AltitudeMeters>
            <DistanceMeters>NAN</DistanceMeters>
          </Trackpoint>
          <Trackpoint>
            <Time>2022-07-07T09:19:15.000Z</Time>
            <Position>
              <LatitudeDegrees>43.662730045616626739501953125</LatitudeDegrees>
              <LongitudeDegrees>-1.4382676966488361358642578125</LongitudeDegrees>
            </Position>
            <AltitudeMeters>16.799999237060546875</AltitudeMeters>
            <DistanceMeters>NAN</DistanceMeters>
          </Trackpoint>
          <Trackpoint>
            <Time>2022-07-07T09:19:16.000Z</Time>
            <Position>
              <LatitudeDegrees>43.6627087555825710296630859375</LatitudeDegrees>
              <LongitudeDegrees>-1.43821162171661853790283203125</LongitudeDegrees>
            </Position>
            <AltitudeMeters>16.799999237060546875</AltitudeMeters>
            <DistanceMeters>NAN</DistanceMeters>
          </Trackpoint>
          <Trackpoint>
            <Time>2022-07-07T09:19:18.000Z</Time>
            <Position>
              <LatitudeDegrees>43.6626564525067806243896484375</LatitudeDegrees>
              <LongitudeDegrees>-1.4381047524511814117431640625</LongitudeDegrees>
            </Position>
            <AltitudeMeters>17</AltitudeMeters>
            <DistanceMeters>NAN</DistanceMeters>
          </Trackpoint>
          <Trackpoint>
            <Time>2022-07-07T09:19:19.000Z</Time>
            <Position>
              <LatitudeDegrees>43.662634156644344329833984375</LatitudeDegrees>
              <LongitudeDegrees>-1.43804021179676055908203125</LongitudeDegrees>
            </Position>
            <AltitudeMeters>17</AltitudeMeters>
            <DistanceMeters>NAN</DistanceMeters>
          </Trackpoint>
          <Trackpoint>
            <Time>2022-07-07T09:19:20.000Z</Time>
            <Position>
              <LatitudeDegrees>43.66263113915920257568359375</LatitudeDegrees>
              <LongitudeDegrees>-1.43793904222548007965087890625</LongitudeDegrees>
            </Position>
            <AltitudeMeters>16.799999237060546875</AltitudeMeters>
            <DistanceMeters>NAN</DistanceMeters>
          </Trackpoint>
          <Trackpoint>
            <Time>2022-07-07T09:19:24.000Z</Time>
            <Position>
              <LatitudeDegrees>43.662588559091091156005859375</LatitudeDegrees>
              <LongitudeDegrees>-1.43772463314235210418701171875</LongitudeDegrees>
            </Position>
            <AltitudeMeters>17</AltitudeMeters>
            <DistanceMeters>NAN</DistanceMeters>
          </Trackpoint>
          <Trackpoint>
            <Time>2022-07-07T09:19:26.000Z</Time>
            <Position>
              <LatitudeDegrees>43.66255511529743671417236328125</LatitudeDegrees>
              <LongitudeDegrees>-1.437604688107967376708984375</LongitudeDegrees>
            </Position>
            <AltitudeMeters>17</AltitudeMeters>
            <DistanceMeters>NAN</DistanceMeters>
          </Trackpoint>
          <Trackpoint>
            <Time>2022-07-07T09:19:27.000Z</Time>
            <Position>
              <LatitudeDegrees>43.66254840977489948272705078125</LatitudeDegrees>
              <LongitudeDegrees>-1.43753939308226108551025390625</LongitudeDegrees>
            </Position>
            <AltitudeMeters>17</AltitudeMeters>
            <DistanceMeters>NAN</DistanceMeters>
          </Trackpoint>
          <Trackpoint>
            <Time>2022-07-07T09:19:28.000Z</Time>
            <Position>
              <LatitudeDegrees>43.66254103370010852813720703125</LatitudeDegrees>
              <LongitudeDegrees>-1.437479294836521148681640625</LongitudeDegrees>
            </Position>
            <AltitudeMeters>17</AltitudeMeters>
            <DistanceMeters>NAN</DistanceMeters>
          </Trackpoint>
          <Trackpoint>
            <Time>2022-07-07T09:19:30.000Z</Time>
            <Position>
              <LatitudeDegrees>43.66251119412481784820556640625</LatitudeDegrees>
              <LongitudeDegrees>-1.437372006475925445556640625</LongitudeDegrees>
            </Position>
            <AltitudeMeters>17.200000762939453125</AltitudeMeters>
            <DistanceMeters>NAN</DistanceMeters>
          </Trackpoint>
          <Trackpoint>
            <Time>2022-07-07T09:19:32.000Z</Time>
            <Position>
              <LatitudeDegrees>43.6624784208834171295166015625</LatitudeDegrees>
              <LongitudeDegrees>-1.437258683145046234130859375</LongitudeDegrees>
            </Position>
            <AltitudeMeters>17.3999996185302734375</AltitudeMeters>
            <DistanceMeters>NAN</DistanceMeters>
          </Trackpoint>
          <Trackpoint>
            <Time>2022-07-07T09:19:34.000Z</Time>
            <Position>
              <LatitudeDegrees>43.66244011558592319488525390625</LatitudeDegrees>
              <LongitudeDegrees>-1.4371425099670886993408203125</LongitudeDegrees>
            </Position>
            <AltitudeMeters>17.3999996185302734375</AltitudeMeters>
            <DistanceMeters>NAN</DistanceMeters>
          </Trackpoint>
          <Trackpoint>
            <Time>2022-07-07T09:19:35.000Z</Time>
            <Position>
              <LatitudeDegrees>43.66241362877190113067626953125</LatitudeDegrees>
              <LongitudeDegrees>-1.437089703977108001708984375</LongitudeDegrees>
            </Position>
            <AltitudeMeters>17.6000003814697265625</AltitudeMeters>
            <DistanceMeters>NAN</DistanceMeters>
          </Trackpoint>
          <Trackpoint>
            <Time>2022-07-07T09:19:40.000Z</Time>
            <Position>
              <LatitudeDegrees>43.66225889883935451507568359375</LatitudeDegrees>
              <LongitudeDegrees>-1.43684704788029193878173828125</LongitudeDegrees>
            </Position>
            <AltitudeMeters>17.6000003814697265625</AltitudeMeters>
            <DistanceMeters>NAN</DistanceMeters>
          </Trackpoint>
          <Trackpoint>
            <Time>2022-07-07T09:19:42.000Z</Time>
            <Position>
              <LatitudeDegrees>43.66221028380095958709716796875</LatitudeDegrees>
              <LongitudeDegrees>-1.43677915446460247039794921875</LongitudeDegrees>
            </Position>
            <AltitudeMeters>17.3999996185302734375</AltitudeMeters>
            <DistanceMeters>NAN</DistanceMeters>
          </Trackpoint>
          <Trackpoint>
            <Time>2022-07-07T09:19:45.000Z</Time>
            <Position>
              <LatitudeDegrees>43.66211405955255031585693359375</LatitudeDegrees>
              <LongitudeDegrees>-1.4366523362696170806884765625</LongitudeDegrees>
            </Position>
            <AltitudeMeters>17.799999237060546875</AltitudeMeters>
            <DistanceMeters>NAN</DistanceMeters>
          </Trackpoint>
          <Trackpoint>
            <Time>2022-07-07T09:19:47.000Z</Time>
            <Position>
              <LatitudeDegrees>43.6620355211198329925537109375</LatitudeDegrees>
              <LongitudeDegrees>-1.43657329492270946502685546875</LongitudeDegrees>
            </Position>
            <AltitudeMeters>18</AltitudeMeters>
            <DistanceMeters>NAN</DistanceMeters>
          </Trackpoint>
          <Trackpoint>
            <Time>2022-07-07T09:19:52.000Z</Time>
            <Position>
              <LatitudeDegrees>43.661843575537204742431640625</LatitudeDegrees>
              <LongitudeDegrees>-1.4364072494208812713623046875</LongitudeDegrees>
            </Position>
            <AltitudeMeters>18</AltitudeMeters>
            <DistanceMeters>NAN</DistanceMeters>
          </Trackpoint>
          <Trackpoint>
            <Time>2022-07-07T09:19:54.000Z</Time>
            <Position>
              <LatitudeDegrees>43.66177551448345184326171875</LatitudeDegrees>
              <LongitudeDegrees>-1.4363435469567775726318359375</LongitudeDegrees>
            </Position>
            <AltitudeMeters>18.200000762939453125</AltitudeMeters>
            <DistanceMeters>NAN</DistanceMeters>
          </Trackpoint>
          <Trackpoint>
            <Time>2022-07-07T09:19:58.000Z</Time>
            <Position>
              <LatitudeDegrees>43.66163427941501140594482421875</LatitudeDegrees>
              <LongitudeDegrees>-1.43622837960720062255859375</LongitudeDegrees>
            </Position>
            <AltitudeMeters>18.200000762939453125</AltitudeMeters>
            <DistanceMeters>NAN</DistanceMeters>
          </Trackpoint>
          <Trackpoint>
            <Time>2022-07-07T09:20:00.000Z</Time>
            <Position>
              <LatitudeDegrees>43.66157946176826953887939453125</LatitudeDegrees>
              <LongitudeDegrees>-1.43613525666296482086181640625</LongitudeDegrees>
            </Position>
            <AltitudeMeters>18.200000762939453125</AltitudeMeters>
            <DistanceMeters>NAN</DistanceMeters>
          </Trackpoint>
          <Trackpoint>
            <Time>2022-07-07T09:20:04.000Z</Time>
            <Position>
              <LatitudeDegrees>43.66147837601602077484130859375</LatitudeDegrees>
              <LongitudeDegrees>-1.43593962304294109344482421875</LongitudeDegrees>
            </Position>
            <AltitudeMeters>18.200000762939453125</AltitudeMeters>
            <DistanceMeters>NAN</DistanceMeters>
          </Trackpoint>
          <Trackpoint>
            <Time>2022-07-07T09:20:06.000Z</Time>
            <Position>
              <LatitudeDegrees>43.6614353768527507781982421875</LatitudeDegrees>
              <LongitudeDegrees>-1.4358342625200748443603515625</LongitudeDegrees>
            </Position>
            <AltitudeMeters>18</AltitudeMeters>
            <DistanceMeters>NAN</DistanceMeters>
          </Trackpoint>
          <Trackpoint>
            <Time>2022-07-07T09:20:07.000Z</Time>
            <Position>
              <LatitudeDegrees>43.66142121143639087677001953125</LatitudeDegrees>
              <LongitudeDegrees>-1.43577667884528636932373046875</LongitudeDegrees>
            </Position>
            <AltitudeMeters>18</AltitudeMeters>
            <DistanceMeters>NAN</DistanceMeters>
          </Trackpoint>
          <Trackpoint>
            <Time>2022-07-07T09:20:09.000Z</Time>
            <Position>
              <LatitudeDegrees>43.66138298995792865753173828125</LatitudeDegrees>
              <LongitudeDegrees>-1.43568456172943115234375</LongitudeDegrees>
            </Position>
            <AltitudeMeters>17.799999237060546875</AltitudeMeters>
            <DistanceMeters>NAN</DistanceMeters>
          </Trackpoint>
          <Trackpoint>
            <Time>2022-07-07T09:20:13.000Z</Time>
            <Position>
              <LatitudeDegrees>43.66129900328814983367919921875</LatitudeDegrees>
              <LongitudeDegrees>-1.435558497905731201171875</LongitudeDegrees>
            </Position>
            <AltitudeMeters>17.799999237060546875</AltitudeMeters>
            <DistanceMeters>NAN</DistanceMeters>
          </Trackpoint>
          <Trackpoint>
            <Time>2022-07-07T09:20:17.000Z</Time>
            <Position>
              <LatitudeDegrees>43.6612358875572681427001953125</LatitudeDegrees>
              <LongitudeDegrees>-1.4354906044900417327880859375</LongitudeDegrees>
            </Position>
            <AltitudeMeters>17.6000003814697265625</AltitudeMeters>
            <DistanceMeters>NAN</DistanceMeters>
          </Trackpoint>
          <Trackpoint>
            <Time>2022-07-07T09:20:18.000Z</Time>
            <Position>
              <LatitudeDegrees>43.66123161278665065765380859375</LatitudeDegrees>
              <LongitudeDegrees>-1.43547124229371547698974609375</LongitudeDegrees>
            </Position>
            <AltitudeMeters>17.6000003814697265625</AltitudeMeters>
            <DistanceMeters>NAN</DistanceMeters>
          </Trackpoint>
          <Trackpoint>
            <Time>2022-07-07T09:20:19.000Z</Time>
            <Position>
              <LatitudeDegrees>43.661235384643077850341796875</LatitudeDegrees>
              <LongitudeDegrees>-1.43545464612543582916259765625</LongitudeDegrees>
            </Position>
            <AltitudeMeters>17.3999996185302734375</AltitudeMeters>
            <DistanceMeters>NAN</DistanceMeters>
          </Trackpoint>
          <Trackpoint>
            <Time>2022-07-07T09:20:21.000Z</Time>
            <Position>
              <LatitudeDegrees>43.66126455366611480712890625</LatitudeDegrees>
              <LongitudeDegrees>-1.43543302081525325775146484375</LongitudeDegrees>
            </Position>
            <AltitudeMeters>17.3999996185302734375</AltitudeMeters>
            <DistanceMeters>NAN</DistanceMeters>
          </Trackpoint>
          <Trackpoint>
            <Time>2022-07-07T09:20:22.000Z</Time>
            <Position>
              <LatitudeDegrees>43.661272265017032623291015625</LatitudeDegrees>
              <LongitudeDegrees>-1.43543167971074581146240234375</LongitudeDegrees>
            </Position>
            <AltitudeMeters>17.6000003814697265625</AltitudeMeters>
            <DistanceMeters>NAN</DistanceMeters>
          </Trackpoint>
          <Trackpoint>
            <Time>2022-07-07T09:20:25.000Z</Time>
            <Position>
              <LatitudeDegrees>43.661272265017032623291015625</LatitudeDegrees>
              <LongitudeDegrees>-1.43543167971074581146240234375</LongitudeDegrees>
            </Position>
            <AltitudeMeters>17.6000003814697265625</AltitudeMeters>
            <DistanceMeters>NAN</DistanceMeters>
          </Trackpoint>
          <Trackpoint>
            <Time>2022-07-07T09:20:36.000Z</Time>
            <Position>
              <LatitudeDegrees>43.66129984147846698760986328125</LatitudeDegrees>
              <LongitudeDegrees>-1.43538205884397029876708984375</LongitudeDegrees>
            </Position>
            <AltitudeMeters>17.799999237060546875</AltitudeMeters>
            <DistanceMeters>NAN</DistanceMeters>
          </Trackpoint>
          <Trackpoint>
            <Time>2022-07-07T09:20:39.000Z</Time>
            <Position>
              <LatitudeDegrees>43.6613160185515880584716796875</LatitudeDegrees>
              <LongitudeDegrees>-1.435265131294727325439453125</LongitudeDegrees>
            </Position>
            <AltitudeMeters>18</AltitudeMeters>
            <DistanceMeters>NAN</DistanceMeters>
          </Trackpoint>
          <Trackpoint>
            <Time>2022-07-07T09:20:41.000Z</Time>
            <Position>
              <LatitudeDegrees>43.66131861694157123565673828125</LatitudeDegrees>
              <LongitudeDegrees>-1.43518122844398021697998046875</LongitudeDegrees>
            </Position>
            <AltitudeMeters>18</AltitudeMeters>
            <DistanceMeters>NAN</DistanceMeters>
          </Trackpoint>
          <Trackpoint>
            <Time>2022-07-07T09:20:46.000Z</Time>
            <Position>
              <LatitudeDegrees>43.66128274239599704742431640625</LatitudeDegrees>
              <LongitudeDegrees>-1.43494955264031887054443359375</LongitudeDegrees>
            </Position>
            <AltitudeMeters>18.3999996185302734375</AltitudeMeters>
            <DistanceMeters>NAN</DistanceMeters>
          </Trackpoint>
          <Trackpoint>
            <Time>2022-07-07T09:20:50.000Z</Time>
            <Position>
              <LatitudeDegrees>43.6613314412534236907958984375</LatitudeDegrees>
              <LongitudeDegrees>-1.43471888266503810882568359375</LongitudeDegrees>
            </Position>
            <AltitudeMeters>18.3999996185302734375</AltitudeMeters>
            <DistanceMeters>NAN</DistanceMeters>
          </Trackpoint>
          <Trackpoint>
            <Time>2022-07-07T09:20:53.000Z</Time>
            <Position>
              <LatitudeDegrees>43.66132683120667934417724609375</LatitudeDegrees>
              <LongitudeDegrees>-1.4345411024987697601318359375</LongitudeDegrees>
            </Position>
            <AltitudeMeters>18.3999996185302734375</AltitudeMeters>
            <DistanceMeters>NAN</DistanceMeters>
          </Trackpoint>
          <Trackpoint>
            <Time>2022-07-07T09:20:54.000Z</Time>
            <Position>
              <LatitudeDegrees>43.6613109894096851348876953125</LatitudeDegrees>
              <LongitudeDegrees>-1.4344844408333301544189453125</LongitudeDegrees>
            </Position>
            <AltitudeMeters>18.3999996185302734375</AltitudeMeters>
            <DistanceMeters>NAN</DistanceMeters>
          </Trackpoint>
          <Trackpoint>
            <Time>2022-07-07T09:20:55.000Z</Time>
            <Position>
              <LatitudeDegrees>43.6612811498343944549560546875</LatitudeDegrees>
              <LongitudeDegrees>-1.43442970700562000274658203125</LongitudeDegrees>
            </Position>
            <AltitudeMeters>18.3999996185302734375</AltitudeMeters>
            <DistanceMeters>NAN</DistanceMeters>
          </Trackpoint>
          <Trackpoint>
            <Time>2022-07-07T09:20:57.000Z</Time>
            <Position>
              <LatitudeDegrees>43.661232702434062957763671875</LatitudeDegrees>
              <LongitudeDegrees>-1.43433851189911365509033203125</LongitudeDegrees>
            </Position>
            <AltitudeMeters>18.3999996185302734375</AltitudeMeters>
            <DistanceMeters>NAN</DistanceMeters>
          </Trackpoint>
          <Trackpoint>
            <Time>2022-07-07T09:21:00.000Z</Time>
            <Position>
              <LatitudeDegrees>43.66125809960067272186279296875</LatitudeDegrees>
              <LongitudeDegrees>-1.43419819884002208709716796875</LongitudeDegrees>
            </Position>
            <AltitudeMeters>18.3999996185302734375</AltitudeMeters>
            <DistanceMeters>NAN</DistanceMeters>
          </Trackpoint>
          <Trackpoint>
            <Time>2022-07-07T09:21:06.000Z</Time>
            <Position>
              <LatitudeDegrees>43.66135030053555965423583984375</LatitudeDegrees>
              <LongitudeDegrees>-1.43389980308711528778076171875</LongitudeDegrees>
            </Position>
            <AltitudeMeters>18.799999237060546875</AltitudeMeters>
            <DistanceMeters>NAN</DistanceMeters>
          </Trackpoint>
          <Trackpoint>
            <Time>2022-07-07T09:21:10.000Z</Time>
            <Position>
              <LatitudeDegrees>43.661335296928882598876953125</LatitudeDegrees>
              <LongitudeDegrees>-1.433728896081447601318359375</LongitudeDegrees>
            </Position>
            <AltitudeMeters>19.200000762939453125</AltitudeMeters>
            <DistanceMeters>NAN</DistanceMeters>
          </Trackpoint>
          <Trackpoint>
            <Time>2022-07-07T09:21:11.000Z</Time>
            <Position>
              <LatitudeDegrees>43.66132817231118679046630859375</LatitudeDegrees>
              <LongitudeDegrees>-1.43369209952652454376220703125</LongitudeDegrees>
            </Position>
            <AltitudeMeters>19.200000762939453125</AltitudeMeters>
            <DistanceMeters>NAN</DistanceMeters>
          </Trackpoint>
          <Trackpoint>
            <Time>2022-07-07T09:21:14.000Z</Time>
            <Position>
              <LatitudeDegrees>43.66132364608347415924072265625</LatitudeDegrees>
              <LongitudeDegrees>-1.43359034322202205657958984375</LongitudeDegrees>
            </Position>
            <AltitudeMeters>19.6000003814697265625</AltitudeMeters>
            <DistanceMeters>NAN</DistanceMeters>
          </Trackpoint>
          <Trackpoint>
            <Time>2022-07-07T09:21:16.000Z</Time>
            <Position>
              <LatitudeDegrees>43.66131283342838287353515625</LatitudeDegrees>
              <LongitudeDegrees>-1.43353736959397792816162109375</LongitudeDegrees>
            </Position>
            <AltitudeMeters>19.799999237060546875</AltitudeMeters>
            <DistanceMeters>NAN</DistanceMeters>
          </Trackpoint>
          <Trackpoint>
            <Time>2022-07-07T09:21:20.000Z</Time>
            <Position>
              <LatitudeDegrees>43.6612613685429096221923828125</LatitudeDegrees>
              <LongitudeDegrees>-1.43342790193855762481689453125</LongitudeDegrees>
            </Position>
            <AltitudeMeters>20.3999996185302734375</AltitudeMeters>
            <DistanceMeters>NAN</DistanceMeters>
          </Trackpoint>
          <Trackpoint>
            <Time>2022-07-07T09:21:21.000Z</Time>
            <Position>
              <LatitudeDegrees>43.6612355522811412811279296875</LatitudeDegrees>
              <LongitudeDegrees>-1.4334031753242015838623046875</LongitudeDegrees>
            </Position>
            <AltitudeMeters>20.6000003814697265625</AltitudeMeters>
            <DistanceMeters>NAN</DistanceMeters>
          </Trackpoint>
          <Trackpoint>
            <Time>2022-07-07T09:21:27.000Z</Time>
            <Position>
              <LatitudeDegrees>43.66121828556060791015625</LatitudeDegrees>
              <LongitudeDegrees>-1.43310855142772197723388671875</LongitudeDegrees>
            </Position>
            <AltitudeMeters>21</AltitudeMeters>
            <DistanceMeters>NAN</DistanceMeters>
          </Trackpoint>
          <Trackpoint>
            <Time>2022-07-07T09:21:30.000Z</Time>
            <Position>
              <LatitudeDegrees>43.66119640879333019256591796875</LatitudeDegrees>
              <LongitudeDegrees>-1.433003358542919158935546875</LongitudeDegrees>
            </Position>
            <AltitudeMeters>21.3999996185302734375</AltitudeMeters>
            <DistanceMeters>NAN</DistanceMeters>
          </Trackpoint>
          <Trackpoint>
            <Time>2022-07-07T09:21:32.000Z</Time>
            <Position>
              <LatitudeDegrees>43.661169670522212982177734375</LatitudeDegrees>
              <LongitudeDegrees>-1.4329049549996852874755859375</LongitudeDegrees>
            </Position>
            <AltitudeMeters>21.3999996185302734375</AltitudeMeters>
            <DistanceMeters>NAN</DistanceMeters>
          </Trackpoint>
          <Trackpoint>
            <Time>2022-07-07T09:21:40.000Z</Time>
            <Position>
              <LatitudeDegrees>43.66101049818098545074462890625</LatitudeDegrees>
              <LongitudeDegrees>-1.43262776546180248260498046875</LongitudeDegrees>
            </Position>
            <AltitudeMeters>21.799999237060546875</AltitudeMeters>
            <DistanceMeters>NAN</DistanceMeters>
          </Trackpoint>
          <Trackpoint>
            <Time>2022-07-07T09:21:52.000Z</Time>
            <Position>
              <LatitudeDegrees>43.66075887344777584075927734375</LatitudeDegrees>
              <LongitudeDegrees>-1.43219693563878536224365234375</LongitudeDegrees>
            </Position>
            <AltitudeMeters>22.200000762939453125</AltitudeMeters>
            <DistanceMeters>NAN</DistanceMeters>
          </Trackpoint>
          <Trackpoint>
            <Time>2022-07-07T09:21:55.000Z</Time>
            <Position>
              <LatitudeDegrees>43.66069550625979900360107421875</LatitudeDegrees>
              <LongitudeDegrees>-1.4320848695933818817138671875</LongitudeDegrees>
            </Position>
            <AltitudeMeters>22.200000762939453125</AltitudeMeters>
            <DistanceMeters>NAN</DistanceMeters>
          </Trackpoint>
          <Trackpoint>
            <Time>2022-07-07T09:21:57.000Z</Time>
            <Position>
              <LatitudeDegrees>43.660652339458465576171875</LatitudeDegrees>
              <LongitudeDegrees>-1.43201437778770923614501953125</LongitudeDegrees>
            </Position>
            <AltitudeMeters>22.3999996185302734375</AltitudeMeters>
            <DistanceMeters>NAN</DistanceMeters>
          </Trackpoint>
          <Trackpoint>
            <Time>2022-07-07T09:21:58.000Z</Time>
            <Position>
              <LatitudeDegrees>43.660630881786346435546875</LatitudeDegrees>
              <LongitudeDegrees>-1.4319799281656742095947265625</LongitudeDegrees>
            </Position>
            <AltitudeMeters>22.3999996185302734375</AltitudeMeters>
            <DistanceMeters>NAN</DistanceMeters>
          </Trackpoint>
          <Trackpoint>
            <Time>2022-07-07T09:22:02.000Z</Time>
            <Position>
              <LatitudeDegrees>43.66053231060504913330078125</LatitudeDegrees>
              <LongitudeDegrees>-1.43182695843279361724853515625</LongitudeDegrees>
            </Position>
            <AltitudeMeters>22.200000762939453125</AltitudeMeters>
            <DistanceMeters>NAN</DistanceMeters>
          </Trackpoint>
          <Trackpoint>
            <Time>2022-07-07T09:22:10.000Z</Time>
            <Position>
              <LatitudeDegrees>43.6603215895593166351318359375</LatitudeDegrees>
              <LongitudeDegrees>-1.43151842057704925537109375</LongitudeDegrees>
            </Position>
            <AltitudeMeters>21.3999996185302734375</AltitudeMeters>
            <DistanceMeters>NAN</DistanceMeters>
          </Trackpoint>
          <Trackpoint>
            <Time>2022-07-07T09:22:11.000Z</Time>
            <Position>
              <LatitudeDegrees>43.6602969467639923095703125</LatitudeDegrees>
              <LongitudeDegrees>-1.4314833842217922210693359375</LongitudeDegrees>
            </Position>
            <AltitudeMeters>21.3999996185302734375</AltitudeMeters>
            <DistanceMeters>NAN</DistanceMeters>
          </Trackpoint>
          <Trackpoint>
            <Time>2022-07-07T09:22:14.000Z</Time>
            <Position>
              <LatitudeDegrees>43.660220168530941009521484375</LatitudeDegrees>
              <LongitudeDegrees>-1.43141004256904125213623046875</LongitudeDegrees>
            </Position>
            <AltitudeMeters>20.799999237060546875</AltitudeMeters>
            <DistanceMeters>NAN</DistanceMeters>
          </Trackpoint>
          <Trackpoint>
            <Time>2022-07-07T09:22:17.000Z</Time>
            <Position>
              <LatitudeDegrees>43.66013257764279842376708984375</LatitudeDegrees>
              <LongitudeDegrees>-1.4313053525984287261962890625</LongitudeDegrees>
            </Position>
            <AltitudeMeters>20.200000762939453125</AltitudeMeters>
            <DistanceMeters>NAN</DistanceMeters>
          </Trackpoint>
          <Trackpoint>
            <Time>2022-07-07T09:22:19.000Z</Time>
            <Position>
              <LatitudeDegrees>43.660068623721599578857421875</LatitudeDegrees>
              <LongitudeDegrees>-1.43121457658708095550537109375</LongitudeDegrees>
            </Position>
            <AltitudeMeters>19.799999237060546875</AltitudeMeters>
            <DistanceMeters>NAN</DistanceMeters>
          </Trackpoint>
          <Trackpoint>
            <Time>2022-07-07T09:22:21.000Z</Time>
            <Position>
              <LatitudeDegrees>43.66001590155065059661865234375</LatitudeDegrees>
              <LongitudeDegrees>-1.43114618025720119476318359375</LongitudeDegrees>
            </Position>
            <AltitudeMeters>19.200000762939453125</AltitudeMeters>
            <DistanceMeters>NAN</DistanceMeters>
          </Trackpoint>
          <Trackpoint>
            <Time>2022-07-07T09:22:24.000Z</Time>
            <Position>
              <LatitudeDegrees>43.659960329532623291015625</LatitudeDegrees>
              <LongitudeDegrees>-1.43106638453900814056396484375</LongitudeDegrees>
            </Position>
            <AltitudeMeters>18.6000003814697265625</AltitudeMeters>
            <DistanceMeters>NAN</DistanceMeters>
          </Trackpoint>
          <Trackpoint>
            <Time>2022-07-07T09:22:28.000Z</Time>
            <Position>
              <LatitudeDegrees>43.6599262990057468414306640625</LatitudeDegrees>
              <LongitudeDegrees>-1.4309201203286647796630859375</LongitudeDegrees>
            </Position>
            <AltitudeMeters>18</AltitudeMeters>
            <DistanceMeters>NAN</DistanceMeters>
          </Trackpoint>
          <Trackpoint>
            <Time>2022-07-07T09:22:33.000Z</Time>
            <Position>
              <LatitudeDegrees>43.65991347469389438629150390625</LatitudeDegrees>
              <LongitudeDegrees>-1.4307420887053012847900390625</LongitudeDegrees>
            </Position>
            <AltitudeMeters>17.799999237060546875</AltitudeMeters>
            <DistanceMeters>NAN</DistanceMeters>
          </Trackpoint>
          <Trackpoint>
            <Time>2022-07-07T09:22:39.000Z</Time>
            <Position>
              <LatitudeDegrees>43.6598329246044158935546875</LatitudeDegrees>
              <LongitudeDegrees>-1.43047504127025604248046875</LongitudeDegrees>
            </Position>
            <AltitudeMeters>17.6000003814697265625</AltitudeMeters>
            <DistanceMeters>NAN</DistanceMeters>
          </Trackpoint>
          <Trackpoint>
            <Time>2022-07-07T09:22:42.000Z</Time>
            <Position>
              <LatitudeDegrees>43.6598136462271213531494140625</LatitudeDegrees>
              <LongitudeDegrees>-1.43033229745924472808837890625</LongitudeDegrees>
            </Position>
            <AltitudeMeters>17.6000003814697265625</AltitudeMeters>
            <DistanceMeters>NAN</DistanceMeters>
          </Trackpoint>
          <Trackpoint>
            <Time>2022-07-07T09:22:44.000Z</Time>
            <Position>
              <LatitudeDegrees>43.65978154353797435760498046875</LatitudeDegrees>
              <LongitudeDegrees>-1.43025367520749568939208984375</LongitudeDegrees>
            </Position>
            <AltitudeMeters>17.6000003814697265625</AltitudeMeters>
            <DistanceMeters>NAN</DistanceMeters>
          </Trackpoint>
          <Trackpoint>
            <Time>2022-07-07T09:22:47.000Z</Time>
            <Position>
              <LatitudeDegrees>43.6597363650798797607421875</LatitudeDegrees>
              <LongitudeDegrees>-1.43016046844422817230224609375</LongitudeDegrees>
            </Position>
            <AltitudeMeters>17.6000003814697265625</AltitudeMeters>
            <DistanceMeters>NAN</DistanceMeters>
          </Trackpoint>
          <Trackpoint>
            <Time>2022-07-07T09:22:50.000Z</Time>
            <Position>
              <LatitudeDegrees>43.65970443002879619598388671875</LatitudeDegrees>
              <LongitudeDegrees>-1.430062986910343170166015625</LongitudeDegrees>
            </Position>
            <AltitudeMeters>17.3999996185302734375</AltitudeMeters>
            <DistanceMeters>NAN</DistanceMeters>
          </Trackpoint>
          <Trackpoint>
            <Time>2022-07-07T09:22:57.000Z</Time>
            <Position>
              <LatitudeDegrees>43.659612648189067840576171875</LatitudeDegrees>
              <LongitudeDegrees>-1.429816223680973052978515625</LongitudeDegrees>
            </Position>
            <AltitudeMeters>17.200000762939453125</AltitudeMeters>
            <DistanceMeters>NAN</DistanceMeters>
          </Trackpoint>
          <Trackpoint>
            <Time>2022-07-07T09:22:58.000Z</Time>
            <Position>
              <LatitudeDegrees>43.659596554934978485107421875</LatitudeDegrees>
              <LongitudeDegrees>-1.4297858811914920806884765625</LongitudeDegrees>
            </Position>
            <AltitudeMeters>17.200000762939453125</AltitudeMeters>
            <DistanceMeters>NAN</DistanceMeters>
          </Trackpoint>
          <Trackpoint>
            <Time>2022-07-07T09:23:03.000Z</Time>
            <Position>
              <LatitudeDegrees>43.6595192737877368927001953125</LatitudeDegrees>
              <LongitudeDegrees>-1.429623104631900787353515625</LongitudeDegrees>
            </Position>
            <AltitudeMeters>17.200000762939453125</AltitudeMeters>
            <DistanceMeters>NAN</DistanceMeters>
          </Trackpoint>
          <Trackpoint>
            <Time>2022-07-07T09:23:06.000Z</Time>
            <Position>
              <LatitudeDegrees>43.65946303121745586395263671875</LatitudeDegrees>
              <LongitudeDegrees>-1.4294908381998538970947265625</LongitudeDegrees>
            </Position>
            <AltitudeMeters>17.200000762939453125</AltitudeMeters>
            <DistanceMeters>NAN</DistanceMeters>
          </Trackpoint>
          <Trackpoint>
            <Time>2022-07-07T09:23:13.000Z</Time>
            <Position>
              <LatitudeDegrees>43.65936286747455596923828125</LatitudeDegrees>
              <LongitudeDegrees>-1.42919118516147136688232421875</LongitudeDegrees>
            </Position>
            <AltitudeMeters>17.200000762939453125</AltitudeMeters>
            <DistanceMeters>NAN</DistanceMeters>
          </Trackpoint>
          <Trackpoint>
            <Time>2022-07-07T09:23:16.000Z</Time>
            <Position>
              <LatitudeDegrees>43.65932263433933258056640625</LatitudeDegrees>
              <LongitudeDegrees>-1.42906545661389827728271484375</LongitudeDegrees>
            </Position>
            <AltitudeMeters>17</AltitudeMeters>
            <DistanceMeters>NAN</DistanceMeters>
          </Trackpoint>
          <Trackpoint>
            <Time>2022-07-07T09:23:21.000Z</Time>
            <Position>
              <LatitudeDegrees>43.6592812277376651763916015625</LatitudeDegrees>
              <LongitudeDegrees>-1.42888273112475872039794921875</LongitudeDegrees>
            </Position>
            <AltitudeMeters>16.799999237060546875</AltitudeMeters>
            <DistanceMeters>NAN</DistanceMeters>
          </Trackpoint>
          <Trackpoint>
            <Time>2022-07-07T09:23:22.000Z</Time>
            <Position>
              <LatitudeDegrees>43.65929313004016876220703125</LatitudeDegrees>
              <LongitudeDegrees>-1.42884702421724796295166015625</LongitudeDegrees>
            </Position>
            <AltitudeMeters>16.799999237060546875</AltitudeMeters>
            <DistanceMeters>NAN</DistanceMeters>
          </Trackpoint>
          <Trackpoint>
            <Time>2022-07-07T09:23:27.000Z</Time>
            <Position>
              <LatitudeDegrees>43.65930779837071895599365234375</LatitudeDegrees>
              <LongitudeDegrees>-1.42864233814179897308349609375</LongitudeDegrees>
            </Position>
            <AltitudeMeters>16.799999237060546875</AltitudeMeters>
            <DistanceMeters>NAN</DistanceMeters>
          </Trackpoint>
          <Trackpoint>
            <Time>2022-07-07T09:23:33.000Z</Time>
            <Position>
              <LatitudeDegrees>43.65928315557539463043212890625</LatitudeDegrees>
              <LongitudeDegrees>-1.42841552384197711944580078125</LongitudeDegrees>
            </Position>
            <AltitudeMeters>16.6000003814697265625</AltitudeMeters>
            <DistanceMeters>NAN</DistanceMeters>
          </Trackpoint>
          <Trackpoint>
            <Time>2022-07-07T09:23:37.000Z</Time>
            <Position>
              <LatitudeDegrees>43.65924510173499584197998046875</LatitudeDegrees>
              <LongitudeDegrees>-1.4282856881618499755859375</LongitudeDegrees>
            </Position>
            <AltitudeMeters>16.6000003814697265625</AltitudeMeters>
            <DistanceMeters>NAN</DistanceMeters>
          </Trackpoint>
          <Trackpoint>
            <Time>2022-07-07T09:23:39.000Z</Time>
            <Position>
              <LatitudeDegrees>43.65921534597873687744140625</LatitudeDegrees>
              <LongitudeDegrees>-1.42824369482696056365966796875</LongitudeDegrees>
            </Position>
            <AltitudeMeters>16.6000003814697265625</AltitudeMeters>
            <DistanceMeters>NAN</DistanceMeters>
          </Trackpoint>
          <Trackpoint>
            <Time>2022-07-07T09:23:40.000Z</Time>
            <Position>
              <LatitudeDegrees>43.65920017473399639129638671875</LatitudeDegrees>
              <LongitudeDegrees>-1.42823631875216960906982421875</LongitudeDegrees>
            </Position>
            <AltitudeMeters>16.6000003814697265625</AltitudeMeters>
            <DistanceMeters>NAN</DistanceMeters>
          </Trackpoint>
          <Trackpoint>
            <Time>2022-07-07T09:23:43.000Z</Time>
            <Position>
              <LatitudeDegrees>43.659153990447521209716796875</LatitudeDegrees>
              <LongitudeDegrees>-1.42826749943196773529052734375</LongitudeDegrees>
            </Position>
            <AltitudeMeters>16.6000003814697265625</AltitudeMeters>
            <DistanceMeters>NAN</DistanceMeters>
          </Trackpoint>
          <Trackpoint>
            <Time>2022-07-07T09:23:44.000Z</Time>
            <Position>
              <LatitudeDegrees>43.65913915447890758514404296875</LatitudeDegrees>
              <LongitudeDegrees>-1.42827822826802730560302734375</LongitudeDegrees>
            </Position>
            <AltitudeMeters>16.6000003814697265625</AltitudeMeters>
            <DistanceMeters>NAN</DistanceMeters>
          </Trackpoint>
          <Trackpoint>
            <Time>2022-07-07T09:23:48.000Z</Time>
            <Position>
              <LatitudeDegrees>43.659049384295940399169921875</LatitudeDegrees>
              <LongitudeDegrees>-1.4282965846359729766845703125</LongitudeDegrees>
            </Position>
            <AltitudeMeters>16.6000003814697265625</AltitudeMeters>
            <DistanceMeters>NAN</DistanceMeters>
          </Trackpoint>
          <Trackpoint>
            <Time>2022-07-07T09:23:53.000Z</Time>
            <Position>
              <LatitudeDegrees>43.65893815644085407257080078125</LatitudeDegrees>
              <LongitudeDegrees>-1.4283378235995769500732421875</LongitudeDegrees>
            </Position>
            <AltitudeMeters>16.3999996185302734375</AltitudeMeters>
            <DistanceMeters>NAN</DistanceMeters>
          </Trackpoint>
          <Trackpoint>
            <Time>2022-07-07T09:23:59.000Z</Time>
            <Position>
              <LatitudeDegrees>43.658823072910308837890625</LatitudeDegrees>
              <LongitudeDegrees>-1.42836255021393299102783203125</LongitudeDegrees>
            </Position>
            <AltitudeMeters>16.200000762939453125</AltitudeMeters>
            <DistanceMeters>NAN</DistanceMeters>
          </Trackpoint>
          <Trackpoint>
            <Time>2022-07-07T09:24:01.000Z</Time>
            <Position>
              <LatitudeDegrees>43.65878929384052753448486328125</LatitudeDegrees>
              <LongitudeDegrees>-1.4283763803541660308837890625</LongitudeDegrees>
            </Position>
            <AltitudeMeters>16</AltitudeMeters>
            <DistanceMeters>NAN</DistanceMeters>
          </Trackpoint>
          <Trackpoint>
            <Time>2022-07-07T09:24:05.000Z</Time>
            <Position>
              <LatitudeDegrees>43.6586951650679111480712890625</LatitudeDegrees>
              <LongitudeDegrees>-1.42842960543930530548095703125</LongitudeDegrees>
            </Position>
            <AltitudeMeters>15.80000019073486328125</AltitudeMeters>
            <DistanceMeters>NAN</DistanceMeters>
          </Trackpoint>
          <Trackpoint>
            <Time>2022-07-07T09:24:07.000Z</Time>
            <Position>
              <LatitudeDegrees>43.6586458794772624969482421875</LatitudeDegrees>
              <LongitudeDegrees>-1.4284508116543292999267578125</LongitudeDegrees>
            </Position>
            <AltitudeMeters>15.80000019073486328125</AltitudeMeters>
            <DistanceMeters>NAN</DistanceMeters>
          </Trackpoint>
          <Trackpoint>
            <Time>2022-07-07T09:24:10.000Z</Time>
            <Position>
              <LatitudeDegrees>43.65857295691967010498046875</LatitudeDegrees>
              <LongitudeDegrees>-1.42848844639956951141357421875</LongitudeDegrees>
            </Position>
            <AltitudeMeters>15.80000019073486328125</AltitudeMeters>
            <DistanceMeters>NAN</DistanceMeters>
          </Trackpoint>
          <Trackpoint>
            <Time>2022-07-07T09:24:11.000Z</Time>
            <Position>
              <LatitudeDegrees>43.65855686366558074951171875</LatitudeDegrees>
              <LongitudeDegrees>-1.428488194942474365234375</LongitudeDegrees>
            </Position>
            <AltitudeMeters>15.80000019073486328125</AltitudeMeters>
            <DistanceMeters>NAN</DistanceMeters>
          </Trackpoint>
          <Trackpoint>
            <Time>2022-07-07T09:24:12.000Z</Time>
            <Position>
              <LatitudeDegrees>43.6585382558405399322509765625</LatitudeDegrees>
              <LongitudeDegrees>-1.42850018106400966644287109375</LongitudeDegrees>
            </Position>
            <AltitudeMeters>15.6000003814697265625</AltitudeMeters>
            <DistanceMeters>NAN</DistanceMeters>
          </Trackpoint>
          <Trackpoint>
            <Time>2022-07-07T09:24:15.000Z</Time>
            <Position>
              <LatitudeDegrees>43.65846776403486728668212890625</LatitudeDegrees>
              <LongitudeDegrees>-1.428547538816928863525390625</LongitudeDegrees>
            </Position>
            <AltitudeMeters>15.6000003814697265625</AltitudeMeters>
            <DistanceMeters>NAN</DistanceMeters>
          </Trackpoint>
          <Trackpoint>
            <Time>2022-07-07T09:24:19.000Z</Time>
            <Position>
              <LatitudeDegrees>43.65841898135840892791748046875</LatitudeDegrees>
              <LongitudeDegrees>-1.4285584352910518646240234375</LongitudeDegrees>
            </Position>
            <AltitudeMeters>15.3999996185302734375</AltitudeMeters>
            <DistanceMeters>NAN</DistanceMeters>
          </Trackpoint>
          <Trackpoint>
            <Time>2022-07-07T09:24:20.000Z</Time>
            <Position>
              <LatitudeDegrees>43.65840774960815906524658203125</LatitudeDegrees>
              <LongitudeDegrees>-1.42855533398687839508056640625</LongitudeDegrees>
            </Position>
            <AltitudeMeters>15.3999996185302734375</AltitudeMeters>
            <DistanceMeters>NAN</DistanceMeters>
          </Trackpoint>
          <Trackpoint>
            <Time>2022-07-07T09:24:21.000Z</Time>
            <Position>
              <LatitudeDegrees>43.658388219773769378662109375</LatitudeDegrees>
              <LongitudeDegrees>-1.42856388352811336517333984375</LongitudeDegrees>
            </Position>
            <AltitudeMeters>15.3999996185302734375</AltitudeMeters>
            <DistanceMeters>NAN</DistanceMeters>
          </Trackpoint>
          <Trackpoint>
            <Time>2022-07-07T09:24:24.000Z</Time>
            <Position>
              <LatitudeDegrees>43.65831035189330577850341796875</LatitudeDegrees>
              <LongitudeDegrees>-1.42859883606433868408203125</LongitudeDegrees>
            </Position>
            <AltitudeMeters>15.3999996185302734375</AltitudeMeters>
            <DistanceMeters>NAN</DistanceMeters>
          </Trackpoint>
          <Trackpoint>
            <Time>2022-07-07T09:24:27.000Z</Time>
            <Position>
              <LatitudeDegrees>43.65824597887694835662841796875</LatitudeDegrees>
              <LongitudeDegrees>-1.42860956490039825439453125</LongitudeDegrees>
            </Position>
            <AltitudeMeters>15.19999980926513671875</AltitudeMeters>
            <DistanceMeters>NAN</DistanceMeters>
          </Trackpoint>
          <Trackpoint>
            <Time>2022-07-07T09:24:29.000Z</Time>
            <Position>
              <LatitudeDegrees>43.6581956036388874053955078125</LatitudeDegrees>
              <LongitudeDegrees>-1.42863077111542224884033203125</LongitudeDegrees>
            </Position>
            <AltitudeMeters>15.19999980926513671875</AltitudeMeters>
            <DistanceMeters>NAN</DistanceMeters>
          </Trackpoint>
          <Trackpoint>
            <Time>2022-07-07T09:24:34.000Z</Time>
            <Position>
              <LatitudeDegrees>43.65802771411836147308349609375</LatitudeDegrees>
              <LongitudeDegrees>-1.4286960661411285400390625</LongitudeDegrees>
            </Position>
            <AltitudeMeters>15</AltitudeMeters>
            <DistanceMeters>NAN</DistanceMeters>
          </Trackpoint>
          <Trackpoint>
            <Time>2022-07-07T09:24:35.000Z</Time>
            <Position>
              <LatitudeDegrees>43.6579944379627704620361328125</LatitudeDegrees>
              <LongitudeDegrees>-1.428711153566837310791015625</LongitudeDegrees>
            </Position>
            <AltitudeMeters>15</AltitudeMeters>
            <DistanceMeters>NAN</DistanceMeters>
          </Trackpoint>
          <Trackpoint>
            <Time>2022-07-07T09:24:43.000Z</Time>
            <Position>
              <LatitudeDegrees>43.65774574689567089080810546875</LatitudeDegrees>
              <LongitudeDegrees>-1.42881098203361034393310546875</LongitudeDegrees>
            </Position>
            <AltitudeMeters>15</AltitudeMeters>
            <DistanceMeters>NAN</DistanceMeters>
          </Trackpoint>
          <Trackpoint>
            <Time>2022-07-07T09:24:51.000Z</Time>
            <Position>
              <LatitudeDegrees>43.65751407109200954437255859375</LatitudeDegrees>
              <LongitudeDegrees>-1.42891391180455684661865234375</LongitudeDegrees>
            </Position>
            <AltitudeMeters>14.80000019073486328125</AltitudeMeters>
            <DistanceMeters>NAN</DistanceMeters>
          </Trackpoint>
          <Trackpoint>
            <Time>2022-07-07T09:24:52.000Z</Time>
            <Position>
              <LatitudeDegrees>43.65749076940119266510009765625</LatitudeDegrees>
              <LongitudeDegrees>-1.42892983742058277130126953125</LongitudeDegrees>
            </Position>
            <AltitudeMeters>14.80000019073486328125</AltitudeMeters>
            <DistanceMeters>NAN</DistanceMeters>
          </Trackpoint>
          <Trackpoint>
            <Time>2022-07-07T09:24:54.000Z</Time>
            <Position>
              <LatitudeDegrees>43.65743008442223072052001953125</LatitudeDegrees>
              <LongitudeDegrees>-1.42895632423460483551025390625</LongitudeDegrees>
            </Position>
            <AltitudeMeters>14.80000019073486328125</AltitudeMeters>
            <DistanceMeters>NAN</DistanceMeters>
          </Trackpoint>
          <Trackpoint>
            <Time>2022-07-07T09:25:00.000Z</Time>
            <Position>
              <LatitudeDegrees>43.657286502420902252197265625</LatitudeDegrees>
              <LongitudeDegrees>-1.4290626905858516693115234375</LongitudeDegrees>
            </Position>
            <AltitudeMeters>14.80000019073486328125</AltitudeMeters>
            <DistanceMeters>NAN</DistanceMeters>
          </Trackpoint>
          <Trackpoint>
            <Time>2022-07-07T09:25:01.000Z</Time>
            <Position>
              <LatitudeDegrees>43.657268397510051727294921875</LatitudeDegrees>
              <LongitudeDegrees>-1.42908163368701934814453125</LongitudeDegrees>
            </Position>
            <AltitudeMeters>14.80000019073486328125</AltitudeMeters>
            <DistanceMeters>NAN</DistanceMeters>
          </Trackpoint>
          <Trackpoint>
            <Time>2022-07-07T09:25:04.000Z</Time>
            <Position>
              <LatitudeDegrees>43.657205365598201751708984375</LatitudeDegrees>
              <LongitudeDegrees>-1.42908833920955657958984375</LongitudeDegrees>
            </Position>
            <AltitudeMeters>15</AltitudeMeters>
            <DistanceMeters>NAN</DistanceMeters>
          </Trackpoint>
          <Trackpoint>
            <Time>2022-07-07T09:25:09.000Z</Time>
            <Position>
              <LatitudeDegrees>43.65705675445497035980224609375</LatitudeDegrees>
              <LongitudeDegrees>-1.42913117073476314544677734375</LongitudeDegrees>
            </Position>
            <AltitudeMeters>15</AltitudeMeters>
            <DistanceMeters>NAN</DistanceMeters>
          </Trackpoint>
          <Trackpoint>
            <Time>2022-07-07T09:25:16.000Z</Time>
            <Position>
              <LatitudeDegrees>43.65685391239821910858154296875</LatitudeDegrees>
              <LongitudeDegrees>-1.42923049628734588623046875</LongitudeDegrees>
            </Position>
            <AltitudeMeters>15</AltitudeMeters>
            <DistanceMeters>NAN</DistanceMeters>
          </Trackpoint>
          <Trackpoint>
            <Time>2022-07-07T09:25:21.000Z</Time>
            <Position>
              <LatitudeDegrees>43.656696416437625885009765625</LatitudeDegrees>
              <LongitudeDegrees>-1.429309286177158355712890625</LongitudeDegrees>
            </Position>
            <AltitudeMeters>15.19999980926513671875</AltitudeMeters>
            <DistanceMeters>NAN</DistanceMeters>
          </Trackpoint>
          <Trackpoint>
            <Time>2022-07-07T09:25:26.000Z</Time>
            <Position>
              <LatitudeDegrees>43.6565319634974002838134765625</LatitudeDegrees>
              <LongitudeDegrees>-1.4293818734586238861083984375</LongitudeDegrees>
            </Position>
            <AltitudeMeters>15.3999996185302734375</AltitudeMeters>
            <DistanceMeters>NAN</DistanceMeters>
          </Trackpoint>
          <Trackpoint>
            <Time>2022-07-07T09:25:33.000Z</Time>
            <Position>
              <LatitudeDegrees>43.65627153776586055755615234375</LatitudeDegrees>
              <LongitudeDegrees>-1.42949461005628108978271484375</LongitudeDegrees>
            </Position>
            <AltitudeMeters>15.80000019073486328125</AltitudeMeters>
            <DistanceMeters>NAN</DistanceMeters>
          </Trackpoint>
          <Trackpoint>
            <Time>2022-07-07T09:25:38.000Z</Time>
            <Position>
              <LatitudeDegrees>43.656112365424633026123046875</LatitudeDegrees>
              <LongitudeDegrees>-1.4295729808509349822998046875</LongitudeDegrees>
            </Position>
            <AltitudeMeters>16</AltitudeMeters>
            <DistanceMeters>NAN</DistanceMeters>
          </Trackpoint>
          <Trackpoint>
            <Time>2022-07-07T09:25:41.000Z</Time>
            <Position>
              <LatitudeDegrees>43.65602108649909496307373046875</LatitudeDegrees>
              <LongitudeDegrees>-1.429612375795841217041015625</LongitudeDegrees>
            </Position>
            <AltitudeMeters>16</AltitudeMeters>
            <DistanceMeters>NAN</DistanceMeters>
          </Trackpoint>
          <Trackpoint>
            <Time>2022-07-07T09:25:48.000Z</Time>
            <Position>
              <LatitudeDegrees>43.65577809512615203857421875</LatitudeDegrees>
              <LongitudeDegrees>-1.4297206699848175048828125</LongitudeDegrees>
            </Position>
            <AltitudeMeters>16</AltitudeMeters>
            <DistanceMeters>NAN</DistanceMeters>
          </Trackpoint>
          <Trackpoint>
            <Time>2022-07-07T09:25:54.000Z</Time>
            <Position>
              <LatitudeDegrees>43.65556058473885059356689453125</LatitudeDegrees>
              <LongitudeDegrees>-1.4298254437744617462158203125</LongitudeDegrees>
            </Position>
            <AltitudeMeters>15.80000019073486328125</AltitudeMeters>
            <DistanceMeters>NAN</DistanceMeters>
          </Trackpoint>
          <Trackpoint>
            <Time>2022-07-07T09:25:57.000Z</Time>
            <Position>
              <LatitudeDegrees>43.65545690059661865234375</LatitudeDegrees>
              <LongitudeDegrees>-1.42986207269132137298583984375</LongitudeDegrees>
            </Position>
            <AltitudeMeters>15.80000019073486328125</AltitudeMeters>
            <DistanceMeters>NAN</DistanceMeters>
          </Trackpoint>
          <Trackpoint>
            <Time>2022-07-07T09:26:03.000Z</Time>
            <Position>
              <LatitudeDegrees>43.65522614680230617523193359375</LatitudeDegrees>
              <LongitudeDegrees>-1.42993465997278690338134765625</LongitudeDegrees>
            </Position>
            <AltitudeMeters>15.6000003814697265625</AltitudeMeters>
            <DistanceMeters>NAN</DistanceMeters>
          </Trackpoint>
          <Trackpoint>
            <Time>2022-07-07T09:26:10.000Z</Time>
            <Position>
              <LatitudeDegrees>43.65499346517026424407958984375</LatitudeDegrees>
              <LongitudeDegrees>-1.43000992946326732635498046875</LongitudeDegrees>
            </Position>
            <AltitudeMeters>15.19999980926513671875</AltitudeMeters>
            <DistanceMeters>NAN</DistanceMeters>
          </Trackpoint>
          <Trackpoint>
            <Time>2022-07-07T09:26:16.000Z</Time>
            <Position>
              <LatitudeDegrees>43.65481308661401271820068359375</LatitudeDegrees>
              <LongitudeDegrees>-1.43016532994806766510009765625</LongitudeDegrees>
            </Position>
            <AltitudeMeters>15.19999980926513671875</AltitudeMeters>
            <DistanceMeters>NAN</DistanceMeters>
          </Trackpoint>
          <Trackpoint>
            <Time>2022-07-07T09:26:17.000Z</Time>
            <Position>
              <LatitudeDegrees>43.6547969095408916473388671875</LatitudeDegrees>
              <LongitudeDegrees>-1.43021226860582828521728515625</LongitudeDegrees>
            </Position>
            <AltitudeMeters>15.19999980926513671875</AltitudeMeters>
            <DistanceMeters>NAN</DistanceMeters>
          </Trackpoint>
          <Trackpoint>
            <Time>2022-07-07T09:26:20.000Z</Time>
            <Position>
              <LatitudeDegrees>43.65476162172853946685791015625</LatitudeDegrees>
              <LongitudeDegrees>-1.43033020198345184326171875</LongitudeDegrees>
            </Position>
            <AltitudeMeters>15.19999980926513671875</AltitudeMeters>
            <DistanceMeters>NAN</DistanceMeters>
          </Trackpoint>
          <Trackpoint>
            <Time>2022-07-07T09:26:22.000Z</Time>
            <Position>
              <LatitudeDegrees>43.65472926758229732513427734375</LatitudeDegrees>
              <LongitudeDegrees>-1.43038677982985973358154296875</LongitudeDegrees>
            </Position>
            <AltitudeMeters>15</AltitudeMeters>
            <DistanceMeters>NAN</DistanceMeters>
          </Trackpoint>
          <Trackpoint>
            <Time>2022-07-07T09:26:23.000Z</Time>
            <Position>
              <LatitudeDegrees>43.65470118820667266845703125</LatitudeDegrees>
              <LongitudeDegrees>-1.430396251380443572998046875</LongitudeDegrees>
            </Position>
            <AltitudeMeters>14.80000019073486328125</AltitudeMeters>
            <DistanceMeters>NAN</DistanceMeters>
          </Trackpoint>
          <Trackpoint>
            <Time>2022-07-07T09:26:24.000Z</Time>
            <Position>
              <LatitudeDegrees>43.6546755395829677581787109375</LatitudeDegrees>
              <LongitudeDegrees>-1.430389881134033203125</LongitudeDegrees>
            </Position>
            <AltitudeMeters>14.80000019073486328125</AltitudeMeters>
            <DistanceMeters>NAN</DistanceMeters>
          </Trackpoint>
          <Trackpoint>
            <Time>2022-07-07T09:26:28.000Z</Time>
            <Position>
              <LatitudeDegrees>43.65457135252654552459716796875</LatitudeDegrees>
              <LongitudeDegrees>-1.43033749423921108245849609375</LongitudeDegrees>
            </Position>
            <AltitudeMeters>14.80000019073486328125</AltitudeMeters>
            <DistanceMeters>NAN</DistanceMeters>
          </Trackpoint>
          <Trackpoint>
            <Time>2022-07-07T09:26:29.000Z</Time>
            <Position>
              <LatitudeDegrees>43.654551990330219268798828125</LatitudeDegrees>
              <LongitudeDegrees>-1.43032408319413661956787109375</LongitudeDegrees>
            </Position>
            <AltitudeMeters>14.80000019073486328125</AltitudeMeters>
            <DistanceMeters>NAN</DistanceMeters>
          </Trackpoint>
          <Trackpoint>
            <Time>2022-07-07T09:26:32.000Z</Time>
            <Position>
              <LatitudeDegrees>43.6544438637793064117431640625</LatitudeDegrees>
              <LongitudeDegrees>-1.43025803379714488983154296875</LongitudeDegrees>
            </Position>
            <AltitudeMeters>15</AltitudeMeters>
            <DistanceMeters>NAN</DistanceMeters>
          </Trackpoint>
          <Trackpoint>
            <Time>2022-07-07T09:26:37.000Z</Time>
            <Position>
              <LatitudeDegrees>43.6543359048664569854736328125</LatitudeDegrees>
              <LongitudeDegrees>-1.43014437519013881683349609375</LongitudeDegrees>
            </Position>
            <AltitudeMeters>15.19999980926513671875</AltitudeMeters>
            <DistanceMeters>NAN</DistanceMeters>
          </Trackpoint>
          <Trackpoint>
            <Time>2022-07-07T09:26:41.000Z</Time>
            <Position>
              <LatitudeDegrees>43.654325343668460845947265625</LatitudeDegrees>
              <LongitudeDegrees>-1.430133394896984100341796875</LongitudeDegrees>
            </Position>
            <AltitudeMeters>15.19999980926513671875</AltitudeMeters>
            <DistanceMeters>NAN</DistanceMeters>
          </Trackpoint>
          <Trackpoint>
            <Time>2022-07-07T09:31:40.000Z</Time>
            <Position>
              <LatitudeDegrees>43.65421495400369167327880859375</LatitudeDegrees>
              <LongitudeDegrees>-1.4301121048629283905029296875</LongitudeDegrees>
            </Position>
            <AltitudeMeters>15.19999980926513671875</AltitudeMeters>
            <DistanceMeters>NAN</DistanceMeters>
          </Trackpoint>
          <Trackpoint>
            <Time>2022-07-07T09:31:41.000Z</Time>
            <Position>
              <LatitudeDegrees>43.65419751964509487152099609375</LatitudeDegrees>
              <LongitudeDegrees>-1.43011352978646755218505859375</LongitudeDegrees>
            </Position>
            <AltitudeMeters>16.200000762939453125</AltitudeMeters>
            <DistanceMeters>NAN</DistanceMeters>
          </Trackpoint>
          <Trackpoint>
            <Time>2022-07-07T09:31:43.000Z</Time>
            <Position>
              <LatitudeDegrees>43.65416013635694980621337890625</LatitudeDegrees>
              <LongitudeDegrees>-1.43009559251368045806884765625</LongitudeDegrees>
            </Position>
            <AltitudeMeters>17.200000762939453125</AltitudeMeters>
            <DistanceMeters>NAN</DistanceMeters>
          </Trackpoint>
          <Trackpoint>
            <Time>2022-07-07T09:31:48.000Z</Time>
            <Position>
              <LatitudeDegrees>43.6540411971509456634521484375</LatitudeDegrees>
              <LongitudeDegrees>-1.43010866828262805938720703125</LongitudeDegrees>
            </Position>
            <AltitudeMeters>18.3999996185302734375</AltitudeMeters>
            <DistanceMeters>NAN</DistanceMeters>
          </Trackpoint>
          <Trackpoint>
            <Time>2022-07-07T09:31:49.000Z</Time>
            <Position>
              <LatitudeDegrees>43.65401295013725757598876953125</LatitudeDegrees>
              <LongitudeDegrees>-1.43011470325291156768798828125</LongitudeDegrees>
            </Position>
            <AltitudeMeters>18.6000003814697265625</AltitudeMeters>
            <DistanceMeters>NAN</DistanceMeters>
          </Trackpoint>
          <Trackpoint>
            <Time>2022-07-07T09:31:51.000Z</Time>
            <Position>
              <LatitudeDegrees>43.6539610661566257476806640625</LatitudeDegrees>
              <LongitudeDegrees>-1.4301255159080028533935546875</LongitudeDegrees>
            </Position>
            <AltitudeMeters>18.799999237060546875</AltitudeMeters>
            <DistanceMeters>NAN</DistanceMeters>
          </Trackpoint>
          <Trackpoint>
            <Time>2022-07-07T09:31:54.000Z</Time>
            <Position>
              <LatitudeDegrees>43.65387867204844951629638671875</LatitudeDegrees>
              <LongitudeDegrees>-1.4301288686692714691162109375</LongitudeDegrees>
            </Position>
            <AltitudeMeters>18.6000003814697265625</AltitudeMeters>
            <DistanceMeters>NAN</DistanceMeters>
          </Trackpoint>
          <Trackpoint>
            <Time>2022-07-07T09:31:56.000Z</Time>
            <Position>
              <LatitudeDegrees>43.65380465984344482421875</LatitudeDegrees>
              <LongitudeDegrees>-1.4301498234272003173828125</LongitudeDegrees>
            </Position>
            <AltitudeMeters>18</AltitudeMeters>
            <DistanceMeters>NAN</DistanceMeters>
          </Trackpoint>
          <Trackpoint>
            <Time>2022-07-07T09:32:01.000Z</Time>
            <Position>
              <LatitudeDegrees>43.65363593213260173797607421875</LatitudeDegrees>
              <LongitudeDegrees>-1.43020036630332469940185546875</LongitudeDegrees>
            </Position>
            <AltitudeMeters>17.200000762939453125</AltitudeMeters>
            <DistanceMeters>NAN</DistanceMeters>
          </Trackpoint>
          <Trackpoint>
            <Time>2022-07-07T09:32:04.000Z</Time>
            <Position>
              <LatitudeDegrees>43.65353635512292385101318359375</LatitudeDegrees>
              <LongitudeDegrees>-1.43026004545390605926513671875</LongitudeDegrees>
            </Position>
            <AltitudeMeters>16.6000003814697265625</AltitudeMeters>
            <DistanceMeters>NAN</DistanceMeters>
          </Trackpoint>
          <Trackpoint>
            <Time>2022-07-07T09:32:09.000Z</Time>
            <Position>
              <LatitudeDegrees>43.6534021608531475067138671875</LatitudeDegrees>
              <LongitudeDegrees>-1.430433802306652069091796875</LongitudeDegrees>
            </Position>
            <AltitudeMeters>16.6000003814697265625</AltitudeMeters>
            <DistanceMeters>NAN</DistanceMeters>
          </Trackpoint>
          <Trackpoint>
            <Time>2022-07-07T09:32:14.000Z</Time>
            <Position>
              <LatitudeDegrees>43.65324248559772968292236328125</LatitudeDegrees>
              <LongitudeDegrees>-1.4305077306926250457763671875</LongitudeDegrees>
            </Position>
            <AltitudeMeters>16.3999996185302734375</AltitudeMeters>
            <DistanceMeters>NAN</DistanceMeters>
          </Trackpoint>
          <Trackpoint>
            <Time>2022-07-07T09:32:20.000Z</Time>
            <Position>
              <LatitudeDegrees>43.65306462161242961883544921875</LatitudeDegrees>
              <LongitudeDegrees>-1.43062985502183437347412109375</LongitudeDegrees>
            </Position>
            <AltitudeMeters>16.3999996185302734375</AltitudeMeters>
            <DistanceMeters>NAN</DistanceMeters>
          </Trackpoint>
          <Trackpoint>
            <Time>2022-07-07T09:32:22.000Z</Time>
            <Position>
              <LatitudeDegrees>43.65304517559707164764404296875</LatitudeDegrees>
              <LongitudeDegrees>-1.43068735487759113311767578125</LongitudeDegrees>
            </Position>
            <AltitudeMeters>16.200000762939453125</AltitudeMeters>
            <DistanceMeters>NAN</DistanceMeters>
          </Trackpoint>
          <Trackpoint>
            <Time>2022-07-07T09:32:24.000Z</Time>
            <Position>
              <LatitudeDegrees>43.65302757360041141510009765625</LatitudeDegrees>
              <LongitudeDegrees>-1.4307430945336818695068359375</LongitudeDegrees>
            </Position>
            <AltitudeMeters>16.200000762939453125</AltitudeMeters>
            <DistanceMeters>NAN</DistanceMeters>
          </Trackpoint>
          <Trackpoint>
            <Time>2022-07-07T09:32:25.000Z</Time>
            <Position>
              <LatitudeDegrees>43.6530269868671894073486328125</LatitudeDegrees>
              <LongitudeDegrees>-1.4307554997503757476806640625</LongitudeDegrees>
            </Position>
            <AltitudeMeters>16</AltitudeMeters>
            <DistanceMeters>NAN</DistanceMeters>
          </Trackpoint>
          <Trackpoint>
            <Time>2022-07-07T09:32:27.000Z</Time>
            <Position>
              <LatitudeDegrees>43.653023131191730499267578125</LatitudeDegrees>
              <LongitudeDegrees>-1.430778466165065765380859375</LongitudeDegrees>
            </Position>
            <AltitudeMeters>16</AltitudeMeters>
            <DistanceMeters>NAN</DistanceMeters>
          </Trackpoint>
          <Trackpoint>
            <Time>2022-07-07T09:32:30.000Z</Time>
            <Position>
              <LatitudeDegrees>43.6530222930014133453369140625</LatitudeDegrees>
              <LongitudeDegrees>-1.4307839982211589813232421875</LongitudeDegrees>
            </Position>
            <AltitudeMeters>15.80000019073486328125</AltitudeMeters>
            <DistanceMeters>NAN</DistanceMeters>
          </Trackpoint>
          <Trackpoint>
            <Time>2022-07-07T09:32:49.000Z</Time>
            <Position>
              <LatitudeDegrees>43.65300075151026248931884765625</LatitudeDegrees>
              <LongitudeDegrees>-1.43088315613567829132080078125</LongitudeDegrees>
            </Position>
            <AltitudeMeters>15.6000003814697265625</AltitudeMeters>
            <DistanceMeters>NAN</DistanceMeters>
          </Trackpoint>
          <Trackpoint>
            <Time>2022-07-07T09:32:51.000Z</Time>
            <Position>
              <LatitudeDegrees>43.65298264659941196441650390625</LatitudeDegrees>
              <LongitudeDegrees>-1.4309761114418506622314453125</LongitudeDegrees>
            </Position>
            <AltitudeMeters>15.80000019073486328125</AltitudeMeters>
            <DistanceMeters>NAN</DistanceMeters>
          </Trackpoint>
          <Trackpoint>
            <Time>2022-07-07T09:32:54.000Z</Time>
            <Position>
              <LatitudeDegrees>43.65295247174799442291259765625</LatitudeDegrees>
              <LongitudeDegrees>-1.4311061985790729522705078125</LongitudeDegrees>
            </Position>
            <AltitudeMeters>16</AltitudeMeters>
            <DistanceMeters>NAN</DistanceMeters>
          </Trackpoint>
          <Trackpoint>
            <Time>2022-07-07T09:32:58.000Z</Time>
            <Position>
              <LatitudeDegrees>43.6529170162975788116455078125</LatitudeDegrees>
              <LongitudeDegrees>-1.43126034177839756011962890625</LongitudeDegrees>
            </Position>
            <AltitudeMeters>16</AltitudeMeters>
            <DistanceMeters>NAN</DistanceMeters>
          </Trackpoint>
          <Trackpoint>
            <Time>2022-07-07T09:33:01.000Z</Time>
            <Position>
              <LatitudeDegrees>43.65289480425417423248291015625</LatitudeDegrees>
              <LongitudeDegrees>-1.4313407242298126220703125</LongitudeDegrees>
            </Position>
            <AltitudeMeters>15.80000019073486328125</AltitudeMeters>
            <DistanceMeters>NAN</DistanceMeters>
          </Trackpoint>
          <Trackpoint>
            <Time>2022-07-07T09:33:03.000Z</Time>
            <Position>
              <LatitudeDegrees>43.6528725922107696533203125</LatitudeDegrees>
              <LongitudeDegrees>-1.4314211905002593994140625</LongitudeDegrees>
            </Position>
            <AltitudeMeters>15.80000019073486328125</AltitudeMeters>
            <DistanceMeters>NAN</DistanceMeters>
          </Trackpoint>
          <Trackpoint>
            <Time>2022-07-07T09:33:06.000Z</Time>
            <Position>
              <LatitudeDegrees>43.65284568630158901214599609375</LatitudeDegrees>
              <LongitudeDegrees>-1.4315420575439929962158203125</LongitudeDegrees>
            </Position>
            <AltitudeMeters>16</AltitudeMeters>
            <DistanceMeters>NAN</DistanceMeters>
          </Trackpoint>
          <Trackpoint>
            <Time>2022-07-07T09:33:12.000Z</Time>
            <Position>
              <LatitudeDegrees>43.6527599394321441650390625</LatitudeDegrees>
              <LongitudeDegrees>-1.4318350888788700103759765625</LongitudeDegrees>
            </Position>
            <AltitudeMeters>16</AltitudeMeters>
            <DistanceMeters>NAN</DistanceMeters>
          </Trackpoint>
          <Trackpoint>
            <Time>2022-07-07T09:33:18.000Z</Time>
            <Position>
              <LatitudeDegrees>43.6526910401880741119384765625</LatitudeDegrees>
              <LongitudeDegrees>-1.4320945926010608673095703125</LongitudeDegrees>
            </Position>
            <AltitudeMeters>15.3999996185302734375</AltitudeMeters>
            <DistanceMeters>NAN</DistanceMeters>
          </Trackpoint>
          <Trackpoint>
            <Time>2022-07-07T09:33:21.000Z</Time>
            <Position>
              <LatitudeDegrees>43.652666397392749786376953125</LatitudeDegrees>
              <LongitudeDegrees>-1.432206742465496063232421875</LongitudeDegrees>
            </Position>
            <AltitudeMeters>15.3999996185302734375</AltitudeMeters>
            <DistanceMeters>NAN</DistanceMeters>
          </Trackpoint>
          <Trackpoint>
            <Time>2022-07-07T09:33:27.000Z</Time>
            <Position>
              <LatitudeDegrees>43.652629852294921875</LatitudeDegrees>
              <LongitudeDegrees>-1.4324114285409450531005859375</LongitudeDegrees>
            </Position>
            <AltitudeMeters>15.80000019073486328125</AltitudeMeters>
            <DistanceMeters>NAN</DistanceMeters>
          </Trackpoint>
          <Trackpoint>
            <Time>2022-07-07T09:33:34.000Z</Time>
            <Position>
              <LatitudeDegrees>43.65251376293599605560302734375</LatitudeDegrees>
              <LongitudeDegrees>-1.432669423520565032958984375</LongitudeDegrees>
            </Position>
            <AltitudeMeters>15.80000019073486328125</AltitudeMeters>
            <DistanceMeters>NAN</DistanceMeters>
          </Trackpoint>
          <Trackpoint>
            <Time>2022-07-07T09:33:39.000Z</Time>
            <Position>
              <LatitudeDegrees>43.6524472944438457489013671875</LatitudeDegrees>
              <LongitudeDegrees>-1.43284938298165798187255859375</LongitudeDegrees>
            </Position>
            <AltitudeMeters>15.80000019073486328125</AltitudeMeters>
            <DistanceMeters>NAN</DistanceMeters>
          </Trackpoint>
          <Trackpoint>
            <Time>2022-07-07T09:33:42.000Z</Time>
            <Position>
              <LatitudeDegrees>43.6524030379951000213623046875</LatitudeDegrees>
              <LongitudeDegrees>-1.43295742571353912353515625</LongitudeDegrees>
            </Position>
            <AltitudeMeters>16</AltitudeMeters>
            <DistanceMeters>NAN</DistanceMeters>
          </Trackpoint>
          <Trackpoint>
            <Time>2022-07-07T09:33:47.000Z</Time>
            <Position>
              <LatitudeDegrees>43.65231335163116455078125</LatitudeDegrees>
              <LongitudeDegrees>-1.43319739960134029388427734375</LongitudeDegrees>
            </Position>
            <AltitudeMeters>16.200000762939453125</AltitudeMeters>
            <DistanceMeters>NAN</DistanceMeters>
          </Trackpoint>
          <Trackpoint>
            <Time>2022-07-07T09:33:54.000Z</Time>
            <Position>
              <LatitudeDegrees>43.65219064056873321533203125</LatitudeDegrees>
              <LongitudeDegrees>-1.43348984420299530029296875</LongitudeDegrees>
            </Position>
            <AltitudeMeters>16</AltitudeMeters>
            <DistanceMeters>NAN</DistanceMeters>
          </Trackpoint>
          <Trackpoint>
            <Time>2022-07-07T09:33:55.000Z</Time>
            <Position>
              <LatitudeDegrees>43.6521780677139759063720703125</LatitudeDegrees>
              <LongitudeDegrees>-1.4335258863866329193115234375</LongitudeDegrees>
            </Position>
            <AltitudeMeters>15.80000019073486328125</AltitudeMeters>
            <DistanceMeters>NAN</DistanceMeters>
          </Trackpoint>
          <Trackpoint>
            <Time>2022-07-07T09:34:03.000Z</Time>
            <Position>
              <LatitudeDegrees>43.6520556919276714324951171875</LatitudeDegrees>
              <LongitudeDegrees>-1.43388588912785053253173828125</LongitudeDegrees>
            </Position>
            <AltitudeMeters>15.80000019073486328125</AltitudeMeters>
            <DistanceMeters>NAN</DistanceMeters>
          </Trackpoint>
          <Trackpoint>
            <Time>2022-07-07T09:34:05.000Z</Time>
            <Position>
              <LatitudeDegrees>43.65206994116306304931640625</LatitudeDegrees>
              <LongitudeDegrees>-1.43396585248410701751708984375</LongitudeDegrees>
            </Position>
            <AltitudeMeters>15.80000019073486328125</AltitudeMeters>
            <DistanceMeters>NAN</DistanceMeters>
          </Trackpoint>
          <Trackpoint>
            <Time>2022-07-07T09:34:06.000Z</Time>
            <Position>
              <LatitudeDegrees>43.6520912311971187591552734375</LatitudeDegrees>
              <LongitudeDegrees>-1.43399636261165142059326171875</LongitudeDegrees>
            </Position>
            <AltitudeMeters>15.6000003814697265625</AltitudeMeters>
            <DistanceMeters>NAN</DistanceMeters>
          </Trackpoint>
          <Trackpoint>
            <Time>2022-07-07T09:34:12.000Z</Time>
            <Position>
              <LatitudeDegrees>43.65224336273968219757080078125</LatitudeDegrees>
              <LongitudeDegrees>-1.4341981150209903717041015625</LongitudeDegrees>
            </Position>
            <AltitudeMeters>15.3999996185302734375</AltitudeMeters>
            <DistanceMeters>NAN</DistanceMeters>
          </Trackpoint>
          <Trackpoint>
            <Time>2022-07-07T09:34:14.000Z</Time>
            <Position>
              <LatitudeDegrees>43.6522749625146389007568359375</LatitudeDegrees>
              <LongitudeDegrees>-1.4342638291418552398681640625</LongitudeDegrees>
            </Position>
            <AltitudeMeters>15.6000003814697265625</AltitudeMeters>
            <DistanceMeters>NAN</DistanceMeters>
          </Trackpoint>
          <Trackpoint>
            <Time>2022-07-07T09:34:16.000Z</Time>
            <Position>
              <LatitudeDegrees>43.65227647125720977783203125</LatitudeDegrees>
              <LongitudeDegrees>-1.43435041420161724090576171875</LongitudeDegrees>
            </Position>
            <AltitudeMeters>15.80000019073486328125</AltitudeMeters>
            <DistanceMeters>NAN</DistanceMeters>
          </Trackpoint>
          <Trackpoint>
            <Time>2022-07-07T09:34:17.000Z</Time>
            <Position>
              <LatitudeDegrees>43.6522595398128032684326171875</LatitudeDegrees>
              <LongitudeDegrees>-1.434398777782917022705078125</LongitudeDegrees>
            </Position>
            <AltitudeMeters>16</AltitudeMeters>
            <DistanceMeters>NAN</DistanceMeters>
          </Trackpoint>
          <Trackpoint>
            <Time>2022-07-07T09:34:25.000Z</Time>
            <Position>
              <LatitudeDegrees>43.6520989425480365753173828125</LatitudeDegrees>
              <LongitudeDegrees>-1.43468066118657588958740234375</LongitudeDegrees>
            </Position>
            <AltitudeMeters>16.200000762939453125</AltitudeMeters>
            <DistanceMeters>NAN</DistanceMeters>
          </Trackpoint>
          <Trackpoint>
            <Time>2022-07-07T09:34:27.000Z</Time>
            <Position>
              <LatitudeDegrees>43.652047477662563323974609375</LatitudeDegrees>
              <LongitudeDegrees>-1.43474109470844268798828125</LongitudeDegrees>
            </Position>
            <AltitudeMeters>16.200000762939453125</AltitudeMeters>
            <DistanceMeters>NAN</DistanceMeters>
          </Trackpoint>
          <Trackpoint>
            <Time>2022-07-07T09:34:30.000Z</Time>
            <Position>
              <LatitudeDegrees>43.6519611440598964691162109375</LatitudeDegrees>
              <LongitudeDegrees>-1.4348009414970874786376953125</LongitudeDegrees>
            </Position>
            <AltitudeMeters>15.80000019073486328125</AltitudeMeters>
            <DistanceMeters>NAN</DistanceMeters>
          </Trackpoint>
          <Trackpoint>
            <Time>2022-07-07T09:34:31.000Z</Time>
            <Position>
              <LatitudeDegrees>43.651928789913654327392578125</LatitudeDegrees>
              <LongitudeDegrees>-1.43480739556252956390380859375</LongitudeDegrees>
            </Position>
            <AltitudeMeters>15.80000019073486328125</AltitudeMeters>
            <DistanceMeters>NAN</DistanceMeters>
          </Trackpoint>
          <Trackpoint>
            <Time>2022-07-07T09:34:32.000Z</Time>
            <Position>
              <LatitudeDegrees>43.6518934182822704315185546875</LatitudeDegrees>
              <LongitudeDegrees>-1.43479985184967517852783203125</LongitudeDegrees>
            </Position>
            <AltitudeMeters>15.6000003814697265625</AltitudeMeters>
            <DistanceMeters>NAN</DistanceMeters>
          </Trackpoint>
          <Trackpoint>
            <Time>2022-07-07T09:34:35.000Z</Time>
            <Position>
              <LatitudeDegrees>43.6518072523176670074462890625</LatitudeDegrees>
              <LongitudeDegrees>-1.43474536947906017303466796875</LongitudeDegrees>
            </Position>
            <AltitudeMeters>15.6000003814697265625</AltitudeMeters>
            <DistanceMeters>NAN</DistanceMeters>
          </Trackpoint>
          <Trackpoint>
            <Time>2022-07-07T09:34:38.000Z</Time>
            <Position>
              <LatitudeDegrees>43.65169870667159557342529296875</LatitudeDegrees>
              <LongitudeDegrees>-1.434716284275054931640625</LongitudeDegrees>
            </Position>
            <AltitudeMeters>15.6000003814697265625</AltitudeMeters>
            <DistanceMeters>NAN</DistanceMeters>
          </Trackpoint>
          <Trackpoint>
            <Time>2022-07-07T09:34:39.000Z</Time>
            <Position>
              <LatitudeDegrees>43.6516667716205120086669921875</LatitudeDegrees>
              <LongitudeDegrees>-1.434734724462032318115234375</LongitudeDegrees>
            </Position>
            <AltitudeMeters>15.6000003814697265625</AltitudeMeters>
            <DistanceMeters>NAN</DistanceMeters>
          </Trackpoint>
          <Trackpoint>
            <Time>2022-07-07T09:34:41.000Z</Time>
            <Position>
              <LatitudeDegrees>43.65160801447927951812744140625</LatitudeDegrees>
              <LongitudeDegrees>-1.43478803336620330810546875</LongitudeDegrees>
            </Position>
            <AltitudeMeters>15.6000003814697265625</AltitudeMeters>
            <DistanceMeters>NAN</DistanceMeters>
          </Trackpoint>
          <Trackpoint>
            <Time>2022-07-07T09:34:46.000Z</Time>
            <Position>
              <LatitudeDegrees>43.65147172473371028900146484375</LatitudeDegrees>
              <LongitudeDegrees>-1.43489272333681583404541015625</LongitudeDegrees>
            </Position>
            <AltitudeMeters>15.80000019073486328125</AltitudeMeters>
            <DistanceMeters>NAN</DistanceMeters>
          </Trackpoint>
          <Trackpoint>
            <Time>2022-07-07T09:34:51.000Z</Time>
            <Position>
              <LatitudeDegrees>43.651325292885303497314453125</LatitudeDegrees>
              <LongitudeDegrees>-1.43484025262296199798583984375</LongitudeDegrees>
            </Position>
            <AltitudeMeters>16</AltitudeMeters>
            <DistanceMeters>NAN</DistanceMeters>
          </Trackpoint>
          <Trackpoint>
            <Time>2022-07-07T09:34:57.000Z</Time>
            <Position>
              <LatitudeDegrees>43.65112178027629852294921875</LatitudeDegrees>
              <LongitudeDegrees>-1.43472726456820964813232421875</LongitudeDegrees>
            </Position>
            <AltitudeMeters>16.200000762939453125</AltitudeMeters>
            <DistanceMeters>NAN</DistanceMeters>
          </Trackpoint>
          <Trackpoint>
            <Time>2022-07-07T09:34:58.000Z</Time>
            <Position>
              <LatitudeDegrees>43.6510937847197055816650390625</LatitudeDegrees>
              <LongitudeDegrees>-1.43471754156053066253662109375</LongitudeDegrees>
            </Position>
            <AltitudeMeters>16.200000762939453125</AltitudeMeters>
            <DistanceMeters>NAN</DistanceMeters>
          </Trackpoint>
          <Trackpoint>
            <Time>2022-07-07T09:35:01.000Z</Time>
            <Position>
              <LatitudeDegrees>43.6509727500379085540771484375</LatitudeDegrees>
              <LongitudeDegrees>-1.4346666634082794189453125</LongitudeDegrees>
            </Position>
            <AltitudeMeters>16.200000762939453125</AltitudeMeters>
            <DistanceMeters>NAN</DistanceMeters>
          </Trackpoint>
          <Trackpoint>
            <Time>2022-07-07T09:35:06.000Z</Time>
            <Position>
              <LatitudeDegrees>43.65081190131604671478271484375</LatitudeDegrees>
              <LongitudeDegrees>-1.4345799945294857025146484375</LongitudeDegrees>
            </Position>
            <AltitudeMeters>16.200000762939453125</AltitudeMeters>
            <DistanceMeters>NAN</DistanceMeters>
          </Trackpoint>
          <Trackpoint>
            <Time>2022-07-07T09:35:13.000Z</Time>
            <Position>
              <LatitudeDegrees>43.65054384805262088775634765625</LatitudeDegrees>
              <LongitudeDegrees>-1.43445149995386600494384765625</LongitudeDegrees>
            </Position>
            <AltitudeMeters>16.6000003814697265625</AltitudeMeters>
            <DistanceMeters>NAN</DistanceMeters>
          </Trackpoint>
          <Trackpoint>
            <Time>2022-07-07T09:35:22.000Z</Time>
            <Position>
              <LatitudeDegrees>43.6501902155578136444091796875</LatitudeDegrees>
              <LongitudeDegrees>-1.43430112861096858978271484375</LongitudeDegrees>
            </Position>
            <AltitudeMeters>16.6000003814697265625</AltitudeMeters>
            <DistanceMeters>NAN</DistanceMeters>
          </Trackpoint>
          <Trackpoint>
            <Time>2022-07-07T09:35:29.000Z</Time>
            <Position>
              <LatitudeDegrees>43.6499481461942195892333984375</LatitudeDegrees>
              <LongitudeDegrees>-1.4342028088867664337158203125</LongitudeDegrees>
            </Position>
            <AltitudeMeters>16.3999996185302734375</AltitudeMeters>
            <DistanceMeters>NAN</DistanceMeters>
          </Trackpoint>
          <Trackpoint>
            <Time>2022-07-07T09:35:33.000Z</Time>
            <Position>
              <LatitudeDegrees>43.649816215038299560546875</LatitudeDegrees>
              <LongitudeDegrees>-1.43423373810946941375732421875</LongitudeDegrees>
            </Position>
            <AltitudeMeters>16.799999237060546875</AltitudeMeters>
            <DistanceMeters>NAN</DistanceMeters>
          </Trackpoint>
          <Trackpoint>
            <Time>2022-07-07T09:35:40.000Z</Time>
            <Position>
              <LatitudeDegrees>43.6496205814182758331298828125</LatitudeDegrees>
              <LongitudeDegrees>-1.434413529932498931884765625</LongitudeDegrees>
            </Position>
            <AltitudeMeters>17</AltitudeMeters>
            <DistanceMeters>NAN</DistanceMeters>
          </Trackpoint>
          <Trackpoint>
            <Time>2022-07-07T09:35:41.000Z</Time>
            <Position>
              <LatitudeDegrees>43.649610020220279693603515625</LatitudeDegrees>
              <LongitudeDegrees>-1.43445971421897411346435546875</LongitudeDegrees>
            </Position>
            <AltitudeMeters>17.200000762939453125</AltitudeMeters>
            <DistanceMeters>NAN</DistanceMeters>
          </Trackpoint>
          <Trackpoint>
            <Time>2022-07-07T09:35:46.000Z</Time>
            <Position>
              <LatitudeDegrees>43.64952947013080120086669921875</LatitudeDegrees>
              <LongitudeDegrees>-1.4346856065094470977783203125</LongitudeDegrees>
            </Position>
            <AltitudeMeters>17.3999996185302734375</AltitudeMeters>
            <DistanceMeters>NAN</DistanceMeters>
          </Trackpoint>
          <Trackpoint>
            <Time>2022-07-07T09:35:53.000Z</Time>
            <Position>
              <LatitudeDegrees>43.64938370883464813232421875</LatitudeDegrees>
              <LongitudeDegrees>-1.43498978577554225921630859375</LongitudeDegrees>
            </Position>
            <AltitudeMeters>17.3999996185302734375</AltitudeMeters>
            <DistanceMeters>NAN</DistanceMeters>
          </Trackpoint>
          <Trackpoint>
            <Time>2022-07-07T09:35:58.000Z</Time>
            <Position>
              <LatitudeDegrees>43.6492554657161235809326171875</LatitudeDegrees>
              <LongitudeDegrees>-1.43516396172344684600830078125</LongitudeDegrees>
            </Position>
            <AltitudeMeters>17</AltitudeMeters>
            <DistanceMeters>NAN</DistanceMeters>
          </Trackpoint>
          <Trackpoint>
            <Time>2022-07-07T09:36:00.000Z</Time>
            <Position>
              <LatitudeDegrees>43.64918715320527553558349609375</LatitudeDegrees>
              <LongitudeDegrees>-1.4352046139538288116455078125</LongitudeDegrees>
            </Position>
            <AltitudeMeters>17</AltitudeMeters>
            <DistanceMeters>NAN</DistanceMeters>
          </Trackpoint>
          <Trackpoint>
            <Time>2022-07-07T09:36:03.000Z</Time>
            <Position>
              <LatitudeDegrees>43.64906813018023967742919921875</LatitudeDegrees>
              <LongitudeDegrees>-1.43520243465900421142578125</LongitudeDegrees>
            </Position>
            <AltitudeMeters>17.3999996185302734375</AltitudeMeters>
            <DistanceMeters>NAN</DistanceMeters>
          </Trackpoint>
          <Trackpoint>
            <Time>2022-07-07T09:36:07.000Z</Time>
            <Position>
              <LatitudeDegrees>43.6489265598356723785400390625</LatitudeDegrees>
              <LongitudeDegrees>-1.4351891912519931793212890625</LongitudeDegrees>
            </Position>
            <AltitudeMeters>17.6000003814697265625</AltitudeMeters>
            <DistanceMeters>NAN</DistanceMeters>
          </Trackpoint>
          <Trackpoint>
            <Time>2022-07-07T09:36:08.000Z</Time>
            <Position>
              <LatitudeDegrees>43.64889998920261859893798828125</LatitudeDegrees>
              <LongitudeDegrees>-1.43521090038120746612548828125</LongitudeDegrees>
            </Position>
            <AltitudeMeters>17.6000003814697265625</AltitudeMeters>
            <DistanceMeters>NAN</DistanceMeters>
          </Trackpoint>
          <Trackpoint>
            <Time>2022-07-07T09:36:09.000Z</Time>
            <Position>
              <LatitudeDegrees>43.64888138137757778167724609375</LatitudeDegrees>
              <LongitudeDegrees>-1.43524778075516223907470703125</LongitudeDegrees>
            </Position>
            <AltitudeMeters>17.3999996185302734375</AltitudeMeters>
            <DistanceMeters>NAN</DistanceMeters>
          </Trackpoint>
          <Trackpoint>
            <Time>2022-07-07T09:36:12.000Z</Time>
            <Position>
              <LatitudeDegrees>43.64886579103767871856689453125</LatitudeDegrees>
              <LongitudeDegrees>-1.4353705756366252899169921875</LongitudeDegrees>
            </Position>
            <AltitudeMeters>17.6000003814697265625</AltitudeMeters>
            <DistanceMeters>NAN</DistanceMeters>
          </Trackpoint>
          <Trackpoint>
            <Time>2022-07-07T09:36:14.000Z</Time>
            <Position>
              <LatitudeDegrees>43.64885942079126834869384765625</LatitudeDegrees>
              <LongitudeDegrees>-1.4354336075484752655029296875</LongitudeDegrees>
            </Position>
            <AltitudeMeters>17.3999996185302734375</AltitudeMeters>
            <DistanceMeters>NAN</DistanceMeters>
          </Trackpoint>
          <Trackpoint>
            <Time>2022-07-07T09:36:17.000Z</Time>
            <Position>
              <LatitudeDegrees>43.64885036833584308624267578125</LatitudeDegrees>
              <LongitudeDegrees>-1.4354691468179225921630859375</LongitudeDegrees>
            </Position>
            <AltitudeMeters>17.3999996185302734375</AltitudeMeters>
            <DistanceMeters>NAN</DistanceMeters>
          </Trackpoint>
          <Trackpoint>
            <Time>2022-07-07T09:36:22.000Z</Time>
            <Position>
              <LatitudeDegrees>43.648830838501453399658203125</LatitudeDegrees>
              <LongitudeDegrees>-1.43546839244663715362548828125</LongitudeDegrees>
            </Position>
            <AltitudeMeters>17.3999996185302734375</AltitudeMeters>
            <DistanceMeters>NAN</DistanceMeters>
          </Trackpoint>
          <Trackpoint>
            <Time>2022-07-07T09:36:24.000Z</Time>
            <Position>
              <LatitudeDegrees>43.6488025076687335968017578125</LatitudeDegrees>
              <LongitudeDegrees>-1.43545565195381641387939453125</LongitudeDegrees>
            </Position>
            <AltitudeMeters>17.3999996185302734375</AltitudeMeters>
            <DistanceMeters>NAN</DistanceMeters>
          </Trackpoint>
          <Trackpoint>
            <Time>2022-07-07T09:36:26.000Z</Time>
            <Position>
              <LatitudeDegrees>43.64876872859895229339599609375</LatitudeDegrees>
              <LongitudeDegrees>-1.43545330502092838287353515625</LongitudeDegrees>
            </Position>
            <AltitudeMeters>17.3999996185302734375</AltitudeMeters>
            <DistanceMeters>NAN</DistanceMeters>
          </Trackpoint>
          <Trackpoint>
            <Time>2022-07-07T09:36:29.000Z</Time>
            <Position>
              <LatitudeDegrees>43.64871223457157611846923828125</LatitudeDegrees>
              <LongitudeDegrees>-1.4355127327144145965576171875</LongitudeDegrees>
            </Position>
            <AltitudeMeters>17.6000003814697265625</AltitudeMeters>
            <DistanceMeters>NAN</DistanceMeters>
          </Trackpoint>
          <Trackpoint>
            <Time>2022-07-07T09:36:33.000Z</Time>
            <Position>
              <LatitudeDegrees>43.6485963128507137298583984375</LatitudeDegrees>
              <LongitudeDegrees>-1.43558599054813385009765625</LongitudeDegrees>
            </Position>
            <AltitudeMeters>17.6000003814697265625</AltitudeMeters>
            <DistanceMeters>NAN</DistanceMeters>
          </Trackpoint>
          <Trackpoint>
            <Time>2022-07-07T09:36:39.000Z</Time>
            <Position>
              <LatitudeDegrees>43.64836036227643489837646484375</LatitudeDegrees>
              <LongitudeDegrees>-1.4355144090950489044189453125</LongitudeDegrees>
            </Position>
            <AltitudeMeters>17.3999996185302734375</AltitudeMeters>
            <DistanceMeters>NAN</DistanceMeters>
          </Trackpoint>
          <Trackpoint>
            <Time>2022-07-07T09:36:47.000Z</Time>
            <Position>
              <LatitudeDegrees>43.64804319106042385101318359375</LatitudeDegrees>
              <LongitudeDegrees>-1.4354014210402965545654296875</LongitudeDegrees>
            </Position>
            <AltitudeMeters>17.3999996185302734375</AltitudeMeters>
            <DistanceMeters>NAN</DistanceMeters>
          </Trackpoint>
          <Trackpoint>
            <Time>2022-07-07T09:36:54.000Z</Time>
            <Position>
              <LatitudeDegrees>43.64775066263973712921142578125</LatitudeDegrees>
              <LongitudeDegrees>-1.4353130757808685302734375</LongitudeDegrees>
            </Position>
            <AltitudeMeters>17.799999237060546875</AltitudeMeters>
            <DistanceMeters>NAN</DistanceMeters>
          </Trackpoint>
          <Trackpoint>
            <Time>2022-07-07T09:36:58.000Z</Time>
            <Position>
              <LatitudeDegrees>43.6475831083953380584716796875</LatitudeDegrees>
              <LongitudeDegrees>-1.4352518878877162933349609375</LongitudeDegrees>
            </Position>
            <AltitudeMeters>17.799999237060546875</AltitudeMeters>
            <DistanceMeters>NAN</DistanceMeters>
          </Trackpoint>
          <Trackpoint>
            <Time>2022-07-07T09:37:02.000Z</Time>
            <Position>
              <LatitudeDegrees>43.64741303957998752593994140625</LatitudeDegrees>
              <LongitudeDegrees>-1.4351814799010753631591796875</LongitudeDegrees>
            </Position>
            <AltitudeMeters>17.799999237060546875</AltitudeMeters>
            <DistanceMeters>NAN</DistanceMeters>
          </Trackpoint>
          <Trackpoint>
            <Time>2022-07-07T09:37:07.000Z</Time>
            <Position>
              <LatitudeDegrees>43.647224195301532745361328125</LatitudeDegrees>
              <LongitudeDegrees>-1.43510109744966030120849609375</LongitudeDegrees>
            </Position>
            <AltitudeMeters>17.799999237060546875</AltitudeMeters>
            <DistanceMeters>NAN</DistanceMeters>
          </Trackpoint>
          <Trackpoint>
            <Time>2022-07-07T09:37:08.000Z</Time>
            <Position>
              <LatitudeDegrees>43.64718832075595855712890625</LatitudeDegrees>
              <LongitudeDegrees>-1.4350906200706958770751953125</LongitudeDegrees>
            </Position>
            <AltitudeMeters>17.799999237060546875</AltitudeMeters>
            <DistanceMeters>NAN</DistanceMeters>
          </Trackpoint>
          <Trackpoint>
            <Time>2022-07-07T09:37:12.000Z</Time>
            <Position>
              <LatitudeDegrees>43.64707122556865215301513671875</LatitudeDegrees>
              <LongitudeDegrees>-1.43499447964131832122802734375</LongitudeDegrees>
            </Position>
            <AltitudeMeters>17.799999237060546875</AltitudeMeters>
            <DistanceMeters>NAN</DistanceMeters>
          </Trackpoint>
          <Trackpoint>
            <Time>2022-07-07T09:37:13.000Z</Time>
            <Position>
              <LatitudeDegrees>43.6470584012567996978759765625</LatitudeDegrees>
              <LongitudeDegrees>-1.43494896590709686279296875</LongitudeDegrees>
            </Position>
            <AltitudeMeters>17.799999237060546875</AltitudeMeters>
            <DistanceMeters>NAN</DistanceMeters>
          </Trackpoint>
          <Trackpoint>
            <Time>2022-07-07T09:37:14.000Z</Time>
            <Position>
              <LatitudeDegrees>43.64705295301973819732666015625</LatitudeDegrees>
              <LongitudeDegrees>-1.4348968304693698883056640625</LongitudeDegrees>
            </Position>
            <AltitudeMeters>17.799999237060546875</AltitudeMeters>
            <DistanceMeters>NAN</DistanceMeters>
          </Trackpoint>
          <Trackpoint>
            <Time>2022-07-07T09:37:17.000Z</Time>
            <Position>
              <LatitudeDegrees>43.64704926498234272003173828125</LatitudeDegrees>
              <LongitudeDegrees>-1.43471217714250087738037109375</LongitudeDegrees>
            </Position>
            <AltitudeMeters>17.799999237060546875</AltitudeMeters>
            <DistanceMeters>NAN</DistanceMeters>
          </Trackpoint>
          <Trackpoint>
            <Time>2022-07-07T09:37:20.000Z</Time>
            <Position>
              <LatitudeDegrees>43.64699947647750377655029296875</LatitudeDegrees>
              <LongitudeDegrees>-1.43454671837389469146728515625</LongitudeDegrees>
            </Position>
            <AltitudeMeters>17.799999237060546875</AltitudeMeters>
            <DistanceMeters>NAN</DistanceMeters>
          </Trackpoint>
          <Trackpoint>
            <Time>2022-07-07T09:37:21.000Z</Time>
            <Position>
              <LatitudeDegrees>43.64697106182575225830078125</LatitudeDegrees>
              <LongitudeDegrees>-1.434502042829990386962890625</LongitudeDegrees>
            </Position>
            <AltitudeMeters>17.799999237060546875</AltitudeMeters>
            <DistanceMeters>NAN</DistanceMeters>
          </Trackpoint>
          <Trackpoint>
            <Time>2022-07-07T09:37:26.000Z</Time>
            <Position>
              <LatitudeDegrees>43.64679160527884960174560546875</LatitudeDegrees>
              <LongitudeDegrees>-1.4342551119625568389892578125</LongitudeDegrees>
            </Position>
            <AltitudeMeters>18.200000762939453125</AltitudeMeters>
            <DistanceMeters>NAN</DistanceMeters>
          </Trackpoint>
          <Trackpoint>
            <Time>2022-07-07T09:37:28.000Z</Time>
            <Position>
              <LatitudeDegrees>43.6467214487493038177490234375</LatitudeDegrees>
              <LongitudeDegrees>-1.43416173756122589111328125</LongitudeDegrees>
            </Position>
            <AltitudeMeters>18.200000762939453125</AltitudeMeters>
            <DistanceMeters>NAN</DistanceMeters>
          </Trackpoint>
          <Trackpoint>
            <Time>2022-07-07T09:37:31.000Z</Time>
            <Position>
              <LatitudeDegrees>43.6466369591653347015380859375</LatitudeDegrees>
              <LongitudeDegrees>-1.43402854911983013153076171875</LongitudeDegrees>
            </Position>
            <AltitudeMeters>18</AltitudeMeters>
            <DistanceMeters>NAN</DistanceMeters>
          </Trackpoint>
          <Trackpoint>
            <Time>2022-07-07T09:37:35.000Z</Time>
            <Position>
              <LatitudeDegrees>43.646489270031452178955078125</LatitudeDegrees>
              <LongitudeDegrees>-1.43384213559329509735107421875</LongitudeDegrees>
            </Position>
            <AltitudeMeters>17.6000003814697265625</AltitudeMeters>
            <DistanceMeters>NAN</DistanceMeters>
          </Trackpoint>
          <Trackpoint>
            <Time>2022-07-07T09:37:42.000Z</Time>
            <Position>
              <LatitudeDegrees>43.64618810825049877166748046875</LatitudeDegrees>
              <LongitudeDegrees>-1.43357701599597930908203125</LongitudeDegrees>
            </Position>
            <AltitudeMeters>17.799999237060546875</AltitudeMeters>
            <DistanceMeters>NAN</DistanceMeters>
          </Trackpoint>
          <Trackpoint>
            <Time>2022-07-07T09:37:47.000Z</Time>
            <Position>
              <LatitudeDegrees>43.6459519900381565093994140625</LatitudeDegrees>
              <LongitudeDegrees>-1.4334618486464023590087890625</LongitudeDegrees>
            </Position>
            <AltitudeMeters>18</AltitudeMeters>
            <DistanceMeters>NAN</DistanceMeters>
          </Trackpoint>
          <Trackpoint>
            <Time>2022-07-07T09:37:49.000Z</Time>
            <Position>
              <LatitudeDegrees>43.64585383795201778411865234375</LatitudeDegrees>
              <LongitudeDegrees>-1.4334303326904773712158203125</LongitudeDegrees>
            </Position>
            <AltitudeMeters>18</AltitudeMeters>
            <DistanceMeters>NAN</DistanceMeters>
          </Trackpoint>
          <Trackpoint>
            <Time>2022-07-07T09:37:55.000Z</Time>
            <Position>
              <LatitudeDegrees>43.64557254128158092498779296875</LatitudeDegrees>
              <LongitudeDegrees>-1.43335548229515552520751953125</LongitudeDegrees>
            </Position>
            <AltitudeMeters>18.200000762939453125</AltitudeMeters>
            <DistanceMeters>NAN</DistanceMeters>
          </Trackpoint>
          <Trackpoint>
            <Time>2022-07-07T09:37:57.000Z</Time>
            <Position>
              <LatitudeDegrees>43.64547782577574253082275390625</LatitudeDegrees>
              <LongitudeDegrees>-1.43334642983973026275634765625</LongitudeDegrees>
            </Position>
            <AltitudeMeters>18</AltitudeMeters>
            <DistanceMeters>NAN</DistanceMeters>
          </Trackpoint>
          <Trackpoint>
            <Time>2022-07-07T09:38:02.000Z</Time>
            <Position>
              <LatitudeDegrees>43.645243383944034576416015625</LatitudeDegrees>
              <LongitudeDegrees>-1.43331206403672695159912109375</LongitudeDegrees>
            </Position>
            <AltitudeMeters>18</AltitudeMeters>
            <DistanceMeters>NAN</DistanceMeters>
          </Trackpoint>
          <Trackpoint>
            <Time>2022-07-07T09:38:05.000Z</Time>
            <Position>
              <LatitudeDegrees>43.64512679167091846466064453125</LatitudeDegrees>
              <LongitudeDegrees>-1.43330301158130168914794921875</LongitudeDegrees>
            </Position>
            <AltitudeMeters>18</AltitudeMeters>
            <DistanceMeters>NAN</DistanceMeters>
          </Trackpoint>
          <Trackpoint>
            <Time>2022-07-07T09:38:10.000Z</Time>
            <Position>
              <LatitudeDegrees>43.644913472235202789306640625</LatitudeDegrees>
              <LongitudeDegrees>-1.4332851581275463104248046875</LongitudeDegrees>
            </Position>
            <AltitudeMeters>18</AltitudeMeters>
            <DistanceMeters>NAN</DistanceMeters>
          </Trackpoint>
          <Trackpoint>
            <Time>2022-07-07T09:38:12.000Z</Time>
            <Position>
              <LatitudeDegrees>43.6448365263640880584716796875</LatitudeDegrees>
              <LongitudeDegrees>-1.4332791231572628021240234375</LongitudeDegrees>
            </Position>
            <AltitudeMeters>18</AltitudeMeters>
            <DistanceMeters>NAN</DistanceMeters>
          </Trackpoint>
          <Trackpoint>
            <Time>2022-07-07T09:38:19.000Z</Time>
            <Position>
              <LatitudeDegrees>43.6445441655814647674560546875</LatitudeDegrees>
              <LongitudeDegrees>-1.43327501602470874786376953125</LongitudeDegrees>
            </Position>
            <AltitudeMeters>18.200000762939453125</AltitudeMeters>
            <DistanceMeters>NAN</DistanceMeters>
          </Trackpoint>
          <Trackpoint>
            <Time>2022-07-07T09:38:21.000Z</Time>
            <Position>
              <LatitudeDegrees>43.6444710753858089447021484375</LatitudeDegrees>
              <LongitudeDegrees>-1.4332791231572628021240234375</LongitudeDegrees>
            </Position>
            <AltitudeMeters>18.200000762939453125</AltitudeMeters>
            <DistanceMeters>NAN</DistanceMeters>
          </Trackpoint>
          <Trackpoint>
            <Time>2022-07-07T09:38:27.000Z</Time>
            <Position>
              <LatitudeDegrees>43.6442756094038486480712890625</LatitudeDegrees>
              <LongitudeDegrees>-1.4333106391131877899169921875</LongitudeDegrees>
            </Position>
            <AltitudeMeters>18.3999996185302734375</AltitudeMeters>
            <DistanceMeters>NAN</DistanceMeters>
          </Trackpoint>
          <Trackpoint>
            <Time>2022-07-07T09:38:32.000Z</Time>
            <Position>
              <LatitudeDegrees>43.6441703327000141143798828125</LatitudeDegrees>
              <LongitudeDegrees>-1.4333304204046726226806640625</LongitudeDegrees>
            </Position>
            <AltitudeMeters>19.200000762939453125</AltitudeMeters>
            <DistanceMeters>NAN</DistanceMeters>
          </Trackpoint>
          <Trackpoint>
            <Time>2022-07-07T09:38:33.000Z</Time>
            <Position>
              <LatitudeDegrees>43.64415147341787815093994140625</LatitudeDegrees>
              <LongitudeDegrees>-1.433341316878795623779296875</LongitudeDegrees>
            </Position>
            <AltitudeMeters>19.3999996185302734375</AltitudeMeters>
            <DistanceMeters>NAN</DistanceMeters>
          </Trackpoint>
          <Trackpoint>
            <Time>2022-07-07T09:38:36.000Z</Time>
            <Position>
              <LatitudeDegrees>43.64411090500652790069580078125</LatitudeDegrees>
              <LongitudeDegrees>-1.43338389694690704345703125</LongitudeDegrees>
            </Position>
            <AltitudeMeters>19.6000003814697265625</AltitudeMeters>
            <DistanceMeters>NAN</DistanceMeters>
          </Trackpoint>
          <Trackpoint>
            <Time>2022-07-07T09:38:37.000Z</Time>
            <Position>
              <LatitudeDegrees>43.64410906098783016204833984375</LatitudeDegrees>
              <LongitudeDegrees>-1.43341247923672199249267578125</LongitudeDegrees>
            </Position>
            <AltitudeMeters>19.799999237060546875</AltitudeMeters>
            <DistanceMeters>NAN</DistanceMeters>
          </Trackpoint>
          <Trackpoint>
            <Time>2022-07-07T09:38:42.000Z</Time>
            <Position>
              <LatitudeDegrees>43.64414091221988201141357421875</LatitudeDegrees>
              <LongitudeDegrees>-1.43361465074121952056884765625</LongitudeDegrees>
            </Position>
            <AltitudeMeters>19.799999237060546875</AltitudeMeters>
            <DistanceMeters>NAN</DistanceMeters>
          </Trackpoint>
          <Trackpoint>
            <Time>2022-07-07T09:38:47.000Z</Time>
            <Position>
              <LatitudeDegrees>43.64420360885560512542724609375</LatitudeDegrees>
              <LongitudeDegrees>-1.4338980428874492645263671875</LongitudeDegrees>
            </Position>
            <AltitudeMeters>20</AltitudeMeters>
            <DistanceMeters>NAN</DistanceMeters>
          </Trackpoint>
          <Trackpoint>
            <Time>2022-07-07T09:38:52.000Z</Time>
            <Position>
              <LatitudeDegrees>43.64429446868598461151123046875</LatitudeDegrees>
              <LongitudeDegrees>-1.4341682754456996917724609375</LongitudeDegrees>
            </Position>
            <AltitudeMeters>19.799999237060546875</AltitudeMeters>
            <DistanceMeters>NAN</DistanceMeters>
          </Trackpoint>
          <Trackpoint>
            <Time>2022-07-07T09:38:54.000Z</Time>
            <Position>
              <LatitudeDegrees>43.64431567490100860595703125</LatitudeDegrees>
              <LongitudeDegrees>-1.43426676280796527862548828125</LongitudeDegrees>
            </Position>
            <AltitudeMeters>19.200000762939453125</AltitudeMeters>
            <DistanceMeters>NAN</DistanceMeters>
          </Trackpoint>
          <Trackpoint>
            <Time>2022-07-07T09:39:00.000Z</Time>
            <Position>
              <LatitudeDegrees>43.64440393634140491485595703125</LatitudeDegrees>
              <LongitudeDegrees>-1.434591226279735565185546875</LongitudeDegrees>
            </Position>
            <AltitudeMeters>18.799999237060546875</AltitudeMeters>
            <DistanceMeters>NAN</DistanceMeters>
          </Trackpoint>
          <Trackpoint>
            <Time>2022-07-07T09:39:03.000Z</Time>
            <Position>
              <LatitudeDegrees>43.6444600112736225128173828125</LatitudeDegrees>
              <LongitudeDegrees>-1.4347471296787261962890625</LongitudeDegrees>
            </Position>
            <AltitudeMeters>18.799999237060546875</AltitudeMeters>
            <DistanceMeters>NAN</DistanceMeters>
          </Trackpoint>
          <Trackpoint>
            <Time>2022-07-07T09:39:07.000Z</Time>
            <Position>
              <LatitudeDegrees>43.64453787915408611297607421875</LatitudeDegrees>
              <LongitudeDegrees>-1.434951312839984893798828125</LongitudeDegrees>
            </Position>
            <AltitudeMeters>19</AltitudeMeters>
            <DistanceMeters>NAN</DistanceMeters>
          </Trackpoint>
          <Trackpoint>
            <Time>2022-07-07T09:39:12.000Z</Time>
            <Position>
              <LatitudeDegrees>43.64460946060717105865478515625</LatitudeDegrees>
              <LongitudeDegrees>-1.43521039746701717376708984375</LongitudeDegrees>
            </Position>
            <AltitudeMeters>19.200000762939453125</AltitudeMeters>
            <DistanceMeters>NAN</DistanceMeters>
          </Trackpoint>
          <Trackpoint>
            <Time>2022-07-07T09:39:16.000Z</Time>
            <Position>
              <LatitudeDegrees>43.64469059742987155914306640625</LatitudeDegrees>
              <LongitudeDegrees>-1.4353973977267742156982421875</LongitudeDegrees>
            </Position>
            <AltitudeMeters>19.200000762939453125</AltitudeMeters>
            <DistanceMeters>NAN</DistanceMeters>
          </Trackpoint>
          <Trackpoint>
            <Time>2022-07-07T09:39:25.000Z</Time>
            <Position>
              <LatitudeDegrees>43.6449035815894603729248046875</LatitudeDegrees>
              <LongitudeDegrees>-1.43577910959720611572265625</LongitudeDegrees>
            </Position>
            <AltitudeMeters>19.3999996185302734375</AltitudeMeters>
            <DistanceMeters>NAN</DistanceMeters>
          </Trackpoint>
          <Trackpoint>
            <Time>2022-07-07T09:39:34.000Z</Time>
            <Position>
              <LatitudeDegrees>43.64512327127158641815185546875</LatitudeDegrees>
              <LongitudeDegrees>-1.436130814254283905029296875</LongitudeDegrees>
            </Position>
            <AltitudeMeters>19.3999996185302734375</AltitudeMeters>
            <DistanceMeters>NAN</DistanceMeters>
          </Trackpoint>
          <Trackpoint>
            <Time>2022-07-07T09:39:43.000Z</Time>
            <Position>
              <LatitudeDegrees>43.64533759653568267822265625</LatitudeDegrees>
              <LongitudeDegrees>-1.4365165494382381439208984375</LongitudeDegrees>
            </Position>
            <AltitudeMeters>19.200000762939453125</AltitudeMeters>
            <DistanceMeters>NAN</DistanceMeters>
          </Trackpoint>
          <Trackpoint>
            <Time>2022-07-07T09:39:52.000Z</Time>
            <Position>
              <LatitudeDegrees>43.64555217325687408447265625</LatitudeDegrees>
              <LongitudeDegrees>-1.4368759654462337493896484375</LongitudeDegrees>
            </Position>
            <AltitudeMeters>19.3999996185302734375</AltitudeMeters>
            <DistanceMeters>NAN</DistanceMeters>
          </Trackpoint>
          <Trackpoint>
            <Time>2022-07-07T09:40:02.000Z</Time>
            <Position>
              <LatitudeDegrees>43.64580027759075164794921875</LatitudeDegrees>
              <LongitudeDegrees>-1.43729682080447673797607421875</LongitudeDegrees>
            </Position>
            <AltitudeMeters>20.3999996185302734375</AltitudeMeters>
            <DistanceMeters>NAN</DistanceMeters>
          </Trackpoint>
          <Trackpoint>
            <Time>2022-07-07T09:40:10.000Z</Time>
            <Position>
              <LatitudeDegrees>43.64600990898907184600830078125</LatitudeDegrees>
              <LongitudeDegrees>-1.43766093067824840545654296875</LongitudeDegrees>
            </Position>
            <AltitudeMeters>20</AltitudeMeters>
            <DistanceMeters>NAN</DistanceMeters>
          </Trackpoint>
          <Trackpoint>
            <Time>2022-07-07T09:40:18.000Z</Time>
            <Position>
              <LatitudeDegrees>43.64620973356068134307861328125</LatitudeDegrees>
              <LongitudeDegrees>-1.43800358287990093231201171875</LongitudeDegrees>
            </Position>
            <AltitudeMeters>19.6000003814697265625</AltitudeMeters>
            <DistanceMeters>NAN</DistanceMeters>
          </Trackpoint>
          <Trackpoint>
            <Time>2022-07-07T09:40:27.000Z</Time>
            <Position>
              <LatitudeDegrees>43.64642196334898471832275390625</LatitudeDegrees>
              <LongitudeDegrees>-1.43838043324649333953857421875</LongitudeDegrees>
            </Position>
            <AltitudeMeters>20.3999996185302734375</AltitudeMeters>
            <DistanceMeters>NAN</DistanceMeters>
          </Trackpoint>
          <Trackpoint>
            <Time>2022-07-07T09:40:36.000Z</Time>
            <Position>
              <LatitudeDegrees>43.64663251675665378570556640625</LatitudeDegrees>
              <LongitudeDegrees>-1.43872006796300411224365234375</LongitudeDegrees>
            </Position>
            <AltitudeMeters>20.799999237060546875</AltitudeMeters>
            <DistanceMeters>NAN</DistanceMeters>
          </Trackpoint>
          <Trackpoint>
            <Time>2022-07-07T09:40:42.000Z</Time>
            <Position>
              <LatitudeDegrees>43.64674550481140613555908203125</LatitudeDegrees>
              <LongitudeDegrees>-1.43893095664680004119873046875</LongitudeDegrees>
            </Position>
            <AltitudeMeters>20.6000003814697265625</AltitudeMeters>
            <DistanceMeters>NAN</DistanceMeters>
          </Trackpoint>
          <Trackpoint>
            <Time>2022-07-07T09:40:45.000Z</Time>
            <Position>
              <LatitudeDegrees>43.6467955447733402252197265625</LatitudeDegrees>
              <LongitudeDegrees>-1.43902583979070186614990234375</LongitudeDegrees>
            </Position>
            <AltitudeMeters>20.799999237060546875</AltitudeMeters>
            <DistanceMeters>NAN</DistanceMeters>
          </Trackpoint>
          <Trackpoint>
            <Time>2022-07-07T09:40:51.000Z</Time>
            <Position>
              <LatitudeDegrees>43.64689193665981292724609375</LatitudeDegrees>
              <LongitudeDegrees>-1.43918526358902454376220703125</LongitudeDegrees>
            </Position>
            <AltitudeMeters>21.3999996185302734375</AltitudeMeters>
            <DistanceMeters>NAN</DistanceMeters>
          </Trackpoint>
          <Trackpoint>
            <Time>2022-07-07T09:40:55.000Z</Time>
            <Position>
              <LatitudeDegrees>43.64695169962942600250244140625</LatitudeDegrees>
              <LongitudeDegrees>-1.439287103712558746337890625</LongitudeDegrees>
            </Position>
            <AltitudeMeters>21.6000003814697265625</AltitudeMeters>
            <DistanceMeters>NAN</DistanceMeters>
          </Trackpoint>
          <Trackpoint>
            <Time>2022-07-07T09:41:01.000Z</Time>
            <Position>
              <LatitudeDegrees>43.64703275263309478759765625</LatitudeDegrees>
              <LongitudeDegrees>-1.43942615948617458343505859375</LongitudeDegrees>
            </Position>
            <AltitudeMeters>22.200000762939453125</AltitudeMeters>
            <DistanceMeters>NAN</DistanceMeters>
          </Trackpoint>
          <Trackpoint>
            <Time>2022-07-07T09:41:04.000Z</Time>
            <Position>
              <LatitudeDegrees>43.6470610834658145904541015625</LatitudeDegrees>
              <LongitudeDegrees>-1.4394941367208957672119140625</LongitudeDegrees>
            </Position>
            <AltitudeMeters>22.3999996185302734375</AltitudeMeters>
            <DistanceMeters>NAN</DistanceMeters>
          </Trackpoint>
          <Trackpoint>
            <Time>2022-07-07T09:41:05.000Z</Time>
            <Position>
              <LatitudeDegrees>43.6470651067793369293212890625</LatitudeDegrees>
              <LongitudeDegrees>-1.439518444240093231201171875</LongitudeDegrees>
            </Position>
            <AltitudeMeters>22.3999996185302734375</AltitudeMeters>
            <DistanceMeters>NAN</DistanceMeters>
          </Trackpoint>
          <Trackpoint>
            <Time>2022-07-07T09:41:07.000Z</Time>
            <Position>
              <LatitudeDegrees>43.64707164466381072998046875</LatitudeDegrees>
              <LongitudeDegrees>-1.4395697414875030517578125</LongitudeDegrees>
            </Position>
            <AltitudeMeters>22.3999996185302734375</AltitudeMeters>
            <DistanceMeters>NAN</DistanceMeters>
          </Trackpoint>
          <Trackpoint>
            <Time>2022-07-07T09:41:09.000Z</Time>
            <Position>
              <LatitudeDegrees>43.64708044566214084625244140625</LatitudeDegrees>
              <LongitudeDegrees>-1.439608298242092132568359375</LongitudeDegrees>
            </Position>
            <AltitudeMeters>22.6000003814697265625</AltitudeMeters>
            <DistanceMeters>NAN</DistanceMeters>
          </Trackpoint>
          <Trackpoint>
            <Time>2022-07-07T09:41:13.000Z</Time>
            <Position>
              <LatitudeDegrees>43.64700618200004100799560546875</LatitudeDegrees>
              <LongitudeDegrees>-1.43968381918966770172119140625</LongitudeDegrees>
            </Position>
            <AltitudeMeters>22.6000003814697265625</AltitudeMeters>
            <DistanceMeters>NAN</DistanceMeters>
          </Trackpoint>
          <Trackpoint>
            <Time>2022-07-07T09:41:18.000Z</Time>
            <Position>
              <LatitudeDegrees>43.64685161970555782318115234375</LatitudeDegrees>
              <LongitudeDegrees>-1.439779959619045257568359375</LongitudeDegrees>
            </Position>
            <AltitudeMeters>23</AltitudeMeters>
            <DistanceMeters>NAN</DistanceMeters>
          </Trackpoint>
          <Trackpoint>
            <Time>2022-07-07T09:41:19.000Z</Time>
            <Position>
              <LatitudeDegrees>43.64681817591190338134765625</LatitudeDegrees>
              <LongitudeDegrees>-1.4398029260337352752685546875</LongitudeDegrees>
            </Position>
            <AltitudeMeters>23</AltitudeMeters>
            <DistanceMeters>NAN</DistanceMeters>
          </Trackpoint>
          <Trackpoint>
            <Time>2022-07-07T09:41:27.000Z</Time>
            <Position>
              <LatitudeDegrees>43.64654668606817722320556640625</LatitudeDegrees>
              <LongitudeDegrees>-1.43999478779733180999755859375</LongitudeDegrees>
            </Position>
            <AltitudeMeters>22.799999237060546875</AltitudeMeters>
            <DistanceMeters>NAN</DistanceMeters>
          </Trackpoint>
          <Trackpoint>
            <Time>2022-07-07T09:41:32.000Z</Time>
            <Position>
              <LatitudeDegrees>43.646375276148319244384765625</LatitudeDegrees>
              <LongitudeDegrees>-1.4401180855929851531982421875</LongitudeDegrees>
            </Position>
            <AltitudeMeters>22.3999996185302734375</AltitudeMeters>
            <DistanceMeters>NAN</DistanceMeters>
          </Trackpoint>
          <Trackpoint>
            <Time>2022-07-07T09:41:34.000Z</Time>
            <Position>
              <LatitudeDegrees>43.64629724062979221343994140625</LatitudeDegrees>
              <LongitudeDegrees>-1.44015605561435222625732421875</LongitudeDegrees>
            </Position>
            <AltitudeMeters>22.3999996185302734375</AltitudeMeters>
            <DistanceMeters>NAN</DistanceMeters>
          </Trackpoint>
          <Trackpoint>
            <Time>2022-07-07T09:41:43.000Z</Time>
            <Position>
              <LatitudeDegrees>43.6459281854331493377685546875</LatitudeDegrees>
              <LongitudeDegrees>-1.4403283037245273590087890625</LongitudeDegrees>
            </Position>
            <AltitudeMeters>21.799999237060546875</AltitudeMeters>
            <DistanceMeters>NAN</DistanceMeters>
          </Trackpoint>
          <Trackpoint>
            <Time>2022-07-07T09:41:49.000Z</Time>
            <Position>
              <LatitudeDegrees>43.64567555487155914306640625</LatitudeDegrees>
              <LongitudeDegrees>-1.44043550826609134674072265625</LongitudeDegrees>
            </Position>
            <AltitudeMeters>21.3999996185302734375</AltitudeMeters>
            <DistanceMeters>NAN</DistanceMeters>
          </Trackpoint>
          <Trackpoint>
            <Time>2022-07-07T09:41:53.000Z</Time>
            <Position>
              <LatitudeDegrees>43.64549593068659305572509765625</LatitudeDegrees>
              <LongitudeDegrees>-1.4405150525271892547607421875</LongitudeDegrees>
            </Position>
            <AltitudeMeters>21.3999996185302734375</AltitudeMeters>
            <DistanceMeters>NAN</DistanceMeters>
          </Trackpoint>
          <Trackpoint>
            <Time>2022-07-07T09:42:01.000Z</Time>
            <Position>
              <LatitudeDegrees>43.64515596069395542144775390625</LatitudeDegrees>
              <LongitudeDegrees>-1.44067070446908473968505859375</LongitudeDegrees>
            </Position>
            <AltitudeMeters>21</AltitudeMeters>
            <DistanceMeters>NAN</DistanceMeters>
          </Trackpoint>
          <Trackpoint>
            <Time>2022-07-07T09:42:09.000Z</Time>
            <Position>
              <LatitudeDegrees>43.64488522522151470184326171875</LatitudeDegrees>
              <LongitudeDegrees>-1.44077338278293609619140625</LongitudeDegrees>
            </Position>
            <AltitudeMeters>21</AltitudeMeters>
            <DistanceMeters>NAN</DistanceMeters>
          </Trackpoint>
          <Trackpoint>
            <Time>2022-07-07T09:42:12.000Z</Time>
            <Position>
              <LatitudeDegrees>43.64481062628328800201416015625</LatitudeDegrees>
              <LongitudeDegrees>-1.44080716185271739959716796875</LongitudeDegrees>
            </Position>
            <AltitudeMeters>21.3999996185302734375</AltitudeMeters>
            <DistanceMeters>NAN</DistanceMeters>
          </Trackpoint>
          <Trackpoint>
            <Time>2022-07-07T09:42:16.000Z</Time>
            <Position>
              <LatitudeDegrees>43.64471557550132274627685546875</LatitudeDegrees>
              <LongitudeDegrees>-1.44085661508142948150634765625</LongitudeDegrees>
            </Position>
            <AltitudeMeters>21.799999237060546875</AltitudeMeters>
            <DistanceMeters>NAN</DistanceMeters>
          </Trackpoint>
          <Trackpoint>
            <Time>2022-07-07T09:42:22.000Z</Time>
            <Position>
              <LatitudeDegrees>43.6445642821490764617919921875</LatitudeDegrees>
              <LongitudeDegrees>-1.4409204013645648956298828125</LongitudeDegrees>
            </Position>
            <AltitudeMeters>22.3999996185302734375</AltitudeMeters>
            <DistanceMeters>NAN</DistanceMeters>
          </Trackpoint>
          <Trackpoint>
            <Time>2022-07-07T09:42:23.000Z</Time>
            <Position>
              <LatitudeDegrees>43.64454190246760845184326171875</LatitudeDegrees>
              <LongitudeDegrees>-1.44093322567641735076904296875</LongitudeDegrees>
            </Position>
            <AltitudeMeters>22.6000003814697265625</AltitudeMeters>
            <DistanceMeters>NAN</DistanceMeters>
          </Trackpoint>
          <Trackpoint>
            <Time>2022-07-07T09:42:26.000Z</Time>
            <Position>
              <LatitudeDegrees>43.64447820000350475311279296875</LatitudeDegrees>
              <LongitudeDegrees>-1.4409666694700717926025390625</LongitudeDegrees>
            </Position>
            <AltitudeMeters>23</AltitudeMeters>
            <DistanceMeters>NAN</DistanceMeters>
          </Trackpoint>
          <Trackpoint>
            <Time>2022-07-07T09:42:29.000Z</Time>
            <Position>
              <LatitudeDegrees>43.64441717974841594696044921875</LatitudeDegrees>
              <LongitudeDegrees>-1.44098301418125629425048828125</LongitudeDegrees>
            </Position>
            <AltitudeMeters>23.3999996185302734375</AltitudeMeters>
            <DistanceMeters>NAN</DistanceMeters>
          </Trackpoint>
          <Trackpoint>
            <Time>2022-07-07T09:42:36.000Z</Time>
            <Position>
              <LatitudeDegrees>43.644239902496337890625</LatitudeDegrees>
              <LongitudeDegrees>-1.441033221781253814697265625</LongitudeDegrees>
            </Position>
            <AltitudeMeters>24</AltitudeMeters>
            <DistanceMeters>NAN</DistanceMeters>
          </Trackpoint>
          <Trackpoint>
            <Time>2022-07-07T09:42:40.000Z</Time>
            <Position>
              <LatitudeDegrees>43.64411442540585994720458984375</LatitudeDegrees>
              <LongitudeDegrees>-1.44109080545604228973388671875</LongitudeDegrees>
            </Position>
            <AltitudeMeters>24.200000762939453125</AltitudeMeters>
            <DistanceMeters>NAN</DistanceMeters>
          </Trackpoint>
          <Trackpoint>
            <Time>2022-07-07T09:42:43.000Z</Time>
            <Position>
              <LatitudeDegrees>43.644003532826900482177734375</LatitudeDegrees>
              <LongitudeDegrees>-1.44113774411380290985107421875</LongitudeDegrees>
            </Position>
            <AltitudeMeters>24.200000762939453125</AltitudeMeters>
            <DistanceMeters>NAN</DistanceMeters>
          </Trackpoint>
          <Trackpoint>
            <Time>2022-07-07T09:42:48.000Z</Time>
            <Position>
              <LatitudeDegrees>43.6437438614666461944580078125</LatitudeDegrees>
              <LongitudeDegrees>-1.44119977019727230072021484375</LongitudeDegrees>
            </Position>
            <AltitudeMeters>23.3999996185302734375</AltitudeMeters>
            <DistanceMeters>NAN</DistanceMeters>
          </Trackpoint>
          <Trackpoint>
            <Time>2022-07-07T09:42:52.000Z</Time>
            <Position>
              <LatitudeDegrees>43.64347974769771099090576171875</LatitudeDegrees>
              <LongitudeDegrees>-1.44126364029943943023681640625</LongitudeDegrees>
            </Position>
            <AltitudeMeters>22.3999996185302734375</AltitudeMeters>
            <DistanceMeters>NAN</DistanceMeters>
          </Trackpoint>
          <Trackpoint>
            <Time>2022-07-07T09:42:54.000Z</Time>
            <Position>
              <LatitudeDegrees>43.64332183264195919036865234375</LatitudeDegrees>
              <LongitudeDegrees>-1.441296748816967010498046875</LongitudeDegrees>
            </Position>
            <AltitudeMeters>21.6000003814697265625</AltitudeMeters>
            <DistanceMeters>NAN</DistanceMeters>
          </Trackpoint>
          <Trackpoint>
            <Time>2022-07-07T09:42:55.000Z</Time>
            <Position>
              <LatitudeDegrees>43.6432469822466373443603515625</LatitudeDegrees>
              <LongitudeDegrees>-1.44131359644234180450439453125</LongitudeDegrees>
            </Position>
            <AltitudeMeters>21.200000762939453125</AltitudeMeters>
            <DistanceMeters>NAN</DistanceMeters>
          </Trackpoint>
          <Trackpoint>
            <Time>2022-07-07T09:42:57.000Z</Time>
            <Position>
              <LatitudeDegrees>43.64310063421726226806640625</LatitudeDegrees>
              <LongitudeDegrees>-1.44133840687572956085205078125</LongitudeDegrees>
            </Position>
            <AltitudeMeters>20.6000003814697265625</AltitudeMeters>
            <DistanceMeters>NAN</DistanceMeters>
          </Trackpoint>
          <Trackpoint>
            <Time>2022-07-07T09:42:58.000Z</Time>
            <Position>
              <LatitudeDegrees>43.64303089678287506103515625</LatitudeDegrees>
              <LongitudeDegrees>-1.4413512311875820159912109375</LongitudeDegrees>
            </Position>
            <AltitudeMeters>20.200000762939453125</AltitudeMeters>
            <DistanceMeters>NAN</DistanceMeters>
          </Trackpoint>
          <Trackpoint>
            <Time>2022-07-07T09:43:02.000Z</Time>
            <Position>
              <LatitudeDegrees>43.64276745356619358062744140625</LatitudeDegrees>
              <LongitudeDegrees>-1.44139976240694522857666015625</LongitudeDegrees>
            </Position>
            <AltitudeMeters>19.6000003814697265625</AltitudeMeters>
            <DistanceMeters>NAN</DistanceMeters>
          </Trackpoint>
          <Trackpoint>
            <Time>2022-07-07T09:43:08.000Z</Time>
            <Position>
              <LatitudeDegrees>43.642402589321136474609375</LatitudeDegrees>
              <LongitudeDegrees>-1.4414913766086101531982421875</LongitudeDegrees>
            </Position>
            <AltitudeMeters>19.3999996185302734375</AltitudeMeters>
            <DistanceMeters>NAN</DistanceMeters>
          </Trackpoint>
          <Trackpoint>
            <Time>2022-07-07T09:43:09.000Z</Time>
            <Position>
              <LatitudeDegrees>43.64234718494117259979248046875</LatitudeDegrees>
              <LongitudeDegrees>-1.441497914493083953857421875</LongitudeDegrees>
            </Position>
            <AltitudeMeters>19.200000762939453125</AltitudeMeters>
            <DistanceMeters>NAN</DistanceMeters>
          </Trackpoint>
          <Trackpoint>
            <Time>2022-07-07T09:43:12.000Z</Time>
            <Position>
              <LatitudeDegrees>43.64220050163567066192626953125</LatitudeDegrees>
              <LongitudeDegrees>-1.44152180291712284088134765625</LongitudeDegrees>
            </Position>
            <AltitudeMeters>19.200000762939453125</AltitudeMeters>
            <DistanceMeters>NAN</DistanceMeters>
          </Trackpoint>
          <Trackpoint>
            <Time>2022-07-07T09:43:15.000Z</Time>
            <Position>
              <LatitudeDegrees>43.64204518496990203857421875</LatitudeDegrees>
              <LongitudeDegrees>-1.44155465997755527496337890625</LongitudeDegrees>
            </Position>
            <AltitudeMeters>18.799999237060546875</AltitudeMeters>
            <DistanceMeters>NAN</DistanceMeters>
          </Trackpoint>
          <Trackpoint>
            <Time>2022-07-07T09:43:22.000Z</Time>
            <Position>
              <LatitudeDegrees>43.64171938039362430572509765625</LatitudeDegrees>
              <LongitudeDegrees>-1.4415869303047657012939453125</LongitudeDegrees>
            </Position>
            <AltitudeMeters>18.799999237060546875</AltitudeMeters>
            <DistanceMeters>NAN</DistanceMeters>
          </Trackpoint>
          <Trackpoint>
            <Time>2022-07-07T09:43:25.000Z</Time>
            <Position>
              <LatitudeDegrees>43.64159591495990753173828125</LatitudeDegrees>
              <LongitudeDegrees>-1.44157804548740386962890625</LongitudeDegrees>
            </Position>
            <AltitudeMeters>18.799999237060546875</AltitudeMeters>
            <DistanceMeters>NAN</DistanceMeters>
          </Trackpoint>
          <Trackpoint>
            <Time>2022-07-07T09:43:28.000Z</Time>
            <Position>
              <LatitudeDegrees>43.64149223081767559051513671875</LatitudeDegrees>
              <LongitudeDegrees>-1.44154259003698825836181640625</LongitudeDegrees>
            </Position>
            <AltitudeMeters>18.3999996185302734375</AltitudeMeters>
            <DistanceMeters>NAN</DistanceMeters>
          </Trackpoint>
          <Trackpoint>
            <Time>2022-07-07T09:43:31.000Z</Time>
            <Position>
              <LatitudeDegrees>43.64138594828546047210693359375</LatitudeDegrees>
              <LongitudeDegrees>-1.44154996611177921295166015625</LongitudeDegrees>
            </Position>
            <AltitudeMeters>18.3999996185302734375</AltitudeMeters>
            <DistanceMeters>NAN</DistanceMeters>
          </Trackpoint>
          <Trackpoint>
            <Time>2022-07-07T09:43:32.000Z</Time>
            <Position>
              <LatitudeDegrees>43.6413593776524066925048828125</LatitudeDegrees>
              <LongitudeDegrees>-1.4415829069912433624267578125</LongitudeDegrees>
            </Position>
            <AltitudeMeters>18.3999996185302734375</AltitudeMeters>
            <DistanceMeters>NAN</DistanceMeters>
          </Trackpoint>
          <Trackpoint>
            <Time>2022-07-07T09:43:35.000Z</Time>
            <Position>
              <LatitudeDegrees>43.6412862874567508697509765625</LatitudeDegrees>
              <LongitudeDegrees>-1.4416958950459957122802734375</LongitudeDegrees>
            </Position>
            <AltitudeMeters>18.6000003814697265625</AltitudeMeters>
            <DistanceMeters>NAN</DistanceMeters>
          </Trackpoint>
          <Trackpoint>
            <Time>2022-07-07T09:43:36.000Z</Time>
            <Position>
              <LatitudeDegrees>43.6412581242620944976806640625</LatitudeDegrees>
              <LongitudeDegrees>-1.44170888699591159820556640625</LongitudeDegrees>
            </Position>
            <AltitudeMeters>18.6000003814697265625</AltitudeMeters>
            <DistanceMeters>NAN</DistanceMeters>
          </Trackpoint>
          <Trackpoint>
            <Time>2022-07-07T09:43:40.000Z</Time>
            <Position>
              <LatitudeDegrees>43.64112711511552333831787109375</LatitudeDegrees>
              <LongitudeDegrees>-1.44160344265401363372802734375</LongitudeDegrees>
            </Position>
            <AltitudeMeters>18.3999996185302734375</AltitudeMeters>
            <DistanceMeters>NAN</DistanceMeters>
          </Trackpoint>
          <Trackpoint>
            <Time>2022-07-07T09:43:42.000Z</Time>
            <Position>
              <LatitudeDegrees>43.6410546116530895233154296875</LatitudeDegrees>
              <LongitudeDegrees>-1.44151979126036167144775390625</LongitudeDegrees>
            </Position>
            <AltitudeMeters>18.3999996185302734375</AltitudeMeters>
            <DistanceMeters>NAN</DistanceMeters>
          </Trackpoint>
          <Trackpoint>
            <Time>2022-07-07T09:43:45.000Z</Time>
            <Position>
              <LatitudeDegrees>43.64094556309282779693603515625</LatitudeDegrees>
              <LongitudeDegrees>-1.44139070995151996612548828125</LongitudeDegrees>
            </Position>
            <AltitudeMeters>18.3999996185302734375</AltitudeMeters>
            <DistanceMeters>NAN</DistanceMeters>
          </Trackpoint>
          <Trackpoint>
            <Time>2022-07-07T09:43:46.000Z</Time>
            <Position>
              <LatitudeDegrees>43.64091002382338047027587890625</LatitudeDegrees>
              <LongitudeDegrees>-1.4413391612470149993896484375</LongitudeDegrees>
            </Position>
            <AltitudeMeters>18.3999996185302734375</AltitudeMeters>
            <DistanceMeters>NAN</DistanceMeters>
          </Trackpoint>
          <Trackpoint>
            <Time>2022-07-07T09:43:53.000Z</Time>
            <Position>
              <LatitudeDegrees>43.64067432470619678497314453125</LatitudeDegrees>
              <LongitudeDegrees>-1.44097463227808475494384765625</LongitudeDegrees>
            </Position>
            <AltitudeMeters>18.6000003814697265625</AltitudeMeters>
            <DistanceMeters>NAN</DistanceMeters>
          </Trackpoint>
          <Trackpoint>
            <Time>2022-07-07T09:44:02.000Z</Time>
            <Position>
              <LatitudeDegrees>43.6403770186007022857666015625</LatitudeDegrees>
              <LongitudeDegrees>-1.4405541121959686279296875</LongitudeDegrees>
            </Position>
            <AltitudeMeters>19.200000762939453125</AltitudeMeters>
            <DistanceMeters>NAN</DistanceMeters>
          </Trackpoint>
          <Trackpoint>
            <Time>2022-07-07T09:44:03.000Z</Time>
            <Position>
              <LatitudeDegrees>43.640342317521572113037109375</LatitudeDegrees>
              <LongitudeDegrees>-1.44051245413720607757568359375</LongitudeDegrees>
            </Position>
            <AltitudeMeters>19.200000762939453125</AltitudeMeters>
            <DistanceMeters>NAN</DistanceMeters>
          </Trackpoint>
          <Trackpoint>
            <Time>2022-07-07T09:44:06.000Z</Time>
            <Position>
              <LatitudeDegrees>43.64024483598768711090087890625</LatitudeDegrees>
              <LongitudeDegrees>-1.440391838550567626953125</LongitudeDegrees>
            </Position>
            <AltitudeMeters>19.3999996185302734375</AltitudeMeters>
            <DistanceMeters>NAN</DistanceMeters>
          </Trackpoint>
          <Trackpoint>
            <Time>2022-07-07T09:44:10.000Z</Time>
            <Position>
              <LatitudeDegrees>43.64010619930922985076904296875</LatitudeDegrees>
              <LongitudeDegrees>-1.4401812851428985595703125</LongitudeDegrees>
            </Position>
            <AltitudeMeters>19.200000762939453125</AltitudeMeters>
            <DistanceMeters>NAN</DistanceMeters>
          </Trackpoint>
          <Trackpoint>
            <Time>2022-07-07T09:44:15.000Z</Time>
            <Position>
              <LatitudeDegrees>43.63990553654730319976806640625</LatitudeDegrees>
              <LongitudeDegrees>-1.4398954622447490692138671875</LongitudeDegrees>
            </Position>
            <AltitudeMeters>18.6000003814697265625</AltitudeMeters>
            <DistanceMeters>NAN</DistanceMeters>
          </Trackpoint>
          <Trackpoint>
            <Time>2022-07-07T09:44:17.000Z</Time>
            <Position>
              <LatitudeDegrees>43.639835380017757415771484375</LatitudeDegrees>
              <LongitudeDegrees>-1.439767219126224517822265625</LongitudeDegrees>
            </Position>
            <AltitudeMeters>18.6000003814697265625</AltitudeMeters>
            <DistanceMeters>NAN</DistanceMeters>
          </Trackpoint>
          <Trackpoint>
            <Time>2022-07-07T09:44:19.000Z</Time>
            <Position>
              <LatitudeDegrees>43.63978902809321880340576171875</LatitudeDegrees>
              <LongitudeDegrees>-1.4396314322948455810546875</LongitudeDegrees>
            </Position>
            <AltitudeMeters>18.3999996185302734375</AltitudeMeters>
            <DistanceMeters>NAN</DistanceMeters>
          </Trackpoint>
          <Trackpoint>
            <Time>2022-07-07T09:44:20.000Z</Time>
            <Position>
              <LatitudeDegrees>43.6397735215723514556884765625</LatitudeDegrees>
              <LongitudeDegrees>-1.4395625330507755279541015625</LongitudeDegrees>
            </Position>
            <AltitudeMeters>18.3999996185302734375</AltitudeMeters>
            <DistanceMeters>NAN</DistanceMeters>
          </Trackpoint>
          <Trackpoint>
            <Time>2022-07-07T09:44:23.000Z</Time>
            <Position>
              <LatitudeDegrees>43.63973722793161869049072265625</LatitudeDegrees>
              <LongitudeDegrees>-1.43935985863208770751953125</LongitudeDegrees>
            </Position>
            <AltitudeMeters>18.200000762939453125</AltitudeMeters>
            <DistanceMeters>NAN</DistanceMeters>
          </Trackpoint>
          <Trackpoint>
            <Time>2022-07-07T09:44:28.000Z</Time>
            <Position>
              <LatitudeDegrees>43.639682494103908538818359375</LatitudeDegrees>
              <LongitudeDegrees>-1.43903371877968311309814453125</LongitudeDegrees>
            </Position>
            <AltitudeMeters>18.200000762939453125</AltitudeMeters>
            <DistanceMeters>NAN</DistanceMeters>
          </Trackpoint>
          <Trackpoint>
            <Time>2022-07-07T09:44:34.000Z</Time>
            <Position>
              <LatitudeDegrees>43.6396229825913906097412109375</LatitudeDegrees>
              <LongitudeDegrees>-1.43868184648454189300537109375</LongitudeDegrees>
            </Position>
            <AltitudeMeters>18.3999996185302734375</AltitudeMeters>
            <DistanceMeters>NAN</DistanceMeters>
          </Trackpoint>
          <Trackpoint>
            <Time>2022-07-07T09:44:41.000Z</Time>
            <Position>
              <LatitudeDegrees>43.6395508982241153717041015625</LatitudeDegrees>
              <LongitudeDegrees>-1.43824263475835323333740234375</LongitudeDegrees>
            </Position>
            <AltitudeMeters>18.3999996185302734375</AltitudeMeters>
            <DistanceMeters>NAN</DistanceMeters>
          </Trackpoint>
          <Trackpoint>
            <Time>2022-07-07T09:44:44.000Z</Time>
            <Position>
              <LatitudeDegrees>43.63950504921376705169677734375</LatitudeDegrees>
              <LongitudeDegrees>-1.438036859035491943359375</LongitudeDegrees>
            </Position>
            <AltitudeMeters>18.200000762939453125</AltitudeMeters>
            <DistanceMeters>NAN</DistanceMeters>
          </Trackpoint>
          <Trackpoint>
            <Time>2022-07-07T09:44:45.000Z</Time>
            <Position>
              <LatitudeDegrees>43.63949574530124664306640625</LatitudeDegrees>
              <LongitudeDegrees>-1.4379672892391681671142578125</LongitudeDegrees>
            </Position>
            <AltitudeMeters>18.200000762939453125</AltitudeMeters>
            <DistanceMeters>NAN</DistanceMeters>
          </Trackpoint>
          <Trackpoint>
            <Time>2022-07-07T09:44:50.000Z</Time>
            <Position>
              <LatitudeDegrees>43.63944486714899539947509765625</LatitudeDegrees>
              <LongitudeDegrees>-1.43765975721180438995361328125</LongitudeDegrees>
            </Position>
            <AltitudeMeters>18</AltitudeMeters>
            <DistanceMeters>NAN</DistanceMeters>
          </Trackpoint>
          <Trackpoint>
            <Time>2022-07-07T09:44:51.000Z</Time>
            <Position>
              <LatitudeDegrees>43.6394312046468257904052734375</LatitudeDegrees>
              <LongitudeDegrees>-1.437604017555713653564453125</LongitudeDegrees>
            </Position>
            <AltitudeMeters>18</AltitudeMeters>
            <DistanceMeters>NAN</DistanceMeters>
          </Trackpoint>
          <Trackpoint>
            <Time>2022-07-07T09:44:53.000Z</Time>
            <Position>
              <LatitudeDegrees>43.63940413109958171844482421875</LatitudeDegrees>
              <LongitudeDegrees>-1.43749195151031017303466796875</LongitudeDegrees>
            </Position>
            <AltitudeMeters>18</AltitudeMeters>
            <DistanceMeters>NAN</DistanceMeters>
          </Trackpoint>
          <Trackpoint>
            <Time>2022-07-07T09:44:54.000Z</Time>
            <Position>
              <LatitudeDegrees>43.63938820548355579376220703125</LatitudeDegrees>
              <LongitudeDegrees>-1.4374355413019657135009765625</LongitudeDegrees>
            </Position>
            <AltitudeMeters>18</AltitudeMeters>
            <DistanceMeters>NAN</DistanceMeters>
          </Trackpoint>
          <Trackpoint>
            <Time>2022-07-07T09:44:57.000Z</Time>
            <Position>
              <LatitudeDegrees>43.63932701759040355682373046875</LatitudeDegrees>
              <LongitudeDegrees>-1.43726077862083911895751953125</LongitudeDegrees>
            </Position>
            <AltitudeMeters>18</AltitudeMeters>
            <DistanceMeters>NAN</DistanceMeters>
          </Trackpoint>
          <Trackpoint>
            <Time>2022-07-07T09:44:58.000Z</Time>
            <Position>
              <LatitudeDegrees>43.63929348997771739959716796875</LatitudeDegrees>
              <LongitudeDegrees>-1.43722054548561573028564453125</LongitudeDegrees>
            </Position>
            <AltitudeMeters>18</AltitudeMeters>
            <DistanceMeters>NAN</DistanceMeters>
          </Trackpoint>
          <Trackpoint>
            <Time>2022-07-07T09:45:02.000Z</Time>
            <Position>
              <LatitudeDegrees>43.639138005673885345458984375</LatitudeDegrees>
              <LongitudeDegrees>-1.4370747841894626617431640625</LongitudeDegrees>
            </Position>
            <AltitudeMeters>18</AltitudeMeters>
            <DistanceMeters>NAN</DistanceMeters>
          </Trackpoint>
          <Trackpoint>
            <Time>2022-07-07T09:45:05.000Z</Time>
            <Position>
              <LatitudeDegrees>43.63900448195636272430419921875</LatitudeDegrees>
              <LongitudeDegrees>-1.43696908839046955108642578125</LongitudeDegrees>
            </Position>
            <AltitudeMeters>18.200000762939453125</AltitudeMeters>
            <DistanceMeters>NAN</DistanceMeters>
          </Trackpoint>
          <Trackpoint>
            <Time>2022-07-07T09:45:07.000Z</Time>
            <Position>
              <LatitudeDegrees>43.63892175257205963134765625</LatitudeDegrees>
              <LongitudeDegrees>-1.43689415417611598968505859375</LongitudeDegrees>
            </Position>
            <AltitudeMeters>18.6000003814697265625</AltitudeMeters>
            <DistanceMeters>NAN</DistanceMeters>
          </Trackpoint>
          <Trackpoint>
            <Time>2022-07-07T09:45:09.000Z</Time>
            <Position>
              <LatitudeDegrees>43.63886148668825626373291015625</LatitudeDegrees>
              <LongitudeDegrees>-1.4368186332285404205322265625</LongitudeDegrees>
            </Position>
            <AltitudeMeters>18.799999237060546875</AltitudeMeters>
            <DistanceMeters>NAN</DistanceMeters>
          </Trackpoint>
          <Trackpoint>
            <Time>2022-07-07T09:45:14.000Z</Time>
            <Position>
              <LatitudeDegrees>43.63870776258409023284912109375</LatitudeDegrees>
              <LongitudeDegrees>-1.43666692078113555908203125</LongitudeDegrees>
            </Position>
            <AltitudeMeters>18.6000003814697265625</AltitudeMeters>
            <DistanceMeters>NAN</DistanceMeters>
          </Trackpoint>
          <Trackpoint>
            <Time>2022-07-07T09:45:19.000Z</Time>
            <Position>
              <LatitudeDegrees>43.6385214328765869140625</LatitudeDegrees>
              <LongitudeDegrees>-1.4366241730749607086181640625</LongitudeDegrees>
            </Position>
            <AltitudeMeters>18.3999996185302734375</AltitudeMeters>
            <DistanceMeters>NAN</DistanceMeters>
          </Trackpoint>
          <Trackpoint>
            <Time>2022-07-07T09:45:24.000Z</Time>
            <Position>
              <LatitudeDegrees>43.6383854784071445465087890625</LatitudeDegrees>
              <LongitudeDegrees>-1.4366634003818035125732421875</LongitudeDegrees>
            </Position>
            <AltitudeMeters>18.3999996185302734375</AltitudeMeters>
            <DistanceMeters>NAN</DistanceMeters>
          </Trackpoint>
          <Trackpoint>
            <Time>2022-07-07T09:45:27.000Z</Time>
            <Position>
              <LatitudeDegrees>43.6382889188826084136962890625</LatitudeDegrees>
              <LongitudeDegrees>-1.43673975951969623565673828125</LongitudeDegrees>
            </Position>
            <AltitudeMeters>18.6000003814697265625</AltitudeMeters>
            <DistanceMeters>NAN</DistanceMeters>
          </Trackpoint>
          <Trackpoint>
            <Time>2022-07-07T09:45:28.000Z</Time>
            <Position>
              <LatitudeDegrees>43.63825782202184200286865234375</LatitudeDegrees>
              <LongitudeDegrees>-1.436775214970111846923828125</LongitudeDegrees>
            </Position>
            <AltitudeMeters>18.6000003814697265625</AltitudeMeters>
            <DistanceMeters>NAN</DistanceMeters>
          </Trackpoint>
          <Trackpoint>
            <Time>2022-07-07T09:45:29.000Z</Time>
            <Position>
              <LatitudeDegrees>43.63822848536074161529541015625</LatitudeDegrees>
              <LongitudeDegrees>-1.4368177950382232666015625</LongitudeDegrees>
            </Position>
            <AltitudeMeters>18.6000003814697265625</AltitudeMeters>
            <DistanceMeters>NAN</DistanceMeters>
          </Trackpoint>
          <Trackpoint>
            <Time>2022-07-07T09:45:31.000Z</Time>
            <Position>
              <LatitudeDegrees>43.63816402852535247802734375</LatitudeDegrees>
              <LongitudeDegrees>-1.4369089901447296142578125</LongitudeDegrees>
            </Position>
            <AltitudeMeters>18.6000003814697265625</AltitudeMeters>
            <DistanceMeters>NAN</DistanceMeters>
          </Trackpoint>
          <Trackpoint>
            <Time>2022-07-07T09:45:32.000Z</Time>
            <Position>
              <LatitudeDegrees>43.63813184201717376708984375</LatitudeDegrees>
              <LongitudeDegrees>-1.43695098347961902618408203125</LongitudeDegrees>
            </Position>
            <AltitudeMeters>18.6000003814697265625</AltitudeMeters>
            <DistanceMeters>NAN</DistanceMeters>
          </Trackpoint>
          <Trackpoint>
            <Time>2022-07-07T09:45:35.000Z</Time>
            <Position>
              <LatitudeDegrees>43.6380263976752758026123046875</LatitudeDegrees>
              <LongitudeDegrees>-1.4370868541300296783447265625</LongitudeDegrees>
            </Position>
            <AltitudeMeters>18.6000003814697265625</AltitudeMeters>
            <DistanceMeters>NAN</DistanceMeters>
          </Trackpoint>
          <Trackpoint>
            <Time>2022-07-07T09:45:42.000Z</Time>
            <Position>
              <LatitudeDegrees>43.637753985822200775146484375</LatitudeDegrees>
              <LongitudeDegrees>-1.437419615685939788818359375</LongitudeDegrees>
            </Position>
            <AltitudeMeters>18.200000762939453125</AltitudeMeters>
            <DistanceMeters>NAN</DistanceMeters>
          </Trackpoint>
          <Trackpoint>
            <Time>2022-07-07T09:45:49.000Z</Time>
            <Position>
              <LatitudeDegrees>43.63752909936010837554931640625</LatitudeDegrees>
              <LongitudeDegrees>-1.43768188543617725372314453125</LongitudeDegrees>
            </Position>
            <AltitudeMeters>18.6000003814697265625</AltitudeMeters>
            <DistanceMeters>NAN</DistanceMeters>
          </Trackpoint>
          <Trackpoint>
            <Time>2022-07-07T09:45:55.000Z</Time>
            <Position>
              <LatitudeDegrees>43.63737973384559154510498046875</LatitudeDegrees>
              <LongitudeDegrees>-1.43793636001646518707275390625</LongitudeDegrees>
            </Position>
            <AltitudeMeters>19.200000762939453125</AltitudeMeters>
            <DistanceMeters>NAN</DistanceMeters>
          </Trackpoint>
          <Trackpoint>
            <Time>2022-07-07T09:45:56.000Z</Time>
            <Position>
              <LatitudeDegrees>43.63736280240118503570556640625</LatitudeDegrees>
              <LongitudeDegrees>-1.43798145465552806854248046875</LongitudeDegrees>
            </Position>
            <AltitudeMeters>19.3999996185302734375</AltitudeMeters>
            <DistanceMeters>NAN</DistanceMeters>
          </Trackpoint>
          <Trackpoint>
            <Time>2022-07-07T09:46:03.000Z</Time>
            <Position>
              <LatitudeDegrees>43.63723489455878734588623046875</LatitudeDegrees>
              <LongitudeDegrees>-1.438286304473876953125</LongitudeDegrees>
            </Position>
            <AltitudeMeters>19</AltitudeMeters>
            <DistanceMeters>NAN</DistanceMeters>
          </Trackpoint>
          <Trackpoint>
            <Time>2022-07-07T09:46:04.000Z</Time>
            <Position>
              <LatitudeDegrees>43.63722584210336208343505859375</LatitudeDegrees>
              <LongitudeDegrees>-1.43831237219274044036865234375</LongitudeDegrees>
            </Position>
            <AltitudeMeters>19</AltitudeMeters>
            <DistanceMeters>NAN</DistanceMeters>
          </Trackpoint>
          <Trackpoint>
            <Time>2022-07-07T09:46:08.000Z</Time>
            <Position>
              <LatitudeDegrees>43.63719667308032512664794921875</LatitudeDegrees>
              <LongitudeDegrees>-1.438430808484554290771484375</LongitudeDegrees>
            </Position>
            <AltitudeMeters>18.6000003814697265625</AltitudeMeters>
            <DistanceMeters>NAN</DistanceMeters>
          </Trackpoint>
          <Trackpoint>
            <Time>2022-07-07T09:46:11.000Z</Time>
            <Position>
              <LatitudeDegrees>43.63716364838182926177978515625</LatitudeDegrees>
              <LongitudeDegrees>-1.438495181500911712646484375</LongitudeDegrees>
            </Position>
            <AltitudeMeters>18.6000003814697265625</AltitudeMeters>
            <DistanceMeters>NAN</DistanceMeters>
          </Trackpoint>
          <Trackpoint>
            <Time>2022-07-07T09:46:14.000Z</Time>
            <Position>
              <LatitudeDegrees>43.63713028840720653533935546875</LatitudeDegrees>
              <LongitudeDegrees>-1.4384752325713634490966796875</LongitudeDegrees>
            </Position>
            <AltitudeMeters>18.6000003814697265625</AltitudeMeters>
            <DistanceMeters>NAN</DistanceMeters>
          </Trackpoint>
          <Trackpoint>
            <Time>2022-07-07T09:46:17.000Z</Time>
            <Position>
              <LatitudeDegrees>43.637102879583835601806640625</LatitudeDegrees>
              <LongitudeDegrees>-1.43836953677237033843994140625</LongitudeDegrees>
            </Position>
            <AltitudeMeters>18.6000003814697265625</AltitudeMeters>
            <DistanceMeters>NAN</DistanceMeters>
          </Trackpoint>
          <Trackpoint>
            <Time>2022-07-07T09:46:19.000Z</Time>
            <Position>
              <LatitudeDegrees>43.63706390373408794403076171875</LatitudeDegrees>
              <LongitudeDegrees>-1.4383102767169475555419921875</LongitudeDegrees>
            </Position>
            <AltitudeMeters>18.6000003814697265625</AltitudeMeters>
            <DistanceMeters>NAN</DistanceMeters>
          </Trackpoint>
          <Trackpoint>
            <Time>2022-07-07T09:46:21.000Z</Time>
            <Position>
              <LatitudeDegrees>43.63700925372540950775146484375</LatitudeDegrees>
              <LongitudeDegrees>-1.43827767111361026763916015625</LongitudeDegrees>
            </Position>
            <AltitudeMeters>18.3999996185302734375</AltitudeMeters>
            <DistanceMeters>NAN</DistanceMeters>
          </Trackpoint>
          <Trackpoint>
            <Time>2022-07-07T09:46:24.000Z</Time>
            <Position>
              <LatitudeDegrees>43.63690607249736785888671875</LatitudeDegrees>
              <LongitudeDegrees>-1.43823509104549884796142578125</LongitudeDegrees>
            </Position>
            <AltitudeMeters>18.3999996185302734375</AltitudeMeters>
            <DistanceMeters>NAN</DistanceMeters>
          </Trackpoint>
          <Trackpoint>
            <Time>2022-07-07T09:46:25.000Z</Time>
            <Position>
              <LatitudeDegrees>43.6368753947317600250244140625</LatitudeDegrees>
              <LongitudeDegrees>-1.43822587095201015472412109375</LongitudeDegrees>
            </Position>
            <AltitudeMeters>18.3999996185302734375</AltitudeMeters>
            <DistanceMeters>NAN</DistanceMeters>
          </Trackpoint>
          <Trackpoint>
            <Time>2022-07-07T09:46:27.000Z</Time>
            <Position>
              <LatitudeDegrees>43.63680842332541942596435546875</LatitudeDegrees>
              <LongitudeDegrees>-1.4382616616785526275634765625</LongitudeDegrees>
            </Position>
            <AltitudeMeters>18.3999996185302734375</AltitudeMeters>
            <DistanceMeters>NAN</DistanceMeters>
          </Trackpoint>
          <Trackpoint>
            <Time>2022-07-07T09:46:33.000Z</Time>
            <Position>
              <LatitudeDegrees>43.6365676112473011016845703125</LatitudeDegrees>
              <LongitudeDegrees>-1.43842376768589019775390625</LongitudeDegrees>
            </Position>
            <AltitudeMeters>18.200000762939453125</AltitudeMeters>
            <DistanceMeters>NAN</DistanceMeters>
          </Trackpoint>
          <Trackpoint>
            <Time>2022-07-07T09:46:39.000Z</Time>
            <Position>
              <LatitudeDegrees>43.6363382823765277862548828125</LatitudeDegrees>
              <LongitudeDegrees>-1.43859132193028926849365234375</LongitudeDegrees>
            </Position>
            <AltitudeMeters>18.6000003814697265625</AltitudeMeters>
            <DistanceMeters>NAN</DistanceMeters>
          </Trackpoint>
          <Trackpoint>
            <Time>2022-07-07T09:46:40.000Z</Time>
            <Position>
              <LatitudeDegrees>43.63629184663295745849609375</LatitudeDegrees>
              <LongitudeDegrees>-1.43861529417335987091064453125</LongitudeDegrees>
            </Position>
            <AltitudeMeters>18.799999237060546875</AltitudeMeters>
            <DistanceMeters>NAN</DistanceMeters>
          </Trackpoint>
          <Trackpoint>
            <Time>2022-07-07T09:46:49.000Z</Time>
            <Position>
              <LatitudeDegrees>43.635942153632640838623046875</LatitudeDegrees>
              <LongitudeDegrees>-1.4387360773980617523193359375</LongitudeDegrees>
            </Position>
            <AltitudeMeters>18.799999237060546875</AltitudeMeters>
            <DistanceMeters>NAN</DistanceMeters>
          </Trackpoint>
          <Trackpoint>
            <Time>2022-07-07T09:46:56.000Z</Time>
            <Position>
              <LatitudeDegrees>43.63561919890344142913818359375</LatitudeDegrees>
              <LongitudeDegrees>-1.43881863914430141448974609375</LongitudeDegrees>
            </Position>
            <AltitudeMeters>18.6000003814697265625</AltitudeMeters>
            <DistanceMeters>NAN</DistanceMeters>
          </Trackpoint>
          <Trackpoint>
            <Time>2022-07-07T09:47:01.000Z</Time>
            <Position>
              <LatitudeDegrees>43.63537344150245189666748046875</LatitudeDegrees>
              <LongitudeDegrees>-1.43885551951825618743896484375</LongitudeDegrees>
            </Position>
            <AltitudeMeters>19</AltitudeMeters>
            <DistanceMeters>NAN</DistanceMeters>
          </Trackpoint>
          <Trackpoint>
            <Time>2022-07-07T09:47:02.000Z</Time>
            <Position>
              <LatitudeDegrees>43.63532985560595989227294921875</LatitudeDegrees>
              <LongitudeDegrees>-1.4388614706695079803466796875</LongitudeDegrees>
            </Position>
            <AltitudeMeters>19</AltitudeMeters>
            <DistanceMeters>NAN</DistanceMeters>
          </Trackpoint>
          <Trackpoint>
            <Time>2022-07-07T09:47:10.000Z</Time>
            <Position>
              <LatitudeDegrees>43.63498167134821414947509765625</LatitudeDegrees>
              <LongitudeDegrees>-1.43894604407250881195068359375</LongitudeDegrees>
            </Position>
            <AltitudeMeters>19.200000762939453125</AltitudeMeters>
            <DistanceMeters>NAN</DistanceMeters>
          </Trackpoint>
          <Trackpoint>
            <Time>2022-07-07T09:47:15.000Z</Time>
            <Position>
              <LatitudeDegrees>43.6347591318190097808837890625</LatitudeDegrees>
              <LongitudeDegrees>-1.43899046815931797027587890625</LongitudeDegrees>
            </Position>
            <AltitudeMeters>19</AltitudeMeters>
            <DistanceMeters>NAN</DistanceMeters>
          </Trackpoint>
          <Trackpoint>
            <Time>2022-07-07T09:47:17.000Z</Time>
            <Position>
              <LatitudeDegrees>43.63469199277460575103759765625</LatitudeDegrees>
              <LongitudeDegrees>-1.4389984309673309326171875</LongitudeDegrees>
            </Position>
            <AltitudeMeters>19</AltitudeMeters>
            <DistanceMeters>NAN</DistanceMeters>
          </Trackpoint>
          <Trackpoint>
            <Time>2022-07-07T09:47:18.000Z</Time>
            <Position>
              <LatitudeDegrees>43.63464497029781341552734375</LatitudeDegrees>
              <LongitudeDegrees>-1.4390056394040584564208984375</LongitudeDegrees>
            </Position>
            <AltitudeMeters>19</AltitudeMeters>
            <DistanceMeters>NAN</DistanceMeters>
          </Trackpoint>
          <Trackpoint>
            <Time>2022-07-07T09:47:19.000Z</Time>
            <Position>
              <LatitudeDegrees>43.63461554981768131256103515625</LatitudeDegrees>
              <LongitudeDegrees>-1.43900505267083644866943359375</LongitudeDegrees>
            </Position>
            <AltitudeMeters>19</AltitudeMeters>
            <DistanceMeters>NAN</DistanceMeters>
          </Trackpoint>
          <Trackpoint>
            <Time>2022-07-07T09:47:22.000Z</Time>
            <Position>
              <LatitudeDegrees>43.63449384458363056182861328125</LatitudeDegrees>
              <LongitudeDegrees>-1.439023911952972412109375</LongitudeDegrees>
            </Position>
            <AltitudeMeters>18.799999237060546875</AltitudeMeters>
            <DistanceMeters>NAN</DistanceMeters>
          </Trackpoint>
          <Trackpoint>
            <Time>2022-07-07T09:47:24.000Z</Time>
            <Position>
              <LatitudeDegrees>43.6344275437295436859130859375</LatitudeDegrees>
              <LongitudeDegrees>-1.439041011035442352294921875</LongitudeDegrees>
            </Position>
            <AltitudeMeters>18.6000003814697265625</AltitudeMeters>
            <DistanceMeters>NAN</DistanceMeters>
          </Trackpoint>
          <Trackpoint>
            <Time>2022-07-07T09:47:27.000Z</Time>
            <Position>
              <LatitudeDegrees>43.6343063414096832275390625</LatitudeDegrees>
              <LongitudeDegrees>-1.43905819393694400787353515625</LongitudeDegrees>
            </Position>
            <AltitudeMeters>18.3999996185302734375</AltitudeMeters>
            <DistanceMeters>NAN</DistanceMeters>
          </Trackpoint>
          <Trackpoint>
            <Time>2022-07-07T09:47:33.000Z</Time>
            <Position>
              <LatitudeDegrees>43.6340483464300632476806640625</LatitudeDegrees>
              <LongitudeDegrees>-1.43905517645180225372314453125</LongitudeDegrees>
            </Position>
            <AltitudeMeters>18.6000003814697265625</AltitudeMeters>
            <DistanceMeters>NAN</DistanceMeters>
          </Trackpoint>
          <Trackpoint>
            <Time>2022-07-07T09:47:35.000Z</Time>
            <Position>
              <LatitudeDegrees>43.63395907916128635406494140625</LatitudeDegrees>
              <LongitudeDegrees>-1.439034305512905120849609375</LongitudeDegrees>
            </Position>
            <AltitudeMeters>18.6000003814697265625</AltitudeMeters>
            <DistanceMeters>NAN</DistanceMeters>
          </Trackpoint>
          <Trackpoint>
            <Time>2022-07-07T09:47:37.000Z</Time>
            <Position>
              <LatitudeDegrees>43.633874841034412384033203125</LatitudeDegrees>
              <LongitudeDegrees>-1.43901410512626171112060546875</LongitudeDegrees>
            </Position>
            <AltitudeMeters>18.6000003814697265625</AltitudeMeters>
            <DistanceMeters>NAN</DistanceMeters>
          </Trackpoint>
          <Trackpoint>
            <Time>2022-07-07T09:47:42.000Z</Time>
            <Position>
              <LatitudeDegrees>43.63362564705312252044677734375</LatitudeDegrees>
              <LongitudeDegrees>-1.4389342255890369415283203125</LongitudeDegrees>
            </Position>
            <AltitudeMeters>18.6000003814697265625</AltitudeMeters>
            <DistanceMeters>NAN</DistanceMeters>
          </Trackpoint>
          <Trackpoint>
            <Time>2022-07-07T09:47:51.000Z</Time>
            <Position>
              <LatitudeDegrees>43.6332386545836925506591796875</LatitudeDegrees>
              <LongitudeDegrees>-1.4387518353760242462158203125</LongitudeDegrees>
            </Position>
            <AltitudeMeters>19.200000762939453125</AltitudeMeters>
            <DistanceMeters>NAN</DistanceMeters>
          </Trackpoint>
          <Trackpoint>
            <Time>2022-07-07T09:47:52.000Z</Time>
            <Position>
              <LatitudeDegrees>43.6331977508962154388427734375</LatitudeDegrees>
              <LongitudeDegrees>-1.43872325308620929718017578125</LongitudeDegrees>
            </Position>
            <AltitudeMeters>19.3999996185302734375</AltitudeMeters>
            <DistanceMeters>NAN</DistanceMeters>
          </Trackpoint>
          <Trackpoint>
            <Time>2022-07-07T09:47:53.000Z</Time>
            <Position>
              <LatitudeDegrees>43.6331719346344470977783203125</LatitudeDegrees>
              <LongitudeDegrees>-1.4387002028524875640869140625</LongitudeDegrees>
            </Position>
            <AltitudeMeters>19.3999996185302734375</AltitudeMeters>
            <DistanceMeters>NAN</DistanceMeters>
          </Trackpoint>
          <Trackpoint>
            <Time>2022-07-07T09:47:57.000Z</Time>
            <Position>
              <LatitudeDegrees>43.6330743692815303802490234375</LatitudeDegrees>
              <LongitudeDegrees>-1.43854572437703609466552734375</LongitudeDegrees>
            </Position>
            <AltitudeMeters>19.3999996185302734375</AltitudeMeters>
            <DistanceMeters>NAN</DistanceMeters>
          </Trackpoint>
          <Trackpoint>
            <Time>2022-07-07T09:48:01.000Z</Time>
            <Position>
              <LatitudeDegrees>43.6329818330705165863037109375</LatitudeDegrees>
              <LongitudeDegrees>-1.4384217560291290283203125</LongitudeDegrees>
            </Position>
            <AltitudeMeters>19.200000762939453125</AltitudeMeters>
            <DistanceMeters>NAN</DistanceMeters>
          </Trackpoint>
          <Trackpoint>
            <Time>2022-07-07T09:48:06.000Z</Time>
            <Position>
              <LatitudeDegrees>43.6328249238431453704833984375</LatitudeDegrees>
              <LongitudeDegrees>-1.438327543437480926513671875</LongitudeDegrees>
            </Position>
            <AltitudeMeters>19.3999996185302734375</AltitudeMeters>
            <DistanceMeters>NAN</DistanceMeters>
          </Trackpoint>
          <Trackpoint>
            <Time>2022-07-07T09:48:12.000Z</Time>
            <Position>
              <LatitudeDegrees>43.63269559107720851898193359375</LatitudeDegrees>
              <LongitudeDegrees>-1.438192762434482574462890625</LongitudeDegrees>
            </Position>
            <AltitudeMeters>19.3999996185302734375</AltitudeMeters>
            <DistanceMeters>NAN</DistanceMeters>
          </Trackpoint>
          <Trackpoint>
            <Time>2022-07-07T09:48:18.000Z</Time>
            <Position>
              <LatitudeDegrees>43.63255142234265804290771484375</LatitudeDegrees>
              <LongitudeDegrees>-1.4379686303436756134033203125</LongitudeDegrees>
            </Position>
            <AltitudeMeters>19.200000762939453125</AltitudeMeters>
            <DistanceMeters>NAN</DistanceMeters>
          </Trackpoint>
          <Trackpoint>
            <Time>2022-07-07T09:48:21.000Z</Time>
            <Position>
              <LatitudeDegrees>43.63245788030326366424560546875</LatitudeDegrees>
              <LongitudeDegrees>-1.43782957457005977630615234375</LongitudeDegrees>
            </Position>
            <AltitudeMeters>18.799999237060546875</AltitudeMeters>
            <DistanceMeters>NAN</DistanceMeters>
          </Trackpoint>
          <Trackpoint>
            <Time>2022-07-07T09:48:22.000Z</Time>
            <Position>
              <LatitudeDegrees>43.63242887891829013824462890625</LatitudeDegrees>
              <LongitudeDegrees>-1.4378019981086254119873046875</LongitudeDegrees>
            </Position>
            <AltitudeMeters>18.799999237060546875</AltitudeMeters>
            <DistanceMeters>NAN</DistanceMeters>
          </Trackpoint>
          <Trackpoint>
            <Time>2022-07-07T09:48:24.000Z</Time>
            <Position>
              <LatitudeDegrees>43.63235729746520519256591796875</LatitudeDegrees>
              <LongitudeDegrees>-1.437737457454204559326171875</LongitudeDegrees>
            </Position>
            <AltitudeMeters>18.6000003814697265625</AltitudeMeters>
            <DistanceMeters>NAN</DistanceMeters>
          </Trackpoint>
          <Trackpoint>
            <Time>2022-07-07T09:48:26.000Z</Time>
            <Position>
              <LatitudeDegrees>43.63226593472063541412353515625</LatitudeDegrees>
              <LongitudeDegrees>-1.43766495399177074432373046875</LongitudeDegrees>
            </Position>
            <AltitudeMeters>18.799999237060546875</AltitudeMeters>
            <DistanceMeters>NAN</DistanceMeters>
          </Trackpoint>
          <Trackpoint>
            <Time>2022-07-07T09:48:29.000Z</Time>
            <Position>
              <LatitudeDegrees>43.6321852169930934906005859375</LatitudeDegrees>
              <LongitudeDegrees>-1.437574513256549835205078125</LongitudeDegrees>
            </Position>
            <AltitudeMeters>19</AltitudeMeters>
            <DistanceMeters>NAN</DistanceMeters>
          </Trackpoint>
          <Trackpoint>
            <Time>2022-07-07T09:48:32.000Z</Time>
            <Position>
              <LatitudeDegrees>43.63211824558675289154052734375</LatitudeDegrees>
              <LongitudeDegrees>-1.43746764399111270904541015625</LongitudeDegrees>
            </Position>
            <AltitudeMeters>19.3999996185302734375</AltitudeMeters>
            <DistanceMeters>NAN</DistanceMeters>
          </Trackpoint>
          <Trackpoint>
            <Time>2022-07-07T09:48:37.000Z</Time>
            <Position>
              <LatitudeDegrees>43.631946332752704620361328125</LatitudeDegrees>
              <LongitudeDegrees>-1.4372782967984676361083984375</LongitudeDegrees>
            </Position>
            <AltitudeMeters>19.200000762939453125</AltitudeMeters>
            <DistanceMeters>NAN</DistanceMeters>
          </Trackpoint>
          <Trackpoint>
            <Time>2022-07-07T09:48:38.000Z</Time>
            <Position>
              <LatitudeDegrees>43.631911464035511016845703125</LatitudeDegrees>
              <LongitudeDegrees>-1.4372377283871173858642578125</LongitudeDegrees>
            </Position>
            <AltitudeMeters>19.200000762939453125</AltitudeMeters>
            <DistanceMeters>NAN</DistanceMeters>
          </Trackpoint>
          <Trackpoint>
            <Time>2022-07-07T09:48:39.000Z</Time>
            <Position>
              <LatitudeDegrees>43.63187466748058795928955078125</LatitudeDegrees>
              <LongitudeDegrees>-1.43719975836575031280517578125</LongitudeDegrees>
            </Position>
            <AltitudeMeters>19.200000762939453125</AltitudeMeters>
            <DistanceMeters>NAN</DistanceMeters>
          </Trackpoint>
          <Trackpoint>
            <Time>2022-07-07T09:48:42.000Z</Time>
            <Position>
              <LatitudeDegrees>43.63179906271398067474365234375</LatitudeDegrees>
              <LongitudeDegrees>-1.43709280528128147125244140625</LongitudeDegrees>
            </Position>
            <AltitudeMeters>19</AltitudeMeters>
            <DistanceMeters>NAN</DistanceMeters>
          </Trackpoint>
          <Trackpoint>
            <Time>2022-07-07T09:48:43.000Z</Time>
            <Position>
              <LatitudeDegrees>43.6317584104835987091064453125</LatitudeDegrees>
              <LongitudeDegrees>-1.437058188021183013916015625</LongitudeDegrees>
            </Position>
            <AltitudeMeters>18.799999237060546875</AltitudeMeters>
            <DistanceMeters>NAN</DistanceMeters>
          </Trackpoint>
          <Trackpoint>
            <Time>2022-07-07T09:48:50.000Z</Time>
            <Position>
              <LatitudeDegrees>43.63150066696107387542724609375</LatitudeDegrees>
              <LongitudeDegrees>-1.43684486858546733856201171875</LongitudeDegrees>
            </Position>
            <AltitudeMeters>18.6000003814697265625</AltitudeMeters>
            <DistanceMeters>NAN</DistanceMeters>
          </Trackpoint>
          <Trackpoint>
            <Time>2022-07-07T09:48:57.000Z</Time>
            <Position>
              <LatitudeDegrees>43.63124585710465908050537109375</LatitudeDegrees>
              <LongitudeDegrees>-1.43663113005459308624267578125</LongitudeDegrees>
            </Position>
            <AltitudeMeters>18.6000003814697265625</AltitudeMeters>
            <DistanceMeters>NAN</DistanceMeters>
          </Trackpoint>
          <Trackpoint>
            <Time>2022-07-07T09:49:02.000Z</Time>
            <Position>
              <LatitudeDegrees>43.63106078468263149261474609375</LatitudeDegrees>
              <LongitudeDegrees>-1.43650531768798828125</LongitudeDegrees>
            </Position>
            <AltitudeMeters>18.799999237060546875</AltitudeMeters>
            <DistanceMeters>NAN</DistanceMeters>
          </Trackpoint>
          <Trackpoint>
            <Time>2022-07-07T09:49:03.000Z</Time>
            <Position>
              <LatitudeDegrees>43.6310258321464061737060546875</LatitudeDegrees>
              <LongitudeDegrees>-1.4364776574075222015380859375</LongitudeDegrees>
            </Position>
            <AltitudeMeters>18.799999237060546875</AltitudeMeters>
            <DistanceMeters>NAN</DistanceMeters>
          </Trackpoint>
          <Trackpoint>
            <Time>2022-07-07T09:49:05.000Z</Time>
            <Position>
              <LatitudeDegrees>43.63096070475876331329345703125</LatitudeDegrees>
              <LongitudeDegrees>-1.4364189840853214263916015625</LongitudeDegrees>
            </Position>
            <AltitudeMeters>18.799999237060546875</AltitudeMeters>
            <DistanceMeters>NAN</DistanceMeters>
          </Trackpoint>
          <Trackpoint>
            <Time>2022-07-07T09:49:08.000Z</Time>
            <Position>
              <LatitudeDegrees>43.63085073418915271759033203125</LatitudeDegrees>
              <LongitudeDegrees>-1.4363401941955089569091796875</LongitudeDegrees>
            </Position>
            <AltitudeMeters>19</AltitudeMeters>
            <DistanceMeters>NAN</DistanceMeters>
          </Trackpoint>
          <Trackpoint>
            <Time>2022-07-07T09:49:09.000Z</Time>
            <Position>
              <LatitudeDegrees>43.630814440548419952392578125</LatitudeDegrees>
              <LongitudeDegrees>-1.43631110899150371551513671875</LongitudeDegrees>
            </Position>
            <AltitudeMeters>19</AltitudeMeters>
            <DistanceMeters>NAN</DistanceMeters>
          </Trackpoint>
          <Trackpoint>
            <Time>2022-07-07T09:49:14.000Z</Time>
            <Position>
              <LatitudeDegrees>43.6306209862232208251953125</LatitudeDegrees>
              <LongitudeDegrees>-1.43616308458149433135986328125</LongitudeDegrees>
            </Position>
            <AltitudeMeters>19</AltitudeMeters>
            <DistanceMeters>NAN</DistanceMeters>
          </Trackpoint>
          <Trackpoint>
            <Time>2022-07-07T09:49:17.000Z</Time>
            <Position>
              <LatitudeDegrees>43.63049198873341083526611328125</LatitudeDegrees>
              <LongitudeDegrees>-1.436074487864971160888671875</LongitudeDegrees>
            </Position>
            <AltitudeMeters>18.799999237060546875</AltitudeMeters>
            <DistanceMeters>NAN</DistanceMeters>
          </Trackpoint>
          <Trackpoint>
            <Time>2022-07-07T09:49:25.000Z</Time>
            <Position>
              <LatitudeDegrees>43.63011782057583332061767578125</LatitudeDegrees>
              <LongitudeDegrees>-1.4358832128345966339111328125</LongitudeDegrees>
            </Position>
            <AltitudeMeters>18.799999237060546875</AltitudeMeters>
            <DistanceMeters>NAN</DistanceMeters>
          </Trackpoint>
          <Trackpoint>
            <Time>2022-07-07T09:49:31.000Z</Time>
            <Position>
              <LatitudeDegrees>43.62981573678553104400634765625</LatitudeDegrees>
              <LongitudeDegrees>-1.43581825308501720428466796875</LongitudeDegrees>
            </Position>
            <AltitudeMeters>19</AltitudeMeters>
            <DistanceMeters>NAN</DistanceMeters>
          </Trackpoint>
          <Trackpoint>
            <Time>2022-07-07T09:49:33.000Z</Time>
            <Position>
              <LatitudeDegrees>43.62973988056182861328125</LatitudeDegrees>
              <LongitudeDegrees>-1.4357725717127323150634765625</LongitudeDegrees>
            </Position>
            <AltitudeMeters>19</AltitudeMeters>
            <DistanceMeters>NAN</DistanceMeters>
          </Trackpoint>
          <Trackpoint>
            <Time>2022-07-07T09:49:35.000Z</Time>
            <Position>
              <LatitudeDegrees>43.62964927218854427337646484375</LatitudeDegrees>
              <LongitudeDegrees>-1.4357209391891956329345703125</LongitudeDegrees>
            </Position>
            <AltitudeMeters>19.200000762939453125</AltitudeMeters>
            <DistanceMeters>NAN</DistanceMeters>
          </Trackpoint>
          <Trackpoint>
            <Time>2022-07-07T09:49:37.000Z</Time>
            <Position>
              <LatitudeDegrees>43.62957685254514217376708984375</LatitudeDegrees>
              <LongitudeDegrees>-1.43568196333944797515869140625</LongitudeDegrees>
            </Position>
            <AltitudeMeters>19.200000762939453125</AltitudeMeters>
            <DistanceMeters>NAN</DistanceMeters>
          </Trackpoint>
          <Trackpoint>
            <Time>2022-07-07T09:49:43.000Z</Time>
            <Position>
              <LatitudeDegrees>43.629370741546154022216796875</LatitudeDegrees>
              <LongitudeDegrees>-1.43559764139354228973388671875</LongitudeDegrees>
            </Position>
            <AltitudeMeters>19.6000003814697265625</AltitudeMeters>
            <DistanceMeters>NAN</DistanceMeters>
          </Trackpoint>
          <Trackpoint>
            <Time>2022-07-07T09:49:47.000Z</Time>
            <Position>
              <LatitudeDegrees>43.6292515508830547332763671875</LatitudeDegrees>
              <LongitudeDegrees>-1.43550527282059192657470703125</LongitudeDegrees>
            </Position>
            <AltitudeMeters>20.200000762939453125</AltitudeMeters>
            <DistanceMeters>NAN</DistanceMeters>
          </Trackpoint>
          <Trackpoint>
            <Time>2022-07-07T09:49:50.000Z</Time>
            <Position>
              <LatitudeDegrees>43.6291640438139438629150390625</LatitudeDegrees>
              <LongitudeDegrees>-1.43546017818152904510498046875</LongitudeDegrees>
            </Position>
            <AltitudeMeters>20.3999996185302734375</AltitudeMeters>
            <DistanceMeters>NAN</DistanceMeters>
          </Trackpoint>
          <Trackpoint>
            <Time>2022-07-07T09:49:56.000Z</Time>
            <Position>
              <LatitudeDegrees>43.6289645545184612274169921875</LatitudeDegrees>
              <LongitudeDegrees>-1.43534450791776180267333984375</LongitudeDegrees>
            </Position>
            <AltitudeMeters>20.3999996185302734375</AltitudeMeters>
            <DistanceMeters>NAN</DistanceMeters>
          </Trackpoint>
          <Trackpoint>
            <Time>2022-07-07T09:50:00.000Z</Time>
            <Position>
              <LatitudeDegrees>43.62893714569509029388427734375</LatitudeDegrees>
              <LongitudeDegrees>-1.43515507690608501434326171875</LongitudeDegrees>
            </Position>
            <AltitudeMeters>20.200000762939453125</AltitudeMeters>
            <DistanceMeters>NAN</DistanceMeters>
          </Trackpoint>
          <Trackpoint>
            <Time>2022-07-07T09:50:06.000Z</Time>
            <Position>
              <LatitudeDegrees>43.62888014875352382659912109375</LatitudeDegrees>
              <LongitudeDegrees>-1.43488098867237567901611328125</LongitudeDegrees>
            </Position>
            <AltitudeMeters>20</AltitudeMeters>
            <DistanceMeters>NAN</DistanceMeters>
          </Trackpoint>
          <Trackpoint>
            <Time>2022-07-07T09:50:07.000Z</Time>
            <Position>
              <LatitudeDegrees>43.6288515664637088775634765625</LatitudeDegrees>
              <LongitudeDegrees>-1.4348183758556842803955078125</LongitudeDegrees>
            </Position>
            <AltitudeMeters>20</AltitudeMeters>
            <DistanceMeters>NAN</DistanceMeters>
          </Trackpoint>
          <Trackpoint>
            <Time>2022-07-07T09:50:09.000Z</Time>
            <Position>
              <LatitudeDegrees>43.628781996667385101318359375</LatitudeDegrees>
              <LongitudeDegrees>-1.43479951657354831695556640625</LongitudeDegrees>
            </Position>
            <AltitudeMeters>20.200000762939453125</AltitudeMeters>
            <DistanceMeters>NAN</DistanceMeters>
          </Trackpoint>
          <Trackpoint>
            <Time>2022-07-07T09:50:17.000Z</Time>
            <Position>
              <LatitudeDegrees>43.62849064171314239501953125</LatitudeDegrees>
              <LongitudeDegrees>-1.43494854681193828582763671875</LongitudeDegrees>
            </Position>
            <AltitudeMeters>19.6000003814697265625</AltitudeMeters>
            <DistanceMeters>NAN</DistanceMeters>
          </Trackpoint>
          <Trackpoint>
            <Time>2022-07-07T09:50:24.000Z</Time>
            <Position>
              <LatitudeDegrees>43.62824563868343830108642578125</LatitudeDegrees>
              <LongitudeDegrees>-1.43510277383029460906982421875</LongitudeDegrees>
            </Position>
            <AltitudeMeters>19.6000003814697265625</AltitudeMeters>
            <DistanceMeters>NAN</DistanceMeters>
          </Trackpoint>
          <Trackpoint>
            <Time>2022-07-07T09:50:30.000Z</Time>
            <Position>
              <LatitudeDegrees>43.6280405335128307342529296875</LatitudeDegrees>
              <LongitudeDegrees>-1.4352612756192684173583984375</LongitudeDegrees>
            </Position>
            <AltitudeMeters>19.6000003814697265625</AltitudeMeters>
            <DistanceMeters>NAN</DistanceMeters>
          </Trackpoint>
          <Trackpoint>
            <Time>2022-07-07T09:50:35.000Z</Time>
            <Position>
              <LatitudeDegrees>43.62787641584873199462890625</LatitudeDegrees>
              <LongitudeDegrees>-1.435372419655323028564453125</LongitudeDegrees>
            </Position>
            <AltitudeMeters>19.799999237060546875</AltitudeMeters>
            <DistanceMeters>NAN</DistanceMeters>
          </Trackpoint>
          <Trackpoint>
            <Time>2022-07-07T09:50:38.000Z</Time>
            <Position>
              <LatitudeDegrees>43.62776376307010650634765625</LatitudeDegrees>
              <LongitudeDegrees>-1.435460262000560760498046875</LongitudeDegrees>
            </Position>
            <AltitudeMeters>20</AltitudeMeters>
            <DistanceMeters>NAN</DistanceMeters>
          </Trackpoint>
          <Trackpoint>
            <Time>2022-07-07T09:50:39.000Z</Time>
            <Position>
              <LatitudeDegrees>43.62772629596292972564697265625</LatitudeDegrees>
              <LongitudeDegrees>-1.435496807098388671875</LongitudeDegrees>
            </Position>
            <AltitudeMeters>20</AltitudeMeters>
            <DistanceMeters>NAN</DistanceMeters>
          </Trackpoint>
          <Trackpoint>
            <Time>2022-07-07T09:50:44.000Z</Time>
            <Position>
              <LatitudeDegrees>43.62756754271686077117919921875</LatitudeDegrees>
              <LongitudeDegrees>-1.4356295764446258544921875</LongitudeDegrees>
            </Position>
            <AltitudeMeters>19.799999237060546875</AltitudeMeters>
            <DistanceMeters>NAN</DistanceMeters>
          </Trackpoint>
          <Trackpoint>
            <Time>2022-07-07T09:50:51.000Z</Time>
            <Position>
              <LatitudeDegrees>43.6273156665265560150146484375</LatitudeDegrees>
              <LongitudeDegrees>-1.43580182455480098724365234375</LongitudeDegrees>
            </Position>
            <AltitudeMeters>19.799999237060546875</AltitudeMeters>
            <DistanceMeters>NAN</DistanceMeters>
          </Trackpoint>
          <Trackpoint>
            <Time>2022-07-07T09:50:52.000Z</Time>
            <Position>
              <LatitudeDegrees>43.62727534957230091094970703125</LatitudeDegrees>
              <LongitudeDegrees>-1.43582562915980815887451171875</LongitudeDegrees>
            </Position>
            <AltitudeMeters>19.799999237060546875</AltitudeMeters>
            <DistanceMeters>NAN</DistanceMeters>
          </Trackpoint>
          <Trackpoint>
            <Time>2022-07-07T09:50:56.000Z</Time>
            <Position>
              <LatitudeDegrees>43.62711994908750057220458984375</LatitudeDegrees>
              <LongitudeDegrees>-1.4359301514923572540283203125</LongitudeDegrees>
            </Position>
            <AltitudeMeters>19.6000003814697265625</AltitudeMeters>
            <DistanceMeters>NAN</DistanceMeters>
          </Trackpoint>
          <Trackpoint>
            <Time>2022-07-07T09:51:00.000Z</Time>
            <Position>
              <LatitudeDegrees>43.62693320028483867645263671875</LatitudeDegrees>
              <LongitudeDegrees>-1.43606434576213359832763671875</LongitudeDegrees>
            </Position>
            <AltitudeMeters>19.200000762939453125</AltitudeMeters>
            <DistanceMeters>NAN</DistanceMeters>
          </Trackpoint>
          <Trackpoint>
            <Time>2022-07-07T09:51:01.000Z</Time>
            <Position>
              <LatitudeDegrees>43.62688911147415637969970703125</LatitudeDegrees>
              <LongitudeDegrees>-1.436085887253284454345703125</LongitudeDegrees>
            </Position>
            <AltitudeMeters>19.200000762939453125</AltitudeMeters>
            <DistanceMeters>NAN</DistanceMeters>
          </Trackpoint>
          <Trackpoint>
            <Time>2022-07-07T09:51:03.000Z</Time>
            <Position>
              <LatitudeDegrees>43.626813925802707672119140625</LatitudeDegrees>
              <LongitudeDegrees>-1.43612704239785671234130859375</LongitudeDegrees>
            </Position>
            <AltitudeMeters>19.200000762939453125</AltitudeMeters>
            <DistanceMeters>NAN</DistanceMeters>
          </Trackpoint>
          <Trackpoint>
            <Time>2022-07-07T09:51:06.000Z</Time>
            <Position>
              <LatitudeDegrees>43.626678474247455596923828125</LatitudeDegrees>
              <LongitudeDegrees>-1.43622075207531452178955078125</LongitudeDegrees>
            </Position>
            <AltitudeMeters>19</AltitudeMeters>
            <DistanceMeters>NAN</DistanceMeters>
          </Trackpoint>
          <Trackpoint>
            <Time>2022-07-07T09:51:07.000Z</Time>
            <Position>
              <LatitudeDegrees>43.62663262523710727691650390625</LatitudeDegrees>
              <LongitudeDegrees>-1.43626450560986995697021484375</LongitudeDegrees>
            </Position>
            <AltitudeMeters>19</AltitudeMeters>
            <DistanceMeters>NAN</DistanceMeters>
          </Trackpoint>
          <Trackpoint>
            <Time>2022-07-07T09:51:08.000Z</Time>
            <Position>
              <LatitudeDegrees>43.6265874467790126800537109375</LatitudeDegrees>
              <LongitudeDegrees>-1.43630683422088623046875</LongitudeDegrees>
            </Position>
            <AltitudeMeters>19</AltitudeMeters>
            <DistanceMeters>NAN</DistanceMeters>
          </Trackpoint>
          <Trackpoint>
            <Time>2022-07-07T09:51:11.000Z</Time>
            <Position>
              <LatitudeDegrees>43.6264141090214252471923828125</LatitudeDegrees>
              <LongitudeDegrees>-1.4363913238048553466796875</LongitudeDegrees>
            </Position>
            <AltitudeMeters>19.200000762939453125</AltitudeMeters>
            <DistanceMeters>NAN</DistanceMeters>
          </Trackpoint>
          <Trackpoint>
            <Time>2022-07-07T09:51:13.000Z</Time>
            <Position>
              <LatitudeDegrees>43.626306988298892974853515625</LatitudeDegrees>
              <LongitudeDegrees>-1.436464749276638031005859375</LongitudeDegrees>
            </Position>
            <AltitudeMeters>19.200000762939453125</AltitudeMeters>
            <DistanceMeters>NAN</DistanceMeters>
          </Trackpoint>
          <Trackpoint>
            <Time>2022-07-07T09:51:21.000Z</Time>
            <Position>
              <LatitudeDegrees>43.62601320259273052215576171875</LatitudeDegrees>
              <LongitudeDegrees>-1.43669910728931427001953125</LongitudeDegrees>
            </Position>
            <AltitudeMeters>19</AltitudeMeters>
            <DistanceMeters>NAN</DistanceMeters>
          </Trackpoint>
          <Trackpoint>
            <Time>2022-07-07T09:51:29.000Z</Time>
            <Position>
              <LatitudeDegrees>43.6256899125874042510986328125</LatitudeDegrees>
              <LongitudeDegrees>-1.436933465301990509033203125</LongitudeDegrees>
            </Position>
            <AltitudeMeters>19.200000762939453125</AltitudeMeters>
            <DistanceMeters>NAN</DistanceMeters>
          </Trackpoint>
          <Trackpoint>
            <Time>2022-07-07T09:51:31.000Z</Time>
            <Position>
              <LatitudeDegrees>43.62560282461345195770263671875</LatitudeDegrees>
              <LongitudeDegrees>-1.43699490465223789215087890625</LongitudeDegrees>
            </Position>
            <AltitudeMeters>19.200000762939453125</AltitudeMeters>
            <DistanceMeters>NAN</DistanceMeters>
          </Trackpoint>
          <Trackpoint>
            <Time>2022-07-07T09:51:40.000Z</Time>
            <Position>
              <LatitudeDegrees>43.6252168379724025726318359375</LatitudeDegrees>
              <LongitudeDegrees>-1.4372689090669155120849609375</LongitudeDegrees>
            </Position>
            <AltitudeMeters>19.200000762939453125</AltitudeMeters>
            <DistanceMeters>NAN</DistanceMeters>
          </Trackpoint>
          <Trackpoint>
            <Time>2022-07-07T09:51:49.000Z</Time>
            <Position>
              <LatitudeDegrees>43.62482146359980106353759765625</LatitudeDegrees>
              <LongitudeDegrees>-1.437543667852878570556640625</LongitudeDegrees>
            </Position>
            <AltitudeMeters>18.6000003814697265625</AltitudeMeters>
            <DistanceMeters>NAN</DistanceMeters>
          </Trackpoint>
          <Trackpoint>
            <Time>2022-07-07T09:51:51.000Z</Time>
            <Position>
              <LatitudeDegrees>43.62472993321716785430908203125</LatitudeDegrees>
              <LongitudeDegrees>-1.43761499784886837005615234375</LongitudeDegrees>
            </Position>
            <AltitudeMeters>18.6000003814697265625</AltitudeMeters>
            <DistanceMeters>NAN</DistanceMeters>
          </Trackpoint>
          <Trackpoint>
            <Time>2022-07-07T09:51:53.000Z</Time>
            <Position>
              <LatitudeDegrees>43.6246396601200103759765625</LatitudeDegrees>
              <LongitudeDegrees>-1.437678448855876922607421875</LongitudeDegrees>
            </Position>
            <AltitudeMeters>18.3999996185302734375</AltitudeMeters>
            <DistanceMeters>NAN</DistanceMeters>
          </Trackpoint>
          <Trackpoint>
            <Time>2022-07-07T09:51:56.000Z</Time>
            <Position>
              <LatitudeDegrees>43.62450487911701202392578125</LatitudeDegrees>
              <LongitudeDegrees>-1.43777023069560527801513671875</LongitudeDegrees>
            </Position>
            <AltitudeMeters>18.200000762939453125</AltitudeMeters>
            <DistanceMeters>NAN</DistanceMeters>
          </Trackpoint>
          <Trackpoint>
            <Time>2022-07-07T09:51:57.000Z</Time>
            <Position>
              <LatitudeDegrees>43.6244584433734416961669921875</LatitudeDegrees>
              <LongitudeDegrees>-1.43780292011797428131103515625</LongitudeDegrees>
            </Position>
            <AltitudeMeters>18</AltitudeMeters>
            <DistanceMeters>NAN</DistanceMeters>
          </Trackpoint>
          <Trackpoint>
            <Time>2022-07-07T09:52:00.000Z</Time>
            <Position>
              <LatitudeDegrees>43.62431955523788928985595703125</LatitudeDegrees>
              <LongitudeDegrees>-1.43790937028825283050537109375</LongitudeDegrees>
            </Position>
            <AltitudeMeters>17.799999237060546875</AltitudeMeters>
            <DistanceMeters>NAN</DistanceMeters>
          </Trackpoint>
          <Trackpoint>
            <Time>2022-07-07T09:52:06.000Z</Time>
            <Position>
              <LatitudeDegrees>43.62404747866094112396240234375</LatitudeDegrees>
              <LongitudeDegrees>-1.4381184987723827362060546875</LongitudeDegrees>
            </Position>
            <AltitudeMeters>17.799999237060546875</AltitudeMeters>
            <DistanceMeters>NAN</DistanceMeters>
          </Trackpoint>
          <Trackpoint>
            <Time>2022-07-07T09:52:14.000Z</Time>
            <Position>
              <LatitudeDegrees>43.62369929440319538116455078125</LatitudeDegrees>
              <LongitudeDegrees>-1.4383515156805515289306640625</LongitudeDegrees>
            </Position>
            <AltitudeMeters>18.200000762939453125</AltitudeMeters>
            <DistanceMeters>NAN</DistanceMeters>
          </Trackpoint>
          <Trackpoint>
            <Time>2022-07-07T09:52:21.000Z</Time>
            <Position>
              <LatitudeDegrees>43.62339888699352741241455078125</LatitudeDegrees>
              <LongitudeDegrees>-1.438542790710926055908203125</LongitudeDegrees>
            </Position>
            <AltitudeMeters>18.200000762939453125</AltitudeMeters>
            <DistanceMeters>NAN</DistanceMeters>
          </Trackpoint>
          <Trackpoint>
            <Time>2022-07-07T09:52:22.000Z</Time>
            <Position>
              <LatitudeDegrees>43.62335865385830402374267578125</LatitudeDegrees>
              <LongitudeDegrees>-1.43856835551559925079345703125</LongitudeDegrees>
            </Position>
            <AltitudeMeters>18.200000762939453125</AltitudeMeters>
            <DistanceMeters>NAN</DistanceMeters>
          </Trackpoint>
          <Trackpoint>
            <Time>2022-07-07T09:52:31.000Z</Time>
            <Position>
              <LatitudeDegrees>43.622988425195217132568359375</LatitudeDegrees>
              <LongitudeDegrees>-1.4388551004230976104736328125</LongitudeDegrees>
            </Position>
            <AltitudeMeters>18.3999996185302734375</AltitudeMeters>
            <DistanceMeters>NAN</DistanceMeters>
          </Trackpoint>
          <Trackpoint>
            <Time>2022-07-07T09:52:35.000Z</Time>
            <Position>
              <LatitudeDegrees>43.6228157579898834228515625</LatitudeDegrees>
              <LongitudeDegrees>-1.438959874212741851806640625</LongitudeDegrees>
            </Position>
            <AltitudeMeters>18.3999996185302734375</AltitudeMeters>
            <DistanceMeters>NAN</DistanceMeters>
          </Trackpoint>
          <Trackpoint>
            <Time>2022-07-07T09:52:39.000Z</Time>
            <Position>
              <LatitudeDegrees>43.622649796307086944580078125</LatitudeDegrees>
              <LongitudeDegrees>-1.43909473903477191925048828125</LongitudeDegrees>
            </Position>
            <AltitudeMeters>18.200000762939453125</AltitudeMeters>
            <DistanceMeters>NAN</DistanceMeters>
          </Trackpoint>
          <Trackpoint>
            <Time>2022-07-07T09:52:45.000Z</Time>
            <Position>
              <LatitudeDegrees>43.62238903529942035675048828125</LatitudeDegrees>
              <LongitudeDegrees>-1.43928199075162410736083984375</LongitudeDegrees>
            </Position>
            <AltitudeMeters>17.799999237060546875</AltitudeMeters>
            <DistanceMeters>NAN</DistanceMeters>
          </Trackpoint>
          <Trackpoint>
            <Time>2022-07-07T09:52:46.000Z</Time>
            <Position>
              <LatitudeDegrees>43.6223468743264675140380859375</LatitudeDegrees>
              <LongitudeDegrees>-1.43930646590888500213623046875</LongitudeDegrees>
            </Position>
            <AltitudeMeters>17.799999237060546875</AltitudeMeters>
            <DistanceMeters>NAN</DistanceMeters>
          </Trackpoint>
          <Trackpoint>
            <Time>2022-07-07T09:52:49.000Z</Time>
            <Position>
              <LatitudeDegrees>43.6222241632640361785888671875</LatitudeDegrees>
              <LongitudeDegrees>-1.43938994966447353363037109375</LongitudeDegrees>
            </Position>
            <AltitudeMeters>17.6000003814697265625</AltitudeMeters>
            <DistanceMeters>NAN</DistanceMeters>
          </Trackpoint>
          <Trackpoint>
            <Time>2022-07-07T09:52:51.000Z</Time>
            <Position>
              <LatitudeDegrees>43.62215618602931499481201171875</LatitudeDegrees>
              <LongitudeDegrees>-1.43944694660604000091552734375</LongitudeDegrees>
            </Position>
            <AltitudeMeters>17.6000003814697265625</AltitudeMeters>
            <DistanceMeters>NAN</DistanceMeters>
          </Trackpoint>
          <Trackpoint>
            <Time>2022-07-07T09:52:53.000Z</Time>
            <Position>
              <LatitudeDegrees>43.62207437865436077117919921875</LatitudeDegrees>
              <LongitudeDegrees>-1.4395041950047016143798828125</LongitudeDegrees>
            </Position>
            <AltitudeMeters>17.6000003814697265625</AltitudeMeters>
            <DistanceMeters>NAN</DistanceMeters>
          </Trackpoint>
          <Trackpoint>
            <Time>2022-07-07T09:52:56.000Z</Time>
            <Position>
              <LatitudeDegrees>43.62195502035319805145263671875</LatitudeDegrees>
              <LongitudeDegrees>-1.439576447010040283203125</LongitudeDegrees>
            </Position>
            <AltitudeMeters>17.799999237060546875</AltitudeMeters>
            <DistanceMeters>NAN</DistanceMeters>
          </Trackpoint>
          <Trackpoint>
            <Time>2022-07-07T09:52:59.000Z</Time>
            <Position>
              <LatitudeDegrees>43.6218365840613842010498046875</LatitudeDegrees>
              <LongitudeDegrees>-1.43967057578265666961669921875</LongitudeDegrees>
            </Position>
            <AltitudeMeters>17.799999237060546875</AltitudeMeters>
            <DistanceMeters>NAN</DistanceMeters>
          </Trackpoint>
          <Trackpoint>
            <Time>2022-07-07T09:53:00.000Z</Time>
            <Position>
              <LatitudeDegrees>43.6217956803739070892333984375</LatitudeDegrees>
              <LongitudeDegrees>-1.439698822796344757080078125</LongitudeDegrees>
            </Position>
            <AltitudeMeters>17.6000003814697265625</AltitudeMeters>
            <DistanceMeters>NAN</DistanceMeters>
          </Trackpoint>
          <Trackpoint>
            <Time>2022-07-07T09:53:04.000Z</Time>
            <Position>
              <LatitudeDegrees>43.62162963487207889556884765625</LatitudeDegrees>
              <LongitudeDegrees>-1.43980971537530422210693359375</LongitudeDegrees>
            </Position>
            <AltitudeMeters>17.799999237060546875</AltitudeMeters>
            <DistanceMeters>NAN</DistanceMeters>
          </Trackpoint>
          <Trackpoint>
            <Time>2022-07-07T09:53:07.000Z</Time>
            <Position>
              <LatitudeDegrees>43.62155377864837646484375</LatitudeDegrees>
              <LongitudeDegrees>-1.43987610004842281341552734375</LongitudeDegrees>
            </Position>
            <AltitudeMeters>17.799999237060546875</AltitudeMeters>
            <DistanceMeters>NAN</DistanceMeters>
          </Trackpoint>
          <Trackpoint>
            <Time>2022-07-07T09:53:08.000Z</Time>
            <Position>
              <LatitudeDegrees>43.6215415410697460174560546875</LatitudeDegrees>
              <LongitudeDegrees>-1.439916752278804779052734375</LongitudeDegrees>
            </Position>
            <AltitudeMeters>17.799999237060546875</AltitudeMeters>
            <DistanceMeters>NAN</DistanceMeters>
          </Trackpoint>
          <Trackpoint>
            <Time>2022-07-07T09:53:11.000Z</Time>
            <Position>
              <LatitudeDegrees>43.62154774367809295654296875</LatitudeDegrees>
              <LongitudeDegrees>-1.44005547277629375457763671875</LongitudeDegrees>
            </Position>
            <AltitudeMeters>17.799999237060546875</AltitudeMeters>
            <DistanceMeters>NAN</DistanceMeters>
          </Trackpoint>
          <Trackpoint>
            <Time>2022-07-07T09:53:12.000Z</Time>
            <Position>
              <LatitudeDegrees>43.62156249582767486572265625</LatitudeDegrees>
              <LongitudeDegrees>-1.4400919340550899505615234375</LongitudeDegrees>
            </Position>
            <AltitudeMeters>17.799999237060546875</AltitudeMeters>
            <DistanceMeters>NAN</DistanceMeters>
          </Trackpoint>
          <Trackpoint>
            <Time>2022-07-07T09:53:19.000Z</Time>
            <Position>
              <LatitudeDegrees>43.62172082997858524322509765625</LatitudeDegrees>
              <LongitudeDegrees>-1.440446488559246063232421875</LongitudeDegrees>
            </Position>
            <AltitudeMeters>17.799999237060546875</AltitudeMeters>
            <DistanceMeters>NAN</DistanceMeters>
          </Trackpoint>
          <Trackpoint>
            <Time>2022-07-07T09:53:22.000Z</Time>
            <Position>
              <LatitudeDegrees>43.62174463458359241485595703125</LatitudeDegrees>
              <LongitudeDegrees>-1.4406189881265163421630859375</LongitudeDegrees>
            </Position>
            <AltitudeMeters>17.6000003814697265625</AltitudeMeters>
            <DistanceMeters>NAN</DistanceMeters>
          </Trackpoint>
          <Trackpoint>
            <Time>2022-07-07T09:53:27.000Z</Time>
            <Position>
              <LatitudeDegrees>43.62178922630846500396728515625</LatitudeDegrees>
              <LongitudeDegrees>-1.44093255512416362762451171875</LongitudeDegrees>
            </Position>
            <AltitudeMeters>17.799999237060546875</AltitudeMeters>
            <DistanceMeters>NAN</DistanceMeters>
          </Trackpoint>
          <Trackpoint>
            <Time>2022-07-07T09:53:35.000Z</Time>
            <Position>
              <LatitudeDegrees>43.62176408059895038604736328125</LatitudeDegrees>
              <LongitudeDegrees>-1.4414682425558567047119140625</LongitudeDegrees>
            </Position>
            <AltitudeMeters>17.6000003814697265625</AltitudeMeters>
            <DistanceMeters>NAN</DistanceMeters>
          </Trackpoint>
          <Trackpoint>
            <Time>2022-07-07T09:53:39.000Z</Time>
            <Position>
              <LatitudeDegrees>43.621741868555545806884765625</LatitudeDegrees>
              <LongitudeDegrees>-1.4417143352329730987548828125</LongitudeDegrees>
            </Position>
            <AltitudeMeters>17.799999237060546875</AltitudeMeters>
            <DistanceMeters>NAN</DistanceMeters>
          </Trackpoint>
          <Trackpoint>
            <Time>2022-07-07T09:53:44.000Z</Time>
            <Position>
              <LatitudeDegrees>43.62170490436255931854248046875</LatitudeDegrees>
              <LongitudeDegrees>-1.4420274831354618072509765625</LongitudeDegrees>
            </Position>
            <AltitudeMeters>18.200000762939453125</AltitudeMeters>
            <DistanceMeters>NAN</DistanceMeters>
          </Trackpoint>
          <Trackpoint>
            <Time>2022-07-07T09:53:51.000Z</Time>
            <Position>
              <LatitudeDegrees>43.62173859961330890655517578125</LatitudeDegrees>
              <LongitudeDegrees>-1.4424492605030536651611328125</LongitudeDegrees>
            </Position>
            <AltitudeMeters>18.3999996185302734375</AltitudeMeters>
            <DistanceMeters>NAN</DistanceMeters>
          </Trackpoint>
          <Trackpoint>
            <Time>2022-07-07T09:53:56.000Z</Time>
            <Position>
              <LatitudeDegrees>43.6217670142650604248046875</LatitudeDegrees>
              <LongitudeDegrees>-1.44272058270871639251708984375</LongitudeDegrees>
            </Position>
            <AltitudeMeters>18.6000003814697265625</AltitudeMeters>
            <DistanceMeters>NAN</DistanceMeters>
          </Trackpoint>
          <Trackpoint>
            <Time>2022-07-07T09:53:59.000Z</Time>
            <Position>
              <LatitudeDegrees>43.621778748929500579833984375</LatitudeDegrees>
              <LongitudeDegrees>-1.44286290742456912994384765625</LongitudeDegrees>
            </Position>
            <AltitudeMeters>18.200000762939453125</AltitudeMeters>
            <DistanceMeters>NAN</DistanceMeters>
          </Trackpoint>
          <Trackpoint>
            <Time>2022-07-07T09:54:00.000Z</Time>
            <Position>
              <LatitudeDegrees>43.62177480943500995635986328125</LatitudeDegrees>
              <LongitudeDegrees>-1.4429002068936824798583984375</LongitudeDegrees>
            </Position>
            <AltitudeMeters>18.200000762939453125</AltitudeMeters>
            <DistanceMeters>NAN</DistanceMeters>
          </Trackpoint>
          <Trackpoint>
            <Time>2022-07-07T09:54:01.000Z</Time>
            <Position>
              <LatitudeDegrees>43.6217601411044597625732421875</LatitudeDegrees>
              <LongitudeDegrees>-1.4429270289838314056396484375</LongitudeDegrees>
            </Position>
            <AltitudeMeters>18</AltitudeMeters>
            <DistanceMeters>NAN</DistanceMeters>
          </Trackpoint>
          <Trackpoint>
            <Time>2022-07-07T09:54:03.000Z</Time>
            <Position>
              <LatitudeDegrees>43.62169367261230945587158203125</LatitudeDegrees>
              <LongitudeDegrees>-1.44295577891170978546142578125</LongitudeDegrees>
            </Position>
            <AltitudeMeters>17.799999237060546875</AltitudeMeters>
            <DistanceMeters>NAN</DistanceMeters>
          </Trackpoint>
          <Trackpoint>
            <Time>2022-07-07T09:54:07.000Z</Time>
            <Position>
              <LatitudeDegrees>43.62149544060230255126953125</LatitudeDegrees>
              <LongitudeDegrees>-1.44301059655845165252685546875</LongitudeDegrees>
            </Position>
            <AltitudeMeters>17.6000003814697265625</AltitudeMeters>
            <DistanceMeters>NAN</DistanceMeters>
          </Trackpoint>
          <Trackpoint>
            <Time>2022-07-07T09:54:12.000Z</Time>
            <Position>
              <LatitudeDegrees>43.6212600767612457275390625</LatitudeDegrees>
              <LongitudeDegrees>-1.443101875483989715576171875</LongitudeDegrees>
            </Position>
            <AltitudeMeters>17.200000762939453125</AltitudeMeters>
            <DistanceMeters>NAN</DistanceMeters>
          </Trackpoint>
          <Trackpoint>
            <Time>2022-07-07T09:54:14.000Z</Time>
            <Position>
              <LatitudeDegrees>43.62118405289947986602783203125</LatitudeDegrees>
              <LongitudeDegrees>-1.4431328885257244110107421875</LongitudeDegrees>
            </Position>
            <AltitudeMeters>17</AltitudeMeters>
            <DistanceMeters>NAN</DistanceMeters>
          </Trackpoint>
          <Trackpoint>
            <Time>2022-07-07T09:54:16.000Z</Time>
            <Position>
              <LatitudeDegrees>43.6210885830223560333251953125</LatitudeDegrees>
              <LongitudeDegrees>-1.4431734569370746612548828125</LongitudeDegrees>
            </Position>
            <AltitudeMeters>17</AltitudeMeters>
            <DistanceMeters>NAN</DistanceMeters>
          </Trackpoint>
          <Trackpoint>
            <Time>2022-07-07T09:54:17.000Z</Time>
            <Position>
              <LatitudeDegrees>43.6210455000400543212890625</LatitudeDegrees>
              <LongitudeDegrees>-1.44319583661854267120361328125</LongitudeDegrees>
            </Position>
            <AltitudeMeters>17.200000762939453125</AltitudeMeters>
            <DistanceMeters>NAN</DistanceMeters>
          </Trackpoint>
          <Trackpoint>
            <Time>2022-07-07T09:54:20.000Z</Time>
            <Position>
              <LatitudeDegrees>43.62091784365475177764892578125</LatitudeDegrees>
              <LongitudeDegrees>-1.44327395595610141754150390625</LongitudeDegrees>
            </Position>
            <AltitudeMeters>17.3999996185302734375</AltitudeMeters>
            <DistanceMeters>NAN</DistanceMeters>
          </Trackpoint>
          <Trackpoint>
            <Time>2022-07-07T09:54:25.000Z</Time>
            <Position>
              <LatitudeDegrees>43.6207033507525920867919921875</LatitudeDegrees>
              <LongitudeDegrees>-1.44337303005158901214599609375</LongitudeDegrees>
            </Position>
            <AltitudeMeters>17.6000003814697265625</AltitudeMeters>
            <DistanceMeters>NAN</DistanceMeters>
          </Trackpoint>
          <Trackpoint>
            <Time>2022-07-07T09:54:27.000Z</Time>
            <Position>
              <LatitudeDegrees>43.62061877734959125518798828125</LatitudeDegrees>
              <LongitudeDegrees>-1.44340823404490947723388671875</LongitudeDegrees>
            </Position>
            <AltitudeMeters>17.799999237060546875</AltitudeMeters>
            <DistanceMeters>NAN</DistanceMeters>
          </Trackpoint>
          <Trackpoint>
            <Time>2022-07-07T09:54:29.000Z</Time>
            <Position>
              <LatitudeDegrees>43.62051668576896190643310546875</LatitudeDegrees>
              <LongitudeDegrees>-1.4434446953237056732177734375</LongitudeDegrees>
            </Position>
            <AltitudeMeters>17.799999237060546875</AltitudeMeters>
            <DistanceMeters>NAN</DistanceMeters>
          </Trackpoint>
          <Trackpoint>
            <Time>2022-07-07T09:54:35.000Z</Time>
            <Position>
              <LatitudeDegrees>43.6202463693916797637939453125</LatitudeDegrees>
              <LongitudeDegrees>-1.44359464757144451141357421875</LongitudeDegrees>
            </Position>
            <AltitudeMeters>18</AltitudeMeters>
            <DistanceMeters>NAN</DistanceMeters>
          </Trackpoint>
          <Trackpoint>
            <Time>2022-07-07T09:54:44.000Z</Time>
            <Position>
              <LatitudeDegrees>43.61987278796732425689697265625</LatitudeDegrees>
              <LongitudeDegrees>-1.44381727091968059539794921875</LongitudeDegrees>
            </Position>
            <AltitudeMeters>18</AltitudeMeters>
            <DistanceMeters>NAN</DistanceMeters>
          </Trackpoint>
          <Trackpoint>
            <Time>2022-07-07T09:54:50.000Z</Time>
            <Position>
              <LatitudeDegrees>43.61956047825515270233154296875</LatitudeDegrees>
              <LongitudeDegrees>-1.44395238719880580902099609375</LongitudeDegrees>
            </Position>
            <AltitudeMeters>17.799999237060546875</AltitudeMeters>
            <DistanceMeters>NAN</DistanceMeters>
          </Trackpoint>
          <Trackpoint>
            <Time>2022-07-07T09:54:54.000Z</Time>
            <Position>
              <LatitudeDegrees>43.6193682812154293060302734375</LatitudeDegrees>
              <LongitudeDegrees>-1.44404207356274127960205078125</LongitudeDegrees>
            </Position>
            <AltitudeMeters>17.799999237060546875</AltitudeMeters>
            <DistanceMeters>NAN</DistanceMeters>
          </Trackpoint>
          <Trackpoint>
            <Time>2022-07-07T09:54:55.000Z</Time>
            <Position>
              <LatitudeDegrees>43.61932243220508098602294921875</LatitudeDegrees>
              <LongitudeDegrees>-1.44405799917876720428466796875</LongitudeDegrees>
            </Position>
            <AltitudeMeters>17.799999237060546875</AltitudeMeters>
            <DistanceMeters>NAN</DistanceMeters>
          </Trackpoint>
          <Trackpoint>
            <Time>2022-07-07T09:54:56.000Z</Time>
            <Position>
              <LatitudeDegrees>43.6192767508327960968017578125</LatitudeDegrees>
              <LongitudeDegrees>-1.44407928921282291412353515625</LongitudeDegrees>
            </Position>
            <AltitudeMeters>17.799999237060546875</AltitudeMeters>
            <DistanceMeters>NAN</DistanceMeters>
          </Trackpoint>
          <Trackpoint>
            <Time>2022-07-07T09:55:01.000Z</Time>
            <Position>
              <LatitudeDegrees>43.6190799437463283538818359375</LatitudeDegrees>
              <LongitudeDegrees>-1.444208286702632904052734375</LongitudeDegrees>
            </Position>
            <AltitudeMeters>18</AltitudeMeters>
            <DistanceMeters>NAN</DistanceMeters>
          </Trackpoint>
          <Trackpoint>
            <Time>2022-07-07T09:55:02.000Z</Time>
            <Position>
              <LatitudeDegrees>43.61904499121010303497314453125</LatitudeDegrees>
              <LongitudeDegrees>-1.4442372880876064300537109375</LongitudeDegrees>
            </Position>
            <AltitudeMeters>18</AltitudeMeters>
            <DistanceMeters>NAN</DistanceMeters>
          </Trackpoint>
          <Trackpoint>
            <Time>2022-07-07T09:55:06.000Z</Time>
            <Position>
              <LatitudeDegrees>43.61890618689358234405517578125</LatitudeDegrees>
              <LongitudeDegrees>-1.44437114708125591278076171875</LongitudeDegrees>
            </Position>
            <AltitudeMeters>18.200000762939453125</AltitudeMeters>
            <DistanceMeters>NAN</DistanceMeters>
          </Trackpoint>
          <Trackpoint>
            <Time>2022-07-07T09:55:09.000Z</Time>
            <Position>
              <LatitudeDegrees>43.618791438639163970947265625</LatitudeDegrees>
              <LongitudeDegrees>-1.44446049816906452178955078125</LongitudeDegrees>
            </Position>
            <AltitudeMeters>18.3999996185302734375</AltitudeMeters>
            <DistanceMeters>NAN</DistanceMeters>
          </Trackpoint>
          <Trackpoint>
            <Time>2022-07-07T09:55:10.000Z</Time>
            <Position>
              <LatitudeDegrees>43.61875288188457489013671875</LatitudeDegrees>
              <LongitudeDegrees>-1.444485224783420562744140625</LongitudeDegrees>
            </Position>
            <AltitudeMeters>18.3999996185302734375</AltitudeMeters>
            <DistanceMeters>NAN</DistanceMeters>
          </Trackpoint>
          <Trackpoint>
            <Time>2022-07-07T09:55:16.000Z</Time>
            <Position>
              <LatitudeDegrees>43.61853654496371746063232421875</LatitudeDegrees>
              <LongitudeDegrees>-1.44463467411696910858154296875</LongitudeDegrees>
            </Position>
            <AltitudeMeters>18.799999237060546875</AltitudeMeters>
            <DistanceMeters>NAN</DistanceMeters>
          </Trackpoint>
          <Trackpoint>
            <Time>2022-07-07T09:55:18.000Z</Time>
            <Position>
              <LatitudeDegrees>43.61846446059644222259521484375</LatitudeDegrees>
              <LongitudeDegrees>-1.44469267688691616058349609375</LongitudeDegrees>
            </Position>
            <AltitudeMeters>18.799999237060546875</AltitudeMeters>
            <DistanceMeters>NAN</DistanceMeters>
          </Trackpoint>
          <Trackpoint>
            <Time>2022-07-07T09:55:20.000Z</Time>
            <Position>
              <LatitudeDegrees>43.61837862990796566009521484375</LatitudeDegrees>
              <LongitudeDegrees>-1.4447529427707195281982421875</LongitudeDegrees>
            </Position>
            <AltitudeMeters>18.799999237060546875</AltitudeMeters>
            <DistanceMeters>NAN</DistanceMeters>
          </Trackpoint>
          <Trackpoint>
            <Time>2022-07-07T09:55:25.000Z</Time>
            <Position>
              <LatitudeDegrees>43.61817218363285064697265625</LatitudeDegrees>
              <LongitudeDegrees>-1.44490775652229785919189453125</LongitudeDegrees>
            </Position>
            <AltitudeMeters>19</AltitudeMeters>
            <DistanceMeters>NAN</DistanceMeters>
          </Trackpoint>
          <Trackpoint>
            <Time>2022-07-07T09:55:27.000Z</Time>
            <Position>
              <LatitudeDegrees>43.6180908791720867156982421875</LatitudeDegrees>
              <LongitudeDegrees>-1.4449611492455005645751953125</LongitudeDegrees>
            </Position>
            <AltitudeMeters>19</AltitudeMeters>
            <DistanceMeters>NAN</DistanceMeters>
          </Trackpoint>
          <Trackpoint>
            <Time>2022-07-07T09:55:29.000Z</Time>
            <Position>
              <LatitudeDegrees>43.61801167018711566925048828125</LatitudeDegrees>
              <LongitudeDegrees>-1.445007584989070892333984375</LongitudeDegrees>
            </Position>
            <AltitudeMeters>19</AltitudeMeters>
            <DistanceMeters>NAN</DistanceMeters>
          </Trackpoint>
          <Trackpoint>
            <Time>2022-07-07T09:55:33.000Z</Time>
            <Position>
              <LatitudeDegrees>43.61786263994872570037841796875</LatitudeDegrees>
              <LongitudeDegrees>-1.445080675184726715087890625</LongitudeDegrees>
            </Position>
            <AltitudeMeters>19</AltitudeMeters>
            <DistanceMeters>NAN</DistanceMeters>
          </Trackpoint>
          <Trackpoint>
            <Time>2022-07-07T09:55:40.000Z</Time>
            <Position>
              <LatitudeDegrees>43.61751931719481945037841796875</LatitudeDegrees>
              <LongitudeDegrees>-1.44514496438205242156982421875</LongitudeDegrees>
            </Position>
            <AltitudeMeters>19.200000762939453125</AltitudeMeters>
            <DistanceMeters>NAN</DistanceMeters>
          </Trackpoint>
          <Trackpoint>
            <Time>2022-07-07T09:55:41.000Z</Time>
            <Position>
              <LatitudeDegrees>43.61747422255575656890869140625</LatitudeDegrees>
              <LongitudeDegrees>-1.44516156055033206939697265625</LongitudeDegrees>
            </Position>
            <AltitudeMeters>19.200000762939453125</AltitudeMeters>
            <DistanceMeters>NAN</DistanceMeters>
          </Trackpoint>
          <Trackpoint>
            <Time>2022-07-07T09:55:45.000Z</Time>
            <Position>
              <LatitudeDegrees>43.61732720397412776947021484375</LatitudeDegrees>
              <LongitudeDegrees>-1.4452962577342987060546875</LongitudeDegrees>
            </Position>
            <AltitudeMeters>19.200000762939453125</AltitudeMeters>
            <DistanceMeters>NAN</DistanceMeters>
          </Trackpoint>
          <Trackpoint>
            <Time>2022-07-07T09:55:50.000Z</Time>
            <Position>
              <LatitudeDegrees>43.61711732111871242523193359375</LatitudeDegrees>
              <LongitudeDegrees>-1.44548711366951465606689453125</LongitudeDegrees>
            </Position>
            <AltitudeMeters>19</AltitudeMeters>
            <DistanceMeters>NAN</DistanceMeters>
          </Trackpoint>
          <Trackpoint>
            <Time>2022-07-07T09:55:52.000Z</Time>
            <Position>
              <LatitudeDegrees>43.61705864779651165008544921875</LatitudeDegrees>
              <LongitudeDegrees>-1.44558065570890903472900390625</LongitudeDegrees>
            </Position>
            <AltitudeMeters>19.200000762939453125</AltitudeMeters>
            <DistanceMeters>NAN</DistanceMeters>
          </Trackpoint>
          <Trackpoint>
            <Time>2022-07-07T09:55:57.000Z</Time>
            <Position>
              <LatitudeDegrees>43.6169217713177204132080078125</LatitudeDegrees>
              <LongitudeDegrees>-1.44583865068852901458740234375</LongitudeDegrees>
            </Position>
            <AltitudeMeters>19.200000762939453125</AltitudeMeters>
            <DistanceMeters>NAN</DistanceMeters>
          </Trackpoint>
          <Trackpoint>
            <Time>2022-07-07T09:55:59.000Z</Time>
            <Position>
              <LatitudeDegrees>43.616870976984500885009765625</LatitudeDegrees>
              <LongitudeDegrees>-1.4459508843719959259033203125</LongitudeDegrees>
            </Position>
            <AltitudeMeters>19.200000762939453125</AltitudeMeters>
            <DistanceMeters>NAN</DistanceMeters>
          </Trackpoint>
          <Trackpoint>
            <Time>2022-07-07T09:56:08.000Z</Time>
            <Position>
              <LatitudeDegrees>43.61666704528033733367919921875</LatitudeDegrees>
              <LongitudeDegrees>-1.44642471335828304290771484375</LongitudeDegrees>
            </Position>
            <AltitudeMeters>19.3999996185302734375</AltitudeMeters>
            <DistanceMeters>NAN</DistanceMeters>
          </Trackpoint>
          <Trackpoint>
            <Time>2022-07-07T09:56:10.000Z</Time>
            <Position>
              <LatitudeDegrees>43.6166347749531269073486328125</LatitudeDegrees>
              <LongitudeDegrees>-1.4465158246457576751708984375</LongitudeDegrees>
            </Position>
            <AltitudeMeters>19.3999996185302734375</AltitudeMeters>
            <DistanceMeters>NAN</DistanceMeters>
          </Trackpoint>
          <Trackpoint>
            <Time>2022-07-07T09:56:18.000Z</Time>
            <Position>
              <LatitudeDegrees>43.61645816825330257415771484375</LatitudeDegrees>
              <LongitudeDegrees>-1.44697322510182857513427734375</LongitudeDegrees>
            </Position>
            <AltitudeMeters>19.799999237060546875</AltitudeMeters>
            <DistanceMeters>NAN</DistanceMeters>
          </Trackpoint>
          <Trackpoint>
            <Time>2022-07-07T09:56:22.000Z</Time>
            <Position>
              <LatitudeDegrees>43.61635766923427581787109375</LatitudeDegrees>
              <LongitudeDegrees>-1.447186209261417388916015625</LongitudeDegrees>
            </Position>
            <AltitudeMeters>20</AltitudeMeters>
            <DistanceMeters>NAN</DistanceMeters>
          </Trackpoint>
          <Trackpoint>
            <Time>2022-07-07T09:56:26.000Z</Time>
            <Position>
              <LatitudeDegrees>43.6162471957504749298095703125</LatitudeDegrees>
              <LongitudeDegrees>-1.44738108851015567779541015625</LongitudeDegrees>
            </Position>
            <AltitudeMeters>19.3999996185302734375</AltitudeMeters>
            <DistanceMeters>NAN</DistanceMeters>
          </Trackpoint>
          <Trackpoint>
            <Time>2022-07-07T09:56:28.000Z</Time>
            <Position>
              <LatitudeDegrees>43.61619807779788970947265625</LatitudeDegrees>
              <LongitudeDegrees>-1.4474730379879474639892578125</LongitudeDegrees>
            </Position>
            <AltitudeMeters>19.3999996185302734375</AltitudeMeters>
            <DistanceMeters>NAN</DistanceMeters>
          </Trackpoint>
          <Trackpoint>
            <Time>2022-07-07T09:56:32.000Z</Time>
            <Position>
              <LatitudeDegrees>43.61608584411442279815673828125</LatitudeDegrees>
              <LongitudeDegrees>-1.44764612428843975067138671875</LongitudeDegrees>
            </Position>
            <AltitudeMeters>19.3999996185302734375</AltitudeMeters>
            <DistanceMeters>NAN</DistanceMeters>
          </Trackpoint>
          <Trackpoint>
            <Time>2022-07-07T09:56:33.000Z</Time>
            <Position>
              <LatitudeDegrees>43.6160648055374622344970703125</LatitudeDegrees>
              <LongitudeDegrees>-1.4476896263659000396728515625</LongitudeDegrees>
            </Position>
            <AltitudeMeters>19.3999996185302734375</AltitudeMeters>
            <DistanceMeters>NAN</DistanceMeters>
          </Trackpoint>
          <Trackpoint>
            <Time>2022-07-07T09:56:37.000Z</Time>
            <Position>
              <LatitudeDegrees>43.61598408780992031097412109375</LatitudeDegrees>
              <LongitudeDegrees>-1.4478723518550395965576171875</LongitudeDegrees>
            </Position>
            <AltitudeMeters>19.200000762939453125</AltitudeMeters>
            <DistanceMeters>NAN</DistanceMeters>
          </Trackpoint>
          <Trackpoint>
            <Time>2022-07-07T09:56:38.000Z</Time>
            <Position>
              <LatitudeDegrees>43.6159591935575008392333984375</LatitudeDegrees>
              <LongitudeDegrees>-1.4479189552366733551025390625</LongitudeDegrees>
            </Position>
            <AltitudeMeters>19.200000762939453125</AltitudeMeters>
            <DistanceMeters>NAN</DistanceMeters>
          </Trackpoint>
          <Trackpoint>
            <Time>2022-07-07T09:56:44.000Z</Time>
            <Position>
              <LatitudeDegrees>43.61581544391810894012451171875</LatitudeDegrees>
              <LongitudeDegrees>-1.448207460343837738037109375</LongitudeDegrees>
            </Position>
            <AltitudeMeters>19.200000762939453125</AltitudeMeters>
            <DistanceMeters>NAN</DistanceMeters>
          </Trackpoint>
          <Trackpoint>
            <Time>2022-07-07T09:56:46.000Z</Time>
            <Position>
              <LatitudeDegrees>43.61578560434281826019287109375</LatitudeDegrees>
              <LongitudeDegrees>-1.4483056962490081787109375</LongitudeDegrees>
            </Position>
            <AltitudeMeters>19.200000762939453125</AltitudeMeters>
            <DistanceMeters>NAN</DistanceMeters>
          </Trackpoint>
          <Trackpoint>
            <Time>2022-07-07T09:56:48.000Z</Time>
            <Position>
              <LatitudeDegrees>43.6157405935227870941162109375</LatitudeDegrees>
              <LongitudeDegrees>-1.44840653054416179656982421875</LongitudeDegrees>
            </Position>
            <AltitudeMeters>19.200000762939453125</AltitudeMeters>
            <DistanceMeters>NAN</DistanceMeters>
          </Trackpoint>
          <Trackpoint>
            <Time>2022-07-07T09:56:50.000Z</Time>
            <Position>
              <LatitudeDegrees>43.61569256521761417388916015625</LatitudeDegrees>
              <LongitudeDegrees>-1.44849814474582672119140625</LongitudeDegrees>
            </Position>
            <AltitudeMeters>19.200000762939453125</AltitudeMeters>
            <DistanceMeters>NAN</DistanceMeters>
          </Trackpoint>
          <Trackpoint>
            <Time>2022-07-07T09:56:53.000Z</Time>
            <Position>
              <LatitudeDegrees>43.6156006157398223876953125</LatitudeDegrees>
              <LongitudeDegrees>-1.44866150803864002227783203125</LongitudeDegrees>
            </Position>
            <AltitudeMeters>19.3999996185302734375</AltitudeMeters>
            <DistanceMeters>NAN</DistanceMeters>
          </Trackpoint>
          <Trackpoint>
            <Time>2022-07-07T09:56:55.000Z</Time>
            <Position>
              <LatitudeDegrees>43.61554403789341449737548828125</LatitudeDegrees>
              <LongitudeDegrees>-1.448767371475696563720703125</LongitudeDegrees>
            </Position>
            <AltitudeMeters>19.3999996185302734375</AltitudeMeters>
            <DistanceMeters>NAN</DistanceMeters>
          </Trackpoint>
          <Trackpoint>
            <Time>2022-07-07T09:56:57.000Z</Time>
            <Position>
              <LatitudeDegrees>43.61549039371311664581298828125</LatitudeDegrees>
              <LongitudeDegrees>-1.4488637633621692657470703125</LongitudeDegrees>
            </Position>
            <AltitudeMeters>19.3999996185302734375</AltitudeMeters>
            <DistanceMeters>NAN</DistanceMeters>
          </Trackpoint>
          <Trackpoint>
            <Time>2022-07-07T09:57:01.000Z</Time>
            <Position>
              <LatitudeDegrees>43.6153593845665454864501953125</LatitudeDegrees>
              <LongitudeDegrees>-1.44905478693544864654541015625</LongitudeDegrees>
            </Position>
            <AltitudeMeters>19.6000003814697265625</AltitudeMeters>
            <DistanceMeters>NAN</DistanceMeters>
          </Trackpoint>
          <Trackpoint>
            <Time>2022-07-07T09:57:03.000Z</Time>
            <Position>
              <LatitudeDegrees>43.615295849740505218505859375</LatitudeDegrees>
              <LongitudeDegrees>-1.44915067590773105621337890625</LongitudeDegrees>
            </Position>
            <AltitudeMeters>19.799999237060546875</AltitudeMeters>
            <DistanceMeters>NAN</DistanceMeters>
          </Trackpoint>
          <Trackpoint>
            <Time>2022-07-07T09:57:04.000Z</Time>
            <Position>
              <LatitudeDegrees>43.6152725480496883392333984375</LatitudeDegrees>
              <LongitudeDegrees>-1.449202559888362884521484375</LongitudeDegrees>
            </Position>
            <AltitudeMeters>19.799999237060546875</AltitudeMeters>
            <DistanceMeters>NAN</DistanceMeters>
          </Trackpoint>
          <Trackpoint>
            <Time>2022-07-07T09:57:09.000Z</Time>
            <Position>
              <LatitudeDegrees>43.615135252475738525390625</LatitudeDegrees>
              <LongitudeDegrees>-1.4494729600846767425537109375</LongitudeDegrees>
            </Position>
            <AltitudeMeters>20.200000762939453125</AltitudeMeters>
            <DistanceMeters>NAN</DistanceMeters>
          </Trackpoint>
          <Trackpoint>
            <Time>2022-07-07T09:57:11.000Z</Time>
            <Position>
              <LatitudeDegrees>43.6150851286947727203369140625</LatitudeDegrees>
              <LongitudeDegrees>-1.4495671726763248443603515625</LongitudeDegrees>
            </Position>
            <AltitudeMeters>20.3999996185302734375</AltitudeMeters>
            <DistanceMeters>NAN</DistanceMeters>
          </Trackpoint>
          <Trackpoint>
            <Time>2022-07-07T09:57:17.000Z</Time>
            <Position>
              <LatitudeDegrees>43.61492997966706752777099609375</LatitudeDegrees>
              <LongitudeDegrees>-1.449885182082653045654296875</LongitudeDegrees>
            </Position>
            <AltitudeMeters>20.6000003814697265625</AltitudeMeters>
            <DistanceMeters>NAN</DistanceMeters>
          </Trackpoint>
          <Trackpoint>
            <Time>2022-07-07T09:57:20.000Z</Time>
            <Position>
              <LatitudeDegrees>43.61483727581799030303955078125</LatitudeDegrees>
              <LongitudeDegrees>-1.45004334859549999237060546875</LongitudeDegrees>
            </Position>
            <AltitudeMeters>20.6000003814697265625</AltitudeMeters>
            <DistanceMeters>NAN</DistanceMeters>
          </Trackpoint>
          <Trackpoint>
            <Time>2022-07-07T09:57:21.000Z</Time>
            <Position>
              <LatitudeDegrees>43.614807017147541046142578125</LatitudeDegrees>
              <LongitudeDegrees>-1.4500965736806392669677734375</LongitudeDegrees>
            </Position>
            <AltitudeMeters>20.6000003814697265625</AltitudeMeters>
            <DistanceMeters>NAN</DistanceMeters>
          </Trackpoint>
          <Trackpoint>
            <Time>2022-07-07T09:57:23.000Z</Time>
            <Position>
              <LatitudeDegrees>43.61475312151014804840087890625</LatitudeDegrees>
              <LongitudeDegrees>-1.450202353298664093017578125</LongitudeDegrees>
            </Position>
            <AltitudeMeters>20.3999996185302734375</AltitudeMeters>
            <DistanceMeters>NAN</DistanceMeters>
          </Trackpoint>
          <Trackpoint>
            <Time>2022-07-07T09:57:25.000Z</Time>
            <Position>
              <LatitudeDegrees>43.61469696275889873504638671875</LatitudeDegrees>
              <LongitudeDegrees>-1.45030402578413486480712890625</LongitudeDegrees>
            </Position>
            <AltitudeMeters>20.3999996185302734375</AltitudeMeters>
            <DistanceMeters>NAN</DistanceMeters>
          </Trackpoint>
          <Trackpoint>
            <Time>2022-07-07T09:57:30.000Z</Time>
            <Position>
              <LatitudeDegrees>43.61454776488244533538818359375</LatitudeDegrees>
              <LongitudeDegrees>-1.4505515433847904205322265625</LongitudeDegrees>
            </Position>
            <AltitudeMeters>20.3999996185302734375</AltitudeMeters>
            <DistanceMeters>NAN</DistanceMeters>
          </Trackpoint>
          <Trackpoint>
            <Time>2022-07-07T09:57:32.000Z</Time>
            <Position>
              <LatitudeDegrees>43.61448657698929309844970703125</LatitudeDegrees>
              <LongitudeDegrees>-1.45065606571733951568603515625</LongitudeDegrees>
            </Position>
            <AltitudeMeters>19.799999237060546875</AltitudeMeters>
            <DistanceMeters>NAN</DistanceMeters>
          </Trackpoint>
          <Trackpoint>
            <Time>2022-07-07T09:57:38.000Z</Time>
            <Position>
              <LatitudeDegrees>43.61431223340332508087158203125</LatitudeDegrees>
              <LongitudeDegrees>-1.4509451575577259063720703125</LongitudeDegrees>
            </Position>
            <AltitudeMeters>19.799999237060546875</AltitudeMeters>
            <DistanceMeters>NAN</DistanceMeters>
          </Trackpoint>
          <Trackpoint>
            <Time>2022-07-07T09:57:39.000Z</Time>
            <Position>
              <LatitudeDegrees>43.61428675241768360137939453125</LatitudeDegrees>
              <LongitudeDegrees>-1.45099402405321598052978515625</LongitudeDegrees>
            </Position>
            <AltitudeMeters>20</AltitudeMeters>
            <DistanceMeters>NAN</DistanceMeters>
          </Trackpoint>
          <Trackpoint>
            <Time>2022-07-07T09:57:40.000Z</Time>
            <Position>
              <LatitudeDegrees>43.61426688730716705322265625</LatitudeDegrees>
              <LongitudeDegrees>-1.45104096271097660064697265625</LongitudeDegrees>
            </Position>
            <AltitudeMeters>20</AltitudeMeters>
            <DistanceMeters>NAN</DistanceMeters>
          </Trackpoint>
          <Trackpoint>
            <Time>2022-07-07T09:57:44.000Z</Time>
            <Position>
              <LatitudeDegrees>43.614165298640727996826171875</LatitudeDegrees>
              <LongitudeDegrees>-1.45119921304285526275634765625</LongitudeDegrees>
            </Position>
            <AltitudeMeters>20.3999996185302734375</AltitudeMeters>
            <DistanceMeters>NAN</DistanceMeters>
          </Trackpoint>
          <Trackpoint>
            <Time>2022-07-07T09:57:47.000Z</Time>
            <Position>
              <LatitudeDegrees>43.61408424563705921173095703125</LatitudeDegrees>
              <LongitudeDegrees>-1.45129711367189884185791015625</LongitudeDegrees>
            </Position>
            <AltitudeMeters>20.799999237060546875</AltitudeMeters>
            <DistanceMeters>NAN</DistanceMeters>
          </Trackpoint>
          <Trackpoint>
            <Time>2022-07-07T09:57:50.000Z</Time>
            <Position>
              <LatitudeDegrees>43.614007048308849334716796875</LatitudeDegrees>
              <LongitudeDegrees>-1.45141395740211009979248046875</LongitudeDegrees>
            </Position>
            <AltitudeMeters>20.799999237060546875</AltitudeMeters>
            <DistanceMeters>NAN</DistanceMeters>
          </Trackpoint>
          <Trackpoint>
            <Time>2022-07-07T09:57:54.000Z</Time>
            <Position>
              <LatitudeDegrees>43.61390881240367889404296875</LatitudeDegrees>
              <LongitudeDegrees>-1.45154974423348903656005859375</LongitudeDegrees>
            </Position>
            <AltitudeMeters>20.6000003814697265625</AltitudeMeters>
            <DistanceMeters>NAN</DistanceMeters>
          </Trackpoint>
          <Trackpoint>
            <Time>2022-07-07T09:57:57.000Z</Time>
            <Position>
              <LatitudeDegrees>43.61381761729717254638671875</LatitudeDegrees>
              <LongitudeDegrees>-1.45164974033832550048828125</LongitudeDegrees>
            </Position>
            <AltitudeMeters>20.6000003814697265625</AltitudeMeters>
            <DistanceMeters>NAN</DistanceMeters>
          </Trackpoint>
          <Trackpoint>
            <Time>2022-07-07T09:58:05.000Z</Time>
            <Position>
              <LatitudeDegrees>43.613544367253780364990234375</LatitudeDegrees>
              <LongitudeDegrees>-1.45194738171994686126708984375</LongitudeDegrees>
            </Position>
            <AltitudeMeters>21</AltitudeMeters>
            <DistanceMeters>NAN</DistanceMeters>
          </Trackpoint>
          <Trackpoint>
            <Time>2022-07-07T09:58:08.000Z</Time>
            <Position>
              <LatitudeDegrees>43.61343850381672382354736328125</LatitudeDegrees>
              <LongitudeDegrees>-1.452047713100910186767578125</LongitudeDegrees>
            </Position>
            <AltitudeMeters>21</AltitudeMeters>
            <DistanceMeters>NAN</DistanceMeters>
          </Trackpoint>
          <Trackpoint>
            <Time>2022-07-07T09:58:09.000Z</Time>
            <Position>
              <LatitudeDegrees>43.6134092509746551513671875</LatitudeDegrees>
              <LongitudeDegrees>-1.45207797177135944366455078125</LongitudeDegrees>
            </Position>
            <AltitudeMeters>21</AltitudeMeters>
            <DistanceMeters>NAN</DistanceMeters>
          </Trackpoint>
          <Trackpoint>
            <Time>2022-07-07T09:58:13.000Z</Time>
            <Position>
              <LatitudeDegrees>43.61327522434294223785400390625</LatitudeDegrees>
              <LongitudeDegrees>-1.4522029459476470947265625</LongitudeDegrees>
            </Position>
            <AltitudeMeters>21</AltitudeMeters>
            <DistanceMeters>NAN</DistanceMeters>
          </Trackpoint>
          <Trackpoint>
            <Time>2022-07-07T09:58:17.000Z</Time>
            <Position>
              <LatitudeDegrees>43.613158129155635833740234375</LatitudeDegrees>
              <LongitudeDegrees>-1.4523637108504772186279296875</LongitudeDegrees>
            </Position>
            <AltitudeMeters>21</AltitudeMeters>
            <DistanceMeters>NAN</DistanceMeters>
          </Trackpoint>
          <Trackpoint>
            <Time>2022-07-07T09:58:19.000Z</Time>
            <Position>
              <LatitudeDegrees>43.6131187342107295989990234375</LatitudeDegrees>
              <LongitudeDegrees>-1.45242950879037380218505859375</LongitudeDegrees>
            </Position>
            <AltitudeMeters>21</AltitudeMeters>
            <DistanceMeters>NAN</DistanceMeters>
          </Trackpoint>
          <Trackpoint>
            <Time>2022-07-07T09:58:23.000Z</Time>
            <Position>
              <LatitudeDegrees>43.61300281248986721038818359375</LatitudeDegrees>
              <LongitudeDegrees>-1.45256571471691131591796875</LongitudeDegrees>
            </Position>
            <AltitudeMeters>21.200000762939453125</AltitudeMeters>
            <DistanceMeters>NAN</DistanceMeters>
          </Trackpoint>
          <Trackpoint>
            <Time>2022-07-07T09:58:24.000Z</Time>
            <Position>
              <LatitudeDegrees>43.61296341754496097564697265625</LatitudeDegrees>
              <LongitudeDegrees>-1.45260368473827838897705078125</LongitudeDegrees>
            </Position>
            <AltitudeMeters>21.200000762939453125</AltitudeMeters>
            <DistanceMeters>NAN</DistanceMeters>
          </Trackpoint>
          <Trackpoint>
            <Time>2022-07-07T09:58:32.000Z</Time>
            <Position>
              <LatitudeDegrees>43.61271430738270282745361328125</LatitudeDegrees>
              <LongitudeDegrees>-1.45286955870687961578369140625</LongitudeDegrees>
            </Position>
            <AltitudeMeters>22</AltitudeMeters>
            <DistanceMeters>NAN</DistanceMeters>
          </Trackpoint>
          <Trackpoint>
            <Time>2022-07-07T09:58:39.000Z</Time>
            <Position>
              <LatitudeDegrees>43.61245966516435146331787109375</LatitudeDegrees>
              <LongitudeDegrees>-1.4531291462481021881103515625</LongitudeDegrees>
            </Position>
            <AltitudeMeters>21.3999996185302734375</AltitudeMeters>
            <DistanceMeters>NAN</DistanceMeters>
          </Trackpoint>
          <Trackpoint>
            <Time>2022-07-07T09:58:42.000Z</Time>
            <Position>
              <LatitudeDegrees>43.6123683862388134002685546875</LatitudeDegrees>
              <LongitudeDegrees>-1.4532528631389141082763671875</LongitudeDegrees>
            </Position>
            <AltitudeMeters>21.200000762939453125</AltitudeMeters>
            <DistanceMeters>NAN</DistanceMeters>
          </Trackpoint>
          <Trackpoint>
            <Time>2022-07-07T09:58:45.000Z</Time>
            <Position>
              <LatitudeDegrees>43.6122463457286357879638671875</LatitudeDegrees>
              <LongitudeDegrees>-1.45339443348348140716552734375</LongitudeDegrees>
            </Position>
            <AltitudeMeters>21.200000762939453125</AltitudeMeters>
            <DistanceMeters>NAN</DistanceMeters>
          </Trackpoint>
          <Trackpoint>
            <Time>2022-07-07T09:58:51.000Z</Time>
            <Position>
              <LatitudeDegrees>43.61205146647989749908447265625</LatitudeDegrees>
              <LongitudeDegrees>-1.45362108014523983001708984375</LongitudeDegrees>
            </Position>
            <AltitudeMeters>21.3999996185302734375</AltitudeMeters>
            <DistanceMeters>NAN</DistanceMeters>
          </Trackpoint>
          <Trackpoint>
            <Time>2022-07-07T09:58:57.000Z</Time>
            <Position>
              <LatitudeDegrees>43.6118534021079540252685546875</LatitudeDegrees>
              <LongitudeDegrees>-1.45387999713420867919921875</LongitudeDegrees>
            </Position>
            <AltitudeMeters>21.3999996185302734375</AltitudeMeters>
            <DistanceMeters>NAN</DistanceMeters>
          </Trackpoint>
          <Trackpoint>
            <Time>2022-07-07T09:59:03.000Z</Time>
            <Position>
              <LatitudeDegrees>43.6116773821413516998291015625</LatitudeDegrees>
              <LongitudeDegrees>-1.4540877006947994232177734375</LongitudeDegrees>
            </Position>
            <AltitudeMeters>21.799999237060546875</AltitudeMeters>
            <DistanceMeters>NAN</DistanceMeters>
          </Trackpoint>
          <Trackpoint>
            <Time>2022-07-07T09:59:07.000Z</Time>
            <Position>
              <LatitudeDegrees>43.61158576793968677520751953125</LatitudeDegrees>
              <LongitudeDegrees>-1.4542053826153278350830078125</LongitudeDegrees>
            </Position>
            <AltitudeMeters>21.6000003814697265625</AltitudeMeters>
            <DistanceMeters>NAN</DistanceMeters>
          </Trackpoint>
          <Trackpoint>
            <Time>2022-07-07T09:59:11.000Z</Time>
            <Position>
              <LatitudeDegrees>43.61146355979144573211669921875</LatitudeDegrees>
              <LongitudeDegrees>-1.4543284289538860321044921875</LongitudeDegrees>
            </Position>
            <AltitudeMeters>21.799999237060546875</AltitudeMeters>
            <DistanceMeters>NAN</DistanceMeters>
          </Trackpoint>
          <Trackpoint>
            <Time>2022-07-07T09:59:14.000Z</Time>
            <Position>
              <LatitudeDegrees>43.611363060772418975830078125</LatitudeDegrees>
              <LongitudeDegrees>-1.45441434346139430999755859375</LongitudeDegrees>
            </Position>
            <AltitudeMeters>21.799999237060546875</AltitudeMeters>
            <DistanceMeters>NAN</DistanceMeters>
          </Trackpoint>
          <Trackpoint>
            <Time>2022-07-07T09:59:20.000Z</Time>
            <Position>
              <LatitudeDegrees>43.61112291924655437469482421875</LatitudeDegrees>
              <LongitudeDegrees>-1.4545644633471965789794921875</LongitudeDegrees>
            </Position>
            <AltitudeMeters>22</AltitudeMeters>
            <DistanceMeters>NAN</DistanceMeters>
          </Trackpoint>
          <Trackpoint>
            <Time>2022-07-07T09:59:21.000Z</Time>
            <Position>
              <LatitudeDegrees>43.61108017154037952423095703125</LatitudeDegrees>
              <LongitudeDegrees>-1.45458634011447429656982421875</LongitudeDegrees>
            </Position>
            <AltitudeMeters>22</AltitudeMeters>
            <DistanceMeters>NAN</DistanceMeters>
          </Trackpoint>
          <Trackpoint>
            <Time>2022-07-07T09:59:25.000Z</Time>
            <Position>
              <LatitudeDegrees>43.61093558371067047119140625</LatitudeDegrees>
              <LongitudeDegrees>-1.45460687577724456787109375</LongitudeDegrees>
            </Position>
            <AltitudeMeters>21.799999237060546875</AltitudeMeters>
            <DistanceMeters>NAN</DistanceMeters>
          </Trackpoint>
          <Trackpoint>
            <Time>2022-07-07T09:59:32.000Z</Time>
            <Position>
              <LatitudeDegrees>43.61058664508163928985595703125</LatitudeDegrees>
              <LongitudeDegrees>-1.45464685745537281036376953125</LongitudeDegrees>
            </Position>
            <AltitudeMeters>21.6000003814697265625</AltitudeMeters>
            <DistanceMeters>NAN</DistanceMeters>
          </Trackpoint>
          <Trackpoint>
            <Time>2022-07-07T09:59:34.000Z</Time>
            <Position>
              <LatitudeDegrees>43.61045806668698787689208984375</LatitudeDegrees>
              <LongitudeDegrees>-1.45461835898458957672119140625</LongitudeDegrees>
            </Position>
            <AltitudeMeters>21.3999996185302734375</AltitudeMeters>
            <DistanceMeters>NAN</DistanceMeters>
          </Trackpoint>
          <Trackpoint>
            <Time>2022-07-07T09:59:35.000Z</Time>
            <Position>
              <LatitudeDegrees>43.61040987074375152587890625</LatitudeDegrees>
              <LongitudeDegrees>-1.4545981585979461669921875</LongitudeDegrees>
            </Position>
            <AltitudeMeters>21.3999996185302734375</AltitudeMeters>
            <DistanceMeters>NAN</DistanceMeters>
          </Trackpoint>
          <Trackpoint>
            <Time>2022-07-07T09:59:38.000Z</Time>
            <Position>
              <LatitudeDegrees>43.61020811833441257476806640625</LatitudeDegrees>
              <LongitudeDegrees>-1.45462271757423877716064453125</LongitudeDegrees>
            </Position>
            <AltitudeMeters>21.200000762939453125</AltitudeMeters>
            <DistanceMeters>NAN</DistanceMeters>
          </Trackpoint>
          <Trackpoint>
            <Time>2022-07-07T09:59:40.000Z</Time>
            <Position>
              <LatitudeDegrees>43.6101143248379230499267578125</LatitudeDegrees>
              <LongitudeDegrees>-1.45465607754886150360107421875</LongitudeDegrees>
            </Position>
            <AltitudeMeters>21.200000762939453125</AltitudeMeters>
            <DistanceMeters>NAN</DistanceMeters>
          </Trackpoint>
          <Trackpoint>
            <Time>2022-07-07T09:59:43.000Z</Time>
            <Position>
              <LatitudeDegrees>43.6099641211330890655517578125</LatitudeDegrees>
              <LongitudeDegrees>-1.45461517386138439178466796875</LongitudeDegrees>
            </Position>
            <AltitudeMeters>21.3999996185302734375</AltitudeMeters>
            <DistanceMeters>NAN</DistanceMeters>
          </Trackpoint>
          <Trackpoint>
            <Time>2022-07-07T09:59:44.000Z</Time>
            <Position>
              <LatitudeDegrees>43.6099322699010372161865234375</LatitudeDegrees>
              <LongitudeDegrees>-1.45461224019527435302734375</LongitudeDegrees>
            </Position>
            <AltitudeMeters>21.6000003814697265625</AltitudeMeters>
            <DistanceMeters>NAN</DistanceMeters>
          </Trackpoint>
          <Trackpoint>
            <Time>2022-07-07T09:59:46.000Z</Time>
            <Position>
              <LatitudeDegrees>43.6098739318549633026123046875</LatitudeDegrees>
              <LongitudeDegrees>-1.454587765038013458251953125</LongitudeDegrees>
            </Position>
            <AltitudeMeters>22</AltitudeMeters>
            <DistanceMeters>NAN</DistanceMeters>
          </Trackpoint>
          <Trackpoint>
            <Time>2022-07-07T09:59:49.000Z</Time>
            <Position>
              <LatitudeDegrees>43.609774522483348846435546875</LatitudeDegrees>
              <LongitudeDegrees>-1.4545151777565479278564453125</LongitudeDegrees>
            </Position>
            <AltitudeMeters>22.200000762939453125</AltitudeMeters>
            <DistanceMeters>NAN</DistanceMeters>
          </Trackpoint>
          <Trackpoint>
            <Time>2022-07-07T09:59:50.000Z</Time>
            <Position>
              <LatitudeDegrees>43.609750382602214813232421875</LatitudeDegrees>
              <LongitudeDegrees>-1.45449690520763397216796875</LongitudeDegrees>
            </Position>
            <AltitudeMeters>22.200000762939453125</AltitudeMeters>
            <DistanceMeters>NAN</DistanceMeters>
          </Trackpoint>
          <Trackpoint>
            <Time>2022-07-07T09:59:53.000Z</Time>
            <Position>
              <LatitudeDegrees>43.609658181667327880859375</LatitudeDegrees>
              <LongitudeDegrees>-1.4544206298887729644775390625</LongitudeDegrees>
            </Position>
            <AltitudeMeters>21.200000762939453125</AltitudeMeters>
            <DistanceMeters>NAN</DistanceMeters>
          </Trackpoint>
          <Trackpoint>
            <Time>2022-07-07T09:59:54.000Z</Time>
            <Position>
              <LatitudeDegrees>43.6096154339611530303955078125</LatitudeDegrees>
              <LongitudeDegrees>-1.45439900457859039306640625</LongitudeDegrees>
            </Position>
            <AltitudeMeters>21</AltitudeMeters>
            <DistanceMeters>NAN</DistanceMeters>
          </Trackpoint>
          <Trackpoint>
            <Time>2022-07-07T09:59:55.000Z</Time>
            <Position>
              <LatitudeDegrees>43.6095728538930416107177734375</LatitudeDegrees>
              <LongitudeDegrees>-1.4543753676116466522216796875</LongitudeDegrees>
            </Position>
            <AltitudeMeters>20.799999237060546875</AltitudeMeters>
            <DistanceMeters>NAN</DistanceMeters>
          </Trackpoint>
          <Trackpoint>
            <Time>2022-07-07T10:00:01.000Z</Time>
            <Position>
              <LatitudeDegrees>43.60926322638988494873046875</LatitudeDegrees>
              <LongitudeDegrees>-1.4543190412223339080810546875</LongitudeDegrees>
            </Position>
            <AltitudeMeters>20.799999237060546875</AltitudeMeters>
            <DistanceMeters>NAN</DistanceMeters>
          </Trackpoint>
          <Trackpoint>
            <Time>2022-07-07T10:00:03.000Z</Time>
            <Position>
              <LatitudeDegrees>43.609170354902744293212890625</LatitudeDegrees>
              <LongitudeDegrees>-1.454308815300464630126953125</LongitudeDegrees>
            </Position>
            <AltitudeMeters>20.6000003814697265625</AltitudeMeters>
            <DistanceMeters>NAN</DistanceMeters>
          </Trackpoint>
          <Trackpoint>
            <Time>2022-07-07T10:00:07.000Z</Time>
            <Position>
              <LatitudeDegrees>43.609019480645656585693359375</LatitudeDegrees>
              <LongitudeDegrees>-1.45429163239896297454833984375</LongitudeDegrees>
            </Position>
            <AltitudeMeters>20.799999237060546875</AltitudeMeters>
            <DistanceMeters>NAN</DistanceMeters>
          </Trackpoint>
          <Trackpoint>
            <Time>2022-07-07T10:00:15.000Z</Time>
            <Position>
              <LatitudeDegrees>43.608721755445003509521484375</LatitudeDegrees>
              <LongitudeDegrees>-1.4543237350881099700927734375</LongitudeDegrees>
            </Position>
            <AltitudeMeters>21</AltitudeMeters>
            <DistanceMeters>NAN</DistanceMeters>
          </Trackpoint>
          <Trackpoint>
            <Time>2022-07-07T10:00:23.000Z</Time>
            <Position>
              <LatitudeDegrees>43.60839947126805782318115234375</LatitudeDegrees>
              <LongitudeDegrees>-1.45443764515221118927001953125</LongitudeDegrees>
            </Position>
            <AltitudeMeters>21.3999996185302734375</AltitudeMeters>
            <DistanceMeters>NAN</DistanceMeters>
          </Trackpoint>
          <Trackpoint>
            <Time>2022-07-07T10:00:31.000Z</Time>
            <Position>
              <LatitudeDegrees>43.6080359481275081634521484375</LatitudeDegrees>
              <LongitudeDegrees>-1.454535461962223052978515625</LongitudeDegrees>
            </Position>
            <AltitudeMeters>21.6000003814697265625</AltitudeMeters>
            <DistanceMeters>NAN</DistanceMeters>
          </Trackpoint>
          <Trackpoint>
            <Time>2022-07-07T10:00:38.000Z</Time>
            <Position>
              <LatitudeDegrees>43.60776412300765514373779296875</LatitudeDegrees>
              <LongitudeDegrees>-1.45457762293517589569091796875</LongitudeDegrees>
            </Position>
            <AltitudeMeters>21.6000003814697265625</AltitudeMeters>
            <DistanceMeters>NAN</DistanceMeters>
          </Trackpoint>
          <Trackpoint>
            <Time>2022-07-07T10:00:43.000Z</Time>
            <Position>
              <LatitudeDegrees>43.60750964842736721038818359375</LatitudeDegrees>
              <LongitudeDegrees>-1.45462724380195140838623046875</LongitudeDegrees>
            </Position>
            <AltitudeMeters>21.6000003814697265625</AltitudeMeters>
            <DistanceMeters>NAN</DistanceMeters>
          </Trackpoint>
          <Trackpoint>
            <Time>2022-07-07T10:00:44.000Z</Time>
            <Position>
              <LatitudeDegrees>43.6074659787118434906005859375</LatitudeDegrees>
              <LongitudeDegrees>-1.45462372340261936187744140625</LongitudeDegrees>
            </Position>
            <AltitudeMeters>21.6000003814697265625</AltitudeMeters>
            <DistanceMeters>NAN</DistanceMeters>
          </Trackpoint>
          <Trackpoint>
            <Time>2022-07-07T10:00:47.000Z</Time>
            <Position>
              <LatitudeDegrees>43.60727177001535892486572265625</LatitudeDegrees>
              <LongitudeDegrees>-1.45463394932448863983154296875</LongitudeDegrees>
            </Position>
            <AltitudeMeters>21.799999237060546875</AltitudeMeters>
            <DistanceMeters>NAN</DistanceMeters>
          </Trackpoint>
          <Trackpoint>
            <Time>2022-07-07T10:00:49.000Z</Time>
            <Position>
              <LatitudeDegrees>43.60714067704975605010986328125</LatitudeDegrees>
              <LongitudeDegrees>-1.454635374248027801513671875</LongitudeDegrees>
            </Position>
            <AltitudeMeters>21.799999237060546875</AltitudeMeters>
            <DistanceMeters>NAN</DistanceMeters>
          </Trackpoint>
          <Trackpoint>
            <Time>2022-07-07T10:00:52.000Z</Time>
            <Position>
              <LatitudeDegrees>43.6069503240287303924560546875</LatitudeDegrees>
              <LongitudeDegrees>-1.4546553231775760650634765625</LongitudeDegrees>
            </Position>
            <AltitudeMeters>21.799999237060546875</AltitudeMeters>
            <DistanceMeters>NAN</DistanceMeters>
          </Trackpoint>
          <Trackpoint>
            <Time>2022-07-07T10:00:55.000Z</Time>
            <Position>
              <LatitudeDegrees>43.6067877151072025299072265625</LatitudeDegrees>
              <LongitudeDegrees>-1.45471877418458461761474609375</LongitudeDegrees>
            </Position>
            <AltitudeMeters>21.200000762939453125</AltitudeMeters>
            <DistanceMeters>NAN</DistanceMeters>
          </Trackpoint>
          <Trackpoint>
            <Time>2022-07-07T10:01:03.000Z</Time>
            <Position>
              <LatitudeDegrees>43.60640357248485088348388671875</LatitudeDegrees>
              <LongitudeDegrees>-1.4548943750560283660888671875</LongitudeDegrees>
            </Position>
            <AltitudeMeters>21</AltitudeMeters>
            <DistanceMeters>NAN</DistanceMeters>
          </Trackpoint>
          <Trackpoint>
            <Time>2022-07-07T10:01:05.000Z</Time>
            <Position>
              <LatitudeDegrees>43.6063371039927005767822265625</LatitudeDegrees>
              <LongitudeDegrees>-1.45494257099926471710205078125</LongitudeDegrees>
            </Position>
            <AltitudeMeters>21</AltitudeMeters>
            <DistanceMeters>NAN</DistanceMeters>
          </Trackpoint>
          <Trackpoint>
            <Time>2022-07-07T10:01:10.000Z</Time>
            <Position>
              <LatitudeDegrees>43.60613417811691761016845703125</LatitudeDegrees>
              <LongitudeDegrees>-1.4551280625164508819580078125</LongitudeDegrees>
            </Position>
            <AltitudeMeters>21.200000762939453125</AltitudeMeters>
            <DistanceMeters>NAN</DistanceMeters>
          </Trackpoint>
          <Trackpoint>
            <Time>2022-07-07T10:01:13.000Z</Time>
            <Position>
              <LatitudeDegrees>43.6060276441276073455810546875</LatitudeDegrees>
              <LongitudeDegrees>-1.4552231132984161376953125</LongitudeDegrees>
            </Position>
            <AltitudeMeters>21.3999996185302734375</AltitudeMeters>
            <DistanceMeters>NAN</DistanceMeters>
          </Trackpoint>
          <Trackpoint>
            <Time>2022-07-07T10:01:15.000Z</Time>
            <Position>
              <LatitudeDegrees>43.60597190447151660919189453125</LatitudeDegrees>
              <LongitudeDegrees>-1.45528941415250301361083984375</LongitudeDegrees>
            </Position>
            <AltitudeMeters>21.200000762939453125</AltitudeMeters>
            <DistanceMeters>NAN</DistanceMeters>
          </Trackpoint>
          <Trackpoint>
            <Time>2022-07-07T10:01:16.000Z</Time>
            <Position>
              <LatitudeDegrees>43.6059398017823696136474609375</LatitudeDegrees>
              <LongitudeDegrees>-1.45534071139991283416748046875</LongitudeDegrees>
            </Position>
            <AltitudeMeters>21</AltitudeMeters>
            <DistanceMeters>NAN</DistanceMeters>
          </Trackpoint>
          <Trackpoint>
            <Time>2022-07-07T10:01:17.000Z</Time>
            <Position>
              <LatitudeDegrees>43.60591205768287181854248046875</LatitudeDegrees>
              <LongitudeDegrees>-1.45538605749607086181640625</LongitudeDegrees>
            </Position>
            <AltitudeMeters>20.799999237060546875</AltitudeMeters>
            <DistanceMeters>NAN</DistanceMeters>
          </Trackpoint>
          <Trackpoint>
            <Time>2022-07-07T10:01:21.000Z</Time>
            <Position>
              <LatitudeDegrees>43.60578666441142559051513671875</LatitudeDegrees>
              <LongitudeDegrees>-1.45552963949739933013916015625</LongitudeDegrees>
            </Position>
            <AltitudeMeters>20.200000762939453125</AltitudeMeters>
            <DistanceMeters>NAN</DistanceMeters>
          </Trackpoint>
          <Trackpoint>
            <Time>2022-07-07T10:01:22.000Z</Time>
            <Position>
              <LatitudeDegrees>43.60576118342578411102294921875</LatitudeDegrees>
              <LongitudeDegrees>-1.455573476850986480712890625</LongitudeDegrees>
            </Position>
            <AltitudeMeters>20</AltitudeMeters>
            <DistanceMeters>NAN</DistanceMeters>
          </Trackpoint>
          <Trackpoint>
            <Time>2022-07-07T10:01:24.000Z</Time>
            <Position>
              <LatitudeDegrees>43.60569597221910953521728515625</LatitudeDegrees>
              <LongitudeDegrees>-1.4556520991027355194091796875</LongitudeDegrees>
            </Position>
            <AltitudeMeters>20</AltitudeMeters>
            <DistanceMeters>NAN</DistanceMeters>
          </Trackpoint>
          <Trackpoint>
            <Time>2022-07-07T10:01:26.000Z</Time>
            <Position>
              <LatitudeDegrees>43.6056165955960750579833984375</LatitudeDegrees>
              <LongitudeDegrees>-1.4557272009551525115966796875</LongitudeDegrees>
            </Position>
            <AltitudeMeters>20.3999996185302734375</AltitudeMeters>
            <DistanceMeters>NAN</DistanceMeters>
          </Trackpoint>
          <Trackpoint>
            <Time>2022-07-07T10:01:34.000Z</Time>
            <Position>
              <LatitudeDegrees>43.605315685272216796875</LatitudeDegrees>
              <LongitudeDegrees>-1.45604277960956096649169921875</LongitudeDegrees>
            </Position>
            <AltitudeMeters>20.3999996185302734375</AltitudeMeters>
            <DistanceMeters>NAN</DistanceMeters>
          </Trackpoint>
          <Trackpoint>
            <Time>2022-07-07T10:01:36.000Z</Time>
            <Position>
              <LatitudeDegrees>43.60523211769759654998779296875</LatitudeDegrees>
              <LongitudeDegrees>-1.45612961612641811370849609375</LongitudeDegrees>
            </Position>
            <AltitudeMeters>20.3999996185302734375</AltitudeMeters>
            <DistanceMeters>NAN</DistanceMeters>
          </Trackpoint>
          <Trackpoint>
            <Time>2022-07-07T10:01:40.000Z</Time>
            <Position>
              <LatitudeDegrees>43.60509415157139301300048828125</LatitudeDegrees>
              <LongitudeDegrees>-1.456256099045276641845703125</LongitudeDegrees>
            </Position>
            <AltitudeMeters>21</AltitudeMeters>
            <DistanceMeters>NAN</DistanceMeters>
          </Trackpoint>
          <Trackpoint>
            <Time>2022-07-07T10:01:42.000Z</Time>
            <Position>
              <LatitudeDegrees>43.60501586459577083587646484375</LatitudeDegrees>
              <LongitudeDegrees>-1.45632080733776092529296875</LongitudeDegrees>
            </Position>
            <AltitudeMeters>21</AltitudeMeters>
            <DistanceMeters>NAN</DistanceMeters>
          </Trackpoint>
          <Trackpoint>
            <Time>2022-07-07T10:01:46.000Z</Time>
            <Position>
              <LatitudeDegrees>43.604842610657215118408203125</LatitudeDegrees>
              <LongitudeDegrees>-1.45643823780119419097900390625</LongitudeDegrees>
            </Position>
            <AltitudeMeters>21</AltitudeMeters>
            <DistanceMeters>NAN</DistanceMeters>
          </Trackpoint>
          <Trackpoint>
            <Time>2022-07-07T10:01:52.000Z</Time>
            <Position>
              <LatitudeDegrees>43.60457413829863071441650390625</LatitudeDegrees>
              <LongitudeDegrees>-1.4565865136682987213134765625</LongitudeDegrees>
            </Position>
            <AltitudeMeters>21</AltitudeMeters>
            <DistanceMeters>NAN</DistanceMeters>
          </Trackpoint>
          <Trackpoint>
            <Time>2022-07-07T10:01:53.000Z</Time>
            <Position>
              <LatitudeDegrees>43.6045338213443756103515625</LatitudeDegrees>
              <LongitudeDegrees>-1.45660185255110263824462890625</LongitudeDegrees>
            </Position>
            <AltitudeMeters>21</AltitudeMeters>
            <DistanceMeters>NAN</DistanceMeters>
          </Trackpoint>
          <Trackpoint>
            <Time>2022-07-07T10:02:01.000Z</Time>
            <Position>
              <LatitudeDegrees>43.6041879840195178985595703125</LatitudeDegrees>
              <LongitudeDegrees>-1.456721462309360504150390625</LongitudeDegrees>
            </Position>
            <AltitudeMeters>21.200000762939453125</AltitudeMeters>
            <DistanceMeters>NAN</DistanceMeters>
          </Trackpoint>
          <Trackpoint>
            <Time>2022-07-07T10:02:06.000Z</Time>
            <Position>
              <LatitudeDegrees>43.60396292991936206817626953125</LatitudeDegrees>
              <LongitudeDegrees>-1.45677904598414897918701171875</LongitudeDegrees>
            </Position>
            <AltitudeMeters>21</AltitudeMeters>
            <DistanceMeters>NAN</DistanceMeters>
          </Trackpoint>
          <Trackpoint>
            <Time>2022-07-07T10:02:10.000Z</Time>
            <Position>
              <LatitudeDegrees>43.603777103126049041748046875</LatitudeDegrees>
              <LongitudeDegrees>-1.4568255655467510223388671875</LongitudeDegrees>
            </Position>
            <AltitudeMeters>20.6000003814697265625</AltitudeMeters>
            <DistanceMeters>NAN</DistanceMeters>
          </Trackpoint>
          <Trackpoint>
            <Time>2022-07-07T10:02:12.000Z</Time>
            <Position>
              <LatitudeDegrees>43.60369655303657054901123046875</LatitudeDegrees>
              <LongitudeDegrees>-1.45684576593339443206787109375</LongitudeDegrees>
            </Position>
            <AltitudeMeters>20.3999996185302734375</AltitudeMeters>
            <DistanceMeters>NAN</DistanceMeters>
          </Trackpoint>
          <Trackpoint>
            <Time>2022-07-07T10:02:15.000Z</Time>
            <Position>
              <LatitudeDegrees>43.6035680584609508514404296875</LatitudeDegrees>
              <LongitudeDegrees>-1.4568587578833103179931640625</LongitudeDegrees>
            </Position>
            <AltitudeMeters>20.200000762939453125</AltitudeMeters>
            <DistanceMeters>NAN</DistanceMeters>
          </Trackpoint>
          <Trackpoint>
            <Time>2022-07-07T10:02:16.000Z</Time>
            <Position>
              <LatitudeDegrees>43.603531010448932647705078125</LatitudeDegrees>
              <LongitudeDegrees>-1.45687225274741649627685546875</LongitudeDegrees>
            </Position>
            <AltitudeMeters>20.200000762939453125</AltitudeMeters>
            <DistanceMeters>NAN</DistanceMeters>
          </Trackpoint>
          <Trackpoint>
            <Time>2022-07-07T10:02:18.000Z</Time>
            <Position>
              <LatitudeDegrees>43.60345129854977130889892578125</LatitudeDegrees>
              <LongitudeDegrees>-1.4569103904068470001220703125</LongitudeDegrees>
            </Position>
            <AltitudeMeters>20.200000762939453125</AltitudeMeters>
            <DistanceMeters>NAN</DistanceMeters>
          </Trackpoint>
          <Trackpoint>
            <Time>2022-07-07T10:02:21.000Z</Time>
            <Position>
              <LatitudeDegrees>43.60332372598350048065185546875</LatitudeDegrees>
              <LongitudeDegrees>-1.45696512423455715179443359375</LongitudeDegrees>
            </Position>
            <AltitudeMeters>20</AltitudeMeters>
            <DistanceMeters>NAN</DistanceMeters>
          </Trackpoint>
          <Trackpoint>
            <Time>2022-07-07T10:02:22.000Z</Time>
            <Position>
              <LatitudeDegrees>43.6032783798873424530029296875</LatitudeDegrees>
              <LongitudeDegrees>-1.45698867738246917724609375</LongitudeDegrees>
            </Position>
            <AltitudeMeters>19.799999237060546875</AltitudeMeters>
            <DistanceMeters>NAN</DistanceMeters>
          </Trackpoint>
          <Trackpoint>
            <Time>2022-07-07T10:02:27.000Z</Time>
            <Position>
              <LatitudeDegrees>43.60306522808969020843505859375</LatitudeDegrees>
              <LongitudeDegrees>-1.45709060132503509521484375</LongitudeDegrees>
            </Position>
            <AltitudeMeters>19.799999237060546875</AltitudeMeters>
            <DistanceMeters>NAN</DistanceMeters>
          </Trackpoint>
          <Trackpoint>
            <Time>2022-07-07T10:02:28.000Z</Time>
            <Position>
              <LatitudeDegrees>43.6030356399714946746826171875</LatitudeDegrees>
              <LongitudeDegrees>-1.45710359327495098114013671875</LongitudeDegrees>
            </Position>
            <AltitudeMeters>19.799999237060546875</AltitudeMeters>
            <DistanceMeters>NAN</DistanceMeters>
          </Trackpoint>
          <Trackpoint>
            <Time>2022-07-07T10:02:29.000Z</Time>
            <Position>
              <LatitudeDegrees>43.6029970832169055938720703125</LatitudeDegrees>
              <LongitudeDegrees>-1.457121782004833221435546875</LongitudeDegrees>
            </Position>
            <AltitudeMeters>19.799999237060546875</AltitudeMeters>
            <DistanceMeters>NAN</DistanceMeters>
          </Trackpoint>
          <Trackpoint>
            <Time>2022-07-07T10:02:31.000Z</Time>
            <Position>
              <LatitudeDegrees>43.6029209755361080169677734375</LatitudeDegrees>
              <LongitudeDegrees>-1.45715639926493167877197265625</LongitudeDegrees>
            </Position>
            <AltitudeMeters>20</AltitudeMeters>
            <DistanceMeters>NAN</DistanceMeters>
          </Trackpoint>
          <Trackpoint>
            <Time>2022-07-07T10:02:38.000Z</Time>
            <Position>
              <LatitudeDegrees>43.60264479182660579681396484375</LatitudeDegrees>
              <LongitudeDegrees>-1.457330323755741119384765625</LongitudeDegrees>
            </Position>
            <AltitudeMeters>19.6000003814697265625</AltitudeMeters>
            <DistanceMeters>NAN</DistanceMeters>
          </Trackpoint>
          <Trackpoint>
            <Time>2022-07-07T10:02:43.000Z</Time>
            <Position>
              <LatitudeDegrees>43.60248888842761516571044921875</LatitudeDegrees>
              <LongitudeDegrees>-1.4574411325156688690185546875</LongitudeDegrees>
            </Position>
            <AltitudeMeters>19.6000003814697265625</AltitudeMeters>
            <DistanceMeters>NAN</DistanceMeters>
          </Trackpoint>
          <Trackpoint>
            <Time>2022-07-07T10:02:48.000Z</Time>
            <Position>
              <LatitudeDegrees>43.60229593701660633087158203125</LatitudeDegrees>
              <LongitudeDegrees>-1.45756225101649761199951171875</LongitudeDegrees>
            </Position>
            <AltitudeMeters>19.6000003814697265625</AltitudeMeters>
            <DistanceMeters>NAN</DistanceMeters>
          </Trackpoint>
          <Trackpoint>
            <Time>2022-07-07T10:02:54.000Z</Time>
            <Position>
              <LatitudeDegrees>43.60205076634883880615234375</LatitudeDegrees>
              <LongitudeDegrees>-1.4577375166118144989013671875</LongitudeDegrees>
            </Position>
            <AltitudeMeters>20</AltitudeMeters>
            <DistanceMeters>NAN</DistanceMeters>
          </Trackpoint>
          <Trackpoint>
            <Time>2022-07-07T10:03:00.000Z</Time>
            <Position>
              <LatitudeDegrees>43.60187399201095104217529296875</LatitudeDegrees>
              <LongitudeDegrees>-1.457937844097614288330078125</LongitudeDegrees>
            </Position>
            <AltitudeMeters>20.3999996185302734375</AltitudeMeters>
            <DistanceMeters>NAN</DistanceMeters>
          </Trackpoint>
          <Trackpoint>
            <Time>2022-07-07T10:03:06.000Z</Time>
            <Position>
              <LatitudeDegrees>43.60168439336121082305908203125</LatitudeDegrees>
              <LongitudeDegrees>-1.45812585018575191497802734375</LongitudeDegrees>
            </Position>
            <AltitudeMeters>20.6000003814697265625</AltitudeMeters>
            <DistanceMeters>NAN</DistanceMeters>
          </Trackpoint>
          <Trackpoint>
            <Time>2022-07-07T10:03:14.000Z</Time>
            <Position>
              <LatitudeDegrees>43.60141776502132415771484375</LatitudeDegrees>
              <LongitudeDegrees>-1.45841083489358425140380859375</LongitudeDegrees>
            </Position>
            <AltitudeMeters>20.799999237060546875</AltitudeMeters>
            <DistanceMeters>NAN</DistanceMeters>
          </Trackpoint>
          <Trackpoint>
            <Time>2022-07-07T10:03:24.000Z</Time>
            <Position>
              <LatitudeDegrees>43.6011138372123241424560546875</LatitudeDegrees>
              <LongitudeDegrees>-1.4587161876261234283447265625</LongitudeDegrees>
            </Position>
            <AltitudeMeters>20.799999237060546875</AltitudeMeters>
            <DistanceMeters>NAN</DistanceMeters>
          </Trackpoint>
          <Trackpoint>
            <Time>2022-07-07T10:03:25.000Z</Time>
            <Position>
              <LatitudeDegrees>43.60108382999897003173828125</LatitudeDegrees>
              <LongitudeDegrees>-1.4587373100221157073974609375</LongitudeDegrees>
            </Position>
            <AltitudeMeters>21</AltitudeMeters>
            <DistanceMeters>NAN</DistanceMeters>
          </Trackpoint>
          <Trackpoint>
            <Time>2022-07-07T10:03:30.000Z</Time>
            <Position>
              <LatitudeDegrees>43.6009190417826175689697265625</LatitudeDegrees>
              <LongitudeDegrees>-1.4588301815092563629150390625</LongitudeDegrees>
            </Position>
            <AltitudeMeters>21.200000762939453125</AltitudeMeters>
            <DistanceMeters>NAN</DistanceMeters>
          </Trackpoint>
          <Trackpoint>
            <Time>2022-07-07T10:03:31.000Z</Time>
            <Position>
              <LatitudeDegrees>43.60088576562702655792236328125</LatitudeDegrees>
              <LongitudeDegrees>-1.458851806819438934326171875</LongitudeDegrees>
            </Position>
            <AltitudeMeters>21.200000762939453125</AltitudeMeters>
            <DistanceMeters>NAN</DistanceMeters>
          </Trackpoint>
          <Trackpoint>
            <Time>2022-07-07T10:03:35.000Z</Time>
            <Position>
              <LatitudeDegrees>43.60075165517628192901611328125</LatitudeDegrees>
              <LongitudeDegrees>-1.45893688313663005828857421875</LongitudeDegrees>
            </Position>
            <AltitudeMeters>21.200000762939453125</AltitudeMeters>
            <DistanceMeters>NAN</DistanceMeters>
          </Trackpoint>
          <Trackpoint>
            <Time>2022-07-07T10:03:38.000Z</Time>
            <Position>
              <LatitudeDegrees>43.60063799656927585601806640625</LatitudeDegrees>
              <LongitudeDegrees>-1.4589971490204334259033203125</LongitudeDegrees>
            </Position>
            <AltitudeMeters>21</AltitudeMeters>
            <DistanceMeters>NAN</DistanceMeters>
          </Trackpoint>
          <Trackpoint>
            <Time>2022-07-07T10:03:44.000Z</Time>
            <Position>
              <LatitudeDegrees>43.60040766187012195587158203125</LatitudeDegrees>
              <LongitudeDegrees>-1.4591507054865360260009765625</LongitudeDegrees>
            </Position>
            <AltitudeMeters>20.799999237060546875</AltitudeMeters>
            <DistanceMeters>NAN</DistanceMeters>
          </Trackpoint>
          <Trackpoint>
            <Time>2022-07-07T10:03:52.000Z</Time>
            <Position>
              <LatitudeDegrees>43.60006752423942089080810546875</LatitudeDegrees>
              <LongitudeDegrees>-1.4593729935586452484130859375</LongitudeDegrees>
            </Position>
            <AltitudeMeters>20.6000003814697265625</AltitudeMeters>
            <DistanceMeters>NAN</DistanceMeters>
          </Trackpoint>
          <Trackpoint>
            <Time>2022-07-07T10:03:57.000Z</Time>
            <Position>
              <LatitudeDegrees>43.5998667776584625244140625</LatitudeDegrees>
              <LongitudeDegrees>-1.45951137878000736236572265625</LongitudeDegrees>
            </Position>
            <AltitudeMeters>20.6000003814697265625</AltitudeMeters>
            <DistanceMeters>NAN</DistanceMeters>
          </Trackpoint>
          <Trackpoint>
            <Time>2022-07-07T10:03:59.000Z</Time>
            <Position>
              <LatitudeDegrees>43.59978840686380863189697265625</LatitudeDegrees>
              <LongitudeDegrees>-1.45956770516932010650634765625</LongitudeDegrees>
            </Position>
            <AltitudeMeters>20.6000003814697265625</AltitudeMeters>
            <DistanceMeters>NAN</DistanceMeters>
          </Trackpoint>
          <Trackpoint>
            <Time>2022-07-07T10:04:04.000Z</Time>
            <Position>
              <LatitudeDegrees>43.59958849847316741943359375</LatitudeDegrees>
              <LongitudeDegrees>-1.45968404598534107208251953125</LongitudeDegrees>
            </Position>
            <AltitudeMeters>20.6000003814697265625</AltitudeMeters>
            <DistanceMeters>NAN</DistanceMeters>
          </Trackpoint>
          <Trackpoint>
            <Time>2022-07-07T10:04:08.000Z</Time>
            <Position>
              <LatitudeDegrees>43.5994320921599864959716796875</LatitudeDegrees>
              <LongitudeDegrees>-1.4597686193883419036865234375</LongitudeDegrees>
            </Position>
            <AltitudeMeters>20.6000003814697265625</AltitudeMeters>
            <DistanceMeters>NAN</DistanceMeters>
          </Trackpoint>
          <Trackpoint>
            <Time>2022-07-07T10:04:09.000Z</Time>
            <Position>
              <LatitudeDegrees>43.59939412213861942291259765625</LatitudeDegrees>
              <LongitudeDegrees>-1.4597810246050357818603515625</LongitudeDegrees>
            </Position>
            <AltitudeMeters>20.6000003814697265625</AltitudeMeters>
            <DistanceMeters>NAN</DistanceMeters>
          </Trackpoint>
          <Trackpoint>
            <Time>2022-07-07T10:04:15.000Z</Time>
            <Position>
              <LatitudeDegrees>43.59915657900273799896240234375</LatitudeDegrees>
              <LongitudeDegrees>-1.45987465046346187591552734375</LongitudeDegrees>
            </Position>
            <AltitudeMeters>20.3999996185302734375</AltitudeMeters>
            <DistanceMeters>NAN</DistanceMeters>
          </Trackpoint>
          <Trackpoint>
            <Time>2022-07-07T10:04:27.000Z</Time>
            <Position>
              <LatitudeDegrees>43.59868300147354602813720703125</LatitudeDegrees>
              <LongitudeDegrees>-1.4600492455065250396728515625</LongitudeDegrees>
            </Position>
            <AltitudeMeters>20.3999996185302734375</AltitudeMeters>
            <DistanceMeters>NAN</DistanceMeters>
          </Trackpoint>
          <Trackpoint>
            <Time>2022-07-07T10:04:35.000Z</Time>
            <Position>
              <LatitudeDegrees>43.59839868731796741485595703125</LatitudeDegrees>
              <LongitudeDegrees>-1.46015007980167865753173828125</LongitudeDegrees>
            </Position>
            <AltitudeMeters>20.200000762939453125</AltitudeMeters>
            <DistanceMeters>NAN</DistanceMeters>
          </Trackpoint>
          <Trackpoint>
            <Time>2022-07-07T10:04:38.000Z</Time>
            <Position>
              <LatitudeDegrees>43.59828821383416652679443359375</LatitudeDegrees>
              <LongitudeDegrees>-1.46016977727413177490234375</LongitudeDegrees>
            </Position>
            <AltitudeMeters>19.799999237060546875</AltitudeMeters>
            <DistanceMeters>NAN</DistanceMeters>
          </Trackpoint>
          <Trackpoint>
            <Time>2022-07-07T10:04:44.000Z</Time>
            <Position>
              <LatitudeDegrees>43.59803541563451290130615234375</LatitudeDegrees>
              <LongitudeDegrees>-1.46021042950451374053955078125</LongitudeDegrees>
            </Position>
            <AltitudeMeters>19.799999237060546875</AltitudeMeters>
            <DistanceMeters>NAN</DistanceMeters>
          </Trackpoint>
          <Trackpoint>
            <Time>2022-07-07T10:04:48.000Z</Time>
            <Position>
              <LatitudeDegrees>43.5978599824011325836181640625</LatitudeDegrees>
              <LongitudeDegrees>-1.460229456424713134765625</LongitudeDegrees>
            </Position>
            <AltitudeMeters>19.799999237060546875</AltitudeMeters>
            <DistanceMeters>NAN</DistanceMeters>
          </Trackpoint>
          <Trackpoint>
            <Time>2022-07-07T10:04:50.000Z</Time>
            <Position>
              <LatitudeDegrees>43.59776853583753108978271484375</LatitudeDegrees>
              <LongitudeDegrees>-1.46023943088948726654052734375</LongitudeDegrees>
            </Position>
            <AltitudeMeters>19.799999237060546875</AltitudeMeters>
            <DistanceMeters>NAN</DistanceMeters>
          </Trackpoint>
          <Trackpoint>
            <Time>2022-07-07T10:04:52.000Z</Time>
            <Position>
              <LatitudeDegrees>43.5976769216358661651611328125</LatitudeDegrees>
              <LongitudeDegrees>-1.460245884954929351806640625</LongitudeDegrees>
            </Position>
            <AltitudeMeters>19.6000003814697265625</AltitudeMeters>
            <DistanceMeters>NAN</DistanceMeters>
          </Trackpoint>
          <Trackpoint>
            <Time>2022-07-07T10:04:54.000Z</Time>
            <Position>
              <LatitudeDegrees>43.59758765436708927154541015625</LatitudeDegrees>
              <LongitudeDegrees>-1.46024898625910282135009765625</LongitudeDegrees>
            </Position>
            <AltitudeMeters>19.6000003814697265625</AltitudeMeters>
            <DistanceMeters>NAN</DistanceMeters>
          </Trackpoint>
          <Trackpoint>
            <Time>2022-07-07T10:04:56.000Z</Time>
            <Position>
              <LatitudeDegrees>43.5975002311170101165771484375</LatitudeDegrees>
              <LongitudeDegrees>-1.46023490466177463531494140625</LongitudeDegrees>
            </Position>
            <AltitudeMeters>19.3999996185302734375</AltitudeMeters>
            <DistanceMeters>NAN</DistanceMeters>
          </Trackpoint>
          <Trackpoint>
            <Time>2022-07-07T10:04:57.000Z</Time>
            <Position>
              <LatitudeDegrees>43.5974536277353763580322265625</LatitudeDegrees>
              <LongitudeDegrees>-1.46022484637796878814697265625</LongitudeDegrees>
            </Position>
            <AltitudeMeters>19.3999996185302734375</AltitudeMeters>
            <DistanceMeters>NAN</DistanceMeters>
          </Trackpoint>
          <Trackpoint>
            <Time>2022-07-07T10:04:58.000Z</Time>
            <Position>
              <LatitudeDegrees>43.59740207903087139129638671875</LatitudeDegrees>
              <LongitudeDegrees>-1.46021160297095775604248046875</LongitudeDegrees>
            </Position>
            <AltitudeMeters>19.3999996185302734375</AltitudeMeters>
            <DistanceMeters>NAN</DistanceMeters>
          </Trackpoint>
          <Trackpoint>
            <Time>2022-07-07T10:05:03.000Z</Time>
            <Position>
              <LatitudeDegrees>43.59716353006660938262939453125</LatitudeDegrees>
              <LongitudeDegrees>-1.46016835235059261322021484375</LongitudeDegrees>
            </Position>
            <AltitudeMeters>19.6000003814697265625</AltitudeMeters>
            <DistanceMeters>NAN</DistanceMeters>
          </Trackpoint>
          <Trackpoint>
            <Time>2022-07-07T10:05:10.000Z</Time>
            <Position>
              <LatitudeDegrees>43.5969235561788082122802734375</LatitudeDegrees>
              <LongitudeDegrees>-1.4601541869342327117919921875</LongitudeDegrees>
            </Position>
            <AltitudeMeters>19.6000003814697265625</AltitudeMeters>
            <DistanceMeters>NAN</DistanceMeters>
          </Trackpoint>
          <Trackpoint>
            <Time>2022-07-07T10:05:15.000Z</Time>
            <Position>
              <LatitudeDegrees>43.5966861806809902191162109375</LatitudeDegrees>
              <LongitudeDegrees>-1.46016248501837253570556640625</LongitudeDegrees>
            </Position>
            <AltitudeMeters>19.3999996185302734375</AltitudeMeters>
            <DistanceMeters>NAN</DistanceMeters>
          </Trackpoint>
          <Trackpoint>
            <Time>2022-07-07T10:05:18.000Z</Time>
            <Position>
              <LatitudeDegrees>43.5965591110289096832275390625</LatitudeDegrees>
              <LongitudeDegrees>-1.4601860381662845611572265625</LongitudeDegrees>
            </Position>
            <AltitudeMeters>19.3999996185302734375</AltitudeMeters>
            <DistanceMeters>NAN</DistanceMeters>
          </Trackpoint>
          <Trackpoint>
            <Time>2022-07-07T10:05:20.000Z</Time>
            <Position>
              <LatitudeDegrees>43.596480153501033782958984375</LatitudeDegrees>
              <LongitudeDegrees>-1.460199616849422454833984375</LongitudeDegrees>
            </Position>
            <AltitudeMeters>19.200000762939453125</AltitudeMeters>
            <DistanceMeters>NAN</DistanceMeters>
          </Trackpoint>
          <Trackpoint>
            <Time>2022-07-07T10:05:28.000Z</Time>
            <Position>
              <LatitudeDegrees>43.5961805842816829681396484375</LatitudeDegrees>
              <LongitudeDegrees>-1.4602353237569332122802734375</LongitudeDegrees>
            </Position>
            <AltitudeMeters>19</AltitudeMeters>
            <DistanceMeters>NAN</DistanceMeters>
          </Trackpoint>
          <Trackpoint>
            <Time>2022-07-07T10:05:31.000Z</Time>
            <Position>
              <LatitudeDegrees>43.59609466977417469024658203125</LatitudeDegrees>
              <LongitudeDegrees>-1.46022987551987171173095703125</LongitudeDegrees>
            </Position>
            <AltitudeMeters>18.799999237060546875</AltitudeMeters>
            <DistanceMeters>NAN</DistanceMeters>
          </Trackpoint>
          <Trackpoint>
            <Time>2022-07-07T10:05:33.000Z</Time>
            <Position>
              <LatitudeDegrees>43.59606181271374225616455078125</LatitudeDegrees>
              <LongitudeDegrees>-1.460223756730556488037109375</LongitudeDegrees>
            </Position>
            <AltitudeMeters>18.799999237060546875</AltitudeMeters>
            <DistanceMeters>NAN</DistanceMeters>
          </Trackpoint>
          <Trackpoint>
            <Time>2022-07-07T10:05:37.000Z</Time>
            <Position>
              <LatitudeDegrees>43.59604991041123867034912109375</LatitudeDegrees>
              <LongitudeDegrees>-1.46022073924541473388671875</LongitudeDegrees>
            </Position>
            <AltitudeMeters>19</AltitudeMeters>
            <DistanceMeters>NAN</DistanceMeters>
          </Trackpoint>
          <Trackpoint>
            <Time>2022-07-07T10:05:43.000Z</Time>
            <Position>
              <LatitudeDegrees>43.59595485962927341461181640625</LatitudeDegrees>
              <LongitudeDegrees>-1.460219733417034149169921875</LongitudeDegrees>
            </Position>
            <AltitudeMeters>19</AltitudeMeters>
            <DistanceMeters>NAN</DistanceMeters>
          </Trackpoint>
          <Trackpoint>
            <Time>2022-07-07T10:05:47.000Z</Time>
            <Position>
              <LatitudeDegrees>43.595867939293384552001953125</LatitudeDegrees>
              <LongitudeDegrees>-1.46016650833189487457275390625</LongitudeDegrees>
            </Position>
            <AltitudeMeters>19.200000762939453125</AltitudeMeters>
            <DistanceMeters>NAN</DistanceMeters>
          </Trackpoint>
          <Trackpoint>
            <Time>2022-07-07T10:05:48.000Z</Time>
            <Position>
              <LatitudeDegrees>43.59583483077585697174072265625</LatitudeDegrees>
              <LongitudeDegrees>-1.460176818072795867919921875</LongitudeDegrees>
            </Position>
            <AltitudeMeters>19.200000762939453125</AltitudeMeters>
            <DistanceMeters>NAN</DistanceMeters>
          </Trackpoint>
          <Trackpoint>
            <Time>2022-07-07T10:05:51.000Z</Time>
            <Position>
              <LatitudeDegrees>43.5957308113574981689453125</LatitudeDegrees>
              <LongitudeDegrees>-1.46028670482337474822998046875</LongitudeDegrees>
            </Position>
            <AltitudeMeters>19.3999996185302734375</AltitudeMeters>
            <DistanceMeters>NAN</DistanceMeters>
          </Trackpoint>
          <Trackpoint>
            <Time>2022-07-07T10:05:57.000Z</Time>
            <Position>
              <LatitudeDegrees>43.59554884023964405059814453125</LatitudeDegrees>
              <LongitudeDegrees>-1.46046121604740619659423828125</LongitudeDegrees>
            </Position>
            <AltitudeMeters>19.3999996185302734375</AltitudeMeters>
            <DistanceMeters>NAN</DistanceMeters>
          </Trackpoint>
          <Trackpoint>
            <Time>2022-07-07T10:06:05.000Z</Time>
            <Position>
              <LatitudeDegrees>43.5952501930296421051025390625</LatitudeDegrees>
              <LongitudeDegrees>-1.46049893461167812347412109375</LongitudeDegrees>
            </Position>
            <AltitudeMeters>19.200000762939453125</AltitudeMeters>
            <DistanceMeters>NAN</DistanceMeters>
          </Trackpoint>
          <Trackpoint>
            <Time>2022-07-07T10:06:08.000Z</Time>
            <Position>
              <LatitudeDegrees>43.59511968679726123809814453125</LatitudeDegrees>
              <LongitudeDegrees>-1.460507400333881378173828125</LongitudeDegrees>
            </Position>
            <AltitudeMeters>19.6000003814697265625</AltitudeMeters>
            <DistanceMeters>NAN</DistanceMeters>
          </Trackpoint>
          <Trackpoint>
            <Time>2022-07-07T10:06:09.000Z</Time>
            <Position>
              <LatitudeDegrees>43.5950817167758941650390625</LatitudeDegrees>
              <LongitudeDegrees>-1.4605152793228626251220703125</LongitudeDegrees>
            </Position>
            <AltitudeMeters>19.799999237060546875</AltitudeMeters>
            <DistanceMeters>NAN</DistanceMeters>
          </Trackpoint>
          <Trackpoint>
            <Time>2022-07-07T10:06:12.000Z</Time>
            <Position>
              <LatitudeDegrees>43.59498842619359493255615234375</LatitudeDegrees>
              <LongitudeDegrees>-1.46053816191852092742919921875</LongitudeDegrees>
            </Position>
            <AltitudeMeters>20</AltitudeMeters>
            <DistanceMeters>NAN</DistanceMeters>
          </Trackpoint>
          <Trackpoint>
            <Time>2022-07-07T10:06:15.000Z</Time>
            <Position>
              <LatitudeDegrees>43.5948706604540348052978515625</LatitudeDegrees>
              <LongitudeDegrees>-1.46055492572486400604248046875</LongitudeDegrees>
            </Position>
            <AltitudeMeters>19.799999237060546875</AltitudeMeters>
            <DistanceMeters>NAN</DistanceMeters>
          </Trackpoint>
          <Trackpoint>
            <Time>2022-07-07T10:06:19.000Z</Time>
            <Position>
              <LatitudeDegrees>43.594712577760219573974609375</LatitudeDegrees>
              <LongitudeDegrees>-1.4605766348540782928466796875</LongitudeDegrees>
            </Position>
            <AltitudeMeters>19.6000003814697265625</AltitudeMeters>
            <DistanceMeters>NAN</DistanceMeters>
          </Trackpoint>
          <Trackpoint>
            <Time>2022-07-07T10:06:24.000Z</Time>
            <Position>
              <LatitudeDegrees>43.59450638294219970703125</LatitudeDegrees>
              <LongitudeDegrees>-1.4606051333248615264892578125</LongitudeDegrees>
            </Position>
            <AltitudeMeters>20</AltitudeMeters>
            <DistanceMeters>NAN</DistanceMeters>
          </Trackpoint>
          <Trackpoint>
            <Time>2022-07-07T10:06:29.000Z</Time>
            <Position>
              <LatitudeDegrees>43.5942929796874523162841796875</LatitudeDegrees>
              <LongitudeDegrees>-1.4606198854744434356689453125</LongitudeDegrees>
            </Position>
            <AltitudeMeters>19.799999237060546875</AltitudeMeters>
            <DistanceMeters>NAN</DistanceMeters>
          </Trackpoint>
          <Trackpoint>
            <Time>2022-07-07T10:06:30.000Z</Time>
            <Position>
              <LatitudeDegrees>43.59425484202802181243896484375</LatitudeDegrees>
              <LongitudeDegrees>-1.46062298677861690521240234375</LongitudeDegrees>
            </Position>
            <AltitudeMeters>19.799999237060546875</AltitudeMeters>
            <DistanceMeters>NAN</DistanceMeters>
          </Trackpoint>
          <Trackpoint>
            <Time>2022-07-07T10:06:35.000Z</Time>
            <Position>
              <LatitudeDegrees>43.59404437243938446044921875</LatitudeDegrees>
              <LongitudeDegrees>-1.46061695180833339691162109375</LongitudeDegrees>
            </Position>
            <AltitudeMeters>19.799999237060546875</AltitudeMeters>
            <DistanceMeters>NAN</DistanceMeters>
          </Trackpoint>
          <Trackpoint>
            <Time>2022-07-07T10:06:37.000Z</Time>
            <Position>
              <LatitudeDegrees>43.59393934719264507293701171875</LatitudeDegrees>
              <LongitudeDegrees>-1.4606037922203540802001953125</LongitudeDegrees>
            </Position>
            <AltitudeMeters>20</AltitudeMeters>
            <DistanceMeters>NAN</DistanceMeters>
          </Trackpoint>
          <Trackpoint>
            <Time>2022-07-07T10:06:41.000Z</Time>
            <Position>
              <LatitudeDegrees>43.59375377185642719268798828125</LatitudeDegrees>
              <LongitudeDegrees>-1.46062516607344150543212890625</LongitudeDegrees>
            </Position>
            <AltitudeMeters>20</AltitudeMeters>
            <DistanceMeters>NAN</DistanceMeters>
          </Trackpoint>
          <Trackpoint>
            <Time>2022-07-07T10:06:44.000Z</Time>
            <Position>
              <LatitudeDegrees>43.59366458840668201446533203125</LatitudeDegrees>
              <LongitudeDegrees>-1.4605955779552459716796875</LongitudeDegrees>
            </Position>
            <AltitudeMeters>19.3999996185302734375</AltitudeMeters>
            <DistanceMeters>NAN</DistanceMeters>
          </Trackpoint>
          <Trackpoint>
            <Time>2022-07-07T10:06:49.000Z</Time>
            <Position>
              <LatitudeDegrees>43.593628965318202972412109375</LatitudeDegrees>
              <LongitudeDegrees>-1.46056381054222583770751953125</LongitudeDegrees>
            </Position>
            <AltitudeMeters>19</AltitudeMeters>
            <DistanceMeters>NAN</DistanceMeters>
          </Trackpoint>
          <Trackpoint>
            <Time>2022-07-07T10:15:54.000Z</Time>
            <Position>
              <LatitudeDegrees>43.59358437359333038330078125</LatitudeDegrees>
              <LongitudeDegrees>-1.4606145210564136505126953125</LongitudeDegrees>
            </Position>
            <AltitudeMeters>17.200000762939453125</AltitudeMeters>
            <DistanceMeters>NAN</DistanceMeters>
          </Trackpoint>
          <Trackpoint>
            <Time>2022-07-07T10:15:55.000Z</Time>
            <Position>
              <LatitudeDegrees>43.59356869943439960479736328125</LatitudeDegrees>
              <LongitudeDegrees>-1.460623405873775482177734375</LongitudeDegrees>
            </Position>
            <AltitudeMeters>17.200000762939453125</AltitudeMeters>
            <DistanceMeters>NAN</DistanceMeters>
          </Trackpoint>
          <Trackpoint>
            <Time>2022-07-07T10:15:57.000Z</Time>
            <Position>
              <LatitudeDegrees>43.59353316016495227813720703125</LatitudeDegrees>
              <LongitudeDegrees>-1.4606346376240253448486328125</LongitudeDegrees>
            </Position>
            <AltitudeMeters>17.200000762939453125</AltitudeMeters>
            <DistanceMeters>NAN</DistanceMeters>
          </Trackpoint>
          <Trackpoint>
            <Time>2022-07-07T10:16:04.000Z</Time>
            <Position>
              <LatitudeDegrees>43.593358732759952545166015625</LatitudeDegrees>
              <LongitudeDegrees>-1.46063782274723052978515625</LongitudeDegrees>
            </Position>
            <AltitudeMeters>17</AltitudeMeters>
            <DistanceMeters>NAN</DistanceMeters>
          </Trackpoint>
          <Trackpoint>
            <Time>2022-07-07T10:16:11.000Z</Time>
            <Position>
              <LatitudeDegrees>43.59313669614493846893310546875</LatitudeDegrees>
              <LongitudeDegrees>-1.4606344699859619140625</LongitudeDegrees>
            </Position>
            <AltitudeMeters>16.799999237060546875</AltitudeMeters>
            <DistanceMeters>NAN</DistanceMeters>
          </Trackpoint>
          <Trackpoint>
            <Time>2022-07-07T10:16:19.000Z</Time>
            <Position>
              <LatitudeDegrees>43.5928167589008808135986328125</LatitudeDegrees>
              <LongitudeDegrees>-1.46062030456960201263427734375</LongitudeDegrees>
            </Position>
            <AltitudeMeters>16.799999237060546875</AltitudeMeters>
            <DistanceMeters>NAN</DistanceMeters>
          </Trackpoint>
          <Trackpoint>
            <Time>2022-07-07T10:16:26.000Z</Time>
            <Position>
              <LatitudeDegrees>43.59249464236199855804443359375</LatitudeDegrees>
              <LongitudeDegrees>-1.46059088408946990966796875</LongitudeDegrees>
            </Position>
            <AltitudeMeters>16.3999996185302734375</AltitudeMeters>
            <DistanceMeters>NAN</DistanceMeters>
          </Trackpoint>
          <Trackpoint>
            <Time>2022-07-07T10:16:28.000Z</Time>
            <Position>
              <LatitudeDegrees>43.59240747056901454925537109375</LatitudeDegrees>
              <LongitudeDegrees>-1.46058828569948673248291015625</LongitudeDegrees>
            </Position>
            <AltitudeMeters>16.3999996185302734375</AltitudeMeters>
            <DistanceMeters>NAN</DistanceMeters>
          </Trackpoint>
          <Trackpoint>
            <Time>2022-07-07T10:16:31.000Z</Time>
            <Position>
              <LatitudeDegrees>43.59228811226785182952880859375</LatitudeDegrees>
              <LongitudeDegrees>-1.460573785006999969482421875</LongitudeDegrees>
            </Position>
            <AltitudeMeters>16.3999996185302734375</AltitudeMeters>
            <DistanceMeters>NAN</DistanceMeters>
          </Trackpoint>
          <Trackpoint>
            <Time>2022-07-07T10:16:35.000Z</Time>
            <Position>
              <LatitudeDegrees>43.5921435244381427764892578125</LatitudeDegrees>
              <LongitudeDegrees>-1.4605692587792873382568359375</LongitudeDegrees>
            </Position>
            <AltitudeMeters>16.200000762939453125</AltitudeMeters>
            <DistanceMeters>NAN</DistanceMeters>
          </Trackpoint>
          <Trackpoint>
            <Time>2022-07-07T10:16:36.000Z</Time>
            <Position>
              <LatitudeDegrees>43.592105805873870849609375</LatitudeDegrees>
              <LongitudeDegrees>-1.4605652354657649993896484375</LongitudeDegrees>
            </Position>
            <AltitudeMeters>16.200000762939453125</AltitudeMeters>
            <DistanceMeters>NAN</DistanceMeters>
          </Trackpoint>
          <Trackpoint>
            <Time>2022-07-07T10:16:40.000Z</Time>
            <Position>
              <LatitudeDegrees>43.5919483937323093414306640625</LatitudeDegrees>
              <LongitudeDegrees>-1.4605486392974853515625</LongitudeDegrees>
            </Position>
            <AltitudeMeters>16</AltitudeMeters>
            <DistanceMeters>NAN</DistanceMeters>
          </Trackpoint>
          <Trackpoint>
            <Time>2022-07-07T10:16:43.000Z</Time>
            <Position>
              <LatitudeDegrees>43.591832555830478668212890625</LatitudeDegrees>
              <LongitudeDegrees>-1.46053765900433063507080078125</LongitudeDegrees>
            </Position>
            <AltitudeMeters>15.6000003814697265625</AltitudeMeters>
            <DistanceMeters>NAN</DistanceMeters>
          </Trackpoint>
          <Trackpoint>
            <Time>2022-07-07T10:16:51.000Z</Time>
            <Position>
              <LatitudeDegrees>43.5914746485650539398193359375</LatitudeDegrees>
              <LongitudeDegrees>-1.46046993322670459747314453125</LongitudeDegrees>
            </Position>
            <AltitudeMeters>15</AltitudeMeters>
            <DistanceMeters>NAN</DistanceMeters>
          </Trackpoint>
          <Trackpoint>
            <Time>2022-07-07T10:16:57.000Z</Time>
            <Position>
              <LatitudeDegrees>43.5912381112575531005859375</LatitudeDegrees>
              <LongitudeDegrees>-1.46040136925876140594482421875</LongitudeDegrees>
            </Position>
            <AltitudeMeters>15</AltitudeMeters>
            <DistanceMeters>NAN</DistanceMeters>
          </Trackpoint>
          <Trackpoint>
            <Time>2022-07-07T10:16:58.000Z</Time>
            <Position>
              <LatitudeDegrees>43.5912047512829303741455078125</LatitudeDegrees>
              <LongitudeDegrees>-1.46038225851953029632568359375</LongitudeDegrees>
            </Position>
            <AltitudeMeters>15</AltitudeMeters>
            <DistanceMeters>NAN</DistanceMeters>
          </Trackpoint>
          <Trackpoint>
            <Time>2022-07-07T10:17:05.000Z</Time>
            <Position>
              <LatitudeDegrees>43.59091750346124172210693359375</LatitudeDegrees>
              <LongitudeDegrees>-1.4602916501462459564208984375</LongitudeDegrees>
            </Position>
            <AltitudeMeters>15.3999996185302734375</AltitudeMeters>
            <DistanceMeters>NAN</DistanceMeters>
          </Trackpoint>
          <Trackpoint>
            <Time>2022-07-07T10:17:12.000Z</Time>
            <Position>
              <LatitudeDegrees>43.59061692841351032257080078125</LatitudeDegrees>
              <LongitudeDegrees>-1.46017790772020816802978515625</LongitudeDegrees>
            </Position>
            <AltitudeMeters>15.19999980926513671875</AltitudeMeters>
            <DistanceMeters>NAN</DistanceMeters>
          </Trackpoint>
          <Trackpoint>
            <Time>2022-07-07T10:17:16.000Z</Time>
            <Position>
              <LatitudeDegrees>43.5904168523848056793212890625</LatitudeDegrees>
              <LongitudeDegrees>-1.46011034958064556121826171875</LongitudeDegrees>
            </Position>
            <AltitudeMeters>15.3999996185302734375</AltitudeMeters>
            <DistanceMeters>NAN</DistanceMeters>
          </Trackpoint>
          <Trackpoint>
            <Time>2022-07-07T10:17:18.000Z</Time>
            <Position>
              <LatitudeDegrees>43.59035423956811428070068359375</LatitudeDegrees>
              <LongitudeDegrees>-1.4600698649883270263671875</LongitudeDegrees>
            </Position>
            <AltitudeMeters>15.3999996185302734375</AltitudeMeters>
            <DistanceMeters>NAN</DistanceMeters>
          </Trackpoint>
          <Trackpoint>
            <Time>2022-07-07T10:17:23.000Z</Time>
            <Position>
              <LatitudeDegrees>43.5901974141597747802734375</LatitudeDegrees>
              <LongitudeDegrees>-1.4599778316915035247802734375</LongitudeDegrees>
            </Position>
            <AltitudeMeters>15.6000003814697265625</AltitudeMeters>
            <DistanceMeters>NAN</DistanceMeters>
          </Trackpoint>
          <Trackpoint>
            <Time>2022-07-07T10:17:29.000Z</Time>
            <Position>
              <LatitudeDegrees>43.58997068367898464202880859375</LatitudeDegrees>
              <LongitudeDegrees>-1.45986610092222690582275390625</LongitudeDegrees>
            </Position>
            <AltitudeMeters>15.80000019073486328125</AltitudeMeters>
            <DistanceMeters>NAN</DistanceMeters>
          </Trackpoint>
          <Trackpoint>
            <Time>2022-07-07T10:17:35.000Z</Time>
            <Position>
              <LatitudeDegrees>43.589777983725070953369140625</LatitudeDegrees>
              <LongitudeDegrees>-1.4597776718437671661376953125</LongitudeDegrees>
            </Position>
            <AltitudeMeters>16</AltitudeMeters>
            <DistanceMeters>NAN</DistanceMeters>
          </Trackpoint>
          <Trackpoint>
            <Time>2022-07-07T10:17:39.000Z</Time>
            <Position>
              <LatitudeDegrees>43.5896252654492855072021484375</LatitudeDegrees>
              <LongitudeDegrees>-1.459663845598697662353515625</LongitudeDegrees>
            </Position>
            <AltitudeMeters>16</AltitudeMeters>
            <DistanceMeters>NAN</DistanceMeters>
          </Trackpoint>
          <Trackpoint>
            <Time>2022-07-07T10:17:45.000Z</Time>
            <Position>
              <LatitudeDegrees>43.58937825076282024383544921875</LatitudeDegrees>
              <LongitudeDegrees>-1.459548175334930419921875</LongitudeDegrees>
            </Position>
            <AltitudeMeters>15.80000019073486328125</AltitudeMeters>
            <DistanceMeters>NAN</DistanceMeters>
          </Trackpoint>
          <Trackpoint>
            <Time>2022-07-07T10:17:52.000Z</Time>
            <Position>
              <LatitudeDegrees>43.58908723108470439910888671875</LatitudeDegrees>
              <LongitudeDegrees>-1.45941146649420261383056640625</LongitudeDegrees>
            </Position>
            <AltitudeMeters>16</AltitudeMeters>
            <DistanceMeters>NAN</DistanceMeters>
          </Trackpoint>
          <Trackpoint>
            <Time>2022-07-07T10:17:55.000Z</Time>
            <Position>
              <LatitudeDegrees>43.5890368558466434478759765625</LatitudeDegrees>
              <LongitudeDegrees>-1.45934793166816234588623046875</LongitudeDegrees>
            </Position>
            <AltitudeMeters>16.200000762939453125</AltitudeMeters>
            <DistanceMeters>NAN</DistanceMeters>
          </Trackpoint>
          <Trackpoint>
            <Time>2022-07-07T10:17:58.000Z</Time>
            <Position>
              <LatitudeDegrees>43.588957227766513824462890625</LatitudeDegrees>
              <LongitudeDegrees>-1.4593196846544742584228515625</LongitudeDegrees>
            </Position>
            <AltitudeMeters>16.200000762939453125</AltitudeMeters>
            <DistanceMeters>NAN</DistanceMeters>
          </Trackpoint>
          <Trackpoint>
            <Time>2022-07-07T10:18:06.000Z</Time>
            <Position>
              <LatitudeDegrees>43.58872412703931331634521484375</LatitudeDegrees>
              <LongitudeDegrees>-1.459142155945301055908203125</LongitudeDegrees>
            </Position>
            <AltitudeMeters>16.200000762939453125</AltitudeMeters>
            <DistanceMeters>NAN</DistanceMeters>
          </Trackpoint>
          <Trackpoint>
            <Time>2022-07-07T10:18:11.000Z</Time>
            <Position>
              <LatitudeDegrees>43.58855850063264369964599609375</LatitudeDegrees>
              <LongitudeDegrees>-1.4590015076100826263427734375</LongitudeDegrees>
            </Position>
            <AltitudeMeters>16.200000762939453125</AltitudeMeters>
            <DistanceMeters>NAN</DistanceMeters>
          </Trackpoint>
          <Trackpoint>
            <Time>2022-07-07T10:18:18.000Z</Time>
            <Position>
              <LatitudeDegrees>43.58832213096320629119873046875</LatitudeDegrees>
              <LongitudeDegrees>-1.4588660560548305511474609375</LongitudeDegrees>
            </Position>
            <AltitudeMeters>16.200000762939453125</AltitudeMeters>
            <DistanceMeters>NAN</DistanceMeters>
          </Trackpoint>
          <Trackpoint>
            <Time>2022-07-07T10:18:23.000Z</Time>
            <Position>
              <LatitudeDegrees>43.58807687647640705108642578125</LatitudeDegrees>
              <LongitudeDegrees>-1.45865307189524173736572265625</LongitudeDegrees>
            </Position>
            <AltitudeMeters>16.6000003814697265625</AltitudeMeters>
            <DistanceMeters>NAN</DistanceMeters>
          </Trackpoint>
          <Trackpoint>
            <Time>2022-07-07T10:18:28.000Z</Time>
            <Position>
              <LatitudeDegrees>43.58790689148008823394775390625</LatitudeDegrees>
              <LongitudeDegrees>-1.458475627005100250244140625</LongitudeDegrees>
            </Position>
            <AltitudeMeters>16.799999237060546875</AltitudeMeters>
            <DistanceMeters>NAN</DistanceMeters>
          </Trackpoint>
          <Trackpoint>
            <Time>2022-07-07T10:18:35.000Z</Time>
            <Position>
              <LatitudeDegrees>43.58762207441031932830810546875</LatitudeDegrees>
              <LongitudeDegrees>-1.45820774137973785400390625</LongitudeDegrees>
            </Position>
            <AltitudeMeters>16.200000762939453125</AltitudeMeters>
            <DistanceMeters>NAN</DistanceMeters>
          </Trackpoint>
          <Trackpoint>
            <Time>2022-07-07T10:18:39.000Z</Time>
            <Position>
              <LatitudeDegrees>43.58745686709880828857421875</LatitudeDegrees>
              <LongitudeDegrees>-1.458061225712299346923828125</LongitudeDegrees>
            </Position>
            <AltitudeMeters>16</AltitudeMeters>
            <DistanceMeters>NAN</DistanceMeters>
          </Trackpoint>
          <Trackpoint>
            <Time>2022-07-07T10:18:42.000Z</Time>
            <Position>
              <LatitudeDegrees>43.5873772390186786651611328125</LatitudeDegrees>
              <LongitudeDegrees>-1.45791110582649707794189453125</LongitudeDegrees>
            </Position>
            <AltitudeMeters>16</AltitudeMeters>
            <DistanceMeters>NAN</DistanceMeters>
          </Trackpoint>
          <Trackpoint>
            <Time>2022-07-07T10:18:49.000Z</Time>
            <Position>
              <LatitudeDegrees>43.5871874727308750152587890625</LatitudeDegrees>
              <LongitudeDegrees>-1.45773927681148052215576171875</LongitudeDegrees>
            </Position>
            <AltitudeMeters>16.6000003814697265625</AltitudeMeters>
            <DistanceMeters>NAN</DistanceMeters>
          </Trackpoint>
          <Trackpoint>
            <Time>2022-07-07T10:18:53.000Z</Time>
            <Position>
              <LatitudeDegrees>43.58707808889448642730712890625</LatitudeDegrees>
              <LongitudeDegrees>-1.45762075670063495635986328125</LongitudeDegrees>
            </Position>
            <AltitudeMeters>16.200000762939453125</AltitudeMeters>
            <DistanceMeters>NAN</DistanceMeters>
          </Trackpoint>
          <Trackpoint>
            <Time>2022-07-07T10:19:00.000Z</Time>
            <Position>
              <LatitudeDegrees>43.58678187243640422821044921875</LatitudeDegrees>
              <LongitudeDegrees>-1.45737382583320140838623046875</LongitudeDegrees>
            </Position>
            <AltitudeMeters>16.3999996185302734375</AltitudeMeters>
            <DistanceMeters>NAN</DistanceMeters>
          </Trackpoint>
          <Trackpoint>
            <Time>2022-07-07T10:19:04.000Z</Time>
            <Position>
              <LatitudeDegrees>43.586670644581317901611328125</LatitudeDegrees>
              <LongitudeDegrees>-1.45725421607494354248046875</LongitudeDegrees>
            </Position>
            <AltitudeMeters>16.6000003814697265625</AltitudeMeters>
            <DistanceMeters>NAN</DistanceMeters>
          </Trackpoint>
          <Trackpoint>
            <Time>2022-07-07T10:19:06.000Z</Time>
            <Position>
              <LatitudeDegrees>43.58661993406713008880615234375</LatitudeDegrees>
              <LongitudeDegrees>-1.457171738147735595703125</LongitudeDegrees>
            </Position>
            <AltitudeMeters>16.6000003814697265625</AltitudeMeters>
            <DistanceMeters>NAN</DistanceMeters>
          </Trackpoint>
          <Trackpoint>
            <Time>2022-07-07T10:19:07.000Z</Time>
            <Position>
              <LatitudeDegrees>43.58660367317497730255126953125</LatitudeDegrees>
              <LongitudeDegrees>-1.4571444131433963775634765625</LongitudeDegrees>
            </Position>
            <AltitudeMeters>16.799999237060546875</AltitudeMeters>
            <DistanceMeters>NAN</DistanceMeters>
          </Trackpoint>
          <Trackpoint>
            <Time>2022-07-07T10:19:10.000Z</Time>
            <Position>
              <LatitudeDegrees>43.586521446704864501953125</LatitudeDegrees>
              <LongitudeDegrees>-1.4570357836782932281494140625</LongitudeDegrees>
            </Position>
            <AltitudeMeters>17</AltitudeMeters>
            <DistanceMeters>NAN</DistanceMeters>
          </Trackpoint>
          <Trackpoint>
            <Time>2022-07-07T10:19:13.000Z</Time>
            <Position>
              <LatitudeDegrees>43.58643938787281513214111328125</LatitudeDegrees>
              <LongitudeDegrees>-1.4569221250712871551513671875</LongitudeDegrees>
            </Position>
            <AltitudeMeters>17.200000762939453125</AltitudeMeters>
            <DistanceMeters>NAN</DistanceMeters>
          </Trackpoint>
          <Trackpoint>
            <Time>2022-07-07T10:19:14.000Z</Time>
            <Position>
              <LatitudeDegrees>43.58641474507749080657958984375</LatitudeDegrees>
              <LongitudeDegrees>-1.45689002238214015960693359375</LongitudeDegrees>
            </Position>
            <AltitudeMeters>17.200000762939453125</AltitudeMeters>
            <DistanceMeters>NAN</DistanceMeters>
          </Trackpoint>
          <Trackpoint>
            <Time>2022-07-07T10:19:15.000Z</Time>
            <Position>
              <LatitudeDegrees>43.58638725243508815765380859375</LatitudeDegrees>
              <LongitudeDegrees>-1.45686102099716663360595703125</LongitudeDegrees>
            </Position>
            <AltitudeMeters>17.200000762939453125</AltitudeMeters>
            <DistanceMeters>NAN</DistanceMeters>
          </Trackpoint>
          <Trackpoint>
            <Time>2022-07-07T10:19:19.000Z</Time>
            <Position>
              <LatitudeDegrees>43.5862577520310878753662109375</LatitudeDegrees>
              <LongitudeDegrees>-1.4567095600068569183349609375</LongitudeDegrees>
            </Position>
            <AltitudeMeters>17</AltitudeMeters>
            <DistanceMeters>NAN</DistanceMeters>
          </Trackpoint>
          <Trackpoint>
            <Time>2022-07-07T10:19:21.000Z</Time>
            <Position>
              <LatitudeDegrees>43.58618072234094142913818359375</LatitudeDegrees>
              <LongitudeDegrees>-1.45663538016378879547119140625</LongitudeDegrees>
            </Position>
            <AltitudeMeters>17</AltitudeMeters>
            <DistanceMeters>NAN</DistanceMeters>
          </Trackpoint>
          <Trackpoint>
            <Time>2022-07-07T10:19:23.000Z</Time>
            <Position>
              <LatitudeDegrees>43.5861363820731639862060546875</LatitudeDegrees>
              <LongitudeDegrees>-1.456547118723392486572265625</LongitudeDegrees>
            </Position>
            <AltitudeMeters>16.799999237060546875</AltitudeMeters>
            <DistanceMeters>NAN</DistanceMeters>
          </Trackpoint>
          <Trackpoint>
            <Time>2022-07-07T10:19:26.000Z</Time>
            <Position>
              <LatitudeDegrees>43.586012832820415496826171875</LatitudeDegrees>
              <LongitudeDegrees>-1.45640395581722259521484375</LongitudeDegrees>
            </Position>
            <AltitudeMeters>16.799999237060546875</AltitudeMeters>
            <DistanceMeters>NAN</DistanceMeters>
          </Trackpoint>
          <Trackpoint>
            <Time>2022-07-07T10:19:32.000Z</Time>
            <Position>
              <LatitudeDegrees>43.58586489222943782806396484375</LatitudeDegrees>
              <LongitudeDegrees>-1.45616716705262660980224609375</LongitudeDegrees>
            </Position>
            <AltitudeMeters>17</AltitudeMeters>
            <DistanceMeters>NAN</DistanceMeters>
          </Trackpoint>
          <Trackpoint>
            <Time>2022-07-07T10:19:36.000Z</Time>
            <Position>
              <LatitudeDegrees>43.58570831827819347381591796875</LatitudeDegrees>
              <LongitudeDegrees>-1.4559875428676605224609375</LongitudeDegrees>
            </Position>
            <AltitudeMeters>17</AltitudeMeters>
            <DistanceMeters>NAN</DistanceMeters>
          </Trackpoint>
          <Trackpoint>
            <Time>2022-07-07T10:19:38.000Z</Time>
            <Position>
              <LatitudeDegrees>43.5856019519269466400146484375</LatitudeDegrees>
              <LongitudeDegrees>-1.4558784104883670806884765625</LongitudeDegrees>
            </Position>
            <AltitudeMeters>16.799999237060546875</AltitudeMeters>
            <DistanceMeters>NAN</DistanceMeters>
          </Trackpoint>
          <Trackpoint>
            <Time>2022-07-07T10:19:40.000Z</Time>
            <Position>
              <LatitudeDegrees>43.5855352319777011871337890625</LatitudeDegrees>
              <LongitudeDegrees>-1.45580272190272808074951171875</LongitudeDegrees>
            </Position>
            <AltitudeMeters>16.6000003814697265625</AltitudeMeters>
            <DistanceMeters>NAN</DistanceMeters>
          </Trackpoint>
          <Trackpoint>
            <Time>2022-07-07T10:19:42.000Z</Time>
            <Position>
              <LatitudeDegrees>43.58547815121710300445556640625</LatitudeDegrees>
              <LongitudeDegrees>-1.455690152943134307861328125</LongitudeDegrees>
            </Position>
            <AltitudeMeters>16.3999996185302734375</AltitudeMeters>
            <DistanceMeters>NAN</DistanceMeters>
          </Trackpoint>
          <Trackpoint>
            <Time>2022-07-07T10:19:43.000Z</Time>
            <Position>
              <LatitudeDegrees>43.58547479845583438873291015625</LatitudeDegrees>
              <LongitudeDegrees>-1.4556634984910488128662109375</LongitudeDegrees>
            </Position>
            <AltitudeMeters>16.3999996185302734375</AltitudeMeters>
            <DistanceMeters>NAN</DistanceMeters>
          </Trackpoint>
          <Trackpoint>
            <Time>2022-07-07T10:19:45.000Z</Time>
            <Position>
              <LatitudeDegrees>43.585446216166019439697265625</LatitudeDegrees>
              <LongitudeDegrees>-1.45568252541124820709228515625</LongitudeDegrees>
            </Position>
            <AltitudeMeters>16.6000003814697265625</AltitudeMeters>
            <DistanceMeters>NAN</DistanceMeters>
          </Trackpoint>
          <Trackpoint>
            <Time>2022-07-07T10:19:50.000Z</Time>
            <Position>
              <LatitudeDegrees>43.58535292558372020721435546875</LatitudeDegrees>
              <LongitudeDegrees>-1.45581043325364589691162109375</LongitudeDegrees>
            </Position>
            <AltitudeMeters>16.6000003814697265625</AltitudeMeters>
            <DistanceMeters>NAN</DistanceMeters>
          </Trackpoint>
          <Trackpoint>
            <Time>2022-07-07T10:19:56.000Z</Time>
            <Position>
              <LatitudeDegrees>43.58524614013731479644775390625</LatitudeDegrees>
              <LongitudeDegrees>-1.45602869801223278045654296875</LongitudeDegrees>
            </Position>
            <AltitudeMeters>16.799999237060546875</AltitudeMeters>
            <DistanceMeters>NAN</DistanceMeters>
          </Trackpoint>
          <Trackpoint>
            <Time>2022-07-07T10:20:01.000Z</Time>
            <Position>
              <LatitudeDegrees>43.585151843726634979248046875</LatitudeDegrees>
              <LongitudeDegrees>-1.4561573602259159088134765625</LongitudeDegrees>
            </Position>
            <AltitudeMeters>16.799999237060546875</AltitudeMeters>
            <DistanceMeters>NAN</DistanceMeters>
          </Trackpoint>
          <Trackpoint>
            <Time>2022-07-07T10:20:08.000Z</Time>
            <Position>
              <LatitudeDegrees>43.58493701554834842681884765625</LatitudeDegrees>
              <LongitudeDegrees>-1.45621351897716522216796875</LongitudeDegrees>
            </Position>
            <AltitudeMeters>17</AltitudeMeters>
            <DistanceMeters>NAN</DistanceMeters>
          </Trackpoint>
          <Trackpoint>
            <Time>2022-07-07T10:20:12.000Z</Time>
            <Position>
              <LatitudeDegrees>43.58479552902281284332275390625</LatitudeDegrees>
              <LongitudeDegrees>-1.45620237104594707489013671875</LongitudeDegrees>
            </Position>
            <AltitudeMeters>17.200000762939453125</AltitudeMeters>
            <DistanceMeters>NAN</DistanceMeters>
          </Trackpoint>
          <Trackpoint>
            <Time>2022-07-07T10:20:20.000Z</Time>
            <Position>
              <LatitudeDegrees>43.584492690861225128173828125</LatitudeDegrees>
              <LongitudeDegrees>-1.45622533746063709259033203125</LongitudeDegrees>
            </Position>
            <AltitudeMeters>17.6000003814697265625</AltitudeMeters>
            <DistanceMeters>NAN</DistanceMeters>
          </Trackpoint>
          <Trackpoint>
            <Time>2022-07-07T10:20:25.000Z</Time>
            <Position>
              <LatitudeDegrees>43.5842380486428737640380859375</LatitudeDegrees>
              <LongitudeDegrees>-1.45626724697649478912353515625</LongitudeDegrees>
            </Position>
            <AltitudeMeters>17.3999996185302734375</AltitudeMeters>
            <DistanceMeters>NAN</DistanceMeters>
          </Trackpoint>
          <Trackpoint>
            <Time>2022-07-07T10:20:29.000Z</Time>
            <Position>
              <LatitudeDegrees>43.5840739309787750244140625</LatitudeDegrees>
              <LongitudeDegrees>-1.45629591308534145355224609375</LongitudeDegrees>
            </Position>
            <AltitudeMeters>17.3999996185302734375</AltitudeMeters>
            <DistanceMeters>NAN</DistanceMeters>
          </Trackpoint>
          <Trackpoint>
            <Time>2022-07-07T10:20:30.000Z</Time>
            <Position>
              <LatitudeDegrees>43.58401215635240077972412109375</LatitudeDegrees>
              <LongitudeDegrees>-1.45628736354410648345947265625</LongitudeDegrees>
            </Position>
            <AltitudeMeters>17.3999996185302734375</AltitudeMeters>
            <DistanceMeters>NAN</DistanceMeters>
          </Trackpoint>
          <Trackpoint>
            <Time>2022-07-07T10:20:33.000Z</Time>
            <Position>
              <LatitudeDegrees>43.58389983884990215301513671875</LatitudeDegrees>
              <LongitudeDegrees>-1.45635165274143218994140625</LongitudeDegrees>
            </Position>
            <AltitudeMeters>17.3999996185302734375</AltitudeMeters>
            <DistanceMeters>NAN</DistanceMeters>
          </Trackpoint>
          <Trackpoint>
            <Time>2022-07-07T10:20:34.000Z</Time>
            <Position>
              <LatitudeDegrees>43.5838548280298709869384765625</LatitudeDegrees>
              <LongitudeDegrees>-1.45636967383325099945068359375</LongitudeDegrees>
            </Position>
            <AltitudeMeters>17.3999996185302734375</AltitudeMeters>
            <DistanceMeters>NAN</DistanceMeters>
          </Trackpoint>
          <Trackpoint>
            <Time>2022-07-07T10:20:41.000Z</Time>
            <Position>
              <LatitudeDegrees>43.583494238555431365966796875</LatitudeDegrees>
              <LongitudeDegrees>-1.4563679136335849761962890625</LongitudeDegrees>
            </Position>
            <AltitudeMeters>17.3999996185302734375</AltitudeMeters>
            <DistanceMeters>NAN</DistanceMeters>
          </Trackpoint>
          <Trackpoint>
            <Time>2022-07-07T10:20:45.000Z</Time>
            <Position>
              <LatitudeDegrees>43.58329701237380504608154296875</LatitudeDegrees>
              <LongitudeDegrees>-1.456400938332080841064453125</LongitudeDegrees>
            </Position>
            <AltitudeMeters>17.6000003814697265625</AltitudeMeters>
            <DistanceMeters>NAN</DistanceMeters>
          </Trackpoint>
          <Trackpoint>
            <Time>2022-07-07T10:20:47.000Z</Time>
            <Position>
              <LatitudeDegrees>43.58320179395377635955810546875</LatitudeDegrees>
              <LongitudeDegrees>-1.4564185403287410736083984375</LongitudeDegrees>
            </Position>
            <AltitudeMeters>17.6000003814697265625</AltitudeMeters>
            <DistanceMeters>NAN</DistanceMeters>
          </Trackpoint>
          <Trackpoint>
            <Time>2022-07-07T10:20:53.000Z</Time>
            <Position>
              <LatitudeDegrees>43.5829983651638031005859375</LatitudeDegrees>
              <LongitudeDegrees>-1.4564544148743152618408203125</LongitudeDegrees>
            </Position>
            <AltitudeMeters>17.799999237060546875</AltitudeMeters>
            <DistanceMeters>NAN</DistanceMeters>
          </Trackpoint>
          <Trackpoint>
            <Time>2022-07-07T10:20:59.000Z</Time>
            <Position>
              <LatitudeDegrees>43.58277062885463237762451171875</LatitudeDegrees>
              <LongitudeDegrees>-1.4564730226993560791015625</LongitudeDegrees>
            </Position>
            <AltitudeMeters>17.799999237060546875</AltitudeMeters>
            <DistanceMeters>NAN</DistanceMeters>
          </Trackpoint>
          <Trackpoint>
            <Time>2022-07-07T10:21:04.000Z</Time>
            <Position>
              <LatitudeDegrees>43.5824949480593204498291015625</LatitudeDegrees>
              <LongitudeDegrees>-1.4565147645771503448486328125</LongitudeDegrees>
            </Position>
            <AltitudeMeters>18</AltitudeMeters>
            <DistanceMeters>NAN</DistanceMeters>
          </Trackpoint>
          <Trackpoint>
            <Time>2022-07-07T10:21:07.000Z</Time>
            <Position>
              <LatitudeDegrees>43.5823638550937175750732421875</LatitudeDegrees>
              <LongitudeDegrees>-1.45652758888900279998779296875</LongitudeDegrees>
            </Position>
            <AltitudeMeters>18.200000762939453125</AltitudeMeters>
            <DistanceMeters>NAN</DistanceMeters>
          </Trackpoint>
          <Trackpoint>
            <Time>2022-07-07T10:21:10.000Z</Time>
            <Position>
              <LatitudeDegrees>43.58225882984697818756103515625</LatitudeDegrees>
              <LongitudeDegrees>-1.456537730991840362548828125</LongitudeDegrees>
            </Position>
            <AltitudeMeters>18.200000762939453125</AltitudeMeters>
            <DistanceMeters>NAN</DistanceMeters>
          </Trackpoint>
          <Trackpoint>
            <Time>2022-07-07T10:21:12.000Z</Time>
            <Position>
              <LatitudeDegrees>43.5821771062910556793212890625</LatitudeDegrees>
              <LongitudeDegrees>-1.4565442688763141632080078125</LongitudeDegrees>
            </Position>
            <AltitudeMeters>18</AltitudeMeters>
            <DistanceMeters>NAN</DistanceMeters>
          </Trackpoint>
          <Trackpoint>
            <Time>2022-07-07T10:21:15.000Z</Time>
            <Position>
              <LatitudeDegrees>43.58202916570007801055908203125</LatitudeDegrees>
              <LongitudeDegrees>-1.4565534889698028564453125</LongitudeDegrees>
            </Position>
            <AltitudeMeters>18</AltitudeMeters>
            <DistanceMeters>NAN</DistanceMeters>
          </Trackpoint>
          <Trackpoint>
            <Time>2022-07-07T10:21:18.000Z</Time>
            <Position>
              <LatitudeDegrees>43.58188868500292301177978515625</LatitudeDegrees>
              <LongitudeDegrees>-1.45655960775911808013916015625</LongitudeDegrees>
            </Position>
            <AltitudeMeters>18.200000762939453125</AltitudeMeters>
            <DistanceMeters>NAN</DistanceMeters>
          </Trackpoint>
          <Trackpoint>
            <Time>2022-07-07T10:21:22.000Z</Time>
            <Position>
              <LatitudeDegrees>43.58170847408473491668701171875</LatitudeDegrees>
              <LongitudeDegrees>-1.4565747790038585662841796875</LongitudeDegrees>
            </Position>
            <AltitudeMeters>18.3999996185302734375</AltitudeMeters>
            <DistanceMeters>NAN</DistanceMeters>
          </Trackpoint>
          <Trackpoint>
            <Time>2022-07-07T10:21:27.000Z</Time>
            <Position>
              <LatitudeDegrees>43.58153991401195526123046875</LatitudeDegrees>
              <LongitudeDegrees>-1.45659598521888256072998046875</LongitudeDegrees>
            </Position>
            <AltitudeMeters>18.6000003814697265625</AltitudeMeters>
            <DistanceMeters>NAN</DistanceMeters>
          </Trackpoint>
          <Trackpoint>
            <Time>2022-07-07T10:21:32.000Z</Time>
            <Position>
              <LatitudeDegrees>43.58136867173016071319580078125</LatitudeDegrees>
              <LongitudeDegrees>-1.4566056244075298309326171875</LongitudeDegrees>
            </Position>
            <AltitudeMeters>18.6000003814697265625</AltitudeMeters>
            <DistanceMeters>NAN</DistanceMeters>
          </Trackpoint>
          <Trackpoint>
            <Time>2022-07-07T10:21:37.000Z</Time>
            <Position>
              <LatitudeDegrees>43.58117789961397647857666015625</LatitudeDegrees>
              <LongitudeDegrees>-1.4566408284008502960205078125</LongitudeDegrees>
            </Position>
            <AltitudeMeters>18.6000003814697265625</AltitudeMeters>
            <DistanceMeters>NAN</DistanceMeters>
          </Trackpoint>
          <Trackpoint>
            <Time>2022-07-07T10:21:42.000Z</Time>
            <Position>
              <LatitudeDegrees>43.58095779083669185638427734375</LatitudeDegrees>
              <LongitudeDegrees>-1.45667485892772674560546875</LongitudeDegrees>
            </Position>
            <AltitudeMeters>18.6000003814697265625</AltitudeMeters>
            <DistanceMeters>NAN</DistanceMeters>
          </Trackpoint>
          <Trackpoint>
            <Time>2022-07-07T10:21:44.000Z</Time>
            <Position>
              <LatitudeDegrees>43.58085067011415958404541015625</LatitudeDegrees>
              <LongitudeDegrees>-1.456683240830898284912109375</LongitudeDegrees>
            </Position>
            <AltitudeMeters>18.6000003814697265625</AltitudeMeters>
            <DistanceMeters>NAN</DistanceMeters>
          </Trackpoint>
          <Trackpoint>
            <Time>2022-07-07T10:21:46.000Z</Time>
            <Position>
              <LatitudeDegrees>43.580762408673763275146484375</LatitudeDegrees>
              <LongitudeDegrees>-1.456708721816539764404296875</LongitudeDegrees>
            </Position>
            <AltitudeMeters>18.6000003814697265625</AltitudeMeters>
            <DistanceMeters>NAN</DistanceMeters>
          </Trackpoint>
          <Trackpoint>
            <Time>2022-07-07T10:21:47.000Z</Time>
            <Position>
              <LatitudeDegrees>43.580707423388957977294921875</LatitudeDegrees>
              <LongitudeDegrees>-1.456726826727390289306640625</LongitudeDegrees>
            </Position>
            <AltitudeMeters>18.6000003814697265625</AltitudeMeters>
            <DistanceMeters>NAN</DistanceMeters>
          </Trackpoint>
          <Trackpoint>
            <Time>2022-07-07T10:21:51.000Z</Time>
            <Position>
              <LatitudeDegrees>43.580496869981288909912109375</LatitudeDegrees>
              <LongitudeDegrees>-1.45680620335042476654052734375</LongitudeDegrees>
            </Position>
            <AltitudeMeters>18.6000003814697265625</AltitudeMeters>
            <DistanceMeters>NAN</DistanceMeters>
          </Trackpoint>
          <Trackpoint>
            <Time>2022-07-07T10:21:53.000Z</Time>
            <Position>
              <LatitudeDegrees>43.580390252172946929931640625</LatitudeDegrees>
              <LongitudeDegrees>-1.4568590931594371795654296875</LongitudeDegrees>
            </Position>
            <AltitudeMeters>18.6000003814697265625</AltitudeMeters>
            <DistanceMeters>NAN</DistanceMeters>
          </Trackpoint>
          <Trackpoint>
            <Time>2022-07-07T10:21:56.000Z</Time>
            <Position>
              <LatitudeDegrees>43.58023074455559253692626953125</LatitudeDegrees>
              <LongitudeDegrees>-1.45688214339315891265869140625</LongitudeDegrees>
            </Position>
            <AltitudeMeters>18.6000003814697265625</AltitudeMeters>
            <DistanceMeters>NAN</DistanceMeters>
          </Trackpoint>
          <Trackpoint>
            <Time>2022-07-07T10:21:57.000Z</Time>
            <Position>
              <LatitudeDegrees>43.58017525635659694671630859375</LatitudeDegrees>
              <LongitudeDegrees>-1.456885077059268951416015625</LongitudeDegrees>
            </Position>
            <AltitudeMeters>18.6000003814697265625</AltitudeMeters>
            <DistanceMeters>NAN</DistanceMeters>
          </Trackpoint>
          <Trackpoint>
            <Time>2022-07-07T10:21:58.000Z</Time>
            <Position>
              <LatitudeDegrees>43.5801248811185359954833984375</LatitudeDegrees>
              <LongitudeDegrees>-1.45688935182988643646240234375</LongitudeDegrees>
            </Position>
            <AltitudeMeters>18.6000003814697265625</AltitudeMeters>
            <DistanceMeters>NAN</DistanceMeters>
          </Trackpoint>
          <Trackpoint>
            <Time>2022-07-07T10:22:01.000Z</Time>
            <Position>
              <LatitudeDegrees>43.58000426553189754486083984375</LatitudeDegrees>
              <LongitudeDegrees>-1.456925310194492340087890625</LongitudeDegrees>
            </Position>
            <AltitudeMeters>18.6000003814697265625</AltitudeMeters>
            <DistanceMeters>NAN</DistanceMeters>
          </Trackpoint>
          <Trackpoint>
            <Time>2022-07-07T10:22:04.000Z</Time>
            <Position>
              <LatitudeDegrees>43.57981148175895214080810546875</LatitudeDegrees>
              <LongitudeDegrees>-1.4569807983934879302978515625</LongitudeDegrees>
            </Position>
            <AltitudeMeters>18.3999996185302734375</AltitudeMeters>
            <DistanceMeters>NAN</DistanceMeters>
          </Trackpoint>
          <Trackpoint>
            <Time>2022-07-07T10:22:09.000Z</Time>
            <Position>
              <LatitudeDegrees>43.57961433939635753631591796875</LatitudeDegrees>
              <LongitudeDegrees>-1.45705816335976123809814453125</LongitudeDegrees>
            </Position>
            <AltitudeMeters>18.6000003814697265625</AltitudeMeters>
            <DistanceMeters>NAN</DistanceMeters>
          </Trackpoint>
          <Trackpoint>
            <Time>2022-07-07T10:22:11.000Z</Time>
            <Position>
              <LatitudeDegrees>43.57955373823642730712890625</LatitudeDegrees>
              <LongitudeDegrees>-1.457078866660594940185546875</LongitudeDegrees>
            </Position>
            <AltitudeMeters>18.6000003814697265625</AltitudeMeters>
            <DistanceMeters>NAN</DistanceMeters>
          </Trackpoint>
          <Trackpoint>
            <Time>2022-07-07T10:22:15.000Z</Time>
            <Position>
              <LatitudeDegrees>43.57941518537700176239013671875</LatitudeDegrees>
              <LongitudeDegrees>-1.45715497434139251708984375</LongitudeDegrees>
            </Position>
            <AltitudeMeters>18.799999237060546875</AltitudeMeters>
            <DistanceMeters>NAN</DistanceMeters>
          </Trackpoint>
          <Trackpoint>
            <Time>2022-07-07T10:22:22.000Z</Time>
            <Position>
              <LatitudeDegrees>43.5791609622538089752197265625</LatitudeDegrees>
              <LongitudeDegrees>-1.4573834650218486785888671875</LongitudeDegrees>
            </Position>
            <AltitudeMeters>18.6000003814697265625</AltitudeMeters>
            <DistanceMeters>NAN</DistanceMeters>
          </Trackpoint>
          <Trackpoint>
            <Time>2022-07-07T10:22:26.000Z</Time>
            <Position>
              <LatitudeDegrees>43.57904504053294658660888671875</LatitudeDegrees>
              <LongitudeDegrees>-1.4575437270104885101318359375</LongitudeDegrees>
            </Position>
            <AltitudeMeters>18.6000003814697265625</AltitudeMeters>
            <DistanceMeters>NAN</DistanceMeters>
          </Trackpoint>
          <Trackpoint>
            <Time>2022-07-07T10:22:28.000Z</Time>
            <Position>
              <LatitudeDegrees>43.57897178269922733306884765625</LatitudeDegrees>
              <LongitudeDegrees>-1.45759175531566143035888671875</LongitudeDegrees>
            </Position>
            <AltitudeMeters>18.6000003814697265625</AltitudeMeters>
            <DistanceMeters>NAN</DistanceMeters>
          </Trackpoint>
          <Trackpoint>
            <Time>2022-07-07T10:22:34.000Z</Time>
            <Position>
              <LatitudeDegrees>43.5787361674010753631591796875</LatitudeDegrees>
              <LongitudeDegrees>-1.45769552327692508697509765625</LongitudeDegrees>
            </Position>
            <AltitudeMeters>18.3999996185302734375</AltitudeMeters>
            <DistanceMeters>NAN</DistanceMeters>
          </Trackpoint>
          <Trackpoint>
            <Time>2022-07-07T10:22:36.000Z</Time>
            <Position>
              <LatitudeDegrees>43.57865880243480205535888671875</LatitudeDegrees>
              <LongitudeDegrees>-1.4577391929924488067626953125</LongitudeDegrees>
            </Position>
            <AltitudeMeters>18.200000762939453125</AltitudeMeters>
            <DistanceMeters>NAN</DistanceMeters>
          </Trackpoint>
          <Trackpoint>
            <Time>2022-07-07T10:22:38.000Z</Time>
            <Position>
              <LatitudeDegrees>43.57858948409557342529296875</LatitudeDegrees>
              <LongitudeDegrees>-1.457786299288272857666015625</LongitudeDegrees>
            </Position>
            <AltitudeMeters>18.200000762939453125</AltitudeMeters>
            <DistanceMeters>NAN</DistanceMeters>
          </Trackpoint>
          <Trackpoint>
            <Time>2022-07-07T10:22:42.000Z</Time>
            <Position>
              <LatitudeDegrees>43.5784575529396533966064453125</LatitudeDegrees>
              <LongitudeDegrees>-1.45793071947991847991943359375</LongitudeDegrees>
            </Position>
            <AltitudeMeters>18.3999996185302734375</AltitudeMeters>
            <DistanceMeters>NAN</DistanceMeters>
          </Trackpoint>
          <Trackpoint>
            <Time>2022-07-07T10:22:45.000Z</Time>
            <Position>
              <LatitudeDegrees>43.57836744748055934906005859375</LatitudeDegrees>
              <LongitudeDegrees>-1.4580556936562061309814453125</LongitudeDegrees>
            </Position>
            <AltitudeMeters>18.6000003814697265625</AltitudeMeters>
            <DistanceMeters>NAN</DistanceMeters>
          </Trackpoint>
          <Trackpoint>
            <Time>2022-07-07T10:22:49.000Z</Time>
            <Position>
              <LatitudeDegrees>43.578283376991748809814453125</LatitudeDegrees>
              <LongitudeDegrees>-1.4582387544214725494384765625</LongitudeDegrees>
            </Position>
            <AltitudeMeters>18.6000003814697265625</AltitudeMeters>
            <DistanceMeters>NAN</DistanceMeters>
          </Trackpoint>
          <Trackpoint>
            <Time>2022-07-07T10:22:54.000Z</Time>
            <Position>
              <LatitudeDegrees>43.5781395435333251953125</LatitudeDegrees>
              <LongitudeDegrees>-1.458468250930309295654296875</LongitudeDegrees>
            </Position>
            <AltitudeMeters>18.799999237060546875</AltitudeMeters>
            <DistanceMeters>NAN</DistanceMeters>
          </Trackpoint>
          <Trackpoint>
            <Time>2022-07-07T10:22:57.000Z</Time>
            <Position>
              <LatitudeDegrees>43.5780662856996059417724609375</LatitudeDegrees>
              <LongitudeDegrees>-1.45860864780843257904052734375</LongitudeDegrees>
            </Position>
            <AltitudeMeters>19</AltitudeMeters>
            <DistanceMeters>NAN</DistanceMeters>
          </Trackpoint>
          <Trackpoint>
            <Time>2022-07-07T10:23:02.000Z</Time>
            <Position>
              <LatitudeDegrees>43.57796612195670604705810546875</LatitudeDegrees>
              <LongitudeDegrees>-1.45885691978037357330322265625</LongitudeDegrees>
            </Position>
            <AltitudeMeters>19</AltitudeMeters>
            <DistanceMeters>NAN</DistanceMeters>
          </Trackpoint>
          <Trackpoint>
            <Time>2022-07-07T10:23:10.000Z</Time>
            <Position>
              <LatitudeDegrees>43.57780569233000278472900390625</LatitudeDegrees>
              <LongitudeDegrees>-1.45922957919538021087646484375</LongitudeDegrees>
            </Position>
            <AltitudeMeters>19</AltitudeMeters>
            <DistanceMeters>NAN</DistanceMeters>
          </Trackpoint>
          <Trackpoint>
            <Time>2022-07-07T10:23:12.000Z</Time>
            <Position>
              <LatitudeDegrees>43.5777554847300052642822265625</LatitudeDegrees>
              <LongitudeDegrees>-1.459301412105560302734375</LongitudeDegrees>
            </Position>
            <AltitudeMeters>18.799999237060546875</AltitudeMeters>
            <DistanceMeters>NAN</DistanceMeters>
          </Trackpoint>
          <Trackpoint>
            <Time>2022-07-07T10:23:14.000Z</Time>
            <Position>
              <LatitudeDegrees>43.57769320718944072723388671875</LatitudeDegrees>
              <LongitudeDegrees>-1.45937659777700901031494140625</LongitudeDegrees>
            </Position>
            <AltitudeMeters>18.6000003814697265625</AltitudeMeters>
            <DistanceMeters>NAN</DistanceMeters>
          </Trackpoint>
          <Trackpoint>
            <Time>2022-07-07T10:23:16.000Z</Time>
            <Position>
              <LatitudeDegrees>43.57764040119946002960205078125</LatitudeDegrees>
              <LongitudeDegrees>-1.459459327161312103271484375</LongitudeDegrees>
            </Position>
            <AltitudeMeters>18.6000003814697265625</AltitudeMeters>
            <DistanceMeters>NAN</DistanceMeters>
          </Trackpoint>
          <Trackpoint>
            <Time>2022-07-07T10:23:22.000Z</Time>
            <Position>
              <LatitudeDegrees>43.5775798000395298004150390625</LatitudeDegrees>
              <LongitudeDegrees>-1.45974808372557163238525390625</LongitudeDegrees>
            </Position>
            <AltitudeMeters>18.799999237060546875</AltitudeMeters>
            <DistanceMeters>NAN</DistanceMeters>
          </Trackpoint>
          <Trackpoint>
            <Time>2022-07-07T10:23:28.000Z</Time>
            <Position>
              <LatitudeDegrees>43.57748818583786487579345703125</LatitudeDegrees>
              <LongitudeDegrees>-1.46003072150051593780517578125</LongitudeDegrees>
            </Position>
            <AltitudeMeters>19</AltitudeMeters>
            <DistanceMeters>NAN</DistanceMeters>
          </Trackpoint>
          <Trackpoint>
            <Time>2022-07-07T10:23:29.000Z</Time>
            <Position>
              <LatitudeDegrees>43.57745549641549587249755859375</LatitudeDegrees>
              <LongitudeDegrees>-1.4600750617682933807373046875</LongitudeDegrees>
            </Position>
            <AltitudeMeters>19</AltitudeMeters>
            <DistanceMeters>NAN</DistanceMeters>
          </Trackpoint>
          <Trackpoint>
            <Time>2022-07-07T10:23:30.000Z</Time>
            <Position>
              <LatitudeDegrees>43.57742548920214176177978515625</LatitudeDegrees>
              <LongitudeDegrees>-1.46010615862905979156494140625</LongitudeDegrees>
            </Position>
            <AltitudeMeters>19.200000762939453125</AltitudeMeters>
            <DistanceMeters>NAN</DistanceMeters>
          </Trackpoint>
          <Trackpoint>
            <Time>2022-07-07T10:23:33.000Z</Time>
            <Position>
              <LatitudeDegrees>43.57733110897243022918701171875</LatitudeDegrees>
              <LongitudeDegrees>-1.4601739682257175445556640625</LongitudeDegrees>
            </Position>
            <AltitudeMeters>19.3999996185302734375</AltitudeMeters>
            <DistanceMeters>NAN</DistanceMeters>
          </Trackpoint>
          <Trackpoint>
            <Time>2022-07-07T10:23:40.000Z</Time>
            <Position>
              <LatitudeDegrees>43.57710982672870159149169921875</LatitudeDegrees>
              <LongitudeDegrees>-1.46033984608948230743408203125</LongitudeDegrees>
            </Position>
            <AltitudeMeters>18.3999996185302734375</AltitudeMeters>
            <DistanceMeters>NAN</DistanceMeters>
          </Trackpoint>
          <Trackpoint>
            <Time>2022-07-07T10:23:41.000Z</Time>
            <Position>
              <LatitudeDegrees>43.577082417905330657958984375</LatitudeDegrees>
              <LongitudeDegrees>-1.4603570289909839630126953125</LongitudeDegrees>
            </Position>
            <AltitudeMeters>18.3999996185302734375</AltitudeMeters>
            <DistanceMeters>NAN</DistanceMeters>
          </Trackpoint>
          <Trackpoint>
            <Time>2022-07-07T10:23:47.000Z</Time>
            <Position>
              <LatitudeDegrees>43.57685853727161884307861328125</LatitudeDegrees>
              <LongitudeDegrees>-1.46042986772954463958740234375</LongitudeDegrees>
            </Position>
            <AltitudeMeters>18.6000003814697265625</AltitudeMeters>
            <DistanceMeters>NAN</DistanceMeters>
          </Trackpoint>
          <Trackpoint>
            <Time>2022-07-07T10:23:51.000Z</Time>
            <Position>
              <LatitudeDegrees>43.576709590852260589599609375</LatitudeDegrees>
              <LongitudeDegrees>-1.4604914747178554534912109375</LongitudeDegrees>
            </Position>
            <AltitudeMeters>18.799999237060546875</AltitudeMeters>
            <DistanceMeters>NAN</DistanceMeters>
          </Trackpoint>
          <Trackpoint>
            <Time>2022-07-07T10:23:53.000Z</Time>
            <Position>
              <LatitudeDegrees>43.57663272880017757415771484375</LatitudeDegrees>
              <LongitudeDegrees>-1.4604991860687732696533203125</LongitudeDegrees>
            </Position>
            <AltitudeMeters>18.799999237060546875</AltitudeMeters>
            <DistanceMeters>NAN</DistanceMeters>
          </Trackpoint>
          <Trackpoint>
            <Time>2022-07-07T10:23:54.000Z</Time>
            <Position>
              <LatitudeDegrees>43.57659450732171535491943359375</LatitudeDegrees>
              <LongitudeDegrees>-1.46048971451818943023681640625</LongitudeDegrees>
            </Position>
            <AltitudeMeters>18.799999237060546875</AltitudeMeters>
            <DistanceMeters>NAN</DistanceMeters>
          </Trackpoint>
          <Trackpoint>
            <Time>2022-07-07T10:23:57.000Z</Time>
            <Position>
              <LatitudeDegrees>43.5764878056943416595458984375</LatitudeDegrees>
              <LongitudeDegrees>-1.46047932095825672149658203125</LongitudeDegrees>
            </Position>
            <AltitudeMeters>18.3999996185302734375</AltitudeMeters>
            <DistanceMeters>NAN</DistanceMeters>
          </Trackpoint>
          <Trackpoint>
            <Time>2022-07-07T10:24:00.000Z</Time>
            <Position>
              <LatitudeDegrees>43.57636417262256145477294921875</LatitudeDegrees>
              <LongitudeDegrees>-1.4604884572327136993408203125</LongitudeDegrees>
            </Position>
            <AltitudeMeters>18.3999996185302734375</AltitudeMeters>
            <DistanceMeters>NAN</DistanceMeters>
          </Trackpoint>
          <Trackpoint>
            <Time>2022-07-07T10:24:02.000Z</Time>
            <Position>
              <LatitudeDegrees>43.576271720230579376220703125</LatitudeDegrees>
              <LongitudeDegrees>-1.4604963362216949462890625</LongitudeDegrees>
            </Position>
            <AltitudeMeters>18.3999996185302734375</AltitudeMeters>
            <DistanceMeters>NAN</DistanceMeters>
          </Trackpoint>
          <Trackpoint>
            <Time>2022-07-07T10:24:06.000Z</Time>
            <Position>
              <LatitudeDegrees>43.5761250369250774383544921875</LatitudeDegrees>
              <LongitudeDegrees>-1.4605524949729442596435546875</LongitudeDegrees>
            </Position>
            <AltitudeMeters>18.3999996185302734375</AltitudeMeters>
            <DistanceMeters>NAN</DistanceMeters>
          </Trackpoint>
          <Trackpoint>
            <Time>2022-07-07T10:24:13.000Z</Time>
            <Position>
              <LatitudeDegrees>43.57586427591741085052490234375</LatitudeDegrees>
              <LongitudeDegrees>-1.46075206808745861053466796875</LongitudeDegrees>
            </Position>
            <AltitudeMeters>18.3999996185302734375</AltitudeMeters>
            <DistanceMeters>NAN</DistanceMeters>
          </Trackpoint>
          <Trackpoint>
            <Time>2022-07-07T10:24:19.000Z</Time>
            <Position>
              <LatitudeDegrees>43.57568205334246158599853515625</LatitudeDegrees>
              <LongitudeDegrees>-1.46091450937092304229736328125</LongitudeDegrees>
            </Position>
            <AltitudeMeters>19.3999996185302734375</AltitudeMeters>
            <DistanceMeters>NAN</DistanceMeters>
          </Trackpoint>
          <Trackpoint>
            <Time>2022-07-07T10:24:21.000Z</Time>
            <Position>
              <LatitudeDegrees>43.57563997618854045867919921875</LatitudeDegrees>
              <LongitudeDegrees>-1.4609816484153270721435546875</LongitudeDegrees>
            </Position>
            <AltitudeMeters>19.6000003814697265625</AltitudeMeters>
            <DistanceMeters>NAN</DistanceMeters>
          </Trackpoint>
          <Trackpoint>
            <Time>2022-07-07T10:24:25.000Z</Time>
            <Position>
              <LatitudeDegrees>43.575562275946140289306640625</LatitudeDegrees>
              <LongitudeDegrees>-1.461141072213649749755859375</LongitudeDegrees>
            </Position>
            <AltitudeMeters>19.6000003814697265625</AltitudeMeters>
            <DistanceMeters>NAN</DistanceMeters>
          </Trackpoint>
          <Trackpoint>
            <Time>2022-07-07T10:24:31.000Z</Time>
            <Position>
              <LatitudeDegrees>43.5754534788429737091064453125</LatitudeDegrees>
              <LongitudeDegrees>-1.4614346064627170562744140625</LongitudeDegrees>
            </Position>
            <AltitudeMeters>19.200000762939453125</AltitudeMeters>
            <DistanceMeters>NAN</DistanceMeters>
          </Trackpoint>
          <Trackpoint>
            <Time>2022-07-07T10:24:34.000Z</Time>
            <Position>
              <LatitudeDegrees>43.5753674805164337158203125</LatitudeDegrees>
              <LongitudeDegrees>-1.46156444214284420013427734375</LongitudeDegrees>
            </Position>
            <AltitudeMeters>19.200000762939453125</AltitudeMeters>
            <DistanceMeters>NAN</DistanceMeters>
          </Trackpoint>
          <Trackpoint>
            <Time>2022-07-07T10:24:39.000Z</Time>
            <Position>
              <LatitudeDegrees>43.57523026876151561737060546875</LatitudeDegrees>
              <LongitudeDegrees>-1.46173509769141674041748046875</LongitudeDegrees>
            </Position>
            <AltitudeMeters>19.3999996185302734375</AltitudeMeters>
            <DistanceMeters>NAN</DistanceMeters>
          </Trackpoint>
          <Trackpoint>
            <Time>2022-07-07T10:24:43.000Z</Time>
            <Position>
              <LatitudeDegrees>43.57510370202362537384033203125</LatitudeDegrees>
              <LongitudeDegrees>-1.461913883686065673828125</LongitudeDegrees>
            </Position>
            <AltitudeMeters>19.3999996185302734375</AltitudeMeters>
            <DistanceMeters>NAN</DistanceMeters>
          </Trackpoint>
          <Trackpoint>
            <Time>2022-07-07T10:24:44.000Z</Time>
            <Position>
              <LatitudeDegrees>43.5750689171254634857177734375</LatitudeDegrees>
              <LongitudeDegrees>-1.4619688689708709716796875</LongitudeDegrees>
            </Position>
            <AltitudeMeters>19.200000762939453125</AltitudeMeters>
            <DistanceMeters>NAN</DistanceMeters>
          </Trackpoint>
          <Trackpoint>
            <Time>2022-07-07T10:24:48.000Z</Time>
            <Position>
              <LatitudeDegrees>43.574952743947505950927734375</LatitudeDegrees>
              <LongitudeDegrees>-1.46217749454081058502197265625</LongitudeDegrees>
            </Position>
            <AltitudeMeters>19.3999996185302734375</AltitudeMeters>
            <DistanceMeters>NAN</DistanceMeters>
          </Trackpoint>
          <Trackpoint>
            <Time>2022-07-07T10:24:51.000Z</Time>
            <Position>
              <LatitudeDegrees>43.57486900873482227325439453125</LatitudeDegrees>
              <LongitudeDegrees>-1.46229400299489498138427734375</LongitudeDegrees>
            </Position>
            <AltitudeMeters>19.3999996185302734375</AltitudeMeters>
            <DistanceMeters>NAN</DistanceMeters>
          </Trackpoint>
          <Trackpoint>
            <Time>2022-07-07T10:24:53.000Z</Time>
            <Position>
              <LatitudeDegrees>43.5748122632503509521484375</LatitudeDegrees>
              <LongitudeDegrees>-1.462369859218597412109375</LongitudeDegrees>
            </Position>
            <AltitudeMeters>19.200000762939453125</AltitudeMeters>
            <DistanceMeters>NAN</DistanceMeters>
          </Trackpoint>
          <Trackpoint>
            <Time>2022-07-07T10:24:55.000Z</Time>
            <Position>
              <LatitudeDegrees>43.574750907719135284423828125</LatitudeDegrees>
              <LongitudeDegrees>-1.46244605071842670440673828125</LongitudeDegrees>
            </Position>
            <AltitudeMeters>19.200000762939453125</AltitudeMeters>
            <DistanceMeters>NAN</DistanceMeters>
          </Trackpoint>
          <Trackpoint>
            <Time>2022-07-07T10:24:57.000Z</Time>
            <Position>
              <LatitudeDegrees>43.57468896545469760894775390625</LatitudeDegrees>
              <LongitudeDegrees>-1.46250556223094463348388671875</LongitudeDegrees>
            </Position>
            <AltitudeMeters>19.200000762939453125</AltitudeMeters>
            <DistanceMeters>NAN</DistanceMeters>
          </Trackpoint>
          <Trackpoint>
            <Time>2022-07-07T10:25:01.000Z</Time>
            <Position>
              <LatitudeDegrees>43.5746266879141330718994140625</LatitudeDegrees>
              <LongitudeDegrees>-1.4625366590917110443115234375</LongitudeDegrees>
            </Position>
            <AltitudeMeters>18.799999237060546875</AltitudeMeters>
            <DistanceMeters>NAN</DistanceMeters>
          </Trackpoint>
          <Trackpoint>
            <Time>2022-07-07T10:25:05.000Z</Time>
            <Position>
              <LatitudeDegrees>43.57463163323700428009033203125</LatitudeDegrees>
              <LongitudeDegrees>-1.46253724582493305206298828125</LongitudeDegrees>
            </Position>
            <AltitudeMeters>18.6000003814697265625</AltitudeMeters>
            <DistanceMeters>NAN</DistanceMeters>
          </Trackpoint>
          <Trackpoint>
            <Time>2022-07-07T10:25:06.000Z</Time>
            <Position>
              <LatitudeDegrees>43.57463045977056026458740234375</LatitudeDegrees>
              <LongitudeDegrees>-1.462533809244632720947265625</LongitudeDegrees>
            </Position>
            <AltitudeMeters>18.6000003814697265625</AltitudeMeters>
            <DistanceMeters>NAN</DistanceMeters>
          </Trackpoint>
          <Trackpoint>
            <Time>2022-07-07T10:25:07.000Z</Time>
            <Position>
              <LatitudeDegrees>43.57463045977056026458740234375</LatitudeDegrees>
              <LongitudeDegrees>-1.462533809244632720947265625</LongitudeDegrees>
            </Position>
            <AltitudeMeters>18.6000003814697265625</AltitudeMeters>
            <DistanceMeters>NAN</DistanceMeters>
          </Trackpoint>
          <Trackpoint>
            <Time>2022-07-07T10:25:12.000Z</Time>
            <Position>
              <LatitudeDegrees>43.57457312755286693572998046875</LatitudeDegrees>
              <LongitudeDegrees>-1.46251243539154529571533203125</LongitudeDegrees>
            </Position>
            <AltitudeMeters>18.3999996185302734375</AltitudeMeters>
            <DistanceMeters>NAN</DistanceMeters>
          </Trackpoint>
          <Trackpoint>
            <Time>2022-07-07T10:25:14.000Z</Time>
            <Position>
              <LatitudeDegrees>43.57452836818993091583251953125</LatitudeDegrees>
              <LongitudeDegrees>-1.46253640763461589813232421875</LongitudeDegrees>
            </Position>
            <AltitudeMeters>18.3999996185302734375</AltitudeMeters>
            <DistanceMeters>NAN</DistanceMeters>
          </Trackpoint>
          <Trackpoint>
            <Time>2022-07-07T10:25:15.000Z</Time>
            <Position>
              <LatitudeDegrees>43.574513532221317291259765625</LatitudeDegrees>
              <LongitudeDegrees>-1.46255652420222759246826171875</LongitudeDegrees>
            </Position>
            <AltitudeMeters>18.200000762939453125</AltitudeMeters>
            <DistanceMeters>NAN</DistanceMeters>
          </Trackpoint>
          <Trackpoint>
            <Time>2022-07-07T10:25:19.000Z</Time>
            <Position>
              <LatitudeDegrees>43.574424684047698974609375</LatitudeDegrees>
              <LongitudeDegrees>-1.4625983498990535736083984375</LongitudeDegrees>
            </Position>
            <AltitudeMeters>18.200000762939453125</AltitudeMeters>
            <DistanceMeters>NAN</DistanceMeters>
          </Trackpoint>
          <Trackpoint>
            <Time>2022-07-07T10:25:24.000Z</Time>
            <Position>
              <LatitudeDegrees>43.5742666013538837432861328125</LatitudeDegrees>
              <LongitudeDegrees>-1.46268191747367382049560546875</LongitudeDegrees>
            </Position>
            <AltitudeMeters>18.799999237060546875</AltitudeMeters>
            <DistanceMeters>NAN</DistanceMeters>
          </Trackpoint>
          <Trackpoint>
            <Time>2022-07-07T10:25:30.000Z</Time>
            <Position>
              <LatitudeDegrees>43.5740868933498859405517578125</LatitudeDegrees>
              <LongitudeDegrees>-1.4628816582262516021728515625</LongitudeDegrees>
            </Position>
            <AltitudeMeters>18.799999237060546875</AltitudeMeters>
            <DistanceMeters>NAN</DistanceMeters>
          </Trackpoint>
          <Trackpoint>
            <Time>2022-07-07T10:25:36.000Z</Time>
            <Position>
              <LatitudeDegrees>43.57392780482769012451171875</LatitudeDegrees>
              <LongitudeDegrees>-1.4630358852446079254150390625</LongitudeDegrees>
            </Position>
            <AltitudeMeters>18.6000003814697265625</AltitudeMeters>
            <DistanceMeters>NAN</DistanceMeters>
          </Trackpoint>
          <Trackpoint>
            <Time>2022-07-07T10:25:41.000Z</Time>
            <Position>
              <LatitudeDegrees>43.57376242987811565399169921875</LatitudeDegrees>
              <LongitudeDegrees>-1.46319187246263027191162109375</LongitudeDegrees>
            </Position>
            <AltitudeMeters>18.799999237060546875</AltitudeMeters>
            <DistanceMeters>NAN</DistanceMeters>
          </Trackpoint>
          <Trackpoint>
            <Time>2022-07-07T10:25:47.000Z</Time>
            <Position>
              <LatitudeDegrees>43.5735709033906459808349609375</LatitudeDegrees>
              <LongitudeDegrees>-1.463399827480316162109375</LongitudeDegrees>
            </Position>
            <AltitudeMeters>19</AltitudeMeters>
            <DistanceMeters>NAN</DistanceMeters>
          </Trackpoint>
          <Trackpoint>
            <Time>2022-07-07T10:25:52.000Z</Time>
            <Position>
              <LatitudeDegrees>43.57352421618998050689697265625</LatitudeDegrees>
              <LongitudeDegrees>-1.4636246301233768463134765625</LongitudeDegrees>
            </Position>
            <AltitudeMeters>18.799999237060546875</AltitudeMeters>
            <DistanceMeters>NAN</DistanceMeters>
          </Trackpoint>
          <Trackpoint>
            <Time>2022-07-07T10:25:56.000Z</Time>
            <Position>
              <LatitudeDegrees>43.5734421573579311370849609375</LatitudeDegrees>
              <LongitudeDegrees>-1.4637902565300464630126953125</LongitudeDegrees>
            </Position>
            <AltitudeMeters>19</AltitudeMeters>
            <DistanceMeters>NAN</DistanceMeters>
          </Trackpoint>
          <Trackpoint>
            <Time>2022-07-07T10:26:03.000Z</Time>
            <Position>
              <LatitudeDegrees>43.57314619235694408416748046875</LatitudeDegrees>
              <LongitudeDegrees>-1.46403308026492595672607421875</LongitudeDegrees>
            </Position>
            <AltitudeMeters>19</AltitudeMeters>
            <DistanceMeters>NAN</DistanceMeters>
          </Trackpoint>
          <Trackpoint>
            <Time>2022-07-07T10:26:08.000Z</Time>
            <Position>
              <LatitudeDegrees>43.57302566058933734893798828125</LatitudeDegrees>
              <LongitudeDegrees>-1.46415160037577152252197265625</LongitudeDegrees>
            </Position>
            <AltitudeMeters>19.200000762939453125</AltitudeMeters>
            <DistanceMeters>NAN</DistanceMeters>
          </Trackpoint>
          <Trackpoint>
            <Time>2022-07-07T10:26:11.000Z</Time>
            <Position>
              <LatitudeDegrees>43.57291527092456817626953125</LatitudeDegrees>
              <LongitudeDegrees>-1.46421848796308040618896484375</LongitudeDegrees>
            </Position>
            <AltitudeMeters>19</AltitudeMeters>
            <DistanceMeters>NAN</DistanceMeters>
          </Trackpoint>
          <Trackpoint>
            <Time>2022-07-07T10:26:13.000Z</Time>
            <Position>
              <LatitudeDegrees>43.5728695057332515716552734375</LatitudeDegrees>
              <LongitudeDegrees>-1.46424262784421443939208984375</LongitudeDegrees>
            </Position>
            <AltitudeMeters>19</AltitudeMeters>
            <DistanceMeters>NAN</DistanceMeters>
          </Trackpoint>
          <Trackpoint>
            <Time>2022-07-07T10:26:19.000Z</Time>
            <Position>
              <LatitudeDegrees>43.57272273860871791839599609375</LatitudeDegrees>
              <LongitudeDegrees>-1.4644423685967922210693359375</LongitudeDegrees>
            </Position>
            <AltitudeMeters>19</AltitudeMeters>
            <DistanceMeters>NAN</DistanceMeters>
          </Trackpoint>
          <Trackpoint>
            <Time>2022-07-07T10:26:23.000Z</Time>
            <Position>
              <LatitudeDegrees>43.57257555238902568817138671875</LatitudeDegrees>
              <LongitudeDegrees>-1.4646217413246631622314453125</LongitudeDegrees>
            </Position>
            <AltitudeMeters>18.799999237060546875</AltitudeMeters>
            <DistanceMeters>NAN</DistanceMeters>
          </Trackpoint>
          <Trackpoint>
            <Time>2022-07-07T10:26:28.000Z</Time>
            <Position>
              <LatitudeDegrees>43.5724222473800182342529296875</LatitudeDegrees>
              <LongitudeDegrees>-1.46481980569660663604736328125</LongitudeDegrees>
            </Position>
            <AltitudeMeters>19</AltitudeMeters>
            <DistanceMeters>NAN</DistanceMeters>
          </Trackpoint>
          <Trackpoint>
            <Time>2022-07-07T10:26:32.000Z</Time>
            <Position>
              <LatitudeDegrees>43.5723498277366161346435546875</LatitudeDegrees>
              <LongitudeDegrees>-1.4649271778762340545654296875</LongitudeDegrees>
            </Position>
            <AltitudeMeters>19.200000762939453125</AltitudeMeters>
            <DistanceMeters>NAN</DistanceMeters>
          </Trackpoint>
          <Trackpoint>
            <Time>2022-07-07T10:26:33.000Z</Time>
            <Position>
              <LatitudeDegrees>43.57232258655130863189697265625</LatitudeDegrees>
              <LongitudeDegrees>-1.46493329666554927825927734375</LongitudeDegrees>
            </Position>
            <AltitudeMeters>19.200000762939453125</AltitudeMeters>
            <DistanceMeters>NAN</DistanceMeters>
          </Trackpoint>
          <Trackpoint>
            <Time>2022-07-07T10:26:34.000Z</Time>
            <Position>
              <LatitudeDegrees>43.57229844667017459869384765625</LatitudeDegrees>
              <LongitudeDegrees>-1.4649459533393383026123046875</LongitudeDegrees>
            </Position>
            <AltitudeMeters>19.200000762939453125</AltitudeMeters>
            <DistanceMeters>NAN</DistanceMeters>
          </Trackpoint>
          <Trackpoint>
            <Time>2022-07-07T10:26:37.000Z</Time>
            <Position>
              <LatitudeDegrees>43.5722083412110805511474609375</LatitudeDegrees>
              <LongitudeDegrees>-1.46501292474567890167236328125</LongitudeDegrees>
            </Position>
            <AltitudeMeters>19.6000003814697265625</AltitudeMeters>
            <DistanceMeters>NAN</DistanceMeters>
          </Trackpoint>
          <Trackpoint>
            <Time>2022-07-07T10:26:41.000Z</Time>
            <Position>
              <LatitudeDegrees>43.5720899887382984161376953125</LatitudeDegrees>
              <LongitudeDegrees>-1.46516731940209865570068359375</LongitudeDegrees>
            </Position>
            <AltitudeMeters>19.6000003814697265625</AltitudeMeters>
            <DistanceMeters>NAN</DistanceMeters>
          </Trackpoint>
          <Trackpoint>
            <Time>2022-07-07T10:26:44.000Z</Time>
            <Position>
              <LatitudeDegrees>43.57199535705149173736572265625</LatitudeDegrees>
              <LongitudeDegrees>-1.4652969874441623687744140625</LongitudeDegrees>
            </Position>
            <AltitudeMeters>19.200000762939453125</AltitudeMeters>
            <DistanceMeters>NAN</DistanceMeters>
          </Trackpoint>
          <Trackpoint>
            <Time>2022-07-07T10:26:45.000Z</Time>
            <Position>
              <LatitudeDegrees>43.57194037176668643951416015625</LatitudeDegrees>
              <LongitudeDegrees>-1.46534216590225696563720703125</LongitudeDegrees>
            </Position>
            <AltitudeMeters>19</AltitudeMeters>
            <DistanceMeters>NAN</DistanceMeters>
          </Trackpoint>
          <Trackpoint>
            <Time>2022-07-07T10:26:47.000Z</Time>
            <Position>
              <LatitudeDegrees>43.57186158187687397003173828125</LatitudeDegrees>
              <LongitudeDegrees>-1.465426571667194366455078125</LongitudeDegrees>
            </Position>
            <AltitudeMeters>18.799999237060546875</AltitudeMeters>
            <DistanceMeters>NAN</DistanceMeters>
          </Trackpoint>
          <Trackpoint>
            <Time>2022-07-07T10:26:49.000Z</Time>
            <Position>
              <LatitudeDegrees>43.57176854275166988372802734375</LatitudeDegrees>
              <LongitudeDegrees>-1.46550737321376800537109375</LongitudeDegrees>
            </Position>
            <AltitudeMeters>18.799999237060546875</AltitudeMeters>
            <DistanceMeters>NAN</DistanceMeters>
          </Trackpoint>
          <Trackpoint>
            <Time>2022-07-07T10:26:50.000Z</Time>
            <Position>
              <LatitudeDegrees>43.57172981835901737213134765625</LatitudeDegrees>
              <LongitudeDegrees>-1.46554291248321533203125</LongitudeDegrees>
            </Position>
            <AltitudeMeters>18.799999237060546875</AltitudeMeters>
            <DistanceMeters>NAN</DistanceMeters>
          </Trackpoint>
          <Trackpoint>
            <Time>2022-07-07T10:26:51.000Z</Time>
            <Position>
              <LatitudeDegrees>43.57168690301477909088134765625</LatitudeDegrees>
              <LongitudeDegrees>-1.46559395827353000640869140625</LongitudeDegrees>
            </Position>
            <AltitudeMeters>18.799999237060546875</AltitudeMeters>
            <DistanceMeters>NAN</DistanceMeters>
          </Trackpoint>
          <Trackpoint>
            <Time>2022-07-07T10:26:53.000Z</Time>
            <Position>
              <LatitudeDegrees>43.571629486978054046630859375</LatitudeDegrees>
              <LongitudeDegrees>-1.46568515338003635406494140625</LongitudeDegrees>
            </Position>
            <AltitudeMeters>18.6000003814697265625</AltitudeMeters>
            <DistanceMeters>NAN</DistanceMeters>
          </Trackpoint>
          <Trackpoint>
            <Time>2022-07-07T10:26:54.000Z</Time>
            <Position>
              <LatitudeDegrees>43.57159436680376529693603515625</LatitudeDegrees>
              <LongitudeDegrees>-1.465749107301235198974609375</LongitudeDegrees>
            </Position>
            <AltitudeMeters>18.6000003814697265625</AltitudeMeters>
            <DistanceMeters>NAN</DistanceMeters>
          </Trackpoint>
          <Trackpoint>
            <Time>2022-07-07T10:26:55.000Z</Time>
            <Position>
              <LatitudeDegrees>43.57155849225819110870361328125</LatitudeDegrees>
              <LongitudeDegrees>-1.465803086757659912109375</LongitudeDegrees>
            </Position>
            <AltitudeMeters>18.6000003814697265625</AltitudeMeters>
            <DistanceMeters>NAN</DistanceMeters>
          </Trackpoint>
          <Trackpoint>
            <Time>2022-07-07T10:26:59.000Z</Time>
            <Position>
              <LatitudeDegrees>43.571404851973056793212890625</LatitudeDegrees>
              <LongitudeDegrees>-1.46586972288787364959716796875</LongitudeDegrees>
            </Position>
            <AltitudeMeters>18.6000003814697265625</AltitudeMeters>
            <DistanceMeters>NAN</DistanceMeters>
          </Trackpoint>
          <Trackpoint>
            <Time>2022-07-07T10:27:01.000Z</Time>
            <Position>
              <LatitudeDegrees>43.5713319294154644012451171875</LatitudeDegrees>
              <LongitudeDegrees>-1.46591045893728733062744140625</LongitudeDegrees>
            </Position>
            <AltitudeMeters>18.6000003814697265625</AltitudeMeters>
            <DistanceMeters>NAN</DistanceMeters>
          </Trackpoint>
          <Trackpoint>
            <Time>2022-07-07T10:27:04.000Z</Time>
            <Position>
              <LatitudeDegrees>43.5712169297039508819580078125</LatitudeDegrees>
              <LongitudeDegrees>-1.46604071371257305145263671875</LongitudeDegrees>
            </Position>
            <AltitudeMeters>18.6000003814697265625</AltitudeMeters>
            <DistanceMeters>NAN</DistanceMeters>
          </Trackpoint>
          <Trackpoint>
            <Time>2022-07-07T10:27:09.000Z</Time>
            <Position>
              <LatitudeDegrees>43.571054153144359588623046875</LatitudeDegrees>
              <LongitudeDegrees>-1.4662344194948673248291015625</LongitudeDegrees>
            </Position>
            <AltitudeMeters>18.6000003814697265625</AltitudeMeters>
            <DistanceMeters>NAN</DistanceMeters>
          </Trackpoint>
          <Trackpoint>
            <Time>2022-07-07T10:27:11.000Z</Time>
            <Position>
              <LatitudeDegrees>43.57100193388760089874267578125</LatitudeDegrees>
              <LongitudeDegrees>-1.46631203591823577880859375</LongitudeDegrees>
            </Position>
            <AltitudeMeters>18.6000003814697265625</AltitudeMeters>
            <DistanceMeters>NAN</DistanceMeters>
          </Trackpoint>
          <Trackpoint>
            <Time>2022-07-07T10:27:12.000Z</Time>
            <Position>
              <LatitudeDegrees>43.57097745873034000396728515625</LatitudeDegrees>
              <LongitudeDegrees>-1.46635361015796661376953125</LongitudeDegrees>
            </Position>
            <AltitudeMeters>18.6000003814697265625</AltitudeMeters>
            <DistanceMeters>NAN</DistanceMeters>
          </Trackpoint>
          <Trackpoint>
            <Time>2022-07-07T10:27:14.000Z</Time>
            <Position>
              <LatitudeDegrees>43.57092448510229587554931640625</LatitudeDegrees>
              <LongitudeDegrees>-1.46641798317432403564453125</LongitudeDegrees>
            </Position>
            <AltitudeMeters>18.799999237060546875</AltitudeMeters>
            <DistanceMeters>NAN</DistanceMeters>
          </Trackpoint>
          <Trackpoint>
            <Time>2022-07-07T10:27:19.000Z</Time>
            <Position>
              <LatitudeDegrees>43.57079741545021533966064453125</LatitudeDegrees>
              <LongitudeDegrees>-1.46657531149685382843017578125</LongitudeDegrees>
            </Position>
            <AltitudeMeters>18.799999237060546875</AltitudeMeters>
            <DistanceMeters>NAN</DistanceMeters>
          </Trackpoint>
          <Trackpoint>
            <Time>2022-07-07T10:27:21.000Z</Time>
            <Position>
              <LatitudeDegrees>43.57074812985956668853759765625</LatitudeDegrees>
              <LongitudeDegrees>-1.4666654169559478759765625</LongitudeDegrees>
            </Position>
            <AltitudeMeters>18.799999237060546875</AltitudeMeters>
            <DistanceMeters>NAN</DistanceMeters>
          </Trackpoint>
          <Trackpoint>
            <Time>2022-07-07T10:27:24.000Z</Time>
            <Position>
              <LatitudeDegrees>43.5706764645874500274658203125</LatitudeDegrees>
              <LongitudeDegrees>-1.4667329750955104827880859375</LongitudeDegrees>
            </Position>
            <AltitudeMeters>18.799999237060546875</AltitudeMeters>
            <DistanceMeters>NAN</DistanceMeters>
          </Trackpoint>
          <Trackpoint>
            <Time>2022-07-07T10:27:29.000Z</Time>
            <Position>
              <LatitudeDegrees>43.57057680375874042510986328125</LatitudeDegrees>
              <LongitudeDegrees>-1.46686867810785770416259765625</LongitudeDegrees>
            </Position>
            <AltitudeMeters>18.3999996185302734375</AltitudeMeters>
            <DistanceMeters>NAN</DistanceMeters>
          </Trackpoint>
          <Trackpoint>
            <Time>2022-07-07T10:27:32.000Z</Time>
            <Position>
              <LatitudeDegrees>43.5705743730068206787109375</LatitudeDegrees>
              <LongitudeDegrees>-1.46687219850718975067138671875</LongitudeDegrees>
            </Position>
            <AltitudeMeters>18.200000762939453125</AltitudeMeters>
            <DistanceMeters>NAN</DistanceMeters>
          </Trackpoint>
          <Trackpoint>
            <Time>2022-07-07T10:27:56.000Z</Time>
            <Position>
              <LatitudeDegrees>43.57056154869496822357177734375</LatitudeDegrees>
              <LongitudeDegrees>-1.46687798202037811279296875</LongitudeDegrees>
            </Position>
            <AltitudeMeters>18.200000762939453125</AltitudeMeters>
            <DistanceMeters>NAN</DistanceMeters>
          </Trackpoint>
          <Trackpoint>
            <Time>2022-07-07T10:28:00.000Z</Time>
            <Position>
              <LatitudeDegrees>43.5705034621059894561767578125</LatitudeDegrees>
              <LongitudeDegrees>-1.46698552183806896209716796875</LongitudeDegrees>
            </Position>
            <AltitudeMeters>18.3999996185302734375</AltitudeMeters>
            <DistanceMeters>NAN</DistanceMeters>
          </Trackpoint>
          <Trackpoint>
            <Time>2022-07-07T10:28:02.000Z</Time>
            <Position>
              <LatitudeDegrees>43.57050756923854351043701171875</LatitudeDegrees>
              <LongitudeDegrees>-1.467057354748249053955078125</LongitudeDegrees>
            </Position>
            <AltitudeMeters>18.6000003814697265625</AltitudeMeters>
            <DistanceMeters>NAN</DistanceMeters>
          </Trackpoint>
          <Trackpoint>
            <Time>2022-07-07T10:28:09.000Z</Time>
            <Position>
              <LatitudeDegrees>43.57058719731867313385009765625</LatitudeDegrees>
              <LongitudeDegrees>-1.46728810854256153106689453125</LongitudeDegrees>
            </Position>
            <AltitudeMeters>18.799999237060546875</AltitudeMeters>
            <DistanceMeters>NAN</DistanceMeters>
          </Trackpoint>
          <Trackpoint>
            <Time>2022-07-07T10:28:16.000Z</Time>
            <Position>
              <LatitudeDegrees>43.5706643946468830108642578125</LatitudeDegrees>
              <LongitudeDegrees>-1.46757242269814014434814453125</LongitudeDegrees>
            </Position>
            <AltitudeMeters>18.799999237060546875</AltitudeMeters>
            <DistanceMeters>NAN</DistanceMeters>
          </Trackpoint>
          <Trackpoint>
            <Time>2022-07-07T10:28:22.000Z</Time>
            <Position>
              <LatitudeDegrees>43.57075986452400684356689453125</LatitudeDegrees>
              <LongitudeDegrees>-1.46786729805171489715576171875</LongitudeDegrees>
            </Position>
            <AltitudeMeters>18.6000003814697265625</AltitudeMeters>
            <DistanceMeters>NAN</DistanceMeters>
          </Trackpoint>
          <Trackpoint>
            <Time>2022-07-07T10:28:31.000Z</Time>
            <Position>
              <LatitudeDegrees>43.57091174460947513580322265625</LatitudeDegrees>
              <LongitudeDegrees>-1.4682973735034465789794921875</LongitudeDegrees>
            </Position>
            <AltitudeMeters>18.6000003814697265625</AltitudeMeters>
            <DistanceMeters>NAN</DistanceMeters>
          </Trackpoint>
          <Trackpoint>
            <Time>2022-07-07T10:28:39.000Z</Time>
            <Position>
              <LatitudeDegrees>43.571057505905628204345703125</LatitudeDegrees>
              <LongitudeDegrees>-1.46870330907404422760009765625</LongitudeDegrees>
            </Position>
            <AltitudeMeters>18.3999996185302734375</AltitudeMeters>
            <DistanceMeters>NAN</DistanceMeters>
          </Trackpoint>
          <Trackpoint>
            <Time>2022-07-07T10:28:40.000Z</Time>
            <Position>
              <LatitudeDegrees>43.57107133604586124420166015625</LatitudeDegrees>
              <LongitudeDegrees>-1.46875142119824886322021484375</LongitudeDegrees>
            </Position>
            <AltitudeMeters>18.3999996185302734375</AltitudeMeters>
            <DistanceMeters>NAN</DistanceMeters>
          </Trackpoint>
          <Trackpoint>
            <Time>2022-07-07T10:28:43.000Z</Time>
            <Position>
              <LatitudeDegrees>43.57111944817006587982177734375</LatitudeDegrees>
              <LongitudeDegrees>-1.4689018763601779937744140625</LongitudeDegrees>
            </Position>
            <AltitudeMeters>18.6000003814697265625</AltitudeMeters>
            <DistanceMeters>NAN</DistanceMeters>
          </Trackpoint>
          <Trackpoint>
            <Time>2022-07-07T10:28:47.000Z</Time>
            <Position>
              <LatitudeDegrees>43.57118851505219936370849609375</LatitudeDegrees>
              <LongitudeDegrees>-1.4690933190286159515380859375</LongitudeDegrees>
            </Position>
            <AltitudeMeters>18.799999237060546875</AltitudeMeters>
            <DistanceMeters>NAN</DistanceMeters>
          </Trackpoint>
          <Trackpoint>
            <Time>2022-07-07T10:29:00.000Z</Time>
            <Position>
              <LatitudeDegrees>43.5713879205286502838134765625</LatitudeDegrees>
              <LongitudeDegrees>-1.4697273261845111846923828125</LongitudeDegrees>
            </Position>
            <AltitudeMeters>18.6000003814697265625</AltitudeMeters>
            <DistanceMeters>NAN</DistanceMeters>
          </Trackpoint>
          <Trackpoint>
            <Time>2022-07-07T10:29:05.000Z</Time>
            <Position>
              <LatitudeDegrees>43.57145271264016628265380859375</LatitudeDegrees>
              <LongitudeDegrees>-1.4699315093457698822021484375</LongitudeDegrees>
            </Position>
            <AltitudeMeters>19</AltitudeMeters>
            <DistanceMeters>NAN</DistanceMeters>
          </Trackpoint>
          <Trackpoint>
            <Time>2022-07-07T10:29:06.000Z</Time>
            <Position>
              <LatitudeDegrees>43.5714673809707164764404296875</LatitudeDegrees>
              <LongitudeDegrees>-1.4699734188616275787353515625</LongitudeDegrees>
            </Position>
            <AltitudeMeters>19.3999996185302734375</AltitudeMeters>
            <DistanceMeters>NAN</DistanceMeters>
          </Trackpoint>
          <Trackpoint>
            <Time>2022-07-07T10:29:07.000Z</Time>
            <Position>
              <LatitudeDegrees>43.57147785834968090057373046875</LatitudeDegrees>
              <LongitudeDegrees>-1.47000635974109172821044921875</LongitudeDegrees>
            </Position>
            <AltitudeMeters>19.3999996185302734375</AltitudeMeters>
            <DistanceMeters>NAN</DistanceMeters>
          </Trackpoint>
          <Trackpoint>
            <Time>2022-07-07T10:29:17.000Z</Time>
            <Position>
              <LatitudeDegrees>43.5716051794588565826416015625</LatitudeDegrees>
              <LongitudeDegrees>-1.470383964478969573974609375</LongitudeDegrees>
            </Position>
            <AltitudeMeters>19</AltitudeMeters>
            <DistanceMeters>NAN</DistanceMeters>
          </Trackpoint>
          <Trackpoint>
            <Time>2022-07-07T10:29:23.000Z</Time>
            <Position>
              <LatitudeDegrees>43.57166376896202564239501953125</LatitudeDegrees>
              <LongitudeDegrees>-1.4705819450318813323974609375</LongitudeDegrees>
            </Position>
            <AltitudeMeters>18.3999996185302734375</AltitudeMeters>
            <DistanceMeters>NAN</DistanceMeters>
          </Trackpoint>
          <Trackpoint>
            <Time>2022-07-07T10:29:25.000Z</Time>
            <Position>
              <LatitudeDegrees>43.57168321497738361358642578125</LatitudeDegrees>
              <LongitudeDegrees>-1.4706553705036640167236328125</LongitudeDegrees>
            </Position>
            <AltitudeMeters>18.3999996185302734375</AltitudeMeters>
            <DistanceMeters>NAN</DistanceMeters>
          </Trackpoint>
          <Trackpoint>
            <Time>2022-07-07T10:29:32.000Z</Time>
            <Position>
              <LatitudeDegrees>43.5717768408358097076416015625</LatitudeDegrees>
              <LongitudeDegrees>-1.470931135118007659912109375</LongitudeDegrees>
            </Position>
            <AltitudeMeters>18.6000003814697265625</AltitudeMeters>
            <DistanceMeters>NAN</DistanceMeters>
          </Trackpoint>
          <Trackpoint>
            <Time>2022-07-07T10:29:33.000Z</Time>
            <Position>
              <LatitudeDegrees>43.5717922635376453399658203125</LatitudeDegrees>
              <LongitudeDegrees>-1.470978073775768280029296875</LongitudeDegrees>
            </Position>
            <AltitudeMeters>18.6000003814697265625</AltitudeMeters>
            <DistanceMeters>NAN</DistanceMeters>
          </Trackpoint>
          <Trackpoint>
            <Time>2022-07-07T10:29:41.000Z</Time>
            <Position>
              <LatitudeDegrees>43.57191103510558605194091796875</LatitudeDegrees>
              <LongitudeDegrees>-1.4712809957563877105712890625</LongitudeDegrees>
            </Position>
            <AltitudeMeters>19</AltitudeMeters>
            <DistanceMeters>NAN</DistanceMeters>
          </Trackpoint>
          <Trackpoint>
            <Time>2022-07-07T10:29:45.000Z</Time>
            <Position>
              <LatitudeDegrees>43.5720239393413066864013671875</LatitudeDegrees>
              <LongitudeDegrees>-1.47135769017040729522705078125</LongitudeDegrees>
            </Position>
            <AltitudeMeters>18.6000003814697265625</AltitudeMeters>
            <DistanceMeters>NAN</DistanceMeters>
          </Trackpoint>
          <Trackpoint>
            <Time>2022-07-07T10:29:49.000Z</Time>
            <Position>
              <LatitudeDegrees>43.5720702074468135833740234375</LatitudeDegrees>
              <LongitudeDegrees>-1.471505127847194671630859375</LongitudeDegrees>
            </Position>
            <AltitudeMeters>18.3999996185302734375</AltitudeMeters>
            <DistanceMeters>NAN</DistanceMeters>
          </Trackpoint>
          <Trackpoint>
            <Time>2022-07-07T10:29:54.000Z</Time>
            <Position>
              <LatitudeDegrees>43.57206542976200580596923828125</LatitudeDegrees>
              <LongitudeDegrees>-1.47165633738040924072265625</LongitudeDegrees>
            </Position>
            <AltitudeMeters>18.200000762939453125</AltitudeMeters>
            <DistanceMeters>NAN</DistanceMeters>
          </Trackpoint>
          <Trackpoint>
            <Time>2022-07-07T10:29:58.000Z</Time>
            <Position>
              <LatitudeDegrees>43.5720681957900524139404296875</LatitudeDegrees>
              <LongitudeDegrees>-1.4716856740415096282958984375</LongitudeDegrees>
            </Position>
            <AltitudeMeters>18</AltitudeMeters>
            <DistanceMeters>NAN</DistanceMeters>
          </Trackpoint>
          <Trackpoint>
            <Time>2022-07-07T10:30:08.000Z</Time>
            <Position>
              <LatitudeDegrees>43.57200508005917072296142578125</LatitudeDegrees>
              <LongitudeDegrees>-1.4717294275760650634765625</LongitudeDegrees>
            </Position>
            <AltitudeMeters>18</AltitudeMeters>
            <DistanceMeters>NAN</DistanceMeters>
          </Trackpoint>
          <Trackpoint>
            <Time>2022-07-07T10:30:09.000Z</Time>
            <Position>
              <LatitudeDegrees>43.572000302374362945556640625</LatitudeDegrees>
              <LongitudeDegrees>-1.4717547409236431121826171875</LongitudeDegrees>
            </Position>
            <AltitudeMeters>18</AltitudeMeters>
            <DistanceMeters>NAN</DistanceMeters>
          </Trackpoint>
          <Trackpoint>
            <Time>2022-07-07T10:30:10.000Z</Time>
            <Position>
              <LatitudeDegrees>43.57198647223412990570068359375</LatitudeDegrees>
              <LongitudeDegrees>-1.4717822335660457611083984375</LongitudeDegrees>
            </Position>
            <AltitudeMeters>18</AltitudeMeters>
            <DistanceMeters>NAN</DistanceMeters>
          </Trackpoint>
          <Trackpoint>
            <Time>2022-07-07T10:30:12.000Z</Time>
            <Position>
              <LatitudeDegrees>43.57194422744214534759521484375</LatitudeDegrees>
              <LongitudeDegrees>-1.4718152582645416259765625</LongitudeDegrees>
            </Position>
            <AltitudeMeters>18.200000762939453125</AltitudeMeters>
            <DistanceMeters>NAN</DistanceMeters>
          </Trackpoint>
          <Trackpoint>
            <Time>2022-07-07T10:30:19.000Z</Time>
            <Position>
              <LatitudeDegrees>43.57177826575934886932373046875</LatitudeDegrees>
              <LongitudeDegrees>-1.4718995802104473114013671875</LongitudeDegrees>
            </Position>
            <AltitudeMeters>18.200000762939453125</AltitudeMeters>
            <DistanceMeters>NAN</DistanceMeters>
          </Trackpoint>
          <Trackpoint>
            <Time>2022-07-07T10:30:23.000Z</Time>
            <Position>
              <LatitudeDegrees>43.5716913454234600067138671875</LatitudeDegrees>
              <LongitudeDegrees>-1.4719743467867374420166015625</LongitudeDegrees>
            </Position>
            <AltitudeMeters>18.3999996185302734375</AltitudeMeters>
            <DistanceMeters>NAN</DistanceMeters>
          </Trackpoint>
          <Trackpoint>
            <Time>2022-07-07T10:30:25.000Z</Time>
            <Position>
              <LatitudeDegrees>43.57163988053798675537109375</LatitudeDegrees>
              <LongitudeDegrees>-1.4720179326832294464111328125</LongitudeDegrees>
            </Position>
            <AltitudeMeters>18.6000003814697265625</AltitudeMeters>
            <DistanceMeters>NAN</DistanceMeters>
          </Trackpoint>
          <Trackpoint>
            <Time>2022-07-07T10:30:28.000Z</Time>
            <Position>
              <LatitudeDegrees>43.57156301848590373992919921875</LatitudeDegrees>
              <LongitudeDegrees>-1.4721064455807209014892578125</LongitudeDegrees>
            </Position>
            <AltitudeMeters>18.6000003814697265625</AltitudeMeters>
            <DistanceMeters>NAN</DistanceMeters>
          </Trackpoint>
          <Trackpoint>
            <Time>2022-07-07T10:30:29.000Z</Time>
            <Position>
              <LatitudeDegrees>43.5715367831289768218994140625</LatitudeDegrees>
              <LongitudeDegrees>-1.47213402204215526580810546875</LongitudeDegrees>
            </Position>
            <AltitudeMeters>18.6000003814697265625</AltitudeMeters>
            <DistanceMeters>NAN</DistanceMeters>
          </Trackpoint>
          <Trackpoint>
            <Time>2022-07-07T10:30:31.000Z</Time>
            <Position>
              <LatitudeDegrees>43.57145405374467372894287109375</LatitudeDegrees>
              <LongitudeDegrees>-1.47220619022846221923828125</LongitudeDegrees>
            </Position>
            <AltitudeMeters>18.200000762939453125</AltitudeMeters>
            <DistanceMeters>NAN</DistanceMeters>
          </Trackpoint>
          <Trackpoint>
            <Time>2022-07-07T10:30:32.000Z</Time>
            <Position>
              <LatitudeDegrees>43.57141180895268917083740234375</LatitudeDegrees>
              <LongitudeDegrees>-1.4722174219787120819091796875</LongitudeDegrees>
            </Position>
            <AltitudeMeters>18</AltitudeMeters>
            <DistanceMeters>NAN</DistanceMeters>
          </Trackpoint>
          <Trackpoint>
            <Time>2022-07-07T10:30:33.000Z</Time>
            <Position>
              <LatitudeDegrees>43.57137836515903472900390625</LatitudeDegrees>
              <LongitudeDegrees>-1.4722100459039211273193359375</LongitudeDegrees>
            </Position>
            <AltitudeMeters>17.799999237060546875</AltitudeMeters>
            <DistanceMeters>NAN</DistanceMeters>
          </Trackpoint>
          <Trackpoint>
            <Time>2022-07-07T10:30:35.000Z</Time>
            <Position>
              <LatitudeDegrees>43.57129395939409732818603515625</LatitudeDegrees>
              <LongitudeDegrees>-1.47216419689357280731201171875</LongitudeDegrees>
            </Position>
            <AltitudeMeters>17.3999996185302734375</AltitudeMeters>
            <DistanceMeters>NAN</DistanceMeters>
          </Trackpoint>
          <Trackpoint>
            <Time>2022-07-07T10:30:36.000Z</Time>
            <Position>
              <LatitudeDegrees>43.57126143760979175567626953125</LatitudeDegrees>
              <LongitudeDegrees>-1.47212438285350799560546875</LongitudeDegrees>
            </Position>
            <AltitudeMeters>17.200000762939453125</AltitudeMeters>
            <DistanceMeters>NAN</DistanceMeters>
          </Trackpoint>
          <Trackpoint>
            <Time>2022-07-07T10:30:37.000Z</Time>
            <Position>
              <LatitudeDegrees>43.57123394496738910675048828125</LatitudeDegrees>
              <LongitudeDegrees>-1.472087167203426361083984375</LongitudeDegrees>
            </Position>
            <AltitudeMeters>17.200000762939453125</AltitudeMeters>
            <DistanceMeters>NAN</DistanceMeters>
          </Trackpoint>
          <Trackpoint>
            <Time>2022-07-07T10:30:38.000Z</Time>
            <Position>
              <LatitudeDegrees>43.57119505293667316436767578125</LatitudeDegrees>
              <LongitudeDegrees>-1.4720499515533447265625</LongitudeDegrees>
            </Position>
            <AltitudeMeters>17</AltitudeMeters>
            <DistanceMeters>NAN</DistanceMeters>
          </Trackpoint>
          <Trackpoint>
            <Time>2022-07-07T10:30:39.000Z</Time>
            <Position>
              <LatitudeDegrees>43.5711673088371753692626953125</LatitudeDegrees>
              <LongitudeDegrees>-1.47202690131962299346923828125</LongitudeDegrees>
            </Position>
            <AltitudeMeters>17</AltitudeMeters>
            <DistanceMeters>NAN</DistanceMeters>
          </Trackpoint>
          <Trackpoint>
            <Time>2022-07-07T10:30:40.000Z</Time>
            <Position>
              <LatitudeDegrees>43.57112430967390537261962890625</LatitudeDegrees>
              <LongitudeDegrees>-1.47199203260242938995361328125</LongitudeDegrees>
            </Position>
            <AltitudeMeters>17</AltitudeMeters>
            <DistanceMeters>NAN</DistanceMeters>
          </Trackpoint>
          <Trackpoint>
            <Time>2022-07-07T10:30:41.000Z</Time>
            <Position>
              <LatitudeDegrees>43.5710947215557098388671875</LatitudeDegrees>
              <LongitudeDegrees>-1.471968479454517364501953125</LongitudeDegrees>
            </Position>
            <AltitudeMeters>17</AltitudeMeters>
            <DistanceMeters>NAN</DistanceMeters>
          </Trackpoint>
          <Trackpoint>
            <Time>2022-07-07T10:30:43.000Z</Time>
            <Position>
              <LatitudeDegrees>43.57101769186556339263916015625</LatitudeDegrees>
              <LongitudeDegrees>-1.47191173397004604339599609375</LongitudeDegrees>
            </Position>
            <AltitudeMeters>16.799999237060546875</AltitudeMeters>
            <DistanceMeters>NAN</DistanceMeters>
          </Trackpoint>
          <Trackpoint>
            <Time>2022-07-07T10:30:46.000Z</Time>
            <Position>
              <LatitudeDegrees>43.57091367244720458984375</LatitudeDegrees>
              <LongitudeDegrees>-1.4718313515186309814453125</LongitudeDegrees>
            </Position>
            <AltitudeMeters>16.799999237060546875</AltitudeMeters>
            <DistanceMeters>NAN</DistanceMeters>
          </Trackpoint>
          <Trackpoint>
            <Time>2022-07-07T10:30:48.000Z</Time>
            <Position>
              <LatitudeDegrees>43.5708484612405300140380859375</LatitudeDegrees>
              <LongitudeDegrees>-1.471773348748683929443359375</LongitudeDegrees>
            </Position>
            <AltitudeMeters>16.3999996185302734375</AltitudeMeters>
            <DistanceMeters>NAN</DistanceMeters>
          </Trackpoint>
          <Trackpoint>
            <Time>2022-07-07T10:30:49.000Z</Time>
            <Position>
              <LatitudeDegrees>43.5708156041800975799560546875</LatitudeDegrees>
              <LongitudeDegrees>-1.47173873148858547210693359375</LongitudeDegrees>
            </Position>
            <AltitudeMeters>16.200000762939453125</AltitudeMeters>
            <DistanceMeters>NAN</DistanceMeters>
          </Trackpoint>
          <Trackpoint>
            <Time>2022-07-07T10:30:54.000Z</Time>
            <Position>
              <LatitudeDegrees>43.57062323950231075286865234375</LatitudeDegrees>
              <LongitudeDegrees>-1.47158400155603885650634765625</LongitudeDegrees>
            </Position>
            <AltitudeMeters>15.80000019073486328125</AltitudeMeters>
            <DistanceMeters>NAN</DistanceMeters>
          </Trackpoint>
          <Trackpoint>
            <Time>2022-07-07T10:30:57.000Z</Time>
            <Position>
              <LatitudeDegrees>43.5705073177814483642578125</LatitudeDegrees>
              <LongitudeDegrees>-1.47149213589727878570556640625</LongitudeDegrees>
            </Position>
            <AltitudeMeters>15.80000019073486328125</AltitudeMeters>
            <DistanceMeters>NAN</DistanceMeters>
          </Trackpoint>
          <Trackpoint>
            <Time>2022-07-07T10:31:01.000Z</Time>
            <Position>
              <LatitudeDegrees>43.570335991680622100830078125</LatitudeDegrees>
              <LongitudeDegrees>-1.47137814201414585113525390625</LongitudeDegrees>
            </Position>
            <AltitudeMeters>15.80000019073486328125</AltitudeMeters>
            <DistanceMeters>NAN</DistanceMeters>
          </Trackpoint>
          <Trackpoint>
            <Time>2022-07-07T10:31:05.000Z</Time>
            <Position>
              <LatitudeDegrees>43.5701755620539188385009765625</LatitudeDegrees>
              <LongitudeDegrees>-1.47123866714537143707275390625</LongitudeDegrees>
            </Position>
            <AltitudeMeters>15.80000019073486328125</AltitudeMeters>
            <DistanceMeters>NAN</DistanceMeters>
          </Trackpoint>
          <Trackpoint>
            <Time>2022-07-07T10:31:08.000Z</Time>
            <Position>
              <LatitudeDegrees>43.5700441338121891021728515625</LatitudeDegrees>
              <LongitudeDegrees>-1.4711676724255084991455078125</LongitudeDegrees>
            </Position>
            <AltitudeMeters>15.80000019073486328125</AltitudeMeters>
            <DistanceMeters>NAN</DistanceMeters>
          </Trackpoint>
          <Trackpoint>
            <Time>2022-07-07T10:31:11.000Z</Time>
            <Position>
              <LatitudeDegrees>43.56991119682788848876953125</LatitudeDegrees>
              <LongitudeDegrees>-1.47114026360213756561279296875</LongitudeDegrees>
            </Position>
            <AltitudeMeters>15.80000019073486328125</AltitudeMeters>
            <DistanceMeters>NAN</DistanceMeters>
          </Trackpoint>
          <Trackpoint>
            <Time>2022-07-07T10:31:13.000Z</Time>
            <Position>
              <LatitudeDegrees>43.5698493383824825286865234375</LatitudeDegrees>
              <LongitudeDegrees>-1.47117731161415576934814453125</LongitudeDegrees>
            </Position>
            <AltitudeMeters>16.200000762939453125</AltitudeMeters>
            <DistanceMeters>NAN</DistanceMeters>
          </Trackpoint>
          <Trackpoint>
            <Time>2022-07-07T10:31:14.000Z</Time>
            <Position>
              <LatitudeDegrees>43.56981731951236724853515625</LatitudeDegrees>
              <LongitudeDegrees>-1.47119876928627490997314453125</LongitudeDegrees>
            </Position>
            <AltitudeMeters>16.3999996185302734375</AltitudeMeters>
            <DistanceMeters>NAN</DistanceMeters>
          </Trackpoint>
          <Trackpoint>
            <Time>2022-07-07T10:31:16.000Z</Time>
            <Position>
              <LatitudeDegrees>43.5697484202682971954345703125</LatitudeDegrees>
              <LongitudeDegrees>-1.47126473486423492431640625</LongitudeDegrees>
            </Position>
            <AltitudeMeters>16.6000003814697265625</AltitudeMeters>
            <DistanceMeters>NAN</DistanceMeters>
          </Trackpoint>
          <Trackpoint>
            <Time>2022-07-07T10:31:20.000Z</Time>
            <Position>
              <LatitudeDegrees>43.56960542500019073486328125</LatitudeDegrees>
              <LongitudeDegrees>-1.4714276790618896484375</LongitudeDegrees>
            </Position>
            <AltitudeMeters>16.799999237060546875</AltitudeMeters>
            <DistanceMeters>NAN</DistanceMeters>
          </Trackpoint>
          <Trackpoint>
            <Time>2022-07-07T10:31:22.000Z</Time>
            <Position>
              <LatitudeDegrees>43.5695398785173892974853515625</LatitudeDegrees>
              <LongitudeDegrees>-1.471510492265224456787109375</LongitudeDegrees>
            </Position>
            <AltitudeMeters>16.799999237060546875</AltitudeMeters>
            <DistanceMeters>NAN</DistanceMeters>
          </Trackpoint>
          <Trackpoint>
            <Time>2022-07-07T10:31:29.000Z</Time>
            <Position>
              <LatitudeDegrees>43.56931197457015514373779296875</LatitudeDegrees>
              <LongitudeDegrees>-1.47179313004016876220703125</LongitudeDegrees>
            </Position>
            <AltitudeMeters>16.6000003814697265625</AltitudeMeters>
            <DistanceMeters>NAN</DistanceMeters>
          </Trackpoint>
          <Trackpoint>
            <Time>2022-07-07T10:31:31.000Z</Time>
            <Position>
              <LatitudeDegrees>43.5692458413541316986083984375</LatitudeDegrees>
              <LongitudeDegrees>-1.47188122384250164031982421875</LongitudeDegrees>
            </Position>
            <AltitudeMeters>16.6000003814697265625</AltitudeMeters>
            <DistanceMeters>NAN</DistanceMeters>
          </Trackpoint>
          <Trackpoint>
            <Time>2022-07-07T10:31:33.000Z</Time>
            <Position>
              <LatitudeDegrees>43.56917987577617168426513671875</LatitudeDegrees>
              <LongitudeDegrees>-1.47196822799742221832275390625</LongitudeDegrees>
            </Position>
            <AltitudeMeters>16.6000003814697265625</AltitudeMeters>
            <DistanceMeters>NAN</DistanceMeters>
          </Trackpoint>
          <Trackpoint>
            <Time>2022-07-07T10:31:37.000Z</Time>
            <Position>
              <LatitudeDegrees>43.569031767547130584716796875</LatitudeDegrees>
              <LongitudeDegrees>-1.47213754244148731231689453125</LongitudeDegrees>
            </Position>
            <AltitudeMeters>16.3999996185302734375</AltitudeMeters>
            <DistanceMeters>NAN</DistanceMeters>
          </Trackpoint>
          <Trackpoint>
            <Time>2022-07-07T10:31:39.000Z</Time>
            <Position>
              <LatitudeDegrees>43.5689474456012248992919921875</LatitudeDegrees>
              <LongitudeDegrees>-1.47216687910258769989013671875</LongitudeDegrees>
            </Position>
            <AltitudeMeters>16.200000762939453125</AltitudeMeters>
            <DistanceMeters>NAN</DistanceMeters>
          </Trackpoint>
          <Trackpoint>
            <Time>2022-07-07T10:31:40.000Z</Time>
            <Position>
              <LatitudeDegrees>43.56890209950506687164306640625</LatitudeDegrees>
              <LongitudeDegrees>-1.472150869667530059814453125</LongitudeDegrees>
            </Position>
            <AltitudeMeters>16.200000762939453125</AltitudeMeters>
            <DistanceMeters>NAN</DistanceMeters>
          </Trackpoint>
          <Trackpoint>
            <Time>2022-07-07T10:31:41.000Z</Time>
            <Position>
              <LatitudeDegrees>43.56886387802660465240478515625</LatitudeDegrees>
              <LongitudeDegrees>-1.472116671502590179443359375</LongitudeDegrees>
            </Position>
            <AltitudeMeters>16</AltitudeMeters>
            <DistanceMeters>NAN</DistanceMeters>
          </Trackpoint>
          <Trackpoint>
            <Time>2022-07-07T10:31:43.000Z</Time>
            <Position>
              <LatitudeDegrees>43.56878559105098247528076171875</LatitudeDegrees>
              <LongitudeDegrees>-1.47202539257705211639404296875</LongitudeDegrees>
            </Position>
            <AltitudeMeters>15.80000019073486328125</AltitudeMeters>
            <DistanceMeters>NAN</DistanceMeters>
          </Trackpoint>
          <Trackpoint>
            <Time>2022-07-07T10:31:44.000Z</Time>
            <Position>
              <LatitudeDegrees>43.5687509737908840179443359375</LatitudeDegrees>
              <LongitudeDegrees>-1.47197308950126171112060546875</LongitudeDegrees>
            </Position>
            <AltitudeMeters>15.80000019073486328125</AltitudeMeters>
            <DistanceMeters>NAN</DistanceMeters>
          </Trackpoint>
          <Trackpoint>
            <Time>2022-07-07T10:31:45.000Z</Time>
            <Position>
              <LatitudeDegrees>43.56871685944497585296630859375</LatitudeDegrees>
              <LongitudeDegrees>-1.4719223789870738983154296875</LongitudeDegrees>
            </Position>
            <AltitudeMeters>15.80000019073486328125</AltitudeMeters>
            <DistanceMeters>NAN</DistanceMeters>
          </Trackpoint>
          <Trackpoint>
            <Time>2022-07-07T10:31:46.000Z</Time>
            <Position>
              <LatitudeDegrees>43.56868182308971881866455078125</LatitudeDegrees>
              <LongitudeDegrees>-1.47187284193933010101318359375</LongitudeDegrees>
            </Position>
            <AltitudeMeters>15.6000003814697265625</AltitudeMeters>
            <DistanceMeters>NAN</DistanceMeters>
          </Trackpoint>
          <Trackpoint>
            <Time>2022-07-07T10:31:47.000Z</Time>
            <Position>
              <LatitudeDegrees>43.568650893867015838623046875</LatitudeDegrees>
              <LongitudeDegrees>-1.47182355634868144989013671875</LongitudeDegrees>
            </Position>
            <AltitudeMeters>15.6000003814697265625</AltitudeMeters>
            <DistanceMeters>NAN</DistanceMeters>
          </Trackpoint>
          <Trackpoint>
            <Time>2022-07-07T10:31:49.000Z</Time>
            <Position>
              <LatitudeDegrees>43.56858258135616779327392578125</LatitudeDegrees>
              <LongitudeDegrees>-1.4717238955199718475341796875</LongitudeDegrees>
            </Position>
            <AltitudeMeters>15.6000003814697265625</AltitudeMeters>
            <DistanceMeters>NAN</DistanceMeters>
          </Trackpoint>
          <Trackpoint>
            <Time>2022-07-07T10:31:56.000Z</Time>
            <Position>
              <LatitudeDegrees>43.56836088001728057861328125</LatitudeDegrees>
              <LongitudeDegrees>-1.47143312729895114898681640625</LongitudeDegrees>
            </Position>
            <AltitudeMeters>16</AltitudeMeters>
            <DistanceMeters>NAN</DistanceMeters>
          </Trackpoint>
          <Trackpoint>
            <Time>2022-07-07T10:31:58.000Z</Time>
            <Position>
              <LatitudeDegrees>43.56830296106636524200439453125</LatitudeDegrees>
              <LongitudeDegrees>-1.47134386003017425537109375</LongitudeDegrees>
            </Position>
            <AltitudeMeters>16.200000762939453125</AltitudeMeters>
            <DistanceMeters>NAN</DistanceMeters>
          </Trackpoint>
          <Trackpoint>
            <Time>2022-07-07T10:32:02.000Z</Time>
            <Position>
              <LatitudeDegrees>43.5681873746216297149658203125</LatitudeDegrees>
              <LongitudeDegrees>-1.4711505733430385589599609375</LongitudeDegrees>
            </Position>
            <AltitudeMeters>16.200000762939453125</AltitudeMeters>
            <DistanceMeters>NAN</DistanceMeters>
          </Trackpoint>
          <Trackpoint>
            <Time>2022-07-07T10:32:10.000Z</Time>
            <Position>
              <LatitudeDegrees>43.5679241828620433807373046875</LatitudeDegrees>
              <LongitudeDegrees>-1.470784954726696014404296875</LongitudeDegrees>
            </Position>
            <AltitudeMeters>15.80000019073486328125</AltitudeMeters>
            <DistanceMeters>NAN</DistanceMeters>
          </Trackpoint>
          <Trackpoint>
            <Time>2022-07-07T10:32:12.000Z</Time>
            <Position>
              <LatitudeDegrees>43.56783860363066196441650390625</LatitudeDegrees>
              <LongitudeDegrees>-1.4706939272582530975341796875</LongitudeDegrees>
            </Position>
            <AltitudeMeters>16</AltitudeMeters>
            <DistanceMeters>NAN</DistanceMeters>
          </Trackpoint>
          <Trackpoint>
            <Time>2022-07-07T10:32:16.000Z</Time>
            <Position>
              <LatitudeDegrees>43.56768974103033542633056640625</LatitudeDegrees>
              <LongitudeDegrees>-1.4705088548362255096435546875</LongitudeDegrees>
            </Position>
            <AltitudeMeters>16.200000762939453125</AltitudeMeters>
            <DistanceMeters>NAN</DistanceMeters>
          </Trackpoint>
          <Trackpoint>
            <Time>2022-07-07T10:32:20.000Z</Time>
            <Position>
              <LatitudeDegrees>43.56755076907575130462646484375</LatitudeDegrees>
              <LongitudeDegrees>-1.470330320298671722412109375</LongitudeDegrees>
            </Position>
            <AltitudeMeters>16.3999996185302734375</AltitudeMeters>
            <DistanceMeters>NAN</DistanceMeters>
          </Trackpoint>
          <Trackpoint>
            <Time>2022-07-07T10:32:30.000Z</Time>
            <Position>
              <LatitudeDegrees>43.5672271437942981719970703125</LatitudeDegrees>
              <LongitudeDegrees>-1.46987325511872768402099609375</LongitudeDegrees>
            </Position>
            <AltitudeMeters>15.6000003814697265625</AltitudeMeters>
            <DistanceMeters>NAN</DistanceMeters>
          </Trackpoint>
          <Trackpoint>
            <Time>2022-07-07T10:32:32.000Z</Time>
            <Position>
              <LatitudeDegrees>43.56715933419764041900634765625</LatitudeDegrees>
              <LongitudeDegrees>-1.46978055126965045928955078125</LongitudeDegrees>
            </Position>
            <AltitudeMeters>15</AltitudeMeters>
            <DistanceMeters>NAN</DistanceMeters>
          </Trackpoint>
          <Trackpoint>
            <Time>2022-07-07T10:32:40.000Z</Time>
            <Position>
              <LatitudeDegrees>43.56689262203872203826904296875</LatitudeDegrees>
              <LongitudeDegrees>-1.469413675367832183837890625</LongitudeDegrees>
            </Position>
            <AltitudeMeters>14.80000019073486328125</AltitudeMeters>
            <DistanceMeters>NAN</DistanceMeters>
          </Trackpoint>
          <Trackpoint>
            <Time>2022-07-07T10:32:44.000Z</Time>
            <Position>
              <LatitudeDegrees>43.566758930683135986328125</LatitudeDegrees>
              <LongitudeDegrees>-1.46922759711742401123046875</LongitudeDegrees>
            </Position>
            <AltitudeMeters>14.6000003814697265625</AltitudeMeters>
            <DistanceMeters>NAN</DistanceMeters>
          </Trackpoint>
          <Trackpoint>
            <Time>2022-07-07T10:32:48.000Z</Time>
            <Position>
              <LatitudeDegrees>43.56662993319332599639892578125</LatitudeDegrees>
              <LongitudeDegrees>-1.46903389133512973785400390625</LongitudeDegrees>
            </Position>
            <AltitudeMeters>14.3999996185302734375</AltitudeMeters>
            <DistanceMeters>NAN</DistanceMeters>
          </Trackpoint>
          <Trackpoint>
            <Time>2022-07-07T10:32:49.000Z</Time>
            <Position>
              <LatitudeDegrees>43.566597662866115570068359375</LatitudeDegrees>
              <LongitudeDegrees>-1.46898862905800342559814453125</LongitudeDegrees>
            </Position>
            <AltitudeMeters>14.3999996185302734375</AltitudeMeters>
            <DistanceMeters>NAN</DistanceMeters>
          </Trackpoint>
          <Trackpoint>
            <Time>2022-07-07T10:32:54.000Z</Time>
            <Position>
              <LatitudeDegrees>43.56642927043139934539794921875</LatitudeDegrees>
              <LongitudeDegrees>-1.46875016391277313232421875</LongitudeDegrees>
            </Position>
            <AltitudeMeters>14.19999980926513671875</AltitudeMeters>
            <DistanceMeters>NAN</DistanceMeters>
          </Trackpoint>
          <Trackpoint>
            <Time>2022-07-07T10:32:58.000Z</Time>
            <Position>
              <LatitudeDegrees>43.56628962792456150054931640625</LatitudeDegrees>
              <LongitudeDegrees>-1.46855528466403484344482421875</LongitudeDegrees>
            </Position>
            <AltitudeMeters>14.19999980926513671875</AltitudeMeters>
            <DistanceMeters>NAN</DistanceMeters>
          </Trackpoint>
          <Trackpoint>
            <Time>2022-07-07T10:33:06.000Z</Time>
            <Position>
              <LatitudeDegrees>43.5660040564835071563720703125</LatitudeDegrees>
              <LongitudeDegrees>-1.468160413205623626708984375</LongitudeDegrees>
            </Position>
            <AltitudeMeters>14.3999996185302734375</AltitudeMeters>
            <DistanceMeters>NAN</DistanceMeters>
          </Trackpoint>
          <Trackpoint>
            <Time>2022-07-07T10:33:11.000Z</Time>
            <Position>
              <LatitudeDegrees>43.5658156313002109527587890625</LatitudeDegrees>
              <LongitudeDegrees>-1.4679255522787570953369140625</LongitudeDegrees>
            </Position>
            <AltitudeMeters>14</AltitudeMeters>
            <DistanceMeters>NAN</DistanceMeters>
          </Trackpoint>
          <Trackpoint>
            <Time>2022-07-07T10:33:13.000Z</Time>
            <Position>
              <LatitudeDegrees>43.56573508121073246002197265625</LatitudeDegrees>
              <LongitudeDegrees>-1.4678330160677433013916015625</LongitudeDegrees>
            </Position>
            <AltitudeMeters>14</AltitudeMeters>
            <DistanceMeters>NAN</DistanceMeters>
          </Trackpoint>
          <Trackpoint>
            <Time>2022-07-07T10:33:19.000Z</Time>
            <Position>
              <LatitudeDegrees>43.56552687473595142364501953125</LatitudeDegrees>
              <LongitudeDegrees>-1.46754023618996143341064453125</LongitudeDegrees>
            </Position>
            <AltitudeMeters>14.19999980926513671875</AltitudeMeters>
            <DistanceMeters>NAN</DistanceMeters>
          </Trackpoint>
          <Trackpoint>
            <Time>2022-07-07T10:33:21.000Z</Time>
            <Position>
              <LatitudeDegrees>43.5654728114604949951171875</LatitudeDegrees>
              <LongitudeDegrees>-1.46743345074355602264404296875</LongitudeDegrees>
            </Position>
            <AltitudeMeters>14.19999980926513671875</AltitudeMeters>
            <DistanceMeters>NAN</DistanceMeters>
          </Trackpoint>
          <Trackpoint>
            <Time>2022-07-07T10:33:24.000Z</Time>
            <Position>
              <LatitudeDegrees>43.5654055885970592498779296875</LatitudeDegrees>
              <LongitudeDegrees>-1.4672593586146831512451171875</LongitudeDegrees>
            </Position>
            <AltitudeMeters>13.80000019073486328125</AltitudeMeters>
            <DistanceMeters>NAN</DistanceMeters>
          </Trackpoint>
          <Trackpoint>
            <Time>2022-07-07T10:33:27.000Z</Time>
            <Position>
              <LatitudeDegrees>43.56534062884747982025146484375</LatitudeDegrees>
              <LongitudeDegrees>-1.46709934808313846588134765625</LongitudeDegrees>
            </Position>
            <AltitudeMeters>13.80000019073486328125</AltitudeMeters>
            <DistanceMeters>NAN</DistanceMeters>
          </Trackpoint>
          <Trackpoint>
            <Time>2022-07-07T10:33:36.000Z</Time>
            <Position>
              <LatitudeDegrees>43.565134517848491668701171875</LatitudeDegrees>
              <LongitudeDegrees>-1.46659978665411472320556640625</LongitudeDegrees>
            </Position>
            <AltitudeMeters>13.80000019073486328125</AltitudeMeters>
            <DistanceMeters>NAN</DistanceMeters>
          </Trackpoint>
          <Trackpoint>
            <Time>2022-07-07T10:33:42.000Z</Time>
            <Position>
              <LatitudeDegrees>43.5650153271853923797607421875</LatitudeDegrees>
              <LongitudeDegrees>-1.46623902954161167144775390625</LongitudeDegrees>
            </Position>
            <AltitudeMeters>14.19999980926513671875</AltitudeMeters>
            <DistanceMeters>NAN</DistanceMeters>
          </Trackpoint>
          <Trackpoint>
            <Time>2022-07-07T10:33:43.000Z</Time>
            <Position>
              <LatitudeDegrees>43.56499630026519298553466796875</LatitudeDegrees>
              <LongitudeDegrees>-1.466183625161647796630859375</LongitudeDegrees>
            </Position>
            <AltitudeMeters>14.3999996185302734375</AltitudeMeters>
            <DistanceMeters>NAN</DistanceMeters>
          </Trackpoint>
          <Trackpoint>
            <Time>2022-07-07T10:33:45.000Z</Time>
            <Position>
              <LatitudeDegrees>43.56494952924549579620361328125</LatitudeDegrees>
              <LongitudeDegrees>-1.4660833775997161865234375</LongitudeDegrees>
            </Position>
            <AltitudeMeters>14.3999996185302734375</AltitudeMeters>
            <DistanceMeters>NAN</DistanceMeters>
          </Trackpoint>
          <Trackpoint>
            <Time>2022-07-07T10:33:47.000Z</Time>
            <Position>
              <LatitudeDegrees>43.564909212291240692138671875</LatitudeDegrees>
              <LongitudeDegrees>-1.465970389544963836669921875</LongitudeDegrees>
            </Position>
            <AltitudeMeters>14.3999996185302734375</AltitudeMeters>
            <DistanceMeters>NAN</DistanceMeters>
          </Trackpoint>
          <Trackpoint>
            <Time>2022-07-07T10:33:49.000Z</Time>
            <Position>
              <LatitudeDegrees>43.56485783122479915618896484375</LatitudeDegrees>
              <LongitudeDegrees>-1.46585698239505290985107421875</LongitudeDegrees>
            </Position>
            <AltitudeMeters>14.19999980926513671875</AltitudeMeters>
            <DistanceMeters>NAN</DistanceMeters>
          </Trackpoint>
          <Trackpoint>
            <Time>2022-07-07T10:33:51.000Z</Time>
            <Position>
              <LatitudeDegrees>43.56478658504784107208251953125</LatitudeDegrees>
              <LongitudeDegrees>-1.465758495032787322998046875</LongitudeDegrees>
            </Position>
            <AltitudeMeters>14</AltitudeMeters>
            <DistanceMeters>NAN</DistanceMeters>
          </Trackpoint>
          <Trackpoint>
            <Time>2022-07-07T10:33:53.000Z</Time>
            <Position>
              <LatitudeDegrees>43.5647055320441722869873046875</LatitudeDegrees>
              <LongitudeDegrees>-1.465717256069183349609375</LongitudeDegrees>
            </Position>
            <AltitudeMeters>14</AltitudeMeters>
            <DistanceMeters>NAN</DistanceMeters>
          </Trackpoint>
          <Trackpoint>
            <Time>2022-07-07T10:33:55.000Z</Time>
            <Position>
              <LatitudeDegrees>43.564612828195095062255859375</LatitudeDegrees>
              <LongitudeDegrees>-1.46572940982878208160400390625</LongitudeDegrees>
            </Position>
            <AltitudeMeters>14</AltitudeMeters>
            <DistanceMeters>NAN</DistanceMeters>
          </Trackpoint>
          <Trackpoint>
            <Time>2022-07-07T10:33:57.000Z</Time>
            <Position>
              <LatitudeDegrees>43.56451769359409809112548828125</LatitudeDegrees>
              <LongitudeDegrees>-1.4657677151262760162353515625</LongitudeDegrees>
            </Position>
            <AltitudeMeters>14.19999980926513671875</AltitudeMeters>
            <DistanceMeters>NAN</DistanceMeters>
          </Trackpoint>
          <Trackpoint>
            <Time>2022-07-07T10:33:59.000Z</Time>
            <Position>
              <LatitudeDegrees>43.564433790743350982666015625</LatitudeDegrees>
              <LongitudeDegrees>-1.46581540815532207489013671875</LongitudeDegrees>
            </Position>
            <AltitudeMeters>14.19999980926513671875</AltitudeMeters>
            <DistanceMeters>NAN</DistanceMeters>
          </Trackpoint>
          <Trackpoint>
            <Time>2022-07-07T10:34:01.000Z</Time>
            <Position>
              <LatitudeDegrees>43.564341254532337188720703125</LatitudeDegrees>
              <LongitudeDegrees>-1.465872488915920257568359375</LongitudeDegrees>
            </Position>
            <AltitudeMeters>14.19999980926513671875</AltitudeMeters>
            <DistanceMeters>NAN</DistanceMeters>
          </Trackpoint>
          <Trackpoint>
            <Time>2022-07-07T10:34:07.000Z</Time>
            <Position>
              <LatitudeDegrees>43.564109243452548980712890625</LatitudeDegrees>
              <LongitudeDegrees>-1.466009281575679779052734375</LongitudeDegrees>
            </Position>
            <AltitudeMeters>14.6000003814697265625</AltitudeMeters>
            <DistanceMeters>NAN</DistanceMeters>
          </Trackpoint>
          <Trackpoint>
            <Time>2022-07-07T10:34:08.000Z</Time>
            <Position>
              <LatitudeDegrees>43.56405459344387054443359375</LatitudeDegrees>
              <LongitudeDegrees>-1.46603040397167205810546875</LongitudeDegrees>
            </Position>
            <AltitudeMeters>14.80000019073486328125</AltitudeMeters>
            <DistanceMeters>NAN</DistanceMeters>
          </Trackpoint>
          <Trackpoint>
            <Time>2022-07-07T10:34:10.000Z</Time>
            <Position>
              <LatitudeDegrees>43.56395803391933441162109375</LatitudeDegrees>
              <LongitudeDegrees>-1.46608748473227024078369140625</LongitudeDegrees>
            </Position>
            <AltitudeMeters>14.80000019073486328125</AltitudeMeters>
            <DistanceMeters>NAN</DistanceMeters>
          </Trackpoint>
          <Trackpoint>
            <Time>2022-07-07T10:34:12.000Z</Time>
            <Position>
              <LatitudeDegrees>43.5638934932649135589599609375</LatitudeDegrees>
              <LongitudeDegrees>-1.46614439785480499267578125</LongitudeDegrees>
            </Position>
            <AltitudeMeters>15</AltitudeMeters>
            <DistanceMeters>NAN</DistanceMeters>
          </Trackpoint>
          <Trackpoint>
            <Time>2022-07-07T10:34:13.000Z</Time>
            <Position>
              <LatitudeDegrees>43.56385703198611736297607421875</LatitudeDegrees>
              <LongitudeDegrees>-1.46616241894662380218505859375</LongitudeDegrees>
            </Position>
            <AltitudeMeters>15</AltitudeMeters>
            <DistanceMeters>NAN</DistanceMeters>
          </Trackpoint>
          <Trackpoint>
            <Time>2022-07-07T10:34:15.000Z</Time>
            <Position>
              <LatitudeDegrees>43.5637818463146686553955078125</LatitudeDegrees>
              <LongitudeDegrees>-1.46621254272758960723876953125</LongitudeDegrees>
            </Position>
            <AltitudeMeters>15.19999980926513671875</AltitudeMeters>
            <DistanceMeters>NAN</DistanceMeters>
          </Trackpoint>
          <Trackpoint>
            <Time>2022-07-07T10:34:18.000Z</Time>
            <Position>
              <LatitudeDegrees>43.5636489093303680419921875</LatitudeDegrees>
              <LongitudeDegrees>-1.46630725823342800140380859375</LongitudeDegrees>
            </Position>
            <AltitudeMeters>15.19999980926513671875</AltitudeMeters>
            <DistanceMeters>NAN</DistanceMeters>
          </Trackpoint>
          <Trackpoint>
            <Time>2022-07-07T10:34:19.000Z</Time>
            <Position>
              <LatitudeDegrees>43.56360859237611293792724609375</LatitudeDegrees>
              <LongitudeDegrees>-1.46633793599903583526611328125</LongitudeDegrees>
            </Position>
            <AltitudeMeters>15.19999980926513671875</AltitudeMeters>
            <DistanceMeters>NAN</DistanceMeters>
          </Trackpoint>
          <Trackpoint>
            <Time>2022-07-07T10:34:20.000Z</Time>
            <Position>
              <LatitudeDegrees>43.5635632462799549102783203125</LatitudeDegrees>
              <LongitudeDegrees>-1.46636241115629673004150390625</LongitudeDegrees>
            </Position>
            <AltitudeMeters>15.19999980926513671875</AltitudeMeters>
            <DistanceMeters>NAN</DistanceMeters>
          </Trackpoint>
          <Trackpoint>
            <Time>2022-07-07T10:34:22.000Z</Time>
            <Position>
              <LatitudeDegrees>43.56347632594406604766845703125</LatitudeDegrees>
              <LongitudeDegrees>-1.46642468869686126708984375</LongitudeDegrees>
            </Position>
            <AltitudeMeters>15.3999996185302734375</AltitudeMeters>
            <DistanceMeters>NAN</DistanceMeters>
          </Trackpoint>
          <Trackpoint>
            <Time>2022-07-07T10:34:23.000Z</Time>
            <Position>
              <LatitudeDegrees>43.5634214244782924652099609375</LatitudeDegrees>
              <LongitudeDegrees>-1.46645343862473964691162109375</LongitudeDegrees>
            </Position>
            <AltitudeMeters>15.19999980926513671875</AltitudeMeters>
            <DistanceMeters>NAN</DistanceMeters>
          </Trackpoint>
          <Trackpoint>
            <Time>2022-07-07T10:34:24.000Z</Time>
            <Position>
              <LatitudeDegrees>43.56337674893438816070556640625</LatitudeDegrees>
              <LongitudeDegrees>-1.466481350362300872802734375</LongitudeDegrees>
            </Position>
            <AltitudeMeters>15.19999980926513671875</AltitudeMeters>
            <DistanceMeters>NAN</DistanceMeters>
          </Trackpoint>
          <Trackpoint>
            <Time>2022-07-07T10:34:26.000Z</Time>
            <Position>
              <LatitudeDegrees>43.56329418718814849853515625</LatitudeDegrees>
              <LongitudeDegrees>-1.46653465926647186279296875</LongitudeDegrees>
            </Position>
            <AltitudeMeters>15</AltitudeMeters>
            <DistanceMeters>NAN</DistanceMeters>
          </Trackpoint>
          <Trackpoint>
            <Time>2022-07-07T10:34:28.000Z</Time>
            <Position>
              <LatitudeDegrees>43.5631982982158660888671875</LatitudeDegrees>
              <LongitudeDegrees>-1.4665847830474376678466796875</LongitudeDegrees>
            </Position>
            <AltitudeMeters>15</AltitudeMeters>
            <DistanceMeters>NAN</DistanceMeters>
          </Trackpoint>
          <Trackpoint>
            <Time>2022-07-07T10:34:33.000Z</Time>
            <Position>
              <LatitudeDegrees>43.5629778541624546051025390625</LatitudeDegrees>
              <LongitudeDegrees>-1.4667457155883312225341796875</LongitudeDegrees>
            </Position>
            <AltitudeMeters>15.19999980926513671875</AltitudeMeters>
            <DistanceMeters>NAN</DistanceMeters>
          </Trackpoint>
          <Trackpoint>
            <Time>2022-07-07T10:34:36.000Z</Time>
            <Position>
              <LatitudeDegrees>43.56286310590803623199462890625</LatitudeDegrees>
              <LongitudeDegrees>-1.46685644052922725677490234375</LongitudeDegrees>
            </Position>
            <AltitudeMeters>15.19999980926513671875</AltitudeMeters>
            <DistanceMeters>NAN</DistanceMeters>
          </Trackpoint>
          <Trackpoint>
            <Time>2022-07-07T10:34:38.000Z</Time>
            <Position>
              <LatitudeDegrees>43.56278724968433380126953125</LatitudeDegrees>
              <LongitudeDegrees>-1.46691712550818920135498046875</LongitudeDegrees>
            </Position>
            <AltitudeMeters>14.80000019073486328125</AltitudeMeters>
            <DistanceMeters>NAN</DistanceMeters>
          </Trackpoint>
          <Trackpoint>
            <Time>2022-07-07T10:34:41.000Z</Time>
            <Position>
              <LatitudeDegrees>43.5626623593270778656005859375</LatitudeDegrees>
              <LongitudeDegrees>-1.46699474193155765533447265625</LongitudeDegrees>
            </Position>
            <AltitudeMeters>14.6000003814697265625</AltitudeMeters>
            <DistanceMeters>NAN</DistanceMeters>
          </Trackpoint>
          <Trackpoint>
            <Time>2022-07-07T10:34:42.000Z</Time>
            <Position>
              <LatitudeDegrees>43.56262036599218845367431640625</LatitudeDegrees>
              <LongitudeDegrees>-1.46701720543205738067626953125</LongitudeDegrees>
            </Position>
            <AltitudeMeters>14.6000003814697265625</AltitudeMeters>
            <DistanceMeters>NAN</DistanceMeters>
          </Trackpoint>
          <Trackpoint>
            <Time>2022-07-07T10:34:46.000Z</Time>
            <Position>
              <LatitudeDegrees>43.56246228329837322235107421875</LatitudeDegrees>
              <LongitudeDegrees>-1.46711611188948154449462890625</LongitudeDegrees>
            </Position>
            <AltitudeMeters>14.80000019073486328125</AltitudeMeters>
            <DistanceMeters>NAN</DistanceMeters>
          </Trackpoint>
          <Trackpoint>
            <Time>2022-07-07T10:34:50.000Z</Time>
            <Position>
              <LatitudeDegrees>43.5622891969978809356689453125</LatitudeDegrees>
              <LongitudeDegrees>-1.4672020263969898223876953125</LongitudeDegrees>
            </Position>
            <AltitudeMeters>15</AltitudeMeters>
            <DistanceMeters>NAN</DistanceMeters>
          </Trackpoint>
          <Trackpoint>
            <Time>2022-07-07T10:34:54.000Z</Time>
            <Position>
              <LatitudeDegrees>43.5621118359267711639404296875</LatitudeDegrees>
              <LongitudeDegrees>-1.467295400798320770263671875</LongitudeDegrees>
            </Position>
            <AltitudeMeters>15</AltitudeMeters>
            <DistanceMeters>NAN</DistanceMeters>
          </Trackpoint>
          <Trackpoint>
            <Time>2022-07-07T10:34:55.000Z</Time>
            <Position>
              <LatitudeDegrees>43.5620628856122493743896484375</LatitudeDegrees>
              <LongitudeDegrees>-1.46731275133788585662841796875</LongitudeDegrees>
            </Position>
            <AltitudeMeters>15</AltitudeMeters>
            <DistanceMeters>NAN</DistanceMeters>
          </Trackpoint>
          <Trackpoint>
            <Time>2022-07-07T10:34:57.000Z</Time>
            <Position>
              <LatitudeDegrees>43.5619857721030712127685546875</LatitudeDegrees>
              <LongitudeDegrees>-1.46736404858529567718505859375</LongitudeDegrees>
            </Position>
            <AltitudeMeters>15</AltitudeMeters>
            <DistanceMeters>NAN</DistanceMeters>
          </Trackpoint>
          <Trackpoint>
            <Time>2022-07-07T10:35:00.000Z</Time>
            <Position>
              <LatitudeDegrees>43.56187404133379459381103515625</LatitudeDegrees>
              <LongitudeDegrees>-1.46743630059063434600830078125</LongitudeDegrees>
            </Position>
            <AltitudeMeters>15</AltitudeMeters>
            <DistanceMeters>NAN</DistanceMeters>
          </Trackpoint>
          <Trackpoint>
            <Time>2022-07-07T10:35:08.000Z</Time>
            <Position>
              <LatitudeDegrees>43.56150322593748569488525390625</LatitudeDegrees>
              <LongitudeDegrees>-1.46763570606708526611328125</LongitudeDegrees>
            </Position>
            <AltitudeMeters>14.80000019073486328125</AltitudeMeters>
            <DistanceMeters>NAN</DistanceMeters>
          </Trackpoint>
          <Trackpoint>
            <Time>2022-07-07T10:35:09.000Z</Time>
            <Position>
              <LatitudeDegrees>43.5614583827555179595947265625</LatitudeDegrees>
              <LongitudeDegrees>-1.46765850484371185302734375</LongitudeDegrees>
            </Position>
            <AltitudeMeters>14.80000019073486328125</AltitudeMeters>
            <DistanceMeters>NAN</DistanceMeters>
          </Trackpoint>
          <Trackpoint>
            <Time>2022-07-07T10:35:13.000Z</Time>
            <Position>
              <LatitudeDegrees>43.5613132081925868988037109375</LatitudeDegrees>
              <LongitudeDegrees>-1.46775330416858196258544921875</LongitudeDegrees>
            </Position>
            <AltitudeMeters>15</AltitudeMeters>
            <DistanceMeters>NAN</DistanceMeters>
          </Trackpoint>
          <Trackpoint>
            <Time>2022-07-07T10:35:21.000Z</Time>
            <Position>
              <LatitudeDegrees>43.56103166006505489349365234375</LatitudeDegrees>
              <LongitudeDegrees>-1.46792345680296421051025390625</LongitudeDegrees>
            </Position>
            <AltitudeMeters>15.3999996185302734375</AltitudeMeters>
            <DistanceMeters>NAN</DistanceMeters>
          </Trackpoint>
          <Trackpoint>
            <Time>2022-07-07T10:35:27.000Z</Time>
            <Position>
              <LatitudeDegrees>43.5608009062707424163818359375</LatitudeDegrees>
              <LongitudeDegrees>-1.46805278956890106201171875</LongitudeDegrees>
            </Position>
            <AltitudeMeters>15.3999996185302734375</AltitudeMeters>
            <DistanceMeters>NAN</DistanceMeters>
          </Trackpoint>
          <Trackpoint>
            <Time>2022-07-07T10:35:32.000Z</Time>
            <Position>
              <LatitudeDegrees>43.5605987347662448883056640625</LatitudeDegrees>
              <LongitudeDegrees>-1.46813183091580867767333984375</LongitudeDegrees>
            </Position>
            <AltitudeMeters>15</AltitudeMeters>
            <DistanceMeters>NAN</DistanceMeters>
          </Trackpoint>
          <Trackpoint>
            <Time>2022-07-07T10:35:34.000Z</Time>
            <Position>
              <LatitudeDegrees>43.5605343617498874664306640625</LatitudeDegrees>
              <LongitudeDegrees>-1.46814373321831226348876953125</LongitudeDegrees>
            </Position>
            <AltitudeMeters>15</AltitudeMeters>
            <DistanceMeters>NAN</DistanceMeters>
          </Trackpoint>
          <Trackpoint>
            <Time>2022-07-07T10:35:36.000Z</Time>
            <Position>
              <LatitudeDegrees>43.56046437285840511322021484375</LatitudeDegrees>
              <LongitudeDegrees>-1.46809637546539306640625</LongitudeDegrees>
            </Position>
            <AltitudeMeters>14.80000019073486328125</AltitudeMeters>
            <DistanceMeters>NAN</DistanceMeters>
          </Trackpoint>
          <Trackpoint>
            <Time>2022-07-07T10:35:41.000Z</Time>
            <Position>
              <LatitudeDegrees>43.5603647120296955108642578125</LatitudeDegrees>
              <LongitudeDegrees>-1.4678491093218326568603515625</LongitudeDegrees>
            </Position>
            <AltitudeMeters>14.6000003814697265625</AltitudeMeters>
            <DistanceMeters>NAN</DistanceMeters>
          </Trackpoint>
          <Trackpoint>
            <Time>2022-07-07T10:35:42.000Z</Time>
            <Position>
              <LatitudeDegrees>43.56034266762435436248779296875</LatitudeDegrees>
              <LongitudeDegrees>-1.4677927829325199127197265625</LongitudeDegrees>
            </Position>
            <AltitudeMeters>14.6000003814697265625</AltitudeMeters>
            <DistanceMeters>NAN</DistanceMeters>
          </Trackpoint>
          <Trackpoint>
            <Time>2022-07-07T10:35:45.000Z</Time>
            <Position>
              <LatitudeDegrees>43.5602782107889652252197265625</LatitudeDegrees>
              <LongitudeDegrees>-1.46763947792351245880126953125</LongitudeDegrees>
            </Position>
            <AltitudeMeters>14.6000003814697265625</AltitudeMeters>
            <DistanceMeters>NAN</DistanceMeters>
          </Trackpoint>
          <Trackpoint>
            <Time>2022-07-07T10:35:46.000Z</Time>
            <Position>
              <LatitudeDegrees>43.560257591307163238525390625</LatitudeDegrees>
              <LongitudeDegrees>-1.4675869233906269073486328125</LongitudeDegrees>
            </Position>
            <AltitudeMeters>14.6000003814697265625</AltitudeMeters>
            <DistanceMeters>NAN</DistanceMeters>
          </Trackpoint>
          <Trackpoint>
            <Time>2022-07-07T10:35:47.000Z</Time>
            <Position>
              <LatitudeDegrees>43.56024242006242275238037109375</LatitudeDegrees>
              <LongitudeDegrees>-1.467542164027690887451171875</LongitudeDegrees>
            </Position>
            <AltitudeMeters>14.6000003814697265625</AltitudeMeters>
            <DistanceMeters>NAN</DistanceMeters>
          </Trackpoint>
          <Trackpoint>
            <Time>2022-07-07T10:35:51.000Z</Time>
            <Position>
              <LatitudeDegrees>43.56016128323972225189208984375</LatitudeDegrees>
              <LongitudeDegrees>-1.4673032797873020172119140625</LongitudeDegrees>
            </Position>
            <AltitudeMeters>14.6000003814697265625</AltitudeMeters>
            <DistanceMeters>NAN</DistanceMeters>
          </Trackpoint>
          <Trackpoint>
            <Time>2022-07-07T10:35:53.000Z</Time>
            <Position>
              <LatitudeDegrees>43.56012155301868915557861328125</LatitudeDegrees>
              <LongitudeDegrees>-1.467192471027374267578125</LongitudeDegrees>
            </Position>
            <AltitudeMeters>14.6000003814697265625</AltitudeMeters>
            <DistanceMeters>NAN</DistanceMeters>
          </Trackpoint>
          <Trackpoint>
            <Time>2022-07-07T10:35:56.000Z</Time>
            <Position>
              <LatitudeDegrees>43.5600575990974903106689453125</LatitudeDegrees>
              <LongitudeDegrees>-1.46703095175325870513916015625</LongitudeDegrees>
            </Position>
            <AltitudeMeters>14.6000003814697265625</AltitudeMeters>
            <DistanceMeters>NAN</DistanceMeters>
          </Trackpoint>
          <Trackpoint>
            <Time>2022-07-07T10:35:58.000Z</Time>
            <Position>
              <LatitudeDegrees>43.56000470928847789764404296875</LatitudeDegrees>
              <LongitudeDegrees>-1.46695333532989025115966796875</LongitudeDegrees>
            </Position>
            <AltitudeMeters>14.6000003814697265625</AltitudeMeters>
            <DistanceMeters>NAN</DistanceMeters>
          </Trackpoint>
          <Trackpoint>
            <Time>2022-07-07T10:35:59.000Z</Time>
            <Position>
              <LatitudeDegrees>43.5599724389612674713134765625</LatitudeDegrees>
              <LongitudeDegrees>-1.4669041335582733154296875</LongitudeDegrees>
            </Position>
            <AltitudeMeters>14.6000003814697265625</AltitudeMeters>
            <DistanceMeters>NAN</DistanceMeters>
          </Trackpoint>
          <Trackpoint>
            <Time>2022-07-07T10:36:01.000Z</Time>
            <Position>
              <LatitudeDegrees>43.55992055498063564300537109375</LatitudeDegrees>
              <LongitudeDegrees>-1.4667876251041889190673828125</LongitudeDegrees>
            </Position>
            <AltitudeMeters>14.6000003814697265625</AltitudeMeters>
            <DistanceMeters>NAN</DistanceMeters>
          </Trackpoint>
          <Trackpoint>
            <Time>2022-07-07T10:36:02.000Z</Time>
            <Position>
              <LatitudeDegrees>43.5598996840417385101318359375</LatitudeDegrees>
              <LongitudeDegrees>-1.466748230159282684326171875</LongitudeDegrees>
            </Position>
            <AltitudeMeters>14.80000019073486328125</AltitudeMeters>
            <DistanceMeters>NAN</DistanceMeters>
          </Trackpoint>
          <Trackpoint>
            <Time>2022-07-07T10:36:03.000Z</Time>
            <Position>
              <LatitudeDegrees>43.55987663380801677703857421875</LatitudeDegrees>
              <LongitudeDegrees>-1.46669902838766574859619140625</LongitudeDegrees>
            </Position>
            <AltitudeMeters>14.80000019073486328125</AltitudeMeters>
            <DistanceMeters>NAN</DistanceMeters>
          </Trackpoint>
          <Trackpoint>
            <Time>2022-07-07T10:36:09.000Z</Time>
            <Position>
              <LatitudeDegrees>43.55976934544742107391357421875</LatitudeDegrees>
              <LongitudeDegrees>-1.4663866348564624786376953125</LongitudeDegrees>
            </Position>
            <AltitudeMeters>14.80000019073486328125</AltitudeMeters>
            <DistanceMeters>NAN</DistanceMeters>
          </Trackpoint>
          <Trackpoint>
            <Time>2022-07-07T10:36:14.000Z</Time>
            <Position>
              <LatitudeDegrees>43.55967798270285129547119140625</LatitudeDegrees>
              <LongitudeDegrees>-1.466142721474170684814453125</LongitudeDegrees>
            </Position>
            <AltitudeMeters>14.6000003814697265625</AltitudeMeters>
            <DistanceMeters>NAN</DistanceMeters>
          </Trackpoint>
          <Trackpoint>
            <Time>2022-07-07T10:36:16.000Z</Time>
            <Position>
              <LatitudeDegrees>43.55967245064675807952880859375</LatitudeDegrees>
              <LongitudeDegrees>-1.466079019010066986083984375</LongitudeDegrees>
            </Position>
            <AltitudeMeters>14.6000003814697265625</AltitudeMeters>
            <DistanceMeters>NAN</DistanceMeters>
          </Trackpoint>
          <Trackpoint>
            <Time>2022-07-07T10:36:18.000Z</Time>
            <Position>
              <LatitudeDegrees>43.5596711933612823486328125</LatitudeDegrees>
              <LongitudeDegrees>-1.46600718609988689422607421875</LongitudeDegrees>
            </Position>
            <AltitudeMeters>14.3999996185302734375</AltitudeMeters>
            <DistanceMeters>NAN</DistanceMeters>
          </Trackpoint>
          <Trackpoint>
            <Time>2022-07-07T10:36:20.000Z</Time>
            <Position>
              <LatitudeDegrees>43.5596411861479282379150390625</LatitudeDegrees>
              <LongitudeDegrees>-1.46598539315164089202880859375</LongitudeDegrees>
            </Position>
            <AltitudeMeters>14.3999996185302734375</AltitudeMeters>
            <DistanceMeters>NAN</DistanceMeters>
          </Trackpoint>
          <Trackpoint>
            <Time>2022-07-07T10:36:22.000Z</Time>
            <Position>
              <LatitudeDegrees>43.5596068203449249267578125</LatitudeDegrees>
              <LongitudeDegrees>-1.4659910090267658233642578125</LongitudeDegrees>
            </Position>
            <AltitudeMeters>14.6000003814697265625</AltitudeMeters>
            <DistanceMeters>NAN</DistanceMeters>
          </Trackpoint>
          <Trackpoint>
            <Time>2022-07-07T10:36:24.000Z</Time>
            <Position>
              <LatitudeDegrees>43.55954940430819988250732421875</LatitudeDegrees>
              <LongitudeDegrees>-1.46599578671157360076904296875</LongitudeDegrees>
            </Position>
            <AltitudeMeters>14.6000003814697265625</AltitudeMeters>
            <DistanceMeters>NAN</DistanceMeters>
          </Trackpoint>
          <Trackpoint>
            <Time>2022-07-07T10:36:25.000Z</Time>
            <Position>
              <LatitudeDegrees>43.5595241747796535491943359375</LatitudeDegrees>
              <LongitudeDegrees>-1.4660111255943775177001953125</LongitudeDegrees>
            </Position>
            <AltitudeMeters>14.6000003814697265625</AltitudeMeters>
            <DistanceMeters>NAN</DistanceMeters>
          </Trackpoint>
          <Trackpoint>
            <Time>2022-07-07T10:36:30.000Z</Time>
            <Position>
              <LatitudeDegrees>43.55938612483441829681396484375</LatitudeDegrees>
              <LongitudeDegrees>-1.46613760851323604583740234375</LongitudeDegrees>
            </Position>
            <AltitudeMeters>14.6000003814697265625</AltitudeMeters>
            <DistanceMeters>NAN</DistanceMeters>
          </Trackpoint>
          <Trackpoint>
            <Time>2022-07-07T10:36:34.000Z</Time>
            <Position>
              <LatitudeDegrees>43.559256456792354583740234375</LatitudeDegrees>
              <LongitudeDegrees>-1.46627255715429782867431640625</LongitudeDegrees>
            </Position>
            <AltitudeMeters>14.80000019073486328125</AltitudeMeters>
            <DistanceMeters>NAN</DistanceMeters>
          </Trackpoint>
          <Trackpoint>
            <Time>2022-07-07T10:36:36.000Z</Time>
            <Position>
              <LatitudeDegrees>43.55919434688985347747802734375</LatitudeDegrees>
              <LongitudeDegrees>-1.4663413725793361663818359375</LongitudeDegrees>
            </Position>
            <AltitudeMeters>15</AltitudeMeters>
            <DistanceMeters>NAN</DistanceMeters>
          </Trackpoint>
          <Trackpoint>
            <Time>2022-07-07T10:36:39.000Z</Time>
            <Position>
              <LatitudeDegrees>43.55909074656665325164794921875</LatitudeDegrees>
              <LongitudeDegrees>-1.4664489962160587310791015625</LongitudeDegrees>
            </Position>
            <AltitudeMeters>15.3999996185302734375</AltitudeMeters>
            <DistanceMeters>NAN</DistanceMeters>
          </Trackpoint>
          <Trackpoint>
            <Time>2022-07-07T10:36:40.000Z</Time>
            <Position>
              <LatitudeDegrees>43.55905286036431789398193359375</LatitudeDegrees>
              <LongitudeDegrees>-1.46648612804710865020751953125</LongitudeDegrees>
            </Position>
            <AltitudeMeters>15.3999996185302734375</AltitudeMeters>
            <DistanceMeters>NAN</DistanceMeters>
          </Trackpoint>
          <Trackpoint>
            <Time>2022-07-07T10:36:42.000Z</Time>
            <Position>
              <LatitudeDegrees>43.55898362584412097930908203125</LatitudeDegrees>
              <LongitudeDegrees>-1.46655754186213016510009765625</LongitudeDegrees>
            </Position>
            <AltitudeMeters>15.3999996185302734375</AltitudeMeters>
            <DistanceMeters>NAN</DistanceMeters>
          </Trackpoint>
          <Trackpoint>
            <Time>2022-07-07T10:36:45.000Z</Time>
            <Position>
              <LatitudeDegrees>43.558874242007732391357421875</LatitudeDegrees>
              <LongitudeDegrees>-1.4666618965566158294677734375</LongitudeDegrees>
            </Position>
            <AltitudeMeters>15.19999980926513671875</AltitudeMeters>
            <DistanceMeters>NAN</DistanceMeters>
          </Trackpoint>
          <Trackpoint>
            <Time>2022-07-07T10:36:54.000Z</Time>
            <Position>
              <LatitudeDegrees>43.55855430476367473602294921875</LatitudeDegrees>
              <LongitudeDegrees>-1.46697990596294403076171875</LongitudeDegrees>
            </Position>
            <AltitudeMeters>15</AltitudeMeters>
            <DistanceMeters>NAN</DistanceMeters>
          </Trackpoint>
          <Trackpoint>
            <Time>2022-07-07T10:37:02.000Z</Time>
            <Position>
              <LatitudeDegrees>43.55823746882379055023193359375</LatitudeDegrees>
              <LongitudeDegrees>-1.46727620624005794525146484375</LongitudeDegrees>
            </Position>
            <AltitudeMeters>14.80000019073486328125</AltitudeMeters>
            <DistanceMeters>NAN</DistanceMeters>
          </Trackpoint>
          <Trackpoint>
            <Time>2022-07-07T10:37:09.000Z</Time>
            <Position>
              <LatitudeDegrees>43.5579560883343219757080078125</LatitudeDegrees>
              <LongitudeDegrees>-1.467540152370929718017578125</LongitudeDegrees>
            </Position>
            <AltitudeMeters>14.6000003814697265625</AltitudeMeters>
            <DistanceMeters>NAN</DistanceMeters>
          </Trackpoint>
          <Trackpoint>
            <Time>2022-07-07T10:37:15.000Z</Time>
            <Position>
              <LatitudeDegrees>43.55771913193166255950927734375</LatitudeDegrees>
              <LongitudeDegrees>-1.46776453591883182525634765625</LongitudeDegrees>
            </Position>
            <AltitudeMeters>14</AltitudeMeters>
            <DistanceMeters>NAN</DistanceMeters>
          </Trackpoint>
          <Trackpoint>
            <Time>2022-07-07T10:37:19.000Z</Time>
            <Position>
              <LatitudeDegrees>43.55756892822682857513427734375</LatitudeDegrees>
              <LongitudeDegrees>-1.46790786646306514739990234375</LongitudeDegrees>
            </Position>
            <AltitudeMeters>14.19999980926513671875</AltitudeMeters>
            <DistanceMeters>NAN</DistanceMeters>
          </Trackpoint>
          <Trackpoint>
            <Time>2022-07-07T10:37:24.000Z</Time>
            <Position>
              <LatitudeDegrees>43.557362817227840423583984375</LatitudeDegrees>
              <LongitudeDegrees>-1.46808371879160404205322265625</LongitudeDegrees>
            </Position>
            <AltitudeMeters>14</AltitudeMeters>
            <DistanceMeters>NAN</DistanceMeters>
          </Trackpoint>
          <Trackpoint>
            <Time>2022-07-07T10:37:31.000Z</Time>
            <Position>
              <LatitudeDegrees>43.55709585361182689666748046875</LatitudeDegrees>
              <LongitudeDegrees>-1.46831405349075794219970703125</LongitudeDegrees>
            </Position>
            <AltitudeMeters>14</AltitudeMeters>
            <DistanceMeters>NAN</DistanceMeters>
          </Trackpoint>
          <Trackpoint>
            <Time>2022-07-07T10:37:34.000Z</Time>
            <Position>
              <LatitudeDegrees>43.55698286555707454681396484375</LatitudeDegrees>
              <LongitudeDegrees>-1.46841044537723064422607421875</LongitudeDegrees>
            </Position>
            <AltitudeMeters>14.19999980926513671875</AltitudeMeters>
            <DistanceMeters>NAN</DistanceMeters>
          </Trackpoint>
          <Trackpoint>
            <Time>2022-07-07T10:37:37.000Z</Time>
            <Position>
              <LatitudeDegrees>43.55688312090933322906494140625</LatitudeDegrees>
              <LongitudeDegrees>-1.46851010620594024658203125</LongitudeDegrees>
            </Position>
            <AltitudeMeters>14.3999996185302734375</AltitudeMeters>
            <DistanceMeters>NAN</DistanceMeters>
          </Trackpoint>
          <Trackpoint>
            <Time>2022-07-07T10:37:45.000Z</Time>
            <Position>
              <LatitudeDegrees>43.55659478344023227691650390625</LatitudeDegrees>
              <LongitudeDegrees>-1.46879416890442371368408203125</LongitudeDegrees>
            </Position>
            <AltitudeMeters>14</AltitudeMeters>
            <DistanceMeters>NAN</DistanceMeters>
          </Trackpoint>
          <Trackpoint>
            <Time>2022-07-07T10:37:53.000Z</Time>
            <Position>
              <LatitudeDegrees>43.55630166828632354736328125</LatitudeDegrees>
              <LongitudeDegrees>-1.4690618030726909637451171875</LongitudeDegrees>
            </Position>
            <AltitudeMeters>13.80000019073486328125</AltitudeMeters>
            <DistanceMeters>NAN</DistanceMeters>
          </Trackpoint>
          <Trackpoint>
            <Time>2022-07-07T10:37:55.000Z</Time>
            <Position>
              <LatitudeDegrees>43.55622966773808002471923828125</LatitudeDegrees>
              <LongitudeDegrees>-1.46913380362093448638916015625</LongitudeDegrees>
            </Position>
            <AltitudeMeters>13.6000003814697265625</AltitudeMeters>
            <DistanceMeters>NAN</DistanceMeters>
          </Trackpoint>
          <Trackpoint>
            <Time>2022-07-07T10:37:58.000Z</Time>
            <Position>
              <LatitudeDegrees>43.55611148290336132049560546875</LatitudeDegrees>
              <LongitudeDegrees>-1.4692403376102447509765625</LongitudeDegrees>
            </Position>
            <AltitudeMeters>13</AltitudeMeters>
            <DistanceMeters>NAN</DistanceMeters>
          </Trackpoint>
          <Trackpoint>
            <Time>2022-07-07T10:38:00.000Z</Time>
            <Position>
              <LatitudeDegrees>43.55603705160319805145263671875</LatitudeDegrees>
              <LongitudeDegrees>-1.46931208670139312744140625</LongitudeDegrees>
            </Position>
            <AltitudeMeters>13</AltitudeMeters>
            <DistanceMeters>NAN</DistanceMeters>
          </Trackpoint>
          <Trackpoint>
            <Time>2022-07-07T10:38:03.000Z</Time>
            <Position>
              <LatitudeDegrees>43.55593143962323665618896484375</LatitudeDegrees>
              <LongitudeDegrees>-1.46943622268736362457275390625</LongitudeDegrees>
            </Position>
            <AltitudeMeters>13</AltitudeMeters>
            <DistanceMeters>NAN</DistanceMeters>
          </Trackpoint>
          <Trackpoint>
            <Time>2022-07-07T10:38:08.000Z</Time>
            <Position>
              <LatitudeDegrees>43.55575106106698513031005859375</LatitudeDegrees>
              <LongitudeDegrees>-1.46961542777717113494873046875</LongitudeDegrees>
            </Position>
            <AltitudeMeters>13.19999980926513671875</AltitudeMeters>
            <DistanceMeters>NAN</DistanceMeters>
          </Trackpoint>
          <Trackpoint>
            <Time>2022-07-07T10:38:14.000Z</Time>
            <Position>
              <LatitudeDegrees>43.5555568523705005645751953125</LatitudeDegrees>
              <LongitudeDegrees>-1.469816006720066070556640625</LongitudeDegrees>
            </Position>
            <AltitudeMeters>13.3999996185302734375</AltitudeMeters>
            <DistanceMeters>NAN</DistanceMeters>
          </Trackpoint>
          <Trackpoint>
            <Time>2022-07-07T10:38:20.000Z</Time>
            <Position>
              <LatitudeDegrees>43.55537286959588527679443359375</LatitudeDegrees>
              <LongitudeDegrees>-1.46999613381922245025634765625</LongitudeDegrees>
            </Position>
            <AltitudeMeters>13.80000019073486328125</AltitudeMeters>
            <DistanceMeters>NAN</DistanceMeters>
          </Trackpoint>
          <Trackpoint>
            <Time>2022-07-07T10:38:22.000Z</Time>
            <Position>
              <LatitudeDegrees>43.55531059205532073974609375</LatitudeDegrees>
              <LongitudeDegrees>-1.47005145438015460968017578125</LongitudeDegrees>
            </Position>
            <AltitudeMeters>14</AltitudeMeters>
            <DistanceMeters>NAN</DistanceMeters>
          </Trackpoint>
          <Trackpoint>
            <Time>2022-07-07T10:38:29.000Z</Time>
            <Position>
              <LatitudeDegrees>43.55510280467569828033447265625</LatitudeDegrees>
              <LongitudeDegrees>-1.47026904858648777008056640625</LongitudeDegrees>
            </Position>
            <AltitudeMeters>14</AltitudeMeters>
            <DistanceMeters>NAN</DistanceMeters>
          </Trackpoint>
          <Trackpoint>
            <Time>2022-07-07T10:38:30.000Z</Time>
            <Position>
              <LatitudeDegrees>43.555070869624614715576171875</LatitudeDegrees>
              <LongitudeDegrees>-1.47029779851436614990234375</LongitudeDegrees>
            </Position>
            <AltitudeMeters>14.3999996185302734375</AltitudeMeters>
            <DistanceMeters>NAN</DistanceMeters>
          </Trackpoint>
          <Trackpoint>
            <Time>2022-07-07T10:38:39.000Z</Time>
            <Position>
              <LatitudeDegrees>43.55479267425835132598876953125</LatitudeDegrees>
              <LongitudeDegrees>-1.470577754080295562744140625</LongitudeDegrees>
            </Position>
            <AltitudeMeters>14.6000003814697265625</AltitudeMeters>
            <DistanceMeters>NAN</DistanceMeters>
          </Trackpoint>
          <Trackpoint>
            <Time>2022-07-07T10:38:46.000Z</Time>
            <Position>
              <LatitudeDegrees>43.554580025374889373779296875</LatitudeDegrees>
              <LongitudeDegrees>-1.4707881398499011993408203125</LongitudeDegrees>
            </Position>
            <AltitudeMeters>14.19999980926513671875</AltitudeMeters>
            <DistanceMeters>NAN</DistanceMeters>
          </Trackpoint>
          <Trackpoint>
            <Time>2022-07-07T10:38:53.000Z</Time>
            <Position>
              <LatitudeDegrees>43.55435145087540149688720703125</LatitudeDegrees>
              <LongitudeDegrees>-1.47099810652434825897216796875</LongitudeDegrees>
            </Position>
            <AltitudeMeters>14</AltitudeMeters>
            <DistanceMeters>NAN</DistanceMeters>
          </Trackpoint>
          <Trackpoint>
            <Time>2022-07-07T10:39:00.000Z</Time>
            <Position>
              <LatitudeDegrees>43.55411424301564693450927734375</LatitudeDegrees>
              <LongitudeDegrees>-1.47121913731098175048828125</LongitudeDegrees>
            </Position>
            <AltitudeMeters>13.6000003814697265625</AltitudeMeters>
            <DistanceMeters>NAN</DistanceMeters>
          </Trackpoint>
          <Trackpoint>
            <Time>2022-07-07T10:39:01.000Z</Time>
            <Position>
              <LatitudeDegrees>43.5540756024420261383056640625</LatitudeDegrees>
              <LongitudeDegrees>-1.47124352864921092987060546875</LongitudeDegrees>
            </Position>
            <AltitudeMeters>13.6000003814697265625</AltitudeMeters>
            <DistanceMeters>NAN</DistanceMeters>
          </Trackpoint>
          <Trackpoint>
            <Time>2022-07-07T10:39:02.000Z</Time>
            <Position>
              <LatitudeDegrees>43.55403645895421504974365234375</LatitudeDegrees>
              <LongitudeDegrees>-1.4712662436068058013916015625</LongitudeDegrees>
            </Position>
            <AltitudeMeters>13.6000003814697265625</AltitudeMeters>
            <DistanceMeters>NAN</DistanceMeters>
          </Trackpoint>
          <Trackpoint>
            <Time>2022-07-07T10:39:04.000Z</Time>
            <Position>
              <LatitudeDegrees>43.55396278202533721923828125</LatitudeDegrees>
              <LongitudeDegrees>-1.47132550366222858428955078125</LongitudeDegrees>
            </Position>
            <AltitudeMeters>13.6000003814697265625</AltitudeMeters>
            <DistanceMeters>NAN</DistanceMeters>
          </Trackpoint>
          <Trackpoint>
            <Time>2022-07-07T10:39:07.000Z</Time>
            <Position>
              <LatitudeDegrees>43.55385054834187030792236328125</LatitudeDegrees>
              <LongitudeDegrees>-1.47141762077808380126953125</LongitudeDegrees>
            </Position>
            <AltitudeMeters>13.80000019073486328125</AltitudeMeters>
            <DistanceMeters>NAN</DistanceMeters>
          </Trackpoint>
          <Trackpoint>
            <Time>2022-07-07T10:39:09.000Z</Time>
            <Position>
              <LatitudeDegrees>43.553766310214996337890625</LatitudeDegrees>
              <LongitudeDegrees>-1.47149029187858104705810546875</LongitudeDegrees>
            </Position>
            <AltitudeMeters>13.80000019073486328125</AltitudeMeters>
            <DistanceMeters>NAN</DistanceMeters>
          </Trackpoint>
          <Trackpoint>
            <Time>2022-07-07T10:39:11.000Z</Time>
            <Position>
              <LatitudeDegrees>43.553697578608989715576171875</LatitudeDegrees>
              <LongitudeDegrees>-1.471550725400447845458984375</LongitudeDegrees>
            </Position>
            <AltitudeMeters>13.80000019073486328125</AltitudeMeters>
            <DistanceMeters>NAN</DistanceMeters>
          </Trackpoint>
          <Trackpoint>
            <Time>2022-07-07T10:39:13.000Z</Time>
            <Position>
              <LatitudeDegrees>43.55362423695623874664306640625</LatitudeDegrees>
              <LongitudeDegrees>-1.471608392894268035888671875</LongitudeDegrees>
            </Position>
            <AltitudeMeters>13.80000019073486328125</AltitudeMeters>
            <DistanceMeters>NAN</DistanceMeters>
          </Trackpoint>
          <Trackpoint>
            <Time>2022-07-07T10:39:14.000Z</Time>
            <Position>
              <LatitudeDegrees>43.5535840876400470733642578125</LatitudeDegrees>
              <LongitudeDegrees>-1.4716518111526966094970703125</LongitudeDegrees>
            </Position>
            <AltitudeMeters>13.80000019073486328125</AltitudeMeters>
            <DistanceMeters>NAN</DistanceMeters>
          </Trackpoint>
          <Trackpoint>
            <Time>2022-07-07T10:39:19.000Z</Time>
            <Position>
              <LatitudeDegrees>43.55341334827244281768798828125</LatitudeDegrees>
              <LongitudeDegrees>-1.4718164317309856414794921875</LongitudeDegrees>
            </Position>
            <AltitudeMeters>13.6000003814697265625</AltitudeMeters>
            <DistanceMeters>NAN</DistanceMeters>
          </Trackpoint>
          <Trackpoint>
            <Time>2022-07-07T10:39:23.000Z</Time>
            <Position>
              <LatitudeDegrees>43.5532687604427337646484375</LatitudeDegrees>
              <LongitudeDegrees>-1.4719398133456707000732421875</LongitudeDegrees>
            </Position>
            <AltitudeMeters>13.3999996185302734375</AltitudeMeters>
            <DistanceMeters>NAN</DistanceMeters>
          </Trackpoint>
          <Trackpoint>
            <Time>2022-07-07T10:39:32.000Z</Time>
            <Position>
              <LatitudeDegrees>43.5529779084026813507080078125</LatitudeDegrees>
              <LongitudeDegrees>-1.47221624851226806640625</LongitudeDegrees>
            </Position>
            <AltitudeMeters>13.19999980926513671875</AltitudeMeters>
            <DistanceMeters>NAN</DistanceMeters>
          </Trackpoint>
          <Trackpoint>
            <Time>2022-07-07T10:39:36.000Z</Time>
            <Position>
              <LatitudeDegrees>43.55285511352121829986572265625</LatitudeDegrees>
              <LongitudeDegrees>-1.4723468385636806488037109375</LongitudeDegrees>
            </Position>
            <AltitudeMeters>13.19999980926513671875</AltitudeMeters>
            <DistanceMeters>NAN</DistanceMeters>
          </Trackpoint>
          <Trackpoint>
            <Time>2022-07-07T10:39:41.000Z</Time>
            <Position>
              <LatitudeDegrees>43.55272167362272739410400390625</LatitudeDegrees>
              <LongitudeDegrees>-1.47252176888287067413330078125</LongitudeDegrees>
            </Position>
            <AltitudeMeters>14.19999980926513671875</AltitudeMeters>
            <DistanceMeters>NAN</DistanceMeters>
          </Trackpoint>
          <Trackpoint>
            <Time>2022-07-07T10:39:48.000Z</Time>
            <Position>
              <LatitudeDegrees>43.55257331393659114837646484375</LatitudeDegrees>
              <LongitudeDegrees>-1.472803652286529541015625</LongitudeDegrees>
            </Position>
            <AltitudeMeters>14.6000003814697265625</AltitudeMeters>
            <DistanceMeters>NAN</DistanceMeters>
          </Trackpoint>
          <Trackpoint>
            <Time>2022-07-07T10:39:52.000Z</Time>
            <Position>
              <LatitudeDegrees>43.55251078493893146514892578125</LatitudeDegrees>
              <LongitudeDegrees>-1.473001129925251007080078125</LongitudeDegrees>
            </Position>
            <AltitudeMeters>14.6000003814697265625</AltitudeMeters>
            <DistanceMeters>NAN</DistanceMeters>
          </Trackpoint>
          <Trackpoint>
            <Time>2022-07-07T10:39:54.000Z</Time>
            <Position>
              <LatitudeDegrees>43.5524847172200679779052734375</LatitudeDegrees>
              <LongitudeDegrees>-1.47309961728751659393310546875</LongitudeDegrees>
            </Position>
            <AltitudeMeters>14.6000003814697265625</AltitudeMeters>
            <DistanceMeters>NAN</DistanceMeters>
          </Trackpoint>
          <Trackpoint>
            <Time>2022-07-07T10:39:56.000Z</Time>
            <Position>
              <LatitudeDegrees>43.55246384628117084503173828125</LatitudeDegrees>
              <LongitudeDegrees>-1.47319483570754528045654296875</LongitudeDegrees>
            </Position>
            <AltitudeMeters>14.6000003814697265625</AltitudeMeters>
            <DistanceMeters>NAN</DistanceMeters>
          </Trackpoint>
          <Trackpoint>
            <Time>2022-07-07T10:40:02.000Z</Time>
            <Position>
              <LatitudeDegrees>43.552432246506214141845703125</LatitudeDegrees>
              <LongitudeDegrees>-1.47346037440001964569091796875</LongitudeDegrees>
            </Position>
            <AltitudeMeters>15</AltitudeMeters>
            <DistanceMeters>NAN</DistanceMeters>
          </Trackpoint>
          <Trackpoint>
            <Time>2022-07-07T10:40:06.000Z</Time>
            <Position>
              <LatitudeDegrees>43.5524089448153972625732421875</LatitudeDegrees>
              <LongitudeDegrees>-1.47362633608281612396240234375</LongitudeDegrees>
            </Position>
            <AltitudeMeters>15.19999980926513671875</AltitudeMeters>
            <DistanceMeters>NAN</DistanceMeters>
          </Trackpoint>
          <Trackpoint>
            <Time>2022-07-07T10:40:10.000Z</Time>
            <Position>
              <LatitudeDegrees>43.55240416713058948516845703125</LatitudeDegrees>
              <LongitudeDegrees>-1.47379984147846698760986328125</LongitudeDegrees>
            </Position>
            <AltitudeMeters>15.6000003814697265625</AltitudeMeters>
            <DistanceMeters>NAN</DistanceMeters>
          </Trackpoint>
          <Trackpoint>
            <Time>2022-07-07T10:40:16.000Z</Time>
            <Position>
              <LatitudeDegrees>43.552410118281841278076171875</LatitudeDegrees>
              <LongitudeDegrees>-1.4740399830043315887451171875</LongitudeDegrees>
            </Position>
            <AltitudeMeters>16.200000762939453125</AltitudeMeters>
            <DistanceMeters>NAN</DistanceMeters>
          </Trackpoint>
          <Trackpoint>
            <Time>2022-07-07T10:40:19.000Z</Time>
            <Position>
              <LatitudeDegrees>43.55240534059703350067138671875</LatitudeDegrees>
              <LongitudeDegrees>-1.474149785935878753662109375</LongitudeDegrees>
            </Position>
            <AltitudeMeters>16.3999996185302734375</AltitudeMeters>
            <DistanceMeters>NAN</DistanceMeters>
          </Trackpoint>
          <Trackpoint>
            <Time>2022-07-07T10:40:27.000Z</Time>
            <Position>
              <LatitudeDegrees>43.552391342818737030029296875</LatitudeDegrees>
              <LongitudeDegrees>-1.474505849182605743408203125</LongitudeDegrees>
            </Position>
            <AltitudeMeters>16.6000003814697265625</AltitudeMeters>
            <DistanceMeters>NAN</DistanceMeters>
          </Trackpoint>
          <Trackpoint>
            <Time>2022-07-07T10:40:29.000Z</Time>
            <Position>
              <LatitudeDegrees>43.55238161981105804443359375</LatitudeDegrees>
              <LongitudeDegrees>-1.4745941944420337677001953125</LongitudeDegrees>
            </Position>
            <AltitudeMeters>16.3999996185302734375</AltitudeMeters>
            <DistanceMeters>NAN</DistanceMeters>
          </Trackpoint>
          <Trackpoint>
            <Time>2022-07-07T10:40:34.000Z</Time>
            <Position>
              <LatitudeDegrees>43.5523596592247486114501953125</LatitudeDegrees>
              <LongitudeDegrees>-1.47486836649477481842041015625</LongitudeDegrees>
            </Position>
            <AltitudeMeters>16.200000762939453125</AltitudeMeters>
            <DistanceMeters>NAN</DistanceMeters>
          </Trackpoint>
          <Trackpoint>
            <Time>2022-07-07T10:40:41.000Z</Time>
            <Position>
              <LatitudeDegrees>43.5523308254778385162353515625</LatitudeDegrees>
              <LongitudeDegrees>-1.47534697316586971282958984375</LongitudeDegrees>
            </Position>
            <AltitudeMeters>16.3999996185302734375</AltitudeMeters>
            <DistanceMeters>NAN</DistanceMeters>
          </Trackpoint>
          <Trackpoint>
            <Time>2022-07-07T10:40:48.000Z</Time>
            <Position>
              <LatitudeDegrees>43.55228028260171413421630859375</LatitudeDegrees>
              <LongitudeDegrees>-1.475785933434963226318359375</LongitudeDegrees>
            </Position>
            <AltitudeMeters>16</AltitudeMeters>
            <DistanceMeters>NAN</DistanceMeters>
          </Trackpoint>
          <Trackpoint>
            <Time>2022-07-07T10:40:52.000Z</Time>
            <Position>
              <LatitudeDegrees>43.55226133950054645538330078125</LatitudeDegrees>
              <LongitudeDegrees>-1.4759674854576587677001953125</LongitudeDegrees>
            </Position>
            <AltitudeMeters>15.6000003814697265625</AltitudeMeters>
            <DistanceMeters>NAN</DistanceMeters>
          </Trackpoint>
          <Trackpoint>
            <Time>2022-07-07T10:40:54.000Z</Time>
            <Position>
              <LatitudeDegrees>43.55226268060505390167236328125</LatitudeDegrees>
              <LongitudeDegrees>-1.47604300640523433685302734375</LongitudeDegrees>
            </Position>
            <AltitudeMeters>15.6000003814697265625</AltitudeMeters>
            <DistanceMeters>NAN</DistanceMeters>
          </Trackpoint>
          <Trackpoint>
            <Time>2022-07-07T10:40:57.000Z</Time>
            <Position>
              <LatitudeDegrees>43.552276007831096649169921875</LatitudeDegrees>
              <LongitudeDegrees>-1.4761416614055633544921875</LongitudeDegrees>
            </Position>
            <AltitudeMeters>15.3999996185302734375</AltitudeMeters>
            <DistanceMeters>NAN</DistanceMeters>
          </Trackpoint>
          <Trackpoint>
            <Time>2022-07-07T10:40:58.000Z</Time>
            <Position>
              <LatitudeDegrees>43.552294783294200897216796875</LatitudeDegrees>
              <LongitudeDegrees>-1.4761492051184177398681640625</LongitudeDegrees>
            </Position>
            <AltitudeMeters>15.3999996185302734375</AltitudeMeters>
            <DistanceMeters>NAN</DistanceMeters>
          </Trackpoint>
          <Trackpoint>
            <Time>2022-07-07T10:41:00.000Z</Time>
            <Position>
              <LatitudeDegrees>43.55232931673526763916015625</LatitudeDegrees>
              <LongitudeDegrees>-1.47612665779888629913330078125</LongitudeDegrees>
            </Position>
            <AltitudeMeters>15.3999996185302734375</AltitudeMeters>
            <DistanceMeters>NAN</DistanceMeters>
          </Trackpoint>
          <Trackpoint>
            <Time>2022-07-07T10:41:02.000Z</Time>
            <Position>
              <LatitudeDegrees>43.55235077440738677978515625</LatitudeDegrees>
              <LongitudeDegrees>-1.4760737679898738861083984375</LongitudeDegrees>
            </Position>
            <AltitudeMeters>15.19999980926513671875</AltitudeMeters>
            <DistanceMeters>NAN</DistanceMeters>
          </Trackpoint>
          <Trackpoint>
            <Time>2022-07-07T10:41:04.000Z</Time>
            <Position>
              <LatitudeDegrees>43.55237432755529880523681640625</LatitudeDegrees>
              <LongitudeDegrees>-1.47602356038987636566162109375</LongitudeDegrees>
            </Position>
            <AltitudeMeters>15.19999980926513671875</AltitudeMeters>
            <DistanceMeters>NAN</DistanceMeters>
          </Trackpoint>
          <Trackpoint>
            <Time>2022-07-07T10:41:06.000Z</Time>
            <Position>
              <LatitudeDegrees>43.552416153252124786376953125</LatitudeDegrees>
              <LongitudeDegrees>-1.47603428922593593597412109375</LongitudeDegrees>
            </Position>
            <AltitudeMeters>15.19999980926513671875</AltitudeMeters>
            <DistanceMeters>NAN</DistanceMeters>
          </Trackpoint>
          <Trackpoint>
            <Time>2022-07-07T10:41:10.000Z</Time>
            <Position>
              <LatitudeDegrees>43.5524850524961948394775390625</LatitudeDegrees>
              <LongitudeDegrees>-1.4761424995958805084228515625</LongitudeDegrees>
            </Position>
            <AltitudeMeters>15.19999980926513671875</AltitudeMeters>
            <DistanceMeters>NAN</DistanceMeters>
          </Trackpoint>
          <Trackpoint>
            <Time>2022-07-07T10:41:14.000Z</Time>
            <Position>
              <LatitudeDegrees>43.55258655734360218048095703125</LatitudeDegrees>
              <LongitudeDegrees>-1.47625322453677654266357421875</LongitudeDegrees>
            </Position>
            <AltitudeMeters>15.19999980926513671875</AltitudeMeters>
            <DistanceMeters>NAN</DistanceMeters>
          </Trackpoint>
          <Trackpoint>
            <Time>2022-07-07T10:41:16.000Z</Time>
            <Position>
              <LatitudeDegrees>43.552636094391345977783203125</LatitudeDegrees>
              <LongitudeDegrees>-1.47629496641457080841064453125</LongitudeDegrees>
            </Position>
            <AltitudeMeters>15.3999996185302734375</AltitudeMeters>
            <DistanceMeters>NAN</DistanceMeters>
          </Trackpoint>
          <Trackpoint>
            <Time>2022-07-07T10:41:22.000Z</Time>
            <Position>
              <LatitudeDegrees>43.552760817110538482666015625</LatitudeDegrees>
              <LongitudeDegrees>-1.47644382901489734649658203125</LongitudeDegrees>
            </Position>
            <AltitudeMeters>15.3999996185302734375</AltitudeMeters>
            <DistanceMeters>NAN</DistanceMeters>
          </Trackpoint>
          <Trackpoint>
            <Time>2022-07-07T10:41:24.000Z</Time>
            <Position>
              <LatitudeDegrees>43.552821837365627288818359375</LatitudeDegrees>
              <LongitudeDegrees>-1.47652320563793182373046875</LongitudeDegrees>
            </Position>
            <AltitudeMeters>15.3999996185302734375</AltitudeMeters>
            <DistanceMeters>NAN</DistanceMeters>
          </Trackpoint>
          <Trackpoint>
            <Time>2022-07-07T10:41:28.000Z</Time>
            <Position>
              <LatitudeDegrees>43.5529158823192119598388671875</LatitudeDegrees>
              <LongitudeDegrees>-1.4766149036586284637451171875</LongitudeDegrees>
            </Position>
            <AltitudeMeters>15</AltitudeMeters>
            <DistanceMeters>NAN</DistanceMeters>
          </Trackpoint>
          <Trackpoint>
            <Time>2022-07-07T10:41:33.000Z</Time>
            <Position>
              <LatitudeDegrees>43.55299592949450016021728515625</LatitudeDegrees>
              <LongitudeDegrees>-1.47672303020954132080078125</LongitudeDegrees>
            </Position>
            <AltitudeMeters>15</AltitudeMeters>
            <DistanceMeters>NAN</DistanceMeters>
          </Trackpoint>
          <Trackpoint>
            <Time>2022-07-07T10:41:34.000Z</Time>
            <Position>
              <LatitudeDegrees>43.5530114360153675079345703125</LatitudeDegrees>
              <LongitudeDegrees>-1.4767533726990222930908203125</LongitudeDegrees>
            </Position>
            <AltitudeMeters>14.80000019073486328125</AltitudeMeters>
            <DistanceMeters>NAN</DistanceMeters>
          </Trackpoint>
          <Trackpoint>
            <Time>2022-07-07T10:41:37.000Z</Time>
            <Position>
              <LatitudeDegrees>43.5530204884707927703857421875</LatitudeDegrees>
              <LongitudeDegrees>-1.47678698413074016571044921875</LongitudeDegrees>
            </Position>
            <AltitudeMeters>14.80000019073486328125</AltitudeMeters>
            <DistanceMeters>NAN</DistanceMeters>
          </Trackpoint>
          <Trackpoint>
            <Time>2022-07-07T10:41:47.000Z</Time>
            <Position>
              <LatitudeDegrees>43.55307136662304401397705078125</LatitudeDegrees>
              <LongitudeDegrees>-1.4768791012465953826904296875</LongitudeDegrees>
            </Position>
            <AltitudeMeters>15</AltitudeMeters>
            <DistanceMeters>NAN</DistanceMeters>
          </Trackpoint>
          <Trackpoint>
            <Time>2022-07-07T10:41:48.000Z</Time>
            <Position>
              <LatitudeDegrees>43.553097434341907501220703125</LatitudeDegrees>
              <LongitudeDegrees>-1.47690617479383945465087890625</LongitudeDegrees>
            </Position>
            <AltitudeMeters>15</AltitudeMeters>
            <DistanceMeters>NAN</DistanceMeters>
          </Trackpoint>
          <Trackpoint>
            <Time>2022-07-07T10:41:51.000Z</Time>
            <Position>
              <LatitudeDegrees>43.553165495395660400390625</LatitudeDegrees>
              <LongitudeDegrees>-1.4769391156733036041259765625</LongitudeDegrees>
            </Position>
            <AltitudeMeters>15</AltitudeMeters>
            <DistanceMeters>NAN</DistanceMeters>
          </Trackpoint>
          <Trackpoint>
            <Time>2022-07-07T10:41:55.000Z</Time>
            <Position>
              <LatitudeDegrees>43.553257696330547332763671875</LatitudeDegrees>
              <LongitudeDegrees>-1.47709962911903858184814453125</LongitudeDegrees>
            </Position>
            <AltitudeMeters>15.19999980926513671875</AltitudeMeters>
            <DistanceMeters>NAN</DistanceMeters>
          </Trackpoint>
          <Trackpoint>
            <Time>2022-07-07T10:42:01.000Z</Time>
            <Position>
              <LatitudeDegrees>43.553385101258754730224609375</LatitudeDegrees>
              <LongitudeDegrees>-1.477366425096988677978515625</LongitudeDegrees>
            </Position>
            <AltitudeMeters>15.3999996185302734375</AltitudeMeters>
            <DistanceMeters>NAN</DistanceMeters>
          </Trackpoint>
          <Trackpoint>
            <Time>2022-07-07T10:42:06.000Z</Time>
            <Position>
              <LatitudeDegrees>43.5534744523465633392333984375</LatitudeDegrees>
              <LongitudeDegrees>-1.4775439538061618804931640625</LongitudeDegrees>
            </Position>
            <AltitudeMeters>15.3999996185302734375</AltitudeMeters>
            <DistanceMeters>NAN</DistanceMeters>
          </Trackpoint>
          <Trackpoint>
            <Time>2022-07-07T10:42:09.000Z</Time>
            <Position>
              <LatitudeDegrees>43.5535381548106670379638671875</LatitudeDegrees>
              <LongitudeDegrees>-1.47766104899346828460693359375</LongitudeDegrees>
            </Position>
            <AltitudeMeters>15.3999996185302734375</AltitudeMeters>
            <DistanceMeters>NAN</DistanceMeters>
          </Trackpoint>
          <Trackpoint>
            <Time>2022-07-07T10:42:11.000Z</Time>
            <Position>
              <LatitudeDegrees>43.553551398217678070068359375</LatitudeDegrees>
              <LongitudeDegrees>-1.47771016694605350494384765625</LongitudeDegrees>
            </Position>
            <AltitudeMeters>15.3999996185302734375</AltitudeMeters>
            <DistanceMeters>NAN</DistanceMeters>
          </Trackpoint>
          <Trackpoint>
            <Time>2022-07-07T10:42:14.000Z</Time>
            <Position>
              <LatitudeDegrees>43.55359557084739208221435546875</LatitudeDegrees>
              <LongitudeDegrees>-1.47782214917242527008056640625</LongitudeDegrees>
            </Position>
            <AltitudeMeters>15.3999996185302734375</AltitudeMeters>
            <DistanceMeters>NAN</DistanceMeters>
          </Trackpoint>
          <Trackpoint>
            <Time>2022-07-07T10:42:16.000Z</Time>
            <Position>
              <LatitudeDegrees>43.5536202974617481231689453125</LatitudeDegrees>
              <LongitudeDegrees>-1.47790915332734584808349609375</LongitudeDegrees>
            </Position>
            <AltitudeMeters>15.3999996185302734375</AltitudeMeters>
            <DistanceMeters>NAN</DistanceMeters>
          </Trackpoint>
          <Trackpoint>
            <Time>2022-07-07T10:42:21.000Z</Time>
            <Position>
              <LatitudeDegrees>43.5537064634263515472412109375</LatitudeDegrees>
              <LongitudeDegrees>-1.478132195770740509033203125</LongitudeDegrees>
            </Position>
            <AltitudeMeters>15.3999996185302734375</AltitudeMeters>
            <DistanceMeters>NAN</DistanceMeters>
          </Trackpoint>
          <Trackpoint>
            <Time>2022-07-07T10:42:28.000Z</Time>
            <Position>
              <LatitudeDegrees>43.55383059941232204437255859375</LatitudeDegrees>
              <LongitudeDegrees>-1.4783814735710620880126953125</LongitudeDegrees>
            </Position>
            <AltitudeMeters>15.80000019073486328125</AltitudeMeters>
            <DistanceMeters>NAN</DistanceMeters>
          </Trackpoint>
          <Trackpoint>
            <Time>2022-07-07T10:42:33.000Z</Time>
            <Position>
              <LatitudeDegrees>43.55390754528343677520751953125</LatitudeDegrees>
              <LongitudeDegrees>-1.47864474914968013763427734375</LongitudeDegrees>
            </Position>
            <AltitudeMeters>15.80000019073486328125</AltitudeMeters>
            <DistanceMeters>NAN</DistanceMeters>
          </Trackpoint>
          <Trackpoint>
            <Time>2022-07-07T10:42:38.000Z</Time>
            <Position>
              <LatitudeDegrees>43.5540538094937801361083984375</LatitudeDegrees>
              <LongitudeDegrees>-1.478937529027462005615234375</LongitudeDegrees>
            </Position>
            <AltitudeMeters>16</AltitudeMeters>
            <DistanceMeters>NAN</DistanceMeters>
          </Trackpoint>
          <Trackpoint>
            <Time>2022-07-07T10:42:42.000Z</Time>
            <Position>
              <LatitudeDegrees>43.554138801991939544677734375</LatitudeDegrees>
              <LongitudeDegrees>-1.479070298373699188232421875</LongitudeDegrees>
            </Position>
            <AltitudeMeters>16</AltitudeMeters>
            <DistanceMeters>NAN</DistanceMeters>
          </Trackpoint>
          <Trackpoint>
            <Time>2022-07-07T10:42:43.000Z</Time>
            <Position>
              <LatitudeDegrees>43.55415196157991886138916015625</LatitudeDegrees>
              <LongitudeDegrees>-1.47910617291927337646484375</LongitudeDegrees>
            </Position>
            <AltitudeMeters>16.200000762939453125</AltitudeMeters>
            <DistanceMeters>NAN</DistanceMeters>
          </Trackpoint>
          <Trackpoint>
            <Time>2022-07-07T10:42:48.000Z</Time>
            <Position>
              <LatitudeDegrees>43.55423326604068279266357421875</LatitudeDegrees>
              <LongitudeDegrees>-1.479237265884876251220703125</LongitudeDegrees>
            </Position>
            <AltitudeMeters>16.3999996185302734375</AltitudeMeters>
            <DistanceMeters>NAN</DistanceMeters>
          </Trackpoint>
          <Trackpoint>
            <Time>2022-07-07T10:42:53.000Z</Time>
            <Position>
              <LatitudeDegrees>43.554285652935504913330078125</LatitudeDegrees>
              <LongitudeDegrees>-1.47945259697735309600830078125</LongitudeDegrees>
            </Position>
            <AltitudeMeters>16.799999237060546875</AltitudeMeters>
            <DistanceMeters>NAN</DistanceMeters>
          </Trackpoint>
          <Trackpoint>
            <Time>2022-07-07T10:42:56.000Z</Time>
            <Position>
              <LatitudeDegrees>43.55432915501296520233154296875</LatitudeDegrees>
              <LongitudeDegrees>-1.47958335466682910919189453125</LongitudeDegrees>
            </Position>
            <AltitudeMeters>16.799999237060546875</AltitudeMeters>
            <DistanceMeters>NAN</DistanceMeters>
          </Trackpoint>
          <Trackpoint>
            <Time>2022-07-07T10:42:58.000Z</Time>
            <Position>
              <LatitudeDegrees>43.5543733276426792144775390625</LatitudeDegrees>
              <LongitudeDegrees>-1.4796888828277587890625</LongitudeDegrees>
            </Position>
            <AltitudeMeters>16.799999237060546875</AltitudeMeters>
            <DistanceMeters>NAN</DistanceMeters>
          </Trackpoint>
          <Trackpoint>
            <Time>2022-07-07T10:43:03.000Z</Time>
            <Position>
              <LatitudeDegrees>43.5544467531144618988037109375</LatitudeDegrees>
              <LongitudeDegrees>-1.47987437434494495391845703125</LongitudeDegrees>
            </Position>
            <AltitudeMeters>16.799999237060546875</AltitudeMeters>
            <DistanceMeters>NAN</DistanceMeters>
          </Trackpoint>
          <Trackpoint>
            <Time>2022-07-07T10:43:05.000Z</Time>
            <Position>
              <LatitudeDegrees>43.55448103509843349456787109375</LatitudeDegrees>
              <LongitudeDegrees>-1.47995182313024997711181640625</LongitudeDegrees>
            </Position>
            <AltitudeMeters>16.799999237060546875</AltitudeMeters>
            <DistanceMeters>NAN</DistanceMeters>
          </Trackpoint>
          <Trackpoint>
            <Time>2022-07-07T10:43:08.000Z</Time>
            <Position>
              <LatitudeDegrees>43.55454842559993267059326171875</LatitudeDegrees>
              <LongitudeDegrees>-1.48010454140603542327880859375</LongitudeDegrees>
            </Position>
            <AltitudeMeters>16.799999237060546875</AltitudeMeters>
            <DistanceMeters>NAN</DistanceMeters>
          </Trackpoint>
          <Trackpoint>
            <Time>2022-07-07T10:43:16.000Z</Time>
            <Position>
              <LatitudeDegrees>43.55475260876119136810302734375</LatitudeDegrees>
              <LongitudeDegrees>-1.480426490306854248046875</LongitudeDegrees>
            </Position>
            <AltitudeMeters>17</AltitudeMeters>
            <DistanceMeters>NAN</DistanceMeters>
          </Trackpoint>
          <Trackpoint>
            <Time>2022-07-07T10:43:19.000Z</Time>
            <Position>
              <LatitudeDegrees>43.55480859987437725067138671875</LatitudeDegrees>
              <LongitudeDegrees>-1.48053872399032115936279296875</LongitudeDegrees>
            </Position>
            <AltitudeMeters>17.200000762939453125</AltitudeMeters>
            <DistanceMeters>NAN</DistanceMeters>
          </Trackpoint>
          <Trackpoint>
            <Time>2022-07-07T10:43:21.000Z</Time>
            <Position>
              <LatitudeDegrees>43.55484598316252231597900390625</LatitudeDegrees>
              <LongitudeDegrees>-1.480610556900501251220703125</LongitudeDegrees>
            </Position>
            <AltitudeMeters>17.3999996185302734375</AltitudeMeters>
            <DistanceMeters>NAN</DistanceMeters>
          </Trackpoint>
          <Trackpoint>
            <Time>2022-07-07T10:43:26.000Z</Time>
            <Position>
              <LatitudeDegrees>43.5548940114676952362060546875</LatitudeDegrees>
              <LongitudeDegrees>-1.48088556714355945587158203125</LongitudeDegrees>
            </Position>
            <AltitudeMeters>17.200000762939453125</AltitudeMeters>
            <DistanceMeters>NAN</DistanceMeters>
          </Trackpoint>
          <Trackpoint>
            <Time>2022-07-07T10:43:32.000Z</Time>
            <Position>
              <LatitudeDegrees>43.55503088794648647308349609375</LatitudeDegrees>
              <LongitudeDegrees>-1.48124481551349163055419921875</LongitudeDegrees>
            </Position>
            <AltitudeMeters>17</AltitudeMeters>
            <DistanceMeters>NAN</DistanceMeters>
          </Trackpoint>
          <Trackpoint>
            <Time>2022-07-07T10:43:37.000Z</Time>
            <Position>
              <LatitudeDegrees>43.5551260225474834442138671875</LatitudeDegrees>
              <LongitudeDegrees>-1.4814894832670688629150390625</LongitudeDegrees>
            </Position>
            <AltitudeMeters>16.799999237060546875</AltitudeMeters>
            <DistanceMeters>NAN</DistanceMeters>
          </Trackpoint>
          <Trackpoint>
            <Time>2022-07-07T10:43:43.000Z</Time>
            <Position>
              <LatitudeDegrees>43.55516047216951847076416015625</LatitudeDegrees>
              <LongitudeDegrees>-1.4817768149077892303466796875</LongitudeDegrees>
            </Position>
            <AltitudeMeters>17</AltitudeMeters>
            <DistanceMeters>NAN</DistanceMeters>
          </Trackpoint>
          <Trackpoint>
            <Time>2022-07-07T10:43:48.000Z</Time>
            <Position>
              <LatitudeDegrees>43.555241189897060394287109375</LatitudeDegrees>
              <LongitudeDegrees>-1.48200522176921367645263671875</LongitudeDegrees>
            </Position>
            <AltitudeMeters>17</AltitudeMeters>
            <DistanceMeters>NAN</DistanceMeters>
          </Trackpoint>
          <Trackpoint>
            <Time>2022-07-07T10:43:54.000Z</Time>
            <Position>
              <LatitudeDegrees>43.555294163525104522705078125</LatitudeDegrees>
              <LongitudeDegrees>-1.4823380671441555023193359375</LongitudeDegrees>
            </Position>
            <AltitudeMeters>17</AltitudeMeters>
            <DistanceMeters>NAN</DistanceMeters>
          </Trackpoint>
          <Trackpoint>
            <Time>2022-07-07T10:43:59.000Z</Time>
            <Position>
              <LatitudeDegrees>43.5552799142897129058837890625</LatitudeDegrees>
              <LongitudeDegrees>-1.48246371187269687652587890625</LongitudeDegrees>
            </Position>
            <AltitudeMeters>16.799999237060546875</AltitudeMeters>
            <DistanceMeters>NAN</DistanceMeters>
          </Trackpoint>
          <Trackpoint>
            <Time>2022-07-07T10:44:02.000Z</Time>
            <Position>
              <LatitudeDegrees>43.55530179105699062347412109375</LatitudeDegrees>
              <LongitudeDegrees>-1.482569240033626556396484375</LongitudeDegrees>
            </Position>
            <AltitudeMeters>16.799999237060546875</AltitudeMeters>
            <DistanceMeters>NAN</DistanceMeters>
          </Trackpoint>
          <Trackpoint>
            <Time>2022-07-07T10:44:04.000Z</Time>
            <Position>
              <LatitudeDegrees>43.5553265176713466644287109375</LatitudeDegrees>
              <LongitudeDegrees>-1.48265180177986621856689453125</LongitudeDegrees>
            </Position>
            <AltitudeMeters>16.799999237060546875</AltitudeMeters>
            <DistanceMeters>NAN</DistanceMeters>
          </Trackpoint>
          <Trackpoint>
            <Time>2022-07-07T10:44:12.000Z</Time>
            <Position>
              <LatitudeDegrees>43.55543104000389575958251953125</LatitudeDegrees>
              <LongitudeDegrees>-1.4831095375120639801025390625</LongitudeDegrees>
            </Position>
            <AltitudeMeters>17</AltitudeMeters>
            <DistanceMeters>NAN</DistanceMeters>
          </Trackpoint>
          <Trackpoint>
            <Time>2022-07-07T10:44:18.000Z</Time>
            <Position>
              <LatitudeDegrees>43.55553396977484226226806640625</LatitudeDegrees>
              <LongitudeDegrees>-1.4833489246666431427001953125</LongitudeDegrees>
            </Position>
            <AltitudeMeters>17</AltitudeMeters>
            <DistanceMeters>NAN</DistanceMeters>
          </Trackpoint>
          <Trackpoint>
            <Time>2022-07-07T10:44:19.000Z</Time>
            <Position>
              <LatitudeDegrees>43.55556146241724491119384765625</LatitudeDegrees>
              <LongitudeDegrees>-1.4833814464509487152099609375</LongitudeDegrees>
            </Position>
            <AltitudeMeters>17.200000762939453125</AltitudeMeters>
            <DistanceMeters>NAN</DistanceMeters>
          </Trackpoint>
          <Trackpoint>
            <Time>2022-07-07T10:44:22.000Z</Time>
            <Position>
              <LatitudeDegrees>43.55565148405730724334716796875</LatitudeDegrees>
              <LongitudeDegrees>-1.48354028351604938507080078125</LongitudeDegrees>
            </Position>
            <AltitudeMeters>17.200000762939453125</AltitudeMeters>
            <DistanceMeters>NAN</DistanceMeters>
          </Trackpoint>
          <Trackpoint>
            <Time>2022-07-07T10:44:28.000Z</Time>
            <Position>
              <LatitudeDegrees>43.555755503475666046142578125</LatitudeDegrees>
              <LongitudeDegrees>-1.48377615027129650115966796875</LongitudeDegrees>
            </Position>
            <AltitudeMeters>17.200000762939453125</AltitudeMeters>
            <DistanceMeters>NAN</DistanceMeters>
          </Trackpoint>
          <Trackpoint>
            <Time>2022-07-07T10:44:33.000Z</Time>
            <Position>
              <LatitudeDegrees>43.5558337904512882232666015625</LatitudeDegrees>
              <LongitudeDegrees>-1.4840972609817981719970703125</LongitudeDegrees>
            </Position>
            <AltitudeMeters>17.200000762939453125</AltitudeMeters>
            <DistanceMeters>NAN</DistanceMeters>
          </Trackpoint>
          <Trackpoint>
            <Time>2022-07-07T10:44:38.000Z</Time>
            <Position>
              <LatitudeDegrees>43.5559202916920185089111328125</LatitudeDegrees>
              <LongitudeDegrees>-1.48427478969097137451171875</LongitudeDegrees>
            </Position>
            <AltitudeMeters>17.200000762939453125</AltitudeMeters>
            <DistanceMeters>NAN</DistanceMeters>
          </Trackpoint>
          <Trackpoint>
            <Time>2022-07-07T10:44:43.000Z</Time>
            <Position>
              <LatitudeDegrees>43.5560225509107112884521484375</LatitudeDegrees>
              <LongitudeDegrees>-1.484508812427520751953125</LongitudeDegrees>
            </Position>
            <AltitudeMeters>17.200000762939453125</AltitudeMeters>
            <DistanceMeters>NAN</DistanceMeters>
          </Trackpoint>
          <Trackpoint>
            <Time>2022-07-07T10:44:48.000Z</Time>
            <Position>
              <LatitudeDegrees>43.55606739409267902374267578125</LatitudeDegrees>
              <LongitudeDegrees>-1.48476563394069671630859375</LongitudeDegrees>
            </Position>
            <AltitudeMeters>17.200000762939453125</AltitudeMeters>
            <DistanceMeters>NAN</DistanceMeters>
          </Trackpoint>
          <Trackpoint>
            <Time>2022-07-07T10:44:54.000Z</Time>
            <Position>
              <LatitudeDegrees>43.55609103105962276458740234375</LatitudeDegrees>
              <LongitudeDegrees>-1.48496654815971851348876953125</LongitudeDegrees>
            </Position>
            <AltitudeMeters>17.6000003814697265625</AltitudeMeters>
            <DistanceMeters>NAN</DistanceMeters>
          </Trackpoint>
          <Trackpoint>
            <Time>2022-07-07T10:45:02.000Z</Time>
            <Position>
              <LatitudeDegrees>43.556172586977481842041015625</LatitudeDegrees>
              <LongitudeDegrees>-1.485376171767711639404296875</LongitudeDegrees>
            </Position>
            <AltitudeMeters>17.200000762939453125</AltitudeMeters>
            <DistanceMeters>NAN</DistanceMeters>
          </Trackpoint>
          <Trackpoint>
            <Time>2022-07-07T10:45:06.000Z</Time>
            <Position>
              <LatitudeDegrees>43.5562438331544399261474609375</LatitudeDegrees>
              <LongitudeDegrees>-1.485536433756351470947265625</LongitudeDegrees>
            </Position>
            <AltitudeMeters>17.200000762939453125</AltitudeMeters>
            <DistanceMeters>NAN</DistanceMeters>
          </Trackpoint>
          <Trackpoint>
            <Time>2022-07-07T10:45:07.000Z</Time>
            <Position>
              <LatitudeDegrees>43.5562636144459247589111328125</LatitudeDegrees>
              <LongitudeDegrees>-1.4855490066111087799072265625</LongitudeDegrees>
            </Position>
            <AltitudeMeters>17.200000762939453125</AltitudeMeters>
            <DistanceMeters>NAN</DistanceMeters>
          </Trackpoint>
          <Trackpoint>
            <Time>2022-07-07T10:45:10.000Z</Time>
            <Position>
              <LatitudeDegrees>43.55633326806128025054931640625</LatitudeDegrees>
              <LongitudeDegrees>-1.48557431995868682861328125</LongitudeDegrees>
            </Position>
            <AltitudeMeters>17</AltitudeMeters>
            <DistanceMeters>NAN</DistanceMeters>
          </Trackpoint>
          <Trackpoint>
            <Time>2022-07-07T10:45:13.000Z</Time>
            <Position>
              <LatitudeDegrees>43.55642161332070827484130859375</LatitudeDegrees>
              <LongitudeDegrees>-1.4856402017176151275634765625</LongitudeDegrees>
            </Position>
            <AltitudeMeters>17.200000762939453125</AltitudeMeters>
            <DistanceMeters>NAN</DistanceMeters>
          </Trackpoint>
          <Trackpoint>
            <Time>2022-07-07T10:45:16.000Z</Time>
            <Position>
              <LatitudeDegrees>43.55650241486728191375732421875</LatitudeDegrees>
              <LongitudeDegrees>-1.48570549674332141876220703125</LongitudeDegrees>
            </Position>
            <AltitudeMeters>17.3999996185302734375</AltitudeMeters>
            <DistanceMeters>NAN</DistanceMeters>
          </Trackpoint>
          <Trackpoint>
            <Time>2022-07-07T10:45:21.000Z</Time>
            <Position>
              <LatitudeDegrees>43.55664373375475406646728515625</LatitudeDegrees>
              <LongitudeDegrees>-1.48582686670124530792236328125</LongitudeDegrees>
            </Position>
            <AltitudeMeters>17.799999237060546875</AltitudeMeters>
            <DistanceMeters>NAN</DistanceMeters>
          </Trackpoint>
          <Trackpoint>
            <Time>2022-07-07T10:45:23.000Z</Time>
            <Position>
              <LatitudeDegrees>43.55669335462152957916259765625</LatitudeDegrees>
              <LongitudeDegrees>-1.4858619868755340576171875</LongitudeDegrees>
            </Position>
            <AltitudeMeters>17.799999237060546875</AltitudeMeters>
            <DistanceMeters>NAN</DistanceMeters>
          </Trackpoint>
          <Trackpoint>
            <Time>2022-07-07T10:45:28.000Z</Time>
            <Position>
              <LatitudeDegrees>43.55686518363654613494873046875</LatitudeDegrees>
              <LongitudeDegrees>-1.48597975261509418487548828125</LongitudeDegrees>
            </Position>
            <AltitudeMeters>18</AltitudeMeters>
            <DistanceMeters>NAN</DistanceMeters>
          </Trackpoint>
          <Trackpoint>
            <Time>2022-07-07T10:45:31.000Z</Time>
            <Position>
              <LatitudeDegrees>43.55697733350098133087158203125</LatitudeDegrees>
              <LongitudeDegrees>-1.4860277809202671051025390625</LongitudeDegrees>
            </Position>
            <AltitudeMeters>18</AltitudeMeters>
            <DistanceMeters>NAN</DistanceMeters>
          </Trackpoint>
          <Trackpoint>
            <Time>2022-07-07T10:45:40.000Z</Time>
            <Position>
              <LatitudeDegrees>43.55731495656073093414306640625</LatitudeDegrees>
              <LongitudeDegrees>-1.4862825907766819000244140625</LongitudeDegrees>
            </Position>
            <AltitudeMeters>17.6000003814697265625</AltitudeMeters>
            <DistanceMeters>NAN</DistanceMeters>
          </Trackpoint>
          <Trackpoint>
            <Time>2022-07-07T10:45:44.000Z</Time>
            <Position>
              <LatitudeDegrees>43.55742014944553375244140625</LatitudeDegrees>
              <LongitudeDegrees>-1.48634252138435840606689453125</LongitudeDegrees>
            </Position>
            <AltitudeMeters>17.3999996185302734375</AltitudeMeters>
            <DistanceMeters>NAN</DistanceMeters>
          </Trackpoint>
          <Trackpoint>
            <Time>2022-07-07T10:45:45.000Z</Time>
            <Position>
              <LatitudeDegrees>43.55742224492132663726806640625</LatitudeDegrees>
              <LongitudeDegrees>-1.48642064072191715240478515625</LongitudeDegrees>
            </Position>
            <AltitudeMeters>17.3999996185302734375</AltitudeMeters>
            <DistanceMeters>NAN</DistanceMeters>
          </Trackpoint>
          <Trackpoint>
            <Time>2022-07-07T10:45:46.000Z</Time>
            <Position>
              <LatitudeDegrees>43.55739927850663661956787109375</LatitudeDegrees>
              <LongitudeDegrees>-1.4864894561469554901123046875</LongitudeDegrees>
            </Position>
            <AltitudeMeters>17.6000003814697265625</AltitudeMeters>
            <DistanceMeters>NAN</DistanceMeters>
          </Trackpoint>
          <Trackpoint>
            <Time>2022-07-07T10:45:49.000Z</Time>
            <Position>
              <LatitudeDegrees>43.55735720135271549224853515625</LatitudeDegrees>
              <LongitudeDegrees>-1.486642844974994659423828125</LongitudeDegrees>
            </Position>
            <AltitudeMeters>17.799999237060546875</AltitudeMeters>
            <DistanceMeters>NAN</DistanceMeters>
          </Trackpoint>
          <Trackpoint>
            <Time>2022-07-07T10:45:53.000Z</Time>
            <Position>
              <LatitudeDegrees>43.55735418386757373809814453125</LatitudeDegrees>
              <LongitudeDegrees>-1.48684090934693813323974609375</LongitudeDegrees>
            </Position>
            <AltitudeMeters>17.799999237060546875</AltitudeMeters>
            <DistanceMeters>NAN</DistanceMeters>
          </Trackpoint>
          <Trackpoint>
            <Time>2022-07-07T10:45:57.000Z</Time>
            <Position>
              <LatitudeDegrees>43.55735636316239833831787109375</LatitudeDegrees>
              <LongitudeDegrees>-1.4870138280093669891357421875</LongitudeDegrees>
            </Position>
            <AltitudeMeters>18</AltitudeMeters>
            <DistanceMeters>NAN</DistanceMeters>
          </Trackpoint>
          <Trackpoint>
            <Time>2022-07-07T10:46:00.000Z</Time>
            <Position>
              <LatitudeDegrees>43.55737178586423397064208984375</LatitudeDegrees>
              <LongitudeDegrees>-1.48716813884675502777099609375</LongitudeDegrees>
            </Position>
            <AltitudeMeters>18.200000762939453125</AltitudeMeters>
            <DistanceMeters>NAN</DistanceMeters>
          </Trackpoint>
          <Trackpoint>
            <Time>2022-07-07T10:46:06.000Z</Time>
            <Position>
              <LatitudeDegrees>43.5574645735323429107666015625</LatitudeDegrees>
              <LongitudeDegrees>-1.48747357539832592010498046875</LongitudeDegrees>
            </Position>
            <AltitudeMeters>18</AltitudeMeters>
            <DistanceMeters>NAN</DistanceMeters>
          </Trackpoint>
          <Trackpoint>
            <Time>2022-07-07T10:46:12.000Z</Time>
            <Position>
              <LatitudeDegrees>43.5575571097433567047119140625</LatitudeDegrees>
              <LongitudeDegrees>-1.48774665780365467071533203125</LongitudeDegrees>
            </Position>
            <AltitudeMeters>18</AltitudeMeters>
            <DistanceMeters>NAN</DistanceMeters>
          </Trackpoint>
          <Trackpoint>
            <Time>2022-07-07T10:46:16.000Z</Time>
            <Position>
              <LatitudeDegrees>43.55764411389827728271484375</LatitudeDegrees>
              <LongitudeDegrees>-1.48793466389179229736328125</LongitudeDegrees>
            </Position>
            <AltitudeMeters>17.799999237060546875</AltitudeMeters>
            <DistanceMeters>NAN</DistanceMeters>
          </Trackpoint>
          <Trackpoint>
            <Time>2022-07-07T10:46:18.000Z</Time>
            <Position>
              <LatitudeDegrees>43.55770689435303211212158203125</LatitudeDegrees>
              <LongitudeDegrees>-1.4880372583866119384765625</LongitudeDegrees>
            </Position>
            <AltitudeMeters>17.3999996185302734375</AltitudeMeters>
            <DistanceMeters>NAN</DistanceMeters>
          </Trackpoint>
          <Trackpoint>
            <Time>2022-07-07T10:46:22.000Z</Time>
            <Position>
              <LatitudeDegrees>43.55785156600177288055419921875</LatitudeDegrees>
              <LongitudeDegrees>-1.48827798664569854736328125</LongitudeDegrees>
            </Position>
            <AltitudeMeters>17.3999996185302734375</AltitudeMeters>
            <DistanceMeters>NAN</DistanceMeters>
          </Trackpoint>
          <Trackpoint>
            <Time>2022-07-07T10:46:24.000Z</Time>
            <Position>
              <LatitudeDegrees>43.557887189090251922607421875</LatitudeDegrees>
              <LongitudeDegrees>-1.48835635744035243988037109375</LongitudeDegrees>
            </Position>
            <AltitudeMeters>17.6000003814697265625</AltitudeMeters>
            <DistanceMeters>NAN</DistanceMeters>
          </Trackpoint>
          <Trackpoint>
            <Time>2022-07-07T10:46:26.000Z</Time>
            <Position>
              <LatitudeDegrees>43.55783195234835147857666015625</LatitudeDegrees>
              <LongitudeDegrees>-1.48843850009143352508544921875</LongitudeDegrees>
            </Position>
            <AltitudeMeters>17.6000003814697265625</AltitudeMeters>
            <DistanceMeters>NAN</DistanceMeters>
          </Trackpoint>
          <Trackpoint>
            <Time>2022-07-07T10:46:29.000Z</Time>
            <Position>
              <LatitudeDegrees>43.557889200747013092041015625</LatitudeDegrees>
              <LongitudeDegrees>-1.488618291914463043212890625</LongitudeDegrees>
            </Position>
            <AltitudeMeters>17.6000003814697265625</AltitudeMeters>
            <DistanceMeters>NAN</DistanceMeters>
          </Trackpoint>
          <Trackpoint>
            <Time>2022-07-07T10:46:31.000Z</Time>
            <Position>
              <LatitudeDegrees>43.55793756432831287384033203125</LatitudeDegrees>
              <LongitudeDegrees>-1.48871845565736293792724609375</LongitudeDegrees>
            </Position>
            <AltitudeMeters>17.6000003814697265625</AltitudeMeters>
            <DistanceMeters>NAN</DistanceMeters>
          </Trackpoint>
          <Trackpoint>
            <Time>2022-07-07T10:46:32.000Z</Time>
            <Position>
              <LatitudeDegrees>43.557958267629146575927734375</LatitudeDegrees>
              <LongitudeDegrees>-1.48877277038991451263427734375</LongitudeDegrees>
            </Position>
            <AltitudeMeters>17.6000003814697265625</AltitudeMeters>
            <DistanceMeters>NAN</DistanceMeters>
          </Trackpoint>
          <Trackpoint>
            <Time>2022-07-07T10:46:36.000Z</Time>
            <Position>
              <LatitudeDegrees>43.55803965590894222259521484375</LatitudeDegrees>
              <LongitudeDegrees>-1.48900360800325870513916015625</LongitudeDegrees>
            </Position>
            <AltitudeMeters>17.3999996185302734375</AltitudeMeters>
            <DistanceMeters>NAN</DistanceMeters>
          </Trackpoint>
          <Trackpoint>
            <Time>2022-07-07T10:46:37.000Z</Time>
            <Position>
              <LatitudeDegrees>43.55807058513164520263671875</LatitudeDegrees>
              <LongitudeDegrees>-1.489055491983890533447265625</LongitudeDegrees>
            </Position>
            <AltitudeMeters>17.3999996185302734375</AltitudeMeters>
            <DistanceMeters>NAN</DistanceMeters>
          </Trackpoint>
          <Trackpoint>
            <Time>2022-07-07T10:46:38.000Z</Time>
            <Position>
              <LatitudeDegrees>43.5580913722515106201171875</LatitudeDegrees>
              <LongitudeDegrees>-1.489098407328128814697265625</LongitudeDegrees>
            </Position>
            <AltitudeMeters>17.3999996185302734375</AltitudeMeters>
            <DistanceMeters>NAN</DistanceMeters>
          </Trackpoint>
          <Trackpoint>
            <Time>2022-07-07T10:46:40.000Z</Time>
            <Position>
              <LatitudeDegrees>43.55812364257872104644775390625</LatitudeDegrees>
              <LongitudeDegrees>-1.4891932904720306396484375</LongitudeDegrees>
            </Position>
            <AltitudeMeters>17.3999996185302734375</AltitudeMeters>
            <DistanceMeters>NAN</DistanceMeters>
          </Trackpoint>
          <Trackpoint>
            <Time>2022-07-07T10:46:44.000Z</Time>
            <Position>
              <LatitudeDegrees>43.55818063952028751373291015625</LatitudeDegrees>
              <LongitudeDegrees>-1.4894328452646732330322265625</LongitudeDegrees>
            </Position>
            <AltitudeMeters>17.3999996185302734375</AltitudeMeters>
            <DistanceMeters>NAN</DistanceMeters>
          </Trackpoint>
          <Trackpoint>
            <Time>2022-07-07T10:46:47.000Z</Time>
            <Position>
              <LatitudeDegrees>43.55823026038706302642822265625</LatitudeDegrees>
              <LongitudeDegrees>-1.48957760073244571685791015625</LongitudeDegrees>
            </Position>
            <AltitudeMeters>17.3999996185302734375</AltitudeMeters>
            <DistanceMeters>NAN</DistanceMeters>
          </Trackpoint>
          <Trackpoint>
            <Time>2022-07-07T10:46:51.000Z</Time>
            <Position>
              <LatitudeDegrees>43.558321036398410797119140625</LatitudeDegrees>
              <LongitudeDegrees>-1.489812545478343963623046875</LongitudeDegrees>
            </Position>
            <AltitudeMeters>17.3999996185302734375</AltitudeMeters>
            <DistanceMeters>NAN</DistanceMeters>
          </Trackpoint>
          <Trackpoint>
            <Time>2022-07-07T10:46:57.000Z</Time>
            <Position>
              <LatitudeDegrees>43.5584492795169353485107421875</LatitudeDegrees>
              <LongitudeDegrees>-1.490116305649280548095703125</LongitudeDegrees>
            </Position>
            <AltitudeMeters>17.3999996185302734375</AltitudeMeters>
            <DistanceMeters>NAN</DistanceMeters>
          </Trackpoint>
          <Trackpoint>
            <Time>2022-07-07T10:46:58.000Z</Time>
            <Position>
              <LatitudeDegrees>43.5584628582000732421875</LatitudeDegrees>
              <LongitudeDegrees>-1.49016936309635639190673828125</LongitudeDegrees>
            </Position>
            <AltitudeMeters>17.3999996185302734375</AltitudeMeters>
            <DistanceMeters>NAN</DistanceMeters>
          </Trackpoint>
          <Trackpoint>
            <Time>2022-07-07T10:46:59.000Z</Time>
            <Position>
              <LatitudeDegrees>43.5584737546741962432861328125</LatitudeDegrees>
              <LongitudeDegrees>-1.4902190677821636199951171875</LongitudeDegrees>
            </Position>
            <AltitudeMeters>17.3999996185302734375</AltitudeMeters>
            <DistanceMeters>NAN</DistanceMeters>
          </Trackpoint>
          <Trackpoint>
            <Time>2022-07-07T10:47:02.000Z</Time>
            <Position>
              <LatitudeDegrees>43.5585119761526584625244140625</LatitudeDegrees>
              <LongitudeDegrees>-1.4903642423450946807861328125</LongitudeDegrees>
            </Position>
            <AltitudeMeters>17.3999996185302734375</AltitudeMeters>
            <DistanceMeters>NAN</DistanceMeters>
          </Trackpoint>
          <Trackpoint>
            <Time>2022-07-07T10:47:03.000Z</Time>
            <Position>
              <LatitudeDegrees>43.55853217653930187225341796875</LatitudeDegrees>
              <LongitudeDegrees>-1.49040975607931613922119140625</LongitudeDegrees>
            </Position>
            <AltitudeMeters>17.3999996185302734375</AltitudeMeters>
            <DistanceMeters>NAN</DistanceMeters>
          </Trackpoint>
          <Trackpoint>
            <Time>2022-07-07T10:47:07.000Z</Time>
            <Position>
              <LatitudeDegrees>43.5586009919643402099609375</LatitudeDegrees>
              <LongitudeDegrees>-1.490548811852931976318359375</LongitudeDegrees>
            </Position>
            <AltitudeMeters>17.3999996185302734375</AltitudeMeters>
            <DistanceMeters>NAN</DistanceMeters>
          </Trackpoint>
          <Trackpoint>
            <Time>2022-07-07T10:47:08.000Z</Time>
            <Position>
              <LatitudeDegrees>43.5586256347596645355224609375</LatitudeDegrees>
              <LongitudeDegrees>-1.49058896116912364959716796875</LongitudeDegrees>
            </Position>
            <AltitudeMeters>17.3999996185302734375</AltitudeMeters>
            <DistanceMeters>NAN</DistanceMeters>
          </Trackpoint>
          <Trackpoint>
            <Time>2022-07-07T10:47:13.000Z</Time>
            <Position>
              <LatitudeDegrees>43.5587299056351184844970703125</LatitudeDegrees>
              <LongitudeDegrees>-1.490849219262599945068359375</LongitudeDegrees>
            </Position>
            <AltitudeMeters>17.3999996185302734375</AltitudeMeters>
            <DistanceMeters>NAN</DistanceMeters>
          </Trackpoint>
          <Trackpoint>
            <Time>2022-07-07T10:47:20.000Z</Time>
            <Position>
              <LatitudeDegrees>43.5587976314127445220947265625</LatitudeDegrees>
              <LongitudeDegrees>-1.49114954285323619842529296875</LongitudeDegrees>
            </Position>
            <AltitudeMeters>17.3999996185302734375</AltitudeMeters>
            <DistanceMeters>NAN</DistanceMeters>
          </Trackpoint>
          <Trackpoint>
            <Time>2022-07-07T10:47:26.000Z</Time>
            <Position>
              <LatitudeDegrees>43.5588851384818553924560546875</LatitudeDegrees>
              <LongitudeDegrees>-1.4914535544812679290771484375</LongitudeDegrees>
            </Position>
            <AltitudeMeters>17</AltitudeMeters>
            <DistanceMeters>NAN</DistanceMeters>
          </Trackpoint>
          <Trackpoint>
            <Time>2022-07-07T10:47:31.000Z</Time>
            <Position>
              <LatitudeDegrees>43.55897583067417144775390625</LatitudeDegrees>
              <LongitudeDegrees>-1.49170853197574615478515625</LongitudeDegrees>
            </Position>
            <AltitudeMeters>17.3999996185302734375</AltitudeMeters>
            <DistanceMeters>NAN</DistanceMeters>
          </Trackpoint>
          <Trackpoint>
            <Time>2022-07-07T10:47:32.000Z</Time>
            <Position>
              <LatitudeDegrees>43.55898748151957988739013671875</LatitudeDegrees>
              <LongitudeDegrees>-1.491755135357379913330078125</LongitudeDegrees>
            </Position>
            <AltitudeMeters>17.200000762939453125</AltitudeMeters>
            <DistanceMeters>NAN</DistanceMeters>
          </Trackpoint>
          <Trackpoint>
            <Time>2022-07-07T10:47:33.000Z</Time>
            <Position>
              <LatitudeDegrees>43.55900575406849384307861328125</LatitudeDegrees>
              <LongitudeDegrees>-1.491807438433170318603515625</LongitudeDegrees>
            </Position>
            <AltitudeMeters>17.200000762939453125</AltitudeMeters>
            <DistanceMeters>NAN</DistanceMeters>
          </Trackpoint>
          <Trackpoint>
            <Time>2022-07-07T10:47:37.000Z</Time>
            <Position>
              <LatitudeDegrees>43.5590547882020473480224609375</LatitudeDegrees>
              <LongitudeDegrees>-1.49198689498007297515869140625</LongitudeDegrees>
            </Position>
            <AltitudeMeters>17.200000762939453125</AltitudeMeters>
            <DistanceMeters>NAN</DistanceMeters>
          </Trackpoint>
          <Trackpoint>
            <Time>2022-07-07T10:47:43.000Z</Time>
            <Position>
              <LatitudeDegrees>43.5591406188905239105224609375</LatitudeDegrees>
              <LongitudeDegrees>-1.49224757216870784759521484375</LongitudeDegrees>
            </Position>
            <AltitudeMeters>17</AltitudeMeters>
            <DistanceMeters>NAN</DistanceMeters>
          </Trackpoint>
          <Trackpoint>
            <Time>2022-07-07T10:47:45.000Z</Time>
            <Position>
              <LatitudeDegrees>43.55917238630354404449462890625</LatitudeDegrees>
              <LongitudeDegrees>-1.49234698154032230377197265625</LongitudeDegrees>
            </Position>
            <AltitudeMeters>17</AltitudeMeters>
            <DistanceMeters>NAN</DistanceMeters>
          </Trackpoint>
          <Trackpoint>
            <Time>2022-07-07T10:47:51.000Z</Time>
            <Position>
              <LatitudeDegrees>43.55929828248918056488037109375</LatitudeDegrees>
              <LongitudeDegrees>-1.49265962652862071990966796875</LongitudeDegrees>
            </Position>
            <AltitudeMeters>16.799999237060546875</AltitudeMeters>
            <DistanceMeters>NAN</DistanceMeters>
          </Trackpoint>
          <Trackpoint>
            <Time>2022-07-07T10:47:54.000Z</Time>
            <Position>
              <LatitudeDegrees>43.5593501664698123931884765625</LatitudeDegrees>
              <LongitudeDegrees>-1.49281133897602558135986328125</LongitudeDegrees>
            </Position>
            <AltitudeMeters>16.799999237060546875</AltitudeMeters>
            <DistanceMeters>NAN</DistanceMeters>
          </Trackpoint>
          <Trackpoint>
            <Time>2022-07-07T10:47:55.000Z</Time>
            <Position>
              <LatitudeDegrees>43.5593692772090435028076171875</LatitudeDegrees>
              <LongitudeDegrees>-1.492865569889545440673828125</LongitudeDegrees>
            </Position>
            <AltitudeMeters>16.799999237060546875</AltitudeMeters>
            <DistanceMeters>NAN</DistanceMeters>
          </Trackpoint>
          <Trackpoint>
            <Time>2022-07-07T10:48:00.000Z</Time>
            <Position>
              <LatitudeDegrees>43.55944345705211162567138671875</LatitudeDegrees>
              <LongitudeDegrees>-1.49311132729053497314453125</LongitudeDegrees>
            </Position>
            <AltitudeMeters>16.799999237060546875</AltitudeMeters>
            <DistanceMeters>NAN</DistanceMeters>
          </Trackpoint>
          <Trackpoint>
            <Time>2022-07-07T10:48:01.000Z</Time>
            <Position>
              <LatitudeDegrees>43.5594631545245647430419921875</LatitudeDegrees>
              <LongitudeDegrees>-1.49316824041306972503662109375</LongitudeDegrees>
            </Position>
            <AltitudeMeters>16.799999237060546875</AltitudeMeters>
            <DistanceMeters>NAN</DistanceMeters>
          </Trackpoint>
          <Trackpoint>
            <Time>2022-07-07T10:48:09.000Z</Time>
            <Position>
              <LatitudeDegrees>43.55964512564241886138916015625</LatitudeDegrees>
              <LongitudeDegrees>-1.49351634085178375244140625</LongitudeDegrees>
            </Position>
            <AltitudeMeters>16.3999996185302734375</AltitudeMeters>
            <DistanceMeters>NAN</DistanceMeters>
          </Trackpoint>
          <Trackpoint>
            <Time>2022-07-07T10:48:12.000Z</Time>
            <Position>
              <LatitudeDegrees>43.5596502386033535003662109375</LatitudeDegrees>
              <LongitudeDegrees>-1.49352572858333587646484375</LongitudeDegrees>
            </Position>
            <AltitudeMeters>16.200000762939453125</AltitudeMeters>
            <DistanceMeters>NAN</DistanceMeters>
          </Trackpoint>
          <Trackpoint>
            <Time>2022-07-07T10:48:13.000Z</Time>
            <Position>
              <LatitudeDegrees>43.5596502386033535003662109375</LatitudeDegrees>
              <LongitudeDegrees>-1.49352572858333587646484375</LongitudeDegrees>
            </Position>
            <AltitudeMeters>16.200000762939453125</AltitudeMeters>
            <DistanceMeters>NAN</DistanceMeters>
          </Trackpoint>
          <Trackpoint>
            <Time>2022-07-07T10:48:32.000Z</Time>
            <Position>
              <LatitudeDegrees>43.55963104404509067535400390625</LatitudeDegrees>
              <LongitudeDegrees>-1.49329279549419879913330078125</LongitudeDegrees>
            </Position>
            <AltitudeMeters>15.19999980926513671875</AltitudeMeters>
            <DistanceMeters>NAN</DistanceMeters>
          </Trackpoint>
          <Trackpoint>
            <Time>2022-07-07T10:48:35.000Z</Time>
            <Position>
              <LatitudeDegrees>43.5596378333866596221923828125</LatitudeDegrees>
              <LongitudeDegrees>-1.49324367754161357879638671875</LongitudeDegrees>
            </Position>
            <AltitudeMeters>15</AltitudeMeters>
            <DistanceMeters>NAN</DistanceMeters>
          </Trackpoint>
          <Trackpoint>
            <Time>2022-07-07T10:48:36.000Z</Time>
            <Position>
              <LatitudeDegrees>43.55963489972054958343505859375</LatitudeDegrees>
              <LongitudeDegrees>-1.49322674609720706939697265625</LongitudeDegrees>
            </Position>
            <AltitudeMeters>15</AltitudeMeters>
            <DistanceMeters>NAN</DistanceMeters>
          </Trackpoint>
          <Trackpoint>
            <Time>2022-07-07T10:48:40.000Z</Time>
            <Position>
              <LatitudeDegrees>43.559614531695842742919921875</LatitudeDegrees>
              <LongitudeDegrees>-1.493172012269496917724609375</LongitudeDegrees>
            </Position>
            <AltitudeMeters>15</AltitudeMeters>
            <DistanceMeters>NAN</DistanceMeters>
          </Trackpoint>
          <Trackpoint>
            <Time>2022-07-07T10:48:41.000Z</Time>
            <Position>
              <LatitudeDegrees>43.55961444787681102752685546875</LatitudeDegrees>
              <LongitudeDegrees>-1.49315952323377132415771484375</LongitudeDegrees>
            </Position>
            <AltitudeMeters>15</AltitudeMeters>
            <DistanceMeters>NAN</DistanceMeters>
          </Trackpoint>
          <Trackpoint>
            <Time>2022-07-07T10:48:43.000Z</Time>
            <Position>
              <LatitudeDegrees>43.55962098576128482818603515625</LatitudeDegrees>
              <LongitudeDegrees>-1.49313320405781269073486328125</LongitudeDegrees>
            </Position>
            <AltitudeMeters>14.80000019073486328125</AltitudeMeters>
            <DistanceMeters>NAN</DistanceMeters>
          </Trackpoint>
          <Trackpoint>
            <Time>2022-07-07T10:48:47.000Z</Time>
            <Position>
              <LatitudeDegrees>43.55962735600769519805908203125</LatitudeDegrees>
              <LongitudeDegrees>-1.49308810941874980926513671875</LongitudeDegrees>
            </Position>
            <AltitudeMeters>14.6000003814697265625</AltitudeMeters>
            <DistanceMeters>NAN</DistanceMeters>
          </Trackpoint>
          <Trackpoint>
            <Time>2022-07-07T10:48:52.000Z</Time>
            <Position>
              <LatitudeDegrees>43.5596395097672939300537109375</LatitudeDegrees>
              <LongitudeDegrees>-1.49307603947818279266357421875</LongitudeDegrees>
            </Position>
            <AltitudeMeters>14.6000003814697265625</AltitudeMeters>
            <DistanceMeters>NAN</DistanceMeters>
          </Trackpoint>
          <Trackpoint>
            <Time>2022-07-07T11:09:52.000Z</Time>
            <Position>
              <LatitudeDegrees>43.55958871543407440185546875</LatitudeDegrees>
              <LongitudeDegrees>-1.493013091385364532470703125</LongitudeDegrees>
            </Position>
            <AltitudeMeters>10.6000003814697265625</AltitudeMeters>
            <DistanceMeters>NAN</DistanceMeters>
          </Trackpoint>
          <Trackpoint>
            <Time>2022-07-07T11:09:53.000Z</Time>
            <Position>
              <LatitudeDegrees>43.55957957915961742401123046875</LatitudeDegrees>
              <LongitudeDegrees>-1.49300110526382923126220703125</LongitudeDegrees>
            </Position>
            <AltitudeMeters>10.6000003814697265625</AltitudeMeters>
            <DistanceMeters>NAN</DistanceMeters>
          </Trackpoint>
          <Trackpoint>
            <Time>2022-07-07T11:09:54.000Z</Time>
            <Position>
              <LatitudeDegrees>43.5595714487135410308837890625</LatitudeDegrees>
              <LongitudeDegrees>-1.49299020878970623016357421875</LongitudeDegrees>
            </Position>
            <AltitudeMeters>11.19999980926513671875</AltitudeMeters>
            <DistanceMeters>NAN</DistanceMeters>
          </Trackpoint>
          <Trackpoint>
            <Time>2022-07-07T11:09:57.000Z</Time>
            <Position>
              <LatitudeDegrees>43.5595459677278995513916015625</LatitudeDegrees>
              <LongitudeDegrees>-1.492963470518589019775390625</LongitudeDegrees>
            </Position>
            <AltitudeMeters>11.6000003814697265625</AltitudeMeters>
            <DistanceMeters>NAN</DistanceMeters>
          </Trackpoint>
          <Trackpoint>
            <Time>2022-07-07T11:09:58.000Z</Time>
            <Position>
              <LatitudeDegrees>43.55953113175928592681884765625</LatitudeDegrees>
              <LongitudeDegrees>-1.49295282550156116485595703125</LongitudeDegrees>
            </Position>
            <AltitudeMeters>11.6000003814697265625</AltitudeMeters>
            <DistanceMeters>NAN</DistanceMeters>
          </Trackpoint>
          <Trackpoint>
            <Time>2022-07-07T11:09:59.000Z</Time>
            <Position>
              <LatitudeDegrees>43.5595268569886684417724609375</LatitudeDegrees>
              <LongitudeDegrees>-1.492948718369007110595703125</LongitudeDegrees>
            </Position>
            <AltitudeMeters>11.6000003814697265625</AltitudeMeters>
            <DistanceMeters>NAN</DistanceMeters>
          </Trackpoint>
          <Trackpoint>
            <Time>2022-07-07T11:10:04.000Z</Time>
            <Position>
              <LatitudeDegrees>43.559524007141590118408203125</LatitudeDegrees>
              <LongitudeDegrees>-1.49292667396366596221923828125</LongitudeDegrees>
            </Position>
            <AltitudeMeters>11.80000019073486328125</AltitudeMeters>
            <DistanceMeters>NAN</DistanceMeters>
          </Trackpoint>
          <Trackpoint>
            <Time>2022-07-07T11:10:05.000Z</Time>
            <Position>
              <LatitudeDegrees>43.55952308513224124908447265625</LatitudeDegrees>
              <LongitudeDegrees>-1.49292365647852420806884765625</LongitudeDegrees>
            </Position>
            <AltitudeMeters>11.80000019073486328125</AltitudeMeters>
            <DistanceMeters>NAN</DistanceMeters>
          </Trackpoint>
          <Trackpoint>
            <Time>2022-07-07T11:10:09.000Z</Time>
            <Position>
              <LatitudeDegrees>43.5595412738621234893798828125</LatitudeDegrees>
              <LongitudeDegrees>-1.49292767979204654693603515625</LongitudeDegrees>
            </Position>
            <AltitudeMeters>11.6000003814697265625</AltitudeMeters>
            <DistanceMeters>NAN</DistanceMeters>
          </Trackpoint>
          <Trackpoint>
            <Time>2022-07-07T11:10:10.000Z</Time>
            <Position>
              <LatitudeDegrees>43.5595412738621234893798828125</LatitudeDegrees>
              <LongitudeDegrees>-1.49292767979204654693603515625</LongitudeDegrees>
            </Position>
            <AltitudeMeters>11.6000003814697265625</AltitudeMeters>
            <DistanceMeters>NAN</DistanceMeters>
          </Trackpoint>
          <Trackpoint>
            <Time>2022-07-07T11:10:12.000Z</Time>
            <Position>
              <LatitudeDegrees>43.5595412738621234893798828125</LatitudeDegrees>
              <LongitudeDegrees>-1.49292767979204654693603515625</LongitudeDegrees>
            </Position>
            <AltitudeMeters>11.3999996185302734375</AltitudeMeters>
            <DistanceMeters>NAN</DistanceMeters>
          </Trackpoint>
          <Trackpoint>
            <Time>2022-07-07T11:10:13.000Z</Time>
            <Position>
              <LatitudeDegrees>43.5595412738621234893798828125</LatitudeDegrees>
              <LongitudeDegrees>-1.49292767979204654693603515625</LongitudeDegrees>
            </Position>
            <AltitudeMeters>11.3999996185302734375</AltitudeMeters>
            <DistanceMeters>NAN</DistanceMeters>
          </Trackpoint>
          <Trackpoint>
            <Time>2022-07-07T12:12:58.000Z</Time>
            <Position>
              <LatitudeDegrees>43.55967027135193347930908203125</LatitudeDegrees>
              <LongitudeDegrees>-1.4932399056851863861083984375</LongitudeDegrees>
            </Position>
            <AltitudeMeters>11.19999980926513671875</AltitudeMeters>
            <DistanceMeters>NAN</DistanceMeters>
          </Trackpoint>
          <Trackpoint>
            <Time>2022-07-07T12:12:59.000Z</Time>
            <Position>
              <LatitudeDegrees>43.5596773959696292877197265625</LatitudeDegrees>
              <LongitudeDegrees>-1.49326127953827381134033203125</LongitudeDegrees>
            </Position>
            <AltitudeMeters>11.3999996185302734375</AltitudeMeters>
            <DistanceMeters>NAN</DistanceMeters>
          </Trackpoint>
          <Trackpoint>
            <Time>2022-07-07T12:13:03.000Z</Time>
            <Position>
              <LatitudeDegrees>43.55968150310218334197998046875</LatitudeDegrees>
              <LongitudeDegrees>-1.49336881935596466064453125</LongitudeDegrees>
            </Position>
            <AltitudeMeters>11.80000019073486328125</AltitudeMeters>
            <DistanceMeters>NAN</DistanceMeters>
          </Trackpoint>
          <Trackpoint>
            <Time>2022-07-07T12:13:05.000Z</Time>
            <Position>
              <LatitudeDegrees>43.5596824251115322113037109375</LatitudeDegrees>
              <LongitudeDegrees>-1.49342372082173824310302734375</LongitudeDegrees>
            </Position>
            <AltitudeMeters>11.80000019073486328125</AltitudeMeters>
            <DistanceMeters>NAN</DistanceMeters>
          </Trackpoint>
          <Trackpoint>
            <Time>2022-07-07T12:13:08.000Z</Time>
            <Position>
              <LatitudeDegrees>43.55967781506478786468505859375</LatitudeDegrees>
              <LongitudeDegrees>-1.4934853278100490570068359375</LongitudeDegrees>
            </Position>
            <AltitudeMeters>11.80000019073486328125</AltitudeMeters>
            <DistanceMeters>NAN</DistanceMeters>
          </Trackpoint>
          <Trackpoint>
            <Time>2022-07-07T12:13:12.000Z</Time>
            <Position>
              <LatitudeDegrees>43.55969491414725780487060546875</LatitudeDegrees>
              <LongitudeDegrees>-1.49355657398700714111328125</LongitudeDegrees>
            </Position>
            <AltitudeMeters>11.6000003814697265625</AltitudeMeters>
            <DistanceMeters>NAN</DistanceMeters>
          </Trackpoint>
          <Trackpoint>
            <Time>2022-07-07T12:13:14.000Z</Time>
            <Position>
              <LatitudeDegrees>43.55971612036228179931640625</LatitudeDegrees>
              <LongitudeDegrees>-1.49358741939067840576171875</LongitudeDegrees>
            </Position>
            <AltitudeMeters>11.6000003814697265625</AltitudeMeters>
            <DistanceMeters>NAN</DistanceMeters>
          </Trackpoint>
          <Trackpoint>
            <Time>2022-07-07T12:13:17.000Z</Time>
            <Position>
              <LatitudeDegrees>43.55974839068949222564697265625</LatitudeDegrees>
              <LongitudeDegrees>-1.49363310076296329498291015625</LongitudeDegrees>
            </Position>
            <AltitudeMeters>11.6000003814697265625</AltitudeMeters>
            <DistanceMeters>NAN</DistanceMeters>
          </Trackpoint>
          <Trackpoint>
            <Time>2022-07-07T12:13:22.000Z</Time>
            <Position>
              <LatitudeDegrees>43.5598369874060153961181640625</LatitudeDegrees>
              <LongitudeDegrees>-1.49373552761971950531005859375</LongitudeDegrees>
            </Position>
            <AltitudeMeters>12</AltitudeMeters>
            <DistanceMeters>NAN</DistanceMeters>
          </Trackpoint>
          <Trackpoint>
            <Time>2022-07-07T12:13:26.000Z</Time>
            <Position>
              <LatitudeDegrees>43.55993949808180332183837890625</LatitudeDegrees>
              <LongitudeDegrees>-1.49379529058933258056640625</LongitudeDegrees>
            </Position>
            <AltitudeMeters>12</AltitudeMeters>
            <DistanceMeters>NAN</DistanceMeters>
          </Trackpoint>
          <Trackpoint>
            <Time>2022-07-07T12:13:28.000Z</Time>
            <Position>
              <LatitudeDegrees>43.5599945671856403350830078125</LatitudeDegrees>
              <LongitudeDegrees>-1.49383309297263622283935546875</LongitudeDegrees>
            </Position>
            <AltitudeMeters>11.80000019073486328125</AltitudeMeters>
            <DistanceMeters>NAN</DistanceMeters>
          </Trackpoint>
          <Trackpoint>
            <Time>2022-07-07T12:13:30.000Z</Time>
            <Position>
              <LatitudeDegrees>43.5600465349853038787841796875</LatitudeDegrees>
              <LongitudeDegrees>-1.49386142380535602569580078125</LongitudeDegrees>
            </Position>
            <AltitudeMeters>11.6000003814697265625</AltitudeMeters>
            <DistanceMeters>NAN</DistanceMeters>
          </Trackpoint>
          <Trackpoint>
            <Time>2022-07-07T12:13:32.000Z</Time>
            <Position>
              <LatitudeDegrees>43.5601055435836315155029296875</LatitudeDegrees>
              <LongitudeDegrees>-1.493891179561614990234375</LongitudeDegrees>
            </Position>
            <AltitudeMeters>11.6000003814697265625</AltitudeMeters>
            <DistanceMeters>NAN</DistanceMeters>
          </Trackpoint>
          <Trackpoint>
            <Time>2022-07-07T12:13:33.000Z</Time>
            <Position>
              <LatitudeDegrees>43.5601323656737804412841796875</LatitudeDegrees>
              <LongitudeDegrees>-1.49391087703406810760498046875</LongitudeDegrees>
            </Position>
            <AltitudeMeters>11.6000003814697265625</AltitudeMeters>
            <DistanceMeters>NAN</DistanceMeters>
          </Trackpoint>
          <Trackpoint>
            <Time>2022-07-07T12:13:34.000Z</Time>
            <Position>
              <LatitudeDegrees>43.56015172787010669708251953125</LatitudeDegrees>
              <LongitudeDegrees>-1.49393744766712188720703125</LongitudeDegrees>
            </Position>
            <AltitudeMeters>11.6000003814697265625</AltitudeMeters>
            <DistanceMeters>NAN</DistanceMeters>
          </Trackpoint>
          <Trackpoint>
            <Time>2022-07-07T12:13:35.000Z</Time>
            <Position>
              <LatitudeDegrees>43.5601655580103397369384765625</LatitudeDegrees>
              <LongitudeDegrees>-1.493970640003681182861328125</LongitudeDegrees>
            </Position>
            <AltitudeMeters>11.80000019073486328125</AltitudeMeters>
            <DistanceMeters>NAN</DistanceMeters>
          </Trackpoint>
          <Trackpoint>
            <Time>2022-07-07T12:13:38.000Z</Time>
            <Position>
              <LatitudeDegrees>43.5601856745779514312744140625</LatitudeDegrees>
              <LongitudeDegrees>-1.4940951950848102569580078125</LongitudeDegrees>
            </Position>
            <AltitudeMeters>12</AltitudeMeters>
            <DistanceMeters>NAN</DistanceMeters>
          </Trackpoint>
          <Trackpoint>
            <Time>2022-07-07T12:13:40.000Z</Time>
            <Position>
              <LatitudeDegrees>43.5601967386901378631591796875</LatitudeDegrees>
              <LongitudeDegrees>-1.49417490698397159576416015625</LongitudeDegrees>
            </Position>
            <AltitudeMeters>12</AltitudeMeters>
            <DistanceMeters>NAN</DistanceMeters>
          </Trackpoint>
          <Trackpoint>
            <Time>2022-07-07T12:13:47.000Z</Time>
            <Position>
              <LatitudeDegrees>43.560246191918849945068359375</LatitudeDegrees>
              <LongitudeDegrees>-1.49442653171718120574951171875</LongitudeDegrees>
            </Position>
            <AltitudeMeters>11.80000019073486328125</AltitudeMeters>
            <DistanceMeters>NAN</DistanceMeters>
          </Trackpoint>
          <Trackpoint>
            <Time>2022-07-07T12:13:53.000Z</Time>
            <Position>
              <LatitudeDegrees>43.5602792166173458099365234375</LatitudeDegrees>
              <LongitudeDegrees>-1.49462082423269748687744140625</LongitudeDegrees>
            </Position>
            <AltitudeMeters>11.6000003814697265625</AltitudeMeters>
            <DistanceMeters>NAN</DistanceMeters>
          </Trackpoint>
          <Trackpoint>
            <Time>2022-07-07T12:14:00.000Z</Time>
            <Position>
              <LatitudeDegrees>43.56027879752218723297119140625</LatitudeDegrees>
              <LongitudeDegrees>-1.49486624635756015777587890625</LongitudeDegrees>
            </Position>
            <AltitudeMeters>11.80000019073486328125</AltitudeMeters>
            <DistanceMeters>NAN</DistanceMeters>
          </Trackpoint>
          <Trackpoint>
            <Time>2022-07-07T12:14:04.000Z</Time>
            <Position>
              <LatitudeDegrees>43.5602165199816226959228515625</LatitudeDegrees>
              <LongitudeDegrees>-1.49500220082700252532958984375</LongitudeDegrees>
            </Position>
            <AltitudeMeters>11.3999996185302734375</AltitudeMeters>
            <DistanceMeters>NAN</DistanceMeters>
          </Trackpoint>
          <Trackpoint>
            <Time>2022-07-07T12:14:06.000Z</Time>
            <Position>
              <LatitudeDegrees>43.560171425342559814453125</LatitudeDegrees>
              <LongitudeDegrees>-1.49503313004970550537109375</LongitudeDegrees>
            </Position>
            <AltitudeMeters>11.3999996185302734375</AltitudeMeters>
            <DistanceMeters>NAN</DistanceMeters>
          </Trackpoint>
          <Trackpoint>
            <Time>2022-07-07T12:14:15.000Z</Time>
            <Position>
              <LatitudeDegrees>43.5599040426313877105712890625</LatitudeDegrees>
              <LongitudeDegrees>-1.49514486081898212432861328125</LongitudeDegrees>
            </Position>
            <AltitudeMeters>11.3999996185302734375</AltitudeMeters>
            <DistanceMeters>NAN</DistanceMeters>
          </Trackpoint>
          <Trackpoint>
            <Time>2022-07-07T12:14:25.000Z</Time>
            <Position>
              <LatitudeDegrees>43.55964646674692630767822265625</LatitudeDegrees>
              <LongitudeDegrees>-1.49530177004635334014892578125</LongitudeDegrees>
            </Position>
            <AltitudeMeters>11.3999996185302734375</AltitudeMeters>
            <DistanceMeters>NAN</DistanceMeters>
          </Trackpoint>
          <Trackpoint>
            <Time>2022-07-07T12:14:33.000Z</Time>
            <Position>
              <LatitudeDegrees>43.5594557784497737884521484375</LatitudeDegrees>
              <LongitudeDegrees>-1.49540034122765064239501953125</LongitudeDegrees>
            </Position>
            <AltitudeMeters>11.3999996185302734375</AltitudeMeters>
            <DistanceMeters>NAN</DistanceMeters>
          </Trackpoint>
          <Trackpoint>
            <Time>2022-07-07T12:14:39.000Z</Time>
            <Position>
              <LatitudeDegrees>43.55928051285445690155029296875</LatitudeDegrees>
              <LongitudeDegrees>-1.495516262948513031005859375</LongitudeDegrees>
            </Position>
            <AltitudeMeters>11.19999980926513671875</AltitudeMeters>
            <DistanceMeters>NAN</DistanceMeters>
          </Trackpoint>
          <Trackpoint>
            <Time>2022-07-07T12:14:49.000Z</Time>
            <Position>
              <LatitudeDegrees>43.5589977912604808807373046875</LatitudeDegrees>
              <LongitudeDegrees>-1.49569722823798656463623046875</LongitudeDegrees>
            </Position>
            <AltitudeMeters>11.19999980926513671875</AltitudeMeters>
            <DistanceMeters>NAN</DistanceMeters>
          </Trackpoint>
          <Trackpoint>
            <Time>2022-07-07T12:15:00.000Z</Time>
            <Position>
              <LatitudeDegrees>43.5586776025593280792236328125</LatitudeDegrees>
              <LongitudeDegrees>-1.49596679024398326873779296875</LongitudeDegrees>
            </Position>
            <AltitudeMeters>11.6000003814697265625</AltitudeMeters>
            <DistanceMeters>NAN</DistanceMeters>
          </Trackpoint>
          <Trackpoint>
            <Time>2022-07-07T12:15:09.000Z</Time>
            <Position>
              <LatitudeDegrees>43.55837090872228145599365234375</LatitudeDegrees>
              <LongitudeDegrees>-1.49623082019388675689697265625</LongitudeDegrees>
            </Position>
            <AltitudeMeters>11.3999996185302734375</AltitudeMeters>
            <DistanceMeters>NAN</DistanceMeters>
          </Trackpoint>
          <Trackpoint>
            <Time>2022-07-07T12:15:16.000Z</Time>
            <Position>
              <LatitudeDegrees>43.55812800116837024688720703125</LatitudeDegrees>
              <LongitudeDegrees>-1.49636358954012393951416015625</LongitudeDegrees>
            </Position>
            <AltitudeMeters>11.19999980926513671875</AltitudeMeters>
            <DistanceMeters>NAN</DistanceMeters>
          </Trackpoint>
          <Trackpoint>
            <Time>2022-07-07T12:15:21.000Z</Time>
            <Position>
              <LatitudeDegrees>43.55795416049659252166748046875</LatitudeDegrees>
              <LongitudeDegrees>-1.49645729921758174896240234375</LongitudeDegrees>
            </Position>
            <AltitudeMeters>10.80000019073486328125</AltitudeMeters>
            <DistanceMeters>NAN</DistanceMeters>
          </Trackpoint>
          <Trackpoint>
            <Time>2022-07-07T12:15:25.000Z</Time>
            <Position>
              <LatitudeDegrees>43.557837568223476409912109375</LatitudeDegrees>
              <LongitudeDegrees>-1.4965926669538021087646484375</LongitudeDegrees>
            </Position>
            <AltitudeMeters>10.6000003814697265625</AltitudeMeters>
            <DistanceMeters>NAN</DistanceMeters>
          </Trackpoint>
          <Trackpoint>
            <Time>2022-07-07T12:15:26.000Z</Time>
            <Position>
              <LatitudeDegrees>43.5578092373907566070556640625</LatitudeDegrees>
              <LongitudeDegrees>-1.4966147951781749725341796875</LongitudeDegrees>
            </Position>
            <AltitudeMeters>10.6000003814697265625</AltitudeMeters>
            <DistanceMeters>NAN</DistanceMeters>
          </Trackpoint>
          <Trackpoint>
            <Time>2022-07-07T12:15:31.000Z</Time>
            <Position>
              <LatitudeDegrees>43.55768610723316669464111328125</LatitudeDegrees>
              <LongitudeDegrees>-1.49672367610037326812744140625</LongitudeDegrees>
            </Position>
            <AltitudeMeters>10.6000003814697265625</AltitudeMeters>
            <DistanceMeters>NAN</DistanceMeters>
          </Trackpoint>
          <Trackpoint>
            <Time>2022-07-07T12:15:32.000Z</Time>
            <Position>
              <LatitudeDegrees>43.557662554085254669189453125</LatitudeDegrees>
              <LongitudeDegrees>-1.49674446322023868560791015625</LongitudeDegrees>
            </Position>
            <AltitudeMeters>10.6000003814697265625</AltitudeMeters>
            <DistanceMeters>NAN</DistanceMeters>
          </Trackpoint>
          <Trackpoint>
            <Time>2022-07-07T12:15:38.000Z</Time>
            <Position>
              <LatitudeDegrees>43.55757831595838069915771484375</LatitudeDegrees>
              <LongitudeDegrees>-1.49692165665328502655029296875</LongitudeDegrees>
            </Position>
            <AltitudeMeters>10.6000003814697265625</AltitudeMeters>
            <DistanceMeters>NAN</DistanceMeters>
          </Trackpoint>
          <Trackpoint>
            <Time>2022-07-07T12:15:41.000Z</Time>
            <Position>
              <LatitudeDegrees>43.5575809143483638763427734375</LatitudeDegrees>
              <LongitudeDegrees>-1.4970322139561176300048828125</LongitudeDegrees>
            </Position>
            <AltitudeMeters>10.6000003814697265625</AltitudeMeters>
            <DistanceMeters>NAN</DistanceMeters>
          </Trackpoint>
          <Trackpoint>
            <Time>2022-07-07T12:15:45.000Z</Time>
            <Position>
              <LatitudeDegrees>43.55758854188024997711181640625</LatitudeDegrees>
              <LongitudeDegrees>-1.49718853645026683807373046875</LongitudeDegrees>
            </Position>
            <AltitudeMeters>10.6000003814697265625</AltitudeMeters>
            <DistanceMeters>NAN</DistanceMeters>
          </Trackpoint>
          <Trackpoint>
            <Time>2022-07-07T12:15:46.000Z</Time>
            <Position>
              <LatitudeDegrees>43.5575879551470279693603515625</LatitudeDegrees>
              <LongitudeDegrees>-1.4972286857664585113525390625</LongitudeDegrees>
            </Position>
            <AltitudeMeters>10.80000019073486328125</AltitudeMeters>
            <DistanceMeters>NAN</DistanceMeters>
          </Trackpoint>
          <Trackpoint>
            <Time>2022-07-07T12:15:48.000Z</Time>
            <Position>
              <LatitudeDegrees>43.557591475546360015869140625</LatitudeDegrees>
              <LongitudeDegrees>-1.49731007404625415802001953125</LongitudeDegrees>
            </Position>
            <AltitudeMeters>10.80000019073486328125</AltitudeMeters>
            <DistanceMeters>NAN</DistanceMeters>
          </Trackpoint>
          <Trackpoint>
            <Time>2022-07-07T12:15:54.000Z</Time>
            <Position>
              <LatitudeDegrees>43.55759474448859691619873046875</LatitudeDegrees>
              <LongitudeDegrees>-1.49751442484557628631591796875</LongitudeDegrees>
            </Position>
            <AltitudeMeters>10.80000019073486328125</AltitudeMeters>
            <DistanceMeters>NAN</DistanceMeters>
          </Trackpoint>
          <Trackpoint>
            <Time>2022-07-07T12:15:55.000Z</Time>
            <Position>
              <LatitudeDegrees>43.557596839964389801025390625</LatitudeDegrees>
              <LongitudeDegrees>-1.49754895828664302825927734375</LongitudeDegrees>
            </Position>
            <AltitudeMeters>10.80000019073486328125</AltitudeMeters>
            <DistanceMeters>NAN</DistanceMeters>
          </Trackpoint>
          <Trackpoint>
            <Time>2022-07-07T12:15:59.000Z</Time>
            <Position>
              <LatitudeDegrees>43.55759792961180210113525390625</LatitudeDegrees>
              <LongitudeDegrees>-1.49766244925558567047119140625</LongitudeDegrees>
            </Position>
            <AltitudeMeters>11</AltitudeMeters>
            <DistanceMeters>NAN</DistanceMeters>
          </Trackpoint>
          <Trackpoint>
            <Time>2022-07-07T12:16:00.000Z</Time>
            <Position>
              <LatitudeDegrees>43.557590134441852569580078125</LatitudeDegrees>
              <LongitudeDegrees>-1.4976689033210277557373046875</LongitudeDegrees>
            </Position>
            <AltitudeMeters>10.80000019073486328125</AltitudeMeters>
            <DistanceMeters>NAN</DistanceMeters>
          </Trackpoint>
          <Trackpoint>
            <Time>2022-07-07T12:16:03.000Z</Time>
            <Position>
              <LatitudeDegrees>43.5575993545353412628173828125</LatitudeDegrees>
              <LongitudeDegrees>-1.4976293407380580902099609375</LongitudeDegrees>
            </Position>
            <AltitudeMeters>10.6000003814697265625</AltitudeMeters>
            <DistanceMeters>NAN</DistanceMeters>
          </Trackpoint>
          <Trackpoint>
            <Time>2022-07-07T12:16:04.000Z</Time>
            <Position>
              <LatitudeDegrees>43.55760664679110050201416015625</LatitudeDegrees>
              <LongitudeDegrees>-1.49761165492236614227294921875</LongitudeDegrees>
            </Position>
            <AltitudeMeters>10.3999996185302734375</AltitudeMeters>
            <DistanceMeters>NAN</DistanceMeters>
          </Trackpoint>
          <Trackpoint>
            <Time>2022-07-07T12:16:05.000Z</Time>
            <Position>
              <LatitudeDegrees>43.55761955492198467254638671875</LatitudeDegrees>
              <LongitudeDegrees>-1.49760042317211627960205078125</LongitudeDegrees>
            </Position>
            <AltitudeMeters>10.3999996185302734375</AltitudeMeters>
            <DistanceMeters>NAN</DistanceMeters>
          </Trackpoint>
          <Trackpoint>
            <Time>2022-07-07T12:16:10.000Z</Time>
            <Position>
              <LatitudeDegrees>43.5577180422842502593994140625</LatitudeDegrees>
              <LongitudeDegrees>-1.49758684448897838592529296875</LongitudeDegrees>
            </Position>
            <AltitudeMeters>10.3999996185302734375</AltitudeMeters>
            <DistanceMeters>NAN</DistanceMeters>
          </Trackpoint>
          <Trackpoint>
            <Time>2022-07-07T12:16:15.000Z</Time>
            <Position>
              <LatitudeDegrees>43.55778886936604976654052734375</LatitudeDegrees>
              <LongitudeDegrees>-1.4977195300161838531494140625</LongitudeDegrees>
            </Position>
            <AltitudeMeters>11</AltitudeMeters>
            <DistanceMeters>NAN</DistanceMeters>
          </Trackpoint>
          <Trackpoint>
            <Time>2022-07-07T12:16:24.000Z</Time>
            <Position>
              <LatitudeDegrees>43.5579021088778972625732421875</LatitudeDegrees>
              <LongitudeDegrees>-1.497947685420513153076171875</LongitudeDegrees>
            </Position>
            <AltitudeMeters>11.19999980926513671875</AltitudeMeters>
            <DistanceMeters>NAN</DistanceMeters>
          </Trackpoint>
          <Trackpoint>
            <Time>2022-07-07T12:16:32.000Z</Time>
            <Position>
              <LatitudeDegrees>43.557963632047176361083984375</LatitudeDegrees>
              <LongitudeDegrees>-1.498131416738033294677734375</LongitudeDegrees>
            </Position>
            <AltitudeMeters>11.80000019073486328125</AltitudeMeters>
            <DistanceMeters>NAN</DistanceMeters>
          </Trackpoint>
          <Trackpoint>
            <Time>2022-07-07T12:16:39.000Z</Time>
            <Position>
              <LatitudeDegrees>43.55801551602780818939208984375</LatitudeDegrees>
              <LongitudeDegrees>-1.49824096821248531341552734375</LongitudeDegrees>
            </Position>
            <AltitudeMeters>13</AltitudeMeters>
            <DistanceMeters>NAN</DistanceMeters>
          </Trackpoint>
          <Trackpoint>
            <Time>2022-07-07T12:16:45.000Z</Time>
            <Position>
              <LatitudeDegrees>43.55809547938406467437744140625</LatitudeDegrees>
              <LongitudeDegrees>-1.4982791058719158172607421875</LongitudeDegrees>
            </Position>
            <AltitudeMeters>13.19999980926513671875</AltitudeMeters>
            <DistanceMeters>NAN</DistanceMeters>
          </Trackpoint>
          <Trackpoint>
            <Time>2022-07-07T12:16:47.000Z</Time>
            <Position>
              <LatitudeDegrees>43.5581207089126110076904296875</LatitudeDegrees>
              <LongitudeDegrees>-1.49826519191265106201171875</LongitudeDegrees>
            </Position>
            <AltitudeMeters>13.19999980926513671875</AltitudeMeters>
            <DistanceMeters>NAN</DistanceMeters>
          </Trackpoint>
          <Trackpoint>
            <Time>2022-07-07T12:16:49.000Z</Time>
            <Position>
              <LatitudeDegrees>43.55812883935868740081787109375</LatitudeDegrees>
              <LongitudeDegrees>-1.49822361767292022705078125</LongitudeDegrees>
            </Position>
            <AltitudeMeters>13.19999980926513671875</AltitudeMeters>
            <DistanceMeters>NAN</DistanceMeters>
          </Trackpoint>
          <Trackpoint>
            <Time>2022-07-07T12:16:50.000Z</Time>
            <Position>
              <LatitudeDegrees>43.5581274144351482391357421875</LatitudeDegrees>
              <LongitudeDegrees>-1.49819537065923213958740234375</LongitudeDegrees>
            </Position>
            <AltitudeMeters>13.19999980926513671875</AltitudeMeters>
            <DistanceMeters>NAN</DistanceMeters>
          </Trackpoint>
          <Trackpoint>
            <Time>2022-07-07T12:16:53.000Z</Time>
            <Position>
              <LatitudeDegrees>43.55812800116837024688720703125</LatitudeDegrees>
              <LongitudeDegrees>-1.49809730239212512969970703125</LongitudeDegrees>
            </Position>
            <AltitudeMeters>12.80000019073486328125</AltitudeMeters>
            <DistanceMeters>NAN</DistanceMeters>
          </Trackpoint>
          <Trackpoint>
            <Time>2022-07-07T12:16:55.000Z</Time>
            <Position>
              <LatitudeDegrees>43.55814635753631591796875</LatitudeDegrees>
              <LongitudeDegrees>-1.49804382584989070892333984375</LongitudeDegrees>
            </Position>
            <AltitudeMeters>12.6000003814697265625</AltitudeMeters>
            <DistanceMeters>NAN</DistanceMeters>
          </Trackpoint>
          <Trackpoint>
            <Time>2022-07-07T12:16:57.000Z</Time>
            <Position>
              <LatitudeDegrees>43.55818055570125579833984375</LatitudeDegrees>
              <LongitudeDegrees>-1.49803443811833858489990234375</LongitudeDegrees>
            </Position>
            <AltitudeMeters>12.6000003814697265625</AltitudeMeters>
            <DistanceMeters>NAN</DistanceMeters>
          </Trackpoint>
          <Trackpoint>
            <Time>2022-07-07T12:16:59.000Z</Time>
            <Position>
              <LatitudeDegrees>43.55821433477103710174560546875</LatitudeDegrees>
              <LongitudeDegrees>-1.49805723689496517181396484375</LongitudeDegrees>
            </Position>
            <AltitudeMeters>12.6000003814697265625</AltitudeMeters>
            <DistanceMeters>NAN</DistanceMeters>
          </Trackpoint>
          <Trackpoint>
            <Time>2022-07-07T12:17:05.000Z</Time>
            <Position>
              <LatitudeDegrees>43.55830452404916286468505859375</LatitudeDegrees>
              <LongitudeDegrees>-1.49817592464387416839599609375</LongitudeDegrees>
            </Position>
            <AltitudeMeters>13.19999980926513671875</AltitudeMeters>
            <DistanceMeters>NAN</DistanceMeters>
          </Trackpoint>
          <Trackpoint>
            <Time>2022-07-07T12:17:07.000Z</Time>
            <Position>
              <LatitudeDegrees>43.5583413206040859222412109375</LatitudeDegrees>
              <LongitudeDegrees>-1.498215906322002410888671875</LongitudeDegrees>
            </Position>
            <AltitudeMeters>13.19999980926513671875</AltitudeMeters>
            <DistanceMeters>NAN</DistanceMeters>
          </Trackpoint>
          <Trackpoint>
            <Time>2022-07-07T12:17:16.000Z</Time>
            <Position>
              <LatitudeDegrees>43.5585092939436435699462890625</LatitudeDegrees>
              <LongitudeDegrees>-1.4984219335019588470458984375</LongitudeDegrees>
            </Position>
            <AltitudeMeters>13.19999980926513671875</AltitudeMeters>
            <DistanceMeters>NAN</DistanceMeters>
          </Trackpoint>
          <Trackpoint>
            <Time>2022-07-07T12:17:23.000Z</Time>
            <Position>
              <LatitudeDegrees>43.5586521215736865997314453125</LatitudeDegrees>
              <LongitudeDegrees>-1.4985810220241546630859375</LongitudeDegrees>
            </Position>
            <AltitudeMeters>13.3999996185302734375</AltitudeMeters>
            <DistanceMeters>NAN</DistanceMeters>
          </Trackpoint>
          <Trackpoint>
            <Time>2022-07-07T12:17:26.000Z</Time>
            <Position>
              <LatitudeDegrees>43.55871674604713916778564453125</LatitudeDegrees>
              <LongitudeDegrees>-1.49865235202014446258544921875</LongitudeDegrees>
            </Position>
            <AltitudeMeters>13.3999996185302734375</AltitudeMeters>
            <DistanceMeters>NAN</DistanceMeters>
          </Trackpoint>
          <Trackpoint>
            <Time>2022-07-07T12:17:27.000Z</Time>
            <Position>
              <LatitudeDegrees>43.55873820371925830841064453125</LatitudeDegrees>
              <LongitudeDegrees>-1.4986780844628810882568359375</LongitudeDegrees>
            </Position>
            <AltitudeMeters>13.6000003814697265625</AltitudeMeters>
            <DistanceMeters>NAN</DistanceMeters>
          </Trackpoint>
          <Trackpoint>
            <Time>2022-07-07T12:17:30.000Z</Time>
            <Position>
              <LatitudeDegrees>43.55880542658269405364990234375</LatitudeDegrees>
              <LongitudeDegrees>-1.4987572096288204193115234375</LongitudeDegrees>
            </Position>
            <AltitudeMeters>14</AltitudeMeters>
            <DistanceMeters>NAN</DistanceMeters>
          </Trackpoint>
          <Trackpoint>
            <Time>2022-07-07T12:17:37.000Z</Time>
            <Position>
              <LatitudeDegrees>43.55894565582275390625</LatitudeDegrees>
              <LongitudeDegrees>-1.49891537614166736602783203125</LongitudeDegrees>
            </Position>
            <AltitudeMeters>14.3999996185302734375</AltitudeMeters>
            <DistanceMeters>NAN</DistanceMeters>
          </Trackpoint>
          <Trackpoint>
            <Time>2022-07-07T12:17:44.000Z</Time>
            <Position>
              <LatitudeDegrees>43.55909326113760471343994140625</LatitudeDegrees>
              <LongitudeDegrees>-1.49907245300710201263427734375</LongitudeDegrees>
            </Position>
            <AltitudeMeters>14.6000003814697265625</AltitudeMeters>
            <DistanceMeters>NAN</DistanceMeters>
          </Trackpoint>
          <Trackpoint>
            <Time>2022-07-07T12:17:48.000Z</Time>
            <Position>
              <LatitudeDegrees>43.55917087756097316741943359375</LatitudeDegrees>
              <LongitudeDegrees>-1.49915794841945171356201171875</LongitudeDegrees>
            </Position>
            <AltitudeMeters>14.80000019073486328125</AltitudeMeters>
            <DistanceMeters>NAN</DistanceMeters>
          </Trackpoint>
          <Trackpoint>
            <Time>2022-07-07T12:17:50.000Z</Time>
            <Position>
              <LatitudeDegrees>43.559210188686847686767578125</LatitudeDegrees>
              <LongitudeDegrees>-1.49919591844081878662109375</LongitudeDegrees>
            </Position>
            <AltitudeMeters>15</AltitudeMeters>
            <DistanceMeters>NAN</DistanceMeters>
          </Trackpoint>
          <Trackpoint>
            <Time>2022-07-07T12:17:58.000Z</Time>
            <Position>
              <LatitudeDegrees>43.5593619011342525482177734375</LatitudeDegrees>
              <LongitudeDegrees>-1.4993127621710300445556640625</LongitudeDegrees>
            </Position>
            <AltitudeMeters>15.3999996185302734375</AltitudeMeters>
            <DistanceMeters>NAN</DistanceMeters>
          </Trackpoint>
          <Trackpoint>
            <Time>2022-07-07T12:18:05.000Z</Time>
            <Position>
              <LatitudeDegrees>43.559461645781993865966796875</LatitudeDegrees>
              <LongitudeDegrees>-1.49938501417636871337890625</LongitudeDegrees>
            </Position>
            <AltitudeMeters>16</AltitudeMeters>
            <DistanceMeters>NAN</DistanceMeters>
          </Trackpoint>
          <Trackpoint>
            <Time>2022-07-07T12:18:06.000Z</Time>
            <Position>
              <LatitudeDegrees>43.55946189723908901214599609375</LatitudeDegrees>
              <LongitudeDegrees>-1.49940219707787036895751953125</LongitudeDegrees>
            </Position>
            <AltitudeMeters>16</AltitudeMeters>
            <DistanceMeters>NAN</DistanceMeters>
          </Trackpoint>
          <Trackpoint>
            <Time>2022-07-07T12:18:08.000Z</Time>
            <Position>
              <LatitudeDegrees>43.55945770628750324249267578125</LatitudeDegrees>
              <LongitudeDegrees>-1.4994384907186031341552734375</LongitudeDegrees>
            </Position>
            <AltitudeMeters>16.6000003814697265625</AltitudeMeters>
            <DistanceMeters>NAN</DistanceMeters>
          </Trackpoint>
          <Trackpoint>
            <Time>2022-07-07T12:18:10.000Z</Time>
            <Position>
              <LatitudeDegrees>43.5594356618821620941162109375</LatitudeDegrees>
              <LongitudeDegrees>-1.49946539662778377532958984375</LongitudeDegrees>
            </Position>
            <AltitudeMeters>17</AltitudeMeters>
            <DistanceMeters>NAN</DistanceMeters>
          </Trackpoint>
          <Trackpoint>
            <Time>2022-07-07T12:18:12.000Z</Time>
            <Position>
              <LatitudeDegrees>43.55942401103675365447998046875</LatitudeDegrees>
              <LongitudeDegrees>-1.49949406273663043975830078125</LongitudeDegrees>
            </Position>
            <AltitudeMeters>17.200000762939453125</AltitudeMeters>
            <DistanceMeters>NAN</DistanceMeters>
          </Trackpoint>
          <Trackpoint>
            <Time>2022-07-07T12:18:14.000Z</Time>
            <Position>
              <LatitudeDegrees>43.55942401103675365447998046875</LatitudeDegrees>
              <LongitudeDegrees>-1.49949406273663043975830078125</LongitudeDegrees>
            </Position>
            <AltitudeMeters>17.6000003814697265625</AltitudeMeters>
            <DistanceMeters>NAN</DistanceMeters>
          </Trackpoint>
          <Trackpoint>
            <Time>2022-07-07T12:22:59.000Z</Time>
            <Position>
              <LatitudeDegrees>43.55948335491120815277099609375</LatitudeDegrees>
              <LongitudeDegrees>-1.49939884431660175323486328125</LongitudeDegrees>
            </Position>
            <AltitudeMeters>24.6000003814697265625</AltitudeMeters>
            <DistanceMeters>NAN</DistanceMeters>
          </Trackpoint>
          <Trackpoint>
            <Time>2022-07-07T12:23:00.000Z</Time>
            <Position>
              <LatitudeDegrees>43.55947530828416347503662109375</LatitudeDegrees>
              <LongitudeDegrees>-1.49940236471593379974365234375</LongitudeDegrees>
            </Position>
            <AltitudeMeters>24.6000003814697265625</AltitudeMeters>
            <DistanceMeters>NAN</DistanceMeters>
          </Trackpoint>
          <Trackpoint>
            <Time>2022-07-07T12:23:07.000Z</Time>
            <Position>
              <LatitudeDegrees>43.5593813471496105194091796875</LatitudeDegrees>
              <LongitudeDegrees>-1.49945215322077274322509765625</LongitudeDegrees>
            </Position>
            <AltitudeMeters>24.3999996185302734375</AltitudeMeters>
            <DistanceMeters>NAN</DistanceMeters>
          </Trackpoint>
          <Trackpoint>
            <Time>2022-07-07T12:23:10.000Z</Time>
            <Position>
              <LatitudeDegrees>43.5593424551188945770263671875</LatitudeDegrees>
              <LongitudeDegrees>-1.49945969693362712860107421875</LongitudeDegrees>
            </Position>
            <AltitudeMeters>24.200000762939453125</AltitudeMeters>
            <DistanceMeters>NAN</DistanceMeters>
          </Trackpoint>
          <Trackpoint>
            <Time>2022-07-07T12:23:11.000Z</Time>
            <Position>
              <LatitudeDegrees>43.5593340732157230377197265625</LatitudeDegrees>
              <LongitudeDegrees>-1.4994619600474834442138671875</LongitudeDegrees>
            </Position>
            <AltitudeMeters>24.200000762939453125</AltitudeMeters>
            <DistanceMeters>NAN</DistanceMeters>
          </Trackpoint>
          <Trackpoint>
            <Time>2022-07-07T12:23:12.000Z</Time>
            <Position>
              <LatitudeDegrees>43.55932996608316898345947265625</LatitudeDegrees>
              <LongitudeDegrees>-1.4994656480848789215087890625</LongitudeDegrees>
            </Position>
            <AltitudeMeters>24</AltitudeMeters>
            <DistanceMeters>NAN</DistanceMeters>
          </Trackpoint>
          <Trackpoint>
            <Time>2022-07-07T12:23:13.000Z</Time>
            <Position>
              <LatitudeDegrees>43.55932996608316898345947265625</LatitudeDegrees>
              <LongitudeDegrees>-1.4994656480848789215087890625</LongitudeDegrees>
            </Position>
            <AltitudeMeters>24</AltitudeMeters>
            <DistanceMeters>NAN</DistanceMeters>
          </Trackpoint>
          <Trackpoint>
            <Time>2022-07-07T12:23:14.000Z</Time>
            <Position>
              <LatitudeDegrees>43.55932996608316898345947265625</LatitudeDegrees>
              <LongitudeDegrees>-1.4994656480848789215087890625</LongitudeDegrees>
            </Position>
            <AltitudeMeters>24</AltitudeMeters>
            <DistanceMeters>NAN</DistanceMeters>
          </Trackpoint>
          <Trackpoint>
            <Time>2022-07-07T12:23:27.000Z</Time>
            <Position>
              <LatitudeDegrees>43.55930649675428867340087890625</LatitudeDegrees>
              <LongitudeDegrees>-1.4994562603533267974853515625</LongitudeDegrees>
            </Position>
            <AltitudeMeters>24.200000762939453125</AltitudeMeters>
            <DistanceMeters>NAN</DistanceMeters>
          </Trackpoint>
          <Trackpoint>
            <Time>2022-07-07T12:23:28.000Z</Time>
            <Position>
              <LatitudeDegrees>43.5592921636998653411865234375</LatitudeDegrees>
              <LongitudeDegrees>-1.49946472607553005218505859375</LongitudeDegrees>
            </Position>
            <AltitudeMeters>24.3999996185302734375</AltitudeMeters>
            <DistanceMeters>NAN</DistanceMeters>
          </Trackpoint>
          <Trackpoint>
            <Time>2022-07-07T12:23:29.000Z</Time>
            <Position>
              <LatitudeDegrees>43.55928118340671062469482421875</LatitudeDegrees>
              <LongitudeDegrees>-1.49948165751993656158447265625</LongitudeDegrees>
            </Position>
            <AltitudeMeters>24.6000003814697265625</AltitudeMeters>
            <DistanceMeters>NAN</DistanceMeters>
          </Trackpoint>
          <Trackpoint>
            <Time>2022-07-07T12:23:30.000Z</Time>
            <Position>
              <LatitudeDegrees>43.5592727176845073699951171875</LatitudeDegrees>
              <LongitudeDegrees>-1.499501354992389678955078125</LongitudeDegrees>
            </Position>
            <AltitudeMeters>25</AltitudeMeters>
            <DistanceMeters>NAN</DistanceMeters>
          </Trackpoint>
          <Trackpoint>
            <Time>2022-07-07T12:23:33.000Z</Time>
            <Position>
              <LatitudeDegrees>43.55926626361906528472900390625</LatitudeDegrees>
              <LongitudeDegrees>-1.49951887317001819610595703125</LongitudeDegrees>
            </Position>
            <AltitudeMeters>25.6000003814697265625</AltitudeMeters>
            <DistanceMeters>NAN</DistanceMeters>
          </Trackpoint>
          <Trackpoint>
            <Time>2022-07-07T12:23:34.000Z</Time>
            <Position>
              <LatitudeDegrees>43.5592640005052089691162109375</LatitudeDegrees>
              <LongitudeDegrees>-1.49951719678938388824462890625</LongitudeDegrees>
            </Position>
            <AltitudeMeters>25.6000003814697265625</AltitudeMeters>
            <DistanceMeters>NAN</DistanceMeters>
          </Trackpoint>
          <Trackpoint>
            <Time>2022-07-07T12:24:34.000Z</Time>
            <Position>
              <LatitudeDegrees>43.5594078339636325836181640625</LatitudeDegrees>
              <LongitudeDegrees>-1.49946539662778377532958984375</LongitudeDegrees>
            </Position>
            <AltitudeMeters>24.6000003814697265625</AltitudeMeters>
            <DistanceMeters>NAN</DistanceMeters>
          </Trackpoint>
          <Trackpoint>
            <Time>2022-07-07T12:24:36.000Z</Time>
            <Position>
              <LatitudeDegrees>43.55943993665277957916259765625</LatitudeDegrees>
              <LongitudeDegrees>-1.49942616932094097137451171875</LongitudeDegrees>
            </Position>
            <AltitudeMeters>25.200000762939453125</AltitudeMeters>
            <DistanceMeters>NAN</DistanceMeters>
          </Trackpoint>
          <Trackpoint>
            <Time>2022-07-07T12:24:38.000Z</Time>
            <Position>
              <LatitudeDegrees>43.5594373382627964019775390625</LatitudeDegrees>
              <LongitudeDegrees>-1.49937218986451625823974609375</LongitudeDegrees>
            </Position>
            <AltitudeMeters>25.6000003814697265625</AltitudeMeters>
            <DistanceMeters>NAN</DistanceMeters>
          </Trackpoint>
          <Trackpoint>
            <Time>2022-07-07T12:24:39.000Z</Time>
            <Position>
              <LatitudeDegrees>43.5594296269118785858154296875</LatitudeDegrees>
              <LongitudeDegrees>-1.49935978464782238006591796875</LongitudeDegrees>
            </Position>
            <AltitudeMeters>25.799999237060546875</AltitudeMeters>
            <DistanceMeters>NAN</DistanceMeters>
          </Trackpoint>
          <Trackpoint>
            <Time>2022-07-07T12:24:42.000Z</Time>
            <Position>
              <LatitudeDegrees>43.5593619011342525482177734375</LatitudeDegrees>
              <LongitudeDegrees>-1.4993308670818805694580078125</LongitudeDegrees>
            </Position>
            <AltitudeMeters>25.799999237060546875</AltitudeMeters>
            <DistanceMeters>NAN</DistanceMeters>
          </Trackpoint>
          <Trackpoint>
            <Time>2022-07-07T12:24:45.000Z</Time>
            <Position>
              <LatitudeDegrees>43.5592769086360931396484375</LatitudeDegrees>
              <LongitudeDegrees>-1.49927764199674129486083984375</LongitudeDegrees>
            </Position>
            <AltitudeMeters>25.799999237060546875</AltitudeMeters>
            <DistanceMeters>NAN</DistanceMeters>
          </Trackpoint>
          <Trackpoint>
            <Time>2022-07-07T12:24:47.000Z</Time>
            <Position>
              <LatitudeDegrees>43.55921194888651371002197265625</LatitudeDegrees>
              <LongitudeDegrees>-1.4992245845496654510498046875</LongitudeDegrees>
            </Position>
            <AltitudeMeters>25.3999996185302734375</AltitudeMeters>
            <DistanceMeters>NAN</DistanceMeters>
          </Trackpoint>
          <Trackpoint>
            <Time>2022-07-07T12:24:54.000Z</Time>
            <Position>
              <LatitudeDegrees>43.5589632578194141387939453125</LatitudeDegrees>
              <LongitudeDegrees>-1.49895275942981243133544921875</LongitudeDegrees>
            </Position>
            <AltitudeMeters>25</AltitudeMeters>
            <DistanceMeters>NAN</DistanceMeters>
          </Trackpoint>
          <Trackpoint>
            <Time>2022-07-07T12:24:58.000Z</Time>
            <Position>
              <LatitudeDegrees>43.5588140599429607391357421875</LatitudeDegrees>
              <LongitudeDegrees>-1.4987702853977680206298828125</LongitudeDegrees>
            </Position>
            <AltitudeMeters>24.6000003814697265625</AltitudeMeters>
            <DistanceMeters>NAN</DistanceMeters>
          </Trackpoint>
          <Trackpoint>
            <Time>2022-07-07T12:25:00.000Z</Time>
            <Position>
              <LatitudeDegrees>43.55874138884246349334716796875</LatitudeDegrees>
              <LongitudeDegrees>-1.49868336506187915802001953125</LongitudeDegrees>
            </Position>
            <AltitudeMeters>24.6000003814697265625</AltitudeMeters>
            <DistanceMeters>NAN</DistanceMeters>
          </Trackpoint>
          <Trackpoint>
            <Time>2022-07-07T12:25:02.000Z</Time>
            <Position>
              <LatitudeDegrees>43.55867676436901092529296875</LatitudeDegrees>
              <LongitudeDegrees>-1.49860876612365245819091796875</LongitudeDegrees>
            </Position>
            <AltitudeMeters>24.3999996185302734375</AltitudeMeters>
            <DistanceMeters>NAN</DistanceMeters>
          </Trackpoint>
          <Trackpoint>
            <Time>2022-07-07T12:25:09.000Z</Time>
            <Position>
              <LatitudeDegrees>43.55846947990357875823974609375</LatitudeDegrees>
              <LongitudeDegrees>-1.49839485995471477508544921875</LongitudeDegrees>
            </Position>
            <AltitudeMeters>23.799999237060546875</AltitudeMeters>
            <DistanceMeters>NAN</DistanceMeters>
          </Trackpoint>
          <Trackpoint>
            <Time>2022-07-07T12:25:14.000Z</Time>
            <Position>
              <LatitudeDegrees>43.5583300888538360595703125</LatitudeDegrees>
              <LongitudeDegrees>-1.4984055049717426300048828125</LongitudeDegrees>
            </Position>
            <AltitudeMeters>23.799999237060546875</AltitudeMeters>
            <DistanceMeters>NAN</DistanceMeters>
          </Trackpoint>
          <Trackpoint>
            <Time>2022-07-07T12:25:15.000Z</Time>
            <Position>
              <LatitudeDegrees>43.55830905027687549591064453125</LatitudeDegrees>
              <LongitudeDegrees>-1.4984051696956157684326171875</LongitudeDegrees>
            </Position>
            <AltitudeMeters>23.6000003814697265625</AltitudeMeters>
            <DistanceMeters>NAN</DistanceMeters>
          </Trackpoint>
          <Trackpoint>
            <Time>2022-07-07T12:25:18.000Z</Time>
            <Position>
              <LatitudeDegrees>43.55826546438038349151611328125</LatitudeDegrees>
              <LongitudeDegrees>-1.49839569814503192901611328125</LongitudeDegrees>
            </Position>
            <AltitudeMeters>23.3999996185302734375</AltitudeMeters>
            <DistanceMeters>NAN</DistanceMeters>
          </Trackpoint>
          <Trackpoint>
            <Time>2022-07-07T12:25:19.000Z</Time>
            <Position>
              <LatitudeDegrees>43.5582551546394824981689453125</LatitudeDegrees>
              <LongitudeDegrees>-1.4983924292027950286865234375</LongitudeDegrees>
            </Position>
            <AltitudeMeters>23.200000762939453125</AltitudeMeters>
            <DistanceMeters>NAN</DistanceMeters>
          </Trackpoint>
          <Trackpoint>
            <Time>2022-07-07T12:25:22.000Z</Time>
            <Position>
              <LatitudeDegrees>43.558229506015777587890625</LatitudeDegrees>
              <LongitudeDegrees>-1.49838463403284549713134765625</LongitudeDegrees>
            </Position>
            <AltitudeMeters>23.3999996185302734375</AltitudeMeters>
            <DistanceMeters>NAN</DistanceMeters>
          </Trackpoint>
          <Trackpoint>
            <Time>2022-07-07T12:25:25.000Z</Time>
            <Position>
              <LatitudeDegrees>43.55819505639374256134033203125</LatitudeDegrees>
              <LongitudeDegrees>-1.49841430597007274627685546875</LongitudeDegrees>
            </Position>
            <AltitudeMeters>23.3999996185302734375</AltitudeMeters>
            <DistanceMeters>NAN</DistanceMeters>
          </Trackpoint>
          <Trackpoint>
            <Time>2022-07-07T12:25:27.000Z</Time>
            <Position>
              <LatitudeDegrees>43.55817896313965320587158203125</LatitudeDegrees>
              <LongitudeDegrees>-1.49843425489962100982666015625</LongitudeDegrees>
            </Position>
            <AltitudeMeters>23.200000762939453125</AltitudeMeters>
            <DistanceMeters>NAN</DistanceMeters>
          </Trackpoint>
          <Trackpoint>
            <Time>2022-07-07T12:25:30.000Z</Time>
            <Position>
              <LatitudeDegrees>43.55813437141478061676025390625</LatitudeDegrees>
              <LongitudeDegrees>-1.498450599610805511474609375</LongitudeDegrees>
            </Position>
            <AltitudeMeters>22.799999237060546875</AltitudeMeters>
            <DistanceMeters>NAN</DistanceMeters>
          </Trackpoint>
          <Trackpoint>
            <Time>2022-07-07T12:25:32.000Z</Time>
            <Position>
              <LatitudeDegrees>43.5580885224044322967529296875</LatitudeDegrees>
              <LongitudeDegrees>-1.49846510030329227447509765625</LongitudeDegrees>
            </Position>
            <AltitudeMeters>22.799999237060546875</AltitudeMeters>
            <DistanceMeters>NAN</DistanceMeters>
          </Trackpoint>
          <Trackpoint>
            <Time>2022-07-07T12:25:34.000Z</Time>
            <Position>
              <LatitudeDegrees>43.558049462735652923583984375</LatitudeDegrees>
              <LongitudeDegrees>-1.49848471395671367645263671875</LongitudeDegrees>
            </Position>
            <AltitudeMeters>22.3999996185302734375</AltitudeMeters>
            <DistanceMeters>NAN</DistanceMeters>
          </Trackpoint>
          <Trackpoint>
            <Time>2022-07-07T12:25:35.000Z</Time>
            <Position>
              <LatitudeDegrees>43.5580352135002613067626953125</LatitudeDegrees>
              <LongitudeDegrees>-1.4984879828989505767822265625</LongitudeDegrees>
            </Position>
            <AltitudeMeters>22.200000762939453125</AltitudeMeters>
            <DistanceMeters>NAN</DistanceMeters>
          </Trackpoint>
          <Trackpoint>
            <Time>2022-07-07T12:25:39.000Z</Time>
            <Position>
              <LatitudeDegrees>43.55801031924784183502197265625</LatitudeDegrees>
              <LongitudeDegrees>-1.4984913356602191925048828125</LongitudeDegrees>
            </Position>
            <AltitudeMeters>21.3999996185302734375</AltitudeMeters>
            <DistanceMeters>NAN</DistanceMeters>
          </Trackpoint>
          <Trackpoint>
            <Time>2022-07-07T12:25:40.000Z</Time>
            <Position>
              <LatitudeDegrees>43.55801031924784183502197265625</LatitudeDegrees>
              <LongitudeDegrees>-1.4984913356602191925048828125</LongitudeDegrees>
            </Position>
            <AltitudeMeters>21.3999996185302734375</AltitudeMeters>
            <DistanceMeters>NAN</DistanceMeters>
          </Trackpoint>
          <Trackpoint>
            <Time>2022-07-07T12:25:55.000Z</Time>
            <Position>
              <LatitudeDegrees>43.55795818381011486053466796875</LatitudeDegrees>
              <LongitudeDegrees>-1.498535759747028350830078125</LongitudeDegrees>
            </Position>
            <AltitudeMeters>21.200000762939453125</AltitudeMeters>
            <DistanceMeters>NAN</DistanceMeters>
          </Trackpoint>
          <Trackpoint>
            <Time>2022-07-07T12:25:57.000Z</Time>
            <Position>
              <LatitudeDegrees>43.5579272545874118804931640625</LatitudeDegrees>
              <LongitudeDegrees>-1.49856618605554103851318359375</LongitudeDegrees>
            </Position>
            <AltitudeMeters>21.200000762939453125</AltitudeMeters>
            <DistanceMeters>NAN</DistanceMeters>
          </Trackpoint>
          <Trackpoint>
            <Time>2022-07-07T12:26:01.000Z</Time>
            <Position>
              <LatitudeDegrees>43.5578353889286518096923828125</LatitudeDegrees>
              <LongitudeDegrees>-1.4985248632729053497314453125</LongitudeDegrees>
            </Position>
            <AltitudeMeters>21</AltitudeMeters>
            <DistanceMeters>NAN</DistanceMeters>
          </Trackpoint>
          <Trackpoint>
            <Time>2022-07-07T12:26:02.000Z</Time>
            <Position>
              <LatitudeDegrees>43.55781837366521358489990234375</LatitudeDegrees>
              <LongitudeDegrees>-1.49849594570696353912353515625</LongitudeDegrees>
            </Position>
            <AltitudeMeters>21</AltitudeMeters>
            <DistanceMeters>NAN</DistanceMeters>
          </Trackpoint>
          <Trackpoint>
            <Time>2022-07-07T12:26:04.000Z</Time>
            <Position>
              <LatitudeDegrees>43.55778895318508148193359375</LatitudeDegrees>
              <LongitudeDegrees>-1.49843241088092327117919921875</LongitudeDegrees>
            </Position>
            <AltitudeMeters>20.6000003814697265625</AltitudeMeters>
            <DistanceMeters>NAN</DistanceMeters>
          </Trackpoint>
          <Trackpoint>
            <Time>2022-07-07T12:26:06.000Z</Time>
            <Position>
              <LatitudeDegrees>43.5577587783336639404296875</LatitudeDegrees>
              <LongitudeDegrees>-1.49837273173034191131591796875</LongitudeDegrees>
            </Position>
            <AltitudeMeters>20.3999996185302734375</AltitudeMeters>
            <DistanceMeters>NAN</DistanceMeters>
          </Trackpoint>
          <Trackpoint>
            <Time>2022-07-07T12:26:08.000Z</Time>
            <Position>
              <LatitudeDegrees>43.55772935785353183746337890625</LatitudeDegrees>
              <LongitudeDegrees>-1.49831338785588741302490234375</LongitudeDegrees>
            </Position>
            <AltitudeMeters>20.200000762939453125</AltitudeMeters>
            <DistanceMeters>NAN</DistanceMeters>
          </Trackpoint>
          <Trackpoint>
            <Time>2022-07-07T12:26:11.000Z</Time>
            <Position>
              <LatitudeDegrees>43.55768526904284954071044921875</LatitudeDegrees>
              <LongitudeDegrees>-1.498217247426509857177734375</LongitudeDegrees>
            </Position>
            <AltitudeMeters>20.200000762939453125</AltitudeMeters>
            <DistanceMeters>NAN</DistanceMeters>
          </Trackpoint>
          <Trackpoint>
            <Time>2022-07-07T12:26:16.000Z</Time>
            <Position>
              <LatitudeDegrees>43.5576365701854228973388671875</LatitudeDegrees>
              <LongitudeDegrees>-1.49803259409964084625244140625</LongitudeDegrees>
            </Position>
            <AltitudeMeters>20</AltitudeMeters>
            <DistanceMeters>NAN</DistanceMeters>
          </Trackpoint>
          <Trackpoint>
            <Time>2022-07-07T12:26:17.000Z</Time>
            <Position>
              <LatitudeDegrees>43.5576281882822513580322265625</LatitudeDegrees>
              <LongitudeDegrees>-1.4979963004589080810546875</LongitudeDegrees>
            </Position>
            <AltitudeMeters>20</AltitudeMeters>
            <DistanceMeters>NAN</DistanceMeters>
          </Trackpoint>
          <Trackpoint>
            <Time>2022-07-07T12:26:20.000Z</Time>
            <Position>
              <LatitudeDegrees>43.55759323574602603912353515625</LatitudeDegrees>
              <LongitudeDegrees>-1.4978881739079952239990234375</LongitudeDegrees>
            </Position>
            <AltitudeMeters>19.6000003814697265625</AltitudeMeters>
            <DistanceMeters>NAN</DistanceMeters>
          </Trackpoint>
          <Trackpoint>
            <Time>2022-07-07T12:26:23.000Z</Time>
            <Position>
              <LatitudeDegrees>43.55753556825220584869384765625</LatitudeDegrees>
              <LongitudeDegrees>-1.4977922849357128143310546875</LongitudeDegrees>
            </Position>
            <AltitudeMeters>19.6000003814697265625</AltitudeMeters>
            <DistanceMeters>NAN</DistanceMeters>
          </Trackpoint>
          <Trackpoint>
            <Time>2022-07-07T12:26:24.000Z</Time>
            <Position>
              <LatitudeDegrees>43.5575208999216556549072265625</LatitudeDegrees>
              <LongitudeDegrees>-1.49775817058980464935302734375</LongitudeDegrees>
            </Position>
            <AltitudeMeters>19.6000003814697265625</AltitudeMeters>
            <DistanceMeters>NAN</DistanceMeters>
          </Trackpoint>
          <Trackpoint>
            <Time>2022-07-07T12:26:25.000Z</Time>
            <Position>
              <LatitudeDegrees>43.55751126073300838470458984375</LatitudeDegrees>
              <LongitudeDegrees>-1.49771533906459808349609375</LongitudeDegrees>
            </Position>
            <AltitudeMeters>19.6000003814697265625</AltitudeMeters>
            <DistanceMeters>NAN</DistanceMeters>
          </Trackpoint>
          <Trackpoint>
            <Time>2022-07-07T12:26:30.000Z</Time>
            <Position>
              <LatitudeDegrees>43.55749097652733325958251953125</LatitudeDegrees>
              <LongitudeDegrees>-1.49745189584791660308837890625</LongitudeDegrees>
            </Position>
            <AltitudeMeters>19.3999996185302734375</AltitudeMeters>
            <DistanceMeters>NAN</DistanceMeters>
          </Trackpoint>
          <Trackpoint>
            <Time>2022-07-07T12:26:31.000Z</Time>
            <Position>
              <LatitudeDegrees>43.55748795904219150543212890625</LatitudeDegrees>
              <LongitudeDegrees>-1.4973973296582698822021484375</LongitudeDegrees>
            </Position>
            <AltitudeMeters>19.200000762939453125</AltitudeMeters>
            <DistanceMeters>NAN</DistanceMeters>
          </Trackpoint>
          <Trackpoint>
            <Time>2022-07-07T12:26:35.000Z</Time>
            <Position>
              <LatitudeDegrees>43.5574967600405216217041015625</LatitudeDegrees>
              <LongitudeDegrees>-1.497149728238582611083984375</LongitudeDegrees>
            </Position>
            <AltitudeMeters>18.799999237060546875</AltitudeMeters>
            <DistanceMeters>NAN</DistanceMeters>
          </Trackpoint>
          <Trackpoint>
            <Time>2022-07-07T12:26:36.000Z</Time>
            <Position>
              <LatitudeDegrees>43.55749927461147308349609375</LatitudeDegrees>
              <LongitudeDegrees>-1.49708309210836887359619140625</LongitudeDegrees>
            </Position>
            <AltitudeMeters>18.6000003814697265625</AltitudeMeters>
            <DistanceMeters>NAN</DistanceMeters>
          </Trackpoint>
          <Trackpoint>
            <Time>2022-07-07T12:26:39.000Z</Time>
            <Position>
              <LatitudeDegrees>43.55750371702015399932861328125</LatitudeDegrees>
              <LongitudeDegrees>-1.4969115145504474639892578125</LongitudeDegrees>
            </Position>
            <AltitudeMeters>18.200000762939453125</AltitudeMeters>
            <DistanceMeters>NAN</DistanceMeters>
          </Trackpoint>
          <Trackpoint>
            <Time>2022-07-07T12:26:40.000Z</Time>
            <Position>
              <LatitudeDegrees>43.55750069953501224517822265625</LatitudeDegrees>
              <LongitudeDegrees>-1.49686105549335479736328125</LongitudeDegrees>
            </Position>
            <AltitudeMeters>18.200000762939453125</AltitudeMeters>
            <DistanceMeters>NAN</DistanceMeters>
          </Trackpoint>
          <Trackpoint>
            <Time>2022-07-07T12:26:41.000Z</Time>
            <Position>
              <LatitudeDegrees>43.55749265290796756744384765625</LatitudeDegrees>
              <LongitudeDegrees>-1.4968149550259113311767578125</LongitudeDegrees>
            </Position>
            <AltitudeMeters>18.200000762939453125</AltitudeMeters>
            <DistanceMeters>NAN</DistanceMeters>
          </Trackpoint>
          <Trackpoint>
            <Time>2022-07-07T12:26:46.000Z</Time>
            <Position>
              <LatitudeDegrees>43.5573841072618961334228515625</LatitudeDegrees>
              <LongitudeDegrees>-1.496642120182514190673828125</LongitudeDegrees>
            </Position>
            <AltitudeMeters>18</AltitudeMeters>
            <DistanceMeters>NAN</DistanceMeters>
          </Trackpoint>
          <Trackpoint>
            <Time>2022-07-07T12:26:47.000Z</Time>
            <Position>
              <LatitudeDegrees>43.55737094767391681671142578125</LatitudeDegrees>
              <LongitudeDegrees>-1.49660280905663967132568359375</LongitudeDegrees>
            </Position>
            <AltitudeMeters>18.200000762939453125</AltitudeMeters>
            <DistanceMeters>NAN</DistanceMeters>
          </Trackpoint>
          <Trackpoint>
            <Time>2022-07-07T12:26:49.000Z</Time>
            <Position>
              <LatitudeDegrees>43.557366169989109039306640625</LatitudeDegrees>
              <LongitudeDegrees>-1.496518068015575408935546875</LongitudeDegrees>
            </Position>
            <AltitudeMeters>18</AltitudeMeters>
            <DistanceMeters>NAN</DistanceMeters>
          </Trackpoint>
          <Trackpoint>
            <Time>2022-07-07T12:26:56.000Z</Time>
            <Position>
              <LatitudeDegrees>43.557396344840526580810546875</LatitudeDegrees>
              <LongitudeDegrees>-1.4962233603000640869140625</LongitudeDegrees>
            </Position>
            <AltitudeMeters>17.799999237060546875</AltitudeMeters>
            <DistanceMeters>NAN</DistanceMeters>
          </Trackpoint>
          <Trackpoint>
            <Time>2022-07-07T12:27:00.000Z</Time>
            <Position>
              <LatitudeDegrees>43.55733205564320087432861328125</LatitudeDegrees>
              <LongitudeDegrees>-1.49609117768704891204833984375</LongitudeDegrees>
            </Position>
            <AltitudeMeters>17.799999237060546875</AltitudeMeters>
            <DistanceMeters>NAN</DistanceMeters>
          </Trackpoint>
          <Trackpoint>
            <Time>2022-07-07T12:27:05.000Z</Time>
            <Position>
              <LatitudeDegrees>43.55720196850597858428955078125</LatitudeDegrees>
              <LongitudeDegrees>-1.49594734422862529754638671875</LongitudeDegrees>
            </Position>
            <AltitudeMeters>18</AltitudeMeters>
            <DistanceMeters>NAN</DistanceMeters>
          </Trackpoint>
          <Trackpoint>
            <Time>2022-07-07T12:27:09.000Z</Time>
            <Position>
              <LatitudeDegrees>43.55709032155573368072509765625</LatitudeDegrees>
              <LongitudeDegrees>-1.4958245493471622467041015625</LongitudeDegrees>
            </Position>
            <AltitudeMeters>18</AltitudeMeters>
            <DistanceMeters>NAN</DistanceMeters>
          </Trackpoint>
          <Trackpoint>
            <Time>2022-07-07T12:27:12.000Z</Time>
            <Position>
              <LatitudeDegrees>43.55700080282986164093017578125</LatitudeDegrees>
              <LongitudeDegrees>-1.49573318660259246826171875</LongitudeDegrees>
            </Position>
            <AltitudeMeters>18</AltitudeMeters>
            <DistanceMeters>NAN</DistanceMeters>
          </Trackpoint>
          <Trackpoint>
            <Time>2022-07-07T12:27:17.000Z</Time>
            <Position>
              <LatitudeDegrees>43.556863255798816680908203125</LatitudeDegrees>
              <LongitudeDegrees>-1.49562279693782329559326171875</LongitudeDegrees>
            </Position>
            <AltitudeMeters>17.799999237060546875</AltitudeMeters>
            <DistanceMeters>NAN</DistanceMeters>
          </Trackpoint>
          <Trackpoint>
            <Time>2022-07-07T12:27:24.000Z</Time>
            <Position>
              <LatitudeDegrees>43.55661255307495594024658203125</LatitudeDegrees>
              <LongitudeDegrees>-1.4955667220056056976318359375</LongitudeDegrees>
            </Position>
            <AltitudeMeters>17.799999237060546875</AltitudeMeters>
            <DistanceMeters>NAN</DistanceMeters>
          </Trackpoint>
          <Trackpoint>
            <Time>2022-07-07T12:27:31.000Z</Time>
            <Position>
              <LatitudeDegrees>43.5563819669187068939208984375</LatitudeDegrees>
              <LongitudeDegrees>-1.4954416640102863311767578125</LongitudeDegrees>
            </Position>
            <AltitudeMeters>17.6000003814697265625</AltitudeMeters>
            <DistanceMeters>NAN</DistanceMeters>
          </Trackpoint>
          <Trackpoint>
            <Time>2022-07-07T12:27:38.000Z</Time>
            <Position>
              <LatitudeDegrees>43.5561952181160449981689453125</LatitudeDegrees>
              <LongitudeDegrees>-1.4952847547829151153564453125</LongitudeDegrees>
            </Position>
            <AltitudeMeters>17.3999996185302734375</AltitudeMeters>
            <DistanceMeters>NAN</DistanceMeters>
          </Trackpoint>
          <Trackpoint>
            <Time>2022-07-07T12:27:42.000Z</Time>
            <Position>
              <LatitudeDegrees>43.5560931265354156494140625</LatitudeDegrees>
              <LongitudeDegrees>-1.495199762284755706787109375</LongitudeDegrees>
            </Position>
            <AltitudeMeters>17.200000762939453125</AltitudeMeters>
            <DistanceMeters>NAN</DistanceMeters>
          </Trackpoint>
          <Trackpoint>
            <Time>2022-07-07T12:27:45.000Z</Time>
            <Position>
              <LatitudeDegrees>43.55601090006530284881591796875</LatitudeDegrees>
              <LongitudeDegrees>-1.4951285161077976226806640625</LongitudeDegrees>
            </Position>
            <AltitudeMeters>17.200000762939453125</AltitudeMeters>
            <DistanceMeters>NAN</DistanceMeters>
          </Trackpoint>
          <Trackpoint>
            <Time>2022-07-07T12:27:50.000Z</Time>
            <Position>
              <LatitudeDegrees>43.55590403079986572265625</LatitudeDegrees>
              <LongitudeDegrees>-1.49500387720763683319091796875</LongitudeDegrees>
            </Position>
            <AltitudeMeters>17.200000762939453125</AltitudeMeters>
            <DistanceMeters>NAN</DistanceMeters>
          </Trackpoint>
          <Trackpoint>
            <Time>2022-07-07T12:27:57.000Z</Time>
            <Position>
              <LatitudeDegrees>43.55571024119853973388671875</LatitudeDegrees>
              <LongitudeDegrees>-1.4948482252657413482666015625</LongitudeDegrees>
            </Position>
            <AltitudeMeters>17.200000762939453125</AltitudeMeters>
            <DistanceMeters>NAN</DistanceMeters>
          </Trackpoint>
          <Trackpoint>
            <Time>2022-07-07T12:27:59.000Z</Time>
            <Position>
              <LatitudeDegrees>43.5556467063724994659423828125</LatitudeDegrees>
              <LongitudeDegrees>-1.4948079921305179595947265625</LongitudeDegrees>
            </Position>
            <AltitudeMeters>17.200000762939453125</AltitudeMeters>
            <DistanceMeters>NAN</DistanceMeters>
          </Trackpoint>
          <Trackpoint>
            <Time>2022-07-07T12:28:03.000Z</Time>
            <Position>
              <LatitudeDegrees>43.55551318265497684478759765625</LatitudeDegrees>
              <LongitudeDegrees>-1.49471797049045562744140625</LongitudeDegrees>
            </Position>
            <AltitudeMeters>17.3999996185302734375</AltitudeMeters>
            <DistanceMeters>NAN</DistanceMeters>
          </Trackpoint>
          <Trackpoint>
            <Time>2022-07-07T12:28:06.000Z</Time>
            <Position>
              <LatitudeDegrees>43.555426262319087982177734375</LatitudeDegrees>
              <LongitudeDegrees>-1.4946333132684230804443359375</LongitudeDegrees>
            </Position>
            <AltitudeMeters>17.6000003814697265625</AltitudeMeters>
            <DistanceMeters>NAN</DistanceMeters>
          </Trackpoint>
          <Trackpoint>
            <Time>2022-07-07T12:28:09.000Z</Time>
            <Position>
              <LatitudeDegrees>43.5553245060145854949951171875</LatitudeDegrees>
              <LongitudeDegrees>-1.49454656057059764862060546875</LongitudeDegrees>
            </Position>
            <AltitudeMeters>17.799999237060546875</AltitudeMeters>
            <DistanceMeters>NAN</DistanceMeters>
          </Trackpoint>
          <Trackpoint>
            <Time>2022-07-07T12:28:13.000Z</Time>
            <Position>
              <LatitudeDegrees>43.55520539917051792144775390625</LatitudeDegrees>
              <LongitudeDegrees>-1.49444513954222202301025390625</LongitudeDegrees>
            </Position>
            <AltitudeMeters>18</AltitudeMeters>
            <DistanceMeters>NAN</DistanceMeters>
          </Trackpoint>
          <Trackpoint>
            <Time>2022-07-07T12:28:20.000Z</Time>
            <Position>
              <LatitudeDegrees>43.55502133257687091827392578125</LatitudeDegrees>
              <LongitudeDegrees>-1.49428303353488445281982421875</LongitudeDegrees>
            </Position>
            <AltitudeMeters>18.200000762939453125</AltitudeMeters>
            <DistanceMeters>NAN</DistanceMeters>
          </Trackpoint>
          <Trackpoint>
            <Time>2022-07-07T12:28:23.000Z</Time>
            <Position>
              <LatitudeDegrees>43.55495930649340152740478515625</LatitudeDegrees>
              <LongitudeDegrees>-1.49421027861535549163818359375</LongitudeDegrees>
            </Position>
            <AltitudeMeters>18.200000762939453125</AltitudeMeters>
            <DistanceMeters>NAN</DistanceMeters>
          </Trackpoint>
          <Trackpoint>
            <Time>2022-07-07T12:28:26.000Z</Time>
            <Position>
              <LatitudeDegrees>43.554892838001251220703125</LatitudeDegrees>
              <LongitudeDegrees>-1.49415026418864727020263671875</LongitudeDegrees>
            </Position>
            <AltitudeMeters>18.3999996185302734375</AltitudeMeters>
            <DistanceMeters>NAN</DistanceMeters>
          </Trackpoint>
          <Trackpoint>
            <Time>2022-07-07T12:28:32.000Z</Time>
            <Position>
              <LatitudeDegrees>43.5547474958002567291259765625</LatitudeDegrees>
              <LongitudeDegrees>-1.4940368570387363433837890625</LongitudeDegrees>
            </Position>
            <AltitudeMeters>18.3999996185302734375</AltitudeMeters>
            <DistanceMeters>NAN</DistanceMeters>
          </Trackpoint>
          <Trackpoint>
            <Time>2022-07-07T12:28:36.000Z</Time>
            <Position>
              <LatitudeDegrees>43.55465118773281574249267578125</LatitudeDegrees>
              <LongitudeDegrees>-1.4939584024250507354736328125</LongitudeDegrees>
            </Position>
            <AltitudeMeters>18.799999237060546875</AltitudeMeters>
            <DistanceMeters>NAN</DistanceMeters>
          </Trackpoint>
          <Trackpoint>
            <Time>2022-07-07T12:28:41.000Z</Time>
            <Position>
              <LatitudeDegrees>43.55452210642397403717041015625</LatitudeDegrees>
              <LongitudeDegrees>-1.49387667886912822723388671875</LongitudeDegrees>
            </Position>
            <AltitudeMeters>19.200000762939453125</AltitudeMeters>
            <DistanceMeters>NAN</DistanceMeters>
          </Trackpoint>
          <Trackpoint>
            <Time>2022-07-07T12:28:43.000Z</Time>
            <Position>
              <LatitudeDegrees>43.55447365902364253997802734375</LatitudeDegrees>
              <LongitudeDegrees>-1.49384893476963043212890625</LongitudeDegrees>
            </Position>
            <AltitudeMeters>19.3999996185302734375</AltitudeMeters>
            <DistanceMeters>NAN</DistanceMeters>
          </Trackpoint>
          <Trackpoint>
            <Time>2022-07-07T12:28:45.000Z</Time>
            <Position>
              <LatitudeDegrees>43.5544232837855815887451171875</LatitudeDegrees>
              <LongitudeDegrees>-1.49380761198699474334716796875</LongitudeDegrees>
            </Position>
            <AltitudeMeters>19.3999996185302734375</AltitudeMeters>
            <DistanceMeters>NAN</DistanceMeters>
          </Trackpoint>
          <Trackpoint>
            <Time>2022-07-07T12:28:47.000Z</Time>
            <Position>
              <LatitudeDegrees>43.5543684661388397216796875</LatitudeDegrees>
              <LongitudeDegrees>-1.49376310408115386962890625</LongitudeDegrees>
            </Position>
            <AltitudeMeters>19.6000003814697265625</AltitudeMeters>
            <DistanceMeters>NAN</DistanceMeters>
          </Trackpoint>
          <Trackpoint>
            <Time>2022-07-07T12:28:48.000Z</Time>
            <Position>
              <LatitudeDegrees>43.5543416440486907958984375</LatitudeDegrees>
              <LongitudeDegrees>-1.49374474771320819854736328125</LongitudeDegrees>
            </Position>
            <AltitudeMeters>19.6000003814697265625</AltitudeMeters>
            <DistanceMeters>NAN</DistanceMeters>
          </Trackpoint>
          <Trackpoint>
            <Time>2022-07-07T12:28:50.000Z</Time>
            <Position>
              <LatitudeDegrees>43.554292023181915283203125</LatitudeDegrees>
              <LongitudeDegrees>-1.49371172301471233367919921875</LongitudeDegrees>
            </Position>
            <AltitudeMeters>19.6000003814697265625</AltitudeMeters>
            <DistanceMeters>NAN</DistanceMeters>
          </Trackpoint>
          <Trackpoint>
            <Time>2022-07-07T12:28:56.000Z</Time>
            <Position>
              <LatitudeDegrees>43.5541657917201519012451171875</LatitudeDegrees>
              <LongitudeDegrees>-1.49362052790820598602294921875</LongitudeDegrees>
            </Position>
            <AltitudeMeters>20</AltitudeMeters>
            <DistanceMeters>NAN</DistanceMeters>
          </Trackpoint>
          <Trackpoint>
            <Time>2022-07-07T12:29:01.000Z</Time>
            <Position>
              <LatitudeDegrees>43.554066717624664306640625</LatitudeDegrees>
              <LongitudeDegrees>-1.4935366250574588775634765625</LongitudeDegrees>
            </Position>
            <AltitudeMeters>20.200000762939453125</AltitudeMeters>
            <DistanceMeters>NAN</DistanceMeters>
          </Trackpoint>
          <Trackpoint>
            <Time>2022-07-07T12:29:03.000Z</Time>
            <Position>
              <LatitudeDegrees>43.55401718057692050933837890625</LatitudeDegrees>
              <LongitudeDegrees>-1.49349085986614227294921875</LongitudeDegrees>
            </Position>
            <AltitudeMeters>20.200000762939453125</AltitudeMeters>
            <DistanceMeters>NAN</DistanceMeters>
          </Trackpoint>
          <Trackpoint>
            <Time>2022-07-07T12:29:11.000Z</Time>
            <Position>
              <LatitudeDegrees>43.55383244343101978302001953125</LatitudeDegrees>
              <LongitudeDegrees>-1.4933642931282520294189453125</LongitudeDegrees>
            </Position>
            <AltitudeMeters>20.3999996185302734375</AltitudeMeters>
            <DistanceMeters>NAN</DistanceMeters>
          </Trackpoint>
          <Trackpoint>
            <Time>2022-07-07T12:29:19.000Z</Time>
            <Position>
              <LatitudeDegrees>43.55364318005740642547607421875</LatitudeDegrees>
              <LongitudeDegrees>-1.4931943081319332122802734375</LongitudeDegrees>
            </Position>
            <AltitudeMeters>20.6000003814697265625</AltitudeMeters>
            <DistanceMeters>NAN</DistanceMeters>
          </Trackpoint>
          <Trackpoint>
            <Time>2022-07-07T12:29:23.000Z</Time>
            <Position>
              <LatitudeDegrees>43.55352868326008319854736328125</LatitudeDegrees>
              <LongitudeDegrees>-1.49311912246048450469970703125</LongitudeDegrees>
            </Position>
            <AltitudeMeters>20.3999996185302734375</AltitudeMeters>
            <DistanceMeters>NAN</DistanceMeters>
          </Trackpoint>
          <Trackpoint>
            <Time>2022-07-07T12:29:27.000Z</Time>
            <Position>
              <LatitudeDegrees>43.553405217826366424560546875</LatitudeDegrees>
              <LongitudeDegrees>-1.4930316992104053497314453125</LongitudeDegrees>
            </Position>
            <AltitudeMeters>20</AltitudeMeters>
            <DistanceMeters>NAN</DistanceMeters>
          </Trackpoint>
          <Trackpoint>
            <Time>2022-07-07T12:29:33.000Z</Time>
            <Position>
              <LatitudeDegrees>43.55320648290216922760009765625</LatitudeDegrees>
              <LongitudeDegrees>-1.49289146997034549713134765625</LongitudeDegrees>
            </Position>
            <AltitudeMeters>19.3999996185302734375</AltitudeMeters>
            <DistanceMeters>NAN</DistanceMeters>
          </Trackpoint>
          <Trackpoint>
            <Time>2022-07-07T12:29:35.000Z</Time>
            <Position>
              <LatitudeDegrees>43.55313154868781566619873046875</LatitudeDegrees>
              <LongitudeDegrees>-1.492813937366008758544921875</LongitudeDegrees>
            </Position>
            <AltitudeMeters>19.3999996185302734375</AltitudeMeters>
            <DistanceMeters>NAN</DistanceMeters>
          </Trackpoint>
          <Trackpoint>
            <Time>2022-07-07T12:29:36.000Z</Time>
            <Position>
              <LatitudeDegrees>43.5530905611813068389892578125</LatitudeDegrees>
              <LongitudeDegrees>-1.49278216995298862457275390625</LongitudeDegrees>
            </Position>
            <AltitudeMeters>19.200000762939453125</AltitudeMeters>
            <DistanceMeters>NAN</DistanceMeters>
          </Trackpoint>
          <Trackpoint>
            <Time>2022-07-07T12:29:39.000Z</Time>
            <Position>
              <LatitudeDegrees>43.5529681853950023651123046875</LatitudeDegrees>
              <LongitudeDegrees>-1.492681838572025299072265625</LongitudeDegrees>
            </Position>
            <AltitudeMeters>19.200000762939453125</AltitudeMeters>
            <DistanceMeters>NAN</DistanceMeters>
          </Trackpoint>
          <Trackpoint>
            <Time>2022-07-07T12:29:47.000Z</Time>
            <Position>
              <LatitudeDegrees>43.5526818595826625823974609375</LatitudeDegrees>
              <LongitudeDegrees>-1.4924225024878978729248046875</LongitudeDegrees>
            </Position>
            <AltitudeMeters>18.799999237060546875</AltitudeMeters>
            <DistanceMeters>NAN</DistanceMeters>
          </Trackpoint>
          <Trackpoint>
            <Time>2022-07-07T12:29:53.000Z</Time>
            <Position>
              <LatitudeDegrees>43.5525165684521198272705078125</LatitudeDegrees>
              <LongitudeDegrees>-1.49224522523581981658935546875</LongitudeDegrees>
            </Position>
            <AltitudeMeters>18.799999237060546875</AltitudeMeters>
            <DistanceMeters>NAN</DistanceMeters>
          </Trackpoint>
          <Trackpoint>
            <Time>2022-07-07T12:29:59.000Z</Time>
            <Position>
              <LatitudeDegrees>43.5523308254778385162353515625</LatitudeDegrees>
              <LongitudeDegrees>-1.49211681447923183441162109375</LongitudeDegrees>
            </Position>
            <AltitudeMeters>19.200000762939453125</AltitudeMeters>
            <DistanceMeters>NAN</DistanceMeters>
          </Trackpoint>
          <Trackpoint>
            <Time>2022-07-07T12:30:05.000Z</Time>
            <Position>
              <LatitudeDegrees>43.5521299950778484344482421875</LatitudeDegrees>
              <LongitudeDegrees>-1.49194481782615184783935546875</LongitudeDegrees>
            </Position>
            <AltitudeMeters>18.799999237060546875</AltitudeMeters>
            <DistanceMeters>NAN</DistanceMeters>
          </Trackpoint>
          <Trackpoint>
            <Time>2022-07-07T12:30:08.000Z</Time>
            <Position>
              <LatitudeDegrees>43.55203653685748577117919921875</LatitudeDegrees>
              <LongitudeDegrees>-1.4918773435056209564208984375</LongitudeDegrees>
            </Position>
            <AltitudeMeters>18.6000003814697265625</AltitudeMeters>
            <DistanceMeters>NAN</DistanceMeters>
          </Trackpoint>
          <Trackpoint>
            <Time>2022-07-07T12:30:11.000Z</Time>
            <Position>
              <LatitudeDegrees>43.55194265954196453094482421875</LatitudeDegrees>
              <LongitudeDegrees>-1.4917935244739055633544921875</LongitudeDegrees>
            </Position>
            <AltitudeMeters>18.200000762939453125</AltitudeMeters>
            <DistanceMeters>NAN</DistanceMeters>
          </Trackpoint>
          <Trackpoint>
            <Time>2022-07-07T12:30:15.000Z</Time>
            <Position>
              <LatitudeDegrees>43.5518094711005687713623046875</LatitudeDegrees>
              <LongitudeDegrees>-1.49170107208192348480224609375</LongitudeDegrees>
            </Position>
            <AltitudeMeters>18.200000762939453125</AltitudeMeters>
            <DistanceMeters>NAN</DistanceMeters>
          </Trackpoint>
          <Trackpoint>
            <Time>2022-07-07T12:30:22.000Z</Time>
            <Position>
              <LatitudeDegrees>43.5515781305730342864990234375</LatitudeDegrees>
              <LongitudeDegrees>-1.49151583202183246612548828125</LongitudeDegrees>
            </Position>
            <AltitudeMeters>18.6000003814697265625</AltitudeMeters>
            <DistanceMeters>NAN</DistanceMeters>
          </Trackpoint>
          <Trackpoint>
            <Time>2022-07-07T12:30:24.000Z</Time>
            <Position>
              <LatitudeDegrees>43.551517613232135772705078125</LatitudeDegrees>
              <LongitudeDegrees>-1.4914693124592304229736328125</LongitudeDegrees>
            </Position>
            <AltitudeMeters>18.6000003814697265625</AltitudeMeters>
            <DistanceMeters>NAN</DistanceMeters>
          </Trackpoint>
          <Trackpoint>
            <Time>2022-07-07T12:30:30.000Z</Time>
            <Position>
              <LatitudeDegrees>43.55133078061044216156005859375</LatitudeDegrees>
              <LongitudeDegrees>-1.4913082122802734375</LongitudeDegrees>
            </Position>
            <AltitudeMeters>18</AltitudeMeters>
            <DistanceMeters>NAN</DistanceMeters>
          </Trackpoint>
          <Trackpoint>
            <Time>2022-07-07T12:30:32.000Z</Time>
            <Position>
              <LatitudeDegrees>43.55127227492630481719970703125</LatitudeDegrees>
              <LongitudeDegrees>-1.4912527240812778472900390625</LongitudeDegrees>
            </Position>
            <AltitudeMeters>18</AltitudeMeters>
            <DistanceMeters>NAN</DistanceMeters>
          </Trackpoint>
          <Trackpoint>
            <Time>2022-07-07T12:30:36.000Z</Time>
            <Position>
              <LatitudeDegrees>43.5511496476829051971435546875</LatitudeDegrees>
              <LongitudeDegrees>-1.49115021340548992156982421875</LongitudeDegrees>
            </Position>
            <AltitudeMeters>17.799999237060546875</AltitudeMeters>
            <DistanceMeters>NAN</DistanceMeters>
          </Trackpoint>
          <Trackpoint>
            <Time>2022-07-07T12:30:44.000Z</Time>
            <Position>
              <LatitudeDegrees>43.55086457915604114532470703125</LatitudeDegrees>
              <LongitudeDegrees>-1.49090588092803955078125</LongitudeDegrees>
            </Position>
            <AltitudeMeters>18.200000762939453125</AltitudeMeters>
            <DistanceMeters>NAN</DistanceMeters>
          </Trackpoint>
          <Trackpoint>
            <Time>2022-07-07T12:30:49.000Z</Time>
            <Position>
              <LatitudeDegrees>43.55068202130496501922607421875</LatitudeDegrees>
              <LongitudeDegrees>-1.49077118374407291412353515625</LongitudeDegrees>
            </Position>
            <AltitudeMeters>17.6000003814697265625</AltitudeMeters>
            <DistanceMeters>NAN</DistanceMeters>
          </Trackpoint>
          <Trackpoint>
            <Time>2022-07-07T12:30:51.000Z</Time>
            <Position>
              <LatitudeDegrees>43.55062183924019336700439453125</LatitudeDegrees>
              <LongitudeDegrees>-1.4907060563564300537109375</LongitudeDegrees>
            </Position>
            <AltitudeMeters>17.3999996185302734375</AltitudeMeters>
            <DistanceMeters>NAN</DistanceMeters>
          </Trackpoint>
          <Trackpoint>
            <Time>2022-07-07T12:30:53.000Z</Time>
            <Position>
              <LatitudeDegrees>43.550546653568744659423828125</LatitudeDegrees>
              <LongitudeDegrees>-1.4906381629407405853271484375</LongitudeDegrees>
            </Position>
            <AltitudeMeters>17.3999996185302734375</AltitudeMeters>
            <DistanceMeters>NAN</DistanceMeters>
          </Trackpoint>
          <Trackpoint>
            <Time>2022-07-07T12:30:57.000Z</Time>
            <Position>
              <LatitudeDegrees>43.55038429610431194305419921875</LatitudeDegrees>
              <LongitudeDegrees>-1.49050983600318431854248046875</LongitudeDegrees>
            </Position>
            <AltitudeMeters>17.200000762939453125</AltitudeMeters>
            <DistanceMeters>NAN</DistanceMeters>
          </Trackpoint>
          <Trackpoint>
            <Time>2022-07-07T12:30:58.000Z</Time>
            <Position>
              <LatitudeDegrees>43.55034288950264453887939453125</LatitudeDegrees>
              <LongitudeDegrees>-1.4904688484966754913330078125</LongitudeDegrees>
            </Position>
            <AltitudeMeters>17.200000762939453125</AltitudeMeters>
            <DistanceMeters>NAN</DistanceMeters>
          </Trackpoint>
          <Trackpoint>
            <Time>2022-07-07T12:31:07.000Z</Time>
            <Position>
              <LatitudeDegrees>43.55000258423388004302978515625</LatitudeDegrees>
              <LongitudeDegrees>-1.4901803433895111083984375</LongitudeDegrees>
            </Position>
            <AltitudeMeters>16.6000003814697265625</AltitudeMeters>
            <DistanceMeters>NAN</DistanceMeters>
          </Trackpoint>
          <Trackpoint>
            <Time>2022-07-07T12:31:11.000Z</Time>
            <Position>
              <LatitudeDegrees>43.549852631986141204833984375</LatitudeDegrees>
              <LongitudeDegrees>-1.4900631643831729888916015625</LongitudeDegrees>
            </Position>
            <AltitudeMeters>16.6000003814697265625</AltitudeMeters>
            <DistanceMeters>NAN</DistanceMeters>
          </Trackpoint>
          <Trackpoint>
            <Time>2022-07-07T12:31:12.000Z</Time>
            <Position>
              <LatitudeDegrees>43.54981348849833011627197265625</LatitudeDegrees>
              <LongitudeDegrees>-1.49003558792173862457275390625</LongitudeDegrees>
            </Position>
            <AltitudeMeters>16.6000003814697265625</AltitudeMeters>
            <DistanceMeters>NAN</DistanceMeters>
          </Trackpoint>
          <Trackpoint>
            <Time>2022-07-07T12:31:13.000Z</Time>
            <Position>
              <LatitudeDegrees>43.549777530133724212646484375</LatitudeDegrees>
              <LongitudeDegrees>-1.49000323377549648284912109375</LongitudeDegrees>
            </Position>
            <AltitudeMeters>16.6000003814697265625</AltitudeMeters>
            <DistanceMeters>NAN</DistanceMeters>
          </Trackpoint>
          <Trackpoint>
            <Time>2022-07-07T12:31:16.000Z</Time>
            <Position>
              <LatitudeDegrees>43.54966663755476474761962890625</LatitudeDegrees>
              <LongitudeDegrees>-1.48990399204194545745849609375</LongitudeDegrees>
            </Position>
            <AltitudeMeters>17</AltitudeMeters>
            <DistanceMeters>NAN</DistanceMeters>
          </Trackpoint>
          <Trackpoint>
            <Time>2022-07-07T12:31:17.000Z</Time>
            <Position>
              <LatitudeDegrees>43.5496274940669536590576171875</LatitudeDegrees>
              <LongitudeDegrees>-1.48987591266632080078125</LongitudeDegrees>
            </Position>
            <AltitudeMeters>17.200000762939453125</AltitudeMeters>
            <DistanceMeters>NAN</DistanceMeters>
          </Trackpoint>
          <Trackpoint>
            <Time>2022-07-07T12:31:20.000Z</Time>
            <Position>
              <LatitudeDegrees>43.54952079243957996368408203125</LatitudeDegrees>
              <LongitudeDegrees>-1.489787399768829345703125</LongitudeDegrees>
            </Position>
            <AltitudeMeters>17.3999996185302734375</AltitudeMeters>
            <DistanceMeters>NAN</DistanceMeters>
          </Trackpoint>
          <Trackpoint>
            <Time>2022-07-07T12:31:27.000Z</Time>
            <Position>
              <LatitudeDegrees>43.54927469976246356964111328125</LatitudeDegrees>
              <LongitudeDegrees>-1.489590592682361602783203125</LongitudeDegrees>
            </Position>
            <AltitudeMeters>17.3999996185302734375</AltitudeMeters>
            <DistanceMeters>NAN</DistanceMeters>
          </Trackpoint>
          <Trackpoint>
            <Time>2022-07-07T12:31:37.000Z</Time>
            <Position>
              <LatitudeDegrees>43.54896247386932373046875</LatitudeDegrees>
              <LongitudeDegrees>-1.4893413148820400238037109375</LongitudeDegrees>
            </Position>
            <AltitudeMeters>17.200000762939453125</AltitudeMeters>
            <DistanceMeters>NAN</DistanceMeters>
          </Trackpoint>
          <Trackpoint>
            <Time>2022-07-07T12:31:46.000Z</Time>
            <Position>
              <LatitudeDegrees>43.548657707870006561279296875</LatitudeDegrees>
              <LongitudeDegrees>-1.48910335265100002288818359375</LongitudeDegrees>
            </Position>
            <AltitudeMeters>17.6000003814697265625</AltitudeMeters>
            <DistanceMeters>NAN</DistanceMeters>
          </Trackpoint>
          <Trackpoint>
            <Time>2022-07-07T12:31:53.000Z</Time>
            <Position>
              <LatitudeDegrees>43.54839627631008625030517578125</LatitudeDegrees>
              <LongitudeDegrees>-1.48896421305835247039794921875</LongitudeDegrees>
            </Position>
            <AltitudeMeters>17.200000762939453125</AltitudeMeters>
            <DistanceMeters>NAN</DistanceMeters>
          </Trackpoint>
          <Trackpoint>
            <Time>2022-07-07T12:31:58.000Z</Time>
            <Position>
              <LatitudeDegrees>43.5481837950646877288818359375</LatitudeDegrees>
              <LongitudeDegrees>-1.4888377301394939422607421875</LongitudeDegrees>
            </Position>
            <AltitudeMeters>16.799999237060546875</AltitudeMeters>
            <DistanceMeters>NAN</DistanceMeters>
          </Trackpoint>
          <Trackpoint>
            <Time>2022-07-07T12:32:00.000Z</Time>
            <Position>
              <LatitudeDegrees>43.5481055080890655517578125</LatitudeDegrees>
              <LongitudeDegrees>-1.488774530589580535888671875</LongitudeDegrees>
            </Position>
            <AltitudeMeters>16.6000003814697265625</AltitudeMeters>
            <DistanceMeters>NAN</DistanceMeters>
          </Trackpoint>
          <Trackpoint>
            <Time>2022-07-07T12:32:07.000Z</Time>
            <Position>
              <LatitudeDegrees>43.54784524999558925628662109375</LatitudeDegrees>
              <LongitudeDegrees>-1.488555930554866790771484375</LongitudeDegrees>
            </Position>
            <AltitudeMeters>16.3999996185302734375</AltitudeMeters>
            <DistanceMeters>NAN</DistanceMeters>
          </Trackpoint>
          <Trackpoint>
            <Time>2022-07-07T12:32:08.000Z</Time>
            <Position>
              <LatitudeDegrees>43.54781138710677623748779296875</LatitudeDegrees>
              <LongitudeDegrees>-1.4885299466550350189208984375</LongitudeDegrees>
            </Position>
            <AltitudeMeters>16.200000762939453125</AltitudeMeters>
            <DistanceMeters>NAN</DistanceMeters>
          </Trackpoint>
          <Trackpoint>
            <Time>2022-07-07T12:32:10.000Z</Time>
            <Position>
              <LatitudeDegrees>43.54774684645235538482666015625</LatitudeDegrees>
              <LongitudeDegrees>-1.488475799560546875</LongitudeDegrees>
            </Position>
            <AltitudeMeters>16</AltitudeMeters>
            <DistanceMeters>NAN</DistanceMeters>
          </Trackpoint>
          <Trackpoint>
            <Time>2022-07-07T12:32:14.000Z</Time>
            <Position>
              <LatitudeDegrees>43.547651208937168121337890625</LatitudeDegrees>
              <LongitudeDegrees>-1.48840011097490787506103515625</LongitudeDegrees>
            </Position>
            <AltitudeMeters>15.6000003814697265625</AltitudeMeters>
            <DistanceMeters>NAN</DistanceMeters>
          </Trackpoint>
          <Trackpoint>
            <Time>2022-07-07T12:32:18.000Z</Time>
            <Position>
              <LatitudeDegrees>43.547635786235332489013671875</LatitudeDegrees>
              <LongitudeDegrees>-1.4883871190249919891357421875</LongitudeDegrees>
            </Position>
            <AltitudeMeters>15.19999980926513671875</AltitudeMeters>
            <DistanceMeters>NAN</DistanceMeters>
          </Trackpoint>
          <Trackpoint>
            <Time>2022-07-07T12:32:39.000Z</Time>
            <Position>
              <LatitudeDegrees>43.5475229658186435699462890625</LatitudeDegrees>
              <LongitudeDegrees>-1.48828326724469661712646484375</LongitudeDegrees>
            </Position>
            <AltitudeMeters>14.6000003814697265625</AltitudeMeters>
            <DistanceMeters>NAN</DistanceMeters>
          </Trackpoint>
          <Trackpoint>
            <Time>2022-07-07T12:32:42.000Z</Time>
            <Position>
              <LatitudeDegrees>43.54746722616255283355712890625</LatitudeDegrees>
              <LongitudeDegrees>-1.48823582567274570465087890625</LongitudeDegrees>
            </Position>
            <AltitudeMeters>14.6000003814697265625</AltitudeMeters>
            <DistanceMeters>NAN</DistanceMeters>
          </Trackpoint>
          <Trackpoint>
            <Time>2022-07-07T12:32:47.000Z</Time>
            <Position>
              <LatitudeDegrees>43.5473372228443622589111328125</LatitudeDegrees>
              <LongitudeDegrees>-1.488113701343536376953125</LongitudeDegrees>
            </Position>
            <AltitudeMeters>14.6000003814697265625</AltitudeMeters>
            <DistanceMeters>NAN</DistanceMeters>
          </Trackpoint>
          <Trackpoint>
            <Time>2022-07-07T12:32:55.000Z</Time>
            <Position>
              <LatitudeDegrees>43.5471132583916187286376953125</LatitudeDegrees>
              <LongitudeDegrees>-1.487939357757568359375</LongitudeDegrees>
            </Position>
            <AltitudeMeters>14.19999980926513671875</AltitudeMeters>
            <DistanceMeters>NAN</DistanceMeters>
          </Trackpoint>
          <Trackpoint>
            <Time>2022-07-07T12:33:02.000Z</Time>
            <Position>
              <LatitudeDegrees>43.54691217653453350067138671875</LatitudeDegrees>
              <LongitudeDegrees>-1.48776979185640811920166015625</LongitudeDegrees>
            </Position>
            <AltitudeMeters>14.3999996185302734375</AltitudeMeters>
            <DistanceMeters>NAN</DistanceMeters>
          </Trackpoint>
          <Trackpoint>
            <Time>2022-07-07T12:33:12.000Z</Time>
            <Position>
              <LatitudeDegrees>43.54659852571785449981689453125</LatitudeDegrees>
              <LongitudeDegrees>-1.48750609718263149261474609375</LongitudeDegrees>
            </Position>
            <AltitudeMeters>13.80000019073486328125</AltitudeMeters>
            <DistanceMeters>NAN</DistanceMeters>
          </Trackpoint>
          <Trackpoint>
            <Time>2022-07-07T12:33:17.000Z</Time>
            <Position>
              <LatitudeDegrees>43.54649827815592288970947265625</LatitudeDegrees>
              <LongitudeDegrees>-1.487432420253753662109375</LongitudeDegrees>
            </Position>
            <AltitudeMeters>13.6000003814697265625</AltitudeMeters>
            <DistanceMeters>NAN</DistanceMeters>
          </Trackpoint>
          <Trackpoint>
            <Time>2022-07-07T12:33:18.000Z</Time>
            <Position>
              <LatitudeDegrees>43.54648746550083160400390625</LatitudeDegrees>
              <LongitudeDegrees>-1.48743602447211742401123046875</LongitudeDegrees>
            </Position>
            <AltitudeMeters>13.6000003814697265625</AltitudeMeters>
            <DistanceMeters>NAN</DistanceMeters>
          </Trackpoint>
          <Trackpoint>
            <Time>2022-07-07T12:33:20.000Z</Time>
            <Position>
              <LatitudeDegrees>43.54646625928580760955810546875</LatitudeDegrees>
              <LongitudeDegrees>-1.4874418079853057861328125</LongitudeDegrees>
            </Position>
            <AltitudeMeters>13.6000003814697265625</AltitudeMeters>
            <DistanceMeters>NAN</DistanceMeters>
          </Trackpoint>
          <Trackpoint>
            <Time>2022-07-07T12:33:21.000Z</Time>
            <Position>
              <LatitudeDegrees>43.546456284821033477783203125</LatitudeDegrees>
              <LongitudeDegrees>-1.48743853904306888580322265625</LongitudeDegrees>
            </Position>
            <AltitudeMeters>13.3999996185302734375</AltitudeMeters>
            <DistanceMeters>NAN</DistanceMeters>
          </Trackpoint>
          <Trackpoint>
            <Time>2022-07-07T12:33:24.000Z</Time>
            <Position>
              <LatitudeDegrees>43.546450920403003692626953125</LatitudeDegrees>
              <LongitudeDegrees>-1.48743711411952972412109375</LongitudeDegrees>
            </Position>
            <AltitudeMeters>13.19999980926513671875</AltitudeMeters>
            <DistanceMeters>NAN</DistanceMeters>
          </Trackpoint>
          <Trackpoint>
            <Time>2022-07-07T12:33:57.000Z</Time>
            <Position>
              <LatitudeDegrees>43.546412698924541473388671875</LatitudeDegrees>
              <LongitudeDegrees>-1.4873940311372280120849609375</LongitudeDegrees>
            </Position>
            <AltitudeMeters>12.6000003814697265625</AltitudeMeters>
            <DistanceMeters>NAN</DistanceMeters>
          </Trackpoint>
          <Trackpoint>
            <Time>2022-07-07T12:33:58.000Z</Time>
            <Position>
              <LatitudeDegrees>43.54638755321502685546875</LatitudeDegrees>
              <LongitudeDegrees>-1.4873749203979969024658203125</LongitudeDegrees>
            </Position>
            <AltitudeMeters>12.6000003814697265625</AltitudeMeters>
            <DistanceMeters>NAN</DistanceMeters>
          </Trackpoint>
          <Trackpoint>
            <Time>2022-07-07T12:34:01.000Z</Time>
            <Position>
              <LatitudeDegrees>43.54630616493523120880126953125</LatitudeDegrees>
              <LongitudeDegrees>-1.48730509914457798004150390625</LongitudeDegrees>
            </Position>
            <AltitudeMeters>12.6000003814697265625</AltitudeMeters>
            <DistanceMeters>NAN</DistanceMeters>
          </Trackpoint>
          <Trackpoint>
            <Time>2022-07-07T12:34:06.000Z</Time>
            <Position>
              <LatitudeDegrees>43.546173311769962310791015625</LatitudeDegrees>
              <LongitudeDegrees>-1.48719437420368194580078125</LongitudeDegrees>
            </Position>
            <AltitudeMeters>12.6000003814697265625</AltitudeMeters>
            <DistanceMeters>NAN</DistanceMeters>
          </Trackpoint>
          <Trackpoint>
            <Time>2022-07-07T12:34:10.000Z</Time>
            <Position>
              <LatitudeDegrees>43.54608220048248767852783203125</LatitudeDegrees>
              <LongitudeDegrees>-1.48712329566478729248046875</LongitudeDegrees>
            </Position>
            <AltitudeMeters>12.6000003814697265625</AltitudeMeters>
            <DistanceMeters>NAN</DistanceMeters>
          </Trackpoint>
          <Trackpoint>
            <Time>2022-07-07T12:34:13.000Z</Time>
            <Position>
              <LatitudeDegrees>43.546008355915546417236328125</LatitudeDegrees>
              <LongitudeDegrees>-1.4870725013315677642822265625</LongitudeDegrees>
            </Position>
            <AltitudeMeters>12.3999996185302734375</AltitudeMeters>
            <DistanceMeters>NAN</DistanceMeters>
          </Trackpoint>
          <Trackpoint>
            <Time>2022-07-07T12:34:23.000Z</Time>
            <Position>
              <LatitudeDegrees>43.54577793739736080169677734375</LatitudeDegrees>
              <LongitudeDegrees>-1.4868917874991893768310546875</LongitudeDegrees>
            </Position>
            <AltitudeMeters>12.3999996185302734375</AltitudeMeters>
            <DistanceMeters>NAN</DistanceMeters>
          </Trackpoint>
          <Trackpoint>
            <Time>2022-07-07T12:34:29.000Z</Time>
            <Position>
              <LatitudeDegrees>43.545654304325580596923828125</LatitudeDegrees>
              <LongitudeDegrees>-1.48675474338233470916748046875</LongitudeDegrees>
            </Position>
            <AltitudeMeters>12.19999980926513671875</AltitudeMeters>
            <DistanceMeters>NAN</DistanceMeters>
          </Trackpoint>
          <Trackpoint>
            <Time>2022-07-07T12:34:31.000Z</Time>
            <Position>
              <LatitudeDegrees>43.5455994866788387298583984375</LatitudeDegrees>
              <LongitudeDegrees>-1.48669841699302196502685546875</LongitudeDegrees>
            </Position>
            <AltitudeMeters>12.19999980926513671875</AltitudeMeters>
            <DistanceMeters>NAN</DistanceMeters>
          </Trackpoint>
          <Trackpoint>
            <Time>2022-07-07T12:34:34.000Z</Time>
            <Position>
              <LatitudeDegrees>43.5455002449452877044677734375</LatitudeDegrees>
              <LongitudeDegrees>-1.48662842810153961181640625</LongitudeDegrees>
            </Position>
            <AltitudeMeters>12.3999996185302734375</AltitudeMeters>
            <DistanceMeters>NAN</DistanceMeters>
          </Trackpoint>
          <Trackpoint>
            <Time>2022-07-07T12:34:41.000Z</Time>
            <Position>
              <LatitudeDegrees>43.54523512534797191619873046875</LatitudeDegrees>
              <LongitudeDegrees>-1.4864172041416168212890625</LongitudeDegrees>
            </Position>
            <AltitudeMeters>12.80000019073486328125</AltitudeMeters>
            <DistanceMeters>NAN</DistanceMeters>
          </Trackpoint>
          <Trackpoint>
            <Time>2022-07-07T12:34:49.000Z</Time>
            <Position>
              <LatitudeDegrees>43.54491300880908966064453125</LatitudeDegrees>
              <LongitudeDegrees>-1.48614739067852497100830078125</LongitudeDegrees>
            </Position>
            <AltitudeMeters>12.3999996185302734375</AltitudeMeters>
            <DistanceMeters>NAN</DistanceMeters>
          </Trackpoint>
          <Trackpoint>
            <Time>2022-07-07T12:34:55.000Z</Time>
            <Position>
              <LatitudeDegrees>43.544705472886562347412109375</LatitudeDegrees>
              <LongitudeDegrees>-1.48599542677402496337890625</LongitudeDegrees>
            </Position>
            <AltitudeMeters>11.3999996185302734375</AltitudeMeters>
            <DistanceMeters>NAN</DistanceMeters>
          </Trackpoint>
          <Trackpoint>
            <Time>2022-07-07T12:34:56.000Z</Time>
            <Position>
              <LatitudeDegrees>43.54469549842178821563720703125</LatitudeDegrees>
              <LongitudeDegrees>-1.48598846979439258575439453125</LongitudeDegrees>
            </Position>
            <AltitudeMeters>11.19999980926513671875</AltitudeMeters>
            <DistanceMeters>NAN</DistanceMeters>
          </Trackpoint>
          <Trackpoint>
            <Time>2022-07-07T12:34:59.000Z</Time>
            <Position>
              <LatitudeDegrees>43.5446908883750438690185546875</LatitudeDegrees>
              <LongitudeDegrees>-1.4859862066805362701416015625</LongitudeDegrees>
            </Position>
            <AltitudeMeters>11</AltitudeMeters>
            <DistanceMeters>NAN</DistanceMeters>
          </Trackpoint>
          <Trackpoint>
            <Time>2022-07-07T12:37:51.000Z</Time>
            <Position>
              <LatitudeDegrees>43.54466817341744899749755859375</LatitudeDegrees>
              <LongitudeDegrees>-1.48593583144247531890869140625</LongitudeDegrees>
            </Position>
            <AltitudeMeters>11.6000003814697265625</AltitudeMeters>
            <DistanceMeters>NAN</DistanceMeters>
          </Trackpoint>
          <Trackpoint>
            <Time>2022-07-07T12:37:52.000Z</Time>
            <Position>
              <LatitudeDegrees>43.54464923031628131866455078125</LatitudeDegrees>
              <LongitudeDegrees>-1.48592493496835231781005859375</LongitudeDegrees>
            </Position>
            <AltitudeMeters>11.6000003814697265625</AltitudeMeters>
            <DistanceMeters>NAN</DistanceMeters>
          </Trackpoint>
          <Trackpoint>
            <Time>2022-07-07T12:37:57.000Z</Time>
            <Position>
              <LatitudeDegrees>43.54451394639909267425537109375</LatitudeDegrees>
              <LongitudeDegrees>-1.4858135394752025604248046875</LongitudeDegrees>
            </Position>
            <AltitudeMeters>11.80000019073486328125</AltitudeMeters>
            <DistanceMeters>NAN</DistanceMeters>
          </Trackpoint>
          <Trackpoint>
            <Time>2022-07-07T12:38:03.000Z</Time>
            <Position>
              <LatitudeDegrees>43.54432828724384307861328125</LatitudeDegrees>
              <LongitudeDegrees>-1.48565352894365787506103515625</LongitudeDegrees>
            </Position>
            <AltitudeMeters>12.19999980926513671875</AltitudeMeters>
            <DistanceMeters>NAN</DistanceMeters>
          </Trackpoint>
          <Trackpoint>
            <Time>2022-07-07T12:38:08.000Z</Time>
            <Position>
              <LatitudeDegrees>43.54413592256605625152587890625</LatitudeDegrees>
              <LongitudeDegrees>-1.48550533689558506011962890625</LongitudeDegrees>
            </Position>
            <AltitudeMeters>12.3999996185302734375</AltitudeMeters>
            <DistanceMeters>NAN</DistanceMeters>
          </Trackpoint>
          <Trackpoint>
            <Time>2022-07-07T12:38:09.000Z</Time>
            <Position>
              <LatitudeDegrees>43.54408948682248592376708984375</LatitudeDegrees>
              <LongitudeDegrees>-1.4854685403406620025634765625</LongitudeDegrees>
            </Position>
            <AltitudeMeters>12.3999996185302734375</AltitudeMeters>
            <DistanceMeters>NAN</DistanceMeters>
          </Trackpoint>
          <Trackpoint>
            <Time>2022-07-07T12:38:11.000Z</Time>
            <Position>
              <LatitudeDegrees>43.5440156422555446624755859375</LatitudeDegrees>
              <LongitudeDegrees>-1.48540592752397060394287109375</LongitudeDegrees>
            </Position>
            <AltitudeMeters>12.6000003814697265625</AltitudeMeters>
            <DistanceMeters>NAN</DistanceMeters>
          </Trackpoint>
          <Trackpoint>
            <Time>2022-07-07T12:38:20.000Z</Time>
            <Position>
              <LatitudeDegrees>43.54372085072100162506103515625</LatitudeDegrees>
              <LongitudeDegrees>-1.48516989313066005706787109375</LongitudeDegrees>
            </Position>
            <AltitudeMeters>12.6000003814697265625</AltitudeMeters>
            <DistanceMeters>NAN</DistanceMeters>
          </Trackpoint>
          <Trackpoint>
            <Time>2022-07-07T12:38:28.000Z</Time>
            <Position>
              <LatitudeDegrees>43.5434785299003124237060546875</LatitudeDegrees>
              <LongitudeDegrees>-1.48498632945120334625244140625</LongitudeDegrees>
            </Position>
            <AltitudeMeters>13.19999980926513671875</AltitudeMeters>
            <DistanceMeters>NAN</DistanceMeters>
          </Trackpoint>
          <Trackpoint>
            <Time>2022-07-07T12:38:33.000Z</Time>
            <Position>
              <LatitudeDegrees>43.54331198148429393768310546875</LatitudeDegrees>
              <LongitudeDegrees>-1.4848690666258335113525390625</LongitudeDegrees>
            </Position>
            <AltitudeMeters>13</AltitudeMeters>
            <DistanceMeters>NAN</DistanceMeters>
          </Trackpoint>
          <Trackpoint>
            <Time>2022-07-07T12:38:38.000Z</Time>
            <Position>
              <LatitudeDegrees>43.54315213859081268310546875</LatitudeDegrees>
              <LongitudeDegrees>-1.4847450144588947296142578125</LongitudeDegrees>
            </Position>
            <AltitudeMeters>12.80000019073486328125</AltitudeMeters>
            <DistanceMeters>NAN</DistanceMeters>
          </Trackpoint>
          <Trackpoint>
            <Time>2022-07-07T12:38:46.000Z</Time>
            <Position>
              <LatitudeDegrees>43.54292440228164196014404296875</LatitudeDegrees>
              <LongitudeDegrees>-1.4845518954098224639892578125</LongitudeDegrees>
            </Position>
            <AltitudeMeters>13.3999996185302734375</AltitudeMeters>
            <DistanceMeters>NAN</DistanceMeters>
          </Trackpoint>
          <Trackpoint>
            <Time>2022-07-07T12:38:49.000Z</Time>
            <Position>
              <LatitudeDegrees>43.54283027350902557373046875</LatitudeDegrees>
              <LongitudeDegrees>-1.48446531035006046295166015625</LongitudeDegrees>
            </Position>
            <AltitudeMeters>13.6000003814697265625</AltitudeMeters>
            <DistanceMeters>NAN</DistanceMeters>
          </Trackpoint>
          <Trackpoint>
            <Time>2022-07-07T12:38:50.000Z</Time>
            <Position>
              <LatitudeDegrees>43.542796075344085693359375</LatitudeDegrees>
              <LongitudeDegrees>-1.48443580605089664459228515625</LongitudeDegrees>
            </Position>
            <AltitudeMeters>13.6000003814697265625</AltitudeMeters>
            <DistanceMeters>NAN</DistanceMeters>
          </Trackpoint>
          <Trackpoint>
            <Time>2022-07-07T12:38:55.000Z</Time>
            <Position>
              <LatitudeDegrees>43.5426068119704723358154296875</LatitudeDegrees>
              <LongitudeDegrees>-1.4842960797250270843505859375</LongitudeDegrees>
            </Position>
            <AltitudeMeters>13.19999980926513671875</AltitudeMeters>
            <DistanceMeters>NAN</DistanceMeters>
          </Trackpoint>
          <Trackpoint>
            <Time>2022-07-07T12:39:02.000Z</Time>
            <Position>
              <LatitudeDegrees>43.54230212979018688201904296875</LatitudeDegrees>
              <LongitudeDegrees>-1.4840935729444026947021484375</LongitudeDegrees>
            </Position>
            <AltitudeMeters>12.80000019073486328125</AltitudeMeters>
            <DistanceMeters>NAN</DistanceMeters>
          </Trackpoint>
          <Trackpoint>
            <Time>2022-07-07T12:39:05.000Z</Time>
            <Position>
              <LatitudeDegrees>43.54217288084328174591064453125</LatitudeDegrees>
              <LongitudeDegrees>-1.4840429462492465972900390625</LongitudeDegrees>
            </Position>
            <AltitudeMeters>12.3999996185302734375</AltitudeMeters>
            <DistanceMeters>NAN</DistanceMeters>
          </Trackpoint>
          <Trackpoint>
            <Time>2022-07-07T12:39:06.000Z</Time>
            <Position>
              <LatitudeDegrees>43.54212946258485317230224609375</LatitudeDegrees>
              <LongitudeDegrees>-1.48403397761285305023193359375</LongitudeDegrees>
            </Position>
            <AltitudeMeters>12.3999996185302734375</AltitudeMeters>
            <DistanceMeters>NAN</DistanceMeters>
          </Trackpoint>
          <Trackpoint>
            <Time>2022-07-07T12:39:08.000Z</Time>
            <Position>
              <LatitudeDegrees>43.5420351661741733551025390625</LatitudeDegrees>
              <LongitudeDegrees>-1.4840211533010005950927734375</LongitudeDegrees>
            </Position>
            <AltitudeMeters>12.19999980926513671875</AltitudeMeters>
            <DistanceMeters>NAN</DistanceMeters>
          </Trackpoint>
          <Trackpoint>
            <Time>2022-07-07T12:39:14.000Z</Time>
            <Position>
              <LatitudeDegrees>43.54177323170006275177001953125</LatitudeDegrees>
              <LongitudeDegrees>-1.48402375169098377227783203125</LongitudeDegrees>
            </Position>
            <AltitudeMeters>11.80000019073486328125</AltitudeMeters>
            <DistanceMeters>NAN</DistanceMeters>
          </Trackpoint>
          <Trackpoint>
            <Time>2022-07-07T12:39:15.000Z</Time>
            <Position>
              <LatitudeDegrees>43.5417407937347888946533203125</LatitudeDegrees>
              <LongitudeDegrees>-1.48402132093906402587890625</LongitudeDegrees>
            </Position>
            <AltitudeMeters>11.80000019073486328125</AltitudeMeters>
            <DistanceMeters>NAN</DistanceMeters>
          </Trackpoint>
          <Trackpoint>
            <Time>2022-07-07T12:39:18.000Z</Time>
            <Position>
              <LatitudeDegrees>43.54161129333078861236572265625</LatitudeDegrees>
              <LongitudeDegrees>-1.4840171299874782562255859375</LongitudeDegrees>
            </Position>
            <AltitudeMeters>11.80000019073486328125</AltitudeMeters>
            <DistanceMeters>NAN</DistanceMeters>
          </Trackpoint>
          <Trackpoint>
            <Time>2022-07-07T12:39:20.000Z</Time>
            <Position>
              <LatitudeDegrees>43.541541807353496551513671875</LatitudeDegrees>
              <LongitudeDegrees>-1.48401821963489055633544921875</LongitudeDegrees>
            </Position>
            <AltitudeMeters>11.80000019073486328125</AltitudeMeters>
            <DistanceMeters>NAN</DistanceMeters>
          </Trackpoint>
          <Trackpoint>
            <Time>2022-07-07T12:39:21.000Z</Time>
            <Position>
              <LatitudeDegrees>43.54149394668638706207275390625</LatitudeDegrees>
              <LongitudeDegrees>-1.48401956073939800262451171875</LongitudeDegrees>
            </Position>
            <AltitudeMeters>11.80000019073486328125</AltitudeMeters>
            <DistanceMeters>NAN</DistanceMeters>
          </Trackpoint>
          <Trackpoint>
            <Time>2022-07-07T12:39:22.000Z</Time>
            <Position>
              <LatitudeDegrees>43.54145589284598827362060546875</LatitudeDegrees>
              <LongitudeDegrees>-1.4840184710919857025146484375</LongitudeDegrees>
            </Position>
            <AltitudeMeters>11.80000019073486328125</AltitudeMeters>
            <DistanceMeters>NAN</DistanceMeters>
          </Trackpoint>
          <Trackpoint>
            <Time>2022-07-07T12:39:26.000Z</Time>
            <Position>
              <LatitudeDegrees>43.54129227809607982635498046875</LatitudeDegrees>
              <LongitudeDegrees>-1.4840241707861423492431640625</LongitudeDegrees>
            </Position>
            <AltitudeMeters>11.3999996185302734375</AltitudeMeters>
            <DistanceMeters>NAN</DistanceMeters>
          </Trackpoint>
          <Trackpoint>
            <Time>2022-07-07T12:39:28.000Z</Time>
            <Position>
              <LatitudeDegrees>43.5412046872079372406005859375</LatitudeDegrees>
              <LongitudeDegrees>-1.48403397761285305023193359375</LongitudeDegrees>
            </Position>
            <AltitudeMeters>11.3999996185302734375</AltitudeMeters>
            <DistanceMeters>NAN</DistanceMeters>
          </Trackpoint>
          <Trackpoint>
            <Time>2022-07-07T12:39:30.000Z</Time>
            <Position>
              <LatitudeDegrees>43.54113318957388401031494140625</LatitudeDegrees>
              <LongitudeDegrees>-1.4840506576001644134521484375</LongitudeDegrees>
            </Position>
            <AltitudeMeters>11.3999996185302734375</AltitudeMeters>
            <DistanceMeters>NAN</DistanceMeters>
          </Trackpoint>
          <Trackpoint>
            <Time>2022-07-07T12:39:36.000Z</Time>
            <Position>
              <LatitudeDegrees>43.54095465503633022308349609375</LatitudeDegrees>
              <LongitudeDegrees>-1.48417077027261257171630859375</LongitudeDegrees>
            </Position>
            <AltitudeMeters>11.6000003814697265625</AltitudeMeters>
            <DistanceMeters>NAN</DistanceMeters>
          </Trackpoint>
          <Trackpoint>
            <Time>2022-07-07T12:39:37.000Z</Time>
            <Position>
              <LatitudeDegrees>43.54094107635319232940673828125</LatitudeDegrees>
              <LongitudeDegrees>-1.48420949466526508331298828125</LongitudeDegrees>
            </Position>
            <AltitudeMeters>11.6000003814697265625</AltitudeMeters>
            <DistanceMeters>NAN</DistanceMeters>
          </Trackpoint>
          <Trackpoint>
            <Time>2022-07-07T12:39:39.000Z</Time>
            <Position>
              <LatitudeDegrees>43.54095398448407649993896484375</LatitudeDegrees>
              <LongitudeDegrees>-1.4842863567173480987548828125</LongitudeDegrees>
            </Position>
            <AltitudeMeters>12</AltitudeMeters>
            <DistanceMeters>NAN</DistanceMeters>
          </Trackpoint>
          <Trackpoint>
            <Time>2022-07-07T12:39:45.000Z</Time>
            <Position>
              <LatitudeDegrees>43.54108641855418682098388671875</LatitudeDegrees>
              <LongitudeDegrees>-1.48451576940715312957763671875</LongitudeDegrees>
            </Position>
            <AltitudeMeters>11.3999996185302734375</AltitudeMeters>
            <DistanceMeters>NAN</DistanceMeters>
          </Trackpoint>
          <Trackpoint>
            <Time>2022-07-07T12:39:50.000Z</Time>
            <Position>
              <LatitudeDegrees>43.5411959700286388397216796875</LatitudeDegrees>
              <LongitudeDegrees>-1.48472632281482219696044921875</LongitudeDegrees>
            </Position>
            <AltitudeMeters>11.6000003814697265625</AltitudeMeters>
            <DistanceMeters>NAN</DistanceMeters>
          </Trackpoint>
          <Trackpoint>
            <Time>2022-07-07T12:39:52.000Z</Time>
            <Position>
              <LatitudeDegrees>43.541237376630306243896484375</LatitudeDegrees>
              <LongitudeDegrees>-1.48480712436139583587646484375</LongitudeDegrees>
            </Position>
            <AltitudeMeters>11.6000003814697265625</AltitudeMeters>
            <DistanceMeters>NAN</DistanceMeters>
          </Trackpoint>
          <Trackpoint>
            <Time>2022-07-07T12:39:56.000Z</Time>
            <Position>
              <LatitudeDegrees>43.541318513453006744384765625</LatitudeDegrees>
              <LongitudeDegrees>-1.4849580824375152587890625</LongitudeDegrees>
            </Position>
            <AltitudeMeters>11.6000003814697265625</AltitudeMeters>
            <DistanceMeters>NAN</DistanceMeters>
          </Trackpoint>
          <Trackpoint>
            <Time>2022-07-07T12:39:59.000Z</Time>
            <Position>
              <LatitudeDegrees>43.541378192603588104248046875</LatitudeDegrees>
              <LongitudeDegrees>-1.4850538037717342376708984375</LongitudeDegrees>
            </Position>
            <AltitudeMeters>11.6000003814697265625</AltitudeMeters>
            <DistanceMeters>NAN</DistanceMeters>
          </Trackpoint>
          <Trackpoint>
            <Time>2022-07-07T12:40:01.000Z</Time>
            <Position>
              <LatitudeDegrees>43.5414149053394794464111328125</LatitudeDegrees>
              <LongitudeDegrees>-1.48514642380177974700927734375</LongitudeDegrees>
            </Position>
            <AltitudeMeters>11.80000019073486328125</AltitudeMeters>
            <DistanceMeters>NAN</DistanceMeters>
          </Trackpoint>
          <Trackpoint>
            <Time>2022-07-07T12:40:02.000Z</Time>
            <Position>
              <LatitudeDegrees>43.54142077267169952392578125</LatitudeDegrees>
              <LongitudeDegrees>-1.48518900386989116668701171875</LongitudeDegrees>
            </Position>
            <AltitudeMeters>11.80000019073486328125</AltitudeMeters>
            <DistanceMeters>NAN</DistanceMeters>
          </Trackpoint>
          <Trackpoint>
            <Time>2022-07-07T12:40:03.000Z</Time>
            <Position>
              <LatitudeDegrees>43.5414192639291286468505859375</LatitudeDegrees>
              <LongitudeDegrees>-1.4852207712829113006591796875</LongitudeDegrees>
            </Position>
            <AltitudeMeters>11.80000019073486328125</AltitudeMeters>
            <DistanceMeters>NAN</DistanceMeters>
          </Trackpoint>
          <Trackpoint>
            <Time>2022-07-07T12:40:04.000Z</Time>
            <Position>
              <LatitudeDegrees>43.54140979237854480743408203125</LatitudeDegrees>
              <LongitudeDegrees>-1.4852665364742279052734375</LongitudeDegrees>
            </Position>
            <AltitudeMeters>11.80000019073486328125</AltitudeMeters>
            <DistanceMeters>NAN</DistanceMeters>
          </Trackpoint>
          <Trackpoint>
            <Time>2022-07-07T12:40:06.000Z</Time>
            <Position>
              <LatitudeDegrees>43.5413703136146068572998046875</LatitudeDegrees>
              <LongitudeDegrees>-1.48532629944384098052978515625</LongitudeDegrees>
            </Position>
            <AltitudeMeters>11.6000003814697265625</AltitudeMeters>
            <DistanceMeters>NAN</DistanceMeters>
          </Trackpoint>
          <Trackpoint>
            <Time>2022-07-07T12:40:14.000Z</Time>
            <Position>
              <LatitudeDegrees>43.54115246795117855072021484375</LatitudeDegrees>
              <LongitudeDegrees>-1.48552847094833850860595703125</LongitudeDegrees>
            </Position>
            <AltitudeMeters>11.6000003814697265625</AltitudeMeters>
            <DistanceMeters>NAN</DistanceMeters>
          </Trackpoint>
          <Trackpoint>
            <Time>2022-07-07T12:40:20.000Z</Time>
            <Position>
              <LatitudeDegrees>43.5409723408520221710205078125</LatitudeDegrees>
              <LongitudeDegrees>-1.48569493554532527923583984375</LongitudeDegrees>
            </Position>
            <AltitudeMeters>12</AltitudeMeters>
            <DistanceMeters>NAN</DistanceMeters>
          </Trackpoint>
          <Trackpoint>
            <Time>2022-07-07T12:40:28.000Z</Time>
            <Position>
              <LatitudeDegrees>43.5407463647425174713134765625</LatitudeDegrees>
              <LongitudeDegrees>-1.485911272466182708740234375</LongitudeDegrees>
            </Position>
            <AltitudeMeters>11.80000019073486328125</AltitudeMeters>
            <DistanceMeters>NAN</DistanceMeters>
          </Trackpoint>
          <Trackpoint>
            <Time>2022-07-07T12:40:38.000Z</Time>
            <Position>
              <LatitudeDegrees>43.5404570214450359344482421875</LatitudeDegrees>
              <LongitudeDegrees>-1.4862051419913768768310546875</LongitudeDegrees>
            </Position>
            <AltitudeMeters>12</AltitudeMeters>
            <DistanceMeters>NAN</DistanceMeters>
          </Trackpoint>
          <Trackpoint>
            <Time>2022-07-07T12:40:43.000Z</Time>
            <Position>
              <LatitudeDegrees>43.5403222404420375823974609375</LatitudeDegrees>
              <LongitudeDegrees>-1.4863342233002185821533203125</LongitudeDegrees>
            </Position>
            <AltitudeMeters>11.80000019073486328125</AltitudeMeters>
            <DistanceMeters>NAN</DistanceMeters>
          </Trackpoint>
          <Trackpoint>
            <Time>2022-07-07T12:40:45.000Z</Time>
            <Position>
              <LatitudeDegrees>43.54025912471115589141845703125</LatitudeDegrees>
              <LongitudeDegrees>-1.48638342507183551788330078125</LongitudeDegrees>
            </Position>
            <AltitudeMeters>12</AltitudeMeters>
            <DistanceMeters>NAN</DistanceMeters>
          </Trackpoint>
          <Trackpoint>
            <Time>2022-07-07T12:40:48.000Z</Time>
            <Position>
              <LatitudeDegrees>43.54017094708979129791259765625</LatitudeDegrees>
              <LongitudeDegrees>-1.48646087385714054107666015625</LongitudeDegrees>
            </Position>
            <AltitudeMeters>12.19999980926513671875</AltitudeMeters>
            <DistanceMeters>NAN</DistanceMeters>
          </Trackpoint>
          <Trackpoint>
            <Time>2022-07-07T12:40:51.000Z</Time>
            <Position>
              <LatitudeDegrees>43.54007455520331859588623046875</LatitudeDegrees>
              <LongitudeDegrees>-1.4865447767078876495361328125</LongitudeDegrees>
            </Position>
            <AltitudeMeters>12.3999996185302734375</AltitudeMeters>
            <DistanceMeters>NAN</DistanceMeters>
          </Trackpoint>
          <Trackpoint>
            <Time>2022-07-07T12:40:52.000Z</Time>
            <Position>
              <LatitudeDegrees>43.54004303924739360809326171875</LatitudeDegrees>
              <LongitudeDegrees>-1.48657486774027347564697265625</LongitudeDegrees>
            </Position>
            <AltitudeMeters>12.3999996185302734375</AltitudeMeters>
            <DistanceMeters>NAN</DistanceMeters>
          </Trackpoint>
          <Trackpoint>
            <Time>2022-07-07T12:40:54.000Z</Time>
            <Position>
              <LatitudeDegrees>43.53998252190649509429931640625</LatitudeDegrees>
              <LongitudeDegrees>-1.486638821661472320556640625</LongitudeDegrees>
            </Position>
            <AltitudeMeters>12.3999996185302734375</AltitudeMeters>
            <DistanceMeters>NAN</DistanceMeters>
          </Trackpoint>
          <Trackpoint>
            <Time>2022-07-07T12:40:55.000Z</Time>
            <Position>
              <LatitudeDegrees>43.53995000012218952178955078125</LatitudeDegrees>
              <LongitudeDegrees>-1.486670337617397308349609375</LongitudeDegrees>
            </Position>
            <AltitudeMeters>12.3999996185302734375</AltitudeMeters>
            <DistanceMeters>NAN</DistanceMeters>
          </Trackpoint>
          <Trackpoint>
            <Time>2022-07-07T12:41:04.000Z</Time>
            <Position>
              <LatitudeDegrees>43.539670296013355255126953125</LatitudeDegrees>
              <LongitudeDegrees>-1.48692078888416290283203125</LongitudeDegrees>
            </Position>
            <AltitudeMeters>12.19999980926513671875</AltitudeMeters>
            <DistanceMeters>NAN</DistanceMeters>
          </Trackpoint>
          <Trackpoint>
            <Time>2022-07-07T12:41:07.000Z</Time>
            <Position>
              <LatitudeDegrees>43.53958236984908580780029296875</LatitudeDegrees>
              <LongitudeDegrees>-1.4869997464120388031005859375</LongitudeDegrees>
            </Position>
            <AltitudeMeters>12.19999980926513671875</AltitudeMeters>
            <DistanceMeters>NAN</DistanceMeters>
          </Trackpoint>
          <Trackpoint>
            <Time>2022-07-07T12:41:12.000Z</Time>
            <Position>
              <LatitudeDegrees>43.539428897202014923095703125</LatitudeDegrees>
              <LongitudeDegrees>-1.48715120740234851837158203125</LongitudeDegrees>
            </Position>
            <AltitudeMeters>12.3999996185302734375</AltitudeMeters>
            <DistanceMeters>NAN</DistanceMeters>
          </Trackpoint>
          <Trackpoint>
            <Time>2022-07-07T12:41:14.000Z</Time>
            <Position>
              <LatitudeDegrees>43.53936930187046527862548828125</LatitudeDegrees>
              <LongitudeDegrees>-1.48721775971353054046630859375</LongitudeDegrees>
            </Position>
            <AltitudeMeters>12.6000003814697265625</AltitudeMeters>
            <DistanceMeters>NAN</DistanceMeters>
          </Trackpoint>
          <Trackpoint>
            <Time>2022-07-07T12:41:21.000Z</Time>
            <Position>
              <LatitudeDegrees>43.53918515145778656005859375</LatitudeDegrees>
              <LongitudeDegrees>-1.48742060177028179168701171875</LongitudeDegrees>
            </Position>
            <AltitudeMeters>12.6000003814697265625</AltitudeMeters>
            <DistanceMeters>NAN</DistanceMeters>
          </Trackpoint>
          <Trackpoint>
            <Time>2022-07-07T12:41:23.000Z</Time>
            <Position>
              <LatitudeDegrees>43.539155982434749603271484375</LatitudeDegrees>
              <LongitudeDegrees>-1.487464271485805511474609375</LongitudeDegrees>
            </Position>
            <AltitudeMeters>12</AltitudeMeters>
            <DistanceMeters>NAN</DistanceMeters>
          </Trackpoint>
          <Trackpoint>
            <Time>2022-07-07T12:41:27.000Z</Time>
            <Position>
              <LatitudeDegrees>43.5391105525195598602294921875</LatitudeDegrees>
              <LongitudeDegrees>-1.48754934780299663543701171875</LongitudeDegrees>
            </Position>
            <AltitudeMeters>11.3999996185302734375</AltitudeMeters>
            <DistanceMeters>NAN</DistanceMeters>
          </Trackpoint>
          <Trackpoint>
            <Time>2022-07-07T12:41:28.000Z</Time>
            <Position>
              <LatitudeDegrees>43.53911968879401683807373046875</LatitudeDegrees>
              <LongitudeDegrees>-1.48756812326610088348388671875</LongitudeDegrees>
            </Position>
            <AltitudeMeters>11.3999996185302734375</AltitudeMeters>
            <DistanceMeters>NAN</DistanceMeters>
          </Trackpoint>
          <Trackpoint>
            <Time>2022-07-07T12:41:33.000Z</Time>
            <Position>
              <LatitudeDegrees>43.5392091237008571624755859375</LatitudeDegrees>
              <LongitudeDegrees>-1.4876739867031574249267578125</LongitudeDegrees>
            </Position>
            <AltitudeMeters>11.3999996185302734375</AltitudeMeters>
            <DistanceMeters>NAN</DistanceMeters>
          </Trackpoint>
          <Trackpoint>
            <Time>2022-07-07T12:41:34.000Z</Time>
            <Position>
              <LatitudeDegrees>43.539232425391674041748046875</LatitudeDegrees>
              <LongitudeDegrees>-1.48771078325808048248291015625</LongitudeDegrees>
            </Position>
            <AltitudeMeters>11.3999996185302734375</AltitudeMeters>
            <DistanceMeters>NAN</DistanceMeters>
          </Trackpoint>
          <Trackpoint>
            <Time>2022-07-07T12:41:36.000Z</Time>
            <Position>
              <LatitudeDegrees>43.5392798669636249542236328125</LatitudeDegrees>
              <LongitudeDegrees>-1.48779426701366901397705078125</LongitudeDegrees>
            </Position>
            <AltitudeMeters>11.3999996185302734375</AltitudeMeters>
            <DistanceMeters>NAN</DistanceMeters>
          </Trackpoint>
          <Trackpoint>
            <Time>2022-07-07T12:41:38.000Z</Time>
            <Position>
              <LatitudeDegrees>43.5393321700394153594970703125</LatitudeDegrees>
              <LongitudeDegrees>-1.4878892339766025543212890625</LongitudeDegrees>
            </Position>
            <AltitudeMeters>11.3999996185302734375</AltitudeMeters>
            <DistanceMeters>NAN</DistanceMeters>
          </Trackpoint>
          <Trackpoint>
            <Time>2022-07-07T12:41:43.000Z</Time>
            <Position>
              <LatitudeDegrees>43.53941288776695728302001953125</LatitudeDegrees>
              <LongitudeDegrees>-1.48814630694687366485595703125</LongitudeDegrees>
            </Position>
            <AltitudeMeters>11.3999996185302734375</AltitudeMeters>
            <DistanceMeters>NAN</DistanceMeters>
          </Trackpoint>
          <Trackpoint>
            <Time>2022-07-07T12:41:48.000Z</Time>
            <Position>
              <LatitudeDegrees>43.53932705707848072052001953125</LatitudeDegrees>
              <LongitudeDegrees>-1.48836113512516021728515625</LongitudeDegrees>
            </Position>
            <AltitudeMeters>11.3999996185302734375</AltitudeMeters>
            <DistanceMeters>NAN</DistanceMeters>
          </Trackpoint>
          <Trackpoint>
            <Time>2022-07-07T12:41:55.000Z</Time>
            <Position>
              <LatitudeDegrees>43.539107702672481536865234375</LatitudeDegrees>
              <LongitudeDegrees>-1.48857344873249530792236328125</LongitudeDegrees>
            </Position>
            <AltitudeMeters>12</AltitudeMeters>
            <DistanceMeters>NAN</DistanceMeters>
          </Trackpoint>
          <Trackpoint>
            <Time>2022-07-07T12:42:03.000Z</Time>
            <Position>
              <LatitudeDegrees>43.5388733446598052978515625</LatitudeDegrees>
              <LongitudeDegrees>-1.488787941634654998779296875</LongitudeDegrees>
            </Position>
            <AltitudeMeters>11.80000019073486328125</AltitudeMeters>
            <DistanceMeters>NAN</DistanceMeters>
          </Trackpoint>
          <Trackpoint>
            <Time>2022-07-07T12:42:04.000Z</Time>
            <Position>
              <LatitudeDegrees>43.53884459473192691802978515625</LatitudeDegrees>
              <LongitudeDegrees>-1.48881467990577220916748046875</LongitudeDegrees>
            </Position>
            <AltitudeMeters>12</AltitudeMeters>
            <DistanceMeters>NAN</DistanceMeters>
          </Trackpoint>
          <Trackpoint>
            <Time>2022-07-07T12:42:09.000Z</Time>
            <Position>
              <LatitudeDegrees>43.53869967162609100341796875</LatitudeDegrees>
              <LongitudeDegrees>-1.48895381949841976165771484375</LongitudeDegrees>
            </Position>
            <AltitudeMeters>12.19999980926513671875</AltitudeMeters>
            <DistanceMeters>NAN</DistanceMeters>
          </Trackpoint>
          <Trackpoint>
            <Time>2022-07-07T12:42:11.000Z</Time>
            <Position>
              <LatitudeDegrees>43.53863454423844814300537109375</LatitudeDegrees>
              <LongitudeDegrees>-1.48901433683931827545166015625</LongitudeDegrees>
            </Position>
            <AltitudeMeters>12</AltitudeMeters>
            <DistanceMeters>NAN</DistanceMeters>
          </Trackpoint>
          <Trackpoint>
            <Time>2022-07-07T12:42:13.000Z</Time>
            <Position>
              <LatitudeDegrees>43.53858031332492828369140625</LatitudeDegrees>
              <LongitudeDegrees>-1.48906060494482517242431640625</LongitudeDegrees>
            </Position>
            <AltitudeMeters>11.80000019073486328125</AltitudeMeters>
            <DistanceMeters>NAN</DistanceMeters>
          </Trackpoint>
          <Trackpoint>
            <Time>2022-07-07T12:42:20.000Z</Time>
            <Position>
              <LatitudeDegrees>43.53837034665048122406005859375</LatitudeDegrees>
              <LongitudeDegrees>-1.48925992660224437713623046875</LongitudeDegrees>
            </Position>
            <AltitudeMeters>11.80000019073486328125</AltitudeMeters>
            <DistanceMeters>NAN</DistanceMeters>
          </Trackpoint>
          <Trackpoint>
            <Time>2022-07-07T12:42:22.000Z</Time>
            <Position>
              <LatitudeDegrees>43.53831016458570957183837890625</LatitudeDegrees>
              <LongitudeDegrees>-1.48931826464831829071044921875</LongitudeDegrees>
            </Position>
            <AltitudeMeters>12.19999980926513671875</AltitudeMeters>
            <DistanceMeters>NAN</DistanceMeters>
          </Trackpoint>
          <Trackpoint>
            <Time>2022-07-07T12:42:23.000Z</Time>
            <Position>
              <LatitudeDegrees>43.53828124701976776123046875</LatitudeDegrees>
              <LongitudeDegrees>-1.489347182214260101318359375</LongitudeDegrees>
            </Position>
            <AltitudeMeters>12.3999996185302734375</AltitudeMeters>
            <DistanceMeters>NAN</DistanceMeters>
          </Trackpoint>
          <Trackpoint>
            <Time>2022-07-07T12:42:29.000Z</Time>
            <Position>
              <LatitudeDegrees>43.53809122927486896514892578125</LatitudeDegrees>
              <LongitudeDegrees>-1.48952529765665531158447265625</LongitudeDegrees>
            </Position>
            <AltitudeMeters>12</AltitudeMeters>
            <DistanceMeters>NAN</DistanceMeters>
          </Trackpoint>
          <Trackpoint>
            <Time>2022-07-07T12:42:33.000Z</Time>
            <Position>
              <LatitudeDegrees>43.53796365670859813690185546875</LatitudeDegrees>
              <LongitudeDegrees>-1.48964063264429569244384765625</LongitudeDegrees>
            </Position>
            <AltitudeMeters>12</AltitudeMeters>
            <DistanceMeters>NAN</DistanceMeters>
          </Trackpoint>
          <Trackpoint>
            <Time>2022-07-07T12:42:40.000Z</Time>
            <Position>
              <LatitudeDegrees>43.5377416200935840606689453125</LatitudeDegrees>
              <LongitudeDegrees>-1.489867866039276123046875</LongitudeDegrees>
            </Position>
            <AltitudeMeters>12.6000003814697265625</AltitudeMeters>
            <DistanceMeters>NAN</DistanceMeters>
          </Trackpoint>
          <Trackpoint>
            <Time>2022-07-07T12:42:49.000Z</Time>
            <Position>
              <LatitudeDegrees>43.53746845386922359466552734375</LatitudeDegrees>
              <LongitudeDegrees>-1.4901186525821685791015625</LongitudeDegrees>
            </Position>
            <AltitudeMeters>12.19999980926513671875</AltitudeMeters>
            <DistanceMeters>NAN</DistanceMeters>
          </Trackpoint>
          <Trackpoint>
            <Time>2022-07-07T12:42:57.000Z</Time>
            <Position>
              <LatitudeDegrees>43.53721146471798419952392578125</LatitudeDegrees>
              <LongitudeDegrees>-1.49033415131270885467529296875</LongitudeDegrees>
            </Position>
            <AltitudeMeters>12</AltitudeMeters>
            <DistanceMeters>NAN</DistanceMeters>
          </Trackpoint>
          <Trackpoint>
            <Time>2022-07-07T12:42:58.000Z</Time>
            <Position>
              <LatitudeDegrees>43.53717676363885402679443359375</LatitudeDegrees>
              <LongitudeDegrees>-1.49034722708165645599365234375</LongitudeDegrees>
            </Position>
            <AltitudeMeters>12</AltitudeMeters>
            <DistanceMeters>NAN</DistanceMeters>
          </Trackpoint>
          <Trackpoint>
            <Time>2022-07-07T12:43:03.000Z</Time>
            <Position>
              <LatitudeDegrees>43.53700309060513973236083984375</LatitudeDegrees>
              <LongitudeDegrees>-1.49033331312239170074462890625</LongitudeDegrees>
            </Position>
            <AltitudeMeters>11.6000003814697265625</AltitudeMeters>
            <DistanceMeters>NAN</DistanceMeters>
          </Trackpoint>
          <Trackpoint>
            <Time>2022-07-07T12:43:08.000Z</Time>
            <Position>
              <LatitudeDegrees>43.53686034679412841796875</LatitudeDegrees>
              <LongitudeDegrees>-1.49017632007598876953125</LongitudeDegrees>
            </Position>
            <AltitudeMeters>11.6000003814697265625</AltitudeMeters>
            <DistanceMeters>NAN</DistanceMeters>
          </Trackpoint>
          <Trackpoint>
            <Time>2022-07-07T12:43:14.000Z</Time>
            <Position>
              <LatitudeDegrees>43.5367458499968051910400390625</LatitudeDegrees>
              <LongitudeDegrees>-1.48989946581423282623291015625</LongitudeDegrees>
            </Position>
            <AltitudeMeters>11.6000003814697265625</AltitudeMeters>
            <DistanceMeters>NAN</DistanceMeters>
          </Trackpoint>
          <Trackpoint>
            <Time>2022-07-07T12:43:16.000Z</Time>
            <Position>
              <LatitudeDegrees>43.53669161908328533172607421875</LatitudeDegrees>
              <LongitudeDegrees>-1.48979804478585720062255859375</LongitudeDegrees>
            </Position>
            <AltitudeMeters>11.80000019073486328125</AltitudeMeters>
            <DistanceMeters>NAN</DistanceMeters>
          </Trackpoint>
          <Trackpoint>
            <Time>2022-07-07T12:43:21.000Z</Time>
            <Position>
              <LatitudeDegrees>43.5365902818739414215087890625</LatitudeDegrees>
              <LongitudeDegrees>-1.48954801261425018310546875</LongitudeDegrees>
            </Position>
            <AltitudeMeters>11.80000019073486328125</AltitudeMeters>
            <DistanceMeters>NAN</DistanceMeters>
          </Trackpoint>
          <Trackpoint>
            <Time>2022-07-07T12:43:23.000Z</Time>
            <Position>
              <LatitudeDegrees>43.53652498684823513031005859375</LatitudeDegrees>
              <LongitudeDegrees>-1.48949646390974521636962890625</LongitudeDegrees>
            </Position>
            <AltitudeMeters>11.80000019073486328125</AltitudeMeters>
            <DistanceMeters>NAN</DistanceMeters>
          </Trackpoint>
          <Trackpoint>
            <Time>2022-07-07T12:43:25.000Z</Time>
            <Position>
              <LatitudeDegrees>43.53644485585391521453857421875</LatitudeDegrees>
              <LongitudeDegrees>-1.48951716721057891845703125</LongitudeDegrees>
            </Position>
            <AltitudeMeters>11.80000019073486328125</AltitudeMeters>
            <DistanceMeters>NAN</DistanceMeters>
          </Trackpoint>
          <Trackpoint>
            <Time>2022-07-07T12:43:26.000Z</Time>
            <Position>
              <LatitudeDegrees>43.536408059298992156982421875</LatitudeDegrees>
              <LongitudeDegrees>-1.489553712308406829833984375</LongitudeDegrees>
            </Position>
            <AltitudeMeters>12</AltitudeMeters>
            <DistanceMeters>NAN</DistanceMeters>
          </Trackpoint>
          <Trackpoint>
            <Time>2022-07-07T12:43:33.000Z</Time>
            <Position>
              <LatitudeDegrees>43.53616439737379550933837890625</LatitudeDegrees>
              <LongitudeDegrees>-1.489797122776508331298828125</LongitudeDegrees>
            </Position>
            <AltitudeMeters>12.80000019073486328125</AltitudeMeters>
            <DistanceMeters>NAN</DistanceMeters>
          </Trackpoint>
          <Trackpoint>
            <Time>2022-07-07T12:43:36.000Z</Time>
            <Position>
              <LatitudeDegrees>43.53606708347797393798828125</LatitudeDegrees>
              <LongitudeDegrees>-1.489899046719074249267578125</LongitudeDegrees>
            </Position>
            <AltitudeMeters>12.3999996185302734375</AltitudeMeters>
            <DistanceMeters>NAN</DistanceMeters>
          </Trackpoint>
          <Trackpoint>
            <Time>2022-07-07T12:43:38.000Z</Time>
            <Position>
              <LatitudeDegrees>43.53601478040218353271484375</LatitudeDegrees>
              <LongitudeDegrees>-1.4899810217320919036865234375</LongitudeDegrees>
            </Position>
            <AltitudeMeters>12.3999996185302734375</AltitudeMeters>
            <DistanceMeters>NAN</DistanceMeters>
          </Trackpoint>
          <Trackpoint>
            <Time>2022-07-07T12:43:41.000Z</Time>
            <Position>
              <LatitudeDegrees>43.5359666682779788970947265625</LatitudeDegrees>
              <LongitudeDegrees>-1.49010029621422290802001953125</LongitudeDegrees>
            </Position>
            <AltitudeMeters>12.19999980926513671875</AltitudeMeters>
            <DistanceMeters>NAN</DistanceMeters>
          </Trackpoint>
          <Trackpoint>
            <Time>2022-07-07T12:43:43.000Z</Time>
            <Position>
              <LatitudeDegrees>43.53592635132372379302978515625</LatitudeDegrees>
              <LongitudeDegrees>-1.490154527127742767333984375</LongitudeDegrees>
            </Position>
            <AltitudeMeters>12.19999980926513671875</AltitudeMeters>
            <DistanceMeters>NAN</DistanceMeters>
          </Trackpoint>
          <Trackpoint>
            <Time>2022-07-07T12:43:45.000Z</Time>
            <Position>
              <LatitudeDegrees>43.53586457669734954833984375</LatitudeDegrees>
              <LongitudeDegrees>-1.49016617797315120697021484375</LongitudeDegrees>
            </Position>
            <AltitudeMeters>12</AltitudeMeters>
            <DistanceMeters>NAN</DistanceMeters>
          </Trackpoint>
          <Trackpoint>
            <Time>2022-07-07T12:43:49.000Z</Time>
            <Position>
              <LatitudeDegrees>43.53569953702390193939208984375</LatitudeDegrees>
              <LongitudeDegrees>-1.49013097397983074188232421875</LongitudeDegrees>
            </Position>
            <AltitudeMeters>11.19999980926513671875</AltitudeMeters>
            <DistanceMeters>NAN</DistanceMeters>
          </Trackpoint>
          <Trackpoint>
            <Time>2022-07-07T12:43:50.000Z</Time>
            <Position>
              <LatitudeDegrees>43.5356672666966915130615234375</LatitudeDegrees>
              <LongitudeDegrees>-1.49013550020754337310791015625</LongitudeDegrees>
            </Position>
            <AltitudeMeters>11</AltitudeMeters>
            <DistanceMeters>NAN</DistanceMeters>
          </Trackpoint>
          <Trackpoint>
            <Time>2022-07-07T12:43:51.000Z</Time>
            <Position>
              <LatitudeDegrees>43.53562192060053348541259765625</LatitudeDegrees>
              <LongitudeDegrees>-1.49014974944293498992919921875</LongitudeDegrees>
            </Position>
            <AltitudeMeters>11</AltitudeMeters>
            <DistanceMeters>NAN</DistanceMeters>
          </Trackpoint>
          <Trackpoint>
            <Time>2022-07-07T12:43:54.000Z</Time>
            <Position>
              <LatitudeDegrees>43.5354986228048801422119140625</LatitudeDegrees>
              <LongitudeDegrees>-1.4902338199317455291748046875</LongitudeDegrees>
            </Position>
            <AltitudeMeters>11.19999980926513671875</AltitudeMeters>
            <DistanceMeters>NAN</DistanceMeters>
          </Trackpoint>
          <Trackpoint>
            <Time>2022-07-07T12:44:01.000Z</Time>
            <Position>
              <LatitudeDegrees>43.53527205996215343475341796875</LatitudeDegrees>
              <LongitudeDegrees>-1.49045384488999843597412109375</LongitudeDegrees>
            </Position>
            <AltitudeMeters>11.80000019073486328125</AltitudeMeters>
            <DistanceMeters>NAN</DistanceMeters>
          </Trackpoint>
          <Trackpoint>
            <Time>2022-07-07T12:44:07.000Z</Time>
            <Position>
              <LatitudeDegrees>43.53507936000823974609375</LatitudeDegrees>
              <LongitudeDegrees>-1.49064796976745128631591796875</LongitudeDegrees>
            </Position>
            <AltitudeMeters>11.6000003814697265625</AltitudeMeters>
            <DistanceMeters>NAN</DistanceMeters>
          </Trackpoint>
          <Trackpoint>
            <Time>2022-07-07T12:44:13.000Z</Time>
            <Position>
              <LatitudeDegrees>43.53488825261592864990234375</LatitudeDegrees>
              <LongitudeDegrees>-1.490819044411182403564453125</LongitudeDegrees>
            </Position>
            <AltitudeMeters>11</AltitudeMeters>
            <DistanceMeters>NAN</DistanceMeters>
          </Trackpoint>
          <Trackpoint>
            <Time>2022-07-07T12:44:17.000Z</Time>
            <Position>
              <LatitudeDegrees>43.53476311080157756805419921875</LatitudeDegrees>
              <LongitudeDegrees>-1.4909402467310428619384765625</LongitudeDegrees>
            </Position>
            <AltitudeMeters>11.19999980926513671875</AltitudeMeters>
            <DistanceMeters>NAN</DistanceMeters>
          </Trackpoint>
          <Trackpoint>
            <Time>2022-07-07T12:44:29.000Z</Time>
            <Position>
              <LatitudeDegrees>43.53435759432613849639892578125</LatitudeDegrees>
              <LongitudeDegrees>-1.49133210070431232452392578125</LongitudeDegrees>
            </Position>
            <AltitudeMeters>12</AltitudeMeters>
            <DistanceMeters>NAN</DistanceMeters>
          </Trackpoint>
          <Trackpoint>
            <Time>2022-07-07T12:44:30.000Z</Time>
            <Position>
              <LatitudeDegrees>43.53432574309408664703369140625</LatitudeDegrees>
              <LongitudeDegrees>-1.49136227555572986602783203125</LongitudeDegrees>
            </Position>
            <AltitudeMeters>12.19999980926513671875</AltitudeMeters>
            <DistanceMeters>NAN</DistanceMeters>
          </Trackpoint>
          <Trackpoint>
            <Time>2022-07-07T12:44:39.000Z</Time>
            <Position>
              <LatitudeDegrees>43.534051738679409027099609375</LatitudeDegrees>
              <LongitudeDegrees>-1.49161490611732006072998046875</LongitudeDegrees>
            </Position>
            <AltitudeMeters>12.3999996185302734375</AltitudeMeters>
            <DistanceMeters>NAN</DistanceMeters>
          </Trackpoint>
          <Trackpoint>
            <Time>2022-07-07T12:44:49.000Z</Time>
            <Position>
              <LatitudeDegrees>43.53375233709812164306640625</LatitudeDegrees>
              <LongitudeDegrees>-1.49190374650061130523681640625</LongitudeDegrees>
            </Position>
            <AltitudeMeters>11.80000019073486328125</AltitudeMeters>
            <DistanceMeters>NAN</DistanceMeters>
          </Trackpoint>
          <Trackpoint>
            <Time>2022-07-07T12:44:56.000Z</Time>
            <Position>
              <LatitudeDegrees>43.53356449864804744720458984375</LatitudeDegrees>
              <LongitudeDegrees>-1.49208647198975086212158203125</LongitudeDegrees>
            </Position>
            <AltitudeMeters>12.3999996185302734375</AltitudeMeters>
            <DistanceMeters>NAN</DistanceMeters>
          </Trackpoint>
          <Trackpoint>
            <Time>2022-07-07T12:44:58.000Z</Time>
            <Position>
              <LatitudeDegrees>43.5335101000964641571044921875</LatitudeDegrees>
              <LongitudeDegrees>-1.49213843978941440582275390625</LongitudeDegrees>
            </Position>
            <AltitudeMeters>12.3999996185302734375</AltitudeMeters>
            <DistanceMeters>NAN</DistanceMeters>
          </Trackpoint>
          <Trackpoint>
            <Time>2022-07-07T12:45:02.000Z</Time>
            <Position>
              <LatitudeDegrees>43.5334162227809429168701171875</LatitudeDegrees>
              <LongitudeDegrees>-1.49222594685852527618408203125</LongitudeDegrees>
            </Position>
            <AltitudeMeters>12.6000003814697265625</AltitudeMeters>
            <DistanceMeters>NAN</DistanceMeters>
          </Trackpoint>
          <Trackpoint>
            <Time>2022-07-07T12:45:06.000Z</Time>
            <Position>
              <LatitudeDegrees>43.53332192637026309967041015625</LatitudeDegrees>
              <LongitudeDegrees>-1.49229350499808788299560546875</LongitudeDegrees>
            </Position>
            <AltitudeMeters>12.6000003814697265625</AltitudeMeters>
            <DistanceMeters>NAN</DistanceMeters>
          </Trackpoint>
          <Trackpoint>
            <Time>2022-07-07T12:45:12.000Z</Time>
            <Position>
              <LatitudeDegrees>43.53317976929247379302978515625</LatitudeDegrees>
              <LongitudeDegrees>-1.49236609227955341339111328125</LongitudeDegrees>
            </Position>
            <AltitudeMeters>13</AltitudeMeters>
            <DistanceMeters>NAN</DistanceMeters>
          </Trackpoint>
          <Trackpoint>
            <Time>2022-07-07T12:45:15.000Z</Time>
            <Position>
              <LatitudeDegrees>43.53311665356159210205078125</LatitudeDegrees>
              <LongitudeDegrees>-1.49238872341811656951904296875</LongitudeDegrees>
            </Position>
            <AltitudeMeters>13</AltitudeMeters>
            <DistanceMeters>NAN</DistanceMeters>
          </Trackpoint>
          <Trackpoint>
            <Time>2022-07-07T12:45:22.000Z</Time>
            <Position>
              <LatitudeDegrees>43.5329805314540863037109375</LatitudeDegrees>
              <LongitudeDegrees>-1.4925250969827175140380859375</LongitudeDegrees>
            </Position>
            <AltitudeMeters>13</AltitudeMeters>
            <DistanceMeters>NAN</DistanceMeters>
          </Trackpoint>
          <Trackpoint>
            <Time>2022-07-07T12:45:28.000Z</Time>
            <Position>
              <LatitudeDegrees>43.5328787751495838165283203125</LatitudeDegrees>
              <LongitudeDegrees>-1.4926538430154323577880859375</LongitudeDegrees>
            </Position>
            <AltitudeMeters>12.80000019073486328125</AltitudeMeters>
            <DistanceMeters>NAN</DistanceMeters>
          </Trackpoint>
          <Trackpoint>
            <Time>2022-07-07T12:45:32.000Z</Time>
            <Position>
              <LatitudeDegrees>43.53280208073556423187255859375</LatitudeDegrees>
              <LongitudeDegrees>-1.492709331214427947998046875</LongitudeDegrees>
            </Position>
            <AltitudeMeters>13</AltitudeMeters>
            <DistanceMeters>NAN</DistanceMeters>
          </Trackpoint>
          <Trackpoint>
            <Time>2022-07-07T12:45:34.000Z</Time>
            <Position>
              <LatitudeDegrees>43.53276436217129230499267578125</LatitudeDegrees>
              <LongitudeDegrees>-1.49272081442177295684814453125</LongitudeDegrees>
            </Position>
            <AltitudeMeters>13.19999980926513671875</AltitudeMeters>
            <DistanceMeters>NAN</DistanceMeters>
          </Trackpoint>
          <Trackpoint>
            <Time>2022-07-07T12:45:36.000Z</Time>
            <Position>
              <LatitudeDegrees>43.532725386321544647216796875</LatitudeDegrees>
              <LongitudeDegrees>-1.49271972477436065673828125</LongitudeDegrees>
            </Position>
            <AltitudeMeters>13.19999980926513671875</AltitudeMeters>
            <DistanceMeters>NAN</DistanceMeters>
          </Trackpoint>
          <Trackpoint>
            <Time>2022-07-07T12:45:39.000Z</Time>
            <Position>
              <LatitudeDegrees>43.53267819620668888092041015625</LatitudeDegrees>
              <LongitudeDegrees>-1.49272500537335872650146484375</LongitudeDegrees>
            </Position>
            <AltitudeMeters>13.3999996185302734375</AltitudeMeters>
            <DistanceMeters>NAN</DistanceMeters>
          </Trackpoint>
          <Trackpoint>
            <Time>2022-07-07T12:45:42.000Z</Time>
            <Position>
              <LatitudeDegrees>43.53268305771052837371826171875</LatitudeDegrees>
              <LongitudeDegrees>-1.4927203953266143798828125</LongitudeDegrees>
            </Position>
            <AltitudeMeters>13.3999996185302734375</AltitudeMeters>
            <DistanceMeters>NAN</DistanceMeters>
          </Trackpoint>
          <Trackpoint>
            <Time>2022-07-07T12:45:43.000Z</Time>
            <Position>
              <LatitudeDegrees>43.53268305771052837371826171875</LatitudeDegrees>
              <LongitudeDegrees>-1.4927203953266143798828125</LongitudeDegrees>
            </Position>
            <AltitudeMeters>13.19999980926513671875</AltitudeMeters>
            <DistanceMeters>NAN</DistanceMeters>
          </Trackpoint>
          <Trackpoint>
            <Time>2022-07-07T12:45:58.000Z</Time>
            <Position>
              <LatitudeDegrees>43.5326226241886615753173828125</LatitudeDegrees>
              <LongitudeDegrees>-1.49271192960441112518310546875</LongitudeDegrees>
            </Position>
            <AltitudeMeters>12.80000019073486328125</AltitudeMeters>
            <DistanceMeters>NAN</DistanceMeters>
          </Trackpoint>
          <Trackpoint>
            <Time>2022-07-07T12:46:00.000Z</Time>
            <Position>
              <LatitudeDegrees>43.532591946423053741455078125</LatitudeDegrees>
              <LongitudeDegrees>-1.49273104034364223480224609375</LongitudeDegrees>
            </Position>
            <AltitudeMeters>13</AltitudeMeters>
            <DistanceMeters>NAN</DistanceMeters>
          </Trackpoint>
          <Trackpoint>
            <Time>2022-07-07T12:46:04.000Z</Time>
            <Position>
              <LatitudeDegrees>43.53256453759968280792236328125</LatitudeDegrees>
              <LongitudeDegrees>-1.492757610976696014404296875</LongitudeDegrees>
            </Position>
            <AltitudeMeters>13.19999980926513671875</AltitudeMeters>
            <DistanceMeters>NAN</DistanceMeters>
          </Trackpoint>
          <Trackpoint>
            <Time>2022-07-07T12:46:05.000Z</Time>
            <Position>
              <LatitudeDegrees>43.53256453759968280792236328125</LatitudeDegrees>
              <LongitudeDegrees>-1.492757610976696014404296875</LongitudeDegrees>
            </Position>
            <AltitudeMeters>13.19999980926513671875</AltitudeMeters>
            <DistanceMeters>NAN</DistanceMeters>
          </Trackpoint>
          <Trackpoint>
            <Time>2022-07-07T12:47:00.000Z</Time>
            <Position>
              <LatitudeDegrees>43.5326055251061916351318359375</LatitudeDegrees>
              <LongitudeDegrees>-1.49270170368254184722900390625</LongitudeDegrees>
            </Position>
            <AltitudeMeters>12.6000003814697265625</AltitudeMeters>
            <DistanceMeters>NAN</DistanceMeters>
          </Trackpoint>
          <Trackpoint>
            <Time>2022-07-07T12:47:05.000Z</Time>
            <Position>
              <LatitudeDegrees>43.5325870849192142486572265625</LatitudeDegrees>
              <LongitudeDegrees>-1.49253599345684051513671875</LongitudeDegrees>
            </Position>
            <AltitudeMeters>12.6000003814697265625</AltitudeMeters>
            <DistanceMeters>NAN</DistanceMeters>
          </Trackpoint>
          <Trackpoint>
            <Time>2022-07-07T12:47:12.000Z</Time>
            <Position>
              <LatitudeDegrees>43.53244920261204242706298828125</LatitudeDegrees>
              <LongitudeDegrees>-1.49239006452262401580810546875</LongitudeDegrees>
            </Position>
            <AltitudeMeters>12.80000019073486328125</AltitudeMeters>
            <DistanceMeters>NAN</DistanceMeters>
          </Trackpoint>
          <Trackpoint>
            <Time>2022-07-07T12:47:20.000Z</Time>
            <Position>
              <LatitudeDegrees>43.53224703110754489898681640625</LatitudeDegrees>
              <LongitudeDegrees>-1.4923229254782199859619140625</LongitudeDegrees>
            </Position>
            <AltitudeMeters>12.6000003814697265625</AltitudeMeters>
            <DistanceMeters>NAN</DistanceMeters>
          </Trackpoint>
          <Trackpoint>
            <Time>2022-07-07T12:47:28.000Z</Time>
            <Position>
              <LatitudeDegrees>43.532036058604717254638671875</LatitudeDegrees>
              <LongitudeDegrees>-1.49228260852396488189697265625</LongitudeDegrees>
            </Position>
            <AltitudeMeters>12.80000019073486328125</AltitudeMeters>
            <DistanceMeters>NAN</DistanceMeters>
          </Trackpoint>
          <Trackpoint>
            <Time>2022-07-07T12:47:34.000Z</Time>
            <Position>
              <LatitudeDegrees>43.53184101171791553497314453125</LatitudeDegrees>
              <LongitudeDegrees>-1.49225930683314800262451171875</LongitudeDegrees>
            </Position>
            <AltitudeMeters>13</AltitudeMeters>
            <DistanceMeters>NAN</DistanceMeters>
          </Trackpoint>
          <Trackpoint>
            <Time>2022-07-07T12:47:37.000Z</Time>
            <Position>
              <LatitudeDegrees>43.53175853379070758819580078125</LatitudeDegrees>
              <LongitudeDegrees>-1.49224522523581981658935546875</LongitudeDegrees>
            </Position>
            <AltitudeMeters>13.19999980926513671875</AltitudeMeters>
            <DistanceMeters>NAN</DistanceMeters>
          </Trackpoint>
          <Trackpoint>
            <Time>2022-07-07T12:47:44.000Z</Time>
            <Position>
              <LatitudeDegrees>43.53160564787685871124267578125</LatitudeDegrees>
              <LongitudeDegrees>-1.4921690337359905242919921875</LongitudeDegrees>
            </Position>
            <AltitudeMeters>14</AltitudeMeters>
            <DistanceMeters>NAN</DistanceMeters>
          </Trackpoint>
          <Trackpoint>
            <Time>2022-07-07T12:47:51.000Z</Time>
            <Position>
              <LatitudeDegrees>43.53151193819940090179443359375</LatitudeDegrees>
              <LongitudeDegrees>-1.4920231886208057403564453125</LongitudeDegrees>
            </Position>
            <AltitudeMeters>14.3999996185302734375</AltitudeMeters>
            <DistanceMeters>NAN</DistanceMeters>
          </Trackpoint>
          <Trackpoint>
            <Time>2022-07-07T12:47:52.000Z</Time>
            <Position>
              <LatitudeDegrees>43.531505651772022247314453125</LatitudeDegrees>
              <LongitudeDegrees>-1.49199946783483028411865234375</LongitudeDegrees>
            </Position>
            <AltitudeMeters>14.3999996185302734375</AltitudeMeters>
            <DistanceMeters>NAN</DistanceMeters>
          </Trackpoint>
          <Trackpoint>
            <Time>2022-07-07T12:47:58.000Z</Time>
            <Position>
              <LatitudeDegrees>43.53146416135132312774658203125</LatitudeDegrees>
              <LongitudeDegrees>-1.49186736904084682464599609375</LongitudeDegrees>
            </Position>
            <AltitudeMeters>15.3999996185302734375</AltitudeMeters>
            <DistanceMeters>NAN</DistanceMeters>
          </Trackpoint>
          <Trackpoint>
            <Time>2022-07-07T12:48:00.000Z</Time>
            <Position>
              <LatitudeDegrees>43.53145292960107326507568359375</LatitudeDegrees>
              <LongitudeDegrees>-1.49181674234569072723388671875</LongitudeDegrees>
            </Position>
            <AltitudeMeters>15.80000019073486328125</AltitudeMeters>
            <DistanceMeters>NAN</DistanceMeters>
          </Trackpoint>
          <Trackpoint>
            <Time>2022-07-07T12:48:02.000Z</Time>
            <Position>
              <LatitudeDegrees>43.531433902680873870849609375</LatitudeDegrees>
              <LongitudeDegrees>-1.49177432991564273834228515625</LongitudeDegrees>
            </Position>
            <AltitudeMeters>16</AltitudeMeters>
            <DistanceMeters>NAN</DistanceMeters>
          </Trackpoint>
          <Trackpoint>
            <Time>2022-07-07T12:48:04.000Z</Time>
            <Position>
              <LatitudeDegrees>43.531418479979038238525390625</LatitudeDegrees>
              <LongitudeDegrees>-1.49172018282115459442138671875</LongitudeDegrees>
            </Position>
            <AltitudeMeters>16.200000762939453125</AltitudeMeters>
            <DistanceMeters>NAN</DistanceMeters>
          </Trackpoint>
          <Trackpoint>
            <Time>2022-07-07T12:48:06.000Z</Time>
            <Position>
              <LatitudeDegrees>43.53139442391693592071533203125</LatitudeDegrees>
              <LongitudeDegrees>-1.4916503615677356719970703125</LongitudeDegrees>
            </Position>
            <AltitudeMeters>15.80000019073486328125</AltitudeMeters>
            <DistanceMeters>NAN</DistanceMeters>
          </Trackpoint>
          <Trackpoint>
            <Time>2022-07-07T12:48:10.000Z</Time>
            <Position>
              <LatitudeDegrees>43.5313294641673564910888671875</LatitudeDegrees>
              <LongitudeDegrees>-1.49147056974470615386962890625</LongitudeDegrees>
            </Position>
            <AltitudeMeters>14.80000019073486328125</AltitudeMeters>
            <DistanceMeters>NAN</DistanceMeters>
          </Trackpoint>
          <Trackpoint>
            <Time>2022-07-07T12:48:11.000Z</Time>
            <Position>
              <LatitudeDegrees>43.53129702620208263397216796875</LatitudeDegrees>
              <LongitudeDegrees>-1.49143368937075138092041015625</LongitudeDegrees>
            </Position>
            <AltitudeMeters>14.3999996185302734375</AltitudeMeters>
            <DistanceMeters>NAN</DistanceMeters>
          </Trackpoint>
          <Trackpoint>
            <Time>2022-07-07T12:48:13.000Z</Time>
            <Position>
              <LatitudeDegrees>43.5312191583216190338134765625</LatitudeDegrees>
              <LongitudeDegrees>-1.49136495776474475860595703125</LongitudeDegrees>
            </Position>
            <AltitudeMeters>13.80000019073486328125</AltitudeMeters>
            <DistanceMeters>NAN</DistanceMeters>
          </Trackpoint>
          <Trackpoint>
            <Time>2022-07-07T12:48:14.000Z</Time>
            <Position>
              <LatitudeDegrees>43.53117180056869983673095703125</LatitudeDegrees>
              <LongitudeDegrees>-1.49134467355906963348388671875</LongitudeDegrees>
            </Position>
            <AltitudeMeters>13.6000003814697265625</AltitudeMeters>
            <DistanceMeters>NAN</DistanceMeters>
          </Trackpoint>
          <Trackpoint>
            <Time>2022-07-07T12:48:15.000Z</Time>
            <Position>
              <LatitudeDegrees>43.53111949749290943145751953125</LatitudeDegrees>
              <LongitudeDegrees>-1.491329334676265716552734375</LongitudeDegrees>
            </Position>
            <AltitudeMeters>13.3999996185302734375</AltitudeMeters>
            <DistanceMeters>NAN</DistanceMeters>
          </Trackpoint>
          <Trackpoint>
            <Time>2022-07-07T12:48:17.000Z</Time>
            <Position>
              <LatitudeDegrees>43.5310223512351512908935546875</LatitudeDegrees>
              <LongitudeDegrees>-1.49131156504154205322265625</LongitudeDegrees>
            </Position>
            <AltitudeMeters>12.80000019073486328125</AltitudeMeters>
            <DistanceMeters>NAN</DistanceMeters>
          </Trackpoint>
          <Trackpoint>
            <Time>2022-07-07T12:48:19.000Z</Time>
            <Position>
              <LatitudeDegrees>43.53093593381345272064208984375</LatitudeDegrees>
              <LongitudeDegrees>-1.49131701327860355377197265625</LongitudeDegrees>
            </Position>
            <AltitudeMeters>12.3999996185302734375</AltitudeMeters>
            <DistanceMeters>NAN</DistanceMeters>
          </Trackpoint>
          <Trackpoint>
            <Time>2022-07-07T12:48:20.000Z</Time>
            <Position>
              <LatitudeDegrees>43.53090056218206882476806640625</LatitudeDegrees>
              <LongitudeDegrees>-1.49132824502885341644287109375</LongitudeDegrees>
            </Position>
            <AltitudeMeters>12.19999980926513671875</AltitudeMeters>
            <DistanceMeters>NAN</DistanceMeters>
          </Trackpoint>
          <Trackpoint>
            <Time>2022-07-07T12:48:23.000Z</Time>
            <Position>
              <LatitudeDegrees>43.53082428686320781707763671875</LatitudeDegrees>
              <LongitudeDegrees>-1.49140586145222187042236328125</LongitudeDegrees>
            </Position>
            <AltitudeMeters>12</AltitudeMeters>
            <DistanceMeters>NAN</DistanceMeters>
          </Trackpoint>
          <Trackpoint>
            <Time>2022-07-07T12:48:27.000Z</Time>
            <Position>
              <LatitudeDegrees>43.53074155747890472412109375</LatitudeDegrees>
              <LongitudeDegrees>-1.49156578816473484039306640625</LongitudeDegrees>
            </Position>
            <AltitudeMeters>11.80000019073486328125</AltitudeMeters>
            <DistanceMeters>NAN</DistanceMeters>
          </Trackpoint>
          <Trackpoint>
            <Time>2022-07-07T12:48:28.000Z</Time>
            <Position>
              <LatitudeDegrees>43.53072035126388072967529296875</LatitudeDegrees>
              <LongitudeDegrees>-1.4916044287383556365966796875</LongitudeDegrees>
            </Position>
            <AltitudeMeters>11.80000019073486328125</AltitudeMeters>
            <DistanceMeters>NAN</DistanceMeters>
          </Trackpoint>
          <Trackpoint>
            <Time>2022-07-07T12:48:35.000Z</Time>
            <Position>
              <LatitudeDegrees>43.53056243620812892913818359375</LatitudeDegrees>
              <LongitudeDegrees>-1.49190240539610385894775390625</LongitudeDegrees>
            </Position>
            <AltitudeMeters>11</AltitudeMeters>
            <DistanceMeters>NAN</DistanceMeters>
          </Trackpoint>
          <Trackpoint>
            <Time>2022-07-07T12:48:37.000Z</Time>
            <Position>
              <LatitudeDegrees>43.53051088750362396240234375</LatitudeDegrees>
              <LongitudeDegrees>-1.49197599850594997406005859375</LongitudeDegrees>
            </Position>
            <AltitudeMeters>10.80000019073486328125</AltitudeMeters>
            <DistanceMeters>NAN</DistanceMeters>
          </Trackpoint>
          <Trackpoint>
            <Time>2022-07-07T12:48:42.000Z</Time>
            <Position>
              <LatitudeDegrees>43.53030930273234844207763671875</LatitudeDegrees>
              <LongitudeDegrees>-1.49210474453866481781005859375</LongitudeDegrees>
            </Position>
            <AltitudeMeters>10</AltitudeMeters>
            <DistanceMeters>NAN</DistanceMeters>
          </Trackpoint>
          <Trackpoint>
            <Time>2022-07-07T12:48:48.000Z</Time>
            <Position>
              <LatitudeDegrees>43.53000252507627010345458984375</LatitudeDegrees>
              <LongitudeDegrees>-1.49221689440310001373291015625</LongitudeDegrees>
            </Position>
            <AltitudeMeters>9.19999980926513671875</AltitudeMeters>
            <DistanceMeters>NAN</DistanceMeters>
          </Trackpoint>
          <Trackpoint>
            <Time>2022-07-07T12:48:49.000Z</Time>
            <Position>
              <LatitudeDegrees>43.52995290420949459075927734375</LatitudeDegrees>
              <LongitudeDegrees>-1.49223064072430133819580078125</LongitudeDegrees>
            </Position>
            <AltitudeMeters>9.19999980926513671875</AltitudeMeters>
            <DistanceMeters>NAN</DistanceMeters>
          </Trackpoint>
          <Trackpoint>
            <Time>2022-07-07T12:48:51.000Z</Time>
            <Position>
              <LatitudeDegrees>43.52985081262886524200439453125</LatitudeDegrees>
              <LongitudeDegrees>-1.49223801679909229278564453125</LongitudeDegrees>
            </Position>
            <AltitudeMeters>9</AltitudeMeters>
            <DistanceMeters>NAN</DistanceMeters>
          </Trackpoint>
          <Trackpoint>
            <Time>2022-07-07T12:48:52.000Z</Time>
            <Position>
              <LatitudeDegrees>43.52980102412402629852294921875</LatitudeDegrees>
              <LongitudeDegrees>-1.49223047308623790740966796875</LongitudeDegrees>
            </Position>
            <AltitudeMeters>9</AltitudeMeters>
            <DistanceMeters>NAN</DistanceMeters>
          </Trackpoint>
          <Trackpoint>
            <Time>2022-07-07T12:48:54.000Z</Time>
            <Position>
              <LatitudeDegrees>43.52970681153237819671630859375</LatitudeDegrees>
              <LongitudeDegrees>-1.4921987056732177734375</LongitudeDegrees>
            </Position>
            <AltitudeMeters>8.80000019073486328125</AltitudeMeters>
            <DistanceMeters>NAN</DistanceMeters>
          </Trackpoint>
          <Trackpoint>
            <Time>2022-07-07T12:48:57.000Z</Time>
            <Position>
              <LatitudeDegrees>43.52956918068230152130126953125</LatitudeDegrees>
              <LongitudeDegrees>-1.492160148918628692626953125</LongitudeDegrees>
            </Position>
            <AltitudeMeters>8.80000019073486328125</AltitudeMeters>
            <DistanceMeters>NAN</DistanceMeters>
          </Trackpoint>
          <Trackpoint>
            <Time>2022-07-07T12:48:59.000Z</Time>
            <Position>
              <LatitudeDegrees>43.52948083542287349700927734375</LatitudeDegrees>
              <LongitudeDegrees>-1.49213324300944805145263671875</LongitudeDegrees>
            </Position>
            <AltitudeMeters>8.80000019073486328125</AltitudeMeters>
            <DistanceMeters>NAN</DistanceMeters>
          </Trackpoint>
          <Trackpoint>
            <Time>2022-07-07T12:49:00.000Z</Time>
            <Position>
              <LatitudeDegrees>43.529439009726047515869140625</LatitudeDegrees>
              <LongitudeDegrees>-1.49211932905018329620361328125</LongitudeDegrees>
            </Position>
            <AltitudeMeters>8.80000019073486328125</AltitudeMeters>
            <DistanceMeters>NAN</DistanceMeters>
          </Trackpoint>
          <Trackpoint>
            <Time>2022-07-07T12:49:02.000Z</Time>
            <Position>
              <LatitudeDegrees>43.52935410104691982269287109375</LatitudeDegrees>
              <LongitudeDegrees>-1.49209837429225444793701171875</LongitudeDegrees>
            </Position>
            <AltitudeMeters>8.80000019073486328125</AltitudeMeters>
            <DistanceMeters>NAN</DistanceMeters>
          </Trackpoint>
          <Trackpoint>
            <Time>2022-07-07T12:49:10.000Z</Time>
            <Position>
              <LatitudeDegrees>43.5290287993848323822021484375</LatitudeDegrees>
              <LongitudeDegrees>-1.49197197519242763519287109375</LongitudeDegrees>
            </Position>
            <AltitudeMeters>9</AltitudeMeters>
            <DistanceMeters>NAN</DistanceMeters>
          </Trackpoint>
          <Trackpoint>
            <Time>2022-07-07T12:49:14.000Z</Time>
            <Position>
              <LatitudeDegrees>43.52886945940554141998291015625</LatitudeDegrees>
              <LongitudeDegrees>-1.491943895816802978515625</LongitudeDegrees>
            </Position>
            <AltitudeMeters>8.80000019073486328125</AltitudeMeters>
            <DistanceMeters>NAN</DistanceMeters>
          </Trackpoint>
          <Trackpoint>
            <Time>2022-07-07T12:49:16.000Z</Time>
            <Position>
              <LatitudeDegrees>43.52878756821155548095703125</LatitudeDegrees>
              <LongitudeDegrees>-1.49195319972932338714599609375</LongitudeDegrees>
            </Position>
            <AltitudeMeters>8.6000003814697265625</AltitudeMeters>
            <DistanceMeters>NAN</DistanceMeters>
          </Trackpoint>
          <Trackpoint>
            <Time>2022-07-07T12:49:17.000Z</Time>
            <Position>
              <LatitudeDegrees>43.528746329247951507568359375</LatitudeDegrees>
              <LongitudeDegrees>-1.4919608272612094879150390625</LongitudeDegrees>
            </Position>
            <AltitudeMeters>8.6000003814697265625</AltitudeMeters>
            <DistanceMeters>NAN</DistanceMeters>
          </Trackpoint>
          <Trackpoint>
            <Time>2022-07-07T12:49:20.000Z</Time>
            <Position>
              <LatitudeDegrees>43.52861833758652210235595703125</LatitudeDegrees>
              <LongitudeDegrees>-1.49197448976337909698486328125</LongitudeDegrees>
            </Position>
            <AltitudeMeters>8.6000003814697265625</AltitudeMeters>
            <DistanceMeters>NAN</DistanceMeters>
          </Trackpoint>
          <Trackpoint>
            <Time>2022-07-07T12:49:22.000Z</Time>
            <Position>
              <LatitudeDegrees>43.528523705899715423583984375</LatitudeDegrees>
              <LongitudeDegrees>-1.49198756553232669830322265625</LongitudeDegrees>
            </Position>
            <AltitudeMeters>8.80000019073486328125</AltitudeMeters>
            <DistanceMeters>NAN</DistanceMeters>
          </Trackpoint>
          <Trackpoint>
            <Time>2022-07-07T12:49:24.000Z</Time>
            <Position>
              <LatitudeDegrees>43.52843678556382656097412109375</LatitudeDegrees>
              <LongitudeDegrees>-1.49198882281780242919921875</LongitudeDegrees>
            </Position>
            <AltitudeMeters>9</AltitudeMeters>
            <DistanceMeters>NAN</DistanceMeters>
          </Trackpoint>
          <Trackpoint>
            <Time>2022-07-07T12:49:25.000Z</Time>
            <Position>
              <LatitudeDegrees>43.52839336730539798736572265625</LatitudeDegrees>
              <LongitudeDegrees>-1.491992175579071044921875</LongitudeDegrees>
            </Position>
            <AltitudeMeters>9.19999980926513671875</AltitudeMeters>
            <DistanceMeters>NAN</DistanceMeters>
          </Trackpoint>
          <Trackpoint>
            <Time>2022-07-07T12:49:26.000Z</Time>
            <Position>
              <LatitudeDegrees>43.5283515416085720062255859375</LatitudeDegrees>
              <LongitudeDegrees>-1.49199712090194225311279296875</LongitudeDegrees>
            </Position>
            <AltitudeMeters>9.19999980926513671875</AltitudeMeters>
            <DistanceMeters>NAN</DistanceMeters>
          </Trackpoint>
          <Trackpoint>
            <Time>2022-07-07T12:49:27.000Z</Time>
            <Position>
              <LatitudeDegrees>43.52831147611141204833984375</LatitudeDegrees>
              <LongitudeDegrees>-1.4920057542622089385986328125</LongitudeDegrees>
            </Position>
            <AltitudeMeters>9.19999980926513671875</AltitudeMeters>
            <DistanceMeters>NAN</DistanceMeters>
          </Trackpoint>
          <Trackpoint>
            <Time>2022-07-07T12:49:33.000Z</Time>
            <Position>
              <LatitudeDegrees>43.52811634540557861328125</LatitudeDegrees>
              <LongitudeDegrees>-1.49205680005252361297607421875</LongitudeDegrees>
            </Position>
            <AltitudeMeters>8.80000019073486328125</AltitudeMeters>
            <DistanceMeters>NAN</DistanceMeters>
          </Trackpoint>
          <Trackpoint>
            <Time>2022-07-07T12:49:36.000Z</Time>
            <Position>
              <LatitudeDegrees>43.52807150222361087799072265625</LatitudeDegrees>
              <LongitudeDegrees>-1.49207867681980133056640625</LongitudeDegrees>
            </Position>
            <AltitudeMeters>8.6000003814697265625</AltitudeMeters>
            <DistanceMeters>NAN</DistanceMeters>
          </Trackpoint>
          <Trackpoint>
            <Time>2022-07-07T12:49:37.000Z</Time>
            <Position>
              <LatitudeDegrees>43.52805197238922119140625</LatitudeDegrees>
              <LongitudeDegrees>-1.4920835383236408233642578125</LongitudeDegrees>
            </Position>
            <AltitudeMeters>8.6000003814697265625</AltitudeMeters>
            <DistanceMeters>NAN</DistanceMeters>
          </Trackpoint>
          <Trackpoint>
            <Time>2022-07-07T12:49:43.000Z</Time>
            <Position>
              <LatitudeDegrees>43.5278784669935703277587890625</LatitudeDegrees>
              <LongitudeDegrees>-1.49212704040110111236572265625</LongitudeDegrees>
            </Position>
            <AltitudeMeters>8.80000019073486328125</AltitudeMeters>
            <DistanceMeters>NAN</DistanceMeters>
          </Trackpoint>
          <Trackpoint>
            <Time>2022-07-07T12:49:50.000Z</Time>
            <Position>
              <LatitudeDegrees>43.52763958275318145751953125</LatitudeDegrees>
              <LongitudeDegrees>-1.4921841211616992950439453125</LongitudeDegrees>
            </Position>
            <AltitudeMeters>8.6000003814697265625</AltitudeMeters>
            <DistanceMeters>NAN</DistanceMeters>
          </Trackpoint>
          <Trackpoint>
            <Time>2022-07-07T12:49:57.000Z</Time>
            <Position>
              <LatitudeDegrees>43.52741352282464504241943359375</LatitudeDegrees>
              <LongitudeDegrees>-1.49223181419074535369873046875</LongitudeDegrees>
            </Position>
            <AltitudeMeters>8.80000019073486328125</AltitudeMeters>
            <DistanceMeters>NAN</DistanceMeters>
          </Trackpoint>
          <Trackpoint>
            <Time>2022-07-07T12:50:02.000Z</Time>
            <Position>
              <LatitudeDegrees>43.5272937454283237457275390625</LatitudeDegrees>
              <LongitudeDegrees>-1.49224941618740558624267578125</LongitudeDegrees>
            </Position>
            <AltitudeMeters>8.19999980926513671875</AltitudeMeters>
            <DistanceMeters>NAN</DistanceMeters>
          </Trackpoint>
          <Trackpoint>
            <Time>2022-07-07T12:50:07.000Z</Time>
            <Position>
              <LatitudeDegrees>43.52713373489677906036376953125</LatitudeDegrees>
              <LongitudeDegrees>-1.49218068458139896392822265625</LongitudeDegrees>
            </Position>
            <AltitudeMeters>8</AltitudeMeters>
            <DistanceMeters>NAN</DistanceMeters>
          </Trackpoint>
          <Trackpoint>
            <Time>2022-07-07T12:50:09.000Z</Time>
            <Position>
              <LatitudeDegrees>43.5270667634904384613037109375</LatitudeDegrees>
              <LongitudeDegrees>-1.49213491939008235931396484375</LongitudeDegrees>
            </Position>
            <AltitudeMeters>7.80000019073486328125</AltitudeMeters>
            <DistanceMeters>NAN</DistanceMeters>
          </Trackpoint>
          <Trackpoint>
            <Time>2022-07-07T12:50:12.000Z</Time>
            <Position>
              <LatitudeDegrees>43.5269589722156524658203125</LatitudeDegrees>
              <LongitudeDegrees>-1.4921080134809017181396484375</LongitudeDegrees>
            </Position>
            <AltitudeMeters>7.599999904632568359375</AltitudeMeters>
            <DistanceMeters>NAN</DistanceMeters>
          </Trackpoint>
          <Trackpoint>
            <Time>2022-07-07T12:50:15.000Z</Time>
            <Position>
              <LatitudeDegrees>43.5268355906009674072265625</LatitudeDegrees>
              <LongitudeDegrees>-1.492072977125644683837890625</LongitudeDegrees>
            </Position>
            <AltitudeMeters>7.599999904632568359375</AltitudeMeters>
            <DistanceMeters>NAN</DistanceMeters>
          </Trackpoint>
          <Trackpoint>
            <Time>2022-07-07T12:50:19.000Z</Time>
            <Position>
              <LatitudeDegrees>43.5266966186463832855224609375</LatitudeDegrees>
              <LongitudeDegrees>-1.49198253639042377471923828125</LongitudeDegrees>
            </Position>
            <AltitudeMeters>7.19999980926513671875</AltitudeMeters>
            <DistanceMeters>NAN</DistanceMeters>
          </Trackpoint>
          <Trackpoint>
            <Time>2022-07-07T12:50:26.000Z</Time>
            <Position>
              <LatitudeDegrees>43.52648061700165271759033203125</LatitudeDegrees>
              <LongitudeDegrees>-1.49171146564185619354248046875</LongitudeDegrees>
            </Position>
            <AltitudeMeters>7.19999980926513671875</AltitudeMeters>
            <DistanceMeters>NAN</DistanceMeters>
          </Trackpoint>
          <Trackpoint>
            <Time>2022-07-07T12:50:28.000Z</Time>
            <Position>
              <LatitudeDegrees>43.52642160840332508087158203125</LatitudeDegrees>
              <LongitudeDegrees>-1.49161708541214466094970703125</LongitudeDegrees>
            </Position>
            <AltitudeMeters>7.19999980926513671875</AltitudeMeters>
            <DistanceMeters>NAN</DistanceMeters>
          </Trackpoint>
          <Trackpoint>
            <Time>2022-07-07T12:50:33.000Z</Time>
            <Position>
              <LatitudeDegrees>43.526296801865100860595703125</LatitudeDegrees>
              <LongitudeDegrees>-1.4914139918982982635498046875</LongitudeDegrees>
            </Position>
            <AltitudeMeters>7</AltitudeMeters>
            <DistanceMeters>NAN</DistanceMeters>
          </Trackpoint>
          <Trackpoint>
            <Time>2022-07-07T12:50:38.000Z</Time>
            <Position>
              <LatitudeDegrees>43.52616478689014911651611328125</LatitudeDegrees>
              <LongitudeDegrees>-1.49123000912368297576904296875</LongitudeDegrees>
            </Position>
            <AltitudeMeters>7.19999980926513671875</AltitudeMeters>
            <DistanceMeters>NAN</DistanceMeters>
          </Trackpoint>
          <Trackpoint>
            <Time>2022-07-07T12:50:39.000Z</Time>
            <Position>
              <LatitudeDegrees>43.5261269845068454742431640625</LatitudeDegrees>
              <LongitudeDegrees>-1.49119949899613857269287109375</LongitudeDegrees>
            </Position>
            <AltitudeMeters>7.400000095367431640625</AltitudeMeters>
            <DistanceMeters>NAN</DistanceMeters>
          </Trackpoint>
          <Trackpoint>
            <Time>2022-07-07T12:50:44.000Z</Time>
            <Position>
              <LatitudeDegrees>43.52595490403473377227783203125</LatitudeDegrees>
              <LongitudeDegrees>-1.49116965942084789276123046875</LongitudeDegrees>
            </Position>
            <AltitudeMeters>7.599999904632568359375</AltitudeMeters>
            <DistanceMeters>NAN</DistanceMeters>
          </Trackpoint>
          <Trackpoint>
            <Time>2022-07-07T12:50:50.000Z</Time>
            <Position>
              <LatitudeDegrees>43.52576673030853271484375</LatitudeDegrees>
              <LongitudeDegrees>-1.49119757115840911865234375</LongitudeDegrees>
            </Position>
            <AltitudeMeters>7.599999904632568359375</AltitudeMeters>
            <DistanceMeters>NAN</DistanceMeters>
          </Trackpoint>
          <Trackpoint>
            <Time>2022-07-07T12:50:57.000Z</Time>
            <Position>
              <LatitudeDegrees>43.5255372337996959686279296875</LatitudeDegrees>
              <LongitudeDegrees>-1.4912627823650836944580078125</LongitudeDegrees>
            </Position>
            <AltitudeMeters>7</AltitudeMeters>
            <DistanceMeters>NAN</DistanceMeters>
          </Trackpoint>
          <Trackpoint>
            <Time>2022-07-07T12:50:59.000Z</Time>
            <Position>
              <LatitudeDegrees>43.52545492351055145263671875</LatitudeDegrees>
              <LongitudeDegrees>-1.4912929572165012359619140625</LongitudeDegrees>
            </Position>
            <AltitudeMeters>6.80000019073486328125</AltitudeMeters>
            <DistanceMeters>NAN</DistanceMeters>
          </Trackpoint>
          <Trackpoint>
            <Time>2022-07-07T12:51:05.000Z</Time>
            <Position>
              <LatitudeDegrees>43.52525082416832447052001953125</LatitudeDegrees>
              <LongitudeDegrees>-1.4914337731897830963134765625</LongitudeDegrees>
            </Position>
            <AltitudeMeters>7</AltitudeMeters>
            <DistanceMeters>NAN</DistanceMeters>
          </Trackpoint>
          <Trackpoint>
            <Time>2022-07-07T12:51:12.000Z</Time>
            <Position>
              <LatitudeDegrees>43.52498712949454784393310546875</LatitudeDegrees>
              <LongitudeDegrees>-1.49155153892934322357177734375</LongitudeDegrees>
            </Position>
            <AltitudeMeters>7</AltitudeMeters>
            <DistanceMeters>NAN</DistanceMeters>
          </Trackpoint>
          <Trackpoint>
            <Time>2022-07-07T12:51:17.000Z</Time>
            <Position>
              <LatitudeDegrees>43.52481161244213581085205078125</LatitudeDegrees>
              <LongitudeDegrees>-1.49149990640580654144287109375</LongitudeDegrees>
            </Position>
            <AltitudeMeters>6.80000019073486328125</AltitudeMeters>
            <DistanceMeters>NAN</DistanceMeters>
          </Trackpoint>
          <Trackpoint>
            <Time>2022-07-07T12:51:24.000Z</Time>
            <Position>
              <LatitudeDegrees>43.52456669323146343231201171875</LatitudeDegrees>
              <LongitudeDegrees>-1.49130796082317829132080078125</LongitudeDegrees>
            </Position>
            <AltitudeMeters>7</AltitudeMeters>
            <DistanceMeters>NAN</DistanceMeters>
          </Trackpoint>
          <Trackpoint>
            <Time>2022-07-07T12:51:25.000Z</Time>
            <Position>
              <LatitudeDegrees>43.52452629245817661285400390625</LatitudeDegrees>
              <LongitudeDegrees>-1.49129102937877178192138671875</LongitudeDegrees>
            </Position>
            <AltitudeMeters>7</AltitudeMeters>
            <DistanceMeters>NAN</DistanceMeters>
          </Trackpoint>
          <Trackpoint>
            <Time>2022-07-07T12:51:34.000Z</Time>
            <Position>
              <LatitudeDegrees>43.52421616204082965850830078125</LatitudeDegrees>
              <LongitudeDegrees>-1.49117887951433658599853515625</LongitudeDegrees>
            </Position>
            <AltitudeMeters>7.599999904632568359375</AltitudeMeters>
            <DistanceMeters>NAN</DistanceMeters>
          </Trackpoint>
          <Trackpoint>
            <Time>2022-07-07T12:51:41.000Z</Time>
            <Position>
              <LatitudeDegrees>43.5240063630044460296630859375</LatitudeDegrees>
              <LongitudeDegrees>-1.4910592697560787200927734375</LongitudeDegrees>
            </Position>
            <AltitudeMeters>7.400000095367431640625</AltitudeMeters>
            <DistanceMeters>NAN</DistanceMeters>
          </Trackpoint>
          <Trackpoint>
            <Time>2022-07-07T12:51:46.000Z</Time>
            <Position>
              <LatitudeDegrees>43.52388993836939334869384765625</LatitudeDegrees>
              <LongitudeDegrees>-1.490871347486972808837890625</LongitudeDegrees>
            </Position>
            <AltitudeMeters>7.400000095367431640625</AltitudeMeters>
            <DistanceMeters>NAN</DistanceMeters>
          </Trackpoint>
          <Trackpoint>
            <Time>2022-07-07T12:51:54.000Z</Time>
            <Position>
              <LatitudeDegrees>43.523736298084259033203125</LatitudeDegrees>
              <LongitudeDegrees>-1.49055610410869121551513671875</LongitudeDegrees>
            </Position>
            <AltitudeMeters>7.400000095367431640625</AltitudeMeters>
            <DistanceMeters>NAN</DistanceMeters>
          </Trackpoint>
          <Trackpoint>
            <Time>2022-07-07T12:52:01.000Z</Time>
            <Position>
              <LatitudeDegrees>43.5236023552715778350830078125</LatitudeDegrees>
              <LongitudeDegrees>-1.49034555070102214813232421875</LongitudeDegrees>
            </Position>
            <AltitudeMeters>7.400000095367431640625</AltitudeMeters>
            <DistanceMeters>NAN</DistanceMeters>
          </Trackpoint>
          <Trackpoint>
            <Time>2022-07-07T12:52:09.000Z</Time>
            <Position>
              <LatitudeDegrees>43.52348576299846172332763671875</LatitudeDegrees>
              <LongitudeDegrees>-1.4901406131684780120849609375</LongitudeDegrees>
            </Position>
            <AltitudeMeters>7.400000095367431640625</AltitudeMeters>
            <DistanceMeters>NAN</DistanceMeters>
          </Trackpoint>
          <Trackpoint>
            <Time>2022-07-07T12:52:14.000Z</Time>
            <Position>
              <LatitudeDegrees>43.52335265837609767913818359375</LatitudeDegrees>
              <LongitudeDegrees>-1.48999200202524662017822265625</LongitudeDegrees>
            </Position>
            <AltitudeMeters>7.19999980926513671875</AltitudeMeters>
            <DistanceMeters>NAN</DistanceMeters>
          </Trackpoint>
          <Trackpoint>
            <Time>2022-07-07T12:52:18.000Z</Time>
            <Position>
              <LatitudeDegrees>43.52323078550398349761962890625</LatitudeDegrees>
              <LongitudeDegrees>-1.48987364955246448516845703125</LongitudeDegrees>
            </Position>
            <AltitudeMeters>7.19999980926513671875</AltitudeMeters>
            <DistanceMeters>NAN</DistanceMeters>
          </Trackpoint>
          <Trackpoint>
            <Time>2022-07-07T12:52:21.000Z</Time>
            <Position>
              <LatitudeDegrees>43.5231410153210163116455078125</LatitudeDegrees>
              <LongitudeDegrees>-1.48978044278919696807861328125</LongitudeDegrees>
            </Position>
            <AltitudeMeters>7</AltitudeMeters>
            <DistanceMeters>NAN</DistanceMeters>
          </Trackpoint>
          <Trackpoint>
            <Time>2022-07-07T12:52:27.000Z</Time>
            <Position>
              <LatitudeDegrees>43.522964157164096832275390625</LatitudeDegrees>
              <LongitudeDegrees>-1.4896001480519771575927734375</LongitudeDegrees>
            </Position>
            <AltitudeMeters>6.80000019073486328125</AltitudeMeters>
            <DistanceMeters>NAN</DistanceMeters>
          </Trackpoint>
          <Trackpoint>
            <Time>2022-07-07T12:52:29.000Z</Time>
            <Position>
              <LatitudeDegrees>43.52290757931768894195556640625</LatitudeDegrees>
              <LongitudeDegrees>-1.48954574950039386749267578125</LongitudeDegrees>
            </Position>
            <AltitudeMeters>6.80000019073486328125</AltitudeMeters>
            <DistanceMeters>NAN</DistanceMeters>
          </Trackpoint>
          <Trackpoint>
            <Time>2022-07-07T12:52:34.000Z</Time>
            <Position>
              <LatitudeDegrees>43.522761650383472442626953125</LatitudeDegrees>
              <LongitudeDegrees>-1.48948506452143192291259765625</LongitudeDegrees>
            </Position>
            <AltitudeMeters>6.80000019073486328125</AltitudeMeters>
            <DistanceMeters>NAN</DistanceMeters>
          </Trackpoint>
          <Trackpoint>
            <Time>2022-07-07T12:52:39.000Z</Time>
            <Position>
              <LatitudeDegrees>43.52262946777045726776123046875</LatitudeDegrees>
              <LongitudeDegrees>-1.48944248445332050323486328125</LongitudeDegrees>
            </Position>
            <AltitudeMeters>6.80000019073486328125</AltitudeMeters>
            <DistanceMeters>NAN</DistanceMeters>
          </Trackpoint>
          <Trackpoint>
            <Time>2022-07-07T12:52:45.000Z</Time>
            <Position>
              <LatitudeDegrees>43.52250608615577220916748046875</LatitudeDegrees>
              <LongitudeDegrees>-1.48930988274514675140380859375</LongitudeDegrees>
            </Position>
            <AltitudeMeters>7</AltitudeMeters>
            <DistanceMeters>NAN</DistanceMeters>
          </Trackpoint>
          <Trackpoint>
            <Time>2022-07-07T12:52:49.000Z</Time>
            <Position>
              <LatitudeDegrees>43.52243006229400634765625</LatitudeDegrees>
              <LongitudeDegrees>-1.48925104178488254547119140625</LongitudeDegrees>
            </Position>
            <AltitudeMeters>6.80000019073486328125</AltitudeMeters>
            <DistanceMeters>NAN</DistanceMeters>
          </Trackpoint>
          <Trackpoint>
            <Time>2022-07-07T12:52:53.000Z</Time>
            <Position>
              <LatitudeDegrees>43.52233953773975372314453125</LatitudeDegrees>
              <LongitudeDegrees>-1.48918700404465198516845703125</LongitudeDegrees>
            </Position>
            <AltitudeMeters>7</AltitudeMeters>
            <DistanceMeters>NAN</DistanceMeters>
          </Trackpoint>
          <Trackpoint>
            <Time>2022-07-07T12:52:59.000Z</Time>
            <Position>
              <LatitudeDegrees>43.5222112946212291717529296875</LatitudeDegrees>
              <LongitudeDegrees>-1.48912346921861171722412109375</LongitudeDegrees>
            </Position>
            <AltitudeMeters>6.599999904632568359375</AltitudeMeters>
            <DistanceMeters>NAN</DistanceMeters>
          </Trackpoint>
          <Trackpoint>
            <Time>2022-07-07T12:53:00.000Z</Time>
            <Position>
              <LatitudeDegrees>43.52220810949802398681640625</LatitudeDegrees>
              <LongitudeDegrees>-1.48912154138088226318359375</LongitudeDegrees>
            </Position>
            <AltitudeMeters>6.599999904632568359375</AltitudeMeters>
            <DistanceMeters>NAN</DistanceMeters>
          </Trackpoint>
          <Trackpoint>
            <Time>2022-07-07T12:53:02.000Z</Time>
            <Position>
              <LatitudeDegrees>43.52220810949802398681640625</LatitudeDegrees>
              <LongitudeDegrees>-1.48912154138088226318359375</LongitudeDegrees>
            </Position>
            <AltitudeMeters>6.599999904632568359375</AltitudeMeters>
            <DistanceMeters>NAN</DistanceMeters>
          </Trackpoint>
          <Trackpoint>
            <Time>2022-07-07T12:54:59.000Z</Time>
            <Position>
              <LatitudeDegrees>43.5221854783594608306884765625</LatitudeDegrees>
              <LongitudeDegrees>-1.4890751056373119354248046875</LongitudeDegrees>
            </Position>
            <AltitudeMeters>6.400000095367431640625</AltitudeMeters>
            <DistanceMeters>NAN</DistanceMeters>
          </Trackpoint>
          <Trackpoint>
            <Time>2022-07-07T12:55:00.000Z</Time>
            <Position>
              <LatitudeDegrees>43.522164523601531982421875</LatitudeDegrees>
              <LongitudeDegrees>-1.489052474498748779296875</LongitudeDegrees>
            </Position>
            <AltitudeMeters>6.400000095367431640625</AltitudeMeters>
            <DistanceMeters>NAN</DistanceMeters>
          </Trackpoint>
          <Trackpoint>
            <Time>2022-07-07T12:55:01.000Z</Time>
            <Position>
              <LatitudeDegrees>43.522137701511383056640625</LatitudeDegrees>
              <LongitudeDegrees>-1.48903126828372478485107421875</LongitudeDegrees>
            </Position>
            <AltitudeMeters>6.400000095367431640625</AltitudeMeters>
            <DistanceMeters>NAN</DistanceMeters>
          </Trackpoint>
          <Trackpoint>
            <Time>2022-07-07T12:55:08.000Z</Time>
            <Position>
              <LatitudeDegrees>43.52194131352007389068603515625</LatitudeDegrees>
              <LongitudeDegrees>-1.4888216368854045867919921875</LongitudeDegrees>
            </Position>
            <AltitudeMeters>6.80000019073486328125</AltitudeMeters>
            <DistanceMeters>NAN</DistanceMeters>
          </Trackpoint>
          <Trackpoint>
            <Time>2022-07-07T12:55:10.000Z</Time>
            <Position>
              <LatitudeDegrees>43.52188683114945888519287109375</LatitudeDegrees>
              <LongitudeDegrees>-1.4887515641748905181884765625</LongitudeDegrees>
            </Position>
            <AltitudeMeters>6.80000019073486328125</AltitudeMeters>
            <DistanceMeters>NAN</DistanceMeters>
          </Trackpoint>
          <Trackpoint>
            <Time>2022-07-07T12:55:15.000Z</Time>
            <Position>
              <LatitudeDegrees>43.52177300490438938140869140625</LatitudeDegrees>
              <LongitudeDegrees>-1.488495580852031707763671875</LongitudeDegrees>
            </Position>
            <AltitudeMeters>6.80000019073486328125</AltitudeMeters>
            <DistanceMeters>NAN</DistanceMeters>
          </Trackpoint>
          <Trackpoint>
            <Time>2022-07-07T12:55:21.000Z</Time>
            <Position>
              <LatitudeDegrees>43.52161408402025699615478515625</LatitudeDegrees>
              <LongitudeDegrees>-1.4881601370871067047119140625</LongitudeDegrees>
            </Position>
            <AltitudeMeters>5.80000019073486328125</AltitudeMeters>
            <DistanceMeters>NAN</DistanceMeters>
          </Trackpoint>
          <Trackpoint>
            <Time>2022-07-07T12:55:27.000Z</Time>
            <Position>
              <LatitudeDegrees>43.52145365439355373382568359375</LatitudeDegrees>
              <LongitudeDegrees>-1.487817652523517608642578125</LongitudeDegrees>
            </Position>
            <AltitudeMeters>5.80000019073486328125</AltitudeMeters>
            <DistanceMeters>NAN</DistanceMeters>
          </Trackpoint>
          <Trackpoint>
            <Time>2022-07-07T12:55:28.000Z</Time>
            <Position>
              <LatitudeDegrees>43.5214193724095821380615234375</LatitudeDegrees>
              <LongitudeDegrees>-1.48776744492352008819580078125</LongitudeDegrees>
            </Position>
            <AltitudeMeters>5.80000019073486328125</AltitudeMeters>
            <DistanceMeters>NAN</DistanceMeters>
          </Trackpoint>
          <Trackpoint>
            <Time>2022-07-07T12:55:31.000Z</Time>
            <Position>
              <LatitudeDegrees>43.52130361832678318023681640625</LatitudeDegrees>
              <LongitudeDegrees>-1.48763635195791721343994140625</LongitudeDegrees>
            </Position>
            <AltitudeMeters>6</AltitudeMeters>
            <DistanceMeters>NAN</DistanceMeters>
          </Trackpoint>
          <Trackpoint>
            <Time>2022-07-07T12:55:34.000Z</Time>
            <Position>
              <LatitudeDegrees>43.52117185480892658233642578125</LatitudeDegrees>
              <LongitudeDegrees>-1.4875475876033306121826171875</LongitudeDegrees>
            </Position>
            <AltitudeMeters>6.19999980926513671875</AltitudeMeters>
            <DistanceMeters>NAN</DistanceMeters>
          </Trackpoint>
          <Trackpoint>
            <Time>2022-07-07T12:55:37.000Z</Time>
            <Position>
              <LatitudeDegrees>43.5210428573191165924072265625</LatitudeDegrees>
              <LongitudeDegrees>-1.48749486543238162994384765625</LongitudeDegrees>
            </Position>
            <AltitudeMeters>6.19999980926513671875</AltitudeMeters>
            <DistanceMeters>NAN</DistanceMeters>
          </Trackpoint>
          <Trackpoint>
            <Time>2022-07-07T12:55:39.000Z</Time>
            <Position>
              <LatitudeDegrees>43.5209548473358154296875</LatitudeDegrees>
              <LongitudeDegrees>-1.4874627627432346343994140625</LongitudeDegrees>
            </Position>
            <AltitudeMeters>6.19999980926513671875</AltitudeMeters>
            <DistanceMeters>NAN</DistanceMeters>
          </Trackpoint>
          <Trackpoint>
            <Time>2022-07-07T12:55:41.000Z</Time>
            <Position>
              <LatitudeDegrees>43.52086675353348255157470703125</LatitudeDegrees>
              <LongitudeDegrees>-1.4874262176454067230224609375</LongitudeDegrees>
            </Position>
            <AltitudeMeters>6.19999980926513671875</AltitudeMeters>
            <DistanceMeters>NAN</DistanceMeters>
          </Trackpoint>
          <Trackpoint>
            <Time>2022-07-07T12:55:43.000Z</Time>
            <Position>
              <LatitudeDegrees>43.52077757008373737335205078125</LatitudeDegrees>
              <LongitudeDegrees>-1.48738740943372249603271484375</LongitudeDegrees>
            </Position>
            <AltitudeMeters>6.19999980926513671875</AltitudeMeters>
            <DistanceMeters>NAN</DistanceMeters>
          </Trackpoint>
          <Trackpoint>
            <Time>2022-07-07T12:55:47.000Z</Time>
            <Position>
              <LatitudeDegrees>43.52062602527439594268798828125</LatitudeDegrees>
              <LongitudeDegrees>-1.48726872168481349945068359375</LongitudeDegrees>
            </Position>
            <AltitudeMeters>6.19999980926513671875</AltitudeMeters>
            <DistanceMeters>NAN</DistanceMeters>
          </Trackpoint>
          <Trackpoint>
            <Time>2022-07-07T12:55:51.000Z</Time>
            <Position>
              <LatitudeDegrees>43.52045805193483829498291015625</LatitudeDegrees>
              <LongitudeDegrees>-1.48715321905910968780517578125</LongitudeDegrees>
            </Position>
            <AltitudeMeters>6.19999980926513671875</AltitudeMeters>
            <DistanceMeters>NAN</DistanceMeters>
          </Trackpoint>
          <Trackpoint>
            <Time>2022-07-07T12:55:54.000Z</Time>
            <Position>
              <LatitudeDegrees>43.52034665644168853759765625</LatitudeDegrees>
              <LongitudeDegrees>-1.487070657312870025634765625</LongitudeDegrees>
            </Position>
            <AltitudeMeters>6.400000095367431640625</AltitudeMeters>
            <DistanceMeters>NAN</DistanceMeters>
          </Trackpoint>
          <Trackpoint>
            <Time>2022-07-07T12:55:55.000Z</Time>
            <Position>
              <LatitudeDegrees>43.5203119553625583648681640625</LatitudeDegrees>
              <LongitudeDegrees>-1.48704207502305507659912109375</LongitudeDegrees>
            </Position>
            <AltitudeMeters>6.400000095367431640625</AltitudeMeters>
            <DistanceMeters>NAN</DistanceMeters>
          </Trackpoint>
          <Trackpoint>
            <Time>2022-07-07T12:56:01.000Z</Time>
            <Position>
              <LatitudeDegrees>43.5200759209692478179931640625</LatitudeDegrees>
              <LongitudeDegrees>-1.48690595291554927825927734375</LongitudeDegrees>
            </Position>
            <AltitudeMeters>6.599999904632568359375</AltitudeMeters>
            <DistanceMeters>NAN</DistanceMeters>
          </Trackpoint>
          <Trackpoint>
            <Time>2022-07-07T12:56:07.000Z</Time>
            <Position>
              <LatitudeDegrees>43.51984650827944278717041015625</LatitudeDegrees>
              <LongitudeDegrees>-1.48676312528550624847412109375</LongitudeDegrees>
            </Position>
            <AltitudeMeters>6.599999904632568359375</AltitudeMeters>
            <DistanceMeters>NAN</DistanceMeters>
          </Trackpoint>
          <Trackpoint>
            <Time>2022-07-07T12:56:08.000Z</Time>
            <Position>
              <LatitudeDegrees>43.51980476640164852142333984375</LatitudeDegrees>
              <LongitudeDegrees>-1.48673973977565765380859375</LongitudeDegrees>
            </Position>
            <AltitudeMeters>6.599999904632568359375</AltitudeMeters>
            <DistanceMeters>NAN</DistanceMeters>
          </Trackpoint>
          <Trackpoint>
            <Time>2022-07-07T12:56:11.000Z</Time>
            <Position>
              <LatitudeDegrees>43.519681803882122039794921875</LatitudeDegrees>
              <LongitudeDegrees>-1.4866701699793338775634765625</LongitudeDegrees>
            </Position>
            <AltitudeMeters>6.599999904632568359375</AltitudeMeters>
            <DistanceMeters>NAN</DistanceMeters>
          </Trackpoint>
          <Trackpoint>
            <Time>2022-07-07T12:56:14.000Z</Time>
            <Position>
              <LatitudeDegrees>43.51955213584005832672119140625</LatitudeDegrees>
              <LongitudeDegrees>-1.48659733124077320098876953125</LongitudeDegrees>
            </Position>
            <AltitudeMeters>6.400000095367431640625</AltitudeMeters>
            <DistanceMeters>NAN</DistanceMeters>
          </Trackpoint>
          <Trackpoint>
            <Time>2022-07-07T12:56:18.000Z</Time>
            <Position>
              <LatitudeDegrees>43.51935314945876598358154296875</LatitudeDegrees>
              <LongitudeDegrees>-1.48650362156331539154052734375</LongitudeDegrees>
            </Position>
            <AltitudeMeters>6.19999980926513671875</AltitudeMeters>
            <DistanceMeters>NAN</DistanceMeters>
          </Trackpoint>
          <Trackpoint>
            <Time>2022-07-07T12:56:21.000Z</Time>
            <Position>
              <LatitudeDegrees>43.51921685971319675445556640625</LatitudeDegrees>
              <LongitudeDegrees>-1.48647042922675609588623046875</LongitudeDegrees>
            </Position>
            <AltitudeMeters>6.19999980926513671875</AltitudeMeters>
            <DistanceMeters>NAN</DistanceMeters>
          </Trackpoint>
          <Trackpoint>
            <Time>2022-07-07T12:56:23.000Z</Time>
            <Position>
              <LatitudeDegrees>43.51912759244441986083984375</LatitudeDegrees>
              <LongitudeDegrees>-1.48647897876799106597900390625</LongitudeDegrees>
            </Position>
            <AltitudeMeters>6.400000095367431640625</AltitudeMeters>
            <DistanceMeters>NAN</DistanceMeters>
          </Trackpoint>
          <Trackpoint>
            <Time>2022-07-07T12:56:29.000Z</Time>
            <Position>
              <LatitudeDegrees>43.51888912729918956756591796875</LatitudeDegrees>
              <LongitudeDegrees>-1.48649624548852443695068359375</LongitudeDegrees>
            </Position>
            <AltitudeMeters>6.80000019073486328125</AltitudeMeters>
            <DistanceMeters>NAN</DistanceMeters>
          </Trackpoint>
          <Trackpoint>
            <Time>2022-07-07T12:56:30.000Z</Time>
            <Position>
              <LatitudeDegrees>43.518848977982997894287109375</LatitudeDegrees>
              <LongitudeDegrees>-1.486495323479175567626953125</LongitudeDegrees>
            </Position>
            <AltitudeMeters>6.80000019073486328125</AltitudeMeters>
            <DistanceMeters>NAN</DistanceMeters>
          </Trackpoint>
          <Trackpoint>
            <Time>2022-07-07T12:56:35.000Z</Time>
            <Position>
              <LatitudeDegrees>43.51865351200103759765625</LatitudeDegrees>
              <LongitudeDegrees>-1.48649725131690502166748046875</LongitudeDegrees>
            </Position>
            <AltitudeMeters>6.80000019073486328125</AltitudeMeters>
            <DistanceMeters>NAN</DistanceMeters>
          </Trackpoint>
          <Trackpoint>
            <Time>2022-07-07T12:56:37.000Z</Time>
            <Position>
              <LatitudeDegrees>43.5185805894434452056884765625</LatitudeDegrees>
              <LongitudeDegrees>-1.4864976704120635986328125</LongitudeDegrees>
            </Position>
            <AltitudeMeters>6.80000019073486328125</AltitudeMeters>
            <DistanceMeters>NAN</DistanceMeters>
          </Trackpoint>
          <Trackpoint>
            <Time>2022-07-07T12:56:48.000Z</Time>
            <Position>
              <LatitudeDegrees>43.5181956924498081207275390625</LatitudeDegrees>
              <LongitudeDegrees>-1.48648870177567005157470703125</LongitudeDegrees>
            </Position>
            <AltitudeMeters>7</AltitudeMeters>
            <DistanceMeters>NAN</DistanceMeters>
          </Trackpoint>
          <Trackpoint>
            <Time>2022-07-07T12:56:58.000Z</Time>
            <Position>
              <LatitudeDegrees>43.51786083541810512542724609375</LatitudeDegrees>
              <LongitudeDegrees>-1.48647093214094638824462890625</LongitudeDegrees>
            </Position>
            <AltitudeMeters>6.80000019073486328125</AltitudeMeters>
            <DistanceMeters>NAN</DistanceMeters>
          </Trackpoint>
          <Trackpoint>
            <Time>2022-07-07T12:57:07.000Z</Time>
            <Position>
              <LatitudeDegrees>43.51755439303815364837646484375</LatitudeDegrees>
              <LongitudeDegrees>-1.48647009395062923431396484375</LongitudeDegrees>
            </Position>
            <AltitudeMeters>7</AltitudeMeters>
            <DistanceMeters>NAN</DistanceMeters>
          </Trackpoint>
          <Trackpoint>
            <Time>2022-07-07T12:57:09.000Z</Time>
            <Position>
              <LatitudeDegrees>43.5174735076725482940673828125</LatitudeDegrees>
              <LongitudeDegrees>-1.4864681661128997802734375</LongitudeDegrees>
            </Position>
            <AltitudeMeters>7</AltitudeMeters>
            <DistanceMeters>NAN</DistanceMeters>
          </Trackpoint>
          <Trackpoint>
            <Time>2022-07-07T12:57:12.000Z</Time>
            <Position>
              <LatitudeDegrees>43.5173539817333221435546875</LatitudeDegrees>
              <LongitudeDegrees>-1.486479900777339935302734375</LongitudeDegrees>
            </Position>
            <AltitudeMeters>6.80000019073486328125</AltitudeMeters>
            <DistanceMeters>NAN</DistanceMeters>
          </Trackpoint>
          <Trackpoint>
            <Time>2022-07-07T12:57:16.000Z</Time>
            <Position>
              <LatitudeDegrees>43.51720335893332958221435546875</LatitudeDegrees>
              <LongitudeDegrees>-1.4864871092140674591064453125</LongitudeDegrees>
            </Position>
            <AltitudeMeters>7</AltitudeMeters>
            <DistanceMeters>NAN</DistanceMeters>
          </Trackpoint>
          <Trackpoint>
            <Time>2022-07-07T12:57:26.000Z</Time>
            <Position>
              <LatitudeDegrees>43.51680823601782321929931640625</LatitudeDegrees>
              <LongitudeDegrees>-1.48650613613426685333251953125</LongitudeDegrees>
            </Position>
            <AltitudeMeters>7.19999980926513671875</AltitudeMeters>
            <DistanceMeters>NAN</DistanceMeters>
          </Trackpoint>
          <Trackpoint>
            <Time>2022-07-07T12:57:35.000Z</Time>
            <Position>
              <LatitudeDegrees>43.51642685942351818084716796875</LatitudeDegrees>
              <LongitudeDegrees>-1.48653446696698665618896484375</LongitudeDegrees>
            </Position>
            <AltitudeMeters>6.599999904632568359375</AltitudeMeters>
            <DistanceMeters>NAN</DistanceMeters>
          </Trackpoint>
          <Trackpoint>
            <Time>2022-07-07T12:57:37.000Z</Time>
            <Position>
              <LatitudeDegrees>43.5163328982889652252197265625</LatitudeDegrees>
              <LongitudeDegrees>-1.4865384064614772796630859375</LongitudeDegrees>
            </Position>
            <AltitudeMeters>6.599999904632568359375</AltitudeMeters>
            <DistanceMeters>NAN</DistanceMeters>
          </Trackpoint>
          <Trackpoint>
            <Time>2022-07-07T12:57:40.000Z</Time>
            <Position>
              <LatitudeDegrees>43.51619183085858821868896484375</LatitudeDegrees>
              <LongitudeDegrees>-1.4865474589169025421142578125</LongitudeDegrees>
            </Position>
            <AltitudeMeters>6.400000095367431640625</AltitudeMeters>
            <DistanceMeters>NAN</DistanceMeters>
          </Trackpoint>
          <Trackpoint>
            <Time>2022-07-07T12:57:47.000Z</Time>
            <Position>
              <LatitudeDegrees>43.51588924415409564971923828125</LatitudeDegrees>
              <LongitudeDegrees>-1.48659758269786834716796875</LongitudeDegrees>
            </Position>
            <AltitudeMeters>6.599999904632568359375</AltitudeMeters>
            <DistanceMeters>NAN</DistanceMeters>
          </Trackpoint>
          <Trackpoint>
            <Time>2022-07-07T12:57:54.000Z</Time>
            <Position>
              <LatitudeDegrees>43.51560442708432674407958984375</LatitudeDegrees>
              <LongitudeDegrees>-1.48664988577365875244140625</LongitudeDegrees>
            </Position>
            <AltitudeMeters>6.80000019073486328125</AltitudeMeters>
            <DistanceMeters>NAN</DistanceMeters>
          </Trackpoint>
          <Trackpoint>
            <Time>2022-07-07T12:57:56.000Z</Time>
            <Position>
              <LatitudeDegrees>43.5155165009200572967529296875</LatitudeDegrees>
              <LongitudeDegrees>-1.48666539229452610015869140625</LongitudeDegrees>
            </Position>
            <AltitudeMeters>6.80000019073486328125</AltitudeMeters>
            <DistanceMeters>NAN</DistanceMeters>
          </Trackpoint>
          <Trackpoint>
            <Time>2022-07-07T12:58:00.000Z</Time>
            <Position>
              <LatitudeDegrees>43.5153458453714847564697265625</LatitudeDegrees>
              <LongitudeDegrees>-1.48670713417232036590576171875</LongitudeDegrees>
            </Position>
            <AltitudeMeters>6.80000019073486328125</AltitudeMeters>
            <DistanceMeters>NAN</DistanceMeters>
          </Trackpoint>
          <Trackpoint>
            <Time>2022-07-07T12:58:02.000Z</Time>
            <Position>
              <LatitudeDegrees>43.515260182321071624755859375</LatitudeDegrees>
              <LongitudeDegrees>-1.4867197908461093902587890625</LongitudeDegrees>
            </Position>
            <AltitudeMeters>7</AltitudeMeters>
            <DistanceMeters>NAN</DistanceMeters>
          </Trackpoint>
          <Trackpoint>
            <Time>2022-07-07T12:58:05.000Z</Time>
            <Position>
              <LatitudeDegrees>43.5151352919638156890869140625</LatitudeDegrees>
              <LongitudeDegrees>-1.48674921132624149322509765625</LongitudeDegrees>
            </Position>
            <AltitudeMeters>7</AltitudeMeters>
            <DistanceMeters>NAN</DistanceMeters>
          </Trackpoint>
          <Trackpoint>
            <Time>2022-07-07T12:58:06.000Z</Time>
            <Position>
              <LatitudeDegrees>43.5150967352092266082763671875</LatitudeDegrees>
              <LongitudeDegrees>-1.486757509410381317138671875</LongitudeDegrees>
            </Position>
            <AltitudeMeters>7</AltitudeMeters>
            <DistanceMeters>NAN</DistanceMeters>
          </Trackpoint>
          <Trackpoint>
            <Time>2022-07-07T12:58:07.000Z</Time>
            <Position>
              <LatitudeDegrees>43.51505641825497150421142578125</LatitudeDegrees>
              <LongitudeDegrees>-1.48676597513258457183837890625</LongitudeDegrees>
            </Position>
            <AltitudeMeters>7</AltitudeMeters>
            <DistanceMeters>NAN</DistanceMeters>
          </Trackpoint>
          <Trackpoint>
            <Time>2022-07-07T12:58:10.000Z</Time>
            <Position>
              <LatitudeDegrees>43.5149361379444599151611328125</LatitudeDegrees>
              <LongitudeDegrees>-1.48679061792790889739990234375</LongitudeDegrees>
            </Position>
            <AltitudeMeters>7</AltitudeMeters>
            <DistanceMeters>NAN</DistanceMeters>
          </Trackpoint>
          <Trackpoint>
            <Time>2022-07-07T12:58:14.000Z</Time>
            <Position>
              <LatitudeDegrees>43.51478735916316509246826171875</LatitudeDegrees>
              <LongitudeDegrees>-1.48682464845478534698486328125</LongitudeDegrees>
            </Position>
            <AltitudeMeters>7.400000095367431640625</AltitudeMeters>
            <DistanceMeters>NAN</DistanceMeters>
          </Trackpoint>
          <Trackpoint>
            <Time>2022-07-07T12:58:18.000Z</Time>
            <Position>
              <LatitudeDegrees>43.5146300308406352996826171875</LatitudeDegrees>
              <LongitudeDegrees>-1.48684434592723846435546875</LongitudeDegrees>
            </Position>
            <AltitudeMeters>7.400000095367431640625</AltitudeMeters>
            <DistanceMeters>NAN</DistanceMeters>
          </Trackpoint>
          <Trackpoint>
            <Time>2022-07-07T12:58:20.000Z</Time>
            <Position>
              <LatitudeDegrees>43.5145458765327930450439453125</LatitudeDegrees>
              <LongitudeDegrees>-1.48686119355261325836181640625</LongitudeDegrees>
            </Position>
            <AltitudeMeters>7.400000095367431640625</AltitudeMeters>
            <DistanceMeters>NAN</DistanceMeters>
          </Trackpoint>
          <Trackpoint>
            <Time>2022-07-07T12:58:23.000Z</Time>
            <Position>
              <LatitudeDegrees>43.51442341692745685577392578125</LatitudeDegrees>
              <LongitudeDegrees>-1.48688667453825473785400390625</LongitudeDegrees>
            </Position>
            <AltitudeMeters>7.400000095367431640625</AltitudeMeters>
            <DistanceMeters>NAN</DistanceMeters>
          </Trackpoint>
          <Trackpoint>
            <Time>2022-07-07T12:58:27.000Z</Time>
            <Position>
              <LatitudeDegrees>43.51427279412746429443359375</LatitudeDegrees>
              <LongitudeDegrees>-1.48691316135227680206298828125</LongitudeDegrees>
            </Position>
            <AltitudeMeters>7.599999904632568359375</AltitudeMeters>
            <DistanceMeters>NAN</DistanceMeters>
          </Trackpoint>
          <Trackpoint>
            <Time>2022-07-07T12:58:31.000Z</Time>
            <Position>
              <LatitudeDegrees>43.5141126997768878936767578125</LatitudeDegrees>
              <LongitudeDegrees>-1.486938893795013427734375</LongitudeDegrees>
            </Position>
            <AltitudeMeters>7.400000095367431640625</AltitudeMeters>
            <DistanceMeters>NAN</DistanceMeters>
          </Trackpoint>
          <Trackpoint>
            <Time>2022-07-07T12:58:39.000Z</Time>
            <Position>
              <LatitudeDegrees>43.51379360072314739227294921875</LatitudeDegrees>
              <LongitudeDegrees>-1.48700167424976825714111328125</LongitudeDegrees>
            </Position>
            <AltitudeMeters>7.80000019073486328125</AltitudeMeters>
            <DistanceMeters>NAN</DistanceMeters>
          </Trackpoint>
          <Trackpoint>
            <Time>2022-07-07T12:58:41.000Z</Time>
            <Position>
              <LatitudeDegrees>43.51371833123266696929931640625</LatitudeDegrees>
              <LongitudeDegrees>-1.4870144985616207122802734375</LongitudeDegrees>
            </Position>
            <AltitudeMeters>8</AltitudeMeters>
            <DistanceMeters>NAN</DistanceMeters>
          </Trackpoint>
          <Trackpoint>
            <Time>2022-07-07T12:58:50.000Z</Time>
            <Position>
              <LatitudeDegrees>43.51341792382299900054931640625</LatitudeDegrees>
              <LongitudeDegrees>-1.48706495761871337890625</LongitudeDegrees>
            </Position>
            <AltitudeMeters>7.599999904632568359375</AltitudeMeters>
            <DistanceMeters>NAN</DistanceMeters>
          </Trackpoint>
          <Trackpoint>
            <Time>2022-07-07T12:59:01.000Z</Time>
            <Position>
              <LatitudeDegrees>43.51302246563136577606201171875</LatitudeDegrees>
              <LongitudeDegrees>-1.48714316077530384063720703125</LongitudeDegrees>
            </Position>
            <AltitudeMeters>8.19999980926513671875</AltitudeMeters>
            <DistanceMeters>NAN</DistanceMeters>
          </Trackpoint>
          <Trackpoint>
            <Time>2022-07-07T12:59:11.000Z</Time>
            <Position>
              <LatitudeDegrees>43.512667827308177947998046875</LatitudeDegrees>
              <LongitudeDegrees>-1.48719227872788906097412109375</LongitudeDegrees>
            </Position>
            <AltitudeMeters>8.19999980926513671875</AltitudeMeters>
            <DistanceMeters>NAN</DistanceMeters>
          </Trackpoint>
          <Trackpoint>
            <Time>2022-07-07T12:59:20.000Z</Time>
            <Position>
              <LatitudeDegrees>43.512341268360614776611328125</LatitudeDegrees>
              <LongitudeDegrees>-1.48724659346044063568115234375</LongitudeDegrees>
            </Position>
            <AltitudeMeters>8.6000003814697265625</AltitudeMeters>
            <DistanceMeters>NAN</DistanceMeters>
          </Trackpoint>
          <Trackpoint>
            <Time>2022-07-07T12:59:23.000Z</Time>
            <Position>
              <LatitudeDegrees>43.51222492754459381103515625</LatitudeDegrees>
              <LongitudeDegrees>-1.48725966922938823699951171875</LongitudeDegrees>
            </Position>
            <AltitudeMeters>8.3999996185302734375</AltitudeMeters>
            <DistanceMeters>NAN</DistanceMeters>
          </Trackpoint>
          <Trackpoint>
            <Time>2022-07-07T12:59:30.000Z</Time>
            <Position>
              <LatitudeDegrees>43.5119538567960262298583984375</LatitudeDegrees>
              <LongitudeDegrees>-1.48729504086077213287353515625</LongitudeDegrees>
            </Position>
            <AltitudeMeters>8.6000003814697265625</AltitudeMeters>
            <DistanceMeters>NAN</DistanceMeters>
          </Trackpoint>
          <Trackpoint>
            <Time>2022-07-07T12:59:39.000Z</Time>
            <Position>
              <LatitudeDegrees>43.5116215981543064117431640625</LatitudeDegrees>
              <LongitudeDegrees>-1.48731172084808349609375</LongitudeDegrees>
            </Position>
            <AltitudeMeters>8.3999996185302734375</AltitudeMeters>
            <DistanceMeters>NAN</DistanceMeters>
          </Trackpoint>
          <Trackpoint>
            <Time>2022-07-07T12:59:44.000Z</Time>
            <Position>
              <LatitudeDegrees>43.51147667504847049713134765625</LatitudeDegrees>
              <LongitudeDegrees>-1.4873145706951618194580078125</LongitudeDegrees>
            </Position>
            <AltitudeMeters>8.3999996185302734375</AltitudeMeters>
            <DistanceMeters>NAN</DistanceMeters>
          </Trackpoint>
          <Trackpoint>
            <Time>2022-07-07T12:59:45.000Z</Time>
            <Position>
              <LatitudeDegrees>43.51144348271191120147705078125</LatitudeDegrees>
              <LongitudeDegrees>-1.4873155765235424041748046875</LongitudeDegrees>
            </Position>
            <AltitudeMeters>8.3999996185302734375</AltitudeMeters>
            <DistanceMeters>NAN</DistanceMeters>
          </Trackpoint>
          <Trackpoint>
            <Time>2022-07-07T12:59:51.000Z</Time>
            <Position>
              <LatitudeDegrees>43.51121239364147186279296875</LatitudeDegrees>
              <LongitudeDegrees>-1.48731297813355922698974609375</LongitudeDegrees>
            </Position>
            <AltitudeMeters>8</AltitudeMeters>
            <DistanceMeters>NAN</DistanceMeters>
          </Trackpoint>
          <Trackpoint>
            <Time>2022-07-07T12:59:52.000Z</Time>
            <Position>
              <LatitudeDegrees>43.511172495782375335693359375</LatitudeDegrees>
              <LongitudeDegrees>-1.4873142354190349578857421875</LongitudeDegrees>
            </Position>
            <AltitudeMeters>8</AltitudeMeters>
            <DistanceMeters>NAN</DistanceMeters>
          </Trackpoint>
          <Trackpoint>
            <Time>2022-07-07T12:59:55.000Z</Time>
            <Position>
              <LatitudeDegrees>43.51105657406151294708251953125</LatitudeDegrees>
              <LongitudeDegrees>-1.48731716908514499664306640625</LongitudeDegrees>
            </Position>
            <AltitudeMeters>8.19999980926513671875</AltitudeMeters>
            <DistanceMeters>NAN</DistanceMeters>
          </Trackpoint>
          <Trackpoint>
            <Time>2022-07-07T13:00:02.000Z</Time>
            <Position>
              <LatitudeDegrees>43.5107824020087718963623046875</LatitudeDegrees>
              <LongitudeDegrees>-1.48729872889816761016845703125</LongitudeDegrees>
            </Position>
            <AltitudeMeters>8.19999980926513671875</AltitudeMeters>
            <DistanceMeters>NAN</DistanceMeters>
          </Trackpoint>
          <Trackpoint>
            <Time>2022-07-07T13:00:09.000Z</Time>
            <Position>
              <LatitudeDegrees>43.51051476784050464630126953125</LatitudeDegrees>
              <LongitudeDegrees>-1.487265788018703460693359375</LongitudeDegrees>
            </Position>
            <AltitudeMeters>8.3999996185302734375</AltitudeMeters>
            <DistanceMeters>NAN</DistanceMeters>
          </Trackpoint>
          <Trackpoint>
            <Time>2022-07-07T13:00:10.000Z</Time>
            <Position>
              <LatitudeDegrees>43.51047285832464694976806640625</LatitudeDegrees>
              <LongitudeDegrees>-1.48725983686745166778564453125</LongitudeDegrees>
            </Position>
            <AltitudeMeters>8.3999996185302734375</AltitudeMeters>
            <DistanceMeters>NAN</DistanceMeters>
          </Trackpoint>
          <Trackpoint>
            <Time>2022-07-07T13:00:13.000Z</Time>
            <Position>
              <LatitudeDegrees>43.51035752333700656890869140625</LatitudeDegrees>
              <LongitudeDegrees>-1.48724131286144256591796875</LongitudeDegrees>
            </Position>
            <AltitudeMeters>8.19999980926513671875</AltitudeMeters>
            <DistanceMeters>NAN</DistanceMeters>
          </Trackpoint>
          <Trackpoint>
            <Time>2022-07-07T13:00:16.000Z</Time>
            <Position>
              <LatitudeDegrees>43.51024906150996685028076171875</LatitudeDegrees>
              <LongitudeDegrees>-1.48721608333289623260498046875</LongitudeDegrees>
            </Position>
            <AltitudeMeters>8</AltitudeMeters>
            <DistanceMeters>NAN</DistanceMeters>
          </Trackpoint>
          <Trackpoint>
            <Time>2022-07-07T13:00:18.000Z</Time>
            <Position>
              <LatitudeDegrees>43.5101737082004547119140625</LatitudeDegrees>
              <LongitudeDegrees>-1.48720242083072662353515625</LongitudeDegrees>
            </Position>
            <AltitudeMeters>8</AltitudeMeters>
            <DistanceMeters>NAN</DistanceMeters>
          </Trackpoint>
          <Trackpoint>
            <Time>2022-07-07T13:00:20.000Z</Time>
            <Position>
              <LatitudeDegrees>43.51010086946189403533935546875</LatitudeDegrees>
              <LongitudeDegrees>-1.48718507029116153717041015625</LongitudeDegrees>
            </Position>
            <AltitudeMeters>8</AltitudeMeters>
            <DistanceMeters>NAN</DistanceMeters>
          </Trackpoint>
          <Trackpoint>
            <Time>2022-07-07T13:00:21.000Z</Time>
            <Position>
              <LatitudeDegrees>43.510064743459224700927734375</LatitudeDegrees>
              <LongitudeDegrees>-1.48718121461570262908935546875</LongitudeDegrees>
            </Position>
            <AltitudeMeters>8</AltitudeMeters>
            <DistanceMeters>NAN</DistanceMeters>
          </Trackpoint>
          <Trackpoint>
            <Time>2022-07-07T13:00:23.000Z</Time>
            <Position>
              <LatitudeDegrees>43.51000062189996242523193359375</LatitudeDegrees>
              <LongitudeDegrees>-1.4871690608561038970947265625</LongitudeDegrees>
            </Position>
            <AltitudeMeters>8</AltitudeMeters>
            <DistanceMeters>NAN</DistanceMeters>
          </Trackpoint>
          <Trackpoint>
            <Time>2022-07-07T13:00:26.000Z</Time>
            <Position>
              <LatitudeDegrees>43.5099046491086483001708984375</LatitudeDegrees>
              <LongitudeDegrees>-1.48714316077530384063720703125</LongitudeDegrees>
            </Position>
            <AltitudeMeters>8.19999980926513671875</AltitudeMeters>
            <DistanceMeters>NAN</DistanceMeters>
          </Trackpoint>
          <Trackpoint>
            <Time>2022-07-07T13:00:27.000Z</Time>
            <Position>
              <LatitudeDegrees>43.509881012141704559326171875</LatitudeDegrees>
              <LongitudeDegrees>-1.48713293485343456268310546875</LongitudeDegrees>
            </Position>
            <AltitudeMeters>8.19999980926513671875</AltitudeMeters>
            <DistanceMeters>NAN</DistanceMeters>
          </Trackpoint>
          <Trackpoint>
            <Time>2022-07-07T13:00:29.000Z</Time>
            <Position>
              <LatitudeDegrees>43.50982476957142353057861328125</LatitudeDegrees>
              <LongitudeDegrees>-1.4871077053248882293701171875</LongitudeDegrees>
            </Position>
            <AltitudeMeters>8.19999980926513671875</AltitudeMeters>
            <DistanceMeters>NAN</DistanceMeters>
          </Trackpoint>
          <Trackpoint>
            <Time>2022-07-07T13:00:34.000Z</Time>
            <Position>
              <LatitudeDegrees>43.50962930358946323394775390625</LatitudeDegrees>
              <LongitudeDegrees>-1.4870476908981800079345703125</LongitudeDegrees>
            </Position>
            <AltitudeMeters>8.6000003814697265625</AltitudeMeters>
            <DistanceMeters>NAN</DistanceMeters>
          </Trackpoint>
          <Trackpoint>
            <Time>2022-07-07T13:00:37.000Z</Time>
            <Position>
              <LatitudeDegrees>43.50951916538178920745849609375</LatitudeDegrees>
              <LongitudeDegrees>-1.48700527846813201904296875</LongitudeDegrees>
            </Position>
            <AltitudeMeters>8.80000019073486328125</AltitudeMeters>
            <DistanceMeters>NAN</DistanceMeters>
          </Trackpoint>
          <Trackpoint>
            <Time>2022-07-07T13:00:39.000Z</Time>
            <Position>
              <LatitudeDegrees>43.5094453208148479461669921875</LatitudeDegrees>
              <LongitudeDegrees>-1.48697602562606334686279296875</LongitudeDegrees>
            </Position>
            <AltitudeMeters>8.80000019073486328125</AltitudeMeters>
            <DistanceMeters>NAN</DistanceMeters>
          </Trackpoint>
          <Trackpoint>
            <Time>2022-07-07T13:00:43.000Z</Time>
            <Position>
              <LatitudeDegrees>43.50928899832069873809814453125</LatitudeDegrees>
              <LongitudeDegrees>-1.48692238144576549530029296875</LongitudeDegrees>
            </Position>
            <AltitudeMeters>9</AltitudeMeters>
            <DistanceMeters>NAN</DistanceMeters>
          </Trackpoint>
          <Trackpoint>
            <Time>2022-07-07T13:00:44.000Z</Time>
            <Position>
              <LatitudeDegrees>43.50924675352871417999267578125</LatitudeDegrees>
              <LongitudeDegrees>-1.48690829984843730926513671875</LongitudeDegrees>
            </Position>
            <AltitudeMeters>9</AltitudeMeters>
            <DistanceMeters>NAN</DistanceMeters>
          </Trackpoint>
          <Trackpoint>
            <Time>2022-07-07T13:00:45.000Z</Time>
            <Position>
              <LatitudeDegrees>43.50920584984123706817626953125</LatitudeDegrees>
              <LongitudeDegrees>-1.4868911169469356536865234375</LongitudeDegrees>
            </Position>
            <AltitudeMeters>9</AltitudeMeters>
            <DistanceMeters>NAN</DistanceMeters>
          </Trackpoint>
          <Trackpoint>
            <Time>2022-07-07T13:00:46.000Z</Time>
            <Position>
              <LatitudeDegrees>43.50916611962020397186279296875</LatitudeDegrees>
              <LongitudeDegrees>-1.4868736825883388519287109375</LongitudeDegrees>
            </Position>
            <AltitudeMeters>9</AltitudeMeters>
            <DistanceMeters>NAN</DistanceMeters>
          </Trackpoint>
          <Trackpoint>
            <Time>2022-07-07T13:00:49.000Z</Time>
            <Position>
              <LatitudeDegrees>43.509046845138072967529296875</LatitudeDegrees>
              <LongitudeDegrees>-1.4868230558931827545166015625</LongitudeDegrees>
            </Position>
            <AltitudeMeters>8.80000019073486328125</AltitudeMeters>
            <DistanceMeters>NAN</DistanceMeters>
          </Trackpoint>
          <Trackpoint>
            <Time>2022-07-07T13:00:54.000Z</Time>
            <Position>
              <LatitudeDegrees>43.508861772716045379638671875</LatitudeDegrees>
              <LongitudeDegrees>-1.4867506362497806549072265625</LongitudeDegrees>
            </Position>
            <AltitudeMeters>8.19999980926513671875</AltitudeMeters>
            <DistanceMeters>NAN</DistanceMeters>
          </Trackpoint>
          <Trackpoint>
            <Time>2022-07-07T13:00:56.000Z</Time>
            <Position>
              <LatitudeDegrees>43.5087868385016918182373046875</LatitudeDegrees>
              <LongitudeDegrees>-1.48672054521739482879638671875</LongitudeDegrees>
            </Position>
            <AltitudeMeters>8</AltitudeMeters>
            <DistanceMeters>NAN</DistanceMeters>
          </Trackpoint>
          <Trackpoint>
            <Time>2022-07-07T13:01:05.000Z</Time>
            <Position>
              <LatitudeDegrees>43.50845382548868656158447265625</LatitudeDegrees>
              <LongitudeDegrees>-1.48659733124077320098876953125</LongitudeDegrees>
            </Position>
            <AltitudeMeters>8.3999996185302734375</AltitudeMeters>
            <DistanceMeters>NAN</DistanceMeters>
          </Trackpoint>
          <Trackpoint>
            <Time>2022-07-07T13:01:14.000Z</Time>
            <Position>
              <LatitudeDegrees>43.50811787880957126617431640625</LatitudeDegrees>
              <LongitudeDegrees>-1.486447043716907501220703125</LongitudeDegrees>
            </Position>
            <AltitudeMeters>8.3999996185302734375</AltitudeMeters>
            <DistanceMeters>NAN</DistanceMeters>
          </Trackpoint>
          <Trackpoint>
            <Time>2022-07-07T13:01:18.000Z</Time>
            <Position>
              <LatitudeDegrees>43.5079771466553211212158203125</LatitudeDegrees>
              <LongitudeDegrees>-1.48636917583644390106201171875</LongitudeDegrees>
            </Position>
            <AltitudeMeters>8.6000003814697265625</AltitudeMeters>
            <DistanceMeters>NAN</DistanceMeters>
          </Trackpoint>
          <Trackpoint>
            <Time>2022-07-07T13:01:25.000Z</Time>
            <Position>
              <LatitudeDegrees>43.50773147307336330413818359375</LatitudeDegrees>
              <LongitudeDegrees>-1.48626876063644886016845703125</LongitudeDegrees>
            </Position>
            <AltitudeMeters>8.6000003814697265625</AltitudeMeters>
            <DistanceMeters>NAN</DistanceMeters>
          </Trackpoint>
          <Trackpoint>
            <Time>2022-07-07T13:01:26.000Z</Time>
            <Position>
              <LatitudeDegrees>43.5076958499848842620849609375</LatitudeDegrees>
              <LongitudeDegrees>-1.4862482249736785888671875</LongitudeDegrees>
            </Position>
            <AltitudeMeters>8.6000003814697265625</AltitudeMeters>
            <DistanceMeters>NAN</DistanceMeters>
          </Trackpoint>
          <Trackpoint>
            <Time>2022-07-07T13:01:34.000Z</Time>
            <Position>
              <LatitudeDegrees>43.50740860216319561004638671875</LatitudeDegrees>
              <LongitudeDegrees>-1.48610548116266727447509765625</LongitudeDegrees>
            </Position>
            <AltitudeMeters>8.80000019073486328125</AltitudeMeters>
            <DistanceMeters>NAN</DistanceMeters>
          </Trackpoint>
          <Trackpoint>
            <Time>2022-07-07T13:01:42.000Z</Time>
            <Position>
              <LatitudeDegrees>43.5071198455989360809326171875</LatitudeDegrees>
              <LongitudeDegrees>-1.4859872125089168548583984375</LongitudeDegrees>
            </Position>
            <AltitudeMeters>8.80000019073486328125</AltitudeMeters>
            <DistanceMeters>NAN</DistanceMeters>
          </Trackpoint>
          <Trackpoint>
            <Time>2022-07-07T13:01:43.000Z</Time>
            <Position>
              <LatitudeDegrees>43.50708422251045703887939453125</LatitudeDegrees>
              <LongitudeDegrees>-1.48596919141709804534912109375</LongitudeDegrees>
            </Position>
            <AltitudeMeters>8.80000019073486328125</AltitudeMeters>
            <DistanceMeters>NAN</DistanceMeters>
          </Trackpoint>
          <Trackpoint>
            <Time>2022-07-07T13:01:47.000Z</Time>
            <Position>
              <LatitudeDegrees>43.506928570568561553955078125</LatitudeDegrees>
              <LongitudeDegrees>-1.48590330965816974639892578125</LongitudeDegrees>
            </Position>
            <AltitudeMeters>8.6000003814697265625</AltitudeMeters>
            <DistanceMeters>NAN</DistanceMeters>
          </Trackpoint>
          <Trackpoint>
            <Time>2022-07-07T13:01:52.000Z</Time>
            <Position>
              <LatitudeDegrees>43.50675296969711780548095703125</LatitudeDegrees>
              <LongitudeDegrees>-1.485815383493900299072265625</LongitudeDegrees>
            </Position>
            <AltitudeMeters>8.3999996185302734375</AltitudeMeters>
            <DistanceMeters>NAN</DistanceMeters>
          </Trackpoint>
          <Trackpoint>
            <Time>2022-07-07T13:02:03.000Z</Time>
            <Position>
              <LatitudeDegrees>43.50635969080030918121337890625</LatitudeDegrees>
              <LongitudeDegrees>-1.48564849980175495147705078125</LongitudeDegrees>
            </Position>
            <AltitudeMeters>8.19999980926513671875</AltitudeMeters>
            <DistanceMeters>NAN</DistanceMeters>
          </Trackpoint>
          <Trackpoint>
            <Time>2022-07-07T13:02:14.000Z</Time>
            <Position>
              <LatitudeDegrees>43.50598284043371677398681640625</LatitudeDegrees>
              <LongitudeDegrees>-1.485488153994083404541015625</LongitudeDegrees>
            </Position>
            <AltitudeMeters>8.3999996185302734375</AltitudeMeters>
            <DistanceMeters>NAN</DistanceMeters>
          </Trackpoint>
          <Trackpoint>
            <Time>2022-07-07T13:02:24.000Z</Time>
            <Position>
              <LatitudeDegrees>43.5056255199015140533447265625</LatitudeDegrees>
              <LongitudeDegrees>-1.485311798751354217529296875</LongitudeDegrees>
            </Position>
            <AltitudeMeters>8.6000003814697265625</AltitudeMeters>
            <DistanceMeters>NAN</DistanceMeters>
          </Trackpoint>
          <Trackpoint>
            <Time>2022-07-07T13:02:30.000Z</Time>
            <Position>
              <LatitudeDegrees>43.5053864680230617523193359375</LatitudeDegrees>
              <LongitudeDegrees>-1.485168971121311187744140625</LongitudeDegrees>
            </Position>
            <AltitudeMeters>8.80000019073486328125</AltitudeMeters>
            <DistanceMeters>NAN</DistanceMeters>
          </Trackpoint>
          <Trackpoint>
            <Time>2022-07-07T13:02:31.000Z</Time>
            <Position>
              <LatitudeDegrees>43.50535101257264614105224609375</LatitudeDegrees>
              <LongitudeDegrees>-1.4851406402885913848876953125</LongitudeDegrees>
            </Position>
            <AltitudeMeters>8.80000019073486328125</AltitudeMeters>
            <DistanceMeters>NAN</DistanceMeters>
          </Trackpoint>
          <Trackpoint>
            <Time>2022-07-07T13:02:38.000Z</Time>
            <Position>
              <LatitudeDegrees>43.5050716437399387359619140625</LatitudeDegrees>
              <LongitudeDegrees>-1.4849580824375152587890625</LongitudeDegrees>
            </Position>
            <AltitudeMeters>8.6000003814697265625</AltitudeMeters>
            <DistanceMeters>NAN</DistanceMeters>
          </Trackpoint>
          <Trackpoint>
            <Time>2022-07-07T13:02:42.000Z</Time>
            <Position>
              <LatitudeDegrees>43.50492303259670734405517578125</LatitudeDegrees>
              <LongitudeDegrees>-1.48484098725020885467529296875</LongitudeDegrees>
            </Position>
            <AltitudeMeters>8.6000003814697265625</AltitudeMeters>
            <DistanceMeters>NAN</DistanceMeters>
          </Trackpoint>
          <Trackpoint>
            <Time>2022-07-07T13:02:48.000Z</Time>
            <Position>
              <LatitudeDegrees>43.5046911053359508514404296875</LatitudeDegrees>
              <LongitudeDegrees>-1.4846635423600673675537109375</LongitudeDegrees>
            </Position>
            <AltitudeMeters>8.3999996185302734375</AltitudeMeters>
            <DistanceMeters>NAN</DistanceMeters>
          </Trackpoint>
          <Trackpoint>
            <Time>2022-07-07T13:02:58.000Z</Time>
            <Position>
              <LatitudeDegrees>43.504338227212429046630859375</LatitudeDegrees>
              <LongitudeDegrees>-1.48434662260115146636962890625</LongitudeDegrees>
            </Position>
            <AltitudeMeters>8.80000019073486328125</AltitudeMeters>
            <DistanceMeters>NAN</DistanceMeters>
          </Trackpoint>
          <Trackpoint>
            <Time>2022-07-07T13:03:06.000Z</Time>
            <Position>
              <LatitudeDegrees>43.5040490515530109405517578125</LatitudeDegrees>
              <LongitudeDegrees>-1.4840514957904815673828125</LongitudeDegrees>
            </Position>
            <AltitudeMeters>9</AltitudeMeters>
            <DistanceMeters>NAN</DistanceMeters>
          </Trackpoint>
          <Trackpoint>
            <Time>2022-07-07T13:03:07.000Z</Time>
            <Position>
              <LatitudeDegrees>43.50401292555034160614013671875</LatitudeDegrees>
              <LongitudeDegrees>-1.48401436395943164825439453125</LongitudeDegrees>
            </Position>
            <AltitudeMeters>9</AltitudeMeters>
            <DistanceMeters>NAN</DistanceMeters>
          </Trackpoint>
          <Trackpoint>
            <Time>2022-07-07T13:03:09.000Z</Time>
            <Position>
              <LatitudeDegrees>43.50394486449658870697021484375</LatitudeDegrees>
              <LongitudeDegrees>-1.4839396812021732330322265625</LongitudeDegrees>
            </Position>
            <AltitudeMeters>8.80000019073486328125</AltitudeMeters>
            <DistanceMeters>NAN</DistanceMeters>
          </Trackpoint>
          <Trackpoint>
            <Time>2022-07-07T13:03:13.000Z</Time>
            <Position>
              <LatitudeDegrees>43.5038069821894168853759765625</LatitudeDegrees>
              <LongitudeDegrees>-1.48378168232738971710205078125</LongitudeDegrees>
            </Position>
            <AltitudeMeters>8.80000019073486328125</AltitudeMeters>
            <DistanceMeters>NAN</DistanceMeters>
          </Trackpoint>
          <Trackpoint>
            <Time>2022-07-07T13:03:16.000Z</Time>
            <Position>
              <LatitudeDegrees>43.50371788255870342254638671875</LatitudeDegrees>
              <LongitudeDegrees>-1.483669616281986236572265625</LongitudeDegrees>
            </Position>
            <AltitudeMeters>8.6000003814697265625</AltitudeMeters>
            <DistanceMeters>NAN</DistanceMeters>
          </Trackpoint>
          <Trackpoint>
            <Time>2022-07-07T13:03:18.000Z</Time>
            <Position>
              <LatitudeDegrees>43.50364982150495052337646484375</LatitudeDegrees>
              <LongitudeDegrees>-1.48359619081020355224609375</LongitudeDegrees>
            </Position>
            <AltitudeMeters>8.6000003814697265625</AltitudeMeters>
            <DistanceMeters>NAN</DistanceMeters>
          </Trackpoint>
          <Trackpoint>
            <Time>2022-07-07T13:03:22.000Z</Time>
            <Position>
              <LatitudeDegrees>43.50351839326322078704833984375</LatitudeDegrees>
              <LongitudeDegrees>-1.48343433625996112823486328125</LongitudeDegrees>
            </Position>
            <AltitudeMeters>8.6000003814697265625</AltitudeMeters>
            <DistanceMeters>NAN</DistanceMeters>
          </Trackpoint>
          <Trackpoint>
            <Time>2022-07-07T13:03:24.000Z</Time>
            <Position>
              <LatitudeDegrees>43.50346910767257213592529296875</LatitudeDegrees>
              <LongitudeDegrees>-1.483365856111049652099609375</LongitudeDegrees>
            </Position>
            <AltitudeMeters>8.3999996185302734375</AltitudeMeters>
            <DistanceMeters>NAN</DistanceMeters>
          </Trackpoint>
          <Trackpoint>
            <Time>2022-07-07T13:03:33.000Z</Time>
            <Position>
              <LatitudeDegrees>43.5031947679817676544189453125</LatitudeDegrees>
              <LongitudeDegrees>-1.48297727108001708984375</LongitudeDegrees>
            </Position>
            <AltitudeMeters>8.3999996185302734375</AltitudeMeters>
            <DistanceMeters>NAN</DistanceMeters>
          </Trackpoint>
          <Trackpoint>
            <Time>2022-07-07T13:03:42.000Z</Time>
            <Position>
              <LatitudeDegrees>43.50292545743286609649658203125</LatitudeDegrees>
              <LongitudeDegrees>-1.4825922064483165740966796875</LongitudeDegrees>
            </Position>
            <AltitudeMeters>8.3999996185302734375</AltitudeMeters>
            <DistanceMeters>NAN</DistanceMeters>
          </Trackpoint>
          <Trackpoint>
            <Time>2022-07-07T13:03:53.000Z</Time>
            <Position>
              <LatitudeDegrees>43.50259990431368350982666015625</LatitudeDegrees>
              <LongitudeDegrees>-1.4821526594460010528564453125</LongitudeDegrees>
            </Position>
            <AltitudeMeters>8</AltitudeMeters>
            <DistanceMeters>NAN</DistanceMeters>
          </Trackpoint>
          <Trackpoint>
            <Time>2022-07-07T13:04:01.000Z</Time>
            <Position>
              <LatitudeDegrees>43.5023470222949981689453125</LatitudeDegrees>
              <LongitudeDegrees>-1.48179567418992519378662109375</LongitudeDegrees>
            </Position>
            <AltitudeMeters>8.19999980926513671875</AltitudeMeters>
            <DistanceMeters>NAN</DistanceMeters>
          </Trackpoint>
          <Trackpoint>
            <Time>2022-07-07T13:04:02.000Z</Time>
            <Position>
              <LatitudeDegrees>43.50231525488197803497314453125</LatitudeDegrees>
              <LongitudeDegrees>-1.48176114074885845184326171875</LongitudeDegrees>
            </Position>
            <AltitudeMeters>8.19999980926513671875</AltitudeMeters>
            <DistanceMeters>NAN</DistanceMeters>
          </Trackpoint>
          <Trackpoint>
            <Time>2022-07-07T13:04:11.000Z</Time>
            <Position>
              <LatitudeDegrees>43.50204301066696643829345703125</LatitudeDegrees>
              <LongitudeDegrees>-1.48144396953284740447998046875</LongitudeDegrees>
            </Position>
            <AltitudeMeters>8.80000019073486328125</AltitudeMeters>
            <DistanceMeters>NAN</DistanceMeters>
          </Trackpoint>
          <Trackpoint>
            <Time>2022-07-07T13:04:19.000Z</Time>
            <Position>
              <LatitudeDegrees>43.5018204711377620697021484375</LatitudeDegrees>
              <LongitudeDegrees>-1.48113719187676906585693359375</LongitudeDegrees>
            </Position>
            <AltitudeMeters>9</AltitudeMeters>
            <DistanceMeters>NAN</DistanceMeters>
          </Trackpoint>
          <Trackpoint>
            <Time>2022-07-07T13:04:25.000Z</Time>
            <Position>
              <LatitudeDegrees>43.501692228019237518310546875</LatitudeDegrees>
              <LongitudeDegrees>-1.4809133112430572509765625</LongitudeDegrees>
            </Position>
            <AltitudeMeters>9</AltitudeMeters>
            <DistanceMeters>NAN</DistanceMeters>
          </Trackpoint>
          <Trackpoint>
            <Time>2022-07-07T13:04:27.000Z</Time>
            <Position>
              <LatitudeDegrees>43.50168275646865367889404296875</LatitudeDegrees>
              <LongitudeDegrees>-1.480827815830707550048828125</LongitudeDegrees>
            </Position>
            <AltitudeMeters>9</AltitudeMeters>
            <DistanceMeters>NAN</DistanceMeters>
          </Trackpoint>
          <Trackpoint>
            <Time>2022-07-07T13:04:29.000Z</Time>
            <Position>
              <LatitudeDegrees>43.50163958966732025146484375</LatitudeDegrees>
              <LongitudeDegrees>-1.480749361217021942138671875</LongitudeDegrees>
            </Position>
            <AltitudeMeters>8.80000019073486328125</AltitudeMeters>
            <DistanceMeters>NAN</DistanceMeters>
          </Trackpoint>
          <Trackpoint>
            <Time>2022-07-07T13:04:39.000Z</Time>
            <Position>
              <LatitudeDegrees>43.50135720334947109222412109375</LatitudeDegrees>
              <LongitudeDegrees>-1.48035599850118160247802734375</LongitudeDegrees>
            </Position>
            <AltitudeMeters>9.19999980926513671875</AltitudeMeters>
            <DistanceMeters>NAN</DistanceMeters>
          </Trackpoint>
          <Trackpoint>
            <Time>2022-07-07T13:04:47.000Z</Time>
            <Position>
              <LatitudeDegrees>43.50115402601659297943115234375</LatitudeDegrees>
              <LongitudeDegrees>-1.4800454489886760711669921875</LongitudeDegrees>
            </Position>
            <AltitudeMeters>9.19999980926513671875</AltitudeMeters>
            <DistanceMeters>NAN</DistanceMeters>
          </Trackpoint>
          <Trackpoint>
            <Time>2022-07-07T13:04:54.000Z</Time>
            <Position>
              <LatitudeDegrees>43.50100348703563213348388671875</LatitudeDegrees>
              <LongitudeDegrees>-1.47979952394962310791015625</LongitudeDegrees>
            </Position>
            <AltitudeMeters>9.3999996185302734375</AltitudeMeters>
            <DistanceMeters>NAN</DistanceMeters>
          </Trackpoint>
          <Trackpoint>
            <Time>2022-07-07T13:04:58.000Z</Time>
            <Position>
              <LatitudeDegrees>43.501069955527782440185546875</LatitudeDegrees>
              <LongitudeDegrees>-1.47969483397901058197021484375</LongitudeDegrees>
            </Position>
            <AltitudeMeters>9.6000003814697265625</AltitudeMeters>
            <DistanceMeters>NAN</DistanceMeters>
          </Trackpoint>
          <Trackpoint>
            <Time>2022-07-07T13:05:03.000Z</Time>
            <Position>
              <LatitudeDegrees>43.5011646710336208343505859375</LatitudeDegrees>
              <LongitudeDegrees>-1.4795418642461299896240234375</LongitudeDegrees>
            </Position>
            <AltitudeMeters>9.80000019073486328125</AltitudeMeters>
            <DistanceMeters>NAN</DistanceMeters>
          </Trackpoint>
          <Trackpoint>
            <Time>2022-07-07T13:05:06.000Z</Time>
            <Position>
              <LatitudeDegrees>43.5012323968112468719482421875</LatitudeDegrees>
              <LongitudeDegrees>-1.47945620119571685791015625</LongitudeDegrees>
            </Position>
            <AltitudeMeters>10</AltitudeMeters>
            <DistanceMeters>NAN</DistanceMeters>
          </Trackpoint>
          <Trackpoint>
            <Time>2022-07-07T13:05:13.000Z</Time>
            <Position>
              <LatitudeDegrees>43.50138838402926921844482421875</LatitudeDegrees>
              <LongitudeDegrees>-1.4793463982641696929931640625</LongitudeDegrees>
            </Position>
            <AltitudeMeters>10.6000003814697265625</AltitudeMeters>
            <DistanceMeters>NAN</DistanceMeters>
          </Trackpoint>
          <Trackpoint>
            <Time>2022-07-07T13:05:15.000Z</Time>
            <Position>
              <LatitudeDegrees>43.50142409093677997589111328125</LatitudeDegrees>
              <LongitudeDegrees>-1.47931865416467189788818359375</LongitudeDegrees>
            </Position>
            <AltitudeMeters>11</AltitudeMeters>
            <DistanceMeters>NAN</DistanceMeters>
          </Trackpoint>
          <Trackpoint>
            <Time>2022-07-07T13:05:22.000Z</Time>
            <Position>
              <LatitudeDegrees>43.5015240870416164398193359375</LatitudeDegrees>
              <LongitudeDegrees>-1.47924120537936687469482421875</LongitudeDegrees>
            </Position>
            <AltitudeMeters>12</AltitudeMeters>
            <DistanceMeters>NAN</DistanceMeters>
          </Trackpoint>
          <Trackpoint>
            <Time>2022-07-07T13:05:29.000Z</Time>
            <Position>
              <LatitudeDegrees>43.5016387514770030975341796875</LatitudeDegrees>
              <LongitudeDegrees>-1.47916995920240879058837890625</LongitudeDegrees>
            </Position>
            <AltitudeMeters>13.19999980926513671875</AltitudeMeters>
            <DistanceMeters>NAN</DistanceMeters>
          </Trackpoint>
          <Trackpoint>
            <Time>2022-07-07T13:05:30.000Z</Time>
            <Position>
              <LatitudeDegrees>43.50165610201656818389892578125</LatitudeDegrees>
              <LongitudeDegrees>-1.4791524410247802734375</LongitudeDegrees>
            </Position>
            <AltitudeMeters>13.3999996185302734375</AltitudeMeters>
            <DistanceMeters>NAN</DistanceMeters>
          </Trackpoint>
          <Trackpoint>
            <Time>2022-07-07T13:05:34.000Z</Time>
            <Position>
              <LatitudeDegrees>43.50172273814678192138671875</LatitudeDegrees>
              <LongitudeDegrees>-1.4790936000645160675048828125</LongitudeDegrees>
            </Position>
            <AltitudeMeters>14.19999980926513671875</AltitudeMeters>
            <DistanceMeters>NAN</DistanceMeters>
          </Trackpoint>
          <Trackpoint>
            <Time>2022-07-07T13:05:38.000Z</Time>
            <Position>
              <LatitudeDegrees>43.501767329871654510498046875</LatitudeDegrees>
              <LongitudeDegrees>-1.47901221178472042083740234375</LongitudeDegrees>
            </Position>
            <AltitudeMeters>14.80000019073486328125</AltitudeMeters>
            <DistanceMeters>NAN</DistanceMeters>
          </Trackpoint>
          <Trackpoint>
            <Time>2022-07-07T13:05:43.000Z</Time>
            <Position>
              <LatitudeDegrees>43.5017668269574642181396484375</LatitudeDegrees>
              <LongitudeDegrees>-1.47890768945217132568359375</LongitudeDegrees>
            </Position>
            <AltitudeMeters>15.3999996185302734375</AltitudeMeters>
            <DistanceMeters>NAN</DistanceMeters>
          </Trackpoint>
          <Trackpoint>
            <Time>2022-07-07T13:05:44.000Z</Time>
            <Position>
              <LatitudeDegrees>43.5017597861588001251220703125</LatitudeDegrees>
              <LongitudeDegrees>-1.478896625339984893798828125</LongitudeDegrees>
            </Position>
            <AltitudeMeters>15.3999996185302734375</AltitudeMeters>
            <DistanceMeters>NAN</DistanceMeters>
          </Trackpoint>
          <Trackpoint>
            <Time>2022-07-07T13:05:49.000Z</Time>
            <Position>
              <LatitudeDegrees>43.50165828131139278411865234375</LatitudeDegrees>
              <LongitudeDegrees>-1.4789070188999176025390625</LongitudeDegrees>
            </Position>
            <AltitudeMeters>15.6000003814697265625</AltitudeMeters>
            <DistanceMeters>NAN</DistanceMeters>
          </Trackpoint>
          <Trackpoint>
            <Time>2022-07-07T13:05:55.000Z</Time>
            <Position>
              <LatitudeDegrees>43.50151075981557369232177734375</LatitudeDegrees>
              <LongitudeDegrees>-1.47896409966051578521728515625</LongitudeDegrees>
            </Position>
            <AltitudeMeters>15.3999996185302734375</AltitudeMeters>
            <DistanceMeters>NAN</DistanceMeters>
          </Trackpoint>
          <Trackpoint>
            <Time>2022-07-07T13:05:58.000Z</Time>
            <Position>
              <LatitudeDegrees>43.5014359094202518463134765625</LatitudeDegrees>
              <LongitudeDegrees>-1.47900416515767574310302734375</LongitudeDegrees>
            </Position>
            <AltitudeMeters>15.3999996185302734375</AltitudeMeters>
            <DistanceMeters>NAN</DistanceMeters>
          </Trackpoint>
          <Trackpoint>
            <Time>2022-07-07T13:06:01.000Z</Time>
            <Position>
              <LatitudeDegrees>43.5013745538890361785888671875</LatitudeDegrees>
              <LongitudeDegrees>-1.4790496788918972015380859375</LongitudeDegrees>
            </Position>
            <AltitudeMeters>15.19999980926513671875</AltitudeMeters>
            <DistanceMeters>NAN</DistanceMeters>
          </Trackpoint>
          <Trackpoint>
            <Time>2022-07-07T13:06:04.000Z</Time>
            <Position>
              <LatitudeDegrees>43.50136776454746723175048828125</LatitudeDegrees>
              <LongitudeDegrees>-1.47905428893864154815673828125</LongitudeDegrees>
            </Position>
            <AltitudeMeters>15</AltitudeMeters>
            <DistanceMeters>NAN</DistanceMeters>
          </Trackpoint>
          <Trackpoint>
            <Time>2022-07-07T13:06:32.000Z</Time>
            <Position>
              <LatitudeDegrees>43.5013410262763500213623046875</LatitudeDegrees>
              <LongitudeDegrees>-1.47907440550625324249267578125</LongitudeDegrees>
            </Position>
            <AltitudeMeters>14.80000019073486328125</AltitudeMeters>
            <DistanceMeters>NAN</DistanceMeters>
          </Trackpoint>
          <Trackpoint>
            <Time>2022-07-07T13:06:38.000Z</Time>
            <Position>
              <LatitudeDegrees>43.50116928108036518096923828125</LatitudeDegrees>
              <LongitudeDegrees>-1.47920273244380950927734375</LongitudeDegrees>
            </Position>
            <AltitudeMeters>15.3999996185302734375</AltitudeMeters>
            <DistanceMeters>NAN</DistanceMeters>
          </Trackpoint>
          <Trackpoint>
            <Time>2022-07-07T13:06:46.000Z</Time>
            <Position>
              <LatitudeDegrees>43.50097599439322948455810546875</LatitudeDegrees>
              <LongitudeDegrees>-1.47938151843845844268798828125</LongitudeDegrees>
            </Position>
            <AltitudeMeters>16.200000762939453125</AltitudeMeters>
            <DistanceMeters>NAN</DistanceMeters>
          </Trackpoint>
          <Trackpoint>
            <Time>2022-07-07T13:06:51.000Z</Time>
            <Position>
              <LatitudeDegrees>43.50085479207336902618408203125</LatitudeDegrees>
              <LongitudeDegrees>-1.47949643433094024658203125</LongitudeDegrees>
            </Position>
            <AltitudeMeters>16.6000003814697265625</AltitudeMeters>
            <DistanceMeters>NAN</DistanceMeters>
          </Trackpoint>
          <Trackpoint>
            <Time>2022-07-07T13:06:56.000Z</Time>
            <Position>
              <LatitudeDegrees>43.50075052119791507720947265625</LatitudeDegrees>
              <LongitudeDegrees>-1.47960213012993335723876953125</LongitudeDegrees>
            </Position>
            <AltitudeMeters>17.200000762939453125</AltitudeMeters>
            <DistanceMeters>NAN</DistanceMeters>
          </Trackpoint>
          <Trackpoint>
            <Time>2022-07-07T13:06:58.000Z</Time>
            <Position>
              <LatitudeDegrees>43.500701487064361572265625</LatitudeDegrees>
              <LongitudeDegrees>-1.4796454645693302154541015625</LongitudeDegrees>
            </Position>
            <AltitudeMeters>17.6000003814697265625</AltitudeMeters>
            <DistanceMeters>NAN</DistanceMeters>
          </Trackpoint>
          <Trackpoint>
            <Time>2022-07-07T13:07:04.000Z</Time>
            <Position>
              <LatitudeDegrees>43.5005491040647029876708984375</LatitudeDegrees>
              <LongitudeDegrees>-1.4797894656658172607421875</LongitudeDegrees>
            </Position>
            <AltitudeMeters>17</AltitudeMeters>
            <DistanceMeters>NAN</DistanceMeters>
          </Trackpoint>
          <Trackpoint>
            <Time>2022-07-07T13:07:05.000Z</Time>
            <Position>
              <LatitudeDegrees>43.50051800720393657684326171875</LatitudeDegrees>
              <LongitudeDegrees>-1.47981435991823673248291015625</LongitudeDegrees>
            </Position>
            <AltitudeMeters>16.799999237060546875</AltitudeMeters>
            <DistanceMeters>NAN</DistanceMeters>
          </Trackpoint>
          <Trackpoint>
            <Time>2022-07-07T13:07:13.000Z</Time>
            <Position>
              <LatitudeDegrees>43.50026604719460010528564453125</LatitudeDegrees>
              <LongitudeDegrees>-1.4800576865673065185546875</LongitudeDegrees>
            </Position>
            <AltitudeMeters>16.3999996185302734375</AltitudeMeters>
            <DistanceMeters>NAN</DistanceMeters>
          </Trackpoint>
          <Trackpoint>
            <Time>2022-07-07T13:07:14.000Z</Time>
            <Position>
              <LatitudeDegrees>43.50022799335420131683349609375</LatitudeDegrees>
              <LongitudeDegrees>-1.4800927229225635528564453125</LongitudeDegrees>
            </Position>
            <AltitudeMeters>16</AltitudeMeters>
            <DistanceMeters>NAN</DistanceMeters>
          </Trackpoint>
          <Trackpoint>
            <Time>2022-07-07T13:07:19.000Z</Time>
            <Position>
              <LatitudeDegrees>43.50002883933484554290771484375</LatitudeDegrees>
              <LongitudeDegrees>-1.4802834950387477874755859375</LongitudeDegrees>
            </Position>
            <AltitudeMeters>15.3999996185302734375</AltitudeMeters>
            <DistanceMeters>NAN</DistanceMeters>
          </Trackpoint>
          <Trackpoint>
            <Time>2022-07-07T13:07:22.000Z</Time>
            <Position>
              <LatitudeDegrees>43.4999050386250019073486328125</LatitudeDegrees>
              <LongitudeDegrees>-1.4804340340197086334228515625</LongitudeDegrees>
            </Position>
            <AltitudeMeters>15.19999980926513671875</AltitudeMeters>
            <DistanceMeters>NAN</DistanceMeters>
          </Trackpoint>
          <Trackpoint>
            <Time>2022-07-07T13:07:26.000Z</Time>
            <Position>
              <LatitudeDegrees>43.49976095370948314666748046875</LatitudeDegrees>
              <LongitudeDegrees>-1.4806274883449077606201171875</LongitudeDegrees>
            </Position>
            <AltitudeMeters>14</AltitudeMeters>
            <DistanceMeters>NAN</DistanceMeters>
          </Trackpoint>
          <Trackpoint>
            <Time>2022-07-07T13:07:27.000Z</Time>
            <Position>
              <LatitudeDegrees>43.4997330419719219207763671875</LatitudeDegrees>
              <LongitudeDegrees>-1.48067518137395381927490234375</LongitudeDegrees>
            </Position>
            <AltitudeMeters>13.3999996185302734375</AltitudeMeters>
            <DistanceMeters>NAN</DistanceMeters>
          </Trackpoint>
          <Trackpoint>
            <Time>2022-07-07T13:07:29.000Z</Time>
            <Position>
              <LatitudeDegrees>43.499706722795963287353515625</LatitudeDegrees>
              <LongitudeDegrees>-1.48076084442436695098876953125</LongitudeDegrees>
            </Position>
            <AltitudeMeters>12.80000019073486328125</AltitudeMeters>
            <DistanceMeters>NAN</DistanceMeters>
          </Trackpoint>
          <Trackpoint>
            <Time>2022-07-07T13:07:31.000Z</Time>
            <Position>
              <LatitudeDegrees>43.49967177025973796844482421875</LatitudeDegrees>
              <LongitudeDegrees>-1.4808462560176849365234375</LongitudeDegrees>
            </Position>
            <AltitudeMeters>11.6000003814697265625</AltitudeMeters>
            <DistanceMeters>NAN</DistanceMeters>
          </Trackpoint>
          <Trackpoint>
            <Time>2022-07-07T13:07:34.000Z</Time>
            <Position>
              <LatitudeDegrees>43.4996150247752666473388671875</LatitudeDegrees>
              <LongitudeDegrees>-1.4809439890086650848388671875</LongitudeDegrees>
            </Position>
            <AltitudeMeters>10.80000019073486328125</AltitudeMeters>
            <DistanceMeters>NAN</DistanceMeters>
          </Trackpoint>
          <Trackpoint>
            <Time>2022-07-07T13:07:36.000Z</Time>
            <Position>
              <LatitudeDegrees>43.49957940168678760528564453125</LatitudeDegrees>
              <LongitudeDegrees>-1.48100408725440502166748046875</LongitudeDegrees>
            </Position>
            <AltitudeMeters>10.3999996185302734375</AltitudeMeters>
            <DistanceMeters>NAN</DistanceMeters>
          </Trackpoint>
          <Trackpoint>
            <Time>2022-07-07T13:07:39.000Z</Time>
            <Position>
              <LatitudeDegrees>43.4995607100427150726318359375</LatitudeDegrees>
              <LongitudeDegrees>-1.48103493265807628631591796875</LongitudeDegrees>
            </Position>
            <AltitudeMeters>10</AltitudeMeters>
            <DistanceMeters>NAN</DistanceMeters>
          </Trackpoint>
          <Trackpoint>
            <Time>2022-07-07T13:07:40.000Z</Time>
            <Position>
              <LatitudeDegrees>43.49956381134688854217529296875</LatitudeDegrees>
              <LongitudeDegrees>-1.48103375919163227081298828125</LongitudeDegrees>
            </Position>
            <AltitudeMeters>10</AltitudeMeters>
            <DistanceMeters>NAN</DistanceMeters>
          </Trackpoint>
          <Trackpoint>
            <Time>2022-07-07T13:09:57.000Z</Time>
            <Position>
              <LatitudeDegrees>43.4995550103485584259033203125</LatitudeDegrees>
              <LongitudeDegrees>-1.4810703881084918975830078125</LongitudeDegrees>
            </Position>
            <AltitudeMeters>11.3999996185302734375</AltitudeMeters>
            <DistanceMeters>NAN</DistanceMeters>
          </Trackpoint>
          <Trackpoint>
            <Time>2022-07-07T13:09:59.000Z</Time>
            <Position>
              <LatitudeDegrees>43.4995308704674243927001953125</LatitudeDegrees>
              <LongitudeDegrees>-1.4811198413372039794921875</LongitudeDegrees>
            </Position>
            <AltitudeMeters>11.19999980926513671875</AltitudeMeters>
            <DistanceMeters>NAN</DistanceMeters>
          </Trackpoint>
          <Trackpoint>
            <Time>2022-07-07T13:10:05.000Z</Time>
            <Position>
              <LatitudeDegrees>43.4994413517415523529052734375</LatitudeDegrees>
              <LongitudeDegrees>-1.4812930114567279815673828125</LongitudeDegrees>
            </Position>
            <AltitudeMeters>11.6000003814697265625</AltitudeMeters>
            <DistanceMeters>NAN</DistanceMeters>
          </Trackpoint>
          <Trackpoint>
            <Time>2022-07-07T13:10:06.000Z</Time>
            <Position>
              <LatitudeDegrees>43.49943590350449085235595703125</LatitudeDegrees>
              <LongitudeDegrees>-1.4813097752630710601806640625</LongitudeDegrees>
            </Position>
            <AltitudeMeters>11.6000003814697265625</AltitudeMeters>
            <DistanceMeters>NAN</DistanceMeters>
          </Trackpoint>
          <Trackpoint>
            <Time>2022-07-07T13:10:07.000Z</Time>
            <Position>
              <LatitudeDegrees>43.4994336403906345367431640625</LatitudeDegrees>
              <LongitudeDegrees>-1.4813262037932872772216796875</LongitudeDegrees>
            </Position>
            <AltitudeMeters>11.6000003814697265625</AltitudeMeters>
            <DistanceMeters>NAN</DistanceMeters>
          </Trackpoint>
          <Trackpoint>
            <Time>2022-07-07T13:10:09.000Z</Time>
            <Position>
              <LatitudeDegrees>43.49943338893353939056396484375</LatitudeDegrees>
              <LongitudeDegrees>-1.4813674427568912506103515625</LongitudeDegrees>
            </Position>
            <AltitudeMeters>11.80000019073486328125</AltitudeMeters>
            <DistanceMeters>NAN</DistanceMeters>
          </Trackpoint>
          <Trackpoint>
            <Time>2022-07-07T13:10:12.000Z</Time>
            <Position>
              <LatitudeDegrees>43.49942232482135295867919921875</LatitudeDegrees>
              <LongitudeDegrees>-1.4814633317291736602783203125</LongitudeDegrees>
            </Position>
            <AltitudeMeters>11.80000019073486328125</AltitudeMeters>
            <DistanceMeters>NAN</DistanceMeters>
          </Trackpoint>
          <Trackpoint>
            <Time>2022-07-07T13:10:18.000Z</Time>
            <Position>
              <LatitudeDegrees>43.49943154491484165191650390625</LatitudeDegrees>
              <LongitudeDegrees>-1.4816396869719028472900390625</LongitudeDegrees>
            </Position>
            <AltitudeMeters>12.19999980926513671875</AltitudeMeters>
            <DistanceMeters>NAN</DistanceMeters>
          </Trackpoint>
          <Trackpoint>
            <Time>2022-07-07T13:10:20.000Z</Time>
            <Position>
              <LatitudeDegrees>43.49942014552652835845947265625</LatitudeDegrees>
              <LongitudeDegrees>-1.4816903136670589447021484375</LongitudeDegrees>
            </Position>
            <AltitudeMeters>12.6000003814697265625</AltitudeMeters>
            <DistanceMeters>NAN</DistanceMeters>
          </Trackpoint>
          <Trackpoint>
            <Time>2022-07-07T13:10:24.000Z</Time>
            <Position>
              <LatitudeDegrees>43.49940572865307331085205078125</LatitudeDegrees>
              <LongitudeDegrees>-1.4818261004984378814697265625</LongitudeDegrees>
            </Position>
            <AltitudeMeters>13</AltitudeMeters>
            <DistanceMeters>NAN</DistanceMeters>
          </Trackpoint>
          <Trackpoint>
            <Time>2022-07-07T13:10:30.000Z</Time>
            <Position>
              <LatitudeDegrees>43.49938779138028621673583984375</LatitudeDegrees>
              <LongitudeDegrees>-1.48203908465802669525146484375</LongitudeDegrees>
            </Position>
            <AltitudeMeters>12.3999996185302734375</AltitudeMeters>
            <DistanceMeters>NAN</DistanceMeters>
          </Trackpoint>
          <Trackpoint>
            <Time>2022-07-07T13:10:32.000Z</Time>
            <Position>
              <LatitudeDegrees>43.49932459183037281036376953125</LatitudeDegrees>
              <LongitudeDegrees>-1.48208116181194782257080078125</LongitudeDegrees>
            </Position>
            <AltitudeMeters>11.6000003814697265625</AltitudeMeters>
            <DistanceMeters>NAN</DistanceMeters>
          </Trackpoint>
          <Trackpoint>
            <Time>2022-07-07T13:10:33.000Z</Time>
            <Position>
              <LatitudeDegrees>43.4992894716560840606689453125</LatitudeDegrees>
              <LongitudeDegrees>-1.4820923097431659698486328125</LongitudeDegrees>
            </Position>
            <AltitudeMeters>11.3999996185302734375</AltitudeMeters>
            <DistanceMeters>NAN</DistanceMeters>
          </Trackpoint>
          <Trackpoint>
            <Time>2022-07-07T13:10:34.000Z</Time>
            <Position>
              <LatitudeDegrees>43.4992544353008270263671875</LatitudeDegrees>
              <LongitudeDegrees>-1.4821013621985912322998046875</LongitudeDegrees>
            </Position>
            <AltitudeMeters>11.19999980926513671875</AltitudeMeters>
            <DistanceMeters>NAN</DistanceMeters>
          </Trackpoint>
          <Trackpoint>
            <Time>2022-07-07T13:10:37.000Z</Time>
            <Position>
              <LatitudeDegrees>43.4991637431085109710693359375</LatitudeDegrees>
              <LongitudeDegrees>-1.482136733829975128173828125</LongitudeDegrees>
            </Position>
            <AltitudeMeters>11.19999980926513671875</AltitudeMeters>
            <DistanceMeters>NAN</DistanceMeters>
          </Trackpoint>
          <Trackpoint>
            <Time>2022-07-07T13:10:41.000Z</Time>
            <Position>
              <LatitudeDegrees>43.4990413673222064971923828125</LatitudeDegrees>
              <LongitudeDegrees>-1.48223974741995334625244140625</LongitudeDegrees>
            </Position>
            <AltitudeMeters>11</AltitudeMeters>
            <DistanceMeters>NAN</DistanceMeters>
          </Trackpoint>
          <Trackpoint>
            <Time>2022-07-07T13:10:44.000Z</Time>
            <Position>
              <LatitudeDegrees>43.498953022062778472900390625</LatitudeDegrees>
              <LongitudeDegrees>-1.48228065110743045806884765625</LongitudeDegrees>
            </Position>
            <AltitudeMeters>10.80000019073486328125</AltitudeMeters>
            <DistanceMeters>NAN</DistanceMeters>
          </Trackpoint>
          <Trackpoint>
            <Time>2022-07-07T13:10:45.000Z</Time>
            <Position>
              <LatitudeDegrees>43.4989243559539318084716796875</LatitudeDegrees>
              <LongitudeDegrees>-1.48226313292980194091796875</LongitudeDegrees>
            </Position>
            <AltitudeMeters>10.80000019073486328125</AltitudeMeters>
            <DistanceMeters>NAN</DistanceMeters>
          </Trackpoint>
          <Trackpoint>
            <Time>2022-07-07T13:10:46.000Z</Time>
            <Position>
              <LatitudeDegrees>43.4988998807966709136962890625</LatitudeDegrees>
              <LongitudeDegrees>-1.48223186843097209930419921875</LongitudeDegrees>
            </Position>
            <AltitudeMeters>10.6000003814697265625</AltitudeMeters>
            <DistanceMeters>NAN</DistanceMeters>
          </Trackpoint>
          <Trackpoint>
            <Time>2022-07-07T13:10:48.000Z</Time>
            <Position>
              <LatitudeDegrees>43.49885621108114719390869140625</LatitudeDegrees>
              <LongitudeDegrees>-1.4821556769311428070068359375</LongitudeDegrees>
            </Position>
            <AltitudeMeters>10.3999996185302734375</AltitudeMeters>
            <DistanceMeters>NAN</DistanceMeters>
          </Trackpoint>
          <Trackpoint>
            <Time>2022-07-07T13:10:50.000Z</Time>
            <Position>
              <LatitudeDegrees>43.498807512223720550537109375</LatitudeDegrees>
              <LongitudeDegrees>-1.4820478856563568115234375</LongitudeDegrees>
            </Position>
            <AltitudeMeters>10</AltitudeMeters>
            <DistanceMeters>NAN</DistanceMeters>
          </Trackpoint>
          <Trackpoint>
            <Time>2022-07-07T13:10:51.000Z</Time>
            <Position>
              <LatitudeDegrees>43.4987795166671276092529296875</LatitudeDegrees>
              <LongitudeDegrees>-1.4819897152483463287353515625</LongitudeDegrees>
            </Position>
            <AltitudeMeters>9.80000019073486328125</AltitudeMeters>
            <DistanceMeters>NAN</DistanceMeters>
          </Trackpoint>
          <Trackpoint>
            <Time>2022-07-07T13:10:56.000Z</Time>
            <Position>
              <LatitudeDegrees>43.4986356832087039947509765625</LatitudeDegrees>
              <LongitudeDegrees>-1.48173767141997814178466796875</LongitudeDegrees>
            </Position>
            <AltitudeMeters>9.3999996185302734375</AltitudeMeters>
            <DistanceMeters>NAN</DistanceMeters>
          </Trackpoint>
          <Trackpoint>
            <Time>2022-07-07T13:10:57.000Z</Time>
            <Position>
              <LatitudeDegrees>43.49861782975494861602783203125</LatitudeDegrees>
              <LongitudeDegrees>-1.48169525898993015289306640625</LongitudeDegrees>
            </Position>
            <AltitudeMeters>9.3999996185302734375</AltitudeMeters>
            <DistanceMeters>NAN</DistanceMeters>
          </Trackpoint>
          <Trackpoint>
            <Time>2022-07-07T13:11:01.000Z</Time>
            <Position>
              <LatitudeDegrees>43.49859419278800487518310546875</LatitudeDegrees>
              <LongitudeDegrees>-1.4815330691635608673095703125</LongitudeDegrees>
            </Position>
            <AltitudeMeters>9.80000019073486328125</AltitudeMeters>
            <DistanceMeters>NAN</DistanceMeters>
          </Trackpoint>
          <Trackpoint>
            <Time>2022-07-07T13:11:02.000Z</Time>
            <Position>
              <LatitudeDegrees>43.49857860244810581207275390625</LatitudeDegrees>
              <LongitudeDegrees>-1.48149509914219379425048828125</LongitudeDegrees>
            </Position>
            <AltitudeMeters>10</AltitudeMeters>
            <DistanceMeters>NAN</DistanceMeters>
          </Trackpoint>
          <Trackpoint>
            <Time>2022-07-07T13:11:09.000Z</Time>
            <Position>
              <LatitudeDegrees>43.4984412230551242828369140625</LatitudeDegrees>
              <LongitudeDegrees>-1.48125772364437580108642578125</LongitudeDegrees>
            </Position>
            <AltitudeMeters>10.19999980926513671875</AltitudeMeters>
            <DistanceMeters>NAN</DistanceMeters>
          </Trackpoint>
          <Trackpoint>
            <Time>2022-07-07T13:11:16.000Z</Time>
            <Position>
              <LatitudeDegrees>43.4983071126043796539306640625</LatitudeDegrees>
              <LongitudeDegrees>-1.48097408004105091094970703125</LongitudeDegrees>
            </Position>
            <AltitudeMeters>10</AltitudeMeters>
            <DistanceMeters>NAN</DistanceMeters>
          </Trackpoint>
          <Trackpoint>
            <Time>2022-07-07T13:11:25.000Z</Time>
            <Position>
              <LatitudeDegrees>43.498155735433101654052734375</LatitudeDegrees>
              <LongitudeDegrees>-1.48060058243572711944580078125</LongitudeDegrees>
            </Position>
            <AltitudeMeters>9.80000019073486328125</AltitudeMeters>
            <DistanceMeters>NAN</DistanceMeters>
          </Trackpoint>
          <Trackpoint>
            <Time>2022-07-07T13:11:34.000Z</Time>
            <Position>
              <LatitudeDegrees>43.4979949705302715301513671875</LatitudeDegrees>
              <LongitudeDegrees>-1.48015114478766918182373046875</LongitudeDegrees>
            </Position>
            <AltitudeMeters>9.3999996185302734375</AltitudeMeters>
            <DistanceMeters>NAN</DistanceMeters>
          </Trackpoint>
          <Trackpoint>
            <Time>2022-07-07T13:11:39.000Z</Time>
            <Position>
              <LatitudeDegrees>43.497893549501895904541015625</LatitudeDegrees>
              <LongitudeDegrees>-1.47991024889051914215087890625</LongitudeDegrees>
            </Position>
            <AltitudeMeters>9.3999996185302734375</AltitudeMeters>
            <DistanceMeters>NAN</DistanceMeters>
          </Trackpoint>
          <Trackpoint>
            <Time>2022-07-07T13:11:43.000Z</Time>
            <Position>
              <LatitudeDegrees>43.497809730470180511474609375</LatitudeDegrees>
              <LongitudeDegrees>-1.479686200618743896484375</LongitudeDegrees>
            </Position>
            <AltitudeMeters>9.6000003814697265625</AltitudeMeters>
            <DistanceMeters>NAN</DistanceMeters>
          </Trackpoint>
          <Trackpoint>
            <Time>2022-07-07T13:11:52.000Z</Time>
            <Position>
              <LatitudeDegrees>43.49765877239406108856201171875</LatitudeDegrees>
              <LongitudeDegrees>-1.479198038578033447265625</LongitudeDegrees>
            </Position>
            <AltitudeMeters>9.3999996185302734375</AltitudeMeters>
            <DistanceMeters>NAN</DistanceMeters>
          </Trackpoint>
          <Trackpoint>
            <Time>2022-07-07T13:11:58.000Z</Time>
            <Position>
              <LatitudeDegrees>43.49754595197737216949462890625</LatitudeDegrees>
              <LongitudeDegrees>-1.4788319170475006103515625</LongitudeDegrees>
            </Position>
            <AltitudeMeters>9.3999996185302734375</AltitudeMeters>
            <DistanceMeters>NAN</DistanceMeters>
          </Trackpoint>
          <Trackpoint>
            <Time>2022-07-07T13:11:59.000Z</Time>
            <Position>
              <LatitudeDegrees>43.497525416314601898193359375</LatitudeDegrees>
              <LongitudeDegrees>-1.4787653647363185882568359375</LongitudeDegrees>
            </Position>
            <AltitudeMeters>9.3999996185302734375</AltitudeMeters>
            <DistanceMeters>NAN</DistanceMeters>
          </Trackpoint>
          <Trackpoint>
            <Time>2022-07-07T13:12:01.000Z</Time>
            <Position>
              <LatitudeDegrees>43.497479818761348724365234375</LatitudeDegrees>
              <LongitudeDegrees>-1.4786248840391635894775390625</LongitudeDegrees>
            </Position>
            <AltitudeMeters>9.19999980926513671875</AltitudeMeters>
            <DistanceMeters>NAN</DistanceMeters>
          </Trackpoint>
          <Trackpoint>
            <Time>2022-07-07T13:12:07.000Z</Time>
            <Position>
              <LatitudeDegrees>43.49735685624182224273681640625</LatitudeDegrees>
              <LongitudeDegrees>-1.4782607741653919219970703125</LongitudeDegrees>
            </Position>
            <AltitudeMeters>9</AltitudeMeters>
            <DistanceMeters>NAN</DistanceMeters>
          </Trackpoint>
          <Trackpoint>
            <Time>2022-07-07T13:12:11.000Z</Time>
            <Position>
              <LatitudeDegrees>43.497287370264530181884765625</LatitudeDegrees>
              <LongitudeDegrees>-1.47801476530730724334716796875</LongitudeDegrees>
            </Position>
            <AltitudeMeters>9</AltitudeMeters>
            <DistanceMeters>NAN</DistanceMeters>
          </Trackpoint>
          <Trackpoint>
            <Time>2022-07-07T13:12:14.000Z</Time>
            <Position>
              <LatitudeDegrees>43.49724520929157733917236328125</LatitudeDegrees>
              <LongitudeDegrees>-1.47782332263886928558349609375</LongitudeDegrees>
            </Position>
            <AltitudeMeters>9</AltitudeMeters>
            <DistanceMeters>NAN</DistanceMeters>
          </Trackpoint>
          <Trackpoint>
            <Time>2022-07-07T13:12:15.000Z</Time>
            <Position>
              <LatitudeDegrees>43.49723062478005886077880859375</LatitudeDegrees>
              <LongitudeDegrees>-1.4777625538408756256103515625</LongitudeDegrees>
            </Position>
            <AltitudeMeters>9</AltitudeMeters>
            <DistanceMeters>NAN</DistanceMeters>
          </Trackpoint>
          <Trackpoint>
            <Time>2022-07-07T13:12:22.000Z</Time>
            <Position>
              <LatitudeDegrees>43.497137166559696197509765625</LatitudeDegrees>
              <LongitudeDegrees>-1.47733859717845916748046875</LongitudeDegrees>
            </Position>
            <AltitudeMeters>9</AltitudeMeters>
            <DistanceMeters>NAN</DistanceMeters>
          </Trackpoint>
          <Trackpoint>
            <Time>2022-07-07T13:12:25.000Z</Time>
            <Position>
              <LatitudeDegrees>43.49709332920610904693603515625</LatitudeDegrees>
              <LongitudeDegrees>-1.47714891470968723297119140625</LongitudeDegrees>
            </Position>
            <AltitudeMeters>9</AltitudeMeters>
            <DistanceMeters>NAN</DistanceMeters>
          </Trackpoint>
          <Trackpoint>
            <Time>2022-07-07T13:12:35.000Z</Time>
            <Position>
              <LatitudeDegrees>43.4969623200595378875732421875</LatitudeDegrees>
              <LongitudeDegrees>-1.47659671492874622344970703125</LongitudeDegrees>
            </Position>
            <AltitudeMeters>9</AltitudeMeters>
            <DistanceMeters>NAN</DistanceMeters>
          </Trackpoint>
          <Trackpoint>
            <Time>2022-07-07T13:12:40.000Z</Time>
            <Position>
              <LatitudeDegrees>43.49688143469393253326416015625</LatitudeDegrees>
              <LongitudeDegrees>-1.476418264210224151611328125</LongitudeDegrees>
            </Position>
            <AltitudeMeters>9.3999996185302734375</AltitudeMeters>
            <DistanceMeters>NAN</DistanceMeters>
          </Trackpoint>
          <Trackpoint>
            <Time>2022-07-07T13:12:45.000Z</Time>
            <Position>
              <LatitudeDegrees>43.49683307111263275146484375</LatitudeDegrees>
              <LongitudeDegrees>-1.47639219649136066436767578125</LongitudeDegrees>
            </Position>
            <AltitudeMeters>9.3999996185302734375</AltitudeMeters>
            <DistanceMeters>NAN</DistanceMeters>
          </Trackpoint>
          <Trackpoint>
            <Time>2022-07-07T13:12:46.000Z</Time>
            <Position>
              <LatitudeDegrees>43.49683307111263275146484375</LatitudeDegrees>
              <LongitudeDegrees>-1.47639219649136066436767578125</LongitudeDegrees>
            </Position>
            <AltitudeMeters>9.19999980926513671875</AltitudeMeters>
            <DistanceMeters>NAN</DistanceMeters>
          </Trackpoint>
          <Trackpoint>
            <Time>2022-07-07T13:13:27.000Z</Time>
            <Position>
              <LatitudeDegrees>43.49684136919677257537841796875</LatitudeDegrees>
              <LongitudeDegrees>-1.476317010819911956787109375</LongitudeDegrees>
            </Position>
            <AltitudeMeters>9.3999996185302734375</AltitudeMeters>
            <DistanceMeters>NAN</DistanceMeters>
          </Trackpoint>
          <Trackpoint>
            <Time>2022-07-07T13:13:28.000Z</Time>
            <Position>
              <LatitudeDegrees>43.4968432970345020294189453125</LatitudeDegrees>
              <LongitudeDegrees>-1.47628893144428730010986328125</LongitudeDegrees>
            </Position>
            <AltitudeMeters>9.3999996185302734375</AltitudeMeters>
            <DistanceMeters>NAN</DistanceMeters>
          </Trackpoint>
          <Trackpoint>
            <Time>2022-07-07T13:13:29.000Z</Time>
            <Position>
              <LatitudeDegrees>43.49684505723416805267333984375</LatitudeDegrees>
              <LongitudeDegrees>-1.476257331669330596923828125</LongitudeDegrees>
            </Position>
            <AltitudeMeters>9.3999996185302734375</AltitudeMeters>
            <DistanceMeters>NAN</DistanceMeters>
          </Trackpoint>
          <Trackpoint>
            <Time>2022-07-07T13:13:35.000Z</Time>
            <Position>
              <LatitudeDegrees>43.49681085906922817230224609375</LatitudeDegrees>
              <LongitudeDegrees>-1.4760331995785236358642578125</LongitudeDegrees>
            </Position>
            <AltitudeMeters>9.3999996185302734375</AltitudeMeters>
            <DistanceMeters>NAN</DistanceMeters>
          </Trackpoint>
          <Trackpoint>
            <Time>2022-07-07T13:13:43.000Z</Time>
            <Position>
              <LatitudeDegrees>43.4967343322932720184326171875</LatitudeDegrees>
              <LongitudeDegrees>-1.47570286877453327178955078125</LongitudeDegrees>
            </Position>
            <AltitudeMeters>9.6000003814697265625</AltitudeMeters>
            <DistanceMeters>NAN</DistanceMeters>
          </Trackpoint>
          <Trackpoint>
            <Time>2022-07-07T13:13:49.000Z</Time>
            <Position>
              <LatitudeDegrees>43.4966454841196537017822265625</LatitudeDegrees>
              <LongitudeDegrees>-1.4753960072994232177734375</LongitudeDegrees>
            </Position>
            <AltitudeMeters>9.3999996185302734375</AltitudeMeters>
            <DistanceMeters>NAN</DistanceMeters>
          </Trackpoint>
          <Trackpoint>
            <Time>2022-07-07T13:13:53.000Z</Time>
            <Position>
              <LatitudeDegrees>43.49659033119678497314453125</LatitudeDegrees>
              <LongitudeDegrees>-1.4751769043505191802978515625</LongitudeDegrees>
            </Position>
            <AltitudeMeters>9.6000003814697265625</AltitudeMeters>
            <DistanceMeters>NAN</DistanceMeters>
          </Trackpoint>
          <Trackpoint>
            <Time>2022-07-07T13:13:57.000Z</Time>
            <Position>
              <LatitudeDegrees>43.496530987322330474853515625</LatitudeDegrees>
              <LongitudeDegrees>-1.47495185025036334991455078125</LongitudeDegrees>
            </Position>
            <AltitudeMeters>9.3999996185302734375</AltitudeMeters>
            <DistanceMeters>NAN</DistanceMeters>
          </Trackpoint>
          <Trackpoint>
            <Time>2022-07-07T13:14:00.000Z</Time>
            <Position>
              <LatitudeDegrees>43.496482707560062408447265625</LatitudeDegrees>
              <LongitudeDegrees>-1.47478102706372737884521484375</LongitudeDegrees>
            </Position>
            <AltitudeMeters>9.3999996185302734375</AltitudeMeters>
            <DistanceMeters>NAN</DistanceMeters>
          </Trackpoint>
          <Trackpoint>
            <Time>2022-07-07T13:14:05.000Z</Time>
            <Position>
              <LatitudeDegrees>43.496403582394123077392578125</LatitudeDegrees>
              <LongitudeDegrees>-1.47446469403803348541259765625</LongitudeDegrees>
            </Position>
            <AltitudeMeters>9.3999996185302734375</AltitudeMeters>
            <DistanceMeters>NAN</DistanceMeters>
          </Trackpoint>
          <Trackpoint>
            <Time>2022-07-07T13:14:13.000Z</Time>
            <Position>
              <LatitudeDegrees>43.49627173505723476409912109375</LatitudeDegrees>
              <LongitudeDegrees>-1.473926492035388946533203125</LongitudeDegrees>
            </Position>
            <AltitudeMeters>9.3999996185302734375</AltitudeMeters>
            <DistanceMeters>NAN</DistanceMeters>
          </Trackpoint>
          <Trackpoint>
            <Time>2022-07-07T13:14:16.000Z</Time>
            <Position>
              <LatitudeDegrees>43.496217168867588043212890625</LatitudeDegrees>
              <LongitudeDegrees>-1.4737382344901561737060546875</LongitudeDegrees>
            </Position>
            <AltitudeMeters>9.19999980926513671875</AltitudeMeters>
            <DistanceMeters>NAN</DistanceMeters>
          </Trackpoint>
          <Trackpoint>
            <Time>2022-07-07T13:14:21.000Z</Time>
            <Position>
              <LatitudeDegrees>43.49613158963620662689208984375</LatitudeDegrees>
              <LongitudeDegrees>-1.47344143129885196685791015625</LongitudeDegrees>
            </Position>
            <AltitudeMeters>9</AltitudeMeters>
            <DistanceMeters>NAN</DistanceMeters>
          </Trackpoint>
          <Trackpoint>
            <Time>2022-07-07T13:14:24.000Z</Time>
            <Position>
              <LatitudeDegrees>43.49607207812368869781494140625</LatitudeDegrees>
              <LongitudeDegrees>-1.473264656960964202880859375</LongitudeDegrees>
            </Position>
            <AltitudeMeters>9</AltitudeMeters>
            <DistanceMeters>NAN</DistanceMeters>
          </Trackpoint>
          <Trackpoint>
            <Time>2022-07-07T13:14:27.000Z</Time>
            <Position>
              <LatitudeDegrees>43.49602011032402515411376953125</LatitudeDegrees>
              <LongitudeDegrees>-1.473082602024078369140625</LongitudeDegrees>
            </Position>
            <AltitudeMeters>9</AltitudeMeters>
            <DistanceMeters>NAN</DistanceMeters>
          </Trackpoint>
          <Trackpoint>
            <Time>2022-07-07T13:14:28.000Z</Time>
            <Position>
              <LatitudeDegrees>43.4960014186799526214599609375</LatitudeDegrees>
              <LongitudeDegrees>-1.473032645881175994873046875</LongitudeDegrees>
            </Position>
            <AltitudeMeters>9</AltitudeMeters>
            <DistanceMeters>NAN</DistanceMeters>
          </Trackpoint>
          <Trackpoint>
            <Time>2022-07-07T13:14:29.000Z</Time>
            <Position>
              <LatitudeDegrees>43.4959789551794528961181640625</LatitudeDegrees>
              <LongitudeDegrees>-1.47295813076198101043701171875</LongitudeDegrees>
            </Position>
            <AltitudeMeters>9</AltitudeMeters>
            <DistanceMeters>NAN</DistanceMeters>
          </Trackpoint>
          <Trackpoint>
            <Time>2022-07-07T13:14:30.000Z</Time>
            <Position>
              <LatitudeDegrees>43.49596143700182437896728515625</LatitudeDegrees>
              <LongitudeDegrees>-1.47289476357400417327880859375</LongitudeDegrees>
            </Position>
            <AltitudeMeters>9</AltitudeMeters>
            <DistanceMeters>NAN</DistanceMeters>
          </Trackpoint>
          <Trackpoint>
            <Time>2022-07-07T13:14:41.000Z</Time>
            <Position>
              <LatitudeDegrees>43.49576379172503948211669921875</LatitudeDegrees>
              <LongitudeDegrees>-1.47220912389457225799560546875</LongitudeDegrees>
            </Position>
            <AltitudeMeters>9</AltitudeMeters>
            <DistanceMeters>NAN</DistanceMeters>
          </Trackpoint>
          <Trackpoint>
            <Time>2022-07-07T13:14:45.000Z</Time>
            <Position>
              <LatitudeDegrees>43.4957003407180309295654296875</LatitudeDegrees>
              <LongitudeDegrees>-1.4719954691827297210693359375</LongitudeDegrees>
            </Position>
            <AltitudeMeters>9</AltitudeMeters>
            <DistanceMeters>NAN</DistanceMeters>
          </Trackpoint>
          <Trackpoint>
            <Time>2022-07-07T13:14:48.000Z</Time>
            <Position>
              <LatitudeDegrees>43.4956575930118560791015625</LatitudeDegrees>
              <LongitudeDegrees>-1.47183110006153583526611328125</LongitudeDegrees>
            </Position>
            <AltitudeMeters>8.80000019073486328125</AltitudeMeters>
            <DistanceMeters>NAN</DistanceMeters>
          </Trackpoint>
          <Trackpoint>
            <Time>2022-07-07T13:14:52.000Z</Time>
            <Position>
              <LatitudeDegrees>43.495572097599506378173828125</LatitudeDegrees>
              <LongitudeDegrees>-1.47163261659443378448486328125</LongitudeDegrees>
            </Position>
            <AltitudeMeters>8.80000019073486328125</AltitudeMeters>
            <DistanceMeters>NAN</DistanceMeters>
          </Trackpoint>
          <Trackpoint>
            <Time>2022-07-07T13:14:57.000Z</Time>
            <Position>
              <LatitudeDegrees>43.4955060482025146484375</LatitudeDegrees>
              <LongitudeDegrees>-1.47142407484352588653564453125</LongitudeDegrees>
            </Position>
            <AltitudeMeters>8.80000019073486328125</AltitudeMeters>
            <DistanceMeters>NAN</DistanceMeters>
          </Trackpoint>
          <Trackpoint>
            <Time>2022-07-07T13:15:05.000Z</Time>
            <Position>
              <LatitudeDegrees>43.49534804932773113250732421875</LatitudeDegrees>
              <LongitudeDegrees>-1.47109449841082096099853515625</LongitudeDegrees>
            </Position>
            <AltitudeMeters>9</AltitudeMeters>
            <DistanceMeters>NAN</DistanceMeters>
          </Trackpoint>
          <Trackpoint>
            <Time>2022-07-07T13:15:09.000Z</Time>
            <Position>
              <LatitudeDegrees>43.49527797661721706390380859375</LatitudeDegrees>
              <LongitudeDegrees>-1.4709926582872867584228515625</LongitudeDegrees>
            </Position>
            <AltitudeMeters>8.80000019073486328125</AltitudeMeters>
            <DistanceMeters>NAN</DistanceMeters>
          </Trackpoint>
          <Trackpoint>
            <Time>2022-07-07T13:15:13.000Z</Time>
            <Position>
              <LatitudeDegrees>43.49526154808700084686279296875</LatitudeDegrees>
              <LongitudeDegrees>-1.47098712623119354248046875</LongitudeDegrees>
            </Position>
            <AltitudeMeters>8.80000019073486328125</AltitudeMeters>
            <DistanceMeters>NAN</DistanceMeters>
          </Trackpoint>
          <Trackpoint>
            <Time>2022-07-07T13:16:01.000Z</Time>
            <Position>
              <LatitudeDegrees>43.49525316618382930755615234375</LatitudeDegrees>
              <LongitudeDegrees>-1.47096022032201290130615234375</LongitudeDegrees>
            </Position>
            <AltitudeMeters>8.80000019073486328125</AltitudeMeters>
            <DistanceMeters>NAN</DistanceMeters>
          </Trackpoint>
          <Trackpoint>
            <Time>2022-07-07T13:16:02.000Z</Time>
            <Position>
              <LatitudeDegrees>43.4952480532228946685791015625</LatitudeDegrees>
              <LongitudeDegrees>-1.47093373350799083709716796875</LongitudeDegrees>
            </Position>
            <AltitudeMeters>8.80000019073486328125</AltitudeMeters>
            <DistanceMeters>NAN</DistanceMeters>
          </Trackpoint>
          <Trackpoint>
            <Time>2022-07-07T13:16:04.000Z</Time>
            <Position>
              <LatitudeDegrees>43.49523640237748622894287109375</LatitudeDegrees>
              <LongitudeDegrees>-1.4708719588816165924072265625</LongitudeDegrees>
            </Position>
            <AltitudeMeters>8.80000019073486328125</AltitudeMeters>
            <DistanceMeters>NAN</DistanceMeters>
          </Trackpoint>
          <Trackpoint>
            <Time>2022-07-07T13:16:08.000Z</Time>
            <Position>
              <LatitudeDegrees>43.49518309347331523895263671875</LatitudeDegrees>
              <LongitudeDegrees>-1.470762826502323150634765625</LongitudeDegrees>
            </Position>
            <AltitudeMeters>9</AltitudeMeters>
            <DistanceMeters>NAN</DistanceMeters>
          </Trackpoint>
          <Trackpoint>
            <Time>2022-07-07T13:16:15.000Z</Time>
            <Position>
              <LatitudeDegrees>43.49509391002357006072998046875</LatitudeDegrees>
              <LongitudeDegrees>-1.47064112126827239990234375</LongitudeDegrees>
            </Position>
            <AltitudeMeters>9.6000003814697265625</AltitudeMeters>
            <DistanceMeters>NAN</DistanceMeters>
          </Trackpoint>
          <Trackpoint>
            <Time>2022-07-07T13:16:22.000Z</Time>
            <Position>
              <LatitudeDegrees>43.49491101689636707305908203125</LatitudeDegrees>
              <LongitudeDegrees>-1.47034767083823680877685546875</LongitudeDegrees>
            </Position>
            <AltitudeMeters>9.3999996185302734375</AltitudeMeters>
            <DistanceMeters>NAN</DistanceMeters>
          </Trackpoint>
          <Trackpoint>
            <Time>2022-07-07T13:16:23.000Z</Time>
            <Position>
              <LatitudeDegrees>43.49488536827266216278076171875</LatitudeDegrees>
              <LongitudeDegrees>-1.470317579805850982666015625</LongitudeDegrees>
            </Position>
            <AltitudeMeters>9.19999980926513671875</AltitudeMeters>
            <DistanceMeters>NAN</DistanceMeters>
          </Trackpoint>
          <Trackpoint>
            <Time>2022-07-07T13:16:29.000Z</Time>
            <Position>
              <LatitudeDegrees>43.4947904013097286224365234375</LatitudeDegrees>
              <LongitudeDegrees>-1.47016762755811214447021484375</LongitudeDegrees>
            </Position>
            <AltitudeMeters>8.80000019073486328125</AltitudeMeters>
            <DistanceMeters>NAN</DistanceMeters>
          </Trackpoint>
          <Trackpoint>
            <Time>2022-07-07T13:16:36.000Z</Time>
            <Position>
              <LatitudeDegrees>43.4946489147841930389404296875</LatitudeDegrees>
              <LongitudeDegrees>-1.46995271556079387664794921875</LongitudeDegrees>
            </Position>
            <AltitudeMeters>8.6000003814697265625</AltitudeMeters>
            <DistanceMeters>NAN</DistanceMeters>
          </Trackpoint>
          <Trackpoint>
            <Time>2022-07-07T13:16:44.000Z</Time>
            <Position>
              <LatitudeDegrees>43.4945134632289409637451171875</LatitudeDegrees>
              <LongitudeDegrees>-1.4697994105517864227294921875</LongitudeDegrees>
            </Position>
            <AltitudeMeters>8.6000003814697265625</AltitudeMeters>
            <DistanceMeters>NAN</DistanceMeters>
          </Trackpoint>
          <Trackpoint>
            <Time>2022-07-07T13:16:49.000Z</Time>
            <Position>
              <LatitudeDegrees>43.49444179795682430267333984375</LatitudeDegrees>
              <LongitudeDegrees>-1.4696840755641460418701171875</LongitudeDegrees>
            </Position>
            <AltitudeMeters>8.3999996185302734375</AltitudeMeters>
            <DistanceMeters>NAN</DistanceMeters>
          </Trackpoint>
          <Trackpoint>
            <Time>2022-07-07T13:16:50.000Z</Time>
            <Position>
              <LatitudeDegrees>43.49442754872143268585205078125</LatitudeDegrees>
              <LongitudeDegrees>-1.469661109149456024169921875</LongitudeDegrees>
            </Position>
            <AltitudeMeters>8.3999996185302734375</AltitudeMeters>
            <DistanceMeters>NAN</DistanceMeters>
          </Trackpoint>
          <Trackpoint>
            <Time>2022-07-07T13:16:59.000Z</Time>
            <Position>
              <LatitudeDegrees>43.494267873466014862060546875</LatitudeDegrees>
              <LongitudeDegrees>-1.469486765563488006591796875</LongitudeDegrees>
            </Position>
            <AltitudeMeters>8.3999996185302734375</AltitudeMeters>
            <DistanceMeters>NAN</DistanceMeters>
          </Trackpoint>
          <Trackpoint>
            <Time>2022-07-07T13:17:00.000Z</Time>
            <Position>
              <LatitudeDegrees>43.49426376633346080780029296875</LatitudeDegrees>
              <LongitudeDegrees>-1.4694671519100666046142578125</LongitudeDegrees>
            </Position>
            <AltitudeMeters>8.3999996185302734375</AltitudeMeters>
            <DistanceMeters>NAN</DistanceMeters>
          </Trackpoint>
          <Trackpoint>
            <Time>2022-07-07T13:17:02.000Z</Time>
            <Position>
              <LatitudeDegrees>43.49427600391209125518798828125</LatitudeDegrees>
              <LongitudeDegrees>-1.46945700980722904205322265625</LongitudeDegrees>
            </Position>
            <AltitudeMeters>8.19999980926513671875</AltitudeMeters>
            <DistanceMeters>NAN</DistanceMeters>
          </Trackpoint>
          <Trackpoint>
            <Time>2022-07-07T13:17:07.000Z</Time>
            <Position>
              <LatitudeDegrees>43.494346998631954193115234375</LatitudeDegrees>
              <LongitudeDegrees>-1.46956865675747394561767578125</LongitudeDegrees>
            </Position>
            <AltitudeMeters>8.80000019073486328125</AltitudeMeters>
            <DistanceMeters>NAN</DistanceMeters>
          </Trackpoint>
          <Trackpoint>
            <Time>2022-07-07T13:17:12.000Z</Time>
            <Position>
              <LatitudeDegrees>43.494458980858325958251953125</LatitudeDegrees>
              <LongitudeDegrees>-1.46967954933643341064453125</LongitudeDegrees>
            </Position>
            <AltitudeMeters>8.6000003814697265625</AltitudeMeters>
            <DistanceMeters>NAN</DistanceMeters>
          </Trackpoint>
          <Trackpoint>
            <Time>2022-07-07T13:17:16.000Z</Time>
            <Position>
              <LatitudeDegrees>43.49456769414246082305908203125</LatitudeDegrees>
              <LongitudeDegrees>-1.4695912040770053863525390625</LongitudeDegrees>
            </Position>
            <AltitudeMeters>8.19999980926513671875</AltitudeMeters>
            <DistanceMeters>NAN</DistanceMeters>
          </Trackpoint>
          <Trackpoint>
            <Time>2022-07-07T13:17:17.000Z</Time>
            <Position>
              <LatitudeDegrees>43.494595102965831756591796875</LatitudeDegrees>
              <LongitudeDegrees>-1.4695992507040500640869140625</LongitudeDegrees>
            </Position>
            <AltitudeMeters>8</AltitudeMeters>
            <DistanceMeters>NAN</DistanceMeters>
          </Trackpoint>
          <Trackpoint>
            <Time>2022-07-07T13:17:22.000Z</Time>
            <Position>
              <LatitudeDegrees>43.49469861947000026702880859375</LatitudeDegrees>
              <LongitudeDegrees>-1.46973880939185619354248046875</LongitudeDegrees>
            </Position>
            <AltitudeMeters>8.3999996185302734375</AltitudeMeters>
            <DistanceMeters>NAN</DistanceMeters>
          </Trackpoint>
          <Trackpoint>
            <Time>2022-07-07T13:17:25.000Z</Time>
            <Position>
              <LatitudeDegrees>43.49475813098251819610595703125</LatitudeDegrees>
              <LongitudeDegrees>-1.46984827704727649688720703125</LongitudeDegrees>
            </Position>
            <AltitudeMeters>8.6000003814697265625</AltitudeMeters>
            <DistanceMeters>NAN</DistanceMeters>
          </Trackpoint>
          <Trackpoint>
            <Time>2022-07-07T13:17:27.000Z</Time>
            <Position>
              <LatitudeDegrees>43.49479886703193187713623046875</LatitudeDegrees>
              <LongitudeDegrees>-1.46990946494042873382568359375</LongitudeDegrees>
            </Position>
            <AltitudeMeters>8.6000003814697265625</AltitudeMeters>
            <DistanceMeters>NAN</DistanceMeters>
          </Trackpoint>
          <Trackpoint>
            <Time>2022-07-07T13:17:31.000Z</Time>
            <Position>
              <LatitudeDegrees>43.4948681853711605072021484375</LatitudeDegrees>
              <LongitudeDegrees>-1.470073163509368896484375</LongitudeDegrees>
            </Position>
            <AltitudeMeters>8.3999996185302734375</AltitudeMeters>
            <DistanceMeters>NAN</DistanceMeters>
          </Trackpoint>
          <Trackpoint>
            <Time>2022-07-07T13:17:33.000Z</Time>
            <Position>
              <LatitudeDegrees>43.4949067421257495880126953125</LatitudeDegrees>
              <LongitudeDegrees>-1.4701263047754764556884765625</LongitudeDegrees>
            </Position>
            <AltitudeMeters>8.6000003814697265625</AltitudeMeters>
            <DistanceMeters>NAN</DistanceMeters>
          </Trackpoint>
          <Trackpoint>
            <Time>2022-07-07T13:17:35.000Z</Time>
            <Position>
              <LatitudeDegrees>43.49495359696447849273681640625</LatitudeDegrees>
              <LongitudeDegrees>-1.47011364810168743133544921875</LongitudeDegrees>
            </Position>
            <AltitudeMeters>8.6000003814697265625</AltitudeMeters>
            <DistanceMeters>NAN</DistanceMeters>
          </Trackpoint>
          <Trackpoint>
            <Time>2022-07-07T13:17:42.000Z</Time>
            <Position>
              <LatitudeDegrees>43.49509106017649173736572265625</LatitudeDegrees>
              <LongitudeDegrees>-1.47001256234943866729736328125</LongitudeDegrees>
            </Position>
            <AltitudeMeters>8.6000003814697265625</AltitudeMeters>
            <DistanceMeters>NAN</DistanceMeters>
          </Trackpoint>
          <Trackpoint>
            <Time>2022-07-07T13:17:44.000Z</Time>
            <Position>
              <LatitudeDegrees>43.49513330496847629547119140625</LatitudeDegrees>
              <LongitudeDegrees>-1.46997685544192790985107421875</LongitudeDegrees>
            </Position>
            <AltitudeMeters>8.6000003814697265625</AltitudeMeters>
            <DistanceMeters>NAN</DistanceMeters>
          </Trackpoint>
          <Trackpoint>
            <Time>2022-07-07T13:17:47.000Z</Time>
            <Position>
              <LatitudeDegrees>43.49517856724560260772705078125</LatitudeDegrees>
              <LongitudeDegrees>-1.469944417476654052734375</LongitudeDegrees>
            </Position>
            <AltitudeMeters>8.80000019073486328125</AltitudeMeters>
            <DistanceMeters>NAN</DistanceMeters>
          </Trackpoint>
          <Trackpoint>
            <Time>2022-07-07T13:17:49.000Z</Time>
            <Position>
              <LatitudeDegrees>43.49520237185060977935791015625</LatitudeDegrees>
              <LongitudeDegrees>-1.46995657123625278472900390625</LongitudeDegrees>
            </Position>
            <AltitudeMeters>8.80000019073486328125</AltitudeMeters>
            <DistanceMeters>NAN</DistanceMeters>
          </Trackpoint>
          <Trackpoint>
            <Time>2022-07-07T13:17:54.000Z</Time>
            <Position>
              <LatitudeDegrees>43.4952403418719768524169921875</LatitudeDegrees>
              <LongitudeDegrees>-1.4700471796095371246337890625</LongitudeDegrees>
            </Position>
            <AltitudeMeters>9.19999980926513671875</AltitudeMeters>
            <DistanceMeters>NAN</DistanceMeters>
          </Trackpoint>
          <Trackpoint>
            <Time>2022-07-07T13:17:56.000Z</Time>
            <Position>
              <LatitudeDegrees>43.49525316618382930755615234375</LatitudeDegrees>
              <LongitudeDegrees>-1.47008992731571197509765625</LongitudeDegrees>
            </Position>
            <AltitudeMeters>9.3999996185302734375</AltitudeMeters>
            <DistanceMeters>NAN</DistanceMeters>
          </Trackpoint>
          <Trackpoint>
            <Time>2022-07-07T13:18:03.000Z</Time>
            <Position>
              <LatitudeDegrees>43.4952862747013568878173828125</LatitudeDegrees>
              <LongitudeDegrees>-1.4702614210546016693115234375</LongitudeDegrees>
            </Position>
            <AltitudeMeters>10.19999980926513671875</AltitudeMeters>
            <DistanceMeters>NAN</DistanceMeters>
          </Trackpoint>
          <Trackpoint>
            <Time>2022-07-07T13:18:04.000Z</Time>
            <Position>
              <LatitudeDegrees>43.4952866099774837493896484375</LatitudeDegrees>
              <LongitudeDegrees>-1.470288075506687164306640625</LongitudeDegrees>
            </Position>
            <AltitudeMeters>10.3999996185302734375</AltitudeMeters>
            <DistanceMeters>NAN</DistanceMeters>
          </Trackpoint>
          <Trackpoint>
            <Time>2022-07-07T13:18:09.000Z</Time>
            <Position>
              <LatitudeDegrees>43.495242185890674591064453125</LatitudeDegrees>
              <LongitudeDegrees>-1.47040986455976963043212890625</LongitudeDegrees>
            </Position>
            <AltitudeMeters>11.3999996185302734375</AltitudeMeters>
            <DistanceMeters>NAN</DistanceMeters>
          </Trackpoint>
          <Trackpoint>
            <Time>2022-07-07T13:18:11.000Z</Time>
            <Position>
              <LatitudeDegrees>43.49522030912339687347412109375</LatitudeDegrees>
              <LongitudeDegrees>-1.47046233527362346649169921875</LongitudeDegrees>
            </Position>
            <AltitudeMeters>11.6000003814697265625</AltitudeMeters>
            <DistanceMeters>NAN</DistanceMeters>
          </Trackpoint>
          <Trackpoint>
            <Time>2022-07-07T13:18:16.000Z</Time>
            <Position>
              <LatitudeDegrees>43.495163060724735260009765625</LatitudeDegrees>
              <LongitudeDegrees>-1.4705594815313816070556640625</LongitudeDegrees>
            </Position>
            <AltitudeMeters>12.3999996185302734375</AltitudeMeters>
            <DistanceMeters>NAN</DistanceMeters>
          </Trackpoint>
          <Trackpoint>
            <Time>2022-07-07T13:18:22.000Z</Time>
            <Position>
              <LatitudeDegrees>43.495085947215557098388671875</LatitudeDegrees>
              <LongitudeDegrees>-1.47066635079681873321533203125</LongitudeDegrees>
            </Position>
            <AltitudeMeters>13.3999996185302734375</AltitudeMeters>
            <DistanceMeters>NAN</DistanceMeters>
          </Trackpoint>
          <Trackpoint>
            <Time>2022-07-07T13:18:23.000Z</Time>
            <Position>
              <LatitudeDegrees>43.49506826139986515045166015625</LatitudeDegrees>
              <LongitudeDegrees>-1.47068512625992298126220703125</LongitudeDegrees>
            </Position>
            <AltitudeMeters>13.3999996185302734375</AltitudeMeters>
            <DistanceMeters>NAN</DistanceMeters>
          </Trackpoint>
          <Trackpoint>
            <Time>2022-07-07T13:18:27.000Z</Time>
            <Position>
              <LatitudeDegrees>43.49500170908868312835693359375</LatitudeDegrees>
              <LongitudeDegrees>-1.4707599766552448272705078125</LongitudeDegrees>
            </Position>
            <AltitudeMeters>13.6000003814697265625</AltitudeMeters>
            <DistanceMeters>NAN</DistanceMeters>
          </Trackpoint>
          <Trackpoint>
            <Time>2022-07-07T13:18:31.000Z</Time>
            <Position>
              <LatitudeDegrees>43.494945466518402099609375</LatitudeDegrees>
              <LongitudeDegrees>-1.47085125558078289031982421875</LongitudeDegrees>
            </Position>
            <AltitudeMeters>14.19999980926513671875</AltitudeMeters>
            <DistanceMeters>NAN</DistanceMeters>
          </Trackpoint>
          <Trackpoint>
            <Time>2022-07-07T13:18:34.000Z</Time>
            <Position>
              <LatitudeDegrees>43.4948986954987049102783203125</LatitudeDegrees>
              <LongitudeDegrees>-1.4709142036736011505126953125</LongitudeDegrees>
            </Position>
            <AltitudeMeters>14.3999996185302734375</AltitudeMeters>
            <DistanceMeters>NAN</DistanceMeters>
          </Trackpoint>
          <Trackpoint>
            <Time>2022-07-07T13:18:38.000Z</Time>
            <Position>
              <LatitudeDegrees>43.49482501856982707977294921875</LatitudeDegrees>
              <LongitudeDegrees>-1.47100145928561687469482421875</LongitudeDegrees>
            </Position>
            <AltitudeMeters>14.80000019073486328125</AltitudeMeters>
            <DistanceMeters>NAN</DistanceMeters>
          </Trackpoint>
          <Trackpoint>
            <Time>2022-07-07T13:18:44.000Z</Time>
            <Position>
              <LatitudeDegrees>43.494731895625591278076171875</LatitudeDegrees>
              <LongitudeDegrees>-1.471135653555393218994140625</LongitudeDegrees>
            </Position>
            <AltitudeMeters>15.6000003814697265625</AltitudeMeters>
            <DistanceMeters>NAN</DistanceMeters>
          </Trackpoint>
          <Trackpoint>
            <Time>2022-07-07T13:18:47.000Z</Time>
            <Position>
              <LatitudeDegrees>43.49467925727367401123046875</LatitudeDegrees>
              <LongitudeDegrees>-1.471203379333019256591796875</LongitudeDegrees>
            </Position>
            <AltitudeMeters>15.3999996185302734375</AltitudeMeters>
            <DistanceMeters>NAN</DistanceMeters>
          </Trackpoint>
          <Trackpoint>
            <Time>2022-07-07T13:18:57.000Z</Time>
            <Position>
              <LatitudeDegrees>43.4945015609264373779296875</LatitudeDegrees>
              <LongitudeDegrees>-1.47141091525554656982421875</LongitudeDegrees>
            </Position>
            <AltitudeMeters>16.3999996185302734375</AltitudeMeters>
            <DistanceMeters>NAN</DistanceMeters>
          </Trackpoint>
          <Trackpoint>
            <Time>2022-07-07T13:19:00.000Z</Time>
            <Position>
              <LatitudeDegrees>43.49446308799088001251220703125</LatitudeDegrees>
              <LongitudeDegrees>-1.4714704267680644989013671875</LongitudeDegrees>
            </Position>
            <AltitudeMeters>17</AltitudeMeters>
            <DistanceMeters>NAN</DistanceMeters>
          </Trackpoint>
          <Trackpoint>
            <Time>2022-07-07T13:19:05.000Z</Time>
            <Position>
              <LatitudeDegrees>43.49438865669071674346923828125</LatitudeDegrees>
              <LongitudeDegrees>-1.471566148102283477783203125</LongitudeDegrees>
            </Position>
            <AltitudeMeters>17.6000003814697265625</AltitudeMeters>
            <DistanceMeters>NAN</DistanceMeters>
          </Trackpoint>
          <Trackpoint>
            <Time>2022-07-07T13:19:14.000Z</Time>
            <Position>
              <LatitudeDegrees>43.4942298196256160736083984375</LatitudeDegrees>
              <LongitudeDegrees>-1.47176572121679782867431640625</LongitudeDegrees>
            </Position>
            <AltitudeMeters>17.3999996185302734375</AltitudeMeters>
            <DistanceMeters>NAN</DistanceMeters>
          </Trackpoint>
          <Trackpoint>
            <Time>2022-07-07T13:19:19.000Z</Time>
            <Position>
              <LatitudeDegrees>43.4941327571868896484375</LatitudeDegrees>
              <LongitudeDegrees>-1.4718878455460071563720703125</LongitudeDegrees>
            </Position>
            <AltitudeMeters>18</AltitudeMeters>
            <DistanceMeters>NAN</DistanceMeters>
          </Trackpoint>
          <Trackpoint>
            <Time>2022-07-07T13:19:21.000Z</Time>
            <Position>
              <LatitudeDegrees>43.49408690817654132843017578125</LatitudeDegrees>
              <LongitudeDegrees>-1.4719448424875736236572265625</LongitudeDegrees>
            </Position>
            <AltitudeMeters>18</AltitudeMeters>
            <DistanceMeters>NAN</DistanceMeters>
          </Trackpoint>
          <Trackpoint>
            <Time>2022-07-07T13:19:22.000Z</Time>
            <Position>
              <LatitudeDegrees>43.494064696133136749267578125</LatitudeDegrees>
              <LongitudeDegrees>-1.471975184977054595947265625</LongitudeDegrees>
            </Position>
            <AltitudeMeters>18</AltitudeMeters>
            <DistanceMeters>NAN</DistanceMeters>
          </Trackpoint>
          <Trackpoint>
            <Time>2022-07-07T13:19:32.000Z</Time>
            <Position>
              <LatitudeDegrees>43.49382706917822360992431640625</LatitudeDegrees>
              <LongitudeDegrees>-1.472281627357006072998046875</LongitudeDegrees>
            </Position>
            <AltitudeMeters>17.6000003814697265625</AltitudeMeters>
            <DistanceMeters>NAN</DistanceMeters>
          </Trackpoint>
          <Trackpoint>
            <Time>2022-07-07T13:19:36.000Z</Time>
            <Position>
              <LatitudeDegrees>43.49372950382530689239501953125</LatitudeDegrees>
              <LongitudeDegrees>-1.47240123711526393890380859375</LongitudeDegrees>
            </Position>
            <AltitudeMeters>17.3999996185302734375</AltitudeMeters>
            <DistanceMeters>NAN</DistanceMeters>
          </Trackpoint>
          <Trackpoint>
            <Time>2022-07-07T13:19:44.000Z</Time>
            <Position>
              <LatitudeDegrees>43.49354602396488189697265625</LatitudeDegrees>
              <LongitudeDegrees>-1.472631990909576416015625</LongitudeDegrees>
            </Position>
            <AltitudeMeters>17.3999996185302734375</AltitudeMeters>
            <DistanceMeters>NAN</DistanceMeters>
          </Trackpoint>
          <Trackpoint>
            <Time>2022-07-07T13:19:46.000Z</Time>
            <Position>
              <LatitudeDegrees>43.49350352771580219268798828125</LatitudeDegrees>
              <LongitudeDegrees>-1.4726878143846988677978515625</LongitudeDegrees>
            </Position>
            <AltitudeMeters>16.799999237060546875</AltitudeMeters>
            <DistanceMeters>NAN</DistanceMeters>
          </Trackpoint>
          <Trackpoint>
            <Time>2022-07-07T13:19:49.000Z</Time>
            <Position>
              <LatitudeDegrees>43.4934419207274913787841796875</LatitudeDegrees>
              <LongitudeDegrees>-1.47276484407484531402587890625</LongitudeDegrees>
            </Position>
            <AltitudeMeters>15.80000019073486328125</AltitudeMeters>
            <DistanceMeters>NAN</DistanceMeters>
          </Trackpoint>
          <Trackpoint>
            <Time>2022-07-07T13:19:53.000Z</Time>
            <Position>
              <LatitudeDegrees>43.4933356381952762603759765625</LatitudeDegrees>
              <LongitudeDegrees>-1.47283324040472507476806640625</LongitudeDegrees>
            </Position>
            <AltitudeMeters>15</AltitudeMeters>
            <DistanceMeters>NAN</DistanceMeters>
          </Trackpoint>
          <Trackpoint>
            <Time>2022-07-07T13:19:55.000Z</Time>
            <Position>
              <LatitudeDegrees>43.49328123964369297027587890625</LatitudeDegrees>
              <LongitudeDegrees>-1.47279493510723114013671875</LongitudeDegrees>
            </Position>
            <AltitudeMeters>14.6000003814697265625</AltitudeMeters>
            <DistanceMeters>NAN</DistanceMeters>
          </Trackpoint>
          <Trackpoint>
            <Time>2022-07-07T13:19:57.000Z</Time>
            <Position>
              <LatitudeDegrees>43.49324285052716732025146484375</LatitudeDegrees>
              <LongitudeDegrees>-1.472728215157985687255859375</LongitudeDegrees>
            </Position>
            <AltitudeMeters>14.3999996185302734375</AltitudeMeters>
            <DistanceMeters>NAN</DistanceMeters>
          </Trackpoint>
          <Trackpoint>
            <Time>2022-07-07T13:20:03.000Z</Time>
            <Position>
              <LatitudeDegrees>43.49310882389545440673828125</LatitudeDegrees>
              <LongitudeDegrees>-1.4724883250892162322998046875</LongitudeDegrees>
            </Position>
            <AltitudeMeters>14</AltitudeMeters>
            <DistanceMeters>NAN</DistanceMeters>
          </Trackpoint>
          <Trackpoint>
            <Time>2022-07-07T13:20:04.000Z</Time>
            <Position>
              <LatitudeDegrees>43.4931076504290103912353515625</LatitudeDegrees>
              <LongitudeDegrees>-1.47245890460908412933349609375</LongitudeDegrees>
            </Position>
            <AltitudeMeters>13.3999996185302734375</AltitudeMeters>
            <DistanceMeters>NAN</DistanceMeters>
          </Trackpoint>
          <Trackpoint>
            <Time>2022-07-07T13:20:06.000Z</Time>
            <Position>
              <LatitudeDegrees>43.49314779974520206451416015625</LatitudeDegrees>
              <LongitudeDegrees>-1.47237651050090789794921875</LongitudeDegrees>
            </Position>
            <AltitudeMeters>12.80000019073486328125</AltitudeMeters>
            <DistanceMeters>NAN</DistanceMeters>
          </Trackpoint>
          <Trackpoint>
            <Time>2022-07-07T13:20:09.000Z</Time>
            <Position>
              <LatitudeDegrees>43.49320865236222743988037109375</LatitudeDegrees>
              <LongitudeDegrees>-1.4723082818090915679931640625</LongitudeDegrees>
            </Position>
            <AltitudeMeters>12.19999980926513671875</AltitudeMeters>
            <DistanceMeters>NAN</DistanceMeters>
          </Trackpoint>
          <Trackpoint>
            <Time>2022-07-07T13:20:10.000Z</Time>
            <Position>
              <LatitudeDegrees>43.4932233206927776336669921875</LatitudeDegrees>
              <LongitudeDegrees>-1.4723146520555019378662109375</LongitudeDegrees>
            </Position>
            <AltitudeMeters>12.19999980926513671875</AltitudeMeters>
            <DistanceMeters>NAN</DistanceMeters>
          </Trackpoint>
          <Trackpoint>
            <Time>2022-07-07T13:20:15.000Z</Time>
            <Position>
              <LatitudeDegrees>43.49326481111347675323486328125</LatitudeDegrees>
              <LongitudeDegrees>-1.4723173342645168304443359375</LongitudeDegrees>
            </Position>
            <AltitudeMeters>12.19999980926513671875</AltitudeMeters>
            <DistanceMeters>NAN</DistanceMeters>
          </Trackpoint>
          <Trackpoint>
            <Time>2022-07-07T13:20:16.000Z</Time>
            <Position>
              <LatitudeDegrees>43.49326481111347675323486328125</LatitudeDegrees>
              <LongitudeDegrees>-1.4723173342645168304443359375</LongitudeDegrees>
            </Position>
            <AltitudeMeters>12.3999996185302734375</AltitudeMeters>
            <DistanceMeters>NAN</DistanceMeters>
          </Trackpoint>
          <Trackpoint>
            <Time>2022-07-07T13:20:29.000Z</Time>
            <Position>
              <LatitudeDegrees>43.49323354661464691162109375</LatitudeDegrees>
              <LongitudeDegrees>-1.4722537994384765625</LongitudeDegrees>
            </Position>
            <AltitudeMeters>12.3999996185302734375</AltitudeMeters>
            <DistanceMeters>NAN</DistanceMeters>
          </Trackpoint>
          <Trackpoint>
            <Time>2022-07-07T13:20:31.000Z</Time>
            <Position>
              <LatitudeDegrees>43.4932085685431957244873046875</LatitudeDegrees>
              <LongitudeDegrees>-1.47219336591660976409912109375</LongitudeDegrees>
            </Position>
            <AltitudeMeters>12.3999996185302734375</AltitudeMeters>
            <DistanceMeters>NAN</DistanceMeters>
          </Trackpoint>
          <Trackpoint>
            <Time>2022-07-07T13:20:37.000Z</Time>
            <Position>
              <LatitudeDegrees>43.49311544559895992279052734375</LatitudeDegrees>
              <LongitudeDegrees>-1.47193436510860919952392578125</LongitudeDegrees>
            </Position>
            <AltitudeMeters>12.3999996185302734375</AltitudeMeters>
            <DistanceMeters>NAN</DistanceMeters>
          </Trackpoint>
          <Trackpoint>
            <Time>2022-07-07T13:20:45.000Z</Time>
            <Position>
              <LatitudeDegrees>43.49295333959162235260009765625</LatitudeDegrees>
              <LongitudeDegrees>-1.47156036458909511566162109375</LongitudeDegrees>
            </Position>
            <AltitudeMeters>12.6000003814697265625</AltitudeMeters>
            <DistanceMeters>NAN</DistanceMeters>
          </Trackpoint>
          <Trackpoint>
            <Time>2022-07-07T13:20:51.000Z</Time>
            <Position>
              <LatitudeDegrees>43.49285443313419818878173828125</LatitudeDegrees>
              <LongitudeDegrees>-1.4712840132415294647216796875</LongitudeDegrees>
            </Position>
            <AltitudeMeters>12.3999996185302734375</AltitudeMeters>
            <DistanceMeters>NAN</DistanceMeters>
          </Trackpoint>
          <Trackpoint>
            <Time>2022-07-07T13:20:55.000Z</Time>
            <Position>
              <LatitudeDegrees>43.49278385750949382781982421875</LatitudeDegrees>
              <LongitudeDegrees>-1.47111545316874980926513671875</LongitudeDegrees>
            </Position>
            <AltitudeMeters>12.19999980926513671875</AltitudeMeters>
            <DistanceMeters>NAN</DistanceMeters>
          </Trackpoint>
          <Trackpoint>
            <Time>2022-07-07T13:20:59.000Z</Time>
            <Position>
              <LatitudeDegrees>43.492702804505825042724609375</LatitudeDegrees>
              <LongitudeDegrees>-1.470935158431529998779296875</LongitudeDegrees>
            </Position>
            <AltitudeMeters>12.19999980926513671875</AltitudeMeters>
            <DistanceMeters>NAN</DistanceMeters>
          </Trackpoint>
          <Trackpoint>
            <Time>2022-07-07T13:21:07.000Z</Time>
            <Position>
              <LatitudeDegrees>43.49253441207110881805419921875</LatitudeDegrees>
              <LongitudeDegrees>-1.47057482041418552398681640625</LongitudeDegrees>
            </Position>
            <AltitudeMeters>12.19999980926513671875</AltitudeMeters>
            <DistanceMeters>NAN</DistanceMeters>
          </Trackpoint>
          <Trackpoint>
            <Time>2022-07-07T13:21:14.000Z</Time>
            <Position>
              <LatitudeDegrees>43.49239879287779331207275390625</LatitudeDegrees>
              <LongitudeDegrees>-1.470315568149089813232421875</LongitudeDegrees>
            </Position>
            <AltitudeMeters>12.3999996185302734375</AltitudeMeters>
            <DistanceMeters>NAN</DistanceMeters>
          </Trackpoint>
          <Trackpoint>
            <Time>2022-07-07T13:21:18.000Z</Time>
            <Position>
              <LatitudeDegrees>43.49232637323439121246337890625</LatitudeDegrees>
              <LongitudeDegrees>-1.47014566697180271148681640625</LongitudeDegrees>
            </Position>
            <AltitudeMeters>12.6000003814697265625</AltitudeMeters>
            <DistanceMeters>NAN</DistanceMeters>
          </Trackpoint>
          <Trackpoint>
            <Time>2022-07-07T13:21:21.000Z</Time>
            <Position>
              <LatitudeDegrees>43.4922580607235431671142578125</LatitudeDegrees>
              <LongitudeDegrees>-1.47001541219651699066162109375</LongitudeDegrees>
            </Position>
            <AltitudeMeters>12.6000003814697265625</AltitudeMeters>
            <DistanceMeters>NAN</DistanceMeters>
          </Trackpoint>
          <Trackpoint>
            <Time>2022-07-07T13:21:28.000Z</Time>
            <Position>
              <LatitudeDegrees>43.4921028278768062591552734375</LatitudeDegrees>
              <LongitudeDegrees>-1.469702683389186859130859375</LongitudeDegrees>
            </Position>
            <AltitudeMeters>12.6000003814697265625</AltitudeMeters>
            <DistanceMeters>NAN</DistanceMeters>
          </Trackpoint>
          <Trackpoint>
            <Time>2022-07-07T13:21:29.000Z</Time>
            <Position>
              <LatitudeDegrees>43.49208111874759197235107421875</LatitudeDegrees>
              <LongitudeDegrees>-1.46965716965496540069580078125</LongitudeDegrees>
            </Position>
            <AltitudeMeters>12.6000003814697265625</AltitudeMeters>
            <DistanceMeters>NAN</DistanceMeters>
          </Trackpoint>
          <Trackpoint>
            <Time>2022-07-07T13:21:36.000Z</Time>
            <Position>
              <LatitudeDegrees>43.49193493835628032684326171875</LatitudeDegrees>
              <LongitudeDegrees>-1.4693786390125751495361328125</LongitudeDegrees>
            </Position>
            <AltitudeMeters>12.6000003814697265625</AltitudeMeters>
            <DistanceMeters>NAN</DistanceMeters>
          </Trackpoint>
          <Trackpoint>
            <Time>2022-07-07T13:21:43.000Z</Time>
            <Position>
              <LatitudeDegrees>43.49174517206847667694091796875</LatitudeDegrees>
              <LongitudeDegrees>-1.46918660961091518402099609375</LongitudeDegrees>
            </Position>
            <AltitudeMeters>12.80000019073486328125</AltitudeMeters>
            <DistanceMeters>NAN</DistanceMeters>
          </Trackpoint>
          <Trackpoint>
            <Time>2022-07-07T13:21:46.000Z</Time>
            <Position>
              <LatitudeDegrees>43.49164257757365703582763671875</LatitudeDegrees>
              <LongitudeDegrees>-1.46917420439422130584716796875</LongitudeDegrees>
            </Position>
            <AltitudeMeters>13</AltitudeMeters>
            <DistanceMeters>NAN</DistanceMeters>
          </Trackpoint>
          <Trackpoint>
            <Time>2022-07-07T13:21:49.000Z</Time>
            <Position>
              <LatitudeDegrees>43.49155054427683353424072265625</LatitudeDegrees>
              <LongitudeDegrees>-1.469172947108745574951171875</LongitudeDegrees>
            </Position>
            <AltitudeMeters>12.80000019073486328125</AltitudeMeters>
            <DistanceMeters>NAN</DistanceMeters>
          </Trackpoint>
          <Trackpoint>
            <Time>2022-07-07T13:21:53.000Z</Time>
            <Position>
              <LatitudeDegrees>43.4914813935756683349609375</LatitudeDegrees>
              <LongitudeDegrees>-1.46914268843829631805419921875</LongitudeDegrees>
            </Position>
            <AltitudeMeters>12.6000003814697265625</AltitudeMeters>
            <DistanceMeters>NAN</DistanceMeters>
          </Trackpoint>
          <Trackpoint>
            <Time>2022-07-07T13:21:58.000Z</Time>
            <Position>
              <LatitudeDegrees>43.49142062477767467498779296875</LatitudeDegrees>
              <LongitudeDegrees>-1.46898217499256134033203125</LongitudeDegrees>
            </Position>
            <AltitudeMeters>12.6000003814697265625</AltitudeMeters>
            <DistanceMeters>NAN</DistanceMeters>
          </Trackpoint>
          <Trackpoint>
            <Time>2022-07-07T13:22:03.000Z</Time>
            <Position>
              <LatitudeDegrees>43.491332530975341796875</LatitudeDegrees>
              <LongitudeDegrees>-1.4687870442867279052734375</LongitudeDegrees>
            </Position>
            <AltitudeMeters>12.80000019073486328125</AltitudeMeters>
            <DistanceMeters>NAN</DistanceMeters>
          </Trackpoint>
          <Trackpoint>
            <Time>2022-07-07T13:22:05.000Z</Time>
            <Position>
              <LatitudeDegrees>43.49129908718168735504150390625</LatitudeDegrees>
              <LongitudeDegrees>-1.46871034987270832061767578125</LongitudeDegrees>
            </Position>
            <AltitudeMeters>12.80000019073486328125</AltitudeMeters>
            <DistanceMeters>NAN</DistanceMeters>
          </Trackpoint>
          <Trackpoint>
            <Time>2022-07-07T13:22:08.000Z</Time>
            <Position>
              <LatitudeDegrees>43.49124812521040439605712890625</LatitudeDegrees>
              <LongitudeDegrees>-1.46859685890376567840576171875</LongitudeDegrees>
            </Position>
            <AltitudeMeters>12.80000019073486328125</AltitudeMeters>
            <DistanceMeters>NAN</DistanceMeters>
          </Trackpoint>
          <Trackpoint>
            <Time>2022-07-07T13:22:13.000Z</Time>
            <Position>
              <LatitudeDegrees>43.4911647252738475799560546875</LatitudeDegrees>
              <LongitudeDegrees>-1.46839904598891735076904296875</LongitudeDegrees>
            </Position>
            <AltitudeMeters>13</AltitudeMeters>
            <DistanceMeters>NAN</DistanceMeters>
          </Trackpoint>
          <Trackpoint>
            <Time>2022-07-07T13:22:16.000Z</Time>
            <Position>
              <LatitudeDegrees>43.4911073930561542510986328125</LatitudeDegrees>
              <LongitudeDegrees>-1.4682993851602077484130859375</LongitudeDegrees>
            </Position>
            <AltitudeMeters>13.3999996185302734375</AltitudeMeters>
            <DistanceMeters>NAN</DistanceMeters>
          </Trackpoint>
          <Trackpoint>
            <Time>2022-07-07T13:22:20.000Z</Time>
            <Position>
              <LatitudeDegrees>43.49103740416467189788818359375</LatitudeDegrees>
              <LongitudeDegrees>-1.4681647717952728271484375</LongitudeDegrees>
            </Position>
            <AltitudeMeters>13.6000003814697265625</AltitudeMeters>
            <DistanceMeters>NAN</DistanceMeters>
          </Trackpoint>
          <Trackpoint>
            <Time>2022-07-07T13:22:29.000Z</Time>
            <Position>
              <LatitudeDegrees>43.49091519601643085479736328125</LatitudeDegrees>
              <LongitudeDegrees>-1.46788540296256542205810546875</LongitudeDegrees>
            </Position>
            <AltitudeMeters>14.19999980926513671875</AltitudeMeters>
            <DistanceMeters>NAN</DistanceMeters>
          </Trackpoint>
          <Trackpoint>
            <Time>2022-07-07T13:22:31.000Z</Time>
            <Position>
              <LatitudeDegrees>43.49088133312761783599853515625</LatitudeDegrees>
              <LongitudeDegrees>-1.4678249694406986236572265625</LongitudeDegrees>
            </Position>
            <AltitudeMeters>14.3999996185302734375</AltitudeMeters>
            <DistanceMeters>NAN</DistanceMeters>
          </Trackpoint>
          <Trackpoint>
            <Time>2022-07-07T13:22:38.000Z</Time>
            <Position>
              <LatitudeDegrees>43.490757532417774200439453125</LatitudeDegrees>
              <LongitudeDegrees>-1.46766060031950473785400390625</LongitudeDegrees>
            </Position>
            <AltitudeMeters>14.80000019073486328125</AltitudeMeters>
            <DistanceMeters>NAN</DistanceMeters>
          </Trackpoint>
          <Trackpoint>
            <Time>2022-07-07T13:22:48.000Z</Time>
            <Position>
              <LatitudeDegrees>43.490549661219120025634765625</LatitudeDegrees>
              <LongitudeDegrees>-1.4675071276724338531494140625</LongitudeDegrees>
            </Position>
            <AltitudeMeters>15.19999980926513671875</AltitudeMeters>
            <DistanceMeters>NAN</DistanceMeters>
          </Trackpoint>
          <Trackpoint>
            <Time>2022-07-07T13:22:53.000Z</Time>
            <Position>
              <LatitudeDegrees>43.4904606454074382781982421875</LatitudeDegrees>
              <LongitudeDegrees>-1.46743831224739551544189453125</LongitudeDegrees>
            </Position>
            <AltitudeMeters>15.3999996185302734375</AltitudeMeters>
            <DistanceMeters>NAN</DistanceMeters>
          </Trackpoint>
          <Trackpoint>
            <Time>2022-07-07T13:22:57.000Z</Time>
            <Position>
              <LatitudeDegrees>43.49039174616336822509765625</LatitudeDegrees>
              <LongitudeDegrees>-1.4674025215208530426025390625</LongitudeDegrees>
            </Position>
            <AltitudeMeters>15.3999996185302734375</AltitudeMeters>
            <DistanceMeters>NAN</DistanceMeters>
          </Trackpoint>
          <Trackpoint>
            <Time>2022-07-07T13:23:00.000Z</Time>
            <Position>
              <LatitudeDegrees>43.4903432987630367279052734375</LatitudeDegrees>
              <LongitudeDegrees>-1.46737041883170604705810546875</LongitudeDegrees>
            </Position>
            <AltitudeMeters>15.3999996185302734375</AltitudeMeters>
            <DistanceMeters>NAN</DistanceMeters>
          </Trackpoint>
          <Trackpoint>
            <Time>2022-07-07T13:23:01.000Z</Time>
            <Position>
              <LatitudeDegrees>43.4903315640985965728759765625</LatitudeDegrees>
              <LongitudeDegrees>-1.46736723370850086212158203125</LongitudeDegrees>
            </Position>
            <AltitudeMeters>15.3999996185302734375</AltitudeMeters>
            <DistanceMeters>NAN</DistanceMeters>
          </Trackpoint>
          <Trackpoint>
            <Time>2022-07-07T13:23:02.000Z</Time>
            <Position>
              <LatitudeDegrees>43.49032293073832988739013671875</LatitudeDegrees>
              <LongitudeDegrees>-1.4673767052590847015380859375</LongitudeDegrees>
            </Position>
            <AltitudeMeters>15.3999996185302734375</AltitudeMeters>
            <DistanceMeters>NAN</DistanceMeters>
          </Trackpoint>
          <Trackpoint>
            <Time>2022-07-07T13:23:04.000Z</Time>
            <Position>
              <LatitudeDegrees>43.49030750803649425506591796875</LatitudeDegrees>
              <LongitudeDegrees>-1.46740880794823169708251953125</LongitudeDegrees>
            </Position>
            <AltitudeMeters>15.3999996185302734375</AltitudeMeters>
            <DistanceMeters>NAN</DistanceMeters>
          </Trackpoint>
          <Trackpoint>
            <Time>2022-07-07T13:23:09.000Z</Time>
            <Position>
              <LatitudeDegrees>43.49024246446788311004638671875</LatitudeDegrees>
              <LongitudeDegrees>-1.467502601444721221923828125</LongitudeDegrees>
            </Position>
            <AltitudeMeters>15.80000019073486328125</AltitudeMeters>
            <DistanceMeters>NAN</DistanceMeters>
          </Trackpoint>
          <Trackpoint>
            <Time>2022-07-07T13:23:11.000Z</Time>
            <Position>
              <LatitudeDegrees>43.490213714540004730224609375</LatitudeDegrees>
              <LongitudeDegrees>-1.46754727698862552642822265625</LongitudeDegrees>
            </Position>
            <AltitudeMeters>16.3999996185302734375</AltitudeMeters>
            <DistanceMeters>NAN</DistanceMeters>
          </Trackpoint>
          <Trackpoint>
            <Time>2022-07-07T13:23:17.000Z</Time>
            <Position>
              <LatitudeDegrees>43.4901592321693897247314453125</LatitudeDegrees>
              <LongitudeDegrees>-1.46770351566374301910400390625</LongitudeDegrees>
            </Position>
            <AltitudeMeters>16.6000003814697265625</AltitudeMeters>
            <DistanceMeters>NAN</DistanceMeters>
          </Trackpoint>
          <Trackpoint>
            <Time>2022-07-07T13:23:22.000Z</Time>
            <Position>
              <LatitudeDegrees>43.49017038010060787200927734375</LatitudeDegrees>
              <LongitudeDegrees>-1.46775296889245510101318359375</LongitudeDegrees>
            </Position>
            <AltitudeMeters>16.6000003814697265625</AltitudeMeters>
            <DistanceMeters>NAN</DistanceMeters>
          </Trackpoint>
          <Trackpoint>
            <Time>2022-07-07T13:23:23.000Z</Time>
            <Position>
              <LatitudeDegrees>43.49017038010060787200927734375</LatitudeDegrees>
              <LongitudeDegrees>-1.46775296889245510101318359375</LongitudeDegrees>
            </Position>
            <AltitudeMeters>16.3999996185302734375</AltitudeMeters>
            <DistanceMeters>NAN</DistanceMeters>
          </Trackpoint>
          <Trackpoint>
            <Time>2022-07-07T13:31:12.000Z</Time>
            <Position>
              <LatitudeDegrees>43.4901568852365016937255859375</LatitudeDegrees>
              <LongitudeDegrees>-1.4676580019295215606689453125</LongitudeDegrees>
            </Position>
            <AltitudeMeters>16</AltitudeMeters>
            <DistanceMeters>NAN</DistanceMeters>
          </Trackpoint>
          <Trackpoint>
            <Time>2022-07-07T13:31:13.000Z</Time>
            <Position>
              <LatitudeDegrees>43.4901562146842479705810546875</LatitudeDegrees>
              <LongitudeDegrees>-1.46764107048511505126953125</LongitudeDegrees>
            </Position>
            <AltitudeMeters>16</AltitudeMeters>
            <DistanceMeters>NAN</DistanceMeters>
          </Trackpoint>
          <Trackpoint>
            <Time>2022-07-07T13:31:14.000Z</Time>
            <Position>
              <LatitudeDegrees>43.4901605732738971710205078125</LatitudeDegrees>
              <LongitudeDegrees>-1.467622630298137664794921875</LongitudeDegrees>
            </Position>
            <AltitudeMeters>16.799999237060546875</AltitudeMeters>
            <DistanceMeters>NAN</DistanceMeters>
          </Trackpoint>
          <Trackpoint>
            <Time>2022-07-07T13:31:15.000Z</Time>
            <Position>
              <LatitudeDegrees>43.49016920663416385650634765625</LatitudeDegrees>
              <LongitudeDegrees>-1.4675989933311939239501953125</LongitudeDegrees>
            </Position>
            <AltitudeMeters>17</AltitudeMeters>
            <DistanceMeters>NAN</DistanceMeters>
          </Trackpoint>
          <Trackpoint>
            <Time>2022-07-07T13:31:18.000Z</Time>
            <Position>
              <LatitudeDegrees>43.4902145527303218841552734375</LatitudeDegrees>
              <LongitudeDegrees>-1.46751961670815944671630859375</LongitudeDegrees>
            </Position>
            <AltitudeMeters>17.3999996185302734375</AltitudeMeters>
            <DistanceMeters>NAN</DistanceMeters>
          </Trackpoint>
          <Trackpoint>
            <Time>2022-07-07T13:31:19.000Z</Time>
            <Position>
              <LatitudeDegrees>43.49022905342280864715576171875</LatitudeDegrees>
              <LongitudeDegrees>-1.46748575381934642791748046875</LongitudeDegrees>
            </Position>
            <AltitudeMeters>17.3999996185302734375</AltitudeMeters>
            <DistanceMeters>NAN</DistanceMeters>
          </Trackpoint>
          <Trackpoint>
            <Time>2022-07-07T13:31:24.000Z</Time>
            <Position>
              <LatitudeDegrees>43.4903520159423351287841796875</LatitudeDegrees>
              <LongitudeDegrees>-1.46739162504673004150390625</LongitudeDegrees>
            </Position>
            <AltitudeMeters>17</AltitudeMeters>
            <DistanceMeters>NAN</DistanceMeters>
          </Trackpoint>
          <Trackpoint>
            <Time>2022-07-07T13:31:26.000Z</Time>
            <Position>
              <LatitudeDegrees>43.49040725268423557281494140625</LatitudeDegrees>
              <LongitudeDegrees>-1.46741350181400775909423828125</LongitudeDegrees>
            </Position>
            <AltitudeMeters>17</AltitudeMeters>
            <DistanceMeters>NAN</DistanceMeters>
          </Trackpoint>
          <Trackpoint>
            <Time>2022-07-07T13:31:29.000Z</Time>
            <Position>
              <LatitudeDegrees>43.49048822186887264251708984375</LatitudeDegrees>
              <LongitudeDegrees>-1.4674635417759418487548828125</LongitudeDegrees>
            </Position>
            <AltitudeMeters>17</AltitudeMeters>
            <DistanceMeters>NAN</DistanceMeters>
          </Trackpoint>
          <Trackpoint>
            <Time>2022-07-07T13:31:38.000Z</Time>
            <Position>
              <LatitudeDegrees>43.490762226283550262451171875</LatitudeDegrees>
              <LongitudeDegrees>-1.46768624894320964813232421875</LongitudeDegrees>
            </Position>
            <AltitudeMeters>16.6000003814697265625</AltitudeMeters>
            <DistanceMeters>NAN</DistanceMeters>
          </Trackpoint>
          <Trackpoint>
            <Time>2022-07-07T13:31:39.000Z</Time>
            <Position>
              <LatitudeDegrees>43.49079483188688755035400390625</LatitudeDegrees>
              <LongitudeDegrees>-1.467721872031688690185546875</LongitudeDegrees>
            </Position>
            <AltitudeMeters>16.3999996185302734375</AltitudeMeters>
            <DistanceMeters>NAN</DistanceMeters>
          </Trackpoint>
          <Trackpoint>
            <Time>2022-07-07T13:31:45.000Z</Time>
            <Position>
              <LatitudeDegrees>43.49095098674297332763671875</LatitudeDegrees>
              <LongitudeDegrees>-1.46799755282700061798095703125</LongitudeDegrees>
            </Position>
            <AltitudeMeters>15.80000019073486328125</AltitudeMeters>
            <DistanceMeters>NAN</DistanceMeters>
          </Trackpoint>
          <Trackpoint>
            <Time>2022-07-07T13:31:48.000Z</Time>
            <Position>
              <LatitudeDegrees>43.49101142026484012603759765625</LatitudeDegrees>
              <LongitudeDegrees>-1.46812629885971546173095703125</LongitudeDegrees>
            </Position>
            <AltitudeMeters>15.3999996185302734375</AltitudeMeters>
            <DistanceMeters>NAN</DistanceMeters>
          </Trackpoint>
          <Trackpoint>
            <Time>2022-07-07T13:31:52.000Z</Time>
            <Position>
              <LatitudeDegrees>43.4910859353840351104736328125</LatitudeDegrees>
              <LongitudeDegrees>-1.4682772569358348846435546875</LongitudeDegrees>
            </Position>
            <AltitudeMeters>15</AltitudeMeters>
            <DistanceMeters>NAN</DistanceMeters>
          </Trackpoint>
          <Trackpoint>
            <Time>2022-07-07T13:31:54.000Z</Time>
            <Position>
              <LatitudeDegrees>43.491120971739292144775390625</LatitudeDegrees>
              <LongitudeDegrees>-1.46834892220795154571533203125</LongitudeDegrees>
            </Position>
            <AltitudeMeters>14.80000019073486328125</AltitudeMeters>
            <DistanceMeters>NAN</DistanceMeters>
          </Trackpoint>
          <Trackpoint>
            <Time>2022-07-07T13:32:00.000Z</Time>
            <Position>
              <LatitudeDegrees>43.49124795757234096527099609375</LatitudeDegrees>
              <LongitudeDegrees>-1.46860658191144466400146484375</LongitudeDegrees>
            </Position>
            <AltitudeMeters>14.3999996185302734375</AltitudeMeters>
            <DistanceMeters>NAN</DistanceMeters>
          </Trackpoint>
          <Trackpoint>
            <Time>2022-07-07T13:32:04.000Z</Time>
            <Position>
              <LatitudeDegrees>43.49132406525313854217529296875</LatitudeDegrees>
              <LongitudeDegrees>-1.46875955164432525634765625</LongitudeDegrees>
            </Position>
            <AltitudeMeters>14.19999980926513671875</AltitudeMeters>
            <DistanceMeters>NAN</DistanceMeters>
          </Trackpoint>
          <Trackpoint>
            <Time>2022-07-07T13:32:11.000Z</Time>
            <Position>
              <LatitudeDegrees>43.4914465248584747314453125</LatitudeDegrees>
              <LongitudeDegrees>-1.46899131126701831817626953125</LongitudeDegrees>
            </Position>
            <AltitudeMeters>14</AltitudeMeters>
            <DistanceMeters>NAN</DistanceMeters>
          </Trackpoint>
          <Trackpoint>
            <Time>2022-07-07T13:32:19.000Z</Time>
            <Position>
              <LatitudeDegrees>43.49154903553426265716552734375</LatitudeDegrees>
              <LongitudeDegrees>-1.46917604841291904449462890625</LongitudeDegrees>
            </Position>
            <AltitudeMeters>13.19999980926513671875</AltitudeMeters>
            <DistanceMeters>NAN</DistanceMeters>
          </Trackpoint>
          <Trackpoint>
            <Time>2022-07-07T13:32:26.000Z</Time>
            <Position>
              <LatitudeDegrees>43.49168884567916393280029296875</LatitudeDegrees>
              <LongitudeDegrees>-1.46919968537986278533935546875</LongitudeDegrees>
            </Position>
            <AltitudeMeters>13</AltitudeMeters>
            <DistanceMeters>NAN</DistanceMeters>
          </Trackpoint>
          <Trackpoint>
            <Time>2022-07-07T13:32:33.000Z</Time>
            <Position>
              <LatitudeDegrees>43.4918336011469364166259765625</LatitudeDegrees>
              <LongitudeDegrees>-1.469269506633281707763671875</LongitudeDegrees>
            </Position>
            <AltitudeMeters>13</AltitudeMeters>
            <DistanceMeters>NAN</DistanceMeters>
          </Trackpoint>
          <Trackpoint>
            <Time>2022-07-07T13:32:44.000Z</Time>
            <Position>
              <LatitudeDegrees>43.492020852863788604736328125</LatitudeDegrees>
              <LongitudeDegrees>-1.46953471004962921142578125</LongitudeDegrees>
            </Position>
            <AltitudeMeters>13.6000003814697265625</AltitudeMeters>
            <DistanceMeters>NAN</DistanceMeters>
          </Trackpoint>
          <Trackpoint>
            <Time>2022-07-07T13:32:52.000Z</Time>
            <Position>
              <LatitudeDegrees>43.49215001799166202545166015625</LatitudeDegrees>
              <LongitudeDegrees>-1.4698161743581295013427734375</LongitudeDegrees>
            </Position>
            <AltitudeMeters>14</AltitudeMeters>
            <DistanceMeters>NAN</DistanceMeters>
          </Trackpoint>
          <Trackpoint>
            <Time>2022-07-07T13:32:54.000Z</Time>
            <Position>
              <LatitudeDegrees>43.492191173136234283447265625</LatitudeDegrees>
              <LongitudeDegrees>-1.46989203058183193206787109375</LongitudeDegrees>
            </Position>
            <AltitudeMeters>13.80000019073486328125</AltitudeMeters>
            <DistanceMeters>NAN</DistanceMeters>
          </Trackpoint>
          <Trackpoint>
            <Time>2022-07-07T13:32:59.000Z</Time>
            <Position>
              <LatitudeDegrees>43.49229334853589534759521484375</LatitudeDegrees>
              <LongitudeDegrees>-1.470078527927398681640625</LongitudeDegrees>
            </Position>
            <AltitudeMeters>13.80000019073486328125</AltitudeMeters>
            <DistanceMeters>NAN</DistanceMeters>
          </Trackpoint>
          <Trackpoint>
            <Time>2022-07-07T13:33:01.000Z</Time>
            <Position>
              <LatitudeDegrees>43.49232234992086887359619140625</LatitudeDegrees>
              <LongitudeDegrees>-1.4701504446566104888916015625</LongitudeDegrees>
            </Position>
            <AltitudeMeters>14</AltitudeMeters>
            <DistanceMeters>NAN</DistanceMeters>
          </Trackpoint>
          <Trackpoint>
            <Time>2022-07-07T13:33:04.000Z</Time>
            <Position>
              <LatitudeDegrees>43.49237658083438873291015625</LatitudeDegrees>
              <LongitudeDegrees>-1.47025764919817447662353515625</LongitudeDegrees>
            </Position>
            <AltitudeMeters>14.3999996185302734375</AltitudeMeters>
            <DistanceMeters>NAN</DistanceMeters>
          </Trackpoint>
          <Trackpoint>
            <Time>2022-07-07T13:33:06.000Z</Time>
            <Position>
              <LatitudeDegrees>43.49240751005709171295166015625</LatitudeDegrees>
              <LongitudeDegrees>-1.4703204296529293060302734375</LongitudeDegrees>
            </Position>
            <AltitudeMeters>14.6000003814697265625</AltitudeMeters>
            <DistanceMeters>NAN</DistanceMeters>
          </Trackpoint>
          <Trackpoint>
            <Time>2022-07-07T13:33:12.000Z</Time>
            <Position>
              <LatitudeDegrees>43.492511026561260223388671875</LatitudeDegrees>
              <LongitudeDegrees>-1.47055554203689098358154296875</LongitudeDegrees>
            </Position>
            <AltitudeMeters>13.80000019073486328125</AltitudeMeters>
            <DistanceMeters>NAN</DistanceMeters>
          </Trackpoint>
          <Trackpoint>
            <Time>2022-07-07T13:33:14.000Z</Time>
            <Position>
              <LatitudeDegrees>43.49254933185875415802001953125</LatitudeDegrees>
              <LongitudeDegrees>-1.47062829695641994476318359375</LongitudeDegrees>
            </Position>
            <AltitudeMeters>13.80000019073486328125</AltitudeMeters>
            <DistanceMeters>NAN</DistanceMeters>
          </Trackpoint>
          <Trackpoint>
            <Time>2022-07-07T13:33:22.000Z</Time>
            <Position>
              <LatitudeDegrees>43.49269081838428974151611328125</LatitudeDegrees>
              <LongitudeDegrees>-1.47093155421316623687744140625</LongitudeDegrees>
            </Position>
            <AltitudeMeters>14.6000003814697265625</AltitudeMeters>
            <DistanceMeters>NAN</DistanceMeters>
          </Trackpoint>
          <Trackpoint>
            <Time>2022-07-07T13:33:26.000Z</Time>
            <Position>
              <LatitudeDegrees>43.492757789790630340576171875</LatitudeDegrees>
              <LongitudeDegrees>-1.47106717340648174285888671875</LongitudeDegrees>
            </Position>
            <AltitudeMeters>14.3999996185302734375</AltitudeMeters>
            <DistanceMeters>NAN</DistanceMeters>
          </Trackpoint>
          <Trackpoint>
            <Time>2022-07-07T13:33:30.000Z</Time>
            <Position>
              <LatitudeDegrees>43.49282291717827320098876953125</LatitudeDegrees>
              <LongitudeDegrees>-1.47121486254036426544189453125</LongitudeDegrees>
            </Position>
            <AltitudeMeters>14.19999980926513671875</AltitudeMeters>
            <DistanceMeters>NAN</DistanceMeters>
          </Trackpoint>
          <Trackpoint>
            <Time>2022-07-07T13:33:32.000Z</Time>
            <Position>
              <LatitudeDegrees>43.49285401403903961181640625</LatitudeDegrees>
              <LongitudeDegrees>-1.471299268305301666259765625</LongitudeDegrees>
            </Position>
            <AltitudeMeters>14.19999980926513671875</AltitudeMeters>
            <DistanceMeters>NAN</DistanceMeters>
          </Trackpoint>
          <Trackpoint>
            <Time>2022-07-07T13:33:42.000Z</Time>
            <Position>
              <LatitudeDegrees>43.49299960769712924957275390625</LatitudeDegrees>
              <LongitudeDegrees>-1.471714340150356292724609375</LongitudeDegrees>
            </Position>
            <AltitudeMeters>15</AltitudeMeters>
            <DistanceMeters>NAN</DistanceMeters>
          </Trackpoint>
          <Trackpoint>
            <Time>2022-07-07T13:33:45.000Z</Time>
            <Position>
              <LatitudeDegrees>43.49304051138460636138916015625</LatitudeDegrees>
              <LongitudeDegrees>-1.47183210588991641998291015625</LongitudeDegrees>
            </Position>
            <AltitudeMeters>15.6000003814697265625</AltitudeMeters>
            <DistanceMeters>NAN</DistanceMeters>
          </Trackpoint>
          <Trackpoint>
            <Time>2022-07-07T13:33:48.000Z</Time>
            <Position>
              <LatitudeDegrees>43.49307504482567310333251953125</LatitudeDegrees>
              <LongitudeDegrees>-1.4719332754611968994140625</LongitudeDegrees>
            </Position>
            <AltitudeMeters>15.19999980926513671875</AltitudeMeters>
            <DistanceMeters>NAN</DistanceMeters>
          </Trackpoint>
          <Trackpoint>
            <Time>2022-07-07T13:33:51.000Z</Time>
            <Position>
              <LatitudeDegrees>43.49311284720897674560546875</LatitudeDegrees>
              <LongitudeDegrees>-1.4720407314598560333251953125</LongitudeDegrees>
            </Position>
            <AltitudeMeters>14.80000019073486328125</AltitudeMeters>
            <DistanceMeters>NAN</DistanceMeters>
          </Trackpoint>
          <Trackpoint>
            <Time>2022-07-07T13:33:54.000Z</Time>
            <Position>
              <LatitudeDegrees>43.493155427277088165283203125</LatitudeDegrees>
              <LongitudeDegrees>-1.47213938646018505096435546875</LongitudeDegrees>
            </Position>
            <AltitudeMeters>14.6000003814697265625</AltitudeMeters>
            <DistanceMeters>NAN</DistanceMeters>
          </Trackpoint>
          <Trackpoint>
            <Time>2022-07-07T13:33:58.000Z</Time>
            <Position>
              <LatitudeDegrees>43.49320395849645137786865234375</LatitudeDegrees>
              <LongitudeDegrees>-1.4722739160060882568359375</LongitudeDegrees>
            </Position>
            <AltitudeMeters>14.80000019073486328125</AltitudeMeters>
            <DistanceMeters>NAN</DistanceMeters>
          </Trackpoint>
          <Trackpoint>
            <Time>2022-07-07T13:33:59.000Z</Time>
            <Position>
              <LatitudeDegrees>43.4932042099535465240478515625</LatitudeDegrees>
              <LongitudeDegrees>-1.4723069407045841217041015625</LongitudeDegrees>
            </Position>
            <AltitudeMeters>14.80000019073486328125</AltitudeMeters>
            <DistanceMeters>NAN</DistanceMeters>
          </Trackpoint>
          <Trackpoint>
            <Time>2022-07-07T13:34:03.000Z</Time>
            <Position>
              <LatitudeDegrees>43.4931539185345172882080078125</LatitudeDegrees>
              <LongitudeDegrees>-1.4724246226251125335693359375</LongitudeDegrees>
            </Position>
            <AltitudeMeters>15.19999980926513671875</AltitudeMeters>
            <DistanceMeters>NAN</DistanceMeters>
          </Trackpoint>
          <Trackpoint>
            <Time>2022-07-07T13:34:07.000Z</Time>
            <Position>
              <LatitudeDegrees>43.4930922277271747589111328125</LatitudeDegrees>
              <LongitudeDegrees>-1.472487486898899078369140625</LongitudeDegrees>
            </Position>
            <AltitudeMeters>15.80000019073486328125</AltitudeMeters>
            <DistanceMeters>NAN</DistanceMeters>
          </Trackpoint>
          <Trackpoint>
            <Time>2022-07-07T13:34:08.000Z</Time>
            <Position>
              <LatitudeDegrees>43.49308669567108154296875</LatitudeDegrees>
              <LongitudeDegrees>-1.472502239048480987548828125</LongitudeDegrees>
            </Position>
            <AltitudeMeters>15.80000019073486328125</AltitudeMeters>
            <DistanceMeters>NAN</DistanceMeters>
          </Trackpoint>
          <Trackpoint>
            <Time>2022-07-07T13:34:10.000Z</Time>
            <Position>
              <LatitudeDegrees>43.49309314973652362823486328125</LatitudeDegrees>
              <LongitudeDegrees>-1.4725412987172603607177734375</LongitudeDegrees>
            </Position>
            <AltitudeMeters>15.6000003814697265625</AltitudeMeters>
            <DistanceMeters>NAN</DistanceMeters>
          </Trackpoint>
          <Trackpoint>
            <Time>2022-07-07T13:34:13.000Z</Time>
            <Position>
              <LatitudeDegrees>43.49313162267208099365234375</LatitudeDegrees>
              <LongitudeDegrees>-1.4726210944354534149169921875</LongitudeDegrees>
            </Position>
            <AltitudeMeters>15.3999996185302734375</AltitudeMeters>
            <DistanceMeters>NAN</DistanceMeters>
          </Trackpoint>
          <Trackpoint>
            <Time>2022-07-07T13:34:23.000Z</Time>
            <Position>
              <LatitudeDegrees>43.49326615221798419952392578125</LatitudeDegrees>
              <LongitudeDegrees>-1.472813375294208526611328125</LongitudeDegrees>
            </Position>
            <AltitudeMeters>16.200000762939453125</AltitudeMeters>
            <DistanceMeters>NAN</DistanceMeters>
          </Trackpoint>
          <Trackpoint>
            <Time>2022-07-07T13:34:26.000Z</Time>
            <Position>
              <LatitudeDegrees>43.493280149996280670166015625</LatitudeDegrees>
              <LongitudeDegrees>-1.472862325608730316162109375</LongitudeDegrees>
            </Position>
            <AltitudeMeters>16.200000762939453125</AltitudeMeters>
            <DistanceMeters>NAN</DistanceMeters>
          </Trackpoint>
          <Trackpoint>
            <Time>2022-07-07T13:34:29.000Z</Time>
            <Position>
              <LatitudeDegrees>43.49328023381531238555908203125</LatitudeDegrees>
              <LongitudeDegrees>-1.4728698693215847015380859375</LongitudeDegrees>
            </Position>
            <AltitudeMeters>16.3999996185302734375</AltitudeMeters>
            <DistanceMeters>NAN</DistanceMeters>
          </Trackpoint>
          <Trackpoint>
            <Time>2022-07-07T13:34:32.000Z</Time>
            <Position>
              <LatitudeDegrees>43.49328023381531238555908203125</LatitudeDegrees>
              <LongitudeDegrees>-1.4728698693215847015380859375</LongitudeDegrees>
            </Position>
            <AltitudeMeters>16.3999996185302734375</AltitudeMeters>
            <DistanceMeters>NAN</DistanceMeters>
          </Trackpoint>
          <Trackpoint>
            <Time>2022-07-07T13:34:37.000Z</Time>
            <Position>
              <LatitudeDegrees>43.493231199681758880615234375</LatitudeDegrees>
              <LongitudeDegrees>-1.4728661812841892242431640625</LongitudeDegrees>
            </Position>
            <AltitudeMeters>16.3999996185302734375</AltitudeMeters>
            <DistanceMeters>NAN</DistanceMeters>
          </Trackpoint>
          <Trackpoint>
            <Time>2022-07-07T13:34:40.000Z</Time>
            <Position>
              <LatitudeDegrees>43.493155427277088165283203125</LatitudeDegrees>
              <LongitudeDegrees>-1.47280809469521045684814453125</LongitudeDegrees>
            </Position>
            <AltitudeMeters>16.799999237060546875</AltitudeMeters>
            <DistanceMeters>NAN</DistanceMeters>
          </Trackpoint>
          <Trackpoint>
            <Time>2022-07-07T13:34:42.000Z</Time>
            <Position>
              <LatitudeDegrees>43.49308962933719158172607421875</LatitudeDegrees>
              <LongitudeDegrees>-1.47277222014963626861572265625</LongitudeDegrees>
            </Position>
            <AltitudeMeters>17.200000762939453125</AltitudeMeters>
            <DistanceMeters>NAN</DistanceMeters>
          </Trackpoint>
          <Trackpoint>
            <Time>2022-07-07T13:34:45.000Z</Time>
            <Position>
              <LatitudeDegrees>43.49297563545405864715576171875</LatitudeDegrees>
              <LongitudeDegrees>-1.47277909331023693084716796875</LongitudeDegrees>
            </Position>
            <AltitudeMeters>17.799999237060546875</AltitudeMeters>
            <DistanceMeters>NAN</DistanceMeters>
          </Trackpoint>
          <Trackpoint>
            <Time>2022-07-07T13:34:46.000Z</Time>
            <Position>
              <LatitudeDegrees>43.49294680170714855194091796875</LatitudeDegrees>
              <LongitudeDegrees>-1.472802646458148956298828125</LongitudeDegrees>
            </Position>
            <AltitudeMeters>17.799999237060546875</AltitudeMeters>
            <DistanceMeters>NAN</DistanceMeters>
          </Trackpoint>
          <Trackpoint>
            <Time>2022-07-07T13:34:50.000Z</Time>
            <Position>
              <LatitudeDegrees>43.49285678006708621978759765625</LatitudeDegrees>
              <LongitudeDegrees>-1.47288386709988117218017578125</LongitudeDegrees>
            </Position>
            <AltitudeMeters>16.200000762939453125</AltitudeMeters>
            <DistanceMeters>NAN</DistanceMeters>
          </Trackpoint>
          <Trackpoint>
            <Time>2022-07-07T13:34:51.000Z</Time>
            <Position>
              <LatitudeDegrees>43.4928390942513942718505859375</LatitudeDegrees>
              <LongitudeDegrees>-1.47290331311523914337158203125</LongitudeDegrees>
            </Position>
            <AltitudeMeters>15.80000019073486328125</AltitudeMeters>
            <DistanceMeters>NAN</DistanceMeters>
          </Trackpoint>
          <Trackpoint>
            <Time>2022-07-07T13:34:57.000Z</Time>
            <Position>
              <LatitudeDegrees>43.49274630658328533172607421875</LatitudeDegrees>
              <LongitudeDegrees>-1.473023258149623870849609375</LongitudeDegrees>
            </Position>
            <AltitudeMeters>15.3999996185302734375</AltitudeMeters>
            <DistanceMeters>NAN</DistanceMeters>
          </Trackpoint>
          <Trackpoint>
            <Time>2022-07-07T13:34:59.000Z</Time>
            <Position>
              <LatitudeDegrees>43.49271160550415515899658203125</LatitudeDegrees>
              <LongitudeDegrees>-1.47306860424578189849853515625</LongitudeDegrees>
            </Position>
            <AltitudeMeters>15.19999980926513671875</AltitudeMeters>
            <DistanceMeters>NAN</DistanceMeters>
          </Trackpoint>
          <Trackpoint>
            <Time>2022-07-07T13:35:04.000Z</Time>
            <Position>
              <LatitudeDegrees>43.4926630742847919464111328125</LatitudeDegrees>
              <LongitudeDegrees>-1.4732007868587970733642578125</LongitudeDegrees>
            </Position>
            <AltitudeMeters>15.6000003814697265625</AltitudeMeters>
            <DistanceMeters>NAN</DistanceMeters>
          </Trackpoint>
          <Trackpoint>
            <Time>2022-07-07T13:35:07.000Z</Time>
            <Position>
              <LatitudeDegrees>43.49264907650649547576904296875</LatitudeDegrees>
              <LongitudeDegrees>-1.47326222620904445648193359375</LongitudeDegrees>
            </Position>
            <AltitudeMeters>16.200000762939453125</AltitudeMeters>
            <DistanceMeters>NAN</DistanceMeters>
          </Trackpoint>
          <Trackpoint>
            <Time>2022-07-07T13:35:09.000Z</Time>
            <Position>
              <LatitudeDegrees>43.49259777925908565521240234375</LatitudeDegrees>
              <LongitudeDegrees>-1.47330849431455135345458984375</LongitudeDegrees>
            </Position>
            <AltitudeMeters>16.6000003814697265625</AltitudeMeters>
            <DistanceMeters>NAN</DistanceMeters>
          </Trackpoint>
          <Trackpoint>
            <Time>2022-07-07T13:35:15.000Z</Time>
            <Position>
              <LatitudeDegrees>43.492519743740558624267578125</LatitudeDegrees>
              <LongitudeDegrees>-1.47340589202940464019775390625</LongitudeDegrees>
            </Position>
            <AltitudeMeters>15.3999996185302734375</AltitudeMeters>
            <DistanceMeters>NAN</DistanceMeters>
          </Trackpoint>
          <Trackpoint>
            <Time>2022-07-07T13:35:16.000Z</Time>
            <Position>
              <LatitudeDegrees>43.4925059974193572998046875</LatitudeDegrees>
              <LongitudeDegrees>-1.47342366166412830352783203125</LongitudeDegrees>
            </Position>
            <AltitudeMeters>15.19999980926513671875</AltitudeMeters>
            <DistanceMeters>NAN</DistanceMeters>
          </Trackpoint>
          <Trackpoint>
            <Time>2022-07-07T13:35:17.000Z</Time>
            <Position>
              <LatitudeDegrees>43.49249049089848995208740234375</LatitudeDegrees>
              <LongitudeDegrees>-1.47344210185110569000244140625</LongitudeDegrees>
            </Position>
            <AltitudeMeters>15</AltitudeMeters>
            <DistanceMeters>NAN</DistanceMeters>
          </Trackpoint>
          <Trackpoint>
            <Time>2022-07-07T13:35:24.000Z</Time>
            <Position>
              <LatitudeDegrees>43.492440618574619293212890625</LatitudeDegrees>
              <LongitudeDegrees>-1.4735920540988445281982421875</LongitudeDegrees>
            </Position>
            <AltitudeMeters>15.19999980926513671875</AltitudeMeters>
            <DistanceMeters>NAN</DistanceMeters>
          </Trackpoint>
          <Trackpoint>
            <Time>2022-07-07T13:35:29.000Z</Time>
            <Position>
              <LatitudeDegrees>43.49241337738931179046630859375</LatitudeDegrees>
              <LongitudeDegrees>-1.4736225642263889312744140625</LongitudeDegrees>
            </Position>
            <AltitudeMeters>15.6000003814697265625</AltitudeMeters>
            <DistanceMeters>NAN</DistanceMeters>
          </Trackpoint>
          <Trackpoint>
            <Time>2022-07-07T13:35:30.000Z</Time>
            <Position>
              <LatitudeDegrees>43.49239535629749298095703125</LatitudeDegrees>
              <LongitudeDegrees>-1.47361141629517078399658203125</LongitudeDegrees>
            </Position>
            <AltitudeMeters>15.6000003814697265625</AltitudeMeters>
            <DistanceMeters>NAN</DistanceMeters>
          </Trackpoint>
          <Trackpoint>
            <Time>2022-07-07T13:35:33.000Z</Time>
            <Position>
              <LatitudeDegrees>43.49236174486577510833740234375</LatitudeDegrees>
              <LongitudeDegrees>-1.47355743683874607086181640625</LongitudeDegrees>
            </Position>
            <AltitudeMeters>15.3999996185302734375</AltitudeMeters>
            <DistanceMeters>NAN</DistanceMeters>
          </Trackpoint>
          <Trackpoint>
            <Time>2022-07-07T13:35:34.000Z</Time>
            <Position>
              <LatitudeDegrees>43.49236174486577510833740234375</LatitudeDegrees>
              <LongitudeDegrees>-1.47355743683874607086181640625</LongitudeDegrees>
            </Position>
            <AltitudeMeters>15.3999996185302734375</AltitudeMeters>
            <DistanceMeters>NAN</DistanceMeters>
          </Trackpoint>
          <Trackpoint>
            <Time>2022-07-07T13:35:35.000Z</Time>
            <Position>
              <LatitudeDegrees>43.492317236959934234619140625</LatitudeDegrees>
              <LongitudeDegrees>-1.4735246635973453521728515625</LongitudeDegrees>
            </Position>
            <AltitudeMeters>15.3999996185302734375</AltitudeMeters>
            <DistanceMeters>NAN</DistanceMeters>
          </Trackpoint>
          <Trackpoint>
            <Time>2022-07-07T13:35:37.000Z</Time>
            <Position>
              <LatitudeDegrees>43.4922671131789684295654296875</LatitudeDegrees>
              <LongitudeDegrees>-1.473472528159618377685546875</LongitudeDegrees>
            </Position>
            <AltitudeMeters>15.3999996185302734375</AltitudeMeters>
            <DistanceMeters>NAN</DistanceMeters>
          </Trackpoint>
          <Trackpoint>
            <Time>2022-07-07T13:35:42.000Z</Time>
            <Position>
              <LatitudeDegrees>43.49214733578264713287353515625</LatitudeDegrees>
              <LongitudeDegrees>-1.473379991948604583740234375</LongitudeDegrees>
            </Position>
            <AltitudeMeters>15</AltitudeMeters>
            <DistanceMeters>NAN</DistanceMeters>
          </Trackpoint>
          <Trackpoint>
            <Time>2022-07-07T13:35:49.000Z</Time>
            <Position>
              <LatitudeDegrees>43.4919429011642932891845703125</LatitudeDegrees>
              <LongitudeDegrees>-1.473198942840099334716796875</LongitudeDegrees>
            </Position>
            <AltitudeMeters>14.80000019073486328125</AltitudeMeters>
            <DistanceMeters>NAN</DistanceMeters>
          </Trackpoint>
          <Trackpoint>
            <Time>2022-07-07T13:35:52.000Z</Time>
            <Position>
              <LatitudeDegrees>43.49188883788883686065673828125</LatitudeDegrees>
              <LongitudeDegrees>-1.47314186207950115203857421875</LongitudeDegrees>
            </Position>
            <AltitudeMeters>14.6000003814697265625</AltitudeMeters>
            <DistanceMeters>NAN</DistanceMeters>
          </Trackpoint>
          <Trackpoint>
            <Time>2022-07-07T13:35:53.000Z</Time>
            <Position>
              <LatitudeDegrees>43.49187140353024005889892578125</LatitudeDegrees>
              <LongitudeDegrees>-1.4731317199766635894775390625</LongitudeDegrees>
            </Position>
            <AltitudeMeters>14.6000003814697265625</AltitudeMeters>
            <DistanceMeters>NAN</DistanceMeters>
          </Trackpoint>
          <Trackpoint>
            <Time>2022-07-07T13:35:54.000Z</Time>
            <Position>
              <LatitudeDegrees>43.4918557293713092803955078125</LatitudeDegrees>
              <LongitudeDegrees>-1.47312509827315807342529296875</LongitudeDegrees>
            </Position>
            <AltitudeMeters>14.6000003814697265625</AltitudeMeters>
            <DistanceMeters>NAN</DistanceMeters>
          </Trackpoint>
          <Trackpoint>
            <Time>2022-07-07T13:35:56.000Z</Time>
            <Position>
              <LatitudeDegrees>43.4918181784451007843017578125</LatitudeDegrees>
              <LongitudeDegrees>-1.47310565225780010223388671875</LongitudeDegrees>
            </Position>
            <AltitudeMeters>14.6000003814697265625</AltitudeMeters>
            <DistanceMeters>NAN</DistanceMeters>
          </Trackpoint>
          <Trackpoint>
            <Time>2022-07-07T13:35:58.000Z</Time>
            <Position>
              <LatitudeDegrees>43.4917890094220638275146484375</LatitudeDegrees>
              <LongitudeDegrees>-1.47307790815830230712890625</LongitudeDegrees>
            </Position>
            <AltitudeMeters>14.6000003814697265625</AltitudeMeters>
            <DistanceMeters>NAN</DistanceMeters>
          </Trackpoint>
          <Trackpoint>
            <Time>2022-07-07T13:35:59.000Z</Time>
            <Position>
              <LatitudeDegrees>43.49178423173725605010986328125</LatitudeDegrees>
              <LongitudeDegrees>-1.4730727113783359527587890625</LongitudeDegrees>
            </Position>
            <AltitudeMeters>14.6000003814697265625</AltitudeMeters>
            <DistanceMeters>NAN</DistanceMeters>
          </Trackpoint>
          <Trackpoint>
            <Time>2022-07-07T13:36:02.000Z</Time>
            <Position>
              <LatitudeDegrees>43.4917380474507808685302734375</LatitudeDegrees>
              <LongitudeDegrees>-1.4730207435786724090576171875</LongitudeDegrees>
            </Position>
            <AltitudeMeters>14.6000003814697265625</AltitudeMeters>
            <DistanceMeters>NAN</DistanceMeters>
          </Trackpoint>
          <Trackpoint>
            <Time>2022-07-07T13:36:07.000Z</Time>
            <Position>
              <LatitudeDegrees>43.4916364587843418121337890625</LatitudeDegrees>
              <LongitudeDegrees>-1.47289149463176727294921875</LongitudeDegrees>
            </Position>
            <AltitudeMeters>14.6000003814697265625</AltitudeMeters>
            <DistanceMeters>NAN</DistanceMeters>
          </Trackpoint>
          <Trackpoint>
            <Time>2022-07-07T13:36:13.000Z</Time>
            <Position>
              <LatitudeDegrees>43.4915006719529628753662109375</LatitudeDegrees>
              <LongitudeDegrees>-1.47282770834863185882568359375</LongitudeDegrees>
            </Position>
            <AltitudeMeters>15</AltitudeMeters>
            <DistanceMeters>NAN</DistanceMeters>
          </Trackpoint>
          <Trackpoint>
            <Time>2022-07-07T13:36:15.000Z</Time>
            <Position>
              <LatitudeDegrees>43.491453565657138824462890625</LatitudeDegrees>
              <LongitudeDegrees>-1.4727816917002201080322265625</LongitudeDegrees>
            </Position>
            <AltitudeMeters>15</AltitudeMeters>
            <DistanceMeters>NAN</DistanceMeters>
          </Trackpoint>
          <Trackpoint>
            <Time>2022-07-07T13:36:16.000Z</Time>
            <Position>
              <LatitudeDegrees>43.49144342355430126190185546875</LatitudeDegrees>
              <LongitudeDegrees>-1.4727575518190860748291015625</LongitudeDegrees>
            </Position>
            <AltitudeMeters>15</AltitudeMeters>
            <DistanceMeters>NAN</DistanceMeters>
          </Trackpoint>
          <Trackpoint>
            <Time>2022-07-07T13:36:18.000Z</Time>
            <Position>
              <LatitudeDegrees>43.491430096328258514404296875</LatitudeDegrees>
              <LongitudeDegrees>-1.47272980771958827972412109375</LongitudeDegrees>
            </Position>
            <AltitudeMeters>15</AltitudeMeters>
            <DistanceMeters>NAN</DistanceMeters>
          </Trackpoint>
          <Trackpoint>
            <Time>2022-07-07T13:36:20.000Z</Time>
            <Position>
              <LatitudeDegrees>43.49140754900872707366943359375</LatitudeDegrees>
              <LongitudeDegrees>-1.4726998843252658843994140625</LongitudeDegrees>
            </Position>
            <AltitudeMeters>15.19999980926513671875</AltitudeMeters>
            <DistanceMeters>NAN</DistanceMeters>
          </Trackpoint>
          <Trackpoint>
            <Time>2022-07-07T13:36:22.000Z</Time>
            <Position>
              <LatitudeDegrees>43.4913539886474609375</LatitudeDegrees>
              <LongitudeDegrees>-1.47268957458436489105224609375</LongitudeDegrees>
            </Position>
            <AltitudeMeters>15.19999980926513671875</AltitudeMeters>
            <DistanceMeters>NAN</DistanceMeters>
          </Trackpoint>
          <Trackpoint>
            <Time>2022-07-07T13:36:24.000Z</Time>
            <Position>
              <LatitudeDegrees>43.4913008473813533782958984375</LatitudeDegrees>
              <LongitudeDegrees>-1.47269829176366329193115234375</LongitudeDegrees>
            </Position>
            <AltitudeMeters>15.19999980926513671875</AltitudeMeters>
            <DistanceMeters>NAN</DistanceMeters>
          </Trackpoint>
          <Trackpoint>
            <Time>2022-07-07T13:36:26.000Z</Time>
            <Position>
              <LatitudeDegrees>43.491253070533275604248046875</LatitudeDegrees>
              <LongitudeDegrees>-1.472730226814746856689453125</LongitudeDegrees>
            </Position>
            <AltitudeMeters>15.3999996185302734375</AltitudeMeters>
            <DistanceMeters>NAN</DistanceMeters>
          </Trackpoint>
          <Trackpoint>
            <Time>2022-07-07T13:36:27.000Z</Time>
            <Position>
              <LatitudeDegrees>43.49123664200305938720703125</LatitudeDegrees>
              <LongitudeDegrees>-1.47274992428719997406005859375</LongitudeDegrees>
            </Position>
            <AltitudeMeters>15.3999996185302734375</AltitudeMeters>
            <DistanceMeters>NAN</DistanceMeters>
          </Trackpoint>
          <Trackpoint>
            <Time>2022-07-07T13:36:34.000Z</Time>
            <Position>
              <LatitudeDegrees>43.49115357734262943267822265625</LatitudeDegrees>
              <LongitudeDegrees>-1.47283726371824741363525390625</LongitudeDegrees>
            </Position>
            <AltitudeMeters>14.80000019073486328125</AltitudeMeters>
            <DistanceMeters>NAN</DistanceMeters>
          </Trackpoint>
          <Trackpoint>
            <Time>2022-07-07T13:36:36.000Z</Time>
            <Position>
              <LatitudeDegrees>43.49114402197301387786865234375</LatitudeDegrees>
              <LongitudeDegrees>-1.472843550145626068115234375</LongitudeDegrees>
            </Position>
            <AltitudeMeters>14.80000019073486328125</AltitudeMeters>
            <DistanceMeters>NAN</DistanceMeters>
          </Trackpoint>
          <Trackpoint>
            <Time>2022-07-07T13:36:37.000Z</Time>
            <Position>
              <LatitudeDegrees>43.49114268086850643157958984375</LatitudeDegrees>
              <LongitudeDegrees>-1.4728403650224208831787109375</LongitudeDegrees>
            </Position>
            <AltitudeMeters>14.80000019073486328125</AltitudeMeters>
            <DistanceMeters>NAN</DistanceMeters>
          </Trackpoint>
          <Trackpoint>
            <Time>2022-07-07T13:36:39.000Z</Time>
            <Position>
              <LatitudeDegrees>43.49114670418202877044677734375</LatitudeDegrees>
              <LongitudeDegrees>-1.47284061647951602935791015625</LongitudeDegrees>
            </Position>
            <AltitudeMeters>15</AltitudeMeters>
            <DistanceMeters>NAN</DistanceMeters>
          </Trackpoint>
          <Trackpoint>
            <Time>2022-07-07T13:36:59.000Z</Time>
            <Position>
              <LatitudeDegrees>43.4910182096064090728759765625</LatitudeDegrees>
              <LongitudeDegrees>-1.47288437001407146453857421875</LongitudeDegrees>
            </Position>
            <AltitudeMeters>14.80000019073486328125</AltitudeMeters>
            <DistanceMeters>NAN</DistanceMeters>
          </Trackpoint>
          <Trackpoint>
            <Time>2022-07-07T13:37:02.000Z</Time>
            <Position>
              <LatitudeDegrees>43.4909940697252750396728515625</LatitudeDegrees>
              <LongitudeDegrees>-1.472904570400714874267578125</LongitudeDegrees>
            </Position>
            <AltitudeMeters>14.6000003814697265625</AltitudeMeters>
            <DistanceMeters>NAN</DistanceMeters>
          </Trackpoint>
          <Trackpoint>
            <Time>2022-07-07T13:37:05.000Z</Time>
            <Position>
              <LatitudeDegrees>43.490976132452487945556640625</LatitudeDegrees>
              <LongitudeDegrees>-1.4729567058384418487548828125</LongitudeDegrees>
            </Position>
            <AltitudeMeters>14.6000003814697265625</AltitudeMeters>
            <DistanceMeters>NAN</DistanceMeters>
          </Trackpoint>
          <Trackpoint>
            <Time>2022-07-07T13:37:07.000Z</Time>
            <Position>
              <LatitudeDegrees>43.49097604863345623016357421875</LatitudeDegrees>
              <LongitudeDegrees>-1.47294539026916027069091796875</LongitudeDegrees>
            </Position>
            <AltitudeMeters>14.3999996185302734375</AltitudeMeters>
            <DistanceMeters>NAN</DistanceMeters>
          </Trackpoint>
          <Trackpoint>
            <Time>2022-07-07T13:37:11.000Z</Time>
            <Position>
              <LatitudeDegrees>43.4909206442534923553466796875</LatitudeDegrees>
              <LongitudeDegrees>-1.4728531055152416229248046875</LongitudeDegrees>
            </Position>
            <AltitudeMeters>14.3999996185302734375</AltitudeMeters>
            <DistanceMeters>NAN</DistanceMeters>
          </Trackpoint>
          <Trackpoint>
            <Time>2022-07-07T13:37:13.000Z</Time>
            <Position>
              <LatitudeDegrees>43.4908837638795375823974609375</LatitudeDegrees>
              <LongitudeDegrees>-1.47284732200205326080322265625</LongitudeDegrees>
            </Position>
            <AltitudeMeters>14.3999996185302734375</AltitudeMeters>
            <DistanceMeters>NAN</DistanceMeters>
          </Trackpoint>
          <Trackpoint>
            <Time>2022-07-07T13:37:15.000Z</Time>
            <Position>
              <LatitudeDegrees>43.49085585214197635650634765625</LatitudeDegrees>
              <LongitudeDegrees>-1.47278931923210620880126953125</LongitudeDegrees>
            </Position>
            <AltitudeMeters>14.3999996185302734375</AltitudeMeters>
            <DistanceMeters>NAN</DistanceMeters>
          </Trackpoint>
          <Trackpoint>
            <Time>2022-07-07T13:37:20.000Z</Time>
            <Position>
              <LatitudeDegrees>43.49084830842912197113037109375</LatitudeDegrees>
              <LongitudeDegrees>-1.4726133830845355987548828125</LongitudeDegrees>
            </Position>
            <AltitudeMeters>14.6000003814697265625</AltitudeMeters>
            <DistanceMeters>NAN</DistanceMeters>
          </Trackpoint>
          <Trackpoint>
            <Time>2022-07-07T13:37:22.000Z</Time>
            <Position>
              <LatitudeDegrees>43.4908455424010753631591796875</LatitudeDegrees>
              <LongitudeDegrees>-1.4725423045456409454345703125</LongitudeDegrees>
            </Position>
            <AltitudeMeters>14.6000003814697265625</AltitudeMeters>
            <DistanceMeters>NAN</DistanceMeters>
          </Trackpoint>
          <Trackpoint>
            <Time>2022-07-07T13:37:24.000Z</Time>
            <Position>
              <LatitudeDegrees>43.4908415190875530242919921875</LatitudeDegrees>
              <LongitudeDegrees>-1.472478099167346954345703125</LongitudeDegrees>
            </Position>
            <AltitudeMeters>14.6000003814697265625</AltitudeMeters>
            <DistanceMeters>NAN</DistanceMeters>
          </Trackpoint>
          <Trackpoint>
            <Time>2022-07-07T13:37:28.000Z</Time>
            <Position>
              <LatitudeDegrees>43.49081595428287982940673828125</LatitudeDegrees>
              <LongitudeDegrees>-1.47234222851693630218505859375</LongitudeDegrees>
            </Position>
            <AltitudeMeters>14.80000019073486328125</AltitudeMeters>
            <DistanceMeters>NAN</DistanceMeters>
          </Trackpoint>
          <Trackpoint>
            <Time>2022-07-07T13:37:29.000Z</Time>
            <Position>
              <LatitudeDegrees>43.49079986102879047393798828125</LatitudeDegrees>
              <LongitudeDegrees>-1.47230685688555240631103515625</LongitudeDegrees>
            </Position>
            <AltitudeMeters>14.80000019073486328125</AltitudeMeters>
            <DistanceMeters>NAN</DistanceMeters>
          </Trackpoint>
          <Trackpoint>
            <Time>2022-07-07T13:37:32.000Z</Time>
            <Position>
              <LatitudeDegrees>43.49079282023012638092041015625</LatitudeDegrees>
              <LongitudeDegrees>-1.47227249108254909515380859375</LongitudeDegrees>
            </Position>
            <AltitudeMeters>14.80000019073486328125</AltitudeMeters>
            <DistanceMeters>NAN</DistanceMeters>
          </Trackpoint>
          <Trackpoint>
            <Time>2022-07-07T13:37:34.000Z</Time>
            <Position>
              <LatitudeDegrees>43.49078661762177944183349609375</LatitudeDegrees>
              <LongitudeDegrees>-1.4722331799566745758056640625</LongitudeDegrees>
            </Position>
            <AltitudeMeters>15</AltitudeMeters>
            <DistanceMeters>NAN</DistanceMeters>
          </Trackpoint>
          <Trackpoint>
            <Time>2022-07-07T13:37:41.000Z</Time>
            <Position>
              <LatitudeDegrees>43.490736745297908782958984375</LatitudeDegrees>
              <LongitudeDegrees>-1.4720152504742145538330078125</LongitudeDegrees>
            </Position>
            <AltitudeMeters>15</AltitudeMeters>
            <DistanceMeters>NAN</DistanceMeters>
          </Trackpoint>
          <Trackpoint>
            <Time>2022-07-07T13:37:42.000Z</Time>
            <Position>
              <LatitudeDegrees>43.49074001424014568328857421875</LatitudeDegrees>
              <LongitudeDegrees>-1.47197895683348178863525390625</LongitudeDegrees>
            </Position>
            <AltitudeMeters>15.19999980926513671875</AltitudeMeters>
            <DistanceMeters>NAN</DistanceMeters>
          </Trackpoint>
          <Trackpoint>
            <Time>2022-07-07T13:37:44.000Z</Time>
            <Position>
              <LatitudeDegrees>43.49074655212461948394775390625</LatitudeDegrees>
              <LongitudeDegrees>-1.4719171822071075439453125</LongitudeDegrees>
            </Position>
            <AltitudeMeters>15.19999980926513671875</AltitudeMeters>
            <DistanceMeters>NAN</DistanceMeters>
          </Trackpoint>
          <Trackpoint>
            <Time>2022-07-07T13:37:46.000Z</Time>
            <Position>
              <LatitudeDegrees>43.4907419420778751373291015625</LatitudeDegrees>
              <LongitudeDegrees>-1.471855826675891876220703125</LongitudeDegrees>
            </Position>
            <AltitudeMeters>15.19999980926513671875</AltitudeMeters>
            <DistanceMeters>NAN</DistanceMeters>
          </Trackpoint>
          <Trackpoint>
            <Time>2022-07-07T13:37:51.000Z</Time>
            <Position>
              <LatitudeDegrees>43.49073666147887706756591796875</LatitudeDegrees>
              <LongitudeDegrees>-1.47170570679008960723876953125</LongitudeDegrees>
            </Position>
            <AltitudeMeters>15.3999996185302734375</AltitudeMeters>
            <DistanceMeters>NAN</DistanceMeters>
          </Trackpoint>
          <Trackpoint>
            <Time>2022-07-07T13:37:52.000Z</Time>
            <Position>
              <LatitudeDegrees>43.49072702229022979736328125</LatitudeDegrees>
              <LongitudeDegrees>-1.471692211925983428955078125</LongitudeDegrees>
            </Position>
            <AltitudeMeters>15.6000003814697265625</AltitudeMeters>
            <DistanceMeters>NAN</DistanceMeters>
          </Trackpoint>
          <Trackpoint>
            <Time>2022-07-07T13:37:55.000Z</Time>
            <Position>
              <LatitudeDegrees>43.49071319214999675750732421875</LatitudeDegrees>
              <LongitudeDegrees>-1.4716776274144649505615234375</LongitudeDegrees>
            </Position>
            <AltitudeMeters>15.6000003814697265625</AltitudeMeters>
            <DistanceMeters>NAN</DistanceMeters>
          </Trackpoint>
          <Trackpoint>
            <Time>2022-07-07T13:39:10.000Z</Time>
            <Position>
              <LatitudeDegrees>43.49065083079040050506591796875</LatitudeDegrees>
              <LongitudeDegrees>-1.471630521118640899658203125</LongitudeDegrees>
            </Position>
            <AltitudeMeters>15.6000003814697265625</AltitudeMeters>
            <DistanceMeters>NAN</DistanceMeters>
          </Trackpoint>
          <Trackpoint>
            <Time>2022-07-07T13:39:11.000Z</Time>
            <Position>
              <LatitudeDegrees>43.49063188768923282623291015625</LatitudeDegrees>
              <LongitudeDegrees>-1.47162280976772308349609375</LongitudeDegrees>
            </Position>
            <AltitudeMeters>15.6000003814697265625</AltitudeMeters>
            <DistanceMeters>NAN</DistanceMeters>
          </Trackpoint>
          <Trackpoint>
            <Time>2022-07-07T13:39:13.000Z</Time>
            <Position>
              <LatitudeDegrees>43.4905707836151123046875</LatitudeDegrees>
              <LongitudeDegrees>-1.47159573622047901153564453125</LongitudeDegrees>
            </Position>
            <AltitudeMeters>15.80000019073486328125</AltitudeMeters>
            <DistanceMeters>NAN</DistanceMeters>
          </Trackpoint>
          <Trackpoint>
            <Time>2022-07-07T13:39:15.000Z</Time>
            <Position>
              <LatitudeDegrees>43.490509092807769775390625</LatitudeDegrees>
              <LongitudeDegrees>-1.47157612256705760955810546875</LongitudeDegrees>
            </Position>
            <AltitudeMeters>15.80000019073486328125</AltitudeMeters>
            <DistanceMeters>NAN</DistanceMeters>
          </Trackpoint>
          <Trackpoint>
            <Time>2022-07-07T13:39:17.000Z</Time>
            <Position>
              <LatitudeDegrees>43.49045653827488422393798828125</LatitudeDegrees>
              <LongitudeDegrees>-1.47155550308525562286376953125</LongitudeDegrees>
            </Position>
            <AltitudeMeters>16</AltitudeMeters>
            <DistanceMeters>NAN</DistanceMeters>
          </Trackpoint>
          <Trackpoint>
            <Time>2022-07-07T13:39:19.000Z</Time>
            <Position>
              <LatitudeDegrees>43.4904153831303119659423828125</LatitudeDegrees>
              <LongitudeDegrees>-1.471537649631500244140625</LongitudeDegrees>
            </Position>
            <AltitudeMeters>15.80000019073486328125</AltitudeMeters>
            <DistanceMeters>NAN</DistanceMeters>
          </Trackpoint>
          <Trackpoint>
            <Time>2022-07-07T13:39:23.000Z</Time>
            <Position>
              <LatitudeDegrees>43.490318320691585540771484375</LatitudeDegrees>
              <LongitudeDegrees>-1.47150001488626003265380859375</LongitudeDegrees>
            </Position>
            <AltitudeMeters>15.80000019073486328125</AltitudeMeters>
            <DistanceMeters>NAN</DistanceMeters>
          </Trackpoint>
          <Trackpoint>
            <Time>2022-07-07T13:39:29.000Z</Time>
            <Position>
              <LatitudeDegrees>43.49022813141345977783203125</LatitudeDegrees>
              <LongitudeDegrees>-1.47145793773233890533447265625</LongitudeDegrees>
            </Position>
            <AltitudeMeters>15.80000019073486328125</AltitudeMeters>
            <DistanceMeters>NAN</DistanceMeters>
          </Trackpoint>
          <Trackpoint>
            <Time>2022-07-07T13:39:35.000Z</Time>
            <Position>
              <LatitudeDegrees>43.49019200541079044342041015625</LatitudeDegrees>
              <LongitudeDegrees>-1.471482999622821807861328125</LongitudeDegrees>
            </Position>
            <AltitudeMeters>15.80000019073486328125</AltitudeMeters>
            <DistanceMeters>NAN</DistanceMeters>
          </Trackpoint>
          <Trackpoint>
            <Time>2022-07-07T13:39:37.000Z</Time>
            <Position>
              <LatitudeDegrees>43.490181528031826019287109375</LatitudeDegrees>
              <LongitudeDegrees>-1.47145785391330718994140625</LongitudeDegrees>
            </Position>
            <AltitudeMeters>15.80000019073486328125</AltitudeMeters>
            <DistanceMeters>NAN</DistanceMeters>
          </Trackpoint>
          <Trackpoint>
            <Time>2022-07-07T13:39:40.000Z</Time>
            <Position>
              <LatitudeDegrees>43.490181528031826019287109375</LatitudeDegrees>
              <LongitudeDegrees>-1.47145785391330718994140625</LongitudeDegrees>
            </Position>
            <AltitudeMeters>15.80000019073486328125</AltitudeMeters>
            <DistanceMeters>NAN</DistanceMeters>
          </Trackpoint>
          <Trackpoint>
            <Time>2022-07-07T13:39:44.000Z</Time>
            <Position>
              <LatitudeDegrees>43.490181528031826019287109375</LatitudeDegrees>
              <LongitudeDegrees>-1.47145785391330718994140625</LongitudeDegrees>
            </Position>
            <AltitudeMeters>15.6000003814697265625</AltitudeMeters>
            <DistanceMeters>NAN</DistanceMeters>
          </Trackpoint>
          <Trackpoint>
            <Time>2022-07-07T13:39:52.000Z</Time>
            <Position>
              <LatitudeDegrees>43.49020508117973804473876953125</LatitudeDegrees>
              <LongitudeDegrees>-1.47152717225253582000732421875</LongitudeDegrees>
            </Position>
            <AltitudeMeters>15.80000019073486328125</AltitudeMeters>
            <DistanceMeters>NAN</DistanceMeters>
          </Trackpoint>
          <Trackpoint>
            <Time>2022-07-07T13:39:53.000Z</Time>
            <Position>
              <LatitudeDegrees>43.4902205877006053924560546875</LatitudeDegrees>
              <LongitudeDegrees>-1.47156170569360256195068359375</LongitudeDegrees>
            </Position>
            <AltitudeMeters>16</AltitudeMeters>
            <DistanceMeters>NAN</DistanceMeters>
          </Trackpoint>
          <Trackpoint>
            <Time>2022-07-07T13:39:54.000Z</Time>
            <Position>
              <LatitudeDegrees>43.49022989161312580108642578125</LatitudeDegrees>
              <LongitudeDegrees>-1.47161300294101238250732421875</LongitudeDegrees>
            </Position>
            <AltitudeMeters>15.80000019073486328125</AltitudeMeters>
            <DistanceMeters>NAN</DistanceMeters>
          </Trackpoint>
          <Trackpoint>
            <Time>2022-07-07T13:39:56.000Z</Time>
            <Position>
              <LatitudeDegrees>43.4902765788137912750244140625</LatitudeDegrees>
              <LongitudeDegrees>-1.47172263823449611663818359375</LongitudeDegrees>
            </Position>
            <AltitudeMeters>15.80000019073486328125</AltitudeMeters>
            <DistanceMeters>NAN</DistanceMeters>
          </Trackpoint>
          <Trackpoint>
            <Time>2022-07-07T13:39:58.000Z</Time>
            <Position>
              <LatitudeDegrees>43.4903211705386638641357421875</LatitudeDegrees>
              <LongitudeDegrees>-1.471820287406444549560546875</LongitudeDegrees>
            </Position>
            <AltitudeMeters>15.80000019073486328125</AltitudeMeters>
            <DistanceMeters>NAN</DistanceMeters>
          </Trackpoint>
          <Trackpoint>
            <Time>2022-07-07T13:39:59.000Z</Time>
            <Position>
              <LatitudeDegrees>43.49034204147756099700927734375</LatitudeDegrees>
              <LongitudeDegrees>-1.4718935452401638031005859375</LongitudeDegrees>
            </Position>
            <AltitudeMeters>15.80000019073486328125</AltitudeMeters>
            <DistanceMeters>NAN</DistanceMeters>
          </Trackpoint>
          <Trackpoint>
            <Time>2022-07-07T13:40:00.000Z</Time>
            <Position>
              <LatitudeDegrees>43.49035092629492282867431640625</LatitudeDegrees>
              <LongitudeDegrees>-1.47195498459041118621826171875</LongitudeDegrees>
            </Position>
            <AltitudeMeters>15.80000019073486328125</AltitudeMeters>
            <DistanceMeters>NAN</DistanceMeters>
          </Trackpoint>
          <Trackpoint>
            <Time>2022-07-07T13:40:02.000Z</Time>
            <Position>
              <LatitudeDegrees>43.49033785052597522735595703125</LatitudeDegrees>
              <LongitudeDegrees>-1.4720378816127777099609375</LongitudeDegrees>
            </Position>
            <AltitudeMeters>15.6000003814697265625</AltitudeMeters>
            <DistanceMeters>NAN</DistanceMeters>
          </Trackpoint>
          <Trackpoint>
            <Time>2022-07-07T13:40:05.000Z</Time>
            <Position>
              <LatitudeDegrees>43.49032410420477390289306640625</LatitudeDegrees>
              <LongitudeDegrees>-1.4721255563199520111083984375</LongitudeDegrees>
            </Position>
            <AltitudeMeters>15.19999980926513671875</AltitudeMeters>
            <DistanceMeters>NAN</DistanceMeters>
          </Trackpoint>
          <Trackpoint>
            <Time>2022-07-07T13:40:10.000Z</Time>
            <Position>
              <LatitudeDegrees>43.49027934484183788299560546875</LatitudeDegrees>
              <LongitudeDegrees>-1.4722824655473232269287109375</LongitudeDegrees>
            </Position>
            <AltitudeMeters>15</AltitudeMeters>
            <DistanceMeters>NAN</DistanceMeters>
          </Trackpoint>
          <Trackpoint>
            <Time>2022-07-07T13:40:11.000Z</Time>
            <Position>
              <LatitudeDegrees>43.49026123993098735809326171875</LatitudeDegrees>
              <LongitudeDegrees>-1.4722968824207782745361328125</LongitudeDegrees>
            </Position>
            <AltitudeMeters>15</AltitudeMeters>
            <DistanceMeters>NAN</DistanceMeters>
          </Trackpoint>
          <Trackpoint>
            <Time>2022-07-07T13:40:12.000Z</Time>
            <Position>
              <LatitudeDegrees>43.4902422130107879638671875</LatitudeDegrees>
              <LongitudeDegrees>-1.47229696623980998992919921875</LongitudeDegrees>
            </Position>
            <AltitudeMeters>15</AltitudeMeters>
            <DistanceMeters>NAN</DistanceMeters>
          </Trackpoint>
          <Trackpoint>
            <Time>2022-07-07T13:40:14.000Z</Time>
            <Position>
              <LatitudeDegrees>43.49021346308290958404541015625</LatitudeDegrees>
              <LongitudeDegrees>-1.47227752022445201873779296875</LongitudeDegrees>
            </Position>
            <AltitudeMeters>15</AltitudeMeters>
            <DistanceMeters>NAN</DistanceMeters>
          </Trackpoint>
          <Trackpoint>
            <Time>2022-07-07T13:40:19.000Z</Time>
            <Position>
              <LatitudeDegrees>43.49013014696538448333740234375</LatitudeDegrees>
              <LongitudeDegrees>-1.472198478877544403076171875</LongitudeDegrees>
            </Position>
            <AltitudeMeters>15</AltitudeMeters>
            <DistanceMeters>NAN</DistanceMeters>
          </Trackpoint>
          <Trackpoint>
            <Time>2022-07-07T13:40:22.000Z</Time>
            <Position>
              <LatitudeDegrees>43.490107767283916473388671875</LatitudeDegrees>
              <LongitudeDegrees>-1.47219386883080005645751953125</LongitudeDegrees>
            </Position>
            <AltitudeMeters>15</AltitudeMeters>
            <DistanceMeters>NAN</DistanceMeters>
          </Trackpoint>
          <Trackpoint>
            <Time>2022-07-07T13:40:25.000Z</Time>
            <Position>
              <LatitudeDegrees>43.490093685686588287353515625</LatitudeDegrees>
              <LongitudeDegrees>-1.47218397818505764007568359375</LongitudeDegrees>
            </Position>
            <AltitudeMeters>15</AltitudeMeters>
            <DistanceMeters>NAN</DistanceMeters>
          </Trackpoint>
          <Trackpoint>
            <Time>2022-07-07T13:40:27.000Z</Time>
            <Position>
              <LatitudeDegrees>43.49008203484117984771728515625</LatitudeDegrees>
              <LongitudeDegrees>-1.47214542143046855926513671875</LongitudeDegrees>
            </Position>
            <AltitudeMeters>15</AltitudeMeters>
            <DistanceMeters>NAN</DistanceMeters>
          </Trackpoint>
          <Trackpoint>
            <Time>2022-07-07T13:40:30.000Z</Time>
            <Position>
              <LatitudeDegrees>43.4900732338428497314453125</LatitudeDegrees>
              <LongitudeDegrees>-1.47206143476068973541259765625</LongitudeDegrees>
            </Position>
            <AltitudeMeters>15.19999980926513671875</AltitudeMeters>
            <DistanceMeters>NAN</DistanceMeters>
          </Trackpoint>
          <Trackpoint>
            <Time>2022-07-07T13:40:31.000Z</Time>
            <Position>
              <LatitudeDegrees>43.4900713898241519927978515625</LatitudeDegrees>
              <LongitudeDegrees>-1.4720333553850650787353515625</LongitudeDegrees>
            </Position>
            <AltitudeMeters>15</AltitudeMeters>
            <DistanceMeters>NAN</DistanceMeters>
          </Trackpoint>
          <Trackpoint>
            <Time>2022-07-07T13:40:35.000Z</Time>
            <Position>
              <LatitudeDegrees>43.4900465793907642364501953125</LatitudeDegrees>
              <LongitudeDegrees>-1.47189463488757610321044921875</LongitudeDegrees>
            </Position>
            <AltitudeMeters>15</AltitudeMeters>
            <DistanceMeters>NAN</DistanceMeters>
          </Trackpoint>
          <Trackpoint>
            <Time>2022-07-07T13:40:36.000Z</Time>
            <Position>
              <LatitudeDegrees>43.4899909235537052154541015625</LatitudeDegrees>
              <LongitudeDegrees>-1.4718875102698802947998046875</LongitudeDegrees>
            </Position>
            <AltitudeMeters>14.80000019073486328125</AltitudeMeters>
            <DistanceMeters>NAN</DistanceMeters>
          </Trackpoint>
          <Trackpoint>
            <Time>2022-07-07T13:40:38.000Z</Time>
            <Position>
              <LatitudeDegrees>43.48994289524853229522705078125</LatitudeDegrees>
              <LongitudeDegrees>-1.47189832292497158050537109375</LongitudeDegrees>
            </Position>
            <AltitudeMeters>14.80000019073486328125</AltitudeMeters>
            <DistanceMeters>NAN</DistanceMeters>
          </Trackpoint>
          <Trackpoint>
            <Time>2022-07-07T13:40:39.000Z</Time>
            <Position>
              <LatitudeDegrees>43.4899203479290008544921875</LatitudeDegrees>
              <LongitudeDegrees>-1.47191114723682403564453125</LongitudeDegrees>
            </Position>
            <AltitudeMeters>14.80000019073486328125</AltitudeMeters>
            <DistanceMeters>NAN</DistanceMeters>
          </Trackpoint>
          <Trackpoint>
            <Time>2022-07-07T13:40:42.000Z</Time>
            <Position>
              <LatitudeDegrees>43.48985488526523113250732421875</LatitudeDegrees>
              <LongitudeDegrees>-1.47192816250026226043701171875</LongitudeDegrees>
            </Position>
            <AltitudeMeters>14.80000019073486328125</AltitudeMeters>
            <DistanceMeters>NAN</DistanceMeters>
          </Trackpoint>
          <Trackpoint>
            <Time>2022-07-07T13:40:45.000Z</Time>
            <Position>
              <LatitudeDegrees>43.4897867403924465179443359375</LatitudeDegrees>
              <LongitudeDegrees>-1.47191391326487064361572265625</LongitudeDegrees>
            </Position>
            <AltitudeMeters>14.6000003814697265625</AltitudeMeters>
            <DistanceMeters>NAN</DistanceMeters>
          </Trackpoint>
          <Trackpoint>
            <Time>2022-07-07T13:40:47.000Z</Time>
            <Position>
              <LatitudeDegrees>43.48975740373134613037109375</LatitudeDegrees>
              <LongitudeDegrees>-1.47188541479408740997314453125</LongitudeDegrees>
            </Position>
            <AltitudeMeters>14.6000003814697265625</AltitudeMeters>
            <DistanceMeters>NAN</DistanceMeters>
          </Trackpoint>
          <Trackpoint>
            <Time>2022-07-07T13:40:51.000Z</Time>
            <Position>
              <LatitudeDegrees>43.489722199738025665283203125</LatitudeDegrees>
              <LongitudeDegrees>-1.47183797322213649749755859375</LongitudeDegrees>
            </Position>
            <AltitudeMeters>14.6000003814697265625</AltitudeMeters>
            <DistanceMeters>NAN</DistanceMeters>
          </Trackpoint>
          <Trackpoint>
            <Time>2022-07-07T13:40:52.000Z</Time>
            <Position>
              <LatitudeDegrees>43.48971239291131496429443359375</LatitudeDegrees>
              <LongitudeDegrees>-1.47182808257639408111572265625</LongitudeDegrees>
            </Position>
            <AltitudeMeters>14.6000003814697265625</AltitudeMeters>
            <DistanceMeters>NAN</DistanceMeters>
          </Trackpoint>
          <Trackpoint>
            <Time>2022-07-07T13:40:53.000Z</Time>
            <Position>
              <LatitudeDegrees>43.48969730548560619354248046875</LatitudeDegrees>
              <LongitudeDegrees>-1.47181970067322254180908203125</LongitudeDegrees>
            </Position>
            <AltitudeMeters>14.6000003814697265625</AltitudeMeters>
            <DistanceMeters>NAN</DistanceMeters>
          </Trackpoint>
          <Trackpoint>
            <Time>2022-07-07T13:40:55.000Z</Time>
            <Position>
              <LatitudeDegrees>43.4896576590836048126220703125</LatitudeDegrees>
              <LongitudeDegrees>-1.4718340337276458740234375</LongitudeDegrees>
            </Position>
            <AltitudeMeters>15</AltitudeMeters>
            <DistanceMeters>NAN</DistanceMeters>
          </Trackpoint>
          <Trackpoint>
            <Time>2022-07-07T13:41:00.000Z</Time>
            <Position>
              <LatitudeDegrees>43.4895394742488861083984375</LatitudeDegrees>
              <LongitudeDegrees>-1.47191173397004604339599609375</LongitudeDegrees>
            </Position>
            <AltitudeMeters>15.19999980926513671875</AltitudeMeters>
            <DistanceMeters>NAN</DistanceMeters>
          </Trackpoint>
          <Trackpoint>
            <Time>2022-07-07T13:41:06.000Z</Time>
            <Position>
              <LatitudeDegrees>43.48941869102418422698974609375</LatitudeDegrees>
              <LongitudeDegrees>-1.4719629473984241485595703125</LongitudeDegrees>
            </Position>
            <AltitudeMeters>15.6000003814697265625</AltitudeMeters>
            <DistanceMeters>NAN</DistanceMeters>
          </Trackpoint>
          <Trackpoint>
            <Time>2022-07-07T13:41:12.000Z</Time>
            <Position>
              <LatitudeDegrees>43.4893116541206836700439453125</LatitudeDegrees>
              <LongitudeDegrees>-1.472017429769039154052734375</LongitudeDegrees>
            </Position>
            <AltitudeMeters>15.80000019073486328125</AltitudeMeters>
            <DistanceMeters>NAN</DistanceMeters>
          </Trackpoint>
          <Trackpoint>
            <Time>2022-07-07T13:41:17.000Z</Time>
            <Position>
              <LatitudeDegrees>43.4892221353948116302490234375</LatitudeDegrees>
              <LongitudeDegrees>-1.4720447547733783721923828125</LongitudeDegrees>
            </Position>
            <AltitudeMeters>15.80000019073486328125</AltitudeMeters>
            <DistanceMeters>NAN</DistanceMeters>
          </Trackpoint>
          <Trackpoint>
            <Time>2022-07-07T13:41:25.000Z</Time>
            <Position>
              <LatitudeDegrees>43.489095233380794525146484375</LatitudeDegrees>
              <LongitudeDegrees>-1.472127400338649749755859375</LongitudeDegrees>
            </Position>
            <AltitudeMeters>15.19999980926513671875</AltitudeMeters>
            <DistanceMeters>NAN</DistanceMeters>
          </Trackpoint>
          <Trackpoint>
            <Time>2022-07-07T13:41:29.000Z</Time>
            <Position>
              <LatitudeDegrees>43.489095233380794525146484375</LatitudeDegrees>
              <LongitudeDegrees>-1.472127400338649749755859375</LongitudeDegrees>
            </Position>
            <AltitudeMeters>15.19999980926513671875</AltitudeMeters>
            <DistanceMeters>NAN</DistanceMeters>
          </Trackpoint>
          <Trackpoint>
            <Time>2022-07-07T13:41:35.000Z</Time>
            <Position>
              <LatitudeDegrees>43.4891262464225292205810546875</LatitudeDegrees>
              <LongitudeDegrees>-1.47211424075067043304443359375</LongitudeDegrees>
            </Position>
            <AltitudeMeters>15.3999996185302734375</AltitudeMeters>
            <DistanceMeters>NAN</DistanceMeters>
          </Trackpoint>
          <Trackpoint>
            <Time>2022-07-07T13:41:36.000Z</Time>
            <Position>
              <LatitudeDegrees>43.4891456924378871917724609375</LatitudeDegrees>
              <LongitudeDegrees>-1.47210267372429370880126953125</LongitudeDegrees>
            </Position>
            <AltitudeMeters>15.3999996185302734375</AltitudeMeters>
            <DistanceMeters>NAN</DistanceMeters>
          </Trackpoint>
          <Trackpoint>
            <Time>2022-07-07T13:41:41.000Z</Time>
            <Position>
              <LatitudeDegrees>43.48925113677978515625</LatitudeDegrees>
              <LongitudeDegrees>-1.472050286829471588134765625</LongitudeDegrees>
            </Position>
            <AltitudeMeters>15.3999996185302734375</AltitudeMeters>
            <DistanceMeters>NAN</DistanceMeters>
          </Trackpoint>
          <Trackpoint>
            <Time>2022-07-07T13:41:47.000Z</Time>
            <Position>
              <LatitudeDegrees>43.4893763624131679534912109375</LatitudeDegrees>
              <LongitudeDegrees>-1.47206394933164119720458984375</LongitudeDegrees>
            </Position>
            <AltitudeMeters>15.19999980926513671875</AltitudeMeters>
            <DistanceMeters>NAN</DistanceMeters>
          </Trackpoint>
          <Trackpoint>
            <Time>2022-07-07T13:41:51.000Z</Time>
            <Position>
              <LatitudeDegrees>43.4893887676298618316650390625</LatitudeDegrees>
              <LongitudeDegrees>-1.472162939608097076416015625</LongitudeDegrees>
            </Position>
            <AltitudeMeters>15.19999980926513671875</AltitudeMeters>
            <DistanceMeters>NAN</DistanceMeters>
          </Trackpoint>
          <Trackpoint>
            <Time>2022-07-07T13:41:58.000Z</Time>
            <Position>
              <LatitudeDegrees>43.48936018534004688262939453125</LatitudeDegrees>
              <LongitudeDegrees>-1.472388245165348052978515625</LongitudeDegrees>
            </Position>
            <AltitudeMeters>15.3999996185302734375</AltitudeMeters>
            <DistanceMeters>NAN</DistanceMeters>
          </Trackpoint>
          <Trackpoint>
            <Time>2022-07-07T13:41:59.000Z</Time>
            <Position>
              <LatitudeDegrees>43.48936404101550579071044921875</LatitudeDegrees>
              <LongitudeDegrees>-1.4724175818264484405517578125</LongitudeDegrees>
            </Position>
            <AltitudeMeters>15.3999996185302734375</AltitudeMeters>
            <DistanceMeters>NAN</DistanceMeters>
          </Trackpoint>
          <Trackpoint>
            <Time>2022-07-07T13:42:06.000Z</Time>
            <Position>
              <LatitudeDegrees>43.4893329441547393798828125</LatitudeDegrees>
              <LongitudeDegrees>-1.4726412110030651092529296875</LongitudeDegrees>
            </Position>
            <AltitudeMeters>15.19999980926513671875</AltitudeMeters>
            <DistanceMeters>NAN</DistanceMeters>
          </Trackpoint>
          <Trackpoint>
            <Time>2022-07-07T13:42:10.000Z</Time>
            <Position>
              <LatitudeDegrees>43.4893200360238552093505859375</LatitudeDegrees>
              <LongitudeDegrees>-1.47277138195931911468505859375</LongitudeDegrees>
            </Position>
            <AltitudeMeters>14.6000003814697265625</AltitudeMeters>
            <DistanceMeters>NAN</DistanceMeters>
          </Trackpoint>
          <Trackpoint>
            <Time>2022-07-07T13:42:11.000Z</Time>
            <Position>
              <LatitudeDegrees>43.48930352367460727691650390625</LatitudeDegrees>
              <LongitudeDegrees>-1.4727880619466304779052734375</LongitudeDegrees>
            </Position>
            <AltitudeMeters>14.6000003814697265625</AltitudeMeters>
            <DistanceMeters>NAN</DistanceMeters>
          </Trackpoint>
          <Trackpoint>
            <Time>2022-07-07T13:42:12.000Z</Time>
            <Position>
              <LatitudeDegrees>43.4892891906201839447021484375</LatitudeDegrees>
              <LongitudeDegrees>-1.47281178273260593414306640625</LongitudeDegrees>
            </Position>
            <AltitudeMeters>14.6000003814697265625</AltitudeMeters>
            <DistanceMeters>NAN</DistanceMeters>
          </Trackpoint>
          <Trackpoint>
            <Time>2022-07-07T13:42:15.000Z</Time>
            <Position>
              <LatitudeDegrees>43.489276953041553497314453125</LatitudeDegrees>
              <LongitudeDegrees>-1.4729272015392780303955078125</LongitudeDegrees>
            </Position>
            <AltitudeMeters>14.3999996185302734375</AltitudeMeters>
            <DistanceMeters>NAN</DistanceMeters>
          </Trackpoint>
          <Trackpoint>
            <Time>2022-07-07T13:42:20.000Z</Time>
            <Position>
              <LatitudeDegrees>43.4893099777400493621826171875</LatitudeDegrees>
              <LongitudeDegrees>-1.47309944964945316314697265625</LongitudeDegrees>
            </Position>
            <AltitudeMeters>14.19999980926513671875</AltitudeMeters>
            <DistanceMeters>NAN</DistanceMeters>
          </Trackpoint>
          <Trackpoint>
            <Time>2022-07-07T13:42:21.000Z</Time>
            <Position>
              <LatitudeDegrees>43.489302098751068115234375</LatitudeDegrees>
              <LongitudeDegrees>-1.47313633002340793609619140625</LongitudeDegrees>
            </Position>
            <AltitudeMeters>14</AltitudeMeters>
            <DistanceMeters>NAN</DistanceMeters>
          </Trackpoint>
          <Trackpoint>
            <Time>2022-07-07T13:42:23.000Z</Time>
            <Position>
              <LatitudeDegrees>43.48929430358111858367919921875</LatitudeDegrees>
              <LongitudeDegrees>-1.47323406301438808441162109375</LongitudeDegrees>
            </Position>
            <AltitudeMeters>14</AltitudeMeters>
            <DistanceMeters>NAN</DistanceMeters>
          </Trackpoint>
          <Trackpoint>
            <Time>2022-07-07T13:42:24.000Z</Time>
            <Position>
              <LatitudeDegrees>43.48928558640182018280029296875</LatitudeDegrees>
              <LongitudeDegrees>-1.47326038219034671783447265625</LongitudeDegrees>
            </Position>
            <AltitudeMeters>14</AltitudeMeters>
            <DistanceMeters>NAN</DistanceMeters>
          </Trackpoint>
          <Trackpoint>
            <Time>2022-07-07T13:42:25.000Z</Time>
            <Position>
              <LatitudeDegrees>43.48926664330065250396728515625</LatitudeDegrees>
              <LongitudeDegrees>-1.473286449909210205078125</LongitudeDegrees>
            </Position>
            <AltitudeMeters>14</AltitudeMeters>
            <DistanceMeters>NAN</DistanceMeters>
          </Trackpoint>
          <Trackpoint>
            <Time>2022-07-07T13:42:27.000Z</Time>
            <Position>
              <LatitudeDegrees>43.48926530219614505767822265625</LatitudeDegrees>
              <LongitudeDegrees>-1.47334889508783817291259765625</LongitudeDegrees>
            </Position>
            <AltitudeMeters>14</AltitudeMeters>
            <DistanceMeters>NAN</DistanceMeters>
          </Trackpoint>
          <Trackpoint>
            <Time>2022-07-07T13:42:28.000Z</Time>
            <Position>
              <LatitudeDegrees>43.489272929728031158447265625</LatitudeDegrees>
              <LongitudeDegrees>-1.47336892783641815185546875</LongitudeDegrees>
            </Position>
            <AltitudeMeters>14</AltitudeMeters>
            <DistanceMeters>NAN</DistanceMeters>
          </Trackpoint>
          <Trackpoint>
            <Time>2022-07-07T13:42:29.000Z</Time>
            <Position>
              <LatitudeDegrees>43.4893032722175121307373046875</LatitudeDegrees>
              <LongitudeDegrees>-1.47337437607347965240478515625</LongitudeDegrees>
            </Position>
            <AltitudeMeters>13.80000019073486328125</AltitudeMeters>
            <DistanceMeters>NAN</DistanceMeters>
          </Trackpoint>
          <Trackpoint>
            <Time>2022-07-07T13:42:30.000Z</Time>
            <Position>
              <LatitudeDegrees>43.489314503967761993408203125</LatitudeDegrees>
              <LongitudeDegrees>-1.4733848534524440765380859375</LongitudeDegrees>
            </Position>
            <AltitudeMeters>13.80000019073486328125</AltitudeMeters>
            <DistanceMeters>NAN</DistanceMeters>
          </Trackpoint>
          <Trackpoint>
            <Time>2022-07-07T13:42:31.000Z</Time>
            <Position>
              <LatitudeDegrees>43.489315509796142578125</LatitudeDegrees>
              <LongitudeDegrees>-1.47341226227581501007080078125</LongitudeDegrees>
            </Position>
            <AltitudeMeters>13.80000019073486328125</AltitudeMeters>
            <DistanceMeters>NAN</DistanceMeters>
          </Trackpoint>
          <Trackpoint>
            <Time>2022-07-07T13:42:36.000Z</Time>
            <Position>
              <LatitudeDegrees>43.48928868770599365234375</LatitudeDegrees>
              <LongitudeDegrees>-1.47356514818966388702392578125</LongitudeDegrees>
            </Position>
            <AltitudeMeters>13.80000019073486328125</AltitudeMeters>
            <DistanceMeters>NAN</DistanceMeters>
          </Trackpoint>
          <Trackpoint>
            <Time>2022-07-07T13:42:37.000Z</Time>
            <Position>
              <LatitudeDegrees>43.4892878495156764984130859375</LatitudeDegrees>
              <LongitudeDegrees>-1.47357068024575710296630859375</LongitudeDegrees>
            </Position>
            <AltitudeMeters>13.80000019073486328125</AltitudeMeters>
            <DistanceMeters>NAN</DistanceMeters>
          </Trackpoint>
          <Trackpoint>
            <Time>2022-07-07T13:42:38.000Z</Time>
            <Position>
              <LatitudeDegrees>43.4892578423023223876953125</LatitudeDegrees>
              <LongitudeDegrees>-1.47362373769283294677734375</LongitudeDegrees>
            </Position>
            <AltitudeMeters>13.80000019073486328125</AltitudeMeters>
            <DistanceMeters>NAN</DistanceMeters>
          </Trackpoint>
          <Trackpoint>
            <Time>2022-07-07T13:42:41.000Z</Time>
            <Position>
              <LatitudeDegrees>43.489225991070270538330078125</LatitudeDegrees>
              <LongitudeDegrees>-1.47377016954123973846435546875</LongitudeDegrees>
            </Position>
            <AltitudeMeters>14</AltitudeMeters>
            <DistanceMeters>NAN</DistanceMeters>
          </Trackpoint>
          <Trackpoint>
            <Time>2022-07-07T13:42:42.000Z</Time>
            <Position>
              <LatitudeDegrees>43.4892214648425579071044921875</LatitudeDegrees>
              <LongitudeDegrees>-1.47379330359399318695068359375</LongitudeDegrees>
            </Position>
            <AltitudeMeters>14</AltitudeMeters>
            <DistanceMeters>NAN</DistanceMeters>
          </Trackpoint>
          <Trackpoint>
            <Time>2022-07-07T13:42:44.000Z</Time>
            <Position>
              <LatitudeDegrees>43.48922624252736568450927734375</LatitudeDegrees>
              <LongitudeDegrees>-1.4738404937088489532470703125</LongitudeDegrees>
            </Position>
            <AltitudeMeters>14</AltitudeMeters>
            <DistanceMeters>NAN</DistanceMeters>
          </Trackpoint>
          <Trackpoint>
            <Time>2022-07-07T13:42:45.000Z</Time>
            <Position>
              <LatitudeDegrees>43.489221967756748199462890625</LatitudeDegrees>
              <LongitudeDegrees>-1.47386941127479076385498046875</LongitudeDegrees>
            </Position>
            <AltitudeMeters>14</AltitudeMeters>
            <DistanceMeters>NAN</DistanceMeters>
          </Trackpoint>
          <Trackpoint>
            <Time>2022-07-07T13:42:47.000Z</Time>
            <Position>
              <LatitudeDegrees>43.48920461721718311309814453125</LatitudeDegrees>
              <LongitudeDegrees>-1.4739316888153553009033203125</LongitudeDegrees>
            </Position>
            <AltitudeMeters>14</AltitudeMeters>
            <DistanceMeters>NAN</DistanceMeters>
          </Trackpoint>
          <Trackpoint>
            <Time>2022-07-07T13:42:53.000Z</Time>
            <Position>
              <LatitudeDegrees>43.48921316675841808319091796875</LatitudeDegrees>
              <LongitudeDegrees>-1.47413461469113826751708984375</LongitudeDegrees>
            </Position>
            <AltitudeMeters>13.80000019073486328125</AltitudeMeters>
            <DistanceMeters>NAN</DistanceMeters>
          </Trackpoint>
          <Trackpoint>
            <Time>2022-07-07T13:42:58.000Z</Time>
            <Position>
              <LatitudeDegrees>43.48920025862753391265869140625</LatitudeDegrees>
              <LongitudeDegrees>-1.4742399752140045166015625</LongitudeDegrees>
            </Position>
            <AltitudeMeters>14.3999996185302734375</AltitudeMeters>
            <DistanceMeters>NAN</DistanceMeters>
          </Trackpoint>
          <Trackpoint>
            <Time>2022-07-07T13:42:59.000Z</Time>
            <Position>
              <LatitudeDegrees>43.48920620977878570556640625</LatitudeDegrees>
              <LongitudeDegrees>-1.474258415400981903076171875</LongitudeDegrees>
            </Position>
            <AltitudeMeters>14.19999980926513671875</AltitudeMeters>
            <DistanceMeters>NAN</DistanceMeters>
          </Trackpoint>
          <Trackpoint>
            <Time>2022-07-07T13:43:02.000Z</Time>
            <Position>
              <LatitudeDegrees>43.4892229735851287841796875</LatitudeDegrees>
              <LongitudeDegrees>-1.474278531968593597412109375</LongitudeDegrees>
            </Position>
            <AltitudeMeters>13.6000003814697265625</AltitudeMeters>
            <DistanceMeters>NAN</DistanceMeters>
          </Trackpoint>
          <Trackpoint>
            <Time>2022-07-07T13:43:04.000Z</Time>
            <Position>
              <LatitudeDegrees>43.4892207942903041839599609375</LatitudeDegrees>
              <LongitudeDegrees>-1.47428087890148162841796875</LongitudeDegrees>
            </Position>
            <AltitudeMeters>13.3999996185302734375</AltitudeMeters>
            <DistanceMeters>NAN</DistanceMeters>
          </Trackpoint>
          <Trackpoint>
            <Time>2022-07-07T13:43:05.000Z</Time>
            <Position>
              <LatitudeDegrees>43.4892207942903041839599609375</LatitudeDegrees>
              <LongitudeDegrees>-1.47428087890148162841796875</LongitudeDegrees>
            </Position>
            <AltitudeMeters>13.3999996185302734375</AltitudeMeters>
            <DistanceMeters>NAN</DistanceMeters>
          </Trackpoint>
          <Trackpoint>
            <Time>2022-07-07T13:44:17.000Z</Time>
            <Position>
              <LatitudeDegrees>43.48926245234906673431396484375</LatitudeDegrees>
              <LongitudeDegrees>-1.474242992699146270751953125</LongitudeDegrees>
            </Position>
            <AltitudeMeters>12</AltitudeMeters>
            <DistanceMeters>NAN</DistanceMeters>
          </Trackpoint>
          <Trackpoint>
            <Time>2022-07-07T13:44:18.000Z</Time>
            <Position>
              <LatitudeDegrees>43.48928374238312244415283203125</LatitudeDegrees>
              <LongitudeDegrees>-1.4742324315011501312255859375</LongitudeDegrees>
            </Position>
            <AltitudeMeters>12</AltitudeMeters>
            <DistanceMeters>NAN</DistanceMeters>
          </Trackpoint>
          <Trackpoint>
            <Time>2022-07-07T13:44:19.000Z</Time>
            <Position>
              <LatitudeDegrees>43.48930587060749530792236328125</LatitudeDegrees>
              <LongitudeDegrees>-1.4742240495979785919189453125</LongitudeDegrees>
            </Position>
            <AltitudeMeters>12.19999980926513671875</AltitudeMeters>
            <DistanceMeters>NAN</DistanceMeters>
          </Trackpoint>
          <Trackpoint>
            <Time>2022-07-07T13:44:24.000Z</Time>
            <Position>
              <LatitudeDegrees>43.4894187748432159423828125</LatitudeDegrees>
              <LongitudeDegrees>-1.47421709261834621429443359375</LongitudeDegrees>
            </Position>
            <AltitudeMeters>12.19999980926513671875</AltitudeMeters>
            <DistanceMeters>NAN</DistanceMeters>
          </Trackpoint>
          <Trackpoint>
            <Time>2022-07-07T13:44:30.000Z</Time>
            <Position>
              <LatitudeDegrees>43.4895838983356952667236328125</LatitudeDegrees>
              <LongitudeDegrees>-1.4742243848741054534912109375</LongitudeDegrees>
            </Position>
            <AltitudeMeters>12.3999996185302734375</AltitudeMeters>
            <DistanceMeters>NAN</DistanceMeters>
          </Trackpoint>
          <Trackpoint>
            <Time>2022-07-07T13:44:31.000Z</Time>
            <Position>
              <LatitudeDegrees>43.48961130715906620025634765625</LatitudeDegrees>
              <LongitudeDegrees>-1.47422916255891323089599609375</LongitudeDegrees>
            </Position>
            <AltitudeMeters>12.3999996185302734375</AltitudeMeters>
            <DistanceMeters>NAN</DistanceMeters>
          </Trackpoint>
          <Trackpoint>
            <Time>2022-07-07T13:44:34.000Z</Time>
            <Position>
              <LatitudeDegrees>43.48968137986958026885986328125</LatitudeDegrees>
              <LongitudeDegrees>-1.47424156777560710906982421875</LongitudeDegrees>
            </Position>
            <AltitudeMeters>12.3999996185302734375</AltitudeMeters>
            <DistanceMeters>NAN</DistanceMeters>
          </Trackpoint>
          <Trackpoint>
            <Time>2022-07-07T13:44:35.000Z</Time>
            <Position>
              <LatitudeDegrees>43.48970451392233371734619140625</LatitudeDegrees>
              <LongitudeDegrees>-1.4742471836507320404052734375</LongitudeDegrees>
            </Position>
            <AltitudeMeters>12.6000003814697265625</AltitudeMeters>
            <DistanceMeters>NAN</DistanceMeters>
          </Trackpoint>
          <Trackpoint>
            <Time>2022-07-07T13:44:38.000Z</Time>
            <Position>
              <LatitudeDegrees>43.489758409559726715087890625</LatitudeDegrees>
              <LongitudeDegrees>-1.47423100657761096954345703125</LongitudeDegrees>
            </Position>
            <AltitudeMeters>12.80000019073486328125</AltitudeMeters>
            <DistanceMeters>NAN</DistanceMeters>
          </Trackpoint>
          <Trackpoint>
            <Time>2022-07-07T13:44:40.000Z</Time>
            <Position>
              <LatitudeDegrees>43.489783219993114471435546875</LatitudeDegrees>
              <LongitudeDegrees>-1.47423662245273590087890625</LongitudeDegrees>
            </Position>
            <AltitudeMeters>13.19999980926513671875</AltitudeMeters>
            <DistanceMeters>NAN</DistanceMeters>
          </Trackpoint>
          <Trackpoint>
            <Time>2022-07-07T13:44:41.000Z</Time>
            <Position>
              <LatitudeDegrees>43.48979093134403228759765625</LatitudeDegrees>
              <LongitudeDegrees>-1.474249027669429779052734375</LongitudeDegrees>
            </Position>
            <AltitudeMeters>13.3999996185302734375</AltitudeMeters>
            <DistanceMeters>NAN</DistanceMeters>
          </Trackpoint>
          <Trackpoint>
            <Time>2022-07-07T13:44:43.000Z</Time>
            <Position>
              <LatitudeDegrees>43.48979302681982517242431640625</LatitudeDegrees>
              <LongitudeDegrees>-1.47429571487009525299072265625</LongitudeDegrees>
            </Position>
            <AltitudeMeters>13.6000003814697265625</AltitudeMeters>
            <DistanceMeters>NAN</DistanceMeters>
          </Trackpoint>
          <Trackpoint>
            <Time>2022-07-07T13:44:46.000Z</Time>
            <Position>
              <LatitudeDegrees>43.48978548310697078704833984375</LatitudeDegrees>
              <LongitudeDegrees>-1.47437081672251224517822265625</LongitudeDegrees>
            </Position>
            <AltitudeMeters>14</AltitudeMeters>
            <DistanceMeters>NAN</DistanceMeters>
          </Trackpoint>
          <Trackpoint>
            <Time>2022-07-07T13:44:48.000Z</Time>
            <Position>
              <LatitudeDegrees>43.4897820465266704559326171875</LatitudeDegrees>
              <LongitudeDegrees>-1.47441901266574859619140625</LongitudeDegrees>
            </Position>
            <AltitudeMeters>14.19999980926513671875</AltitudeMeters>
            <DistanceMeters>NAN</DistanceMeters>
          </Trackpoint>
          <Trackpoint>
            <Time>2022-07-07T13:44:51.000Z</Time>
            <Position>
              <LatitudeDegrees>43.48976276814937591552734375</LatitudeDegrees>
              <LongitudeDegrees>-1.4745043404400348663330078125</LongitudeDegrees>
            </Position>
            <AltitudeMeters>14.19999980926513671875</AltitudeMeters>
            <DistanceMeters>NAN</DistanceMeters>
          </Trackpoint>
          <Trackpoint>
            <Time>2022-07-07T13:44:54.000Z</Time>
            <Position>
              <LatitudeDegrees>43.4897540509700775146484375</LatitudeDegrees>
              <LongitudeDegrees>-1.474575586616992950439453125</LongitudeDegrees>
            </Position>
            <AltitudeMeters>14</AltitudeMeters>
            <DistanceMeters>NAN</DistanceMeters>
          </Trackpoint>
          <Trackpoint>
            <Time>2022-07-07T13:44:58.000Z</Time>
            <Position>
              <LatitudeDegrees>43.48974541760981082916259765625</LatitudeDegrees>
              <LongitudeDegrees>-1.474688909947872161865234375</LongitudeDegrees>
            </Position>
            <AltitudeMeters>14</AltitudeMeters>
            <DistanceMeters>NAN</DistanceMeters>
          </Trackpoint>
          <Trackpoint>
            <Time>2022-07-07T13:45:04.000Z</Time>
            <Position>
              <LatitudeDegrees>43.48972647450864315032958984375</LatitudeDegrees>
              <LongitudeDegrees>-1.4748429693281650543212890625</LongitudeDegrees>
            </Position>
            <AltitudeMeters>13.80000019073486328125</AltitudeMeters>
            <DistanceMeters>NAN</DistanceMeters>
          </Trackpoint>
          <Trackpoint>
            <Time>2022-07-07T13:45:07.000Z</Time>
            <Position>
              <LatitudeDegrees>43.48971557803452014923095703125</LatitudeDegrees>
              <LongitudeDegrees>-1.47490474395453929901123046875</LongitudeDegrees>
            </Position>
            <AltitudeMeters>13.80000019073486328125</AltitudeMeters>
            <DistanceMeters>NAN</DistanceMeters>
          </Trackpoint>
          <Trackpoint>
            <Time>2022-07-07T13:45:11.000Z</Time>
            <Position>
              <LatitudeDegrees>43.48970065824687480926513671875</LatitudeDegrees>
              <LongitudeDegrees>-1.4750109426677227020263671875</LongitudeDegrees>
            </Position>
            <AltitudeMeters>13.80000019073486328125</AltitudeMeters>
            <DistanceMeters>NAN</DistanceMeters>
          </Trackpoint>
          <Trackpoint>
            <Time>2022-07-07T13:45:14.000Z</Time>
            <Position>
              <LatitudeDegrees>43.489720858633518218994140625</LatitudeDegrees>
              <LongitudeDegrees>-1.47509970702230930328369140625</LongitudeDegrees>
            </Position>
            <AltitudeMeters>13.6000003814697265625</AltitudeMeters>
            <DistanceMeters>NAN</DistanceMeters>
          </Trackpoint>
          <Trackpoint>
            <Time>2022-07-07T13:45:20.000Z</Time>
            <Position>
              <LatitudeDegrees>43.48976620472967624664306640625</LatitudeDegrees>
              <LongitudeDegrees>-1.47525317966938018798828125</LongitudeDegrees>
            </Position>
            <AltitudeMeters>13.6000003814697265625</AltitudeMeters>
            <DistanceMeters>NAN</DistanceMeters>
          </Trackpoint>
          <Trackpoint>
            <Time>2022-07-07T13:45:24.000Z</Time>
            <Position>
              <LatitudeDegrees>43.48980274982750415802001953125</LatitudeDegrees>
              <LongitudeDegrees>-1.47533406503498554229736328125</LongitudeDegrees>
            </Position>
            <AltitudeMeters>13.3999996185302734375</AltitudeMeters>
            <DistanceMeters>NAN</DistanceMeters>
          </Trackpoint>
          <Trackpoint>
            <Time>2022-07-07T13:45:26.000Z</Time>
            <Position>
              <LatitudeDegrees>43.4898175857961177825927734375</LatitudeDegrees>
              <LongitudeDegrees>-1.4753613062202930450439453125</LongitudeDegrees>
            </Position>
            <AltitudeMeters>13.3999996185302734375</AltitudeMeters>
            <DistanceMeters>NAN</DistanceMeters>
          </Trackpoint>
          <Trackpoint>
            <Time>2022-07-07T13:45:27.000Z</Time>
            <Position>
              <LatitudeDegrees>43.4898226149380207061767578125</LatitudeDegrees>
              <LongitudeDegrees>-1.47538284771144390106201171875</LongitudeDegrees>
            </Position>
            <AltitudeMeters>13.3999996185302734375</AltitudeMeters>
            <DistanceMeters>NAN</DistanceMeters>
          </Trackpoint>
          <Trackpoint>
            <Time>2022-07-07T13:45:30.000Z</Time>
            <Position>
              <LatitudeDegrees>43.48978632129728794097900390625</LatitudeDegrees>
              <LongitudeDegrees>-1.47545845247805118560791015625</LongitudeDegrees>
            </Position>
            <AltitudeMeters>13.6000003814697265625</AltitudeMeters>
            <DistanceMeters>NAN</DistanceMeters>
          </Trackpoint>
          <Trackpoint>
            <Time>2022-07-07T13:45:34.000Z</Time>
            <Position>
              <LatitudeDegrees>43.4897352755069732666015625</LatitudeDegrees>
              <LongitudeDegrees>-1.47554126568138599395751953125</LongitudeDegrees>
            </Position>
            <AltitudeMeters>13.80000019073486328125</AltitudeMeters>
            <DistanceMeters>NAN</DistanceMeters>
          </Trackpoint>
          <Trackpoint>
            <Time>2022-07-07T13:45:35.000Z</Time>
            <Position>
              <LatitudeDegrees>43.4897361136972904205322265625</LatitudeDegrees>
              <LongitudeDegrees>-1.47555216215550899505615234375</LongitudeDegrees>
            </Position>
            <AltitudeMeters>13.80000019073486328125</AltitudeMeters>
            <DistanceMeters>NAN</DistanceMeters>
          </Trackpoint>
          <Trackpoint>
            <Time>2022-07-07T13:45:38.000Z</Time>
            <Position>
              <LatitudeDegrees>43.48973670043051242828369140625</LatitudeDegrees>
              <LongitudeDegrees>-1.47556641139090061187744140625</LongitudeDegrees>
            </Position>
            <AltitudeMeters>14</AltitudeMeters>
            <DistanceMeters>NAN</DistanceMeters>
          </Trackpoint>
          <Trackpoint>
            <Time>2022-07-07T13:45:41.000Z</Time>
            <Position>
              <LatitudeDegrees>43.4897314198315143585205078125</LatitudeDegrees>
              <LongitudeDegrees>-1.47561921738088130950927734375</LongitudeDegrees>
            </Position>
            <AltitudeMeters>14.3999996185302734375</AltitudeMeters>
            <DistanceMeters>NAN</DistanceMeters>
          </Trackpoint>
          <Trackpoint>
            <Time>2022-07-07T13:45:44.000Z</Time>
            <Position>
              <LatitudeDegrees>43.4897200204432010650634765625</LatitudeDegrees>
              <LongitudeDegrees>-1.47567420266568660736083984375</LongitudeDegrees>
            </Position>
            <AltitudeMeters>15</AltitudeMeters>
            <DistanceMeters>NAN</DistanceMeters>
          </Trackpoint>
          <Trackpoint>
            <Time>2022-07-07T13:45:46.000Z</Time>
            <Position>
              <LatitudeDegrees>43.48973569460213184356689453125</LatitudeDegrees>
              <LongitudeDegrees>-1.47571158595383167266845703125</LongitudeDegrees>
            </Position>
            <AltitudeMeters>15.3999996185302734375</AltitudeMeters>
            <DistanceMeters>NAN</DistanceMeters>
          </Trackpoint>
          <Trackpoint>
            <Time>2022-07-07T13:45:48.000Z</Time>
            <Position>
              <LatitudeDegrees>43.489726223051548004150390625</LatitudeDegrees>
              <LongitudeDegrees>-1.4757475443184375762939453125</LongitudeDegrees>
            </Position>
            <AltitudeMeters>15.6000003814697265625</AltitudeMeters>
            <DistanceMeters>NAN</DistanceMeters>
          </Trackpoint>
          <Trackpoint>
            <Time>2022-07-07T13:45:49.000Z</Time>
            <Position>
              <LatitudeDegrees>43.4897002391517162322998046875</LatitudeDegrees>
              <LongitudeDegrees>-1.47579020820558071136474609375</LongitudeDegrees>
            </Position>
            <AltitudeMeters>15.6000003814697265625</AltitudeMeters>
            <DistanceMeters>NAN</DistanceMeters>
          </Trackpoint>
          <Trackpoint>
            <Time>2022-07-07T13:45:52.000Z</Time>
            <Position>
              <LatitudeDegrees>43.4896351955831050872802734375</LatitudeDegrees>
              <LongitudeDegrees>-1.47586430422961711883544921875</LongitudeDegrees>
            </Position>
            <AltitudeMeters>15.80000019073486328125</AltitudeMeters>
            <DistanceMeters>NAN</DistanceMeters>
          </Trackpoint>
          <Trackpoint>
            <Time>2022-07-07T13:45:53.000Z</Time>
            <Position>
              <LatitudeDegrees>43.4896526299417018890380859375</LatitudeDegrees>
              <LongitudeDegrees>-1.47588006220757961273193359375</LongitudeDegrees>
            </Position>
            <AltitudeMeters>16</AltitudeMeters>
            <DistanceMeters>NAN</DistanceMeters>
          </Trackpoint>
          <Trackpoint>
            <Time>2022-07-07T13:45:54.000Z</Time>
            <Position>
              <LatitudeDegrees>43.48966930992901325225830078125</LatitudeDegrees>
              <LongitudeDegrees>-1.4758964069187641143798828125</LongitudeDegrees>
            </Position>
            <AltitudeMeters>16.200000762939453125</AltitudeMeters>
            <DistanceMeters>NAN</DistanceMeters>
          </Trackpoint>
          <Trackpoint>
            <Time>2022-07-07T13:45:55.000Z</Time>
            <Position>
              <LatitudeDegrees>43.48967853002250194549560546875</LatitudeDegrees>
              <LongitudeDegrees>-1.4759185351431369781494140625</LongitudeDegrees>
            </Position>
            <AltitudeMeters>16.3999996185302734375</AltitudeMeters>
            <DistanceMeters>NAN</DistanceMeters>
          </Trackpoint>
          <Trackpoint>
            <Time>2022-07-07T13:45:56.000Z</Time>
            <Position>
              <LatitudeDegrees>43.489682972431182861328125</LatitudeDegrees>
              <LongitudeDegrees>-1.47594007663428783416748046875</LongitudeDegrees>
            </Position>
            <AltitudeMeters>16.3999996185302734375</AltitudeMeters>
            <DistanceMeters>NAN</DistanceMeters>
          </Trackpoint>
          <Trackpoint>
            <Time>2022-07-07T13:45:58.000Z</Time>
            <Position>
              <LatitudeDegrees>43.48968523554503917694091796875</LatitudeDegrees>
              <LongitudeDegrees>-1.47596756927669048309326171875</LongitudeDegrees>
            </Position>
            <AltitudeMeters>16.6000003814697265625</AltitudeMeters>
            <DistanceMeters>NAN</DistanceMeters>
          </Trackpoint>
          <Trackpoint>
            <Time>2022-07-07T13:46:02.000Z</Time>
            <Position>
              <LatitudeDegrees>43.4896848164498805999755859375</LatitudeDegrees>
              <LongitudeDegrees>-1.4759762026369571685791015625</LongitudeDegrees>
            </Position>
            <AltitudeMeters>16.799999237060546875</AltitudeMeters>
            <DistanceMeters>NAN</DistanceMeters>
          </Trackpoint>
          <Trackpoint>
            <Time>2022-07-07T13:46:04.000Z</Time>
            <Position>
              <LatitudeDegrees>43.48968003876507282257080078125</LatitudeDegrees>
              <LongitudeDegrees>-1.4759996719658374786376953125</LongitudeDegrees>
            </Position>
            <AltitudeMeters>17</AltitudeMeters>
            <DistanceMeters>NAN</DistanceMeters>
          </Trackpoint>
          <Trackpoint>
            <Time>2022-07-07T13:46:06.000Z</Time>
            <Position>
              <LatitudeDegrees>43.4896762669086456298828125</LatitudeDegrees>
              <LongitudeDegrees>-1.476012580096721649169921875</LongitudeDegrees>
            </Position>
            <AltitudeMeters>17.3999996185302734375</AltitudeMeters>
            <DistanceMeters>NAN</DistanceMeters>
          </Trackpoint>
          <Trackpoint>
            <Time>2022-07-07T13:46:07.000Z</Time>
            <Position>
              <LatitudeDegrees>43.48968364298343658447265625</LatitudeDegrees>
              <LongitudeDegrees>-1.47602003999054431915283203125</LongitudeDegrees>
            </Position>
            <AltitudeMeters>17.3999996185302734375</AltitudeMeters>
            <DistanceMeters>NAN</DistanceMeters>
          </Trackpoint>
          <Trackpoint>
            <Time>2022-07-07T13:46:09.000Z</Time>
            <Position>
              <LatitudeDegrees>43.48967601545155048370361328125</LatitudeDegrees>
              <LongitudeDegrees>-1.47602892480790615081787109375</LongitudeDegrees>
            </Position>
            <AltitudeMeters>17.6000003814697265625</AltitudeMeters>
            <DistanceMeters>NAN</DistanceMeters>
          </Trackpoint>
          <Trackpoint>
            <Time>2022-07-07T13:46:11.000Z</Time>
            <Position>
              <LatitudeDegrees>43.48966495133936405181884765625</LatitudeDegrees>
              <LongitudeDegrees>-1.4760288409888744354248046875</LongitudeDegrees>
            </Position>
            <AltitudeMeters>17.6000003814697265625</AltitudeMeters>
            <DistanceMeters>NAN</DistanceMeters>
          </Trackpoint>
          <Trackpoint>
            <Time>2022-07-07T13:46:13.000Z</Time>
            <Position>
              <LatitudeDegrees>43.48967970348894596099853515625</LatitudeDegrees>
              <LongitudeDegrees>-1.47607184015214443206787109375</LongitudeDegrees>
            </Position>
            <AltitudeMeters>17.6000003814697265625</AltitudeMeters>
            <DistanceMeters>NAN</DistanceMeters>
          </Trackpoint>
          <Trackpoint>
            <Time>2022-07-07T13:46:14.000Z</Time>
            <Position>
              <LatitudeDegrees>43.4896896779537200927734375</LatitudeDegrees>
              <LongitudeDegrees>-1.47609078325331211090087890625</LongitudeDegrees>
            </Position>
            <AltitudeMeters>17.6000003814697265625</AltitudeMeters>
            <DistanceMeters>NAN</DistanceMeters>
          </Trackpoint>
          <Trackpoint>
            <Time>2022-07-07T13:46:16.000Z</Time>
            <Position>
              <LatitudeDegrees>43.48969730548560619354248046875</LatitudeDegrees>
              <LongitudeDegrees>-1.47609882988035678863525390625</LongitudeDegrees>
            </Position>
            <AltitudeMeters>18.200000762939453125</AltitudeMeters>
            <DistanceMeters>NAN</DistanceMeters>
          </Trackpoint>
          <Trackpoint>
            <Time>2022-07-07T13:46:17.000Z</Time>
            <Position>
              <LatitudeDegrees>43.4897133149206638336181640625</LatitudeDegrees>
              <LongitudeDegrees>-1.47612079046666622161865234375</LongitudeDegrees>
            </Position>
            <AltitudeMeters>18.3999996185302734375</AltitudeMeters>
            <DistanceMeters>NAN</DistanceMeters>
          </Trackpoint>
          <Trackpoint>
            <Time>2022-07-07T13:46:18.000Z</Time>
            <Position>
              <LatitudeDegrees>43.48971985280513763427734375</LatitudeDegrees>
              <LongitudeDegrees>-1.47614627145230770111083984375</LongitudeDegrees>
            </Position>
            <AltitudeMeters>18.3999996185302734375</AltitudeMeters>
            <DistanceMeters>NAN</DistanceMeters>
          </Trackpoint>
          <Trackpoint>
            <Time>2022-07-07T13:46:19.000Z</Time>
            <Position>
              <LatitudeDegrees>43.489725887775421142578125</LatitudeDegrees>
              <LongitudeDegrees>-1.476165466010570526123046875</LongitudeDegrees>
            </Position>
            <AltitudeMeters>18.6000003814697265625</AltitudeMeters>
            <DistanceMeters>NAN</DistanceMeters>
          </Trackpoint>
          <Trackpoint>
            <Time>2022-07-07T13:46:20.000Z</Time>
            <Position>
              <LatitudeDegrees>43.489728905260562896728515625</LatitudeDegrees>
              <LongitudeDegrees>-1.47617259062826633453369140625</LongitudeDegrees>
            </Position>
            <AltitudeMeters>18.6000003814697265625</AltitudeMeters>
            <DistanceMeters>NAN</DistanceMeters>
          </Trackpoint>
          <Trackpoint>
            <Time>2022-07-07T13:46:26.000Z</Time>
            <Position>
              <LatitudeDegrees>43.48974977619946002960205078125</LatitudeDegrees>
              <LongitudeDegrees>-1.47629521787166595458984375</LongitudeDegrees>
            </Position>
            <AltitudeMeters>19.3999996185302734375</AltitudeMeters>
            <DistanceMeters>NAN</DistanceMeters>
          </Trackpoint>
          <Trackpoint>
            <Time>2022-07-07T13:46:27.000Z</Time>
            <Position>
              <LatitudeDegrees>43.48972345702350139617919921875</LatitudeDegrees>
              <LongitudeDegrees>-1.47632044740021228790283203125</LongitudeDegrees>
            </Position>
            <AltitudeMeters>19.3999996185302734375</AltitudeMeters>
            <DistanceMeters>NAN</DistanceMeters>
          </Trackpoint>
          <Trackpoint>
            <Time>2022-07-07T13:46:28.000Z</Time>
            <Position>
              <LatitudeDegrees>43.48970233462750911712646484375</LatitudeDegrees>
              <LongitudeDegrees>-1.47634240798652172088623046875</LongitudeDegrees>
            </Position>
            <AltitudeMeters>19.6000003814697265625</AltitudeMeters>
            <DistanceMeters>NAN</DistanceMeters>
          </Trackpoint>
          <Trackpoint>
            <Time>2022-07-07T13:46:29.000Z</Time>
            <Position>
              <LatitudeDegrees>43.4896923601627349853515625</LatitudeDegrees>
              <LongitudeDegrees>-1.47636235691606998443603515625</LongitudeDegrees>
            </Position>
            <AltitudeMeters>19.799999237060546875</AltitudeMeters>
            <DistanceMeters>NAN</DistanceMeters>
          </Trackpoint>
          <Trackpoint>
            <Time>2022-07-07T13:46:30.000Z</Time>
            <Position>
              <LatitudeDegrees>43.48969210870563983917236328125</LatitudeDegrees>
              <LongitudeDegrees>-1.47636805661022663116455078125</LongitudeDegrees>
            </Position>
            <AltitudeMeters>20</AltitudeMeters>
            <DistanceMeters>NAN</DistanceMeters>
          </Trackpoint>
          <Trackpoint>
            <Time>2022-07-07T13:46:35.000Z</Time>
            <Position>
              <LatitudeDegrees>43.4896834753453731536865234375</LatitudeDegrees>
              <LongitudeDegrees>-1.47639789618551731109619140625</LongitudeDegrees>
            </Position>
            <AltitudeMeters>20.200000762939453125</AltitudeMeters>
            <DistanceMeters>NAN</DistanceMeters>
          </Trackpoint>
          <Trackpoint>
            <Time>2022-07-07T13:46:36.000Z</Time>
            <Position>
              <LatitudeDegrees>43.489681966602802276611328125</LatitudeDegrees>
              <LongitudeDegrees>-1.47640250623226165771484375</LongitudeDegrees>
            </Position>
            <AltitudeMeters>20.200000762939453125</AltitudeMeters>
            <DistanceMeters>NAN</DistanceMeters>
          </Trackpoint>
          <Trackpoint>
            <Time>2022-07-07T13:46:38.000Z</Time>
            <Position>
              <LatitudeDegrees>43.4897045977413654327392578125</LatitudeDegrees>
              <LongitudeDegrees>-1.47640979848802089691162109375</LongitudeDegrees>
            </Position>
            <AltitudeMeters>20.3999996185302734375</AltitudeMeters>
            <DistanceMeters>NAN</DistanceMeters>
          </Trackpoint>
          <Trackpoint>
            <Time>2022-07-07T13:46:40.000Z</Time>
            <Position>
              <LatitudeDegrees>43.4897485189139842987060546875</LatitudeDegrees>
              <LongitudeDegrees>-1.47646713070571422576904296875</LongitudeDegrees>
            </Position>
            <AltitudeMeters>20.6000003814697265625</AltitudeMeters>
            <DistanceMeters>NAN</DistanceMeters>
          </Trackpoint>
          <Trackpoint>
            <Time>2022-07-07T13:46:42.000Z</Time>
            <Position>
              <LatitudeDegrees>43.48974944092333316802978515625</LatitudeDegrees>
              <LongitudeDegrees>-1.47651691921055316925048828125</LongitudeDegrees>
            </Position>
            <AltitudeMeters>20.799999237060546875</AltitudeMeters>
            <DistanceMeters>NAN</DistanceMeters>
          </Trackpoint>
          <Trackpoint>
            <Time>2022-07-07T13:46:43.000Z</Time>
            <Position>
              <LatitudeDegrees>43.48976251669228076934814453125</LatitudeDegrees>
              <LongitudeDegrees>-1.47654055617749691009521484375</LongitudeDegrees>
            </Position>
            <AltitudeMeters>21</AltitudeMeters>
            <DistanceMeters>NAN</DistanceMeters>
          </Trackpoint>
          <Trackpoint>
            <Time>2022-07-07T13:46:45.000Z</Time>
            <Position>
              <LatitudeDegrees>43.48978246562182903289794921875</LatitudeDegrees>
              <LongitudeDegrees>-1.47662110626697540283203125</LongitudeDegrees>
            </Position>
            <AltitudeMeters>21</AltitudeMeters>
            <DistanceMeters>NAN</DistanceMeters>
          </Trackpoint>
          <Trackpoint>
            <Time>2022-07-07T13:46:49.000Z</Time>
            <Position>
              <LatitudeDegrees>43.48974533379077911376953125</LatitudeDegrees>
              <LongitudeDegrees>-1.4766963757574558258056640625</LongitudeDegrees>
            </Position>
            <AltitudeMeters>21.200000762939453125</AltitudeMeters>
            <DistanceMeters>NAN</DistanceMeters>
          </Trackpoint>
          <Trackpoint>
            <Time>2022-07-07T13:46:51.000Z</Time>
            <Position>
              <LatitudeDegrees>43.489760421216487884521484375</LatitudeDegrees>
              <LongitudeDegrees>-1.4767332561314105987548828125</LongitudeDegrees>
            </Position>
            <AltitudeMeters>21.3999996185302734375</AltitudeMeters>
            <DistanceMeters>NAN</DistanceMeters>
          </Trackpoint>
          <Trackpoint>
            <Time>2022-07-07T13:46:55.000Z</Time>
            <Position>
              <LatitudeDegrees>43.48978766240179538726806640625</LatitudeDegrees>
              <LongitudeDegrees>-1.4768190868198871612548828125</LongitudeDegrees>
            </Position>
            <AltitudeMeters>21.6000003814697265625</AltitudeMeters>
            <DistanceMeters>NAN</DistanceMeters>
          </Trackpoint>
          <Trackpoint>
            <Time>2022-07-07T13:46:56.000Z</Time>
            <Position>
              <LatitudeDegrees>43.489797301590442657470703125</LatitudeDegrees>
              <LongitudeDegrees>-1.4768202602863311767578125</LongitudeDegrees>
            </Position>
            <AltitudeMeters>21.6000003814697265625</AltitudeMeters>
            <DistanceMeters>NAN</DistanceMeters>
          </Trackpoint>
          <Trackpoint>
            <Time>2022-07-07T13:46:59.000Z</Time>
            <Position>
              <LatitudeDegrees>43.48980945535004138946533203125</LatitudeDegrees>
              <LongitudeDegrees>-1.4768350124359130859375</LongitudeDegrees>
            </Position>
            <AltitudeMeters>21.799999237060546875</AltitudeMeters>
            <DistanceMeters>NAN</DistanceMeters>
          </Trackpoint>
          <Trackpoint>
            <Time>2022-07-07T13:47:00.000Z</Time>
            <Position>
              <LatitudeDegrees>43.48981414921581745147705078125</LatitudeDegrees>
              <LongitudeDegrees>-1.47684833966195583343505859375</LongitudeDegrees>
            </Position>
            <AltitudeMeters>21.799999237060546875</AltitudeMeters>
            <DistanceMeters>NAN</DistanceMeters>
          </Trackpoint>
          <Trackpoint>
            <Time>2022-07-07T13:47:02.000Z</Time>
            <Position>
              <LatitudeDegrees>43.48981783725321292877197265625</LatitudeDegrees>
              <LongitudeDegrees>-1.47687633521854877471923828125</LongitudeDegrees>
            </Position>
            <AltitudeMeters>22</AltitudeMeters>
            <DistanceMeters>NAN</DistanceMeters>
          </Trackpoint>
          <Trackpoint>
            <Time>2022-07-07T13:47:04.000Z</Time>
            <Position>
              <LatitudeDegrees>43.48982454277575016021728515625</LatitudeDegrees>
              <LongitudeDegrees>-1.4768831245601177215576171875</LongitudeDegrees>
            </Position>
            <AltitudeMeters>22</AltitudeMeters>
            <DistanceMeters>NAN</DistanceMeters>
          </Trackpoint>
          <Trackpoint>
            <Time>2022-07-07T13:47:06.000Z</Time>
            <Position>
              <LatitudeDegrees>43.48982554860413074493408203125</LatitudeDegrees>
              <LongitudeDegrees>-1.4768811129033565521240234375</LongitudeDegrees>
            </Position>
            <AltitudeMeters>22</AltitudeMeters>
            <DistanceMeters>NAN</DistanceMeters>
          </Trackpoint>
          <Trackpoint>
            <Time>2022-07-07T13:47:07.000Z</Time>
            <Position>
              <LatitudeDegrees>43.489830493927001953125</LatitudeDegrees>
              <LongitudeDegrees>-1.47687918506562709808349609375</LongitudeDegrees>
            </Position>
            <AltitudeMeters>22</AltitudeMeters>
            <DistanceMeters>NAN</DistanceMeters>
          </Trackpoint>
          <Trackpoint>
            <Time>2022-07-07T13:47:09.000Z</Time>
            <Position>
              <LatitudeDegrees>43.4898413904011249542236328125</LatitudeDegrees>
              <LongitudeDegrees>-1.476872898638248443603515625</LongitudeDegrees>
            </Position>
            <AltitudeMeters>22</AltitudeMeters>
            <DistanceMeters>NAN</DistanceMeters>
          </Trackpoint>
          <Trackpoint>
            <Time>2022-07-07T13:47:11.000Z</Time>
            <Position>
              <LatitudeDegrees>43.48983409814536571502685546875</LatitudeDegrees>
              <LongitudeDegrees>-1.47686158306896686553955078125</LongitudeDegrees>
            </Position>
            <AltitudeMeters>22</AltitudeMeters>
            <DistanceMeters>NAN</DistanceMeters>
          </Trackpoint>
          <Trackpoint>
            <Time>2022-07-07T13:47:13.000Z</Time>
            <Position>
              <LatitudeDegrees>43.48982403986155986785888671875</LatitudeDegrees>
              <LongitudeDegrees>-1.47684683091938495635986328125</LongitudeDegrees>
            </Position>
            <AltitudeMeters>22</AltitudeMeters>
            <DistanceMeters>NAN</DistanceMeters>
          </Trackpoint>
          <Trackpoint>
            <Time>2022-07-07T13:47:15.000Z</Time>
            <Position>
              <LatitudeDegrees>43.48982403986155986785888671875</LatitudeDegrees>
              <LongitudeDegrees>-1.47684683091938495635986328125</LongitudeDegrees>
            </Position>
            <AltitudeMeters>22</AltitudeMeters>
            <DistanceMeters>NAN</DistanceMeters>
          </Trackpoint>
          <Trackpoint>
            <Time>2022-07-07T13:47:25.000Z</Time>
            <Position>
              <LatitudeDegrees>43.48988355137407779693603515625</LatitudeDegrees>
              <LongitudeDegrees>-1.47686074487864971160888671875</LongitudeDegrees>
            </Position>
            <AltitudeMeters>21.799999237060546875</AltitudeMeters>
            <DistanceMeters>NAN</DistanceMeters>
          </Trackpoint>
          <Trackpoint>
            <Time>2022-07-07T13:47:26.000Z</Time>
            <Position>
              <LatitudeDegrees>43.4898967109620571136474609375</LatitudeDegrees>
              <LongitudeDegrees>-1.4768455736339092254638671875</LongitudeDegrees>
            </Position>
            <AltitudeMeters>21.6000003814697265625</AltitudeMeters>
            <DistanceMeters>NAN</DistanceMeters>
          </Trackpoint>
          <Trackpoint>
            <Time>2022-07-07T13:47:29.000Z</Time>
            <Position>
              <LatitudeDegrees>43.489947505295276641845703125</LatitudeDegrees>
              <LongitudeDegrees>-1.47680609486997127532958984375</LongitudeDegrees>
            </Position>
            <AltitudeMeters>21.6000003814697265625</AltitudeMeters>
            <DistanceMeters>NAN</DistanceMeters>
          </Trackpoint>
          <Trackpoint>
            <Time>2022-07-07T13:47:30.000Z</Time>
            <Position>
              <LatitudeDegrees>43.48996385000646114349365234375</LatitudeDegrees>
              <LongitudeDegrees>-1.47681095637381076812744140625</LongitudeDegrees>
            </Position>
            <AltitudeMeters>21.6000003814697265625</AltitudeMeters>
            <DistanceMeters>NAN</DistanceMeters>
          </Trackpoint>
          <Trackpoint>
            <Time>2022-07-07T13:47:31.000Z</Time>
            <Position>
              <LatitudeDegrees>43.48998002707958221435546875</LatitudeDegrees>
              <LongitudeDegrees>-1.47681145928800106048583984375</LongitudeDegrees>
            </Position>
            <AltitudeMeters>21.3999996185302734375</AltitudeMeters>
            <DistanceMeters>NAN</DistanceMeters>
          </Trackpoint>
          <Trackpoint>
            <Time>2022-07-07T13:47:33.000Z</Time>
            <Position>
              <LatitudeDegrees>43.4900083579123020172119140625</LatitudeDegrees>
              <LongitudeDegrees>-1.47680760361254215240478515625</LongitudeDegrees>
            </Position>
            <AltitudeMeters>21.3999996185302734375</AltitudeMeters>
            <DistanceMeters>NAN</DistanceMeters>
          </Trackpoint>
          <Trackpoint>
            <Time>2022-07-07T13:47:35.000Z</Time>
            <Position>
              <LatitudeDegrees>43.49002470262348651885986328125</LatitudeDegrees>
              <LongitudeDegrees>-1.47679813206195831298828125</LongitudeDegrees>
            </Position>
            <AltitudeMeters>21.200000762939453125</AltitudeMeters>
            <DistanceMeters>NAN</DistanceMeters>
          </Trackpoint>
          <Trackpoint>
            <Time>2022-07-07T13:47:37.000Z</Time>
            <Position>
              <LatitudeDegrees>43.49003040231764316558837890625</LatitudeDegrees>
              <LongitudeDegrees>-1.4767885766923427581787109375</LongitudeDegrees>
            </Position>
            <AltitudeMeters>21.200000762939453125</AltitudeMeters>
            <DistanceMeters>NAN</DistanceMeters>
          </Trackpoint>
          <Trackpoint>
            <Time>2022-07-07T13:47:39.000Z</Time>
            <Position>
              <LatitudeDegrees>43.490042053163051605224609375</LatitudeDegrees>
              <LongitudeDegrees>-1.47677977569401264190673828125</LongitudeDegrees>
            </Position>
            <AltitudeMeters>21.200000762939453125</AltitudeMeters>
            <DistanceMeters>NAN</DistanceMeters>
          </Trackpoint>
          <Trackpoint>
            <Time>2022-07-07T13:47:40.000Z</Time>
            <Position>
              <LatitudeDegrees>43.4900519438087940216064453125</LatitudeDegrees>
              <LongitudeDegrees>-1.4767677895724773406982421875</LongitudeDegrees>
            </Position>
            <AltitudeMeters>21.200000762939453125</AltitudeMeters>
            <DistanceMeters>NAN</DistanceMeters>
          </Trackpoint>
          <Trackpoint>
            <Time>2022-07-07T13:47:42.000Z</Time>
            <Position>
              <LatitudeDegrees>43.49009309895336627960205078125</LatitudeDegrees>
              <LongitudeDegrees>-1.476740799844264984130859375</LongitudeDegrees>
            </Position>
            <AltitudeMeters>21.200000762939453125</AltitudeMeters>
            <DistanceMeters>NAN</DistanceMeters>
          </Trackpoint>
          <Trackpoint>
            <Time>2022-07-07T13:47:44.000Z</Time>
            <Position>
              <LatitudeDegrees>43.4901139698922634124755859375</LatitudeDegrees>
              <LongitudeDegrees>-1.47671489976346492767333984375</LongitudeDegrees>
            </Position>
            <AltitudeMeters>21.200000762939453125</AltitudeMeters>
            <DistanceMeters>NAN</DistanceMeters>
          </Trackpoint>
          <Trackpoint>
            <Time>2022-07-07T13:47:46.000Z</Time>
            <Position>
              <LatitudeDegrees>43.49013467319309711456298828125</LatitudeDegrees>
              <LongitudeDegrees>-1.47668371908366680145263671875</LongitudeDegrees>
            </Position>
            <AltitudeMeters>21.200000762939453125</AltitudeMeters>
            <DistanceMeters>NAN</DistanceMeters>
          </Trackpoint>
          <Trackpoint>
            <Time>2022-07-07T13:47:49.000Z</Time>
            <Position>
              <LatitudeDegrees>43.490175493061542510986328125</LatitudeDegrees>
              <LongitudeDegrees>-1.47668388672173023223876953125</LongitudeDegrees>
            </Position>
            <AltitudeMeters>21.200000762939453125</AltitudeMeters>
            <DistanceMeters>NAN</DistanceMeters>
          </Trackpoint>
          <Trackpoint>
            <Time>2022-07-07T13:47:51.000Z</Time>
            <Position>
              <LatitudeDegrees>43.49020960740745067596435546875</LatitudeDegrees>
              <LongitudeDegrees>-1.47667651064693927764892578125</LongitudeDegrees>
            </Position>
            <AltitudeMeters>21.200000762939453125</AltitudeMeters>
            <DistanceMeters>NAN</DistanceMeters>
          </Trackpoint>
          <Trackpoint>
            <Time>2022-07-07T13:47:55.000Z</Time>
            <Position>
              <LatitudeDegrees>43.49026844836771488189697265625</LatitudeDegrees>
              <LongitudeDegrees>-1.47665991447865962982177734375</LongitudeDegrees>
            </Position>
            <AltitudeMeters>20.799999237060546875</AltitudeMeters>
            <DistanceMeters>NAN</DistanceMeters>
          </Trackpoint>
          <Trackpoint>
            <Time>2022-07-07T13:47:57.000Z</Time>
            <Position>
              <LatitudeDegrees>43.4903151355683803558349609375</LatitudeDegrees>
              <LongitudeDegrees>-1.4766688831150531768798828125</LongitudeDegrees>
            </Position>
            <AltitudeMeters>20.6000003814697265625</AltitudeMeters>
            <DistanceMeters>NAN</DistanceMeters>
          </Trackpoint>
          <Trackpoint>
            <Time>2022-07-07T13:48:02.000Z</Time>
            <Position>
              <LatitudeDegrees>43.49038914777338504791259765625</LatitudeDegrees>
              <LongitudeDegrees>-1.47662890143692493438720703125</LongitudeDegrees>
            </Position>
            <AltitudeMeters>20.3999996185302734375</AltitudeMeters>
            <DistanceMeters>NAN</DistanceMeters>
          </Trackpoint>
          <Trackpoint>
            <Time>2022-07-07T13:48:03.000Z</Time>
            <Position>
              <LatitudeDegrees>43.4903999604284763336181640625</LatitudeDegrees>
              <LongitudeDegrees>-1.476626135408878326416015625</LongitudeDegrees>
            </Position>
            <AltitudeMeters>20.3999996185302734375</AltitudeMeters>
            <DistanceMeters>NAN</DistanceMeters>
          </Trackpoint>
          <Trackpoint>
            <Time>2022-07-07T13:48:10.000Z</Time>
            <Position>
              <LatitudeDegrees>43.4904670156538486480712890625</LatitudeDegrees>
              <LongitudeDegrees>-1.4766646921634674072265625</LongitudeDegrees>
            </Position>
            <AltitudeMeters>20</AltitudeMeters>
            <DistanceMeters>NAN</DistanceMeters>
          </Trackpoint>
          <Trackpoint>
            <Time>2022-07-07T13:48:17.000Z</Time>
            <Position>
              <LatitudeDegrees>43.49055938422679901123046875</LatitudeDegrees>
              <LongitudeDegrees>-1.47673308849334716796875</LongitudeDegrees>
            </Position>
            <AltitudeMeters>20</AltitudeMeters>
            <DistanceMeters>NAN</DistanceMeters>
          </Trackpoint>
          <Trackpoint>
            <Time>2022-07-07T13:48:19.000Z</Time>
            <Position>
              <LatitudeDegrees>43.4905836917459964752197265625</LatitudeDegrees>
              <LongitudeDegrees>-1.47676116786897182464599609375</LongitudeDegrees>
            </Position>
            <AltitudeMeters>20</AltitudeMeters>
            <DistanceMeters>NAN</DistanceMeters>
          </Trackpoint>
          <Trackpoint>
            <Time>2022-07-07T13:48:21.000Z</Time>
            <Position>
              <LatitudeDegrees>43.4905987791717052459716796875</LatitudeDegrees>
              <LongitudeDegrees>-1.4767822064459323883056640625</LongitudeDegrees>
            </Position>
            <AltitudeMeters>20</AltitudeMeters>
            <DistanceMeters>NAN</DistanceMeters>
          </Trackpoint>
          <Trackpoint>
            <Time>2022-07-07T13:48:23.000Z</Time>
            <Position>
              <LatitudeDegrees>43.4906225837767124176025390625</LatitudeDegrees>
              <LongitudeDegrees>-1.47681078873574733734130859375</LongitudeDegrees>
            </Position>
            <AltitudeMeters>20</AltitudeMeters>
            <DistanceMeters>NAN</DistanceMeters>
          </Trackpoint>
          <Trackpoint>
            <Time>2022-07-07T13:48:24.000Z</Time>
            <Position>
              <LatitudeDegrees>43.49063557572662830352783203125</LatitudeDegrees>
              <LongitudeDegrees>-1.4768160693347454071044921875</LongitudeDegrees>
            </Position>
            <AltitudeMeters>20.200000762939453125</AltitudeMeters>
            <DistanceMeters>NAN</DistanceMeters>
          </Trackpoint>
          <Trackpoint>
            <Time>2022-07-07T13:48:26.000Z</Time>
            <Position>
              <LatitudeDegrees>43.49068083800375461578369140625</LatitudeDegrees>
              <LongitudeDegrees>-1.4768381975591182708740234375</LongitudeDegrees>
            </Position>
            <AltitudeMeters>20.3999996185302734375</AltitudeMeters>
            <DistanceMeters>NAN</DistanceMeters>
          </Trackpoint>
          <Trackpoint>
            <Time>2022-07-07T13:48:29.000Z</Time>
            <Position>
              <LatitudeDegrees>43.49070045165717601776123046875</LatitudeDegrees>
              <LongitudeDegrees>-1.47690785117447376251220703125</LongitudeDegrees>
            </Position>
            <AltitudeMeters>20.6000003814697265625</AltitudeMeters>
            <DistanceMeters>NAN</DistanceMeters>
          </Trackpoint>
          <Trackpoint>
            <Time>2022-07-07T13:48:30.000Z</Time>
            <Position>
              <LatitudeDegrees>43.49071302451193332672119140625</LatitudeDegrees>
              <LongitudeDegrees>-1.4769327454268932342529296875</LongitudeDegrees>
            </Position>
            <AltitudeMeters>20.6000003814697265625</AltitudeMeters>
            <DistanceMeters>NAN</DistanceMeters>
          </Trackpoint>
          <Trackpoint>
            <Time>2022-07-07T13:48:33.000Z</Time>
            <Position>
              <LatitudeDegrees>43.49078066647052764892578125</LatitudeDegrees>
              <LongitudeDegrees>-1.47699502296745777130126953125</LongitudeDegrees>
            </Position>
            <AltitudeMeters>20.6000003814697265625</AltitudeMeters>
            <DistanceMeters>NAN</DistanceMeters>
          </Trackpoint>
          <Trackpoint>
            <Time>2022-07-07T13:48:36.000Z</Time>
            <Position>
              <LatitudeDegrees>43.49085601978003978729248046875</LatitudeDegrees>
              <LongitudeDegrees>-1.47705604322254657745361328125</LongitudeDegrees>
            </Position>
            <AltitudeMeters>20.3999996185302734375</AltitudeMeters>
            <DistanceMeters>NAN</DistanceMeters>
          </Trackpoint>
          <Trackpoint>
            <Time>2022-07-07T13:48:39.000Z</Time>
            <Position>
              <LatitudeDegrees>43.49084964953362941741943359375</LatitudeDegrees>
              <LongitudeDegrees>-1.47710968740284442901611328125</LongitudeDegrees>
            </Position>
            <AltitudeMeters>20.799999237060546875</AltitudeMeters>
            <DistanceMeters>NAN</DistanceMeters>
          </Trackpoint>
          <Trackpoint>
            <Time>2022-07-07T13:48:43.000Z</Time>
            <Position>
              <LatitudeDegrees>43.4908177144825458526611328125</LatitudeDegrees>
              <LongitudeDegrees>-1.4771635830402374267578125</LongitudeDegrees>
            </Position>
            <AltitudeMeters>20.6000003814697265625</AltitudeMeters>
            <DistanceMeters>NAN</DistanceMeters>
          </Trackpoint>
          <Trackpoint>
            <Time>2022-07-07T13:48:44.000Z</Time>
            <Position>
              <LatitudeDegrees>43.4908157028257846832275390625</LatitudeDegrees>
              <LongitudeDegrees>-1.47715981118381023406982421875</LongitudeDegrees>
            </Position>
            <AltitudeMeters>20.6000003814697265625</AltitudeMeters>
            <DistanceMeters>NAN</DistanceMeters>
          </Trackpoint>
          <Trackpoint>
            <Time>2022-07-07T13:48:45.000Z</Time>
            <Position>
              <LatitudeDegrees>43.4908157028257846832275390625</LatitudeDegrees>
              <LongitudeDegrees>-1.47715981118381023406982421875</LongitudeDegrees>
            </Position>
            <AltitudeMeters>20.3999996185302734375</AltitudeMeters>
            <DistanceMeters>NAN</DistanceMeters>
          </Trackpoint>
          <Trackpoint>
            <Time>2022-07-07T13:48:48.000Z</Time>
            <Position>
              <LatitudeDegrees>43.4907851926982402801513671875</LatitudeDegrees>
              <LongitudeDegrees>-1.4771235175430774688720703125</LongitudeDegrees>
            </Position>
            <AltitudeMeters>20.799999237060546875</AltitudeMeters>
            <DistanceMeters>NAN</DistanceMeters>
          </Trackpoint>
          <Trackpoint>
            <Time>2022-07-07T13:48:51.000Z</Time>
            <Position>
              <LatitudeDegrees>43.4907893836498260498046875</LatitudeDegrees>
              <LongitudeDegrees>-1.47713500075042247772216796875</LongitudeDegrees>
            </Position>
            <AltitudeMeters>21.200000762939453125</AltitudeMeters>
            <DistanceMeters>NAN</DistanceMeters>
          </Trackpoint>
          <Trackpoint>
            <Time>2022-07-07T13:48:54.000Z</Time>
            <Position>
              <LatitudeDegrees>43.4907868690788745880126953125</LatitudeDegrees>
              <LongitudeDegrees>-1.47713148035109043121337890625</LongitudeDegrees>
            </Position>
            <AltitudeMeters>21.3999996185302734375</AltitudeMeters>
            <DistanceMeters>NAN</DistanceMeters>
          </Trackpoint>
          <Trackpoint>
            <Time>2022-07-07T13:48:55.000Z</Time>
            <Position>
              <LatitudeDegrees>43.49077739752829074859619140625</LatitudeDegrees>
              <LongitudeDegrees>-1.47712779231369495391845703125</LongitudeDegrees>
            </Position>
            <AltitudeMeters>21.3999996185302734375</AltitudeMeters>
            <DistanceMeters>NAN</DistanceMeters>
          </Trackpoint>
          <Trackpoint>
            <Time>2022-07-07T13:48:57.000Z</Time>
            <Position>
              <LatitudeDegrees>43.49077739752829074859619140625</LatitudeDegrees>
              <LongitudeDegrees>-1.47712779231369495391845703125</LongitudeDegrees>
            </Position>
            <AltitudeMeters>21.6000003814697265625</AltitudeMeters>
            <DistanceMeters>NAN</DistanceMeters>
          </Trackpoint>
          <Trackpoint>
            <Time>2022-07-07T13:52:14.000Z</Time>
            <Position>
              <LatitudeDegrees>43.49078007973730564117431640625</LatitudeDegrees>
              <LongitudeDegrees>-1.47712695412337779998779296875</LongitudeDegrees>
            </Position>
            <AltitudeMeters>22</AltitudeMeters>
            <DistanceMeters>NAN</DistanceMeters>
          </Trackpoint>
          <Trackpoint>
            <Time>2022-07-07T13:52:15.000Z</Time>
            <Position>
              <LatitudeDegrees>43.490772284567356109619140625</LatitudeDegrees>
              <LongitudeDegrees>-1.477112285792827606201171875</LongitudeDegrees>
            </Position>
            <AltitudeMeters>22</AltitudeMeters>
            <DistanceMeters>NAN</DistanceMeters>
          </Trackpoint>
          <Trackpoint>
            <Time>2022-07-07T13:52:19.000Z</Time>
            <Position>
              <LatitudeDegrees>43.49075694568455219268798828125</LatitudeDegrees>
              <LongitudeDegrees>-1.476998627185821533203125</LongitudeDegrees>
            </Position>
            <AltitudeMeters>22.3999996185302734375</AltitudeMeters>
            <DistanceMeters>NAN</DistanceMeters>
          </Trackpoint>
          <Trackpoint>
            <Time>2022-07-07T13:52:26.000Z</Time>
            <Position>
              <LatitudeDegrees>43.4907000325620174407958984375</LatitudeDegrees>
              <LongitudeDegrees>-1.476792432367801666259765625</LongitudeDegrees>
            </Position>
            <AltitudeMeters>22.3999996185302734375</AltitudeMeters>
            <DistanceMeters>NAN</DistanceMeters>
          </Trackpoint>
          <Trackpoint>
            <Time>2022-07-07T13:52:27.000Z</Time>
            <Position>
              <LatitudeDegrees>43.49066994152963161468505859375</LatitudeDegrees>
              <LongitudeDegrees>-1.4767570607364177703857421875</LongitudeDegrees>
            </Position>
            <AltitudeMeters>22.3999996185302734375</AltitudeMeters>
            <DistanceMeters>NAN</DistanceMeters>
          </Trackpoint>
          <Trackpoint>
            <Time>2022-07-07T13:52:32.000Z</Time>
            <Position>
              <LatitudeDegrees>43.49053122103214263916015625</LatitudeDegrees>
              <LongitudeDegrees>-1.47664382122457027435302734375</LongitudeDegrees>
            </Position>
            <AltitudeMeters>22.200000762939453125</AltitudeMeters>
            <DistanceMeters>NAN</DistanceMeters>
          </Trackpoint>
          <Trackpoint>
            <Time>2022-07-07T13:52:34.000Z</Time>
            <Position>
              <LatitudeDegrees>43.49054588936269283294677734375</LatitudeDegrees>
              <LongitudeDegrees>-1.4765981398522853851318359375</LongitudeDegrees>
            </Position>
            <AltitudeMeters>22.3999996185302734375</AltitudeMeters>
            <DistanceMeters>NAN</DistanceMeters>
          </Trackpoint>
          <Trackpoint>
            <Time>2022-07-07T13:52:36.000Z</Time>
            <Position>
              <LatitudeDegrees>43.49052124656736850738525390625</LatitudeDegrees>
              <LongitudeDegrees>-1.47659252397716045379638671875</LongitudeDegrees>
            </Position>
            <AltitudeMeters>22.3999996185302734375</AltitudeMeters>
            <DistanceMeters>NAN</DistanceMeters>
          </Trackpoint>
          <Trackpoint>
            <Time>2022-07-07T13:52:37.000Z</Time>
            <Position>
              <LatitudeDegrees>43.49050867371261119842529296875</LatitudeDegrees>
              <LongitudeDegrees>-1.4765847288072109222412109375</LongitudeDegrees>
            </Position>
            <AltitudeMeters>22.3999996185302734375</AltitudeMeters>
            <DistanceMeters>NAN</DistanceMeters>
          </Trackpoint>
          <Trackpoint>
            <Time>2022-07-07T13:52:43.000Z</Time>
            <Position>
              <LatitudeDegrees>43.490444719791412353515625</LatitudeDegrees>
              <LongitudeDegrees>-1.4765512011945247650146484375</LongitudeDegrees>
            </Position>
            <AltitudeMeters>22.6000003814697265625</AltitudeMeters>
            <DistanceMeters>NAN</DistanceMeters>
          </Trackpoint>
          <Trackpoint>
            <Time>2022-07-07T13:52:50.000Z</Time>
            <Position>
              <LatitudeDegrees>43.49033516831696033477783203125</LatitudeDegrees>
              <LongitudeDegrees>-1.47654022090137004852294921875</LongitudeDegrees>
            </Position>
            <AltitudeMeters>23</AltitudeMeters>
            <DistanceMeters>NAN</DistanceMeters>
          </Trackpoint>
          <Trackpoint>
            <Time>2022-07-07T13:52:54.000Z</Time>
            <Position>
              <LatitudeDegrees>43.490277417004108428955078125</LatitudeDegrees>
              <LongitudeDegrees>-1.4765582419931888580322265625</LongitudeDegrees>
            </Position>
            <AltitudeMeters>23.200000762939453125</AltitudeMeters>
            <DistanceMeters>NAN</DistanceMeters>
          </Trackpoint>
          <Trackpoint>
            <Time>2022-07-07T13:52:57.000Z</Time>
            <Position>
              <LatitudeDegrees>43.49025906063616275787353515625</LatitudeDegrees>
              <LongitudeDegrees>-1.4765837229788303375244140625</LongitudeDegrees>
            </Position>
            <AltitudeMeters>23.200000762939453125</AltitudeMeters>
            <DistanceMeters>NAN</DistanceMeters>
          </Trackpoint>
          <Trackpoint>
            <Time>2022-07-07T13:53:02.000Z</Time>
            <Position>
              <LatitudeDegrees>43.49020558409392833709716796875</LatitudeDegrees>
              <LongitudeDegrees>-1.47664348594844341278076171875</LongitudeDegrees>
            </Position>
            <AltitudeMeters>23.3999996185302734375</AltitudeMeters>
            <DistanceMeters>NAN</DistanceMeters>
          </Trackpoint>
          <Trackpoint>
            <Time>2022-07-07T13:53:03.000Z</Time>
            <Position>
              <LatitudeDegrees>43.49017373286187648773193359375</LatitudeDegrees>
              <LongitudeDegrees>-1.47664415650069713592529296875</LongitudeDegrees>
            </Position>
            <AltitudeMeters>23.3999996185302734375</AltitudeMeters>
            <DistanceMeters>NAN</DistanceMeters>
          </Trackpoint>
          <Trackpoint>
            <Time>2022-07-07T13:53:05.000Z</Time>
            <Position>
              <LatitudeDegrees>43.49015546031296253204345703125</LatitudeDegrees>
              <LongitudeDegrees>-1.4766776002943515777587890625</LongitudeDegrees>
            </Position>
            <AltitudeMeters>23.3999996185302734375</AltitudeMeters>
            <DistanceMeters>NAN</DistanceMeters>
          </Trackpoint>
          <Trackpoint>
            <Time>2022-07-07T13:53:08.000Z</Time>
            <Position>
              <LatitudeDegrees>43.49010567180812358856201171875</LatitudeDegrees>
              <LongitudeDegrees>-1.47672428749501705169677734375</LongitudeDegrees>
            </Position>
            <AltitudeMeters>23.3999996185302734375</AltitudeMeters>
            <DistanceMeters>NAN</DistanceMeters>
          </Trackpoint>
          <Trackpoint>
            <Time>2022-07-07T13:53:11.000Z</Time>
            <Position>
              <LatitudeDegrees>43.4900911711156368255615234375</LatitudeDegrees>
              <LongitudeDegrees>-1.47675697691738605499267578125</LongitudeDegrees>
            </Position>
            <AltitudeMeters>23.6000003814697265625</AltitudeMeters>
            <DistanceMeters>NAN</DistanceMeters>
          </Trackpoint>
          <Trackpoint>
            <Time>2022-07-07T13:53:13.000Z</Time>
            <Position>
              <LatitudeDegrees>43.49013148806989192962646484375</LatitudeDegrees>
              <LongitudeDegrees>-1.47679033689200878143310546875</LongitudeDegrees>
            </Position>
            <AltitudeMeters>23.6000003814697265625</AltitudeMeters>
            <DistanceMeters>NAN</DistanceMeters>
          </Trackpoint>
          <Trackpoint>
            <Time>2022-07-07T13:53:14.000Z</Time>
            <Position>
              <LatitudeDegrees>43.49016551859676837921142578125</LatitudeDegrees>
              <LongitudeDegrees>-1.47678882814943790435791015625</LongitudeDegrees>
            </Position>
            <AltitudeMeters>23.6000003814697265625</AltitudeMeters>
            <DistanceMeters>NAN</DistanceMeters>
          </Trackpoint>
          <Trackpoint>
            <Time>2022-07-07T13:53:18.000Z</Time>
            <Position>
              <LatitudeDegrees>43.4900744073092937469482421875</LatitudeDegrees>
              <LongitudeDegrees>-1.476798467338085174560546875</LongitudeDegrees>
            </Position>
            <AltitudeMeters>23.799999237060546875</AltitudeMeters>
            <DistanceMeters>NAN</DistanceMeters>
          </Trackpoint>
          <Trackpoint>
            <Time>2022-07-07T13:53:21.000Z</Time>
            <Position>
              <LatitudeDegrees>43.4900247864425182342529296875</LatitudeDegrees>
              <LongitudeDegrees>-1.4767969585955142974853515625</LongitudeDegrees>
            </Position>
            <AltitudeMeters>23.799999237060546875</AltitudeMeters>
            <DistanceMeters>NAN</DistanceMeters>
          </Trackpoint>
          <Trackpoint>
            <Time>2022-07-07T13:53:23.000Z</Time>
            <Position>
              <LatitudeDegrees>43.48999746143817901611328125</LatitudeDegrees>
              <LongitudeDegrees>-1.4767988026142120361328125</LongitudeDegrees>
            </Position>
            <AltitudeMeters>23.799999237060546875</AltitudeMeters>
            <DistanceMeters>NAN</DistanceMeters>
          </Trackpoint>
          <Trackpoint>
            <Time>2022-07-07T13:53:25.000Z</Time>
            <Position>
              <LatitudeDegrees>43.489954881370067596435546875</LatitudeDegrees>
              <LongitudeDegrees>-1.476801149547100067138671875</LongitudeDegrees>
            </Position>
            <AltitudeMeters>23.799999237060546875</AltitudeMeters>
            <DistanceMeters>NAN</DistanceMeters>
          </Trackpoint>
          <Trackpoint>
            <Time>2022-07-07T13:53:28.000Z</Time>
            <Position>
              <LatitudeDegrees>43.48991389386355876922607421875</LatitudeDegrees>
              <LongitudeDegrees>-1.4767692983150482177734375</LongitudeDegrees>
            </Position>
            <AltitudeMeters>24</AltitudeMeters>
            <DistanceMeters>NAN</DistanceMeters>
          </Trackpoint>
          <Trackpoint>
            <Time>2022-07-07T13:53:30.000Z</Time>
            <Position>
              <LatitudeDegrees>43.48990215919911861419677734375</LatitudeDegrees>
              <LongitudeDegrees>-1.476774998009204864501953125</LongitudeDegrees>
            </Position>
            <AltitudeMeters>24</AltitudeMeters>
            <DistanceMeters>NAN</DistanceMeters>
          </Trackpoint>
          <Trackpoint>
            <Time>2022-07-07T13:53:32.000Z</Time>
            <Position>
              <LatitudeDegrees>43.4898926876485347747802734375</LatitudeDegrees>
              <LongitudeDegrees>-1.47680475376546382904052734375</LongitudeDegrees>
            </Position>
            <AltitudeMeters>24.200000762939453125</AltitudeMeters>
            <DistanceMeters>NAN</DistanceMeters>
          </Trackpoint>
          <Trackpoint>
            <Time>2022-07-07T13:53:35.000Z</Time>
            <Position>
              <LatitudeDegrees>43.48984851501882076263427734375</LatitudeDegrees>
              <LongitudeDegrees>-1.47684046067297458648681640625</LongitudeDegrees>
            </Position>
            <AltitudeMeters>24.200000762939453125</AltitudeMeters>
            <DistanceMeters>NAN</DistanceMeters>
          </Trackpoint>
          <Trackpoint>
            <Time>2022-07-07T13:54:03.000Z</Time>
            <Position>
              <LatitudeDegrees>43.48975799046456813812255859375</LatitudeDegrees>
              <LongitudeDegrees>-1.4769706316292285919189453125</LongitudeDegrees>
            </Position>
            <AltitudeMeters>24.3999996185302734375</AltitudeMeters>
            <DistanceMeters>NAN</DistanceMeters>
          </Trackpoint>
          <Trackpoint>
            <Time>2022-07-07T13:54:04.000Z</Time>
            <Position>
              <LatitudeDegrees>43.4897257201373577117919921875</LatitudeDegrees>
              <LongitudeDegrees>-1.47698999382555484771728515625</LongitudeDegrees>
            </Position>
            <AltitudeMeters>24.6000003814697265625</AltitudeMeters>
            <DistanceMeters>NAN</DistanceMeters>
          </Trackpoint>
          <Trackpoint>
            <Time>2022-07-07T13:54:06.000Z</Time>
            <Position>
              <LatitudeDegrees>43.4896801225841045379638671875</LatitudeDegrees>
              <LongitudeDegrees>-1.47702637128531932830810546875</LongitudeDegrees>
            </Position>
            <AltitudeMeters>24.799999237060546875</AltitudeMeters>
            <DistanceMeters>NAN</DistanceMeters>
          </Trackpoint>
          <Trackpoint>
            <Time>2022-07-07T13:54:08.000Z</Time>
            <Position>
              <LatitudeDegrees>43.48963804543018341064453125</LatitudeDegrees>
              <LongitudeDegrees>-1.4770500920712947845458984375</LongitudeDegrees>
            </Position>
            <AltitudeMeters>24.799999237060546875</AltitudeMeters>
            <DistanceMeters>NAN</DistanceMeters>
          </Trackpoint>
          <Trackpoint>
            <Time>2022-07-07T13:54:10.000Z</Time>
            <Position>
              <LatitudeDegrees>43.4896077029407024383544921875</LatitudeDegrees>
              <LongitudeDegrees>-1.47707297466695308685302734375</LongitudeDegrees>
            </Position>
            <AltitudeMeters>24.799999237060546875</AltitudeMeters>
            <DistanceMeters>NAN</DistanceMeters>
          </Trackpoint>
          <Trackpoint>
            <Time>2022-07-07T13:54:15.000Z</Time>
            <Position>
              <LatitudeDegrees>43.48960678093135356903076171875</LatitudeDegrees>
              <LongitudeDegrees>-1.47711471654474735260009765625</LongitudeDegrees>
            </Position>
            <AltitudeMeters>24.6000003814697265625</AltitudeMeters>
            <DistanceMeters>NAN</DistanceMeters>
          </Trackpoint>
          <Trackpoint>
            <Time>2022-07-07T13:54:19.000Z</Time>
            <Position>
              <LatitudeDegrees>43.48954156972467899322509765625</LatitudeDegrees>
              <LongitudeDegrees>-1.4771724678575992584228515625</LongitudeDegrees>
            </Position>
            <AltitudeMeters>24.6000003814697265625</AltitudeMeters>
            <DistanceMeters>NAN</DistanceMeters>
          </Trackpoint>
          <Trackpoint>
            <Time>2022-07-07T13:54:23.000Z</Time>
            <Position>
              <LatitudeDegrees>43.48948038183152675628662109375</LatitudeDegrees>
              <LongitudeDegrees>-1.47720985114574432373046875</LongitudeDegrees>
            </Position>
            <AltitudeMeters>24.6000003814697265625</AltitudeMeters>
            <DistanceMeters>NAN</DistanceMeters>
          </Trackpoint>
          <Trackpoint>
            <Time>2022-07-07T13:54:26.000Z</Time>
            <Position>
              <LatitudeDegrees>43.48941936157643795013427734375</LatitudeDegrees>
              <LongitudeDegrees>-1.47724740207195281982421875</LongitudeDegrees>
            </Position>
            <AltitudeMeters>24.6000003814697265625</AltitudeMeters>
            <DistanceMeters>NAN</DistanceMeters>
          </Trackpoint>
          <Trackpoint>
            <Time>2022-07-07T13:54:28.000Z</Time>
            <Position>
              <LatitudeDegrees>43.48938415758311748504638671875</LatitudeDegrees>
              <LongitudeDegrees>-1.47727045230567455291748046875</LongitudeDegrees>
            </Position>
            <AltitudeMeters>24.3999996185302734375</AltitudeMeters>
            <DistanceMeters>NAN</DistanceMeters>
          </Trackpoint>
          <Trackpoint>
            <Time>2022-07-07T13:54:35.000Z</Time>
            <Position>
              <LatitudeDegrees>43.48924585618078708648681640625</LatitudeDegrees>
              <LongitudeDegrees>-1.4773910678923130035400390625</LongitudeDegrees>
            </Position>
            <AltitudeMeters>24.200000762939453125</AltitudeMeters>
            <DistanceMeters>NAN</DistanceMeters>
          </Trackpoint>
          <Trackpoint>
            <Time>2022-07-07T13:54:36.000Z</Time>
            <Position>
              <LatitudeDegrees>43.48922624252736568450927734375</LatitudeDegrees>
              <LongitudeDegrees>-1.47741059772670269012451171875</LongitudeDegrees>
            </Position>
            <AltitudeMeters>24.200000762939453125</AltitudeMeters>
            <DistanceMeters>NAN</DistanceMeters>
          </Trackpoint>
          <Trackpoint>
            <Time>2022-07-07T13:54:38.000Z</Time>
            <Position>
              <LatitudeDegrees>43.489174358546733856201171875</LatitudeDegrees>
              <LongitudeDegrees>-1.47744999267160892486572265625</LongitudeDegrees>
            </Position>
            <AltitudeMeters>24.200000762939453125</AltitudeMeters>
            <DistanceMeters>NAN</DistanceMeters>
          </Trackpoint>
          <Trackpoint>
            <Time>2022-07-07T13:54:40.000Z</Time>
            <Position>
              <LatitudeDegrees>43.4891317784786224365234375</LatitudeDegrees>
              <LongitudeDegrees>-1.4774765633046627044677734375</LongitudeDegrees>
            </Position>
            <AltitudeMeters>24.200000762939453125</AltitudeMeters>
            <DistanceMeters>NAN</DistanceMeters>
          </Trackpoint>
          <Trackpoint>
            <Time>2022-07-07T13:54:41.000Z</Time>
            <Position>
              <LatitudeDegrees>43.48912448622286319732666015625</LatitudeDegrees>
              <LongitudeDegrees>-1.47748553194105625152587890625</LongitudeDegrees>
            </Position>
            <AltitudeMeters>24.200000762939453125</AltitudeMeters>
            <DistanceMeters>NAN</DistanceMeters>
          </Trackpoint>
          <Trackpoint>
            <Time>2022-07-07T13:54:42.000Z</Time>
            <Position>
              <LatitudeDegrees>43.489120043814182281494140625</LatitudeDegrees>
              <LongitudeDegrees>-1.477506570518016815185546875</LongitudeDegrees>
            </Position>
            <AltitudeMeters>24.200000762939453125</AltitudeMeters>
            <DistanceMeters>NAN</DistanceMeters>
          </Trackpoint>
          <Trackpoint>
            <Time>2022-07-07T13:54:44.000Z</Time>
            <Position>
              <LatitudeDegrees>43.48906363360583782196044921875</LatitudeDegrees>
              <LongitudeDegrees>-1.4775305427610874176025390625</LongitudeDegrees>
            </Position>
            <AltitudeMeters>24.200000762939453125</AltitudeMeters>
            <DistanceMeters>NAN</DistanceMeters>
          </Trackpoint>
          <Trackpoint>
            <Time>2022-07-07T13:54:45.000Z</Time>
            <Position>
              <LatitudeDegrees>43.489032872021198272705078125</LatitudeDegrees>
              <LongitudeDegrees>-1.4775593765079975128173828125</LongitudeDegrees>
            </Position>
            <AltitudeMeters>24.200000762939453125</AltitudeMeters>
            <DistanceMeters>NAN</DistanceMeters>
          </Trackpoint>
          <Trackpoint>
            <Time>2022-07-07T13:54:46.000Z</Time>
            <Position>
              <LatitudeDegrees>43.4890062175691127777099609375</LatitudeDegrees>
              <LongitudeDegrees>-1.47757421247661113739013671875</LongitudeDegrees>
            </Position>
            <AltitudeMeters>24.200000762939453125</AltitudeMeters>
            <DistanceMeters>NAN</DistanceMeters>
          </Trackpoint>
          <Trackpoint>
            <Time>2022-07-07T13:54:48.000Z</Time>
            <Position>
              <LatitudeDegrees>43.48897143267095088958740234375</LatitudeDegrees>
              <LongitudeDegrees>-1.47759608924388885498046875</LongitudeDegrees>
            </Position>
            <AltitudeMeters>24</AltitudeMeters>
            <DistanceMeters>NAN</DistanceMeters>
          </Trackpoint>
          <Trackpoint>
            <Time>2022-07-07T13:54:49.000Z</Time>
            <Position>
              <LatitudeDegrees>43.4889693371951580047607421875</LatitudeDegrees>
              <LongitudeDegrees>-1.47760824300348758697509765625</LongitudeDegrees>
            </Position>
            <AltitudeMeters>24</AltitudeMeters>
            <DistanceMeters>NAN</DistanceMeters>
          </Trackpoint>
          <Trackpoint>
            <Time>2022-07-07T13:54:52.000Z</Time>
            <Position>
              <LatitudeDegrees>43.48890454508364200592041015625</LatitudeDegrees>
              <LongitudeDegrees>-1.47765149362385272979736328125</LongitudeDegrees>
            </Position>
            <AltitudeMeters>24</AltitudeMeters>
            <DistanceMeters>NAN</DistanceMeters>
          </Trackpoint>
          <Trackpoint>
            <Time>2022-07-07T13:54:56.000Z</Time>
            <Position>
              <LatitudeDegrees>43.4888647310435771942138671875</LatitudeDegrees>
              <LongitudeDegrees>-1.4776733703911304473876953125</LongitudeDegrees>
            </Position>
            <AltitudeMeters>24.200000762939453125</AltitudeMeters>
            <DistanceMeters>NAN</DistanceMeters>
          </Trackpoint>
          <Trackpoint>
            <Time>2022-07-07T13:55:00.000Z</Time>
            <Position>
              <LatitudeDegrees>43.48883145488798618316650390625</LatitudeDegrees>
              <LongitudeDegrees>-1.4777273498475551605224609375</LongitudeDegrees>
            </Position>
            <AltitudeMeters>24.200000762939453125</AltitudeMeters>
            <DistanceMeters>NAN</DistanceMeters>
          </Trackpoint>
          <Trackpoint>
            <Time>2022-07-07T13:55:02.000Z</Time>
            <Position>
              <LatitudeDegrees>43.48880882374942302703857421875</LatitudeDegrees>
              <LongitudeDegrees>-1.4777313731610774993896484375</LongitudeDegrees>
            </Position>
            <AltitudeMeters>24.200000762939453125</AltitudeMeters>
            <DistanceMeters>NAN</DistanceMeters>
          </Trackpoint>
          <Trackpoint>
            <Time>2022-07-07T13:55:04.000Z</Time>
            <Position>
              <LatitudeDegrees>43.488787449896335601806640625</LatitudeDegrees>
              <LongitudeDegrees>-1.4777270145714282989501953125</LongitudeDegrees>
            </Position>
            <AltitudeMeters>24.200000762939453125</AltitudeMeters>
            <DistanceMeters>NAN</DistanceMeters>
          </Trackpoint>
          <Trackpoint>
            <Time>2022-07-07T13:55:14.000Z</Time>
            <Position>
              <LatitudeDegrees>43.48870907910168170928955078125</LatitudeDegrees>
              <LongitudeDegrees>-1.47773698903620243072509765625</LongitudeDegrees>
            </Position>
            <AltitudeMeters>24.6000003814697265625</AltitudeMeters>
            <DistanceMeters>NAN</DistanceMeters>
          </Trackpoint>
          <Trackpoint>
            <Time>2022-07-07T13:55:15.000Z</Time>
            <Position>
              <LatitudeDegrees>43.48870597779750823974609375</LatitudeDegrees>
              <LongitudeDegrees>-1.4777464605867862701416015625</LongitudeDegrees>
            </Position>
            <AltitudeMeters>24.6000003814697265625</AltitudeMeters>
            <DistanceMeters>NAN</DistanceMeters>
          </Trackpoint>
          <Trackpoint>
            <Time>2022-07-07T13:55:18.000Z</Time>
            <Position>
              <LatitudeDegrees>43.48867756314575672149658203125</LatitudeDegrees>
              <LongitudeDegrees>-1.47776867263019084930419921875</LongitudeDegrees>
            </Position>
            <AltitudeMeters>24.799999237060546875</AltitudeMeters>
            <DistanceMeters>NAN</DistanceMeters>
          </Trackpoint>
          <Trackpoint>
            <Time>2022-07-07T13:55:20.000Z</Time>
            <Position>
              <LatitudeDegrees>43.48864604718983173370361328125</LatitudeDegrees>
              <LongitudeDegrees>-1.47781066596508026123046875</LongitudeDegrees>
            </Position>
            <AltitudeMeters>24.799999237060546875</AltitudeMeters>
            <DistanceMeters>NAN</DistanceMeters>
          </Trackpoint>
          <Trackpoint>
            <Time>2022-07-07T13:55:23.000Z</Time>
            <Position>
              <LatitudeDegrees>43.48860849626362323760986328125</LatitudeDegrees>
              <LongitudeDegrees>-1.4778554253280162811279296875</LongitudeDegrees>
            </Position>
            <AltitudeMeters>25</AltitudeMeters>
            <DistanceMeters>NAN</DistanceMeters>
          </Trackpoint>
          <Trackpoint>
            <Time>2022-07-07T13:55:25.000Z</Time>
            <Position>
              <LatitudeDegrees>43.4885820932686328887939453125</LatitudeDegrees>
              <LongitudeDegrees>-1.47786942310631275177001953125</LongitudeDegrees>
            </Position>
            <AltitudeMeters>25</AltitudeMeters>
            <DistanceMeters>NAN</DistanceMeters>
          </Trackpoint>
          <Trackpoint>
            <Time>2022-07-07T13:55:32.000Z</Time>
            <Position>
              <LatitudeDegrees>43.4885321371257305145263671875</LatitudeDegrees>
              <LongitudeDegrees>-1.477941758930683135986328125</LongitudeDegrees>
            </Position>
            <AltitudeMeters>24.799999237060546875</AltitudeMeters>
            <DistanceMeters>NAN</DistanceMeters>
          </Trackpoint>
          <Trackpoint>
            <Time>2022-07-07T13:55:35.000Z</Time>
            <Position>
              <LatitudeDegrees>43.48848109133541584014892578125</LatitudeDegrees>
              <LongitudeDegrees>-1.478001438081264495849609375</LongitudeDegrees>
            </Position>
            <AltitudeMeters>25</AltitudeMeters>
            <DistanceMeters>NAN</DistanceMeters>
          </Trackpoint>
          <Trackpoint>
            <Time>2022-07-07T13:55:37.000Z</Time>
            <Position>
              <LatitudeDegrees>43.48846516571938991546630859375</LatitudeDegrees>
              <LongitudeDegrees>-1.47801451385021209716796875</LongitudeDegrees>
            </Position>
            <AltitudeMeters>25</AltitudeMeters>
            <DistanceMeters>NAN</DistanceMeters>
          </Trackpoint>
          <Trackpoint>
            <Time>2022-07-07T13:55:38.000Z</Time>
            <Position>
              <LatitudeDegrees>43.48844823427498340606689453125</LatitudeDegrees>
              <LongitudeDegrees>-1.4780260808765888214111328125</LongitudeDegrees>
            </Position>
            <AltitudeMeters>25.200000762939453125</AltitudeMeters>
            <DistanceMeters>NAN</DistanceMeters>
          </Trackpoint>
          <Trackpoint>
            <Time>2022-07-07T13:55:44.000Z</Time>
            <Position>
              <LatitudeDegrees>43.48841789178550243377685546875</LatitudeDegrees>
              <LongitudeDegrees>-1.47810210473835468292236328125</LongitudeDegrees>
            </Position>
            <AltitudeMeters>25.6000003814697265625</AltitudeMeters>
            <DistanceMeters>NAN</DistanceMeters>
          </Trackpoint>
          <Trackpoint>
            <Time>2022-07-07T13:55:46.000Z</Time>
            <Position>
              <LatitudeDegrees>43.48841856233775615692138671875</LatitudeDegrees>
              <LongitudeDegrees>-1.47810227237641811370849609375</LongitudeDegrees>
            </Position>
            <AltitudeMeters>25.6000003814697265625</AltitudeMeters>
            <DistanceMeters>NAN</DistanceMeters>
          </Trackpoint>
          <Trackpoint>
            <Time>2022-07-07T13:57:01.000Z</Time>
            <Position>
              <LatitudeDegrees>43.48843649961054325103759765625</LatitudeDegrees>
              <LongitudeDegrees>-1.4780130051076412200927734375</LongitudeDegrees>
            </Position>
            <AltitudeMeters>26</AltitudeMeters>
            <DistanceMeters>NAN</DistanceMeters>
          </Trackpoint>
          <Trackpoint>
            <Time>2022-07-07T13:57:02.000Z</Time>
            <Position>
              <LatitudeDegrees>43.4884473122656345367431640625</LatitudeDegrees>
              <LongitudeDegrees>-1.47800571285188198089599609375</LongitudeDegrees>
            </Position>
            <AltitudeMeters>26</AltitudeMeters>
            <DistanceMeters>NAN</DistanceMeters>
          </Trackpoint>
          <Trackpoint>
            <Time>2022-07-07T13:57:05.000Z</Time>
            <Position>
              <LatitudeDegrees>43.48848603665828704833984375</LatitudeDegrees>
              <LongitudeDegrees>-1.47797889076173305511474609375</LongitudeDegrees>
            </Position>
            <AltitudeMeters>26</AltitudeMeters>
            <DistanceMeters>NAN</DistanceMeters>
          </Trackpoint>
          <Trackpoint>
            <Time>2022-07-07T13:57:07.000Z</Time>
            <Position>
              <LatitudeDegrees>43.4885006211698055267333984375</LatitudeDegrees>
              <LongitudeDegrees>-1.47796095348894596099853515625</LongitudeDegrees>
            </Position>
            <AltitudeMeters>25.6000003814697265625</AltitudeMeters>
            <DistanceMeters>NAN</DistanceMeters>
          </Trackpoint>
          <Trackpoint>
            <Time>2022-07-07T13:57:08.000Z</Time>
            <Position>
              <LatitudeDegrees>43.4885096736252307891845703125</LatitudeDegrees>
              <LongitudeDegrees>-1.47795491851866245269775390625</LongitudeDegrees>
            </Position>
            <AltitudeMeters>25.6000003814697265625</AltitudeMeters>
            <DistanceMeters>NAN</DistanceMeters>
          </Trackpoint>
          <Trackpoint>
            <Time>2022-07-07T13:57:12.000Z</Time>
            <Position>
              <LatitudeDegrees>43.48856373690068721771240234375</LatitudeDegrees>
              <LongitudeDegrees>-1.4778866060078144073486328125</LongitudeDegrees>
            </Position>
            <AltitudeMeters>25.200000762939453125</AltitudeMeters>
            <DistanceMeters>NAN</DistanceMeters>
          </Trackpoint>
          <Trackpoint>
            <Time>2022-07-07T13:57:13.000Z</Time>
            <Position>
              <LatitudeDegrees>43.48858670331537723541259765625</LatitudeDegrees>
              <LongitudeDegrees>-1.47787478752434253692626953125</LongitudeDegrees>
            </Position>
            <AltitudeMeters>25.200000762939453125</AltitudeMeters>
            <DistanceMeters>NAN</DistanceMeters>
          </Trackpoint>
          <Trackpoint>
            <Time>2022-07-07T13:57:14.000Z</Time>
            <Position>
              <LatitudeDegrees>43.4886089153587818145751953125</LatitudeDegrees>
              <LongitudeDegrees>-1.477863304316997528076171875</LongitudeDegrees>
            </Position>
            <AltitudeMeters>25.200000762939453125</AltitudeMeters>
            <DistanceMeters>NAN</DistanceMeters>
          </Trackpoint>
          <Trackpoint>
            <Time>2022-07-07T13:57:18.000Z</Time>
            <Position>
              <LatitudeDegrees>43.48868343047797679901123046875</LatitudeDegrees>
              <LongitudeDegrees>-1.47779214195907115936279296875</LongitudeDegrees>
            </Position>
            <AltitudeMeters>24.799999237060546875</AltitudeMeters>
            <DistanceMeters>NAN</DistanceMeters>
          </Trackpoint>
          <Trackpoint>
            <Time>2022-07-07T13:57:22.000Z</Time>
            <Position>
              <LatitudeDegrees>43.48874780349433422088623046875</LatitudeDegrees>
              <LongitudeDegrees>-1.477742604911327362060546875</LongitudeDegrees>
            </Position>
            <AltitudeMeters>24.6000003814697265625</AltitudeMeters>
            <DistanceMeters>NAN</DistanceMeters>
          </Trackpoint>
          <Trackpoint>
            <Time>2022-07-07T13:57:23.000Z</Time>
            <Position>
              <LatitudeDegrees>43.48876171745359897613525390625</LatitudeDegrees>
              <LongitudeDegrees>-1.4777375757694244384765625</LongitudeDegrees>
            </Position>
            <AltitudeMeters>24.6000003814697265625</AltitudeMeters>
            <DistanceMeters>NAN</DistanceMeters>
          </Trackpoint>
          <Trackpoint>
            <Time>2022-07-07T13:57:26.000Z</Time>
            <Position>
              <LatitudeDegrees>43.48878585733473300933837890625</LatitudeDegrees>
              <LongitudeDegrees>-1.47772475145757198333740234375</LongitudeDegrees>
            </Position>
            <AltitudeMeters>24.6000003814697265625</AltitudeMeters>
            <DistanceMeters>NAN</DistanceMeters>
          </Trackpoint>
          <Trackpoint>
            <Time>2022-07-07T13:57:29.000Z</Time>
            <Position>
              <LatitudeDegrees>43.48881720565259456634521484375</LatitudeDegrees>
              <LongitudeDegrees>-1.47771452553570270538330078125</LongitudeDegrees>
            </Position>
            <AltitudeMeters>24.6000003814697265625</AltitudeMeters>
            <DistanceMeters>NAN</DistanceMeters>
          </Trackpoint>
          <Trackpoint>
            <Time>2022-07-07T13:57:34.000Z</Time>
            <Position>
              <LatitudeDegrees>43.488892056047916412353515625</LatitudeDegrees>
              <LongitudeDegrees>-1.477861292660236358642578125</LongitudeDegrees>
            </Position>
            <AltitudeMeters>24.799999237060546875</AltitudeMeters>
            <DistanceMeters>NAN</DistanceMeters>
          </Trackpoint>
          <Trackpoint>
            <Time>2022-07-07T13:57:39.000Z</Time>
            <Position>
              <LatitudeDegrees>43.48899959586560726165771484375</LatitudeDegrees>
              <LongitudeDegrees>-1.47800688631832599639892578125</LongitudeDegrees>
            </Position>
            <AltitudeMeters>25.200000762939453125</AltitudeMeters>
            <DistanceMeters>NAN</DistanceMeters>
          </Trackpoint>
          <Trackpoint>
            <Time>2022-07-07T13:57:44.000Z</Time>
            <Position>
              <LatitudeDegrees>43.48906799219548702239990234375</LatitudeDegrees>
              <LongitudeDegrees>-1.47813596762716770172119140625</LongitudeDegrees>
            </Position>
            <AltitudeMeters>25.799999237060546875</AltitudeMeters>
            <DistanceMeters>NAN</DistanceMeters>
          </Trackpoint>
          <Trackpoint>
            <Time>2022-07-07T13:57:45.000Z</Time>
            <Position>
              <LatitudeDegrees>43.489079140126705169677734375</LatitudeDegrees>
              <LongitudeDegrees>-1.4781667292118072509765625</LongitudeDegrees>
            </Position>
            <AltitudeMeters>25.799999237060546875</AltitudeMeters>
            <DistanceMeters>NAN</DistanceMeters>
          </Trackpoint>
          <Trackpoint>
            <Time>2022-07-07T13:57:47.000Z</Time>
            <Position>
              <LatitudeDegrees>43.489103615283966064453125</LatitudeDegrees>
              <LongitudeDegrees>-1.47821408696472644805908203125</LongitudeDegrees>
            </Position>
            <AltitudeMeters>26</AltitudeMeters>
            <DistanceMeters>NAN</DistanceMeters>
          </Trackpoint>
          <Trackpoint>
            <Time>2022-07-07T13:57:49.000Z</Time>
            <Position>
              <LatitudeDegrees>43.48912398330867290496826171875</LatitudeDegrees>
              <LongitudeDegrees>-1.47825582884252071380615234375</LongitudeDegrees>
            </Position>
            <AltitudeMeters>26</AltitudeMeters>
            <DistanceMeters>NAN</DistanceMeters>
          </Trackpoint>
          <Trackpoint>
            <Time>2022-07-07T13:57:50.000Z</Time>
            <Position>
              <LatitudeDegrees>43.489134125411510467529296875</LatitudeDegrees>
              <LongitudeDegrees>-1.4782686531543731689453125</LongitudeDegrees>
            </Position>
            <AltitudeMeters>26.200000762939453125</AltitudeMeters>
            <DistanceMeters>NAN</DistanceMeters>
          </Trackpoint>
          <Trackpoint>
            <Time>2022-07-07T13:57:51.000Z</Time>
            <Position>
              <LatitudeDegrees>43.48915524780750274658203125</LatitudeDegrees>
              <LongitudeDegrees>-1.478277035057544708251953125</LongitudeDegrees>
            </Position>
            <AltitudeMeters>26.200000762939453125</AltitudeMeters>
            <DistanceMeters>NAN</DistanceMeters>
          </Trackpoint>
          <Trackpoint>
            <Time>2022-07-07T13:57:53.000Z</Time>
            <Position>
              <LatitudeDegrees>43.4892013482749462127685546875</LatitudeDegrees>
              <LongitudeDegrees>-1.4783013425767421722412109375</LongitudeDegrees>
            </Position>
            <AltitudeMeters>26.3999996185302734375</AltitudeMeters>
            <DistanceMeters>NAN</DistanceMeters>
          </Trackpoint>
          <Trackpoint>
            <Time>2022-07-07T13:58:00.000Z</Time>
            <Position>
              <LatitudeDegrees>43.4892915375530719757080078125</LatitudeDegrees>
              <LongitudeDegrees>-1.47835171781480312347412109375</LongitudeDegrees>
            </Position>
            <AltitudeMeters>27.200000762939453125</AltitudeMeters>
            <DistanceMeters>NAN</DistanceMeters>
          </Trackpoint>
          <Trackpoint>
            <Time>2022-07-07T13:58:01.000Z</Time>
            <Position>
              <LatitudeDegrees>43.48930888809263706207275390625</LatitudeDegrees>
              <LongitudeDegrees>-1.478355824947357177734375</LongitudeDegrees>
            </Position>
            <AltitudeMeters>27.3999996185302734375</AltitudeMeters>
            <DistanceMeters>NAN</DistanceMeters>
          </Trackpoint>
          <Trackpoint>
            <Time>2022-07-07T13:58:05.000Z</Time>
            <Position>
              <LatitudeDegrees>43.489203192293643951416015625</LatitudeDegrees>
              <LongitudeDegrees>-1.478550620377063751220703125</LongitudeDegrees>
            </Position>
            <AltitudeMeters>27.3999996185302734375</AltitudeMeters>
            <DistanceMeters>NAN</DistanceMeters>
          </Trackpoint>
          <Trackpoint>
            <Time>2022-07-07T13:58:08.000Z</Time>
            <Position>
              <LatitudeDegrees>43.48929262720048427581787109375</LatitudeDegrees>
              <LongitudeDegrees>-1.478684730827808380126953125</LongitudeDegrees>
            </Position>
            <AltitudeMeters>27.6000003814697265625</AltitudeMeters>
            <DistanceMeters>NAN</DistanceMeters>
          </Trackpoint>
          <Trackpoint>
            <Time>2022-07-07T13:58:10.000Z</Time>
            <Position>
              <LatitudeDegrees>43.4893103130161762237548828125</LatitudeDegrees>
              <LongitudeDegrees>-1.478736698627471923828125</LongitudeDegrees>
            </Position>
            <AltitudeMeters>27.799999237060546875</AltitudeMeters>
            <DistanceMeters>NAN</DistanceMeters>
          </Trackpoint>
          <Trackpoint>
            <Time>2022-07-07T13:58:12.000Z</Time>
            <Position>
              <LatitudeDegrees>43.48929279483854770660400390625</LatitudeDegrees>
              <LongitudeDegrees>-1.478779949247837066650390625</LongitudeDegrees>
            </Position>
            <AltitudeMeters>28</AltitudeMeters>
            <DistanceMeters>NAN</DistanceMeters>
          </Trackpoint>
          <Trackpoint>
            <Time>2022-07-07T13:58:14.000Z</Time>
            <Position>
              <LatitudeDegrees>43.4892704151570796966552734375</LatitudeDegrees>
              <LongitudeDegrees>-1.47882898338139057159423828125</LongitudeDegrees>
            </Position>
            <AltitudeMeters>28.200000762939453125</AltitudeMeters>
            <DistanceMeters>NAN</DistanceMeters>
          </Trackpoint>
          <Trackpoint>
            <Time>2022-07-07T13:58:17.000Z</Time>
            <Position>
              <LatitudeDegrees>43.48927636630833148956298828125</LatitudeDegrees>
              <LongitudeDegrees>-1.4788736589252948760986328125</LongitudeDegrees>
            </Position>
            <AltitudeMeters>28.3999996185302734375</AltitudeMeters>
            <DistanceMeters>NAN</DistanceMeters>
          </Trackpoint>
          <Trackpoint>
            <Time>2022-07-07T13:58:19.000Z</Time>
            <Position>
              <LatitudeDegrees>43.489282988011837005615234375</LatitudeDegrees>
              <LongitudeDegrees>-1.4789189212024211883544921875</LongitudeDegrees>
            </Position>
            <AltitudeMeters>28.6000003814697265625</AltitudeMeters>
            <DistanceMeters>NAN</DistanceMeters>
          </Trackpoint>
          <Trackpoint>
            <Time>2022-07-07T13:58:20.000Z</Time>
            <Position>
              <LatitudeDegrees>43.4892952255904674530029296875</LatitudeDegrees>
              <LongitudeDegrees>-1.47893979214131832122802734375</LongitudeDegrees>
            </Position>
            <AltitudeMeters>28.6000003814697265625</AltitudeMeters>
            <DistanceMeters>NAN</DistanceMeters>
          </Trackpoint>
          <Trackpoint>
            <Time>2022-07-07T13:58:24.000Z</Time>
            <Position>
              <LatitudeDegrees>43.48938398994505405426025390625</LatitudeDegrees>
              <LongitudeDegrees>-1.478995867073535919189453125</LongitudeDegrees>
            </Position>
            <AltitudeMeters>28.6000003814697265625</AltitudeMeters>
            <DistanceMeters>NAN</DistanceMeters>
          </Trackpoint>
          <Trackpoint>
            <Time>2022-07-07T13:58:26.000Z</Time>
            <Position>
              <LatitudeDegrees>43.48939421586692333221435546875</LatitudeDegrees>
              <LongitudeDegrees>-1.4790319092571735382080078125</LongitudeDegrees>
            </Position>
            <AltitudeMeters>28.6000003814697265625</AltitudeMeters>
            <DistanceMeters>NAN</DistanceMeters>
          </Trackpoint>
          <Trackpoint>
            <Time>2022-07-07T13:58:27.000Z</Time>
            <Position>
              <LatitudeDegrees>43.4894132427871227264404296875</LatitudeDegrees>
              <LongitudeDegrees>-1.479045487940311431884765625</LongitudeDegrees>
            </Position>
            <AltitudeMeters>28.6000003814697265625</AltitudeMeters>
            <DistanceMeters>NAN</DistanceMeters>
          </Trackpoint>
          <Trackpoint>
            <Time>2022-07-07T13:58:29.000Z</Time>
            <Position>
              <LatitudeDegrees>43.48946630023419857025146484375</LatitudeDegrees>
              <LongitudeDegrees>-1.47901757620275020599365234375</LongitudeDegrees>
            </Position>
            <AltitudeMeters>28.6000003814697265625</AltitudeMeters>
            <DistanceMeters>NAN</DistanceMeters>
          </Trackpoint>
          <Trackpoint>
            <Time>2022-07-07T13:58:34.000Z</Time>
            <Position>
              <LatitudeDegrees>43.48966210149228572845458984375</LatitudeDegrees>
              <LongitudeDegrees>-1.47892177104949951171875</LongitudeDegrees>
            </Position>
            <AltitudeMeters>28</AltitudeMeters>
            <DistanceMeters>NAN</DistanceMeters>
          </Trackpoint>
          <Trackpoint>
            <Time>2022-07-07T13:58:35.000Z</Time>
            <Position>
              <LatitudeDegrees>43.4897002391517162322998046875</LatitudeDegrees>
              <LongitudeDegrees>-1.47890844382345676422119140625</LongitudeDegrees>
            </Position>
            <AltitudeMeters>28</AltitudeMeters>
            <DistanceMeters>NAN</DistanceMeters>
          </Trackpoint>
          <Trackpoint>
            <Time>2022-07-07T13:58:39.000Z</Time>
            <Position>
              <LatitudeDegrees>43.489891849458217620849609375</LatitudeDegrees>
              <LongitudeDegrees>-1.4789269678294658660888671875</LongitudeDegrees>
            </Position>
            <AltitudeMeters>27.799999237060546875</AltitudeMeters>
            <DistanceMeters>NAN</DistanceMeters>
          </Trackpoint>
          <Trackpoint>
            <Time>2022-07-07T13:58:43.000Z</Time>
            <Position>
              <LatitudeDegrees>43.49005923606455326080322265625</LatitudeDegrees>
              <LongitudeDegrees>-1.47890358231961727142333984375</LongitudeDegrees>
            </Position>
            <AltitudeMeters>27.799999237060546875</AltitudeMeters>
            <DistanceMeters>NAN</DistanceMeters>
          </Trackpoint>
          <Trackpoint>
            <Time>2022-07-07T13:58:47.000Z</Time>
            <Position>
              <LatitudeDegrees>43.49018949083983898162841796875</LatitudeDegrees>
              <LongitudeDegrees>-1.47884105332195758819580078125</LongitudeDegrees>
            </Position>
            <AltitudeMeters>27.6000003814697265625</AltitudeMeters>
            <DistanceMeters>NAN</DistanceMeters>
          </Trackpoint>
          <Trackpoint>
            <Time>2022-07-07T13:58:49.000Z</Time>
            <Position>
              <LatitudeDegrees>43.4902544505894184112548828125</LatitudeDegrees>
              <LongitudeDegrees>-1.47881674580276012420654296875</LongitudeDegrees>
            </Position>
            <AltitudeMeters>27.6000003814697265625</AltitudeMeters>
            <DistanceMeters>NAN</DistanceMeters>
          </Trackpoint>
          <Trackpoint>
            <Time>2022-07-07T13:58:53.000Z</Time>
            <Position>
              <LatitudeDegrees>43.49038126878440380096435546875</LatitudeDegrees>
              <LongitudeDegrees>-1.47876796312630176544189453125</LongitudeDegrees>
            </Position>
            <AltitudeMeters>27.3999996185302734375</AltitudeMeters>
            <DistanceMeters>NAN</DistanceMeters>
          </Trackpoint>
          <Trackpoint>
            <Time>2022-07-07T13:58:54.000Z</Time>
            <Position>
              <LatitudeDegrees>43.490398786962032318115234375</LatitudeDegrees>
              <LongitudeDegrees>-1.47875170223414897918701171875</LongitudeDegrees>
            </Position>
            <AltitudeMeters>27.3999996185302734375</AltitudeMeters>
            <DistanceMeters>NAN</DistanceMeters>
          </Trackpoint>
          <Trackpoint>
            <Time>2022-07-07T13:58:56.000Z</Time>
            <Position>
              <LatitudeDegrees>43.490453772246837615966796875</LatitudeDegrees>
              <LongitudeDegrees>-1.478702835738658905029296875</LongitudeDegrees>
            </Position>
            <AltitudeMeters>27.200000762939453125</AltitudeMeters>
            <DistanceMeters>NAN</DistanceMeters>
          </Trackpoint>
          <Trackpoint>
            <Time>2022-07-07T13:58:58.000Z</Time>
            <Position>
              <LatitudeDegrees>43.49050951190292835235595703125</LatitudeDegrees>
              <LongitudeDegrees>-1.4786942861974239349365234375</LongitudeDegrees>
            </Position>
            <AltitudeMeters>27.200000762939453125</AltitudeMeters>
            <DistanceMeters>NAN</DistanceMeters>
          </Trackpoint>
          <Trackpoint>
            <Time>2022-07-07T13:59:01.000Z</Time>
            <Position>
              <LatitudeDegrees>43.4905749745666980743408203125</LatitudeDegrees>
              <LongitudeDegrees>-1.4786718226969242095947265625</LongitudeDegrees>
            </Position>
            <AltitudeMeters>27.200000762939453125</AltitudeMeters>
            <DistanceMeters>NAN</DistanceMeters>
          </Trackpoint>
          <Trackpoint>
            <Time>2022-07-07T13:59:02.000Z</Time>
            <Position>
              <LatitudeDegrees>43.49059031344950199127197265625</LatitudeDegrees>
              <LongitudeDegrees>-1.47866101004183292388916015625</LongitudeDegrees>
            </Position>
            <AltitudeMeters>27</AltitudeMeters>
            <DistanceMeters>NAN</DistanceMeters>
          </Trackpoint>
          <Trackpoint>
            <Time>2022-07-07T13:59:05.000Z</Time>
            <Position>
              <LatitudeDegrees>43.490649573504924774169921875</LatitudeDegrees>
              <LongitudeDegrees>-1.4786825515329837799072265625</LongitudeDegrees>
            </Position>
            <AltitudeMeters>27</AltitudeMeters>
            <DistanceMeters>NAN</DistanceMeters>
          </Trackpoint>
          <Trackpoint>
            <Time>2022-07-07T13:59:07.000Z</Time>
            <Position>
              <LatitudeDegrees>43.49067480303347110748291015625</LatitudeDegrees>
              <LongitudeDegrees>-1.47872353903949260711669921875</LongitudeDegrees>
            </Position>
            <AltitudeMeters>27.200000762939453125</AltitudeMeters>
            <DistanceMeters>NAN</DistanceMeters>
          </Trackpoint>
          <Trackpoint>
            <Time>2022-07-07T13:59:13.000Z</Time>
            <Position>
              <LatitudeDegrees>43.49073498509824275970458984375</LatitudeDegrees>
              <LongitudeDegrees>-1.47888480685651302337646484375</LongitudeDegrees>
            </Position>
            <AltitudeMeters>27.6000003814697265625</AltitudeMeters>
            <DistanceMeters>NAN</DistanceMeters>
          </Trackpoint>
          <Trackpoint>
            <Time>2022-07-07T13:59:14.000Z</Time>
            <Position>
              <LatitudeDegrees>43.4907332248985767364501953125</LatitudeDegrees>
              <LongitudeDegrees>-1.4789011515676975250244140625</LongitudeDegrees>
            </Position>
            <AltitudeMeters>27.6000003814697265625</AltitudeMeters>
            <DistanceMeters>NAN</DistanceMeters>
          </Trackpoint>
          <Trackpoint>
            <Time>2022-07-07T13:59:17.000Z</Time>
            <Position>
              <LatitudeDegrees>43.49077857099473476409912109375</LatitudeDegrees>
              <LongitudeDegrees>-1.4789417199790477752685546875</LongitudeDegrees>
            </Position>
            <AltitudeMeters>27.799999237060546875</AltitudeMeters>
            <DistanceMeters>NAN</DistanceMeters>
          </Trackpoint>
          <Trackpoint>
            <Time>2022-07-07T13:59:19.000Z</Time>
            <Position>
              <LatitudeDegrees>43.490812517702579498291015625</LatitudeDegrees>
              <LongitudeDegrees>-1.47894834168255329132080078125</LongitudeDegrees>
            </Position>
            <AltitudeMeters>27.799999237060546875</AltitudeMeters>
            <DistanceMeters>NAN</DistanceMeters>
          </Trackpoint>
          <Trackpoint>
            <Time>2022-07-07T13:59:21.000Z</Time>
            <Position>
              <LatitudeDegrees>43.49085752852261066436767578125</LatitudeDegrees>
              <LongitudeDegrees>-1.4789199270308017730712890625</LongitudeDegrees>
            </Position>
            <AltitudeMeters>27.799999237060546875</AltitudeMeters>
            <DistanceMeters>NAN</DistanceMeters>
          </Trackpoint>
          <Trackpoint>
            <Time>2022-07-07T13:59:27.000Z</Time>
            <Position>
              <LatitudeDegrees>43.490990214049816131591796875</LatitudeDegrees>
              <LongitudeDegrees>-1.47885094396770000457763671875</LongitudeDegrees>
            </Position>
            <AltitudeMeters>27.6000003814697265625</AltitudeMeters>
            <DistanceMeters>NAN</DistanceMeters>
          </Trackpoint>
          <Trackpoint>
            <Time>2022-07-07T13:59:31.000Z</Time>
            <Position>
              <LatitudeDegrees>43.49107713438570499420166015625</LatitudeDegrees>
              <LongitudeDegrees>-1.4788292348384857177734375</LongitudeDegrees>
            </Position>
            <AltitudeMeters>27.6000003814697265625</AltitudeMeters>
            <DistanceMeters>NAN</DistanceMeters>
          </Trackpoint>
          <Trackpoint>
            <Time>2022-07-07T13:59:32.000Z</Time>
            <Position>
              <LatitudeDegrees>43.4911053813993930816650390625</LatitudeDegrees>
              <LongitudeDegrees>-1.4788260497152805328369140625</LongitudeDegrees>
            </Position>
            <AltitudeMeters>27.6000003814697265625</AltitudeMeters>
            <DistanceMeters>NAN</DistanceMeters>
          </Trackpoint>
          <Trackpoint>
            <Time>2022-07-07T13:59:38.000Z</Time>
            <Position>
              <LatitudeDegrees>43.4912882745265960693359375</LatitudeDegrees>
              <LongitudeDegrees>-1.478760503232479095458984375</LongitudeDegrees>
            </Position>
            <AltitudeMeters>27.799999237060546875</AltitudeMeters>
            <DistanceMeters>NAN</DistanceMeters>
          </Trackpoint>
          <Trackpoint>
            <Time>2022-07-07T13:59:45.000Z</Time>
            <Position>
              <LatitudeDegrees>43.49151198752224445343017578125</LatitudeDegrees>
              <LongitudeDegrees>-1.47863200865685939788818359375</LongitudeDegrees>
            </Position>
            <AltitudeMeters>27.6000003814697265625</AltitudeMeters>
            <DistanceMeters>NAN</DistanceMeters>
          </Trackpoint>
          <Trackpoint>
            <Time>2022-07-07T13:59:51.000Z</Time>
            <Position>
              <LatitudeDegrees>43.49170829169452190399169921875</LatitudeDegrees>
              <LongitudeDegrees>-1.47847576998174190521240234375</LongitudeDegrees>
            </Position>
            <AltitudeMeters>27.6000003814697265625</AltitudeMeters>
            <DistanceMeters>NAN</DistanceMeters>
          </Trackpoint>
          <Trackpoint>
            <Time>2022-07-07T13:59:52.000Z</Time>
            <Position>
              <LatitudeDegrees>43.491738550364971160888671875</LatitudeDegrees>
              <LongitudeDegrees>-1.4784502051770687103271484375</LongitudeDegrees>
            </Position>
            <AltitudeMeters>27.6000003814697265625</AltitudeMeters>
            <DistanceMeters>NAN</DistanceMeters>
          </Trackpoint>
          <Trackpoint>
            <Time>2022-07-07T13:59:53.000Z</Time>
            <Position>
              <LatitudeDegrees>43.4917752631008625030517578125</LatitudeDegrees>
              <LongitudeDegrees>-1.4784403145313262939453125</LongitudeDegrees>
            </Position>
            <AltitudeMeters>27.3999996185302734375</AltitudeMeters>
            <DistanceMeters>NAN</DistanceMeters>
          </Trackpoint>
          <Trackpoint>
            <Time>2022-07-07T13:59:55.000Z</Time>
            <Position>
              <LatitudeDegrees>43.4918761812150478363037109375</LatitudeDegrees>
              <LongitudeDegrees>-1.478404104709625244140625</LongitudeDegrees>
            </Position>
            <AltitudeMeters>27</AltitudeMeters>
            <DistanceMeters>NAN</DistanceMeters>
          </Trackpoint>
          <Trackpoint>
            <Time>2022-07-07T13:59:56.000Z</Time>
            <Position>
              <LatitudeDegrees>43.49192286841571331024169921875</LatitudeDegrees>
              <LongitudeDegrees>-1.4783918671309947967529296875</LongitudeDegrees>
            </Position>
            <AltitudeMeters>26.3999996185302734375</AltitudeMeters>
            <DistanceMeters>NAN</DistanceMeters>
          </Trackpoint>
          <Trackpoint>
            <Time>2022-07-07T13:59:58.000Z</Time>
            <Position>
              <LatitudeDegrees>43.49202680401504039764404296875</LatitudeDegrees>
              <LongitudeDegrees>-1.47840519435703754425048828125</LongitudeDegrees>
            </Position>
            <AltitudeMeters>25.200000762939453125</AltitudeMeters>
            <DistanceMeters>NAN</DistanceMeters>
          </Trackpoint>
          <Trackpoint>
            <Time>2022-07-07T14:00:00.000Z</Time>
            <Position>
              <LatitudeDegrees>43.4921159036457538604736328125</LatitudeDegrees>
              <LongitudeDegrees>-1.47849152795970439910888671875</LongitudeDegrees>
            </Position>
            <AltitudeMeters>24.3999996185302734375</AltitudeMeters>
            <DistanceMeters>NAN</DistanceMeters>
          </Trackpoint>
          <Trackpoint>
            <Time>2022-07-07T14:00:01.000Z</Time>
            <Position>
              <LatitudeDegrees>43.49216041155159473419189453125</LatitudeDegrees>
              <LongitudeDegrees>-1.4785460941493511199951171875</LongitudeDegrees>
            </Position>
            <AltitudeMeters>24</AltitudeMeters>
            <DistanceMeters>NAN</DistanceMeters>
          </Trackpoint>
          <Trackpoint>
            <Time>2022-07-07T14:00:03.000Z</Time>
            <Position>
              <LatitudeDegrees>43.49225043319165706634521484375</LatitudeDegrees>
              <LongitudeDegrees>-1.47865732200443744659423828125</LongitudeDegrees>
            </Position>
            <AltitudeMeters>23.200000762939453125</AltitudeMeters>
            <DistanceMeters>NAN</DistanceMeters>
          </Trackpoint>
          <Trackpoint>
            <Time>2022-07-07T14:00:04.000Z</Time>
            <Position>
              <LatitudeDegrees>43.49230122752487659454345703125</LatitudeDegrees>
              <LongitudeDegrees>-1.4786993153393268585205078125</LongitudeDegrees>
            </Position>
            <AltitudeMeters>22.799999237060546875</AltitudeMeters>
            <DistanceMeters>NAN</DistanceMeters>
          </Trackpoint>
          <Trackpoint>
            <Time>2022-07-07T14:00:05.000Z</Time>
            <Position>
              <LatitudeDegrees>43.49235252477228641510009765625</LatitudeDegrees>
              <LongitudeDegrees>-1.4787254668772220611572265625</LongitudeDegrees>
            </Position>
            <AltitudeMeters>22.3999996185302734375</AltitudeMeters>
            <DistanceMeters>NAN</DistanceMeters>
          </Trackpoint>
          <Trackpoint>
            <Time>2022-07-07T14:00:07.000Z</Time>
            <Position>
              <LatitudeDegrees>43.492453359067440032958984375</LatitudeDegrees>
              <LongitudeDegrees>-1.478720270097255706787109375</LongitudeDegrees>
            </Position>
            <AltitudeMeters>21.200000762939453125</AltitudeMeters>
            <DistanceMeters>NAN</DistanceMeters>
          </Trackpoint>
          <Trackpoint>
            <Time>2022-07-07T14:00:08.000Z</Time>
            <Position>
              <LatitudeDegrees>43.4924967773258686065673828125</LatitudeDegrees>
              <LongitudeDegrees>-1.478699147701263427734375</LongitudeDegrees>
            </Position>
            <AltitudeMeters>20.6000003814697265625</AltitudeMeters>
            <DistanceMeters>NAN</DistanceMeters>
          </Trackpoint>
          <Trackpoint>
            <Time>2022-07-07T14:00:09.000Z</Time>
            <Position>
              <LatitudeDegrees>43.49253483116626739501953125</LatitudeDegrees>
              <LongitudeDegrees>-1.47867559455335140228271484375</LongitudeDegrees>
            </Position>
            <AltitudeMeters>20</AltitudeMeters>
            <DistanceMeters>NAN</DistanceMeters>
          </Trackpoint>
          <Trackpoint>
            <Time>2022-07-07T14:00:12.000Z</Time>
            <Position>
              <LatitudeDegrees>43.49260934628546237945556640625</LatitudeDegrees>
              <LongitudeDegrees>-1.478613317012786865234375</LongitudeDegrees>
            </Position>
            <AltitudeMeters>18.799999237060546875</AltitudeMeters>
            <DistanceMeters>NAN</DistanceMeters>
          </Trackpoint>
          <Trackpoint>
            <Time>2022-07-07T14:00:16.000Z</Time>
            <Position>
              <LatitudeDegrees>43.49267355166375637054443359375</LatitudeDegrees>
              <LongitudeDegrees>-1.47856998257339000701904296875</LongitudeDegrees>
            </Position>
            <AltitudeMeters>17.6000003814697265625</AltitudeMeters>
            <DistanceMeters>NAN</DistanceMeters>
          </Trackpoint>
          <Trackpoint>
            <Time>2022-07-07T14:00:17.000Z</Time>
            <Position>
              <LatitudeDegrees>43.4926875494420528411865234375</LatitudeDegrees>
              <LongitudeDegrees>-1.47856780327856540679931640625</LongitudeDegrees>
            </Position>
            <AltitudeMeters>17.6000003814697265625</AltitudeMeters>
            <DistanceMeters>NAN</DistanceMeters>
          </Trackpoint>
          <Trackpoint>
            <Time>2022-07-07T14:00:19.000Z</Time>
            <Position>
              <LatitudeDegrees>43.49271479062736034393310546875</LatitudeDegrees>
              <LongitudeDegrees>-1.47858909331262111663818359375</LongitudeDegrees>
            </Position>
            <AltitudeMeters>17.3999996185302734375</AltitudeMeters>
            <DistanceMeters>NAN</DistanceMeters>
          </Trackpoint>
          <Trackpoint>
            <Time>2022-07-07T14:00:22.000Z</Time>
            <Position>
              <LatitudeDegrees>43.49275535903871059417724609375</LatitudeDegrees>
              <LongitudeDegrees>-1.478672325611114501953125</LongitudeDegrees>
            </Position>
            <AltitudeMeters>18</AltitudeMeters>
            <DistanceMeters>NAN</DistanceMeters>
          </Trackpoint>
          <Trackpoint>
            <Time>2022-07-07T14:00:24.000Z</Time>
            <Position>
              <LatitudeDegrees>43.49278469569981098175048828125</LatitudeDegrees>
              <LongitudeDegrees>-1.47872957400977611541748046875</LongitudeDegrees>
            </Position>
            <AltitudeMeters>18</AltitudeMeters>
            <DistanceMeters>NAN</DistanceMeters>
          </Trackpoint>
          <Trackpoint>
            <Time>2022-07-07T14:00:30.000Z</Time>
            <Position>
              <LatitudeDegrees>43.49288209341466426849365234375</LatitudeDegrees>
              <LongitudeDegrees>-1.4789338409900665283203125</LongitudeDegrees>
            </Position>
            <AltitudeMeters>18</AltitudeMeters>
            <DistanceMeters>NAN</DistanceMeters>
          </Trackpoint>
          <Trackpoint>
            <Time>2022-07-07T14:00:31.000Z</Time>
            <Position>
              <LatitudeDegrees>43.4928967617452144622802734375</LatitudeDegrees>
              <LongitudeDegrees>-1.4789655245840549468994140625</LongitudeDegrees>
            </Position>
            <AltitudeMeters>17.799999237060546875</AltitudeMeters>
            <DistanceMeters>NAN</DistanceMeters>
          </Trackpoint>
          <Trackpoint>
            <Time>2022-07-07T14:00:39.000Z</Time>
            <Position>
              <LatitudeDegrees>43.49301603622734546661376953125</LatitudeDegrees>
              <LongitudeDegrees>-1.4792206697165966033935546875</LongitudeDegrees>
            </Position>
            <AltitudeMeters>17</AltitudeMeters>
            <DistanceMeters>NAN</DistanceMeters>
          </Trackpoint>
          <Trackpoint>
            <Time>2022-07-07T14:00:45.000Z</Time>
            <Position>
              <LatitudeDegrees>43.4930818341672420501708984375</LatitudeDegrees>
              <LongitudeDegrees>-1.479305326938629150390625</LongitudeDegrees>
            </Position>
            <AltitudeMeters>16.799999237060546875</AltitudeMeters>
            <DistanceMeters>NAN</DistanceMeters>
          </Trackpoint>
          <Trackpoint>
            <Time>2022-07-07T14:00:46.000Z</Time>
            <Position>
              <LatitudeDegrees>43.493094742298126220703125</LatitudeDegrees>
              <LongitudeDegrees>-1.47931999526917934417724609375</LongitudeDegrees>
            </Position>
            <AltitudeMeters>16.799999237060546875</AltitudeMeters>
            <DistanceMeters>NAN</DistanceMeters>
          </Trackpoint>
          <Trackpoint>
            <Time>2022-07-07T14:00:50.000Z</Time>
            <Position>
              <LatitudeDegrees>43.49315852858126163482666015625</LatitudeDegrees>
              <LongitudeDegrees>-1.47941772826015949249267578125</LongitudeDegrees>
            </Position>
            <AltitudeMeters>16.6000003814697265625</AltitudeMeters>
            <DistanceMeters>NAN</DistanceMeters>
          </Trackpoint>
          <Trackpoint>
            <Time>2022-07-07T14:00:52.000Z</Time>
            <Position>
              <LatitudeDegrees>43.49319255910813808441162109375</LatitudeDegrees>
              <LongitudeDegrees>-1.4794657565653324127197265625</LongitudeDegrees>
            </Position>
            <AltitudeMeters>16.6000003814697265625</AltitudeMeters>
            <DistanceMeters>NAN</DistanceMeters>
          </Trackpoint>
          <Trackpoint>
            <Time>2022-07-07T14:00:56.000Z</Time>
            <Position>
              <LatitudeDegrees>43.49328291602432727813720703125</LatitudeDegrees>
              <LongitudeDegrees>-1.47947807796299457550048828125</LongitudeDegrees>
            </Position>
            <AltitudeMeters>16.6000003814697265625</AltitudeMeters>
            <DistanceMeters>NAN</DistanceMeters>
          </Trackpoint>
          <Trackpoint>
            <Time>2022-07-07T14:00:57.000Z</Time>
            <Position>
              <LatitudeDegrees>43.4933078102767467498779296875</LatitudeDegrees>
              <LongitudeDegrees>-1.47946181707084178924560546875</LongitudeDegrees>
            </Position>
            <AltitudeMeters>16.6000003814697265625</AltitudeMeters>
            <DistanceMeters>NAN</DistanceMeters>
          </Trackpoint>
          <Trackpoint>
            <Time>2022-07-07T14:01:00.000Z</Time>
            <Position>
              <LatitudeDegrees>43.49337763153016567230224609375</LatitudeDegrees>
              <LongitudeDegrees>-1.4793906547129154205322265625</LongitudeDegrees>
            </Position>
            <AltitudeMeters>16.6000003814697265625</AltitudeMeters>
            <DistanceMeters>NAN</DistanceMeters>
          </Trackpoint>
          <Trackpoint>
            <Time>2022-07-07T14:01:01.000Z</Time>
            <Position>
              <LatitudeDegrees>43.49340118467807769775390625</LatitudeDegrees>
              <LongitudeDegrees>-1.4793631620705127716064453125</LongitudeDegrees>
            </Position>
            <AltitudeMeters>16.6000003814697265625</AltitudeMeters>
            <DistanceMeters>NAN</DistanceMeters>
          </Trackpoint>
          <Trackpoint>
            <Time>2022-07-07T14:01:04.000Z</Time>
            <Position>
              <LatitudeDegrees>43.493454493582248687744140625</LatitudeDegrees>
              <LongitudeDegrees>-1.47927003912627696990966796875</LongitudeDegrees>
            </Position>
            <AltitudeMeters>16.6000003814697265625</AltitudeMeters>
            <DistanceMeters>NAN</DistanceMeters>
          </Trackpoint>
          <Trackpoint>
            <Time>2022-07-07T14:01:11.000Z</Time>
            <Position>
              <LatitudeDegrees>43.493572510778903961181640625</LatitudeDegrees>
              <LongitudeDegrees>-1.47910189814865589141845703125</LongitudeDegrees>
            </Position>
            <AltitudeMeters>16.6000003814697265625</AltitudeMeters>
            <DistanceMeters>NAN</DistanceMeters>
          </Trackpoint>
          <Trackpoint>
            <Time>2022-07-07T14:01:16.000Z</Time>
            <Position>
              <LatitudeDegrees>43.49363143555819988250732421875</LatitudeDegrees>
              <LongitudeDegrees>-1.4790483377873897552490234375</LongitudeDegrees>
            </Position>
            <AltitudeMeters>16.3999996185302734375</AltitudeMeters>
            <DistanceMeters>NAN</DistanceMeters>
          </Trackpoint>
          <Trackpoint>
            <Time>2022-07-07T14:01:23.000Z</Time>
            <Position>
              <LatitudeDegrees>43.49373453296720981597900390625</LatitudeDegrees>
              <LongitudeDegrees>-1.478948257863521575927734375</LongitudeDegrees>
            </Position>
            <AltitudeMeters>16.6000003814697265625</AltitudeMeters>
            <DistanceMeters>NAN</DistanceMeters>
          </Trackpoint>
          <Trackpoint>
            <Time>2022-07-07T14:01:29.000Z</Time>
            <Position>
              <LatitudeDegrees>43.4938626922667026519775390625</LatitudeDegrees>
              <LongitudeDegrees>-1.47881808690726757049560546875</LongitudeDegrees>
            </Position>
            <AltitudeMeters>16.3999996185302734375</AltitudeMeters>
            <DistanceMeters>NAN</DistanceMeters>
          </Trackpoint>
          <Trackpoint>
            <Time>2022-07-07T14:01:35.000Z</Time>
            <Position>
              <LatitudeDegrees>43.49396335892379283905029296875</LatitudeDegrees>
              <LongitudeDegrees>-1.47872001864016056060791015625</LongitudeDegrees>
            </Position>
            <AltitudeMeters>16.3999996185302734375</AltitudeMeters>
            <DistanceMeters>NAN</DistanceMeters>
          </Trackpoint>
          <Trackpoint>
            <Time>2022-07-07T14:01:38.000Z</Time>
            <Position>
              <LatitudeDegrees>43.49399940110743045806884765625</LatitudeDegrees>
              <LongitudeDegrees>-1.4786859042942523956298828125</LongitudeDegrees>
            </Position>
            <AltitudeMeters>16.200000762939453125</AltitudeMeters>
            <DistanceMeters>NAN</DistanceMeters>
          </Trackpoint>
          <Trackpoint>
            <Time>2022-07-07T14:04:00.000Z</Time>
            <Position>
              <LatitudeDegrees>43.49400543607771396636962890625</LatitudeDegrees>
              <LongitudeDegrees>-1.479170881211757659912109375</LongitudeDegrees>
            </Position>
            <AltitudeMeters>15.80000019073486328125</AltitudeMeters>
            <DistanceMeters>NAN</DistanceMeters>
          </Trackpoint>
          <Trackpoint>
            <Time>2022-07-07T14:04:01.000Z</Time>
            <Position>
              <LatitudeDegrees>43.4939904324710369110107421875</LatitudeDegrees>
              <LongitudeDegrees>-1.4791375212371349334716796875</LongitudeDegrees>
            </Position>
            <AltitudeMeters>15.80000019073486328125</AltitudeMeters>
            <DistanceMeters>NAN</DistanceMeters>
          </Trackpoint>
          <Trackpoint>
            <Time>2022-07-07T14:04:02.000Z</Time>
            <Position>
              <LatitudeDegrees>43.49419084377586841583251953125</LatitudeDegrees>
              <LongitudeDegrees>-1.47892135195434093475341796875</LongitudeDegrees>
            </Position>
            <AltitudeMeters>15.80000019073486328125</AltitudeMeters>
            <DistanceMeters>NAN</DistanceMeters>
          </Trackpoint>
          <Trackpoint>
            <Time>2022-07-07T14:04:05.000Z</Time>
            <Position>
              <LatitudeDegrees>43.49409059621393680572509765625</LatitudeDegrees>
              <LongitudeDegrees>-1.47891179658472537994384765625</LongitudeDegrees>
            </Position>
            <AltitudeMeters>15.80000019073486328125</AltitudeMeters>
            <DistanceMeters>NAN</DistanceMeters>
          </Trackpoint>
          <Trackpoint>
            <Time>2022-07-07T14:04:18.000Z</Time>
            <Position>
              <LatitudeDegrees>43.4941597469151020050048828125</LatitudeDegrees>
              <LongitudeDegrees>-1.4788877405226230621337890625</LongitudeDegrees>
            </Position>
            <AltitudeMeters>16.3999996185302734375</AltitudeMeters>
            <DistanceMeters>NAN</DistanceMeters>
          </Trackpoint>
          <Trackpoint>
            <Time>2022-07-07T14:04:19.000Z</Time>
            <Position>
              <LatitudeDegrees>43.494177348911762237548828125</LatitudeDegrees>
              <LongitudeDegrees>-1.47886921651661396026611328125</LongitudeDegrees>
            </Position>
            <AltitudeMeters>16.3999996185302734375</AltitudeMeters>
            <DistanceMeters>NAN</DistanceMeters>
          </Trackpoint>
          <Trackpoint>
            <Time>2022-07-07T14:04:22.000Z</Time>
            <Position>
              <LatitudeDegrees>43.494232334196567535400390625</LatitudeDegrees>
              <LongitudeDegrees>-1.47880283184349536895751953125</LongitudeDegrees>
            </Position>
            <AltitudeMeters>16.6000003814697265625</AltitudeMeters>
            <DistanceMeters>NAN</DistanceMeters>
          </Trackpoint>
          <Trackpoint>
            <Time>2022-07-07T14:04:27.000Z</Time>
            <Position>
              <LatitudeDegrees>43.4943247027695178985595703125</LatitudeDegrees>
              <LongitudeDegrees>-1.4787133969366550445556640625</LongitudeDegrees>
            </Position>
            <AltitudeMeters>16.799999237060546875</AltitudeMeters>
            <DistanceMeters>NAN</DistanceMeters>
          </Trackpoint>
          <Trackpoint>
            <Time>2022-07-07T14:04:32.000Z</Time>
            <Position>
              <LatitudeDegrees>43.4944916702806949615478515625</LatitudeDegrees>
              <LongitudeDegrees>-1.478527151048183441162109375</LongitudeDegrees>
            </Position>
            <AltitudeMeters>16.200000762939453125</AltitudeMeters>
            <DistanceMeters>NAN</DistanceMeters>
          </Trackpoint>
          <Trackpoint>
            <Time>2022-07-07T14:04:38.000Z</Time>
            <Position>
              <LatitudeDegrees>43.49458093754947185516357421875</LatitudeDegrees>
              <LongitudeDegrees>-1.47828449495136737823486328125</LongitudeDegrees>
            </Position>
            <AltitudeMeters>16.200000762939453125</AltitudeMeters>
            <DistanceMeters>NAN</DistanceMeters>
          </Trackpoint>
          <Trackpoint>
            <Time>2022-07-07T14:04:43.000Z</Time>
            <Position>
              <LatitudeDegrees>43.4946016408503055572509765625</LatitudeDegrees>
              <LongitudeDegrees>-1.4782198704779148101806640625</LongitudeDegrees>
            </Position>
            <AltitudeMeters>16.200000762939453125</AltitudeMeters>
            <DistanceMeters>NAN</DistanceMeters>
          </Trackpoint>
          <Trackpoint>
            <Time>2022-07-07T14:04:44.000Z</Time>
            <Position>
              <LatitudeDegrees>43.49460172466933727264404296875</LatitudeDegrees>
              <LongitudeDegrees>-1.47821894846856594085693359375</LongitudeDegrees>
            </Position>
            <AltitudeMeters>16.200000762939453125</AltitudeMeters>
            <DistanceMeters>NAN</DistanceMeters>
          </Trackpoint>
          <Trackpoint>
            <Time>2022-07-07T14:05:25.000Z</Time>
            <Position>
              <LatitudeDegrees>43.49459619261324405670166015625</LatitudeDegrees>
              <LongitudeDegrees>-1.4780621230602264404296875</LongitudeDegrees>
            </Position>
            <AltitudeMeters>16</AltitudeMeters>
            <DistanceMeters>NAN</DistanceMeters>
          </Trackpoint>
          <Trackpoint>
            <Time>2022-07-07T14:05:27.000Z</Time>
            <Position>
              <LatitudeDegrees>43.4945788420736789703369140625</LatitudeDegrees>
              <LongitudeDegrees>-1.4780297689139842987060546875</LongitudeDegrees>
            </Position>
            <AltitudeMeters>16</AltitudeMeters>
            <DistanceMeters>NAN</DistanceMeters>
          </Trackpoint>
          <Trackpoint>
            <Time>2022-07-07T14:05:29.000Z</Time>
            <Position>
              <LatitudeDegrees>43.494570963084697723388671875</LatitudeDegrees>
              <LongitudeDegrees>-1.47800772450864315032958984375</LongitudeDegrees>
            </Position>
            <AltitudeMeters>15.6000003814697265625</AltitudeMeters>
            <DistanceMeters>NAN</DistanceMeters>
          </Trackpoint>
          <Trackpoint>
            <Time>2022-07-07T14:05:30.000Z</Time>
            <Position>
              <LatitudeDegrees>43.49457322619855403900146484375</LatitudeDegrees>
              <LongitudeDegrees>-1.477997414767742156982421875</LongitudeDegrees>
            </Position>
            <AltitudeMeters>15.3999996185302734375</AltitudeMeters>
            <DistanceMeters>NAN</DistanceMeters>
          </Trackpoint>
          <Trackpoint>
            <Time>2022-07-07T14:05:31.000Z</Time>
            <Position>
              <LatitudeDegrees>43.494572974741458892822265625</LatitudeDegrees>
              <LongitudeDegrees>-1.47798291407525539398193359375</LongitudeDegrees>
            </Position>
            <AltitudeMeters>15.19999980926513671875</AltitudeMeters>
            <DistanceMeters>NAN</DistanceMeters>
          </Trackpoint>
          <Trackpoint>
            <Time>2022-07-07T14:05:32.000Z</Time>
            <Position>
              <LatitudeDegrees>43.49456928670406341552734375</LatitudeDegrees>
              <LongitudeDegrees>-1.4779704250395298004150390625</LongitudeDegrees>
            </Position>
            <AltitudeMeters>15</AltitudeMeters>
            <DistanceMeters>NAN</DistanceMeters>
          </Trackpoint>
          <Trackpoint>
            <Time>2022-07-07T14:05:39.000Z</Time>
            <Position>
              <LatitudeDegrees>43.49453634582459926605224609375</LatitudeDegrees>
              <LongitudeDegrees>-1.47786992602050304412841796875</LongitudeDegrees>
            </Position>
            <AltitudeMeters>14.80000019073486328125</AltitudeMeters>
            <DistanceMeters>NAN</DistanceMeters>
          </Trackpoint>
          <Trackpoint>
            <Time>2022-07-07T14:05:41.000Z</Time>
            <Position>
              <LatitudeDegrees>43.49453039467334747314453125</LatitudeDegrees>
              <LongitudeDegrees>-1.477836482226848602294921875</LongitudeDegrees>
            </Position>
            <AltitudeMeters>14.6000003814697265625</AltitudeMeters>
            <DistanceMeters>NAN</DistanceMeters>
          </Trackpoint>
          <Trackpoint>
            <Time>2022-07-07T14:05:43.000Z</Time>
            <Position>
              <LatitudeDegrees>43.49453986622393131256103515625</LatitudeDegrees>
              <LongitudeDegrees>-1.4778180420398712158203125</LongitudeDegrees>
            </Position>
            <AltitudeMeters>14.3999996185302734375</AltitudeMeters>
            <DistanceMeters>NAN</DistanceMeters>
          </Trackpoint>
          <Trackpoint>
            <Time>2022-07-07T14:05:44.000Z</Time>
            <Position>
              <LatitudeDegrees>43.49454388953745365142822265625</LatitudeDegrees>
              <LongitudeDegrees>-1.4778118394315242767333984375</LongitudeDegrees>
            </Position>
            <AltitudeMeters>14.3999996185302734375</AltitudeMeters>
            <DistanceMeters>NAN</DistanceMeters>
          </Trackpoint>
          <Trackpoint>
            <Time>2022-07-07T14:05:47.000Z</Time>
            <Position>
              <LatitudeDegrees>43.4945429675281047821044921875</LatitudeDegrees>
              <LongitudeDegrees>-1.477804966270923614501953125</LongitudeDegrees>
            </Position>
            <AltitudeMeters>14.3999996185302734375</AltitudeMeters>
            <DistanceMeters>NAN</DistanceMeters>
          </Trackpoint>
          <Trackpoint>
            <Time>2022-07-07T14:06:09.000Z</Time>
            <Position>
              <LatitudeDegrees>43.494608514010906219482421875</LatitudeDegrees>
              <LongitudeDegrees>-1.47786556743085384368896484375</LongitudeDegrees>
            </Position>
            <AltitudeMeters>14.6000003814697265625</AltitudeMeters>
            <DistanceMeters>NAN</DistanceMeters>
          </Trackpoint>
          <Trackpoint>
            <Time>2022-07-07T14:06:16.000Z</Time>
            <Position>
              <LatitudeDegrees>43.49472544156014919281005859375</LatitudeDegrees>
              <LongitudeDegrees>-1.47802398540079593658447265625</LongitudeDegrees>
            </Position>
            <AltitudeMeters>14.3999996185302734375</AltitudeMeters>
            <DistanceMeters>NAN</DistanceMeters>
          </Trackpoint>
          <Trackpoint>
            <Time>2022-07-07T14:06:19.000Z</Time>
            <Position>
              <LatitudeDegrees>43.49474740214645862579345703125</LatitudeDegrees>
              <LongitudeDegrees>-1.47805952467024326324462890625</LongitudeDegrees>
            </Position>
            <AltitudeMeters>14.3999996185302734375</AltitudeMeters>
            <DistanceMeters>NAN</DistanceMeters>
          </Trackpoint>
          <Trackpoint>
            <Time>2022-07-07T14:06:21.000Z</Time>
            <Position>
              <LatitudeDegrees>43.49477170966565608978271484375</LatitudeDegrees>
              <LongitudeDegrees>-1.47804670035839080810546875</LongitudeDegrees>
            </Position>
            <AltitudeMeters>14.3999996185302734375</AltitudeMeters>
            <DistanceMeters>NAN</DistanceMeters>
          </Trackpoint>
          <Trackpoint>
            <Time>2022-07-07T14:06:27.000Z</Time>
            <Position>
              <LatitudeDegrees>43.4948520921170711517333984375</LatitudeDegrees>
              <LongitudeDegrees>-1.4778845943510532379150390625</LongitudeDegrees>
            </Position>
            <AltitudeMeters>14</AltitudeMeters>
            <DistanceMeters>NAN</DistanceMeters>
          </Trackpoint>
          <Trackpoint>
            <Time>2022-07-07T14:06:29.000Z</Time>
            <Position>
              <LatitudeDegrees>43.4948899783194065093994140625</LatitudeDegrees>
              <LongitudeDegrees>-1.47785869427025318145751953125</LongitudeDegrees>
            </Position>
            <AltitudeMeters>14</AltitudeMeters>
            <DistanceMeters>NAN</DistanceMeters>
          </Trackpoint>
          <Trackpoint>
            <Time>2022-07-07T14:06:31.000Z</Time>
            <Position>
              <LatitudeDegrees>43.49493264220654964447021484375</LatitudeDegrees>
              <LongitudeDegrees>-1.47787478752434253692626953125</LongitudeDegrees>
            </Position>
            <AltitudeMeters>13.80000019073486328125</AltitudeMeters>
            <DistanceMeters>NAN</DistanceMeters>
          </Trackpoint>
          <Trackpoint>
            <Time>2022-07-07T14:06:38.000Z</Time>
            <Position>
              <LatitudeDegrees>43.49511654116213321685791015625</LatitudeDegrees>
              <LongitudeDegrees>-1.4779613725841045379638671875</LongitudeDegrees>
            </Position>
            <AltitudeMeters>13.80000019073486328125</AltitudeMeters>
            <DistanceMeters>NAN</DistanceMeters>
          </Trackpoint>
          <Trackpoint>
            <Time>2022-07-07T14:06:41.000Z</Time>
            <Position>
              <LatitudeDegrees>43.49517554976046085357666015625</LatitudeDegrees>
              <LongitudeDegrees>-1.4780210517346858978271484375</LongitudeDegrees>
            </Position>
            <AltitudeMeters>13.80000019073486328125</AltitudeMeters>
            <DistanceMeters>NAN</DistanceMeters>
          </Trackpoint>
          <Trackpoint>
            <Time>2022-07-07T14:06:43.000Z</Time>
            <Position>
              <LatitudeDegrees>43.4952125139534473419189453125</LatitudeDegrees>
              <LongitudeDegrees>-1.478010825812816619873046875</LongitudeDegrees>
            </Position>
            <AltitudeMeters>13.80000019073486328125</AltitudeMeters>
            <DistanceMeters>NAN</DistanceMeters>
          </Trackpoint>
          <Trackpoint>
            <Time>2022-07-07T14:06:44.000Z</Time>
            <Position>
              <LatitudeDegrees>43.49523304961621761322021484375</LatitudeDegrees>
              <LongitudeDegrees>-1.47798442281782627105712890625</LongitudeDegrees>
            </Position>
            <AltitudeMeters>13.80000019073486328125</AltitudeMeters>
            <DistanceMeters>NAN</DistanceMeters>
          </Trackpoint>
          <Trackpoint>
            <Time>2022-07-07T14:06:47.000Z</Time>
            <Position>
              <LatitudeDegrees>43.49526800215244293212890625</LatitudeDegrees>
              <LongitudeDegrees>-1.47787545807659626007080078125</LongitudeDegrees>
            </Position>
            <AltitudeMeters>13.80000019073486328125</AltitudeMeters>
            <DistanceMeters>NAN</DistanceMeters>
          </Trackpoint>
          <Trackpoint>
            <Time>2022-07-07T14:06:52.000Z</Time>
            <Position>
              <LatitudeDegrees>43.495281077921390533447265625</LatitudeDegrees>
              <LongitudeDegrees>-1.47779415361583232879638671875</LongitudeDegrees>
            </Position>
            <AltitudeMeters>13.6000003814697265625</AltitudeMeters>
            <DistanceMeters>NAN</DistanceMeters>
          </Trackpoint>
          <Trackpoint>
            <Time>2022-07-07T14:06:53.000Z</Time>
            <Position>
              <LatitudeDegrees>43.49528702907264232635498046875</LatitudeDegrees>
              <LongitudeDegrees>-1.477796919643878936767578125</LongitudeDegrees>
            </Position>
            <AltitudeMeters>13.3999996185302734375</AltitudeMeters>
            <DistanceMeters>NAN</DistanceMeters>
          </Trackpoint>
          <Trackpoint>
            <Time>2022-07-07T14:06:56.000Z</Time>
            <Position>
              <LatitudeDegrees>43.4953399188816547393798828125</LatitudeDegrees>
              <LongitudeDegrees>-1.47781142033636569976806640625</LongitudeDegrees>
            </Position>
            <AltitudeMeters>13</AltitudeMeters>
            <DistanceMeters>NAN</DistanceMeters>
          </Trackpoint>
          <Trackpoint>
            <Time>2022-07-07T14:06:59.000Z</Time>
            <Position>
              <LatitudeDegrees>43.4953912161290645599365234375</LatitudeDegrees>
              <LongitudeDegrees>-1.477851234376430511474609375</LongitudeDegrees>
            </Position>
            <AltitudeMeters>12.80000019073486328125</AltitudeMeters>
            <DistanceMeters>NAN</DistanceMeters>
          </Trackpoint>
          <Trackpoint>
            <Time>2022-07-07T14:07:03.000Z</Time>
            <Position>
              <LatitudeDegrees>43.49537260830402374267578125</LatitudeDegrees>
              <LongitudeDegrees>-1.47797218523919582366943359375</LongitudeDegrees>
            </Position>
            <AltitudeMeters>13.19999980926513671875</AltitudeMeters>
            <DistanceMeters>NAN</DistanceMeters>
          </Trackpoint>
          <Trackpoint>
            <Time>2022-07-07T14:07:09.000Z</Time>
            <Position>
              <LatitudeDegrees>43.4953357279300689697265625</LatitudeDegrees>
              <LongitudeDegrees>-1.47820889018476009368896484375</LongitudeDegrees>
            </Position>
            <AltitudeMeters>13.80000019073486328125</AltitudeMeters>
            <DistanceMeters>NAN</DistanceMeters>
          </Trackpoint>
          <Trackpoint>
            <Time>2022-07-07T14:07:13.000Z</Time>
            <Position>
              <LatitudeDegrees>43.4953089058399200439453125</LatitudeDegrees>
              <LongitudeDegrees>-1.47831768728792667388916015625</LongitudeDegrees>
            </Position>
            <AltitudeMeters>13.80000019073486328125</AltitudeMeters>
            <DistanceMeters>NAN</DistanceMeters>
          </Trackpoint>
          <Trackpoint>
            <Time>2022-07-07T14:07:14.000Z</Time>
            <Position>
              <LatitudeDegrees>43.49529943428933620452880859375</LatitudeDegrees>
              <LongitudeDegrees>-1.4783491194248199462890625</LongitudeDegrees>
            </Position>
            <AltitudeMeters>13.80000019073486328125</AltitudeMeters>
            <DistanceMeters>NAN</DistanceMeters>
          </Trackpoint>
          <Trackpoint>
            <Time>2022-07-07T14:07:20.000Z</Time>
            <Position>
              <LatitudeDegrees>43.49528904072940349578857421875</LatitudeDegrees>
              <LongitudeDegrees>-1.47859252989292144775390625</LongitudeDegrees>
            </Position>
            <AltitudeMeters>13.6000003814697265625</AltitudeMeters>
            <DistanceMeters>NAN</DistanceMeters>
          </Trackpoint>
          <Trackpoint>
            <Time>2022-07-07T14:07:25.000Z</Time>
            <Position>
              <LatitudeDegrees>43.495362214744091033935546875</LatitudeDegrees>
              <LongitudeDegrees>-1.4788324199616909027099609375</LongitudeDegrees>
            </Position>
            <AltitudeMeters>13.6000003814697265625</AltitudeMeters>
            <DistanceMeters>NAN</DistanceMeters>
          </Trackpoint>
          <Trackpoint>
            <Time>2022-07-07T14:07:31.000Z</Time>
            <Position>
              <LatitudeDegrees>43.4954602830111980438232421875</LatitudeDegrees>
              <LongitudeDegrees>-1.47910625673830509185791015625</LongitudeDegrees>
            </Position>
            <AltitudeMeters>13.6000003814697265625</AltitudeMeters>
            <DistanceMeters>NAN</DistanceMeters>
          </Trackpoint>
          <Trackpoint>
            <Time>2022-07-07T14:07:38.000Z</Time>
            <Position>
              <LatitudeDegrees>43.4955665655434131622314453125</LatitudeDegrees>
              <LongitudeDegrees>-1.47941253148019313812255859375</LongitudeDegrees>
            </Position>
            <AltitudeMeters>13.19999980926513671875</AltitudeMeters>
            <DistanceMeters>NAN</DistanceMeters>
          </Trackpoint>
          <Trackpoint>
            <Time>2022-07-07T14:07:46.000Z</Time>
            <Position>
              <LatitudeDegrees>43.4956782124936580657958984375</LatitudeDegrees>
              <LongitudeDegrees>-1.47976398468017578125</LongitudeDegrees>
            </Position>
            <AltitudeMeters>13.19999980926513671875</AltitudeMeters>
            <DistanceMeters>NAN</DistanceMeters>
          </Trackpoint>
          <Trackpoint>
            <Time>2022-07-07T14:07:52.000Z</Time>
            <Position>
              <LatitudeDegrees>43.49576546810567378997802734375</LatitudeDegrees>
              <LongitudeDegrees>-1.47997864522039890289306640625</LongitudeDegrees>
            </Position>
            <AltitudeMeters>12.3999996185302734375</AltitudeMeters>
            <DistanceMeters>NAN</DistanceMeters>
          </Trackpoint>
          <Trackpoint>
            <Time>2022-07-07T14:07:53.000Z</Time>
            <Position>
              <LatitudeDegrees>43.49578700959682464599609375</LatitudeDegrees>
              <LongitudeDegrees>-1.47999272681772708892822265625</LongitudeDegrees>
            </Position>
            <AltitudeMeters>12.3999996185302734375</AltitudeMeters>
            <DistanceMeters>NAN</DistanceMeters>
          </Trackpoint>
          <Trackpoint>
            <Time>2022-07-07T14:07:54.000Z</Time>
            <Position>
              <LatitudeDegrees>43.49581114947795867919921875</LatitudeDegrees>
              <LongitudeDegrees>-1.47998996078968048095703125</LongitudeDegrees>
            </Position>
            <AltitudeMeters>12.3999996185302734375</AltitudeMeters>
            <DistanceMeters>NAN</DistanceMeters>
          </Trackpoint>
          <Trackpoint>
            <Time>2022-07-07T14:07:57.000Z</Time>
            <Position>
              <LatitudeDegrees>43.4958733431994915008544921875</LatitudeDegrees>
              <LongitudeDegrees>-1.47995064966380596160888671875</LongitudeDegrees>
            </Position>
            <AltitudeMeters>12.6000003814697265625</AltitudeMeters>
            <DistanceMeters>NAN</DistanceMeters>
          </Trackpoint>
          <Trackpoint>
            <Time>2022-07-07T14:08:03.000Z</Time>
            <Position>
              <LatitudeDegrees>43.4960258938372135162353515625</LatitudeDegrees>
              <LongitudeDegrees>-1.47990438155829906463623046875</LongitudeDegrees>
            </Position>
            <AltitudeMeters>12.19999980926513671875</AltitudeMeters>
            <DistanceMeters>NAN</DistanceMeters>
          </Trackpoint>
          <Trackpoint>
            <Time>2022-07-07T14:08:04.000Z</Time>
            <Position>
              <LatitudeDegrees>43.49604659713804721832275390625</LatitudeDegrees>
              <LongitudeDegrees>-1.47991158999502658843994140625</LongitudeDegrees>
            </Position>
            <AltitudeMeters>12.19999980926513671875</AltitudeMeters>
            <DistanceMeters>NAN</DistanceMeters>
          </Trackpoint>
          <Trackpoint>
            <Time>2022-07-07T14:08:05.000Z</Time>
            <Position>
              <LatitudeDegrees>43.49606554023921489715576171875</LatitudeDegrees>
              <LongitudeDegrees>-1.47993765771389007568359375</LongitudeDegrees>
            </Position>
            <AltitudeMeters>12.19999980926513671875</AltitudeMeters>
            <DistanceMeters>NAN</DistanceMeters>
          </Trackpoint>
          <Trackpoint>
            <Time>2022-07-07T14:08:08.000Z</Time>
            <Position>
              <LatitudeDegrees>43.49611549638211727142333984375</LatitudeDegrees>
              <LongitudeDegrees>-1.48004620335996150970458984375</LongitudeDegrees>
            </Position>
            <AltitudeMeters>12.80000019073486328125</AltitudeMeters>
            <DistanceMeters>NAN</DistanceMeters>
          </Trackpoint>
          <Trackpoint>
            <Time>2022-07-07T14:08:16.000Z</Time>
            <Position>
              <LatitudeDegrees>43.4962374530732631683349609375</LatitudeDegrees>
              <LongitudeDegrees>-1.480375863611698150634765625</LongitudeDegrees>
            </Position>
            <AltitudeMeters>13.80000019073486328125</AltitudeMeters>
            <DistanceMeters>NAN</DistanceMeters>
          </Trackpoint>
          <Trackpoint>
            <Time>2022-07-07T14:08:24.000Z</Time>
            <Position>
              <LatitudeDegrees>43.49634432233870029449462890625</LatitudeDegrees>
              <LongitudeDegrees>-1.48073385469615459442138671875</LongitudeDegrees>
            </Position>
            <AltitudeMeters>14</AltitudeMeters>
            <DistanceMeters>NAN</DistanceMeters>
          </Trackpoint>
          <Trackpoint>
            <Time>2022-07-07T14:08:27.000Z</Time>
            <Position>
              <LatitudeDegrees>43.496382124722003936767578125</LatitudeDegrees>
              <LongitudeDegrees>-1.480861008167266845703125</LongitudeDegrees>
            </Position>
            <AltitudeMeters>14.3999996185302734375</AltitudeMeters>
            <DistanceMeters>NAN</DistanceMeters>
          </Trackpoint>
          <Trackpoint>
            <Time>2022-07-07T14:08:34.000Z</Time>
            <Position>
              <LatitudeDegrees>43.4964634291827678680419921875</LatitudeDegrees>
              <LongitudeDegrees>-1.48110232315957546234130859375</LongitudeDegrees>
            </Position>
            <AltitudeMeters>13.19999980926513671875</AltitudeMeters>
            <DistanceMeters>NAN</DistanceMeters>
          </Trackpoint>
          <Trackpoint>
            <Time>2022-07-07T14:08:35.000Z</Time>
            <Position>
              <LatitudeDegrees>43.49648036062717437744140625</LatitudeDegrees>
              <LongitudeDegrees>-1.4811404608190059661865234375</LongitudeDegrees>
            </Position>
            <AltitudeMeters>13</AltitudeMeters>
            <DistanceMeters>NAN</DistanceMeters>
          </Trackpoint>
          <Trackpoint>
            <Time>2022-07-07T14:08:43.000Z</Time>
            <Position>
              <LatitudeDegrees>43.49658924154937267303466796875</LatitudeDegrees>
              <LongitudeDegrees>-1.48144380189478397369384765625</LongitudeDegrees>
            </Position>
            <AltitudeMeters>13</AltitudeMeters>
            <DistanceMeters>NAN</DistanceMeters>
          </Trackpoint>
          <Trackpoint>
            <Time>2022-07-07T14:08:48.000Z</Time>
            <Position>
              <LatitudeDegrees>43.4966629184782505035400390625</LatitudeDegrees>
              <LongitudeDegrees>-1.4816406928002834320068359375</LongitudeDegrees>
            </Position>
            <AltitudeMeters>13.3999996185302734375</AltitudeMeters>
            <DistanceMeters>NAN</DistanceMeters>
          </Trackpoint>
          <Trackpoint>
            <Time>2022-07-07T14:08:51.000Z</Time>
            <Position>
              <LatitudeDegrees>43.496701307594776153564453125</LatitudeDegrees>
              <LongitudeDegrees>-1.48177404887974262237548828125</LongitudeDegrees>
            </Position>
            <AltitudeMeters>13.3999996185302734375</AltitudeMeters>
            <DistanceMeters>NAN</DistanceMeters>
          </Trackpoint>
          <Trackpoint>
            <Time>2022-07-07T14:09:00.000Z</Time>
            <Position>
              <LatitudeDegrees>43.496817648410797119140625</LatitudeDegrees>
              <LongitudeDegrees>-1.48216917179524898529052734375</LongitudeDegrees>
            </Position>
            <AltitudeMeters>13.6000003814697265625</AltitudeMeters>
            <DistanceMeters>NAN</DistanceMeters>
          </Trackpoint>
          <Trackpoint>
            <Time>2022-07-07T14:09:05.000Z</Time>
            <Position>
              <LatitudeDegrees>43.4968778304755687713623046875</LatitudeDegrees>
              <LongitudeDegrees>-1.48233613930642604827880859375</LongitudeDegrees>
            </Position>
            <AltitudeMeters>14</AltitudeMeters>
            <DistanceMeters>NAN</DistanceMeters>
          </Trackpoint>
          <Trackpoint>
            <Time>2022-07-07T14:09:07.000Z</Time>
            <Position>
              <LatitudeDegrees>43.49690959788858890533447265625</LatitudeDegrees>
              <LongitudeDegrees>-1.4824145101010799407958984375</LongitudeDegrees>
            </Position>
            <AltitudeMeters>14.19999980926513671875</AltitudeMeters>
            <DistanceMeters>NAN</DistanceMeters>
          </Trackpoint>
          <Trackpoint>
            <Time>2022-07-07T14:09:09.000Z</Time>
            <Position>
              <LatitudeDegrees>43.49694010801613330841064453125</LatitudeDegrees>
              <LongitudeDegrees>-1.4824825711548328399658203125</LongitudeDegrees>
            </Position>
            <AltitudeMeters>14</AltitudeMeters>
            <DistanceMeters>NAN</DistanceMeters>
          </Trackpoint>
          <Trackpoint>
            <Time>2022-07-07T14:09:10.000Z</Time>
            <Position>
              <LatitudeDegrees>43.4969572909176349639892578125</LatitudeDegrees>
              <LongitudeDegrees>-1.48251165635883808135986328125</LongitudeDegrees>
            </Position>
            <AltitudeMeters>14</AltitudeMeters>
            <DistanceMeters>NAN</DistanceMeters>
          </Trackpoint>
          <Trackpoint>
            <Time>2022-07-07T14:09:14.000Z</Time>
            <Position>
              <LatitudeDegrees>43.49703826010227203369140625</LatitudeDegrees>
              <LongitudeDegrees>-1.4826096408069133758544921875</LongitudeDegrees>
            </Position>
            <AltitudeMeters>13.80000019073486328125</AltitudeMeters>
            <DistanceMeters>NAN</DistanceMeters>
          </Trackpoint>
          <Trackpoint>
            <Time>2022-07-07T14:09:18.000Z</Time>
            <Position>
              <LatitudeDegrees>43.49711461924016475677490234375</LatitudeDegrees>
              <LongitudeDegrees>-1.482736878097057342529296875</LongitudeDegrees>
            </Position>
            <AltitudeMeters>13.6000003814697265625</AltitudeMeters>
            <DistanceMeters>NAN</DistanceMeters>
          </Trackpoint>
          <Trackpoint>
            <Time>2022-07-07T14:09:20.000Z</Time>
            <Position>
              <LatitudeDegrees>43.49715770222246646881103515625</LatitudeDegrees>
              <LongitudeDegrees>-1.4828138239681720733642578125</LongitudeDegrees>
            </Position>
            <AltitudeMeters>13.6000003814697265625</AltitudeMeters>
            <DistanceMeters>NAN</DistanceMeters>
          </Trackpoint>
          <Trackpoint>
            <Time>2022-07-07T14:09:21.000Z</Time>
            <Position>
              <LatitudeDegrees>43.49718351848423480987548828125</LatitudeDegrees>
              <LongitudeDegrees>-1.48286721669137477874755859375</LongitudeDegrees>
            </Position>
            <AltitudeMeters>13.80000019073486328125</AltitudeMeters>
            <DistanceMeters>NAN</DistanceMeters>
          </Trackpoint>
          <Trackpoint>
            <Time>2022-07-07T14:09:28.000Z</Time>
            <Position>
              <LatitudeDegrees>43.49731989204883575439453125</LatitudeDegrees>
              <LongitudeDegrees>-1.4831494353711605072021484375</LongitudeDegrees>
            </Position>
            <AltitudeMeters>13.19999980926513671875</AltitudeMeters>
            <DistanceMeters>NAN</DistanceMeters>
          </Trackpoint>
          <Trackpoint>
            <Time>2022-07-07T14:09:29.000Z</Time>
            <Position>
              <LatitudeDegrees>43.49734880961477756500244140625</LatitudeDegrees>
              <LongitudeDegrees>-1.483194530010223388671875</LongitudeDegrees>
            </Position>
            <AltitudeMeters>13.19999980926513671875</AltitudeMeters>
            <DistanceMeters>NAN</DistanceMeters>
          </Trackpoint>
          <Trackpoint>
            <Time>2022-07-07T14:09:33.000Z</Time>
            <Position>
              <LatitudeDegrees>43.49737730808556079864501953125</LatitudeDegrees>
              <LongitudeDegrees>-1.48332662880420684814453125</LongitudeDegrees>
            </Position>
            <AltitudeMeters>13.3999996185302734375</AltitudeMeters>
            <DistanceMeters>NAN</DistanceMeters>
          </Trackpoint>
          <Trackpoint>
            <Time>2022-07-07T14:09:39.000Z</Time>
            <Position>
              <LatitudeDegrees>43.49735341966152191162109375</LatitudeDegrees>
              <LongitudeDegrees>-1.4835091866552829742431640625</LongitudeDegrees>
            </Position>
            <AltitudeMeters>14</AltitudeMeters>
            <DistanceMeters>NAN</DistanceMeters>
          </Trackpoint>
          <Trackpoint>
            <Time>2022-07-07T14:09:45.000Z</Time>
            <Position>
              <LatitudeDegrees>43.49731964059174060821533203125</LatitudeDegrees>
              <LongitudeDegrees>-1.48376374505460262298583984375</LongitudeDegrees>
            </Position>
            <AltitudeMeters>14.19999980926513671875</AltitudeMeters>
            <DistanceMeters>NAN</DistanceMeters>
          </Trackpoint>
          <Trackpoint>
            <Time>2022-07-07T14:09:51.000Z</Time>
            <Position>
              <LatitudeDegrees>43.4973514080047607421875</LatitudeDegrees>
              <LongitudeDegrees>-1.4839862845838069915771484375</LongitudeDegrees>
            </Position>
            <AltitudeMeters>14.80000019073486328125</AltitudeMeters>
            <DistanceMeters>NAN</DistanceMeters>
          </Trackpoint>
          <Trackpoint>
            <Time>2022-07-07T14:10:01.000Z</Time>
            <Position>
              <LatitudeDegrees>43.49748845212161540985107421875</LatitudeDegrees>
              <LongitudeDegrees>-1.4843795634806156158447265625</LongitudeDegrees>
            </Position>
            <AltitudeMeters>14.6000003814697265625</AltitudeMeters>
            <DistanceMeters>NAN</DistanceMeters>
          </Trackpoint>
          <Trackpoint>
            <Time>2022-07-07T14:10:10.000Z</Time>
            <Position>
              <LatitudeDegrees>43.4976228140294551849365234375</LatitudeDegrees>
              <LongitudeDegrees>-1.48482522927224636077880859375</LongitudeDegrees>
            </Position>
            <AltitudeMeters>14.80000019073486328125</AltitudeMeters>
            <DistanceMeters>NAN</DistanceMeters>
          </Trackpoint>
          <Trackpoint>
            <Time>2022-07-07T14:10:18.000Z</Time>
            <Position>
              <LatitudeDegrees>43.497739993035793304443359375</LatitudeDegrees>
              <LongitudeDegrees>-1.48515212349593639373779296875</LongitudeDegrees>
            </Position>
            <AltitudeMeters>14.19999980926513671875</AltitudeMeters>
            <DistanceMeters>NAN</DistanceMeters>
          </Trackpoint>
          <Trackpoint>
            <Time>2022-07-07T14:10:24.000Z</Time>
            <Position>
              <LatitudeDegrees>43.4977770410478115081787109375</LatitudeDegrees>
              <LongitudeDegrees>-1.4854132197797298431396484375</LongitudeDegrees>
            </Position>
            <AltitudeMeters>14.3999996185302734375</AltitudeMeters>
            <DistanceMeters>NAN</DistanceMeters>
          </Trackpoint>
          <Trackpoint>
            <Time>2022-07-07T14:10:28.000Z</Time>
            <Position>
              <LatitudeDegrees>43.49783076904714107513427734375</LatitudeDegrees>
              <LongitudeDegrees>-1.485585384070873260498046875</LongitudeDegrees>
            </Position>
            <AltitudeMeters>14.19999980926513671875</AltitudeMeters>
            <DistanceMeters>NAN</DistanceMeters>
          </Trackpoint>
          <Trackpoint>
            <Time>2022-07-07T14:10:32.000Z</Time>
            <Position>
              <LatitudeDegrees>43.49788449704647064208984375</LatitudeDegrees>
              <LongitudeDegrees>-1.4857702888548374176025390625</LongitudeDegrees>
            </Position>
            <AltitudeMeters>14.6000003814697265625</AltitudeMeters>
            <DistanceMeters>NAN</DistanceMeters>
          </Trackpoint>
          <Trackpoint>
            <Time>2022-07-07T14:10:39.000Z</Time>
            <Position>
              <LatitudeDegrees>43.4980040229856967926025390625</LatitudeDegrees>
              <LongitudeDegrees>-1.486070863902568817138671875</LongitudeDegrees>
            </Position>
            <AltitudeMeters>14.19999980926513671875</AltitudeMeters>
            <DistanceMeters>NAN</DistanceMeters>
          </Trackpoint>
          <Trackpoint>
            <Time>2022-07-07T14:10:41.000Z</Time>
            <Position>
              <LatitudeDegrees>43.49803176708519458770751953125</LatitudeDegrees>
              <LongitudeDegrees>-1.48616365157067775726318359375</LongitudeDegrees>
            </Position>
            <AltitudeMeters>14.19999980926513671875</AltitudeMeters>
            <DistanceMeters>NAN</DistanceMeters>
          </Trackpoint>
          <Trackpoint>
            <Time>2022-07-07T14:10:50.000Z</Time>
            <Position>
              <LatitudeDegrees>43.49816101603209972381591796875</LatitudeDegrees>
              <LongitudeDegrees>-1.48658107034862041473388671875</LongitudeDegrees>
            </Position>
            <AltitudeMeters>13.80000019073486328125</AltitudeMeters>
            <DistanceMeters>NAN</DistanceMeters>
          </Trackpoint>
          <Trackpoint>
            <Time>2022-07-07T14:10:55.000Z</Time>
            <Position>
              <LatitudeDegrees>43.49827165715396404266357421875</LatitudeDegrees>
              <LongitudeDegrees>-1.4867546595633029937744140625</LongitudeDegrees>
            </Position>
            <AltitudeMeters>13.6000003814697265625</AltitudeMeters>
            <DistanceMeters>NAN</DistanceMeters>
          </Trackpoint>
          <Trackpoint>
            <Time>2022-07-07T14:10:59.000Z</Time>
            <Position>
              <LatitudeDegrees>43.4983505308628082275390625</LatitudeDegrees>
              <LongitudeDegrees>-1.4869068749248981475830078125</LongitudeDegrees>
            </Position>
            <AltitudeMeters>13.6000003814697265625</AltitudeMeters>
            <DistanceMeters>NAN</DistanceMeters>
          </Trackpoint>
          <Trackpoint>
            <Time>2022-07-07T14:11:02.000Z</Time>
            <Position>
              <LatitudeDegrees>43.49841448478400707244873046875</LatitudeDegrees>
              <LongitudeDegrees>-1.4869809709489345550537109375</LongitudeDegrees>
            </Position>
            <AltitudeMeters>13.3999996185302734375</AltitudeMeters>
            <DistanceMeters>NAN</DistanceMeters>
          </Trackpoint>
          <Trackpoint>
            <Time>2022-07-07T14:11:07.000Z</Time>
            <Position>
              <LatitudeDegrees>43.498458825051784515380859375</LatitudeDegrees>
              <LongitudeDegrees>-1.48705632425844669342041015625</LongitudeDegrees>
            </Position>
            <AltitudeMeters>13.6000003814697265625</AltitudeMeters>
            <DistanceMeters>NAN</DistanceMeters>
          </Trackpoint>
          <Trackpoint>
            <Time>2022-07-07T14:11:09.000Z</Time>
            <Position>
              <LatitudeDegrees>43.49846377037465572357177734375</LatitudeDegrees>
              <LongitudeDegrees>-1.48707543499767780303955078125</LongitudeDegrees>
            </Position>
            <AltitudeMeters>13.6000003814697265625</AltitudeMeters>
            <DistanceMeters>NAN</DistanceMeters>
          </Trackpoint>
          <Trackpoint>
            <Time>2022-07-07T14:11:13.000Z</Time>
            <Position>
              <LatitudeDegrees>43.49847114644944667816162109375</LatitudeDegrees>
              <LongitudeDegrees>-1.4871908538043498992919921875</LongitudeDegrees>
            </Position>
            <AltitudeMeters>13.6000003814697265625</AltitudeMeters>
            <DistanceMeters>NAN</DistanceMeters>
          </Trackpoint>
          <Trackpoint>
            <Time>2022-07-07T14:11:17.000Z</Time>
            <Position>
              <LatitudeDegrees>43.4985060989856719970703125</LatitudeDegrees>
              <LongitudeDegrees>-1.48736645467579364776611328125</LongitudeDegrees>
            </Position>
            <AltitudeMeters>13.6000003814697265625</AltitudeMeters>
            <DistanceMeters>NAN</DistanceMeters>
          </Trackpoint>
          <Trackpoint>
            <Time>2022-07-07T14:11:18.000Z</Time>
            <Position>
              <LatitudeDegrees>43.49852261133491992950439453125</LatitudeDegrees>
              <LongitudeDegrees>-1.4874087832868099212646484375</LongitudeDegrees>
            </Position>
            <AltitudeMeters>13.6000003814697265625</AltitudeMeters>
            <DistanceMeters>NAN</DistanceMeters>
          </Trackpoint>
          <Trackpoint>
            <Time>2022-07-07T14:11:25.000Z</Time>
            <Position>
              <LatitudeDegrees>43.49865294992923736572265625</LatitudeDegrees>
              <LongitudeDegrees>-1.48769871331751346588134765625</LongitudeDegrees>
            </Position>
            <AltitudeMeters>13.3999996185302734375</AltitudeMeters>
            <DistanceMeters>NAN</DistanceMeters>
          </Trackpoint>
          <Trackpoint>
            <Time>2022-07-07T14:11:30.000Z</Time>
            <Position>
              <LatitudeDegrees>43.49873702041804790496826171875</LatitudeDegrees>
              <LongitudeDegrees>-1.48784975521266460418701171875</LongitudeDegrees>
            </Position>
            <AltitudeMeters>13</AltitudeMeters>
            <DistanceMeters>NAN</DistanceMeters>
          </Trackpoint>
          <Trackpoint>
            <Time>2022-07-07T14:11:33.000Z</Time>
            <Position>
              <LatitudeDegrees>43.498785383999347686767578125</LatitudeDegrees>
              <LongitudeDegrees>-1.48793055675923824310302734375</LongitudeDegrees>
            </Position>
            <AltitudeMeters>12.80000019073486328125</AltitudeMeters>
            <DistanceMeters>NAN</DistanceMeters>
          </Trackpoint>
          <Trackpoint>
            <Time>2022-07-07T14:11:40.000Z</Time>
            <Position>
              <LatitudeDegrees>43.498942963778972625732421875</LatitudeDegrees>
              <LongitudeDegrees>-1.48814857006072998046875</LongitudeDegrees>
            </Position>
            <AltitudeMeters>13</AltitudeMeters>
            <DistanceMeters>NAN</DistanceMeters>
          </Trackpoint>
          <Trackpoint>
            <Time>2022-07-07T14:11:44.000Z</Time>
            <Position>
              <LatitudeDegrees>43.499004654586315155029296875</LatitudeDegrees>
              <LongitudeDegrees>-1.488313861191272735595703125</LongitudeDegrees>
            </Position>
            <AltitudeMeters>13</AltitudeMeters>
            <DistanceMeters>NAN</DistanceMeters>
          </Trackpoint>
          <Trackpoint>
            <Time>2022-07-07T14:11:49.000Z</Time>
            <Position>
              <LatitudeDegrees>43.49909442476928234100341796875</LatitudeDegrees>
              <LongitudeDegrees>-1.4884610474109649658203125</LongitudeDegrees>
            </Position>
            <AltitudeMeters>13.19999980926513671875</AltitudeMeters>
            <DistanceMeters>NAN</DistanceMeters>
          </Trackpoint>
          <Trackpoint>
            <Time>2022-07-07T14:11:54.000Z</Time>
            <Position>
              <LatitudeDegrees>43.4991831891238689422607421875</LatitudeDegrees>
              <LongitudeDegrees>-1.48866154253482818603515625</LongitudeDegrees>
            </Position>
            <AltitudeMeters>13</AltitudeMeters>
            <DistanceMeters>NAN</DistanceMeters>
          </Trackpoint>
          <Trackpoint>
            <Time>2022-07-07T14:11:57.000Z</Time>
            <Position>
              <LatitudeDegrees>43.4992302954196929931640625</LatitudeDegrees>
              <LongitudeDegrees>-1.4887695014476776123046875</LongitudeDegrees>
            </Position>
            <AltitudeMeters>13.19999980926513671875</AltitudeMeters>
            <DistanceMeters>NAN</DistanceMeters>
          </Trackpoint>
          <Trackpoint>
            <Time>2022-07-07T14:12:01.000Z</Time>
            <Position>
              <LatitudeDegrees>43.49930212832987308502197265625</LatitudeDegrees>
              <LongitudeDegrees>-1.4889319427311420440673828125</LongitudeDegrees>
            </Position>
            <AltitudeMeters>13.3999996185302734375</AltitudeMeters>
            <DistanceMeters>NAN</DistanceMeters>
          </Trackpoint>
          <Trackpoint>
            <Time>2022-07-07T14:12:02.000Z</Time>
            <Position>
              <LatitudeDegrees>43.4993236698210239410400390625</LatitudeDegrees>
              <LongitudeDegrees>-1.48896270431578159332275390625</LongitudeDegrees>
            </Position>
            <AltitudeMeters>13.3999996185302734375</AltitudeMeters>
            <DistanceMeters>NAN</DistanceMeters>
          </Trackpoint>
          <Trackpoint>
            <Time>2022-07-07T14:12:10.000Z</Time>
            <Position>
              <LatitudeDegrees>43.4994423575699329376220703125</LatitudeDegrees>
              <LongitudeDegrees>-1.489234864711761474609375</LongitudeDegrees>
            </Position>
            <AltitudeMeters>13.3999996185302734375</AltitudeMeters>
            <DistanceMeters>NAN</DistanceMeters>
          </Trackpoint>
          <Trackpoint>
            <Time>2022-07-07T14:12:18.000Z</Time>
            <Position>
              <LatitudeDegrees>43.49955945275723934173583984375</LatitudeDegrees>
              <LongitudeDegrees>-1.4895072765648365020751953125</LongitudeDegrees>
            </Position>
            <AltitudeMeters>13.6000003814697265625</AltitudeMeters>
            <DistanceMeters>NAN</DistanceMeters>
          </Trackpoint>
          <Trackpoint>
            <Time>2022-07-07T14:12:20.000Z</Time>
            <Position>
              <LatitudeDegrees>43.49959113635122776031494140625</LatitudeDegrees>
              <LongitudeDegrees>-1.48957625962793827056884765625</LongitudeDegrees>
            </Position>
            <AltitudeMeters>13.6000003814697265625</AltitudeMeters>
            <DistanceMeters>NAN</DistanceMeters>
          </Trackpoint>
          <Trackpoint>
            <Time>2022-07-07T14:12:25.000Z</Time>
            <Position>
              <LatitudeDegrees>43.49967093206942081451416015625</LatitudeDegrees>
              <LongitudeDegrees>-1.48972763679921627044677734375</LongitudeDegrees>
            </Position>
            <AltitudeMeters>13.3999996185302734375</AltitudeMeters>
            <DistanceMeters>NAN</DistanceMeters>
          </Trackpoint>
          <Trackpoint>
            <Time>2022-07-07T14:12:28.000Z</Time>
            <Position>
              <LatitudeDegrees>43.4997179545462131500244140625</LatitudeDegrees>
              <LongitudeDegrees>-1.489819921553134918212890625</LongitudeDegrees>
            </Position>
            <AltitudeMeters>13.19999980926513671875</AltitudeMeters>
            <DistanceMeters>NAN</DistanceMeters>
          </Trackpoint>
          <Trackpoint>
            <Time>2022-07-07T14:12:35.000Z</Time>
            <Position>
              <LatitudeDegrees>43.49986891262233257293701171875</LatitudeDegrees>
              <LongitudeDegrees>-1.49008856154978275299072265625</LongitudeDegrees>
            </Position>
            <AltitudeMeters>13.3999996185302734375</AltitudeMeters>
            <DistanceMeters>NAN</DistanceMeters>
          </Trackpoint>
          <Trackpoint>
            <Time>2022-07-07T14:12:38.000Z</Time>
            <Position>
              <LatitudeDegrees>43.49992792122066020965576171875</LatitudeDegrees>
              <LongitudeDegrees>-1.4902126975357532501220703125</LongitudeDegrees>
            </Position>
            <AltitudeMeters>14.19999980926513671875</AltitudeMeters>
            <DistanceMeters>NAN</DistanceMeters>
          </Trackpoint>
          <Trackpoint>
            <Time>2022-07-07T14:12:44.000Z</Time>
            <Position>
              <LatitudeDegrees>43.50005700252950191497802734375</LatitudeDegrees>
              <LongitudeDegrees>-1.4904644899070262908935546875</LongitudeDegrees>
            </Position>
            <AltitudeMeters>14.3999996185302734375</AltitudeMeters>
            <DistanceMeters>NAN</DistanceMeters>
          </Trackpoint>
          <Trackpoint>
            <Time>2022-07-07T14:12:45.000Z</Time>
            <Position>
              <LatitudeDegrees>43.50007527507841587066650390625</LatitudeDegrees>
              <LongitudeDegrees>-1.49050480686128139495849609375</LongitudeDegrees>
            </Position>
            <AltitudeMeters>14.3999996185302734375</AltitudeMeters>
            <DistanceMeters>NAN</DistanceMeters>
          </Trackpoint>
          <Trackpoint>
            <Time>2022-07-07T14:12:56.000Z</Time>
            <Position>
              <LatitudeDegrees>43.50029571913182735443115234375</LatitudeDegrees>
              <LongitudeDegrees>-1.49087679572403430938720703125</LongitudeDegrees>
            </Position>
            <AltitudeMeters>14.3999996185302734375</AltitudeMeters>
            <DistanceMeters>NAN</DistanceMeters>
          </Trackpoint>
          <Trackpoint>
            <Time>2022-07-07T14:13:06.000Z</Time>
            <Position>
              <LatitudeDegrees>43.500503003597259521484375</LatitudeDegrees>
              <LongitudeDegrees>-1.49124643765389919281005859375</LongitudeDegrees>
            </Position>
            <AltitudeMeters>14.6000003814697265625</AltitudeMeters>
            <DistanceMeters>NAN</DistanceMeters>
          </Trackpoint>
          <Trackpoint>
            <Time>2022-07-07T14:13:15.000Z</Time>
            <Position>
              <LatitudeDegrees>43.50066368468105792999267578125</LatitudeDegrees>
              <LongitudeDegrees>-1.49157576262950897216796875</LongitudeDegrees>
            </Position>
            <AltitudeMeters>14.80000019073486328125</AltitudeMeters>
            <DistanceMeters>NAN</DistanceMeters>
          </Trackpoint>
          <Trackpoint>
            <Time>2022-07-07T14:13:20.000Z</Time>
            <Position>
              <LatitudeDegrees>43.50075219757854938507080078125</LatitudeDegrees>
              <LongitudeDegrees>-1.49174868129193782806396484375</LongitudeDegrees>
            </Position>
            <AltitudeMeters>14.19999980926513671875</AltitudeMeters>
            <DistanceMeters>NAN</DistanceMeters>
          </Trackpoint>
          <Trackpoint>
            <Time>2022-07-07T14:13:22.000Z</Time>
            <Position>
              <LatitudeDegrees>43.50079176016151905059814453125</LatitudeDegrees>
              <LongitudeDegrees>-1.491806767880916595458984375</LongitudeDegrees>
            </Position>
            <AltitudeMeters>14</AltitudeMeters>
            <DistanceMeters>NAN</DistanceMeters>
          </Trackpoint>
          <Trackpoint>
            <Time>2022-07-07T14:13:28.000Z</Time>
            <Position>
              <LatitudeDegrees>43.50090575404465198516845703125</LatitudeDegrees>
              <LongitudeDegrees>-1.49199284613132476806640625</LongitudeDegrees>
            </Position>
            <AltitudeMeters>14</AltitudeMeters>
            <DistanceMeters>NAN</DistanceMeters>
          </Trackpoint>
          <Trackpoint>
            <Time>2022-07-07T14:13:31.000Z</Time>
            <Position>
              <LatitudeDegrees>43.500978089869022369384765625</LatitudeDegrees>
              <LongitudeDegrees>-1.49208764545619487762451171875</LongitudeDegrees>
            </Position>
            <AltitudeMeters>14</AltitudeMeters>
            <DistanceMeters>NAN</DistanceMeters>
          </Trackpoint>
          <Trackpoint>
            <Time>2022-07-07T14:13:40.000Z</Time>
            <Position>
              <LatitudeDegrees>43.50118621252477169036865234375</LatitudeDegrees>
              <LongitudeDegrees>-1.49238671176135540008544921875</LongitudeDegrees>
            </Position>
            <AltitudeMeters>14.80000019073486328125</AltitudeMeters>
            <DistanceMeters>NAN</DistanceMeters>
          </Trackpoint>
          <Trackpoint>
            <Time>2022-07-07T14:13:42.000Z</Time>
            <Position>
              <LatitudeDegrees>43.501239605247974395751953125</LatitudeDegrees>
              <LongitudeDegrees>-1.4924513362348079681396484375</LongitudeDegrees>
            </Position>
            <AltitudeMeters>15</AltitudeMeters>
            <DistanceMeters>NAN</DistanceMeters>
          </Trackpoint>
          <Trackpoint>
            <Time>2022-07-07T14:13:46.000Z</Time>
            <Position>
              <LatitudeDegrees>43.50135468877851963043212890625</LatitudeDegrees>
              <LongitudeDegrees>-1.4925663359463214874267578125</LongitudeDegrees>
            </Position>
            <AltitudeMeters>14.19999980926513671875</AltitudeMeters>
            <DistanceMeters>NAN</DistanceMeters>
          </Trackpoint>
          <Trackpoint>
            <Time>2022-07-07T14:13:51.000Z</Time>
            <Position>
              <LatitudeDegrees>43.501502461731433868408203125</LatitudeDegrees>
              <LongitudeDegrees>-1.492733471095561981201171875</LongitudeDegrees>
            </Position>
            <AltitudeMeters>14</AltitudeMeters>
            <DistanceMeters>NAN</DistanceMeters>
          </Trackpoint>
          <Trackpoint>
            <Time>2022-07-07T14:14:01.000Z</Time>
            <Position>
              <LatitudeDegrees>43.5017916373908519744873046875</LatitudeDegrees>
              <LongitudeDegrees>-1.4930441044270992279052734375</LongitudeDegrees>
            </Position>
            <AltitudeMeters>14.3999996185302734375</AltitudeMeters>
            <DistanceMeters>NAN</DistanceMeters>
          </Trackpoint>
          <Trackpoint>
            <Time>2022-07-07T14:14:08.000Z</Time>
            <Position>
              <LatitudeDegrees>43.50199556909501552581787109375</LatitudeDegrees>
              <LongitudeDegrees>-1.493257842957973480224609375</LongitudeDegrees>
            </Position>
            <AltitudeMeters>14.3999996185302734375</AltitudeMeters>
            <DistanceMeters>NAN</DistanceMeters>
          </Trackpoint>
          <Trackpoint>
            <Time>2022-07-07T14:14:11.000Z</Time>
            <Position>
              <LatitudeDegrees>43.50207536481320858001708984375</LatitudeDegrees>
              <LongitudeDegrees>-1.493355073034763336181640625</LongitudeDegrees>
            </Position>
            <AltitudeMeters>14.19999980926513671875</AltitudeMeters>
            <DistanceMeters>NAN</DistanceMeters>
          </Trackpoint>
          <Trackpoint>
            <Time>2022-07-07T14:14:19.000Z</Time>
            <Position>
              <LatitudeDegrees>43.50230569951236248016357421875</LatitudeDegrees>
              <LongitudeDegrees>-1.49358465336263179779052734375</LongitudeDegrees>
            </Position>
            <AltitudeMeters>14</AltitudeMeters>
            <DistanceMeters>NAN</DistanceMeters>
          </Trackpoint>
          <Trackpoint>
            <Time>2022-07-07T14:14:27.000Z</Time>
            <Position>
              <LatitudeDegrees>43.5025188513100147247314453125</LatitudeDegrees>
              <LongitudeDegrees>-1.493853628635406494140625</LongitudeDegrees>
            </Position>
            <AltitudeMeters>14.3999996185302734375</AltitudeMeters>
            <DistanceMeters>NAN</DistanceMeters>
          </Trackpoint>
          <Trackpoint>
            <Time>2022-07-07T14:14:33.000Z</Time>
            <Position>
              <LatitudeDegrees>43.5026760958135128021240234375</LatitudeDegrees>
              <LongitudeDegrees>-1.4940519444644451141357421875</LongitudeDegrees>
            </Position>
            <AltitudeMeters>14</AltitudeMeters>
            <DistanceMeters>NAN</DistanceMeters>
          </Trackpoint>
          <Trackpoint>
            <Time>2022-07-07T14:14:37.000Z</Time>
            <Position>
              <LatitudeDegrees>43.5027790255844593048095703125</LatitudeDegrees>
              <LongitudeDegrees>-1.49415931664407253265380859375</LongitudeDegrees>
            </Position>
            <AltitudeMeters>13.80000019073486328125</AltitudeMeters>
            <DistanceMeters>NAN</DistanceMeters>
          </Trackpoint>
          <Trackpoint>
            <Time>2022-07-07T14:14:41.000Z</Time>
            <Position>
              <LatitudeDegrees>43.50288522429764270782470703125</LatitudeDegrees>
              <LongitudeDegrees>-1.4942909963428974151611328125</LongitudeDegrees>
            </Position>
            <AltitudeMeters>13.80000019073486328125</AltitudeMeters>
            <DistanceMeters>NAN</DistanceMeters>
          </Trackpoint>
          <Trackpoint>
            <Time>2022-07-07T14:14:42.000Z</Time>
            <Position>
              <LatitudeDegrees>43.50290634669363498687744140625</LatitudeDegrees>
              <LongitudeDegrees>-1.4943127892911434173583984375</LongitudeDegrees>
            </Position>
            <AltitudeMeters>13.80000019073486328125</AltitudeMeters>
            <DistanceMeters>NAN</DistanceMeters>
          </Trackpoint>
          <Trackpoint>
            <Time>2022-07-07T14:14:46.000Z</Time>
            <Position>
              <LatitudeDegrees>43.5030137188732624053955078125</LatitudeDegrees>
              <LongitudeDegrees>-1.4943721331655979156494140625</LongitudeDegrees>
            </Position>
            <AltitudeMeters>13.80000019073486328125</AltitudeMeters>
            <DistanceMeters>NAN</DistanceMeters>
          </Trackpoint>
          <Trackpoint>
            <Time>2022-07-07T14:14:52.000Z</Time>
            <Position>
              <LatitudeDegrees>43.50317456759512424468994140625</LatitudeDegrees>
              <LongitudeDegrees>-1.4945370890200138092041015625</LongitudeDegrees>
            </Position>
            <AltitudeMeters>14.19999980926513671875</AltitudeMeters>
            <DistanceMeters>NAN</DistanceMeters>
          </Trackpoint>
          <Trackpoint>
            <Time>2022-07-07T14:14:59.000Z</Time>
            <Position>
              <LatitudeDegrees>43.50342552177608013153076171875</LatitudeDegrees>
              <LongitudeDegrees>-1.494782678782939910888671875</LongitudeDegrees>
            </Position>
            <AltitudeMeters>14.3999996185302734375</AltitudeMeters>
            <DistanceMeters>NAN</DistanceMeters>
          </Trackpoint>
          <Trackpoint>
            <Time>2022-07-07T14:15:06.000Z</Time>
            <Position>
              <LatitudeDegrees>43.50367429666221141815185546875</LatitudeDegrees>
              <LongitudeDegrees>-1.49495190940797328948974609375</LongitudeDegrees>
            </Position>
            <AltitudeMeters>14.6000003814697265625</AltitudeMeters>
            <DistanceMeters>NAN</DistanceMeters>
          </Trackpoint>
          <Trackpoint>
            <Time>2022-07-07T14:15:10.000Z</Time>
            <Position>
              <LatitudeDegrees>43.5037768073379993438720703125</LatitudeDegrees>
              <LongitudeDegrees>-1.495028436183929443359375</LongitudeDegrees>
            </Position>
            <AltitudeMeters>14.19999980926513671875</AltitudeMeters>
            <DistanceMeters>NAN</DistanceMeters>
          </Trackpoint>
          <Trackpoint>
            <Time>2022-07-07T14:15:11.000Z</Time>
            <Position>
              <LatitudeDegrees>43.5037868656218051910400390625</LatitudeDegrees>
              <LongitudeDegrees>-1.495038159191608428955078125</LongitudeDegrees>
            </Position>
            <AltitudeMeters>14</AltitudeMeters>
            <DistanceMeters>NAN</DistanceMeters>
          </Trackpoint>
          <Trackpoint>
            <Time>2022-07-07T14:15:13.000Z</Time>
            <Position>
              <LatitudeDegrees>43.50381779484450817108154296875</LatitudeDegrees>
              <LongitudeDegrees>-1.49506892077624797821044921875</LongitudeDegrees>
            </Position>
            <AltitudeMeters>13.80000019073486328125</AltitudeMeters>
            <DistanceMeters>NAN</DistanceMeters>
          </Trackpoint>
          <Trackpoint>
            <Time>2022-07-07T14:15:15.000Z</Time>
            <Position>
              <LatitudeDegrees>43.5038864426314830780029296875</LatitudeDegrees>
              <LongitudeDegrees>-1.4950862713158130645751953125</LongitudeDegrees>
            </Position>
            <AltitudeMeters>13.80000019073486328125</AltitudeMeters>
            <DistanceMeters>NAN</DistanceMeters>
          </Trackpoint>
          <Trackpoint>
            <Time>2022-07-07T14:15:22.000Z</Time>
            <Position>
              <LatitudeDegrees>43.50415960885584354400634765625</LatitudeDegrees>
              <LongitudeDegrees>-1.49518006481230258941650390625</LongitudeDegrees>
            </Position>
            <AltitudeMeters>14</AltitudeMeters>
            <DistanceMeters>NAN</DistanceMeters>
          </Trackpoint>
          <Trackpoint>
            <Time>2022-07-07T14:15:29.000Z</Time>
            <Position>
              <LatitudeDegrees>43.50441173650324344635009765625</LatitudeDegrees>
              <LongitudeDegrees>-1.4952723495662212371826171875</LongitudeDegrees>
            </Position>
            <AltitudeMeters>14.6000003814697265625</AltitudeMeters>
            <DistanceMeters>NAN</DistanceMeters>
          </Trackpoint>
          <Trackpoint>
            <Time>2022-07-07T14:15:33.000Z</Time>
            <Position>
              <LatitudeDegrees>43.50454886443912982940673828125</LatitudeDegrees>
              <LongitudeDegrees>-1.49532373063266277313232421875</LongitudeDegrees>
            </Position>
            <AltitudeMeters>14.6000003814697265625</AltitudeMeters>
            <DistanceMeters>NAN</DistanceMeters>
          </Trackpoint>
          <Trackpoint>
            <Time>2022-07-07T14:15:36.000Z</Time>
            <Position>
              <LatitudeDegrees>43.5046679712831974029541015625</LatitudeDegrees>
              <LongitudeDegrees>-1.49539363570511341094970703125</LongitudeDegrees>
            </Position>
            <AltitudeMeters>15</AltitudeMeters>
            <DistanceMeters>NAN</DistanceMeters>
          </Trackpoint>
          <Trackpoint>
            <Time>2022-07-07T14:15:39.000Z</Time>
            <Position>
              <LatitudeDegrees>43.50477215833961963653564453125</LatitudeDegrees>
              <LongitudeDegrees>-1.49543219245970249176025390625</LongitudeDegrees>
            </Position>
            <AltitudeMeters>15.19999980926513671875</AltitudeMeters>
            <DistanceMeters>NAN</DistanceMeters>
          </Trackpoint>
          <Trackpoint>
            <Time>2022-07-07T14:15:40.000Z</Time>
            <Position>
              <LatitudeDegrees>43.50481121800839900970458984375</LatitudeDegrees>
              <LongitudeDegrees>-1.49545331485569477081298828125</LongitudeDegrees>
            </Position>
            <AltitudeMeters>15.19999980926513671875</AltitudeMeters>
            <DistanceMeters>NAN</DistanceMeters>
          </Trackpoint>
          <Trackpoint>
            <Time>2022-07-07T14:15:47.000Z</Time>
            <Position>
              <LatitudeDegrees>43.50507155992090702056884765625</LatitudeDegrees>
              <LongitudeDegrees>-1.49564576335251331329345703125</LongitudeDegrees>
            </Position>
            <AltitudeMeters>15.19999980926513671875</AltitudeMeters>
            <DistanceMeters>NAN</DistanceMeters>
          </Trackpoint>
          <Trackpoint>
            <Time>2022-07-07T14:15:56.000Z</Time>
            <Position>
              <LatitudeDegrees>43.5053797625005245208740234375</LatitudeDegrees>
              <LongitudeDegrees>-1.4958698116242885589599609375</LongitudeDegrees>
            </Position>
            <AltitudeMeters>15</AltitudeMeters>
            <DistanceMeters>NAN</DistanceMeters>
          </Trackpoint>
          <Trackpoint>
            <Time>2022-07-07T14:16:01.000Z</Time>
            <Position>
              <LatitudeDegrees>43.50554094649851322174072265625</LatitudeDegrees>
              <LongitudeDegrees>-1.49597383104264736175537109375</LongitudeDegrees>
            </Position>
            <AltitudeMeters>15.19999980926513671875</AltitudeMeters>
            <DistanceMeters>NAN</DistanceMeters>
          </Trackpoint>
          <Trackpoint>
            <Time>2022-07-07T14:16:09.000Z</Time>
            <Position>
              <LatitudeDegrees>43.5058109275996685028076171875</LatitudeDegrees>
              <LongitudeDegrees>-1.4961675368249416351318359375</LongitudeDegrees>
            </Position>
            <AltitudeMeters>15</AltitudeMeters>
            <DistanceMeters>NAN</DistanceMeters>
          </Trackpoint>
          <Trackpoint>
            <Time>2022-07-07T14:16:17.000Z</Time>
            <Position>
              <LatitudeDegrees>43.5060704313218593597412109375</LatitudeDegrees>
              <LongitudeDegrees>-1.49637021124362945556640625</LongitudeDegrees>
            </Position>
            <AltitudeMeters>15.6000003814697265625</AltitudeMeters>
            <DistanceMeters>NAN</DistanceMeters>
          </Trackpoint>
          <Trackpoint>
            <Time>2022-07-07T14:16:26.000Z</Time>
            <Position>
              <LatitudeDegrees>43.50635784678161144256591796875</LatitudeDegrees>
              <LongitudeDegrees>-1.49659073911607265472412109375</LongitudeDegrees>
            </Position>
            <AltitudeMeters>15.3999996185302734375</AltitudeMeters>
            <DistanceMeters>NAN</DistanceMeters>
          </Trackpoint>
          <Trackpoint>
            <Time>2022-07-07T14:16:31.000Z</Time>
            <Position>
              <LatitudeDegrees>43.50646379403769969940185546875</LatitudeDegrees>
              <LongitudeDegrees>-1.49668713100254535675048828125</LongitudeDegrees>
            </Position>
            <AltitudeMeters>15.3999996185302734375</AltitudeMeters>
            <DistanceMeters>NAN</DistanceMeters>
          </Trackpoint>
          <Trackpoint>
            <Time>2022-07-07T14:16:35.000Z</Time>
            <Position>
              <LatitudeDegrees>43.50656135939061641693115234375</LatitudeDegrees>
              <LongitudeDegrees>-1.49677698500454425811767578125</LongitudeDegrees>
            </Position>
            <AltitudeMeters>15.6000003814697265625</AltitudeMeters>
            <DistanceMeters>NAN</DistanceMeters>
          </Trackpoint>
          <Trackpoint>
            <Time>2022-07-07T14:16:40.000Z</Time>
            <Position>
              <LatitudeDegrees>43.50672212429344654083251953125</LatitudeDegrees>
              <LongitudeDegrees>-1.49690556339919567108154296875</LongitudeDegrees>
            </Position>
            <AltitudeMeters>15.3999996185302734375</AltitudeMeters>
            <DistanceMeters>NAN</DistanceMeters>
          </Trackpoint>
          <Trackpoint>
            <Time>2022-07-07T14:16:46.000Z</Time>
            <Position>
              <LatitudeDegrees>43.506962098181247711181640625</LatitudeDegrees>
              <LongitudeDegrees>-1.49707487784326076507568359375</LongitudeDegrees>
            </Position>
            <AltitudeMeters>15.3999996185302734375</AltitudeMeters>
            <DistanceMeters>NAN</DistanceMeters>
          </Trackpoint>
          <Trackpoint>
            <Time>2022-07-07T14:16:47.000Z</Time>
            <Position>
              <LatitudeDegrees>43.50699621252715587615966796875</LatitudeDegrees>
              <LongitudeDegrees>-1.49710438214242458343505859375</LongitudeDegrees>
            </Position>
            <AltitudeMeters>15.3999996185302734375</AltitudeMeters>
            <DistanceMeters>NAN</DistanceMeters>
          </Trackpoint>
          <Trackpoint>
            <Time>2022-07-07T14:16:52.000Z</Time>
            <Position>
              <LatitudeDegrees>43.50716049782931804656982421875</LatitudeDegrees>
              <LongitudeDegrees>-1.49724788032472133636474609375</LongitudeDegrees>
            </Position>
            <AltitudeMeters>15.3999996185302734375</AltitudeMeters>
            <DistanceMeters>NAN</DistanceMeters>
          </Trackpoint>
          <Trackpoint>
            <Time>2022-07-07T14:16:56.000Z</Time>
            <Position>
              <LatitudeDegrees>43.50725202821195125579833984375</LatitudeDegrees>
              <LongitudeDegrees>-1.49732281453907489776611328125</LongitudeDegrees>
            </Position>
            <AltitudeMeters>15.3999996185302734375</AltitudeMeters>
            <DistanceMeters>NAN</DistanceMeters>
          </Trackpoint>
          <Trackpoint>
            <Time>2022-07-07T14:16:58.000Z</Time>
            <Position>
              <LatitudeDegrees>43.5072955302894115447998046875</LatitudeDegrees>
              <LongitudeDegrees>-1.49736338295042514801025390625</LongitudeDegrees>
            </Position>
            <AltitudeMeters>15.3999996185302734375</AltitudeMeters>
            <DistanceMeters>NAN</DistanceMeters>
          </Trackpoint>
          <Trackpoint>
            <Time>2022-07-07T14:17:03.000Z</Time>
            <Position>
              <LatitudeDegrees>43.50750558078289031982421875</LatitudeDegrees>
              <LongitudeDegrees>-1.49752490222454071044921875</LongitudeDegrees>
            </Position>
            <AltitudeMeters>15</AltitudeMeters>
            <DistanceMeters>NAN</DistanceMeters>
          </Trackpoint>
          <Trackpoint>
            <Time>2022-07-07T14:17:07.000Z</Time>
            <Position>
              <LatitudeDegrees>43.50767279975116252899169921875</LatitudeDegrees>
              <LongitudeDegrees>-1.49767703376710414886474609375</LongitudeDegrees>
            </Position>
            <AltitudeMeters>15.19999980926513671875</AltitudeMeters>
            <DistanceMeters>NAN</DistanceMeters>
          </Trackpoint>
          <Trackpoint>
            <Time>2022-07-07T14:17:11.000Z</Time>
            <Position>
              <LatitudeDegrees>43.50783943198621273040771484375</LatitudeDegrees>
              <LongitudeDegrees>-1.49780024774372577667236328125</LongitudeDegrees>
            </Position>
            <AltitudeMeters>15.80000019073486328125</AltitudeMeters>
            <DistanceMeters>NAN</DistanceMeters>
          </Trackpoint>
          <Trackpoint>
            <Time>2022-07-07T14:17:16.000Z</Time>
            <Position>
              <LatitudeDegrees>43.50803934037685394287109375</LatitudeDegrees>
              <LongitudeDegrees>-1.49792681448161602020263671875</LongitudeDegrees>
            </Position>
            <AltitudeMeters>16</AltitudeMeters>
            <DistanceMeters>NAN</DistanceMeters>
          </Trackpoint>
          <Trackpoint>
            <Time>2022-07-07T14:17:20.000Z</Time>
            <Position>
              <LatitudeDegrees>43.50818007253110408782958984375</LatitudeDegrees>
              <LongitudeDegrees>-1.4980323426425457000732421875</LongitudeDegrees>
            </Position>
            <AltitudeMeters>15.80000019073486328125</AltitudeMeters>
            <DistanceMeters>NAN</DistanceMeters>
          </Trackpoint>
          <Trackpoint>
            <Time>2022-07-07T14:17:25.000Z</Time>
            <Position>
              <LatitudeDegrees>43.50837034173309803009033203125</LatitudeDegrees>
              <LongitudeDegrees>-1.49815857410430908203125</LongitudeDegrees>
            </Position>
            <AltitudeMeters>15.80000019073486328125</AltitudeMeters>
            <DistanceMeters>NAN</DistanceMeters>
          </Trackpoint>
          <Trackpoint>
            <Time>2022-07-07T14:17:27.000Z</Time>
            <Position>
              <LatitudeDegrees>43.5084398277103900909423828125</LatitudeDegrees>
              <LongitudeDegrees>-1.4982130564749240875244140625</LongitudeDegrees>
            </Position>
            <AltitudeMeters>15.80000019073486328125</AltitudeMeters>
            <DistanceMeters>NAN</DistanceMeters>
          </Trackpoint>
          <Trackpoint>
            <Time>2022-07-07T14:17:30.000Z</Time>
            <Position>
              <LatitudeDegrees>43.5085333697497844696044921875</LatitudeDegrees>
              <LongitudeDegrees>-1.4982821233570575714111328125</LongitudeDegrees>
            </Position>
            <AltitudeMeters>15.3999996185302734375</AltitudeMeters>
            <DistanceMeters>NAN</DistanceMeters>
          </Trackpoint>
          <Trackpoint>
            <Time>2022-07-07T14:17:40.000Z</Time>
            <Position>
              <LatitudeDegrees>43.50885632447898387908935546875</LatitudeDegrees>
              <LongitudeDegrees>-1.498512960970401763916015625</LongitudeDegrees>
            </Position>
            <AltitudeMeters>15.80000019073486328125</AltitudeMeters>
            <DistanceMeters>NAN</DistanceMeters>
          </Trackpoint>
          <Trackpoint>
            <Time>2022-07-07T14:17:49.000Z</Time>
            <Position>
              <LatitudeDegrees>43.50914717651903629302978515625</LatitudeDegrees>
              <LongitudeDegrees>-1.49874874390661716461181640625</LongitudeDegrees>
            </Position>
            <AltitudeMeters>15.19999980926513671875</AltitudeMeters>
            <DistanceMeters>NAN</DistanceMeters>
          </Trackpoint>
          <Trackpoint>
            <Time>2022-07-07T14:17:56.000Z</Time>
            <Position>
              <LatitudeDegrees>43.5093395411968231201171875</LatitudeDegrees>
              <LongitudeDegrees>-1.49890800006687641143798828125</LongitudeDegrees>
            </Position>
            <AltitudeMeters>15.19999980926513671875</AltitudeMeters>
            <DistanceMeters>NAN</DistanceMeters>
          </Trackpoint>
          <Trackpoint>
            <Time>2022-07-07T14:18:00.000Z</Time>
            <Position>
              <LatitudeDegrees>43.5094521939754486083984375</LatitudeDegrees>
              <LongitudeDegrees>-1.49896751157939434051513671875</LongitudeDegrees>
            </Position>
            <AltitudeMeters>15.3999996185302734375</AltitudeMeters>
            <DistanceMeters>NAN</DistanceMeters>
          </Trackpoint>
          <Trackpoint>
            <Time>2022-07-07T14:18:05.000Z</Time>
            <Position>
              <LatitudeDegrees>43.509594686329364776611328125</LatitudeDegrees>
              <LongitudeDegrees>-1.49902400560677051544189453125</LongitudeDegrees>
            </Position>
            <AltitudeMeters>15.6000003814697265625</AltitudeMeters>
            <DistanceMeters>NAN</DistanceMeters>
          </Trackpoint>
          <Trackpoint>
            <Time>2022-07-07T14:18:10.000Z</Time>
            <Position>
              <LatitudeDegrees>43.50970272906124591827392578125</LatitudeDegrees>
              <LongitudeDegrees>-1.4990680105984210968017578125</LongitudeDegrees>
            </Position>
            <AltitudeMeters>15.19999980926513671875</AltitudeMeters>
            <DistanceMeters>NAN</DistanceMeters>
          </Trackpoint>
          <Trackpoint>
            <Time>2022-07-07T14:18:11.000Z</Time>
            <Position>
              <LatitudeDegrees>43.50971169769763946533203125</LatitudeDegrees>
              <LongitudeDegrees>-1.49906826205551624298095703125</LongitudeDegrees>
            </Position>
            <AltitudeMeters>15.19999980926513671875</AltitudeMeters>
            <DistanceMeters>NAN</DistanceMeters>
          </Trackpoint>
          <Trackpoint>
            <Time>2022-07-07T14:18:14.000Z</Time>
            <Position>
              <LatitudeDegrees>43.5097445547580718994140625</LatitudeDegrees>
              <LongitudeDegrees>-1.4990720339119434356689453125</LongitudeDegrees>
            </Position>
            <AltitudeMeters>15.19999980926513671875</AltitudeMeters>
            <DistanceMeters>NAN</DistanceMeters>
          </Trackpoint>
          <Trackpoint>
            <Time>2022-07-07T14:18:16.000Z</Time>
            <Position>
              <LatitudeDegrees>43.50974916480481624603271484375</LatitudeDegrees>
              <LongitudeDegrees>-1.49907052516937255859375</LongitudeDegrees>
            </Position>
            <AltitudeMeters>15.3999996185302734375</AltitudeMeters>
            <DistanceMeters>NAN</DistanceMeters>
          </Trackpoint>
          <Trackpoint>
            <Time>2022-07-07T14:18:21.000Z</Time>
            <Position>
              <LatitudeDegrees>43.50976592861115932464599609375</LatitudeDegrees>
              <LongitudeDegrees>-1.49906943552196025848388671875</LongitudeDegrees>
            </Position>
            <AltitudeMeters>15.6000003814697265625</AltitudeMeters>
            <DistanceMeters>NAN</DistanceMeters>
          </Trackpoint>
          <Trackpoint>
            <Time>2022-07-07T14:18:23.000Z</Time>
            <Position>
              <LatitudeDegrees>43.509761989116668701171875</LatitudeDegrees>
              <LongitudeDegrees>-1.4990599639713764190673828125</LongitudeDegrees>
            </Position>
            <AltitudeMeters>15.80000019073486328125</AltitudeMeters>
            <DistanceMeters>NAN</DistanceMeters>
          </Trackpoint>
          <Trackpoint>
            <Time>2022-07-07T14:22:06.000Z</Time>
            <Position>
              <LatitudeDegrees>43.50982409901916980743408203125</LatitudeDegrees>
              <LongitudeDegrees>-1.49921243079006671905517578125</LongitudeDegrees>
            </Position>
            <AltitudeMeters>16.799999237060546875</AltitudeMeters>
            <DistanceMeters>NAN</DistanceMeters>
          </Trackpoint>
          <Trackpoint>
            <Time>2022-07-07T14:22:08.000Z</Time>
            <Position>
              <LatitudeDegrees>43.5097799263894557952880859375</LatitudeDegrees>
              <LongitudeDegrees>-1.4992487244307994842529296875</LongitudeDegrees>
            </Position>
            <AltitudeMeters>16.799999237060546875</AltitudeMeters>
            <DistanceMeters>NAN</DistanceMeters>
          </Trackpoint>
          <Trackpoint>
            <Time>2022-07-07T14:22:13.000Z</Time>
            <Position>
              <LatitudeDegrees>43.50968462415039539337158203125</LatitudeDegrees>
              <LongitudeDegrees>-1.4993788115680217742919921875</LongitudeDegrees>
            </Position>
            <AltitudeMeters>17</AltitudeMeters>
            <DistanceMeters>NAN</DistanceMeters>
          </Trackpoint>
          <Trackpoint>
            <Time>2022-07-07T14:22:16.000Z</Time>
            <Position>
              <LatitudeDegrees>43.50967288948595523834228515625</LatitudeDegrees>
              <LongitudeDegrees>-1.49939314462244510650634765625</LongitudeDegrees>
            </Position>
            <AltitudeMeters>16.6000003814697265625</AltitudeMeters>
            <DistanceMeters>NAN</DistanceMeters>
          </Trackpoint>
          <Trackpoint>
            <Time>2022-07-07T14:22:17.000Z</Time>
            <Position>
              <LatitudeDegrees>43.509670794010162353515625</LatitudeDegrees>
              <LongitudeDegrees>-1.49939465336501598358154296875</LongitudeDegrees>
            </Position>
            <AltitudeMeters>16.6000003814697265625</AltitudeMeters>
            <DistanceMeters>NAN</DistanceMeters>
          </Trackpoint>
          <Trackpoint>
            <Time>2022-07-07T14:22:30.000Z</Time>
            <Position>
              <LatitudeDegrees>43.50969283841550350189208984375</LatitudeDegrees>
              <LongitudeDegrees>-1.4994254149496555328369140625</LongitudeDegrees>
            </Position>
            <AltitudeMeters>16.200000762939453125</AltitudeMeters>
            <DistanceMeters>NAN</DistanceMeters>
          </Trackpoint>
          <Trackpoint>
            <Time>2022-07-07T14:22:31.000Z</Time>
            <Position>
              <LatitudeDegrees>43.50969937629997730255126953125</LatitudeDegrees>
              <LongitudeDegrees>-1.4994234032928943634033203125</LongitudeDegrees>
            </Position>
            <AltitudeMeters>16.200000762939453125</AltitudeMeters>
            <DistanceMeters>NAN</DistanceMeters>
          </Trackpoint>
          <Trackpoint>
            <Time>2022-07-07T14:22:32.000Z</Time>
            <Position>
              <LatitudeDegrees>43.50971530191600322723388671875</LatitudeDegrees>
              <LongitudeDegrees>-1.49944326840341091156005859375</LongitudeDegrees>
            </Position>
            <AltitudeMeters>16.200000762939453125</AltitudeMeters>
            <DistanceMeters>NAN</DistanceMeters>
          </Trackpoint>
          <Trackpoint>
            <Time>2022-07-07T14:22:36.000Z</Time>
            <Position>
              <LatitudeDegrees>43.50971446372568607330322265625</LatitudeDegrees>
              <LongitudeDegrees>-1.499504037201404571533203125</LongitudeDegrees>
            </Position>
            <AltitudeMeters>16</AltitudeMeters>
            <DistanceMeters>NAN</DistanceMeters>
          </Trackpoint>
          <Trackpoint>
            <Time>2022-07-07T14:22:37.000Z</Time>
            <Position>
              <LatitudeDegrees>43.50970901548862457275390625</LatitudeDegrees>
              <LongitudeDegrees>-1.499495990574359893798828125</LongitudeDegrees>
            </Position>
            <AltitudeMeters>15.80000019073486328125</AltitudeMeters>
            <DistanceMeters>NAN</DistanceMeters>
          </Trackpoint>
          <Trackpoint>
            <Time>2022-07-07T14:22:41.000Z</Time>
            <Position>
              <LatitudeDegrees>43.5096464864909648895263671875</LatitudeDegrees>
              <LongitudeDegrees>-1.4994260855019092559814453125</LongitudeDegrees>
            </Position>
            <AltitudeMeters>15.80000019073486328125</AltitudeMeters>
            <DistanceMeters>NAN</DistanceMeters>
          </Trackpoint>
          <Trackpoint>
            <Time>2022-07-07T14:22:43.000Z</Time>
            <Position>
              <LatitudeDegrees>43.50963969714939594268798828125</LatitudeDegrees>
              <LongitudeDegrees>-1.49940253235399723052978515625</LongitudeDegrees>
            </Position>
            <AltitudeMeters>15.80000019073486328125</AltitudeMeters>
            <DistanceMeters>NAN</DistanceMeters>
          </Trackpoint>
          <Trackpoint>
            <Time>2022-07-07T14:22:45.000Z</Time>
            <Position>
              <LatitudeDegrees>43.509663753211498260498046875</LatitudeDegrees>
              <LongitudeDegrees>-1.49939130060374736785888671875</LongitudeDegrees>
            </Position>
            <AltitudeMeters>15.80000019073486328125</AltitudeMeters>
            <DistanceMeters>NAN</DistanceMeters>
          </Trackpoint>
          <Trackpoint>
            <Time>2022-07-07T14:22:46.000Z</Time>
            <Position>
              <LatitudeDegrees>43.509716726839542388916015625</LatitudeDegrees>
              <LongitudeDegrees>-1.49939012713730335235595703125</LongitudeDegrees>
            </Position>
            <AltitudeMeters>15.6000003814697265625</AltitudeMeters>
            <DistanceMeters>NAN</DistanceMeters>
          </Trackpoint>
          <Trackpoint>
            <Time>2022-07-07T14:22:49.000Z</Time>
            <Position>
              <LatitudeDegrees>43.5097755677998065948486328125</LatitudeDegrees>
              <LongitudeDegrees>-1.4994586072862148284912109375</LongitudeDegrees>
            </Position>
            <AltitudeMeters>15.6000003814697265625</AltitudeMeters>
            <DistanceMeters>NAN</DistanceMeters>
          </Trackpoint>
          <Trackpoint>
            <Time>2022-07-07T14:23:06.000Z</Time>
            <Position>
              <LatitudeDegrees>43.5096709616482257843017578125</LatitudeDegrees>
              <LongitudeDegrees>-1.4993593655526638031005859375</LongitudeDegrees>
            </Position>
            <AltitudeMeters>15</AltitudeMeters>
            <DistanceMeters>NAN</DistanceMeters>
          </Trackpoint>
          <Trackpoint>
            <Time>2022-07-07T14:23:07.000Z</Time>
            <Position>
              <LatitudeDegrees>43.5096598975360393524169921875</LatitudeDegrees>
              <LongitudeDegrees>-1.4993858523666858673095703125</LongitudeDegrees>
            </Position>
            <AltitudeMeters>15</AltitudeMeters>
            <DistanceMeters>NAN</DistanceMeters>
          </Trackpoint>
          <Trackpoint>
            <Time>2022-07-07T14:23:12.000Z</Time>
            <Position>
              <LatitudeDegrees>43.50974178873002529144287109375</LatitudeDegrees>
              <LongitudeDegrees>-1.49936380796134471893310546875</LongitudeDegrees>
            </Position>
            <AltitudeMeters>14.80000019073486328125</AltitudeMeters>
            <DistanceMeters>NAN</DistanceMeters>
          </Trackpoint>
          <Trackpoint>
            <Time>2022-07-07T14:23:13.000Z</Time>
            <Position>
              <LatitudeDegrees>43.50974564440548419952392578125</LatitudeDegrees>
              <LongitudeDegrees>-1.4993650652468204498291015625</LongitudeDegrees>
            </Position>
            <AltitudeMeters>14.80000019073486328125</AltitudeMeters>
            <DistanceMeters>NAN</DistanceMeters>
          </Trackpoint>
          <Trackpoint>
            <Time>2022-07-07T14:23:19.000Z</Time>
            <Position>
              <LatitudeDegrees>43.50975017063319683074951171875</LatitudeDegrees>
              <LongitudeDegrees>-1.49937604553997516632080078125</LongitudeDegrees>
            </Position>
            <AltitudeMeters>14.80000019073486328125</AltitudeMeters>
            <DistanceMeters>NAN</DistanceMeters>
          </Trackpoint>
          <Trackpoint>
            <Time>2022-07-07T14:23:20.000Z</Time>
            <Position>
              <LatitudeDegrees>43.50975587032735347747802734375</LatitudeDegrees>
              <LongitudeDegrees>-1.499383337795734405517578125</LongitudeDegrees>
            </Position>
            <AltitudeMeters>14.80000019073486328125</AltitudeMeters>
            <DistanceMeters>NAN</DistanceMeters>
          </Trackpoint>
          <Trackpoint>
            <Time>2022-07-07T14:23:21.000Z</Time>
            <Position>
              <LatitudeDegrees>43.50976609624922275543212890625</LatitudeDegrees>
              <LongitudeDegrees>-1.49938635528087615966796875</LongitudeDegrees>
            </Position>
            <AltitudeMeters>14.80000019073486328125</AltitudeMeters>
            <DistanceMeters>NAN</DistanceMeters>
          </Trackpoint>
          <Trackpoint>
            <Time>2022-07-07T14:23:24.000Z</Time>
            <Position>
              <LatitudeDegrees>43.509726785123348236083984375</LatitudeDegrees>
              <LongitudeDegrees>-1.4993432722985744476318359375</LongitudeDegrees>
            </Position>
            <AltitudeMeters>15</AltitudeMeters>
            <DistanceMeters>NAN</DistanceMeters>
          </Trackpoint>
          <Trackpoint>
            <Time>2022-07-07T14:23:25.000Z</Time>
            <Position>
              <LatitudeDegrees>43.50967389531433582305908203125</LatitudeDegrees>
              <LongitudeDegrees>-1.49932407774031162261962890625</LongitudeDegrees>
            </Position>
            <AltitudeMeters>15</AltitudeMeters>
            <DistanceMeters>NAN</DistanceMeters>
          </Trackpoint>
          <Trackpoint>
            <Time>2022-07-07T14:23:26.000Z</Time>
            <Position>
              <LatitudeDegrees>43.5096468217670917510986328125</LatitudeDegrees>
              <LongitudeDegrees>-1.49931636638939380645751953125</LongitudeDegrees>
            </Position>
            <AltitudeMeters>15</AltitudeMeters>
            <DistanceMeters>NAN</DistanceMeters>
          </Trackpoint>
          <Trackpoint>
            <Time>2022-07-07T14:23:27.000Z</Time>
            <Position>
              <LatitudeDegrees>43.50965377874672412872314453125</LatitudeDegrees>
              <LongitudeDegrees>-1.49933530949056148529052734375</LongitudeDegrees>
            </Position>
            <AltitudeMeters>14.80000019073486328125</AltitudeMeters>
            <DistanceMeters>NAN</DistanceMeters>
          </Trackpoint>
          <Trackpoint>
            <Time>2022-07-07T14:23:28.000Z</Time>
            <Position>
              <LatitudeDegrees>43.5096587240695953369140625</LatitudeDegrees>
              <LongitudeDegrees>-1.4993499778211116790771484375</LongitudeDegrees>
            </Position>
            <AltitudeMeters>14.6000003814697265625</AltitudeMeters>
            <DistanceMeters>NAN</DistanceMeters>
          </Trackpoint>
          <Trackpoint>
            <Time>2022-07-07T14:23:30.000Z</Time>
            <Position>
              <LatitudeDegrees>43.50965176708996295928955078125</LatitudeDegrees>
              <LongitudeDegrees>-1.49938275106251239776611328125</LongitudeDegrees>
            </Position>
            <AltitudeMeters>14.3999996185302734375</AltitudeMeters>
            <DistanceMeters>NAN</DistanceMeters>
          </Trackpoint>
          <Trackpoint>
            <Time>2022-07-07T14:23:31.000Z</Time>
            <Position>
              <LatitudeDegrees>43.509628884494304656982421875</LatitudeDegrees>
              <LongitudeDegrees>-1.499355174601078033447265625</LongitudeDegrees>
            </Position>
            <AltitudeMeters>14.19999980926513671875</AltitudeMeters>
            <DistanceMeters>NAN</DistanceMeters>
          </Trackpoint>
          <Trackpoint>
            <Time>2022-07-07T14:23:32.000Z</Time>
            <Position>
              <LatitudeDegrees>43.509633243083953857421875</LatitudeDegrees>
              <LongitudeDegrees>-1.4993508160114288330078125</LongitudeDegrees>
            </Position>
            <AltitudeMeters>14.19999980926513671875</AltitudeMeters>
            <DistanceMeters>NAN</DistanceMeters>
          </Trackpoint>
          <Trackpoint>
            <Time>2022-07-07T14:23:33.000Z</Time>
            <Position>
              <LatitudeDegrees>43.5096340812742710113525390625</LatitudeDegrees>
              <LongitudeDegrees>-1.49929826147854328155517578125</LongitudeDegrees>
            </Position>
            <AltitudeMeters>14.19999980926513671875</AltitudeMeters>
            <DistanceMeters>NAN</DistanceMeters>
          </Trackpoint>
          <Trackpoint>
            <Time>2022-07-07T14:23:35.000Z</Time>
            <Position>
              <LatitudeDegrees>43.5096568800508975982666015625</LatitudeDegrees>
              <LongitudeDegrees>-1.4992515742778778076171875</LongitudeDegrees>
            </Position>
            <AltitudeMeters>14.19999980926513671875</AltitudeMeters>
            <DistanceMeters>NAN</DistanceMeters>
          </Trackpoint>
          <Trackpoint>
            <Time>2022-07-07T14:23:37.000Z</Time>
            <Position>
              <LatitudeDegrees>43.50973005406558513641357421875</LatitudeDegrees>
              <LongitudeDegrees>-1.49936464615166187286376953125</LongitudeDegrees>
            </Position>
            <AltitudeMeters>14.19999980926513671875</AltitudeMeters>
            <DistanceMeters>NAN</DistanceMeters>
          </Trackpoint>
          <Trackpoint>
            <Time>2022-07-07T14:23:42.000Z</Time>
            <Position>
              <LatitudeDegrees>43.5096307285130023956298828125</LatitudeDegrees>
              <LongitudeDegrees>-1.49956329725682735443115234375</LongitudeDegrees>
            </Position>
            <AltitudeMeters>14.19999980926513671875</AltitudeMeters>
            <DistanceMeters>NAN</DistanceMeters>
          </Trackpoint>
          <Trackpoint>
            <Time>2022-07-07T14:23:51.000Z</Time>
            <Position>
              <LatitudeDegrees>43.5096468217670917510986328125</LatitudeDegrees>
              <LongitudeDegrees>-1.499521471560001373291015625</LongitudeDegrees>
            </Position>
            <AltitudeMeters>14.3999996185302734375</AltitudeMeters>
            <DistanceMeters>NAN</DistanceMeters>
          </Trackpoint>
          <Trackpoint>
            <Time>2022-07-07T14:23:57.000Z</Time>
            <Position>
              <LatitudeDegrees>43.5097108595073223114013671875</LatitudeDegrees>
              <LongitudeDegrees>-1.499507389962673187255859375</LongitudeDegrees>
            </Position>
            <AltitudeMeters>14.3999996185302734375</AltitudeMeters>
            <DistanceMeters>NAN</DistanceMeters>
          </Trackpoint>
          <Trackpoint>
            <Time>2022-07-07T14:23:58.000Z</Time>
            <Position>
              <LatitudeDegrees>43.50971898995339870452880859375</LatitudeDegrees>
              <LongitudeDegrees>-1.4994881115853786468505859375</LongitudeDegrees>
            </Position>
            <AltitudeMeters>14.3999996185302734375</AltitudeMeters>
            <DistanceMeters>NAN</DistanceMeters>
          </Trackpoint>
          <Trackpoint>
            <Time>2022-07-07T14:24:00.000Z</Time>
            <Position>
              <LatitudeDegrees>43.5097088478505611419677734375</LatitudeDegrees>
              <LongitudeDegrees>-1.4994525723159313201904296875</LongitudeDegrees>
            </Position>
            <AltitudeMeters>14.3999996185302734375</AltitudeMeters>
            <DistanceMeters>NAN</DistanceMeters>
          </Trackpoint>
          <Trackpoint>
            <Time>2022-07-07T14:24:02.000Z</Time>
            <Position>
              <LatitudeDegrees>43.509651683270931243896484375</LatitudeDegrees>
              <LongitudeDegrees>-1.499443687498569488525390625</LongitudeDegrees>
            </Position>
            <AltitudeMeters>14.3999996185302734375</AltitudeMeters>
            <DistanceMeters>NAN</DistanceMeters>
          </Trackpoint>
          <Trackpoint>
            <Time>2022-07-07T14:24:03.000Z</Time>
            <Position>
              <LatitudeDegrees>43.50962813012301921844482421875</LatitudeDegrees>
              <LongitudeDegrees>-1.49942792952060699462890625</LongitudeDegrees>
            </Position>
            <AltitudeMeters>14.3999996185302734375</AltitudeMeters>
            <DistanceMeters>NAN</DistanceMeters>
          </Trackpoint>
          <Trackpoint>
            <Time>2022-07-07T14:24:05.000Z</Time>
            <Position>
              <LatitudeDegrees>43.5096062533557415008544921875</LatitudeDegrees>
              <LongitudeDegrees>-1.49938744492828845977783203125</LongitudeDegrees>
            </Position>
            <AltitudeMeters>14.3999996185302734375</AltitudeMeters>
            <DistanceMeters>NAN</DistanceMeters>
          </Trackpoint>
          <Trackpoint>
            <Time>2022-07-07T14:24:07.000Z</Time>
            <Position>
              <LatitudeDegrees>43.5096438042819499969482421875</LatitudeDegrees>
              <LongitudeDegrees>-1.49938325397670269012451171875</LongitudeDegrees>
            </Position>
            <AltitudeMeters>14.3999996185302734375</AltitudeMeters>
            <DistanceMeters>NAN</DistanceMeters>
          </Trackpoint>
          <Trackpoint>
            <Time>2022-07-07T14:24:09.000Z</Time>
            <Position>
              <LatitudeDegrees>43.50965428166091442108154296875</LatitudeDegrees>
              <LongitudeDegrees>-1.4993895404040813446044921875</LongitudeDegrees>
            </Position>
            <AltitudeMeters>14.6000003814697265625</AltitudeMeters>
            <DistanceMeters>NAN</DistanceMeters>
          </Trackpoint>
          <Trackpoint>
            <Time>2022-07-07T14:24:11.000Z</Time>
            <Position>
              <LatitudeDegrees>43.509698621928691864013671875</LatitudeDegrees>
              <LongitudeDegrees>-1.49937856011092662811279296875</LongitudeDegrees>
            </Position>
            <AltitudeMeters>14.6000003814697265625</AltitudeMeters>
            <DistanceMeters>NAN</DistanceMeters>
          </Trackpoint>
          <Trackpoint>
            <Time>2022-07-07T14:24:12.000Z</Time>
            <Position>
              <LatitudeDegrees>43.50968747399747371673583984375</LatitudeDegrees>
              <LongitudeDegrees>-1.49935911409556865692138671875</LongitudeDegrees>
            </Position>
            <AltitudeMeters>14.6000003814697265625</AltitudeMeters>
            <DistanceMeters>NAN</DistanceMeters>
          </Trackpoint>
          <Trackpoint>
            <Time>2022-07-07T14:24:15.000Z</Time>
            <Position>
              <LatitudeDegrees>43.50967020727694034576416015625</LatitudeDegrees>
              <LongitudeDegrees>-1.49933514185249805450439453125</LongitudeDegrees>
            </Position>
            <AltitudeMeters>14.80000019073486328125</AltitudeMeters>
            <DistanceMeters>NAN</DistanceMeters>
          </Trackpoint>
          <Trackpoint>
            <Time>2022-07-07T14:24:17.000Z</Time>
            <Position>
              <LatitudeDegrees>43.50966718979179859161376953125</LatitudeDegrees>
              <LongitudeDegrees>-1.49934821762144565582275390625</LongitudeDegrees>
            </Position>
            <AltitudeMeters>14.80000019073486328125</AltitudeMeters>
            <DistanceMeters>NAN</DistanceMeters>
          </Trackpoint>
          <Trackpoint>
            <Time>2022-07-07T14:24:20.000Z</Time>
            <Position>
              <LatitudeDegrees>43.50969619117677211761474609375</LatitudeDegrees>
              <LongitudeDegrees>-1.499338410794734954833984375</LongitudeDegrees>
            </Position>
            <AltitudeMeters>14.80000019073486328125</AltitudeMeters>
            <DistanceMeters>NAN</DistanceMeters>
          </Trackpoint>
          <Trackpoint>
            <Time>2022-07-07T14:24:43.000Z</Time>
            <Position>
              <LatitudeDegrees>43.50976802408695220947265625</LatitudeDegrees>
              <LongitudeDegrees>-1.49925735779106616973876953125</LongitudeDegrees>
            </Position>
            <AltitudeMeters>15</AltitudeMeters>
            <DistanceMeters>NAN</DistanceMeters>
          </Trackpoint>
          <Trackpoint>
            <Time>2022-07-07T14:24:48.000Z</Time>
            <Position>
              <LatitudeDegrees>43.509895764291286468505859375</LatitudeDegrees>
              <LongitudeDegrees>-1.49913196451961994171142578125</LongitudeDegrees>
            </Position>
            <AltitudeMeters>14.80000019073486328125</AltitudeMeters>
            <DistanceMeters>NAN</DistanceMeters>
          </Trackpoint>
          <Trackpoint>
            <Time>2022-07-07T14:24:52.000Z</Time>
            <Position>
              <LatitudeDegrees>43.51001084782183170318603515625</LatitudeDegrees>
              <LongitudeDegrees>-1.49918544106185436248779296875</LongitudeDegrees>
            </Position>
            <AltitudeMeters>14.3999996185302734375</AltitudeMeters>
            <DistanceMeters>NAN</DistanceMeters>
          </Trackpoint>
          <Trackpoint>
            <Time>2022-07-07T14:24:57.000Z</Time>
            <Position>
              <LatitudeDegrees>43.51008494384586811065673828125</LatitudeDegrees>
              <LongitudeDegrees>-1.49934972636401653289794921875</LongitudeDegrees>
            </Position>
            <AltitudeMeters>15</AltitudeMeters>
            <DistanceMeters>NAN</DistanceMeters>
          </Trackpoint>
          <Trackpoint>
            <Time>2022-07-07T14:25:02.000Z</Time>
            <Position>
              <LatitudeDegrees>43.51017764769494533538818359375</LatitudeDegrees>
              <LongitudeDegrees>-1.49951736442744731903076171875</LongitudeDegrees>
            </Position>
            <AltitudeMeters>15.3999996185302734375</AltitudeMeters>
            <DistanceMeters>NAN</DistanceMeters>
          </Trackpoint>
          <Trackpoint>
            <Time>2022-07-07T14:25:06.000Z</Time>
            <Position>
              <LatitudeDegrees>43.510277308523654937744140625</LatitudeDegrees>
              <LongitudeDegrees>-1.49957637302577495574951171875</LongitudeDegrees>
            </Position>
            <AltitudeMeters>15.6000003814697265625</AltitudeMeters>
            <DistanceMeters>NAN</DistanceMeters>
          </Trackpoint>
          <Trackpoint>
            <Time>2022-07-07T14:25:09.000Z</Time>
            <Position>
              <LatitudeDegrees>43.51034997962415218353271484375</LatitudeDegrees>
              <LongitudeDegrees>-1.49963253177702426910400390625</LongitudeDegrees>
            </Position>
            <AltitudeMeters>15.6000003814697265625</AltitudeMeters>
            <DistanceMeters>NAN</DistanceMeters>
          </Trackpoint>
          <Trackpoint>
            <Time>2022-07-07T14:25:14.000Z</Time>
            <Position>
              <LatitudeDegrees>43.510455004870891571044921875</LatitudeDegrees>
              <LongitudeDegrees>-1.4997214637696743011474609375</LongitudeDegrees>
            </Position>
            <AltitudeMeters>15.80000019073486328125</AltitudeMeters>
            <DistanceMeters>NAN</DistanceMeters>
          </Trackpoint>
          <Trackpoint>
            <Time>2022-07-07T14:25:19.000Z</Time>
            <Position>
              <LatitudeDegrees>43.51057134568691253662109375</LatitudeDegrees>
              <LongitudeDegrees>-1.49975557811558246612548828125</LongitudeDegrees>
            </Position>
            <AltitudeMeters>16</AltitudeMeters>
            <DistanceMeters>NAN</DistanceMeters>
          </Trackpoint>
          <Trackpoint>
            <Time>2022-07-07T14:25:21.000Z</Time>
            <Position>
              <LatitudeDegrees>43.51062096655368804931640625</LatitudeDegrees>
              <LongitudeDegrees>-1.4997613616287708282470703125</LongitudeDegrees>
            </Position>
            <AltitudeMeters>15.80000019073486328125</AltitudeMeters>
            <DistanceMeters>NAN</DistanceMeters>
          </Trackpoint>
          <Trackpoint>
            <Time>2022-07-07T14:25:22.000Z</Time>
            <Position>
              <LatitudeDegrees>43.510644100606441497802734375</LatitudeDegrees>
              <LongitudeDegrees>-1.49977049790322780609130859375</LongitudeDegrees>
            </Position>
            <AltitudeMeters>15.80000019073486328125</AltitudeMeters>
            <DistanceMeters>NAN</DistanceMeters>
          </Trackpoint>
          <Trackpoint>
            <Time>2022-07-07T14:25:25.000Z</Time>
            <Position>
              <LatitudeDegrees>43.51072180084884166717529296875</LatitudeDegrees>
              <LongitudeDegrees>-1.499791033565998077392578125</LongitudeDegrees>
            </Position>
            <AltitudeMeters>15.6000003814697265625</AltitudeMeters>
            <DistanceMeters>NAN</DistanceMeters>
          </Trackpoint>
          <Trackpoint>
            <Time>2022-07-07T14:25:31.000Z</Time>
            <Position>
              <LatitudeDegrees>43.5109148360788822174072265625</LatitudeDegrees>
              <LongitudeDegrees>-1.4998175203800201416015625</LongitudeDegrees>
            </Position>
            <AltitudeMeters>15.6000003814697265625</AltitudeMeters>
            <DistanceMeters>NAN</DistanceMeters>
          </Trackpoint>
          <Trackpoint>
            <Time>2022-07-07T14:25:32.000Z</Time>
            <Position>
              <LatitudeDegrees>43.51094660349190235137939453125</LatitudeDegrees>
              <LongitudeDegrees>-1.4998039416968822479248046875</LongitudeDegrees>
            </Position>
            <AltitudeMeters>15.6000003814697265625</AltitudeMeters>
            <DistanceMeters>NAN</DistanceMeters>
          </Trackpoint>
          <Trackpoint>
            <Time>2022-07-07T14:25:34.000Z</Time>
            <Position>
              <LatitudeDegrees>43.511026985943317413330078125</LatitudeDegrees>
              <LongitudeDegrees>-1.49976563639938831329345703125</LongitudeDegrees>
            </Position>
            <AltitudeMeters>15.3999996185302734375</AltitudeMeters>
            <DistanceMeters>NAN</DistanceMeters>
          </Trackpoint>
          <Trackpoint>
            <Time>2022-07-07T14:25:38.000Z</Time>
            <Position>
              <LatitudeDegrees>43.51117224432528018951416015625</LatitudeDegrees>
              <LongitudeDegrees>-1.49970998056232929229736328125</LongitudeDegrees>
            </Position>
            <AltitudeMeters>15.3999996185302734375</AltitudeMeters>
            <DistanceMeters>NAN</DistanceMeters>
          </Trackpoint>
          <Trackpoint>
            <Time>2022-07-07T14:25:46.000Z</Time>
            <Position>
              <LatitudeDegrees>43.51144951768219470977783203125</LatitudeDegrees>
              <LongitudeDegrees>-1.4996621198952198028564453125</LongitudeDegrees>
            </Position>
            <AltitudeMeters>15</AltitudeMeters>
            <DistanceMeters>NAN</DistanceMeters>
          </Trackpoint>
          <Trackpoint>
            <Time>2022-07-07T14:25:48.000Z</Time>
            <Position>
              <LatitudeDegrees>43.51149939000606536865234375</LatitudeDegrees>
              <LongitudeDegrees>-1.49968483485281467437744140625</LongitudeDegrees>
            </Position>
            <AltitudeMeters>15</AltitudeMeters>
            <DistanceMeters>NAN</DistanceMeters>
          </Trackpoint>
          <Trackpoint>
            <Time>2022-07-07T14:25:49.000Z</Time>
            <Position>
              <LatitudeDegrees>43.51151556707918643951416015625</LatitudeDegrees>
              <LongitudeDegrees>-1.4997164346277713775634765625</LongitudeDegrees>
            </Position>
            <AltitudeMeters>15</AltitudeMeters>
            <DistanceMeters>NAN</DistanceMeters>
          </Trackpoint>
          <Trackpoint>
            <Time>2022-07-07T14:25:50.000Z</Time>
            <Position>
              <LatitudeDegrees>43.51151925511658191680908203125</LatitudeDegrees>
              <LongitudeDegrees>-1.499762199819087982177734375</LongitudeDegrees>
            </Position>
            <AltitudeMeters>15</AltitudeMeters>
            <DistanceMeters>NAN</DistanceMeters>
          </Trackpoint>
          <Trackpoint>
            <Time>2022-07-07T14:25:53.000Z</Time>
            <Position>
              <LatitudeDegrees>43.5115273855626583099365234375</LatitudeDegrees>
              <LongitudeDegrees>-1.499877534806728363037109375</LongitudeDegrees>
            </Position>
            <AltitudeMeters>15.19999980926513671875</AltitudeMeters>
            <DistanceMeters>NAN</DistanceMeters>
          </Trackpoint>
          <Trackpoint>
            <Time>2022-07-07T14:25:54.000Z</Time>
            <Position>
              <LatitudeDegrees>43.51153291761875152587890625</LatitudeDegrees>
              <LongitudeDegrees>-1.49990729056298732757568359375</LongitudeDegrees>
            </Position>
            <AltitudeMeters>15.19999980926513671875</AltitudeMeters>
            <DistanceMeters>NAN</DistanceMeters>
          </Trackpoint>
          <Trackpoint>
            <Time>2022-07-07T14:25:57.000Z</Time>
            <Position>
              <LatitudeDegrees>43.511556722223758697509765625</LatitudeDegrees>
              <LongitudeDegrees>-1.5000061132013797760009765625</LongitudeDegrees>
            </Position>
            <AltitudeMeters>15.3999996185302734375</AltitudeMeters>
            <DistanceMeters>NAN</DistanceMeters>
          </Trackpoint>
          <Trackpoint>
            <Time>2022-07-07T14:25:58.000Z</Time>
            <Position>
              <LatitudeDegrees>43.51158245466649532318115234375</LatitudeDegrees>
              <LongitudeDegrees>-1.50002740323543548583984375</LongitudeDegrees>
            </Position>
            <AltitudeMeters>15.3999996185302734375</AltitudeMeters>
            <DistanceMeters>NAN</DistanceMeters>
          </Trackpoint>
          <Trackpoint>
            <Time>2022-07-07T14:26:00.000Z</Time>
            <Position>
              <LatitudeDegrees>43.5116504319012165069580078125</LatitudeDegrees>
              <LongitudeDegrees>-1.5000195242464542388916015625</LongitudeDegrees>
            </Position>
            <AltitudeMeters>15.3999996185302734375</AltitudeMeters>
            <DistanceMeters>NAN</DistanceMeters>
          </Trackpoint>
          <Trackpoint>
            <Time>2022-07-07T14:26:02.000Z</Time>
            <Position>
              <LatitudeDegrees>43.5117077641189098358154296875</LatitudeDegrees>
              <LongitudeDegrees>-1.500006951391696929931640625</LongitudeDegrees>
            </Position>
            <AltitudeMeters>15.6000003814697265625</AltitudeMeters>
            <DistanceMeters>NAN</DistanceMeters>
          </Trackpoint>
          <Trackpoint>
            <Time>2022-07-07T14:26:07.000Z</Time>
            <Position>
              <LatitudeDegrees>43.51189509965479373931884765625</LatitudeDegrees>
              <LongitudeDegrees>-1.499981470406055450439453125</LongitudeDegrees>
            </Position>
            <AltitudeMeters>15.6000003814697265625</AltitudeMeters>
            <DistanceMeters>NAN</DistanceMeters>
          </Trackpoint>
          <Trackpoint>
            <Time>2022-07-07T14:26:15.000Z</Time>
            <Position>
              <LatitudeDegrees>43.512185700237751007080078125</LatitudeDegrees>
              <LongitudeDegrees>-1.49993897415697574615478515625</LongitudeDegrees>
            </Position>
            <AltitudeMeters>15.19999980926513671875</AltitudeMeters>
            <DistanceMeters>NAN</DistanceMeters>
          </Trackpoint>
          <Trackpoint>
            <Time>2022-07-07T14:26:21.000Z</Time>
            <Position>
              <LatitudeDegrees>43.512379489839076995849609375</LatitudeDegrees>
              <LongitudeDegrees>-1.49992086924612522125244140625</LongitudeDegrees>
            </Position>
            <AltitudeMeters>15</AltitudeMeters>
            <DistanceMeters>NAN</DistanceMeters>
          </Trackpoint>
          <Trackpoint>
            <Time>2022-07-07T14:26:30.000Z</Time>
            <Position>
              <LatitudeDegrees>43.512661457061767578125</LatitudeDegrees>
              <LongitudeDegrees>-1.49999949149787425994873046875</LongitudeDegrees>
            </Position>
            <AltitudeMeters>15</AltitudeMeters>
            <DistanceMeters>NAN</DistanceMeters>
          </Trackpoint>
          <Trackpoint>
            <Time>2022-07-07T14:26:34.000Z</Time>
            <Position>
              <LatitudeDegrees>43.5127947293221950531005859375</LatitudeDegrees>
              <LongitudeDegrees>-1.50008481927216053009033203125</LongitudeDegrees>
            </Position>
            <AltitudeMeters>15</AltitudeMeters>
            <DistanceMeters>NAN</DistanceMeters>
          </Trackpoint>
          <Trackpoint>
            <Time>2022-07-07T14:26:35.000Z</Time>
            <Position>
              <LatitudeDegrees>43.51282306015491485595703125</LatitudeDegrees>
              <LongitudeDegrees>-1.50009714066982269287109375</LongitudeDegrees>
            </Position>
            <AltitudeMeters>15</AltitudeMeters>
            <DistanceMeters>NAN</DistanceMeters>
          </Trackpoint>
          <Trackpoint>
            <Time>2022-07-07T14:26:36.000Z</Time>
            <Position>
              <LatitudeDegrees>43.5128591023385524749755859375</LatitudeDegrees>
              <LongitudeDegrees>-1.5001013316214084625244140625</LongitudeDegrees>
            </Position>
            <AltitudeMeters>15</AltitudeMeters>
            <DistanceMeters>NAN</DistanceMeters>
          </Trackpoint>
          <Trackpoint>
            <Time>2022-07-07T14:26:37.000Z</Time>
            <Position>
              <LatitudeDegrees>43.51288869045674800872802734375</LatitudeDegrees>
              <LongitudeDegrees>-1.50010175071656703948974609375</LongitudeDegrees>
            </Position>
            <AltitudeMeters>15</AltitudeMeters>
            <DistanceMeters>NAN</DistanceMeters>
          </Trackpoint>
          <Trackpoint>
            <Time>2022-07-07T14:26:38.000Z</Time>
            <Position>
              <LatitudeDegrees>43.51291920058429241180419921875</LatitudeDegrees>
              <LongitudeDegrees>-1.5001071989536285400390625</LongitudeDegrees>
            </Position>
            <AltitudeMeters>14.80000019073486328125</AltitudeMeters>
            <DistanceMeters>NAN</DistanceMeters>
          </Trackpoint>
          <Trackpoint>
            <Time>2022-07-07T14:26:40.000Z</Time>
            <Position>
              <LatitudeDegrees>43.51298742927610874176025390625</LatitudeDegrees>
              <LongitudeDegrees>-1.50013293139636516571044921875</LongitudeDegrees>
            </Position>
            <AltitudeMeters>14.6000003814697265625</AltitudeMeters>
            <DistanceMeters>NAN</DistanceMeters>
          </Trackpoint>
          <Trackpoint>
            <Time>2022-07-07T14:26:42.000Z</Time>
            <Position>
              <LatitudeDegrees>43.51307543925940990447998046875</LatitudeDegrees>
              <LongitudeDegrees>-1.50015883147716522216796875</LongitudeDegrees>
            </Position>
            <AltitudeMeters>14.3999996185302734375</AltitudeMeters>
            <DistanceMeters>NAN</DistanceMeters>
          </Trackpoint>
          <Trackpoint>
            <Time>2022-07-07T14:26:45.000Z</Time>
            <Position>
              <LatitudeDegrees>43.51318893022835254669189453125</LatitudeDegrees>
              <LongitudeDegrees>-1.5001921914517879486083984375</LongitudeDegrees>
            </Position>
            <AltitudeMeters>14.3999996185302734375</AltitudeMeters>
            <DistanceMeters>NAN</DistanceMeters>
          </Trackpoint>
          <Trackpoint>
            <Time>2022-07-07T14:26:54.000Z</Time>
            <Position>
              <LatitudeDegrees>43.51351247169077396392822265625</LatitudeDegrees>
              <LongitudeDegrees>-1.50030241347849369049072265625</LongitudeDegrees>
            </Position>
            <AltitudeMeters>15.19999980926513671875</AltitudeMeters>
            <DistanceMeters>NAN</DistanceMeters>
          </Trackpoint>
          <Trackpoint>
            <Time>2022-07-07T14:26:55.000Z</Time>
            <Position>
              <LatitudeDegrees>43.51354985497891902923583984375</LatitudeDegrees>
              <LongitudeDegrees>-1.50031247176229953765869140625</LongitudeDegrees>
            </Position>
            <AltitudeMeters>15.3999996185302734375</AltitudeMeters>
            <DistanceMeters>NAN</DistanceMeters>
          </Trackpoint>
          <Trackpoint>
            <Time>2022-07-07T14:26:58.000Z</Time>
            <Position>
              <LatitudeDegrees>43.51364658214151859283447265625</LatitudeDegrees>
              <LongitudeDegrees>-1.50036661885678768157958984375</LongitudeDegrees>
            </Position>
            <AltitudeMeters>15.19999980926513671875</AltitudeMeters>
            <DistanceMeters>NAN</DistanceMeters>
          </Trackpoint>
          <Trackpoint>
            <Time>2022-07-07T14:27:03.000Z</Time>
            <Position>
              <LatitudeDegrees>43.51381170563399791717529296875</LatitudeDegrees>
              <LongitudeDegrees>-1.50043987669050693511962890625</LongitudeDegrees>
            </Position>
            <AltitudeMeters>14.3999996185302734375</AltitudeMeters>
            <DistanceMeters>NAN</DistanceMeters>
          </Trackpoint>
          <Trackpoint>
            <Time>2022-07-07T14:27:08.000Z</Time>
            <Position>
              <LatitudeDegrees>43.51397850550711154937744140625</LatitudeDegrees>
              <LongitudeDegrees>-1.50054565630853176116943359375</LongitudeDegrees>
            </Position>
            <AltitudeMeters>14.3999996185302734375</AltitudeMeters>
            <DistanceMeters>NAN</DistanceMeters>
          </Trackpoint>
          <Trackpoint>
            <Time>2022-07-07T14:27:09.000Z</Time>
            <Position>
              <LatitudeDegrees>43.51401337422430515289306640625</LatitudeDegrees>
              <LongitudeDegrees>-1.50056057609617710113525390625</LongitudeDegrees>
            </Position>
            <AltitudeMeters>14.6000003814697265625</AltitudeMeters>
            <DistanceMeters>NAN</DistanceMeters>
          </Trackpoint>
          <Trackpoint>
            <Time>2022-07-07T14:27:11.000Z</Time>
            <Position>
              <LatitudeDegrees>43.5140790045261383056640625</LatitudeDegrees>
              <LongitudeDegrees>-1.50059058330953121185302734375</LongitudeDegrees>
            </Position>
            <AltitudeMeters>14.80000019073486328125</AltitudeMeters>
            <DistanceMeters>NAN</DistanceMeters>
          </Trackpoint>
          <Trackpoint>
            <Time>2022-07-07T14:27:13.000Z</Time>
            <Position>
              <LatitudeDegrees>43.51413608528673648834228515625</LatitudeDegrees>
              <LongitudeDegrees>-1.500618495047092437744140625</LongitudeDegrees>
            </Position>
            <AltitudeMeters>14.80000019073486328125</AltitudeMeters>
            <DistanceMeters>NAN</DistanceMeters>
          </Trackpoint>
          <Trackpoint>
            <Time>2022-07-07T14:27:19.000Z</Time>
            <Position>
              <LatitudeDegrees>43.51432115770876407623291015625</LatitudeDegrees>
              <LongitudeDegrees>-1.5006967820227146148681640625</LongitudeDegrees>
            </Position>
            <AltitudeMeters>14</AltitudeMeters>
            <DistanceMeters>NAN</DistanceMeters>
          </Trackpoint>
          <Trackpoint>
            <Time>2022-07-07T14:27:26.000Z</Time>
            <Position>
              <LatitudeDegrees>43.51454998366534709930419921875</LatitudeDegrees>
              <LongitudeDegrees>-1.50082091800868511199951171875</LongitudeDegrees>
            </Position>
            <AltitudeMeters>14.80000019073486328125</AltitudeMeters>
            <DistanceMeters>NAN</DistanceMeters>
          </Trackpoint>
          <Trackpoint>
            <Time>2022-07-07T14:27:27.000Z</Time>
            <Position>
              <LatitudeDegrees>43.51457915268838405609130859375</LatitudeDegrees>
              <LongitudeDegrees>-1.50083751417696475982666015625</LongitudeDegrees>
            </Position>
            <AltitudeMeters>14.80000019073486328125</AltitudeMeters>
            <DistanceMeters>NAN</DistanceMeters>
          </Trackpoint>
          <Trackpoint>
            <Time>2022-07-07T14:27:28.000Z</Time>
            <Position>
              <LatitudeDegrees>43.5146182961761951446533203125</LatitudeDegrees>
              <LongitudeDegrees>-1.5008603967726230621337890625</LongitudeDegrees>
            </Position>
            <AltitudeMeters>14.6000003814697265625</AltitudeMeters>
            <DistanceMeters>NAN</DistanceMeters>
          </Trackpoint>
          <Trackpoint>
            <Time>2022-07-07T14:27:31.000Z</Time>
            <Position>
              <LatitudeDegrees>43.51472583599388599395751953125</LatitudeDegrees>
              <LongitudeDegrees>-1.5009080059826374053955078125</LongitudeDegrees>
            </Position>
            <AltitudeMeters>14.19999980926513671875</AltitudeMeters>
            <DistanceMeters>NAN</DistanceMeters>
          </Trackpoint>
          <Trackpoint>
            <Time>2022-07-07T14:27:35.000Z</Time>
            <Position>
              <LatitudeDegrees>43.5148836672306060791015625</LatitudeDegrees>
              <LongitudeDegrees>-1.500963158905506134033203125</LongitudeDegrees>
            </Position>
            <AltitudeMeters>14</AltitudeMeters>
            <DistanceMeters>NAN</DistanceMeters>
          </Trackpoint>
          <Trackpoint>
            <Time>2022-07-07T14:27:45.000Z</Time>
            <Position>
              <LatitudeDegrees>43.51526319980621337890625</LatitudeDegrees>
              <LongitudeDegrees>-1.50110900402069091796875</LongitudeDegrees>
            </Position>
            <AltitudeMeters>14.19999980926513671875</AltitudeMeters>
            <DistanceMeters>NAN</DistanceMeters>
          </Trackpoint>
          <Trackpoint>
            <Time>2022-07-07T14:27:50.000Z</Time>
            <Position>
              <LatitudeDegrees>43.5154370404779911041259765625</LatitudeDegrees>
              <LongitudeDegrees>-1.5011644922196865081787109375</LongitudeDegrees>
            </Position>
            <AltitudeMeters>13.80000019073486328125</AltitudeMeters>
            <DistanceMeters>NAN</DistanceMeters>
          </Trackpoint>
          <Trackpoint>
            <Time>2022-07-07T14:27:52.000Z</Time>
            <Position>
              <LatitudeDegrees>43.51550124585628509521484375</LatitudeDegrees>
              <LongitudeDegrees>-1.50120028294622898101806640625</LongitudeDegrees>
            </Position>
            <AltitudeMeters>13.80000019073486328125</AltitudeMeters>
            <DistanceMeters>NAN</DistanceMeters>
          </Trackpoint>
          <Trackpoint>
            <Time>2022-07-07T14:28:00.000Z</Time>
            <Position>
              <LatitudeDegrees>43.51576888002455234527587890625</LatitudeDegrees>
              <LongitudeDegrees>-1.50136373005807399749755859375</LongitudeDegrees>
            </Position>
            <AltitudeMeters>14</AltitudeMeters>
            <DistanceMeters>NAN</DistanceMeters>
          </Trackpoint>
          <Trackpoint>
            <Time>2022-07-07T14:28:07.000Z</Time>
            <Position>
              <LatitudeDegrees>43.51600793190300464630126953125</LatitudeDegrees>
              <LongitudeDegrees>-1.50145660154521465301513671875</LongitudeDegrees>
            </Position>
            <AltitudeMeters>14</AltitudeMeters>
            <DistanceMeters>NAN</DistanceMeters>
          </Trackpoint>
          <Trackpoint>
            <Time>2022-07-07T14:28:10.000Z</Time>
            <Position>
              <LatitudeDegrees>43.51610130630433559417724609375</LatitudeDegrees>
              <LongitudeDegrees>-1.50149465538561344146728515625</LongitudeDegrees>
            </Position>
            <AltitudeMeters>14</AltitudeMeters>
            <DistanceMeters>NAN</DistanceMeters>
          </Trackpoint>
          <Trackpoint>
            <Time>2022-07-07T14:28:15.000Z</Time>
            <Position>
              <LatitudeDegrees>43.5162544436752796173095703125</LatitudeDegrees>
              <LongitudeDegrees>-1.50157369673252105712890625</LongitudeDegrees>
            </Position>
            <AltitudeMeters>14.19999980926513671875</AltitudeMeters>
            <DistanceMeters>NAN</DistanceMeters>
          </Trackpoint>
          <Trackpoint>
            <Time>2022-07-07T14:28:23.000Z</Time>
            <Position>
              <LatitudeDegrees>43.51651654578745365142822265625</LatitudeDegrees>
              <LongitudeDegrees>-1.501631699502468109130859375</LongitudeDegrees>
            </Position>
            <AltitudeMeters>14.6000003814697265625</AltitudeMeters>
            <DistanceMeters>NAN</DistanceMeters>
          </Trackpoint>
          <Trackpoint>
            <Time>2022-07-07T14:28:27.000Z</Time>
            <Position>
              <LatitudeDegrees>43.51663523353636264801025390625</LatitudeDegrees>
              <LongitudeDegrees>-1.50163714773952960968017578125</LongitudeDegrees>
            </Position>
            <AltitudeMeters>13.80000019073486328125</AltitudeMeters>
            <DistanceMeters>NAN</DistanceMeters>
          </Trackpoint>
          <Trackpoint>
            <Time>2022-07-07T14:28:30.000Z</Time>
            <Position>
              <LatitudeDegrees>43.5167276859283447265625</LatitudeDegrees>
              <LongitudeDegrees>-1.5016372315585613250732421875</LongitudeDegrees>
            </Position>
            <AltitudeMeters>13.6000003814697265625</AltitudeMeters>
            <DistanceMeters>NAN</DistanceMeters>
          </Trackpoint>
          <Trackpoint>
            <Time>2022-07-07T14:28:34.000Z</Time>
            <Position>
              <LatitudeDegrees>43.51685307919979095458984375</LatitudeDegrees>
              <LongitudeDegrees>-1.50162868201732635498046875</LongitudeDegrees>
            </Position>
            <AltitudeMeters>14.19999980926513671875</AltitudeMeters>
            <DistanceMeters>NAN</DistanceMeters>
          </Trackpoint>
          <Trackpoint>
            <Time>2022-07-07T14:28:38.000Z</Time>
            <Position>
              <LatitudeDegrees>43.51698626764118671417236328125</LatitudeDegrees>
              <LongitudeDegrees>-1.50163597427308559417724609375</LongitudeDegrees>
            </Position>
            <AltitudeMeters>14.19999980926513671875</AltitudeMeters>
            <DistanceMeters>NAN</DistanceMeters>
          </Trackpoint>
          <Trackpoint>
            <Time>2022-07-07T14:28:41.000Z</Time>
            <Position>
              <LatitudeDegrees>43.5170862637460231781005859375</LatitudeDegrees>
              <LongitudeDegrees>-1.50163815356791019439697265625</LongitudeDegrees>
            </Position>
            <AltitudeMeters>14.19999980926513671875</AltitudeMeters>
            <DistanceMeters>NAN</DistanceMeters>
          </Trackpoint>
          <Trackpoint>
            <Time>2022-07-07T14:28:43.000Z</Time>
            <Position>
              <LatitudeDegrees>43.5171442665159702301025390625</LatitudeDegrees>
              <LongitudeDegrees>-1.50164385326206684112548828125</LongitudeDegrees>
            </Position>
            <AltitudeMeters>14.19999980926513671875</AltitudeMeters>
            <DistanceMeters>NAN</DistanceMeters>
          </Trackpoint>
          <Trackpoint>
            <Time>2022-07-07T14:28:44.000Z</Time>
            <Position>
              <LatitudeDegrees>43.5171814821660518646240234375</LatitudeDegrees>
              <LongitudeDegrees>-1.5016489662230014801025390625</LongitudeDegrees>
            </Position>
            <AltitudeMeters>14</AltitudeMeters>
            <DistanceMeters>NAN</DistanceMeters>
          </Trackpoint>
          <Trackpoint>
            <Time>2022-07-07T14:28:48.000Z</Time>
            <Position>
              <LatitudeDegrees>43.51730477996170520782470703125</LatitudeDegrees>
              <LongitudeDegrees>-1.50165340863168239593505859375</LongitudeDegrees>
            </Position>
            <AltitudeMeters>13.80000019073486328125</AltitudeMeters>
            <DistanceMeters>NAN</DistanceMeters>
          </Trackpoint>
          <Trackpoint>
            <Time>2022-07-07T14:28:51.000Z</Time>
            <Position>
              <LatitudeDegrees>43.51741843856871128082275390625</LatitudeDegrees>
              <LongitudeDegrees>-1.50165609084069728851318359375</LongitudeDegrees>
            </Position>
            <AltitudeMeters>13.6000003814697265625</AltitudeMeters>
            <DistanceMeters>NAN</DistanceMeters>
          </Trackpoint>
          <Trackpoint>
            <Time>2022-07-07T14:28:52.000Z</Time>
            <Position>
              <LatitudeDegrees>43.51744794286787509918212890625</LatitudeDegrees>
              <LongitudeDegrees>-1.5016601979732513427734375</LongitudeDegrees>
            </Position>
            <AltitudeMeters>13.6000003814697265625</AltitudeMeters>
            <DistanceMeters>NAN</DistanceMeters>
          </Trackpoint>
          <Trackpoint>
            <Time>2022-07-07T14:28:54.000Z</Time>
            <Position>
              <LatitudeDegrees>43.51753226481378078460693359375</LatitudeDegrees>
              <LongitudeDegrees>-1.50166749022901058197021484375</LongitudeDegrees>
            </Position>
            <AltitudeMeters>13.80000019073486328125</AltitudeMeters>
            <DistanceMeters>NAN</DistanceMeters>
          </Trackpoint>
          <Trackpoint>
            <Time>2022-07-07T14:29:00.000Z</Time>
            <Position>
              <LatitudeDegrees>43.51772479712963104248046875</LatitudeDegrees>
              <LongitudeDegrees>-1.5016731061041355133056640625</LongitudeDegrees>
            </Position>
            <AltitudeMeters>14</AltitudeMeters>
            <DistanceMeters>NAN</DistanceMeters>
          </Trackpoint>
          <Trackpoint>
            <Time>2022-07-07T14:29:02.000Z</Time>
            <Position>
              <LatitudeDegrees>43.51777617819607257843017578125</LatitudeDegrees>
              <LongitudeDegrees>-1.5016821585595607757568359375</LongitudeDegrees>
            </Position>
            <AltitudeMeters>14</AltitudeMeters>
            <DistanceMeters>NAN</DistanceMeters>
          </Trackpoint>
          <Trackpoint>
            <Time>2022-07-07T14:29:03.000Z</Time>
            <Position>
              <LatitudeDegrees>43.5178180038928985595703125</LatitudeDegrees>
              <LongitudeDegrees>-1.5016858465969562530517578125</LongitudeDegrees>
            </Position>
            <AltitudeMeters>14</AltitudeMeters>
            <DistanceMeters>NAN</DistanceMeters>
          </Trackpoint>
          <Trackpoint>
            <Time>2022-07-07T14:29:11.000Z</Time>
            <Position>
              <LatitudeDegrees>43.518119752407073974609375</LatitudeDegrees>
              <LongitudeDegrees>-1.50171308778226375579833984375</LongitudeDegrees>
            </Position>
            <AltitudeMeters>14.3999996185302734375</AltitudeMeters>
            <DistanceMeters>NAN</DistanceMeters>
          </Trackpoint>
          <Trackpoint>
            <Time>2022-07-07T14:29:14.000Z</Time>
            <Position>
              <LatitudeDegrees>43.51822427473962306976318359375</LatitudeDegrees>
              <LongitudeDegrees>-1.5017136745154857635498046875</LongitudeDegrees>
            </Position>
            <AltitudeMeters>14.3999996185302734375</AltitudeMeters>
            <DistanceMeters>NAN</DistanceMeters>
          </Trackpoint>
          <Trackpoint>
            <Time>2022-07-07T14:29:19.000Z</Time>
            <Position>
              <LatitudeDegrees>43.51841756142675876617431640625</LatitudeDegrees>
              <LongitudeDegrees>-1.50170520879328250885009765625</LongitudeDegrees>
            </Position>
            <AltitudeMeters>14</AltitudeMeters>
            <DistanceMeters>NAN</DistanceMeters>
          </Trackpoint>
          <Trackpoint>
            <Time>2022-07-07T14:29:26.000Z</Time>
            <Position>
              <LatitudeDegrees>43.5186754725873470306396484375</LatitudeDegrees>
              <LongitudeDegrees>-1.50170604698359966278076171875</LongitudeDegrees>
            </Position>
            <AltitudeMeters>14.19999980926513671875</AltitudeMeters>
            <DistanceMeters>NAN</DistanceMeters>
          </Trackpoint>
          <Trackpoint>
            <Time>2022-07-07T14:29:31.000Z</Time>
            <Position>
              <LatitudeDegrees>43.51886230520904064178466796875</LatitudeDegrees>
              <LongitudeDegrees>-1.50171057321131229400634765625</LongitudeDegrees>
            </Position>
            <AltitudeMeters>14.3999996185302734375</AltitudeMeters>
            <DistanceMeters>NAN</DistanceMeters>
          </Trackpoint>
          <Trackpoint>
            <Time>2022-07-07T14:29:35.000Z</Time>
            <Position>
              <LatitudeDegrees>43.519031703472137451171875</LatitudeDegrees>
              <LongitudeDegrees>-1.501725576817989349365234375</LongitudeDegrees>
            </Position>
            <AltitudeMeters>14.19999980926513671875</AltitudeMeters>
            <DistanceMeters>NAN</DistanceMeters>
          </Trackpoint>
          <Trackpoint>
            <Time>2022-07-07T14:29:36.000Z</Time>
            <Position>
              <LatitudeDegrees>43.5190764628350734710693359375</LatitudeDegrees>
              <LongitudeDegrees>-1.50172649882733821868896484375</LongitudeDegrees>
            </Position>
            <AltitudeMeters>14.19999980926513671875</AltitudeMeters>
            <DistanceMeters>NAN</DistanceMeters>
          </Trackpoint>
          <Trackpoint>
            <Time>2022-07-07T14:29:43.000Z</Time>
            <Position>
              <LatitudeDegrees>43.519323058426380157470703125</LatitudeDegrees>
              <LongitudeDegrees>-1.50173873640596866607666015625</LongitudeDegrees>
            </Position>
            <AltitudeMeters>14.6000003814697265625</AltitudeMeters>
            <DistanceMeters>NAN</DistanceMeters>
          </Trackpoint>
          <Trackpoint>
            <Time>2022-07-07T14:29:46.000Z</Time>
            <Position>
              <LatitudeDegrees>43.5194415785372257232666015625</LatitudeDegrees>
              <LongitudeDegrees>-1.50172867812216281890869140625</LongitudeDegrees>
            </Position>
            <AltitudeMeters>15</AltitudeMeters>
            <DistanceMeters>NAN</DistanceMeters>
          </Trackpoint>
          <Trackpoint>
            <Time>2022-07-07T14:29:52.000Z</Time>
            <Position>
              <LatitudeDegrees>43.51962790824472904205322265625</LatitudeDegrees>
              <LongitudeDegrees>-1.5017639659345149993896484375</LongitudeDegrees>
            </Position>
            <AltitudeMeters>14.6000003814697265625</AltitudeMeters>
            <DistanceMeters>NAN</DistanceMeters>
          </Trackpoint>
          <Trackpoint>
            <Time>2022-07-07T14:30:01.000Z</Time>
            <Position>
              <LatitudeDegrees>43.51992580108344554901123046875</LatitudeDegrees>
              <LongitudeDegrees>-1.50191207416355609893798828125</LongitudeDegrees>
            </Position>
            <AltitudeMeters>14.3999996185302734375</AltitudeMeters>
            <DistanceMeters>NAN</DistanceMeters>
          </Trackpoint>
          <Trackpoint>
            <Time>2022-07-07T14:30:09.000Z</Time>
            <Position>
              <LatitudeDegrees>43.52016267366707324981689453125</LatitudeDegrees>
              <LongitudeDegrees>-1.50209647603332996368408203125</LongitudeDegrees>
            </Position>
            <AltitudeMeters>14.3999996185302734375</AltitudeMeters>
            <DistanceMeters>NAN</DistanceMeters>
          </Trackpoint>
          <Trackpoint>
            <Time>2022-07-07T14:30:19.000Z</Time>
            <Position>
              <LatitudeDegrees>43.520451597869396209716796875</LatitudeDegrees>
              <LongitudeDegrees>-1.5023423172533512115478515625</LongitudeDegrees>
            </Position>
            <AltitudeMeters>14.80000019073486328125</AltitudeMeters>
            <DistanceMeters>NAN</DistanceMeters>
          </Trackpoint>
          <Trackpoint>
            <Time>2022-07-07T14:30:22.000Z</Time>
            <Position>
              <LatitudeDegrees>43.52053248323500156402587890625</LatitudeDegrees>
              <LongitudeDegrees>-1.5023959614336490631103515625</LongitudeDegrees>
            </Position>
            <AltitudeMeters>14.80000019073486328125</AltitudeMeters>
            <DistanceMeters>NAN</DistanceMeters>
          </Trackpoint>
          <Trackpoint>
            <Time>2022-07-07T14:30:29.000Z</Time>
            <Position>
              <LatitudeDegrees>43.52072442881762981414794921875</LatitudeDegrees>
              <LongitudeDegrees>-1.502559073269367218017578125</LongitudeDegrees>
            </Position>
            <AltitudeMeters>14.80000019073486328125</AltitudeMeters>
            <DistanceMeters>NAN</DistanceMeters>
          </Trackpoint>
          <Trackpoint>
            <Time>2022-07-07T14:30:33.000Z</Time>
            <Position>
              <LatitudeDegrees>43.52082015015184879302978515625</LatitudeDegrees>
              <LongitudeDegrees>-1.502644233405590057373046875</LongitudeDegrees>
            </Position>
            <AltitudeMeters>14.6000003814697265625</AltitudeMeters>
            <DistanceMeters>NAN</DistanceMeters>
          </Trackpoint>
          <Trackpoint>
            <Time>2022-07-07T14:30:35.000Z</Time>
            <Position>
              <LatitudeDegrees>43.520863987505435943603515625</LatitudeDegrees>
              <LongitudeDegrees>-1.502683795988559722900390625</LongitudeDegrees>
            </Position>
            <AltitudeMeters>14.6000003814697265625</AltitudeMeters>
            <DistanceMeters>NAN</DistanceMeters>
          </Trackpoint>
          <Trackpoint>
            <Time>2022-07-07T14:30:37.000Z</Time>
            <Position>
              <LatitudeDegrees>43.52090732194483280181884765625</LatitudeDegrees>
              <LongitudeDegrees>-1.5027195028960704803466796875</LongitudeDegrees>
            </Position>
            <AltitudeMeters>14.6000003814697265625</AltitudeMeters>
            <DistanceMeters>NAN</DistanceMeters>
          </Trackpoint>
          <Trackpoint>
            <Time>2022-07-07T14:30:45.000Z</Time>
            <Position>
              <LatitudeDegrees>43.52108652703464031219482421875</LatitudeDegrees>
              <LongitudeDegrees>-1.50284514762461185455322265625</LongitudeDegrees>
            </Position>
            <AltitudeMeters>15.19999980926513671875</AltitudeMeters>
            <DistanceMeters>NAN</DistanceMeters>
          </Trackpoint>
          <Trackpoint>
            <Time>2022-07-07T14:30:46.000Z</Time>
            <Position>
              <LatitudeDegrees>43.5211072303354740142822265625</LatitudeDegrees>
              <LongitudeDegrees>-1.50284196250140666961669921875</LongitudeDegrees>
            </Position>
            <AltitudeMeters>15.19999980926513671875</AltitudeMeters>
            <DistanceMeters>NAN</DistanceMeters>
          </Trackpoint>
          <Trackpoint>
            <Time>2022-07-07T14:30:48.000Z</Time>
            <Position>
              <LatitudeDegrees>43.521158359944820404052734375</LatitudeDegrees>
              <LongitudeDegrees>-1.50283777154982089996337890625</LongitudeDegrees>
            </Position>
            <AltitudeMeters>15.19999980926513671875</AltitudeMeters>
            <DistanceMeters>NAN</DistanceMeters>
          </Trackpoint>
          <Trackpoint>
            <Time>2022-07-07T14:30:51.000Z</Time>
            <Position>
              <LatitudeDegrees>43.52121208794414997100830078125</LatitudeDegrees>
              <LongitudeDegrees>-1.50288336910307407379150390625</LongitudeDegrees>
            </Position>
            <AltitudeMeters>15.19999980926513671875</AltitudeMeters>
            <DistanceMeters>NAN</DistanceMeters>
          </Trackpoint>
          <Trackpoint>
            <Time>2022-07-07T14:30:57.000Z</Time>
            <Position>
              <LatitudeDegrees>43.5212996788322925567626953125</LatitudeDegrees>
              <LongitudeDegrees>-1.50302611291408538818359375</LongitudeDegrees>
            </Position>
            <AltitudeMeters>15.6000003814697265625</AltitudeMeters>
            <DistanceMeters>NAN</DistanceMeters>
          </Trackpoint>
          <Trackpoint>
            <Time>2022-07-07T14:30:58.000Z</Time>
            <Position>
              <LatitudeDegrees>43.521316945552825927734375</LatitudeDegrees>
              <LongitudeDegrees>-1.50304899550974369049072265625</LongitudeDegrees>
            </Position>
            <AltitudeMeters>15.6000003814697265625</AltitudeMeters>
            <DistanceMeters>NAN</DistanceMeters>
          </Trackpoint>
          <Trackpoint>
            <Time>2022-07-07T14:31:04.000Z</Time>
            <Position>
              <LatitudeDegrees>43.521409146487712860107421875</LatitudeDegrees>
              <LongitudeDegrees>-1.50316198356449604034423828125</LongitudeDegrees>
            </Position>
            <AltitudeMeters>16.200000762939453125</AltitudeMeters>
            <DistanceMeters>NAN</DistanceMeters>
          </Trackpoint>
          <Trackpoint>
            <Time>2022-07-07T14:31:10.000Z</Time>
            <Position>
              <LatitudeDegrees>43.5215112380683422088623046875</LatitudeDegrees>
              <LongitudeDegrees>-1.50325435213744640350341796875</LongitudeDegrees>
            </Position>
            <AltitudeMeters>16.6000003814697265625</AltitudeMeters>
            <DistanceMeters>NAN</DistanceMeters>
          </Trackpoint>
          <Trackpoint>
            <Time>2022-07-07T14:31:12.000Z</Time>
            <Position>
              <LatitudeDegrees>43.52155189029872417449951171875</LatitudeDegrees>
              <LongitudeDegrees>-1.503263823688030242919921875</LongitudeDegrees>
            </Position>
            <AltitudeMeters>16.6000003814697265625</AltitudeMeters>
            <DistanceMeters>NAN</DistanceMeters>
          </Trackpoint>
          <Trackpoint>
            <Time>2022-07-07T14:31:16.000Z</Time>
            <Position>
              <LatitudeDegrees>43.5216309316456317901611328125</LatitudeDegrees>
              <LongitudeDegrees>-1.50329240597784519195556640625</LongitudeDegrees>
            </Position>
            <AltitudeMeters>16.799999237060546875</AltitudeMeters>
            <DistanceMeters>NAN</DistanceMeters>
          </Trackpoint>
          <Trackpoint>
            <Time>2022-07-07T14:31:21.000Z</Time>
            <Position>
              <LatitudeDegrees>43.521718941628932952880859375</LatitudeDegrees>
              <LongitudeDegrees>-1.50331579148769378662109375</LongitudeDegrees>
            </Position>
            <AltitudeMeters>17</AltitudeMeters>
            <DistanceMeters>NAN</DistanceMeters>
          </Trackpoint>
          <Trackpoint>
            <Time>2022-07-07T14:31:23.000Z</Time>
            <Position>
              <LatitudeDegrees>43.5217633657157421112060546875</LatitudeDegrees>
              <LongitudeDegrees>-1.5033330582082271575927734375</LongitudeDegrees>
            </Position>
            <AltitudeMeters>17.200000762939453125</AltitudeMeters>
            <DistanceMeters>NAN</DistanceMeters>
          </Trackpoint>
          <Trackpoint>
            <Time>2022-07-07T14:31:27.000Z</Time>
            <Position>
              <LatitudeDegrees>43.5218612663447856903076171875</LatitudeDegrees>
              <LongitudeDegrees>-1.50334437377750873565673828125</LongitudeDegrees>
            </Position>
            <AltitudeMeters>17.6000003814697265625</AltitudeMeters>
            <DistanceMeters>NAN</DistanceMeters>
          </Trackpoint>
          <Trackpoint>
            <Time>2022-07-07T14:31:29.000Z</Time>
            <Position>
              <LatitudeDegrees>43.52190325967967510223388671875</LatitudeDegrees>
              <LongitudeDegrees>-1.50335736572742462158203125</LongitudeDegrees>
            </Position>
            <AltitudeMeters>17.6000003814697265625</AltitudeMeters>
            <DistanceMeters>NAN</DistanceMeters>
          </Trackpoint>
          <Trackpoint>
            <Time>2022-07-07T14:31:30.000Z</Time>
            <Position>
              <LatitudeDegrees>43.52192580699920654296875</LatitudeDegrees>
              <LongitudeDegrees>-1.50335736572742462158203125</LongitudeDegrees>
            </Position>
            <AltitudeMeters>17.799999237060546875</AltitudeMeters>
            <DistanceMeters>NAN</DistanceMeters>
          </Trackpoint>
          <Trackpoint>
            <Time>2022-07-07T14:31:33.000Z</Time>
            <Position>
              <LatitudeDegrees>43.521994538605213165283203125</LatitudeDegrees>
              <LongitudeDegrees>-1.5033528394997119903564453125</LongitudeDegrees>
            </Position>
            <AltitudeMeters>18</AltitudeMeters>
            <DistanceMeters>NAN</DistanceMeters>
          </Trackpoint>
          <Trackpoint>
            <Time>2022-07-07T14:31:35.000Z</Time>
            <Position>
              <LatitudeDegrees>43.522043488919734954833984375</LatitudeDegrees>
              <LongitudeDegrees>-1.5033580362796783447265625</LongitudeDegrees>
            </Position>
            <AltitudeMeters>18.200000762939453125</AltitudeMeters>
            <DistanceMeters>NAN</DistanceMeters>
          </Trackpoint>
          <Trackpoint>
            <Time>2022-07-07T14:31:42.000Z</Time>
            <Position>
              <LatitudeDegrees>43.52223954163491725921630859375</LatitudeDegrees>
              <LongitudeDegrees>-1.50338762439787387847900390625</LongitudeDegrees>
            </Position>
            <AltitudeMeters>18.6000003814697265625</AltitudeMeters>
            <DistanceMeters>NAN</DistanceMeters>
          </Trackpoint>
          <Trackpoint>
            <Time>2022-07-07T14:31:43.000Z</Time>
            <Position>
              <LatitudeDegrees>43.52226200513541698455810546875</LatitudeDegrees>
              <LongitudeDegrees>-1.5033860318362712860107421875</LongitudeDegrees>
            </Position>
            <AltitudeMeters>18.799999237060546875</AltitudeMeters>
            <DistanceMeters>NAN</DistanceMeters>
          </Trackpoint>
          <Trackpoint>
            <Time>2022-07-07T14:31:50.000Z</Time>
            <Position>
              <LatitudeDegrees>43.52246023714542388916015625</LatitudeDegrees>
              <LongitudeDegrees>-1.50344965048134326934814453125</LongitudeDegrees>
            </Position>
            <AltitudeMeters>19.200000762939453125</AltitudeMeters>
            <DistanceMeters>NAN</DistanceMeters>
          </Trackpoint>
          <Trackpoint>
            <Time>2022-07-07T14:31:52.000Z</Time>
            <Position>
              <LatitudeDegrees>43.5225153900682926177978515625</LatitudeDegrees>
              <LongitudeDegrees>-1.50346859358251094818115234375</LongitudeDegrees>
            </Position>
            <AltitudeMeters>19.200000762939453125</AltitudeMeters>
            <DistanceMeters>NAN</DistanceMeters>
          </Trackpoint>
          <Trackpoint>
            <Time>2022-07-07T14:31:58.000Z</Time>
            <Position>
              <LatitudeDegrees>43.52268562652170658111572265625</LatitudeDegrees>
              <LongitudeDegrees>-1.503538750112056732177734375</LongitudeDegrees>
            </Position>
            <AltitudeMeters>19</AltitudeMeters>
            <DistanceMeters>NAN</DistanceMeters>
          </Trackpoint>
          <Trackpoint>
            <Time>2022-07-07T14:32:02.000Z</Time>
            <Position>
              <LatitudeDegrees>43.522811271250247955322265625</LatitudeDegrees>
              <LongitudeDegrees>-1.50357068516314029693603515625</LongitudeDegrees>
            </Position>
            <AltitudeMeters>18.799999237060546875</AltitudeMeters>
            <DistanceMeters>NAN</DistanceMeters>
          </Trackpoint>
          <Trackpoint>
            <Time>2022-07-07T14:32:04.000Z</Time>
            <Position>
              <LatitudeDegrees>43.52287036366760730743408203125</LatitudeDegrees>
              <LongitudeDegrees>-1.50360949337482452392578125</LongitudeDegrees>
            </Position>
            <AltitudeMeters>18.799999237060546875</AltitudeMeters>
            <DistanceMeters>NAN</DistanceMeters>
          </Trackpoint>
          <Trackpoint>
            <Time>2022-07-07T14:32:05.000Z</Time>
            <Position>
              <LatitudeDegrees>43.52289819158613681793212890625</LatitudeDegrees>
              <LongitudeDegrees>-1.5036284364759922027587890625</LongitudeDegrees>
            </Position>
            <AltitudeMeters>18.799999237060546875</AltitudeMeters>
            <DistanceMeters>NAN</DistanceMeters>
          </Trackpoint>
          <Trackpoint>
            <Time>2022-07-07T14:32:13.000Z</Time>
            <Position>
              <LatitudeDegrees>43.523092903196811676025390625</LatitudeDegrees>
              <LongitudeDegrees>-1.5037353895604610443115234375</LongitudeDegrees>
            </Position>
            <AltitudeMeters>18.6000003814697265625</AltitudeMeters>
            <DistanceMeters>NAN</DistanceMeters>
          </Trackpoint>
          <Trackpoint>
            <Time>2022-07-07T14:32:20.000Z</Time>
            <Position>
              <LatitudeDegrees>43.52326691150665283203125</LatitudeDegrees>
              <LongitudeDegrees>-1.50383806787431240081787109375</LongitudeDegrees>
            </Position>
            <AltitudeMeters>18.6000003814697265625</AltitudeMeters>
            <DistanceMeters>NAN</DistanceMeters>
          </Trackpoint>
          <Trackpoint>
            <Time>2022-07-07T14:32:28.000Z</Time>
            <Position>
              <LatitudeDegrees>43.523502610623836517333984375</LatitudeDegrees>
              <LongitudeDegrees>-1.50400889106094837188720703125</LongitudeDegrees>
            </Position>
            <AltitudeMeters>19</AltitudeMeters>
            <DistanceMeters>NAN</DistanceMeters>
          </Trackpoint>
          <Trackpoint>
            <Time>2022-07-07T14:32:36.000Z</Time>
            <Position>
              <LatitudeDegrees>43.52372934110462665557861328125</LatitudeDegrees>
              <LongitudeDegrees>-1.50413847528398036956787109375</LongitudeDegrees>
            </Position>
            <AltitudeMeters>18.3999996185302734375</AltitudeMeters>
            <DistanceMeters>NAN</DistanceMeters>
          </Trackpoint>
          <Trackpoint>
            <Time>2022-07-07T14:32:38.000Z</Time>
            <Position>
              <LatitudeDegrees>43.52379103191196918487548828125</LatitudeDegrees>
              <LongitudeDegrees>-1.50418323464691638946533203125</LongitudeDegrees>
            </Position>
            <AltitudeMeters>18.6000003814697265625</AltitudeMeters>
            <DistanceMeters>NAN</DistanceMeters>
          </Trackpoint>
          <Trackpoint>
            <Time>2022-07-07T14:32:41.000Z</Time>
            <Position>
              <LatitudeDegrees>43.5238611884415149688720703125</LatitudeDegrees>
              <LongitudeDegrees>-1.504232101142406463623046875</LongitudeDegrees>
            </Position>
            <AltitudeMeters>18</AltitudeMeters>
            <DistanceMeters>NAN</DistanceMeters>
          </Trackpoint>
          <Trackpoint>
            <Time>2022-07-07T14:32:42.000Z</Time>
            <Position>
              <LatitudeDegrees>43.523888848721981048583984375</LatitudeDegrees>
              <LongitudeDegrees>-1.5042523853480815887451171875</LongitudeDegrees>
            </Position>
            <AltitudeMeters>17.6000003814697265625</AltitudeMeters>
            <DistanceMeters>NAN</DistanceMeters>
          </Trackpoint>
          <Trackpoint>
            <Time>2022-07-07T14:32:43.000Z</Time>
            <Position>
              <LatitudeDegrees>43.52391642518341541290283203125</LatitudeDegrees>
              <LongitudeDegrees>-1.50426923297345638275146484375</LongitudeDegrees>
            </Position>
            <AltitudeMeters>17.6000003814697265625</AltitudeMeters>
            <DistanceMeters>NAN</DistanceMeters>
          </Trackpoint>
          <Trackpoint>
            <Time>2022-07-07T14:32:50.000Z</Time>
            <Position>
              <LatitudeDegrees>43.5241265594959259033203125</LatitudeDegrees>
              <LongitudeDegrees>-1.50438372977077960968017578125</LongitudeDegrees>
            </Position>
            <AltitudeMeters>18.3999996185302734375</AltitudeMeters>
            <DistanceMeters>NAN</DistanceMeters>
          </Trackpoint>
          <Trackpoint>
            <Time>2022-07-07T14:32:57.000Z</Time>
            <Position>
              <LatitudeDegrees>43.5242896713316440582275390625</LatitudeDegrees>
              <LongitudeDegrees>-1.5045943669974803924560546875</LongitudeDegrees>
            </Position>
            <AltitudeMeters>18.3999996185302734375</AltitudeMeters>
            <DistanceMeters>NAN</DistanceMeters>
          </Trackpoint>
          <Trackpoint>
            <Time>2022-07-07T14:33:02.000Z</Time>
            <Position>
              <LatitudeDegrees>43.5244117118418216705322265625</LatitudeDegrees>
              <LongitudeDegrees>-1.50479041971266269683837890625</LongitudeDegrees>
            </Position>
            <AltitudeMeters>17.799999237060546875</AltitudeMeters>
            <DistanceMeters>NAN</DistanceMeters>
          </Trackpoint>
          <Trackpoint>
            <Time>2022-07-07T14:33:03.000Z</Time>
            <Position>
              <LatitudeDegrees>43.524437360465526580810546875</LatitudeDegrees>
              <LongitudeDegrees>-1.504843644797801971435546875</LongitudeDegrees>
            </Position>
            <AltitudeMeters>17.6000003814697265625</AltitudeMeters>
            <DistanceMeters>NAN</DistanceMeters>
          </Trackpoint>
          <Trackpoint>
            <Time>2022-07-07T14:33:08.000Z</Time>
            <Position>
              <LatitudeDegrees>43.52454724721610546112060546875</LatitudeDegrees>
              <LongitudeDegrees>-1.50503106415271759033203125</LongitudeDegrees>
            </Position>
            <AltitudeMeters>16.799999237060546875</AltitudeMeters>
            <DistanceMeters>NAN</DistanceMeters>
          </Trackpoint>
          <Trackpoint>
            <Time>2022-07-07T14:33:09.000Z</Time>
            <Position>
              <LatitudeDegrees>43.524578176438808441162109375</LatitudeDegrees>
              <LongitudeDegrees>-1.50503014214336872100830078125</LongitudeDegrees>
            </Position>
            <AltitudeMeters>16.200000762939453125</AltitudeMeters>
            <DistanceMeters>NAN</DistanceMeters>
          </Trackpoint>
          <Trackpoint>
            <Time>2022-07-07T14:33:11.000Z</Time>
            <Position>
              <LatitudeDegrees>43.5246363468468189239501953125</LatitudeDegrees>
              <LongitudeDegrees>-1.50501337833702564239501953125</LongitudeDegrees>
            </Position>
            <AltitudeMeters>14.80000019073486328125</AltitudeMeters>
            <DistanceMeters>NAN</DistanceMeters>
          </Trackpoint>
          <Trackpoint>
            <Time>2022-07-07T14:33:13.000Z</Time>
            <Position>
              <LatitudeDegrees>43.524684794247150421142578125</LatitudeDegrees>
              <LongitudeDegrees>-1.504999883472919464111328125</LongitudeDegrees>
            </Position>
            <AltitudeMeters>14</AltitudeMeters>
            <DistanceMeters>NAN</DistanceMeters>
          </Trackpoint>
          <Trackpoint>
            <Time>2022-07-07T14:33:14.000Z</Time>
            <Position>
              <LatitudeDegrees>43.5247044079005718231201171875</LatitudeDegrees>
              <LongitudeDegrees>-1.50500667281448841094970703125</LongitudeDegrees>
            </Position>
            <AltitudeMeters>13.80000019073486328125</AltitudeMeters>
            <DistanceMeters>NAN</DistanceMeters>
          </Trackpoint>
          <Trackpoint>
            <Time>2022-07-07T14:33:16.000Z</Time>
            <Position>
              <LatitudeDegrees>43.52472745813429355621337890625</LatitudeDegrees>
              <LongitudeDegrees>-1.50505579076707363128662109375</LongitudeDegrees>
            </Position>
            <AltitudeMeters>13.80000019073486328125</AltitudeMeters>
            <DistanceMeters>NAN</DistanceMeters>
          </Trackpoint>
          <Trackpoint>
            <Time>2022-07-07T14:33:23.000Z</Time>
            <Position>
              <LatitudeDegrees>43.52474908344447612762451171875</LatitudeDegrees>
              <LongitudeDegrees>-1.50534211657941341400146484375</LongitudeDegrees>
            </Position>
            <AltitudeMeters>15.19999980926513671875</AltitudeMeters>
            <DistanceMeters>NAN</DistanceMeters>
          </Trackpoint>
          <Trackpoint>
            <Time>2022-07-07T14:33:26.000Z</Time>
            <Position>
              <LatitudeDegrees>43.52475109510123729705810546875</LatitudeDegrees>
              <LongitudeDegrees>-1.5054823458194732666015625</LongitudeDegrees>
            </Position>
            <AltitudeMeters>15.6000003814697265625</AltitudeMeters>
            <DistanceMeters>NAN</DistanceMeters>
          </Trackpoint>
          <Trackpoint>
            <Time>2022-07-07T14:33:28.000Z</Time>
            <Position>
              <LatitudeDegrees>43.524748496711254119873046875</LatitudeDegrees>
              <LongitudeDegrees>-1.50557060725986957550048828125</LongitudeDegrees>
            </Position>
            <AltitudeMeters>15.80000019073486328125</AltitudeMeters>
            <DistanceMeters>NAN</DistanceMeters>
          </Trackpoint>
          <Trackpoint>
            <Time>2022-07-07T14:33:33.000Z</Time>
            <Position>
              <LatitudeDegrees>43.5247479937970638275146484375</LatitudeDegrees>
              <LongitudeDegrees>-1.5057988464832305908203125</LongitudeDegrees>
            </Position>
            <AltitudeMeters>16</AltitudeMeters>
            <DistanceMeters>NAN</DistanceMeters>
          </Trackpoint>
          <Trackpoint>
            <Time>2022-07-07T14:33:37.000Z</Time>
            <Position>
              <LatitudeDegrees>43.52475486695766448974609375</LatitudeDegrees>
              <LongitudeDegrees>-1.50597863830626010894775390625</LongitudeDegrees>
            </Position>
            <AltitudeMeters>15.3999996185302734375</AltitudeMeters>
            <DistanceMeters>NAN</DistanceMeters>
          </Trackpoint>
          <Trackpoint>
            <Time>2022-07-07T14:33:38.000Z</Time>
            <Position>
              <LatitudeDegrees>43.52476157248020172119140625</LatitudeDegrees>
              <LongitudeDegrees>-1.5060333721339702606201171875</LongitudeDegrees>
            </Position>
            <AltitudeMeters>15.3999996185302734375</AltitudeMeters>
            <DistanceMeters>NAN</DistanceMeters>
          </Trackpoint>
          <Trackpoint>
            <Time>2022-07-07T14:33:44.000Z</Time>
            <Position>
              <LatitudeDegrees>43.5247878916561603546142578125</LatitudeDegrees>
              <LongitudeDegrees>-1.5063287504017353057861328125</LongitudeDegrees>
            </Position>
            <AltitudeMeters>15.3999996185302734375</AltitudeMeters>
            <DistanceMeters>NAN</DistanceMeters>
          </Trackpoint>
          <Trackpoint>
            <Time>2022-07-07T14:33:48.000Z</Time>
            <Position>
              <LatitudeDegrees>43.52481261827051639556884765625</LatitudeDegrees>
              <LongitudeDegrees>-1.5065101347863674163818359375</LongitudeDegrees>
            </Position>
            <AltitudeMeters>15.3999996185302734375</AltitudeMeters>
            <DistanceMeters>NAN</DistanceMeters>
          </Trackpoint>
          <Trackpoint>
            <Time>2022-07-07T14:33:52.000Z</Time>
            <Position>
              <LatitudeDegrees>43.524823598563671112060546875</LatitudeDegrees>
              <LongitudeDegrees>-1.5066948719322681427001953125</LongitudeDegrees>
            </Position>
            <AltitudeMeters>14.80000019073486328125</AltitudeMeters>
            <DistanceMeters>NAN</DistanceMeters>
          </Trackpoint>
          <Trackpoint>
            <Time>2022-07-07T14:33:53.000Z</Time>
            <Position>
              <LatitudeDegrees>43.52482535876333713531494140625</LatitudeDegrees>
              <LongitudeDegrees>-1.5067441575229167938232421875</LongitudeDegrees>
            </Position>
            <AltitudeMeters>14.80000019073486328125</AltitudeMeters>
            <DistanceMeters>NAN</DistanceMeters>
          </Trackpoint>
          <Trackpoint>
            <Time>2022-07-07T14:33:57.000Z</Time>
            <Position>
              <LatitudeDegrees>43.52484564296901226043701171875</LatitudeDegrees>
              <LongitudeDegrees>-1.50692545808851718902587890625</LongitudeDegrees>
            </Position>
            <AltitudeMeters>15</AltitudeMeters>
            <DistanceMeters>NAN</DistanceMeters>
          </Trackpoint>
          <Trackpoint>
            <Time>2022-07-07T14:34:04.000Z</Time>
            <Position>
              <LatitudeDegrees>43.5248948447406291961669921875</LatitudeDegrees>
              <LongitudeDegrees>-1.507252939045429229736328125</LongitudeDegrees>
            </Position>
            <AltitudeMeters>15</AltitudeMeters>
            <DistanceMeters>NAN</DistanceMeters>
          </Trackpoint>
          <Trackpoint>
            <Time>2022-07-07T14:34:09.000Z</Time>
            <Position>
              <LatitudeDegrees>43.5249833576381206512451171875</LatitudeDegrees>
              <LongitudeDegrees>-1.50741948746144771575927734375</LongitudeDegrees>
            </Position>
            <AltitudeMeters>15.19999980926513671875</AltitudeMeters>
            <DistanceMeters>NAN</DistanceMeters>
          </Trackpoint>
          <Trackpoint>
            <Time>2022-07-07T14:34:18.000Z</Time>
            <Position>
              <LatitudeDegrees>43.5251082479953765869140625</LatitudeDegrees>
              <LongitudeDegrees>-1.50783103890717029571533203125</LongitudeDegrees>
            </Position>
            <AltitudeMeters>15.3999996185302734375</AltitudeMeters>
            <DistanceMeters>NAN</DistanceMeters>
          </Trackpoint>
          <Trackpoint>
            <Time>2022-07-07T14:34:25.000Z</Time>
            <Position>
              <LatitudeDegrees>43.525197096168994903564453125</LatitudeDegrees>
              <LongitudeDegrees>-1.50814083404839038848876953125</LongitudeDegrees>
            </Position>
            <AltitudeMeters>15.3999996185302734375</AltitudeMeters>
            <DistanceMeters>NAN</DistanceMeters>
          </Trackpoint>
          <Trackpoint>
            <Time>2022-07-07T14:34:27.000Z</Time>
            <Position>
              <LatitudeDegrees>43.52522433735430240631103515625</LatitudeDegrees>
              <LongitudeDegrees>-1.50822213850915431976318359375</LongitudeDegrees>
            </Position>
            <AltitudeMeters>15</AltitudeMeters>
            <DistanceMeters>NAN</DistanceMeters>
          </Trackpoint>
          <Trackpoint>
            <Time>2022-07-07T14:34:29.000Z</Time>
            <Position>
              <LatitudeDegrees>43.5252663306891918182373046875</LatitudeDegrees>
              <LongitudeDegrees>-1.50832691229879856109619140625</LongitudeDegrees>
            </Position>
            <AltitudeMeters>15</AltitudeMeters>
            <DistanceMeters>NAN</DistanceMeters>
          </Trackpoint>
          <Trackpoint>
            <Time>2022-07-07T14:34:33.000Z</Time>
            <Position>
              <LatitudeDegrees>43.52534017525613307952880859375</LatitudeDegrees>
              <LongitudeDegrees>-1.50853495113551616668701171875</LongitudeDegrees>
            </Position>
            <AltitudeMeters>15</AltitudeMeters>
            <DistanceMeters>NAN</DistanceMeters>
          </Trackpoint>
          <Trackpoint>
            <Time>2022-07-07T14:34:35.000Z</Time>
            <Position>
              <LatitudeDegrees>43.525371439754962921142578125</LatitudeDegrees>
              <LongitudeDegrees>-1.50860904715955257415771484375</LongitudeDegrees>
            </Position>
            <AltitudeMeters>15</AltitudeMeters>
            <DistanceMeters>NAN</DistanceMeters>
          </Trackpoint>
          <Trackpoint>
            <Time>2022-07-07T14:34:37.000Z</Time>
            <Position>
              <LatitudeDegrees>43.52540538646280765533447265625</LatitudeDegrees>
              <LongitudeDegrees>-1.50869772769510746002197265625</LongitudeDegrees>
            </Position>
            <AltitudeMeters>15.19999980926513671875</AltitudeMeters>
            <DistanceMeters>NAN</DistanceMeters>
          </Trackpoint>
          <Trackpoint>
            <Time>2022-07-07T14:34:41.000Z</Time>
            <Position>
              <LatitudeDegrees>43.52546774782240390777587890625</LatitudeDegrees>
              <LongitudeDegrees>-1.50887274183332920074462890625</LongitudeDegrees>
            </Position>
            <AltitudeMeters>15.19999980926513671875</AltitudeMeters>
            <DistanceMeters>NAN</DistanceMeters>
          </Trackpoint>
          <Trackpoint>
            <Time>2022-07-07T14:34:51.000Z</Time>
            <Position>
              <LatitudeDegrees>43.5256495513021945953369140625</LatitudeDegrees>
              <LongitudeDegrees>-1.5093422122299671173095703125</LongitudeDegrees>
            </Position>
            <AltitudeMeters>15.3999996185302734375</AltitudeMeters>
            <DistanceMeters>NAN</DistanceMeters>
          </Trackpoint>
          <Trackpoint>
            <Time>2022-07-07T14:34:55.000Z</Time>
            <Position>
              <LatitudeDegrees>43.525716103613376617431640625</LatitudeDegrees>
              <LongitudeDegrees>-1.50953575037419795989990234375</LongitudeDegrees>
            </Position>
            <AltitudeMeters>15.6000003814697265625</AltitudeMeters>
            <DistanceMeters>NAN</DistanceMeters>
          </Trackpoint>
          <Trackpoint>
            <Time>2022-07-07T14:34:58.000Z</Time>
            <Position>
              <LatitudeDegrees>43.5257662273943424224853515625</LatitudeDegrees>
              <LongitudeDegrees>-1.5096865408122539520263671875</LongitudeDegrees>
            </Position>
            <AltitudeMeters>15.80000019073486328125</AltitudeMeters>
            <DistanceMeters>NAN</DistanceMeters>
          </Trackpoint>
          <Trackpoint>
            <Time>2022-07-07T14:35:02.000Z</Time>
            <Position>
              <LatitudeDegrees>43.52587611414492130279541015625</LatitudeDegrees>
              <LongitudeDegrees>-1.50984688661992549896240234375</LongitudeDegrees>
            </Position>
            <AltitudeMeters>15.3999996185302734375</AltitudeMeters>
            <DistanceMeters>NAN</DistanceMeters>
          </Trackpoint>
          <Trackpoint>
            <Time>2022-07-07T14:35:03.000Z</Time>
            <Position>
              <LatitudeDegrees>43.52590980939567089080810546875</LatitudeDegrees>
              <LongitudeDegrees>-1.5098400972783565521240234375</LongitudeDegrees>
            </Position>
            <AltitudeMeters>15.3999996185302734375</AltitudeMeters>
            <DistanceMeters>NAN</DistanceMeters>
          </Trackpoint>
          <Trackpoint>
            <Time>2022-07-07T14:35:09.000Z</Time>
            <Position>
              <LatitudeDegrees>43.526105694472789764404296875</LatitudeDegrees>
              <LongitudeDegrees>-1.509700454771518707275390625</LongitudeDegrees>
            </Position>
            <AltitudeMeters>15.3999996185302734375</AltitudeMeters>
            <DistanceMeters>NAN</DistanceMeters>
          </Trackpoint>
          <Trackpoint>
            <Time>2022-07-07T14:35:12.000Z</Time>
            <Position>
              <LatitudeDegrees>43.52618725039064884185791015625</LatitudeDegrees>
              <LongitudeDegrees>-1.50973104871809482574462890625</LongitudeDegrees>
            </Position>
            <AltitudeMeters>15.3999996185302734375</AltitudeMeters>
            <DistanceMeters>NAN</DistanceMeters>
          </Trackpoint>
          <Trackpoint>
            <Time>2022-07-07T14:35:13.000Z</Time>
            <Position>
              <LatitudeDegrees>43.52619747631251811981201171875</LatitudeDegrees>
              <LongitudeDegrees>-1.509774215519428253173828125</LongitudeDegrees>
            </Position>
            <AltitudeMeters>15.3999996185302734375</AltitudeMeters>
            <DistanceMeters>NAN</DistanceMeters>
          </Trackpoint>
          <Trackpoint>
            <Time>2022-07-07T14:35:16.000Z</Time>
            <Position>
              <LatitudeDegrees>43.52622069418430328369140625</LatitudeDegrees>
              <LongitudeDegrees>-1.5099480561912059783935546875</LongitudeDegrees>
            </Position>
            <AltitudeMeters>15.6000003814697265625</AltitudeMeters>
            <DistanceMeters>NAN</DistanceMeters>
          </Trackpoint>
          <Trackpoint>
            <Time>2022-07-07T14:35:18.000Z</Time>
            <Position>
              <LatitudeDegrees>43.5262295790016651153564453125</LatitudeDegrees>
              <LongitudeDegrees>-1.5100650675594806671142578125</LongitudeDegrees>
            </Position>
            <AltitudeMeters>15.6000003814697265625</AltitudeMeters>
            <DistanceMeters>NAN</DistanceMeters>
          </Trackpoint>
          <Trackpoint>
            <Time>2022-07-07T14:35:24.000Z</Time>
            <Position>
              <LatitudeDegrees>43.52627970278263092041015625</LatitudeDegrees>
              <LongitudeDegrees>-1.5103808976709842681884765625</LongitudeDegrees>
            </Position>
            <AltitudeMeters>15.19999980926513671875</AltitudeMeters>
            <DistanceMeters>NAN</DistanceMeters>
          </Trackpoint>
          <Trackpoint>
            <Time>2022-07-07T14:35:32.000Z</Time>
            <Position>
              <LatitudeDegrees>43.526340387761592864990234375</LatitudeDegrees>
              <LongitudeDegrees>-1.510758586227893829345703125</LongitudeDegrees>
            </Position>
            <AltitudeMeters>15.19999980926513671875</AltitudeMeters>
            <DistanceMeters>NAN</DistanceMeters>
          </Trackpoint>
          <Trackpoint>
            <Time>2022-07-07T14:35:40.000Z</Time>
            <Position>
              <LatitudeDegrees>43.5263707302510738372802734375</LatitudeDegrees>
              <LongitudeDegrees>-1.51112546212971210479736328125</LongitudeDegrees>
            </Position>
            <AltitudeMeters>15.80000019073486328125</AltitudeMeters>
            <DistanceMeters>NAN</DistanceMeters>
          </Trackpoint>
          <Trackpoint>
            <Time>2022-07-07T14:35:42.000Z</Time>
            <Position>
              <LatitudeDegrees>43.52639126591384410858154296875</LatitudeDegrees>
              <LongitudeDegrees>-1.511205844581127166748046875</LongitudeDegrees>
            </Position>
            <AltitudeMeters>16.200000762939453125</AltitudeMeters>
            <DistanceMeters>NAN</DistanceMeters>
          </Trackpoint>
          <Trackpoint>
            <Time>2022-07-07T14:35:46.000Z</Time>
            <Position>
              <LatitudeDegrees>43.526416160166263580322265625</LatitudeDegrees>
              <LongitudeDegrees>-1.51134992949664592742919921875</LongitudeDegrees>
            </Position>
            <AltitudeMeters>16.200000762939453125</AltitudeMeters>
            <DistanceMeters>NAN</DistanceMeters>
          </Trackpoint>
          <Trackpoint>
            <Time>2022-07-07T14:35:49.000Z</Time>
            <Position>
              <LatitudeDegrees>43.52642395533621311187744140625</LatitudeDegrees>
              <LongitudeDegrees>-1.51146140880882740020751953125</LongitudeDegrees>
            </Position>
            <AltitudeMeters>16.3999996185302734375</AltitudeMeters>
            <DistanceMeters>NAN</DistanceMeters>
          </Trackpoint>
          <Trackpoint>
            <Time>2022-07-07T14:35:52.000Z</Time>
            <Position>
              <LatitudeDegrees>43.5264381207525730133056640625</LatitudeDegrees>
              <LongitudeDegrees>-1.51155947707593441009521484375</LongitudeDegrees>
            </Position>
            <AltitudeMeters>17</AltitudeMeters>
            <DistanceMeters>NAN</DistanceMeters>
          </Trackpoint>
          <Trackpoint>
            <Time>2022-07-07T14:35:58.000Z</Time>
            <Position>
              <LatitudeDegrees>43.52647307328879833221435546875</LatitudeDegrees>
              <LongitudeDegrees>-1.51174488477408885955810546875</LongitudeDegrees>
            </Position>
            <AltitudeMeters>17.200000762939453125</AltitudeMeters>
            <DistanceMeters>NAN</DistanceMeters>
          </Trackpoint>
          <Trackpoint>
            <Time>2022-07-07T14:36:03.000Z</Time>
            <Position>
              <LatitudeDegrees>43.52647709660232067108154296875</LatitudeDegrees>
              <LongitudeDegrees>-1.51189374737441539764404296875</LongitudeDegrees>
            </Position>
            <AltitudeMeters>17.200000762939453125</AltitudeMeters>
            <DistanceMeters>NAN</DistanceMeters>
          </Trackpoint>
          <Trackpoint>
            <Time>2022-07-07T14:36:05.000Z</Time>
            <Position>
              <LatitudeDegrees>43.52646502666175365447998046875</LatitudeDegrees>
              <LongitudeDegrees>-1.5119483135640621185302734375</LongitudeDegrees>
            </Position>
            <AltitudeMeters>17.3999996185302734375</AltitudeMeters>
            <DistanceMeters>NAN</DistanceMeters>
          </Trackpoint>
          <Trackpoint>
            <Time>2022-07-07T14:36:08.000Z</Time>
            <Position>
              <LatitudeDegrees>43.526447676122188568115234375</LatitudeDegrees>
              <LongitudeDegrees>-1.5120374970138072967529296875</LongitudeDegrees>
            </Position>
            <AltitudeMeters>18</AltitudeMeters>
            <DistanceMeters>NAN</DistanceMeters>
          </Trackpoint>
          <Trackpoint>
            <Time>2022-07-07T14:36:10.000Z</Time>
            <Position>
              <LatitudeDegrees>43.52645806968212127685546875</LatitudeDegrees>
              <LongitudeDegrees>-1.51209273375570774078369140625</LongitudeDegrees>
            </Position>
            <AltitudeMeters>18</AltitudeMeters>
            <DistanceMeters>NAN</DistanceMeters>
          </Trackpoint>
          <Trackpoint>
            <Time>2022-07-07T14:36:13.000Z</Time>
            <Position>
              <LatitudeDegrees>43.526488579809665679931640625</LatitudeDegrees>
              <LongitudeDegrees>-1.5121877007186412811279296875</LongitudeDegrees>
            </Position>
            <AltitudeMeters>18</AltitudeMeters>
            <DistanceMeters>NAN</DistanceMeters>
          </Trackpoint>
          <Trackpoint>
            <Time>2022-07-07T14:36:16.000Z</Time>
            <Position>
              <LatitudeDegrees>43.52651749737560749053955078125</LatitudeDegrees>
              <LongitudeDegrees>-1.51229809038341045379638671875</LongitudeDegrees>
            </Position>
            <AltitudeMeters>17.799999237060546875</AltitudeMeters>
            <DistanceMeters>NAN</DistanceMeters>
          </Trackpoint>
          <Trackpoint>
            <Time>2022-07-07T14:36:19.000Z</Time>
            <Position>
              <LatitudeDegrees>43.52654817514121532440185546875</LatitudeDegrees>
              <LongitudeDegrees>-1.512415520846843719482421875</LongitudeDegrees>
            </Position>
            <AltitudeMeters>18</AltitudeMeters>
            <DistanceMeters>NAN</DistanceMeters>
          </Trackpoint>
          <Trackpoint>
            <Time>2022-07-07T14:36:26.000Z</Time>
            <Position>
              <LatitudeDegrees>43.52656829170882701873779296875</LatitudeDegrees>
              <LongitudeDegrees>-1.51273436844348907470703125</LongitudeDegrees>
            </Position>
            <AltitudeMeters>18.6000003814697265625</AltitudeMeters>
            <DistanceMeters>NAN</DistanceMeters>
          </Trackpoint>
          <Trackpoint>
            <Time>2022-07-07T14:36:32.000Z</Time>
            <Position>
              <LatitudeDegrees>43.52656443603336811065673828125</LatitudeDegrees>
              <LongitudeDegrees>-1.51299093849956989288330078125</LongitudeDegrees>
            </Position>
            <AltitudeMeters>19</AltitudeMeters>
            <DistanceMeters>NAN</DistanceMeters>
          </Trackpoint>
          <Trackpoint>
            <Time>2022-07-07T14:36:33.000Z</Time>
            <Position>
              <LatitudeDegrees>43.5265584848821163177490234375</LatitudeDegrees>
              <LongitudeDegrees>-1.51303620077669620513916015625</LongitudeDegrees>
            </Position>
            <AltitudeMeters>19.200000762939453125</AltitudeMeters>
            <DistanceMeters>NAN</DistanceMeters>
          </Trackpoint>
          <Trackpoint>
            <Time>2022-07-07T14:36:38.000Z</Time>
            <Position>
              <LatitudeDegrees>43.52651833556592464447021484375</LatitudeDegrees>
              <LongitudeDegrees>-1.51323552243411540985107421875</LongitudeDegrees>
            </Position>
            <AltitudeMeters>18.799999237060546875</AltitudeMeters>
            <DistanceMeters>NAN</DistanceMeters>
          </Trackpoint>
          <Trackpoint>
            <Time>2022-07-07T14:36:41.000Z</Time>
            <Position>
              <LatitudeDegrees>43.5265058465301990509033203125</LatitudeDegrees>
              <LongitudeDegrees>-1.51334633119404315948486328125</LongitudeDegrees>
            </Position>
            <AltitudeMeters>18.799999237060546875</AltitudeMeters>
            <DistanceMeters>NAN</DistanceMeters>
          </Trackpoint>
          <Trackpoint>
            <Time>2022-07-07T14:36:45.000Z</Time>
            <Position>
              <LatitudeDegrees>43.52649134583771228790283203125</LatitudeDegrees>
              <LongitudeDegrees>-1.513401567935943603515625</LongitudeDegrees>
            </Position>
            <AltitudeMeters>18.3999996185302734375</AltitudeMeters>
            <DistanceMeters>NAN</DistanceMeters>
          </Trackpoint>
          <Trackpoint>
            <Time>2022-07-07T14:36:46.000Z</Time>
            <Position>
              <LatitudeDegrees>43.5264951176941394805908203125</LatitudeDegrees>
              <LongitudeDegrees>-1.51339544914662837982177734375</LongitudeDegrees>
            </Position>
            <AltitudeMeters>18.200000762939453125</AltitudeMeters>
            <DistanceMeters>NAN</DistanceMeters>
          </Trackpoint>
          <Trackpoint>
            <Time>2022-07-07T14:37:04.000Z</Time>
            <Position>
              <LatitudeDegrees>43.526471816003322601318359375</LatitudeDegrees>
              <LongitudeDegrees>-1.51345320045948028564453125</LongitudeDegrees>
            </Position>
            <AltitudeMeters>18</AltitudeMeters>
            <DistanceMeters>NAN</DistanceMeters>
          </Trackpoint>
          <Trackpoint>
            <Time>2022-07-07T14:37:06.000Z</Time>
            <Position>
              <LatitudeDegrees>43.526453711092472076416015625</LatitudeDegrees>
              <LongitudeDegrees>-1.51350743137300014495849609375</LongitudeDegrees>
            </Position>
            <AltitudeMeters>18</AltitudeMeters>
            <DistanceMeters>NAN</DistanceMeters>
          </Trackpoint>
          <Trackpoint>
            <Time>2022-07-07T14:37:12.000Z</Time>
            <Position>
              <LatitudeDegrees>43.5263891704380512237548828125</LatitudeDegrees>
              <LongitudeDegrees>-1.5137319825589656829833984375</LongitudeDegrees>
            </Position>
            <AltitudeMeters>18.200000762939453125</AltitudeMeters>
            <DistanceMeters>NAN</DistanceMeters>
          </Trackpoint>
          <Trackpoint>
            <Time>2022-07-07T14:37:15.000Z</Time>
            <Position>
              <LatitudeDegrees>43.5263563133776187896728515625</LatitudeDegrees>
              <LongitudeDegrees>-1.5138570405542850494384765625</LongitudeDegrees>
            </Position>
            <AltitudeMeters>18.200000762939453125</AltitudeMeters>
            <DistanceMeters>NAN</DistanceMeters>
          </Trackpoint>
          <Trackpoint>
            <Time>2022-07-07T14:37:18.000Z</Time>
            <Position>
              <LatitudeDegrees>43.52631566114723682403564453125</LatitudeDegrees>
              <LongitudeDegrees>-1.5139867924153804779052734375</LongitudeDegrees>
            </Position>
            <AltitudeMeters>18.200000762939453125</AltitudeMeters>
            <DistanceMeters>NAN</DistanceMeters>
          </Trackpoint>
          <Trackpoint>
            <Time>2022-07-07T14:37:21.000Z</Time>
            <Position>
              <LatitudeDegrees>43.52628850378096103668212890625</LatitudeDegrees>
              <LongitudeDegrees>-1.51411863975226879119873046875</LongitudeDegrees>
            </Position>
            <AltitudeMeters>18.3999996185302734375</AltitudeMeters>
            <DistanceMeters>NAN</DistanceMeters>
          </Trackpoint>
          <Trackpoint>
            <Time>2022-07-07T14:37:26.000Z</Time>
            <Position>
              <LatitudeDegrees>43.526244498789310455322265625</LatitudeDegrees>
              <LongitudeDegrees>-1.514342017471790313720703125</LongitudeDegrees>
            </Position>
            <AltitudeMeters>18.6000003814697265625</AltitudeMeters>
            <DistanceMeters>NAN</DistanceMeters>
          </Trackpoint>
          <Trackpoint>
            <Time>2022-07-07T14:37:32.000Z</Time>
            <Position>
              <LatitudeDegrees>43.52620233781635761260986328125</LatitudeDegrees>
              <LongitudeDegrees>-1.5145884454250335693359375</LongitudeDegrees>
            </Position>
            <AltitudeMeters>18.6000003814697265625</AltitudeMeters>
            <DistanceMeters>NAN</DistanceMeters>
          </Trackpoint>
          <Trackpoint>
            <Time>2022-07-07T14:37:39.000Z</Time>
            <Position>
              <LatitudeDegrees>43.52615389041602611541748046875</LatitudeDegrees>
              <LongitudeDegrees>-1.5148581750690937042236328125</LongitudeDegrees>
            </Position>
            <AltitudeMeters>18.799999237060546875</AltitudeMeters>
            <DistanceMeters>NAN</DistanceMeters>
          </Trackpoint>
          <Trackpoint>
            <Time>2022-07-07T14:37:44.000Z</Time>
            <Position>
              <LatitudeDegrees>43.526120446622371673583984375</LatitudeDegrees>
              <LongitudeDegrees>-1.51505942456424236297607421875</LongitudeDegrees>
            </Position>
            <AltitudeMeters>19</AltitudeMeters>
            <DistanceMeters>NAN</DistanceMeters>
          </Trackpoint>
          <Trackpoint>
            <Time>2022-07-07T14:37:46.000Z</Time>
            <Position>
              <LatitudeDegrees>43.526109047234058380126953125</LatitudeDegrees>
              <LongitudeDegrees>-1.5151356160640716552734375</LongitudeDegrees>
            </Position>
            <AltitudeMeters>19.200000762939453125</AltitudeMeters>
            <DistanceMeters>NAN</DistanceMeters>
          </Trackpoint>
          <Trackpoint>
            <Time>2022-07-07T14:37:50.000Z</Time>
            <Position>
              <LatitudeDegrees>43.52608582936227321624755859375</LatitudeDegrees>
              <LongitudeDegrees>-1.51528020389378070831298828125</LongitudeDegrees>
            </Position>
            <AltitudeMeters>19.3999996185302734375</AltitudeMeters>
            <DistanceMeters>NAN</DistanceMeters>
          </Trackpoint>
          <Trackpoint>
            <Time>2022-07-07T14:37:53.000Z</Time>
            <Position>
              <LatitudeDegrees>43.5260797105729579925537109375</LatitudeDegrees>
              <LongitudeDegrees>-1.51539252139627933502197265625</LongitudeDegrees>
            </Position>
            <AltitudeMeters>19.6000003814697265625</AltitudeMeters>
            <DistanceMeters>NAN</DistanceMeters>
          </Trackpoint>
          <Trackpoint>
            <Time>2022-07-07T14:38:01.000Z</Time>
            <Position>
              <LatitudeDegrees>43.52605196647346019744873046875</LatitudeDegrees>
              <LongitudeDegrees>-1.5157047472894191741943359375</LongitudeDegrees>
            </Position>
            <AltitudeMeters>20</AltitudeMeters>
            <DistanceMeters>NAN</DistanceMeters>
          </Trackpoint>
          <Trackpoint>
            <Time>2022-07-07T14:38:09.000Z</Time>
            <Position>
              <LatitudeDegrees>43.52603268809616565704345703125</LatitudeDegrees>
              <LongitudeDegrees>-1.51599434204399585723876953125</LongitudeDegrees>
            </Position>
            <AltitudeMeters>20</AltitudeMeters>
            <DistanceMeters>NAN</DistanceMeters>
          </Trackpoint>
          <Trackpoint>
            <Time>2022-07-07T14:38:11.000Z</Time>
            <Position>
              <LatitudeDegrees>43.5260250605642795562744140625</LatitudeDegrees>
              <LongitudeDegrees>-1.51606072671711444854736328125</LongitudeDegrees>
            </Position>
            <AltitudeMeters>20</AltitudeMeters>
            <DistanceMeters>NAN</DistanceMeters>
          </Trackpoint>
          <Trackpoint>
            <Time>2022-07-07T14:38:18.000Z</Time>
            <Position>
              <LatitudeDegrees>43.5260307602584362030029296875</LatitudeDegrees>
              <LongitudeDegrees>-1.5163079090416431427001953125</LongitudeDegrees>
            </Position>
            <AltitudeMeters>20.3999996185302734375</AltitudeMeters>
            <DistanceMeters>NAN</DistanceMeters>
          </Trackpoint>
          <Trackpoint>
            <Time>2022-07-07T14:38:27.000Z</Time>
            <Position>
              <LatitudeDegrees>43.52604425512254238128662109375</LatitudeDegrees>
              <LongitudeDegrees>-1.516633965075016021728515625</LongitudeDegrees>
            </Position>
            <AltitudeMeters>20.3999996185302734375</AltitudeMeters>
            <DistanceMeters>NAN</DistanceMeters>
          </Trackpoint>
          <Trackpoint>
            <Time>2022-07-07T14:38:29.000Z</Time>
            <Position>
              <LatitudeDegrees>43.52602397091686725616455078125</LatitudeDegrees>
              <LongitudeDegrees>-1.5167075581848621368408203125</LongitudeDegrees>
            </Position>
            <AltitudeMeters>20.3999996185302734375</AltitudeMeters>
            <DistanceMeters>NAN</DistanceMeters>
          </Trackpoint>
          <Trackpoint>
            <Time>2022-07-07T14:38:30.000Z</Time>
            <Position>
              <LatitudeDegrees>43.52602011524140834808349609375</LatitudeDegrees>
              <LongitudeDegrees>-1.51675038971006870269775390625</LongitudeDegrees>
            </Position>
            <AltitudeMeters>20.3999996185302734375</AltitudeMeters>
            <DistanceMeters>NAN</DistanceMeters>
          </Trackpoint>
          <Trackpoint>
            <Time>2022-07-07T14:38:35.000Z</Time>
            <Position>
              <LatitudeDegrees>43.52601374499499797821044921875</LatitudeDegrees>
              <LongitudeDegrees>-1.51693194173276424407958984375</LongitudeDegrees>
            </Position>
            <AltitudeMeters>20.3999996185302734375</AltitudeMeters>
            <DistanceMeters>NAN</DistanceMeters>
          </Trackpoint>
          <Trackpoint>
            <Time>2022-07-07T14:38:40.000Z</Time>
            <Position>
              <LatitudeDegrees>43.5259851627051830291748046875</LatitudeDegrees>
              <LongitudeDegrees>-1.51716160587966442108154296875</LongitudeDegrees>
            </Position>
            <AltitudeMeters>20</AltitudeMeters>
            <DistanceMeters>NAN</DistanceMeters>
          </Trackpoint>
          <Trackpoint>
            <Time>2022-07-07T14:38:43.000Z</Time>
            <Position>
              <LatitudeDegrees>43.52590561844408512115478515625</LatitudeDegrees>
              <LongitudeDegrees>-1.5172208659350872039794921875</LongitudeDegrees>
            </Position>
            <AltitudeMeters>20.200000762939453125</AltitudeMeters>
            <DistanceMeters>NAN</DistanceMeters>
          </Trackpoint>
          <Trackpoint>
            <Time>2022-07-07T14:38:44.000Z</Time>
            <Position>
              <LatitudeDegrees>43.5258822329342365264892578125</LatitudeDegrees>
              <LongitudeDegrees>-1.51723804883658885955810546875</LongitudeDegrees>
            </Position>
            <AltitudeMeters>20.200000762939453125</AltitudeMeters>
            <DistanceMeters>NAN</DistanceMeters>
          </Trackpoint>
          <Trackpoint>
            <Time>2022-07-07T14:38:46.000Z</Time>
            <Position>
              <LatitudeDegrees>43.52584929205477237701416015625</LatitudeDegrees>
              <LongitudeDegrees>-1.51726202107965946197509765625</LongitudeDegrees>
            </Position>
            <AltitudeMeters>20.200000762939453125</AltitudeMeters>
            <DistanceMeters>NAN</DistanceMeters>
          </Trackpoint>
          <Trackpoint>
            <Time>2022-07-07T14:38:48.000Z</Time>
            <Position>
              <LatitudeDegrees>43.52578558959066867828369140625</LatitudeDegrees>
              <LongitudeDegrees>-1.5172429941594600677490234375</LongitudeDegrees>
            </Position>
            <AltitudeMeters>20.200000762939453125</AltitudeMeters>
            <DistanceMeters>NAN</DistanceMeters>
          </Trackpoint>
          <Trackpoint>
            <Time>2022-07-07T14:38:52.000Z</Time>
            <Position>
              <LatitudeDegrees>43.525693304836750030517578125</LatitudeDegrees>
              <LongitudeDegrees>-1.51725229807198047637939453125</LongitudeDegrees>
            </Position>
            <AltitudeMeters>20.3999996185302734375</AltitudeMeters>
            <DistanceMeters>NAN</DistanceMeters>
          </Trackpoint>
          <Trackpoint>
            <Time>2022-07-07T14:38:56.000Z</Time>
            <Position>
              <LatitudeDegrees>43.52561074309051036834716796875</LatitudeDegrees>
              <LongitudeDegrees>-1.51731130667030811309814453125</LongitudeDegrees>
            </Position>
            <AltitudeMeters>21</AltitudeMeters>
            <DistanceMeters>NAN</DistanceMeters>
          </Trackpoint>
          <Trackpoint>
            <Time>2022-07-07T14:39:01.000Z</Time>
            <Position>
              <LatitudeDegrees>43.5255275107920169830322265625</LatitudeDegrees>
              <LongitudeDegrees>-1.51742412708699703216552734375</LongitudeDegrees>
            </Position>
            <AltitudeMeters>21.200000762939453125</AltitudeMeters>
            <DistanceMeters>NAN</DistanceMeters>
          </Trackpoint>
          <Trackpoint>
            <Time>2022-07-07T14:39:07.000Z</Time>
            <Position>
              <LatitudeDegrees>43.52538786828517913818359375</LatitudeDegrees>
              <LongitudeDegrees>-1.51754734106361865997314453125</LongitudeDegrees>
            </Position>
            <AltitudeMeters>21.200000762939453125</AltitudeMeters>
            <DistanceMeters>NAN</DistanceMeters>
          </Trackpoint>
          <Trackpoint>
            <Time>2022-07-07T14:39:14.000Z</Time>
            <Position>
              <LatitudeDegrees>43.52521226741373538970947265625</LatitudeDegrees>
              <LongitudeDegrees>-1.51772721670567989349365234375</LongitudeDegrees>
            </Position>
            <AltitudeMeters>21</AltitudeMeters>
            <DistanceMeters>NAN</DistanceMeters>
          </Trackpoint>
          <Trackpoint>
            <Time>2022-07-07T14:39:23.000Z</Time>
            <Position>
              <LatitudeDegrees>43.524939604103565216064453125</LatitudeDegrees>
              <LongitudeDegrees>-1.517994515597820281982421875</LongitudeDegrees>
            </Position>
            <AltitudeMeters>20.799999237060546875</AltitudeMeters>
            <DistanceMeters>NAN</DistanceMeters>
          </Trackpoint>
          <Trackpoint>
            <Time>2022-07-07T14:39:31.000Z</Time>
            <Position>
              <LatitudeDegrees>43.52467196993529796600341796875</LatitudeDegrees>
              <LongitudeDegrees>-1.51827044785022735595703125</LongitudeDegrees>
            </Position>
            <AltitudeMeters>21</AltitudeMeters>
            <DistanceMeters>NAN</DistanceMeters>
          </Trackpoint>
          <Trackpoint>
            <Time>2022-07-07T14:39:32.000Z</Time>
            <Position>
              <LatitudeDegrees>43.5246286354959011077880859375</LatitudeDegrees>
              <LongitudeDegrees>-1.5183131955564022064208984375</LongitudeDegrees>
            </Position>
            <AltitudeMeters>20.799999237060546875</AltitudeMeters>
            <DistanceMeters>NAN</DistanceMeters>
          </Trackpoint>
          <Trackpoint>
            <Time>2022-07-07T14:39:34.000Z</Time>
            <Position>
              <LatitudeDegrees>43.5245599038898944854736328125</LatitudeDegrees>
              <LongitudeDegrees>-1.5183990262448787689208984375</LongitudeDegrees>
            </Position>
            <AltitudeMeters>20.6000003814697265625</AltitudeMeters>
            <DistanceMeters>NAN</DistanceMeters>
          </Trackpoint>
          <Trackpoint>
            <Time>2022-07-07T14:39:38.000Z</Time>
            <Position>
              <LatitudeDegrees>43.5244234465062618255615234375</LatitudeDegrees>
              <LongitudeDegrees>-1.51854939758777618408203125</LongitudeDegrees>
            </Position>
            <AltitudeMeters>20.6000003814697265625</AltitudeMeters>
            <DistanceMeters>NAN</DistanceMeters>
          </Trackpoint>
          <Trackpoint>
            <Time>2022-07-07T14:39:42.000Z</Time>
            <Position>
              <LatitudeDegrees>43.52428874932229518890380859375</LatitudeDegrees>
              <LongitudeDegrees>-1.518689207732677459716796875</LongitudeDegrees>
            </Position>
            <AltitudeMeters>20</AltitudeMeters>
            <DistanceMeters>NAN</DistanceMeters>
          </Trackpoint>
          <Trackpoint>
            <Time>2022-07-07T14:39:48.000Z</Time>
            <Position>
              <LatitudeDegrees>43.524098061025142669677734375</LatitudeDegrees>
              <LongitudeDegrees>-1.51888626627624034881591796875</LongitudeDegrees>
            </Position>
            <AltitudeMeters>19</AltitudeMeters>
            <DistanceMeters>NAN</DistanceMeters>
          </Trackpoint>
          <Trackpoint>
            <Time>2022-07-07T14:39:49.000Z</Time>
            <Position>
              <LatitudeDegrees>43.52406763471662998199462890625</LatitudeDegrees>
              <LongitudeDegrees>-1.5189176984131336212158203125</LongitudeDegrees>
            </Position>
            <AltitudeMeters>19</AltitudeMeters>
            <DistanceMeters>NAN</DistanceMeters>
          </Trackpoint>
          <Trackpoint>
            <Time>2022-07-07T14:39:52.000Z</Time>
            <Position>
              <LatitudeDegrees>43.5239709913730621337890625</LatitudeDegrees>
              <LongitudeDegrees>-1.51901668868958950042724609375</LongitudeDegrees>
            </Position>
            <AltitudeMeters>19.200000762939453125</AltitudeMeters>
            <DistanceMeters>NAN</DistanceMeters>
          </Trackpoint>
          <Trackpoint>
            <Time>2022-07-07T14:39:56.000Z</Time>
            <Position>
              <LatitudeDegrees>43.5238341987133026123046875</LatitudeDegrees>
              <LongitudeDegrees>-1.5191664732992649078369140625</LongitudeDegrees>
            </Position>
            <AltitudeMeters>19</AltitudeMeters>
            <DistanceMeters>NAN</DistanceMeters>
          </Trackpoint>
          <Trackpoint>
            <Time>2022-07-07T14:40:00.000Z</Time>
            <Position>
              <LatitudeDegrees>43.52369899861514568328857421875</LatitudeDegrees>
              <LongitudeDegrees>-1.5193059481680393218994140625</LongitudeDegrees>
            </Position>
            <AltitudeMeters>19</AltitudeMeters>
            <DistanceMeters>NAN</DistanceMeters>
          </Trackpoint>
          <Trackpoint>
            <Time>2022-07-07T14:40:05.000Z</Time>
            <Position>
              <LatitudeDegrees>43.5235364735126495361328125</LatitudeDegrees>
              <LongitudeDegrees>-1.5194833092391490936279296875</LongitudeDegrees>
            </Position>
            <AltitudeMeters>18.799999237060546875</AltitudeMeters>
            <DistanceMeters>NAN</DistanceMeters>
          </Trackpoint>
          <Trackpoint>
            <Time>2022-07-07T14:40:10.000Z</Time>
            <Position>
              <LatitudeDegrees>43.52335969917476177215576171875</LatitudeDegrees>
              <LongitudeDegrees>-1.519658155739307403564453125</LongitudeDegrees>
            </Position>
            <AltitudeMeters>18.799999237060546875</AltitudeMeters>
            <DistanceMeters>NAN</DistanceMeters>
          </Trackpoint>
          <Trackpoint>
            <Time>2022-07-07T14:40:18.000Z</Time>
            <Position>
              <LatitudeDegrees>43.5230980999767780303955078125</LatitudeDegrees>
              <LongitudeDegrees>-1.5199184976518154144287109375</LongitudeDegrees>
            </Position>
            <AltitudeMeters>18.799999237060546875</AltitudeMeters>
            <DistanceMeters>NAN</DistanceMeters>
          </Trackpoint>
          <Trackpoint>
            <Time>2022-07-07T14:40:19.000Z</Time>
            <Position>
              <LatitudeDegrees>43.52306616492569446563720703125</LatitudeDegrees>
              <LongitudeDegrees>-1.51995462365448474884033203125</LongitudeDegrees>
            </Position>
            <AltitudeMeters>18.799999237060546875</AltitudeMeters>
            <DistanceMeters>NAN</DistanceMeters>
          </Trackpoint>
          <Trackpoint>
            <Time>2022-07-07T14:40:27.000Z</Time>
            <Position>
              <LatitudeDegrees>43.52281739003956317901611328125</LatitudeDegrees>
              <LongitudeDegrees>-1.52021630667150020599365234375</LongitudeDegrees>
            </Position>
            <AltitudeMeters>18.6000003814697265625</AltitudeMeters>
            <DistanceMeters>NAN</DistanceMeters>
          </Trackpoint>
          <Trackpoint>
            <Time>2022-07-07T14:40:37.000Z</Time>
            <Position>
              <LatitudeDegrees>43.522484041750431060791015625</LatitudeDegrees>
              <LongitudeDegrees>-1.52056147344410419464111328125</LongitudeDegrees>
            </Position>
            <AltitudeMeters>18</AltitudeMeters>
            <DistanceMeters>NAN</DistanceMeters>
          </Trackpoint>
          <Trackpoint>
            <Time>2022-07-07T14:40:43.000Z</Time>
            <Position>
              <LatitudeDegrees>43.522266112267971038818359375</LatitudeDegrees>
              <LongitudeDegrees>-1.52077437378466129302978515625</LongitudeDegrees>
            </Position>
            <AltitudeMeters>17.799999237060546875</AltitudeMeters>
            <DistanceMeters>NAN</DistanceMeters>
          </Trackpoint>
          <Trackpoint>
            <Time>2022-07-07T14:40:45.000Z</Time>
            <Position>
              <LatitudeDegrees>43.5221921838819980621337890625</LatitudeDegrees>
              <LongitudeDegrees>-1.5208475477993488311767578125</LongitudeDegrees>
            </Position>
            <AltitudeMeters>17.6000003814697265625</AltitudeMeters>
            <DistanceMeters>NAN</DistanceMeters>
          </Trackpoint>
          <Trackpoint>
            <Time>2022-07-07T14:40:50.000Z</Time>
            <Position>
              <LatitudeDegrees>43.5220000706613063812255859375</LatitudeDegrees>
              <LongitudeDegrees>-1.52105080895125865936279296875</LongitudeDegrees>
            </Position>
            <AltitudeMeters>17.200000762939453125</AltitudeMeters>
            <DistanceMeters>NAN</DistanceMeters>
          </Trackpoint>
          <Trackpoint>
            <Time>2022-07-07T14:40:51.000Z</Time>
            <Position>
              <LatitudeDegrees>43.5219645313918590545654296875</LatitudeDegrees>
              <LongitudeDegrees>-1.521094143390655517578125</LongitudeDegrees>
            </Position>
            <AltitudeMeters>17.200000762939453125</AltitudeMeters>
            <DistanceMeters>NAN</DistanceMeters>
          </Trackpoint>
          <Trackpoint>
            <Time>2022-07-07T14:40:59.000Z</Time>
            <Position>
              <LatitudeDegrees>43.52164928801357746124267578125</LatitudeDegrees>
              <LongitudeDegrees>-1.52142179198563098907470703125</LongitudeDegrees>
            </Position>
            <AltitudeMeters>17</AltitudeMeters>
            <DistanceMeters>NAN</DistanceMeters>
          </Trackpoint>
          <Trackpoint>
            <Time>2022-07-07T14:41:07.000Z</Time>
            <Position>
              <LatitudeDegrees>43.52137352339923381805419921875</LatitudeDegrees>
              <LongitudeDegrees>-1.5217343531548976898193359375</LongitudeDegrees>
            </Position>
            <AltitudeMeters>17</AltitudeMeters>
            <DistanceMeters>NAN</DistanceMeters>
          </Trackpoint>
          <Trackpoint>
            <Time>2022-07-07T14:41:12.000Z</Time>
            <Position>
              <LatitudeDegrees>43.52122248150408267974853515625</LatitudeDegrees>
              <LongitudeDegrees>-1.52189352549612522125244140625</LongitudeDegrees>
            </Position>
            <AltitudeMeters>17.200000762939453125</AltitudeMeters>
            <DistanceMeters>NAN</DistanceMeters>
          </Trackpoint>
          <Trackpoint>
            <Time>2022-07-07T14:41:14.000Z</Time>
            <Position>
              <LatitudeDegrees>43.52116414345800876617431640625</LatitudeDegrees>
              <LongitudeDegrees>-1.5219553001224994659423828125</LongitudeDegrees>
            </Position>
            <AltitudeMeters>17.200000762939453125</AltitudeMeters>
            <DistanceMeters>NAN</DistanceMeters>
          </Trackpoint>
          <Trackpoint>
            <Time>2022-07-07T14:41:18.000Z</Time>
            <Position>
              <LatitudeDegrees>43.5210500657558441162109375</LatitudeDegrees>
              <LongitudeDegrees>-1.52207440696656703948974609375</LongitudeDegrees>
            </Position>
            <AltitudeMeters>17.200000762939453125</AltitudeMeters>
            <DistanceMeters>NAN</DistanceMeters>
          </Trackpoint>
          <Trackpoint>
            <Time>2022-07-07T14:41:19.000Z</Time>
            <Position>
              <LatitudeDegrees>43.5210230760276317596435546875</LatitudeDegrees>
              <LongitudeDegrees>-1.5220991335809230804443359375</LongitudeDegrees>
            </Position>
            <AltitudeMeters>17.200000762939453125</AltitudeMeters>
            <DistanceMeters>NAN</DistanceMeters>
          </Trackpoint>
          <Trackpoint>
            <Time>2022-07-07T14:41:27.000Z</Time>
            <Position>
              <LatitudeDegrees>43.52079869247972965240478515625</LatitudeDegrees>
              <LongitudeDegrees>-1.52234162203967571258544921875</LongitudeDegrees>
            </Position>
            <AltitudeMeters>18</AltitudeMeters>
            <DistanceMeters>NAN</DistanceMeters>
          </Trackpoint>
          <Trackpoint>
            <Time>2022-07-07T14:41:36.000Z</Time>
            <Position>
              <LatitudeDegrees>43.520561568439006805419921875</LatitudeDegrees>
              <LongitudeDegrees>-1.52257363311946392059326171875</LongitudeDegrees>
            </Position>
            <AltitudeMeters>18.3999996185302734375</AltitudeMeters>
            <DistanceMeters>NAN</DistanceMeters>
          </Trackpoint>
          <Trackpoint>
            <Time>2022-07-07T14:41:43.000Z</Time>
            <Position>
              <LatitudeDegrees>43.52038077078759670257568359375</LatitudeDegrees>
              <LongitudeDegrees>-1.52273355983197689056396484375</LongitudeDegrees>
            </Position>
            <AltitudeMeters>18.799999237060546875</AltitudeMeters>
            <DistanceMeters>NAN</DistanceMeters>
          </Trackpoint>
          <Trackpoint>
            <Time>2022-07-07T14:41:50.000Z</Time>
            <Position>
              <LatitudeDegrees>43.520204834640026092529296875</LatitudeDegrees>
              <LongitudeDegrees>-1.52291511185467243194580078125</LongitudeDegrees>
            </Position>
            <AltitudeMeters>19</AltitudeMeters>
            <DistanceMeters>NAN</DistanceMeters>
          </Trackpoint>
          <Trackpoint>
            <Time>2022-07-07T14:41:57.000Z</Time>
            <Position>
              <LatitudeDegrees>43.5200242884457111358642578125</LatitudeDegrees>
              <LongitudeDegrees>-1.52310303412377834320068359375</LongitudeDegrees>
            </Position>
            <AltitudeMeters>19.6000003814697265625</AltitudeMeters>
            <DistanceMeters>NAN</DistanceMeters>
          </Trackpoint>
          <Trackpoint>
            <Time>2022-07-07T14:42:01.000Z</Time>
            <Position>
              <LatitudeDegrees>43.51994792930781841278076171875</LatitudeDegrees>
              <LongitudeDegrees>-1.5231981687247753143310546875</LongitudeDegrees>
            </Position>
            <AltitudeMeters>19.6000003814697265625</AltitudeMeters>
            <DistanceMeters>NAN</DistanceMeters>
          </Trackpoint>
          <Trackpoint>
            <Time>2022-07-07T14:42:02.000Z</Time>
            <Position>
              <LatitudeDegrees>43.519922532141208648681640625</LatitudeDegrees>
              <LongitudeDegrees>-1.52321719564497470855712890625</LongitudeDegrees>
            </Position>
            <AltitudeMeters>19.6000003814697265625</AltitudeMeters>
            <DistanceMeters>NAN</DistanceMeters>
          </Trackpoint>
          <Trackpoint>
            <Time>2022-07-07T14:42:07.000Z</Time>
            <Position>
              <LatitudeDegrees>43.5198197700083255767822265625</LatitudeDegrees>
              <LongitudeDegrees>-1.523347534239292144775390625</LongitudeDegrees>
            </Position>
            <AltitudeMeters>19.799999237060546875</AltitudeMeters>
            <DistanceMeters>NAN</DistanceMeters>
          </Trackpoint>
          <Trackpoint>
            <Time>2022-07-07T14:42:11.000Z</Time>
            <Position>
              <LatitudeDegrees>43.51971566677093505859375</LatitudeDegrees>
              <LongitudeDegrees>-1.52341484092175960540771484375</LongitudeDegrees>
            </Position>
            <AltitudeMeters>20</AltitudeMeters>
            <DistanceMeters>NAN</DistanceMeters>
          </Trackpoint>
          <Trackpoint>
            <Time>2022-07-07T14:42:12.000Z</Time>
            <Position>
              <LatitudeDegrees>43.51969345472753047943115234375</LatitudeDegrees>
              <LongitudeDegrees>-1.52343638241291046142578125</LongitudeDegrees>
            </Position>
            <AltitudeMeters>20.200000762939453125</AltitudeMeters>
            <DistanceMeters>NAN</DistanceMeters>
          </Trackpoint>
          <Trackpoint>
            <Time>2022-07-07T14:42:14.000Z</Time>
            <Position>
              <LatitudeDegrees>43.519668392837047576904296875</LatitudeDegrees>
              <LongitudeDegrees>-1.52349396608769893646240234375</LongitudeDegrees>
            </Position>
            <AltitudeMeters>20.200000762939453125</AltitudeMeters>
            <DistanceMeters>NAN</DistanceMeters>
          </Trackpoint>
          <Trackpoint>
            <Time>2022-07-07T14:42:16.000Z</Time>
            <Position>
              <LatitudeDegrees>43.51966780610382556915283203125</LatitudeDegrees>
              <LongitudeDegrees>-1.523499079048633575439453125</LongitudeDegrees>
            </Position>
            <AltitudeMeters>20.200000762939453125</AltitudeMeters>
            <DistanceMeters>NAN</DistanceMeters>
          </Trackpoint>
          <Trackpoint>
            <Time>2022-07-07T14:42:21.000Z</Time>
            <Position>
              <LatitudeDegrees>43.51961449719965457916259765625</LatitudeDegrees>
              <LongitudeDegrees>-1.5235478617250919342041015625</LongitudeDegrees>
            </Position>
            <AltitudeMeters>20.200000762939453125</AltitudeMeters>
            <DistanceMeters>NAN</DistanceMeters>
          </Trackpoint>
          <Trackpoint>
            <Time>2022-07-07T14:42:23.000Z</Time>
            <Position>
              <LatitudeDegrees>43.51957946084439754486083984375</LatitudeDegrees>
              <LongitudeDegrees>-1.523582227528095245361328125</LongitudeDegrees>
            </Position>
            <AltitudeMeters>20.3999996185302734375</AltitudeMeters>
            <DistanceMeters>NAN</DistanceMeters>
          </Trackpoint>
          <Trackpoint>
            <Time>2022-07-07T14:42:29.000Z</Time>
            <Position>
              <LatitudeDegrees>43.51943914778530597686767578125</LatitudeDegrees>
              <LongitudeDegrees>-1.52369228191673755645751953125</LongitudeDegrees>
            </Position>
            <AltitudeMeters>20.799999237060546875</AltitudeMeters>
            <DistanceMeters>NAN</DistanceMeters>
          </Trackpoint>
          <Trackpoint>
            <Time>2022-07-07T14:42:32.000Z</Time>
            <Position>
              <LatitudeDegrees>43.51936454884707927703857421875</LatitudeDegrees>
              <LongitudeDegrees>-1.52374709956347942352294921875</LongitudeDegrees>
            </Position>
            <AltitudeMeters>20.799999237060546875</AltitudeMeters>
            <DistanceMeters>NAN</DistanceMeters>
          </Trackpoint>
          <Trackpoint>
            <Time>2022-07-07T14:42:37.000Z</Time>
            <Position>
              <LatitudeDegrees>43.519233204424381256103515625</LatitudeDegrees>
              <LongitudeDegrees>-1.52381264604628086090087890625</LongitudeDegrees>
            </Position>
            <AltitudeMeters>21</AltitudeMeters>
            <DistanceMeters>NAN</DistanceMeters>
          </Trackpoint>
          <Trackpoint>
            <Time>2022-07-07T14:42:42.000Z</Time>
            <Position>
              <LatitudeDegrees>43.51910202763974666595458984375</LatitudeDegrees>
              <LongitudeDegrees>-1.52386629022657871246337890625</LongitudeDegrees>
            </Position>
            <AltitudeMeters>21.200000762939453125</AltitudeMeters>
            <DistanceMeters>NAN</DistanceMeters>
          </Trackpoint>
          <Trackpoint>
            <Time>2022-07-07T14:42:45.000Z</Time>
            <Position>
              <LatitudeDegrees>43.519021309912204742431640625</LatitudeDegrees>
              <LongitudeDegrees>-1.52389210648834705352783203125</LongitudeDegrees>
            </Position>
            <AltitudeMeters>21.3999996185302734375</AltitudeMeters>
            <DistanceMeters>NAN</DistanceMeters>
          </Trackpoint>
          <Trackpoint>
            <Time>2022-07-07T14:42:54.000Z</Time>
            <Position>
              <LatitudeDegrees>43.51875434629619121551513671875</LatitudeDegrees>
              <LongitudeDegrees>-1.52392596937716007232666015625</LongitudeDegrees>
            </Position>
            <AltitudeMeters>21.200000762939453125</AltitudeMeters>
            <DistanceMeters>NAN</DistanceMeters>
          </Trackpoint>
          <Trackpoint>
            <Time>2022-07-07T14:43:03.000Z</Time>
            <Position>
              <LatitudeDegrees>43.51843751035630702972412109375</LatitudeDegrees>
              <LongitudeDegrees>-1.52388808317482471466064453125</LongitudeDegrees>
            </Position>
            <AltitudeMeters>20.799999237060546875</AltitudeMeters>
            <DistanceMeters>NAN</DistanceMeters>
          </Trackpoint>
          <Trackpoint>
            <Time>2022-07-07T14:43:09.000Z</Time>
            <Position>
              <LatitudeDegrees>43.51824606768786907196044921875</LatitudeDegrees>
              <LongitudeDegrees>-1.52387115173041820526123046875</LongitudeDegrees>
            </Position>
            <AltitudeMeters>20.799999237060546875</AltitudeMeters>
            <DistanceMeters>NAN</DistanceMeters>
          </Trackpoint>
          <Trackpoint>
            <Time>2022-07-07T14:43:14.000Z</Time>
            <Position>
              <LatitudeDegrees>43.5180987976491451263427734375</LatitudeDegrees>
              <LongitudeDegrees>-1.5238573215901851654052734375</LongitudeDegrees>
            </Position>
            <AltitudeMeters>20.3999996185302734375</AltitudeMeters>
            <DistanceMeters>NAN</DistanceMeters>
          </Trackpoint>
          <Trackpoint>
            <Time>2022-07-07T14:43:19.000Z</Time>
            <Position>
              <LatitudeDegrees>43.51797684095799922943115234375</LatitudeDegrees>
              <LongitudeDegrees>-1.52371893636882305145263671875</LongitudeDegrees>
            </Position>
            <AltitudeMeters>20.200000762939453125</AltitudeMeters>
            <DistanceMeters>NAN</DistanceMeters>
          </Trackpoint>
          <Trackpoint>
            <Time>2022-07-07T14:43:26.000Z</Time>
            <Position>
              <LatitudeDegrees>43.51772521622478961944580078125</LatitudeDegrees>
              <LongitudeDegrees>-1.52362422086298465728759765625</LongitudeDegrees>
            </Position>
            <AltitudeMeters>20</AltitudeMeters>
            <DistanceMeters>NAN</DistanceMeters>
          </Trackpoint>
          <Trackpoint>
            <Time>2022-07-07T14:43:31.000Z</Time>
            <Position>
              <LatitudeDegrees>43.51751700975000858306884765625</LatitudeDegrees>
              <LongitudeDegrees>-1.5235733427107334136962890625</LongitudeDegrees>
            </Position>
            <AltitudeMeters>19.799999237060546875</AltitudeMeters>
            <DistanceMeters>NAN</DistanceMeters>
          </Trackpoint>
          <Trackpoint>
            <Time>2022-07-07T14:43:32.000Z</Time>
            <Position>
              <LatitudeDegrees>43.51747266948223114013671875</LatitudeDegrees>
              <LongitudeDegrees>-1.52357560582458972930908203125</LongitudeDegrees>
            </Position>
            <AltitudeMeters>19.799999237060546875</AltitudeMeters>
            <DistanceMeters>NAN</DistanceMeters>
          </Trackpoint>
          <Trackpoint>
            <Time>2022-07-07T14:43:39.000Z</Time>
            <Position>
              <LatitudeDegrees>43.51720771752297878265380859375</LatitudeDegrees>
              <LongitudeDegrees>-1.52355171740055084228515625</LongitudeDegrees>
            </Position>
            <AltitudeMeters>19.3999996185302734375</AltitudeMeters>
            <DistanceMeters>NAN</DistanceMeters>
          </Trackpoint>
          <Trackpoint>
            <Time>2022-07-07T14:43:47.000Z</Time>
            <Position>
              <LatitudeDegrees>43.51689465343952178955078125</LatitudeDegrees>
              <LongitudeDegrees>-1.52360645122826099395751953125</LongitudeDegrees>
            </Position>
            <AltitudeMeters>19.3999996185302734375</AltitudeMeters>
            <DistanceMeters>NAN</DistanceMeters>
          </Trackpoint>
          <Trackpoint>
            <Time>2022-07-07T14:43:49.000Z</Time>
            <Position>
              <LatitudeDegrees>43.516824245452880859375</LatitudeDegrees>
              <LongitudeDegrees>-1.5236310102045536041259765625</LongitudeDegrees>
            </Position>
            <AltitudeMeters>19.200000762939453125</AltitudeMeters>
            <DistanceMeters>NAN</DistanceMeters>
          </Trackpoint>
          <Trackpoint>
            <Time>2022-07-07T14:43:51.000Z</Time>
            <Position>
              <LatitudeDegrees>43.51676783524453639984130859375</LatitudeDegrees>
              <LongitudeDegrees>-1.523678116500377655029296875</LongitudeDegrees>
            </Position>
            <AltitudeMeters>19.200000762939453125</AltitudeMeters>
            <DistanceMeters>NAN</DistanceMeters>
          </Trackpoint>
          <Trackpoint>
            <Time>2022-07-07T14:43:55.000Z</Time>
            <Position>
              <LatitudeDegrees>43.5166405141353607177734375</LatitudeDegrees>
              <LongitudeDegrees>-1.52372949756681919097900390625</LongitudeDegrees>
            </Position>
            <AltitudeMeters>19.3999996185302734375</AltitudeMeters>
            <DistanceMeters>NAN</DistanceMeters>
          </Trackpoint>
          <Trackpoint>
            <Time>2022-07-07T14:44:01.000Z</Time>
            <Position>
              <LatitudeDegrees>43.51643859408795833587646484375</LatitudeDegrees>
              <LongitudeDegrees>-1.523820273578166961669921875</LongitudeDegrees>
            </Position>
            <AltitudeMeters>19.3999996185302734375</AltitudeMeters>
            <DistanceMeters>NAN</DistanceMeters>
          </Trackpoint>
          <Trackpoint>
            <Time>2022-07-07T14:44:09.000Z</Time>
            <Position>
              <LatitudeDegrees>43.516166098415851593017578125</LatitudeDegrees>
              <LongitudeDegrees>-1.52398548088967800140380859375</LongitudeDegrees>
            </Position>
            <AltitudeMeters>19.6000003814697265625</AltitudeMeters>
            <DistanceMeters>NAN</DistanceMeters>
          </Trackpoint>
          <Trackpoint>
            <Time>2022-07-07T14:44:13.000Z</Time>
            <Position>
              <LatitudeDegrees>43.516051433980464935302734375</LatitudeDegrees>
              <LongitudeDegrees>-1.52407919056713581085205078125</LongitudeDegrees>
            </Position>
            <AltitudeMeters>19.799999237060546875</AltitudeMeters>
            <DistanceMeters>NAN</DistanceMeters>
          </Trackpoint>
          <Trackpoint>
            <Time>2022-07-07T14:44:17.000Z</Time>
            <Position>
              <LatitudeDegrees>43.515941798686981201171875</LatitudeDegrees>
              <LongitudeDegrees>-1.52418061159551143646240234375</LongitudeDegrees>
            </Position>
            <AltitudeMeters>20</AltitudeMeters>
            <DistanceMeters>NAN</DistanceMeters>
          </Trackpoint>
          <Trackpoint>
            <Time>2022-07-07T14:44:22.000Z</Time>
            <Position>
              <LatitudeDegrees>43.515807688236236572265625</LatitudeDegrees>
              <LongitudeDegrees>-1.52429594658315181732177734375</LongitudeDegrees>
            </Position>
            <AltitudeMeters>19.799999237060546875</AltitudeMeters>
            <DistanceMeters>NAN</DistanceMeters>
          </Trackpoint>
          <Trackpoint>
            <Time>2022-07-07T14:44:23.000Z</Time>
            <Position>
              <LatitudeDegrees>43.515779860317707061767578125</LatitudeDegrees>
              <LongitudeDegrees>-1.5243159793317317962646484375</LongitudeDegrees>
            </Position>
            <AltitudeMeters>19.799999237060546875</AltitudeMeters>
            <DistanceMeters>NAN</DistanceMeters>
          </Trackpoint>
          <Trackpoint>
            <Time>2022-07-07T14:44:34.000Z</Time>
            <Position>
              <LatitudeDegrees>43.51545472629368305206298828125</LatitudeDegrees>
              <LongitudeDegrees>-1.5245077572762966156005859375</LongitudeDegrees>
            </Position>
            <AltitudeMeters>19.200000762939453125</AltitudeMeters>
            <DistanceMeters>NAN</DistanceMeters>
          </Trackpoint>
          <Trackpoint>
            <Time>2022-07-07T14:44:43.000Z</Time>
            <Position>
              <LatitudeDegrees>43.51523512043058872222900390625</LatitudeDegrees>
              <LongitudeDegrees>-1.5246427059173583984375</LongitudeDegrees>
            </Position>
            <AltitudeMeters>19.200000762939453125</AltitudeMeters>
            <DistanceMeters>NAN</DistanceMeters>
          </Trackpoint>
          <Trackpoint>
            <Time>2022-07-07T14:44:45.000Z</Time>
            <Position>
              <LatitudeDegrees>43.515201173722743988037109375</LatitudeDegrees>
              <LongitudeDegrees>-1.5246730484068393707275390625</LongitudeDegrees>
            </Position>
            <AltitudeMeters>19</AltitudeMeters>
            <DistanceMeters>NAN</DistanceMeters>
          </Trackpoint>
          <Trackpoint>
            <Time>2022-07-07T14:44:46.000Z</Time>
            <Position>
              <LatitudeDegrees>43.5151916183531284332275390625</LatitudeDegrees>
              <LongitudeDegrees>-1.52468486689031124114990234375</LongitudeDegrees>
            </Position>
            <AltitudeMeters>18.799999237060546875</AltitudeMeters>
            <DistanceMeters>NAN</DistanceMeters>
          </Trackpoint>
          <Trackpoint>
            <Time>2022-07-07T14:44:48.000Z</Time>
            <Position>
              <LatitudeDegrees>43.515188433229923248291015625</LatitudeDegrees>
              <LongitudeDegrees>-1.524691320955753326416015625</LongitudeDegrees>
            </Position>
            <AltitudeMeters>18.6000003814697265625</AltitudeMeters>
            <DistanceMeters>NAN</DistanceMeters>
          </Trackpoint>
          <Trackpoint>
            <Time>2022-07-07T14:44:49.000Z</Time>
            <Position>
              <LatitudeDegrees>43.515188433229923248291015625</LatitudeDegrees>
              <LongitudeDegrees>-1.524691320955753326416015625</LongitudeDegrees>
            </Position>
            <AltitudeMeters>18.3999996185302734375</AltitudeMeters>
            <DistanceMeters>NAN</DistanceMeters>
          </Trackpoint>
          <Trackpoint>
            <Time>2022-07-07T14:46:05.000Z</Time>
            <Position>
              <LatitudeDegrees>43.515146188437938690185546875</LatitudeDegrees>
              <LongitudeDegrees>-1.52469794265925884246826171875</LongitudeDegrees>
            </Position>
            <AltitudeMeters>18</AltitudeMeters>
            <DistanceMeters>NAN</DistanceMeters>
          </Trackpoint>
          <Trackpoint>
            <Time>2022-07-07T14:46:06.000Z</Time>
            <Position>
              <LatitudeDegrees>43.51512146182358264923095703125</LatitudeDegrees>
              <LongitudeDegrees>-1.52470934204757213592529296875</LongitudeDegrees>
            </Position>
            <AltitudeMeters>18</AltitudeMeters>
            <DistanceMeters>NAN</DistanceMeters>
          </Trackpoint>
          <Trackpoint>
            <Time>2022-07-07T14:46:07.000Z</Time>
            <Position>
              <LatitudeDegrees>43.5150928795337677001953125</LatitudeDegrees>
              <LongitudeDegrees>-1.52472811751067638397216796875</LongitudeDegrees>
            </Position>
            <AltitudeMeters>18</AltitudeMeters>
            <DistanceMeters>NAN</DistanceMeters>
          </Trackpoint>
          <Trackpoint>
            <Time>2022-07-07T14:46:14.000Z</Time>
            <Position>
              <LatitudeDegrees>43.51486111991107463836669921875</LatitudeDegrees>
              <LongitudeDegrees>-1.52484429068863391876220703125</LongitudeDegrees>
            </Position>
            <AltitudeMeters>19.799999237060546875</AltitudeMeters>
            <DistanceMeters>NAN</DistanceMeters>
          </Trackpoint>
          <Trackpoint>
            <Time>2022-07-07T14:46:15.000Z</Time>
            <Position>
              <LatitudeDegrees>43.51483027450740337371826171875</LatitudeDegrees>
              <LongitudeDegrees>-1.52486038394272327423095703125</LongitudeDegrees>
            </Position>
            <AltitudeMeters>20</AltitudeMeters>
            <DistanceMeters>NAN</DistanceMeters>
          </Trackpoint>
          <Trackpoint>
            <Time>2022-07-07T14:46:18.000Z</Time>
            <Position>
              <LatitudeDegrees>43.51474427618086338043212890625</LatitudeDegrees>
              <LongitudeDegrees>-1.5249080769717693328857421875</LongitudeDegrees>
            </Position>
            <AltitudeMeters>20.200000762939453125</AltitudeMeters>
            <DistanceMeters>NAN</DistanceMeters>
          </Trackpoint>
          <Trackpoint>
            <Time>2022-07-07T14:46:22.000Z</Time>
            <Position>
              <LatitudeDegrees>43.51463145576417446136474609375</LatitudeDegrees>
              <LongitudeDegrees>-1.52497655712068080902099609375</LongitudeDegrees>
            </Position>
            <AltitudeMeters>20.3999996185302734375</AltitudeMeters>
            <DistanceMeters>NAN</DistanceMeters>
          </Trackpoint>
          <Trackpoint>
            <Time>2022-07-07T14:46:32.000Z</Time>
            <Position>
              <LatitudeDegrees>43.514337502419948577880859375</LatitudeDegrees>
              <LongitudeDegrees>-1.52521066367626190185546875</LongitudeDegrees>
            </Position>
            <AltitudeMeters>20.6000003814697265625</AltitudeMeters>
            <DistanceMeters>NAN</DistanceMeters>
          </Trackpoint>
          <Trackpoint>
            <Time>2022-07-07T14:46:33.000Z</Time>
            <Position>
              <LatitudeDegrees>43.5143014602363109588623046875</LatitudeDegrees>
              <LongitudeDegrees>-1.525243185460567474365234375</LongitudeDegrees>
            </Position>
            <AltitudeMeters>20.6000003814697265625</AltitudeMeters>
            <DistanceMeters>NAN</DistanceMeters>
          </Trackpoint>
          <Trackpoint>
            <Time>2022-07-07T14:46:40.000Z</Time>
            <Position>
              <LatitudeDegrees>43.51405561901628971099853515625</LatitudeDegrees>
              <LongitudeDegrees>-1.5254740230739116668701171875</LongitudeDegrees>
            </Position>
            <AltitudeMeters>21</AltitudeMeters>
            <DistanceMeters>NAN</DistanceMeters>
          </Trackpoint>
          <Trackpoint>
            <Time>2022-07-07T14:46:44.000Z</Time>
            <Position>
              <LatitudeDegrees>43.51392813026905059814453125</LatitudeDegrees>
              <LongitudeDegrees>-1.52559882961213588714599609375</LongitudeDegrees>
            </Position>
            <AltitudeMeters>20.6000003814697265625</AltitudeMeters>
            <DistanceMeters>NAN</DistanceMeters>
          </Trackpoint>
          <Trackpoint>
            <Time>2022-07-07T14:46:48.000Z</Time>
            <Position>
              <LatitudeDegrees>43.5138059221208095550537109375</LatitudeDegrees>
              <LongitudeDegrees>-1.5257207863032817840576171875</LongitudeDegrees>
            </Position>
            <AltitudeMeters>20</AltitudeMeters>
            <DistanceMeters>NAN</DistanceMeters>
          </Trackpoint>
          <Trackpoint>
            <Time>2022-07-07T14:46:53.000Z</Time>
            <Position>
              <LatitudeDegrees>43.51363233290612697601318359375</LatitudeDegrees>
              <LongitudeDegrees>-1.52591407299041748046875</LongitudeDegrees>
            </Position>
            <AltitudeMeters>19.3999996185302734375</AltitudeMeters>
            <DistanceMeters>NAN</DistanceMeters>
          </Trackpoint>
          <Trackpoint>
            <Time>2022-07-07T14:46:54.000Z</Time>
            <Position>
              <LatitudeDegrees>43.51357952691614627838134765625</LatitudeDegrees>
              <LongitudeDegrees>-1.52595690451562404632568359375</LongitudeDegrees>
            </Position>
            <AltitudeMeters>19.200000762939453125</AltitudeMeters>
            <DistanceMeters>NAN</DistanceMeters>
          </Trackpoint>
          <Trackpoint>
            <Time>2022-07-07T14:46:57.000Z</Time>
            <Position>
              <LatitudeDegrees>43.513431251049041748046875</LatitudeDegrees>
              <LongitudeDegrees>-1.5260527096688747406005859375</LongitudeDegrees>
            </Position>
            <AltitudeMeters>18.799999237060546875</AltitudeMeters>
            <DistanceMeters>NAN</DistanceMeters>
          </Trackpoint>
          <Trackpoint>
            <Time>2022-07-07T14:47:01.000Z</Time>
            <Position>
              <LatitudeDegrees>43.51324039511382579803466796875</LatitudeDegrees>
              <LongitudeDegrees>-1.526194028556346893310546875</LongitudeDegrees>
            </Position>
            <AltitudeMeters>17.799999237060546875</AltitudeMeters>
            <DistanceMeters>NAN</DistanceMeters>
          </Trackpoint>
          <Trackpoint>
            <Time>2022-07-07T14:47:02.000Z</Time>
            <Position>
              <LatitudeDegrees>43.51319898851215839385986328125</LatitudeDegrees>
              <LongitudeDegrees>-1.52622261084616184234619140625</LongitudeDegrees>
            </Position>
            <AltitudeMeters>17.6000003814697265625</AltitudeMeters>
            <DistanceMeters>NAN</DistanceMeters>
          </Trackpoint>
          <Trackpoint>
            <Time>2022-07-07T14:47:04.000Z</Time>
            <Position>
              <LatitudeDegrees>43.5131410695612430572509765625</LatitudeDegrees>
              <LongitudeDegrees>-1.52628363110125064849853515625</LongitudeDegrees>
            </Position>
            <AltitudeMeters>17</AltitudeMeters>
            <DistanceMeters>NAN</DistanceMeters>
          </Trackpoint>
          <Trackpoint>
            <Time>2022-07-07T14:47:05.000Z</Time>
            <Position>
              <LatitudeDegrees>43.5131296701729297637939453125</LatitudeDegrees>
              <LongitudeDegrees>-1.5263257920742034912109375</LongitudeDegrees>
            </Position>
            <AltitudeMeters>16.6000003814697265625</AltitudeMeters>
            <DistanceMeters>NAN</DistanceMeters>
          </Trackpoint>
          <Trackpoint>
            <Time>2022-07-07T14:47:06.000Z</Time>
            <Position>
              <LatitudeDegrees>43.51313210092484951019287109375</LatitudeDegrees>
              <LongitudeDegrees>-1.52636803686618804931640625</LongitudeDegrees>
            </Position>
            <AltitudeMeters>16.3999996185302734375</AltitudeMeters>
            <DistanceMeters>NAN</DistanceMeters>
          </Trackpoint>
          <Trackpoint>
            <Time>2022-07-07T14:47:08.000Z</Time>
            <Position>
              <LatitudeDegrees>43.51317132823169231414794921875</LatitudeDegrees>
              <LongitudeDegrees>-1.52645386755466461181640625</LongitudeDegrees>
            </Position>
            <AltitudeMeters>16.200000762939453125</AltitudeMeters>
            <DistanceMeters>NAN</DistanceMeters>
          </Trackpoint>
          <Trackpoint>
            <Time>2022-07-07T14:47:16.000Z</Time>
            <Position>
              <LatitudeDegrees>43.51335070095956325531005859375</LatitudeDegrees>
              <LongitudeDegrees>-1.52679308317601680755615234375</LongitudeDegrees>
            </Position>
            <AltitudeMeters>16.799999237060546875</AltitudeMeters>
            <DistanceMeters>NAN</DistanceMeters>
          </Trackpoint>
          <Trackpoint>
            <Time>2022-07-07T14:47:25.000Z</Time>
            <Position>
              <LatitudeDegrees>43.51349436677992343902587890625</LatitudeDegrees>
              <LongitudeDegrees>-1.52719340287148952484130859375</LongitudeDegrees>
            </Position>
            <AltitudeMeters>16.3999996185302734375</AltitudeMeters>
            <DistanceMeters>NAN</DistanceMeters>
          </Trackpoint>
          <Trackpoint>
            <Time>2022-07-07T14:47:32.000Z</Time>
            <Position>
              <LatitudeDegrees>43.51352487690746784210205078125</LatitudeDegrees>
              <LongitudeDegrees>-1.5275148488581180572509765625</LongitudeDegrees>
            </Position>
            <AltitudeMeters>16.3999996185302734375</AltitudeMeters>
            <DistanceMeters>NAN</DistanceMeters>
          </Trackpoint>
          <Trackpoint>
            <Time>2022-07-07T14:47:39.000Z</Time>
            <Position>
              <LatitudeDegrees>43.5135162435472011566162109375</LatitudeDegrees>
              <LongitudeDegrees>-1.52781232260167598724365234375</LongitudeDegrees>
            </Position>
            <AltitudeMeters>16.3999996185302734375</AltitudeMeters>
            <DistanceMeters>NAN</DistanceMeters>
          </Trackpoint>
          <Trackpoint>
            <Time>2022-07-07T14:47:43.000Z</Time>
            <Position>
              <LatitudeDegrees>43.5134860686957836151123046875</LatitudeDegrees>
              <LongitudeDegrees>-1.52791298925876617431640625</LongitudeDegrees>
            </Position>
            <AltitudeMeters>16.200000762939453125</AltitudeMeters>
            <DistanceMeters>NAN</DistanceMeters>
          </Trackpoint>
          <Trackpoint>
            <Time>2022-07-07T14:47:48.000Z</Time>
            <Position>
              <LatitudeDegrees>43.51348078809678554534912109375</LatitudeDegrees>
              <LongitudeDegrees>-1.52792464010417461395263671875</LongitudeDegrees>
            </Position>
            <AltitudeMeters>15.80000019073486328125</AltitudeMeters>
            <DistanceMeters>NAN</DistanceMeters>
          </Trackpoint>
          <Trackpoint>
            <Time>2022-07-07T14:47:53.000Z</Time>
            <Position>
              <LatitudeDegrees>43.513481207191944122314453125</LatitudeDegrees>
              <LongitudeDegrees>-1.52790619991719722747802734375</LongitudeDegrees>
            </Position>
            <AltitudeMeters>15.80000019073486328125</AltitudeMeters>
            <DistanceMeters>NAN</DistanceMeters>
          </Trackpoint>
          <Trackpoint>
            <Time>2022-07-07T14:49:30.000Z</Time>
            <Position>
              <LatitudeDegrees>43.51350710727274417877197265625</LatitudeDegrees>
              <LongitudeDegrees>-1.52795565314590930938720703125</LongitudeDegrees>
            </Position>
            <AltitudeMeters>15.19999980926513671875</AltitudeMeters>
            <DistanceMeters>NAN</DistanceMeters>
          </Trackpoint>
          <Trackpoint>
            <Time>2022-07-07T14:49:32.000Z</Time>
            <Position>
              <LatitudeDegrees>43.5135068558156490325927734375</LatitudeDegrees>
              <LongitudeDegrees>-1.52802220545709133148193359375</LongitudeDegrees>
            </Position>
            <AltitudeMeters>15.19999980926513671875</AltitudeMeters>
            <DistanceMeters>NAN</DistanceMeters>
          </Trackpoint>
          <Trackpoint>
            <Time>2022-07-07T14:49:35.000Z</Time>
            <Position>
              <LatitudeDegrees>43.5134904272854328155517578125</LatitudeDegrees>
              <LongitudeDegrees>-1.52812932617962360382080078125</LongitudeDegrees>
            </Position>
            <AltitudeMeters>15.80000019073486328125</AltitudeMeters>
            <DistanceMeters>NAN</DistanceMeters>
          </Trackpoint>
          <Trackpoint>
            <Time>2022-07-07T14:49:36.000Z</Time>
            <Position>
              <LatitudeDegrees>43.5134837217628955841064453125</LatitudeDegrees>
              <LongitudeDegrees>-1.5281719900667667388916015625</LongitudeDegrees>
            </Position>
            <AltitudeMeters>16</AltitudeMeters>
            <DistanceMeters>NAN</DistanceMeters>
          </Trackpoint>
          <Trackpoint>
            <Time>2022-07-07T14:49:37.000Z</Time>
            <Position>
              <LatitudeDegrees>43.51347659714519977569580078125</LatitudeDegrees>
              <LongitudeDegrees>-1.52821348048746585845947265625</LongitudeDegrees>
            </Position>
            <AltitudeMeters>16</AltitudeMeters>
            <DistanceMeters>NAN</DistanceMeters>
          </Trackpoint>
          <Trackpoint>
            <Time>2022-07-07T14:49:38.000Z</Time>
            <Position>
              <LatitudeDegrees>43.5134661197662353515625</LatitudeDegrees>
              <LongitudeDegrees>-1.52825606055557727813720703125</LongitudeDegrees>
            </Position>
            <AltitudeMeters>16.200000762939453125</AltitudeMeters>
            <DistanceMeters>NAN</DistanceMeters>
          </Trackpoint>
          <Trackpoint>
            <Time>2022-07-07T14:49:43.000Z</Time>
            <Position>
              <LatitudeDegrees>43.51341448724269866943359375</LatitudeDegrees>
              <LongitudeDegrees>-1.52847399003803730010986328125</LongitudeDegrees>
            </Position>
            <AltitudeMeters>16.3999996185302734375</AltitudeMeters>
            <DistanceMeters>NAN</DistanceMeters>
          </Trackpoint>
          <Trackpoint>
            <Time>2022-07-07T14:49:44.000Z</Time>
            <Position>
              <LatitudeDegrees>43.51340903900563716888427734375</LatitudeDegrees>
              <LongitudeDegrees>-1.52851472608745098114013671875</LongitudeDegrees>
            </Position>
            <AltitudeMeters>16.3999996185302734375</AltitudeMeters>
            <DistanceMeters>NAN</DistanceMeters>
          </Trackpoint>
          <Trackpoint>
            <Time>2022-07-07T14:49:45.000Z</Time>
            <Position>
              <LatitudeDegrees>43.51339965127408504486083984375</LatitudeDegrees>
              <LongitudeDegrees>-1.52856250293552875518798828125</LongitudeDegrees>
            </Position>
            <AltitudeMeters>16.6000003814697265625</AltitudeMeters>
            <DistanceMeters>NAN</DistanceMeters>
          </Trackpoint>
          <Trackpoint>
            <Time>2022-07-07T14:49:49.000Z</Time>
            <Position>
              <LatitudeDegrees>43.51337014697492122650146484375</LatitudeDegrees>
              <LongitudeDegrees>-1.52874983847141265869140625</LongitudeDegrees>
            </Position>
            <AltitudeMeters>17</AltitudeMeters>
            <DistanceMeters>NAN</DistanceMeters>
          </Trackpoint>
          <Trackpoint>
            <Time>2022-07-07T14:49:51.000Z</Time>
            <Position>
              <LatitudeDegrees>43.51335489191114902496337890625</LatitudeDegrees>
              <LongitudeDegrees>-1.5288485772907733917236328125</LongitudeDegrees>
            </Position>
            <AltitudeMeters>17</AltitudeMeters>
            <DistanceMeters>NAN</DistanceMeters>
          </Trackpoint>
          <Trackpoint>
            <Time>2022-07-07T14:49:54.000Z</Time>
            <Position>
              <LatitudeDegrees>43.513354472815990447998046875</LatitudeDegrees>
              <LongitudeDegrees>-1.52898595668375492095947265625</LongitudeDegrees>
            </Position>
            <AltitudeMeters>17.200000762939453125</AltitudeMeters>
            <DistanceMeters>NAN</DistanceMeters>
          </Trackpoint>
          <Trackpoint>
            <Time>2022-07-07T14:49:58.000Z</Time>
            <Position>
              <LatitudeDegrees>43.51338422857224941253662109375</LatitudeDegrees>
              <LongitudeDegrees>-1.529159210622310638427734375</LongitudeDegrees>
            </Position>
            <AltitudeMeters>17.3999996185302734375</AltitudeMeters>
            <DistanceMeters>NAN</DistanceMeters>
          </Trackpoint>
          <Trackpoint>
            <Time>2022-07-07T14:50:01.000Z</Time>
            <Position>
              <LatitudeDegrees>43.513418175280094146728515625</LatitudeDegrees>
              <LongitudeDegrees>-1.529274880886077880859375</LongitudeDegrees>
            </Position>
            <AltitudeMeters>17.6000003814697265625</AltitudeMeters>
            <DistanceMeters>NAN</DistanceMeters>
          </Trackpoint>
          <Trackpoint>
            <Time>2022-07-07T14:50:06.000Z</Time>
            <Position>
              <LatitudeDegrees>43.51348313502967357635498046875</LatitudeDegrees>
              <LongitudeDegrees>-1.52945936657488346099853515625</LongitudeDegrees>
            </Position>
            <AltitudeMeters>17.799999237060546875</AltitudeMeters>
            <DistanceMeters>NAN</DistanceMeters>
          </Trackpoint>
          <Trackpoint>
            <Time>2022-07-07T14:50:14.000Z</Time>
            <Position>
              <LatitudeDegrees>43.513561002910137176513671875</LatitudeDegrees>
              <LongitudeDegrees>-1.52973362244665622711181640625</LongitudeDegrees>
            </Position>
            <AltitudeMeters>17.6000003814697265625</AltitudeMeters>
            <DistanceMeters>NAN</DistanceMeters>
          </Trackpoint>
          <Trackpoint>
            <Time>2022-07-07T14:50:20.000Z</Time>
            <Position>
              <LatitudeDegrees>43.51363979279994964599609375</LatitudeDegrees>
              <LongitudeDegrees>-1.5299080498516559600830078125</LongitudeDegrees>
            </Position>
            <AltitudeMeters>18</AltitudeMeters>
            <DistanceMeters>NAN</DistanceMeters>
          </Trackpoint>
          <Trackpoint>
            <Time>2022-07-07T14:50:24.000Z</Time>
            <Position>
              <LatitudeDegrees>43.513679020106792449951171875</LatitudeDegrees>
              <LongitudeDegrees>-1.530020199716091156005859375</LongitudeDegrees>
            </Position>
            <AltitudeMeters>18.200000762939453125</AltitudeMeters>
            <DistanceMeters>NAN</DistanceMeters>
          </Trackpoint>
          <Trackpoint>
            <Time>2022-07-07T14:50:29.000Z</Time>
            <Position>
              <LatitudeDegrees>43.513731993734836578369140625</LatitudeDegrees>
              <LongitudeDegrees>-1.5301774442195892333984375</LongitudeDegrees>
            </Position>
            <AltitudeMeters>19</AltitudeMeters>
            <DistanceMeters>NAN</DistanceMeters>
          </Trackpoint>
          <Trackpoint>
            <Time>2022-07-07T14:50:31.000Z</Time>
            <Position>
              <LatitudeDegrees>43.5137526132166385650634765625</LatitudeDegrees>
              <LongitudeDegrees>-1.5302356146275997161865234375</LongitudeDegrees>
            </Position>
            <AltitudeMeters>19</AltitudeMeters>
            <DistanceMeters>NAN</DistanceMeters>
          </Trackpoint>
          <Trackpoint>
            <Time>2022-07-07T14:50:34.000Z</Time>
            <Position>
              <LatitudeDegrees>43.51378270424902439117431640625</LatitudeDegrees>
              <LongitudeDegrees>-1.53032563626766204833984375</LongitudeDegrees>
            </Position>
            <AltitudeMeters>19.3999996185302734375</AltitudeMeters>
            <DistanceMeters>NAN</DistanceMeters>
          </Trackpoint>
          <Trackpoint>
            <Time>2022-07-07T14:50:38.000Z</Time>
            <Position>
              <LatitudeDegrees>43.51382779888808727264404296875</LatitudeDegrees>
              <LongitudeDegrees>-1.530451364815235137939453125</LongitudeDegrees>
            </Position>
            <AltitudeMeters>19.6000003814697265625</AltitudeMeters>
            <DistanceMeters>NAN</DistanceMeters>
          </Trackpoint>
          <Trackpoint>
            <Time>2022-07-07T14:50:45.000Z</Time>
            <Position>
              <LatitudeDegrees>43.513900302350521087646484375</LatitudeDegrees>
              <LongitudeDegrees>-1.53065781109035015106201171875</LongitudeDegrees>
            </Position>
            <AltitudeMeters>20.200000762939453125</AltitudeMeters>
            <DistanceMeters>NAN</DistanceMeters>
          </Trackpoint>
          <Trackpoint>
            <Time>2022-07-07T14:50:46.000Z</Time>
            <Position>
              <LatitudeDegrees>43.5139108635485172271728515625</LatitudeDegrees>
              <LongitudeDegrees>-1.53068237006664276123046875</LongitudeDegrees>
            </Position>
            <AltitudeMeters>20.3999996185302734375</AltitudeMeters>
            <DistanceMeters>NAN</DistanceMeters>
          </Trackpoint>
          <Trackpoint>
            <Time>2022-07-07T14:50:47.000Z</Time>
            <Position>
              <LatitudeDegrees>43.51392301730811595916748046875</LatitudeDegrees>
              <LongitudeDegrees>-1.5307060070335865020751953125</LongitudeDegrees>
            </Position>
            <AltitudeMeters>20.3999996185302734375</AltitudeMeters>
            <DistanceMeters>NAN</DistanceMeters>
          </Trackpoint>
          <Trackpoint>
            <Time>2022-07-07T14:50:50.000Z</Time>
            <Position>
              <LatitudeDegrees>43.51396970450878143310546875</LatitudeDegrees>
              <LongitudeDegrees>-1.530753113329410552978515625</LongitudeDegrees>
            </Position>
            <AltitudeMeters>20.3999996185302734375</AltitudeMeters>
            <DistanceMeters>NAN</DistanceMeters>
          </Trackpoint>
          <Trackpoint>
            <Time>2022-07-07T14:50:51.000Z</Time>
            <Position>
              <LatitudeDegrees>43.51398990489542484283447265625</LatitudeDegrees>
              <LongitudeDegrees>-1.530749760568141937255859375</LongitudeDegrees>
            </Position>
            <AltitudeMeters>20.3999996185302734375</AltitudeMeters>
            <DistanceMeters>NAN</DistanceMeters>
          </Trackpoint>
          <Trackpoint>
            <Time>2022-07-07T14:50:57.000Z</Time>
            <Position>
              <LatitudeDegrees>43.514121584594249725341796875</LatitudeDegrees>
              <LongitudeDegrees>-1.53061858378350734710693359375</LongitudeDegrees>
            </Position>
            <AltitudeMeters>20.200000762939453125</AltitudeMeters>
            <DistanceMeters>NAN</DistanceMeters>
          </Trackpoint>
          <Trackpoint>
            <Time>2022-07-07T14:51:04.000Z</Time>
            <Position>
              <LatitudeDegrees>43.51429483853280544281005859375</LatitudeDegrees>
              <LongitudeDegrees>-1.5305071882903575897216796875</LongitudeDegrees>
            </Position>
            <AltitudeMeters>20.3999996185302734375</AltitudeMeters>
            <DistanceMeters>NAN</DistanceMeters>
          </Trackpoint>
          <Trackpoint>
            <Time>2022-07-07T14:51:09.000Z</Time>
            <Position>
              <LatitudeDegrees>43.51438452489674091339111328125</LatitudeDegrees>
              <LongitudeDegrees>-1.53050643391907215118408203125</LongitudeDegrees>
            </Position>
            <AltitudeMeters>21.6000003814697265625</AltitudeMeters>
            <DistanceMeters>NAN</DistanceMeters>
          </Trackpoint>
          <Trackpoint>
            <Time>2022-07-07T14:51:15.000Z</Time>
            <Position>
              <LatitudeDegrees>43.51445912383496761322021484375</LatitudeDegrees>
              <LongitudeDegrees>-1.5304874069988727569580078125</LongitudeDegrees>
            </Position>
            <AltitudeMeters>22.6000003814697265625</AltitudeMeters>
            <DistanceMeters>NAN</DistanceMeters>
          </Trackpoint>
          <Trackpoint>
            <Time>2022-07-07T14:51:17.000Z</Time>
            <Position>
              <LatitudeDegrees>43.51448066532611846923828125</LatitudeDegrees>
              <LongitudeDegrees>-1.53047475032508373260498046875</LongitudeDegrees>
            </Position>
            <AltitudeMeters>22.6000003814697265625</AltitudeMeters>
            <DistanceMeters>NAN</DistanceMeters>
          </Trackpoint>
          <Trackpoint>
            <Time>2022-07-07T14:51:22.000Z</Time>
            <Position>
              <LatitudeDegrees>43.51451997645199298858642578125</LatitudeDegrees>
              <LongitudeDegrees>-1.530449353158473968505859375</LongitudeDegrees>
            </Position>
            <AltitudeMeters>22.799999237060546875</AltitudeMeters>
            <DistanceMeters>NAN</DistanceMeters>
          </Trackpoint>
          <Trackpoint>
            <Time>2022-07-07T14:51:23.000Z</Time>
            <Position>
              <LatitudeDegrees>43.5145254246890544891357421875</LatitudeDegrees>
              <LongitudeDegrees>-1.5304414741694927215576171875</LongitudeDegrees>
            </Position>
            <AltitudeMeters>22.799999237060546875</AltitudeMeters>
            <DistanceMeters>NAN</DistanceMeters>
          </Trackpoint>
          <Trackpoint>
            <Time>2022-07-07T14:51:24.000Z</Time>
            <Position>
              <LatitudeDegrees>43.51452819071710109710693359375</LatitudeDegrees>
              <LongitudeDegrees>-1.5304349362850189208984375</LongitudeDegrees>
            </Position>
            <AltitudeMeters>22.799999237060546875</AltitudeMeters>
            <DistanceMeters>NAN</DistanceMeters>
          </Trackpoint>
          <Trackpoint>
            <Time>2022-07-07T14:51:25.000Z</Time>
            <Position>
              <LatitudeDegrees>43.51452852599322795867919921875</LatitudeDegrees>
              <LongitudeDegrees>-1.5304230339825153350830078125</LongitudeDegrees>
            </Position>
            <AltitudeMeters>22.6000003814697265625</AltitudeMeters>
            <DistanceMeters>NAN</DistanceMeters>
          </Trackpoint>
          <Trackpoint>
            <Time>2022-07-07T14:51:27.000Z</Time>
            <Position>
              <LatitudeDegrees>43.51452416740357875823974609375</LatitudeDegrees>
              <LongitudeDegrees>-1.5303868241608142852783203125</LongitudeDegrees>
            </Position>
            <AltitudeMeters>22.799999237060546875</AltitudeMeters>
            <DistanceMeters>NAN</DistanceMeters>
          </Trackpoint>
          <Trackpoint>
            <Time>2022-07-07T14:51:28.000Z</Time>
            <Position>
              <LatitudeDegrees>43.514514528214931488037109375</LatitudeDegrees>
              <LongitudeDegrees>-1.5303707309067249298095703125</LongitudeDegrees>
            </Position>
            <AltitudeMeters>22.799999237060546875</AltitudeMeters>
            <DistanceMeters>NAN</DistanceMeters>
          </Trackpoint>
          <Trackpoint>
            <Time>2022-07-07T14:51:29.000Z</Time>
            <Position>
              <LatitudeDegrees>43.51450002752244472503662109375</LatitudeDegrees>
              <LongitudeDegrees>-1.53036586940288543701171875</LongitudeDegrees>
            </Position>
            <AltitudeMeters>22.799999237060546875</AltitudeMeters>
            <DistanceMeters>NAN</DistanceMeters>
          </Trackpoint>
          <Trackpoint>
            <Time>2022-07-07T14:51:30.000Z</Time>
            <Position>
              <LatitudeDegrees>43.51448393426835536956787109375</LatitudeDegrees>
              <LongitudeDegrees>-1.5303740836679935455322265625</LongitudeDegrees>
            </Position>
            <AltitudeMeters>22.799999237060546875</AltitudeMeters>
            <DistanceMeters>NAN</DistanceMeters>
          </Trackpoint>
          <Trackpoint>
            <Time>2022-07-07T14:51:37.000Z</Time>
            <Position>
              <LatitudeDegrees>43.514397181570529937744140625</LatitudeDegrees>
              <LongitudeDegrees>-1.5304904244840145111083984375</LongitudeDegrees>
            </Position>
            <AltitudeMeters>22.3999996185302734375</AltitudeMeters>
            <DistanceMeters>NAN</DistanceMeters>
          </Trackpoint>
          <Trackpoint>
            <Time>2022-07-07T14:51:42.000Z</Time>
            <Position>
              <LatitudeDegrees>43.5142498277127742767333984375</LatitudeDegrees>
              <LongitudeDegrees>-1.530519090592861175537109375</LongitudeDegrees>
            </Position>
            <AltitudeMeters>21.6000003814697265625</AltitudeMeters>
            <DistanceMeters>NAN</DistanceMeters>
          </Trackpoint>
          <Trackpoint>
            <Time>2022-07-07T14:51:43.000Z</Time>
            <Position>
              <LatitudeDegrees>43.5142139531672000885009765625</LatitudeDegrees>
              <LongitudeDegrees>-1.530533842742443084716796875</LongitudeDegrees>
            </Position>
            <AltitudeMeters>21.3999996185302734375</AltitudeMeters>
            <DistanceMeters>NAN</DistanceMeters>
          </Trackpoint>
          <Trackpoint>
            <Time>2022-07-07T14:51:48.000Z</Time>
            <Position>
              <LatitudeDegrees>43.51407221518456935882568359375</LatitudeDegrees>
              <LongitudeDegrees>-1.53064909391105175018310546875</LongitudeDegrees>
            </Position>
            <AltitudeMeters>20.799999237060546875</AltitudeMeters>
            <DistanceMeters>NAN</DistanceMeters>
          </Trackpoint>
          <Trackpoint>
            <Time>2022-07-07T14:51:51.000Z</Time>
            <Position>
              <LatitudeDegrees>43.5140124522149562835693359375</LatitudeDegrees>
              <LongitudeDegrees>-1.530727632343769073486328125</LongitudeDegrees>
            </Position>
            <AltitudeMeters>20.6000003814697265625</AltitudeMeters>
            <DistanceMeters>NAN</DistanceMeters>
          </Trackpoint>
          <Trackpoint>
            <Time>2022-07-07T14:51:53.000Z</Time>
            <Position>
              <LatitudeDegrees>43.513992838561534881591796875</LatitudeDegrees>
              <LongitudeDegrees>-1.53078739531338214874267578125</LongitudeDegrees>
            </Position>
            <AltitudeMeters>20.799999237060546875</AltitudeMeters>
            <DistanceMeters>NAN</DistanceMeters>
          </Trackpoint>
          <Trackpoint>
            <Time>2022-07-07T14:51:58.000Z</Time>
            <Position>
              <LatitudeDegrees>43.51399459876120090484619140625</LatitudeDegrees>
              <LongitudeDegrees>-1.530908681452274322509765625</LongitudeDegrees>
            </Position>
            <AltitudeMeters>20.799999237060546875</AltitudeMeters>
            <DistanceMeters>NAN</DistanceMeters>
          </Trackpoint>
          <Trackpoint>
            <Time>2022-07-07T14:51:59.000Z</Time>
            <Position>
              <LatitudeDegrees>43.5140033997595310211181640625</LatitudeDegrees>
              <LongitudeDegrees>-1.53093156404793262481689453125</LongitudeDegrees>
            </Position>
            <AltitudeMeters>21</AltitudeMeters>
            <DistanceMeters>NAN</DistanceMeters>
          </Trackpoint>
          <Trackpoint>
            <Time>2022-07-07T14:52:02.000Z</Time>
            <Position>
              <LatitudeDegrees>43.51403315551578998565673828125</LatitudeDegrees>
              <LongitudeDegrees>-1.53098721988499164581298828125</LongitudeDegrees>
            </Position>
            <AltitudeMeters>21</AltitudeMeters>
            <DistanceMeters>NAN</DistanceMeters>
          </Trackpoint>
          <Trackpoint>
            <Time>2022-07-07T14:52:03.000Z</Time>
            <Position>
              <LatitudeDegrees>43.51403667591512203216552734375</LatitudeDegrees>
              <LongitudeDegrees>-1.53100691735744476318359375</LongitudeDegrees>
            </Position>
            <AltitudeMeters>20.799999237060546875</AltitudeMeters>
            <DistanceMeters>NAN</DistanceMeters>
          </Trackpoint>
          <Trackpoint>
            <Time>2022-07-07T14:52:04.000Z</Time>
            <Position>
              <LatitudeDegrees>43.5140441358089447021484375</LatitudeDegrees>
              <LongitudeDegrees>-1.5310191549360752105712890625</LongitudeDegrees>
            </Position>
            <AltitudeMeters>20.799999237060546875</AltitudeMeters>
            <DistanceMeters>NAN</DistanceMeters>
          </Trackpoint>
          <Trackpoint>
            <Time>2022-07-07T14:52:06.000Z</Time>
            <Position>
              <LatitudeDegrees>43.51406768895685672760009765625</LatitudeDegrees>
              <LongitudeDegrees>-1.53103013522922992706298828125</LongitudeDegrees>
            </Position>
            <AltitudeMeters>20.3999996185302734375</AltitudeMeters>
            <DistanceMeters>NAN</DistanceMeters>
          </Trackpoint>
          <Trackpoint>
            <Time>2022-07-07T14:52:07.000Z</Time>
            <Position>
              <LatitudeDegrees>43.5140801779925823211669921875</LatitudeDegrees>
              <LongitudeDegrees>-1.53104715049266815185546875</LongitudeDegrees>
            </Position>
            <AltitudeMeters>20.200000762939453125</AltitudeMeters>
            <DistanceMeters>NAN</DistanceMeters>
          </Trackpoint>
          <Trackpoint>
            <Time>2022-07-07T14:52:08.000Z</Time>
            <Position>
              <LatitudeDegrees>43.514092750847339630126953125</LatitudeDegrees>
              <LongitudeDegrees>-1.5310667641460895538330078125</LongitudeDegrees>
            </Position>
            <AltitudeMeters>20.200000762939453125</AltitudeMeters>
            <DistanceMeters>NAN</DistanceMeters>
          </Trackpoint>
          <Trackpoint>
            <Time>2022-07-07T14:52:10.000Z</Time>
            <Position>
              <LatitudeDegrees>43.51411722600460052490234375</LatitudeDegrees>
              <LongitudeDegrees>-1.53110775165259838104248046875</LongitudeDegrees>
            </Position>
            <AltitudeMeters>20</AltitudeMeters>
            <DistanceMeters>NAN</DistanceMeters>
          </Trackpoint>
          <Trackpoint>
            <Time>2022-07-07T14:52:12.000Z</Time>
            <Position>
              <LatitudeDegrees>43.514134995639324188232421875</LatitudeDegrees>
              <LongitudeDegrees>-1.5311274491250514984130859375</LongitudeDegrees>
            </Position>
            <AltitudeMeters>20</AltitudeMeters>
            <DistanceMeters>NAN</DistanceMeters>
          </Trackpoint>
          <Trackpoint>
            <Time>2022-07-07T14:52:13.000Z</Time>
            <Position>
              <LatitudeDegrees>43.51414027623832225799560546875</LatitudeDegrees>
              <LongitudeDegrees>-1.5311284549534320831298828125</LongitudeDegrees>
            </Position>
            <AltitudeMeters>20</AltitudeMeters>
            <DistanceMeters>NAN</DistanceMeters>
          </Trackpoint>
          <Trackpoint>
            <Time>2022-07-07T14:52:15.000Z</Time>
            <Position>
              <LatitudeDegrees>43.51416341029107570648193359375</LatitudeDegrees>
              <LongitudeDegrees>-1.5311227552592754364013671875</LongitudeDegrees>
            </Position>
            <AltitudeMeters>20</AltitudeMeters>
            <DistanceMeters>NAN</DistanceMeters>
          </Trackpoint>
          <Trackpoint>
            <Time>2022-07-07T14:52:16.000Z</Time>
            <Position>
              <LatitudeDegrees>43.51417489349842071533203125</LatitudeDegrees>
              <LongitudeDegrees>-1.53111697174608707427978515625</LongitudeDegrees>
            </Position>
            <AltitudeMeters>19.799999237060546875</AltitudeMeters>
            <DistanceMeters>NAN</DistanceMeters>
          </Trackpoint>
          <Trackpoint>
            <Time>2022-07-07T14:52:20.000Z</Time>
            <Position>
              <LatitudeDegrees>43.5141878016293048858642578125</LatitudeDegrees>
              <LongitudeDegrees>-1.53111713938415050506591796875</LongitudeDegrees>
            </Position>
            <AltitudeMeters>19.6000003814697265625</AltitudeMeters>
            <DistanceMeters>NAN</DistanceMeters>
          </Trackpoint>
          <Trackpoint>
            <Time>2022-07-07T14:52:21.000Z</Time>
            <Position>
              <LatitudeDegrees>43.5141878016293048858642578125</LatitudeDegrees>
              <LongitudeDegrees>-1.53111713938415050506591796875</LongitudeDegrees>
            </Position>
            <AltitudeMeters>19.6000003814697265625</AltitudeMeters>
            <DistanceMeters>NAN</DistanceMeters>
          </Trackpoint>
          <Trackpoint>
            <Time>2022-07-07T14:56:14.000Z</Time>
            <Position>
              <LatitudeDegrees>43.5142588801681995391845703125</LatitudeDegrees>
              <LongitudeDegrees>-1.531084366142749786376953125</LongitudeDegrees>
            </Position>
            <AltitudeMeters>17.6000003814697265625</AltitudeMeters>
            <DistanceMeters>NAN</DistanceMeters>
          </Trackpoint>
          <Trackpoint>
            <Time>2022-07-07T14:56:17.000Z</Time>
            <Position>
              <LatitudeDegrees>43.51430204696953296661376953125</LatitudeDegrees>
              <LongitudeDegrees>-1.5310580469667911529541015625</LongitudeDegrees>
            </Position>
            <AltitudeMeters>17.200000762939453125</AltitudeMeters>
            <DistanceMeters>NAN</DistanceMeters>
          </Trackpoint>
          <Trackpoint>
            <Time>2022-07-07T14:56:18.000Z</Time>
            <Position>
              <LatitudeDegrees>43.5143118537962436676025390625</LatitudeDegrees>
              <LongitudeDegrees>-1.5310466475784778594970703125</LongitudeDegrees>
            </Position>
            <AltitudeMeters>17.200000762939453125</AltitudeMeters>
            <DistanceMeters>NAN</DistanceMeters>
          </Trackpoint>
          <Trackpoint>
            <Time>2022-07-07T14:56:22.000Z</Time>
            <Position>
              <LatitudeDegrees>43.5143581219017505645751953125</LatitudeDegrees>
              <LongitudeDegrees>-1.53099350631237030029296875</LongitudeDegrees>
            </Position>
            <AltitudeMeters>17.6000003814697265625</AltitudeMeters>
            <DistanceMeters>NAN</DistanceMeters>
          </Trackpoint>
          <Trackpoint>
            <Time>2022-07-07T14:56:25.000Z</Time>
            <Position>
              <LatitudeDegrees>43.51436759345233440399169921875</LatitudeDegrees>
              <LongitudeDegrees>-1.5309873037040233612060546875</LongitudeDegrees>
            </Position>
            <AltitudeMeters>17.799999237060546875</AltitudeMeters>
            <DistanceMeters>NAN</DistanceMeters>
          </Trackpoint>
          <Trackpoint>
            <Time>2022-07-07T14:56:27.000Z</Time>
            <Position>
              <LatitudeDegrees>43.51436491124331951141357421875</LatitudeDegrees>
              <LongitudeDegrees>-1.530988477170467376708984375</LongitudeDegrees>
            </Position>
            <AltitudeMeters>18</AltitudeMeters>
            <DistanceMeters>NAN</DistanceMeters>
          </Trackpoint>
          <Trackpoint>
            <Time>2022-07-07T14:58:04.000Z</Time>
            <Position>
              <LatitudeDegrees>43.51432375609874725341796875</LatitudeDegrees>
              <LongitudeDegrees>-1.5310473181307315826416015625</LongitudeDegrees>
            </Position>
            <AltitudeMeters>17.799999237060546875</AltitudeMeters>
            <DistanceMeters>NAN</DistanceMeters>
          </Trackpoint>
          <Trackpoint>
            <Time>2022-07-07T14:58:05.000Z</Time>
            <Position>
              <LatitudeDegrees>43.5143131949007511138916015625</LatitudeDegrees>
              <LongitudeDegrees>-1.531065590679645538330078125</LongitudeDegrees>
            </Position>
            <AltitudeMeters>18.3999996185302734375</AltitudeMeters>
            <DistanceMeters>NAN</DistanceMeters>
          </Trackpoint>
          <Trackpoint>
            <Time>2022-07-07T14:58:06.000Z</Time>
            <Position>
              <LatitudeDegrees>43.51430456154048442840576171875</LatitudeDegrees>
              <LongitudeDegrees>-1.53108109720051288604736328125</LongitudeDegrees>
            </Position>
            <AltitudeMeters>18.6000003814697265625</AltitudeMeters>
            <DistanceMeters>NAN</DistanceMeters>
          </Trackpoint>
          <Trackpoint>
            <Time>2022-07-07T14:58:08.000Z</Time>
            <Position>
              <LatitudeDegrees>43.51428394205868244171142578125</LatitudeDegrees>
              <LongitudeDegrees>-1.53110356070101261138916015625</LongitudeDegrees>
            </Position>
            <AltitudeMeters>19</AltitudeMeters>
            <DistanceMeters>NAN</DistanceMeters>
          </Trackpoint>
          <Trackpoint>
            <Time>2022-07-07T14:58:09.000Z</Time>
            <Position>
              <LatitudeDegrees>43.51427136920392513275146484375</LatitudeDegrees>
              <LongitudeDegrees>-1.531111188232898712158203125</LongitudeDegrees>
            </Position>
            <AltitudeMeters>19</AltitudeMeters>
            <DistanceMeters>NAN</DistanceMeters>
          </Trackpoint>
          <Trackpoint>
            <Time>2022-07-07T14:58:11.000Z</Time>
            <Position>
              <LatitudeDegrees>43.51424572058022022247314453125</LatitudeDegrees>
              <LongitudeDegrees>-1.5311274491250514984130859375</LongitudeDegrees>
            </Position>
            <AltitudeMeters>18</AltitudeMeters>
            <DistanceMeters>NAN</DistanceMeters>
          </Trackpoint>
          <Trackpoint>
            <Time>2022-07-07T14:58:12.000Z</Time>
            <Position>
              <LatitudeDegrees>43.5142426192760467529296875</LatitudeDegrees>
              <LongitudeDegrees>-1.531132645905017852783203125</LongitudeDegrees>
            </Position>
            <AltitudeMeters>17.200000762939453125</AltitudeMeters>
            <DistanceMeters>NAN</DistanceMeters>
          </Trackpoint>
          <Trackpoint>
            <Time>2022-07-07T14:58:13.000Z</Time>
            <Position>
              <LatitudeDegrees>43.51424203254282474517822265625</LatitudeDegrees>
              <LongitudeDegrees>-1.53113608248531818389892578125</LongitudeDegrees>
            </Position>
            <AltitudeMeters>16.6000003814697265625</AltitudeMeters>
            <DistanceMeters>NAN</DistanceMeters>
          </Trackpoint>
          <Trackpoint>
            <Time>2022-07-07T14:58:14.000Z</Time>
            <Position>
              <LatitudeDegrees>43.51424203254282474517822265625</LatitudeDegrees>
              <LongitudeDegrees>-1.53113608248531818389892578125</LongitudeDegrees>
            </Position>
            <AltitudeMeters>16.200000762939453125</AltitudeMeters>
            <DistanceMeters>NAN</DistanceMeters>
          </Trackpoint>
          <Trackpoint>
            <Time>2022-07-07T15:57:52.000Z</Time>
            <Position>
              <LatitudeDegrees>43.51410792209208011627197265625</LatitudeDegrees>
              <LongitudeDegrees>-1.53119307942688465118408203125</LongitudeDegrees>
            </Position>
            <AltitudeMeters>16.799999237060546875</AltitudeMeters>
            <DistanceMeters>NAN</DistanceMeters>
          </Trackpoint>
          <Trackpoint>
            <Time>2022-07-07T15:57:53.000Z</Time>
            <Position>
              <LatitudeDegrees>43.5141083411872386932373046875</LatitudeDegrees>
              <LongitudeDegrees>-1.5312209911644458770751953125</LongitudeDegrees>
            </Position>
            <AltitudeMeters>16.799999237060546875</AltitudeMeters>
            <DistanceMeters>NAN</DistanceMeters>
          </Trackpoint>
          <Trackpoint>
            <Time>2022-07-07T15:57:54.000Z</Time>
            <Position>
              <LatitudeDegrees>43.5141103528439998626708984375</LatitudeDegrees>
              <LongitudeDegrees>-1.53123398311436176300048828125</LongitudeDegrees>
            </Position>
            <AltitudeMeters>16.799999237060546875</AltitudeMeters>
            <DistanceMeters>NAN</DistanceMeters>
          </Trackpoint>
          <Trackpoint>
            <Time>2022-07-07T15:57:55.000Z</Time>
            <Position>
              <LatitudeDegrees>43.5141096822917461395263671875</LatitudeDegrees>
              <LongitudeDegrees>-1.5312162972986698150634765625</LongitudeDegrees>
            </Position>
            <AltitudeMeters>16.799999237060546875</AltitudeMeters>
            <DistanceMeters>NAN</DistanceMeters>
          </Trackpoint>
          <Trackpoint>
            <Time>2022-07-07T15:57:56.000Z</Time>
            <Position>
              <LatitudeDegrees>43.514110185205936431884765625</LatitudeDegrees>
              <LongitudeDegrees>-1.53121269308030605316162109375</LongitudeDegrees>
            </Position>
            <AltitudeMeters>17</AltitudeMeters>
            <DistanceMeters>NAN</DistanceMeters>
          </Trackpoint>
          <Trackpoint>
            <Time>2022-07-07T15:58:00.000Z</Time>
            <Position>
              <LatitudeDegrees>43.514107502996921539306640625</LatitudeDegrees>
              <LongitudeDegrees>-1.531229875981807708740234375</LongitudeDegrees>
            </Position>
            <AltitudeMeters>16.799999237060546875</AltitudeMeters>
            <DistanceMeters>NAN</DistanceMeters>
          </Trackpoint>
          <Trackpoint>
            <Time>2022-07-07T15:59:57.000Z</Time>
            <Position>
              <LatitudeDegrees>43.51402611471712589263916015625</LatitudeDegrees>
              <LongitudeDegrees>-1.5312302112579345703125</LongitudeDegrees>
            </Position>
            <AltitudeMeters>15.6000003814697265625</AltitudeMeters>
            <DistanceMeters>NAN</DistanceMeters>
          </Trackpoint>
          <Trackpoint>
            <Time>2022-07-07T15:59:58.000Z</Time>
            <Position>
              <LatitudeDegrees>43.51401521824300289154052734375</LatitudeDegrees>
              <LongitudeDegrees>-1.5312390960752964019775390625</LongitudeDegrees>
            </Position>
            <AltitudeMeters>15.6000003814697265625</AltitudeMeters>
            <DistanceMeters>NAN</DistanceMeters>
          </Trackpoint>
          <Trackpoint>
            <Time>2022-07-07T15:59:59.000Z</Time>
            <Position>
              <LatitudeDegrees>43.51400180719792842864990234375</LatitudeDegrees>
              <LongitudeDegrees>-1.53124638833105564117431640625</LongitudeDegrees>
            </Position>
            <AltitudeMeters>15.6000003814697265625</AltitudeMeters>
            <DistanceMeters>NAN</DistanceMeters>
          </Trackpoint>
          <Trackpoint>
            <Time>2022-07-07T16:00:08.000Z</Time>
            <Position>
              <LatitudeDegrees>43.51387104950845241546630859375</LatitudeDegrees>
              <LongitudeDegrees>-1.5313222445547580718994140625</LongitudeDegrees>
            </Position>
            <AltitudeMeters>16.3999996185302734375</AltitudeMeters>
            <DistanceMeters>NAN</DistanceMeters>
          </Trackpoint>
          <Trackpoint>
            <Time>2022-07-07T16:00:10.000Z</Time>
            <Position>
              <LatitudeDegrees>43.5138417966663837432861328125</LatitudeDegrees>
              <LongitudeDegrees>-1.531331129372119903564453125</LongitudeDegrees>
            </Position>
            <AltitudeMeters>16.6000003814697265625</AltitudeMeters>
            <DistanceMeters>NAN</DistanceMeters>
          </Trackpoint>
          <Trackpoint>
            <Time>2022-07-07T16:00:14.000Z</Time>
            <Position>
              <LatitudeDegrees>43.5137847997248172760009765625</LatitudeDegrees>
              <LongitudeDegrees>-1.53134780935943126678466796875</LongitudeDegrees>
            </Position>
            <AltitudeMeters>16.799999237060546875</AltitudeMeters>
            <DistanceMeters>NAN</DistanceMeters>
          </Trackpoint>
          <Trackpoint>
            <Time>2022-07-07T16:00:17.000Z</Time>
            <Position>
              <LatitudeDegrees>43.513738699257373809814453125</LatitudeDegrees>
              <LongitudeDegrees>-1.53136809356510639190673828125</LongitudeDegrees>
            </Position>
            <AltitudeMeters>17.200000762939453125</AltitudeMeters>
            <DistanceMeters>NAN</DistanceMeters>
          </Trackpoint>
          <Trackpoint>
            <Time>2022-07-07T16:00:21.000Z</Time>
            <Position>
              <LatitudeDegrees>43.51369201205670833587646484375</LatitudeDegrees>
              <LongitudeDegrees>-1.53139390982687473297119140625</LongitudeDegrees>
            </Position>
            <AltitudeMeters>17.3999996185302734375</AltitudeMeters>
            <DistanceMeters>NAN</DistanceMeters>
          </Trackpoint>
          <Trackpoint>
            <Time>2022-07-07T16:00:23.000Z</Time>
            <Position>
              <LatitudeDegrees>43.51366803981363773345947265625</LatitudeDegrees>
              <LongitudeDegrees>-1.53140715323388576507568359375</LongitudeDegrees>
            </Position>
            <AltitudeMeters>17.799999237060546875</AltitudeMeters>
            <DistanceMeters>NAN</DistanceMeters>
          </Trackpoint>
          <Trackpoint>
            <Time>2022-07-07T16:00:28.000Z</Time>
            <Position>
              <LatitudeDegrees>43.51361255161464214324951171875</LatitudeDegrees>
              <LongitudeDegrees>-1.53142173774540424346923828125</LongitudeDegrees>
            </Position>
            <AltitudeMeters>18</AltitudeMeters>
            <DistanceMeters>NAN</DistanceMeters>
          </Trackpoint>
          <Trackpoint>
            <Time>2022-07-07T16:00:32.000Z</Time>
            <Position>
              <LatitudeDegrees>43.51355337537825107574462890625</LatitudeDegrees>
              <LongitudeDegrees>-1.53141872026026248931884765625</LongitudeDegrees>
            </Position>
            <AltitudeMeters>18.6000003814697265625</AltitudeMeters>
            <DistanceMeters>NAN</DistanceMeters>
          </Trackpoint>
          <Trackpoint>
            <Time>2022-07-07T16:00:33.000Z</Time>
            <Position>
              <LatitudeDegrees>43.51353652775287628173828125</LatitudeDegrees>
              <LongitudeDegrees>-1.53141721151769161224365234375</LongitudeDegrees>
            </Position>
            <AltitudeMeters>18.799999237060546875</AltitudeMeters>
            <DistanceMeters>NAN</DistanceMeters>
          </Trackpoint>
          <Trackpoint>
            <Time>2022-07-07T16:00:36.000Z</Time>
            <Position>
              <LatitudeDegrees>43.51348313502967357635498046875</LatitudeDegrees>
              <LongitudeDegrees>-1.53144185431301593780517578125</LongitudeDegrees>
            </Position>
            <AltitudeMeters>18.799999237060546875</AltitudeMeters>
            <DistanceMeters>NAN</DistanceMeters>
          </Trackpoint>
          <Trackpoint>
            <Time>2022-07-07T16:00:44.000Z</Time>
            <Position>
              <LatitudeDegrees>43.51333930157124996185302734375</LatitudeDegrees>
              <LongitudeDegrees>-1.53157244436442852020263671875</LongitudeDegrees>
            </Position>
            <AltitudeMeters>18.6000003814697265625</AltitudeMeters>
            <DistanceMeters>NAN</DistanceMeters>
          </Trackpoint>
          <Trackpoint>
            <Time>2022-07-07T16:00:49.000Z</Time>
            <Position>
              <LatitudeDegrees>43.5132450051605701446533203125</LatitudeDegrees>
              <LongitudeDegrees>-1.53166062198579311370849609375</LongitudeDegrees>
            </Position>
            <AltitudeMeters>18.6000003814697265625</AltitudeMeters>
            <DistanceMeters>NAN</DistanceMeters>
          </Trackpoint>
          <Trackpoint>
            <Time>2022-07-07T16:00:54.000Z</Time>
            <Position>
              <LatitudeDegrees>43.51313545368611812591552734375</LatitudeDegrees>
              <LongitudeDegrees>-1.53175416402518749237060546875</LongitudeDegrees>
            </Position>
            <AltitudeMeters>18.3999996185302734375</AltitudeMeters>
            <DistanceMeters>NAN</DistanceMeters>
          </Trackpoint>
          <Trackpoint>
            <Time>2022-07-07T16:00:58.000Z</Time>
            <Position>
              <LatitudeDegrees>43.5130243934690952301025390625</LatitudeDegrees>
              <LongitudeDegrees>-1.53183965943753719329833984375</LongitudeDegrees>
            </Position>
            <AltitudeMeters>18.3999996185302734375</AltitudeMeters>
            <DistanceMeters>NAN</DistanceMeters>
          </Trackpoint>
          <Trackpoint>
            <Time>2022-07-07T16:01:00.000Z</Time>
            <Position>
              <LatitudeDegrees>43.5129685699939727783203125</LatitudeDegrees>
              <LongitudeDegrees>-1.53188693337142467498779296875</LongitudeDegrees>
            </Position>
            <AltitudeMeters>18.3999996185302734375</AltitudeMeters>
            <DistanceMeters>NAN</DistanceMeters>
          </Trackpoint>
          <Trackpoint>
            <Time>2022-07-07T16:01:07.000Z</Time>
            <Position>
              <LatitudeDegrees>43.51280889473855495452880859375</LatitudeDegrees>
              <LongitudeDegrees>-1.5320115722715854644775390625</LongitudeDegrees>
            </Position>
            <AltitudeMeters>18.200000762939453125</AltitudeMeters>
            <DistanceMeters>NAN</DistanceMeters>
          </Trackpoint>
          <Trackpoint>
            <Time>2022-07-07T16:01:10.000Z</Time>
            <Position>
              <LatitudeDegrees>43.5127380676567554473876953125</LatitudeDegrees>
              <LongitudeDegrees>-1.53205255977809429168701171875</LongitudeDegrees>
            </Position>
            <AltitudeMeters>18</AltitudeMeters>
            <DistanceMeters>NAN</DistanceMeters>
          </Trackpoint>
          <Trackpoint>
            <Time>2022-07-07T16:01:17.000Z</Time>
            <Position>
              <LatitudeDegrees>43.5125657357275485992431640625</LatitudeDegrees>
              <LongitudeDegrees>-1.5321681462228298187255859375</LongitudeDegrees>
            </Position>
            <AltitudeMeters>17.6000003814697265625</AltitudeMeters>
            <DistanceMeters>NAN</DistanceMeters>
          </Trackpoint>
          <Trackpoint>
            <Time>2022-07-07T16:01:21.000Z</Time>
            <Position>
              <LatitudeDegrees>43.51246121339499950408935546875</LatitudeDegrees>
              <LongitudeDegrees>-1.5323017537593841552734375</LongitudeDegrees>
            </Position>
            <AltitudeMeters>17.200000762939453125</AltitudeMeters>
            <DistanceMeters>NAN</DistanceMeters>
          </Trackpoint>
          <Trackpoint>
            <Time>2022-07-07T16:01:26.000Z</Time>
            <Position>
              <LatitudeDegrees>43.51236197166144847869873046875</LatitudeDegrees>
              <LongitudeDegrees>-1.5324672125279903411865234375</LongitudeDegrees>
            </Position>
            <AltitudeMeters>16.6000003814697265625</AltitudeMeters>
            <DistanceMeters>NAN</DistanceMeters>
          </Trackpoint>
          <Trackpoint>
            <Time>2022-07-07T16:01:29.000Z</Time>
            <Position>
              <LatitudeDegrees>43.51229944266378879547119140625</LatitudeDegrees>
              <LongitudeDegrees>-1.53257726691663265228271484375</LongitudeDegrees>
            </Position>
            <AltitudeMeters>16</AltitudeMeters>
            <DistanceMeters>NAN</DistanceMeters>
          </Trackpoint>
          <Trackpoint>
            <Time>2022-07-07T16:01:31.000Z</Time>
            <Position>
              <LatitudeDegrees>43.512251079082489013671875</LatitudeDegrees>
              <LongitudeDegrees>-1.53267080895602703094482421875</LongitudeDegrees>
            </Position>
            <AltitudeMeters>15.3999996185302734375</AltitudeMeters>
            <DistanceMeters>NAN</DistanceMeters>
          </Trackpoint>
          <Trackpoint>
            <Time>2022-07-07T16:01:33.000Z</Time>
            <Position>
              <LatitudeDegrees>43.5122110135853290557861328125</LatitudeDegrees>
              <LongitudeDegrees>-1.53276217170059680938720703125</LongitudeDegrees>
            </Position>
            <AltitudeMeters>15</AltitudeMeters>
            <DistanceMeters>NAN</DistanceMeters>
          </Trackpoint>
          <Trackpoint>
            <Time>2022-07-07T16:01:34.000Z</Time>
            <Position>
              <LatitudeDegrees>43.5121764801442623138427734375</LatitudeDegrees>
              <LongitudeDegrees>-1.53282009065151214599609375</LongitudeDegrees>
            </Position>
            <AltitudeMeters>14.6000003814697265625</AltitudeMeters>
            <DistanceMeters>NAN</DistanceMeters>
          </Trackpoint>
          <Trackpoint>
            <Time>2022-07-07T16:01:35.000Z</Time>
            <Position>
              <LatitudeDegrees>43.51214001886546611785888671875</LatitudeDegrees>
              <LongitudeDegrees>-1.532864011824131011962890625</LongitudeDegrees>
            </Position>
            <AltitudeMeters>14.3999996185302734375</AltitudeMeters>
            <DistanceMeters>NAN</DistanceMeters>
          </Trackpoint>
          <Trackpoint>
            <Time>2022-07-07T16:01:40.000Z</Time>
            <Position>
              <LatitudeDegrees>43.511955030262470245361328125</LatitudeDegrees>
              <LongitudeDegrees>-1.533052437007427215576171875</LongitudeDegrees>
            </Position>
            <AltitudeMeters>14</AltitudeMeters>
            <DistanceMeters>NAN</DistanceMeters>
          </Trackpoint>
          <Trackpoint>
            <Time>2022-07-07T16:01:46.000Z</Time>
            <Position>
              <LatitudeDegrees>43.511753864586353302001953125</LatitudeDegrees>
              <LongitudeDegrees>-1.5332405269145965576171875</LongitudeDegrees>
            </Position>
            <AltitudeMeters>13.80000019073486328125</AltitudeMeters>
            <DistanceMeters>NAN</DistanceMeters>
          </Trackpoint>
          <Trackpoint>
            <Time>2022-07-07T16:01:47.000Z</Time>
            <Position>
              <LatitudeDegrees>43.5117272101342678070068359375</LatitudeDegrees>
              <LongitudeDegrees>-1.5332673490047454833984375</LongitudeDegrees>
            </Position>
            <AltitudeMeters>13.6000003814697265625</AltitudeMeters>
            <DistanceMeters>NAN</DistanceMeters>
          </Trackpoint>
          <Trackpoint>
            <Time>2022-07-07T16:01:50.000Z</Time>
            <Position>
              <LatitudeDegrees>43.51163777522742748260498046875</LatitudeDegrees>
              <LongitudeDegrees>-1.53334789909422397613525390625</LongitudeDegrees>
            </Position>
            <AltitudeMeters>13.3999996185302734375</AltitudeMeters>
            <DistanceMeters>NAN</DistanceMeters>
          </Trackpoint>
          <Trackpoint>
            <Time>2022-07-07T16:01:54.000Z</Time>
            <Position>
              <LatitudeDegrees>43.51152780465781688690185546875</LatitudeDegrees>
              <LongitudeDegrees>-1.53343909420073032379150390625</LongitudeDegrees>
            </Position>
            <AltitudeMeters>13.3999996185302734375</AltitudeMeters>
            <DistanceMeters>NAN</DistanceMeters>
          </Trackpoint>
          <Trackpoint>
            <Time>2022-07-07T16:02:00.000Z</Time>
            <Position>
              <LatitudeDegrees>43.5113667882978916168212890625</LatitudeDegrees>
              <LongitudeDegrees>-1.53358192183077335357666015625</LongitudeDegrees>
            </Position>
            <AltitudeMeters>13.19999980926513671875</AltitudeMeters>
            <DistanceMeters>NAN</DistanceMeters>
          </Trackpoint>
          <Trackpoint>
            <Time>2022-07-07T16:02:04.000Z</Time>
            <Position>
              <LatitudeDegrees>43.5112631879746913909912109375</LatitudeDegrees>
              <LongitudeDegrees>-1.53365635313093662261962890625</LongitudeDegrees>
            </Position>
            <AltitudeMeters>13</AltitudeMeters>
            <DistanceMeters>NAN</DistanceMeters>
          </Trackpoint>
          <Trackpoint>
            <Time>2022-07-07T16:02:09.000Z</Time>
            <Position>
              <LatitudeDegrees>43.51114441640675067901611328125</LatitudeDegrees>
              <LongitudeDegrees>-1.53376682661473751068115234375</LongitudeDegrees>
            </Position>
            <AltitudeMeters>12.80000019073486328125</AltitudeMeters>
            <DistanceMeters>NAN</DistanceMeters>
          </Trackpoint>
          <Trackpoint>
            <Time>2022-07-07T16:02:11.000Z</Time>
            <Position>
              <LatitudeDegrees>43.511094041168689727783203125</LatitudeDegrees>
              <LongitudeDegrees>-1.53379968367516994476318359375</LongitudeDegrees>
            </Position>
            <AltitudeMeters>12.80000019073486328125</AltitudeMeters>
            <DistanceMeters>NAN</DistanceMeters>
          </Trackpoint>
          <Trackpoint>
            <Time>2022-07-07T16:02:19.000Z</Time>
            <Position>
              <LatitudeDegrees>43.51089882664382457733154296875</LatitudeDegrees>
              <LongitudeDegrees>-1.53394251130521297454833984375</LongitudeDegrees>
            </Position>
            <AltitudeMeters>12.80000019073486328125</AltitudeMeters>
            <DistanceMeters>NAN</DistanceMeters>
          </Trackpoint>
          <Trackpoint>
            <Time>2022-07-07T16:02:28.000Z</Time>
            <Position>
              <LatitudeDegrees>43.510731272399425506591796875</LatitudeDegrees>
              <LongitudeDegrees>-1.534106545150279998779296875</LongitudeDegrees>
            </Position>
            <AltitudeMeters>12.6000003814697265625</AltitudeMeters>
            <DistanceMeters>NAN</DistanceMeters>
          </Trackpoint>
          <Trackpoint>
            <Time>2022-07-07T16:02:29.000Z</Time>
            <Position>
              <LatitudeDegrees>43.51072347722947597503662109375</LatitudeDegrees>
              <LongitudeDegrees>-1.53413034975528717041015625</LongitudeDegrees>
            </Position>
            <AltitudeMeters>12.80000019073486328125</AltitudeMeters>
            <DistanceMeters>NAN</DistanceMeters>
          </Trackpoint>
          <Trackpoint>
            <Time>2022-07-07T16:02:35.000Z</Time>
            <Position>
              <LatitudeDegrees>43.5106543265283107757568359375</LatitudeDegrees>
              <LongitudeDegrees>-1.534225903451442718505859375</LongitudeDegrees>
            </Position>
            <AltitudeMeters>12.3999996185302734375</AltitudeMeters>
            <DistanceMeters>NAN</DistanceMeters>
          </Trackpoint>
          <Trackpoint>
            <Time>2022-07-07T16:02:37.000Z</Time>
            <Position>
              <LatitudeDegrees>43.51061099208891391754150390625</LatitudeDegrees>
              <LongitudeDegrees>-1.53425632975995540618896484375</LongitudeDegrees>
            </Position>
            <AltitudeMeters>12.19999980926513671875</AltitudeMeters>
            <DistanceMeters>NAN</DistanceMeters>
          </Trackpoint>
          <Trackpoint>
            <Time>2022-07-07T16:02:42.000Z</Time>
            <Position>
              <LatitudeDegrees>43.51051275618374347686767578125</LatitudeDegrees>
              <LongitudeDegrees>-1.5342790447175502777099609375</LongitudeDegrees>
            </Position>
            <AltitudeMeters>12</AltitudeMeters>
            <DistanceMeters>NAN</DistanceMeters>
          </Trackpoint>
          <Trackpoint>
            <Time>2022-07-07T16:02:43.000Z</Time>
            <Position>
              <LatitudeDegrees>43.510491549968719482421875</LatitudeDegrees>
              <LongitudeDegrees>-1.53428667224943637847900390625</LongitudeDegrees>
            </Position>
            <AltitudeMeters>12</AltitudeMeters>
            <DistanceMeters>NAN</DistanceMeters>
          </Trackpoint>
          <Trackpoint>
            <Time>2022-07-07T16:02:46.000Z</Time>
            <Position>
              <LatitudeDegrees>43.51043631322681903839111328125</LatitudeDegrees>
              <LongitudeDegrees>-1.53433956205844879150390625</LongitudeDegrees>
            </Position>
            <AltitudeMeters>12.19999980926513671875</AltitudeMeters>
            <DistanceMeters>NAN</DistanceMeters>
          </Trackpoint>
          <Trackpoint>
            <Time>2022-07-07T16:02:55.000Z</Time>
            <Position>
              <LatitudeDegrees>43.510262556374073028564453125</LatitudeDegrees>
              <LongitudeDegrees>-1.53447694145143032073974609375</LongitudeDegrees>
            </Position>
            <AltitudeMeters>12</AltitudeMeters>
            <DistanceMeters>NAN</DistanceMeters>
          </Trackpoint>
          <Trackpoint>
            <Time>2022-07-07T16:02:59.000Z</Time>
            <Position>
              <LatitudeDegrees>43.51017965935170650482177734375</LatitudeDegrees>
              <LongitudeDegrees>-1.5345476008951663970947265625</LongitudeDegrees>
            </Position>
            <AltitudeMeters>12.19999980926513671875</AltitudeMeters>
            <DistanceMeters>NAN</DistanceMeters>
          </Trackpoint>
          <Trackpoint>
            <Time>2022-07-07T16:03:03.000Z</Time>
            <Position>
              <LatitudeDegrees>43.5101011209189891815185546875</LatitudeDegrees>
              <LongitudeDegrees>-1.53462043963372707366943359375</LongitudeDegrees>
            </Position>
            <AltitudeMeters>12</AltitudeMeters>
            <DistanceMeters>NAN</DistanceMeters>
          </Trackpoint>
          <Trackpoint>
            <Time>2022-07-07T16:03:09.000Z</Time>
            <Position>
              <LatitudeDegrees>43.51002090610563755035400390625</LatitudeDegrees>
              <LongitudeDegrees>-1.53470224700868129730224609375</LongitudeDegrees>
            </Position>
            <AltitudeMeters>12</AltitudeMeters>
            <DistanceMeters>NAN</DistanceMeters>
          </Trackpoint>
          <Trackpoint>
            <Time>2022-07-07T16:03:14.000Z</Time>
            <Position>
              <LatitudeDegrees>43.5100236721336841583251953125</LatitudeDegrees>
              <LongitudeDegrees>-1.53470090590417385101318359375</LongitudeDegrees>
            </Position>
            <AltitudeMeters>11.80000019073486328125</AltitudeMeters>
            <DistanceMeters>NAN</DistanceMeters>
          </Trackpoint>
          <Trackpoint>
            <Time>2022-07-07T16:03:16.000Z</Time>
            <Position>
              <LatitudeDegrees>43.51002643816173076629638671875</LatitudeDegrees>
              <LongitudeDegrees>-1.534698642790317535400390625</LongitudeDegrees>
            </Position>
            <AltitudeMeters>11.80000019073486328125</AltitudeMeters>
            <DistanceMeters>NAN</DistanceMeters>
          </Trackpoint>
          <Trackpoint>
            <Time>2022-07-07T16:03:18.000Z</Time>
            <Position>
              <LatitudeDegrees>43.51002643816173076629638671875</LatitudeDegrees>
              <LongitudeDegrees>-1.534698642790317535400390625</LongitudeDegrees>
            </Position>
            <AltitudeMeters>11.6000003814697265625</AltitudeMeters>
            <DistanceMeters>NAN</DistanceMeters>
          </Trackpoint>
          <Trackpoint>
            <Time>2022-07-07T16:04:27.000Z</Time>
            <Position>
              <LatitudeDegrees>43.5099807567894458770751953125</LatitudeDegrees>
              <LongitudeDegrees>-1.53474231250584125518798828125</LongitudeDegrees>
            </Position>
            <AltitudeMeters>10.19999980926513671875</AltitudeMeters>
            <DistanceMeters>NAN</DistanceMeters>
          </Trackpoint>
          <Trackpoint>
            <Time>2022-07-07T16:04:28.000Z</Time>
            <Position>
              <LatitudeDegrees>43.50995888002216815948486328125</LatitudeDegrees>
              <LongitudeDegrees>-1.53475874103605747222900390625</LongitudeDegrees>
            </Position>
            <AltitudeMeters>10.19999980926513671875</AltitudeMeters>
            <DistanceMeters>NAN</DistanceMeters>
          </Trackpoint>
          <Trackpoint>
            <Time>2022-07-07T16:04:38.000Z</Time>
            <Position>
              <LatitudeDegrees>43.5097182355821132659912109375</LatitudeDegrees>
              <LongitudeDegrees>-1.53496879152953624725341796875</LongitudeDegrees>
            </Position>
            <AltitudeMeters>10.3999996185302734375</AltitudeMeters>
            <DistanceMeters>NAN</DistanceMeters>
          </Trackpoint>
          <Trackpoint>
            <Time>2022-07-07T16:04:46.000Z</Time>
            <Position>
              <LatitudeDegrees>43.50951245985925197601318359375</LatitudeDegrees>
              <LongitudeDegrees>-1.5351500920951366424560546875</LongitudeDegrees>
            </Position>
            <AltitudeMeters>10.19999980926513671875</AltitudeMeters>
            <DistanceMeters>NAN</DistanceMeters>
          </Trackpoint>
          <Trackpoint>
            <Time>2022-07-07T16:04:56.000Z</Time>
            <Position>
              <LatitudeDegrees>43.50927986204624176025390625</LatitudeDegrees>
              <LongitudeDegrees>-1.535337008535861968994140625</LongitudeDegrees>
            </Position>
            <AltitudeMeters>10</AltitudeMeters>
            <DistanceMeters>NAN</DistanceMeters>
          </Trackpoint>
          <Trackpoint>
            <Time>2022-07-07T16:05:05.000Z</Time>
            <Position>
              <LatitudeDegrees>43.5090527124702930450439453125</LatitudeDegrees>
              <LongitudeDegrees>-1.5355366654694080352783203125</LongitudeDegrees>
            </Position>
            <AltitudeMeters>10</AltitudeMeters>
            <DistanceMeters>NAN</DistanceMeters>
          </Trackpoint>
          <Trackpoint>
            <Time>2022-07-07T16:05:12.000Z</Time>
            <Position>
              <LatitudeDegrees>43.508880548179149627685546875</LatitudeDegrees>
              <LongitudeDegrees>-1.5356533415615558624267578125</LongitudeDegrees>
            </Position>
            <AltitudeMeters>10</AltitudeMeters>
            <DistanceMeters>NAN</DistanceMeters>
          </Trackpoint>
          <Trackpoint>
            <Time>2022-07-07T16:05:19.000Z</Time>
            <Position>
              <LatitudeDegrees>43.50871299393475055694580078125</LatitudeDegrees>
              <LongitudeDegrees>-1.53575467877089977264404296875</LongitudeDegrees>
            </Position>
            <AltitudeMeters>10</AltitudeMeters>
            <DistanceMeters>NAN</DistanceMeters>
          </Trackpoint>
          <Trackpoint>
            <Time>2022-07-07T16:05:26.000Z</Time>
            <Position>
              <LatitudeDegrees>43.5085269995033740997314453125</LatitudeDegrees>
              <LongitudeDegrees>-1.535845287144184112548828125</LongitudeDegrees>
            </Position>
            <AltitudeMeters>10.19999980926513671875</AltitudeMeters>
            <DistanceMeters>NAN</DistanceMeters>
          </Trackpoint>
          <Trackpoint>
            <Time>2022-07-07T16:05:32.000Z</Time>
            <Position>
              <LatitudeDegrees>43.50837084464728832244873046875</LatitudeDegrees>
              <LongitudeDegrees>-1.53592365793883800506591796875</LongitudeDegrees>
            </Position>
            <AltitudeMeters>10.19999980926513671875</AltitudeMeters>
            <DistanceMeters>NAN</DistanceMeters>
          </Trackpoint>
          <Trackpoint>
            <Time>2022-07-07T16:05:38.000Z</Time>
            <Position>
              <LatitudeDegrees>43.50822709500789642333984375</LatitudeDegrees>
              <LongitudeDegrees>-1.53600043617188930511474609375</LongitudeDegrees>
            </Position>
            <AltitudeMeters>10</AltitudeMeters>
            <DistanceMeters>NAN</DistanceMeters>
          </Trackpoint>
          <Trackpoint>
            <Time>2022-07-07T16:05:44.000Z</Time>
            <Position>
              <LatitudeDegrees>43.5080921463668346405029296875</LatitudeDegrees>
              <LongitudeDegrees>-1.53608165681362152099609375</LongitudeDegrees>
            </Position>
            <AltitudeMeters>10</AltitudeMeters>
            <DistanceMeters>NAN</DistanceMeters>
          </Trackpoint>
          <Trackpoint>
            <Time>2022-07-07T16:05:52.000Z</Time>
            <Position>
              <LatitudeDegrees>43.5079033859074115753173828125</LatitudeDegrees>
              <LongitudeDegrees>-1.5361991710960865020751953125</LongitudeDegrees>
            </Position>
            <AltitudeMeters>9.80000019073486328125</AltitudeMeters>
            <DistanceMeters>NAN</DistanceMeters>
          </Trackpoint>
          <Trackpoint>
            <Time>2022-07-07T16:06:02.000Z</Time>
            <Position>
              <LatitudeDegrees>43.50771353580057621002197265625</LatitudeDegrees>
              <LongitudeDegrees>-1.5362982451915740966796875</LongitudeDegrees>
            </Position>
            <AltitudeMeters>10.80000019073486328125</AltitudeMeters>
            <DistanceMeters>NAN</DistanceMeters>
          </Trackpoint>
          <Trackpoint>
            <Time>2022-07-07T16:06:11.000Z</Time>
            <Position>
              <LatitudeDegrees>43.50751387886703014373779296875</LatitudeDegrees>
              <LongitudeDegrees>-1.536418609321117401123046875</LongitudeDegrees>
            </Position>
            <AltitudeMeters>11</AltitudeMeters>
            <DistanceMeters>NAN</DistanceMeters>
          </Trackpoint>
          <Trackpoint>
            <Time>2022-07-07T16:06:21.000Z</Time>
            <Position>
              <LatitudeDegrees>43.5072378627955913543701171875</LatitudeDegrees>
              <LongitudeDegrees>-1.53657828457653522491455078125</LongitudeDegrees>
            </Position>
            <AltitudeMeters>11</AltitudeMeters>
            <DistanceMeters>NAN</DistanceMeters>
          </Trackpoint>
          <Trackpoint>
            <Time>2022-07-07T16:06:26.000Z</Time>
            <Position>
              <LatitudeDegrees>43.507092855870723724365234375</LatitudeDegrees>
              <LongitudeDegrees>-1.53666210360825061798095703125</LongitudeDegrees>
            </Position>
            <AltitudeMeters>10.80000019073486328125</AltitudeMeters>
            <DistanceMeters>NAN</DistanceMeters>
          </Trackpoint>
          <Trackpoint>
            <Time>2022-07-07T16:06:32.000Z</Time>
            <Position>
              <LatitudeDegrees>43.506905771791934967041015625</LatitudeDegrees>
              <LongitudeDegrees>-1.536763608455657958984375</LongitudeDegrees>
            </Position>
            <AltitudeMeters>10.19999980926513671875</AltitudeMeters>
            <DistanceMeters>NAN</DistanceMeters>
          </Trackpoint>
          <Trackpoint>
            <Time>2022-07-07T16:06:41.000Z</Time>
            <Position>
              <LatitudeDegrees>43.50661500357091426849365234375</LatitudeDegrees>
              <LongitudeDegrees>-1.5368802845478057861328125</LongitudeDegrees>
            </Position>
            <AltitudeMeters>9.3999996185302734375</AltitudeMeters>
            <DistanceMeters>NAN</DistanceMeters>
          </Trackpoint>
          <Trackpoint>
            <Time>2022-07-07T16:06:51.000Z</Time>
            <Position>
              <LatitudeDegrees>43.5063383169472217559814453125</LatitudeDegrees>
              <LongitudeDegrees>-1.53693686239421367645263671875</LongitudeDegrees>
            </Position>
            <AltitudeMeters>9.3999996185302734375</AltitudeMeters>
            <DistanceMeters>NAN</DistanceMeters>
          </Trackpoint>
          <Trackpoint>
            <Time>2022-07-07T16:06:53.000Z</Time>
            <Position>
              <LatitudeDegrees>43.50629397667944431304931640625</LatitudeDegrees>
              <LongitudeDegrees>-1.53695429675281047821044921875</LongitudeDegrees>
            </Position>
            <AltitudeMeters>9.6000003814697265625</AltitudeMeters>
            <DistanceMeters>NAN</DistanceMeters>
          </Trackpoint>
          <Trackpoint>
            <Time>2022-07-07T16:06:56.000Z</Time>
            <Position>
              <LatitudeDegrees>43.50624603219330310821533203125</LatitudeDegrees>
              <LongitudeDegrees>-1.53696636669337749481201171875</LongitudeDegrees>
            </Position>
            <AltitudeMeters>9.6000003814697265625</AltitudeMeters>
            <DistanceMeters>NAN</DistanceMeters>
          </Trackpoint>
          <Trackpoint>
            <Time>2022-07-07T16:07:03.000Z</Time>
            <Position>
              <LatitudeDegrees>43.5061602853238582611083984375</LatitudeDegrees>
              <LongitudeDegrees>-1.53696008026599884033203125</LongitudeDegrees>
            </Position>
            <AltitudeMeters>9.6000003814697265625</AltitudeMeters>
            <DistanceMeters>NAN</DistanceMeters>
          </Trackpoint>
          <Trackpoint>
            <Time>2022-07-07T16:07:10.000Z</Time>
            <Position>
              <LatitudeDegrees>43.5060781426727771759033203125</LatitudeDegrees>
              <LongitudeDegrees>-1.53700861148536205291748046875</LongitudeDegrees>
            </Position>
            <AltitudeMeters>9.6000003814697265625</AltitudeMeters>
            <DistanceMeters>NAN</DistanceMeters>
          </Trackpoint>
          <Trackpoint>
            <Time>2022-07-07T16:07:16.000Z</Time>
            <Position>
              <LatitudeDegrees>43.50600983016192913055419921875</LatitudeDegrees>
              <LongitudeDegrees>-1.53711296617984771728515625</LongitudeDegrees>
            </Position>
            <AltitudeMeters>9.3999996185302734375</AltitudeMeters>
            <DistanceMeters>NAN</DistanceMeters>
          </Trackpoint>
          <Trackpoint>
            <Time>2022-07-07T16:07:19.000Z</Time>
            <Position>
              <LatitudeDegrees>43.5059624724090099334716796875</LatitudeDegrees>
              <LongitudeDegrees>-1.53717205859720706939697265625</LongitudeDegrees>
            </Position>
            <AltitudeMeters>9.3999996185302734375</AltitudeMeters>
            <DistanceMeters>NAN</DistanceMeters>
          </Trackpoint>
          <Trackpoint>
            <Time>2022-07-07T16:07:24.000Z</Time>
            <Position>
              <LatitudeDegrees>43.50587069056928157806396484375</LatitudeDegrees>
              <LongitudeDegrees>-1.53728320263326168060302734375</LongitudeDegrees>
            </Position>
            <AltitudeMeters>9.6000003814697265625</AltitudeMeters>
            <DistanceMeters>NAN</DistanceMeters>
          </Trackpoint>
          <Trackpoint>
            <Time>2022-07-07T16:07:26.000Z</Time>
            <Position>
              <LatitudeDegrees>43.50583054125308990478515625</LatitudeDegrees>
              <LongitudeDegrees>-1.537335254251956939697265625</LongitudeDegrees>
            </Position>
            <AltitudeMeters>9.6000003814697265625</AltitudeMeters>
            <DistanceMeters>NAN</DistanceMeters>
          </Trackpoint>
          <Trackpoint>
            <Time>2022-07-07T16:07:31.000Z</Time>
            <Position>
              <LatitudeDegrees>43.50574445910751819610595703125</LatitudeDegrees>
              <LongitudeDegrees>-1.537478752434253692626953125</LongitudeDegrees>
            </Position>
            <AltitudeMeters>10</AltitudeMeters>
            <DistanceMeters>NAN</DistanceMeters>
          </Trackpoint>
          <Trackpoint>
            <Time>2022-07-07T16:07:33.000Z</Time>
            <Position>
              <LatitudeDegrees>43.505737669765949249267578125</LatitudeDegrees>
              <LongitudeDegrees>-1.5374973602592945098876953125</LongitudeDegrees>
            </Position>
            <AltitudeMeters>9.80000019073486328125</AltitudeMeters>
            <DistanceMeters>NAN</DistanceMeters>
          </Trackpoint>
          <Trackpoint>
            <Time>2022-07-07T16:07:36.000Z</Time>
            <Position>
              <LatitudeDegrees>43.505741022527217864990234375</LatitudeDegrees>
              <LongitudeDegrees>-1.5374998748302459716796875</LongitudeDegrees>
            </Position>
            <AltitudeMeters>9.6000003814697265625</AltitudeMeters>
            <DistanceMeters>NAN</DistanceMeters>
          </Trackpoint>
          <Trackpoint>
            <Time>2022-07-07T16:07:43.000Z</Time>
            <Position>
              <LatitudeDegrees>43.5057133622467517852783203125</LatitudeDegrees>
              <LongitudeDegrees>-1.5375375933945178985595703125</LongitudeDegrees>
            </Position>
            <AltitudeMeters>9.80000019073486328125</AltitudeMeters>
            <DistanceMeters>NAN</DistanceMeters>
          </Trackpoint>
          <Trackpoint>
            <Time>2022-07-07T16:07:44.000Z</Time>
            <Position>
              <LatitudeDegrees>43.5056982748210430145263671875</LatitudeDegrees>
              <LongitudeDegrees>-1.53755125589668750762939453125</LongitudeDegrees>
            </Position>
            <AltitudeMeters>9.80000019073486328125</AltitudeMeters>
            <DistanceMeters>NAN</DistanceMeters>
          </Trackpoint>
          <Trackpoint>
            <Time>2022-07-07T16:07:49.000Z</Time>
            <Position>
              <LatitudeDegrees>43.5055866278707981109619140625</LatitudeDegrees>
              <LongitudeDegrees>-1.5376572869718074798583984375</LongitudeDegrees>
            </Position>
            <AltitudeMeters>9.3999996185302734375</AltitudeMeters>
            <DistanceMeters>NAN</DistanceMeters>
          </Trackpoint>
          <Trackpoint>
            <Time>2022-07-07T16:07:58.000Z</Time>
            <Position>
              <LatitudeDegrees>43.50536844693124294281005859375</LatitudeDegrees>
              <LongitudeDegrees>-1.53772853314876556396484375</LongitudeDegrees>
            </Position>
            <AltitudeMeters>9.19999980926513671875</AltitudeMeters>
            <DistanceMeters>NAN</DistanceMeters>
          </Trackpoint>
          <Trackpoint>
            <Time>2022-07-07T16:08:00.000Z</Time>
            <Position>
              <LatitudeDegrees>43.50532938726246356964111328125</LatitudeDegrees>
              <LongitudeDegrees>-1.5377466380596160888671875</LongitudeDegrees>
            </Position>
            <AltitudeMeters>9.19999980926513671875</AltitudeMeters>
            <DistanceMeters>NAN</DistanceMeters>
          </Trackpoint>
          <Trackpoint>
            <Time>2022-07-07T16:08:04.000Z</Time>
            <Position>
              <LatitudeDegrees>43.505208604037761688232421875</LatitudeDegrees>
              <LongitudeDegrees>-1.53779114596545696258544921875</LongitudeDegrees>
            </Position>
            <AltitudeMeters>9.19999980926513671875</AltitudeMeters>
            <DistanceMeters>NAN</DistanceMeters>
          </Trackpoint>
          <Trackpoint>
            <Time>2022-07-07T16:08:07.000Z</Time>
            <Position>
              <LatitudeDegrees>43.50510475225746631622314453125</LatitudeDegrees>
              <LongitudeDegrees>-1.537825427949428558349609375</LongitudeDegrees>
            </Position>
            <AltitudeMeters>9.19999980926513671875</AltitudeMeters>
            <DistanceMeters>NAN</DistanceMeters>
          </Trackpoint>
          <Trackpoint>
            <Time>2022-07-07T16:08:10.000Z</Time>
            <Position>
              <LatitudeDegrees>43.50500978529453277587890625</LatitudeDegrees>
              <LongitudeDegrees>-1.53785862028598785400390625</LongitudeDegrees>
            </Position>
            <AltitudeMeters>9.19999980926513671875</AltitudeMeters>
            <DistanceMeters>NAN</DistanceMeters>
          </Trackpoint>
          <Trackpoint>
            <Time>2022-07-07T16:08:12.000Z</Time>
            <Position>
              <LatitudeDegrees>43.5049460828304290771484375</LatitudeDegrees>
              <LongitudeDegrees>-1.53788116760551929473876953125</LongitudeDegrees>
            </Position>
            <AltitudeMeters>9.3999996185302734375</AltitudeMeters>
            <DistanceMeters>NAN</DistanceMeters>
          </Trackpoint>
          <Trackpoint>
            <Time>2022-07-07T16:08:17.000Z</Time>
            <Position>
              <LatitudeDegrees>43.50479261018335819244384765625</LatitudeDegrees>
              <LongitudeDegrees>-1.53791620396077632904052734375</LongitudeDegrees>
            </Position>
            <AltitudeMeters>9.3999996185302734375</AltitudeMeters>
            <DistanceMeters>NAN</DistanceMeters>
          </Trackpoint>
          <Trackpoint>
            <Time>2022-07-07T16:08:22.000Z</Time>
            <Position>
              <LatitudeDegrees>43.50463000126183032989501953125</LatitudeDegrees>
              <LongitudeDegrees>-1.53797001577913761138916015625</LongitudeDegrees>
            </Position>
            <AltitudeMeters>9.3999996185302734375</AltitudeMeters>
            <DistanceMeters>NAN</DistanceMeters>
          </Trackpoint>
          <Trackpoint>
            <Time>2022-07-07T16:08:24.000Z</Time>
            <Position>
              <LatitudeDegrees>43.50457065738737583160400390625</LatitudeDegrees>
              <LongitudeDegrees>-1.53800957836210727691650390625</LongitudeDegrees>
            </Position>
            <AltitudeMeters>9.3999996185302734375</AltitudeMeters>
            <DistanceMeters>NAN</DistanceMeters>
          </Trackpoint>
          <Trackpoint>
            <Time>2022-07-07T16:08:29.000Z</Time>
            <Position>
              <LatitudeDegrees>43.5044822283089160919189453125</LatitudeDegrees>
              <LongitudeDegrees>-1.53811686672270298004150390625</LongitudeDegrees>
            </Position>
            <AltitudeMeters>9.3999996185302734375</AltitudeMeters>
            <DistanceMeters>NAN</DistanceMeters>
          </Trackpoint>
          <Trackpoint>
            <Time>2022-07-07T16:08:32.000Z</Time>
            <Position>
              <LatitudeDegrees>43.50441039539873600006103515625</LatitudeDegrees>
              <LongitudeDegrees>-1.53816464357078075408935546875</LongitudeDegrees>
            </Position>
            <AltitudeMeters>9.3999996185302734375</AltitudeMeters>
            <DistanceMeters>NAN</DistanceMeters>
          </Trackpoint>
          <Trackpoint>
            <Time>2022-07-07T16:08:34.000Z</Time>
            <Position>
              <LatitudeDegrees>43.50437250919640064239501953125</LatitudeDegrees>
              <LongitudeDegrees>-1.53821560554206371307373046875</LongitudeDegrees>
            </Position>
            <AltitudeMeters>9.3999996185302734375</AltitudeMeters>
            <DistanceMeters>NAN</DistanceMeters>
          </Trackpoint>
          <Trackpoint>
            <Time>2022-07-07T16:08:38.000Z</Time>
            <Position>
              <LatitudeDegrees>43.50427729077637195587158203125</LatitudeDegrees>
              <LongitudeDegrees>-1.53831786476075649261474609375</LongitudeDegrees>
            </Position>
            <AltitudeMeters>9.3999996185302734375</AltitudeMeters>
            <DistanceMeters>NAN</DistanceMeters>
          </Trackpoint>
          <Trackpoint>
            <Time>2022-07-07T16:08:42.000Z</Time>
            <Position>
              <LatitudeDegrees>43.50417788140475749969482421875</LatitudeDegrees>
              <LongitudeDegrees>-1.53842984698712825775146484375</LongitudeDegrees>
            </Position>
            <AltitudeMeters>9.3999996185302734375</AltitudeMeters>
            <DistanceMeters>NAN</DistanceMeters>
          </Trackpoint>
          <Trackpoint>
            <Time>2022-07-07T16:08:48.000Z</Time>
            <Position>
              <LatitudeDegrees>43.504026420414447784423828125</LatitudeDegrees>
              <LongitudeDegrees>-1.5385219641029834747314453125</LongitudeDegrees>
            </Position>
            <AltitudeMeters>9</AltitudeMeters>
            <DistanceMeters>NAN</DistanceMeters>
          </Trackpoint>
          <Trackpoint>
            <Time>2022-07-07T16:08:54.000Z</Time>
            <Position>
              <LatitudeDegrees>43.50388786755502223968505859375</LatitudeDegrees>
              <LongitudeDegrees>-1.53856496326625347137451171875</LongitudeDegrees>
            </Position>
            <AltitudeMeters>9.19999980926513671875</AltitudeMeters>
            <DistanceMeters>NAN</DistanceMeters>
          </Trackpoint>
          <Trackpoint>
            <Time>2022-07-07T16:08:57.000Z</Time>
            <Position>
              <LatitudeDegrees>43.5038391686975955963134765625</LatitudeDegrees>
              <LongitudeDegrees>-1.5385792963206768035888671875</LongitudeDegrees>
            </Position>
            <AltitudeMeters>9.19999980926513671875</AltitudeMeters>
            <DistanceMeters>NAN</DistanceMeters>
          </Trackpoint>
          <Trackpoint>
            <Time>2022-07-07T16:08:59.000Z</Time>
            <Position>
              <LatitudeDegrees>43.50380019284784793853759765625</LatitudeDegrees>
              <LongitudeDegrees>-1.5385843254625797271728515625</LongitudeDegrees>
            </Position>
            <AltitudeMeters>9.19999980926513671875</AltitudeMeters>
            <DistanceMeters>NAN</DistanceMeters>
          </Trackpoint>
          <Trackpoint>
            <Time>2022-07-07T16:09:02.000Z</Time>
            <Position>
              <LatitudeDegrees>43.50376046262681484222412109375</LatitudeDegrees>
              <LongitudeDegrees>-1.5385968983173370361328125</LongitudeDegrees>
            </Position>
            <AltitudeMeters>9.19999980926513671875</AltitudeMeters>
            <DistanceMeters>NAN</DistanceMeters>
          </Trackpoint>
          <Trackpoint>
            <Time>2022-07-07T16:09:04.000Z</Time>
            <Position>
              <LatitudeDegrees>43.5037355683743953704833984375</LatitudeDegrees>
              <LongitudeDegrees>-1.5386094711720943450927734375</LongitudeDegrees>
            </Position>
            <AltitudeMeters>9.19999980926513671875</AltitudeMeters>
            <DistanceMeters>NAN</DistanceMeters>
          </Trackpoint>
          <Trackpoint>
            <Time>2022-07-07T16:09:07.000Z</Time>
            <Position>
              <LatitudeDegrees>43.50369927473366260528564453125</LatitudeDegrees>
              <LongitudeDegrees>-1.53861877508461475372314453125</LongitudeDegrees>
            </Position>
            <AltitudeMeters>9.19999980926513671875</AltitudeMeters>
            <DistanceMeters>NAN</DistanceMeters>
          </Trackpoint>
          <Trackpoint>
            <Time>2022-07-07T16:09:09.000Z</Time>
            <Position>
              <LatitudeDegrees>43.50366055034101009368896484375</LatitudeDegrees>
              <LongitudeDegrees>-1.53862883336842060089111328125</LongitudeDegrees>
            </Position>
            <AltitudeMeters>9.19999980926513671875</AltitudeMeters>
            <DistanceMeters>NAN</DistanceMeters>
          </Trackpoint>
          <Trackpoint>
            <Time>2022-07-07T16:09:15.000Z</Time>
            <Position>
              <LatitudeDegrees>43.50358008407056331634521484375</LatitudeDegrees>
              <LongitudeDegrees>-1.53867174871265888214111328125</LongitudeDegrees>
            </Position>
            <AltitudeMeters>8.80000019073486328125</AltitudeMeters>
            <DistanceMeters>NAN</DistanceMeters>
          </Trackpoint>
          <Trackpoint>
            <Time>2022-07-07T16:09:17.000Z</Time>
            <Position>
              <LatitudeDegrees>43.50355376489460468292236328125</LatitudeDegrees>
              <LongitudeDegrees>-1.53867560438811779022216796875</LongitudeDegrees>
            </Position>
            <AltitudeMeters>8.80000019073486328125</AltitudeMeters>
            <DistanceMeters>NAN</DistanceMeters>
          </Trackpoint>
          <Trackpoint>
            <Time>2022-07-07T16:09:20.000Z</Time>
            <Position>
              <LatitudeDegrees>43.50349157117307186126708984375</LatitudeDegrees>
              <LongitudeDegrees>-1.538695804774761199951171875</LongitudeDegrees>
            </Position>
            <AltitudeMeters>9</AltitudeMeters>
            <DistanceMeters>NAN</DistanceMeters>
          </Trackpoint>
          <Trackpoint>
            <Time>2022-07-07T16:09:21.000Z</Time>
            <Position>
              <LatitudeDegrees>43.5034757293760776519775390625</LatitudeDegrees>
              <LongitudeDegrees>-1.53870510868728160858154296875</LongitudeDegrees>
            </Position>
            <AltitudeMeters>9</AltitudeMeters>
            <DistanceMeters>NAN</DistanceMeters>
          </Trackpoint>
          <Trackpoint>
            <Time>2022-07-07T16:09:27.000Z</Time>
            <Position>
              <LatitudeDegrees>43.5033298842608928680419921875</LatitudeDegrees>
              <LongitudeDegrees>-1.53878155164420604705810546875</LongitudeDegrees>
            </Position>
            <AltitudeMeters>8.80000019073486328125</AltitudeMeters>
            <DistanceMeters>NAN</DistanceMeters>
          </Trackpoint>
          <Trackpoint>
            <Time>2022-07-07T16:09:32.000Z</Time>
            <Position>
              <LatitudeDegrees>43.50317959673702716827392578125</LatitudeDegrees>
              <LongitudeDegrees>-1.53885296545922756195068359375</LongitudeDegrees>
            </Position>
            <AltitudeMeters>8.80000019073486328125</AltitudeMeters>
            <DistanceMeters>NAN</DistanceMeters>
          </Trackpoint>
          <Trackpoint>
            <Time>2022-07-07T16:09:34.000Z</Time>
            <Position>
              <LatitudeDegrees>43.50312955677509307861328125</LatitudeDegrees>
              <LongitudeDegrees>-1.5388785302639007568359375</LongitudeDegrees>
            </Position>
            <AltitudeMeters>8.80000019073486328125</AltitudeMeters>
            <DistanceMeters>NAN</DistanceMeters>
          </Trackpoint>
          <Trackpoint>
            <Time>2022-07-07T16:09:37.000Z</Time>
            <Position>
              <LatitudeDegrees>43.503046743571758270263671875</LatitudeDegrees>
              <LongitudeDegrees>-1.53890795074403285980224609375</LongitudeDegrees>
            </Position>
            <AltitudeMeters>8.80000019073486328125</AltitudeMeters>
            <DistanceMeters>NAN</DistanceMeters>
          </Trackpoint>
          <Trackpoint>
            <Time>2022-07-07T16:09:43.000Z</Time>
            <Position>
              <LatitudeDegrees>43.50293568335473537445068359375</LatitudeDegrees>
              <LongitudeDegrees>-1.53902563266456127166748046875</LongitudeDegrees>
            </Position>
            <AltitudeMeters>8.80000019073486328125</AltitudeMeters>
            <DistanceMeters>NAN</DistanceMeters>
          </Trackpoint>
          <Trackpoint>
            <Time>2022-07-07T16:09:49.000Z</Time>
            <Position>
              <LatitudeDegrees>43.50285991095006465911865234375</LatitudeDegrees>
              <LongitudeDegrees>-1.53920366428792476654052734375</LongitudeDegrees>
            </Position>
            <AltitudeMeters>8.6000003814697265625</AltitudeMeters>
            <DistanceMeters>NAN</DistanceMeters>
          </Trackpoint>
          <Trackpoint>
            <Time>2022-07-07T16:09:50.000Z</Time>
            <Position>
              <LatitudeDegrees>43.50283912383019924163818359375</LatitudeDegrees>
              <LongitudeDegrees>-1.53923367150127887725830078125</LongitudeDegrees>
            </Position>
            <AltitudeMeters>8.6000003814697265625</AltitudeMeters>
            <DistanceMeters>NAN</DistanceMeters>
          </Trackpoint>
          <Trackpoint>
            <Time>2022-07-07T16:09:56.000Z</Time>
            <Position>
              <LatitudeDegrees>43.50273485295474529266357421875</LatitudeDegrees>
              <LongitudeDegrees>-1.53942293487489223480224609375</LongitudeDegrees>
            </Position>
            <AltitudeMeters>8.80000019073486328125</AltitudeMeters>
            <DistanceMeters>NAN</DistanceMeters>
          </Trackpoint>
          <Trackpoint>
            <Time>2022-07-07T16:09:59.000Z</Time>
            <Position>
              <LatitudeDegrees>43.5027049295604228973388671875</LatitudeDegrees>
              <LongitudeDegrees>-1.5395351685583591461181640625</LongitudeDegrees>
            </Position>
            <AltitudeMeters>9</AltitudeMeters>
            <DistanceMeters>NAN</DistanceMeters>
          </Trackpoint>
          <Trackpoint>
            <Time>2022-07-07T16:10:04.000Z</Time>
            <Position>
              <LatitudeDegrees>43.50266008637845516204833984375</LatitudeDegrees>
              <LongitudeDegrees>-1.539737842977046966552734375</LongitudeDegrees>
            </Position>
            <AltitudeMeters>9.19999980926513671875</AltitudeMeters>
            <DistanceMeters>NAN</DistanceMeters>
          </Trackpoint>
          <Trackpoint>
            <Time>2022-07-07T16:10:07.000Z</Time>
            <Position>
              <LatitudeDegrees>43.50263292901217937469482421875</LatitudeDegrees>
              <LongitudeDegrees>-1.53986164368689060211181640625</LongitudeDegrees>
            </Position>
            <AltitudeMeters>9.19999980926513671875</AltitudeMeters>
            <DistanceMeters>NAN</DistanceMeters>
          </Trackpoint>
          <Trackpoint>
            <Time>2022-07-07T16:10:12.000Z</Time>
            <Position>
              <LatitudeDegrees>43.50257593207061290740966796875</LatitudeDegrees>
              <LongitudeDegrees>-1.540016122162342071533203125</LongitudeDegrees>
            </Position>
            <AltitudeMeters>9.19999980926513671875</AltitudeMeters>
            <DistanceMeters>NAN</DistanceMeters>
          </Trackpoint>
          <Trackpoint>
            <Time>2022-07-07T16:10:18.000Z</Time>
            <Position>
              <LatitudeDegrees>43.502489514648914337158203125</LatitudeDegrees>
              <LongitudeDegrees>-1.54015433974564075469970703125</LongitudeDegrees>
            </Position>
            <AltitudeMeters>9</AltitudeMeters>
            <DistanceMeters>NAN</DistanceMeters>
          </Trackpoint>
          <Trackpoint>
            <Time>2022-07-07T16:10:25.000Z</Time>
            <Position>
              <LatitudeDegrees>43.5023550689220428466796875</LatitudeDegrees>
              <LongitudeDegrees>-1.5402436070144176483154296875</LongitudeDegrees>
            </Position>
            <AltitudeMeters>8.80000019073486328125</AltitudeMeters>
            <DistanceMeters>NAN</DistanceMeters>
          </Trackpoint>
          <Trackpoint>
            <Time>2022-07-07T16:10:28.000Z</Time>
            <Position>
              <LatitudeDegrees>43.5023163445293903350830078125</LatitudeDegrees>
              <LongitudeDegrees>-1.54027118347585201263427734375</LongitudeDegrees>
            </Position>
            <AltitudeMeters>8.80000019073486328125</AltitudeMeters>
            <DistanceMeters>NAN</DistanceMeters>
          </Trackpoint>
          <Trackpoint>
            <Time>2022-07-07T16:10:35.000Z</Time>
            <Position>
              <LatitudeDegrees>43.50223512388765811920166015625</LatitudeDegrees>
              <LongitudeDegrees>-1.5402989275753498077392578125</LongitudeDegrees>
            </Position>
            <AltitudeMeters>8.6000003814697265625</AltitudeMeters>
            <DistanceMeters>NAN</DistanceMeters>
          </Trackpoint>
          <Trackpoint>
            <Time>2022-07-07T16:10:41.000Z</Time>
            <Position>
              <LatitudeDegrees>43.50215499289333820343017578125</LatitudeDegrees>
              <LongitudeDegrees>-1.54038417153060436248779296875</LongitudeDegrees>
            </Position>
            <AltitudeMeters>8.6000003814697265625</AltitudeMeters>
            <DistanceMeters>NAN</DistanceMeters>
          </Trackpoint>
          <Trackpoint>
            <Time>2022-07-07T16:10:46.000Z</Time>
            <Position>
              <LatitudeDegrees>43.5021346248686313629150390625</LatitudeDegrees>
              <LongitudeDegrees>-1.54040629975497722625732421875</LongitudeDegrees>
            </Position>
            <AltitudeMeters>8.3999996185302734375</AltitudeMeters>
            <DistanceMeters>NAN</DistanceMeters>
          </Trackpoint>
          <Trackpoint>
            <Time>2022-07-07T16:10:47.000Z</Time>
            <Position>
              <LatitudeDegrees>43.5021346248686313629150390625</LatitudeDegrees>
              <LongitudeDegrees>-1.54040629975497722625732421875</LongitudeDegrees>
            </Position>
            <AltitudeMeters>8.19999980926513671875</AltitudeMeters>
            <DistanceMeters>NAN</DistanceMeters>
          </Trackpoint>
          <Trackpoint>
            <Time>2022-07-07T16:14:05.000Z</Time>
            <Position>
              <LatitudeDegrees>43.50184989161789417266845703125</LatitudeDegrees>
              <LongitudeDegrees>-1.5401936508715152740478515625</LongitudeDegrees>
            </Position>
            <AltitudeMeters>12</AltitudeMeters>
            <DistanceMeters>NAN</DistanceMeters>
          </Trackpoint>
          <Trackpoint>
            <Time>2022-07-07T16:14:06.000Z</Time>
            <Position>
              <LatitudeDegrees>43.50184553302824497222900390625</LatitudeDegrees>
              <LongitudeDegrees>-1.5401681698858737945556640625</LongitudeDegrees>
            </Position>
            <AltitudeMeters>12</AltitudeMeters>
            <DistanceMeters>NAN</DistanceMeters>
          </Trackpoint>
          <Trackpoint>
            <Time>2022-07-07T16:14:08.000Z</Time>
            <Position>
              <LatitudeDegrees>43.50183279253542423248291015625</LatitudeDegrees>
              <LongitudeDegrees>-1.54011167585849761962890625</LongitudeDegrees>
            </Position>
            <AltitudeMeters>12</AltitudeMeters>
            <DistanceMeters>NAN</DistanceMeters>
          </Trackpoint>
          <Trackpoint>
            <Time>2022-07-07T16:14:12.000Z</Time>
            <Position>
              <LatitudeDegrees>43.501791469752788543701171875</LatitudeDegrees>
              <LongitudeDegrees>-1.540040932595729827880859375</LongitudeDegrees>
            </Position>
            <AltitudeMeters>13.19999980926513671875</AltitudeMeters>
            <DistanceMeters>NAN</DistanceMeters>
          </Trackpoint>
          <Trackpoint>
            <Time>2022-07-07T16:14:15.000Z</Time>
            <Position>
              <LatitudeDegrees>43.50174880586564540863037109375</LatitudeDegrees>
              <LongitudeDegrees>-1.53998385183513164520263671875</LongitudeDegrees>
            </Position>
            <AltitudeMeters>13.80000019073486328125</AltitudeMeters>
            <DistanceMeters>NAN</DistanceMeters>
          </Trackpoint>
          <Trackpoint>
            <Time>2022-07-07T16:14:17.000Z</Time>
            <Position>
              <LatitudeDegrees>43.50170974619686603546142578125</LatitudeDegrees>
              <LongitudeDegrees>-1.53996407054364681243896484375</LongitudeDegrees>
            </Position>
            <AltitudeMeters>13.80000019073486328125</AltitudeMeters>
            <DistanceMeters>NAN</DistanceMeters>
          </Trackpoint>
          <Trackpoint>
            <Time>2022-07-07T16:14:20.000Z</Time>
            <Position>
              <LatitudeDegrees>43.50165157578885555267333984375</LatitudeDegrees>
              <LongitudeDegrees>-1.5399445407092571258544921875</LongitudeDegrees>
            </Position>
            <AltitudeMeters>13.3999996185302734375</AltitudeMeters>
            <DistanceMeters>NAN</DistanceMeters>
          </Trackpoint>
          <Trackpoint>
            <Time>2022-07-07T16:14:22.000Z</Time>
            <Position>
              <LatitudeDegrees>43.50160212256014347076416015625</LatitudeDegrees>
              <LongitudeDegrees>-1.5399502404034137725830078125</LongitudeDegrees>
            </Position>
            <AltitudeMeters>13.3999996185302734375</AltitudeMeters>
            <DistanceMeters>NAN</DistanceMeters>
          </Trackpoint>
          <Trackpoint>
            <Time>2022-07-07T16:14:28.000Z</Time>
            <Position>
              <LatitudeDegrees>43.501475639641284942626953125</LatitudeDegrees>
              <LongitudeDegrees>-1.5400545112788677215576171875</LongitudeDegrees>
            </Position>
            <AltitudeMeters>13</AltitudeMeters>
            <DistanceMeters>NAN</DistanceMeters>
          </Trackpoint>
          <Trackpoint>
            <Time>2022-07-07T16:14:34.000Z</Time>
            <Position>
              <LatitudeDegrees>43.501365669071674346923828125</LatitudeDegrees>
              <LongitudeDegrees>-1.540224663913249969482421875</LongitudeDegrees>
            </Position>
            <AltitudeMeters>14</AltitudeMeters>
            <DistanceMeters>NAN</DistanceMeters>
          </Trackpoint>
          <Trackpoint>
            <Time>2022-07-07T16:14:37.000Z</Time>
            <Position>
              <LatitudeDegrees>43.5013339854776859283447265625</LatitudeDegrees>
              <LongitudeDegrees>-1.54025794006884098052978515625</LongitudeDegrees>
            </Position>
            <AltitudeMeters>14.19999980926513671875</AltitudeMeters>
            <DistanceMeters>NAN</DistanceMeters>
          </Trackpoint>
          <Trackpoint>
            <Time>2022-07-07T16:14:39.000Z</Time>
            <Position>
              <LatitudeDegrees>43.5013339854776859283447265625</LatitudeDegrees>
              <LongitudeDegrees>-1.54025794006884098052978515625</LongitudeDegrees>
            </Position>
            <AltitudeMeters>14.19999980926513671875</AltitudeMeters>
            <DistanceMeters>NAN</DistanceMeters>
          </Trackpoint>
          <Trackpoint>
            <Time>2022-07-07T16:45:50.000Z</Time>
            <Position>
              <LatitudeDegrees>43.50128344260156154632568359375</LatitudeDegrees>
              <LongitudeDegrees>-1.54024352319538593292236328125</LongitudeDegrees>
            </Position>
            <AltitudeMeters>27.3999996185302734375</AltitudeMeters>
            <DistanceMeters>NAN</DistanceMeters>
          </Trackpoint>
          <Trackpoint>
            <Time>2022-07-07T16:45:51.000Z</Time>
            <Position>
              <LatitudeDegrees>43.50126969628036022186279296875</LatitudeDegrees>
              <LongitudeDegrees>-1.540271602571010589599609375</LongitudeDegrees>
            </Position>
            <AltitudeMeters>27.3999996185302734375</AltitudeMeters>
            <DistanceMeters>NAN</DistanceMeters>
          </Trackpoint>
          <Trackpoint>
            <Time>2022-07-07T16:45:53.000Z</Time>
            <Position>
              <LatitudeDegrees>43.5012370906770229339599609375</LatitudeDegrees>
              <LongitudeDegrees>-1.540337987244129180908203125</LongitudeDegrees>
            </Position>
            <AltitudeMeters>27.3999996185302734375</AltitudeMeters>
            <DistanceMeters>NAN</DistanceMeters>
          </Trackpoint>
          <Trackpoint>
            <Time>2022-07-07T16:46:00.000Z</Time>
            <Position>
              <LatitudeDegrees>43.50111161358654499053955078125</LatitudeDegrees>
              <LongitudeDegrees>-1.54057024978101253509521484375</LongitudeDegrees>
            </Position>
            <AltitudeMeters>28</AltitudeMeters>
            <DistanceMeters>NAN</DistanceMeters>
          </Trackpoint>
          <Trackpoint>
            <Time>2022-07-07T16:46:01.000Z</Time>
            <Position>
              <LatitudeDegrees>43.5011013038456439971923828125</LatitudeDegrees>
              <LongitudeDegrees>-1.54059925116598606109619140625</LongitudeDegrees>
            </Position>
            <AltitudeMeters>28</AltitudeMeters>
            <DistanceMeters>NAN</DistanceMeters>
          </Trackpoint>
          <Trackpoint>
            <Time>2022-07-07T16:46:04.000Z</Time>
            <Position>
              <LatitudeDegrees>43.50111932493746280670166015625</LatitudeDegrees>
              <LongitudeDegrees>-1.5407039411365985870361328125</LongitudeDegrees>
            </Position>
            <AltitudeMeters>28.200000762939453125</AltitudeMeters>
            <DistanceMeters>NAN</DistanceMeters>
          </Trackpoint>
          <Trackpoint>
            <Time>2022-07-07T16:46:11.000Z</Time>
            <Position>
              <LatitudeDegrees>43.50121504627168178558349609375</LatitudeDegrees>
              <LongitudeDegrees>-1.54095791280269622802734375</LongitudeDegrees>
            </Position>
            <AltitudeMeters>28.3999996185302734375</AltitudeMeters>
            <DistanceMeters>NAN</DistanceMeters>
          </Trackpoint>
          <Trackpoint>
            <Time>2022-07-07T16:46:14.000Z</Time>
            <Position>
              <LatitudeDegrees>43.501243628561496734619140625</LatitudeDegrees>
              <LongitudeDegrees>-1.54106377623975276947021484375</LongitudeDegrees>
            </Position>
            <AltitudeMeters>28.3999996185302734375</AltitudeMeters>
            <DistanceMeters>NAN</DistanceMeters>
          </Trackpoint>
          <Trackpoint>
            <Time>2022-07-07T16:46:24.000Z</Time>
            <Position>
              <LatitudeDegrees>43.50140045396983623504638671875</LatitudeDegrees>
              <LongitudeDegrees>-1.54142168350517749786376953125</LongitudeDegrees>
            </Position>
            <AltitudeMeters>28.200000762939453125</AltitudeMeters>
            <DistanceMeters>NAN</DistanceMeters>
          </Trackpoint>
          <Trackpoint>
            <Time>2022-07-07T16:46:29.000Z</Time>
            <Position>
              <LatitudeDegrees>43.50148309953510761260986328125</LatitudeDegrees>
              <LongitudeDegrees>-1.5415793471038341522216796875</LongitudeDegrees>
            </Position>
            <AltitudeMeters>28.200000762939453125</AltitudeMeters>
            <DistanceMeters>NAN</DistanceMeters>
          </Trackpoint>
          <Trackpoint>
            <Time>2022-07-07T16:46:34.000Z</Time>
            <Position>
              <LatitudeDegrees>43.50153272040188312530517578125</LatitudeDegrees>
              <LongitudeDegrees>-1.5417332388460636138916015625</LongitudeDegrees>
            </Position>
            <AltitudeMeters>28.3999996185302734375</AltitudeMeters>
            <DistanceMeters>NAN</DistanceMeters>
          </Trackpoint>
          <Trackpoint>
            <Time>2022-07-07T16:46:39.000Z</Time>
            <Position>
              <LatitudeDegrees>43.50159893743693828582763671875</LatitudeDegrees>
              <LongitudeDegrees>-1.54186123050749301910400390625</LongitudeDegrees>
            </Position>
            <AltitudeMeters>28.6000003814697265625</AltitudeMeters>
            <DistanceMeters>NAN</DistanceMeters>
          </Trackpoint>
          <Trackpoint>
            <Time>2022-07-07T16:46:43.000Z</Time>
            <Position>
              <LatitudeDegrees>43.501607067883014678955078125</LatitudeDegrees>
              <LongitudeDegrees>-1.54195946641266345977783203125</LongitudeDegrees>
            </Position>
            <AltitudeMeters>27.799999237060546875</AltitudeMeters>
            <DistanceMeters>NAN</DistanceMeters>
          </Trackpoint>
          <Trackpoint>
            <Time>2022-07-07T16:46:48.000Z</Time>
            <Position>
              <LatitudeDegrees>43.50153230130672454833984375</LatitudeDegrees>
              <LongitudeDegrees>-1.54205200262367725372314453125</LongitudeDegrees>
            </Position>
            <AltitudeMeters>28</AltitudeMeters>
            <DistanceMeters>NAN</DistanceMeters>
          </Trackpoint>
          <Trackpoint>
            <Time>2022-07-07T16:46:56.000Z</Time>
            <Position>
              <LatitudeDegrees>43.50141000933945178985595703125</LatitudeDegrees>
              <LongitudeDegrees>-1.54214370064437389373779296875</LongitudeDegrees>
            </Position>
            <AltitudeMeters>28.200000762939453125</AltitudeMeters>
            <DistanceMeters>NAN</DistanceMeters>
          </Trackpoint>
          <Trackpoint>
            <Time>2022-07-07T16:47:01.000Z</Time>
            <Position>
              <LatitudeDegrees>43.50131093524396419525146484375</LatitudeDegrees>
              <LongitudeDegrees>-1.54221461154520511627197265625</LongitudeDegrees>
            </Position>
            <AltitudeMeters>28</AltitudeMeters>
            <DistanceMeters>NAN</DistanceMeters>
          </Trackpoint>
          <Trackpoint>
            <Time>2022-07-07T16:47:05.000Z</Time>
            <Position>
              <LatitudeDegrees>43.50122518837451934814453125</LatitudeDegrees>
              <LongitudeDegrees>-1.54227781109511852264404296875</LongitudeDegrees>
            </Position>
            <AltitudeMeters>27.799999237060546875</AltitudeMeters>
            <DistanceMeters>NAN</DistanceMeters>
          </Trackpoint>
          <Trackpoint>
            <Time>2022-07-07T16:47:08.000Z</Time>
            <Position>
              <LatitudeDegrees>43.50116777233779430389404296875</LatitudeDegrees>
              <LongitudeDegrees>-1.5422874502837657928466796875</LongitudeDegrees>
            </Position>
            <AltitudeMeters>27.799999237060546875</AltitudeMeters>
            <DistanceMeters>NAN</DistanceMeters>
          </Trackpoint>
          <Trackpoint>
            <Time>2022-07-07T16:47:10.000Z</Time>
            <Position>
              <LatitudeDegrees>43.50113307125866413116455078125</LatitudeDegrees>
              <LongitudeDegrees>-1.542323492467403411865234375</LongitudeDegrees>
            </Position>
            <AltitudeMeters>28</AltitudeMeters>
            <DistanceMeters>NAN</DistanceMeters>
          </Trackpoint>
          <Trackpoint>
            <Time>2022-07-07T16:47:15.000Z</Time>
            <Position>
              <LatitudeDegrees>43.501017987728118896484375</LatitudeDegrees>
              <LongitudeDegrees>-1.5423803217709064483642578125</LongitudeDegrees>
            </Position>
            <AltitudeMeters>28</AltitudeMeters>
            <DistanceMeters>NAN</DistanceMeters>
          </Trackpoint>
          <Trackpoint>
            <Time>2022-07-07T16:47:18.000Z</Time>
            <Position>
              <LatitudeDegrees>43.50095453672111034393310546875</LatitudeDegrees>
              <LongitudeDegrees>-1.542427428066730499267578125</LongitudeDegrees>
            </Position>
            <AltitudeMeters>28</AltitudeMeters>
            <DistanceMeters>NAN</DistanceMeters>
          </Trackpoint>
          <Trackpoint>
            <Time>2022-07-07T16:47:19.000Z</Time>
            <Position>
              <LatitudeDegrees>43.50093391723930835723876953125</LatitudeDegrees>
              <LongitudeDegrees>-1.54244729317724704742431640625</LongitudeDegrees>
            </Position>
            <AltitudeMeters>28</AltitudeMeters>
            <DistanceMeters>NAN</DistanceMeters>
          </Trackpoint>
          <Trackpoint>
            <Time>2022-07-07T16:47:22.000Z</Time>
            <Position>
              <LatitudeDegrees>43.50087507627904415130615234375</LatitudeDegrees>
              <LongitudeDegrees>-1.54250361956655979156494140625</LongitudeDegrees>
            </Position>
            <AltitudeMeters>28</AltitudeMeters>
            <DistanceMeters>NAN</DistanceMeters>
          </Trackpoint>
          <Trackpoint>
            <Time>2022-07-07T16:47:26.000Z</Time>
            <Position>
              <LatitudeDegrees>43.50079561583697795867919921875</LatitudeDegrees>
              <LongitudeDegrees>-1.54256681911647319793701171875</LongitudeDegrees>
            </Position>
            <AltitudeMeters>28</AltitudeMeters>
            <DistanceMeters>NAN</DistanceMeters>
          </Trackpoint>
          <Trackpoint>
            <Time>2022-07-07T16:47:31.000Z</Time>
            <Position>
              <LatitudeDegrees>43.5006862320005893707275390625</LatitudeDegrees>
              <LongitudeDegrees>-1.54266455210745334625244140625</LongitudeDegrees>
            </Position>
            <AltitudeMeters>27.799999237060546875</AltitudeMeters>
            <DistanceMeters>NAN</DistanceMeters>
          </Trackpoint>
          <Trackpoint>
            <Time>2022-07-07T16:47:33.000Z</Time>
            <Position>
              <LatitudeDegrees>43.5006438195705413818359375</LatitudeDegrees>
              <LongitudeDegrees>-1.54269103892147541046142578125</LongitudeDegrees>
            </Position>
            <AltitudeMeters>27.799999237060546875</AltitudeMeters>
            <DistanceMeters>NAN</DistanceMeters>
          </Trackpoint>
          <Trackpoint>
            <Time>2022-07-07T16:47:43.000Z</Time>
            <Position>
              <LatitudeDegrees>43.500430583953857421875</LatitudeDegrees>
              <LongitudeDegrees>-1.5428285859525203704833984375</LongitudeDegrees>
            </Position>
            <AltitudeMeters>28</AltitudeMeters>
            <DistanceMeters>NAN</DistanceMeters>
          </Trackpoint>
          <Trackpoint>
            <Time>2022-07-07T16:47:51.000Z</Time>
            <Position>
              <LatitudeDegrees>43.50025959312915802001953125</LatitudeDegrees>
              <LongitudeDegrees>-1.54292472638189792633056640625</LongitudeDegrees>
            </Position>
            <AltitudeMeters>28.200000762939453125</AltitudeMeters>
            <DistanceMeters>NAN</DistanceMeters>
          </Trackpoint>
          <Trackpoint>
            <Time>2022-07-07T16:47:58.000Z</Time>
            <Position>
              <LatitudeDegrees>43.50011031143367290496826171875</LatitudeDegrees>
              <LongitudeDegrees>-1.54302581213414669036865234375</LongitudeDegrees>
            </Position>
            <AltitudeMeters>27.799999237060546875</AltitudeMeters>
            <DistanceMeters>NAN</DistanceMeters>
          </Trackpoint>
          <Trackpoint>
            <Time>2022-07-07T16:47:59.000Z</Time>
            <Position>
              <LatitudeDegrees>43.50008382461965084075927734375</LatitudeDegrees>
              <LongitudeDegrees>-1.5430461801588535308837890625</LongitudeDegrees>
            </Position>
            <AltitudeMeters>27.799999237060546875</AltitudeMeters>
            <DistanceMeters>NAN</DistanceMeters>
          </Trackpoint>
          <Trackpoint>
            <Time>2022-07-07T16:48:05.000Z</Time>
            <Position>
              <LatitudeDegrees>43.499970920383930206298828125</LatitudeDegrees>
              <LongitudeDegrees>-1.543128490447998046875</LongitudeDegrees>
            </Position>
            <AltitudeMeters>27.3999996185302734375</AltitudeMeters>
            <DistanceMeters>NAN</DistanceMeters>
          </Trackpoint>
          <Trackpoint>
            <Time>2022-07-07T16:48:07.000Z</Time>
            <Position>
              <LatitudeDegrees>43.49995105527341365814208984375</LatitudeDegrees>
              <LongitudeDegrees>-1.54314391314983367919921875</LongitudeDegrees>
            </Position>
            <AltitudeMeters>27.200000762939453125</AltitudeMeters>
            <DistanceMeters>NAN</DistanceMeters>
          </Trackpoint>
          <Trackpoint>
            <Time>2022-07-07T16:48:09.000Z</Time>
            <Position>
              <LatitudeDegrees>43.49994837306439876556396484375</LatitudeDegrees>
              <LongitudeDegrees>-1.54314818792045116424560546875</LongitudeDegrees>
            </Position>
            <AltitudeMeters>27.200000762939453125</AltitudeMeters>
            <DistanceMeters>NAN</DistanceMeters>
          </Trackpoint>
          <Trackpoint>
            <Time>2022-07-07T16:49:54.000Z</Time>
            <Position>
              <LatitudeDegrees>43.499891795217990875244140625</LatitudeDegrees>
              <LongitudeDegrees>-1.543145589530467987060546875</LongitudeDegrees>
            </Position>
            <AltitudeMeters>20</AltitudeMeters>
            <DistanceMeters>NAN</DistanceMeters>
          </Trackpoint>
          <Trackpoint>
            <Time>2022-07-07T16:49:55.000Z</Time>
            <Position>
              <LatitudeDegrees>43.49988098256289958953857421875</LatitudeDegrees>
              <LongitudeDegrees>-1.5431595034897327423095703125</LongitudeDegrees>
            </Position>
            <AltitudeMeters>20</AltitudeMeters>
            <DistanceMeters>NAN</DistanceMeters>
          </Trackpoint>
          <Trackpoint>
            <Time>2022-07-07T16:49:59.000Z</Time>
            <Position>
              <LatitudeDegrees>43.49979951046407222747802734375</LatitudeDegrees>
              <LongitudeDegrees>-1.5432101301848888397216796875</LongitudeDegrees>
            </Position>
            <AltitudeMeters>20.3999996185302734375</AltitudeMeters>
            <DistanceMeters>NAN</DistanceMeters>
          </Trackpoint>
          <Trackpoint>
            <Time>2022-07-07T16:50:01.000Z</Time>
            <Position>
              <LatitudeDegrees>43.49975156597793102264404296875</LatitudeDegrees>
              <LongitudeDegrees>-1.54324575327336788177490234375</LongitudeDegrees>
            </Position>
            <AltitudeMeters>20.6000003814697265625</AltitudeMeters>
            <DistanceMeters>NAN</DistanceMeters>
          </Trackpoint>
          <Trackpoint>
            <Time>2022-07-07T16:50:07.000Z</Time>
            <Position>
              <LatitudeDegrees>43.499635644257068634033203125</LatitudeDegrees>
              <LongitudeDegrees>-1.543329656124114990234375</LongitudeDegrees>
            </Position>
            <AltitudeMeters>20.6000003814697265625</AltitudeMeters>
            <DistanceMeters>NAN</DistanceMeters>
          </Trackpoint>
          <Trackpoint>
            <Time>2022-07-07T16:50:12.000Z</Time>
            <Position>
              <LatitudeDegrees>43.49952156655490398406982421875</LatitudeDegrees>
              <LongitudeDegrees>-1.54337081126868724822998046875</LongitudeDegrees>
            </Position>
            <AltitudeMeters>20.6000003814697265625</AltitudeMeters>
            <DistanceMeters>NAN</DistanceMeters>
          </Trackpoint>
          <Trackpoint>
            <Time>2022-07-07T16:50:14.000Z</Time>
            <Position>
              <LatitudeDegrees>43.499475382268428802490234375</LatitudeDegrees>
              <LongitudeDegrees>-1.54340006411075592041015625</LongitudeDegrees>
            </Position>
            <AltitudeMeters>20.6000003814697265625</AltitudeMeters>
            <DistanceMeters>NAN</DistanceMeters>
          </Trackpoint>
          <Trackpoint>
            <Time>2022-07-07T16:50:22.000Z</Time>
            <Position>
              <LatitudeDegrees>43.49925904534757137298583984375</LatitudeDegrees>
              <LongitudeDegrees>-1.54355051927268505096435546875</LongitudeDegrees>
            </Position>
            <AltitudeMeters>20.799999237060546875</AltitudeMeters>
            <DistanceMeters>NAN</DistanceMeters>
          </Trackpoint>
          <Trackpoint>
            <Time>2022-07-07T16:50:29.000Z</Time>
            <Position>
              <LatitudeDegrees>43.499095849692821502685546875</LatitudeDegrees>
              <LongitudeDegrees>-1.54370860196650028228759765625</LongitudeDegrees>
            </Position>
            <AltitudeMeters>21</AltitudeMeters>
            <DistanceMeters>NAN</DistanceMeters>
          </Trackpoint>
          <Trackpoint>
            <Time>2022-07-07T16:50:30.000Z</Time>
            <Position>
              <LatitudeDegrees>43.49907078780233860015869140625</LatitudeDegrees>
              <LongitudeDegrees>-1.54372653923928737640380859375</LongitudeDegrees>
            </Position>
            <AltitudeMeters>21.200000762939453125</AltitudeMeters>
            <DistanceMeters>NAN</DistanceMeters>
          </Trackpoint>
          <Trackpoint>
            <Time>2022-07-07T16:50:39.000Z</Time>
            <Position>
              <LatitudeDegrees>43.49886350333690643310546875</LatitudeDegrees>
              <LongitudeDegrees>-1.54390607960522174835205078125</LongitudeDegrees>
            </Position>
            <AltitudeMeters>21.6000003814697265625</AltitudeMeters>
            <DistanceMeters>NAN</DistanceMeters>
          </Trackpoint>
          <Trackpoint>
            <Time>2022-07-07T16:50:49.000Z</Time>
            <Position>
              <LatitudeDegrees>43.4986256249248981475830078125</LatitudeDegrees>
              <LongitudeDegrees>-1.54403029941022396087646484375</LongitudeDegrees>
            </Position>
            <AltitudeMeters>21.3999996185302734375</AltitudeMeters>
            <DistanceMeters>NAN</DistanceMeters>
          </Trackpoint>
          <Trackpoint>
            <Time>2022-07-07T16:50:56.000Z</Time>
            <Position>
              <LatitudeDegrees>43.49848422221839427947998046875</LatitudeDegrees>
              <LongitudeDegrees>-1.544135324656963348388671875</LongitudeDegrees>
            </Position>
            <AltitudeMeters>21.6000003814697265625</AltitudeMeters>
            <DistanceMeters>NAN</DistanceMeters>
          </Trackpoint>
          <Trackpoint>
            <Time>2022-07-07T16:50:59.000Z</Time>
            <Position>
              <LatitudeDegrees>43.49843166768550872802734375</LatitudeDegrees>
              <LongitudeDegrees>-1.5441991947591304779052734375</LongitudeDegrees>
            </Position>
            <AltitudeMeters>21.200000762939453125</AltitudeMeters>
            <DistanceMeters>NAN</DistanceMeters>
          </Trackpoint>
          <Trackpoint>
            <Time>2022-07-07T16:51:02.000Z</Time>
            <Position>
              <LatitudeDegrees>43.49840979091823101043701171875</LatitudeDegrees>
              <LongitudeDegrees>-1.544209755957126617431640625</LongitudeDegrees>
            </Position>
            <AltitudeMeters>21</AltitudeMeters>
            <DistanceMeters>NAN</DistanceMeters>
          </Trackpoint>
          <Trackpoint>
            <Time>2022-07-07T16:51:04.000Z</Time>
            <Position>
              <LatitudeDegrees>43.498397804796695709228515625</LatitudeDegrees>
              <LongitudeDegrees>-1.54418687336146831512451171875</LongitudeDegrees>
            </Position>
            <AltitudeMeters>21</AltitudeMeters>
            <DistanceMeters>NAN</DistanceMeters>
          </Trackpoint>
          <Trackpoint>
            <Time>2022-07-07T16:51:06.000Z</Time>
            <Position>
              <LatitudeDegrees>43.4984068572521209716796875</LatitudeDegrees>
              <LongitudeDegrees>-1.544152088463306427001953125</LongitudeDegrees>
            </Position>
            <AltitudeMeters>21</AltitudeMeters>
            <DistanceMeters>NAN</DistanceMeters>
          </Trackpoint>
          <Trackpoint>
            <Time>2022-07-07T16:51:07.000Z</Time>
            <Position>
              <LatitudeDegrees>43.49842227995395660400390625</LatitudeDegrees>
              <LongitudeDegrees>-1.54414094053208827972412109375</LongitudeDegrees>
            </Position>
            <AltitudeMeters>21</AltitudeMeters>
            <DistanceMeters>NAN</DistanceMeters>
          </Trackpoint>
          <Trackpoint>
            <Time>2022-07-07T16:51:11.000Z</Time>
            <Position>
              <LatitudeDegrees>43.49849310703575611114501953125</LatitudeDegrees>
              <LongitudeDegrees>-1.54412870295345783233642578125</LongitudeDegrees>
            </Position>
            <AltitudeMeters>21</AltitudeMeters>
            <DistanceMeters>NAN</DistanceMeters>
          </Trackpoint>
          <Trackpoint>
            <Time>2022-07-07T16:51:13.000Z</Time>
            <Position>
              <LatitudeDegrees>43.49849310703575611114501953125</LatitudeDegrees>
              <LongitudeDegrees>-1.54412870295345783233642578125</LongitudeDegrees>
            </Position>
            <AltitudeMeters>21</AltitudeMeters>
            <DistanceMeters>NAN</DistanceMeters>
          </Trackpoint>
          <Trackpoint>
            <Time>2022-07-07T16:51:47.000Z</Time>
            <Position>
              <LatitudeDegrees>43.4983599185943603515625</LatitudeDegrees>
              <LongitudeDegrees>-1.54422308318316936492919921875</LongitudeDegrees>
            </Position>
            <AltitudeMeters>20.6000003814697265625</AltitudeMeters>
            <DistanceMeters>NAN</DistanceMeters>
          </Trackpoint>
          <Trackpoint>
            <Time>2022-07-07T16:51:48.000Z</Time>
            <Position>
              <LatitudeDegrees>43.49833519198000431060791015625</LatitudeDegrees>
              <LongitudeDegrees>-1.54423498548567295074462890625</LongitudeDegrees>
            </Position>
            <AltitudeMeters>20.6000003814697265625</AltitudeMeters>
            <DistanceMeters>NAN</DistanceMeters>
          </Trackpoint>
          <Trackpoint>
            <Time>2022-07-07T16:51:58.000Z</Time>
            <Position>
              <LatitudeDegrees>43.49810552783310413360595703125</LatitudeDegrees>
              <LongitudeDegrees>-1.544299609959125518798828125</LongitudeDegrees>
            </Position>
            <AltitudeMeters>20.6000003814697265625</AltitudeMeters>
            <DistanceMeters>NAN</DistanceMeters>
          </Trackpoint>
          <Trackpoint>
            <Time>2022-07-07T16:52:08.000Z</Time>
            <Position>
              <LatitudeDegrees>43.4979181922972202301025390625</LatitudeDegrees>
              <LongitudeDegrees>-1.54431846924126148223876953125</LongitudeDegrees>
            </Position>
            <AltitudeMeters>20.799999237060546875</AltitudeMeters>
            <DistanceMeters>NAN</DistanceMeters>
          </Trackpoint>
          <Trackpoint>
            <Time>2022-07-07T16:52:11.000Z</Time>
            <Position>
              <LatitudeDegrees>43.4979098103940486907958984375</LatitudeDegrees>
              <LongitudeDegrees>-1.544319726526737213134765625</LongitudeDegrees>
            </Position>
            <AltitudeMeters>20.799999237060546875</AltitudeMeters>
            <DistanceMeters>NAN</DistanceMeters>
          </Trackpoint>
          <Trackpoint>
            <Time>2022-07-07T16:53:04.000Z</Time>
            <Position>
              <LatitudeDegrees>43.4978497959673404693603515625</LatitudeDegrees>
              <LongitudeDegrees>-1.54433137737214565277099609375</LongitudeDegrees>
            </Position>
            <AltitudeMeters>23</AltitudeMeters>
            <DistanceMeters>NAN</DistanceMeters>
          </Trackpoint>
          <Trackpoint>
            <Time>2022-07-07T16:53:05.000Z</Time>
            <Position>
              <LatitudeDegrees>43.49782573990523815155029296875</LatitudeDegrees>
              <LongitudeDegrees>-1.54434126801788806915283203125</LongitudeDegrees>
            </Position>
            <AltitudeMeters>23</AltitudeMeters>
            <DistanceMeters>NAN</DistanceMeters>
          </Trackpoint>
          <Trackpoint>
            <Time>2022-07-07T16:53:10.000Z</Time>
            <Position>
              <LatitudeDegrees>43.49773856811225414276123046875</LatitudeDegrees>
              <LongitudeDegrees>-1.54435199685394763946533203125</LongitudeDegrees>
            </Position>
            <AltitudeMeters>22.799999237060546875</AltitudeMeters>
            <DistanceMeters>NAN</DistanceMeters>
          </Trackpoint>
          <Trackpoint>
            <Time>2022-07-07T16:53:11.000Z</Time>
            <Position>
              <LatitudeDegrees>43.49772817455232143402099609375</LatitudeDegrees>
              <LongitudeDegrees>-1.54434830881655216217041015625</LongitudeDegrees>
            </Position>
            <AltitudeMeters>22.799999237060546875</AltitudeMeters>
            <DistanceMeters>NAN</DistanceMeters>
          </Trackpoint>
          <Trackpoint>
            <Time>2022-07-07T16:53:15.000Z</Time>
            <Position>
              <LatitudeDegrees>43.49768643267452716827392578125</LatitudeDegrees>
              <LongitudeDegrees>-1.54436255805194377899169921875</LongitudeDegrees>
            </Position>
            <AltitudeMeters>22.799999237060546875</AltitudeMeters>
            <DistanceMeters>NAN</DistanceMeters>
          </Trackpoint>
          <Trackpoint>
            <Time>2022-07-07T16:53:17.000Z</Time>
            <Position>
              <LatitudeDegrees>43.49765877239406108856201171875</LatitudeDegrees>
              <LongitudeDegrees>-1.544380746781826019287109375</LongitudeDegrees>
            </Position>
            <AltitudeMeters>22.799999237060546875</AltitudeMeters>
            <DistanceMeters>NAN</DistanceMeters>
          </Trackpoint>
          <Trackpoint>
            <Time>2022-07-07T16:53:25.000Z</Time>
            <Position>
              <LatitudeDegrees>43.49754477851092815399169921875</LatitudeDegrees>
              <LongitudeDegrees>-1.54439927078783512115478515625</LongitudeDegrees>
            </Position>
            <AltitudeMeters>23</AltitudeMeters>
            <DistanceMeters>NAN</DistanceMeters>
          </Trackpoint>
          <Trackpoint>
            <Time>2022-07-07T16:53:28.000Z</Time>
            <Position>
              <LatitudeDegrees>43.49754192866384983062744140625</LatitudeDegrees>
              <LongitudeDegrees>-1.544400863349437713623046875</LongitudeDegrees>
            </Position>
            <AltitudeMeters>23</AltitudeMeters>
            <DistanceMeters>NAN</DistanceMeters>
          </Trackpoint>
          <Trackpoint>
            <Time>2022-07-07T16:55:47.000Z</Time>
            <Position>
              <LatitudeDegrees>43.49760881625115871429443359375</LatitudeDegrees>
              <LongitudeDegrees>-1.54437295161187648773193359375</LongitudeDegrees>
            </Position>
            <AltitudeMeters>23.799999237060546875</AltitudeMeters>
            <DistanceMeters>NAN</DistanceMeters>
          </Trackpoint>
          <Trackpoint>
            <Time>2022-07-07T16:55:48.000Z</Time>
            <Position>
              <LatitudeDegrees>43.49763127975165843963623046875</LatitudeDegrees>
              <LongitudeDegrees>-1.544363982975482940673828125</LongitudeDegrees>
            </Position>
            <AltitudeMeters>23.799999237060546875</AltitudeMeters>
            <DistanceMeters>NAN</DistanceMeters>
          </Trackpoint>
          <Trackpoint>
            <Time>2022-07-07T16:55:54.000Z</Time>
            <Position>
              <LatitudeDegrees>43.49776237271726131439208984375</LatitudeDegrees>
              <LongitudeDegrees>-1.5443046391010284423828125</LongitudeDegrees>
            </Position>
            <AltitudeMeters>24</AltitudeMeters>
            <DistanceMeters>NAN</DistanceMeters>
          </Trackpoint>
          <Trackpoint>
            <Time>2022-07-07T16:55:57.000Z</Time>
            <Position>
              <LatitudeDegrees>43.4978045336902141571044921875</LatitudeDegrees>
              <LongitudeDegrees>-1.5442716144025325775146484375</LongitudeDegrees>
            </Position>
            <AltitudeMeters>24.200000762939453125</AltitudeMeters>
            <DistanceMeters>NAN</DistanceMeters>
          </Trackpoint>
          <Trackpoint>
            <Time>2022-07-07T16:55:59.000Z</Time>
            <Position>
              <LatitudeDegrees>43.4977958165109157562255859375</LatitudeDegrees>
              <LongitudeDegrees>-1.54422593303024768829345703125</LongitudeDegrees>
            </Position>
            <AltitudeMeters>24.200000762939453125</AltitudeMeters>
            <DistanceMeters>NAN</DistanceMeters>
          </Trackpoint>
          <Trackpoint>
            <Time>2022-07-07T16:56:01.000Z</Time>
            <Position>
              <LatitudeDegrees>43.49776455201208591461181640625</LatitudeDegrees>
              <LongitudeDegrees>-1.54418720863759517669677734375</LongitudeDegrees>
            </Position>
            <AltitudeMeters>24.200000762939453125</AltitudeMeters>
            <DistanceMeters>NAN</DistanceMeters>
          </Trackpoint>
          <Trackpoint>
            <Time>2022-07-07T16:56:02.000Z</Time>
            <Position>
              <LatitudeDegrees>43.49775734357535839080810546875</LatitudeDegrees>
              <LongitudeDegrees>-1.54416508041322231292724609375</LongitudeDegrees>
            </Position>
            <AltitudeMeters>24.200000762939453125</AltitudeMeters>
            <DistanceMeters>NAN</DistanceMeters>
          </Trackpoint>
          <Trackpoint>
            <Time>2022-07-07T16:56:04.000Z</Time>
            <Position>
              <LatitudeDegrees>43.49775264970958232879638671875</LatitudeDegrees>
              <LongitudeDegrees>-1.54413825832307338714599609375</LongitudeDegrees>
            </Position>
            <AltitudeMeters>24.200000762939453125</AltitudeMeters>
            <DistanceMeters>NAN</DistanceMeters>
          </Trackpoint>
          <Trackpoint>
            <Time>2022-07-07T16:56:06.000Z</Time>
            <Position>
              <LatitudeDegrees>43.49776119925081729888916015625</LatitudeDegrees>
              <LongitudeDegrees>-1.5441019646823406219482421875</LongitudeDegrees>
            </Position>
            <AltitudeMeters>24.200000762939453125</AltitudeMeters>
            <DistanceMeters>NAN</DistanceMeters>
          </Trackpoint>
          <Trackpoint>
            <Time>2022-07-07T16:56:08.000Z</Time>
            <Position>
              <LatitudeDegrees>43.49778902716934680938720703125</LatitudeDegrees>
              <LongitudeDegrees>-1.54410204850137233734130859375</LongitudeDegrees>
            </Position>
            <AltitudeMeters>24</AltitudeMeters>
            <DistanceMeters>NAN</DistanceMeters>
          </Trackpoint>
          <Trackpoint>
            <Time>2022-07-07T16:56:12.000Z</Time>
            <Position>
              <LatitudeDegrees>43.4978658892214298248291015625</LatitudeDegrees>
              <LongitudeDegrees>-1.54418771155178546905517578125</LongitudeDegrees>
            </Position>
            <AltitudeMeters>25.200000762939453125</AltitudeMeters>
            <DistanceMeters>NAN</DistanceMeters>
          </Trackpoint>
          <Trackpoint>
            <Time>2022-07-07T16:56:13.000Z</Time>
            <Position>
              <LatitudeDegrees>43.4978923760354518890380859375</LatitudeDegrees>
              <LongitudeDegrees>-1.54420900158584117889404296875</LongitudeDegrees>
            </Position>
            <AltitudeMeters>25.200000762939453125</AltitudeMeters>
            <DistanceMeters>NAN</DistanceMeters>
          </Trackpoint>
          <Trackpoint>
            <Time>2022-07-07T16:56:17.000Z</Time>
            <Position>
              <LatitudeDegrees>43.49801232106983661651611328125</LatitudeDegrees>
              <LongitudeDegrees>-1.54422006569802761077880859375</LongitudeDegrees>
            </Position>
            <AltitudeMeters>25</AltitudeMeters>
            <DistanceMeters>NAN</DistanceMeters>
          </Trackpoint>
          <Trackpoint>
            <Time>2022-07-07T16:56:18.000Z</Time>
            <Position>
              <LatitudeDegrees>43.4980429150164127349853515625</LatitudeDegrees>
              <LongitudeDegrees>-1.5442136116325855255126953125</LongitudeDegrees>
            </Position>
            <AltitudeMeters>25</AltitudeMeters>
            <DistanceMeters>NAN</DistanceMeters>
          </Trackpoint>
          <Trackpoint>
            <Time>2022-07-07T16:56:26.000Z</Time>
            <Position>
              <LatitudeDegrees>43.49827635101974010467529296875</LatitudeDegrees>
              <LongitudeDegrees>-1.5441696904599666595458984375</LongitudeDegrees>
            </Position>
            <AltitudeMeters>24.799999237060546875</AltitudeMeters>
            <DistanceMeters>NAN</DistanceMeters>
          </Trackpoint>
          <Trackpoint>
            <Time>2022-07-07T16:56:31.000Z</Time>
            <Position>
              <LatitudeDegrees>43.49841465242207050323486328125</LatitudeDegrees>
              <LongitudeDegrees>-1.54407656751573085784912109375</LongitudeDegrees>
            </Position>
            <AltitudeMeters>25</AltitudeMeters>
            <DistanceMeters>NAN</DistanceMeters>
          </Trackpoint>
          <Trackpoint>
            <Time>2022-07-07T16:56:34.000Z</Time>
            <Position>
              <LatitudeDegrees>43.4984710626304149627685546875</LatitudeDegrees>
              <LongitudeDegrees>-1.54399107210338115692138671875</LongitudeDegrees>
            </Position>
            <AltitudeMeters>25</AltitudeMeters>
            <DistanceMeters>NAN</DistanceMeters>
          </Trackpoint>
          <Trackpoint>
            <Time>2022-07-07T16:56:36.000Z</Time>
            <Position>
              <LatitudeDegrees>43.4984797798097133636474609375</LatitudeDegrees>
              <LongitudeDegrees>-1.54392653144896030426025390625</LongitudeDegrees>
            </Position>
            <AltitudeMeters>24.799999237060546875</AltitudeMeters>
            <DistanceMeters>NAN</DistanceMeters>
          </Trackpoint>
          <Trackpoint>
            <Time>2022-07-07T16:56:43.000Z</Time>
            <Position>
              <LatitudeDegrees>43.49850417114794254302978515625</LatitudeDegrees>
              <LongitudeDegrees>-1.54375839047133922576904296875</LongitudeDegrees>
            </Position>
            <AltitudeMeters>24.3999996185302734375</AltitudeMeters>
            <DistanceMeters>NAN</DistanceMeters>
          </Trackpoint>
          <Trackpoint>
            <Time>2022-07-07T16:56:50.000Z</Time>
            <Position>
              <LatitudeDegrees>43.49853183142840862274169921875</LatitudeDegrees>
              <LongitudeDegrees>-1.54357784427702426910400390625</LongitudeDegrees>
            </Position>
            <AltitudeMeters>24.6000003814697265625</AltitudeMeters>
            <DistanceMeters>NAN</DistanceMeters>
          </Trackpoint>
          <Trackpoint>
            <Time>2022-07-07T16:56:57.000Z</Time>
            <Position>
              <LatitudeDegrees>43.4985850565135478973388671875</LatitudeDegrees>
              <LongitudeDegrees>-1.54333326034247875213623046875</LongitudeDegrees>
            </Position>
            <AltitudeMeters>24.799999237060546875</AltitudeMeters>
            <DistanceMeters>NAN</DistanceMeters>
          </Trackpoint>
          <Trackpoint>
            <Time>2022-07-07T16:57:03.000Z</Time>
            <Position>
              <LatitudeDegrees>43.49862612783908843994140625</LatitudeDegrees>
              <LongitudeDegrees>-1.543110050261020660400390625</LongitudeDegrees>
            </Position>
            <AltitudeMeters>24.799999237060546875</AltitudeMeters>
            <DistanceMeters>NAN</DistanceMeters>
          </Trackpoint>
          <Trackpoint>
            <Time>2022-07-07T16:57:05.000Z</Time>
            <Position>
              <LatitudeDegrees>43.49863861687481403350830078125</LatitudeDegrees>
              <LongitudeDegrees>-1.54303654097020626068115234375</LongitudeDegrees>
            </Position>
            <AltitudeMeters>25</AltitudeMeters>
            <DistanceMeters>NAN</DistanceMeters>
          </Trackpoint>
          <Trackpoint>
            <Time>2022-07-07T16:57:13.000Z</Time>
            <Position>
              <LatitudeDegrees>43.49869041703641414642333984375</LatitudeDegrees>
              <LongitudeDegrees>-1.54280059039592742919921875</LongitudeDegrees>
            </Position>
            <AltitudeMeters>25.6000003814697265625</AltitudeMeters>
            <DistanceMeters>NAN</DistanceMeters>
          </Trackpoint>
          <Trackpoint>
            <Time>2022-07-07T16:57:19.000Z</Time>
            <Position>
              <LatitudeDegrees>43.498727045953273773193359375</LatitudeDegrees>
              <LongitudeDegrees>-1.54268668033182621002197265625</LongitudeDegrees>
            </Position>
            <AltitudeMeters>26.200000762939453125</AltitudeMeters>
            <DistanceMeters>NAN</DistanceMeters>
          </Trackpoint>
          <Trackpoint>
            <Time>2022-07-07T16:57:20.000Z</Time>
            <Position>
              <LatitudeDegrees>43.4987325780093669891357421875</LatitudeDegrees>
              <LongitudeDegrees>-1.54266689904034137725830078125</LongitudeDegrees>
            </Position>
            <AltitudeMeters>26.200000762939453125</AltitudeMeters>
            <DistanceMeters>NAN</DistanceMeters>
          </Trackpoint>
          <Trackpoint>
            <Time>2022-07-07T16:57:28.000Z</Time>
            <Position>
              <LatitudeDegrees>43.4987741522490978240966796875</LatitudeDegrees>
              <LongitudeDegrees>-1.5425156056880950927734375</LongitudeDegrees>
            </Position>
            <AltitudeMeters>26.799999237060546875</AltitudeMeters>
            <DistanceMeters>NAN</DistanceMeters>
          </Trackpoint>
          <Trackpoint>
            <Time>2022-07-07T16:57:33.000Z</Time>
            <Position>
              <LatitudeDegrees>43.4988117031753063201904296875</LatitudeDegrees>
              <LongitudeDegrees>-1.542432792484760284423828125</LongitudeDegrees>
            </Position>
            <AltitudeMeters>27.200000762939453125</AltitudeMeters>
            <DistanceMeters>NAN</DistanceMeters>
          </Trackpoint>
          <Trackpoint>
            <Time>2022-07-07T16:57:34.000Z</Time>
            <Position>
              <LatitudeDegrees>43.498825617134571075439453125</LatitudeDegrees>
              <LongitudeDegrees>-1.5424326248466968536376953125</LongitudeDegrees>
            </Position>
            <AltitudeMeters>27.3999996185302734375</AltitudeMeters>
            <DistanceMeters>NAN</DistanceMeters>
          </Trackpoint>
          <Trackpoint>
            <Time>2022-07-07T16:57:35.000Z</Time>
            <Position>
              <LatitudeDegrees>43.4988418780267238616943359375</LatitudeDegrees>
              <LongitudeDegrees>-1.542439162731170654296875</LongitudeDegrees>
            </Position>
            <AltitudeMeters>27.6000003814697265625</AltitudeMeters>
            <DistanceMeters>NAN</DistanceMeters>
          </Trackpoint>
          <Trackpoint>
            <Time>2022-07-07T16:57:37.000Z</Time>
            <Position>
              <LatitudeDegrees>43.49888605065643787384033203125</LatitudeDegrees>
              <LongitudeDegrees>-1.54244578443467617034912109375</LongitudeDegrees>
            </Position>
            <AltitudeMeters>27.799999237060546875</AltitudeMeters>
            <DistanceMeters>NAN</DistanceMeters>
          </Trackpoint>
          <Trackpoint>
            <Time>2022-07-07T16:57:39.000Z</Time>
            <Position>
              <LatitudeDegrees>43.498909436166286468505859375</LatitudeDegrees>
              <LongitudeDegrees>-1.5424148552119731903076171875</LongitudeDegrees>
            </Position>
            <AltitudeMeters>27.799999237060546875</AltitudeMeters>
            <DistanceMeters>NAN</DistanceMeters>
          </Trackpoint>
          <Trackpoint>
            <Time>2022-07-07T16:57:46.000Z</Time>
            <Position>
              <LatitudeDegrees>43.4989471547305583953857421875</LatitudeDegrees>
              <LongitudeDegrees>-1.54226037673652172088623046875</LongitudeDegrees>
            </Position>
            <AltitudeMeters>28.3999996185302734375</AltitudeMeters>
            <DistanceMeters>NAN</DistanceMeters>
          </Trackpoint>
          <Trackpoint>
            <Time>2022-07-07T16:57:54.000Z</Time>
            <Position>
              <LatitudeDegrees>43.49901546724140644073486328125</LatitudeDegrees>
              <LongitudeDegrees>-1.54206139035522937774658203125</LongitudeDegrees>
            </Position>
            <AltitudeMeters>29.3999996185302734375</AltitudeMeters>
            <DistanceMeters>NAN</DistanceMeters>
          </Trackpoint>
          <Trackpoint>
            <Time>2022-07-07T16:57:55.000Z</Time>
            <Position>
              <LatitudeDegrees>43.49902175366878509521484375</LatitudeDegrees>
              <LongitudeDegrees>-1.5420373342931270599365234375</LongitudeDegrees>
            </Position>
            <AltitudeMeters>29.6000003814697265625</AltitudeMeters>
            <DistanceMeters>NAN</DistanceMeters>
          </Trackpoint>
          <Trackpoint>
            <Time>2022-07-07T16:58:01.000Z</Time>
            <Position>
              <LatitudeDegrees>43.49907028488814830780029296875</LatitudeDegrees>
              <LongitudeDegrees>-1.541889645159244537353515625</LongitudeDegrees>
            </Position>
            <AltitudeMeters>30.3999996185302734375</AltitudeMeters>
            <DistanceMeters>NAN</DistanceMeters>
          </Trackpoint>
          <Trackpoint>
            <Time>2022-07-07T16:58:02.000Z</Time>
            <Position>
              <LatitudeDegrees>43.4990774095058441162109375</LatitudeDegrees>
              <LongitudeDegrees>-1.541860140860080718994140625</LongitudeDegrees>
            </Position>
            <AltitudeMeters>30.6000003814697265625</AltitudeMeters>
            <DistanceMeters>NAN</DistanceMeters>
          </Trackpoint>
          <Trackpoint>
            <Time>2022-07-07T16:58:11.000Z</Time>
            <Position>
              <LatitudeDegrees>43.49916868843138217926025390625</LatitudeDegrees>
              <LongitudeDegrees>-1.541632153093814849853515625</LongitudeDegrees>
            </Position>
            <AltitudeMeters>31.6000003814697265625</AltitudeMeters>
            <DistanceMeters>NAN</DistanceMeters>
          </Trackpoint>
          <Trackpoint>
            <Time>2022-07-07T16:58:12.000Z</Time>
            <Position>
              <LatitudeDegrees>43.4991805069148540496826171875</LatitudeDegrees>
              <LongitudeDegrees>-1.541610024869441986083984375</LongitudeDegrees>
            </Position>
            <AltitudeMeters>31.6000003814697265625</AltitudeMeters>
            <DistanceMeters>NAN</DistanceMeters>
          </Trackpoint>
          <Trackpoint>
            <Time>2022-07-07T16:58:20.000Z</Time>
            <Position>
              <LatitudeDegrees>43.4992517530918121337890625</LatitudeDegrees>
              <LongitudeDegrees>-1.5414147265255451202392578125</LongitudeDegrees>
            </Position>
            <AltitudeMeters>32.59999847412109375</AltitudeMeters>
            <DistanceMeters>NAN</DistanceMeters>
          </Trackpoint>
          <Trackpoint>
            <Time>2022-07-07T16:58:29.000Z</Time>
            <Position>
              <LatitudeDegrees>43.49931503646075725555419921875</LatitudeDegrees>
              <LongitudeDegrees>-1.54121364466845989227294921875</LongitudeDegrees>
            </Position>
            <AltitudeMeters>33.59999847412109375</AltitudeMeters>
            <DistanceMeters>NAN</DistanceMeters>
          </Trackpoint>
          <Trackpoint>
            <Time>2022-07-07T16:58:32.000Z</Time>
            <Position>
              <LatitudeDegrees>43.49934772588312625885009765625</LatitudeDegrees>
              <LongitudeDegrees>-1.54114441014826297760009765625</LongitudeDegrees>
            </Position>
            <AltitudeMeters>34</AltitudeMeters>
            <DistanceMeters>NAN</DistanceMeters>
          </Trackpoint>
          <Trackpoint>
            <Time>2022-07-07T16:58:37.000Z</Time>
            <Position>
              <LatitudeDegrees>43.4993970952928066253662109375</LatitudeDegrees>
              <LongitudeDegrees>-1.5410345233976840972900390625</LongitudeDegrees>
            </Position>
            <AltitudeMeters>34.59999847412109375</AltitudeMeters>
            <DistanceMeters>NAN</DistanceMeters>
          </Trackpoint>
          <Trackpoint>
            <Time>2022-07-07T16:58:38.000Z</Time>
            <Position>
              <LatitudeDegrees>43.4994064830243587493896484375</LatitudeDegrees>
              <LongitudeDegrees>-1.5410046838223934173583984375</LongitudeDegrees>
            </Position>
            <AltitudeMeters>34.799999237060546875</AltitudeMeters>
            <DistanceMeters>NAN</DistanceMeters>
          </Trackpoint>
          <Trackpoint>
            <Time>2022-07-07T16:58:41.000Z</Time>
            <Position>
              <LatitudeDegrees>43.49943506531417369842529296875</LatitudeDegrees>
              <LongitudeDegrees>-1.54092513956129550933837890625</LongitudeDegrees>
            </Position>
            <AltitudeMeters>35</AltitudeMeters>
            <DistanceMeters>NAN</DistanceMeters>
          </Trackpoint>
          <Trackpoint>
            <Time>2022-07-07T16:58:45.000Z</Time>
            <Position>
              <LatitudeDegrees>43.49945317022502422332763671875</LatitudeDegrees>
              <LongitudeDegrees>-1.5408534742891788482666015625</LongitudeDegrees>
            </Position>
            <AltitudeMeters>35.40000152587890625</AltitudeMeters>
            <DistanceMeters>NAN</DistanceMeters>
          </Trackpoint>
          <Trackpoint>
            <Time>2022-07-07T16:58:47.000Z</Time>
            <Position>
              <LatitudeDegrees>43.49945987574756145477294921875</LatitudeDegrees>
              <LongitudeDegrees>-1.54081801883876323699951171875</LongitudeDegrees>
            </Position>
            <AltitudeMeters>35.799999237060546875</AltitudeMeters>
            <DistanceMeters>NAN</DistanceMeters>
          </Trackpoint>
          <Trackpoint>
            <Time>2022-07-07T16:58:51.000Z</Time>
            <Position>
              <LatitudeDegrees>43.49950295872986316680908203125</LatitudeDegrees>
              <LongitudeDegrees>-1.54074677266180515289306640625</LongitudeDegrees>
            </Position>
            <AltitudeMeters>36.200000762939453125</AltitudeMeters>
            <DistanceMeters>NAN</DistanceMeters>
          </Trackpoint>
          <Trackpoint>
            <Time>2022-07-07T16:58:57.000Z</Time>
            <Position>
              <LatitudeDegrees>43.4995677508413791656494140625</LatitudeDegrees>
              <LongitudeDegrees>-1.54066412709653377532958984375</LongitudeDegrees>
            </Position>
            <AltitudeMeters>36.59999847412109375</AltitudeMeters>
            <DistanceMeters>NAN</DistanceMeters>
          </Trackpoint>
          <Trackpoint>
            <Time>2022-07-07T16:58:58.000Z</Time>
            <Position>
              <LatitudeDegrees>43.49956364370882511138916015625</LatitudeDegrees>
              <LongitudeDegrees>-1.5406392328441143035888671875</LongitudeDegrees>
            </Position>
            <AltitudeMeters>36.59999847412109375</AltitudeMeters>
            <DistanceMeters>NAN</DistanceMeters>
          </Trackpoint>
          <Trackpoint>
            <Time>2022-07-07T16:59:00.000Z</Time>
            <Position>
              <LatitudeDegrees>43.49953942000865936279296875</LatitudeDegrees>
              <LongitudeDegrees>-1.540585421025753021240234375</LongitudeDegrees>
            </Position>
            <AltitudeMeters>36.799999237060546875</AltitudeMeters>
            <DistanceMeters>NAN</DistanceMeters>
          </Trackpoint>
          <Trackpoint>
            <Time>2022-07-07T16:59:03.000Z</Time>
            <Position>
              <LatitudeDegrees>43.49947504699230194091796875</LatitudeDegrees>
              <LongitudeDegrees>-1.54053420759737491607666015625</LongitudeDegrees>
            </Position>
            <AltitudeMeters>37</AltitudeMeters>
            <DistanceMeters>NAN</DistanceMeters>
          </Trackpoint>
          <Trackpoint>
            <Time>2022-07-07T16:59:09.000Z</Time>
            <Position>
              <LatitudeDegrees>43.49936281330883502960205078125</LatitudeDegrees>
              <LongitudeDegrees>-1.54043664224445819854736328125</LongitudeDegrees>
            </Position>
            <AltitudeMeters>37.59999847412109375</AltitudeMeters>
            <DistanceMeters>NAN</DistanceMeters>
          </Trackpoint>
          <Trackpoint>
            <Time>2022-07-07T16:59:14.000Z</Time>
            <Position>
              <LatitudeDegrees>43.49930061958730220794677734375</LatitudeDegrees>
              <LongitudeDegrees>-1.5403834171593189239501953125</LongitudeDegrees>
            </Position>
            <AltitudeMeters>37.59999847412109375</AltitudeMeters>
            <DistanceMeters>NAN</DistanceMeters>
          </Trackpoint>
          <Trackpoint>
            <Time>2022-07-07T16:59:15.000Z</Time>
            <Position>
              <LatitudeDegrees>43.49929307587444782257080078125</LatitudeDegrees>
              <LongitudeDegrees>-1.54038232751190662384033203125</LongitudeDegrees>
            </Position>
            <AltitudeMeters>37.59999847412109375</AltitudeMeters>
            <DistanceMeters>NAN</DistanceMeters>
          </Trackpoint>
          <Trackpoint>
            <Time>2022-07-07T16:59:19.000Z</Time>
            <Position>
              <LatitudeDegrees>43.499289639294147491455078125</LatitudeDegrees>
              <LongitudeDegrees>-1.540403701364994049072265625</LongitudeDegrees>
            </Position>
            <AltitudeMeters>37.799999237060546875</AltitudeMeters>
            <DistanceMeters>NAN</DistanceMeters>
          </Trackpoint>
          <Trackpoint>
            <Time>2022-07-07T16:59:24.000Z</Time>
            <Position>
              <LatitudeDegrees>43.49934504367411136627197265625</LatitudeDegrees>
              <LongitudeDegrees>-1.54048190452158451080322265625</LongitudeDegrees>
            </Position>
            <AltitudeMeters>38</AltitudeMeters>
            <DistanceMeters>NAN</DistanceMeters>
          </Trackpoint>
          <Trackpoint>
            <Time>2022-07-07T16:59:25.000Z</Time>
            <Position>
              <LatitudeDegrees>43.4993518330156803131103515625</LatitudeDegrees>
              <LongitudeDegrees>-1.5404970757663249969482421875</LongitudeDegrees>
            </Position>
            <AltitudeMeters>37.799999237060546875</AltitudeMeters>
            <DistanceMeters>NAN</DistanceMeters>
          </Trackpoint>
          <Trackpoint>
            <Time>2022-07-07T16:59:26.000Z</Time>
            <Position>
              <LatitudeDegrees>43.4993585385382175445556640625</LatitudeDegrees>
              <LongitudeDegrees>-1.54052934609353542327880859375</LongitudeDegrees>
            </Position>
            <AltitudeMeters>37.799999237060546875</AltitudeMeters>
            <DistanceMeters>NAN</DistanceMeters>
          </Trackpoint>
          <Trackpoint>
            <Time>2022-07-07T16:59:30.000Z</Time>
            <Position>
              <LatitudeDegrees>43.4993310458958148956298828125</LatitudeDegrees>
              <LongitudeDegrees>-1.5406782925128936767578125</LongitudeDegrees>
            </Position>
            <AltitudeMeters>37.59999847412109375</AltitudeMeters>
            <DistanceMeters>NAN</DistanceMeters>
          </Trackpoint>
          <Trackpoint>
            <Time>2022-07-07T16:59:33.000Z</Time>
            <Position>
              <LatitudeDegrees>43.499278910458087921142578125</LatitudeDegrees>
              <LongitudeDegrees>-1.5407616086304187774658203125</LongitudeDegrees>
            </Position>
            <AltitudeMeters>38</AltitudeMeters>
            <DistanceMeters>NAN</DistanceMeters>
          </Trackpoint>
          <Trackpoint>
            <Time>2022-07-07T16:59:36.000Z</Time>
            <Position>
              <LatitudeDegrees>43.49922887049615383148193359375</LatitudeDegrees>
              <LongitudeDegrees>-1.5408487804234027862548828125</LongitudeDegrees>
            </Position>
            <AltitudeMeters>38.200000762939453125</AltitudeMeters>
            <DistanceMeters>NAN</DistanceMeters>
          </Trackpoint>
          <Trackpoint>
            <Time>2022-07-07T16:59:44.000Z</Time>
            <Position>
              <LatitudeDegrees>43.4990960173308849334716796875</LatitudeDegrees>
              <LongitudeDegrees>-1.54104902409017086029052734375</LongitudeDegrees>
            </Position>
            <AltitudeMeters>39</AltitudeMeters>
            <DistanceMeters>NAN</DistanceMeters>
          </Trackpoint>
          <Trackpoint>
            <Time>2022-07-07T16:59:46.000Z</Time>
            <Position>
              <LatitudeDegrees>43.499065004289150238037109375</LatitudeDegrees>
              <LongitudeDegrees>-1.54109797440469264984130859375</LongitudeDegrees>
            </Position>
            <AltitudeMeters>39.200000762939453125</AltitudeMeters>
            <DistanceMeters>NAN</DistanceMeters>
          </Trackpoint>
          <Trackpoint>
            <Time>2022-07-07T16:59:52.000Z</Time>
            <Position>
              <LatitudeDegrees>43.49896115250885486602783203125</LatitudeDegrees>
              <LongitudeDegrees>-1.54119537211954593658447265625</LongitudeDegrees>
            </Position>
            <AltitudeMeters>39.799999237060546875</AltitudeMeters>
            <DistanceMeters>NAN</DistanceMeters>
          </Trackpoint>
          <Trackpoint>
            <Time>2022-07-07T16:59:53.000Z</Time>
            <Position>
              <LatitudeDegrees>43.498938940465450286865234375</LatitudeDegrees>
              <LongitudeDegrees>-1.54120869934558868408203125</LongitudeDegrees>
            </Position>
            <AltitudeMeters>40</AltitudeMeters>
            <DistanceMeters>NAN</DistanceMeters>
          </Trackpoint>
          <Trackpoint>
            <Time>2022-07-07T16:59:58.000Z</Time>
            <Position>
              <LatitudeDegrees>43.49885587580502033233642578125</LatitudeDegrees>
              <LongitudeDegrees>-1.54129293747246265411376953125</LongitudeDegrees>
            </Position>
            <AltitudeMeters>40.59999847412109375</AltitudeMeters>
            <DistanceMeters>NAN</DistanceMeters>
          </Trackpoint>
          <Trackpoint>
            <Time>2022-07-07T17:00:05.000Z</Time>
            <Position>
              <LatitudeDegrees>43.49870332516729831695556640625</LatitudeDegrees>
              <LongitudeDegrees>-1.541355215013027191162109375</LongitudeDegrees>
            </Position>
            <AltitudeMeters>41.200000762939453125</AltitudeMeters>
            <DistanceMeters>NAN</DistanceMeters>
          </Trackpoint>
          <Trackpoint>
            <Time>2022-07-07T17:00:11.000Z</Time>
            <Position>
              <LatitudeDegrees>43.498574160039424896240234375</LatitudeDegrees>
              <LongitudeDegrees>-1.54139083810150623321533203125</LongitudeDegrees>
            </Position>
            <AltitudeMeters>42.200000762939453125</AltitudeMeters>
            <DistanceMeters>NAN</DistanceMeters>
          </Trackpoint>
          <Trackpoint>
            <Time>2022-07-07T17:00:16.000Z</Time>
            <Position>
              <LatitudeDegrees>43.4984801150858402252197265625</LatitudeDegrees>
              <LongitudeDegrees>-1.541418246924877166748046875</LongitudeDegrees>
            </Position>
            <AltitudeMeters>43</AltitudeMeters>
            <DistanceMeters>NAN</DistanceMeters>
          </Trackpoint>
          <Trackpoint>
            <Time>2022-07-07T17:00:17.000Z</Time>
            <Position>
              <LatitudeDegrees>43.49846829660236835479736328125</LatitudeDegrees>
              <LongitudeDegrees>-1.54142453335225582122802734375</LongitudeDegrees>
            </Position>
            <AltitudeMeters>43.200000762939453125</AltitudeMeters>
            <DistanceMeters>NAN</DistanceMeters>
          </Trackpoint>
          <Trackpoint>
            <Time>2022-07-07T17:00:24.000Z</Time>
            <Position>
              <LatitudeDegrees>43.49832865409553050994873046875</LatitudeDegrees>
              <LongitudeDegrees>-1.54146476648747920989990234375</LongitudeDegrees>
            </Position>
            <AltitudeMeters>44</AltitudeMeters>
            <DistanceMeters>NAN</DistanceMeters>
          </Trackpoint>
          <Trackpoint>
            <Time>2022-07-07T17:00:26.000Z</Time>
            <Position>
              <LatitudeDegrees>43.49828825332224369049072265625</LatitudeDegrees>
              <LongitudeDegrees>-1.541480608284473419189453125</LongitudeDegrees>
            </Position>
            <AltitudeMeters>44.200000762939453125</AltitudeMeters>
            <DistanceMeters>NAN</DistanceMeters>
          </Trackpoint>
          <Trackpoint>
            <Time>2022-07-07T17:00:30.000Z</Time>
            <Position>
              <LatitudeDegrees>43.498215414583683013916015625</LatitudeDegrees>
              <LongitudeDegrees>-1.54154137708246707916259765625</LongitudeDegrees>
            </Position>
            <AltitudeMeters>44.40000152587890625</AltitudeMeters>
            <DistanceMeters>NAN</DistanceMeters>
          </Trackpoint>
          <Trackpoint>
            <Time>2022-07-07T17:00:35.000Z</Time>
            <Position>
              <LatitudeDegrees>43.49811843596398830413818359375</LatitudeDegrees>
              <LongitudeDegrees>-1.54163181781768798828125</LongitudeDegrees>
            </Position>
            <AltitudeMeters>45.40000152587890625</AltitudeMeters>
            <DistanceMeters>NAN</DistanceMeters>
          </Trackpoint>
          <Trackpoint>
            <Time>2022-07-07T17:00:37.000Z</Time>
            <Position>
              <LatitudeDegrees>43.4980895183980464935302734375</LatitudeDegrees>
              <LongitudeDegrees>-1.54167464934289455413818359375</LongitudeDegrees>
            </Position>
            <AltitudeMeters>45.40000152587890625</AltitudeMeters>
            <DistanceMeters>NAN</DistanceMeters>
          </Trackpoint>
          <Trackpoint>
            <Time>2022-07-07T17:00:44.000Z</Time>
            <Position>
              <LatitudeDegrees>43.498013578355312347412109375</LatitudeDegrees>
              <LongitudeDegrees>-1.54184547252953052520751953125</LongitudeDegrees>
            </Position>
            <AltitudeMeters>46.200000762939453125</AltitudeMeters>
            <DistanceMeters>NAN</DistanceMeters>
          </Trackpoint>
          <Trackpoint>
            <Time>2022-07-07T17:00:46.000Z</Time>
            <Position>
              <LatitudeDegrees>43.49800360389053821563720703125</LatitudeDegrees>
              <LongitudeDegrees>-1.5418931655585765838623046875</LongitudeDegrees>
            </Position>
            <AltitudeMeters>46.40000152587890625</AltitudeMeters>
            <DistanceMeters>NAN</DistanceMeters>
          </Trackpoint>
          <Trackpoint>
            <Time>2022-07-07T17:00:49.000Z</Time>
            <Position>
              <LatitudeDegrees>43.49798885174095630645751953125</LatitudeDegrees>
              <LongitudeDegrees>-1.54198192991316318511962890625</LongitudeDegrees>
            </Position>
            <AltitudeMeters>46.799999237060546875</AltitudeMeters>
            <DistanceMeters>NAN</DistanceMeters>
          </Trackpoint>
          <Trackpoint>
            <Time>2022-07-07T17:00:51.000Z</Time>
            <Position>
              <LatitudeDegrees>43.497981727123260498046875</LatitudeDegrees>
              <LongitudeDegrees>-1.54202853329479694366455078125</LongitudeDegrees>
            </Position>
            <AltitudeMeters>47</AltitudeMeters>
            <DistanceMeters>NAN</DistanceMeters>
          </Trackpoint>
          <Trackpoint>
            <Time>2022-07-07T17:00:58.000Z</Time>
            <Position>
              <LatitudeDegrees>43.49793034605681896209716796875</LatitudeDegrees>
              <LongitudeDegrees>-1.5422012843191623687744140625</LongitudeDegrees>
            </Position>
            <AltitudeMeters>47.40000152587890625</AltitudeMeters>
            <DistanceMeters>NAN</DistanceMeters>
          </Trackpoint>
          <Trackpoint>
            <Time>2022-07-07T17:00:59.000Z</Time>
            <Position>
              <LatitudeDegrees>43.49792062304913997650146484375</LatitudeDegrees>
              <LongitudeDegrees>-1.54222391545772552490234375</LongitudeDegrees>
            </Position>
            <AltitudeMeters>47.59999847412109375</AltitudeMeters>
            <DistanceMeters>NAN</DistanceMeters>
          </Trackpoint>
          <Trackpoint>
            <Time>2022-07-07T17:01:01.000Z</Time>
            <Position>
              <LatitudeDegrees>43.49790218286216259002685546875</LatitudeDegrees>
              <LongitudeDegrees>-1.54227462597191333770751953125</LongitudeDegrees>
            </Position>
            <AltitudeMeters>48.200000762939453125</AltitudeMeters>
            <DistanceMeters>NAN</DistanceMeters>
          </Trackpoint>
          <Trackpoint>
            <Time>2022-07-07T17:01:03.000Z</Time>
            <Position>
              <LatitudeDegrees>43.4978813119232654571533203125</LatitudeDegrees>
              <LongitudeDegrees>-1.54232022352516651153564453125</LongitudeDegrees>
            </Position>
            <AltitudeMeters>48.59999847412109375</AltitudeMeters>
            <DistanceMeters>NAN</DistanceMeters>
          </Trackpoint>
          <Trackpoint>
            <Time>2022-07-07T17:01:09.000Z</Time>
            <Position>
              <LatitudeDegrees>43.4978300146758556365966796875</LatitudeDegrees>
              <LongitudeDegrees>-1.54246875084936618804931640625</LongitudeDegrees>
            </Position>
            <AltitudeMeters>49.40000152587890625</AltitudeMeters>
            <DistanceMeters>NAN</DistanceMeters>
          </Trackpoint>
          <Trackpoint>
            <Time>2022-07-07T17:01:13.000Z</Time>
            <Position>
              <LatitudeDegrees>43.4977733530104160308837890625</LatitudeDegrees>
              <LongitudeDegrees>-1.542543433606624603271484375</LongitudeDegrees>
            </Position>
            <AltitudeMeters>49.59999847412109375</AltitudeMeters>
            <DistanceMeters>NAN</DistanceMeters>
          </Trackpoint>
          <Trackpoint>
            <Time>2022-07-07T17:01:16.000Z</Time>
            <Position>
              <LatitudeDegrees>43.4977391548454761505126953125</LatitudeDegrees>
              <LongitudeDegrees>-1.54260805808007717132568359375</LongitudeDegrees>
            </Position>
            <AltitudeMeters>50</AltitudeMeters>
            <DistanceMeters>NAN</DistanceMeters>
          </Trackpoint>
          <Trackpoint>
            <Time>2022-07-07T17:01:19.000Z</Time>
            <Position>
              <LatitudeDegrees>43.497689031064510345458984375</LatitudeDegrees>
              <LongitudeDegrees>-1.5426653064787387847900390625</LongitudeDegrees>
            </Position>
            <AltitudeMeters>50.40000152587890625</AltitudeMeters>
            <DistanceMeters>NAN</DistanceMeters>
          </Trackpoint>
          <Trackpoint>
            <Time>2022-07-07T17:01:22.000Z</Time>
            <Position>
              <LatitudeDegrees>43.497641421854496002197265625</LatitudeDegrees>
              <LongitudeDegrees>-1.5427129156887531280517578125</LongitudeDegrees>
            </Position>
            <AltitudeMeters>50.59999847412109375</AltitudeMeters>
            <DistanceMeters>NAN</DistanceMeters>
          </Trackpoint>
          <Trackpoint>
            <Time>2022-07-07T17:01:23.000Z</Time>
            <Position>
              <LatitudeDegrees>43.49762004800140857696533203125</LatitudeDegrees>
              <LongitudeDegrees>-1.542725823819637298583984375</LongitudeDegrees>
            </Position>
            <AltitudeMeters>50.799999237060546875</AltitudeMeters>
            <DistanceMeters>NAN</DistanceMeters>
          </Trackpoint>
          <Trackpoint>
            <Time>2022-07-07T17:01:24.000Z</Time>
            <Position>
              <LatitudeDegrees>43.49760445766150951385498046875</LatitudeDegrees>
              <LongitudeDegrees>-1.54273244552314281463623046875</LongitudeDegrees>
            </Position>
            <AltitudeMeters>50.799999237060546875</AltitudeMeters>
            <DistanceMeters>NAN</DistanceMeters>
          </Trackpoint>
          <Trackpoint>
            <Time>2022-07-07T17:01:27.000Z</Time>
            <Position>
              <LatitudeDegrees>43.49754980765283107757568359375</LatitudeDegrees>
              <LongitudeDegrees>-1.54276597313582897186279296875</LongitudeDegrees>
            </Position>
            <AltitudeMeters>51.200000762939453125</AltitudeMeters>
            <DistanceMeters>NAN</DistanceMeters>
          </Trackpoint>
          <Trackpoint>
            <Time>2022-07-07T17:01:30.000Z</Time>
            <Position>
              <LatitudeDegrees>43.4974974207580089569091796875</LatitudeDegrees>
              <LongitudeDegrees>-1.54279514215886592864990234375</LongitudeDegrees>
            </Position>
            <AltitudeMeters>51.59999847412109375</AltitudeMeters>
            <DistanceMeters>NAN</DistanceMeters>
          </Trackpoint>
          <Trackpoint>
            <Time>2022-07-07T17:01:31.000Z</Time>
            <Position>
              <LatitudeDegrees>43.49748107604682445526123046875</LatitudeDegrees>
              <LongitudeDegrees>-1.54280603863298892974853515625</LongitudeDegrees>
            </Position>
            <AltitudeMeters>51.59999847412109375</AltitudeMeters>
            <DistanceMeters>NAN</DistanceMeters>
          </Trackpoint>
          <Trackpoint>
            <Time>2022-07-07T17:01:32.000Z</Time>
            <Position>
              <LatitudeDegrees>43.4974615462124347686767578125</LatitudeDegrees>
              <LongitudeDegrees>-1.54281123541295528411865234375</LongitudeDegrees>
            </Position>
            <AltitudeMeters>51.59999847412109375</AltitudeMeters>
            <DistanceMeters>NAN</DistanceMeters>
          </Trackpoint>
          <Trackpoint>
            <Time>2022-07-07T17:01:33.000Z</Time>
            <Position>
              <LatitudeDegrees>43.49744201637804508209228515625</LatitudeDegrees>
              <LongitudeDegrees>-1.5428160130977630615234375</LongitudeDegrees>
            </Position>
            <AltitudeMeters>51.799999237060546875</AltitudeMeters>
            <DistanceMeters>NAN</DistanceMeters>
          </Trackpoint>
          <Trackpoint>
            <Time>2022-07-07T17:01:34.000Z</Time>
            <Position>
              <LatitudeDegrees>43.49742173217236995697021484375</LatitudeDegrees>
              <LongitudeDegrees>-1.542820371687412261962890625</LongitudeDegrees>
            </Position>
            <AltitudeMeters>51.799999237060546875</AltitudeMeters>
            <DistanceMeters>NAN</DistanceMeters>
          </Trackpoint>
          <Trackpoint>
            <Time>2022-07-07T17:01:35.000Z</Time>
            <Position>
              <LatitudeDegrees>43.49740429781377315521240234375</LatitudeDegrees>
              <LongitudeDegrees>-1.5428275801241397857666015625</LongitudeDegrees>
            </Position>
            <AltitudeMeters>52</AltitudeMeters>
            <DistanceMeters>NAN</DistanceMeters>
          </Trackpoint>
          <Trackpoint>
            <Time>2022-07-07T17:01:41.000Z</Time>
            <Position>
              <LatitudeDegrees>43.497330285608768463134765625</LatitudeDegrees>
              <LongitudeDegrees>-1.5428436733782291412353515625</LongitudeDegrees>
            </Position>
            <AltitudeMeters>52.59999847412109375</AltitudeMeters>
            <DistanceMeters>NAN</DistanceMeters>
          </Trackpoint>
          <Trackpoint>
            <Time>2022-07-07T17:02:11.000Z</Time>
            <Position>
              <LatitudeDegrees>43.49726046435534954071044921875</LatitudeDegrees>
              <LongitudeDegrees>-1.54280436225235462188720703125</LongitudeDegrees>
            </Position>
            <AltitudeMeters>53.200000762939453125</AltitudeMeters>
            <DistanceMeters>NAN</DistanceMeters>
          </Trackpoint>
          <Trackpoint>
            <Time>2022-07-07T17:02:13.000Z</Time>
            <Position>
              <LatitudeDegrees>43.49720799364149570465087890625</LatitudeDegrees>
              <LongitudeDegrees>-1.54280687682330608367919921875</LongitudeDegrees>
            </Position>
            <AltitudeMeters>53.200000762939453125</AltitudeMeters>
            <DistanceMeters>NAN</DistanceMeters>
          </Trackpoint>
          <Trackpoint>
            <Time>2022-07-07T17:02:18.000Z</Time>
            <Position>
              <LatitudeDegrees>43.49708855152130126953125</LatitudeDegrees>
              <LongitudeDegrees>-1.54281936585903167724609375</LongitudeDegrees>
            </Position>
            <AltitudeMeters>54</AltitudeMeters>
            <DistanceMeters>NAN</DistanceMeters>
          </Trackpoint>
          <Trackpoint>
            <Time>2022-07-07T17:02:19.000Z</Time>
            <Position>
              <LatitudeDegrees>43.49706332199275493621826171875</LatitudeDegrees>
              <LongitudeDegrees>-1.54281861148774623870849609375</LongitudeDegrees>
            </Position>
            <AltitudeMeters>54</AltitudeMeters>
            <DistanceMeters>NAN</DistanceMeters>
          </Trackpoint>
          <Trackpoint>
            <Time>2022-07-07T17:02:21.000Z</Time>
            <Position>
              <LatitudeDegrees>43.49701839499175548553466796875</LatitudeDegrees>
              <LongitudeDegrees>-1.54282062314450740814208984375</LongitudeDegrees>
            </Position>
            <AltitudeMeters>54.200000762939453125</AltitudeMeters>
            <DistanceMeters>NAN</DistanceMeters>
          </Trackpoint>
          <Trackpoint>
            <Time>2022-07-07T17:02:28.000Z</Time>
            <Position>
              <LatitudeDegrees>43.49684941582381725311279296875</LatitudeDegrees>
              <LongitudeDegrees>-1.54280687682330608367919921875</LongitudeDegrees>
            </Position>
            <AltitudeMeters>55.200000762939453125</AltitudeMeters>
            <DistanceMeters>NAN</DistanceMeters>
          </Trackpoint>
          <Trackpoint>
            <Time>2022-07-07T17:02:29.000Z</Time>
            <Position>
              <LatitudeDegrees>43.4968298859894275665283203125</LatitudeDegrees>
              <LongitudeDegrees>-1.54280536808073520660400390625</LongitudeDegrees>
            </Position>
            <AltitudeMeters>55.200000762939453125</AltitudeMeters>
            <DistanceMeters>NAN</DistanceMeters>
          </Trackpoint>
          <Trackpoint>
            <Time>2022-07-07T17:02:35.000Z</Time>
            <Position>
              <LatitudeDegrees>43.4966940991580486297607421875</LatitudeDegrees>
              <LongitudeDegrees>-1.54280637390911579132080078125</LongitudeDegrees>
            </Position>
            <AltitudeMeters>56.200000762939453125</AltitudeMeters>
            <DistanceMeters>NAN</DistanceMeters>
          </Trackpoint>
          <Trackpoint>
            <Time>2022-07-07T17:02:39.000Z</Time>
            <Position>
              <LatitudeDegrees>43.4966079331934452056884765625</LatitudeDegrees>
              <LongitudeDegrees>-1.54280729591846466064453125</LongitudeDegrees>
            </Position>
            <AltitudeMeters>56.59999847412109375</AltitudeMeters>
            <DistanceMeters>NAN</DistanceMeters>
          </Trackpoint>
          <Trackpoint>
            <Time>2022-07-07T17:02:41.000Z</Time>
            <Position>
              <LatitudeDegrees>43.49656283855438232421875</LatitudeDegrees>
              <LongitudeDegrees>-1.542812995612621307373046875</LongitudeDegrees>
            </Position>
            <AltitudeMeters>56.799999237060546875</AltitudeMeters>
            <DistanceMeters>NAN</DistanceMeters>
          </Trackpoint>
          <Trackpoint>
            <Time>2022-07-07T17:02:46.000Z</Time>
            <Position>
              <LatitudeDegrees>43.49647994153201580047607421875</LatitudeDegrees>
              <LongitudeDegrees>-1.54288331978023052215576171875</LongitudeDegrees>
            </Position>
            <AltitudeMeters>57.200000762939453125</AltitudeMeters>
            <DistanceMeters>NAN</DistanceMeters>
          </Trackpoint>
          <Trackpoint>
            <Time>2022-07-07T17:02:52.000Z</Time>
            <Position>
              <LatitudeDegrees>43.4963584877550601959228515625</LatitudeDegrees>
              <LongitudeDegrees>-1.5429499559104442596435546875</LongitudeDegrees>
            </Position>
            <AltitudeMeters>58</AltitudeMeters>
            <DistanceMeters>NAN</DistanceMeters>
          </Trackpoint>
          <Trackpoint>
            <Time>2022-07-07T17:02:54.000Z</Time>
            <Position>
              <LatitudeDegrees>43.49632018245756626129150390625</LatitudeDegrees>
              <LongitudeDegrees>-1.54297384433448314666748046875</LongitudeDegrees>
            </Position>
            <AltitudeMeters>58.200000762939453125</AltitudeMeters>
            <DistanceMeters>NAN</DistanceMeters>
          </Trackpoint>
          <Trackpoint>
            <Time>2022-07-07T17:02:55.000Z</Time>
            <Position>
              <LatitudeDegrees>43.4963035024702548980712890625</LatitudeDegrees>
              <LongitudeDegrees>-1.54298440553247928619384765625</LongitudeDegrees>
            </Position>
            <AltitudeMeters>58.59999847412109375</AltitudeMeters>
            <DistanceMeters>NAN</DistanceMeters>
          </Trackpoint>
          <Trackpoint>
            <Time>2022-07-07T17:03:01.000Z</Time>
            <Position>
              <LatitudeDegrees>43.4961861558258533477783203125</LatitudeDegrees>
              <LongitudeDegrees>-1.54303587041795253753662109375</LongitudeDegrees>
            </Position>
            <AltitudeMeters>58.799999237060546875</AltitudeMeters>
            <DistanceMeters>NAN</DistanceMeters>
          </Trackpoint>
          <Trackpoint>
            <Time>2022-07-07T17:03:07.000Z</Time>
            <Position>
              <LatitudeDegrees>43.49606738425791263580322265625</LatitudeDegrees>
              <LongitudeDegrees>-1.543069146573543548583984375</LongitudeDegrees>
            </Position>
            <AltitudeMeters>59.200000762939453125</AltitudeMeters>
            <DistanceMeters>NAN</DistanceMeters>
          </Trackpoint>
          <Trackpoint>
            <Time>2022-07-07T17:03:14.000Z</Time>
            <Position>
              <LatitudeDegrees>43.49592438898980617523193359375</LatitudeDegrees>
              <LongitudeDegrees>-1.54309102334082126617431640625</LongitudeDegrees>
            </Position>
            <AltitudeMeters>59.59999847412109375</AltitudeMeters>
            <DistanceMeters>NAN</DistanceMeters>
          </Trackpoint>
          <Trackpoint>
            <Time>2022-07-07T17:03:16.000Z</Time>
            <Position>
              <LatitudeDegrees>43.49587946198880672454833984375</LatitudeDegrees>
              <LongitudeDegrees>-1.54309152625501155853271484375</LongitudeDegrees>
            </Position>
            <AltitudeMeters>59.799999237060546875</AltitudeMeters>
            <DistanceMeters>NAN</DistanceMeters>
          </Trackpoint>
          <Trackpoint>
            <Time>2022-07-07T17:03:25.000Z</Time>
            <Position>
              <LatitudeDegrees>43.49569774232804775238037109375</LatitudeDegrees>
              <LongitudeDegrees>-1.5430636145174503326416015625</LongitudeDegrees>
            </Position>
            <AltitudeMeters>60.200000762939453125</AltitudeMeters>
            <DistanceMeters>NAN</DistanceMeters>
          </Trackpoint>
          <Trackpoint>
            <Time>2022-07-07T17:03:30.000Z</Time>
            <Position>
              <LatitudeDegrees>43.49557436071336269378662109375</LatitudeDegrees>
              <LongitudeDegrees>-1.54304676689207553863525390625</LongitudeDegrees>
            </Position>
            <AltitudeMeters>60.59999847412109375</AltitudeMeters>
            <DistanceMeters>NAN</DistanceMeters>
          </Trackpoint>
          <Trackpoint>
            <Time>2022-07-07T17:03:32.000Z</Time>
            <Position>
              <LatitudeDegrees>43.4955229796469211578369140625</LatitudeDegrees>
              <LongitudeDegrees>-1.54304274357855319976806640625</LongitudeDegrees>
            </Position>
            <AltitudeMeters>60.59999847412109375</AltitudeMeters>
            <DistanceMeters>NAN</DistanceMeters>
          </Trackpoint>
          <Trackpoint>
            <Time>2022-07-07T17:03:36.000Z</Time>
            <Position>
              <LatitudeDegrees>43.49541376344859600067138671875</LatitudeDegrees>
              <LongitudeDegrees>-1.543024890124797821044921875</LongitudeDegrees>
            </Position>
            <AltitudeMeters>60.59999847412109375</AltitudeMeters>
            <DistanceMeters>NAN</DistanceMeters>
          </Trackpoint>
          <Trackpoint>
            <Time>2022-07-07T17:03:44.000Z</Time>
            <Position>
              <LatitudeDegrees>43.49521025083959102630615234375</LatitudeDegrees>
              <LongitudeDegrees>-1.54297761619091033935546875</LongitudeDegrees>
            </Position>
            <AltitudeMeters>60.59999847412109375</AltitudeMeters>
            <DistanceMeters>NAN</DistanceMeters>
          </Trackpoint>
          <Trackpoint>
            <Time>2022-07-07T17:03:48.000Z</Time>
            <Position>
              <LatitudeDegrees>43.495117463171482086181640625</LatitudeDegrees>
              <LongitudeDegrees>-1.54287435114383697509765625</LongitudeDegrees>
            </Position>
            <AltitudeMeters>60.40000152587890625</AltitudeMeters>
            <DistanceMeters>NAN</DistanceMeters>
          </Trackpoint>
          <Trackpoint>
            <Time>2022-07-07T17:03:49.000Z</Time>
            <Position>
              <LatitudeDegrees>43.49508703686296939849853515625</LatitudeDegrees>
              <LongitudeDegrees>-1.54287032783031463623046875</LongitudeDegrees>
            </Position>
            <AltitudeMeters>60.59999847412109375</AltitudeMeters>
            <DistanceMeters>NAN</DistanceMeters>
          </Trackpoint>
          <Trackpoint>
            <Time>2022-07-07T17:03:57.000Z</Time>
            <Position>
              <LatitudeDegrees>43.49490699358284473419189453125</LatitudeDegrees>
              <LongitudeDegrees>-1.5428540669381618499755859375</LongitudeDegrees>
            </Position>
            <AltitudeMeters>60.59999847412109375</AltitudeMeters>
            <DistanceMeters>NAN</DistanceMeters>
          </Trackpoint>
          <Trackpoint>
            <Time>2022-07-07T17:03:58.000Z</Time>
            <Position>
              <LatitudeDegrees>43.494894169270992279052734375</LatitudeDegrees>
              <LongitudeDegrees>-1.54286085627973079681396484375</LongitudeDegrees>
            </Position>
            <AltitudeMeters>60.59999847412109375</AltitudeMeters>
            <DistanceMeters>NAN</DistanceMeters>
          </Trackpoint>
          <Trackpoint>
            <Time>2022-07-07T17:04:02.000Z</Time>
            <Position>
              <LatitudeDegrees>43.4948410280048847198486328125</LatitudeDegrees>
              <LongitudeDegrees>-1.54297535307705402374267578125</LongitudeDegrees>
            </Position>
            <AltitudeMeters>60.59999847412109375</AltitudeMeters>
            <DistanceMeters>NAN</DistanceMeters>
          </Trackpoint>
          <Trackpoint>
            <Time>2022-07-07T17:04:08.000Z</Time>
            <Position>
              <LatitudeDegrees>43.49474522285163402557373046875</LatitudeDegrees>
              <LongitudeDegrees>-1.54319361783564090728759765625</LongitudeDegrees>
            </Position>
            <AltitudeMeters>60.799999237060546875</AltitudeMeters>
            <DistanceMeters>NAN</DistanceMeters>
          </Trackpoint>
          <Trackpoint>
            <Time>2022-07-07T17:04:12.000Z</Time>
            <Position>
              <LatitudeDegrees>43.494696356356143951416015625</LatitudeDegrees>
              <LongitudeDegrees>-1.54333275742828845977783203125</LongitudeDegrees>
            </Position>
            <AltitudeMeters>61</AltitudeMeters>
            <DistanceMeters>NAN</DistanceMeters>
          </Trackpoint>
          <Trackpoint>
            <Time>2022-07-07T17:04:16.000Z</Time>
            <Position>
              <LatitudeDegrees>43.494642041623592376708984375</LatitudeDegrees>
              <LongitudeDegrees>-1.54346301220357418060302734375</LongitudeDegrees>
            </Position>
            <AltitudeMeters>61.59999847412109375</AltitudeMeters>
            <DistanceMeters>NAN</DistanceMeters>
          </Trackpoint>
          <Trackpoint>
            <Time>2022-07-07T17:04:17.000Z</Time>
            <Position>
              <LatitudeDegrees>43.49462770856916904449462890625</LatitudeDegrees>
              <LongitudeDegrees>-1.54349637217819690704345703125</LongitudeDegrees>
            </Position>
            <AltitudeMeters>61.59999847412109375</AltitudeMeters>
            <DistanceMeters>NAN</DistanceMeters>
          </Trackpoint>
          <Trackpoint>
            <Time>2022-07-07T17:04:21.000Z</Time>
            <Position>
              <LatitudeDegrees>43.49458177573978900909423828125</LatitudeDegrees>
              <LongitudeDegrees>-1.54363182373344898223876953125</LongitudeDegrees>
            </Position>
            <AltitudeMeters>62</AltitudeMeters>
            <DistanceMeters>NAN</DistanceMeters>
          </Trackpoint>
          <Trackpoint>
            <Time>2022-07-07T17:04:24.000Z</Time>
            <Position>
              <LatitudeDegrees>43.49455042742192745208740234375</LatitudeDegrees>
              <LongitudeDegrees>-1.54371983371675014495849609375</LongitudeDegrees>
            </Position>
            <AltitudeMeters>62</AltitudeMeters>
            <DistanceMeters>NAN</DistanceMeters>
          </Trackpoint>
          <Trackpoint>
            <Time>2022-07-07T17:04:25.000Z</Time>
            <Position>
              <LatitudeDegrees>43.49455143325030803680419921875</LatitudeDegrees>
              <LongitudeDegrees>-1.54374162666499614715576171875</LongitudeDegrees>
            </Position>
            <AltitudeMeters>61.799999237060546875</AltitudeMeters>
            <DistanceMeters>NAN</DistanceMeters>
          </Trackpoint>
          <Trackpoint>
            <Time>2022-07-07T17:04:26.000Z</Time>
            <Position>
              <LatitudeDegrees>43.4945624135434627532958984375</LatitudeDegrees>
              <LongitudeDegrees>-1.54375453479588031768798828125</LongitudeDegrees>
            </Position>
            <AltitudeMeters>61.799999237060546875</AltitudeMeters>
            <DistanceMeters>NAN</DistanceMeters>
          </Trackpoint>
          <Trackpoint>
            <Time>2022-07-07T17:04:27.000Z</Time>
            <Position>
              <LatitudeDegrees>43.49457607604563236236572265625</LatitudeDegrees>
              <LongitudeDegrees>-1.543764509260654449462890625</LongitudeDegrees>
            </Position>
            <AltitudeMeters>62</AltitudeMeters>
            <DistanceMeters>NAN</DistanceMeters>
          </Trackpoint>
          <Trackpoint>
            <Time>2022-07-07T17:04:28.000Z</Time>
            <Position>
              <LatitudeDegrees>43.494589738547801971435546875</LatitudeDegrees>
              <LongitudeDegrees>-1.54377733357250690460205078125</LongitudeDegrees>
            </Position>
            <AltitudeMeters>62</AltitudeMeters>
            <DistanceMeters>NAN</DistanceMeters>
          </Trackpoint>
          <Trackpoint>
            <Time>2022-07-07T17:04:30.000Z</Time>
            <Position>
              <LatitudeDegrees>43.49460549652576446533203125</LatitudeDegrees>
              <LongitudeDegrees>-1.543834246695041656494140625</LongitudeDegrees>
            </Position>
            <AltitudeMeters>62.200000762939453125</AltitudeMeters>
            <DistanceMeters>NAN</DistanceMeters>
          </Trackpoint>
          <Trackpoint>
            <Time>2022-07-07T17:04:31.000Z</Time>
            <Position>
              <LatitudeDegrees>43.49459837190806865692138671875</LatitudeDegrees>
              <LongitudeDegrees>-1.5438649244606494903564453125</LongitudeDegrees>
            </Position>
            <AltitudeMeters>62.200000762939453125</AltitudeMeters>
            <DistanceMeters>NAN</DistanceMeters>
          </Trackpoint>
          <Trackpoint>
            <Time>2022-07-07T17:04:34.000Z</Time>
            <Position>
              <LatitudeDegrees>43.49456232972443103790283203125</LatitudeDegrees>
              <LongitudeDegrees>-1.543951928615570068359375</LongitudeDegrees>
            </Position>
            <AltitudeMeters>62.59999847412109375</AltitudeMeters>
            <DistanceMeters>NAN</DistanceMeters>
          </Trackpoint>
          <Trackpoint>
            <Time>2022-07-07T17:04:35.000Z</Time>
            <Position>
              <LatitudeDegrees>43.4945498406887054443359375</LatitudeDegrees>
              <LongitudeDegrees>-1.5439774096012115478515625</LongitudeDegrees>
            </Position>
            <AltitudeMeters>62.59999847412109375</AltitudeMeters>
            <DistanceMeters>NAN</DistanceMeters>
          </Trackpoint>
          <Trackpoint>
            <Time>2022-07-07T17:04:36.000Z</Time>
            <Position>
              <LatitudeDegrees>43.4945469908416271209716796875</LatitudeDegrees>
              <LongitudeDegrees>-1.54400884173810482025146484375</LongitudeDegrees>
            </Position>
            <AltitudeMeters>62.799999237060546875</AltitudeMeters>
            <DistanceMeters>NAN</DistanceMeters>
          </Trackpoint>
          <Trackpoint>
            <Time>2022-07-07T17:04:41.000Z</Time>
            <Position>
              <LatitudeDegrees>43.494478426873683929443359375</LatitudeDegrees>
              <LongitudeDegrees>-1.544139683246612548828125</LongitudeDegrees>
            </Position>
            <AltitudeMeters>63.200000762939453125</AltitudeMeters>
            <DistanceMeters>NAN</DistanceMeters>
          </Trackpoint>
          <Trackpoint>
            <Time>2022-07-07T17:04:44.000Z</Time>
            <Position>
              <LatitudeDegrees>43.4944293089210987091064453125</LatitudeDegrees>
              <LongitudeDegrees>-1.54420011676847934722900390625</LongitudeDegrees>
            </Position>
            <AltitudeMeters>63.200000762939453125</AltitudeMeters>
            <DistanceMeters>NAN</DistanceMeters>
          </Trackpoint>
          <Trackpoint>
            <Time>2022-07-07T17:04:51.000Z</Time>
            <Position>
              <LatitudeDegrees>43.49429695867002010345458984375</LatitudeDegrees>
              <LongitudeDegrees>-1.5443770587444305419921875</LongitudeDegrees>
            </Position>
            <AltitudeMeters>63.40000152587890625</AltitudeMeters>
            <DistanceMeters>NAN</DistanceMeters>
          </Trackpoint>
          <Trackpoint>
            <Time>2022-07-07T17:04:59.000Z</Time>
            <Position>
              <LatitudeDegrees>43.494151532649993896484375</LatitudeDegrees>
              <LongitudeDegrees>-1.5446042083203792572021484375</LongitudeDegrees>
            </Position>
            <AltitudeMeters>63.40000152587890625</AltitudeMeters>
            <DistanceMeters>NAN</DistanceMeters>
          </Trackpoint>
          <Trackpoint>
            <Time>2022-07-07T17:05:03.000Z</Time>
            <Position>
              <LatitudeDegrees>43.4940776042640209197998046875</LatitudeDegrees>
              <LongitudeDegrees>-1.544738151133060455322265625</LongitudeDegrees>
            </Position>
            <AltitudeMeters>64</AltitudeMeters>
            <DistanceMeters>NAN</DistanceMeters>
          </Trackpoint>
          <Trackpoint>
            <Time>2022-07-07T17:05:07.000Z</Time>
            <Position>
              <LatitudeDegrees>43.49401281215250492095947265625</LatitudeDegrees>
              <LongitudeDegrees>-1.54487502761185169219970703125</LongitudeDegrees>
            </Position>
            <AltitudeMeters>64</AltitudeMeters>
            <DistanceMeters>NAN</DistanceMeters>
          </Trackpoint>
          <Trackpoint>
            <Time>2022-07-07T17:05:08.000Z</Time>
            <Position>
              <LatitudeDegrees>43.493997640907764434814453125</LatitudeDegrees>
              <LongitudeDegrees>-1.54490972869098186492919921875</LongitudeDegrees>
            </Position>
            <AltitudeMeters>64</AltitudeMeters>
            <DistanceMeters>NAN</DistanceMeters>
          </Trackpoint>
          <Trackpoint>
            <Time>2022-07-07T17:05:15.000Z</Time>
            <Position>
              <LatitudeDegrees>43.49389663897454738616943359375</LatitudeDegrees>
              <LongitudeDegrees>-1.5451429970562458038330078125</LongitudeDegrees>
            </Position>
            <AltitudeMeters>64.1999969482421875</AltitudeMeters>
            <DistanceMeters>NAN</DistanceMeters>
          </Trackpoint>
          <Trackpoint>
            <Time>2022-07-07T17:05:24.000Z</Time>
            <Position>
              <LatitudeDegrees>43.4937225468456745147705078125</LatitudeDegrees>
              <LongitudeDegrees>-1.545394621789455413818359375</LongitudeDegrees>
            </Position>
            <AltitudeMeters>64.59999847412109375</AltitudeMeters>
            <DistanceMeters>NAN</DistanceMeters>
          </Trackpoint>
          <Trackpoint>
            <Time>2022-07-07T17:05:30.000Z</Time>
            <Position>
              <LatitudeDegrees>43.49363193847239017486572265625</LatitudeDegrees>
              <LongitudeDegrees>-1.5455791912972927093505859375</LongitudeDegrees>
            </Position>
            <AltitudeMeters>64.59999847412109375</AltitudeMeters>
            <DistanceMeters>NAN</DistanceMeters>
          </Trackpoint>
          <Trackpoint>
            <Time>2022-07-07T17:05:36.000Z</Time>
            <Position>
              <LatitudeDegrees>43.493530936539173126220703125</LatitudeDegrees>
              <LongitudeDegrees>-1.545760072767734527587890625</LongitudeDegrees>
            </Position>
            <AltitudeMeters>64.59999847412109375</AltitudeMeters>
            <DistanceMeters>NAN</DistanceMeters>
          </Trackpoint>
          <Trackpoint>
            <Time>2022-07-07T17:05:41.000Z</Time>
            <Position>
              <LatitudeDegrees>43.49340897984802722930908203125</LatitudeDegrees>
              <LongitudeDegrees>-1.54587213881313800811767578125</LongitudeDegrees>
            </Position>
            <AltitudeMeters>65</AltitudeMeters>
            <DistanceMeters>NAN</DistanceMeters>
          </Trackpoint>
          <Trackpoint>
            <Time>2022-07-07T17:05:42.000Z</Time>
            <Position>
              <LatitudeDegrees>43.4933882765471935272216796875</LatitudeDegrees>
              <LongitudeDegrees>-1.5459080971777439117431640625</LongitudeDegrees>
            </Position>
            <AltitudeMeters>65.1999969482421875</AltitudeMeters>
            <DistanceMeters>NAN</DistanceMeters>
          </Trackpoint>
          <Trackpoint>
            <Time>2022-07-07T17:05:47.000Z</Time>
            <Position>
              <LatitudeDegrees>43.49328828044235706329345703125</LatitudeDegrees>
              <LongitudeDegrees>-1.546097695827484130859375</LongitudeDegrees>
            </Position>
            <AltitudeMeters>65.40000152587890625</AltitudeMeters>
            <DistanceMeters>NAN</DistanceMeters>
          </Trackpoint>
          <Trackpoint>
            <Time>2022-07-07T17:05:49.000Z</Time>
            <Position>
              <LatitudeDegrees>43.4932462871074676513671875</LatitudeDegrees>
              <LongitudeDegrees>-1.546183526515960693359375</LongitudeDegrees>
            </Position>
            <AltitudeMeters>65.40000152587890625</AltitudeMeters>
            <DistanceMeters>NAN</DistanceMeters>
          </Trackpoint>
          <Trackpoint>
            <Time>2022-07-07T17:05:55.000Z</Time>
            <Position>
              <LatitudeDegrees>43.4931156970560550689697265625</LatitudeDegrees>
              <LongitudeDegrees>-1.54643020592629909515380859375</LongitudeDegrees>
            </Position>
            <AltitudeMeters>65.40000152587890625</AltitudeMeters>
            <DistanceMeters>NAN</DistanceMeters>
          </Trackpoint>
          <Trackpoint>
            <Time>2022-07-07T17:06:01.000Z</Time>
            <Position>
              <LatitudeDegrees>43.49297446198761463165283203125</LatitudeDegrees>
              <LongitudeDegrees>-1.546691469848155975341796875</LongitudeDegrees>
            </Position>
            <AltitudeMeters>65.59999847412109375</AltitudeMeters>
            <DistanceMeters>NAN</DistanceMeters>
          </Trackpoint>
          <Trackpoint>
            <Time>2022-07-07T17:06:08.000Z</Time>
            <Position>
              <LatitudeDegrees>43.49283381365239620208740234375</LatitudeDegrees>
              <LongitudeDegrees>-1.5469668991863727569580078125</LongitudeDegrees>
            </Position>
            <AltitudeMeters>65.8000030517578125</AltitudeMeters>
            <DistanceMeters>NAN</DistanceMeters>
          </Trackpoint>
          <Trackpoint>
            <Time>2022-07-07T17:06:16.000Z</Time>
            <Position>
              <LatitudeDegrees>43.4927069954574108123779296875</LatitudeDegrees>
              <LongitudeDegrees>-1.54724040068686008453369140625</LongitudeDegrees>
            </Position>
            <AltitudeMeters>65.8000030517578125</AltitudeMeters>
            <DistanceMeters>NAN</DistanceMeters>
          </Trackpoint>
          <Trackpoint>
            <Time>2022-07-07T17:06:25.000Z</Time>
            <Position>
              <LatitudeDegrees>43.49261957220733165740966796875</LatitudeDegrees>
              <LongitudeDegrees>-1.54755346477031707763671875</LongitudeDegrees>
            </Position>
            <AltitudeMeters>65</AltitudeMeters>
            <DistanceMeters>NAN</DistanceMeters>
          </Trackpoint>
          <Trackpoint>
            <Time>2022-07-07T17:06:32.000Z</Time>
            <Position>
              <LatitudeDegrees>43.4925826080143451690673828125</LatitudeDegrees>
              <LongitudeDegrees>-1.5478600747883319854736328125</LongitudeDegrees>
            </Position>
            <AltitudeMeters>64.8000030517578125</AltitudeMeters>
            <DistanceMeters>NAN</DistanceMeters>
          </Trackpoint>
          <Trackpoint>
            <Time>2022-07-07T17:06:39.000Z</Time>
            <Position>
              <LatitudeDegrees>43.4925517626106739044189453125</LatitudeDegrees>
              <LongitudeDegrees>-1.54820884577929973602294921875</LongitudeDegrees>
            </Position>
            <AltitudeMeters>64.8000030517578125</AltitudeMeters>
            <DistanceMeters>NAN</DistanceMeters>
          </Trackpoint>
          <Trackpoint>
            <Time>2022-07-07T17:06:48.000Z</Time>
            <Position>
              <LatitudeDegrees>43.49249568767845630645751953125</LatitudeDegrees>
              <LongitudeDegrees>-1.548645459115505218505859375</LongitudeDegrees>
            </Position>
            <AltitudeMeters>65.59999847412109375</AltitudeMeters>
            <DistanceMeters>NAN</DistanceMeters>
          </Trackpoint>
          <Trackpoint>
            <Time>2022-07-07T17:06:54.000Z</Time>
            <Position>
              <LatitudeDegrees>43.49245662800967693328857421875</LatitudeDegrees>
              <LongitudeDegrees>-1.54898501001298427581787109375</LongitudeDegrees>
            </Position>
            <AltitudeMeters>65</AltitudeMeters>
            <DistanceMeters>NAN</DistanceMeters>
          </Trackpoint>
          <Trackpoint>
            <Time>2022-07-07T17:06:55.000Z</Time>
            <Position>
              <LatitudeDegrees>43.49244958721101284027099609375</LatitudeDegrees>
              <LongitudeDegrees>-1.54904745519161224365234375</LongitudeDegrees>
            </Position>
            <AltitudeMeters>64.8000030517578125</AltitudeMeters>
            <DistanceMeters>NAN</DistanceMeters>
          </Trackpoint>
          <Trackpoint>
            <Time>2022-07-07T17:06:56.000Z</Time>
            <Position>
              <LatitudeDegrees>43.4924416244029998779296875</LatitudeDegrees>
              <LongitudeDegrees>-1.54910537414252758026123046875</LongitudeDegrees>
            </Position>
            <AltitudeMeters>64.8000030517578125</AltitudeMeters>
            <DistanceMeters>NAN</DistanceMeters>
          </Trackpoint>
          <Trackpoint>
            <Time>2022-07-07T17:06:59.000Z</Time>
            <Position>
              <LatitudeDegrees>43.4924129582941532135009765625</LatitudeDegrees>
              <LongitudeDegrees>-1.54928105883300304412841796875</LongitudeDegrees>
            </Position>
            <AltitudeMeters>64.8000030517578125</AltitudeMeters>
            <DistanceMeters>NAN</DistanceMeters>
          </Trackpoint>
          <Trackpoint>
            <Time>2022-07-07T17:07:01.000Z</Time>
            <Position>
              <LatitudeDegrees>43.49239594303071498870849609375</LatitudeDegrees>
              <LongitudeDegrees>-1.54940242879092693328857421875</LongitudeDegrees>
            </Position>
            <AltitudeMeters>64.8000030517578125</AltitudeMeters>
            <DistanceMeters>NAN</DistanceMeters>
          </Trackpoint>
          <Trackpoint>
            <Time>2022-07-07T17:07:02.000Z</Time>
            <Position>
              <LatitudeDegrees>43.4923891536891460418701171875</LatitudeDegrees>
              <LongitudeDegrees>-1.54946445487439632415771484375</LongitudeDegrees>
            </Position>
            <AltitudeMeters>64.59999847412109375</AltitudeMeters>
            <DistanceMeters>NAN</DistanceMeters>
          </Trackpoint>
          <Trackpoint>
            <Time>2022-07-07T17:07:04.000Z</Time>
            <Position>
              <LatitudeDegrees>43.4923784248530864715576171875</LatitudeDegrees>
              <LongitudeDegrees>-1.54959328472614288330078125</LongitudeDegrees>
            </Position>
            <AltitudeMeters>64.40000152587890625</AltitudeMeters>
            <DistanceMeters>NAN</DistanceMeters>
          </Trackpoint>
          <Trackpoint>
            <Time>2022-07-07T17:07:08.000Z</Time>
            <Position>
              <LatitudeDegrees>43.49234464578330516815185546875</LatitudeDegrees>
              <LongitudeDegrees>-1.549852788448333740234375</LongitudeDegrees>
            </Position>
            <AltitudeMeters>64.1999969482421875</AltitudeMeters>
            <DistanceMeters>NAN</DistanceMeters>
          </Trackpoint>
          <Trackpoint>
            <Time>2022-07-07T17:07:11.000Z</Time>
            <Position>
              <LatitudeDegrees>43.49232536740601062774658203125</LatitudeDegrees>
              <LongitudeDegrees>-1.550057642161846160888671875</LongitudeDegrees>
            </Position>
            <AltitudeMeters>64.1999969482421875</AltitudeMeters>
            <DistanceMeters>NAN</DistanceMeters>
          </Trackpoint>
          <Trackpoint>
            <Time>2022-07-07T17:07:12.000Z</Time>
            <Position>
              <LatitudeDegrees>43.49231497384607791900634765625</LatitudeDegrees>
              <LongitudeDegrees>-1.55012276954948902130126953125</LongitudeDegrees>
            </Position>
            <AltitudeMeters>64</AltitudeMeters>
            <DistanceMeters>NAN</DistanceMeters>
          </Trackpoint>
          <Trackpoint>
            <Time>2022-07-07T17:07:14.000Z</Time>
            <Position>
              <LatitudeDegrees>43.49229703657329082489013671875</LatitudeDegrees>
              <LongitudeDegrees>-1.55025218613445758819580078125</LongitudeDegrees>
            </Position>
            <AltitudeMeters>63.799999237060546875</AltitudeMeters>
            <DistanceMeters>NAN</DistanceMeters>
          </Trackpoint>
          <Trackpoint>
            <Time>2022-07-07T17:07:15.000Z</Time>
            <Position>
              <LatitudeDegrees>43.49228404462337493896484375</LatitudeDegrees>
              <LongitudeDegrees>-1.5503169782459735870361328125</LongitudeDegrees>
            </Position>
            <AltitudeMeters>63.59999847412109375</AltitudeMeters>
            <DistanceMeters>NAN</DistanceMeters>
          </Trackpoint>
          <Trackpoint>
            <Time>2022-07-07T17:07:16.000Z</Time>
            <Position>
              <LatitudeDegrees>43.49227038212120532989501953125</LatitudeDegrees>
              <LongitudeDegrees>-1.550380177795886993408203125</LongitudeDegrees>
            </Position>
            <AltitudeMeters>63.40000152587890625</AltitudeMeters>
            <DistanceMeters>NAN</DistanceMeters>
          </Trackpoint>
          <Trackpoint>
            <Time>2022-07-07T17:07:19.000Z</Time>
            <Position>
              <LatitudeDegrees>43.492242135107517242431640625</LatitudeDegrees>
              <LongitudeDegrees>-1.55058360658586025238037109375</LongitudeDegrees>
            </Position>
            <AltitudeMeters>63</AltitudeMeters>
            <DistanceMeters>NAN</DistanceMeters>
          </Trackpoint>
          <Trackpoint>
            <Time>2022-07-07T17:07:25.000Z</Time>
            <Position>
              <LatitudeDegrees>43.4921544604003429412841796875</LatitudeDegrees>
              <LongitudeDegrees>-1.5509650669991970062255859375</LongitudeDegrees>
            </Position>
            <AltitudeMeters>62.40000152587890625</AltitudeMeters>
            <DistanceMeters>NAN</DistanceMeters>
          </Trackpoint>
          <Trackpoint>
            <Time>2022-07-07T17:07:26.000Z</Time>
            <Position>
              <LatitudeDegrees>43.4921371936798095703125</LatitudeDegrees>
              <LongitudeDegrees>-1.55102868564426898956298828125</LongitudeDegrees>
            </Position>
            <AltitudeMeters>62.40000152587890625</AltitudeMeters>
            <DistanceMeters>NAN</DistanceMeters>
          </Trackpoint>
          <Trackpoint>
            <Time>2022-07-07T17:07:29.000Z</Time>
            <Position>
              <LatitudeDegrees>43.49207709543406963348388671875</LatitudeDegrees>
              <LongitudeDegrees>-1.551212333142757415771484375</LongitudeDegrees>
            </Position>
            <AltitudeMeters>61.799999237060546875</AltitudeMeters>
            <DistanceMeters>NAN</DistanceMeters>
          </Trackpoint>
          <Trackpoint>
            <Time>2022-07-07T17:07:33.000Z</Time>
            <Position>
              <LatitudeDegrees>43.49196846596896648406982421875</LatitudeDegrees>
              <LongitudeDegrees>-1.55142582021653652191162109375</LongitudeDegrees>
            </Position>
            <AltitudeMeters>61.40000152587890625</AltitudeMeters>
            <DistanceMeters>NAN</DistanceMeters>
          </Trackpoint>
          <Trackpoint>
            <Time>2022-07-07T17:07:38.000Z</Time>
            <Position>
              <LatitudeDegrees>43.49181868135929107666015625</LatitudeDegrees>
              <LongitudeDegrees>-1.55163117684423923492431640625</LongitudeDegrees>
            </Position>
            <AltitudeMeters>61.200000762939453125</AltitudeMeters>
            <DistanceMeters>NAN</DistanceMeters>
          </Trackpoint>
          <Trackpoint>
            <Time>2022-07-07T17:07:40.000Z</Time>
            <Position>
              <LatitudeDegrees>43.491749949753284454345703125</LatitudeDegrees>
              <LongitudeDegrees>-1.551698483526706695556640625</LongitudeDegrees>
            </Position>
            <AltitudeMeters>61</AltitudeMeters>
            <DistanceMeters>NAN</DistanceMeters>
          </Trackpoint>
          <Trackpoint>
            <Time>2022-07-07T17:07:41.000Z</Time>
            <Position>
              <LatitudeDegrees>43.49172237329185009002685546875</LatitudeDegrees>
              <LongitudeDegrees>-1.5517330169677734375</LongitudeDegrees>
            </Position>
            <AltitudeMeters>61</AltitudeMeters>
            <DistanceMeters>NAN</DistanceMeters>
          </Trackpoint>
          <Trackpoint>
            <Time>2022-07-07T17:07:43.000Z</Time>
            <Position>
              <LatitudeDegrees>43.49170393310487270355224609375</LatitudeDegrees>
              <LongitudeDegrees>-1.55181406997144222259521484375</LongitudeDegrees>
            </Position>
            <AltitudeMeters>60.799999237060546875</AltitudeMeters>
            <DistanceMeters>NAN</DistanceMeters>
          </Trackpoint>
          <Trackpoint>
            <Time>2022-07-07T17:07:44.000Z</Time>
            <Position>
              <LatitudeDegrees>43.4917075373232364654541015625</LatitudeDegrees>
              <LongitudeDegrees>-1.551847346127033233642578125</LongitudeDegrees>
            </Position>
            <AltitudeMeters>60.799999237060546875</AltitudeMeters>
            <DistanceMeters>NAN</DistanceMeters>
          </Trackpoint>
          <Trackpoint>
            <Time>2022-07-07T17:07:46.000Z</Time>
            <Position>
              <LatitudeDegrees>43.49174626171588897705078125</LatitudeDegrees>
              <LongitudeDegrees>-1.551883555948734283447265625</LongitudeDegrees>
            </Position>
            <AltitudeMeters>60.59999847412109375</AltitudeMeters>
            <DistanceMeters>NAN</DistanceMeters>
          </Trackpoint>
          <Trackpoint>
            <Time>2022-07-07T17:07:47.000Z</Time>
            <Position>
              <LatitudeDegrees>43.4917769394814968109130859375</LatitudeDegrees>
              <LongitudeDegrees>-1.55187961645424365997314453125</LongitudeDegrees>
            </Position>
            <AltitudeMeters>60.40000152587890625</AltitudeMeters>
            <DistanceMeters>NAN</DistanceMeters>
          </Trackpoint>
          <Trackpoint>
            <Time>2022-07-07T17:07:53.000Z</Time>
            <Position>
              <LatitudeDegrees>43.491983972489833831787109375</LatitudeDegrees>
              <LongitudeDegrees>-1.5518786944448947906494140625</LongitudeDegrees>
            </Position>
            <AltitudeMeters>60.59999847412109375</AltitudeMeters>
            <DistanceMeters>NAN</DistanceMeters>
          </Trackpoint>
          <Trackpoint>
            <Time>2022-07-07T17:07:58.000Z</Time>
            <Position>
              <LatitudeDegrees>43.49216493777930736541748046875</LatitudeDegrees>
              <LongitudeDegrees>-1.5519816242158412933349609375</LongitudeDegrees>
            </Position>
            <AltitudeMeters>60.799999237060546875</AltitudeMeters>
            <DistanceMeters>NAN</DistanceMeters>
          </Trackpoint>
          <Trackpoint>
            <Time>2022-07-07T17:08:00.000Z</Time>
            <Position>
              <LatitudeDegrees>43.49223685450851917266845703125</LatitudeDegrees>
              <LongitudeDegrees>-1.55204390175640583038330078125</LongitudeDegrees>
            </Position>
            <AltitudeMeters>60.40000152587890625</AltitudeMeters>
            <DistanceMeters>NAN</DistanceMeters>
          </Trackpoint>
          <Trackpoint>
            <Time>2022-07-07T17:08:03.000Z</Time>
            <Position>
              <LatitudeDegrees>43.49234095774590969085693359375</LatitudeDegrees>
              <LongitudeDegrees>-1.55215957202017307281494140625</LongitudeDegrees>
            </Position>
            <AltitudeMeters>60.200000762939453125</AltitudeMeters>
            <DistanceMeters>NAN</DistanceMeters>
          </Trackpoint>
          <Trackpoint>
            <Time>2022-07-07T17:08:06.000Z</Time>
            <Position>
              <LatitudeDegrees>43.49241438321769237518310546875</LatitudeDegrees>
              <LongitudeDegrees>-1.55225881375372409820556640625</LongitudeDegrees>
            </Position>
            <AltitudeMeters>60</AltitudeMeters>
            <DistanceMeters>NAN</DistanceMeters>
          </Trackpoint>
          <Trackpoint>
            <Time>2022-07-07T17:08:10.000Z</Time>
            <Position>
              <LatitudeDegrees>43.49253558553755283355712890625</LatitudeDegrees>
              <LongitudeDegrees>-1.55238680541515350341796875</LongitudeDegrees>
            </Position>
            <AltitudeMeters>59.799999237060546875</AltitudeMeters>
            <DistanceMeters>NAN</DistanceMeters>
          </Trackpoint>
          <Trackpoint>
            <Time>2022-07-07T17:08:16.000Z</Time>
            <Position>
              <LatitudeDegrees>43.49272392690181732177734375</LatitudeDegrees>
              <LongitudeDegrees>-1.5525363385677337646484375</LongitudeDegrees>
            </Position>
            <AltitudeMeters>60</AltitudeMeters>
            <DistanceMeters>NAN</DistanceMeters>
          </Trackpoint>
          <Trackpoint>
            <Time>2022-07-07T17:08:21.000Z</Time>
            <Position>
              <LatitudeDegrees>43.49289097823202610015869140625</LatitudeDegrees>
              <LongitudeDegrees>-1.5525857917964458465576171875</LongitudeDegrees>
            </Position>
            <AltitudeMeters>59.799999237060546875</AltitudeMeters>
            <DistanceMeters>NAN</DistanceMeters>
          </Trackpoint>
          <Trackpoint>
            <Time>2022-07-07T17:08:24.000Z</Time>
            <Position>
              <LatitudeDegrees>43.493000529706478118896484375</LatitudeDegrees>
              <LongitudeDegrees>-1.5525891445577144622802734375</LongitudeDegrees>
            </Position>
            <AltitudeMeters>59.200000762939453125</AltitudeMeters>
            <DistanceMeters>NAN</DistanceMeters>
          </Trackpoint>
          <Trackpoint>
            <Time>2022-07-07T17:08:28.000Z</Time>
            <Position>
              <LatitudeDegrees>43.4931338019669055938720703125</LatitudeDegrees>
              <LongitudeDegrees>-1.552625857293605804443359375</LongitudeDegrees>
            </Position>
            <AltitudeMeters>58.59999847412109375</AltitudeMeters>
            <DistanceMeters>NAN</DistanceMeters>
          </Trackpoint>
          <Trackpoint>
            <Time>2022-07-07T17:08:30.000Z</Time>
            <Position>
              <LatitudeDegrees>43.49319758825004100799560546875</LatitudeDegrees>
              <LongitudeDegrees>-1.552677489817142486572265625</LongitudeDegrees>
            </Position>
            <AltitudeMeters>58.40000152587890625</AltitudeMeters>
            <DistanceMeters>NAN</DistanceMeters>
          </Trackpoint>
          <Trackpoint>
            <Time>2022-07-07T17:08:34.000Z</Time>
            <Position>
              <LatitudeDegrees>43.49329163320362567901611328125</LatitudeDegrees>
              <LongitudeDegrees>-1.55279450118541717529296875</LongitudeDegrees>
            </Position>
            <AltitudeMeters>57.59999847412109375</AltitudeMeters>
            <DistanceMeters>NAN</DistanceMeters>
          </Trackpoint>
          <Trackpoint>
            <Time>2022-07-07T17:08:36.000Z</Time>
            <Position>
              <LatitudeDegrees>43.4933171980082988739013671875</LatitudeDegrees>
              <LongitudeDegrees>-1.55285644344985485076904296875</LongitudeDegrees>
            </Position>
            <AltitudeMeters>57.200000762939453125</AltitudeMeters>
            <DistanceMeters>NAN</DistanceMeters>
          </Trackpoint>
          <Trackpoint>
            <Time>2022-07-07T17:08:39.000Z</Time>
            <Position>
              <LatitudeDegrees>43.49335491657257080078125</LatitudeDegrees>
              <LongitudeDegrees>-1.5529386699199676513671875</LongitudeDegrees>
            </Position>
            <AltitudeMeters>56.59999847412109375</AltitudeMeters>
            <DistanceMeters>NAN</DistanceMeters>
          </Trackpoint>
          <Trackpoint>
            <Time>2022-07-07T17:08:42.000Z</Time>
            <Position>
              <LatitudeDegrees>43.493380062282085418701171875</LatitudeDegrees>
              <LongitudeDegrees>-1.55300379730761051177978515625</LongitudeDegrees>
            </Position>
            <AltitudeMeters>56</AltitudeMeters>
            <DistanceMeters>NAN</DistanceMeters>
          </Trackpoint>
          <Trackpoint>
            <Time>2022-07-07T17:08:43.000Z</Time>
            <Position>
              <LatitudeDegrees>43.4933884441852569580078125</LatitudeDegrees>
              <LongitudeDegrees>-1.55302517116069793701171875</LongitudeDegrees>
            </Position>
            <AltitudeMeters>56</AltitudeMeters>
            <DistanceMeters>NAN</DistanceMeters>
          </Trackpoint>
          <Trackpoint>
            <Time>2022-07-07T17:08:46.000Z</Time>
            <Position>
              <LatitudeDegrees>43.493398167192935943603515625</LatitudeDegrees>
              <LongitudeDegrees>-1.5531007759273052215576171875</LongitudeDegrees>
            </Position>
            <AltitudeMeters>55.40000152587890625</AltitudeMeters>
            <DistanceMeters>NAN</DistanceMeters>
          </Trackpoint>
          <Trackpoint>
            <Time>2022-07-07T17:08:47.000Z</Time>
            <Position>
              <LatitudeDegrees>43.4934036992490291595458984375</LatitudeDegrees>
              <LongitudeDegrees>-1.55312567017972469329833984375</LongitudeDegrees>
            </Position>
            <AltitudeMeters>55.200000762939453125</AltitudeMeters>
            <DistanceMeters>NAN</DistanceMeters>
          </Trackpoint>
          <Trackpoint>
            <Time>2022-07-07T17:08:51.000Z</Time>
            <Position>
              <LatitudeDegrees>43.493457846343517303466796875</LatitudeDegrees>
              <LongitudeDegrees>-1.55324402265250682830810546875</LongitudeDegrees>
            </Position>
            <AltitudeMeters>54.40000152587890625</AltitudeMeters>
            <DistanceMeters>NAN</DistanceMeters>
          </Trackpoint>
          <Trackpoint>
            <Time>2022-07-07T17:08:53.000Z</Time>
            <Position>
              <LatitudeDegrees>43.4934935532510280609130859375</LatitudeDegrees>
              <LongitudeDegrees>-1.55332666821777820587158203125</LongitudeDegrees>
            </Position>
            <AltitudeMeters>53.799999237060546875</AltitudeMeters>
            <DistanceMeters>NAN</DistanceMeters>
          </Trackpoint>
          <Trackpoint>
            <Time>2022-07-07T17:08:55.000Z</Time>
            <Position>
              <LatitudeDegrees>43.493536300957202911376953125</LatitudeDegrees>
              <LongitudeDegrees>-1.5534132532775402069091796875</LongitudeDegrees>
            </Position>
            <AltitudeMeters>53.200000762939453125</AltitudeMeters>
            <DistanceMeters>NAN</DistanceMeters>
          </Trackpoint>
          <Trackpoint>
            <Time>2022-07-07T17:08:58.000Z</Time>
            <Position>
              <LatitudeDegrees>43.49361307919025421142578125</LatitudeDegrees>
              <LongitudeDegrees>-1.5534883551299571990966796875</LongitudeDegrees>
            </Position>
            <AltitudeMeters>52.40000152587890625</AltitudeMeters>
            <DistanceMeters>NAN</DistanceMeters>
          </Trackpoint>
          <Trackpoint>
            <Time>2022-07-07T17:09:00.000Z</Time>
            <Position>
              <LatitudeDegrees>43.49368189461529254913330078125</LatitudeDegrees>
              <LongitudeDegrees>-1.5534992516040802001953125</LongitudeDegrees>
            </Position>
            <AltitudeMeters>52.200000762939453125</AltitudeMeters>
            <DistanceMeters>NAN</DistanceMeters>
          </Trackpoint>
          <Trackpoint>
            <Time>2022-07-07T17:09:03.000Z</Time>
            <Position>
              <LatitudeDegrees>43.49378448911011219024658203125</LatitudeDegrees>
              <LongitudeDegrees>-1.55351333320140838623046875</LongitudeDegrees>
            </Position>
            <AltitudeMeters>51.799999237060546875</AltitudeMeters>
            <DistanceMeters>NAN</DistanceMeters>
          </Trackpoint>
          <Trackpoint>
            <Time>2022-07-07T17:09:08.000Z</Time>
            <Position>
              <LatitudeDegrees>43.4939518757164478302001953125</LatitudeDegrees>
              <LongitudeDegrees>-1.55356488190591335296630859375</LongitudeDegrees>
            </Position>
            <AltitudeMeters>51</AltitudeMeters>
            <DistanceMeters>NAN</DistanceMeters>
          </Trackpoint>
          <Trackpoint>
            <Time>2022-07-07T17:09:09.000Z</Time>
            <Position>
              <LatitudeDegrees>43.49397878162562847137451171875</LatitudeDegrees>
              <LongitudeDegrees>-1.5535852499306201934814453125</LongitudeDegrees>
            </Position>
            <AltitudeMeters>51</AltitudeMeters>
            <DistanceMeters>NAN</DistanceMeters>
          </Trackpoint>
          <Trackpoint>
            <Time>2022-07-07T17:09:12.000Z</Time>
            <Position>
              <LatitudeDegrees>43.49404868669807910919189453125</LatitudeDegrees>
              <LongitudeDegrees>-1.55362623743712902069091796875</LongitudeDegrees>
            </Position>
            <AltitudeMeters>50.799999237060546875</AltitudeMeters>
            <DistanceMeters>NAN</DistanceMeters>
          </Trackpoint>
          <Trackpoint>
            <Time>2022-07-07T17:09:13.000Z</Time>
            <Position>
              <LatitudeDegrees>43.49406947381794452667236328125</LatitudeDegrees>
              <LongitudeDegrees>-1.55363663099706172943115234375</LongitudeDegrees>
            </Position>
            <AltitudeMeters>50.59999847412109375</AltitudeMeters>
            <DistanceMeters>NAN</DistanceMeters>
          </Trackpoint>
          <Trackpoint>
            <Time>2022-07-07T17:09:15.000Z</Time>
            <Position>
              <LatitudeDegrees>43.4941064380109310150146484375</LatitudeDegrees>
              <LongitudeDegrees>-1.5536305122077465057373046875</LongitudeDegrees>
            </Position>
            <AltitudeMeters>50.59999847412109375</AltitudeMeters>
            <DistanceMeters>NAN</DistanceMeters>
          </Trackpoint>
          <Trackpoint>
            <Time>2022-07-07T17:09:18.000Z</Time>
            <Position>
              <LatitudeDegrees>43.494147174060344696044921875</LatitudeDegrees>
              <LongitudeDegrees>-1.5535554103553295135498046875</LongitudeDegrees>
            </Position>
            <AltitudeMeters>50.59999847412109375</AltitudeMeters>
            <DistanceMeters>NAN</DistanceMeters>
          </Trackpoint>
          <Trackpoint>
            <Time>2022-07-07T17:09:23.000Z</Time>
            <Position>
              <LatitudeDegrees>43.49422152154147624969482421875</LatitudeDegrees>
              <LongitudeDegrees>-1.55340009368956089019775390625</LongitudeDegrees>
            </Position>
            <AltitudeMeters>50.59999847412109375</AltitudeMeters>
            <DistanceMeters>NAN</DistanceMeters>
          </Trackpoint>
          <Trackpoint>
            <Time>2022-07-07T17:09:24.000Z</Time>
            <Position>
              <LatitudeDegrees>43.4942331723868846893310546875</LatitudeDegrees>
              <LongitudeDegrees>-1.553391627967357635498046875</LongitudeDegrees>
            </Position>
            <AltitudeMeters>50.40000152587890625</AltitudeMeters>
            <DistanceMeters>NAN</DistanceMeters>
          </Trackpoint>
          <Trackpoint>
            <Time>2022-07-07T17:09:28.000Z</Time>
            <Position>
              <LatitudeDegrees>43.49427692592144012451171875</LatitudeDegrees>
              <LongitudeDegrees>-1.553436219692230224609375</LongitudeDegrees>
            </Position>
            <AltitudeMeters>50</AltitudeMeters>
            <DistanceMeters>NAN</DistanceMeters>
          </Trackpoint>
          <Trackpoint>
            <Time>2022-07-07T17:09:30.000Z</Time>
            <Position>
              <LatitudeDegrees>43.49429109133780002593994140625</LatitudeDegrees>
              <LongitudeDegrees>-1.55347351916134357452392578125</LongitudeDegrees>
            </Position>
            <AltitudeMeters>50</AltitudeMeters>
            <DistanceMeters>NAN</DistanceMeters>
          </Trackpoint>
          <Trackpoint>
            <Time>2022-07-07T17:09:35.000Z</Time>
            <Position>
              <LatitudeDegrees>43.4942750819027423858642578125</LatitudeDegrees>
              <LongitudeDegrees>-1.55362372286617755889892578125</LongitudeDegrees>
            </Position>
            <AltitudeMeters>50.200000762939453125</AltitudeMeters>
            <DistanceMeters>NAN</DistanceMeters>
          </Trackpoint>
          <Trackpoint>
            <Time>2022-07-07T17:09:43.000Z</Time>
            <Position>
              <LatitudeDegrees>43.49416787736117839813232421875</LatitudeDegrees>
              <LongitudeDegrees>-1.55383125878870487213134765625</LongitudeDegrees>
            </Position>
            <AltitudeMeters>49.799999237060546875</AltitudeMeters>
            <DistanceMeters>NAN</DistanceMeters>
          </Trackpoint>
          <Trackpoint>
            <Time>2022-07-07T17:09:45.000Z</Time>
            <Position>
              <LatitudeDegrees>43.494133763015270233154296875</LatitudeDegrees>
              <LongitudeDegrees>-1.55389982275664806365966796875</LongitudeDegrees>
            </Position>
            <AltitudeMeters>49.799999237060546875</AltitudeMeters>
            <DistanceMeters>NAN</DistanceMeters>
          </Trackpoint>
          <Trackpoint>
            <Time>2022-07-07T17:09:50.000Z</Time>
            <Position>
              <LatitudeDegrees>43.49408959038555622100830078125</LatitudeDegrees>
              <LongitudeDegrees>-1.55401901341974735260009765625</LongitudeDegrees>
            </Position>
            <AltitudeMeters>49.40000152587890625</AltitudeMeters>
            <DistanceMeters>NAN</DistanceMeters>
          </Trackpoint>
          <Trackpoint>
            <Time>2022-07-07T17:09:54.000Z</Time>
            <Position>
              <LatitudeDegrees>43.49407215602695941925048828125</LatitudeDegrees>
              <LongitudeDegrees>-1.5540325082838535308837890625</LongitudeDegrees>
            </Position>
            <AltitudeMeters>49.200000762939453125</AltitudeMeters>
            <DistanceMeters>NAN</DistanceMeters>
          </Trackpoint>
          <Trackpoint>
            <Time>2022-07-07T17:09:56.000Z</Time>
            <Position>
              <LatitudeDegrees>43.49404097534716129302978515625</LatitudeDegrees>
              <LongitudeDegrees>-1.55405103228986263275146484375</LongitudeDegrees>
            </Position>
            <AltitudeMeters>49.200000762939453125</AltitudeMeters>
            <DistanceMeters>NAN</DistanceMeters>
          </Trackpoint>
          <Trackpoint>
            <Time>2022-07-07T17:10:00.000Z</Time>
            <Position>
              <LatitudeDegrees>43.4939562343060970306396484375</LatitudeDegrees>
              <LongitudeDegrees>-1.5541253797709941864013671875</LongitudeDegrees>
            </Position>
            <AltitudeMeters>49.200000762939453125</AltitudeMeters>
            <DistanceMeters>NAN</DistanceMeters>
          </Trackpoint>
          <Trackpoint>
            <Time>2022-07-07T17:10:02.000Z</Time>
            <Position>
              <LatitudeDegrees>43.49390518851578235626220703125</LatitudeDegrees>
              <LongitudeDegrees>-1.55416217632591724395751953125</LongitudeDegrees>
            </Position>
            <AltitudeMeters>49.200000762939453125</AltitudeMeters>
            <DistanceMeters>NAN</DistanceMeters>
          </Trackpoint>
          <Trackpoint>
            <Time>2022-07-07T17:10:09.000Z</Time>
            <Position>
              <LatitudeDegrees>43.49375615827739238739013671875</LatitudeDegrees>
              <LongitudeDegrees>-1.5543366037309169769287109375</LongitudeDegrees>
            </Position>
            <AltitudeMeters>49.200000762939453125</AltitudeMeters>
            <DistanceMeters>NAN</DistanceMeters>
          </Trackpoint>
          <Trackpoint>
            <Time>2022-07-07T17:10:13.000Z</Time>
            <Position>
              <LatitudeDegrees>43.49365842528641223907470703125</LatitudeDegrees>
              <LongitudeDegrees>-1.55435420572757720947265625</LongitudeDegrees>
            </Position>
            <AltitudeMeters>49.40000152587890625</AltitudeMeters>
            <DistanceMeters>NAN</DistanceMeters>
          </Trackpoint>
          <Trackpoint>
            <Time>2022-07-07T17:10:14.000Z</Time>
            <Position>
              <LatitudeDegrees>43.493638895452022552490234375</LatitudeDegrees>
              <LongitudeDegrees>-1.5543550439178943634033203125</LongitudeDegrees>
            </Position>
            <AltitudeMeters>49.40000152587890625</AltitudeMeters>
            <DistanceMeters>NAN</DistanceMeters>
          </Trackpoint>
          <Trackpoint>
            <Time>2022-07-07T17:10:15.000Z</Time>
            <Position>
              <LatitudeDegrees>43.4936219640076160430908203125</LatitudeDegrees>
              <LongitudeDegrees>-1.5543513558804988861083984375</LongitudeDegrees>
            </Position>
            <AltitudeMeters>49.40000152587890625</AltitudeMeters>
            <DistanceMeters>NAN</DistanceMeters>
          </Trackpoint>
          <Trackpoint>
            <Time>2022-07-07T17:10:17.000Z</Time>
            <Position>
              <LatitudeDegrees>43.49359421990811824798583984375</LatitudeDegrees>
              <LongitudeDegrees>-1.55433266423642635345458984375</LongitudeDegrees>
            </Position>
            <AltitudeMeters>49.40000152587890625</AltitudeMeters>
            <DistanceMeters>NAN</DistanceMeters>
          </Trackpoint>
          <Trackpoint>
            <Time>2022-07-07T17:10:18.000Z</Time>
            <Position>
              <LatitudeDegrees>43.49357862956821918487548828125</LatitudeDegrees>
              <LongitudeDegrees>-1.5543186664581298828125</LongitudeDegrees>
            </Position>
            <AltitudeMeters>49.40000152587890625</AltitudeMeters>
            <DistanceMeters>NAN</DistanceMeters>
          </Trackpoint>
          <Trackpoint>
            <Time>2022-07-07T17:10:20.000Z</Time>
            <Position>
              <LatitudeDegrees>43.49354493431746959686279296875</LatitudeDegrees>
              <LongitudeDegrees>-1.5542832948267459869384765625</LongitudeDegrees>
            </Position>
            <AltitudeMeters>49.59999847412109375</AltitudeMeters>
            <DistanceMeters>NAN</DistanceMeters>
          </Trackpoint>
          <Trackpoint>
            <Time>2022-07-07T17:10:22.000Z</Time>
            <Position>
              <LatitudeDegrees>43.49350956268608570098876953125</LatitudeDegrees>
              <LongitudeDegrees>-1.554243899881839752197265625</LongitudeDegrees>
            </Position>
            <AltitudeMeters>49.40000152587890625</AltitudeMeters>
            <DistanceMeters>NAN</DistanceMeters>
          </Trackpoint>
          <Trackpoint>
            <Time>2022-07-07T17:10:25.000Z</Time>
            <Position>
              <LatitudeDegrees>43.4934757836163043975830078125</LatitudeDegrees>
              <LongitudeDegrees>-1.55422202311456203460693359375</LongitudeDegrees>
            </Position>
            <AltitudeMeters>49.40000152587890625</AltitudeMeters>
            <DistanceMeters>NAN</DistanceMeters>
          </Trackpoint>
          <Trackpoint>
            <Time>2022-07-07T17:10:27.000Z</Time>
            <Position>
              <LatitudeDegrees>43.49344586022198200225830078125</LatitudeDegrees>
              <LongitudeDegrees>-1.5542179159820079803466796875</LongitudeDegrees>
            </Position>
            <AltitudeMeters>49.40000152587890625</AltitudeMeters>
            <DistanceMeters>NAN</DistanceMeters>
          </Trackpoint>
          <Trackpoint>
            <Time>2022-07-07T17:10:29.000Z</Time>
            <Position>
              <LatitudeDegrees>43.4934140928089618682861328125</LatitudeDegrees>
              <LongitudeDegrees>-1.55422185547649860382080078125</LongitudeDegrees>
            </Position>
            <AltitudeMeters>49.40000152587890625</AltitudeMeters>
            <DistanceMeters>NAN</DistanceMeters>
          </Trackpoint>
          <Trackpoint>
            <Time>2022-07-07T17:10:31.000Z</Time>
            <Position>
              <LatitudeDegrees>43.4933882765471935272216796875</LatitudeDegrees>
              <LongitudeDegrees>-1.554244570434093475341796875</LongitudeDegrees>
            </Position>
            <AltitudeMeters>49.40000152587890625</AltitudeMeters>
            <DistanceMeters>NAN</DistanceMeters>
          </Trackpoint>
          <Trackpoint>
            <Time>2022-07-07T17:10:33.000Z</Time>
            <Position>
              <LatitudeDegrees>43.49335215054452419281005859375</LatitudeDegrees>
              <LongitudeDegrees>-1.554266028106212615966796875</LongitudeDegrees>
            </Position>
            <AltitudeMeters>49.40000152587890625</AltitudeMeters>
            <DistanceMeters>NAN</DistanceMeters>
          </Trackpoint>
          <Trackpoint>
            <Time>2022-07-07T17:10:41.000Z</Time>
            <Position>
              <LatitudeDegrees>43.49326229654252529144287109375</LatitudeDegrees>
              <LongitudeDegrees>-1.55428807251155376434326171875</LongitudeDegrees>
            </Position>
            <AltitudeMeters>49.799999237060546875</AltitudeMeters>
            <DistanceMeters>NAN</DistanceMeters>
          </Trackpoint>
          <Trackpoint>
            <Time>2022-07-07T17:10:48.000Z</Time>
            <Position>
              <LatitudeDegrees>43.4931901283562183380126953125</LatitudeDegrees>
              <LongitudeDegrees>-1.5541790239512920379638671875</LongitudeDegrees>
            </Position>
            <AltitudeMeters>49.40000152587890625</AltitudeMeters>
            <DistanceMeters>NAN</DistanceMeters>
          </Trackpoint>
          <Trackpoint>
            <Time>2022-07-07T17:10:49.000Z</Time>
            <Position>
              <LatitudeDegrees>43.4931899607181549072265625</LatitudeDegrees>
              <LongitudeDegrees>-1.55417458154261112213134765625</LongitudeDegrees>
            </Position>
            <AltitudeMeters>49.40000152587890625</AltitudeMeters>
            <DistanceMeters>NAN</DistanceMeters>
          </Trackpoint>
          <Trackpoint>
            <Time>2022-07-07T17:10:50.000Z</Time>
            <Position>
              <LatitudeDegrees>43.4931899607181549072265625</LatitudeDegrees>
              <LongitudeDegrees>-1.55417458154261112213134765625</LongitudeDegrees>
            </Position>
            <AltitudeMeters>49.40000152587890625</AltitudeMeters>
            <DistanceMeters>NAN</DistanceMeters>
          </Trackpoint>
          <Trackpoint>
            <Time>2022-07-07T17:11:44.000Z</Time>
            <Position>
              <LatitudeDegrees>43.49318836815655231475830078125</LatitudeDegrees>
              <LongitudeDegrees>-1.5541478432714939117431640625</LongitudeDegrees>
            </Position>
            <AltitudeMeters>50</AltitudeMeters>
            <DistanceMeters>NAN</DistanceMeters>
          </Trackpoint>
          <Trackpoint>
            <Time>2022-07-07T17:11:45.000Z</Time>
            <Position>
              <LatitudeDegrees>43.49318685941398143768310546875</LatitudeDegrees>
              <LongitudeDegrees>-1.55411808751523494720458984375</LongitudeDegrees>
            </Position>
            <AltitudeMeters>50</AltitudeMeters>
            <DistanceMeters>NAN</DistanceMeters>
          </Trackpoint>
          <Trackpoint>
            <Time>2022-07-07T17:11:47.000Z</Time>
            <Position>
              <LatitudeDegrees>43.4931891225278377532958984375</LatitudeDegrees>
              <LongitudeDegrees>-1.5540516190230846405029296875</LongitudeDegrees>
            </Position>
            <AltitudeMeters>50</AltitudeMeters>
            <DistanceMeters>NAN</DistanceMeters>
          </Trackpoint>
          <Trackpoint>
            <Time>2022-07-07T17:11:50.000Z</Time>
            <Position>
              <LatitudeDegrees>43.493196330964565277099609375</LatitudeDegrees>
              <LongitudeDegrees>-1.55394407920539379119873046875</LongitudeDegrees>
            </Position>
            <AltitudeMeters>50.200000762939453125</AltitudeMeters>
            <DistanceMeters>NAN</DistanceMeters>
          </Trackpoint>
          <Trackpoint>
            <Time>2022-07-07T17:11:53.000Z</Time>
            <Position>
              <LatitudeDegrees>43.49319976754486560821533203125</LatitudeDegrees>
              <LongitudeDegrees>-1.553845591843128204345703125</LongitudeDegrees>
            </Position>
            <AltitudeMeters>50.40000152587890625</AltitudeMeters>
            <DistanceMeters>NAN</DistanceMeters>
          </Trackpoint>
          <Trackpoint>
            <Time>2022-07-07T17:11:54.000Z</Time>
            <Position>
              <LatitudeDegrees>43.49319959990680217742919921875</LatitudeDegrees>
              <LongitudeDegrees>-1.55381533317267894744873046875</LongitudeDegrees>
            </Position>
            <AltitudeMeters>50.59999847412109375</AltitudeMeters>
            <DistanceMeters>NAN</DistanceMeters>
          </Trackpoint>
          <Trackpoint>
            <Time>2022-07-07T17:11:58.000Z</Time>
            <Position>
              <LatitudeDegrees>43.4932315349578857421875</LatitudeDegrees>
              <LongitudeDegrees>-1.5536918677389621734619140625</LongitudeDegrees>
            </Position>
            <AltitudeMeters>50.799999237060546875</AltitudeMeters>
            <DistanceMeters>NAN</DistanceMeters>
          </Trackpoint>
          <Trackpoint>
            <Time>2022-07-07T17:11:59.000Z</Time>
            <Position>
              <LatitudeDegrees>43.49325098097324371337890625</LatitudeDegrees>
              <LongitudeDegrees>-1.55367719940841197967529296875</LongitudeDegrees>
            </Position>
            <AltitudeMeters>50.799999237060546875</AltitudeMeters>
            <DistanceMeters>NAN</DistanceMeters>
          </Trackpoint>
          <Trackpoint>
            <Time>2022-07-07T17:12:02.000Z</Time>
            <Position>
              <LatitudeDegrees>43.49330437369644641876220703125</LatitudeDegrees>
              <LongitudeDegrees>-1.553630344569683074951171875</LongitudeDegrees>
            </Position>
            <AltitudeMeters>51</AltitudeMeters>
            <DistanceMeters>NAN</DistanceMeters>
          </Trackpoint>
          <Trackpoint>
            <Time>2022-07-07T17:12:03.000Z</Time>
            <Position>
              <LatitudeDegrees>43.4933178685605525970458984375</LatitudeDegrees>
              <LongitudeDegrees>-1.55360528267920017242431640625</LongitudeDegrees>
            </Position>
            <AltitudeMeters>51</AltitudeMeters>
            <DistanceMeters>NAN</DistanceMeters>
          </Trackpoint>
          <Trackpoint>
            <Time>2022-07-07T17:12:05.000Z</Time>
            <Position>
              <LatitudeDegrees>43.49333052523434162139892578125</LatitudeDegrees>
              <LongitudeDegrees>-1.55356287024915218353271484375</LongitudeDegrees>
            </Position>
            <AltitudeMeters>51.200000762939453125</AltitudeMeters>
            <DistanceMeters>NAN</DistanceMeters>
          </Trackpoint>
          <Trackpoint>
            <Time>2022-07-07T17:12:10.000Z</Time>
            <Position>
              <LatitudeDegrees>43.49341593682765960693359375</LatitudeDegrees>
              <LongitudeDegrees>-1.553504951298236846923828125</LongitudeDegrees>
            </Position>
            <AltitudeMeters>51.200000762939453125</AltitudeMeters>
            <DistanceMeters>NAN</DistanceMeters>
          </Trackpoint>
          <Trackpoint>
            <Time>2022-07-07T17:12:14.000Z</Time>
            <Position>
              <LatitudeDegrees>43.49346128292381763458251953125</LatitudeDegrees>
              <LongitudeDegrees>-1.55340596102178096771240234375</LongitudeDegrees>
            </Position>
            <AltitudeMeters>51.799999237060546875</AltitudeMeters>
            <DistanceMeters>NAN</DistanceMeters>
          </Trackpoint>
          <Trackpoint>
            <Time>2022-07-07T17:12:16.000Z</Time>
            <Position>
              <LatitudeDegrees>43.493459187448024749755859375</LatitudeDegrees>
              <LongitudeDegrees>-1.553357429802417755126953125</LongitudeDegrees>
            </Position>
            <AltitudeMeters>52.200000762939453125</AltitudeMeters>
            <DistanceMeters>NAN</DistanceMeters>
          </Trackpoint>
          <Trackpoint>
            <Time>2022-07-07T17:12:20.000Z</Time>
            <Position>
              <LatitudeDegrees>43.49344410002231597900390625</LatitudeDegrees>
              <LongitudeDegrees>-1.55325190164148807525634765625</LongitudeDegrees>
            </Position>
            <AltitudeMeters>53.200000762939453125</AltitudeMeters>
            <DistanceMeters>NAN</DistanceMeters>
          </Trackpoint>
          <Trackpoint>
            <Time>2022-07-07T17:12:22.000Z</Time>
            <Position>
              <LatitudeDegrees>43.49342909641563892364501953125</LatitudeDegrees>
              <LongitudeDegrees>-1.55320228077471256256103515625</LongitudeDegrees>
            </Position>
            <AltitudeMeters>53.40000152587890625</AltitudeMeters>
            <DistanceMeters>NAN</DistanceMeters>
          </Trackpoint>
          <Trackpoint>
            <Time>2022-07-07T17:12:25.000Z</Time>
            <Position>
              <LatitudeDegrees>43.49340428598225116729736328125</LatitudeDegrees>
              <LongitudeDegrees>-1.55314746312797069549560546875</LongitudeDegrees>
            </Position>
            <AltitudeMeters>54</AltitudeMeters>
            <DistanceMeters>NAN</DistanceMeters>
          </Trackpoint>
          <Trackpoint>
            <Time>2022-07-07T17:12:27.000Z</Time>
            <Position>
              <LatitudeDegrees>43.493392467498779296875</LatitudeDegrees>
              <LongitudeDegrees>-1.5531125105917453765869140625</LongitudeDegrees>
            </Position>
            <AltitudeMeters>54.200000762939453125</AltitudeMeters>
            <DistanceMeters>NAN</DistanceMeters>
          </Trackpoint>
          <Trackpoint>
            <Time>2022-07-07T17:12:28.000Z</Time>
            <Position>
              <LatitudeDegrees>43.4933845885097980499267578125</LatitudeDegrees>
              <LongitudeDegrees>-1.5530960820615291595458984375</LongitudeDegrees>
            </Position>
            <AltitudeMeters>54.40000152587890625</AltitudeMeters>
            <DistanceMeters>NAN</DistanceMeters>
          </Trackpoint>
          <Trackpoint>
            <Time>2022-07-07T17:12:29.000Z</Time>
            <Position>
              <LatitudeDegrees>43.49337411113083362579345703125</LatitudeDegrees>
              <LongitudeDegrees>-1.5530781447887420654296875</LongitudeDegrees>
            </Position>
            <AltitudeMeters>54.40000152587890625</AltitudeMeters>
            <DistanceMeters>NAN</DistanceMeters>
          </Trackpoint>
          <Trackpoint>
            <Time>2022-07-07T17:12:37.000Z</Time>
            <Position>
              <LatitudeDegrees>43.493308983743190765380859375</LatitudeDegrees>
              <LongitudeDegrees>-1.5528949163854122161865234375</LongitudeDegrees>
            </Position>
            <AltitudeMeters>55.40000152587890625</AltitudeMeters>
            <DistanceMeters>NAN</DistanceMeters>
          </Trackpoint>
          <Trackpoint>
            <Time>2022-07-07T17:12:38.000Z</Time>
            <Position>
              <LatitudeDegrees>43.49329934455454349517822265625</LatitudeDegrees>
              <LongitudeDegrees>-1.552872620522975921630859375</LongitudeDegrees>
            </Position>
            <AltitudeMeters>55.40000152587890625</AltitudeMeters>
            <DistanceMeters>NAN</DistanceMeters>
          </Trackpoint>
          <Trackpoint>
            <Time>2022-07-07T17:12:46.000Z</Time>
            <Position>
              <LatitudeDegrees>43.49321418441832065582275390625</LatitudeDegrees>
              <LongitudeDegrees>-1.5526960976421833038330078125</LongitudeDegrees>
            </Position>
            <AltitudeMeters>56.40000152587890625</AltitudeMeters>
            <DistanceMeters>NAN</DistanceMeters>
          </Trackpoint>
          <Trackpoint>
            <Time>2022-07-07T17:12:47.000Z</Time>
            <Position>
              <LatitudeDegrees>43.49319959990680217742919921875</LatitudeDegrees>
              <LongitudeDegrees>-1.55268293805420398712158203125</LongitudeDegrees>
            </Position>
            <AltitudeMeters>56.40000152587890625</AltitudeMeters>
            <DistanceMeters>NAN</DistanceMeters>
          </Trackpoint>
          <Trackpoint>
            <Time>2022-07-07T17:12:51.000Z</Time>
            <Position>
              <LatitudeDegrees>43.49313656799495220184326171875</LatitudeDegrees>
              <LongitudeDegrees>-1.552642621099948883056640625</LongitudeDegrees>
            </Position>
            <AltitudeMeters>56.799999237060546875</AltitudeMeters>
            <DistanceMeters>NAN</DistanceMeters>
          </Trackpoint>
          <Trackpoint>
            <Time>2022-07-07T17:12:55.000Z</Time>
            <Position>
              <LatitudeDegrees>43.4930576942861080169677734375</LatitudeDegrees>
              <LongitudeDegrees>-1.55260280705988407135009765625</LongitudeDegrees>
            </Position>
            <AltitudeMeters>57.200000762939453125</AltitudeMeters>
            <DistanceMeters>NAN</DistanceMeters>
          </Trackpoint>
          <Trackpoint>
            <Time>2022-07-07T17:12:57.000Z</Time>
            <Position>
              <LatitudeDegrees>43.49301402457058429718017578125</LatitudeDegrees>
              <LongitudeDegrees>-1.552595682442188262939453125</LongitudeDegrees>
            </Position>
            <AltitudeMeters>57.59999847412109375</AltitudeMeters>
            <DistanceMeters>NAN</DistanceMeters>
          </Trackpoint>
          <Trackpoint>
            <Time>2022-07-07T17:13:05.000Z</Time>
            <Position>
              <LatitudeDegrees>43.49285895936191082000732421875</LatitudeDegrees>
              <LongitudeDegrees>-1.5525660105049610137939453125</LongitudeDegrees>
            </Position>
            <AltitudeMeters>58.59999847412109375</AltitudeMeters>
            <DistanceMeters>NAN</DistanceMeters>
          </Trackpoint>
          <Trackpoint>
            <Time>2022-07-07T17:13:06.000Z</Time>
            <Position>
              <LatitudeDegrees>43.49283817224204540252685546875</LatitudeDegrees>
              <LongitudeDegrees>-1.55256290920078754425048828125</LongitudeDegrees>
            </Position>
            <AltitudeMeters>58.59999847412109375</AltitudeMeters>
            <DistanceMeters>NAN</DistanceMeters>
          </Trackpoint>
          <Trackpoint>
            <Time>2022-07-07T17:13:15.000Z</Time>
            <Position>
              <LatitudeDegrees>43.49263432435691356658935546875</LatitudeDegrees>
              <LongitudeDegrees>-1.55252284370362758636474609375</LongitudeDegrees>
            </Position>
            <AltitudeMeters>59.200000762939453125</AltitudeMeters>
            <DistanceMeters>NAN</DistanceMeters>
          </Trackpoint>
          <Trackpoint>
            <Time>2022-07-07T17:13:23.000Z</Time>
            <Position>
              <LatitudeDegrees>43.49247573874890804290771484375</LatitudeDegrees>
              <LongitudeDegrees>-1.55235973186790943145751953125</LongitudeDegrees>
            </Position>
            <AltitudeMeters>59.40000152587890625</AltitudeMeters>
            <DistanceMeters>NAN</DistanceMeters>
          </Trackpoint>
          <Trackpoint>
            <Time>2022-07-07T17:13:24.000Z</Time>
            <Position>
              <LatitudeDegrees>43.4924592263996601104736328125</LatitudeDegrees>
              <LongitudeDegrees>-1.5523396991193294525146484375</LongitudeDegrees>
            </Position>
            <AltitudeMeters>59.59999847412109375</AltitudeMeters>
            <DistanceMeters>NAN</DistanceMeters>
          </Trackpoint>
          <Trackpoint>
            <Time>2022-07-07T17:13:29.000Z</Time>
            <Position>
              <LatitudeDegrees>43.4923811070621013641357421875</LatitudeDegrees>
              <LongitudeDegrees>-1.552253030240535736083984375</LongitudeDegrees>
            </Position>
            <AltitudeMeters>59.59999847412109375</AltitudeMeters>
            <DistanceMeters>NAN</DistanceMeters>
          </Trackpoint>
          <Trackpoint>
            <Time>2022-07-07T17:13:30.000Z</Time>
            <Position>
              <LatitudeDegrees>43.49236987531185150146484375</LatitudeDegrees>
              <LongitudeDegrees>-1.55223098583519458770751953125</LongitudeDegrees>
            </Position>
            <AltitudeMeters>59.59999847412109375</AltitudeMeters>
            <DistanceMeters>NAN</DistanceMeters>
          </Trackpoint>
          <Trackpoint>
            <Time>2022-07-07T17:13:31.000Z</Time>
            <Position>
              <LatitudeDegrees>43.49235621280968189239501953125</LatitudeDegrees>
              <LongitudeDegrees>-1.552206762135028839111328125</LongitudeDegrees>
            </Position>
            <AltitudeMeters>59.40000152587890625</AltitudeMeters>
            <DistanceMeters>NAN</DistanceMeters>
          </Trackpoint>
          <Trackpoint>
            <Time>2022-07-07T17:13:38.000Z</Time>
            <Position>
              <LatitudeDegrees>43.492222018539905548095703125</LatitudeDegrees>
              <LongitudeDegrees>-1.55205781571567058563232421875</LongitudeDegrees>
            </Position>
            <AltitudeMeters>59.200000762939453125</AltitudeMeters>
            <DistanceMeters>NAN</DistanceMeters>
          </Trackpoint>
          <Trackpoint>
            <Time>2022-07-07T17:13:44.000Z</Time>
            <Position>
              <LatitudeDegrees>43.49208983592689037322998046875</LatitudeDegrees>
              <LongitudeDegrees>-1.5519326739013195037841796875</LongitudeDegrees>
            </Position>
            <AltitudeMeters>59.200000762939453125</AltitudeMeters>
            <DistanceMeters>NAN</DistanceMeters>
          </Trackpoint>
          <Trackpoint>
            <Time>2022-07-07T17:13:45.000Z</Time>
            <Position>
              <LatitudeDegrees>43.492068462073802947998046875</LatitudeDegrees>
              <LongitudeDegrees>-1.55192001722753047943115234375</LongitudeDegrees>
            </Position>
            <AltitudeMeters>59.200000762939453125</AltitudeMeters>
            <DistanceMeters>NAN</DistanceMeters>
          </Trackpoint>
          <Trackpoint>
            <Time>2022-07-07T17:13:48.000Z</Time>
            <Position>
              <LatitudeDegrees>43.49200450815260410308837890625</LatitudeDegrees>
              <LongitudeDegrees>-1.55188657343387603759765625</LongitudeDegrees>
            </Position>
            <AltitudeMeters>55.799999237060546875</AltitudeMeters>
            <DistanceMeters>NAN</DistanceMeters>
          </Trackpoint>
          <Trackpoint>
            <Time>2022-07-07T17:13:49.000Z</Time>
            <Position>
              <LatitudeDegrees>43.49197718314826488494873046875</LatitudeDegrees>
              <LongitudeDegrees>-1.55187844298779964447021484375</LongitudeDegrees>
            </Position>
            <AltitudeMeters>54</AltitudeMeters>
            <DistanceMeters>NAN</DistanceMeters>
          </Trackpoint>
          <Trackpoint>
            <Time>2022-07-07T17:13:51.000Z</Time>
            <Position>
              <LatitudeDegrees>43.49191733635962009429931640625</LatitudeDegrees>
              <LongitudeDegrees>-1.55186955817043781280517578125</LongitudeDegrees>
            </Position>
            <AltitudeMeters>52.59999847412109375</AltitudeMeters>
            <DistanceMeters>NAN</DistanceMeters>
          </Trackpoint>
          <Trackpoint>
            <Time>2022-07-07T17:13:59.000Z</Time>
            <Position>
              <LatitudeDegrees>43.49169270135462284088134765625</LatitudeDegrees>
              <LongitudeDegrees>-1.55191230587661266326904296875</LongitudeDegrees>
            </Position>
            <AltitudeMeters>52.40000152587890625</AltitudeMeters>
            <DistanceMeters>NAN</DistanceMeters>
          </Trackpoint>
          <Trackpoint>
            <Time>2022-07-07T17:14:06.000Z</Time>
            <Position>
              <LatitudeDegrees>43.49153243936598300933837890625</LatitudeDegrees>
              <LongitudeDegrees>-1.552012301981449127197265625</LongitudeDegrees>
            </Position>
            <AltitudeMeters>52.799999237060546875</AltitudeMeters>
            <DistanceMeters>NAN</DistanceMeters>
          </Trackpoint>
          <Trackpoint>
            <Time>2022-07-07T17:14:15.000Z</Time>
            <Position>
              <LatitudeDegrees>43.491281233727931976318359375</LatitudeDegrees>
              <LongitudeDegrees>-1.5521435625851154327392578125</LongitudeDegrees>
            </Position>
            <AltitudeMeters>53</AltitudeMeters>
            <DistanceMeters>NAN</DistanceMeters>
          </Trackpoint>
          <Trackpoint>
            <Time>2022-07-07T17:14:21.000Z</Time>
            <Position>
              <LatitudeDegrees>43.49112977273762226104736328125</LatitudeDegrees>
              <LongitudeDegrees>-1.55213995836675167083740234375</LongitudeDegrees>
            </Position>
            <AltitudeMeters>53.40000152587890625</AltitudeMeters>
            <DistanceMeters>NAN</DistanceMeters>
          </Trackpoint>
          <Trackpoint>
            <Time>2022-07-07T17:14:27.000Z</Time>
            <Position>
              <LatitudeDegrees>43.4910192154347896575927734375</LatitudeDegrees>
              <LongitudeDegrees>-1.55211078934371471405029296875</LongitudeDegrees>
            </Position>
            <AltitudeMeters>53.59999847412109375</AltitudeMeters>
            <DistanceMeters>NAN</DistanceMeters>
          </Trackpoint>
          <Trackpoint>
            <Time>2022-07-07T17:14:32.000Z</Time>
            <Position>
              <LatitudeDegrees>43.49084747023880481719970703125</LatitudeDegrees>
              <LongitudeDegrees>-1.5520952828228473663330078125</LongitudeDegrees>
            </Position>
            <AltitudeMeters>53.59999847412109375</AltitudeMeters>
            <DistanceMeters>NAN</DistanceMeters>
          </Trackpoint>
          <Trackpoint>
            <Time>2022-07-07T17:14:41.000Z</Time>
            <Position>
              <LatitudeDegrees>43.4904968552291393280029296875</LatitudeDegrees>
              <LongitudeDegrees>-1.55223785899579524993896484375</LongitudeDegrees>
            </Position>
            <AltitudeMeters>54</AltitudeMeters>
            <DistanceMeters>NAN</DistanceMeters>
          </Trackpoint>
          <Trackpoint>
            <Time>2022-07-07T17:14:50.000Z</Time>
            <Position>
              <LatitudeDegrees>43.49013132043182849884033203125</LatitudeDegrees>
              <LongitudeDegrees>-1.55238169245421886444091796875</LongitudeDegrees>
            </Position>
            <AltitudeMeters>54.200000762939453125</AltitudeMeters>
            <DistanceMeters>NAN</DistanceMeters>
          </Trackpoint>
          <Trackpoint>
            <Time>2022-07-07T17:14:57.000Z</Time>
            <Position>
              <LatitudeDegrees>43.4899617545306682586669921875</LatitudeDegrees>
              <LongitudeDegrees>-1.55249132774770259857177734375</LongitudeDegrees>
            </Position>
            <AltitudeMeters>53.59999847412109375</AltitudeMeters>
            <DistanceMeters>NAN</DistanceMeters>
          </Trackpoint>
          <Trackpoint>
            <Time>2022-07-07T17:15:02.000Z</Time>
            <Position>
              <LatitudeDegrees>43.4899560548365116119384765625</LatitudeDegrees>
              <LongitudeDegrees>-1.55247909016907215118408203125</LongitudeDegrees>
            </Position>
            <AltitudeMeters>53.59999847412109375</AltitudeMeters>
            <DistanceMeters>NAN</DistanceMeters>
          </Trackpoint>
          <Trackpoint>
            <Time>2022-07-07T17:15:03.000Z</Time>
            <Position>
              <LatitudeDegrees>43.4899560548365116119384765625</LatitudeDegrees>
              <LongitudeDegrees>-1.55247909016907215118408203125</LongitudeDegrees>
            </Position>
            <AltitudeMeters>53.799999237060546875</AltitudeMeters>
            <DistanceMeters>NAN</DistanceMeters>
          </Trackpoint>
          <Trackpoint>
            <Time>2022-07-07T17:15:05.000Z</Time>
            <Position>
              <LatitudeDegrees>43.4899560548365116119384765625</LatitudeDegrees>
              <LongitudeDegrees>-1.55247909016907215118408203125</LongitudeDegrees>
            </Position>
            <AltitudeMeters>54</AltitudeMeters>
            <DistanceMeters>NAN</DistanceMeters>
          </Trackpoint>
          <Trackpoint>
            <Time>2022-07-07T17:15:15.000Z</Time>
            <Position>
              <LatitudeDegrees>43.4899245388805866241455078125</LatitudeDegrees>
              <LongitudeDegrees>-1.5524852089583873748779296875</LongitudeDegrees>
            </Position>
            <AltitudeMeters>53.59999847412109375</AltitudeMeters>
            <DistanceMeters>NAN</DistanceMeters>
          </Trackpoint>
          <Trackpoint>
            <Time>2022-07-07T17:15:16.000Z</Time>
            <Position>
              <LatitudeDegrees>43.48989729769527912139892578125</LatitudeDegrees>
              <LongitudeDegrees>-1.55249199829995632171630859375</LongitudeDegrees>
            </Position>
            <AltitudeMeters>53.59999847412109375</AltitudeMeters>
            <DistanceMeters>NAN</DistanceMeters>
          </Trackpoint>
          <Trackpoint>
            <Time>2022-07-07T17:15:21.000Z</Time>
            <Position>
              <LatitudeDegrees>43.48979420028626918792724609375</LatitudeDegrees>
              <LongitudeDegrees>-1.55254614539444446563720703125</LongitudeDegrees>
            </Position>
            <AltitudeMeters>53.200000762939453125</AltitudeMeters>
            <DistanceMeters>NAN</DistanceMeters>
          </Trackpoint>
          <Trackpoint>
            <Time>2022-07-07T17:15:23.000Z</Time>
            <Position>
              <LatitudeDegrees>43.489793278276920318603515625</LatitudeDegrees>
              <LongitudeDegrees>-1.55254698358476161956787109375</LongitudeDegrees>
            </Position>
            <AltitudeMeters>53.200000762939453125</AltitudeMeters>
            <DistanceMeters>NAN</DistanceMeters>
          </Trackpoint>
          <Trackpoint>
            <Time>2022-07-07T17:15:43.000Z</Time>
            <Position>
              <LatitudeDegrees>43.48977743647992610931396484375</LatitudeDegrees>
              <LongitudeDegrees>-1.5525542758405208587646484375</LongitudeDegrees>
            </Position>
            <AltitudeMeters>53.40000152587890625</AltitudeMeters>
            <DistanceMeters>NAN</DistanceMeters>
          </Trackpoint>
          <Trackpoint>
            <Time>2022-07-07T17:15:45.000Z</Time>
            <Position>
              <LatitudeDegrees>43.4897352755069732666015625</LatitudeDegrees>
              <LongitudeDegrees>-1.55256609432399272918701171875</LongitudeDegrees>
            </Position>
            <AltitudeMeters>53.200000762939453125</AltitudeMeters>
            <DistanceMeters>NAN</DistanceMeters>
          </Trackpoint>
          <Trackpoint>
            <Time>2022-07-07T17:15:49.000Z</Time>
            <Position>
              <LatitudeDegrees>43.48959169350564479827880859375</LatitudeDegrees>
              <LongitudeDegrees>-1.55260465107858180999755859375</LongitudeDegrees>
            </Position>
            <AltitudeMeters>52.799999237060546875</AltitudeMeters>
            <DistanceMeters>NAN</DistanceMeters>
          </Trackpoint>
          <Trackpoint>
            <Time>2022-07-07T17:15:52.000Z</Time>
            <Position>
              <LatitudeDegrees>43.48947920836508274078369140625</LatitudeDegrees>
              <LongitudeDegrees>-1.552683524787425994873046875</LongitudeDegrees>
            </Position>
            <AltitudeMeters>52.59999847412109375</AltitudeMeters>
            <DistanceMeters>NAN</DistanceMeters>
          </Trackpoint>
          <Trackpoint>
            <Time>2022-07-07T17:15:54.000Z</Time>
            <Position>
              <LatitudeDegrees>43.48939388059079647064208984375</LatitudeDegrees>
              <LongitudeDegrees>-1.5527269430458545684814453125</LongitudeDegrees>
            </Position>
            <AltitudeMeters>52.40000152587890625</AltitudeMeters>
            <DistanceMeters>NAN</DistanceMeters>
          </Trackpoint>
          <Trackpoint>
            <Time>2022-07-07T17:15:55.000Z</Time>
            <Position>
              <LatitudeDegrees>43.48934694193303585052490234375</LatitudeDegrees>
              <LongitudeDegrees>-1.55274395830929279327392578125</LongitudeDegrees>
            </Position>
            <AltitudeMeters>52.40000152587890625</AltitudeMeters>
            <DistanceMeters>NAN</DistanceMeters>
          </Trackpoint>
          <Trackpoint>
            <Time>2022-07-07T17:15:59.000Z</Time>
            <Position>
              <LatitudeDegrees>43.489156253635883331298828125</LatitudeDegrees>
              <LongitudeDegrees>-1.55281822197139263153076171875</LongitudeDegrees>
            </Position>
            <AltitudeMeters>51.40000152587890625</AltitudeMeters>
            <DistanceMeters>NAN</DistanceMeters>
          </Trackpoint>
          <Trackpoint>
            <Time>2022-07-07T17:16:02.000Z</Time>
            <Position>
              <LatitudeDegrees>43.48902926780283451080322265625</LatitudeDegrees>
              <LongitudeDegrees>-1.55288443900644779205322265625</LongitudeDegrees>
            </Position>
            <AltitudeMeters>50.59999847412109375</AltitudeMeters>
            <DistanceMeters>NAN</DistanceMeters>
          </Trackpoint>
          <Trackpoint>
            <Time>2022-07-07T17:16:03.000Z</Time>
            <Position>
              <LatitudeDegrees>43.4889857657253742218017578125</LatitudeDegrees>
              <LongitudeDegrees>-1.55289952643215656280517578125</LongitudeDegrees>
            </Position>
            <AltitudeMeters>50.200000762939453125</AltitudeMeters>
            <DistanceMeters>NAN</DistanceMeters>
          </Trackpoint>
          <Trackpoint>
            <Time>2022-07-07T17:16:07.000Z</Time>
            <Position>
              <LatitudeDegrees>43.48880245350301265716552734375</LatitudeDegrees>
              <LongitudeDegrees>-1.55298099853098392486572265625</LongitudeDegrees>
            </Position>
            <AltitudeMeters>49</AltitudeMeters>
            <DistanceMeters>NAN</DistanceMeters>
          </Trackpoint>
          <Trackpoint>
            <Time>2022-07-07T17:16:08.000Z</Time>
            <Position>
              <LatitudeDegrees>43.48875383846461772918701171875</LatitudeDegrees>
              <LongitudeDegrees>-1.5530032105743885040283203125</LongitudeDegrees>
            </Position>
            <AltitudeMeters>48.59999847412109375</AltitudeMeters>
            <DistanceMeters>NAN</DistanceMeters>
          </Trackpoint>
          <Trackpoint>
            <Time>2022-07-07T17:16:09.000Z</Time>
            <Position>
              <LatitudeDegrees>43.488700948655605316162109375</LatitudeDegrees>
              <LongitudeDegrees>-1.5530243329703807830810546875</LongitudeDegrees>
            </Position>
            <AltitudeMeters>48.40000152587890625</AltitudeMeters>
            <DistanceMeters>NAN</DistanceMeters>
          </Trackpoint>
          <Trackpoint>
            <Time>2022-07-07T17:16:12.000Z</Time>
            <Position>
              <LatitudeDegrees>43.48854261450469493865966796875</LatitudeDegrees>
              <LongitudeDegrees>-1.55310471542179584503173828125</LongitudeDegrees>
            </Position>
            <AltitudeMeters>48</AltitudeMeters>
            <DistanceMeters>NAN</DistanceMeters>
          </Trackpoint>
          <Trackpoint>
            <Time>2022-07-07T17:16:14.000Z</Time>
            <Position>
              <LatitudeDegrees>43.48844085820019245147705078125</LatitudeDegrees>
              <LongitudeDegrees>-1.553165651857852935791015625</LongitudeDegrees>
            </Position>
            <AltitudeMeters>47.799999237060546875</AltitudeMeters>
            <DistanceMeters>NAN</DistanceMeters>
          </Trackpoint>
          <Trackpoint>
            <Time>2022-07-07T17:16:16.000Z</Time>
            <Position>
              <LatitudeDegrees>43.48833960480988025665283203125</LatitudeDegrees>
              <LongitudeDegrees>-1.553221307694911956787109375</LongitudeDegrees>
            </Position>
            <AltitudeMeters>46.59999847412109375</AltitudeMeters>
            <DistanceMeters>NAN</DistanceMeters>
          </Trackpoint>
          <Trackpoint>
            <Time>2022-07-07T17:16:17.000Z</Time>
            <Position>
              <LatitudeDegrees>43.4882870502769947052001953125</LatitudeDegrees>
              <LongitudeDegrees>-1.55324779450893402099609375</LongitudeDegrees>
            </Position>
            <AltitudeMeters>46</AltitudeMeters>
            <DistanceMeters>NAN</DistanceMeters>
          </Trackpoint>
          <Trackpoint>
            <Time>2022-07-07T17:16:18.000Z</Time>
            <Position>
              <LatitudeDegrees>43.4882332384586334228515625</LatitudeDegrees>
              <LongitudeDegrees>-1.55327034182846546173095703125</LongitudeDegrees>
            </Position>
            <AltitudeMeters>45.799999237060546875</AltitudeMeters>
            <DistanceMeters>NAN</DistanceMeters>
          </Trackpoint>
          <Trackpoint>
            <Time>2022-07-07T17:16:19.000Z</Time>
            <Position>
              <LatitudeDegrees>43.48817666061222553253173828125</LatitudeDegrees>
              <LongitudeDegrees>-1.5532932244241237640380859375</LongitudeDegrees>
            </Position>
            <AltitudeMeters>45.40000152587890625</AltitudeMeters>
            <DistanceMeters>NAN</DistanceMeters>
          </Trackpoint>
          <Trackpoint>
            <Time>2022-07-07T17:16:22.000Z</Time>
            <Position>
              <LatitudeDegrees>43.48801053129136562347412109375</LatitudeDegrees>
              <LongitudeDegrees>-1.55339355580508708953857421875</LongitudeDegrees>
            </Position>
            <AltitudeMeters>44.59999847412109375</AltitudeMeters>
            <DistanceMeters>NAN</DistanceMeters>
          </Trackpoint>
          <Trackpoint>
            <Time>2022-07-07T17:16:23.000Z</Time>
            <Position>
              <LatitudeDegrees>43.4879568032920360565185546875</LatitudeDegrees>
              <LongitudeDegrees>-1.553433202207088470458984375</LongitudeDegrees>
            </Position>
            <AltitudeMeters>44.200000762939453125</AltitudeMeters>
            <DistanceMeters>NAN</DistanceMeters>
          </Trackpoint>
          <Trackpoint>
            <Time>2022-07-07T17:16:26.000Z</Time>
            <Position>
              <LatitudeDegrees>43.48782160319387912750244140625</LatitudeDegrees>
              <LongitudeDegrees>-1.55357904732227325439453125</LongitudeDegrees>
            </Position>
            <AltitudeMeters>43</AltitudeMeters>
            <DistanceMeters>NAN</DistanceMeters>
          </Trackpoint>
          <Trackpoint>
            <Time>2022-07-07T17:16:27.000Z</Time>
            <Position>
              <LatitudeDegrees>43.487778939306735992431640625</LatitudeDegrees>
              <LongitudeDegrees>-1.55361986719071865081787109375</LongitudeDegrees>
            </Position>
            <AltitudeMeters>42.59999847412109375</AltitudeMeters>
            <DistanceMeters>NAN</DistanceMeters>
          </Trackpoint>
          <Trackpoint>
            <Time>2022-07-07T17:16:29.000Z</Time>
            <Position>
              <LatitudeDegrees>43.48769344389438629150390625</LatitudeDegrees>
              <LongitudeDegrees>-1.55371374450623989105224609375</LongitudeDegrees>
            </Position>
            <AltitudeMeters>41.40000152587890625</AltitudeMeters>
            <DistanceMeters>NAN</DistanceMeters>
          </Trackpoint>
          <Trackpoint>
            <Time>2022-07-07T17:16:31.000Z</Time>
            <Position>
              <LatitudeDegrees>43.48761373199522495269775390625</LatitudeDegrees>
              <LongitudeDegrees>-1.55382639728486537933349609375</LongitudeDegrees>
            </Position>
            <AltitudeMeters>40.799999237060546875</AltitudeMeters>
            <DistanceMeters>NAN</DistanceMeters>
          </Trackpoint>
          <Trackpoint>
            <Time>2022-07-07T17:16:33.000Z</Time>
            <Position>
              <LatitudeDegrees>43.48754013888537883758544921875</LatitudeDegrees>
              <LongitudeDegrees>-1.5539386309683322906494140625</LongitudeDegrees>
            </Position>
            <AltitudeMeters>40.40000152587890625</AltitudeMeters>
            <DistanceMeters>NAN</DistanceMeters>
          </Trackpoint>
          <Trackpoint>
            <Time>2022-07-07T17:16:36.000Z</Time>
            <Position>
              <LatitudeDegrees>43.48744173534214496612548828125</LatitudeDegrees>
              <LongitudeDegrees>-1.55409629456698894500732421875</LongitudeDegrees>
            </Position>
            <AltitudeMeters>39.40000152587890625</AltitudeMeters>
            <DistanceMeters>NAN</DistanceMeters>
          </Trackpoint>
          <Trackpoint>
            <Time>2022-07-07T17:16:37.000Z</Time>
            <Position>
              <LatitudeDegrees>43.48741290159523487091064453125</LatitudeDegrees>
              <LongitudeDegrees>-1.55414055101573467254638671875</LongitudeDegrees>
            </Position>
            <AltitudeMeters>39.200000762939453125</AltitudeMeters>
            <DistanceMeters>NAN</DistanceMeters>
          </Trackpoint>
          <Trackpoint>
            <Time>2022-07-07T17:16:39.000Z</Time>
            <Position>
              <LatitudeDegrees>43.487386666238307952880859375</LatitudeDegrees>
              <LongitudeDegrees>-1.5542068518698215484619140625</LongitudeDegrees>
            </Position>
            <AltitudeMeters>38.40000152587890625</AltitudeMeters>
            <DistanceMeters>NAN</DistanceMeters>
          </Trackpoint>
          <Trackpoint>
            <Time>2022-07-07T17:16:40.000Z</Time>
            <Position>
              <LatitudeDegrees>43.48738406784832477569580078125</LatitudeDegrees>
              <LongitudeDegrees>-1.55422956682741641998291015625</LongitudeDegrees>
            </Position>
            <AltitudeMeters>38</AltitudeMeters>
            <DistanceMeters>NAN</DistanceMeters>
          </Trackpoint>
          <Trackpoint>
            <Time>2022-07-07T17:16:41.000Z</Time>
            <Position>
              <LatitudeDegrees>43.48738591186702251434326171875</LatitudeDegrees>
              <LongitudeDegrees>-1.55424482189118862152099609375</LongitudeDegrees>
            </Position>
            <AltitudeMeters>37.799999237060546875</AltitudeMeters>
            <DistanceMeters>NAN</DistanceMeters>
          </Trackpoint>
          <Trackpoint>
            <Time>2022-07-07T17:16:42.000Z</Time>
            <Position>
              <LatitudeDegrees>43.487393371760845184326171875</LatitudeDegrees>
              <LongitudeDegrees>-1.55425756238400936126708984375</LongitudeDegrees>
            </Position>
            <AltitudeMeters>37.59999847412109375</AltitudeMeters>
            <DistanceMeters>NAN</DistanceMeters>
          </Trackpoint>
          <Trackpoint>
            <Time>2022-07-07T17:16:47.000Z</Time>
            <Position>
              <LatitudeDegrees>43.48749118857085704803466796875</LatitudeDegrees>
              <LongitudeDegrees>-1.5543480031192302703857421875</LongitudeDegrees>
            </Position>
            <AltitudeMeters>37</AltitudeMeters>
            <DistanceMeters>NAN</DistanceMeters>
          </Trackpoint>
          <Trackpoint>
            <Time>2022-07-07T17:16:48.000Z</Time>
            <Position>
              <LatitudeDegrees>43.4875082038342952728271484375</LatitudeDegrees>
              <LongitudeDegrees>-1.55436091125011444091796875</LongitudeDegrees>
            </Position>
            <AltitudeMeters>36.59999847412109375</AltitudeMeters>
            <DistanceMeters>NAN</DistanceMeters>
          </Trackpoint>
          <Trackpoint>
            <Time>2022-07-07T17:16:49.000Z</Time>
            <Position>
              <LatitudeDegrees>43.4875242970883846282958984375</LatitudeDegrees>
              <LongitudeDegrees>-1.55437155626714229583740234375</LongitudeDegrees>
            </Position>
            <AltitudeMeters>36.40000152587890625</AltitudeMeters>
            <DistanceMeters>NAN</DistanceMeters>
          </Trackpoint>
          <Trackpoint>
            <Time>2022-07-07T17:16:51.000Z</Time>
            <Position>
              <LatitudeDegrees>43.48755220882594585418701171875</LatitudeDegrees>
              <LongitudeDegrees>-1.55439837835729122161865234375</LongitudeDegrees>
            </Position>
            <AltitudeMeters>35.799999237060546875</AltitudeMeters>
            <DistanceMeters>NAN</DistanceMeters>
          </Trackpoint>
          <Trackpoint>
            <Time>2022-07-07T17:16:53.000Z</Time>
            <Position>
              <LatitudeDegrees>43.4875826351344585418701171875</LatitudeDegrees>
              <LongitudeDegrees>-1.55443844385445117950439453125</LongitudeDegrees>
            </Position>
            <AltitudeMeters>35.59999847412109375</AltitudeMeters>
            <DistanceMeters>NAN</DistanceMeters>
          </Trackpoint>
          <Trackpoint>
            <Time>2022-07-07T17:16:56.000Z</Time>
            <Position>
              <LatitudeDegrees>43.487638793885707855224609375</LatitudeDegrees>
              <LongitudeDegrees>-1.55450834892690181732177734375</LongitudeDegrees>
            </Position>
            <AltitudeMeters>34.799999237060546875</AltitudeMeters>
            <DistanceMeters>NAN</DistanceMeters>
          </Trackpoint>
          <Trackpoint>
            <Time>2022-07-07T17:16:59.000Z</Time>
            <Position>
              <LatitudeDegrees>43.48770995624363422393798828125</LatitudeDegrees>
              <LongitudeDegrees>-1.55459317378699779510498046875</LongitudeDegrees>
            </Position>
            <AltitudeMeters>34</AltitudeMeters>
            <DistanceMeters>NAN</DistanceMeters>
          </Trackpoint>
          <Trackpoint>
            <Time>2022-07-07T17:17:00.000Z</Time>
            <Position>
              <LatitudeDegrees>43.48773091100156307220458984375</LatitudeDegrees>
              <LongitudeDegrees>-1.55463273636996746063232421875</LongitudeDegrees>
            </Position>
            <AltitudeMeters>33.59999847412109375</AltitudeMeters>
            <DistanceMeters>NAN</DistanceMeters>
          </Trackpoint>
          <Trackpoint>
            <Time>2022-07-07T17:17:03.000Z</Time>
            <Position>
              <LatitudeDegrees>43.48775756545364856719970703125</LatitudeDegrees>
              <LongitudeDegrees>-1.55471026897430419921875</LongitudeDegrees>
            </Position>
            <AltitudeMeters>32.40000152587890625</AltitudeMeters>
            <DistanceMeters>NAN</DistanceMeters>
          </Trackpoint>
          <Trackpoint>
            <Time>2022-07-07T17:17:04.000Z</Time>
            <Position>
              <LatitudeDegrees>43.48775270394980907440185546875</LatitudeDegrees>
              <LongitudeDegrees>-1.5547114424407482147216796875</LongitudeDegrees>
            </Position>
            <AltitudeMeters>32</AltitudeMeters>
            <DistanceMeters>NAN</DistanceMeters>
          </Trackpoint>
          <Trackpoint>
            <Time>2022-07-07T17:17:07.000Z</Time>
            <Position>
              <LatitudeDegrees>43.4877177514135837554931640625</LatitudeDegrees>
              <LongitudeDegrees>-1.55472409911453723907470703125</LongitudeDegrees>
            </Position>
            <AltitudeMeters>31.799999237060546875</AltitudeMeters>
            <DistanceMeters>NAN</DistanceMeters>
          </Trackpoint>
          <Trackpoint>
            <Time>2022-07-07T17:17:10.000Z</Time>
            <Position>
              <LatitudeDegrees>43.4877155721187591552734375</LatitudeDegrees>
              <LongitudeDegrees>-1.554737426340579986572265625</LongitudeDegrees>
            </Position>
            <AltitudeMeters>31.799999237060546875</AltitudeMeters>
            <DistanceMeters>NAN</DistanceMeters>
          </Trackpoint>
          <Trackpoint>
            <Time>2022-07-07T17:17:11.000Z</Time>
            <Position>
              <LatitudeDegrees>43.4877155721187591552734375</LatitudeDegrees>
              <LongitudeDegrees>-1.554737426340579986572265625</LongitudeDegrees>
            </Position>
            <AltitudeMeters>31.799999237060546875</AltitudeMeters>
            <DistanceMeters>NAN</DistanceMeters>
          </Trackpoint>
          <Trackpoint>
            <Time>2022-07-07T17:17:55.000Z</Time>
            <Position>
              <LatitudeDegrees>43.48773912526667118072509765625</LatitudeDegrees>
              <LongitudeDegrees>-1.5547050721943378448486328125</LongitudeDegrees>
            </Position>
            <AltitudeMeters>32.200000762939453125</AltitudeMeters>
            <DistanceMeters>NAN</DistanceMeters>
          </Trackpoint>
          <Trackpoint>
            <Time>2022-07-07T17:17:56.000Z</Time>
            <Position>
              <LatitudeDegrees>43.4877234511077404022216796875</LatitudeDegrees>
              <LongitudeDegrees>-1.5547184832394123077392578125</LongitudeDegrees>
            </Position>
            <AltitudeMeters>32.200000762939453125</AltitudeMeters>
            <DistanceMeters>NAN</DistanceMeters>
          </Trackpoint>
          <Trackpoint>
            <Time>2022-07-07T17:17:57.000Z</Time>
            <Position>
              <LatitudeDegrees>43.48770643584430217742919921875</LatitudeDegrees>
              <LongitudeDegrees>-1.5547288767993450164794921875</LongitudeDegrees>
            </Position>
            <AltitudeMeters>32</AltitudeMeters>
            <DistanceMeters>NAN</DistanceMeters>
          </Trackpoint>
          <Trackpoint>
            <Time>2022-07-07T17:18:01.000Z</Time>
            <Position>
              <LatitudeDegrees>43.4876577369868755340576171875</LatitudeDegrees>
              <LongitudeDegrees>-1.5547681041061878204345703125</LongitudeDegrees>
            </Position>
            <AltitudeMeters>32</AltitudeMeters>
            <DistanceMeters>NAN</DistanceMeters>
          </Trackpoint>
          <Trackpoint>
            <Time>2022-07-07T17:18:03.000Z</Time>
            <Position>
              <LatitudeDegrees>43.4876413084566593170166015625</LatitudeDegrees>
              <LongitudeDegrees>-1.554795764386653900146484375</LongitudeDegrees>
            </Position>
            <AltitudeMeters>32</AltitudeMeters>
            <DistanceMeters>NAN</DistanceMeters>
          </Trackpoint>
          <Trackpoint>
            <Time>2022-07-07T17:18:05.000Z</Time>
            <Position>
              <LatitudeDegrees>43.4876190125942230224609375</LatitudeDegrees>
              <LongitudeDegrees>-1.554832644760608673095703125</LongitudeDegrees>
            </Position>
            <AltitudeMeters>32</AltitudeMeters>
            <DistanceMeters>NAN</DistanceMeters>
          </Trackpoint>
          <Trackpoint>
            <Time>2022-07-07T17:18:10.000Z</Time>
            <Position>
              <LatitudeDegrees>43.487514741718769073486328125</LatitudeDegrees>
              <LongitudeDegrees>-1.55498578213155269622802734375</LongitudeDegrees>
            </Position>
            <AltitudeMeters>31.6000003814697265625</AltitudeMeters>
            <DistanceMeters>NAN</DistanceMeters>
          </Trackpoint>
          <Trackpoint>
            <Time>2022-07-07T17:18:13.000Z</Time>
            <Position>
              <LatitudeDegrees>43.4874344430863857269287109375</LatitudeDegrees>
              <LongitudeDegrees>-1.55508837662637233734130859375</LongitudeDegrees>
            </Position>
            <AltitudeMeters>31.3999996185302734375</AltitudeMeters>
            <DistanceMeters>NAN</DistanceMeters>
          </Trackpoint>
          <Trackpoint>
            <Time>2022-07-07T17:18:17.000Z</Time>
            <Position>
              <LatitudeDegrees>43.48732204176485538482666015625</LatitudeDegrees>
              <LongitudeDegrees>-1.55523539520800113677978515625</LongitudeDegrees>
            </Position>
            <AltitudeMeters>31</AltitudeMeters>
            <DistanceMeters>NAN</DistanceMeters>
          </Trackpoint>
          <Trackpoint>
            <Time>2022-07-07T17:18:21.000Z</Time>
            <Position>
              <LatitudeDegrees>43.4872383065521717071533203125</LatitudeDegrees>
              <LongitudeDegrees>-1.55534100718796253204345703125</LongitudeDegrees>
            </Position>
            <AltitudeMeters>30.799999237060546875</AltitudeMeters>
            <DistanceMeters>NAN</DistanceMeters>
          </Trackpoint>
          <Trackpoint>
            <Time>2022-07-07T17:18:22.000Z</Time>
            <Position>
              <LatitudeDegrees>43.487231768667697906494140625</LatitudeDegrees>
              <LongitudeDegrees>-1.55535408295691013336181640625</LongitudeDegrees>
            </Position>
            <AltitudeMeters>30.799999237060546875</AltitudeMeters>
            <DistanceMeters>NAN</DistanceMeters>
          </Trackpoint>
          <Trackpoint>
            <Time>2022-07-07T17:18:25.000Z</Time>
            <Position>
              <LatitudeDegrees>43.48723688162863254547119140625</LatitudeDegrees>
              <LongitudeDegrees>-1.55537537299096584320068359375</LongitudeDegrees>
            </Position>
            <AltitudeMeters>30.6000003814697265625</AltitudeMeters>
            <DistanceMeters>NAN</DistanceMeters>
          </Trackpoint>
          <Trackpoint>
            <Time>2022-07-07T17:18:26.000Z</Time>
            <Position>
              <LatitudeDegrees>43.48724677227437496185302734375</LatitudeDegrees>
              <LongitudeDegrees>-1.55538953840732574462890625</LongitudeDegrees>
            </Position>
            <AltitudeMeters>30.799999237060546875</AltitudeMeters>
            <DistanceMeters>NAN</DistanceMeters>
          </Trackpoint>
          <Trackpoint>
            <Time>2022-07-07T17:18:30.000Z</Time>
            <Position>
              <LatitudeDegrees>43.487301506102085113525390625</LatitudeDegrees>
              <LongitudeDegrees>-1.5554430149495601654052734375</LongitudeDegrees>
            </Position>
            <AltitudeMeters>30.799999237060546875</AltitudeMeters>
            <DistanceMeters>NAN</DistanceMeters>
          </Trackpoint>
          <Trackpoint>
            <Time>2022-07-07T17:18:32.000Z</Time>
            <Position>
              <LatitudeDegrees>43.48732556216418743133544921875</LatitudeDegrees>
              <LongitudeDegrees>-1.55547897331416606903076171875</LongitudeDegrees>
            </Position>
            <AltitudeMeters>30</AltitudeMeters>
            <DistanceMeters>NAN</DistanceMeters>
          </Trackpoint>
          <Trackpoint>
            <Time>2022-07-07T17:18:34.000Z</Time>
            <Position>
              <LatitudeDegrees>43.4873533062636852264404296875</LatitudeDegrees>
              <LongitudeDegrees>-1.555523313581943511962890625</LongitudeDegrees>
            </Position>
            <AltitudeMeters>28.799999237060546875</AltitudeMeters>
            <DistanceMeters>NAN</DistanceMeters>
          </Trackpoint>
          <Trackpoint>
            <Time>2022-07-07T17:18:36.000Z</Time>
            <Position>
              <LatitudeDegrees>43.48737937398254871368408203125</LatitudeDegrees>
              <LongitudeDegrees>-1.55557016842067241668701171875</LongitudeDegrees>
            </Position>
            <AltitudeMeters>27.6000003814697265625</AltitudeMeters>
            <DistanceMeters>NAN</DistanceMeters>
          </Trackpoint>
          <Trackpoint>
            <Time>2022-07-07T17:18:39.000Z</Time>
            <Position>
              <LatitudeDegrees>43.4874307550489902496337890625</LatitudeDegrees>
              <LongitudeDegrees>-1.5556505508720874786376953125</LongitudeDegrees>
            </Position>
            <AltitudeMeters>26.200000762939453125</AltitudeMeters>
            <DistanceMeters>NAN</DistanceMeters>
          </Trackpoint>
          <Trackpoint>
            <Time>2022-07-07T17:18:42.000Z</Time>
            <Position>
              <LatitudeDegrees>43.48748020827770233154296875</LatitudeDegrees>
              <LongitudeDegrees>-1.55571877956390380859375</LongitudeDegrees>
            </Position>
            <AltitudeMeters>24.6000003814697265625</AltitudeMeters>
            <DistanceMeters>NAN</DistanceMeters>
          </Trackpoint>
          <Trackpoint>
            <Time>2022-07-07T17:18:45.000Z</Time>
            <Position>
              <LatitudeDegrees>43.487535528838634490966796875</LatitudeDegrees>
              <LongitudeDegrees>-1.5557430870831012725830078125</LongitudeDegrees>
            </Position>
            <AltitudeMeters>23.3999996185302734375</AltitudeMeters>
            <DistanceMeters>NAN</DistanceMeters>
          </Trackpoint>
          <Trackpoint>
            <Time>2022-07-07T17:18:48.000Z</Time>
            <Position>
              <LatitudeDegrees>43.48754064179956912994384765625</LatitudeDegrees>
              <LongitudeDegrees>-1.55574954114854335784912109375</LongitudeDegrees>
            </Position>
            <AltitudeMeters>22.6000003814697265625</AltitudeMeters>
            <DistanceMeters>NAN</DistanceMeters>
          </Trackpoint>
          <Trackpoint>
            <Time>2022-07-07T17:19:41.000Z</Time>
            <Position>
              <LatitudeDegrees>43.4875216148793697357177734375</LatitudeDegrees>
              <LongitudeDegrees>-1.55576848424971103668212890625</LongitudeDegrees>
            </Position>
            <AltitudeMeters>22.3999996185302734375</AltitudeMeters>
            <DistanceMeters>NAN</DistanceMeters>
          </Trackpoint>
          <Trackpoint>
            <Time>2022-07-07T17:19:42.000Z</Time>
            <Position>
              <LatitudeDegrees>43.48750510253012180328369140625</LatitudeDegrees>
              <LongitudeDegrees>-1.55578860081732273101806640625</LongitudeDegrees>
            </Position>
            <AltitudeMeters>22.200000762939453125</AltitudeMeters>
            <DistanceMeters>NAN</DistanceMeters>
          </Trackpoint>
          <Trackpoint>
            <Time>2022-07-07T17:19:46.000Z</Time>
            <Position>
              <LatitudeDegrees>43.487422876060009002685546875</LatitudeDegrees>
              <LongitudeDegrees>-1.5558818913996219635009765625</LongitudeDegrees>
            </Position>
            <AltitudeMeters>22.200000762939453125</AltitudeMeters>
            <DistanceMeters>NAN</DistanceMeters>
          </Trackpoint>
          <Trackpoint>
            <Time>2022-07-07T17:19:54.000Z</Time>
            <Position>
              <LatitudeDegrees>43.48727778531610965728759765625</LatitudeDegrees>
              <LongitudeDegrees>-1.55606738291680812835693359375</LongitudeDegrees>
            </Position>
            <AltitudeMeters>23</AltitudeMeters>
            <DistanceMeters>NAN</DistanceMeters>
          </Trackpoint>
          <Trackpoint>
            <Time>2022-07-07T17:19:58.000Z</Time>
            <Position>
              <LatitudeDegrees>43.4872269071638584136962890625</LatitudeDegrees>
              <LongitudeDegrees>-1.55616964213550090789794921875</LongitudeDegrees>
            </Position>
            <AltitudeMeters>22.3999996185302734375</AltitudeMeters>
            <DistanceMeters>NAN</DistanceMeters>
          </Trackpoint>
          <Trackpoint>
            <Time>2022-07-07T17:20:01.000Z</Time>
            <Position>
              <LatitudeDegrees>43.48720435984432697296142578125</LatitudeDegrees>
              <LongitudeDegrees>-1.5562619268894195556640625</LongitudeDegrees>
            </Position>
            <AltitudeMeters>22.200000762939453125</AltitudeMeters>
            <DistanceMeters>NAN</DistanceMeters>
          </Trackpoint>
          <Trackpoint>
            <Time>2022-07-07T17:20:06.000Z</Time>
            <Position>
              <LatitudeDegrees>43.48720653913915157318115234375</LatitudeDegrees>
              <LongitudeDegrees>-1.55642361380159854888916015625</LongitudeDegrees>
            </Position>
            <AltitudeMeters>21.799999237060546875</AltitudeMeters>
            <DistanceMeters>NAN</DistanceMeters>
          </Trackpoint>
          <Trackpoint>
            <Time>2022-07-07T17:20:13.000Z</Time>
            <Position>
              <LatitudeDegrees>43.487181477248668670654296875</LatitudeDegrees>
              <LongitudeDegrees>-1.55660399235785007476806640625</LongitudeDegrees>
            </Position>
            <AltitudeMeters>22</AltitudeMeters>
            <DistanceMeters>NAN</DistanceMeters>
          </Trackpoint>
          <Trackpoint>
            <Time>2022-07-07T17:20:19.000Z</Time>
            <Position>
              <LatitudeDegrees>43.4871120750904083251953125</LatitudeDegrees>
              <LongitudeDegrees>-1.55675101093947887420654296875</LongitudeDegrees>
            </Position>
            <AltitudeMeters>21.6000003814697265625</AltitudeMeters>
            <DistanceMeters>NAN</DistanceMeters>
          </Trackpoint>
          <Trackpoint>
            <Time>2022-07-07T17:20:20.000Z</Time>
            <Position>
              <LatitudeDegrees>43.4870958141982555389404296875</LatitudeDegrees>
              <LongitudeDegrees>-1.55676660127937793731689453125</LongitudeDegrees>
            </Position>
            <AltitudeMeters>21.6000003814697265625</AltitudeMeters>
            <DistanceMeters>NAN</DistanceMeters>
          </Trackpoint>
          <Trackpoint>
            <Time>2022-07-07T17:20:27.000Z</Time>
            <Position>
              <LatitudeDegrees>43.4869677387177944183349609375</LatitudeDegrees>
              <LongitudeDegrees>-1.556863076984882354736328125</LongitudeDegrees>
            </Position>
            <AltitudeMeters>21.6000003814697265625</AltitudeMeters>
            <DistanceMeters>NAN</DistanceMeters>
          </Trackpoint>
          <Trackpoint>
            <Time>2022-07-07T17:21:07.000Z</Time>
            <Position>
              <LatitudeDegrees>43.48639399744570255279541015625</LatitudeDegrees>
              <LongitudeDegrees>-1.5571938268840312957763671875</LongitudeDegrees>
            </Position>
            <AltitudeMeters>22</AltitudeMeters>
            <DistanceMeters>NAN</DistanceMeters>
          </Trackpoint>
          <Trackpoint>
            <Time>2022-07-07T17:21:09.000Z</Time>
            <Position>
              <LatitudeDegrees>43.48635409958660602569580078125</LatitudeDegrees>
              <LongitudeDegrees>-1.55726951546967029571533203125</LongitudeDegrees>
            </Position>
            <AltitudeMeters>22</AltitudeMeters>
            <DistanceMeters>NAN</DistanceMeters>
          </Trackpoint>
          <Trackpoint>
            <Time>2022-07-07T17:21:10.000Z</Time>
            <Position>
              <LatitudeDegrees>43.48633448593318462371826171875</LatitudeDegrees>
              <LongitudeDegrees>-1.5572677552700042724609375</LongitudeDegrees>
            </Position>
            <AltitudeMeters>22</AltitudeMeters>
            <DistanceMeters>NAN</DistanceMeters>
          </Trackpoint>
          <Trackpoint>
            <Time>2022-07-07T17:21:16.000Z</Time>
            <Position>
              <LatitudeDegrees>43.48623432219028472900390625</LatitudeDegrees>
              <LongitudeDegrees>-1.55732466839253902435302734375</LongitudeDegrees>
            </Position>
            <AltitudeMeters>21.6000003814697265625</AltitudeMeters>
            <DistanceMeters>NAN</DistanceMeters>
          </Trackpoint>
          <Trackpoint>
            <Time>2022-07-07T17:21:20.000Z</Time>
            <Position>
              <LatitudeDegrees>43.48617858253419399261474609375</LatitudeDegrees>
              <LongitudeDegrees>-1.55735702253878116607666015625</LongitudeDegrees>
            </Position>
            <AltitudeMeters>21.3999996185302734375</AltitudeMeters>
            <DistanceMeters>NAN</DistanceMeters>
          </Trackpoint>
          <Trackpoint>
            <Time>2022-07-07T17:21:22.000Z</Time>
            <Position>
              <LatitudeDegrees>43.48615645430982112884521484375</LatitudeDegrees>
              <LongitudeDegrees>-1.5573517419397830963134765625</LongitudeDegrees>
            </Position>
            <AltitudeMeters>21.3999996185302734375</AltitudeMeters>
            <DistanceMeters>NAN</DistanceMeters>
          </Trackpoint>
          <Trackpoint>
            <Time>2022-07-07T17:21:28.000Z</Time>
            <Position>
              <LatitudeDegrees>43.48608856089413166046142578125</LatitudeDegrees>
              <LongitudeDegrees>-1.5573902986943721771240234375</LongitudeDegrees>
            </Position>
            <AltitudeMeters>21.6000003814697265625</AltitudeMeters>
            <DistanceMeters>NAN</DistanceMeters>
          </Trackpoint>
          <Trackpoint>
            <Time>2022-07-07T17:21:34.000Z</Time>
            <Position>
              <LatitudeDegrees>43.48595269024372100830078125</LatitudeDegrees>
              <LongitudeDegrees>-1.5574979223310947418212890625</LongitudeDegrees>
            </Position>
            <AltitudeMeters>21.6000003814697265625</AltitudeMeters>
            <DistanceMeters>NAN</DistanceMeters>
          </Trackpoint>
          <Trackpoint>
            <Time>2022-07-07T17:21:41.000Z</Time>
            <Position>
              <LatitudeDegrees>43.48579234443604946136474609375</LatitudeDegrees>
              <LongitudeDegrees>-1.55764284543693065643310546875</LongitudeDegrees>
            </Position>
            <AltitudeMeters>21.3999996185302734375</AltitudeMeters>
            <DistanceMeters>NAN</DistanceMeters>
          </Trackpoint>
          <Trackpoint>
            <Time>2022-07-07T17:21:52.000Z</Time>
            <Position>
              <LatitudeDegrees>43.4855035878717899322509765625</LatitudeDegrees>
              <LongitudeDegrees>-1.55787703581154346466064453125</LongitudeDegrees>
            </Position>
            <AltitudeMeters>21.3999996185302734375</AltitudeMeters>
            <DistanceMeters>NAN</DistanceMeters>
          </Trackpoint>
          <Trackpoint>
            <Time>2022-07-07T17:21:58.000Z</Time>
            <Position>
              <LatitudeDegrees>43.48534542135894298553466796875</LatitudeDegrees>
              <LongitudeDegrees>-1.55802137218415737152099609375</LongitudeDegrees>
            </Position>
            <AltitudeMeters>21.3999996185302734375</AltitudeMeters>
            <DistanceMeters>NAN</DistanceMeters>
          </Trackpoint>
          <Trackpoint>
            <Time>2022-07-07T17:22:00.000Z</Time>
            <Position>
              <LatitudeDegrees>43.4852896817028522491455078125</LatitudeDegrees>
              <LongitudeDegrees>-1.5580615215003490447998046875</LongitudeDegrees>
            </Position>
            <AltitudeMeters>21.3999996185302734375</AltitudeMeters>
            <DistanceMeters>NAN</DistanceMeters>
          </Trackpoint>
          <Trackpoint>
            <Time>2022-07-07T17:22:08.000Z</Time>
            <Position>
              <LatitudeDegrees>43.48509304225444793701171875</LatitudeDegrees>
              <LongitudeDegrees>-1.5582670457661151885986328125</LongitudeDegrees>
            </Position>
            <AltitudeMeters>21.200000762939453125</AltitudeMeters>
            <DistanceMeters>NAN</DistanceMeters>
          </Trackpoint>
          <Trackpoint>
            <Time>2022-07-07T17:22:10.000Z</Time>
            <Position>
              <LatitudeDegrees>43.485045768320560455322265625</LatitudeDegrees>
              <LongitudeDegrees>-1.5583116374909877777099609375</LongitudeDegrees>
            </Position>
            <AltitudeMeters>21.200000762939453125</AltitudeMeters>
            <DistanceMeters>NAN</DistanceMeters>
          </Trackpoint>
          <Trackpoint>
            <Time>2022-07-07T17:22:16.000Z</Time>
            <Position>
              <LatitudeDegrees>43.48487284965813159942626953125</LatitudeDegrees>
              <LongitudeDegrees>-1.55842638574540615081787109375</LongitudeDegrees>
            </Position>
            <AltitudeMeters>21.200000762939453125</AltitudeMeters>
            <DistanceMeters>NAN</DistanceMeters>
          </Trackpoint>
          <Trackpoint>
            <Time>2022-07-07T17:22:19.000Z</Time>
            <Position>
              <LatitudeDegrees>43.48480562679469585418701171875</LatitudeDegrees>
              <LongitudeDegrees>-1.55850819312036037445068359375</LongitudeDegrees>
            </Position>
            <AltitudeMeters>21</AltitudeMeters>
            <DistanceMeters>NAN</DistanceMeters>
          </Trackpoint>
          <Trackpoint>
            <Time>2022-07-07T17:22:25.000Z</Time>
            <Position>
              <LatitudeDegrees>43.48469263873994350433349609375</LatitudeDegrees>
              <LongitudeDegrees>-1.5586750768125057220458984375</LongitudeDegrees>
            </Position>
            <AltitudeMeters>21.200000762939453125</AltitudeMeters>
            <DistanceMeters>NAN</DistanceMeters>
          </Trackpoint>
          <Trackpoint>
            <Time>2022-07-07T17:22:26.000Z</Time>
            <Position>
              <LatitudeDegrees>43.48467520438134670257568359375</LatitudeDegrees>
              <LongitudeDegrees>-1.5586988814175128936767578125</LongitudeDegrees>
            </Position>
            <AltitudeMeters>21.200000762939453125</AltitudeMeters>
            <DistanceMeters>NAN</DistanceMeters>
          </Trackpoint>
          <Trackpoint>
            <Time>2022-07-07T17:22:27.000Z</Time>
            <Position>
              <LatitudeDegrees>43.4846560098230838775634765625</LatitudeDegrees>
              <LongitudeDegrees>-1.55871975235641002655029296875</LongitudeDegrees>
            </Position>
            <AltitudeMeters>21</AltitudeMeters>
            <DistanceMeters>NAN</DistanceMeters>
          </Trackpoint>
          <Trackpoint>
            <Time>2022-07-07T17:22:35.000Z</Time>
            <Position>
              <LatitudeDegrees>43.4844982624053955078125</LatitudeDegrees>
              <LongitudeDegrees>-1.5588663518428802490234375</LongitudeDegrees>
            </Position>
            <AltitudeMeters>21.200000762939453125</AltitudeMeters>
            <DistanceMeters>NAN</DistanceMeters>
          </Trackpoint>
          <Trackpoint>
            <Time>2022-07-07T17:22:38.000Z</Time>
            <Position>
              <LatitudeDegrees>43.48446951247751712799072265625</LatitudeDegrees>
              <LongitudeDegrees>-1.55894841067492961883544921875</LongitudeDegrees>
            </Position>
            <AltitudeMeters>21</AltitudeMeters>
            <DistanceMeters>NAN</DistanceMeters>
          </Trackpoint>
          <Trackpoint>
            <Time>2022-07-07T17:22:40.000Z</Time>
            <Position>
              <LatitudeDegrees>43.48443682305514812469482421875</LatitudeDegrees>
              <LongitudeDegrees>-1.55900272540748119354248046875</LongitudeDegrees>
            </Position>
            <AltitudeMeters>21</AltitudeMeters>
            <DistanceMeters>NAN</DistanceMeters>
          </Trackpoint>
          <Trackpoint>
            <Time>2022-07-07T17:22:49.000Z</Time>
            <Position>
              <LatitudeDegrees>43.48429416306316852569580078125</LatitudeDegrees>
              <LongitudeDegrees>-1.559240184724330902099609375</LongitudeDegrees>
            </Position>
            <AltitudeMeters>20.6000003814697265625</AltitudeMeters>
            <DistanceMeters>NAN</DistanceMeters>
          </Trackpoint>
          <Trackpoint>
            <Time>2022-07-07T17:22:57.000Z</Time>
            <Position>
              <LatitudeDegrees>43.48411948420107364654541015625</LatitudeDegrees>
              <LongitudeDegrees>-1.55942064709961414337158203125</LongitudeDegrees>
            </Position>
            <AltitudeMeters>20.6000003814697265625</AltitudeMeters>
            <DistanceMeters>NAN</DistanceMeters>
          </Trackpoint>
          <Trackpoint>
            <Time>2022-07-07T17:22:58.000Z</Time>
            <Position>
              <LatitudeDegrees>43.48409936763346195220947265625</LatitudeDegrees>
              <LongitudeDegrees>-1.559446044266223907470703125</LongitudeDegrees>
            </Position>
            <AltitudeMeters>20.6000003814697265625</AltitudeMeters>
            <DistanceMeters>NAN</DistanceMeters>
          </Trackpoint>
          <Trackpoint>
            <Time>2022-07-07T17:23:03.000Z</Time>
            <Position>
              <LatitudeDegrees>43.48400683142244815826416015625</LatitudeDegrees>
              <LongitudeDegrees>-1.55957303009927272796630859375</LongitudeDegrees>
            </Position>
            <AltitudeMeters>20.3999996185302734375</AltitudeMeters>
            <DistanceMeters>NAN</DistanceMeters>
          </Trackpoint>
          <Trackpoint>
            <Time>2022-07-07T17:23:04.000Z</Time>
            <Position>
              <LatitudeDegrees>43.48398788832128047943115234375</LatitudeDegrees>
              <LongitudeDegrees>-1.55959716998040676116943359375</LongitudeDegrees>
            </Position>
            <AltitudeMeters>20.200000762939453125</AltitudeMeters>
            <DistanceMeters>NAN</DistanceMeters>
          </Trackpoint>
          <Trackpoint>
            <Time>2022-07-07T17:23:06.000Z</Time>
            <Position>
              <LatitudeDegrees>43.48395754583179950714111328125</LatitudeDegrees>
              <LongitudeDegrees>-1.55964494682848453521728515625</LongitudeDegrees>
            </Position>
            <AltitudeMeters>20</AltitudeMeters>
            <DistanceMeters>NAN</DistanceMeters>
          </Trackpoint>
          <Trackpoint>
            <Time>2022-07-07T17:23:13.000Z</Time>
            <Position>
              <LatitudeDegrees>43.48386484198272228240966796875</LatitudeDegrees>
              <LongitudeDegrees>-1.5598011016845703125</LongitudeDegrees>
            </Position>
            <AltitudeMeters>20</AltitudeMeters>
            <DistanceMeters>NAN</DistanceMeters>
          </Trackpoint>
          <Trackpoint>
            <Time>2022-07-07T17:23:19.000Z</Time>
            <Position>
              <LatitudeDegrees>43.48382829688489437103271484375</LatitudeDegrees>
              <LongitudeDegrees>-1.55985985882580280303955078125</LongitudeDegrees>
            </Position>
            <AltitudeMeters>20</AltitudeMeters>
            <DistanceMeters>NAN</DistanceMeters>
          </Trackpoint>
          <Trackpoint>
            <Time>2022-07-07T17:25:00.000Z</Time>
            <Position>
              <LatitudeDegrees>43.4838010556995868682861328125</LatitudeDegrees>
              <LongitudeDegrees>-1.5599177777767181396484375</LongitudeDegrees>
            </Position>
            <AltitudeMeters>19</AltitudeMeters>
            <DistanceMeters>NAN</DistanceMeters>
          </Trackpoint>
          <Trackpoint>
            <Time>2022-07-07T17:25:02.000Z</Time>
            <Position>
              <LatitudeDegrees>43.48376777954399585723876953125</LatitudeDegrees>
              <LongitudeDegrees>-1.5599672310054302215576171875</LongitudeDegrees>
            </Position>
            <AltitudeMeters>18.799999237060546875</AltitudeMeters>
            <DistanceMeters>NAN</DistanceMeters>
          </Trackpoint>
          <Trackpoint>
            <Time>2022-07-07T17:25:07.000Z</Time>
            <Position>
              <LatitudeDegrees>43.48369586281478404998779296875</LatitudeDegrees>
              <LongitudeDegrees>-1.5600733458995819091796875</LongitudeDegrees>
            </Position>
            <AltitudeMeters>19</AltitudeMeters>
            <DistanceMeters>NAN</DistanceMeters>
          </Trackpoint>
          <Trackpoint>
            <Time>2022-07-07T17:25:08.000Z</Time>
            <Position>
              <LatitudeDegrees>43.48368178121745586395263671875</LatitudeDegrees>
              <LongitudeDegrees>-1.56009388156235218048095703125</LongitudeDegrees>
            </Position>
            <AltitudeMeters>19</AltitudeMeters>
            <DistanceMeters>NAN</DistanceMeters>
          </Trackpoint>
          <Trackpoint>
            <Time>2022-07-07T17:25:13.000Z</Time>
            <Position>
              <LatitudeDegrees>43.4835844673216342926025390625</LatitudeDegrees>
              <LongitudeDegrees>-1.56025162898004055023193359375</LongitudeDegrees>
            </Position>
            <AltitudeMeters>19.200000762939453125</AltitudeMeters>
            <DistanceMeters>NAN</DistanceMeters>
          </Trackpoint>
          <Trackpoint>
            <Time>2022-07-07T17:25:18.000Z</Time>
            <Position>
              <LatitudeDegrees>43.48350760526955127716064453125</LatitudeDegrees>
              <LongitudeDegrees>-1.560431420803070068359375</LongitudeDegrees>
            </Position>
            <AltitudeMeters>19.799999237060546875</AltitudeMeters>
            <DistanceMeters>NAN</DistanceMeters>
          </Trackpoint>
          <Trackpoint>
            <Time>2022-07-07T17:25:19.000Z</Time>
            <Position>
              <LatitudeDegrees>43.48350089974701404571533203125</LatitudeDegrees>
              <LongitudeDegrees>-1.560470648109912872314453125</LongitudeDegrees>
            </Position>
            <AltitudeMeters>20</AltitudeMeters>
            <DistanceMeters>NAN</DistanceMeters>
          </Trackpoint>
          <Trackpoint>
            <Time>2022-07-07T17:25:24.000Z</Time>
            <Position>
              <LatitudeDegrees>43.4834459982812404632568359375</LatitudeDegrees>
              <LongitudeDegrees>-1.5606666170060634613037109375</LongitudeDegrees>
            </Position>
            <AltitudeMeters>20.200000762939453125</AltitudeMeters>
            <DistanceMeters>NAN</DistanceMeters>
          </Trackpoint>
          <Trackpoint>
            <Time>2022-07-07T17:25:29.000Z</Time>
            <Position>
              <LatitudeDegrees>43.48342227749526500701904296875</LatitudeDegrees>
              <LongitudeDegrees>-1.5608728118240833282470703125</LongitudeDegrees>
            </Position>
            <AltitudeMeters>19.3999996185302734375</AltitudeMeters>
            <DistanceMeters>NAN</DistanceMeters>
          </Trackpoint>
          <Trackpoint>
            <Time>2022-07-07T17:25:32.000Z</Time>
            <Position>
              <LatitudeDegrees>43.48341423086822032928466796875</LatitudeDegrees>
              <LongitudeDegrees>-1.56098118983209133148193359375</LongitudeDegrees>
            </Position>
            <AltitudeMeters>19</AltitudeMeters>
            <DistanceMeters>NAN</DistanceMeters>
          </Trackpoint>
          <Trackpoint>
            <Time>2022-07-07T17:25:37.000Z</Time>
            <Position>
              <LatitudeDegrees>43.48340199328958988189697265625</LatitudeDegrees>
              <LongitudeDegrees>-1.561150588095188140869140625</LongitudeDegrees>
            </Position>
            <AltitudeMeters>18.799999237060546875</AltitudeMeters>
            <DistanceMeters>NAN</DistanceMeters>
          </Trackpoint>
          <Trackpoint>
            <Time>2022-07-07T17:25:39.000Z</Time>
            <Position>
              <LatitudeDegrees>43.4833883307874202728271484375</LatitudeDegrees>
              <LongitudeDegrees>-1.5612285397946834564208984375</LongitudeDegrees>
            </Position>
            <AltitudeMeters>19</AltitudeMeters>
            <DistanceMeters>NAN</DistanceMeters>
          </Trackpoint>
          <Trackpoint>
            <Time>2022-07-07T17:25:41.000Z</Time>
            <Position>
              <LatitudeDegrees>43.48336896859109401702880859375</LatitudeDegrees>
              <LongitudeDegrees>-1.56130523420870304107666015625</LongitudeDegrees>
            </Position>
            <AltitudeMeters>19</AltitudeMeters>
            <DistanceMeters>NAN</DistanceMeters>
          </Trackpoint>
          <Trackpoint>
            <Time>2022-07-07T17:25:46.000Z</Time>
            <Position>
              <LatitudeDegrees>43.48334013484418392181396484375</LatitudeDegrees>
              <LongitudeDegrees>-1.56149935908615589141845703125</LongitudeDegrees>
            </Position>
            <AltitudeMeters>19.200000762939453125</AltitudeMeters>
            <DistanceMeters>NAN</DistanceMeters>
          </Trackpoint>
          <Trackpoint>
            <Time>2022-07-07T17:25:52.000Z</Time>
            <Position>
              <LatitudeDegrees>43.483347930014133453369140625</LatitudeDegrees>
              <LongitudeDegrees>-1.5617291070520877838134765625</LongitudeDegrees>
            </Position>
            <AltitudeMeters>20.200000762939453125</AltitudeMeters>
            <DistanceMeters>NAN</DistanceMeters>
          </Trackpoint>
          <Trackpoint>
            <Time>2022-07-07T17:25:57.000Z</Time>
            <Position>
              <LatitudeDegrees>43.48347910679876804351806640625</LatitudeDegrees>
              <LongitudeDegrees>-1.56186975538730621337890625</LongitudeDegrees>
            </Position>
            <AltitudeMeters>20.799999237060546875</AltitudeMeters>
            <DistanceMeters>NAN</DistanceMeters>
          </Trackpoint>
          <Trackpoint>
            <Time>2022-07-07T17:26:02.000Z</Time>
            <Position>
              <LatitudeDegrees>43.48365915007889270782470703125</LatitudeDegrees>
              <LongitudeDegrees>-1.5619589388370513916015625</LongitudeDegrees>
            </Position>
            <AltitudeMeters>21.3999996185302734375</AltitudeMeters>
            <DistanceMeters>NAN</DistanceMeters>
          </Trackpoint>
          <Trackpoint>
            <Time>2022-07-07T17:26:03.000Z</Time>
            <Position>
              <LatitudeDegrees>43.48367909900844097137451171875</LatitudeDegrees>
              <LongitudeDegrees>-1.56198349781334400177001953125</LongitudeDegrees>
            </Position>
            <AltitudeMeters>21.3999996185302734375</AltitudeMeters>
            <DistanceMeters>NAN</DistanceMeters>
          </Trackpoint>
          <Trackpoint>
            <Time>2022-07-07T17:26:08.000Z</Time>
            <Position>
              <LatitudeDegrees>43.48376710899174213409423828125</LatitudeDegrees>
              <LongitudeDegrees>-1.56212934292852878570556640625</LongitudeDegrees>
            </Position>
            <AltitudeMeters>22.200000762939453125</AltitudeMeters>
            <DistanceMeters>NAN</DistanceMeters>
          </Trackpoint>
          <Trackpoint>
            <Time>2022-07-07T17:26:09.000Z</Time>
            <Position>
              <LatitudeDegrees>43.483765013515949249267578125</LatitudeDegrees>
              <LongitudeDegrees>-1.5621642954647541046142578125</LongitudeDegrees>
            </Position>
            <AltitudeMeters>22.3999996185302734375</AltitudeMeters>
            <DistanceMeters>NAN</DistanceMeters>
          </Trackpoint>
          <Trackpoint>
            <Time>2022-07-07T17:26:11.000Z</Time>
            <Position>
              <LatitudeDegrees>43.48376509733498096466064453125</LatitudeDegrees>
              <LongitudeDegrees>-1.5622326917946338653564453125</LongitudeDegrees>
            </Position>
            <AltitudeMeters>22.799999237060546875</AltitudeMeters>
            <DistanceMeters>NAN</DistanceMeters>
          </Trackpoint>
          <Trackpoint>
            <Time>2022-07-07T17:26:16.000Z</Time>
            <Position>
              <LatitudeDegrees>43.4837024845182895660400390625</LatitudeDegrees>
              <LongitudeDegrees>-1.56237057410180568695068359375</LongitudeDegrees>
            </Position>
            <AltitudeMeters>23.200000762939453125</AltitudeMeters>
            <DistanceMeters>NAN</DistanceMeters>
          </Trackpoint>
          <Trackpoint>
            <Time>2022-07-07T17:26:23.000Z</Time>
            <Position>
              <LatitudeDegrees>43.48356242291629314422607421875</LatitudeDegrees>
              <LongitudeDegrees>-1.56254843808710575103759765625</LongitudeDegrees>
            </Position>
            <AltitudeMeters>22.799999237060546875</AltitudeMeters>
            <DistanceMeters>NAN</DistanceMeters>
          </Trackpoint>
          <Trackpoint>
            <Time>2022-07-07T17:26:26.000Z</Time>
            <Position>
              <LatitudeDegrees>43.48349335603415966033935546875</LatitudeDegrees>
              <LongitudeDegrees>-1.56256972812116146087646484375</LongitudeDegrees>
            </Position>
            <AltitudeMeters>23</AltitudeMeters>
            <DistanceMeters>NAN</DistanceMeters>
          </Trackpoint>
          <Trackpoint>
            <Time>2022-07-07T17:26:27.000Z</Time>
            <Position>
              <LatitudeDegrees>43.4834755025804042816162109375</LatitudeDegrees>
              <LongitudeDegrees>-1.562558747828006744384765625</LongitudeDegrees>
            </Position>
            <AltitudeMeters>23</AltitudeMeters>
            <DistanceMeters>NAN</DistanceMeters>
          </Trackpoint>
          <Trackpoint>
            <Time>2022-07-07T17:26:28.000Z</Time>
            <Position>
              <LatitudeDegrees>43.48345932550728321075439453125</LatitudeDegrees>
              <LongitudeDegrees>-1.56256151385605335235595703125</LongitudeDegrees>
            </Position>
            <AltitudeMeters>23</AltitudeMeters>
            <DistanceMeters>NAN</DistanceMeters>
          </Trackpoint>
          <Trackpoint>
            <Time>2022-07-07T17:26:30.000Z</Time>
            <Position>
              <LatitudeDegrees>43.48342328332364559173583984375</LatitudeDegrees>
              <LongitudeDegrees>-1.56259722076356410980224609375</LongitudeDegrees>
            </Position>
            <AltitudeMeters>23.3999996185302734375</AltitudeMeters>
            <DistanceMeters>NAN</DistanceMeters>
          </Trackpoint>
          <Trackpoint>
            <Time>2022-07-07T17:26:37.000Z</Time>
            <Position>
              <LatitudeDegrees>43.48333024419844150543212890625</LatitudeDegrees>
              <LongitudeDegrees>-1.5627986378967761993408203125</LongitudeDegrees>
            </Position>
            <AltitudeMeters>24.3999996185302734375</AltitudeMeters>
            <DistanceMeters>NAN</DistanceMeters>
          </Trackpoint>
          <Trackpoint>
            <Time>2022-07-07T17:26:38.000Z</Time>
            <Position>
              <LatitudeDegrees>43.48331750370562076568603515625</LatitudeDegrees>
              <LongitudeDegrees>-1.5628226101398468017578125</LongitudeDegrees>
            </Position>
            <AltitudeMeters>24.3999996185302734375</AltitudeMeters>
            <DistanceMeters>NAN</DistanceMeters>
          </Trackpoint>
          <Trackpoint>
            <Time>2022-07-07T17:26:44.000Z</Time>
            <Position>
              <LatitudeDegrees>43.48325681872665882110595703125</LatitudeDegrees>
              <LongitudeDegrees>-1.56297348439693450927734375</LongitudeDegrees>
            </Position>
            <AltitudeMeters>25.3999996185302734375</AltitudeMeters>
            <DistanceMeters>NAN</DistanceMeters>
          </Trackpoint>
          <Trackpoint>
            <Time>2022-07-07T17:26:45.000Z</Time>
            <Position>
              <LatitudeDegrees>43.483241312205791473388671875</LatitudeDegrees>
              <LongitudeDegrees>-1.5630011446774005889892578125</LongitudeDegrees>
            </Position>
            <AltitudeMeters>25.6000003814697265625</AltitudeMeters>
            <DistanceMeters>NAN</DistanceMeters>
          </Trackpoint>
          <Trackpoint>
            <Time>2022-07-07T17:26:47.000Z</Time>
            <Position>
              <LatitudeDegrees>43.48321742378175258636474609375</LatitudeDegrees>
              <LongitudeDegrees>-1.5630527772009372711181640625</LongitudeDegrees>
            </Position>
            <AltitudeMeters>25.799999237060546875</AltitudeMeters>
            <DistanceMeters>NAN</DistanceMeters>
          </Trackpoint>
          <Trackpoint>
            <Time>2022-07-07T17:26:53.000Z</Time>
            <Position>
              <LatitudeDegrees>43.48314039409160614013671875</LatitudeDegrees>
              <LongitudeDegrees>-1.5632167272269725799560546875</LongitudeDegrees>
            </Position>
            <AltitudeMeters>26.6000003814697265625</AltitudeMeters>
            <DistanceMeters>NAN</DistanceMeters>
          </Trackpoint>
          <Trackpoint>
            <Time>2022-07-07T17:26:54.000Z</Time>
            <Position>
              <LatitudeDegrees>43.48312991671264171600341796875</LatitudeDegrees>
              <LongitudeDegrees>-1.5632442198693752288818359375</LongitudeDegrees>
            </Position>
            <AltitudeMeters>26.799999237060546875</AltitudeMeters>
            <DistanceMeters>NAN</DistanceMeters>
          </Trackpoint>
          <Trackpoint>
            <Time>2022-07-07T17:26:57.000Z</Time>
            <Position>
              <LatitudeDegrees>43.4831026755273342132568359375</LatitudeDegrees>
              <LongitudeDegrees>-1.5633193217217922210693359375</LongitudeDegrees>
            </Position>
            <AltitudeMeters>27.200000762939453125</AltitudeMeters>
            <DistanceMeters>NAN</DistanceMeters>
          </Trackpoint>
          <Trackpoint>
            <Time>2022-07-07T17:27:01.000Z</Time>
            <Position>
              <LatitudeDegrees>43.48307845182716846466064453125</LatitudeDegrees>
              <LongitudeDegrees>-1.56342769972980022430419921875</LongitudeDegrees>
            </Position>
            <AltitudeMeters>27.6000003814697265625</AltitudeMeters>
            <DistanceMeters>NAN</DistanceMeters>
          </Trackpoint>
          <Trackpoint>
            <Time>2022-07-07T17:27:02.000Z</Time>
            <Position>
              <LatitudeDegrees>43.48307124339044094085693359375</LatitudeDegrees>
              <LongitudeDegrees>-1.563456617295742034912109375</LongitudeDegrees>
            </Position>
            <AltitudeMeters>27.799999237060546875</AltitudeMeters>
            <DistanceMeters>NAN</DistanceMeters>
          </Trackpoint>
          <Trackpoint>
            <Time>2022-07-07T17:27:09.000Z</Time>
            <Position>
              <LatitudeDegrees>43.483040817081928253173828125</LatitudeDegrees>
              <LongitudeDegrees>-1.56365803442895412445068359375</LongitudeDegrees>
            </Position>
            <AltitudeMeters>28.6000003814697265625</AltitudeMeters>
            <DistanceMeters>NAN</DistanceMeters>
          </Trackpoint>
          <Trackpoint>
            <Time>2022-07-07T17:27:10.000Z</Time>
            <Position>
              <LatitudeDegrees>43.48303721286356449127197265625</LatitudeDegrees>
              <LongitudeDegrees>-1.56368049792945384979248046875</LongitudeDegrees>
            </Position>
            <AltitudeMeters>28.799999237060546875</AltitudeMeters>
            <DistanceMeters>NAN</DistanceMeters>
          </Trackpoint>
          <Trackpoint>
            <Time>2022-07-07T17:27:13.000Z</Time>
            <Position>
              <LatitudeDegrees>43.48302908241748809814453125</LatitudeDegrees>
              <LongitudeDegrees>-1.5637374110519886016845703125</LongitudeDegrees>
            </Position>
            <AltitudeMeters>29</AltitudeMeters>
            <DistanceMeters>NAN</DistanceMeters>
          </Trackpoint>
          <Trackpoint>
            <Time>2022-07-07T17:27:15.000Z</Time>
            <Position>
              <LatitudeDegrees>43.48302371799945831298828125</LatitudeDegrees>
              <LongitudeDegrees>-1.56377387233078479766845703125</LongitudeDegrees>
            </Position>
            <AltitudeMeters>29.200000762939453125</AltitudeMeters>
            <DistanceMeters>NAN</DistanceMeters>
          </Trackpoint>
          <Trackpoint>
            <Time>2022-07-07T17:27:17.000Z</Time>
            <Position>
              <LatitudeDegrees>43.4830218739807605743408203125</LatitudeDegrees>
              <LongitudeDegrees>-1.56381611712276935577392578125</LongitudeDegrees>
            </Position>
            <AltitudeMeters>29.200000762939453125</AltitudeMeters>
            <DistanceMeters>NAN</DistanceMeters>
          </Trackpoint>
          <Trackpoint>
            <Time>2022-07-07T17:27:18.000Z</Time>
            <Position>
              <LatitudeDegrees>43.4830222092568874359130859375</LatitudeDegrees>
              <LongitudeDegrees>-1.56383941881358623504638671875</LongitudeDegrees>
            </Position>
            <AltitudeMeters>29.200000762939453125</AltitudeMeters>
            <DistanceMeters>NAN</DistanceMeters>
          </Trackpoint>
          <Trackpoint>
            <Time>2022-07-07T17:27:27.000Z</Time>
            <Position>
              <LatitudeDegrees>43.48303318955004215240478515625</LatitudeDegrees>
              <LongitudeDegrees>-1.56407763250172138214111328125</LongitudeDegrees>
            </Position>
            <AltitudeMeters>29.799999237060546875</AltitudeMeters>
            <DistanceMeters>NAN</DistanceMeters>
          </Trackpoint>
          <Trackpoint>
            <Time>2022-07-07T17:27:29.000Z</Time>
            <Position>
              <LatitudeDegrees>43.483047522604465484619140625</LatitudeDegrees>
              <LongitudeDegrees>-1.56414560973644256591796875</LongitudeDegrees>
            </Position>
            <AltitudeMeters>29.799999237060546875</AltitudeMeters>
            <DistanceMeters>NAN</DistanceMeters>
          </Trackpoint>
          <Trackpoint>
            <Time>2022-07-07T17:27:34.000Z</Time>
            <Position>
              <LatitudeDegrees>43.483057916164398193359375</LatitudeDegrees>
              <LongitudeDegrees>-1.56430947594344615936279296875</LongitudeDegrees>
            </Position>
            <AltitudeMeters>30</AltitudeMeters>
            <DistanceMeters>NAN</DistanceMeters>
          </Trackpoint>
          <Trackpoint>
            <Time>2022-07-07T17:27:41.000Z</Time>
            <Position>
              <LatitudeDegrees>43.483018688857555389404296875</LatitudeDegrees>
              <LongitudeDegrees>-1.56455690972506999969482421875</LongitudeDegrees>
            </Position>
            <AltitudeMeters>29.3999996185302734375</AltitudeMeters>
            <DistanceMeters>NAN</DistanceMeters>
          </Trackpoint>
          <Trackpoint>
            <Time>2022-07-07T17:27:46.000Z</Time>
            <Position>
              <LatitudeDegrees>43.4829749353229999542236328125</LatitudeDegrees>
              <LongitudeDegrees>-1.564784310758113861083984375</LongitudeDegrees>
            </Position>
            <AltitudeMeters>29.3999996185302734375</AltitudeMeters>
            <DistanceMeters>NAN</DistanceMeters>
          </Trackpoint>
          <Trackpoint>
            <Time>2022-07-07T17:27:48.000Z</Time>
            <Position>
              <LatitudeDegrees>43.48295037634670734405517578125</LatitudeDegrees>
              <LongitudeDegrees>-1.5648786909878253936767578125</LongitudeDegrees>
            </Position>
            <AltitudeMeters>29.3999996185302734375</AltitudeMeters>
            <DistanceMeters>NAN</DistanceMeters>
          </Trackpoint>
          <Trackpoint>
            <Time>2022-07-07T17:27:52.000Z</Time>
            <Position>
              <LatitudeDegrees>43.4829038567841053009033203125</LatitudeDegrees>
              <LongitudeDegrees>-1.5650510229170322418212890625</LongitudeDegrees>
            </Position>
            <AltitudeMeters>29.799999237060546875</AltitudeMeters>
            <DistanceMeters>NAN</DistanceMeters>
          </Trackpoint>
          <Trackpoint>
            <Time>2022-07-07T17:27:56.000Z</Time>
            <Position>
              <LatitudeDegrees>43.48287695087492465972900390625</LatitudeDegrees>
              <LongitudeDegrees>-1.56524992547929286956787109375</LongitudeDegrees>
            </Position>
            <AltitudeMeters>29.799999237060546875</AltitudeMeters>
            <DistanceMeters>NAN</DistanceMeters>
          </Trackpoint>
          <Trackpoint>
            <Time>2022-07-07T17:28:03.000Z</Time>
            <Position>
              <LatitudeDegrees>43.48282498307526111602783203125</LatitudeDegrees>
              <LongitudeDegrees>-1.56558084301650524139404296875</LongitudeDegrees>
            </Position>
            <AltitudeMeters>29.6000003814697265625</AltitudeMeters>
            <DistanceMeters>NAN</DistanceMeters>
          </Trackpoint>
          <Trackpoint>
            <Time>2022-07-07T17:28:04.000Z</Time>
            <Position>
              <LatitudeDegrees>43.48281676881015300750732421875</LatitudeDegrees>
              <LongitudeDegrees>-1.56561604700982570648193359375</LongitudeDegrees>
            </Position>
            <AltitudeMeters>29.6000003814697265625</AltitudeMeters>
            <DistanceMeters>NAN</DistanceMeters>
          </Trackpoint>
          <Trackpoint>
            <Time>2022-07-07T17:28:10.000Z</Time>
            <Position>
              <LatitudeDegrees>43.48280084319412708282470703125</LatitudeDegrees>
              <LongitudeDegrees>-1.56577647663652896881103515625</LongitudeDegrees>
            </Position>
            <AltitudeMeters>29.200000762939453125</AltitudeMeters>
            <DistanceMeters>NAN</DistanceMeters>
          </Trackpoint>
          <Trackpoint>
            <Time>2022-07-07T17:28:15.000Z</Time>
            <Position>
              <LatitudeDegrees>43.48282389342784881591796875</LatitudeDegrees>
              <LongitudeDegrees>-1.5659448690712451934814453125</LongitudeDegrees>
            </Position>
            <AltitudeMeters>29</AltitudeMeters>
            <DistanceMeters>NAN</DistanceMeters>
          </Trackpoint>
          <Trackpoint>
            <Time>2022-07-07T17:28:18.000Z</Time>
            <Position>
              <LatitudeDegrees>43.48285071551799774169921875</LatitudeDegrees>
              <LongitudeDegrees>-1.5660608746111392974853515625</LongitudeDegrees>
            </Position>
            <AltitudeMeters>28.799999237060546875</AltitudeMeters>
            <DistanceMeters>NAN</DistanceMeters>
          </Trackpoint>
          <Trackpoint>
            <Time>2022-07-07T17:28:22.000Z</Time>
            <Position>
              <LatitudeDegrees>43.4828904457390308380126953125</LatitudeDegrees>
              <LongitudeDegrees>-1.5662258304655551910400390625</LongitudeDegrees>
            </Position>
            <AltitudeMeters>28.6000003814697265625</AltitudeMeters>
            <DistanceMeters>NAN</DistanceMeters>
          </Trackpoint>
          <Trackpoint>
            <Time>2022-07-07T17:28:24.000Z</Time>
            <Position>
              <LatitudeDegrees>43.48291383124887943267822265625</LatitudeDegrees>
              <LongitudeDegrees>-1.5663130022585391998291015625</LongitudeDegrees>
            </Position>
            <AltitudeMeters>28.3999996185302734375</AltitudeMeters>
            <DistanceMeters>NAN</DistanceMeters>
          </Trackpoint>
          <Trackpoint>
            <Time>2022-07-07T17:28:28.000Z</Time>
            <Position>
              <LatitudeDegrees>43.482971079647541046142578125</LatitudeDegrees>
              <LongitudeDegrees>-1.566517688333988189697265625</LongitudeDegrees>
            </Position>
            <AltitudeMeters>28.200000762939453125</AltitudeMeters>
            <DistanceMeters>NAN</DistanceMeters>
          </Trackpoint>
          <Trackpoint>
            <Time>2022-07-07T17:28:29.000Z</Time>
            <Position>
              <LatitudeDegrees>43.48298742435872554779052734375</LatitudeDegrees>
              <LongitudeDegrees>-1.56656789593398571014404296875</LongitudeDegrees>
            </Position>
            <AltitudeMeters>28.200000762939453125</AltitudeMeters>
            <DistanceMeters>NAN</DistanceMeters>
          </Trackpoint>
          <Trackpoint>
            <Time>2022-07-07T17:28:33.000Z</Time>
            <Position>
              <LatitudeDegrees>43.483063615858554840087890625</LatitudeDegrees>
              <LongitudeDegrees>-1.56672128476202487945556640625</LongitudeDegrees>
            </Position>
            <AltitudeMeters>28.200000762939453125</AltitudeMeters>
            <DistanceMeters>NAN</DistanceMeters>
          </Trackpoint>
          <Trackpoint>
            <Time>2022-07-07T17:28:34.000Z</Time>
            <Position>
              <LatitudeDegrees>43.483079709112644195556640625</LatitudeDegrees>
              <LongitudeDegrees>-1.566748358309268951416015625</LongitudeDegrees>
            </Position>
            <AltitudeMeters>28.200000762939453125</AltitudeMeters>
            <DistanceMeters>NAN</DistanceMeters>
          </Trackpoint>
          <Trackpoint>
            <Time>2022-07-07T17:28:39.000Z</Time>
            <Position>
              <LatitudeDegrees>43.4831258095800876617431640625</LatitudeDegrees>
              <LongitudeDegrees>-1.56684600748121738433837890625</LongitudeDegrees>
            </Position>
            <AltitudeMeters>28.200000762939453125</AltitudeMeters>
            <DistanceMeters>NAN</DistanceMeters>
          </Trackpoint>
          <Trackpoint>
            <Time>2022-07-07T17:28:47.000Z</Time>
            <Position>
              <LatitudeDegrees>43.48321256227791309356689453125</LatitudeDegrees>
              <LongitudeDegrees>-1.5670288167893886566162109375</LongitudeDegrees>
            </Position>
            <AltitudeMeters>28.6000003814697265625</AltitudeMeters>
            <DistanceMeters>NAN</DistanceMeters>
          </Trackpoint>
          <Trackpoint>
            <Time>2022-07-07T17:29:17.000Z</Time>
            <Position>
              <LatitudeDegrees>43.48374255001544952392578125</LatitudeDegrees>
              <LongitudeDegrees>-1.5679032169282436370849609375</LongitudeDegrees>
            </Position>
            <AltitudeMeters>28.3999996185302734375</AltitudeMeters>
            <DistanceMeters>NAN</DistanceMeters>
          </Trackpoint>
          <Trackpoint>
            <Time>2022-07-07T17:29:19.000Z</Time>
            <Position>
              <LatitudeDegrees>43.48390574567019939422607421875</LatitudeDegrees>
              <LongitudeDegrees>-1.5681808255612850189208984375</LongitudeDegrees>
            </Position>
            <AltitudeMeters>28.3999996185302734375</AltitudeMeters>
            <DistanceMeters>NAN</DistanceMeters>
          </Trackpoint>
          <Trackpoint>
            <Time>2022-07-07T17:29:20.000Z</Time>
            <Position>
              <LatitudeDegrees>43.48388529382646083831787109375</LatitudeDegrees>
              <LongitudeDegrees>-1.56814302317798137664794921875</LongitudeDegrees>
            </Position>
            <AltitudeMeters>28.3999996185302734375</AltitudeMeters>
            <DistanceMeters>NAN</DistanceMeters>
          </Trackpoint>
          <Trackpoint>
            <Time>2022-07-07T17:29:25.000Z</Time>
            <Position>
              <LatitudeDegrees>43.48373475484549999237060546875</LatitudeDegrees>
              <LongitudeDegrees>-1.5682099945843219757080078125</LongitudeDegrees>
            </Position>
            <AltitudeMeters>28.799999237060546875</AltitudeMeters>
            <DistanceMeters>NAN</DistanceMeters>
          </Trackpoint>
          <Trackpoint>
            <Time>2022-07-07T17:29:29.000Z</Time>
            <Position>
              <LatitudeDegrees>43.483693599700927734375</LatitudeDegrees>
              <LongitudeDegrees>-1.56830110587179660797119140625</LongitudeDegrees>
            </Position>
            <AltitudeMeters>29</AltitudeMeters>
            <DistanceMeters>NAN</DistanceMeters>
          </Trackpoint>
          <Trackpoint>
            <Time>2022-07-07T17:29:31.000Z</Time>
            <Position>
              <LatitudeDegrees>43.4836739860475063323974609375</LatitudeDegrees>
              <LongitudeDegrees>-1.5683481283485889434814453125</LongitudeDegrees>
            </Position>
            <AltitudeMeters>29</AltitudeMeters>
            <DistanceMeters>NAN</DistanceMeters>
          </Trackpoint>
          <Trackpoint>
            <Time>2022-07-07T17:29:40.000Z</Time>
            <Position>
              <LatitudeDegrees>43.4837058372795581817626953125</LatitudeDegrees>
              <LongitudeDegrees>-1.5686864219605922698974609375</LongitudeDegrees>
            </Position>
            <AltitudeMeters>28.3999996185302734375</AltitudeMeters>
            <DistanceMeters>NAN</DistanceMeters>
          </Trackpoint>
          <Trackpoint>
            <Time>2022-07-07T17:29:43.000Z</Time>
            <Position>
              <LatitudeDegrees>43.48372955806553363800048828125</LatitudeDegrees>
              <LongitudeDegrees>-1.56879211775958538055419921875</LongitudeDegrees>
            </Position>
            <AltitudeMeters>27.799999237060546875</AltitudeMeters>
            <DistanceMeters>NAN</DistanceMeters>
          </Trackpoint>
          <Trackpoint>
            <Time>2022-07-07T17:29:47.000Z</Time>
            <Position>
              <LatitudeDegrees>43.4837464056909084320068359375</LatitudeDegrees>
              <LongitudeDegrees>-1.56892052851617336273193359375</LongitudeDegrees>
            </Position>
            <AltitudeMeters>27.200000762939453125</AltitudeMeters>
            <DistanceMeters>NAN</DistanceMeters>
          </Trackpoint>
          <Trackpoint>
            <Time>2022-07-07T17:29:52.000Z</Time>
            <Position>
              <LatitudeDegrees>43.48376945592463016510009765625</LatitudeDegrees>
              <LongitudeDegrees>-1.56905413605272769927978515625</LongitudeDegrees>
            </Position>
            <AltitudeMeters>26.799999237060546875</AltitudeMeters>
            <DistanceMeters>NAN</DistanceMeters>
          </Trackpoint>
          <Trackpoint>
            <Time>2022-07-07T17:29:55.000Z</Time>
            <Position>
              <LatitudeDegrees>43.48379217088222503662109375</LatitudeDegrees>
              <LongitudeDegrees>-1.5691457502543926239013671875</LongitudeDegrees>
            </Position>
            <AltitudeMeters>26.3999996185302734375</AltitudeMeters>
            <DistanceMeters>NAN</DistanceMeters>
          </Trackpoint>
          <Trackpoint>
            <Time>2022-07-07T17:30:00.000Z</Time>
            <Position>
              <LatitudeDegrees>43.4838332422077655792236328125</LatitudeDegrees>
              <LongitudeDegrees>-1.569336690008640289306640625</LongitudeDegrees>
            </Position>
            <AltitudeMeters>26.3999996185302734375</AltitudeMeters>
            <DistanceMeters>NAN</DistanceMeters>
          </Trackpoint>
          <Trackpoint>
            <Time>2022-07-07T17:30:01.000Z</Time>
            <Position>
              <LatitudeDegrees>43.48384338431060314178466796875</LatitudeDegrees>
              <LongitudeDegrees>-1.56937281601130962371826171875</LongitudeDegrees>
            </Position>
            <AltitudeMeters>26.200000762939453125</AltitudeMeters>
            <DistanceMeters>NAN</DistanceMeters>
          </Trackpoint>
          <Trackpoint>
            <Time>2022-07-07T17:30:03.000Z</Time>
            <Position>
              <LatitudeDegrees>43.4838617406785488128662109375</LatitudeDegrees>
              <LongitudeDegrees>-1.56943048350512981414794921875</LongitudeDegrees>
            </Position>
            <AltitudeMeters>26</AltitudeMeters>
            <DistanceMeters>NAN</DistanceMeters>
          </Trackpoint>
          <Trackpoint>
            <Time>2022-07-07T17:30:07.000Z</Time>
            <Position>
              <LatitudeDegrees>43.48387842066586017608642578125</LatitudeDegrees>
              <LongitudeDegrees>-1.56951916404068470001220703125</LongitudeDegrees>
            </Position>
            <AltitudeMeters>25.6000003814697265625</AltitudeMeters>
            <DistanceMeters>NAN</DistanceMeters>
          </Trackpoint>
          <Trackpoint>
            <Time>2022-07-07T17:30:08.000Z</Time>
            <Position>
              <LatitudeDegrees>43.48387858830392360687255859375</LatitudeDegrees>
              <LongitudeDegrees>-1.56952603720128536224365234375</LongitudeDegrees>
            </Position>
            <AltitudeMeters>25.6000003814697265625</AltitudeMeters>
            <DistanceMeters>NAN</DistanceMeters>
          </Trackpoint>
          <Trackpoint>
            <Time>2022-07-07T17:30:13.000Z</Time>
            <Position>
              <LatitudeDegrees>43.48387355916202068328857421875</LatitudeDegrees>
              <LongitudeDegrees>-1.5695447288453578948974609375</LongitudeDegrees>
            </Position>
            <AltitudeMeters>25.3999996185302734375</AltitudeMeters>
            <DistanceMeters>NAN</DistanceMeters>
          </Trackpoint>
          <Trackpoint>
            <Time>2022-07-07T17:31:53.000Z</Time>
            <Position>
              <LatitudeDegrees>43.483839444816112518310546875</LatitudeDegrees>
              <LongitudeDegrees>-1.569280363619327545166015625</LongitudeDegrees>
            </Position>
            <AltitudeMeters>26.200000762939453125</AltitudeMeters>
            <DistanceMeters>NAN</DistanceMeters>
          </Trackpoint>
          <Trackpoint>
            <Time>2022-07-07T17:31:54.000Z</Time>
            <Position>
              <LatitudeDegrees>43.483836762607097625732421875</LatitudeDegrees>
              <LongitudeDegrees>-1.569252200424671173095703125</LongitudeDegrees>
            </Position>
            <AltitudeMeters>26.200000762939453125</AltitudeMeters>
            <DistanceMeters>NAN</DistanceMeters>
          </Trackpoint>
          <Trackpoint>
            <Time>2022-07-07T17:31:58.000Z</Time>
            <Position>
              <LatitudeDegrees>43.48382662050426006317138671875</LatitudeDegrees>
              <LongitudeDegrees>-1.5691553056240081787109375</LongitudeDegrees>
            </Position>
            <AltitudeMeters>26.799999237060546875</AltitudeMeters>
            <DistanceMeters>NAN</DistanceMeters>
          </Trackpoint>
          <Trackpoint>
            <Time>2022-07-07T17:32:00.000Z</Time>
            <Position>
              <LatitudeDegrees>43.4838191606104373931884765625</LatitudeDegrees>
              <LongitudeDegrees>-1.56911163590848445892333984375</LongitudeDegrees>
            </Position>
            <AltitudeMeters>27</AltitudeMeters>
            <DistanceMeters>NAN</DistanceMeters>
          </Trackpoint>
          <Trackpoint>
            <Time>2022-07-07T17:32:01.000Z</Time>
            <Position>
              <LatitudeDegrees>43.48382142372429370880126953125</LatitudeDegrees>
              <LongitudeDegrees>-1.56909436918795108795166015625</LongitudeDegrees>
            </Position>
            <AltitudeMeters>27.200000762939453125</AltitudeMeters>
            <DistanceMeters>NAN</DistanceMeters>
          </Trackpoint>
          <Trackpoint>
            <Time>2022-07-07T17:32:06.000Z</Time>
            <Position>
              <LatitudeDegrees>43.48383449949324131011962890625</LatitudeDegrees>
              <LongitudeDegrees>-1.5690612606704235076904296875</LongitudeDegrees>
            </Position>
            <AltitudeMeters>27.200000762939453125</AltitudeMeters>
            <DistanceMeters>NAN</DistanceMeters>
          </Trackpoint>
          <Trackpoint>
            <Time>2022-07-07T17:32:52.000Z</Time>
            <Position>
              <LatitudeDegrees>43.483802564442157745361328125</LatitudeDegrees>
              <LongitudeDegrees>-1.56900082714855670928955078125</LongitudeDegrees>
            </Position>
            <AltitudeMeters>27.3999996185302734375</AltitudeMeters>
            <DistanceMeters>NAN</DistanceMeters>
          </Trackpoint>
          <Trackpoint>
            <Time>2022-07-07T17:32:57.000Z</Time>
            <Position>
              <LatitudeDegrees>43.4837598167359828948974609375</LatitudeDegrees>
              <LongitudeDegrees>-1.56883955933153629302978515625</LongitudeDegrees>
            </Position>
            <AltitudeMeters>27.6000003814697265625</AltitudeMeters>
            <DistanceMeters>NAN</DistanceMeters>
          </Trackpoint>
          <Trackpoint>
            <Time>2022-07-07T17:32:58.000Z</Time>
            <Position>
              <LatitudeDegrees>43.48375260829925537109375</LatitudeDegrees>
              <LongitudeDegrees>-1.56881441362202167510986328125</LongitudeDegrees>
            </Position>
            <AltitudeMeters>27.799999237060546875</AltitudeMeters>
            <DistanceMeters>NAN</DistanceMeters>
          </Trackpoint>
          <Trackpoint>
            <Time>2022-07-07T17:32:59.000Z</Time>
            <Position>
              <LatitudeDegrees>43.48374531604349613189697265625</LatitudeDegrees>
              <LongitudeDegrees>-1.56879077665507793426513671875</LongitudeDegrees>
            </Position>
            <AltitudeMeters>27.799999237060546875</AltitudeMeters>
            <DistanceMeters>NAN</DistanceMeters>
          </Trackpoint>
          <Trackpoint>
            <Time>2022-07-07T17:33:06.000Z</Time>
            <Position>
              <LatitudeDegrees>43.48370273597538471221923828125</LatitudeDegrees>
              <LongitudeDegrees>-1.56868499703705310821533203125</LongitudeDegrees>
            </Position>
            <AltitudeMeters>28.200000762939453125</AltitudeMeters>
            <DistanceMeters>NAN</DistanceMeters>
          </Trackpoint>
          <Trackpoint>
            <Time>2022-07-07T17:33:13.000Z</Time>
            <Position>
              <LatitudeDegrees>43.4836225211620330810546875</LatitudeDegrees>
              <LongitudeDegrees>-1.56866286881268024444580078125</LongitudeDegrees>
            </Position>
            <AltitudeMeters>28.799999237060546875</AltitudeMeters>
            <DistanceMeters>NAN</DistanceMeters>
          </Trackpoint>
          <Trackpoint>
            <Time>2022-07-07T17:33:22.000Z</Time>
            <Position>
              <LatitudeDegrees>43.48350173793733119964599609375</LatitudeDegrees>
              <LongitudeDegrees>-1.56864644028246402740478515625</LongitudeDegrees>
            </Position>
            <AltitudeMeters>28.799999237060546875</AltitudeMeters>
            <DistanceMeters>NAN</DistanceMeters>
          </Trackpoint>
          <Trackpoint>
            <Time>2022-07-07T17:33:27.000Z</Time>
            <Position>
              <LatitudeDegrees>43.4834399633109569549560546875</LatitudeDegrees>
              <LongitudeDegrees>-1.56852154992520809173583984375</LongitudeDegrees>
            </Position>
            <AltitudeMeters>28.799999237060546875</AltitudeMeters>
            <DistanceMeters>NAN</DistanceMeters>
          </Trackpoint>
          <Trackpoint>
            <Time>2022-07-07T17:33:33.000Z</Time>
            <Position>
              <LatitudeDegrees>43.48342210985720157623291015625</LatitudeDegrees>
              <LongitudeDegrees>-1.56835533678531646728515625</LongitudeDegrees>
            </Position>
            <AltitudeMeters>29.200000762939453125</AltitudeMeters>
            <DistanceMeters>NAN</DistanceMeters>
          </Trackpoint>
          <Trackpoint>
            <Time>2022-07-07T17:33:36.000Z</Time>
            <Position>
              <LatitudeDegrees>43.48345111124217510223388671875</LatitudeDegrees>
              <LongitudeDegrees>-1.5682773850858211517333984375</LongitudeDegrees>
            </Position>
            <AltitudeMeters>29.3999996185302734375</AltitudeMeters>
            <DistanceMeters>NAN</DistanceMeters>
          </Trackpoint>
          <Trackpoint>
            <Time>2022-07-07T17:33:37.000Z</Time>
            <Position>
              <LatitudeDegrees>43.483449518680572509765625</LatitudeDegrees>
              <LongitudeDegrees>-1.56825617887079715728759765625</LongitudeDegrees>
            </Position>
            <AltitudeMeters>29.3999996185302734375</AltitudeMeters>
            <DistanceMeters>NAN</DistanceMeters>
          </Trackpoint>
          <Trackpoint>
            <Time>2022-07-07T17:33:38.000Z</Time>
            <Position>
              <LatitudeDegrees>43.48343619145452976226806640625</LatitudeDegrees>
              <LongitudeDegrees>-1.56822633929550647735595703125</LongitudeDegrees>
            </Position>
            <AltitudeMeters>29.3999996185302734375</AltitudeMeters>
            <DistanceMeters>NAN</DistanceMeters>
          </Trackpoint>
          <Trackpoint>
            <Time>2022-07-07T17:33:43.000Z</Time>
            <Position>
              <LatitudeDegrees>43.48330912180244922637939453125</LatitudeDegrees>
              <LongitudeDegrees>-1.56818157993257045745849609375</LongitudeDegrees>
            </Position>
            <AltitudeMeters>29.200000762939453125</AltitudeMeters>
            <DistanceMeters>NAN</DistanceMeters>
          </Trackpoint>
          <Trackpoint>
            <Time>2022-07-07T17:33:50.000Z</Time>
            <Position>
              <LatitudeDegrees>43.483083732426166534423828125</LatitudeDegrees>
              <LongitudeDegrees>-1.56807881779968738555908203125</LongitudeDegrees>
            </Position>
            <AltitudeMeters>28.200000762939453125</AltitudeMeters>
            <DistanceMeters>NAN</DistanceMeters>
          </Trackpoint>
          <Trackpoint>
            <Time>2022-07-07T17:33:57.000Z</Time>
            <Position>
              <LatitudeDegrees>43.48290947265923023223876953125</LatitudeDegrees>
              <LongitudeDegrees>-1.56789341010153293609619140625</LongitudeDegrees>
            </Position>
            <AltitudeMeters>28.3999996185302734375</AltitudeMeters>
            <DistanceMeters>NAN</DistanceMeters>
          </Trackpoint>
          <Trackpoint>
            <Time>2022-07-07T17:34:00.000Z</Time>
            <Position>
              <LatitudeDegrees>43.4828688204288482666015625</LatitudeDegrees>
              <LongitudeDegrees>-1.56777153722941875457763671875</LongitudeDegrees>
            </Position>
            <AltitudeMeters>28.6000003814697265625</AltitudeMeters>
            <DistanceMeters>NAN</DistanceMeters>
          </Trackpoint>
          <Trackpoint>
            <Time>2022-07-07T17:34:02.000Z</Time>
            <Position>
              <LatitudeDegrees>43.48284342326223850250244140625</LatitudeDegrees>
              <LongitudeDegrees>-1.56768218614161014556884765625</LongitudeDegrees>
            </Position>
            <AltitudeMeters>28.6000003814697265625</AltitudeMeters>
            <DistanceMeters>NAN</DistanceMeters>
          </Trackpoint>
          <Trackpoint>
            <Time>2022-07-07T17:34:04.000Z</Time>
            <Position>
              <LatitudeDegrees>43.48281257785856723785400390625</LatitudeDegrees>
              <LongitudeDegrees>-1.567595265805721282958984375</LongitudeDegrees>
            </Position>
            <AltitudeMeters>28.6000003814697265625</AltitudeMeters>
            <DistanceMeters>NAN</DistanceMeters>
          </Trackpoint>
          <Trackpoint>
            <Time>2022-07-07T17:34:07.000Z</Time>
            <Position>
              <LatitudeDegrees>43.48274854011833667755126953125</LatitudeDegrees>
              <LongitudeDegrees>-1.56747481785714626312255859375</LongitudeDegrees>
            </Position>
            <AltitudeMeters>28.6000003814697265625</AltitudeMeters>
            <DistanceMeters>NAN</DistanceMeters>
          </Trackpoint>
          <Trackpoint>
            <Time>2022-07-07T17:34:09.000Z</Time>
            <Position>
              <LatitudeDegrees>43.48270797170698642730712890625</LatitudeDegrees>
              <LongitudeDegrees>-1.56739217229187488555908203125</LongitudeDegrees>
            </Position>
            <AltitudeMeters>28.6000003814697265625</AltitudeMeters>
            <DistanceMeters>NAN</DistanceMeters>
          </Trackpoint>
          <Trackpoint>
            <Time>2022-07-07T17:34:10.000Z</Time>
            <Position>
              <LatitudeDegrees>43.4826889447867870330810546875</LatitudeDegrees>
              <LongitudeDegrees>-1.56735395081341266632080078125</LongitudeDegrees>
            </Position>
            <AltitudeMeters>28.6000003814697265625</AltitudeMeters>
            <DistanceMeters>NAN</DistanceMeters>
          </Trackpoint>
          <Trackpoint>
            <Time>2022-07-07T17:34:15.000Z</Time>
            <Position>
              <LatitudeDegrees>43.48260403610765933990478515625</LatitudeDegrees>
              <LongitudeDegrees>-1.56715747900307178497314453125</LongitudeDegrees>
            </Position>
            <AltitudeMeters>28.799999237060546875</AltitudeMeters>
            <DistanceMeters>NAN</DistanceMeters>
          </Trackpoint>
          <Trackpoint>
            <Time>2022-07-07T17:34:19.000Z</Time>
            <Position>
              <LatitudeDegrees>43.48253513686358928680419921875</LatitudeDegrees>
              <LongitudeDegrees>-1.567040383815765380859375</LongitudeDegrees>
            </Position>
            <AltitudeMeters>28.799999237060546875</AltitudeMeters>
            <DistanceMeters>NAN</DistanceMeters>
          </Trackpoint>
          <Trackpoint>
            <Time>2022-07-07T17:34:23.000Z</Time>
            <Position>
              <LatitudeDegrees>43.48243908025324344635009765625</LatitudeDegrees>
              <LongitudeDegrees>-1.5669818781316280364990234375</LongitudeDegrees>
            </Position>
            <AltitudeMeters>29</AltitudeMeters>
            <DistanceMeters>NAN</DistanceMeters>
          </Trackpoint>
          <Trackpoint>
            <Time>2022-07-07T17:34:25.000Z</Time>
            <Position>
              <LatitudeDegrees>43.48238141275942325592041015625</LatitudeDegrees>
              <LongitudeDegrees>-1.56697927974164485931396484375</LongitudeDegrees>
            </Position>
            <AltitudeMeters>29.200000762939453125</AltitudeMeters>
            <DistanceMeters>NAN</DistanceMeters>
          </Trackpoint>
          <Trackpoint>
            <Time>2022-07-07T17:34:32.000Z</Time>
            <Position>
              <LatitudeDegrees>43.48221838474273681640625</LatitudeDegrees>
              <LongitudeDegrees>-1.56707466579973697662353515625</LongitudeDegrees>
            </Position>
            <AltitudeMeters>29.799999237060546875</AltitudeMeters>
            <DistanceMeters>NAN</DistanceMeters>
          </Trackpoint>
          <Trackpoint>
            <Time>2022-07-07T17:34:37.000Z</Time>
            <Position>
              <LatitudeDegrees>43.4821929037570953369140625</LatitudeDegrees>
              <LongitudeDegrees>-1.567259319126605987548828125</LongitudeDegrees>
            </Position>
            <AltitudeMeters>29.3999996185302734375</AltitudeMeters>
            <DistanceMeters>NAN</DistanceMeters>
          </Trackpoint>
          <Trackpoint>
            <Time>2022-07-07T17:34:40.000Z</Time>
            <Position>
              <LatitudeDegrees>43.4821970947086811065673828125</LatitudeDegrees>
              <LongitudeDegrees>-1.56740323640406131744384765625</LongitudeDegrees>
            </Position>
            <AltitudeMeters>28.6000003814697265625</AltitudeMeters>
            <DistanceMeters>NAN</DistanceMeters>
          </Trackpoint>
          <Trackpoint>
            <Time>2022-07-07T17:34:45.000Z</Time>
            <Position>
              <LatitudeDegrees>43.48220287822186946868896484375</LatitudeDegrees>
              <LongitudeDegrees>-1.5676514245569705963134765625</LongitudeDegrees>
            </Position>
            <AltitudeMeters>27.6000003814697265625</AltitudeMeters>
            <DistanceMeters>NAN</DistanceMeters>
          </Trackpoint>
          <Trackpoint>
            <Time>2022-07-07T17:34:50.000Z</Time>
            <Position>
              <LatitudeDegrees>43.4821726195514202117919921875</LatitudeDegrees>
              <LongitudeDegrees>-1.56791947782039642333984375</LongitudeDegrees>
            </Position>
            <AltitudeMeters>26.3999996185302734375</AltitudeMeters>
            <DistanceMeters>NAN</DistanceMeters>
          </Trackpoint>
          <Trackpoint>
            <Time>2022-07-07T17:34:53.000Z</Time>
            <Position>
              <LatitudeDegrees>43.482179157435894012451171875</LatitudeDegrees>
              <LongitudeDegrees>-1.56808200292289257049560546875</LongitudeDegrees>
            </Position>
            <AltitudeMeters>26.200000762939453125</AltitudeMeters>
            <DistanceMeters>NAN</DistanceMeters>
          </Trackpoint>
          <Trackpoint>
            <Time>2022-07-07T17:34:58.000Z</Time>
            <Position>
              <LatitudeDegrees>43.48218276165425777435302734375</LatitudeDegrees>
              <LongitudeDegrees>-1.5682446956634521484375</LongitudeDegrees>
            </Position>
            <AltitudeMeters>26</AltitudeMeters>
            <DistanceMeters>NAN</DistanceMeters>
          </Trackpoint>
          <Trackpoint>
            <Time>2022-07-07T17:35:04.000Z</Time>
            <Position>
              <LatitudeDegrees>43.48209927789866924285888671875</LatitudeDegrees>
              <LongitudeDegrees>-1.56841224990785121917724609375</LongitudeDegrees>
            </Position>
            <AltitudeMeters>25.6000003814697265625</AltitudeMeters>
            <DistanceMeters>NAN</DistanceMeters>
          </Trackpoint>
          <Trackpoint>
            <Time>2022-07-07T17:35:05.000Z</Time>
            <Position>
              <LatitudeDegrees>43.48207966424524784088134765625</LatitudeDegrees>
              <LongitudeDegrees>-1.5684342943131923675537109375</LongitudeDegrees>
            </Position>
            <AltitudeMeters>25.3999996185302734375</AltitudeMeters>
            <DistanceMeters>NAN</DistanceMeters>
          </Trackpoint>
          <Trackpoint>
            <Time>2022-07-07T17:35:13.000Z</Time>
            <Position>
              <LatitudeDegrees>43.4819273650646209716796875</LatitudeDegrees>
              <LongitudeDegrees>-1.56857904978096485137939453125</LongitudeDegrees>
            </Position>
            <AltitudeMeters>24.6000003814697265625</AltitudeMeters>
            <DistanceMeters>NAN</DistanceMeters>
          </Trackpoint>
          <Trackpoint>
            <Time>2022-07-07T17:35:14.000Z</Time>
            <Position>
              <LatitudeDegrees>43.48191504366695880889892578125</LatitudeDegrees>
              <LongitudeDegrees>-1.56860235147178173065185546875</LongitudeDegrees>
            </Position>
            <AltitudeMeters>24.3999996185302734375</AltitudeMeters>
            <DistanceMeters>NAN</DistanceMeters>
          </Trackpoint>
          <Trackpoint>
            <Time>2022-07-07T17:35:20.000Z</Time>
            <Position>
              <LatitudeDegrees>43.4818222559988498687744140625</LatitudeDegrees>
              <LongitudeDegrees>-1.5687139146029949188232421875</LongitudeDegrees>
            </Position>
            <AltitudeMeters>24.200000762939453125</AltitudeMeters>
            <DistanceMeters>NAN</DistanceMeters>
          </Trackpoint>
          <Trackpoint>
            <Time>2022-07-07T17:35:24.000Z</Time>
            <Position>
              <LatitudeDegrees>43.48171555437147617340087890625</LatitudeDegrees>
              <LongitudeDegrees>-1.56878775916993618011474609375</LongitudeDegrees>
            </Position>
            <AltitudeMeters>24.200000762939453125</AltitudeMeters>
            <DistanceMeters>NAN</DistanceMeters>
          </Trackpoint>
          <Trackpoint>
            <Time>2022-07-07T17:35:25.000Z</Time>
            <Position>
              <LatitudeDegrees>43.481690995395183563232421875</LatitudeDegrees>
              <LongitudeDegrees>-1.56880619935691356658935546875</LongitudeDegrees>
            </Position>
            <AltitudeMeters>24.200000762939453125</AltitudeMeters>
            <DistanceMeters>NAN</DistanceMeters>
          </Trackpoint>
          <Trackpoint>
            <Time>2022-07-07T17:35:31.000Z</Time>
            <Position>
              <LatitudeDegrees>43.48152712918817996978759765625</LatitudeDegrees>
              <LongitudeDegrees>-1.56884509138762950897216796875</LongitudeDegrees>
            </Position>
            <AltitudeMeters>23.799999237060546875</AltitudeMeters>
            <DistanceMeters>NAN</DistanceMeters>
          </Trackpoint>
          <Trackpoint>
            <Time>2022-07-07T17:35:34.000Z</Time>
            <Position>
              <LatitudeDegrees>43.481425456702709197998046875</LatitudeDegrees>
              <LongitudeDegrees>-1.5688173472881317138671875</LongitudeDegrees>
            </Position>
            <AltitudeMeters>23.3999996185302734375</AltitudeMeters>
            <DistanceMeters>NAN</DistanceMeters>
          </Trackpoint>
          <Trackpoint>
            <Time>2022-07-07T17:35:35.000Z</Time>
            <Position>
              <LatitudeDegrees>43.4813967905938625335693359375</LatitudeDegrees>
              <LongitudeDegrees>-1.5688128210604190826416015625</LongitudeDegrees>
            </Position>
            <AltitudeMeters>23.200000762939453125</AltitudeMeters>
            <DistanceMeters>NAN</DistanceMeters>
          </Trackpoint>
          <Trackpoint>
            <Time>2022-07-07T17:35:37.000Z</Time>
            <Position>
              <LatitudeDegrees>43.4813656099140644073486328125</LatitudeDegrees>
              <LongitudeDegrees>-1.56882480718195438385009765625</LongitudeDegrees>
            </Position>
            <AltitudeMeters>23</AltitudeMeters>
            <DistanceMeters>NAN</DistanceMeters>
          </Trackpoint>
          <Trackpoint>
            <Time>2022-07-07T17:35:38.000Z</Time>
            <Position>
              <LatitudeDegrees>43.48136569373309612274169921875</LatitudeDegrees>
              <LongitudeDegrees>-1.5688429959118366241455078125</LongitudeDegrees>
            </Position>
            <AltitudeMeters>23</AltitudeMeters>
            <DistanceMeters>NAN</DistanceMeters>
          </Trackpoint>
          <Trackpoint>
            <Time>2022-07-07T17:35:40.000Z</Time>
            <Position>
              <LatitudeDegrees>43.48136150278151035308837890625</LatitudeDegrees>
              <LongitudeDegrees>-1.56884224154055118560791015625</LongitudeDegrees>
            </Position>
            <AltitudeMeters>23</AltitudeMeters>
            <DistanceMeters>NAN</DistanceMeters>
          </Trackpoint>
          <Trackpoint>
            <Time>2022-07-07T17:35:50.000Z</Time>
            <Position>
              <LatitudeDegrees>43.48136351443827152252197265625</LatitudeDegrees>
              <LongitudeDegrees>-1.5687776170670986175537109375</LongitudeDegrees>
            </Position>
            <AltitudeMeters>22.799999237060546875</AltitudeMeters>
            <DistanceMeters>NAN</DistanceMeters>
          </Trackpoint>
          <Trackpoint>
            <Time>2022-07-07T17:35:55.000Z</Time>
            <Position>
              <LatitudeDegrees>43.4814579784870147705078125</LatitudeDegrees>
              <LongitudeDegrees>-1.56883033923804759979248046875</LongitudeDegrees>
            </Position>
            <AltitudeMeters>23.799999237060546875</AltitudeMeters>
            <DistanceMeters>NAN</DistanceMeters>
          </Trackpoint>
          <Trackpoint>
            <Time>2022-07-07T17:35:58.000Z</Time>
            <Position>
              <LatitudeDegrees>43.48154406063258647918701171875</LatitudeDegrees>
              <LongitudeDegrees>-1.56885095871984958648681640625</LongitudeDegrees>
            </Position>
            <AltitudeMeters>24.3999996185302734375</AltitudeMeters>
            <DistanceMeters>NAN</DistanceMeters>
          </Trackpoint>
          <Trackpoint>
            <Time>2022-07-07T17:36:01.000Z</Time>
            <Position>
              <LatitudeDegrees>43.48162821494042873382568359375</LatitudeDegrees>
              <LongitudeDegrees>-1.56882849521934986114501953125</LongitudeDegrees>
            </Position>
            <AltitudeMeters>24.6000003814697265625</AltitudeMeters>
            <DistanceMeters>NAN</DistanceMeters>
          </Trackpoint>
          <Trackpoint>
            <Time>2022-07-07T17:36:05.000Z</Time>
            <Position>
              <LatitudeDegrees>43.48171404562890529632568359375</LatitudeDegrees>
              <LongitudeDegrees>-1.56876630149781703948974609375</LongitudeDegrees>
            </Position>
            <AltitudeMeters>25.3999996185302734375</AltitudeMeters>
            <DistanceMeters>NAN</DistanceMeters>
          </Trackpoint>
          <Trackpoint>
            <Time>2022-07-07T17:36:08.000Z</Time>
            <Position>
              <LatitudeDegrees>43.48178260959684848785400390625</LatitudeDegrees>
              <LongitudeDegrees>-1.56871634535491466522216796875</LongitudeDegrees>
            </Position>
            <AltitudeMeters>26.3999996185302734375</AltitudeMeters>
            <DistanceMeters>NAN</DistanceMeters>
          </Trackpoint>
          <Trackpoint>
            <Time>2022-07-07T17:36:09.000Z</Time>
            <Position>
              <LatitudeDegrees>43.48180406726896762847900390625</LatitudeDegrees>
              <LongitudeDegrees>-1.56870176084339618682861328125</LongitudeDegrees>
            </Position>
            <AltitudeMeters>26.6000003814697265625</AltitudeMeters>
            <DistanceMeters>NAN</DistanceMeters>
          </Trackpoint>
          <Trackpoint>
            <Time>2022-07-07T17:36:10.000Z</Time>
            <Position>
              <LatitudeDegrees>43.481825776398181915283203125</LatitudeDegrees>
              <LongitudeDegrees>-1.5686837397515773773193359375</LongitudeDegrees>
            </Position>
            <AltitudeMeters>26.6000003814697265625</AltitudeMeters>
            <DistanceMeters>NAN</DistanceMeters>
          </Trackpoint>
          <Trackpoint>
            <Time>2022-07-07T17:36:14.000Z</Time>
            <Position>
              <LatitudeDegrees>43.481900207698345184326171875</LatitudeDegrees>
              <LongitudeDegrees>-1.56858927570283412933349609375</LongitudeDegrees>
            </Position>
            <AltitudeMeters>25.200000762939453125</AltitudeMeters>
            <DistanceMeters>NAN</DistanceMeters>
          </Trackpoint>
          <Trackpoint>
            <Time>2022-07-07T17:36:15.000Z</Time>
            <Position>
              <LatitudeDegrees>43.48192426376044750213623046875</LatitudeDegrees>
              <LongitudeDegrees>-1.56855910085141658782958984375</LongitudeDegrees>
            </Position>
            <AltitudeMeters>25</AltitudeMeters>
            <DistanceMeters>NAN</DistanceMeters>
          </Trackpoint>
          <Trackpoint>
            <Time>2022-07-07T17:36:16.000Z</Time>
            <Position>
              <LatitudeDegrees>43.4819496609270572662353515625</LatitudeDegrees>
              <LongitudeDegrees>-1.568541415035724639892578125</LongitudeDegrees>
            </Position>
            <AltitudeMeters>24.799999237060546875</AltitudeMeters>
            <DistanceMeters>NAN</DistanceMeters>
          </Trackpoint>
          <Trackpoint>
            <Time>2022-07-07T17:36:22.000Z</Time>
            <Position>
              <LatitudeDegrees>43.48210036754608154296875</LatitudeDegrees>
              <LongitudeDegrees>-1.56847511418163776397705078125</LongitudeDegrees>
            </Position>
            <AltitudeMeters>25.200000762939453125</AltitudeMeters>
            <DistanceMeters>NAN</DistanceMeters>
          </Trackpoint>
          <Trackpoint>
            <Time>2022-07-07T17:36:25.000Z</Time>
            <Position>
              <LatitudeDegrees>43.482159040868282318115234375</LatitudeDegrees>
              <LongitudeDegrees>-1.56840705312788486480712890625</LongitudeDegrees>
            </Position>
            <AltitudeMeters>25.3999996185302734375</AltitudeMeters>
            <DistanceMeters>NAN</DistanceMeters>
          </Trackpoint>
          <Trackpoint>
            <Time>2022-07-07T17:36:27.000Z</Time>
            <Position>
              <LatitudeDegrees>43.4821808338165283203125</LatitudeDegrees>
              <LongitudeDegrees>-1.56833589076995849609375</LongitudeDegrees>
            </Position>
            <AltitudeMeters>25.3999996185302734375</AltitudeMeters>
            <DistanceMeters>NAN</DistanceMeters>
          </Trackpoint>
          <Trackpoint>
            <Time>2022-07-07T17:36:32.000Z</Time>
            <Position>
              <LatitudeDegrees>43.48222282715141773223876953125</LatitudeDegrees>
              <LongitudeDegrees>-1.5681469626724720001220703125</LongitudeDegrees>
            </Position>
            <AltitudeMeters>26.200000762939453125</AltitudeMeters>
            <DistanceMeters>NAN</DistanceMeters>
          </Trackpoint>
          <Trackpoint>
            <Time>2022-07-07T17:36:33.000Z</Time>
            <Position>
              <LatitudeDegrees>43.48223238252103328704833984375</LatitudeDegrees>
              <LongitudeDegrees>-1.56810161657631397247314453125</LongitudeDegrees>
            </Position>
            <AltitudeMeters>26.200000762939453125</AltitudeMeters>
            <DistanceMeters>NAN</DistanceMeters>
          </Trackpoint>
          <Trackpoint>
            <Time>2022-07-07T17:36:36.000Z</Time>
            <Position>
              <LatitudeDegrees>43.48223305307328701019287109375</LatitudeDegrees>
              <LongitudeDegrees>-1.567964069545269012451171875</LongitudeDegrees>
            </Position>
            <AltitudeMeters>26.3999996185302734375</AltitudeMeters>
            <DistanceMeters>NAN</DistanceMeters>
          </Trackpoint>
          <Trackpoint>
            <Time>2022-07-07T17:36:38.000Z</Time>
            <Position>
              <LatitudeDegrees>43.48222735337913036346435546875</LatitudeDegrees>
              <LongitudeDegrees>-1.5678777359426021575927734375</LongitudeDegrees>
            </Position>
            <AltitudeMeters>26.3999996185302734375</AltitudeMeters>
            <DistanceMeters>NAN</DistanceMeters>
          </Trackpoint>
          <Trackpoint>
            <Time>2022-07-07T17:36:45.000Z</Time>
            <Position>
              <LatitudeDegrees>43.482210673391819000244140625</LatitudeDegrees>
              <LongitudeDegrees>-1.5675981156527996063232421875</LongitudeDegrees>
            </Position>
            <AltitudeMeters>27</AltitudeMeters>
            <DistanceMeters>NAN</DistanceMeters>
          </Trackpoint>
          <Trackpoint>
            <Time>2022-07-07T17:36:50.000Z</Time>
            <Position>
              <LatitudeDegrees>43.48218997009098529815673828125</LatitudeDegrees>
              <LongitudeDegrees>-1.56741932965815067291259765625</LongitudeDegrees>
            </Position>
            <AltitudeMeters>27.200000762939453125</AltitudeMeters>
            <DistanceMeters>NAN</DistanceMeters>
          </Trackpoint>
          <Trackpoint>
            <Time>2022-07-07T17:36:53.000Z</Time>
            <Position>
              <LatitudeDegrees>43.48218628205358982086181640625</LatitudeDegrees>
              <LongitudeDegrees>-1.5673215128481388092041015625</LongitudeDegrees>
            </Position>
            <AltitudeMeters>27.3999996185302734375</AltitudeMeters>
            <DistanceMeters>NAN</DistanceMeters>
          </Trackpoint>
          <Trackpoint>
            <Time>2022-07-07T17:36:56.000Z</Time>
            <Position>
              <LatitudeDegrees>43.48218678496778011322021484375</LatitudeDegrees>
              <LongitudeDegrees>-1.567229814827442169189453125</LongitudeDegrees>
            </Position>
            <AltitudeMeters>28</AltitudeMeters>
            <DistanceMeters>NAN</DistanceMeters>
          </Trackpoint>
          <Trackpoint>
            <Time>2022-07-07T17:36:57.000Z</Time>
            <Position>
              <LatitudeDegrees>43.48217546939849853515625</LatitudeDegrees>
              <LongitudeDegrees>-1.567203998565673828125</LongitudeDegrees>
            </Position>
            <AltitudeMeters>28.3999996185302734375</AltitudeMeters>
            <DistanceMeters>NAN</DistanceMeters>
          </Trackpoint>
          <Trackpoint>
            <Time>2022-07-07T17:36:59.000Z</Time>
            <Position>
              <LatitudeDegrees>43.4821568615734577178955078125</LatitudeDegrees>
              <LongitudeDegrees>-1.5671481750905513763427734375</LongitudeDegrees>
            </Position>
            <AltitudeMeters>28.799999237060546875</AltitudeMeters>
            <DistanceMeters>NAN</DistanceMeters>
          </Trackpoint>
          <Trackpoint>
            <Time>2022-07-07T17:37:03.000Z</Time>
            <Position>
              <LatitudeDegrees>43.48210078664124011993408203125</LatitudeDegrees>
              <LongitudeDegrees>-1.567045748233795166015625</LongitudeDegrees>
            </Position>
            <AltitudeMeters>29.3999996185302734375</AltitudeMeters>
            <DistanceMeters>NAN</DistanceMeters>
          </Trackpoint>
          <Trackpoint>
            <Time>2022-07-07T17:37:05.000Z</Time>
            <Position>
              <LatitudeDegrees>43.4820777364075183868408203125</LatitudeDegrees>
              <LongitudeDegrees>-1.56700844876468181610107421875</LongitudeDegrees>
            </Position>
            <AltitudeMeters>29.6000003814697265625</AltitudeMeters>
            <DistanceMeters>NAN</DistanceMeters>
          </Trackpoint>
          <Trackpoint>
            <Time>2022-07-07T17:37:07.000Z</Time>
            <Position>
              <LatitudeDegrees>43.4820733778178691864013671875</LatitudeDegrees>
              <LongitudeDegrees>-1.56698246486485004425048828125</LongitudeDegrees>
            </Position>
            <AltitudeMeters>29.6000003814697265625</AltitudeMeters>
            <DistanceMeters>NAN</DistanceMeters>
          </Trackpoint>
          <Trackpoint>
            <Time>2022-07-07T17:37:10.000Z</Time>
            <Position>
              <LatitudeDegrees>43.48199282772839069366455078125</LatitudeDegrees>
              <LongitudeDegrees>-1.56698405742645263671875</LongitudeDegrees>
            </Position>
            <AltitudeMeters>30</AltitudeMeters>
            <DistanceMeters>NAN</DistanceMeters>
          </Trackpoint>
          <Trackpoint>
            <Time>2022-07-07T17:37:14.000Z</Time>
            <Position>
              <LatitudeDegrees>43.48191470839083194732666015625</LatitudeDegrees>
              <LongitudeDegrees>-1.56705890782177448272705078125</LongitudeDegrees>
            </Position>
            <AltitudeMeters>30.3999996185302734375</AltitudeMeters>
            <DistanceMeters>NAN</DistanceMeters>
          </Trackpoint>
          <Trackpoint>
            <Time>2022-07-07T17:37:15.000Z</Time>
            <Position>
              <LatitudeDegrees>43.48189861513674259185791015625</LatitudeDegrees>
              <LongitudeDegrees>-1.56707650981843471527099609375</LongitudeDegrees>
            </Position>
            <AltitudeMeters>30.6000003814697265625</AltitudeMeters>
            <DistanceMeters>NAN</DistanceMeters>
          </Trackpoint>
          <Trackpoint>
            <Time>2022-07-07T17:37:20.000Z</Time>
            <Position>
              <LatitudeDegrees>43.481852598488330841064453125</LatitudeDegrees>
              <LongitudeDegrees>-1.567190252244472503662109375</LongitudeDegrees>
            </Position>
            <AltitudeMeters>31.6000003814697265625</AltitudeMeters>
            <DistanceMeters>NAN</DistanceMeters>
          </Trackpoint>
          <Trackpoint>
            <Time>2022-07-07T17:37:22.000Z</Time>
            <Position>
              <LatitudeDegrees>43.4818480722606182098388671875</LatitudeDegrees>
              <LongitudeDegrees>-1.5672202594578266143798828125</LongitudeDegrees>
            </Position>
            <AltitudeMeters>32.200000762939453125</AltitudeMeters>
            <DistanceMeters>NAN</DistanceMeters>
          </Trackpoint>
          <Trackpoint>
            <Time>2022-07-07T17:37:24.000Z</Time>
            <Position>
              <LatitudeDegrees>43.4818289615213871002197265625</LatitudeDegrees>
              <LongitudeDegrees>-1.56728019006550312042236328125</LongitudeDegrees>
            </Position>
            <AltitudeMeters>32.799999237060546875</AltitudeMeters>
            <DistanceMeters>NAN</DistanceMeters>
          </Trackpoint>
          <Trackpoint>
            <Time>2022-07-07T17:37:26.000Z</Time>
            <Position>
              <LatitudeDegrees>43.48182301037013530731201171875</LatitudeDegrees>
              <LongitudeDegrees>-1.56733073294162750244140625</LongitudeDegrees>
            </Position>
            <AltitudeMeters>33</AltitudeMeters>
            <DistanceMeters>NAN</DistanceMeters>
          </Trackpoint>
          <Trackpoint>
            <Time>2022-07-07T17:37:28.000Z</Time>
            <Position>
              <LatitudeDegrees>43.4818323142826557159423828125</LatitudeDegrees>
              <LongitudeDegrees>-1.5673929266631603240966796875</LongitudeDegrees>
            </Position>
            <AltitudeMeters>33.40000152587890625</AltitudeMeters>
            <DistanceMeters>NAN</DistanceMeters>
          </Trackpoint>
          <Trackpoint>
            <Time>2022-07-07T17:37:33.000Z</Time>
            <Position>
              <LatitudeDegrees>43.4818698652088642120361328125</LatitudeDegrees>
              <LongitudeDegrees>-1.56754857860505580902099609375</LongitudeDegrees>
            </Position>
            <AltitudeMeters>33.59999847412109375</AltitudeMeters>
            <DistanceMeters>NAN</DistanceMeters>
          </Trackpoint>
          <Trackpoint>
            <Time>2022-07-07T17:37:34.000Z</Time>
            <Position>
              <LatitudeDegrees>43.481868021190166473388671875</LatitudeDegrees>
              <LongitudeDegrees>-1.56757757999002933502197265625</LongitudeDegrees>
            </Position>
            <AltitudeMeters>33.799999237060546875</AltitudeMeters>
            <DistanceMeters>NAN</DistanceMeters>
          </Trackpoint>
          <Trackpoint>
            <Time>2022-07-07T17:37:38.000Z</Time>
            <Position>
              <LatitudeDegrees>43.48187900148332118988037109375</LatitudeDegrees>
              <LongitudeDegrees>-1.5677033923566341400146484375</LongitudeDegrees>
            </Position>
            <AltitudeMeters>34.59999847412109375</AltitudeMeters>
            <DistanceMeters>NAN</DistanceMeters>
          </Trackpoint>
          <Trackpoint>
            <Time>2022-07-07T17:37:39.000Z</Time>
            <Position>
              <LatitudeDegrees>43.48188646137714385986328125</LatitudeDegrees>
              <LongitudeDegrees>-1.56773113645613193511962890625</LongitudeDegrees>
            </Position>
            <AltitudeMeters>34.799999237060546875</AltitudeMeters>
            <DistanceMeters>NAN</DistanceMeters>
          </Trackpoint>
          <Trackpoint>
            <Time>2022-07-07T17:37:43.000Z</Time>
            <Position>
              <LatitudeDegrees>43.4819268621504306793212890625</LatitudeDegrees>
              <LongitudeDegrees>-1.567836664617061614990234375</LongitudeDegrees>
            </Position>
            <AltitudeMeters>35.40000152587890625</AltitudeMeters>
            <DistanceMeters>NAN</DistanceMeters>
          </Trackpoint>
          <Trackpoint>
            <Time>2022-07-07T17:37:44.000Z</Time>
            <Position>
              <LatitudeDegrees>43.48193298093974590301513671875</LatitudeDegrees>
              <LongitudeDegrees>-1.56786407344043254852294921875</LongitudeDegrees>
            </Position>
            <AltitudeMeters>35.40000152587890625</AltitudeMeters>
            <DistanceMeters>NAN</DistanceMeters>
          </Trackpoint>
          <Trackpoint>
            <Time>2022-07-07T17:37:48.000Z</Time>
            <Position>
              <LatitudeDegrees>43.481946475803852081298828125</LatitudeDegrees>
              <LongitudeDegrees>-1.56798544339835643768310546875</LongitudeDegrees>
            </Position>
            <AltitudeMeters>36.200000762939453125</AltitudeMeters>
            <DistanceMeters>NAN</DistanceMeters>
          </Trackpoint>
          <Trackpoint>
            <Time>2022-07-07T17:37:52.000Z</Time>
            <Position>
              <LatitudeDegrees>43.4819496609270572662353515625</LatitudeDegrees>
              <LongitudeDegrees>-1.5681070648133754730224609375</LongitudeDegrees>
            </Position>
            <AltitudeMeters>36.799999237060546875</AltitudeMeters>
            <DistanceMeters>NAN</DistanceMeters>
          </Trackpoint>
          <Trackpoint>
            <Time>2022-07-07T17:37:54.000Z</Time>
            <Position>
              <LatitudeDegrees>43.4819530136883258819580078125</LatitudeDegrees>
              <LongitudeDegrees>-1.5681664086878299713134765625</LongitudeDegrees>
            </Position>
            <AltitudeMeters>37.200000762939453125</AltitudeMeters>
            <DistanceMeters>NAN</DistanceMeters>
          </Trackpoint>
          <Trackpoint>
            <Time>2022-07-07T17:37:59.000Z</Time>
            <Position>
              <LatitudeDegrees>43.48193071782588958740234375</LatitudeDegrees>
              <LongitudeDegrees>-1.5683078952133655548095703125</LongitudeDegrees>
            </Position>
            <AltitudeMeters>38.40000152587890625</AltitudeMeters>
            <DistanceMeters>NAN</DistanceMeters>
          </Trackpoint>
          <Trackpoint>
            <Time>2022-07-07T17:38:00.000Z</Time>
            <Position>
              <LatitudeDegrees>43.48191789351403713226318359375</LatitudeDegrees>
              <LongitudeDegrees>-1.56832608394324779510498046875</LongitudeDegrees>
            </Position>
            <AltitudeMeters>38.799999237060546875</AltitudeMeters>
            <DistanceMeters>NAN</DistanceMeters>
          </Trackpoint>
          <Trackpoint>
            <Time>2022-07-07T17:38:02.000Z</Time>
            <Position>
              <LatitudeDegrees>43.48188646137714385986328125</LatitudeDegrees>
              <LongitudeDegrees>-1.56836346723139286041259765625</LongitudeDegrees>
            </Position>
            <AltitudeMeters>39.40000152587890625</AltitudeMeters>
            <DistanceMeters>NAN</DistanceMeters>
          </Trackpoint>
          <Trackpoint>
            <Time>2022-07-07T17:38:05.000Z</Time>
            <Position>
              <LatitudeDegrees>43.48187682218849658966064453125</LatitudeDegrees>
              <LongitudeDegrees>-1.56838241033256053924560546875</LongitudeDegrees>
            </Position>
            <AltitudeMeters>39.59999847412109375</AltitudeMeters>
            <DistanceMeters>NAN</DistanceMeters>
          </Trackpoint>
          <Trackpoint>
            <Time>2022-07-07T17:38:07.000Z</Time>
            <Position>
              <LatitudeDegrees>43.4818795882165431976318359375</LatitudeDegrees>
              <LongitudeDegrees>-1.56838106922805309295654296875</LongitudeDegrees>
            </Position>
            <AltitudeMeters>39.40000152587890625</AltitudeMeters>
            <DistanceMeters>NAN</DistanceMeters>
          </Trackpoint>
          <Trackpoint>
            <Time>2022-07-07T17:40:43.000Z</Time>
            <Position>
              <LatitudeDegrees>43.4818173944950103759765625</LatitudeDegrees>
              <LongitudeDegrees>-1.568399928510189056396484375</LongitudeDegrees>
            </Position>
            <AltitudeMeters>40.59999847412109375</AltitudeMeters>
            <DistanceMeters>NAN</DistanceMeters>
          </Trackpoint>
          <Trackpoint>
            <Time>2022-07-07T17:40:44.000Z</Time>
            <Position>
              <LatitudeDegrees>43.4817910753190517425537109375</LatitudeDegrees>
              <LongitudeDegrees>-1.56841727904975414276123046875</LongitudeDegrees>
            </Position>
            <AltitudeMeters>40.59999847412109375</AltitudeMeters>
            <DistanceMeters>NAN</DistanceMeters>
          </Trackpoint>
          <Trackpoint>
            <Time>2022-07-07T17:40:48.000Z</Time>
            <Position>
              <LatitudeDegrees>43.4816804341971874237060546875</LatitudeDegrees>
              <LongitudeDegrees>-1.56844812445342540740966796875</LongitudeDegrees>
            </Position>
            <AltitudeMeters>41.59999847412109375</AltitudeMeters>
            <DistanceMeters>NAN</DistanceMeters>
          </Trackpoint>
          <Trackpoint>
            <Time>2022-07-07T17:40:49.000Z</Time>
            <Position>
              <LatitudeDegrees>43.4816556237637996673583984375</LatitudeDegrees>
              <LongitudeDegrees>-1.56844963319599628448486328125</LongitudeDegrees>
            </Position>
            <AltitudeMeters>41.799999237060546875</AltitudeMeters>
            <DistanceMeters>NAN</DistanceMeters>
          </Trackpoint>
          <Trackpoint>
            <Time>2022-07-07T17:40:52.000Z</Time>
            <Position>
              <LatitudeDegrees>43.48159602843225002288818359375</LatitudeDegrees>
              <LongitudeDegrees>-1.56846203841269016265869140625</LongitudeDegrees>
            </Position>
            <AltitudeMeters>42.799999237060546875</AltitudeMeters>
            <DistanceMeters>NAN</DistanceMeters>
          </Trackpoint>
          <Trackpoint>
            <Time>2022-07-07T17:40:55.000Z</Time>
            <Position>
              <LatitudeDegrees>43.48155663348734378814697265625</LatitudeDegrees>
              <LongitudeDegrees>-1.5684296004474163055419921875</LongitudeDegrees>
            </Position>
            <AltitudeMeters>43</AltitudeMeters>
            <DistanceMeters>NAN</DistanceMeters>
          </Trackpoint>
          <Trackpoint>
            <Time>2022-07-07T17:41:01.000Z</Time>
            <Position>
              <LatitudeDegrees>43.481523357331752777099609375</LatitudeDegrees>
              <LongitudeDegrees>-1.5682451985776424407958984375</LongitudeDegrees>
            </Position>
            <AltitudeMeters>44</AltitudeMeters>
            <DistanceMeters>NAN</DistanceMeters>
          </Trackpoint>
          <Trackpoint>
            <Time>2022-07-07T17:41:04.000Z</Time>
            <Position>
              <LatitudeDegrees>43.481515310704708099365234375</LatitudeDegrees>
              <LongitudeDegrees>-1.56814402900636196136474609375</LongitudeDegrees>
            </Position>
            <AltitudeMeters>44.40000152587890625</AltitudeMeters>
            <DistanceMeters>NAN</DistanceMeters>
          </Trackpoint>
          <Trackpoint>
            <Time>2022-07-07T17:41:06.000Z</Time>
            <Position>
              <LatitudeDegrees>43.48150684498250484466552734375</LatitudeDegrees>
              <LongitudeDegrees>-1.56807881779968738555908203125</LongitudeDegrees>
            </Position>
            <AltitudeMeters>44.59999847412109375</AltitudeMeters>
            <DistanceMeters>NAN</DistanceMeters>
          </Trackpoint>
          <Trackpoint>
            <Time>2022-07-07T17:41:08.000Z</Time>
            <Position>
              <LatitudeDegrees>43.4814987145364284515380859375</LatitudeDegrees>
              <LongitudeDegrees>-1.5680265985429286956787109375</LongitudeDegrees>
            </Position>
            <AltitudeMeters>45</AltitudeMeters>
            <DistanceMeters>NAN</DistanceMeters>
          </Trackpoint>
          <Trackpoint>
            <Time>2022-07-07T17:41:09.000Z</Time>
            <Position>
              <LatitudeDegrees>43.4815008938312530517578125</LatitudeDegrees>
              <LongitudeDegrees>-1.5679981000721454620361328125</LongitudeDegrees>
            </Position>
            <AltitudeMeters>45</AltitudeMeters>
            <DistanceMeters>NAN</DistanceMeters>
          </Trackpoint>
          <Trackpoint>
            <Time>2022-07-07T17:41:17.000Z</Time>
            <Position>
              <LatitudeDegrees>43.48145856522023677825927734375</LatitudeDegrees>
              <LongitudeDegrees>-1.56775980256497859954833984375</LongitudeDegrees>
            </Position>
            <AltitudeMeters>45.59999847412109375</AltitudeMeters>
            <DistanceMeters>NAN</DistanceMeters>
          </Trackpoint>
          <Trackpoint>
            <Time>2022-07-07T17:41:21.000Z</Time>
            <Position>
              <LatitudeDegrees>43.4814346767961978912353515625</LatitudeDegrees>
              <LongitudeDegrees>-1.56764815561473369598388671875</LongitudeDegrees>
            </Position>
            <AltitudeMeters>46</AltitudeMeters>
            <DistanceMeters>NAN</DistanceMeters>
          </Trackpoint>
          <Trackpoint>
            <Time>2022-07-07T17:41:22.000Z</Time>
            <Position>
              <LatitudeDegrees>43.48142839036881923675537109375</LatitudeDegrees>
              <LongitudeDegrees>-1.56761907041072845458984375</LongitudeDegrees>
            </Position>
            <AltitudeMeters>46.200000762939453125</AltitudeMeters>
            <DistanceMeters>NAN</DistanceMeters>
          </Trackpoint>
          <Trackpoint>
            <Time>2022-07-07T17:41:26.000Z</Time>
            <Position>
              <LatitudeDegrees>43.4813991375267505645751953125</LatitudeDegrees>
              <LongitudeDegrees>-1.5674982033669948577880859375</LongitudeDegrees>
            </Position>
            <AltitudeMeters>46.40000152587890625</AltitudeMeters>
            <DistanceMeters>NAN</DistanceMeters>
          </Trackpoint>
          <Trackpoint>
            <Time>2022-07-07T17:41:34.000Z</Time>
            <Position>
              <LatitudeDegrees>43.48135228268802165985107421875</LatitudeDegrees>
              <LongitudeDegrees>-1.56731589697301387786865234375</LongitudeDegrees>
            </Position>
            <AltitudeMeters>47</AltitudeMeters>
            <DistanceMeters>NAN</DistanceMeters>
          </Trackpoint>
          <Trackpoint>
            <Time>2022-07-07T17:41:36.000Z</Time>
            <Position>
              <LatitudeDegrees>43.48132847808301448822021484375</LatitudeDegrees>
              <LongitudeDegrees>-1.567266024649143218994140625</LongitudeDegrees>
            </Position>
            <AltitudeMeters>47.200000762939453125</AltitudeMeters>
            <DistanceMeters>NAN</DistanceMeters>
          </Trackpoint>
          <Trackpoint>
            <Time>2022-07-07T17:41:47.000Z</Time>
            <Position>
              <LatitudeDegrees>43.48125270567834377288818359375</LatitudeDegrees>
              <LongitudeDegrees>-1.56697207130491733551025390625</LongitudeDegrees>
            </Position>
            <AltitudeMeters>48.40000152587890625</AltitudeMeters>
            <DistanceMeters>NAN</DistanceMeters>
          </Trackpoint>
          <Trackpoint>
            <Time>2022-07-07T17:41:48.000Z</Time>
            <Position>
              <LatitudeDegrees>43.48124566487967967987060546875</LatitudeDegrees>
              <LongitudeDegrees>-1.56694608740508556365966796875</LongitudeDegrees>
            </Position>
            <AltitudeMeters>48.59999847412109375</AltitudeMeters>
            <DistanceMeters>NAN</DistanceMeters>
          </Trackpoint>
          <Trackpoint>
            <Time>2022-07-07T17:41:57.000Z</Time>
            <Position>
              <LatitudeDegrees>43.48118506371974945068359375</LatitudeDegrees>
              <LongitudeDegrees>-1.566718518733978271484375</LongitudeDegrees>
            </Position>
            <AltitudeMeters>49.200000762939453125</AltitudeMeters>
            <DistanceMeters>NAN</DistanceMeters>
          </Trackpoint>
          <Trackpoint>
            <Time>2022-07-07T17:42:00.000Z</Time>
            <Position>
              <LatitudeDegrees>43.4811629354953765869140625</LatitudeDegrees>
              <LongitudeDegrees>-1.5666496194899082183837890625</LongitudeDegrees>
            </Position>
            <AltitudeMeters>49.40000152587890625</AltitudeMeters>
            <DistanceMeters>NAN</DistanceMeters>
          </Trackpoint>
          <Trackpoint>
            <Time>2022-07-07T17:42:07.000Z</Time>
            <Position>
              <LatitudeDegrees>43.4810960479080677032470703125</LatitudeDegrees>
              <LongitudeDegrees>-1.566498242318630218505859375</LongitudeDegrees>
            </Position>
            <AltitudeMeters>50.40000152587890625</AltitudeMeters>
            <DistanceMeters>NAN</DistanceMeters>
          </Trackpoint>
          <Trackpoint>
            <Time>2022-07-07T17:42:15.000Z</Time>
            <Position>
              <LatitudeDegrees>43.48101398907601833343505859375</LatitudeDegrees>
              <LongitudeDegrees>-1.5663029439747333526611328125</LongitudeDegrees>
            </Position>
            <AltitudeMeters>51.200000762939453125</AltitudeMeters>
            <DistanceMeters>NAN</DistanceMeters>
          </Trackpoint>
          <Trackpoint>
            <Time>2022-07-07T17:42:17.000Z</Time>
            <Position>
              <LatitudeDegrees>43.48099722526967525482177734375</LatitudeDegrees>
              <LongitudeDegrees>-1.56625407747924327850341796875</LongitudeDegrees>
            </Position>
            <AltitudeMeters>51.59999847412109375</AltitudeMeters>
            <DistanceMeters>NAN</DistanceMeters>
          </Trackpoint>
          <Trackpoint>
            <Time>2022-07-07T17:42:21.000Z</Time>
            <Position>
              <LatitudeDegrees>43.4809565730392932891845703125</LatitudeDegrees>
              <LongitudeDegrees>-1.56616774387657642364501953125</LongitudeDegrees>
            </Position>
            <AltitudeMeters>51.799999237060546875</AltitudeMeters>
            <DistanceMeters>NAN</DistanceMeters>
          </Trackpoint>
          <Trackpoint>
            <Time>2022-07-07T17:42:25.000Z</Time>
            <Position>
              <LatitudeDegrees>43.4809227101504802703857421875</LatitudeDegrees>
              <LongitudeDegrees>-1.566065065562725067138671875</LongitudeDegrees>
            </Position>
            <AltitudeMeters>52.200000762939453125</AltitudeMeters>
            <DistanceMeters>NAN</DistanceMeters>
          </Trackpoint>
          <Trackpoint>
            <Time>2022-07-07T17:42:28.000Z</Time>
            <Position>
              <LatitudeDegrees>43.48089345730841159820556640625</LatitudeDegrees>
              <LongitudeDegrees>-1.56598803587257862091064453125</LongitudeDegrees>
            </Position>
            <AltitudeMeters>52.59999847412109375</AltitudeMeters>
            <DistanceMeters>NAN</DistanceMeters>
          </Trackpoint>
          <Trackpoint>
            <Time>2022-07-07T17:42:33.000Z</Time>
            <Position>
              <LatitudeDegrees>43.480844758450984954833984375</LatitudeDegrees>
              <LongitudeDegrees>-1.5658764727413654327392578125</LongitudeDegrees>
            </Position>
            <AltitudeMeters>53.200000762939453125</AltitudeMeters>
            <DistanceMeters>NAN</DistanceMeters>
          </Trackpoint>
          <Trackpoint>
            <Time>2022-07-07T17:42:38.000Z</Time>
            <Position>
              <LatitudeDegrees>43.480809889733791351318359375</LatitudeDegrees>
              <LongitudeDegrees>-1.5657393448054790496826171875</LongitudeDegrees>
            </Position>
            <AltitudeMeters>53.799999237060546875</AltitudeMeters>
            <DistanceMeters>NAN</DistanceMeters>
          </Trackpoint>
          <Trackpoint>
            <Time>2022-07-07T17:42:42.000Z</Time>
            <Position>
              <LatitudeDegrees>43.480768986046314239501953125</LatitudeDegrees>
              <LongitudeDegrees>-1.5656612254679203033447265625</LongitudeDegrees>
            </Position>
            <AltitudeMeters>54.200000762939453125</AltitudeMeters>
            <DistanceMeters>NAN</DistanceMeters>
          </Trackpoint>
          <Trackpoint>
            <Time>2022-07-07T17:42:46.000Z</Time>
            <Position>
              <LatitudeDegrees>43.4807111509144306182861328125</LatitudeDegrees>
              <LongitudeDegrees>-1.5655991993844509124755859375</LongitudeDegrees>
            </Position>
            <AltitudeMeters>55</AltitudeMeters>
            <DistanceMeters>NAN</DistanceMeters>
          </Trackpoint>
          <Trackpoint>
            <Time>2022-07-07T17:42:49.000Z</Time>
            <Position>
              <LatitudeDegrees>43.4806494601070880889892578125</LatitudeDegrees>
              <LongitudeDegrees>-1.565568186342716217041015625</LongitudeDegrees>
            </Position>
            <AltitudeMeters>55.40000152587890625</AltitudeMeters>
            <DistanceMeters>NAN</DistanceMeters>
          </Trackpoint>
          <Trackpoint>
            <Time>2022-07-07T17:42:55.000Z</Time>
            <Position>
              <LatitudeDegrees>43.4805361367762088775634765625</LatitudeDegrees>
              <LongitudeDegrees>-1.565487384796142578125</LongitudeDegrees>
            </Position>
            <AltitudeMeters>56</AltitudeMeters>
            <DistanceMeters>NAN</DistanceMeters>
          </Trackpoint>
          <Trackpoint>
            <Time>2022-07-07T17:42:56.000Z</Time>
            <Position>
              <LatitudeDegrees>43.48050889559090137481689453125</LatitudeDegrees>
              <LongitudeDegrees>-1.5654905699193477630615234375</LongitudeDegrees>
            </Position>
            <AltitudeMeters>56.200000762939453125</AltitudeMeters>
            <DistanceMeters>NAN</DistanceMeters>
          </Trackpoint>
          <Trackpoint>
            <Time>2022-07-07T17:43:01.000Z</Time>
            <Position>
              <LatitudeDegrees>43.4804134257137775421142578125</LatitudeDegrees>
              <LongitudeDegrees>-1.56545209698379039764404296875</LongitudeDegrees>
            </Position>
            <AltitudeMeters>57.200000762939453125</AltitudeMeters>
            <DistanceMeters>NAN</DistanceMeters>
          </Trackpoint>
          <Trackpoint>
            <Time>2022-07-07T17:43:08.000Z</Time>
            <Position>
              <LatitudeDegrees>43.48027436994016170501708984375</LatitudeDegrees>
              <LongitudeDegrees>-1.5654057450592517852783203125</LongitudeDegrees>
            </Position>
            <AltitudeMeters>58</AltitudeMeters>
            <DistanceMeters>NAN</DistanceMeters>
          </Trackpoint>
          <Trackpoint>
            <Time>2022-07-07T17:43:09.000Z</Time>
            <Position>
              <LatitudeDegrees>43.48025492392480373382568359375</LatitudeDegrees>
              <LongitudeDegrees>-1.5653976984322071075439453125</LongitudeDegrees>
            </Position>
            <AltitudeMeters>58.200000762939453125</AltitudeMeters>
            <DistanceMeters>NAN</DistanceMeters>
          </Trackpoint>
          <Trackpoint>
            <Time>2022-07-07T17:43:17.000Z</Time>
            <Position>
              <LatitudeDegrees>43.48011846654117107391357421875</LatitudeDegrees>
              <LongitudeDegrees>-1.56535352580249309539794921875</LongitudeDegrees>
            </Position>
            <AltitudeMeters>59</AltitudeMeters>
            <DistanceMeters>NAN</DistanceMeters>
          </Trackpoint>
          <Trackpoint>
            <Time>2022-07-07T17:43:22.000Z</Time>
            <Position>
              <LatitudeDegrees>43.48002810962498188018798828125</LatitudeDegrees>
              <LongitudeDegrees>-1.56534380279481410980224609375</LongitudeDegrees>
            </Position>
            <AltitudeMeters>59.200000762939453125</AltitudeMeters>
            <DistanceMeters>NAN</DistanceMeters>
          </Trackpoint>
          <Trackpoint>
            <Time>2022-07-07T17:43:23.000Z</Time>
            <Position>
              <LatitudeDegrees>43.4800067357718944549560546875</LatitudeDegrees>
              <LongitudeDegrees>-1.5653420425951480865478515625</LongitudeDegrees>
            </Position>
            <AltitudeMeters>59.200000762939453125</AltitudeMeters>
            <DistanceMeters>NAN</DistanceMeters>
          </Trackpoint>
          <Trackpoint>
            <Time>2022-07-07T17:43:29.000Z</Time>
            <Position>
              <LatitudeDegrees>43.47983716987073421478271484375</LatitudeDegrees>
              <LongitudeDegrees>-1.56533039174973964691162109375</LongitudeDegrees>
            </Position>
            <AltitudeMeters>60</AltitudeMeters>
            <DistanceMeters>NAN</DistanceMeters>
          </Trackpoint>
          <Trackpoint>
            <Time>2022-07-07T17:43:33.000Z</Time>
            <Position>
              <LatitudeDegrees>43.47969819791615009307861328125</LatitudeDegrees>
              <LongitudeDegrees>-1.565365679562091827392578125</LongitudeDegrees>
            </Position>
            <AltitudeMeters>59.799999237060546875</AltitudeMeters>
            <DistanceMeters>NAN</DistanceMeters>
          </Trackpoint>
          <Trackpoint>
            <Time>2022-07-07T17:43:35.000Z</Time>
            <Position>
              <LatitudeDegrees>43.47963784821331501007080078125</LatitudeDegrees>
              <LongitudeDegrees>-1.56538755632936954498291015625</LongitudeDegrees>
            </Position>
            <AltitudeMeters>59.59999847412109375</AltitudeMeters>
            <DistanceMeters>NAN</DistanceMeters>
          </Trackpoint>
          <Trackpoint>
            <Time>2022-07-07T17:43:44.000Z</Time>
            <Position>
              <LatitudeDegrees>43.47931087017059326171875</LatitudeDegrees>
              <LongitudeDegrees>-1.5654404461383819580078125</LongitudeDegrees>
            </Position>
            <AltitudeMeters>59.799999237060546875</AltitudeMeters>
            <DistanceMeters>NAN</DistanceMeters>
          </Trackpoint>
          <Trackpoint>
            <Time>2022-07-07T17:43:48.000Z</Time>
            <Position>
              <LatitudeDegrees>43.47911884076893329620361328125</LatitudeDegrees>
              <LongitudeDegrees>-1.5653688646852970123291015625</LongitudeDegrees>
            </Position>
            <AltitudeMeters>60.200000762939453125</AltitudeMeters>
            <DistanceMeters>NAN</DistanceMeters>
          </Trackpoint>
          <Trackpoint>
            <Time>2022-07-07T17:43:49.000Z</Time>
            <Position>
              <LatitudeDegrees>43.47909101285040378570556640625</LatitudeDegrees>
              <LongitudeDegrees>-1.5653574652969837188720703125</LongitudeDegrees>
            </Position>
            <AltitudeMeters>60.200000762939453125</AltitudeMeters>
            <DistanceMeters>NAN</DistanceMeters>
          </Trackpoint>
          <Trackpoint>
            <Time>2022-07-07T17:43:51.000Z</Time>
            <Position>
              <LatitudeDegrees>43.47903150133788585662841796875</LatitudeDegrees>
              <LongitudeDegrees>-1.56531295739114284515380859375</LongitudeDegrees>
            </Position>
            <AltitudeMeters>60.200000762939453125</AltitudeMeters>
            <DistanceMeters>NAN</DistanceMeters>
          </Trackpoint>
          <Trackpoint>
            <Time>2022-07-07T17:43:53.000Z</Time>
            <Position>
              <LatitudeDegrees>43.47894315607845783233642578125</LatitudeDegrees>
              <LongitudeDegrees>-1.56523349694907665252685546875</LongitudeDegrees>
            </Position>
            <AltitudeMeters>60.40000152587890625</AltitudeMeters>
            <DistanceMeters>NAN</DistanceMeters>
          </Trackpoint>
          <Trackpoint>
            <Time>2022-07-07T17:43:58.000Z</Time>
            <Position>
              <LatitudeDegrees>43.47886939533054828643798828125</LatitudeDegrees>
              <LongitudeDegrees>-1.5649802796542644500732421875</LongitudeDegrees>
            </Position>
            <AltitudeMeters>60.59999847412109375</AltitudeMeters>
            <DistanceMeters>NAN</DistanceMeters>
          </Trackpoint>
          <Trackpoint>
            <Time>2022-07-07T17:44:00.000Z</Time>
            <Position>
              <LatitudeDegrees>43.47882580943405628204345703125</LatitudeDegrees>
              <LongitudeDegrees>-1.56492210924625396728515625</LongitudeDegrees>
            </Position>
            <AltitudeMeters>60.59999847412109375</AltitudeMeters>
            <DistanceMeters>NAN</DistanceMeters>
          </Trackpoint>
          <Trackpoint>
            <Time>2022-07-07T17:44:02.000Z</Time>
            <Position>
              <LatitudeDegrees>43.4787504561245441436767578125</LatitudeDegrees>
              <LongitudeDegrees>-1.5649004839360713958740234375</LongitudeDegrees>
            </Position>
            <AltitudeMeters>60.59999847412109375</AltitudeMeters>
            <DistanceMeters>NAN</DistanceMeters>
          </Trackpoint>
          <Trackpoint>
            <Time>2022-07-07T17:44:06.000Z</Time>
            <Position>
              <LatitudeDegrees>43.4785871766507625579833984375</LatitudeDegrees>
              <LongitudeDegrees>-1.56493744812905788421630859375</LongitudeDegrees>
            </Position>
            <AltitudeMeters>60.200000762939453125</AltitudeMeters>
            <DistanceMeters>NAN</DistanceMeters>
          </Trackpoint>
          <Trackpoint>
            <Time>2022-07-07T17:44:09.000Z</Time>
            <Position>
              <LatitudeDegrees>43.47846237011253833770751953125</LatitudeDegrees>
              <LongitudeDegrees>-1.56497399322688579559326171875</LongitudeDegrees>
            </Position>
            <AltitudeMeters>60.200000762939453125</AltitudeMeters>
            <DistanceMeters>NAN</DistanceMeters>
          </Trackpoint>
          <Trackpoint>
            <Time>2022-07-07T17:44:12.000Z</Time>
            <Position>
              <LatitudeDegrees>43.47830973565578460693359375</LatitudeDegrees>
              <LongitudeDegrees>-1.56501003541052341461181640625</LongitudeDegrees>
            </Position>
            <AltitudeMeters>60</AltitudeMeters>
            <DistanceMeters>NAN</DistanceMeters>
          </Trackpoint>
          <Trackpoint>
            <Time>2022-07-07T17:44:14.000Z</Time>
            <Position>
              <LatitudeDegrees>43.47820487804710865020751953125</LatitudeDegrees>
              <LongitudeDegrees>-1.5650285594165325164794921875</LongitudeDegrees>
            </Position>
            <AltitudeMeters>59.799999237060546875</AltitudeMeters>
            <DistanceMeters>NAN</DistanceMeters>
          </Trackpoint>
          <Trackpoint>
            <Time>2022-07-07T17:44:15.000Z</Time>
            <Position>
              <LatitudeDegrees>43.4781503118574619293212890625</LatitudeDegrees>
              <LongitudeDegrees>-1.56502780504524707794189453125</LongitudeDegrees>
            </Position>
            <AltitudeMeters>59.59999847412109375</AltitudeMeters>
            <DistanceMeters>NAN</DistanceMeters>
          </Trackpoint>
          <Trackpoint>
            <Time>2022-07-07T17:44:17.000Z</Time>
            <Position>
              <LatitudeDegrees>43.47804545424878597259521484375</LatitudeDegrees>
              <LongitudeDegrees>-1.56503467820584774017333984375</LongitudeDegrees>
            </Position>
            <AltitudeMeters>59.40000152587890625</AltitudeMeters>
            <DistanceMeters>NAN</DistanceMeters>
          </Trackpoint>
          <Trackpoint>
            <Time>2022-07-07T17:44:18.000Z</Time>
            <Position>
              <LatitudeDegrees>43.47800798714160919189453125</LatitudeDegrees>
              <LongitudeDegrees>-1.565039120614528656005859375</LongitudeDegrees>
            </Position>
            <AltitudeMeters>59.40000152587890625</AltitudeMeters>
            <DistanceMeters>NAN</DistanceMeters>
          </Trackpoint>
          <Trackpoint>
            <Time>2022-07-07T17:44:19.000Z</Time>
            <Position>
              <LatitudeDegrees>43.47795392386615276336669921875</LatitudeDegrees>
              <LongitudeDegrees>-1.56504825688898563385009765625</LongitudeDegrees>
            </Position>
            <AltitudeMeters>59.59999847412109375</AltitudeMeters>
            <DistanceMeters>NAN</DistanceMeters>
          </Trackpoint>
          <Trackpoint>
            <Time>2022-07-07T17:44:20.000Z</Time>
            <Position>
              <LatitudeDegrees>43.47790765576064586639404296875</LatitudeDegrees>
              <LongitudeDegrees>-1.56506024301052093505859375</LongitudeDegrees>
            </Position>
            <AltitudeMeters>59.799999237060546875</AltitudeMeters>
            <DistanceMeters>NAN</DistanceMeters>
          </Trackpoint>
          <Trackpoint>
            <Time>2022-07-07T17:44:23.000Z</Time>
            <Position>
              <LatitudeDegrees>43.47775812260806560516357421875</LatitudeDegrees>
              <LongitudeDegrees>-1.56513869762420654296875</LongitudeDegrees>
            </Position>
            <AltitudeMeters>60</AltitudeMeters>
            <DistanceMeters>NAN</DistanceMeters>
          </Trackpoint>
          <Trackpoint>
            <Time>2022-07-07T17:44:25.000Z</Time>
            <Position>
              <LatitudeDegrees>43.4776936657726764678955078125</LatitudeDegrees>
              <LongitudeDegrees>-1.5651931799948215484619140625</LongitudeDegrees>
            </Position>
            <AltitudeMeters>60.200000762939453125</AltitudeMeters>
            <DistanceMeters>NAN</DistanceMeters>
          </Trackpoint>
          <Trackpoint>
            <Time>2022-07-07T17:44:31.000Z</Time>
            <Position>
              <LatitudeDegrees>43.4775042347609996795654296875</LatitudeDegrees>
              <LongitudeDegrees>-1.56536978669464588165283203125</LongitudeDegrees>
            </Position>
            <AltitudeMeters>60.59999847412109375</AltitudeMeters>
            <DistanceMeters>NAN</DistanceMeters>
          </Trackpoint>
          <Trackpoint>
            <Time>2022-07-07T17:44:34.000Z</Time>
            <Position>
              <LatitudeDegrees>43.4774163924157619476318359375</LatitudeDegrees>
              <LongitudeDegrees>-1.5654288791120052337646484375</LongitudeDegrees>
            </Position>
            <AltitudeMeters>60.799999237060546875</AltitudeMeters>
            <DistanceMeters>NAN</DistanceMeters>
          </Trackpoint>
          <Trackpoint>
            <Time>2022-07-07T17:44:37.000Z</Time>
            <Position>
              <LatitudeDegrees>43.4773225151002407073974609375</LatitudeDegrees>
              <LongitudeDegrees>-1.56543332152068614959716796875</LongitudeDegrees>
            </Position>
            <AltitudeMeters>61.200000762939453125</AltitudeMeters>
            <DistanceMeters>NAN</DistanceMeters>
          </Trackpoint>
          <Trackpoint>
            <Time>2022-07-07T17:44:40.000Z</Time>
            <Position>
              <LatitudeDegrees>43.47724146209657192230224609375</LatitudeDegrees>
              <LongitudeDegrees>-1.56544354744255542755126953125</LongitudeDegrees>
            </Position>
            <AltitudeMeters>61.200000762939453125</AltitudeMeters>
            <DistanceMeters>NAN</DistanceMeters>
          </Trackpoint>
          <Trackpoint>
            <Time>2022-07-07T17:44:43.000Z</Time>
            <Position>
              <LatitudeDegrees>43.47716309130191802978515625</LatitudeDegrees>
              <LongitudeDegrees>-1.5655100159347057342529296875</LongitudeDegrees>
            </Position>
            <AltitudeMeters>61.799999237060546875</AltitudeMeters>
            <DistanceMeters>NAN</DistanceMeters>
          </Trackpoint>
          <Trackpoint>
            <Time>2022-07-07T17:44:49.000Z</Time>
            <Position>
              <LatitudeDegrees>43.47696318291127681732177734375</LatitudeDegrees>
              <LongitudeDegrees>-1.5655928291380405426025390625</LongitudeDegrees>
            </Position>
            <AltitudeMeters>62</AltitudeMeters>
            <DistanceMeters>NAN</DistanceMeters>
          </Trackpoint>
          <Trackpoint>
            <Time>2022-07-07T17:44:56.000Z</Time>
            <Position>
              <LatitudeDegrees>43.47673662006855010986328125</LatitudeDegrees>
              <LongitudeDegrees>-1.56570925377309322357177734375</LongitudeDegrees>
            </Position>
            <AltitudeMeters>62.200000762939453125</AltitudeMeters>
            <DistanceMeters>NAN</DistanceMeters>
          </Trackpoint>
          <Trackpoint>
            <Time>2022-07-07T17:44:58.000Z</Time>
            <Position>
              <LatitudeDegrees>43.4766653738915920257568359375</LatitudeDegrees>
              <LongitudeDegrees>-1.56575753353536128997802734375</LongitudeDegrees>
            </Position>
            <AltitudeMeters>62.40000152587890625</AltitudeMeters>
            <DistanceMeters>NAN</DistanceMeters>
          </Trackpoint>
          <Trackpoint>
            <Time>2022-07-07T17:45:01.000Z</Time>
            <Position>
              <LatitudeDegrees>43.47656152211129665374755859375</LatitudeDegrees>
              <LongitudeDegrees>-1.56580564565956592559814453125</LongitudeDegrees>
            </Position>
            <AltitudeMeters>62.200000762939453125</AltitudeMeters>
            <DistanceMeters>NAN</DistanceMeters>
          </Trackpoint>
          <Trackpoint>
            <Time>2022-07-07T17:45:04.000Z</Time>
            <Position>
              <LatitudeDegrees>43.4764226339757442474365234375</LatitudeDegrees>
              <LongitudeDegrees>-1.5658503212034702301025390625</LongitudeDegrees>
            </Position>
            <AltitudeMeters>62</AltitudeMeters>
            <DistanceMeters>NAN</DistanceMeters>
          </Trackpoint>
          <Trackpoint>
            <Time>2022-07-07T17:45:13.000Z</Time>
            <Position>
              <LatitudeDegrees>43.4760451130568981170654296875</LatitudeDegrees>
              <LongitudeDegrees>-1.56601351685822010040283203125</LongitudeDegrees>
            </Position>
            <AltitudeMeters>62</AltitudeMeters>
            <DistanceMeters>NAN</DistanceMeters>
          </Trackpoint>
          <Trackpoint>
            <Time>2022-07-07T17:45:18.000Z</Time>
            <Position>
              <LatitudeDegrees>43.47580664791166782379150390625</LatitudeDegrees>
              <LongitudeDegrees>-1.56608191318809986114501953125</LongitudeDegrees>
            </Position>
            <AltitudeMeters>61.59999847412109375</AltitudeMeters>
            <DistanceMeters>NAN</DistanceMeters>
          </Trackpoint>
          <Trackpoint>
            <Time>2022-07-07T17:45:20.000Z</Time>
            <Position>
              <LatitudeDegrees>43.47571494989097118377685546875</LatitudeDegrees>
              <LongitudeDegrees>-1.56611259095370769500732421875</LongitudeDegrees>
            </Position>
            <AltitudeMeters>61.40000152587890625</AltitudeMeters>
            <DistanceMeters>NAN</DistanceMeters>
          </Trackpoint>
          <Trackpoint>
            <Time>2022-07-07T17:45:21.000Z</Time>
            <Position>
              <LatitudeDegrees>43.4756682626903057098388671875</LatitudeDegrees>
              <LongitudeDegrees>-1.56612642109394073486328125</LongitudeDegrees>
            </Position>
            <AltitudeMeters>61.200000762939453125</AltitudeMeters>
            <DistanceMeters>NAN</DistanceMeters>
          </Trackpoint>
          <Trackpoint>
            <Time>2022-07-07T17:45:24.000Z</Time>
            <Position>
              <LatitudeDegrees>43.4755250997841358184814453125</LatitudeDegrees>
              <LongitudeDegrees>-1.5661570988595485687255859375</LongitudeDegrees>
            </Position>
            <AltitudeMeters>61</AltitudeMeters>
            <DistanceMeters>NAN</DistanceMeters>
          </Trackpoint>
          <Trackpoint>
            <Time>2022-07-07T17:45:26.000Z</Time>
            <Position>
              <LatitudeDegrees>43.4754310548305511474609375</LatitudeDegrees>
              <LongitudeDegrees>-1.56617176719009876251220703125</LongitudeDegrees>
            </Position>
            <AltitudeMeters>61</AltitudeMeters>
            <DistanceMeters>NAN</DistanceMeters>
          </Trackpoint>
          <Trackpoint>
            <Time>2022-07-07T17:45:28.000Z</Time>
            <Position>
              <LatitudeDegrees>43.4753440506756305694580078125</LatitudeDegrees>
              <LongitudeDegrees>-1.566193811595439910888671875</LongitudeDegrees>
            </Position>
            <AltitudeMeters>61</AltitudeMeters>
            <DistanceMeters>NAN</DistanceMeters>
          </Trackpoint>
          <Trackpoint>
            <Time>2022-07-07T17:45:30.000Z</Time>
            <Position>
              <LatitudeDegrees>43.4752568788826465606689453125</LatitudeDegrees>
              <LongitudeDegrees>-1.566217951476573944091796875</LongitudeDegrees>
            </Position>
            <AltitudeMeters>61</AltitudeMeters>
            <DistanceMeters>NAN</DistanceMeters>
          </Trackpoint>
          <Trackpoint>
            <Time>2022-07-07T17:45:32.000Z</Time>
            <Position>
              <LatitudeDegrees>43.47516643814742565155029296875</LatitudeDegrees>
              <LongitudeDegrees>-1.566246785223484039306640625</LongitudeDegrees>
            </Position>
            <AltitudeMeters>61</AltitudeMeters>
            <DistanceMeters>NAN</DistanceMeters>
          </Trackpoint>
          <Trackpoint>
            <Time>2022-07-07T17:45:34.000Z</Time>
            <Position>
              <LatitudeDegrees>43.4750872291624546051025390625</LatitudeDegrees>
              <LongitudeDegrees>-1.566287688910961151123046875</LongitudeDegrees>
            </Position>
            <AltitudeMeters>61</AltitudeMeters>
            <DistanceMeters>NAN</DistanceMeters>
          </Trackpoint>
          <Trackpoint>
            <Time>2022-07-07T17:45:37.000Z</Time>
            <Position>
              <LatitudeDegrees>43.474981784820556640625</LatitudeDegrees>
              <LongitudeDegrees>-1.56634409911930561065673828125</LongitudeDegrees>
            </Position>
            <AltitudeMeters>61</AltitudeMeters>
            <DistanceMeters>NAN</DistanceMeters>
          </Trackpoint>
          <Trackpoint>
            <Time>2022-07-07T17:45:39.000Z</Time>
            <Position>
              <LatitudeDegrees>43.47495538182556629180908203125</LatitudeDegrees>
              <LongitudeDegrees>-1.5664293430745601654052734375</LongitudeDegrees>
            </Position>
            <AltitudeMeters>61</AltitudeMeters>
            <DistanceMeters>NAN</DistanceMeters>
          </Trackpoint>
          <Trackpoint>
            <Time>2022-07-07T17:45:43.000Z</Time>
            <Position>
              <LatitudeDegrees>43.47498689778149127960205078125</LatitudeDegrees>
              <LongitudeDegrees>-1.56667686067521572113037109375</LongitudeDegrees>
            </Position>
            <AltitudeMeters>60.799999237060546875</AltitudeMeters>
            <DistanceMeters>NAN</DistanceMeters>
          </Trackpoint>
          <Trackpoint>
            <Time>2022-07-07T17:45:45.000Z</Time>
            <Position>
              <LatitudeDegrees>43.47497415728867053985595703125</LatitudeDegrees>
              <LongitudeDegrees>-1.5668075345456600189208984375</LongitudeDegrees>
            </Position>
            <AltitudeMeters>60.59999847412109375</AltitudeMeters>
            <DistanceMeters>NAN</DistanceMeters>
          </Trackpoint>
          <Trackpoint>
            <Time>2022-07-07T17:45:47.000Z</Time>
            <Position>
              <LatitudeDegrees>43.47493526525795459747314453125</LatitudeDegrees>
              <LongitudeDegrees>-1.56693602912127971649169921875</LongitudeDegrees>
            </Position>
            <AltitudeMeters>60.40000152587890625</AltitudeMeters>
            <DistanceMeters>NAN</DistanceMeters>
          </Trackpoint>
          <Trackpoint>
            <Time>2022-07-07T17:45:49.000Z</Time>
            <Position>
              <LatitudeDegrees>43.47487558610737323760986328125</LatitudeDegrees>
              <LongitudeDegrees>-1.5670542977750301361083984375</LongitudeDegrees>
            </Position>
            <AltitudeMeters>60.200000762939453125</AltitudeMeters>
            <DistanceMeters>NAN</DistanceMeters>
          </Trackpoint>
          <Trackpoint>
            <Time>2022-07-07T17:45:52.000Z</Time>
            <Position>
              <LatitudeDegrees>43.47477148286998271942138671875</LatitudeDegrees>
              <LongitudeDegrees>-1.567203998565673828125</LongitudeDegrees>
            </Position>
            <AltitudeMeters>59.799999237060546875</AltitudeMeters>
            <DistanceMeters>NAN</DistanceMeters>
          </Trackpoint>
          <Trackpoint>
            <Time>2022-07-07T17:45:54.000Z</Time>
            <Position>
              <LatitudeDegrees>43.47469151951372623443603515625</LatitudeDegrees>
              <LongitudeDegrees>-1.5672769211232662200927734375</LongitudeDegrees>
            </Position>
            <AltitudeMeters>59.59999847412109375</AltitudeMeters>
            <DistanceMeters>NAN</DistanceMeters>
          </Trackpoint>
          <Trackpoint>
            <Time>2022-07-07T17:45:58.000Z</Time>
            <Position>
              <LatitudeDegrees>43.47450929693877696990966796875</LatitudeDegrees>
              <LongitudeDegrees>-1.5673905797302722930908203125</LongitudeDegrees>
            </Position>
            <AltitudeMeters>59.200000762939453125</AltitudeMeters>
            <DistanceMeters>NAN</DistanceMeters>
          </Trackpoint>
          <Trackpoint>
            <Time>2022-07-07T17:45:59.000Z</Time>
            <Position>
              <LatitudeDegrees>43.4744600951671600341796875</LatitudeDegrees>
              <LongitudeDegrees>-1.56741966493427753448486328125</LongitudeDegrees>
            </Position>
            <AltitudeMeters>59</AltitudeMeters>
            <DistanceMeters>NAN</DistanceMeters>
          </Trackpoint>
          <Trackpoint>
            <Time>2022-07-07T17:46:05.000Z</Time>
            <Position>
              <LatitudeDegrees>43.4741672314703464508056640625</LatitudeDegrees>
              <LongitudeDegrees>-1.5675890631973743438720703125</LongitudeDegrees>
            </Position>
            <AltitudeMeters>58</AltitudeMeters>
            <DistanceMeters>NAN</DistanceMeters>
          </Trackpoint>
          <Trackpoint>
            <Time>2022-07-07T17:46:08.000Z</Time>
            <Position>
              <LatitudeDegrees>43.474021889269351959228515625</LatitudeDegrees>
              <LongitudeDegrees>-1.56767070293426513671875</LongitudeDegrees>
            </Position>
            <AltitudeMeters>57.799999237060546875</AltitudeMeters>
            <DistanceMeters>NAN</DistanceMeters>
          </Trackpoint>
          <Trackpoint>
            <Time>2022-07-07T17:46:13.000Z</Time>
            <Position>
              <LatitudeDegrees>43.47382734529674053192138671875</LatitudeDegrees>
              <LongitudeDegrees>-1.56778670847415924072265625</LongitudeDegrees>
            </Position>
            <AltitudeMeters>56.59999847412109375</AltitudeMeters>
            <DistanceMeters>NAN</DistanceMeters>
          </Trackpoint>
          <Trackpoint>
            <Time>2022-07-07T17:46:14.000Z</Time>
            <Position>
              <LatitudeDegrees>43.47381007857620716094970703125</LatitudeDegrees>
              <LongitudeDegrees>-1.56780171208083629608154296875</LongitudeDegrees>
            </Position>
            <AltitudeMeters>56.40000152587890625</AltitudeMeters>
            <DistanceMeters>NAN</DistanceMeters>
          </Trackpoint>
          <Trackpoint>
            <Time>2022-07-07T17:46:18.000Z</Time>
            <Position>
              <LatitudeDegrees>43.47379314713180065155029296875</LatitudeDegrees>
              <LongitudeDegrees>-1.56781763769686222076416015625</LongitudeDegrees>
            </Position>
            <AltitudeMeters>56.200000762939453125</AltitudeMeters>
            <DistanceMeters>NAN</DistanceMeters>
          </Trackpoint>
          <Trackpoint>
            <Time>2022-07-07T17:46:19.000Z</Time>
            <Position>
              <LatitudeDegrees>43.47379314713180065155029296875</LatitudeDegrees>
              <LongitudeDegrees>-1.56781763769686222076416015625</LongitudeDegrees>
            </Position>
            <AltitudeMeters>56.200000762939453125</AltitudeMeters>
            <DistanceMeters>NAN</DistanceMeters>
          </Trackpoint>
          <Trackpoint>
            <Time>2022-07-07T17:47:02.000Z</Time>
            <Position>
              <LatitudeDegrees>43.47375693731009960174560546875</LatitudeDegrees>
              <LongitudeDegrees>-1.56784093938767910003662109375</LongitudeDegrees>
            </Position>
            <AltitudeMeters>56.40000152587890625</AltitudeMeters>
            <DistanceMeters>NAN</DistanceMeters>
          </Trackpoint>
          <Trackpoint>
            <Time>2022-07-07T17:47:03.000Z</Time>
            <Position>
              <LatitudeDegrees>43.47373799420893192291259765625</LatitudeDegrees>
              <LongitudeDegrees>-1.56785686500370502471923828125</LongitudeDegrees>
            </Position>
            <AltitudeMeters>56.40000152587890625</AltitudeMeters>
            <DistanceMeters>NAN</DistanceMeters>
          </Trackpoint>
          <Trackpoint>
            <Time>2022-07-07T17:47:04.000Z</Time>
            <Position>
              <LatitudeDegrees>43.47371779382228851318359375</LatitudeDegrees>
              <LongitudeDegrees>-1.5678710304200649261474609375</LongitudeDegrees>
            </Position>
            <AltitudeMeters>56.40000152587890625</AltitudeMeters>
            <DistanceMeters>NAN</DistanceMeters>
          </Trackpoint>
          <Trackpoint>
            <Time>2022-07-07T17:47:08.000Z</Time>
            <Position>
              <LatitudeDegrees>43.47362391650676727294921875</LatitudeDegrees>
              <LongitudeDegrees>-1.567927859723567962646484375</LongitudeDegrees>
            </Position>
            <AltitudeMeters>55.799999237060546875</AltitudeMeters>
            <DistanceMeters>NAN</DistanceMeters>
          </Trackpoint>
          <Trackpoint>
            <Time>2022-07-07T17:47:12.000Z</Time>
            <Position>
              <LatitudeDegrees>43.47354638390243053436279296875</LatitudeDegrees>
              <LongitudeDegrees>-1.56797421164810657501220703125</LongitudeDegrees>
            </Position>
            <AltitudeMeters>55.799999237060546875</AltitudeMeters>
            <DistanceMeters>NAN</DistanceMeters>
          </Trackpoint>
          <Trackpoint>
            <Time>2022-07-07T17:47:17.000Z</Time>
            <Position>
              <LatitudeDegrees>43.4734846092760562896728515625</LatitudeDegrees>
              <LongitudeDegrees>-1.56800338067114353179931640625</LongitudeDegrees>
            </Position>
            <AltitudeMeters>55.799999237060546875</AltitudeMeters>
            <DistanceMeters>NAN</DistanceMeters>
          </Trackpoint>
          <Trackpoint>
            <Time>2022-07-07T17:47:22.000Z</Time>
            <Position>
              <LatitudeDegrees>43.47342099063098430633544921875</LatitudeDegrees>
              <LongitudeDegrees>-1.56796465627849102020263671875</LongitudeDegrees>
            </Position>
            <AltitudeMeters>56</AltitudeMeters>
            <DistanceMeters>NAN</DistanceMeters>
          </Trackpoint>
          <Trackpoint>
            <Time>2022-07-07T17:47:23.000Z</Time>
            <Position>
              <LatitudeDegrees>43.4734128601849079132080078125</LatitudeDegrees>
              <LongitudeDegrees>-1.56794738955795764923095703125</LongitudeDegrees>
            </Position>
            <AltitudeMeters>56</AltitudeMeters>
            <DistanceMeters>NAN</DistanceMeters>
          </Trackpoint>
          <Trackpoint>
            <Time>2022-07-07T17:47:31.000Z</Time>
            <Position>
              <LatitudeDegrees>43.47336097620427608489990234375</LatitudeDegrees>
              <LongitudeDegrees>-1.56776114366948604583740234375</LongitudeDegrees>
            </Position>
            <AltitudeMeters>56.59999847412109375</AltitudeMeters>
            <DistanceMeters>NAN</DistanceMeters>
          </Trackpoint>
          <Trackpoint>
            <Time>2022-07-07T17:47:37.000Z</Time>
            <Position>
              <LatitudeDegrees>43.47326944582164287567138671875</LatitudeDegrees>
              <LongitudeDegrees>-1.5675934217870235443115234375</LongitudeDegrees>
            </Position>
            <AltitudeMeters>57</AltitudeMeters>
            <DistanceMeters>NAN</DistanceMeters>
          </Trackpoint>
          <Trackpoint>
            <Time>2022-07-07T17:47:45.000Z</Time>
            <Position>
              <LatitudeDegrees>43.4731833636760711669921875</LatitudeDegrees>
              <LongitudeDegrees>-1.56737607903778553009033203125</LongitudeDegrees>
            </Position>
            <AltitudeMeters>57.59999847412109375</AltitudeMeters>
            <DistanceMeters>NAN</DistanceMeters>
          </Trackpoint>
          <Trackpoint>
            <Time>2022-07-07T17:47:48.000Z</Time>
            <Position>
              <LatitudeDegrees>43.47316802479326725006103515625</LatitudeDegrees>
              <LongitudeDegrees>-1.56729318201541900634765625</LongitudeDegrees>
            </Position>
            <AltitudeMeters>57.799999237060546875</AltitudeMeters>
            <DistanceMeters>NAN</DistanceMeters>
          </Trackpoint>
          <Trackpoint>
            <Time>2022-07-07T17:47:50.000Z</Time>
            <Position>
              <LatitudeDegrees>43.4731597267091274261474609375</LatitudeDegrees>
              <LongitudeDegrees>-1.56722956337034702301025390625</LongitudeDegrees>
            </Position>
            <AltitudeMeters>58.200000762939453125</AltitudeMeters>
            <DistanceMeters>NAN</DistanceMeters>
          </Trackpoint>
          <Trackpoint>
            <Time>2022-07-07T17:47:55.000Z</Time>
            <Position>
              <LatitudeDegrees>43.473122008144855499267578125</LatitudeDegrees>
              <LongitudeDegrees>-1.56708740629255771636962890625</LongitudeDegrees>
            </Position>
            <AltitudeMeters>58.799999237060546875</AltitudeMeters>
            <DistanceMeters>NAN</DistanceMeters>
          </Trackpoint>
          <Trackpoint>
            <Time>2022-07-07T17:47:56.000Z</Time>
            <Position>
              <LatitudeDegrees>43.47311002202332019805908203125</LatitudeDegrees>
              <LongitudeDegrees>-1.56706091947853565216064453125</LongitudeDegrees>
            </Position>
            <AltitudeMeters>59</AltitudeMeters>
            <DistanceMeters>NAN</DistanceMeters>
          </Trackpoint>
          <Trackpoint>
            <Time>2022-07-07T17:48:02.000Z</Time>
            <Position>
              <LatitudeDegrees>43.47309225238859653472900390625</LatitudeDegrees>
              <LongitudeDegrees>-1.5668812952935695648193359375</LongitudeDegrees>
            </Position>
            <AltitudeMeters>60</AltitudeMeters>
            <DistanceMeters>NAN</DistanceMeters>
          </Trackpoint>
          <Trackpoint>
            <Time>2022-07-07T17:48:03.000Z</Time>
            <Position>
              <LatitudeDegrees>43.47308772616088390350341796875</LatitudeDegrees>
              <LongitudeDegrees>-1.5668507851660251617431640625</LongitudeDegrees>
            </Position>
            <AltitudeMeters>60</AltitudeMeters>
            <DistanceMeters>NAN</DistanceMeters>
          </Trackpoint>
          <Trackpoint>
            <Time>2022-07-07T17:48:05.000Z</Time>
            <Position>
              <LatitudeDegrees>43.47306291572749614715576171875</LatitudeDegrees>
              <LongitudeDegrees>-1.56681097112596035003662109375</LongitudeDegrees>
            </Position>
            <AltitudeMeters>60.40000152587890625</AltitudeMeters>
            <DistanceMeters>NAN</DistanceMeters>
          </Trackpoint>
          <Trackpoint>
            <Time>2022-07-07T17:48:07.000Z</Time>
            <Position>
              <LatitudeDegrees>43.4730249457061290740966796875</LatitudeDegrees>
              <LongitudeDegrees>-1.5667978115379810333251953125</LongitudeDegrees>
            </Position>
            <AltitudeMeters>60.59999847412109375</AltitudeMeters>
            <DistanceMeters>NAN</DistanceMeters>
          </Trackpoint>
          <Trackpoint>
            <Time>2022-07-07T17:48:10.000Z</Time>
            <Position>
              <LatitudeDegrees>43.4729676134884357452392578125</LatitudeDegrees>
              <LongitudeDegrees>-1.566822119057178497314453125</LongitudeDegrees>
            </Position>
            <AltitudeMeters>61</AltitudeMeters>
            <DistanceMeters>NAN</DistanceMeters>
          </Trackpoint>
          <Trackpoint>
            <Time>2022-07-07T17:48:12.000Z</Time>
            <Position>
              <LatitudeDegrees>43.47293735481798648834228515625</LatitudeDegrees>
              <LongitudeDegrees>-1.5668486058712005615234375</LongitudeDegrees>
            </Position>
            <AltitudeMeters>61.200000762939453125</AltitudeMeters>
            <DistanceMeters>NAN</DistanceMeters>
          </Trackpoint>
          <Trackpoint>
            <Time>2022-07-07T17:48:13.000Z</Time>
            <Position>
              <LatitudeDegrees>43.4729273803532123565673828125</LatitudeDegrees>
              <LongitudeDegrees>-1.56687299720942974090576171875</LongitudeDegrees>
            </Position>
            <AltitudeMeters>61.200000762939453125</AltitudeMeters>
            <DistanceMeters>NAN</DistanceMeters>
          </Trackpoint>
          <Trackpoint>
            <Time>2022-07-07T17:48:19.000Z</Time>
            <Position>
              <LatitudeDegrees>43.47284398041665554046630859375</LatitudeDegrees>
              <LongitudeDegrees>-1.56708137132227420806884765625</LongitudeDegrees>
            </Position>
            <AltitudeMeters>61.200000762939453125</AltitudeMeters>
            <DistanceMeters>NAN</DistanceMeters>
          </Trackpoint>
          <Trackpoint>
            <Time>2022-07-07T17:48:25.000Z</Time>
            <Position>
              <LatitudeDegrees>43.472771979868412017822265625</LatitudeDegrees>
              <LongitudeDegrees>-1.56730793416500091552734375</LongitudeDegrees>
            </Position>
            <AltitudeMeters>61.59999847412109375</AltitudeMeters>
            <DistanceMeters>NAN</DistanceMeters>
          </Trackpoint>
          <Trackpoint>
            <Time>2022-07-07T17:48:29.000Z</Time>
            <Position>
              <LatitudeDegrees>43.472736775875091552734375</LatitudeDegrees>
              <LongitudeDegrees>-1.567459814250469207763671875</LongitudeDegrees>
            </Position>
            <AltitudeMeters>61.799999237060546875</AltitudeMeters>
            <DistanceMeters>NAN</DistanceMeters>
          </Trackpoint>
          <Trackpoint>
            <Time>2022-07-07T17:48:32.000Z</Time>
            <Position>
              <LatitudeDegrees>43.4726940281689167022705078125</LatitudeDegrees>
              <LongitudeDegrees>-1.56758428551256656646728515625</LongitudeDegrees>
            </Position>
            <AltitudeMeters>61.799999237060546875</AltitudeMeters>
            <DistanceMeters>NAN</DistanceMeters>
          </Trackpoint>
          <Trackpoint>
            <Time>2022-07-07T17:48:35.000Z</Time>
            <Position>
              <LatitudeDegrees>43.472631834447383880615234375</LatitudeDegrees>
              <LongitudeDegrees>-1.56769995577633380889892578125</LongitudeDegrees>
            </Position>
            <AltitudeMeters>62</AltitudeMeters>
            <DistanceMeters>NAN</DistanceMeters>
          </Trackpoint>
          <Trackpoint>
            <Time>2022-07-07T17:48:39.000Z</Time>
            <Position>
              <LatitudeDegrees>43.47254105843603610992431640625</LatitudeDegrees>
              <LongitudeDegrees>-1.56783054582774639129638671875</LongitudeDegrees>
            </Position>
            <AltitudeMeters>62.40000152587890625</AltitudeMeters>
            <DistanceMeters>NAN</DistanceMeters>
          </Trackpoint>
          <Trackpoint>
            <Time>2022-07-07T17:48:41.000Z</Time>
            <Position>
              <LatitudeDegrees>43.47250333987176418304443359375</LatitudeDegrees>
              <LongitudeDegrees>-1.56789173372089862823486328125</LongitudeDegrees>
            </Position>
            <AltitudeMeters>63</AltitudeMeters>
            <DistanceMeters>NAN</DistanceMeters>
          </Trackpoint>
          <Trackpoint>
            <Time>2022-07-07T17:48:42.000Z</Time>
            <Position>
              <LatitudeDegrees>43.472484312951564788818359375</LatitudeDegrees>
              <LongitudeDegrees>-1.56792291440069675445556640625</LongitudeDegrees>
            </Position>
            <AltitudeMeters>63.200000762939453125</AltitudeMeters>
            <DistanceMeters>NAN</DistanceMeters>
          </Trackpoint>
          <Trackpoint>
            <Time>2022-07-07T17:48:47.000Z</Time>
            <Position>
              <LatitudeDegrees>43.47239336930215358734130859375</LatitudeDegrees>
              <LongitudeDegrees>-1.568048894405364990234375</LongitudeDegrees>
            </Position>
            <AltitudeMeters>63.40000152587890625</AltitudeMeters>
            <DistanceMeters>NAN</DistanceMeters>
          </Trackpoint>
          <Trackpoint>
            <Time>2022-07-07T17:48:48.000Z</Time>
            <Position>
              <LatitudeDegrees>43.47237861715257167816162109375</LatitudeDegrees>
              <LongitudeDegrees>-1.56807093881070613861083984375</LongitudeDegrees>
            </Position>
            <AltitudeMeters>63.40000152587890625</AltitudeMeters>
            <DistanceMeters>NAN</DistanceMeters>
          </Trackpoint>
          <Trackpoint>
            <Time>2022-07-07T17:48:55.000Z</Time>
            <Position>
              <LatitudeDegrees>43.47226127050817012786865234375</LatitudeDegrees>
              <LongitudeDegrees>-1.568241007626056671142578125</LongitudeDegrees>
            </Position>
            <AltitudeMeters>63.799999237060546875</AltitudeMeters>
            <DistanceMeters>NAN</DistanceMeters>
          </Trackpoint>
          <Trackpoint>
            <Time>2022-07-07T17:49:00.000Z</Time>
            <Position>
              <LatitudeDegrees>43.47217393107712268829345703125</LatitudeDegrees>
              <LongitudeDegrees>-1.56838023103773593902587890625</LongitudeDegrees>
            </Position>
            <AltitudeMeters>64.1999969482421875</AltitudeMeters>
            <DistanceMeters>NAN</DistanceMeters>
          </Trackpoint>
          <Trackpoint>
            <Time>2022-07-07T17:49:01.000Z</Time>
            <Position>
              <LatitudeDegrees>43.47215096466243267059326171875</LatitudeDegrees>
              <LongitudeDegrees>-1.56840822659432888031005859375</LongitudeDegrees>
            </Position>
            <AltitudeMeters>64.1999969482421875</AltitudeMeters>
            <DistanceMeters>NAN</DistanceMeters>
          </Trackpoint>
          <Trackpoint>
            <Time>2022-07-07T17:49:07.000Z</Time>
            <Position>
              <LatitudeDegrees>43.47203328274190425872802734375</LatitudeDegrees>
              <LongitudeDegrees>-1.5685804747045040130615234375</LongitudeDegrees>
            </Position>
            <AltitudeMeters>65.1999969482421875</AltitudeMeters>
            <DistanceMeters>NAN</DistanceMeters>
          </Trackpoint>
          <Trackpoint>
            <Time>2022-07-07T17:49:10.000Z</Time>
            <Position>
              <LatitudeDegrees>43.47198969684541225433349609375</LatitudeDegrees>
              <LongitudeDegrees>-1.56866722740232944488525390625</LongitudeDegrees>
            </Position>
            <AltitudeMeters>65.8000030517578125</AltitudeMeters>
            <DistanceMeters>NAN</DistanceMeters>
          </Trackpoint>
          <Trackpoint>
            <Time>2022-07-07T17:49:17.000Z</Time>
            <Position>
              <LatitudeDegrees>43.4718498028814792633056640625</LatitudeDegrees>
              <LongitudeDegrees>-1.568902842700481414794921875</LongitudeDegrees>
            </Position>
            <AltitudeMeters>65.8000030517578125</AltitudeMeters>
            <DistanceMeters>NAN</DistanceMeters>
          </Trackpoint>
          <Trackpoint>
            <Time>2022-07-07T17:49:21.000Z</Time>
            <Position>
              <LatitudeDegrees>43.4717710129916667938232421875</LatitudeDegrees>
              <LongitudeDegrees>-1.56902295537292957305908203125</LongitudeDegrees>
            </Position>
            <AltitudeMeters>66.1999969482421875</AltitudeMeters>
            <DistanceMeters>NAN</DistanceMeters>
          </Trackpoint>
          <Trackpoint>
            <Time>2022-07-07T17:49:22.000Z</Time>
            <Position>
              <LatitudeDegrees>43.47174880094826221466064453125</LatitudeDegrees>
              <LongitudeDegrees>-1.5690471790730953216552734375</LongitudeDegrees>
            </Position>
            <AltitudeMeters>66.40000152587890625</AltitudeMeters>
            <DistanceMeters>NAN</DistanceMeters>
          </Trackpoint>
          <Trackpoint>
            <Time>2022-07-07T17:49:25.000Z</Time>
            <Position>
              <LatitudeDegrees>43.4716751240193843841552734375</LatitudeDegrees>
              <LongitudeDegrees>-1.5690914355218410491943359375</LongitudeDegrees>
            </Position>
            <AltitudeMeters>66.8000030517578125</AltitudeMeters>
            <DistanceMeters>NAN</DistanceMeters>
          </Trackpoint>
          <Trackpoint>
            <Time>2022-07-07T17:49:27.000Z</Time>
            <Position>
              <LatitudeDegrees>43.47162139602005481719970703125</LatitudeDegrees>
              <LongitudeDegrees>-1.5690864063799381256103515625</LongitudeDegrees>
            </Position>
            <AltitudeMeters>67</AltitudeMeters>
            <DistanceMeters>NAN</DistanceMeters>
          </Trackpoint>
          <Trackpoint>
            <Time>2022-07-07T17:49:29.000Z</Time>
            <Position>
              <LatitudeDegrees>43.4715842641890048980712890625</LatitudeDegrees>
              <LongitudeDegrees>-1.56904206611216068267822265625</LongitudeDegrees>
            </Position>
            <AltitudeMeters>67.1999969482421875</AltitudeMeters>
            <DistanceMeters>NAN</DistanceMeters>
          </Trackpoint>
          <Trackpoint>
            <Time>2022-07-07T17:49:30.000Z</Time>
            <Position>
              <LatitudeDegrees>43.47156842239201068878173828125</LatitudeDegrees>
              <LongitudeDegrees>-1.569014824926853179931640625</LongitudeDegrees>
            </Position>
            <AltitudeMeters>67.40000152587890625</AltitudeMeters>
            <DistanceMeters>NAN</DistanceMeters>
          </Trackpoint>
          <Trackpoint>
            <Time>2022-07-07T17:49:31.000Z</Time>
            <Position>
              <LatitudeDegrees>43.4715487249195575714111328125</LatitudeDegrees>
              <LongitudeDegrees>-1.56898305751383304595947265625</LongitudeDegrees>
            </Position>
            <AltitudeMeters>67.59999847412109375</AltitudeMeters>
            <DistanceMeters>NAN</DistanceMeters>
          </Trackpoint>
          <Trackpoint>
            <Time>2022-07-07T17:49:33.000Z</Time>
            <Position>
              <LatitudeDegrees>43.471511341631412506103515625</LatitudeDegrees>
              <LongitudeDegrees>-1.5689246356487274169921875</LongitudeDegrees>
            </Position>
            <AltitudeMeters>67.8000030517578125</AltitudeMeters>
            <DistanceMeters>NAN</DistanceMeters>
          </Trackpoint>
          <Trackpoint>
            <Time>2022-07-07T17:49:38.000Z</Time>
            <Position>
              <LatitudeDegrees>43.4714313782751560211181640625</LatitudeDegrees>
              <LongitudeDegrees>-1.56877216883003711700439453125</LongitudeDegrees>
            </Position>
            <AltitudeMeters>68</AltitudeMeters>
            <DistanceMeters>NAN</DistanceMeters>
          </Trackpoint>
          <Trackpoint>
            <Time>2022-07-07T17:49:40.000Z</Time>
            <Position>
              <LatitudeDegrees>43.47138435579836368560791015625</LatitudeDegrees>
              <LongitudeDegrees>-1.56870461069047451019287109375</LongitudeDegrees>
            </Position>
            <AltitudeMeters>68</AltitudeMeters>
            <DistanceMeters>NAN</DistanceMeters>
          </Trackpoint>
          <Trackpoint>
            <Time>2022-07-07T17:49:42.000Z</Time>
            <Position>
              <LatitudeDegrees>43.4713408537209033966064453125</LatitudeDegrees>
              <LongitudeDegrees>-1.56862598843872547149658203125</LongitudeDegrees>
            </Position>
            <AltitudeMeters>68</AltitudeMeters>
            <DistanceMeters>NAN</DistanceMeters>
          </Trackpoint>
          <Trackpoint>
            <Time>2022-07-07T17:49:46.000Z</Time>
            <Position>
              <LatitudeDegrees>43.47125711850821971893310546875</LatitudeDegrees>
              <LongitudeDegrees>-1.5684741921722888946533203125</LongitudeDegrees>
            </Position>
            <AltitudeMeters>67.40000152587890625</AltitudeMeters>
            <DistanceMeters>NAN</DistanceMeters>
          </Trackpoint>
          <Trackpoint>
            <Time>2022-07-07T17:49:52.000Z</Time>
            <Position>
              <LatitudeDegrees>43.47111403942108154296875</LatitudeDegrees>
              <LongitudeDegrees>-1.56823354773223400115966796875</LongitudeDegrees>
            </Position>
            <AltitudeMeters>66.40000152587890625</AltitudeMeters>
            <DistanceMeters>NAN</DistanceMeters>
          </Trackpoint>
          <Trackpoint>
            <Time>2022-07-07T17:49:53.000Z</Time>
            <Position>
              <LatitudeDegrees>43.4710937552154064178466796875</LatitudeDegrees>
              <LongitudeDegrees>-1.5682059712707996368408203125</LongitudeDegrees>
            </Position>
            <AltitudeMeters>66.1999969482421875</AltitudeMeters>
            <DistanceMeters>NAN</DistanceMeters>
          </Trackpoint>
          <Trackpoint>
            <Time>2022-07-07T17:49:54.000Z</Time>
            <Position>
              <LatitudeDegrees>43.4710644185543060302734375</LatitudeDegrees>
              <LongitudeDegrees>-1.5681922249495983123779296875</LongitudeDegrees>
            </Position>
            <AltitudeMeters>66</AltitudeMeters>
            <DistanceMeters>NAN</DistanceMeters>
          </Trackpoint>
          <Trackpoint>
            <Time>2022-07-07T17:49:56.000Z</Time>
            <Position>
              <LatitudeDegrees>43.47101144492626190185546875</LatitudeDegrees>
              <LongitudeDegrees>-1.5682260878384113311767578125</LongitudeDegrees>
            </Position>
            <AltitudeMeters>65.8000030517578125</AltitudeMeters>
            <DistanceMeters>NAN</DistanceMeters>
          </Trackpoint>
          <Trackpoint>
            <Time>2022-07-07T17:49:59.000Z</Time>
            <Position>
              <LatitudeDegrees>43.47093441523611545562744140625</LatitudeDegrees>
              <LongitudeDegrees>-1.5683306939899921417236328125</LongitudeDegrees>
            </Position>
            <AltitudeMeters>65.40000152587890625</AltitudeMeters>
            <DistanceMeters>NAN</DistanceMeters>
          </Trackpoint>
          <Trackpoint>
            <Time>2022-07-07T17:50:02.000Z</Time>
            <Position>
              <LatitudeDegrees>43.4708446450531482696533203125</LatitudeDegrees>
              <LongitudeDegrees>-1.5684215538203716278076171875</LongitudeDegrees>
            </Position>
            <AltitudeMeters>65</AltitudeMeters>
            <DistanceMeters>NAN</DistanceMeters>
          </Trackpoint>
          <Trackpoint>
            <Time>2022-07-07T17:50:08.000Z</Time>
            <Position>
              <LatitudeDegrees>43.47062210552394390106201171875</LatitudeDegrees>
              <LongitudeDegrees>-1.56860805116593837738037109375</LongitudeDegrees>
            </Position>
            <AltitudeMeters>64.40000152587890625</AltitudeMeters>
            <DistanceMeters>NAN</DistanceMeters>
          </Trackpoint>
          <Trackpoint>
            <Time>2022-07-07T17:50:09.000Z</Time>
            <Position>
              <LatitudeDegrees>43.47058204002678394317626953125</LatitudeDegrees>
              <LongitudeDegrees>-1.56864367425441741943359375</LongitudeDegrees>
            </Position>
            <AltitudeMeters>64.1999969482421875</AltitudeMeters>
            <DistanceMeters>NAN</DistanceMeters>
          </Trackpoint>
          <Trackpoint>
            <Time>2022-07-07T17:50:16.000Z</Time>
            <Position>
              <LatitudeDegrees>43.47026386298239231109619140625</LatitudeDegrees>
              <LongitudeDegrees>-1.56890778802335262298583984375</LongitudeDegrees>
            </Position>
            <AltitudeMeters>63.200000762939453125</AltitudeMeters>
            <DistanceMeters>NAN</DistanceMeters>
          </Trackpoint>
          <Trackpoint>
            <Time>2022-07-07T17:50:19.000Z</Time>
            <Position>
              <LatitudeDegrees>43.47012740559875965118408203125</LatitudeDegrees>
              <LongitudeDegrees>-1.569040976464748382568359375</LongitudeDegrees>
            </Position>
            <AltitudeMeters>61.799999237060546875</AltitudeMeters>
            <DistanceMeters>NAN</DistanceMeters>
          </Trackpoint>
          <Trackpoint>
            <Time>2022-07-07T17:50:22.000Z</Time>
            <Position>
              <LatitudeDegrees>43.4699719212949275970458984375</LatitudeDegrees>
              <LongitudeDegrees>-1.56918958760797977447509765625</LongitudeDegrees>
            </Position>
            <AltitudeMeters>60.799999237060546875</AltitudeMeters>
            <DistanceMeters>NAN</DistanceMeters>
          </Trackpoint>
          <Trackpoint>
            <Time>2022-07-07T17:50:24.000Z</Time>
            <Position>
              <LatitudeDegrees>43.4698512218892574310302734375</LatitudeDegrees>
              <LongitudeDegrees>-1.5692952834069728851318359375</LongitudeDegrees>
            </Position>
            <AltitudeMeters>59.200000762939453125</AltitudeMeters>
            <DistanceMeters>NAN</DistanceMeters>
          </Trackpoint>
          <Trackpoint>
            <Time>2022-07-07T17:50:26.000Z</Time>
            <Position>
              <LatitudeDegrees>43.46970998682081699371337890625</LatitudeDegrees>
              <LongitudeDegrees>-1.56941740773618221282958984375</LongitudeDegrees>
            </Position>
            <AltitudeMeters>57.799999237060546875</AltitudeMeters>
            <DistanceMeters>NAN</DistanceMeters>
          </Trackpoint>
          <Trackpoint>
            <Time>2022-07-07T17:50:27.000Z</Time>
            <Position>
              <LatitudeDegrees>43.46963337622582912445068359375</LatitudeDegrees>
              <LongitudeDegrees>-1.56948161311447620391845703125</LongitudeDegrees>
            </Position>
            <AltitudeMeters>56.799999237060546875</AltitudeMeters>
            <DistanceMeters>NAN</DistanceMeters>
          </Trackpoint>
          <Trackpoint>
            <Time>2022-07-07T17:50:28.000Z</Time>
            <Position>
              <LatitudeDegrees>43.46955961547791957855224609375</LatitudeDegrees>
              <LongitudeDegrees>-1.569547913968563079833984375</LongitudeDegrees>
            </Position>
            <AltitudeMeters>56</AltitudeMeters>
            <DistanceMeters>NAN</DistanceMeters>
          </Trackpoint>
          <Trackpoint>
            <Time>2022-07-07T17:50:30.000Z</Time>
            <Position>
              <LatitudeDegrees>43.46941561438143253326416015625</LatitudeDegrees>
              <LongitudeDegrees>-1.56968277879059314727783203125</LongitudeDegrees>
            </Position>
            <AltitudeMeters>54.200000762939453125</AltitudeMeters>
            <DistanceMeters>NAN</DistanceMeters>
          </Trackpoint>
          <Trackpoint>
            <Time>2022-07-07T17:50:32.000Z</Time>
            <Position>
              <LatitudeDegrees>43.4692547656595706939697265625</LatitudeDegrees>
              <LongitudeDegrees>-1.56981387175619602203369140625</LongitudeDegrees>
            </Position>
            <AltitudeMeters>53</AltitudeMeters>
            <DistanceMeters>NAN</DistanceMeters>
          </Trackpoint>
          <Trackpoint>
            <Time>2022-07-07T17:50:33.000Z</Time>
            <Position>
              <LatitudeDegrees>43.46917689777910709381103515625</LatitudeDegrees>
              <LongitudeDegrees>-1.5698789991438388824462890625</LongitudeDegrees>
            </Position>
            <AltitudeMeters>52</AltitudeMeters>
            <DistanceMeters>NAN</DistanceMeters>
          </Trackpoint>
          <Trackpoint>
            <Time>2022-07-07T17:50:35.000Z</Time>
            <Position>
              <LatitudeDegrees>43.46902401186525821685791015625</LatitudeDegrees>
              <LongitudeDegrees>-1.570009253919124603271484375</LongitudeDegrees>
            </Position>
            <AltitudeMeters>51</AltitudeMeters>
            <DistanceMeters>NAN</DistanceMeters>
          </Trackpoint>
          <Trackpoint>
            <Time>2022-07-07T17:50:37.000Z</Time>
            <Position>
              <LatitudeDegrees>43.46886911429464817047119140625</LatitudeDegrees>
              <LongitudeDegrees>-1.570138670504093170166015625</LongitudeDegrees>
            </Position>
            <AltitudeMeters>49.200000762939453125</AltitudeMeters>
            <DistanceMeters>NAN</DistanceMeters>
          </Trackpoint>
          <Trackpoint>
            <Time>2022-07-07T17:50:38.000Z</Time>
            <Position>
              <LatitudeDegrees>43.46880340017378330230712890625</LatitudeDegrees>
              <LongitudeDegrees>-1.57019189558923244476318359375</LongitudeDegrees>
            </Position>
            <AltitudeMeters>47.799999237060546875</AltitudeMeters>
            <DistanceMeters>NAN</DistanceMeters>
          </Trackpoint>
          <Trackpoint>
            <Time>2022-07-07T17:50:39.000Z</Time>
            <Position>
              <LatitudeDegrees>43.46871815621852874755859375</LatitudeDegrees>
              <LongitudeDegrees>-1.5702625550329685211181640625</LongitudeDegrees>
            </Position>
            <AltitudeMeters>47</AltitudeMeters>
            <DistanceMeters>NAN</DistanceMeters>
          </Trackpoint>
          <Trackpoint>
            <Time>2022-07-07T17:50:40.000Z</Time>
            <Position>
              <LatitudeDegrees>43.468629308044910430908203125</LatitudeDegrees>
              <LongitudeDegrees>-1.5703332982957363128662109375</LongitudeDegrees>
            </Position>
            <AltitudeMeters>46.59999847412109375</AltitudeMeters>
            <DistanceMeters>NAN</DistanceMeters>
          </Trackpoint>
          <Trackpoint>
            <Time>2022-07-07T17:50:42.000Z</Time>
            <Position>
              <LatitudeDegrees>43.46843115985393524169921875</LatitudeDegrees>
              <LongitudeDegrees>-1.57050244510173797607421875</LongitudeDegrees>
            </Position>
            <AltitudeMeters>45</AltitudeMeters>
            <DistanceMeters>NAN</DistanceMeters>
          </Trackpoint>
          <Trackpoint>
            <Time>2022-07-07T17:50:43.000Z</Time>
            <Position>
              <LatitudeDegrees>43.4683401323854923248291015625</LatitudeDegrees>
              <LongitudeDegrees>-1.5705803968012332916259765625</LongitudeDegrees>
            </Position>
            <AltitudeMeters>44</AltitudeMeters>
            <DistanceMeters>NAN</DistanceMeters>
          </Trackpoint>
          <Trackpoint>
            <Time>2022-07-07T17:50:46.000Z</Time>
            <Position>
              <LatitudeDegrees>43.468077443540096282958984375</LatitudeDegrees>
              <LongitudeDegrees>-1.57079606316983699798583984375</LongitudeDegrees>
            </Position>
            <AltitudeMeters>42.59999847412109375</AltitudeMeters>
            <DistanceMeters>NAN</DistanceMeters>
          </Trackpoint>
          <Trackpoint>
            <Time>2022-07-07T17:50:49.000Z</Time>
            <Position>
              <LatitudeDegrees>43.467839397490024566650390625</LatitudeDegrees>
              <LongitudeDegrees>-1.57099337317049503326416015625</LongitudeDegrees>
            </Position>
            <AltitudeMeters>41.59999847412109375</AltitudeMeters>
            <DistanceMeters>NAN</DistanceMeters>
          </Trackpoint>
          <Trackpoint>
            <Time>2022-07-07T17:50:50.000Z</Time>
            <Position>
              <LatitudeDegrees>43.46775792539119720458984375</LatitudeDegrees>
              <LongitudeDegrees>-1.57105422578752040863037109375</LongitudeDegrees>
            </Position>
            <AltitudeMeters>41.40000152587890625</AltitudeMeters>
            <DistanceMeters>NAN</DistanceMeters>
          </Trackpoint>
          <Trackpoint>
            <Time>2022-07-07T17:50:53.000Z</Time>
            <Position>
              <LatitudeDegrees>43.46753538586199283599853515625</LatitudeDegrees>
              <LongitudeDegrees>-1.57123980112373828887939453125</LongitudeDegrees>
            </Position>
            <AltitudeMeters>39.799999237060546875</AltitudeMeters>
            <DistanceMeters>NAN</DistanceMeters>
          </Trackpoint>
          <Trackpoint>
            <Time>2022-07-07T17:50:55.000Z</Time>
            <Position>
              <LatitudeDegrees>43.4673963300883769989013671875</LatitudeDegrees>
              <LongitudeDegrees>-1.57135362736880779266357421875</LongitudeDegrees>
            </Position>
            <AltitudeMeters>38.799999237060546875</AltitudeMeters>
            <DistanceMeters>NAN</DistanceMeters>
          </Trackpoint>
          <Trackpoint>
            <Time>2022-07-07T17:50:56.000Z</Time>
            <Position>
              <LatitudeDegrees>43.46733539365231990814208984375</LatitudeDegrees>
              <LongitudeDegrees>-1.5714045055210590362548828125</LongitudeDegrees>
            </Position>
            <AltitudeMeters>38.40000152587890625</AltitudeMeters>
            <DistanceMeters>NAN</DistanceMeters>
          </Trackpoint>
          <Trackpoint>
            <Time>2022-07-07T17:50:58.000Z</Time>
            <Position>
              <LatitudeDegrees>43.4672353975474834442138671875</LatitudeDegrees>
              <LongitudeDegrees>-1.57150282524526119232177734375</LongitudeDegrees>
            </Position>
            <AltitudeMeters>37.59999847412109375</AltitudeMeters>
            <DistanceMeters>NAN</DistanceMeters>
          </Trackpoint>
          <Trackpoint>
            <Time>2022-07-07T17:50:59.000Z</Time>
            <Position>
              <LatitudeDegrees>43.46719373948872089385986328125</LatitudeDegrees>
              <LongitudeDegrees>-1.57155789434909820556640625</LongitudeDegrees>
            </Position>
            <AltitudeMeters>37.200000762939453125</AltitudeMeters>
            <DistanceMeters>NAN</DistanceMeters>
          </Trackpoint>
          <Trackpoint>
            <Time>2022-07-07T17:51:02.000Z</Time>
            <Position>
              <LatitudeDegrees>43.46707136370241641998291015625</LatitudeDegrees>
              <LongitudeDegrees>-1.571717150509357452392578125</LongitudeDegrees>
            </Position>
            <AltitudeMeters>36.59999847412109375</AltitudeMeters>
            <DistanceMeters>NAN</DistanceMeters>
          </Trackpoint>
          <Trackpoint>
            <Time>2022-07-07T17:51:05.000Z</Time>
            <Position>
              <LatitudeDegrees>43.4669453836977481842041015625</LatitudeDegrees>
              <LongitudeDegrees>-1.57187934033572673797607421875</LongitudeDegrees>
            </Position>
            <AltitudeMeters>36</AltitudeMeters>
            <DistanceMeters>NAN</DistanceMeters>
          </Trackpoint>
          <Trackpoint>
            <Time>2022-07-07T17:51:07.000Z</Time>
            <Position>
              <LatitudeDegrees>43.4668453037738800048828125</LatitudeDegrees>
              <LongitudeDegrees>-1.57197757624089717864990234375</LongitudeDegrees>
            </Position>
            <AltitudeMeters>35.40000152587890625</AltitudeMeters>
            <DistanceMeters>NAN</DistanceMeters>
          </Trackpoint>
          <Trackpoint>
            <Time>2022-07-07T17:51:08.000Z</Time>
            <Position>
              <LatitudeDegrees>43.466793000698089599609375</LatitudeDegrees>
              <LongitudeDegrees>-1.57202116213738918304443359375</LongitudeDegrees>
            </Position>
            <AltitudeMeters>35.200000762939453125</AltitudeMeters>
            <DistanceMeters>NAN</DistanceMeters>
          </Trackpoint>
          <Trackpoint>
            <Time>2022-07-07T17:51:15.000Z</Time>
            <Position>
              <LatitudeDegrees>43.46640701405704021453857421875</LatitudeDegrees>
              <LongitudeDegrees>-1.57227295450866222381591796875</LongitudeDegrees>
            </Position>
            <AltitudeMeters>34.59999847412109375</AltitudeMeters>
            <DistanceMeters>NAN</DistanceMeters>
          </Trackpoint>
          <Trackpoint>
            <Time>2022-07-07T17:51:16.000Z</Time>
            <Position>
              <LatitudeDegrees>43.4663437306880950927734375</LatitudeDegrees>
              <LongitudeDegrees>-1.57229994423687458038330078125</LongitudeDegrees>
            </Position>
            <AltitudeMeters>34.799999237060546875</AltitudeMeters>
            <DistanceMeters>NAN</DistanceMeters>
          </Trackpoint>
          <Trackpoint>
            <Time>2022-07-07T17:51:20.000Z</Time>
            <Position>
              <LatitudeDegrees>43.4660890884697437286376953125</LatitudeDegrees>
              <LongitudeDegrees>-1.57233514823019504547119140625</LongitudeDegrees>
            </Position>
            <AltitudeMeters>35</AltitudeMeters>
            <DistanceMeters>NAN</DistanceMeters>
          </Trackpoint>
          <Trackpoint>
            <Time>2022-07-07T17:51:24.000Z</Time>
            <Position>
              <LatitudeDegrees>43.4658473543822765350341796875</LatitudeDegrees>
              <LongitudeDegrees>-1.57229340635240077972412109375</LongitudeDegrees>
            </Position>
            <AltitudeMeters>34.40000152587890625</AltitudeMeters>
            <DistanceMeters>NAN</DistanceMeters>
          </Trackpoint>
          <Trackpoint>
            <Time>2022-07-07T17:51:26.000Z</Time>
            <Position>
              <LatitudeDegrees>43.4657360427081584930419921875</LatitudeDegrees>
              <LongitudeDegrees>-1.5722520835697650909423828125</LongitudeDegrees>
            </Position>
            <AltitudeMeters>34.200000762939453125</AltitudeMeters>
            <DistanceMeters>NAN</DistanceMeters>
          </Trackpoint>
          <Trackpoint>
            <Time>2022-07-07T17:51:31.000Z</Time>
            <Position>
              <LatitudeDegrees>43.465505205094814300537109375</LatitudeDegrees>
              <LongitudeDegrees>-1.57210112549364566802978515625</LongitudeDegrees>
            </Position>
            <AltitudeMeters>34.40000152587890625</AltitudeMeters>
            <DistanceMeters>NAN</DistanceMeters>
          </Trackpoint>
          <Trackpoint>
            <Time>2022-07-07T17:51:36.000Z</Time>
            <Position>
              <LatitudeDegrees>43.46530236303806304931640625</LatitudeDegrees>
              <LongitudeDegrees>-1.57195595093071460723876953125</LongitudeDegrees>
            </Position>
            <AltitudeMeters>35</AltitudeMeters>
            <DistanceMeters>NAN</DistanceMeters>
          </Trackpoint>
          <Trackpoint>
            <Time>2022-07-07T17:51:37.000Z</Time>
            <Position>
              <LatitudeDegrees>43.465263135731220245361328125</LatitudeDegrees>
              <LongitudeDegrees>-1.5719436295330524444580078125</LongitudeDegrees>
            </Position>
            <AltitudeMeters>35</AltitudeMeters>
            <DistanceMeters>NAN</DistanceMeters>
          </Trackpoint>
          <Trackpoint>
            <Time>2022-07-07T17:51:38.000Z</Time>
            <Position>
              <LatitudeDegrees>43.46521846018731594085693359375</LatitudeDegrees>
              <LongitudeDegrees>-1.571954526007175445556640625</LongitudeDegrees>
            </Position>
            <AltitudeMeters>35</AltitudeMeters>
            <DistanceMeters>NAN</DistanceMeters>
          </Trackpoint>
          <Trackpoint>
            <Time>2022-07-07T17:51:40.000Z</Time>
            <Position>
              <LatitudeDegrees>43.4651402570307254791259765625</LatitudeDegrees>
              <LongitudeDegrees>-1.57203926704823970794677734375</LongitudeDegrees>
            </Position>
            <AltitudeMeters>35</AltitudeMeters>
            <DistanceMeters>NAN</DistanceMeters>
          </Trackpoint>
          <Trackpoint>
            <Time>2022-07-07T17:51:45.000Z</Time>
            <Position>
              <LatitudeDegrees>43.4650145284831523895263671875</LatitudeDegrees>
              <LongitudeDegrees>-1.57235878519713878631591796875</LongitudeDegrees>
            </Position>
            <AltitudeMeters>34.40000152587890625</AltitudeMeters>
            <DistanceMeters>NAN</DistanceMeters>
          </Trackpoint>
          <Trackpoint>
            <Time>2022-07-07T17:51:46.000Z</Time>
            <Position>
              <LatitudeDegrees>43.464993573725223541259765625</LatitudeDegrees>
              <LongitudeDegrees>-1.57242399640381336212158203125</LongitudeDegrees>
            </Position>
            <AltitudeMeters>34.200000762939453125</AltitudeMeters>
            <DistanceMeters>NAN</DistanceMeters>
          </Trackpoint>
          <Trackpoint>
            <Time>2022-07-07T17:51:54.000Z</Time>
            <Position>
              <LatitudeDegrees>43.4648401848971843719482421875</LatitudeDegrees>
              <LongitudeDegrees>-1.57289891503751277923583984375</LongitudeDegrees>
            </Position>
            <AltitudeMeters>33.799999237060546875</AltitudeMeters>
            <DistanceMeters>NAN</DistanceMeters>
          </Trackpoint>
          <Trackpoint>
            <Time>2022-07-07T17:52:00.000Z</Time>
            <Position>
              <LatitudeDegrees>43.46469677053391933441162109375</LatitudeDegrees>
              <LongitudeDegrees>-1.57315540127456188201904296875</LongitudeDegrees>
            </Position>
            <AltitudeMeters>33.799999237060546875</AltitudeMeters>
            <DistanceMeters>NAN</DistanceMeters>
          </Trackpoint>
          <Trackpoint>
            <Time>2022-07-07T17:52:04.000Z</Time>
            <Position>
              <LatitudeDegrees>43.464579172432422637939453125</LatitudeDegrees>
              <LongitudeDegrees>-1.57332815229892730712890625</LongitudeDegrees>
            </Position>
            <AltitudeMeters>33.799999237060546875</AltitudeMeters>
            <DistanceMeters>NAN</DistanceMeters>
          </Trackpoint>
          <Trackpoint>
            <Time>2022-07-07T17:52:07.000Z</Time>
            <Position>
              <LatitudeDegrees>43.4644686989486217498779296875</LatitudeDegrees>
              <LongitudeDegrees>-1.57344323582947254180908203125</LongitudeDegrees>
            </Position>
            <AltitudeMeters>33.799999237060546875</AltitudeMeters>
            <DistanceMeters>NAN</DistanceMeters>
          </Trackpoint>
          <Trackpoint>
            <Time>2022-07-07T17:52:11.000Z</Time>
            <Position>
              <LatitudeDegrees>43.46432327292859554290771484375</LatitudeDegrees>
              <LongitudeDegrees>-1.57361154444515705108642578125</LongitudeDegrees>
            </Position>
            <AltitudeMeters>33.799999237060546875</AltitudeMeters>
            <DistanceMeters>NAN</DistanceMeters>
          </Trackpoint>
          <Trackpoint>
            <Time>2022-07-07T17:52:13.000Z</Time>
            <Position>
              <LatitudeDegrees>43.46424766816198825836181640625</LatitudeDegrees>
              <LongitudeDegrees>-1.5736981295049190521240234375</LongitudeDegrees>
            </Position>
            <AltitudeMeters>33.799999237060546875</AltitudeMeters>
            <DistanceMeters>NAN</DistanceMeters>
          </Trackpoint>
          <Trackpoint>
            <Time>2022-07-07T17:52:16.000Z</Time>
            <Position>
              <LatitudeDegrees>43.4641485102474689483642578125</LatitudeDegrees>
              <LongitudeDegrees>-1.57382092438638210296630859375</LongitudeDegrees>
            </Position>
            <AltitudeMeters>33.799999237060546875</AltitudeMeters>
            <DistanceMeters>NAN</DistanceMeters>
          </Trackpoint>
          <Trackpoint>
            <Time>2022-07-07T17:52:19.000Z</Time>
            <Position>
              <LatitudeDegrees>43.4641159884631633758544921875</LatitudeDegrees>
              <LongitudeDegrees>-1.57390859909355640411376953125</LongitudeDegrees>
            </Position>
            <AltitudeMeters>33.799999237060546875</AltitudeMeters>
            <DistanceMeters>NAN</DistanceMeters>
          </Trackpoint>
          <Trackpoint>
            <Time>2022-07-07T17:52:20.000Z</Time>
            <Position>
              <LatitudeDegrees>43.46410475671291351318359375</LatitudeDegrees>
              <LongitudeDegrees>-1.57392502762377262115478515625</LongitudeDegrees>
            </Position>
            <AltitudeMeters>33.799999237060546875</AltitudeMeters>
            <DistanceMeters>NAN</DistanceMeters>
          </Trackpoint>
          <Trackpoint>
            <Time>2022-07-07T17:52:23.000Z</Time>
            <Position>
              <LatitudeDegrees>43.464040048420429229736328125</LatitudeDegrees>
              <LongitudeDegrees>-1.57395084388554096221923828125</LongitudeDegrees>
            </Position>
            <AltitudeMeters>33.59999847412109375</AltitudeMeters>
            <DistanceMeters>NAN</DistanceMeters>
          </Trackpoint>
          <Trackpoint>
            <Time>2022-07-07T17:52:30.000Z</Time>
            <Position>
              <LatitudeDegrees>43.46389059908688068389892578125</LatitudeDegrees>
              <LongitudeDegrees>-1.57411940395832061767578125</LongitudeDegrees>
            </Position>
            <AltitudeMeters>34.799999237060546875</AltitudeMeters>
            <DistanceMeters>NAN</DistanceMeters>
          </Trackpoint>
          <Trackpoint>
            <Time>2022-07-07T17:52:34.000Z</Time>
            <Position>
              <LatitudeDegrees>43.46381952054798603057861328125</LatitudeDegrees>
              <LongitudeDegrees>-1.57423716969788074493408203125</LongitudeDegrees>
            </Position>
            <AltitudeMeters>35.40000152587890625</AltitudeMeters>
            <DistanceMeters>NAN</DistanceMeters>
          </Trackpoint>
          <Trackpoint>
            <Time>2022-07-07T17:52:38.000Z</Time>
            <Position>
              <LatitudeDegrees>43.4637341089546680450439453125</LatitudeDegrees>
              <LongitudeDegrees>-1.57435543835163116455078125</LongitudeDegrees>
            </Position>
            <AltitudeMeters>35.799999237060546875</AltitudeMeters>
            <DistanceMeters>NAN</DistanceMeters>
          </Trackpoint>
          <Trackpoint>
            <Time>2022-07-07T17:52:41.000Z</Time>
            <Position>
              <LatitudeDegrees>43.46366931684315204620361328125</LatitudeDegrees>
              <LongitudeDegrees>-1.574451662600040435791015625</LongitudeDegrees>
            </Position>
            <AltitudeMeters>36.40000152587890625</AltitudeMeters>
            <DistanceMeters>NAN</DistanceMeters>
          </Trackpoint>
          <Trackpoint>
            <Time>2022-07-07T17:52:46.000Z</Time>
            <Position>
              <LatitudeDegrees>43.4635510481894016265869140625</LatitudeDegrees>
              <LongitudeDegrees>-1.574614606797695159912109375</LongitudeDegrees>
            </Position>
            <AltitudeMeters>36.59999847412109375</AltitudeMeters>
            <DistanceMeters>NAN</DistanceMeters>
          </Trackpoint>
          <Trackpoint>
            <Time>2022-07-07T17:52:47.000Z</Time>
            <Position>
              <LatitudeDegrees>43.4635235555469989776611328125</LatitudeDegrees>
              <LongitudeDegrees>-1.57464821822941303253173828125</LongitudeDegrees>
            </Position>
            <AltitudeMeters>36.59999847412109375</AltitudeMeters>
            <DistanceMeters>NAN</DistanceMeters>
          </Trackpoint>
          <Trackpoint>
            <Time>2022-07-07T17:52:49.000Z</Time>
            <Position>
              <LatitudeDegrees>43.46346504986286163330078125</LatitudeDegrees>
              <LongitudeDegrees>-1.57471887767314910888671875</LongitudeDegrees>
            </Position>
            <AltitudeMeters>36.59999847412109375</AltitudeMeters>
            <DistanceMeters>NAN</DistanceMeters>
          </Trackpoint>
          <Trackpoint>
            <Time>2022-07-07T17:52:56.000Z</Time>
            <Position>
              <LatitudeDegrees>43.46329196356236934661865234375</LatitudeDegrees>
              <LongitudeDegrees>-1.57498399727046489715576171875</LongitudeDegrees>
            </Position>
            <AltitudeMeters>36.59999847412109375</AltitudeMeters>
            <DistanceMeters>NAN</DistanceMeters>
          </Trackpoint>
          <Trackpoint>
            <Time>2022-07-07T17:53:07.000Z</Time>
            <Position>
              <LatitudeDegrees>43.4629814140498638153076171875</LatitudeDegrees>
              <LongitudeDegrees>-1.5754291601479053497314453125</LongitudeDegrees>
            </Position>
            <AltitudeMeters>36.200000762939453125</AltitudeMeters>
            <DistanceMeters>NAN</DistanceMeters>
          </Trackpoint>
          <Trackpoint>
            <Time>2022-07-07T17:53:16.000Z</Time>
            <Position>
              <LatitudeDegrees>43.46270791254937648773193359375</LatitudeDegrees>
              <LongitudeDegrees>-1.5758110396564006805419921875</LongitudeDegrees>
            </Position>
            <AltitudeMeters>35.40000152587890625</AltitudeMeters>
            <DistanceMeters>NAN</DistanceMeters>
          </Trackpoint>
          <Trackpoint>
            <Time>2022-07-07T17:53:18.000Z</Time>
            <Position>
              <LatitudeDegrees>43.462652005255222320556640625</LatitudeDegrees>
              <LongitudeDegrees>-1.5758918412029743194580078125</LongitudeDegrees>
            </Position>
            <AltitudeMeters>35</AltitudeMeters>
            <DistanceMeters>NAN</DistanceMeters>
          </Trackpoint>
          <Trackpoint>
            <Time>2022-07-07T17:53:22.000Z</Time>
            <Position>
              <LatitudeDegrees>43.46258704550564289093017578125</LatitudeDegrees>
              <LongitudeDegrees>-1.57599217258393764495849609375</LongitudeDegrees>
            </Position>
            <AltitudeMeters>34.59999847412109375</AltitudeMeters>
            <DistanceMeters>NAN</DistanceMeters>
          </Trackpoint>
          <Trackpoint>
            <Time>2022-07-07T17:53:23.000Z</Time>
            <Position>
              <LatitudeDegrees>43.4625696949660778045654296875</LatitudeDegrees>
              <LongitudeDegrees>-1.57599267549812793731689453125</LongitudeDegrees>
            </Position>
            <AltitudeMeters>34.59999847412109375</AltitudeMeters>
            <DistanceMeters>NAN</DistanceMeters>
          </Trackpoint>
          <Trackpoint>
            <Time>2022-07-07T17:53:26.000Z</Time>
            <Position>
              <LatitudeDegrees>43.46252887509763240814208984375</LatitudeDegrees>
              <LongitudeDegrees>-1.57593534328043460845947265625</LongitudeDegrees>
            </Position>
            <AltitudeMeters>34.40000152587890625</AltitudeMeters>
            <DistanceMeters>NAN</DistanceMeters>
          </Trackpoint>
          <Trackpoint>
            <Time>2022-07-07T17:53:30.000Z</Time>
            <Position>
              <LatitudeDegrees>43.4625210799276828765869140625</LatitudeDegrees>
              <LongitudeDegrees>-1.5757567249238491058349609375</LongitudeDegrees>
            </Position>
            <AltitudeMeters>34.40000152587890625</AltitudeMeters>
            <DistanceMeters>NAN</DistanceMeters>
          </Trackpoint>
          <Trackpoint>
            <Time>2022-07-07T17:53:31.000Z</Time>
            <Position>
              <LatitudeDegrees>43.46252216957509517669677734375</LatitudeDegrees>
              <LongitudeDegrees>-1.57571556977927684783935546875</LongitudeDegrees>
            </Position>
            <AltitudeMeters>34.59999847412109375</AltitudeMeters>
            <DistanceMeters>NAN</DistanceMeters>
          </Trackpoint>
          <Trackpoint>
            <Time>2022-07-07T17:53:32.000Z</Time>
            <Position>
              <LatitudeDegrees>43.46252334304153919219970703125</LatitudeDegrees>
              <LongitudeDegrees>-1.5756641887128353118896484375</LongitudeDegrees>
            </Position>
            <AltitudeMeters>34.59999847412109375</AltitudeMeters>
            <DistanceMeters>NAN</DistanceMeters>
          </Trackpoint>
          <Trackpoint>
            <Time>2022-07-07T17:53:37.000Z</Time>
            <Position>
              <LatitudeDegrees>43.46253843046724796295166015625</LatitudeDegrees>
              <LongitudeDegrees>-1.57538540661334991455078125</LongitudeDegrees>
            </Position>
            <AltitudeMeters>35.200000762939453125</AltitudeMeters>
            <DistanceMeters>NAN</DistanceMeters>
          </Trackpoint>
          <Trackpoint>
            <Time>2022-07-07T17:53:47.000Z</Time>
            <Position>
              <LatitudeDegrees>43.4625505842268466949462890625</LatitudeDegrees>
              <LongitudeDegrees>-1.5748947300016880035400390625</LongitudeDegrees>
            </Position>
            <AltitudeMeters>35.59999847412109375</AltitudeMeters>
            <DistanceMeters>NAN</DistanceMeters>
          </Trackpoint>
          <Trackpoint>
            <Time>2022-07-07T17:53:51.000Z</Time>
            <Position>
              <LatitudeDegrees>43.46255737356841564178466796875</LatitudeDegrees>
              <LongitudeDegrees>-1.5746845118701457977294921875</LongitudeDegrees>
            </Position>
            <AltitudeMeters>35.59999847412109375</AltitudeMeters>
            <DistanceMeters>NAN</DistanceMeters>
          </Trackpoint>
          <Trackpoint>
            <Time>2022-07-07T17:54:00.000Z</Time>
            <Position>
              <LatitudeDegrees>43.4625707007944583892822265625</LatitudeDegrees>
              <LongitudeDegrees>-1.5742798335850238800048828125</LongitudeDegrees>
            </Position>
            <AltitudeMeters>36.40000152587890625</AltitudeMeters>
            <DistanceMeters>NAN</DistanceMeters>
          </Trackpoint>
          <Trackpoint>
            <Time>2022-07-07T17:54:07.000Z</Time>
            <Position>
              <LatitudeDegrees>43.4625680185854434967041015625</LatitudeDegrees>
              <LongitudeDegrees>-1.57394799403846263885498046875</LongitudeDegrees>
            </Position>
            <AltitudeMeters>36.799999237060546875</AltitudeMeters>
            <DistanceMeters>NAN</DistanceMeters>
          </Trackpoint>
          <Trackpoint>
            <Time>2022-07-07T17:54:10.000Z</Time>
            <Position>
              <LatitudeDegrees>43.4625698626041412353515625</LatitudeDegrees>
              <LongitudeDegrees>-1.57378152944147586822509765625</LongitudeDegrees>
            </Position>
            <AltitudeMeters>36.799999237060546875</AltitudeMeters>
            <DistanceMeters>NAN</DistanceMeters>
          </Trackpoint>
          <Trackpoint>
            <Time>2022-07-07T17:54:22.000Z</Time>
            <Position>
              <LatitudeDegrees>43.462577573955059051513671875</LatitudeDegrees>
              <LongitudeDegrees>-1.573196388781070709228515625</LongitudeDegrees>
            </Position>
            <AltitudeMeters>37</AltitudeMeters>
            <DistanceMeters>NAN</DistanceMeters>
          </Trackpoint>
          <Trackpoint>
            <Time>2022-07-07T17:54:29.000Z</Time>
            <Position>
              <LatitudeDegrees>43.4625847823917865753173828125</LatitudeDegrees>
              <LongitudeDegrees>-1.5728782117366790771484375</LongitudeDegrees>
            </Position>
            <AltitudeMeters>37.200000762939453125</AltitudeMeters>
            <DistanceMeters>NAN</DistanceMeters>
          </Trackpoint>
          <Trackpoint>
            <Time>2022-07-07T17:54:34.000Z</Time>
            <Position>
              <LatitudeDegrees>43.46259525977075099945068359375</LatitudeDegrees>
              <LongitudeDegrees>-1.5726399980485439300537109375</LongitudeDegrees>
            </Position>
            <AltitudeMeters>37.40000152587890625</AltitudeMeters>
            <DistanceMeters>NAN</DistanceMeters>
          </Trackpoint>
          <Trackpoint>
            <Time>2022-07-07T17:54:41.000Z</Time>
            <Position>
              <LatitudeDegrees>43.46260749734938144683837890625</LatitudeDegrees>
              <LongitudeDegrees>-1.57232768833637237548828125</LongitudeDegrees>
            </Position>
            <AltitudeMeters>38</AltitudeMeters>
            <DistanceMeters>NAN</DistanceMeters>
          </Trackpoint>
          <Trackpoint>
            <Time>2022-07-07T17:54:46.000Z</Time>
            <Position>
              <LatitudeDegrees>43.46260347403585910797119140625</LatitudeDegrees>
              <LongitudeDegrees>-1.57212493009865283966064453125</LongitudeDegrees>
            </Position>
            <AltitudeMeters>38.59999847412109375</AltitudeMeters>
            <DistanceMeters>NAN</DistanceMeters>
          </Trackpoint>
          <Trackpoint>
            <Time>2022-07-07T17:54:49.000Z</Time>
            <Position>
              <LatitudeDegrees>43.462601713836193084716796875</LatitudeDegrees>
              <LongitudeDegrees>-1.57199718989431858062744140625</LongitudeDegrees>
            </Position>
            <AltitudeMeters>39</AltitudeMeters>
            <DistanceMeters>NAN</DistanceMeters>
          </Trackpoint>
          <Trackpoint>
            <Time>2022-07-07T17:54:54.000Z</Time>
            <Position>
              <LatitudeDegrees>43.4625971876084804534912109375</LatitudeDegrees>
              <LongitudeDegrees>-1.5718236006796360015869140625</LongitudeDegrees>
            </Position>
            <AltitudeMeters>39.799999237060546875</AltitudeMeters>
            <DistanceMeters>NAN</DistanceMeters>
          </Trackpoint>
          <Trackpoint>
            <Time>2022-07-07T17:54:58.000Z</Time>
            <Position>
              <LatitudeDegrees>43.46260146237909793853759765625</LatitudeDegrees>
              <LongitudeDegrees>-1.5716164000332355499267578125</LongitudeDegrees>
            </Position>
            <AltitudeMeters>40.200000762939453125</AltitudeMeters>
            <DistanceMeters>NAN</DistanceMeters>
          </Trackpoint>
          <Trackpoint>
            <Time>2022-07-07T17:55:03.000Z</Time>
            <Position>
              <LatitudeDegrees>43.46255284734070301055908203125</LatitudeDegrees>
              <LongitudeDegrees>-1.57142437063157558441162109375</LongitudeDegrees>
            </Position>
            <AltitudeMeters>40.799999237060546875</AltitudeMeters>
            <DistanceMeters>NAN</DistanceMeters>
          </Trackpoint>
          <Trackpoint>
            <Time>2022-07-07T17:55:04.000Z</Time>
            <Position>
              <LatitudeDegrees>43.462535999715328216552734375</LatitudeDegrees>
              <LongitudeDegrees>-1.5713924355804920196533203125</LongitudeDegrees>
            </Position>
            <AltitudeMeters>41</AltitudeMeters>
            <DistanceMeters>NAN</DistanceMeters>
          </Trackpoint>
          <Trackpoint>
            <Time>2022-07-07T17:55:11.000Z</Time>
            <Position>
              <LatitudeDegrees>43.46241689287126064300537109375</LatitudeDegrees>
              <LongitudeDegrees>-1.57117961905896663665771484375</LongitudeDegrees>
            </Position>
            <AltitudeMeters>41.799999237060546875</AltitudeMeters>
            <DistanceMeters>NAN</DistanceMeters>
          </Trackpoint>
          <Trackpoint>
            <Time>2022-07-07T17:55:12.000Z</Time>
            <Position>
              <LatitudeDegrees>43.46239141188561916351318359375</LatitudeDegrees>
              <LongitudeDegrees>-1.57115732319653034210205078125</LongitudeDegrees>
            </Position>
            <AltitudeMeters>42</AltitudeMeters>
            <DistanceMeters>NAN</DistanceMeters>
          </Trackpoint>
          <Trackpoint>
            <Time>2022-07-07T17:55:17.000Z</Time>
            <Position>
              <LatitudeDegrees>43.46221648156642913818359375</LatitudeDegrees>
              <LongitudeDegrees>-1.57110703177750110626220703125</LongitudeDegrees>
            </Position>
            <AltitudeMeters>42.200000762939453125</AltitudeMeters>
            <DistanceMeters>NAN</DistanceMeters>
          </Trackpoint>
          <Trackpoint>
            <Time>2022-07-07T17:55:21.000Z</Time>
            <Position>
              <LatitudeDegrees>43.462110199034214019775390625</LatitudeDegrees>
              <LongitudeDegrees>-1.570976190268993377685546875</LongitudeDegrees>
            </Position>
            <AltitudeMeters>41.799999237060546875</AltitudeMeters>
            <DistanceMeters>NAN</DistanceMeters>
          </Trackpoint>
          <Trackpoint>
            <Time>2022-07-07T17:55:24.000Z</Time>
            <Position>
              <LatitudeDegrees>43.46206468529999256134033203125</LatitudeDegrees>
              <LongitudeDegrees>-1.5708268247544765472412109375</LongitudeDegrees>
            </Position>
            <AltitudeMeters>41.799999237060546875</AltitudeMeters>
            <DistanceMeters>NAN</DistanceMeters>
          </Trackpoint>
          <Trackpoint>
            <Time>2022-07-07T17:55:26.000Z</Time>
            <Position>
              <LatitudeDegrees>43.462029397487640380859375</LatitudeDegrees>
              <LongitudeDegrees>-1.570723392069339752197265625</LongitudeDegrees>
            </Position>
            <AltitudeMeters>41.799999237060546875</AltitudeMeters>
            <DistanceMeters>NAN</DistanceMeters>
          </Trackpoint>
          <Trackpoint>
            <Time>2022-07-07T17:55:29.000Z</Time>
            <Position>
              <LatitudeDegrees>43.46192277967929840087890625</LatitudeDegrees>
              <LongitudeDegrees>-1.570629179477691650390625</LongitudeDegrees>
            </Position>
            <AltitudeMeters>41.200000762939453125</AltitudeMeters>
            <DistanceMeters>NAN</DistanceMeters>
          </Trackpoint>
          <Trackpoint>
            <Time>2022-07-07T17:55:30.000Z</Time>
            <Position>
              <LatitudeDegrees>43.46187810413539409637451171875</LatitudeDegrees>
              <LongitudeDegrees>-1.570614092051982879638671875</LongitudeDegrees>
            </Position>
            <AltitudeMeters>41.200000762939453125</AltitudeMeters>
            <DistanceMeters>NAN</DistanceMeters>
          </Trackpoint>
          <Trackpoint>
            <Time>2022-07-07T17:55:31.000Z</Time>
            <Position>
              <LatitudeDegrees>43.46183083020150661468505859375</LatitudeDegrees>
              <LongitudeDegrees>-1.5706055425107479095458984375</LongitudeDegrees>
            </Position>
            <AltitudeMeters>41</AltitudeMeters>
            <DistanceMeters>NAN</DistanceMeters>
          </Trackpoint>
          <Trackpoint>
            <Time>2022-07-07T17:55:34.000Z</Time>
            <Position>
              <LatitudeDegrees>43.46166604198515415191650390625</LatitudeDegrees>
              <LongitudeDegrees>-1.57061518169939517974853515625</LongitudeDegrees>
            </Position>
            <AltitudeMeters>41</AltitudeMeters>
            <DistanceMeters>NAN</DistanceMeters>
          </Trackpoint>
          <Trackpoint>
            <Time>2022-07-07T17:55:35.000Z</Time>
            <Position>
              <LatitudeDegrees>43.46160971559584140777587890625</LatitudeDegrees>
              <LongitudeDegrees>-1.57062892802059650421142578125</LongitudeDegrees>
            </Position>
            <AltitudeMeters>40.799999237060546875</AltitudeMeters>
            <DistanceMeters>NAN</DistanceMeters>
          </Trackpoint>
          <Trackpoint>
            <Time>2022-07-07T17:55:39.000Z</Time>
            <Position>
              <LatitudeDegrees>43.46137988381087779998779296875</LatitudeDegrees>
              <LongitudeDegrees>-1.5707423351705074310302734375</LongitudeDegrees>
            </Position>
            <AltitudeMeters>40.200000762939453125</AltitudeMeters>
            <DistanceMeters>NAN</DistanceMeters>
          </Trackpoint>
          <Trackpoint>
            <Time>2022-07-07T17:55:41.000Z</Time>
            <Position>
              <LatitudeDegrees>43.46124292351305484771728515625</LatitudeDegrees>
              <LongitudeDegrees>-1.570821292698383331298828125</LongitudeDegrees>
            </Position>
            <AltitudeMeters>39.799999237060546875</AltitudeMeters>
            <DistanceMeters>NAN</DistanceMeters>
          </Trackpoint>
          <Trackpoint>
            <Time>2022-07-07T17:55:44.000Z</Time>
            <Position>
              <LatitudeDegrees>43.461042344570159912109375</LatitudeDegrees>
              <LongitudeDegrees>-1.57095439732074737548828125</LongitudeDegrees>
            </Position>
            <AltitudeMeters>38.40000152587890625</AltitudeMeters>
            <DistanceMeters>NAN</DistanceMeters>
          </Trackpoint>
          <Trackpoint>
            <Time>2022-07-07T17:55:46.000Z</Time>
            <Position>
              <LatitudeDegrees>43.4609080664813518524169921875</LatitudeDegrees>
              <LongitudeDegrees>-1.57104299403727054595947265625</LongitudeDegrees>
            </Position>
            <AltitudeMeters>37.799999237060546875</AltitudeMeters>
            <DistanceMeters>NAN</DistanceMeters>
          </Trackpoint>
          <Trackpoint>
            <Time>2022-07-07T17:55:47.000Z</Time>
            <Position>
              <LatitudeDegrees>43.46082709729671478271484375</LatitudeDegrees>
              <LongitudeDegrees>-1.57109521329402923583984375</LongitudeDegrees>
            </Position>
            <AltitudeMeters>37.40000152587890625</AltitudeMeters>
            <DistanceMeters>NAN</DistanceMeters>
          </Trackpoint>
          <Trackpoint>
            <Time>2022-07-07T17:55:50.000Z</Time>
            <Position>
              <LatitudeDegrees>43.46062685362994670867919921875</LatitudeDegrees>
              <LongitudeDegrees>-1.57122856937348842620849609375</LongitudeDegrees>
            </Position>
            <AltitudeMeters>36.40000152587890625</AltitudeMeters>
            <DistanceMeters>NAN</DistanceMeters>
          </Trackpoint>
          <Trackpoint>
            <Time>2022-07-07T17:55:51.000Z</Time>
            <Position>
              <LatitudeDegrees>43.460556529462337493896484375</LatitudeDegrees>
              <LongitudeDegrees>-1.57127534039318561553955078125</LongitudeDegrees>
            </Position>
            <AltitudeMeters>36.40000152587890625</AltitudeMeters>
            <DistanceMeters>NAN</DistanceMeters>
          </Trackpoint>
          <Trackpoint>
            <Time>2022-07-07T17:55:55.000Z</Time>
            <Position>
              <LatitudeDegrees>43.4602901525795459747314453125</LatitudeDegrees>
              <LongitudeDegrees>-1.5714588202536106109619140625</LongitudeDegrees>
            </Position>
            <AltitudeMeters>35.799999237060546875</AltitudeMeters>
            <DistanceMeters>NAN</DistanceMeters>
          </Trackpoint>
          <Trackpoint>
            <Time>2022-07-07T17:56:01.000Z</Time>
            <Position>
              <LatitudeDegrees>43.460008017718791961669921875</LatitudeDegrees>
              <LongitudeDegrees>-1.571656800806522369384765625</LongitudeDegrees>
            </Position>
            <AltitudeMeters>35.59999847412109375</AltitudeMeters>
            <DistanceMeters>NAN</DistanceMeters>
          </Trackpoint>
          <Trackpoint>
            <Time>2022-07-07T17:56:07.000Z</Time>
            <Position>
              <LatitudeDegrees>43.4597922675311565399169921875</LatitudeDegrees>
              <LongitudeDegrees>-1.57179468311369419097900390625</LongitudeDegrees>
            </Position>
            <AltitudeMeters>36.40000152587890625</AltitudeMeters>
            <DistanceMeters>NAN</DistanceMeters>
          </Trackpoint>
          <Trackpoint>
            <Time>2022-07-07T17:56:12.000Z</Time>
            <Position>
              <LatitudeDegrees>43.45965388230979442596435546875</LatitudeDegrees>
              <LongitudeDegrees>-1.5718655101954936981201171875</LongitudeDegrees>
            </Position>
            <AltitudeMeters>37.200000762939453125</AltitudeMeters>
            <DistanceMeters>NAN</DistanceMeters>
          </Trackpoint>
          <Trackpoint>
            <Time>2022-07-07T17:56:14.000Z</Time>
            <Position>
              <LatitudeDegrees>43.45961096696555614471435546875</LatitudeDegrees>
              <LongitudeDegrees>-1.5718987025320529937744140625</LongitudeDegrees>
            </Position>
            <AltitudeMeters>37.40000152587890625</AltitudeMeters>
            <DistanceMeters>NAN</DistanceMeters>
          </Trackpoint>
          <Trackpoint>
            <Time>2022-07-07T17:56:19.000Z</Time>
            <Position>
              <LatitudeDegrees>43.4595012478530406951904296875</LatitudeDegrees>
              <LongitudeDegrees>-1.57196064479649066925048828125</LongitudeDegrees>
            </Position>
            <AltitudeMeters>38</AltitudeMeters>
            <DistanceMeters>NAN</DistanceMeters>
          </Trackpoint>
          <Trackpoint>
            <Time>2022-07-07T17:56:22.000Z</Time>
            <Position>
              <LatitudeDegrees>43.459438048303127288818359375</LatitudeDegrees>
              <LongitudeDegrees>-1.57199668698012828826904296875</LongitudeDegrees>
            </Position>
            <AltitudeMeters>38.40000152587890625</AltitudeMeters>
            <DistanceMeters>NAN</DistanceMeters>
          </Trackpoint>
          <Trackpoint>
            <Time>2022-07-07T17:56:28.000Z</Time>
            <Position>
              <LatitudeDegrees>43.45932229422032833099365234375</LatitudeDegrees>
              <LongitudeDegrees>-1.57205603085458278656005859375</LongitudeDegrees>
            </Position>
            <AltitudeMeters>39.200000762939453125</AltitudeMeters>
            <DistanceMeters>NAN</DistanceMeters>
          </Trackpoint>
          <Trackpoint>
            <Time>2022-07-07T17:56:31.000Z</Time>
            <Position>
              <LatitudeDegrees>43.45926395617425441741943359375</LatitudeDegrees>
              <LongitudeDegrees>-1.57209861092269420623779296875</LongitudeDegrees>
            </Position>
            <AltitudeMeters>39.59999847412109375</AltitudeMeters>
            <DistanceMeters>NAN</DistanceMeters>
          </Trackpoint>
          <Trackpoint>
            <Time>2022-07-07T17:56:36.000Z</Time>
            <Position>
              <LatitudeDegrees>43.459165804088115692138671875</LatitudeDegrees>
              <LongitudeDegrees>-1.5721674263477325439453125</LongitudeDegrees>
            </Position>
            <AltitudeMeters>40.40000152587890625</AltitudeMeters>
            <DistanceMeters>NAN</DistanceMeters>
          </Trackpoint>
          <Trackpoint>
            <Time>2022-07-07T17:56:37.000Z</Time>
            <Position>
              <LatitudeDegrees>43.459148369729518890380859375</LatitudeDegrees>
              <LongitudeDegrees>-1.5721799992024898529052734375</LongitudeDegrees>
            </Position>
            <AltitudeMeters>40.59999847412109375</AltitudeMeters>
            <DistanceMeters>NAN</DistanceMeters>
          </Trackpoint>
          <Trackpoint>
            <Time>2022-07-07T17:56:38.000Z</Time>
            <Position>
              <LatitudeDegrees>43.45912599004805088043212890625</LatitudeDegrees>
              <LongitudeDegrees>-1.5721907280385494232177734375</LongitudeDegrees>
            </Position>
            <AltitudeMeters>40.799999237060546875</AltitudeMeters>
            <DistanceMeters>NAN</DistanceMeters>
          </Trackpoint>
          <Trackpoint>
            <Time>2022-07-07T17:56:44.000Z</Time>
            <Position>
              <LatitudeDegrees>43.458984084427356719970703125</LatitudeDegrees>
              <LongitudeDegrees>-1.5722398459911346435546875</LongitudeDegrees>
            </Position>
            <AltitudeMeters>41.59999847412109375</AltitudeMeters>
            <DistanceMeters>NAN</DistanceMeters>
          </Trackpoint>
          <Trackpoint>
            <Time>2022-07-07T17:56:45.000Z</Time>
            <Position>
              <LatitudeDegrees>43.45896321348845958709716796875</LatitudeDegrees>
              <LongitudeDegrees>-1.5722510777413845062255859375</LongitudeDegrees>
            </Position>
            <AltitudeMeters>41.799999237060546875</AltitudeMeters>
            <DistanceMeters>NAN</DistanceMeters>
          </Trackpoint>
          <Trackpoint>
            <Time>2022-07-07T17:56:46.000Z</Time>
            <Position>
              <LatitudeDegrees>43.45894259400665760040283203125</LatitudeDegrees>
              <LongitudeDegrees>-1.57225920818746089935302734375</LongitudeDegrees>
            </Position>
            <AltitudeMeters>41.799999237060546875</AltitudeMeters>
            <DistanceMeters>NAN</DistanceMeters>
          </Trackpoint>
          <Trackpoint>
            <Time>2022-07-07T17:56:51.000Z</Time>
            <Position>
              <LatitudeDegrees>43.4588477946817874908447265625</LatitudeDegrees>
              <LongitudeDegrees>-1.57230966724455356597900390625</LongitudeDegrees>
            </Position>
            <AltitudeMeters>42.799999237060546875</AltitudeMeters>
            <DistanceMeters>NAN</DistanceMeters>
          </Trackpoint>
          <Trackpoint>
            <Time>2022-07-07T17:56:53.000Z</Time>
            <Position>
              <LatitudeDegrees>43.45880798064172267913818359375</LatitudeDegrees>
              <LongitudeDegrees>-1.57232760451734066009521484375</LongitudeDegrees>
            </Position>
            <AltitudeMeters>43</AltitudeMeters>
            <DistanceMeters>NAN</DistanceMeters>
          </Trackpoint>
          <Trackpoint>
            <Time>2022-07-07T17:56:58.000Z</Time>
            <Position>
              <LatitudeDegrees>43.45870521850883960723876953125</LatitudeDegrees>
              <LongitudeDegrees>-1.5723697654902935028076171875</LongitudeDegrees>
            </Position>
            <AltitudeMeters>43.59999847412109375</AltitudeMeters>
            <DistanceMeters>NAN</DistanceMeters>
          </Trackpoint>
          <Trackpoint>
            <Time>2022-07-07T17:57:01.000Z</Time>
            <Position>
              <LatitudeDegrees>43.45864319242537021636962890625</LatitudeDegrees>
              <LongitudeDegrees>-1.57242097891867160797119140625</LongitudeDegrees>
            </Position>
            <AltitudeMeters>44</AltitudeMeters>
            <DistanceMeters>NAN</DistanceMeters>
          </Trackpoint>
          <Trackpoint>
            <Time>2022-07-07T17:57:05.000Z</Time>
            <Position>
              <LatitudeDegrees>43.45855752937495708465576171875</LatitudeDegrees>
              <LongitudeDegrees>-1.5724517405033111572265625</LongitudeDegrees>
            </Position>
            <AltitudeMeters>44.59999847412109375</AltitudeMeters>
            <DistanceMeters>NAN</DistanceMeters>
          </Trackpoint>
          <Trackpoint>
            <Time>2022-07-07T17:57:08.000Z</Time>
            <Position>
              <LatitudeDegrees>43.45850036479532718658447265625</LatitudeDegrees>
              <LongitudeDegrees>-1.57247730530798435211181640625</LongitudeDegrees>
            </Position>
            <AltitudeMeters>45</AltitudeMeters>
            <DistanceMeters>NAN</DistanceMeters>
          </Trackpoint>
          <Trackpoint>
            <Time>2022-07-07T17:57:11.000Z</Time>
            <Position>
              <LatitudeDegrees>43.4584421105682849884033203125</LatitudeDegrees>
              <LongitudeDegrees>-1.5725166164338588714599609375</LongitudeDegrees>
            </Position>
            <AltitudeMeters>46.200000762939453125</AltitudeMeters>
            <DistanceMeters>NAN</DistanceMeters>
          </Trackpoint>
          <Trackpoint>
            <Time>2022-07-07T17:57:16.000Z</Time>
            <Position>
              <LatitudeDegrees>43.4583629854023456573486328125</LatitudeDegrees>
              <LongitudeDegrees>-1.5726279281079769134521484375</LongitudeDegrees>
            </Position>
            <AltitudeMeters>47.200000762939453125</AltitudeMeters>
            <DistanceMeters>NAN</DistanceMeters>
          </Trackpoint>
          <Trackpoint>
            <Time>2022-07-07T17:57:21.000Z</Time>
            <Position>
              <LatitudeDegrees>43.4582872129976749420166015625</LatitudeDegrees>
              <LongitudeDegrees>-1.57269858755171298980712890625</LongitudeDegrees>
            </Position>
            <AltitudeMeters>47.59999847412109375</AltitudeMeters>
            <DistanceMeters>NAN</DistanceMeters>
          </Trackpoint>
          <Trackpoint>
            <Time>2022-07-07T17:57:25.000Z</Time>
            <Position>
              <LatitudeDegrees>43.45820817165076732635498046875</LatitudeDegrees>
              <LongitudeDegrees>-1.5727191232144832611083984375</LongitudeDegrees>
            </Position>
            <AltitudeMeters>48</AltitudeMeters>
            <DistanceMeters>NAN</DistanceMeters>
          </Trackpoint>
          <Trackpoint>
            <Time>2022-07-07T17:57:27.000Z</Time>
            <Position>
              <LatitudeDegrees>43.458168022334575653076171875</LatitudeDegrees>
              <LongitudeDegrees>-1.5726648084819316864013671875</LongitudeDegrees>
            </Position>
            <AltitudeMeters>48</AltitudeMeters>
            <DistanceMeters>NAN</DistanceMeters>
          </Trackpoint>
          <Trackpoint>
            <Time>2022-07-07T17:57:30.000Z</Time>
            <Position>
              <LatitudeDegrees>43.45807171426713466644287109375</LatitudeDegrees>
              <LongitudeDegrees>-1.57258509658277034759521484375</LongitudeDegrees>
            </Position>
            <AltitudeMeters>47.799999237060546875</AltitudeMeters>
            <DistanceMeters>NAN</DistanceMeters>
          </Trackpoint>
          <Trackpoint>
            <Time>2022-07-07T17:57:31.000Z</Time>
            <Position>
              <LatitudeDegrees>43.45803617499768733978271484375</LatitudeDegrees>
              <LongitudeDegrees>-1.57257671467959880828857421875</LongitudeDegrees>
            </Position>
            <AltitudeMeters>47.799999237060546875</AltitudeMeters>
            <DistanceMeters>NAN</DistanceMeters>
          </Trackpoint>
          <Trackpoint>
            <Time>2022-07-07T17:57:36.000Z</Time>
            <Position>
              <LatitudeDegrees>43.457866944372653961181640625</LatitudeDegrees>
              <LongitudeDegrees>-1.57256774604320526123046875</LongitudeDegrees>
            </Position>
            <AltitudeMeters>48.200000762939453125</AltitudeMeters>
            <DistanceMeters>NAN</DistanceMeters>
          </Trackpoint>
          <Trackpoint>
            <Time>2022-07-07T17:57:37.000Z</Time>
            <Position>
              <LatitudeDegrees>43.45782964490354061126708984375</LatitudeDegrees>
              <LongitudeDegrees>-1.57255835831165313720703125</LongitudeDegrees>
            </Position>
            <AltitudeMeters>48.40000152587890625</AltitudeMeters>
            <DistanceMeters>NAN</DistanceMeters>
          </Trackpoint>
          <Trackpoint>
            <Time>2022-07-07T17:57:44.000Z</Time>
            <Position>
              <LatitudeDegrees>43.45756678842008113861083984375</LatitudeDegrees>
              <LongitudeDegrees>-1.5725166164338588714599609375</LongitudeDegrees>
            </Position>
            <AltitudeMeters>48.59999847412109375</AltitudeMeters>
            <DistanceMeters>NAN</DistanceMeters>
          </Trackpoint>
          <Trackpoint>
            <Time>2022-07-07T17:57:54.000Z</Time>
            <Position>
              <LatitudeDegrees>43.4572183527052402496337890625</LatitudeDegrees>
              <LongitudeDegrees>-1.57247059978544712066650390625</LongitudeDegrees>
            </Position>
            <AltitudeMeters>48.799999237060546875</AltitudeMeters>
            <DistanceMeters>NAN</DistanceMeters>
          </Trackpoint>
          <Trackpoint>
            <Time>2022-07-07T17:58:02.000Z</Time>
            <Position>
              <LatitudeDegrees>43.45692582428455352783203125</LatitudeDegrees>
              <LongitudeDegrees>-1.5724270977079868316650390625</LongitudeDegrees>
            </Position>
            <AltitudeMeters>49.200000762939453125</AltitudeMeters>
            <DistanceMeters>NAN</DistanceMeters>
          </Trackpoint>
          <Trackpoint>
            <Time>2022-07-07T17:58:03.000Z</Time>
            <Position>
              <LatitudeDegrees>43.45689791254699230194091796875</LatitudeDegrees>
              <LongitudeDegrees>-1.5724287740886211395263671875</LongitudeDegrees>
            </Position>
            <AltitudeMeters>49.200000762939453125</AltitudeMeters>
            <DistanceMeters>NAN</DistanceMeters>
          </Trackpoint>
          <Trackpoint>
            <Time>2022-07-07T17:58:04.000Z</Time>
            <Position>
              <LatitudeDegrees>43.45685734413564205169677734375</LatitudeDegrees>
              <LongitudeDegrees>-1.572429947555065155029296875</LongitudeDegrees>
            </Position>
            <AltitudeMeters>49.200000762939453125</AltitudeMeters>
            <DistanceMeters>NAN</DistanceMeters>
          </Trackpoint>
          <Trackpoint>
            <Time>2022-07-07T17:58:10.000Z</Time>
            <Position>
              <LatitudeDegrees>43.4566547535359859466552734375</LatitudeDegrees>
              <LongitudeDegrees>-1.5724787302315235137939453125</LongitudeDegrees>
            </Position>
            <AltitudeMeters>49.59999847412109375</AltitudeMeters>
            <DistanceMeters>NAN</DistanceMeters>
          </Trackpoint>
          <Trackpoint>
            <Time>2022-07-07T17:58:15.000Z</Time>
            <Position>
              <LatitudeDegrees>43.45646574161946773529052734375</LatitudeDegrees>
              <LongitudeDegrees>-1.572560369968414306640625</LongitudeDegrees>
            </Position>
            <AltitudeMeters>50.200000762939453125</AltitudeMeters>
            <DistanceMeters>NAN</DistanceMeters>
          </Trackpoint>
          <Trackpoint>
            <Time>2022-07-07T17:58:17.000Z</Time>
            <Position>
              <LatitudeDegrees>43.45640136860311031341552734375</LatitudeDegrees>
              <LongitudeDegrees>-1.57260797917842864990234375</LongitudeDegrees>
            </Position>
            <AltitudeMeters>50.200000762939453125</AltitudeMeters>
            <DistanceMeters>NAN</DistanceMeters>
          </Trackpoint>
          <Trackpoint>
            <Time>2022-07-07T17:58:22.000Z</Time>
            <Position>
              <LatitudeDegrees>43.45627597533166408538818359375</LatitudeDegrees>
              <LongitudeDegrees>-1.57274234108626842498779296875</LongitudeDegrees>
            </Position>
            <AltitudeMeters>50.799999237060546875</AltitudeMeters>
            <DistanceMeters>NAN</DistanceMeters>
          </Trackpoint>
          <Trackpoint>
            <Time>2022-07-07T17:58:25.000Z</Time>
            <Position>
              <LatitudeDegrees>43.4561910666525363922119140625</LatitudeDegrees>
              <LongitudeDegrees>-1.57280956394970417022705078125</LongitudeDegrees>
            </Position>
            <AltitudeMeters>51.40000152587890625</AltitudeMeters>
            <DistanceMeters>NAN</DistanceMeters>
          </Trackpoint>
          <Trackpoint>
            <Time>2022-07-07T17:58:30.000Z</Time>
            <Position>
              <LatitudeDegrees>43.45607195980846881866455078125</LatitudeDegrees>
              <LongitudeDegrees>-1.572930514812469482421875</LongitudeDegrees>
            </Position>
            <AltitudeMeters>51.59999847412109375</AltitudeMeters>
            <DistanceMeters>NAN</DistanceMeters>
          </Trackpoint>
          <Trackpoint>
            <Time>2022-07-07T17:58:38.000Z</Time>
            <Position>
              <LatitudeDegrees>43.45588244497776031494140625</LatitudeDegrees>
              <LongitudeDegrees>-1.57314852811396121978759765625</LongitudeDegrees>
            </Position>
            <AltitudeMeters>52.200000762939453125</AltitudeMeters>
            <DistanceMeters>NAN</DistanceMeters>
          </Trackpoint>
          <Trackpoint>
            <Time>2022-07-07T17:58:41.000Z</Time>
            <Position>
              <LatitudeDegrees>43.45579585991799831390380859375</LatitudeDegrees>
              <LongitudeDegrees>-1.57322916202247142791748046875</LongitudeDegrees>
            </Position>
            <AltitudeMeters>52.40000152587890625</AltitudeMeters>
            <DistanceMeters>NAN</DistanceMeters>
          </Trackpoint>
          <Trackpoint>
            <Time>2022-07-07T17:58:45.000Z</Time>
            <Position>
              <LatitudeDegrees>43.4556687064468860626220703125</LatitudeDegrees>
              <LongitudeDegrees>-1.5732954628765583038330078125</LongitudeDegrees>
            </Position>
            <AltitudeMeters>52.200000762939453125</AltitudeMeters>
            <DistanceMeters>NAN</DistanceMeters>
          </Trackpoint>
          <Trackpoint>
            <Time>2022-07-07T17:58:51.000Z</Time>
            <Position>
              <LatitudeDegrees>43.45544398762285709381103515625</LatitudeDegrees>
              <LongitudeDegrees>-1.57341255806386470794677734375</LongitudeDegrees>
            </Position>
            <AltitudeMeters>52</AltitudeMeters>
            <DistanceMeters>NAN</DistanceMeters>
          </Trackpoint>
          <Trackpoint>
            <Time>2022-07-07T17:58:52.000Z</Time>
            <Position>
              <LatitudeDegrees>43.45540576614439487457275390625</LatitudeDegrees>
              <LongitudeDegrees>-1.573426388204097747802734375</LongitudeDegrees>
            </Position>
            <AltitudeMeters>52</AltitudeMeters>
            <DistanceMeters>NAN</DistanceMeters>
          </Trackpoint>
          <Trackpoint>
            <Time>2022-07-07T17:58:56.000Z</Time>
            <Position>
              <LatitudeDegrees>43.45523728989064693450927734375</LatitudeDegrees>
              <LongitudeDegrees>-1.5734560601413249969482421875</LongitudeDegrees>
            </Position>
            <AltitudeMeters>52</AltitudeMeters>
            <DistanceMeters>NAN</DistanceMeters>
          </Trackpoint>
          <Trackpoint>
            <Time>2022-07-07T17:59:00.000Z</Time>
            <Position>
              <LatitudeDegrees>43.455087840557098388671875</LatitudeDegrees>
              <LongitudeDegrees>-1.57348481006920337677001953125</LongitudeDegrees>
            </Position>
            <AltitudeMeters>51.40000152587890625</AltitudeMeters>
            <DistanceMeters>NAN</DistanceMeters>
          </Trackpoint>
          <Trackpoint>
            <Time>2022-07-07T17:59:02.000Z</Time>
            <Position>
              <LatitudeDegrees>43.4550631977617740631103515625</LatitudeDegrees>
              <LongitudeDegrees>-1.57349101267755031585693359375</LongitudeDegrees>
            </Position>
            <AltitudeMeters>51.200000762939453125</AltitudeMeters>
            <DistanceMeters>NAN</DistanceMeters>
          </Trackpoint>
          <Trackpoint>
            <Time>2022-07-07T17:59:03.000Z</Time>
            <Position>
              <LatitudeDegrees>43.4550631977617740631103515625</LatitudeDegrees>
              <LongitudeDegrees>-1.57349101267755031585693359375</LongitudeDegrees>
            </Position>
            <AltitudeMeters>51</AltitudeMeters>
            <DistanceMeters>NAN</DistanceMeters>
          </Trackpoint>
          <Trackpoint>
            <Time>2022-07-07T17:59:04.000Z</Time>
            <Position>
              <LatitudeDegrees>43.4550631977617740631103515625</LatitudeDegrees>
              <LongitudeDegrees>-1.57349101267755031585693359375</LongitudeDegrees>
            </Position>
            <AltitudeMeters>51</AltitudeMeters>
            <DistanceMeters>NAN</DistanceMeters>
          </Trackpoint>
          <Trackpoint>
            <Time>2022-07-07T18:00:14.000Z</Time>
            <Position>
              <LatitudeDegrees>43.45509521663188934326171875</LatitudeDegrees>
              <LongitudeDegrees>-1.5734027512371540069580078125</LongitudeDegrees>
            </Position>
            <AltitudeMeters>51.40000152587890625</AltitudeMeters>
            <DistanceMeters>NAN</DistanceMeters>
          </Trackpoint>
          <Trackpoint>
            <Time>2022-07-07T18:00:15.000Z</Time>
            <Position>
              <LatitudeDegrees>43.45511667430400848388671875</LatitudeDegrees>
              <LongitudeDegrees>-1.573375761508941650390625</LongitudeDegrees>
            </Position>
            <AltitudeMeters>51.40000152587890625</AltitudeMeters>
            <DistanceMeters>NAN</DistanceMeters>
          </Trackpoint>
          <Trackpoint>
            <Time>2022-07-07T18:00:16.000Z</Time>
            <Position>
              <LatitudeDegrees>43.4551428258419036865234375</LatitudeDegrees>
              <LongitudeDegrees>-1.5733584947884082794189453125</LongitudeDegrees>
            </Position>
            <AltitudeMeters>51.40000152587890625</AltitudeMeters>
            <DistanceMeters>NAN</DistanceMeters>
          </Trackpoint>
          <Trackpoint>
            <Time>2022-07-07T18:00:22.000Z</Time>
            <Position>
              <LatitudeDegrees>43.45533016137778759002685546875</LatitudeDegrees>
              <LongitudeDegrees>-1.57327643595635890960693359375</LongitudeDegrees>
            </Position>
            <AltitudeMeters>51.200000762939453125</AltitudeMeters>
            <DistanceMeters>NAN</DistanceMeters>
          </Trackpoint>
          <Trackpoint>
            <Time>2022-07-07T18:00:23.000Z</Time>
            <Position>
              <LatitudeDegrees>43.455346338450908660888671875</LatitudeDegrees>
              <LongitudeDegrees>-1.57324374653398990631103515625</LongitudeDegrees>
            </Position>
            <AltitudeMeters>51.200000762939453125</AltitudeMeters>
            <DistanceMeters>NAN</DistanceMeters>
          </Trackpoint>
          <Trackpoint>
            <Time>2022-07-07T18:00:25.000Z</Time>
            <Position>
              <LatitudeDegrees>43.4553297422826290130615234375</LatitudeDegrees>
              <LongitudeDegrees>-1.57317266799509525299072265625</LongitudeDegrees>
            </Position>
            <AltitudeMeters>50.799999237060546875</AltitudeMeters>
            <DistanceMeters>NAN</DistanceMeters>
          </Trackpoint>
          <Trackpoint>
            <Time>2022-07-07T18:00:28.000Z</Time>
            <Position>
              <LatitudeDegrees>43.45522622577846050262451171875</LatitudeDegrees>
              <LongitudeDegrees>-1.573082394897937774658203125</LongitudeDegrees>
            </Position>
            <AltitudeMeters>50.200000762939453125</AltitudeMeters>
            <DistanceMeters>NAN</DistanceMeters>
          </Trackpoint>
          <Trackpoint>
            <Time>2022-07-07T18:00:29.000Z</Time>
            <Position>
              <LatitudeDegrees>43.45518867485225200653076171875</LatitudeDegrees>
              <LongitudeDegrees>-1.57305113039910793304443359375</LongitudeDegrees>
            </Position>
            <AltitudeMeters>50</AltitudeMeters>
            <DistanceMeters>NAN</DistanceMeters>
          </Trackpoint>
          <Trackpoint>
            <Time>2022-07-07T18:00:33.000Z</Time>
            <Position>
              <LatitudeDegrees>43.45511944033205509185791015625</LatitudeDegrees>
              <LongitudeDegrees>-1.5728331170976161956787109375</LongitudeDegrees>
            </Position>
            <AltitudeMeters>49.59999847412109375</AltitudeMeters>
            <DistanceMeters>NAN</DistanceMeters>
          </Trackpoint>
          <Trackpoint>
            <Time>2022-07-07T18:00:37.000Z</Time>
            <Position>
              <LatitudeDegrees>43.4551106393337249755859375</LatitudeDegrees>
              <LongitudeDegrees>-1.5725672431290149688720703125</LongitudeDegrees>
            </Position>
            <AltitudeMeters>49.200000762939453125</AltitudeMeters>
            <DistanceMeters>NAN</DistanceMeters>
          </Trackpoint>
          <Trackpoint>
            <Time>2022-07-07T18:00:38.000Z</Time>
            <Position>
              <LatitudeDegrees>43.4551195241510868072509765625</LatitudeDegrees>
              <LongitudeDegrees>-1.57249490730464458465576171875</LongitudeDegrees>
            </Position>
            <AltitudeMeters>49</AltitudeMeters>
            <DistanceMeters>NAN</DistanceMeters>
          </Trackpoint>
          <Trackpoint>
            <Time>2022-07-07T18:00:39.000Z</Time>
            <Position>
              <LatitudeDegrees>43.4551218710839748382568359375</LatitudeDegrees>
              <LongitudeDegrees>-1.57242047600448131561279296875</LongitudeDegrees>
            </Position>
            <AltitudeMeters>49</AltitudeMeters>
            <DistanceMeters>NAN</DistanceMeters>
          </Trackpoint>
          <Trackpoint>
            <Time>2022-07-07T18:00:41.000Z</Time>
            <Position>
              <LatitudeDegrees>43.455115668475627899169921875</LatitudeDegrees>
              <LongitudeDegrees>-1.57226708717644214630126953125</LongitudeDegrees>
            </Position>
            <AltitudeMeters>48.40000152587890625</AltitudeMeters>
            <DistanceMeters>NAN</DistanceMeters>
          </Trackpoint>
          <Trackpoint>
            <Time>2022-07-07T18:00:43.000Z</Time>
            <Position>
              <LatitudeDegrees>43.45510804094374179840087890625</LatitudeDegrees>
              <LongitudeDegrees>-1.57211353071033954620361328125</LongitudeDegrees>
            </Position>
            <AltitudeMeters>47.799999237060546875</AltitudeMeters>
            <DistanceMeters>NAN</DistanceMeters>
          </Trackpoint>
          <Trackpoint>
            <Time>2022-07-07T18:00:44.000Z</Time>
            <Position>
              <LatitudeDegrees>43.4551094658672809600830078125</LatitudeDegrees>
              <LongitudeDegrees>-1.572031639516353607177734375</LongitudeDegrees>
            </Position>
            <AltitudeMeters>47.200000762939453125</AltitudeMeters>
            <DistanceMeters>NAN</DistanceMeters>
          </Trackpoint>
          <Trackpoint>
            <Time>2022-07-07T18:00:46.000Z</Time>
            <Position>
              <LatitudeDegrees>43.45511474646627902984619140625</LatitudeDegrees>
              <LongitudeDegrees>-1.571856625378131866455078125</LongitudeDegrees>
            </Position>
            <AltitudeMeters>46.40000152587890625</AltitudeMeters>
            <DistanceMeters>NAN</DistanceMeters>
          </Trackpoint>
          <Trackpoint>
            <Time>2022-07-07T18:00:48.000Z</Time>
            <Position>
              <LatitudeDegrees>43.45509588718414306640625</LatitudeDegrees>
              <LongitudeDegrees>-1.57168638892471790313720703125</LongitudeDegrees>
            </Position>
            <AltitudeMeters>46</AltitudeMeters>
            <DistanceMeters>NAN</DistanceMeters>
          </Trackpoint>
          <Trackpoint>
            <Time>2022-07-07T18:00:50.000Z</Time>
            <Position>
              <LatitudeDegrees>43.45509094186127185821533203125</LatitudeDegrees>
              <LongitudeDegrees>-1.57150500454008579254150390625</LongitudeDegrees>
            </Position>
            <AltitudeMeters>45.40000152587890625</AltitudeMeters>
            <DistanceMeters>NAN</DistanceMeters>
          </Trackpoint>
          <Trackpoint>
            <Time>2022-07-07T18:00:53.000Z</Time>
            <Position>
              <LatitudeDegrees>43.45512698404490947723388671875</LatitudeDegrees>
              <LongitudeDegrees>-1.57124432735145092010498046875</LongitudeDegrees>
            </Position>
            <AltitudeMeters>44.59999847412109375</AltitudeMeters>
            <DistanceMeters>NAN</DistanceMeters>
          </Trackpoint>
          <Trackpoint>
            <Time>2022-07-07T18:00:54.000Z</Time>
            <Position>
              <LatitudeDegrees>43.45513905398547649383544921875</LatitudeDegrees>
              <LongitudeDegrees>-1.57116218470036983489990234375</LongitudeDegrees>
            </Position>
            <AltitudeMeters>44.40000152587890625</AltitudeMeters>
            <DistanceMeters>NAN</DistanceMeters>
          </Trackpoint>
          <Trackpoint>
            <Time>2022-07-07T18:00:58.000Z</Time>
            <Position>
              <LatitudeDegrees>43.45519135706126689910888671875</LatitudeDegrees>
              <LongitudeDegrees>-1.5708895213901996612548828125</LongitudeDegrees>
            </Position>
            <AltitudeMeters>43.59999847412109375</AltitudeMeters>
            <DistanceMeters>NAN</DistanceMeters>
          </Trackpoint>
          <Trackpoint>
            <Time>2022-07-07T18:00:59.000Z</Time>
            <Position>
              <LatitudeDegrees>43.4552140720188617706298828125</LatitudeDegrees>
              <LongitudeDegrees>-1.5708137489855289459228515625</LongitudeDegrees>
            </Position>
            <AltitudeMeters>43.40000152587890625</AltitudeMeters>
            <DistanceMeters>NAN</DistanceMeters>
          </Trackpoint>
          <Trackpoint>
            <Time>2022-07-07T18:01:00.000Z</Time>
            <Position>
              <LatitudeDegrees>43.4552375413477420806884765625</LatitudeDegrees>
              <LongitudeDegrees>-1.5707413293421268463134765625</LongitudeDegrees>
            </Position>
            <AltitudeMeters>43.200000762939453125</AltitudeMeters>
            <DistanceMeters>NAN</DistanceMeters>
          </Trackpoint>
          <Trackpoint>
            <Time>2022-07-07T18:01:03.000Z</Time>
            <Position>
              <LatitudeDegrees>43.45532211475074291229248046875</LatitudeDegrees>
              <LongitudeDegrees>-1.570538990199565887451171875</LongitudeDegrees>
            </Position>
            <AltitudeMeters>42.59999847412109375</AltitudeMeters>
            <DistanceMeters>NAN</DistanceMeters>
          </Trackpoint>
          <Trackpoint>
            <Time>2022-07-07T18:01:04.000Z</Time>
            <Position>
              <LatitudeDegrees>43.45535312779247760772705078125</LatitudeDegrees>
              <LongitudeDegrees>-1.57047956250607967376708984375</LongitudeDegrees>
            </Position>
            <AltitudeMeters>42.40000152587890625</AltitudeMeters>
            <DistanceMeters>NAN</DistanceMeters>
          </Trackpoint>
          <Trackpoint>
            <Time>2022-07-07T18:01:08.000Z</Time>
            <Position>
              <LatitudeDegrees>43.4554796107113361358642578125</LatitudeDegrees>
              <LongitudeDegrees>-1.5701825916767120361328125</LongitudeDegrees>
            </Position>
            <AltitudeMeters>41.40000152587890625</AltitudeMeters>
            <DistanceMeters>NAN</DistanceMeters>
          </Trackpoint>
          <Trackpoint>
            <Time>2022-07-07T18:01:09.000Z</Time>
            <Position>
              <LatitudeDegrees>43.45550081692636013031005859375</LatitudeDegrees>
              <LongitudeDegrees>-1.57009550370275974273681640625</LongitudeDegrees>
            </Position>
            <AltitudeMeters>41.40000152587890625</AltitudeMeters>
            <DistanceMeters>NAN</DistanceMeters>
          </Trackpoint>
          <Trackpoint>
            <Time>2022-07-07T18:01:10.000Z</Time>
            <Position>
              <LatitudeDegrees>43.45551900565624237060546875</LatitudeDegrees>
              <LongitudeDegrees>-1.5700037218630313873291015625</LongitudeDegrees>
            </Position>
            <AltitudeMeters>41</AltitudeMeters>
            <DistanceMeters>NAN</DistanceMeters>
          </Trackpoint>
          <Trackpoint>
            <Time>2022-07-07T18:01:12.000Z</Time>
            <Position>
              <LatitudeDegrees>43.45551967620849609375</LatitudeDegrees>
              <LongitudeDegrees>-1.56983784399926662445068359375</LongitudeDegrees>
            </Position>
            <AltitudeMeters>40.40000152587890625</AltitudeMeters>
            <DistanceMeters>NAN</DistanceMeters>
          </Trackpoint>
          <Trackpoint>
            <Time>2022-07-07T18:01:13.000Z</Time>
            <Position>
              <LatitudeDegrees>43.45550953410565853118896484375</LatitudeDegrees>
              <LongitudeDegrees>-1.56975679099559783935546875</LongitudeDegrees>
            </Position>
            <AltitudeMeters>40.200000762939453125</AltitudeMeters>
            <DistanceMeters>NAN</DistanceMeters>
          </Trackpoint>
          <Trackpoint>
            <Time>2022-07-07T18:01:17.000Z</Time>
            <Position>
              <LatitudeDegrees>43.45540576614439487457275390625</LatitudeDegrees>
              <LongitudeDegrees>-1.56948530115187168121337890625</LongitudeDegrees>
            </Position>
            <AltitudeMeters>39</AltitudeMeters>
            <DistanceMeters>NAN</DistanceMeters>
          </Trackpoint>
          <Trackpoint>
            <Time>2022-07-07T18:01:18.000Z</Time>
            <Position>
              <LatitudeDegrees>43.4553662873804569244384765625</LatitudeDegrees>
              <LongitudeDegrees>-1.5694200061261653900146484375</LongitudeDegrees>
            </Position>
            <AltitudeMeters>38.799999237060546875</AltitudeMeters>
            <DistanceMeters>NAN</DistanceMeters>
          </Trackpoint>
          <Trackpoint>
            <Time>2022-07-07T18:01:20.000Z</Time>
            <Position>
              <LatitudeDegrees>43.45528657548129558563232421875</LatitudeDegrees>
              <LongitudeDegrees>-1.569302491843700408935546875</LongitudeDegrees>
            </Position>
            <AltitudeMeters>38.59999847412109375</AltitudeMeters>
            <DistanceMeters>NAN</DistanceMeters>
          </Trackpoint>
          <Trackpoint>
            <Time>2022-07-07T18:01:22.000Z</Time>
            <Position>
              <LatitudeDegrees>43.45517962239682674407958984375</LatitudeDegrees>
              <LongitudeDegrees>-1.56922630034387111663818359375</LongitudeDegrees>
            </Position>
            <AltitudeMeters>38.200000762939453125</AltitudeMeters>
            <DistanceMeters>NAN</DistanceMeters>
          </Trackpoint>
          <Trackpoint>
            <Time>2022-07-07T18:01:24.000Z</Time>
            <Position>
              <LatitudeDegrees>43.455062024295330047607421875</LatitudeDegrees>
              <LongitudeDegrees>-1.56917952932417392730712890625</LongitudeDegrees>
            </Position>
            <AltitudeMeters>38</AltitudeMeters>
            <DistanceMeters>NAN</DistanceMeters>
          </Trackpoint>
          <Trackpoint>
            <Time>2022-07-07T18:01:28.000Z</Time>
            <Position>
              <LatitudeDegrees>43.45485004596412181854248046875</LatitudeDegrees>
              <LongitudeDegrees>-1.569102667272090911865234375</LongitudeDegrees>
            </Position>
            <AltitudeMeters>37.59999847412109375</AltitudeMeters>
            <DistanceMeters>NAN</DistanceMeters>
          </Trackpoint>
          <Trackpoint>
            <Time>2022-07-07T18:01:32.000Z</Time>
            <Position>
              <LatitudeDegrees>43.4547329507768154144287109375</LatitudeDegrees>
              <LongitudeDegrees>-1.56903686933219432830810546875</LongitudeDegrees>
            </Position>
            <AltitudeMeters>38</AltitudeMeters>
            <DistanceMeters>NAN</DistanceMeters>
          </Trackpoint>
          <Trackpoint>
            <Time>2022-07-07T18:01:36.000Z</Time>
            <Position>
              <LatitudeDegrees>43.454640917479991912841796875</LatitudeDegrees>
              <LongitudeDegrees>-1.5689522959291934967041015625</LongitudeDegrees>
            </Position>
            <AltitudeMeters>38.40000152587890625</AltitudeMeters>
            <DistanceMeters>NAN</DistanceMeters>
          </Trackpoint>
          <Trackpoint>
            <Time>2022-07-07T18:01:39.000Z</Time>
            <Position>
              <LatitudeDegrees>43.45458568073809146881103515625</LatitudeDegrees>
              <LongitudeDegrees>-1.5688885934650897979736328125</LongitudeDegrees>
            </Position>
            <AltitudeMeters>39</AltitudeMeters>
            <DistanceMeters>NAN</DistanceMeters>
          </Trackpoint>
          <Trackpoint>
            <Time>2022-07-07T18:01:41.000Z</Time>
            <Position>
              <LatitudeDegrees>43.45453958027064800262451171875</LatitudeDegrees>
              <LongitudeDegrees>-1.56885087490081787109375</LongitudeDegrees>
            </Position>
            <AltitudeMeters>39.40000152587890625</AltitudeMeters>
            <DistanceMeters>NAN</DistanceMeters>
          </Trackpoint>
          <Trackpoint>
            <Time>2022-07-07T18:01:45.000Z</Time>
            <Position>
              <LatitudeDegrees>43.45447235740721225738525390625</LatitudeDegrees>
              <LongitudeDegrees>-1.5687675587832927703857421875</LongitudeDegrees>
            </Position>
            <AltitudeMeters>40</AltitudeMeters>
            <DistanceMeters>NAN</DistanceMeters>
          </Trackpoint>
          <Trackpoint>
            <Time>2022-07-07T18:01:46.000Z</Time>
            <Position>
              <LatitudeDegrees>43.45445215702056884765625</LatitudeDegrees>
              <LongitudeDegrees>-1.56876227818429470062255859375</LongitudeDegrees>
            </Position>
            <AltitudeMeters>40.200000762939453125</AltitudeMeters>
            <DistanceMeters>NAN</DistanceMeters>
          </Trackpoint>
          <Trackpoint>
            <Time>2022-07-07T18:01:48.000Z</Time>
            <Position>
              <LatitudeDegrees>43.4544154442846775054931640625</LatitudeDegrees>
              <LongitudeDegrees>-1.56874869950115680694580078125</LongitudeDegrees>
            </Position>
            <AltitudeMeters>40.59999847412109375</AltitudeMeters>
            <DistanceMeters>NAN</DistanceMeters>
          </Trackpoint>
          <Trackpoint>
            <Time>2022-07-07T18:01:51.000Z</Time>
            <Position>
              <LatitudeDegrees>43.45438174903392791748046875</LatitudeDegrees>
              <LongitudeDegrees>-1.56874283216893672943115234375</LongitudeDegrees>
            </Position>
            <AltitudeMeters>41.200000762939453125</AltitudeMeters>
            <DistanceMeters>NAN</DistanceMeters>
          </Trackpoint>
          <Trackpoint>
            <Time>2022-07-07T18:01:52.000Z</Time>
            <Position>
              <LatitudeDegrees>43.45437730662524700164794921875</LatitudeDegrees>
              <LongitudeDegrees>-1.56874132342636585235595703125</LongitudeDegrees>
            </Position>
            <AltitudeMeters>41.40000152587890625</AltitudeMeters>
            <DistanceMeters>NAN</DistanceMeters>
          </Trackpoint>
          <Trackpoint>
            <Time>2022-07-07T18:01:53.000Z</Time>
            <Position>
              <LatitudeDegrees>43.45435702241957187652587890625</LatitudeDegrees>
              <LongitudeDegrees>-1.56874836422502994537353515625</LongitudeDegrees>
            </Position>
            <AltitudeMeters>41.59999847412109375</AltitudeMeters>
            <DistanceMeters>NAN</DistanceMeters>
          </Trackpoint>
          <Trackpoint>
            <Time>2022-07-07T18:01:57.000Z</Time>
            <Position>
              <LatitudeDegrees>43.45428259111940860748291015625</LatitudeDegrees>
              <LongitudeDegrees>-1.568726487457752227783203125</LongitudeDegrees>
            </Position>
            <AltitudeMeters>42.200000762939453125</AltitudeMeters>
            <DistanceMeters>NAN</DistanceMeters>
          </Trackpoint>
          <Trackpoint>
            <Time>2022-07-07T18:01:58.000Z</Time>
            <Position>
              <LatitudeDegrees>43.45427102409303188323974609375</LatitudeDegrees>
              <LongitudeDegrees>-1.56872036866843700408935546875</LongitudeDegrees>
            </Position>
            <AltitudeMeters>42.40000152587890625</AltitudeMeters>
            <DistanceMeters>NAN</DistanceMeters>
          </Trackpoint>
          <Trackpoint>
            <Time>2022-07-07T18:01:59.000Z</Time>
            <Position>
              <LatitudeDegrees>43.45427404157817363739013671875</LatitudeDegrees>
              <LongitudeDegrees>-1.56869689933955669403076171875</LongitudeDegrees>
            </Position>
            <AltitudeMeters>42.799999237060546875</AltitudeMeters>
            <DistanceMeters>NAN</DistanceMeters>
          </Trackpoint>
          <Trackpoint>
            <Time>2022-07-07T18:02:02.000Z</Time>
            <Position>
              <LatitudeDegrees>43.45430874265730381011962890625</LatitudeDegrees>
              <LongitudeDegrees>-1.5686036087572574615478515625</LongitudeDegrees>
            </Position>
            <AltitudeMeters>43.59999847412109375</AltitudeMeters>
            <DistanceMeters>NAN</DistanceMeters>
          </Trackpoint>
          <Trackpoint>
            <Time>2022-07-07T18:02:06.000Z</Time>
            <Position>
              <LatitudeDegrees>43.45434729941189289093017578125</LatitudeDegrees>
              <LongitudeDegrees>-1.56852808780968189239501953125</LongitudeDegrees>
            </Position>
            <AltitudeMeters>44.799999237060546875</AltitudeMeters>
            <DistanceMeters>NAN</DistanceMeters>
          </Trackpoint>
          <Trackpoint>
            <Time>2022-07-07T18:02:07.000Z</Time>
            <Position>
              <LatitudeDegrees>43.4543527476489543914794921875</LatitudeDegrees>
              <LongitudeDegrees>-1.5685021877288818359375</LongitudeDegrees>
            </Position>
            <AltitudeMeters>45</AltitudeMeters>
            <DistanceMeters>NAN</DistanceMeters>
          </Trackpoint>
          <Trackpoint>
            <Time>2022-07-07T18:02:10.000Z</Time>
            <Position>
              <LatitudeDegrees>43.45437127165496349334716796875</LatitudeDegrees>
              <LongitudeDegrees>-1.5684269182384014129638671875</LongitudeDegrees>
            </Position>
            <AltitudeMeters>45.59999847412109375</AltitudeMeters>
            <DistanceMeters>NAN</DistanceMeters>
          </Trackpoint>
          <Trackpoint>
            <Time>2022-07-07T18:02:12.000Z</Time>
            <Position>
              <LatitudeDegrees>43.45438040792942047119140625</LatitudeDegrees>
              <LongitudeDegrees>-1.5684074722230434417724609375</LongitudeDegrees>
            </Position>
            <AltitudeMeters>45.799999237060546875</AltitudeMeters>
            <DistanceMeters>NAN</DistanceMeters>
          </Trackpoint>
          <Trackpoint>
            <Time>2022-07-07T18:02:13.000Z</Time>
            <Position>
              <LatitudeDegrees>43.4543899632990360260009765625</LatitudeDegrees>
              <LongitudeDegrees>-1.5683692507445812225341796875</LongitudeDegrees>
            </Position>
            <AltitudeMeters>46.200000762939453125</AltitudeMeters>
            <DistanceMeters>NAN</DistanceMeters>
          </Trackpoint>
          <Trackpoint>
            <Time>2022-07-07T18:02:16.000Z</Time>
            <Position>
              <LatitudeDegrees>43.4544285200536251068115234375</LatitudeDegrees>
              <LongitudeDegrees>-1.56829993240535259246826171875</LongitudeDegrees>
            </Position>
            <AltitudeMeters>46.59999847412109375</AltitudeMeters>
            <DistanceMeters>NAN</DistanceMeters>
          </Trackpoint>
          <Trackpoint>
            <Time>2022-07-07T18:02:19.000Z</Time>
            <Position>
              <LatitudeDegrees>43.45445819199085235595703125</LatitudeDegrees>
              <LongitudeDegrees>-1.56822147779166698455810546875</LongitudeDegrees>
            </Position>
            <AltitudeMeters>47</AltitudeMeters>
            <DistanceMeters>NAN</DistanceMeters>
          </Trackpoint>
          <Trackpoint>
            <Time>2022-07-07T18:02:20.000Z</Time>
            <Position>
              <LatitudeDegrees>43.454470932483673095703125</LatitudeDegrees>
              <LongitudeDegrees>-1.56818560324609279632568359375</LongitudeDegrees>
            </Position>
            <AltitudeMeters>47</AltitudeMeters>
            <DistanceMeters>NAN</DistanceMeters>
          </Trackpoint>
          <Trackpoint>
            <Time>2022-07-07T18:02:21.000Z</Time>
            <Position>
              <LatitudeDegrees>43.45448040403425693511962890625</LatitudeDegrees>
              <LongitudeDegrees>-1.56815593130886554718017578125</LongitudeDegrees>
            </Position>
            <AltitudeMeters>47</AltitudeMeters>
            <DistanceMeters>NAN</DistanceMeters>
          </Trackpoint>
          <Trackpoint>
            <Time>2022-07-07T18:02:24.000Z</Time>
            <Position>
              <LatitudeDegrees>43.45443011261522769927978515625</LatitudeDegrees>
              <LongitudeDegrees>-1.5680044703185558319091796875</LongitudeDegrees>
            </Position>
            <AltitudeMeters>47.40000152587890625</AltitudeMeters>
            <DistanceMeters>NAN</DistanceMeters>
          </Trackpoint>
          <Trackpoint>
            <Time>2022-07-07T18:02:26.000Z</Time>
            <Position>
              <LatitudeDegrees>43.4544067271053791046142578125</LatitudeDegrees>
              <LongitudeDegrees>-1.5679644048213958740234375</LongitudeDegrees>
            </Position>
            <AltitudeMeters>47.59999847412109375</AltitudeMeters>
            <DistanceMeters>NAN</DistanceMeters>
          </Trackpoint>
          <Trackpoint>
            <Time>2022-07-07T18:02:27.000Z</Time>
            <Position>
              <LatitudeDegrees>43.45439943484961986541748046875</LatitudeDegrees>
              <LongitudeDegrees>-1.56792886555194854736328125</LongitudeDegrees>
            </Position>
            <AltitudeMeters>47.799999237060546875</AltitudeMeters>
            <DistanceMeters>NAN</DistanceMeters>
          </Trackpoint>
          <Trackpoint>
            <Time>2022-07-07T18:02:28.000Z</Time>
            <Position>
              <LatitudeDegrees>43.4544100798666477203369140625</LatitudeDegrees>
              <LongitudeDegrees>-1.567882932722568511962890625</LongitudeDegrees>
            </Position>
            <AltitudeMeters>47.799999237060546875</AltitudeMeters>
            <DistanceMeters>NAN</DistanceMeters>
          </Trackpoint>
          <Trackpoint>
            <Time>2022-07-07T18:02:30.000Z</Time>
            <Position>
              <LatitudeDegrees>43.454412929713726043701171875</LatitudeDegrees>
              <LongitudeDegrees>-1.56781495548784732818603515625</LongitudeDegrees>
            </Position>
            <AltitudeMeters>48</AltitudeMeters>
            <DistanceMeters>NAN</DistanceMeters>
          </Trackpoint>
          <Trackpoint>
            <Time>2022-07-07T18:02:31.000Z</Time>
            <Position>
              <LatitudeDegrees>43.45440999604761600494384765625</LatitudeDegrees>
              <LongitudeDegrees>-1.5677972696721553802490234375</LongitudeDegrees>
            </Position>
            <AltitudeMeters>48</AltitudeMeters>
            <DistanceMeters>NAN</DistanceMeters>
          </Trackpoint>
          <Trackpoint>
            <Time>2022-07-07T18:02:32.000Z</Time>
            <Position>
              <LatitudeDegrees>43.454399518668651580810546875</LatitudeDegrees>
              <LongitudeDegrees>-1.56776248477399349212646484375</LongitudeDegrees>
            </Position>
            <AltitudeMeters>48</AltitudeMeters>
            <DistanceMeters>NAN</DistanceMeters>
          </Trackpoint>
          <Trackpoint>
            <Time>2022-07-07T18:02:34.000Z</Time>
            <Position>
              <LatitudeDegrees>43.45435333438217639923095703125</LatitudeDegrees>
              <LongitudeDegrees>-1.56765393912792205810546875</LongitudeDegrees>
            </Position>
            <AltitudeMeters>48.200000762939453125</AltitudeMeters>
            <DistanceMeters>NAN</DistanceMeters>
          </Trackpoint>
          <Trackpoint>
            <Time>2022-07-07T18:02:37.000Z</Time>
            <Position>
              <LatitudeDegrees>43.4543473832309246063232421875</LatitudeDegrees>
              <LongitudeDegrees>-1.567575819790363311767578125</LongitudeDegrees>
            </Position>
            <AltitudeMeters>48.40000152587890625</AltitudeMeters>
            <DistanceMeters>NAN</DistanceMeters>
          </Trackpoint>
          <Trackpoint>
            <Time>2022-07-07T18:02:42.000Z</Time>
            <Position>
              <LatitudeDegrees>43.45429684035480022430419921875</LatitudeDegrees>
              <LongitudeDegrees>-1.567447744309902191162109375</LongitudeDegrees>
            </Position>
            <AltitudeMeters>48.59999847412109375</AltitudeMeters>
            <DistanceMeters>NAN</DistanceMeters>
          </Trackpoint>
          <Trackpoint>
            <Time>2022-07-07T18:02:43.000Z</Time>
            <Position>
              <LatitudeDegrees>43.45429281704127788543701171875</LatitudeDegrees>
              <LongitudeDegrees>-1.56741145066916942596435546875</LongitudeDegrees>
            </Position>
            <AltitudeMeters>48.799999237060546875</AltitudeMeters>
            <DistanceMeters>NAN</DistanceMeters>
          </Trackpoint>
          <Trackpoint>
            <Time>2022-07-07T18:02:44.000Z</Time>
            <Position>
              <LatitudeDegrees>43.45429868437349796295166015625</LatitudeDegrees>
              <LongitudeDegrees>-1.5673842094838619232177734375</LongitudeDegrees>
            </Position>
            <AltitudeMeters>48.799999237060546875</AltitudeMeters>
            <DistanceMeters>NAN</DistanceMeters>
          </Trackpoint>
          <Trackpoint>
            <Time>2022-07-07T18:02:48.000Z</Time>
            <Position>
              <LatitudeDegrees>43.4543208964169025421142578125</LatitudeDegrees>
              <LongitudeDegrees>-1.5673577226698398590087890625</LongitudeDegrees>
            </Position>
            <AltitudeMeters>48.40000152587890625</AltitudeMeters>
            <DistanceMeters>NAN</DistanceMeters>
          </Trackpoint>
          <Trackpoint>
            <Time>2022-07-07T18:02:51.000Z</Time>
            <Position>
              <LatitudeDegrees>43.4543222375214099884033203125</LatitudeDegrees>
              <LongitudeDegrees>-1.56735747121274471282958984375</LongitudeDegrees>
            </Position>
            <AltitudeMeters>48.40000152587890625</AltitudeMeters>
            <DistanceMeters>NAN</DistanceMeters>
          </Trackpoint>
          <Trackpoint>
            <Time>2022-07-07T18:03:20.000Z</Time>
            <Position>
              <LatitudeDegrees>43.454311005771160125732421875</LatitudeDegrees>
              <LongitudeDegrees>-1.56728111207485198974609375</LongitudeDegrees>
            </Position>
            <AltitudeMeters>47.799999237060546875</AltitudeMeters>
            <DistanceMeters>NAN</DistanceMeters>
          </Trackpoint>
          <Trackpoint>
            <Time>2022-07-07T18:03:21.000Z</Time>
            <Position>
              <LatitudeDegrees>43.4543148614466190338134765625</LatitudeDegrees>
              <LongitudeDegrees>-1.56724398024380207061767578125</LongitudeDegrees>
            </Position>
            <AltitudeMeters>47.40000152587890625</AltitudeMeters>
            <DistanceMeters>NAN</DistanceMeters>
          </Trackpoint>
          <Trackpoint>
            <Time>2022-07-07T18:03:23.000Z</Time>
            <Position>
              <LatitudeDegrees>43.4543145261704921722412109375</LatitudeDegrees>
              <LongitudeDegrees>-1.567133925855159759521484375</LongitudeDegrees>
            </Position>
            <AltitudeMeters>46.799999237060546875</AltitudeMeters>
            <DistanceMeters>NAN</DistanceMeters>
          </Trackpoint>
          <Trackpoint>
            <Time>2022-07-07T18:03:25.000Z</Time>
            <Position>
              <LatitudeDegrees>43.4542987681925296783447265625</LatitudeDegrees>
              <LongitudeDegrees>-1.5670140646398067474365234375</LongitudeDegrees>
            </Position>
            <AltitudeMeters>45.799999237060546875</AltitudeMeters>
            <DistanceMeters>NAN</DistanceMeters>
          </Trackpoint>
          <Trackpoint>
            <Time>2022-07-07T18:03:26.000Z</Time>
            <Position>
              <LatitudeDegrees>43.45428778789937496185302734375</LatitudeDegrees>
              <LongitudeDegrees>-1.5669493563473224639892578125</LongitudeDegrees>
            </Position>
            <AltitudeMeters>45.40000152587890625</AltitudeMeters>
            <DistanceMeters>NAN</DistanceMeters>
          </Trackpoint>
          <Trackpoint>
            <Time>2022-07-07T18:03:27.000Z</Time>
            <Position>
              <LatitudeDegrees>43.454286195337772369384765625</LatitudeDegrees>
              <LongitudeDegrees>-1.56687400303781032562255859375</LongitudeDegrees>
            </Position>
            <AltitudeMeters>44.799999237060546875</AltitudeMeters>
            <DistanceMeters>NAN</DistanceMeters>
          </Trackpoint>
          <Trackpoint>
            <Time>2022-07-07T18:03:29.000Z</Time>
            <Position>
              <LatitudeDegrees>43.45429734326899051666259765625</LatitudeDegrees>
              <LongitudeDegrees>-1.56672497279942035675048828125</LongitudeDegrees>
            </Position>
            <AltitudeMeters>43.799999237060546875</AltitudeMeters>
            <DistanceMeters>NAN</DistanceMeters>
          </Trackpoint>
          <Trackpoint>
            <Time>2022-07-07T18:03:30.000Z</Time>
            <Position>
              <LatitudeDegrees>43.454293571412563323974609375</LatitudeDegrees>
              <LongitudeDegrees>-1.56663696281611919403076171875</LongitudeDegrees>
            </Position>
            <AltitudeMeters>43.59999847412109375</AltitudeMeters>
            <DistanceMeters>NAN</DistanceMeters>
          </Trackpoint>
          <Trackpoint>
            <Time>2022-07-07T18:03:33.000Z</Time>
            <Position>
              <LatitudeDegrees>43.45426063053309917449951171875</LatitudeDegrees>
              <LongitudeDegrees>-1.56640813685953617095947265625</LongitudeDegrees>
            </Position>
            <AltitudeMeters>43</AltitudeMeters>
            <DistanceMeters>NAN</DistanceMeters>
          </Trackpoint>
          <Trackpoint>
            <Time>2022-07-07T18:03:34.000Z</Time>
            <Position>
              <LatitudeDegrees>43.4542531706392765045166015625</LatitudeDegrees>
              <LongitudeDegrees>-1.5663341246545314788818359375</LongitudeDegrees>
            </Position>
            <AltitudeMeters>42.59999847412109375</AltitudeMeters>
            <DistanceMeters>NAN</DistanceMeters>
          </Trackpoint>
          <Trackpoint>
            <Time>2022-07-07T18:03:37.000Z</Time>
            <Position>
              <LatitudeDegrees>43.4542407654225826263427734375</LatitudeDegrees>
              <LongitudeDegrees>-1.5661520697176456451416015625</LongitudeDegrees>
            </Position>
            <AltitudeMeters>42.200000762939453125</AltitudeMeters>
            <DistanceMeters>NAN</DistanceMeters>
          </Trackpoint>
          <Trackpoint>
            <Time>2022-07-07T18:03:38.000Z</Time>
            <Position>
              <LatitudeDegrees>43.45423196442425251007080078125</LatitudeDegrees>
              <LongitudeDegrees>-1.56609063036739826202392578125</LongitudeDegrees>
            </Position>
            <AltitudeMeters>42</AltitudeMeters>
            <DistanceMeters>NAN</DistanceMeters>
          </Trackpoint>
          <Trackpoint>
            <Time>2022-07-07T18:03:40.000Z</Time>
            <Position>
              <LatitudeDegrees>43.4541998617351055145263671875</LatitudeDegrees>
              <LongitudeDegrees>-1.56594160012900829315185546875</LongitudeDegrees>
            </Position>
            <AltitudeMeters>41.799999237060546875</AltitudeMeters>
            <DistanceMeters>NAN</DistanceMeters>
          </Trackpoint>
          <Trackpoint>
            <Time>2022-07-07T18:03:41.000Z</Time>
            <Position>
              <LatitudeDegrees>43.45419072546064853668212890625</LatitudeDegrees>
              <LongitudeDegrees>-1.56585643999278545379638671875</LongitudeDegrees>
            </Position>
            <AltitudeMeters>41.59999847412109375</AltitudeMeters>
            <DistanceMeters>NAN</DistanceMeters>
          </Trackpoint>
          <Trackpoint>
            <Time>2022-07-07T18:03:43.000Z</Time>
            <Position>
              <LatitudeDegrees>43.4541435353457927703857421875</LatitudeDegrees>
              <LongitudeDegrees>-1.56571310944855213165283203125</LongitudeDegrees>
            </Position>
            <AltitudeMeters>41.40000152587890625</AltitudeMeters>
            <DistanceMeters>NAN</DistanceMeters>
          </Trackpoint>
          <Trackpoint>
            <Time>2022-07-07T18:03:45.000Z</Time>
            <Position>
              <LatitudeDegrees>43.4541307948529720306396484375</LatitudeDegrees>
              <LongitudeDegrees>-1.56561034731566905975341796875</LongitudeDegrees>
            </Position>
            <AltitudeMeters>40.799999237060546875</AltitudeMeters>
            <DistanceMeters>NAN</DistanceMeters>
          </Trackpoint>
          <Trackpoint>
            <Time>2022-07-07T18:03:46.000Z</Time>
            <Position>
              <LatitudeDegrees>43.45412551425397396087646484375</LatitudeDegrees>
              <LongitudeDegrees>-1.56555770896375179290771484375</LongitudeDegrees>
            </Position>
            <AltitudeMeters>40.40000152587890625</AltitudeMeters>
            <DistanceMeters>NAN</DistanceMeters>
          </Trackpoint>
          <Trackpoint>
            <Time>2022-07-07T18:03:50.000Z</Time>
            <Position>
              <LatitudeDegrees>43.4541170485317707061767578125</LatitudeDegrees>
              <LongitudeDegrees>-1.56536073423922061920166015625</LongitudeDegrees>
            </Position>
            <AltitudeMeters>39.200000762939453125</AltitudeMeters>
            <DistanceMeters>NAN</DistanceMeters>
          </Trackpoint>
          <Trackpoint>
            <Time>2022-07-07T18:03:51.000Z</Time>
            <Position>
              <LatitudeDegrees>43.45410145819187164306640625</LatitudeDegrees>
              <LongitudeDegrees>-1.56531932763755321502685546875</LongitudeDegrees>
            </Position>
            <AltitudeMeters>39</AltitudeMeters>
            <DistanceMeters>NAN</DistanceMeters>
          </Trackpoint>
          <Trackpoint>
            <Time>2022-07-07T18:03:55.000Z</Time>
            <Position>
              <LatitudeDegrees>43.4541049785912036895751953125</LatitudeDegrees>
              <LongitudeDegrees>-1.5651454031467437744140625</LongitudeDegrees>
            </Position>
            <AltitudeMeters>38.59999847412109375</AltitudeMeters>
            <DistanceMeters>NAN</DistanceMeters>
          </Trackpoint>
          <Trackpoint>
            <Time>2022-07-07T18:03:58.000Z</Time>
            <Position>
              <LatitudeDegrees>43.45408159308135509490966796875</LatitudeDegrees>
              <LongitudeDegrees>-1.56502478756010532379150390625</LongitudeDegrees>
            </Position>
            <AltitudeMeters>38.200000762939453125</AltitudeMeters>
            <DistanceMeters>NAN</DistanceMeters>
          </Trackpoint>
          <Trackpoint>
            <Time>2022-07-07T18:04:00.000Z</Time>
            <Position>
              <LatitudeDegrees>43.454057537019252777099609375</LatitudeDegrees>
              <LongitudeDegrees>-1.564916409552097320556640625</LongitudeDegrees>
            </Position>
            <AltitudeMeters>37.799999237060546875</AltitudeMeters>
            <DistanceMeters>NAN</DistanceMeters>
          </Trackpoint>
          <Trackpoint>
            <Time>2022-07-07T18:04:04.000Z</Time>
            <Position>
              <LatitudeDegrees>43.45397899858653545379638671875</LatitudeDegrees>
              <LongitudeDegrees>-1.5646929480135440826416015625</LongitudeDegrees>
            </Position>
            <AltitudeMeters>37.40000152587890625</AltitudeMeters>
            <DistanceMeters>NAN</DistanceMeters>
          </Trackpoint>
          <Trackpoint>
            <Time>2022-07-07T18:04:06.000Z</Time>
            <Position>
              <LatitudeDegrees>43.45393323339521884918212890625</LatitudeDegrees>
              <LongitudeDegrees>-1.5645678900182247161865234375</LongitudeDegrees>
            </Position>
            <AltitudeMeters>37.200000762939453125</AltitudeMeters>
            <DistanceMeters>NAN</DistanceMeters>
          </Trackpoint>
          <Trackpoint>
            <Time>2022-07-07T18:04:07.000Z</Time>
            <Position>
              <LatitudeDegrees>43.45390171743929386138916015625</LatitudeDegrees>
              <LongitudeDegrees>-1.56450091861188411712646484375</LongitudeDegrees>
            </Position>
            <AltitudeMeters>37</AltitudeMeters>
            <DistanceMeters>NAN</DistanceMeters>
          </Trackpoint>
          <Trackpoint>
            <Time>2022-07-07T18:04:08.000Z</Time>
            <Position>
              <LatitudeDegrees>43.4538763202726840972900390625</LatitudeDegrees>
              <LongitudeDegrees>-1.56444710679352283477783203125</LongitudeDegrees>
            </Position>
            <AltitudeMeters>37</AltitudeMeters>
            <DistanceMeters>NAN</DistanceMeters>
          </Trackpoint>
          <Trackpoint>
            <Time>2022-07-07T18:04:09.000Z</Time>
            <Position>
              <LatitudeDegrees>43.45386081375181674957275390625</LatitudeDegrees>
              <LongitudeDegrees>-1.5643985755741596221923828125</LongitudeDegrees>
            </Position>
            <AltitudeMeters>36.799999237060546875</AltitudeMeters>
            <DistanceMeters>NAN</DistanceMeters>
          </Trackpoint>
          <Trackpoint>
            <Time>2022-07-07T18:04:12.000Z</Time>
            <Position>
              <LatitudeDegrees>43.4538153000175952911376953125</LatitudeDegrees>
              <LongitudeDegrees>-1.56422783620655536651611328125</LongitudeDegrees>
            </Position>
            <AltitudeMeters>36.40000152587890625</AltitudeMeters>
            <DistanceMeters>NAN</DistanceMeters>
          </Trackpoint>
          <Trackpoint>
            <Time>2022-07-07T18:04:13.000Z</Time>
            <Position>
              <LatitudeDegrees>43.45378671772778034210205078125</LatitudeDegrees>
              <LongitudeDegrees>-1.56416715122759342193603515625</LongitudeDegrees>
            </Position>
            <AltitudeMeters>36.40000152587890625</AltitudeMeters>
            <DistanceMeters>NAN</DistanceMeters>
          </Trackpoint>
          <Trackpoint>
            <Time>2022-07-07T18:04:17.000Z</Time>
            <Position>
              <LatitudeDegrees>43.45363500528037548065185546875</LatitudeDegrees>
              <LongitudeDegrees>-1.56392969191074371337890625</LongitudeDegrees>
            </Position>
            <AltitudeMeters>36.200000762939453125</AltitudeMeters>
            <DistanceMeters>NAN</DistanceMeters>
          </Trackpoint>
          <Trackpoint>
            <Time>2022-07-07T18:04:18.000Z</Time>
            <Position>
              <LatitudeDegrees>43.45360147766768932342529296875</LatitudeDegrees>
              <LongitudeDegrees>-1.56389440409839153289794921875</LongitudeDegrees>
            </Position>
            <AltitudeMeters>36.200000762939453125</AltitudeMeters>
            <DistanceMeters>NAN</DistanceMeters>
          </Trackpoint>
          <Trackpoint>
            <Time>2022-07-07T18:04:19.000Z</Time>
            <Position>
              <LatitudeDegrees>43.4535764157772064208984375</LatitudeDegrees>
              <LongitudeDegrees>-1.56385920010507106781005859375</LongitudeDegrees>
            </Position>
            <AltitudeMeters>36.200000762939453125</AltitudeMeters>
            <DistanceMeters>NAN</DistanceMeters>
          </Trackpoint>
          <Trackpoint>
            <Time>2022-07-07T18:04:22.000Z</Time>
            <Position>
              <LatitudeDegrees>43.4535276331007480621337890625</LatitudeDegrees>
              <LongitudeDegrees>-1.5637659095227718353271484375</LongitudeDegrees>
            </Position>
            <AltitudeMeters>36.200000762939453125</AltitudeMeters>
            <DistanceMeters>NAN</DistanceMeters>
          </Trackpoint>
          <Trackpoint>
            <Time>2022-07-07T18:04:25.000Z</Time>
            <Position>
              <LatitudeDegrees>43.453481197357177734375</LatitudeDegrees>
              <LongitudeDegrees>-1.56369390897452831268310546875</LongitudeDegrees>
            </Position>
            <AltitudeMeters>36.200000762939453125</AltitudeMeters>
            <DistanceMeters>NAN</DistanceMeters>
          </Trackpoint>
          <Trackpoint>
            <Time>2022-07-07T18:04:28.000Z</Time>
            <Position>
              <LatitudeDegrees>43.453418500721454620361328125</LatitudeDegrees>
              <LongitudeDegrees>-1.56363104470074176788330078125</LongitudeDegrees>
            </Position>
            <AltitudeMeters>36.59999847412109375</AltitudeMeters>
            <DistanceMeters>NAN</DistanceMeters>
          </Trackpoint>
          <Trackpoint>
            <Time>2022-07-07T18:04:29.000Z</Time>
            <Position>
              <LatitudeDegrees>43.453391678631305694580078125</LatitudeDegrees>
              <LongitudeDegrees>-1.5636066533625125885009765625</LongitudeDegrees>
            </Position>
            <AltitudeMeters>36.59999847412109375</AltitudeMeters>
            <DistanceMeters>NAN</DistanceMeters>
          </Trackpoint>
          <Trackpoint>
            <Time>2022-07-07T18:04:31.000Z</Time>
            <Position>
              <LatitudeDegrees>43.45335890538990497589111328125</LatitudeDegrees>
              <LongitudeDegrees>-1.56356063671410083770751953125</LongitudeDegrees>
            </Position>
            <AltitudeMeters>36.799999237060546875</AltitudeMeters>
            <DistanceMeters>NAN</DistanceMeters>
          </Trackpoint>
          <Trackpoint>
            <Time>2022-07-07T18:04:33.000Z</Time>
            <Position>
              <LatitudeDegrees>43.4533097036182880401611328125</LatitudeDegrees>
              <LongitudeDegrees>-1.56352291814982891082763671875</LongitudeDegrees>
            </Position>
            <AltitudeMeters>37</AltitudeMeters>
            <DistanceMeters>NAN</DistanceMeters>
          </Trackpoint>
          <Trackpoint>
            <Time>2022-07-07T18:04:34.000Z</Time>
            <Position>
              <LatitudeDegrees>43.45329268835484981536865234375</LatitudeDegrees>
              <LongitudeDegrees>-1.5634997002780437469482421875</LongitudeDegrees>
            </Position>
            <AltitudeMeters>37</AltitudeMeters>
            <DistanceMeters>NAN</DistanceMeters>
          </Trackpoint>
          <Trackpoint>
            <Time>2022-07-07T18:04:37.000Z</Time>
            <Position>
              <LatitudeDegrees>43.45325798727571964263916015625</LatitudeDegrees>
              <LongitudeDegrees>-1.56339836306869983673095703125</LongitudeDegrees>
            </Position>
            <AltitudeMeters>37</AltitudeMeters>
            <DistanceMeters>NAN</DistanceMeters>
          </Trackpoint>
          <Trackpoint>
            <Time>2022-07-07T18:04:42.000Z</Time>
            <Position>
              <LatitudeDegrees>43.45320501364767551422119140625</LatitudeDegrees>
              <LongitudeDegrees>-1.563194096088409423828125</LongitudeDegrees>
            </Position>
            <AltitudeMeters>37</AltitudeMeters>
            <DistanceMeters>NAN</DistanceMeters>
          </Trackpoint>
          <Trackpoint>
            <Time>2022-07-07T18:04:47.000Z</Time>
            <Position>
              <LatitudeDegrees>43.45320149324834346771240234375</LatitudeDegrees>
              <LongitudeDegrees>-1.56310197897255420684814453125</LongitudeDegrees>
            </Position>
            <AltitudeMeters>37</AltitudeMeters>
            <DistanceMeters>NAN</DistanceMeters>
          </Trackpoint>
          <Trackpoint>
            <Time>2022-07-07T18:04:48.000Z</Time>
            <Position>
              <LatitudeDegrees>43.4531923569738864898681640625</LatitudeDegrees>
              <LongitudeDegrees>-1.56310650520026683807373046875</LongitudeDegrees>
            </Position>
            <AltitudeMeters>37</AltitudeMeters>
            <DistanceMeters>NAN</DistanceMeters>
          </Trackpoint>
          <Trackpoint>
            <Time>2022-07-07T18:05:11.000Z</Time>
            <Position>
              <LatitudeDegrees>43.45316109247505664825439453125</LatitudeDegrees>
              <LongitudeDegrees>-1.56317758373916149139404296875</LongitudeDegrees>
            </Position>
            <AltitudeMeters>36.799999237060546875</AltitudeMeters>
            <DistanceMeters>NAN</DistanceMeters>
          </Trackpoint>
          <Trackpoint>
            <Time>2022-07-07T18:05:12.000Z</Time>
            <Position>
              <LatitudeDegrees>43.45315254293382167816162109375</LatitudeDegrees>
              <LongitudeDegrees>-1.563209183514118194580078125</LongitudeDegrees>
            </Position>
            <AltitudeMeters>37</AltitudeMeters>
            <DistanceMeters>NAN</DistanceMeters>
          </Trackpoint>
          <Trackpoint>
            <Time>2022-07-07T18:05:18.000Z</Time>
            <Position>
              <LatitudeDegrees>43.45317081548273563385009765625</LatitudeDegrees>
              <LongitudeDegrees>-1.5634219162166118621826171875</LongitudeDegrees>
            </Position>
            <AltitudeMeters>37</AltitudeMeters>
            <DistanceMeters>NAN</DistanceMeters>
          </Trackpoint>
          <Trackpoint>
            <Time>2022-07-07T18:05:24.000Z</Time>
            <Position>
              <LatitudeDegrees>43.4532999806106090545654296875</LatitudeDegrees>
              <LongitudeDegrees>-1.563539095222949981689453125</LongitudeDegrees>
            </Position>
            <AltitudeMeters>36.799999237060546875</AltitudeMeters>
            <DistanceMeters>NAN</DistanceMeters>
          </Trackpoint>
          <Trackpoint>
            <Time>2022-07-07T18:05:31.000Z</Time>
            <Position>
              <LatitudeDegrees>43.4534736536443233489990234375</LatitudeDegrees>
              <LongitudeDegrees>-1.5637340582907199859619140625</LongitudeDegrees>
            </Position>
            <AltitudeMeters>36.40000152587890625</AltitudeMeters>
            <DistanceMeters>NAN</DistanceMeters>
          </Trackpoint>
          <Trackpoint>
            <Time>2022-07-07T18:05:37.000Z</Time>
            <Position>
              <LatitudeDegrees>43.4536553733050823211669921875</LatitudeDegrees>
              <LongitudeDegrees>-1.56393195502460002899169921875</LongitudeDegrees>
            </Position>
            <AltitudeMeters>36</AltitudeMeters>
            <DistanceMeters>NAN</DistanceMeters>
          </Trackpoint>
          <Trackpoint>
            <Time>2022-07-07T18:05:38.000Z</Time>
            <Position>
              <LatitudeDegrees>43.45368009991943836212158203125</LatitudeDegrees>
              <LongitudeDegrees>-1.56397285871207714080810546875</LongitudeDegrees>
            </Position>
            <AltitudeMeters>36</AltitudeMeters>
            <DistanceMeters>NAN</DistanceMeters>
          </Trackpoint>
          <Trackpoint>
            <Time>2022-07-07T18:05:42.000Z</Time>
            <Position>
              <LatitudeDegrees>43.45376727171242237091064453125</LatitudeDegrees>
              <LongitudeDegrees>-1.5641685761511325836181640625</LongitudeDegrees>
            </Position>
            <AltitudeMeters>36.200000762939453125</AltitudeMeters>
            <DistanceMeters>NAN</DistanceMeters>
          </Trackpoint>
          <Trackpoint>
            <Time>2022-07-07T18:05:46.000Z</Time>
            <Position>
              <LatitudeDegrees>43.45381806604564189910888671875</LatitudeDegrees>
              <LongitudeDegrees>-1.56434132717549800872802734375</LongitudeDegrees>
            </Position>
            <AltitudeMeters>36.59999847412109375</AltitudeMeters>
            <DistanceMeters>NAN</DistanceMeters>
          </Trackpoint>
          <Trackpoint>
            <Time>2022-07-07T18:05:52.000Z</Time>
            <Position>
              <LatitudeDegrees>43.4539095126092433929443359375</LatitudeDegrees>
              <LongitudeDegrees>-1.5646398067474365234375</LongitudeDegrees>
            </Position>
            <AltitudeMeters>37</AltitudeMeters>
            <DistanceMeters>NAN</DistanceMeters>
          </Trackpoint>
          <Trackpoint>
            <Time>2022-07-07T18:05:53.000Z</Time>
            <Position>
              <LatitudeDegrees>43.45391898415982723236083984375</LatitudeDegrees>
              <LongitudeDegrees>-1.56468263827264308929443359375</LongitudeDegrees>
            </Position>
            <AltitudeMeters>37</AltitudeMeters>
            <DistanceMeters>NAN</DistanceMeters>
          </Trackpoint>
          <Trackpoint>
            <Time>2022-07-07T18:05:55.000Z</Time>
            <Position>
              <LatitudeDegrees>43.45393977127969264984130859375</LatitudeDegrees>
              <LongitudeDegrees>-1.56475539319217205047607421875</LongitudeDegrees>
            </Position>
            <AltitudeMeters>37.200000762939453125</AltitudeMeters>
            <DistanceMeters>NAN</DistanceMeters>
          </Trackpoint>
          <Trackpoint>
            <Time>2022-07-07T18:05:57.000Z</Time>
            <Position>
              <LatitudeDegrees>43.4539705328643321990966796875</LatitudeDegrees>
              <LongitudeDegrees>-1.56482714228332042694091796875</LongitudeDegrees>
            </Position>
            <AltitudeMeters>37.40000152587890625</AltitudeMeters>
            <DistanceMeters>NAN</DistanceMeters>
          </Trackpoint>
          <Trackpoint>
            <Time>2022-07-07T18:06:03.000Z</Time>
            <Position>
              <LatitudeDegrees>43.4540248475968837738037109375</LatitudeDegrees>
              <LongitudeDegrees>-1.56500701792538166046142578125</LongitudeDegrees>
            </Position>
            <AltitudeMeters>37.799999237060546875</AltitudeMeters>
            <DistanceMeters>NAN</DistanceMeters>
          </Trackpoint>
          <Trackpoint>
            <Time>2022-07-07T18:06:04.000Z</Time>
            <Position>
              <LatitudeDegrees>43.45403649844229221343994140625</LatitudeDegrees>
              <LongitudeDegrees>-1.5650443173944950103759765625</LongitudeDegrees>
            </Position>
            <AltitudeMeters>37.799999237060546875</AltitudeMeters>
            <DistanceMeters>NAN</DistanceMeters>
          </Trackpoint>
          <Trackpoint>
            <Time>2022-07-07T18:06:06.000Z</Time>
            <Position>
              <LatitudeDegrees>43.45406365580856800079345703125</LatitudeDegrees>
              <LongitudeDegrees>-1.5651284717023372650146484375</LongitudeDegrees>
            </Position>
            <AltitudeMeters>38</AltitudeMeters>
            <DistanceMeters>NAN</DistanceMeters>
          </Trackpoint>
          <Trackpoint>
            <Time>2022-07-07T18:06:07.000Z</Time>
            <Position>
              <LatitudeDegrees>43.45407153479754924774169921875</LatitudeDegrees>
              <LongitudeDegrees>-1.56516459770500659942626953125</LongitudeDegrees>
            </Position>
            <AltitudeMeters>38.200000762939453125</AltitudeMeters>
            <DistanceMeters>NAN</DistanceMeters>
          </Trackpoint>
          <Trackpoint>
            <Time>2022-07-07T18:06:08.000Z</Time>
            <Position>
              <LatitudeDegrees>43.4540815092623233795166015625</LatitudeDegrees>
              <LongitudeDegrees>-1.56519301235675811767578125</LongitudeDegrees>
            </Position>
            <AltitudeMeters>38.40000152587890625</AltitudeMeters>
            <DistanceMeters>NAN</DistanceMeters>
          </Trackpoint>
          <Trackpoint>
            <Time>2022-07-07T18:06:11.000Z</Time>
            <Position>
              <LatitudeDegrees>43.45411486923694610595703125</LatitudeDegrees>
              <LongitudeDegrees>-1.56526953913271427154541015625</LongitudeDegrees>
            </Position>
            <AltitudeMeters>38.59999847412109375</AltitudeMeters>
            <DistanceMeters>NAN</DistanceMeters>
          </Trackpoint>
          <Trackpoint>
            <Time>2022-07-07T18:06:13.000Z</Time>
            <Position>
              <LatitudeDegrees>43.4541405178606510162353515625</LatitudeDegrees>
              <LongitudeDegrees>-1.56531698070466518402099609375</LongitudeDegrees>
            </Position>
            <AltitudeMeters>38.59999847412109375</AltitudeMeters>
            <DistanceMeters>NAN</DistanceMeters>
          </Trackpoint>
          <Trackpoint>
            <Time>2022-07-07T18:06:15.000Z</Time>
            <Position>
              <LatitudeDegrees>43.45415518619120121002197265625</LatitudeDegrees>
              <LongitudeDegrees>-1.5654047392308712005615234375</LongitudeDegrees>
            </Position>
            <AltitudeMeters>38.40000152587890625</AltitudeMeters>
            <DistanceMeters>NAN</DistanceMeters>
          </Trackpoint>
          <Trackpoint>
            <Time>2022-07-07T18:06:16.000Z</Time>
            <Position>
              <LatitudeDegrees>43.4541710279881954193115234375</LatitudeDegrees>
              <LongitudeDegrees>-1.5654557012021541595458984375</LongitudeDegrees>
            </Position>
            <AltitudeMeters>38.40000152587890625</AltitudeMeters>
            <DistanceMeters>NAN</DistanceMeters>
          </Trackpoint>
          <Trackpoint>
            <Time>2022-07-07T18:06:21.000Z</Time>
            <Position>
              <LatitudeDegrees>43.4542845189571380615234375</LatitudeDegrees>
              <LongitudeDegrees>-1.56564630568027496337890625</LongitudeDegrees>
            </Position>
            <AltitudeMeters>38</AltitudeMeters>
            <DistanceMeters>NAN</DistanceMeters>
          </Trackpoint>
          <Trackpoint>
            <Time>2022-07-07T18:06:28.000Z</Time>
            <Position>
              <LatitudeDegrees>43.45448367297649383544921875</LatitudeDegrees>
              <LongitudeDegrees>-1.56592802144587039947509765625</LongitudeDegrees>
            </Position>
            <AltitudeMeters>37</AltitudeMeters>
            <DistanceMeters>NAN</DistanceMeters>
          </Trackpoint>
          <Trackpoint>
            <Time>2022-07-07T18:06:29.000Z</Time>
            <Position>
              <LatitudeDegrees>43.45451912842690944671630859375</LatitudeDegrees>
              <LongitudeDegrees>-1.56595182605087757110595703125</LongitudeDegrees>
            </Position>
            <AltitudeMeters>36.799999237060546875</AltitudeMeters>
            <DistanceMeters>NAN</DistanceMeters>
          </Trackpoint>
          <Trackpoint>
            <Time>2022-07-07T18:06:33.000Z</Time>
            <Position>
              <LatitudeDegrees>43.4546246565878391265869140625</LatitudeDegrees>
              <LongitudeDegrees>-1.5660420991480350494384765625</LongitudeDegrees>
            </Position>
            <AltitudeMeters>36.200000762939453125</AltitudeMeters>
            <DistanceMeters>NAN</DistanceMeters>
          </Trackpoint>
          <Trackpoint>
            <Time>2022-07-07T18:06:34.000Z</Time>
            <Position>
              <LatitudeDegrees>43.454639576375484466552734375</LatitudeDegrees>
              <LongitudeDegrees>-1.56607772223651409149169921875</LongitudeDegrees>
            </Position>
            <AltitudeMeters>36</AltitudeMeters>
            <DistanceMeters>NAN</DistanceMeters>
          </Trackpoint>
          <Trackpoint>
            <Time>2022-07-07T18:06:35.000Z</Time>
            <Position>
              <LatitudeDegrees>43.45466430298984050750732421875</LatitudeDegrees>
              <LongitudeDegrees>-1.5661286003887653350830078125</LongitudeDegrees>
            </Position>
            <AltitudeMeters>36</AltitudeMeters>
            <DistanceMeters>NAN</DistanceMeters>
          </Trackpoint>
          <Trackpoint>
            <Time>2022-07-07T18:06:40.000Z</Time>
            <Position>
              <LatitudeDegrees>43.45481417141854763031005859375</LatitudeDegrees>
              <LongitudeDegrees>-1.566319204866886138916015625</LongitudeDegrees>
            </Position>
            <AltitudeMeters>35.59999847412109375</AltitudeMeters>
            <DistanceMeters>NAN</DistanceMeters>
          </Trackpoint>
          <Trackpoint>
            <Time>2022-07-07T18:06:45.000Z</Time>
            <Position>
              <LatitudeDegrees>43.45486328937113285064697265625</LatitudeDegrees>
              <LongitudeDegrees>-1.56634711660444736480712890625</LongitudeDegrees>
            </Position>
            <AltitudeMeters>35</AltitudeMeters>
            <DistanceMeters>NAN</DistanceMeters>
          </Trackpoint>
          <Trackpoint>
            <Time>2022-07-07T18:06:47.000Z</Time>
            <Position>
              <LatitudeDegrees>43.45485306344926357269287109375</LatitudeDegrees>
              <LongitudeDegrees>-1.56636287458240985870361328125</LongitudeDegrees>
            </Position>
            <AltitudeMeters>35</AltitudeMeters>
            <DistanceMeters>NAN</DistanceMeters>
          </Trackpoint>
          <Trackpoint>
            <Time>2022-07-07T18:06:50.000Z</Time>
            <Position>
              <LatitudeDegrees>43.45484166406095027923583984375</LatitudeDegrees>
              <LongitudeDegrees>-1.56638165004551410675048828125</LongitudeDegrees>
            </Position>
            <AltitudeMeters>34.799999237060546875</AltitudeMeters>
            <DistanceMeters>NAN</DistanceMeters>
          </Trackpoint>
          <Trackpoint>
            <Time>2022-07-07T18:06:55.000Z</Time>
            <Position>
              <LatitudeDegrees>43.45484116114675998687744140625</LatitudeDegrees>
              <LongitudeDegrees>-1.56637829728424549102783203125</LongitudeDegrees>
            </Position>
            <AltitudeMeters>34.40000152587890625</AltitudeMeters>
            <DistanceMeters>NAN</DistanceMeters>
          </Trackpoint>
          <Trackpoint>
            <Time>2022-07-07T18:06:58.000Z</Time>
            <Position>
              <LatitudeDegrees>43.45483965240418910980224609375</LatitudeDegrees>
              <LongitudeDegrees>-1.5663756988942623138427734375</LongitudeDegrees>
            </Position>
            <AltitudeMeters>34.59999847412109375</AltitudeMeters>
            <DistanceMeters>NAN</DistanceMeters>
          </Trackpoint>
          <Trackpoint>
            <Time>2022-07-07T18:08:43.000Z</Time>
            <Position>
              <LatitudeDegrees>43.45478248782455921173095703125</LatitudeDegrees>
              <LongitudeDegrees>-1.5666020102798938751220703125</LongitudeDegrees>
            </Position>
            <AltitudeMeters>35</AltitudeMeters>
            <DistanceMeters>NAN</DistanceMeters>
          </Trackpoint>
          <Trackpoint>
            <Time>2022-07-07T18:08:46.000Z</Time>
            <Position>
              <LatitudeDegrees>43.454771339893341064453125</LatitudeDegrees>
              <LongitudeDegrees>-1.5666258148849010467529296875</LongitudeDegrees>
            </Position>
            <AltitudeMeters>35</AltitudeMeters>
            <DistanceMeters>NAN</DistanceMeters>
          </Trackpoint>
          <Trackpoint>
            <Time>2022-07-07T18:08:56.000Z</Time>
            <Position>
              <LatitudeDegrees>43.45477125607430934906005859375</LatitudeDegrees>
              <LongitudeDegrees>-1.56663612462580204010009765625</LongitudeDegrees>
            </Position>
            <AltitudeMeters>35.200000762939453125</AltitudeMeters>
            <DistanceMeters>NAN</DistanceMeters>
          </Trackpoint>
          <Trackpoint>
            <Time>2022-07-07T18:08:58.000Z</Time>
            <Position>
              <LatitudeDegrees>43.45477125607430934906005859375</LatitudeDegrees>
              <LongitudeDegrees>-1.56663612462580204010009765625</LongitudeDegrees>
            </Position>
            <AltitudeMeters>35.40000152587890625</AltitudeMeters>
            <DistanceMeters>NAN</DistanceMeters>
          </Trackpoint>
          <Trackpoint>
            <Time>2022-07-07T18:09:55.000Z</Time>
            <Position>
              <LatitudeDegrees>43.454768992960453033447265625</LatitudeDegrees>
              <LongitudeDegrees>-1.56666420400142669677734375</LongitudeDegrees>
            </Position>
            <AltitudeMeters>33.59999847412109375</AltitudeMeters>
            <DistanceMeters>NAN</DistanceMeters>
          </Trackpoint>
          <Trackpoint>
            <Time>2022-07-07T18:09:56.000Z</Time>
            <Position>
              <LatitudeDegrees>43.454768992960453033447265625</LatitudeDegrees>
              <LongitudeDegrees>-1.56666420400142669677734375</LongitudeDegrees>
            </Position>
            <AltitudeMeters>33.59999847412109375</AltitudeMeters>
            <DistanceMeters>NAN</DistanceMeters>
          </Trackpoint>
          <Trackpoint>
            <Time>2022-07-07T18:09:57.000Z</Time>
            <Position>
              <LatitudeDegrees>43.454768992960453033447265625</LatitudeDegrees>
              <LongitudeDegrees>-1.56666420400142669677734375</LongitudeDegrees>
            </Position>
            <AltitudeMeters>33.59999847412109375</AltitudeMeters>
            <DistanceMeters>NAN</DistanceMeters>
          </Trackpoint>
          <Trackpoint>
            <Time>2022-07-07T18:15:48.000Z</Time>
            <Position>
              <LatitudeDegrees>43.45493160188198089599609375</LatitudeDegrees>
              <LongitudeDegrees>-1.56644132919609546661376953125</LongitudeDegrees>
            </Position>
            <AltitudeMeters>31.6000003814697265625</AltitudeMeters>
            <DistanceMeters>NAN</DistanceMeters>
          </Trackpoint>
          <Trackpoint>
            <Time>2022-07-07T18:15:49.000Z</Time>
            <Position>
              <LatitudeDegrees>43.45491441898047924041748046875</LatitudeDegrees>
              <LongitudeDegrees>-1.56642942689359188079833984375</LongitudeDegrees>
            </Position>
            <AltitudeMeters>31.6000003814697265625</AltitudeMeters>
            <DistanceMeters>NAN</DistanceMeters>
          </Trackpoint>
          <Trackpoint>
            <Time>2022-07-07T18:15:50.000Z</Time>
            <Position>
              <LatitudeDegrees>43.45491274259984493255615234375</LatitudeDegrees>
              <LongitudeDegrees>-1.56642070971429347991943359375</LongitudeDegrees>
            </Position>
            <AltitudeMeters>31.6000003814697265625</AltitudeMeters>
            <DistanceMeters>NAN</DistanceMeters>
          </Trackpoint>
          <Trackpoint>
            <Time>2022-07-07T18:15:55.000Z</Time>
            <Position>
              <LatitudeDegrees>43.4548258222639560699462890625</LatitudeDegrees>
              <LongitudeDegrees>-1.5663810633122920989990234375</LongitudeDegrees>
            </Position>
            <AltitudeMeters>31.6000003814697265625</AltitudeMeters>
            <DistanceMeters>NAN</DistanceMeters>
          </Trackpoint>
          <Trackpoint>
            <Time>2022-07-07T18:15:56.000Z</Time>
            <Position>
              <LatitudeDegrees>43.4548238106071949005126953125</LatitudeDegrees>
              <LongitudeDegrees>-1.5663740225136280059814453125</LongitudeDegrees>
            </Position>
            <AltitudeMeters>31.6000003814697265625</AltitudeMeters>
            <DistanceMeters>NAN</DistanceMeters>
          </Trackpoint>
          <Trackpoint>
            <Time>2022-07-07T18:15:57.000Z</Time>
            <Position>
              <LatitudeDegrees>43.45483839511871337890625</LatitudeDegrees>
              <LongitudeDegrees>-1.566370166838169097900390625</LongitudeDegrees>
            </Position>
            <AltitudeMeters>31.6000003814697265625</AltitudeMeters>
            <DistanceMeters>NAN</DistanceMeters>
          </Trackpoint>
          <Trackpoint>
            <Time>2022-07-07T18:16:00.000Z</Time>
            <Position>
              <LatitudeDegrees>43.45483328215777873992919921875</LatitudeDegrees>
              <LongitudeDegrees>-1.5663679875433444976806640625</LongitudeDegrees>
            </Position>
            <AltitudeMeters>31.3999996185302734375</AltitudeMeters>
            <DistanceMeters>NAN</DistanceMeters>
          </Trackpoint>
          <Trackpoint>
            <Time>2022-07-07T18:16:02.000Z</Time>
            <Position>
              <LatitudeDegrees>43.454858176410198211669921875</LatitudeDegrees>
              <LongitudeDegrees>-1.5663711726665496826171875</LongitudeDegrees>
            </Position>
            <AltitudeMeters>31.3999996185302734375</AltitudeMeters>
            <DistanceMeters>NAN</DistanceMeters>
          </Trackpoint>
          <Trackpoint>
            <Time>2022-07-07T18:16:03.000Z</Time>
            <Position>
              <LatitudeDegrees>43.454873263835906982421875</LatitudeDegrees>
              <LongitudeDegrees>-1.56637092120945453643798828125</LongitudeDegrees>
            </Position>
            <AltitudeMeters>31.3999996185302734375</AltitudeMeters>
            <DistanceMeters>NAN</DistanceMeters>
          </Trackpoint>
          <Trackpoint>
            <Time>2022-07-07T18:16:04.000Z</Time>
            <Position>
              <LatitudeDegrees>43.45487066544592380523681640625</LatitudeDegrees>
              <LongitudeDegrees>-1.566371507942676544189453125</LongitudeDegrees>
            </Position>
            <AltitudeMeters>31.3999996185302734375</AltitudeMeters>
            <DistanceMeters>NAN</DistanceMeters>
          </Trackpoint>
          <Trackpoint>
            <Time>2022-07-07T18:16:06.000Z</Time>
            <Position>
              <LatitudeDegrees>43.45487066544592380523681640625</LatitudeDegrees>
              <LongitudeDegrees>-1.566371507942676544189453125</LongitudeDegrees>
            </Position>
            <AltitudeMeters>31.3999996185302734375</AltitudeMeters>
            <DistanceMeters>NAN</DistanceMeters>
          </Trackpoint>
          <Trackpoint>
            <Time>2022-07-07T18:16:08.000Z</Time>
            <Position>
              <LatitudeDegrees>43.45487066544592380523681640625</LatitudeDegrees>
              <LongitudeDegrees>-1.566371507942676544189453125</LongitudeDegrees>
            </Position>
            <AltitudeMeters>31.3999996185302734375</AltitudeMeters>
            <DistanceMeters>NAN</DistanceMeters>
          </Trackpoint>
          <Trackpoint>
            <Time>2022-07-07T18:17:54.000Z</Time>
            <Position>
              <LatitudeDegrees>43.45495733432471752166748046875</LatitudeDegrees>
              <LongitudeDegrees>-1.56633219681680202484130859375</LongitudeDegrees>
            </Position>
            <AltitudeMeters>31.3999996185302734375</AltitudeMeters>
            <DistanceMeters>NAN</DistanceMeters>
          </Trackpoint>
          <Trackpoint>
            <Time>2022-07-07T18:17:55.000Z</Time>
            <Position>
              <LatitudeDegrees>43.45497208647429943084716796875</LatitudeDegrees>
              <LongitudeDegrees>-1.56630839221179485321044921875</LongitudeDegrees>
            </Position>
            <AltitudeMeters>31.200000762939453125</AltitudeMeters>
            <DistanceMeters>NAN</DistanceMeters>
          </Trackpoint>
          <Trackpoint>
            <Time>2022-07-07T18:17:56.000Z</Time>
            <Position>
              <LatitudeDegrees>43.45499086193740367889404296875</LatitudeDegrees>
              <LongitudeDegrees>-1.5662868507206439971923828125</LongitudeDegrees>
            </Position>
            <AltitudeMeters>31.200000762939453125</AltitudeMeters>
            <DistanceMeters>NAN</DistanceMeters>
          </Trackpoint>
          <Trackpoint>
            <Time>2022-07-07T18:18:00.000Z</Time>
            <Position>
              <LatitudeDegrees>43.4551232121884822845458984375</LatitudeDegrees>
              <LongitudeDegrees>-1.56620018184185028076171875</LongitudeDegrees>
            </Position>
            <AltitudeMeters>30.6000003814697265625</AltitudeMeters>
            <DistanceMeters>NAN</DistanceMeters>
          </Trackpoint>
          <Trackpoint>
            <Time>2022-07-07T18:18:01.000Z</Time>
            <Position>
              <LatitudeDegrees>43.45516436733305454254150390625</LatitudeDegrees>
              <LongitudeDegrees>-1.5661614574491977691650390625</LongitudeDegrees>
            </Position>
            <AltitudeMeters>30.3999996185302734375</AltitudeMeters>
            <DistanceMeters>NAN</DistanceMeters>
          </Trackpoint>
          <Trackpoint>
            <Time>2022-07-07T18:18:04.000Z</Time>
            <Position>
              <LatitudeDegrees>43.45528540201485157012939453125</LatitudeDegrees>
              <LongitudeDegrees>-1.56598962843418121337890625</LongitudeDegrees>
            </Position>
            <AltitudeMeters>30</AltitudeMeters>
            <DistanceMeters>NAN</DistanceMeters>
          </Trackpoint>
          <Trackpoint>
            <Time>2022-07-07T18:18:06.000Z</Time>
            <Position>
              <LatitudeDegrees>43.45536922104656696319580078125</LatitudeDegrees>
              <LongitudeDegrees>-1.56584939919412136077880859375</LongitudeDegrees>
            </Position>
            <AltitudeMeters>29.6000003814697265625</AltitudeMeters>
            <DistanceMeters>NAN</DistanceMeters>
          </Trackpoint>
          <Trackpoint>
            <Time>2022-07-07T18:18:08.000Z</Time>
            <Position>
              <LatitudeDegrees>43.455432169139385223388671875</LatitudeDegrees>
              <LongitudeDegrees>-1.56571243889629840850830078125</LongitudeDegrees>
            </Position>
            <AltitudeMeters>29.3999996185302734375</AltitudeMeters>
            <DistanceMeters>NAN</DistanceMeters>
          </Trackpoint>
          <Trackpoint>
            <Time>2022-07-07T18:18:09.000Z</Time>
            <Position>
              <LatitudeDegrees>43.45545672811567783355712890625</LatitudeDegrees>
              <LongitudeDegrees>-1.5656474791467189788818359375</LongitudeDegrees>
            </Position>
            <AltitudeMeters>29.3999996185302734375</AltitudeMeters>
            <DistanceMeters>NAN</DistanceMeters>
          </Trackpoint>
          <Trackpoint>
            <Time>2022-07-07T18:18:11.000Z</Time>
            <Position>
              <LatitudeDegrees>43.45549595542252063751220703125</LatitudeDegrees>
              <LongitudeDegrees>-1.5655182301998138427734375</LongitudeDegrees>
            </Position>
            <AltitudeMeters>29.200000762939453125</AltitudeMeters>
            <DistanceMeters>NAN</DistanceMeters>
          </Trackpoint>
          <Trackpoint>
            <Time>2022-07-07T18:18:13.000Z</Time>
            <Position>
              <LatitudeDegrees>43.45549444667994976043701171875</LatitudeDegrees>
              <LongitudeDegrees>-1.56541119329631328582763671875</LongitudeDegrees>
            </Position>
            <AltitudeMeters>29.200000762939453125</AltitudeMeters>
            <DistanceMeters>NAN</DistanceMeters>
          </Trackpoint>
          <Trackpoint>
            <Time>2022-07-07T18:18:17.000Z</Time>
            <Position>
              <LatitudeDegrees>43.4555131383240222930908203125</LatitudeDegrees>
              <LongitudeDegrees>-1.56524875201284885406494140625</LongitudeDegrees>
            </Position>
            <AltitudeMeters>29.3999996185302734375</AltitudeMeters>
            <DistanceMeters>NAN</DistanceMeters>
          </Trackpoint>
          <Trackpoint>
            <Time>2022-07-07T18:18:21.000Z</Time>
            <Position>
              <LatitudeDegrees>43.45554105006158351898193359375</LatitudeDegrees>
              <LongitudeDegrees>-1.56517398543655872344970703125</LongitudeDegrees>
            </Position>
            <AltitudeMeters>30</AltitudeMeters>
            <DistanceMeters>NAN</DistanceMeters>
          </Trackpoint>
          <Trackpoint>
            <Time>2022-07-07T18:18:22.000Z</Time>
            <Position>
              <LatitudeDegrees>43.455538116395473480224609375</LatitudeDegrees>
              <LongitudeDegrees>-1.565168201923370361328125</LongitudeDegrees>
            </Position>
            <AltitudeMeters>30.3999996185302734375</AltitudeMeters>
            <DistanceMeters>NAN</DistanceMeters>
          </Trackpoint>
          <Trackpoint>
            <Time>2022-07-07T18:18:23.000Z</Time>
            <Position>
              <LatitudeDegrees>43.455545492470264434814453125</LatitudeDegrees>
              <LongitudeDegrees>-1.5651630051434040069580078125</LongitudeDegrees>
            </Position>
            <AltitudeMeters>30.6000003814697265625</AltitudeMeters>
            <DistanceMeters>NAN</DistanceMeters>
          </Trackpoint>
          <Trackpoint>
            <Time>2022-07-07T18:18:26.000Z</Time>
            <Position>
              <LatitudeDegrees>43.45558580942451953887939453125</LatitudeDegrees>
              <LongitudeDegrees>-1.565104164183139801025390625</LongitudeDegrees>
            </Position>
            <AltitudeMeters>31</AltitudeMeters>
            <DistanceMeters>NAN</DistanceMeters>
          </Trackpoint>
          <Trackpoint>
            <Time>2022-07-07T18:18:27.000Z</Time>
            <Position>
              <LatitudeDegrees>43.4556029923260211944580078125</LatitudeDegrees>
              <LongitudeDegrees>-1.565082371234893798828125</LongitudeDegrees>
            </Position>
            <AltitudeMeters>31</AltitudeMeters>
            <DistanceMeters>NAN</DistanceMeters>
          </Trackpoint>
          <Trackpoint>
            <Time>2022-07-07T18:18:30.000Z</Time>
            <Position>
              <LatitudeDegrees>43.4556103684008121490478515625</LatitudeDegrees>
              <LongitudeDegrees>-1.5649628452956676483154296875</LongitudeDegrees>
            </Position>
            <AltitudeMeters>31.3999996185302734375</AltitudeMeters>
            <DistanceMeters>NAN</DistanceMeters>
          </Trackpoint>
          <Trackpoint>
            <Time>2022-07-07T18:18:32.000Z</Time>
            <Position>
              <LatitudeDegrees>43.45557642169296741485595703125</LatitudeDegrees>
              <LongitudeDegrees>-1.56492789275944232940673828125</LongitudeDegrees>
            </Position>
            <AltitudeMeters>31.6000003814697265625</AltitudeMeters>
            <DistanceMeters>NAN</DistanceMeters>
          </Trackpoint>
          <Trackpoint>
            <Time>2022-07-07T18:18:33.000Z</Time>
            <Position>
              <LatitudeDegrees>43.4555714763700962066650390625</LatitudeDegrees>
              <LongitudeDegrees>-1.56492873094975948333740234375</LongitudeDegrees>
            </Position>
            <AltitudeMeters>31.6000003814697265625</AltitudeMeters>
            <DistanceMeters>NAN</DistanceMeters>
          </Trackpoint>
          <Trackpoint>
            <Time>2022-07-07T18:18:34.000Z</Time>
            <Position>
              <LatitudeDegrees>43.45557709224522113800048828125</LatitudeDegrees>
              <LongitudeDegrees>-1.5649195946753025054931640625</LongitudeDegrees>
            </Position>
            <AltitudeMeters>31.6000003814697265625</AltitudeMeters>
            <DistanceMeters>NAN</DistanceMeters>
          </Trackpoint>
          <Trackpoint>
            <Time>2022-07-07T18:18:38.000Z</Time>
            <Position>
              <LatitudeDegrees>43.45561833120882511138916015625</LatitudeDegrees>
              <LongitudeDegrees>-1.5649484284222126007080078125</LongitudeDegrees>
            </Position>
            <AltitudeMeters>31.6000003814697265625</AltitudeMeters>
            <DistanceMeters>NAN</DistanceMeters>
          </Trackpoint>
          <Trackpoint>
            <Time>2022-07-07T18:19:20.000Z</Time>
            <Position>
              <LatitudeDegrees>43.4556814469397068023681640625</LatitudeDegrees>
              <LongitudeDegrees>-1.56494884751737117767333984375</LongitudeDegrees>
            </Position>
            <AltitudeMeters>31.200000762939453125</AltitudeMeters>
            <DistanceMeters>NAN</DistanceMeters>
          </Trackpoint>
          <Trackpoint>
            <Time>2022-07-07T18:19:22.000Z</Time>
            <Position>
              <LatitudeDegrees>43.4556814469397068023681640625</LatitudeDegrees>
              <LongitudeDegrees>-1.56494884751737117767333984375</LongitudeDegrees>
            </Position>
            <AltitudeMeters>31.3999996185302734375</AltitudeMeters>
            <DistanceMeters>NAN</DistanceMeters>
          </Trackpoint>
          <Trackpoint>
            <Time>2022-07-07T18:19:28.000Z</Time>
            <Position>
              <LatitudeDegrees>43.455693013966083526611328125</LatitudeDegrees>
              <LongitudeDegrees>-1.56497315503656864166259765625</LongitudeDegrees>
            </Position>
            <AltitudeMeters>31.3999996185302734375</AltitudeMeters>
            <DistanceMeters>NAN</DistanceMeters>
          </Trackpoint>
          <Trackpoint>
            <Time>2022-07-07T18:19:29.000Z</Time>
            <Position>
              <LatitudeDegrees>43.4557005576789379119873046875</LatitudeDegrees>
              <LongitudeDegrees>-1.56498841010034084320068359375</LongitudeDegrees>
            </Position>
            <AltitudeMeters>31.3999996185302734375</AltitudeMeters>
            <DistanceMeters>NAN</DistanceMeters>
          </Trackpoint>
          <Trackpoint>
            <Time>2022-07-07T18:19:30.000Z</Time>
            <Position>
              <LatitudeDegrees>43.455707095563411712646484375</LatitudeDegrees>
              <LongitudeDegrees>-1.564998216927051544189453125</LongitudeDegrees>
            </Position>
            <AltitudeMeters>31.6000003814697265625</AltitudeMeters>
            <DistanceMeters>NAN</DistanceMeters>
          </Trackpoint>
          <Trackpoint>
            <Time>2022-07-07T18:19:32.000Z</Time>
            <Position>
              <LatitudeDegrees>43.455731905996799468994140625</LatitudeDegrees>
              <LongitudeDegrees>-1.56500349752604961395263671875</LongitudeDegrees>
            </Position>
            <AltitudeMeters>32</AltitudeMeters>
            <DistanceMeters>NAN</DistanceMeters>
          </Trackpoint>
          <Trackpoint>
            <Time>2022-07-07T18:19:34.000Z</Time>
            <Position>
              <LatitudeDegrees>43.4557558782398700714111328125</LatitudeDegrees>
              <LongitudeDegrees>-1.56500735320150852203369140625</LongitudeDegrees>
            </Position>
            <AltitudeMeters>32.40000152587890625</AltitudeMeters>
            <DistanceMeters>NAN</DistanceMeters>
          </Trackpoint>
          <Trackpoint>
            <Time>2022-07-07T18:19:35.000Z</Time>
            <Position>
              <LatitudeDegrees>43.45577440224587917327880859375</LatitudeDegrees>
              <LongitudeDegrees>-1.56501254998147487640380859375</LongitudeDegrees>
            </Position>
            <AltitudeMeters>32.59999847412109375</AltitudeMeters>
            <DistanceMeters>NAN</DistanceMeters>
          </Trackpoint>
          <Trackpoint>
            <Time>2022-07-07T18:19:40.000Z</Time>
            <Position>
              <LatitudeDegrees>43.45581312663853168487548828125</LatitudeDegrees>
              <LongitudeDegrees>-1.565058566629886627197265625</LongitudeDegrees>
            </Position>
            <AltitudeMeters>33.40000152587890625</AltitudeMeters>
            <DistanceMeters>NAN</DistanceMeters>
          </Trackpoint>
          <Trackpoint>
            <Time>2022-07-07T18:19:41.000Z</Time>
            <Position>
              <LatitudeDegrees>43.45581312663853168487548828125</LatitudeDegrees>
              <LongitudeDegrees>-1.565058566629886627197265625</LongitudeDegrees>
            </Position>
            <AltitudeMeters>33.59999847412109375</AltitudeMeters>
            <DistanceMeters>NAN</DistanceMeters>
          </Trackpoint>
          <Trackpoint>
            <Time>2022-07-07T18:19:42.000Z</Time>
            <Position>
              <LatitudeDegrees>43.45581631176173686981201171875</LatitudeDegrees>
              <LongitudeDegrees>-1.56507139094173908233642578125</LongitudeDegrees>
            </Position>
            <AltitudeMeters>33.799999237060546875</AltitudeMeters>
            <DistanceMeters>NAN</DistanceMeters>
          </Trackpoint>
          <Trackpoint>
            <Time>2022-07-07T18:19:43.000Z</Time>
            <Position>
              <LatitudeDegrees>43.4558262862265110015869140625</LatitudeDegrees>
              <LongitudeDegrees>-1.5651003085076808929443359375</LongitudeDegrees>
            </Position>
            <AltitudeMeters>33.799999237060546875</AltitudeMeters>
            <DistanceMeters>NAN</DistanceMeters>
          </Trackpoint>
          <Trackpoint>
            <Time>2022-07-07T18:19:46.000Z</Time>
            <Position>
              <LatitudeDegrees>43.455853946506977081298828125</LatitudeDegrees>
              <LongitudeDegrees>-1.56514246948063373565673828125</LongitudeDegrees>
            </Position>
            <AltitudeMeters>34.40000152587890625</AltitudeMeters>
            <DistanceMeters>NAN</DistanceMeters>
          </Trackpoint>
          <Trackpoint>
            <Time>2022-07-07T18:19:47.000Z</Time>
            <Position>
              <LatitudeDegrees>43.4558631666004657745361328125</LatitudeDegrees>
              <LongitudeDegrees>-1.56514146365225315093994140625</LongitudeDegrees>
            </Position>
            <AltitudeMeters>34.59999847412109375</AltitudeMeters>
            <DistanceMeters>NAN</DistanceMeters>
          </Trackpoint>
          <Trackpoint>
            <Time>2022-07-07T18:19:48.000Z</Time>
            <Position>
              <LatitudeDegrees>43.45586995594203472137451171875</LatitudeDegrees>
              <LongitudeDegrees>-1.5651432238519191741943359375</LongitudeDegrees>
            </Position>
            <AltitudeMeters>34.799999237060546875</AltitudeMeters>
            <DistanceMeters>NAN</DistanceMeters>
          </Trackpoint>
          <Trackpoint>
            <Time>2022-07-07T18:19:50.000Z</Time>
            <Position>
              <LatitudeDegrees>43.45587615855038166046142578125</LatitudeDegrees>
              <LongitudeDegrees>-1.5651507675647735595703125</LongitudeDegrees>
            </Position>
            <AltitudeMeters>35</AltitudeMeters>
            <DistanceMeters>NAN</DistanceMeters>
          </Trackpoint>
          <Trackpoint>
            <Time>2022-07-07T18:19:55.000Z</Time>
            <Position>
              <LatitudeDegrees>43.45591488294303417205810546875</LatitudeDegrees>
              <LongitudeDegrees>-1.5651884861290454864501953125</LongitudeDegrees>
            </Position>
            <AltitudeMeters>35.59999847412109375</AltitudeMeters>
            <DistanceMeters>NAN</DistanceMeters>
          </Trackpoint>
          <Trackpoint>
            <Time>2022-07-07T18:19:56.000Z</Time>
            <Position>
              <LatitudeDegrees>43.455925025045871734619140625</LatitudeDegrees>
              <LongitudeDegrees>-1.56520583666861057281494140625</LongitudeDegrees>
            </Position>
            <AltitudeMeters>36</AltitudeMeters>
            <DistanceMeters>NAN</DistanceMeters>
          </Trackpoint>
          <Trackpoint>
            <Time>2022-07-07T18:19:58.000Z</Time>
            <Position>
              <LatitudeDegrees>43.45596115104854106903076171875</LatitudeDegrees>
              <LongitudeDegrees>-1.5652149729430675506591796875</LongitudeDegrees>
            </Position>
            <AltitudeMeters>36.200000762939453125</AltitudeMeters>
            <DistanceMeters>NAN</DistanceMeters>
          </Trackpoint>
          <Trackpoint>
            <Time>2022-07-07T18:20:00.000Z</Time>
            <Position>
              <LatitudeDegrees>43.45600876025855541229248046875</LatitudeDegrees>
              <LongitudeDegrees>-1.56524674035608768463134765625</LongitudeDegrees>
            </Position>
            <AltitudeMeters>36.40000152587890625</AltitudeMeters>
            <DistanceMeters>NAN</DistanceMeters>
          </Trackpoint>
          <Trackpoint>
            <Time>2022-07-07T18:20:02.000Z</Time>
            <Position>
              <LatitudeDegrees>43.45603801310062408447265625</LatitudeDegrees>
              <LongitudeDegrees>-1.5652528591454029083251953125</LongitudeDegrees>
            </Position>
            <AltitudeMeters>36.40000152587890625</AltitudeMeters>
            <DistanceMeters>NAN</DistanceMeters>
          </Trackpoint>
          <Trackpoint>
            <Time>2022-07-07T18:20:04.000Z</Time>
            <Position>
              <LatitudeDegrees>43.456053435802459716796875</LatitudeDegrees>
              <LongitudeDegrees>-1.5652508474886417388916015625</LongitudeDegrees>
            </Position>
            <AltitudeMeters>36.59999847412109375</AltitudeMeters>
            <DistanceMeters>NAN</DistanceMeters>
          </Trackpoint>
          <Trackpoint>
            <Time>2022-07-07T18:20:07.000Z</Time>
            <Position>
              <LatitudeDegrees>43.45607967115938663482666015625</LatitudeDegrees>
              <LongitudeDegrees>-1.56527490355074405670166015625</LongitudeDegrees>
            </Position>
            <AltitudeMeters>36.799999237060546875</AltitudeMeters>
            <DistanceMeters>NAN</DistanceMeters>
          </Trackpoint>
          <Trackpoint>
            <Time>2022-07-07T18:20:08.000Z</Time>
            <Position>
              <LatitudeDegrees>43.456100709736347198486328125</LatitudeDegrees>
              <LongitudeDegrees>-1.56529133208096027374267578125</LongitudeDegrees>
            </Position>
            <AltitudeMeters>37</AltitudeMeters>
            <DistanceMeters>NAN</DistanceMeters>
          </Trackpoint>
          <Trackpoint>
            <Time>2022-07-07T18:20:11.000Z</Time>
            <Position>
              <LatitudeDegrees>43.456159047782421112060546875</LatitudeDegrees>
              <LongitudeDegrees>-1.5652620792388916015625</LongitudeDegrees>
            </Position>
            <AltitudeMeters>37.200000762939453125</AltitudeMeters>
            <DistanceMeters>NAN</DistanceMeters>
          </Trackpoint>
          <Trackpoint>
            <Time>2022-07-07T18:20:12.000Z</Time>
            <Position>
              <LatitudeDegrees>43.4561830200254917144775390625</LatitudeDegrees>
              <LongitudeDegrees>-1.5652629174292087554931640625</LongitudeDegrees>
            </Position>
            <AltitudeMeters>37.200000762939453125</AltitudeMeters>
            <DistanceMeters>NAN</DistanceMeters>
          </Trackpoint>
          <Trackpoint>
            <Time>2022-07-07T18:20:14.000Z</Time>
            <Position>
              <LatitudeDegrees>43.45621445216238498687744140625</LatitudeDegrees>
              <LongitudeDegrees>-1.5652773343026638031005859375</LongitudeDegrees>
            </Position>
            <AltitudeMeters>37.40000152587890625</AltitudeMeters>
            <DistanceMeters>NAN</DistanceMeters>
          </Trackpoint>
          <Trackpoint>
            <Time>2022-07-07T18:20:16.000Z</Time>
            <Position>
              <LatitudeDegrees>43.4562398493289947509765625</LatitudeDegrees>
              <LongitudeDegrees>-1.56529971398413181304931640625</LongitudeDegrees>
            </Position>
            <AltitudeMeters>37.40000152587890625</AltitudeMeters>
            <DistanceMeters>NAN</DistanceMeters>
          </Trackpoint>
          <Trackpoint>
            <Time>2022-07-07T18:20:19.000Z</Time>
            <Position>
              <LatitudeDegrees>43.456290476024150848388671875</LatitudeDegrees>
              <LongitudeDegrees>-1.5653199143707752227783203125</LongitudeDegrees>
            </Position>
            <AltitudeMeters>37.59999847412109375</AltitudeMeters>
            <DistanceMeters>NAN</DistanceMeters>
          </Trackpoint>
          <Trackpoint>
            <Time>2022-07-07T18:20:20.000Z</Time>
            <Position>
              <LatitudeDegrees>43.45630095340311527252197265625</LatitudeDegrees>
              <LongitudeDegrees>-1.5653209201991558074951171875</LongitudeDegrees>
            </Position>
            <AltitudeMeters>37.799999237060546875</AltitudeMeters>
            <DistanceMeters>NAN</DistanceMeters>
          </Trackpoint>
          <Trackpoint>
            <Time>2022-07-07T18:20:22.000Z</Time>
            <Position>
              <LatitudeDegrees>43.45631939359009265899658203125</LatitudeDegrees>
              <LongitudeDegrees>-1.5653358399868011474609375</LongitudeDegrees>
            </Position>
            <AltitudeMeters>38</AltitudeMeters>
            <DistanceMeters>NAN</DistanceMeters>
          </Trackpoint>
          <Trackpoint>
            <Time>2022-07-07T18:20:23.000Z</Time>
            <Position>
              <LatitudeDegrees>43.45632827840745449066162109375</LatitudeDegrees>
              <LongitudeDegrees>-1.5653412044048309326171875</LongitudeDegrees>
            </Position>
            <AltitudeMeters>38.200000762939453125</AltitudeMeters>
            <DistanceMeters>NAN</DistanceMeters>
          </Trackpoint>
          <Trackpoint>
            <Time>2022-07-07T18:20:28.000Z</Time>
            <Position>
              <LatitudeDegrees>43.4563345648348331451416015625</LatitudeDegrees>
              <LongitudeDegrees>-1.56535704620182514190673828125</LongitudeDegrees>
            </Position>
            <AltitudeMeters>38.200000762939453125</AltitudeMeters>
            <DistanceMeters>NAN</DistanceMeters>
          </Trackpoint>
          <Trackpoint>
            <Time>2022-07-07T18:21:20.000Z</Time>
            <Position>
              <LatitudeDegrees>43.4564463794231414794921875</LatitudeDegrees>
              <LongitudeDegrees>-1.5653578005731105804443359375</LongitudeDegrees>
            </Position>
            <AltitudeMeters>37.799999237060546875</AltitudeMeters>
            <DistanceMeters>NAN</DistanceMeters>
          </Trackpoint>
          <Trackpoint>
            <Time>2022-07-07T18:21:22.000Z</Time>
            <Position>
              <LatitudeDegrees>43.45650781877338886260986328125</LatitudeDegrees>
              <LongitudeDegrees>-1.56538688577711582183837890625</LongitudeDegrees>
            </Position>
            <AltitudeMeters>37.799999237060546875</AltitudeMeters>
            <DistanceMeters>NAN</DistanceMeters>
          </Trackpoint>
          <Trackpoint>
            <Time>2022-07-07T18:21:28.000Z</Time>
            <Position>
              <LatitudeDegrees>43.45666204579174518585205078125</LatitudeDegrees>
              <LongitudeDegrees>-1.5655314736068248748779296875</LongitudeDegrees>
            </Position>
            <AltitudeMeters>37.59999847412109375</AltitudeMeters>
            <DistanceMeters>NAN</DistanceMeters>
          </Trackpoint>
          <Trackpoint>
            <Time>2022-07-07T18:21:32.000Z</Time>
            <Position>
              <LatitudeDegrees>43.45683068968355655670166015625</LatitudeDegrees>
              <LongitudeDegrees>-1.56551261432468891143798828125</LongitudeDegrees>
            </Position>
            <AltitudeMeters>37.59999847412109375</AltitudeMeters>
            <DistanceMeters>NAN</DistanceMeters>
          </Trackpoint>
          <Trackpoint>
            <Time>2022-07-07T18:21:37.000Z</Time>
            <Position>
              <LatitudeDegrees>43.45698122866451740264892578125</LatitudeDegrees>
              <LongitudeDegrees>-1.56551026739180088043212890625</LongitudeDegrees>
            </Position>
            <AltitudeMeters>37.799999237060546875</AltitudeMeters>
            <DistanceMeters>NAN</DistanceMeters>
          </Trackpoint>
          <Trackpoint>
            <Time>2022-07-07T18:21:41.000Z</Time>
            <Position>
              <LatitudeDegrees>43.45720946788787841796875</LatitudeDegrees>
              <LongitudeDegrees>-1.56540893018245697021484375</LongitudeDegrees>
            </Position>
            <AltitudeMeters>37.799999237060546875</AltitudeMeters>
            <DistanceMeters>NAN</DistanceMeters>
          </Trackpoint>
          <Trackpoint>
            <Time>2022-07-07T18:21:45.000Z</Time>
            <Position>
              <LatitudeDegrees>43.45740283839404582977294921875</LatitudeDegrees>
              <LongitudeDegrees>-1.56539577059447765350341796875</LongitudeDegrees>
            </Position>
            <AltitudeMeters>37.799999237060546875</AltitudeMeters>
            <DistanceMeters>NAN</DistanceMeters>
          </Trackpoint>
          <Trackpoint>
            <Time>2022-07-07T18:21:46.000Z</Time>
            <Position>
              <LatitudeDegrees>43.45743670128285884857177734375</LatitudeDegrees>
              <LongitudeDegrees>-1.5653956867754459381103515625</LongitudeDegrees>
            </Position>
            <AltitudeMeters>37.799999237060546875</AltitudeMeters>
            <DistanceMeters>NAN</DistanceMeters>
          </Trackpoint>
          <Trackpoint>
            <Time>2022-07-07T18:21:47.000Z</Time>
            <Position>
              <LatitudeDegrees>43.45747794024646282196044921875</LatitudeDegrees>
              <LongitudeDegrees>-1.5654020570218563079833984375</LongitudeDegrees>
            </Position>
            <AltitudeMeters>37.799999237060546875</AltitudeMeters>
            <DistanceMeters>NAN</DistanceMeters>
          </Trackpoint>
          <Trackpoint>
            <Time>2022-07-07T18:21:50.000Z</Time>
            <Position>
              <LatitudeDegrees>43.45759998075664043426513671875</LatitudeDegrees>
              <LongitudeDegrees>-1.5654315613210201263427734375</LongitudeDegrees>
            </Position>
            <AltitudeMeters>38</AltitudeMeters>
            <DistanceMeters>NAN</DistanceMeters>
          </Trackpoint>
          <Trackpoint>
            <Time>2022-07-07T18:21:54.000Z</Time>
            <Position>
              <LatitudeDegrees>43.45769201405346393585205078125</LatitudeDegrees>
              <LongitudeDegrees>-1.56546617858111858367919921875</LongitudeDegrees>
            </Position>
            <AltitudeMeters>38.40000152587890625</AltitudeMeters>
            <DistanceMeters>NAN</DistanceMeters>
          </Trackpoint>
          <Trackpoint>
            <Time>2022-07-07T18:21:57.000Z</Time>
            <Position>
              <LatitudeDegrees>43.45778413116931915283203125</LatitudeDegrees>
              <LongitudeDegrees>-1.5655200742185115814208984375</LongitudeDegrees>
            </Position>
            <AltitudeMeters>38.59999847412109375</AltitudeMeters>
            <DistanceMeters>NAN</DistanceMeters>
          </Trackpoint>
          <Trackpoint>
            <Time>2022-07-07T18:21:59.000Z</Time>
            <Position>
              <LatitudeDegrees>43.457849510014057159423828125</LatitudeDegrees>
              <LongitudeDegrees>-1.565585620701313018798828125</LongitudeDegrees>
            </Position>
            <AltitudeMeters>38.59999847412109375</AltitudeMeters>
            <DistanceMeters>NAN</DistanceMeters>
          </Trackpoint>
          <Trackpoint>
            <Time>2022-07-07T18:22:04.000Z</Time>
            <Position>
              <LatitudeDegrees>43.45803114585578441619873046875</LatitudeDegrees>
              <LongitudeDegrees>-1.5657551027834415435791015625</LongitudeDegrees>
            </Position>
            <AltitudeMeters>38</AltitudeMeters>
            <DistanceMeters>NAN</DistanceMeters>
          </Trackpoint>
          <Trackpoint>
            <Time>2022-07-07T18:22:09.000Z</Time>
            <Position>
              <LatitudeDegrees>43.458190821111202239990234375</LatitudeDegrees>
              <LongitudeDegrees>-1.56590807251632213592529296875</LongitudeDegrees>
            </Position>
            <AltitudeMeters>38</AltitudeMeters>
            <DistanceMeters>NAN</DistanceMeters>
          </Trackpoint>
          <Trackpoint>
            <Time>2022-07-07T18:22:13.000Z</Time>
            <Position>
              <LatitudeDegrees>43.4583131968975067138671875</LatitudeDegrees>
              <LongitudeDegrees>-1.5660333819687366485595703125</LongitudeDegrees>
            </Position>
            <AltitudeMeters>38</AltitudeMeters>
            <DistanceMeters>NAN</DistanceMeters>
          </Trackpoint>
          <Trackpoint>
            <Time>2022-07-07T18:22:15.000Z</Time>
            <Position>
              <LatitudeDegrees>43.45836357213556766510009765625</LatitudeDegrees>
              <LongitudeDegrees>-1.56610739417374134063720703125</LongitudeDegrees>
            </Position>
            <AltitudeMeters>38</AltitudeMeters>
            <DistanceMeters>NAN</DistanceMeters>
          </Trackpoint>
          <Trackpoint>
            <Time>2022-07-07T18:22:21.000Z</Time>
            <Position>
              <LatitudeDegrees>43.4585614688694477081298828125</LatitudeDegrees>
              <LongitudeDegrees>-1.56629665754735469818115234375</LongitudeDegrees>
            </Position>
            <AltitudeMeters>37.40000152587890625</AltitudeMeters>
            <DistanceMeters>NAN</DistanceMeters>
          </Trackpoint>
          <Trackpoint>
            <Time>2022-07-07T18:22:23.000Z</Time>
            <Position>
              <LatitudeDegrees>43.45863397233188152313232421875</LatitudeDegrees>
              <LongitudeDegrees>-1.56638165004551410675048828125</LongitudeDegrees>
            </Position>
            <AltitudeMeters>37</AltitudeMeters>
            <DistanceMeters>NAN</DistanceMeters>
          </Trackpoint>
          <Trackpoint>
            <Time>2022-07-07T18:22:24.000Z</Time>
            <Position>
              <LatitudeDegrees>43.4586690925061702728271484375</LatitudeDegrees>
              <LongitudeDegrees>-1.566423140466213226318359375</LongitudeDegrees>
            </Position>
            <AltitudeMeters>36.799999237060546875</AltitudeMeters>
            <DistanceMeters>NAN</DistanceMeters>
          </Trackpoint>
          <Trackpoint>
            <Time>2022-07-07T18:22:26.000Z</Time>
            <Position>
              <LatitudeDegrees>43.45874578692018985748291015625</LatitudeDegrees>
              <LongitudeDegrees>-1.56649849377572536468505859375</LongitudeDegrees>
            </Position>
            <AltitudeMeters>36.40000152587890625</AltitudeMeters>
            <DistanceMeters>NAN</DistanceMeters>
          </Trackpoint>
          <Trackpoint>
            <Time>2022-07-07T18:22:28.000Z</Time>
            <Position>
              <LatitudeDegrees>43.4588508121669292449951171875</LatitudeDegrees>
              <LongitudeDegrees>-1.56656655482947826385498046875</LongitudeDegrees>
            </Position>
            <AltitudeMeters>36</AltitudeMeters>
            <DistanceMeters>NAN</DistanceMeters>
          </Trackpoint>
          <Trackpoint>
            <Time>2022-07-07T18:22:31.000Z</Time>
            <Position>
              <LatitudeDegrees>43.45895826816558837890625</LatitudeDegrees>
              <LongitudeDegrees>-1.5665926225483417510986328125</LongitudeDegrees>
            </Position>
            <AltitudeMeters>35</AltitudeMeters>
            <DistanceMeters>NAN</DistanceMeters>
          </Trackpoint>
          <Trackpoint>
            <Time>2022-07-07T18:22:32.000Z</Time>
            <Position>
              <LatitudeDegrees>43.4589926339685916900634765625</LatitudeDegrees>
              <LongitudeDegrees>-1.56658616848289966583251953125</LongitudeDegrees>
            </Position>
            <AltitudeMeters>34.59999847412109375</AltitudeMeters>
            <DistanceMeters>NAN</DistanceMeters>
          </Trackpoint>
          <Trackpoint>
            <Time>2022-07-07T18:22:34.000Z</Time>
            <Position>
              <LatitudeDegrees>43.45905005000531673431396484375</LatitudeDegrees>
              <LongitudeDegrees>-1.566586084663867950439453125</LongitudeDegrees>
            </Position>
            <AltitudeMeters>33.59999847412109375</AltitudeMeters>
            <DistanceMeters>NAN</DistanceMeters>
          </Trackpoint>
          <Trackpoint>
            <Time>2022-07-07T18:22:35.000Z</Time>
            <Position>
              <LatitudeDegrees>43.45907301642000675201416015625</LatitudeDegrees>
              <LongitudeDegrees>-1.5666093863546848297119140625</LongitudeDegrees>
            </Position>
            <AltitudeMeters>33.200000762939453125</AltitudeMeters>
            <DistanceMeters>NAN</DistanceMeters>
          </Trackpoint>
          <Trackpoint>
            <Time>2022-07-07T18:22:37.000Z</Time>
            <Position>
              <LatitudeDegrees>43.459107466042041778564453125</LatitudeDegrees>
              <LongitudeDegrees>-1.56663076020777225494384765625</LongitudeDegrees>
            </Position>
            <AltitudeMeters>32.40000152587890625</AltitudeMeters>
            <DistanceMeters>NAN</DistanceMeters>
          </Trackpoint>
          <Trackpoint>
            <Time>2022-07-07T18:22:41.000Z</Time>
            <Position>
              <LatitudeDegrees>43.4591978229582309722900390625</LatitudeDegrees>
              <LongitudeDegrees>-1.5667225420475006103515625</LongitudeDegrees>
            </Position>
            <AltitudeMeters>31.799999237060546875</AltitudeMeters>
            <DistanceMeters>NAN</DistanceMeters>
          </Trackpoint>
          <Trackpoint>
            <Time>2022-07-07T18:22:44.000Z</Time>
            <Position>
              <LatitudeDegrees>43.4592776186764240264892578125</LatitudeDegrees>
              <LongitudeDegrees>-1.566869728267192840576171875</LongitudeDegrees>
            </Position>
            <AltitudeMeters>31.200000762939453125</AltitudeMeters>
            <DistanceMeters>NAN</DistanceMeters>
          </Trackpoint>
          <Trackpoint>
            <Time>2022-07-07T18:22:45.000Z</Time>
            <Position>
              <LatitudeDegrees>43.45929798670113086700439453125</LatitudeDegrees>
              <LongitudeDegrees>-1.56692194752395153045654296875</LongitudeDegrees>
            </Position>
            <AltitudeMeters>31.200000762939453125</AltitudeMeters>
            <DistanceMeters>NAN</DistanceMeters>
          </Trackpoint>
          <Trackpoint>
            <Time>2022-07-07T18:22:46.000Z</Time>
            <Position>
              <LatitudeDegrees>43.45931567251682281494140625</LatitudeDegrees>
              <LongitudeDegrees>-1.5669741667807102203369140625</LongitudeDegrees>
            </Position>
            <AltitudeMeters>31</AltitudeMeters>
            <DistanceMeters>NAN</DistanceMeters>
          </Trackpoint>
          <Trackpoint>
            <Time>2022-07-07T18:22:50.000Z</Time>
            <Position>
              <LatitudeDegrees>43.459344841539859771728515625</LatitudeDegrees>
              <LongitudeDegrees>-1.5671602450311183929443359375</LongitudeDegrees>
            </Position>
            <AltitudeMeters>30.799999237060546875</AltitudeMeters>
            <DistanceMeters>NAN</DistanceMeters>
          </Trackpoint>
          <Trackpoint>
            <Time>2022-07-07T18:22:57.000Z</Time>
            <Position>
              <LatitudeDegrees>43.45936127007007598876953125</LatitudeDegrees>
              <LongitudeDegrees>-1.567516140639781951904296875</LongitudeDegrees>
            </Position>
            <AltitudeMeters>31</AltitudeMeters>
            <DistanceMeters>NAN</DistanceMeters>
          </Trackpoint>
          <Trackpoint>
            <Time>2022-07-07T18:23:03.000Z</Time>
            <Position>
              <LatitudeDegrees>43.45946721732616424560546875</LatitudeDegrees>
              <LongitudeDegrees>-1.5677820146083831787109375</LongitudeDegrees>
            </Position>
            <AltitudeMeters>31.200000762939453125</AltitudeMeters>
            <DistanceMeters>NAN</DistanceMeters>
          </Trackpoint>
          <Trackpoint>
            <Time>2022-07-07T18:23:07.000Z</Time>
            <Position>
              <LatitudeDegrees>43.45952563919126987457275390625</LatitudeDegrees>
              <LongitudeDegrees>-1.5679199807345867156982421875</LongitudeDegrees>
            </Position>
            <AltitudeMeters>31.200000762939453125</AltitudeMeters>
            <DistanceMeters>NAN</DistanceMeters>
          </Trackpoint>
          <Trackpoint>
            <Time>2022-07-07T18:23:08.000Z</Time>
            <Position>
              <LatitudeDegrees>43.4595337696373462677001953125</LatitudeDegrees>
              <LongitudeDegrees>-1.5679411031305789947509765625</LongitudeDegrees>
            </Position>
            <AltitudeMeters>31.200000762939453125</AltitudeMeters>
            <DistanceMeters>NAN</DistanceMeters>
          </Trackpoint>
          <Trackpoint>
            <Time>2022-07-07T18:23:09.000Z</Time>
            <Position>
              <LatitudeDegrees>43.459537960588932037353515625</LatitudeDegrees>
              <LongitudeDegrees>-1.56795694492757320404052734375</LongitudeDegrees>
            </Position>
            <AltitudeMeters>31.200000762939453125</AltitudeMeters>
            <DistanceMeters>NAN</DistanceMeters>
          </Trackpoint>
          <Trackpoint>
            <Time>2022-07-07T18:23:13.000Z</Time>
            <Position>
              <LatitudeDegrees>43.45951843075454235076904296875</LatitudeDegrees>
              <LongitudeDegrees>-1.5680138580501079559326171875</LongitudeDegrees>
            </Position>
            <AltitudeMeters>31.3999996185302734375</AltitudeMeters>
            <DistanceMeters>NAN</DistanceMeters>
          </Trackpoint>
          <Trackpoint>
            <Time>2022-07-07T18:23:21.000Z</Time>
            <Position>
              <LatitudeDegrees>43.4594643674790859222412109375</LatitudeDegrees>
              <LongitudeDegrees>-1.568082757294178009033203125</LongitudeDegrees>
            </Position>
            <AltitudeMeters>31.3999996185302734375</AltitudeMeters>
            <DistanceMeters>NAN</DistanceMeters>
          </Trackpoint>
          <Trackpoint>
            <Time>2022-07-07T18:23:22.000Z</Time>
            <Position>
              <LatitudeDegrees>43.4594643674790859222412109375</LatitudeDegrees>
              <LongitudeDegrees>-1.568082757294178009033203125</LongitudeDegrees>
            </Position>
            <AltitudeMeters>31.3999996185302734375</AltitudeMeters>
            <DistanceMeters>NAN</DistanceMeters>
          </Trackpoint>
          <Trackpoint>
            <Time>2022-07-07T18:23:32.000Z</Time>
            <Position>
              <LatitudeDegrees>43.4594110585749149322509765625</LatitudeDegrees>
              <LongitudeDegrees>-1.56804394908249378204345703125</LongitudeDegrees>
            </Position>
            <AltitudeMeters>31.3999996185302734375</AltitudeMeters>
            <DistanceMeters>NAN</DistanceMeters>
          </Trackpoint>
          <Trackpoint>
            <Time>2022-07-07T18:23:34.000Z</Time>
            <Position>
              <LatitudeDegrees>43.4593872539699077606201171875</LatitudeDegrees>
              <LongitudeDegrees>-1.56800656579434871673583984375</LongitudeDegrees>
            </Position>
            <AltitudeMeters>31.3999996185302734375</AltitudeMeters>
            <DistanceMeters>NAN</DistanceMeters>
          </Trackpoint>
          <Trackpoint>
            <Time>2022-07-07T18:23:42.000Z</Time>
            <Position>
              <LatitudeDegrees>43.45926295034587383270263671875</LatitudeDegrees>
              <LongitudeDegrees>-1.567883603274822235107421875</LongitudeDegrees>
            </Position>
            <AltitudeMeters>32</AltitudeMeters>
            <DistanceMeters>NAN</DistanceMeters>
          </Trackpoint>
          <Trackpoint>
            <Time>2022-07-07T18:23:47.000Z</Time>
            <Position>
              <LatitudeDegrees>43.459132611751556396484375</LatitudeDegrees>
              <LongitudeDegrees>-1.56786407344043254852294921875</LongitudeDegrees>
            </Position>
            <AltitudeMeters>32</AltitudeMeters>
            <DistanceMeters>NAN</DistanceMeters>
          </Trackpoint>
          <Trackpoint>
            <Time>2022-07-07T18:23:48.000Z</Time>
            <Position>
              <LatitudeDegrees>43.45911878161132335662841796875</LatitudeDegrees>
              <LongitudeDegrees>-1.567869521677494049072265625</LongitudeDegrees>
            </Position>
            <AltitudeMeters>32</AltitudeMeters>
            <DistanceMeters>NAN</DistanceMeters>
          </Trackpoint>
          <Trackpoint>
            <Time>2022-07-07T18:23:51.000Z</Time>
            <Position>
              <LatitudeDegrees>43.45907695591449737548828125</LatitudeDegrees>
              <LongitudeDegrees>-1.5678799152374267578125</LongitudeDegrees>
            </Position>
            <AltitudeMeters>31.6000003814697265625</AltitudeMeters>
            <DistanceMeters>NAN</DistanceMeters>
          </Trackpoint>
          <Trackpoint>
            <Time>2022-07-07T18:23:53.000Z</Time>
            <Position>
              <LatitudeDegrees>43.4590499661862850189208984375</LatitudeDegrees>
              <LongitudeDegrees>-1.56785644590854644775390625</LongitudeDegrees>
            </Position>
            <AltitudeMeters>31.3999996185302734375</AltitudeMeters>
            <DistanceMeters>NAN</DistanceMeters>
          </Trackpoint>
          <Trackpoint>
            <Time>2022-07-07T18:24:00.000Z</Time>
            <Position>
              <LatitudeDegrees>43.45894418656826019287109375</LatitudeDegrees>
              <LongitudeDegrees>-1.56771370209753513336181640625</LongitudeDegrees>
            </Position>
            <AltitudeMeters>30.6000003814697265625</AltitudeMeters>
            <DistanceMeters>NAN</DistanceMeters>
          </Trackpoint>
          <Trackpoint>
            <Time>2022-07-07T18:24:04.000Z</Time>
            <Position>
              <LatitudeDegrees>43.45890604890882968902587890625</LatitudeDegrees>
              <LongitudeDegrees>-1.56766374595463275909423828125</LongitudeDegrees>
            </Position>
            <AltitudeMeters>30.3999996185302734375</AltitudeMeters>
            <DistanceMeters>NAN</DistanceMeters>
          </Trackpoint>
          <Trackpoint>
            <Time>2022-07-07T18:24:05.000Z</Time>
            <Position>
              <LatitudeDegrees>43.45889682881534099578857421875</LatitudeDegrees>
              <LongitudeDegrees>-1.56765771098434925079345703125</LongitudeDegrees>
            </Position>
            <AltitudeMeters>30.3999996185302734375</AltitudeMeters>
            <DistanceMeters>NAN</DistanceMeters>
          </Trackpoint>
          <Trackpoint>
            <Time>2022-07-07T18:24:06.000Z</Time>
            <Position>
              <LatitudeDegrees>43.45888626761734485626220703125</LatitudeDegrees>
              <LongitudeDegrees>-1.56765804626047611236572265625</LongitudeDegrees>
            </Position>
            <AltitudeMeters>30.3999996185302734375</AltitudeMeters>
            <DistanceMeters>NAN</DistanceMeters>
          </Trackpoint>
          <Trackpoint>
            <Time>2022-07-07T18:24:09.000Z</Time>
            <Position>
              <LatitudeDegrees>43.45888425596058368682861328125</LatitudeDegrees>
              <LongitudeDegrees>-1.5676856227219104766845703125</LongitudeDegrees>
            </Position>
            <AltitudeMeters>30.3999996185302734375</AltitudeMeters>
            <DistanceMeters>NAN</DistanceMeters>
          </Trackpoint>
          <Trackpoint>
            <Time>2022-07-07T18:24:10.000Z</Time>
            <Position>
              <LatitudeDegrees>43.458894900977611541748046875</LatitudeDegrees>
              <LongitudeDegrees>-1.56769392080605030059814453125</LongitudeDegrees>
            </Position>
            <AltitudeMeters>30.3999996185302734375</AltitudeMeters>
            <DistanceMeters>NAN</DistanceMeters>
          </Trackpoint>
          <Trackpoint>
            <Time>2022-07-07T18:24:15.000Z</Time>
            <Position>
              <LatitudeDegrees>43.45898970030248165130615234375</LatitudeDegrees>
              <LongitudeDegrees>-1.56777589581906795501708984375</LongitudeDegrees>
            </Position>
            <AltitudeMeters>30.3999996185302734375</AltitudeMeters>
            <DistanceMeters>NAN</DistanceMeters>
          </Trackpoint>
          <Trackpoint>
            <Time>2022-07-07T18:24:22.000Z</Time>
            <Position>
              <LatitudeDegrees>43.45908424817025661468505859375</LatitudeDegrees>
              <LongitudeDegrees>-1.56788620166480541229248046875</LongitudeDegrees>
            </Position>
            <AltitudeMeters>31.3999996185302734375</AltitudeMeters>
            <DistanceMeters>NAN</DistanceMeters>
          </Trackpoint>
          <Trackpoint>
            <Time>2022-07-07T18:24:28.000Z</Time>
            <Position>
              <LatitudeDegrees>43.459151722490787506103515625</LatitudeDegrees>
              <LongitudeDegrees>-1.5679992735385894775390625</LongitudeDegrees>
            </Position>
            <AltitudeMeters>31.6000003814697265625</AltitudeMeters>
            <DistanceMeters>NAN</DistanceMeters>
          </Trackpoint>
          <Trackpoint>
            <Time>2022-07-07T18:24:36.000Z</Time>
            <Position>
              <LatitudeDegrees>43.4592880122363567352294921875</LatitudeDegrees>
              <LongitudeDegrees>-1.5681348927319049835205078125</LongitudeDegrees>
            </Position>
            <AltitudeMeters>31.200000762939453125</AltitudeMeters>
            <DistanceMeters>NAN</DistanceMeters>
          </Trackpoint>
          <Trackpoint>
            <Time>2022-07-07T18:24:41.000Z</Time>
            <Position>
              <LatitudeDegrees>43.45932103693485260009765625</LatitudeDegrees>
              <LongitudeDegrees>-1.56823958270251750946044921875</LongitudeDegrees>
            </Position>
            <AltitudeMeters>30.799999237060546875</AltitudeMeters>
            <DistanceMeters>NAN</DistanceMeters>
          </Trackpoint>
          <Trackpoint>
            <Time>2022-07-07T18:24:42.000Z</Time>
            <Position>
              <LatitudeDegrees>43.4593198634684085845947265625</LatitudeDegrees>
              <LongitudeDegrees>-1.56826690770685672760009765625</LongitudeDegrees>
            </Position>
            <AltitudeMeters>30.799999237060546875</AltitudeMeters>
            <DistanceMeters>NAN</DistanceMeters>
          </Trackpoint>
          <Trackpoint>
            <Time>2022-07-07T18:24:46.000Z</Time>
            <Position>
              <LatitudeDegrees>43.45931290648877620697021484375</LatitudeDegrees>
              <LongitudeDegrees>-1.5684081427752971649169921875</LongitudeDegrees>
            </Position>
            <AltitudeMeters>30.6000003814697265625</AltitudeMeters>
            <DistanceMeters>NAN</DistanceMeters>
          </Trackpoint>
          <Trackpoint>
            <Time>2022-07-07T18:24:48.000Z</Time>
            <Position>
              <LatitudeDegrees>43.45933754928410053253173828125</LatitudeDegrees>
              <LongitudeDegrees>-1.5684658102691173553466796875</LongitudeDegrees>
            </Position>
            <AltitudeMeters>30.3999996185302734375</AltitudeMeters>
            <DistanceMeters>NAN</DistanceMeters>
          </Trackpoint>
          <Trackpoint>
            <Time>2022-07-07T18:24:52.000Z</Time>
            <Position>
              <LatitudeDegrees>43.45939253456890583038330078125</LatitudeDegrees>
              <LongitudeDegrees>-1.56854099594056606292724609375</LongitudeDegrees>
            </Position>
            <AltitudeMeters>30.6000003814697265625</AltitudeMeters>
            <DistanceMeters>NAN</DistanceMeters>
          </Trackpoint>
          <Trackpoint>
            <Time>2022-07-07T18:25:01.000Z</Time>
            <Position>
              <LatitudeDegrees>43.459520526230335235595703125</LatitudeDegrees>
              <LongitudeDegrees>-1.568676531314849853515625</LongitudeDegrees>
            </Position>
            <AltitudeMeters>31.6000003814697265625</AltitudeMeters>
            <DistanceMeters>NAN</DistanceMeters>
          </Trackpoint>
          <Trackpoint>
            <Time>2022-07-07T18:25:09.000Z</Time>
            <Position>
              <LatitudeDegrees>43.45965354703366756439208984375</LatitudeDegrees>
              <LongitudeDegrees>-1.56879882328212261199951171875</LongitudeDegrees>
            </Position>
            <AltitudeMeters>32.200000762939453125</AltitudeMeters>
            <DistanceMeters>NAN</DistanceMeters>
          </Trackpoint>
          <Trackpoint>
            <Time>2022-07-07T18:25:11.000Z</Time>
            <Position>
              <LatitudeDegrees>43.4596816264092922210693359375</LatitudeDegrees>
              <LongitudeDegrees>-1.5688252262771129608154296875</LongitudeDegrees>
            </Position>
            <AltitudeMeters>32.40000152587890625</AltitudeMeters>
            <DistanceMeters>NAN</DistanceMeters>
          </Trackpoint>
          <Trackpoint>
            <Time>2022-07-07T18:25:13.000Z</Time>
            <Position>
              <LatitudeDegrees>43.4597030840814113616943359375</LatitudeDegrees>
              <LongitudeDegrees>-1.56884743832051753997802734375</LongitudeDegrees>
            </Position>
            <AltitudeMeters>32.799999237060546875</AltitudeMeters>
            <DistanceMeters>NAN</DistanceMeters>
          </Trackpoint>
          <Trackpoint>
            <Time>2022-07-07T18:25:16.000Z</Time>
            <Position>
              <LatitudeDegrees>43.45970727503299713134765625</LatitudeDegrees>
              <LongitudeDegrees>-1.56885112635791301727294921875</LongitudeDegrees>
            </Position>
            <AltitudeMeters>33</AltitudeMeters>
            <DistanceMeters>NAN</DistanceMeters>
          </Trackpoint>
          <Trackpoint>
            <Time>2022-07-07T18:26:10.000Z</Time>
            <Position>
              <LatitudeDegrees>43.45965941436588764190673828125</LatitudeDegrees>
              <LongitudeDegrees>-1.5687980689108371734619140625</LongitudeDegrees>
            </Position>
            <AltitudeMeters>32.200000762939453125</AltitudeMeters>
            <DistanceMeters>NAN</DistanceMeters>
          </Trackpoint>
          <Trackpoint>
            <Time>2022-07-07T18:26:11.000Z</Time>
            <Position>
              <LatitudeDegrees>43.4596423991024494171142578125</LatitudeDegrees>
              <LongitudeDegrees>-1.5687799639999866485595703125</LongitudeDegrees>
            </Position>
            <AltitudeMeters>32.200000762939453125</AltitudeMeters>
            <DistanceMeters>NAN</DistanceMeters>
          </Trackpoint>
          <Trackpoint>
            <Time>2022-07-07T18:26:12.000Z</Time>
            <Position>
              <LatitudeDegrees>43.45962370745837688446044921875</LatitudeDegrees>
              <LongitudeDegrees>-1.5687635354697704315185546875</LongitudeDegrees>
            </Position>
            <AltitudeMeters>32</AltitudeMeters>
            <DistanceMeters>NAN</DistanceMeters>
          </Trackpoint>
          <Trackpoint>
            <Time>2022-07-07T18:26:16.000Z</Time>
            <Position>
              <LatitudeDegrees>43.45952899195253849029541015625</LatitudeDegrees>
              <LongitudeDegrees>-1.56866085715591907501220703125</LongitudeDegrees>
            </Position>
            <AltitudeMeters>31.200000762939453125</AltitudeMeters>
            <DistanceMeters>NAN</DistanceMeters>
          </Trackpoint>
          <Trackpoint>
            <Time>2022-07-07T18:26:19.000Z</Time>
            <Position>
              <LatitudeDegrees>43.45945246517658233642578125</LatitudeDegrees>
              <LongitudeDegrees>-1.56857318244874477386474609375</LongitudeDegrees>
            </Position>
            <AltitudeMeters>30.6000003814697265625</AltitudeMeters>
            <DistanceMeters>NAN</DistanceMeters>
          </Trackpoint>
          <Trackpoint>
            <Time>2022-07-07T18:26:22.000Z</Time>
            <Position>
              <LatitudeDegrees>43.45937694422900676727294921875</LatitudeDegrees>
              <LongitudeDegrees>-1.56848316080868244171142578125</LongitudeDegrees>
            </Position>
            <AltitudeMeters>30</AltitudeMeters>
            <DistanceMeters>NAN</DistanceMeters>
          </Trackpoint>
          <Trackpoint>
            <Time>2022-07-07T18:26:28.000Z</Time>
            <Position>
              <LatitudeDegrees>43.45922456122934818267822265625</LatitudeDegrees>
              <LongitudeDegrees>-1.56831376254558563232421875</LongitudeDegrees>
            </Position>
            <AltitudeMeters>29.200000762939453125</AltitudeMeters>
            <DistanceMeters>NAN</DistanceMeters>
          </Trackpoint>
          <Trackpoint>
            <Time>2022-07-07T18:26:34.000Z</Time>
            <Position>
              <LatitudeDegrees>43.4591435082256793975830078125</LatitudeDegrees>
              <LongitudeDegrees>-1.56820437870919704437255859375</LongitudeDegrees>
            </Position>
            <AltitudeMeters>29.6000003814697265625</AltitudeMeters>
            <DistanceMeters>NAN</DistanceMeters>
          </Trackpoint>
          <Trackpoint>
            <Time>2022-07-07T18:26:35.000Z</Time>
            <Position>
              <LatitudeDegrees>43.45913168974220752716064453125</LatitudeDegrees>
              <LongitudeDegrees>-1.56819364987313747406005859375</LongitudeDegrees>
            </Position>
            <AltitudeMeters>29.799999237060546875</AltitudeMeters>
            <DistanceMeters>NAN</DistanceMeters>
          </Trackpoint>
          <Trackpoint>
            <Time>2022-07-07T18:26:38.000Z</Time>
            <Position>
              <LatitudeDegrees>43.4590858407318592071533203125</LatitudeDegrees>
              <LongitudeDegrees>-1.56819364987313747406005859375</LongitudeDegrees>
            </Position>
            <AltitudeMeters>30</AltitudeMeters>
            <DistanceMeters>NAN</DistanceMeters>
          </Trackpoint>
          <Trackpoint>
            <Time>2022-07-07T18:26:41.000Z</Time>
            <Position>
              <LatitudeDegrees>43.45904820598661899566650390625</LatitudeDegrees>
              <LongitudeDegrees>-1.56822868622839450836181640625</LongitudeDegrees>
            </Position>
            <AltitudeMeters>29.799999237060546875</AltitudeMeters>
            <DistanceMeters>NAN</DistanceMeters>
          </Trackpoint>
          <Trackpoint>
            <Time>2022-07-07T18:26:44.000Z</Time>
            <Position>
              <LatitudeDegrees>43.45900411717593669891357421875</LatitudeDegrees>
              <LongitudeDegrees>-1.56822047196328639984130859375</LongitudeDegrees>
            </Position>
            <AltitudeMeters>29.799999237060546875</AltitudeMeters>
            <DistanceMeters>NAN</DistanceMeters>
          </Trackpoint>
          <Trackpoint>
            <Time>2022-07-07T18:26:51.000Z</Time>
            <Position>
              <LatitudeDegrees>43.458961956202983856201171875</LatitudeDegrees>
              <LongitudeDegrees>-1.56820270232856273651123046875</LongitudeDegrees>
            </Position>
            <AltitudeMeters>29.6000003814697265625</AltitudeMeters>
            <DistanceMeters>NAN</DistanceMeters>
          </Trackpoint>
          <Trackpoint>
            <Time>2022-07-08T08:40:25.000Z</Time>
            <Position>
              <LatitudeDegrees>43.45982386730611324310302734375</LatitudeDegrees>
              <LongitudeDegrees>-1.56887275166809558868408203125</LongitudeDegrees>
            </Position>
            <AltitudeMeters>20.799999237060546875</AltitudeMeters>
            <DistanceMeters>NAN</DistanceMeters>
          </Trackpoint>
          <Trackpoint>
            <Time>2022-07-08T08:40:26.000Z</Time>
            <Position>
              <LatitudeDegrees>43.45983677543699741363525390625</LatitudeDegrees>
              <LongitudeDegrees>-1.5688906051218509674072265625</LongitudeDegrees>
            </Position>
            <AltitudeMeters>20.799999237060546875</AltitudeMeters>
            <DistanceMeters>NAN</DistanceMeters>
          </Trackpoint>
          <Trackpoint>
            <Time>2022-07-08T08:40:29.000Z</Time>
            <Position>
              <LatitudeDegrees>43.459890671074390411376953125</LatitudeDegrees>
              <LongitudeDegrees>-1.56895078718662261962890625</LongitudeDegrees>
            </Position>
            <AltitudeMeters>20.799999237060546875</AltitudeMeters>
            <DistanceMeters>NAN</DistanceMeters>
          </Trackpoint>
          <Trackpoint>
            <Time>2022-07-08T08:40:36.000Z</Time>
            <Position>
              <LatitudeDegrees>43.46001061610877513885498046875</LatitudeDegrees>
              <LongitudeDegrees>-1.56906989403069019317626953125</LongitudeDegrees>
            </Position>
            <AltitudeMeters>21.799999237060546875</AltitudeMeters>
            <DistanceMeters>NAN</DistanceMeters>
          </Trackpoint>
          <Trackpoint>
            <Time>2022-07-08T08:40:37.000Z</Time>
            <Position>
              <LatitudeDegrees>43.46003458835184574127197265625</LatitudeDegrees>
              <LongitudeDegrees>-1.5690882503986358642578125</LongitudeDegrees>
            </Position>
            <AltitudeMeters>22</AltitudeMeters>
            <DistanceMeters>NAN</DistanceMeters>
          </Trackpoint>
          <Trackpoint>
            <Time>2022-07-08T08:40:39.000Z</Time>
            <Position>
              <LatitudeDegrees>43.460065014660358428955078125</LatitudeDegrees>
              <LongitudeDegrees>-1.569122113287448883056640625</LongitudeDegrees>
            </Position>
            <AltitudeMeters>22.200000762939453125</AltitudeMeters>
            <DistanceMeters>NAN</DistanceMeters>
          </Trackpoint>
          <Trackpoint>
            <Time>2022-07-08T08:40:43.000Z</Time>
            <Position>
              <LatitudeDegrees>43.4601496718823909759521484375</LatitudeDegrees>
              <LongitudeDegrees>-1.56919377855956554412841796875</LongitudeDegrees>
            </Position>
            <AltitudeMeters>22.6000003814697265625</AltitudeMeters>
            <DistanceMeters>NAN</DistanceMeters>
          </Trackpoint>
          <Trackpoint>
            <Time>2022-07-08T08:40:46.000Z</Time>
            <Position>
              <LatitudeDegrees>43.460190407931804656982421875</LatitudeDegrees>
              <LongitudeDegrees>-1.56920702196657657623291015625</LongitudeDegrees>
            </Position>
            <AltitudeMeters>23</AltitudeMeters>
            <DistanceMeters>NAN</DistanceMeters>
          </Trackpoint>
          <Trackpoint>
            <Time>2022-07-08T08:40:47.000Z</Time>
            <Position>
              <LatitudeDegrees>43.4601999633014202117919921875</LatitudeDegrees>
              <LongitudeDegrees>-1.56921087764203548431396484375</LongitudeDegrees>
            </Position>
            <AltitudeMeters>23</AltitudeMeters>
            <DistanceMeters>NAN</DistanceMeters>
          </Trackpoint>
          <Trackpoint>
            <Time>2022-07-08T08:40:48.000Z</Time>
            <Position>
              <LatitudeDegrees>43.4602116979658603668212890625</LatitudeDegrees>
              <LongitudeDegrees>-1.56921557150781154632568359375</LongitudeDegrees>
            </Position>
            <AltitudeMeters>23</AltitudeMeters>
            <DistanceMeters>NAN</DistanceMeters>
          </Trackpoint>
          <Trackpoint>
            <Time>2022-07-08T08:40:49.000Z</Time>
            <Position>
              <LatitudeDegrees>43.460223935544490814208984375</LatitudeDegrees>
              <LongitudeDegrees>-1.569220013916492462158203125</LongitudeDegrees>
            </Position>
            <AltitudeMeters>23.200000762939453125</AltitudeMeters>
            <DistanceMeters>NAN</DistanceMeters>
          </Trackpoint>
          <Trackpoint>
            <Time>2022-07-08T08:40:52.000Z</Time>
            <Position>
              <LatitudeDegrees>43.460267521440982818603515625</LatitudeDegrees>
              <LongitudeDegrees>-1.569231413304805755615234375</LongitudeDegrees>
            </Position>
            <AltitudeMeters>23.6000003814697265625</AltitudeMeters>
            <DistanceMeters>NAN</DistanceMeters>
          </Trackpoint>
          <Trackpoint>
            <Time>2022-07-08T08:40:54.000Z</Time>
            <Position>
              <LatitudeDegrees>43.4602981992065906524658203125</LatitudeDegrees>
              <LongitudeDegrees>-1.56923753209412097930908203125</LongitudeDegrees>
            </Position>
            <AltitudeMeters>23.799999237060546875</AltitudeMeters>
            <DistanceMeters>NAN</DistanceMeters>
          </Trackpoint>
          <Trackpoint>
            <Time>2022-07-08T08:40:55.000Z</Time>
            <Position>
              <LatitudeDegrees>43.4603176452219486236572265625</LatitudeDegrees>
              <LongitudeDegrees>-1.56924054957926273345947265625</LongitudeDegrees>
            </Position>
            <AltitudeMeters>23.799999237060546875</AltitudeMeters>
            <DistanceMeters>NAN</DistanceMeters>
          </Trackpoint>
          <Trackpoint>
            <Time>2022-07-08T08:40:57.000Z</Time>
            <Position>
              <LatitudeDegrees>43.46034438349306583404541015625</LatitudeDegrees>
              <LongitudeDegrees>-1.56924591399729251861572265625</LongitudeDegrees>
            </Position>
            <AltitudeMeters>24</AltitudeMeters>
            <DistanceMeters>NAN</DistanceMeters>
          </Trackpoint>
          <Trackpoint>
            <Time>2022-07-08T08:41:00.000Z</Time>
            <Position>
              <LatitudeDegrees>43.460396267473697662353515625</LatitudeDegrees>
              <LongitudeDegrees>-1.56925546936690807342529296875</LongitudeDegrees>
            </Position>
            <AltitudeMeters>24.3999996185302734375</AltitudeMeters>
            <DistanceMeters>NAN</DistanceMeters>
          </Trackpoint>
          <Trackpoint>
            <Time>2022-07-08T08:41:06.000Z</Time>
            <Position>
              <LatitudeDegrees>43.46049609594047069549560546875</LatitudeDegrees>
              <LongitudeDegrees>-1.5692760050296783447265625</LongitudeDegrees>
            </Position>
            <AltitudeMeters>25</AltitudeMeters>
            <DistanceMeters>NAN</DistanceMeters>
          </Trackpoint>
          <Trackpoint>
            <Time>2022-07-08T08:41:07.000Z</Time>
            <Position>
              <LatitudeDegrees>43.46051654778420925140380859375</LatitudeDegrees>
              <LongitudeDegrees>-1.56927399337291717529296875</LongitudeDegrees>
            </Position>
            <AltitudeMeters>25.200000762939453125</AltitudeMeters>
            <DistanceMeters>NAN</DistanceMeters>
          </Trackpoint>
          <Trackpoint>
            <Time>2022-07-08T08:41:19.000Z</Time>
            <Position>
              <LatitudeDegrees>43.46071670763194561004638671875</LatitudeDegrees>
              <LongitudeDegrees>-1.5693184174597263336181640625</LongitudeDegrees>
            </Position>
            <AltitudeMeters>26</AltitudeMeters>
            <DistanceMeters>NAN</DistanceMeters>
          </Trackpoint>
          <Trackpoint>
            <Time>2022-07-08T08:41:20.000Z</Time>
            <Position>
              <LatitudeDegrees>43.46074218861758708953857421875</LatitudeDegrees>
              <LongitudeDegrees>-1.56932738609611988067626953125</LongitudeDegrees>
            </Position>
            <AltitudeMeters>26.200000762939453125</AltitudeMeters>
            <DistanceMeters>NAN</DistanceMeters>
          </Trackpoint>
          <Trackpoint>
            <Time>2022-07-08T08:41:29.000Z</Time>
            <Position>
              <LatitudeDegrees>43.46093832515180110931396484375</LatitudeDegrees>
              <LongitudeDegrees>-1.56934515573084354400634765625</LongitudeDegrees>
            </Position>
            <AltitudeMeters>27</AltitudeMeters>
            <DistanceMeters>NAN</DistanceMeters>
          </Trackpoint>
          <Trackpoint>
            <Time>2022-07-08T08:41:31.000Z</Time>
            <Position>
              <LatitudeDegrees>43.46097704954445362091064453125</LatitudeDegrees>
              <LongitudeDegrees>-1.56934373080730438232421875</LongitudeDegrees>
            </Position>
            <AltitudeMeters>27.200000762939453125</AltitudeMeters>
            <DistanceMeters>NAN</DistanceMeters>
          </Trackpoint>
          <Trackpoint>
            <Time>2022-07-08T08:41:38.000Z</Time>
            <Position>
              <LatitudeDegrees>43.46112540923058986663818359375</LatitudeDegrees>
              <LongitudeDegrees>-1.56934666447341442108154296875</LongitudeDegrees>
            </Position>
            <AltitudeMeters>27.799999237060546875</AltitudeMeters>
            <DistanceMeters>NAN</DistanceMeters>
          </Trackpoint>
          <Trackpoint>
            <Time>2022-07-08T08:41:43.000Z</Time>
            <Position>
              <LatitudeDegrees>43.46123638562858104705810546875</LatitudeDegrees>
              <LongitudeDegrees>-1.56939812935888767242431640625</LongitudeDegrees>
            </Position>
            <AltitudeMeters>28.3999996185302734375</AltitudeMeters>
            <DistanceMeters>NAN</DistanceMeters>
          </Trackpoint>
          <Trackpoint>
            <Time>2022-07-08T08:41:46.000Z</Time>
            <Position>
              <LatitudeDegrees>43.46130344085395336151123046875</LatitudeDegrees>
              <LongitudeDegrees>-1.56943492591381072998046875</LongitudeDegrees>
            </Position>
            <AltitudeMeters>28.3999996185302734375</AltitudeMeters>
            <DistanceMeters>NAN</DistanceMeters>
          </Trackpoint>
          <Trackpoint>
            <Time>2022-07-08T08:41:50.000Z</Time>
            <Position>
              <LatitudeDegrees>43.46138658933341503143310546875</LatitudeDegrees>
              <LongitudeDegrees>-1.56951547600328922271728515625</LongitudeDegrees>
            </Position>
            <AltitudeMeters>28.200000762939453125</AltitudeMeters>
            <DistanceMeters>NAN</DistanceMeters>
          </Trackpoint>
          <Trackpoint>
            <Time>2022-07-08T08:41:51.000Z</Time>
            <Position>
              <LatitudeDegrees>43.46139580942690372467041015625</LatitudeDegrees>
              <LongitudeDegrees>-1.569549255073070526123046875</LongitudeDegrees>
            </Position>
            <AltitudeMeters>28.200000762939453125</AltitudeMeters>
            <DistanceMeters>NAN</DistanceMeters>
          </Trackpoint>
          <Trackpoint>
            <Time>2022-07-08T08:41:52.000Z</Time>
            <Position>
              <LatitudeDegrees>43.46140243113040924072265625</LatitudeDegrees>
              <LongitudeDegrees>-1.569586805999279022216796875</LongitudeDegrees>
            </Position>
            <AltitudeMeters>28.200000762939453125</AltitudeMeters>
            <DistanceMeters>NAN</DistanceMeters>
          </Trackpoint>
          <Trackpoint>
            <Time>2022-07-08T08:41:54.000Z</Time>
            <Position>
              <LatitudeDegrees>43.46141986548900604248046875</LatitudeDegrees>
              <LongitudeDegrees>-1.56966852955520153045654296875</LongitudeDegrees>
            </Position>
            <AltitudeMeters>28.200000762939453125</AltitudeMeters>
            <DistanceMeters>NAN</DistanceMeters>
          </Trackpoint>
          <Trackpoint>
            <Time>2022-07-08T08:41:57.000Z</Time>
            <Position>
              <LatitudeDegrees>43.46147107891738414764404296875</LatitudeDegrees>
              <LongitudeDegrees>-1.56977556645870208740234375</LongitudeDegrees>
            </Position>
            <AltitudeMeters>28</AltitudeMeters>
            <DistanceMeters>NAN</DistanceMeters>
          </Trackpoint>
          <Trackpoint>
            <Time>2022-07-08T08:41:58.000Z</Time>
            <Position>
              <LatitudeDegrees>43.4614904411137104034423828125</LatitudeDegrees>
              <LongitudeDegrees>-1.5698079206049442291259765625</LongitudeDegrees>
            </Position>
            <AltitudeMeters>27.799999237060546875</AltitudeMeters>
            <DistanceMeters>NAN</DistanceMeters>
          </Trackpoint>
          <Trackpoint>
            <Time>2022-07-08T08:42:05.000Z</Time>
            <Position>
              <LatitudeDegrees>43.46159161068499088287353515625</LatitudeDegrees>
              <LongitudeDegrees>-1.56998075544834136962890625</LongitudeDegrees>
            </Position>
            <AltitudeMeters>27.799999237060546875</AltitudeMeters>
            <DistanceMeters>NAN</DistanceMeters>
          </Trackpoint>
          <Trackpoint>
            <Time>2022-07-08T08:42:08.000Z</Time>
            <Position>
              <LatitudeDegrees>43.4615980647504329681396484375</LatitudeDegrees>
              <LongitudeDegrees>-1.56999207101762294769287109375</LongitudeDegrees>
            </Position>
            <AltitudeMeters>27.3999996185302734375</AltitudeMeters>
            <DistanceMeters>NAN</DistanceMeters>
          </Trackpoint>
          <Trackpoint>
            <Time>2022-07-08T08:42:09.000Z</Time>
            <Position>
              <LatitudeDegrees>43.46159613691270351409912109375</LatitudeDegrees>
              <LongitudeDegrees>-1.56999056227505207061767578125</LongitudeDegrees>
            </Position>
            <AltitudeMeters>27.3999996185302734375</AltitudeMeters>
            <DistanceMeters>NAN</DistanceMeters>
          </Trackpoint>
          <Trackpoint>
            <Time>2022-07-08T08:42:23.000Z</Time>
            <Position>
              <LatitudeDegrees>43.4616215340793132781982421875</LatitudeDegrees>
              <LongitudeDegrees>-1.57008267939090728759765625</LongitudeDegrees>
            </Position>
            <AltitudeMeters>27.6000003814697265625</AltitudeMeters>
            <DistanceMeters>NAN</DistanceMeters>
          </Trackpoint>
          <Trackpoint>
            <Time>2022-07-08T08:42:25.000Z</Time>
            <Position>
              <LatitudeDegrees>43.46163972280919551849365234375</LatitudeDegrees>
              <LongitudeDegrees>-1.5701210685074329376220703125</LongitudeDegrees>
            </Position>
            <AltitudeMeters>27.6000003814697265625</AltitudeMeters>
            <DistanceMeters>NAN</DistanceMeters>
          </Trackpoint>
          <Trackpoint>
            <Time>2022-07-08T08:42:32.000Z</Time>
            <Position>
              <LatitudeDegrees>43.46173100173473358154296875</LatitudeDegrees>
              <LongitudeDegrees>-1.57030932605266571044921875</LongitudeDegrees>
            </Position>
            <AltitudeMeters>27.799999237060546875</AltitudeMeters>
            <DistanceMeters>NAN</DistanceMeters>
          </Trackpoint>
          <Trackpoint>
            <Time>2022-07-08T08:42:39.000Z</Time>
            <Position>
              <LatitudeDegrees>43.46188195981085300445556640625</LatitudeDegrees>
              <LongitudeDegrees>-1.5704493038356304168701171875</LongitudeDegrees>
            </Position>
            <AltitudeMeters>27.3999996185302734375</AltitudeMeters>
            <DistanceMeters>NAN</DistanceMeters>
          </Trackpoint>
          <Trackpoint>
            <Time>2022-07-08T08:42:42.000Z</Time>
            <Position>
              <LatitudeDegrees>43.46194867976009845733642578125</LatitudeDegrees>
              <LongitudeDegrees>-1.5705126710236072540283203125</LongitudeDegrees>
            </Position>
            <AltitudeMeters>27.799999237060546875</AltitudeMeters>
            <DistanceMeters>NAN</DistanceMeters>
          </Trackpoint>
          <Trackpoint>
            <Time>2022-07-08T08:42:44.000Z</Time>
            <Position>
              <LatitudeDegrees>43.46199452877044677734375</LatitudeDegrees>
              <LongitudeDegrees>-1.57055080868303775787353515625</LongitudeDegrees>
            </Position>
            <AltitudeMeters>27.799999237060546875</AltitudeMeters>
            <DistanceMeters>NAN</DistanceMeters>
          </Trackpoint>
          <Trackpoint>
            <Time>2022-07-08T08:42:47.000Z</Time>
            <Position>
              <LatitudeDegrees>43.46204389818012714385986328125</LatitudeDegrees>
              <LongitudeDegrees>-1.5706251561641693115234375</LongitudeDegrees>
            </Position>
            <AltitudeMeters>28</AltitudeMeters>
            <DistanceMeters>NAN</DistanceMeters>
          </Trackpoint>
          <Trackpoint>
            <Time>2022-07-08T08:42:49.000Z</Time>
            <Position>
              <LatitudeDegrees>43.46203987486660480499267578125</LatitudeDegrees>
              <LongitudeDegrees>-1.57066899351775646209716796875</LongitudeDegrees>
            </Position>
            <AltitudeMeters>28</AltitudeMeters>
            <DistanceMeters>NAN</DistanceMeters>
          </Trackpoint>
          <Trackpoint>
            <Time>2022-07-08T08:42:50.000Z</Time>
            <Position>
              <LatitudeDegrees>43.46202562563121318817138671875</LatitudeDegrees>
              <LongitudeDegrees>-1.57068391330540180206298828125</LongitudeDegrees>
            </Position>
            <AltitudeMeters>28.200000762939453125</AltitudeMeters>
            <DistanceMeters>NAN</DistanceMeters>
          </Trackpoint>
          <Trackpoint>
            <Time>2022-07-08T08:42:51.000Z</Time>
            <Position>
              <LatitudeDegrees>43.46200701780617237091064453125</LatitudeDegrees>
              <LongitudeDegrees>-1.5706886909902095794677734375</LongitudeDegrees>
            </Position>
            <AltitudeMeters>28.200000762939453125</AltitudeMeters>
            <DistanceMeters>NAN</DistanceMeters>
          </Trackpoint>
          <Trackpoint>
            <Time>2022-07-08T08:42:54.000Z</Time>
            <Position>
              <LatitudeDegrees>43.46194532699882984161376953125</LatitudeDegrees>
              <LongitudeDegrees>-1.5706501342356204986572265625</LongitudeDegrees>
            </Position>
            <AltitudeMeters>28.6000003814697265625</AltitudeMeters>
            <DistanceMeters>NAN</DistanceMeters>
          </Trackpoint>
          <Trackpoint>
            <Time>2022-07-08T08:42:59.000Z</Time>
            <Position>
              <LatitudeDegrees>43.46179763786494731903076171875</LatitudeDegrees>
              <LongitudeDegrees>-1.57062842510640621185302734375</LongitudeDegrees>
            </Position>
            <AltitudeMeters>28.3999996185302734375</AltitudeMeters>
            <DistanceMeters>NAN</DistanceMeters>
          </Trackpoint>
          <Trackpoint>
            <Time>2022-07-08T08:43:04.000Z</Time>
            <Position>
              <LatitudeDegrees>43.46160485409200191497802734375</LatitudeDegrees>
              <LongitudeDegrees>-1.5706420876085758209228515625</LongitudeDegrees>
            </Position>
            <AltitudeMeters>27.799999237060546875</AltitudeMeters>
            <DistanceMeters>NAN</DistanceMeters>
          </Trackpoint>
          <Trackpoint>
            <Time>2022-07-08T08:43:07.000Z</Time>
            <Position>
              <LatitudeDegrees>43.4614887647330760955810546875</LatitudeDegrees>
              <LongitudeDegrees>-1.57068709842860698699951171875</LongitudeDegrees>
            </Position>
            <AltitudeMeters>27.200000762939453125</AltitudeMeters>
            <DistanceMeters>NAN</DistanceMeters>
          </Trackpoint>
          <Trackpoint>
            <Time>2022-07-08T08:43:10.000Z</Time>
            <Position>
              <LatitudeDegrees>43.46135079860687255859375</LatitudeDegrees>
              <LongitudeDegrees>-1.57075717113912105560302734375</LongitudeDegrees>
            </Position>
            <AltitudeMeters>26.200000762939453125</AltitudeMeters>
            <DistanceMeters>NAN</DistanceMeters>
          </Trackpoint>
          <Trackpoint>
            <Time>2022-07-08T08:43:11.000Z</Time>
            <Position>
              <LatitudeDegrees>43.461305536329746246337890625</LatitudeDegrees>
              <LongitudeDegrees>-1.57078231684863567352294921875</LongitudeDegrees>
            </Position>
            <AltitudeMeters>26</AltitudeMeters>
            <DistanceMeters>NAN</DistanceMeters>
          </Trackpoint>
          <Trackpoint>
            <Time>2022-07-08T08:43:14.000Z</Time>
            <Position>
              <LatitudeDegrees>43.461184836924076080322265625</LatitudeDegrees>
              <LongitudeDegrees>-1.57085322774946689605712890625</LongitudeDegrees>
            </Position>
            <AltitudeMeters>25.6000003814697265625</AltitudeMeters>
            <DistanceMeters>NAN</DistanceMeters>
          </Trackpoint>
          <Trackpoint>
            <Time>2022-07-08T08:43:16.000Z</Time>
            <Position>
              <LatitudeDegrees>43.46108593046665191650390625</LatitudeDegrees>
              <LongitudeDegrees>-1.570917181670665740966796875</LongitudeDegrees>
            </Position>
            <AltitudeMeters>25</AltitudeMeters>
            <DistanceMeters>NAN</DistanceMeters>
          </Trackpoint>
          <Trackpoint>
            <Time>2022-07-08T08:43:18.000Z</Time>
            <Position>
              <LatitudeDegrees>43.46099297516047954559326171875</LatitudeDegrees>
              <LongitudeDegrees>-1.57097979448735713958740234375</LongitudeDegrees>
            </Position>
            <AltitudeMeters>24.6000003814697265625</AltitudeMeters>
            <DistanceMeters>NAN</DistanceMeters>
          </Trackpoint>
          <Trackpoint>
            <Time>2022-07-08T08:43:22.000Z</Time>
            <Position>
              <LatitudeDegrees>43.46080974675714969635009765625</LatitudeDegrees>
              <LongitudeDegrees>-1.571108959615230560302734375</LongitudeDegrees>
            </Position>
            <AltitudeMeters>23.6000003814697265625</AltitudeMeters>
            <DistanceMeters>NAN</DistanceMeters>
          </Trackpoint>
          <Trackpoint>
            <Time>2022-07-08T08:43:27.000Z</Time>
            <Position>
              <LatitudeDegrees>43.4605429507791996002197265625</LatitudeDegrees>
              <LongitudeDegrees>-1.5712717361748218536376953125</LongitudeDegrees>
            </Position>
            <AltitudeMeters>22.6000003814697265625</AltitudeMeters>
            <DistanceMeters>NAN</DistanceMeters>
          </Trackpoint>
          <Trackpoint>
            <Time>2022-07-08T08:43:29.000Z</Time>
            <Position>
              <LatitudeDegrees>43.4604443795979022979736328125</LatitudeDegrees>
              <LongitudeDegrees>-1.57133434899151325225830078125</LongitudeDegrees>
            </Position>
            <AltitudeMeters>22.799999237060546875</AltitudeMeters>
            <DistanceMeters>NAN</DistanceMeters>
          </Trackpoint>
          <Trackpoint>
            <Time>2022-07-08T08:43:30.000Z</Time>
            <Position>
              <LatitudeDegrees>43.460392244160175323486328125</LatitudeDegrees>
              <LongitudeDegrees>-1.57137022353708744049072265625</LongitudeDegrees>
            </Position>
            <AltitudeMeters>22.799999237060546875</AltitudeMeters>
            <DistanceMeters>NAN</DistanceMeters>
          </Trackpoint>
          <Trackpoint>
            <Time>2022-07-08T08:43:33.000Z</Time>
            <Position>
              <LatitudeDegrees>43.46024245955049991607666015625</LatitudeDegrees>
              <LongitudeDegrees>-1.57146871089935302734375</LongitudeDegrees>
            </Position>
            <AltitudeMeters>22.6000003814697265625</AltitudeMeters>
            <DistanceMeters>NAN</DistanceMeters>
          </Trackpoint>
          <Trackpoint>
            <Time>2022-07-08T08:43:35.000Z</Time>
            <Position>
              <LatitudeDegrees>43.4601718001067638397216796875</LatitudeDegrees>
              <LongitudeDegrees>-1.5715154819190502166748046875</LongitudeDegrees>
            </Position>
            <AltitudeMeters>22.3999996185302734375</AltitudeMeters>
            <DistanceMeters>NAN</DistanceMeters>
          </Trackpoint>
          <Trackpoint>
            <Time>2022-07-08T08:43:41.000Z</Time>
            <Position>
              <LatitudeDegrees>43.459975831210613250732421875</LatitudeDegrees>
              <LongitudeDegrees>-1.5716475807130336761474609375</LongitudeDegrees>
            </Position>
            <AltitudeMeters>22.6000003814697265625</AltitudeMeters>
            <DistanceMeters>NAN</DistanceMeters>
          </Trackpoint>
          <Trackpoint>
            <Time>2022-07-08T08:43:48.000Z</Time>
            <Position>
              <LatitudeDegrees>43.459832333028316497802734375</LatitudeDegrees>
              <LongitudeDegrees>-1.57174967229366302490234375</LongitudeDegrees>
            </Position>
            <AltitudeMeters>23.3999996185302734375</AltitudeMeters>
            <DistanceMeters>NAN</DistanceMeters>
          </Trackpoint>
          <Trackpoint>
            <Time>2022-07-08T08:43:49.000Z</Time>
            <Position>
              <LatitudeDegrees>43.459814898669719696044921875</LatitudeDegrees>
              <LongitudeDegrees>-1.5717619098722934722900390625</LongitudeDegrees>
            </Position>
            <AltitudeMeters>23.6000003814697265625</AltitudeMeters>
            <DistanceMeters>NAN</DistanceMeters>
          </Trackpoint>
          <Trackpoint>
            <Time>2022-07-08T08:43:50.000Z</Time>
            <Position>
              <LatitudeDegrees>43.45980006270110607147216796875</LatitudeDegrees>
              <LongitudeDegrees>-1.57177121378481388092041015625</LongitudeDegrees>
            </Position>
            <AltitudeMeters>23.6000003814697265625</AltitudeMeters>
            <DistanceMeters>NAN</DistanceMeters>
          </Trackpoint>
          <Trackpoint>
            <Time>2022-07-08T08:43:58.000Z</Time>
            <Position>
              <LatitudeDegrees>43.45966444350779056549072265625</LatitudeDegrees>
              <LongitudeDegrees>-1.57185117714107036590576171875</LongitudeDegrees>
            </Position>
            <AltitudeMeters>24.3999996185302734375</AltitudeMeters>
            <DistanceMeters>NAN</DistanceMeters>
          </Trackpoint>
          <Trackpoint>
            <Time>2022-07-08T08:43:59.000Z</Time>
            <Position>
              <LatitudeDegrees>43.4596480987966060638427734375</LatitudeDegrees>
              <LongitudeDegrees>-1.57185838557779788970947265625</LongitudeDegrees>
            </Position>
            <AltitudeMeters>24.799999237060546875</AltitudeMeters>
            <DistanceMeters>NAN</DistanceMeters>
          </Trackpoint>
          <Trackpoint>
            <Time>2022-07-08T08:44:00.000Z</Time>
            <Position>
              <LatitudeDegrees>43.45963611267507076263427734375</LatitudeDegrees>
              <LongitudeDegrees>-1.57186291180551052093505859375</LongitudeDegrees>
            </Position>
            <AltitudeMeters>24.799999237060546875</AltitudeMeters>
            <DistanceMeters>NAN</DistanceMeters>
          </Trackpoint>
          <Trackpoint>
            <Time>2022-07-08T08:44:07.000Z</Time>
            <Position>
              <LatitudeDegrees>43.45952899195253849029541015625</LatitudeDegrees>
              <LongitudeDegrees>-1.5719258598983287811279296875</LongitudeDegrees>
            </Position>
            <AltitudeMeters>25.6000003814697265625</AltitudeMeters>
            <DistanceMeters>NAN</DistanceMeters>
          </Trackpoint>
          <Trackpoint>
            <Time>2022-07-08T08:44:08.000Z</Time>
            <Position>
              <LatitudeDegrees>43.45951138995587825775146484375</LatitudeDegrees>
              <LongitudeDegrees>-1.57194019295275211334228515625</LongitudeDegrees>
            </Position>
            <AltitudeMeters>25.799999237060546875</AltitudeMeters>
            <DistanceMeters>NAN</DistanceMeters>
          </Trackpoint>
          <Trackpoint>
            <Time>2022-07-08T08:44:09.000Z</Time>
            <Position>
              <LatitudeDegrees>43.45949806272983551025390625</LatitudeDegrees>
              <LongitudeDegrees>-1.5719533525407314300537109375</LongitudeDegrees>
            </Position>
            <AltitudeMeters>25.799999237060546875</AltitudeMeters>
            <DistanceMeters>NAN</DistanceMeters>
          </Trackpoint>
          <Trackpoint>
            <Time>2022-07-08T08:44:14.000Z</Time>
            <Position>
              <LatitudeDegrees>43.45942539162933826446533203125</LatitudeDegrees>
              <LongitudeDegrees>-1.5719969384372234344482421875</LongitudeDegrees>
            </Position>
            <AltitudeMeters>26.3999996185302734375</AltitudeMeters>
            <DistanceMeters>NAN</DistanceMeters>
          </Trackpoint>
          <Trackpoint>
            <Time>2022-07-08T08:44:17.000Z</Time>
            <Position>
              <LatitudeDegrees>43.45938096754252910614013671875</LatitudeDegrees>
              <LongitudeDegrees>-1.57203222624957561492919921875</LongitudeDegrees>
            </Position>
            <AltitudeMeters>26.799999237060546875</AltitudeMeters>
            <DistanceMeters>NAN</DistanceMeters>
          </Trackpoint>
          <Trackpoint>
            <Time>2022-07-08T08:44:19.000Z</Time>
            <Position>
              <LatitudeDegrees>43.4593483619391918182373046875</LatitudeDegrees>
              <LongitudeDegrees>-1.57205485738813877105712890625</LongitudeDegrees>
            </Position>
            <AltitudeMeters>27</AltitudeMeters>
            <DistanceMeters>NAN</DistanceMeters>
          </Trackpoint>
          <Trackpoint>
            <Time>2022-07-08T08:44:25.000Z</Time>
            <Position>
              <LatitudeDegrees>43.459261693060398101806640625</LatitudeDegrees>
              <LongitudeDegrees>-1.572109423577785491943359375</LongitudeDegrees>
            </Position>
            <AltitudeMeters>27.6000003814697265625</AltitudeMeters>
            <DistanceMeters>NAN</DistanceMeters>
          </Trackpoint>
          <Trackpoint>
            <Time>2022-07-08T08:44:30.000Z</Time>
            <Position>
              <LatitudeDegrees>43.45918650738894939422607421875</LatitudeDegrees>
              <LongitudeDegrees>-1.57214638777077198028564453125</LongitudeDegrees>
            </Position>
            <AltitudeMeters>27.799999237060546875</AltitudeMeters>
            <DistanceMeters>NAN</DistanceMeters>
          </Trackpoint>
          <Trackpoint>
            <Time>2022-07-08T08:44:31.000Z</Time>
            <Position>
              <LatitudeDegrees>43.45917343162000179290771484375</LatitudeDegrees>
              <LongitudeDegrees>-1.57215426675975322723388671875</LongitudeDegrees>
            </Position>
            <AltitudeMeters>28</AltitudeMeters>
            <DistanceMeters>NAN</DistanceMeters>
          </Trackpoint>
          <Trackpoint>
            <Time>2022-07-08T08:44:39.000Z</Time>
            <Position>
              <LatitudeDegrees>43.45907016657292842864990234375</LatitudeDegrees>
              <LongitudeDegrees>-1.57222517766058444976806640625</LongitudeDegrees>
            </Position>
            <AltitudeMeters>28.799999237060546875</AltitudeMeters>
            <DistanceMeters>NAN</DistanceMeters>
          </Trackpoint>
          <Trackpoint>
            <Time>2022-07-08T08:44:40.000Z</Time>
            <Position>
              <LatitudeDegrees>43.4590513072907924652099609375</LatitudeDegrees>
              <LongitudeDegrees>-1.57223205082118511199951171875</LongitudeDegrees>
            </Position>
            <AltitudeMeters>29</AltitudeMeters>
            <DistanceMeters>NAN</DistanceMeters>
          </Trackpoint>
          <Trackpoint>
            <Time>2022-07-08T08:44:49.000Z</Time>
            <Position>
              <LatitudeDegrees>43.45891929231584072113037109375</LatitudeDegrees>
              <LongitudeDegrees>-1.57229256816208362579345703125</LongitudeDegrees>
            </Position>
            <AltitudeMeters>29.799999237060546875</AltitudeMeters>
            <DistanceMeters>NAN</DistanceMeters>
          </Trackpoint>
          <Trackpoint>
            <Time>2022-07-08T08:44:50.000Z</Time>
            <Position>
              <LatitudeDegrees>43.4589021094143390655517578125</LatitudeDegrees>
              <LongitudeDegrees>-1.57229692675173282623291015625</LongitudeDegrees>
            </Position>
            <AltitudeMeters>30</AltitudeMeters>
            <DistanceMeters>NAN</DistanceMeters>
          </Trackpoint>
          <Trackpoint>
            <Time>2022-07-08T08:44:58.000Z</Time>
            <Position>
              <LatitudeDegrees>43.4587959945201873779296875</LatitudeDegrees>
              <LongitudeDegrees>-1.57235207967460155487060546875</LongitudeDegrees>
            </Position>
            <AltitudeMeters>30.799999237060546875</AltitudeMeters>
            <DistanceMeters>NAN</DistanceMeters>
          </Trackpoint>
          <Trackpoint>
            <Time>2022-07-08T08:45:01.000Z</Time>
            <Position>
              <LatitudeDegrees>43.45876808278262615203857421875</LatitudeDegrees>
              <LongitudeDegrees>-1.57236129976809024810791015625</LongitudeDegrees>
            </Position>
            <AltitudeMeters>31</AltitudeMeters>
            <DistanceMeters>NAN</DistanceMeters>
          </Trackpoint>
          <Trackpoint>
            <Time>2022-07-08T08:45:08.000Z</Time>
            <Position>
              <LatitudeDegrees>43.458664901554584503173828125</LatitudeDegrees>
              <LongitudeDegrees>-1.57240220345556735992431640625</LongitudeDegrees>
            </Position>
            <AltitudeMeters>31.6000003814697265625</AltitudeMeters>
            <DistanceMeters>NAN</DistanceMeters>
          </Trackpoint>
          <Trackpoint>
            <Time>2022-07-08T08:45:11.000Z</Time>
            <Position>
              <LatitudeDegrees>43.45862022601068019866943359375</LatitudeDegrees>
              <LongitudeDegrees>-1.57242936082184314727783203125</LongitudeDegrees>
            </Position>
            <AltitudeMeters>32</AltitudeMeters>
            <DistanceMeters>NAN</DistanceMeters>
          </Trackpoint>
          <Trackpoint>
            <Time>2022-07-08T08:45:18.000Z</Time>
            <Position>
              <LatitudeDegrees>43.4585143625736236572265625</LatitudeDegrees>
              <LongitudeDegrees>-1.5724785625934600830078125</LongitudeDegrees>
            </Position>
            <AltitudeMeters>33</AltitudeMeters>
            <DistanceMeters>NAN</DistanceMeters>
          </Trackpoint>
          <Trackpoint>
            <Time>2022-07-08T08:45:22.000Z</Time>
            <Position>
              <LatitudeDegrees>43.45845560543239116668701171875</LatitudeDegrees>
              <LongitudeDegrees>-1.57250848598778247833251953125</LongitudeDegrees>
            </Position>
            <AltitudeMeters>33.40000152587890625</AltitudeMeters>
            <DistanceMeters>NAN</DistanceMeters>
          </Trackpoint>
          <Trackpoint>
            <Time>2022-07-08T08:45:27.000Z</Time>
            <Position>
              <LatitudeDegrees>43.4583950042724609375</LatitudeDegrees>
              <LongitudeDegrees>-1.5725670754909515380859375</LongitudeDegrees>
            </Position>
            <AltitudeMeters>34</AltitudeMeters>
            <DistanceMeters>NAN</DistanceMeters>
          </Trackpoint>
          <Trackpoint>
            <Time>2022-07-08T08:45:29.000Z</Time>
            <Position>
              <LatitudeDegrees>43.45836658962070941925048828125</LatitudeDegrees>
              <LongitudeDegrees>-1.57259984873235225677490234375</LongitudeDegrees>
            </Position>
            <AltitudeMeters>34.40000152587890625</AltitudeMeters>
            <DistanceMeters>NAN</DistanceMeters>
          </Trackpoint>
          <Trackpoint>
            <Time>2022-07-08T08:45:32.000Z</Time>
            <Position>
              <LatitudeDegrees>43.45833121798932552337646484375</LatitudeDegrees>
              <LongitudeDegrees>-1.572647206485271453857421875</LongitudeDegrees>
            </Position>
            <AltitudeMeters>34.59999847412109375</AltitudeMeters>
            <DistanceMeters>NAN</DistanceMeters>
          </Trackpoint>
          <Trackpoint>
            <Time>2022-07-08T08:45:34.000Z</Time>
            <Position>
              <LatitudeDegrees>43.458315543830394744873046875</LatitudeDegrees>
              <LongitudeDegrees>-1.5726839192211627960205078125</LongitudeDegrees>
            </Position>
            <AltitudeMeters>34.799999237060546875</AltitudeMeters>
            <DistanceMeters>NAN</DistanceMeters>
          </Trackpoint>
          <Trackpoint>
            <Time>2022-07-08T08:45:35.000Z</Time>
            <Position>
              <LatitudeDegrees>43.45830942504107952117919921875</LatitudeDegrees>
              <LongitudeDegrees>-1.57269724644720554351806640625</LongitudeDegrees>
            </Position>
            <AltitudeMeters>35</AltitudeMeters>
            <DistanceMeters>NAN</DistanceMeters>
          </Trackpoint>
          <Trackpoint>
            <Time>2022-07-08T08:45:36.000Z</Time>
            <Position>
              <LatitudeDegrees>43.45830154605209827423095703125</LatitudeDegrees>
              <LongitudeDegrees>-1.5727038681507110595703125</LongitudeDegrees>
            </Position>
            <AltitudeMeters>35.200000762939453125</AltitudeMeters>
            <DistanceMeters>NAN</DistanceMeters>
          </Trackpoint>
          <Trackpoint>
            <Time>2022-07-08T08:45:38.000Z</Time>
            <Position>
              <LatitudeDegrees>43.45830590464174747467041015625</LatitudeDegrees>
              <LongitudeDegrees>-1.5727253258228302001953125</LongitudeDegrees>
            </Position>
            <AltitudeMeters>35.200000762939453125</AltitudeMeters>
            <DistanceMeters>NAN</DistanceMeters>
          </Trackpoint>
          <Trackpoint>
            <Time>2022-07-08T08:45:41.000Z</Time>
            <Position>
              <LatitudeDegrees>43.458308167755603790283203125</LatitudeDegrees>
              <LongitudeDegrees>-1.5727275051176548004150390625</LongitudeDegrees>
            </Position>
            <AltitudeMeters>35.200000762939453125</AltitudeMeters>
            <DistanceMeters>NAN</DistanceMeters>
          </Trackpoint>
          <Trackpoint>
            <Time>2022-07-08T08:48:13.000Z</Time>
            <Position>
              <LatitudeDegrees>43.4582496620714664459228515625</LatitudeDegrees>
              <LongitudeDegrees>-1.57271920703351497650146484375</LongitudeDegrees>
            </Position>
            <AltitudeMeters>34</AltitudeMeters>
            <DistanceMeters>NAN</DistanceMeters>
          </Trackpoint>
          <Trackpoint>
            <Time>2022-07-08T08:48:15.000Z</Time>
            <Position>
              <LatitudeDegrees>43.4582137875258922576904296875</LatitudeDegrees>
              <LongitudeDegrees>-1.572720296680927276611328125</LongitudeDegrees>
            </Position>
            <AltitudeMeters>34.200000762939453125</AltitudeMeters>
            <DistanceMeters>NAN</DistanceMeters>
          </Trackpoint>
          <Trackpoint>
            <Time>2022-07-08T08:48:17.000Z</Time>
            <Position>
              <LatitudeDegrees>43.4581846185028553009033203125</LatitudeDegrees>
              <LongitudeDegrees>-1.5727040357887744903564453125</LongitudeDegrees>
            </Position>
            <AltitudeMeters>34.200000762939453125</AltitudeMeters>
            <DistanceMeters>NAN</DistanceMeters>
          </Trackpoint>
          <Trackpoint>
            <Time>2022-07-08T08:48:21.000Z</Time>
            <Position>
              <LatitudeDegrees>43.4581440500915050506591796875</LatitudeDegrees>
              <LongitudeDegrees>-1.57261745072901248931884765625</LongitudeDegrees>
            </Position>
            <AltitudeMeters>34</AltitudeMeters>
            <DistanceMeters>NAN</DistanceMeters>
          </Trackpoint>
          <Trackpoint>
            <Time>2022-07-08T08:48:24.000Z</Time>
            <Position>
              <LatitudeDegrees>43.4580800123512744903564453125</LatitudeDegrees>
              <LongitudeDegrees>-1.57258057035505771636962890625</LongitudeDegrees>
            </Position>
            <AltitudeMeters>33.59999847412109375</AltitudeMeters>
            <DistanceMeters>NAN</DistanceMeters>
          </Trackpoint>
          <Trackpoint>
            <Time>2022-07-08T08:48:26.000Z</Time>
            <Position>
              <LatitudeDegrees>43.45804472453892230987548828125</LatitudeDegrees>
              <LongitudeDegrees>-1.57257084734737873077392578125</LongitudeDegrees>
            </Position>
            <AltitudeMeters>33.59999847412109375</AltitudeMeters>
            <DistanceMeters>NAN</DistanceMeters>
          </Trackpoint>
          <Trackpoint>
            <Time>2022-07-08T08:48:33.000Z</Time>
            <Position>
              <LatitudeDegrees>43.45792620442807674407958984375</LatitudeDegrees>
              <LongitudeDegrees>-1.57256078906357288360595703125</LongitudeDegrees>
            </Position>
            <AltitudeMeters>34</AltitudeMeters>
            <DistanceMeters>NAN</DistanceMeters>
          </Trackpoint>
          <Trackpoint>
            <Time>2022-07-08T08:48:40.000Z</Time>
            <Position>
              <LatitudeDegrees>43.45779217779636383056640625</LatitudeDegrees>
              <LongitudeDegrees>-1.5725323744118213653564453125</LongitudeDegrees>
            </Position>
            <AltitudeMeters>34.200000762939453125</AltitudeMeters>
            <DistanceMeters>NAN</DistanceMeters>
          </Trackpoint>
          <Trackpoint>
            <Time>2022-07-08T08:48:49.000Z</Time>
            <Position>
              <LatitudeDegrees>43.4576039202511310577392578125</LatitudeDegrees>
              <LongitudeDegrees>-1.57250748015940189361572265625</LongitudeDegrees>
            </Position>
            <AltitudeMeters>34.200000762939453125</AltitudeMeters>
            <DistanceMeters>NAN</DistanceMeters>
          </Trackpoint>
          <Trackpoint>
            <Time>2022-07-08T08:48:56.000Z</Time>
            <Position>
              <LatitudeDegrees>43.45744349062442779541015625</LatitudeDegrees>
              <LongitudeDegrees>-1.572478227317333221435546875</LongitudeDegrees>
            </Position>
            <AltitudeMeters>34.40000152587890625</AltitudeMeters>
            <DistanceMeters>NAN</DistanceMeters>
          </Trackpoint>
          <Trackpoint>
            <Time>2022-07-08T08:48:59.000Z</Time>
            <Position>
              <LatitudeDegrees>43.457384817302227020263671875</LatitudeDegrees>
              <LongitudeDegrees>-1.57246892340481281280517578125</LongitudeDegrees>
            </Position>
            <AltitudeMeters>34.59999847412109375</AltitudeMeters>
            <DistanceMeters>NAN</DistanceMeters>
          </Trackpoint>
          <Trackpoint>
            <Time>2022-07-08T08:49:04.000Z</Time>
            <Position>
              <LatitudeDegrees>43.4572966396808624267578125</LatitudeDegrees>
              <LongitudeDegrees>-1.57247143797576427459716796875</LongitudeDegrees>
            </Position>
            <AltitudeMeters>34.799999237060546875</AltitudeMeters>
            <DistanceMeters>NAN</DistanceMeters>
          </Trackpoint>
          <Trackpoint>
            <Time>2022-07-08T08:49:10.000Z</Time>
            <Position>
              <LatitudeDegrees>43.4571429155766963958740234375</LatitudeDegrees>
              <LongitudeDegrees>-1.57245668582618236541748046875</LongitudeDegrees>
            </Position>
            <AltitudeMeters>35</AltitudeMeters>
            <DistanceMeters>NAN</DistanceMeters>
          </Trackpoint>
          <Trackpoint>
            <Time>2022-07-08T08:49:11.000Z</Time>
            <Position>
              <LatitudeDegrees>43.45711600966751575469970703125</LatitudeDegrees>
              <LongitudeDegrees>-1.5724552609026432037353515625</LongitudeDegrees>
            </Position>
            <AltitudeMeters>35</AltitudeMeters>
            <DistanceMeters>NAN</DistanceMeters>
          </Trackpoint>
          <Trackpoint>
            <Time>2022-07-08T08:49:17.000Z</Time>
            <Position>
              <LatitudeDegrees>43.45694568939507007598876953125</LatitudeDegrees>
              <LongitudeDegrees>-1.5724291093647480010986328125</LongitudeDegrees>
            </Position>
            <AltitudeMeters>35.200000762939453125</AltitudeMeters>
            <DistanceMeters>NAN</DistanceMeters>
          </Trackpoint>
          <Trackpoint>
            <Time>2022-07-08T08:49:24.000Z</Time>
            <Position>
              <LatitudeDegrees>43.4567536599934101104736328125</LatitudeDegrees>
              <LongitudeDegrees>-1.5724358148872852325439453125</LongitudeDegrees>
            </Position>
            <AltitudeMeters>35.59999847412109375</AltitudeMeters>
            <DistanceMeters>NAN</DistanceMeters>
          </Trackpoint>
          <Trackpoint>
            <Time>2022-07-08T08:49:26.000Z</Time>
            <Position>
              <LatitudeDegrees>43.45669448375701904296875</LatitudeDegrees>
              <LongitudeDegrees>-1.57244562171399593353271484375</LongitudeDegrees>
            </Position>
            <AltitudeMeters>35.799999237060546875</AltitudeMeters>
            <DistanceMeters>NAN</DistanceMeters>
          </Trackpoint>
          <Trackpoint>
            <Time>2022-07-08T08:49:31.000Z</Time>
            <Position>
              <LatitudeDegrees>43.4565705992281436920166015625</LatitudeDegrees>
              <LongitudeDegrees>-1.57250429503619670867919921875</LongitudeDegrees>
            </Position>
            <AltitudeMeters>36</AltitudeMeters>
            <DistanceMeters>NAN</DistanceMeters>
          </Trackpoint>
          <Trackpoint>
            <Time>2022-07-08T08:49:36.000Z</Time>
            <Position>
              <LatitudeDegrees>43.456455767154693603515625</LatitudeDegrees>
              <LongitudeDegrees>-1.57258409075438976287841796875</LongitudeDegrees>
            </Position>
            <AltitudeMeters>36.59999847412109375</AltitudeMeters>
            <DistanceMeters>NAN</DistanceMeters>
          </Trackpoint>
          <Trackpoint>
            <Time>2022-07-08T08:49:42.000Z</Time>
            <Position>
              <LatitudeDegrees>43.45632366836071014404296875</LatitudeDegrees>
              <LongitudeDegrees>-1.57270462252199649810791015625</LongitudeDegrees>
            </Position>
            <AltitudeMeters>37</AltitudeMeters>
            <DistanceMeters>NAN</DistanceMeters>
          </Trackpoint>
          <Trackpoint>
            <Time>2022-07-08T08:49:43.000Z</Time>
            <Position>
              <LatitudeDegrees>43.45630413852632045745849609375</LatitudeDegrees>
              <LongitudeDegrees>-1.572724319994449615478515625</LongitudeDegrees>
            </Position>
            <AltitudeMeters>37</AltitudeMeters>
            <DistanceMeters>NAN</DistanceMeters>
          </Trackpoint>
          <Trackpoint>
            <Time>2022-07-08T08:49:47.000Z</Time>
            <Position>
              <LatitudeDegrees>43.456225432455539703369140625</LatitudeDegrees>
              <LongitudeDegrees>-1.5727935545146465301513671875</LongitudeDegrees>
            </Position>
            <AltitudeMeters>37.40000152587890625</AltitudeMeters>
            <DistanceMeters>NAN</DistanceMeters>
          </Trackpoint>
          <Trackpoint>
            <Time>2022-07-08T08:49:52.000Z</Time>
            <Position>
              <LatitudeDegrees>43.45611252821981906890869140625</LatitudeDegrees>
              <LongitudeDegrees>-1.5728911198675632476806640625</LongitudeDegrees>
            </Position>
            <AltitudeMeters>38</AltitudeMeters>
            <DistanceMeters>NAN</DistanceMeters>
          </Trackpoint>
          <Trackpoint>
            <Time>2022-07-08T08:49:53.000Z</Time>
            <Position>
              <LatitudeDegrees>43.45609039999544620513916015625</LatitudeDegrees>
              <LongitudeDegrees>-1.57290964387357234954833984375</LongitudeDegrees>
            </Position>
            <AltitudeMeters>38</AltitudeMeters>
            <DistanceMeters>NAN</DistanceMeters>
          </Trackpoint>
          <Trackpoint>
            <Time>2022-07-08T08:49:56.000Z</Time>
            <Position>
              <LatitudeDegrees>43.45602250657975673675537109375</LatitudeDegrees>
              <LongitudeDegrees>-1.572962366044521331787109375</LongitudeDegrees>
            </Position>
            <AltitudeMeters>38.59999847412109375</AltitudeMeters>
            <DistanceMeters>NAN</DistanceMeters>
          </Trackpoint>
          <Trackpoint>
            <Time>2022-07-08T08:50:03.000Z</Time>
            <Position>
              <LatitudeDegrees>43.45587364397943019866943359375</LatitudeDegrees>
              <LongitudeDegrees>-1.57311583869159221649169921875</LongitudeDegrees>
            </Position>
            <AltitudeMeters>38.799999237060546875</AltitudeMeters>
            <DistanceMeters>NAN</DistanceMeters>
          </Trackpoint>
          <Trackpoint>
            <Time>2022-07-08T08:50:07.000Z</Time>
            <Position>
              <LatitudeDegrees>43.4557786770164966583251953125</LatitudeDegrees>
              <LongitudeDegrees>-1.57320074737071990966796875</LongitudeDegrees>
            </Position>
            <AltitudeMeters>39</AltitudeMeters>
            <DistanceMeters>NAN</DistanceMeters>
          </Trackpoint>
          <Trackpoint>
            <Time>2022-07-08T08:50:10.000Z</Time>
            <Position>
              <LatitudeDegrees>43.45570298843085765838623046875</LatitudeDegrees>
              <LongitudeDegrees>-1.5732599236071109771728515625</LongitudeDegrees>
            </Position>
            <AltitudeMeters>39.200000762939453125</AltitudeMeters>
            <DistanceMeters>NAN</DistanceMeters>
          </Trackpoint>
          <Trackpoint>
            <Time>2022-07-08T08:50:12.000Z</Time>
            <Position>
              <LatitudeDegrees>43.4556438960134983062744140625</LatitudeDegrees>
              <LongitudeDegrees>-1.573296971619129180908203125</LongitudeDegrees>
            </Position>
            <AltitudeMeters>39.40000152587890625</AltitudeMeters>
            <DistanceMeters>NAN</DistanceMeters>
          </Trackpoint>
          <Trackpoint>
            <Time>2022-07-08T08:50:15.000Z</Time>
            <Position>
              <LatitudeDegrees>43.45556301064789295196533203125</LatitudeDegrees>
              <LongitudeDegrees>-1.5733422338962554931640625</LongitudeDegrees>
            </Position>
            <AltitudeMeters>39.200000762939453125</AltitudeMeters>
            <DistanceMeters>NAN</DistanceMeters>
          </Trackpoint>
          <Trackpoint>
            <Time>2022-07-08T08:50:19.000Z</Time>
            <Position>
              <LatitudeDegrees>43.45544801093637943267822265625</LatitudeDegrees>
              <LongitudeDegrees>-1.57338154502213001251220703125</LongitudeDegrees>
            </Position>
            <AltitudeMeters>39</AltitudeMeters>
            <DistanceMeters>NAN</DistanceMeters>
          </Trackpoint>
          <Trackpoint>
            <Time>2022-07-08T08:50:23.000Z</Time>
            <Position>
              <LatitudeDegrees>43.4553116373717784881591796875</LatitudeDegrees>
              <LongitudeDegrees>-1.573407948017120361328125</LongitudeDegrees>
            </Position>
            <AltitudeMeters>39</AltitudeMeters>
            <DistanceMeters>NAN</DistanceMeters>
          </Trackpoint>
          <Trackpoint>
            <Time>2022-07-08T08:50:27.000Z</Time>
            <Position>
              <LatitudeDegrees>43.4551728330552577972412109375</LatitudeDegrees>
              <LongitudeDegrees>-1.57342814840376377105712890625</LongitudeDegrees>
            </Position>
            <AltitudeMeters>39</AltitudeMeters>
            <DistanceMeters>NAN</DistanceMeters>
          </Trackpoint>
          <Trackpoint>
            <Time>2022-07-08T08:50:36.000Z</Time>
            <Position>
              <LatitudeDegrees>43.4548385627567768096923828125</LatitudeDegrees>
              <LongitudeDegrees>-1.57348112203180789947509765625</LongitudeDegrees>
            </Position>
            <AltitudeMeters>39</AltitudeMeters>
            <DistanceMeters>NAN</DistanceMeters>
          </Trackpoint>
          <Trackpoint>
            <Time>2022-07-08T08:50:37.000Z</Time>
            <Position>
              <LatitudeDegrees>43.4547986648976802825927734375</LatitudeDegrees>
              <LongitudeDegrees>-1.573486737906932830810546875</LongitudeDegrees>
            </Position>
            <AltitudeMeters>39</AltitudeMeters>
            <DistanceMeters>NAN</DistanceMeters>
          </Trackpoint>
          <Trackpoint>
            <Time>2022-07-08T08:50:45.000Z</Time>
            <Position>
              <LatitudeDegrees>43.4545688331127166748046875</LatitudeDegrees>
              <LongitudeDegrees>-1.5735291503369808197021484375</LongitudeDegrees>
            </Position>
            <AltitudeMeters>39.40000152587890625</AltitudeMeters>
            <DistanceMeters>NAN</DistanceMeters>
          </Trackpoint>
          <Trackpoint>
            <Time>2022-07-08T08:50:50.000Z</Time>
            <Position>
              <LatitudeDegrees>43.45446598716080188751220703125</LatitudeDegrees>
              <LongitudeDegrees>-1.57355882227420806884765625</LongitudeDegrees>
            </Position>
            <AltitudeMeters>40</AltitudeMeters>
            <DistanceMeters>NAN</DistanceMeters>
          </Trackpoint>
          <Trackpoint>
            <Time>2022-07-08T08:50:51.000Z</Time>
            <Position>
              <LatitudeDegrees>43.45444612205028533935546875</LatitudeDegrees>
              <LongitudeDegrees>-1.5735636837780475616455078125</LongitudeDegrees>
            </Position>
            <AltitudeMeters>40.200000762939453125</AltitudeMeters>
            <DistanceMeters>NAN</DistanceMeters>
          </Trackpoint>
          <Trackpoint>
            <Time>2022-07-08T08:50:52.000Z</Time>
            <Position>
              <LatitudeDegrees>43.45442307181656360626220703125</LatitudeDegrees>
              <LongitudeDegrees>-1.57356695272028446197509765625</LongitudeDegrees>
            </Position>
            <AltitudeMeters>40.200000762939453125</AltitudeMeters>
            <DistanceMeters>NAN</DistanceMeters>
          </Trackpoint>
          <Trackpoint>
            <Time>2022-07-08T08:50:58.000Z</Time>
            <Position>
              <LatitudeDegrees>43.45434612594544887542724609375</LatitudeDegrees>
              <LongitudeDegrees>-1.57360215671360492706298828125</LongitudeDegrees>
            </Position>
            <AltitudeMeters>41.200000762939453125</AltitudeMeters>
            <DistanceMeters>NAN</DistanceMeters>
          </Trackpoint>
          <Trackpoint>
            <Time>2022-07-08T08:50:59.000Z</Time>
            <Position>
              <LatitudeDegrees>43.454333804547786712646484375</LatitudeDegrees>
              <LongitudeDegrees>-1.573611460626125335693359375</LongitudeDegrees>
            </Position>
            <AltitudeMeters>41.200000762939453125</AltitudeMeters>
            <DistanceMeters>NAN</DistanceMeters>
          </Trackpoint>
          <Trackpoint>
            <Time>2022-07-08T08:51:04.000Z</Time>
            <Position>
              <LatitudeDegrees>43.45426314510405063629150390625</LatitudeDegrees>
              <LongitudeDegrees>-1.57365965656936168670654296875</LongitudeDegrees>
            </Position>
            <AltitudeMeters>42</AltitudeMeters>
            <DistanceMeters>NAN</DistanceMeters>
          </Trackpoint>
          <Trackpoint>
            <Time>2022-07-08T08:51:05.000Z</Time>
            <Position>
              <LatitudeDegrees>43.45424436964094638824462890625</LatitudeDegrees>
              <LongitudeDegrees>-1.57366585917770862579345703125</LongitudeDegrees>
            </Position>
            <AltitudeMeters>42</AltitudeMeters>
            <DistanceMeters>NAN</DistanceMeters>
          </Trackpoint>
          <Trackpoint>
            <Time>2022-07-08T08:51:09.000Z</Time>
            <Position>
              <LatitudeDegrees>43.45416306518018245697021484375</LatitudeDegrees>
              <LongitudeDegrees>-1.57367608509957790374755859375</LongitudeDegrees>
            </Position>
            <AltitudeMeters>42.40000152587890625</AltitudeMeters>
            <DistanceMeters>NAN</DistanceMeters>
          </Trackpoint>
          <Trackpoint>
            <Time>2022-07-08T08:51:13.000Z</Time>
            <Position>
              <LatitudeDegrees>43.45409651286900043487548828125</LatitudeDegrees>
              <LongitudeDegrees>-1.57368488609790802001953125</LongitudeDegrees>
            </Position>
            <AltitudeMeters>42.59999847412109375</AltitudeMeters>
            <DistanceMeters>NAN</DistanceMeters>
          </Trackpoint>
          <Trackpoint>
            <Time>2022-07-08T08:51:14.000Z</Time>
            <Position>
              <LatitudeDegrees>43.45408360473811626434326171875</LatitudeDegrees>
              <LongitudeDegrees>-1.57369117252528667449951171875</LongitudeDegrees>
            </Position>
            <AltitudeMeters>42.799999237060546875</AltitudeMeters>
            <DistanceMeters>NAN</DistanceMeters>
          </Trackpoint>
          <Trackpoint>
            <Time>2022-07-08T08:51:20.000Z</Time>
            <Position>
              <LatitudeDegrees>43.45398838631808757781982421875</LatitudeDegrees>
              <LongitudeDegrees>-1.57373316586017608642578125</LongitudeDegrees>
            </Position>
            <AltitudeMeters>43.40000152587890625</AltitudeMeters>
            <DistanceMeters>NAN</DistanceMeters>
          </Trackpoint>
          <Trackpoint>
            <Time>2022-07-08T08:51:24.000Z</Time>
            <Position>
              <LatitudeDegrees>43.45392367802560329437255859375</LatitudeDegrees>
              <LongitudeDegrees>-1.5737480856478214263916015625</LongitudeDegrees>
            </Position>
            <AltitudeMeters>44</AltitudeMeters>
            <DistanceMeters>NAN</DistanceMeters>
          </Trackpoint>
          <Trackpoint>
            <Time>2022-07-08T08:51:29.000Z</Time>
            <Position>
              <LatitudeDegrees>43.45383399166166782379150390625</LatitudeDegrees>
              <LongitudeDegrees>-1.5737445652484893798828125</LongitudeDegrees>
            </Position>
            <AltitudeMeters>44.59999847412109375</AltitudeMeters>
            <DistanceMeters>NAN</DistanceMeters>
          </Trackpoint>
          <Trackpoint>
            <Time>2022-07-08T08:51:32.000Z</Time>
            <Position>
              <LatitudeDegrees>43.45379258506000041961669921875</LatitudeDegrees>
              <LongitudeDegrees>-1.5737625025212764739990234375</LongitudeDegrees>
            </Position>
            <AltitudeMeters>44.799999237060546875</AltitudeMeters>
            <DistanceMeters>NAN</DistanceMeters>
          </Trackpoint>
          <Trackpoint>
            <Time>2022-07-08T08:51:38.000Z</Time>
            <Position>
              <LatitudeDegrees>43.45370449125766754150390625</LatitudeDegrees>
              <LongitudeDegrees>-1.57375906594097614288330078125</LongitudeDegrees>
            </Position>
            <AltitudeMeters>45.59999847412109375</AltitudeMeters>
            <DistanceMeters>NAN</DistanceMeters>
          </Trackpoint>
          <Trackpoint>
            <Time>2022-07-08T08:51:39.000Z</Time>
            <Position>
              <LatitudeDegrees>43.45368973910808563232421875</LatitudeDegrees>
              <LongitudeDegrees>-1.57375755719840526580810546875</LongitudeDegrees>
            </Position>
            <AltitudeMeters>45.799999237060546875</AltitudeMeters>
            <DistanceMeters>NAN</DistanceMeters>
          </Trackpoint>
          <Trackpoint>
            <Time>2022-07-08T08:51:45.000Z</Time>
            <Position>
              <LatitudeDegrees>43.45360466279089450836181640625</LatitudeDegrees>
              <LongitudeDegrees>-1.5737390331923961639404296875</LongitudeDegrees>
            </Position>
            <AltitudeMeters>46.200000762939453125</AltitudeMeters>
            <DistanceMeters>NAN</DistanceMeters>
          </Trackpoint>
          <Trackpoint>
            <Time>2022-07-08T08:51:46.000Z</Time>
            <Position>
              <LatitudeDegrees>43.45358789898455142974853515625</LatitudeDegrees>
              <LongitudeDegrees>-1.5737350098788738250732421875</LongitudeDegrees>
            </Position>
            <AltitudeMeters>46.40000152587890625</AltitudeMeters>
            <DistanceMeters>NAN</DistanceMeters>
          </Trackpoint>
          <Trackpoint>
            <Time>2022-07-08T08:51:48.000Z</Time>
            <Position>
              <LatitudeDegrees>43.4535524435341358184814453125</LatitudeDegrees>
              <LongitudeDegrees>-1.57371212728321552276611328125</LongitudeDegrees>
            </Position>
            <AltitudeMeters>46.59999847412109375</AltitudeMeters>
            <DistanceMeters>NAN</DistanceMeters>
          </Trackpoint>
          <Trackpoint>
            <Time>2022-07-08T08:51:49.000Z</Time>
            <Position>
              <LatitudeDegrees>43.45353676937520503997802734375</LatitudeDegrees>
              <LongitudeDegrees>-1.57370978035032749176025390625</LongitudeDegrees>
            </Position>
            <AltitudeMeters>46.799999237060546875</AltitudeMeters>
            <DistanceMeters>NAN</DistanceMeters>
          </Trackpoint>
          <Trackpoint>
            <Time>2022-07-08T08:51:50.000Z</Time>
            <Position>
              <LatitudeDegrees>43.4535229392349720001220703125</LatitudeDegrees>
              <LongitudeDegrees>-1.573717407882213592529296875</LongitudeDegrees>
            </Position>
            <AltitudeMeters>46.799999237060546875</AltitudeMeters>
            <DistanceMeters>NAN</DistanceMeters>
          </Trackpoint>
          <Trackpoint>
            <Time>2022-07-08T08:51:51.000Z</Time>
            <Position>
              <LatitudeDegrees>43.45351011492311954498291015625</LatitudeDegrees>
              <LongitudeDegrees>-1.5737293101847171783447265625</LongitudeDegrees>
            </Position>
            <AltitudeMeters>46.799999237060546875</AltitudeMeters>
            <DistanceMeters>NAN</DistanceMeters>
          </Trackpoint>
          <Trackpoint>
            <Time>2022-07-08T08:51:54.000Z</Time>
            <Position>
              <LatitudeDegrees>43.4534719772636890411376953125</LatitudeDegrees>
              <LongitudeDegrees>-1.57377080060541629791259765625</LongitudeDegrees>
            </Position>
            <AltitudeMeters>47</AltitudeMeters>
            <DistanceMeters>NAN</DistanceMeters>
          </Trackpoint>
          <Trackpoint>
            <Time>2022-07-08T08:52:02.000Z</Time>
            <Position>
              <LatitudeDegrees>43.45335446298122406005859375</LatitudeDegrees>
              <LongitudeDegrees>-1.5738352574408054351806640625</LongitudeDegrees>
            </Position>
            <AltitudeMeters>47.59999847412109375</AltitudeMeters>
            <DistanceMeters>NAN</DistanceMeters>
          </Trackpoint>
          <Trackpoint>
            <Time>2022-07-08T08:52:04.000Z</Time>
            <Position>
              <LatitudeDegrees>43.4533314965665340423583984375</LatitudeDegrees>
              <LongitudeDegrees>-1.5738459862768650054931640625</LongitudeDegrees>
            </Position>
            <AltitudeMeters>48</AltitudeMeters>
            <DistanceMeters>NAN</DistanceMeters>
          </Trackpoint>
          <Trackpoint>
            <Time>2022-07-08T08:52:09.000Z</Time>
            <Position>
              <LatitudeDegrees>43.45326117239892482757568359375</LatitudeDegrees>
              <LongitudeDegrees>-1.57386115752160549163818359375</LongitudeDegrees>
            </Position>
            <AltitudeMeters>48.799999237060546875</AltitudeMeters>
            <DistanceMeters>NAN</DistanceMeters>
          </Trackpoint>
          <Trackpoint>
            <Time>2022-07-08T08:52:11.000Z</Time>
            <Position>
              <LatitudeDegrees>43.45323250629007816314697265625</LatitudeDegrees>
              <LongitudeDegrees>-1.5738785080611705780029296875</LongitudeDegrees>
            </Position>
            <AltitudeMeters>49</AltitudeMeters>
            <DistanceMeters>NAN</DistanceMeters>
          </Trackpoint>
          <Trackpoint>
            <Time>2022-07-08T08:52:18.000Z</Time>
            <Position>
              <LatitudeDegrees>43.453134186565876007080078125</LatitudeDegrees>
              <LongitudeDegrees>-1.5739465691149234771728515625</LongitudeDegrees>
            </Position>
            <AltitudeMeters>49.59999847412109375</AltitudeMeters>
            <DistanceMeters>NAN</DistanceMeters>
          </Trackpoint>
          <Trackpoint>
            <Time>2022-07-08T08:52:22.000Z</Time>
            <Position>
              <LatitudeDegrees>43.45307609997689723968505859375</LatitudeDegrees>
              <LongitudeDegrees>-1.57396056689321994781494140625</LongitudeDegrees>
            </Position>
            <AltitudeMeters>49.799999237060546875</AltitudeMeters>
            <DistanceMeters>NAN</DistanceMeters>
          </Trackpoint>
          <Trackpoint>
            <Time>2022-07-08T08:52:27.000Z</Time>
            <Position>
              <LatitudeDegrees>43.4530066139996051788330078125</LatitudeDegrees>
              <LongitudeDegrees>-1.57396475784480571746826171875</LongitudeDegrees>
            </Position>
            <AltitudeMeters>50.200000762939453125</AltitudeMeters>
            <DistanceMeters>NAN</DistanceMeters>
          </Trackpoint>
          <Trackpoint>
            <Time>2022-07-08T08:52:33.000Z</Time>
            <Position>
              <LatitudeDegrees>43.45291164703667163848876953125</LatitudeDegrees>
              <LongitudeDegrees>-1.573983617126941680908203125</LongitudeDegrees>
            </Position>
            <AltitudeMeters>50.799999237060546875</AltitudeMeters>
            <DistanceMeters>NAN</DistanceMeters>
          </Trackpoint>
          <Trackpoint>
            <Time>2022-07-08T08:52:34.000Z</Time>
            <Position>
              <LatitudeDegrees>43.45289739780128002166748046875</LatitudeDegrees>
              <LongitudeDegrees>-1.57398571260273456573486328125</LongitudeDegrees>
            </Position>
            <AltitudeMeters>50.799999237060546875</AltitudeMeters>
            <DistanceMeters>NAN</DistanceMeters>
          </Trackpoint>
          <Trackpoint>
            <Time>2022-07-08T08:52:36.000Z</Time>
            <Position>
              <LatitudeDegrees>43.452867306768894195556640625</LatitudeDegrees>
              <LongitudeDegrees>-1.57399258576333522796630859375</LongitudeDegrees>
            </Position>
            <AltitudeMeters>51.200000762939453125</AltitudeMeters>
            <DistanceMeters>NAN</DistanceMeters>
          </Trackpoint>
          <Trackpoint>
            <Time>2022-07-08T08:52:44.000Z</Time>
            <Position>
              <LatitudeDegrees>43.45273965038359165191650390625</LatitudeDegrees>
              <LongitudeDegrees>-1.573999710381031036376953125</LongitudeDegrees>
            </Position>
            <AltitudeMeters>52</AltitudeMeters>
            <DistanceMeters>NAN</DistanceMeters>
          </Trackpoint>
          <Trackpoint>
            <Time>2022-07-08T08:52:46.000Z</Time>
            <Position>
              <LatitudeDegrees>43.4527122415602207183837890625</LatitudeDegrees>
              <LongitudeDegrees>-1.5739988721907138824462890625</LongitudeDegrees>
            </Position>
            <AltitudeMeters>52</AltitudeMeters>
            <DistanceMeters>NAN</DistanceMeters>
          </Trackpoint>
          <Trackpoint>
            <Time>2022-07-08T08:52:55.000Z</Time>
            <Position>
              <LatitudeDegrees>43.45257234759628772735595703125</LatitudeDegrees>
              <LongitudeDegrees>-1.57401069067418575286865234375</LongitudeDegrees>
            </Position>
            <AltitudeMeters>52.799999237060546875</AltitudeMeters>
            <DistanceMeters>NAN</DistanceMeters>
          </Trackpoint>
          <Trackpoint>
            <Time>2022-07-08T08:52:56.000Z</Time>
            <Position>
              <LatitudeDegrees>43.4525585174560546875</LatitudeDegrees>
              <LongitudeDegrees>-1.574008762836456298828125</LongitudeDegrees>
            </Position>
            <AltitudeMeters>52.799999237060546875</AltitudeMeters>
            <DistanceMeters>NAN</DistanceMeters>
          </Trackpoint>
          <Trackpoint>
            <Time>2022-07-08T08:53:00.000Z</Time>
            <Position>
              <LatitudeDegrees>43.45250126905739307403564453125</LatitudeDegrees>
              <LongitudeDegrees>-1.57400767318904399871826171875</LongitudeDegrees>
            </Position>
            <AltitudeMeters>53</AltitudeMeters>
            <DistanceMeters>NAN</DistanceMeters>
          </Trackpoint>
          <Trackpoint>
            <Time>2022-07-08T08:53:04.000Z</Time>
            <Position>
              <LatitudeDegrees>43.45244863070547580718994140625</LatitudeDegrees>
              <LongitudeDegrees>-1.57401437871158123016357421875</LongitudeDegrees>
            </Position>
            <AltitudeMeters>53.59999847412109375</AltitudeMeters>
            <DistanceMeters>NAN</DistanceMeters>
          </Trackpoint>
          <Trackpoint>
            <Time>2022-07-08T08:53:07.000Z</Time>
            <Position>
              <LatitudeDegrees>43.45240236259996891021728515625</LatitudeDegrees>
              <LongitudeDegrees>-1.5740153007209300994873046875</LongitudeDegrees>
            </Position>
            <AltitudeMeters>53.799999237060546875</AltitudeMeters>
            <DistanceMeters>NAN</DistanceMeters>
          </Trackpoint>
          <Trackpoint>
            <Time>2022-07-08T08:53:10.000Z</Time>
            <Position>
              <LatitudeDegrees>43.45235676504671573638916015625</LatitudeDegrees>
              <LongitudeDegrees>-1.57402217388153076171875</LongitudeDegrees>
            </Position>
            <AltitudeMeters>54.200000762939453125</AltitudeMeters>
            <DistanceMeters>NAN</DistanceMeters>
          </Trackpoint>
          <Trackpoint>
            <Time>2022-07-08T08:53:14.000Z</Time>
            <Position>
              <LatitudeDegrees>43.45229490660130977630615234375</LatitudeDegrees>
              <LongitudeDegrees>-1.57401404343545436859130859375</LongitudeDegrees>
            </Position>
            <AltitudeMeters>54.59999847412109375</AltitudeMeters>
            <DistanceMeters>NAN</DistanceMeters>
          </Trackpoint>
          <Trackpoint>
            <Time>2022-07-08T08:53:21.000Z</Time>
            <Position>
              <LatitudeDegrees>43.452196754515171051025390625</LatitudeDegrees>
              <LongitudeDegrees>-1.57401152886450290679931640625</LongitudeDegrees>
            </Position>
            <AltitudeMeters>55.40000152587890625</AltitudeMeters>
            <DistanceMeters>NAN</DistanceMeters>
          </Trackpoint>
          <Trackpoint>
            <Time>2022-07-08T08:53:22.000Z</Time>
            <Position>
              <LatitudeDegrees>43.4521848522126674652099609375</LatitudeDegrees>
              <LongitudeDegrees>-1.57401236705482006072998046875</LongitudeDegrees>
            </Position>
            <AltitudeMeters>55.59999847412109375</AltitudeMeters>
            <DistanceMeters>NAN</DistanceMeters>
          </Trackpoint>
          <Trackpoint>
            <Time>2022-07-08T08:53:30.000Z</Time>
            <Position>
              <LatitudeDegrees>43.45205493271350860595703125</LatitudeDegrees>
              <LongitudeDegrees>-1.574007757008075714111328125</LongitudeDegrees>
            </Position>
            <AltitudeMeters>56.200000762939453125</AltitudeMeters>
            <DistanceMeters>NAN</DistanceMeters>
          </Trackpoint>
          <Trackpoint>
            <Time>2022-07-08T08:53:32.000Z</Time>
            <Position>
              <LatitudeDegrees>43.45202383585274219512939453125</LatitudeDegrees>
              <LongitudeDegrees>-1.5740153007209300994873046875</LongitudeDegrees>
            </Position>
            <AltitudeMeters>56.40000152587890625</AltitudeMeters>
            <DistanceMeters>NAN</DistanceMeters>
          </Trackpoint>
          <Trackpoint>
            <Time>2022-07-08T08:53:38.000Z</Time>
            <Position>
              <LatitudeDegrees>43.451941274106502532958984375</LatitudeDegrees>
              <LongitudeDegrees>-1.5740437991917133331298828125</LongitudeDegrees>
            </Position>
            <AltitudeMeters>57</AltitudeMeters>
            <DistanceMeters>NAN</DistanceMeters>
          </Trackpoint>
          <Trackpoint>
            <Time>2022-07-08T08:53:39.000Z</Time>
            <Position>
              <LatitudeDegrees>43.45192308537662029266357421875</LatitudeDegrees>
              <LongitudeDegrees>-1.5740562044084072113037109375</LongitudeDegrees>
            </Position>
            <AltitudeMeters>57</AltitudeMeters>
            <DistanceMeters>NAN</DistanceMeters>
          </Trackpoint>
          <Trackpoint>
            <Time>2022-07-08T08:53:45.000Z</Time>
            <Position>
              <LatitudeDegrees>43.45183557830750942230224609375</LatitudeDegrees>
              <LongitudeDegrees>-1.5741135366261005401611328125</LongitudeDegrees>
            </Position>
            <AltitudeMeters>57.40000152587890625</AltitudeMeters>
            <DistanceMeters>NAN</DistanceMeters>
          </Trackpoint>
          <Trackpoint>
            <Time>2022-07-08T08:53:50.000Z</Time>
            <Position>
              <LatitudeDegrees>43.45177053473889827728271484375</LatitudeDegrees>
              <LongitudeDegrees>-1.57415687106549739837646484375</LongitudeDegrees>
            </Position>
            <AltitudeMeters>57.799999237060546875</AltitudeMeters>
            <DistanceMeters>NAN</DistanceMeters>
          </Trackpoint>
          <Trackpoint>
            <Time>2022-07-08T08:54:00.000Z</Time>
            <Position>
              <LatitudeDegrees>43.45159518532454967498779296875</LatitudeDegrees>
              <LongitudeDegrees>-1.57421504147350788116455078125</LongitudeDegrees>
            </Position>
            <AltitudeMeters>58.200000762939453125</AltitudeMeters>
            <DistanceMeters>NAN</DistanceMeters>
          </Trackpoint>
          <Trackpoint>
            <Time>2022-07-08T08:54:04.000Z</Time>
            <Position>
              <LatitudeDegrees>43.4515245258808135986328125</LatitudeDegrees>
              <LongitudeDegrees>-1.574258543550968170166015625</LongitudeDegrees>
            </Position>
            <AltitudeMeters>58.40000152587890625</AltitudeMeters>
            <DistanceMeters>NAN</DistanceMeters>
          </Trackpoint>
          <Trackpoint>
            <Time>2022-07-08T08:54:11.000Z</Time>
            <Position>
              <LatitudeDegrees>43.45139670185744762420654296875</LatitudeDegrees>
              <LongitudeDegrees>-1.574319899082183837890625</LongitudeDegrees>
            </Position>
            <AltitudeMeters>59</AltitudeMeters>
            <DistanceMeters>NAN</DistanceMeters>
          </Trackpoint>
          <Trackpoint>
            <Time>2022-07-08T08:54:19.000Z</Time>
            <Position>
              <LatitudeDegrees>43.451257981359958648681640625</LatitudeDegrees>
              <LongitudeDegrees>-1.57444135285913944244384765625</LongitudeDegrees>
            </Position>
            <AltitudeMeters>59.40000152587890625</AltitudeMeters>
            <DistanceMeters>NAN</DistanceMeters>
          </Trackpoint>
          <Trackpoint>
            <Time>2022-07-08T08:54:27.000Z</Time>
            <Position>
              <LatitudeDegrees>43.4511196799576282501220703125</LatitudeDegrees>
              <LongitudeDegrees>-1.57456557266414165496826171875</LongitudeDegrees>
            </Position>
            <AltitudeMeters>60</AltitudeMeters>
            <DistanceMeters>NAN</DistanceMeters>
          </Trackpoint>
          <Trackpoint>
            <Time>2022-07-08T08:54:39.000Z</Time>
            <Position>
              <LatitudeDegrees>43.4509312547743320465087890625</LatitudeDegrees>
              <LongitudeDegrees>-1.574807725846767425537109375</LongitudeDegrees>
            </Position>
            <AltitudeMeters>60.40000152587890625</AltitudeMeters>
            <DistanceMeters>NAN</DistanceMeters>
          </Trackpoint>
          <Trackpoint>
            <Time>2022-07-08T08:54:40.000Z</Time>
            <Position>
              <LatitudeDegrees>43.4509205259382724761962890625</LatitudeDegrees>
              <LongitudeDegrees>-1.57483094371855258941650390625</LongitudeDegrees>
            </Position>
            <AltitudeMeters>60.40000152587890625</AltitudeMeters>
            <DistanceMeters>NAN</DistanceMeters>
          </Trackpoint>
          <Trackpoint>
            <Time>2022-07-08T08:54:48.000Z</Time>
            <Position>
              <LatitudeDegrees>43.4508243016898632049560546875</LatitudeDegrees>
              <LongitudeDegrees>-1.5750078856945037841796875</LongitudeDegrees>
            </Position>
            <AltitudeMeters>61</AltitudeMeters>
            <DistanceMeters>NAN</DistanceMeters>
          </Trackpoint>
          <Trackpoint>
            <Time>2022-07-08T08:54:50.000Z</Time>
            <Position>
              <LatitudeDegrees>43.450798653066158294677734375</LatitudeDegrees>
              <LongitudeDegrees>-1.5750553272664546966552734375</LongitudeDegrees>
            </Position>
            <AltitudeMeters>61.200000762939453125</AltitudeMeters>
            <DistanceMeters>NAN</DistanceMeters>
          </Trackpoint>
          <Trackpoint>
            <Time>2022-07-08T08:54:53.000Z</Time>
            <Position>
              <LatitudeDegrees>43.450764454901218414306640625</LatitudeDegrees>
              <LongitudeDegrees>-1.57512481324374675750732421875</LongitudeDegrees>
            </Position>
            <AltitudeMeters>61.59999847412109375</AltitudeMeters>
            <DistanceMeters>NAN</DistanceMeters>
          </Trackpoint>
          <Trackpoint>
            <Time>2022-07-08T08:55:00.000Z</Time>
            <Position>
              <LatitudeDegrees>43.4507046081125736236572265625</LatitudeDegrees>
              <LongitudeDegrees>-1.5752829797565937042236328125</LongitudeDegrees>
            </Position>
            <AltitudeMeters>61.799999237060546875</AltitudeMeters>
            <DistanceMeters>NAN</DistanceMeters>
          </Trackpoint>
          <Trackpoint>
            <Time>2022-07-08T08:55:01.000Z</Time>
            <Position>
              <LatitudeDegrees>43.4506965614855289459228515625</LatitudeDegrees>
              <LongitudeDegrees>-1.575304605066776275634765625</LongitudeDegrees>
            </Position>
            <AltitudeMeters>61.799999237060546875</AltitudeMeters>
            <DistanceMeters>NAN</DistanceMeters>
          </Trackpoint>
          <Trackpoint>
            <Time>2022-07-08T08:55:08.000Z</Time>
            <Position>
              <LatitudeDegrees>43.45066160894930362701416015625</LatitudeDegrees>
              <LongitudeDegrees>-1.57547098584473133087158203125</LongitudeDegrees>
            </Position>
            <AltitudeMeters>62.59999847412109375</AltitudeMeters>
            <DistanceMeters>NAN</DistanceMeters>
          </Trackpoint>
          <Trackpoint>
            <Time>2022-07-08T08:55:10.000Z</Time>
            <Position>
              <LatitudeDegrees>43.4506472758948802947998046875</LatitudeDegrees>
              <LongitudeDegrees>-1.575525887310504913330078125</LongitudeDegrees>
            </Position>
            <AltitudeMeters>62.799999237060546875</AltitudeMeters>
            <DistanceMeters>NAN</DistanceMeters>
          </Trackpoint>
          <Trackpoint>
            <Time>2022-07-08T08:55:20.000Z</Time>
            <Position>
              <LatitudeDegrees>43.4505983255803585052490234375</LatitudeDegrees>
              <LongitudeDegrees>-1.57575429417192935943603515625</LongitudeDegrees>
            </Position>
            <AltitudeMeters>63.59999847412109375</AltitudeMeters>
            <DistanceMeters>NAN</DistanceMeters>
          </Trackpoint>
          <Trackpoint>
            <Time>2022-07-08T08:55:28.000Z</Time>
            <Position>
              <LatitudeDegrees>43.450545184314250946044921875</LatitudeDegrees>
              <LongitudeDegrees>-1.57593433745205402374267578125</LongitudeDegrees>
            </Position>
            <AltitudeMeters>64.40000152587890625</AltitudeMeters>
            <DistanceMeters>NAN</DistanceMeters>
          </Trackpoint>
          <Trackpoint>
            <Time>2022-07-08T08:55:33.000Z</Time>
            <Position>
              <LatitudeDegrees>43.45051274634897708892822265625</LatitudeDegrees>
              <LongitudeDegrees>-1.57603123225271701812744140625</LongitudeDegrees>
            </Position>
            <AltitudeMeters>64.8000030517578125</AltitudeMeters>
            <DistanceMeters>NAN</DistanceMeters>
          </Trackpoint>
          <Trackpoint>
            <Time>2022-07-08T08:55:39.000Z</Time>
            <Position>
              <LatitudeDegrees>43.45046295784413814544677734375</LatitudeDegrees>
              <LongitudeDegrees>-1.5761298872530460357666015625</LongitudeDegrees>
            </Position>
            <AltitudeMeters>65.1999969482421875</AltitudeMeters>
            <DistanceMeters>NAN</DistanceMeters>
          </Trackpoint>
          <Trackpoint>
            <Time>2022-07-08T08:55:47.000Z</Time>
            <Position>
              <LatitudeDegrees>43.4504206292331218719482421875</LatitudeDegrees>
              <LongitudeDegrees>-1.5763152949512004852294921875</LongitudeDegrees>
            </Position>
            <AltitudeMeters>65.8000030517578125</AltitudeMeters>
            <DistanceMeters>NAN</DistanceMeters>
          </Trackpoint>
          <Trackpoint>
            <Time>2022-07-08T08:55:48.000Z</Time>
            <Position>
              <LatitudeDegrees>43.45041534863412380218505859375</LatitudeDegrees>
              <LongitudeDegrees>-1.5763320587575435638427734375</LongitudeDegrees>
            </Position>
            <AltitudeMeters>65.8000030517578125</AltitudeMeters>
            <DistanceMeters>NAN</DistanceMeters>
          </Trackpoint>
          <Trackpoint>
            <Time>2022-07-08T08:55:54.000Z</Time>
            <Position>
              <LatitudeDegrees>43.45036539249122142791748046875</LatitudeDegrees>
              <LongitudeDegrees>-1.57643708400428295135498046875</LongitudeDegrees>
            </Position>
            <AltitudeMeters>66.1999969482421875</AltitudeMeters>
            <DistanceMeters>NAN</DistanceMeters>
          </Trackpoint>
          <Trackpoint>
            <Time>2022-07-08T08:55:57.000Z</Time>
            <Position>
              <LatitudeDegrees>43.45033907331526279449462890625</LatitudeDegrees>
              <LongitudeDegrees>-1.57647966407239437103271484375</LongitudeDegrees>
            </Position>
            <AltitudeMeters>66.59999847412109375</AltitudeMeters>
            <DistanceMeters>NAN</DistanceMeters>
          </Trackpoint>
          <Trackpoint>
            <Time>2022-07-08T08:56:01.000Z</Time>
            <Position>
              <LatitudeDegrees>43.450310491025447845458984375</LatitudeDegrees>
              <LongitudeDegrees>-1.57657169736921787261962890625</LongitudeDegrees>
            </Position>
            <AltitudeMeters>66.8000030517578125</AltitudeMeters>
            <DistanceMeters>NAN</DistanceMeters>
          </Trackpoint>
          <Trackpoint>
            <Time>2022-07-08T08:56:06.000Z</Time>
            <Position>
              <LatitudeDegrees>43.4502623789012432098388671875</LatitudeDegrees>
              <LongitudeDegrees>-1.57669876702129840850830078125</LongitudeDegrees>
            </Position>
            <AltitudeMeters>67.1999969482421875</AltitudeMeters>
            <DistanceMeters>NAN</DistanceMeters>
          </Trackpoint>
          <Trackpoint>
            <Time>2022-07-08T08:56:11.000Z</Time>
            <Position>
              <LatitudeDegrees>43.45021451823413372039794921875</LatitudeDegrees>
              <LongitudeDegrees>-1.57680924050509929656982421875</LongitudeDegrees>
            </Position>
            <AltitudeMeters>67.59999847412109375</AltitudeMeters>
            <DistanceMeters>NAN</DistanceMeters>
          </Trackpoint>
          <Trackpoint>
            <Time>2022-07-08T08:56:16.000Z</Time>
            <Position>
              <LatitudeDegrees>43.45016322098672389984130859375</LatitudeDegrees>
              <LongitudeDegrees>-1.57691736705601215362548828125</LongitudeDegrees>
            </Position>
            <AltitudeMeters>67.8000030517578125</AltitudeMeters>
            <DistanceMeters>NAN</DistanceMeters>
          </Trackpoint>
          <Trackpoint>
            <Time>2022-07-08T08:56:26.000Z</Time>
            <Position>
              <LatitudeDegrees>43.45007143914699554443359375</LatitudeDegrees>
              <LongitudeDegrees>-1.57714636065065860748291015625</LongitudeDegrees>
            </Position>
            <AltitudeMeters>68.59999847412109375</AltitudeMeters>
            <DistanceMeters>NAN</DistanceMeters>
          </Trackpoint>
          <Trackpoint>
            <Time>2022-07-08T08:56:30.000Z</Time>
            <Position>
              <LatitudeDegrees>43.45003229565918445587158203125</LatitudeDegrees>
              <LongitudeDegrees>-1.57722598873078823089599609375</LongitudeDegrees>
            </Position>
            <AltitudeMeters>69</AltitudeMeters>
            <DistanceMeters>NAN</DistanceMeters>
          </Trackpoint>
          <Trackpoint>
            <Time>2022-07-08T08:56:36.000Z</Time>
            <Position>
              <LatitudeDegrees>43.44998401589691638946533203125</LatitudeDegrees>
              <LongitudeDegrees>-1.57735347747802734375</LongitudeDegrees>
            </Position>
            <AltitudeMeters>69.40000152587890625</AltitudeMeters>
            <DistanceMeters>NAN</DistanceMeters>
          </Trackpoint>
          <Trackpoint>
            <Time>2022-07-08T08:56:48.000Z</Time>
            <Position>
              <LatitudeDegrees>43.4498781524598598480224609375</LatitudeDegrees>
              <LongitudeDegrees>-1.577597223222255706787109375</LongitudeDegrees>
            </Position>
            <AltitudeMeters>70</AltitudeMeters>
            <DistanceMeters>NAN</DistanceMeters>
          </Trackpoint>
          <Trackpoint>
            <Time>2022-07-08T08:56:49.000Z</Time>
            <Position>
              <LatitudeDegrees>43.4498694352805614471435546875</LatitudeDegrees>
              <LongitudeDegrees>-1.57761658541858196258544921875</LongitudeDegrees>
            </Position>
            <AltitudeMeters>70</AltitudeMeters>
            <DistanceMeters>NAN</DistanceMeters>
          </Trackpoint>
          <Trackpoint>
            <Time>2022-07-08T08:57:01.000Z</Time>
            <Position>
              <LatitudeDegrees>43.44977195374667644500732421875</LatitudeDegrees>
              <LongitudeDegrees>-1.577855050563812255859375</LongitudeDegrees>
            </Position>
            <AltitudeMeters>70.8000030517578125</AltitudeMeters>
            <DistanceMeters>NAN</DistanceMeters>
          </Trackpoint>
          <Trackpoint>
            <Time>2022-07-08T08:57:03.000Z</Time>
            <Position>
              <LatitudeDegrees>43.4497564472258090972900390625</LatitudeDegrees>
              <LongitudeDegrees>-1.57790190540254116058349609375</LongitudeDegrees>
            </Position>
            <AltitudeMeters>71</AltitudeMeters>
            <DistanceMeters>NAN</DistanceMeters>
          </Trackpoint>
          <Trackpoint>
            <Time>2022-07-08T08:57:11.000Z</Time>
            <Position>
              <LatitudeDegrees>43.44969467259943485260009765625</LatitudeDegrees>
              <LongitudeDegrees>-1.57807968556880950927734375</LongitudeDegrees>
            </Position>
            <AltitudeMeters>71.59999847412109375</AltitudeMeters>
            <DistanceMeters>NAN</DistanceMeters>
          </Trackpoint>
          <Trackpoint>
            <Time>2022-07-08T08:57:12.000Z</Time>
            <Position>
              <LatitudeDegrees>43.4496897272765636444091796875</LatitudeDegrees>
              <LongitudeDegrees>-1.57810105942189693450927734375</LongitudeDegrees>
            </Position>
            <AltitudeMeters>71.59999847412109375</AltitudeMeters>
            <DistanceMeters>NAN</DistanceMeters>
          </Trackpoint>
          <Trackpoint>
            <Time>2022-07-08T08:57:18.000Z</Time>
            <Position>
              <LatitudeDegrees>43.449658043682575225830078125</LatitudeDegrees>
              <LongitudeDegrees>-1.57823684625327587127685546875</LongitudeDegrees>
            </Position>
            <AltitudeMeters>72.1999969482421875</AltitudeMeters>
            <DistanceMeters>NAN</DistanceMeters>
          </Trackpoint>
          <Trackpoint>
            <Time>2022-07-08T08:57:21.000Z</Time>
            <Position>
              <LatitudeDegrees>43.4496437944471836090087890625</LatitudeDegrees>
              <LongitudeDegrees>-1.5783098526298999786376953125</LongitudeDegrees>
            </Position>
            <AltitudeMeters>72.40000152587890625</AltitudeMeters>
            <DistanceMeters>NAN</DistanceMeters>
          </Trackpoint>
          <Trackpoint>
            <Time>2022-07-08T08:57:31.000Z</Time>
            <Position>
              <LatitudeDegrees>43.44960297457873821258544921875</LatitudeDegrees>
              <LongitudeDegrees>-1.5785576216876506805419921875</LongitudeDegrees>
            </Position>
            <AltitudeMeters>73.1999969482421875</AltitudeMeters>
            <DistanceMeters>NAN</DistanceMeters>
          </Trackpoint>
          <Trackpoint>
            <Time>2022-07-08T08:57:32.000Z</Time>
            <Position>
              <LatitudeDegrees>43.44959928654134273529052734375</LatitudeDegrees>
              <LongitudeDegrees>-1.57857866026461124420166015625</LongitudeDegrees>
            </Position>
            <AltitudeMeters>73.1999969482421875</AltitudeMeters>
            <DistanceMeters>NAN</DistanceMeters>
          </Trackpoint>
          <Trackpoint>
            <Time>2022-07-08T08:57:40.000Z</Time>
            <Position>
              <LatitudeDegrees>43.44955704174935817718505859375</LatitudeDegrees>
              <LongitudeDegrees>-1.578757278621196746826171875</LongitudeDegrees>
            </Position>
            <AltitudeMeters>74.1999969482421875</AltitudeMeters>
            <DistanceMeters>NAN</DistanceMeters>
          </Trackpoint>
          <Trackpoint>
            <Time>2022-07-08T08:57:41.000Z</Time>
            <Position>
              <LatitudeDegrees>43.4495525993406772613525390625</LatitudeDegrees>
              <LongitudeDegrees>-1.5787809155881404876708984375</LongitudeDegrees>
            </Position>
            <AltitudeMeters>74.1999969482421875</AltitudeMeters>
            <DistanceMeters>NAN</DistanceMeters>
          </Trackpoint>
          <Trackpoint>
            <Time>2022-07-08T08:57:43.000Z</Time>
            <Position>
              <LatitudeDegrees>43.4495422057807445526123046875</LatitudeDegrees>
              <LongitudeDegrees>-1.57883279956877231597900390625</LongitudeDegrees>
            </Position>
            <AltitudeMeters>74.40000152587890625</AltitudeMeters>
            <DistanceMeters>NAN</DistanceMeters>
          </Trackpoint>
          <Trackpoint>
            <Time>2022-07-08T08:57:52.000Z</Time>
            <Position>
              <LatitudeDegrees>43.449503816664218902587890625</LatitudeDegrees>
              <LongitudeDegrees>-1.57904553227126598358154296875</LongitudeDegrees>
            </Position>
            <AltitudeMeters>75</AltitudeMeters>
            <DistanceMeters>NAN</DistanceMeters>
          </Trackpoint>
          <Trackpoint>
            <Time>2022-07-08T08:57:53.000Z</Time>
            <Position>
              <LatitudeDegrees>43.44950012862682342529296875</LatitudeDegrees>
              <LongitudeDegrees>-1.579062379896640777587890625</LongitudeDegrees>
            </Position>
            <AltitudeMeters>75.1999969482421875</AltitudeMeters>
            <DistanceMeters>NAN</DistanceMeters>
          </Trackpoint>
          <Trackpoint>
            <Time>2022-07-08T08:57:55.000Z</Time>
            <Position>
              <LatitudeDegrees>43.449491076171398162841796875</LatitudeDegrees>
              <LongitudeDegrees>-1.57910789363086223602294921875</LongitudeDegrees>
            </Position>
            <AltitudeMeters>75.1999969482421875</AltitudeMeters>
            <DistanceMeters>NAN</DistanceMeters>
          </Trackpoint>
          <Trackpoint>
            <Time>2022-07-08T08:58:01.000Z</Time>
            <Position>
              <LatitudeDegrees>43.44947087578475475311279296875</LatitudeDegrees>
              <LongitudeDegrees>-1.57925357110798358917236328125</LongitudeDegrees>
            </Position>
            <AltitudeMeters>75.8000030517578125</AltitudeMeters>
            <DistanceMeters>NAN</DistanceMeters>
          </Trackpoint>
          <Trackpoint>
            <Time>2022-07-08T08:58:08.000Z</Time>
            <Position>
              <LatitudeDegrees>43.44944153912365436553955078125</LatitudeDegrees>
              <LongitudeDegrees>-1.57941550947725772857666015625</LongitudeDegrees>
            </Position>
            <AltitudeMeters>76.40000152587890625</AltitudeMeters>
            <DistanceMeters>NAN</DistanceMeters>
          </Trackpoint>
          <Trackpoint>
            <Time>2022-07-08T08:58:13.000Z</Time>
            <Position>
              <LatitudeDegrees>43.4494070895016193389892578125</LatitudeDegrees>
              <LongitudeDegrees>-1.57953201793134212493896484375</LongitudeDegrees>
            </Position>
            <AltitudeMeters>77</AltitudeMeters>
            <DistanceMeters>NAN</DistanceMeters>
          </Trackpoint>
          <Trackpoint>
            <Time>2022-07-08T08:58:17.000Z</Time>
            <Position>
              <LatitudeDegrees>43.44937683083117008209228515625</LatitudeDegrees>
              <LongitudeDegrees>-1.5796105563640594482421875</LongitudeDegrees>
            </Position>
            <AltitudeMeters>77.40000152587890625</AltitudeMeters>
            <DistanceMeters>NAN</DistanceMeters>
          </Trackpoint>
          <Trackpoint>
            <Time>2022-07-08T08:58:23.000Z</Time>
            <Position>
              <LatitudeDegrees>43.449336178600788116455078125</LatitudeDegrees>
              <LongitudeDegrees>-1.57973385415971279144287109375</LongitudeDegrees>
            </Position>
            <AltitudeMeters>77.8000030517578125</AltitudeMeters>
            <DistanceMeters>NAN</DistanceMeters>
          </Trackpoint>
          <Trackpoint>
            <Time>2022-07-08T08:58:31.000Z</Time>
            <Position>
              <LatitudeDegrees>43.44925696961581707000732421875</LatitudeDegrees>
              <LongitudeDegrees>-1.57989696599543094635009765625</LongitudeDegrees>
            </Position>
            <AltitudeMeters>78.40000152587890625</AltitudeMeters>
            <DistanceMeters>NAN</DistanceMeters>
          </Trackpoint>
          <Trackpoint>
            <Time>2022-07-08T08:58:32.000Z</Time>
            <Position>
              <LatitudeDegrees>43.4492478333413600921630859375</LatitudeDegrees>
              <LongitudeDegrees>-1.5799176692962646484375</LongitudeDegrees>
            </Position>
            <AltitudeMeters>78.59999847412109375</AltitudeMeters>
            <DistanceMeters>NAN</DistanceMeters>
          </Trackpoint>
          <Trackpoint>
            <Time>2022-07-08T08:58:39.000Z</Time>
            <Position>
              <LatitudeDegrees>43.44917616806924343109130859375</LatitudeDegrees>
              <LongitudeDegrees>-1.58005722798407077789306640625</LongitudeDegrees>
            </Position>
            <AltitudeMeters>79</AltitudeMeters>
            <DistanceMeters>NAN</DistanceMeters>
          </Trackpoint>
          <Trackpoint>
            <Time>2022-07-08T08:58:44.000Z</Time>
            <Position>
              <LatitudeDegrees>43.44911363907158374786376953125</LatitudeDegrees>
              <LongitudeDegrees>-1.5801595710217952728271484375</LongitudeDegrees>
            </Position>
            <AltitudeMeters>79.59999847412109375</AltitudeMeters>
            <DistanceMeters>NAN</DistanceMeters>
          </Trackpoint>
          <Trackpoint>
            <Time>2022-07-08T08:58:48.000Z</Time>
            <Position>
              <LatitudeDegrees>43.44905714504420757293701171875</LatitudeDegrees>
              <LongitudeDegrees>-1.580223105847835540771484375</LongitudeDegrees>
            </Position>
            <AltitudeMeters>79.8000030517578125</AltitudeMeters>
            <DistanceMeters>NAN</DistanceMeters>
          </Trackpoint>
          <Trackpoint>
            <Time>2022-07-08T08:58:54.000Z</Time>
            <Position>
              <LatitudeDegrees>43.44897667877376079559326171875</LatitudeDegrees>
              <LongitudeDegrees>-1.580328382551670074462890625</LongitudeDegrees>
            </Position>
            <AltitudeMeters>80.1999969482421875</AltitudeMeters>
            <DistanceMeters>NAN</DistanceMeters>
          </Trackpoint>
          <Trackpoint>
            <Time>2022-07-08T08:58:55.000Z</Time>
            <Position>
              <LatitudeDegrees>43.44896712340414524078369140625</LatitudeDegrees>
              <LongitudeDegrees>-1.58034212887287139892578125</LongitudeDegrees>
            </Position>
            <AltitudeMeters>80.1999969482421875</AltitudeMeters>
            <DistanceMeters>NAN</DistanceMeters>
          </Trackpoint>
          <Trackpoint>
            <Time>2022-07-08T08:58:59.000Z</Time>
            <Position>
              <LatitudeDegrees>43.4489464201033115386962890625</LatitudeDegrees>
              <LongitudeDegrees>-1.5804043225944042205810546875</LongitudeDegrees>
            </Position>
            <AltitudeMeters>80.40000152587890625</AltitudeMeters>
            <DistanceMeters>NAN</DistanceMeters>
          </Trackpoint>
          <Trackpoint>
            <Time>2022-07-08T08:59:01.000Z</Time>
            <Position>
              <LatitudeDegrees>43.44894197769463062286376953125</LatitudeDegrees>
              <LongitudeDegrees>-1.580444388091564178466796875</LongitudeDegrees>
            </Position>
            <AltitudeMeters>80.40000152587890625</AltitudeMeters>
            <DistanceMeters>NAN</DistanceMeters>
          </Trackpoint>
          <Trackpoint>
            <Time>2022-07-08T08:59:07.000Z</Time>
            <Position>
              <LatitudeDegrees>43.4489209391176700592041015625</LatitudeDegrees>
              <LongitudeDegrees>-1.58059115521609783172607421875</LongitudeDegrees>
            </Position>
            <AltitudeMeters>80.59999847412109375</AltitudeMeters>
            <DistanceMeters>NAN</DistanceMeters>
          </Trackpoint>
          <Trackpoint>
            <Time>2022-07-08T08:59:10.000Z</Time>
            <Position>
              <LatitudeDegrees>43.4489118866622447967529296875</LatitudeDegrees>
              <LongitudeDegrees>-1.58067698590457439422607421875</LongitudeDegrees>
            </Position>
            <AltitudeMeters>80.59999847412109375</AltitudeMeters>
            <DistanceMeters>NAN</DistanceMeters>
          </Trackpoint>
          <Trackpoint>
            <Time>2022-07-08T08:59:13.000Z</Time>
            <Position>
              <LatitudeDegrees>43.44889336265623569488525390625</LatitudeDegrees>
              <LongitudeDegrees>-1.58076725900173187255859375</LongitudeDegrees>
            </Position>
            <AltitudeMeters>80.8000030517578125</AltitudeMeters>
            <DistanceMeters>NAN</DistanceMeters>
          </Trackpoint>
          <Trackpoint>
            <Time>2022-07-08T08:59:18.000Z</Time>
            <Position>
              <LatitudeDegrees>43.44886922277510166168212890625</LatitudeDegrees>
              <LongitudeDegrees>-1.58089935779571533203125</LongitudeDegrees>
            </Position>
            <AltitudeMeters>81.1999969482421875</AltitudeMeters>
            <DistanceMeters>NAN</DistanceMeters>
          </Trackpoint>
          <Trackpoint>
            <Time>2022-07-08T08:59:28.000Z</Time>
            <Position>
              <LatitudeDegrees>43.44882044009864330291748046875</LatitudeDegrees>
              <LongitudeDegrees>-1.58122365362942218780517578125</LongitudeDegrees>
            </Position>
            <AltitudeMeters>81.40000152587890625</AltitudeMeters>
            <DistanceMeters>NAN</DistanceMeters>
          </Trackpoint>
          <Trackpoint>
            <Time>2022-07-08T08:59:30.000Z</Time>
            <Position>
              <LatitudeDegrees>43.4488141536712646484375</LatitudeDegrees>
              <LongitudeDegrees>-1.58128987066447734832763671875</LongitudeDegrees>
            </Position>
            <AltitudeMeters>81.59999847412109375</AltitudeMeters>
            <DistanceMeters>NAN</DistanceMeters>
          </Trackpoint>
          <Trackpoint>
            <Time>2022-07-08T08:59:41.000Z</Time>
            <Position>
              <LatitudeDegrees>43.44876696355640888214111328125</LatitudeDegrees>
              <LongitudeDegrees>-1.581663787364959716796875</LongitudeDegrees>
            </Position>
            <AltitudeMeters>81.8000030517578125</AltitudeMeters>
            <DistanceMeters>NAN</DistanceMeters>
          </Trackpoint>
          <Trackpoint>
            <Time>2022-07-08T08:59:49.000Z</Time>
            <Position>
              <LatitudeDegrees>43.44873192720115184783935546875</LatitudeDegrees>
              <LongitudeDegrees>-1.581924967467784881591796875</LongitudeDegrees>
            </Position>
            <AltitudeMeters>82.40000152587890625</AltitudeMeters>
            <DistanceMeters>NAN</DistanceMeters>
          </Trackpoint>
          <Trackpoint>
            <Time>2022-07-08T08:59:55.000Z</Time>
            <Position>
              <LatitudeDegrees>43.4486969746649265289306640625</LatitudeDegrees>
              <LongitudeDegrees>-1.58210660330951213836669921875</LongitudeDegrees>
            </Position>
            <AltitudeMeters>82.8000030517578125</AltitudeMeters>
            <DistanceMeters>NAN</DistanceMeters>
          </Trackpoint>
          <Trackpoint>
            <Time>2022-07-08T08:59:58.000Z</Time>
            <Position>
              <LatitudeDegrees>43.44867627136409282684326171875</LatitudeDegrees>
              <LongitudeDegrees>-1.58221607096493244171142578125</LongitudeDegrees>
            </Position>
            <AltitudeMeters>82.8000030517578125</AltitudeMeters>
            <DistanceMeters>NAN</DistanceMeters>
          </Trackpoint>
          <Trackpoint>
            <Time>2022-07-08T09:00:08.000Z</Time>
            <Position>
              <LatitudeDegrees>43.44862882979214191436767578125</LatitudeDegrees>
              <LongitudeDegrees>-1.5825574658811092376708984375</LongitudeDegrees>
            </Position>
            <AltitudeMeters>83.40000152587890625</AltitudeMeters>
            <DistanceMeters>NAN</DistanceMeters>
          </Trackpoint>
          <Trackpoint>
            <Time>2022-07-08T09:00:17.000Z</Time>
            <Position>
              <LatitudeDegrees>43.448570072650909423828125</LatitudeDegrees>
              <LongitudeDegrees>-1.58291210420429706573486328125</LongitudeDegrees>
            </Position>
            <AltitudeMeters>83.1999969482421875</AltitudeMeters>
            <DistanceMeters>NAN</DistanceMeters>
          </Trackpoint>
          <Trackpoint>
            <Time>2022-07-08T09:00:23.000Z</Time>
            <Position>
              <LatitudeDegrees>43.4484502114355564117431640625</LatitudeDegrees>
              <LongitudeDegrees>-1.5830714441835880279541015625</LongitudeDegrees>
            </Position>
            <AltitudeMeters>83</AltitudeMeters>
            <DistanceMeters>NAN</DistanceMeters>
          </Trackpoint>
          <Trackpoint>
            <Time>2022-07-08T09:00:31.000Z</Time>
            <Position>
              <LatitudeDegrees>43.44820864498615264892578125</LatitudeDegrees>
              <LongitudeDegrees>-1.58320597372949123382568359375</LongitudeDegrees>
            </Position>
            <AltitudeMeters>83</AltitudeMeters>
            <DistanceMeters>NAN</DistanceMeters>
          </Trackpoint>
          <Trackpoint>
            <Time>2022-07-08T09:00:39.000Z</Time>
            <Position>
              <LatitudeDegrees>43.4479979239404201507568359375</LatitudeDegrees>
              <LongitudeDegrees>-1.5832940675318241119384765625</LongitudeDegrees>
            </Position>
            <AltitudeMeters>83.59999847412109375</AltitudeMeters>
            <DistanceMeters>NAN</DistanceMeters>
          </Trackpoint>
          <Trackpoint>
            <Time>2022-07-08T09:00:41.000Z</Time>
            <Position>
              <LatitudeDegrees>43.44793975353240966796875</LatitudeDegrees>
              <LongitudeDegrees>-1.5833262540400028228759765625</LongitudeDegrees>
            </Position>
            <AltitudeMeters>83.59999847412109375</AltitudeMeters>
            <DistanceMeters>NAN</DistanceMeters>
          </Trackpoint>
          <Trackpoint>
            <Time>2022-07-08T09:00:45.000Z</Time>
            <Position>
              <LatitudeDegrees>43.4478252567350864410400390625</LatitudeDegrees>
              <LongitudeDegrees>-1.5833792276680469512939453125</LongitudeDegrees>
            </Position>
            <AltitudeMeters>83.8000030517578125</AltitudeMeters>
            <DistanceMeters>NAN</DistanceMeters>
          </Trackpoint>
          <Trackpoint>
            <Time>2022-07-08T09:00:49.000Z</Time>
            <Position>
              <LatitudeDegrees>43.44768150709569454193115234375</LatitudeDegrees>
              <LongitudeDegrees>-1.58342038281261920928955078125</LongitudeDegrees>
            </Position>
            <AltitudeMeters>83.59999847412109375</AltitudeMeters>
            <DistanceMeters>NAN</DistanceMeters>
          </Trackpoint>
          <Trackpoint>
            <Time>2022-07-08T09:00:57.000Z</Time>
            <Position>
              <LatitudeDegrees>43.447375483810901641845703125</LatitudeDegrees>
              <LongitudeDegrees>-1.58358466811478137969970703125</LongitudeDegrees>
            </Position>
            <AltitudeMeters>83</AltitudeMeters>
            <DistanceMeters>NAN</DistanceMeters>
          </Trackpoint>
          <Trackpoint>
            <Time>2022-07-08T09:01:02.000Z</Time>
            <Position>
              <LatitudeDegrees>43.4471677802503108978271484375</LatitudeDegrees>
              <LongitudeDegrees>-1.58373503945767879486083984375</LongitudeDegrees>
            </Position>
            <AltitudeMeters>82.59999847412109375</AltitudeMeters>
            <DistanceMeters>NAN</DistanceMeters>
          </Trackpoint>
          <Trackpoint>
            <Time>2022-07-08T09:01:03.000Z</Time>
            <Position>
              <LatitudeDegrees>43.44712126068770885467529296875</LatitudeDegrees>
              <LongitudeDegrees>-1.58376596868038177490234375</LongitudeDegrees>
            </Position>
            <AltitudeMeters>82.40000152587890625</AltitudeMeters>
            <DistanceMeters>NAN</DistanceMeters>
          </Trackpoint>
          <Trackpoint>
            <Time>2022-07-08T09:01:06.000Z</Time>
            <Position>
              <LatitudeDegrees>43.44698832370340824127197265625</LatitudeDegrees>
              <LongitudeDegrees>-1.58384718932211399078369140625</LongitudeDegrees>
            </Position>
            <AltitudeMeters>81.8000030517578125</AltitudeMeters>
            <DistanceMeters>NAN</DistanceMeters>
          </Trackpoint>
          <Trackpoint>
            <Time>2022-07-08T09:01:09.000Z</Time>
            <Position>
              <LatitudeDegrees>43.4468854777514934539794921875</LatitudeDegrees>
              <LongitudeDegrees>-1.58393268473446369171142578125</LongitudeDegrees>
            </Position>
            <AltitudeMeters>81.8000030517578125</AltitudeMeters>
            <DistanceMeters>NAN</DistanceMeters>
          </Trackpoint>
          <Trackpoint>
            <Time>2022-07-08T09:01:10.000Z</Time>
            <Position>
              <LatitudeDegrees>43.446855135262012481689453125</LatitudeDegrees>
              <LongitudeDegrees>-1.58395632170140743255615234375</LongitudeDegrees>
            </Position>
            <AltitudeMeters>81.8000030517578125</AltitudeMeters>
            <DistanceMeters>NAN</DistanceMeters>
          </Trackpoint>
          <Trackpoint>
            <Time>2022-07-08T09:01:15.000Z</Time>
            <Position>
              <LatitudeDegrees>43.44673343002796173095703125</LatitudeDegrees>
              <LongitudeDegrees>-1.58405438996851444244384765625</LongitudeDegrees>
            </Position>
            <AltitudeMeters>82.40000152587890625</AltitudeMeters>
            <DistanceMeters>NAN</DistanceMeters>
          </Trackpoint>
          <Trackpoint>
            <Time>2022-07-08T09:01:16.000Z</Time>
            <Position>
              <LatitudeDegrees>43.44671004451811313629150390625</LatitudeDegrees>
              <LongitudeDegrees>-1.5840732492506504058837890625</LongitudeDegrees>
            </Position>
            <AltitudeMeters>82.59999847412109375</AltitudeMeters>
            <DistanceMeters>NAN</DistanceMeters>
          </Trackpoint>
          <Trackpoint>
            <Time>2022-07-08T09:01:17.000Z</Time>
            <Position>
              <LatitudeDegrees>43.4466886706650257110595703125</LatitudeDegrees>
              <LongitudeDegrees>-1.58409093506634235382080078125</LongitudeDegrees>
            </Position>
            <AltitudeMeters>82.59999847412109375</AltitudeMeters>
            <DistanceMeters>NAN</DistanceMeters>
          </Trackpoint>
          <Trackpoint>
            <Time>2022-07-08T09:01:23.000Z</Time>
            <Position>
              <LatitudeDegrees>43.44652153551578521728515625</LatitudeDegrees>
              <LongitudeDegrees>-1.58419185318052768707275390625</LongitudeDegrees>
            </Position>
            <AltitudeMeters>83</AltitudeMeters>
            <DistanceMeters>NAN</DistanceMeters>
          </Trackpoint>
          <Trackpoint>
            <Time>2022-07-08T09:01:29.000Z</Time>
            <Position>
              <LatitudeDegrees>43.44633369706571102142333984375</LatitudeDegrees>
              <LongitudeDegrees>-1.58432059921324253082275390625</LongitudeDegrees>
            </Position>
            <AltitudeMeters>82.59999847412109375</AltitudeMeters>
            <DistanceMeters>NAN</DistanceMeters>
          </Trackpoint>
          <Trackpoint>
            <Time>2022-07-08T09:01:32.000Z</Time>
            <Position>
              <LatitudeDegrees>43.44624124467372894287109375</LatitudeDegrees>
              <LongitudeDegrees>-1.5843646042048931121826171875</LongitudeDegrees>
            </Position>
            <AltitudeMeters>82.59999847412109375</AltitudeMeters>
            <DistanceMeters>NAN</DistanceMeters>
          </Trackpoint>
          <Trackpoint>
            <Time>2022-07-08T09:01:37.000Z</Time>
            <Position>
              <LatitudeDegrees>43.4460647217929363250732421875</LatitudeDegrees>
              <LongitudeDegrees>-1.5844423882663249969482421875</LongitudeDegrees>
            </Position>
            <AltitudeMeters>82.1999969482421875</AltitudeMeters>
            <DistanceMeters>NAN</DistanceMeters>
          </Trackpoint>
          <Trackpoint>
            <Time>2022-07-08T09:01:43.000Z</Time>
            <Position>
              <LatitudeDegrees>43.4458461217582225799560546875</LatitudeDegrees>
              <LongitudeDegrees>-1.5845024026930332183837890625</LongitudeDegrees>
            </Position>
            <AltitudeMeters>81.8000030517578125</AltitudeMeters>
            <DistanceMeters>NAN</DistanceMeters>
          </Trackpoint>
          <Trackpoint>
            <Time>2022-07-08T09:01:48.000Z</Time>
            <Position>
              <LatitudeDegrees>43.44566465355455875396728515625</LatitudeDegrees>
              <LongitudeDegrees>-1.5845439769327640533447265625</LongitudeDegrees>
            </Position>
            <AltitudeMeters>81.59999847412109375</AltitudeMeters>
            <DistanceMeters>NAN</DistanceMeters>
          </Trackpoint>
          <Trackpoint>
            <Time>2022-07-08T09:01:52.000Z</Time>
            <Position>
              <LatitudeDegrees>43.44547488726675510406494140625</LatitudeDegrees>
              <LongitudeDegrees>-1.5845935977995395660400390625</LongitudeDegrees>
            </Position>
            <AltitudeMeters>81.1999969482421875</AltitudeMeters>
            <DistanceMeters>NAN</DistanceMeters>
          </Trackpoint>
          <Trackpoint>
            <Time>2022-07-08T09:01:58.000Z</Time>
            <Position>
              <LatitudeDegrees>43.44518772326409816741943359375</LatitudeDegrees>
              <LongitudeDegrees>-1.58467783592641353607177734375</LongitudeDegrees>
            </Position>
            <AltitudeMeters>80.40000152587890625</AltitudeMeters>
            <DistanceMeters>NAN</DistanceMeters>
          </Trackpoint>
          <Trackpoint>
            <Time>2022-07-08T09:02:00.000Z</Time>
            <Position>
              <LatitudeDegrees>43.44508630223572254180908203125</LatitudeDegrees>
              <LongitudeDegrees>-1.58471019007265567779541015625</LongitudeDegrees>
            </Position>
            <AltitudeMeters>80.40000152587890625</AltitudeMeters>
            <DistanceMeters>NAN</DistanceMeters>
          </Trackpoint>
          <Trackpoint>
            <Time>2022-07-08T09:02:02.000Z</Time>
            <Position>
              <LatitudeDegrees>43.44500248320400714874267578125</LatitudeDegrees>
              <LongitudeDegrees>-1.58474857918918132781982421875</LongitudeDegrees>
            </Position>
            <AltitudeMeters>80.40000152587890625</AltitudeMeters>
            <DistanceMeters>NAN</DistanceMeters>
          </Trackpoint>
          <Trackpoint>
            <Time>2022-07-08T09:02:05.000Z</Time>
            <Position>
              <LatitudeDegrees>43.444910533726215362548828125</LatitudeDegrees>
              <LongitudeDegrees>-1.5848078392446041107177734375</LongitudeDegrees>
            </Position>
            <AltitudeMeters>80.1999969482421875</AltitudeMeters>
            <DistanceMeters>NAN</DistanceMeters>
          </Trackpoint>
          <Trackpoint>
            <Time>2022-07-08T09:02:12.000Z</Time>
            <Position>
              <LatitudeDegrees>43.44476225785911083221435546875</LatitudeDegrees>
              <LongitudeDegrees>-1.584858633577823638916015625</LongitudeDegrees>
            </Position>
            <AltitudeMeters>79.8000030517578125</AltitudeMeters>
            <DistanceMeters>NAN</DistanceMeters>
          </Trackpoint>
          <Trackpoint>
            <Time>2022-07-08T09:02:15.000Z</Time>
            <Position>
              <LatitudeDegrees>43.44476225785911083221435546875</LatitudeDegrees>
              <LongitudeDegrees>-1.584858633577823638916015625</LongitudeDegrees>
            </Position>
            <AltitudeMeters>79.59999847412109375</AltitudeMeters>
            <DistanceMeters>NAN</DistanceMeters>
          </Trackpoint>
          <Trackpoint>
            <Time>2022-07-08T09:20:27.000Z</Time>
            <Position>
              <LatitudeDegrees>43.444708697497844696044921875</LatitudeDegrees>
              <LongitudeDegrees>-1.58485234715044498443603515625</LongitudeDegrees>
            </Position>
            <AltitudeMeters>70.59999847412109375</AltitudeMeters>
            <DistanceMeters>NAN</DistanceMeters>
          </Trackpoint>
          <Trackpoint>
            <Time>2022-07-08T09:20:30.000Z</Time>
            <Position>
              <LatitudeDegrees>43.4446247108280658721923828125</LatitudeDegrees>
              <LongitudeDegrees>-1.58486022613942623138427734375</LongitudeDegrees>
            </Position>
            <AltitudeMeters>71.59999847412109375</AltitudeMeters>
            <DistanceMeters>NAN</DistanceMeters>
          </Trackpoint>
          <Trackpoint>
            <Time>2022-07-08T09:20:34.000Z</Time>
            <Position>
              <LatitudeDegrees>43.44452060759067535400390625</LatitudeDegrees>
              <LongitudeDegrees>-1.58486726693809032440185546875</LongitudeDegrees>
            </Position>
            <AltitudeMeters>71.59999847412109375</AltitudeMeters>
            <DistanceMeters>NAN</DistanceMeters>
          </Trackpoint>
          <Trackpoint>
            <Time>2022-07-08T09:20:43.000Z</Time>
            <Position>
              <LatitudeDegrees>43.4442384727299213409423828125</LatitudeDegrees>
              <LongitudeDegrees>-1.58488688059151172637939453125</LongitudeDegrees>
            </Position>
            <AltitudeMeters>71.8000030517578125</AltitudeMeters>
            <DistanceMeters>NAN</DistanceMeters>
          </Trackpoint>
          <Trackpoint>
            <Time>2022-07-08T09:20:50.000Z</Time>
            <Position>
              <LatitudeDegrees>43.4439974091947078704833984375</LatitudeDegrees>
              <LongitudeDegrees>-1.58496080897748470306396484375</LongitudeDegrees>
            </Position>
            <AltitudeMeters>72</AltitudeMeters>
            <DistanceMeters>NAN</DistanceMeters>
          </Trackpoint>
          <Trackpoint>
            <Time>2022-07-08T09:20:51.000Z</Time>
            <Position>
              <LatitudeDegrees>43.44396379776298999786376953125</LatitudeDegrees>
              <LongitudeDegrees>-1.58497564494609832763671875</LongitudeDegrees>
            </Position>
            <AltitudeMeters>72.1999969482421875</AltitudeMeters>
            <DistanceMeters>NAN</DistanceMeters>
          </Trackpoint>
          <Trackpoint>
            <Time>2022-07-08T09:20:54.000Z</Time>
            <Position>
              <LatitudeDegrees>43.44387712888419628143310546875</LatitudeDegrees>
              <LongitudeDegrees>-1.58503205515444278717041015625</LongitudeDegrees>
            </Position>
            <AltitudeMeters>72.1999969482421875</AltitudeMeters>
            <DistanceMeters>NAN</DistanceMeters>
          </Trackpoint>
          <Trackpoint>
            <Time>2022-07-08T09:20:56.000Z</Time>
            <Position>
              <LatitudeDegrees>43.4438227303326129913330078125</LatitudeDegrees>
              <LongitudeDegrees>-1.585073880851268768310546875</LongitudeDegrees>
            </Position>
            <AltitudeMeters>72.40000152587890625</AltitudeMeters>
            <DistanceMeters>NAN</DistanceMeters>
          </Trackpoint>
          <Trackpoint>
            <Time>2022-07-08T09:20:59.000Z</Time>
            <Position>
              <LatitudeDegrees>43.44373681582510471343994140625</LatitudeDegrees>
              <LongitudeDegrees>-1.5851427800953388214111328125</LongitudeDegrees>
            </Position>
            <AltitudeMeters>72.40000152587890625</AltitudeMeters>
            <DistanceMeters>NAN</DistanceMeters>
          </Trackpoint>
          <Trackpoint>
            <Time>2022-07-08T09:21:04.000Z</Time>
            <Position>
              <LatitudeDegrees>43.44359792768955230712890625</LatitudeDegrees>
              <LongitudeDegrees>-1.58526725135743618011474609375</LongitudeDegrees>
            </Position>
            <AltitudeMeters>72.59999847412109375</AltitudeMeters>
            <DistanceMeters>NAN</DistanceMeters>
          </Trackpoint>
          <Trackpoint>
            <Time>2022-07-08T09:21:09.000Z</Time>
            <Position>
              <LatitudeDegrees>43.44345166347920894622802734375</LatitudeDegrees>
              <LongitudeDegrees>-1.5853684209287166595458984375</LongitudeDegrees>
            </Position>
            <AltitudeMeters>72.59999847412109375</AltitudeMeters>
            <DistanceMeters>NAN</DistanceMeters>
          </Trackpoint>
          <Trackpoint>
            <Time>2022-07-08T09:21:15.000Z</Time>
            <Position>
              <LatitudeDegrees>43.4432923234999179840087890625</LatitudeDegrees>
              <LongitudeDegrees>-1.5854344703257083892822265625</LongitudeDegrees>
            </Position>
            <AltitudeMeters>72.59999847412109375</AltitudeMeters>
            <DistanceMeters>NAN</DistanceMeters>
          </Trackpoint>
          <Trackpoint>
            <Time>2022-07-08T09:21:16.000Z</Time>
            <Position>
              <LatitudeDegrees>43.44327069818973541259765625</LatitudeDegrees>
              <LongitudeDegrees>-1.585449390113353729248046875</LongitudeDegrees>
            </Position>
            <AltitudeMeters>72.8000030517578125</AltitudeMeters>
            <DistanceMeters>NAN</DistanceMeters>
          </Trackpoint>
          <Trackpoint>
            <Time>2022-07-08T09:21:21.000Z</Time>
            <Position>
              <LatitudeDegrees>43.44316232018172740936279296875</LatitudeDegrees>
              <LongitudeDegrees>-1.58555408008396625518798828125</LongitudeDegrees>
            </Position>
            <AltitudeMeters>72.8000030517578125</AltitudeMeters>
            <DistanceMeters>NAN</DistanceMeters>
          </Trackpoint>
          <Trackpoint>
            <Time>2022-07-08T09:21:27.000Z</Time>
            <Position>
              <LatitudeDegrees>43.44302594661712646484375</LatitudeDegrees>
              <LongitudeDegrees>-1.585676372051239013671875</LongitudeDegrees>
            </Position>
            <AltitudeMeters>72.59999847412109375</AltitudeMeters>
            <DistanceMeters>NAN</DistanceMeters>
          </Trackpoint>
          <Trackpoint>
            <Time>2022-07-08T09:21:30.000Z</Time>
            <Position>
              <LatitudeDegrees>43.44300474040210247039794921875</LatitudeDegrees>
              <LongitudeDegrees>-1.58569640479981899261474609375</LongitudeDegrees>
            </Position>
            <AltitudeMeters>72.40000152587890625</AltitudeMeters>
            <DistanceMeters>NAN</DistanceMeters>
          </Trackpoint>
          <Trackpoint>
            <Time>2022-07-08T09:21:31.000Z</Time>
            <Position>
              <LatitudeDegrees>43.44299250282347202301025390625</LatitudeDegrees>
              <LongitudeDegrees>-1.5857006795704364776611328125</LongitudeDegrees>
            </Position>
            <AltitudeMeters>72.40000152587890625</AltitudeMeters>
            <DistanceMeters>NAN</DistanceMeters>
          </Trackpoint>
          <Trackpoint>
            <Time>2022-07-08T09:21:33.000Z</Time>
            <Position>
              <LatitudeDegrees>43.44296299852430820465087890625</LatitudeDegrees>
              <LongitudeDegrees>-1.5857286751270294189453125</LongitudeDegrees>
            </Position>
            <AltitudeMeters>72.59999847412109375</AltitudeMeters>
            <DistanceMeters>NAN</DistanceMeters>
          </Trackpoint>
          <Trackpoint>
            <Time>2022-07-08T09:21:35.000Z</Time>
            <Position>
              <LatitudeDegrees>43.44296216033399105072021484375</LatitudeDegrees>
              <LongitudeDegrees>-1.58578374423086643218994140625</LongitudeDegrees>
            </Position>
            <AltitudeMeters>72.59999847412109375</AltitudeMeters>
            <DistanceMeters>NAN</DistanceMeters>
          </Trackpoint>
          <Trackpoint>
            <Time>2022-07-08T09:21:40.000Z</Time>
            <Position>
              <LatitudeDegrees>43.4430002979934215545654296875</LatitudeDegrees>
              <LongitudeDegrees>-1.58596445806324481964111328125</LongitudeDegrees>
            </Position>
            <AltitudeMeters>72.8000030517578125</AltitudeMeters>
            <DistanceMeters>NAN</DistanceMeters>
          </Trackpoint>
          <Trackpoint>
            <Time>2022-07-08T09:21:48.000Z</Time>
            <Position>
              <LatitudeDegrees>43.4430589713156223297119140625</LatitudeDegrees>
              <LongitudeDegrees>-1.58627006225287914276123046875</LongitudeDegrees>
            </Position>
            <AltitudeMeters>73.1999969482421875</AltitudeMeters>
            <DistanceMeters>NAN</DistanceMeters>
          </Trackpoint>
          <Trackpoint>
            <Time>2022-07-08T09:21:57.000Z</Time>
            <Position>
              <LatitudeDegrees>43.44311303459107875823974609375</LatitudeDegrees>
              <LongitudeDegrees>-1.58665068447589874267578125</LongitudeDegrees>
            </Position>
            <AltitudeMeters>73.40000152587890625</AltitudeMeters>
            <DistanceMeters>NAN</DistanceMeters>
          </Trackpoint>
          <Trackpoint>
            <Time>2022-07-08T09:22:06.000Z</Time>
            <Position>
              <LatitudeDegrees>43.44312208704650402069091796875</LatitudeDegrees>
              <LongitudeDegrees>-1.58704899251461029052734375</LongitudeDegrees>
            </Position>
            <AltitudeMeters>73.59999847412109375</AltitudeMeters>
            <DistanceMeters>NAN</DistanceMeters>
          </Trackpoint>
          <Trackpoint>
            <Time>2022-07-08T09:22:08.000Z</Time>
            <Position>
              <LatitudeDegrees>43.44311923719942569732666015625</LatitudeDegrees>
              <LongitudeDegrees>-1.58714328892529010772705078125</LongitudeDegrees>
            </Position>
            <AltitudeMeters>73.59999847412109375</AltitudeMeters>
            <DistanceMeters>NAN</DistanceMeters>
          </Trackpoint>
          <Trackpoint>
            <Time>2022-07-08T09:22:12.000Z</Time>
            <Position>
              <LatitudeDegrees>43.44311135821044445037841796875</LatitudeDegrees>
              <LongitudeDegrees>-1.58732567913830280303955078125</LongitudeDegrees>
            </Position>
            <AltitudeMeters>73.8000030517578125</AltitudeMeters>
            <DistanceMeters>NAN</DistanceMeters>
          </Trackpoint>
          <Trackpoint>
            <Time>2022-07-08T09:22:14.000Z</Time>
            <Position>
              <LatitudeDegrees>43.4431142918765544891357421875</LatitudeDegrees>
              <LongitudeDegrees>-1.5874115936458110809326171875</LongitudeDegrees>
            </Position>
            <AltitudeMeters>74</AltitudeMeters>
            <DistanceMeters>NAN</DistanceMeters>
          </Trackpoint>
          <Trackpoint>
            <Time>2022-07-08T09:22:18.000Z</Time>
            <Position>
              <LatitudeDegrees>43.4431092627346515655517578125</LatitudeDegrees>
              <LongitudeDegrees>-1.587581746280193328857421875</LongitudeDegrees>
            </Position>
            <AltitudeMeters>74.40000152587890625</AltitudeMeters>
            <DistanceMeters>NAN</DistanceMeters>
          </Trackpoint>
          <Trackpoint>
            <Time>2022-07-08T09:22:23.000Z</Time>
            <Position>
              <LatitudeDegrees>43.4431022219359874725341796875</LatitudeDegrees>
              <LongitudeDegrees>-1.58779959194362163543701171875</LongitudeDegrees>
            </Position>
            <AltitudeMeters>74.8000030517578125</AltitudeMeters>
            <DistanceMeters>NAN</DistanceMeters>
          </Trackpoint>
          <Trackpoint>
            <Time>2022-07-08T09:22:28.000Z</Time>
            <Position>
              <LatitudeDegrees>43.4430961869657039642333984375</LatitudeDegrees>
              <LongitudeDegrees>-1.58801282756030559539794921875</LongitudeDegrees>
            </Position>
            <AltitudeMeters>75</AltitudeMeters>
            <DistanceMeters>NAN</DistanceMeters>
          </Trackpoint>
          <Trackpoint>
            <Time>2022-07-08T09:22:30.000Z</Time>
            <Position>
              <LatitudeDegrees>43.44309744425117969512939453125</LatitudeDegrees>
              <LongitudeDegrees>-1.588099412620067596435546875</LongitudeDegrees>
            </Position>
            <AltitudeMeters>75</AltitudeMeters>
            <DistanceMeters>NAN</DistanceMeters>
          </Trackpoint>
          <Trackpoint>
            <Time>2022-07-08T09:22:38.000Z</Time>
            <Position>
              <LatitudeDegrees>43.44308554194867610931396484375</LatitudeDegrees>
              <LongitudeDegrees>-1.58847785554826259613037109375</LongitudeDegrees>
            </Position>
            <AltitudeMeters>75.40000152587890625</AltitudeMeters>
            <DistanceMeters>NAN</DistanceMeters>
          </Trackpoint>
          <Trackpoint>
            <Time>2022-07-08T09:22:47.000Z</Time>
            <Position>
              <LatitudeDegrees>43.443083949387073516845703125</LatitudeDegrees>
              <LongitudeDegrees>-1.58890281803905963897705078125</LongitudeDegrees>
            </Position>
            <AltitudeMeters>75.8000030517578125</AltitudeMeters>
            <DistanceMeters>NAN</DistanceMeters>
          </Trackpoint>
          <Trackpoint>
            <Time>2022-07-08T09:22:48.000Z</Time>
            <Position>
              <LatitudeDegrees>43.44308453612029552459716796875</LatitudeDegrees>
              <LongitudeDegrees>-1.5889468230307102203369140625</LongitudeDegrees>
            </Position>
            <AltitudeMeters>76</AltitudeMeters>
            <DistanceMeters>NAN</DistanceMeters>
          </Trackpoint>
          <Trackpoint>
            <Time>2022-07-08T09:22:55.000Z</Time>
            <Position>
              <LatitudeDegrees>43.44303960911929607391357421875</LatitudeDegrees>
              <LongitudeDegrees>-1.58925913274288177490234375</LongitudeDegrees>
            </Position>
            <AltitudeMeters>76</AltitudeMeters>
            <DistanceMeters>NAN</DistanceMeters>
          </Trackpoint>
          <Trackpoint>
            <Time>2022-07-08T09:23:02.000Z</Time>
            <Position>
              <LatitudeDegrees>43.4429399482905864715576171875</LatitudeDegrees>
              <LongitudeDegrees>-1.58957219682633876800537109375</LongitudeDegrees>
            </Position>
            <AltitudeMeters>76.1999969482421875</AltitudeMeters>
            <DistanceMeters>NAN</DistanceMeters>
          </Trackpoint>
          <Trackpoint>
            <Time>2022-07-08T09:23:08.000Z</Time>
            <Position>
              <LatitudeDegrees>43.44284690916538238525390625</LatitudeDegrees>
              <LongitudeDegrees>-1.58981728367507457733154296875</LongitudeDegrees>
            </Position>
            <AltitudeMeters>76.40000152587890625</AltitudeMeters>
            <DistanceMeters>NAN</DistanceMeters>
          </Trackpoint>
          <Trackpoint>
            <Time>2022-07-08T09:23:10.000Z</Time>
            <Position>
              <LatitudeDegrees>43.4428081847727298736572265625</LatitudeDegrees>
              <LongitudeDegrees>-1.58988936804234981536865234375</LongitudeDegrees>
            </Position>
            <AltitudeMeters>76.40000152587890625</AltitudeMeters>
            <DistanceMeters>NAN</DistanceMeters>
          </Trackpoint>
          <Trackpoint>
            <Time>2022-07-08T09:23:11.000Z</Time>
            <Position>
              <LatitudeDegrees>43.44278991222381591796875</LatitudeDegrees>
              <LongitudeDegrees>-1.58992205746471881866455078125</LongitudeDegrees>
            </Position>
            <AltitudeMeters>76.40000152587890625</AltitudeMeters>
            <DistanceMeters>NAN</DistanceMeters>
          </Trackpoint>
          <Trackpoint>
            <Time>2022-07-08T09:23:16.000Z</Time>
            <Position>
              <LatitudeDegrees>43.44266988337039947509765625</LatitudeDegrees>
              <LongitudeDegrees>-1.59009187482297420501708984375</LongitudeDegrees>
            </Position>
            <AltitudeMeters>76.59999847412109375</AltitudeMeters>
            <DistanceMeters>NAN</DistanceMeters>
          </Trackpoint>
          <Trackpoint>
            <Time>2022-07-08T09:23:19.000Z</Time>
            <Position>
              <LatitudeDegrees>43.44259587116539478302001953125</LatitudeDegrees>
              <LongitudeDegrees>-1.59015976823866367340087890625</LongitudeDegrees>
            </Position>
            <AltitudeMeters>76.59999847412109375</AltitudeMeters>
            <DistanceMeters>NAN</DistanceMeters>
          </Trackpoint>
          <Trackpoint>
            <Time>2022-07-08T09:23:27.000Z</Time>
            <Position>
              <LatitudeDegrees>43.4423086233437061309814453125</LatitudeDegrees>
              <LongitudeDegrees>-1.5903663821518421173095703125</LongitudeDegrees>
            </Position>
            <AltitudeMeters>76.1999969482421875</AltitudeMeters>
            <DistanceMeters>NAN</DistanceMeters>
          </Trackpoint>
          <Trackpoint>
            <Time>2022-07-08T09:23:33.000Z</Time>
            <Position>
              <LatitudeDegrees>43.4420739300549030303955078125</LatitudeDegrees>
              <LongitudeDegrees>-1.5905809588730335235595703125</LongitudeDegrees>
            </Position>
            <AltitudeMeters>75.8000030517578125</AltitudeMeters>
            <DistanceMeters>NAN</DistanceMeters>
          </Trackpoint>
          <Trackpoint>
            <Time>2022-07-08T09:23:38.000Z</Time>
            <Position>
              <LatitudeDegrees>43.44194811768829822540283203125</LatitudeDegrees>
              <LongitudeDegrees>-1.5907154045999050140380859375</LongitudeDegrees>
            </Position>
            <AltitudeMeters>75.8000030517578125</AltitudeMeters>
            <DistanceMeters>NAN</DistanceMeters>
          </Trackpoint>
          <Trackpoint>
            <Time>2022-07-08T09:23:46.000Z</Time>
            <Position>
              <LatitudeDegrees>43.4417694993317127227783203125</LatitudeDegrees>
              <LongitudeDegrees>-1.59088455140590667724609375</LongitudeDegrees>
            </Position>
            <AltitudeMeters>76.1999969482421875</AltitudeMeters>
            <DistanceMeters>NAN</DistanceMeters>
          </Trackpoint>
          <Trackpoint>
            <Time>2022-07-08T09:23:55.000Z</Time>
            <Position>
              <LatitudeDegrees>43.44159356318414211273193359375</LatitudeDegrees>
              <LongitudeDegrees>-1.5910221822559833526611328125</LongitudeDegrees>
            </Position>
            <AltitudeMeters>77</AltitudeMeters>
            <DistanceMeters>NAN</DistanceMeters>
          </Trackpoint>
          <Trackpoint>
            <Time>2022-07-08T09:23:56.000Z</Time>
            <Position>
              <LatitudeDegrees>43.4415747039020061492919921875</LatitudeDegrees>
              <LongitudeDegrees>-1.59103618003427982330322265625</LongitudeDegrees>
            </Position>
            <AltitudeMeters>77.1999969482421875</AltitudeMeters>
            <DistanceMeters>NAN</DistanceMeters>
          </Trackpoint>
          <Trackpoint>
            <Time>2022-07-08T09:24:03.000Z</Time>
            <Position>
              <LatitudeDegrees>43.4414576925337314605712890625</LatitudeDegrees>
              <LongitudeDegrees>-1.5911220945417881011962890625</LongitudeDegrees>
            </Position>
            <AltitudeMeters>78</AltitudeMeters>
            <DistanceMeters>NAN</DistanceMeters>
          </Trackpoint>
          <Trackpoint>
            <Time>2022-07-08T09:24:08.000Z</Time>
            <Position>
              <LatitudeDegrees>43.441376052796840667724609375</LatitudeDegrees>
              <LongitudeDegrees>-1.59117867238819599151611328125</LongitudeDegrees>
            </Position>
            <AltitudeMeters>78.1999969482421875</AltitudeMeters>
            <DistanceMeters>NAN</DistanceMeters>
          </Trackpoint>
          <Trackpoint>
            <Time>2022-07-08T09:24:18.000Z</Time>
            <Position>
              <LatitudeDegrees>43.44123230315744876861572265625</LatitudeDegrees>
              <LongitudeDegrees>-1.5913004614412784576416015625</LongitudeDegrees>
            </Position>
            <AltitudeMeters>79</AltitudeMeters>
            <DistanceMeters>NAN</DistanceMeters>
          </Trackpoint>
          <Trackpoint>
            <Time>2022-07-08T09:24:21.000Z</Time>
            <Position>
              <LatitudeDegrees>43.44118569977581501007080078125</LatitudeDegrees>
              <LongitudeDegrees>-1.5913420356810092926025390625</LongitudeDegrees>
            </Position>
            <AltitudeMeters>79.1999969482421875</AltitudeMeters>
            <DistanceMeters>NAN</DistanceMeters>
          </Trackpoint>
          <Trackpoint>
            <Time>2022-07-08T09:24:24.000Z</Time>
            <Position>
              <LatitudeDegrees>43.441123254597187042236328125</LatitudeDegrees>
              <LongitudeDegrees>-1.591380424797534942626953125</LongitudeDegrees>
            </Position>
            <AltitudeMeters>79.40000152587890625</AltitudeMeters>
            <DistanceMeters>NAN</DistanceMeters>
          </Trackpoint>
          <Trackpoint>
            <Time>2022-07-08T09:24:26.000Z</Time>
            <Position>
              <LatitudeDegrees>43.44108260236680507659912109375</LatitudeDegrees>
              <LongitudeDegrees>-1.5914094261825084686279296875</LongitudeDegrees>
            </Position>
            <AltitudeMeters>79.40000152587890625</AltitudeMeters>
            <DistanceMeters>NAN</DistanceMeters>
          </Trackpoint>
          <Trackpoint>
            <Time>2022-07-08T09:24:28.000Z</Time>
            <Position>
              <LatitudeDegrees>43.441040106117725372314453125</LatitudeDegrees>
              <LongitudeDegrees>-1.59143918193876743316650390625</LongitudeDegrees>
            </Position>
            <AltitudeMeters>79.40000152587890625</AltitudeMeters>
            <DistanceMeters>NAN</DistanceMeters>
          </Trackpoint>
          <Trackpoint>
            <Time>2022-07-08T09:24:31.000Z</Time>
            <Position>
              <LatitudeDegrees>43.44097816385328769683837890625</LatitudeDegrees>
              <LongitudeDegrees>-1.591492407023906707763671875</LongitudeDegrees>
            </Position>
            <AltitudeMeters>79.59999847412109375</AltitudeMeters>
            <DistanceMeters>NAN</DistanceMeters>
          </Trackpoint>
          <Trackpoint>
            <Time>2022-07-08T09:24:35.000Z</Time>
            <Position>
              <LatitudeDegrees>43.44087137840688228607177734375</LatitudeDegrees>
              <LongitudeDegrees>-1.5915525890886783599853515625</LongitudeDegrees>
            </Position>
            <AltitudeMeters>79.8000030517578125</AltitudeMeters>
            <DistanceMeters>NAN</DistanceMeters>
          </Trackpoint>
          <Trackpoint>
            <Time>2022-07-08T09:24:37.000Z</Time>
            <Position>
              <LatitudeDegrees>43.44080717302858829498291015625</LatitudeDegrees>
              <LongitudeDegrees>-1.59155786968767642974853515625</LongitudeDegrees>
            </Position>
            <AltitudeMeters>79.1999969482421875</AltitudeMeters>
            <DistanceMeters>NAN</DistanceMeters>
          </Trackpoint>
          <Trackpoint>
            <Time>2022-07-08T09:24:40.000Z</Time>
            <Position>
              <LatitudeDegrees>43.44070558436214923858642578125</LatitudeDegrees>
              <LongitudeDegrees>-1.5915733762085437774658203125</LongitudeDegrees>
            </Position>
            <AltitudeMeters>77.8000030517578125</AltitudeMeters>
            <DistanceMeters>NAN</DistanceMeters>
          </Trackpoint>
          <Trackpoint>
            <Time>2022-07-08T09:24:43.000Z</Time>
            <Position>
              <LatitudeDegrees>43.44062411226332187652587890625</LatitudeDegrees>
              <LongitudeDegrees>-1.59160715527832508087158203125</LongitudeDegrees>
            </Position>
            <AltitudeMeters>77.1999969482421875</AltitudeMeters>
            <DistanceMeters>NAN</DistanceMeters>
          </Trackpoint>
          <Trackpoint>
            <Time>2022-07-08T09:24:46.000Z</Time>
            <Position>
              <LatitudeDegrees>43.4405314922332763671875</LatitudeDegrees>
              <LongitudeDegrees>-1.59162861295044422149658203125</LongitudeDegrees>
            </Position>
            <AltitudeMeters>76.8000030517578125</AltitudeMeters>
            <DistanceMeters>NAN</DistanceMeters>
          </Trackpoint>
          <Trackpoint>
            <Time>2022-07-08T09:24:49.000Z</Time>
            <Position>
              <LatitudeDegrees>43.4404025785624980926513671875</LatitudeDegrees>
              <LongitudeDegrees>-1.5916223265230655670166015625</LongitudeDegrees>
            </Position>
            <AltitudeMeters>76.40000152587890625</AltitudeMeters>
            <DistanceMeters>NAN</DistanceMeters>
          </Trackpoint>
          <Trackpoint>
            <Time>2022-07-08T09:24:52.000Z</Time>
            <Position>
              <LatitudeDegrees>43.440275005996227264404296875</LatitudeDegrees>
              <LongitudeDegrees>-1.59159273840487003326416015625</LongitudeDegrees>
            </Position>
            <AltitudeMeters>75.40000152587890625</AltitudeMeters>
            <DistanceMeters>NAN</DistanceMeters>
          </Trackpoint>
          <Trackpoint>
            <Time>2022-07-08T09:24:54.000Z</Time>
            <Position>
              <LatitudeDegrees>43.440179787576198577880859375</LatitudeDegrees>
              <LongitudeDegrees>-1.591582261025905609130859375</LongitudeDegrees>
            </Position>
            <AltitudeMeters>74.8000030517578125</AltitudeMeters>
            <DistanceMeters>NAN</DistanceMeters>
          </Trackpoint>
          <Trackpoint>
            <Time>2022-07-08T09:24:55.000Z</Time>
            <Position>
              <LatitudeDegrees>43.440134525299072265625</LatitudeDegrees>
              <LongitudeDegrees>-1.59158016555011272430419921875</LongitudeDegrees>
            </Position>
            <AltitudeMeters>74.1999969482421875</AltitudeMeters>
            <DistanceMeters>NAN</DistanceMeters>
          </Trackpoint>
          <Trackpoint>
            <Time>2022-07-08T09:24:56.000Z</Time>
            <Position>
              <LatitudeDegrees>43.44009471125900745391845703125</LatitudeDegrees>
              <LongitudeDegrees>-1.5915807522833347320556640625</LongitudeDegrees>
            </Position>
            <AltitudeMeters>74</AltitudeMeters>
            <DistanceMeters>NAN</DistanceMeters>
          </Trackpoint>
          <Trackpoint>
            <Time>2022-07-08T09:24:58.000Z</Time>
            <Position>
              <LatitudeDegrees>43.44001407735049724578857421875</LatitudeDegrees>
              <LongitudeDegrees>-1.59160229377448558807373046875</LongitudeDegrees>
            </Position>
            <AltitudeMeters>72.8000030517578125</AltitudeMeters>
            <DistanceMeters>NAN</DistanceMeters>
          </Trackpoint>
          <Trackpoint>
            <Time>2022-07-08T09:24:59.000Z</Time>
            <Position>
              <LatitudeDegrees>43.4399722516536712646484375</LatitudeDegrees>
              <LongitudeDegrees>-1.59161905758082866668701171875</LongitudeDegrees>
            </Position>
            <AltitudeMeters>72.40000152587890625</AltitudeMeters>
            <DistanceMeters>NAN</DistanceMeters>
          </Trackpoint>
          <Trackpoint>
            <Time>2022-07-08T09:25:00.000Z</Time>
            <Position>
              <LatitudeDegrees>43.43992975540459156036376953125</LatitudeDegrees>
              <LongitudeDegrees>-1.59164185635745525360107421875</LongitudeDegrees>
            </Position>
            <AltitudeMeters>72</AltitudeMeters>
            <DistanceMeters>NAN</DistanceMeters>
          </Trackpoint>
          <Trackpoint>
            <Time>2022-07-08T09:25:01.000Z</Time>
            <Position>
              <LatitudeDegrees>43.43989111483097076416015625</LatitudeDegrees>
              <LongitudeDegrees>-1.59167488105595111846923828125</LongitudeDegrees>
            </Position>
            <AltitudeMeters>71.59999847412109375</AltitudeMeters>
            <DistanceMeters>NAN</DistanceMeters>
          </Trackpoint>
          <Trackpoint>
            <Time>2022-07-08T09:25:02.000Z</Time>
            <Position>
              <LatitudeDegrees>43.43985758721828460693359375</LatitudeDegrees>
              <LongitudeDegrees>-1.5917098335921764373779296875</LongitudeDegrees>
            </Position>
            <AltitudeMeters>71</AltitudeMeters>
            <DistanceMeters>NAN</DistanceMeters>
          </Trackpoint>
          <Trackpoint>
            <Time>2022-07-08T09:25:03.000Z</Time>
            <Position>
              <LatitudeDegrees>43.4398299269378185272216796875</LatitudeDegrees>
              <LongitudeDegrees>-1.5917577780783176422119140625</LongitudeDegrees>
            </Position>
            <AltitudeMeters>70.40000152587890625</AltitudeMeters>
            <DistanceMeters>NAN</DistanceMeters>
          </Trackpoint>
          <Trackpoint>
            <Time>2022-07-08T09:25:04.000Z</Time>
            <Position>
              <LatitudeDegrees>43.43980536796152591705322265625</LatitudeDegrees>
              <LongitudeDegrees>-1.59182374365627765655517578125</LongitudeDegrees>
            </Position>
            <AltitudeMeters>69.8000030517578125</AltitudeMeters>
            <DistanceMeters>NAN</DistanceMeters>
          </Trackpoint>
          <Trackpoint>
            <Time>2022-07-08T09:25:05.000Z</Time>
            <Position>
              <LatitudeDegrees>43.4397860057651996612548828125</LatitudeDegrees>
              <LongitudeDegrees>-1.591884009540081024169921875</LongitudeDegrees>
            </Position>
            <AltitudeMeters>69.1999969482421875</AltitudeMeters>
            <DistanceMeters>NAN</DistanceMeters>
          </Trackpoint>
          <Trackpoint>
            <Time>2022-07-08T09:25:07.000Z</Time>
            <Position>
              <LatitudeDegrees>43.43974971212446689605712890625</LatitudeDegrees>
              <LongitudeDegrees>-1.59199255518615245819091796875</LongitudeDegrees>
            </Position>
            <AltitudeMeters>68.1999969482421875</AltitudeMeters>
            <DistanceMeters>NAN</DistanceMeters>
          </Trackpoint>
          <Trackpoint>
            <Time>2022-07-08T09:25:08.000Z</Time>
            <Position>
              <LatitudeDegrees>43.43973093666136264801025390625</LatitudeDegrees>
              <LongitudeDegrees>-1.59203630872070789337158203125</LongitudeDegrees>
            </Position>
            <AltitudeMeters>67.59999847412109375</AltitudeMeters>
            <DistanceMeters>NAN</DistanceMeters>
          </Trackpoint>
          <Trackpoint>
            <Time>2022-07-08T09:25:09.000Z</Time>
            <Position>
              <LatitudeDegrees>43.4397112391889095306396484375</LatitudeDegrees>
              <LongitudeDegrees>-1.59206363372504711151123046875</LongitudeDegrees>
            </Position>
            <AltitudeMeters>66.8000030517578125</AltitudeMeters>
            <DistanceMeters>NAN</DistanceMeters>
          </Trackpoint>
          <Trackpoint>
            <Time>2022-07-08T09:25:11.000Z</Time>
            <Position>
              <LatitudeDegrees>43.43967058695852756500244140625</LatitudeDegrees>
              <LongitudeDegrees>-1.59207251854240894317626953125</LongitudeDegrees>
            </Position>
            <AltitudeMeters>66.1999969482421875</AltitudeMeters>
            <DistanceMeters>NAN</DistanceMeters>
          </Trackpoint>
          <Trackpoint>
            <Time>2022-07-08T09:25:13.000Z</Time>
            <Position>
              <LatitudeDegrees>43.43964057974517345428466796875</LatitudeDegrees>
              <LongitudeDegrees>-1.59205575473606586456298828125</LongitudeDegrees>
            </Position>
            <AltitudeMeters>65.59999847412109375</AltitudeMeters>
            <DistanceMeters>NAN</DistanceMeters>
          </Trackpoint>
          <Trackpoint>
            <Time>2022-07-08T09:25:15.000Z</Time>
            <Position>
              <LatitudeDegrees>43.43962197192013263702392578125</LatitudeDegrees>
              <LongitudeDegrees>-1.59208626486361026763916015625</LongitudeDegrees>
            </Position>
            <AltitudeMeters>65</AltitudeMeters>
            <DistanceMeters>NAN</DistanceMeters>
          </Trackpoint>
          <Trackpoint>
            <Time>2022-07-08T09:25:23.000Z</Time>
            <Position>
              <LatitudeDegrees>43.43958609737455844879150390625</LatitudeDegrees>
              <LongitudeDegrees>-1.59226831980049610137939453125</LongitudeDegrees>
            </Position>
            <AltitudeMeters>65.1999969482421875</AltitudeMeters>
            <DistanceMeters>NAN</DistanceMeters>
          </Trackpoint>
          <Trackpoint>
            <Time>2022-07-08T09:25:32.000Z</Time>
            <Position>
              <LatitudeDegrees>43.4395243227481842041015625</LatitudeDegrees>
              <LongitudeDegrees>-1.59247384406626224517822265625</LongitudeDegrees>
            </Position>
            <AltitudeMeters>66.1999969482421875</AltitudeMeters>
            <DistanceMeters>NAN</DistanceMeters>
          </Trackpoint>
          <Trackpoint>
            <Time>2022-07-08T09:25:38.000Z</Time>
            <Position>
              <LatitudeDegrees>43.43950697220861911773681640625</LatitudeDegrees>
              <LongitudeDegrees>-1.59259848296642303466796875</LongitudeDegrees>
            </Position>
            <AltitudeMeters>66.59999847412109375</AltitudeMeters>
            <DistanceMeters>NAN</DistanceMeters>
          </Trackpoint>
          <Trackpoint>
            <Time>2022-07-08T09:25:39.000Z</Time>
            <Position>
              <LatitudeDegrees>43.43951116316020488739013671875</LatitudeDegrees>
              <LongitudeDegrees>-1.5926197730004787445068359375</LongitudeDegrees>
            </Position>
            <AltitudeMeters>66.8000030517578125</AltitudeMeters>
            <DistanceMeters>NAN</DistanceMeters>
          </Trackpoint>
          <Trackpoint>
            <Time>2022-07-08T09:25:41.000Z</Time>
            <Position>
              <LatitudeDegrees>43.4395191259682178497314453125</LatitudeDegrees>
              <LongitudeDegrees>-1.592661179602146148681640625</LongitudeDegrees>
            </Position>
            <AltitudeMeters>66.59999847412109375</AltitudeMeters>
            <DistanceMeters>NAN</DistanceMeters>
          </Trackpoint>
          <Trackpoint>
            <Time>2022-07-08T09:25:45.000Z</Time>
            <Position>
              <LatitudeDegrees>43.43950361944735050201416015625</LatitudeDegrees>
              <LongitudeDegrees>-1.5927310846745967864990234375</LongitudeDegrees>
            </Position>
            <AltitudeMeters>66.59999847412109375</AltitudeMeters>
            <DistanceMeters>NAN</DistanceMeters>
          </Trackpoint>
          <Trackpoint>
            <Time>2022-07-08T09:25:49.000Z</Time>
            <Position>
              <LatitudeDegrees>43.43949808739125728607177734375</LatitudeDegrees>
              <LongitudeDegrees>-1.5927478484809398651123046875</LongitudeDegrees>
            </Position>
            <AltitudeMeters>66.40000152587890625</AltitudeMeters>
            <DistanceMeters>NAN</DistanceMeters>
          </Trackpoint>
          <Trackpoint>
            <Time>2022-07-08T09:29:00.000Z</Time>
            <Position>
              <LatitudeDegrees>43.439532034099102020263671875</LatitudeDegrees>
              <LongitudeDegrees>-1.5925181843340396881103515625</LongitudeDegrees>
            </Position>
            <AltitudeMeters>65.1999969482421875</AltitudeMeters>
            <DistanceMeters>NAN</DistanceMeters>
          </Trackpoint>
          <Trackpoint>
            <Time>2022-07-08T09:29:01.000Z</Time>
            <Position>
              <LatitudeDegrees>43.439535386860370635986328125</LatitudeDegrees>
              <LongitudeDegrees>-1.5925010852515697479248046875</LongitudeDegrees>
            </Position>
            <AltitudeMeters>65.1999969482421875</AltitudeMeters>
            <DistanceMeters>NAN</DistanceMeters>
          </Trackpoint>
          <Trackpoint>
            <Time>2022-07-08T09:29:06.000Z</Time>
            <Position>
              <LatitudeDegrees>43.43957352451980113983154296875</LatitudeDegrees>
              <LongitudeDegrees>-1.59234660677611827850341796875</LongitudeDegrees>
            </Position>
            <AltitudeMeters>65.1999969482421875</AltitudeMeters>
            <DistanceMeters>NAN</DistanceMeters>
          </Trackpoint>
          <Trackpoint>
            <Time>2022-07-08T09:29:13.000Z</Time>
            <Position>
              <LatitudeDegrees>43.4396404959261417388916015625</LatitudeDegrees>
              <LongitudeDegrees>-1.59207880496978759765625</LongitudeDegrees>
            </Position>
            <AltitudeMeters>65.40000152587890625</AltitudeMeters>
            <DistanceMeters>NAN</DistanceMeters>
          </Trackpoint>
          <Trackpoint>
            <Time>2022-07-08T09:29:16.000Z</Time>
            <Position>
              <LatitudeDegrees>43.4396451897919178009033203125</LatitudeDegrees>
              <LongitudeDegrees>-1.59194561652839183807373046875</LongitudeDegrees>
            </Position>
            <AltitudeMeters>64.8000030517578125</AltitudeMeters>
            <DistanceMeters>NAN</DistanceMeters>
          </Trackpoint>
          <Trackpoint>
            <Time>2022-07-08T09:29:17.000Z</Time>
            <Position>
              <LatitudeDegrees>43.43964845873415470123291015625</LatitudeDegrees>
              <LongitudeDegrees>-1.59189498983323574066162109375</LongitudeDegrees>
            </Position>
            <AltitudeMeters>64.59999847412109375</AltitudeMeters>
            <DistanceMeters>NAN</DistanceMeters>
          </Trackpoint>
          <Trackpoint>
            <Time>2022-07-08T09:29:18.000Z</Time>
            <Position>
              <LatitudeDegrees>43.4396542422473430633544921875</LatitudeDegrees>
              <LongitudeDegrees>-1.59184612333774566650390625</LongitudeDegrees>
            </Position>
            <AltitudeMeters>64.40000152587890625</AltitudeMeters>
            <DistanceMeters>NAN</DistanceMeters>
          </Trackpoint>
          <Trackpoint>
            <Time>2022-07-08T09:29:20.000Z</Time>
            <Position>
              <LatitudeDegrees>43.43965851701796054840087890625</LatitudeDegrees>
              <LongitudeDegrees>-1.591732800006866455078125</LongitudeDegrees>
            </Position>
            <AltitudeMeters>64.1999969482421875</AltitudeMeters>
            <DistanceMeters>NAN</DistanceMeters>
          </Trackpoint>
          <Trackpoint>
            <Time>2022-07-08T09:29:23.000Z</Time>
            <Position>
              <LatitudeDegrees>43.4396431781351566314697265625</LatitudeDegrees>
              <LongitudeDegrees>-1.59157664515078067779541015625</LongitudeDegrees>
            </Position>
            <AltitudeMeters>63.799999237060546875</AltitudeMeters>
            <DistanceMeters>NAN</DistanceMeters>
          </Trackpoint>
          <Trackpoint>
            <Time>2022-07-08T09:29:25.000Z</Time>
            <Position>
              <LatitudeDegrees>43.439633958041667938232421875</LatitudeDegrees>
              <LongitudeDegrees>-1.59147120080888271331787109375</LongitudeDegrees>
            </Position>
            <AltitudeMeters>63.200000762939453125</AltitudeMeters>
            <DistanceMeters>NAN</DistanceMeters>
          </Trackpoint>
          <Trackpoint>
            <Time>2022-07-08T09:29:26.000Z</Time>
            <Position>
              <LatitudeDegrees>43.43962565995752811431884765625</LatitudeDegrees>
              <LongitudeDegrees>-1.59140967763960361480712890625</LongitudeDegrees>
            </Position>
            <AltitudeMeters>63.200000762939453125</AltitudeMeters>
            <DistanceMeters>NAN</DistanceMeters>
          </Trackpoint>
          <Trackpoint>
            <Time>2022-07-08T09:29:28.000Z</Time>
            <Position>
              <LatitudeDegrees>43.43961208127439022064208984375</LatitudeDegrees>
              <LongitudeDegrees>-1.5913049876689910888671875</LongitudeDegrees>
            </Position>
            <AltitudeMeters>63</AltitudeMeters>
            <DistanceMeters>NAN</DistanceMeters>
          </Trackpoint>
          <Trackpoint>
            <Time>2022-07-08T09:29:30.000Z</Time>
            <Position>
              <LatitudeDegrees>43.43959883786737918853759765625</LatitudeDegrees>
              <LongitudeDegrees>-1.59119836986064910888671875</LongitudeDegrees>
            </Position>
            <AltitudeMeters>62.799999237060546875</AltitudeMeters>
            <DistanceMeters>NAN</DistanceMeters>
          </Trackpoint>
          <Trackpoint>
            <Time>2022-07-08T09:29:38.000Z</Time>
            <Position>
              <LatitudeDegrees>43.4395855106413364410400390625</LatitudeDegrees>
              <LongitudeDegrees>-1.5908143110573291778564453125</LongitudeDegrees>
            </Position>
            <AltitudeMeters>62</AltitudeMeters>
            <DistanceMeters>NAN</DistanceMeters>
          </Trackpoint>
          <Trackpoint>
            <Time>2022-07-08T09:29:42.000Z</Time>
            <Position>
              <LatitudeDegrees>43.43956396915018558502197265625</LatitudeDegrees>
              <LongitudeDegrees>-1.5906853973865509033203125</LongitudeDegrees>
            </Position>
            <AltitudeMeters>61.59999847412109375</AltitudeMeters>
            <DistanceMeters>NAN</DistanceMeters>
          </Trackpoint>
          <Trackpoint>
            <Time>2022-07-08T09:29:46.000Z</Time>
            <Position>
              <LatitudeDegrees>43.43952608294785022735595703125</LatitudeDegrees>
              <LongitudeDegrees>-1.59058682620525360107421875</LongitudeDegrees>
            </Position>
            <AltitudeMeters>61</AltitudeMeters>
            <DistanceMeters>NAN</DistanceMeters>
          </Trackpoint>
          <Trackpoint>
            <Time>2022-07-08T09:29:50.000Z</Time>
            <Position>
              <LatitudeDegrees>43.4394835866987705230712890625</LatitudeDegrees>
              <LongitudeDegrees>-1.5904815495014190673828125</LongitudeDegrees>
            </Position>
            <AltitudeMeters>60.59999847412109375</AltitudeMeters>
            <DistanceMeters>NAN</DistanceMeters>
          </Trackpoint>
          <Trackpoint>
            <Time>2022-07-08T09:29:58.000Z</Time>
            <Position>
              <LatitudeDegrees>43.43940622173249721527099609375</LatitudeDegrees>
              <LongitudeDegrees>-1.59032304771244525909423828125</LongitudeDegrees>
            </Position>
            <AltitudeMeters>60.59999847412109375</AltitudeMeters>
            <DistanceMeters>NAN</DistanceMeters>
          </Trackpoint>
          <Trackpoint>
            <Time>2022-07-08T09:30:03.000Z</Time>
            <Position>
              <LatitudeDegrees>43.4393551759421825408935546875</LatitudeDegrees>
              <LongitudeDegrees>-1.59021358005702495574951171875</LongitudeDegrees>
            </Position>
            <AltitudeMeters>60.59999847412109375</AltitudeMeters>
            <DistanceMeters>NAN</DistanceMeters>
          </Trackpoint>
          <Trackpoint>
            <Time>2022-07-08T09:30:04.000Z</Time>
            <Position>
              <LatitudeDegrees>43.43935023061931133270263671875</LatitudeDegrees>
              <LongitudeDegrees>-1.59018524922430515289306640625</LongitudeDegrees>
            </Position>
            <AltitudeMeters>60.59999847412109375</AltitudeMeters>
            <DistanceMeters>NAN</DistanceMeters>
          </Trackpoint>
          <Trackpoint>
            <Time>2022-07-08T09:30:06.000Z</Time>
            <Position>
              <LatitudeDegrees>43.43932994641363620758056640625</LatitudeDegrees>
              <LongitudeDegrees>-1.5901457704603672027587890625</LongitudeDegrees>
            </Position>
            <AltitudeMeters>60.59999847412109375</AltitudeMeters>
            <DistanceMeters>NAN</DistanceMeters>
          </Trackpoint>
          <Trackpoint>
            <Time>2022-07-08T09:30:09.000Z</Time>
            <Position>
              <LatitudeDegrees>43.4392881207168102264404296875</LatitudeDegrees>
              <LongitudeDegrees>-1.59012573771178722381591796875</LongitudeDegrees>
            </Position>
            <AltitudeMeters>60.200000762939453125</AltitudeMeters>
            <DistanceMeters>NAN</DistanceMeters>
          </Trackpoint>
          <Trackpoint>
            <Time>2022-07-08T09:30:12.000Z</Time>
            <Position>
              <LatitudeDegrees>43.43926087953150272369384765625</LatitudeDegrees>
              <LongitudeDegrees>-1.59011609852313995361328125</LongitudeDegrees>
            </Position>
            <AltitudeMeters>60</AltitudeMeters>
            <DistanceMeters>NAN</DistanceMeters>
          </Trackpoint>
          <Trackpoint>
            <Time>2022-07-08T09:30:14.000Z</Time>
            <Position>
              <LatitudeDegrees>43.4392346441745758056640625</LatitudeDegrees>
              <LongitudeDegrees>-1.59009589813649654388427734375</LongitudeDegrees>
            </Position>
            <AltitudeMeters>59.799999237060546875</AltitudeMeters>
            <DistanceMeters>NAN</DistanceMeters>
          </Trackpoint>
          <Trackpoint>
            <Time>2022-07-08T09:30:23.000Z</Time>
            <Position>
              <LatitudeDegrees>43.43914470635354518890380859375</LatitudeDegrees>
              <LongitudeDegrees>-1.5899653919041156768798828125</LongitudeDegrees>
            </Position>
            <AltitudeMeters>59.200000762939453125</AltitudeMeters>
            <DistanceMeters>NAN</DistanceMeters>
          </Trackpoint>
          <Trackpoint>
            <Time>2022-07-08T09:30:26.000Z</Time>
            <Position>
              <LatitudeDegrees>43.43911604024469852447509765625</LatitudeDegrees>
              <LongitudeDegrees>-1.5899130888283252716064453125</LongitudeDegrees>
            </Position>
            <AltitudeMeters>59</AltitudeMeters>
            <DistanceMeters>NAN</DistanceMeters>
          </Trackpoint>
          <Trackpoint>
            <Time>2022-07-08T09:30:31.000Z</Time>
            <Position>
              <LatitudeDegrees>43.439102880656719207763671875</LatitudeDegrees>
              <LongitudeDegrees>-1.5898869372904300689697265625</LongitudeDegrees>
            </Position>
            <AltitudeMeters>58.59999847412109375</AltitudeMeters>
            <DistanceMeters>NAN</DistanceMeters>
          </Trackpoint>
          <Trackpoint>
            <Time>2022-07-08T09:32:51.000Z</Time>
            <Position>
              <LatitudeDegrees>43.4392623044550418853759765625</LatitudeDegrees>
              <LongitudeDegrees>-1.59026605077087879180908203125</LongitudeDegrees>
            </Position>
            <AltitudeMeters>58.799999237060546875</AltitudeMeters>
            <DistanceMeters>NAN</DistanceMeters>
          </Trackpoint>
          <Trackpoint>
            <Time>2022-07-08T09:32:52.000Z</Time>
            <Position>
              <LatitudeDegrees>43.43925098888576030731201171875</LatitudeDegrees>
              <LongitudeDegrees>-1.5902976505458354949951171875</LongitudeDegrees>
            </Position>
            <AltitudeMeters>58.799999237060546875</AltitudeMeters>
            <DistanceMeters>NAN</DistanceMeters>
          </Trackpoint>
          <Trackpoint>
            <Time>2022-07-08T09:32:53.000Z</Time>
            <Position>
              <LatitudeDegrees>43.43923741020262241363525390625</LatitudeDegrees>
              <LongitudeDegrees>-1.59033779986202716827392578125</LongitudeDegrees>
            </Position>
            <AltitudeMeters>58.59999847412109375</AltitudeMeters>
            <DistanceMeters>NAN</DistanceMeters>
          </Trackpoint>
          <Trackpoint>
            <Time>2022-07-08T09:32:59.000Z</Time>
            <Position>
              <LatitudeDegrees>43.4391858614981174468994140625</LatitudeDegrees>
              <LongitudeDegrees>-1.59058271907269954681396484375</LongitudeDegrees>
            </Position>
            <AltitudeMeters>57.799999237060546875</AltitudeMeters>
            <DistanceMeters>NAN</DistanceMeters>
          </Trackpoint>
          <Trackpoint>
            <Time>2022-07-08T09:33:01.000Z</Time>
            <Position>
              <LatitudeDegrees>43.43917303718626499176025390625</LatitudeDegrees>
              <LongitudeDegrees>-1.59067240543663501739501953125</LongitudeDegrees>
            </Position>
            <AltitudeMeters>57.40000152587890625</AltitudeMeters>
            <DistanceMeters>NAN</DistanceMeters>
          </Trackpoint>
          <Trackpoint>
            <Time>2022-07-08T09:33:03.000Z</Time>
            <Position>
              <LatitudeDegrees>43.43914437107741832733154296875</LatitudeDegrees>
              <LongitudeDegrees>-1.59077860414981842041015625</LongitudeDegrees>
            </Position>
            <AltitudeMeters>56.799999237060546875</AltitudeMeters>
            <DistanceMeters>NAN</DistanceMeters>
          </Trackpoint>
          <Trackpoint>
            <Time>2022-07-08T09:33:04.000Z</Time>
            <Position>
              <LatitudeDegrees>43.439131714403629302978515625</LatitudeDegrees>
              <LongitudeDegrees>-1.59084029495716094970703125</LongitudeDegrees>
            </Position>
            <AltitudeMeters>56.40000152587890625</AltitudeMeters>
            <DistanceMeters>NAN</DistanceMeters>
          </Trackpoint>
          <Trackpoint>
            <Time>2022-07-08T09:33:05.000Z</Time>
            <Position>
              <LatitudeDegrees>43.43911704607307910919189453125</LatitudeDegrees>
              <LongitudeDegrees>-1.5909091942012310028076171875</LongitudeDegrees>
            </Position>
            <AltitudeMeters>56</AltitudeMeters>
            <DistanceMeters>NAN</DistanceMeters>
          </Trackpoint>
          <Trackpoint>
            <Time>2022-07-08T09:33:07.000Z</Time>
            <Position>
              <LatitudeDegrees>43.4390844404697418212890625</LatitudeDegrees>
              <LongitudeDegrees>-1.59106115810573101043701171875</LongitudeDegrees>
            </Position>
            <AltitudeMeters>55.59999847412109375</AltitudeMeters>
            <DistanceMeters>NAN</DistanceMeters>
          </Trackpoint>
          <Trackpoint>
            <Time>2022-07-08T09:33:09.000Z</Time>
            <Position>
              <LatitudeDegrees>43.43905426561832427978515625</LatitudeDegrees>
              <LongitudeDegrees>-1.591217815876007080078125</LongitudeDegrees>
            </Position>
            <AltitudeMeters>55.40000152587890625</AltitudeMeters>
            <DistanceMeters>NAN</DistanceMeters>
          </Trackpoint>
          <Trackpoint>
            <Time>2022-07-08T09:33:11.000Z</Time>
            <Position>
              <LatitudeDegrees>43.439021408557891845703125</LatitudeDegrees>
              <LongitudeDegrees>-1.591381095349788665771484375</LongitudeDegrees>
            </Position>
            <AltitudeMeters>55</AltitudeMeters>
            <DistanceMeters>NAN</DistanceMeters>
          </Trackpoint>
          <Trackpoint>
            <Time>2022-07-08T09:33:12.000Z</Time>
            <Position>
              <LatitudeDegrees>43.43900657258927822113037109375</LatitudeDegrees>
              <LongitudeDegrees>-1.59146080724895000457763671875</LongitudeDegrees>
            </Position>
            <AltitudeMeters>54.200000762939453125</AltitudeMeters>
            <DistanceMeters>NAN</DistanceMeters>
          </Trackpoint>
          <Trackpoint>
            <Time>2022-07-08T09:33:16.000Z</Time>
            <Position>
              <LatitudeDegrees>43.43893348239362239837646484375</LatitudeDegrees>
              <LongitudeDegrees>-1.59178149886429309844970703125</LongitudeDegrees>
            </Position>
            <AltitudeMeters>53</AltitudeMeters>
            <DistanceMeters>NAN</DistanceMeters>
          </Trackpoint>
          <Trackpoint>
            <Time>2022-07-08T09:33:18.000Z</Time>
            <Position>
              <LatitudeDegrees>43.4388832747936248779296875</LatitudeDegrees>
              <LongitudeDegrees>-1.59191007725894451141357421875</LongitudeDegrees>
            </Position>
            <AltitudeMeters>52.59999847412109375</AltitudeMeters>
            <DistanceMeters>NAN</DistanceMeters>
          </Trackpoint>
          <Trackpoint>
            <Time>2022-07-08T09:33:20.000Z</Time>
            <Position>
              <LatitudeDegrees>43.4388086758553981781005859375</LatitudeDegrees>
              <LongitudeDegrees>-1.5920021943747997283935546875</LongitudeDegrees>
            </Position>
            <AltitudeMeters>52.200000762939453125</AltitudeMeters>
            <DistanceMeters>NAN</DistanceMeters>
          </Trackpoint>
          <Trackpoint>
            <Time>2022-07-08T09:33:21.000Z</Time>
            <Position>
              <LatitudeDegrees>43.4387640841305255889892578125</LatitudeDegrees>
              <LongitudeDegrees>-1.592034883797168731689453125</LongitudeDegrees>
            </Position>
            <AltitudeMeters>51.799999237060546875</AltitudeMeters>
            <DistanceMeters>NAN</DistanceMeters>
          </Trackpoint>
          <Trackpoint>
            <Time>2022-07-08T09:33:22.000Z</Time>
            <Position>
              <LatitudeDegrees>43.43871387653052806854248046875</LatitudeDegrees>
              <LongitudeDegrees>-1.59206346608698368072509765625</LongitudeDegrees>
            </Position>
            <AltitudeMeters>51.59999847412109375</AltitudeMeters>
            <DistanceMeters>NAN</DistanceMeters>
          </Trackpoint>
          <Trackpoint>
            <Time>2022-07-08T09:33:24.000Z</Time>
            <Position>
              <LatitudeDegrees>43.4386128745973110198974609375</LatitudeDegrees>
              <LongitudeDegrees>-1.59210520796477794647216796875</LongitudeDegrees>
            </Position>
            <AltitudeMeters>50.799999237060546875</AltitudeMeters>
            <DistanceMeters>NAN</DistanceMeters>
          </Trackpoint>
          <Trackpoint>
            <Time>2022-07-08T09:33:27.000Z</Time>
            <Position>
              <LatitudeDegrees>43.438460491597652435302734375</LatitudeDegrees>
              <LongitudeDegrees>-1.592160947620868682861328125</LongitudeDegrees>
            </Position>
            <AltitudeMeters>49.59999847412109375</AltitudeMeters>
            <DistanceMeters>NAN</DistanceMeters>
          </Trackpoint>
          <Trackpoint>
            <Time>2022-07-08T09:33:28.000Z</Time>
            <Position>
              <LatitudeDegrees>43.43841732479631900787353515625</LatitudeDegrees>
              <LongitudeDegrees>-1.59218081273138523101806640625</LongitudeDegrees>
            </Position>
            <AltitudeMeters>49.40000152587890625</AltitudeMeters>
            <DistanceMeters>NAN</DistanceMeters>
          </Trackpoint>
          <Trackpoint>
            <Time>2022-07-08T09:33:31.000Z</Time>
            <Position>
              <LatitudeDegrees>43.438287489116191864013671875</LatitudeDegrees>
              <LongitudeDegrees>-1.592244766652584075927734375</LongitudeDegrees>
            </Position>
            <AltitudeMeters>48.200000762939453125</AltitudeMeters>
            <DistanceMeters>NAN</DistanceMeters>
          </Trackpoint>
          <Trackpoint>
            <Time>2022-07-08T09:33:33.000Z</Time>
            <Position>
              <LatitudeDegrees>43.43818598426878452301025390625</LatitudeDegrees>
              <LongitudeDegrees>-1.59229296259582042694091796875</LongitudeDegrees>
            </Position>
            <AltitudeMeters>47.799999237060546875</AltitudeMeters>
            <DistanceMeters>NAN</DistanceMeters>
          </Trackpoint>
          <Trackpoint>
            <Time>2022-07-08T09:33:36.000Z</Time>
            <Position>
              <LatitudeDegrees>43.438027985394001007080078125</LatitudeDegrees>
              <LongitudeDegrees>-1.59237309359014034271240234375</LongitudeDegrees>
            </Position>
            <AltitudeMeters>47.40000152587890625</AltitudeMeters>
            <DistanceMeters>NAN</DistanceMeters>
          </Trackpoint>
          <Trackpoint>
            <Time>2022-07-08T09:33:37.000Z</Time>
            <Position>
              <LatitudeDegrees>43.43797794543206691741943359375</LatitudeDegrees>
              <LongitudeDegrees>-1.59240511246025562286376953125</LongitudeDegrees>
            </Position>
            <AltitudeMeters>47.200000762939453125</AltitudeMeters>
            <DistanceMeters>NAN</DistanceMeters>
          </Trackpoint>
          <Trackpoint>
            <Time>2022-07-08T09:33:42.000Z</Time>
            <Position>
              <LatitudeDegrees>43.4377465210855007171630859375</LatitudeDegrees>
              <LongitudeDegrees>-1.5926003269851207733154296875</LongitudeDegrees>
            </Position>
            <AltitudeMeters>47</AltitudeMeters>
            <DistanceMeters>NAN</DistanceMeters>
          </Trackpoint>
          <Trackpoint>
            <Time>2022-07-08T09:33:46.000Z</Time>
            <Position>
              <LatitudeDegrees>43.43757712282240390777587890625</LatitudeDegrees>
              <LongitudeDegrees>-1.59281574189662933349609375</LongitudeDegrees>
            </Position>
            <AltitudeMeters>46</AltitudeMeters>
            <DistanceMeters>NAN</DistanceMeters>
          </Trackpoint>
          <Trackpoint>
            <Time>2022-07-08T09:33:49.000Z</Time>
            <Position>
              <LatitudeDegrees>43.43744200654327869415283203125</LatitudeDegrees>
              <LongitudeDegrees>-1.5929966233670711517333984375</LongitudeDegrees>
            </Position>
            <AltitudeMeters>44.799999237060546875</AltitudeMeters>
            <DistanceMeters>NAN</DistanceMeters>
          </Trackpoint>
          <Trackpoint>
            <Time>2022-07-08T09:33:50.000Z</Time>
            <Position>
              <LatitudeDegrees>43.437397666275501251220703125</LatitudeDegrees>
              <LongitudeDegrees>-1.59305856563150882720947265625</LongitudeDegrees>
            </Position>
            <AltitudeMeters>44.40000152587890625</AltitudeMeters>
            <DistanceMeters>NAN</DistanceMeters>
          </Trackpoint>
          <Trackpoint>
            <Time>2022-07-08T09:33:52.000Z</Time>
            <Position>
              <LatitudeDegrees>43.4373036213219165802001953125</LatitudeDegrees>
              <LongitudeDegrees>-1.59318211488425731658935546875</LongitudeDegrees>
            </Position>
            <AltitudeMeters>43.40000152587890625</AltitudeMeters>
            <DistanceMeters>NAN</DistanceMeters>
          </Trackpoint>
          <Trackpoint>
            <Time>2022-07-08T09:33:55.000Z</Time>
            <Position>
              <LatitudeDegrees>43.43715819530189037322998046875</LatitudeDegrees>
              <LongitudeDegrees>-1.593373976647853851318359375</LongitudeDegrees>
            </Position>
            <AltitudeMeters>42.200000762939453125</AltitudeMeters>
            <DistanceMeters>NAN</DistanceMeters>
          </Trackpoint>
          <Trackpoint>
            <Time>2022-07-08T09:33:58.000Z</Time>
            <Position>
              <LatitudeDegrees>43.4370209835469722747802734375</LatitudeDegrees>
              <LongitudeDegrees>-1.59355578012764453887939453125</LongitudeDegrees>
            </Position>
            <AltitudeMeters>41</AltitudeMeters>
            <DistanceMeters>NAN</DistanceMeters>
          </Trackpoint>
          <Trackpoint>
            <Time>2022-07-08T09:33:59.000Z</Time>
            <Position>
              <LatitudeDegrees>43.4369757212698459625244140625</LatitudeDegrees>
              <LongitudeDegrees>-1.5936145372688770294189453125</LongitudeDegrees>
            </Position>
            <AltitudeMeters>40.59999847412109375</AltitudeMeters>
            <DistanceMeters>NAN</DistanceMeters>
          </Trackpoint>
          <Trackpoint>
            <Time>2022-07-08T09:34:01.000Z</Time>
            <Position>
              <LatitudeDegrees>43.43689198605716228485107421875</LatitudeDegrees>
              <LongitudeDegrees>-1.5937350690364837646484375</LongitudeDegrees>
            </Position>
            <AltitudeMeters>40</AltitudeMeters>
            <DistanceMeters>NAN</DistanceMeters>
          </Trackpoint>
          <Trackpoint>
            <Time>2022-07-08T09:34:02.000Z</Time>
            <Position>
              <LatitudeDegrees>43.43685074709355831146240234375</LatitudeDegrees>
              <LongitudeDegrees>-1.59379298798739910125732421875</LongitudeDegrees>
            </Position>
            <AltitudeMeters>39.59999847412109375</AltitudeMeters>
            <DistanceMeters>NAN</DistanceMeters>
          </Trackpoint>
          <Trackpoint>
            <Time>2022-07-08T09:34:04.000Z</Time>
            <Position>
              <LatitudeDegrees>43.43676256947219371795654296875</LatitudeDegrees>
              <LongitudeDegrees>-1.59391142427921295166015625</LongitudeDegrees>
            </Position>
            <AltitudeMeters>38.59999847412109375</AltitudeMeters>
            <DistanceMeters>NAN</DistanceMeters>
          </Trackpoint>
          <Trackpoint>
            <Time>2022-07-08T09:34:06.000Z</Time>
            <Position>
              <LatitudeDegrees>43.4366677701473236083984375</LatitudeDegrees>
              <LongitudeDegrees>-1.59403203986585140228271484375</LongitudeDegrees>
            </Position>
            <AltitudeMeters>37.799999237060546875</AltitudeMeters>
            <DistanceMeters>NAN</DistanceMeters>
          </Trackpoint>
          <Trackpoint>
            <Time>2022-07-08T09:34:07.000Z</Time>
            <Position>
              <LatitudeDegrees>43.436619155108928680419921875</LatitudeDegrees>
              <LongitudeDegrees>-1.5940943174064159393310546875</LongitudeDegrees>
            </Position>
            <AltitudeMeters>37.59999847412109375</AltitudeMeters>
            <DistanceMeters>NAN</DistanceMeters>
          </Trackpoint>
          <Trackpoint>
            <Time>2022-07-08T09:34:11.000Z</Time>
            <Position>
              <LatitudeDegrees>43.4364396147429943084716796875</LatitudeDegrees>
              <LongitudeDegrees>-1.594332866370677947998046875</LongitudeDegrees>
            </Position>
            <AltitudeMeters>36.40000152587890625</AltitudeMeters>
            <DistanceMeters>NAN</DistanceMeters>
          </Trackpoint>
          <Trackpoint>
            <Time>2022-07-08T09:34:15.000Z</Time>
            <Position>
              <LatitudeDegrees>43.43626351095736026763916015625</LatitudeDegrees>
              <LongitudeDegrees>-1.5945583395659923553466796875</LongitudeDegrees>
            </Position>
            <AltitudeMeters>35</AltitudeMeters>
            <DistanceMeters>NAN</DistanceMeters>
          </Trackpoint>
          <Trackpoint>
            <Time>2022-07-08T09:34:18.000Z</Time>
            <Position>
              <LatitudeDegrees>43.4361388720571994781494140625</LatitudeDegrees>
              <LongitudeDegrees>-1.59472882747650146484375</LongitudeDegrees>
            </Position>
            <AltitudeMeters>33.799999237060546875</AltitudeMeters>
            <DistanceMeters>NAN</DistanceMeters>
          </Trackpoint>
          <Trackpoint>
            <Time>2022-07-08T09:34:20.000Z</Time>
            <Position>
              <LatitudeDegrees>43.436062596738338470458984375</LatitudeDegrees>
              <LongitudeDegrees>-1.59483418799936771392822265625</LongitudeDegrees>
            </Position>
            <AltitudeMeters>33.200000762939453125</AltitudeMeters>
            <DistanceMeters>NAN</DistanceMeters>
          </Trackpoint>
          <Trackpoint>
            <Time>2022-07-08T09:34:21.000Z</Time>
            <Position>
              <LatitudeDegrees>43.43602647073566913604736328125</LatitudeDegrees>
              <LongitudeDegrees>-1.59488162957131862640380859375</LongitudeDegrees>
            </Position>
            <AltitudeMeters>32.799999237060546875</AltitudeMeters>
            <DistanceMeters>NAN</DistanceMeters>
          </Trackpoint>
          <Trackpoint>
            <Time>2022-07-08T09:34:23.000Z</Time>
            <Position>
              <LatitudeDegrees>43.435957990586757659912109375</LatitudeDegrees>
              <LongitudeDegrees>-1.59497584216296672821044921875</LongitudeDegrees>
            </Position>
            <AltitudeMeters>32</AltitudeMeters>
            <DistanceMeters>NAN</DistanceMeters>
          </Trackpoint>
          <Trackpoint>
            <Time>2022-07-08T09:34:24.000Z</Time>
            <Position>
              <LatitudeDegrees>43.43592706136405467987060546875</LatitudeDegrees>
              <LongitudeDegrees>-1.59501858986914157867431640625</LongitudeDegrees>
            </Position>
            <AltitudeMeters>31.6000003814697265625</AltitudeMeters>
            <DistanceMeters>NAN</DistanceMeters>
          </Trackpoint>
          <Trackpoint>
            <Time>2022-07-08T09:34:25.000Z</Time>
            <Position>
              <LatitudeDegrees>43.4358934499323368072509765625</LatitudeDegrees>
              <LongitudeDegrees>-1.5950515307486057281494140625</LongitudeDegrees>
            </Position>
            <AltitudeMeters>31.6000003814697265625</AltitudeMeters>
            <DistanceMeters>NAN</DistanceMeters>
          </Trackpoint>
          <Trackpoint>
            <Time>2022-07-08T09:34:26.000Z</Time>
            <Position>
              <LatitudeDegrees>43.43585799448192119598388671875</LatitudeDegrees>
              <LongitudeDegrees>-1.59508530981838703155517578125</LongitudeDegrees>
            </Position>
            <AltitudeMeters>31.3999996185302734375</AltitudeMeters>
            <DistanceMeters>NAN</DistanceMeters>
          </Trackpoint>
          <Trackpoint>
            <Time>2022-07-08T09:34:29.000Z</Time>
            <Position>
              <LatitudeDegrees>43.43576009385287761688232421875</LatitudeDegrees>
              <LongitudeDegrees>-1.59521288238465785980224609375</LongitudeDegrees>
            </Position>
            <AltitudeMeters>31</AltitudeMeters>
            <DistanceMeters>NAN</DistanceMeters>
          </Trackpoint>
          <Trackpoint>
            <Time>2022-07-08T09:34:30.000Z</Time>
            <Position>
              <LatitudeDegrees>43.4357264824211597442626953125</LatitudeDegrees>
              <LongitudeDegrees>-1.59525428898632526397705078125</LongitudeDegrees>
            </Position>
            <AltitudeMeters>30.799999237060546875</AltitudeMeters>
            <DistanceMeters>NAN</DistanceMeters>
          </Trackpoint>
          <Trackpoint>
            <Time>2022-07-08T09:34:31.000Z</Time>
            <Position>
              <LatitudeDegrees>43.4356932900846004486083984375</LatitudeDegrees>
              <LongitudeDegrees>-1.595297120511531829833984375</LongitudeDegrees>
            </Position>
            <AltitudeMeters>30.799999237060546875</AltitudeMeters>
            <DistanceMeters>NAN</DistanceMeters>
          </Trackpoint>
          <Trackpoint>
            <Time>2022-07-08T09:34:32.000Z</Time>
            <Position>
              <LatitudeDegrees>43.43566034920513629913330078125</LatitudeDegrees>
              <LongitudeDegrees>-1.59534196369349956512451171875</LongitudeDegrees>
            </Position>
            <AltitudeMeters>30.6000003814697265625</AltitudeMeters>
            <DistanceMeters>NAN</DistanceMeters>
          </Trackpoint>
          <Trackpoint>
            <Time>2022-07-08T09:34:38.000Z</Time>
            <Position>
              <LatitudeDegrees>43.43546052463352680206298828125</LatitudeDegrees>
              <LongitudeDegrees>-1.595625691115856170654296875</LongitudeDegrees>
            </Position>
            <AltitudeMeters>30.200000762939453125</AltitudeMeters>
            <DistanceMeters>NAN</DistanceMeters>
          </Trackpoint>
          <Trackpoint>
            <Time>2022-07-08T09:34:39.000Z</Time>
            <Position>
              <LatitudeDegrees>43.43542783521115779876708984375</LatitudeDegrees>
              <LongitudeDegrees>-1.5956689417362213134765625</LongitudeDegrees>
            </Position>
            <AltitudeMeters>30</AltitudeMeters>
            <DistanceMeters>NAN</DistanceMeters>
          </Trackpoint>
          <Trackpoint>
            <Time>2022-07-08T09:34:45.000Z</Time>
            <Position>
              <LatitudeDegrees>43.43524024821817874908447265625</LatitudeDegrees>
              <LongitudeDegrees>-1.59591729752719402313232421875</LongitudeDegrees>
            </Position>
            <AltitudeMeters>29.3999996185302734375</AltitudeMeters>
            <DistanceMeters>NAN</DistanceMeters>
          </Trackpoint>
          <Trackpoint>
            <Time>2022-07-08T09:34:49.000Z</Time>
            <Position>
              <LatitudeDegrees>43.43511166982352733612060546875</LatitudeDegrees>
              <LongitudeDegrees>-1.5960694290697574615478515625</LongitudeDegrees>
            </Position>
            <AltitudeMeters>29</AltitudeMeters>
            <DistanceMeters>NAN</DistanceMeters>
          </Trackpoint>
          <Trackpoint>
            <Time>2022-07-08T09:34:54.000Z</Time>
            <Position>
              <LatitudeDegrees>43.43494872562587261199951171875</LatitudeDegrees>
              <LongitudeDegrees>-1.5962310321629047393798828125</LongitudeDegrees>
            </Position>
            <AltitudeMeters>28.6000003814697265625</AltitudeMeters>
            <DistanceMeters>NAN</DistanceMeters>
          </Trackpoint>
          <Trackpoint>
            <Time>2022-07-08T09:34:55.000Z</Time>
            <Position>
              <LatitudeDegrees>43.434909917414188385009765625</LatitudeDegrees>
              <LongitudeDegrees>-1.596260704100131988525390625</LongitudeDegrees>
            </Position>
            <AltitudeMeters>28.3999996185302734375</AltitudeMeters>
            <DistanceMeters>NAN</DistanceMeters>
          </Trackpoint>
          <Trackpoint>
            <Time>2022-07-08T09:34:56.000Z</Time>
            <Position>
              <LatitudeDegrees>43.434869349002838134765625</LatitudeDegrees>
              <LongitudeDegrees>-1.5962920524179935455322265625</LongitudeDegrees>
            </Position>
            <AltitudeMeters>28.200000762939453125</AltitudeMeters>
            <DistanceMeters>NAN</DistanceMeters>
          </Trackpoint>
          <Trackpoint>
            <Time>2022-07-08T09:35:00.000Z</Time>
            <Position>
              <LatitudeDegrees>43.4346817620098590850830078125</LatitudeDegrees>
              <LongitudeDegrees>-1.59641258418560028076171875</LongitudeDegrees>
            </Position>
            <AltitudeMeters>27.3999996185302734375</AltitudeMeters>
            <DistanceMeters>NAN</DistanceMeters>
          </Trackpoint>
          <Trackpoint>
            <Time>2022-07-08T09:35:01.000Z</Time>
            <Position>
              <LatitudeDegrees>43.43463205732405185699462890625</LatitudeDegrees>
              <LongitudeDegrees>-1.59643077291548252105712890625</LongitudeDegrees>
            </Position>
            <AltitudeMeters>27.200000762939453125</AltitudeMeters>
            <DistanceMeters>NAN</DistanceMeters>
          </Trackpoint>
          <Trackpoint>
            <Time>2022-07-08T09:35:02.000Z</Time>
            <Position>
              <LatitudeDegrees>43.43458176590502262115478515625</LatitudeDegrees>
              <LongitudeDegrees>-1.59645139239728450775146484375</LongitudeDegrees>
            </Position>
            <AltitudeMeters>27</AltitudeMeters>
            <DistanceMeters>NAN</DistanceMeters>
          </Trackpoint>
          <Trackpoint>
            <Time>2022-07-08T09:35:04.000Z</Time>
            <Position>
              <LatitudeDegrees>43.43447565101087093353271484375</LatitudeDegrees>
              <LongitudeDegrees>-1.59650403074920177459716796875</LongitudeDegrees>
            </Position>
            <AltitudeMeters>26.200000762939453125</AltitudeMeters>
            <DistanceMeters>NAN</DistanceMeters>
          </Trackpoint>
          <Trackpoint>
            <Time>2022-07-08T09:35:07.000Z</Time>
            <Position>
              <LatitudeDegrees>43.4343173168599605560302734375</LatitudeDegrees>
              <LongitudeDegrees>-1.5966018475592136383056640625</LongitudeDegrees>
            </Position>
            <AltitudeMeters>24.6000003814697265625</AltitudeMeters>
            <DistanceMeters>NAN</DistanceMeters>
          </Trackpoint>
          <Trackpoint>
            <Time>2022-07-08T09:35:09.000Z</Time>
            <Position>
              <LatitudeDegrees>43.4342063404619693756103515625</LatitudeDegrees>
              <LongitudeDegrees>-1.59665607847273349761962890625</LongitudeDegrees>
            </Position>
            <AltitudeMeters>23.6000003814697265625</AltitudeMeters>
            <DistanceMeters>NAN</DistanceMeters>
          </Trackpoint>
          <Trackpoint>
            <Time>2022-07-08T09:35:10.000Z</Time>
            <Position>
              <LatitudeDegrees>43.4341513551771640777587890625</LatitudeDegrees>
              <LongitudeDegrees>-1.5966732613742351531982421875</LongitudeDegrees>
            </Position>
            <AltitudeMeters>23.3999996185302734375</AltitudeMeters>
            <DistanceMeters>NAN</DistanceMeters>
          </Trackpoint>
          <Trackpoint>
            <Time>2022-07-08T09:35:12.000Z</Time>
            <Position>
              <LatitudeDegrees>43.434031493961811065673828125</LatitudeDegrees>
              <LongitudeDegrees>-1.59672447480261325836181640625</LongitudeDegrees>
            </Position>
            <AltitudeMeters>22.200000762939453125</AltitudeMeters>
            <DistanceMeters>NAN</DistanceMeters>
          </Trackpoint>
          <Trackpoint>
            <Time>2022-07-08T09:35:16.000Z</Time>
            <Position>
              <LatitudeDegrees>43.4337785281240940093994140625</LatitudeDegrees>
              <LongitudeDegrees>-1.59681483171880245208740234375</LongitudeDegrees>
            </Position>
            <AltitudeMeters>21.200000762939453125</AltitudeMeters>
            <DistanceMeters>NAN</DistanceMeters>
          </Trackpoint>
          <Trackpoint>
            <Time>2022-07-08T09:35:17.000Z</Time>
            <Position>
              <LatitudeDegrees>43.4337141551077365875244140625</LatitudeDegrees>
              <LongitudeDegrees>-1.59683796577155590057373046875</LongitudeDegrees>
            </Position>
            <AltitudeMeters>20.6000003814697265625</AltitudeMeters>
            <DistanceMeters>NAN</DistanceMeters>
          </Trackpoint>
          <Trackpoint>
            <Time>2022-07-08T09:35:21.000Z</Time>
            <Position>
              <LatitudeDegrees>43.43347367830574512481689453125</LatitudeDegrees>
              <LongitudeDegrees>-1.5969310887157917022705078125</LongitudeDegrees>
            </Position>
            <AltitudeMeters>19.3999996185302734375</AltitudeMeters>
            <DistanceMeters>NAN</DistanceMeters>
          </Trackpoint>
          <Trackpoint>
            <Time>2022-07-08T09:35:22.000Z</Time>
            <Position>
              <LatitudeDegrees>43.4334248118102550506591796875</LatitudeDegrees>
              <LongitudeDegrees>-1.59694575704634189605712890625</LongitudeDegrees>
            </Position>
            <AltitudeMeters>18.6000003814697265625</AltitudeMeters>
            <DistanceMeters>NAN</DistanceMeters>
          </Trackpoint>
          <Trackpoint>
            <Time>2022-07-08T09:35:23.000Z</Time>
            <Position>
              <LatitudeDegrees>43.43337871134281158447265625</LatitudeDegrees>
              <LongitudeDegrees>-1.59695749171078205108642578125</LongitudeDegrees>
            </Position>
            <AltitudeMeters>18.3999996185302734375</AltitudeMeters>
            <DistanceMeters>NAN</DistanceMeters>
          </Trackpoint>
          <Trackpoint>
            <Time>2022-07-08T09:35:27.000Z</Time>
            <Position>
              <LatitudeDegrees>43.43324594199657440185546875</LatitudeDegrees>
              <LongitudeDegrees>-1.596990935504436492919921875</LongitudeDegrees>
            </Position>
            <AltitudeMeters>17.3999996185302734375</AltitudeMeters>
            <DistanceMeters>NAN</DistanceMeters>
          </Trackpoint>
          <Trackpoint>
            <Time>2022-07-08T09:35:28.000Z</Time>
            <Position>
              <LatitudeDegrees>43.4332216344773769378662109375</LatitudeDegrees>
              <LongitudeDegrees>-1.5969984792172908782958984375</LongitudeDegrees>
            </Position>
            <AltitudeMeters>17.200000762939453125</AltitudeMeters>
            <DistanceMeters>NAN</DistanceMeters>
          </Trackpoint>
          <Trackpoint>
            <Time>2022-07-08T09:35:31.000Z</Time>
            <Position>
              <LatitudeDegrees>43.433173857629299163818359375</LatitudeDegrees>
              <LongitudeDegrees>-1.59706436097621917724609375</LongitudeDegrees>
            </Position>
            <AltitudeMeters>17</AltitudeMeters>
            <DistanceMeters>NAN</DistanceMeters>
          </Trackpoint>
          <Trackpoint>
            <Time>2022-07-08T09:35:38.000Z</Time>
            <Position>
              <LatitudeDegrees>43.4330778010189533233642578125</LatitudeDegrees>
              <LongitudeDegrees>-1.5972673706710338592529296875</LongitudeDegrees>
            </Position>
            <AltitudeMeters>17</AltitudeMeters>
            <DistanceMeters>NAN</DistanceMeters>
          </Trackpoint>
          <Trackpoint>
            <Time>2022-07-08T09:35:39.000Z</Time>
            <Position>
              <LatitudeDegrees>43.43305014073848724365234375</LatitudeDegrees>
              <LongitudeDegrees>-1.59727893769741058349609375</LongitudeDegrees>
            </Position>
            <AltitudeMeters>16.799999237060546875</AltitudeMeters>
            <DistanceMeters>NAN</DistanceMeters>
          </Trackpoint>
          <Trackpoint>
            <Time>2022-07-08T09:35:44.000Z</Time>
            <Position>
              <LatitudeDegrees>43.43289432115852832794189453125</LatitudeDegrees>
              <LongitudeDegrees>-1.59726242534816265106201171875</LongitudeDegrees>
            </Position>
            <AltitudeMeters>16.6000003814697265625</AltitudeMeters>
            <DistanceMeters>NAN</DistanceMeters>
          </Trackpoint>
          <Trackpoint>
            <Time>2022-07-08T09:35:49.000Z</Time>
            <Position>
              <LatitudeDegrees>43.43271863646805286407470703125</LatitudeDegrees>
              <LongitudeDegrees>-1.597199477255344390869140625</LongitudeDegrees>
            </Position>
            <AltitudeMeters>16.200000762939453125</AltitudeMeters>
            <DistanceMeters>NAN</DistanceMeters>
          </Trackpoint>
          <Trackpoint>
            <Time>2022-07-08T09:35:50.000Z</Time>
            <Position>
              <LatitudeDegrees>43.432683013379573822021484375</LatitudeDegrees>
              <LongitudeDegrees>-1.597182713449001312255859375</LongitudeDegrees>
            </Position>
            <AltitudeMeters>16.200000762939453125</AltitudeMeters>
            <DistanceMeters>NAN</DistanceMeters>
          </Trackpoint>
          <Trackpoint>
            <Time>2022-07-08T09:35:56.000Z</Time>
            <Position>
              <LatitudeDegrees>43.4324696101248264312744140625</LatitudeDegrees>
              <LongitudeDegrees>-1.59710719250142574310302734375</LongitudeDegrees>
            </Position>
            <AltitudeMeters>16</AltitudeMeters>
            <DistanceMeters>NAN</DistanceMeters>
          </Trackpoint>
          <Trackpoint>
            <Time>2022-07-08T09:36:01.000Z</Time>
            <Position>
              <LatitudeDegrees>43.4322835318744182586669921875</LatitudeDegrees>
              <LongitudeDegrees>-1.59711305983364582061767578125</LongitudeDegrees>
            </Position>
            <AltitudeMeters>16.200000762939453125</AltitudeMeters>
            <DistanceMeters>NAN</DistanceMeters>
          </Trackpoint>
          <Trackpoint>
            <Time>2022-07-08T09:36:06.000Z</Time>
            <Position>
              <LatitudeDegrees>43.43214380554854869842529296875</LatitudeDegrees>
              <LongitudeDegrees>-1.59730483777821063995361328125</LongitudeDegrees>
            </Position>
            <AltitudeMeters>16.3999996185302734375</AltitudeMeters>
            <DistanceMeters>NAN</DistanceMeters>
          </Trackpoint>
          <Trackpoint>
            <Time>2022-07-08T09:36:12.000Z</Time>
            <Position>
              <LatitudeDegrees>43.4320458211004734039306640625</LatitudeDegrees>
              <LongitudeDegrees>-1.59755663014948368072509765625</LongitudeDegrees>
            </Position>
            <AltitudeMeters>16.3999996185302734375</AltitudeMeters>
            <DistanceMeters>NAN</DistanceMeters>
          </Trackpoint>
          <Trackpoint>
            <Time>2022-07-08T09:36:17.000Z</Time>
            <Position>
              <LatitudeDegrees>43.4320226870477199554443359375</LatitudeDegrees>
              <LongitudeDegrees>-1.597792245447635650634765625</LongitudeDegrees>
            </Position>
            <AltitudeMeters>16</AltitudeMeters>
            <DistanceMeters>NAN</DistanceMeters>
          </Trackpoint>
          <Trackpoint>
            <Time>2022-07-08T09:36:21.000Z</Time>
            <Position>
              <LatitudeDegrees>43.43200600706040859222412109375</LatitudeDegrees>
              <LongitudeDegrees>-1.59794135950505733489990234375</LongitudeDegrees>
            </Position>
            <AltitudeMeters>15.3999996185302734375</AltitudeMeters>
            <DistanceMeters>NAN</DistanceMeters>
          </Trackpoint>
          <Trackpoint>
            <Time>2022-07-08T09:36:27.000Z</Time>
            <Position>
              <LatitudeDegrees>43.431858234107494354248046875</LatitudeDegrees>
              <LongitudeDegrees>-1.597977988421916961669921875</LongitudeDegrees>
            </Position>
            <AltitudeMeters>15.6000003814697265625</AltitudeMeters>
            <DistanceMeters>NAN</DistanceMeters>
          </Trackpoint>
          <Trackpoint>
            <Time>2022-07-08T09:36:36.000Z</Time>
            <Position>
              <LatitudeDegrees>43.431598730385303497314453125</LatitudeDegrees>
              <LongitudeDegrees>-1.59802886657416820526123046875</LongitudeDegrees>
            </Position>
            <AltitudeMeters>15.80000019073486328125</AltitudeMeters>
            <DistanceMeters>NAN</DistanceMeters>
          </Trackpoint>
          <Trackpoint>
            <Time>2022-07-08T09:36:42.000Z</Time>
            <Position>
              <LatitudeDegrees>43.431467302143573760986328125</LatitudeDegrees>
              <LongitudeDegrees>-1.598039679229259490966796875</LongitudeDegrees>
            </Position>
            <AltitudeMeters>15.80000019073486328125</AltitudeMeters>
            <DistanceMeters>NAN</DistanceMeters>
          </Trackpoint>
          <Trackpoint>
            <Time>2022-07-08T09:36:51.000Z</Time>
            <Position>
              <LatitudeDegrees>43.4312790445983409881591796875</LatitudeDegrees>
              <LongitudeDegrees>-1.5981186367571353912353515625</LongitudeDegrees>
            </Position>
            <AltitudeMeters>16.3999996185302734375</AltitudeMeters>
            <DistanceMeters>NAN</DistanceMeters>
          </Trackpoint>
          <Trackpoint>
            <Time>2022-07-08T09:36:53.000Z</Time>
            <Position>
              <LatitudeDegrees>43.431233949959278106689453125</LatitudeDegrees>
              <LongitudeDegrees>-1.59816398285329341888427734375</LongitudeDegrees>
            </Position>
            <AltitudeMeters>16.3999996185302734375</AltitudeMeters>
            <DistanceMeters>NAN</DistanceMeters>
          </Trackpoint>
          <Trackpoint>
            <Time>2022-07-08T09:36:56.000Z</Time>
            <Position>
              <LatitudeDegrees>43.43118759803473949432373046875</LatitudeDegrees>
              <LongitudeDegrees>-1.5982695110142230987548828125</LongitudeDegrees>
            </Position>
            <AltitudeMeters>16.3999996185302734375</AltitudeMeters>
            <DistanceMeters>NAN</DistanceMeters>
          </Trackpoint>
          <Trackpoint>
            <Time>2022-07-08T09:37:02.000Z</Time>
            <Position>
              <LatitudeDegrees>43.43109489418566226959228515625</LatitudeDegrees>
              <LongitudeDegrees>-1.59850202500820159912109375</LongitudeDegrees>
            </Position>
            <AltitudeMeters>16</AltitudeMeters>
            <DistanceMeters>NAN</DistanceMeters>
          </Trackpoint>
          <Trackpoint>
            <Time>2022-07-08T09:37:04.000Z</Time>
            <Position>
              <LatitudeDegrees>43.431060276925563812255859375</LatitudeDegrees>
              <LongitudeDegrees>-1.5985813178122043609619140625</LongitudeDegrees>
            </Position>
            <AltitudeMeters>15.80000019073486328125</AltitudeMeters>
            <DistanceMeters>NAN</DistanceMeters>
          </Trackpoint>
          <Trackpoint>
            <Time>2022-07-08T09:37:13.000Z</Time>
            <Position>
              <LatitudeDegrees>43.4309457801282405853271484375</LatitudeDegrees>
              <LongitudeDegrees>-1.59897669218480587005615234375</LongitudeDegrees>
            </Position>
            <AltitudeMeters>15.6000003814697265625</AltitudeMeters>
            <DistanceMeters>NAN</DistanceMeters>
          </Trackpoint>
          <Trackpoint>
            <Time>2022-07-08T09:37:16.000Z</Time>
            <Position>
              <LatitudeDegrees>43.43088769353926181793212890625</LatitudeDegrees>
              <LongitudeDegrees>-1.599080376327037811279296875</LongitudeDegrees>
            </Position>
            <AltitudeMeters>15.6000003814697265625</AltitudeMeters>
            <DistanceMeters>NAN</DistanceMeters>
          </Trackpoint>
          <Trackpoint>
            <Time>2022-07-08T09:37:20.000Z</Time>
            <Position>
              <LatitudeDegrees>43.430813513696193695068359375</LatitudeDegrees>
              <LongitudeDegrees>-1.59917651675641536712646484375</LongitudeDegrees>
            </Position>
            <AltitudeMeters>15.80000019073486328125</AltitudeMeters>
            <DistanceMeters>NAN</DistanceMeters>
          </Trackpoint>
          <Trackpoint>
            <Time>2022-07-08T09:37:26.000Z</Time>
            <Position>
              <LatitudeDegrees>43.4307107515633106231689453125</LatitudeDegrees>
              <LongitudeDegrees>-1.59929168410599231719970703125</LongitudeDegrees>
            </Position>
            <AltitudeMeters>15.80000019073486328125</AltitudeMeters>
            <DistanceMeters>NAN</DistanceMeters>
          </Trackpoint>
          <Trackpoint>
            <Time>2022-07-08T09:37:31.000Z</Time>
            <Position>
              <LatitudeDegrees>43.43060120008885860443115234375</LatitudeDegrees>
              <LongitudeDegrees>-1.59933619201183319091796875</LongitudeDegrees>
            </Position>
            <AltitudeMeters>16.200000762939453125</AltitudeMeters>
            <DistanceMeters>NAN</DistanceMeters>
          </Trackpoint>
          <Trackpoint>
            <Time>2022-07-08T09:37:32.000Z</Time>
            <Position>
              <LatitudeDegrees>43.43058762140572071075439453125</LatitudeDegrees>
              <LongitudeDegrees>-1.59934021532535552978515625</LongitudeDegrees>
            </Position>
            <AltitudeMeters>16.3999996185302734375</AltitudeMeters>
            <DistanceMeters>NAN</DistanceMeters>
          </Trackpoint>
          <Trackpoint>
            <Time>2022-07-08T09:37:38.000Z</Time>
            <Position>
              <LatitudeDegrees>43.4304852783679962158203125</LatitudeDegrees>
              <LongitudeDegrees>-1.5993913449347019195556640625</LongitudeDegrees>
            </Position>
            <AltitudeMeters>16.3999996185302734375</AltitudeMeters>
            <DistanceMeters>NAN</DistanceMeters>
          </Trackpoint>
          <Trackpoint>
            <Time>2022-07-08T09:37:39.000Z</Time>
            <Position>
              <LatitudeDegrees>43.4304665029048919677734375</LatitudeDegrees>
              <LongitudeDegrees>-1.59939276985824108123779296875</LongitudeDegrees>
            </Position>
            <AltitudeMeters>16.3999996185302734375</AltitudeMeters>
            <DistanceMeters>NAN</DistanceMeters>
          </Trackpoint>
          <Trackpoint>
            <Time>2022-07-08T09:37:42.000Z</Time>
            <Position>
              <LatitudeDegrees>43.43041126616299152374267578125</LatitudeDegrees>
              <LongitudeDegrees>-1.59938656724989414215087890625</LongitudeDegrees>
            </Position>
            <AltitudeMeters>16.799999237060546875</AltitudeMeters>
            <DistanceMeters>NAN</DistanceMeters>
          </Trackpoint>
          <Trackpoint>
            <Time>2022-07-08T09:37:44.000Z</Time>
            <Position>
              <LatitudeDegrees>43.43038092367351055145263671875</LatitudeDegrees>
              <LongitudeDegrees>-1.59937852062284946441650390625</LongitudeDegrees>
            </Position>
            <AltitudeMeters>17</AltitudeMeters>
            <DistanceMeters>NAN</DistanceMeters>
          </Trackpoint>
          <Trackpoint>
            <Time>2022-07-08T09:37:47.000Z</Time>
            <Position>
              <LatitudeDegrees>43.4303342364728450775146484375</LatitudeDegrees>
              <LongitudeDegrees>-1.59938489086925983428955078125</LongitudeDegrees>
            </Position>
            <AltitudeMeters>17.3999996185302734375</AltitudeMeters>
            <DistanceMeters>NAN</DistanceMeters>
          </Trackpoint>
          <Trackpoint>
            <Time>2022-07-08T09:37:48.000Z</Time>
            <Position>
              <LatitudeDegrees>43.4303221665322780609130859375</LatitudeDegrees>
              <LongitudeDegrees>-1.5993933565914630889892578125</LongitudeDegrees>
            </Position>
            <AltitudeMeters>17.3999996185302734375</AltitudeMeters>
            <DistanceMeters>NAN</DistanceMeters>
          </Trackpoint>
          <Trackpoint>
            <Time>2022-07-08T09:37:54.000Z</Time>
            <Position>
              <LatitudeDegrees>43.4302581287920475006103515625</LatitudeDegrees>
              <LongitudeDegrees>-1.59947792999446392059326171875</LongitudeDegrees>
            </Position>
            <AltitudeMeters>18.3999996185302734375</AltitudeMeters>
            <DistanceMeters>NAN</DistanceMeters>
          </Trackpoint>
          <Trackpoint>
            <Time>2022-07-08T09:38:02.000Z</Time>
            <Position>
              <LatitudeDegrees>43.43017280101776123046875</LatitudeDegrees>
              <LongitudeDegrees>-1.5996086038649082183837890625</LongitudeDegrees>
            </Position>
            <AltitudeMeters>18.799999237060546875</AltitudeMeters>
            <DistanceMeters>NAN</DistanceMeters>
          </Trackpoint>
          <Trackpoint>
            <Time>2022-07-08T09:38:07.000Z</Time>
            <Position>
              <LatitudeDegrees>43.43014874495565891265869140625</LatitudeDegrees>
              <LongitudeDegrees>-1.5996381081640720367431640625</LongitudeDegrees>
            </Position>
            <AltitudeMeters>18.799999237060546875</AltitudeMeters>
            <DistanceMeters>NAN</DistanceMeters>
          </Trackpoint>
          <Trackpoint>
            <Time>2022-07-08T09:38:25.000Z</Time>
            <Position>
              <LatitudeDegrees>43.43012141995131969451904296875</LatitudeDegrees>
              <LongitudeDegrees>-1.5996696241199970245361328125</LongitudeDegrees>
            </Position>
            <AltitudeMeters>18.799999237060546875</AltitudeMeters>
            <DistanceMeters>NAN</DistanceMeters>
          </Trackpoint>
          <Trackpoint>
            <Time>2022-07-08T09:38:26.000Z</Time>
            <Position>
              <LatitudeDegrees>43.43010666780173778533935546875</LatitudeDegrees>
              <LongitudeDegrees>-1.59968412481248378753662109375</LongitudeDegrees>
            </Position>
            <AltitudeMeters>19</AltitudeMeters>
            <DistanceMeters>NAN</DistanceMeters>
          </Trackpoint>
          <Trackpoint>
            <Time>2022-07-08T09:38:34.000Z</Time>
            <Position>
              <LatitudeDegrees>43.42998764477670192718505859375</LatitudeDegrees>
              <LongitudeDegrees>-1.59981630742549896240234375</LongitudeDegrees>
            </Position>
            <AltitudeMeters>19.3999996185302734375</AltitudeMeters>
            <DistanceMeters>NAN</DistanceMeters>
          </Trackpoint>
          <Trackpoint>
            <Time>2022-07-08T09:38:35.000Z</Time>
            <Position>
              <LatitudeDegrees>43.42997289262712001800537109375</LatitudeDegrees>
              <LongitudeDegrees>-1.59982837736606597900390625</LongitudeDegrees>
            </Position>
            <AltitudeMeters>19.6000003814697265625</AltitudeMeters>
            <DistanceMeters>NAN</DistanceMeters>
          </Trackpoint>
          <Trackpoint>
            <Time>2022-07-08T09:38:43.000Z</Time>
            <Position>
              <LatitudeDegrees>43.42988253571093082427978515625</LatitudeDegrees>
              <LongitudeDegrees>-1.59995268099009990692138671875</LongitudeDegrees>
            </Position>
            <AltitudeMeters>20.200000762939453125</AltitudeMeters>
            <DistanceMeters>NAN</DistanceMeters>
          </Trackpoint>
          <Trackpoint>
            <Time>2022-07-08T09:38:45.000Z</Time>
            <Position>
              <LatitudeDegrees>43.42985755763947963714599609375</LatitudeDegrees>
              <LongitudeDegrees>-1.59997916780412197113037109375</LongitudeDegrees>
            </Position>
            <AltitudeMeters>20.200000762939453125</AltitudeMeters>
            <DistanceMeters>NAN</DistanceMeters>
          </Trackpoint>
          <Trackpoint>
            <Time>2022-07-08T09:38:47.000Z</Time>
            <Position>
              <LatitudeDegrees>43.42983626760542392730712890625</LatitudeDegrees>
              <LongitudeDegrees>-1.60000515170395374298095703125</LongitudeDegrees>
            </Position>
            <AltitudeMeters>20.3999996185302734375</AltitudeMeters>
            <DistanceMeters>NAN</DistanceMeters>
          </Trackpoint>
          <Trackpoint>
            <Time>2022-07-08T09:38:51.000Z</Time>
            <Position>
              <LatitudeDegrees>43.4297931008040904998779296875</LatitudeDegrees>
              <LongitudeDegrees>-1.600066758692264556884765625</LongitudeDegrees>
            </Position>
            <AltitudeMeters>20.6000003814697265625</AltitudeMeters>
            <DistanceMeters>NAN</DistanceMeters>
          </Trackpoint>
          <Trackpoint>
            <Time>2022-07-08T09:38:52.000Z</Time>
            <Position>
              <LatitudeDegrees>43.4297931008040904998779296875</LatitudeDegrees>
              <LongitudeDegrees>-1.600066758692264556884765625</LongitudeDegrees>
            </Position>
            <AltitudeMeters>20.6000003814697265625</AltitudeMeters>
            <DistanceMeters>NAN</DistanceMeters>
          </Trackpoint>
          <Trackpoint>
            <Time>2022-07-08T09:39:00.000Z</Time>
            <Position>
              <LatitudeDegrees>43.4297119639813899993896484375</LatitudeDegrees>
              <LongitudeDegrees>-1.60020598210394382476806640625</LongitudeDegrees>
            </Position>
            <AltitudeMeters>21.200000762939453125</AltitudeMeters>
            <DistanceMeters>NAN</DistanceMeters>
          </Trackpoint>
          <Trackpoint>
            <Time>2022-07-08T09:39:04.000Z</Time>
            <Position>
              <LatitudeDegrees>43.42970500700175762176513671875</LatitudeDegrees>
              <LongitudeDegrees>-1.600269936025142669677734375</LongitudeDegrees>
            </Position>
            <AltitudeMeters>21.6000003814697265625</AltitudeMeters>
            <DistanceMeters>NAN</DistanceMeters>
          </Trackpoint>
          <Trackpoint>
            <Time>2022-07-08T09:39:05.000Z</Time>
            <Position>
              <LatitudeDegrees>43.4296948648989200592041015625</LatitudeDegrees>
              <LongitudeDegrees>-1.60028175450861454010009765625</LongitudeDegrees>
            </Position>
            <AltitudeMeters>21.6000003814697265625</AltitudeMeters>
            <DistanceMeters>NAN</DistanceMeters>
          </Trackpoint>
          <Trackpoint>
            <Time>2022-07-08T09:39:06.000Z</Time>
            <Position>
              <LatitudeDegrees>43.429682292044162750244140625</LatitudeDegrees>
              <LongitudeDegrees>-1.60029533319175243377685546875</LongitudeDegrees>
            </Position>
            <AltitudeMeters>21.6000003814697265625</AltitudeMeters>
            <DistanceMeters>NAN</DistanceMeters>
          </Trackpoint>
          <Trackpoint>
            <Time>2022-07-08T09:39:12.000Z</Time>
            <Position>
              <LatitudeDegrees>43.42958028428256511688232421875</LatitudeDegrees>
              <LongitudeDegrees>-1.6003498993813991546630859375</LongitudeDegrees>
            </Position>
            <AltitudeMeters>22</AltitudeMeters>
            <DistanceMeters>NAN</DistanceMeters>
          </Trackpoint>
          <Trackpoint>
            <Time>2022-07-08T09:39:13.000Z</Time>
            <Position>
              <LatitudeDegrees>43.42956117354333400726318359375</LatitudeDegrees>
              <LongitudeDegrees>-1.6003643162548542022705078125</LongitudeDegrees>
            </Position>
            <AltitudeMeters>22</AltitudeMeters>
            <DistanceMeters>NAN</DistanceMeters>
          </Trackpoint>
          <Trackpoint>
            <Time>2022-07-08T09:39:20.000Z</Time>
            <Position>
              <LatitudeDegrees>43.429454304277896881103515625</LatitudeDegrees>
              <LongitudeDegrees>-1.60048124380409717559814453125</LongitudeDegrees>
            </Position>
            <AltitudeMeters>22.3999996185302734375</AltitudeMeters>
            <DistanceMeters>NAN</DistanceMeters>
          </Trackpoint>
          <Trackpoint>
            <Time>2022-07-08T09:39:23.000Z</Time>
            <Position>
              <LatitudeDegrees>43.4294095449149608612060546875</LatitudeDegrees>
              <LongitudeDegrees>-1.60053689964115619659423828125</LongitudeDegrees>
            </Position>
            <AltitudeMeters>22.6000003814697265625</AltitudeMeters>
            <DistanceMeters>NAN</DistanceMeters>
          </Trackpoint>
          <Trackpoint>
            <Time>2022-07-08T09:39:27.000Z</Time>
            <Position>
              <LatitudeDegrees>43.42936319299042224884033203125</LatitudeDegrees>
              <LongitudeDegrees>-1.6005782224237918853759765625</LongitudeDegrees>
            </Position>
            <AltitudeMeters>22.799999237060546875</AltitudeMeters>
            <DistanceMeters>NAN</DistanceMeters>
          </Trackpoint>
          <Trackpoint>
            <Time>2022-07-08T09:39:33.000Z</Time>
            <Position>
              <LatitudeDegrees>43.42928071506321430206298828125</LatitudeDegrees>
              <LongitudeDegrees>-1.6006640531122684478759765625</LongitudeDegrees>
            </Position>
            <AltitudeMeters>23</AltitudeMeters>
            <DistanceMeters>NAN</DistanceMeters>
          </Trackpoint>
          <Trackpoint>
            <Time>2022-07-08T09:39:42.000Z</Time>
            <Position>
              <LatitudeDegrees>43.4291668049991130828857421875</LatitudeDegrees>
              <LongitudeDegrees>-1.600807048380374908447265625</LongitudeDegrees>
            </Position>
            <AltitudeMeters>23.6000003814697265625</AltitudeMeters>
            <DistanceMeters>NAN</DistanceMeters>
          </Trackpoint>
          <Trackpoint>
            <Time>2022-07-08T09:39:43.000Z</Time>
            <Position>
              <LatitudeDegrees>43.4291668049991130828857421875</LatitudeDegrees>
              <LongitudeDegrees>-1.600807048380374908447265625</LongitudeDegrees>
            </Position>
            <AltitudeMeters>23.6000003814697265625</AltitudeMeters>
            <DistanceMeters>NAN</DistanceMeters>
          </Trackpoint>
          <Trackpoint>
            <Time>2022-07-08T09:39:51.000Z</Time>
            <Position>
              <LatitudeDegrees>43.42903395183384418487548828125</LatitudeDegrees>
              <LongitudeDegrees>-1.60093990154564380645751953125</LongitudeDegrees>
            </Position>
            <AltitudeMeters>24.200000762939453125</AltitudeMeters>
            <DistanceMeters>NAN</DistanceMeters>
          </Trackpoint>
          <Trackpoint>
            <Time>2022-07-08T09:39:58.000Z</Time>
            <Position>
              <LatitudeDegrees>43.428937308490276336669921875</LatitudeDegrees>
              <LongitudeDegrees>-1.6010673902928829193115234375</LongitudeDegrees>
            </Position>
            <AltitudeMeters>24.3999996185302734375</AltitudeMeters>
            <DistanceMeters>NAN</DistanceMeters>
          </Trackpoint>
          <Trackpoint>
            <Time>2022-07-08T09:40:00.000Z</Time>
            <Position>
              <LatitudeDegrees>43.4289099834859371185302734375</LatitudeDegrees>
              <LongitudeDegrees>-1.60111022181808948516845703125</LongitudeDegrees>
            </Position>
            <AltitudeMeters>24.6000003814697265625</AltitudeMeters>
            <DistanceMeters>NAN</DistanceMeters>
          </Trackpoint>
          <Trackpoint>
            <Time>2022-07-08T09:40:11.000Z</Time>
            <Position>
              <LatitudeDegrees>43.42876539565622806549072265625</LatitudeDegrees>
              <LongitudeDegrees>-1.60128959454596042633056640625</LongitudeDegrees>
            </Position>
            <AltitudeMeters>25.6000003814697265625</AltitudeMeters>
            <DistanceMeters>NAN</DistanceMeters>
          </Trackpoint>
          <Trackpoint>
            <Time>2022-07-08T09:40:15.000Z</Time>
            <Position>
              <LatitudeDegrees>43.428716026246547698974609375</LatitudeDegrees>
              <LongitudeDegrees>-1.60135396756231784820556640625</LongitudeDegrees>
            </Position>
            <AltitudeMeters>25.799999237060546875</AltitudeMeters>
            <DistanceMeters>NAN</DistanceMeters>
          </Trackpoint>
          <Trackpoint>
            <Time>2022-07-08T09:40:18.000Z</Time>
            <Position>
              <LatitudeDegrees>43.42867570929229259490966796875</LatitudeDegrees>
              <LongitudeDegrees>-1.60140107385814189910888671875</LongitudeDegrees>
            </Position>
            <AltitudeMeters>26</AltitudeMeters>
            <DistanceMeters>NAN</DistanceMeters>
          </Trackpoint>
          <Trackpoint>
            <Time>2022-07-08T09:40:23.000Z</Time>
            <Position>
              <LatitudeDegrees>43.4286172874271869659423828125</LatitudeDegrees>
              <LongitudeDegrees>-1.60148288123309612274169921875</LongitudeDegrees>
            </Position>
            <AltitudeMeters>26.200000762939453125</AltitudeMeters>
            <DistanceMeters>NAN</DistanceMeters>
          </Trackpoint>
          <Trackpoint>
            <Time>2022-07-08T09:40:33.000Z</Time>
            <Position>
              <LatitudeDegrees>43.42849616892635822296142578125</LatitudeDegrees>
              <LongitudeDegrees>-1.601645238697528839111328125</LongitudeDegrees>
            </Position>
            <AltitudeMeters>26.799999237060546875</AltitudeMeters>
            <DistanceMeters>NAN</DistanceMeters>
          </Trackpoint>
          <Trackpoint>
            <Time>2022-07-08T09:40:34.000Z</Time>
            <Position>
              <LatitudeDegrees>43.4284870326519012451171875</LatitudeDegrees>
              <LongitudeDegrees>-1.60166141577064990997314453125</LongitudeDegrees>
            </Position>
            <AltitudeMeters>26.799999237060546875</AltitudeMeters>
            <DistanceMeters>NAN</DistanceMeters>
          </Trackpoint>
          <Trackpoint>
            <Time>2022-07-08T09:40:43.000Z</Time>
            <Position>
              <LatitudeDegrees>43.42836071737110614776611328125</LatitudeDegrees>
              <LongitudeDegrees>-1.60181346349418163299560546875</LongitudeDegrees>
            </Position>
            <AltitudeMeters>27.6000003814697265625</AltitudeMeters>
            <DistanceMeters>NAN</DistanceMeters>
          </Trackpoint>
          <Trackpoint>
            <Time>2022-07-08T09:40:49.000Z</Time>
            <Position>
              <LatitudeDegrees>43.4282746352255344390869140625</LatitudeDegrees>
              <LongitudeDegrees>-1.60191086120903491973876953125</LongitudeDegrees>
            </Position>
            <AltitudeMeters>27.799999237060546875</AltitudeMeters>
            <DistanceMeters>NAN</DistanceMeters>
          </Trackpoint>
          <Trackpoint>
            <Time>2022-07-08T09:40:52.000Z</Time>
            <Position>
              <LatitudeDegrees>43.42823884449899196624755859375</LatitudeDegrees>
              <LongitudeDegrees>-1.60196668468415737152099609375</LongitudeDegrees>
            </Position>
            <AltitudeMeters>28</AltitudeMeters>
            <DistanceMeters>NAN</DistanceMeters>
          </Trackpoint>
          <Trackpoint>
            <Time>2022-07-08T09:41:00.000Z</Time>
            <Position>
              <LatitudeDegrees>43.4281234256923198699951171875</LatitudeDegrees>
              <LongitudeDegrees>-1.60210548900067806243896484375</LongitudeDegrees>
            </Position>
            <AltitudeMeters>28.3999996185302734375</AltitudeMeters>
            <DistanceMeters>NAN</DistanceMeters>
          </Trackpoint>
          <Trackpoint>
            <Time>2022-07-08T09:41:07.000Z</Time>
            <Position>
              <LatitudeDegrees>43.42802175320684909820556640625</LatitudeDegrees>
              <LongitudeDegrees>-1.60223054699599742889404296875</LongitudeDegrees>
            </Position>
            <AltitudeMeters>28.6000003814697265625</AltitudeMeters>
            <DistanceMeters>NAN</DistanceMeters>
          </Trackpoint>
          <Trackpoint>
            <Time>2022-07-08T09:41:11.000Z</Time>
            <Position>
              <LatitudeDegrees>43.427957631647586822509765625</LatitudeDegrees>
              <LongitudeDegrees>-1.60230807960033416748046875</LongitudeDegrees>
            </Position>
            <AltitudeMeters>28.799999237060546875</AltitudeMeters>
            <DistanceMeters>NAN</DistanceMeters>
          </Trackpoint>
          <Trackpoint>
            <Time>2022-07-08T09:41:15.000Z</Time>
            <Position>
              <LatitudeDegrees>43.42790708877146244049072265625</LatitudeDegrees>
              <LongitudeDegrees>-1.60238795913755893707275390625</LongitudeDegrees>
            </Position>
            <AltitudeMeters>29</AltitudeMeters>
            <DistanceMeters>NAN</DistanceMeters>
          </Trackpoint>
          <Trackpoint>
            <Time>2022-07-08T09:41:17.000Z</Time>
            <Position>
              <LatitudeDegrees>43.427876494824886322021484375</LatitudeDegrees>
              <LongitudeDegrees>-1.602427773177623748779296875</LongitudeDegrees>
            </Position>
            <AltitudeMeters>29</AltitudeMeters>
            <DistanceMeters>NAN</DistanceMeters>
          </Trackpoint>
          <Trackpoint>
            <Time>2022-07-08T09:41:23.000Z</Time>
            <Position>
              <LatitudeDegrees>43.42779326252639293670654296875</LatitudeDegrees>
              <LongitudeDegrees>-1.60254335962235927581787109375</LongitudeDegrees>
            </Position>
            <AltitudeMeters>29.3999996185302734375</AltitudeMeters>
            <DistanceMeters>NAN</DistanceMeters>
          </Trackpoint>
          <Trackpoint>
            <Time>2022-07-08T09:41:26.000Z</Time>
            <Position>
              <LatitudeDegrees>43.4277539514005184173583984375</LatitudeDegrees>
              <LongitudeDegrees>-1.60259599797427654266357421875</LongitudeDegrees>
            </Position>
            <AltitudeMeters>29.799999237060546875</AltitudeMeters>
            <DistanceMeters>NAN</DistanceMeters>
          </Trackpoint>
          <Trackpoint>
            <Time>2022-07-08T09:41:28.000Z</Time>
            <Position>
              <LatitudeDegrees>43.42773157171905040740966796875</LatitudeDegrees>
              <LongitudeDegrees>-1.60263128578662872314453125</LongitudeDegrees>
            </Position>
            <AltitudeMeters>29.799999237060546875</AltitudeMeters>
            <DistanceMeters>NAN</DistanceMeters>
          </Trackpoint>
          <Trackpoint>
            <Time>2022-07-08T09:41:30.000Z</Time>
            <Position>
              <LatitudeDegrees>43.42770491726696491241455078125</LatitudeDegrees>
              <LongitudeDegrees>-1.60267311148345470428466796875</LongitudeDegrees>
            </Position>
            <AltitudeMeters>29.799999237060546875</AltitudeMeters>
            <DistanceMeters>NAN</DistanceMeters>
          </Trackpoint>
          <Trackpoint>
            <Time>2022-07-08T09:41:39.000Z</Time>
            <Position>
              <LatitudeDegrees>43.42764146625995635986328125</LatitudeDegrees>
              <LongitudeDegrees>-1.60286061465740203857421875</LongitudeDegrees>
            </Position>
            <AltitudeMeters>30.6000003814697265625</AltitudeMeters>
            <DistanceMeters>NAN</DistanceMeters>
          </Trackpoint>
          <Trackpoint>
            <Time>2022-07-08T09:41:42.000Z</Time>
            <Position>
              <LatitudeDegrees>43.42763610184192657470703125</LatitudeDegrees>
              <LongitudeDegrees>-1.60292322747409343719482421875</LongitudeDegrees>
            </Position>
            <AltitudeMeters>31</AltitudeMeters>
            <DistanceMeters>NAN</DistanceMeters>
          </Trackpoint>
          <Trackpoint>
            <Time>2022-07-08T09:41:46.000Z</Time>
            <Position>
              <LatitudeDegrees>43.42762981541454792022705078125</LatitudeDegrees>
              <LongitudeDegrees>-1.60300168208777904510498046875</LongitudeDegrees>
            </Position>
            <AltitudeMeters>31.200000762939453125</AltitudeMeters>
            <DistanceMeters>NAN</DistanceMeters>
          </Trackpoint>
          <Trackpoint>
            <Time>2022-07-08T09:41:49.000Z</Time>
            <Position>
              <LatitudeDegrees>43.42762537300586700439453125</LatitudeDegrees>
              <LongitudeDegrees>-1.6030679829418659210205078125</LongitudeDegrees>
            </Position>
            <AltitudeMeters>31.6000003814697265625</AltitudeMeters>
            <DistanceMeters>NAN</DistanceMeters>
          </Trackpoint>
          <Trackpoint>
            <Time>2022-07-08T09:41:53.000Z</Time>
            <Position>
              <LatitudeDegrees>43.42760517261922359466552734375</LatitudeDegrees>
              <LongitudeDegrees>-1.6031450964510440826416015625</LongitudeDegrees>
            </Position>
            <AltitudeMeters>32</AltitudeMeters>
            <DistanceMeters>NAN</DistanceMeters>
          </Trackpoint>
          <Trackpoint>
            <Time>2022-07-08T09:41:54.000Z</Time>
            <Position>
              <LatitudeDegrees>43.4276003949344158172607421875</LatitudeDegrees>
              <LongitudeDegrees>-1.6031683981418609619140625</LongitudeDegrees>
            </Position>
            <AltitudeMeters>32.200000762939453125</AltitudeMeters>
            <DistanceMeters>NAN</DistanceMeters>
          </Trackpoint>
          <Trackpoint>
            <Time>2022-07-08T09:41:57.000Z</Time>
            <Position>
              <LatitudeDegrees>43.4275980480015277862548828125</LatitudeDegrees>
              <LongitudeDegrees>-1.60324559547007083892822265625</LongitudeDegrees>
            </Position>
            <AltitudeMeters>32.40000152587890625</AltitudeMeters>
            <DistanceMeters>NAN</DistanceMeters>
          </Trackpoint>
          <Trackpoint>
            <Time>2022-07-08T09:42:03.000Z</Time>
            <Position>
              <LatitudeDegrees>43.427580110728740692138671875</LatitudeDegrees>
              <LongitudeDegrees>-1.60334617830812931060791015625</LongitudeDegrees>
            </Position>
            <AltitudeMeters>32.799999237060546875</AltitudeMeters>
            <DistanceMeters>NAN</DistanceMeters>
          </Trackpoint>
          <Trackpoint>
            <Time>2022-07-08T09:42:04.000Z</Time>
            <Position>
              <LatitudeDegrees>43.4275729022920131683349609375</LatitudeDegrees>
              <LongitudeDegrees>-1.6033576615154743194580078125</LongitudeDegrees>
            </Position>
            <AltitudeMeters>32.799999237060546875</AltitudeMeters>
            <DistanceMeters>NAN</DistanceMeters>
          </Trackpoint>
          <Trackpoint>
            <Time>2022-07-08T09:42:07.000Z</Time>
            <Position>
              <LatitudeDegrees>43.427547924220561981201171875</LatitudeDegrees>
              <LongitudeDegrees>-1.60339529626071453094482421875</LongitudeDegrees>
            </Position>
            <AltitudeMeters>33.200000762939453125</AltitudeMeters>
            <DistanceMeters>NAN</DistanceMeters>
          </Trackpoint>
          <Trackpoint>
            <Time>2022-07-08T09:42:08.000Z</Time>
            <Position>
              <LatitudeDegrees>43.42754331417381763458251953125</LatitudeDegrees>
              <LongitudeDegrees>-1.60340434871613979339599609375</LongitudeDegrees>
            </Position>
            <AltitudeMeters>33.200000762939453125</AltitudeMeters>
            <DistanceMeters>NAN</DistanceMeters>
          </Trackpoint>
          <Trackpoint>
            <Time>2022-07-08T09:42:10.000Z</Time>
            <Position>
              <LatitudeDegrees>43.42753409408032894134521484375</LatitudeDegrees>
              <LongitudeDegrees>-1.60342446528375148773193359375</LongitudeDegrees>
            </Position>
            <AltitudeMeters>33.40000152587890625</AltitudeMeters>
            <DistanceMeters>NAN</DistanceMeters>
          </Trackpoint>
          <Trackpoint>
            <Time>2022-07-08T09:42:13.000Z</Time>
            <Position>
              <LatitudeDegrees>43.42752554453909397125244140625</LatitudeDegrees>
              <LongitudeDegrees>-1.6034719906747341156005859375</LongitudeDegrees>
            </Position>
            <AltitudeMeters>33.59999847412109375</AltitudeMeters>
            <DistanceMeters>NAN</DistanceMeters>
          </Trackpoint>
          <Trackpoint>
            <Time>2022-07-08T09:42:14.000Z</Time>
            <Position>
              <LatitudeDegrees>43.4275189228355884552001953125</LatitudeDegrees>
              <LongitudeDegrees>-1.60348816774785518646240234375</LongitudeDegrees>
            </Position>
            <AltitudeMeters>33.59999847412109375</AltitudeMeters>
            <DistanceMeters>NAN</DistanceMeters>
          </Trackpoint>
          <Trackpoint>
            <Time>2022-07-08T09:42:17.000Z</Time>
            <Position>
              <LatitudeDegrees>43.42749662697315216064453125</LatitudeDegrees>
              <LongitudeDegrees>-1.60353762097656726837158203125</LongitudeDegrees>
            </Position>
            <AltitudeMeters>33.799999237060546875</AltitudeMeters>
            <DistanceMeters>NAN</DistanceMeters>
          </Trackpoint>
          <Trackpoint>
            <Time>2022-07-08T09:42:18.000Z</Time>
            <Position>
              <LatitudeDegrees>43.42748950235545635223388671875</LatitudeDegrees>
              <LongitudeDegrees>-1.60355128347873687744140625</LongitudeDegrees>
            </Position>
            <AltitudeMeters>33.799999237060546875</AltitudeMeters>
            <DistanceMeters>NAN</DistanceMeters>
          </Trackpoint>
          <Trackpoint>
            <Time>2022-07-08T09:42:23.000Z</Time>
            <Position>
              <LatitudeDegrees>43.42742554843425750732421875</LatitudeDegrees>
              <LongitudeDegrees>-1.60360199399292469024658203125</LongitudeDegrees>
            </Position>
            <AltitudeMeters>34.200000762939453125</AltitudeMeters>
            <DistanceMeters>NAN</DistanceMeters>
          </Trackpoint>
          <Trackpoint>
            <Time>2022-07-08T09:42:25.000Z</Time>
            <Position>
              <LatitudeDegrees>43.42740316875278949737548828125</LatitudeDegrees>
              <LongitudeDegrees>-1.6036238707602024078369140625</LongitudeDegrees>
            </Position>
            <AltitudeMeters>34.40000152587890625</AltitudeMeters>
            <DistanceMeters>NAN</DistanceMeters>
          </Trackpoint>
          <Trackpoint>
            <Time>2022-07-08T09:42:26.000Z</Time>
            <Position>
              <LatitudeDegrees>43.42739243991672992706298828125</LatitudeDegrees>
              <LongitudeDegrees>-1.6036285646259784698486328125</LongitudeDegrees>
            </Position>
            <AltitudeMeters>34.40000152587890625</AltitudeMeters>
            <DistanceMeters>NAN</DistanceMeters>
          </Trackpoint>
          <Trackpoint>
            <Time>2022-07-08T09:42:29.000Z</Time>
            <Position>
              <LatitudeDegrees>43.4273640252649784088134765625</LatitudeDegrees>
              <LongitudeDegrees>-1.6036647744476795196533203125</LongitudeDegrees>
            </Position>
            <AltitudeMeters>34.59999847412109375</AltitudeMeters>
            <DistanceMeters>NAN</DistanceMeters>
          </Trackpoint>
          <Trackpoint>
            <Time>2022-07-08T09:42:32.000Z</Time>
            <Position>
              <LatitudeDegrees>43.42735103331506252288818359375</LatitudeDegrees>
              <LongitudeDegrees>-1.60372319631278514862060546875</LongitudeDegrees>
            </Position>
            <AltitudeMeters>34.799999237060546875</AltitudeMeters>
            <DistanceMeters>NAN</DistanceMeters>
          </Trackpoint>
          <Trackpoint>
            <Time>2022-07-08T09:42:33.000Z</Time>
            <Position>
              <LatitudeDegrees>43.42734776437282562255859375</LatitudeDegrees>
              <LongitudeDegrees>-1.60374264232814311981201171875</LongitudeDegrees>
            </Position>
            <AltitudeMeters>34.799999237060546875</AltitudeMeters>
            <DistanceMeters>NAN</DistanceMeters>
          </Trackpoint>
          <Trackpoint>
            <Time>2022-07-08T09:42:37.000Z</Time>
            <Position>
              <LatitudeDegrees>43.42730141244828701019287109375</LatitudeDegrees>
              <LongitudeDegrees>-1.60379762761294841766357421875</LongitudeDegrees>
            </Position>
            <AltitudeMeters>35</AltitudeMeters>
            <DistanceMeters>NAN</DistanceMeters>
          </Trackpoint>
          <Trackpoint>
            <Time>2022-07-08T09:42:42.000Z</Time>
            <Position>
              <LatitudeDegrees>43.427232094109058380126953125</LatitudeDegrees>
              <LongitudeDegrees>-1.60386635921895503997802734375</LongitudeDegrees>
            </Position>
            <AltitudeMeters>35.200000762939453125</AltitudeMeters>
            <DistanceMeters>NAN</DistanceMeters>
          </Trackpoint>
          <Trackpoint>
            <Time>2022-07-08T09:42:43.000Z</Time>
            <Position>
              <LatitudeDegrees>43.4272071160376071929931640625</LatitudeDegrees>
              <LongitudeDegrees>-1.603885553777217864990234375</LongitudeDegrees>
            </Position>
            <AltitudeMeters>35.40000152587890625</AltitudeMeters>
            <DistanceMeters>NAN</DistanceMeters>
          </Trackpoint>
          <Trackpoint>
            <Time>2022-07-08T09:42:45.000Z</Time>
            <Position>
              <LatitudeDegrees>43.427190519869327545166015625</LatitudeDegrees>
              <LongitudeDegrees>-1.60396325401961803436279296875</LongitudeDegrees>
            </Position>
            <AltitudeMeters>35.59999847412109375</AltitudeMeters>
            <DistanceMeters>NAN</DistanceMeters>
          </Trackpoint>
          <Trackpoint>
            <Time>2022-07-08T09:42:48.000Z</Time>
            <Position>
              <LatitudeDegrees>43.42717769555747509002685546875</LatitudeDegrees>
              <LongitudeDegrees>-1.6040268726646900177001953125</LongitudeDegrees>
            </Position>
            <AltitudeMeters>35.799999237060546875</AltitudeMeters>
            <DistanceMeters>NAN</DistanceMeters>
          </Trackpoint>
          <Trackpoint>
            <Time>2022-07-08T09:42:51.000Z</Time>
            <Position>
              <LatitudeDegrees>43.427126146852970123291015625</LatitudeDegrees>
              <LongitudeDegrees>-1.6040258668363094329833984375</LongitudeDegrees>
            </Position>
            <AltitudeMeters>35.799999237060546875</AltitudeMeters>
            <DistanceMeters>NAN</DistanceMeters>
          </Trackpoint>
          <Trackpoint>
            <Time>2022-07-08T09:42:55.000Z</Time>
            <Position>
              <LatitudeDegrees>43.42705213464796543121337890625</LatitudeDegrees>
              <LongitudeDegrees>-1.60398982465267181396484375</LongitudeDegrees>
            </Position>
            <AltitudeMeters>35.59999847412109375</AltitudeMeters>
            <DistanceMeters>NAN</DistanceMeters>
          </Trackpoint>
          <Trackpoint>
            <Time>2022-07-08T09:42:57.000Z</Time>
            <Position>
              <LatitudeDegrees>43.427002765238285064697265625</LatitudeDegrees>
              <LongitudeDegrees>-1.60399745218455791473388671875</LongitudeDegrees>
            </Position>
            <AltitudeMeters>35.40000152587890625</AltitudeMeters>
            <DistanceMeters>NAN</DistanceMeters>
          </Trackpoint>
          <Trackpoint>
            <Time>2022-07-08T09:42:59.000Z</Time>
            <Position>
              <LatitudeDegrees>43.4269620291888713836669921875</LatitudeDegrees>
              <LongitudeDegrees>-1.60398446023464202880859375</LongitudeDegrees>
            </Position>
            <AltitudeMeters>35.40000152587890625</AltitudeMeters>
            <DistanceMeters>NAN</DistanceMeters>
          </Trackpoint>
          <Trackpoint>
            <Time>2022-07-08T09:43:04.000Z</Time>
            <Position>
              <LatitudeDegrees>43.42687678523361682891845703125</LatitudeDegrees>
              <LongitudeDegrees>-1.6039489209651947021484375</LongitudeDegrees>
            </Position>
            <AltitudeMeters>35.59999847412109375</AltitudeMeters>
            <DistanceMeters>NAN</DistanceMeters>
          </Trackpoint>
          <Trackpoint>
            <Time>2022-07-08T09:43:11.000Z</Time>
            <Position>
              <LatitudeDegrees>43.42675767838954925537109375</LatitudeDegrees>
              <LongitudeDegrees>-1.6038837097585201263427734375</LongitudeDegrees>
            </Position>
            <AltitudeMeters>35.799999237060546875</AltitudeMeters>
            <DistanceMeters>NAN</DistanceMeters>
          </Trackpoint>
          <Trackpoint>
            <Time>2022-07-08T09:43:12.000Z</Time>
            <Position>
              <LatitudeDegrees>43.4267397411167621612548828125</LatitudeDegrees>
              <LongitudeDegrees>-1.6038711369037628173828125</LongitudeDegrees>
            </Position>
            <AltitudeMeters>36</AltitudeMeters>
            <DistanceMeters>NAN</DistanceMeters>
          </Trackpoint>
          <Trackpoint>
            <Time>2022-07-08T09:43:17.000Z</Time>
            <Position>
              <LatitudeDegrees>43.4266401641070842742919921875</LatitudeDegrees>
              <LongitudeDegrees>-1.60383970476686954498291015625</LongitudeDegrees>
            </Position>
            <AltitudeMeters>36</AltitudeMeters>
            <DistanceMeters>NAN</DistanceMeters>
          </Trackpoint>
          <Trackpoint>
            <Time>2022-07-08T09:43:18.000Z</Time>
            <Position>
              <LatitudeDegrees>43.4266247414052486419677734375</LatitudeDegrees>
              <LongitudeDegrees>-1.60385839641094207763671875</LongitudeDegrees>
            </Position>
            <AltitudeMeters>36</AltitudeMeters>
            <DistanceMeters>NAN</DistanceMeters>
          </Trackpoint>
          <Trackpoint>
            <Time>2022-07-08T09:43:24.000Z</Time>
            <Position>
              <LatitudeDegrees>43.426545448601245880126953125</LatitudeDegrees>
              <LongitudeDegrees>-1.60407020710408687591552734375</LongitudeDegrees>
            </Position>
            <AltitudeMeters>35.40000152587890625</AltitudeMeters>
            <DistanceMeters>NAN</DistanceMeters>
          </Trackpoint>
          <Trackpoint>
            <Time>2022-07-08T09:43:29.000Z</Time>
            <Position>
              <LatitudeDegrees>43.42651200480759143829345703125</LatitudeDegrees>
              <LongitudeDegrees>-1.6043792478740215301513671875</LongitudeDegrees>
            </Position>
            <AltitudeMeters>34.40000152587890625</AltitudeMeters>
            <DistanceMeters>NAN</DistanceMeters>
          </Trackpoint>
          <Trackpoint>
            <Time>2022-07-08T09:43:30.000Z</Time>
            <Position>
              <LatitudeDegrees>43.4264973364770412445068359375</LatitudeDegrees>
              <LongitudeDegrees>-1.604451499879360198974609375</LongitudeDegrees>
            </Position>
            <AltitudeMeters>34.200000762939453125</AltitudeMeters>
            <DistanceMeters>NAN</DistanceMeters>
          </Trackpoint>
          <Trackpoint>
            <Time>2022-07-08T09:43:31.000Z</Time>
            <Position>
              <LatitudeDegrees>43.426482416689395904541015625</LatitudeDegrees>
              <LongitudeDegrees>-1.60452702082693576812744140625</LongitudeDegrees>
            </Position>
            <AltitudeMeters>34.200000762939453125</AltitudeMeters>
            <DistanceMeters>NAN</DistanceMeters>
          </Trackpoint>
          <Trackpoint>
            <Time>2022-07-08T09:43:33.000Z</Time>
            <Position>
              <LatitudeDegrees>43.42644075863063335418701171875</LatitudeDegrees>
              <LongitudeDegrees>-1.6046850197017192840576171875</LongitudeDegrees>
            </Position>
            <AltitudeMeters>32.799999237060546875</AltitudeMeters>
            <DistanceMeters>NAN</DistanceMeters>
          </Trackpoint>
          <Trackpoint>
            <Time>2022-07-08T09:43:34.000Z</Time>
            <Position>
              <LatitudeDegrees>43.42641410417854785919189453125</LatitudeDegrees>
              <LongitudeDegrees>-1.60476791672408580780029296875</LongitudeDegrees>
            </Position>
            <AltitudeMeters>32.200000762939453125</AltitudeMeters>
            <DistanceMeters>NAN</DistanceMeters>
          </Trackpoint>
          <Trackpoint>
            <Time>2022-07-08T09:43:36.000Z</Time>
            <Position>
              <LatitudeDegrees>43.42635576613247394561767578125</LatitudeDegrees>
              <LongitudeDegrees>-1.6049264185130596160888671875</LongitudeDegrees>
            </Position>
            <AltitudeMeters>31.3999996185302734375</AltitudeMeters>
            <DistanceMeters>NAN</DistanceMeters>
          </Trackpoint>
          <Trackpoint>
            <Time>2022-07-08T09:43:37.000Z</Time>
            <Position>
              <LatitudeDegrees>43.4263219870626926422119140625</LatitudeDegrees>
              <LongitudeDegrees>-1.6049968264997005462646484375</LongitudeDegrees>
            </Position>
            <AltitudeMeters>31.200000762939453125</AltitudeMeters>
            <DistanceMeters>NAN</DistanceMeters>
          </Trackpoint>
          <Trackpoint>
            <Time>2022-07-08T09:43:40.000Z</Time>
            <Position>
              <LatitudeDegrees>43.4262071549892425537109375</LatitudeDegrees>
              <LongitudeDegrees>-1.6051912866532802581787109375</LongitudeDegrees>
            </Position>
            <AltitudeMeters>30.3999996185302734375</AltitudeMeters>
            <DistanceMeters>NAN</DistanceMeters>
          </Trackpoint>
          <Trackpoint>
            <Time>2022-07-08T09:43:41.000Z</Time>
            <Position>
              <LatitudeDegrees>43.4261627309024333953857421875</LatitudeDegrees>
              <LongitudeDegrees>-1.60525071434676647186279296875</LongitudeDegrees>
            </Position>
            <AltitudeMeters>30</AltitudeMeters>
            <DistanceMeters>NAN</DistanceMeters>
          </Trackpoint>
          <Trackpoint>
            <Time>2022-07-08T09:43:43.000Z</Time>
            <Position>
              <LatitudeDegrees>43.42607011087238788604736328125</LatitudeDegrees>
              <LongitudeDegrees>-1.60536579787731170654296875</LongitudeDegrees>
            </Position>
            <AltitudeMeters>29</AltitudeMeters>
            <DistanceMeters>NAN</DistanceMeters>
          </Trackpoint>
          <Trackpoint>
            <Time>2022-07-08T09:43:45.000Z</Time>
            <Position>
              <LatitudeDegrees>43.425971455872058868408203125</LatitudeDegrees>
              <LongitudeDegrees>-1.60547652281820774078369140625</LongitudeDegrees>
            </Position>
            <AltitudeMeters>27.6000003814697265625</AltitudeMeters>
            <DistanceMeters>NAN</DistanceMeters>
          </Trackpoint>
          <Trackpoint>
            <Time>2022-07-08T09:43:47.000Z</Time>
            <Position>
              <LatitudeDegrees>43.4258852899074554443359375</LatitudeDegrees>
              <LongitudeDegrees>-1.6055966354906558990478515625</LongitudeDegrees>
            </Position>
            <AltitudeMeters>26.799999237060546875</AltitudeMeters>
            <DistanceMeters>NAN</DistanceMeters>
          </Trackpoint>
          <Trackpoint>
            <Time>2022-07-08T09:43:48.000Z</Time>
            <Position>
              <LatitudeDegrees>43.42585335485637187957763671875</LatitudeDegrees>
              <LongitudeDegrees>-1.605657823383808135986328125</LongitudeDegrees>
            </Position>
            <AltitudeMeters>26.3999996185302734375</AltitudeMeters>
            <DistanceMeters>NAN</DistanceMeters>
          </Trackpoint>
          <Trackpoint>
            <Time>2022-07-08T09:43:49.000Z</Time>
            <Position>
              <LatitudeDegrees>43.42582938261330127716064453125</LatitudeDegrees>
              <LongitudeDegrees>-1.6057230345904827117919921875</LongitudeDegrees>
            </Position>
            <AltitudeMeters>26</AltitudeMeters>
            <DistanceMeters>NAN</DistanceMeters>
          </Trackpoint>
          <Trackpoint>
            <Time>2022-07-08T09:43:51.000Z</Time>
            <Position>
              <LatitudeDegrees>43.42580842785537242889404296875</LatitudeDegrees>
              <LongitudeDegrees>-1.6057889163494110107421875</LongitudeDegrees>
            </Position>
            <AltitudeMeters>24.799999237060546875</AltitudeMeters>
            <DistanceMeters>NAN</DistanceMeters>
          </Trackpoint>
          <Trackpoint>
            <Time>2022-07-08T09:43:56.000Z</Time>
            <Position>
              <LatitudeDegrees>43.4257216751575469970703125</LatitudeDegrees>
              <LongitudeDegrees>-1.6061421297490596771240234375</LongitudeDegrees>
            </Position>
            <AltitudeMeters>24</AltitudeMeters>
            <DistanceMeters>NAN</DistanceMeters>
          </Trackpoint>
          <Trackpoint>
            <Time>2022-07-08T09:44:01.000Z</Time>
            <Position>
              <LatitudeDegrees>43.425680100917816162109375</LatitudeDegrees>
              <LongitudeDegrees>-1.6062976978719234466552734375</LongitudeDegrees>
            </Position>
            <AltitudeMeters>24.200000762939453125</AltitudeMeters>
            <DistanceMeters>NAN</DistanceMeters>
          </Trackpoint>
          <Trackpoint>
            <Time>2022-07-08T09:44:07.000Z</Time>
            <Position>
              <LatitudeDegrees>43.425633497536182403564453125</LatitudeDegrees>
              <LongitudeDegrees>-1.6064411960542201995849609375</LongitudeDegrees>
            </Position>
            <AltitudeMeters>25</AltitudeMeters>
            <DistanceMeters>NAN</DistanceMeters>
          </Trackpoint>
          <Trackpoint>
            <Time>2022-07-08T09:44:14.000Z</Time>
            <Position>
              <LatitudeDegrees>43.42558085918426513671875</LatitudeDegrees>
              <LongitudeDegrees>-1.60658243112266063690185546875</LongitudeDegrees>
            </Position>
            <AltitudeMeters>26</AltitudeMeters>
            <DistanceMeters>NAN</DistanceMeters>
          </Trackpoint>
          <Trackpoint>
            <Time>2022-07-08T09:44:15.000Z</Time>
            <Position>
              <LatitudeDegrees>43.4255753271281719207763671875</LatitudeDegrees>
              <LongitudeDegrees>-1.6066011227667331695556640625</LongitudeDegrees>
            </Position>
            <AltitudeMeters>26</AltitudeMeters>
            <DistanceMeters>NAN</DistanceMeters>
          </Trackpoint>
          <Trackpoint>
            <Time>2022-07-08T09:44:18.000Z</Time>
            <Position>
              <LatitudeDegrees>43.4255580604076385498046875</LatitudeDegrees>
              <LongitudeDegrees>-1.60665971226990222930908203125</LongitudeDegrees>
            </Position>
            <AltitudeMeters>26.3999996185302734375</AltitudeMeters>
            <DistanceMeters>NAN</DistanceMeters>
          </Trackpoint>
          <Trackpoint>
            <Time>2022-07-08T09:44:23.000Z</Time>
            <Position>
              <LatitudeDegrees>43.4255257062613964080810546875</LatitudeDegrees>
              <LongitudeDegrees>-1.60674872808158397674560546875</LongitudeDegrees>
            </Position>
            <AltitudeMeters>27</AltitudeMeters>
            <DistanceMeters>NAN</DistanceMeters>
          </Trackpoint>
          <Trackpoint>
            <Time>2022-07-08T09:44:24.000Z</Time>
            <Position>
              <LatitudeDegrees>43.4255247004330158233642578125</LatitudeDegrees>
              <LongitudeDegrees>-1.60676850937306880950927734375</LongitudeDegrees>
            </Position>
            <AltitudeMeters>27</AltitudeMeters>
            <DistanceMeters>NAN</DistanceMeters>
          </Trackpoint>
          <Trackpoint>
            <Time>2022-07-08T09:44:33.000Z</Time>
            <Position>
              <LatitudeDegrees>43.4254992194473743438720703125</LatitudeDegrees>
              <LongitudeDegrees>-1.60691334865987300872802734375</LongitudeDegrees>
            </Position>
            <AltitudeMeters>28</AltitudeMeters>
            <DistanceMeters>NAN</DistanceMeters>
          </Trackpoint>
          <Trackpoint>
            <Time>2022-07-08T09:44:34.000Z</Time>
            <Position>
              <LatitudeDegrees>43.4254918433725833892822265625</LatitudeDegrees>
              <LongitudeDegrees>-1.60693220794200897216796875</LongitudeDegrees>
            </Position>
            <AltitudeMeters>28</AltitudeMeters>
            <DistanceMeters>NAN</DistanceMeters>
          </Trackpoint>
          <Trackpoint>
            <Time>2022-07-08T09:44:40.000Z</Time>
            <Position>
              <LatitudeDegrees>43.42546544037759304046630859375</LatitudeDegrees>
              <LongitudeDegrees>-1.607041843235492706298828125</LongitudeDegrees>
            </Position>
            <AltitudeMeters>29</AltitudeMeters>
            <DistanceMeters>NAN</DistanceMeters>
          </Trackpoint>
          <Trackpoint>
            <Time>2022-07-08T09:44:50.000Z</Time>
            <Position>
              <LatitudeDegrees>43.42543459497392177581787109375</LatitudeDegrees>
              <LongitudeDegrees>-1.60720705054700374603271484375</LongitudeDegrees>
            </Position>
            <AltitudeMeters>30.200000762939453125</AltitudeMeters>
            <DistanceMeters>NAN</DistanceMeters>
          </Trackpoint>
          <Trackpoint>
            <Time>2022-07-08T09:44:54.000Z</Time>
            <Position>
              <LatitudeDegrees>43.425420261919498443603515625</LatitudeDegrees>
              <LongitudeDegrees>-1.60727309994399547576904296875</LongitudeDegrees>
            </Position>
            <AltitudeMeters>30.3999996185302734375</AltitudeMeters>
            <DistanceMeters>NAN</DistanceMeters>
          </Trackpoint>
          <Trackpoint>
            <Time>2022-07-08T09:44:58.000Z</Time>
            <Position>
              <LatitudeDegrees>43.42539821751415729522705078125</LatitudeDegrees>
              <LongitudeDegrees>-1.60733261145651340484619140625</LongitudeDegrees>
            </Position>
            <AltitudeMeters>30.799999237060546875</AltitudeMeters>
            <DistanceMeters>NAN</DistanceMeters>
          </Trackpoint>
          <Trackpoint>
            <Time>2022-07-08T09:45:02.000Z</Time>
            <Position>
              <LatitudeDegrees>43.42537726275622844696044921875</LatitudeDegrees>
              <LongitudeDegrees>-1.607400588691234588623046875</LongitudeDegrees>
            </Position>
            <AltitudeMeters>31.200000762939453125</AltitudeMeters>
            <DistanceMeters>NAN</DistanceMeters>
          </Trackpoint>
          <Trackpoint>
            <Time>2022-07-08T09:45:08.000Z</Time>
            <Position>
              <LatitudeDegrees>43.42536485753953456878662109375</LatitudeDegrees>
              <LongitudeDegrees>-1.6074976511299610137939453125</LongitudeDegrees>
            </Position>
            <AltitudeMeters>31.799999237060546875</AltitudeMeters>
            <DistanceMeters>NAN</DistanceMeters>
          </Trackpoint>
          <Trackpoint>
            <Time>2022-07-08T09:45:12.000Z</Time>
            <Position>
              <LatitudeDegrees>43.42535999603569507598876953125</LatitudeDegrees>
              <LongitudeDegrees>-1.60755892284214496612548828125</LongitudeDegrees>
            </Position>
            <AltitudeMeters>32.200000762939453125</AltitudeMeters>
            <DistanceMeters>NAN</DistanceMeters>
          </Trackpoint>
          <Trackpoint>
            <Time>2022-07-08T09:45:14.000Z</Time>
            <Position>
              <LatitudeDegrees>43.4253637678921222686767578125</LatitudeDegrees>
              <LongitudeDegrees>-1.60759211517870426177978515625</LongitudeDegrees>
            </Position>
            <AltitudeMeters>32.59999847412109375</AltitudeMeters>
            <DistanceMeters>NAN</DistanceMeters>
          </Trackpoint>
          <Trackpoint>
            <Time>2022-07-08T09:45:21.000Z</Time>
            <Position>
              <LatitudeDegrees>43.42533719725906848907470703125</LatitudeDegrees>
              <LongitudeDegrees>-1.60770745016634464263916015625</LongitudeDegrees>
            </Position>
            <AltitudeMeters>32.799999237060546875</AltitudeMeters>
            <DistanceMeters>NAN</DistanceMeters>
          </Trackpoint>
          <Trackpoint>
            <Time>2022-07-08T09:45:24.000Z</Time>
            <Position>
              <LatitudeDegrees>43.4253231994807720184326171875</LatitudeDegrees>
              <LongitudeDegrees>-1.60776059143245220184326171875</LongitudeDegrees>
            </Position>
            <AltitudeMeters>33.40000152587890625</AltitudeMeters>
            <DistanceMeters>NAN</DistanceMeters>
          </Trackpoint>
          <Trackpoint>
            <Time>2022-07-08T09:45:28.000Z</Time>
            <Position>
              <LatitudeDegrees>43.42532194219529628753662109375</LatitudeDegrees>
              <LongitudeDegrees>-1.60783133469521999359130859375</LongitudeDegrees>
            </Position>
            <AltitudeMeters>33.799999237060546875</AltitudeMeters>
            <DistanceMeters>NAN</DistanceMeters>
          </Trackpoint>
          <Trackpoint>
            <Time>2022-07-08T09:45:29.000Z</Time>
            <Position>
              <LatitudeDegrees>43.4253238700330257415771484375</LatitudeDegrees>
              <LongitudeDegrees>-1.6078436560928821563720703125</LongitudeDegrees>
            </Position>
            <AltitudeMeters>34</AltitudeMeters>
            <DistanceMeters>NAN</DistanceMeters>
          </Trackpoint>
          <Trackpoint>
            <Time>2022-07-08T09:45:31.000Z</Time>
            <Position>
              <LatitudeDegrees>43.4253302402794361114501953125</LatitudeDegrees>
              <LongitudeDegrees>-1.6078770160675048828125</LongitudeDegrees>
            </Position>
            <AltitudeMeters>34.200000762939453125</AltitudeMeters>
            <DistanceMeters>NAN</DistanceMeters>
          </Trackpoint>
          <Trackpoint>
            <Time>2022-07-08T09:45:34.000Z</Time>
            <Position>
              <LatitudeDegrees>43.4253295697271823883056640625</LatitudeDegrees>
              <LongitudeDegrees>-1.60792638547718524932861328125</LongitudeDegrees>
            </Position>
            <AltitudeMeters>34.40000152587890625</AltitudeMeters>
            <DistanceMeters>NAN</DistanceMeters>
          </Trackpoint>
          <Trackpoint>
            <Time>2022-07-08T09:45:38.000Z</Time>
            <Position>
              <LatitudeDegrees>43.425331413745880126953125</LatitudeDegrees>
              <LongitudeDegrees>-1.60800400190055370330810546875</LongitudeDegrees>
            </Position>
            <AltitudeMeters>34.799999237060546875</AltitudeMeters>
            <DistanceMeters>NAN</DistanceMeters>
          </Trackpoint>
          <Trackpoint>
            <Time>2022-07-08T09:45:44.000Z</Time>
            <Position>
              <LatitudeDegrees>43.425319008529186248779296875</LatitudeDegrees>
              <LongitudeDegrees>-1.608100645244121551513671875</LongitudeDegrees>
            </Position>
            <AltitudeMeters>35.40000152587890625</AltitudeMeters>
            <DistanceMeters>NAN</DistanceMeters>
          </Trackpoint>
          <Trackpoint>
            <Time>2022-07-08T09:45:53.000Z</Time>
            <Position>
              <LatitudeDegrees>43.4252789430320262908935546875</LatitudeDegrees>
              <LongitudeDegrees>-1.60825026221573352813720703125</LongitudeDegrees>
            </Position>
            <AltitudeMeters>36.59999847412109375</AltitudeMeters>
            <DistanceMeters>NAN</DistanceMeters>
          </Trackpoint>
          <Trackpoint>
            <Time>2022-07-08T09:46:01.000Z</Time>
            <Position>
              <LatitudeDegrees>43.42523552477359771728515625</LatitudeDegrees>
              <LongitudeDegrees>-1.60838034935295581817626953125</LongitudeDegrees>
            </Position>
            <AltitudeMeters>37.59999847412109375</AltitudeMeters>
            <DistanceMeters>NAN</DistanceMeters>
          </Trackpoint>
          <Trackpoint>
            <Time>2022-07-08T09:46:08.000Z</Time>
            <Position>
              <LatitudeDegrees>43.4252081997692584991455078125</LatitudeDegrees>
              <LongitudeDegrees>-1.6085001267492771148681640625</LongitudeDegrees>
            </Position>
            <AltitudeMeters>38.40000152587890625</AltitudeMeters>
            <DistanceMeters>NAN</DistanceMeters>
          </Trackpoint>
          <Trackpoint>
            <Time>2022-07-08T09:46:10.000Z</Time>
            <Position>
              <LatitudeDegrees>43.4252028353512287139892578125</LatitudeDegrees>
              <LongitudeDegrees>-1.6085319779813289642333984375</LongitudeDegrees>
            </Position>
            <AltitudeMeters>38.59999847412109375</AltitudeMeters>
            <DistanceMeters>NAN</DistanceMeters>
          </Trackpoint>
          <Trackpoint>
            <Time>2022-07-08T09:46:11.000Z</Time>
            <Position>
              <LatitudeDegrees>43.425199985504150390625</LatitudeDegrees>
              <LongitudeDegrees>-1.60855117253959178924560546875</LongitudeDegrees>
            </Position>
            <AltitudeMeters>38.799999237060546875</AltitudeMeters>
            <DistanceMeters>NAN</DistanceMeters>
          </Trackpoint>
          <Trackpoint>
            <Time>2022-07-08T09:46:12.000Z</Time>
            <Position>
              <LatitudeDegrees>43.42519772239029407501220703125</LatitudeDegrees>
              <LongitudeDegrees>-1.60856273956596851348876953125</LongitudeDegrees>
            </Position>
            <AltitudeMeters>38.799999237060546875</AltitudeMeters>
            <DistanceMeters>NAN</DistanceMeters>
          </Trackpoint>
          <Trackpoint>
            <Time>2022-07-08T09:46:17.000Z</Time>
            <Position>
              <LatitudeDegrees>43.42518146149814128875732421875</LatitudeDegrees>
              <LongitudeDegrees>-1.6086496599018573760986328125</LongitudeDegrees>
            </Position>
            <AltitudeMeters>39.200000762939453125</AltitudeMeters>
            <DistanceMeters>NAN</DistanceMeters>
          </Trackpoint>
          <Trackpoint>
            <Time>2022-07-08T09:46:18.000Z</Time>
            <Position>
              <LatitudeDegrees>43.4251740016043186187744140625</LatitudeDegrees>
              <LongitudeDegrees>-1.60866349004209041595458984375</LongitudeDegrees>
            </Position>
            <AltitudeMeters>39.200000762939453125</AltitudeMeters>
            <DistanceMeters>NAN</DistanceMeters>
          </Trackpoint>
          <Trackpoint>
            <Time>2022-07-08T09:46:21.000Z</Time>
            <Position>
              <LatitudeDegrees>43.425157070159912109375</LatitudeDegrees>
              <LongitudeDegrees>-1.60870841704308986663818359375</LongitudeDegrees>
            </Position>
            <AltitudeMeters>39.799999237060546875</AltitudeMeters>
            <DistanceMeters>NAN</DistanceMeters>
          </Trackpoint>
          <Trackpoint>
            <Time>2022-07-08T09:46:22.000Z</Time>
            <Position>
              <LatitudeDegrees>43.4251558966934680938720703125</LatitudeDegrees>
              <LongitudeDegrees>-1.60872668959200382232666015625</LongitudeDegrees>
            </Position>
            <AltitudeMeters>39.799999237060546875</AltitudeMeters>
            <DistanceMeters>NAN</DistanceMeters>
          </Trackpoint>
          <Trackpoint>
            <Time>2022-07-08T09:46:28.000Z</Time>
            <Position>
              <LatitudeDegrees>43.4251636080443859100341796875</LatitudeDegrees>
              <LongitudeDegrees>-1.60885074175894260406494140625</LongitudeDegrees>
            </Position>
            <AltitudeMeters>40.40000152587890625</AltitudeMeters>
            <DistanceMeters>NAN</DistanceMeters>
          </Trackpoint>
          <Trackpoint>
            <Time>2022-07-08T09:46:34.000Z</Time>
            <Position>
              <LatitudeDegrees>43.42523812316358089447021484375</LatitudeDegrees>
              <LongitudeDegrees>-1.60894713364541530609130859375</LongitudeDegrees>
            </Position>
            <AltitudeMeters>40.200000762939453125</AltitudeMeters>
            <DistanceMeters>NAN</DistanceMeters>
          </Trackpoint>
          <Trackpoint>
            <Time>2022-07-08T09:46:36.000Z</Time>
            <Position>
              <LatitudeDegrees>43.425265364348888397216796875</LatitudeDegrees>
              <LongitudeDegrees>-1.608965657651424407958984375</LongitudeDegrees>
            </Position>
            <AltitudeMeters>40</AltitudeMeters>
            <DistanceMeters>NAN</DistanceMeters>
          </Trackpoint>
          <Trackpoint>
            <Time>2022-07-08T09:46:40.000Z</Time>
            <Position>
              <LatitudeDegrees>43.425304591655731201171875</LatitudeDegrees>
              <LongitudeDegrees>-1.60899348556995391845703125</LongitudeDegrees>
            </Position>
            <AltitudeMeters>39.59999847412109375</AltitudeMeters>
            <DistanceMeters>NAN</DistanceMeters>
          </Trackpoint>
          <Trackpoint>
            <Time>2022-07-08T09:46:42.000Z</Time>
            <Position>
              <LatitudeDegrees>43.4253265522420406341552734375</LatitudeDegrees>
              <LongitudeDegrees>-1.60897496156394481658935546875</LongitudeDegrees>
            </Position>
            <AltitudeMeters>39.40000152587890625</AltitudeMeters>
            <DistanceMeters>NAN</DistanceMeters>
          </Trackpoint>
          <Trackpoint>
            <Time>2022-07-08T09:46:45.000Z</Time>
            <Position>
              <LatitudeDegrees>43.425363264977931976318359375</LatitudeDegrees>
              <LongitudeDegrees>-1.6089324653148651123046875</LongitudeDegrees>
            </Position>
            <AltitudeMeters>39.40000152587890625</AltitudeMeters>
            <DistanceMeters>NAN</DistanceMeters>
          </Trackpoint>
          <Trackpoint>
            <Time>2022-07-08T09:46:52.000Z</Time>
            <Position>
              <LatitudeDegrees>43.4254935197532176971435546875</LatitudeDegrees>
              <LongitudeDegrees>-1.6088501550257205963134765625</LongitudeDegrees>
            </Position>
            <AltitudeMeters>39</AltitudeMeters>
            <DistanceMeters>NAN</DistanceMeters>
          </Trackpoint>
          <Trackpoint>
            <Time>2022-07-08T09:46:53.000Z</Time>
            <Position>
              <LatitudeDegrees>43.425514809787273406982421875</LatitudeDegrees>
              <LongitudeDegrees>-1.60883833654224872589111328125</LongitudeDegrees>
            </Position>
            <AltitudeMeters>38.799999237060546875</AltitudeMeters>
            <DistanceMeters>NAN</DistanceMeters>
          </Trackpoint>
          <Trackpoint>
            <Time>2022-07-08T09:46:56.000Z</Time>
            <Position>
              <LatitudeDegrees>43.42558697797358036041259765625</LatitudeDegrees>
              <LongitudeDegrees>-1.6088079102337360382080078125</LongitudeDegrees>
            </Position>
            <AltitudeMeters>38.59999847412109375</AltitudeMeters>
            <DistanceMeters>NAN</DistanceMeters>
          </Trackpoint>
          <Trackpoint>
            <Time>2022-07-08T09:47:01.000Z</Time>
            <Position>
              <LatitudeDegrees>43.4257292188704013824462890625</LatitudeDegrees>
              <LongitudeDegrees>-1.60877698101103305816650390625</LongitudeDegrees>
            </Position>
            <AltitudeMeters>38.200000762939453125</AltitudeMeters>
            <DistanceMeters>NAN</DistanceMeters>
          </Trackpoint>
          <Trackpoint>
            <Time>2022-07-08T09:47:03.000Z</Time>
            <Position>
              <LatitudeDegrees>43.42577976174652576446533203125</LatitudeDegrees>
              <LongitudeDegrees>-1.608813107013702392578125</LongitudeDegrees>
            </Position>
            <AltitudeMeters>38</AltitudeMeters>
            <DistanceMeters>NAN</DistanceMeters>
          </Trackpoint>
          <Trackpoint>
            <Time>2022-07-08T09:47:05.000Z</Time>
            <Position>
              <LatitudeDegrees>43.4258177317678928375244140625</LatitudeDegrees>
              <LongitudeDegrees>-1.60888058133423328399658203125</LongitudeDegrees>
            </Position>
            <AltitudeMeters>37.59999847412109375</AltitudeMeters>
            <DistanceMeters>NAN</DistanceMeters>
          </Trackpoint>
          <Trackpoint>
            <Time>2022-07-08T09:47:06.000Z</Time>
            <Position>
              <LatitudeDegrees>43.42583424411714076995849609375</LatitudeDegrees>
              <LongitudeDegrees>-1.608918048441410064697265625</LongitudeDegrees>
            </Position>
            <AltitudeMeters>37.200000762939453125</AltitudeMeters>
            <DistanceMeters>NAN</DistanceMeters>
          </Trackpoint>
          <Trackpoint>
            <Time>2022-07-08T09:47:08.000Z</Time>
            <Position>
              <LatitudeDegrees>43.4258616529405117034912109375</LatitudeDegrees>
              <LongitudeDegrees>-1.6089949943125247955322265625</LongitudeDegrees>
            </Position>
            <AltitudeMeters>36.200000762939453125</AltitudeMeters>
            <DistanceMeters>NAN</DistanceMeters>
          </Trackpoint>
          <Trackpoint>
            <Time>2022-07-08T09:47:11.000Z</Time>
            <Position>
              <LatitudeDegrees>43.42589610256254673004150390625</LatitudeDegrees>
              <LongitudeDegrees>-1.60912767983973026275634765625</LongitudeDegrees>
            </Position>
            <AltitudeMeters>35</AltitudeMeters>
            <DistanceMeters>NAN</DistanceMeters>
          </Trackpoint>
          <Trackpoint>
            <Time>2022-07-08T09:47:13.000Z</Time>
            <Position>
              <LatitudeDegrees>43.425888977944850921630859375</LatitudeDegrees>
              <LongitudeDegrees>-1.609215103089809417724609375</LongitudeDegrees>
            </Position>
            <AltitudeMeters>34</AltitudeMeters>
            <DistanceMeters>NAN</DistanceMeters>
          </Trackpoint>
          <Trackpoint>
            <Time>2022-07-08T09:47:14.000Z</Time>
            <Position>
              <LatitudeDegrees>43.4258760698139667510986328125</LatitudeDegrees>
              <LongitudeDegrees>-1.60925659351050853729248046875</LongitudeDegrees>
            </Position>
            <AltitudeMeters>33.40000152587890625</AltitudeMeters>
            <DistanceMeters>NAN</DistanceMeters>
          </Trackpoint>
          <Trackpoint>
            <Time>2022-07-08T09:47:16.000Z</Time>
            <Position>
              <LatitudeDegrees>43.42583290301263332366943359375</LatitudeDegrees>
              <LongitudeDegrees>-1.6093507222831249237060546875</LongitudeDegrees>
            </Position>
            <AltitudeMeters>32.40000152587890625</AltitudeMeters>
            <DistanceMeters>NAN</DistanceMeters>
          </Trackpoint>
          <Trackpoint>
            <Time>2022-07-08T09:47:18.000Z</Time>
            <Position>
              <LatitudeDegrees>43.42577473260462284088134765625</LatitudeDegrees>
              <LongitudeDegrees>-1.60944141447544097900390625</LongitudeDegrees>
            </Position>
            <AltitudeMeters>31.6000003814697265625</AltitudeMeters>
            <DistanceMeters>NAN</DistanceMeters>
          </Trackpoint>
          <Trackpoint>
            <Time>2022-07-08T09:47:19.000Z</Time>
            <Position>
              <LatitudeDegrees>43.42574036680161952972412109375</LatitudeDegrees>
              <LongitudeDegrees>-1.60948642529547214508056640625</LongitudeDegrees>
            </Position>
            <AltitudeMeters>31.200000762939453125</AltitudeMeters>
            <DistanceMeters>NAN</DistanceMeters>
          </Trackpoint>
          <Trackpoint>
            <Time>2022-07-08T09:47:22.000Z</Time>
            <Position>
              <LatitudeDegrees>43.42563249170780181884765625</LatitudeDegrees>
              <LongitudeDegrees>-1.60964123904705047607421875</LongitudeDegrees>
            </Position>
            <AltitudeMeters>30</AltitudeMeters>
            <DistanceMeters>NAN</DistanceMeters>
          </Trackpoint>
          <Trackpoint>
            <Time>2022-07-08T09:47:23.000Z</Time>
            <Position>
              <LatitudeDegrees>43.42560390941798686981201171875</LatitudeDegrees>
              <LongitudeDegrees>-1.60970083437860012054443359375</LongitudeDegrees>
            </Position>
            <AltitudeMeters>29.799999237060546875</AltitudeMeters>
            <DistanceMeters>NAN</DistanceMeters>
          </Trackpoint>
          <Trackpoint>
            <Time>2022-07-08T09:47:24.000Z</Time>
            <Position>
              <LatitudeDegrees>43.425583541393280029296875</LatitudeDegrees>
              <LongitudeDegrees>-1.60976638086140155792236328125</LongitudeDegrees>
            </Position>
            <AltitudeMeters>29.200000762939453125</AltitudeMeters>
            <DistanceMeters>NAN</DistanceMeters>
          </Trackpoint>
          <Trackpoint>
            <Time>2022-07-08T09:47:25.000Z</Time>
            <Position>
              <LatitudeDegrees>43.4255696274340152740478515625</LatitudeDegrees>
              <LongitudeDegrees>-1.609836705029010772705078125</LongitudeDegrees>
            </Position>
            <AltitudeMeters>28.6000003814697265625</AltitudeMeters>
            <DistanceMeters>NAN</DistanceMeters>
          </Trackpoint>
          <Trackpoint>
            <Time>2022-07-08T09:47:29.000Z</Time>
            <Position>
              <LatitudeDegrees>43.425550349056720733642578125</LatitudeDegrees>
              <LongitudeDegrees>-1.610086821019649505615234375</LongitudeDegrees>
            </Position>
            <AltitudeMeters>28</AltitudeMeters>
            <DistanceMeters>NAN</DistanceMeters>
          </Trackpoint>
          <Trackpoint>
            <Time>2022-07-08T09:47:33.000Z</Time>
            <Position>
              <LatitudeDegrees>43.42555579729378223419189453125</LatitudeDegrees>
              <LongitudeDegrees>-1.61024582572281360626220703125</LongitudeDegrees>
            </Position>
            <AltitudeMeters>28.200000762939453125</AltitudeMeters>
            <DistanceMeters>NAN</DistanceMeters>
          </Trackpoint>
          <Trackpoint>
            <Time>2022-07-08T09:47:38.000Z</Time>
            <Position>
              <LatitudeDegrees>43.42557155527174472808837890625</LatitudeDegrees>
              <LongitudeDegrees>-1.61035738885402679443359375</LongitudeDegrees>
            </Position>
            <AltitudeMeters>29</AltitudeMeters>
            <DistanceMeters>NAN</DistanceMeters>
          </Trackpoint>
          <Trackpoint>
            <Time>2022-07-08T09:47:44.000Z</Time>
            <Position>
              <LatitudeDegrees>43.425575159490108489990234375</LatitudeDegrees>
              <LongitudeDegrees>-1.61045730113983154296875</LongitudeDegrees>
            </Position>
            <AltitudeMeters>29.799999237060546875</AltitudeMeters>
            <DistanceMeters>NAN</DistanceMeters>
          </Trackpoint>
          <Trackpoint>
            <Time>2022-07-08T09:47:50.000Z</Time>
            <Position>
              <LatitudeDegrees>43.42556082643568515777587890625</LatitudeDegrees>
              <LongitudeDegrees>-1.61056526005268096923828125</LongitudeDegrees>
            </Position>
            <AltitudeMeters>31</AltitudeMeters>
            <DistanceMeters>NAN</DistanceMeters>
          </Trackpoint>
          <Trackpoint>
            <Time>2022-07-08T09:47:52.000Z</Time>
            <Position>
              <LatitudeDegrees>43.4255553781986236572265625</LatitudeDegrees>
              <LongitudeDegrees>-1.6106033138930797576904296875</LongitudeDegrees>
            </Position>
            <AltitudeMeters>31</AltitudeMeters>
            <DistanceMeters>NAN</DistanceMeters>
          </Trackpoint>
          <Trackpoint>
            <Time>2022-07-08T09:47:55.000Z</Time>
            <Position>
              <LatitudeDegrees>43.42554573900997638702392578125</LatitudeDegrees>
              <LongitudeDegrees>-1.61064933054149150848388671875</LongitudeDegrees>
            </Position>
            <AltitudeMeters>32.200000762939453125</AltitudeMeters>
            <DistanceMeters>NAN</DistanceMeters>
          </Trackpoint>
          <Trackpoint>
            <Time>2022-07-08T09:47:56.000Z</Time>
            <Position>
              <LatitudeDegrees>43.4255392849445343017578125</LatitudeDegrees>
              <LongitudeDegrees>-1.610662154853343963623046875</LongitudeDegrees>
            </Position>
            <AltitudeMeters>32.40000152587890625</AltitudeMeters>
            <DistanceMeters>NAN</DistanceMeters>
          </Trackpoint>
          <Trackpoint>
            <Time>2022-07-08T09:47:59.000Z</Time>
            <Position>
              <LatitudeDegrees>43.4255176596343517303466796875</LatitudeDegrees>
              <LongitudeDegrees>-1.61071051843464374542236328125</LongitudeDegrees>
            </Position>
            <AltitudeMeters>32.799999237060546875</AltitudeMeters>
            <DistanceMeters>NAN</DistanceMeters>
          </Trackpoint>
          <Trackpoint>
            <Time>2022-07-08T09:48:02.000Z</Time>
            <Position>
              <LatitudeDegrees>43.42550315894186496734619140625</LatitudeDegrees>
              <LongitudeDegrees>-1.61076365970075130462646484375</LongitudeDegrees>
            </Position>
            <AltitudeMeters>33.200000762939453125</AltitudeMeters>
            <DistanceMeters>NAN</DistanceMeters>
          </Trackpoint>
          <Trackpoint>
            <Time>2022-07-08T09:48:09.000Z</Time>
            <Position>
              <LatitudeDegrees>43.42547558248043060302734375</LatitudeDegrees>
              <LongitudeDegrees>-1.610880084335803985595703125</LongitudeDegrees>
            </Position>
            <AltitudeMeters>34.200000762939453125</AltitudeMeters>
            <DistanceMeters>NAN</DistanceMeters>
          </Trackpoint>
          <Trackpoint>
            <Time>2022-07-08T09:48:17.000Z</Time>
            <Position>
              <LatitudeDegrees>43.42543995939195156097412109375</LatitudeDegrees>
              <LongitudeDegrees>-1.61101855337619781494140625</LongitudeDegrees>
            </Position>
            <AltitudeMeters>35.200000762939453125</AltitudeMeters>
            <DistanceMeters>NAN</DistanceMeters>
          </Trackpoint>
          <Trackpoint>
            <Time>2022-07-08T09:48:20.000Z</Time>
            <Position>
              <LatitudeDegrees>43.42543023638427257537841796875</LatitudeDegrees>
              <LongitudeDegrees>-1.61107278428971767425537109375</LongitudeDegrees>
            </Position>
            <AltitudeMeters>35.799999237060546875</AltitudeMeters>
            <DistanceMeters>NAN</DistanceMeters>
          </Trackpoint>
          <Trackpoint>
            <Time>2022-07-08T09:48:23.000Z</Time>
            <Position>
              <LatitudeDegrees>43.42541749589145183563232421875</LatitudeDegrees>
              <LongitudeDegrees>-1.611130200326442718505859375</LongitudeDegrees>
            </Position>
            <AltitudeMeters>36.40000152587890625</AltitudeMeters>
            <DistanceMeters>NAN</DistanceMeters>
          </Trackpoint>
          <Trackpoint>
            <Time>2022-07-08T09:48:26.000Z</Time>
            <Position>
              <LatitudeDegrees>43.42540525831282138824462890625</LatitudeDegrees>
              <LongitudeDegrees>-1.61117789335548877716064453125</LongitudeDegrees>
            </Position>
            <AltitudeMeters>37</AltitudeMeters>
            <DistanceMeters>NAN</DistanceMeters>
          </Trackpoint>
          <Trackpoint>
            <Time>2022-07-08T09:48:29.000Z</Time>
            <Position>
              <LatitudeDegrees>43.425390422344207763671875</LatitudeDegrees>
              <LongitudeDegrees>-1.61122432909905910491943359375</LongitudeDegrees>
            </Position>
            <AltitudeMeters>37.59999847412109375</AltitudeMeters>
            <DistanceMeters>NAN</DistanceMeters>
          </Trackpoint>
          <Trackpoint>
            <Time>2022-07-08T09:48:36.000Z</Time>
            <Position>
              <LatitudeDegrees>43.4253731556236743927001953125</LatitudeDegrees>
              <LongitudeDegrees>-1.6113372333347797393798828125</LongitudeDegrees>
            </Position>
            <AltitudeMeters>38.59999847412109375</AltitudeMeters>
            <DistanceMeters>NAN</DistanceMeters>
          </Trackpoint>
          <Trackpoint>
            <Time>2022-07-08T09:48:37.000Z</Time>
            <Position>
              <LatitudeDegrees>43.42537038959562778472900390625</LatitudeDegrees>
              <LongitudeDegrees>-1.611352823674678802490234375</LongitudeDegrees>
            </Position>
            <AltitudeMeters>38.799999237060546875</AltitudeMeters>
            <DistanceMeters>NAN</DistanceMeters>
          </Trackpoint>
          <Trackpoint>
            <Time>2022-07-08T09:48:39.000Z</Time>
            <Position>
              <LatitudeDegrees>43.425363600254058837890625</LatitudeDegrees>
              <LongitudeDegrees>-1.611380986869335174560546875</LongitudeDegrees>
            </Position>
            <AltitudeMeters>39</AltitudeMeters>
            <DistanceMeters>NAN</DistanceMeters>
          </Trackpoint>
          <Trackpoint>
            <Time>2022-07-08T09:48:40.000Z</Time>
            <Position>
              <LatitudeDegrees>43.42535446397960186004638671875</LatitudeDegrees>
              <LongitudeDegrees>-1.6114009357988834381103515625</LongitudeDegrees>
            </Position>
            <AltitudeMeters>39.200000762939453125</AltitudeMeters>
            <DistanceMeters>NAN</DistanceMeters>
          </Trackpoint>
          <Trackpoint>
            <Time>2022-07-08T09:48:43.000Z</Time>
            <Position>
              <LatitudeDegrees>43.42534490860998630523681640625</LatitudeDegrees>
              <LongitudeDegrees>-1.61144829355180263519287109375</LongitudeDegrees>
            </Position>
            <AltitudeMeters>39.59999847412109375</AltitudeMeters>
            <DistanceMeters>NAN</DistanceMeters>
          </Trackpoint>
          <Trackpoint>
            <Time>2022-07-08T09:48:45.000Z</Time>
            <Position>
              <LatitudeDegrees>43.42533719725906848907470703125</LatitudeDegrees>
              <LongitudeDegrees>-1.611486934125423431396484375</LongitudeDegrees>
            </Position>
            <AltitudeMeters>40</AltitudeMeters>
            <DistanceMeters>NAN</DistanceMeters>
          </Trackpoint>
          <Trackpoint>
            <Time>2022-07-08T09:48:49.000Z</Time>
            <Position>
              <LatitudeDegrees>43.42531758360564708709716796875</LatitudeDegrees>
              <LongitudeDegrees>-1.61155273206532001495361328125</LongitudeDegrees>
            </Position>
            <AltitudeMeters>40.40000152587890625</AltitudeMeters>
            <DistanceMeters>NAN</DistanceMeters>
          </Trackpoint>
          <Trackpoint>
            <Time>2022-07-08T09:48:51.000Z</Time>
            <Position>
              <LatitudeDegrees>43.42530660331249237060546875</LatitudeDegrees>
              <LongitudeDegrees>-1.6115873493254184722900390625</LongitudeDegrees>
            </Position>
            <AltitudeMeters>40.799999237060546875</AltitudeMeters>
            <DistanceMeters>NAN</DistanceMeters>
          </Trackpoint>
          <Trackpoint>
            <Time>2022-07-08T09:48:54.000Z</Time>
            <Position>
              <LatitudeDegrees>43.42529746703803539276123046875</LatitudeDegrees>
              <LongitudeDegrees>-1.6116399876773357391357421875</LongitudeDegrees>
            </Position>
            <AltitudeMeters>41</AltitudeMeters>
            <DistanceMeters>NAN</DistanceMeters>
          </Trackpoint>
          <Trackpoint>
            <Time>2022-07-08T09:48:58.000Z</Time>
            <Position>
              <LatitudeDegrees>43.4252866543829441070556640625</LatitudeDegrees>
              <LongitudeDegrees>-1.6117139160633087158203125</LongitudeDegrees>
            </Position>
            <AltitudeMeters>41.40000152587890625</AltitudeMeters>
            <DistanceMeters>NAN</DistanceMeters>
          </Trackpoint>
          <Trackpoint>
            <Time>2022-07-08T09:49:01.000Z</Time>
            <Position>
              <LatitudeDegrees>43.42527131550014019012451171875</LatitudeDegrees>
              <LongitudeDegrees>-1.6117875091731548309326171875</LongitudeDegrees>
            </Position>
            <AltitudeMeters>41.59999847412109375</AltitudeMeters>
            <DistanceMeters>NAN</DistanceMeters>
          </Trackpoint>
          <Trackpoint>
            <Time>2022-07-08T09:49:03.000Z</Time>
            <Position>
              <LatitudeDegrees>43.4252645261585712432861328125</LatitudeDegrees>
              <LongitudeDegrees>-1.611834950745105743408203125</LongitudeDegrees>
            </Position>
            <AltitudeMeters>41.59999847412109375</AltitudeMeters>
            <DistanceMeters>NAN</DistanceMeters>
          </Trackpoint>
          <Trackpoint>
            <Time>2022-07-08T09:49:05.000Z</Time>
            <Position>
              <LatitudeDegrees>43.4252588264644145965576171875</LatitudeDegrees>
              <LongitudeDegrees>-1.611878871917724609375</LongitudeDegrees>
            </Position>
            <AltitudeMeters>41.799999237060546875</AltitudeMeters>
            <DistanceMeters>NAN</DistanceMeters>
          </Trackpoint>
          <Trackpoint>
            <Time>2022-07-08T09:49:09.000Z</Time>
            <Position>
              <LatitudeDegrees>43.4252410568296909332275390625</LatitudeDegrees>
              <LongitudeDegrees>-1.61197249777615070343017578125</LongitudeDegrees>
            </Position>
            <AltitudeMeters>41.799999237060546875</AltitudeMeters>
            <DistanceMeters>NAN</DistanceMeters>
          </Trackpoint>
          <Trackpoint>
            <Time>2022-07-08T09:49:12.000Z</Time>
            <Position>
              <LatitudeDegrees>43.42522001825273036956787109375</LatitudeDegrees>
              <LongitudeDegrees>-1.61204206757247447967529296875</LongitudeDegrees>
            </Position>
            <AltitudeMeters>42.200000762939453125</AltitudeMeters>
            <DistanceMeters>NAN</DistanceMeters>
          </Trackpoint>
          <Trackpoint>
            <Time>2022-07-08T09:49:14.000Z</Time>
            <Position>
              <LatitudeDegrees>43.425209037959575653076171875</LatitudeDegrees>
              <LongitudeDegrees>-1.61209135316312313079833984375</LongitudeDegrees>
            </Position>
            <AltitudeMeters>42.200000762939453125</AltitudeMeters>
            <DistanceMeters>NAN</DistanceMeters>
          </Trackpoint>
          <Trackpoint>
            <Time>2022-07-08T09:49:16.000Z</Time>
            <Position>
              <LatitudeDegrees>43.42519688419997692108154296875</LatitudeDegrees>
              <LongitudeDegrees>-1.61214415915310382843017578125</LongitudeDegrees>
            </Position>
            <AltitudeMeters>42.200000762939453125</AltitudeMeters>
            <DistanceMeters>NAN</DistanceMeters>
          </Trackpoint>
          <Trackpoint>
            <Time>2022-07-08T09:49:18.000Z</Time>
            <Position>
              <LatitudeDegrees>43.42518699355423450469970703125</LatitudeDegrees>
              <LongitudeDegrees>-1.6122039221227169036865234375</LongitudeDegrees>
            </Position>
            <AltitudeMeters>42.200000762939453125</AltitudeMeters>
            <DistanceMeters>NAN</DistanceMeters>
          </Trackpoint>
          <Trackpoint>
            <Time>2022-07-08T09:49:19.000Z</Time>
            <Position>
              <LatitudeDegrees>43.42517844401299953460693359375</LatitudeDegrees>
              <LongitudeDegrees>-1.61223904229700565338134765625</LongitudeDegrees>
            </Position>
            <AltitudeMeters>42.200000762939453125</AltitudeMeters>
            <DistanceMeters>NAN</DistanceMeters>
          </Trackpoint>
          <Trackpoint>
            <Time>2022-07-08T09:49:21.000Z</Time>
            <Position>
              <LatitudeDegrees>43.4251450002193450927734375</LatitudeDegrees>
              <LongitudeDegrees>-1.6123249568045139312744140625</LongitudeDegrees>
            </Position>
            <AltitudeMeters>42</AltitudeMeters>
            <DistanceMeters>NAN</DistanceMeters>
          </Trackpoint>
          <Trackpoint>
            <Time>2022-07-08T09:49:24.000Z</Time>
            <Position>
              <LatitudeDegrees>43.425091691315174102783203125</LatitudeDegrees>
              <LongitudeDegrees>-1.61248127929866313934326171875</LongitudeDegrees>
            </Position>
            <AltitudeMeters>41.59999847412109375</AltitudeMeters>
            <DistanceMeters>NAN</DistanceMeters>
          </Trackpoint>
          <Trackpoint>
            <Time>2022-07-08T09:49:29.000Z</Time>
            <Position>
              <LatitudeDegrees>43.42499437741935253143310546875</LatitudeDegrees>
              <LongitudeDegrees>-1.61273625679314136505126953125</LongitudeDegrees>
            </Position>
            <AltitudeMeters>40.40000152587890625</AltitudeMeters>
            <DistanceMeters>NAN</DistanceMeters>
          </Trackpoint>
          <Trackpoint>
            <Time>2022-07-08T09:49:32.000Z</Time>
            <Position>
              <LatitudeDegrees>43.42489195056259632110595703125</LatitudeDegrees>
              <LongitudeDegrees>-1.61291630007326602935791015625</LongitudeDegrees>
            </Position>
            <AltitudeMeters>40</AltitudeMeters>
            <DistanceMeters>NAN</DistanceMeters>
          </Trackpoint>
          <Trackpoint>
            <Time>2022-07-08T09:49:33.000Z</Time>
            <Position>
              <LatitudeDegrees>43.42484886758029460906982421875</LatitudeDegrees>
              <LongitudeDegrees>-1.6129834391176700592041015625</LongitudeDegrees>
            </Position>
            <AltitudeMeters>39.40000152587890625</AltitudeMeters>
            <DistanceMeters>NAN</DistanceMeters>
          </Trackpoint>
          <Trackpoint>
            <Time>2022-07-08T09:49:35.000Z</Time>
            <Position>
              <LatitudeDegrees>43.42476035468280315399169921875</LatitudeDegrees>
              <LongitudeDegrees>-1.6131247580051422119140625</LongitudeDegrees>
            </Position>
            <AltitudeMeters>38.200000762939453125</AltitudeMeters>
            <DistanceMeters>NAN</DistanceMeters>
          </Trackpoint>
          <Trackpoint>
            <Time>2022-07-08T09:49:37.000Z</Time>
            <Position>
              <LatitudeDegrees>43.42468793503940105438232421875</LatitudeDegrees>
              <LongitudeDegrees>-1.61325551569461822509765625</LongitudeDegrees>
            </Position>
            <AltitudeMeters>37.59999847412109375</AltitudeMeters>
            <DistanceMeters>NAN</DistanceMeters>
          </Trackpoint>
          <Trackpoint>
            <Time>2022-07-08T09:49:38.000Z</Time>
            <Position>
              <LatitudeDegrees>43.424660526216030120849609375</LatitudeDegrees>
              <LongitudeDegrees>-1.61331276409327983856201171875</LongitudeDegrees>
            </Position>
            <AltitudeMeters>37</AltitudeMeters>
            <DistanceMeters>NAN</DistanceMeters>
          </Trackpoint>
          <Trackpoint>
            <Time>2022-07-08T09:49:41.000Z</Time>
            <Position>
              <LatitudeDegrees>43.42457980848848819732666015625</LatitudeDegrees>
              <LongitudeDegrees>-1.61346363835036754608154296875</LongitudeDegrees>
            </Position>
            <AltitudeMeters>35.799999237060546875</AltitudeMeters>
            <DistanceMeters>NAN</DistanceMeters>
          </Trackpoint>
          <Trackpoint>
            <Time>2022-07-08T09:49:42.000Z</Time>
            <Position>
              <LatitudeDegrees>43.42455650679767131805419921875</LatitudeDegrees>
              <LongitudeDegrees>-1.61351208575069904327392578125</LongitudeDegrees>
            </Position>
            <AltitudeMeters>35.59999847412109375</AltitudeMeters>
            <DistanceMeters>NAN</DistanceMeters>
          </Trackpoint>
          <Trackpoint>
            <Time>2022-07-08T09:49:45.000Z</Time>
            <Position>
              <LatitudeDegrees>43.42448827810585498809814453125</LatitudeDegrees>
              <LongitudeDegrees>-1.61365524865686893463134765625</LongitudeDegrees>
            </Position>
            <AltitudeMeters>35.40000152587890625</AltitudeMeters>
            <DistanceMeters>NAN</DistanceMeters>
          </Trackpoint>
          <Trackpoint>
            <Time>2022-07-08T09:49:47.000Z</Time>
            <Position>
              <LatitudeDegrees>43.4244498051702976226806640625</LatitudeDegrees>
              <LongitudeDegrees>-1.61375046707689762115478515625</LongitudeDegrees>
            </Position>
            <AltitudeMeters>35.200000762939453125</AltitudeMeters>
            <DistanceMeters>NAN</DistanceMeters>
          </Trackpoint>
          <Trackpoint>
            <Time>2022-07-08T09:49:48.000Z</Time>
            <Position>
              <LatitudeDegrees>43.42443287372589111328125</LatitudeDegrees>
              <LongitudeDegrees>-1.61379866302013397216796875</LongitudeDegrees>
            </Position>
            <AltitudeMeters>35.200000762939453125</AltitudeMeters>
            <DistanceMeters>NAN</DistanceMeters>
          </Trackpoint>
          <Trackpoint>
            <Time>2022-07-08T09:49:49.000Z</Time>
            <Position>
              <LatitudeDegrees>43.42441066168248653411865234375</LatitudeDegrees>
              <LongitudeDegrees>-1.61385289393365383148193359375</LongitudeDegrees>
            </Position>
            <AltitudeMeters>35.200000762939453125</AltitudeMeters>
            <DistanceMeters>NAN</DistanceMeters>
          </Trackpoint>
          <Trackpoint>
            <Time>2022-07-08T09:49:52.000Z</Time>
            <Position>
              <LatitudeDegrees>43.42435450293123722076416015625</LatitudeDegrees>
              <LongitudeDegrees>-1.6140087135136127471923828125</LongitudeDegrees>
            </Position>
            <AltitudeMeters>35</AltitudeMeters>
            <DistanceMeters>NAN</DistanceMeters>
          </Trackpoint>
          <Trackpoint>
            <Time>2022-07-08T09:49:55.000Z</Time>
            <Position>
              <LatitudeDegrees>43.4243188798427581787109375</LatitudeDegrees>
              <LongitudeDegrees>-1.6141656227409839630126953125</LongitudeDegrees>
            </Position>
            <AltitudeMeters>35</AltitudeMeters>
            <DistanceMeters>NAN</DistanceMeters>
          </Trackpoint>
          <Trackpoint>
            <Time>2022-07-08T09:49:59.000Z</Time>
            <Position>
              <LatitudeDegrees>43.42429113574326038360595703125</LatitudeDegrees>
              <LongitudeDegrees>-1.6142973862588405609130859375</LongitudeDegrees>
            </Position>
            <AltitudeMeters>35.40000152587890625</AltitudeMeters>
            <DistanceMeters>NAN</DistanceMeters>
          </Trackpoint>
          <Trackpoint>
            <Time>2022-07-08T09:50:03.000Z</Time>
            <Position>
              <LatitudeDegrees>43.42427453957498073577880859375</LatitudeDegrees>
              <LongitudeDegrees>-1.61437131464481353759765625</LongitudeDegrees>
            </Position>
            <AltitudeMeters>35.799999237060546875</AltitudeMeters>
            <DistanceMeters>NAN</DistanceMeters>
          </Trackpoint>
          <Trackpoint>
            <Time>2022-07-08T09:50:05.000Z</Time>
            <Position>
              <LatitudeDegrees>43.4242652356624603271484375</LatitudeDegrees>
              <LongitudeDegrees>-1.6144100390374660491943359375</LongitudeDegrees>
            </Position>
            <AltitudeMeters>36</AltitudeMeters>
            <DistanceMeters>NAN</DistanceMeters>
          </Trackpoint>
          <Trackpoint>
            <Time>2022-07-08T09:50:11.000Z</Time>
            <Position>
              <LatitudeDegrees>43.42422206886112689971923828125</LatitudeDegrees>
              <LongitudeDegrees>-1.614496707916259765625</LongitudeDegrees>
            </Position>
            <AltitudeMeters>36.799999237060546875</AltitudeMeters>
            <DistanceMeters>NAN</DistanceMeters>
          </Trackpoint>
          <Trackpoint>
            <Time>2022-07-08T09:50:14.000Z</Time>
            <Position>
              <LatitudeDegrees>43.42419675551354885101318359375</LatitudeDegrees>
              <LongitudeDegrees>-1.6145475022494792938232421875</LongitudeDegrees>
            </Position>
            <AltitudeMeters>37.200000762939453125</AltitudeMeters>
            <DistanceMeters>NAN</DistanceMeters>
          </Trackpoint>
          <Trackpoint>
            <Time>2022-07-08T09:50:16.000Z</Time>
            <Position>
              <LatitudeDegrees>43.42418367974460124969482421875</LatitudeDegrees>
              <LongitudeDegrees>-1.6145927645266056060791015625</LongitudeDegrees>
            </Position>
            <AltitudeMeters>37.40000152587890625</AltitudeMeters>
            <DistanceMeters>NAN</DistanceMeters>
          </Trackpoint>
          <Trackpoint>
            <Time>2022-07-08T09:50:19.000Z</Time>
            <Position>
              <LatitudeDegrees>43.42415786348283290863037109375</LatitudeDegrees>
              <LongitudeDegrees>-1.61463626660406589508056640625</LongitudeDegrees>
            </Position>
            <AltitudeMeters>37.799999237060546875</AltitudeMeters>
            <DistanceMeters>NAN</DistanceMeters>
          </Trackpoint>
          <Trackpoint>
            <Time>2022-07-08T09:50:21.000Z</Time>
            <Position>
              <LatitudeDegrees>43.4241416864097118377685546875</LatitudeDegrees>
              <LongitudeDegrees>-1.61466929130256175994873046875</LongitudeDegrees>
            </Position>
            <AltitudeMeters>38</AltitudeMeters>
            <DistanceMeters>NAN</DistanceMeters>
          </Trackpoint>
          <Trackpoint>
            <Time>2022-07-08T09:50:23.000Z</Time>
            <Position>
              <LatitudeDegrees>43.42412131838500499725341796875</LatitudeDegrees>
              <LongitudeDegrees>-1.6147030703723430633544921875</LongitudeDegrees>
            </Position>
            <AltitudeMeters>38.200000762939453125</AltitudeMeters>
            <DistanceMeters>NAN</DistanceMeters>
          </Trackpoint>
          <Trackpoint>
            <Time>2022-07-08T09:50:27.000Z</Time>
            <Position>
              <LatitudeDegrees>43.42410069890320301055908203125</LatitudeDegrees>
              <LongitudeDegrees>-1.6147674433887004852294921875</LongitudeDegrees>
            </Position>
            <AltitudeMeters>38.59999847412109375</AltitudeMeters>
            <DistanceMeters>NAN</DistanceMeters>
          </Trackpoint>
          <Trackpoint>
            <Time>2022-07-08T09:50:29.000Z</Time>
            <Position>
              <LatitudeDegrees>43.42408678494393825531005859375</LatitudeDegrees>
              <LongitudeDegrees>-1.6148190759122371673583984375</LongitudeDegrees>
            </Position>
            <AltitudeMeters>39</AltitudeMeters>
            <DistanceMeters>NAN</DistanceMeters>
          </Trackpoint>
          <Trackpoint>
            <Time>2022-07-08T09:50:32.000Z</Time>
            <Position>
              <LatitudeDegrees>43.42406851239502429962158203125</LatitudeDegrees>
              <LongitudeDegrees>-1.6148754023015499114990234375</LongitudeDegrees>
            </Position>
            <AltitudeMeters>39.40000152587890625</AltitudeMeters>
            <DistanceMeters>NAN</DistanceMeters>
          </Trackpoint>
          <Trackpoint>
            <Time>2022-07-08T09:50:39.000Z</Time>
            <Position>
              <LatitudeDegrees>43.4239943325519561767578125</LatitudeDegrees>
              <LongitudeDegrees>-1.615020744502544403076171875</LongitudeDegrees>
            </Position>
            <AltitudeMeters>40</AltitudeMeters>
            <DistanceMeters>NAN</DistanceMeters>
          </Trackpoint>
          <Trackpoint>
            <Time>2022-07-08T09:50:41.000Z</Time>
            <Position>
              <LatitudeDegrees>43.423969857394695281982421875</LatitudeDegrees>
              <LongitudeDegrees>-1.6150621511042118072509765625</LongitudeDegrees>
            </Position>
            <AltitudeMeters>40</AltitudeMeters>
            <DistanceMeters>NAN</DistanceMeters>
          </Trackpoint>
          <Trackpoint>
            <Time>2022-07-08T09:50:46.000Z</Time>
            <Position>
              <LatitudeDegrees>43.42389064840972423553466796875</LatitudeDegrees>
              <LongitudeDegrees>-1.615203805267810821533203125</LongitudeDegrees>
            </Position>
            <AltitudeMeters>40</AltitudeMeters>
            <DistanceMeters>NAN</DistanceMeters>
          </Trackpoint>
          <Trackpoint>
            <Time>2022-07-08T09:50:50.000Z</Time>
            <Position>
              <LatitudeDegrees>43.42382946051657199859619140625</LatitudeDegrees>
              <LongitudeDegrees>-1.61530447192490100860595703125</LongitudeDegrees>
            </Position>
            <AltitudeMeters>40</AltitudeMeters>
            <DistanceMeters>NAN</DistanceMeters>
          </Trackpoint>
          <Trackpoint>
            <Time>2022-07-08T09:50:53.000Z</Time>
            <Position>
              <LatitudeDegrees>43.42376927845180034637451171875</LatitudeDegrees>
              <LongitudeDegrees>-1.61539784632623195648193359375</LongitudeDegrees>
            </Position>
            <AltitudeMeters>39.799999237060546875</AltitudeMeters>
            <DistanceMeters>NAN</DistanceMeters>
          </Trackpoint>
          <Trackpoint>
            <Time>2022-07-08T09:50:57.000Z</Time>
            <Position>
              <LatitudeDegrees>43.423686884343624114990234375</LatitudeDegrees>
              <LongitudeDegrees>-1.6155063919723033905029296875</LongitudeDegrees>
            </Position>
            <AltitudeMeters>39.799999237060546875</AltitudeMeters>
            <DistanceMeters>NAN</DistanceMeters>
          </Trackpoint>
          <Trackpoint>
            <Time>2022-07-08T09:51:02.000Z</Time>
            <Position>
              <LatitudeDegrees>43.42353508807718753814697265625</LatitudeDegrees>
              <LongitudeDegrees>-1.61565667949616909027099609375</LongitudeDegrees>
            </Position>
            <AltitudeMeters>39.200000762939453125</AltitudeMeters>
            <DistanceMeters>NAN</DistanceMeters>
          </Trackpoint>
          <Trackpoint>
            <Time>2022-07-08T09:51:04.000Z</Time>
            <Position>
              <LatitudeDegrees>43.42346903868019580841064453125</LatitudeDegrees>
              <LongitudeDegrees>-1.6157373972237110137939453125</LongitudeDegrees>
            </Position>
            <AltitudeMeters>39</AltitudeMeters>
            <DistanceMeters>NAN</DistanceMeters>
          </Trackpoint>
          <Trackpoint>
            <Time>2022-07-08T09:51:05.000Z</Time>
            <Position>
              <LatitudeDegrees>43.42343752272427082061767578125</LatitudeDegrees>
              <LongitudeDegrees>-1.615776456892490386962890625</LongitudeDegrees>
            </Position>
            <AltitudeMeters>38.799999237060546875</AltitudeMeters>
            <DistanceMeters>NAN</DistanceMeters>
          </Trackpoint>
          <Trackpoint>
            <Time>2022-07-08T09:51:08.000Z</Time>
            <Position>
              <LatitudeDegrees>43.4233601577579975128173828125</LatitudeDegrees>
              <LongitudeDegrees>-1.6159050352871417999267578125</LongitudeDegrees>
            </Position>
            <AltitudeMeters>38</AltitudeMeters>
            <DistanceMeters>NAN</DistanceMeters>
          </Trackpoint>
          <Trackpoint>
            <Time>2022-07-08T09:51:11.000Z</Time>
            <Position>
              <LatitudeDegrees>43.42334297485649585723876953125</LatitudeDegrees>
              <LongitudeDegrees>-1.6161129064857959747314453125</LongitudeDegrees>
            </Position>
            <AltitudeMeters>37</AltitudeMeters>
            <DistanceMeters>NAN</DistanceMeters>
          </Trackpoint>
          <Trackpoint>
            <Time>2022-07-08T09:51:12.000Z</Time>
            <Position>
              <LatitudeDegrees>43.42334364540874958038330078125</LatitudeDegrees>
              <LongitudeDegrees>-1.6162010841071605682373046875</LongitudeDegrees>
            </Position>
            <AltitudeMeters>37</AltitudeMeters>
            <DistanceMeters>NAN</DistanceMeters>
          </Trackpoint>
          <Trackpoint>
            <Time>2022-07-08T09:51:15.000Z</Time>
            <Position>
              <LatitudeDegrees>43.42333124019205570220947265625</LatitudeDegrees>
              <LongitudeDegrees>-1.6164045967161655426025390625</LongitudeDegrees>
            </Position>
            <AltitudeMeters>35.799999237060546875</AltitudeMeters>
            <DistanceMeters>NAN</DistanceMeters>
          </Trackpoint>
          <Trackpoint>
            <Time>2022-07-08T09:51:17.000Z</Time>
            <Position>
              <LatitudeDegrees>43.42329083941876888275146484375</LatitudeDegrees>
              <LongitudeDegrees>-1.6166047565639019012451171875</LongitudeDegrees>
            </Position>
            <AltitudeMeters>34.59999847412109375</AltitudeMeters>
            <DistanceMeters>NAN</DistanceMeters>
          </Trackpoint>
          <Trackpoint>
            <Time>2022-07-08T09:51:19.000Z</Time>
            <Position>
              <LatitudeDegrees>43.4232320822775363922119140625</LatitudeDegrees>
              <LongitudeDegrees>-1.61680835299193859100341796875</LongitudeDegrees>
            </Position>
            <AltitudeMeters>33.59999847412109375</AltitudeMeters>
            <DistanceMeters>NAN</DistanceMeters>
          </Trackpoint>
          <Trackpoint>
            <Time>2022-07-08T09:51:21.000Z</Time>
            <Position>
              <LatitudeDegrees>43.4231623448431491851806640625</LatitudeDegrees>
              <LongitudeDegrees>-1.617048494517803192138671875</LongitudeDegrees>
            </Position>
            <AltitudeMeters>32.40000152587890625</AltitudeMeters>
            <DistanceMeters>NAN</DistanceMeters>
          </Trackpoint>
          <Trackpoint>
            <Time>2022-07-08T09:51:22.000Z</Time>
            <Position>
              <LatitudeDegrees>43.42312186025083065032958984375</LatitudeDegrees>
              <LongitudeDegrees>-1.617181934416294097900390625</LongitudeDegrees>
            </Position>
            <AltitudeMeters>31.799999237060546875</AltitudeMeters>
            <DistanceMeters>NAN</DistanceMeters>
          </Trackpoint>
          <Trackpoint>
            <Time>2022-07-08T09:51:23.000Z</Time>
            <Position>
              <LatitudeDegrees>43.42308598570525646209716796875</LatitudeDegrees>
              <LongitudeDegrees>-1.61728955805301666259765625</LongitudeDegrees>
            </Position>
            <AltitudeMeters>31.200000762939453125</AltitudeMeters>
            <DistanceMeters>NAN</DistanceMeters>
          </Trackpoint>
          <Trackpoint>
            <Time>2022-07-08T09:51:25.000Z</Time>
            <Position>
              <LatitudeDegrees>43.4229983948171138763427734375</LatitudeDegrees>
              <LongitudeDegrees>-1.61747437901794910430908203125</LongitudeDegrees>
            </Position>
            <AltitudeMeters>29.6000003814697265625</AltitudeMeters>
            <DistanceMeters>NAN</DistanceMeters>
          </Trackpoint>
          <Trackpoint>
            <Time>2022-07-08T09:51:27.000Z</Time>
            <Position>
              <LatitudeDegrees>43.422909043729305267333984375</LatitudeDegrees>
              <LongitudeDegrees>-1.61768979392945766448974609375</LongitudeDegrees>
            </Position>
            <AltitudeMeters>28</AltitudeMeters>
            <DistanceMeters>NAN</DistanceMeters>
          </Trackpoint>
          <Trackpoint>
            <Time>2022-07-08T09:51:28.000Z</Time>
            <Position>
              <LatitudeDegrees>43.422879874706268310546875</LatitudeDegrees>
              <LongitudeDegrees>-1.6177909635007381439208984375</LongitudeDegrees>
            </Position>
            <AltitudeMeters>27.200000762939453125</AltitudeMeters>
            <DistanceMeters>NAN</DistanceMeters>
          </Trackpoint>
          <Trackpoint>
            <Time>2022-07-08T09:51:29.000Z</Time>
            <Position>
              <LatitudeDegrees>43.4228468500077724456787109375</LatitudeDegrees>
              <LongitudeDegrees>-1.617892719805240631103515625</LongitudeDegrees>
            </Position>
            <AltitudeMeters>26.6000003814697265625</AltitudeMeters>
            <DistanceMeters>NAN</DistanceMeters>
          </Trackpoint>
          <Trackpoint>
            <Time>2022-07-08T09:51:30.000Z</Time>
            <Position>
              <LatitudeDegrees>43.4228196926414966583251953125</LatitudeDegrees>
              <LongitudeDegrees>-1.61799254827201366424560546875</LongitudeDegrees>
            </Position>
            <AltitudeMeters>25.6000003814697265625</AltitudeMeters>
            <DistanceMeters>NAN</DistanceMeters>
          </Trackpoint>
          <Trackpoint>
            <Time>2022-07-08T09:51:31.000Z</Time>
            <Position>
              <LatitudeDegrees>43.4227980673313140869140625</LatitudeDegrees>
              <LongitudeDegrees>-1.61808206699788570404052734375</LongitudeDegrees>
            </Position>
            <AltitudeMeters>24.799999237060546875</AltitudeMeters>
            <DistanceMeters>NAN</DistanceMeters>
          </Trackpoint>
          <Trackpoint>
            <Time>2022-07-08T09:51:33.000Z</Time>
            <Position>
              <LatitudeDegrees>43.42276990413665771484375</LatitudeDegrees>
              <LongitudeDegrees>-1.618218608200550079345703125</LongitudeDegrees>
            </Position>
            <AltitudeMeters>23</AltitudeMeters>
            <DistanceMeters>NAN</DistanceMeters>
          </Trackpoint>
          <Trackpoint>
            <Time>2022-07-08T09:51:34.000Z</Time>
            <Position>
              <LatitudeDegrees>43.42276931740343570709228515625</LatitudeDegrees>
              <LongitudeDegrees>-1.6182281635701656341552734375</LongitudeDegrees>
            </Position>
            <AltitudeMeters>21.799999237060546875</AltitudeMeters>
            <DistanceMeters>NAN</DistanceMeters>
          </Trackpoint>
          <Trackpoint>
            <Time>2022-07-08T09:51:36.000Z</Time>
            <Position>
              <LatitudeDegrees>43.42276931740343570709228515625</LatitudeDegrees>
              <LongitudeDegrees>-1.6182281635701656341552734375</LongitudeDegrees>
            </Position>
            <AltitudeMeters>20.200000762939453125</AltitudeMeters>
            <DistanceMeters>NAN</DistanceMeters>
          </Trackpoint>
          <Trackpoint>
            <Time>2022-07-08T09:51:51.000Z</Time>
            <Position>
              <LatitudeDegrees>43.4227238036692142486572265625</LatitudeDegrees>
              <LongitudeDegrees>-1.6181674785912036895751953125</LongitudeDegrees>
            </Position>
            <AltitudeMeters>19.6000003814697265625</AltitudeMeters>
            <DistanceMeters>NAN</DistanceMeters>
          </Trackpoint>
          <Trackpoint>
            <Time>2022-07-08T09:51:52.000Z</Time>
            <Position>
              <LatitudeDegrees>43.4227122366428375244140625</LatitudeDegrees>
              <LongitudeDegrees>-1.61816052161157131195068359375</LongitudeDegrees>
            </Position>
            <AltitudeMeters>19.6000003814697265625</AltitudeMeters>
            <DistanceMeters>NAN</DistanceMeters>
          </Trackpoint>
          <Trackpoint>
            <Time>2022-07-08T09:51:56.000Z</Time>
            <Position>
              <LatitudeDegrees>43.42270695604383945465087890625</LatitudeDegrees>
              <LongitudeDegrees>-1.61812372505664825439453125</LongitudeDegrees>
            </Position>
            <AltitudeMeters>20.799999237060546875</AltitudeMeters>
            <DistanceMeters>NAN</DistanceMeters>
          </Trackpoint>
          <Trackpoint>
            <Time>2022-07-08T09:51:57.000Z</Time>
            <Position>
              <LatitudeDegrees>43.42270427383482456207275390625</LatitudeDegrees>
              <LongitudeDegrees>-1.6181158460676670074462890625</LongitudeDegrees>
            </Position>
            <AltitudeMeters>21</AltitudeMeters>
            <DistanceMeters>NAN</DistanceMeters>
          </Trackpoint>
          <Trackpoint>
            <Time>2022-07-08T09:51:58.000Z</Time>
            <Position>
              <LatitudeDegrees>43.422701172530651092529296875</LatitudeDegrees>
              <LongitudeDegrees>-1.6181077994406223297119140625</LongitudeDegrees>
            </Position>
            <AltitudeMeters>21.200000762939453125</AltitudeMeters>
            <DistanceMeters>NAN</DistanceMeters>
          </Trackpoint>
          <Trackpoint>
            <Time>2022-07-08T09:52:01.000Z</Time>
            <Position>
              <LatitudeDegrees>43.422687090933322906494140625</LatitudeDegrees>
              <LongitudeDegrees>-1.6180960647761821746826171875</LongitudeDegrees>
            </Position>
            <AltitudeMeters>21.200000762939453125</AltitudeMeters>
            <DistanceMeters>NAN</DistanceMeters>
          </Trackpoint>
          <Trackpoint>
            <Time>2022-07-08T09:52:04.000Z</Time>
            <Position>
              <LatitudeDegrees>43.4226818941533565521240234375</LatitudeDegrees>
              <LongitudeDegrees>-1.61809279583394527435302734375</LongitudeDegrees>
            </Position>
            <AltitudeMeters>21.200000762939453125</AltitudeMeters>
            <DistanceMeters>NAN</DistanceMeters>
          </Trackpoint>
          <Trackpoint>
            <Time>2022-07-08T09:52:20.000Z</Time>
            <Position>
              <LatitudeDegrees>43.42265029437839984893798828125</LatitudeDegrees>
              <LongitudeDegrees>-1.61811291240155696868896484375</LongitudeDegrees>
            </Position>
            <AltitudeMeters>21.200000762939453125</AltitudeMeters>
            <DistanceMeters>NAN</DistanceMeters>
          </Trackpoint>
          <Trackpoint>
            <Time>2022-07-08T09:52:21.000Z</Time>
            <Position>
              <LatitudeDegrees>43.42263738624751567840576171875</LatitudeDegrees>
              <LongitudeDegrees>-1.61812305450439453125</LongitudeDegrees>
            </Position>
            <AltitudeMeters>21.200000762939453125</AltitudeMeters>
            <DistanceMeters>NAN</DistanceMeters>
          </Trackpoint>
          <Trackpoint>
            <Time>2022-07-08T09:52:27.000Z</Time>
            <Position>
              <LatitudeDegrees>43.42254485003650188446044921875</LatitudeDegrees>
              <LongitudeDegrees>-1.61827258765697479248046875</LongitudeDegrees>
            </Position>
            <AltitudeMeters>21.200000762939453125</AltitudeMeters>
            <DistanceMeters>NAN</DistanceMeters>
          </Trackpoint>
          <Trackpoint>
            <Time>2022-07-08T09:52:33.000Z</Time>
            <Position>
              <LatitudeDegrees>43.42246253974735736846923828125</LatitudeDegrees>
              <LongitudeDegrees>-1.61836302839219570159912109375</LongitudeDegrees>
            </Position>
            <AltitudeMeters>21.200000762939453125</AltitudeMeters>
            <DistanceMeters>NAN</DistanceMeters>
          </Trackpoint>
          <Trackpoint>
            <Time>2022-07-08T09:52:35.000Z</Time>
            <Position>
              <LatitudeDegrees>43.4224324487149715423583984375</LatitudeDegrees>
              <LongitudeDegrees>-1.618366800248622894287109375</LongitudeDegrees>
            </Position>
            <AltitudeMeters>21</AltitudeMeters>
            <DistanceMeters>NAN</DistanceMeters>
          </Trackpoint>
          <Trackpoint>
            <Time>2022-07-08T09:52:37.000Z</Time>
            <Position>
              <LatitudeDegrees>43.42241023667156696319580078125</LatitudeDegrees>
              <LongitudeDegrees>-1.61835095845162868499755859375</LongitudeDegrees>
            </Position>
            <AltitudeMeters>21</AltitudeMeters>
            <DistanceMeters>NAN</DistanceMeters>
          </Trackpoint>
          <Trackpoint>
            <Time>2022-07-08T09:52:45.000Z</Time>
            <Position>
              <LatitudeDegrees>43.4223151020705699920654296875</LatitudeDegrees>
              <LongitudeDegrees>-1.61818516440689563751220703125</LongitudeDegrees>
            </Position>
            <AltitudeMeters>21.3999996185302734375</AltitudeMeters>
            <DistanceMeters>NAN</DistanceMeters>
          </Trackpoint>
          <Trackpoint>
            <Time>2022-07-08T09:52:51.000Z</Time>
            <Position>
              <LatitudeDegrees>43.4222758747637271881103515625</LatitudeDegrees>
              <LongitudeDegrees>-1.6180561669170856475830078125</LongitudeDegrees>
            </Position>
            <AltitudeMeters>21.6000003814697265625</AltitudeMeters>
            <DistanceMeters>NAN</DistanceMeters>
          </Trackpoint>
          <Trackpoint>
            <Time>2022-07-08T09:52:52.000Z</Time>
            <Position>
              <LatitudeDegrees>43.422272019088268280029296875</LatitudeDegrees>
              <LongitudeDegrees>-1.61803160794079303741455078125</LongitudeDegrees>
            </Position>
            <AltitudeMeters>21.799999237060546875</AltitudeMeters>
            <DistanceMeters>NAN</DistanceMeters>
          </Trackpoint>
          <Trackpoint>
            <Time>2022-07-08T09:52:56.000Z</Time>
            <Position>
              <LatitudeDegrees>43.4222440235316753387451171875</LatitudeDegrees>
              <LongitudeDegrees>-1.61796136759221553802490234375</LongitudeDegrees>
            </Position>
            <AltitudeMeters>22.3999996185302734375</AltitudeMeters>
            <DistanceMeters>NAN</DistanceMeters>
          </Trackpoint>
          <Trackpoint>
            <Time>2022-07-08T09:53:00.000Z</Time>
            <Position>
              <LatitudeDegrees>43.42221912927925586700439453125</LatitudeDegrees>
              <LongitudeDegrees>-1.617892719805240631103515625</LongitudeDegrees>
            </Position>
            <AltitudeMeters>22.799999237060546875</AltitudeMeters>
            <DistanceMeters>NAN</DistanceMeters>
          </Trackpoint>
          <Trackpoint>
            <Time>2022-07-08T09:53:01.000Z</Time>
            <Position>
              <LatitudeDegrees>43.42220856808125972747802734375</LatitudeDegrees>
              <LongitudeDegrees>-1.6178774647414684295654296875</LongitudeDegrees>
            </Position>
            <AltitudeMeters>22.799999237060546875</AltitudeMeters>
            <DistanceMeters>NAN</DistanceMeters>
          </Trackpoint>
          <Trackpoint>
            <Time>2022-07-08T09:53:02.000Z</Time>
            <Position>
              <LatitudeDegrees>43.422203622758388519287109375</LatitudeDegrees>
              <LongitudeDegrees>-1.61785818636417388916015625</LongitudeDegrees>
            </Position>
            <AltitudeMeters>22.799999237060546875</AltitudeMeters>
            <DistanceMeters>NAN</DistanceMeters>
          </Trackpoint>
          <Trackpoint>
            <Time>2022-07-08T09:53:06.000Z</Time>
            <Position>
              <LatitudeDegrees>43.4221876971423625946044921875</LatitudeDegrees>
              <LongitudeDegrees>-1.61777311004698276519775390625</LongitudeDegrees>
            </Position>
            <AltitudeMeters>23.200000762939453125</AltitudeMeters>
            <DistanceMeters>NAN</DistanceMeters>
          </Trackpoint>
          <Trackpoint>
            <Time>2022-07-08T09:53:07.000Z</Time>
            <Position>
              <LatitudeDegrees>43.4221793152391910552978515625</LatitudeDegrees>
              <LongitudeDegrees>-1.617755927145481109619140625</LongitudeDegrees>
            </Position>
            <AltitudeMeters>23.3999996185302734375</AltitudeMeters>
            <DistanceMeters>NAN</DistanceMeters>
          </Trackpoint>
          <Trackpoint>
            <Time>2022-07-08T09:53:14.000Z</Time>
            <Position>
              <LatitudeDegrees>43.42211209237575531005859375</LatitudeDegrees>
              <LongitudeDegrees>-1.6176273487508296966552734375</LongitudeDegrees>
            </Position>
            <AltitudeMeters>23.799999237060546875</AltitudeMeters>
            <DistanceMeters>NAN</DistanceMeters>
          </Trackpoint>
          <Trackpoint>
            <Time>2022-07-08T09:53:20.000Z</Time>
            <Position>
              <LatitudeDegrees>43.42205199413001537322998046875</LatitudeDegrees>
              <LongitudeDegrees>-1.61755199544131755828857421875</LongitudeDegrees>
            </Position>
            <AltitudeMeters>24.200000762939453125</AltitudeMeters>
            <DistanceMeters>NAN</DistanceMeters>
          </Trackpoint>
          <Trackpoint>
            <Time>2022-07-08T09:53:23.000Z</Time>
            <Position>
              <LatitudeDegrees>43.42203355394303798675537109375</LatitudeDegrees>
              <LongitudeDegrees>-1.61749684251844882965087890625</LongitudeDegrees>
            </Position>
            <AltitudeMeters>24.3999996185302734375</AltitudeMeters>
            <DistanceMeters>NAN</DistanceMeters>
          </Trackpoint>
          <Trackpoint>
            <Time>2022-07-08T09:53:27.000Z</Time>
            <Position>
              <LatitudeDegrees>43.42201041989028453826904296875</LatitudeDegrees>
              <LongitudeDegrees>-1.617433726787567138671875</LongitudeDegrees>
            </Position>
            <AltitudeMeters>24.799999237060546875</AltitudeMeters>
            <DistanceMeters>NAN</DistanceMeters>
          </Trackpoint>
          <Trackpoint>
            <Time>2022-07-08T09:53:29.000Z</Time>
            <Position>
              <LatitudeDegrees>43.4219918958842754364013671875</LatitudeDegrees>
              <LongitudeDegrees>-1.61740363575518131256103515625</LongitudeDegrees>
            </Position>
            <AltitudeMeters>25</AltitudeMeters>
            <DistanceMeters>NAN</DistanceMeters>
          </Trackpoint>
          <Trackpoint>
            <Time>2022-07-08T09:53:32.000Z</Time>
            <Position>
              <LatitudeDegrees>43.4219496510922908782958984375</LatitudeDegrees>
              <LongitudeDegrees>-1.61738636903464794158935546875</LongitudeDegrees>
            </Position>
            <AltitudeMeters>25.3999996185302734375</AltitudeMeters>
            <DistanceMeters>NAN</DistanceMeters>
          </Trackpoint>
          <Trackpoint>
            <Time>2022-07-08T09:53:33.000Z</Time>
            <Position>
              <LatitudeDegrees>43.4219402633607387542724609375</LatitudeDegrees>
              <LongitudeDegrees>-1.61738469265401363372802734375</LongitudeDegrees>
            </Position>
            <AltitudeMeters>25.3999996185302734375</AltitudeMeters>
            <DistanceMeters>NAN</DistanceMeters>
          </Trackpoint>
          <Trackpoint>
            <Time>2022-07-08T09:53:34.000Z</Time>
            <Position>
              <LatitudeDegrees>43.4219345636665821075439453125</LatitudeDegrees>
              <LongitudeDegrees>-1.617387123405933380126953125</LongitudeDegrees>
            </Position>
            <AltitudeMeters>25.6000003814697265625</AltitudeMeters>
            <DistanceMeters>NAN</DistanceMeters>
          </Trackpoint>
          <Trackpoint>
            <Time>2022-07-08T09:53:37.000Z</Time>
            <Position>
              <LatitudeDegrees>43.4219278581440448760986328125</LatitudeDegrees>
              <LongitudeDegrees>-1.6174271889030933380126953125</LongitudeDegrees>
            </Position>
            <AltitudeMeters>26</AltitudeMeters>
            <DistanceMeters>NAN</DistanceMeters>
          </Trackpoint>
          <Trackpoint>
            <Time>2022-07-08T09:53:40.000Z</Time>
            <Position>
              <LatitudeDegrees>43.4219291992485523223876953125</LatitudeDegrees>
              <LongitudeDegrees>-1.6174617223441600799560546875</LongitudeDegrees>
            </Position>
            <AltitudeMeters>26.3999996185302734375</AltitudeMeters>
            <DistanceMeters>NAN</DistanceMeters>
          </Trackpoint>
          <Trackpoint>
            <Time>2022-07-08T09:53:41.000Z</Time>
            <Position>
              <LatitudeDegrees>43.42192861251533031463623046875</LatitudeDegrees>
              <LongitudeDegrees>-1.6174657456576824188232421875</LongitudeDegrees>
            </Position>
            <AltitudeMeters>26.3999996185302734375</AltitudeMeters>
            <DistanceMeters>NAN</DistanceMeters>
          </Trackpoint>
          <Trackpoint>
            <Time>2022-07-08T09:53:42.000Z</Time>
            <Position>
              <LatitudeDegrees>43.42193146236240863800048828125</LatitudeDegrees>
              <LongitudeDegrees>-1.61746197380125522613525390625</LongitudeDegrees>
            </Position>
            <AltitudeMeters>26.3999996185302734375</AltitudeMeters>
            <DistanceMeters>NAN</DistanceMeters>
          </Trackpoint>
          <Trackpoint>
            <Time>2022-07-08T09:53:43.000Z</Time>
            <Position>
              <LatitudeDegrees>43.421934060752391815185546875</LatitudeDegrees>
              <LongitudeDegrees>-1.617461554706096649169921875</LongitudeDegrees>
            </Position>
            <AltitudeMeters>26.3999996185302734375</AltitudeMeters>
            <DistanceMeters>NAN</DistanceMeters>
          </Trackpoint>
          <Trackpoint>
            <Time>2022-07-08T09:53:44.000Z</Time>
            <Position>
              <LatitudeDegrees>43.421934060752391815185546875</LatitudeDegrees>
              <LongitudeDegrees>-1.617461554706096649169921875</LongitudeDegrees>
            </Position>
            <AltitudeMeters>26.3999996185302734375</AltitudeMeters>
            <DistanceMeters>NAN</DistanceMeters>
          </Trackpoint>
          <Trackpoint>
            <Time>2022-07-08T09:55:18.000Z</Time>
            <Position>
              <LatitudeDegrees>43.42202181927859783172607421875</LatitudeDegrees>
              <LongitudeDegrees>-1.6174191422760486602783203125</LongitudeDegrees>
            </Position>
            <AltitudeMeters>23.799999237060546875</AltitudeMeters>
            <DistanceMeters>NAN</DistanceMeters>
          </Trackpoint>
          <Trackpoint>
            <Time>2022-07-08T09:55:19.000Z</Time>
            <Position>
              <LatitudeDegrees>43.422011174261569976806640625</LatitudeDegrees>
              <LongitudeDegrees>-1.61740262992680072784423828125</LongitudeDegrees>
            </Position>
            <AltitudeMeters>24</AltitudeMeters>
            <DistanceMeters>NAN</DistanceMeters>
          </Trackpoint>
          <Trackpoint>
            <Time>2022-07-08T09:55:20.000Z</Time>
            <Position>
              <LatitudeDegrees>43.42200036160647869110107421875</LatitudeDegrees>
              <LongitudeDegrees>-1.6173921525478363037109375</LongitudeDegrees>
            </Position>
            <AltitudeMeters>24</AltitudeMeters>
            <DistanceMeters>NAN</DistanceMeters>
          </Trackpoint>
          <Trackpoint>
            <Time>2022-07-08T09:55:24.000Z</Time>
            <Position>
              <LatitudeDegrees>43.42193649150431156158447265625</LatitudeDegrees>
              <LongitudeDegrees>-1.6173852793872356414794921875</LongitudeDegrees>
            </Position>
            <AltitudeMeters>24.799999237060546875</AltitudeMeters>
            <DistanceMeters>NAN</DistanceMeters>
          </Trackpoint>
          <Trackpoint>
            <Time>2022-07-08T09:55:25.000Z</Time>
            <Position>
              <LatitudeDegrees>43.42192777432501316070556640625</LatitudeDegrees>
              <LongitudeDegrees>-1.617400534451007843017578125</LongitudeDegrees>
            </Position>
            <AltitudeMeters>25</AltitudeMeters>
            <DistanceMeters>NAN</DistanceMeters>
          </Trackpoint>
          <Trackpoint>
            <Time>2022-07-08T09:55:26.000Z</Time>
            <Position>
              <LatitudeDegrees>43.421923331916332244873046875</LatitudeDegrees>
              <LongitudeDegrees>-1.61741537041962146759033203125</LongitudeDegrees>
            </Position>
            <AltitudeMeters>25.200000762939453125</AltitudeMeters>
            <DistanceMeters>NAN</DistanceMeters>
          </Trackpoint>
          <Trackpoint>
            <Time>2022-07-08T09:55:30.000Z</Time>
            <Position>
              <LatitudeDegrees>43.42192391864955425262451171875</LatitudeDegrees>
              <LongitudeDegrees>-1.617482006549835205078125</LongitudeDegrees>
            </Position>
            <AltitudeMeters>25.799999237060546875</AltitudeMeters>
            <DistanceMeters>NAN</DistanceMeters>
          </Trackpoint>
          <Trackpoint>
            <Time>2022-07-08T09:55:31.000Z</Time>
            <Position>
              <LatitudeDegrees>43.42192308045923709869384765625</LatitudeDegrees>
              <LongitudeDegrees>-1.6174942441284656524658203125</LongitudeDegrees>
            </Position>
            <AltitudeMeters>25.799999237060546875</AltitudeMeters>
            <DistanceMeters>NAN</DistanceMeters>
          </Trackpoint>
          <Trackpoint>
            <Time>2022-07-08T09:55:32.000Z</Time>
            <Position>
              <LatitudeDegrees>43.42192140407860279083251953125</LatitudeDegrees>
              <LongitudeDegrees>-1.6175079904496669769287109375</LongitudeDegrees>
            </Position>
            <AltitudeMeters>26.200000762939453125</AltitudeMeters>
            <DistanceMeters>NAN</DistanceMeters>
          </Trackpoint>
          <Trackpoint>
            <Time>2022-07-08T09:55:33.000Z</Time>
            <Position>
              <LatitudeDegrees>43.42192090116441249847412109375</LatitudeDegrees>
              <LongitudeDegrees>-1.6175247542560100555419921875</LongitudeDegrees>
            </Position>
            <AltitudeMeters>26.3999996185302734375</AltitudeMeters>
            <DistanceMeters>NAN</DistanceMeters>
          </Trackpoint>
          <Trackpoint>
            <Time>2022-07-08T09:55:37.000Z</Time>
            <Position>
              <LatitudeDegrees>43.42191855423152446746826171875</LatitudeDegrees>
              <LongitudeDegrees>-1.6175730340182781219482421875</LongitudeDegrees>
            </Position>
            <AltitudeMeters>27.3999996185302734375</AltitudeMeters>
            <DistanceMeters>NAN</DistanceMeters>
          </Trackpoint>
          <Trackpoint>
            <Time>2022-07-08T09:55:41.000Z</Time>
            <Position>
              <LatitudeDegrees>43.42192643322050571441650390625</LatitudeDegrees>
              <LongitudeDegrees>-1.61764570511877536773681640625</LongitudeDegrees>
            </Position>
            <AltitudeMeters>28.3999996185302734375</AltitudeMeters>
            <DistanceMeters>NAN</DistanceMeters>
          </Trackpoint>
          <Trackpoint>
            <Time>2022-07-08T09:55:44.000Z</Time>
            <Position>
              <LatitudeDegrees>43.421920649707317352294921875</LatitudeDegrees>
              <LongitudeDegrees>-1.61769096739590167999267578125</LongitudeDegrees>
            </Position>
            <AltitudeMeters>29.3999996185302734375</AltitudeMeters>
            <DistanceMeters>NAN</DistanceMeters>
          </Trackpoint>
          <Trackpoint>
            <Time>2022-07-08T09:55:45.000Z</Time>
            <Position>
              <LatitudeDegrees>43.42191763222217559814453125</LatitudeDegrees>
              <LongitudeDegrees>-1.61770152859389781951904296875</LongitudeDegrees>
            </Position>
            <AltitudeMeters>29.6000003814697265625</AltitudeMeters>
            <DistanceMeters>NAN</DistanceMeters>
          </Trackpoint>
          <Trackpoint>
            <Time>2022-07-08T09:55:49.000Z</Time>
            <Position>
              <LatitudeDegrees>43.42190816067159175872802734375</LatitudeDegrees>
              <LongitudeDegrees>-1.61776942200958728790283203125</LongitudeDegrees>
            </Position>
            <AltitudeMeters>30.6000003814697265625</AltitudeMeters>
            <DistanceMeters>NAN</DistanceMeters>
          </Trackpoint>
          <Trackpoint>
            <Time>2022-07-08T09:55:53.000Z</Time>
            <Position>
              <LatitudeDegrees>43.42189759947359561920166015625</LatitudeDegrees>
              <LongitudeDegrees>-1.617828346788883209228515625</LongitudeDegrees>
            </Position>
            <AltitudeMeters>31.799999237060546875</AltitudeMeters>
            <DistanceMeters>NAN</DistanceMeters>
          </Trackpoint>
          <Trackpoint>
            <Time>2022-07-08T09:55:57.000Z</Time>
            <Position>
              <LatitudeDegrees>43.42187178321182727813720703125</LatitudeDegrees>
              <LongitudeDegrees>-1.61788341589272022247314453125</LongitudeDegrees>
            </Position>
            <AltitudeMeters>32.799999237060546875</AltitudeMeters>
            <DistanceMeters>NAN</DistanceMeters>
          </Trackpoint>
          <Trackpoint>
            <Time>2022-07-08T09:56:01.000Z</Time>
            <Position>
              <LatitudeDegrees>43.42184613458812236785888671875</LatitudeDegrees>
              <LongitudeDegrees>-1.6179545782506465911865234375</LongitudeDegrees>
            </Position>
            <AltitudeMeters>34</AltitudeMeters>
            <DistanceMeters>NAN</DistanceMeters>
          </Trackpoint>
          <Trackpoint>
            <Time>2022-07-08T09:56:04.000Z</Time>
            <Position>
              <LatitudeDegrees>43.4218351542949676513671875</LatitudeDegrees>
              <LongitudeDegrees>-1.6180072166025638580322265625</LongitudeDegrees>
            </Position>
            <AltitudeMeters>35</AltitudeMeters>
            <DistanceMeters>NAN</DistanceMeters>
          </Trackpoint>
          <Trackpoint>
            <Time>2022-07-08T09:56:05.000Z</Time>
            <Position>
              <LatitudeDegrees>43.42182685621082782745361328125</LatitudeDegrees>
              <LongitudeDegrees>-1.61802020855247974395751953125</LongitudeDegrees>
            </Position>
            <AltitudeMeters>35.200000762939453125</AltitudeMeters>
            <DistanceMeters>NAN</DistanceMeters>
          </Trackpoint>
          <Trackpoint>
            <Time>2022-07-08T09:56:06.000Z</Time>
            <Position>
              <LatitudeDegrees>43.42181503772735595703125</LatitudeDegrees>
              <LongitudeDegrees>-1.61803655326366424560546875</LongitudeDegrees>
            </Position>
            <AltitudeMeters>35.200000762939453125</AltitudeMeters>
            <DistanceMeters>NAN</DistanceMeters>
          </Trackpoint>
          <Trackpoint>
            <Time>2022-07-08T09:56:07.000Z</Time>
            <Position>
              <LatitudeDegrees>43.42180456034839153289794921875</LatitudeDegrees>
              <LongitudeDegrees>-1.6180588491261005401611328125</LongitudeDegrees>
            </Position>
            <AltitudeMeters>35.40000152587890625</AltitudeMeters>
            <DistanceMeters>NAN</DistanceMeters>
          </Trackpoint>
          <Trackpoint>
            <Time>2022-07-08T09:56:10.000Z</Time>
            <Position>
              <LatitudeDegrees>43.4218078292906284332275390625</LatitudeDegrees>
              <LongitudeDegrees>-1.61814250051975250244140625</LongitudeDegrees>
            </Position>
            <AltitudeMeters>35.59999847412109375</AltitudeMeters>
            <DistanceMeters>NAN</DistanceMeters>
          </Trackpoint>
          <Trackpoint>
            <Time>2022-07-08T09:56:17.000Z</Time>
            <Position>
              <LatitudeDegrees>43.42183808796107769012451171875</LatitudeDegrees>
              <LongitudeDegrees>-1.618436872959136962890625</LongitudeDegrees>
            </Position>
            <AltitudeMeters>35.40000152587890625</AltitudeMeters>
            <DistanceMeters>NAN</DistanceMeters>
          </Trackpoint>
          <Trackpoint>
            <Time>2022-07-08T09:56:20.000Z</Time>
            <Position>
              <LatitudeDegrees>43.4218336455523967742919921875</LatitudeDegrees>
              <LongitudeDegrees>-1.61859855987131595611572265625</LongitudeDegrees>
            </Position>
            <AltitudeMeters>34.799999237060546875</AltitudeMeters>
            <DistanceMeters>NAN</DistanceMeters>
          </Trackpoint>
          <Trackpoint>
            <Time>2022-07-08T09:56:21.000Z</Time>
            <Position>
              <LatitudeDegrees>43.42181646265089511871337890625</LatitudeDegrees>
              <LongitudeDegrees>-1.61865823902189731597900390625</LongitudeDegrees>
            </Position>
            <AltitudeMeters>34.59999847412109375</AltitudeMeters>
            <DistanceMeters>NAN</DistanceMeters>
          </Trackpoint>
          <Trackpoint>
            <Time>2022-07-08T09:56:22.000Z</Time>
            <Position>
              <LatitudeDegrees>43.42179550789296627044677734375</LatitudeDegrees>
              <LongitudeDegrees>-1.618715822696685791015625</LongitudeDegrees>
            </Position>
            <AltitudeMeters>34.40000152587890625</AltitudeMeters>
            <DistanceMeters>NAN</DistanceMeters>
          </Trackpoint>
          <Trackpoint>
            <Time>2022-07-08T09:56:24.000Z</Time>
            <Position>
              <LatitudeDegrees>43.42174588702619075775146484375</LatitudeDegrees>
              <LongitudeDegrees>-1.618848256766796112060546875</LongitudeDegrees>
            </Position>
            <AltitudeMeters>34</AltitudeMeters>
            <DistanceMeters>NAN</DistanceMeters>
          </Trackpoint>
          <Trackpoint>
            <Time>2022-07-08T09:56:26.000Z</Time>
            <Position>
              <LatitudeDegrees>43.42168034054338932037353515625</LatitudeDegrees>
              <LongitudeDegrees>-1.61897658370435237884521484375</LongitudeDegrees>
            </Position>
            <AltitudeMeters>33.799999237060546875</AltitudeMeters>
            <DistanceMeters>NAN</DistanceMeters>
          </Trackpoint>
          <Trackpoint>
            <Time>2022-07-08T09:56:27.000Z</Time>
            <Position>
              <LatitudeDegrees>43.42164161615073680877685546875</LatitudeDegrees>
              <LongitudeDegrees>-1.61903626285493373870849609375</LongitudeDegrees>
            </Position>
            <AltitudeMeters>33.799999237060546875</AltitudeMeters>
            <DistanceMeters>NAN</DistanceMeters>
          </Trackpoint>
          <Trackpoint>
            <Time>2022-07-08T09:56:29.000Z</Time>
            <Position>
              <LatitudeDegrees>43.42156316153705120086669921875</LatitudeDegrees>
              <LongitudeDegrees>-1.61914288066327571868896484375</LongitudeDegrees>
            </Position>
            <AltitudeMeters>33.40000152587890625</AltitudeMeters>
            <DistanceMeters>NAN</DistanceMeters>
          </Trackpoint>
          <Trackpoint>
            <Time>2022-07-08T09:56:31.000Z</Time>
            <Position>
              <LatitudeDegrees>43.42148001305758953094482421875</LatitudeDegrees>
              <LongitudeDegrees>-1.61922183819115161895751953125</LongitudeDegrees>
            </Position>
            <AltitudeMeters>33</AltitudeMeters>
            <DistanceMeters>NAN</DistanceMeters>
          </Trackpoint>
          <Trackpoint>
            <Time>2022-07-08T09:56:32.000Z</Time>
            <Position>
              <LatitudeDegrees>43.42143810354173183441162109375</LatitudeDegrees>
              <LongitudeDegrees>-1.6192460618913173675537109375</LongitudeDegrees>
            </Position>
            <AltitudeMeters>32.40000152587890625</AltitudeMeters>
            <DistanceMeters>NAN</DistanceMeters>
          </Trackpoint>
          <Trackpoint>
            <Time>2022-07-08T09:56:34.000Z</Time>
            <Position>
              <LatitudeDegrees>43.4213444776833057403564453125</LatitudeDegrees>
              <LongitudeDegrees>-1.61927497945725917816162109375</LongitudeDegrees>
            </Position>
            <AltitudeMeters>31.799999237060546875</AltitudeMeters>
            <DistanceMeters>NAN</DistanceMeters>
          </Trackpoint>
          <Trackpoint>
            <Time>2022-07-08T09:56:36.000Z</Time>
            <Position>
              <LatitudeDegrees>43.4212398715317249298095703125</LatitudeDegrees>
              <LongitudeDegrees>-1.61929543130099773406982421875</LongitudeDegrees>
            </Position>
            <AltitudeMeters>31.6000003814697265625</AltitudeMeters>
            <DistanceMeters>NAN</DistanceMeters>
          </Trackpoint>
          <Trackpoint>
            <Time>2022-07-08T09:56:37.000Z</Time>
            <Position>
              <LatitudeDegrees>43.4211868979036808013916015625</LatitudeDegrees>
              <LongitudeDegrees>-1.61931152455508708953857421875</LongitudeDegrees>
            </Position>
            <AltitudeMeters>31.200000762939453125</AltitudeMeters>
            <DistanceMeters>NAN</DistanceMeters>
          </Trackpoint>
          <Trackpoint>
            <Time>2022-07-08T09:56:39.000Z</Time>
            <Position>
              <LatitudeDegrees>43.4210685454308986663818359375</LatitudeDegrees>
              <LongitudeDegrees>-1.61934957839548587799072265625</LongitudeDegrees>
            </Position>
            <AltitudeMeters>30.799999237060546875</AltitudeMeters>
            <DistanceMeters>NAN</DistanceMeters>
          </Trackpoint>
          <Trackpoint>
            <Time>2022-07-08T09:56:40.000Z</Time>
            <Position>
              <LatitudeDegrees>43.4210078604519367218017578125</LatitudeDegrees>
              <LongitudeDegrees>-1.61937765777111053466796875</LongitudeDegrees>
            </Position>
            <AltitudeMeters>30.6000003814697265625</AltitudeMeters>
            <DistanceMeters>NAN</DistanceMeters>
          </Trackpoint>
          <Trackpoint>
            <Time>2022-07-08T09:56:42.000Z</Time>
            <Position>
              <LatitudeDegrees>43.42089629732072353363037109375</LatitudeDegrees>
              <LongitudeDegrees>-1.6194462217390537261962890625</LongitudeDegrees>
            </Position>
            <AltitudeMeters>30</AltitudeMeters>
            <DistanceMeters>NAN</DistanceMeters>
          </Trackpoint>
          <Trackpoint>
            <Time>2022-07-08T09:56:43.000Z</Time>
            <Position>
              <LatitudeDegrees>43.4208465926349163055419921875</LatitudeDegrees>
              <LongitudeDegrees>-1.61947413347661495208740234375</LongitudeDegrees>
            </Position>
            <AltitudeMeters>29.6000003814697265625</AltitudeMeters>
            <DistanceMeters>NAN</DistanceMeters>
          </Trackpoint>
          <Trackpoint>
            <Time>2022-07-08T09:56:45.000Z</Time>
            <Position>
              <LatitudeDegrees>43.4207547269761562347412109375</LatitudeDegrees>
              <LongitudeDegrees>-1.61949743516743183135986328125</LongitudeDegrees>
            </Position>
            <AltitudeMeters>29</AltitudeMeters>
            <DistanceMeters>NAN</DistanceMeters>
          </Trackpoint>
          <Trackpoint>
            <Time>2022-07-08T09:56:46.000Z</Time>
            <Position>
              <LatitudeDegrees>43.42070887796580791473388671875</LatitudeDegrees>
              <LongitudeDegrees>-1.61949274130165576934814453125</LongitudeDegrees>
            </Position>
            <AltitudeMeters>28.799999237060546875</AltitudeMeters>
            <DistanceMeters>NAN</DistanceMeters>
          </Trackpoint>
          <Trackpoint>
            <Time>2022-07-08T09:56:48.000Z</Time>
            <Position>
              <LatitudeDegrees>43.42062606476247310638427734375</LatitudeDegrees>
              <LongitudeDegrees>-1.6194670088589191436767578125</LongitudeDegrees>
            </Position>
            <AltitudeMeters>28.3999996185302734375</AltitudeMeters>
            <DistanceMeters>NAN</DistanceMeters>
          </Trackpoint>
          <Trackpoint>
            <Time>2022-07-08T09:56:51.000Z</Time>
            <Position>
              <LatitudeDegrees>43.4205022640526294708251953125</LatitudeDegrees>
              <LongitudeDegrees>-1.61938033998012542724609375</LongitudeDegrees>
            </Position>
            <AltitudeMeters>27.799999237060546875</AltitudeMeters>
            <DistanceMeters>NAN</DistanceMeters>
          </Trackpoint>
          <Trackpoint>
            <Time>2022-07-08T09:56:58.000Z</Time>
            <Position>
              <LatitudeDegrees>43.420199342072010040283203125</LatitudeDegrees>
              <LongitudeDegrees>-1.619132570922374725341796875</LongitudeDegrees>
            </Position>
            <AltitudeMeters>27.6000003814697265625</AltitudeMeters>
            <DistanceMeters>NAN</DistanceMeters>
          </Trackpoint>
          <Trackpoint>
            <Time>2022-07-08T09:56:59.000Z</Time>
            <Position>
              <LatitudeDegrees>43.42015131376683712005615234375</LatitudeDegrees>
              <LongitudeDegrees>-1.6191032342612743377685546875</LongitudeDegrees>
            </Position>
            <AltitudeMeters>27.6000003814697265625</AltitudeMeters>
            <DistanceMeters>NAN</DistanceMeters>
          </Trackpoint>
          <Trackpoint>
            <Time>2022-07-08T09:57:00.000Z</Time>
            <Position>
              <LatitudeDegrees>43.42009331099689006805419921875</LatitudeDegrees>
              <LongitudeDegrees>-1.61907599307596683502197265625</LongitudeDegrees>
            </Position>
            <AltitudeMeters>27.6000003814697265625</AltitudeMeters>
            <DistanceMeters>NAN</DistanceMeters>
          </Trackpoint>
          <Trackpoint>
            <Time>2022-07-08T09:57:02.000Z</Time>
            <Position>
              <LatitudeDegrees>43.41999423690140247344970703125</LatitudeDegrees>
              <LongitudeDegrees>-1.61905772052705287933349609375</LongitudeDegrees>
            </Position>
            <AltitudeMeters>27.6000003814697265625</AltitudeMeters>
            <DistanceMeters>NAN</DistanceMeters>
          </Trackpoint>
          <Trackpoint>
            <Time>2022-07-08T09:57:04.000Z</Time>
            <Position>
              <LatitudeDegrees>43.419880159199237823486328125</LatitudeDegrees>
              <LongitudeDegrees>-1.61907096393406391143798828125</LongitudeDegrees>
            </Position>
            <AltitudeMeters>27.3999996185302734375</AltitudeMeters>
            <DistanceMeters>NAN</DistanceMeters>
          </Trackpoint>
          <Trackpoint>
            <Time>2022-07-08T09:57:05.000Z</Time>
            <Position>
              <LatitudeDegrees>43.41982810758054256439208984375</LatitudeDegrees>
              <LongitudeDegrees>-1.61908403970301151275634765625</LongitudeDegrees>
            </Position>
            <AltitudeMeters>27.200000762939453125</AltitudeMeters>
            <DistanceMeters>NAN</DistanceMeters>
          </Trackpoint>
          <Trackpoint>
            <Time>2022-07-08T09:57:08.000Z</Time>
            <Position>
              <LatitudeDegrees>43.4196734614670276641845703125</LatitudeDegrees>
              <LongitudeDegrees>-1.6191471554338932037353515625</LongitudeDegrees>
            </Position>
            <AltitudeMeters>26.6000003814697265625</AltitudeMeters>
            <DistanceMeters>NAN</DistanceMeters>
          </Trackpoint>
          <Trackpoint>
            <Time>2022-07-08T09:57:10.000Z</Time>
            <Position>
              <LatitudeDegrees>43.4195792488753795623779296875</LatitudeDegrees>
              <LongitudeDegrees>-1.61921194754540920257568359375</LongitudeDegrees>
            </Position>
            <AltitudeMeters>26.200000762939453125</AltitudeMeters>
            <DistanceMeters>NAN</DistanceMeters>
          </Trackpoint>
          <Trackpoint>
            <Time>2022-07-08T09:57:15.000Z</Time>
            <Position>
              <LatitudeDegrees>43.41934715397655963897705078125</LatitudeDegrees>
              <LongitudeDegrees>-1.61942568607628345489501953125</LongitudeDegrees>
            </Position>
            <AltitudeMeters>25.3999996185302734375</AltitudeMeters>
            <DistanceMeters>NAN</DistanceMeters>
          </Trackpoint>
          <Trackpoint>
            <Time>2022-07-08T09:57:16.000Z</Time>
            <Position>
              <LatitudeDegrees>43.419296108186244964599609375</LatitudeDegrees>
              <LongitudeDegrees>-1.6194670088589191436767578125</LongitudeDegrees>
            </Position>
            <AltitudeMeters>25.200000762939453125</AltitudeMeters>
            <DistanceMeters>NAN</DistanceMeters>
          </Trackpoint>
          <Trackpoint>
            <Time>2022-07-08T09:57:17.000Z</Time>
            <Position>
              <LatitudeDegrees>43.419249840080738067626953125</LatitudeDegrees>
              <LongitudeDegrees>-1.61951201967895030975341796875</LongitudeDegrees>
            </Position>
            <AltitudeMeters>24.799999237060546875</AltitudeMeters>
            <DistanceMeters>NAN</DistanceMeters>
          </Trackpoint>
          <Trackpoint>
            <Time>2022-07-08T09:57:19.000Z</Time>
            <Position>
              <LatitudeDegrees>43.4191527776420116424560546875</LatitudeDegrees>
              <LongitudeDegrees>-1.61960472352802753448486328125</LongitudeDegrees>
            </Position>
            <AltitudeMeters>24.200000762939453125</AltitudeMeters>
            <DistanceMeters>NAN</DistanceMeters>
          </Trackpoint>
          <Trackpoint>
            <Time>2022-07-08T09:57:22.000Z</Time>
            <Position>
              <LatitudeDegrees>43.41902554035186767578125</LatitudeDegrees>
              <LongitudeDegrees>-1.61973564885556697845458984375</LongitudeDegrees>
            </Position>
            <AltitudeMeters>23.200000762939453125</AltitudeMeters>
            <DistanceMeters>NAN</DistanceMeters>
          </Trackpoint>
          <Trackpoint>
            <Time>2022-07-08T09:57:23.000Z</Time>
            <Position>
              <LatitudeDegrees>43.41896443627774715423583984375</LatitudeDegrees>
              <LongitudeDegrees>-1.6197928972542285919189453125</LongitudeDegrees>
            </Position>
            <AltitudeMeters>23</AltitudeMeters>
            <DistanceMeters>NAN</DistanceMeters>
          </Trackpoint>
          <Trackpoint>
            <Time>2022-07-08T09:57:26.000Z</Time>
            <Position>
              <LatitudeDegrees>43.418816663324832916259765625</LatitudeDegrees>
              <LongitudeDegrees>-1.61993832327425479888916015625</LongitudeDegrees>
            </Position>
            <AltitudeMeters>22.6000003814697265625</AltitudeMeters>
            <DistanceMeters>NAN</DistanceMeters>
          </Trackpoint>
          <Trackpoint>
            <Time>2022-07-08T09:57:29.000Z</Time>
            <Position>
              <LatitudeDegrees>43.4186629392206668853759765625</LatitudeDegrees>
              <LongitudeDegrees>-1.620070002973079681396484375</LongitudeDegrees>
            </Position>
            <AltitudeMeters>22.3999996185302734375</AltitudeMeters>
            <DistanceMeters>NAN</DistanceMeters>
          </Trackpoint>
          <Trackpoint>
            <Time>2022-07-08T09:57:31.000Z</Time>
            <Position>
              <LatitudeDegrees>43.41857534833252429962158203125</LatitudeDegrees>
              <LongitudeDegrees>-1.6201606951653957366943359375</LongitudeDegrees>
            </Position>
            <AltitudeMeters>22.200000762939453125</AltitudeMeters>
            <DistanceMeters>NAN</DistanceMeters>
          </Trackpoint>
          <Trackpoint>
            <Time>2022-07-08T09:57:33.000Z</Time>
            <Position>
              <LatitudeDegrees>43.41849806718528270721435546875</LatitudeDegrees>
              <LongitudeDegrees>-1.62024660967290401458740234375</LongitudeDegrees>
            </Position>
            <AltitudeMeters>22.200000762939453125</AltitudeMeters>
            <DistanceMeters>NAN</DistanceMeters>
          </Trackpoint>
          <Trackpoint>
            <Time>2022-07-08T09:57:34.000Z</Time>
            <Position>
              <LatitudeDegrees>43.4184664674103260040283203125</LatitudeDegrees>
              <LongitudeDegrees>-1.62027929909527301788330078125</LongitudeDegrees>
            </Position>
            <AltitudeMeters>22</AltitudeMeters>
            <DistanceMeters>NAN</DistanceMeters>
          </Trackpoint>
          <Trackpoint>
            <Time>2022-07-08T09:57:37.000Z</Time>
            <Position>
              <LatitudeDegrees>43.4183987416326999664306640625</LatitudeDegrees>
              <LongitudeDegrees>-1.6203635372221469879150390625</LongitudeDegrees>
            </Position>
            <AltitudeMeters>21.799999237060546875</AltitudeMeters>
            <DistanceMeters>NAN</DistanceMeters>
          </Trackpoint>
          <Trackpoint>
            <Time>2022-07-08T09:57:42.000Z</Time>
            <Position>
              <LatitudeDegrees>43.41830444522202014923095703125</LatitudeDegrees>
              <LongitudeDegrees>-1.6205294989049434661865234375</LongitudeDegrees>
            </Position>
            <AltitudeMeters>22.200000762939453125</AltitudeMeters>
            <DistanceMeters>NAN</DistanceMeters>
          </Trackpoint>
          <Trackpoint>
            <Time>2022-07-08T09:57:43.000Z</Time>
            <Position>
              <LatitudeDegrees>43.41828726232051849365234375</LatitudeDegrees>
              <LongitudeDegrees>-1.6205697320401668548583984375</LongitudeDegrees>
            </Position>
            <AltitudeMeters>22.3999996185302734375</AltitudeMeters>
            <DistanceMeters>NAN</DistanceMeters>
          </Trackpoint>
          <Trackpoint>
            <Time>2022-07-08T09:57:47.000Z</Time>
            <Position>
              <LatitudeDegrees>43.41820721514523029327392578125</LatitudeDegrees>
              <LongitudeDegrees>-1.6207390464842319488525390625</LongitudeDegrees>
            </Position>
            <AltitudeMeters>22.799999237060546875</AltitudeMeters>
            <DistanceMeters>NAN</DistanceMeters>
          </Trackpoint>
          <Trackpoint>
            <Time>2022-07-08T09:57:50.000Z</Time>
            <Position>
              <LatitudeDegrees>43.4181529842317104339599609375</LatitudeDegrees>
              <LongitudeDegrees>-1.62086670286953449249267578125</LongitudeDegrees>
            </Position>
            <AltitudeMeters>23</AltitudeMeters>
            <DistanceMeters>NAN</DistanceMeters>
          </Trackpoint>
          <Trackpoint>
            <Time>2022-07-08T09:57:54.000Z</Time>
            <Position>
              <LatitudeDegrees>43.41805583797395229339599609375</LatitudeDegrees>
              <LongitudeDegrees>-1.62102612666785717010498046875</LongitudeDegrees>
            </Position>
            <AltitudeMeters>23</AltitudeMeters>
            <DistanceMeters>NAN</DistanceMeters>
          </Trackpoint>
          <Trackpoint>
            <Time>2022-07-08T09:58:01.000Z</Time>
            <Position>
              <LatitudeDegrees>43.4179132618010044097900390625</LatitudeDegrees>
              <LongitudeDegrees>-1.62130876444280147552490234375</LongitudeDegrees>
            </Position>
            <AltitudeMeters>23.3999996185302734375</AltitudeMeters>
            <DistanceMeters>NAN</DistanceMeters>
          </Trackpoint>
          <Trackpoint>
            <Time>2022-07-08T09:58:08.000Z</Time>
            <Position>
              <LatitudeDegrees>43.4177402593195438385009765625</LatitudeDegrees>
              <LongitudeDegrees>-1.621612273156642913818359375</LongitudeDegrees>
            </Position>
            <AltitudeMeters>23.3999996185302734375</AltitudeMeters>
            <DistanceMeters>NAN</DistanceMeters>
          </Trackpoint>
          <Trackpoint>
            <Time>2022-07-08T09:58:16.000Z</Time>
            <Position>
              <LatitudeDegrees>43.4175722859799861907958984375</LatitudeDegrees>
              <LongitudeDegrees>-1.62191729061305522918701171875</LongitudeDegrees>
            </Position>
            <AltitudeMeters>24</AltitudeMeters>
            <DistanceMeters>NAN</DistanceMeters>
          </Trackpoint>
          <Trackpoint>
            <Time>2022-07-08T09:58:21.000Z</Time>
            <Position>
              <LatitudeDegrees>43.4174596332013607025146484375</LatitudeDegrees>
              <LongitudeDegrees>-1.6220905445516109466552734375</LongitudeDegrees>
            </Position>
            <AltitudeMeters>24</AltitudeMeters>
            <DistanceMeters>NAN</DistanceMeters>
          </Trackpoint>
          <Trackpoint>
            <Time>2022-07-08T09:58:24.000Z</Time>
            <Position>
              <LatitudeDegrees>43.4174147062003612518310546875</LatitudeDegrees>
              <LongitudeDegrees>-1.6221924684941768646240234375</LongitudeDegrees>
            </Position>
            <AltitudeMeters>24.200000762939453125</AltitudeMeters>
            <DistanceMeters>NAN</DistanceMeters>
          </Trackpoint>
          <Trackpoint>
            <Time>2022-07-08T09:58:32.000Z</Time>
            <Position>
              <LatitudeDegrees>43.41726190410554409027099609375</LatitudeDegrees>
              <LongitudeDegrees>-1.62241986952722072601318359375</LongitudeDegrees>
            </Position>
            <AltitudeMeters>24.6000003814697265625</AltitudeMeters>
            <DistanceMeters>NAN</DistanceMeters>
          </Trackpoint>
          <Trackpoint>
            <Time>2022-07-08T09:58:35.000Z</Time>
            <Position>
              <LatitudeDegrees>43.4172189049422740936279296875</LatitudeDegrees>
              <LongitudeDegrees>-1.6224829852581024169921875</LongitudeDegrees>
            </Position>
            <AltitudeMeters>25</AltitudeMeters>
            <DistanceMeters>NAN</DistanceMeters>
          </Trackpoint>
          <Trackpoint>
            <Time>2022-07-08T09:58:36.000Z</Time>
            <Position>
              <LatitudeDegrees>43.41720364987850189208984375</LatitudeDegrees>
              <LongitudeDegrees>-1.6225032694637775421142578125</LongitudeDegrees>
            </Position>
            <AltitudeMeters>25</AltitudeMeters>
            <DistanceMeters>NAN</DistanceMeters>
          </Trackpoint>
          <Trackpoint>
            <Time>2022-07-08T09:58:38.000Z</Time>
            <Position>
              <LatitudeDegrees>43.41717506758868694305419921875</LatitudeDegrees>
              <LongitudeDegrees>-1.62254174239933490753173828125</LongitudeDegrees>
            </Position>
            <AltitudeMeters>25.3999996185302734375</AltitudeMeters>
            <DistanceMeters>NAN</DistanceMeters>
          </Trackpoint>
          <Trackpoint>
            <Time>2022-07-08T09:58:43.000Z</Time>
            <Position>
              <LatitudeDegrees>43.4171179868280887603759765625</LatitudeDegrees>
              <LongitudeDegrees>-1.62265791557729244232177734375</LongitudeDegrees>
            </Position>
            <AltitudeMeters>26.200000762939453125</AltitudeMeters>
            <DistanceMeters>NAN</DistanceMeters>
          </Trackpoint>
          <Trackpoint>
            <Time>2022-07-08T09:58:47.000Z</Time>
            <Position>
              <LatitudeDegrees>43.417077921330928802490234375</LatitudeDegrees>
              <LongitudeDegrees>-1.62274248898029327392578125</LongitudeDegrees>
            </Position>
            <AltitudeMeters>26.6000003814697265625</AltitudeMeters>
            <DistanceMeters>NAN</DistanceMeters>
          </Trackpoint>
          <Trackpoint>
            <Time>2022-07-08T09:58:51.000Z</Time>
            <Position>
              <LatitudeDegrees>43.417033664882183074951171875</LatitudeDegrees>
              <LongitudeDegrees>-1.62282085977494716644287109375</LongitudeDegrees>
            </Position>
            <AltitudeMeters>27.200000762939453125</AltitudeMeters>
            <DistanceMeters>NAN</DistanceMeters>
          </Trackpoint>
          <Trackpoint>
            <Time>2022-07-08T09:58:56.000Z</Time>
            <Position>
              <LatitudeDegrees>43.416979014873504638671875</LatitudeDegrees>
              <LongitudeDegrees>-1.62290752865374088287353515625</LongitudeDegrees>
            </Position>
            <AltitudeMeters>27.799999237060546875</AltitudeMeters>
            <DistanceMeters>NAN</DistanceMeters>
          </Trackpoint>
          <Trackpoint>
            <Time>2022-07-08T09:59:02.000Z</Time>
            <Position>
              <LatitudeDegrees>43.41692863963544368743896484375</LatitudeDegrees>
              <LongitudeDegrees>-1.62302755750715732574462890625</LongitudeDegrees>
            </Position>
            <AltitudeMeters>28.200000762939453125</AltitudeMeters>
            <DistanceMeters>NAN</DistanceMeters>
          </Trackpoint>
          <Trackpoint>
            <Time>2022-07-08T09:59:03.000Z</Time>
            <Position>
              <LatitudeDegrees>43.41691740788519382476806640625</LatitudeDegrees>
              <LongitudeDegrees>-1.6230480931699275970458984375</LongitudeDegrees>
            </Position>
            <AltitudeMeters>28.3999996185302734375</AltitudeMeters>
            <DistanceMeters>NAN</DistanceMeters>
          </Trackpoint>
          <Trackpoint>
            <Time>2022-07-08T09:59:11.000Z</Time>
            <Position>
              <LatitudeDegrees>43.41682252474129199981689453125</LatitudeDegrees>
              <LongitudeDegrees>-1.62322662770748138427734375</LongitudeDegrees>
            </Position>
            <AltitudeMeters>29.200000762939453125</AltitudeMeters>
            <DistanceMeters>NAN</DistanceMeters>
          </Trackpoint>
          <Trackpoint>
            <Time>2022-07-08T09:59:12.000Z</Time>
            <Position>
              <LatitudeDegrees>43.41680911369621753692626953125</LatitudeDegrees>
              <LongitudeDegrees>-1.62324649281799793243408203125</LongitudeDegrees>
            </Position>
            <AltitudeMeters>29.3999996185302734375</AltitudeMeters>
            <DistanceMeters>NAN</DistanceMeters>
          </Trackpoint>
          <Trackpoint>
            <Time>2022-07-08T09:59:20.000Z</Time>
            <Position>
              <LatitudeDegrees>43.41672948561608791351318359375</LatitudeDegrees>
              <LongitudeDegrees>-1.62340843118727207183837890625</LongitudeDegrees>
            </Position>
            <AltitudeMeters>30.3999996185302734375</AltitudeMeters>
            <DistanceMeters>NAN</DistanceMeters>
          </Trackpoint>
          <Trackpoint>
            <Time>2022-07-08T09:59:29.000Z</Time>
            <Position>
              <LatitudeDegrees>43.4166308306157588958740234375</LatitudeDegrees>
              <LongitudeDegrees>-1.62358336150646209716796875</LongitudeDegrees>
            </Position>
            <AltitudeMeters>31.6000003814697265625</AltitudeMeters>
            <DistanceMeters>NAN</DistanceMeters>
          </Trackpoint>
          <Trackpoint>
            <Time>2022-07-08T09:59:37.000Z</Time>
            <Position>
              <LatitudeDegrees>43.416544832289218902587890625</LatitudeDegrees>
              <LongitudeDegrees>-1.62374286912381649017333984375</LongitudeDegrees>
            </Position>
            <AltitudeMeters>32.200000762939453125</AltitudeMeters>
            <DistanceMeters>NAN</DistanceMeters>
          </Trackpoint>
          <Trackpoint>
            <Time>2022-07-08T09:59:41.000Z</Time>
            <Position>
              <LatitudeDegrees>43.41649596579372882843017578125</LatitudeDegrees>
              <LongitudeDegrees>-1.6238349862396717071533203125</LongitudeDegrees>
            </Position>
            <AltitudeMeters>32.59999847412109375</AltitudeMeters>
            <DistanceMeters>NAN</DistanceMeters>
          </Trackpoint>
          <Trackpoint>
            <Time>2022-07-08T09:59:49.000Z</Time>
            <Position>
              <LatitudeDegrees>43.416405022144317626953125</LatitudeDegrees>
              <LongitudeDegrees>-1.6239959187805652618408203125</LongitudeDegrees>
            </Position>
            <AltitudeMeters>33.59999847412109375</AltitudeMeters>
            <DistanceMeters>NAN</DistanceMeters>
          </Trackpoint>
          <Trackpoint>
            <Time>2022-07-08T09:59:50.000Z</Time>
            <Position>
              <LatitudeDegrees>43.41639538295567035675048828125</LatitudeDegrees>
              <LongitudeDegrees>-1.62401846610009670257568359375</LongitudeDegrees>
            </Position>
            <AltitudeMeters>33.59999847412109375</AltitudeMeters>
            <DistanceMeters>NAN</DistanceMeters>
          </Trackpoint>
          <Trackpoint>
            <Time>2022-07-08T09:59:56.000Z</Time>
            <Position>
              <LatitudeDegrees>43.4163401462137699127197265625</LatitudeDegrees>
              <LongitudeDegrees>-1.624139584600925445556640625</LongitudeDegrees>
            </Position>
            <AltitudeMeters>34</AltitudeMeters>
            <DistanceMeters>NAN</DistanceMeters>
          </Trackpoint>
          <Trackpoint>
            <Time>2022-07-08T10:00:04.000Z</Time>
            <Position>
              <LatitudeDegrees>43.41623746789991855621337890625</LatitudeDegrees>
              <LongitudeDegrees>-1.62430378608405590057373046875</LongitudeDegrees>
            </Position>
            <AltitudeMeters>34.40000152587890625</AltitudeMeters>
            <DistanceMeters>NAN</DistanceMeters>
          </Trackpoint>
          <Trackpoint>
            <Time>2022-07-08T10:00:06.000Z</Time>
            <Position>
              <LatitudeDegrees>43.416217267513275146484375</LatitudeDegrees>
              <LongitudeDegrees>-1.62434183992445468902587890625</LongitudeDegrees>
            </Position>
            <AltitudeMeters>34.59999847412109375</AltitudeMeters>
            <DistanceMeters>NAN</DistanceMeters>
          </Trackpoint>
          <Trackpoint>
            <Time>2022-07-08T10:00:12.000Z</Time>
            <Position>
              <LatitudeDegrees>43.4161450155079364776611328125</LatitudeDegrees>
              <LongitudeDegrees>-1.62444074638187885284423828125</LongitudeDegrees>
            </Position>
            <AltitudeMeters>35.59999847412109375</AltitudeMeters>
            <DistanceMeters>NAN</DistanceMeters>
          </Trackpoint>
          <Trackpoint>
            <Time>2022-07-08T10:00:14.000Z</Time>
            <Position>
              <LatitudeDegrees>43.41612447984516620635986328125</LatitudeDegrees>
              <LongitudeDegrees>-1.6244810633361339569091796875</LongitudeDegrees>
            </Position>
            <AltitudeMeters>35.799999237060546875</AltitudeMeters>
            <DistanceMeters>NAN</DistanceMeters>
          </Trackpoint>
          <Trackpoint>
            <Time>2022-07-08T10:00:19.000Z</Time>
            <Position>
              <LatitudeDegrees>43.41607871465384960174560546875</LatitudeDegrees>
              <LongitudeDegrees>-1.6245762817561626434326171875</LongitudeDegrees>
            </Position>
            <AltitudeMeters>36.40000152587890625</AltitudeMeters>
            <DistanceMeters>NAN</DistanceMeters>
          </Trackpoint>
          <Trackpoint>
            <Time>2022-07-08T10:00:22.000Z</Time>
            <Position>
              <LatitudeDegrees>43.41605206020176410675048828125</LatitudeDegrees>
              <LongitudeDegrees>-1.62462674081325531005859375</LongitudeDegrees>
            </Position>
            <AltitudeMeters>36.799999237060546875</AltitudeMeters>
            <DistanceMeters>NAN</DistanceMeters>
          </Trackpoint>
          <Trackpoint>
            <Time>2022-07-08T10:00:25.000Z</Time>
            <Position>
              <LatitudeDegrees>43.41603009961545467376708984375</LatitudeDegrees>
              <LongitudeDegrees>-1.62468440830707550048828125</LongitudeDegrees>
            </Position>
            <AltitudeMeters>37</AltitudeMeters>
            <DistanceMeters>NAN</DistanceMeters>
          </Trackpoint>
          <Trackpoint>
            <Time>2022-07-08T10:00:29.000Z</Time>
            <Position>
              <LatitudeDegrees>43.415986932814121246337890625</LatitudeDegrees>
              <LongitudeDegrees>-1.624765880405902862548828125</LongitudeDegrees>
            </Position>
            <AltitudeMeters>37</AltitudeMeters>
            <DistanceMeters>NAN</DistanceMeters>
          </Trackpoint>
          <Trackpoint>
            <Time>2022-07-08T10:00:31.000Z</Time>
            <Position>
              <LatitudeDegrees>43.415962792932987213134765625</LatitudeDegrees>
              <LongitudeDegrees>-1.62480133585631847381591796875</LongitudeDegrees>
            </Position>
            <AltitudeMeters>37.200000762939453125</AltitudeMeters>
            <DistanceMeters>NAN</DistanceMeters>
          </Trackpoint>
          <Trackpoint>
            <Time>2022-07-08T10:00:35.000Z</Time>
            <Position>
              <LatitudeDegrees>43.41591618955135345458984375</LatitudeDegrees>
              <LongitudeDegrees>-1.62488163448870182037353515625</LongitudeDegrees>
            </Position>
            <AltitudeMeters>37.59999847412109375</AltitudeMeters>
            <DistanceMeters>NAN</DistanceMeters>
          </Trackpoint>
          <Trackpoint>
            <Time>2022-07-08T10:00:40.000Z</Time>
            <Position>
              <LatitudeDegrees>43.415870256721973419189453125</LatitudeDegrees>
              <LongitudeDegrees>-1.6249859891831874847412109375</LongitudeDegrees>
            </Position>
            <AltitudeMeters>38</AltitudeMeters>
            <DistanceMeters>NAN</DistanceMeters>
          </Trackpoint>
          <Trackpoint>
            <Time>2022-07-08T10:00:47.000Z</Time>
            <Position>
              <LatitudeDegrees>43.41579205356538295745849609375</LatitudeDegrees>
              <LongitudeDegrees>-1.625102497637271881103515625</LongitudeDegrees>
            </Position>
            <AltitudeMeters>38.59999847412109375</AltitudeMeters>
            <DistanceMeters>NAN</DistanceMeters>
          </Trackpoint>
          <Trackpoint>
            <Time>2022-07-08T10:00:51.000Z</Time>
            <Position>
              <LatitudeDegrees>43.4157478809356689453125</LatitudeDegrees>
              <LongitudeDegrees>-1.625176258385181427001953125</LongitudeDegrees>
            </Position>
            <AltitudeMeters>39</AltitudeMeters>
            <DistanceMeters>NAN</DistanceMeters>
          </Trackpoint>
          <Trackpoint>
            <Time>2022-07-08T10:00:55.000Z</Time>
            <Position>
              <LatitudeDegrees>43.41570387594401836395263671875</LatitudeDegrees>
              <LongitudeDegrees>-1.62524633109569549560546875</LongitudeDegrees>
            </Position>
            <AltitudeMeters>39.200000762939453125</AltitudeMeters>
            <DistanceMeters>NAN</DistanceMeters>
          </Trackpoint>
          <Trackpoint>
            <Time>2022-07-08T10:01:01.000Z</Time>
            <Position>
              <LatitudeDegrees>43.41565333306789398193359375</LatitudeDegrees>
              <LongitudeDegrees>-1.62535496056079864501953125</LongitudeDegrees>
            </Position>
            <AltitudeMeters>40</AltitudeMeters>
            <DistanceMeters>NAN</DistanceMeters>
          </Trackpoint>
          <Trackpoint>
            <Time>2022-07-08T10:01:04.000Z</Time>
            <Position>
              <LatitudeDegrees>43.41561955399811267852783203125</LatitudeDegrees>
              <LongitudeDegrees>-1.6254054196178913116455078125</LongitudeDegrees>
            </Position>
            <AltitudeMeters>40.200000762939453125</AltitudeMeters>
            <DistanceMeters>NAN</DistanceMeters>
          </Trackpoint>
          <Trackpoint>
            <Time>2022-07-08T10:01:07.000Z</Time>
            <Position>
              <LatitudeDegrees>43.41558250598609447479248046875</LatitudeDegrees>
              <LongitudeDegrees>-1.6254557110369205474853515625</LongitudeDegrees>
            </Position>
            <AltitudeMeters>40.59999847412109375</AltitudeMeters>
            <DistanceMeters>NAN</DistanceMeters>
          </Trackpoint>
          <Trackpoint>
            <Time>2022-07-08T10:01:11.000Z</Time>
            <Position>
              <LatitudeDegrees>43.41554939746856689453125</LatitudeDegrees>
              <LongitudeDegrees>-1.62553324364125728607177734375</LongitudeDegrees>
            </Position>
            <AltitudeMeters>41</AltitudeMeters>
            <DistanceMeters>NAN</DistanceMeters>
          </Trackpoint>
          <Trackpoint>
            <Time>2022-07-08T10:01:13.000Z</Time>
            <Position>
              <LatitudeDegrees>43.41552584432065486907958984375</LatitudeDegrees>
              <LongitudeDegrees>-1.625567860901355743408203125</LongitudeDegrees>
            </Position>
            <AltitudeMeters>41</AltitudeMeters>
            <DistanceMeters>NAN</DistanceMeters>
          </Trackpoint>
          <Trackpoint>
            <Time>2022-07-08T10:01:18.000Z</Time>
            <Position>
              <LatitudeDegrees>43.415467254817485809326171875</LatitudeDegrees>
              <LongitudeDegrees>-1.62565000355243682861328125</LongitudeDegrees>
            </Position>
            <AltitudeMeters>41.40000152587890625</AltitudeMeters>
            <DistanceMeters>NAN</DistanceMeters>
          </Trackpoint>
          <Trackpoint>
            <Time>2022-07-08T10:01:23.000Z</Time>
            <Position>
              <LatitudeDegrees>43.41541671194136142730712890625</LatitudeDegrees>
              <LongitudeDegrees>-1.62574362941086292266845703125</LongitudeDegrees>
            </Position>
            <AltitudeMeters>42.200000762939453125</AltitudeMeters>
            <DistanceMeters>NAN</DistanceMeters>
          </Trackpoint>
          <Trackpoint>
            <Time>2022-07-08T10:01:25.000Z</Time>
            <Position>
              <LatitudeDegrees>43.415396176278591156005859375</LatitudeDegrees>
              <LongitudeDegrees>-1.62578922696411609649658203125</LongitudeDegrees>
            </Position>
            <AltitudeMeters>42.200000762939453125</AltitudeMeters>
            <DistanceMeters>NAN</DistanceMeters>
          </Trackpoint>
          <Trackpoint>
            <Time>2022-07-08T10:01:28.000Z</Time>
            <Position>
              <LatitudeDegrees>43.4153668396174907684326171875</LatitudeDegrees>
              <LongitudeDegrees>-1.62584044039249420166015625</LongitudeDegrees>
            </Position>
            <AltitudeMeters>42.59999847412109375</AltitudeMeters>
            <DistanceMeters>NAN</DistanceMeters>
          </Trackpoint>
          <Trackpoint>
            <Time>2022-07-08T10:01:35.000Z</Time>
            <Position>
              <LatitudeDegrees>43.41530003584921360015869140625</LatitudeDegrees>
              <LongitudeDegrees>-1.62597052752971649169921875</LongitudeDegrees>
            </Position>
            <AltitudeMeters>43.200000762939453125</AltitudeMeters>
            <DistanceMeters>NAN</DistanceMeters>
          </Trackpoint>
          <Trackpoint>
            <Time>2022-07-08T10:01:36.000Z</Time>
            <Position>
              <LatitudeDegrees>43.41528897173702716827392578125</LatitudeDegrees>
              <LongitudeDegrees>-1.62598435766994953155517578125</LongitudeDegrees>
            </Position>
            <AltitudeMeters>43.200000762939453125</AltitudeMeters>
            <DistanceMeters>NAN</DistanceMeters>
          </Trackpoint>
          <Trackpoint>
            <Time>2022-07-08T10:01:44.000Z</Time>
            <Position>
              <LatitudeDegrees>43.415210433304309844970703125</LatitudeDegrees>
              <LongitudeDegrees>-1.62613037042319774627685546875</LongitudeDegrees>
            </Position>
            <AltitudeMeters>44</AltitudeMeters>
            <DistanceMeters>NAN</DistanceMeters>
          </Trackpoint>
          <Trackpoint>
            <Time>2022-07-08T10:01:47.000Z</Time>
            <Position>
              <LatitudeDegrees>43.415178917348384857177734375</LatitudeDegrees>
              <LongitudeDegrees>-1.62617077119648456573486328125</LongitudeDegrees>
            </Position>
            <AltitudeMeters>44.200000762939453125</AltitudeMeters>
            <DistanceMeters>NAN</DistanceMeters>
          </Trackpoint>
          <Trackpoint>
            <Time>2022-07-08T10:01:51.000Z</Time>
            <Position>
              <LatitudeDegrees>43.4151257760822772979736328125</LatitudeDegrees>
              <LongitudeDegrees>-1.62624637596309185028076171875</LongitudeDegrees>
            </Position>
            <AltitudeMeters>44.799999237060546875</AltitudeMeters>
            <DistanceMeters>NAN</DistanceMeters>
          </Trackpoint>
          <Trackpoint>
            <Time>2022-07-08T10:01:58.000Z</Time>
            <Position>
              <LatitudeDegrees>43.41503240168094635009765625</LatitudeDegrees>
              <LongitudeDegrees>-1.62631862796843051910400390625</LongitudeDegrees>
            </Position>
            <AltitudeMeters>45.40000152587890625</AltitudeMeters>
            <DistanceMeters>NAN</DistanceMeters>
          </Trackpoint>
          <Trackpoint>
            <Time>2022-07-08T10:02:05.000Z</Time>
            <Position>
              <LatitudeDegrees>43.41495989821851253509521484375</LatitudeDegrees>
              <LongitudeDegrees>-1.62638585083186626434326171875</LongitudeDegrees>
            </Position>
            <AltitudeMeters>45.799999237060546875</AltitudeMeters>
            <DistanceMeters>NAN</DistanceMeters>
          </Trackpoint>
          <Trackpoint>
            <Time>2022-07-08T10:02:11.000Z</Time>
            <Position>
              <LatitudeDegrees>43.414895273745059967041015625</LatitudeDegrees>
              <LongitudeDegrees>-1.6264115832746028900146484375</LongitudeDegrees>
            </Position>
            <AltitudeMeters>46.40000152587890625</AltitudeMeters>
            <DistanceMeters>NAN</DistanceMeters>
          </Trackpoint>
          <Trackpoint>
            <Time>2022-07-08T10:02:14.000Z</Time>
            <Position>
              <LatitudeDegrees>43.41485294513404369354248046875</LatitudeDegrees>
              <LongitudeDegrees>-1.62644335068762302398681640625</LongitudeDegrees>
            </Position>
            <AltitudeMeters>47</AltitudeMeters>
            <DistanceMeters>NAN</DistanceMeters>
          </Trackpoint>
          <Trackpoint>
            <Time>2022-07-08T10:02:17.000Z</Time>
            <Position>
              <LatitudeDegrees>43.41480315662920475006103515625</LatitudeDegrees>
              <LongitudeDegrees>-1.6264873556792736053466796875</LongitudeDegrees>
            </Position>
            <AltitudeMeters>47.200000762939453125</AltitudeMeters>
            <DistanceMeters>NAN</DistanceMeters>
          </Trackpoint>
          <Trackpoint>
            <Time>2022-07-08T10:02:20.000Z</Time>
            <Position>
              <LatitudeDegrees>43.41475739143788814544677734375</LatitudeDegrees>
              <LongitudeDegrees>-1.626523397862911224365234375</LongitudeDegrees>
            </Position>
            <AltitudeMeters>47.59999847412109375</AltitudeMeters>
            <DistanceMeters>NAN</DistanceMeters>
          </Trackpoint>
          <Trackpoint>
            <Time>2022-07-08T10:02:28.000Z</Time>
            <Position>
              <LatitudeDegrees>43.4145824611186981201171875</LatitudeDegrees>
              <LongitudeDegrees>-1.626513339579105377197265625</LongitudeDegrees>
            </Position>
            <AltitudeMeters>48</AltitudeMeters>
            <DistanceMeters>NAN</DistanceMeters>
          </Trackpoint>
          <Trackpoint>
            <Time>2022-07-08T10:02:37.000Z</Time>
            <Position>
              <LatitudeDegrees>43.4143536351621150970458984375</LatitudeDegrees>
              <LongitudeDegrees>-1.62645190022885799407958984375</LongitudeDegrees>
            </Position>
            <AltitudeMeters>48.200000762939453125</AltitudeMeters>
            <DistanceMeters>NAN</DistanceMeters>
          </Trackpoint>
          <Trackpoint>
            <Time>2022-07-08T10:02:43.000Z</Time>
            <Position>
              <LatitudeDegrees>43.4142198599874973297119140625</LatitudeDegrees>
              <LongitudeDegrees>-1.62639976479113101959228515625</LongitudeDegrees>
            </Position>
            <AltitudeMeters>48.59999847412109375</AltitudeMeters>
            <DistanceMeters>NAN</DistanceMeters>
          </Trackpoint>
          <Trackpoint>
            <Time>2022-07-08T10:02:47.000Z</Time>
            <Position>
              <LatitudeDegrees>43.41414199210703372955322265625</LatitudeDegrees>
              <LongitudeDegrees>-1.62633958272635936737060546875</LongitudeDegrees>
            </Position>
            <AltitudeMeters>49.200000762939453125</AltitudeMeters>
            <DistanceMeters>NAN</DistanceMeters>
          </Trackpoint>
          <Trackpoint>
            <Time>2022-07-08T10:02:50.000Z</Time>
            <Position>
              <LatitudeDegrees>43.41409035958349704742431640625</LatitudeDegrees>
              <LongitudeDegrees>-1.6262774728238582611083984375</LongitudeDegrees>
            </Position>
            <AltitudeMeters>49.40000152587890625</AltitudeMeters>
            <DistanceMeters>NAN</DistanceMeters>
          </Trackpoint>
          <Trackpoint>
            <Time>2022-07-08T10:02:53.000Z</Time>
            <Position>
              <LatitudeDegrees>43.41404995881021022796630859375</LatitudeDegrees>
              <LongitudeDegrees>-1.62622609175741672515869140625</LongitudeDegrees>
            </Position>
            <AltitudeMeters>49.799999237060546875</AltitudeMeters>
            <DistanceMeters>NAN</DistanceMeters>
          </Trackpoint>
          <Trackpoint>
            <Time>2022-07-08T10:02:57.000Z</Time>
            <Position>
              <LatitudeDegrees>43.41399011202156543731689453125</LatitudeDegrees>
              <LongitudeDegrees>-1.626170016825199127197265625</LongitudeDegrees>
            </Position>
            <AltitudeMeters>50</AltitudeMeters>
            <DistanceMeters>NAN</DistanceMeters>
          </Trackpoint>
          <Trackpoint>
            <Time>2022-07-08T10:03:00.000Z</Time>
            <Position>
              <LatitudeDegrees>43.4139456041157245635986328125</LatitudeDegrees>
              <LongitudeDegrees>-1.62611478008329868316650390625</LongitudeDegrees>
            </Position>
            <AltitudeMeters>50.200000762939453125</AltitudeMeters>
            <DistanceMeters>NAN</DistanceMeters>
          </Trackpoint>
          <Trackpoint>
            <Time>2022-07-08T10:03:07.000Z</Time>
            <Position>
              <LatitudeDegrees>43.4138295985758304595947265625</LatitudeDegrees>
              <LongitudeDegrees>-1.62597580812871456146240234375</LongitudeDegrees>
            </Position>
            <AltitudeMeters>50.59999847412109375</AltitudeMeters>
            <DistanceMeters>NAN</DistanceMeters>
          </Trackpoint>
          <Trackpoint>
            <Time>2022-07-08T10:03:09.000Z</Time>
            <Position>
              <LatitudeDegrees>43.41378894634544849395751953125</LatitudeDegrees>
              <LongitudeDegrees>-1.62593876011669635772705078125</LongitudeDegrees>
            </Position>
            <AltitudeMeters>50.799999237060546875</AltitudeMeters>
            <DistanceMeters>NAN</DistanceMeters>
          </Trackpoint>
          <Trackpoint>
            <Time>2022-07-08T10:03:12.000Z</Time>
            <Position>
              <LatitudeDegrees>43.41373949311673641204833984375</LatitudeDegrees>
              <LongitudeDegrees>-1.62587262690067291259765625</LongitudeDegrees>
            </Position>
            <AltitudeMeters>51.200000762939453125</AltitudeMeters>
            <DistanceMeters>NAN</DistanceMeters>
          </Trackpoint>
          <Trackpoint>
            <Time>2022-07-08T10:03:22.000Z</Time>
            <Position>
              <LatitudeDegrees>43.41358576901257038116455078125</LatitudeDegrees>
              <LongitudeDegrees>-1.625660397112369537353515625</LongitudeDegrees>
            </Position>
            <AltitudeMeters>51.799999237060546875</AltitudeMeters>
            <DistanceMeters>NAN</DistanceMeters>
          </Trackpoint>
          <Trackpoint>
            <Time>2022-07-08T10:03:25.000Z</Time>
            <Position>
              <LatitudeDegrees>43.41352961026132106781005859375</LatitudeDegrees>
              <LongitudeDegrees>-1.62560842931270599365234375</LongitudeDegrees>
            </Position>
            <AltitudeMeters>51.799999237060546875</AltitudeMeters>
            <DistanceMeters>NAN</DistanceMeters>
          </Trackpoint>
          <Trackpoint>
            <Time>2022-07-08T10:03:31.000Z</Time>
            <Position>
              <LatitudeDegrees>43.41342081315815448760986328125</LatitudeDegrees>
              <LongitudeDegrees>-1.6255177371203899383544921875</LongitudeDegrees>
            </Position>
            <AltitudeMeters>52.200000762939453125</AltitudeMeters>
            <DistanceMeters>NAN</DistanceMeters>
          </Trackpoint>
          <Trackpoint>
            <Time>2022-07-08T10:03:36.000Z</Time>
            <Position>
              <LatitudeDegrees>43.413329534232616424560546875</LatitudeDegrees>
              <LongitudeDegrees>-1.62543945014476776123046875</LongitudeDegrees>
            </Position>
            <AltitudeMeters>52.799999237060546875</AltitudeMeters>
            <DistanceMeters>NAN</DistanceMeters>
          </Trackpoint>
          <Trackpoint>
            <Time>2022-07-08T10:03:39.000Z</Time>
            <Position>
              <LatitudeDegrees>43.41328083537518978118896484375</LatitudeDegrees>
              <LongitudeDegrees>-1.62539117038249969482421875</LongitudeDegrees>
            </Position>
            <AltitudeMeters>53</AltitudeMeters>
            <DistanceMeters>NAN</DistanceMeters>
          </Trackpoint>
          <Trackpoint>
            <Time>2022-07-08T10:03:43.000Z</Time>
            <Position>
              <LatitudeDegrees>43.4132225811481475830078125</LatitudeDegrees>
              <LongitudeDegrees>-1.62531816400587558746337890625</LongitudeDegrees>
            </Position>
            <AltitudeMeters>53.200000762939453125</AltitudeMeters>
            <DistanceMeters>NAN</DistanceMeters>
          </Trackpoint>
          <Trackpoint>
            <Time>2022-07-08T10:03:46.000Z</Time>
            <Position>
              <LatitudeDegrees>43.4131855331361293792724609375</LatitudeDegrees>
              <LongitudeDegrees>-1.62526519037783145904541015625</LongitudeDegrees>
            </Position>
            <AltitudeMeters>53.40000152587890625</AltitudeMeters>
            <DistanceMeters>NAN</DistanceMeters>
          </Trackpoint>
          <Trackpoint>
            <Time>2022-07-08T10:03:52.000Z</Time>
            <Position>
              <LatitudeDegrees>43.41309852898120880126953125</LatitudeDegrees>
              <LongitudeDegrees>-1.62514851428568363189697265625</LongitudeDegrees>
            </Position>
            <AltitudeMeters>53.799999237060546875</AltitudeMeters>
            <DistanceMeters>NAN</DistanceMeters>
          </Trackpoint>
          <Trackpoint>
            <Time>2022-07-08T10:03:56.000Z</Time>
            <Position>
              <LatitudeDegrees>43.413022421300411224365234375</LatitudeDegrees>
              <LongitudeDegrees>-1.62506972439587116241455078125</LongitudeDegrees>
            </Position>
            <AltitudeMeters>54</AltitudeMeters>
            <DistanceMeters>NAN</DistanceMeters>
          </Trackpoint>
          <Trackpoint>
            <Time>2022-07-08T10:03:59.000Z</Time>
            <Position>
              <LatitudeDegrees>43.4129555337131023406982421875</LatitudeDegrees>
              <LongitudeDegrees>-1.62505832500755786895751953125</LongitudeDegrees>
            </Position>
            <AltitudeMeters>54.40000152587890625</AltitudeMeters>
            <DistanceMeters>NAN</DistanceMeters>
          </Trackpoint>
          <Trackpoint>
            <Time>2022-07-08T10:04:02.000Z</Time>
            <Position>
              <LatitudeDegrees>43.412891663610935211181640625</LatitudeDegrees>
              <LongitudeDegrees>-1.6250855661928653717041015625</LongitudeDegrees>
            </Position>
            <AltitudeMeters>54.59999847412109375</AltitudeMeters>
            <DistanceMeters>NAN</DistanceMeters>
          </Trackpoint>
          <Trackpoint>
            <Time>2022-07-08T10:04:06.000Z</Time>
            <Position>
              <LatitudeDegrees>43.41282896697521209716796875</LatitudeDegrees>
              <LongitudeDegrees>-1.62516980431973934173583984375</LongitudeDegrees>
            </Position>
            <AltitudeMeters>54.59999847412109375</AltitudeMeters>
            <DistanceMeters>NAN</DistanceMeters>
          </Trackpoint>
          <Trackpoint>
            <Time>2022-07-08T10:04:07.000Z</Time>
            <Position>
              <LatitudeDegrees>43.412810862064361572265625</LatitudeDegrees>
              <LongitudeDegrees>-1.62519461475312709808349609375</LongitudeDegrees>
            </Position>
            <AltitudeMeters>54.59999847412109375</AltitudeMeters>
            <DistanceMeters>NAN</DistanceMeters>
          </Trackpoint>
          <Trackpoint>
            <Time>2022-07-08T10:04:10.000Z</Time>
            <Position>
              <LatitudeDegrees>43.412753529846668243408203125</LatitudeDegrees>
              <LongitudeDegrees>-1.62525932304561138153076171875</LongitudeDegrees>
            </Position>
            <AltitudeMeters>54.40000152587890625</AltitudeMeters>
            <DistanceMeters>NAN</DistanceMeters>
          </Trackpoint>
          <Trackpoint>
            <Time>2022-07-08T10:04:11.000Z</Time>
            <Position>
              <LatitudeDegrees>43.4127436392009258270263671875</LatitudeDegrees>
              <LongitudeDegrees>-1.62529402412474155426025390625</LongitudeDegrees>
            </Position>
            <AltitudeMeters>54.40000152587890625</AltitudeMeters>
            <DistanceMeters>NAN</DistanceMeters>
          </Trackpoint>
          <Trackpoint>
            <Time>2022-07-08T10:04:15.000Z</Time>
            <Position>
              <LatitudeDegrees>43.41274271719157695770263671875</LatitudeDegrees>
              <LongitudeDegrees>-1.62542880512773990631103515625</LongitudeDegrees>
            </Position>
            <AltitudeMeters>54.40000152587890625</AltitudeMeters>
            <DistanceMeters>NAN</DistanceMeters>
          </Trackpoint>
          <Trackpoint>
            <Time>2022-07-08T10:04:16.000Z</Time>
            <Position>
              <LatitudeDegrees>43.41274305246770381927490234375</LatitudeDegrees>
              <LongitudeDegrees>-1.62547088228166103363037109375</LongitudeDegrees>
            </Position>
            <AltitudeMeters>54.40000152587890625</AltitudeMeters>
            <DistanceMeters>NAN</DistanceMeters>
          </Trackpoint>
          <Trackpoint>
            <Time>2022-07-08T10:04:20.000Z</Time>
            <Position>
              <LatitudeDegrees>43.41273601166903972625732421875</LatitudeDegrees>
              <LongitudeDegrees>-1.62563323974609375</LongitudeDegrees>
            </Position>
            <AltitudeMeters>54.40000152587890625</AltitudeMeters>
            <DistanceMeters>NAN</DistanceMeters>
          </Trackpoint>
          <Trackpoint>
            <Time>2022-07-08T10:04:25.000Z</Time>
            <Position>
              <LatitudeDegrees>43.4127292223274707794189453125</LatitudeDegrees>
              <LongitudeDegrees>-1.6258384287357330322265625</LongitudeDegrees>
            </Position>
            <AltitudeMeters>54.59999847412109375</AltitudeMeters>
            <DistanceMeters>NAN</DistanceMeters>
          </Trackpoint>
          <Trackpoint>
            <Time>2022-07-08T10:04:31.000Z</Time>
            <Position>
              <LatitudeDegrees>43.4127210080623626708984375</LatitudeDegrees>
              <LongitudeDegrees>-1.6260464675724506378173828125</LongitudeDegrees>
            </Position>
            <AltitudeMeters>54.799999237060546875</AltitudeMeters>
            <DistanceMeters>NAN</DistanceMeters>
          </Trackpoint>
          <Trackpoint>
            <Time>2022-07-08T10:04:34.000Z</Time>
            <Position>
              <LatitudeDegrees>43.41271237470209598541259765625</LatitudeDegrees>
              <LongitudeDegrees>-1.62614059634506702423095703125</LongitudeDegrees>
            </Position>
            <AltitudeMeters>55</AltitudeMeters>
            <DistanceMeters>NAN</DistanceMeters>
          </Trackpoint>
          <Trackpoint>
            <Time>2022-07-08T10:04:41.000Z</Time>
            <Position>
              <LatitudeDegrees>43.41269393451511859893798828125</LatitudeDegrees>
              <LongitudeDegrees>-1.62633958272635936737060546875</LongitudeDegrees>
            </Position>
            <AltitudeMeters>55.799999237060546875</AltitudeMeters>
            <DistanceMeters>NAN</DistanceMeters>
          </Trackpoint>
          <Trackpoint>
            <Time>2022-07-08T10:04:42.000Z</Time>
            <Position>
              <LatitudeDegrees>43.41269108466804027557373046875</LatitudeDegrees>
              <LongitudeDegrees>-1.626364476978778839111328125</LongitudeDegrees>
            </Position>
            <AltitudeMeters>56</AltitudeMeters>
            <DistanceMeters>NAN</DistanceMeters>
          </Trackpoint>
          <Trackpoint>
            <Time>2022-07-08T10:04:49.000Z</Time>
            <Position>
              <LatitudeDegrees>43.41265328228473663330078125</LatitudeDegrees>
              <LongitudeDegrees>-1.62653781473636627197265625</LongitudeDegrees>
            </Position>
            <AltitudeMeters>57</AltitudeMeters>
            <DistanceMeters>NAN</DistanceMeters>
          </Trackpoint>
          <Trackpoint>
            <Time>2022-07-08T10:04:50.000Z</Time>
            <Position>
              <LatitudeDegrees>43.41264791786670684814453125</LatitudeDegrees>
              <LongitudeDegrees>-1.6265634633600711822509765625</LongitudeDegrees>
            </Position>
            <AltitudeMeters>57.200000762939453125</AltitudeMeters>
            <DistanceMeters>NAN</DistanceMeters>
          </Trackpoint>
          <Trackpoint>
            <Time>2022-07-08T10:04:58.000Z</Time>
            <Position>
              <LatitudeDegrees>43.41260910965502262115478515625</LatitudeDegrees>
              <LongitudeDegrees>-1.62675750441849231719970703125</LongitudeDegrees>
            </Position>
            <AltitudeMeters>57.40000152587890625</AltitudeMeters>
            <DistanceMeters>NAN</DistanceMeters>
          </Trackpoint>
          <Trackpoint>
            <Time>2022-07-08T10:05:00.000Z</Time>
            <Position>
              <LatitudeDegrees>43.41259771026670932769775390625</LatitudeDegrees>
              <LongitudeDegrees>-1.62681768648326396942138671875</LongitudeDegrees>
            </Position>
            <AltitudeMeters>58</AltitudeMeters>
            <DistanceMeters>NAN</DistanceMeters>
          </Trackpoint>
          <Trackpoint>
            <Time>2022-07-08T10:05:06.000Z</Time>
            <Position>
              <LatitudeDegrees>43.412539623677730560302734375</LatitudeDegrees>
              <LongitudeDegrees>-1.62702731788158416748046875</LongitudeDegrees>
            </Position>
            <AltitudeMeters>58.59999847412109375</AltitudeMeters>
            <DistanceMeters>NAN</DistanceMeters>
          </Trackpoint>
          <Trackpoint>
            <Time>2022-07-08T10:05:09.000Z</Time>
            <Position>
              <LatitudeDegrees>43.41250048018991947174072265625</LatitudeDegrees>
              <LongitudeDegrees>-1.6271914355456829071044921875</LongitudeDegrees>
            </Position>
            <AltitudeMeters>58.40000152587890625</AltitudeMeters>
            <DistanceMeters>NAN</DistanceMeters>
          </Trackpoint>
          <Trackpoint>
            <Time>2022-07-08T10:05:12.000Z</Time>
            <Position>
              <LatitudeDegrees>43.4124848060309886932373046875</LatitudeDegrees>
              <LongitudeDegrees>-1.627366282045841217041015625</LongitudeDegrees>
            </Position>
            <AltitudeMeters>58.200000762939453125</AltitudeMeters>
            <DistanceMeters>NAN</DistanceMeters>
          </Trackpoint>
          <Trackpoint>
            <Time>2022-07-08T10:05:17.000Z</Time>
            <Position>
              <LatitudeDegrees>43.41247332282364368438720703125</LatitudeDegrees>
              <LongitudeDegrees>-1.6275964491069316864013671875</LongitudeDegrees>
            </Position>
            <AltitudeMeters>57.799999237060546875</AltitudeMeters>
            <DistanceMeters>NAN</DistanceMeters>
          </Trackpoint>
          <Trackpoint>
            <Time>2022-07-08T10:05:24.000Z</Time>
            <Position>
              <LatitudeDegrees>43.41243141330778598785400390625</LatitudeDegrees>
              <LongitudeDegrees>-1.62780381739139556884765625</LongitudeDegrees>
            </Position>
            <AltitudeMeters>58.59999847412109375</AltitudeMeters>
            <DistanceMeters>NAN</DistanceMeters>
          </Trackpoint>
          <Trackpoint>
            <Time>2022-07-08T10:05:27.000Z</Time>
            <Position>
              <LatitudeDegrees>43.4124113805592060089111328125</LatitudeDegrees>
              <LongitudeDegrees>-1.62788101471960544586181640625</LongitudeDegrees>
            </Position>
            <AltitudeMeters>59</AltitudeMeters>
            <DistanceMeters>NAN</DistanceMeters>
          </Trackpoint>
          <Trackpoint>
            <Time>2022-07-08T10:05:32.000Z</Time>
            <Position>
              <LatitudeDegrees>43.41236586682498455047607421875</LatitudeDegrees>
              <LongitudeDegrees>-1.62801546044647693634033203125</LongitudeDegrees>
            </Position>
            <AltitudeMeters>59.200000762939453125</AltitudeMeters>
            <DistanceMeters>NAN</DistanceMeters>
          </Trackpoint>
          <Trackpoint>
            <Time>2022-07-08T10:05:34.000Z</Time>
            <Position>
              <LatitudeDegrees>43.41234977357089519500732421875</LatitudeDegrees>
              <LongitudeDegrees>-1.62807983346283435821533203125</LongitudeDegrees>
            </Position>
            <AltitudeMeters>59.200000762939453125</AltitudeMeters>
            <DistanceMeters>NAN</DistanceMeters>
          </Trackpoint>
          <Trackpoint>
            <Time>2022-07-08T10:05:40.000Z</Time>
            <Position>
              <LatitudeDegrees>43.4122702293097972869873046875</LatitudeDegrees>
              <LongitudeDegrees>-1.62831670604646205902099609375</LongitudeDegrees>
            </Position>
            <AltitudeMeters>59.200000762939453125</AltitudeMeters>
            <DistanceMeters>NAN</DistanceMeters>
          </Trackpoint>
          <Trackpoint>
            <Time>2022-07-08T10:05:44.000Z</Time>
            <Position>
              <LatitudeDegrees>43.41220862232148647308349609375</LatitudeDegrees>
              <LongitudeDegrees>-1.62852801382541656494140625</LongitudeDegrees>
            </Position>
            <AltitudeMeters>58.799999237060546875</AltitudeMeters>
            <DistanceMeters>NAN</DistanceMeters>
          </Trackpoint>
          <Trackpoint>
            <Time>2022-07-08T10:05:46.000Z</Time>
            <Position>
              <LatitudeDegrees>43.41217140667140483856201171875</LatitudeDegrees>
              <LongitudeDegrees>-1.62864997051656246185302734375</LongitudeDegrees>
            </Position>
            <AltitudeMeters>58.40000152587890625</AltitudeMeters>
            <DistanceMeters>NAN</DistanceMeters>
          </Trackpoint>
          <Trackpoint>
            <Time>2022-07-08T10:05:47.000Z</Time>
            <Position>
              <LatitudeDegrees>43.41215330176055431365966796875</LatitudeDegrees>
              <LongitudeDegrees>-1.6287152655422687530517578125</LongitudeDegrees>
            </Position>
            <AltitudeMeters>58</AltitudeMeters>
            <DistanceMeters>NAN</DistanceMeters>
          </Trackpoint>
          <Trackpoint>
            <Time>2022-07-08T10:05:53.000Z</Time>
            <Position>
              <LatitudeDegrees>43.412066213786602020263671875</LatitudeDegrees>
              <LongitudeDegrees>-1.62911650724709033966064453125</LongitudeDegrees>
            </Position>
            <AltitudeMeters>57</AltitudeMeters>
            <DistanceMeters>NAN</DistanceMeters>
          </Trackpoint>
          <Trackpoint>
            <Time>2022-07-08T10:05:54.000Z</Time>
            <Position>
              <LatitudeDegrees>43.41205137781798839569091796875</LatitudeDegrees>
              <LongitudeDegrees>-1.62918674759566783905029296875</LongitudeDegrees>
            </Position>
            <AltitudeMeters>56.799999237060546875</AltitudeMeters>
            <DistanceMeters>NAN</DistanceMeters>
          </Trackpoint>
          <Trackpoint>
            <Time>2022-07-08T10:05:55.000Z</Time>
            <Position>
              <LatitudeDegrees>43.41203763149678707122802734375</LatitudeDegrees>
              <LongitudeDegrees>-1.629257909953594207763671875</LongitudeDegrees>
            </Position>
            <AltitudeMeters>56.40000152587890625</AltitudeMeters>
            <DistanceMeters>NAN</DistanceMeters>
          </Trackpoint>
          <Trackpoint>
            <Time>2022-07-08T10:06:01.000Z</Time>
            <Position>
              <LatitudeDegrees>43.4119647927582263946533203125</LatitudeDegrees>
              <LongitudeDegrees>-1.62971765734255313873291015625</LongitudeDegrees>
            </Position>
            <AltitudeMeters>55.59999847412109375</AltitudeMeters>
            <DistanceMeters>NAN</DistanceMeters>
          </Trackpoint>
          <Trackpoint>
            <Time>2022-07-08T10:06:04.000Z</Time>
            <Position>
              <LatitudeDegrees>43.4119148366153240203857421875</LatitudeDegrees>
              <LongitudeDegrees>-1.6299544461071491241455078125</LongitudeDegrees>
            </Position>
            <AltitudeMeters>54.799999237060546875</AltitudeMeters>
            <DistanceMeters>NAN</DistanceMeters>
          </Trackpoint>
          <Trackpoint>
            <Time>2022-07-08T10:06:07.000Z</Time>
            <Position>
              <LatitudeDegrees>43.4118581749498844146728515625</LatitudeDegrees>
              <LongitudeDegrees>-1.63018251769244670867919921875</LongitudeDegrees>
            </Position>
            <AltitudeMeters>54.40000152587890625</AltitudeMeters>
            <DistanceMeters>NAN</DistanceMeters>
          </Trackpoint>
          <Trackpoint>
            <Time>2022-07-08T10:06:12.000Z</Time>
            <Position>
              <LatitudeDegrees>43.411752395331859588623046875</LatitudeDegrees>
              <LongitudeDegrees>-1.6305190511047840118408203125</LongitudeDegrees>
            </Position>
            <AltitudeMeters>54</AltitudeMeters>
            <DistanceMeters>NAN</DistanceMeters>
          </Trackpoint>
          <Trackpoint>
            <Time>2022-07-08T10:06:16.000Z</Time>
            <Position>
              <LatitudeDegrees>43.41167561709880828857421875</LatitudeDegrees>
              <LongitudeDegrees>-1.63073572330176830291748046875</LongitudeDegrees>
            </Position>
            <AltitudeMeters>54.200000762939453125</AltitudeMeters>
            <DistanceMeters>NAN</DistanceMeters>
          </Trackpoint>
          <Trackpoint>
            <Time>2022-07-08T10:06:17.000Z</Time>
            <Position>
              <LatitudeDegrees>43.41166681610047817230224609375</LatitudeDegrees>
              <LongitudeDegrees>-1.63077880628407001495361328125</LongitudeDegrees>
            </Position>
            <AltitudeMeters>54.200000762939453125</AltitudeMeters>
            <DistanceMeters>NAN</DistanceMeters>
          </Trackpoint>
          <Trackpoint>
            <Time>2022-07-08T10:06:19.000Z</Time>
            <Position>
              <LatitudeDegrees>43.41164921410381793975830078125</LatitudeDegrees>
              <LongitudeDegrees>-1.63090218789875507354736328125</LongitudeDegrees>
            </Position>
            <AltitudeMeters>54</AltitudeMeters>
            <DistanceMeters>NAN</DistanceMeters>
          </Trackpoint>
          <Trackpoint>
            <Time>2022-07-08T10:06:21.000Z</Time>
            <Position>
              <LatitudeDegrees>43.411649800837039947509765625</LatitudeDegrees>
              <LongitudeDegrees>-1.63101903162896633148193359375</LongitudeDegrees>
            </Position>
            <AltitudeMeters>53.40000152587890625</AltitudeMeters>
            <DistanceMeters>NAN</DistanceMeters>
          </Trackpoint>
          <Trackpoint>
            <Time>2022-07-08T10:06:22.000Z</Time>
            <Position>
              <LatitudeDegrees>43.4116481244564056396484375</LatitudeDegrees>
              <LongitudeDegrees>-1.63106848485767841339111328125</LongitudeDegrees>
            </Position>
            <AltitudeMeters>53.200000762939453125</AltitudeMeters>
            <DistanceMeters>NAN</DistanceMeters>
          </Trackpoint>
          <Trackpoint>
            <Time>2022-07-08T10:06:25.000Z</Time>
            <Position>
              <LatitudeDegrees>43.41162507422268390655517578125</LatitudeDegrees>
              <LongitudeDegrees>-1.63126931525766849517822265625</LongitudeDegrees>
            </Position>
            <AltitudeMeters>52</AltitudeMeters>
            <DistanceMeters>NAN</DistanceMeters>
          </Trackpoint>
          <Trackpoint>
            <Time>2022-07-08T10:06:28.000Z</Time>
            <Position>
              <LatitudeDegrees>43.41160076670348644256591796875</LatitudeDegrees>
              <LongitudeDegrees>-1.63145556114614009857177734375</LongitudeDegrees>
            </Position>
            <AltitudeMeters>50.799999237060546875</AltitudeMeters>
            <DistanceMeters>NAN</DistanceMeters>
          </Trackpoint>
          <Trackpoint>
            <Time>2022-07-08T10:06:30.000Z</Time>
            <Position>
              <LatitudeDegrees>43.4115926362574100494384765625</LatitudeDegrees>
              <LongitudeDegrees>-1.63154943846166133880615234375</LongitudeDegrees>
            </Position>
            <AltitudeMeters>50.40000152587890625</AltitudeMeters>
            <DistanceMeters>NAN</DistanceMeters>
          </Trackpoint>
          <Trackpoint>
            <Time>2022-07-08T10:06:34.000Z</Time>
            <Position>
              <LatitudeDegrees>43.4115933068096637725830078125</LatitudeDegrees>
              <LongitudeDegrees>-1.63164474070072174072265625</LongitudeDegrees>
            </Position>
            <AltitudeMeters>49.799999237060546875</AltitudeMeters>
            <DistanceMeters>NAN</DistanceMeters>
          </Trackpoint>
          <Trackpoint>
            <Time>2022-07-08T10:06:36.000Z</Time>
            <Position>
              <LatitudeDegrees>43.4115933068096637725830078125</LatitudeDegrees>
              <LongitudeDegrees>-1.63164474070072174072265625</LongitudeDegrees>
            </Position>
            <AltitudeMeters>49.200000762939453125</AltitudeMeters>
            <DistanceMeters>NAN</DistanceMeters>
          </Trackpoint>
          <Trackpoint>
            <Time>2022-07-08T10:09:58.000Z</Time>
            <Position>
              <LatitudeDegrees>43.41158232651650905609130859375</LatitudeDegrees>
              <LongitudeDegrees>-1.6316791065037250518798828125</LongitudeDegrees>
            </Position>
            <AltitudeMeters>48.40000152587890625</AltitudeMeters>
            <DistanceMeters>NAN</DistanceMeters>
          </Trackpoint>
          <Trackpoint>
            <Time>2022-07-08T10:09:59.000Z</Time>
            <Position>
              <LatitudeDegrees>43.4115691669285297393798828125</LatitudeDegrees>
              <LongitudeDegrees>-1.6317210160195827484130859375</LongitudeDegrees>
            </Position>
            <AltitudeMeters>48.40000152587890625</AltitudeMeters>
            <DistanceMeters>NAN</DistanceMeters>
          </Trackpoint>
          <Trackpoint>
            <Time>2022-07-08T10:10:03.000Z</Time>
            <Position>
              <LatitudeDegrees>43.41149850748479366302490234375</LatitudeDegrees>
              <LongitudeDegrees>-1.631947495043277740478515625</LongitudeDegrees>
            </Position>
            <AltitudeMeters>48.200000762939453125</AltitudeMeters>
            <DistanceMeters>NAN</DistanceMeters>
          </Trackpoint>
          <Trackpoint>
            <Time>2022-07-08T10:10:04.000Z</Time>
            <Position>
              <LatitudeDegrees>43.41147738508880138397216796875</LatitudeDegrees>
              <LongitudeDegrees>-1.63201731629669666290283203125</LongitudeDegrees>
            </Position>
            <AltitudeMeters>46.59999847412109375</AltitudeMeters>
            <DistanceMeters>NAN</DistanceMeters>
          </Trackpoint>
          <Trackpoint>
            <Time>2022-07-08T10:10:06.000Z</Time>
            <Position>
              <LatitudeDegrees>43.4114300273358821868896484375</LatitudeDegrees>
              <LongitudeDegrees>-1.63216534070670604705810546875</LongitudeDegrees>
            </Position>
            <AltitudeMeters>45.40000152587890625</AltitudeMeters>
            <DistanceMeters>NAN</DistanceMeters>
          </Trackpoint>
          <Trackpoint>
            <Time>2022-07-08T10:10:07.000Z</Time>
            <Position>
              <LatitudeDegrees>43.41141141951084136962890625</LatitudeDegrees>
              <LongitudeDegrees>-1.63224295713007450103759765625</LongitudeDegrees>
            </Position>
            <AltitudeMeters>45.200000762939453125</AltitudeMeters>
            <DistanceMeters>NAN</DistanceMeters>
          </Trackpoint>
          <Trackpoint>
            <Time>2022-07-08T10:10:09.000Z</Time>
            <Position>
              <LatitudeDegrees>43.4113740362226963043212890625</LatitudeDegrees>
              <LongitudeDegrees>-1.63241260685026645660400390625</LongitudeDegrees>
            </Position>
            <AltitudeMeters>45.40000152587890625</AltitudeMeters>
            <DistanceMeters>NAN</DistanceMeters>
          </Trackpoint>
          <Trackpoint>
            <Time>2022-07-08T10:10:14.000Z</Time>
            <Position>
              <LatitudeDegrees>43.41125124134123325347900390625</LatitudeDegrees>
              <LongitudeDegrees>-1.63291074335575103759765625</LongitudeDegrees>
            </Position>
            <AltitudeMeters>45.59999847412109375</AltitudeMeters>
            <DistanceMeters>NAN</DistanceMeters>
          </Trackpoint>
          <Trackpoint>
            <Time>2022-07-08T10:10:16.000Z</Time>
            <Position>
              <LatitudeDegrees>43.41121084056794643402099609375</LatitudeDegrees>
              <LongitudeDegrees>-1.63309640251100063323974609375</LongitudeDegrees>
            </Position>
            <AltitudeMeters>45.200000762939453125</AltitudeMeters>
            <DistanceMeters>NAN</DistanceMeters>
          </Trackpoint>
          <Trackpoint>
            <Time>2022-07-08T10:10:18.000Z</Time>
            <Position>
              <LatitudeDegrees>43.41115334071218967437744140625</LatitudeDegrees>
              <LongitudeDegrees>-1.63330930285155773162841796875</LongitudeDegrees>
            </Position>
            <AltitudeMeters>44.200000762939453125</AltitudeMeters>
            <DistanceMeters>NAN</DistanceMeters>
          </Trackpoint>
          <Trackpoint>
            <Time>2022-07-08T10:10:21.000Z</Time>
            <Position>
              <LatitudeDegrees>43.411061055958271026611328125</LatitudeDegrees>
              <LongitudeDegrees>-1.6336357779800891876220703125</LongitudeDegrees>
            </Position>
            <AltitudeMeters>43</AltitudeMeters>
            <DistanceMeters>NAN</DistanceMeters>
          </Trackpoint>
          <Trackpoint>
            <Time>2022-07-08T10:10:22.000Z</Time>
            <Position>
              <LatitudeDegrees>43.41103230603039264678955078125</LatitudeDegrees>
              <LongitudeDegrees>-1.633742563426494598388671875</LongitudeDegrees>
            </Position>
            <AltitudeMeters>42.59999847412109375</AltitudeMeters>
            <DistanceMeters>NAN</DistanceMeters>
          </Trackpoint>
          <Trackpoint>
            <Time>2022-07-08T10:10:23.000Z</Time>
            <Position>
              <LatitudeDegrees>43.41099525801837444305419921875</LatitudeDegrees>
              <LongitudeDegrees>-1.6338738240301609039306640625</LongitudeDegrees>
            </Position>
            <AltitudeMeters>41.59999847412109375</AltitudeMeters>
            <DistanceMeters>NAN</DistanceMeters>
          </Trackpoint>
          <Trackpoint>
            <Time>2022-07-08T10:10:26.000Z</Time>
            <Position>
              <LatitudeDegrees>43.41090775094926357269287109375</LatitudeDegrees>
              <LongitudeDegrees>-1.63420985452830791473388671875</LongitudeDegrees>
            </Position>
            <AltitudeMeters>40.40000152587890625</AltitudeMeters>
            <DistanceMeters>NAN</DistanceMeters>
          </Trackpoint>
          <Trackpoint>
            <Time>2022-07-08T10:10:31.000Z</Time>
            <Position>
              <LatitudeDegrees>43.41075335629284381866455078125</LatitudeDegrees>
              <LongitudeDegrees>-1.63471050560474395751953125</LongitudeDegrees>
            </Position>
            <AltitudeMeters>40</AltitudeMeters>
            <DistanceMeters>NAN</DistanceMeters>
          </Trackpoint>
          <Trackpoint>
            <Time>2022-07-08T10:10:33.000Z</Time>
            <Position>
              <LatitudeDegrees>43.41067439876496791839599609375</LatitudeDegrees>
              <LongitudeDegrees>-1.63489700295031070709228515625</LongitudeDegrees>
            </Position>
            <AltitudeMeters>39.40000152587890625</AltitudeMeters>
            <DistanceMeters>NAN</DistanceMeters>
          </Trackpoint>
          <Trackpoint>
            <Time>2022-07-08T10:10:36.000Z</Time>
            <Position>
              <LatitudeDegrees>43.41053525917232036590576171875</LatitudeDegrees>
              <LongitudeDegrees>-1.63513907231390476226806640625</LongitudeDegrees>
            </Position>
            <AltitudeMeters>38.799999237060546875</AltitudeMeters>
            <DistanceMeters>NAN</DistanceMeters>
          </Trackpoint>
          <Trackpoint>
            <Time>2022-07-08T10:10:40.000Z</Time>
            <Position>
              <LatitudeDegrees>43.410335518419742584228515625</LatitudeDegrees>
              <LongitudeDegrees>-1.63538499735295772552490234375</LongitudeDegrees>
            </Position>
            <AltitudeMeters>38.200000762939453125</AltitudeMeters>
            <DistanceMeters>NAN</DistanceMeters>
          </Trackpoint>
          <Trackpoint>
            <Time>2022-07-08T10:10:41.000Z</Time>
            <Position>
              <LatitudeDegrees>43.41028564609587192535400390625</LatitudeDegrees>
              <LongitudeDegrees>-1.63543738424777984619140625</LongitudeDegrees>
            </Position>
            <AltitudeMeters>38.200000762939453125</AltitudeMeters>
            <DistanceMeters>NAN</DistanceMeters>
          </Trackpoint>
          <Trackpoint>
            <Time>2022-07-08T10:10:48.000Z</Time>
            <Position>
              <LatitudeDegrees>43.40994282625615596771240234375</LatitudeDegrees>
              <LongitudeDegrees>-1.635744161903858184814453125</LongitudeDegrees>
            </Position>
            <AltitudeMeters>37.40000152587890625</AltitudeMeters>
            <DistanceMeters>NAN</DistanceMeters>
          </Trackpoint>
          <Trackpoint>
            <Time>2022-07-08T10:10:52.000Z</Time>
            <Position>
              <LatitudeDegrees>43.40974451042711734771728515625</LatitudeDegrees>
              <LongitudeDegrees>-1.6358838044106960296630859375</LongitudeDegrees>
            </Position>
            <AltitudeMeters>37.200000762939453125</AltitudeMeters>
            <DistanceMeters>NAN</DistanceMeters>
          </Trackpoint>
          <Trackpoint>
            <Time>2022-07-08T10:10:55.000Z</Time>
            <Position>
              <LatitudeDegrees>43.40960235334932804107666015625</LatitudeDegrees>
              <LongitudeDegrees>-1.6359813697636127471923828125</LongitudeDegrees>
            </Position>
            <AltitudeMeters>37</AltitudeMeters>
            <DistanceMeters>NAN</DistanceMeters>
          </Trackpoint>
          <Trackpoint>
            <Time>2022-07-08T10:10:58.000Z</Time>
            <Position>
              <LatitudeDegrees>43.409489952027797698974609375</LatitudeDegrees>
              <LongitudeDegrees>-1.63607667200267314910888671875</LongitudeDegrees>
            </Position>
            <AltitudeMeters>36.799999237060546875</AltitudeMeters>
            <DistanceMeters>NAN</DistanceMeters>
          </Trackpoint>
          <Trackpoint>
            <Time>2022-07-08T10:10:59.000Z</Time>
            <Position>
              <LatitudeDegrees>43.4094433486461639404296875</LatitudeDegrees>
              <LongitudeDegrees>-1.6361221857368946075439453125</LongitudeDegrees>
            </Position>
            <AltitudeMeters>36.799999237060546875</AltitudeMeters>
            <DistanceMeters>NAN</DistanceMeters>
          </Trackpoint>
          <Trackpoint>
            <Time>2022-07-08T10:11:01.000Z</Time>
            <Position>
              <LatitudeDegrees>43.4093717671930789947509765625</LatitudeDegrees>
              <LongitudeDegrees>-1.63619988597929477691650390625</LongitudeDegrees>
            </Position>
            <AltitudeMeters>36.799999237060546875</AltitudeMeters>
            <DistanceMeters>NAN</DistanceMeters>
          </Trackpoint>
          <Trackpoint>
            <Time>2022-07-08T10:11:06.000Z</Time>
            <Position>
              <LatitudeDegrees>43.40923824347555637359619140625</LatitudeDegrees>
              <LongitudeDegrees>-1.6363900713622570037841796875</LongitudeDegrees>
            </Position>
            <AltitudeMeters>36.799999237060546875</AltitudeMeters>
            <DistanceMeters>NAN</DistanceMeters>
          </Trackpoint>
          <Trackpoint>
            <Time>2022-07-08T10:11:08.000Z</Time>
            <Position>
              <LatitudeDegrees>43.40920119546353816986083984375</LatitudeDegrees>
              <LongitudeDegrees>-1.636459641158580780029296875</LongitudeDegrees>
            </Position>
            <AltitudeMeters>37</AltitudeMeters>
            <DistanceMeters>NAN</DistanceMeters>
          </Trackpoint>
          <Trackpoint>
            <Time>2022-07-08T10:11:13.000Z</Time>
            <Position>
              <LatitudeDegrees>43.40914838947355747222900390625</LatitudeDegrees>
              <LongitudeDegrees>-1.6365499980747699737548828125</LongitudeDegrees>
            </Position>
            <AltitudeMeters>37</AltitudeMeters>
            <DistanceMeters>NAN</DistanceMeters>
          </Trackpoint>
          <Trackpoint>
            <Time>2022-07-08T10:11:14.000Z</Time>
            <Position>
              <LatitudeDegrees>43.40914838947355747222900390625</LatitudeDegrees>
              <LongitudeDegrees>-1.6365499980747699737548828125</LongitudeDegrees>
            </Position>
            <AltitudeMeters>36.799999237060546875</AltitudeMeters>
            <DistanceMeters>NAN</DistanceMeters>
          </Trackpoint>
          <Trackpoint>
            <Time>2022-07-08T10:11:23.000Z</Time>
            <Position>
              <LatitudeDegrees>43.40916599147021770477294921875</LatitudeDegrees>
              <LongitudeDegrees>-1.6365801729261875152587890625</LongitudeDegrees>
            </Position>
            <AltitudeMeters>35.799999237060546875</AltitudeMeters>
            <DistanceMeters>NAN</DistanceMeters>
          </Trackpoint>
          <Trackpoint>
            <Time>2022-07-08T10:11:25.000Z</Time>
            <Position>
              <LatitudeDegrees>43.4091712720692157745361328125</LatitudeDegrees>
              <LongitudeDegrees>-1.63658671081066131591796875</LongitudeDegrees>
            </Position>
            <AltitudeMeters>35.200000762939453125</AltitudeMeters>
            <DistanceMeters>NAN</DistanceMeters>
          </Trackpoint>
          <Trackpoint>
            <Time>2022-07-08T10:12:03.000Z</Time>
            <Position>
              <LatitudeDegrees>43.4091724455356597900390625</LatitudeDegrees>
              <LongitudeDegrees>-1.63664647378027439117431640625</LongitudeDegrees>
            </Position>
            <AltitudeMeters>34.59999847412109375</AltitudeMeters>
            <DistanceMeters>NAN</DistanceMeters>
          </Trackpoint>
          <Trackpoint>
            <Time>2022-07-08T10:12:05.000Z</Time>
            <Position>
              <LatitudeDegrees>43.40915836393833160400390625</LatitudeDegrees>
              <LongitudeDegrees>-1.6367469727993011474609375</LongitudeDegrees>
            </Position>
            <AltitudeMeters>34.59999847412109375</AltitudeMeters>
            <DistanceMeters>NAN</DistanceMeters>
          </Trackpoint>
          <Trackpoint>
            <Time>2022-07-08T10:12:08.000Z</Time>
            <Position>
              <LatitudeDegrees>43.4091174602508544921875</LatitudeDegrees>
              <LongitudeDegrees>-1.6369335539638996124267578125</LongitudeDegrees>
            </Position>
            <AltitudeMeters>33.59999847412109375</AltitudeMeters>
            <DistanceMeters>NAN</DistanceMeters>
          </Trackpoint>
          <Trackpoint>
            <Time>2022-07-08T10:12:09.000Z</Time>
            <Position>
              <LatitudeDegrees>43.40909860096871852874755859375</LatitudeDegrees>
              <LongitudeDegrees>-1.6369925625622272491455078125</LongitudeDegrees>
            </Position>
            <AltitudeMeters>32.799999237060546875</AltitudeMeters>
            <DistanceMeters>NAN</DistanceMeters>
          </Trackpoint>
          <Trackpoint>
            <Time>2022-07-08T10:12:10.000Z</Time>
            <Position>
              <LatitudeDegrees>43.409071862697601318359375</LatitudeDegrees>
              <LongitudeDegrees>-1.63705048151314258575439453125</LongitudeDegrees>
            </Position>
            <AltitudeMeters>32.200000762939453125</AltitudeMeters>
            <DistanceMeters>NAN</DistanceMeters>
          </Trackpoint>
          <Trackpoint>
            <Time>2022-07-08T10:12:11.000Z</Time>
            <Position>
              <LatitudeDegrees>43.40903003700077533721923828125</LatitudeDegrees>
              <LongitudeDegrees>-1.63711384870111942291259765625</LongitudeDegrees>
            </Position>
            <AltitudeMeters>31.3999996185302734375</AltitudeMeters>
            <DistanceMeters>NAN</DistanceMeters>
          </Trackpoint>
          <Trackpoint>
            <Time>2022-07-08T10:12:12.000Z</Time>
            <Position>
              <LatitudeDegrees>43.408999778330326080322265625</LatitudeDegrees>
              <LongitudeDegrees>-1.63715089671313762664794921875</LongitudeDegrees>
            </Position>
            <AltitudeMeters>30.3999996185302734375</AltitudeMeters>
            <DistanceMeters>NAN</DistanceMeters>
          </Trackpoint>
          <Trackpoint>
            <Time>2022-07-08T10:12:13.000Z</Time>
            <Position>
              <LatitudeDegrees>43.40895853936672210693359375</LatitudeDegrees>
              <LongitudeDegrees>-1.637193895876407623291015625</LongitudeDegrees>
            </Position>
            <AltitudeMeters>29.200000762939453125</AltitudeMeters>
            <DistanceMeters>NAN</DistanceMeters>
          </Trackpoint>
          <Trackpoint>
            <Time>2022-07-08T10:12:14.000Z</Time>
            <Position>
              <LatitudeDegrees>43.40891201980412006378173828125</LatitudeDegrees>
              <LongitudeDegrees>-1.6372376494109630584716796875</LongitudeDegrees>
            </Position>
            <AltitudeMeters>28.200000762939453125</AltitudeMeters>
            <DistanceMeters>NAN</DistanceMeters>
          </Trackpoint>
          <Trackpoint>
            <Time>2022-07-08T10:12:15.000Z</Time>
            <Position>
              <LatitudeDegrees>43.4088685177266597747802734375</LatitudeDegrees>
              <LongitudeDegrees>-1.637287102639675140380859375</LongitudeDegrees>
            </Position>
            <AltitudeMeters>27.3999996185302734375</AltitudeMeters>
            <DistanceMeters>NAN</DistanceMeters>
          </Trackpoint>
          <Trackpoint>
            <Time>2022-07-08T10:12:17.000Z</Time>
            <Position>
              <LatitudeDegrees>43.40878897346556186676025390625</LatitudeDegrees>
              <LongitudeDegrees>-1.637403778731822967529296875</LongitudeDegrees>
            </Position>
            <AltitudeMeters>26.3999996185302734375</AltitudeMeters>
            <DistanceMeters>NAN</DistanceMeters>
          </Trackpoint>
          <Trackpoint>
            <Time>2022-07-08T10:12:20.000Z</Time>
            <Position>
              <LatitudeDegrees>43.40868336148560047149658203125</LatitudeDegrees>
              <LongitudeDegrees>-1.63757619448006153106689453125</LongitudeDegrees>
            </Position>
            <AltitudeMeters>25.6000003814697265625</AltitudeMeters>
            <DistanceMeters>NAN</DistanceMeters>
          </Trackpoint>
          <Trackpoint>
            <Time>2022-07-08T10:12:21.000Z</Time>
            <Position>
              <LatitudeDegrees>43.4086494147777557373046875</LatitudeDegrees>
              <LongitudeDegrees>-1.6376342810690402984619140625</LongitudeDegrees>
            </Position>
            <AltitudeMeters>25.200000762939453125</AltitudeMeters>
            <DistanceMeters>NAN</DistanceMeters>
          </Trackpoint>
          <Trackpoint>
            <Time>2022-07-08T10:12:24.000Z</Time>
            <Position>
              <LatitudeDegrees>43.4085984528064727783203125</LatitudeDegrees>
              <LongitudeDegrees>-1.63773260079324245452880859375</LongitudeDegrees>
            </Position>
            <AltitudeMeters>24.3999996185302734375</AltitudeMeters>
            <DistanceMeters>NAN</DistanceMeters>
          </Trackpoint>
          <Trackpoint>
            <Time>2022-07-08T10:12:26.000Z</Time>
            <Position>
              <LatitudeDegrees>43.408567942678928375244140625</LatitudeDegrees>
              <LongitudeDegrees>-1.63779177702963352203369140625</LongitudeDegrees>
            </Position>
            <AltitudeMeters>24.200000762939453125</AltitudeMeters>
            <DistanceMeters>NAN</DistanceMeters>
          </Trackpoint>
          <Trackpoint>
            <Time>2022-07-08T10:12:27.000Z</Time>
            <Position>
              <LatitudeDegrees>43.40855377726256847381591796875</LatitudeDegrees>
              <LongitudeDegrees>-1.637804098427295684814453125</LongitudeDegrees>
            </Position>
            <AltitudeMeters>23.799999237060546875</AltitudeMeters>
            <DistanceMeters>NAN</DistanceMeters>
          </Trackpoint>
          <Trackpoint>
            <Time>2022-07-08T10:12:29.000Z</Time>
            <Position>
              <LatitudeDegrees>43.40851463377475738525390625</LatitudeDegrees>
              <LongitudeDegrees>-1.6378123126924037933349609375</LongitudeDegrees>
            </Position>
            <AltitudeMeters>23.6000003814697265625</AltitudeMeters>
            <DistanceMeters>NAN</DistanceMeters>
          </Trackpoint>
          <Trackpoint>
            <Time>2022-07-08T10:12:33.000Z</Time>
            <Position>
              <LatitudeDegrees>43.40841799043118953704833984375</LatitudeDegrees>
              <LongitudeDegrees>-1.63794617168605327606201171875</LongitudeDegrees>
            </Position>
            <AltitudeMeters>23</AltitudeMeters>
            <DistanceMeters>NAN</DistanceMeters>
          </Trackpoint>
          <Trackpoint>
            <Time>2022-07-08T10:12:36.000Z</Time>
            <Position>
              <LatitudeDegrees>43.40831371955573558807373046875</LatitudeDegrees>
              <LongitudeDegrees>-1.63809277117252349853515625</LongitudeDegrees>
            </Position>
            <AltitudeMeters>22.6000003814697265625</AltitudeMeters>
            <DistanceMeters>NAN</DistanceMeters>
          </Trackpoint>
          <Trackpoint>
            <Time>2022-07-08T10:12:38.000Z</Time>
            <Position>
              <LatitudeDegrees>43.4082492627203464508056640625</LatitudeDegrees>
              <LongitudeDegrees>-1.63821472786366939544677734375</LongitudeDegrees>
            </Position>
            <AltitudeMeters>21.799999237060546875</AltitudeMeters>
            <DistanceMeters>NAN</DistanceMeters>
          </Trackpoint>
          <Trackpoint>
            <Time>2022-07-08T10:12:41.000Z</Time>
            <Position>
              <LatitudeDegrees>43.40817223303020000457763671875</LatitudeDegrees>
              <LongitudeDegrees>-1.6383980400860309600830078125</LongitudeDegrees>
            </Position>
            <AltitudeMeters>20.799999237060546875</AltitudeMeters>
            <DistanceMeters>NAN</DistanceMeters>
          </Trackpoint>
          <Trackpoint>
            <Time>2022-07-08T10:12:43.000Z</Time>
            <Position>
              <LatitudeDegrees>43.408098556101322174072265625</LatitudeDegrees>
              <LongitudeDegrees>-1.6384835354983806610107421875</LongitudeDegrees>
            </Position>
            <AltitudeMeters>19.799999237060546875</AltitudeMeters>
            <DistanceMeters>NAN</DistanceMeters>
          </Trackpoint>
          <Trackpoint>
            <Time>2022-07-08T10:12:45.000Z</Time>
            <Position>
              <LatitudeDegrees>43.40800576843321323394775390625</LatitudeDegrees>
              <LongitudeDegrees>-1.638502813875675201416015625</LongitudeDegrees>
            </Position>
            <AltitudeMeters>19.3999996185302734375</AltitudeMeters>
            <DistanceMeters>NAN</DistanceMeters>
          </Trackpoint>
          <Trackpoint>
            <Time>2022-07-08T10:12:46.000Z</Time>
            <Position>
              <LatitudeDegrees>43.4079652838408946990966796875</LatitudeDegrees>
              <LongitudeDegrees>-1.6384796798229217529296875</LongitudeDegrees>
            </Position>
            <AltitudeMeters>18.799999237060546875</AltitudeMeters>
            <DistanceMeters>NAN</DistanceMeters>
          </Trackpoint>
          <Trackpoint>
            <Time>2022-07-08T10:12:47.000Z</Time>
            <Position>
              <LatitudeDegrees>43.4079267270863056182861328125</LatitudeDegrees>
              <LongitudeDegrees>-1.6384419612586498260498046875</LongitudeDegrees>
            </Position>
            <AltitudeMeters>18.3999996185302734375</AltitudeMeters>
            <DistanceMeters>NAN</DistanceMeters>
          </Trackpoint>
          <Trackpoint>
            <Time>2022-07-08T10:12:50.000Z</Time>
            <Position>
              <LatitudeDegrees>43.40782220475375652313232421875</LatitudeDegrees>
              <LongitudeDegrees>-1.63831111975014209747314453125</LongitudeDegrees>
            </Position>
            <AltitudeMeters>18</AltitudeMeters>
            <DistanceMeters>NAN</DistanceMeters>
          </Trackpoint>
          <Trackpoint>
            <Time>2022-07-08T10:12:56.000Z</Time>
            <Position>
              <LatitudeDegrees>43.407652638852596282958984375</LatitudeDegrees>
              <LongitudeDegrees>-1.6381036676466464996337890625</LongitudeDegrees>
            </Position>
            <AltitudeMeters>18</AltitudeMeters>
            <DistanceMeters>NAN</DistanceMeters>
          </Trackpoint>
          <Trackpoint>
            <Time>2022-07-08T10:12:59.000Z</Time>
            <Position>
              <LatitudeDegrees>43.40756052173674106597900390625</LatitudeDegrees>
              <LongitudeDegrees>-1.63819192908704280853271484375</LongitudeDegrees>
            </Position>
            <AltitudeMeters>18.200000762939453125</AltitudeMeters>
            <DistanceMeters>NAN</DistanceMeters>
          </Trackpoint>
          <Trackpoint>
            <Time>2022-07-08T10:13:01.000Z</Time>
            <Position>
              <LatitudeDegrees>43.4075438417494297027587890625</LatitudeDegrees>
              <LongitudeDegrees>-1.6383189149200916290283203125</LongitudeDegrees>
            </Position>
            <AltitudeMeters>18.3999996185302734375</AltitudeMeters>
            <DistanceMeters>NAN</DistanceMeters>
          </Trackpoint>
          <Trackpoint>
            <Time>2022-07-08T10:13:02.000Z</Time>
            <Position>
              <LatitudeDegrees>43.4075599350035190582275390625</LatitudeDegrees>
              <LongitudeDegrees>-1.63836828432977199554443359375</LongitudeDegrees>
            </Position>
            <AltitudeMeters>18.200000762939453125</AltitudeMeters>
            <DistanceMeters>NAN</DistanceMeters>
          </Trackpoint>
          <Trackpoint>
            <Time>2022-07-08T10:13:08.000Z</Time>
            <Position>
              <LatitudeDegrees>43.4076695702970027923583984375</LatitudeDegrees>
              <LongitudeDegrees>-1.63861890323460102081298828125</LongitudeDegrees>
            </Position>
            <AltitudeMeters>18.200000762939453125</AltitudeMeters>
            <DistanceMeters>NAN</DistanceMeters>
          </Trackpoint>
          <Trackpoint>
            <Time>2022-07-08T10:13:13.000Z</Time>
            <Position>
              <LatitudeDegrees>43.407766632735729217529296875</LatitudeDegrees>
              <LongitudeDegrees>-1.63882392458617687225341796875</LongitudeDegrees>
            </Position>
            <AltitudeMeters>18.200000762939453125</AltitudeMeters>
            <DistanceMeters>NAN</DistanceMeters>
          </Trackpoint>
          <Trackpoint>
            <Time>2022-07-08T10:13:15.000Z</Time>
            <Position>
              <LatitudeDegrees>43.4078063629567623138427734375</LatitudeDegrees>
              <LongitudeDegrees>-1.63888360373675823211669921875</LongitudeDegrees>
            </Position>
            <AltitudeMeters>18.3999996185302734375</AltitudeMeters>
            <DistanceMeters>NAN</DistanceMeters>
          </Trackpoint>
          <Trackpoint>
            <Time>2022-07-08T10:13:21.000Z</Time>
            <Position>
              <LatitudeDegrees>43.40787760913372039794921875</LatitudeDegrees>
              <LongitudeDegrees>-1.63899625651538372039794921875</LongitudeDegrees>
            </Position>
            <AltitudeMeters>19</AltitudeMeters>
            <DistanceMeters>NAN</DistanceMeters>
          </Trackpoint>
          <Trackpoint>
            <Time>2022-07-08T10:13:24.000Z</Time>
            <Position>
              <LatitudeDegrees>43.40788205154240131378173828125</LatitudeDegrees>
              <LongitudeDegrees>-1.63906507194042205810546875</LongitudeDegrees>
            </Position>
            <AltitudeMeters>19.6000003814697265625</AltitudeMeters>
            <DistanceMeters>NAN</DistanceMeters>
          </Trackpoint>
          <Trackpoint>
            <Time>2022-07-08T10:13:26.000Z</Time>
            <Position>
              <LatitudeDegrees>43.40786294080317020416259765625</LatitudeDegrees>
              <LongitudeDegrees>-1.6391151957213878631591796875</LongitudeDegrees>
            </Position>
            <AltitudeMeters>20</AltitudeMeters>
            <DistanceMeters>NAN</DistanceMeters>
          </Trackpoint>
          <Trackpoint>
            <Time>2022-07-08T10:13:32.000Z</Time>
            <Position>
              <LatitudeDegrees>43.40778197161853313446044921875</LatitudeDegrees>
              <LongitudeDegrees>-1.6392925567924976348876953125</LongitudeDegrees>
            </Position>
            <AltitudeMeters>20.3999996185302734375</AltitudeMeters>
            <DistanceMeters>NAN</DistanceMeters>
          </Trackpoint>
          <Trackpoint>
            <Time>2022-07-08T10:13:38.000Z</Time>
            <Position>
              <LatitudeDegrees>43.407690860331058502197265625</LatitudeDegrees>
              <LongitudeDegrees>-1.6394907049834728240966796875</LongitudeDegrees>
            </Position>
            <AltitudeMeters>20</AltitudeMeters>
            <DistanceMeters>NAN</DistanceMeters>
          </Trackpoint>
          <Trackpoint>
            <Time>2022-07-08T10:13:40.000Z</Time>
            <Position>
              <LatitudeDegrees>43.40766169130802154541015625</LatitudeDegrees>
              <LongitudeDegrees>-1.63955884985625743865966796875</LongitudeDegrees>
            </Position>
            <AltitudeMeters>19.799999237060546875</AltitudeMeters>
            <DistanceMeters>NAN</DistanceMeters>
          </Trackpoint>
          <Trackpoint>
            <Time>2022-07-08T10:13:49.000Z</Time>
            <Position>
              <LatitudeDegrees>43.407521545886993408203125</LatitudeDegrees>
              <LongitudeDegrees>-1.63982413709163665771484375</LongitudeDegrees>
            </Position>
            <AltitudeMeters>19.799999237060546875</AltitudeMeters>
            <DistanceMeters>NAN</DistanceMeters>
          </Trackpoint>
          <Trackpoint>
            <Time>2022-07-08T10:13:57.000Z</Time>
            <Position>
              <LatitudeDegrees>43.40742523781955242156982421875</LatitudeDegrees>
              <LongitudeDegrees>-1.64007492363452911376953125</LongitudeDegrees>
            </Position>
            <AltitudeMeters>19.3999996185302734375</AltitudeMeters>
            <DistanceMeters>NAN</DistanceMeters>
          </Trackpoint>
          <Trackpoint>
            <Time>2022-07-08T10:14:07.000Z</Time>
            <Position>
              <LatitudeDegrees>43.40728844515979290008544921875</LatitudeDegrees>
              <LongitudeDegrees>-1.640376336872577667236328125</LongitudeDegrees>
            </Position>
            <AltitudeMeters>19.6000003814697265625</AltitudeMeters>
            <DistanceMeters>NAN</DistanceMeters>
          </Trackpoint>
          <Trackpoint>
            <Time>2022-07-08T10:14:15.000Z</Time>
            <Position>
              <LatitudeDegrees>43.4071649797260761260986328125</LatitudeDegrees>
              <LongitudeDegrees>-1.64059535600244998931884765625</LongitudeDegrees>
            </Position>
            <AltitudeMeters>19.6000003814697265625</AltitudeMeters>
            <DistanceMeters>NAN</DistanceMeters>
          </Trackpoint>
          <Trackpoint>
            <Time>2022-07-08T10:14:17.000Z</Time>
            <Position>
              <LatitudeDegrees>43.4071438573300838470458984375</LatitudeDegrees>
              <LongitudeDegrees>-1.64065570570528507232666015625</LongitudeDegrees>
            </Position>
            <AltitudeMeters>18.6000003814697265625</AltitudeMeters>
            <DistanceMeters>NAN</DistanceMeters>
          </Trackpoint>
          <Trackpoint>
            <Time>2022-07-08T10:14:22.000Z</Time>
            <Position>
              <LatitudeDegrees>43.4070757962763309478759765625</LatitudeDegrees>
              <LongitudeDegrees>-1.64080607704818248748779296875</LongitudeDegrees>
            </Position>
            <AltitudeMeters>19</AltitudeMeters>
            <DistanceMeters>NAN</DistanceMeters>
          </Trackpoint>
          <Trackpoint>
            <Time>2022-07-08T10:14:23.000Z</Time>
            <Position>
              <LatitudeDegrees>43.4070630557835102081298828125</LatitudeDegrees>
              <LongitudeDegrees>-1.64083407260477542877197265625</LongitudeDegrees>
            </Position>
            <AltitudeMeters>19.6000003814697265625</AltitudeMeters>
            <DistanceMeters>NAN</DistanceMeters>
          </Trackpoint>
          <Trackpoint>
            <Time>2022-07-08T10:14:24.000Z</Time>
            <Position>
              <LatitudeDegrees>43.4070506505668163299560546875</LatitudeDegrees>
              <LongitudeDegrees>-1.640861816704273223876953125</LongitudeDegrees>
            </Position>
            <AltitudeMeters>19.799999237060546875</AltitudeMeters>
            <DistanceMeters>NAN</DistanceMeters>
          </Trackpoint>
          <Trackpoint>
            <Time>2022-07-08T10:14:32.000Z</Time>
            <Position>
              <LatitudeDegrees>43.40695803053677082061767578125</LatitudeDegrees>
              <LongitudeDegrees>-1.6410691849887371063232421875</LongitudeDegrees>
            </Position>
            <AltitudeMeters>19.6000003814697265625</AltitudeMeters>
            <DistanceMeters>NAN</DistanceMeters>
          </Trackpoint>
          <Trackpoint>
            <Time>2022-07-08T10:14:39.000Z</Time>
            <Position>
              <LatitudeDegrees>43.4068152867257595062255859375</LatitudeDegrees>
              <LongitudeDegrees>-1.641278564929962158203125</LongitudeDegrees>
            </Position>
            <AltitudeMeters>19.200000762939453125</AltitudeMeters>
            <DistanceMeters>NAN</DistanceMeters>
          </Trackpoint>
          <Trackpoint>
            <Time>2022-07-08T10:14:48.000Z</Time>
            <Position>
              <LatitudeDegrees>43.40660221874713897705078125</LatitudeDegrees>
              <LongitudeDegrees>-1.641632616519927978515625</LongitudeDegrees>
            </Position>
            <AltitudeMeters>19.200000762939453125</AltitudeMeters>
            <DistanceMeters>NAN</DistanceMeters>
          </Trackpoint>
          <Trackpoint>
            <Time>2022-07-08T10:14:56.000Z</Time>
            <Position>
              <LatitudeDegrees>43.4063837863504886627197265625</LatitudeDegrees>
              <LongitudeDegrees>-1.64183713495731353759765625</LongitudeDegrees>
            </Position>
            <AltitudeMeters>19.3999996185302734375</AltitudeMeters>
            <DistanceMeters>NAN</DistanceMeters>
          </Trackpoint>
          <Trackpoint>
            <Time>2022-07-08T10:15:05.000Z</Time>
            <Position>
              <LatitudeDegrees>43.40614297427237033843994140625</LatitudeDegrees>
              <LongitudeDegrees>-1.641987673938274383544921875</LongitudeDegrees>
            </Position>
            <AltitudeMeters>20</AltitudeMeters>
            <DistanceMeters>NAN</DistanceMeters>
          </Trackpoint>
          <Trackpoint>
            <Time>2022-07-08T10:15:12.000Z</Time>
            <Position>
              <LatitudeDegrees>43.4059707261621952056884765625</LatitudeDegrees>
              <LongitudeDegrees>-1.64209353737533092498779296875</LongitudeDegrees>
            </Position>
            <AltitudeMeters>20.3999996185302734375</AltitudeMeters>
            <DistanceMeters>NAN</DistanceMeters>
          </Trackpoint>
          <Trackpoint>
            <Time>2022-07-08T10:15:14.000Z</Time>
            <Position>
              <LatitudeDegrees>43.4059241227805614471435546875</LatitudeDegrees>
              <LongitudeDegrees>-1.64212488569319248199462890625</LongitudeDegrees>
            </Position>
            <AltitudeMeters>20.6000003814697265625</AltitudeMeters>
            <DistanceMeters>NAN</DistanceMeters>
          </Trackpoint>
          <Trackpoint>
            <Time>2022-07-08T10:15:17.000Z</Time>
            <Position>
              <LatitudeDegrees>43.4058530442416667938232421875</LatitudeDegrees>
              <LongitudeDegrees>-1.642154641449451446533203125</LongitudeDegrees>
            </Position>
            <AltitudeMeters>20.799999237060546875</AltitudeMeters>
            <DistanceMeters>NAN</DistanceMeters>
          </Trackpoint>
          <Trackpoint>
            <Time>2022-07-08T10:15:22.000Z</Time>
            <Position>
              <LatitudeDegrees>43.40573578141629695892333984375</LatitudeDegrees>
              <LongitudeDegrees>-1.64221800863742828369140625</LongitudeDegrees>
            </Position>
            <AltitudeMeters>21.200000762939453125</AltitudeMeters>
            <DistanceMeters>NAN</DistanceMeters>
          </Trackpoint>
          <Trackpoint>
            <Time>2022-07-08T10:15:29.000Z</Time>
            <Position>
              <LatitudeDegrees>43.40557719580829143524169921875</LatitudeDegrees>
              <LongitudeDegrees>-1.64230342023074626922607421875</LongitudeDegrees>
            </Position>
            <AltitudeMeters>21.6000003814697265625</AltitudeMeters>
            <DistanceMeters>NAN</DistanceMeters>
          </Trackpoint>
          <Trackpoint>
            <Time>2022-07-08T10:15:37.000Z</Time>
            <Position>
              <LatitudeDegrees>43.4053749404847621917724609375</LatitudeDegrees>
              <LongitudeDegrees>-1.6424233652651309967041015625</LongitudeDegrees>
            </Position>
            <AltitudeMeters>21.6000003814697265625</AltitudeMeters>
            <DistanceMeters>NAN</DistanceMeters>
          </Trackpoint>
          <Trackpoint>
            <Time>2022-07-08T10:15:43.000Z</Time>
            <Position>
              <LatitudeDegrees>43.4052428416907787322998046875</LatitudeDegrees>
              <LongitudeDegrees>-1.6425095312297344207763671875</LongitudeDegrees>
            </Position>
            <AltitudeMeters>22</AltitudeMeters>
            <DistanceMeters>NAN</DistanceMeters>
          </Trackpoint>
          <Trackpoint>
            <Time>2022-07-08T10:15:45.000Z</Time>
            <Position>
              <LatitudeDegrees>43.4051995910704135894775390625</LatitudeDegrees>
              <LongitudeDegrees>-1.64251464419066905975341796875</LongitudeDegrees>
            </Position>
            <AltitudeMeters>22.3999996185302734375</AltitudeMeters>
            <DistanceMeters>NAN</DistanceMeters>
          </Trackpoint>
          <Trackpoint>
            <Time>2022-07-08T10:15:46.000Z</Time>
            <Position>
              <LatitudeDegrees>43.4051804803311824798583984375</LatitudeDegrees>
              <LongitudeDegrees>-1.6425135545432567596435546875</LongitudeDegrees>
            </Position>
            <AltitudeMeters>22.3999996185302734375</AltitudeMeters>
            <DistanceMeters>NAN</DistanceMeters>
          </Trackpoint>
          <Trackpoint>
            <Time>2022-07-08T10:15:50.000Z</Time>
            <Position>
              <LatitudeDegrees>43.40509607456624507904052734375</LatitudeDegrees>
              <LongitudeDegrees>-1.642523109912872314453125</LongitudeDegrees>
            </Position>
            <AltitudeMeters>23</AltitudeMeters>
            <DistanceMeters>NAN</DistanceMeters>
          </Trackpoint>
          <Trackpoint>
            <Time>2022-07-08T10:15:55.000Z</Time>
            <Position>
              <LatitudeDegrees>43.405002616345882415771484375</LatitudeDegrees>
              <LongitudeDegrees>-1.64253987371921539306640625</LongitudeDegrees>
            </Position>
            <AltitudeMeters>23.6000003814697265625</AltitudeMeters>
            <DistanceMeters>NAN</DistanceMeters>
          </Trackpoint>
          <Trackpoint>
            <Time>2022-07-08T10:16:05.000Z</Time>
            <Position>
              <LatitudeDegrees>43.40482315979897975921630859375</LatitudeDegrees>
              <LongitudeDegrees>-1.6425933502614498138427734375</LongitudeDegrees>
            </Position>
            <AltitudeMeters>24.200000762939453125</AltitudeMeters>
            <DistanceMeters>NAN</DistanceMeters>
          </Trackpoint>
          <Trackpoint>
            <Time>2022-07-08T10:16:12.000Z</Time>
            <Position>
              <LatitudeDegrees>43.404761217534542083740234375</LatitudeDegrees>
              <LongitudeDegrees>-1.642753779888153076171875</LongitudeDegrees>
            </Position>
            <AltitudeMeters>24.6000003814697265625</AltitudeMeters>
            <DistanceMeters>NAN</DistanceMeters>
          </Trackpoint>
          <Trackpoint>
            <Time>2022-07-08T10:16:21.000Z</Time>
            <Position>
              <LatitudeDegrees>43.40473397634923458099365234375</LatitudeDegrees>
              <LongitudeDegrees>-1.6429698653519153594970703125</LongitudeDegrees>
            </Position>
            <AltitudeMeters>25.200000762939453125</AltitudeMeters>
            <DistanceMeters>NAN</DistanceMeters>
          </Trackpoint>
          <Trackpoint>
            <Time>2022-07-08T10:16:22.000Z</Time>
            <Position>
              <LatitudeDegrees>43.4047333896160125732421875</LatitudeDegrees>
              <LongitudeDegrees>-1.64299182593822479248046875</LongitudeDegrees>
            </Position>
            <AltitudeMeters>25.3999996185302734375</AltitudeMeters>
            <DistanceMeters>NAN</DistanceMeters>
          </Trackpoint>
          <Trackpoint>
            <Time>2022-07-08T10:16:26.000Z</Time>
            <Position>
              <LatitudeDegrees>43.4047416038811206817626953125</LatitudeDegrees>
              <LongitudeDegrees>-1.6430845297873020172119140625</LongitudeDegrees>
            </Position>
            <AltitudeMeters>25.3999996185302734375</AltitudeMeters>
            <DistanceMeters>NAN</DistanceMeters>
          </Trackpoint>
          <Trackpoint>
            <Time>2022-07-08T10:16:28.000Z</Time>
            <Position>
              <LatitudeDegrees>43.40475090779364109039306640625</LatitudeDegrees>
              <LongitudeDegrees>-1.64312384091317653656005859375</LongitudeDegrees>
            </Position>
            <AltitudeMeters>25.3999996185302734375</AltitudeMeters>
            <DistanceMeters>NAN</DistanceMeters>
          </Trackpoint>
          <Trackpoint>
            <Time>2022-07-08T10:16:33.000Z</Time>
            <Position>
              <LatitudeDegrees>43.40474738739430904388427734375</LatitudeDegrees>
              <LongitudeDegrees>-1.64322677068412303924560546875</LongitudeDegrees>
            </Position>
            <AltitudeMeters>26.3999996185302734375</AltitudeMeters>
            <DistanceMeters>NAN</DistanceMeters>
          </Trackpoint>
          <Trackpoint>
            <Time>2022-07-08T10:16:35.000Z</Time>
            <Position>
              <LatitudeDegrees>43.404750488698482513427734375</LatitudeDegrees>
              <LongitudeDegrees>-1.64326733909547328948974609375</LongitudeDegrees>
            </Position>
            <AltitudeMeters>26.3999996185302734375</AltitudeMeters>
            <DistanceMeters>NAN</DistanceMeters>
          </Trackpoint>
          <Trackpoint>
            <Time>2022-07-08T10:16:40.000Z</Time>
            <Position>
              <LatitudeDegrees>43.40473934076726436614990234375</LatitudeDegrees>
              <LongitudeDegrees>-1.643356271088123321533203125</LongitudeDegrees>
            </Position>
            <AltitudeMeters>27.3999996185302734375</AltitudeMeters>
            <DistanceMeters>NAN</DistanceMeters>
          </Trackpoint>
          <Trackpoint>
            <Time>2022-07-08T10:16:43.000Z</Time>
            <Position>
              <LatitudeDegrees>43.4047255106270313262939453125</LatitudeDegrees>
              <LongitudeDegrees>-1.64340279065072536468505859375</LongitudeDegrees>
            </Position>
            <AltitudeMeters>27.799999237060546875</AltitudeMeters>
            <DistanceMeters>NAN</DistanceMeters>
          </Trackpoint>
          <Trackpoint>
            <Time>2022-07-08T10:16:52.000Z</Time>
            <Position>
              <LatitudeDegrees>43.40464630164206027984619140625</LatitudeDegrees>
              <LongitudeDegrees>-1.64357663132250308990478515625</LongitudeDegrees>
            </Position>
            <AltitudeMeters>28.200000762939453125</AltitudeMeters>
            <DistanceMeters>NAN</DistanceMeters>
          </Trackpoint>
          <Trackpoint>
            <Time>2022-07-08T10:16:53.000Z</Time>
            <Position>
              <LatitudeDegrees>43.40464227832853794097900390625</LatitudeDegrees>
              <LongitudeDegrees>-1.6435988433659076690673828125</LongitudeDegrees>
            </Position>
            <AltitudeMeters>28.3999996185302734375</AltitudeMeters>
            <DistanceMeters>NAN</DistanceMeters>
          </Trackpoint>
          <Trackpoint>
            <Time>2022-07-08T10:16:59.000Z</Time>
            <Position>
              <LatitudeDegrees>43.40461495332419872283935546875</LatitudeDegrees>
              <LongitudeDegrees>-1.64375667460262775421142578125</LongitudeDegrees>
            </Position>
            <AltitudeMeters>28.3999996185302734375</AltitudeMeters>
            <DistanceMeters>NAN</DistanceMeters>
          </Trackpoint>
          <Trackpoint>
            <Time>2022-07-08T10:17:06.000Z</Time>
            <Position>
              <LatitudeDegrees>43.40459098108112812042236328125</LatitudeDegrees>
              <LongitudeDegrees>-1.64396387524902820587158203125</LongitudeDegrees>
            </Position>
            <AltitudeMeters>28.799999237060546875</AltitudeMeters>
            <DistanceMeters>NAN</DistanceMeters>
          </Trackpoint>
          <Trackpoint>
            <Time>2022-07-08T10:17:15.000Z</Time>
            <Position>
              <LatitudeDegrees>43.40455661527812480926513671875</LatitudeDegrees>
              <LongitudeDegrees>-1.64429294876754283905029296875</LongitudeDegrees>
            </Position>
            <AltitudeMeters>29.200000762939453125</AltitudeMeters>
            <DistanceMeters>NAN</DistanceMeters>
          </Trackpoint>
          <Trackpoint>
            <Time>2022-07-08T10:17:22.000Z</Time>
            <Position>
              <LatitudeDegrees>43.4045508317649364471435546875</LatitudeDegrees>
              <LongitudeDegrees>-1.64453971199691295623779296875</LongitudeDegrees>
            </Position>
            <AltitudeMeters>28.200000762939453125</AltitudeMeters>
            <DistanceMeters>NAN</DistanceMeters>
          </Trackpoint>
          <Trackpoint>
            <Time>2022-07-08T10:17:24.000Z</Time>
            <Position>
              <LatitudeDegrees>43.404542617499828338623046875</LatitudeDegrees>
              <LongitudeDegrees>-1.64458028040826320648193359375</LongitudeDegrees>
            </Position>
            <AltitudeMeters>28.3999996185302734375</AltitudeMeters>
            <DistanceMeters>NAN</DistanceMeters>
          </Trackpoint>
          <Trackpoint>
            <Time>2022-07-08T10:17:28.000Z</Time>
            <Position>
              <LatitudeDegrees>43.40451604686677455902099609375</LatitudeDegrees>
              <LongitudeDegrees>-1.64464649744331836700439453125</LongitudeDegrees>
            </Position>
            <AltitudeMeters>29.3999996185302734375</AltitudeMeters>
            <DistanceMeters>NAN</DistanceMeters>
          </Trackpoint>
          <Trackpoint>
            <Time>2022-07-08T10:17:29.000Z</Time>
            <Position>
              <LatitudeDegrees>43.40451017953455448150634765625</LatitudeDegrees>
              <LongitudeDegrees>-1.64466560818254947662353515625</LongitudeDegrees>
            </Position>
            <AltitudeMeters>29.6000003814697265625</AltitudeMeters>
            <DistanceMeters>NAN</DistanceMeters>
          </Trackpoint>
          <Trackpoint>
            <Time>2022-07-08T10:17:35.000Z</Time>
            <Position>
              <LatitudeDegrees>43.4045082516968250274658203125</LatitudeDegrees>
              <LongitudeDegrees>-1.6447694599628448486328125</LongitudeDegrees>
            </Position>
            <AltitudeMeters>30.6000003814697265625</AltitudeMeters>
            <DistanceMeters>NAN</DistanceMeters>
          </Trackpoint>
          <Trackpoint>
            <Time>2022-07-08T10:17:36.000Z</Time>
            <Position>
              <LatitudeDegrees>43.40451319701969623565673828125</LatitudeDegrees>
              <LongitudeDegrees>-1.64478211663663387298583984375</LongitudeDegrees>
            </Position>
            <AltitudeMeters>30.799999237060546875</AltitudeMeters>
            <DistanceMeters>NAN</DistanceMeters>
          </Trackpoint>
          <Trackpoint>
            <Time>2022-07-08T10:17:41.000Z</Time>
            <Position>
              <LatitudeDegrees>43.4045468084514141082763671875</LatitudeDegrees>
              <LongitudeDegrees>-1.6448497585952281951904296875</LongitudeDegrees>
            </Position>
            <AltitudeMeters>31.799999237060546875</AltitudeMeters>
            <DistanceMeters>NAN</DistanceMeters>
          </Trackpoint>
          <Trackpoint>
            <Time>2022-07-08T10:17:44.000Z</Time>
            <Position>
              <LatitudeDegrees>43.4045590460300445556640625</LatitudeDegrees>
              <LongitudeDegrees>-1.6448963619768619537353515625</LongitudeDegrees>
            </Position>
            <AltitudeMeters>32.40000152587890625</AltitudeMeters>
            <DistanceMeters>NAN</DistanceMeters>
          </Trackpoint>
          <Trackpoint>
            <Time>2022-07-08T10:17:45.000Z</Time>
            <Position>
              <LatitudeDegrees>43.40456466190516948699951171875</LatitudeDegrees>
              <LongitudeDegrees>-1.6449127905070781707763671875</LongitudeDegrees>
            </Position>
            <AltitudeMeters>32.799999237060546875</AltitudeMeters>
            <DistanceMeters>NAN</DistanceMeters>
          </Trackpoint>
          <Trackpoint>
            <Time>2022-07-08T10:17:46.000Z</Time>
            <Position>
              <LatitudeDegrees>43.4045702777802944183349609375</LatitudeDegrees>
              <LongitudeDegrees>-1.6449302248656749725341796875</LongitudeDegrees>
            </Position>
            <AltitudeMeters>33</AltitudeMeters>
            <DistanceMeters>NAN</DistanceMeters>
          </Trackpoint>
          <Trackpoint>
            <Time>2022-07-08T10:17:49.000Z</Time>
            <Position>
              <LatitudeDegrees>43.4045803360641002655029296875</LatitudeDegrees>
              <LongitudeDegrees>-1.64497607387602329254150390625</LongitudeDegrees>
            </Position>
            <AltitudeMeters>33.59999847412109375</AltitudeMeters>
            <DistanceMeters>NAN</DistanceMeters>
          </Trackpoint>
          <Trackpoint>
            <Time>2022-07-08T10:17:51.000Z</Time>
            <Position>
              <LatitudeDegrees>43.4045840241014957427978515625</LatitudeDegrees>
              <LongitudeDegrees>-1.645009852945804595947265625</LongitudeDegrees>
            </Position>
            <AltitudeMeters>33.799999237060546875</AltitudeMeters>
            <DistanceMeters>NAN</DistanceMeters>
          </Trackpoint>
          <Trackpoint>
            <Time>2022-07-08T10:17:52.000Z</Time>
            <Position>
              <LatitudeDegrees>43.4045857004821300506591796875</LatitudeDegrees>
              <LongitudeDegrees>-1.6450281254947185516357421875</LongitudeDegrees>
            </Position>
            <AltitudeMeters>34</AltitudeMeters>
            <DistanceMeters>NAN</DistanceMeters>
          </Trackpoint>
          <Trackpoint>
            <Time>2022-07-08T10:17:53.000Z</Time>
            <Position>
              <LatitudeDegrees>43.40458896942436695098876953125</LatitudeDegrees>
              <LongitudeDegrees>-1.64504916407167911529541015625</LongitudeDegrees>
            </Position>
            <AltitudeMeters>34.200000762939453125</AltitudeMeters>
            <DistanceMeters>NAN</DistanceMeters>
          </Trackpoint>
          <Trackpoint>
            <Time>2022-07-08T10:17:55.000Z</Time>
            <Position>
              <LatitudeDegrees>43.40459458529949188232421875</LatitudeDegrees>
              <LongitudeDegrees>-1.64508369751274585723876953125</LongitudeDegrees>
            </Position>
            <AltitudeMeters>34.40000152587890625</AltitudeMeters>
            <DistanceMeters>NAN</DistanceMeters>
          </Trackpoint>
          <Trackpoint>
            <Time>2022-07-08T10:17:57.000Z</Time>
            <Position>
              <LatitudeDegrees>43.40459860861301422119140625</LatitudeDegrees>
              <LongitudeDegrees>-1.6451226733624935150146484375</LongitudeDegrees>
            </Position>
            <AltitudeMeters>34.59999847412109375</AltitudeMeters>
            <DistanceMeters>NAN</DistanceMeters>
          </Trackpoint>
          <Trackpoint>
            <Time>2022-07-08T10:18:03.000Z</Time>
            <Position>
              <LatitudeDegrees>43.40459592640399932861328125</LatitudeDegrees>
              <LongitudeDegrees>-1.64524412713944911956787109375</LongitudeDegrees>
            </Position>
            <AltitudeMeters>35.200000762939453125</AltitudeMeters>
            <DistanceMeters>NAN</DistanceMeters>
          </Trackpoint>
          <Trackpoint>
            <Time>2022-07-08T10:18:04.000Z</Time>
            <Position>
              <LatitudeDegrees>43.40459533967077732086181640625</LatitudeDegrees>
              <LongitudeDegrees>-1.64526692591607570648193359375</LongitudeDegrees>
            </Position>
            <AltitudeMeters>35.200000762939453125</AltitudeMeters>
            <DistanceMeters>NAN</DistanceMeters>
          </Trackpoint>
          <Trackpoint>
            <Time>2022-07-08T10:18:10.000Z</Time>
            <Position>
              <LatitudeDegrees>43.40454018674790859222412109375</LatitudeDegrees>
              <LongitudeDegrees>-1.64543665945529937744140625</LongitudeDegrees>
            </Position>
            <AltitudeMeters>35.40000152587890625</AltitudeMeters>
            <DistanceMeters>NAN</DistanceMeters>
          </Trackpoint>
          <Trackpoint>
            <Time>2022-07-08T10:18:18.000Z</Time>
            <Position>
              <LatitudeDegrees>43.40448469854891300201416015625</LatitudeDegrees>
              <LongitudeDegrees>-1.6456889547407627105712890625</LongitudeDegrees>
            </Position>
            <AltitudeMeters>35</AltitudeMeters>
            <DistanceMeters>NAN</DistanceMeters>
          </Trackpoint>
          <Trackpoint>
            <Time>2022-07-08T10:18:23.000Z</Time>
            <Position>
              <LatitudeDegrees>43.40447765775024890899658203125</LatitudeDegrees>
              <LongitudeDegrees>-1.64579548873007297515869140625</LongitudeDegrees>
            </Position>
            <AltitudeMeters>35.40000152587890625</AltitudeMeters>
            <DistanceMeters>NAN</DistanceMeters>
          </Trackpoint>
          <Trackpoint>
            <Time>2022-07-08T10:18:28.000Z</Time>
            <Position>
              <LatitudeDegrees>43.40445921756327152252197265625</LatitudeDegrees>
              <LongitudeDegrees>-1.6458785533905029296875</LongitudeDegrees>
            </Position>
            <AltitudeMeters>36</AltitudeMeters>
            <DistanceMeters>NAN</DistanceMeters>
          </Trackpoint>
          <Trackpoint>
            <Time>2022-07-08T10:18:29.000Z</Time>
            <Position>
              <LatitudeDegrees>43.4044556133449077606201171875</LatitudeDegrees>
              <LongitudeDegrees>-1.64589540101587772369384765625</LongitudeDegrees>
            </Position>
            <AltitudeMeters>36.200000762939453125</AltitudeMeters>
            <DistanceMeters>NAN</DistanceMeters>
          </Trackpoint>
          <Trackpoint>
            <Time>2022-07-08T10:18:30.000Z</Time>
            <Position>
              <LatitudeDegrees>43.40445133857429027557373046875</LatitudeDegrees>
              <LongitudeDegrees>-1.64591048844158649444580078125</LongitudeDegrees>
            </Position>
            <AltitudeMeters>36.40000152587890625</AltitudeMeters>
            <DistanceMeters>NAN</DistanceMeters>
          </Trackpoint>
          <Trackpoint>
            <Time>2022-07-08T10:18:35.000Z</Time>
            <Position>
              <LatitudeDegrees>43.40443356893956661224365234375</LatitudeDegrees>
              <LongitudeDegrees>-1.64599648676812648773193359375</LongitudeDegrees>
            </Position>
            <AltitudeMeters>37.200000762939453125</AltitudeMeters>
            <DistanceMeters>NAN</DistanceMeters>
          </Trackpoint>
          <Trackpoint>
            <Time>2022-07-08T10:18:38.000Z</Time>
            <Position>
              <LatitudeDegrees>43.4044197387993335723876953125</LatitudeDegrees>
              <LongitudeDegrees>-1.646043173968791961669921875</LongitudeDegrees>
            </Position>
            <AltitudeMeters>37.799999237060546875</AltitudeMeters>
            <DistanceMeters>NAN</DistanceMeters>
          </Trackpoint>
          <Trackpoint>
            <Time>2022-07-08T10:18:43.000Z</Time>
            <Position>
              <LatitudeDegrees>43.4043969400227069854736328125</LatitudeDegrees>
              <LongitudeDegrees>-1.646125316619873046875</LongitudeDegrees>
            </Position>
            <AltitudeMeters>38.200000762939453125</AltitudeMeters>
            <DistanceMeters>NAN</DistanceMeters>
          </Trackpoint>
          <Trackpoint>
            <Time>2022-07-08T10:18:47.000Z</Time>
            <Position>
              <LatitudeDegrees>43.40438948012888431549072265625</LatitudeDegrees>
              <LongitudeDegrees>-1.6462039388716220855712890625</LongitudeDegrees>
            </Position>
            <AltitudeMeters>38.799999237060546875</AltitudeMeters>
            <DistanceMeters>NAN</DistanceMeters>
          </Trackpoint>
          <Trackpoint>
            <Time>2022-07-08T10:18:52.000Z</Time>
            <Position>
              <LatitudeDegrees>43.4043697826564311981201171875</LatitudeDegrees>
              <LongitudeDegrees>-1.64629354141652584075927734375</LongitudeDegrees>
            </Position>
            <AltitudeMeters>39.40000152587890625</AltitudeMeters>
            <DistanceMeters>NAN</DistanceMeters>
          </Trackpoint>
          <Trackpoint>
            <Time>2022-07-08T10:18:57.000Z</Time>
            <Position>
              <LatitudeDegrees>43.40433441102504730224609375</LatitudeDegrees>
              <LongitudeDegrees>-1.64637350477278232574462890625</LongitudeDegrees>
            </Position>
            <AltitudeMeters>40.40000152587890625</AltitudeMeters>
            <DistanceMeters>NAN</DistanceMeters>
          </Trackpoint>
          <Trackpoint>
            <Time>2022-07-08T10:18:58.000Z</Time>
            <Position>
              <LatitudeDegrees>43.40433038771152496337890625</LatitudeDegrees>
              <LongitudeDegrees>-1.6463886760175228118896484375</LongitudeDegrees>
            </Position>
            <AltitudeMeters>40.59999847412109375</AltitudeMeters>
            <DistanceMeters>NAN</DistanceMeters>
          </Trackpoint>
          <Trackpoint>
            <Time>2022-07-08T10:19:06.000Z</Time>
            <Position>
              <LatitudeDegrees>43.4043054096400737762451171875</LatitudeDegrees>
              <LongitudeDegrees>-1.64653007872402667999267578125</LongitudeDegrees>
            </Position>
            <AltitudeMeters>41.40000152587890625</AltitudeMeters>
            <DistanceMeters>NAN</DistanceMeters>
          </Trackpoint>
          <Trackpoint>
            <Time>2022-07-08T10:19:08.000Z</Time>
            <Position>
              <LatitudeDegrees>43.4042976982891559600830078125</LatitudeDegrees>
              <LongitudeDegrees>-1.64656192995607852935791015625</LongitudeDegrees>
            </Position>
            <AltitudeMeters>41.59999847412109375</AltitudeMeters>
            <DistanceMeters>NAN</DistanceMeters>
          </Trackpoint>
          <Trackpoint>
            <Time>2022-07-08T10:19:15.000Z</Time>
            <Position>
              <LatitudeDegrees>43.40427364222705364227294921875</LatitudeDegrees>
              <LongitudeDegrees>-1.64670241065323352813720703125</LongitudeDegrees>
            </Position>
            <AltitudeMeters>41.799999237060546875</AltitudeMeters>
            <DistanceMeters>NAN</DistanceMeters>
          </Trackpoint>
          <Trackpoint>
            <Time>2022-07-08T10:19:22.000Z</Time>
            <Position>
              <LatitudeDegrees>43.40422988869249820709228515625</LatitudeDegrees>
              <LongitudeDegrees>-1.64684490300714969635009765625</LongitudeDegrees>
            </Position>
            <AltitudeMeters>42.59999847412109375</AltitudeMeters>
            <DistanceMeters>NAN</DistanceMeters>
          </Trackpoint>
          <Trackpoint>
            <Time>2022-07-08T10:19:25.000Z</Time>
            <Position>
              <LatitudeDegrees>43.4042138792574405670166015625</LatitudeDegrees>
              <LongitudeDegrees>-1.6469029895961284637451171875</LongitudeDegrees>
            </Position>
            <AltitudeMeters>42.59999847412109375</AltitudeMeters>
            <DistanceMeters>NAN</DistanceMeters>
          </Trackpoint>
          <Trackpoint>
            <Time>2022-07-08T10:19:26.000Z</Time>
            <Position>
              <LatitudeDegrees>43.40420826338231563568115234375</LatitudeDegrees>
              <LongitudeDegrees>-1.64692318998277187347412109375</LongitudeDegrees>
            </Position>
            <AltitudeMeters>42.59999847412109375</AltitudeMeters>
            <DistanceMeters>NAN</DistanceMeters>
          </Trackpoint>
          <Trackpoint>
            <Time>2022-07-08T10:19:34.000Z</Time>
            <Position>
              <LatitudeDegrees>43.404157720506191253662109375</LatitudeDegrees>
              <LongitudeDegrees>-1.647065766155719757080078125</LongitudeDegrees>
            </Position>
            <AltitudeMeters>43.200000762939453125</AltitudeMeters>
            <DistanceMeters>NAN</DistanceMeters>
          </Trackpoint>
          <Trackpoint>
            <Time>2022-07-08T10:19:37.000Z</Time>
            <Position>
              <LatitudeDegrees>43.404136598110198974609375</LatitudeDegrees>
              <LongitudeDegrees>-1.64712251164019107818603515625</LongitudeDegrees>
            </Position>
            <AltitudeMeters>43.799999237060546875</AltitudeMeters>
            <DistanceMeters>NAN</DistanceMeters>
          </Trackpoint>
          <Trackpoint>
            <Time>2022-07-08T10:19:46.000Z</Time>
            <Position>
              <LatitudeDegrees>43.4040762484073638916015625</LatitudeDegrees>
              <LongitudeDegrees>-1.64727372117340564727783203125</LongitudeDegrees>
            </Position>
            <AltitudeMeters>44</AltitudeMeters>
            <DistanceMeters>NAN</DistanceMeters>
          </Trackpoint>
          <Trackpoint>
            <Time>2022-07-08T10:19:52.000Z</Time>
            <Position>
              <LatitudeDegrees>43.404030986130237579345703125</LatitudeDegrees>
              <LongitudeDegrees>-1.6473753936588764190673828125</LongitudeDegrees>
            </Position>
            <AltitudeMeters>44.40000152587890625</AltitudeMeters>
            <DistanceMeters>NAN</DistanceMeters>
          </Trackpoint>
          <Trackpoint>
            <Time>2022-07-08T10:19:56.000Z</Time>
            <Position>
              <LatitudeDegrees>43.40399703942239284515380859375</LatitudeDegrees>
              <LongitudeDegrees>-1.64743867702782154083251953125</LongitudeDegrees>
            </Position>
            <AltitudeMeters>44.40000152587890625</AltitudeMeters>
            <DistanceMeters>NAN</DistanceMeters>
          </Trackpoint>
          <Trackpoint>
            <Time>2022-07-08T10:19:58.000Z</Time>
            <Position>
              <LatitudeDegrees>43.4039768390357494354248046875</LatitudeDegrees>
              <LongitudeDegrees>-1.64747639559209346771240234375</LongitudeDegrees>
            </Position>
            <AltitudeMeters>44.59999847412109375</AltitudeMeters>
            <DistanceMeters>NAN</DistanceMeters>
          </Trackpoint>
          <Trackpoint>
            <Time>2022-07-08T10:20:02.000Z</Time>
            <Position>
              <LatitudeDegrees>43.40394322760403156280517578125</LatitudeDegrees>
              <LongitudeDegrees>-1.64754462428390979766845703125</LongitudeDegrees>
            </Position>
            <AltitudeMeters>44.799999237060546875</AltitudeMeters>
            <DistanceMeters>NAN</DistanceMeters>
          </Trackpoint>
          <Trackpoint>
            <Time>2022-07-08T10:20:08.000Z</Time>
            <Position>
              <LatitudeDegrees>43.40389310382306575775146484375</LatitudeDegrees>
              <LongitudeDegrees>-1.64764235727488994598388671875</LongitudeDegrees>
            </Position>
            <AltitudeMeters>45.200000762939453125</AltitudeMeters>
            <DistanceMeters>NAN</DistanceMeters>
          </Trackpoint>
          <Trackpoint>
            <Time>2022-07-08T10:20:18.000Z</Time>
            <Position>
              <LatitudeDegrees>43.40379570610821247100830078125</LatitudeDegrees>
              <LongitudeDegrees>-1.64781921543180942535400390625</LongitudeDegrees>
            </Position>
            <AltitudeMeters>45.799999237060546875</AltitudeMeters>
            <DistanceMeters>NAN</DistanceMeters>
          </Trackpoint>
          <Trackpoint>
            <Time>2022-07-08T10:20:26.000Z</Time>
            <Position>
              <LatitudeDegrees>43.40371322818100452423095703125</LatitudeDegrees>
              <LongitudeDegrees>-1.64796464145183563232421875</LongitudeDegrees>
            </Position>
            <AltitudeMeters>46</AltitudeMeters>
            <DistanceMeters>NAN</DistanceMeters>
          </Trackpoint>
          <Trackpoint>
            <Time>2022-07-08T10:20:33.000Z</Time>
            <Position>
              <LatitudeDegrees>43.4036496095359325408935546875</LatitudeDegrees>
              <LongitudeDegrees>-1.648108474910259246826171875</LongitudeDegrees>
            </Position>
            <AltitudeMeters>46.40000152587890625</AltitudeMeters>
            <DistanceMeters>NAN</DistanceMeters>
          </Trackpoint>
          <Trackpoint>
            <Time>2022-07-08T10:20:37.000Z</Time>
            <Position>
              <LatitudeDegrees>43.40362018905580043792724609375</LatitudeDegrees>
              <LongitudeDegrees>-1.6481941379606723785400390625</LongitudeDegrees>
            </Position>
            <AltitudeMeters>46.799999237060546875</AltitudeMeters>
            <DistanceMeters>NAN</DistanceMeters>
          </Trackpoint>
          <Trackpoint>
            <Time>2022-07-08T10:20:38.000Z</Time>
            <Position>
              <LatitudeDegrees>43.40361733920872211456298828125</LatitudeDegrees>
              <LongitudeDegrees>-1.64821266196668148040771484375</LongitudeDegrees>
            </Position>
            <AltitudeMeters>46.799999237060546875</AltitudeMeters>
            <DistanceMeters>NAN</DistanceMeters>
          </Trackpoint>
          <Trackpoint>
            <Time>2022-07-08T10:20:46.000Z</Time>
            <Position>
              <LatitudeDegrees>43.403562270104885101318359375</LatitudeDegrees>
              <LongitudeDegrees>-1.6483926214277744293212890625</LongitudeDegrees>
            </Position>
            <AltitudeMeters>47.200000762939453125</AltitudeMeters>
            <DistanceMeters>NAN</DistanceMeters>
          </Trackpoint>
          <Trackpoint>
            <Time>2022-07-08T10:20:55.000Z</Time>
            <Position>
              <LatitudeDegrees>43.403530754148960113525390625</LatitudeDegrees>
              <LongitudeDegrees>-1.648604683578014373779296875</LongitudeDegrees>
            </Position>
            <AltitudeMeters>48</AltitudeMeters>
            <DistanceMeters>NAN</DistanceMeters>
          </Trackpoint>
          <Trackpoint>
            <Time>2022-07-08T10:20:56.000Z</Time>
            <Position>
              <LatitudeDegrees>43.40352572500705718994140625</LatitudeDegrees>
              <LongitudeDegrees>-1.64862773381173610687255859375</LongitudeDegrees>
            </Position>
            <AltitudeMeters>48</AltitudeMeters>
            <DistanceMeters>NAN</DistanceMeters>
          </Trackpoint>
          <Trackpoint>
            <Time>2022-07-08T10:21:02.000Z</Time>
            <Position>
              <LatitudeDegrees>43.40350518934428691864013671875</LatitudeDegrees>
              <LongitudeDegrees>-1.6487540490925312042236328125</LongitudeDegrees>
            </Position>
            <AltitudeMeters>48.40000152587890625</AltitudeMeters>
            <DistanceMeters>NAN</DistanceMeters>
          </Trackpoint>
          <Trackpoint>
            <Time>2022-07-08T10:21:06.000Z</Time>
            <Position>
              <LatitudeDegrees>43.40348415076732635498046875</LatitudeDegrees>
              <LongitudeDegrees>-1.6488335095345973968505859375</LongitudeDegrees>
            </Position>
            <AltitudeMeters>48.799999237060546875</AltitudeMeters>
            <DistanceMeters>NAN</DistanceMeters>
          </Trackpoint>
          <Trackpoint>
            <Time>2022-07-08T10:21:09.000Z</Time>
            <Position>
              <LatitudeDegrees>43.4034776128828525543212890625</LatitudeDegrees>
              <LongitudeDegrees>-1.64889494888484477996826171875</LongitudeDegrees>
            </Position>
            <AltitudeMeters>49</AltitudeMeters>
            <DistanceMeters>NAN</DistanceMeters>
          </Trackpoint>
          <Trackpoint>
            <Time>2022-07-08T10:21:13.000Z</Time>
            <Position>
              <LatitudeDegrees>43.4034538082778453826904296875</LatitudeDegrees>
              <LongitudeDegrees>-1.648966111242771148681640625</LongitudeDegrees>
            </Position>
            <AltitudeMeters>49.200000762939453125</AltitudeMeters>
            <DistanceMeters>NAN</DistanceMeters>
          </Trackpoint>
          <Trackpoint>
            <Time>2022-07-08T10:21:15.000Z</Time>
            <Position>
              <LatitudeDegrees>43.4034574963152408599853515625</LatitudeDegrees>
              <LongitudeDegrees>-1.6489974595606327056884765625</LongitudeDegrees>
            </Position>
            <AltitudeMeters>49.200000762939453125</AltitudeMeters>
            <DistanceMeters>NAN</DistanceMeters>
          </Trackpoint>
          <Trackpoint>
            <Time>2022-07-08T10:21:17.000Z</Time>
            <Position>
              <LatitudeDegrees>43.4034732542932033538818359375</LatitudeDegrees>
              <LongitudeDegrees>-1.64903375320136547088623046875</LongitudeDegrees>
            </Position>
            <AltitudeMeters>49.200000762939453125</AltitudeMeters>
            <DistanceMeters>NAN</DistanceMeters>
          </Trackpoint>
          <Trackpoint>
            <Time>2022-07-08T10:21:21.000Z</Time>
            <Position>
              <LatitudeDegrees>43.40346445329487323760986328125</LatitudeDegrees>
              <LongitudeDegrees>-1.6491285525262355804443359375</LongitudeDegrees>
            </Position>
            <AltitudeMeters>49.59999847412109375</AltitudeMeters>
            <DistanceMeters>NAN</DistanceMeters>
          </Trackpoint>
          <Trackpoint>
            <Time>2022-07-08T10:21:24.000Z</Time>
            <Position>
              <LatitudeDegrees>43.40345892123878002166748046875</LatitudeDegrees>
              <LongitudeDegrees>-1.64920239709317684173583984375</LongitudeDegrees>
            </Position>
            <AltitudeMeters>50</AltitudeMeters>
            <DistanceMeters>NAN</DistanceMeters>
          </Trackpoint>
          <Trackpoint>
            <Time>2022-07-08T10:21:31.000Z</Time>
            <Position>
              <LatitudeDegrees>43.4034440852701663970947265625</LatitudeDegrees>
              <LongitudeDegrees>-1.64936282671988010406494140625</LongitudeDegrees>
            </Position>
            <AltitudeMeters>50.59999847412109375</AltitudeMeters>
            <DistanceMeters>NAN</DistanceMeters>
          </Trackpoint>
          <Trackpoint>
            <Time>2022-07-08T10:21:34.000Z</Time>
            <Position>
              <LatitudeDegrees>43.40343654155731201171875</LatitudeDegrees>
              <LongitudeDegrees>-1.649424098432064056396484375</LongitudeDegrees>
            </Position>
            <AltitudeMeters>51</AltitudeMeters>
            <DistanceMeters>NAN</DistanceMeters>
          </Trackpoint>
          <Trackpoint>
            <Time>2022-07-08T10:21:38.000Z</Time>
            <Position>
              <LatitudeDegrees>43.4034243039786815643310546875</LatitudeDegrees>
              <LongitudeDegrees>-1.64951504208147525787353515625</LongitudeDegrees>
            </Position>
            <AltitudeMeters>51.200000762939453125</AltitudeMeters>
            <DistanceMeters>NAN</DistanceMeters>
          </Trackpoint>
          <Trackpoint>
            <Time>2022-07-08T10:21:47.000Z</Time>
            <Position>
              <LatitudeDegrees>43.403402678668498992919921875</LatitudeDegrees>
              <LongitudeDegrees>-1.64972945116460323333740234375</LongitudeDegrees>
            </Position>
            <AltitudeMeters>52.200000762939453125</AltitudeMeters>
            <DistanceMeters>NAN</DistanceMeters>
          </Trackpoint>
          <Trackpoint>
            <Time>2022-07-08T10:21:52.000Z</Time>
            <Position>
              <LatitudeDegrees>43.40340259484946727752685546875</LatitudeDegrees>
              <LongitudeDegrees>-1.6498312912881374359130859375</LongitudeDegrees>
            </Position>
            <AltitudeMeters>52.799999237060546875</AltitudeMeters>
            <DistanceMeters>NAN</DistanceMeters>
          </Trackpoint>
          <Trackpoint>
            <Time>2022-07-08T10:21:53.000Z</Time>
            <Position>
              <LatitudeDegrees>43.403411395847797393798828125</LatitudeDegrees>
              <LongitudeDegrees>-1.64984344504773616790771484375</LongitudeDegrees>
            </Position>
            <AltitudeMeters>52.799999237060546875</AltitudeMeters>
            <DistanceMeters>NAN</DistanceMeters>
          </Trackpoint>
          <Trackpoint>
            <Time>2022-07-08T10:21:54.000Z</Time>
            <Position>
              <LatitudeDegrees>43.403428830206394195556640625</LatitudeDegrees>
              <LongitudeDegrees>-1.64984763599932193756103515625</LongitudeDegrees>
            </Position>
            <AltitudeMeters>53</AltitudeMeters>
            <DistanceMeters>NAN</DistanceMeters>
          </Trackpoint>
          <Trackpoint>
            <Time>2022-07-08T10:21:58.000Z</Time>
            <Position>
              <LatitudeDegrees>43.40349219739437103271484375</LatitudeDegrees>
              <LongitudeDegrees>-1.64981670677661895751953125</LongitudeDegrees>
            </Position>
            <AltitudeMeters>53.200000762939453125</AltitudeMeters>
            <DistanceMeters>NAN</DistanceMeters>
          </Trackpoint>
          <Trackpoint>
            <Time>2022-07-08T10:22:00.000Z</Time>
            <Position>
              <LatitudeDegrees>43.40352798812091350555419921875</LatitudeDegrees>
              <LongitudeDegrees>-1.6498108394443988800048828125</LongitudeDegrees>
            </Position>
            <AltitudeMeters>53.200000762939453125</AltitudeMeters>
            <DistanceMeters>NAN</DistanceMeters>
          </Trackpoint>
          <Trackpoint>
            <Time>2022-07-08T10:22:07.000Z</Time>
            <Position>
              <LatitudeDegrees>43.403659164905548095703125</LatitudeDegrees>
              <LongitudeDegrees>-1.64979298599064350128173828125</LongitudeDegrees>
            </Position>
            <AltitudeMeters>53.59999847412109375</AltitudeMeters>
            <DistanceMeters>NAN</DistanceMeters>
          </Trackpoint>
          <Trackpoint>
            <Time>2022-07-08T10:22:13.000Z</Time>
            <Position>
              <LatitudeDegrees>43.40376184321939945220947265625</LatitudeDegrees>
              <LongitudeDegrees>-1.6498198918998241424560546875</LongitudeDegrees>
            </Position>
            <AltitudeMeters>54.200000762939453125</AltitudeMeters>
            <DistanceMeters>NAN</DistanceMeters>
          </Trackpoint>
          <Trackpoint>
            <Time>2022-07-08T10:22:14.000Z</Time>
            <Position>
              <LatitudeDegrees>43.40377626009285449981689453125</LatitudeDegrees>
              <LongitudeDegrees>-1.649821735918521881103515625</LongitudeDegrees>
            </Position>
            <AltitudeMeters>54.200000762939453125</AltitudeMeters>
            <DistanceMeters>NAN</DistanceMeters>
          </Trackpoint>
          <Trackpoint>
            <Time>2022-07-08T10:22:21.000Z</Time>
            <Position>
              <LatitudeDegrees>43.40389184653759002685546875</LatitudeDegrees>
              <LongitudeDegrees>-1.64981938898563385009765625</LongitudeDegrees>
            </Position>
            <AltitudeMeters>54.799999237060546875</AltitudeMeters>
            <DistanceMeters>NAN</DistanceMeters>
          </Trackpoint>
          <Trackpoint>
            <Time>2022-07-08T10:22:24.000Z</Time>
            <Position>
              <LatitudeDegrees>43.40393870137631893157958984375</LatitudeDegrees>
              <LongitudeDegrees>-1.64982743561267852783203125</LongitudeDegrees>
            </Position>
            <AltitudeMeters>55.200000762939453125</AltitudeMeters>
            <DistanceMeters>NAN</DistanceMeters>
          </Trackpoint>
          <Trackpoint>
            <Time>2022-07-08T10:22:25.000Z</Time>
            <Position>
              <LatitudeDegrees>43.40395345352590084075927734375</LatitudeDegrees>
              <LongitudeDegrees>-1.6498232446610927581787109375</LongitudeDegrees>
            </Position>
            <AltitudeMeters>55.40000152587890625</AltitudeMeters>
            <DistanceMeters>NAN</DistanceMeters>
          </Trackpoint>
          <Trackpoint>
            <Time>2022-07-08T10:22:27.000Z</Time>
            <Position>
              <LatitudeDegrees>43.40398664586246013641357421875</LatitudeDegrees>
              <LongitudeDegrees>-1.6498182155191898345947265625</LongitudeDegrees>
            </Position>
            <AltitudeMeters>55.59999847412109375</AltitudeMeters>
            <DistanceMeters>NAN</DistanceMeters>
          </Trackpoint>
          <Trackpoint>
            <Time>2022-07-08T10:22:33.000Z</Time>
            <Position>
              <LatitudeDegrees>43.404074572026729583740234375</LatitudeDegrees>
              <LongitudeDegrees>-1.6498336382210254669189453125</LongitudeDegrees>
            </Position>
            <AltitudeMeters>56.40000152587890625</AltitudeMeters>
            <DistanceMeters>NAN</DistanceMeters>
          </Trackpoint>
          <Trackpoint>
            <Time>2022-07-08T10:22:35.000Z</Time>
            <Position>
              <LatitudeDegrees>43.4040978737175464630126953125</LatitudeDegrees>
              <LongitudeDegrees>-1.649837158620357513427734375</LongitudeDegrees>
            </Position>
            <AltitudeMeters>56.799999237060546875</AltitudeMeters>
            <DistanceMeters>NAN</DistanceMeters>
          </Trackpoint>
          <Trackpoint>
            <Time>2022-07-08T10:22:38.000Z</Time>
            <Position>
              <LatitudeDegrees>43.4041501767933368682861328125</LatitudeDegrees>
              <LongitudeDegrees>-1.649840176105499267578125</LongitudeDegrees>
            </Position>
            <AltitudeMeters>57.200000762939453125</AltitudeMeters>
            <DistanceMeters>NAN</DistanceMeters>
          </Trackpoint>
          <Trackpoint>
            <Time>2022-07-08T10:22:40.000Z</Time>
            <Position>
              <LatitudeDegrees>43.4041796810925006866455078125</LatitudeDegrees>
              <LongitudeDegrees>-1.649827770888805389404296875</LongitudeDegrees>
            </Position>
            <AltitudeMeters>57.59999847412109375</AltitudeMeters>
            <DistanceMeters>NAN</DistanceMeters>
          </Trackpoint>
          <Trackpoint>
            <Time>2022-07-08T10:22:42.000Z</Time>
            <Position>
              <LatitudeDegrees>43.40420926921069622039794921875</LatitudeDegrees>
              <LongitudeDegrees>-1.6498306207358837127685546875</LongitudeDegrees>
            </Position>
            <AltitudeMeters>57.799999237060546875</AltitudeMeters>
            <DistanceMeters>NAN</DistanceMeters>
          </Trackpoint>
          <Trackpoint>
            <Time>2022-07-08T10:22:47.000Z</Time>
            <Position>
              <LatitudeDegrees>43.4042894840240478515625</LatitudeDegrees>
              <LongitudeDegrees>-1.64984143339097499847412109375</LongitudeDegrees>
            </Position>
            <AltitudeMeters>58.799999237060546875</AltitudeMeters>
            <DistanceMeters>NAN</DistanceMeters>
          </Trackpoint>
          <Trackpoint>
            <Time>2022-07-08T10:22:50.000Z</Time>
            <Position>
              <LatitudeDegrees>43.40433533303439617156982421875</LatitudeDegrees>
              <LongitudeDegrees>-1.6498587839305400848388671875</LongitudeDegrees>
            </Position>
            <AltitudeMeters>59</AltitudeMeters>
            <DistanceMeters>NAN</DistanceMeters>
          </Trackpoint>
          <Trackpoint>
            <Time>2022-07-08T10:22:58.000Z</Time>
            <Position>
              <LatitudeDegrees>43.40446944348514080047607421875</LatitudeDegrees>
              <LongitudeDegrees>-1.64980773814022541046142578125</LongitudeDegrees>
            </Position>
            <AltitudeMeters>59.59999847412109375</AltitudeMeters>
            <DistanceMeters>NAN</DistanceMeters>
          </Trackpoint>
          <Trackpoint>
            <Time>2022-07-08T10:23:05.000Z</Time>
            <Position>
              <LatitudeDegrees>43.4045240096747875213623046875</LatitudeDegrees>
              <LongitudeDegrees>-1.6498054750263690948486328125</LongitudeDegrees>
            </Position>
            <AltitudeMeters>59.40000152587890625</AltitudeMeters>
            <DistanceMeters>NAN</DistanceMeters>
          </Trackpoint>
          <Trackpoint>
            <Time>2022-07-08T10:24:15.000Z</Time>
            <Position>
              <LatitudeDegrees>43.40457472018897533416748046875</LatitudeDegrees>
              <LongitudeDegrees>-1.64998074062168598175048828125</LongitudeDegrees>
            </Position>
            <AltitudeMeters>59.799999237060546875</AltitudeMeters>
            <DistanceMeters>NAN</DistanceMeters>
          </Trackpoint>
          <Trackpoint>
            <Time>2022-07-08T10:24:16.000Z</Time>
            <Position>
              <LatitudeDegrees>43.4045813418924808502197265625</LatitudeDegrees>
              <LongitudeDegrees>-1.65000940673053264617919921875</LongitudeDegrees>
            </Position>
            <AltitudeMeters>59.799999237060546875</AltitudeMeters>
            <DistanceMeters>NAN</DistanceMeters>
          </Trackpoint>
          <Trackpoint>
            <Time>2022-07-08T10:24:17.000Z</Time>
            <Position>
              <LatitudeDegrees>43.40458779595792293548583984375</LatitudeDegrees>
              <LongitudeDegrees>-1.6500351391732692718505859375</LongitudeDegrees>
            </Position>
            <AltitudeMeters>59.799999237060546875</AltitudeMeters>
            <DistanceMeters>NAN</DistanceMeters>
          </Trackpoint>
          <Trackpoint>
            <Time>2022-07-08T10:24:23.000Z</Time>
            <Position>
              <LatitudeDegrees>43.4046386741101741790771484375</LatitudeDegrees>
              <LongitudeDegrees>-1.65019892156124114990234375</LongitudeDegrees>
            </Position>
            <AltitudeMeters>60.200000762939453125</AltitudeMeters>
            <DistanceMeters>NAN</DistanceMeters>
          </Trackpoint>
          <Trackpoint>
            <Time>2022-07-08T10:24:26.000Z</Time>
            <Position>
              <LatitudeDegrees>43.4046671725809574127197265625</LatitudeDegrees>
              <LongitudeDegrees>-1.65027243085205554962158203125</LongitudeDegrees>
            </Position>
            <AltitudeMeters>60.40000152587890625</AltitudeMeters>
            <DistanceMeters>NAN</DistanceMeters>
          </Trackpoint>
          <Trackpoint>
            <Time>2022-07-08T10:24:34.000Z</Time>
            <Position>
              <LatitudeDegrees>43.40476029552519321441650390625</LatitudeDegrees>
              <LongitudeDegrees>-1.65046370588243007659912109375</LongitudeDegrees>
            </Position>
            <AltitudeMeters>60.59999847412109375</AltitudeMeters>
            <DistanceMeters>NAN</DistanceMeters>
          </Trackpoint>
          <Trackpoint>
            <Time>2022-07-08T10:24:37.000Z</Time>
            <Position>
              <LatitudeDegrees>43.40480287559330463409423828125</LatitudeDegrees>
              <LongitudeDegrees>-1.65057635866105556488037109375</LongitudeDegrees>
            </Position>
            <AltitudeMeters>60.40000152587890625</AltitudeMeters>
            <DistanceMeters>NAN</DistanceMeters>
          </Trackpoint>
          <Trackpoint>
            <Time>2022-07-08T10:24:41.000Z</Time>
            <Position>
              <LatitudeDegrees>43.40475694276392459869384765625</LatitudeDegrees>
              <LongitudeDegrees>-1.65069504640996456146240234375</LongitudeDegrees>
            </Position>
            <AltitudeMeters>60.200000762939453125</AltitudeMeters>
            <DistanceMeters>NAN</DistanceMeters>
          </Trackpoint>
          <Trackpoint>
            <Time>2022-07-08T10:24:46.000Z</Time>
            <Position>
              <LatitudeDegrees>43.40469189919531345367431640625</LatitudeDegrees>
              <LongitudeDegrees>-1.65079831145703792572021484375</LongitudeDegrees>
            </Position>
            <AltitudeMeters>61</AltitudeMeters>
            <DistanceMeters>NAN</DistanceMeters>
          </Trackpoint>
          <Trackpoint>
            <Time>2022-07-08T10:24:57.000Z</Time>
            <Position>
              <LatitudeDegrees>43.40463641099631786346435546875</LatitudeDegrees>
              <LongitudeDegrees>-1.651095114648342132568359375</LongitudeDegrees>
            </Position>
            <AltitudeMeters>62</AltitudeMeters>
            <DistanceMeters>NAN</DistanceMeters>
          </Trackpoint>
          <Trackpoint>
            <Time>2022-07-08T10:25:00.000Z</Time>
            <Position>
              <LatitudeDegrees>43.40462945401668548583984375</LatitudeDegrees>
              <LongitudeDegrees>-1.65117147378623485565185546875</LongitudeDegrees>
            </Position>
            <AltitudeMeters>62.200000762939453125</AltitudeMeters>
            <DistanceMeters>NAN</DistanceMeters>
          </Trackpoint>
          <Trackpoint>
            <Time>2022-07-08T10:25:04.000Z</Time>
            <Position>
              <LatitudeDegrees>43.4046138636767864227294921875</LatitudeDegrees>
              <LongitudeDegrees>-1.65125026367604732513427734375</LongitudeDegrees>
            </Position>
            <AltitudeMeters>62.59999847412109375</AltitudeMeters>
            <DistanceMeters>NAN</DistanceMeters>
          </Trackpoint>
          <Trackpoint>
            <Time>2022-07-08T10:25:11.000Z</Time>
            <Position>
              <LatitudeDegrees>43.40454630553722381591796875</LatitudeDegrees>
              <LongitudeDegrees>-1.65149400942027568817138671875</LongitudeDegrees>
            </Position>
            <AltitudeMeters>62.59999847412109375</AltitudeMeters>
            <DistanceMeters>NAN</DistanceMeters>
          </Trackpoint>
          <Trackpoint>
            <Time>2022-07-08T10:25:18.000Z</Time>
            <Position>
              <LatitudeDegrees>43.40448687784373760223388671875</LatitudeDegrees>
              <LongitudeDegrees>-1.65181302465498447418212890625</LongitudeDegrees>
            </Position>
            <AltitudeMeters>61</AltitudeMeters>
            <DistanceMeters>NAN</DistanceMeters>
          </Trackpoint>
          <Trackpoint>
            <Time>2022-07-08T10:25:21.000Z</Time>
            <Position>
              <LatitudeDegrees>43.40449391864240169525146484375</LatitudeDegrees>
              <LongitudeDegrees>-1.6518764756619930267333984375</LongitudeDegrees>
            </Position>
            <AltitudeMeters>60</AltitudeMeters>
            <DistanceMeters>NAN</DistanceMeters>
          </Trackpoint>
          <Trackpoint>
            <Time>2022-07-08T10:25:23.000Z</Time>
            <Position>
              <LatitudeDegrees>43.404494337737560272216796875</LatitudeDegrees>
              <LongitudeDegrees>-1.6518959216773509979248046875</LongitudeDegrees>
            </Position>
            <AltitudeMeters>59.799999237060546875</AltitudeMeters>
            <DistanceMeters>NAN</DistanceMeters>
          </Trackpoint>
          <Trackpoint>
            <Time>2022-07-08T10:25:24.000Z</Time>
            <Position>
              <LatitudeDegrees>43.4044908173382282257080078125</LatitudeDegrees>
              <LongitudeDegrees>-1.65191008709371089935302734375</LongitudeDegrees>
            </Position>
            <AltitudeMeters>59.799999237060546875</AltitudeMeters>
            <DistanceMeters>NAN</DistanceMeters>
          </Trackpoint>
          <Trackpoint>
            <Time>2022-07-08T10:25:29.000Z</Time>
            <Position>
              <LatitudeDegrees>43.4045035578310489654541015625</LatitudeDegrees>
              <LongitudeDegrees>-1.65204067714512348175048828125</LongitudeDegrees>
            </Position>
            <AltitudeMeters>59.40000152587890625</AltitudeMeters>
            <DistanceMeters>NAN</DistanceMeters>
          </Trackpoint>
          <Trackpoint>
            <Time>2022-07-08T10:25:33.000Z</Time>
            <Position>
              <LatitudeDegrees>43.4045214951038360595703125</LatitudeDegrees>
              <LongitudeDegrees>-1.652172692120075225830078125</LongitudeDegrees>
            </Position>
            <AltitudeMeters>59.59999847412109375</AltitudeMeters>
            <DistanceMeters>NAN</DistanceMeters>
          </Trackpoint>
          <Trackpoint>
            <Time>2022-07-08T10:25:36.000Z</Time>
            <Position>
              <LatitudeDegrees>43.40450397692620754241943359375</LatitudeDegrees>
              <LongitudeDegrees>-1.652254499495029449462890625</LongitudeDegrees>
            </Position>
            <AltitudeMeters>60</AltitudeMeters>
            <DistanceMeters>NAN</DistanceMeters>
          </Trackpoint>
          <Trackpoint>
            <Time>2022-07-08T10:25:44.000Z</Time>
            <Position>
              <LatitudeDegrees>43.4044113568961620330810546875</LatitudeDegrees>
              <LongitudeDegrees>-1.65246798656880855560302734375</LongitudeDegrees>
            </Position>
            <AltitudeMeters>60.59999847412109375</AltitudeMeters>
            <DistanceMeters>NAN</DistanceMeters>
          </Trackpoint>
          <Trackpoint>
            <Time>2022-07-08T10:25:47.000Z</Time>
            <Position>
              <LatitudeDegrees>43.404425270855426788330078125</LatitudeDegrees>
              <LongitudeDegrees>-1.65255415253341197967529296875</LongitudeDegrees>
            </Position>
            <AltitudeMeters>60.59999847412109375</AltitudeMeters>
            <DistanceMeters>NAN</DistanceMeters>
          </Trackpoint>
          <Trackpoint>
            <Time>2022-07-08T10:25:49.000Z</Time>
            <Position>
              <LatitudeDegrees>43.40443809516727924346923828125</LatitudeDegrees>
              <LongitudeDegrees>-1.65261601097881793975830078125</LongitudeDegrees>
            </Position>
            <AltitudeMeters>60.59999847412109375</AltitudeMeters>
            <DistanceMeters>NAN</DistanceMeters>
          </Trackpoint>
          <Trackpoint>
            <Time>2022-07-08T10:25:51.000Z</Time>
            <Position>
              <LatitudeDegrees>43.40443993918597698211669921875</LatitudeDegrees>
              <LongitudeDegrees>-1.6526694037020206451416015625</LongitudeDegrees>
            </Position>
            <AltitudeMeters>60.59999847412109375</AltitudeMeters>
            <DistanceMeters>NAN</DistanceMeters>
          </Trackpoint>
          <Trackpoint>
            <Time>2022-07-08T10:25:53.000Z</Time>
            <Position>
              <LatitudeDegrees>43.40443138964474201202392578125</LatitudeDegrees>
              <LongitudeDegrees>-1.65271609090268611907958984375</LongitudeDegrees>
            </Position>
            <AltitudeMeters>60.59999847412109375</AltitudeMeters>
            <DistanceMeters>NAN</DistanceMeters>
          </Trackpoint>
          <Trackpoint>
            <Time>2022-07-08T10:25:56.000Z</Time>
            <Position>
              <LatitudeDegrees>43.40442426502704620361328125</LatitudeDegrees>
              <LongitudeDegrees>-1.65279789827764034271240234375</LongitudeDegrees>
            </Position>
            <AltitudeMeters>60.59999847412109375</AltitudeMeters>
            <DistanceMeters>NAN</DistanceMeters>
          </Trackpoint>
          <Trackpoint>
            <Time>2022-07-08T10:26:03.000Z</Time>
            <Position>
              <LatitudeDegrees>43.4043942578136920928955078125</LatitudeDegrees>
              <LongitudeDegrees>-1.65294894017279148101806640625</LongitudeDegrees>
            </Position>
            <AltitudeMeters>60.40000152587890625</AltitudeMeters>
            <DistanceMeters>NAN</DistanceMeters>
          </Trackpoint>
          <Trackpoint>
            <Time>2022-07-08T10:26:06.000Z</Time>
            <Position>
              <LatitudeDegrees>43.40438939630985260009765625</LatitudeDegrees>
              <LongitudeDegrees>-1.65302194654941558837890625</LongitudeDegrees>
            </Position>
            <AltitudeMeters>60.200000762939453125</AltitudeMeters>
            <DistanceMeters>NAN</DistanceMeters>
          </Trackpoint>
          <Trackpoint>
            <Time>2022-07-08T10:26:10.000Z</Time>
            <Position>
              <LatitudeDegrees>43.40437866747379302978515625</LatitudeDegrees>
              <LongitudeDegrees>-1.65315848775207996368408203125</LongitudeDegrees>
            </Position>
            <AltitudeMeters>59.59999847412109375</AltitudeMeters>
            <DistanceMeters>NAN</DistanceMeters>
          </Trackpoint>
          <Trackpoint>
            <Time>2022-07-08T10:26:13.000Z</Time>
            <Position>
              <LatitudeDegrees>43.40434388257563114166259765625</LatitudeDegrees>
              <LongitudeDegrees>-1.6532693803310394287109375</LongitudeDegrees>
            </Position>
            <AltitudeMeters>59</AltitudeMeters>
            <DistanceMeters>NAN</DistanceMeters>
          </Trackpoint>
          <Trackpoint>
            <Time>2022-07-08T10:26:15.000Z</Time>
            <Position>
              <LatitudeDegrees>43.40433198027312755584716796875</LatitudeDegrees>
              <LongitudeDegrees>-1.6533372737467288970947265625</LongitudeDegrees>
            </Position>
            <AltitudeMeters>58.59999847412109375</AltitudeMeters>
            <DistanceMeters>NAN</DistanceMeters>
          </Trackpoint>
          <Trackpoint>
            <Time>2022-07-08T10:26:17.000Z</Time>
            <Position>
              <LatitudeDegrees>43.40433248318731784820556640625</LatitudeDegrees>
              <LongitudeDegrees>-1.653419248759746551513671875</LongitudeDegrees>
            </Position>
            <AltitudeMeters>58</AltitudeMeters>
            <DistanceMeters>NAN</DistanceMeters>
          </Trackpoint>
          <Trackpoint>
            <Time>2022-07-08T10:26:19.000Z</Time>
            <Position>
              <LatitudeDegrees>43.40434203855693340301513671875</LatitudeDegrees>
              <LongitudeDegrees>-1.65349242277443408966064453125</LongitudeDegrees>
            </Position>
            <AltitudeMeters>57.59999847412109375</AltitudeMeters>
            <DistanceMeters>NAN</DistanceMeters>
          </Trackpoint>
          <Trackpoint>
            <Time>2022-07-08T10:26:22.000Z</Time>
            <Position>
              <LatitudeDegrees>43.404374308884143829345703125</LatitudeDegrees>
              <LongitudeDegrees>-1.65360138751566410064697265625</LongitudeDegrees>
            </Position>
            <AltitudeMeters>57.200000762939453125</AltitudeMeters>
            <DistanceMeters>NAN</DistanceMeters>
          </Trackpoint>
          <Trackpoint>
            <Time>2022-07-08T10:26:24.000Z</Time>
            <Position>
              <LatitudeDegrees>43.40437388978898525238037109375</LatitudeDegrees>
              <LongitudeDegrees>-1.6536366753280162811279296875</LongitudeDegrees>
            </Position>
            <AltitudeMeters>57</AltitudeMeters>
            <DistanceMeters>NAN</DistanceMeters>
          </Trackpoint>
          <Trackpoint>
            <Time>2022-07-08T10:26:27.000Z</Time>
            <Position>
              <LatitudeDegrees>43.404330052435398101806640625</LatitudeDegrees>
              <LongitudeDegrees>-1.6537764854729175567626953125</LongitudeDegrees>
            </Position>
            <AltitudeMeters>56.200000762939453125</AltitudeMeters>
            <DistanceMeters>NAN</DistanceMeters>
          </Trackpoint>
          <Trackpoint>
            <Time>2022-07-08T10:26:29.000Z</Time>
            <Position>
              <LatitudeDegrees>43.40431169606745243072509765625</LatitudeDegrees>
              <LongitudeDegrees>-1.65382032282650470733642578125</LongitudeDegrees>
            </Position>
            <AltitudeMeters>55.799999237060546875</AltitudeMeters>
            <DistanceMeters>NAN</DistanceMeters>
          </Trackpoint>
          <Trackpoint>
            <Time>2022-07-08T10:26:30.000Z</Time>
            <Position>
              <LatitudeDegrees>43.40426391921937465667724609375</LatitudeDegrees>
              <LongitudeDegrees>-1.65387882851064205169677734375</LongitudeDegrees>
            </Position>
            <AltitudeMeters>55.59999847412109375</AltitudeMeters>
            <DistanceMeters>NAN</DistanceMeters>
          </Trackpoint>
          <Trackpoint>
            <Time>2022-07-08T10:26:32.000Z</Time>
            <Position>
              <LatitudeDegrees>43.40421228669583797454833984375</LatitudeDegrees>
              <LongitudeDegrees>-1.65391554124653339385986328125</LongitudeDegrees>
            </Position>
            <AltitudeMeters>54.59999847412109375</AltitudeMeters>
            <DistanceMeters>NAN</DistanceMeters>
          </Trackpoint>
          <Trackpoint>
            <Time>2022-07-08T10:26:35.000Z</Time>
            <Position>
              <LatitudeDegrees>43.40413249097764492034912109375</LatitudeDegrees>
              <LongitudeDegrees>-1.6538928262889385223388671875</LongitudeDegrees>
            </Position>
            <AltitudeMeters>53.40000152587890625</AltitudeMeters>
            <DistanceMeters>NAN</DistanceMeters>
          </Trackpoint>
          <Trackpoint>
            <Time>2022-07-08T10:26:36.000Z</Time>
            <Position>
              <LatitudeDegrees>43.40410298667848110198974609375</LatitudeDegrees>
              <LongitudeDegrees>-1.65386952459812164306640625</LongitudeDegrees>
            </Position>
            <AltitudeMeters>53</AltitudeMeters>
            <DistanceMeters>NAN</DistanceMeters>
          </Trackpoint>
          <Trackpoint>
            <Time>2022-07-08T10:26:39.000Z</Time>
            <Position>
              <LatitudeDegrees>43.4040251187980175018310546875</LatitudeDegrees>
              <LongitudeDegrees>-1.6537590511143207550048828125</LongitudeDegrees>
            </Position>
            <AltitudeMeters>52.40000152587890625</AltitudeMeters>
            <DistanceMeters>NAN</DistanceMeters>
          </Trackpoint>
          <Trackpoint>
            <Time>2022-07-08T10:26:42.000Z</Time>
            <Position>
              <LatitudeDegrees>43.40394951403141021728515625</LatitudeDegrees>
              <LongitudeDegrees>-1.65363642387092113494873046875</LongitudeDegrees>
            </Position>
            <AltitudeMeters>52</AltitudeMeters>
            <DistanceMeters>NAN</DistanceMeters>
          </Trackpoint>
          <Trackpoint>
            <Time>2022-07-08T10:26:47.000Z</Time>
            <Position>
              <LatitudeDegrees>43.4038319997489452362060546875</LatitudeDegrees>
              <LongitudeDegrees>-1.65351413190364837646484375</LongitudeDegrees>
            </Position>
            <AltitudeMeters>51.40000152587890625</AltitudeMeters>
            <DistanceMeters>NAN</DistanceMeters>
          </Trackpoint>
          <Trackpoint>
            <Time>2022-07-08T10:26:48.000Z</Time>
            <Position>
              <LatitudeDegrees>43.40381012298166751861572265625</LatitudeDegrees>
              <LongitudeDegrees>-1.653514802455902099609375</LongitudeDegrees>
            </Position>
            <AltitudeMeters>51.200000762939453125</AltitudeMeters>
            <DistanceMeters>NAN</DistanceMeters>
          </Trackpoint>
          <Trackpoint>
            <Time>2022-07-08T10:26:50.000Z</Time>
            <Position>
              <LatitudeDegrees>43.4037652797996997833251953125</LatitudeDegrees>
              <LongitudeDegrees>-1.65356970392167568206787109375</LongitudeDegrees>
            </Position>
            <AltitudeMeters>50.799999237060546875</AltitudeMeters>
            <DistanceMeters>NAN</DistanceMeters>
          </Trackpoint>
          <Trackpoint>
            <Time>2022-07-08T10:26:52.000Z</Time>
            <Position>
              <LatitudeDegrees>43.40375907719135284423828125</LatitudeDegrees>
              <LongitudeDegrees>-1.653649248182773590087890625</LongitudeDegrees>
            </Position>
            <AltitudeMeters>50.200000762939453125</AltitudeMeters>
            <DistanceMeters>NAN</DistanceMeters>
          </Trackpoint>
          <Trackpoint>
            <Time>2022-07-08T10:26:53.000Z</Time>
            <Position>
              <LatitudeDegrees>43.40376335196197032928466796875</LatitudeDegrees>
              <LongitudeDegrees>-1.65368235670030117034912109375</LongitudeDegrees>
            </Position>
            <AltitudeMeters>49.799999237060546875</AltitudeMeters>
            <DistanceMeters>NAN</DistanceMeters>
          </Trackpoint>
          <Trackpoint>
            <Time>2022-07-08T10:26:54.000Z</Time>
            <Position>
              <LatitudeDegrees>43.40377290733158588409423828125</LatitudeDegrees>
              <LongitudeDegrees>-1.65370725095272064208984375</LongitudeDegrees>
            </Position>
            <AltitudeMeters>49.200000762939453125</AltitudeMeters>
            <DistanceMeters>NAN</DistanceMeters>
          </Trackpoint>
          <Trackpoint>
            <Time>2022-07-08T10:26:55.000Z</Time>
            <Position>
              <LatitudeDegrees>43.4037864021956920623779296875</LatitudeDegrees>
              <LongitudeDegrees>-1.6537325643002986907958984375</LongitudeDegrees>
            </Position>
            <AltitudeMeters>49</AltitudeMeters>
            <DistanceMeters>NAN</DistanceMeters>
          </Trackpoint>
          <Trackpoint>
            <Time>2022-07-08T10:27:03.000Z</Time>
            <Position>
              <LatitudeDegrees>43.40390668250620365142822265625</LatitudeDegrees>
              <LongitudeDegrees>-1.65398620069026947021484375</LongitudeDegrees>
            </Position>
            <AltitudeMeters>48.59999847412109375</AltitudeMeters>
            <DistanceMeters>NAN</DistanceMeters>
          </Trackpoint>
          <Trackpoint>
            <Time>2022-07-08T10:27:12.000Z</Time>
            <Position>
              <LatitudeDegrees>43.40404297225177288055419921875</LatitudeDegrees>
              <LongitudeDegrees>-1.65433597750961780548095703125</LongitudeDegrees>
            </Position>
            <AltitudeMeters>48.59999847412109375</AltitudeMeters>
            <DistanceMeters>NAN</DistanceMeters>
          </Trackpoint>
          <Trackpoint>
            <Time>2022-07-08T10:27:13.000Z</Time>
            <Position>
              <LatitudeDegrees>43.404042385518550872802734375</LatitudeDegrees>
              <LongitudeDegrees>-1.65437352843582630157470703125</LongitudeDegrees>
            </Position>
            <AltitudeMeters>48.40000152587890625</AltitudeMeters>
            <DistanceMeters>NAN</DistanceMeters>
          </Trackpoint>
          <Trackpoint>
            <Time>2022-07-08T10:27:15.000Z</Time>
            <Position>
              <LatitudeDegrees>43.40401246212422847747802734375</LatitudeDegrees>
              <LongitudeDegrees>-1.654433794319629669189453125</LongitudeDegrees>
            </Position>
            <AltitudeMeters>47.799999237060546875</AltitudeMeters>
            <DistanceMeters>NAN</DistanceMeters>
          </Trackpoint>
          <Trackpoint>
            <Time>2022-07-08T10:27:18.000Z</Time>
            <Position>
              <LatitudeDegrees>43.40391523204743862152099609375</LatitudeDegrees>
              <LongitudeDegrees>-1.6544886119663715362548828125</LongitudeDegrees>
            </Position>
            <AltitudeMeters>46.799999237060546875</AltitudeMeters>
            <DistanceMeters>NAN</DistanceMeters>
          </Trackpoint>
          <Trackpoint>
            <Time>2022-07-08T10:27:21.000Z</Time>
            <Position>
              <LatitudeDegrees>43.40381045825779438018798828125</LatitudeDegrees>
              <LongitudeDegrees>-1.65455927141010761260986328125</LongitudeDegrees>
            </Position>
            <AltitudeMeters>45.40000152587890625</AltitudeMeters>
            <DistanceMeters>NAN</DistanceMeters>
          </Trackpoint>
          <Trackpoint>
            <Time>2022-07-08T10:27:24.000Z</Time>
            <Position>
              <LatitudeDegrees>43.40372898615896701812744140625</LatitudeDegrees>
              <LongitudeDegrees>-1.6546891070902347564697265625</LongitudeDegrees>
            </Position>
            <AltitudeMeters>43.799999237060546875</AltitudeMeters>
            <DistanceMeters>NAN</DistanceMeters>
          </Trackpoint>
          <Trackpoint>
            <Time>2022-07-08T10:27:25.000Z</Time>
            <Position>
              <LatitudeDegrees>43.40372144244611263275146484375</LatitudeDegrees>
              <LongitudeDegrees>-1.65474752895534038543701171875</LongitudeDegrees>
            </Position>
            <AltitudeMeters>43.40000152587890625</AltitudeMeters>
            <DistanceMeters>NAN</DistanceMeters>
          </Trackpoint>
          <Trackpoint>
            <Time>2022-07-08T10:27:27.000Z</Time>
            <Position>
              <LatitudeDegrees>43.4037408046424388885498046875</LatitudeDegrees>
              <LongitudeDegrees>-1.65486755780875682830810546875</LongitudeDegrees>
            </Position>
            <AltitudeMeters>42.799999237060546875</AltitudeMeters>
            <DistanceMeters>NAN</DistanceMeters>
          </Trackpoint>
          <Trackpoint>
            <Time>2022-07-08T10:27:31.000Z</Time>
            <Position>
              <LatitudeDegrees>43.403796292841434478759765625</LatitudeDegrees>
              <LongitudeDegrees>-1.65508230216801166534423828125</LongitudeDegrees>
            </Position>
            <AltitudeMeters>42</AltitudeMeters>
            <DistanceMeters>NAN</DistanceMeters>
          </Trackpoint>
          <Trackpoint>
            <Time>2022-07-08T10:27:33.000Z</Time>
            <Position>
              <LatitudeDegrees>43.40380844660103321075439453125</LatitudeDegrees>
              <LongitudeDegrees>-1.6551630198955535888671875</LongitudeDegrees>
            </Position>
            <AltitudeMeters>41.40000152587890625</AltitudeMeters>
            <DistanceMeters>NAN</DistanceMeters>
          </Trackpoint>
          <Trackpoint>
            <Time>2022-07-08T10:27:34.000Z</Time>
            <Position>
              <LatitudeDegrees>43.40380375273525714874267578125</LatitudeDegrees>
              <LongitudeDegrees>-1.6551898419857025146484375</LongitudeDegrees>
            </Position>
            <AltitudeMeters>41.200000762939453125</AltitudeMeters>
            <DistanceMeters>NAN</DistanceMeters>
          </Trackpoint>
          <Trackpoint>
            <Time>2022-07-08T10:27:36.000Z</Time>
            <Position>
              <LatitudeDegrees>43.4037874080240726470947265625</LatitudeDegrees>
              <LongitudeDegrees>-1.655229739844799041748046875</LongitudeDegrees>
            </Position>
            <AltitudeMeters>40.200000762939453125</AltitudeMeters>
            <DistanceMeters>NAN</DistanceMeters>
          </Trackpoint>
          <Trackpoint>
            <Time>2022-07-08T10:27:39.000Z</Time>
            <Position>
              <LatitudeDegrees>43.40373451821506023406982421875</LatitudeDegrees>
              <LongitudeDegrees>-1.6552758403122425079345703125</LongitudeDegrees>
            </Position>
            <AltitudeMeters>39</AltitudeMeters>
            <DistanceMeters>NAN</DistanceMeters>
          </Trackpoint>
          <Trackpoint>
            <Time>2022-07-08T10:27:40.000Z</Time>
            <Position>
              <LatitudeDegrees>43.40371473692357540130615234375</LatitudeDegrees>
              <LongitudeDegrees>-1.65529637597501277923583984375</LongitudeDegrees>
            </Position>
            <AltitudeMeters>38.799999237060546875</AltitudeMeters>
            <DistanceMeters>NAN</DistanceMeters>
          </Trackpoint>
          <Trackpoint>
            <Time>2022-07-08T10:27:43.000Z</Time>
            <Position>
              <LatitudeDegrees>43.40367265976965427398681640625</LatitudeDegrees>
              <LongitudeDegrees>-1.65541171096265316009521484375</LongitudeDegrees>
            </Position>
            <AltitudeMeters>37.799999237060546875</AltitudeMeters>
            <DistanceMeters>NAN</DistanceMeters>
          </Trackpoint>
          <Trackpoint>
            <Time>2022-07-08T10:27:47.000Z</Time>
            <Position>
              <LatitudeDegrees>43.4036881662905216217041015625</LatitudeDegrees>
              <LongitudeDegrees>-1.65559812448918819427490234375</LongitudeDegrees>
            </Position>
            <AltitudeMeters>36.799999237060546875</AltitudeMeters>
            <DistanceMeters>NAN</DistanceMeters>
          </Trackpoint>
          <Trackpoint>
            <Time>2022-07-08T10:27:48.000Z</Time>
            <Position>
              <LatitudeDegrees>43.40368590317666530609130859375</LatitudeDegrees>
              <LongitudeDegrees>-1.6556349210441112518310546875</LongitudeDegrees>
            </Position>
            <AltitudeMeters>36.59999847412109375</AltitudeMeters>
            <DistanceMeters>NAN</DistanceMeters>
          </Trackpoint>
          <Trackpoint>
            <Time>2022-07-08T10:27:51.000Z</Time>
            <Position>
              <LatitudeDegrees>43.40366578660905361175537109375</LatitudeDegrees>
              <LongitudeDegrees>-1.65572687052190303802490234375</LongitudeDegrees>
            </Position>
            <AltitudeMeters>35.40000152587890625</AltitudeMeters>
            <DistanceMeters>NAN</DistanceMeters>
          </Trackpoint>
          <Trackpoint>
            <Time>2022-07-08T10:27:52.000Z</Time>
            <Position>
              <LatitudeDegrees>43.403652794659137725830078125</LatitudeDegrees>
              <LongitudeDegrees>-1.655746735632419586181640625</LongitudeDegrees>
            </Position>
            <AltitudeMeters>35.200000762939453125</AltitudeMeters>
            <DistanceMeters>NAN</DistanceMeters>
          </Trackpoint>
          <Trackpoint>
            <Time>2022-07-08T10:27:53.000Z</Time>
            <Position>
              <LatitudeDegrees>43.4036336839199066162109375</LatitudeDegrees>
              <LongitudeDegrees>-1.6557619906961917877197265625</LongitudeDegrees>
            </Position>
            <AltitudeMeters>35.200000762939453125</AltitudeMeters>
            <DistanceMeters>NAN</DistanceMeters>
          </Trackpoint>
          <Trackpoint>
            <Time>2022-07-08T10:27:58.000Z</Time>
            <Position>
              <LatitudeDegrees>43.40351826511323451995849609375</LatitudeDegrees>
              <LongitudeDegrees>-1.65587673895061016082763671875</LongitudeDegrees>
            </Position>
            <AltitudeMeters>34.799999237060546875</AltitudeMeters>
            <DistanceMeters>NAN</DistanceMeters>
          </Trackpoint>
          <Trackpoint>
            <Time>2022-07-08T10:27:59.000Z</Time>
            <Position>
              <LatitudeDegrees>43.40348976664245128631591796875</LatitudeDegrees>
              <LongitudeDegrees>-1.655913032591342926025390625</LongitudeDegrees>
            </Position>
            <AltitudeMeters>34.59999847412109375</AltitudeMeters>
            <DistanceMeters>NAN</DistanceMeters>
          </Trackpoint>
          <Trackpoint>
            <Time>2022-07-08T10:28:00.000Z</Time>
            <Position>
              <LatitudeDegrees>43.403460681438446044921875</LatitudeDegrees>
              <LongitudeDegrees>-1.655953265726566314697265625</LongitudeDegrees>
            </Position>
            <AltitudeMeters>34.200000762939453125</AltitudeMeters>
            <DistanceMeters>NAN</DistanceMeters>
          </Trackpoint>
          <Trackpoint>
            <Time>2022-07-08T10:28:01.000Z</Time>
            <Position>
              <LatitudeDegrees>43.4034300036728382110595703125</LatitudeDegrees>
              <LongitudeDegrees>-1.65599224157631397247314453125</LongitudeDegrees>
            </Position>
            <AltitudeMeters>34.200000762939453125</AltitudeMeters>
            <DistanceMeters>NAN</DistanceMeters>
          </Trackpoint>
          <Trackpoint>
            <Time>2022-07-08T10:28:04.000Z</Time>
            <Position>
              <LatitudeDegrees>43.40335465036332607269287109375</LatitudeDegrees>
              <LongitudeDegrees>-1.65612031705677509307861328125</LongitudeDegrees>
            </Position>
            <AltitudeMeters>34</AltitudeMeters>
            <DistanceMeters>NAN</DistanceMeters>
          </Trackpoint>
          <Trackpoint>
            <Time>2022-07-08T10:28:06.000Z</Time>
            <Position>
              <LatitudeDegrees>43.40332229621708393096923828125</LatitudeDegrees>
              <LongitudeDegrees>-1.656185947358608245849609375</LongitudeDegrees>
            </Position>
            <AltitudeMeters>34</AltitudeMeters>
            <DistanceMeters>NAN</DistanceMeters>
          </Trackpoint>
          <Trackpoint>
            <Time>2022-07-08T10:28:08.000Z</Time>
            <Position>
              <LatitudeDegrees>43.4032975696027278900146484375</LatitudeDegrees>
              <LongitudeDegrees>-1.65622458793222904205322265625</LongitudeDegrees>
            </Position>
            <AltitudeMeters>34</AltitudeMeters>
            <DistanceMeters>NAN</DistanceMeters>
          </Trackpoint>
          <Trackpoint>
            <Time>2022-07-08T10:28:16.000Z</Time>
            <Position>
              <LatitudeDegrees>43.4032251499593257904052734375</LatitudeDegrees>
              <LongitudeDegrees>-1.656403876841068267822265625</LongitudeDegrees>
            </Position>
            <AltitudeMeters>34.59999847412109375</AltitudeMeters>
            <DistanceMeters>NAN</DistanceMeters>
          </Trackpoint>
          <Trackpoint>
            <Time>2022-07-08T10:28:23.000Z</Time>
            <Position>
              <LatitudeDegrees>43.40313420630991458892822265625</LatitudeDegrees>
              <LongitudeDegrees>-1.65654326789081096649169921875</LongitudeDegrees>
            </Position>
            <AltitudeMeters>34.799999237060546875</AltitudeMeters>
            <DistanceMeters>NAN</DistanceMeters>
          </Trackpoint>
          <Trackpoint>
            <Time>2022-07-08T10:28:29.000Z</Time>
            <Position>
              <LatitudeDegrees>43.40302809141576290130615234375</LatitudeDegrees>
              <LongitudeDegrees>-1.6565690003335475921630859375</LongitudeDegrees>
            </Position>
            <AltitudeMeters>35</AltitudeMeters>
            <DistanceMeters>NAN</DistanceMeters>
          </Trackpoint>
          <Trackpoint>
            <Time>2022-07-08T10:28:30.000Z</Time>
            <Position>
              <LatitudeDegrees>43.40301434509456157684326171875</LatitudeDegrees>
              <LongitudeDegrees>-1.65656271390616893768310546875</LongitudeDegrees>
            </Position>
            <AltitudeMeters>35.200000762939453125</AltitudeMeters>
            <DistanceMeters>NAN</DistanceMeters>
          </Trackpoint>
          <Trackpoint>
            <Time>2022-07-08T10:28:32.000Z</Time>
            <Position>
              <LatitudeDegrees>43.40298702009022235870361328125</LatitudeDegrees>
              <LongitudeDegrees>-1.656556427478790283203125</LongitudeDegrees>
            </Position>
            <AltitudeMeters>35.40000152587890625</AltitudeMeters>
            <DistanceMeters>NAN</DistanceMeters>
          </Trackpoint>
          <Trackpoint>
            <Time>2022-07-08T10:28:36.000Z</Time>
            <Position>
              <LatitudeDegrees>43.4029381535947322845458984375</LatitudeDegrees>
              <LongitudeDegrees>-1.65654377080500125885009765625</LongitudeDegrees>
            </Position>
            <AltitudeMeters>35.799999237060546875</AltitudeMeters>
            <DistanceMeters>NAN</DistanceMeters>
          </Trackpoint>
          <Trackpoint>
            <Time>2022-07-08T10:28:39.000Z</Time>
            <Position>
              <LatitudeDegrees>43.40290345251560211181640625</LatitudeDegrees>
              <LongitudeDegrees>-1.65654863230884075164794921875</LongitudeDegrees>
            </Position>
            <AltitudeMeters>36.40000152587890625</AltitudeMeters>
            <DistanceMeters>NAN</DistanceMeters>
          </Trackpoint>
          <Trackpoint>
            <Time>2022-07-08T10:28:43.000Z</Time>
            <Position>
              <LatitudeDegrees>43.40285257436335086822509765625</LatitudeDegrees>
              <LongitudeDegrees>-1.6565502248704433441162109375</LongitudeDegrees>
            </Position>
            <AltitudeMeters>37</AltitudeMeters>
            <DistanceMeters>NAN</DistanceMeters>
          </Trackpoint>
          <Trackpoint>
            <Time>2022-07-08T10:28:46.000Z</Time>
            <Position>
              <LatitudeDegrees>43.40281401760876178741455078125</LatitudeDegrees>
              <LongitudeDegrees>-1.656546033918857574462890625</LongitudeDegrees>
            </Position>
            <AltitudeMeters>37.59999847412109375</AltitudeMeters>
            <DistanceMeters>NAN</DistanceMeters>
          </Trackpoint>
          <Trackpoint>
            <Time>2022-07-08T10:28:49.000Z</Time>
            <Position>
              <LatitudeDegrees>43.40277881361544132232666015625</LatitudeDegrees>
              <LongitudeDegrees>-1.65653890930116176605224609375</LongitudeDegrees>
            </Position>
            <AltitudeMeters>38.200000762939453125</AltitudeMeters>
            <DistanceMeters>NAN</DistanceMeters>
          </Trackpoint>
          <Trackpoint>
            <Time>2022-07-08T10:28:53.000Z</Time>
            <Position>
              <LatitudeDegrees>43.4027329646050930023193359375</LatitudeDegrees>
              <LongitudeDegrees>-1.65652692317962646484375</LongitudeDegrees>
            </Position>
            <AltitudeMeters>38.40000152587890625</AltitudeMeters>
            <DistanceMeters>NAN</DistanceMeters>
          </Trackpoint>
          <Trackpoint>
            <Time>2022-07-08T10:28:54.000Z</Time>
            <Position>
              <LatitudeDegrees>43.40271879918873310089111328125</LatitudeDegrees>
              <LongitudeDegrees>-1.6565230675041675567626953125</LongitudeDegrees>
            </Position>
            <AltitudeMeters>38.59999847412109375</AltitudeMeters>
            <DistanceMeters>NAN</DistanceMeters>
          </Trackpoint>
          <Trackpoint>
            <Time>2022-07-08T10:28:56.000Z</Time>
            <Position>
              <LatitudeDegrees>43.40269885025918483734130859375</LatitudeDegrees>
              <LongitudeDegrees>-1.65652197785675525665283203125</LongitudeDegrees>
            </Position>
            <AltitudeMeters>39</AltitudeMeters>
            <DistanceMeters>NAN</DistanceMeters>
          </Trackpoint>
          <Trackpoint>
            <Time>2022-07-08T10:29:00.000Z</Time>
            <Position>
              <LatitudeDegrees>43.4026546776294708251953125</LatitudeDegrees>
              <LongitudeDegrees>-1.656507812440395355224609375</LongitudeDegrees>
            </Position>
            <AltitudeMeters>39.59999847412109375</AltitudeMeters>
            <DistanceMeters>NAN</DistanceMeters>
          </Trackpoint>
          <Trackpoint>
            <Time>2022-07-08T10:29:04.000Z</Time>
            <Position>
              <LatitudeDegrees>43.40260111726820468902587890625</LatitudeDegrees>
              <LongitudeDegrees>-1.65648543275892734527587890625</LongitudeDegrees>
            </Position>
            <AltitudeMeters>40.40000152587890625</AltitudeMeters>
            <DistanceMeters>NAN</DistanceMeters>
          </Trackpoint>
          <Trackpoint>
            <Time>2022-07-08T10:29:06.000Z</Time>
            <Position>
              <LatitudeDegrees>43.40257630683481693267822265625</LatitudeDegrees>
              <LongitudeDegrees>-1.65647872723639011383056640625</LongitudeDegrees>
            </Position>
            <AltitudeMeters>40.59999847412109375</AltitudeMeters>
            <DistanceMeters>NAN</DistanceMeters>
          </Trackpoint>
          <Trackpoint>
            <Time>2022-07-08T10:29:14.000Z</Time>
            <Position>
              <LatitudeDegrees>43.40247874148190021514892578125</LatitudeDegrees>
              <LongitudeDegrees>-1.6564680822193622589111328125</LongitudeDegrees>
            </Position>
            <AltitudeMeters>41.799999237060546875</AltitudeMeters>
            <DistanceMeters>NAN</DistanceMeters>
          </Trackpoint>
          <Trackpoint>
            <Time>2022-07-08T10:29:15.000Z</Time>
            <Position>
              <LatitudeDegrees>43.40246583335101604461669921875</LatitudeDegrees>
              <LongitudeDegrees>-1.65647218935191631317138671875</LongitudeDegrees>
            </Position>
            <AltitudeMeters>41.799999237060546875</AltitudeMeters>
            <DistanceMeters>NAN</DistanceMeters>
          </Trackpoint>
          <Trackpoint>
            <Time>2022-07-08T10:29:24.000Z</Time>
            <Position>
              <LatitudeDegrees>43.4023587964475154876708984375</LatitudeDegrees>
              <LongitudeDegrees>-1.6564536653459072113037109375</LongitudeDegrees>
            </Position>
            <AltitudeMeters>42.799999237060546875</AltitudeMeters>
            <DistanceMeters>NAN</DistanceMeters>
          </Trackpoint>
          <Trackpoint>
            <Time>2022-07-08T10:29:32.000Z</Time>
            <Position>
              <LatitudeDegrees>43.4022575430572032928466796875</LatitudeDegrees>
              <LongitudeDegrees>-1.6564342193305492401123046875</LongitudeDegrees>
            </Position>
            <AltitudeMeters>43.799999237060546875</AltitudeMeters>
            <DistanceMeters>NAN</DistanceMeters>
          </Trackpoint>
          <Trackpoint>
            <Time>2022-07-08T10:29:33.000Z</Time>
            <Position>
              <LatitudeDegrees>43.402243964374065399169921875</LatitudeDegrees>
              <LongitudeDegrees>-1.6564315371215343475341796875</LongitudeDegrees>
            </Position>
            <AltitudeMeters>44</AltitudeMeters>
            <DistanceMeters>NAN</DistanceMeters>
          </Trackpoint>
          <Trackpoint>
            <Time>2022-07-08T10:29:42.000Z</Time>
            <Position>
              <LatitudeDegrees>43.40213441289961338043212890625</LatitudeDegrees>
              <LongitudeDegrees>-1.6564164496958255767822265625</LongitudeDegrees>
            </Position>
            <AltitudeMeters>45</AltitudeMeters>
            <DistanceMeters>NAN</DistanceMeters>
          </Trackpoint>
          <Trackpoint>
            <Time>2022-07-08T10:29:50.000Z</Time>
            <Position>
              <LatitudeDegrees>43.40203282423317432403564453125</LatitudeDegrees>
              <LongitudeDegrees>-1.656387113034725189208984375</LongitudeDegrees>
            </Position>
            <AltitudeMeters>46.200000762939453125</AltitudeMeters>
            <DistanceMeters>NAN</DistanceMeters>
          </Trackpoint>
          <Trackpoint>
            <Time>2022-07-08T10:29:55.000Z</Time>
            <Position>
              <LatitudeDegrees>43.4019680321216583251953125</LatitudeDegrees>
              <LongitudeDegrees>-1.6563762165606021881103515625</LongitudeDegrees>
            </Position>
            <AltitudeMeters>46.799999237060546875</AltitudeMeters>
            <DistanceMeters>NAN</DistanceMeters>
          </Trackpoint>
          <Trackpoint>
            <Time>2022-07-08T10:29:58.000Z</Time>
            <Position>
              <LatitudeDegrees>43.40193324722349643707275390625</LatitudeDegrees>
              <LongitudeDegrees>-1.6563685052096843719482421875</LongitudeDegrees>
            </Position>
            <AltitudeMeters>47.200000762939453125</AltitudeMeters>
            <DistanceMeters>NAN</DistanceMeters>
          </Trackpoint>
          <Trackpoint>
            <Time>2022-07-08T10:29:59.000Z</Time>
            <Position>
              <LatitudeDegrees>43.40192042291164398193359375</LatitudeDegrees>
              <LongitudeDegrees>-1.6563654877245426177978515625</LongitudeDegrees>
            </Position>
            <AltitudeMeters>47.40000152587890625</AltitudeMeters>
            <DistanceMeters>NAN</DistanceMeters>
          </Trackpoint>
          <Trackpoint>
            <Time>2022-07-08T10:30:02.000Z</Time>
            <Position>
              <LatitudeDegrees>43.4018873982131481170654296875</LatitudeDegrees>
              <LongitudeDegrees>-1.6563638113439083099365234375</LongitudeDegrees>
            </Position>
            <AltitudeMeters>47.799999237060546875</AltitudeMeters>
            <DistanceMeters>NAN</DistanceMeters>
          </Trackpoint>
          <Trackpoint>
            <Time>2022-07-08T10:30:03.000Z</Time>
            <Position>
              <LatitudeDegrees>43.4018753282725811004638671875</LatitudeDegrees>
              <LongitudeDegrees>-1.65636121295392513275146484375</LongitudeDegrees>
            </Position>
            <AltitudeMeters>48</AltitudeMeters>
            <DistanceMeters>NAN</DistanceMeters>
          </Trackpoint>
          <Trackpoint>
            <Time>2022-07-08T10:30:05.000Z</Time>
            <Position>
              <LatitudeDegrees>43.4018488414585590362548828125</LatitudeDegrees>
              <LongitudeDegrees>-1.65636339224874973297119140625</LongitudeDegrees>
            </Position>
            <AltitudeMeters>48.200000762939453125</AltitudeMeters>
            <DistanceMeters>NAN</DistanceMeters>
          </Trackpoint>
          <Trackpoint>
            <Time>2022-07-08T10:30:07.000Z</Time>
            <Position>
              <LatitudeDegrees>43.4018364362418651580810546875</LatitudeDegrees>
              <LongitudeDegrees>-1.65639457292854785919189453125</LongitudeDegrees>
            </Position>
            <AltitudeMeters>48.40000152587890625</AltitudeMeters>
            <DistanceMeters>NAN</DistanceMeters>
          </Trackpoint>
          <Trackpoint>
            <Time>2022-07-08T10:30:11.000Z</Time>
            <Position>
              <LatitudeDegrees>43.40181590057909488677978515625</LatitudeDegrees>
              <LongitudeDegrees>-1.65648710913956165313720703125</LongitudeDegrees>
            </Position>
            <AltitudeMeters>48.40000152587890625</AltitudeMeters>
            <DistanceMeters>NAN</DistanceMeters>
          </Trackpoint>
          <Trackpoint>
            <Time>2022-07-08T10:30:15.000Z</Time>
            <Position>
              <LatitudeDegrees>43.401775918900966644287109375</LatitudeDegrees>
              <LongitudeDegrees>-1.656624488532543182373046875</LongitudeDegrees>
            </Position>
            <AltitudeMeters>48</AltitudeMeters>
            <DistanceMeters>NAN</DistanceMeters>
          </Trackpoint>
          <Trackpoint>
            <Time>2022-07-08T10:30:18.000Z</Time>
            <Position>
              <LatitudeDegrees>43.40174205601215362548828125</LatitudeDegrees>
              <LongitudeDegrees>-1.65675013326108455657958984375</LongitudeDegrees>
            </Position>
            <AltitudeMeters>47.799999237060546875</AltitudeMeters>
            <DistanceMeters>NAN</DistanceMeters>
          </Trackpoint>
          <Trackpoint>
            <Time>2022-07-08T10:30:24.000Z</Time>
            <Position>
              <LatitudeDegrees>43.40167173184454441070556640625</LatitudeDegrees>
              <LongitudeDegrees>-1.65704232640564441680908203125</LongitudeDegrees>
            </Position>
            <AltitudeMeters>47.40000152587890625</AltitudeMeters>
            <DistanceMeters>NAN</DistanceMeters>
          </Trackpoint>
          <Trackpoint>
            <Time>2022-07-08T10:30:28.000Z</Time>
            <Position>
              <LatitudeDegrees>43.4016148187220096588134765625</LatitudeDegrees>
              <LongitudeDegrees>-1.65724332444369792938232421875</LongitudeDegrees>
            </Position>
            <AltitudeMeters>47</AltitudeMeters>
            <DistanceMeters>NAN</DistanceMeters>
          </Trackpoint>
          <Trackpoint>
            <Time>2022-07-08T10:30:31.000Z</Time>
            <Position>
              <LatitudeDegrees>43.40156293474137783050537109375</LatitudeDegrees>
              <LongitudeDegrees>-1.657376177608966827392578125</LongitudeDegrees>
            </Position>
            <AltitudeMeters>47</AltitudeMeters>
            <DistanceMeters>NAN</DistanceMeters>
          </Trackpoint>
          <Trackpoint>
            <Time>2022-07-08T10:30:36.000Z</Time>
            <Position>
              <LatitudeDegrees>43.4015521220862865447998046875</LatitudeDegrees>
              <LongitudeDegrees>-1.6575858928263187408447265625</LongitudeDegrees>
            </Position>
            <AltitudeMeters>47</AltitudeMeters>
            <DistanceMeters>NAN</DistanceMeters>
          </Trackpoint>
          <Trackpoint>
            <Time>2022-07-08T10:30:44.000Z</Time>
            <Position>
              <LatitudeDegrees>43.4015496075153350830078125</LatitudeDegrees>
              <LongitudeDegrees>-1.657933406531810760498046875</LongitudeDegrees>
            </Position>
            <AltitudeMeters>46.799999237060546875</AltitudeMeters>
            <DistanceMeters>NAN</DistanceMeters>
          </Trackpoint>
          <Trackpoint>
            <Time>2022-07-08T10:30:50.000Z</Time>
            <Position>
              <LatitudeDegrees>43.401554636657238006591796875</LatitudeDegrees>
              <LongitudeDegrees>-1.6582085005939006805419921875</LongitudeDegrees>
            </Position>
            <AltitudeMeters>46.799999237060546875</AltitudeMeters>
            <DistanceMeters>NAN</DistanceMeters>
          </Trackpoint>
          <Trackpoint>
            <Time>2022-07-08T10:30:54.000Z</Time>
            <Position>
              <LatitudeDegrees>43.40156561695039272308349609375</LatitudeDegrees>
              <LongitudeDegrees>-1.65837856940925121307373046875</LongitudeDegrees>
            </Position>
            <AltitudeMeters>46.799999237060546875</AltitudeMeters>
            <DistanceMeters>NAN</DistanceMeters>
          </Trackpoint>
          <Trackpoint>
            <Time>2022-07-08T10:31:03.000Z</Time>
            <Position>
              <LatitudeDegrees>43.40159051120281219482421875</LatitudeDegrees>
              <LongitudeDegrees>-1.65875324048101902008056640625</LongitudeDegrees>
            </Position>
            <AltitudeMeters>47.200000762939453125</AltitudeMeters>
            <DistanceMeters>NAN</DistanceMeters>
          </Trackpoint>
          <Trackpoint>
            <Time>2022-07-08T10:31:11.000Z</Time>
            <Position>
              <LatitudeDegrees>43.40157886035740375518798828125</LatitudeDegrees>
              <LongitudeDegrees>-1.6591093875467777252197265625</LongitudeDegrees>
            </Position>
            <AltitudeMeters>47.40000152587890625</AltitudeMeters>
            <DistanceMeters>NAN</DistanceMeters>
          </Trackpoint>
          <Trackpoint>
            <Time>2022-07-08T10:31:13.000Z</Time>
            <Position>
              <LatitudeDegrees>43.401582129299640655517578125</LatitudeDegrees>
              <LongitudeDegrees>-1.65921323932707309722900390625</LongitudeDegrees>
            </Position>
            <AltitudeMeters>47.200000762939453125</AltitudeMeters>
            <DistanceMeters>NAN</DistanceMeters>
          </Trackpoint>
          <Trackpoint>
            <Time>2022-07-08T10:31:16.000Z</Time>
            <Position>
              <LatitudeDegrees>43.40158036909997463226318359375</LatitudeDegrees>
              <LongitudeDegrees>-1.6593360342085361480712890625</LongitudeDegrees>
            </Position>
            <AltitudeMeters>47.200000762939453125</AltitudeMeters>
            <DistanceMeters>NAN</DistanceMeters>
          </Trackpoint>
          <Trackpoint>
            <Time>2022-07-08T10:31:19.000Z</Time>
            <Position>
              <LatitudeDegrees>43.40157818980515003204345703125</LatitudeDegrees>
              <LongitudeDegrees>-1.65945530869066715240478515625</LongitudeDegrees>
            </Position>
            <AltitudeMeters>47.200000762939453125</AltitudeMeters>
            <DistanceMeters>NAN</DistanceMeters>
          </Trackpoint>
          <Trackpoint>
            <Time>2022-07-08T10:31:20.000Z</Time>
            <Position>
              <LatitudeDegrees>43.4015755914151668548583984375</LatitudeDegrees>
              <LongitudeDegrees>-1.65949218906462192535400390625</LongitudeDegrees>
            </Position>
            <AltitudeMeters>47.200000762939453125</AltitudeMeters>
            <DistanceMeters>NAN</DistanceMeters>
          </Trackpoint>
          <Trackpoint>
            <Time>2022-07-08T10:31:23.000Z</Time>
            <Position>
              <LatitudeDegrees>43.4015420638024806976318359375</LatitudeDegrees>
              <LongitudeDegrees>-1.65958464145660400390625</LongitudeDegrees>
            </Position>
            <AltitudeMeters>47.40000152587890625</AltitudeMeters>
            <DistanceMeters>NAN</DistanceMeters>
          </Trackpoint>
          <Trackpoint>
            <Time>2022-07-08T10:31:24.000Z</Time>
            <Position>
              <LatitudeDegrees>43.40151943266391754150390625</LatitudeDegrees>
              <LongitudeDegrees>-1.65960132144391536712646484375</LongitudeDegrees>
            </Position>
            <AltitudeMeters>47.40000152587890625</AltitudeMeters>
            <DistanceMeters>NAN</DistanceMeters>
          </Trackpoint>
          <Trackpoint>
            <Time>2022-07-08T10:31:26.000Z</Time>
            <Position>
              <LatitudeDegrees>43.40145866386592388153076171875</LatitudeDegrees>
              <LongitudeDegrees>-1.65961774997413158416748046875</LongitudeDegrees>
            </Position>
            <AltitudeMeters>47.40000152587890625</AltitudeMeters>
            <DistanceMeters>NAN</DistanceMeters>
          </Trackpoint>
          <Trackpoint>
            <Time>2022-07-08T10:31:28.000Z</Time>
            <Position>
              <LatitudeDegrees>43.401406109333038330078125</LatitudeDegrees>
              <LongitudeDegrees>-1.6596042551100254058837890625</LongitudeDegrees>
            </Position>
            <AltitudeMeters>47.40000152587890625</AltitudeMeters>
            <DistanceMeters>NAN</DistanceMeters>
          </Trackpoint>
          <Trackpoint>
            <Time>2022-07-08T10:31:33.000Z</Time>
            <Position>
              <LatitudeDegrees>43.40126462280750274658203125</LatitudeDegrees>
              <LongitudeDegrees>-1.65966787375509738922119140625</LongitudeDegrees>
            </Position>
            <AltitudeMeters>47</AltitudeMeters>
            <DistanceMeters>NAN</DistanceMeters>
          </Trackpoint>
          <Trackpoint>
            <Time>2022-07-08T10:31:39.000Z</Time>
            <Position>
              <LatitudeDegrees>43.4011070430278778076171875</LatitudeDegrees>
              <LongitudeDegrees>-1.65995889343321323394775390625</LongitudeDegrees>
            </Position>
            <AltitudeMeters>46.200000762939453125</AltitudeMeters>
            <DistanceMeters>NAN</DistanceMeters>
          </Trackpoint>
          <Trackpoint>
            <Time>2022-07-08T10:31:47.000Z</Time>
            <Position>
              <LatitudeDegrees>43.40084225870668888092041015625</LatitudeDegrees>
              <LongitudeDegrees>-1.66037983261048793792724609375</LongitudeDegrees>
            </Position>
            <AltitudeMeters>45.59999847412109375</AltitudeMeters>
            <DistanceMeters>NAN</DistanceMeters>
          </Trackpoint>
          <Trackpoint>
            <Time>2022-07-08T10:31:48.000Z</Time>
            <Position>
              <LatitudeDegrees>43.4008047915995121002197265625</LatitudeDegrees>
              <LongitudeDegrees>-1.66042811237275600433349609375</LongitudeDegrees>
            </Position>
            <AltitudeMeters>45.40000152587890625</AltitudeMeters>
            <DistanceMeters>NAN</DistanceMeters>
          </Trackpoint>
          <Trackpoint>
            <Time>2022-07-08T10:31:49.000Z</Time>
            <Position>
              <LatitudeDegrees>43.40076330117881298065185546875</LatitudeDegrees>
              <LongitudeDegrees>-1.66047287173569202423095703125</LongitudeDegrees>
            </Position>
            <AltitudeMeters>44.59999847412109375</AltitudeMeters>
            <DistanceMeters>NAN</DistanceMeters>
          </Trackpoint>
          <Trackpoint>
            <Time>2022-07-08T10:31:50.000Z</Time>
            <Position>
              <LatitudeDegrees>43.40071569196879863739013671875</LatitudeDegrees>
              <LongitudeDegrees>-1.66050958447158336639404296875</LongitudeDegrees>
            </Position>
            <AltitudeMeters>44.200000762939453125</AltitudeMeters>
            <DistanceMeters>NAN</DistanceMeters>
          </Trackpoint>
          <Trackpoint>
            <Time>2022-07-08T10:31:52.000Z</Time>
            <Position>
              <LatitudeDegrees>43.4006130136549472808837890625</LatitudeDegrees>
              <LongitudeDegrees>-1.66056658141314983367919921875</LongitudeDegrees>
            </Position>
            <AltitudeMeters>44</AltitudeMeters>
            <DistanceMeters>NAN</DistanceMeters>
          </Trackpoint>
          <Trackpoint>
            <Time>2022-07-08T10:31:59.000Z</Time>
            <Position>
              <LatitudeDegrees>43.4003213234245777130126953125</LatitudeDegrees>
              <LongitudeDegrees>-1.66067051701247692108154296875</LongitudeDegrees>
            </Position>
            <AltitudeMeters>45</AltitudeMeters>
            <DistanceMeters>NAN</DistanceMeters>
          </Trackpoint>
          <Trackpoint>
            <Time>2022-07-08T10:32:05.000Z</Time>
            <Position>
              <LatitudeDegrees>43.40012493543326854705810546875</LatitudeDegrees>
              <LongitudeDegrees>-1.66071929968893527984619140625</LongitudeDegrees>
            </Position>
            <AltitudeMeters>45.59999847412109375</AltitudeMeters>
            <DistanceMeters>NAN</DistanceMeters>
          </Trackpoint>
          <Trackpoint>
            <Time>2022-07-08T10:32:06.000Z</Time>
            <Position>
              <LatitudeDegrees>43.40009517967700958251953125</LatitudeDegrees>
              <LongitudeDegrees>-1.66072282008826732635498046875</LongitudeDegrees>
            </Position>
            <AltitudeMeters>45.59999847412109375</AltitudeMeters>
            <DistanceMeters>NAN</DistanceMeters>
          </Trackpoint>
          <Trackpoint>
            <Time>2022-07-08T10:32:09.000Z</Time>
            <Position>
              <LatitudeDegrees>43.400010354816913604736328125</LatitudeDegrees>
              <LongitudeDegrees>-1.6607405059039592742919921875</LongitudeDegrees>
            </Position>
            <AltitudeMeters>45.799999237060546875</AltitudeMeters>
            <DistanceMeters>NAN</DistanceMeters>
          </Trackpoint>
          <Trackpoint>
            <Time>2022-07-08T10:32:11.000Z</Time>
            <Position>
              <LatitudeDegrees>43.39994690380990505218505859375</LatitudeDegrees>
              <LongitudeDegrees>-1.66075366549193859100341796875</LongitudeDegrees>
            </Position>
            <AltitudeMeters>46</AltitudeMeters>
            <DistanceMeters>NAN</DistanceMeters>
          </Trackpoint>
          <Trackpoint>
            <Time>2022-07-08T10:32:19.000Z</Time>
            <Position>
              <LatitudeDegrees>43.399709276854991912841796875</LatitudeDegrees>
              <LongitudeDegrees>-1.66075668297708034515380859375</LongitudeDegrees>
            </Position>
            <AltitudeMeters>46.59999847412109375</AltitudeMeters>
            <DistanceMeters>NAN</DistanceMeters>
          </Trackpoint>
          <Trackpoint>
            <Time>2022-07-08T10:32:20.000Z</Time>
            <Position>
              <LatitudeDegrees>43.39967885054647922515869140625</LatitudeDegrees>
              <LongitudeDegrees>-1.660754419863224029541015625</LongitudeDegrees>
            </Position>
            <AltitudeMeters>46.799999237060546875</AltitudeMeters>
            <DistanceMeters>NAN</DistanceMeters>
          </Trackpoint>
          <Trackpoint>
            <Time>2022-07-08T10:32:23.000Z</Time>
            <Position>
              <LatitudeDegrees>43.399592600762844085693359375</LatitudeDegrees>
              <LongitudeDegrees>-1.66076011955738067626953125</LongitudeDegrees>
            </Position>
            <AltitudeMeters>47</AltitudeMeters>
            <DistanceMeters>NAN</DistanceMeters>
          </Trackpoint>
          <Trackpoint>
            <Time>2022-07-08T10:32:27.000Z</Time>
            <Position>
              <LatitudeDegrees>43.39947299100458621978759765625</LatitudeDegrees>
              <LongitudeDegrees>-1.660748384892940521240234375</LongitudeDegrees>
            </Position>
            <AltitudeMeters>47.200000762939453125</AltitudeMeters>
            <DistanceMeters>NAN</DistanceMeters>
          </Trackpoint>
          <Trackpoint>
            <Time>2022-07-08T10:32:28.000Z</Time>
            <Position>
              <LatitudeDegrees>43.39944449253380298614501953125</LatitudeDegrees>
              <LongitudeDegrees>-1.66074176318943500518798828125</LongitudeDegrees>
            </Position>
            <AltitudeMeters>47.200000762939453125</AltitudeMeters>
            <DistanceMeters>NAN</DistanceMeters>
          </Trackpoint>
          <Trackpoint>
            <Time>2022-07-08T10:32:31.000Z</Time>
            <Position>
              <LatitudeDegrees>43.39936427772045135498046875</LatitudeDegrees>
              <LongitudeDegrees>-1.6607341356575489044189453125</LongitudeDegrees>
            </Position>
            <AltitudeMeters>47.200000762939453125</AltitudeMeters>
            <DistanceMeters>NAN</DistanceMeters>
          </Trackpoint>
          <Trackpoint>
            <Time>2022-07-08T10:32:32.000Z</Time>
            <Position>
              <LatitudeDegrees>43.39934013783931732177734375</LatitudeDegrees>
              <LongitudeDegrees>-1.6607368178665637969970703125</LongitudeDegrees>
            </Position>
            <AltitudeMeters>47.200000762939453125</AltitudeMeters>
            <DistanceMeters>NAN</DistanceMeters>
          </Trackpoint>
          <Trackpoint>
            <Time>2022-07-08T10:32:34.000Z</Time>
            <Position>
              <LatitudeDegrees>43.3992933668196201324462890625</LatitudeDegrees>
              <LongitudeDegrees>-1.66072432883083820343017578125</LongitudeDegrees>
            </Position>
            <AltitudeMeters>47.200000762939453125</AltitudeMeters>
            <DistanceMeters>NAN</DistanceMeters>
          </Trackpoint>
          <Trackpoint>
            <Time>2022-07-08T10:32:39.000Z</Time>
            <Position>
              <LatitudeDegrees>43.39921616949141025543212890625</LatitudeDegrees>
              <LongitudeDegrees>-1.66060916148126125335693359375</LongitudeDegrees>
            </Position>
            <AltitudeMeters>47.40000152587890625</AltitudeMeters>
            <DistanceMeters>NAN</DistanceMeters>
          </Trackpoint>
          <Trackpoint>
            <Time>2022-07-08T10:32:44.000Z</Time>
            <Position>
              <LatitudeDegrees>43.39913100935518741607666015625</LatitudeDegrees>
              <LongitudeDegrees>-1.66050405241549015045166015625</LongitudeDegrees>
            </Position>
            <AltitudeMeters>47.59999847412109375</AltitudeMeters>
            <DistanceMeters>NAN</DistanceMeters>
          </Trackpoint>
          <Trackpoint>
            <Time>2022-07-08T10:32:46.000Z</Time>
            <Position>
              <LatitudeDegrees>43.399115502834320068359375</LatitudeDegrees>
              <LongitudeDegrees>-1.66044839657843112945556640625</LongitudeDegrees>
            </Position>
            <AltitudeMeters>48.200000762939453125</AltitudeMeters>
            <DistanceMeters>NAN</DistanceMeters>
          </Trackpoint>
          <Trackpoint>
            <Time>2022-07-08T10:32:49.000Z</Time>
            <Position>
              <LatitudeDegrees>43.39909094385802745819091796875</LatitudeDegrees>
              <LongitudeDegrees>-1.66036583483219146728515625</LongitudeDegrees>
            </Position>
            <AltitudeMeters>48.799999237060546875</AltitudeMeters>
            <DistanceMeters>NAN</DistanceMeters>
          </Trackpoint>
          <Trackpoint>
            <Time>2022-07-08T10:32:53.000Z</Time>
            <Position>
              <LatitudeDegrees>43.39902657084167003631591796875</LatitudeDegrees>
              <LongitudeDegrees>-1.66028377600014209747314453125</LongitudeDegrees>
            </Position>
            <AltitudeMeters>49.40000152587890625</AltitudeMeters>
            <DistanceMeters>NAN</DistanceMeters>
          </Trackpoint>
          <Trackpoint>
            <Time>2022-07-08T10:32:56.000Z</Time>
            <Position>
              <LatitudeDegrees>43.39898415841162204742431640625</LatitudeDegrees>
              <LongitudeDegrees>-1.66021303273737430572509765625</LongitudeDegrees>
            </Position>
            <AltitudeMeters>49.799999237060546875</AltitudeMeters>
            <DistanceMeters>NAN</DistanceMeters>
          </Trackpoint>
          <Trackpoint>
            <Time>2022-07-08T10:32:57.000Z</Time>
            <Position>
              <LatitudeDegrees>43.3989671431481838226318359375</LatitudeDegrees>
              <LongitudeDegrees>-1.6601933352649211883544921875</LongitudeDegrees>
            </Position>
            <AltitudeMeters>49.799999237060546875</AltitudeMeters>
            <DistanceMeters>NAN</DistanceMeters>
          </Trackpoint>
          <Trackpoint>
            <Time>2022-07-08T10:33:00.000Z</Time>
            <Position>
              <LatitudeDegrees>43.398909978568553924560546875</LatitudeDegrees>
              <LongitudeDegrees>-1.6601413674652576446533203125</LongitudeDegrees>
            </Position>
            <AltitudeMeters>50.200000762939453125</AltitudeMeters>
            <DistanceMeters>NAN</DistanceMeters>
          </Trackpoint>
          <Trackpoint>
            <Time>2022-07-08T10:33:01.000Z</Time>
            <Position>
              <LatitudeDegrees>43.3988896943628787994384765625</LatitudeDegrees>
              <LongitudeDegrees>-1.66012871079146862030029296875</LongitudeDegrees>
            </Position>
            <AltitudeMeters>50.40000152587890625</AltitudeMeters>
            <DistanceMeters>NAN</DistanceMeters>
          </Trackpoint>
          <Trackpoint>
            <Time>2022-07-08T10:33:08.000Z</Time>
            <Position>
              <LatitudeDegrees>43.39875097386538982391357421875</LatitudeDegrees>
              <LongitudeDegrees>-1.6600075922906398773193359375</LongitudeDegrees>
            </Position>
            <AltitudeMeters>50.799999237060546875</AltitudeMeters>
            <DistanceMeters>NAN</DistanceMeters>
          </Trackpoint>
          <Trackpoint>
            <Time>2022-07-08T10:33:10.000Z</Time>
            <Position>
              <LatitudeDegrees>43.39871040545403957366943359375</LatitudeDegrees>
              <LongitudeDegrees>-1.65997297503054141998291015625</LongitudeDegrees>
            </Position>
            <AltitudeMeters>50.799999237060546875</AltitudeMeters>
            <DistanceMeters>NAN</DistanceMeters>
          </Trackpoint>
          <Trackpoint>
            <Time>2022-07-08T10:33:17.000Z</Time>
            <Position>
              <LatitudeDegrees>43.39852466247975826263427734375</LatitudeDegrees>
              <LongitudeDegrees>-1.65979779325425624847412109375</LongitudeDegrees>
            </Position>
            <AltitudeMeters>50.799999237060546875</AltitudeMeters>
            <DistanceMeters>NAN</DistanceMeters>
          </Trackpoint>
          <Trackpoint>
            <Time>2022-07-08T10:33:22.000Z</Time>
            <Position>
              <LatitudeDegrees>43.3983351476490497589111328125</LatitudeDegrees>
              <LongitudeDegrees>-1.65962822735309600830078125</LongitudeDegrees>
            </Position>
            <AltitudeMeters>49.799999237060546875</AltitudeMeters>
            <DistanceMeters>NAN</DistanceMeters>
          </Trackpoint>
          <Trackpoint>
            <Time>2022-07-08T10:33:24.000Z</Time>
            <Position>
              <LatitudeDegrees>43.3982526697218418121337890625</LatitudeDegrees>
              <LongitudeDegrees>-1.65955605916678905487060546875</LongitudeDegrees>
            </Position>
            <AltitudeMeters>49.200000762939453125</AltitudeMeters>
            <DistanceMeters>NAN</DistanceMeters>
          </Trackpoint>
          <Trackpoint>
            <Time>2022-07-08T10:33:26.000Z</Time>
            <Position>
              <LatitudeDegrees>43.39815200306475162506103515625</LatitudeDegrees>
              <LongitudeDegrees>-1.6594734974205493927001953125</LongitudeDegrees>
            </Position>
            <AltitudeMeters>48.59999847412109375</AltitudeMeters>
            <DistanceMeters>NAN</DistanceMeters>
          </Trackpoint>
          <Trackpoint>
            <Time>2022-07-08T10:33:29.000Z</Time>
            <Position>
              <LatitudeDegrees>43.39798972941935062408447265625</LatitudeDegrees>
              <LongitudeDegrees>-1.6593330167233943939208984375</LongitudeDegrees>
            </Position>
            <AltitudeMeters>47.40000152587890625</AltitudeMeters>
            <DistanceMeters>NAN</DistanceMeters>
          </Trackpoint>
          <Trackpoint>
            <Time>2022-07-08T10:33:34.000Z</Time>
            <Position>
              <LatitudeDegrees>43.397675491869449615478515625</LatitudeDegrees>
              <LongitudeDegrees>-1.65909756906330585479736328125</LongitudeDegrees>
            </Position>
            <AltitudeMeters>46.200000762939453125</AltitudeMeters>
            <DistanceMeters>NAN</DistanceMeters>
          </Trackpoint>
          <Trackpoint>
            <Time>2022-07-08T10:33:35.000Z</Time>
            <Position>
              <LatitudeDegrees>43.39761338196694850921630859375</LatitudeDegrees>
              <LongitudeDegrees>-1.65904828347265720367431640625</LongitudeDegrees>
            </Position>
            <AltitudeMeters>45.59999847412109375</AltitudeMeters>
            <DistanceMeters>NAN</DistanceMeters>
          </Trackpoint>
          <Trackpoint>
            <Time>2022-07-08T10:33:36.000Z</Time>
            <Position>
              <LatitudeDegrees>43.39755169115960597991943359375</LatitudeDegrees>
              <LongitudeDegrees>-1.6590017639100551605224609375</LongitudeDegrees>
            </Position>
            <AltitudeMeters>44.799999237060546875</AltitudeMeters>
            <DistanceMeters>NAN</DistanceMeters>
          </Trackpoint>
          <Trackpoint>
            <Time>2022-07-08T10:33:39.000Z</Time>
            <Position>
              <LatitudeDegrees>43.39737273752689361572265625</LatitudeDegrees>
              <LongitudeDegrees>-1.65889305062592029571533203125</LongitudeDegrees>
            </Position>
            <AltitudeMeters>43.59999847412109375</AltitudeMeters>
            <DistanceMeters>NAN</DistanceMeters>
          </Trackpoint>
          <Trackpoint>
            <Time>2022-07-08T10:33:40.000Z</Time>
            <Position>
              <LatitudeDegrees>43.39731297455728054046630859375</LatitudeDegrees>
              <LongitudeDegrees>-1.65886606089770793914794921875</LongitudeDegrees>
            </Position>
            <AltitudeMeters>43</AltitudeMeters>
            <DistanceMeters>NAN</DistanceMeters>
          </Trackpoint>
          <Trackpoint>
            <Time>2022-07-08T10:33:41.000Z</Time>
            <Position>
              <LatitudeDegrees>43.397248350083827972412109375</LatitudeDegrees>
              <LongitudeDegrees>-1.65883806534111499786376953125</LongitudeDegrees>
            </Position>
            <AltitudeMeters>42.40000152587890625</AltitudeMeters>
            <DistanceMeters>NAN</DistanceMeters>
          </Trackpoint>
          <Trackpoint>
            <Time>2022-07-08T10:33:42.000Z</Time>
            <Position>
              <LatitudeDegrees>43.39718439616262912750244140625</LatitudeDegrees>
              <LongitudeDegrees>-1.65882482193410396575927734375</LongitudeDegrees>
            </Position>
            <AltitudeMeters>41.799999237060546875</AltitudeMeters>
            <DistanceMeters>NAN</DistanceMeters>
          </Trackpoint>
          <Trackpoint>
            <Time>2022-07-08T10:33:43.000Z</Time>
            <Position>
              <LatitudeDegrees>43.3971214480698108673095703125</LatitudeDegrees>
              <LongitudeDegrees>-1.65882666595280170440673828125</LongitudeDegrees>
            </Position>
            <AltitudeMeters>41.40000152587890625</AltitudeMeters>
            <DistanceMeters>NAN</DistanceMeters>
          </Trackpoint>
          <Trackpoint>
            <Time>2022-07-08T10:33:44.000Z</Time>
            <Position>
              <LatitudeDegrees>43.397060930728912353515625</LatitudeDegrees>
              <LongitudeDegrees>-1.65884493850171566009521484375</LongitudeDegrees>
            </Position>
            <AltitudeMeters>40.799999237060546875</AltitudeMeters>
            <DistanceMeters>NAN</DistanceMeters>
          </Trackpoint>
          <Trackpoint>
            <Time>2022-07-08T10:33:45.000Z</Time>
            <Position>
              <LatitudeDegrees>43.39700669981539249420166015625</LatitudeDegrees>
              <LongitudeDegrees>-1.6588797233998775482177734375</LongitudeDegrees>
            </Position>
            <AltitudeMeters>40.200000762939453125</AltitudeMeters>
            <DistanceMeters>NAN</DistanceMeters>
          </Trackpoint>
          <Trackpoint>
            <Time>2022-07-08T10:33:46.000Z</Time>
            <Position>
              <LatitudeDegrees>43.396962694823741912841796875</LatitudeDegrees>
              <LongitudeDegrees>-1.658931188285350799560546875</LongitudeDegrees>
            </Position>
            <AltitudeMeters>39.799999237060546875</AltitudeMeters>
            <DistanceMeters>NAN</DistanceMeters>
          </Trackpoint>
          <Trackpoint>
            <Time>2022-07-08T10:33:47.000Z</Time>
            <Position>
              <LatitudeDegrees>43.3969273231923580169677734375</LatitudeDegrees>
              <LongitudeDegrees>-1.6589957289397716522216796875</LongitudeDegrees>
            </Position>
            <AltitudeMeters>39.40000152587890625</AltitudeMeters>
            <DistanceMeters>NAN</DistanceMeters>
          </Trackpoint>
          <Trackpoint>
            <Time>2022-07-08T10:33:48.000Z</Time>
            <Position>
              <LatitudeDegrees>43.396901004016399383544921875</LatitudeDegrees>
              <LongitudeDegrees>-1.659073345363140106201171875</LongitudeDegrees>
            </Position>
            <AltitudeMeters>39.200000762939453125</AltitudeMeters>
            <DistanceMeters>NAN</DistanceMeters>
          </Trackpoint>
          <Trackpoint>
            <Time>2022-07-08T10:33:50.000Z</Time>
            <Position>
              <LatitudeDegrees>43.396880216896533966064453125</LatitudeDegrees>
              <LongitudeDegrees>-1.6592507064342498779296875</LongitudeDegrees>
            </Position>
            <AltitudeMeters>38.59999847412109375</AltitudeMeters>
            <DistanceMeters>NAN</DistanceMeters>
          </Trackpoint>
          <Trackpoint>
            <Time>2022-07-08T10:33:51.000Z</Time>
            <Position>
              <LatitudeDegrees>43.3968820609152317047119140625</LatitudeDegrees>
              <LongitudeDegrees>-1.659336872398853302001953125</LongitudeDegrees>
            </Position>
            <AltitudeMeters>38.40000152587890625</AltitudeMeters>
            <DistanceMeters>NAN</DistanceMeters>
          </Trackpoint>
          <Trackpoint>
            <Time>2022-07-08T10:33:52.000Z</Time>
            <Position>
              <LatitudeDegrees>43.39689505286514759063720703125</LatitudeDegrees>
              <LongitudeDegrees>-1.659427396953105926513671875</LongitudeDegrees>
            </Position>
            <AltitudeMeters>38</AltitudeMeters>
            <DistanceMeters>NAN</DistanceMeters>
          </Trackpoint>
          <Trackpoint>
            <Time>2022-07-08T10:33:53.000Z</Time>
            <Position>
              <LatitudeDegrees>43.3969155885279178619384765625</LatitudeDegrees>
              <LongitudeDegrees>-1.6595207713544368743896484375</LongitudeDegrees>
            </Position>
            <AltitudeMeters>37.200000762939453125</AltitudeMeters>
            <DistanceMeters>NAN</DistanceMeters>
          </Trackpoint>
          <Trackpoint>
            <Time>2022-07-08T10:33:54.000Z</Time>
            <Position>
              <LatitudeDegrees>43.39693930931389331817626953125</LatitudeDegrees>
              <LongitudeDegrees>-1.65962059982120990753173828125</LongitudeDegrees>
            </Position>
            <AltitudeMeters>36.799999237060546875</AltitudeMeters>
            <DistanceMeters>NAN</DistanceMeters>
          </Trackpoint>
          <Trackpoint>
            <Time>2022-07-08T10:33:56.000Z</Time>
            <Position>
              <LatitudeDegrees>43.396980129182338714599609375</LatitudeDegrees>
              <LongitudeDegrees>-1.65980257093906402587890625</LongitudeDegrees>
            </Position>
            <AltitudeMeters>35.200000762939453125</AltitudeMeters>
            <DistanceMeters>NAN</DistanceMeters>
          </Trackpoint>
          <Trackpoint>
            <Time>2022-07-08T10:33:57.000Z</Time>
            <Position>
              <LatitudeDegrees>43.39698909781873226165771484375</LatitudeDegrees>
              <LongitudeDegrees>-1.65988437831401824951171875</LongitudeDegrees>
            </Position>
            <AltitudeMeters>34.799999237060546875</AltitudeMeters>
            <DistanceMeters>NAN</DistanceMeters>
          </Trackpoint>
          <Trackpoint>
            <Time>2022-07-08T10:33:58.000Z</Time>
            <Position>
              <LatitudeDegrees>43.39698239229619503021240234375</LatitudeDegrees>
              <LongitudeDegrees>-1.6599606536328792572021484375</LongitudeDegrees>
            </Position>
            <AltitudeMeters>34.59999847412109375</AltitudeMeters>
            <DistanceMeters>NAN</DistanceMeters>
          </Trackpoint>
          <Trackpoint>
            <Time>2022-07-08T10:33:59.000Z</Time>
            <Position>
              <LatitudeDegrees>43.39696328155696392059326171875</LatitudeDegrees>
              <LongitudeDegrees>-1.6600285470485687255859375</LongitudeDegrees>
            </Position>
            <AltitudeMeters>34.200000762939453125</AltitudeMeters>
            <DistanceMeters>NAN</DistanceMeters>
          </Trackpoint>
          <Trackpoint>
            <Time>2022-07-08T10:34:01.000Z</Time>
            <Position>
              <LatitudeDegrees>43.39688482694327831268310546875</LatitudeDegrees>
              <LongitudeDegrees>-1.6601101867854595184326171875</LongitudeDegrees>
            </Position>
            <AltitudeMeters>33.200000762939453125</AltitudeMeters>
            <DistanceMeters>NAN</DistanceMeters>
          </Trackpoint>
          <Trackpoint>
            <Time>2022-07-08T10:34:02.000Z</Time>
            <Position>
              <LatitudeDegrees>43.39683587662875652313232421875</LatitudeDegrees>
              <LongitudeDegrees>-1.66011395864188671112060546875</LongitudeDegrees>
            </Position>
            <AltitudeMeters>32.799999237060546875</AltitudeMeters>
            <DistanceMeters>NAN</DistanceMeters>
          </Trackpoint>
          <Trackpoint>
            <Time>2022-07-08T10:34:03.000Z</Time>
            <Position>
              <LatitudeDegrees>43.39678692631423473358154296875</LatitudeDegrees>
              <LongitudeDegrees>-1.66009870357811450958251953125</LongitudeDegrees>
            </Position>
            <AltitudeMeters>32.59999847412109375</AltitudeMeters>
            <DistanceMeters>NAN</DistanceMeters>
          </Trackpoint>
          <Trackpoint>
            <Time>2022-07-08T10:34:04.000Z</Time>
            <Position>
              <LatitudeDegrees>43.396744094789028167724609375</LatitudeDegrees>
              <LongitudeDegrees>-1.660062409937381744384765625</LongitudeDegrees>
            </Position>
            <AltitudeMeters>32</AltitudeMeters>
            <DistanceMeters>NAN</DistanceMeters>
          </Trackpoint>
          <Trackpoint>
            <Time>2022-07-08T10:34:05.000Z</Time>
            <Position>
              <LatitudeDegrees>43.39670293964445590972900390625</LatitudeDegrees>
              <LongitudeDegrees>-1.66001421399414539337158203125</LongitudeDegrees>
            </Position>
            <AltitudeMeters>31.799999237060546875</AltitudeMeters>
            <DistanceMeters>NAN</DistanceMeters>
          </Trackpoint>
          <Trackpoint>
            <Time>2022-07-08T10:34:06.000Z</Time>
            <Position>
              <LatitudeDegrees>43.3966634608805179595947265625</LatitudeDegrees>
              <LongitudeDegrees>-1.6599569655954837799072265625</LongitudeDegrees>
            </Position>
            <AltitudeMeters>31.6000003814697265625</AltitudeMeters>
            <DistanceMeters>NAN</DistanceMeters>
          </Trackpoint>
          <Trackpoint>
            <Time>2022-07-08T10:34:08.000Z</Time>
            <Position>
              <LatitudeDegrees>43.396589867770671844482421875</LatitudeDegrees>
              <LongitudeDegrees>-1.65982629172503948211669921875</LongitudeDegrees>
            </Position>
            <AltitudeMeters>31.200000762939453125</AltitudeMeters>
            <DistanceMeters>NAN</DistanceMeters>
          </Trackpoint>
          <Trackpoint>
            <Time>2022-07-08T10:34:09.000Z</Time>
            <Position>
              <LatitudeDegrees>43.39655726216733455657958984375</LatitudeDegrees>
              <LongitudeDegrees>-1.65975471027195453643798828125</LongitudeDegrees>
            </Position>
            <AltitudeMeters>30.799999237060546875</AltitudeMeters>
            <DistanceMeters>NAN</DistanceMeters>
          </Trackpoint>
          <Trackpoint>
            <Time>2022-07-08T10:34:10.000Z</Time>
            <Position>
              <LatitudeDegrees>43.39652784168720245361328125</LatitudeDegrees>
              <LongitudeDegrees>-1.6596817038953304290771484375</LongitudeDegrees>
            </Position>
            <AltitudeMeters>30.200000762939453125</AltitudeMeters>
            <DistanceMeters>NAN</DistanceMeters>
          </Trackpoint>
          <Trackpoint>
            <Time>2022-07-08T10:34:13.000Z</Time>
            <Position>
              <LatitudeDegrees>43.39643555693328380584716796875</LatitudeDegrees>
              <LongitudeDegrees>-1.65947961620986461639404296875</LongitudeDegrees>
            </Position>
            <AltitudeMeters>29.200000762939453125</AltitudeMeters>
            <DistanceMeters>NAN</DistanceMeters>
          </Trackpoint>
          <Trackpoint>
            <Time>2022-07-08T10:34:14.000Z</Time>
            <Position>
              <LatitudeDegrees>43.39639800600707530975341796875</LatitudeDegrees>
              <LongitudeDegrees>-1.6594295762479305267333984375</LongitudeDegrees>
            </Position>
            <AltitudeMeters>28.799999237060546875</AltitudeMeters>
            <DistanceMeters>NAN</DistanceMeters>
          </Trackpoint>
          <Trackpoint>
            <Time>2022-07-08T10:34:15.000Z</Time>
            <Position>
              <LatitudeDegrees>43.3963402546942234039306640625</LatitudeDegrees>
              <LongitudeDegrees>-1.65939328260719776153564453125</LongitudeDegrees>
            </Position>
            <AltitudeMeters>28.6000003814697265625</AltitudeMeters>
            <DistanceMeters>NAN</DistanceMeters>
          </Trackpoint>
          <Trackpoint>
            <Time>2022-07-08T10:34:16.000Z</Time>
            <Position>
              <LatitudeDegrees>43.39627160690724849700927734375</LatitudeDegrees>
              <LongitudeDegrees>-1.6593802906572818756103515625</LongitudeDegrees>
            </Position>
            <AltitudeMeters>28</AltitudeMeters>
            <DistanceMeters>NAN</DistanceMeters>
          </Trackpoint>
          <Trackpoint>
            <Time>2022-07-08T10:34:17.000Z</Time>
            <Position>
              <LatitudeDegrees>43.396200276911258697509765625</LatitudeDegrees>
              <LongitudeDegrees>-1.6593687236309051513671875</LongitudeDegrees>
            </Position>
            <AltitudeMeters>27.6000003814697265625</AltitudeMeters>
            <DistanceMeters>NAN</DistanceMeters>
          </Trackpoint>
          <Trackpoint>
            <Time>2022-07-08T10:34:19.000Z</Time>
            <Position>
              <LatitudeDegrees>43.3960358239710330963134765625</LatitudeDegrees>
              <LongitudeDegrees>-1.65933988988399505615234375</LongitudeDegrees>
            </Position>
            <AltitudeMeters>26.3999996185302734375</AltitudeMeters>
            <DistanceMeters>NAN</DistanceMeters>
          </Trackpoint>
          <Trackpoint>
            <Time>2022-07-08T10:34:20.000Z</Time>
            <Position>
              <LatitudeDegrees>43.39594588615000247955322265625</LatitudeDegrees>
              <LongitudeDegrees>-1.659322120249271392822265625</LongitudeDegrees>
            </Position>
            <AltitudeMeters>25.3999996185302734375</AltitudeMeters>
            <DistanceMeters>NAN</DistanceMeters>
          </Trackpoint>
          <Trackpoint>
            <Time>2022-07-08T10:34:21.000Z</Time>
            <Position>
              <LatitudeDegrees>43.39584781788289546966552734375</LatitudeDegrees>
              <LongitudeDegrees>-1.65930493734776973724365234375</LongitudeDegrees>
            </Position>
            <AltitudeMeters>24.799999237060546875</AltitudeMeters>
            <DistanceMeters>NAN</DistanceMeters>
          </Trackpoint>
          <Trackpoint>
            <Time>2022-07-08T10:34:23.000Z</Time>
            <Position>
              <LatitudeDegrees>43.39568504132330417633056640625</LatitudeDegrees>
              <LongitudeDegrees>-1.6592740081250667572021484375</LongitudeDegrees>
            </Position>
            <AltitudeMeters>23.3999996185302734375</AltitudeMeters>
            <DistanceMeters>NAN</DistanceMeters>
          </Trackpoint>
          <Trackpoint>
            <Time>2022-07-08T10:34:25.000Z</Time>
            <Position>
              <LatitudeDegrees>43.3955669403076171875</LatitudeDegrees>
              <LongitudeDegrees>-1.65924735367298126220703125</LongitudeDegrees>
            </Position>
            <AltitudeMeters>22.200000762939453125</AltitudeMeters>
            <DistanceMeters>NAN</DistanceMeters>
          </Trackpoint>
          <Trackpoint>
            <Time>2022-07-08T10:34:30.000Z</Time>
            <Position>
              <LatitudeDegrees>43.39531037025153636932373046875</LatitudeDegrees>
              <LongitudeDegrees>-1.65919245220720767974853515625</LongitudeDegrees>
            </Position>
            <AltitudeMeters>21</AltitudeMeters>
            <DistanceMeters>NAN</DistanceMeters>
          </Trackpoint>
          <Trackpoint>
            <Time>2022-07-08T10:34:31.000Z</Time>
            <Position>
              <LatitudeDegrees>43.3952593244612216949462890625</LatitudeDegrees>
              <LongitudeDegrees>-1.659183315932750701904296875</LongitudeDegrees>
            </Position>
            <AltitudeMeters>20.799999237060546875</AltitudeMeters>
            <DistanceMeters>NAN</DistanceMeters>
          </Trackpoint>
          <Trackpoint>
            <Time>2022-07-08T10:34:32.000Z</Time>
            <Position>
              <LatitudeDegrees>43.39521531946957111358642578125</LatitudeDegrees>
              <LongitudeDegrees>-1.65918407030403614044189453125</LongitudeDegrees>
            </Position>
            <AltitudeMeters>20.799999237060546875</AltitudeMeters>
            <DistanceMeters>NAN</DistanceMeters>
          </Trackpoint>
          <Trackpoint>
            <Time>2022-07-08T10:34:34.000Z</Time>
            <Position>
              <LatitudeDegrees>43.3951520361006259918212890625</LatitudeDegrees>
              <LongitudeDegrees>-1.65921776555478572845458984375</LongitudeDegrees>
            </Position>
            <AltitudeMeters>20.6000003814697265625</AltitudeMeters>
            <DistanceMeters>NAN</DistanceMeters>
          </Trackpoint>
          <Trackpoint>
            <Time>2022-07-08T10:34:38.000Z</Time>
            <Position>
              <LatitudeDegrees>43.39511959813535213470458984375</LatitudeDegrees>
              <LongitudeDegrees>-1.65938339196145534515380859375</LongitudeDegrees>
            </Position>
            <AltitudeMeters>20.799999237060546875</AltitudeMeters>
            <DistanceMeters>NAN</DistanceMeters>
          </Trackpoint>
          <Trackpoint>
            <Time>2022-07-08T10:34:46.000Z</Time>
            <Position>
              <LatitudeDegrees>43.39508640579879283905029296875</LatitudeDegrees>
              <LongitudeDegrees>-1.6597608290612697601318359375</LongitudeDegrees>
            </Position>
            <AltitudeMeters>20.6000003814697265625</AltitudeMeters>
            <DistanceMeters>NAN</DistanceMeters>
          </Trackpoint>
          <Trackpoint>
            <Time>2022-07-08T10:34:50.000Z</Time>
            <Position>
              <LatitudeDegrees>43.3950635232031345367431640625</LatitudeDegrees>
              <LongitudeDegrees>-1.65994112379848957061767578125</LongitudeDegrees>
            </Position>
            <AltitudeMeters>19.6000003814697265625</AltitudeMeters>
            <DistanceMeters>NAN</DistanceMeters>
          </Trackpoint>
          <Trackpoint>
            <Time>2022-07-08T10:34:54.000Z</Time>
            <Position>
              <LatitudeDegrees>43.395059667527675628662109375</LatitudeDegrees>
              <LongitudeDegrees>-1.6600904054939746856689453125</LongitudeDegrees>
            </Position>
            <AltitudeMeters>19</AltitudeMeters>
            <DistanceMeters>NAN</DistanceMeters>
          </Trackpoint>
          <Trackpoint>
            <Time>2022-07-08T10:34:58.000Z</Time>
            <Position>
              <LatitudeDegrees>43.3950299955904483795166015625</LatitudeDegrees>
              <LongitudeDegrees>-1.66014094837009906768798828125</LongitudeDegrees>
            </Position>
            <AltitudeMeters>18.799999237060546875</AltitudeMeters>
            <DistanceMeters>NAN</DistanceMeters>
          </Trackpoint>
          <Trackpoint>
            <Time>2022-07-08T10:35:01.000Z</Time>
            <Position>
              <LatitudeDegrees>43.39503997005522251129150390625</LatitudeDegrees>
              <LongitudeDegrees>-1.6601572930812835693359375</LongitudeDegrees>
            </Position>
            <AltitudeMeters>19.200000762939453125</AltitudeMeters>
            <DistanceMeters>NAN</DistanceMeters>
          </Trackpoint>
          <Trackpoint>
            <Time>2022-07-08T10:35:03.000Z</Time>
            <Position>
              <LatitudeDegrees>43.3950747549533843994140625</LatitudeDegrees>
              <LongitudeDegrees>-1.66017137467861175537109375</LongitudeDegrees>
            </Position>
            <AltitudeMeters>19.200000762939453125</AltitudeMeters>
            <DistanceMeters>NAN</DistanceMeters>
          </Trackpoint>
          <Trackpoint>
            <Time>2022-07-08T10:35:08.000Z</Time>
            <Position>
              <LatitudeDegrees>43.39518950320780277252197265625</LatitudeDegrees>
              <LongitudeDegrees>-1.6601708717644214630126953125</LongitudeDegrees>
            </Position>
            <AltitudeMeters>19.6000003814697265625</AltitudeMeters>
            <DistanceMeters>NAN</DistanceMeters>
          </Trackpoint>
          <Trackpoint>
            <Time>2022-07-08T10:35:10.000Z</Time>
            <Position>
              <LatitudeDegrees>43.39522085152566432952880859375</LatitudeDegrees>
              <LongitudeDegrees>-1.6601762361824512481689453125</LongitudeDegrees>
            </Position>
            <AltitudeMeters>19.6000003814697265625</AltitudeMeters>
            <DistanceMeters>NAN</DistanceMeters>
          </Trackpoint>
          <Trackpoint>
            <Time>2022-07-08T10:35:14.000Z</Time>
            <Position>
              <LatitudeDegrees>43.3952224440872669219970703125</LatitudeDegrees>
              <LongitudeDegrees>-1.6601916588842868804931640625</LongitudeDegrees>
            </Position>
            <AltitudeMeters>19.6000003814697265625</AltitudeMeters>
            <DistanceMeters>NAN</DistanceMeters>
          </Trackpoint>
          <Trackpoint>
            <Time>2022-07-08T10:35:16.000Z</Time>
            <Position>
              <LatitudeDegrees>43.3952224440872669219970703125</LatitudeDegrees>
              <LongitudeDegrees>-1.6601916588842868804931640625</LongitudeDegrees>
            </Position>
            <AltitudeMeters>19.6000003814697265625</AltitudeMeters>
            <DistanceMeters>NAN</DistanceMeters>
          </Trackpoint>
          <Trackpoint>
            <Time>2022-07-08T10:35:17.000Z</Time>
            <Position>
              <LatitudeDegrees>43.3952224440872669219970703125</LatitudeDegrees>
              <LongitudeDegrees>-1.6601916588842868804931640625</LongitudeDegrees>
            </Position>
            <AltitudeMeters>19.6000003814697265625</AltitudeMeters>
            <DistanceMeters>NAN</DistanceMeters>
          </Trackpoint>
          <Trackpoint>
            <Time>2022-07-08T10:35:22.000Z</Time>
            <Position>
              <LatitudeDegrees>43.39517961256206035614013671875</LatitudeDegrees>
              <LongitudeDegrees>-1.660201884806156158447265625</LongitudeDegrees>
            </Position>
            <AltitudeMeters>19.6000003814697265625</AltitudeMeters>
            <DistanceMeters>NAN</DistanceMeters>
          </Trackpoint>
          <Trackpoint>
            <Time>2022-07-08T10:35:24.000Z</Time>
            <Position>
              <LatitudeDegrees>43.39514055289328098297119140625</LatitudeDegrees>
              <LongitudeDegrees>-1.66021303273737430572509765625</LongitudeDegrees>
            </Position>
            <AltitudeMeters>20</AltitudeMeters>
            <DistanceMeters>NAN</DistanceMeters>
          </Trackpoint>
          <Trackpoint>
            <Time>2022-07-08T10:35:31.000Z</Time>
            <Position>
              <LatitudeDegrees>43.39496687985956668853759765625</LatitudeDegrees>
              <LongitudeDegrees>-1.66019643656909465789794921875</LongitudeDegrees>
            </Position>
            <AltitudeMeters>20.3999996185302734375</AltitudeMeters>
            <DistanceMeters>NAN</DistanceMeters>
          </Trackpoint>
          <Trackpoint>
            <Time>2022-07-08T10:35:32.000Z</Time>
            <Position>
              <LatitudeDegrees>43.39493997395038604736328125</LatitudeDegrees>
              <LongitudeDegrees>-1.66018973104655742645263671875</LongitudeDegrees>
            </Position>
            <AltitudeMeters>20.799999237060546875</AltitudeMeters>
            <DistanceMeters>NAN</DistanceMeters>
          </Trackpoint>
          <Trackpoint>
            <Time>2022-07-08T10:35:38.000Z</Time>
            <Position>
              <LatitudeDegrees>43.394778035581111907958984375</LatitudeDegrees>
              <LongitudeDegrees>-1.66015922091901302337646484375</LongitudeDegrees>
            </Position>
            <AltitudeMeters>19.799999237060546875</AltitudeMeters>
            <DistanceMeters>NAN</DistanceMeters>
          </Trackpoint>
          <Trackpoint>
            <Time>2022-07-08T10:35:40.000Z</Time>
            <Position>
              <LatitudeDegrees>43.3947235532104969024658203125</LatitudeDegrees>
              <LongitudeDegrees>-1.66014715097844600677490234375</LongitudeDegrees>
            </Position>
            <AltitudeMeters>19.3999996185302734375</AltitudeMeters>
            <DistanceMeters>NAN</DistanceMeters>
          </Trackpoint>
          <Trackpoint>
            <Time>2022-07-08T10:35:48.000Z</Time>
            <Position>
              <LatitudeDegrees>43.3944851718842983245849609375</LatitudeDegrees>
              <LongitudeDegrees>-1.66012234054505825042724609375</LongitudeDegrees>
            </Position>
            <AltitudeMeters>19.200000762939453125</AltitudeMeters>
            <DistanceMeters>NAN</DistanceMeters>
          </Trackpoint>
          <Trackpoint>
            <Time>2022-07-08T10:35:57.000Z</Time>
            <Position>
              <LatitudeDegrees>43.3942236565053462982177734375</LatitudeDegrees>
              <LongitudeDegrees>-1.66008344851434230804443359375</LongitudeDegrees>
            </Position>
            <AltitudeMeters>19.200000762939453125</AltitudeMeters>
            <DistanceMeters>NAN</DistanceMeters>
          </Trackpoint>
          <Trackpoint>
            <Time>2022-07-08T10:36:04.000Z</Time>
            <Position>
              <LatitudeDegrees>43.394072614610195159912109375</LatitudeDegrees>
              <LongitudeDegrees>-1.6600696183741092681884765625</LongitudeDegrees>
            </Position>
            <AltitudeMeters>19</AltitudeMeters>
            <DistanceMeters>NAN</DistanceMeters>
          </Trackpoint>
          <Trackpoint>
            <Time>2022-07-08T10:36:06.000Z</Time>
            <Position>
              <LatitudeDegrees>43.394072614610195159912109375</LatitudeDegrees>
              <LongitudeDegrees>-1.6600696183741092681884765625</LongitudeDegrees>
            </Position>
            <AltitudeMeters>18.799999237060546875</AltitudeMeters>
            <DistanceMeters>NAN</DistanceMeters>
          </Trackpoint>
          <Trackpoint>
            <Time>2022-07-08T10:36:26.000Z</Time>
            <Position>
              <LatitudeDegrees>43.39402860961854457855224609375</LatitudeDegrees>
              <LongitudeDegrees>-1.66006601415574550628662109375</LongitudeDegrees>
            </Position>
            <AltitudeMeters>18.799999237060546875</AltitudeMeters>
            <DistanceMeters>NAN</DistanceMeters>
          </Trackpoint>
          <Trackpoint>
            <Time>2022-07-08T10:36:29.000Z</Time>
            <Position>
              <LatitudeDegrees>43.393944539129734039306640625</LatitudeDegrees>
              <LongitudeDegrees>-1.660061068832874298095703125</LongitudeDegrees>
            </Position>
            <AltitudeMeters>18.799999237060546875</AltitudeMeters>
            <DistanceMeters>NAN</DistanceMeters>
          </Trackpoint>
          <Trackpoint>
            <Time>2022-07-08T10:36:34.000Z</Time>
            <Position>
              <LatitudeDegrees>43.39380548335611820220947265625</LatitudeDegrees>
              <LongitudeDegrees>-1.66004128754138946533203125</LongitudeDegrees>
            </Position>
            <AltitudeMeters>18.799999237060546875</AltitudeMeters>
            <DistanceMeters>NAN</DistanceMeters>
          </Trackpoint>
          <Trackpoint>
            <Time>2022-07-08T10:36:43.000Z</Time>
            <Position>
              <LatitudeDegrees>43.39360347948968410491943359375</LatitudeDegrees>
              <LongitudeDegrees>-1.66001672856509685516357421875</LongitudeDegrees>
            </Position>
            <AltitudeMeters>18.799999237060546875</AltitudeMeters>
            <DistanceMeters>NAN</DistanceMeters>
          </Trackpoint>
          <Trackpoint>
            <Time>2022-07-08T10:36:49.000Z</Time>
            <Position>
              <LatitudeDegrees>43.39343634434044361114501953125</LatitudeDegrees>
              <LongitudeDegrees>-1.6599948517978191375732421875</LongitudeDegrees>
            </Position>
            <AltitudeMeters>19</AltitudeMeters>
            <DistanceMeters>NAN</DistanceMeters>
          </Trackpoint>
          <Trackpoint>
            <Time>2022-07-08T10:36:52.000Z</Time>
            <Position>
              <LatitudeDegrees>43.39336409233510494232177734375</LatitudeDegrees>
              <LongitudeDegrees>-1.6599988751113414764404296875</LongitudeDegrees>
            </Position>
            <AltitudeMeters>19</AltitudeMeters>
            <DistanceMeters>NAN</DistanceMeters>
          </Trackpoint>
          <Trackpoint>
            <Time>2022-07-08T10:36:57.000Z</Time>
            <Position>
              <LatitudeDegrees>43.39324573986232280731201171875</LatitudeDegrees>
              <LongitudeDegrees>-1.66003583930432796478271484375</LongitudeDegrees>
            </Position>
            <AltitudeMeters>19</AltitudeMeters>
            <DistanceMeters>NAN</DistanceMeters>
          </Trackpoint>
          <Trackpoint>
            <Time>2022-07-08T10:37:01.000Z</Time>
            <Position>
              <LatitudeDegrees>43.39314565993845462799072265625</LatitudeDegrees>
              <LongitudeDegrees>-1.66006886400282382965087890625</LongitudeDegrees>
            </Position>
            <AltitudeMeters>19</AltitudeMeters>
            <DistanceMeters>NAN</DistanceMeters>
          </Trackpoint>
          <Trackpoint>
            <Time>2022-07-08T10:37:02.000Z</Time>
            <Position>
              <LatitudeDegrees>43.39312235824763774871826171875</LatitudeDegrees>
              <LongitudeDegrees>-1.66007171384990215301513671875</LongitudeDegrees>
            </Position>
            <AltitudeMeters>19</AltitudeMeters>
            <DistanceMeters>NAN</DistanceMeters>
          </Trackpoint>
          <Trackpoint>
            <Time>2022-07-08T10:37:07.000Z</Time>
            <Position>
              <LatitudeDegrees>43.39302621781826019287109375</LatitudeDegrees>
              <LongitudeDegrees>-1.6600981168448925018310546875</LongitudeDegrees>
            </Position>
            <AltitudeMeters>19.200000762939453125</AltitudeMeters>
            <DistanceMeters>NAN</DistanceMeters>
          </Trackpoint>
          <Trackpoint>
            <Time>2022-07-08T10:37:11.000Z</Time>
            <Position>
              <LatitudeDegrees>43.39291817508637905120849609375</LatitudeDegrees>
              <LongitudeDegrees>-1.660115383565425872802734375</LongitudeDegrees>
            </Position>
            <AltitudeMeters>19.200000762939453125</AltitudeMeters>
            <DistanceMeters>NAN</DistanceMeters>
          </Trackpoint>
          <Trackpoint>
            <Time>2022-07-08T10:37:16.000Z</Time>
            <Position>
              <LatitudeDegrees>43.39280669577419757843017578125</LatitudeDegrees>
              <LongitudeDegrees>-1.66015067137777805328369140625</LongitudeDegrees>
            </Position>
            <AltitudeMeters>19.200000762939453125</AltitudeMeters>
            <DistanceMeters>NAN</DistanceMeters>
          </Trackpoint>
          <Trackpoint>
            <Time>2022-07-08T10:37:17.000Z</Time>
            <Position>
              <LatitudeDegrees>43.39278808794915676116943359375</LatitudeDegrees>
              <LongitudeDegrees>-1.66015570051968097686767578125</LongitudeDegrees>
            </Position>
            <AltitudeMeters>19.200000762939453125</AltitudeMeters>
            <DistanceMeters>NAN</DistanceMeters>
          </Trackpoint>
          <Trackpoint>
            <Time>2022-07-08T10:37:20.000Z</Time>
            <Position>
              <LatitudeDegrees>43.3927397243678569793701171875</LatitudeDegrees>
              <LongitudeDegrees>-1.66017112322151660919189453125</LongitudeDegrees>
            </Position>
            <AltitudeMeters>19</AltitudeMeters>
            <DistanceMeters>NAN</DistanceMeters>
          </Trackpoint>
          <Trackpoint>
            <Time>2022-07-08T10:37:22.000Z</Time>
            <Position>
              <LatitudeDegrees>43.39273444376885890960693359375</LatitudeDegrees>
              <LongitudeDegrees>-1.660173721611499786376953125</LongitudeDegrees>
            </Position>
            <AltitudeMeters>18.799999237060546875</AltitudeMeters>
            <DistanceMeters>NAN</DistanceMeters>
          </Trackpoint>
          <Trackpoint>
            <Time>2022-07-08T10:37:23.000Z</Time>
            <Position>
              <LatitudeDegrees>43.39273444376885890960693359375</LatitudeDegrees>
              <LongitudeDegrees>-1.660173721611499786376953125</LongitudeDegrees>
            </Position>
            <AltitudeMeters>18.799999237060546875</AltitudeMeters>
            <DistanceMeters>NAN</DistanceMeters>
          </Trackpoint>
          <Trackpoint>
            <Time>2022-07-08T10:38:01.000Z</Time>
            <Position>
              <LatitudeDegrees>43.39268817566335201263427734375</LatitudeDegrees>
              <LongitudeDegrees>-1.6601787507534027099609375</LongitudeDegrees>
            </Position>
            <AltitudeMeters>18.799999237060546875</AltitudeMeters>
            <DistanceMeters>NAN</DistanceMeters>
          </Trackpoint>
          <Trackpoint>
            <Time>2022-07-08T10:38:04.000Z</Time>
            <Position>
              <LatitudeDegrees>43.39262329973280429840087890625</LatitudeDegrees>
              <LongitudeDegrees>-1.6601963527500629425048828125</LongitudeDegrees>
            </Position>
            <AltitudeMeters>18.6000003814697265625</AltitudeMeters>
            <DistanceMeters>NAN</DistanceMeters>
          </Trackpoint>
          <Trackpoint>
            <Time>2022-07-08T10:38:07.000Z</Time>
            <Position>
              <LatitudeDegrees>43.39258558116853237152099609375</LatitudeDegrees>
              <LongitudeDegrees>-1.660193838179111480712890625</LongitudeDegrees>
            </Position>
            <AltitudeMeters>18.200000762939453125</AltitudeMeters>
            <DistanceMeters>NAN</DistanceMeters>
          </Trackpoint>
          <Trackpoint>
            <Time>2022-07-08T10:38:09.000Z</Time>
            <Position>
              <LatitudeDegrees>43.39251768775284290313720703125</LatitudeDegrees>
              <LongitudeDegrees>-1.66020247153937816619873046875</LongitudeDegrees>
            </Position>
            <AltitudeMeters>18.200000762939453125</AltitudeMeters>
            <DistanceMeters>NAN</DistanceMeters>
          </Trackpoint>
          <Trackpoint>
            <Time>2022-07-08T10:38:12.000Z</Time>
            <Position>
              <LatitudeDegrees>43.392457924783229827880859375</LatitudeDegrees>
              <LongitudeDegrees>-1.660221330821514129638671875</LongitudeDegrees>
            </Position>
            <AltitudeMeters>18.3999996185302734375</AltitudeMeters>
            <DistanceMeters>NAN</DistanceMeters>
          </Trackpoint>
          <Trackpoint>
            <Time>2022-07-08T10:38:14.000Z</Time>
            <Position>
              <LatitudeDegrees>43.39242129586637020111083984375</LatitudeDegrees>
              <LongitudeDegrees>-1.6602251864969730377197265625</LongitudeDegrees>
            </Position>
            <AltitudeMeters>18.3999996185302734375</AltitudeMeters>
            <DistanceMeters>NAN</DistanceMeters>
          </Trackpoint>
          <Trackpoint>
            <Time>2022-07-08T10:38:20.000Z</Time>
            <Position>
              <LatitudeDegrees>43.39234770275652408599853515625</LatitudeDegrees>
              <LongitudeDegrees>-1.66026734746992588043212890625</LongitudeDegrees>
            </Position>
            <AltitudeMeters>18.6000003814697265625</AltitudeMeters>
            <DistanceMeters>NAN</DistanceMeters>
          </Trackpoint>
          <Trackpoint>
            <Time>2022-07-08T10:38:30.000Z</Time>
            <Position>
              <LatitudeDegrees>43.39221954345703125</LatitudeDegrees>
              <LongitudeDegrees>-1.66038192808628082275390625</LongitudeDegrees>
            </Position>
            <AltitudeMeters>18.6000003814697265625</AltitudeMeters>
            <DistanceMeters>NAN</DistanceMeters>
          </Trackpoint>
          <Trackpoint>
            <Time>2022-07-08T10:38:31.000Z</Time>
            <Position>
              <LatitudeDegrees>43.392201773822307586669921875</LatitudeDegrees>
              <LongitudeDegrees>-1.66039961390197277069091796875</LongitudeDegrees>
            </Position>
            <AltitudeMeters>18.6000003814697265625</AltitudeMeters>
            <DistanceMeters>NAN</DistanceMeters>
          </Trackpoint>
          <Trackpoint>
            <Time>2022-07-08T10:38:36.000Z</Time>
            <Position>
              <LatitudeDegrees>43.3920970000326633453369140625</LatitudeDegrees>
              <LongitudeDegrees>-1.66048326529562473297119140625</LongitudeDegrees>
            </Position>
            <AltitudeMeters>18</AltitudeMeters>
            <DistanceMeters>NAN</DistanceMeters>
          </Trackpoint>
          <Trackpoint>
            <Time>2022-07-08T10:38:41.000Z</Time>
            <Position>
              <LatitudeDegrees>43.392055928707122802734375</LatitudeDegrees>
              <LongitudeDegrees>-1.66051394306123256683349609375</LongitudeDegrees>
            </Position>
            <AltitudeMeters>17.799999237060546875</AltitudeMeters>
            <DistanceMeters>NAN</DistanceMeters>
          </Trackpoint>
          <Trackpoint>
            <Time>2022-07-08T10:38:43.000Z</Time>
            <Position>
              <LatitudeDegrees>43.3920457027852535247802734375</LatitudeDegrees>
              <LongitudeDegrees>-1.66053322143852710723876953125</LongitudeDegrees>
            </Position>
            <AltitudeMeters>18</AltitudeMeters>
            <DistanceMeters>NAN</DistanceMeters>
          </Trackpoint>
          <Trackpoint>
            <Time>2022-07-08T10:38:45.000Z</Time>
            <Position>
              <LatitudeDegrees>43.39205668307840824127197265625</LatitudeDegrees>
              <LongitudeDegrees>-1.660542525351047515869140625</LongitudeDegrees>
            </Position>
            <AltitudeMeters>18</AltitudeMeters>
            <DistanceMeters>NAN</DistanceMeters>
          </Trackpoint>
          <Trackpoint>
            <Time>2022-07-08T10:38:47.000Z</Time>
            <Position>
              <LatitudeDegrees>43.3920812420547008514404296875</LatitudeDegrees>
              <LongitudeDegrees>-1.66052584536373615264892578125</LongitudeDegrees>
            </Position>
            <AltitudeMeters>18</AltitudeMeters>
            <DistanceMeters>NAN</DistanceMeters>
          </Trackpoint>
          <Trackpoint>
            <Time>2022-07-08T10:38:50.000Z</Time>
            <Position>
              <LatitudeDegrees>43.3921221457421779632568359375</LatitudeDegrees>
              <LongitudeDegrees>-1.66048158891499042510986328125</LongitudeDegrees>
            </Position>
            <AltitudeMeters>18</AltitudeMeters>
            <DistanceMeters>NAN</DistanceMeters>
          </Trackpoint>
          <Trackpoint>
            <Time>2022-07-08T10:38:57.000Z</Time>
            <Position>
              <LatitudeDegrees>43.392233960330486297607421875</LatitudeDegrees>
              <LongitudeDegrees>-1.66037178598344326019287109375</LongitudeDegrees>
            </Position>
            <AltitudeMeters>18</AltitudeMeters>
            <DistanceMeters>NAN</DistanceMeters>
          </Trackpoint>
          <Trackpoint>
            <Time>2022-07-08T10:39:06.000Z</Time>
            <Position>
              <LatitudeDegrees>43.3923605270683765411376953125</LatitudeDegrees>
              <LongitudeDegrees>-1.66026432998478412628173828125</LongitudeDegrees>
            </Position>
            <AltitudeMeters>18</AltitudeMeters>
            <DistanceMeters>NAN</DistanceMeters>
          </Trackpoint>
          <Trackpoint>
            <Time>2022-07-08T10:39:07.000Z</Time>
            <Position>
              <LatitudeDegrees>43.39237083680927753448486328125</LatitudeDegrees>
              <LongitudeDegrees>-1.6602577082812786102294921875</LongitudeDegrees>
            </Position>
            <AltitudeMeters>18</AltitudeMeters>
            <DistanceMeters>NAN</DistanceMeters>
          </Trackpoint>
          <Trackpoint>
            <Time>2022-07-08T10:39:10.000Z</Time>
            <Position>
              <LatitudeDegrees>43.3923746086657047271728515625</LatitudeDegrees>
              <LongitudeDegrees>-1.660254187881946563720703125</LongitudeDegrees>
            </Position>
            <AltitudeMeters>18</AltitudeMeters>
            <DistanceMeters>NAN</DistanceMeters>
          </Trackpoint>
          <Trackpoint>
            <Time>2022-07-08T10:42:08.000Z</Time>
            <Position>
              <LatitudeDegrees>43.39234837330877780914306640625</LatitudeDegrees>
              <LongitudeDegrees>-1.66016810573637485504150390625</LongitudeDegrees>
            </Position>
            <AltitudeMeters>17.200000762939453125</AltitudeMeters>
            <DistanceMeters>NAN</DistanceMeters>
          </Trackpoint>
          <Trackpoint>
            <Time>2022-07-08T10:42:09.000Z</Time>
            <Position>
              <LatitudeDegrees>43.392340578138828277587890625</LatitudeDegrees>
              <LongitudeDegrees>-1.660136170685291290283203125</LongitudeDegrees>
            </Position>
            <AltitudeMeters>17.200000762939453125</AltitudeMeters>
            <DistanceMeters>NAN</DistanceMeters>
          </Trackpoint>
          <Trackpoint>
            <Time>2022-07-08T10:42:14.000Z</Time>
            <Position>
              <LatitudeDegrees>43.39234468527138233184814453125</LatitudeDegrees>
              <LongitudeDegrees>-1.6599157266318798065185546875</LongitudeDegrees>
            </Position>
            <AltitudeMeters>16.6000003814697265625</AltitudeMeters>
            <DistanceMeters>NAN</DistanceMeters>
          </Trackpoint>
          <Trackpoint>
            <Time>2022-07-08T10:42:18.000Z</Time>
            <Position>
              <LatitudeDegrees>43.39235189370810985565185546875</LatitudeDegrees>
              <LongitudeDegrees>-1.659710370004177093505859375</LongitudeDegrees>
            </Position>
            <AltitudeMeters>16.200000762939453125</AltitudeMeters>
            <DistanceMeters>NAN</DistanceMeters>
          </Trackpoint>
          <Trackpoint>
            <Time>2022-07-08T10:42:23.000Z</Time>
            <Position>
              <LatitudeDegrees>43.39232859201729297637939453125</LatitudeDegrees>
              <LongitudeDegrees>-1.65959025733172893524169921875</LongitudeDegrees>
            </Position>
            <AltitudeMeters>15.80000019073486328125</AltitudeMeters>
            <DistanceMeters>NAN</DistanceMeters>
          </Trackpoint>
          <Trackpoint>
            <Time>2022-07-08T10:42:26.000Z</Time>
            <Position>
              <LatitudeDegrees>43.3922904543578624725341796875</LatitudeDegrees>
              <LongitudeDegrees>-1.65957064367830753326416015625</LongitudeDegrees>
            </Position>
            <AltitudeMeters>15.80000019073486328125</AltitudeMeters>
            <DistanceMeters>NAN</DistanceMeters>
          </Trackpoint>
          <Trackpoint>
            <Time>2022-07-08T10:42:28.000Z</Time>
            <Position>
              <LatitudeDegrees>43.3922415040433406829833984375</LatitudeDegrees>
              <LongitudeDegrees>-1.65956628508865833282470703125</LongitudeDegrees>
            </Position>
            <AltitudeMeters>15.80000019073486328125</AltitudeMeters>
            <DistanceMeters>NAN</DistanceMeters>
          </Trackpoint>
          <Trackpoint>
            <Time>2022-07-08T10:42:36.000Z</Time>
            <Position>
              <LatitudeDegrees>43.3920289389789104461669921875</LatitudeDegrees>
              <LongitudeDegrees>-1.65951767005026340484619140625</LongitudeDegrees>
            </Position>
            <AltitudeMeters>16.3999996185302734375</AltitudeMeters>
            <DistanceMeters>NAN</DistanceMeters>
          </Trackpoint>
          <Trackpoint>
            <Time>2022-07-08T10:42:39.000Z</Time>
            <Position>
              <LatitudeDegrees>43.39194134809076786041259765625</LatitudeDegrees>
              <LongitudeDegrees>-1.6594942845404148101806640625</LongitudeDegrees>
            </Position>
            <AltitudeMeters>16.3999996185302734375</AltitudeMeters>
            <DistanceMeters>NAN</DistanceMeters>
          </Trackpoint>
          <Trackpoint>
            <Time>2022-07-08T10:42:43.000Z</Time>
            <Position>
              <LatitudeDegrees>43.39182651601731777191162109375</LatitudeDegrees>
              <LongitudeDegrees>-1.65946838445961475372314453125</LongitudeDegrees>
            </Position>
            <AltitudeMeters>16.3999996185302734375</AltitudeMeters>
            <DistanceMeters>NAN</DistanceMeters>
          </Trackpoint>
          <Trackpoint>
            <Time>2022-07-08T10:42:44.000Z</Time>
            <Position>
              <LatitudeDegrees>43.3917989395558834075927734375</LatitudeDegrees>
              <LongitudeDegrees>-1.65946302004158496856689453125</LongitudeDegrees>
            </Position>
            <AltitudeMeters>16.3999996185302734375</AltitudeMeters>
            <DistanceMeters>NAN</DistanceMeters>
          </Trackpoint>
          <Trackpoint>
            <Time>2022-07-08T10:42:46.000Z</Time>
            <Position>
              <LatitudeDegrees>43.3917419426143169403076171875</LatitudeDegrees>
              <LongitudeDegrees>-1.65944994427263736724853515625</LongitudeDegrees>
            </Position>
            <AltitudeMeters>16.200000762939453125</AltitudeMeters>
            <DistanceMeters>NAN</DistanceMeters>
          </Trackpoint>
          <Trackpoint>
            <Time>2022-07-08T10:42:50.000Z</Time>
            <Position>
              <LatitudeDegrees>43.3916079998016357421875</LatitudeDegrees>
              <LongitudeDegrees>-1.6594322584569454193115234375</LongitudeDegrees>
            </Position>
            <AltitudeMeters>16.200000762939453125</AltitudeMeters>
            <DistanceMeters>NAN</DistanceMeters>
          </Trackpoint>
          <Trackpoint>
            <Time>2022-07-08T10:42:54.000Z</Time>
            <Position>
              <LatitudeDegrees>43.3914985321462154388427734375</LatitudeDegrees>
              <LongitudeDegrees>-1.6594111360609531402587890625</LongitudeDegrees>
            </Position>
            <AltitudeMeters>16.3999996185302734375</AltitudeMeters>
            <DistanceMeters>NAN</DistanceMeters>
          </Trackpoint>
          <Trackpoint>
            <Time>2022-07-08T10:42:59.000Z</Time>
            <Position>
              <LatitudeDegrees>43.39135117828845977783203125</LatitudeDegrees>
              <LongitudeDegrees>-1.65937752462923526763916015625</LongitudeDegrees>
            </Position>
            <AltitudeMeters>16.3999996185302734375</AltitudeMeters>
            <DistanceMeters>NAN</DistanceMeters>
          </Trackpoint>
          <Trackpoint>
            <Time>2022-07-08T10:43:06.000Z</Time>
            <Position>
              <LatitudeDegrees>43.3911223523318767547607421875</LatitudeDegrees>
              <LongitudeDegrees>-1.65931683965027332305908203125</LongitudeDegrees>
            </Position>
            <AltitudeMeters>16.3999996185302734375</AltitudeMeters>
            <DistanceMeters>NAN</DistanceMeters>
          </Trackpoint>
          <Trackpoint>
            <Time>2022-07-08T10:43:12.000Z</Time>
            <Position>
              <LatitudeDegrees>43.39094323106110095977783203125</LatitudeDegrees>
              <LongitudeDegrees>-1.6592716611921787261962890625</LongitudeDegrees>
            </Position>
            <AltitudeMeters>16.3999996185302734375</AltitudeMeters>
            <DistanceMeters>NAN</DistanceMeters>
          </Trackpoint>
          <Trackpoint>
            <Time>2022-07-08T10:43:18.000Z</Time>
            <Position>
              <LatitudeDegrees>43.3907604217529296875</LatitudeDegrees>
              <LongitudeDegrees>-1.659216843545436859130859375</LongitudeDegrees>
            </Position>
            <AltitudeMeters>16.799999237060546875</AltitudeMeters>
            <DistanceMeters>NAN</DistanceMeters>
          </Trackpoint>
          <Trackpoint>
            <Time>2022-07-08T10:43:19.000Z</Time>
            <Position>
              <LatitudeDegrees>43.39072563685476779937744140625</LatitudeDegrees>
              <LongitudeDegrees>-1.65920703671872615814208984375</LongitudeDegrees>
            </Position>
            <AltitudeMeters>16.799999237060546875</AltitudeMeters>
            <DistanceMeters>NAN</DistanceMeters>
          </Trackpoint>
          <Trackpoint>
            <Time>2022-07-08T10:43:27.000Z</Time>
            <Position>
              <LatitudeDegrees>43.39047216810286045074462890625</LatitudeDegrees>
              <LongitudeDegrees>-1.6590979881584644317626953125</LongitudeDegrees>
            </Position>
            <AltitudeMeters>16.799999237060546875</AltitudeMeters>
            <DistanceMeters>NAN</DistanceMeters>
          </Trackpoint>
          <Trackpoint>
            <Time>2022-07-08T10:43:32.000Z</Time>
            <Position>
              <LatitudeDegrees>43.3903069607913494110107421875</LatitudeDegrees>
              <LongitudeDegrees>-1.65903939865529537200927734375</LongitudeDegrees>
            </Position>
            <AltitudeMeters>16.3999996185302734375</AltitudeMeters>
            <DistanceMeters>NAN</DistanceMeters>
          </Trackpoint>
          <Trackpoint>
            <Time>2022-07-08T10:43:37.000Z</Time>
            <Position>
              <LatitudeDegrees>43.39011945761740207672119140625</LatitudeDegrees>
              <LongitudeDegrees>-1.65896312333643436431884765625</LongitudeDegrees>
            </Position>
            <AltitudeMeters>16.200000762939453125</AltitudeMeters>
            <DistanceMeters>NAN</DistanceMeters>
          </Trackpoint>
          <Trackpoint>
            <Time>2022-07-08T10:43:40.000Z</Time>
            <Position>
              <LatitudeDegrees>43.39006732217967510223388671875</LatitudeDegrees>
              <LongitudeDegrees>-1.65896329097449779510498046875</LongitudeDegrees>
            </Position>
            <AltitudeMeters>16</AltitudeMeters>
            <DistanceMeters>NAN</DistanceMeters>
          </Trackpoint>
          <Trackpoint>
            <Time>2022-07-08T10:43:42.000Z</Time>
            <Position>
              <LatitudeDegrees>43.39003597386181354522705078125</LatitudeDegrees>
              <LongitudeDegrees>-1.65900369174778461456298828125</LongitudeDegrees>
            </Position>
            <AltitudeMeters>15.80000019073486328125</AltitudeMeters>
            <DistanceMeters>NAN</DistanceMeters>
          </Trackpoint>
          <Trackpoint>
            <Time>2022-07-08T10:43:46.000Z</Time>
            <Position>
              <LatitudeDegrees>43.38994829915463924407958984375</LatitudeDegrees>
              <LongitudeDegrees>-1.659059934318065643310546875</LongitudeDegrees>
            </Position>
            <AltitudeMeters>15.3999996185302734375</AltitudeMeters>
            <DistanceMeters>NAN</DistanceMeters>
          </Trackpoint>
          <Trackpoint>
            <Time>2022-07-08T10:43:50.000Z</Time>
            <Position>
              <LatitudeDegrees>43.38985274545848369598388671875</LatitudeDegrees>
              <LongitudeDegrees>-1.6591201163828372955322265625</LongitudeDegrees>
            </Position>
            <AltitudeMeters>15</AltitudeMeters>
            <DistanceMeters>NAN</DistanceMeters>
          </Trackpoint>
          <Trackpoint>
            <Time>2022-07-08T10:43:52.000Z</Time>
            <Position>
              <LatitudeDegrees>43.389840759336948394775390625</LatitudeDegrees>
              <LongitudeDegrees>-1.65916780941188335418701171875</LongitudeDegrees>
            </Position>
            <AltitudeMeters>14.80000019073486328125</AltitudeMeters>
            <DistanceMeters>NAN</DistanceMeters>
          </Trackpoint>
          <Trackpoint>
            <Time>2022-07-08T10:43:55.000Z</Time>
            <Position>
              <LatitudeDegrees>43.3898104168474674224853515625</LatitudeDegrees>
              <LongitudeDegrees>-1.6592441685497760772705078125</LongitudeDegrees>
            </Position>
            <AltitudeMeters>14.6000003814697265625</AltitudeMeters>
            <DistanceMeters>NAN</DistanceMeters>
          </Trackpoint>
          <Trackpoint>
            <Time>2022-07-08T10:43:57.000Z</Time>
            <Position>
              <LatitudeDegrees>43.38975048623979091644287109375</LatitudeDegrees>
              <LongitudeDegrees>-1.65928364731371402740478515625</LongitudeDegrees>
            </Position>
            <AltitudeMeters>14.3999996185302734375</AltitudeMeters>
            <DistanceMeters>NAN</DistanceMeters>
          </Trackpoint>
          <Trackpoint>
            <Time>2022-07-08T10:44:00.000Z</Time>
            <Position>
              <LatitudeDegrees>43.38971142657101154327392578125</LatitudeDegrees>
              <LongitudeDegrees>-1.65932270698249340057373046875</LongitudeDegrees>
            </Position>
            <AltitudeMeters>14.19999980926513671875</AltitudeMeters>
            <DistanceMeters>NAN</DistanceMeters>
          </Trackpoint>
          <Trackpoint>
            <Time>2022-07-08T10:44:03.000Z</Time>
            <Position>
              <LatitudeDegrees>43.38966012932360172271728515625</LatitudeDegrees>
              <LongitudeDegrees>-1.65934802033007144927978515625</LongitudeDegrees>
            </Position>
            <AltitudeMeters>14</AltitudeMeters>
            <DistanceMeters>NAN</DistanceMeters>
          </Trackpoint>
          <Trackpoint>
            <Time>2022-07-08T10:44:05.000Z</Time>
            <Position>
              <LatitudeDegrees>43.389638923108577728271484375</LatitudeDegrees>
              <LongitudeDegrees>-1.6594037599861621856689453125</LongitudeDegrees>
            </Position>
            <AltitudeMeters>14</AltitudeMeters>
            <DistanceMeters>NAN</DistanceMeters>
          </Trackpoint>
          <Trackpoint>
            <Time>2022-07-08T10:44:07.000Z</Time>
            <Position>
              <LatitudeDegrees>43.38962358422577381134033203125</LatitudeDegrees>
              <LongitudeDegrees>-1.65944055654108524322509765625</LongitudeDegrees>
            </Position>
            <AltitudeMeters>14</AltitudeMeters>
            <DistanceMeters>NAN</DistanceMeters>
          </Trackpoint>
          <Trackpoint>
            <Time>2022-07-08T10:44:08.000Z</Time>
            <Position>
              <LatitudeDegrees>43.38959969580173492431640625</LatitudeDegrees>
              <LongitudeDegrees>-1.65945254266262054443359375</LongitudeDegrees>
            </Position>
            <AltitudeMeters>14</AltitudeMeters>
            <DistanceMeters>NAN</DistanceMeters>
          </Trackpoint>
          <Trackpoint>
            <Time>2022-07-08T10:44:10.000Z</Time>
            <Position>
              <LatitudeDegrees>43.389566838741302490234375</LatitudeDegrees>
              <LongitudeDegrees>-1.65949872694909572601318359375</LongitudeDegrees>
            </Position>
            <AltitudeMeters>13.80000019073486328125</AltitudeMeters>
            <DistanceMeters>NAN</DistanceMeters>
          </Trackpoint>
          <Trackpoint>
            <Time>2022-07-08T10:44:11.000Z</Time>
            <Position>
              <LatitudeDegrees>43.3895639888942241668701171875</LatitudeDegrees>
              <LongitudeDegrees>-1.65952236391603946685791015625</LongitudeDegrees>
            </Position>
            <AltitudeMeters>13.80000019073486328125</AltitudeMeters>
            <DistanceMeters>NAN</DistanceMeters>
          </Trackpoint>
          <Trackpoint>
            <Time>2022-07-08T10:44:16.000Z</Time>
            <Position>
              <LatitudeDegrees>43.38952702470123767852783203125</LatitudeDegrees>
              <LongitudeDegrees>-1.65963116101920604705810546875</LongitudeDegrees>
            </Position>
            <AltitudeMeters>13.6000003814697265625</AltitudeMeters>
            <DistanceMeters>NAN</DistanceMeters>
          </Trackpoint>
          <Trackpoint>
            <Time>2022-07-08T10:44:23.000Z</Time>
            <Position>
              <LatitudeDegrees>43.38943532668054103851318359375</LatitudeDegrees>
              <LongitudeDegrees>-1.6598087735474109649658203125</LongitudeDegrees>
            </Position>
            <AltitudeMeters>13.80000019073486328125</AltitudeMeters>
            <DistanceMeters>NAN</DistanceMeters>
          </Trackpoint>
          <Trackpoint>
            <Time>2022-07-08T10:44:26.000Z</Time>
            <Position>
              <LatitudeDegrees>43.389392830431461334228515625</LatitudeDegrees>
              <LongitudeDegrees>-1.6598691232502460479736328125</LongitudeDegrees>
            </Position>
            <AltitudeMeters>13.80000019073486328125</AltitudeMeters>
            <DistanceMeters>NAN</DistanceMeters>
          </Trackpoint>
          <Trackpoint>
            <Time>2022-07-08T10:44:28.000Z</Time>
            <Position>
              <LatitudeDegrees>43.38935972191393375396728515625</LatitudeDegrees>
              <LongitudeDegrees>-1.65989804081618785858154296875</LongitudeDegrees>
            </Position>
            <AltitudeMeters>13.80000019073486328125</AltitudeMeters>
            <DistanceMeters>NAN</DistanceMeters>
          </Trackpoint>
          <Trackpoint>
            <Time>2022-07-08T10:44:34.000Z</Time>
            <Position>
              <LatitudeDegrees>43.389282859861850738525390625</LatitudeDegrees>
              <LongitudeDegrees>-1.6599831171333789825439453125</LongitudeDegrees>
            </Position>
            <AltitudeMeters>13.6000003814697265625</AltitudeMeters>
            <DistanceMeters>NAN</DistanceMeters>
          </Trackpoint>
          <Trackpoint>
            <Time>2022-07-08T10:44:35.000Z</Time>
            <Position>
              <LatitudeDegrees>43.38927741162478923797607421875</LatitudeDegrees>
              <LongitudeDegrees>-1.65999510325491428375244140625</LongitudeDegrees>
            </Position>
            <AltitudeMeters>13.6000003814697265625</AltitudeMeters>
            <DistanceMeters>NAN</DistanceMeters>
          </Trackpoint>
          <Trackpoint>
            <Time>2022-07-08T10:44:37.000Z</Time>
            <Position>
              <LatitudeDegrees>43.3892689459025859832763671875</LatitudeDegrees>
              <LongitudeDegrees>-1.66002452373504638671875</LongitudeDegrees>
            </Position>
            <AltitudeMeters>13.6000003814697265625</AltitudeMeters>
            <DistanceMeters>NAN</DistanceMeters>
          </Trackpoint>
          <Trackpoint>
            <Time>2022-07-08T10:44:39.000Z</Time>
            <Position>
              <LatitudeDegrees>43.38926374912261962890625</LatitudeDegrees>
              <LongitudeDegrees>-1.66003617458045482635498046875</LongitudeDegrees>
            </Position>
            <AltitudeMeters>13.3999996185302734375</AltitudeMeters>
            <DistanceMeters>NAN</DistanceMeters>
          </Trackpoint>
          <Trackpoint>
            <Time>2022-07-08T10:44:41.000Z</Time>
            <Position>
              <LatitudeDegrees>43.389224521815776824951171875</LatitudeDegrees>
              <LongitudeDegrees>-1.6600786708295345306396484375</LongitudeDegrees>
            </Position>
            <AltitudeMeters>13.3999996185302734375</AltitudeMeters>
            <DistanceMeters>NAN</DistanceMeters>
          </Trackpoint>
          <Trackpoint>
            <Time>2022-07-08T10:44:42.000Z</Time>
            <Position>
              <LatitudeDegrees>43.3891894854605197906494140625</LatitudeDegrees>
              <LongitudeDegrees>-1.660108678042888641357421875</LongitudeDegrees>
            </Position>
            <AltitudeMeters>13.3999996185302734375</AltitudeMeters>
            <DistanceMeters>NAN</DistanceMeters>
          </Trackpoint>
          <Trackpoint>
            <Time>2022-07-08T10:44:47.000Z</Time>
            <Position>
              <LatitudeDegrees>43.38911287486553192138671875</LatitudeDegrees>
              <LongitudeDegrees>-1.6601769067347049713134765625</LongitudeDegrees>
            </Position>
            <AltitudeMeters>13.6000003814697265625</AltitudeMeters>
            <DistanceMeters>NAN</DistanceMeters>
          </Trackpoint>
          <Trackpoint>
            <Time>2022-07-08T10:44:53.000Z</Time>
            <Position>
              <LatitudeDegrees>43.38901086710393428802490234375</LatitudeDegrees>
              <LongitudeDegrees>-1.66031512431800365447998046875</LongitudeDegrees>
            </Position>
            <AltitudeMeters>13.19999980926513671875</AltitudeMeters>
            <DistanceMeters>NAN</DistanceMeters>
          </Trackpoint>
          <Trackpoint>
            <Time>2022-07-08T10:44:54.000Z</Time>
            <Position>
              <LatitudeDegrees>43.388999216258525848388671875</LatitudeDegrees>
              <LongitudeDegrees>-1.66034412570297718048095703125</LongitudeDegrees>
            </Position>
            <AltitudeMeters>13.19999980926513671875</AltitudeMeters>
            <DistanceMeters>NAN</DistanceMeters>
          </Trackpoint>
          <Trackpoint>
            <Time>2022-07-08T10:44:56.000Z</Time>
            <Position>
              <LatitudeDegrees>43.38897901587188243865966796875</LatitudeDegrees>
              <LongitudeDegrees>-1.66039106436073780059814453125</LongitudeDegrees>
            </Position>
            <AltitudeMeters>13.19999980926513671875</AltitudeMeters>
            <DistanceMeters>NAN</DistanceMeters>
          </Trackpoint>
          <Trackpoint>
            <Time>2022-07-08T10:44:57.000Z</Time>
            <Position>
              <LatitudeDegrees>43.3889568038284778594970703125</LatitudeDegrees>
              <LongitudeDegrees>-1.66043180041015148162841796875</LongitudeDegrees>
            </Position>
            <AltitudeMeters>13</AltitudeMeters>
            <DistanceMeters>NAN</DistanceMeters>
          </Trackpoint>
          <Trackpoint>
            <Time>2022-07-08T10:44:59.000Z</Time>
            <Position>
              <LatitudeDegrees>43.388932161033153533935546875</LatitudeDegrees>
              <LongitudeDegrees>-1.660472787916660308837890625</LongitudeDegrees>
            </Position>
            <AltitudeMeters>13</AltitudeMeters>
            <DistanceMeters>NAN</DistanceMeters>
          </Trackpoint>
          <Trackpoint>
            <Time>2022-07-08T10:45:01.000Z</Time>
            <Position>
              <LatitudeDegrees>43.38894397951662540435791015625</LatitudeDegrees>
              <LongitudeDegrees>-1.66050673462450504302978515625</LongitudeDegrees>
            </Position>
            <AltitudeMeters>13</AltitudeMeters>
            <DistanceMeters>NAN</DistanceMeters>
          </Trackpoint>
          <Trackpoint>
            <Time>2022-07-08T10:45:02.000Z</Time>
            <Position>
              <LatitudeDegrees>43.38895185850560665130615234375</LatitudeDegrees>
              <LongitudeDegrees>-1.66052551008760929107666015625</LongitudeDegrees>
            </Position>
            <AltitudeMeters>13</AltitudeMeters>
            <DistanceMeters>NAN</DistanceMeters>
          </Trackpoint>
          <Trackpoint>
            <Time>2022-07-08T10:45:03.000Z</Time>
            <Position>
              <LatitudeDegrees>43.38894917629659175872802734375</LatitudeDegrees>
              <LongitudeDegrees>-1.660542190074920654296875</LongitudeDegrees>
            </Position>
            <AltitudeMeters>13</AltitudeMeters>
            <DistanceMeters>NAN</DistanceMeters>
          </Trackpoint>
          <Trackpoint>
            <Time>2022-07-08T10:45:05.000Z</Time>
            <Position>
              <LatitudeDegrees>43.38893610052764415740966796875</LatitudeDegrees>
              <LongitudeDegrees>-1.66058116592466831207275390625</LongitudeDegrees>
            </Position>
            <AltitudeMeters>13</AltitudeMeters>
            <DistanceMeters>NAN</DistanceMeters>
          </Trackpoint>
          <Trackpoint>
            <Time>2022-07-08T10:45:06.000Z</Time>
            <Position>
              <LatitudeDegrees>43.3889259584248065948486328125</LatitudeDegrees>
              <LongitudeDegrees>-1.66059860028326511383056640625</LongitudeDegrees>
            </Position>
            <AltitudeMeters>13</AltitudeMeters>
            <DistanceMeters>NAN</DistanceMeters>
          </Trackpoint>
          <Trackpoint>
            <Time>2022-07-08T10:45:11.000Z</Time>
            <Position>
              <LatitudeDegrees>43.38887575082480907440185546875</LatitudeDegrees>
              <LongitudeDegrees>-1.6607071459293365478515625</LongitudeDegrees>
            </Position>
            <AltitudeMeters>13</AltitudeMeters>
            <DistanceMeters>NAN</DistanceMeters>
          </Trackpoint>
          <Trackpoint>
            <Time>2022-07-08T10:45:13.000Z</Time>
            <Position>
              <LatitudeDegrees>43.38886284269392490386962890625</LatitudeDegrees>
              <LongitudeDegrees>-1.660718880593776702880859375</LongitudeDegrees>
            </Position>
            <AltitudeMeters>13.19999980926513671875</AltitudeMeters>
            <DistanceMeters>NAN</DistanceMeters>
          </Trackpoint>
          <Trackpoint>
            <Time>2022-07-08T10:45:18.000Z</Time>
            <Position>
              <LatitudeDegrees>43.38885781355202198028564453125</LatitudeDegrees>
              <LongitudeDegrees>-1.66074293665587902069091796875</LongitudeDegrees>
            </Position>
            <AltitudeMeters>13.19999980926513671875</AltitudeMeters>
            <DistanceMeters>NAN</DistanceMeters>
          </Trackpoint>
          <Trackpoint>
            <Time>2022-07-08T10:45:20.000Z</Time>
            <Position>
              <LatitudeDegrees>43.38882965035736560821533203125</LatitudeDegrees>
              <LongitudeDegrees>-1.66079901158809661865234375</LongitudeDegrees>
            </Position>
            <AltitudeMeters>13.19999980926513671875</AltitudeMeters>
            <DistanceMeters>NAN</DistanceMeters>
          </Trackpoint>
          <Trackpoint>
            <Time>2022-07-08T10:45:23.000Z</Time>
            <Position>
              <LatitudeDegrees>43.38878874666988849639892578125</LatitudeDegrees>
              <LongitudeDegrees>-1.6608840040862560272216796875</LongitudeDegrees>
            </Position>
            <AltitudeMeters>13.19999980926513671875</AltitudeMeters>
            <DistanceMeters>NAN</DistanceMeters>
          </Trackpoint>
          <Trackpoint>
            <Time>2022-07-08T10:45:25.000Z</Time>
            <Position>
              <LatitudeDegrees>43.388795368373394012451171875</LatitudeDegrees>
              <LongitudeDegrees>-1.66092063300311565399169921875</LongitudeDegrees>
            </Position>
            <AltitudeMeters>13.3999996185302734375</AltitudeMeters>
            <DistanceMeters>NAN</DistanceMeters>
          </Trackpoint>
          <Trackpoint>
            <Time>2022-07-08T10:45:27.000Z</Time>
            <Position>
              <LatitudeDegrees>43.388806767761707305908203125</LatitudeDegrees>
              <LongitudeDegrees>-1.66095650754868984222412109375</LongitudeDegrees>
            </Position>
            <AltitudeMeters>13.3999996185302734375</AltitudeMeters>
            <DistanceMeters>NAN</DistanceMeters>
          </Trackpoint>
          <Trackpoint>
            <Time>2022-07-08T10:45:30.000Z</Time>
            <Position>
              <LatitudeDegrees>43.388795368373394012451171875</LatitudeDegrees>
              <LongitudeDegrees>-1.6610100679099559783935546875</LongitudeDegrees>
            </Position>
            <AltitudeMeters>13.6000003814697265625</AltitudeMeters>
            <DistanceMeters>NAN</DistanceMeters>
          </Trackpoint>
          <Trackpoint>
            <Time>2022-07-08T10:45:38.000Z</Time>
            <Position>
              <LatitudeDegrees>43.38866435922682285308837890625</LatitudeDegrees>
              <LongitudeDegrees>-1.6612393967807292938232421875</LongitudeDegrees>
            </Position>
            <AltitudeMeters>13.6000003814697265625</AltitudeMeters>
            <DistanceMeters>NAN</DistanceMeters>
          </Trackpoint>
          <Trackpoint>
            <Time>2022-07-08T10:45:43.000Z</Time>
            <Position>
              <LatitudeDegrees>43.388578109443187713623046875</LatitudeDegrees>
              <LongitudeDegrees>-1.66139303706586360931396484375</LongitudeDegrees>
            </Position>
            <AltitudeMeters>13.80000019073486328125</AltitudeMeters>
            <DistanceMeters>NAN</DistanceMeters>
          </Trackpoint>
          <Trackpoint>
            <Time>2022-07-08T10:45:50.000Z</Time>
            <Position>
              <LatitudeDegrees>43.38852605782449245452880859375</LatitudeDegrees>
              <LongitudeDegrees>-1.66153267957270145416259765625</LongitudeDegrees>
            </Position>
            <AltitudeMeters>13.6000003814697265625</AltitudeMeters>
            <DistanceMeters>NAN</DistanceMeters>
          </Trackpoint>
          <Trackpoint>
            <Time>2022-07-08T10:45:53.000Z</Time>
            <Position>
              <LatitudeDegrees>43.38855606503784656524658203125</LatitudeDegrees>
              <LongitudeDegrees>-1.6615696437656879425048828125</LongitudeDegrees>
            </Position>
            <AltitudeMeters>13.6000003814697265625</AltitudeMeters>
            <DistanceMeters>NAN</DistanceMeters>
          </Trackpoint>
          <Trackpoint>
            <Time>2022-07-08T10:45:54.000Z</Time>
            <Position>
              <LatitudeDegrees>43.388551957905292510986328125</LatitudeDegrees>
              <LongitudeDegrees>-1.66157710365951061248779296875</LongitudeDegrees>
            </Position>
            <AltitudeMeters>13.80000019073486328125</AltitudeMeters>
            <DistanceMeters>NAN</DistanceMeters>
          </Trackpoint>
          <Trackpoint>
            <Time>2022-07-08T10:45:56.000Z</Time>
            <Position>
              <LatitudeDegrees>43.38854315690696239471435546875</LatitudeDegrees>
              <LongitudeDegrees>-1.66160224936902523040771484375</LongitudeDegrees>
            </Position>
            <AltitudeMeters>13.80000019073486328125</AltitudeMeters>
            <DistanceMeters>NAN</DistanceMeters>
          </Trackpoint>
          <Trackpoint>
            <Time>2022-07-08T10:45:57.000Z</Time>
            <Position>
              <LatitudeDegrees>43.38853863067924976348876953125</LatitudeDegrees>
              <LongitudeDegrees>-1.66162303648889064788818359375</LongitudeDegrees>
            </Position>
            <AltitudeMeters>13.80000019073486328125</AltitudeMeters>
            <DistanceMeters>NAN</DistanceMeters>
          </Trackpoint>
          <Trackpoint>
            <Time>2022-07-08T10:46:01.000Z</Time>
            <Position>
              <LatitudeDegrees>43.38847576640546321868896484375</LatitudeDegrees>
              <LongitudeDegrees>-1.66170199401676654815673828125</LongitudeDegrees>
            </Position>
            <AltitudeMeters>13.80000019073486328125</AltitudeMeters>
            <DistanceMeters>NAN</DistanceMeters>
          </Trackpoint>
          <Trackpoint>
            <Time>2022-07-08T10:46:03.000Z</Time>
            <Position>
              <LatitudeDegrees>43.38845782913267612457275390625</LatitudeDegrees>
              <LongitudeDegrees>-1.66174809448421001434326171875</LongitudeDegrees>
            </Position>
            <AltitudeMeters>13.80000019073486328125</AltitudeMeters>
            <DistanceMeters>NAN</DistanceMeters>
          </Trackpoint>
          <Trackpoint>
            <Time>2022-07-08T10:46:04.000Z</Time>
            <Position>
              <LatitudeDegrees>43.38844902813434600830078125</LatitudeDegrees>
              <LongitudeDegrees>-1.66176653467118740081787109375</LongitudeDegrees>
            </Position>
            <AltitudeMeters>14</AltitudeMeters>
            <DistanceMeters>NAN</DistanceMeters>
          </Trackpoint>
          <Trackpoint>
            <Time>2022-07-08T10:46:05.000Z</Time>
            <Position>
              <LatitudeDegrees>43.3884322643280029296875</LatitudeDegrees>
              <LongitudeDegrees>-1.6617852263152599334716796875</LongitudeDegrees>
            </Position>
            <AltitudeMeters>14</AltitudeMeters>
            <DistanceMeters>NAN</DistanceMeters>
          </Trackpoint>
          <Trackpoint>
            <Time>2022-07-08T10:46:06.000Z</Time>
            <Position>
              <LatitudeDegrees>43.38841550052165985107421875</LatitudeDegrees>
              <LongitudeDegrees>-1.6618050076067447662353515625</LongitudeDegrees>
            </Position>
            <AltitudeMeters>14</AltitudeMeters>
            <DistanceMeters>NAN</DistanceMeters>
          </Trackpoint>
          <Trackpoint>
            <Time>2022-07-08T10:46:07.000Z</Time>
            <Position>
              <LatitudeDegrees>43.38840586133301258087158203125</LatitudeDegrees>
              <LongitudeDegrees>-1.661829985678195953369140625</LongitudeDegrees>
            </Position>
            <AltitudeMeters>14</AltitudeMeters>
            <DistanceMeters>NAN</DistanceMeters>
          </Trackpoint>
          <Trackpoint>
            <Time>2022-07-08T10:46:09.000Z</Time>
            <Position>
              <LatitudeDegrees>43.38838188908994197845458984375</LatitudeDegrees>
              <LongitudeDegrees>-1.66189142502844333648681640625</LongitudeDegrees>
            </Position>
            <AltitudeMeters>14</AltitudeMeters>
            <DistanceMeters>NAN</DistanceMeters>
          </Trackpoint>
          <Trackpoint>
            <Time>2022-07-08T10:46:11.000Z</Time>
            <Position>
              <LatitudeDegrees>43.3883935399353504180908203125</LatitudeDegrees>
              <LongitudeDegrees>-1.6619481705129146575927734375</LongitudeDegrees>
            </Position>
            <AltitudeMeters>14</AltitudeMeters>
            <DistanceMeters>NAN</DistanceMeters>
          </Trackpoint>
          <Trackpoint>
            <Time>2022-07-08T10:46:12.000Z</Time>
            <Position>
              <LatitudeDegrees>43.38839814998209476470947265625</LatitudeDegrees>
              <LongitudeDegrees>-1.6619726456701755523681640625</LongitudeDegrees>
            </Position>
            <AltitudeMeters>14</AltitudeMeters>
            <DistanceMeters>NAN</DistanceMeters>
          </Trackpoint>
          <Trackpoint>
            <Time>2022-07-08T10:46:15.000Z</Time>
            <Position>
              <LatitudeDegrees>43.388397730886936187744140625</LatitudeDegrees>
              <LongitudeDegrees>-1.6620309837162494659423828125</LongitudeDegrees>
            </Position>
            <AltitudeMeters>13.80000019073486328125</AltitudeMeters>
            <DistanceMeters>NAN</DistanceMeters>
          </Trackpoint>
          <Trackpoint>
            <Time>2022-07-08T10:46:17.000Z</Time>
            <Position>
              <LatitudeDegrees>43.38838976807892322540283203125</LatitudeDegrees>
              <LongitudeDegrees>-1.6620547883212566375732421875</LongitudeDegrees>
            </Position>
            <AltitudeMeters>13.80000019073486328125</AltitudeMeters>
            <DistanceMeters>NAN</DistanceMeters>
          </Trackpoint>
          <Trackpoint>
            <Time>2022-07-08T10:46:22.000Z</Time>
            <Position>
              <LatitudeDegrees>43.38837937451899051666259765625</LatitudeDegrees>
              <LongitudeDegrees>-1.66209627874195575714111328125</LongitudeDegrees>
            </Position>
            <AltitudeMeters>13.80000019073486328125</AltitudeMeters>
            <DistanceMeters>NAN</DistanceMeters>
          </Trackpoint>
          <Trackpoint>
            <Time>2022-07-08T10:46:29.000Z</Time>
            <Position>
              <LatitudeDegrees>43.38834534399211406707763671875</LatitudeDegrees>
              <LongitudeDegrees>-1.6622143797576427459716796875</LongitudeDegrees>
            </Position>
            <AltitudeMeters>14</AltitudeMeters>
            <DistanceMeters>NAN</DistanceMeters>
          </Trackpoint>
          <Trackpoint>
            <Time>2022-07-08T10:46:32.000Z</Time>
            <Position>
              <LatitudeDegrees>43.3883194439113140106201171875</LatitudeDegrees>
              <LongitudeDegrees>-1.6622710414230823516845703125</LongitudeDegrees>
            </Position>
            <AltitudeMeters>14</AltitudeMeters>
            <DistanceMeters>NAN</DistanceMeters>
          </Trackpoint>
          <Trackpoint>
            <Time>2022-07-08T10:46:36.000Z</Time>
            <Position>
              <LatitudeDegrees>43.3883160911500453948974609375</LatitudeDegrees>
              <LongitudeDegrees>-1.662284620106220245361328125</LongitudeDegrees>
            </Position>
            <AltitudeMeters>13.80000019073486328125</AltitudeMeters>
            <DistanceMeters>NAN</DistanceMeters>
          </Trackpoint>
          <Trackpoint>
            <Time>2022-07-08T10:46:37.000Z</Time>
            <Position>
              <LatitudeDegrees>43.388318605720996856689453125</LatitudeDegrees>
              <LongitudeDegrees>-1.6622936725616455078125</LongitudeDegrees>
            </Position>
            <AltitudeMeters>13.80000019073486328125</AltitudeMeters>
            <DistanceMeters>NAN</DistanceMeters>
          </Trackpoint>
          <Trackpoint>
            <Time>2022-07-08T10:46:39.000Z</Time>
            <Position>
              <LatitudeDegrees>43.38831315748393535614013671875</LatitudeDegrees>
              <LongitudeDegrees>-1.6623106040060520172119140625</LongitudeDegrees>
            </Position>
            <AltitudeMeters>13.6000003814697265625</AltitudeMeters>
            <DistanceMeters>NAN</DistanceMeters>
          </Trackpoint>
          <Trackpoint>
            <Time>2022-07-08T10:46:42.000Z</Time>
            <Position>
              <LatitudeDegrees>43.38831215165555477142333984375</LatitudeDegrees>
              <LongitudeDegrees>-1.66232778690755367279052734375</LongitudeDegrees>
            </Position>
            <AltitudeMeters>13.6000003814697265625</AltitudeMeters>
            <DistanceMeters>NAN</DistanceMeters>
          </Trackpoint>
          <Trackpoint>
            <Time>2022-07-08T10:46:46.000Z</Time>
            <Position>
              <LatitudeDegrees>43.3883073739707469940185546875</LatitudeDegrees>
              <LongitudeDegrees>-1.66237204335629940032958984375</LongitudeDegrees>
            </Position>
            <AltitudeMeters>13.6000003814697265625</AltitudeMeters>
            <DistanceMeters>NAN</DistanceMeters>
          </Trackpoint>
          <Trackpoint>
            <Time>2022-07-08T10:46:47.000Z</Time>
            <Position>
              <LatitudeDegrees>43.38830309920012950897216796875</LatitudeDegrees>
              <LongitudeDegrees>-1.66238662786781787872314453125</LongitudeDegrees>
            </Position>
            <AltitudeMeters>13.6000003814697265625</AltitudeMeters>
            <DistanceMeters>NAN</DistanceMeters>
          </Trackpoint>
          <Trackpoint>
            <Time>2022-07-08T10:46:48.000Z</Time>
            <Position>
              <LatitudeDegrees>43.3883036859333515167236328125</LatitudeDegrees>
              <LongitudeDegrees>-1.66240305639803409576416015625</LongitudeDegrees>
            </Position>
            <AltitudeMeters>13.6000003814697265625</AltitudeMeters>
            <DistanceMeters>NAN</DistanceMeters>
          </Trackpoint>
          <Trackpoint>
            <Time>2022-07-08T10:46:53.000Z</Time>
            <Position>
              <LatitudeDegrees>43.38823847472667694091796875</LatitudeDegrees>
              <LongitudeDegrees>-1.662505231797695159912109375</LongitudeDegrees>
            </Position>
            <AltitudeMeters>13.6000003814697265625</AltitudeMeters>
            <DistanceMeters>NAN</DistanceMeters>
          </Trackpoint>
          <Trackpoint>
            <Time>2022-07-08T10:46:58.000Z</Time>
            <Position>
              <LatitudeDegrees>43.38819849304854869842529296875</LatitudeDegrees>
              <LongitudeDegrees>-1.66257304139435291290283203125</LongitudeDegrees>
            </Position>
            <AltitudeMeters>13.3999996185302734375</AltitudeMeters>
            <DistanceMeters>NAN</DistanceMeters>
          </Trackpoint>
          <Trackpoint>
            <Time>2022-07-08T10:46:59.000Z</Time>
            <Position>
              <LatitudeDegrees>43.38817787356674671173095703125</LatitudeDegrees>
              <LongitudeDegrees>-1.66260388679802417755126953125</LongitudeDegrees>
            </Position>
            <AltitudeMeters>13.3999996185302734375</AltitudeMeters>
            <DistanceMeters>NAN</DistanceMeters>
          </Trackpoint>
          <Trackpoint>
            <Time>2022-07-08T10:47:04.000Z</Time>
            <Position>
              <LatitudeDegrees>43.38811936788260936737060546875</LatitudeDegrees>
              <LongitudeDegrees>-1.66271402500569820404052734375</LongitudeDegrees>
            </Position>
            <AltitudeMeters>13.3999996185302734375</AltitudeMeters>
            <DistanceMeters>NAN</DistanceMeters>
          </Trackpoint>
          <Trackpoint>
            <Time>2022-07-08T10:47:05.000Z</Time>
            <Position>
              <LatitudeDegrees>43.38811852969229221343994140625</LatitudeDegrees>
              <LongitudeDegrees>-1.66272290982306003570556640625</LongitudeDegrees>
            </Position>
            <AltitudeMeters>13.3999996185302734375</AltitudeMeters>
            <DistanceMeters>NAN</DistanceMeters>
          </Trackpoint>
          <Trackpoint>
            <Time>2022-07-08T10:47:08.000Z</Time>
            <Position>
              <LatitudeDegrees>43.38811852969229221343994140625</LatitudeDegrees>
              <LongitudeDegrees>-1.66272290982306003570556640625</LongitudeDegrees>
            </Position>
            <AltitudeMeters>13.3999996185302734375</AltitudeMeters>
            <DistanceMeters>NAN</DistanceMeters>
          </Trackpoint>
          <Trackpoint>
            <Time>2022-07-08T10:47:45.000Z</Time>
            <Position>
              <LatitudeDegrees>43.388133533298969268798828125</LatitudeDegrees>
              <LongitudeDegrees>-1.66282567195594310760498046875</LongitudeDegrees>
            </Position>
            <AltitudeMeters>13</AltitudeMeters>
            <DistanceMeters>NAN</DistanceMeters>
          </Trackpoint>
          <Trackpoint>
            <Time>2022-07-08T10:47:46.000Z</Time>
            <Position>
              <LatitudeDegrees>43.38815188966691493988037109375</LatitudeDegrees>
              <LongitudeDegrees>-1.6628775559365749359130859375</LongitudeDegrees>
            </Position>
            <AltitudeMeters>13</AltitudeMeters>
            <DistanceMeters>NAN</DistanceMeters>
          </Trackpoint>
          <Trackpoint>
            <Time>2022-07-08T10:47:50.000Z</Time>
            <Position>
              <LatitudeDegrees>43.3881814777851104736328125</LatitudeDegrees>
              <LongitudeDegrees>-1.66291820816695690155029296875</LongitudeDegrees>
            </Position>
            <AltitudeMeters>13.19999980926513671875</AltitudeMeters>
            <DistanceMeters>NAN</DistanceMeters>
          </Trackpoint>
          <Trackpoint>
            <Time>2022-07-08T10:47:51.000Z</Time>
            <Position>
              <LatitudeDegrees>43.38818374089896678924560546875</LatitudeDegrees>
              <LongitudeDegrees>-1.6629159450531005859375</LongitudeDegrees>
            </Position>
            <AltitudeMeters>13.19999980926513671875</AltitudeMeters>
            <DistanceMeters>NAN</DistanceMeters>
          </Trackpoint>
          <Trackpoint>
            <Time>2022-07-08T10:47:52.000Z</Time>
            <Position>
              <LatitudeDegrees>43.38818541727960109710693359375</LatitudeDegrees>
              <LongitudeDegrees>-1.66290345601737499237060546875</LongitudeDegrees>
            </Position>
            <AltitudeMeters>13.19999980926513671875</AltitudeMeters>
            <DistanceMeters>NAN</DistanceMeters>
          </Trackpoint>
          <Trackpoint>
            <Time>2022-07-08T10:47:57.000Z</Time>
            <Position>
              <LatitudeDegrees>43.3882134966552257537841796875</LatitudeDegrees>
              <LongitudeDegrees>-1.6628198884427547454833984375</LongitudeDegrees>
            </Position>
            <AltitudeMeters>13</AltitudeMeters>
            <DistanceMeters>NAN</DistanceMeters>
          </Trackpoint>
          <Trackpoint>
            <Time>2022-07-08T10:48:36.000Z</Time>
            <Position>
              <LatitudeDegrees>43.388080894947052001953125</LatitudeDegrees>
              <LongitudeDegrees>-1.6626827605068683624267578125</LongitudeDegrees>
            </Position>
            <AltitudeMeters>12.19999980926513671875</AltitudeMeters>
            <DistanceMeters>NAN</DistanceMeters>
          </Trackpoint>
          <Trackpoint>
            <Time>2022-07-08T10:48:37.000Z</Time>
            <Position>
              <LatitudeDegrees>43.38808131404221057891845703125</LatitudeDegrees>
              <LongitudeDegrees>-1.6626837663352489471435546875</LongitudeDegrees>
            </Position>
            <AltitudeMeters>12.19999980926513671875</AltitudeMeters>
            <DistanceMeters>NAN</DistanceMeters>
          </Trackpoint>
          <Trackpoint>
            <Time>2022-07-08T10:48:39.000Z</Time>
            <Position>
              <LatitudeDegrees>43.38808131404221057891845703125</LatitudeDegrees>
              <LongitudeDegrees>-1.6626837663352489471435546875</LongitudeDegrees>
            </Position>
            <AltitudeMeters>12.19999980926513671875</AltitudeMeters>
            <DistanceMeters>NAN</DistanceMeters>
          </Trackpoint>
          <Trackpoint>
            <Time>2022-07-08T10:49:31.000Z</Time>
            <Position>
              <LatitudeDegrees>43.38804309256374835968017578125</LatitudeDegrees>
              <LongitudeDegrees>-1.66280438192188739776611328125</LongitudeDegrees>
            </Position>
            <AltitudeMeters>13.6000003814697265625</AltitudeMeters>
            <DistanceMeters>NAN</DistanceMeters>
          </Trackpoint>
          <Trackpoint>
            <Time>2022-07-08T10:49:33.000Z</Time>
            <Position>
              <LatitudeDegrees>43.38803957216441631317138671875</LatitudeDegrees>
              <LongitudeDegrees>-1.66288501583039760589599609375</LongitudeDegrees>
            </Position>
            <AltitudeMeters>13.80000019073486328125</AltitudeMeters>
            <DistanceMeters>NAN</DistanceMeters>
          </Trackpoint>
          <Trackpoint>
            <Time>2022-07-08T10:49:36.000Z</Time>
            <Position>
              <LatitudeDegrees>43.388054072856903076171875</LatitudeDegrees>
              <LongitudeDegrees>-1.6629717685282230377197265625</LongitudeDegrees>
            </Position>
            <AltitudeMeters>13.6000003814697265625</AltitudeMeters>
            <DistanceMeters>NAN</DistanceMeters>
          </Trackpoint>
          <Trackpoint>
            <Time>2022-07-08T10:49:38.000Z</Time>
            <Position>
              <LatitudeDegrees>43.3880393207073211669921875</LatitudeDegrees>
              <LongitudeDegrees>-1.6630272567272186279296875</LongitudeDegrees>
            </Position>
            <AltitudeMeters>13.6000003814697265625</AltitudeMeters>
            <DistanceMeters>NAN</DistanceMeters>
          </Trackpoint>
          <Trackpoint>
            <Time>2022-07-08T10:49:41.000Z</Time>
            <Position>
              <LatitudeDegrees>43.3880304358899593353271484375</LatitudeDegrees>
              <LongitudeDegrees>-1.6631042025983333587646484375</LongitudeDegrees>
            </Position>
            <AltitudeMeters>13.6000003814697265625</AltitudeMeters>
            <DistanceMeters>NAN</DistanceMeters>
          </Trackpoint>
          <Trackpoint>
            <Time>2022-07-08T10:49:46.000Z</Time>
            <Position>
              <LatitudeDegrees>43.388016857206821441650390625</LatitudeDegrees>
              <LongitudeDegrees>-1.66312054730951786041259765625</LongitudeDegrees>
            </Position>
            <AltitudeMeters>13.3999996185302734375</AltitudeMeters>
            <DistanceMeters>NAN</DistanceMeters>
          </Trackpoint>
          <Trackpoint>
            <Time>2022-07-08T10:49:47.000Z</Time>
            <Position>
              <LatitudeDegrees>43.388016857206821441650390625</LatitudeDegrees>
              <LongitudeDegrees>-1.66312054730951786041259765625</LongitudeDegrees>
            </Position>
            <AltitudeMeters>13.19999980926513671875</AltitudeMeters>
            <DistanceMeters>NAN</DistanceMeters>
          </Trackpoint>
          <Trackpoint>
            <Time>2022-07-08T10:50:10.000Z</Time>
            <Position>
              <LatitudeDegrees>43.38802917860448360443115234375</LatitudeDegrees>
              <LongitudeDegrees>-1.66308584623038768768310546875</LongitudeDegrees>
            </Position>
            <AltitudeMeters>12.80000019073486328125</AltitudeMeters>
            <DistanceMeters>NAN</DistanceMeters>
          </Trackpoint>
          <Trackpoint>
            <Time>2022-07-08T10:50:11.000Z</Time>
            <Position>
              <LatitudeDegrees>43.38803487829864025115966796875</LatitudeDegrees>
              <LongitudeDegrees>-1.6630669869482517242431640625</LongitudeDegrees>
            </Position>
            <AltitudeMeters>12.80000019073486328125</AltitudeMeters>
            <DistanceMeters>NAN</DistanceMeters>
          </Trackpoint>
          <Trackpoint>
            <Time>2022-07-08T10:50:13.000Z</Time>
            <Position>
              <LatitudeDegrees>43.38803839869797229766845703125</LatitudeDegrees>
              <LongitudeDegrees>-1.66302281431853771209716796875</LongitudeDegrees>
            </Position>
            <AltitudeMeters>13</AltitudeMeters>
            <DistanceMeters>NAN</DistanceMeters>
          </Trackpoint>
          <Trackpoint>
            <Time>2022-07-08T10:50:18.000Z</Time>
            <Position>
              <LatitudeDegrees>43.3880686573684215545654296875</LatitudeDegrees>
              <LongitudeDegrees>-1.66286556981503963470458984375</LongitudeDegrees>
            </Position>
            <AltitudeMeters>13</AltitudeMeters>
            <DistanceMeters>NAN</DistanceMeters>
          </Trackpoint>
          <Trackpoint>
            <Time>2022-07-08T10:50:23.000Z</Time>
            <Position>
              <LatitudeDegrees>43.388073183596134185791015625</LatitudeDegrees>
              <LongitudeDegrees>-1.66279834695160388946533203125</LongitudeDegrees>
            </Position>
            <AltitudeMeters>12.80000019073486328125</AltitudeMeters>
            <DistanceMeters>NAN</DistanceMeters>
          </Trackpoint>
          <Trackpoint>
            <Time>2022-07-08T10:50:24.000Z</Time>
            <Position>
              <LatitudeDegrees>43.38806991465389728546142578125</LatitudeDegrees>
              <LongitudeDegrees>-1.6628058068454265594482421875</LongitudeDegrees>
            </Position>
            <AltitudeMeters>12.80000019073486328125</AltitudeMeters>
            <DistanceMeters>NAN</DistanceMeters>
          </Trackpoint>
          <Trackpoint>
            <Time>2022-07-08T10:50:27.000Z</Time>
            <Position>
              <LatitudeDegrees>43.387976624071598052978515625</LatitudeDegrees>
              <LongitudeDegrees>-1.66279516182839870452880859375</LongitudeDegrees>
            </Position>
            <AltitudeMeters>12.6000003814697265625</AltitudeMeters>
            <DistanceMeters>NAN</DistanceMeters>
          </Trackpoint>
          <Trackpoint>
            <Time>2022-07-08T10:50:32.000Z</Time>
            <Position>
              <LatitudeDegrees>43.38778794743120670318603515625</LatitudeDegrees>
              <LongitudeDegrees>-1.66275836527347564697265625</LongitudeDegrees>
            </Position>
            <AltitudeMeters>12.19999980926513671875</AltitudeMeters>
            <DistanceMeters>NAN</DistanceMeters>
          </Trackpoint>
          <Trackpoint>
            <Time>2022-07-08T10:50:36.000Z</Time>
            <Position>
              <LatitudeDegrees>43.38769289664924144744873046875</LatitudeDegrees>
              <LongitudeDegrees>-1.66274252347648143768310546875</LongitudeDegrees>
            </Position>
            <AltitudeMeters>12</AltitudeMeters>
            <DistanceMeters>NAN</DistanceMeters>
          </Trackpoint>
          <Trackpoint>
            <Time>2022-07-08T10:50:37.000Z</Time>
            <Position>
              <LatitudeDegrees>43.38767076842486858367919921875</LatitudeDegrees>
              <LongitudeDegrees>-1.66271771304309368133544921875</LongitudeDegrees>
            </Position>
            <AltitudeMeters>12</AltitudeMeters>
            <DistanceMeters>NAN</DistanceMeters>
          </Trackpoint>
          <Trackpoint>
            <Time>2022-07-08T10:50:38.000Z</Time>
            <Position>
              <LatitudeDegrees>43.38764595799148082733154296875</LatitudeDegrees>
              <LongitudeDegrees>-1.66270262561738491058349609375</LongitudeDegrees>
            </Position>
            <AltitudeMeters>12</AltitudeMeters>
            <DistanceMeters>NAN</DistanceMeters>
          </Trackpoint>
          <Trackpoint>
            <Time>2022-07-08T10:50:40.000Z</Time>
            <Position>
              <LatitudeDegrees>43.3875747956335544586181640625</LatitudeDegrees>
              <LongitudeDegrees>-1.66266960091888904571533203125</LongitudeDegrees>
            </Position>
            <AltitudeMeters>11.80000019073486328125</AltitudeMeters>
            <DistanceMeters>NAN</DistanceMeters>
          </Trackpoint>
          <Trackpoint>
            <Time>2022-07-08T10:50:41.000Z</Time>
            <Position>
              <LatitudeDegrees>43.3875459618866443634033203125</LatitudeDegrees>
              <LongitudeDegrees>-1.662657447159290313720703125</LongitudeDegrees>
            </Position>
            <AltitudeMeters>11.80000019073486328125</AltitudeMeters>
            <DistanceMeters>NAN</DistanceMeters>
          </Trackpoint>
          <Trackpoint>
            <Time>2022-07-08T10:50:45.000Z</Time>
            <Position>
              <LatitudeDegrees>43.3874447084963321685791015625</LatitudeDegrees>
              <LongitudeDegrees>-1.66261293925344944000244140625</LongitudeDegrees>
            </Position>
            <AltitudeMeters>11.6000003814697265625</AltitudeMeters>
            <DistanceMeters>NAN</DistanceMeters>
          </Trackpoint>
          <Trackpoint>
            <Time>2022-07-08T10:50:47.000Z</Time>
            <Position>
              <LatitudeDegrees>43.38741478510200977325439453125</LatitudeDegrees>
              <LongitudeDegrees>-1.66260187514126300811767578125</LongitudeDegrees>
            </Position>
            <AltitudeMeters>11.6000003814697265625</AltitudeMeters>
            <DistanceMeters>NAN</DistanceMeters>
          </Trackpoint>
          <Trackpoint>
            <Time>2022-07-08T10:50:52.000Z</Time>
            <Position>
              <LatitudeDegrees>43.387321494519710540771484375</LatitudeDegrees>
              <LongitudeDegrees>-1.6625181399285793304443359375</LongitudeDegrees>
            </Position>
            <AltitudeMeters>11.6000003814697265625</AltitudeMeters>
            <DistanceMeters>NAN</DistanceMeters>
          </Trackpoint>
          <Trackpoint>
            <Time>2022-07-08T10:50:54.000Z</Time>
            <Position>
              <LatitudeDegrees>43.38726122863590717315673828125</LatitudeDegrees>
              <LongitudeDegrees>-1.66248167864978313446044921875</LongitudeDegrees>
            </Position>
            <AltitudeMeters>11.3999996185302734375</AltitudeMeters>
            <DistanceMeters>NAN</DistanceMeters>
          </Trackpoint>
          <Trackpoint>
            <Time>2022-07-08T10:50:57.000Z</Time>
            <Position>
              <LatitudeDegrees>43.3872204087674617767333984375</LatitudeDegrees>
              <LongitudeDegrees>-1.662452258169651031494140625</LongitudeDegrees>
            </Position>
            <AltitudeMeters>11.3999996185302734375</AltitudeMeters>
            <DistanceMeters>NAN</DistanceMeters>
          </Trackpoint>
          <Trackpoint>
            <Time>2022-07-08T10:50:59.000Z</Time>
            <Position>
              <LatitudeDegrees>43.3871942572295665740966796875</LatitudeDegrees>
              <LongitudeDegrees>-1.66240506805479526519775390625</LongitudeDegrees>
            </Position>
            <AltitudeMeters>11.3999996185302734375</AltitudeMeters>
            <DistanceMeters>NAN</DistanceMeters>
          </Trackpoint>
          <Trackpoint>
            <Time>2022-07-08T10:51:01.000Z</Time>
            <Position>
              <LatitudeDegrees>43.387190066277980804443359375</LatitudeDegrees>
              <LongitudeDegrees>-1.66234019212424755096435546875</LongitudeDegrees>
            </Position>
            <AltitudeMeters>11.3999996185302734375</AltitudeMeters>
            <DistanceMeters>NAN</DistanceMeters>
          </Trackpoint>
          <Trackpoint>
            <Time>2022-07-08T10:51:02.000Z</Time>
            <Position>
              <LatitudeDegrees>43.387198112905025482177734375</LatitudeDegrees>
              <LongitudeDegrees>-1.6622978635132312774658203125</LongitudeDegrees>
            </Position>
            <AltitudeMeters>11.3999996185302734375</AltitudeMeters>
            <DistanceMeters>NAN</DistanceMeters>
          </Trackpoint>
          <Trackpoint>
            <Time>2022-07-08T10:51:09.000Z</Time>
            <Position>
              <LatitudeDegrees>43.3873149566352367401123046875</LatitudeDegrees>
              <LongitudeDegrees>-1.662003658711910247802734375</LongitudeDegrees>
            </Position>
            <AltitudeMeters>11.3999996185302734375</AltitudeMeters>
            <DistanceMeters>NAN</DistanceMeters>
          </Trackpoint>
          <Trackpoint>
            <Time>2022-07-08T10:51:17.000Z</Time>
            <Position>
              <LatitudeDegrees>43.3874775655567646026611328125</LatitudeDegrees>
              <LongitudeDegrees>-1.66165773756802082061767578125</LongitudeDegrees>
            </Position>
            <AltitudeMeters>11</AltitudeMeters>
            <DistanceMeters>NAN</DistanceMeters>
          </Trackpoint>
          <Trackpoint>
            <Time>2022-07-08T10:51:19.000Z</Time>
            <Position>
              <LatitudeDegrees>43.387515954673290252685546875</LatitudeDegrees>
              <LongitudeDegrees>-1.66157945059239864349365234375</LongitudeDegrees>
            </Position>
            <AltitudeMeters>10.80000019073486328125</AltitudeMeters>
            <DistanceMeters>NAN</DistanceMeters>
          </Trackpoint>
          <Trackpoint>
            <Time>2022-07-08T10:51:24.000Z</Time>
            <Position>
              <LatitudeDegrees>43.38760220445692539215087890625</LatitudeDegrees>
              <LongitudeDegrees>-1.66139706037938594818115234375</LongitudeDegrees>
            </Position>
            <AltitudeMeters>10.80000019073486328125</AltitudeMeters>
            <DistanceMeters>NAN</DistanceMeters>
          </Trackpoint>
          <Trackpoint>
            <Time>2022-07-08T10:51:26.000Z</Time>
            <Position>
              <LatitudeDegrees>43.38762315921485424041748046875</LatitudeDegrees>
              <LongitudeDegrees>-1.66133503429591655731201171875</LongitudeDegrees>
            </Position>
            <AltitudeMeters>10.6000003814697265625</AltitudeMeters>
            <DistanceMeters>NAN</DistanceMeters>
          </Trackpoint>
          <Trackpoint>
            <Time>2022-07-08T10:51:33.000Z</Time>
            <Position>
              <LatitudeDegrees>43.38770446367561817169189453125</LatitudeDegrees>
              <LongitudeDegrees>-1.6611213795840740203857421875</LongitudeDegrees>
            </Position>
            <AltitudeMeters>10.80000019073486328125</AltitudeMeters>
            <DistanceMeters>NAN</DistanceMeters>
          </Trackpoint>
          <Trackpoint>
            <Time>2022-07-08T10:51:36.000Z</Time>
            <Position>
              <LatitudeDegrees>43.3877146057784557342529296875</LatitudeDegrees>
              <LongitudeDegrees>-1.661055497825145721435546875</LongitudeDegrees>
            </Position>
            <AltitudeMeters>10.80000019073486328125</AltitudeMeters>
            <DistanceMeters>NAN</DistanceMeters>
          </Trackpoint>
          <Trackpoint>
            <Time>2022-07-08T10:51:37.000Z</Time>
            <Position>
              <LatitudeDegrees>43.38771100156009197235107421875</LatitudeDegrees>
              <LongitudeDegrees>-1.6610422544181346893310546875</LongitudeDegrees>
            </Position>
            <AltitudeMeters>10.80000019073486328125</AltitudeMeters>
            <DistanceMeters>NAN</DistanceMeters>
          </Trackpoint>
          <Trackpoint>
            <Time>2022-07-08T10:51:38.000Z</Time>
            <Position>
              <LatitudeDegrees>43.38770429603755474090576171875</LatitudeDegrees>
              <LongitudeDegrees>-1.66103295050561428070068359375</LongitudeDegrees>
            </Position>
            <AltitudeMeters>10.80000019073486328125</AltitudeMeters>
            <DistanceMeters>NAN</DistanceMeters>
          </Trackpoint>
          <Trackpoint>
            <Time>2022-07-08T10:51:40.000Z</Time>
            <Position>
              <LatitudeDegrees>43.38767227716743946075439453125</LatitudeDegrees>
              <LongitudeDegrees>-1.6610288433730602264404296875</LongitudeDegrees>
            </Position>
            <AltitudeMeters>10.80000019073486328125</AltitudeMeters>
            <DistanceMeters>NAN</DistanceMeters>
          </Trackpoint>
          <Trackpoint>
            <Time>2022-07-08T10:51:41.000Z</Time>
            <Position>
              <LatitudeDegrees>43.38766339235007762908935546875</LatitudeDegrees>
              <LongitudeDegrees>-1.66103630326688289642333984375</LongitudeDegrees>
            </Position>
            <AltitudeMeters>10.80000019073486328125</AltitudeMeters>
            <DistanceMeters>NAN</DistanceMeters>
          </Trackpoint>
          <Trackpoint>
            <Time>2022-07-08T10:51:43.000Z</Time>
            <Position>
              <LatitudeDegrees>43.38765366934239864349365234375</LatitudeDegrees>
              <LongitudeDegrees>-1.66104703210294246673583984375</LongitudeDegrees>
            </Position>
            <AltitudeMeters>10.80000019073486328125</AltitudeMeters>
            <DistanceMeters>NAN</DistanceMeters>
          </Trackpoint>
          <Trackpoint>
            <Time>2022-07-08T10:51:45.000Z</Time>
            <Position>
              <LatitudeDegrees>43.3876338042318820953369140625</LatitudeDegrees>
              <LongitudeDegrees>-1.66106161661446094512939453125</LongitudeDegrees>
            </Position>
            <AltitudeMeters>10.6000003814697265625</AltitudeMeters>
            <DistanceMeters>NAN</DistanceMeters>
          </Trackpoint>
          <Trackpoint>
            <Time>2022-07-08T10:51:47.000Z</Time>
            <Position>
              <LatitudeDegrees>43.3876334689557552337646484375</LatitudeDegrees>
              <LongitudeDegrees>-1.66106681339442729949951171875</LongitudeDegrees>
            </Position>
            <AltitudeMeters>10.6000003814697265625</AltitudeMeters>
            <DistanceMeters>NAN</DistanceMeters>
          </Trackpoint>
          <Trackpoint>
            <Time>2022-07-08T10:51:52.000Z</Time>
            <Position>
              <LatitudeDegrees>43.38765769265592098236083984375</LatitudeDegrees>
              <LongitudeDegrees>-1.66108324192464351654052734375</LongitudeDegrees>
            </Position>
            <AltitudeMeters>10.3999996185302734375</AltitudeMeters>
            <DistanceMeters>NAN</DistanceMeters>
          </Trackpoint>
          <Trackpoint>
            <Time>2022-07-08T10:51:54.000Z</Time>
            <Position>
              <LatitudeDegrees>43.38767613284289836883544921875</LatitudeDegrees>
              <LongitudeDegrees>-1.661066226661205291748046875</LongitudeDegrees>
            </Position>
            <AltitudeMeters>10.3999996185302734375</AltitudeMeters>
            <DistanceMeters>NAN</DistanceMeters>
          </Trackpoint>
          <Trackpoint>
            <Time>2022-07-08T10:51:57.000Z</Time>
            <Position>
              <LatitudeDegrees>43.38770848698914051055908203125</LatitudeDegrees>
              <LongitudeDegrees>-1.66105122305452823638916015625</LongitudeDegrees>
            </Position>
            <AltitudeMeters>10.3999996185302734375</AltitudeMeters>
            <DistanceMeters>NAN</DistanceMeters>
          </Trackpoint>
          <Trackpoint>
            <Time>2022-07-08T10:51:59.000Z</Time>
            <Position>
              <LatitudeDegrees>43.38772214949131011962890625</LatitudeDegrees>
              <LongitudeDegrees>-1.66103261522948741912841796875</LongitudeDegrees>
            </Position>
            <AltitudeMeters>10.3999996185302734375</AltitudeMeters>
            <DistanceMeters>NAN</DistanceMeters>
          </Trackpoint>
          <Trackpoint>
            <Time>2022-07-08T10:52:00.000Z</Time>
            <Position>
              <LatitudeDegrees>43.38772692717611789703369140625</LatitudeDegrees>
              <LongitudeDegrees>-1.66102255694568157196044921875</LongitudeDegrees>
            </Position>
            <AltitudeMeters>10.3999996185302734375</AltitudeMeters>
            <DistanceMeters>NAN</DistanceMeters>
          </Trackpoint>
          <Trackpoint>
            <Time>2022-07-08T10:52:03.000Z</Time>
            <Position>
              <LatitudeDegrees>43.38773396797478199005126953125</LatitudeDegrees>
              <LongitudeDegrees>-1.66096874512732028961181640625</LongitudeDegrees>
            </Position>
            <AltitudeMeters>10.3999996185302734375</AltitudeMeters>
            <DistanceMeters>NAN</DistanceMeters>
          </Trackpoint>
          <Trackpoint>
            <Time>2022-07-08T10:52:04.000Z</Time>
            <Position>
              <LatitudeDegrees>43.38773463852703571319580078125</LatitudeDegrees>
              <LongitudeDegrees>-1.66094158776104450225830078125</LongitudeDegrees>
            </Position>
            <AltitudeMeters>10.3999996185302734375</AltitudeMeters>
            <DistanceMeters>NAN</DistanceMeters>
          </Trackpoint>
          <Trackpoint>
            <Time>2022-07-08T10:52:09.000Z</Time>
            <Position>
              <LatitudeDegrees>43.3878007717430591583251953125</LatitudeDegrees>
              <LongitudeDegrees>-1.66077931411564350128173828125</LongitudeDegrees>
            </Position>
            <AltitudeMeters>10.3999996185302734375</AltitudeMeters>
            <DistanceMeters>NAN</DistanceMeters>
          </Trackpoint>
          <Trackpoint>
            <Time>2022-07-08T10:52:14.000Z</Time>
            <Position>
              <LatitudeDegrees>43.38786506094038486480712890625</LatitudeDegrees>
              <LongitudeDegrees>-1.6606238298118114471435546875</LongitudeDegrees>
            </Position>
            <AltitudeMeters>10.3999996185302734375</AltitudeMeters>
            <DistanceMeters>NAN</DistanceMeters>
          </Trackpoint>
          <Trackpoint>
            <Time>2022-07-08T10:52:16.000Z</Time>
            <Position>
              <LatitudeDegrees>43.387894816696643829345703125</LatitudeDegrees>
              <LongitudeDegrees>-1.6605738736689090728759765625</LongitudeDegrees>
            </Position>
            <AltitudeMeters>10.3999996185302734375</AltitudeMeters>
            <DistanceMeters>NAN</DistanceMeters>
          </Trackpoint>
          <Trackpoint>
            <Time>2022-07-08T10:52:19.000Z</Time>
            <Position>
              <LatitudeDegrees>43.38792758993804454803466796875</LatitudeDegrees>
              <LongitudeDegrees>-1.66050321422517299652099609375</LongitudeDegrees>
            </Position>
            <AltitudeMeters>10.19999980926513671875</AltitudeMeters>
            <DistanceMeters>NAN</DistanceMeters>
          </Trackpoint>
          <Trackpoint>
            <Time>2022-07-08T10:52:20.000Z</Time>
            <Position>
              <LatitudeDegrees>43.3879368938505649566650390625</LatitudeDegrees>
              <LongitudeDegrees>-1.66048393584787845611572265625</LongitudeDegrees>
            </Position>
            <AltitudeMeters>10.19999980926513671875</AltitudeMeters>
            <DistanceMeters>NAN</DistanceMeters>
          </Trackpoint>
          <Trackpoint>
            <Time>2022-07-08T10:52:24.000Z</Time>
            <Position>
              <LatitudeDegrees>43.38794343173503875732421875</LatitudeDegrees>
              <LongitudeDegrees>-1.66047169826924800872802734375</LongitudeDegrees>
            </Position>
            <AltitudeMeters>10.19999980926513671875</AltitudeMeters>
            <DistanceMeters>NAN</DistanceMeters>
          </Trackpoint>
          <Trackpoint>
            <Time>2022-07-08T10:55:52.000Z</Time>
            <Position>
              <LatitudeDegrees>43.38799179531633853912353515625</LatitudeDegrees>
              <LongitudeDegrees>-1.66065375320613384246826171875</LongitudeDegrees>
            </Position>
            <AltitudeMeters>9.3999996185302734375</AltitudeMeters>
            <DistanceMeters>NAN</DistanceMeters>
          </Trackpoint>
          <Trackpoint>
            <Time>2022-07-08T10:55:56.000Z</Time>
            <Position>
              <LatitudeDegrees>43.38794351555407047271728515625</LatitudeDegrees>
              <LongitudeDegrees>-1.6607113368809223175048828125</LongitudeDegrees>
            </Position>
            <AltitudeMeters>10</AltitudeMeters>
            <DistanceMeters>NAN</DistanceMeters>
          </Trackpoint>
          <Trackpoint>
            <Time>2022-07-08T10:55:58.000Z</Time>
            <Position>
              <LatitudeDegrees>43.3879204653203487396240234375</LatitudeDegrees>
              <LongitudeDegrees>-1.660746373236179351806640625</LongitudeDegrees>
            </Position>
            <AltitudeMeters>10.19999980926513671875</AltitudeMeters>
            <DistanceMeters>NAN</DistanceMeters>
          </Trackpoint>
          <Trackpoint>
            <Time>2022-07-08T10:56:03.000Z</Time>
            <Position>
              <LatitudeDegrees>43.3878718502819538116455078125</LatitudeDegrees>
              <LongitudeDegrees>-1.6608977504074573516845703125</LongitudeDegrees>
            </Position>
            <AltitudeMeters>10.3999996185302734375</AltitudeMeters>
            <DistanceMeters>NAN</DistanceMeters>
          </Trackpoint>
          <Trackpoint>
            <Time>2022-07-08T10:56:05.000Z</Time>
            <Position>
              <LatitudeDegrees>43.38783069513738155364990234375</LatitudeDegrees>
              <LongitudeDegrees>-1.66095483116805553436279296875</LongitudeDegrees>
            </Position>
            <AltitudeMeters>10.3999996185302734375</AltitudeMeters>
            <DistanceMeters>NAN</DistanceMeters>
          </Trackpoint>
          <Trackpoint>
            <Time>2022-07-08T10:56:08.000Z</Time>
            <Position>
              <LatitudeDegrees>43.38777923025190830230712890625</LatitudeDegrees>
              <LongitudeDegrees>-1.66103697381913661956787109375</LongitudeDegrees>
            </Position>
            <AltitudeMeters>10.3999996185302734375</AltitudeMeters>
            <DistanceMeters>NAN</DistanceMeters>
          </Trackpoint>
          <Trackpoint>
            <Time>2022-07-08T10:56:09.000Z</Time>
            <Position>
              <LatitudeDegrees>43.3877699263393878936767578125</LatitudeDegrees>
              <LongitudeDegrees>-1.6610610298812389373779296875</LongitudeDegrees>
            </Position>
            <AltitudeMeters>10.3999996185302734375</AltitudeMeters>
            <DistanceMeters>NAN</DistanceMeters>
          </Trackpoint>
          <Trackpoint>
            <Time>2022-07-08T10:56:16.000Z</Time>
            <Position>
              <LatitudeDegrees>43.3876921422779560089111328125</LatitudeDegrees>
              <LongitudeDegrees>-1.66123411618173122406005859375</LongitudeDegrees>
            </Position>
            <AltitudeMeters>10.19999980926513671875</AltitudeMeters>
            <DistanceMeters>NAN</DistanceMeters>
          </Trackpoint>
          <Trackpoint>
            <Time>2022-07-08T10:56:24.000Z</Time>
            <Position>
              <LatitudeDegrees>43.38757454417645931243896484375</LatitudeDegrees>
              <LongitudeDegrees>-1.6614340245723724365234375</LongitudeDegrees>
            </Position>
            <AltitudeMeters>10.6000003814697265625</AltitudeMeters>
            <DistanceMeters>NAN</DistanceMeters>
          </Trackpoint>
          <Trackpoint>
            <Time>2022-07-08T10:56:29.000Z</Time>
            <Position>
              <LatitudeDegrees>43.387542106211185455322265625</LatitudeDegrees>
              <LongitudeDegrees>-1.66154206730425357818603515625</LongitudeDegrees>
            </Position>
            <AltitudeMeters>10.6000003814697265625</AltitudeMeters>
            <DistanceMeters>NAN</DistanceMeters>
          </Trackpoint>
          <Trackpoint>
            <Time>2022-07-08T10:56:30.000Z</Time>
            <Position>
              <LatitudeDegrees>43.38754110038280487060546875</LatitudeDegrees>
              <LongitudeDegrees>-1.661565117537975311279296875</LongitudeDegrees>
            </Position>
            <AltitudeMeters>10.6000003814697265625</AltitudeMeters>
            <DistanceMeters>NAN</DistanceMeters>
          </Trackpoint>
          <Trackpoint>
            <Time>2022-07-08T10:56:37.000Z</Time>
            <Position>
              <LatitudeDegrees>43.38749458082020282745361328125</LatitudeDegrees>
              <LongitudeDegrees>-1.661792434751987457275390625</LongitudeDegrees>
            </Position>
            <AltitudeMeters>10.6000003814697265625</AltitudeMeters>
            <DistanceMeters>NAN</DistanceMeters>
          </Trackpoint>
          <Trackpoint>
            <Time>2022-07-08T10:56:45.000Z</Time>
            <Position>
              <LatitudeDegrees>43.3873783238232135772705078125</LatitudeDegrees>
              <LongitudeDegrees>-1.66203358210623264312744140625</LongitudeDegrees>
            </Position>
            <AltitudeMeters>10.6000003814697265625</AltitudeMeters>
            <DistanceMeters>NAN</DistanceMeters>
          </Trackpoint>
          <Trackpoint>
            <Time>2022-07-08T10:56:46.000Z</Time>
            <Position>
              <LatitudeDegrees>43.38736600242555141448974609375</LatitudeDegrees>
              <LongitudeDegrees>-1.6620671935379505157470703125</LongitudeDegrees>
            </Position>
            <AltitudeMeters>10.6000003814697265625</AltitudeMeters>
            <DistanceMeters>NAN</DistanceMeters>
          </Trackpoint>
          <Trackpoint>
            <Time>2022-07-08T10:56:49.000Z</Time>
            <Position>
              <LatitudeDegrees>43.3873176388442516326904296875</LatitudeDegrees>
              <LongitudeDegrees>-1.6621647588908672332763671875</LongitudeDegrees>
            </Position>
            <AltitudeMeters>10.3999996185302734375</AltitudeMeters>
            <DistanceMeters>NAN</DistanceMeters>
          </Trackpoint>
          <Trackpoint>
            <Time>2022-07-08T10:56:51.000Z</Time>
            <Position>
              <LatitudeDegrees>43.3872931636869907379150390625</LatitudeDegrees>
              <LongitudeDegrees>-1.6622237674891948699951171875</LongitudeDegrees>
            </Position>
            <AltitudeMeters>10.3999996185302734375</AltitudeMeters>
            <DistanceMeters>NAN</DistanceMeters>
          </Trackpoint>
          <Trackpoint>
            <Time>2022-07-08T10:56:55.000Z</Time>
            <Position>
              <LatitudeDegrees>43.38724228553473949432373046875</LatitudeDegrees>
              <LongitudeDegrees>-1.66235108859837055206298828125</LongitudeDegrees>
            </Position>
            <AltitudeMeters>10.3999996185302734375</AltitudeMeters>
            <DistanceMeters>NAN</DistanceMeters>
          </Trackpoint>
          <Trackpoint>
            <Time>2022-07-08T10:56:59.000Z</Time>
            <Position>
              <LatitudeDegrees>43.387222588062286376953125</LatitudeDegrees>
              <LongitudeDegrees>-1.66240422986447811126708984375</LongitudeDegrees>
            </Position>
            <AltitudeMeters>10.19999980926513671875</AltitudeMeters>
            <DistanceMeters>NAN</DistanceMeters>
          </Trackpoint>
          <Trackpoint>
            <Time>2022-07-08T10:57:00.000Z</Time>
            <Position>
              <LatitudeDegrees>43.38721848092973232269287109375</LatitudeDegrees>
              <LongitudeDegrees>-1.6624051518738269805908203125</LongitudeDegrees>
            </Position>
            <AltitudeMeters>10</AltitudeMeters>
            <DistanceMeters>NAN</DistanceMeters>
          </Trackpoint>
          <Trackpoint>
            <Time>2022-07-08T10:57:26.000Z</Time>
            <Position>
              <LatitudeDegrees>43.38722300715744495391845703125</LatitudeDegrees>
              <LongitudeDegrees>-1.6624192334711551666259765625</LongitudeDegrees>
            </Position>
            <AltitudeMeters>10.19999980926513671875</AltitudeMeters>
            <DistanceMeters>NAN</DistanceMeters>
          </Trackpoint>
          <Trackpoint>
            <Time>2022-07-08T10:57:27.000Z</Time>
            <Position>
              <LatitudeDegrees>43.38721194304525852203369140625</LatitudeDegrees>
              <LongitudeDegrees>-1.662445552647113800048828125</LongitudeDegrees>
            </Position>
            <AltitudeMeters>10.19999980926513671875</AltitudeMeters>
            <DistanceMeters>NAN</DistanceMeters>
          </Trackpoint>
          <Trackpoint>
            <Time>2022-07-08T10:57:28.000Z</Time>
            <Position>
              <LatitudeDegrees>43.3871966041624546051025390625</LatitudeDegrees>
              <LongitudeDegrees>-1.662478744983673095703125</LongitudeDegrees>
            </Position>
            <AltitudeMeters>10.19999980926513671875</AltitudeMeters>
            <DistanceMeters>NAN</DistanceMeters>
          </Trackpoint>
          <Trackpoint>
            <Time>2022-07-08T10:57:33.000Z</Time>
            <Position>
              <LatitudeDegrees>43.38714840821921825408935546875</LatitudeDegrees>
              <LongitudeDegrees>-1.662602126598358154296875</LongitudeDegrees>
            </Position>
            <AltitudeMeters>9.80000019073486328125</AltitudeMeters>
            <DistanceMeters>NAN</DistanceMeters>
          </Trackpoint>
          <Trackpoint>
            <Time>2022-07-08T10:57:40.000Z</Time>
            <Position>
              <LatitudeDegrees>43.387109600007534027099609375</LatitudeDegrees>
              <LongitudeDegrees>-1.6627260111272335052490234375</LongitudeDegrees>
            </Position>
            <AltitudeMeters>9.80000019073486328125</AltitudeMeters>
            <DistanceMeters>NAN</DistanceMeters>
          </Trackpoint>
          <Trackpoint>
            <Time>2022-07-08T10:57:41.000Z</Time>
            <Position>
              <LatitudeDegrees>43.38710255920886993408203125</LatitudeDegrees>
              <LongitudeDegrees>-1.66273179464042186737060546875</LongitudeDegrees>
            </Position>
            <AltitudeMeters>9.80000019073486328125</AltitudeMeters>
            <DistanceMeters>NAN</DistanceMeters>
          </Trackpoint>
          <Trackpoint>
            <Time>2022-07-08T10:57:45.000Z</Time>
            <Position>
              <LatitudeDegrees>43.3870648406445980072021484375</LatitudeDegrees>
              <LongitudeDegrees>-1.66275107301771640777587890625</LongitudeDegrees>
            </Position>
            <AltitudeMeters>9.80000019073486328125</AltitudeMeters>
            <DistanceMeters>NAN</DistanceMeters>
          </Trackpoint>
          <Trackpoint>
            <Time>2022-07-08T10:57:52.000Z</Time>
            <Position>
              <LatitudeDegrees>43.38701027445495128631591796875</LatitudeDegrees>
              <LongitudeDegrees>-1.6627239994704723358154296875</LongitudeDegrees>
            </Position>
            <AltitudeMeters>9.3999996185302734375</AltitudeMeters>
            <DistanceMeters>NAN</DistanceMeters>
          </Trackpoint>
          <Trackpoint>
            <Time>2022-07-08T10:57:53.000Z</Time>
            <Position>
              <LatitudeDegrees>43.38701362721621990203857421875</LatitudeDegrees>
              <LongitudeDegrees>-1.662721820175647735595703125</LongitudeDegrees>
            </Position>
            <AltitudeMeters>9.3999996185302734375</AltitudeMeters>
            <DistanceMeters>NAN</DistanceMeters>
          </Trackpoint>
          <Trackpoint>
            <Time>2022-07-08T10:57:54.000Z</Time>
            <Position>
              <LatitudeDegrees>43.38701614178717136383056640625</LatitudeDegrees>
              <LongitudeDegrees>-1.66272005997598171234130859375</LongitudeDegrees>
            </Position>
            <AltitudeMeters>9.3999996185302734375</AltitudeMeters>
            <DistanceMeters>NAN</DistanceMeters>
          </Trackpoint>
          <Trackpoint>
            <Time>2022-07-08T10:58:16.000Z</Time>
            <Position>
              <LatitudeDegrees>43.38704816065728664398193359375</LatitudeDegrees>
              <LongitudeDegrees>-1.662800945341587066650390625</LongitudeDegrees>
            </Position>
            <AltitudeMeters>9.19999980926513671875</AltitudeMeters>
            <DistanceMeters>NAN</DistanceMeters>
          </Trackpoint>
          <Trackpoint>
            <Time>2022-07-08T10:58:17.000Z</Time>
            <Position>
              <LatitudeDegrees>43.38704883120954036712646484375</LatitudeDegrees>
              <LongitudeDegrees>-1.66283053345978260040283203125</LongitudeDegrees>
            </Position>
            <AltitudeMeters>9.19999980926513671875</AltitudeMeters>
            <DistanceMeters>NAN</DistanceMeters>
          </Trackpoint>
          <Trackpoint>
            <Time>2022-07-08T10:58:22.000Z</Time>
            <Position>
              <LatitudeDegrees>43.38701195083558559417724609375</LatitudeDegrees>
              <LongitudeDegrees>-1.66302700527012348175048828125</LongitudeDegrees>
            </Position>
            <AltitudeMeters>9.6000003814697265625</AltitudeMeters>
            <DistanceMeters>NAN</DistanceMeters>
          </Trackpoint>
          <Trackpoint>
            <Time>2022-07-08T10:58:33.000Z</Time>
            <Position>
              <LatitudeDegrees>43.3869035728275775909423828125</LatitudeDegrees>
              <LongitudeDegrees>-1.66339782066643238067626953125</LongitudeDegrees>
            </Position>
            <AltitudeMeters>10.3999996185302734375</AltitudeMeters>
            <DistanceMeters>NAN</DistanceMeters>
          </Trackpoint>
          <Trackpoint>
            <Time>2022-07-08T10:58:38.000Z</Time>
            <Position>
              <LatitudeDegrees>43.38683945126831531524658203125</LatitudeDegrees>
              <LongitudeDegrees>-1.66355623863637447357177734375</LongitudeDegrees>
            </Position>
            <AltitudeMeters>10.80000019073486328125</AltitudeMeters>
            <DistanceMeters>NAN</DistanceMeters>
          </Trackpoint>
          <Trackpoint>
            <Time>2022-07-08T10:58:39.000Z</Time>
            <Position>
              <LatitudeDegrees>43.38682536967098712921142578125</LatitudeDegrees>
              <LongitudeDegrees>-1.66357886977493762969970703125</LongitudeDegrees>
            </Position>
            <AltitudeMeters>10.80000019073486328125</AltitudeMeters>
            <DistanceMeters>NAN</DistanceMeters>
          </Trackpoint>
          <Trackpoint>
            <Time>2022-07-08T10:58:40.000Z</Time>
            <Position>
              <LatitudeDegrees>43.38682536967098712921142578125</LatitudeDegrees>
              <LongitudeDegrees>-1.66357886977493762969970703125</LongitudeDegrees>
            </Position>
            <AltitudeMeters>10.6000003814697265625</AltitudeMeters>
            <DistanceMeters>NAN</DistanceMeters>
          </Trackpoint>
          <Trackpoint>
            <Time>2022-07-08T10:58:41.000Z</Time>
            <Position>
              <LatitudeDegrees>43.3867862261831760406494140625</LatitudeDegrees>
              <LongitudeDegrees>-1.66359546594321727752685546875</LongitudeDegrees>
            </Position>
            <AltitudeMeters>10.3999996185302734375</AltitudeMeters>
            <DistanceMeters>NAN</DistanceMeters>
          </Trackpoint>
          <Trackpoint>
            <Time>2022-07-08T10:58:44.000Z</Time>
            <Position>
              <LatitudeDegrees>43.386704586446285247802734375</LatitudeDegrees>
              <LongitudeDegrees>-1.6635749302804470062255859375</LongitudeDegrees>
            </Position>
            <AltitudeMeters>10.3999996185302734375</AltitudeMeters>
            <DistanceMeters>NAN</DistanceMeters>
          </Trackpoint>
          <Trackpoint>
            <Time>2022-07-08T10:58:46.000Z</Time>
            <Position>
              <LatitudeDegrees>43.386659659445285797119140625</LatitudeDegrees>
              <LongitudeDegrees>-1.66352958418428897857666015625</LongitudeDegrees>
            </Position>
            <AltitudeMeters>10.19999980926513671875</AltitudeMeters>
            <DistanceMeters>NAN</DistanceMeters>
          </Trackpoint>
          <Trackpoint>
            <Time>2022-07-08T10:58:50.000Z</Time>
            <Position>
              <LatitudeDegrees>43.3865721523761749267578125</LatitudeDegrees>
              <LongitudeDegrees>-1.66341877542436122894287109375</LongitudeDegrees>
            </Position>
            <AltitudeMeters>10.19999980926513671875</AltitudeMeters>
            <DistanceMeters>NAN</DistanceMeters>
          </Trackpoint>
          <Trackpoint>
            <Time>2022-07-08T10:58:51.000Z</Time>
            <Position>
              <LatitudeDegrees>43.3865461684763431549072265625</LatitudeDegrees>
              <LongitudeDegrees>-1.66339396499097347259521484375</LongitudeDegrees>
            </Position>
            <AltitudeMeters>10</AltitudeMeters>
            <DistanceMeters>NAN</DistanceMeters>
          </Trackpoint>
          <Trackpoint>
            <Time>2022-07-08T10:58:58.000Z</Time>
            <Position>
              <LatitudeDegrees>43.3863522112369537353515625</LatitudeDegrees>
              <LongitudeDegrees>-1.6633016802370548248291015625</LongitudeDegrees>
            </Position>
            <AltitudeMeters>9.80000019073486328125</AltitudeMeters>
            <DistanceMeters>NAN</DistanceMeters>
          </Trackpoint>
          <Trackpoint>
            <Time>2022-07-08T10:59:03.000Z</Time>
            <Position>
              <LatitudeDegrees>43.3862286619842052459716796875</LatitudeDegrees>
              <LongitudeDegrees>-1.66324543766677379608154296875</LongitudeDegrees>
            </Position>
            <AltitudeMeters>9.3999996185302734375</AltitudeMeters>
            <DistanceMeters>NAN</DistanceMeters>
          </Trackpoint>
          <Trackpoint>
            <Time>2022-07-08T10:59:06.000Z</Time>
            <Position>
              <LatitudeDegrees>43.3861644566059112548828125</LatitudeDegrees>
              <LongitudeDegrees>-1.66321023367345333099365234375</LongitudeDegrees>
            </Position>
            <AltitudeMeters>9.19999980926513671875</AltitudeMeters>
            <DistanceMeters>NAN</DistanceMeters>
          </Trackpoint>
          <Trackpoint>
            <Time>2022-07-08T10:59:13.000Z</Time>
            <Position>
              <LatitudeDegrees>43.38605054654181003570556640625</LatitudeDegrees>
              <LongitudeDegrees>-1.66311082430183887481689453125</LongitudeDegrees>
            </Position>
            <AltitudeMeters>9</AltitudeMeters>
            <DistanceMeters>NAN</DistanceMeters>
          </Trackpoint>
          <Trackpoint>
            <Time>2022-07-08T10:59:16.000Z</Time>
            <Position>
              <LatitudeDegrees>43.38605306111276149749755859375</LatitudeDegrees>
              <LongitudeDegrees>-1.663095653057098388671875</LongitudeDegrees>
            </Position>
            <AltitudeMeters>8.80000019073486328125</AltitudeMeters>
            <DistanceMeters>NAN</DistanceMeters>
          </Trackpoint>
          <Trackpoint>
            <Time>2022-07-08T10:59:20.000Z</Time>
            <Position>
              <LatitudeDegrees>43.3860720880329608917236328125</LatitudeDegrees>
              <LongitudeDegrees>-1.663024909794330596923828125</LongitudeDegrees>
            </Position>
            <AltitudeMeters>8.6000003814697265625</AltitudeMeters>
            <DistanceMeters>NAN</DistanceMeters>
          </Trackpoint>
          <Trackpoint>
            <Time>2022-07-08T10:59:21.000Z</Time>
            <Position>
              <LatitudeDegrees>43.38608742691576480865478515625</LatitudeDegrees>
              <LongitudeDegrees>-1.66298861615359783172607421875</LongitudeDegrees>
            </Position>
            <AltitudeMeters>8.3999996185302734375</AltitudeMeters>
            <DistanceMeters>NAN</DistanceMeters>
          </Trackpoint>
          <Trackpoint>
            <Time>2022-07-08T10:59:23.000Z</Time>
            <Position>
              <LatitudeDegrees>43.38611341081559658050537109375</LatitudeDegrees>
              <LongitudeDegrees>-1.66290831752121448516845703125</LongitudeDegrees>
            </Position>
            <AltitudeMeters>8.19999980926513671875</AltitudeMeters>
            <DistanceMeters>NAN</DistanceMeters>
          </Trackpoint>
          <Trackpoint>
            <Time>2022-07-08T10:59:27.000Z</Time>
            <Position>
              <LatitudeDegrees>43.38614626787602901458740234375</LatitudeDegrees>
              <LongitudeDegrees>-1.66275878436863422393798828125</LongitudeDegrees>
            </Position>
            <AltitudeMeters>9</AltitudeMeters>
            <DistanceMeters>NAN</DistanceMeters>
          </Trackpoint>
          <Trackpoint>
            <Time>2022-07-08T10:59:30.000Z</Time>
            <Position>
              <LatitudeDegrees>43.386144004762172698974609375</LatitudeDegrees>
              <LongitudeDegrees>-1.6626812517642974853515625</LongitudeDegrees>
            </Position>
            <AltitudeMeters>9.3999996185302734375</AltitudeMeters>
            <DistanceMeters>NAN</DistanceMeters>
          </Trackpoint>
          <Trackpoint>
            <Time>2022-07-08T10:59:31.000Z</Time>
            <Position>
              <LatitudeDegrees>43.3861314319074153900146484375</LatitudeDegrees>
              <LongitudeDegrees>-1.6626556031405925750732421875</LongitudeDegrees>
            </Position>
            <AltitudeMeters>9.3999996185302734375</AltitudeMeters>
            <DistanceMeters>NAN</DistanceMeters>
          </Trackpoint>
          <Trackpoint>
            <Time>2022-07-08T10:59:34.000Z</Time>
            <Position>
              <LatitudeDegrees>43.38607049547135829925537109375</LatitudeDegrees>
              <LongitudeDegrees>-1.66258938610553741455078125</LongitudeDegrees>
            </Position>
            <AltitudeMeters>9.6000003814697265625</AltitudeMeters>
            <DistanceMeters>NAN</DistanceMeters>
          </Trackpoint>
          <Trackpoint>
            <Time>2022-07-08T10:59:37.000Z</Time>
            <Position>
              <LatitudeDegrees>43.386027999222278594970703125</LatitudeDegrees>
              <LongitudeDegrees>-1.66250464506447315216064453125</LongitudeDegrees>
            </Position>
            <AltitudeMeters>9.3999996185302734375</AltitudeMeters>
            <DistanceMeters>NAN</DistanceMeters>
          </Trackpoint>
          <Trackpoint>
            <Time>2022-07-08T10:59:40.000Z</Time>
            <Position>
              <LatitudeDegrees>43.3859901130199432373046875</LatitudeDegrees>
              <LongitudeDegrees>-1.66240808553993701934814453125</LongitudeDegrees>
            </Position>
            <AltitudeMeters>9.19999980926513671875</AltitudeMeters>
            <DistanceMeters>NAN</DistanceMeters>
          </Trackpoint>
          <Trackpoint>
            <Time>2022-07-08T10:59:43.000Z</Time>
            <Position>
              <LatitudeDegrees>43.38595650158822536468505859375</LatitudeDegrees>
              <LongitudeDegrees>-1.66233122348785400390625</LongitudeDegrees>
            </Position>
            <AltitudeMeters>9.3999996185302734375</AltitudeMeters>
            <DistanceMeters>NAN</DistanceMeters>
          </Trackpoint>
          <Trackpoint>
            <Time>2022-07-08T10:59:45.000Z</Time>
            <Position>
              <LatitudeDegrees>43.38591978885233402252197265625</LatitudeDegrees>
              <LongitudeDegrees>-1.662321500480175018310546875</LongitudeDegrees>
            </Position>
            <AltitudeMeters>9.80000019073486328125</AltitudeMeters>
            <DistanceMeters>NAN</DistanceMeters>
          </Trackpoint>
          <Trackpoint>
            <Time>2022-07-08T10:59:46.000Z</Time>
            <Position>
              <LatitudeDegrees>43.3858987502753734588623046875</LatitudeDegrees>
              <LongitudeDegrees>-1.6623317264020442962646484375</LongitudeDegrees>
            </Position>
            <AltitudeMeters>9.80000019073486328125</AltitudeMeters>
            <DistanceMeters>NAN</DistanceMeters>
          </Trackpoint>
          <Trackpoint>
            <Time>2022-07-08T10:59:55.000Z</Time>
            <Position>
              <LatitudeDegrees>43.38572063483297824859619140625</LatitudeDegrees>
              <LongitudeDegrees>-1.66243675164878368377685546875</LongitudeDegrees>
            </Position>
            <AltitudeMeters>10</AltitudeMeters>
            <DistanceMeters>NAN</DistanceMeters>
          </Trackpoint>
          <Trackpoint>
            <Time>2022-07-08T11:00:01.000Z</Time>
            <Position>
              <LatitudeDegrees>43.38566699065268039703369140625</LatitudeDegrees>
              <LongitudeDegrees>-1.66250933893024921417236328125</LongitudeDegrees>
            </Position>
            <AltitudeMeters>9.80000019073486328125</AltitudeMeters>
            <DistanceMeters>NAN</DistanceMeters>
          </Trackpoint>
          <Trackpoint>
            <Time>2022-07-08T11:00:02.000Z</Time>
            <Position>
              <LatitudeDegrees>43.38566363789141178131103515625</LatitudeDegrees>
              <LongitudeDegrees>-1.66251688264310359954833984375</LongitudeDegrees>
            </Position>
            <AltitudeMeters>9.80000019073486328125</AltitudeMeters>
            <DistanceMeters>NAN</DistanceMeters>
          </Trackpoint>
          <Trackpoint>
            <Time>2022-07-08T11:00:07.000Z</Time>
            <Position>
              <LatitudeDegrees>43.3856172859668731689453125</LatitudeDegrees>
              <LongitudeDegrees>-1.66263154707849025726318359375</LongitudeDegrees>
            </Position>
            <AltitudeMeters>10.19999980926513671875</AltitudeMeters>
            <DistanceMeters>NAN</DistanceMeters>
          </Trackpoint>
          <Trackpoint>
            <Time>2022-07-08T11:00:14.000Z</Time>
            <Position>
              <LatitudeDegrees>43.38551175780594348907470703125</LatitudeDegrees>
              <LongitudeDegrees>-1.66288845241069793701171875</LongitudeDegrees>
            </Position>
            <AltitudeMeters>10.19999980926513671875</AltitudeMeters>
            <DistanceMeters>NAN</DistanceMeters>
          </Trackpoint>
          <Trackpoint>
            <Time>2022-07-08T11:00:21.000Z</Time>
            <Position>
              <LatitudeDegrees>43.38541008532047271728515625</LatitudeDegrees>
              <LongitudeDegrees>-1.6631474532186985015869140625</LongitudeDegrees>
            </Position>
            <AltitudeMeters>10.19999980926513671875</AltitudeMeters>
            <DistanceMeters>NAN</DistanceMeters>
          </Trackpoint>
          <Trackpoint>
            <Time>2022-07-08T11:00:28.000Z</Time>
            <Position>
              <LatitudeDegrees>43.38531847111880779266357421875</LatitudeDegrees>
              <LongitudeDegrees>-1.66332657448947429656982421875</LongitudeDegrees>
            </Position>
            <AltitudeMeters>10</AltitudeMeters>
            <DistanceMeters>NAN</DistanceMeters>
          </Trackpoint>
          <Trackpoint>
            <Time>2022-07-08T11:00:31.000Z</Time>
            <Position>
              <LatitudeDegrees>43.38530204258859157562255859375</LatitudeDegrees>
              <LongitudeDegrees>-1.663369573652744293212890625</LongitudeDegrees>
            </Position>
            <AltitudeMeters>10</AltitudeMeters>
            <DistanceMeters>NAN</DistanceMeters>
          </Trackpoint>
          <Trackpoint>
            <Time>2022-07-08T11:00:33.000Z</Time>
            <Position>
              <LatitudeDegrees>43.3852815069258213043212890625</LatitudeDegrees>
              <LongitudeDegrees>-1.66340871714055538177490234375</LongitudeDegrees>
            </Position>
            <AltitudeMeters>10</AltitudeMeters>
            <DistanceMeters>NAN</DistanceMeters>
          </Trackpoint>
          <Trackpoint>
            <Time>2022-07-08T11:00:38.000Z</Time>
            <Position>
              <LatitudeDegrees>43.38522844947874546051025390625</LatitudeDegrees>
              <LongitudeDegrees>-1.66355808265507221221923828125</LongitudeDegrees>
            </Position>
            <AltitudeMeters>10.6000003814697265625</AltitudeMeters>
            <DistanceMeters>NAN</DistanceMeters>
          </Trackpoint>
          <Trackpoint>
            <Time>2022-07-08T11:00:39.000Z</Time>
            <Position>
              <LatitudeDegrees>43.38522057048976421356201171875</LatitudeDegrees>
              <LongitudeDegrees>-1.66358406655490398406982421875</LongitudeDegrees>
            </Position>
            <AltitudeMeters>10.80000019073486328125</AltitudeMeters>
            <DistanceMeters>NAN</DistanceMeters>
          </Trackpoint>
          <Trackpoint>
            <Time>2022-07-08T11:00:46.000Z</Time>
            <Position>
              <LatitudeDegrees>43.38510137982666492462158203125</LatitudeDegrees>
              <LongitudeDegrees>-1.6638471744954586029052734375</LongitudeDegrees>
            </Position>
            <AltitudeMeters>11.19999980926513671875</AltitudeMeters>
            <DistanceMeters>NAN</DistanceMeters>
          </Trackpoint>
          <Trackpoint>
            <Time>2022-07-08T11:00:54.000Z</Time>
            <Position>
              <LatitudeDegrees>43.38498135097324848175048828125</LatitudeDegrees>
              <LongitudeDegrees>-1.66413257829844951629638671875</LongitudeDegrees>
            </Position>
            <AltitudeMeters>11</AltitudeMeters>
            <DistanceMeters>NAN</DistanceMeters>
          </Trackpoint>
          <Trackpoint>
            <Time>2022-07-08T11:00:58.000Z</Time>
            <Position>
              <LatitudeDegrees>43.3849277906119823455810546875</LatitudeDegrees>
              <LongitudeDegrees>-1.6642796806991100311279296875</LongitudeDegrees>
            </Position>
            <AltitudeMeters>10.80000019073486328125</AltitudeMeters>
            <DistanceMeters>NAN</DistanceMeters>
          </Trackpoint>
          <Trackpoint>
            <Time>2022-07-08T11:01:03.000Z</Time>
            <Position>
              <LatitudeDegrees>43.38484321720898151397705078125</LatitudeDegrees>
              <LongitudeDegrees>-1.664475984871387481689453125</LongitudeDegrees>
            </Position>
            <AltitudeMeters>11</AltitudeMeters>
            <DistanceMeters>NAN</DistanceMeters>
          </Trackpoint>
          <Trackpoint>
            <Time>2022-07-08T11:01:04.000Z</Time>
            <Position>
              <LatitudeDegrees>43.3848298899829387664794921875</LatitudeDegrees>
              <LongitudeDegrees>-1.66451252996921539306640625</LongitudeDegrees>
            </Position>
            <AltitudeMeters>11</AltitudeMeters>
            <DistanceMeters>NAN</DistanceMeters>
          </Trackpoint>
          <Trackpoint>
            <Time>2022-07-08T11:01:12.000Z</Time>
            <Position>
              <LatitudeDegrees>43.3846924267709255218505859375</LatitudeDegrees>
              <LongitudeDegrees>-1.6648452915251255035400390625</LongitudeDegrees>
            </Position>
            <AltitudeMeters>10.6000003814697265625</AltitudeMeters>
            <DistanceMeters>NAN</DistanceMeters>
          </Trackpoint>
          <Trackpoint>
            <Time>2022-07-08T11:01:13.000Z</Time>
            <Position>
              <LatitudeDegrees>43.3846706338226795196533203125</LatitudeDegrees>
              <LongitudeDegrees>-1.6648858599364757537841796875</LongitudeDegrees>
            </Position>
            <AltitudeMeters>10.6000003814697265625</AltitudeMeters>
            <DistanceMeters>NAN</DistanceMeters>
          </Trackpoint>
          <Trackpoint>
            <Time>2022-07-08T11:01:18.000Z</Time>
            <Position>
              <LatitudeDegrees>43.384552784264087677001953125</LatitudeDegrees>
              <LongitudeDegrees>-1.6651260852813720703125</LongitudeDegrees>
            </Position>
            <AltitudeMeters>10.6000003814697265625</AltitudeMeters>
            <DistanceMeters>NAN</DistanceMeters>
          </Trackpoint>
          <Trackpoint>
            <Time>2022-07-08T11:01:20.000Z</Time>
            <Position>
              <LatitudeDegrees>43.38450458832085132598876953125</LatitudeDegrees>
              <LongitudeDegrees>-1.66522457264363765716552734375</LongitudeDegrees>
            </Position>
            <AltitudeMeters>10.6000003814697265625</AltitudeMeters>
            <DistanceMeters>NAN</DistanceMeters>
          </Trackpoint>
          <Trackpoint>
            <Time>2022-07-08T11:01:23.000Z</Time>
            <Position>
              <LatitudeDegrees>43.3844934403896331787109375</LatitudeDegrees>
              <LongitudeDegrees>-1.66531928814947605133056640625</LongitudeDegrees>
            </Position>
            <AltitudeMeters>10.3999996185302734375</AltitudeMeters>
            <DistanceMeters>NAN</DistanceMeters>
          </Trackpoint>
          <Trackpoint>
            <Time>2022-07-08T11:01:28.000Z</Time>
            <Position>
              <LatitudeDegrees>43.38440291583538055419921875</LatitudeDegrees>
              <LongitudeDegrees>-1.66553989984095096588134765625</LongitudeDegrees>
            </Position>
            <AltitudeMeters>10.3999996185302734375</AltitudeMeters>
            <DistanceMeters>NAN</DistanceMeters>
          </Trackpoint>
          <Trackpoint>
            <Time>2022-07-08T11:01:33.000Z</Time>
            <Position>
              <LatitudeDegrees>43.38440132327377796173095703125</LatitudeDegrees>
              <LongitudeDegrees>-1.66579588316380977630615234375</LongitudeDegrees>
            </Position>
            <AltitudeMeters>10.3999996185302734375</AltitudeMeters>
            <DistanceMeters>NAN</DistanceMeters>
          </Trackpoint>
          <Trackpoint>
            <Time>2022-07-08T11:01:36.000Z</Time>
            <Position>
              <LatitudeDegrees>43.38447340764105319976806640625</LatitudeDegrees>
              <LongitudeDegrees>-1.665919683873653411865234375</LongitudeDegrees>
            </Position>
            <AltitudeMeters>10.6000003814697265625</AltitudeMeters>
            <DistanceMeters>NAN</DistanceMeters>
          </Trackpoint>
          <Trackpoint>
            <Time>2022-07-08T11:01:38.000Z</Time>
            <Position>
              <LatitudeDegrees>43.38453426025807857513427734375</LatitudeDegrees>
              <LongitudeDegrees>-1.665983386337757110595703125</LongitudeDegrees>
            </Position>
            <AltitudeMeters>10.6000003814697265625</AltitudeMeters>
            <DistanceMeters>NAN</DistanceMeters>
          </Trackpoint>
          <Trackpoint>
            <Time>2022-07-08T11:01:42.000Z</Time>
            <Position>
              <LatitudeDegrees>43.38464456610381603240966796875</LatitudeDegrees>
              <LongitudeDegrees>-1.66611514985561370849609375</LongitudeDegrees>
            </Position>
            <AltitudeMeters>10.6000003814697265625</AltitudeMeters>
            <DistanceMeters>NAN</DistanceMeters>
          </Trackpoint>
          <Trackpoint>
            <Time>2022-07-08T11:01:44.000Z</Time>
            <Position>
              <LatitudeDegrees>43.38468278758227825164794921875</LatitudeDegrees>
              <LongitudeDegrees>-1.66616837494075298309326171875</LongitudeDegrees>
            </Position>
            <AltitudeMeters>10.6000003814697265625</AltitudeMeters>
            <DistanceMeters>NAN</DistanceMeters>
          </Trackpoint>
          <Trackpoint>
            <Time>2022-07-08T11:01:48.000Z</Time>
            <Position>
              <LatitudeDegrees>43.3847356773912906646728515625</LatitudeDegrees>
              <LongitudeDegrees>-1.66625571437180042266845703125</LongitudeDegrees>
            </Position>
            <AltitudeMeters>10</AltitudeMeters>
            <DistanceMeters>NAN</DistanceMeters>
          </Trackpoint>
          <Trackpoint>
            <Time>2022-07-08T11:01:49.000Z</Time>
            <Position>
              <LatitudeDegrees>43.384744562208652496337890625</LatitudeDegrees>
              <LongitudeDegrees>-1.66627700440585613250732421875</LongitudeDegrees>
            </Position>
            <AltitudeMeters>9.80000019073486328125</AltitudeMeters>
            <DistanceMeters>NAN</DistanceMeters>
          </Trackpoint>
          <Trackpoint>
            <Time>2022-07-08T11:01:52.000Z</Time>
            <Position>
              <LatitudeDegrees>43.3847651816904544830322265625</LatitudeDegrees>
              <LongitudeDegrees>-1.6663922555744647979736328125</LongitudeDegrees>
            </Position>
            <AltitudeMeters>10</AltitudeMeters>
            <DistanceMeters>NAN</DistanceMeters>
          </Trackpoint>
          <Trackpoint>
            <Time>2022-07-08T11:01:54.000Z</Time>
            <Position>
              <LatitudeDegrees>43.3847750723361968994140625</LatitudeDegrees>
              <LongitudeDegrees>-1.6664764098823070526123046875</LongitudeDegrees>
            </Position>
            <AltitudeMeters>10</AltitudeMeters>
            <DistanceMeters>NAN</DistanceMeters>
          </Trackpoint>
          <Trackpoint>
            <Time>2022-07-08T11:02:00.000Z</Time>
            <Position>
              <LatitudeDegrees>43.3848647587001323699951171875</LatitudeDegrees>
              <LongitudeDegrees>-1.6667023859918117523193359375</LongitudeDegrees>
            </Position>
            <AltitudeMeters>10.3999996185302734375</AltitudeMeters>
            <DistanceMeters>NAN</DistanceMeters>
          </Trackpoint>
          <Trackpoint>
            <Time>2022-07-08T11:02:04.000Z</Time>
            <Position>
              <LatitudeDegrees>43.38494396768510341644287109375</LatitudeDegrees>
              <LongitudeDegrees>-1.6668287850916385650634765625</LongitudeDegrees>
            </Position>
            <AltitudeMeters>10.3999996185302734375</AltitudeMeters>
            <DistanceMeters>NAN</DistanceMeters>
          </Trackpoint>
          <Trackpoint>
            <Time>2022-07-08T11:02:06.000Z</Time>
            <Position>
              <LatitudeDegrees>43.38500398211181163787841796875</LatitudeDegrees>
              <LongitudeDegrees>-1.66687019169330596923828125</LongitudeDegrees>
            </Position>
            <AltitudeMeters>10.3999996185302734375</AltitudeMeters>
            <DistanceMeters>NAN</DistanceMeters>
          </Trackpoint>
          <Trackpoint>
            <Time>2022-07-08T11:02:14.000Z</Time>
            <Position>
              <LatitudeDegrees>43.38526952080428600311279296875</LatitudeDegrees>
              <LongitudeDegrees>-1.66705392301082611083984375</LongitudeDegrees>
            </Position>
            <AltitudeMeters>10.3999996185302734375</AltitudeMeters>
            <DistanceMeters>NAN</DistanceMeters>
          </Trackpoint>
          <Trackpoint>
            <Time>2022-07-08T11:02:20.000Z</Time>
            <Position>
              <LatitudeDegrees>43.3854592032730579376220703125</LatitudeDegrees>
              <LongitudeDegrees>-1.66721359826624393463134765625</LongitudeDegrees>
            </Position>
            <AltitudeMeters>10.6000003814697265625</AltitudeMeters>
            <DistanceMeters>NAN</DistanceMeters>
          </Trackpoint>
          <Trackpoint>
            <Time>2022-07-08T11:02:21.000Z</Time>
            <Position>
              <LatitudeDegrees>43.3854883722960948944091796875</LatitudeDegrees>
              <LongitudeDegrees>-1.6672465391457080841064453125</LongitudeDegrees>
            </Position>
            <AltitudeMeters>10.6000003814697265625</AltitudeMeters>
            <DistanceMeters>NAN</DistanceMeters>
          </Trackpoint>
          <Trackpoint>
            <Time>2022-07-08T11:02:29.000Z</Time>
            <Position>
              <LatitudeDegrees>43.38571962900459766387939453125</LatitudeDegrees>
              <LongitudeDegrees>-1.6674839146435260772705078125</LongitudeDegrees>
            </Position>
            <AltitudeMeters>11.19999980926513671875</AltitudeMeters>
            <DistanceMeters>NAN</DistanceMeters>
          </Trackpoint>
          <Trackpoint>
            <Time>2022-07-08T11:02:31.000Z</Time>
            <Position>
              <LatitudeDegrees>43.38576740585267543792724609375</LatitudeDegrees>
              <LongitudeDegrees>-1.66755415499210357666015625</LongitudeDegrees>
            </Position>
            <AltitudeMeters>11.6000003814697265625</AltitudeMeters>
            <DistanceMeters>NAN</DistanceMeters>
          </Trackpoint>
          <Trackpoint>
            <Time>2022-07-08T11:02:35.000Z</Time>
            <Position>
              <LatitudeDegrees>43.38586681522428989410400390625</LatitudeDegrees>
              <LongitudeDegrees>-1.6676897741854190826416015625</LongitudeDegrees>
            </Position>
            <AltitudeMeters>11.3999996185302734375</AltitudeMeters>
            <DistanceMeters>NAN</DistanceMeters>
          </Trackpoint>
          <Trackpoint>
            <Time>2022-07-08T11:02:44.000Z</Time>
            <Position>
              <LatitudeDegrees>43.386096060276031494140625</LatitudeDegrees>
              <LongitudeDegrees>-1.667970232665538787841796875</LongitudeDegrees>
            </Position>
            <AltitudeMeters>11.19999980926513671875</AltitudeMeters>
            <DistanceMeters>NAN</DistanceMeters>
          </Trackpoint>
          <Trackpoint>
            <Time>2022-07-08T11:02:51.000Z</Time>
            <Position>
              <LatitudeDegrees>43.38624400086700916290283203125</LatitudeDegrees>
              <LongitudeDegrees>-1.66814683936536312103271484375</LongitudeDegrees>
            </Position>
            <AltitudeMeters>11.3999996185302734375</AltitudeMeters>
            <DistanceMeters>NAN</DistanceMeters>
          </Trackpoint>
          <Trackpoint>
            <Time>2022-07-08T11:03:00.000Z</Time>
            <Position>
              <LatitudeDegrees>43.3864469267427921295166015625</LatitudeDegrees>
              <LongitudeDegrees>-1.66840097866952419281005859375</LongitudeDegrees>
            </Position>
            <AltitudeMeters>11.3999996185302734375</AltitudeMeters>
            <DistanceMeters>NAN</DistanceMeters>
          </Trackpoint>
          <Trackpoint>
            <Time>2022-07-08T11:03:06.000Z</Time>
            <Position>
              <LatitudeDegrees>43.38654776103794574737548828125</LatitudeDegrees>
              <LongitudeDegrees>-1.66858437471091747283935546875</LongitudeDegrees>
            </Position>
            <AltitudeMeters>11.6000003814697265625</AltitudeMeters>
            <DistanceMeters>NAN</DistanceMeters>
          </Trackpoint>
          <Trackpoint>
            <Time>2022-07-08T11:03:07.000Z</Time>
            <Position>
              <LatitudeDegrees>43.3865639381110668182373046875</LatitudeDegrees>
              <LongitudeDegrees>-1.66861287318170070648193359375</LongitudeDegrees>
            </Position>
            <AltitudeMeters>11.6000003814697265625</AltitudeMeters>
            <DistanceMeters>NAN</DistanceMeters>
          </Trackpoint>
          <Trackpoint>
            <Time>2022-07-08T11:03:14.000Z</Time>
            <Position>
              <LatitudeDegrees>43.3866990543901920318603515625</LatitudeDegrees>
              <LongitudeDegrees>-1.66881923563778400421142578125</LongitudeDegrees>
            </Position>
            <AltitudeMeters>12.3999996185302734375</AltitudeMeters>
            <DistanceMeters>NAN</DistanceMeters>
          </Trackpoint>
          <Trackpoint>
            <Time>2022-07-08T11:03:22.000Z</Time>
            <Position>
              <LatitudeDegrees>43.386889994144439697265625</LatitudeDegrees>
              <LongitudeDegrees>-1.66905392892658710479736328125</LongitudeDegrees>
            </Position>
            <AltitudeMeters>12.80000019073486328125</AltitudeMeters>
            <DistanceMeters>NAN</DistanceMeters>
          </Trackpoint>
          <Trackpoint>
            <Time>2022-07-08T11:03:24.000Z</Time>
            <Position>
              <LatitudeDegrees>43.38692712597548961639404296875</LatitudeDegrees>
              <LongitudeDegrees>-1.66911042295396327972412109375</LongitudeDegrees>
            </Position>
            <AltitudeMeters>13.19999980926513671875</AltitudeMeters>
            <DistanceMeters>NAN</DistanceMeters>
          </Trackpoint>
          <Trackpoint>
            <Time>2022-07-08T11:03:30.000Z</Time>
            <Position>
              <LatitudeDegrees>43.3870661817491054534912109375</LatitudeDegrees>
              <LongitudeDegrees>-1.66926682926714420318603515625</LongitudeDegrees>
            </Position>
            <AltitudeMeters>13</AltitudeMeters>
            <DistanceMeters>NAN</DistanceMeters>
          </Trackpoint>
          <Trackpoint>
            <Time>2022-07-08T11:03:34.000Z</Time>
            <Position>
              <LatitudeDegrees>43.38713348843157291412353515625</LatitudeDegrees>
              <LongitudeDegrees>-1.66937780566513538360595703125</LongitudeDegrees>
            </Position>
            <AltitudeMeters>13.19999980926513671875</AltitudeMeters>
            <DistanceMeters>NAN</DistanceMeters>
          </Trackpoint>
          <Trackpoint>
            <Time>2022-07-08T11:03:40.000Z</Time>
            <Position>
              <LatitudeDegrees>43.38727287948131561279296875</LatitudeDegrees>
              <LongitudeDegrees>-1.6695213876664638519287109375</LongitudeDegrees>
            </Position>
            <AltitudeMeters>13.19999980926513671875</AltitudeMeters>
            <DistanceMeters>NAN</DistanceMeters>
          </Trackpoint>
          <Trackpoint>
            <Time>2022-07-08T11:03:43.000Z</Time>
            <Position>
              <LatitudeDegrees>43.38734203018248081207275390625</LatitudeDegrees>
              <LongitudeDegrees>-1.6696085594594478607177734375</LongitudeDegrees>
            </Position>
            <AltitudeMeters>13.19999980926513671875</AltitudeMeters>
            <DistanceMeters>NAN</DistanceMeters>
          </Trackpoint>
          <Trackpoint>
            <Time>2022-07-08T11:03:51.000Z</Time>
            <Position>
              <LatitudeDegrees>43.38745753280818462371826171875</LatitudeDegrees>
              <LongitudeDegrees>-1.6698910295963287353515625</LongitudeDegrees>
            </Position>
            <AltitudeMeters>13.19999980926513671875</AltitudeMeters>
            <DistanceMeters>NAN</DistanceMeters>
          </Trackpoint>
          <Trackpoint>
            <Time>2022-07-08T11:03:57.000Z</Time>
            <Position>
              <LatitudeDegrees>43.3875452913343906402587890625</LatitudeDegrees>
              <LongitudeDegrees>-1.6700921952724456787109375</LongitudeDegrees>
            </Position>
            <AltitudeMeters>13.6000003814697265625</AltitudeMeters>
            <DistanceMeters>NAN</DistanceMeters>
          </Trackpoint>
          <Trackpoint>
            <Time>2022-07-08T11:04:01.000Z</Time>
            <Position>
              <LatitudeDegrees>43.3876039646565914154052734375</LatitudeDegrees>
              <LongitudeDegrees>-1.67022337205708026885986328125</LongitudeDegrees>
            </Position>
            <AltitudeMeters>13.80000019073486328125</AltitudeMeters>
            <DistanceMeters>NAN</DistanceMeters>
          </Trackpoint>
          <Trackpoint>
            <Time>2022-07-08T11:04:10.000Z</Time>
            <Position>
              <LatitudeDegrees>43.387713767588138580322265625</LatitudeDegrees>
              <LongitudeDegrees>-1.67047508060932159423828125</LongitudeDegrees>
            </Position>
            <AltitudeMeters>14.3999996185302734375</AltitudeMeters>
            <DistanceMeters>NAN</DistanceMeters>
          </Trackpoint>
          <Trackpoint>
            <Time>2022-07-08T11:04:15.000Z</Time>
            <Position>
              <LatitudeDegrees>43.3877699263393878936767578125</LatitudeDegrees>
              <LongitudeDegrees>-1.67056820355355739593505859375</LongitudeDegrees>
            </Position>
            <AltitudeMeters>15</AltitudeMeters>
            <DistanceMeters>NAN</DistanceMeters>
          </Trackpoint>
          <Trackpoint>
            <Time>2022-07-08T11:04:25.000Z</Time>
            <Position>
              <LatitudeDegrees>43.38790361769497394561767578125</LatitudeDegrees>
              <LongitudeDegrees>-1.67076953686773777008056640625</LongitudeDegrees>
            </Position>
            <AltitudeMeters>15.80000019073486328125</AltitudeMeters>
            <DistanceMeters>NAN</DistanceMeters>
          </Trackpoint>
          <Trackpoint>
            <Time>2022-07-08T11:04:26.000Z</Time>
            <Position>
              <LatitudeDegrees>43.38791468180716037750244140625</LatitudeDegrees>
              <LongitudeDegrees>-1.67078261263668537139892578125</LongitudeDegrees>
            </Position>
            <AltitudeMeters>16</AltitudeMeters>
            <DistanceMeters>NAN</DistanceMeters>
          </Trackpoint>
          <Trackpoint>
            <Time>2022-07-08T11:04:31.000Z</Time>
            <Position>
              <LatitudeDegrees>43.38797830045223236083984375</LatitudeDegrees>
              <LongitudeDegrees>-1.6708748973906040191650390625</LongitudeDegrees>
            </Position>
            <AltitudeMeters>16.799999237060546875</AltitudeMeters>
            <DistanceMeters>NAN</DistanceMeters>
          </Trackpoint>
          <Trackpoint>
            <Time>2022-07-08T11:04:36.000Z</Time>
            <Position>
              <LatitudeDegrees>43.38804426603019237518310546875</LatitudeDegrees>
              <LongitudeDegrees>-1.67096416465938091278076171875</LongitudeDegrees>
            </Position>
            <AltitudeMeters>17</AltitudeMeters>
            <DistanceMeters>NAN</DistanceMeters>
          </Trackpoint>
          <Trackpoint>
            <Time>2022-07-08T11:04:40.000Z</Time>
            <Position>
              <LatitudeDegrees>43.3880927972495555877685546875</LatitudeDegrees>
              <LongitudeDegrees>-1.6710256040096282958984375</LongitudeDegrees>
            </Position>
            <AltitudeMeters>17.3999996185302734375</AltitudeMeters>
            <DistanceMeters>NAN</DistanceMeters>
          </Trackpoint>
          <Trackpoint>
            <Time>2022-07-08T11:04:46.000Z</Time>
            <Position>
              <LatitudeDegrees>43.3881605230271816253662109375</LatitudeDegrees>
              <LongitudeDegrees>-1.6711327247321605682373046875</LongitudeDegrees>
            </Position>
            <AltitudeMeters>18.200000762939453125</AltitudeMeters>
            <DistanceMeters>NAN</DistanceMeters>
          </Trackpoint>
          <Trackpoint>
            <Time>2022-07-08T11:04:49.000Z</Time>
            <Position>
              <LatitudeDegrees>43.3881870098412036895751953125</LatitudeDegrees>
              <LongitudeDegrees>-1.67120271362364292144775390625</LongitudeDegrees>
            </Position>
            <AltitudeMeters>18.3999996185302734375</AltitudeMeters>
            <DistanceMeters>NAN</DistanceMeters>
          </Trackpoint>
          <Trackpoint>
            <Time>2022-07-08T11:04:55.000Z</Time>
            <Position>
              <LatitudeDegrees>43.3882366307079792022705078125</LatitudeDegrees>
              <LongitudeDegrees>-1.671359874308109283447265625</LongitudeDegrees>
            </Position>
            <AltitudeMeters>19.200000762939453125</AltitudeMeters>
            <DistanceMeters>NAN</DistanceMeters>
          </Trackpoint>
          <Trackpoint>
            <Time>2022-07-08T11:04:57.000Z</Time>
            <Position>
              <LatitudeDegrees>43.388264290988445281982421875</LatitudeDegrees>
              <LongitudeDegrees>-1.67141628451645374298095703125</LongitudeDegrees>
            </Position>
            <AltitudeMeters>19.3999996185302734375</AltitudeMeters>
            <DistanceMeters>NAN</DistanceMeters>
          </Trackpoint>
          <Trackpoint>
            <Time>2022-07-08T11:05:05.000Z</Time>
            <Position>
              <LatitudeDegrees>43.38833511807024478912353515625</LatitudeDegrees>
              <LongitudeDegrees>-1.67160085402429103851318359375</LongitudeDegrees>
            </Position>
            <AltitudeMeters>20.200000762939453125</AltitudeMeters>
            <DistanceMeters>NAN</DistanceMeters>
          </Trackpoint>
          <Trackpoint>
            <Time>2022-07-08T11:05:08.000Z</Time>
            <Position>
              <LatitudeDegrees>43.3883647061884403228759765625</LatitudeDegrees>
              <LongitudeDegrees>-1.67165927588939666748046875</LongitudeDegrees>
            </Position>
            <AltitudeMeters>20.6000003814697265625</AltitudeMeters>
            <DistanceMeters>NAN</DistanceMeters>
          </Trackpoint>
          <Trackpoint>
            <Time>2022-07-08T11:05:12.000Z</Time>
            <Position>
              <LatitudeDegrees>43.38839395903050899505615234375</LatitudeDegrees>
              <LongitudeDegrees>-1.6717409156262874603271484375</LongitudeDegrees>
            </Position>
            <AltitudeMeters>21.200000762939453125</AltitudeMeters>
            <DistanceMeters>NAN</DistanceMeters>
          </Trackpoint>
          <Trackpoint>
            <Time>2022-07-08T11:05:15.000Z</Time>
            <Position>
              <LatitudeDegrees>43.38840267620980739593505859375</LatitudeDegrees>
              <LongitudeDegrees>-1.6717952303588390350341796875</LongitudeDegrees>
            </Position>
            <AltitudeMeters>21.6000003814697265625</AltitudeMeters>
            <DistanceMeters>NAN</DistanceMeters>
          </Trackpoint>
          <Trackpoint>
            <Time>2022-07-08T11:05:26.000Z</Time>
            <Position>
              <LatitudeDegrees>43.38848565705120563507080078125</LatitudeDegrees>
              <LongitudeDegrees>-1.672017686069011688232421875</LongitudeDegrees>
            </Position>
            <AltitudeMeters>22.200000762939453125</AltitudeMeters>
            <DistanceMeters>NAN</DistanceMeters>
          </Trackpoint>
          <Trackpoint>
            <Time>2022-07-08T11:05:32.000Z</Time>
            <Position>
              <LatitudeDegrees>43.38851264677941799163818359375</LatitudeDegrees>
              <LongitudeDegrees>-1.6721494495868682861328125</LongitudeDegrees>
            </Position>
            <AltitudeMeters>22.200000762939453125</AltitudeMeters>
            <DistanceMeters>NAN</DistanceMeters>
          </Trackpoint>
          <Trackpoint>
            <Time>2022-07-08T11:05:33.000Z</Time>
            <Position>
              <LatitudeDegrees>43.38851742446422576904296875</LatitudeDegrees>
              <LongitudeDegrees>-1.6721734218299388885498046875</LongitudeDegrees>
            </Position>
            <AltitudeMeters>22.3999996185302734375</AltitudeMeters>
            <DistanceMeters>NAN</DistanceMeters>
          </Trackpoint>
          <Trackpoint>
            <Time>2022-07-08T11:05:36.000Z</Time>
            <Position>
              <LatitudeDegrees>43.38852555491030216217041015625</LatitudeDegrees>
              <LongitudeDegrees>-1.67223821394145488739013671875</LongitudeDegrees>
            </Position>
            <AltitudeMeters>23</AltitudeMeters>
            <DistanceMeters>NAN</DistanceMeters>
          </Trackpoint>
          <Trackpoint>
            <Time>2022-07-08T11:05:40.000Z</Time>
            <Position>
              <LatitudeDegrees>43.38854080997407436370849609375</LatitudeDegrees>
              <LongitudeDegrees>-1.67232488282024860382080078125</LongitudeDegrees>
            </Position>
            <AltitudeMeters>23.3999996185302734375</AltitudeMeters>
            <DistanceMeters>NAN</DistanceMeters>
          </Trackpoint>
          <Trackpoint>
            <Time>2022-07-08T11:05:46.000Z</Time>
            <Position>
              <LatitudeDegrees>43.3885470964014530181884765625</LatitudeDegrees>
              <LongitudeDegrees>-1.67247575707733631134033203125</LongitudeDegrees>
            </Position>
            <AltitudeMeters>24</AltitudeMeters>
            <DistanceMeters>NAN</DistanceMeters>
          </Trackpoint>
          <Trackpoint>
            <Time>2022-07-08T11:05:50.000Z</Time>
            <Position>
              <LatitudeDegrees>43.38853594847023487091064453125</LatitudeDegrees>
              <LongitudeDegrees>-1.67257650755345821380615234375</LongitudeDegrees>
            </Position>
            <AltitudeMeters>24.200000762939453125</AltitudeMeters>
            <DistanceMeters>NAN</DistanceMeters>
          </Trackpoint>
          <Trackpoint>
            <Time>2022-07-08T11:05:53.000Z</Time>
            <Position>
              <LatitudeDegrees>43.3885167539119720458984375</LatitudeDegrees>
              <LongitudeDegrees>-1.67266351170837879180908203125</LongitudeDegrees>
            </Position>
            <AltitudeMeters>24.6000003814697265625</AltitudeMeters>
            <DistanceMeters>NAN</DistanceMeters>
          </Trackpoint>
          <Trackpoint>
            <Time>2022-07-08T11:05:54.000Z</Time>
            <Position>
              <LatitudeDegrees>43.3885115571320056915283203125</LatitudeDegrees>
              <LongitudeDegrees>-1.67269452475011348724365234375</LongitudeDegrees>
            </Position>
            <AltitudeMeters>24.6000003814697265625</AltitudeMeters>
            <DistanceMeters>NAN</DistanceMeters>
          </Trackpoint>
          <Trackpoint>
            <Time>2022-07-08T11:06:00.000Z</Time>
            <Position>
              <LatitudeDegrees>43.38845699094235897064208984375</LatitudeDegrees>
              <LongitudeDegrees>-1.6728723049163818359375</LongitudeDegrees>
            </Position>
            <AltitudeMeters>24.6000003814697265625</AltitudeMeters>
            <DistanceMeters>NAN</DistanceMeters>
          </Trackpoint>
          <Trackpoint>
            <Time>2022-07-08T11:06:03.000Z</Time>
            <Position>
              <LatitudeDegrees>43.3884163387119770050048828125</LatitudeDegrees>
              <LongitudeDegrees>-1.67296056635677814483642578125</LongitudeDegrees>
            </Position>
            <AltitudeMeters>24.3999996185302734375</AltitudeMeters>
            <DistanceMeters>NAN</DistanceMeters>
          </Trackpoint>
          <Trackpoint>
            <Time>2022-07-08T11:06:09.000Z</Time>
            <Position>
              <LatitudeDegrees>43.38832086883485317230224609375</LatitudeDegrees>
              <LongitudeDegrees>-1.673119068145751953125</LongitudeDegrees>
            </Position>
            <AltitudeMeters>24.3999996185302734375</AltitudeMeters>
            <DistanceMeters>NAN</DistanceMeters>
          </Trackpoint>
          <Trackpoint>
            <Time>2022-07-08T11:06:15.000Z</Time>
            <Position>
              <LatitudeDegrees>43.388231433928012847900390625</LatitudeDegrees>
              <LongitudeDegrees>-1.67330103926360607147216796875</LongitudeDegrees>
            </Position>
            <AltitudeMeters>24</AltitudeMeters>
            <DistanceMeters>NAN</DistanceMeters>
          </Trackpoint>
          <Trackpoint>
            <Time>2022-07-08T11:06:17.000Z</Time>
            <Position>
              <LatitudeDegrees>43.38821408338844776153564453125</LatitudeDegrees>
              <LongitudeDegrees>-1.67336943559348583221435546875</LongitudeDegrees>
            </Position>
            <AltitudeMeters>24</AltitudeMeters>
            <DistanceMeters>NAN</DistanceMeters>
          </Trackpoint>
          <Trackpoint>
            <Time>2022-07-08T11:06:26.000Z</Time>
            <Position>
              <LatitudeDegrees>43.38816664181649684906005859375</LatitudeDegrees>
              <LongitudeDegrees>-1.6736697591841220855712890625</LongitudeDegrees>
            </Position>
            <AltitudeMeters>23.6000003814697265625</AltitudeMeters>
            <DistanceMeters>NAN</DistanceMeters>
          </Trackpoint>
          <Trackpoint>
            <Time>2022-07-08T11:06:35.000Z</Time>
            <Position>
              <LatitudeDegrees>43.388166390359401702880859375</LatitudeDegrees>
              <LongitudeDegrees>-1.67396069504320621490478515625</LongitudeDegrees>
            </Position>
            <AltitudeMeters>24</AltitudeMeters>
            <DistanceMeters>NAN</DistanceMeters>
          </Trackpoint>
          <Trackpoint>
            <Time>2022-07-08T11:06:45.000Z</Time>
            <Position>
              <LatitudeDegrees>43.3881544880568981170654296875</LatitudeDegrees>
              <LongitudeDegrees>-1.67428524233400821685791015625</LongitudeDegrees>
            </Position>
            <AltitudeMeters>24.3999996185302734375</AltitudeMeters>
            <DistanceMeters>NAN</DistanceMeters>
          </Trackpoint>
          <Trackpoint>
            <Time>2022-07-08T11:06:53.000Z</Time>
            <Position>
              <LatitudeDegrees>43.388144932687282562255859375</LatitudeDegrees>
              <LongitudeDegrees>-1.6745361126959323883056640625</LongitudeDegrees>
            </Position>
            <AltitudeMeters>24.799999237060546875</AltitudeMeters>
            <DistanceMeters>NAN</DistanceMeters>
          </Trackpoint>
          <Trackpoint>
            <Time>2022-07-08T11:07:02.000Z</Time>
            <Position>
              <LatitudeDegrees>43.3881492912769317626953125</LatitudeDegrees>
              <LongitudeDegrees>-1.67482453398406505584716796875</LongitudeDegrees>
            </Position>
            <AltitudeMeters>25.200000762939453125</AltitudeMeters>
            <DistanceMeters>NAN</DistanceMeters>
          </Trackpoint>
          <Trackpoint>
            <Time>2022-07-08T11:07:06.000Z</Time>
            <Position>
              <LatitudeDegrees>43.38814769871532917022705078125</LatitudeDegrees>
              <LongitudeDegrees>-1.67484113015234470367431640625</LongitudeDegrees>
            </Position>
            <AltitudeMeters>24.799999237060546875</AltitudeMeters>
            <DistanceMeters>NAN</DistanceMeters>
          </Trackpoint>
          <Trackpoint>
            <Time>2022-07-08T11:09:00.000Z</Time>
            <Position>
              <LatitudeDegrees>43.38815222494304180145263671875</LatitudeDegrees>
              <LongitudeDegrees>-1.6748864762485027313232421875</LongitudeDegrees>
            </Position>
            <AltitudeMeters>24.3999996185302734375</AltitudeMeters>
            <DistanceMeters>NAN</DistanceMeters>
          </Trackpoint>
          <Trackpoint>
            <Time>2022-07-08T11:09:01.000Z</Time>
            <Position>
              <LatitudeDegrees>43.3881571702659130096435546875</LatitudeDegrees>
              <LongitudeDegrees>-1.67492059059441089630126953125</LongitudeDegrees>
            </Position>
            <AltitudeMeters>24.3999996185302734375</AltitudeMeters>
            <DistanceMeters>NAN</DistanceMeters>
          </Trackpoint>
          <Trackpoint>
            <Time>2022-07-08T11:09:02.000Z</Time>
            <Position>
              <LatitudeDegrees>43.3881585113704204559326171875</LatitudeDegrees>
              <LongitudeDegrees>-1.67495495639741420745849609375</LongitudeDegrees>
            </Position>
            <AltitudeMeters>24.6000003814697265625</AltitudeMeters>
            <DistanceMeters>NAN</DistanceMeters>
          </Trackpoint>
          <Trackpoint>
            <Time>2022-07-08T11:09:09.000Z</Time>
            <Position>
              <LatitudeDegrees>43.388149626553058624267578125</LatitudeDegrees>
              <LongitudeDegrees>-1.6752033121883869171142578125</LongitudeDegrees>
            </Position>
            <AltitudeMeters>25.6000003814697265625</AltitudeMeters>
            <DistanceMeters>NAN</DistanceMeters>
          </Trackpoint>
          <Trackpoint>
            <Time>2022-07-08T11:09:11.000Z</Time>
            <Position>
              <LatitudeDegrees>43.3881492912769317626953125</LatitudeDegrees>
              <LongitudeDegrees>-1.67527782730758190155029296875</LongitudeDegrees>
            </Position>
            <AltitudeMeters>25.799999237060546875</AltitudeMeters>
            <DistanceMeters>NAN</DistanceMeters>
          </Trackpoint>
          <Trackpoint>
            <Time>2022-07-08T11:09:19.000Z</Time>
            <Position>
              <LatitudeDegrees>43.3881385624408721923828125</LatitudeDegrees>
              <LongitudeDegrees>-1.67560103349387645721435546875</LongitudeDegrees>
            </Position>
            <AltitudeMeters>26.200000762939453125</AltitudeMeters>
            <DistanceMeters>NAN</DistanceMeters>
          </Trackpoint>
          <Trackpoint>
            <Time>2022-07-08T11:09:23.000Z</Time>
            <Position>
              <LatitudeDegrees>43.388124816119670867919921875</LatitudeDegrees>
              <LongitudeDegrees>-1.6757451184093952178955078125</LongitudeDegrees>
            </Position>
            <AltitudeMeters>26.6000003814697265625</AltitudeMeters>
            <DistanceMeters>NAN</DistanceMeters>
          </Trackpoint>
          <Trackpoint>
            <Time>2022-07-08T11:09:24.000Z</Time>
            <Position>
              <LatitudeDegrees>43.38812573812901973724365234375</LatitudeDegrees>
              <LongitudeDegrees>-1.675790213048458099365234375</LongitudeDegrees>
            </Position>
            <AltitudeMeters>26.6000003814697265625</AltitudeMeters>
            <DistanceMeters>NAN</DistanceMeters>
          </Trackpoint>
          <Trackpoint>
            <Time>2022-07-08T11:09:27.000Z</Time>
            <Position>
              <LatitudeDegrees>43.38811936788260936737060546875</LatitudeDegrees>
              <LongitudeDegrees>-1.6758946515619754791259765625</LongitudeDegrees>
            </Position>
            <AltitudeMeters>26.6000003814697265625</AltitudeMeters>
            <DistanceMeters>NAN</DistanceMeters>
          </Trackpoint>
          <Trackpoint>
            <Time>2022-07-08T11:09:30.000Z</Time>
            <Position>
              <LatitudeDegrees>43.38811509311199188232421875</LatitudeDegrees>
              <LongitudeDegrees>-1.67600738815963268280029296875</LongitudeDegrees>
            </Position>
            <AltitudeMeters>26.6000003814697265625</AltitudeMeters>
            <DistanceMeters>NAN</DistanceMeters>
          </Trackpoint>
          <Trackpoint>
            <Time>2022-07-08T11:09:36.000Z</Time>
            <Position>
              <LatitudeDegrees>43.3881058730185031890869140625</LatitudeDegrees>
              <LongitudeDegrees>-1.67623638175427913665771484375</LongitudeDegrees>
            </Position>
            <AltitudeMeters>26.3999996185302734375</AltitudeMeters>
            <DistanceMeters>NAN</DistanceMeters>
          </Trackpoint>
          <Trackpoint>
            <Time>2022-07-08T11:09:40.000Z</Time>
            <Position>
              <LatitudeDegrees>43.38810947723686695098876953125</LatitudeDegrees>
              <LongitudeDegrees>-1.67639630846679210662841796875</LongitudeDegrees>
            </Position>
            <AltitudeMeters>26.3999996185302734375</AltitudeMeters>
            <DistanceMeters>NAN</DistanceMeters>
          </Trackpoint>
          <Trackpoint>
            <Time>2022-07-08T11:09:46.000Z</Time>
            <Position>
              <LatitudeDegrees>43.3881169371306896209716796875</LatitudeDegrees>
              <LongitudeDegrees>-1.67664458043873310089111328125</LongitudeDegrees>
            </Position>
            <AltitudeMeters>26.3999996185302734375</AltitudeMeters>
            <DistanceMeters>NAN</DistanceMeters>
          </Trackpoint>
          <Trackpoint>
            <Time>2022-07-08T11:09:49.000Z</Time>
            <Position>
              <LatitudeDegrees>43.38811241090297698974609375</LatitudeDegrees>
              <LongitudeDegrees>-1.67673711664974689483642578125</LongitudeDegrees>
            </Position>
            <AltitudeMeters>26</AltitudeMeters>
            <DistanceMeters>NAN</DistanceMeters>
          </Trackpoint>
          <Trackpoint>
            <Time>2022-07-08T11:09:55.000Z</Time>
            <Position>
              <LatitudeDegrees>43.38810612447559833526611328125</LatitudeDegrees>
              <LongitudeDegrees>-1.676922775804996490478515625</LongitudeDegrees>
            </Position>
            <AltitudeMeters>25.799999237060546875</AltitudeMeters>
            <DistanceMeters>NAN</DistanceMeters>
          </Trackpoint>
          <Trackpoint>
            <Time>2022-07-08T11:09:57.000Z</Time>
            <Position>
              <LatitudeDegrees>43.3881008438766002655029296875</LatitudeDegrees>
              <LongitudeDegrees>-1.67700223624706268310546875</LongitudeDegrees>
            </Position>
            <AltitudeMeters>25.6000003814697265625</AltitudeMeters>
            <DistanceMeters>NAN</DistanceMeters>
          </Trackpoint>
          <Trackpoint>
            <Time>2022-07-08T11:09:58.000Z</Time>
            <Position>
              <LatitudeDegrees>43.38809631764888763427734375</LatitudeDegrees>
              <LongitudeDegrees>-1.67704473249614238739013671875</LongitudeDegrees>
            </Position>
            <AltitudeMeters>25.3999996185302734375</AltitudeMeters>
            <DistanceMeters>NAN</DistanceMeters>
          </Trackpoint>
          <Trackpoint>
            <Time>2022-07-08T11:10:04.000Z</Time>
            <Position>
              <LatitudeDegrees>43.38809757493436336517333984375</LatitudeDegrees>
              <LongitudeDegrees>-1.6773199103772640228271484375</LongitudeDegrees>
            </Position>
            <AltitudeMeters>24.6000003814697265625</AltitudeMeters>
            <DistanceMeters>NAN</DistanceMeters>
          </Trackpoint>
          <Trackpoint>
            <Time>2022-07-08T11:10:10.000Z</Time>
            <Position>
              <LatitudeDegrees>43.38810679502785205841064453125</LatitudeDegrees>
              <LongitudeDegrees>-1.67760749347507953643798828125</LongitudeDegrees>
            </Position>
            <AltitudeMeters>24.799999237060546875</AltitudeMeters>
            <DistanceMeters>NAN</DistanceMeters>
          </Trackpoint>
          <Trackpoint>
            <Time>2022-07-08T11:10:13.000Z</Time>
            <Position>
              <LatitudeDegrees>43.3881219662725925445556640625</LatitudeDegrees>
              <LongitudeDegrees>-1.67776272632181644439697265625</LongitudeDegrees>
            </Position>
            <AltitudeMeters>24.799999237060546875</AltitudeMeters>
            <DistanceMeters>NAN</DistanceMeters>
          </Trackpoint>
          <Trackpoint>
            <Time>2022-07-08T11:10:16.000Z</Time>
            <Position>
              <LatitudeDegrees>43.38814501650631427764892578125</LatitudeDegrees>
              <LongitudeDegrees>-1.67789951898157596588134765625</LongitudeDegrees>
            </Position>
            <AltitudeMeters>24.3999996185302734375</AltitudeMeters>
            <DistanceMeters>NAN</DistanceMeters>
          </Trackpoint>
          <Trackpoint>
            <Time>2022-07-08T11:10:22.000Z</Time>
            <Position>
              <LatitudeDegrees>43.3882044441998004913330078125</LatitudeDegrees>
              <LongitudeDegrees>-1.678201518952846527099609375</LongitudeDegrees>
            </Position>
            <AltitudeMeters>23.799999237060546875</AltitudeMeters>
            <DistanceMeters>NAN</DistanceMeters>
          </Trackpoint>
          <Trackpoint>
            <Time>2022-07-08T11:10:29.000Z</Time>
            <Position>
              <LatitudeDegrees>43.3883157558739185333251953125</LatitudeDegrees>
              <LongitudeDegrees>-1.67854760773479938507080078125</LongitudeDegrees>
            </Position>
            <AltitudeMeters>23.200000762939453125</AltitudeMeters>
            <DistanceMeters>NAN</DistanceMeters>
          </Trackpoint>
          <Trackpoint>
            <Time>2022-07-08T11:10:32.000Z</Time>
            <Position>
              <LatitudeDegrees>43.3883611857891082763671875</LatitudeDegrees>
              <LongitudeDegrees>-1.678682304918766021728515625</LongitudeDegrees>
            </Position>
            <AltitudeMeters>22.6000003814697265625</AltitudeMeters>
            <DistanceMeters>NAN</DistanceMeters>
          </Trackpoint>
          <Trackpoint>
            <Time>2022-07-08T11:10:35.000Z</Time>
            <Position>
              <LatitudeDegrees>43.38841424323618412017822265625</LatitudeDegrees>
              <LongitudeDegrees>-1.67882923968136310577392578125</LongitudeDegrees>
            </Position>
            <AltitudeMeters>22.200000762939453125</AltitudeMeters>
            <DistanceMeters>NAN</DistanceMeters>
          </Trackpoint>
          <Trackpoint>
            <Time>2022-07-08T11:10:39.000Z</Time>
            <Position>
              <LatitudeDegrees>43.3884765207767486572265625</LatitudeDegrees>
              <LongitudeDegrees>-1.6790435649454593658447265625</LongitudeDegrees>
            </Position>
            <AltitudeMeters>22</AltitudeMeters>
            <DistanceMeters>NAN</DistanceMeters>
          </Trackpoint>
          <Trackpoint>
            <Time>2022-07-08T11:10:40.000Z</Time>
            <Position>
              <LatitudeDegrees>43.3884837292134761810302734375</LatitudeDegrees>
              <LongitudeDegrees>-1.67909159325063228607177734375</LongitudeDegrees>
            </Position>
            <AltitudeMeters>22</AltitudeMeters>
            <DistanceMeters>NAN</DistanceMeters>
          </Trackpoint>
          <Trackpoint>
            <Time>2022-07-08T11:10:43.000Z</Time>
            <Position>
              <LatitudeDegrees>43.38851063512265682220458984375</LatitudeDegrees>
              <LongitudeDegrees>-1.67928135953843593597412109375</LongitudeDegrees>
            </Position>
            <AltitudeMeters>20.799999237060546875</AltitudeMeters>
            <DistanceMeters>NAN</DistanceMeters>
          </Trackpoint>
          <Trackpoint>
            <Time>2022-07-08T11:10:44.000Z</Time>
            <Position>
              <LatitudeDegrees>43.3885196037590503692626953125</LatitudeDegrees>
              <LongitudeDegrees>-1.67935394681990146636962890625</LongitudeDegrees>
            </Position>
            <AltitudeMeters>20.3999996185302734375</AltitudeMeters>
            <DistanceMeters>NAN</DistanceMeters>
          </Trackpoint>
          <Trackpoint>
            <Time>2022-07-08T11:10:46.000Z</Time>
            <Position>
              <LatitudeDegrees>43.38854114525020122528076171875</LatitudeDegrees>
              <LongitudeDegrees>-1.6795176453888416290283203125</LongitudeDegrees>
            </Position>
            <AltitudeMeters>20.200000762939453125</AltitudeMeters>
            <DistanceMeters>NAN</DistanceMeters>
          </Trackpoint>
          <Trackpoint>
            <Time>2022-07-08T11:10:49.000Z</Time>
            <Position>
              <LatitudeDegrees>43.38861993514001369476318359375</LatitudeDegrees>
              <LongitudeDegrees>-1.67976918630301952362060546875</LongitudeDegrees>
            </Position>
            <AltitudeMeters>19.799999237060546875</AltitudeMeters>
            <DistanceMeters>NAN</DistanceMeters>
          </Trackpoint>
          <Trackpoint>
            <Time>2022-07-08T11:10:50.000Z</Time>
            <Position>
              <LatitudeDegrees>43.3886460028588771820068359375</LatitudeDegrees>
              <LongitudeDegrees>-1.679826937615871429443359375</LongitudeDegrees>
            </Position>
            <AltitudeMeters>19.6000003814697265625</AltitudeMeters>
            <DistanceMeters>NAN</DistanceMeters>
          </Trackpoint>
          <Trackpoint>
            <Time>2022-07-08T11:10:54.000Z</Time>
            <Position>
              <LatitudeDegrees>43.38879511691629886627197265625</LatitudeDegrees>
              <LongitudeDegrees>-1.680088452994823455810546875</LongitudeDegrees>
            </Position>
            <AltitudeMeters>17</AltitudeMeters>
            <DistanceMeters>NAN</DistanceMeters>
          </Trackpoint>
          <Trackpoint>
            <Time>2022-07-08T11:10:55.000Z</Time>
            <Position>
              <LatitudeDegrees>43.3888278901576995849609375</LatitudeDegrees>
              <LongitudeDegrees>-1.68015156872570514678955078125</LongitudeDegrees>
            </Position>
            <AltitudeMeters>16</AltitudeMeters>
            <DistanceMeters>NAN</DistanceMeters>
          </Trackpoint>
          <Trackpoint>
            <Time>2022-07-08T11:10:57.000Z</Time>
            <Position>
              <LatitudeDegrees>43.3888840489089488983154296875</LatitudeDegrees>
              <LongitudeDegrees>-1.68028333224356174468994140625</LongitudeDegrees>
            </Position>
            <AltitudeMeters>15</AltitudeMeters>
            <DistanceMeters>NAN</DistanceMeters>
          </Trackpoint>
          <Trackpoint>
            <Time>2022-07-08T11:11:00.000Z</Time>
            <Position>
              <LatitudeDegrees>43.388945572078227996826171875</LatitudeDegrees>
              <LongitudeDegrees>-1.68047410435974597930908203125</LongitudeDegrees>
            </Position>
            <AltitudeMeters>17.200000762939453125</AltitudeMeters>
            <DistanceMeters>NAN</DistanceMeters>
          </Trackpoint>
          <Trackpoint>
            <Time>2022-07-08T11:11:01.000Z</Time>
            <Position>
              <LatitudeDegrees>43.388945572078227996826171875</LatitudeDegrees>
              <LongitudeDegrees>-1.68047410435974597930908203125</LongitudeDegrees>
            </Position>
            <AltitudeMeters>17.3999996185302734375</AltitudeMeters>
            <DistanceMeters>NAN</DistanceMeters>
          </Trackpoint>
          <Trackpoint>
            <Time>2022-07-08T11:11:06.000Z</Time>
            <Position>
              <LatitudeDegrees>43.38904724456369876861572265625</LatitudeDegrees>
              <LongitudeDegrees>-1.68087878264486789703369140625</LongitudeDegrees>
            </Position>
            <AltitudeMeters>16.799999237060546875</AltitudeMeters>
            <DistanceMeters>NAN</DistanceMeters>
          </Trackpoint>
          <Trackpoint>
            <Time>2022-07-08T11:11:08.000Z</Time>
            <Position>
              <LatitudeDegrees>43.389087729156017303466796875</LatitudeDegrees>
              <LongitudeDegrees>-1.6809953749179840087890625</LongitudeDegrees>
            </Position>
            <AltitudeMeters>16.799999237060546875</AltitudeMeters>
            <DistanceMeters>NAN</DistanceMeters>
          </Trackpoint>
          <Trackpoint>
            <Time>2022-07-08T11:11:11.000Z</Time>
            <Position>
              <LatitudeDegrees>43.3891512639820575714111328125</LatitudeDegrees>
              <LongitudeDegrees>-1.6811631806194782257080078125</LongitudeDegrees>
            </Position>
            <AltitudeMeters>16.799999237060546875</AltitudeMeters>
            <DistanceMeters>NAN</DistanceMeters>
          </Trackpoint>
          <Trackpoint>
            <Time>2022-07-08T11:11:17.000Z</Time>
            <Position>
              <LatitudeDegrees>43.38923734612762928009033203125</LatitudeDegrees>
              <LongitudeDegrees>-1.6814780049026012420654296875</LongitudeDegrees>
            </Position>
            <AltitudeMeters>16.799999237060546875</AltitudeMeters>
            <DistanceMeters>NAN</DistanceMeters>
          </Trackpoint>
          <Trackpoint>
            <Time>2022-07-08T11:11:24.000Z</Time>
            <Position>
              <LatitudeDegrees>43.38935829699039459228515625</LatitudeDegrees>
              <LongitudeDegrees>-1.68183155357837677001953125</LongitudeDegrees>
            </Position>
            <AltitudeMeters>16.6000003814697265625</AltitudeMeters>
            <DistanceMeters>NAN</DistanceMeters>
          </Trackpoint>
          <Trackpoint>
            <Time>2022-07-08T11:11:28.000Z</Time>
            <Position>
              <LatitudeDegrees>43.38939777575433254241943359375</LatitudeDegrees>
              <LongitudeDegrees>-1.68200648389756679534912109375</LongitudeDegrees>
            </Position>
            <AltitudeMeters>16.799999237060546875</AltitudeMeters>
            <DistanceMeters>NAN</DistanceMeters>
          </Trackpoint>
          <Trackpoint>
            <Time>2022-07-08T11:11:32.000Z</Time>
            <Position>
              <LatitudeDegrees>43.38945041410624980926513671875</LatitudeDegrees>
              <LongitudeDegrees>-1.68219708837568759918212890625</LongitudeDegrees>
            </Position>
            <AltitudeMeters>16.799999237060546875</AltitudeMeters>
            <DistanceMeters>NAN</DistanceMeters>
          </Trackpoint>
          <Trackpoint>
            <Time>2022-07-08T11:11:35.000Z</Time>
            <Position>
              <LatitudeDegrees>43.38948645628988742828369140625</LatitudeDegrees>
              <LongitudeDegrees>-1.68234460987150669097900390625</LongitudeDegrees>
            </Position>
            <AltitudeMeters>17</AltitudeMeters>
            <DistanceMeters>NAN</DistanceMeters>
          </Trackpoint>
          <Trackpoint>
            <Time>2022-07-08T11:11:44.000Z</Time>
            <Position>
              <LatitudeDegrees>43.3895465545356273651123046875</LatitudeDegrees>
              <LongitudeDegrees>-1.68271525762975215911865234375</LongitudeDegrees>
            </Position>
            <AltitudeMeters>17</AltitudeMeters>
            <DistanceMeters>NAN</DistanceMeters>
          </Trackpoint>
          <Trackpoint>
            <Time>2022-07-08T11:11:47.000Z</Time>
            <Position>
              <LatitudeDegrees>43.389563821256160736083984375</LatitudeDegrees>
              <LongitudeDegrees>-1.682839728891849517822265625</LongitudeDegrees>
            </Position>
            <AltitudeMeters>16.799999237060546875</AltitudeMeters>
            <DistanceMeters>NAN</DistanceMeters>
          </Trackpoint>
          <Trackpoint>
            <Time>2022-07-08T11:11:48.000Z</Time>
            <Position>
              <LatitudeDegrees>43.38957714848220348358154296875</LatitudeDegrees>
              <LongitudeDegrees>-1.68287786655128002166748046875</LongitudeDegrees>
            </Position>
            <AltitudeMeters>16.799999237060546875</AltitudeMeters>
            <DistanceMeters>NAN</DistanceMeters>
          </Trackpoint>
          <Trackpoint>
            <Time>2022-07-08T11:11:51.000Z</Time>
            <Position>
              <LatitudeDegrees>43.3896084129810333251953125</LatitudeDegrees>
              <LongitudeDegrees>-1.68299202807247638702392578125</LongitudeDegrees>
            </Position>
            <AltitudeMeters>17</AltitudeMeters>
            <DistanceMeters>NAN</DistanceMeters>
          </Trackpoint>
          <Trackpoint>
            <Time>2022-07-08T11:11:55.000Z</Time>
            <Position>
              <LatitudeDegrees>43.38964705355465412139892578125</LatitudeDegrees>
              <LongitudeDegrees>-1.68313234113156795501708984375</LongitudeDegrees>
            </Position>
            <AltitudeMeters>17.200000762939453125</AltitudeMeters>
            <DistanceMeters>NAN</DistanceMeters>
          </Trackpoint>
          <Trackpoint>
            <Time>2022-07-08T11:11:57.000Z</Time>
            <Position>
              <LatitudeDegrees>43.38966381736099720001220703125</LatitudeDegrees>
              <LongitudeDegrees>-1.68320543132722377777099609375</LongitudeDegrees>
            </Position>
            <AltitudeMeters>17.3999996185302734375</AltitudeMeters>
            <DistanceMeters>NAN</DistanceMeters>
          </Trackpoint>
          <Trackpoint>
            <Time>2022-07-08T11:12:00.000Z</Time>
            <Position>
              <LatitudeDegrees>43.3896810002624988555908203125</LatitudeDegrees>
              <LongitudeDegrees>-1.68332688510417938232421875</LongitudeDegrees>
            </Position>
            <AltitudeMeters>17.6000003814697265625</AltitudeMeters>
            <DistanceMeters>NAN</DistanceMeters>
          </Trackpoint>
          <Trackpoint>
            <Time>2022-07-08T11:12:01.000Z</Time>
            <Position>
              <LatitudeDegrees>43.38969131000339984893798828125</LatitudeDegrees>
              <LongitudeDegrees>-1.6833639331161975860595703125</LongitudeDegrees>
            </Position>
            <AltitudeMeters>17.6000003814697265625</AltitudeMeters>
            <DistanceMeters>NAN</DistanceMeters>
          </Trackpoint>
          <Trackpoint>
            <Time>2022-07-08T11:12:05.000Z</Time>
            <Position>
              <LatitudeDegrees>43.38972953148186206817626953125</LatitudeDegrees>
              <LongitudeDegrees>-1.68351539410650730133056640625</LongitudeDegrees>
            </Position>
            <AltitudeMeters>17.6000003814697265625</AltitudeMeters>
            <DistanceMeters>NAN</DistanceMeters>
          </Trackpoint>
          <Trackpoint>
            <Time>2022-07-08T11:12:09.000Z</Time>
            <Position>
              <LatitudeDegrees>43.3897678367793560028076171875</LatitudeDegrees>
              <LongitudeDegrees>-1.68366442434489727020263671875</LongitudeDegrees>
            </Position>
            <AltitudeMeters>17.799999237060546875</AltitudeMeters>
            <DistanceMeters>NAN</DistanceMeters>
          </Trackpoint>
          <Trackpoint>
            <Time>2022-07-08T11:12:14.000Z</Time>
            <Position>
              <LatitudeDegrees>43.38981586508452892303466796875</LatitudeDegrees>
              <LongitudeDegrees>-1.6838631592690944671630859375</LongitudeDegrees>
            </Position>
            <AltitudeMeters>18</AltitudeMeters>
            <DistanceMeters>NAN</DistanceMeters>
          </Trackpoint>
          <Trackpoint>
            <Time>2022-07-08T11:12:18.000Z</Time>
            <Position>
              <LatitudeDegrees>43.38984570465981960296630859375</LatitudeDegrees>
              <LongitudeDegrees>-1.68401478789746761322021484375</LongitudeDegrees>
            </Position>
            <AltitudeMeters>17.799999237060546875</AltitudeMeters>
            <DistanceMeters>NAN</DistanceMeters>
          </Trackpoint>
          <Trackpoint>
            <Time>2022-07-08T11:12:20.000Z</Time>
            <Position>
              <LatitudeDegrees>43.38985743932425975799560546875</LatitudeDegrees>
              <LongitudeDegrees>-1.6840946674346923828125</LongitudeDegrees>
            </Position>
            <AltitudeMeters>17.799999237060546875</AltitudeMeters>
            <DistanceMeters>NAN</DistanceMeters>
          </Trackpoint>
          <Trackpoint>
            <Time>2022-07-08T11:12:24.000Z</Time>
            <Position>
              <LatitudeDegrees>43.38987906463444232940673828125</LatitudeDegrees>
              <LongitudeDegrees>-1.6842577792704105377197265625</LongitudeDegrees>
            </Position>
            <AltitudeMeters>17.3999996185302734375</AltitudeMeters>
            <DistanceMeters>NAN</DistanceMeters>
          </Trackpoint>
          <Trackpoint>
            <Time>2022-07-08T11:12:31.000Z</Time>
            <Position>
              <LatitudeDegrees>43.38991426862776279449462890625</LatitudeDegrees>
              <LongitudeDegrees>-1.684567742049694061279296875</LongitudeDegrees>
            </Position>
            <AltitudeMeters>17.200000762939453125</AltitudeMeters>
            <DistanceMeters>NAN</DistanceMeters>
          </Trackpoint>
          <Trackpoint>
            <Time>2022-07-08T11:12:39.000Z</Time>
            <Position>
              <LatitudeDegrees>43.38993656449019908905029296875</LatitudeDegrees>
              <LongitudeDegrees>-1.68489505536854267120361328125</LongitudeDegrees>
            </Position>
            <AltitudeMeters>16.799999237060546875</AltitudeMeters>
            <DistanceMeters>NAN</DistanceMeters>
          </Trackpoint>
          <Trackpoint>
            <Time>2022-07-08T11:12:45.000Z</Time>
            <Position>
              <LatitudeDegrees>43.390006721019744873046875</LatitudeDegrees>
              <LongitudeDegrees>-1.68509052135050296783447265625</LongitudeDegrees>
            </Position>
            <AltitudeMeters>16.3999996185302734375</AltitudeMeters>
            <DistanceMeters>NAN</DistanceMeters>
          </Trackpoint>
          <Trackpoint>
            <Time>2022-07-08T11:12:48.000Z</Time>
            <Position>
              <LatitudeDegrees>43.39003421366214752197265625</LatitudeDegrees>
              <LongitudeDegrees>-1.6851945407688617706298828125</LongitudeDegrees>
            </Position>
            <AltitudeMeters>16.6000003814697265625</AltitudeMeters>
            <DistanceMeters>NAN</DistanceMeters>
          </Trackpoint>
          <Trackpoint>
            <Time>2022-07-08T11:12:52.000Z</Time>
            <Position>
              <LatitudeDegrees>43.39007369242608547210693359375</LatitudeDegrees>
              <LongitudeDegrees>-1.68534114025533199310302734375</LongitudeDegrees>
            </Position>
            <AltitudeMeters>16.6000003814697265625</AltitudeMeters>
            <DistanceMeters>NAN</DistanceMeters>
          </Trackpoint>
          <Trackpoint>
            <Time>2022-07-08T11:12:58.000Z</Time>
            <Position>
              <LatitudeDegrees>43.390141837298870086669921875</LatitudeDegrees>
              <LongitudeDegrees>-1.6855068504810333251953125</LongitudeDegrees>
            </Position>
            <AltitudeMeters>16.200000762939453125</AltitudeMeters>
            <DistanceMeters>NAN</DistanceMeters>
          </Trackpoint>
          <Trackpoint>
            <Time>2022-07-08T11:13:03.000Z</Time>
            <Position>
              <LatitudeDegrees>43.3902181126177310943603515625</LatitudeDegrees>
              <LongitudeDegrees>-1.685611791908740997314453125</LongitudeDegrees>
            </Position>
            <AltitudeMeters>16.200000762939453125</AltitudeMeters>
            <DistanceMeters>NAN</DistanceMeters>
          </Trackpoint>
          <Trackpoint>
            <Time>2022-07-08T11:13:05.000Z</Time>
            <Position>
              <LatitudeDegrees>43.3902633748948574066162109375</LatitudeDegrees>
              <LongitudeDegrees>-1.685659401118755340576171875</LongitudeDegrees>
            </Position>
            <AltitudeMeters>16.200000762939453125</AltitudeMeters>
            <DistanceMeters>NAN</DistanceMeters>
          </Trackpoint>
          <Trackpoint>
            <Time>2022-07-08T11:13:08.000Z</Time>
            <Position>
              <LatitudeDegrees>43.39034962467849254608154296875</LatitudeDegrees>
              <LongitudeDegrees>-1.685688905417919158935546875</LongitudeDegrees>
            </Position>
            <AltitudeMeters>15.80000019073486328125</AltitudeMeters>
            <DistanceMeters>NAN</DistanceMeters>
          </Trackpoint>
          <Trackpoint>
            <Time>2022-07-08T11:13:15.000Z</Time>
            <Position>
              <LatitudeDegrees>43.39054073207080364227294921875</LatitudeDegrees>
              <LongitudeDegrees>-1.68568052351474761962890625</LongitudeDegrees>
            </Position>
            <AltitudeMeters>15.80000019073486328125</AltitudeMeters>
            <DistanceMeters>NAN</DistanceMeters>
          </Trackpoint>
          <Trackpoint>
            <Time>2022-07-08T11:13:22.000Z</Time>
            <Position>
              <LatitudeDegrees>43.3907797001302242279052734375</LatitudeDegrees>
              <LongitudeDegrees>-1.68561656959354877471923828125</LongitudeDegrees>
            </Position>
            <AltitudeMeters>15.6000003814697265625</AltitudeMeters>
            <DistanceMeters>NAN</DistanceMeters>
          </Trackpoint>
          <Trackpoint>
            <Time>2022-07-08T11:13:27.000Z</Time>
            <Position>
              <LatitudeDegrees>43.390942476689815521240234375</LatitudeDegrees>
              <LongitudeDegrees>-1.68556225486099720001220703125</LongitudeDegrees>
            </Position>
            <AltitudeMeters>15.6000003814697265625</AltitudeMeters>
            <DistanceMeters>NAN</DistanceMeters>
          </Trackpoint>
          <Trackpoint>
            <Time>2022-07-08T11:13:31.000Z</Time>
            <Position>
              <LatitudeDegrees>43.39108069427311420440673828125</LatitudeDegrees>
              <LongitudeDegrees>-1.68553476221859455108642578125</LongitudeDegrees>
            </Position>
            <AltitudeMeters>15.19999980926513671875</AltitudeMeters>
            <DistanceMeters>NAN</DistanceMeters>
          </Trackpoint>
          <Trackpoint>
            <Time>2022-07-08T11:13:36.000Z</Time>
            <Position>
              <LatitudeDegrees>43.39123559184372425079345703125</LatitudeDegrees>
              <LongitudeDegrees>-1.68548748828470706939697265625</LongitudeDegrees>
            </Position>
            <AltitudeMeters>15.3999996185302734375</AltitudeMeters>
            <DistanceMeters>NAN</DistanceMeters>
          </Trackpoint>
          <Trackpoint>
            <Time>2022-07-08T11:13:39.000Z</Time>
            <Position>
              <LatitudeDegrees>43.3913262002170085906982421875</LatitudeDegrees>
              <LongitudeDegrees>-1.68546703644096851348876953125</LongitudeDegrees>
            </Position>
            <AltitudeMeters>15.6000003814697265625</AltitudeMeters>
            <DistanceMeters>NAN</DistanceMeters>
          </Trackpoint>
          <Trackpoint>
            <Time>2022-07-08T11:13:40.000Z</Time>
            <Position>
              <LatitudeDegrees>43.391356207430362701416015625</LatitudeDegrees>
              <LongitudeDegrees>-1.685465276241302490234375</LongitudeDegrees>
            </Position>
            <AltitudeMeters>15.6000003814697265625</AltitudeMeters>
            <DistanceMeters>NAN</DistanceMeters>
          </Trackpoint>
          <Trackpoint>
            <Time>2022-07-08T11:13:46.000Z</Time>
            <Position>
              <LatitudeDegrees>43.39153029955923557281494140625</LatitudeDegrees>
              <LongitudeDegrees>-1.68547541834414005279541015625</LongitudeDegrees>
            </Position>
            <AltitudeMeters>16.200000762939453125</AltitudeMeters>
            <DistanceMeters>NAN</DistanceMeters>
          </Trackpoint>
          <Trackpoint>
            <Time>2022-07-08T11:13:47.000Z</Time>
            <Position>
              <LatitudeDegrees>43.3915575407445430755615234375</LatitudeDegrees>
              <LongitudeDegrees>-1.68547541834414005279541015625</LongitudeDegrees>
            </Position>
            <AltitudeMeters>16.200000762939453125</AltitudeMeters>
            <DistanceMeters>NAN</DistanceMeters>
          </Trackpoint>
          <Trackpoint>
            <Time>2022-07-08T11:13:53.000Z</Time>
            <Position>
              <LatitudeDegrees>43.3917439542710781097412109375</LatitudeDegrees>
              <LongitudeDegrees>-1.68543987907469272613525390625</LongitudeDegrees>
            </Position>
            <AltitudeMeters>16.200000762939453125</AltitudeMeters>
            <DistanceMeters>NAN</DistanceMeters>
          </Trackpoint>
          <Trackpoint>
            <Time>2022-07-08T11:13:57.000Z</Time>
            <Position>
              <LatitudeDegrees>43.391893319785594940185546875</LatitudeDegrees>
              <LongitudeDegrees>-1.68541892431676387786865234375</LongitudeDegrees>
            </Position>
            <AltitudeMeters>16.200000762939453125</AltitudeMeters>
            <DistanceMeters>NAN</DistanceMeters>
          </Trackpoint>
          <Trackpoint>
            <Time>2022-07-08T11:13:58.000Z</Time>
            <Position>
              <LatitudeDegrees>43.39193481020629405975341796875</LatitudeDegrees>
              <LongitudeDegrees>-1.68541423045098781585693359375</LongitudeDegrees>
            </Position>
            <AltitudeMeters>16.200000762939453125</AltitudeMeters>
            <DistanceMeters>NAN</DistanceMeters>
          </Trackpoint>
          <Trackpoint>
            <Time>2022-07-08T11:14:01.000Z</Time>
            <Position>
              <LatitudeDegrees>43.39205718599259853363037109375</LatitudeDegrees>
              <LongitudeDegrees>-1.68539243750274181365966796875</LongitudeDegrees>
            </Position>
            <AltitudeMeters>16</AltitudeMeters>
            <DistanceMeters>NAN</DistanceMeters>
          </Trackpoint>
          <Trackpoint>
            <Time>2022-07-08T11:14:05.000Z</Time>
            <Position>
              <LatitudeDegrees>43.392204456031322479248046875</LatitudeDegrees>
              <LongitudeDegrees>-1.6853244602680206298828125</LongitudeDegrees>
            </Position>
            <AltitudeMeters>15.80000019073486328125</AltitudeMeters>
            <DistanceMeters>NAN</DistanceMeters>
          </Trackpoint>
          <Trackpoint>
            <Time>2022-07-08T11:14:06.000Z</Time>
            <Position>
              <LatitudeDegrees>43.3922421745955944061279296875</LatitudeDegrees>
              <LongitudeDegrees>-1.6853071935474872589111328125</LongitudeDegrees>
            </Position>
            <AltitudeMeters>15.80000019073486328125</AltitudeMeters>
            <DistanceMeters>NAN</DistanceMeters>
          </Trackpoint>
          <Trackpoint>
            <Time>2022-07-08T11:14:09.000Z</Time>
            <Position>
              <LatitudeDegrees>43.392351306974887847900390625</LatitudeDegrees>
              <LongitudeDegrees>-1.68525648303329944610595703125</LongitudeDegrees>
            </Position>
            <AltitudeMeters>15.6000003814697265625</AltitudeMeters>
            <DistanceMeters>NAN</DistanceMeters>
          </Trackpoint>
          <Trackpoint>
            <Time>2022-07-08T11:14:14.000Z</Time>
            <Position>
              <LatitudeDegrees>43.39255054481327533721923828125</LatitudeDegrees>
              <LongitudeDegrees>-1.68518288992345333099365234375</LongitudeDegrees>
            </Position>
            <AltitudeMeters>15.3999996185302734375</AltitudeMeters>
            <DistanceMeters>NAN</DistanceMeters>
          </Trackpoint>
          <Trackpoint>
            <Time>2022-07-08T11:14:18.000Z</Time>
            <Position>
              <LatitudeDegrees>43.392685241997241973876953125</LatitudeDegrees>
              <LongitudeDegrees>-1.685094125568866729736328125</LongitudeDegrees>
            </Position>
            <AltitudeMeters>15.19999980926513671875</AltitudeMeters>
            <DistanceMeters>NAN</DistanceMeters>
          </Trackpoint>
          <Trackpoint>
            <Time>2022-07-08T11:14:19.000Z</Time>
            <Position>
              <LatitudeDegrees>43.3927118964493274688720703125</LatitudeDegrees>
              <LongitudeDegrees>-1.6850647889077663421630859375</LongitudeDegrees>
            </Position>
            <AltitudeMeters>15.19999980926513671875</AltitudeMeters>
            <DistanceMeters>NAN</DistanceMeters>
          </Trackpoint>
          <Trackpoint>
            <Time>2022-07-08T11:14:25.000Z</Time>
            <Position>
              <LatitudeDegrees>43.3928966335952281951904296875</LatitudeDegrees>
              <LongitudeDegrees>-1.6849427483975887298583984375</LongitudeDegrees>
            </Position>
            <AltitudeMeters>14.80000019073486328125</AltitudeMeters>
            <DistanceMeters>NAN</DistanceMeters>
          </Trackpoint>
          <Trackpoint>
            <Time>2022-07-08T11:14:29.000Z</Time>
            <Position>
              <LatitudeDegrees>43.393032252788543701171875</LatitudeDegrees>
              <LongitudeDegrees>-1.6849221289157867431640625</LongitudeDegrees>
            </Position>
            <AltitudeMeters>14.6000003814697265625</AltitudeMeters>
            <DistanceMeters>NAN</DistanceMeters>
          </Trackpoint>
          <Trackpoint>
            <Time>2022-07-08T11:14:34.000Z</Time>
            <Position>
              <LatitudeDegrees>43.39320994913578033447265625</LatitudeDegrees>
              <LongitudeDegrees>-1.68491617776453495025634765625</LongitudeDegrees>
            </Position>
            <AltitudeMeters>14.3999996185302734375</AltitudeMeters>
            <DistanceMeters>NAN</DistanceMeters>
          </Trackpoint>
          <Trackpoint>
            <Time>2022-07-08T11:14:36.000Z</Time>
            <Position>
              <LatitudeDegrees>43.3932765014469623565673828125</LatitudeDegrees>
              <LongitudeDegrees>-1.6849098913371562957763671875</LongitudeDegrees>
            </Position>
            <AltitudeMeters>14.3999996185302734375</AltitudeMeters>
            <DistanceMeters>NAN</DistanceMeters>
          </Trackpoint>
          <Trackpoint>
            <Time>2022-07-08T11:14:39.000Z</Time>
            <Position>
              <LatitudeDegrees>43.3933861367404460906982421875</LatitudeDegrees>
              <LongitudeDegrees>-1.6849005036056041717529296875</LongitudeDegrees>
            </Position>
            <AltitudeMeters>14.3999996185302734375</AltitudeMeters>
            <DistanceMeters>NAN</DistanceMeters>
          </Trackpoint>
          <Trackpoint>
            <Time>2022-07-08T11:14:42.000Z</Time>
            <Position>
              <LatitudeDegrees>43.39348353445529937744140625</LatitudeDegrees>
              <LongitudeDegrees>-1.68486840091645717620849609375</LongitudeDegrees>
            </Position>
            <AltitudeMeters>14.3999996185302734375</AltitudeMeters>
            <DistanceMeters>NAN</DistanceMeters>
          </Trackpoint>
          <Trackpoint>
            <Time>2022-07-08T11:14:46.000Z</Time>
            <Position>
              <LatitudeDegrees>43.3935943432152271270751953125</LatitudeDegrees>
              <LongitudeDegrees>-1.68487125076353549957275390625</LongitudeDegrees>
            </Position>
            <AltitudeMeters>14.3999996185302734375</AltitudeMeters>
            <DistanceMeters>NAN</DistanceMeters>
          </Trackpoint>
          <Trackpoint>
            <Time>2022-07-08T11:14:47.000Z</Time>
            <Position>
              <LatitudeDegrees>43.3936221711337566375732421875</LatitudeDegrees>
              <LongitudeDegrees>-1.68489136733114719390869140625</LongitudeDegrees>
            </Position>
            <AltitudeMeters>14.3999996185302734375</AltitudeMeters>
            <DistanceMeters>NAN</DistanceMeters>
          </Trackpoint>
          <Trackpoint>
            <Time>2022-07-08T11:14:48.000Z</Time>
            <Position>
              <LatitudeDegrees>43.39364287443459033966064453125</LatitudeDegrees>
              <LongitudeDegrees>-1.6848991625010967254638671875</LongitudeDegrees>
            </Position>
            <AltitudeMeters>14.19999980926513671875</AltitudeMeters>
            <DistanceMeters>NAN</DistanceMeters>
          </Trackpoint>
          <Trackpoint>
            <Time>2022-07-08T11:14:50.000Z</Time>
            <Position>
              <LatitudeDegrees>43.39369853027164936065673828125</LatitudeDegrees>
              <LongitudeDegrees>-1.684888266026973724365234375</LongitudeDegrees>
            </Position>
            <AltitudeMeters>14</AltitudeMeters>
            <DistanceMeters>NAN</DistanceMeters>
          </Trackpoint>
          <Trackpoint>
            <Time>2022-07-08T11:14:54.000Z</Time>
            <Position>
              <LatitudeDegrees>43.39375913143157958984375</LatitudeDegrees>
              <LongitudeDegrees>-1.6848569177091121673583984375</LongitudeDegrees>
            </Position>
            <AltitudeMeters>13.6000003814697265625</AltitudeMeters>
            <DistanceMeters>NAN</DistanceMeters>
          </Trackpoint>
          <Trackpoint>
            <Time>2022-07-08T11:14:59.000Z</Time>
            <Position>
              <LatitudeDegrees>43.39376457966864109039306640625</LatitudeDegrees>
              <LongitudeDegrees>-1.68488080613315105438232421875</LongitudeDegrees>
            </Position>
            <AltitudeMeters>13.3999996185302734375</AltitudeMeters>
            <DistanceMeters>NAN</DistanceMeters>
          </Trackpoint>
          <Trackpoint>
            <Time>2022-07-08T11:15:01.000Z</Time>
            <Position>
              <LatitudeDegrees>43.393744044005870819091796875</LatitudeDegrees>
              <LongitudeDegrees>-1.6849031858146190643310546875</LongitudeDegrees>
            </Position>
            <AltitudeMeters>13.3999996185302734375</AltitudeMeters>
            <DistanceMeters>NAN</DistanceMeters>
          </Trackpoint>
          <Trackpoint>
            <Time>2022-07-08T11:15:04.000Z</Time>
            <Position>
              <LatitudeDegrees>43.39369752444326877593994140625</LatitudeDegrees>
              <LongitudeDegrees>-1.684928834438323974609375</LongitudeDegrees>
            </Position>
            <AltitudeMeters>13.3999996185302734375</AltitudeMeters>
            <DistanceMeters>NAN</DistanceMeters>
          </Trackpoint>
          <Trackpoint>
            <Time>2022-07-08T11:15:05.000Z</Time>
            <Position>
              <LatitudeDegrees>43.3936855383217334747314453125</LatitudeDegrees>
              <LongitudeDegrees>-1.68495071120560169219970703125</LongitudeDegrees>
            </Position>
            <AltitudeMeters>13.3999996185302734375</AltitudeMeters>
            <DistanceMeters>NAN</DistanceMeters>
          </Trackpoint>
          <Trackpoint>
            <Time>2022-07-08T11:15:08.000Z</Time>
            <Position>
              <LatitudeDegrees>43.39369677007198333740234375</LatitudeDegrees>
              <LongitudeDegrees>-1.6850161738693714141845703125</LongitudeDegrees>
            </Position>
            <AltitudeMeters>13.80000019073486328125</AltitudeMeters>
            <DistanceMeters>NAN</DistanceMeters>
          </Trackpoint>
          <Trackpoint>
            <Time>2022-07-08T11:15:09.000Z</Time>
            <Position>
              <LatitudeDegrees>43.39371210895478725433349609375</LatitudeDegrees>
              <LongitudeDegrees>-1.68503142893314361572265625</LongitudeDegrees>
            </Position>
            <AltitudeMeters>14</AltitudeMeters>
            <DistanceMeters>NAN</DistanceMeters>
          </Trackpoint>
          <Trackpoint>
            <Time>2022-07-08T11:15:12.000Z</Time>
            <Position>
              <LatitudeDegrees>43.39376441203057765960693359375</LatitudeDegrees>
              <LongitudeDegrees>-1.68504240922629833221435546875</LongitudeDegrees>
            </Position>
            <AltitudeMeters>14</AltitudeMeters>
            <DistanceMeters>NAN</DistanceMeters>
          </Trackpoint>
          <Trackpoint>
            <Time>2022-07-08T11:15:13.000Z</Time>
            <Position>
              <LatitudeDegrees>43.39377991855144500732421875</LatitudeDegrees>
              <LongitudeDegrees>-1.68504324741661548614501953125</LongitudeDegrees>
            </Position>
            <AltitudeMeters>13.80000019073486328125</AltitudeMeters>
            <DistanceMeters>NAN</DistanceMeters>
          </Trackpoint>
          <Trackpoint>
            <Time>2022-07-08T11:15:17.000Z</Time>
            <Position>
              <LatitudeDegrees>43.39391780085861682891845703125</LatitudeDegrees>
              <LongitudeDegrees>-1.6850315965712070465087890625</LongitudeDegrees>
            </Position>
            <AltitudeMeters>13.6000003814697265625</AltitudeMeters>
            <DistanceMeters>NAN</DistanceMeters>
          </Trackpoint>
          <Trackpoint>
            <Time>2022-07-08T11:15:19.000Z</Time>
            <Position>
              <LatitudeDegrees>43.39399675838649272918701171875</LatitudeDegrees>
              <LongitudeDegrees>-1.685034446418285369873046875</LongitudeDegrees>
            </Position>
            <AltitudeMeters>13.3999996185302734375</AltitudeMeters>
            <DistanceMeters>NAN</DistanceMeters>
          </Trackpoint>
          <Trackpoint>
            <Time>2022-07-08T11:15:22.000Z</Time>
            <Position>
              <LatitudeDegrees>43.39411846362054347991943359375</LatitudeDegrees>
              <LongitudeDegrees>-1.68502145446836948394775390625</LongitudeDegrees>
            </Position>
            <AltitudeMeters>13.19999980926513671875</AltitudeMeters>
            <DistanceMeters>NAN</DistanceMeters>
          </Trackpoint>
          <Trackpoint>
            <Time>2022-07-08T11:15:25.000Z</Time>
            <Position>
              <LatitudeDegrees>43.39421577751636505126953125</LatitudeDegrees>
              <LongitudeDegrees>-1.68495188467204570770263671875</LongitudeDegrees>
            </Position>
            <AltitudeMeters>13.19999980926513671875</AltitudeMeters>
            <DistanceMeters>NAN</DistanceMeters>
          </Trackpoint>
          <Trackpoint>
            <Time>2022-07-08T11:15:28.000Z</Time>
            <Position>
              <LatitudeDegrees>43.39429582469165325164794921875</LatitudeDegrees>
              <LongitudeDegrees>-1.68486722745001316070556640625</LongitudeDegrees>
            </Position>
            <AltitudeMeters>13.19999980926513671875</AltitudeMeters>
            <DistanceMeters>NAN</DistanceMeters>
          </Trackpoint>
          <Trackpoint>
            <Time>2022-07-08T11:15:32.000Z</Time>
            <Position>
              <LatitudeDegrees>43.39439875446259975433349609375</LatitudeDegrees>
              <LongitudeDegrees>-1.68476496823132038116455078125</LongitudeDegrees>
            </Position>
            <AltitudeMeters>13.19999980926513671875</AltitudeMeters>
            <DistanceMeters>NAN</DistanceMeters>
          </Trackpoint>
          <Trackpoint>
            <Time>2022-07-08T11:15:34.000Z</Time>
            <Position>
              <LatitudeDegrees>43.3944482915103435516357421875</LatitudeDegrees>
              <LongitudeDegrees>-1.684719957411289215087890625</LongitudeDegrees>
            </Position>
            <AltitudeMeters>13</AltitudeMeters>
            <DistanceMeters>NAN</DistanceMeters>
          </Trackpoint>
          <Trackpoint>
            <Time>2022-07-08T11:15:40.000Z</Time>
            <Position>
              <LatitudeDegrees>43.39460444636642932891845703125</LatitudeDegrees>
              <LongitudeDegrees>-1.68460554443299770355224609375</LongitudeDegrees>
            </Position>
            <AltitudeMeters>12.80000019073486328125</AltitudeMeters>
            <DistanceMeters>NAN</DistanceMeters>
          </Trackpoint>
          <Trackpoint>
            <Time>2022-07-08T11:15:41.000Z</Time>
            <Position>
              <LatitudeDegrees>43.394631184637546539306640625</LatitudeDegrees>
              <LongitudeDegrees>-1.68460336513817310333251953125</LongitudeDegrees>
            </Position>
            <AltitudeMeters>12.80000019073486328125</AltitudeMeters>
            <DistanceMeters>NAN</DistanceMeters>
          </Trackpoint>
          <Trackpoint>
            <Time>2022-07-08T11:15:43.000Z</Time>
            <Position>
              <LatitudeDegrees>43.39468256570398807525634765625</LatitudeDegrees>
              <LongitudeDegrees>-1.6845816560089588165283203125</LongitudeDegrees>
            </Position>
            <AltitudeMeters>12.80000019073486328125</AltitudeMeters>
            <DistanceMeters>NAN</DistanceMeters>
          </Trackpoint>
          <Trackpoint>
            <Time>2022-07-08T11:15:47.000Z</Time>
            <Position>
              <LatitudeDegrees>43.394761942327022552490234375</LatitudeDegrees>
              <LongitudeDegrees>-1.68457218445837497711181640625</LongitudeDegrees>
            </Position>
            <AltitudeMeters>12.80000019073486328125</AltitudeMeters>
            <DistanceMeters>NAN</DistanceMeters>
          </Trackpoint>
          <Trackpoint>
            <Time>2022-07-08T11:15:54.000Z</Time>
            <Position>
              <LatitudeDegrees>43.39491206221282482147216796875</LatitudeDegrees>
              <LongitudeDegrees>-1.6846252419054508209228515625</LongitudeDegrees>
            </Position>
            <AltitudeMeters>12.80000019073486328125</AltitudeMeters>
            <DistanceMeters>NAN</DistanceMeters>
          </Trackpoint>
          <Trackpoint>
            <Time>2022-07-08T11:15:57.000Z</Time>
            <Position>
              <LatitudeDegrees>43.39495967142283916473388671875</LatitudeDegrees>
              <LongitudeDegrees>-1.6846574284136295318603515625</LongitudeDegrees>
            </Position>
            <AltitudeMeters>12.80000019073486328125</AltitudeMeters>
            <DistanceMeters>NAN</DistanceMeters>
          </Trackpoint>
          <Trackpoint>
            <Time>2022-07-08T11:15:58.000Z</Time>
            <Position>
              <LatitudeDegrees>43.3949770219624042510986328125</LatitudeDegrees>
              <LongitudeDegrees>-1.6846631281077861785888671875</LongitudeDegrees>
            </Position>
            <AltitudeMeters>12.80000019073486328125</AltitudeMeters>
            <DistanceMeters>NAN</DistanceMeters>
          </Trackpoint>
          <Trackpoint>
            <Time>2022-07-08T11:16:02.000Z</Time>
            <Position>
              <LatitudeDegrees>43.39502622373402118682861328125</LatitudeDegrees>
              <LongitudeDegrees>-1.6846966557204723358154296875</LongitudeDegrees>
            </Position>
            <AltitudeMeters>12.80000019073486328125</AltitudeMeters>
            <DistanceMeters>NAN</DistanceMeters>
          </Trackpoint>
          <Trackpoint>
            <Time>2022-07-08T11:16:06.000Z</Time>
            <Position>
              <LatitudeDegrees>43.39502655901014804840087890625</LatitudeDegrees>
              <LongitudeDegrees>-1.6847010143101215362548828125</LongitudeDegrees>
            </Position>
            <AltitudeMeters>12.3999996185302734375</AltitudeMeters>
            <DistanceMeters>NAN</DistanceMeters>
          </Trackpoint>
          <Trackpoint>
            <Time>2022-07-08T11:16:41.000Z</Time>
            <Position>
              <LatitudeDegrees>43.39500677771866321563720703125</LatitudeDegrees>
              <LongitudeDegrees>-1.68471132405102252960205078125</LongitudeDegrees>
            </Position>
            <AltitudeMeters>12.19999980926513671875</AltitudeMeters>
            <DistanceMeters>NAN</DistanceMeters>
          </Trackpoint>
          <Trackpoint>
            <Time>2022-07-08T11:16:42.000Z</Time>
            <Position>
              <LatitudeDegrees>43.39499722234904766082763671875</LatitudeDegrees>
              <LongitudeDegrees>-1.68471098877489566802978515625</LongitudeDegrees>
            </Position>
            <AltitudeMeters>12.19999980926513671875</AltitudeMeters>
            <DistanceMeters>NAN</DistanceMeters>
          </Trackpoint>
          <Trackpoint>
            <Time>2022-07-08T11:16:44.000Z</Time>
            <Position>
              <LatitudeDegrees>43.39496721513569355010986328125</LatitudeDegrees>
              <LongitudeDegrees>-1.6847073845565319061279296875</LongitudeDegrees>
            </Position>
            <AltitudeMeters>12</AltitudeMeters>
            <DistanceMeters>NAN</DistanceMeters>
          </Trackpoint>
          <Trackpoint>
            <Time>2022-07-08T11:16:48.000Z</Time>
            <Position>
              <LatitudeDegrees>43.39489144273102283477783203125</LatitudeDegrees>
              <LongitudeDegrees>-1.68468869291245937347412109375</LongitudeDegrees>
            </Position>
            <AltitudeMeters>12</AltitudeMeters>
            <DistanceMeters>NAN</DistanceMeters>
          </Trackpoint>
          <Trackpoint>
            <Time>2022-07-08T11:16:54.000Z</Time>
            <Position>
              <LatitudeDegrees>43.39475716464221477508544921875</LatitudeDegrees>
              <LongitudeDegrees>-1.6846389882266521453857421875</LongitudeDegrees>
            </Position>
            <AltitudeMeters>12</AltitudeMeters>
            <DistanceMeters>NAN</DistanceMeters>
          </Trackpoint>
          <Trackpoint>
            <Time>2022-07-08T11:17:00.000Z</Time>
            <Position>
              <LatitudeDegrees>43.394590280950069427490234375</LatitudeDegrees>
              <LongitudeDegrees>-1.68464845977723598480224609375</LongitudeDegrees>
            </Position>
            <AltitudeMeters>12</AltitudeMeters>
            <DistanceMeters>NAN</DistanceMeters>
          </Trackpoint>
          <Trackpoint>
            <Time>2022-07-08T11:17:06.000Z</Time>
            <Position>
              <LatitudeDegrees>43.39442490600049495697021484375</LatitudeDegrees>
              <LongitudeDegrees>-1.6847566701471805572509765625</LongitudeDegrees>
            </Position>
            <AltitudeMeters>11.19999980926513671875</AltitudeMeters>
            <DistanceMeters>NAN</DistanceMeters>
          </Trackpoint>
          <Trackpoint>
            <Time>2022-07-08T11:17:11.000Z</Time>
            <Position>
              <LatitudeDegrees>43.394289873540401458740234375</LatitudeDegrees>
              <LongitudeDegrees>-1.68488751165568828582763671875</LongitudeDegrees>
            </Position>
            <AltitudeMeters>11.19999980926513671875</AltitudeMeters>
            <DistanceMeters>NAN</DistanceMeters>
          </Trackpoint>
          <Trackpoint>
            <Time>2022-07-08T11:17:13.000Z</Time>
            <Position>
              <LatitudeDegrees>43.39424796402454376220703125</LatitudeDegrees>
              <LongitudeDegrees>-1.68492455966770648956298828125</LongitudeDegrees>
            </Position>
            <AltitudeMeters>11</AltitudeMeters>
            <DistanceMeters>NAN</DistanceMeters>
          </Trackpoint>
          <Trackpoint>
            <Time>2022-07-08T11:17:17.000Z</Time>
            <Position>
              <LatitudeDegrees>43.3942030370235443115234375</LatitudeDegrees>
              <LongitudeDegrees>-1.6849511303007602691650390625</LongitudeDegrees>
            </Position>
            <AltitudeMeters>11</AltitudeMeters>
            <DistanceMeters>NAN</DistanceMeters>
          </Trackpoint>
          <Trackpoint>
            <Time>2022-07-08T11:17:21.000Z</Time>
            <Position>
              <LatitudeDegrees>43.39412516914308071136474609375</LatitudeDegrees>
              <LongitudeDegrees>-1.685041151940822601318359375</LongitudeDegrees>
            </Position>
            <AltitudeMeters>10.80000019073486328125</AltitudeMeters>
            <DistanceMeters>NAN</DistanceMeters>
          </Trackpoint>
          <Trackpoint>
            <Time>2022-07-08T11:17:22.000Z</Time>
            <Position>
              <LatitudeDegrees>43.3941002748906612396240234375</LatitudeDegrees>
              <LongitudeDegrees>-1.6850607655942440032958984375</LongitudeDegrees>
            </Position>
            <AltitudeMeters>10.80000019073486328125</AltitudeMeters>
            <DistanceMeters>NAN</DistanceMeters>
          </Trackpoint>
          <Trackpoint>
            <Time>2022-07-08T11:17:27.000Z</Time>
            <Position>
              <LatitudeDegrees>43.3939453773200511932373046875</LatitudeDegrees>
              <LongitudeDegrees>-1.68507509864866733551025390625</LongitudeDegrees>
            </Position>
            <AltitudeMeters>10.80000019073486328125</AltitudeMeters>
            <DistanceMeters>NAN</DistanceMeters>
          </Trackpoint>
          <Trackpoint>
            <Time>2022-07-08T11:17:34.000Z</Time>
            <Position>
              <LatitudeDegrees>43.39375804178416728973388671875</LatitudeDegrees>
              <LongitudeDegrees>-1.6850714944303035736083984375</LongitudeDegrees>
            </Position>
            <AltitudeMeters>10.80000019073486328125</AltitudeMeters>
            <DistanceMeters>NAN</DistanceMeters>
          </Trackpoint>
          <Trackpoint>
            <Time>2022-07-08T11:17:36.000Z</Time>
            <Position>
              <LatitudeDegrees>43.393709175288677215576171875</LatitudeDegrees>
              <LongitudeDegrees>-1.68506336398422718048095703125</LongitudeDegrees>
            </Position>
            <AltitudeMeters>11</AltitudeMeters>
            <DistanceMeters>NAN</DistanceMeters>
          </Trackpoint>
          <Trackpoint>
            <Time>2022-07-08T11:17:41.000Z</Time>
            <Position>
              <LatitudeDegrees>43.39360180310904979705810546875</LatitudeDegrees>
              <LongitudeDegrees>-1.68498155660927295684814453125</LongitudeDegrees>
            </Position>
            <AltitudeMeters>11.3999996185302734375</AltitudeMeters>
            <DistanceMeters>NAN</DistanceMeters>
          </Trackpoint>
          <Trackpoint>
            <Time>2022-07-08T11:17:42.000Z</Time>
            <Position>
              <LatitudeDegrees>43.39357464574277400970458984375</LatitudeDegrees>
              <LongitudeDegrees>-1.6849672235548496246337890625</LongitudeDegrees>
            </Position>
            <AltitudeMeters>11.3999996185302734375</AltitudeMeters>
            <DistanceMeters>NAN</DistanceMeters>
          </Trackpoint>
          <Trackpoint>
            <Time>2022-07-08T11:17:45.000Z</Time>
            <Position>
              <LatitudeDegrees>43.3935031481087207794189453125</LatitudeDegrees>
              <LongitudeDegrees>-1.68497166596353054046630859375</LongitudeDegrees>
            </Position>
            <AltitudeMeters>11.19999980926513671875</AltitudeMeters>
            <DistanceMeters>NAN</DistanceMeters>
          </Trackpoint>
          <Trackpoint>
            <Time>2022-07-08T11:17:48.000Z</Time>
            <Position>
              <LatitudeDegrees>43.39342561550438404083251953125</LatitudeDegrees>
              <LongitudeDegrees>-1.6849672235548496246337890625</LongitudeDegrees>
            </Position>
            <AltitudeMeters>11.19999980926513671875</AltitudeMeters>
            <DistanceMeters>NAN</DistanceMeters>
          </Trackpoint>
          <Trackpoint>
            <Time>2022-07-08T11:17:55.000Z</Time>
            <Position>
              <LatitudeDegrees>43.393260575830936431884765625</LatitudeDegrees>
              <LongitudeDegrees>-1.68502128683030605316162109375</LongitudeDegrees>
            </Position>
            <AltitudeMeters>11.3999996185302734375</AltitudeMeters>
            <DistanceMeters>NAN</DistanceMeters>
          </Trackpoint>
          <Trackpoint>
            <Time>2022-07-08T11:18:01.000Z</Time>
            <Position>
              <LatitudeDegrees>43.39312051422894001007080078125</LatitudeDegrees>
              <LongitudeDegrees>-1.6850470192730426788330078125</LongitudeDegrees>
            </Position>
            <AltitudeMeters>11.19999980926513671875</AltitudeMeters>
            <DistanceMeters>NAN</DistanceMeters>
          </Trackpoint>
          <Trackpoint>
            <Time>2022-07-08T11:18:04.000Z</Time>
            <Position>
              <LatitudeDegrees>43.39306988753378391265869140625</LatitudeDegrees>
              <LongitudeDegrees>-1.6850589215755462646484375</LongitudeDegrees>
            </Position>
            <AltitudeMeters>11</AltitudeMeters>
            <DistanceMeters>NAN</DistanceMeters>
          </Trackpoint>
          <Trackpoint>
            <Time>2022-07-08T11:18:11.000Z</Time>
            <Position>
              <LatitudeDegrees>43.39296041987836360931396484375</LatitudeDegrees>
              <LongitudeDegrees>-1.68509119190275669097900390625</LongitudeDegrees>
            </Position>
            <AltitudeMeters>10.80000019073486328125</AltitudeMeters>
            <DistanceMeters>NAN</DistanceMeters>
          </Trackpoint>
          <Trackpoint>
            <Time>2022-07-08T11:18:18.000Z</Time>
            <Position>
              <LatitudeDegrees>43.39281088672578334808349609375</LatitudeDegrees>
              <LongitudeDegrees>-1.6850812174379825592041015625</LongitudeDegrees>
            </Position>
            <AltitudeMeters>10.6000003814697265625</AltitudeMeters>
            <DistanceMeters>NAN</DistanceMeters>
          </Trackpoint>
          <Trackpoint>
            <Time>2022-07-08T11:18:22.000Z</Time>
            <Position>
              <LatitudeDegrees>43.3927239663898944854736328125</LatitudeDegrees>
              <LongitudeDegrees>-1.6851633600890636444091796875</LongitudeDegrees>
            </Position>
            <AltitudeMeters>10.80000019073486328125</AltitudeMeters>
            <DistanceMeters>NAN</DistanceMeters>
          </Trackpoint>
          <Trackpoint>
            <Time>2022-07-08T11:18:23.000Z</Time>
            <Position>
              <LatitudeDegrees>43.39270208962261676788330078125</LatitudeDegrees>
              <LongitudeDegrees>-1.68518071062862873077392578125</LongitudeDegrees>
            </Position>
            <AltitudeMeters>11</AltitudeMeters>
            <DistanceMeters>NAN</DistanceMeters>
          </Trackpoint>
          <Trackpoint>
            <Time>2022-07-08T11:18:27.000Z</Time>
            <Position>
              <LatitudeDegrees>43.39259094558656215667724609375</LatitudeDegrees>
              <LongitudeDegrees>-1.68520309031009674072265625</LongitudeDegrees>
            </Position>
            <AltitudeMeters>10.80000019073486328125</AltitudeMeters>
            <DistanceMeters>NAN</DistanceMeters>
          </Trackpoint>
          <Trackpoint>
            <Time>2022-07-08T11:18:34.000Z</Time>
            <Position>
              <LatitudeDegrees>43.39242464862763881683349609375</LatitudeDegrees>
              <LongitudeDegrees>-1.68526050634682178497314453125</LongitudeDegrees>
            </Position>
            <AltitudeMeters>11</AltitudeMeters>
            <DistanceMeters>NAN</DistanceMeters>
          </Trackpoint>
          <Trackpoint>
            <Time>2022-07-08T11:18:40.000Z</Time>
            <Position>
              <LatitudeDegrees>43.3922606147825717926025390625</LatitudeDegrees>
              <LongitudeDegrees>-1.68529990129172801971435546875</LongitudeDegrees>
            </Position>
            <AltitudeMeters>11.19999980926513671875</AltitudeMeters>
            <DistanceMeters>NAN</DistanceMeters>
          </Trackpoint>
          <Trackpoint>
            <Time>2022-07-08T11:18:44.000Z</Time>
            <Position>
              <LatitudeDegrees>43.39217126369476318359375</LatitudeDegrees>
              <LongitudeDegrees>-1.68542378582060337066650390625</LongitudeDegrees>
            </Position>
            <AltitudeMeters>11.6000003814697265625</AltitudeMeters>
            <DistanceMeters>NAN</DistanceMeters>
          </Trackpoint>
          <Trackpoint>
            <Time>2022-07-08T11:18:50.000Z</Time>
            <Position>
              <LatitudeDegrees>43.39215475134551525115966796875</LatitudeDegrees>
              <LongitudeDegrees>-1.6856320761144161224365234375</LongitudeDegrees>
            </Position>
            <AltitudeMeters>12</AltitudeMeters>
            <DistanceMeters>NAN</DistanceMeters>
          </Trackpoint>
          <Trackpoint>
            <Time>2022-07-08T11:18:51.000Z</Time>
            <Position>
              <LatitudeDegrees>43.39215676300227642059326171875</LatitudeDegrees>
              <LongitudeDegrees>-1.68566099368035793304443359375</LongitudeDegrees>
            </Position>
            <AltitudeMeters>12.19999980926513671875</AltitudeMeters>
            <DistanceMeters>NAN</DistanceMeters>
          </Trackpoint>
          <Trackpoint>
            <Time>2022-07-08T11:18:56.000Z</Time>
            <Position>
              <LatitudeDegrees>43.39214251376688480377197265625</LatitudeDegrees>
              <LongitudeDegrees>-1.68578571639955043792724609375</LongitudeDegrees>
            </Position>
            <AltitudeMeters>12.19999980926513671875</AltitudeMeters>
            <DistanceMeters>NAN</DistanceMeters>
          </Trackpoint>
          <Trackpoint>
            <Time>2022-07-08T11:19:02.000Z</Time>
            <Position>
              <LatitudeDegrees>43.3920188806951045989990234375</LatitudeDegrees>
              <LongitudeDegrees>-1.6859234310686588287353515625</LongitudeDegrees>
            </Position>
            <AltitudeMeters>12.6000003814697265625</AltitudeMeters>
            <DistanceMeters>NAN</DistanceMeters>
          </Trackpoint>
          <Trackpoint>
            <Time>2022-07-08T11:19:03.000Z</Time>
            <Position>
              <LatitudeDegrees>43.39198174886405467987060546875</LatitudeDegrees>
              <LongitudeDegrees>-1.68594765476882457733154296875</LongitudeDegrees>
            </Position>
            <AltitudeMeters>12.6000003814697265625</AltitudeMeters>
            <DistanceMeters>NAN</DistanceMeters>
          </Trackpoint>
          <Trackpoint>
            <Time>2022-07-08T11:19:08.000Z</Time>
            <Position>
              <LatitudeDegrees>43.391817547380924224853515625</LatitudeDegrees>
              <LongitudeDegrees>-1.6860270313918590545654296875</LongitudeDegrees>
            </Position>
            <AltitudeMeters>11.6000003814697265625</AltitudeMeters>
            <DistanceMeters>NAN</DistanceMeters>
          </Trackpoint>
          <Trackpoint>
            <Time>2022-07-08T11:19:09.000Z</Time>
            <Position>
              <LatitudeDegrees>43.3918016217648983001708984375</LatitudeDegrees>
              <LongitudeDegrees>-1.6860518418252468109130859375</LongitudeDegrees>
            </Position>
            <AltitudeMeters>11.3999996185302734375</AltitudeMeters>
            <DistanceMeters>NAN</DistanceMeters>
          </Trackpoint>
          <Trackpoint>
            <Time>2022-07-08T11:19:11.000Z</Time>
            <Position>
              <LatitudeDegrees>43.391807489097118377685546875</LatitudeDegrees>
              <LongitudeDegrees>-1.6861021332442760467529296875</LongitudeDegrees>
            </Position>
            <AltitudeMeters>11.19999980926513671875</AltitudeMeters>
            <DistanceMeters>NAN</DistanceMeters>
          </Trackpoint>
          <Trackpoint>
            <Time>2022-07-08T11:19:15.000Z</Time>
            <Position>
              <LatitudeDegrees>43.3918804116547107696533203125</LatitudeDegrees>
              <LongitudeDegrees>-1.68614597059786319732666015625</LongitudeDegrees>
            </Position>
            <AltitudeMeters>11.3999996185302734375</AltitudeMeters>
            <DistanceMeters>NAN</DistanceMeters>
          </Trackpoint>
          <Trackpoint>
            <Time>2022-07-08T11:19:16.000Z</Time>
            <Position>
              <LatitudeDegrees>43.3919028751552104949951171875</LatitudeDegrees>
              <LongitudeDegrees>-1.68614814989268779754638671875</LongitudeDegrees>
            </Position>
            <AltitudeMeters>11.3999996185302734375</AltitudeMeters>
            <DistanceMeters>NAN</DistanceMeters>
          </Trackpoint>
          <Trackpoint>
            <Time>2022-07-08T11:19:27.000Z</Time>
            <Position>
              <LatitudeDegrees>43.392135389149188995361328125</LatitudeDegrees>
              <LongitudeDegrees>-1.68625024147331714630126953125</LongitudeDegrees>
            </Position>
            <AltitudeMeters>12</AltitudeMeters>
            <DistanceMeters>NAN</DistanceMeters>
          </Trackpoint>
          <Trackpoint>
            <Time>2022-07-08T11:19:35.000Z</Time>
            <Position>
              <LatitudeDegrees>43.39227679185569286346435546875</LatitudeDegrees>
              <LongitudeDegrees>-1.68638284318149089813232421875</LongitudeDegrees>
            </Position>
            <AltitudeMeters>13</AltitudeMeters>
            <DistanceMeters>NAN</DistanceMeters>
          </Trackpoint>
          <Trackpoint>
            <Time>2022-07-08T11:19:36.000Z</Time>
            <Position>
              <LatitudeDegrees>43.39229104109108448028564453125</LatitudeDegrees>
              <LongitudeDegrees>-1.68639994226396083831787109375</LongitudeDegrees>
            </Position>
            <AltitudeMeters>13.19999980926513671875</AltitudeMeters>
            <DistanceMeters>NAN</DistanceMeters>
          </Trackpoint>
          <Trackpoint>
            <Time>2022-07-08T11:19:43.000Z</Time>
            <Position>
              <LatitudeDegrees>43.39239028282463550567626953125</LatitudeDegrees>
              <LongitudeDegrees>-1.68652131222188472747802734375</LongitudeDegrees>
            </Position>
            <AltitudeMeters>14</AltitudeMeters>
            <DistanceMeters>NAN</DistanceMeters>
          </Trackpoint>
          <Trackpoint>
            <Time>2022-07-08T11:19:44.000Z</Time>
            <Position>
              <LatitudeDegrees>43.39240050874650478363037109375</LatitudeDegrees>
              <LongitudeDegrees>-1.6865393333137035369873046875</LongitudeDegrees>
            </Position>
            <AltitudeMeters>14</AltitudeMeters>
            <DistanceMeters>NAN</DistanceMeters>
          </Trackpoint>
          <Trackpoint>
            <Time>2022-07-08T11:19:46.000Z</Time>
            <Position>
              <LatitudeDegrees>43.39241869747638702392578125</LatitudeDegrees>
              <LongitudeDegrees>-1.68656959198415279388427734375</LongitudeDegrees>
            </Position>
            <AltitudeMeters>14.19999980926513671875</AltitudeMeters>
            <DistanceMeters>NAN</DistanceMeters>
          </Trackpoint>
          <Trackpoint>
            <Time>2022-07-08T11:19:48.000Z</Time>
            <Position>
              <LatitudeDegrees>43.3924433402717113494873046875</LatitudeDegrees>
              <LongitudeDegrees>-1.68661125004291534423828125</LongitudeDegrees>
            </Position>
            <AltitudeMeters>14.3999996185302734375</AltitudeMeters>
            <DistanceMeters>NAN</DistanceMeters>
          </Trackpoint>
          <Trackpoint>
            <Time>2022-07-08T11:19:52.000Z</Time>
            <Position>
              <LatitudeDegrees>43.39250586926937103271484375</LatitudeDegrees>
              <LongitudeDegrees>-1.68666816316545009613037109375</LongitudeDegrees>
            </Position>
            <AltitudeMeters>14.6000003814697265625</AltitudeMeters>
            <DistanceMeters>NAN</DistanceMeters>
          </Trackpoint>
          <Trackpoint>
            <Time>2022-07-08T11:19:54.000Z</Time>
            <Position>
              <LatitudeDegrees>43.3925347030162811279296875</LatitudeDegrees>
              <LongitudeDegrees>-1.68669037520885467529296875</LongitudeDegrees>
            </Position>
            <AltitudeMeters>14.80000019073486328125</AltitudeMeters>
            <DistanceMeters>NAN</DistanceMeters>
          </Trackpoint>
          <Trackpoint>
            <Time>2022-07-08T11:19:58.000Z</Time>
            <Position>
              <LatitudeDegrees>43.3925968967378139495849609375</LatitudeDegrees>
              <LongitudeDegrees>-1.68676908127963542938232421875</LongitudeDegrees>
            </Position>
            <AltitudeMeters>15.3999996185302734375</AltitudeMeters>
            <DistanceMeters>NAN</DistanceMeters>
          </Trackpoint>
          <Trackpoint>
            <Time>2022-07-08T11:20:02.000Z</Time>
            <Position>
              <LatitudeDegrees>43.39264542795717716217041015625</LatitudeDegrees>
              <LongitudeDegrees>-1.68684485368430614471435546875</LongitudeDegrees>
            </Position>
            <AltitudeMeters>15.80000019073486328125</AltitudeMeters>
            <DistanceMeters>NAN</DistanceMeters>
          </Trackpoint>
          <Trackpoint>
            <Time>2022-07-08T11:20:09.000Z</Time>
            <Position>
              <LatitudeDegrees>43.39271835051476955413818359375</LatitudeDegrees>
              <LongitudeDegrees>-1.6869450174272060394287109375</LongitudeDegrees>
            </Position>
            <AltitudeMeters>16.200000762939453125</AltitudeMeters>
            <DistanceMeters>NAN</DistanceMeters>
          </Trackpoint>
          <Trackpoint>
            <Time>2022-07-08T11:20:14.000Z</Time>
            <Position>
              <LatitudeDegrees>43.39280451647937297821044921875</LatitudeDegrees>
              <LongitudeDegrees>-1.6870040260255336761474609375</LongitudeDegrees>
            </Position>
            <AltitudeMeters>16.3999996185302734375</AltitudeMeters>
            <DistanceMeters>NAN</DistanceMeters>
          </Trackpoint>
          <Trackpoint>
            <Time>2022-07-08T11:20:16.000Z</Time>
            <Position>
              <LatitudeDegrees>43.39282915927469730377197265625</LatitudeDegrees>
              <LongitudeDegrees>-1.68702204711735248565673828125</LongitudeDegrees>
            </Position>
            <AltitudeMeters>16.3999996185302734375</AltitudeMeters>
            <DistanceMeters>NAN</DistanceMeters>
          </Trackpoint>
          <Trackpoint>
            <Time>2022-07-08T11:20:20.000Z</Time>
            <Position>
              <LatitudeDegrees>43.39289336465299129486083984375</LatitudeDegrees>
              <LongitudeDegrees>-1.687056832015514373779296875</LongitudeDegrees>
            </Position>
            <AltitudeMeters>17</AltitudeMeters>
            <DistanceMeters>NAN</DistanceMeters>
          </Trackpoint>
          <Trackpoint>
            <Time>2022-07-08T11:20:26.000Z</Time>
            <Position>
              <LatitudeDegrees>43.39299269020557403564453125</LatitudeDegrees>
              <LongitudeDegrees>-1.68711542151868343353271484375</LongitudeDegrees>
            </Position>
            <AltitudeMeters>17.6000003814697265625</AltitudeMeters>
            <DistanceMeters>NAN</DistanceMeters>
          </Trackpoint>
          <Trackpoint>
            <Time>2022-07-08T11:20:30.000Z</Time>
            <Position>
              <LatitudeDegrees>43.39306100271642208099365234375</LatitudeDegrees>
              <LongitudeDegrees>-1.687154732644557952880859375</LongitudeDegrees>
            </Position>
            <AltitudeMeters>18</AltitudeMeters>
            <DistanceMeters>NAN</DistanceMeters>
          </Trackpoint>
          <Trackpoint>
            <Time>2022-07-08T11:20:38.000Z</Time>
            <Position>
              <LatitudeDegrees>43.3931866474449634552001953125</LatitudeDegrees>
              <LongitudeDegrees>-1.6872274875640869140625</LongitudeDegrees>
            </Position>
            <AltitudeMeters>18.6000003814697265625</AltitudeMeters>
            <DistanceMeters>NAN</DistanceMeters>
          </Trackpoint>
          <Trackpoint>
            <Time>2022-07-08T11:20:39.000Z</Time>
            <Position>
              <LatitudeDegrees>43.393208943307399749755859375</LatitudeDegrees>
              <LongitudeDegrees>-1.6872387193143367767333984375</LongitudeDegrees>
            </Position>
            <AltitudeMeters>18.6000003814697265625</AltitudeMeters>
            <DistanceMeters>NAN</DistanceMeters>
          </Trackpoint>
          <Trackpoint>
            <Time>2022-07-08T11:20:40.000Z</Time>
            <Position>
              <LatitudeDegrees>43.3932275511324405670166015625</LatitudeDegrees>
              <LongitudeDegrees>-1.6872504539787769317626953125</LongitudeDegrees>
            </Position>
            <AltitudeMeters>18.6000003814697265625</AltitudeMeters>
            <DistanceMeters>NAN</DistanceMeters>
          </Trackpoint>
          <Trackpoint>
            <Time>2022-07-08T11:20:46.000Z</Time>
            <Position>
              <LatitudeDegrees>43.39331732131540775299072265625</LatitudeDegrees>
              <LongitudeDegrees>-1.6873044334352016448974609375</LongitudeDegrees>
            </Position>
            <AltitudeMeters>18.799999237060546875</AltitudeMeters>
            <DistanceMeters>NAN</DistanceMeters>
          </Trackpoint>
          <Trackpoint>
            <Time>2022-07-08T11:20:52.000Z</Time>
            <Position>
              <LatitudeDegrees>43.39345226995646953582763671875</LatitudeDegrees>
              <LongitudeDegrees>-1.68737375177443027496337890625</LongitudeDegrees>
            </Position>
            <AltitudeMeters>19.6000003814697265625</AltitudeMeters>
            <DistanceMeters>NAN</DistanceMeters>
          </Trackpoint>
          <Trackpoint>
            <Time>2022-07-08T11:20:56.000Z</Time>
            <Position>
              <LatitudeDegrees>43.39352468959987163543701171875</LatitudeDegrees>
              <LongitudeDegrees>-1.68742018751800060272216796875</LongitudeDegrees>
            </Position>
            <AltitudeMeters>20.200000762939453125</AltitudeMeters>
            <DistanceMeters>NAN</DistanceMeters>
          </Trackpoint>
          <Trackpoint>
            <Time>2022-07-08T11:21:04.000Z</Time>
            <Position>
              <LatitudeDegrees>43.39367707259953022003173828125</LatitudeDegrees>
              <LongitudeDegrees>-1.68751792050898075103759765625</LongitudeDegrees>
            </Position>
            <AltitudeMeters>20.6000003814697265625</AltitudeMeters>
            <DistanceMeters>NAN</DistanceMeters>
          </Trackpoint>
          <Trackpoint>
            <Time>2022-07-08T11:21:05.000Z</Time>
            <Position>
              <LatitudeDegrees>43.39369274675846099853515625</LatitudeDegrees>
              <LongitudeDegrees>-1.68753233738243579864501953125</LongitudeDegrees>
            </Position>
            <AltitudeMeters>20.6000003814697265625</AltitudeMeters>
            <DistanceMeters>NAN</DistanceMeters>
          </Trackpoint>
          <Trackpoint>
            <Time>2022-07-08T11:21:13.000Z</Time>
            <Position>
              <LatitudeDegrees>43.3938266895711421966552734375</LatitudeDegrees>
              <LongitudeDegrees>-1.6876387037336826324462890625</LongitudeDegrees>
            </Position>
            <AltitudeMeters>21.3999996185302734375</AltitudeMeters>
            <DistanceMeters>NAN</DistanceMeters>
          </Trackpoint>
          <Trackpoint>
            <Time>2022-07-08T11:21:18.000Z</Time>
            <Position>
              <LatitudeDegrees>43.3939091674983501434326171875</LatitudeDegrees>
              <LongitudeDegrees>-1.6877198405563831329345703125</LongitudeDegrees>
            </Position>
            <AltitudeMeters>22</AltitudeMeters>
            <DistanceMeters>NAN</DistanceMeters>
          </Trackpoint>
          <Trackpoint>
            <Time>2022-07-08T11:21:21.000Z</Time>
            <Position>
              <LatitudeDegrees>43.3939410187304019927978515625</LatitudeDegrees>
              <LongitudeDegrees>-1.6877701319754123687744140625</LongitudeDegrees>
            </Position>
            <AltitudeMeters>22.3999996185302734375</AltitudeMeters>
            <DistanceMeters>NAN</DistanceMeters>
          </Trackpoint>
          <Trackpoint>
            <Time>2022-07-08T11:21:28.000Z</Time>
            <Position>
              <LatitudeDegrees>43.39402056299149990081787109375</LatitudeDegrees>
              <LongitudeDegrees>-1.68787012808024883270263671875</LongitudeDegrees>
            </Position>
            <AltitudeMeters>23</AltitudeMeters>
            <DistanceMeters>NAN</DistanceMeters>
          </Trackpoint>
          <Trackpoint>
            <Time>2022-07-08T11:21:36.000Z</Time>
            <Position>
              <LatitudeDegrees>43.3941091597080230712890625</LatitudeDegrees>
              <LongitudeDegrees>-1.68800407089293003082275390625</LongitudeDegrees>
            </Position>
            <AltitudeMeters>24</AltitudeMeters>
            <DistanceMeters>NAN</DistanceMeters>
          </Trackpoint>
          <Trackpoint>
            <Time>2022-07-08T11:21:42.000Z</Time>
            <Position>
              <LatitudeDegrees>43.3941723592579364776611328125</LatitudeDegrees>
              <LongitudeDegrees>-1.688116975128650665283203125</LongitudeDegrees>
            </Position>
            <AltitudeMeters>24.200000762939453125</AltitudeMeters>
            <DistanceMeters>NAN</DistanceMeters>
          </Trackpoint>
          <Trackpoint>
            <Time>2022-07-08T11:21:45.000Z</Time>
            <Position>
              <LatitudeDegrees>43.3942048810422420501708984375</LatitudeDegrees>
              <LongitudeDegrees>-1.68817631900310516357421875</LongitudeDegrees>
            </Position>
            <AltitudeMeters>24.3999996185302734375</AltitudeMeters>
            <DistanceMeters>NAN</DistanceMeters>
          </Trackpoint>
          <Trackpoint>
            <Time>2022-07-08T11:21:54.000Z</Time>
            <Position>
              <LatitudeDegrees>43.394276797771453857421875</LatitudeDegrees>
              <LongitudeDegrees>-1.68833850882947444915771484375</LongitudeDegrees>
            </Position>
            <AltitudeMeters>24.799999237060546875</AltitudeMeters>
            <DistanceMeters>NAN</DistanceMeters>
          </Trackpoint>
          <Trackpoint>
            <Time>2022-07-08T11:21:58.000Z</Time>
            <Position>
              <LatitudeDegrees>43.3942977525293827056884765625</LatitudeDegrees>
              <LongitudeDegrees>-1.68841444887220859527587890625</LongitudeDegrees>
            </Position>
            <AltitudeMeters>25.200000762939453125</AltitudeMeters>
            <DistanceMeters>NAN</DistanceMeters>
          </Trackpoint>
          <Trackpoint>
            <Time>2022-07-08T11:22:03.000Z</Time>
            <Position>
              <LatitudeDegrees>43.3943168632686138153076171875</LatitudeDegrees>
              <LongitudeDegrees>-1.688485778868198394775390625</LongitudeDegrees>
            </Position>
            <AltitudeMeters>25.200000762939453125</AltitudeMeters>
            <DistanceMeters>NAN</DistanceMeters>
          </Trackpoint>
          <Trackpoint>
            <Time>2022-07-08T11:22:04.000Z</Time>
            <Position>
              <LatitudeDegrees>43.3943168632686138153076171875</LatitudeDegrees>
              <LongitudeDegrees>-1.688485778868198394775390625</LongitudeDegrees>
            </Position>
            <AltitudeMeters>25.200000762939453125</AltitudeMeters>
            <DistanceMeters>NAN</DistanceMeters>
          </Trackpoint>
          <Trackpoint>
            <Time>2022-07-08T11:22:26.000Z</Time>
            <Position>
              <LatitudeDegrees>43.39431141503155231475830078125</LatitudeDegrees>
              <LongitudeDegrees>-1.688536740839481353759765625</LongitudeDegrees>
            </Position>
            <AltitudeMeters>25.200000762939453125</AltitudeMeters>
            <DistanceMeters>NAN</DistanceMeters>
          </Trackpoint>
          <Trackpoint>
            <Time>2022-07-08T11:22:29.000Z</Time>
            <Position>
              <LatitudeDegrees>43.3943332917988300323486328125</LatitudeDegrees>
              <LongitudeDegrees>-1.68858845718204975128173828125</LongitudeDegrees>
            </Position>
            <AltitudeMeters>25.200000762939453125</AltitudeMeters>
            <DistanceMeters>NAN</DistanceMeters>
          </Trackpoint>
          <Trackpoint>
            <Time>2022-07-08T11:22:34.000Z</Time>
            <Position>
              <LatitudeDegrees>43.39434393681585788726806640625</LatitudeDegrees>
              <LongitudeDegrees>-1.68861226178705692291259765625</LongitudeDegrees>
            </Position>
            <AltitudeMeters>25.200000762939453125</AltitudeMeters>
            <DistanceMeters>NAN</DistanceMeters>
          </Trackpoint>
          <Trackpoint>
            <Time>2022-07-08T11:23:52.000Z</Time>
            <Position>
              <LatitudeDegrees>43.39433915913105010986328125</LatitudeDegrees>
              <LongitudeDegrees>-1.688649393618106842041015625</LongitudeDegrees>
            </Position>
            <AltitudeMeters>25.200000762939453125</AltitudeMeters>
            <DistanceMeters>NAN</DistanceMeters>
          </Trackpoint>
          <Trackpoint>
            <Time>2022-07-08T11:23:53.000Z</Time>
            <Position>
              <LatitudeDegrees>43.39434041641652584075927734375</LatitudeDegrees>
              <LongitudeDegrees>-1.68867588043212890625</LongitudeDegrees>
            </Position>
            <AltitudeMeters>25.3999996185302734375</AltitudeMeters>
            <DistanceMeters>NAN</DistanceMeters>
          </Trackpoint>
          <Trackpoint>
            <Time>2022-07-08T11:23:59.000Z</Time>
            <Position>
              <LatitudeDegrees>43.39437025599181652069091796875</LatitudeDegrees>
              <LongitudeDegrees>-1.68883857317268848419189453125</LongitudeDegrees>
            </Position>
            <AltitudeMeters>26</AltitudeMeters>
            <DistanceMeters>NAN</DistanceMeters>
          </Trackpoint>
          <Trackpoint>
            <Time>2022-07-08T11:24:05.000Z</Time>
            <Position>
              <LatitudeDegrees>43.3943959884345531463623046875</LatitudeDegrees>
              <LongitudeDegrees>-1.68899162672460079193115234375</LongitudeDegrees>
            </Position>
            <AltitudeMeters>26.200000762939453125</AltitudeMeters>
            <DistanceMeters>NAN</DistanceMeters>
          </Trackpoint>
          <Trackpoint>
            <Time>2022-07-08T11:24:12.000Z</Time>
            <Position>
              <LatitudeDegrees>43.3944057114422321319580078125</LatitudeDegrees>
              <LongitudeDegrees>-1.68917938135564327239990234375</LongitudeDegrees>
            </Position>
            <AltitudeMeters>26.799999237060546875</AltitudeMeters>
            <DistanceMeters>NAN</DistanceMeters>
          </Trackpoint>
          <Trackpoint>
            <Time>2022-07-08T11:24:21.000Z</Time>
            <Position>
              <LatitudeDegrees>43.394387103617191314697265625</LatitudeDegrees>
              <LongitudeDegrees>-1.68941340409219264984130859375</LongitudeDegrees>
            </Position>
            <AltitudeMeters>27.3999996185302734375</AltitudeMeters>
            <DistanceMeters>NAN</DistanceMeters>
          </Trackpoint>
          <Trackpoint>
            <Time>2022-07-08T11:24:22.000Z</Time>
            <Position>
              <LatitudeDegrees>43.39438349939882755279541015625</LatitudeDegrees>
              <LongitudeDegrees>-1.68943033553659915924072265625</LongitudeDegrees>
            </Position>
            <AltitudeMeters>27.6000003814697265625</AltitudeMeters>
            <DistanceMeters>NAN</DistanceMeters>
          </Trackpoint>
          <Trackpoint>
            <Time>2022-07-08T11:24:29.000Z</Time>
            <Position>
              <LatitudeDegrees>43.39436153881251811981201171875</LatitudeDegrees>
              <LongitudeDegrees>-1.689606271684169769287109375</LongitudeDegrees>
            </Position>
            <AltitudeMeters>27.799999237060546875</AltitudeMeters>
            <DistanceMeters>NAN</DistanceMeters>
          </Trackpoint>
          <Trackpoint>
            <Time>2022-07-08T11:24:39.000Z</Time>
            <Position>
              <LatitudeDegrees>43.39430336840450763702392578125</LatitudeDegrees>
              <LongitudeDegrees>-1.689835600554943084716796875</LongitudeDegrees>
            </Position>
            <AltitudeMeters>28.200000762939453125</AltitudeMeters>
            <DistanceMeters>NAN</DistanceMeters>
          </Trackpoint>
          <Trackpoint>
            <Time>2022-07-08T11:24:41.000Z</Time>
            <Position>
              <LatitudeDegrees>43.39429398067295551300048828125</LatitudeDegrees>
              <LongitudeDegrees>-1.68988329358398914337158203125</LongitudeDegrees>
            </Position>
            <AltitudeMeters>28.3999996185302734375</AltitudeMeters>
            <DistanceMeters>NAN</DistanceMeters>
          </Trackpoint>
          <Trackpoint>
            <Time>2022-07-08T11:24:48.000Z</Time>
            <Position>
              <LatitudeDegrees>43.39424519799649715423583984375</LatitudeDegrees>
              <LongitudeDegrees>-1.6900563798844814300537109375</LongitudeDegrees>
            </Position>
            <AltitudeMeters>29.200000762939453125</AltitudeMeters>
            <DistanceMeters>NAN</DistanceMeters>
          </Trackpoint>
          <Trackpoint>
            <Time>2022-07-08T11:24:50.000Z</Time>
            <Position>
              <LatitudeDegrees>43.39423111639916896820068359375</LatitudeDegrees>
              <LongitudeDegrees>-1.69010457582771778106689453125</LongitudeDegrees>
            </Position>
            <AltitudeMeters>29.3999996185302734375</AltitudeMeters>
            <DistanceMeters>NAN</DistanceMeters>
          </Trackpoint>
          <Trackpoint>
            <Time>2022-07-08T11:24:58.000Z</Time>
            <Position>
              <LatitudeDegrees>43.39417629875242710113525390625</LatitudeDegrees>
              <LongitudeDegrees>-1.690303646028041839599609375</LongitudeDegrees>
            </Position>
            <AltitudeMeters>30</AltitudeMeters>
            <DistanceMeters>NAN</DistanceMeters>
          </Trackpoint>
          <Trackpoint>
            <Time>2022-07-08T11:25:05.000Z</Time>
            <Position>
              <LatitudeDegrees>43.39413673616945743560791015625</LatitudeDegrees>
              <LongitudeDegrees>-1.690481342375278472900390625</LongitudeDegrees>
            </Position>
            <AltitudeMeters>30.6000003814697265625</AltitudeMeters>
            <DistanceMeters>NAN</DistanceMeters>
          </Trackpoint>
          <Trackpoint>
            <Time>2022-07-08T11:25:13.000Z</Time>
            <Position>
              <LatitudeDegrees>43.3940984308719635009765625</LatitudeDegrees>
              <LongitudeDegrees>-1.6906726174056529998779296875</LongitudeDegrees>
            </Position>
            <AltitudeMeters>31.6000003814697265625</AltitudeMeters>
            <DistanceMeters>NAN</DistanceMeters>
          </Trackpoint>
          <Trackpoint>
            <Time>2022-07-08T11:25:15.000Z</Time>
            <Position>
              <LatitudeDegrees>43.39408795349299907684326171875</LatitudeDegrees>
              <LongitudeDegrees>-1.690720058977603912353515625</LongitudeDegrees>
            </Position>
            <AltitudeMeters>31.799999237060546875</AltitudeMeters>
            <DistanceMeters>NAN</DistanceMeters>
          </Trackpoint>
          <Trackpoint>
            <Time>2022-07-08T11:25:22.000Z</Time>
            <Position>
              <LatitudeDegrees>43.39406632818281650543212890625</LatitudeDegrees>
              <LongitudeDegrees>-1.69086716137826442718505859375</LongitudeDegrees>
            </Position>
            <AltitudeMeters>32.59999847412109375</AltitudeMeters>
            <DistanceMeters>NAN</DistanceMeters>
          </Trackpoint>
          <Trackpoint>
            <Time>2022-07-08T11:25:25.000Z</Time>
            <Position>
              <LatitudeDegrees>43.39404989965260028839111328125</LatitudeDegrees>
              <LongitudeDegrees>-1.690935976803302764892578125</LongitudeDegrees>
            </Position>
            <AltitudeMeters>32.799999237060546875</AltitudeMeters>
            <DistanceMeters>NAN</DistanceMeters>
          </Trackpoint>
          <Trackpoint>
            <Time>2022-07-08T11:25:32.000Z</Time>
            <Position>
              <LatitudeDegrees>43.39401184581220149993896484375</LatitudeDegrees>
              <LongitudeDegrees>-1.69109364040195941925048828125</LongitudeDegrees>
            </Position>
            <AltitudeMeters>33.59999847412109375</AltitudeMeters>
            <DistanceMeters>NAN</DistanceMeters>
          </Trackpoint>
          <Trackpoint>
            <Time>2022-07-08T11:25:34.000Z</Time>
            <Position>
              <LatitudeDegrees>43.39400514028966426849365234375</LatitudeDegrees>
              <LongitudeDegrees>-1.6911316104233264923095703125</LongitudeDegrees>
            </Position>
            <AltitudeMeters>33.799999237060546875</AltitudeMeters>
            <DistanceMeters>NAN</DistanceMeters>
          </Trackpoint>
          <Trackpoint>
            <Time>2022-07-08T11:25:38.000Z</Time>
            <Position>
              <LatitudeDegrees>43.39398368261754512786865234375</LatitudeDegrees>
              <LongitudeDegrees>-1.69122624211013317108154296875</LongitudeDegrees>
            </Position>
            <AltitudeMeters>34.200000762939453125</AltitudeMeters>
            <DistanceMeters>NAN</DistanceMeters>
          </Trackpoint>
          <Trackpoint>
            <Time>2022-07-08T11:25:43.000Z</Time>
            <Position>
              <LatitudeDegrees>43.3939698524773120880126953125</LatitudeDegrees>
              <LongitudeDegrees>-1.69133688323199748992919921875</LongitudeDegrees>
            </Position>
            <AltitudeMeters>34.799999237060546875</AltitudeMeters>
            <DistanceMeters>NAN</DistanceMeters>
          </Trackpoint>
          <Trackpoint>
            <Time>2022-07-08T11:25:45.000Z</Time>
            <Position>
              <LatitudeDegrees>43.39396323077380657196044921875</LatitudeDegrees>
              <LongitudeDegrees>-1.69137409888207912445068359375</LongitudeDegrees>
            </Position>
            <AltitudeMeters>35</AltitudeMeters>
            <DistanceMeters>NAN</DistanceMeters>
          </Trackpoint>
          <Trackpoint>
            <Time>2022-07-08T11:25:53.000Z</Time>
            <Position>
              <LatitudeDegrees>43.393935151398181915283203125</LatitudeDegrees>
              <LongitudeDegrees>-1.69155766256153583526611328125</LongitudeDegrees>
            </Position>
            <AltitudeMeters>35.59999847412109375</AltitudeMeters>
            <DistanceMeters>NAN</DistanceMeters>
          </Trackpoint>
          <Trackpoint>
            <Time>2022-07-08T11:25:56.000Z</Time>
            <Position>
              <LatitudeDegrees>43.3939299546182155609130859375</LatitudeDegrees>
              <LongitudeDegrees>-1.69161499477922916412353515625</LongitudeDegrees>
            </Position>
            <AltitudeMeters>36</AltitudeMeters>
            <DistanceMeters>NAN</DistanceMeters>
          </Trackpoint>
          <Trackpoint>
            <Time>2022-07-08T11:26:04.000Z</Time>
            <Position>
              <LatitudeDegrees>43.39390405453741550445556640625</LatitudeDegrees>
              <LongitudeDegrees>-1.69178380630910396575927734375</LongitudeDegrees>
            </Position>
            <AltitudeMeters>36.799999237060546875</AltitudeMeters>
            <DistanceMeters>NAN</DistanceMeters>
          </Trackpoint>
          <Trackpoint>
            <Time>2022-07-08T11:26:07.000Z</Time>
            <Position>
              <LatitudeDegrees>43.3938919007778167724609375</LatitudeDegrees>
              <LongitudeDegrees>-1.69184415601193904876708984375</LongitudeDegrees>
            </Position>
            <AltitudeMeters>37</AltitudeMeters>
            <DistanceMeters>NAN</DistanceMeters>
          </Trackpoint>
          <Trackpoint>
            <Time>2022-07-08T11:26:13.000Z</Time>
            <Position>
              <LatitudeDegrees>43.39388812892138957977294921875</LatitudeDegrees>
              <LongitudeDegrees>-1.691963262856006622314453125</LongitudeDegrees>
            </Position>
            <AltitudeMeters>37.200000762939453125</AltitudeMeters>
            <DistanceMeters>NAN</DistanceMeters>
          </Trackpoint>
          <Trackpoint>
            <Time>2022-07-08T11:26:21.000Z</Time>
            <Position>
              <LatitudeDegrees>43.3938709460198879241943359375</LatitudeDegrees>
              <LongitudeDegrees>-1.69213031418621540069580078125</LongitudeDegrees>
            </Position>
            <AltitudeMeters>37.799999237060546875</AltitudeMeters>
            <DistanceMeters>NAN</DistanceMeters>
          </Trackpoint>
          <Trackpoint>
            <Time>2022-07-08T11:26:24.000Z</Time>
            <Position>
              <LatitudeDegrees>43.3938610553741455078125</LatitudeDegrees>
              <LongitudeDegrees>-1.69219401665031909942626953125</LongitudeDegrees>
            </Position>
            <AltitudeMeters>38</AltitudeMeters>
            <DistanceMeters>NAN</DistanceMeters>
          </Trackpoint>
          <Trackpoint>
            <Time>2022-07-08T11:26:36.000Z</Time>
            <Position>
              <LatitudeDegrees>43.39383515529334545135498046875</LatitudeDegrees>
              <LongitudeDegrees>-1.6924472339451313018798828125</LongitudeDegrees>
            </Position>
            <AltitudeMeters>38.799999237060546875</AltitudeMeters>
            <DistanceMeters>NAN</DistanceMeters>
          </Trackpoint>
          <Trackpoint>
            <Time>2022-07-08T11:26:41.000Z</Time>
            <Position>
              <LatitudeDegrees>43.39382157661020755767822265625</LatitudeDegrees>
              <LongitudeDegrees>-1.692535579204559326171875</LongitudeDegrees>
            </Position>
            <AltitudeMeters>39</AltitudeMeters>
            <DistanceMeters>NAN</DistanceMeters>
          </Trackpoint>
          <Trackpoint>
            <Time>2022-07-08T11:26:47.000Z</Time>
            <Position>
              <LatitudeDegrees>43.39380967430770397186279296875</LatitudeDegrees>
              <LongitudeDegrees>-1.69266122393310070037841796875</LongitudeDegrees>
            </Position>
            <AltitudeMeters>39.59999847412109375</AltitudeMeters>
            <DistanceMeters>NAN</DistanceMeters>
          </Trackpoint>
          <Trackpoint>
            <Time>2022-07-08T11:26:57.000Z</Time>
            <Position>
              <LatitudeDegrees>43.39377497322857379913330078125</LatitudeDegrees>
              <LongitudeDegrees>-1.69289189390838146209716796875</LongitudeDegrees>
            </Position>
            <AltitudeMeters>40.200000762939453125</AltitudeMeters>
            <DistanceMeters>NAN</DistanceMeters>
          </Trackpoint>
          <Trackpoint>
            <Time>2022-07-08T11:27:05.000Z</Time>
            <Position>
              <LatitudeDegrees>43.39374840259552001953125</LatitudeDegrees>
              <LongitudeDegrees>-1.69307277537882328033447265625</LongitudeDegrees>
            </Position>
            <AltitudeMeters>40.799999237060546875</AltitudeMeters>
            <DistanceMeters>NAN</DistanceMeters>
          </Trackpoint>
          <Trackpoint>
            <Time>2022-07-08T11:27:11.000Z</Time>
            <Position>
              <LatitudeDegrees>43.3937230892479419708251953125</LatitudeDegrees>
              <LongitudeDegrees>-1.69320839457213878631591796875</LongitudeDegrees>
            </Position>
            <AltitudeMeters>41.200000762939453125</AltitudeMeters>
            <DistanceMeters>NAN</DistanceMeters>
          </Trackpoint>
          <Trackpoint>
            <Time>2022-07-08T11:27:16.000Z</Time>
            <Position>
              <LatitudeDegrees>43.3936868794262409210205078125</LatitudeDegrees>
              <LongitudeDegrees>-1.6933155991137027740478515625</LongitudeDegrees>
            </Position>
            <AltitudeMeters>41.59999847412109375</AltitudeMeters>
            <DistanceMeters>NAN</DistanceMeters>
          </Trackpoint>
          <Trackpoint>
            <Time>2022-07-08T11:27:25.000Z</Time>
            <Position>
              <LatitudeDegrees>43.39359057135879993438720703125</LatitudeDegrees>
              <LongitudeDegrees>-1.6935452632606029510498046875</LongitudeDegrees>
            </Position>
            <AltitudeMeters>41.799999237060546875</AltitudeMeters>
            <DistanceMeters>NAN</DistanceMeters>
          </Trackpoint>
          <Trackpoint>
            <Time>2022-07-08T11:27:31.000Z</Time>
            <Position>
              <LatitudeDegrees>43.393481187522411346435546875</LatitudeDegrees>
              <LongitudeDegrees>-1.69373259879648685455322265625</LongitudeDegrees>
            </Position>
            <AltitudeMeters>42.200000762939453125</AltitudeMeters>
            <DistanceMeters>NAN</DistanceMeters>
          </Trackpoint>
          <Trackpoint>
            <Time>2022-07-08T11:27:32.000Z</Time>
            <Position>
              <LatitudeDegrees>43.3934612385928630828857421875</LatitudeDegrees>
              <LongitudeDegrees>-1.69376931153237819671630859375</LongitudeDegrees>
            </Position>
            <AltitudeMeters>42.200000762939453125</AltitudeMeters>
            <DistanceMeters>NAN</DistanceMeters>
          </Trackpoint>
          <Trackpoint>
            <Time>2022-07-08T11:27:38.000Z</Time>
            <Position>
              <LatitudeDegrees>43.39333190582692623138427734375</LatitudeDegrees>
              <LongitudeDegrees>-1.69398237951099872589111328125</LongitudeDegrees>
            </Position>
            <AltitudeMeters>42.40000152587890625</AltitudeMeters>
            <DistanceMeters>NAN</DistanceMeters>
          </Trackpoint>
          <Trackpoint>
            <Time>2022-07-08T11:27:47.000Z</Time>
            <Position>
              <LatitudeDegrees>43.39314264245331287384033203125</LatitudeDegrees>
              <LongitudeDegrees>-1.694319248199462890625</LongitudeDegrees>
            </Position>
            <AltitudeMeters>42.59999847412109375</AltitudeMeters>
            <DistanceMeters>NAN</DistanceMeters>
          </Trackpoint>
          <Trackpoint>
            <Time>2022-07-08T11:27:48.000Z</Time>
            <Position>
              <LatitudeDegrees>43.39312235824763774871826171875</LatitudeDegrees>
              <LongitudeDegrees>-1.69435872696340084075927734375</LongitudeDegrees>
            </Position>
            <AltitudeMeters>42.59999847412109375</AltitudeMeters>
            <DistanceMeters>NAN</DistanceMeters>
          </Trackpoint>
          <Trackpoint>
            <Time>2022-07-08T11:27:52.000Z</Time>
            <Position>
              <LatitudeDegrees>43.3930515311658382415771484375</LatitudeDegrees>
              <LongitudeDegrees>-1.694497279822826385498046875</LongitudeDegrees>
            </Position>
            <AltitudeMeters>43</AltitudeMeters>
            <DistanceMeters>NAN</DistanceMeters>
          </Trackpoint>
          <Trackpoint>
            <Time>2022-07-08T11:27:55.000Z</Time>
            <Position>
              <LatitudeDegrees>43.3930012397468090057373046875</LatitudeDegrees>
              <LongitudeDegrees>-1.694600880146026611328125</LongitudeDegrees>
            </Position>
            <AltitudeMeters>43</AltitudeMeters>
            <DistanceMeters>NAN</DistanceMeters>
          </Trackpoint>
          <Trackpoint>
            <Time>2022-07-08T11:28:02.000Z</Time>
            <Position>
              <LatitudeDegrees>43.3928496949374675750732421875</LatitudeDegrees>
              <LongitudeDegrees>-1.694862730801105499267578125</LongitudeDegrees>
            </Position>
            <AltitudeMeters>42.200000762939453125</AltitudeMeters>
            <DistanceMeters>NAN</DistanceMeters>
          </Trackpoint>
          <Trackpoint>
            <Time>2022-07-08T11:28:07.000Z</Time>
            <Position>
              <LatitudeDegrees>43.39274701662361621856689453125</LatitudeDegrees>
              <LongitudeDegrees>-1.69505593366920948028564453125</LongitudeDegrees>
            </Position>
            <AltitudeMeters>42.40000152587890625</AltitudeMeters>
            <DistanceMeters>NAN</DistanceMeters>
          </Trackpoint>
          <Trackpoint>
            <Time>2022-07-08T11:28:14.000Z</Time>
            <Position>
              <LatitudeDegrees>43.3926072902977466583251953125</LatitudeDegrees>
              <LongitudeDegrees>-1.6953376494348049163818359375</LongitudeDegrees>
            </Position>
            <AltitudeMeters>42</AltitudeMeters>
            <DistanceMeters>NAN</DistanceMeters>
          </Trackpoint>
          <Trackpoint>
            <Time>2022-07-08T11:28:17.000Z</Time>
            <Position>
              <LatitudeDegrees>43.392543084919452667236328125</LatitudeDegrees>
              <LongitudeDegrees>-1.69546279124915599822998046875</LongitudeDegrees>
            </Position>
            <AltitudeMeters>41.799999237060546875</AltitudeMeters>
            <DistanceMeters>NAN</DistanceMeters>
          </Trackpoint>
          <Trackpoint>
            <Time>2022-07-08T11:28:23.000Z</Time>
            <Position>
              <LatitudeDegrees>43.3924198709428310394287109375</LatitudeDegrees>
              <LongitudeDegrees>-1.69568809680640697479248046875</LongitudeDegrees>
            </Position>
            <AltitudeMeters>41.799999237060546875</AltitudeMeters>
            <DistanceMeters>NAN</DistanceMeters>
          </Trackpoint>
          <Trackpoint>
            <Time>2022-07-08T11:28:29.000Z</Time>
            <Position>
              <LatitudeDegrees>43.39231920428574085235595703125</LatitudeDegrees>
              <LongitudeDegrees>-1.69588741846382617950439453125</LongitudeDegrees>
            </Position>
            <AltitudeMeters>43.200000762939453125</AltitudeMeters>
            <DistanceMeters>NAN</DistanceMeters>
          </Trackpoint>
          <Trackpoint>
            <Time>2022-07-08T11:28:30.000Z</Time>
            <Position>
              <LatitudeDegrees>43.39230579324066638946533203125</LatitudeDegrees>
              <LongitudeDegrees>-1.6959178447723388671875</LongitudeDegrees>
            </Position>
            <AltitudeMeters>43.40000152587890625</AltitudeMeters>
            <DistanceMeters>NAN</DistanceMeters>
          </Trackpoint>
          <Trackpoint>
            <Time>2022-07-08T11:28:33.000Z</Time>
            <Position>
              <LatitudeDegrees>43.3922736905515193939208984375</LatitudeDegrees>
              <LongitudeDegrees>-1.69599772430956363677978515625</LongitudeDegrees>
            </Position>
            <AltitudeMeters>43.799999237060546875</AltitudeMeters>
            <DistanceMeters>NAN</DistanceMeters>
          </Trackpoint>
          <Trackpoint>
            <Time>2022-07-08T11:28:41.000Z</Time>
            <Position>
              <LatitudeDegrees>43.39219096116721630096435546875</LatitudeDegrees>
              <LongitudeDegrees>-1.69619168154895305633544921875</LongitudeDegrees>
            </Position>
            <AltitudeMeters>43</AltitudeMeters>
            <DistanceMeters>NAN</DistanceMeters>
          </Trackpoint>
          <Trackpoint>
            <Time>2022-07-08T11:28:46.000Z</Time>
            <Position>
              <LatitudeDegrees>43.39213714934885501861572265625</LatitudeDegrees>
              <LongitudeDegrees>-1.696317829191684722900390625</LongitudeDegrees>
            </Position>
            <AltitudeMeters>43.40000152587890625</AltitudeMeters>
            <DistanceMeters>NAN</DistanceMeters>
          </Trackpoint>
          <Trackpoint>
            <Time>2022-07-08T11:28:47.000Z</Time>
            <Position>
              <LatitudeDegrees>43.3921295218169689178466796875</LatitudeDegrees>
              <LongitudeDegrees>-1.69634222052991390228271484375</LongitudeDegrees>
            </Position>
            <AltitudeMeters>43.59999847412109375</AltitudeMeters>
            <DistanceMeters>NAN</DistanceMeters>
          </Trackpoint>
          <Trackpoint>
            <Time>2022-07-08T11:28:50.000Z</Time>
            <Position>
              <LatitudeDegrees>43.39210479520261287689208984375</LatitudeDegrees>
              <LongitudeDegrees>-1.69641413725912570953369140625</LongitudeDegrees>
            </Position>
            <AltitudeMeters>43.799999237060546875</AltitudeMeters>
            <DistanceMeters>NAN</DistanceMeters>
          </Trackpoint>
          <Trackpoint>
            <Time>2022-07-08T11:28:58.000Z</Time>
            <Position>
              <LatitudeDegrees>43.39204260148108005523681640625</LatitudeDegrees>
              <LongitudeDegrees>-1.69660893268883228302001953125</LongitudeDegrees>
            </Position>
            <AltitudeMeters>44.40000152587890625</AltitudeMeters>
            <DistanceMeters>NAN</DistanceMeters>
          </Trackpoint>
          <Trackpoint>
            <Time>2022-07-08T11:29:04.000Z</Time>
            <Position>
              <LatitudeDegrees>43.3919927291572093963623046875</LatitudeDegrees>
              <LongitudeDegrees>-1.6967417858541011810302734375</LongitudeDegrees>
            </Position>
            <AltitudeMeters>45.200000762939453125</AltitudeMeters>
            <DistanceMeters>NAN</DistanceMeters>
          </Trackpoint>
          <Trackpoint>
            <Time>2022-07-08T11:29:08.000Z</Time>
            <Position>
              <LatitudeDegrees>43.391964398324489593505859375</LatitudeDegrees>
              <LongitudeDegrees>-1.6968257725238800048828125</LongitudeDegrees>
            </Position>
            <AltitudeMeters>45.59999847412109375</AltitudeMeters>
            <DistanceMeters>NAN</DistanceMeters>
          </Trackpoint>
          <Trackpoint>
            <Time>2022-07-08T11:29:14.000Z</Time>
            <Position>
              <LatitudeDegrees>43.39192240498960018157958984375</LatitudeDegrees>
              <LongitudeDegrees>-1.6969436220824718475341796875</LongitudeDegrees>
            </Position>
            <AltitudeMeters>46.40000152587890625</AltitudeMeters>
            <DistanceMeters>NAN</DistanceMeters>
          </Trackpoint>
          <Trackpoint>
            <Time>2022-07-08T11:29:15.000Z</Time>
            <Position>
              <LatitudeDegrees>43.391912765800952911376953125</LatitudeDegrees>
              <LongitudeDegrees>-1.69695929624140262603759765625</LongitudeDegrees>
            </Position>
            <AltitudeMeters>46.59999847412109375</AltitudeMeters>
            <DistanceMeters>NAN</DistanceMeters>
          </Trackpoint>
          <Trackpoint>
            <Time>2022-07-08T11:29:26.000Z</Time>
            <Position>
              <LatitudeDegrees>43.39182836003601551055908203125</LatitudeDegrees>
              <LongitudeDegrees>-1.69719013385474681854248046875</LongitudeDegrees>
            </Position>
            <AltitudeMeters>47.59999847412109375</AltitudeMeters>
            <DistanceMeters>NAN</DistanceMeters>
          </Trackpoint>
          <Trackpoint>
            <Time>2022-07-08T11:29:27.000Z</Time>
            <Position>
              <LatitudeDegrees>43.39182131923735141754150390625</LatitudeDegrees>
              <LongitudeDegrees>-1.69720890931785106658935546875</LongitudeDegrees>
            </Position>
            <AltitudeMeters>47.799999237060546875</AltitudeMeters>
            <DistanceMeters>NAN</DistanceMeters>
          </Trackpoint>
          <Trackpoint>
            <Time>2022-07-08T11:29:35.000Z</Time>
            <Position>
              <LatitudeDegrees>43.39175811968743801116943359375</LatitudeDegrees>
              <LongitudeDegrees>-1.6973714344203472137451171875</LongitudeDegrees>
            </Position>
            <AltitudeMeters>48.40000152587890625</AltitudeMeters>
            <DistanceMeters>NAN</DistanceMeters>
          </Trackpoint>
          <Trackpoint>
            <Time>2022-07-08T11:29:37.000Z</Time>
            <Position>
              <LatitudeDegrees>43.39174135588109493255615234375</LatitudeDegrees>
              <LongitudeDegrees>-1.6974160261452198028564453125</LongitudeDegrees>
            </Position>
            <AltitudeMeters>48.799999237060546875</AltitudeMeters>
            <DistanceMeters>NAN</DistanceMeters>
          </Trackpoint>
          <Trackpoint>
            <Time>2022-07-08T11:29:45.000Z</Time>
            <Position>
              <LatitudeDegrees>43.39168377220630645751953125</LatitudeDegrees>
              <LongitudeDegrees>-1.697566397488117218017578125</LongitudeDegrees>
            </Position>
            <AltitudeMeters>49.200000762939453125</AltitudeMeters>
            <DistanceMeters>NAN</DistanceMeters>
          </Trackpoint>
          <Trackpoint>
            <Time>2022-07-08T11:29:48.000Z</Time>
            <Position>
              <LatitudeDegrees>43.39165829122066497802734375</LatitudeDegrees>
              <LongitudeDegrees>-1.69761241413652896881103515625</LongitudeDegrees>
            </Position>
            <AltitudeMeters>49.40000152587890625</AltitudeMeters>
            <DistanceMeters>NAN</DistanceMeters>
          </Trackpoint>
          <Trackpoint>
            <Time>2022-07-08T11:29:49.000Z</Time>
            <Position>
              <LatitudeDegrees>43.39165217243134975433349609375</LatitudeDegrees>
              <LongitudeDegrees>-1.69762976467609405517578125</LongitudeDegrees>
            </Position>
            <AltitudeMeters>49.40000152587890625</AltitudeMeters>
            <DistanceMeters>NAN</DistanceMeters>
          </Trackpoint>
          <Trackpoint>
            <Time>2022-07-08T11:29:52.000Z</Time>
            <Position>
              <LatitudeDegrees>43.3916326425969600677490234375</LatitudeDegrees>
              <LongitudeDegrees>-1.69768483377993106842041015625</LongitudeDegrees>
            </Position>
            <AltitudeMeters>49.799999237060546875</AltitudeMeters>
            <DistanceMeters>NAN</DistanceMeters>
          </Trackpoint>
          <Trackpoint>
            <Time>2022-07-08T11:29:53.000Z</Time>
            <Position>
              <LatitudeDegrees>43.391621075570583343505859375</LatitudeDegrees>
              <LongitudeDegrees>-1.697699166834354400634765625</LongitudeDegrees>
            </Position>
            <AltitudeMeters>49.799999237060546875</AltitudeMeters>
            <DistanceMeters>NAN</DistanceMeters>
          </Trackpoint>
          <Trackpoint>
            <Time>2022-07-08T11:30:02.000Z</Time>
            <Position>
              <LatitudeDegrees>43.39156315661966800689697265625</LatitudeDegrees>
              <LongitudeDegrees>-1.69788549654185771942138671875</LongitudeDegrees>
            </Position>
            <AltitudeMeters>50.799999237060546875</AltitudeMeters>
            <DistanceMeters>NAN</DistanceMeters>
          </Trackpoint>
          <Trackpoint>
            <Time>2022-07-08T11:30:04.000Z</Time>
            <Position>
              <LatitudeDegrees>43.3915501646697521209716796875</LatitudeDegrees>
              <LongitudeDegrees>-1.6979362070560455322265625</LongitudeDegrees>
            </Position>
            <AltitudeMeters>51</AltitudeMeters>
            <DistanceMeters>NAN</DistanceMeters>
          </Trackpoint>
          <Trackpoint>
            <Time>2022-07-08T11:30:10.000Z</Time>
            <Position>
              <LatitudeDegrees>43.3915035612881183624267578125</LatitudeDegrees>
              <LongitudeDegrees>-1.69806956313550472259521484375</LongitudeDegrees>
            </Position>
            <AltitudeMeters>51.59999847412109375</AltitudeMeters>
            <DistanceMeters>NAN</DistanceMeters>
          </Trackpoint>
          <Trackpoint>
            <Time>2022-07-08T11:30:16.000Z</Time>
            <Position>
              <LatitudeDegrees>43.39147615246474742889404296875</LatitudeDegrees>
              <LongitudeDegrees>-1.698211468756198883056640625</LongitudeDegrees>
            </Position>
            <AltitudeMeters>52</AltitudeMeters>
            <DistanceMeters>NAN</DistanceMeters>
          </Trackpoint>
          <Trackpoint>
            <Time>2022-07-08T11:30:17.000Z</Time>
            <Position>
              <LatitudeDegrees>43.391470201313495635986328125</LatitudeDegrees>
              <LongitudeDegrees>-1.69823602773249149322509765625</LongitudeDegrees>
            </Position>
            <AltitudeMeters>52.200000762939453125</AltitudeMeters>
            <DistanceMeters>NAN</DistanceMeters>
          </Trackpoint>
          <Trackpoint>
            <Time>2022-07-08T11:30:24.000Z</Time>
            <Position>
              <LatitudeDegrees>43.391441367566585540771484375</LatitudeDegrees>
              <LongitudeDegrees>-1.6984285600483417510986328125</LongitudeDegrees>
            </Position>
            <AltitudeMeters>52.40000152587890625</AltitudeMeters>
            <DistanceMeters>NAN</DistanceMeters>
          </Trackpoint>
          <Trackpoint>
            <Time>2022-07-08T11:30:31.000Z</Time>
            <Position>
              <LatitudeDegrees>43.3914411999285221099853515625</LatitudeDegrees>
              <LongitudeDegrees>-1.6986880637705326080322265625</LongitudeDegrees>
            </Position>
            <AltitudeMeters>52.799999237060546875</AltitudeMeters>
            <DistanceMeters>NAN</DistanceMeters>
          </Trackpoint>
          <Trackpoint>
            <Time>2022-07-08T11:30:38.000Z</Time>
            <Position>
              <LatitudeDegrees>43.3914579637348651885986328125</LatitudeDegrees>
              <LongitudeDegrees>-1.6989710368216037750244140625</LongitudeDegrees>
            </Position>
            <AltitudeMeters>52.799999237060546875</AltitudeMeters>
            <DistanceMeters>NAN</DistanceMeters>
          </Trackpoint>
          <Trackpoint>
            <Time>2022-07-08T11:30:42.000Z</Time>
            <Position>
              <LatitudeDegrees>43.3914757333695888519287109375</LatitudeDegrees>
              <LongitudeDegrees>-1.699153594672679901123046875</LongitudeDegrees>
            </Position>
            <AltitudeMeters>53.200000762939453125</AltitudeMeters>
            <DistanceMeters>NAN</DistanceMeters>
          </Trackpoint>
          <Trackpoint>
            <Time>2022-07-08T11:30:44.000Z</Time>
            <Position>
              <LatitudeDegrees>43.391483612358570098876953125</LatitudeDegrees>
              <LongitudeDegrees>-1.6992426104843616485595703125</LongitudeDegrees>
            </Position>
            <AltitudeMeters>53.200000762939453125</AltitudeMeters>
            <DistanceMeters>NAN</DistanceMeters>
          </Trackpoint>
          <Trackpoint>
            <Time>2022-07-08T11:30:47.000Z</Time>
            <Position>
              <LatitudeDegrees>43.39149207808077335357666015625</LatitudeDegrees>
              <LongitudeDegrees>-1.69937127269804477691650390625</LongitudeDegrees>
            </Position>
            <AltitudeMeters>53.59999847412109375</AltitudeMeters>
            <DistanceMeters>NAN</DistanceMeters>
          </Trackpoint>
          <Trackpoint>
            <Time>2022-07-08T11:30:53.000Z</Time>
            <Position>
              <LatitudeDegrees>43.3914945088326930999755859375</LatitudeDegrees>
              <LongitudeDegrees>-1.69963262043893337249755859375</LongitudeDegrees>
            </Position>
            <AltitudeMeters>53.799999237060546875</AltitudeMeters>
            <DistanceMeters>NAN</DistanceMeters>
          </Trackpoint>
          <Trackpoint>
            <Time>2022-07-08T11:30:54.000Z</Time>
            <Position>
              <LatitudeDegrees>43.39149660430848598480224609375</LatitudeDegrees>
              <LongitudeDegrees>-1.69967469759285449981689453125</LongitudeDegrees>
            </Position>
            <AltitudeMeters>53.799999237060546875</AltitudeMeters>
            <DistanceMeters>NAN</DistanceMeters>
          </Trackpoint>
          <Trackpoint>
            <Time>2022-07-08T11:31:00.000Z</Time>
            <Position>
              <LatitudeDegrees>43.3914924971759319305419921875</LatitudeDegrees>
              <LongitudeDegrees>-1.6999259032309055328369140625</LongitudeDegrees>
            </Position>
            <AltitudeMeters>52</AltitudeMeters>
            <DistanceMeters>NAN</DistanceMeters>
          </Trackpoint>
          <Trackpoint>
            <Time>2022-07-08T11:31:02.000Z</Time>
            <Position>
              <LatitudeDegrees>43.391484282910823822021484375</LatitudeDegrees>
              <LongitudeDegrees>-1.7000093869864940643310546875</LongitudeDegrees>
            </Position>
            <AltitudeMeters>52.59999847412109375</AltitudeMeters>
            <DistanceMeters>NAN</DistanceMeters>
          </Trackpoint>
          <Trackpoint>
            <Time>2022-07-08T11:31:08.000Z</Time>
            <Position>
              <LatitudeDegrees>43.39148570783436298370361328125</LatitudeDegrees>
              <LongitudeDegrees>-1.700333096086978912353515625</LongitudeDegrees>
            </Position>
            <AltitudeMeters>53</AltitudeMeters>
            <DistanceMeters>NAN</DistanceMeters>
          </Trackpoint>
          <Trackpoint>
            <Time>2022-07-08T11:31:10.000Z</Time>
            <Position>
              <LatitudeDegrees>43.39146911166608333587646484375</LatitudeDegrees>
              <LongitudeDegrees>-1.70045807026326656341552734375</LongitudeDegrees>
            </Position>
            <AltitudeMeters>52.799999237060546875</AltitudeMeters>
            <DistanceMeters>NAN</DistanceMeters>
          </Trackpoint>
          <Trackpoint>
            <Time>2022-07-08T11:31:13.000Z</Time>
            <Position>
              <LatitudeDegrees>43.3914116956293582916259765625</LatitudeDegrees>
              <LongitudeDegrees>-1.7006568051874637603759765625</LongitudeDegrees>
            </Position>
            <AltitudeMeters>52.40000152587890625</AltitudeMeters>
            <DistanceMeters>NAN</DistanceMeters>
          </Trackpoint>
          <Trackpoint>
            <Time>2022-07-08T11:31:18.000Z</Time>
            <Position>
              <LatitudeDegrees>43.391211032867431640625</LatitudeDegrees>
              <LongitudeDegrees>-1.70099300332367420196533203125</LongitudeDegrees>
            </Position>
            <AltitudeMeters>51</AltitudeMeters>
            <DistanceMeters>NAN</DistanceMeters>
          </Trackpoint>
          <Trackpoint>
            <Time>2022-07-08T11:31:22.000Z</Time>
            <Position>
              <LatitudeDegrees>43.39105479419231414794921875</LatitudeDegrees>
              <LongitudeDegrees>-1.70125988312065601348876953125</LongitudeDegrees>
            </Position>
            <AltitudeMeters>50</AltitudeMeters>
            <DistanceMeters>NAN</DistanceMeters>
          </Trackpoint>
          <Trackpoint>
            <Time>2022-07-08T11:31:24.000Z</Time>
            <Position>
              <LatitudeDegrees>43.390985392034053802490234375</LatitudeDegrees>
              <LongitudeDegrees>-1.70140572823584079742431640625</LongitudeDegrees>
            </Position>
            <AltitudeMeters>49.59999847412109375</AltitudeMeters>
            <DistanceMeters>NAN</DistanceMeters>
          </Trackpoint>
          <Trackpoint>
            <Time>2022-07-08T11:31:25.000Z</Time>
            <Position>
              <LatitudeDegrees>43.390951193869113922119140625</LatitudeDegrees>
              <LongitudeDegrees>-1.70147865079343318939208984375</LongitudeDegrees>
            </Position>
            <AltitudeMeters>48.799999237060546875</AltitudeMeters>
            <DistanceMeters>NAN</DistanceMeters>
          </Trackpoint>
          <Trackpoint>
            <Time>2022-07-08T11:31:26.000Z</Time>
            <Position>
              <LatitudeDegrees>43.390919007360935211181640625</LatitudeDegrees>
              <LongitudeDegrees>-1.70155207626521587371826171875</LongitudeDegrees>
            </Position>
            <AltitudeMeters>48</AltitudeMeters>
            <DistanceMeters>NAN</DistanceMeters>
          </Trackpoint>
          <Trackpoint>
            <Time>2022-07-08T11:31:30.000Z</Time>
            <Position>
              <LatitudeDegrees>43.39080333709716796875</LatitudeDegrees>
              <LongitudeDegrees>-1.701855249702930450439453125</LongitudeDegrees>
            </Position>
            <AltitudeMeters>48</AltitudeMeters>
            <DistanceMeters>NAN</DistanceMeters>
          </Trackpoint>
          <Trackpoint>
            <Time>2022-07-08T11:31:31.000Z</Time>
            <Position>
              <LatitudeDegrees>43.3907790295779705047607421875</LatitudeDegrees>
              <LongitudeDegrees>-1.70193462632596492767333984375</LongitudeDegrees>
            </Position>
            <AltitudeMeters>47.799999237060546875</AltitudeMeters>
            <DistanceMeters>NAN</DistanceMeters>
          </Trackpoint>
          <Trackpoint>
            <Time>2022-07-08T11:31:38.000Z</Time>
            <Position>
              <LatitudeDegrees>43.39062924496829509735107421875</LatitudeDegrees>
              <LongitudeDegrees>-1.70250023715198040008544921875</LongitudeDegrees>
            </Position>
            <AltitudeMeters>47.59999847412109375</AltitudeMeters>
            <DistanceMeters>NAN</DistanceMeters>
          </Trackpoint>
          <Trackpoint>
            <Time>2022-07-08T11:31:41.000Z</Time>
            <Position>
              <LatitudeDegrees>43.3905681408941745758056640625</LatitudeDegrees>
              <LongitudeDegrees>-1.70275571756064891815185546875</LongitudeDegrees>
            </Position>
            <AltitudeMeters>46.59999847412109375</AltitudeMeters>
            <DistanceMeters>NAN</DistanceMeters>
          </Trackpoint>
          <Trackpoint>
            <Time>2022-07-08T11:31:45.000Z</Time>
            <Position>
              <LatitudeDegrees>43.39047552086412906646728515625</LatitudeDegrees>
              <LongitudeDegrees>-1.7030806839466094970703125</LongitudeDegrees>
            </Position>
            <AltitudeMeters>45.40000152587890625</AltitudeMeters>
            <DistanceMeters>NAN</DistanceMeters>
          </Trackpoint>
          <Trackpoint>
            <Time>2022-07-08T11:31:47.000Z</Time>
            <Position>
              <LatitudeDegrees>43.39042673818767070770263671875</LatitudeDegrees>
              <LongitudeDegrees>-1.70322041027247905731201171875</LongitudeDegrees>
            </Position>
            <AltitudeMeters>45.200000762939453125</AltitudeMeters>
            <DistanceMeters>NAN</DistanceMeters>
          </Trackpoint>
          <Trackpoint>
            <Time>2022-07-08T11:31:52.000Z</Time>
            <Position>
              <LatitudeDegrees>43.39033420197665691375732421875</LatitudeDegrees>
              <LongitudeDegrees>-1.7034825123846530914306640625</LongitudeDegrees>
            </Position>
            <AltitudeMeters>45.200000762939453125</AltitudeMeters>
            <DistanceMeters>NAN</DistanceMeters>
          </Trackpoint>
          <Trackpoint>
            <Time>2022-07-08T11:31:58.000Z</Time>
            <Position>
              <LatitudeDegrees>43.39026094414293766021728515625</LatitudeDegrees>
              <LongitudeDegrees>-1.703671775758266448974609375</LongitudeDegrees>
            </Position>
            <AltitudeMeters>46.59999847412109375</AltitudeMeters>
            <DistanceMeters>NAN</DistanceMeters>
          </Trackpoint>
          <Trackpoint>
            <Time>2022-07-08T11:31:59.000Z</Time>
            <Position>
              <LatitudeDegrees>43.39024971239268779754638671875</LatitudeDegrees>
              <LongitudeDegrees>-1.70369465835392475128173828125</LongitudeDegrees>
            </Position>
            <AltitudeMeters>46.799999237060546875</AltitudeMeters>
            <DistanceMeters>NAN</DistanceMeters>
          </Trackpoint>
          <Trackpoint>
            <Time>2022-07-08T11:32:02.000Z</Time>
            <Position>
              <LatitudeDegrees>43.39021668769419193267822265625</LatitudeDegrees>
              <LongitudeDegrees>-1.70376523397862911224365234375</LongitudeDegrees>
            </Position>
            <AltitudeMeters>47</AltitudeMeters>
            <DistanceMeters>NAN</DistanceMeters>
          </Trackpoint>
          <Trackpoint>
            <Time>2022-07-08T11:32:06.000Z</Time>
            <Position>
              <LatitudeDegrees>43.39018835686147212982177734375</LatitudeDegrees>
              <LongitudeDegrees>-1.70385726727545261383056640625</LongitudeDegrees>
            </Position>
            <AltitudeMeters>47.59999847412109375</AltitudeMeters>
            <DistanceMeters>NAN</DistanceMeters>
          </Trackpoint>
          <Trackpoint>
            <Time>2022-07-08T11:32:07.000Z</Time>
            <Position>
              <LatitudeDegrees>43.3901778794825077056884765625</LatitudeDegrees>
              <LongitudeDegrees>-1.703876964747905731201171875</LongitudeDegrees>
            </Position>
            <AltitudeMeters>47.59999847412109375</AltitudeMeters>
            <DistanceMeters>NAN</DistanceMeters>
          </Trackpoint>
          <Trackpoint>
            <Time>2022-07-08T11:32:12.000Z</Time>
            <Position>
              <LatitudeDegrees>43.39013337157666683197021484375</LatitudeDegrees>
              <LongitudeDegrees>-1.70399355702102184295654296875</LongitudeDegrees>
            </Position>
            <AltitudeMeters>48.59999847412109375</AltitudeMeters>
            <DistanceMeters>NAN</DistanceMeters>
          </Trackpoint>
          <Trackpoint>
            <Time>2022-07-08T11:32:13.000Z</Time>
            <Position>
              <LatitudeDegrees>43.39012599550187587738037109375</LatitudeDegrees>
              <LongitudeDegrees>-1.70401467941701412200927734375</LongitudeDegrees>
            </Position>
            <AltitudeMeters>48.59999847412109375</AltitudeMeters>
            <DistanceMeters>NAN</DistanceMeters>
          </Trackpoint>
          <Trackpoint>
            <Time>2022-07-08T11:32:16.000Z</Time>
            <Position>
              <LatitudeDegrees>43.390107639133930206298828125</LatitudeDegrees>
              <LongitudeDegrees>-1.70408257283270359039306640625</LongitudeDegrees>
            </Position>
            <AltitudeMeters>49</AltitudeMeters>
            <DistanceMeters>NAN</DistanceMeters>
          </Trackpoint>
          <Trackpoint>
            <Time>2022-07-08T11:32:18.000Z</Time>
            <Position>
              <LatitudeDegrees>43.390088863670825958251953125</LatitudeDegrees>
              <LongitudeDegrees>-1.70412481762468814849853515625</LongitudeDegrees>
            </Position>
            <AltitudeMeters>49.200000762939453125</AltitudeMeters>
            <DistanceMeters>NAN</DistanceMeters>
          </Trackpoint>
          <Trackpoint>
            <Time>2022-07-08T11:32:22.000Z</Time>
            <Position>
              <LatitudeDegrees>43.39005374349653720855712890625</LatitudeDegrees>
              <LongitudeDegrees>-1.7042100615799427032470703125</LongitudeDegrees>
            </Position>
            <AltitudeMeters>49.40000152587890625</AltitudeMeters>
            <DistanceMeters>NAN</DistanceMeters>
          </Trackpoint>
          <Trackpoint>
            <Time>2022-07-08T11:32:24.000Z</Time>
            <Position>
              <LatitudeDegrees>43.39004133827984333038330078125</LatitudeDegrees>
              <LongitudeDegrees>-1.7042509652674198150634765625</LongitudeDegrees>
            </Position>
            <AltitudeMeters>49.799999237060546875</AltitudeMeters>
            <DistanceMeters>NAN</DistanceMeters>
          </Trackpoint>
          <Trackpoint>
            <Time>2022-07-08T11:32:26.000Z</Time>
            <Position>
              <LatitudeDegrees>43.390025831758975982666015625</LatitudeDegrees>
              <LongitudeDegrees>-1.70429245568811893463134765625</LongitudeDegrees>
            </Position>
            <AltitudeMeters>49.799999237060546875</AltitudeMeters>
            <DistanceMeters>NAN</DistanceMeters>
          </Trackpoint>
          <Trackpoint>
            <Time>2022-07-08T11:32:33.000Z</Time>
            <Position>
              <LatitudeDegrees>43.389974869787693023681640625</LatitudeDegrees>
              <LongitudeDegrees>-1.7044363729655742645263671875</LongitudeDegrees>
            </Position>
            <AltitudeMeters>50.799999237060546875</AltitudeMeters>
            <DistanceMeters>NAN</DistanceMeters>
          </Trackpoint>
          <Trackpoint>
            <Time>2022-07-08T11:32:36.000Z</Time>
            <Position>
              <LatitudeDegrees>43.389960788190364837646484375</LatitudeDegrees>
              <LongitudeDegrees>-1.70450435020029544830322265625</LongitudeDegrees>
            </Position>
            <AltitudeMeters>50.799999237060546875</AltitudeMeters>
            <DistanceMeters>NAN</DistanceMeters>
          </Trackpoint>
          <Trackpoint>
            <Time>2022-07-08T11:32:45.000Z</Time>
            <Position>
              <LatitudeDegrees>43.3899034559726715087890625</LatitudeDegrees>
              <LongitudeDegrees>-1.7046931944787502288818359375</LongitudeDegrees>
            </Position>
            <AltitudeMeters>51.799999237060546875</AltitudeMeters>
            <DistanceMeters>NAN</DistanceMeters>
          </Trackpoint>
          <Trackpoint>
            <Time>2022-07-08T11:32:48.000Z</Time>
            <Position>
              <LatitudeDegrees>43.38988409377634525299072265625</LatitudeDegrees>
              <LongitudeDegrees>-1.70476016588509082794189453125</LongitudeDegrees>
            </Position>
            <AltitudeMeters>52.200000762939453125</AltitudeMeters>
            <DistanceMeters>NAN</DistanceMeters>
          </Trackpoint>
          <Trackpoint>
            <Time>2022-07-08T11:32:58.000Z</Time>
            <Position>
              <LatitudeDegrees>43.3898338861763477325439453125</LatitudeDegrees>
              <LongitudeDegrees>-1.7049808613955974578857421875</LongitudeDegrees>
            </Position>
            <AltitudeMeters>52.40000152587890625</AltitudeMeters>
            <DistanceMeters>NAN</DistanceMeters>
          </Trackpoint>
          <Trackpoint>
            <Time>2022-07-08T11:33:08.000Z</Time>
            <Position>
              <LatitudeDegrees>43.3897624723613262176513671875</LatitudeDegrees>
              <LongitudeDegrees>-1.7052011378109455108642578125</LongitudeDegrees>
            </Position>
            <AltitudeMeters>52.59999847412109375</AltitudeMeters>
            <DistanceMeters>NAN</DistanceMeters>
          </Trackpoint>
          <Trackpoint>
            <Time>2022-07-08T11:33:09.000Z</Time>
            <Position>
              <LatitudeDegrees>43.38975660502910614013671875</LatitudeDegrees>
              <LongitudeDegrees>-1.7052249424159526824951171875</LongitudeDegrees>
            </Position>
            <AltitudeMeters>52.799999237060546875</AltitudeMeters>
            <DistanceMeters>NAN</DistanceMeters>
          </Trackpoint>
          <Trackpoint>
            <Time>2022-07-08T11:33:17.000Z</Time>
            <Position>
              <LatitudeDegrees>43.38971042074263095855712890625</LatitudeDegrees>
              <LongitudeDegrees>-1.70540657825767993927001953125</LongitudeDegrees>
            </Position>
            <AltitudeMeters>53.799999237060546875</AltitudeMeters>
            <DistanceMeters>NAN</DistanceMeters>
          </Trackpoint>
          <Trackpoint>
            <Time>2022-07-08T11:33:19.000Z</Time>
            <Position>
              <LatitudeDegrees>43.3897011168301105499267578125</LatitudeDegrees>
              <LongitudeDegrees>-1.705450750887393951416015625</LongitudeDegrees>
            </Position>
            <AltitudeMeters>53.799999237060546875</AltitudeMeters>
            <DistanceMeters>NAN</DistanceMeters>
          </Trackpoint>
          <Trackpoint>
            <Time>2022-07-08T11:33:31.000Z</Time>
            <Position>
              <LatitudeDegrees>43.38960195891559123992919921875</LatitudeDegrees>
              <LongitudeDegrees>-1.7057416029274463653564453125</LongitudeDegrees>
            </Position>
            <AltitudeMeters>55</AltitudeMeters>
            <DistanceMeters>NAN</DistanceMeters>
          </Trackpoint>
          <Trackpoint>
            <Time>2022-07-08T11:33:33.000Z</Time>
            <Position>
              <LatitudeDegrees>43.38958636857569217681884765625</LatitudeDegrees>
              <LongitudeDegrees>-1.7058026231825351715087890625</LongitudeDegrees>
            </Position>
            <AltitudeMeters>55</AltitudeMeters>
            <DistanceMeters>NAN</DistanceMeters>
          </Trackpoint>
          <Trackpoint>
            <Time>2022-07-08T11:33:40.000Z</Time>
            <Position>
              <LatitudeDegrees>43.38950489647686481475830078125</LatitudeDegrees>
              <LongitudeDegrees>-1.70600437559187412261962890625</LongitudeDegrees>
            </Position>
            <AltitudeMeters>55.59999847412109375</AltitudeMeters>
            <DistanceMeters>NAN</DistanceMeters>
          </Trackpoint>
          <Trackpoint>
            <Time>2022-07-08T11:33:41.000Z</Time>
            <Position>
              <LatitudeDegrees>43.3894855342805385589599609375</LatitudeDegrees>
              <LongitudeDegrees>-1.706032790243625640869140625</LongitudeDegrees>
            </Position>
            <AltitudeMeters>55.59999847412109375</AltitudeMeters>
            <DistanceMeters>NAN</DistanceMeters>
          </Trackpoint>
          <Trackpoint>
            <Time>2022-07-08T11:33:44.000Z</Time>
            <Position>
              <LatitudeDegrees>43.3894318901002407073974609375</LatitudeDegrees>
              <LongitudeDegrees>-1.706124655902385711669921875</LongitudeDegrees>
            </Position>
            <AltitudeMeters>55.59999847412109375</AltitudeMeters>
            <DistanceMeters>NAN</DistanceMeters>
          </Trackpoint>
          <Trackpoint>
            <Time>2022-07-08T11:33:48.000Z</Time>
            <Position>
              <LatitudeDegrees>43.38934664614498615264892578125</LatitudeDegrees>
              <LongitudeDegrees>-1.70625574886798858642578125</LongitudeDegrees>
            </Position>
            <AltitudeMeters>55.59999847412109375</AltitudeMeters>
            <DistanceMeters>NAN</DistanceMeters>
          </Trackpoint>
          <Trackpoint>
            <Time>2022-07-08T11:33:50.000Z</Time>
            <Position>
              <LatitudeDegrees>43.38930674828588962554931640625</LatitudeDegrees>
              <LongitudeDegrees>-1.7063233070075511932373046875</LongitudeDegrees>
            </Position>
            <AltitudeMeters>55.40000152587890625</AltitudeMeters>
            <DistanceMeters>NAN</DistanceMeters>
          </Trackpoint>
          <Trackpoint>
            <Time>2022-07-08T11:33:53.000Z</Time>
            <Position>
              <LatitudeDegrees>43.389242626726627349853515625</LatitudeDegrees>
              <LongitudeDegrees>-1.7064326070249080657958984375</LongitudeDegrees>
            </Position>
            <AltitudeMeters>55.200000762939453125</AltitudeMeters>
            <DistanceMeters>NAN</DistanceMeters>
          </Trackpoint>
          <Trackpoint>
            <Time>2022-07-08T11:33:57.000Z</Time>
            <Position>
              <LatitudeDegrees>43.38914581574499607086181640625</LatitudeDegrees>
              <LongitudeDegrees>-1.70660820789635181427001953125</LongitudeDegrees>
            </Position>
            <AltitudeMeters>54.799999237060546875</AltitudeMeters>
            <DistanceMeters>NAN</DistanceMeters>
          </Trackpoint>
          <Trackpoint>
            <Time>2022-07-08T11:33:59.000Z</Time>
            <Position>
              <LatitudeDegrees>43.3891049958765506744384765625</LatitudeDegrees>
              <LongitudeDegrees>-1.7067175917327404022216796875</LongitudeDegrees>
            </Position>
            <AltitudeMeters>54.799999237060546875</AltitudeMeters>
            <DistanceMeters>NAN</DistanceMeters>
          </Trackpoint>
          <Trackpoint>
            <Time>2022-07-08T11:34:01.000Z</Time>
            <Position>
              <LatitudeDegrees>43.3890748210251331329345703125</LatitudeDegrees>
              <LongitudeDegrees>-1.70681255869567394256591796875</LongitudeDegrees>
            </Position>
            <AltitudeMeters>54.799999237060546875</AltitudeMeters>
            <DistanceMeters>NAN</DistanceMeters>
          </Trackpoint>
          <Trackpoint>
            <Time>2022-07-08T11:34:08.000Z</Time>
            <Position>
              <LatitudeDegrees>43.38895839639008045196533203125</LatitudeDegrees>
              <LongitudeDegrees>-1.70724439434707164764404296875</LongitudeDegrees>
            </Position>
            <AltitudeMeters>54.59999847412109375</AltitudeMeters>
            <DistanceMeters>NAN</DistanceMeters>
          </Trackpoint>
          <Trackpoint>
            <Time>2022-07-08T11:34:11.000Z</Time>
            <Position>
              <LatitudeDegrees>43.38892671279609203338623046875</LatitudeDegrees>
              <LongitudeDegrees>-1.7074401117861270904541015625</LongitudeDegrees>
            </Position>
            <AltitudeMeters>53.799999237060546875</AltitudeMeters>
            <DistanceMeters>NAN</DistanceMeters>
          </Trackpoint>
          <Trackpoint>
            <Time>2022-07-08T11:34:15.000Z</Time>
            <Position>
              <LatitudeDegrees>43.38889737613499164581298828125</LatitudeDegrees>
              <LongitudeDegrees>-1.70770204626023769378662109375</LongitudeDegrees>
            </Position>
            <AltitudeMeters>53.200000762939453125</AltitudeMeters>
            <DistanceMeters>NAN</DistanceMeters>
          </Trackpoint>
          <Trackpoint>
            <Time>2022-07-08T11:34:18.000Z</Time>
            <Position>
              <LatitudeDegrees>43.38887994177639484405517578125</LatitudeDegrees>
              <LongitudeDegrees>-1.7078927345573902130126953125</LongitudeDegrees>
            </Position>
            <AltitudeMeters>52.59999847412109375</AltitudeMeters>
            <DistanceMeters>NAN</DistanceMeters>
          </Trackpoint>
          <Trackpoint>
            <Time>2022-07-08T11:34:24.000Z</Time>
            <Position>
              <LatitudeDegrees>43.38882026262581348419189453125</LatitudeDegrees>
              <LongitudeDegrees>-1.70833580195903778076171875</LongitudeDegrees>
            </Position>
            <AltitudeMeters>51.799999237060546875</AltitudeMeters>
            <DistanceMeters>NAN</DistanceMeters>
          </Trackpoint>
          <Trackpoint>
            <Time>2022-07-08T11:34:25.000Z</Time>
            <Position>
              <LatitudeDegrees>43.38880048133432865142822265625</LatitudeDegrees>
              <LongitudeDegrees>-1.70841484330594539642333984375</LongitudeDegrees>
            </Position>
            <AltitudeMeters>51.59999847412109375</AltitudeMeters>
            <DistanceMeters>NAN</DistanceMeters>
          </Trackpoint>
          <Trackpoint>
            <Time>2022-07-08T11:34:26.000Z</Time>
            <Position>
              <LatitudeDegrees>43.38877365924417972564697265625</LatitudeDegrees>
              <LongitudeDegrees>-1.7084945552051067352294921875</LongitudeDegrees>
            </Position>
            <AltitudeMeters>51.40000152587890625</AltitudeMeters>
            <DistanceMeters>NAN</DistanceMeters>
          </Trackpoint>
          <Trackpoint>
            <Time>2022-07-08T11:34:28.000Z</Time>
            <Position>
              <LatitudeDegrees>43.3886952884495258331298828125</LatitudeDegrees>
              <LongitudeDegrees>-1.70864819549024105072021484375</LongitudeDegrees>
            </Position>
            <AltitudeMeters>51</AltitudeMeters>
            <DistanceMeters>NAN</DistanceMeters>
          </Trackpoint>
          <Trackpoint>
            <Time>2022-07-08T11:34:29.000Z</Time>
            <Position>
              <LatitudeDegrees>43.3886496908962726593017578125</LatitudeDegrees>
              <LongitudeDegrees>-1.7087201960384845733642578125</LongitudeDegrees>
            </Position>
            <AltitudeMeters>50.799999237060546875</AltitudeMeters>
            <DistanceMeters>NAN</DistanceMeters>
          </Trackpoint>
          <Trackpoint>
            <Time>2022-07-08T11:34:31.000Z</Time>
            <Position>
              <LatitudeDegrees>43.38853351771831512451171875</LatitudeDegrees>
              <LongitudeDegrees>-1.708848774433135986328125</LongitudeDegrees>
            </Position>
            <AltitudeMeters>50.59999847412109375</AltitudeMeters>
            <DistanceMeters>NAN</DistanceMeters>
          </Trackpoint>
          <Trackpoint>
            <Time>2022-07-08T11:34:32.000Z</Time>
            <Position>
              <LatitudeDegrees>43.3884703181684017181396484375</LatitudeDegrees>
              <LongitudeDegrees>-1.70890535227954387664794921875</LongitudeDegrees>
            </Position>
            <AltitudeMeters>50.40000152587890625</AltitudeMeters>
            <DistanceMeters>NAN</DistanceMeters>
          </Trackpoint>
          <Trackpoint>
            <Time>2022-07-08T11:34:33.000Z</Time>
            <Position>
              <LatitudeDegrees>43.388400413095951080322265625</LatitudeDegrees>
              <LongitudeDegrees>-1.70895027928054332733154296875</LongitudeDegrees>
            </Position>
            <AltitudeMeters>50.40000152587890625</AltitudeMeters>
            <DistanceMeters>NAN</DistanceMeters>
          </Trackpoint>
          <Trackpoint>
            <Time>2022-07-08T11:34:36.000Z</Time>
            <Position>
              <LatitudeDegrees>43.388166725635528564453125</LatitudeDegrees>
              <LongitudeDegrees>-1.70904583297669887542724609375</LongitudeDegrees>
            </Position>
            <AltitudeMeters>50.200000762939453125</AltitudeMeters>
            <DistanceMeters>NAN</DistanceMeters>
          </Trackpoint>
          <Trackpoint>
            <Time>2022-07-08T11:34:38.000Z</Time>
            <Position>
              <LatitudeDegrees>43.38801073841750621795654296875</LatitudeDegrees>
              <LongitudeDegrees>-1.7090997286140918731689453125</LongitudeDegrees>
            </Position>
            <AltitudeMeters>49.40000152587890625</AltitudeMeters>
            <DistanceMeters>NAN</DistanceMeters>
          </Trackpoint>
          <Trackpoint>
            <Time>2022-07-08T11:34:42.000Z</Time>
            <Position>
              <LatitudeDegrees>43.38767898268997669219970703125</LatitudeDegrees>
              <LongitudeDegrees>-1.7092083580791950225830078125</LongitudeDegrees>
            </Position>
            <AltitudeMeters>48.200000762939453125</AltitudeMeters>
            <DistanceMeters>NAN</DistanceMeters>
          </Trackpoint>
          <Trackpoint>
            <Time>2022-07-08T11:34:44.000Z</Time>
            <Position>
              <LatitudeDegrees>43.3875057287514209747314453125</LatitudeDegrees>
              <LongitudeDegrees>-1.70926342718303203582763671875</LongitudeDegrees>
            </Position>
            <AltitudeMeters>46.59999847412109375</AltitudeMeters>
            <DistanceMeters>NAN</DistanceMeters>
          </Trackpoint>
          <Trackpoint>
            <Time>2022-07-08T11:34:46.000Z</Time>
            <Position>
              <LatitudeDegrees>43.38732928968966007232666015625</LatitudeDegrees>
              <LongitudeDegrees>-1.709327213466167449951171875</LongitudeDegrees>
            </Position>
            <AltitudeMeters>44.799999237060546875</AltitudeMeters>
            <DistanceMeters>NAN</DistanceMeters>
          </Trackpoint>
          <Trackpoint>
            <Time>2022-07-08T11:34:48.000Z</Time>
            <Position>
              <LatitudeDegrees>43.38715218007564544677734375</LatitudeDegrees>
              <LongitudeDegrees>-1.7093927599489688873291015625</LongitudeDegrees>
            </Position>
            <AltitudeMeters>43.40000152587890625</AltitudeMeters>
            <DistanceMeters>NAN</DistanceMeters>
          </Trackpoint>
          <Trackpoint>
            <Time>2022-07-08T11:34:51.000Z</Time>
            <Position>
              <LatitudeDegrees>43.3868663571774959564208984375</LatitudeDegrees>
              <LongitudeDegrees>-1.70951169915497303009033203125</LongitudeDegrees>
            </Position>
            <AltitudeMeters>42.799999237060546875</AltitudeMeters>
            <DistanceMeters>NAN</DistanceMeters>
          </Trackpoint>
          <Trackpoint>
            <Time>2022-07-08T11:34:53.000Z</Time>
            <Position>
              <LatitudeDegrees>43.38669042102992534637451171875</LatitudeDegrees>
              <LongitudeDegrees>-1.7096287943422794342041015625</LongitudeDegrees>
            </Position>
            <AltitudeMeters>42.40000152587890625</AltitudeMeters>
            <DistanceMeters>NAN</DistanceMeters>
          </Trackpoint>
          <Trackpoint>
            <Time>2022-07-08T11:34:55.000Z</Time>
            <Position>
              <LatitudeDegrees>43.386544995009899139404296875</LatitudeDegrees>
              <LongitudeDegrees>-1.70979316346347332000732421875</LongitudeDegrees>
            </Position>
            <AltitudeMeters>41.59999847412109375</AltitudeMeters>
            <DistanceMeters>NAN</DistanceMeters>
          </Trackpoint>
          <Trackpoint>
            <Time>2022-07-08T11:34:56.000Z</Time>
            <Position>
              <LatitudeDegrees>43.38648439384996891021728515625</LatitudeDegrees>
              <LongitudeDegrees>-1.709894500672817230224609375</LongitudeDegrees>
            </Position>
            <AltitudeMeters>41.200000762939453125</AltitudeMeters>
            <DistanceMeters>NAN</DistanceMeters>
          </Trackpoint>
          <Trackpoint>
            <Time>2022-07-08T11:34:57.000Z</Time>
            <Position>
              <LatitudeDegrees>43.38642706163227558135986328125</LatitudeDegrees>
              <LongitudeDegrees>-1.7100029624998569488525390625</LongitudeDegrees>
            </Position>
            <AltitudeMeters>40.799999237060546875</AltitudeMeters>
            <DistanceMeters>NAN</DistanceMeters>
          </Trackpoint>
          <Trackpoint>
            <Time>2022-07-08T11:34:59.000Z</Time>
            <Position>
              <LatitudeDegrees>43.3863414824008941650390625</LatitudeDegrees>
              <LongitudeDegrees>-1.710240840911865234375</LongitudeDegrees>
            </Position>
            <AltitudeMeters>40</AltitudeMeters>
            <DistanceMeters>NAN</DistanceMeters>
          </Trackpoint>
          <Trackpoint>
            <Time>2022-07-08T11:35:01.000Z</Time>
            <Position>
              <LatitudeDegrees>43.38630317710340023040771484375</LatitudeDegrees>
              <LongitudeDegrees>-1.71050042845308780670166015625</LongitudeDegrees>
            </Position>
            <AltitudeMeters>38.59999847412109375</AltitudeMeters>
            <DistanceMeters>NAN</DistanceMeters>
          </Trackpoint>
          <Trackpoint>
            <Time>2022-07-08T11:35:02.000Z</Time>
            <Position>
              <LatitudeDegrees>43.3862947113811969757080078125</LatitudeDegrees>
              <LongitudeDegrees>-1.71063839457929134368896484375</LongitudeDegrees>
            </Position>
            <AltitudeMeters>38.200000762939453125</AltitudeMeters>
            <DistanceMeters>NAN</DistanceMeters>
          </Trackpoint>
          <Trackpoint>
            <Time>2022-07-08T11:35:03.000Z</Time>
            <Position>
              <LatitudeDegrees>43.38630233891308307647705078125</LatitudeDegrees>
              <LongitudeDegrees>-1.71077166683971881866455078125</LongitudeDegrees>
            </Position>
            <AltitudeMeters>37.799999237060546875</AltitudeMeters>
            <DistanceMeters>NAN</DistanceMeters>
          </Trackpoint>
          <Trackpoint>
            <Time>2022-07-08T11:35:04.000Z</Time>
            <Position>
              <LatitudeDegrees>43.38632144965231418609619140625</LatitudeDegrees>
              <LongitudeDegrees>-1.71089890412986278533935546875</LongitudeDegrees>
            </Position>
            <AltitudeMeters>37.40000152587890625</AltitudeMeters>
            <DistanceMeters>NAN</DistanceMeters>
          </Trackpoint>
          <Trackpoint>
            <Time>2022-07-08T11:35:06.000Z</Time>
            <Position>
              <LatitudeDegrees>43.3863731659948825836181640625</LatitudeDegrees>
              <LongitudeDegrees>-1.71115304343402385711669921875</LongitudeDegrees>
            </Position>
            <AltitudeMeters>36.40000152587890625</AltitudeMeters>
            <DistanceMeters>NAN</DistanceMeters>
          </Trackpoint>
          <Trackpoint>
            <Time>2022-07-08T11:35:07.000Z</Time>
            <Position>
              <LatitudeDegrees>43.38640208356082439422607421875</LatitudeDegrees>
              <LongitudeDegrees>-1.71128396876156330108642578125</LongitudeDegrees>
            </Position>
            <AltitudeMeters>35.40000152587890625</AltitudeMeters>
            <DistanceMeters>NAN</DistanceMeters>
          </Trackpoint>
          <Trackpoint>
            <Time>2022-07-08T11:35:08.000Z</Time>
            <Position>
              <LatitudeDegrees>43.38643393479287624359130859375</LatitudeDegrees>
              <LongitudeDegrees>-1.71140600927174091339111328125</LongitudeDegrees>
            </Position>
            <AltitudeMeters>34.799999237060546875</AltitudeMeters>
            <DistanceMeters>NAN</DistanceMeters>
          </Trackpoint>
          <Trackpoint>
            <Time>2022-07-08T11:35:10.000Z</Time>
            <Position>
              <LatitudeDegrees>43.3864915184676647186279296875</LatitudeDegrees>
              <LongitudeDegrees>-1.71164824627339839935302734375</LongitudeDegrees>
            </Position>
            <AltitudeMeters>34.200000762939453125</AltitudeMeters>
            <DistanceMeters>NAN</DistanceMeters>
          </Trackpoint>
          <Trackpoint>
            <Time>2022-07-08T11:35:12.000Z</Time>
            <Position>
              <LatitudeDegrees>43.38654600083827972412109375</LatitudeDegrees>
              <LongitudeDegrees>-1.71189199201762676239013671875</LongitudeDegrees>
            </Position>
            <AltitudeMeters>33</AltitudeMeters>
            <DistanceMeters>NAN</DistanceMeters>
          </Trackpoint>
          <Trackpoint>
            <Time>2022-07-08T11:35:14.000Z</Time>
            <Position>
              <LatitudeDegrees>43.38660391978919506072998046875</LatitudeDegrees>
              <LongitudeDegrees>-1.71213691122829914093017578125</LongitudeDegrees>
            </Position>
            <AltitudeMeters>31.6000003814697265625</AltitudeMeters>
            <DistanceMeters>NAN</DistanceMeters>
          </Trackpoint>
          <Trackpoint>
            <Time>2022-07-08T11:35:16.000Z</Time>
            <Position>
              <LatitudeDegrees>43.38666728697717189788818359375</LatitudeDegrees>
              <LongitudeDegrees>-1.71238032169640064239501953125</LongitudeDegrees>
            </Position>
            <AltitudeMeters>30.3999996185302734375</AltitudeMeters>
            <DistanceMeters>NAN</DistanceMeters>
          </Trackpoint>
          <Trackpoint>
            <Time>2022-07-08T11:35:18.000Z</Time>
            <Position>
              <LatitudeDegrees>43.38672160170972347259521484375</LatitudeDegrees>
              <LongitudeDegrees>-1.712612248957157135009765625</LongitudeDegrees>
            </Position>
            <AltitudeMeters>29.6000003814697265625</AltitudeMeters>
            <DistanceMeters>NAN</DistanceMeters>
          </Trackpoint>
          <Trackpoint>
            <Time>2022-07-08T11:35:19.000Z</Time>
            <Position>
              <LatitudeDegrees>43.38674691505730152130126953125</LatitudeDegrees>
              <LongitudeDegrees>-1.71271643601357936859130859375</LongitudeDegrees>
            </Position>
            <AltitudeMeters>29.6000003814697265625</AltitudeMeters>
            <DistanceMeters>NAN</DistanceMeters>
          </Trackpoint>
          <Trackpoint>
            <Time>2022-07-08T11:35:20.000Z</Time>
            <Position>
              <LatitudeDegrees>43.386770971119403839111328125</LatitudeDegrees>
              <LongitudeDegrees>-1.71281483955681324005126953125</LongitudeDegrees>
            </Position>
            <AltitudeMeters>29.200000762939453125</AltitudeMeters>
            <DistanceMeters>NAN</DistanceMeters>
          </Trackpoint>
          <Trackpoint>
            <Time>2022-07-08T11:35:23.000Z</Time>
            <Position>
              <LatitudeDegrees>43.38682821951806545257568359375</LatitudeDegrees>
              <LongitudeDegrees>-1.7130781151354312896728515625</LongitudeDegrees>
            </Position>
            <AltitudeMeters>29.3999996185302734375</AltitudeMeters>
            <DistanceMeters>NAN</DistanceMeters>
          </Trackpoint>
          <Trackpoint>
            <Time>2022-07-08T11:35:26.000Z</Time>
            <Position>
              <LatitudeDegrees>43.38685269467532634735107421875</LatitudeDegrees>
              <LongitudeDegrees>-1.713294200599193572998046875</LongitudeDegrees>
            </Position>
            <AltitudeMeters>29.799999237060546875</AltitudeMeters>
            <DistanceMeters>NAN</DistanceMeters>
          </Trackpoint>
          <Trackpoint>
            <Time>2022-07-08T11:35:28.000Z</Time>
            <Position>
              <LatitudeDegrees>43.38685571216046810150146484375</LatitudeDegrees>
              <LongitudeDegrees>-1.7134232819080352783203125</LongitudeDegrees>
            </Position>
            <AltitudeMeters>30.200000762939453125</AltitudeMeters>
            <DistanceMeters>NAN</DistanceMeters>
          </Trackpoint>
          <Trackpoint>
            <Time>2022-07-08T11:35:29.000Z</Time>
            <Position>
              <LatitudeDegrees>43.38685068301856517791748046875</LatitudeDegrees>
              <LongitudeDegrees>-1.71348053030669689178466796875</LongitudeDegrees>
            </Position>
            <AltitudeMeters>30.200000762939453125</AltitudeMeters>
            <DistanceMeters>NAN</DistanceMeters>
          </Trackpoint>
          <Trackpoint>
            <Time>2022-07-08T11:35:32.000Z</Time>
            <Position>
              <LatitudeDegrees>43.38683442212641239166259765625</LatitudeDegrees>
              <LongitudeDegrees>-1.71362914144992828369140625</LongitudeDegrees>
            </Position>
            <AltitudeMeters>30.3999996185302734375</AltitudeMeters>
            <DistanceMeters>NAN</DistanceMeters>
          </Trackpoint>
          <Trackpoint>
            <Time>2022-07-08T11:35:34.000Z</Time>
            <Position>
              <LatitudeDegrees>43.3868160657584667205810546875</LatitudeDegrees>
              <LongitudeDegrees>-1.71371723525226116180419921875</LongitudeDegrees>
            </Position>
            <AltitudeMeters>30.6000003814697265625</AltitudeMeters>
            <DistanceMeters>NAN</DistanceMeters>
          </Trackpoint>
          <Trackpoint>
            <Time>2022-07-08T11:35:41.000Z</Time>
            <Position>
              <LatitudeDegrees>43.38674582540988922119140625</LatitudeDegrees>
              <LongitudeDegrees>-1.71397254802286624908447265625</LongitudeDegrees>
            </Position>
            <AltitudeMeters>31.200000762939453125</AltitudeMeters>
            <DistanceMeters>NAN</DistanceMeters>
          </Trackpoint>
          <Trackpoint>
            <Time>2022-07-08T11:35:42.000Z</Time>
            <Position>
              <LatitudeDegrees>43.38673601858317852020263671875</LatitudeDegrees>
              <LongitudeDegrees>-1.71400674618780612945556640625</LongitudeDegrees>
            </Position>
            <AltitudeMeters>31.3999996185302734375</AltitudeMeters>
            <DistanceMeters>NAN</DistanceMeters>
          </Trackpoint>
          <Trackpoint>
            <Time>2022-07-08T11:35:49.000Z</Time>
            <Position>
              <LatitudeDegrees>43.38665521703660488128662109375</LatitudeDegrees>
              <LongitudeDegrees>-1.71422685496509075164794921875</LongitudeDegrees>
            </Position>
            <AltitudeMeters>31.799999237060546875</AltitudeMeters>
            <DistanceMeters>NAN</DistanceMeters>
          </Trackpoint>
          <Trackpoint>
            <Time>2022-07-08T11:35:59.000Z</Time>
            <Position>
              <LatitudeDegrees>43.38657240383327007293701171875</LatitudeDegrees>
              <LongitudeDegrees>-1.7145580239593982696533203125</LongitudeDegrees>
            </Position>
            <AltitudeMeters>32</AltitudeMeters>
            <DistanceMeters>NAN</DistanceMeters>
          </Trackpoint>
          <Trackpoint>
            <Time>2022-07-08T11:36:09.000Z</Time>
            <Position>
              <LatitudeDegrees>43.3864935301244258880615234375</LatitudeDegrees>
              <LongitudeDegrees>-1.7148896120488643646240234375</LongitudeDegrees>
            </Position>
            <AltitudeMeters>31.799999237060546875</AltitudeMeters>
            <DistanceMeters>NAN</DistanceMeters>
          </Trackpoint>
          <Trackpoint>
            <Time>2022-07-08T11:36:13.000Z</Time>
            <Position>
              <LatitudeDegrees>43.3864579908549785614013671875</LatitudeDegrees>
              <LongitudeDegrees>-1.71501425094902515411376953125</LongitudeDegrees>
            </Position>
            <AltitudeMeters>32</AltitudeMeters>
            <DistanceMeters>NAN</DistanceMeters>
          </Trackpoint>
          <Trackpoint>
            <Time>2022-07-08T11:36:17.000Z</Time>
            <Position>
              <LatitudeDegrees>43.38642303831875324249267578125</LatitudeDegrees>
              <LongitudeDegrees>-1.715132854878902435302734375</LongitudeDegrees>
            </Position>
            <AltitudeMeters>32</AltitudeMeters>
            <DistanceMeters>NAN</DistanceMeters>
          </Trackpoint>
          <Trackpoint>
            <Time>2022-07-08T11:36:21.000Z</Time>
            <Position>
              <LatitudeDegrees>43.38639034889638423919677734375</LatitudeDegrees>
              <LongitudeDegrees>-1.71525992453098297119140625</LongitudeDegrees>
            </Position>
            <AltitudeMeters>32.40000152587890625</AltitudeMeters>
            <DistanceMeters>NAN</DistanceMeters>
          </Trackpoint>
          <Trackpoint>
            <Time>2022-07-08T11:36:30.000Z</Time>
            <Position>
              <LatitudeDegrees>43.38630669750273227691650390625</LatitudeDegrees>
              <LongitudeDegrees>-1.715526469051837921142578125</LongitudeDegrees>
            </Position>
            <AltitudeMeters>33.40000152587890625</AltitudeMeters>
            <DistanceMeters>NAN</DistanceMeters>
          </Trackpoint>
          <Trackpoint>
            <Time>2022-07-08T11:36:31.000Z</Time>
            <Position>
              <LatitudeDegrees>43.38629186153411865234375</LatitudeDegrees>
              <LongitudeDegrees>-1.7155628465116024017333984375</LongitudeDegrees>
            </Position>
            <AltitudeMeters>33.40000152587890625</AltitudeMeters>
            <DistanceMeters>NAN</DistanceMeters>
          </Trackpoint>
          <Trackpoint>
            <Time>2022-07-08T11:36:37.000Z</Time>
            <Position>
              <LatitudeDegrees>43.38622019626200199127197265625</LatitudeDegrees>
              <LongitudeDegrees>-1.71575521118938922882080078125</LongitudeDegrees>
            </Position>
            <AltitudeMeters>33.40000152587890625</AltitudeMeters>
            <DistanceMeters>NAN</DistanceMeters>
          </Trackpoint>
          <Trackpoint>
            <Time>2022-07-08T11:36:39.000Z</Time>
            <Position>
              <LatitudeDegrees>43.38620443828403949737548828125</LatitudeDegrees>
              <LongitudeDegrees>-1.71581975184381008148193359375</LongitudeDegrees>
            </Position>
            <AltitudeMeters>33.40000152587890625</AltitudeMeters>
            <DistanceMeters>NAN</DistanceMeters>
          </Trackpoint>
          <Trackpoint>
            <Time>2022-07-08T11:36:48.000Z</Time>
            <Position>
              <LatitudeDegrees>43.3861344493925571441650390625</LatitudeDegrees>
              <LongitudeDegrees>-1.716068945825099945068359375</LongitudeDegrees>
            </Position>
            <AltitudeMeters>33.59999847412109375</AltitudeMeters>
            <DistanceMeters>NAN</DistanceMeters>
          </Trackpoint>
          <Trackpoint>
            <Time>2022-07-08T11:36:59.000Z</Time>
            <Position>
              <LatitudeDegrees>43.386064209043979644775390625</LatitudeDegrees>
              <LongitudeDegrees>-1.71635384671390056610107421875</LongitudeDegrees>
            </Position>
            <AltitudeMeters>34.200000762939453125</AltitudeMeters>
            <DistanceMeters>NAN</DistanceMeters>
          </Trackpoint>
          <Trackpoint>
            <Time>2022-07-08T11:37:06.000Z</Time>
            <Position>
              <LatitudeDegrees>43.38601232506334781646728515625</LatitudeDegrees>
              <LongitudeDegrees>-1.716539002954959869384765625</LongitudeDegrees>
            </Position>
            <AltitudeMeters>34.40000152587890625</AltitudeMeters>
            <DistanceMeters>NAN</DistanceMeters>
          </Trackpoint>
          <Trackpoint>
            <Time>2022-07-08T11:37:07.000Z</Time>
            <Position>
              <LatitudeDegrees>43.38600662536919116973876953125</LatitudeDegrees>
              <LongitudeDegrees>-1.71657043509185314178466796875</LongitudeDegrees>
            </Position>
            <AltitudeMeters>34.40000152587890625</AltitudeMeters>
            <DistanceMeters>NAN</DistanceMeters>
          </Trackpoint>
          <Trackpoint>
            <Time>2022-07-08T11:37:10.000Z</Time>
            <Position>
              <LatitudeDegrees>43.38598701171576976776123046875</LatitudeDegrees>
              <LongitudeDegrees>-1.716644950211048126220703125</LongitudeDegrees>
            </Position>
            <AltitudeMeters>34.59999847412109375</AltitudeMeters>
            <DistanceMeters>NAN</DistanceMeters>
          </Trackpoint>
          <Trackpoint>
            <Time>2022-07-08T11:37:13.000Z</Time>
            <Position>
              <LatitudeDegrees>43.38595993816852569580078125</LatitudeDegrees>
              <LongitudeDegrees>-1.716715358197689056396484375</LongitudeDegrees>
            </Position>
            <AltitudeMeters>35</AltitudeMeters>
            <DistanceMeters>NAN</DistanceMeters>
          </Trackpoint>
          <Trackpoint>
            <Time>2022-07-08T11:37:14.000Z</Time>
            <Position>
              <LatitudeDegrees>43.3859483711421489715576171875</LatitudeDegrees>
              <LongitudeDegrees>-1.7167400009930133819580078125</LongitudeDegrees>
            </Position>
            <AltitudeMeters>35.200000762939453125</AltitudeMeters>
            <DistanceMeters>NAN</DistanceMeters>
          </Trackpoint>
          <Trackpoint>
            <Time>2022-07-08T11:37:17.000Z</Time>
            <Position>
              <LatitudeDegrees>43.3859285898506641387939453125</LatitudeDegrees>
              <LongitudeDegrees>-1.71682775951921939849853515625</LongitudeDegrees>
            </Position>
            <AltitudeMeters>35.200000762939453125</AltitudeMeters>
            <DistanceMeters>NAN</DistanceMeters>
          </Trackpoint>
          <Trackpoint>
            <Time>2022-07-08T11:37:21.000Z</Time>
            <Position>
              <LatitudeDegrees>43.385899923741817474365234375</LatitudeDegrees>
              <LongitudeDegrees>-1.71692012809216976165771484375</LongitudeDegrees>
            </Position>
            <AltitudeMeters>35.40000152587890625</AltitudeMeters>
            <DistanceMeters>NAN</DistanceMeters>
          </Trackpoint>
          <Trackpoint>
            <Time>2022-07-08T11:37:23.000Z</Time>
            <Position>
              <LatitudeDegrees>43.3858856745064258575439453125</LatitudeDegrees>
              <LongitudeDegrees>-1.71696706674993038177490234375</LongitudeDegrees>
            </Position>
            <AltitudeMeters>35.59999847412109375</AltitudeMeters>
            <DistanceMeters>NAN</DistanceMeters>
          </Trackpoint>
          <Trackpoint>
            <Time>2022-07-08T11:37:33.000Z</Time>
            <Position>
              <LatitudeDegrees>43.385808058083057403564453125</LatitudeDegrees>
              <LongitudeDegrees>-1.71720075421035289764404296875</LongitudeDegrees>
            </Position>
            <AltitudeMeters>35.799999237060546875</AltitudeMeters>
            <DistanceMeters>NAN</DistanceMeters>
          </Trackpoint>
          <Trackpoint>
            <Time>2022-07-08T11:37:38.000Z</Time>
            <Position>
              <LatitudeDegrees>43.38577897287905216217041015625</LatitudeDegrees>
              <LongitudeDegrees>-1.7173066176474094390869140625</LongitudeDegrees>
            </Position>
            <AltitudeMeters>36.59999847412109375</AltitudeMeters>
            <DistanceMeters>NAN</DistanceMeters>
          </Trackpoint>
          <Trackpoint>
            <Time>2022-07-08T11:37:39.000Z</Time>
            <Position>
              <LatitudeDegrees>43.38577310554683208465576171875</LatitudeDegrees>
              <LongitudeDegrees>-1.71733067370951175689697265625</LongitudeDegrees>
            </Position>
            <AltitudeMeters>36.799999237060546875</AltitudeMeters>
            <DistanceMeters>NAN</DistanceMeters>
          </Trackpoint>
          <Trackpoint>
            <Time>2022-07-08T11:37:48.000Z</Time>
            <Position>
              <LatitudeDegrees>43.38570068590342998504638671875</LatitudeDegrees>
              <LongitudeDegrees>-1.71751557849347591400146484375</LongitudeDegrees>
            </Position>
            <AltitudeMeters>37.200000762939453125</AltitudeMeters>
            <DistanceMeters>NAN</DistanceMeters>
          </Trackpoint>
          <Trackpoint>
            <Time>2022-07-08T11:37:54.000Z</Time>
            <Position>
              <LatitudeDegrees>43.38566414080560207366943359375</LatitudeDegrees>
              <LongitudeDegrees>-1.7176368646323680877685546875</LongitudeDegrees>
            </Position>
            <AltitudeMeters>37.59999847412109375</AltitudeMeters>
            <DistanceMeters>NAN</DistanceMeters>
          </Trackpoint>
          <Trackpoint>
            <Time>2022-07-08T11:37:56.000Z</Time>
            <Position>
              <LatitudeDegrees>43.3856640569865703582763671875</LatitudeDegrees>
              <LongitudeDegrees>-1.7176412232220172882080078125</LongitudeDegrees>
            </Position>
            <AltitudeMeters>37.799999237060546875</AltitudeMeters>
            <DistanceMeters>NAN</DistanceMeters>
          </Trackpoint>
          <Trackpoint>
            <Time>2022-07-08T11:41:39.000Z</Time>
            <Position>
              <LatitudeDegrees>43.38564117439091205596923828125</LatitudeDegrees>
              <LongitudeDegrees>-1.71768195927143096923828125</LongitudeDegrees>
            </Position>
            <AltitudeMeters>37.40000152587890625</AltitudeMeters>
            <DistanceMeters>NAN</DistanceMeters>
          </Trackpoint>
          <Trackpoint>
            <Time>2022-07-08T11:41:40.000Z</Time>
            <Position>
              <LatitudeDegrees>43.38563480414450168609619140625</LatitudeDegrees>
              <LongitudeDegrees>-1.717701740562915802001953125</LongitudeDegrees>
            </Position>
            <AltitudeMeters>37.40000152587890625</AltitudeMeters>
            <DistanceMeters>NAN</DistanceMeters>
          </Trackpoint>
          <Trackpoint>
            <Time>2022-07-08T11:41:42.000Z</Time>
            <Position>
              <LatitudeDegrees>43.385613262653350830078125</LatitudeDegrees>
              <LongitudeDegrees>-1.717744655907154083251953125</LongitudeDegrees>
            </Position>
            <AltitudeMeters>37.40000152587890625</AltitudeMeters>
            <DistanceMeters>NAN</DistanceMeters>
          </Trackpoint>
          <Trackpoint>
            <Time>2022-07-08T11:41:50.000Z</Time>
            <Position>
              <LatitudeDegrees>43.385529108345508575439453125</LatitudeDegrees>
              <LongitudeDegrees>-1.71791774220764636993408203125</LongitudeDegrees>
            </Position>
            <AltitudeMeters>38.200000762939453125</AltitudeMeters>
            <DistanceMeters>NAN</DistanceMeters>
          </Trackpoint>
          <Trackpoint>
            <Time>2022-07-08T11:41:51.000Z</Time>
            <Position>
              <LatitudeDegrees>43.38552097789943218231201171875</LatitudeDegrees>
              <LongitudeDegrees>-1.7179386131465435028076171875</LongitudeDegrees>
            </Position>
            <AltitudeMeters>38.200000762939453125</AltitudeMeters>
            <DistanceMeters>NAN</DistanceMeters>
          </Trackpoint>
          <Trackpoint>
            <Time>2022-07-08T11:41:55.000Z</Time>
            <Position>
              <LatitudeDegrees>43.38548694737255573272705078125</LatitudeDegrees>
              <LongitudeDegrees>-1.71803626231849193572998046875</LongitudeDegrees>
            </Position>
            <AltitudeMeters>38.59999847412109375</AltitudeMeters>
            <DistanceMeters>NAN</DistanceMeters>
          </Trackpoint>
          <Trackpoint>
            <Time>2022-07-08T11:42:02.000Z</Time>
            <Position>
              <LatitudeDegrees>43.38542751967906951904296875</LatitudeDegrees>
              <LongitudeDegrees>-1.7181833647191524505615234375</LongitudeDegrees>
            </Position>
            <AltitudeMeters>39</AltitudeMeters>
            <DistanceMeters>NAN</DistanceMeters>
          </Trackpoint>
          <Trackpoint>
            <Time>2022-07-08T11:42:03.000Z</Time>
            <Position>
              <LatitudeDegrees>43.385419137775897979736328125</LatitudeDegrees>
              <LongitudeDegrees>-1.71820507384836673736572265625</LongitudeDegrees>
            </Position>
            <AltitudeMeters>39.200000762939453125</AltitudeMeters>
            <DistanceMeters>NAN</DistanceMeters>
          </Trackpoint>
          <Trackpoint>
            <Time>2022-07-08T11:42:05.000Z</Time>
            <Position>
              <LatitudeDegrees>43.3854035474359989166259765625</LatitudeDegrees>
              <LongitudeDegrees>-1.718254946172237396240234375</LongitudeDegrees>
            </Position>
            <AltitudeMeters>39.200000762939453125</AltitudeMeters>
            <DistanceMeters>NAN</DistanceMeters>
          </Trackpoint>
          <Trackpoint>
            <Time>2022-07-08T11:42:06.000Z</Time>
            <Position>
              <LatitudeDegrees>43.38539474643766880035400390625</LatitudeDegrees>
              <LongitudeDegrees>-1.71827740967273712158203125</LongitudeDegrees>
            </Position>
            <AltitudeMeters>39.200000762939453125</AltitudeMeters>
            <DistanceMeters>NAN</DistanceMeters>
          </Trackpoint>
          <Trackpoint>
            <Time>2022-07-08T11:42:08.000Z</Time>
            <Position>
              <LatitudeDegrees>43.3853804133832454681396484375</LatitudeDegrees>
              <LongitudeDegrees>-1.71831571497023105621337890625</LongitudeDegrees>
            </Position>
            <AltitudeMeters>39.40000152587890625</AltitudeMeters>
            <DistanceMeters>NAN</DistanceMeters>
          </Trackpoint>
          <Trackpoint>
            <Time>2022-07-08T11:42:13.000Z</Time>
            <Position>
              <LatitudeDegrees>43.3853502385318279266357421875</LatitudeDegrees>
              <LongitudeDegrees>-1.71839903108775615692138671875</LongitudeDegrees>
            </Position>
            <AltitudeMeters>39.40000152587890625</AltitudeMeters>
            <DistanceMeters>NAN</DistanceMeters>
          </Trackpoint>
          <Trackpoint>
            <Time>2022-07-08T11:42:16.000Z</Time>
            <Position>
              <LatitudeDegrees>43.38531696237623691558837890625</LatitudeDegrees>
              <LongitudeDegrees>-1.71848167665302753448486328125</LongitudeDegrees>
            </Position>
            <AltitudeMeters>39.799999237060546875</AltitudeMeters>
            <DistanceMeters>NAN</DistanceMeters>
          </Trackpoint>
          <Trackpoint>
            <Time>2022-07-08T11:42:24.000Z</Time>
            <Position>
              <LatitudeDegrees>43.38525761850178241729736328125</LatitudeDegrees>
              <LongitudeDegrees>-1.718654595315456390380859375</LongitudeDegrees>
            </Position>
            <AltitudeMeters>40.59999847412109375</AltitudeMeters>
            <DistanceMeters>NAN</DistanceMeters>
          </Trackpoint>
          <Trackpoint>
            <Time>2022-07-08T11:42:28.000Z</Time>
            <Position>
              <LatitudeDegrees>43.38522274978458881378173828125</LatitudeDegrees>
              <LongitudeDegrees>-1.71874050982296466827392578125</LongitudeDegrees>
            </Position>
            <AltitudeMeters>40.59999847412109375</AltitudeMeters>
            <DistanceMeters>NAN</DistanceMeters>
          </Trackpoint>
          <Trackpoint>
            <Time>2022-07-08T11:42:30.000Z</Time>
            <Position>
              <LatitudeDegrees>43.385207913815975189208984375</LatitudeDegrees>
              <LongitudeDegrees>-1.71877504326403141021728515625</LongitudeDegrees>
            </Position>
            <AltitudeMeters>40.799999237060546875</AltitudeMeters>
            <DistanceMeters>NAN</DistanceMeters>
          </Trackpoint>
          <Trackpoint>
            <Time>2022-07-08T11:42:32.000Z</Time>
            <Position>
              <LatitudeDegrees>43.3851980231702327728271484375</LatitudeDegrees>
              <LongitudeDegrees>-1.7188009433448314666748046875</LongitudeDegrees>
            </Position>
            <AltitudeMeters>40.799999237060546875</AltitudeMeters>
            <DistanceMeters>NAN</DistanceMeters>
          </Trackpoint>
          <Trackpoint>
            <Time>2022-07-08T11:42:43.000Z</Time>
            <Position>
              <LatitudeDegrees>43.38512116111814975738525390625</LatitudeDegrees>
              <LongitudeDegrees>-1.719026751816272735595703125</LongitudeDegrees>
            </Position>
            <AltitudeMeters>41.799999237060546875</AltitudeMeters>
            <DistanceMeters>NAN</DistanceMeters>
          </Trackpoint>
          <Trackpoint>
            <Time>2022-07-08T11:42:44.000Z</Time>
            <Position>
              <LatitudeDegrees>43.385114036500453948974609375</LatitudeDegrees>
              <LongitudeDegrees>-1.719044856727123260498046875</LongitudeDegrees>
            </Position>
            <AltitudeMeters>42</AltitudeMeters>
            <DistanceMeters>NAN</DistanceMeters>
          </Trackpoint>
          <Trackpoint>
            <Time>2022-07-08T11:42:55.000Z</Time>
            <Position>
              <LatitudeDegrees>43.385033570230007171630859375</LatitudeDegrees>
              <LongitudeDegrees>-1.71927527524530887603759765625</LongitudeDegrees>
            </Position>
            <AltitudeMeters>42.59999847412109375</AltitudeMeters>
            <DistanceMeters>NAN</DistanceMeters>
          </Trackpoint>
          <Trackpoint>
            <Time>2022-07-08T11:43:01.000Z</Time>
            <Position>
              <LatitudeDegrees>43.3849757350981235504150390625</LatitudeDegrees>
              <LongitudeDegrees>-1.7194275744259357452392578125</LongitudeDegrees>
            </Position>
            <AltitudeMeters>43</AltitudeMeters>
            <DistanceMeters>NAN</DistanceMeters>
          </Trackpoint>
          <Trackpoint>
            <Time>2022-07-08T11:43:04.000Z</Time>
            <Position>
              <LatitudeDegrees>43.38495536707341670989990234375</LatitudeDegrees>
              <LongitudeDegrees>-1.7194657959043979644775390625</LongitudeDegrees>
            </Position>
            <AltitudeMeters>43.200000762939453125</AltitudeMeters>
            <DistanceMeters>NAN</DistanceMeters>
          </Trackpoint>
          <Trackpoint>
            <Time>2022-07-08T11:43:13.000Z</Time>
            <Position>
              <LatitudeDegrees>43.38487364351749420166015625</LatitudeDegrees>
              <LongitudeDegrees>-1.71968548558652400970458984375</LongitudeDegrees>
            </Position>
            <AltitudeMeters>43.799999237060546875</AltitudeMeters>
            <DistanceMeters>NAN</DistanceMeters>
          </Trackpoint>
          <Trackpoint>
            <Time>2022-07-08T11:43:15.000Z</Time>
            <Position>
              <LatitudeDegrees>43.38486651889979839324951171875</LatitudeDegrees>
              <LongitudeDegrees>-1.71970543451607227325439453125</LongitudeDegrees>
            </Position>
            <AltitudeMeters>44</AltitudeMeters>
            <DistanceMeters>NAN</DistanceMeters>
          </Trackpoint>
          <Trackpoint>
            <Time>2022-07-08T11:43:16.000Z</Time>
            <Position>
              <LatitudeDegrees>43.38485964573919773101806640625</LatitudeDegrees>
              <LongitudeDegrees>-1.719722114503383636474609375</LongitudeDegrees>
            </Position>
            <AltitudeMeters>44</AltitudeMeters>
            <DistanceMeters>NAN</DistanceMeters>
          </Trackpoint>
          <Trackpoint>
            <Time>2022-07-08T11:43:26.000Z</Time>
            <Position>
              <LatitudeDegrees>43.38478001765906810760498046875</LatitudeDegrees>
              <LongitudeDegrees>-1.7199351824820041656494140625</LongitudeDegrees>
            </Position>
            <AltitudeMeters>44.59999847412109375</AltitudeMeters>
            <DistanceMeters>NAN</DistanceMeters>
          </Trackpoint>
          <Trackpoint>
            <Time>2022-07-08T11:43:31.000Z</Time>
            <Position>
              <LatitudeDegrees>43.38475160300731658935546875</LatitudeDegrees>
              <LongitudeDegrees>-1.7200418002903461456298828125</LongitudeDegrees>
            </Position>
            <AltitudeMeters>45</AltitudeMeters>
            <DistanceMeters>NAN</DistanceMeters>
          </Trackpoint>
          <Trackpoint>
            <Time>2022-07-08T11:43:39.000Z</Time>
            <Position>
              <LatitudeDegrees>43.384677506983280181884765625</LatitudeDegrees>
              <LongitudeDegrees>-1.720225028693675994873046875</LongitudeDegrees>
            </Position>
            <AltitudeMeters>45.40000152587890625</AltitudeMeters>
            <DistanceMeters>NAN</DistanceMeters>
          </Trackpoint>
          <Trackpoint>
            <Time>2022-07-08T11:43:50.000Z</Time>
            <Position>
              <LatitudeDegrees>43.38460483588278293609619140625</LatitudeDegrees>
              <LongitudeDegrees>-1.720424853265285491943359375</LongitudeDegrees>
            </Position>
            <AltitudeMeters>46.200000762939453125</AltitudeMeters>
            <DistanceMeters>NAN</DistanceMeters>
          </Trackpoint>
          <Trackpoint>
            <Time>2022-07-08T11:43:54.000Z</Time>
            <Position>
              <LatitudeDegrees>43.384568877518177032470703125</LatitudeDegrees>
              <LongitudeDegrees>-1.7205123603343963623046875</LongitudeDegrees>
            </Position>
            <AltitudeMeters>46.40000152587890625</AltitudeMeters>
            <DistanceMeters>NAN</DistanceMeters>
          </Trackpoint>
          <Trackpoint>
            <Time>2022-07-08T11:44:04.000Z</Time>
            <Position>
              <LatitudeDegrees>43.38447206653654575347900390625</LatitudeDegrees>
              <LongitudeDegrees>-1.7207545973360538482666015625</LongitudeDegrees>
            </Position>
            <AltitudeMeters>47.200000762939453125</AltitudeMeters>
            <DistanceMeters>NAN</DistanceMeters>
          </Trackpoint>
          <Trackpoint>
            <Time>2022-07-08T11:44:07.000Z</Time>
            <Position>
              <LatitudeDegrees>43.38445513509213924407958984375</LatitudeDegrees>
              <LongitudeDegrees>-1.7208008654415607452392578125</LongitudeDegrees>
            </Position>
            <AltitudeMeters>47.40000152587890625</AltitudeMeters>
            <DistanceMeters>NAN</DistanceMeters>
          </Trackpoint>
          <Trackpoint>
            <Time>2022-07-08T11:44:14.000Z</Time>
            <Position>
              <LatitudeDegrees>43.384387157857418060302734375</LatitudeDegrees>
              <LongitudeDegrees>-1.7209685035049915313720703125</LongitudeDegrees>
            </Position>
            <AltitudeMeters>48.200000762939453125</AltitudeMeters>
            <DistanceMeters>NAN</DistanceMeters>
          </Trackpoint>
          <Trackpoint>
            <Time>2022-07-08T11:44:20.000Z</Time>
            <Position>
              <LatitudeDegrees>43.38435639627277851104736328125</LatitudeDegrees>
              <LongitudeDegrees>-1.72107897698879241943359375</LongitudeDegrees>
            </Position>
            <AltitudeMeters>48.59999847412109375</AltitudeMeters>
            <DistanceMeters>NAN</DistanceMeters>
          </Trackpoint>
          <Trackpoint>
            <Time>2022-07-08T11:44:29.000Z</Time>
            <Position>
              <LatitudeDegrees>43.3842884190380573272705078125</LatitudeDegrees>
              <LongitudeDegrees>-1.7212749458849430084228515625</LongitudeDegrees>
            </Position>
            <AltitudeMeters>49.200000762939453125</AltitudeMeters>
            <DistanceMeters>NAN</DistanceMeters>
          </Trackpoint>
          <Trackpoint>
            <Time>2022-07-08T11:44:31.000Z</Time>
            <Position>
              <LatitudeDegrees>43.3842683024704456329345703125</LatitudeDegrees>
              <LongitudeDegrees>-1.7213336192071437835693359375</LongitudeDegrees>
            </Position>
            <AltitudeMeters>49.59999847412109375</AltitudeMeters>
            <DistanceMeters>NAN</DistanceMeters>
          </Trackpoint>
          <Trackpoint>
            <Time>2022-07-08T11:44:43.000Z</Time>
            <Position>
              <LatitudeDegrees>43.38417249731719493865966796875</LatitudeDegrees>
              <LongitudeDegrees>-1.72163679264485836029052734375</LongitudeDegrees>
            </Position>
            <AltitudeMeters>49.59999847412109375</AltitudeMeters>
            <DistanceMeters>NAN</DistanceMeters>
          </Trackpoint>
          <Trackpoint>
            <Time>2022-07-08T11:44:47.000Z</Time>
            <Position>
              <LatitudeDegrees>43.38412438519299030303955078125</LatitudeDegrees>
              <LongitudeDegrees>-1.72181817702949047088623046875</LongitudeDegrees>
            </Position>
            <AltitudeMeters>49.59999847412109375</AltitudeMeters>
            <DistanceMeters>NAN</DistanceMeters>
          </Trackpoint>
          <Trackpoint>
            <Time>2022-07-08T11:44:52.000Z</Time>
            <Position>
              <LatitudeDegrees>43.38409521616995334625244140625</LatitudeDegrees>
              <LongitudeDegrees>-1.722021438181400299072265625</LongitudeDegrees>
            </Position>
            <AltitudeMeters>49.40000152587890625</AltitudeMeters>
            <DistanceMeters>NAN</DistanceMeters>
          </Trackpoint>
          <Trackpoint>
            <Time>2022-07-08T11:44:56.000Z</Time>
            <Position>
              <LatitudeDegrees>43.3840937912464141845703125</LatitudeDegrees>
              <LongitudeDegrees>-1.7222378589212894439697265625</LongitudeDegrees>
            </Position>
            <AltitudeMeters>49</AltitudeMeters>
            <DistanceMeters>NAN</DistanceMeters>
          </Trackpoint>
          <Trackpoint>
            <Time>2022-07-08T11:44:57.000Z</Time>
            <Position>
              <LatitudeDegrees>43.3840959705412387847900390625</LatitudeDegrees>
              <LongitudeDegrees>-1.722311787307262420654296875</LongitudeDegrees>
            </Position>
            <AltitudeMeters>49</AltitudeMeters>
            <DistanceMeters>NAN</DistanceMeters>
          </Trackpoint>
          <Trackpoint>
            <Time>2022-07-08T11:44:59.000Z</Time>
            <Position>
              <LatitudeDegrees>43.38410343043506145477294921875</LatitudeDegrees>
              <LongitudeDegrees>-1.72244430519640445709228515625</LongitudeDegrees>
            </Position>
            <AltitudeMeters>49</AltitudeMeters>
            <DistanceMeters>NAN</DistanceMeters>
          </Trackpoint>
          <Trackpoint>
            <Time>2022-07-08T11:45:01.000Z</Time>
            <Position>
              <LatitudeDegrees>43.384126983582973480224609375</LatitudeDegrees>
              <LongitudeDegrees>-1.72257699072360992431640625</LongitudeDegrees>
            </Position>
            <AltitudeMeters>48.799999237060546875</AltitudeMeters>
            <DistanceMeters>NAN</DistanceMeters>
          </Trackpoint>
          <Trackpoint>
            <Time>2022-07-08T11:45:03.000Z</Time>
            <Position>
              <LatitudeDegrees>43.384160511195659637451171875</LatitudeDegrees>
              <LongitudeDegrees>-1.72271755523979663848876953125</LongitudeDegrees>
            </Position>
            <AltitudeMeters>48.799999237060546875</AltitudeMeters>
            <DistanceMeters>NAN</DistanceMeters>
          </Trackpoint>
          <Trackpoint>
            <Time>2022-07-08T11:45:05.000Z</Time>
            <Position>
              <LatitudeDegrees>43.38419546373188495635986328125</LatitudeDegrees>
              <LongitudeDegrees>-1.7228648252785205841064453125</LongitudeDegrees>
            </Position>
            <AltitudeMeters>48.200000762939453125</AltitudeMeters>
            <DistanceMeters>NAN</DistanceMeters>
          </Trackpoint>
          <Trackpoint>
            <Time>2022-07-08T11:45:07.000Z</Time>
            <Position>
              <LatitudeDegrees>43.38423083536326885223388671875</LatitudeDegrees>
              <LongitudeDegrees>-1.72301796264946460723876953125</LongitudeDegrees>
            </Position>
            <AltitudeMeters>47.40000152587890625</AltitudeMeters>
            <DistanceMeters>NAN</DistanceMeters>
          </Trackpoint>
          <Trackpoint>
            <Time>2022-07-08T11:45:08.000Z</Time>
            <Position>
              <LatitudeDegrees>43.3842461742460727691650390625</LatitudeDegrees>
              <LongitudeDegrees>-1.723096333444118499755859375</LongitudeDegrees>
            </Position>
            <AltitudeMeters>47</AltitudeMeters>
            <DistanceMeters>NAN</DistanceMeters>
          </Trackpoint>
          <Trackpoint>
            <Time>2022-07-08T11:45:10.000Z</Time>
            <Position>
              <LatitudeDegrees>43.38428313843905925750732421875</LatitudeDegrees>
              <LongitudeDegrees>-1.723253913223743438720703125</LongitudeDegrees>
            </Position>
            <AltitudeMeters>46.799999237060546875</AltitudeMeters>
            <DistanceMeters>NAN</DistanceMeters>
          </Trackpoint>
          <Trackpoint>
            <Time>2022-07-08T11:45:12.000Z</Time>
            <Position>
              <LatitudeDegrees>43.3843231201171875</LatitudeDegrees>
              <LongitudeDegrees>-1.72342414967715740203857421875</LongitudeDegrees>
            </Position>
            <AltitudeMeters>46</AltitudeMeters>
            <DistanceMeters>NAN</DistanceMeters>
          </Trackpoint>
          <Trackpoint>
            <Time>2022-07-08T11:45:15.000Z</Time>
            <Position>
              <LatitudeDegrees>43.38438212871551513671875</LatitudeDegrees>
              <LongitudeDegrees>-1.7236936278641223907470703125</LongitudeDegrees>
            </Position>
            <AltitudeMeters>45</AltitudeMeters>
            <DistanceMeters>NAN</DistanceMeters>
          </Trackpoint>
          <Trackpoint>
            <Time>2022-07-08T11:45:16.000Z</Time>
            <Position>
              <LatitudeDegrees>43.38440157473087310791015625</LatitudeDegrees>
              <LongitudeDegrees>-1.72378658317029476165771484375</LongitudeDegrees>
            </Position>
            <AltitudeMeters>44.799999237060546875</AltitudeMeters>
            <DistanceMeters>NAN</DistanceMeters>
          </Trackpoint>
          <Trackpoint>
            <Time>2022-07-08T11:45:21.000Z</Time>
            <Position>
              <LatitudeDegrees>43.3844329230487346649169921875</LatitudeDegrees>
              <LongitudeDegrees>-1.724288575351238250732421875</LongitudeDegrees>
            </Position>
            <AltitudeMeters>43.40000152587890625</AltitudeMeters>
            <DistanceMeters>NAN</DistanceMeters>
          </Trackpoint>
          <Trackpoint>
            <Time>2022-07-08T11:45:23.000Z</Time>
            <Position>
              <LatitudeDegrees>43.38440853171050548553466796875</LatitudeDegrees>
              <LongitudeDegrees>-1.72450139187276363372802734375</LongitudeDegrees>
            </Position>
            <AltitudeMeters>42</AltitudeMeters>
            <DistanceMeters>NAN</DistanceMeters>
          </Trackpoint>
          <Trackpoint>
            <Time>2022-07-08T11:45:25.000Z</Time>
            <Position>
              <LatitudeDegrees>43.3843700587749481201171875</LatitudeDegrees>
              <LongitudeDegrees>-1.7247205786406993865966796875</LongitudeDegrees>
            </Position>
            <AltitudeMeters>40.799999237060546875</AltitudeMeters>
            <DistanceMeters>NAN</DistanceMeters>
          </Trackpoint>
          <Trackpoint>
            <Time>2022-07-08T11:45:26.000Z</Time>
            <Position>
              <LatitudeDegrees>43.3843432366847991943359375</LatitudeDegrees>
              <LongitudeDegrees>-1.72482979483902454376220703125</LongitudeDegrees>
            </Position>
            <AltitudeMeters>40.40000152587890625</AltitudeMeters>
            <DistanceMeters>NAN</DistanceMeters>
          </Trackpoint>
          <Trackpoint>
            <Time>2022-07-08T11:45:30.000Z</Time>
            <Position>
              <LatitudeDegrees>43.384177945554256439208984375</LatitudeDegrees>
              <LongitudeDegrees>-1.7252533324062824249267578125</LongitudeDegrees>
            </Position>
            <AltitudeMeters>40</AltitudeMeters>
            <DistanceMeters>NAN</DistanceMeters>
          </Trackpoint>
          <Trackpoint>
            <Time>2022-07-08T11:45:33.000Z</Time>
            <Position>
              <LatitudeDegrees>43.38400888256728649139404296875</LatitudeDegrees>
              <LongitudeDegrees>-1.72553789801895618438720703125</LongitudeDegrees>
            </Position>
            <AltitudeMeters>38.799999237060546875</AltitudeMeters>
            <DistanceMeters>NAN</DistanceMeters>
          </Trackpoint>
          <Trackpoint>
            <Time>2022-07-08T11:45:34.000Z</Time>
            <Position>
              <LatitudeDegrees>43.38393998332321643829345703125</LatitudeDegrees>
              <LongitudeDegrees>-1.7256261594593524932861328125</LongitudeDegrees>
            </Position>
            <AltitudeMeters>38.200000762939453125</AltitudeMeters>
            <DistanceMeters>NAN</DistanceMeters>
          </Trackpoint>
          <Trackpoint>
            <Time>2022-07-08T11:45:36.000Z</Time>
            <Position>
              <LatitudeDegrees>43.38379380293190479278564453125</LatitudeDegrees>
              <LongitudeDegrees>-1.7257802188396453857421875</LongitudeDegrees>
            </Position>
            <AltitudeMeters>37.59999847412109375</AltitudeMeters>
            <DistanceMeters>NAN</DistanceMeters>
          </Trackpoint>
          <Trackpoint>
            <Time>2022-07-08T11:45:39.000Z</Time>
            <Position>
              <LatitudeDegrees>43.383560366928577423095703125</LatitudeDegrees>
              <LongitudeDegrees>-1.72598448581993579864501953125</LongitudeDegrees>
            </Position>
            <AltitudeMeters>37.40000152587890625</AltitudeMeters>
            <DistanceMeters>NAN</DistanceMeters>
          </Trackpoint>
          <Trackpoint>
            <Time>2022-07-08T11:45:43.000Z</Time>
            <Position>
              <LatitudeDegrees>43.38323749601840972900390625</LatitudeDegrees>
              <LongitudeDegrees>-1.72627416439354419708251953125</LongitudeDegrees>
            </Position>
            <AltitudeMeters>36.200000762939453125</AltitudeMeters>
            <DistanceMeters>NAN</DistanceMeters>
          </Trackpoint>
          <Trackpoint>
            <Time>2022-07-08T11:45:45.000Z</Time>
            <Position>
              <LatitudeDegrees>43.383078239858150482177734375</LatitudeDegrees>
              <LongitudeDegrees>-1.72641565091907978057861328125</LongitudeDegrees>
            </Position>
            <AltitudeMeters>34.799999237060546875</AltitudeMeters>
            <DistanceMeters>NAN</DistanceMeters>
          </Trackpoint>
          <Trackpoint>
            <Time>2022-07-08T11:45:47.000Z</Time>
            <Position>
              <LatitudeDegrees>43.38292258791625499725341796875</LatitudeDegrees>
              <LongitudeDegrees>-1.7265625856816768646240234375</LongitudeDegrees>
            </Position>
            <AltitudeMeters>33.40000152587890625</AltitudeMeters>
            <DistanceMeters>NAN</DistanceMeters>
          </Trackpoint>
          <Trackpoint>
            <Time>2022-07-08T11:45:49.000Z</Time>
            <Position>
              <LatitudeDegrees>43.38276282884180545806884765625</LatitudeDegrees>
              <LongitudeDegrees>-1.726707257330417633056640625</LongitudeDegrees>
            </Position>
            <AltitudeMeters>32.40000152587890625</AltitudeMeters>
            <DistanceMeters>NAN</DistanceMeters>
          </Trackpoint>
          <Trackpoint>
            <Time>2022-07-08T11:45:51.000Z</Time>
            <Position>
              <LatitudeDegrees>43.38268454186618328094482421875</LatitudeDegrees>
              <LongitudeDegrees>-1.72677942551672458648681640625</LongitudeDegrees>
            </Position>
            <AltitudeMeters>31</AltitudeMeters>
            <DistanceMeters>NAN</DistanceMeters>
          </Trackpoint>
          <Trackpoint>
            <Time>2022-07-08T11:45:54.000Z</Time>
            <Position>
              <LatitudeDegrees>43.38236234150826930999755859375</LatitudeDegrees>
              <LongitudeDegrees>-1.727076061069965362548828125</LongitudeDegrees>
            </Position>
            <AltitudeMeters>30</AltitudeMeters>
            <DistanceMeters>NAN</DistanceMeters>
          </Trackpoint>
          <Trackpoint>
            <Time>2022-07-08T11:45:57.000Z</Time>
            <Position>
              <LatitudeDegrees>43.38214726187288761138916015625</LatitudeDegrees>
              <LongitudeDegrees>-1.72735073603689670562744140625</LongitudeDegrees>
            </Position>
            <AltitudeMeters>29.3999996185302734375</AltitudeMeters>
            <DistanceMeters>NAN</DistanceMeters>
          </Trackpoint>
          <Trackpoint>
            <Time>2022-07-08T11:45:58.000Z</Time>
            <Position>
              <LatitudeDegrees>43.38209085166454315185546875</LatitudeDegrees>
              <LongitudeDegrees>-1.7274591140449047088623046875</LongitudeDegrees>
            </Position>
            <AltitudeMeters>29</AltitudeMeters>
            <DistanceMeters>NAN</DistanceMeters>
          </Trackpoint>
          <Trackpoint>
            <Time>2022-07-08T11:46:00.000Z</Time>
            <Position>
              <LatitudeDegrees>43.38200099766254425048828125</LatitudeDegrees>
              <LongitudeDegrees>-1.72770026139914989471435546875</LongitudeDegrees>
            </Position>
            <AltitudeMeters>27.6000003814697265625</AltitudeMeters>
            <DistanceMeters>NAN</DistanceMeters>
          </Trackpoint>
          <Trackpoint>
            <Time>2022-07-08T11:46:02.000Z</Time>
            <Position>
              <LatitudeDegrees>43.3819354511797428131103515625</LatitudeDegrees>
              <LongitudeDegrees>-1.7279452644288539886474609375</LongitudeDegrees>
            </Position>
            <AltitudeMeters>26.3999996185302734375</AltitudeMeters>
            <DistanceMeters>NAN</DistanceMeters>
          </Trackpoint>
          <Trackpoint>
            <Time>2022-07-08T11:46:05.000Z</Time>
            <Position>
              <LatitudeDegrees>43.38185272179543972015380859375</LatitudeDegrees>
              <LongitudeDegrees>-1.728293113410472869873046875</LongitudeDegrees>
            </Position>
            <AltitudeMeters>25.6000003814697265625</AltitudeMeters>
            <DistanceMeters>NAN</DistanceMeters>
          </Trackpoint>
          <Trackpoint>
            <Time>2022-07-08T11:46:06.000Z</Time>
            <Position>
              <LatitudeDegrees>43.38182673789560794830322265625</LatitudeDegrees>
              <LongitudeDegrees>-1.7283988930284976959228515625</LongitudeDegrees>
            </Position>
            <AltitudeMeters>25.3999996185302734375</AltitudeMeters>
            <DistanceMeters>NAN</DistanceMeters>
          </Trackpoint>
          <Trackpoint>
            <Time>2022-07-08T11:46:12.000Z</Time>
            <Position>
              <LatitudeDegrees>43.38169128634035587310791015625</LatitudeDegrees>
              <LongitudeDegrees>-1.7289554513990879058837890625</LongitudeDegrees>
            </Position>
            <AltitudeMeters>25.200000762939453125</AltitudeMeters>
            <DistanceMeters>NAN</DistanceMeters>
          </Trackpoint>
          <Trackpoint>
            <Time>2022-07-08T11:46:17.000Z</Time>
            <Position>
              <LatitudeDegrees>43.3816397376358509063720703125</LatitudeDegrees>
              <LongitudeDegrees>-1.72932852990925312042236328125</LongitudeDegrees>
            </Position>
            <AltitudeMeters>25.6000003814697265625</AltitudeMeters>
            <DistanceMeters>NAN</DistanceMeters>
          </Trackpoint>
          <Trackpoint>
            <Time>2022-07-08T11:46:23.000Z</Time>
            <Position>
              <LatitudeDegrees>43.38165474124252796173095703125</LatitudeDegrees>
              <LongitudeDegrees>-1.7297125048935413360595703125</LongitudeDegrees>
            </Position>
            <AltitudeMeters>25.200000762939453125</AltitudeMeters>
            <DistanceMeters>NAN</DistanceMeters>
          </Trackpoint>
          <Trackpoint>
            <Time>2022-07-08T11:46:29.000Z</Time>
            <Position>
              <LatitudeDegrees>43.38171140290796756744384765625</LatitudeDegrees>
              <LongitudeDegrees>-1.73003596253693103790283203125</LongitudeDegrees>
            </Position>
            <AltitudeMeters>25.200000762939453125</AltitudeMeters>
            <DistanceMeters>NAN</DistanceMeters>
          </Trackpoint>
          <Trackpoint>
            <Time>2022-07-08T11:46:35.000Z</Time>
            <Position>
              <LatitudeDegrees>43.38174526579678058624267578125</LatitudeDegrees>
              <LongitudeDegrees>-1.7302787862718105316162109375</LongitudeDegrees>
            </Position>
            <AltitudeMeters>25.3999996185302734375</AltitudeMeters>
            <DistanceMeters>NAN</DistanceMeters>
          </Trackpoint>
          <Trackpoint>
            <Time>2022-07-08T11:46:43.000Z</Time>
            <Position>
              <LatitudeDegrees>43.3817855827510356903076171875</LatitudeDegrees>
              <LongitudeDegrees>-1.73050618730485439300537109375</LongitudeDegrees>
            </Position>
            <AltitudeMeters>26.200000762939453125</AltitudeMeters>
            <DistanceMeters>NAN</DistanceMeters>
          </Trackpoint>
          <Trackpoint>
            <Time>2022-07-08T11:46:45.000Z</Time>
            <Position>
              <LatitudeDegrees>43.3817946352064609527587890625</LatitudeDegrees>
              <LongitudeDegrees>-1.73055924475193023681640625</LongitudeDegrees>
            </Position>
            <AltitudeMeters>26.3999996185302734375</AltitudeMeters>
            <DistanceMeters>NAN</DistanceMeters>
          </Trackpoint>
          <Trackpoint>
            <Time>2022-07-08T11:46:51.000Z</Time>
            <Position>
              <LatitudeDegrees>43.38182128965854644775390625</LatitudeDegrees>
              <LongitudeDegrees>-1.73072210513055324554443359375</LongitudeDegrees>
            </Position>
            <AltitudeMeters>27.3999996185302734375</AltitudeMeters>
            <DistanceMeters>NAN</DistanceMeters>
          </Trackpoint>
          <Trackpoint>
            <Time>2022-07-08T11:46:52.000Z</Time>
            <Position>
              <LatitudeDegrees>43.38182589970529079437255859375</LatitudeDegrees>
              <LongitudeDegrees>-1.73074775375425815582275390625</LongitudeDegrees>
            </Position>
            <AltitudeMeters>27.3999996185302734375</AltitudeMeters>
            <DistanceMeters>NAN</DistanceMeters>
          </Trackpoint>
          <Trackpoint>
            <Time>2022-07-08T11:46:57.000Z</Time>
            <Position>
              <LatitudeDegrees>43.381845764815807342529296875</LatitudeDegrees>
              <LongitudeDegrees>-1.7308844625949859619140625</LongitudeDegrees>
            </Position>
            <AltitudeMeters>28</AltitudeMeters>
            <DistanceMeters>NAN</DistanceMeters>
          </Trackpoint>
          <Trackpoint>
            <Time>2022-07-08T11:47:02.000Z</Time>
            <Position>
              <LatitudeDegrees>43.3818660490214824676513671875</LatitudeDegrees>
              <LongitudeDegrees>-1.73102636821568012237548828125</LongitudeDegrees>
            </Position>
            <AltitudeMeters>28.799999237060546875</AltitudeMeters>
            <DistanceMeters>NAN</DistanceMeters>
          </Trackpoint>
          <Trackpoint>
            <Time>2022-07-08T11:47:07.000Z</Time>
            <Position>
              <LatitudeDegrees>43.3818648755550384521484375</LatitudeDegrees>
              <LongitudeDegrees>-1.7311759851872920989990234375</LongitudeDegrees>
            </Position>
            <AltitudeMeters>29.6000003814697265625</AltitudeMeters>
            <DistanceMeters>NAN</DistanceMeters>
          </Trackpoint>
          <Trackpoint>
            <Time>2022-07-08T11:47:09.000Z</Time>
            <Position>
              <LatitudeDegrees>43.3818626962602138519287109375</LatitudeDegrees>
              <LongitudeDegrees>-1.73123742453753948211669921875</LongitudeDegrees>
            </Position>
            <AltitudeMeters>30</AltitudeMeters>
            <DistanceMeters>NAN</DistanceMeters>
          </Trackpoint>
          <Trackpoint>
            <Time>2022-07-08T11:47:11.000Z</Time>
            <Position>
              <LatitudeDegrees>43.381868563592433929443359375</LatitudeDegrees>
              <LongitudeDegrees>-1.73129542730748653411865234375</LongitudeDegrees>
            </Position>
            <AltitudeMeters>30.200000762939453125</AltitudeMeters>
            <DistanceMeters>NAN</DistanceMeters>
          </Trackpoint>
          <Trackpoint>
            <Time>2022-07-08T11:47:18.000Z</Time>
            <Position>
              <LatitudeDegrees>43.3818415738642215728759765625</LatitudeDegrees>
              <LongitudeDegrees>-1.73150614835321903228759765625</LongitudeDegrees>
            </Position>
            <AltitudeMeters>30.799999237060546875</AltitudeMeters>
            <DistanceMeters>NAN</DistanceMeters>
          </Trackpoint>
          <Trackpoint>
            <Time>2022-07-08T11:47:19.000Z</Time>
            <Position>
              <LatitudeDegrees>43.3818372152745723724365234375</LatitudeDegrees>
              <LongitudeDegrees>-1.73153531737625598907470703125</LongitudeDegrees>
            </Position>
            <AltitudeMeters>31</AltitudeMeters>
            <DistanceMeters>NAN</DistanceMeters>
          </Trackpoint>
          <Trackpoint>
            <Time>2022-07-08T11:47:21.000Z</Time>
            <Position>
              <LatitudeDegrees>43.38182103820145130157470703125</LatitudeDegrees>
              <LongitudeDegrees>-1.731594242155551910400390625</LongitudeDegrees>
            </Position>
            <AltitudeMeters>31.3999996185302734375</AltitudeMeters>
            <DistanceMeters>NAN</DistanceMeters>
          </Trackpoint>
          <Trackpoint>
            <Time>2022-07-08T11:47:27.000Z</Time>
            <Position>
              <LatitudeDegrees>43.38178130798041820526123046875</LatitudeDegrees>
              <LongitudeDegrees>-1.7317600362002849578857421875</LongitudeDegrees>
            </Position>
            <AltitudeMeters>32</AltitudeMeters>
            <DistanceMeters>NAN</DistanceMeters>
          </Trackpoint>
          <Trackpoint>
            <Time>2022-07-08T11:47:31.000Z</Time>
            <Position>
              <LatitudeDegrees>43.3817332796752452850341796875</LatitudeDegrees>
              <LongitudeDegrees>-1.731871180236339569091796875</LongitudeDegrees>
            </Position>
            <AltitudeMeters>31.799999237060546875</AltitudeMeters>
            <DistanceMeters>NAN</DistanceMeters>
          </Trackpoint>
          <Trackpoint>
            <Time>2022-07-08T11:47:41.000Z</Time>
            <Position>
              <LatitudeDegrees>43.3815297670662403106689453125</LatitudeDegrees>
              <LongitudeDegrees>-1.73213814385235309600830078125</LongitudeDegrees>
            </Position>
            <AltitudeMeters>31.200000762939453125</AltitudeMeters>
            <DistanceMeters>NAN</DistanceMeters>
          </Trackpoint>
          <Trackpoint>
            <Time>2022-07-08T11:47:44.000Z</Time>
            <Position>
              <LatitudeDegrees>43.3814355544745922088623046875</LatitudeDegrees>
              <LongitudeDegrees>-1.732225231826305389404296875</LongitudeDegrees>
            </Position>
            <AltitudeMeters>30.799999237060546875</AltitudeMeters>
            <DistanceMeters>NAN</DistanceMeters>
          </Trackpoint>
          <Trackpoint>
            <Time>2022-07-08T11:47:47.000Z</Time>
            <Position>
              <LatitudeDegrees>43.38131644763052463531494140625</LatitudeDegrees>
              <LongitudeDegrees>-1.732310391962528228759765625</LongitudeDegrees>
            </Position>
            <AltitudeMeters>30.200000762939453125</AltitudeMeters>
            <DistanceMeters>NAN</DistanceMeters>
          </Trackpoint>
          <Trackpoint>
            <Time>2022-07-08T11:47:49.000Z</Time>
            <Position>
              <LatitudeDegrees>43.3812102489173412322998046875</LatitudeDegrees>
              <LongitudeDegrees>-1.7323596775531768798828125</LongitudeDegrees>
            </Position>
            <AltitudeMeters>30</AltitudeMeters>
            <DistanceMeters>NAN</DistanceMeters>
          </Trackpoint>
          <Trackpoint>
            <Time>2022-07-08T11:47:51.000Z</Time>
            <Position>
              <LatitudeDegrees>43.38109801523387432098388671875</LatitudeDegrees>
              <LongitudeDegrees>-1.73238448798656463623046875</LongitudeDegrees>
            </Position>
            <AltitudeMeters>29.799999237060546875</AltitudeMeters>
            <DistanceMeters>NAN</DistanceMeters>
          </Trackpoint>
          <Trackpoint>
            <Time>2022-07-08T11:47:52.000Z</Time>
            <Position>
              <LatitudeDegrees>43.38103531859815120697021484375</LatitudeDegrees>
              <LongitudeDegrees>-1.73239144496619701385498046875</LongitudeDegrees>
            </Position>
            <AltitudeMeters>29.6000003814697265625</AltitudeMeters>
            <DistanceMeters>NAN</DistanceMeters>
          </Trackpoint>
          <Trackpoint>
            <Time>2022-07-08T11:47:55.000Z</Time>
            <Position>
              <LatitudeDegrees>43.38082811795175075531005859375</LatitudeDegrees>
              <LongitudeDegrees>-1.732390858232975006103515625</LongitudeDegrees>
            </Position>
            <AltitudeMeters>28.6000003814697265625</AltitudeMeters>
            <DistanceMeters>NAN</DistanceMeters>
          </Trackpoint>
          <Trackpoint>
            <Time>2022-07-08T11:47:56.000Z</Time>
            <Position>
              <LatitudeDegrees>43.380749411880970001220703125</LatitudeDegrees>
              <LongitudeDegrees>-1.73238448798656463623046875</LongitudeDegrees>
            </Position>
            <AltitudeMeters>28.3999996185302734375</AltitudeMeters>
            <DistanceMeters>NAN</DistanceMeters>
          </Trackpoint>
          <Trackpoint>
            <Time>2022-07-08T11:47:59.000Z</Time>
            <Position>
              <LatitudeDegrees>43.3805028162896633148193359375</LatitudeDegrees>
              <LongitudeDegrees>-1.732369400560855865478515625</LongitudeDegrees>
            </Position>
            <AltitudeMeters>27.200000762939453125</AltitudeMeters>
            <DistanceMeters>NAN</DistanceMeters>
          </Trackpoint>
          <Trackpoint>
            <Time>2022-07-08T11:48:00.000Z</Time>
            <Position>
              <LatitudeDegrees>43.38042126037180423736572265625</LatitudeDegrees>
              <LongitudeDegrees>-1.73237216658890247344970703125</LongitudeDegrees>
            </Position>
            <AltitudeMeters>27</AltitudeMeters>
            <DistanceMeters>NAN</DistanceMeters>
          </Trackpoint>
          <Trackpoint>
            <Time>2022-07-08T11:48:02.000Z</Time>
            <Position>
              <LatitudeDegrees>43.38025085628032684326171875</LatitudeDegrees>
              <LongitudeDegrees>-1.73240770585834980010986328125</LongitudeDegrees>
            </Position>
            <AltitudeMeters>26.3999996185302734375</AltitudeMeters>
            <DistanceMeters>NAN</DistanceMeters>
          </Trackpoint>
          <Trackpoint>
            <Time>2022-07-08T11:48:03.000Z</Time>
            <Position>
              <LatitudeDegrees>43.38016661815345287322998046875</LatitudeDegrees>
              <LongitudeDegrees>-1.7324483580887317657470703125</LongitudeDegrees>
            </Position>
            <AltitudeMeters>26</AltitudeMeters>
            <DistanceMeters>NAN</DistanceMeters>
          </Trackpoint>
          <Trackpoint>
            <Time>2022-07-08T11:48:06.000Z</Time>
            <Position>
              <LatitudeDegrees>43.37991599924862384796142578125</LatitudeDegrees>
              <LongitudeDegrees>-1.732610128819942474365234375</LongitudeDegrees>
            </Position>
            <AltitudeMeters>25</AltitudeMeters>
            <DistanceMeters>NAN</DistanceMeters>
          </Trackpoint>
          <Trackpoint>
            <Time>2022-07-08T11:48:10.000Z</Time>
            <Position>
              <LatitudeDegrees>43.37956915609538555145263671875</LatitudeDegrees>
              <LongitudeDegrees>-1.7328250408172607421875</LongitudeDegrees>
            </Position>
            <AltitudeMeters>23.799999237060546875</AltitudeMeters>
            <DistanceMeters>NAN</DistanceMeters>
          </Trackpoint>
          <Trackpoint>
            <Time>2022-07-08T11:48:12.000Z</Time>
            <Position>
              <LatitudeDegrees>43.37940218858420848846435546875</LatitudeDegrees>
              <LongitudeDegrees>-1.7329281382262706756591796875</LongitudeDegrees>
            </Position>
            <AltitudeMeters>22.6000003814697265625</AltitudeMeters>
            <DistanceMeters>NAN</DistanceMeters>
          </Trackpoint>
          <Trackpoint>
            <Time>2022-07-08T11:48:13.000Z</Time>
            <Position>
              <LatitudeDegrees>43.37932549417018890380859375</LatitudeDegrees>
              <LongitudeDegrees>-1.7329824529588222503662109375</LongitudeDegrees>
            </Position>
            <AltitudeMeters>22.200000762939453125</AltitudeMeters>
            <DistanceMeters>NAN</DistanceMeters>
          </Trackpoint>
          <Trackpoint>
            <Time>2022-07-08T11:48:14.000Z</Time>
            <Position>
              <LatitudeDegrees>43.37925667874515056610107421875</LatitudeDegrees>
              <LongitudeDegrees>-1.73304389230906963348388671875</LongitudeDegrees>
            </Position>
            <AltitudeMeters>22</AltitudeMeters>
            <DistanceMeters>NAN</DistanceMeters>
          </Trackpoint>
          <Trackpoint>
            <Time>2022-07-08T11:48:17.000Z</Time>
            <Position>
              <LatitudeDegrees>43.37908417917788028717041015625</LatitudeDegrees>
              <LongitudeDegrees>-1.7332359217107295989990234375</LongitudeDegrees>
            </Position>
            <AltitudeMeters>21.3999996185302734375</AltitudeMeters>
            <DistanceMeters>NAN</DistanceMeters>
          </Trackpoint>
          <Trackpoint>
            <Time>2022-07-08T11:48:21.000Z</Time>
            <Position>
              <LatitudeDegrees>43.37890028022229671478271484375</LatitudeDegrees>
              <LongitudeDegrees>-1.7334518395364284515380859375</LongitudeDegrees>
            </Position>
            <AltitudeMeters>21.6000003814697265625</AltitudeMeters>
            <DistanceMeters>NAN</DistanceMeters>
          </Trackpoint>
          <Trackpoint>
            <Time>2022-07-08T11:48:22.000Z</Time>
            <Position>
              <LatitudeDegrees>43.3788663335144519805908203125</LatitudeDegrees>
              <LongitudeDegrees>-1.7335022985935211181640625</LongitudeDegrees>
            </Position>
            <AltitudeMeters>21.799999237060546875</AltitudeMeters>
            <DistanceMeters>NAN</DistanceMeters>
          </Trackpoint>
          <Trackpoint>
            <Time>2022-07-08T11:48:26.000Z</Time>
            <Position>
              <LatitudeDegrees>43.37875409983098506927490234375</LatitudeDegrees>
              <LongitudeDegrees>-1.73367521725594997406005859375</LongitudeDegrees>
            </Position>
            <AltitudeMeters>21.799999237060546875</AltitudeMeters>
            <DistanceMeters>NAN</DistanceMeters>
          </Trackpoint>
          <Trackpoint>
            <Time>2022-07-08T11:48:27.000Z</Time>
            <Position>
              <LatitudeDegrees>43.37873146869242191314697265625</LatitudeDegrees>
              <LongitudeDegrees>-1.73371796496212482452392578125</LongitudeDegrees>
            </Position>
            <AltitudeMeters>21.799999237060546875</AltitudeMeters>
            <DistanceMeters>NAN</DistanceMeters>
          </Trackpoint>
          <Trackpoint>
            <Time>2022-07-08T11:48:33.000Z</Time>
            <Position>
              <LatitudeDegrees>43.378624431788921356201171875</LatitudeDegrees>
              <LongitudeDegrees>-1.733964979648590087890625</LongitudeDegrees>
            </Position>
            <AltitudeMeters>21.799999237060546875</AltitudeMeters>
            <DistanceMeters>NAN</DistanceMeters>
          </Trackpoint>
          <Trackpoint>
            <Time>2022-07-08T11:48:40.000Z</Time>
            <Position>
              <LatitudeDegrees>43.37845302186906337738037109375</LatitudeDegrees>
              <LongitudeDegrees>-1.734220795333385467529296875</LongitudeDegrees>
            </Position>
            <AltitudeMeters>21.6000003814697265625</AltitudeMeters>
            <DistanceMeters>NAN</DistanceMeters>
          </Trackpoint>
          <Trackpoint>
            <Time>2022-07-08T11:48:49.000Z</Time>
            <Position>
              <LatitudeDegrees>43.37823241017758846282958984375</LatitudeDegrees>
              <LongitudeDegrees>-1.7345807142555713653564453125</LongitudeDegrees>
            </Position>
            <AltitudeMeters>21.6000003814697265625</AltitudeMeters>
            <DistanceMeters>NAN</DistanceMeters>
          </Trackpoint>
          <Trackpoint>
            <Time>2022-07-08T11:48:54.000Z</Time>
            <Position>
              <LatitudeDegrees>43.378130905330181121826171875</LatitudeDegrees>
              <LongitudeDegrees>-1.73474349081516265869140625</LongitudeDegrees>
            </Position>
            <AltitudeMeters>21.799999237060546875</AltitudeMeters>
            <DistanceMeters>NAN</DistanceMeters>
          </Trackpoint>
          <Trackpoint>
            <Time>2022-07-08T11:48:57.000Z</Time>
            <Position>
              <LatitudeDegrees>43.3780891634523868560791015625</LatitudeDegrees>
              <LongitudeDegrees>-1.73482798039913177490234375</LongitudeDegrees>
            </Position>
            <AltitudeMeters>22</AltitudeMeters>
            <DistanceMeters>NAN</DistanceMeters>
          </Trackpoint>
          <Trackpoint>
            <Time>2022-07-08T11:49:03.000Z</Time>
            <Position>
              <LatitudeDegrees>43.37800408713519573211669921875</LatitudeDegrees>
              <LongitudeDegrees>-1.7349632643163204193115234375</LongitudeDegrees>
            </Position>
            <AltitudeMeters>22.6000003814697265625</AltitudeMeters>
            <DistanceMeters>NAN</DistanceMeters>
          </Trackpoint>
          <Trackpoint>
            <Time>2022-07-08T11:49:04.000Z</Time>
            <Position>
              <LatitudeDegrees>43.37799034081399440765380859375</LatitudeDegrees>
              <LongitudeDegrees>-1.73498363234102725982666015625</LongitudeDegrees>
            </Position>
            <AltitudeMeters>22.6000003814697265625</AltitudeMeters>
            <DistanceMeters>NAN</DistanceMeters>
          </Trackpoint>
          <Trackpoint>
            <Time>2022-07-08T11:49:09.000Z</Time>
            <Position>
              <LatitudeDegrees>43.3779238723218441009521484375</LatitudeDegrees>
              <LongitudeDegrees>-1.73507365398108959197998046875</LongitudeDegrees>
            </Position>
            <AltitudeMeters>23</AltitudeMeters>
            <DistanceMeters>NAN</DistanceMeters>
          </Trackpoint>
          <Trackpoint>
            <Time>2022-07-08T11:49:13.000Z</Time>
            <Position>
              <LatitudeDegrees>43.37787752039730548858642578125</LatitudeDegrees>
              <LongitudeDegrees>-1.7351211793720722198486328125</LongitudeDegrees>
            </Position>
            <AltitudeMeters>23.6000003814697265625</AltitudeMeters>
            <DistanceMeters>NAN</DistanceMeters>
          </Trackpoint>
          <Trackpoint>
            <Time>2022-07-08T11:49:15.000Z</Time>
            <Position>
              <LatitudeDegrees>43.37784818373620510101318359375</LatitudeDegrees>
              <LongitudeDegrees>-1.73514783382415771484375</LongitudeDegrees>
            </Position>
            <AltitudeMeters>23.799999237060546875</AltitudeMeters>
            <DistanceMeters>NAN</DistanceMeters>
          </Trackpoint>
          <Trackpoint>
            <Time>2022-07-08T11:49:22.000Z</Time>
            <Position>
              <LatitudeDegrees>43.3777678012847900390625</LatitudeDegrees>
              <LongitudeDegrees>-1.735303066670894622802734375</LongitudeDegrees>
            </Position>
            <AltitudeMeters>24.200000762939453125</AltitudeMeters>
            <DistanceMeters>NAN</DistanceMeters>
          </Trackpoint>
          <Trackpoint>
            <Time>2022-07-08T11:49:24.000Z</Time>
            <Position>
              <LatitudeDegrees>43.37775128893554210662841796875</LatitudeDegrees>
              <LongitudeDegrees>-1.73533550463616847991943359375</LongitudeDegrees>
            </Position>
            <AltitudeMeters>24.200000762939453125</AltitudeMeters>
            <DistanceMeters>NAN</DistanceMeters>
          </Trackpoint>
          <Trackpoint>
            <Time>2022-07-08T11:49:26.000Z</Time>
            <Position>
              <LatitudeDegrees>43.37773636914789676666259765625</LatitudeDegrees>
              <LongitudeDegrees>-1.73535210080444812774658203125</LongitudeDegrees>
            </Position>
            <AltitudeMeters>24.3999996185302734375</AltitudeMeters>
            <DistanceMeters>NAN</DistanceMeters>
          </Trackpoint>
          <Trackpoint>
            <Time>2022-07-08T11:49:28.000Z</Time>
            <Position>
              <LatitudeDegrees>43.37771222926676273345947265625</LatitudeDegrees>
              <LongitudeDegrees>-1.73538613133132457733154296875</LongitudeDegrees>
            </Position>
            <AltitudeMeters>24.3999996185302734375</AltitudeMeters>
            <DistanceMeters>NAN</DistanceMeters>
          </Trackpoint>
          <Trackpoint>
            <Time>2022-07-08T11:49:30.000Z</Time>
            <Position>
              <LatitudeDegrees>43.3776942081749439239501953125</LatitudeDegrees>
              <LongitudeDegrees>-1.735417060554027557373046875</LongitudeDegrees>
            </Position>
            <AltitudeMeters>24.6000003814697265625</AltitudeMeters>
            <DistanceMeters>NAN</DistanceMeters>
          </Trackpoint>
          <Trackpoint>
            <Time>2022-07-08T11:49:34.000Z</Time>
            <Position>
              <LatitudeDegrees>43.377663195133209228515625</LatitudeDegrees>
              <LongitudeDegrees>-1.73546978272497653961181640625</LongitudeDegrees>
            </Position>
            <AltitudeMeters>25</AltitudeMeters>
            <DistanceMeters>NAN</DistanceMeters>
          </Trackpoint>
          <Trackpoint>
            <Time>2022-07-08T11:49:42.000Z</Time>
            <Position>
              <LatitudeDegrees>43.37756923399865627288818359375</LatitudeDegrees>
              <LongitudeDegrees>-1.73558612354099750518798828125</LongitudeDegrees>
            </Position>
            <AltitudeMeters>25.6000003814697265625</AltitudeMeters>
            <DistanceMeters>NAN</DistanceMeters>
          </Trackpoint>
          <Trackpoint>
            <Time>2022-07-08T11:49:43.000Z</Time>
            <Position>
              <LatitudeDegrees>43.37755766697227954864501953125</LatitudeDegrees>
              <LongitudeDegrees>-1.735601462423801422119140625</LongitudeDegrees>
            </Position>
            <AltitudeMeters>25.799999237060546875</AltitudeMeters>
            <DistanceMeters>NAN</DistanceMeters>
          </Trackpoint>
          <Trackpoint>
            <Time>2022-07-08T11:49:48.000Z</Time>
            <Position>
              <LatitudeDegrees>43.37750905193388462066650390625</LatitudeDegrees>
              <LongitudeDegrees>-1.73567497171461582183837890625</LongitudeDegrees>
            </Position>
            <AltitudeMeters>26</AltitudeMeters>
            <DistanceMeters>NAN</DistanceMeters>
          </Trackpoint>
          <Trackpoint>
            <Time>2022-07-08T11:49:51.000Z</Time>
            <Position>
              <LatitudeDegrees>43.37747518904507160186767578125</LatitudeDegrees>
              <LongitudeDegrees>-1.73571235500276088714599609375</LongitudeDegrees>
            </Position>
            <AltitudeMeters>26</AltitudeMeters>
            <DistanceMeters>NAN</DistanceMeters>
          </Trackpoint>
          <Trackpoint>
            <Time>2022-07-08T11:49:54.000Z</Time>
            <Position>
              <LatitudeDegrees>43.37747368030250072479248046875</LatitudeDegrees>
              <LongitudeDegrees>-1.735757030546665191650390625</LongitudeDegrees>
            </Position>
            <AltitudeMeters>26.200000762939453125</AltitudeMeters>
            <DistanceMeters>NAN</DistanceMeters>
          </Trackpoint>
          <Trackpoint>
            <Time>2022-07-08T11:49:55.000Z</Time>
            <Position>
              <LatitudeDegrees>43.37746680714190006256103515625</LatitudeDegrees>
              <LongitudeDegrees>-1.73576951958239078521728515625</LongitudeDegrees>
            </Position>
            <AltitudeMeters>26.200000762939453125</AltitudeMeters>
            <DistanceMeters>NAN</DistanceMeters>
          </Trackpoint>
          <Trackpoint>
            <Time>2022-07-08T11:49:59.000Z</Time>
            <Position>
              <LatitudeDegrees>43.37743042968213558197021484375</LatitudeDegrees>
              <LongitudeDegrees>-1.73583188094198703765869140625</LongitudeDegrees>
            </Position>
            <AltitudeMeters>26.6000003814697265625</AltitudeMeters>
            <DistanceMeters>NAN</DistanceMeters>
          </Trackpoint>
          <Trackpoint>
            <Time>2022-07-08T11:50:00.000Z</Time>
            <Position>
              <LatitudeDegrees>43.377428166568279266357421875</LatitudeDegrees>
              <LongitudeDegrees>-1.73584529198706150054931640625</LongitudeDegrees>
            </Position>
            <AltitudeMeters>26.6000003814697265625</AltitudeMeters>
            <DistanceMeters>NAN</DistanceMeters>
          </Trackpoint>
          <Trackpoint>
            <Time>2022-07-08T11:50:02.000Z</Time>
            <Position>
              <LatitudeDegrees>43.37741735391318798065185546875</LatitudeDegrees>
              <LongitudeDegrees>-1.73586674965918064117431640625</LongitudeDegrees>
            </Position>
            <AltitudeMeters>26.799999237060546875</AltitudeMeters>
            <DistanceMeters>NAN</DistanceMeters>
          </Trackpoint>
          <Trackpoint>
            <Time>2022-07-08T11:50:03.000Z</Time>
            <Position>
              <LatitudeDegrees>43.3774149231612682342529296875</LatitudeDegrees>
              <LongitudeDegrees>-1.735873036086559295654296875</LongitudeDegrees>
            </Position>
            <AltitudeMeters>26.799999237060546875</AltitudeMeters>
            <DistanceMeters>NAN</DistanceMeters>
          </Trackpoint>
          <Trackpoint>
            <Time>2022-07-08T11:50:06.000Z</Time>
            <Position>
              <LatitudeDegrees>43.3773820661008358001708984375</LatitudeDegrees>
              <LongitudeDegrees>-1.73591435886919498443603515625</LongitudeDegrees>
            </Position>
            <AltitudeMeters>27</AltitudeMeters>
            <DistanceMeters>NAN</DistanceMeters>
          </Trackpoint>
          <Trackpoint>
            <Time>2022-07-08T11:50:08.000Z</Time>
            <Position>
              <LatitudeDegrees>43.3773535676300525665283203125</LatitudeDegrees>
              <LongitudeDegrees>-1.73597395420074462890625</LongitudeDegrees>
            </Position>
            <AltitudeMeters>27.200000762939453125</AltitudeMeters>
            <DistanceMeters>NAN</DistanceMeters>
          </Trackpoint>
          <Trackpoint>
            <Time>2022-07-08T11:50:09.000Z</Time>
            <Position>
              <LatitudeDegrees>43.377346694469451904296875</LatitudeDegrees>
              <LongitudeDegrees>-1.7360110022127628326416015625</LongitudeDegrees>
            </Position>
            <AltitudeMeters>27.200000762939453125</AltitudeMeters>
            <DistanceMeters>NAN</DistanceMeters>
          </Trackpoint>
          <Trackpoint>
            <Time>2022-07-08T11:50:13.000Z</Time>
            <Position>
              <LatitudeDegrees>43.37732330895960330963134765625</LatitudeDegrees>
              <LongitudeDegrees>-1.73614670522511005401611328125</LongitudeDegrees>
            </Position>
            <AltitudeMeters>27.6000003814697265625</AltitudeMeters>
            <DistanceMeters>NAN</DistanceMeters>
          </Trackpoint>
          <Trackpoint>
            <Time>2022-07-08T11:50:16.000Z</Time>
            <Position>
              <LatitudeDegrees>43.3773019351065158843994140625</LatitudeDegrees>
              <LongitudeDegrees>-1.7362688295543193817138671875</LongitudeDegrees>
            </Position>
            <AltitudeMeters>27.799999237060546875</AltitudeMeters>
            <DistanceMeters>NAN</DistanceMeters>
          </Trackpoint>
          <Trackpoint>
            <Time>2022-07-08T11:50:19.000Z</Time>
            <Position>
              <LatitudeDegrees>43.37727972306311130523681640625</LatitudeDegrees>
              <LongitudeDegrees>-1.7363213002681732177734375</LongitudeDegrees>
            </Position>
            <AltitudeMeters>28</AltitudeMeters>
            <DistanceMeters>NAN</DistanceMeters>
          </Trackpoint>
          <Trackpoint>
            <Time>2022-07-08T11:50:20.000Z</Time>
            <Position>
              <LatitudeDegrees>43.377265892922878265380859375</LatitudeDegrees>
              <LongitudeDegrees>-1.7364160157740116119384765625</LongitudeDegrees>
            </Position>
            <AltitudeMeters>28</AltitudeMeters>
            <DistanceMeters>NAN</DistanceMeters>
          </Trackpoint>
          <Trackpoint>
            <Time>2022-07-08T11:50:23.000Z</Time>
            <Position>
              <LatitudeDegrees>43.37726329453289508819580078125</LatitudeDegrees>
              <LongitudeDegrees>-1.736512072384357452392578125</LongitudeDegrees>
            </Position>
            <AltitudeMeters>28.6000003814697265625</AltitudeMeters>
            <DistanceMeters>NAN</DistanceMeters>
          </Trackpoint>
          <Trackpoint>
            <Time>2022-07-08T11:50:27.000Z</Time>
            <Position>
              <LatitudeDegrees>43.3772472850978374481201171875</LatitudeDegrees>
              <LongitudeDegrees>-1.73658139072358608245849609375</LongitudeDegrees>
            </Position>
            <AltitudeMeters>28.799999237060546875</AltitudeMeters>
            <DistanceMeters>NAN</DistanceMeters>
          </Trackpoint>
          <Trackpoint>
            <Time>2022-07-08T11:50:28.000Z</Time>
            <Position>
              <LatitudeDegrees>43.3772456087172031402587890625</LatitudeDegrees>
              <LongitudeDegrees>-1.7366061173379421234130859375</LongitudeDegrees>
            </Position>
            <AltitudeMeters>28.799999237060546875</AltitudeMeters>
            <DistanceMeters>NAN</DistanceMeters>
          </Trackpoint>
          <Trackpoint>
            <Time>2022-07-08T11:50:30.000Z</Time>
            <Position>
              <LatitudeDegrees>43.37725239805877208709716796875</LatitudeDegrees>
              <LongitudeDegrees>-1.7366329394280910491943359375</LongitudeDegrees>
            </Position>
            <AltitudeMeters>29</AltitudeMeters>
            <DistanceMeters>NAN</DistanceMeters>
          </Trackpoint>
          <Trackpoint>
            <Time>2022-07-08T11:50:38.000Z</Time>
            <Position>
              <LatitudeDegrees>43.37726899422705173492431640625</LatitudeDegrees>
              <LongitudeDegrees>-1.7368216998875141143798828125</LongitudeDegrees>
            </Position>
            <AltitudeMeters>29.799999237060546875</AltitudeMeters>
            <DistanceMeters>NAN</DistanceMeters>
          </Trackpoint>
          <Trackpoint>
            <Time>2022-07-08T11:50:39.000Z</Time>
            <Position>
              <LatitudeDegrees>43.37728190235793590545654296875</LatitudeDegrees>
              <LongitudeDegrees>-1.736850701272487640380859375</LongitudeDegrees>
            </Position>
            <AltitudeMeters>29.799999237060546875</AltitudeMeters>
            <DistanceMeters>NAN</DistanceMeters>
          </Trackpoint>
          <Trackpoint>
            <Time>2022-07-08T11:50:44.000Z</Time>
            <Position>
              <LatitudeDegrees>43.37734845466911792755126953125</LatitudeDegrees>
              <LongitudeDegrees>-1.736975423991680145263671875</LongitudeDegrees>
            </Position>
            <AltitudeMeters>30.200000762939453125</AltitudeMeters>
            <DistanceMeters>NAN</DistanceMeters>
          </Trackpoint>
          <Trackpoint>
            <Time>2022-07-08T11:50:50.000Z</Time>
            <Position>
              <LatitudeDegrees>43.37738835252821445465087890625</LatitudeDegrees>
              <LongitudeDegrees>-1.73712822608649730682373046875</LongitudeDegrees>
            </Position>
            <AltitudeMeters>30.799999237060546875</AltitudeMeters>
            <DistanceMeters>NAN</DistanceMeters>
          </Trackpoint>
          <Trackpoint>
            <Time>2022-07-08T11:50:52.000Z</Time>
            <Position>
              <LatitudeDegrees>43.377416767179965972900390625</LatitudeDegrees>
              <LongitudeDegrees>-1.73717223107814788818359375</LongitudeDegrees>
            </Position>
            <AltitudeMeters>31</AltitudeMeters>
            <DistanceMeters>NAN</DistanceMeters>
          </Trackpoint>
          <Trackpoint>
            <Time>2022-07-08T11:51:00.000Z</Time>
            <Position>
              <LatitudeDegrees>43.37749849073588848114013671875</LatitudeDegrees>
              <LongitudeDegrees>-1.73734850250184535980224609375</LongitudeDegrees>
            </Position>
            <AltitudeMeters>31.799999237060546875</AltitudeMeters>
            <DistanceMeters>NAN</DistanceMeters>
          </Trackpoint>
          <Trackpoint>
            <Time>2022-07-08T11:51:03.000Z</Time>
            <Position>
              <LatitudeDegrees>43.37751626037061214447021484375</LatitudeDegrees>
              <LongitudeDegrees>-1.737413965165615081787109375</LongitudeDegrees>
            </Position>
            <AltitudeMeters>32</AltitudeMeters>
            <DistanceMeters>NAN</DistanceMeters>
          </Trackpoint>
          <Trackpoint>
            <Time>2022-07-08T11:51:07.000Z</Time>
            <Position>
              <LatitudeDegrees>43.37754157371819019317626953125</LatitudeDegrees>
              <LongitudeDegrees>-1.7375095188617706298828125</LongitudeDegrees>
            </Position>
            <AltitudeMeters>32.200000762939453125</AltitudeMeters>
            <DistanceMeters>NAN</DistanceMeters>
          </Trackpoint>
          <Trackpoint>
            <Time>2022-07-08T11:51:11.000Z</Time>
            <Position>
              <LatitudeDegrees>43.3775725029408931732177734375</LatitudeDegrees>
              <LongitudeDegrees>-1.737607419490814208984375</LongitudeDegrees>
            </Position>
            <AltitudeMeters>32.40000152587890625</AltitudeMeters>
            <DistanceMeters>NAN</DistanceMeters>
          </Trackpoint>
          <Trackpoint>
            <Time>2022-07-08T11:51:16.000Z</Time>
            <Position>
              <LatitudeDegrees>43.3775896020233631134033203125</LatitudeDegrees>
              <LongitudeDegrees>-1.7377199046313762664794921875</LongitudeDegrees>
            </Position>
            <AltitudeMeters>33</AltitudeMeters>
            <DistanceMeters>NAN</DistanceMeters>
          </Trackpoint>
          <Trackpoint>
            <Time>2022-07-08T11:51:17.000Z</Time>
            <Position>
              <LatitudeDegrees>43.37758918292820453643798828125</LatitudeDegrees>
              <LongitudeDegrees>-1.7377400211989879608154296875</LongitudeDegrees>
            </Position>
            <AltitudeMeters>33.200000762939453125</AltitudeMeters>
            <DistanceMeters>NAN</DistanceMeters>
          </Trackpoint>
          <Trackpoint>
            <Time>2022-07-08T11:51:24.000Z</Time>
            <Position>
              <LatitudeDegrees>43.37761416099965572357177734375</LatitudeDegrees>
              <LongitudeDegrees>-1.73789508640766143798828125</LongitudeDegrees>
            </Position>
            <AltitudeMeters>33</AltitudeMeters>
            <DistanceMeters>NAN</DistanceMeters>
          </Trackpoint>
          <Trackpoint>
            <Time>2022-07-08T11:51:31.000Z</Time>
            <Position>
              <LatitudeDegrees>43.377619944512844085693359375</LatitudeDegrees>
              <LongitudeDegrees>-1.73806213773787021636962890625</LongitudeDegrees>
            </Position>
            <AltitudeMeters>34.200000762939453125</AltitudeMeters>
            <DistanceMeters>NAN</DistanceMeters>
          </Trackpoint>
          <Trackpoint>
            <Time>2022-07-08T11:51:33.000Z</Time>
            <Position>
              <LatitudeDegrees>43.37761449627578258514404296875</LatitudeDegrees>
              <LongitudeDegrees>-1.7381036281585693359375</LongitudeDegrees>
            </Position>
            <AltitudeMeters>34.40000152587890625</AltitudeMeters>
            <DistanceMeters>NAN</DistanceMeters>
          </Trackpoint>
          <Trackpoint>
            <Time>2022-07-08T11:51:36.000Z</Time>
            <Position>
              <LatitudeDegrees>43.37760083377361297607421875</LatitudeDegrees>
              <LongitudeDegrees>-1.73816707916557788848876953125</LongitudeDegrees>
            </Position>
            <AltitudeMeters>34.59999847412109375</AltitudeMeters>
            <DistanceMeters>NAN</DistanceMeters>
          </Trackpoint>
          <Trackpoint>
            <Time>2022-07-08T11:51:39.000Z</Time>
            <Position>
              <LatitudeDegrees>43.3775932900607585906982421875</LatitudeDegrees>
              <LongitudeDegrees>-1.73823849298059940338134765625</LongitudeDegrees>
            </Position>
            <AltitudeMeters>35</AltitudeMeters>
            <DistanceMeters>NAN</DistanceMeters>
          </Trackpoint>
          <Trackpoint>
            <Time>2022-07-08T11:51:41.000Z</Time>
            <Position>
              <LatitudeDegrees>43.37758868001401424407958984375</LatitudeDegrees>
              <LongitudeDegrees>-1.7382764630019664764404296875</LongitudeDegrees>
            </Position>
            <AltitudeMeters>35.200000762939453125</AltitudeMeters>
            <DistanceMeters>NAN</DistanceMeters>
          </Trackpoint>
          <Trackpoint>
            <Time>2022-07-08T11:51:50.000Z</Time>
            <Position>
              <LatitudeDegrees>43.37753889150917530059814453125</LatitudeDegrees>
              <LongitudeDegrees>-1.73847234807908535003662109375</LongitudeDegrees>
            </Position>
            <AltitudeMeters>36.200000762939453125</AltitudeMeters>
            <DistanceMeters>NAN</DistanceMeters>
          </Trackpoint>
          <Trackpoint>
            <Time>2022-07-08T11:51:55.000Z</Time>
            <Position>
              <LatitudeDegrees>43.37750787846744060516357421875</LatitudeDegrees>
              <LongitudeDegrees>-1.7385528981685638427734375</LongitudeDegrees>
            </Position>
            <AltitudeMeters>36.200000762939453125</AltitudeMeters>
            <DistanceMeters>NAN</DistanceMeters>
          </Trackpoint>
          <Trackpoint>
            <Time>2022-07-08T11:51:59.000Z</Time>
            <Position>
              <LatitudeDegrees>43.37746110744774341583251953125</LatitudeDegrees>
              <LongitudeDegrees>-1.73866094090044498443603515625</LongitudeDegrees>
            </Position>
            <AltitudeMeters>36.59999847412109375</AltitudeMeters>
            <DistanceMeters>NAN</DistanceMeters>
          </Trackpoint>
          <Trackpoint>
            <Time>2022-07-08T11:52:02.000Z</Time>
            <Position>
              <LatitudeDegrees>43.37743814103305339813232421875</LatitudeDegrees>
              <LongitudeDegrees>-1.7387113161385059356689453125</LongitudeDegrees>
            </Position>
            <AltitudeMeters>36.799999237060546875</AltitudeMeters>
            <DistanceMeters>NAN</DistanceMeters>
          </Trackpoint>
          <Trackpoint>
            <Time>2022-07-08T11:52:05.000Z</Time>
            <Position>
              <LatitudeDegrees>43.37740042246878147125244140625</LatitudeDegrees>
              <LongitudeDegrees>-1.73876286484301090240478515625</LongitudeDegrees>
            </Position>
            <AltitudeMeters>37.200000762939453125</AltitudeMeters>
            <DistanceMeters>NAN</DistanceMeters>
          </Trackpoint>
          <Trackpoint>
            <Time>2022-07-08T11:52:06.000Z</Time>
            <Position>
              <LatitudeDegrees>43.37738684378564357757568359375</LatitudeDegrees>
              <LongitudeDegrees>-1.73878180794417858123779296875</LongitudeDegrees>
            </Position>
            <AltitudeMeters>37.40000152587890625</AltitudeMeters>
            <DistanceMeters>NAN</DistanceMeters>
          </Trackpoint>
          <Trackpoint>
            <Time>2022-07-08T11:52:07.000Z</Time>
            <Position>
              <LatitudeDegrees>43.37737158872187137603759765625</LatitudeDegrees>
              <LongitudeDegrees>-1.73879773356020450592041015625</LongitudeDegrees>
            </Position>
            <AltitudeMeters>37.40000152587890625</AltitudeMeters>
            <DistanceMeters>NAN</DistanceMeters>
          </Trackpoint>
          <Trackpoint>
            <Time>2022-07-08T11:52:09.000Z</Time>
            <Position>
              <LatitudeDegrees>43.3773485384881496429443359375</LatitudeDegrees>
              <LongitudeDegrees>-1.73882539384067058563232421875</LongitudeDegrees>
            </Position>
            <AltitudeMeters>37.40000152587890625</AltitudeMeters>
            <DistanceMeters>NAN</DistanceMeters>
          </Trackpoint>
          <Trackpoint>
            <Time>2022-07-08T11:52:11.000Z</Time>
            <Position>
              <LatitudeDegrees>43.3773233927786350250244140625</LatitudeDegrees>
              <LongitudeDegrees>-1.73885791562497615814208984375</LongitudeDegrees>
            </Position>
            <AltitudeMeters>37.40000152587890625</AltitudeMeters>
            <DistanceMeters>NAN</DistanceMeters>
          </Trackpoint>
          <Trackpoint>
            <Time>2022-07-08T11:52:17.000Z</Time>
            <Position>
              <LatitudeDegrees>43.37725440971553325653076171875</LatitudeDegrees>
              <LongitudeDegrees>-1.7389513738453388214111328125</LongitudeDegrees>
            </Position>
            <AltitudeMeters>37.799999237060546875</AltitudeMeters>
            <DistanceMeters>NAN</DistanceMeters>
          </Trackpoint>
          <Trackpoint>
            <Time>2022-07-08T11:52:21.000Z</Time>
            <Position>
              <LatitudeDegrees>43.3772070519626140594482421875</LatitudeDegrees>
              <LongitudeDegrees>-1.739007867872714996337890625</LongitudeDegrees>
            </Position>
            <AltitudeMeters>38</AltitudeMeters>
            <DistanceMeters>NAN</DistanceMeters>
          </Trackpoint>
          <Trackpoint>
            <Time>2022-07-08T11:52:24.000Z</Time>
            <Position>
              <LatitudeDegrees>43.377165980637073516845703125</LatitudeDegrees>
              <LongitudeDegrees>-1.739052124321460723876953125</LongitudeDegrees>
            </Position>
            <AltitudeMeters>38.200000762939453125</AltitudeMeters>
            <DistanceMeters>NAN</DistanceMeters>
          </Trackpoint>
          <Trackpoint>
            <Time>2022-07-08T11:52:27.000Z</Time>
            <Position>
              <LatitudeDegrees>43.37713018991053104400634765625</LatitudeDegrees>
              <LongitudeDegrees>-1.73908975906670093536376953125</LongitudeDegrees>
            </Position>
            <AltitudeMeters>38.40000152587890625</AltitudeMeters>
            <DistanceMeters>NAN</DistanceMeters>
          </Trackpoint>
          <Trackpoint>
            <Time>2022-07-08T11:52:35.000Z</Time>
            <Position>
              <LatitudeDegrees>43.3770234882831573486328125</LatitudeDegrees>
              <LongitudeDegrees>-1.739194281399250030517578125</LongitudeDegrees>
            </Position>
            <AltitudeMeters>39.200000762939453125</AltitudeMeters>
            <DistanceMeters>NAN</DistanceMeters>
          </Trackpoint>
          <Trackpoint>
            <Time>2022-07-08T11:52:43.000Z</Time>
            <Position>
              <LatitudeDegrees>43.3769153617322444915771484375</LatitudeDegrees>
              <LongitudeDegrees>-1.739310286939144134521484375</LongitudeDegrees>
            </Position>
            <AltitudeMeters>39.59999847412109375</AltitudeMeters>
            <DistanceMeters>NAN</DistanceMeters>
          </Trackpoint>
          <Trackpoint>
            <Time>2022-07-08T11:52:44.000Z</Time>
            <Position>
              <LatitudeDegrees>43.376903124153614044189453125</LatitudeDegrees>
              <LongitudeDegrees>-1.73932378180325031280517578125</LongitudeDegrees>
            </Position>
            <AltitudeMeters>39.799999237060546875</AltitudeMeters>
            <DistanceMeters>NAN</DistanceMeters>
          </Trackpoint>
          <Trackpoint>
            <Time>2022-07-08T11:52:53.000Z</Time>
            <Position>
              <LatitudeDegrees>43.37677831761538982391357421875</LatitudeDegrees>
              <LongitudeDegrees>-1.7394241131842136383056640625</LongitudeDegrees>
            </Position>
            <AltitudeMeters>40.200000762939453125</AltitudeMeters>
            <DistanceMeters>NAN</DistanceMeters>
          </Trackpoint>
          <Trackpoint>
            <Time>2022-07-08T11:52:59.000Z</Time>
            <Position>
              <LatitudeDegrees>43.37670489214360713958740234375</LatitudeDegrees>
              <LongitudeDegrees>-1.73952125944197177886962890625</LongitudeDegrees>
            </Position>
            <AltitudeMeters>40.59999847412109375</AltitudeMeters>
            <DistanceMeters>NAN</DistanceMeters>
          </Trackpoint>
          <Trackpoint>
            <Time>2022-07-08T11:53:02.000Z</Time>
            <Position>
              <LatitudeDegrees>43.3766675926744937896728515625</LatitudeDegrees>
              <LongitudeDegrees>-1.7395736463367938995361328125</LongitudeDegrees>
            </Position>
            <AltitudeMeters>41.200000762939453125</AltitudeMeters>
            <DistanceMeters>NAN</DistanceMeters>
          </Trackpoint>
          <Trackpoint>
            <Time>2022-07-08T11:53:11.000Z</Time>
            <Position>
              <LatitudeDegrees>43.37659894488751888275146484375</LatitudeDegrees>
              <LongitudeDegrees>-1.73972225748002529144287109375</LongitudeDegrees>
            </Position>
            <AltitudeMeters>41.59999847412109375</AltitudeMeters>
            <DistanceMeters>NAN</DistanceMeters>
          </Trackpoint>
          <Trackpoint>
            <Time>2022-07-08T11:53:20.000Z</Time>
            <Position>
              <LatitudeDegrees>43.3765433728694915771484375</LatitudeDegrees>
              <LongitudeDegrees>-1.73986156471073627471923828125</LongitudeDegrees>
            </Position>
            <AltitudeMeters>42.200000762939453125</AltitudeMeters>
            <DistanceMeters>NAN</DistanceMeters>
          </Trackpoint>
          <Trackpoint>
            <Time>2022-07-08T11:53:25.000Z</Time>
            <Position>
              <LatitudeDegrees>43.376520909368991851806640625</LatitudeDegrees>
              <LongitudeDegrees>-1.7399545200169086456298828125</LongitudeDegrees>
            </Position>
            <AltitudeMeters>42.59999847412109375</AltitudeMeters>
            <DistanceMeters>NAN</DistanceMeters>
          </Trackpoint>
          <Trackpoint>
            <Time>2022-07-08T11:53:29.000Z</Time>
            <Position>
              <LatitudeDegrees>43.37649953551590442657470703125</LatitudeDegrees>
              <LongitudeDegrees>-1.74002568237483501434326171875</LongitudeDegrees>
            </Position>
            <AltitudeMeters>42.59999847412109375</AltitudeMeters>
            <DistanceMeters>NAN</DistanceMeters>
          </Trackpoint>
          <Trackpoint>
            <Time>2022-07-08T11:53:36.000Z</Time>
            <Position>
              <LatitudeDegrees>43.3765017986297607421875</LatitudeDegrees>
              <LongitudeDegrees>-1.74013012088835239410400390625</LongitudeDegrees>
            </Position>
            <AltitudeMeters>43</AltitudeMeters>
            <DistanceMeters>NAN</DistanceMeters>
          </Trackpoint>
          <Trackpoint>
            <Time>2022-07-08T11:53:37.000Z</Time>
            <Position>
              <LatitudeDegrees>43.3765056543052196502685546875</LatitudeDegrees>
              <LongitudeDegrees>-1.7401442863047122955322265625</LongitudeDegrees>
            </Position>
            <AltitudeMeters>43.200000762939453125</AltitudeMeters>
            <DistanceMeters>NAN</DistanceMeters>
          </Trackpoint>
          <Trackpoint>
            <Time>2022-07-08T11:53:42.000Z</Time>
            <Position>
              <LatitudeDegrees>43.37651395238935947418212890625</LatitudeDegrees>
              <LongitudeDegrees>-1.74023573286831378936767578125</LongitudeDegrees>
            </Position>
            <AltitudeMeters>43.40000152587890625</AltitudeMeters>
            <DistanceMeters>NAN</DistanceMeters>
          </Trackpoint>
          <Trackpoint>
            <Time>2022-07-08T11:53:44.000Z</Time>
            <Position>
              <LatitudeDegrees>43.37651311419904232025146484375</LatitudeDegrees>
              <LongitudeDegrees>-1.7402743734419345855712890625</LongitudeDegrees>
            </Position>
            <AltitudeMeters>43.59999847412109375</AltitudeMeters>
            <DistanceMeters>NAN</DistanceMeters>
          </Trackpoint>
          <Trackpoint>
            <Time>2022-07-08T11:53:46.000Z</Time>
            <Position>
              <LatitudeDegrees>43.3765207417309284210205078125</LatitudeDegrees>
              <LongitudeDegrees>-1.7403022013604640960693359375</LongitudeDegrees>
            </Position>
            <AltitudeMeters>43.799999237060546875</AltitudeMeters>
            <DistanceMeters>NAN</DistanceMeters>
          </Trackpoint>
          <Trackpoint>
            <Time>2022-07-08T11:53:49.000Z</Time>
            <Position>
              <LatitudeDegrees>43.37651730515062808990478515625</LatitudeDegrees>
              <LongitudeDegrees>-1.74035911448299884796142578125</LongitudeDegrees>
            </Position>
            <AltitudeMeters>44.200000762939453125</AltitudeMeters>
            <DistanceMeters>NAN</DistanceMeters>
          </Trackpoint>
          <Trackpoint>
            <Time>2022-07-08T11:53:50.000Z</Time>
            <Position>
              <LatitudeDegrees>43.376514203846454620361328125</LatitudeDegrees>
              <LongitudeDegrees>-1.7403768002986907958984375</LongitudeDegrees>
            </Position>
            <AltitudeMeters>44.40000152587890625</AltitudeMeters>
            <DistanceMeters>NAN</DistanceMeters>
          </Trackpoint>
          <Trackpoint>
            <Time>2022-07-08T11:53:52.000Z</Time>
            <Position>
              <LatitudeDegrees>43.37651579640805721282958984375</LatitudeDegrees>
              <LongitudeDegrees>-1.74041762016713619232177734375</LongitudeDegrees>
            </Position>
            <AltitudeMeters>44.40000152587890625</AltitudeMeters>
            <DistanceMeters>NAN</DistanceMeters>
          </Trackpoint>
          <Trackpoint>
            <Time>2022-07-08T11:53:54.000Z</Time>
            <Position>
              <LatitudeDegrees>43.3765163831412792205810546875</LatitudeDegrees>
              <LongitudeDegrees>-1.74047612585127353668212890625</LongitudeDegrees>
            </Position>
            <AltitudeMeters>44.59999847412109375</AltitudeMeters>
            <DistanceMeters>NAN</DistanceMeters>
          </Trackpoint>
          <Trackpoint>
            <Time>2022-07-08T11:53:56.000Z</Time>
            <Position>
              <LatitudeDegrees>43.37651562876999378204345703125</LatitudeDegrees>
              <LongitudeDegrees>-1.7405268363654613494873046875</LongitudeDegrees>
            </Position>
            <AltitudeMeters>44.799999237060546875</AltitudeMeters>
            <DistanceMeters>NAN</DistanceMeters>
          </Trackpoint>
          <Trackpoint>
            <Time>2022-07-08T11:54:01.000Z</Time>
            <Position>
              <LatitudeDegrees>43.37649936787784099578857421875</LatitudeDegrees>
              <LongitudeDegrees>-1.7406381480395793914794921875</LongitudeDegrees>
            </Position>
            <AltitudeMeters>45.40000152587890625</AltitudeMeters>
            <DistanceMeters>NAN</DistanceMeters>
          </Trackpoint>
          <Trackpoint>
            <Time>2022-07-08T11:54:04.000Z</Time>
            <Position>
              <LatitudeDegrees>43.37650406174361705780029296875</LatitudeDegrees>
              <LongitudeDegrees>-1.7407025210559368133544921875</LongitudeDegrees>
            </Position>
            <AltitudeMeters>45.799999237060546875</AltitudeMeters>
            <DistanceMeters>NAN</DistanceMeters>
          </Trackpoint>
          <Trackpoint>
            <Time>2022-07-08T11:54:06.000Z</Time>
            <Position>
              <LatitudeDegrees>43.37650506757199764251708984375</LatitudeDegrees>
              <LongitudeDegrees>-1.7407388985157012939453125</LongitudeDegrees>
            </Position>
            <AltitudeMeters>46</AltitudeMeters>
            <DistanceMeters>NAN</DistanceMeters>
          </Trackpoint>
          <Trackpoint>
            <Time>2022-07-08T11:54:07.000Z</Time>
            <Position>
              <LatitudeDegrees>43.37650322355329990386962890625</LatitudeDegrees>
              <LongitudeDegrees>-1.74075390212237834930419921875</LongitudeDegrees>
            </Position>
            <AltitudeMeters>46</AltitudeMeters>
            <DistanceMeters>NAN</DistanceMeters>
          </Trackpoint>
          <Trackpoint>
            <Time>2022-07-08T11:54:11.000Z</Time>
            <Position>
              <LatitudeDegrees>43.376508839428424835205078125</LatitudeDegrees>
              <LongitudeDegrees>-1.74081475473940372467041015625</LongitudeDegrees>
            </Position>
            <AltitudeMeters>46.40000152587890625</AltitudeMeters>
            <DistanceMeters>NAN</DistanceMeters>
          </Trackpoint>
          <Trackpoint>
            <Time>2022-07-08T11:54:13.000Z</Time>
            <Position>
              <LatitudeDegrees>43.37653063237667083740234375</LatitudeDegrees>
              <LongitudeDegrees>-1.74083721823990345001220703125</LongitudeDegrees>
            </Position>
            <AltitudeMeters>46.40000152587890625</AltitudeMeters>
            <DistanceMeters>NAN</DistanceMeters>
          </Trackpoint>
          <Trackpoint>
            <Time>2022-07-08T11:54:15.000Z</Time>
            <Position>
              <LatitudeDegrees>43.37653658352792263031005859375</LatitudeDegrees>
              <LongitudeDegrees>-1.7409056983888149261474609375</LongitudeDegrees>
            </Position>
            <AltitudeMeters>46.799999237060546875</AltitudeMeters>
            <DistanceMeters>NAN</DistanceMeters>
          </Trackpoint>
          <Trackpoint>
            <Time>2022-07-08T11:54:17.000Z</Time>
            <Position>
              <LatitudeDegrees>43.376547731459140777587890625</LatitudeDegrees>
              <LongitudeDegrees>-1.7409482784569263458251953125</LongitudeDegrees>
            </Position>
            <AltitudeMeters>47</AltitudeMeters>
            <DistanceMeters>NAN</DistanceMeters>
          </Trackpoint>
          <Trackpoint>
            <Time>2022-07-08T11:54:19.000Z</Time>
            <Position>
              <LatitudeDegrees>43.3765435405075550079345703125</LatitudeDegrees>
              <LongitudeDegrees>-1.7409985698759555816650390625</LongitudeDegrees>
            </Position>
            <AltitudeMeters>47.200000762939453125</AltitudeMeters>
            <DistanceMeters>NAN</DistanceMeters>
          </Trackpoint>
          <Trackpoint>
            <Time>2022-07-08T11:54:25.000Z</Time>
            <Position>
              <LatitudeDegrees>43.37656307034194469451904296875</LatitudeDegrees>
              <LongitudeDegrees>-1.7411303333938121795654296875</LongitudeDegrees>
            </Position>
            <AltitudeMeters>48</AltitudeMeters>
            <DistanceMeters>NAN</DistanceMeters>
          </Trackpoint>
          <Trackpoint>
            <Time>2022-07-08T11:54:29.000Z</Time>
            <Position>
              <LatitudeDegrees>43.3765767328441143035888671875</LatitudeDegrees>
              <LongitudeDegrees>-1.74120048992335796356201171875</LongitudeDegrees>
            </Position>
            <AltitudeMeters>48.59999847412109375</AltitudeMeters>
            <DistanceMeters>NAN</DistanceMeters>
          </Trackpoint>
          <Trackpoint>
            <Time>2022-07-08T11:54:32.000Z</Time>
            <Position>
              <LatitudeDegrees>43.3765800856053829193115234375</LatitudeDegrees>
              <LongitudeDegrees>-1.741258241236209869384765625</LongitudeDegrees>
            </Position>
            <AltitudeMeters>48.799999237060546875</AltitudeMeters>
            <DistanceMeters>NAN</DistanceMeters>
          </Trackpoint>
          <Trackpoint>
            <Time>2022-07-08T11:54:33.000Z</Time>
            <Position>
              <LatitudeDegrees>43.376579582691192626953125</LatitudeDegrees>
              <LongitudeDegrees>-1.74128196202218532562255859375</LongitudeDegrees>
            </Position>
            <AltitudeMeters>48.799999237060546875</AltitudeMeters>
            <DistanceMeters>NAN</DistanceMeters>
          </Trackpoint>
          <Trackpoint>
            <Time>2022-07-08T11:54:37.000Z</Time>
            <Position>
              <LatitudeDegrees>43.3766112662851810455322265625</LatitudeDegrees>
              <LongitudeDegrees>-1.74133258871734142303466796875</LongitudeDegrees>
            </Position>
            <AltitudeMeters>49.200000762939453125</AltitudeMeters>
            <DistanceMeters>NAN</DistanceMeters>
          </Trackpoint>
          <Trackpoint>
            <Time>2022-07-08T11:54:39.000Z</Time>
            <Position>
              <LatitudeDegrees>43.376643955707550048828125</LatitudeDegrees>
              <LongitudeDegrees>-1.74135421402752399444580078125</LongitudeDegrees>
            </Position>
            <AltitudeMeters>49.799999237060546875</AltitudeMeters>
            <DistanceMeters>NAN</DistanceMeters>
          </Trackpoint>
          <Trackpoint>
            <Time>2022-07-08T11:54:41.000Z</Time>
            <Position>
              <LatitudeDegrees>43.3766585402190685272216796875</LatitudeDegrees>
              <LongitudeDegrees>-1.74137919209897518157958984375</LongitudeDegrees>
            </Position>
            <AltitudeMeters>50.200000762939453125</AltitudeMeters>
            <DistanceMeters>NAN</DistanceMeters>
          </Trackpoint>
          <Trackpoint>
            <Time>2022-07-08T11:54:45.000Z</Time>
            <Position>
              <LatitudeDegrees>43.37667304091155529022216796875</LatitudeDegrees>
              <LongitudeDegrees>-1.7414733208715915679931640625</LongitudeDegrees>
            </Position>
            <AltitudeMeters>50.59999847412109375</AltitudeMeters>
            <DistanceMeters>NAN</DistanceMeters>
          </Trackpoint>
          <Trackpoint>
            <Time>2022-07-08T11:54:46.000Z</Time>
            <Position>
              <LatitudeDegrees>43.376679159700870513916015625</LatitudeDegrees>
              <LongitudeDegrees>-1.74149570055305957794189453125</LongitudeDegrees>
            </Position>
            <AltitudeMeters>50.799999237060546875</AltitudeMeters>
            <DistanceMeters>NAN</DistanceMeters>
          </Trackpoint>
          <Trackpoint>
            <Time>2022-07-08T11:54:47.000Z</Time>
            <Position>
              <LatitudeDegrees>43.3766813389956951141357421875</LatitudeDegrees>
              <LongitudeDegrees>-1.74152185209095478057861328125</LongitudeDegrees>
            </Position>
            <AltitudeMeters>51</AltitudeMeters>
            <DistanceMeters>NAN</DistanceMeters>
          </Trackpoint>
          <Trackpoint>
            <Time>2022-07-08T11:54:50.000Z</Time>
            <Position>
              <LatitudeDegrees>43.3766927383840084075927734375</LatitudeDegrees>
              <LongitudeDegrees>-1.74158672802150249481201171875</LongitudeDegrees>
            </Position>
            <AltitudeMeters>51.200000762939453125</AltitudeMeters>
            <DistanceMeters>NAN</DistanceMeters>
          </Trackpoint>
          <Trackpoint>
            <Time>2022-07-08T11:54:51.000Z</Time>
            <Position>
              <LatitudeDegrees>43.37670556269586086273193359375</LatitudeDegrees>
              <LongitudeDegrees>-1.74160919152200222015380859375</LongitudeDegrees>
            </Position>
            <AltitudeMeters>51.40000152587890625</AltitudeMeters>
            <DistanceMeters>NAN</DistanceMeters>
          </Trackpoint>
          <Trackpoint>
            <Time>2022-07-08T11:54:56.000Z</Time>
            <Position>
              <LatitudeDegrees>43.37677597068250179290771484375</LatitudeDegrees>
              <LongitudeDegrees>-1.74173324368894100189208984375</LongitudeDegrees>
            </Position>
            <AltitudeMeters>51.799999237060546875</AltitudeMeters>
            <DistanceMeters>NAN</DistanceMeters>
          </Trackpoint>
          <Trackpoint>
            <Time>2022-07-08T11:54:58.000Z</Time>
            <Position>
              <LatitudeDegrees>43.37679122574627399444580078125</LatitudeDegrees>
              <LongitudeDegrees>-1.74179627560079097747802734375</LongitudeDegrees>
            </Position>
            <AltitudeMeters>52.40000152587890625</AltitudeMeters>
            <DistanceMeters>NAN</DistanceMeters>
          </Trackpoint>
          <Trackpoint>
            <Time>2022-07-08T11:55:04.000Z</Time>
            <Position>
              <LatitudeDegrees>43.37685861624777317047119140625</LatitudeDegrees>
              <LongitudeDegrees>-1.741878502070903778076171875</LongitudeDegrees>
            </Position>
            <AltitudeMeters>53</AltitudeMeters>
            <DistanceMeters>NAN</DistanceMeters>
          </Trackpoint>
          <Trackpoint>
            <Time>2022-07-08T11:55:07.000Z</Time>
            <Position>
              <LatitudeDegrees>43.37689398787915706634521484375</LatitudeDegrees>
              <LongitudeDegrees>-1.74197246320545673370361328125</LongitudeDegrees>
            </Position>
            <AltitudeMeters>53.40000152587890625</AltitudeMeters>
            <DistanceMeters>NAN</DistanceMeters>
          </Trackpoint>
          <Trackpoint>
            <Time>2022-07-08T11:55:12.000Z</Time>
            <Position>
              <LatitudeDegrees>43.37694629095494747161865234375</LatitudeDegrees>
              <LongitudeDegrees>-1.742074973881244659423828125</LongitudeDegrees>
            </Position>
            <AltitudeMeters>54</AltitudeMeters>
            <DistanceMeters>NAN</DistanceMeters>
          </Trackpoint>
          <Trackpoint>
            <Time>2022-07-08T11:55:17.000Z</Time>
            <Position>
              <LatitudeDegrees>43.3769713528454303741455078125</LatitudeDegrees>
              <LongitudeDegrees>-1.742191649973392486572265625</LongitudeDegrees>
            </Position>
            <AltitudeMeters>54.40000152587890625</AltitudeMeters>
            <DistanceMeters>NAN</DistanceMeters>
          </Trackpoint>
          <Trackpoint>
            <Time>2022-07-08T11:55:21.000Z</Time>
            <Position>
              <LatitudeDegrees>43.37701141834259033203125</LatitudeDegrees>
              <LongitudeDegrees>-1.74226381815969944000244140625</LongitudeDegrees>
            </Position>
            <AltitudeMeters>55</AltitudeMeters>
            <DistanceMeters>NAN</DistanceMeters>
          </Trackpoint>
          <Trackpoint>
            <Time>2022-07-08T11:55:28.000Z</Time>
            <Position>
              <LatitudeDegrees>43.37707755155861377716064453125</LatitudeDegrees>
              <LongitudeDegrees>-1.74239658750593662261962890625</LongitudeDegrees>
            </Position>
            <AltitudeMeters>55.40000152587890625</AltitudeMeters>
            <DistanceMeters>NAN</DistanceMeters>
          </Trackpoint>
          <Trackpoint>
            <Time>2022-07-08T11:55:29.000Z</Time>
            <Position>
              <LatitudeDegrees>43.377092890441417694091796875</LatitudeDegrees>
              <LongitudeDegrees>-1.74244218505918979644775390625</LongitudeDegrees>
            </Position>
            <AltitudeMeters>55.59999847412109375</AltitudeMeters>
            <DistanceMeters>NAN</DistanceMeters>
          </Trackpoint>
          <Trackpoint>
            <Time>2022-07-08T11:55:30.000Z</Time>
            <Position>
              <LatitudeDegrees>43.377100266516208648681640625</LatitudeDegrees>
              <LongitudeDegrees>-1.7424662411212921142578125</LongitudeDegrees>
            </Position>
            <AltitudeMeters>55.799999237060546875</AltitudeMeters>
            <DistanceMeters>NAN</DistanceMeters>
          </Trackpoint>
          <Trackpoint>
            <Time>2022-07-08T11:55:38.000Z</Time>
            <Position>
              <LatitudeDegrees>43.37717427872121334075927734375</LatitudeDegrees>
              <LongitudeDegrees>-1.74267251975834369659423828125</LongitudeDegrees>
            </Position>
            <AltitudeMeters>56.200000762939453125</AltitudeMeters>
            <DistanceMeters>NAN</DistanceMeters>
          </Trackpoint>
          <Trackpoint>
            <Time>2022-07-08T11:55:39.000Z</Time>
            <Position>
              <LatitudeDegrees>43.37718634866178035736083984375</LatitudeDegrees>
              <LongitudeDegrees>-1.7426943965256214141845703125</LongitudeDegrees>
            </Position>
            <AltitudeMeters>56.40000152587890625</AltitudeMeters>
            <DistanceMeters>NAN</DistanceMeters>
          </Trackpoint>
          <Trackpoint>
            <Time>2022-07-08T11:55:48.000Z</Time>
            <Position>
              <LatitudeDegrees>43.37726480327546596527099609375</LatitudeDegrees>
              <LongitudeDegrees>-1.7429046146571636199951171875</LongitudeDegrees>
            </Position>
            <AltitudeMeters>56.59999847412109375</AltitudeMeters>
            <DistanceMeters>NAN</DistanceMeters>
          </Trackpoint>
          <Trackpoint>
            <Time>2022-07-08T11:55:54.000Z</Time>
            <Position>
              <LatitudeDegrees>43.37732515297830104827880859375</LatitudeDegrees>
              <LongitudeDegrees>-1.74304635263979434967041015625</LongitudeDegrees>
            </Position>
            <AltitudeMeters>57</AltitudeMeters>
            <DistanceMeters>NAN</DistanceMeters>
          </Trackpoint>
          <Trackpoint>
            <Time>2022-07-08T11:56:01.000Z</Time>
            <Position>
              <LatitudeDegrees>43.37737946771085262298583984375</LatitudeDegrees>
              <LongitudeDegrees>-1.74329294823110103607177734375</LongitudeDegrees>
            </Position>
            <AltitudeMeters>57.40000152587890625</AltitudeMeters>
            <DistanceMeters>NAN</DistanceMeters>
          </Trackpoint>
          <Trackpoint>
            <Time>2022-07-08T11:56:03.000Z</Time>
            <Position>
              <LatitudeDegrees>43.37738516740500926971435546875</LatitudeDegrees>
              <LongitudeDegrees>-1.7433683015406131744384765625</LongitudeDegrees>
            </Position>
            <AltitudeMeters>57.59999847412109375</AltitudeMeters>
            <DistanceMeters>NAN</DistanceMeters>
          </Trackpoint>
          <Trackpoint>
            <Time>2022-07-08T11:56:10.000Z</Time>
            <Position>
              <LatitudeDegrees>43.3774038590490818023681640625</LatitudeDegrees>
              <LongitudeDegrees>-1.7436164058744907379150390625</LongitudeDegrees>
            </Position>
            <AltitudeMeters>58.40000152587890625</AltitudeMeters>
            <DistanceMeters>NAN</DistanceMeters>
          </Trackpoint>
          <Trackpoint>
            <Time>2022-07-08T11:56:18.000Z</Time>
            <Position>
              <LatitudeDegrees>43.37741215713322162628173828125</LatitudeDegrees>
              <LongitudeDegrees>-1.74391941167414188385009765625</LongitudeDegrees>
            </Position>
            <AltitudeMeters>58.59999847412109375</AltitudeMeters>
            <DistanceMeters>NAN</DistanceMeters>
          </Trackpoint>
          <Trackpoint>
            <Time>2022-07-08T11:56:27.000Z</Time>
            <Position>
              <LatitudeDegrees>43.37741232477128505706787109375</LatitudeDegrees>
              <LongitudeDegrees>-1.74424119293689727783203125</LongitudeDegrees>
            </Position>
            <AltitudeMeters>58.799999237060546875</AltitudeMeters>
            <DistanceMeters>NAN</DistanceMeters>
          </Trackpoint>
          <Trackpoint>
            <Time>2022-07-08T11:56:37.000Z</Time>
            <Position>
              <LatitudeDegrees>43.37741886265575885772705078125</LatitudeDegrees>
              <LongitudeDegrees>-1.7445798218250274658203125</LongitudeDegrees>
            </Position>
            <AltitudeMeters>59.200000762939453125</AltitudeMeters>
            <DistanceMeters>NAN</DistanceMeters>
          </Trackpoint>
          <Trackpoint>
            <Time>2022-07-08T11:56:41.000Z</Time>
            <Position>
              <LatitudeDegrees>43.377427160739898681640625</LatitudeDegrees>
              <LongitudeDegrees>-1.74468635581433773040771484375</LongitudeDegrees>
            </Position>
            <AltitudeMeters>59.200000762939453125</AltitudeMeters>
            <DistanceMeters>NAN</DistanceMeters>
          </Trackpoint>
          <Trackpoint>
            <Time>2022-07-08T11:56:43.000Z</Time>
            <Position>
              <LatitudeDegrees>43.377418108284473419189453125</LatitudeDegrees>
              <LongitudeDegrees>-1.74472809769213199615478515625</LongitudeDegrees>
            </Position>
            <AltitudeMeters>59</AltitudeMeters>
            <DistanceMeters>NAN</DistanceMeters>
          </Trackpoint>
          <Trackpoint>
            <Time>2022-07-08T11:56:45.000Z</Time>
            <Position>
              <LatitudeDegrees>43.37741576135158538818359375</LatitudeDegrees>
              <LongitudeDegrees>-1.74473094753921031951904296875</LongitudeDegrees>
            </Position>
            <AltitudeMeters>59</AltitudeMeters>
            <DistanceMeters>NAN</DistanceMeters>
          </Trackpoint>
          <Trackpoint>
            <Time>2022-07-08T11:56:46.000Z</Time>
            <Position>
              <LatitudeDegrees>43.37741576135158538818359375</LatitudeDegrees>
              <LongitudeDegrees>-1.74473094753921031951904296875</LongitudeDegrees>
            </Position>
            <AltitudeMeters>59</AltitudeMeters>
            <DistanceMeters>NAN</DistanceMeters>
          </Trackpoint>
          <Trackpoint>
            <Time>2022-07-08T11:56:55.000Z</Time>
            <Position>
              <LatitudeDegrees>43.3773787133395671844482421875</LatitudeDegrees>
              <LongitudeDegrees>-1.74477419815957546234130859375</LongitudeDegrees>
            </Position>
            <AltitudeMeters>59</AltitudeMeters>
            <DistanceMeters>NAN</DistanceMeters>
          </Trackpoint>
          <Trackpoint>
            <Time>2022-07-08T11:56:57.000Z</Time>
            <Position>
              <LatitudeDegrees>43.37736924178898334503173828125</LatitudeDegrees>
              <LongitudeDegrees>-1.74479833804070949554443359375</LongitudeDegrees>
            </Position>
            <AltitudeMeters>59</AltitudeMeters>
            <DistanceMeters>NAN</DistanceMeters>
          </Trackpoint>
          <Trackpoint>
            <Time>2022-07-08T11:56:59.000Z</Time>
            <Position>
              <LatitudeDegrees>43.37734912522137165069580078125</LatitudeDegrees>
              <LongitudeDegrees>-1.744797416031360626220703125</LongitudeDegrees>
            </Position>
            <AltitudeMeters>59</AltitudeMeters>
            <DistanceMeters>NAN</DistanceMeters>
          </Trackpoint>
          <Trackpoint>
            <Time>2022-07-08T11:57:02.000Z</Time>
            <Position>
              <LatitudeDegrees>43.377311490476131439208984375</LatitudeDegrees>
              <LongitudeDegrees>-1.74475408159196376800537109375</LongitudeDegrees>
            </Position>
            <AltitudeMeters>59</AltitudeMeters>
            <DistanceMeters>NAN</DistanceMeters>
          </Trackpoint>
          <Trackpoint>
            <Time>2022-07-08T11:57:03.000Z</Time>
            <Position>
              <LatitudeDegrees>43.3773019351065158843994140625</LatitudeDegrees>
              <LongitudeDegrees>-1.74474016763269901275634765625</LongitudeDegrees>
            </Position>
            <AltitudeMeters>59</AltitudeMeters>
            <DistanceMeters>NAN</DistanceMeters>
          </Trackpoint>
          <Trackpoint>
            <Time>2022-07-08T11:57:07.000Z</Time>
            <Position>
              <LatitudeDegrees>43.37729833088815212249755859375</LatitudeDegrees>
              <LongitudeDegrees>-1.74473731778562068939208984375</LongitudeDegrees>
            </Position>
            <AltitudeMeters>59</AltitudeMeters>
            <DistanceMeters>NAN</DistanceMeters>
          </Trackpoint>
          <Trackpoint>
            <Time>2022-07-08T12:21:54.000Z</Time>
            <Position>
              <LatitudeDegrees>43.3772821538150310516357421875</LatitudeDegrees>
              <LongitudeDegrees>-1.7447553388774394989013671875</LongitudeDegrees>
            </Position>
            <AltitudeMeters>58</AltitudeMeters>
            <DistanceMeters>NAN</DistanceMeters>
          </Trackpoint>
          <Trackpoint>
            <Time>2022-07-08T12:21:55.000Z</Time>
            <Position>
              <LatitudeDegrees>43.3772915415465831756591796875</LatitudeDegrees>
              <LongitudeDegrees>-1.74473337829113006591796875</LongitudeDegrees>
            </Position>
            <AltitudeMeters>58</AltitudeMeters>
            <DistanceMeters>NAN</DistanceMeters>
          </Trackpoint>
          <Trackpoint>
            <Time>2022-07-08T12:21:56.000Z</Time>
            <Position>
              <LatitudeDegrees>43.377298079431056976318359375</LatitudeDegrees>
              <LongitudeDegrees>-1.7447147704660892486572265625</LongitudeDegrees>
            </Position>
            <AltitudeMeters>58</AltitudeMeters>
            <DistanceMeters>NAN</DistanceMeters>
          </Trackpoint>
          <Trackpoint>
            <Time>2022-07-08T12:21:57.000Z</Time>
            <Position>
              <LatitudeDegrees>43.377310819923877716064453125</LatitudeDegrees>
              <LongitudeDegrees>-1.7447023652493953704833984375</LongitudeDegrees>
            </Position>
            <AltitudeMeters>59.40000152587890625</AltitudeMeters>
            <DistanceMeters>NAN</DistanceMeters>
          </Trackpoint>
          <Trackpoint>
            <Time>2022-07-08T12:21:58.000Z</Time>
            <Position>
              <LatitudeDegrees>43.37732967920601367950439453125</LatitudeDegrees>
              <LongitudeDegrees>-1.74470328725874423980712890625</LongitudeDegrees>
            </Position>
            <AltitudeMeters>60.200000762939453125</AltitudeMeters>
            <DistanceMeters>NAN</DistanceMeters>
          </Trackpoint>
          <Trackpoint>
            <Time>2022-07-08T12:21:59.000Z</Time>
            <Position>
              <LatitudeDegrees>43.3773468621075153350830078125</LatitudeDegrees>
              <LongitudeDegrees>-1.7447139322757720947265625</LongitudeDegrees>
            </Position>
            <AltitudeMeters>60.799999237060546875</AltitudeMeters>
            <DistanceMeters>NAN</DistanceMeters>
          </Trackpoint>
          <Trackpoint>
            <Time>2022-07-08T12:22:00.000Z</Time>
            <Position>
              <LatitudeDegrees>43.37735985405743122100830078125</LatitudeDegrees>
              <LongitudeDegrees>-1.74472927115857601165771484375</LongitudeDegrees>
            </Position>
            <AltitudeMeters>61</AltitudeMeters>
            <DistanceMeters>NAN</DistanceMeters>
          </Trackpoint>
          <Trackpoint>
            <Time>2022-07-08T12:22:03.000Z</Time>
            <Position>
              <LatitudeDegrees>43.3773708343505859375</LatitudeDegrees>
              <LongitudeDegrees>-1.74478827975690364837646484375</LongitudeDegrees>
            </Position>
            <AltitudeMeters>61.200000762939453125</AltitudeMeters>
            <DistanceMeters>NAN</DistanceMeters>
          </Trackpoint>
          <Trackpoint>
            <Time>2022-07-08T12:22:04.000Z</Time>
            <Position>
              <LatitudeDegrees>43.3773743547499179840087890625</LatitudeDegrees>
              <LongitudeDegrees>-1.74480915069580078125</LongitudeDegrees>
            </Position>
            <AltitudeMeters>61.40000152587890625</AltitudeMeters>
            <DistanceMeters>NAN</DistanceMeters>
          </Trackpoint>
          <Trackpoint>
            <Time>2022-07-08T12:22:05.000Z</Time>
            <Position>
              <LatitudeDegrees>43.37737829424440860748291015625</LatitudeDegrees>
              <LongitudeDegrees>-1.744832955300807952880859375</LongitudeDegrees>
            </Position>
            <AltitudeMeters>62</AltitudeMeters>
            <DistanceMeters>NAN</DistanceMeters>
          </Trackpoint>
          <Trackpoint>
            <Time>2022-07-08T12:22:08.000Z</Time>
            <Position>
              <LatitudeDegrees>43.37738030590116977691650390625</LatitudeDegrees>
              <LongitudeDegrees>-1.74487821757793426513671875</LongitudeDegrees>
            </Position>
            <AltitudeMeters>62.59999847412109375</AltitudeMeters>
            <DistanceMeters>NAN</DistanceMeters>
          </Trackpoint>
          <Trackpoint>
            <Time>2022-07-08T12:22:09.000Z</Time>
            <Position>
              <LatitudeDegrees>43.37738030590116977691650390625</LatitudeDegrees>
              <LongitudeDegrees>-1.74487821757793426513671875</LongitudeDegrees>
            </Position>
            <AltitudeMeters>62.200000762939453125</AltitudeMeters>
            <DistanceMeters>NAN</DistanceMeters>
          </Trackpoint>
          <Trackpoint>
            <Time>2022-07-08T12:22:22.000Z</Time>
            <Position>
              <LatitudeDegrees>43.37738198228180408477783203125</LatitudeDegrees>
              <LongitudeDegrees>-1.7449648864567279815673828125</LongitudeDegrees>
            </Position>
            <AltitudeMeters>62.799999237060546875</AltitudeMeters>
            <DistanceMeters>NAN</DistanceMeters>
          </Trackpoint>
          <Trackpoint>
            <Time>2022-07-08T12:22:25.000Z</Time>
            <Position>
              <LatitudeDegrees>43.37738399393856525421142578125</LatitudeDegrees>
              <LongitudeDegrees>-1.74505046568810939788818359375</LongitudeDegrees>
            </Position>
            <AltitudeMeters>63</AltitudeMeters>
            <DistanceMeters>NAN</DistanceMeters>
          </Trackpoint>
          <Trackpoint>
            <Time>2022-07-08T12:22:32.000Z</Time>
            <Position>
              <LatitudeDegrees>43.37739690206944942474365234375</LatitudeDegrees>
              <LongitudeDegrees>-1.7452579177916049957275390625</LongitudeDegrees>
            </Position>
            <AltitudeMeters>62.799999237060546875</AltitudeMeters>
            <DistanceMeters>NAN</DistanceMeters>
          </Trackpoint>
          <Trackpoint>
            <Time>2022-07-08T12:22:40.000Z</Time>
            <Position>
              <LatitudeDegrees>43.37740360759198665618896484375</LatitudeDegrees>
              <LongitudeDegrees>-1.74550845287740230560302734375</LongitudeDegrees>
            </Position>
            <AltitudeMeters>63.200000762939453125</AltitudeMeters>
            <DistanceMeters>NAN</DistanceMeters>
          </Trackpoint>
          <Trackpoint>
            <Time>2022-07-08T12:22:45.000Z</Time>
            <Position>
              <LatitudeDegrees>43.37737829424440860748291015625</LatitudeDegrees>
              <LongitudeDegrees>-1.7456780187785625457763671875</LongitudeDegrees>
            </Position>
            <AltitudeMeters>63.59999847412109375</AltitudeMeters>
            <DistanceMeters>NAN</DistanceMeters>
          </Trackpoint>
          <Trackpoint>
            <Time>2022-07-08T12:22:46.000Z</Time>
            <Position>
              <LatitudeDegrees>43.377373851835727691650390625</LatitudeDegrees>
              <LongitudeDegrees>-1.7457152344286441802978515625</LongitudeDegrees>
            </Position>
            <AltitudeMeters>63.59999847412109375</AltitudeMeters>
            <DistanceMeters>NAN</DistanceMeters>
          </Trackpoint>
          <Trackpoint>
            <Time>2022-07-08T12:22:54.000Z</Time>
            <Position>
              <LatitudeDegrees>43.37732414714992046356201171875</LatitudeDegrees>
              <LongitudeDegrees>-1.74597297795116901397705078125</LongitudeDegrees>
            </Position>
            <AltitudeMeters>64.1999969482421875</AltitudeMeters>
            <DistanceMeters>NAN</DistanceMeters>
          </Trackpoint>
          <Trackpoint>
            <Time>2022-07-08T12:23:01.000Z</Time>
            <Position>
              <LatitudeDegrees>43.3772729337215423583984375</LatitudeDegrees>
              <LongitudeDegrees>-1.7462137900292873382568359375</LongitudeDegrees>
            </Position>
            <AltitudeMeters>64.40000152587890625</AltitudeMeters>
            <DistanceMeters>NAN</DistanceMeters>
          </Trackpoint>
          <Trackpoint>
            <Time>2022-07-08T12:23:04.000Z</Time>
            <Position>
              <LatitudeDegrees>43.377241082489490509033203125</LatitudeDegrees>
              <LongitudeDegrees>-1.74631814472377300262451171875</LongitudeDegrees>
            </Position>
            <AltitudeMeters>64.40000152587890625</AltitudeMeters>
            <DistanceMeters>NAN</DistanceMeters>
          </Trackpoint>
          <Trackpoint>
            <Time>2022-07-08T12:23:10.000Z</Time>
            <Position>
              <LatitudeDegrees>43.377174027264118194580078125</LatitudeDegrees>
              <LongitudeDegrees>-1.74653992988169193267822265625</LongitudeDegrees>
            </Position>
            <AltitudeMeters>64.59999847412109375</AltitudeMeters>
            <DistanceMeters>NAN</DistanceMeters>
          </Trackpoint>
          <Trackpoint>
            <Time>2022-07-08T12:23:12.000Z</Time>
            <Position>
              <LatitudeDegrees>43.37714326567947864532470703125</LatitudeDegrees>
              <LongitudeDegrees>-1.7466102540493011474609375</LongitudeDegrees>
            </Position>
            <AltitudeMeters>64.8000030517578125</AltitudeMeters>
            <DistanceMeters>NAN</DistanceMeters>
          </Trackpoint>
          <Trackpoint>
            <Time>2022-07-08T12:23:15.000Z</Time>
            <Position>
              <LatitudeDegrees>43.3771178685128688812255859375</LatitudeDegrees>
              <LongitudeDegrees>-1.7466898821294307708740234375</LongitudeDegrees>
            </Position>
            <AltitudeMeters>65</AltitudeMeters>
            <DistanceMeters>NAN</DistanceMeters>
          </Trackpoint>
          <Trackpoint>
            <Time>2022-07-08T12:23:21.000Z</Time>
            <Position>
              <LatitudeDegrees>43.3770477958023548126220703125</LatitudeDegrees>
              <LongitudeDegrees>-1.74684117548167705535888671875</LongitudeDegrees>
            </Position>
            <AltitudeMeters>65</AltitudeMeters>
            <DistanceMeters>NAN</DistanceMeters>
          </Trackpoint>
          <Trackpoint>
            <Time>2022-07-08T12:23:28.000Z</Time>
            <Position>
              <LatitudeDegrees>43.3769472129642963409423828125</LatitudeDegrees>
              <LongitudeDegrees>-1.7470610328018665313720703125</LongitudeDegrees>
            </Position>
            <AltitudeMeters>65</AltitudeMeters>
            <DistanceMeters>NAN</DistanceMeters>
          </Trackpoint>
          <Trackpoint>
            <Time>2022-07-08T12:23:29.000Z</Time>
            <Position>
              <LatitudeDegrees>43.37693019770085811614990234375</LatitudeDegrees>
              <LongitudeDegrees>-1.7470984160900115966796875</LongitudeDegrees>
            </Position>
            <AltitudeMeters>65</AltitudeMeters>
            <DistanceMeters>NAN</DistanceMeters>
          </Trackpoint>
          <Trackpoint>
            <Time>2022-07-08T12:23:36.000Z</Time>
            <Position>
              <LatitudeDegrees>43.376843445003032684326171875</LatitudeDegrees>
              <LongitudeDegrees>-1.74731508828699588775634765625</LongitudeDegrees>
            </Position>
            <AltitudeMeters>65</AltitudeMeters>
            <DistanceMeters>NAN</DistanceMeters>
          </Trackpoint>
          <Trackpoint>
            <Time>2022-07-08T12:23:45.000Z</Time>
            <Position>
              <LatitudeDegrees>43.37671813555061817169189453125</LatitudeDegrees>
              <LongitudeDegrees>-1.74766100943088531494140625</LongitudeDegrees>
            </Position>
            <AltitudeMeters>65.1999969482421875</AltitudeMeters>
            <DistanceMeters>NAN</DistanceMeters>
          </Trackpoint>
          <Trackpoint>
            <Time>2022-07-08T12:23:54.000Z</Time>
            <Position>
              <LatitudeDegrees>43.376549072563648223876953125</LatitudeDegrees>
              <LongitudeDegrees>-1.7479481734335422515869140625</LongitudeDegrees>
            </Position>
            <AltitudeMeters>65.40000152587890625</AltitudeMeters>
            <DistanceMeters>NAN</DistanceMeters>
          </Trackpoint>
          <Trackpoint>
            <Time>2022-07-08T12:23:59.000Z</Time>
            <Position>
              <LatitudeDegrees>43.37644371204078197479248046875</LatitudeDegrees>
              <LongitudeDegrees>-1.74808622337877750396728515625</LongitudeDegrees>
            </Position>
            <AltitudeMeters>65.1999969482421875</AltitudeMeters>
            <DistanceMeters>NAN</DistanceMeters>
          </Trackpoint>
          <Trackpoint>
            <Time>2022-07-08T12:24:00.000Z</Time>
            <Position>
              <LatitudeDegrees>43.37642711587250232696533203125</LatitudeDegrees>
              <LongitudeDegrees>-1.74810382537543773651123046875</LongitudeDegrees>
            </Position>
            <AltitudeMeters>65.1999969482421875</AltitudeMeters>
            <DistanceMeters>NAN</DistanceMeters>
          </Trackpoint>
          <Trackpoint>
            <Time>2022-07-08T12:24:06.000Z</Time>
            <Position>
              <LatitudeDegrees>43.37634480558335781097412109375</LatitudeDegrees>
              <LongitudeDegrees>-1.74823810346424579620361328125</LongitudeDegrees>
            </Position>
            <AltitudeMeters>65.40000152587890625</AltitudeMeters>
            <DistanceMeters>NAN</DistanceMeters>
          </Trackpoint>
          <Trackpoint>
            <Time>2022-07-08T12:24:09.000Z</Time>
            <Position>
              <LatitudeDegrees>43.376319743692874908447265625</LatitudeDegrees>
              <LongitudeDegrees>-1.74831538461148738861083984375</LongitudeDegrees>
            </Position>
            <AltitudeMeters>65.59999847412109375</AltitudeMeters>
            <DistanceMeters>NAN</DistanceMeters>
          </Trackpoint>
          <Trackpoint>
            <Time>2022-07-08T12:24:10.000Z</Time>
            <Position>
              <LatitudeDegrees>43.37631010450422763824462890625</LatitudeDegrees>
              <LongitudeDegrees>-1.74833483062684535980224609375</LongitudeDegrees>
            </Position>
            <AltitudeMeters>65.8000030517578125</AltitudeMeters>
            <DistanceMeters>NAN</DistanceMeters>
          </Trackpoint>
          <Trackpoint>
            <Time>2022-07-08T12:24:13.000Z</Time>
            <Position>
              <LatitudeDegrees>43.37627070955932140350341796875</LatitudeDegrees>
              <LongitudeDegrees>-1.74839853309094905853271484375</LongitudeDegrees>
            </Position>
            <AltitudeMeters>66</AltitudeMeters>
            <DistanceMeters>NAN</DistanceMeters>
          </Trackpoint>
          <Trackpoint>
            <Time>2022-07-08T12:24:19.000Z</Time>
            <Position>
              <LatitudeDegrees>43.37625478394329547882080078125</LatitudeDegrees>
              <LongitudeDegrees>-1.7485627345740795135498046875</LongitudeDegrees>
            </Position>
            <AltitudeMeters>66.59999847412109375</AltitudeMeters>
            <DistanceMeters>NAN</DistanceMeters>
          </Trackpoint>
          <Trackpoint>
            <Time>2022-07-08T12:24:23.000Z</Time>
            <Position>
              <LatitudeDegrees>43.37623894214630126953125</LatitudeDegrees>
              <LongitudeDegrees>-1.74867689609527587890625</LongitudeDegrees>
            </Position>
            <AltitudeMeters>66.8000030517578125</AltitudeMeters>
            <DistanceMeters>NAN</DistanceMeters>
          </Trackpoint>
          <Trackpoint>
            <Time>2022-07-08T12:24:26.000Z</Time>
            <Position>
              <LatitudeDegrees>43.37622360326349735260009765625</LatitudeDegrees>
              <LongitudeDegrees>-1.7487511597573757171630859375</LongitudeDegrees>
            </Position>
            <AltitudeMeters>67.1999969482421875</AltitudeMeters>
            <DistanceMeters>NAN</DistanceMeters>
          </Trackpoint>
          <Trackpoint>
            <Time>2022-07-08T12:24:29.000Z</Time>
            <Position>
              <LatitudeDegrees>43.3762096054852008819580078125</LatitudeDegrees>
              <LongitudeDegrees>-1.7488265968859195709228515625</LongitudeDegrees>
            </Position>
            <AltitudeMeters>67.40000152587890625</AltitudeMeters>
            <DistanceMeters>NAN</DistanceMeters>
          </Trackpoint>
          <Trackpoint>
            <Time>2022-07-08T12:24:33.000Z</Time>
            <Position>
              <LatitudeDegrees>43.3762109465897083282470703125</LatitudeDegrees>
              <LongitudeDegrees>-1.74894318915903568267822265625</LongitudeDegrees>
            </Position>
            <AltitudeMeters>67.59999847412109375</AltitudeMeters>
            <DistanceMeters>NAN</DistanceMeters>
          </Trackpoint>
          <Trackpoint>
            <Time>2022-07-08T12:24:35.000Z</Time>
            <Position>
              <LatitudeDegrees>43.37620432488620281219482421875</LatitudeDegrees>
              <LongitudeDegrees>-1.74898736178874969482421875</LongitudeDegrees>
            </Position>
            <AltitudeMeters>67.8000030517578125</AltitudeMeters>
            <DistanceMeters>NAN</DistanceMeters>
          </Trackpoint>
          <Trackpoint>
            <Time>2022-07-08T12:24:40.000Z</Time>
            <Position>
              <LatitudeDegrees>43.37620315141975879669189453125</LatitudeDegrees>
              <LongitudeDegrees>-1.7491112463176250457763671875</LongitudeDegrees>
            </Position>
            <AltitudeMeters>68.40000152587890625</AltitudeMeters>
            <DistanceMeters>NAN</DistanceMeters>
          </Trackpoint>
          <Trackpoint>
            <Time>2022-07-08T12:24:42.000Z</Time>
            <Position>
              <LatitudeDegrees>43.37621019221842288970947265625</LatitudeDegrees>
              <LongitudeDegrees>-1.74915491603314876556396484375</LongitudeDegrees>
            </Position>
            <AltitudeMeters>68.40000152587890625</AltitudeMeters>
            <DistanceMeters>NAN</DistanceMeters>
          </Trackpoint>
          <Trackpoint>
            <Time>2022-07-08T12:24:44.000Z</Time>
            <Position>
              <LatitudeDegrees>43.37620030157268047332763671875</LatitudeDegrees>
              <LongitudeDegrees>-1.74920738674700260162353515625</LongitudeDegrees>
            </Position>
            <AltitudeMeters>68.40000152587890625</AltitudeMeters>
            <DistanceMeters>NAN</DistanceMeters>
          </Trackpoint>
          <Trackpoint>
            <Time>2022-07-08T12:24:45.000Z</Time>
            <Position>
              <LatitudeDegrees>43.3761938475072383880615234375</LatitudeDegrees>
              <LongitudeDegrees>-1.7492376454174518585205078125</LongitudeDegrees>
            </Position>
            <AltitudeMeters>68.40000152587890625</AltitudeMeters>
            <DistanceMeters>NAN</DistanceMeters>
          </Trackpoint>
          <Trackpoint>
            <Time>2022-07-08T12:24:51.000Z</Time>
            <Position>
              <LatitudeDegrees>43.37617062963545322418212890625</LatitudeDegrees>
              <LongitudeDegrees>-1.74938575364649295806884765625</LongitudeDegrees>
            </Position>
            <AltitudeMeters>68.8000030517578125</AltitudeMeters>
            <DistanceMeters>NAN</DistanceMeters>
          </Trackpoint>
          <Trackpoint>
            <Time>2022-07-08T12:24:52.000Z</Time>
            <Position>
              <LatitudeDegrees>43.37616727687418460845947265625</LatitudeDegrees>
              <LongitudeDegrees>-1.74941006116569042205810546875</LongitudeDegrees>
            </Position>
            <AltitudeMeters>69</AltitudeMeters>
            <DistanceMeters>NAN</DistanceMeters>
          </Trackpoint>
          <Trackpoint>
            <Time>2022-07-08T12:24:59.000Z</Time>
            <Position>
              <LatitudeDegrees>43.376154787838459014892578125</LatitudeDegrees>
              <LongitudeDegrees>-1.74956445582211017608642578125</LongitudeDegrees>
            </Position>
            <AltitudeMeters>69.40000152587890625</AltitudeMeters>
            <DistanceMeters>NAN</DistanceMeters>
          </Trackpoint>
          <Trackpoint>
            <Time>2022-07-08T12:25:02.000Z</Time>
            <Position>
              <LatitudeDegrees>43.37616241537034511566162109375</LatitudeDegrees>
              <LongitudeDegrees>-1.74963301979005336761474609375</LongitudeDegrees>
            </Position>
            <AltitudeMeters>69.59999847412109375</AltitudeMeters>
            <DistanceMeters>NAN</DistanceMeters>
          </Trackpoint>
          <Trackpoint>
            <Time>2022-07-08T12:25:04.000Z</Time>
            <Position>
              <LatitudeDegrees>43.37615780532360076904296875</LatitudeDegrees>
              <LongitudeDegrees>-1.7496792040765285491943359375</LongitudeDegrees>
            </Position>
            <AltitudeMeters>70</AltitudeMeters>
            <DistanceMeters>NAN</DistanceMeters>
          </Trackpoint>
          <Trackpoint>
            <Time>2022-07-08T12:25:08.000Z</Time>
            <Position>
              <LatitudeDegrees>43.3761549554765224456787109375</LatitudeDegrees>
              <LongitudeDegrees>-1.74976520240306854248046875</LongitudeDegrees>
            </Position>
            <AltitudeMeters>70.1999969482421875</AltitudeMeters>
            <DistanceMeters>NAN</DistanceMeters>
          </Trackpoint>
          <Trackpoint>
            <Time>2022-07-08T12:25:15.000Z</Time>
            <Position>
              <LatitudeDegrees>43.37612788192927837371826171875</LatitudeDegrees>
              <LongitudeDegrees>-1.74993158318102359771728515625</LongitudeDegrees>
            </Position>
            <AltitudeMeters>70.59999847412109375</AltitudeMeters>
            <DistanceMeters>NAN</DistanceMeters>
          </Trackpoint>
          <Trackpoint>
            <Time>2022-07-08T12:25:19.000Z</Time>
            <Position>
              <LatitudeDegrees>43.376107513904571533203125</LatitudeDegrees>
              <LongitudeDegrees>-1.75003736279904842376708984375</LongitudeDegrees>
            </Position>
            <AltitudeMeters>70.8000030517578125</AltitudeMeters>
            <DistanceMeters>NAN</DistanceMeters>
          </Trackpoint>
          <Trackpoint>
            <Time>2022-07-08T12:25:21.000Z</Time>
            <Position>
              <LatitudeDegrees>43.3760949410498142242431640625</LatitudeDegrees>
              <LongitudeDegrees>-1.7500919289886951446533203125</LongitudeDegrees>
            </Position>
            <AltitudeMeters>70.8000030517578125</AltitudeMeters>
            <DistanceMeters>NAN</DistanceMeters>
          </Trackpoint>
          <Trackpoint>
            <Time>2022-07-08T12:25:22.000Z</Time>
            <Position>
              <LatitudeDegrees>43.3760900795459747314453125</LatitudeDegrees>
              <LongitudeDegrees>-1.75012017600238323211669921875</LongitudeDegrees>
            </Position>
            <AltitudeMeters>71</AltitudeMeters>
            <DistanceMeters>NAN</DistanceMeters>
          </Trackpoint>
          <Trackpoint>
            <Time>2022-07-08T12:25:30.000Z</Time>
            <Position>
              <LatitudeDegrees>43.376045487821102142333984375</LatitudeDegrees>
              <LongitudeDegrees>-1.7503546178340911865234375</LongitudeDegrees>
            </Position>
            <AltitudeMeters>71.1999969482421875</AltitudeMeters>
            <DistanceMeters>NAN</DistanceMeters>
          </Trackpoint>
          <Trackpoint>
            <Time>2022-07-08T12:25:40.000Z</Time>
            <Position>
              <LatitudeDegrees>43.37600852362811565399169921875</LatitudeDegrees>
              <LongitudeDegrees>-1.7506112717092037200927734375</LongitudeDegrees>
            </Position>
            <AltitudeMeters>71.8000030517578125</AltitudeMeters>
            <DistanceMeters>NAN</DistanceMeters>
          </Trackpoint>
          <Trackpoint>
            <Time>2022-07-08T12:25:45.000Z</Time>
            <Position>
              <LatitudeDegrees>43.375988490879535675048828125</LatitudeDegrees>
              <LongitudeDegrees>-1.750749237835407257080078125</LongitudeDegrees>
            </Position>
            <AltitudeMeters>71.8000030517578125</AltitudeMeters>
            <DistanceMeters>NAN</DistanceMeters>
          </Trackpoint>
          <Trackpoint>
            <Time>2022-07-08T12:25:46.000Z</Time>
            <Position>
              <LatitudeDegrees>43.37598941288888454437255859375</LatitudeDegrees>
              <LongitudeDegrees>-1.7507757246494293212890625</LongitudeDegrees>
            </Position>
            <AltitudeMeters>72</AltitudeMeters>
            <DistanceMeters>NAN</DistanceMeters>
          </Trackpoint>
          <Trackpoint>
            <Time>2022-07-08T12:25:47.000Z</Time>
            <Position>
              <LatitudeDegrees>43.375987820327281951904296875</LatitudeDegrees>
              <LongitudeDegrees>-1.7508007027208805084228515625</LongitudeDegrees>
            </Position>
            <AltitudeMeters>72</AltitudeMeters>
            <DistanceMeters>NAN</DistanceMeters>
          </Trackpoint>
          <Trackpoint>
            <Time>2022-07-08T12:25:52.000Z</Time>
            <Position>
              <LatitudeDegrees>43.3759829588234424591064453125</LatitudeDegrees>
              <LongitudeDegrees>-1.75091964192688465118408203125</LongitudeDegrees>
            </Position>
            <AltitudeMeters>72.40000152587890625</AltitudeMeters>
            <DistanceMeters>NAN</DistanceMeters>
          </Trackpoint>
          <Trackpoint>
            <Time>2022-07-08T12:25:59.000Z</Time>
            <Position>
              <LatitudeDegrees>43.37590567767620086669921875</LatitudeDegrees>
              <LongitudeDegrees>-1.75110907293856143951416015625</LongitudeDegrees>
            </Position>
            <AltitudeMeters>72.59999847412109375</AltitudeMeters>
            <DistanceMeters>NAN</DistanceMeters>
          </Trackpoint>
          <Trackpoint>
            <Time>2022-07-08T12:26:04.000Z</Time>
            <Position>
              <LatitudeDegrees>43.3758330903947353363037109375</LatitudeDegrees>
              <LongitudeDegrees>-1.75123077817261219024658203125</LongitudeDegrees>
            </Position>
            <AltitudeMeters>72.59999847412109375</AltitudeMeters>
            <DistanceMeters>NAN</DistanceMeters>
          </Trackpoint>
          <Trackpoint>
            <Time>2022-07-08T12:26:08.000Z</Time>
            <Position>
              <LatitudeDegrees>43.3757360279560089111328125</LatitudeDegrees>
              <LongitudeDegrees>-1.75135935656726360321044921875</LongitudeDegrees>
            </Position>
            <AltitudeMeters>72.40000152587890625</AltitudeMeters>
            <DistanceMeters>NAN</DistanceMeters>
          </Trackpoint>
          <Trackpoint>
            <Time>2022-07-08T12:26:11.000Z</Time>
            <Position>
              <LatitudeDegrees>43.37563988752663135528564453125</LatitudeDegrees>
              <LongitudeDegrees>-1.75149983726441860198974609375</LongitudeDegrees>
            </Position>
            <AltitudeMeters>72</AltitudeMeters>
            <DistanceMeters>NAN</DistanceMeters>
          </Trackpoint>
          <Trackpoint>
            <Time>2022-07-08T12:26:14.000Z</Time>
            <Position>
              <LatitudeDegrees>43.37553075514733791351318359375</LatitudeDegrees>
              <LongitudeDegrees>-1.75161818973720073699951171875</LongitudeDegrees>
            </Position>
            <AltitudeMeters>71.59999847412109375</AltitudeMeters>
            <DistanceMeters>NAN</DistanceMeters>
          </Trackpoint>
          <Trackpoint>
            <Time>2022-07-08T12:26:15.000Z</Time>
            <Position>
              <LatitudeDegrees>43.37548792362213134765625</LatitudeDegrees>
              <LongitudeDegrees>-1.7516506277024745941162109375</LongitudeDegrees>
            </Position>
            <AltitudeMeters>71.40000152587890625</AltitudeMeters>
            <DistanceMeters>NAN</DistanceMeters>
          </Trackpoint>
          <Trackpoint>
            <Time>2022-07-08T12:26:17.000Z</Time>
            <Position>
              <LatitudeDegrees>43.3753955550491809844970703125</LatitudeDegrees>
              <LongitudeDegrees>-1.75170167349278926849365234375</LongitudeDegrees>
            </Position>
            <AltitudeMeters>70.8000030517578125</AltitudeMeters>
            <DistanceMeters>NAN</DistanceMeters>
          </Trackpoint>
          <Trackpoint>
            <Time>2022-07-08T12:26:19.000Z</Time>
            <Position>
              <LatitudeDegrees>43.3753000013530254364013671875</LatitudeDegrees>
              <LongitudeDegrees>-1.7517334409058094024658203125</LongitudeDegrees>
            </Position>
            <AltitudeMeters>70.40000152587890625</AltitudeMeters>
            <DistanceMeters>NAN</DistanceMeters>
          </Trackpoint>
          <Trackpoint>
            <Time>2022-07-08T12:26:20.000Z</Time>
            <Position>
              <LatitudeDegrees>43.3752530626952648162841796875</LatitudeDegrees>
              <LongitudeDegrees>-1.7517391405999660491943359375</LongitudeDegrees>
            </Position>
            <AltitudeMeters>70.1999969482421875</AltitudeMeters>
            <DistanceMeters>NAN</DistanceMeters>
          </Trackpoint>
          <Trackpoint>
            <Time>2022-07-08T12:26:21.000Z</Time>
            <Position>
              <LatitudeDegrees>43.37520838715136051177978515625</LatitudeDegrees>
              <LongitudeDegrees>-1.75174844451248645782470703125</LongitudeDegrees>
            </Position>
            <AltitudeMeters>69.8000030517578125</AltitudeMeters>
            <DistanceMeters>NAN</DistanceMeters>
          </Trackpoint>
          <Trackpoint>
            <Time>2022-07-08T12:26:23.000Z</Time>
            <Position>
              <LatitudeDegrees>43.37511803023517131805419921875</LatitudeDegrees>
              <LongitudeDegrees>-1.75178758800029754638671875</LongitudeDegrees>
            </Position>
            <AltitudeMeters>69</AltitudeMeters>
            <DistanceMeters>NAN</DistanceMeters>
          </Trackpoint>
          <Trackpoint>
            <Time>2022-07-08T12:26:24.000Z</Time>
            <Position>
              <LatitudeDegrees>43.3750815689563751220703125</LatitudeDegrees>
              <LongitudeDegrees>-1.75181851722300052642822265625</LongitudeDegrees>
            </Position>
            <AltitudeMeters>68.8000030517578125</AltitudeMeters>
            <DistanceMeters>NAN</DistanceMeters>
          </Trackpoint>
          <Trackpoint>
            <Time>2022-07-08T12:26:25.000Z</Time>
            <Position>
              <LatitudeDegrees>43.37505617178976535797119140625</LatitudeDegrees>
              <LongitudeDegrees>-1.7518579959869384765625</LongitudeDegrees>
            </Position>
            <AltitudeMeters>68.40000152587890625</AltitudeMeters>
            <DistanceMeters>NAN</DistanceMeters>
          </Trackpoint>
          <Trackpoint>
            <Time>2022-07-08T12:26:26.000Z</Time>
            <Position>
              <LatitudeDegrees>43.37502901442348957061767578125</LatitudeDegrees>
              <LongitudeDegrees>-1.75190250389277935028076171875</LongitudeDegrees>
            </Position>
            <AltitudeMeters>68.1999969482421875</AltitudeMeters>
            <DistanceMeters>NAN</DistanceMeters>
          </Trackpoint>
          <Trackpoint>
            <Time>2022-07-08T12:26:27.000Z</Time>
            <Position>
              <LatitudeDegrees>43.3750059641897678375244140625</LatitudeDegrees>
              <LongitudeDegrees>-1.751946508884429931640625</LongitudeDegrees>
            </Position>
            <AltitudeMeters>68</AltitudeMeters>
            <DistanceMeters>NAN</DistanceMeters>
          </Trackpoint>
          <Trackpoint>
            <Time>2022-07-08T12:26:28.000Z</Time>
            <Position>
              <LatitudeDegrees>43.37498727254569530487060546875</LatitudeDegrees>
              <LongitudeDegrees>-1.751991100609302520751953125</LongitudeDegrees>
            </Position>
            <AltitudeMeters>67.8000030517578125</AltitudeMeters>
            <DistanceMeters>NAN</DistanceMeters>
          </Trackpoint>
          <Trackpoint>
            <Time>2022-07-08T12:26:30.000Z</Time>
            <Position>
              <LatitudeDegrees>43.3749539963901042938232421875</LatitudeDegrees>
              <LongitudeDegrees>-1.75204281695187091827392578125</LongitudeDegrees>
            </Position>
            <AltitudeMeters>67.40000152587890625</AltitudeMeters>
            <DistanceMeters>NAN</DistanceMeters>
          </Trackpoint>
          <Trackpoint>
            <Time>2022-07-08T12:26:31.000Z</Time>
            <Position>
              <LatitudeDegrees>43.37493094615638256072998046875</LatitudeDegrees>
              <LongitudeDegrees>-1.75204130820930004119873046875</LongitudeDegrees>
            </Position>
            <AltitudeMeters>66.8000030517578125</AltitudeMeters>
            <DistanceMeters>NAN</DistanceMeters>
          </Trackpoint>
          <Trackpoint>
            <Time>2022-07-08T12:26:32.000Z</Time>
            <Position>
              <LatitudeDegrees>43.3749134279787540435791015625</LatitudeDegrees>
              <LongitudeDegrees>-1.75202119164168834686279296875</LongitudeDegrees>
            </Position>
            <AltitudeMeters>66.59999847412109375</AltitudeMeters>
            <DistanceMeters>NAN</DistanceMeters>
          </Trackpoint>
          <Trackpoint>
            <Time>2022-07-08T12:26:34.000Z</Time>
            <Position>
              <LatitudeDegrees>43.37488031946122646331787109375</LatitudeDegrees>
              <LongitudeDegrees>-1.75197861157357692718505859375</LongitudeDegrees>
            </Position>
            <AltitudeMeters>66.40000152587890625</AltitudeMeters>
            <DistanceMeters>NAN</DistanceMeters>
          </Trackpoint>
          <Trackpoint>
            <Time>2022-07-08T12:26:35.000Z</Time>
            <Position>
              <LatitudeDegrees>43.37485282681882381439208984375</LatitudeDegrees>
              <LongitudeDegrees>-1.75195665098726749420166015625</LongitudeDegrees>
            </Position>
            <AltitudeMeters>66.1999969482421875</AltitudeMeters>
            <DistanceMeters>NAN</DistanceMeters>
          </Trackpoint>
          <Trackpoint>
            <Time>2022-07-08T12:26:40.000Z</Time>
            <Position>
              <LatitudeDegrees>43.37468552403151988983154296875</LatitudeDegrees>
              <LongitudeDegrees>-1.7518843151628971099853515625</LongitudeDegrees>
            </Position>
            <AltitudeMeters>66.40000152587890625</AltitudeMeters>
            <DistanceMeters>NAN</DistanceMeters>
          </Trackpoint>
          <Trackpoint>
            <Time>2022-07-08T12:26:42.000Z</Time>
            <Position>
              <LatitudeDegrees>43.37459499947726726531982421875</LatitudeDegrees>
              <LongitudeDegrees>-1.7519022524356842041015625</LongitudeDegrees>
            </Position>
            <AltitudeMeters>66.40000152587890625</AltitudeMeters>
            <DistanceMeters>NAN</DistanceMeters>
          </Trackpoint>
          <Trackpoint>
            <Time>2022-07-08T12:26:45.000Z</Time>
            <Position>
              <LatitudeDegrees>43.3744547702372074127197265625</LatitudeDegrees>
              <LongitudeDegrees>-1.75197727046906948089599609375</LongitudeDegrees>
            </Position>
            <AltitudeMeters>66</AltitudeMeters>
            <DistanceMeters>NAN</DistanceMeters>
          </Trackpoint>
          <Trackpoint>
            <Time>2022-07-08T12:26:48.000Z</Time>
            <Position>
              <LatitudeDegrees>43.37430884130299091339111328125</LatitudeDegrees>
              <LongitudeDegrees>-1.75208640284836292266845703125</LongitudeDegrees>
            </Position>
            <AltitudeMeters>65.1999969482421875</AltitudeMeters>
            <DistanceMeters>NAN</DistanceMeters>
          </Trackpoint>
          <Trackpoint>
            <Time>2022-07-08T12:26:52.000Z</Time>
            <Position>
              <LatitudeDegrees>43.37411337532103061676025390625</LatitudeDegrees>
              <LongitudeDegrees>-1.75227331928908824920654296875</LongitudeDegrees>
            </Position>
            <AltitudeMeters>64.40000152587890625</AltitudeMeters>
            <DistanceMeters>NAN</DistanceMeters>
          </Trackpoint>
          <Trackpoint>
            <Time>2022-07-08T12:26:53.000Z</Time>
            <Position>
              <LatitudeDegrees>43.3740712143480777740478515625</LatitudeDegrees>
              <LongitudeDegrees>-1.75232931040227413177490234375</LongitudeDegrees>
            </Position>
            <AltitudeMeters>64.1999969482421875</AltitudeMeters>
            <DistanceMeters>NAN</DistanceMeters>
          </Trackpoint>
          <Trackpoint>
            <Time>2022-07-08T12:26:57.000Z</Time>
            <Position>
              <LatitudeDegrees>43.3739102818071842193603515625</LatitudeDegrees>
              <LongitudeDegrees>-1.75259384326636791229248046875</LongitudeDegrees>
            </Position>
            <AltitudeMeters>63.799999237060546875</AltitudeMeters>
            <DistanceMeters>NAN</DistanceMeters>
          </Trackpoint>
          <Trackpoint>
            <Time>2022-07-08T12:27:02.000Z</Time>
            <Position>
              <LatitudeDegrees>43.37375278584659099578857421875</LatitudeDegrees>
              <LongitudeDegrees>-1.75302936695516109466552734375</LongitudeDegrees>
            </Position>
            <AltitudeMeters>63.200000762939453125</AltitudeMeters>
            <DistanceMeters>NAN</DistanceMeters>
          </Trackpoint>
          <Trackpoint>
            <Time>2022-07-08T12:27:03.000Z</Time>
            <Position>
              <LatitudeDegrees>43.3737305738031864166259765625</LatitudeDegrees>
              <LongitudeDegrees>-1.75312408246099948883056640625</LongitudeDegrees>
            </Position>
            <AltitudeMeters>63</AltitudeMeters>
            <DistanceMeters>NAN</DistanceMeters>
          </Trackpoint>
          <Trackpoint>
            <Time>2022-07-08T12:27:08.000Z</Time>
            <Position>
              <LatitudeDegrees>43.3736546337604522705078125</LatitudeDegrees>
              <LongitudeDegrees>-1.75361073575913906097412109375</LongitudeDegrees>
            </Position>
            <AltitudeMeters>62.200000762939453125</AltitudeMeters>
            <DistanceMeters>NAN</DistanceMeters>
          </Trackpoint>
          <Trackpoint>
            <Time>2022-07-08T12:27:10.000Z</Time>
            <Position>
              <LatitudeDegrees>43.37362789548933506011962890625</LatitudeDegrees>
              <LongitudeDegrees>-1.75381106324493885040283203125</LongitudeDegrees>
            </Position>
            <AltitudeMeters>61.59999847412109375</AltitudeMeters>
            <DistanceMeters>NAN</DistanceMeters>
          </Trackpoint>
          <Trackpoint>
            <Time>2022-07-08T12:27:11.000Z</Time>
            <Position>
              <LatitudeDegrees>43.37361448444426059722900390625</LatitudeDegrees>
              <LongitudeDegrees>-1.75391231663525104522705078125</LongitudeDegrees>
            </Position>
            <AltitudeMeters>61</AltitudeMeters>
            <DistanceMeters>NAN</DistanceMeters>
          </Trackpoint>
          <Trackpoint>
            <Time>2022-07-08T12:27:13.000Z</Time>
            <Position>
              <LatitudeDegrees>43.37358011864125728607177734375</LatitudeDegrees>
              <LongitudeDegrees>-1.75412781536579132080078125</LongitudeDegrees>
            </Position>
            <AltitudeMeters>59.799999237060546875</AltitudeMeters>
            <DistanceMeters>NAN</DistanceMeters>
          </Trackpoint>
          <Trackpoint>
            <Time>2022-07-08T12:27:15.000Z</Time>
            <Position>
              <LatitudeDegrees>43.37354944087564945220947265625</LatitudeDegrees>
              <LongitudeDegrees>-1.75434515811502933502197265625</LongitudeDegrees>
            </Position>
            <AltitudeMeters>59</AltitudeMeters>
            <DistanceMeters>NAN</DistanceMeters>
          </Trackpoint>
          <Trackpoint>
            <Time>2022-07-08T12:27:17.000Z</Time>
            <Position>
              <LatitudeDegrees>43.3735205233097076416015625</LatitudeDegrees>
              <LongitudeDegrees>-1.75456644035875797271728515625</LongitudeDegrees>
            </Position>
            <AltitudeMeters>58.200000762939453125</AltitudeMeters>
            <DistanceMeters>NAN</DistanceMeters>
          </Trackpoint>
          <Trackpoint>
            <Time>2022-07-08T12:27:18.000Z</Time>
            <Position>
              <LatitudeDegrees>43.37350912392139434814453125</LatitudeDegrees>
              <LongitudeDegrees>-1.7546744830906391143798828125</LongitudeDegrees>
            </Position>
            <AltitudeMeters>57.799999237060546875</AltitudeMeters>
            <DistanceMeters>NAN</DistanceMeters>
          </Trackpoint>
          <Trackpoint>
            <Time>2022-07-08T12:27:21.000Z</Time>
            <Position>
              <LatitudeDegrees>43.37349864654242992401123046875</LatitudeDegrees>
              <LongitudeDegrees>-1.75498746335506439208984375</LongitudeDegrees>
            </Position>
            <AltitudeMeters>57</AltitudeMeters>
            <DistanceMeters>NAN</DistanceMeters>
          </Trackpoint>
          <Trackpoint>
            <Time>2022-07-08T12:27:22.000Z</Time>
            <Position>
              <LatitudeDegrees>43.37350032292306423187255859375</LatitudeDegrees>
              <LongitudeDegrees>-1.75508930347859859466552734375</LongitudeDegrees>
            </Position>
            <AltitudeMeters>56.59999847412109375</AltitudeMeters>
            <DistanceMeters>NAN</DistanceMeters>
          </Trackpoint>
          <Trackpoint>
            <Time>2022-07-08T12:27:23.000Z</Time>
            <Position>
              <LatitudeDegrees>43.37350753135979175567626953125</LatitudeDegrees>
              <LongitudeDegrees>-1.7551884613931179046630859375</LongitudeDegrees>
            </Position>
            <AltitudeMeters>56</AltitudeMeters>
            <DistanceMeters>NAN</DistanceMeters>
          </Trackpoint>
          <Trackpoint>
            <Time>2022-07-08T12:27:24.000Z</Time>
            <Position>
              <LatitudeDegrees>43.3735190145671367645263671875</LatitudeDegrees>
              <LongitudeDegrees>-1.75528250634670257568359375</LongitudeDegrees>
            </Position>
            <AltitudeMeters>55.799999237060546875</AltitudeMeters>
            <DistanceMeters>NAN</DistanceMeters>
          </Trackpoint>
          <Trackpoint>
            <Time>2022-07-08T12:27:27.000Z</Time>
            <Position>
              <LatitudeDegrees>43.37355447001755237579345703125</LatitudeDegrees>
              <LongitudeDegrees>-1.75549951381981372833251953125</LongitudeDegrees>
            </Position>
            <AltitudeMeters>54.40000152587890625</AltitudeMeters>
            <DistanceMeters>NAN</DistanceMeters>
          </Trackpoint>
          <Trackpoint>
            <Time>2022-07-08T12:27:28.000Z</Time>
            <Position>
              <LatitudeDegrees>43.3735719881951808929443359375</LatitudeDegrees>
              <LongitudeDegrees>-1.75555399619042873382568359375</LongitudeDegrees>
            </Position>
            <AltitudeMeters>54.200000762939453125</AltitudeMeters>
            <DistanceMeters>NAN</DistanceMeters>
          </Trackpoint>
          <Trackpoint>
            <Time>2022-07-08T12:27:30.000Z</Time>
            <Position>
              <LatitudeDegrees>43.3736105449497699737548828125</LatitudeDegrees>
              <LongitudeDegrees>-1.75563664175570011138916015625</LongitudeDegrees>
            </Position>
            <AltitudeMeters>53.200000762939453125</AltitudeMeters>
            <DistanceMeters>NAN</DistanceMeters>
          </Trackpoint>
          <Trackpoint>
            <Time>2022-07-08T12:27:31.000Z</Time>
            <Position>
              <LatitudeDegrees>43.37362504564225673675537109375</LatitudeDegrees>
              <LongitudeDegrees>-1.755664385855197906494140625</LongitudeDegrees>
            </Position>
            <AltitudeMeters>52.799999237060546875</AltitudeMeters>
            <DistanceMeters>NAN</DistanceMeters>
          </Trackpoint>
          <Trackpoint>
            <Time>2022-07-08T12:27:33.000Z</Time>
            <Position>
              <LatitudeDegrees>43.37363996542990207672119140625</LatitudeDegrees>
              <LongitudeDegrees>-1.755685508251190185546875</LongitudeDegrees>
            </Position>
            <AltitudeMeters>52</AltitudeMeters>
            <DistanceMeters>NAN</DistanceMeters>
          </Trackpoint>
          <Trackpoint>
            <Time>2022-07-08T12:27:35.000Z</Time>
            <Position>
              <LatitudeDegrees>43.37363996542990207672119140625</LatitudeDegrees>
              <LongitudeDegrees>-1.755685508251190185546875</LongitudeDegrees>
            </Position>
            <AltitudeMeters>51.59999847412109375</AltitudeMeters>
            <DistanceMeters>NAN</DistanceMeters>
          </Trackpoint>
          <Trackpoint>
            <Time>2022-07-08T12:29:25.000Z</Time>
            <Position>
              <LatitudeDegrees>43.37367734871804714202880859375</LatitudeDegrees>
              <LongitudeDegrees>-1.755719371140003204345703125</LongitudeDegrees>
            </Position>
            <AltitudeMeters>50.799999237060546875</AltitudeMeters>
            <DistanceMeters>NAN</DistanceMeters>
          </Trackpoint>
          <Trackpoint>
            <Time>2022-07-08T12:29:28.000Z</Time>
            <Position>
              <LatitudeDegrees>43.3737171627581119537353515625</LatitudeDegrees>
              <LongitudeDegrees>-1.75580411218106746673583984375</LongitudeDegrees>
            </Position>
            <AltitudeMeters>50.799999237060546875</AltitudeMeters>
            <DistanceMeters>NAN</DistanceMeters>
          </Trackpoint>
          <Trackpoint>
            <Time>2022-07-08T12:29:32.000Z</Time>
            <Position>
              <LatitudeDegrees>43.37380324490368366241455078125</LatitudeDegrees>
              <LongitudeDegrees>-1.75595515407621860504150390625</LongitudeDegrees>
            </Position>
            <AltitudeMeters>50.799999237060546875</AltitudeMeters>
            <DistanceMeters>NAN</DistanceMeters>
          </Trackpoint>
          <Trackpoint>
            <Time>2022-07-08T12:29:34.000Z</Time>
            <Position>
              <LatitudeDegrees>43.3738623373210430145263671875</LatitudeDegrees>
              <LongitudeDegrees>-1.7560355365276336669921875</LongitudeDegrees>
            </Position>
            <AltitudeMeters>50.59999847412109375</AltitudeMeters>
            <DistanceMeters>NAN</DistanceMeters>
          </Trackpoint>
          <Trackpoint>
            <Time>2022-07-08T12:29:36.000Z</Time>
            <Position>
              <LatitudeDegrees>43.37393534369766712188720703125</LatitudeDegrees>
              <LongitudeDegrees>-1.75611038692295551300048828125</LongitudeDegrees>
            </Position>
            <AltitudeMeters>50.40000152587890625</AltitudeMeters>
            <DistanceMeters>NAN</DistanceMeters>
          </Trackpoint>
          <Trackpoint>
            <Time>2022-07-08T12:29:40.000Z</Time>
            <Position>
              <LatitudeDegrees>43.37410482577979564666748046875</LatitudeDegrees>
              <LongitudeDegrees>-1.75621926784515380859375</LongitudeDegrees>
            </Position>
            <AltitudeMeters>49.799999237060546875</AltitudeMeters>
            <DistanceMeters>NAN</DistanceMeters>
          </Trackpoint>
          <Trackpoint>
            <Time>2022-07-08T12:29:46.000Z</Time>
            <Position>
              <LatitudeDegrees>43.37437874637544155120849609375</LatitudeDegrees>
              <LongitudeDegrees>-1.75640241242945194244384765625</LongitudeDegrees>
            </Position>
            <AltitudeMeters>48.799999237060546875</AltitudeMeters>
            <DistanceMeters>NAN</DistanceMeters>
          </Trackpoint>
          <Trackpoint>
            <Time>2022-07-08T12:29:48.000Z</Time>
            <Position>
              <LatitudeDegrees>43.37446524761617183685302734375</LatitudeDegrees>
              <LongitudeDegrees>-1.75649218261241912841796875</LongitudeDegrees>
            </Position>
            <AltitudeMeters>48.59999847412109375</AltitudeMeters>
            <DistanceMeters>NAN</DistanceMeters>
          </Trackpoint>
          <Trackpoint>
            <Time>2022-07-08T12:29:52.000Z</Time>
            <Position>
              <LatitudeDegrees>43.3746150322258472442626953125</LatitudeDegrees>
              <LongitudeDegrees>-1.7567334137856960296630859375</LongitudeDegrees>
            </Position>
            <AltitudeMeters>47.799999237060546875</AltitudeMeters>
            <DistanceMeters>NAN</DistanceMeters>
          </Trackpoint>
          <Trackpoint>
            <Time>2022-07-08T12:29:54.000Z</Time>
            <Position>
              <LatitudeDegrees>43.37466557510197162628173828125</LatitudeDegrees>
              <LongitudeDegrees>-1.75689107738435268402099609375</LongitudeDegrees>
            </Position>
            <AltitudeMeters>47.40000152587890625</AltitudeMeters>
            <DistanceMeters>NAN</DistanceMeters>
          </Trackpoint>
          <Trackpoint>
            <Time>2022-07-08T12:29:55.000Z</Time>
            <Position>
              <LatitudeDegrees>43.37468418292701244354248046875</LatitudeDegrees>
              <LongitudeDegrees>-1.75697271712124347686767578125</LongitudeDegrees>
            </Position>
            <AltitudeMeters>47.200000762939453125</AltitudeMeters>
            <DistanceMeters>NAN</DistanceMeters>
          </Trackpoint>
          <Trackpoint>
            <Time>2022-07-08T12:29:57.000Z</Time>
            <Position>
              <LatitudeDegrees>43.37470144964754581451416015625</LatitudeDegrees>
              <LongitudeDegrees>-1.7571525089442729949951171875</LongitudeDegrees>
            </Position>
            <AltitudeMeters>46.59999847412109375</AltitudeMeters>
            <DistanceMeters>NAN</DistanceMeters>
          </Trackpoint>
          <Trackpoint>
            <Time>2022-07-08T12:29:58.000Z</Time>
            <Position>
              <LatitudeDegrees>43.374699689447879791259765625</LatitudeDegrees>
              <LongitudeDegrees>-1.757245548069477081298828125</LongitudeDegrees>
            </Position>
            <AltitudeMeters>46.40000152587890625</AltitudeMeters>
            <DistanceMeters>NAN</DistanceMeters>
          </Trackpoint>
          <Trackpoint>
            <Time>2022-07-08T12:30:00.000Z</Time>
            <Position>
              <LatitudeDegrees>43.37467999197542667388916015625</LatitudeDegrees>
              <LongitudeDegrees>-1.75743238069117069244384765625</LongitudeDegrees>
            </Position>
            <AltitudeMeters>45.59999847412109375</AltitudeMeters>
            <DistanceMeters>NAN</DistanceMeters>
          </Trackpoint>
          <Trackpoint>
            <Time>2022-07-08T12:30:02.000Z</Time>
            <Position>
              <LatitudeDegrees>43.3746363222599029541015625</LatitudeDegrees>
              <LongitudeDegrees>-1.7576185427606105804443359375</LongitudeDegrees>
            </Position>
            <AltitudeMeters>44.799999237060546875</AltitudeMeters>
            <DistanceMeters>NAN</DistanceMeters>
          </Trackpoint>
          <Trackpoint>
            <Time>2022-07-08T12:30:03.000Z</Time>
            <Position>
              <LatitudeDegrees>43.37460187263786792755126953125</LatitudeDegrees>
              <LongitudeDegrees>-1.757706217467784881591796875</LongitudeDegrees>
            </Position>
            <AltitudeMeters>44.40000152587890625</AltitudeMeters>
            <DistanceMeters>NAN</DistanceMeters>
          </Trackpoint>
          <Trackpoint>
            <Time>2022-07-08T12:30:04.000Z</Time>
            <Position>
              <LatitudeDegrees>43.3745600469410419464111328125</LatitudeDegrees>
              <LongitudeDegrees>-1.75779079087078571319580078125</LongitudeDegrees>
            </Position>
            <AltitudeMeters>44</AltitudeMeters>
            <DistanceMeters>NAN</DistanceMeters>
          </Trackpoint>
          <Trackpoint>
            <Time>2022-07-08T12:30:06.000Z</Time>
            <Position>
              <LatitudeDegrees>43.37445770390331745147705078125</LatitudeDegrees>
              <LongitudeDegrees>-1.75793982110917568206787109375</LongitudeDegrees>
            </Position>
            <AltitudeMeters>43.40000152587890625</AltitudeMeters>
            <DistanceMeters>NAN</DistanceMeters>
          </Trackpoint>
          <Trackpoint>
            <Time>2022-07-08T12:30:07.000Z</Time>
            <Position>
              <LatitudeDegrees>43.37440020404756069183349609375</LatitudeDegrees>
              <LongitudeDegrees>-1.758009307086467742919921875</LongitudeDegrees>
            </Position>
            <AltitudeMeters>43</AltitudeMeters>
            <DistanceMeters>NAN</DistanceMeters>
          </Trackpoint>
          <Trackpoint>
            <Time>2022-07-08T12:30:09.000Z</Time>
            <Position>
              <LatitudeDegrees>43.3742849528789520263671875</LatitudeDegrees>
              <LongitudeDegrees>-1.75815205089747905731201171875</LongitudeDegrees>
            </Position>
            <AltitudeMeters>42.200000762939453125</AltitudeMeters>
            <DistanceMeters>NAN</DistanceMeters>
          </Trackpoint>
          <Trackpoint>
            <Time>2022-07-08T12:30:14.000Z</Time>
            <Position>
              <LatitudeDegrees>43.37399820797145366668701171875</LatitudeDegrees>
              <LongitudeDegrees>-1.7585147358477115631103515625</LongitudeDegrees>
            </Position>
            <AltitudeMeters>40.40000152587890625</AltitudeMeters>
            <DistanceMeters>NAN</DistanceMeters>
          </Trackpoint>
          <Trackpoint>
            <Time>2022-07-08T12:30:16.000Z</Time>
            <Position>
              <LatitudeDegrees>43.37388320825994014739990234375</LatitudeDegrees>
              <LongitudeDegrees>-1.75865865312516689300537109375</LongitudeDegrees>
            </Position>
            <AltitudeMeters>39</AltitudeMeters>
            <DistanceMeters>NAN</DistanceMeters>
          </Trackpoint>
          <Trackpoint>
            <Time>2022-07-08T12:30:18.000Z</Time>
            <Position>
              <LatitudeDegrees>43.3737780153751373291015625</LatitudeDegrees>
              <LongitudeDegrees>-1.75881505943834781646728515625</LongitudeDegrees>
            </Position>
            <AltitudeMeters>38</AltitudeMeters>
            <DistanceMeters>NAN</DistanceMeters>
          </Trackpoint>
          <Trackpoint>
            <Time>2022-07-08T12:30:19.000Z</Time>
            <Position>
              <LatitudeDegrees>43.373732082545757293701171875</LatitudeDegrees>
              <LongitudeDegrees>-1.75890189595520496368408203125</LongitudeDegrees>
            </Position>
            <AltitudeMeters>37.59999847412109375</AltitudeMeters>
            <DistanceMeters>NAN</DistanceMeters>
          </Trackpoint>
          <Trackpoint>
            <Time>2022-07-08T12:30:21.000Z</Time>
            <Position>
              <LatitudeDegrees>43.3736695535480976104736328125</LatitudeDegrees>
              <LongitudeDegrees>-1.75908361561596393585205078125</LongitudeDegrees>
            </Position>
            <AltitudeMeters>37</AltitudeMeters>
            <DistanceMeters>NAN</DistanceMeters>
          </Trackpoint>
          <Trackpoint>
            <Time>2022-07-08T12:30:22.000Z</Time>
            <Position>
              <LatitudeDegrees>43.37364968843758106231689453125</LatitudeDegrees>
              <LongitudeDegrees>-1.75917849875986576080322265625</LongitudeDegrees>
            </Position>
            <AltitudeMeters>36.799999237060546875</AltitudeMeters>
            <DistanceMeters>NAN</DistanceMeters>
          </Trackpoint>
          <Trackpoint>
            <Time>2022-07-08T12:30:23.000Z</Time>
            <Position>
              <LatitudeDegrees>43.37363678030669689178466796875</LatitudeDegrees>
              <LongitudeDegrees>-1.75927455537021160125732421875</LongitudeDegrees>
            </Position>
            <AltitudeMeters>36.40000152587890625</AltitudeMeters>
            <DistanceMeters>NAN</DistanceMeters>
          </Trackpoint>
          <Trackpoint>
            <Time>2022-07-08T12:30:25.000Z</Time>
            <Position>
              <LatitudeDegrees>43.37362856604158878326416015625</LatitudeDegrees>
              <LongitudeDegrees>-1.7594685964286327362060546875</LongitudeDegrees>
            </Position>
            <AltitudeMeters>35.40000152587890625</AltitudeMeters>
            <DistanceMeters>NAN</DistanceMeters>
          </Trackpoint>
          <Trackpoint>
            <Time>2022-07-08T12:30:26.000Z</Time>
            <Position>
              <LatitudeDegrees>43.37363393045961856842041015625</LatitudeDegrees>
              <LongitudeDegrees>-1.75956088118255138397216796875</LongitudeDegrees>
            </Position>
            <AltitudeMeters>34.59999847412109375</AltitudeMeters>
            <DistanceMeters>NAN</DistanceMeters>
          </Trackpoint>
          <Trackpoint>
            <Time>2022-07-08T12:30:27.000Z</Time>
            <Position>
              <LatitudeDegrees>43.3736450783908367156982421875</LatitudeDegrees>
              <LongitudeDegrees>-1.759646795690059661865234375</LongitudeDegrees>
            </Position>
            <AltitudeMeters>34.200000762939453125</AltitudeMeters>
            <DistanceMeters>NAN</DistanceMeters>
          </Trackpoint>
          <Trackpoint>
            <Time>2022-07-08T12:30:30.000Z</Time>
            <Position>
              <LatitudeDegrees>43.373706601560115814208984375</LatitudeDegrees>
              <LongitudeDegrees>-1.75988559611141681671142578125</LongitudeDegrees>
            </Position>
            <AltitudeMeters>32.799999237060546875</AltitudeMeters>
            <DistanceMeters>NAN</DistanceMeters>
          </Trackpoint>
          <Trackpoint>
            <Time>2022-07-08T12:30:34.000Z</Time>
            <Position>
              <LatitudeDegrees>43.3738516084849834442138671875</LatitudeDegrees>
              <LongitudeDegrees>-1.76014862023293972015380859375</LongitudeDegrees>
            </Position>
            <AltitudeMeters>31.6000003814697265625</AltitudeMeters>
            <DistanceMeters>NAN</DistanceMeters>
          </Trackpoint>
          <Trackpoint>
            <Time>2022-07-08T12:30:35.000Z</Time>
            <Position>
              <LatitudeDegrees>43.37389938533306121826171875</LatitudeDegrees>
              <LongitudeDegrees>-1.76020343787968158721923828125</LongitudeDegrees>
            </Position>
            <AltitudeMeters>31.3999996185302734375</AltitudeMeters>
            <DistanceMeters>NAN</DistanceMeters>
          </Trackpoint>
          <Trackpoint>
            <Time>2022-07-08T12:30:37.000Z</Time>
            <Position>
              <LatitudeDegrees>43.3740044943988323211669921875</LatitudeDegrees>
              <LongitudeDegrees>-1.760304607450962066650390625</LongitudeDegrees>
            </Position>
            <AltitudeMeters>30.3999996185302734375</AltitudeMeters>
            <DistanceMeters>NAN</DistanceMeters>
          </Trackpoint>
          <Trackpoint>
            <Time>2022-07-08T12:30:39.000Z</Time>
            <Position>
              <LatitudeDegrees>43.37412058375775814056396484375</LatitudeDegrees>
              <LongitudeDegrees>-1.7603768594563007354736328125</LongitudeDegrees>
            </Position>
            <AltitudeMeters>29.6000003814697265625</AltitudeMeters>
            <DistanceMeters>NAN</DistanceMeters>
          </Trackpoint>
          <Trackpoint>
            <Time>2022-07-08T12:30:40.000Z</Time>
            <Position>
              <LatitudeDegrees>43.37418260984122753143310546875</LatitudeDegrees>
              <LongitudeDegrees>-1.7604036815464496612548828125</LongitudeDegrees>
            </Position>
            <AltitudeMeters>29</AltitudeMeters>
            <DistanceMeters>NAN</DistanceMeters>
          </Trackpoint>
          <Trackpoint>
            <Time>2022-07-08T12:30:44.000Z</Time>
            <Position>
              <LatitudeDegrees>43.37442954070866107940673828125</LatitudeDegrees>
              <LongitudeDegrees>-1.7604945413768291473388671875</LongitudeDegrees>
            </Position>
            <AltitudeMeters>27.799999237060546875</AltitudeMeters>
            <DistanceMeters>NAN</DistanceMeters>
          </Trackpoint>
          <Trackpoint>
            <Time>2022-07-08T12:30:48.000Z</Time>
            <Position>
              <LatitudeDegrees>43.37466037832200527191162109375</LatitudeDegrees>
              <LongitudeDegrees>-1.7605870775878429412841796875</LongitudeDegrees>
            </Position>
            <AltitudeMeters>26.6000003814697265625</AltitudeMeters>
            <DistanceMeters>NAN</DistanceMeters>
          </Trackpoint>
          <Trackpoint>
            <Time>2022-07-08T12:30:52.000Z</Time>
            <Position>
              <LatitudeDegrees>43.374859280884265899658203125</LatitudeDegrees>
              <LongitudeDegrees>-1.76073007285594940185546875</LongitudeDegrees>
            </Position>
            <AltitudeMeters>25.3999996185302734375</AltitudeMeters>
            <DistanceMeters>NAN</DistanceMeters>
          </Trackpoint>
          <Trackpoint>
            <Time>2022-07-08T12:30:55.000Z</Time>
            <Position>
              <LatitudeDegrees>43.37498995475471019744873046875</LatitudeDegrees>
              <LongitudeDegrees>-1.76085085608065128326416015625</LongitudeDegrees>
            </Position>
            <AltitudeMeters>24</AltitudeMeters>
            <DistanceMeters>NAN</DistanceMeters>
          </Trackpoint>
          <Trackpoint>
            <Time>2022-07-08T12:30:57.000Z</Time>
            <Position>
              <LatitudeDegrees>43.37506555952131748199462890625</LatitudeDegrees>
              <LongitudeDegrees>-1.7609037458896636962890625</LongitudeDegrees>
            </Position>
            <AltitudeMeters>23.200000762939453125</AltitudeMeters>
            <DistanceMeters>NAN</DistanceMeters>
          </Trackpoint>
          <Trackpoint>
            <Time>2022-07-08T12:30:58.000Z</Time>
            <Position>
              <LatitudeDegrees>43.37509833276271820068359375</LatitudeDegrees>
              <LongitudeDegrees>-1.76092713139951229095458984375</LongitudeDegrees>
            </Position>
            <AltitudeMeters>22.3999996185302734375</AltitudeMeters>
            <DistanceMeters>NAN</DistanceMeters>
          </Trackpoint>
          <Trackpoint>
            <Time>2022-07-08T12:30:59.000Z</Time>
            <Position>
              <LatitudeDegrees>43.37512859143316745758056640625</LatitudeDegrees>
              <LongitudeDegrees>-1.7609568871557712554931640625</LongitudeDegrees>
            </Position>
            <AltitudeMeters>22</AltitudeMeters>
            <DistanceMeters>NAN</DistanceMeters>
          </Trackpoint>
          <Trackpoint>
            <Time>2022-07-08T12:31:01.000Z</Time>
            <Position>
              <LatitudeDegrees>43.37519397027790546417236328125</LatitudeDegrees>
              <LongitudeDegrees>-1.7610351741313934326171875</LongitudeDegrees>
            </Position>
            <AltitudeMeters>21.3999996185302734375</AltitudeMeters>
            <DistanceMeters>NAN</DistanceMeters>
          </Trackpoint>
          <Trackpoint>
            <Time>2022-07-08T12:31:04.000Z</Time>
            <Position>
              <LatitudeDegrees>43.37527477182447910308837890625</LatitudeDegrees>
              <LongitudeDegrees>-1.761194430291652679443359375</LongitudeDegrees>
            </Position>
            <AltitudeMeters>21.200000762939453125</AltitudeMeters>
            <DistanceMeters>NAN</DistanceMeters>
          </Trackpoint>
          <Trackpoint>
            <Time>2022-07-08T12:31:07.000Z</Time>
            <Position>
              <LatitudeDegrees>43.37536462582647800445556640625</LatitudeDegrees>
              <LongitudeDegrees>-1.76136634312570095062255859375</LongitudeDegrees>
            </Position>
            <AltitudeMeters>20.3999996185302734375</AltitudeMeters>
            <DistanceMeters>NAN</DistanceMeters>
          </Trackpoint>
          <Trackpoint>
            <Time>2022-07-08T12:31:08.000Z</Time>
            <Position>
              <LatitudeDegrees>43.37539614178240299224853515625</LatitudeDegrees>
              <LongitudeDegrees>-1.76143088378012180328369140625</LongitudeDegrees>
            </Position>
            <AltitudeMeters>20</AltitudeMeters>
            <DistanceMeters>NAN</DistanceMeters>
          </Trackpoint>
          <Trackpoint>
            <Time>2022-07-08T12:31:10.000Z</Time>
            <Position>
              <LatitudeDegrees>43.37544240988790988922119140625</LatitudeDegrees>
              <LongitudeDegrees>-1.76156633533537387847900390625</LongitudeDegrees>
            </Position>
            <AltitudeMeters>19.799999237060546875</AltitudeMeters>
            <DistanceMeters>NAN</DistanceMeters>
          </Trackpoint>
          <Trackpoint>
            <Time>2022-07-08T12:31:16.000Z</Time>
            <Position>
              <LatitudeDegrees>43.37556637823581695556640625</LatitudeDegrees>
              <LongitudeDegrees>-1.76192223094403743743896484375</LongitudeDegrees>
            </Position>
            <AltitudeMeters>19</AltitudeMeters>
            <DistanceMeters>NAN</DistanceMeters>
          </Trackpoint>
          <Trackpoint>
            <Time>2022-07-08T12:31:17.000Z</Time>
            <Position>
              <LatitudeDegrees>43.37557903490960597991943359375</LatitudeDegrees>
              <LongitudeDegrees>-1.761978305876255035400390625</LongitudeDegrees>
            </Position>
            <AltitudeMeters>19</AltitudeMeters>
            <DistanceMeters>NAN</DistanceMeters>
          </Trackpoint>
          <Trackpoint>
            <Time>2022-07-08T12:31:20.000Z</Time>
            <Position>
              <LatitudeDegrees>43.37560200132429599761962890625</LatitudeDegrees>
              <LongitudeDegrees>-1.76214820705354213714599609375</LongitudeDegrees>
            </Position>
            <AltitudeMeters>18.6000003814697265625</AltitudeMeters>
            <DistanceMeters>NAN</DistanceMeters>
          </Trackpoint>
          <Trackpoint>
            <Time>2022-07-08T12:31:23.000Z</Time>
            <Position>
              <LatitudeDegrees>43.37564357556402683258056640625</LatitudeDegrees>
              <LongitudeDegrees>-1.76229824312031269073486328125</LongitudeDegrees>
            </Position>
            <AltitudeMeters>18.3999996185302734375</AltitudeMeters>
            <DistanceMeters>NAN</DistanceMeters>
          </Trackpoint>
          <Trackpoint>
            <Time>2022-07-08T12:31:26.000Z</Time>
            <Position>
              <LatitudeDegrees>43.375692106783390045166015625</LatitudeDegrees>
              <LongitudeDegrees>-1.7624384723603725433349609375</LongitudeDegrees>
            </Position>
            <AltitudeMeters>18.200000762939453125</AltitudeMeters>
            <DistanceMeters>NAN</DistanceMeters>
          </Trackpoint>
          <Trackpoint>
            <Time>2022-07-08T12:31:30.000Z</Time>
            <Position>
              <LatitudeDegrees>43.37573259137570858001708984375</LatitudeDegrees>
              <LongitudeDegrees>-1.7626332677900791168212890625</LongitudeDegrees>
            </Position>
            <AltitudeMeters>18</AltitudeMeters>
            <DistanceMeters>NAN</DistanceMeters>
          </Trackpoint>
          <Trackpoint>
            <Time>2022-07-08T12:31:31.000Z</Time>
            <Position>
              <LatitudeDegrees>43.37573896162211894989013671875</LatitudeDegrees>
              <LongitudeDegrees>-1.762682385742664337158203125</LongitudeDegrees>
            </Position>
            <AltitudeMeters>18</AltitudeMeters>
            <DistanceMeters>NAN</DistanceMeters>
          </Trackpoint>
          <Trackpoint>
            <Time>2022-07-08T12:31:33.000Z</Time>
            <Position>
              <LatitudeDegrees>43.37574214674532413482666015625</LatitudeDegrees>
              <LongitudeDegrees>-1.76277450285851955413818359375</LongitudeDegrees>
            </Position>
            <AltitudeMeters>18</AltitudeMeters>
            <DistanceMeters>NAN</DistanceMeters>
          </Trackpoint>
          <Trackpoint>
            <Time>2022-07-08T12:31:36.000Z</Time>
            <Position>
              <LatitudeDegrees>43.37571322917938232421875</LatitudeDegrees>
              <LongitudeDegrees>-1.76291028968989849090576171875</LongitudeDegrees>
            </Position>
            <AltitudeMeters>17.799999237060546875</AltitudeMeters>
            <DistanceMeters>NAN</DistanceMeters>
          </Trackpoint>
          <Trackpoint>
            <Time>2022-07-08T12:31:39.000Z</Time>
            <Position>
              <LatitudeDegrees>43.3756738342344760894775390625</LatitudeDegrees>
              <LongitudeDegrees>-1.76302679814398288726806640625</LongitudeDegrees>
            </Position>
            <AltitudeMeters>17.799999237060546875</AltitudeMeters>
            <DistanceMeters>NAN</DistanceMeters>
          </Trackpoint>
          <Trackpoint>
            <Time>2022-07-08T12:31:44.000Z</Time>
            <Position>
              <LatitudeDegrees>43.3756309188902378082275390625</LatitudeDegrees>
              <LongitudeDegrees>-1.76321170292794704437255859375</LongitudeDegrees>
            </Position>
            <AltitudeMeters>17.6000003814697265625</AltitudeMeters>
            <DistanceMeters>NAN</DistanceMeters>
          </Trackpoint>
          <Trackpoint>
            <Time>2022-07-08T12:31:53.000Z</Time>
            <Position>
              <LatitudeDegrees>43.3755397237837314605712890625</LatitudeDegrees>
              <LongitudeDegrees>-1.76357581280171871185302734375</LongitudeDegrees>
            </Position>
            <AltitudeMeters>17.6000003814697265625</AltitudeMeters>
            <DistanceMeters>NAN</DistanceMeters>
          </Trackpoint>
          <Trackpoint>
            <Time>2022-07-08T12:32:01.000Z</Time>
            <Position>
              <LatitudeDegrees>43.375450037419795989990234375</LatitudeDegrees>
              <LongitudeDegrees>-1.7639120109379291534423828125</LongitudeDegrees>
            </Position>
            <AltitudeMeters>17</AltitudeMeters>
            <DistanceMeters>NAN</DistanceMeters>
          </Trackpoint>
          <Trackpoint>
            <Time>2022-07-08T12:32:02.000Z</Time>
            <Position>
              <LatitudeDegrees>43.3754409849643707275390625</LatitudeDegrees>
              <LongitudeDegrees>-1.763953752815723419189453125</LongitudeDegrees>
            </Position>
            <AltitudeMeters>17</AltitudeMeters>
            <DistanceMeters>NAN</DistanceMeters>
          </Trackpoint>
          <Trackpoint>
            <Time>2022-07-08T12:32:03.000Z</Time>
            <Position>
              <LatitudeDegrees>43.37543084286153316497802734375</LatitudeDegrees>
              <LongitudeDegrees>-1.76399557851254940032958984375</LongitudeDegrees>
            </Position>
            <AltitudeMeters>16.799999237060546875</AltitudeMeters>
            <DistanceMeters>NAN</DistanceMeters>
          </Trackpoint>
          <Trackpoint>
            <Time>2022-07-08T12:32:07.000Z</Time>
            <Position>
              <LatitudeDegrees>43.375393040478229522705078125</LatitudeDegrees>
              <LongitudeDegrees>-1.76414980553090572357177734375</LongitudeDegrees>
            </Position>
            <AltitudeMeters>16.799999237060546875</AltitudeMeters>
            <DistanceMeters>NAN</DistanceMeters>
          </Trackpoint>
          <Trackpoint>
            <Time>2022-07-08T12:32:12.000Z</Time>
            <Position>
              <LatitudeDegrees>43.3753435872495174407958984375</LatitudeDegrees>
              <LongitudeDegrees>-1.7643431760370731353759765625</LongitudeDegrees>
            </Position>
            <AltitudeMeters>16.799999237060546875</AltitudeMeters>
            <DistanceMeters>NAN</DistanceMeters>
          </Trackpoint>
          <Trackpoint>
            <Time>2022-07-08T12:32:13.000Z</Time>
            <Position>
              <LatitudeDegrees>43.375335372984409332275390625</LatitudeDegrees>
              <LongitudeDegrees>-1.7643753625452518463134765625</LongitudeDegrees>
            </Position>
            <AltitudeMeters>16.799999237060546875</AltitudeMeters>
            <DistanceMeters>NAN</DistanceMeters>
          </Trackpoint>
          <Trackpoint>
            <Time>2022-07-08T12:32:19.000Z</Time>
            <Position>
              <LatitudeDegrees>43.3752892725169658660888671875</LatitudeDegrees>
              <LongitudeDegrees>-1.76457946188747882843017578125</LongitudeDegrees>
            </Position>
            <AltitudeMeters>17</AltitudeMeters>
            <DistanceMeters>NAN</DistanceMeters>
          </Trackpoint>
          <Trackpoint>
            <Time>2022-07-08T12:32:22.000Z</Time>
            <Position>
              <LatitudeDegrees>43.37526404298841953277587890625</LatitudeDegrees>
              <LongitudeDegrees>-1.76468708552420139312744140625</LongitudeDegrees>
            </Position>
            <AltitudeMeters>17</AltitudeMeters>
            <DistanceMeters>NAN</DistanceMeters>
          </Trackpoint>
          <Trackpoint>
            <Time>2022-07-08T12:32:31.000Z</Time>
            <Position>
              <LatitudeDegrees>43.37518818676471710205078125</LatitudeDegrees>
              <LongitudeDegrees>-1.76501079462468624114990234375</LongitudeDegrees>
            </Position>
            <AltitudeMeters>16.3999996185302734375</AltitudeMeters>
            <DistanceMeters>NAN</DistanceMeters>
          </Trackpoint>
          <Trackpoint>
            <Time>2022-07-08T12:32:35.000Z</Time>
            <Position>
              <LatitudeDegrees>43.3751477859914302825927734375</LatitudeDegrees>
              <LongitudeDegrees>-1.7651552148163318634033203125</LongitudeDegrees>
            </Position>
            <AltitudeMeters>16.3999996185302734375</AltitudeMeters>
            <DistanceMeters>NAN</DistanceMeters>
          </Trackpoint>
          <Trackpoint>
            <Time>2022-07-08T12:32:37.000Z</Time>
            <Position>
              <LatitudeDegrees>43.375132195651531219482421875</LatitudeDegrees>
              <LongitudeDegrees>-1.7652269639074802398681640625</LongitudeDegrees>
            </Position>
            <AltitudeMeters>16.200000762939453125</AltitudeMeters>
            <DistanceMeters>NAN</DistanceMeters>
          </Trackpoint>
          <Trackpoint>
            <Time>2022-07-08T12:32:40.000Z</Time>
            <Position>
              <LatitudeDegrees>43.37510813958942890167236328125</LatitudeDegrees>
              <LongitudeDegrees>-1.76533919759094715118408203125</LongitudeDegrees>
            </Position>
            <AltitudeMeters>16.200000762939453125</AltitudeMeters>
            <DistanceMeters>NAN</DistanceMeters>
          </Trackpoint>
          <Trackpoint>
            <Time>2022-07-08T12:32:50.000Z</Time>
            <Position>
              <LatitudeDegrees>43.37501275353133678436279296875</LatitudeDegrees>
              <LongitudeDegrees>-1.76572166383266448974609375</LongitudeDegrees>
            </Position>
            <AltitudeMeters>16.200000762939453125</AltitudeMeters>
            <DistanceMeters>NAN</DistanceMeters>
          </Trackpoint>
          <Trackpoint>
            <Time>2022-07-08T12:32:52.000Z</Time>
            <Position>
              <LatitudeDegrees>43.3749922178685665130615234375</LatitudeDegrees>
              <LongitudeDegrees>-1.76578846760094165802001953125</LongitudeDegrees>
            </Position>
            <AltitudeMeters>16</AltitudeMeters>
            <DistanceMeters>NAN</DistanceMeters>
          </Trackpoint>
          <Trackpoint>
            <Time>2022-07-08T12:32:53.000Z</Time>
            <Position>
              <LatitudeDegrees>43.37498576380312442779541015625</LatitudeDegrees>
              <LongitudeDegrees>-1.76582300104200839996337890625</LongitudeDegrees>
            </Position>
            <AltitudeMeters>16</AltitudeMeters>
            <DistanceMeters>NAN</DistanceMeters>
          </Trackpoint>
          <Trackpoint>
            <Time>2022-07-08T12:32:56.000Z</Time>
            <Position>
              <LatitudeDegrees>43.37497671134769916534423828125</LatitudeDegrees>
              <LongitudeDegrees>-1.76593414507806301116943359375</LongitudeDegrees>
            </Position>
            <AltitudeMeters>15.80000019073486328125</AltitudeMeters>
            <DistanceMeters>NAN</DistanceMeters>
          </Trackpoint>
          <Trackpoint>
            <Time>2022-07-08T12:33:01.000Z</Time>
            <Position>
              <LatitudeDegrees>43.37492641992866992950439453125</LatitudeDegrees>
              <LongitudeDegrees>-1.76610530354082584381103515625</LongitudeDegrees>
            </Position>
            <AltitudeMeters>16</AltitudeMeters>
            <DistanceMeters>NAN</DistanceMeters>
          </Trackpoint>
          <Trackpoint>
            <Time>2022-07-08T12:33:08.000Z</Time>
            <Position>
              <LatitudeDegrees>43.37488953955471515655517578125</LatitudeDegrees>
              <LongitudeDegrees>-1.76635122857987880706787109375</LongitudeDegrees>
            </Position>
            <AltitudeMeters>16</AltitudeMeters>
            <DistanceMeters>NAN</DistanceMeters>
          </Trackpoint>
          <Trackpoint>
            <Time>2022-07-08T12:33:09.000Z</Time>
            <Position>
              <LatitudeDegrees>43.374879062175750732421875</LatitudeDegrees>
              <LongitudeDegrees>-1.76638844422996044158935546875</LongitudeDegrees>
            </Position>
            <AltitudeMeters>16</AltitudeMeters>
            <DistanceMeters>NAN</DistanceMeters>
          </Trackpoint>
          <Trackpoint>
            <Time>2022-07-08T12:33:18.000Z</Time>
            <Position>
              <LatitudeDegrees>43.37479834444820880889892578125</LatitudeDegrees>
              <LongitudeDegrees>-1.76673176698386669158935546875</LongitudeDegrees>
            </Position>
            <AltitudeMeters>16</AltitudeMeters>
            <DistanceMeters>NAN</DistanceMeters>
          </Trackpoint>
          <Trackpoint>
            <Time>2022-07-08T12:33:22.000Z</Time>
            <Position>
              <LatitudeDegrees>43.374760039150714874267578125</LatitudeDegrees>
              <LongitudeDegrees>-1.766887418925762176513671875</LongitudeDegrees>
            </Position>
            <AltitudeMeters>15.80000019073486328125</AltitudeMeters>
            <DistanceMeters>NAN</DistanceMeters>
          </Trackpoint>
          <Trackpoint>
            <Time>2022-07-08T12:33:30.000Z</Time>
            <Position>
              <LatitudeDegrees>43.374682255089282989501953125</LatitudeDegrees>
              <LongitudeDegrees>-1.767191849648952484130859375</LongitudeDegrees>
            </Position>
            <AltitudeMeters>15.6000003814697265625</AltitudeMeters>
            <DistanceMeters>NAN</DistanceMeters>
          </Trackpoint>
          <Trackpoint>
            <Time>2022-07-08T12:33:41.000Z</Time>
            <Position>
              <LatitudeDegrees>43.3745935745537281036376953125</LatitudeDegrees>
              <LongitudeDegrees>-1.76761153154075145721435546875</LongitudeDegrees>
            </Position>
            <AltitudeMeters>15.3999996185302734375</AltitudeMeters>
            <DistanceMeters>NAN</DistanceMeters>
          </Trackpoint>
          <Trackpoint>
            <Time>2022-07-08T12:33:43.000Z</Time>
            <Position>
              <LatitudeDegrees>43.37457798421382904052734375</LatitudeDegrees>
              <LongitudeDegrees>-1.7676899023354053497314453125</LongitudeDegrees>
            </Position>
            <AltitudeMeters>15.19999980926513671875</AltitudeMeters>
            <DistanceMeters>NAN</DistanceMeters>
          </Trackpoint>
          <Trackpoint>
            <Time>2022-07-08T12:33:50.000Z</Time>
            <Position>
              <LatitudeDegrees>43.37452190928161144256591796875</LatitudeDegrees>
              <LongitudeDegrees>-1.76794144324958324432373046875</LongitudeDegrees>
            </Position>
            <AltitudeMeters>15.19999980926513671875</AltitudeMeters>
            <DistanceMeters>NAN</DistanceMeters>
          </Trackpoint>
          <Trackpoint>
            <Time>2022-07-08T12:33:57.000Z</Time>
            <Position>
              <LatitudeDegrees>43.3744594641029834747314453125</LatitudeDegrees>
              <LongitudeDegrees>-1.76816356368362903594970703125</LongitudeDegrees>
            </Position>
            <AltitudeMeters>15.19999980926513671875</AltitudeMeters>
            <DistanceMeters>NAN</DistanceMeters>
          </Trackpoint>
          <Trackpoint>
            <Time>2022-07-08T12:34:09.000Z</Time>
            <Position>
              <LatitudeDegrees>43.37438561953604221343994140625</LatitudeDegrees>
              <LongitudeDegrees>-1.7685746960341930389404296875</LongitudeDegrees>
            </Position>
            <AltitudeMeters>15.19999980926513671875</AltitudeMeters>
            <DistanceMeters>NAN</DistanceMeters>
          </Trackpoint>
          <Trackpoint>
            <Time>2022-07-08T12:34:14.000Z</Time>
            <Position>
              <LatitudeDegrees>43.3743493258953094482421875</LatitudeDegrees>
              <LongitudeDegrees>-1.76875264383852481842041015625</LongitudeDegrees>
            </Position>
            <AltitudeMeters>15</AltitudeMeters>
            <DistanceMeters>NAN</DistanceMeters>
          </Trackpoint>
          <Trackpoint>
            <Time>2022-07-08T12:34:15.000Z</Time>
            <Position>
              <LatitudeDegrees>43.37434194982051849365234375</LatitudeDegrees>
              <LongitudeDegrees>-1.768789105117321014404296875</LongitudeDegrees>
            </Position>
            <AltitudeMeters>15</AltitudeMeters>
            <DistanceMeters>NAN</DistanceMeters>
          </Trackpoint>
          <Trackpoint>
            <Time>2022-07-08T12:34:19.000Z</Time>
            <Position>
              <LatitudeDegrees>43.37431688793003559112548828125</LatitudeDegrees>
              <LongitudeDegrees>-1.76891726441681385040283203125</LongitudeDegrees>
            </Position>
            <AltitudeMeters>15</AltitudeMeters>
            <DistanceMeters>NAN</DistanceMeters>
          </Trackpoint>
          <Trackpoint>
            <Time>2022-07-08T12:34:24.000Z</Time>
            <Position>
              <LatitudeDegrees>43.37427246384322643280029296875</LatitudeDegrees>
              <LongitudeDegrees>-1.76909864880144596099853515625</LongitudeDegrees>
            </Position>
            <AltitudeMeters>14.80000019073486328125</AltitudeMeters>
            <DistanceMeters>NAN</DistanceMeters>
          </Trackpoint>
          <Trackpoint>
            <Time>2022-07-08T12:34:28.000Z</Time>
            <Position>
              <LatitudeDegrees>43.374243713915348052978515625</LatitudeDegrees>
              <LongitudeDegrees>-1.76924717612564563751220703125</LongitudeDegrees>
            </Position>
            <AltitudeMeters>14.6000003814697265625</AltitudeMeters>
            <DistanceMeters>NAN</DistanceMeters>
          </Trackpoint>
          <Trackpoint>
            <Time>2022-07-08T12:34:38.000Z</Time>
            <Position>
              <LatitudeDegrees>43.37415126152336597442626953125</LatitudeDegrees>
              <LongitudeDegrees>-1.7695868946611881256103515625</LongitudeDegrees>
            </Position>
            <AltitudeMeters>14.6000003814697265625</AltitudeMeters>
            <DistanceMeters>NAN</DistanceMeters>
          </Trackpoint>
          <Trackpoint>
            <Time>2022-07-08T12:34:44.000Z</Time>
            <Position>
              <LatitudeDegrees>43.3741070888936519622802734375</LatitudeDegrees>
              <LongitudeDegrees>-1.76978914998471736907958984375</LongitudeDegrees>
            </Position>
            <AltitudeMeters>14.3999996185302734375</AltitudeMeters>
            <DistanceMeters>NAN</DistanceMeters>
          </Trackpoint>
          <Trackpoint>
            <Time>2022-07-08T12:34:45.000Z</Time>
            <Position>
              <LatitudeDegrees>43.37410130538046360015869140625</LatitudeDegrees>
              <LongitudeDegrees>-1.76982787437736988067626953125</LongitudeDegrees>
            </Position>
            <AltitudeMeters>14.3999996185302734375</AltitudeMeters>
            <DistanceMeters>NAN</DistanceMeters>
          </Trackpoint>
          <Trackpoint>
            <Time>2022-07-08T12:34:49.000Z</Time>
            <Position>
              <LatitudeDegrees>43.3740631677210330963134765625</LatitudeDegrees>
              <LongitudeDegrees>-1.76997363567352294921875</LongitudeDegrees>
            </Position>
            <AltitudeMeters>14.3999996185302734375</AltitudeMeters>
            <DistanceMeters>NAN</DistanceMeters>
          </Trackpoint>
          <Trackpoint>
            <Time>2022-07-08T12:34:53.000Z</Time>
            <Position>
              <LatitudeDegrees>43.3740353398025035858154296875</LatitudeDegrees>
              <LongitudeDegrees>-1.77011654712259769439697265625</LongitudeDegrees>
            </Position>
            <AltitudeMeters>14.3999996185302734375</AltitudeMeters>
            <DistanceMeters>NAN</DistanceMeters>
          </Trackpoint>
          <Trackpoint>
            <Time>2022-07-08T12:35:03.000Z</Time>
            <Position>
              <LatitudeDegrees>43.373951017856597900390625</LatitudeDegrees>
              <LongitudeDegrees>-1.7704713530838489532470703125</LongitudeDegrees>
            </Position>
            <AltitudeMeters>14.3999996185302734375</AltitudeMeters>
            <DistanceMeters>NAN</DistanceMeters>
          </Trackpoint>
          <Trackpoint>
            <Time>2022-07-08T12:35:06.000Z</Time>
            <Position>
              <LatitudeDegrees>43.373929224908351898193359375</LatitudeDegrees>
              <LongitudeDegrees>-1.77056799642741680145263671875</LongitudeDegrees>
            </Position>
            <AltitudeMeters>14.6000003814697265625</AltitudeMeters>
            <DistanceMeters>NAN</DistanceMeters>
          </Trackpoint>
          <Trackpoint>
            <Time>2022-07-08T12:35:12.000Z</Time>
            <Position>
              <LatitudeDegrees>43.37389611639082431793212890625</LatitudeDegrees>
              <LongitudeDegrees>-1.7707902006804943084716796875</LongitudeDegrees>
            </Position>
            <AltitudeMeters>14.3999996185302734375</AltitudeMeters>
            <DistanceMeters>NAN</DistanceMeters>
          </Trackpoint>
          <Trackpoint>
            <Time>2022-07-08T12:35:16.000Z</Time>
            <Position>
              <LatitudeDegrees>43.37386786937713623046875</LatitudeDegrees>
              <LongitudeDegrees>-1.77092959173023700714111328125</LongitudeDegrees>
            </Position>
            <AltitudeMeters>14.19999980926513671875</AltitudeMeters>
            <DistanceMeters>NAN</DistanceMeters>
          </Trackpoint>
          <Trackpoint>
            <Time>2022-07-08T12:35:19.000Z</Time>
            <Position>
              <LatitudeDegrees>43.37383903563022613525390625</LatitudeDegrees>
              <LongitudeDegrees>-1.771038472652435302734375</LongitudeDegrees>
            </Position>
            <AltitudeMeters>14.19999980926513671875</AltitudeMeters>
            <DistanceMeters>NAN</DistanceMeters>
          </Trackpoint>
          <Trackpoint>
            <Time>2022-07-08T12:35:30.000Z</Time>
            <Position>
              <LatitudeDegrees>43.373758904635906219482421875</LatitudeDegrees>
              <LongitudeDegrees>-1.77142596803605556488037109375</LongitudeDegrees>
            </Position>
            <AltitudeMeters>14</AltitudeMeters>
            <DistanceMeters>NAN</DistanceMeters>
          </Trackpoint>
          <Trackpoint>
            <Time>2022-07-08T12:35:42.000Z</Time>
            <Position>
              <LatitudeDegrees>43.373658321797847747802734375</LatitudeDegrees>
              <LongitudeDegrees>-1.771864257752895355224609375</LongitudeDegrees>
            </Position>
            <AltitudeMeters>14.3999996185302734375</AltitudeMeters>
            <DistanceMeters>NAN</DistanceMeters>
          </Trackpoint>
          <Trackpoint>
            <Time>2022-07-08T12:35:49.000Z</Time>
            <Position>
              <LatitudeDegrees>43.37361968122422695159912109375</LatitudeDegrees>
              <LongitudeDegrees>-1.77209299989044666290283203125</LongitudeDegrees>
            </Position>
            <AltitudeMeters>14.19999980926513671875</AltitudeMeters>
            <DistanceMeters>NAN</DistanceMeters>
          </Trackpoint>
          <Trackpoint>
            <Time>2022-07-08T12:35:57.000Z</Time>
            <Position>
              <LatitudeDegrees>43.37358866818249225616455078125</LatitudeDegrees>
              <LongitudeDegrees>-1.7723230831325054168701171875</LongitudeDegrees>
            </Position>
            <AltitudeMeters>14</AltitudeMeters>
            <DistanceMeters>NAN</DistanceMeters>
          </Trackpoint>
          <Trackpoint>
            <Time>2022-07-08T12:35:58.000Z</Time>
            <Position>
              <LatitudeDegrees>43.3735850639641284942626953125</LatitudeDegrees>
              <LongitudeDegrees>-1.772347725927829742431640625</LongitudeDegrees>
            </Position>
            <AltitudeMeters>13.80000019073486328125</AltitudeMeters>
            <DistanceMeters>NAN</DistanceMeters>
          </Trackpoint>
          <Trackpoint>
            <Time>2022-07-08T12:36:07.000Z</Time>
            <Position>
              <LatitudeDegrees>43.37353133596479892730712890625</LatitudeDegrees>
              <LongitudeDegrees>-1.772579737007617950439453125</LongitudeDegrees>
            </Position>
            <AltitudeMeters>13.3999996185302734375</AltitudeMeters>
            <DistanceMeters>NAN</DistanceMeters>
          </Trackpoint>
          <Trackpoint>
            <Time>2022-07-08T12:36:09.000Z</Time>
            <Position>
              <LatitudeDegrees>43.3735220320522785186767578125</LatitudeDegrees>
              <LongitudeDegrees>-1.77264184691011905670166015625</LongitudeDegrees>
            </Position>
            <AltitudeMeters>13.6000003814697265625</AltitudeMeters>
            <DistanceMeters>NAN</DistanceMeters>
          </Trackpoint>
          <Trackpoint>
            <Time>2022-07-08T12:36:18.000Z</Time>
            <Position>
              <LatitudeDegrees>43.373464532196521759033203125</LatitudeDegrees>
              <LongitudeDegrees>-1.772932112216949462890625</LongitudeDegrees>
            </Position>
            <AltitudeMeters>13.80000019073486328125</AltitudeMeters>
            <DistanceMeters>NAN</DistanceMeters>
          </Trackpoint>
          <Trackpoint>
            <Time>2022-07-08T12:36:26.000Z</Time>
            <Position>
              <LatitudeDegrees>43.37342999875545501708984375</LatitudeDegrees>
              <LongitudeDegrees>-1.77320125512778759002685546875</LongitudeDegrees>
            </Position>
            <AltitudeMeters>13.6000003814697265625</AltitudeMeters>
            <DistanceMeters>NAN</DistanceMeters>
          </Trackpoint>
          <Trackpoint>
            <Time>2022-07-08T12:36:33.000Z</Time>
            <Position>
              <LatitudeDegrees>43.373385407030582427978515625</LatitudeDegrees>
              <LongitudeDegrees>-1.77340912632644176483154296875</LongitudeDegrees>
            </Position>
            <AltitudeMeters>13.6000003814697265625</AltitudeMeters>
            <DistanceMeters>NAN</DistanceMeters>
          </Trackpoint>
          <Trackpoint>
            <Time>2022-07-08T12:36:40.000Z</Time>
            <Position>
              <LatitudeDegrees>43.37332363240420818328857421875</LatitudeDegrees>
              <LongitudeDegrees>-1.773619093000888824462890625</LongitudeDegrees>
            </Position>
            <AltitudeMeters>13.80000019073486328125</AltitudeMeters>
            <DistanceMeters>NAN</DistanceMeters>
          </Trackpoint>
          <Trackpoint>
            <Time>2022-07-08T12:36:50.000Z</Time>
            <Position>
              <LatitudeDegrees>43.37324081920087337493896484375</LatitudeDegrees>
              <LongitudeDegrees>-1.77390650846064090728759765625</LongitudeDegrees>
            </Position>
            <AltitudeMeters>14.19999980926513671875</AltitudeMeters>
            <DistanceMeters>NAN</DistanceMeters>
          </Trackpoint>
          <Trackpoint>
            <Time>2022-07-08T12:36:54.000Z</Time>
            <Position>
              <LatitudeDegrees>43.373204357922077178955078125</LatitudeDegrees>
              <LongitudeDegrees>-1.77398697473108768463134765625</LongitudeDegrees>
            </Position>
            <AltitudeMeters>14.19999980926513671875</AltitudeMeters>
            <DistanceMeters>NAN</DistanceMeters>
          </Trackpoint>
          <Trackpoint>
            <Time>2022-07-08T12:36:56.000Z</Time>
            <Position>
              <LatitudeDegrees>43.3731709979474544525146484375</LatitudeDegrees>
              <LongitudeDegrees>-1.774018742144107818603515625</LongitudeDegrees>
            </Position>
            <AltitudeMeters>14.19999980926513671875</AltitudeMeters>
            <DistanceMeters>NAN</DistanceMeters>
          </Trackpoint>
          <Trackpoint>
            <Time>2022-07-08T12:37:01.000Z</Time>
            <Position>
              <LatitudeDegrees>43.37306748144328594207763671875</LatitudeDegrees>
              <LongitudeDegrees>-1.77402905188500881195068359375</LongitudeDegrees>
            </Position>
            <AltitudeMeters>13.80000019073486328125</AltitudeMeters>
            <DistanceMeters>NAN</DistanceMeters>
          </Trackpoint>
          <Trackpoint>
            <Time>2022-07-08T12:37:09.000Z</Time>
            <Position>
              <LatitudeDegrees>43.37290185503661632537841796875</LatitudeDegrees>
              <LongitudeDegrees>-1.77398429252207279205322265625</LongitudeDegrees>
            </Position>
            <AltitudeMeters>13.6000003814697265625</AltitudeMeters>
            <DistanceMeters>NAN</DistanceMeters>
          </Trackpoint>
          <Trackpoint>
            <Time>2022-07-08T12:37:15.000Z</Time>
            <Position>
              <LatitudeDegrees>43.37280546315014362335205078125</LatitudeDegrees>
              <LongitudeDegrees>-1.77392427809536457061767578125</LongitudeDegrees>
            </Position>
            <AltitudeMeters>14</AltitudeMeters>
            <DistanceMeters>NAN</DistanceMeters>
          </Trackpoint>
          <Trackpoint>
            <Time>2022-07-08T12:37:19.000Z</Time>
            <Position>
              <LatitudeDegrees>43.37273824028670787811279296875</LatitudeDegrees>
              <LongitudeDegrees>-1.77387884818017482757568359375</LongitudeDegrees>
            </Position>
            <AltitudeMeters>14</AltitudeMeters>
            <DistanceMeters>NAN</DistanceMeters>
          </Trackpoint>
          <Trackpoint>
            <Time>2022-07-08T12:37:23.000Z</Time>
            <Position>
              <LatitudeDegrees>43.3726821653544902801513671875</LatitudeDegrees>
              <LongitudeDegrees>-1.7738167382776737213134765625</LongitudeDegrees>
            </Position>
            <AltitudeMeters>13.80000019073486328125</AltitudeMeters>
            <DistanceMeters>NAN</DistanceMeters>
          </Trackpoint>
          <Trackpoint>
            <Time>2022-07-08T12:37:33.000Z</Time>
            <Position>
              <LatitudeDegrees>43.37246951647102832794189453125</LatitudeDegrees>
              <LongitudeDegrees>-1.773683466017246246337890625</LongitudeDegrees>
            </Position>
            <AltitudeMeters>13.6000003814697265625</AltitudeMeters>
            <DistanceMeters>NAN</DistanceMeters>
          </Trackpoint>
          <Trackpoint>
            <Time>2022-07-08T12:37:38.000Z</Time>
            <Position>
              <LatitudeDegrees>43.3724112622439861297607421875</LatitudeDegrees>
              <LongitudeDegrees>-1.773660667240619659423828125</LongitudeDegrees>
            </Position>
            <AltitudeMeters>13.3999996185302734375</AltitudeMeters>
            <DistanceMeters>NAN</DistanceMeters>
          </Trackpoint>
          <Trackpoint>
            <Time>2022-07-08T12:37:42.000Z</Time>
            <Position>
              <LatitudeDegrees>43.37235384620726108551025390625</LatitudeDegrees>
              <LongitudeDegrees>-1.7736547999083995819091796875</LongitudeDegrees>
            </Position>
            <AltitudeMeters>13.3999996185302734375</AltitudeMeters>
            <DistanceMeters>NAN</DistanceMeters>
          </Trackpoint>
          <Trackpoint>
            <Time>2022-07-08T12:37:43.000Z</Time>
            <Position>
              <LatitudeDegrees>43.3723425306379795074462890625</LatitudeDegrees>
              <LongitudeDegrees>-1.7736631818115711212158203125</LongitudeDegrees>
            </Position>
            <AltitudeMeters>13.3999996185302734375</AltitudeMeters>
            <DistanceMeters>NAN</DistanceMeters>
          </Trackpoint>
          <Trackpoint>
            <Time>2022-07-08T12:37:44.000Z</Time>
            <Position>
              <LatitudeDegrees>43.37234244681894779205322265625</LatitudeDegrees>
              <LongitudeDegrees>-1.77367382682859897613525390625</LongitudeDegrees>
            </Position>
            <AltitudeMeters>13.3999996185302734375</AltitudeMeters>
            <DistanceMeters>NAN</DistanceMeters>
          </Trackpoint>
          <Trackpoint>
            <Time>2022-07-08T12:37:47.000Z</Time>
            <Position>
              <LatitudeDegrees>43.372363485395908355712890625</LatitudeDegrees>
              <LongitudeDegrees>-1.7736859805881977081298828125</LongitudeDegrees>
            </Position>
            <AltitudeMeters>13.3999996185302734375</AltitudeMeters>
            <DistanceMeters>NAN</DistanceMeters>
          </Trackpoint>
          <Trackpoint>
            <Time>2022-07-08T12:37:49.000Z</Time>
            <Position>
              <LatitudeDegrees>43.37237815372645854949951171875</LatitudeDegrees>
              <LongitudeDegrees>-1.7737087793648242950439453125</LongitudeDegrees>
            </Position>
            <AltitudeMeters>13.19999980926513671875</AltitudeMeters>
            <DistanceMeters>NAN</DistanceMeters>
          </Trackpoint>
          <Trackpoint>
            <Time>2022-07-08T12:37:52.000Z</Time>
            <Position>
              <LatitudeDegrees>43.37237530387938022613525390625</LatitudeDegrees>
              <LongitudeDegrees>-1.7737855575978755950927734375</LongitudeDegrees>
            </Position>
            <AltitudeMeters>13.3999996185302734375</AltitudeMeters>
            <DistanceMeters>NAN</DistanceMeters>
          </Trackpoint>
          <Trackpoint>
            <Time>2022-07-08T12:37:59.000Z</Time>
            <Position>
              <LatitudeDegrees>43.37235133163630962371826171875</LatitudeDegrees>
              <LongitudeDegrees>-1.77403609268367290496826171875</LongitudeDegrees>
            </Position>
            <AltitudeMeters>13.3999996185302734375</AltitudeMeters>
            <DistanceMeters>NAN</DistanceMeters>
          </Trackpoint>
          <Trackpoint>
            <Time>2022-07-08T12:38:04.000Z</Time>
            <Position>
              <LatitudeDegrees>43.3723321370780467987060546875</LatitudeDegrees>
              <LongitudeDegrees>-1.7742343246936798095703125</LongitudeDegrees>
            </Position>
            <AltitudeMeters>13.3999996185302734375</AltitudeMeters>
            <DistanceMeters>NAN</DistanceMeters>
          </Trackpoint>
          <Trackpoint>
            <Time>2022-07-08T12:38:06.000Z</Time>
            <Position>
              <LatitudeDegrees>43.37232400663197040557861328125</LatitudeDegrees>
              <LongitudeDegrees>-1.77431956864893436431884765625</LongitudeDegrees>
            </Position>
            <AltitudeMeters>13.3999996185302734375</AltitudeMeters>
            <DistanceMeters>NAN</DistanceMeters>
          </Trackpoint>
          <Trackpoint>
            <Time>2022-07-08T12:38:09.000Z</Time>
            <Position>
              <LatitudeDegrees>43.37231562472879886627197265625</LatitudeDegrees>
              <LongitudeDegrees>-1.77443507127463817596435546875</LongitudeDegrees>
            </Position>
            <AltitudeMeters>13.19999980926513671875</AltitudeMeters>
            <DistanceMeters>NAN</DistanceMeters>
          </Trackpoint>
          <Trackpoint>
            <Time>2022-07-08T12:38:15.000Z</Time>
            <Position>
              <LatitudeDegrees>43.37230615317821502685546875</LatitudeDegrees>
              <LongitudeDegrees>-1.77463757805526256561279296875</LongitudeDegrees>
            </Position>
            <AltitudeMeters>13.19999980926513671875</AltitudeMeters>
            <DistanceMeters>NAN</DistanceMeters>
          </Trackpoint>
          <Trackpoint>
            <Time>2022-07-08T12:38:24.000Z</Time>
            <Position>
              <LatitudeDegrees>43.3722476474940776824951171875</LatitudeDegrees>
              <LongitudeDegrees>-1.7749496363103389739990234375</LongitudeDegrees>
            </Position>
            <AltitudeMeters>13.19999980926513671875</AltitudeMeters>
            <DistanceMeters>NAN</DistanceMeters>
          </Trackpoint>
          <Trackpoint>
            <Time>2022-07-08T12:38:26.000Z</Time>
            <Position>
              <LatitudeDegrees>43.37222577072679996490478515625</LatitudeDegrees>
              <LongitudeDegrees>-1.77501627244055271148681640625</LongitudeDegrees>
            </Position>
            <AltitudeMeters>13.3999996185302734375</AltitudeMeters>
            <DistanceMeters>NAN</DistanceMeters>
          </Trackpoint>
          <Trackpoint>
            <Time>2022-07-08T12:38:28.000Z</Time>
            <Position>
              <LatitudeDegrees>43.37221135385334491729736328125</LatitudeDegrees>
              <LongitudeDegrees>-1.775089614093303680419921875</LongitudeDegrees>
            </Position>
            <AltitudeMeters>13.3999996185302734375</AltitudeMeters>
            <DistanceMeters>NAN</DistanceMeters>
          </Trackpoint>
          <Trackpoint>
            <Time>2022-07-08T12:38:29.000Z</Time>
            <Position>
              <LatitudeDegrees>43.37220825254917144775390625</LatitudeDegrees>
              <LongitudeDegrees>-1.77512942813336849212646484375</LongitudeDegrees>
            </Position>
            <AltitudeMeters>13.3999996185302734375</AltitudeMeters>
            <DistanceMeters>NAN</DistanceMeters>
          </Trackpoint>
          <Trackpoint>
            <Time>2022-07-08T12:38:33.000Z</Time>
            <Position>
              <LatitudeDegrees>43.37219660170376300811767578125</LatitudeDegrees>
              <LongitudeDegrees>-1.77527904510498046875</LongitudeDegrees>
            </Position>
            <AltitudeMeters>13</AltitudeMeters>
            <DistanceMeters>NAN</DistanceMeters>
          </Trackpoint>
          <Trackpoint>
            <Time>2022-07-08T12:38:38.000Z</Time>
            <Position>
              <LatitudeDegrees>43.372177742421627044677734375</LatitudeDegrees>
              <LongitudeDegrees>-1.7754820547997951507568359375</LongitudeDegrees>
            </Position>
            <AltitudeMeters>13.3999996185302734375</AltitudeMeters>
            <DistanceMeters>NAN</DistanceMeters>
          </Trackpoint>
          <Trackpoint>
            <Time>2022-07-08T12:38:39.000Z</Time>
            <Position>
              <LatitudeDegrees>43.372177071869373321533203125</LatitudeDegrees>
              <LongitudeDegrees>-1.7755212821066379547119140625</LongitudeDegrees>
            </Position>
            <AltitudeMeters>13.6000003814697265625</AltitudeMeters>
            <DistanceMeters>NAN</DistanceMeters>
          </Trackpoint>
          <Trackpoint>
            <Time>2022-07-08T12:38:42.000Z</Time>
            <Position>
              <LatitudeDegrees>43.3722116053104400634765625</LatitudeDegrees>
              <LongitudeDegrees>-1.77561725489795207977294921875</LongitudeDegrees>
            </Position>
            <AltitudeMeters>13.80000019073486328125</AltitudeMeters>
            <DistanceMeters>NAN</DistanceMeters>
          </Trackpoint>
          <Trackpoint>
            <Time>2022-07-08T12:38:47.000Z</Time>
            <Position>
              <LatitudeDegrees>43.3723193965852260589599609375</LatitudeDegrees>
              <LongitudeDegrees>-1.7757237888872623443603515625</LongitudeDegrees>
            </Position>
            <AltitudeMeters>14</AltitudeMeters>
            <DistanceMeters>NAN</DistanceMeters>
          </Trackpoint>
          <Trackpoint>
            <Time>2022-07-08T12:38:51.000Z</Time>
            <Position>
              <LatitudeDegrees>43.37242542766034603118896484375</LatitudeDegrees>
              <LongitudeDegrees>-1.77574281580746173858642578125</LongitudeDegrees>
            </Position>
            <AltitudeMeters>14</AltitudeMeters>
            <DistanceMeters>NAN</DistanceMeters>
          </Trackpoint>
          <Trackpoint>
            <Time>2022-07-08T12:38:53.000Z</Time>
            <Position>
              <LatitudeDegrees>43.37247353978455066680908203125</LatitudeDegrees>
              <LongitudeDegrees>-1.7757502757012844085693359375</LongitudeDegrees>
            </Position>
            <AltitudeMeters>13.6000003814697265625</AltitudeMeters>
            <DistanceMeters>NAN</DistanceMeters>
          </Trackpoint>
          <Trackpoint>
            <Time>2022-07-08T12:38:55.000Z</Time>
            <Position>
              <LatitudeDegrees>43.37252601049840450286865234375</LatitudeDegrees>
              <LongitudeDegrees>-1.775766871869564056396484375</LongitudeDegrees>
            </Position>
            <AltitudeMeters>13.19999980926513671875</AltitudeMeters>
            <DistanceMeters>NAN</DistanceMeters>
          </Trackpoint>
          <Trackpoint>
            <Time>2022-07-08T12:39:01.000Z</Time>
            <Position>
              <LatitudeDegrees>43.3726664073765277862548828125</LatitudeDegrees>
              <LongitudeDegrees>-1.7757636867463588714599609375</LongitudeDegrees>
            </Position>
            <AltitudeMeters>13.3999996185302734375</AltitudeMeters>
            <DistanceMeters>NAN</DistanceMeters>
          </Trackpoint>
          <Trackpoint>
            <Time>2022-07-08T12:39:10.000Z</Time>
            <Position>
              <LatitudeDegrees>43.372888527810573577880859375</LatitudeDegrees>
              <LongitudeDegrees>-1.77571959793567657470703125</LongitudeDegrees>
            </Position>
            <AltitudeMeters>13.19999980926513671875</AltitudeMeters>
            <DistanceMeters>NAN</DistanceMeters>
          </Trackpoint>
          <Trackpoint>
            <Time>2022-07-08T12:39:15.000Z</Time>
            <Position>
              <LatitudeDegrees>43.372960276901721954345703125</LatitudeDegrees>
              <LongitudeDegrees>-1.7758287303149700164794921875</LongitudeDegrees>
            </Position>
            <AltitudeMeters>13.6000003814697265625</AltitudeMeters>
            <DistanceMeters>NAN</DistanceMeters>
          </Trackpoint>
          <Trackpoint>
            <Time>2022-07-08T12:39:21.000Z</Time>
            <Position>
              <LatitudeDegrees>43.37300277315080165863037109375</LatitudeDegrees>
              <LongitudeDegrees>-1.77598957903683185577392578125</LongitudeDegrees>
            </Position>
            <AltitudeMeters>13.80000019073486328125</AltitudeMeters>
            <DistanceMeters>NAN</DistanceMeters>
          </Trackpoint>
          <Trackpoint>
            <Time>2022-07-08T12:39:25.000Z</Time>
            <Position>
              <LatitudeDegrees>43.37297611869871616363525390625</LatitudeDegrees>
              <LongitudeDegrees>-1.7761130444705486297607421875</LongitudeDegrees>
            </Position>
            <AltitudeMeters>13.80000019073486328125</AltitudeMeters>
            <DistanceMeters>NAN</DistanceMeters>
          </Trackpoint>
          <Trackpoint>
            <Time>2022-07-08T12:39:29.000Z</Time>
            <Position>
              <LatitudeDegrees>43.37294544093310832977294921875</LatitudeDegrees>
              <LongitudeDegrees>-1.7762605659663677215576171875</LongitudeDegrees>
            </Position>
            <AltitudeMeters>14.19999980926513671875</AltitudeMeters>
            <DistanceMeters>NAN</DistanceMeters>
          </Trackpoint>
          <Trackpoint>
            <Time>2022-07-08T12:39:36.000Z</Time>
            <Position>
              <LatitudeDegrees>43.372929431498050689697265625</LatitudeDegrees>
              <LongitudeDegrees>-1.77651797421276569366455078125</LongitudeDegrees>
            </Position>
            <AltitudeMeters>14.80000019073486328125</AltitudeMeters>
            <DistanceMeters>NAN</DistanceMeters>
          </Trackpoint>
          <Trackpoint>
            <Time>2022-07-08T12:39:37.000Z</Time>
            <Position>
              <LatitudeDegrees>43.3729269169270992279052734375</LatitudeDegrees>
              <LongitudeDegrees>-1.7765539325773715972900390625</LongitudeDegrees>
            </Position>
            <AltitudeMeters>15</AltitudeMeters>
            <DistanceMeters>NAN</DistanceMeters>
          </Trackpoint>
          <Trackpoint>
            <Time>2022-07-08T12:39:43.000Z</Time>
            <Position>
              <LatitudeDegrees>43.37289682589471340179443359375</LatitudeDegrees>
              <LongitudeDegrees>-1.7767810821533203125</LongitudeDegrees>
            </Position>
            <AltitudeMeters>14.80000019073486328125</AltitudeMeters>
            <DistanceMeters>NAN</DistanceMeters>
          </Trackpoint>
          <Trackpoint>
            <Time>2022-07-08T12:39:47.000Z</Time>
            <Position>
              <LatitudeDegrees>43.37287251837551593780517578125</LatitudeDegrees>
              <LongitudeDegrees>-1.77693522535264492034912109375</LongitudeDegrees>
            </Position>
            <AltitudeMeters>14.6000003814697265625</AltitudeMeters>
            <DistanceMeters>NAN</DistanceMeters>
          </Trackpoint>
          <Trackpoint>
            <Time>2022-07-08T12:39:52.000Z</Time>
            <Position>
              <LatitudeDegrees>43.37283681146800518035888671875</LatitudeDegrees>
              <LongitudeDegrees>-1.777127087116241455078125</LongitudeDegrees>
            </Position>
            <AltitudeMeters>14.3999996185302734375</AltitudeMeters>
            <DistanceMeters>NAN</DistanceMeters>
          </Trackpoint>
          <Trackpoint>
            <Time>2022-07-08T12:39:54.000Z</Time>
            <Position>
              <LatitudeDegrees>43.37283320724964141845703125</LatitudeDegrees>
              <LongitudeDegrees>-1.7772006802260875701904296875</LongitudeDegrees>
            </Position>
            <AltitudeMeters>14.3999996185302734375</AltitudeMeters>
            <DistanceMeters>NAN</DistanceMeters>
          </Trackpoint>
          <Trackpoint>
            <Time>2022-07-08T12:39:55.000Z</Time>
            <Position>
              <LatitudeDegrees>43.37283178232610225677490234375</LatitudeDegrees>
              <LongitudeDegrees>-1.77723948843777179718017578125</LongitudeDegrees>
            </Position>
            <AltitudeMeters>14.6000003814697265625</AltitudeMeters>
            <DistanceMeters>NAN</DistanceMeters>
          </Trackpoint>
          <Trackpoint>
            <Time>2022-07-08T12:40:03.000Z</Time>
            <Position>
              <LatitudeDegrees>43.3728062175214290618896484375</LatitudeDegrees>
              <LongitudeDegrees>-1.77751692943274974822998046875</LongitudeDegrees>
            </Position>
            <AltitudeMeters>14.6000003814697265625</AltitudeMeters>
            <DistanceMeters>NAN</DistanceMeters>
          </Trackpoint>
          <Trackpoint>
            <Time>2022-07-08T12:40:09.000Z</Time>
            <Position>
              <LatitudeDegrees>43.37279255501925945281982421875</LatitudeDegrees>
              <LongitudeDegrees>-1.7777223698794841766357421875</LongitudeDegrees>
            </Position>
            <AltitudeMeters>14.80000019073486328125</AltitudeMeters>
            <DistanceMeters>NAN</DistanceMeters>
          </Trackpoint>
          <Trackpoint>
            <Time>2022-07-08T12:40:11.000Z</Time>
            <Position>
              <LatitudeDegrees>43.37278568185865879058837890625</LatitudeDegrees>
              <LongitudeDegrees>-1.77778380922973155975341796875</LongitudeDegrees>
            </Position>
            <AltitudeMeters>15</AltitudeMeters>
            <DistanceMeters>NAN</DistanceMeters>
          </Trackpoint>
          <Trackpoint>
            <Time>2022-07-08T12:40:12.000Z</Time>
            <Position>
              <LatitudeDegrees>43.3727830834686756134033203125</LatitudeDegrees>
              <LongitudeDegrees>-1.7778110504150390625</LongitudeDegrees>
            </Position>
            <AltitudeMeters>15</AltitudeMeters>
            <DistanceMeters>NAN</DistanceMeters>
          </Trackpoint>
          <Trackpoint>
            <Time>2022-07-08T12:40:15.000Z</Time>
            <Position>
              <LatitudeDegrees>43.37278358638286590576171875</LatitudeDegrees>
              <LongitudeDegrees>-1.77783695049583911895751953125</LongitudeDegrees>
            </Position>
            <AltitudeMeters>15</AltitudeMeters>
            <DistanceMeters>NAN</DistanceMeters>
          </Trackpoint>
          <Trackpoint>
            <Time>2022-07-08T12:40:16.000Z</Time>
            <Position>
              <LatitudeDegrees>43.37278358638286590576171875</LatitudeDegrees>
              <LongitudeDegrees>-1.77783695049583911895751953125</LongitudeDegrees>
            </Position>
            <AltitudeMeters>15</AltitudeMeters>
            <DistanceMeters>NAN</DistanceMeters>
          </Trackpoint>
          <Trackpoint>
            <Time>2022-07-08T12:44:24.000Z</Time>
            <Position>
              <LatitudeDegrees>43.37277042679488658905029296875</LatitudeDegrees>
              <LongitudeDegrees>-1.777909286320209503173828125</LongitudeDegrees>
            </Position>
            <AltitudeMeters>14.80000019073486328125</AltitudeMeters>
            <DistanceMeters>NAN</DistanceMeters>
          </Trackpoint>
          <Trackpoint>
            <Time>2022-07-08T12:44:27.000Z</Time>
            <Position>
              <LatitudeDegrees>43.37274871766567230224609375</LatitudeDegrees>
              <LongitudeDegrees>-1.7779915966093540191650390625</LongitudeDegrees>
            </Position>
            <AltitudeMeters>15</AltitudeMeters>
            <DistanceMeters>NAN</DistanceMeters>
          </Trackpoint>
          <Trackpoint>
            <Time>2022-07-08T12:44:29.000Z</Time>
            <Position>
              <LatitudeDegrees>43.3727455325424671173095703125</LatitudeDegrees>
              <LongitudeDegrees>-1.7780559696257114410400390625</LongitudeDegrees>
            </Position>
            <AltitudeMeters>15</AltitudeMeters>
            <DistanceMeters>NAN</DistanceMeters>
          </Trackpoint>
          <Trackpoint>
            <Time>2022-07-08T12:44:31.000Z</Time>
            <Position>
              <LatitudeDegrees>43.3727502264082431793212890625</LatitudeDegrees>
              <LongitudeDegrees>-1.778108775615692138671875</LongitudeDegrees>
            </Position>
            <AltitudeMeters>15</AltitudeMeters>
            <DistanceMeters>NAN</DistanceMeters>
          </Trackpoint>
          <Trackpoint>
            <Time>2022-07-08T12:44:33.000Z</Time>
            <Position>
              <LatitudeDegrees>43.3727559261023998260498046875</LatitudeDegrees>
              <LongitudeDegrees>-1.7781441472470760345458984375</LongitudeDegrees>
            </Position>
            <AltitudeMeters>15</AltitudeMeters>
            <DistanceMeters>NAN</DistanceMeters>
          </Trackpoint>
          <Trackpoint>
            <Time>2022-07-08T12:44:34.000Z</Time>
            <Position>
              <LatitudeDegrees>43.37275668047368526458740234375</LatitudeDegrees>
              <LongitudeDegrees>-1.77814858965575695037841796875</LongitudeDegrees>
            </Position>
            <AltitudeMeters>15</AltitudeMeters>
            <DistanceMeters>NAN</DistanceMeters>
          </Trackpoint>
          <Trackpoint>
            <Time>2022-07-08T12:44:36.000Z</Time>
            <Position>
              <LatitudeDegrees>43.37275668047368526458740234375</LatitudeDegrees>
              <LongitudeDegrees>-1.77814858965575695037841796875</LongitudeDegrees>
            </Position>
            <AltitudeMeters>15</AltitudeMeters>
            <DistanceMeters>NAN</DistanceMeters>
          </Trackpoint>
          <Trackpoint>
            <Time>2022-07-08T12:44:57.000Z</Time>
            <Position>
              <LatitudeDegrees>43.37273689918220043182373046875</LatitudeDegrees>
              <LongitudeDegrees>-1.7782128788530826568603515625</LongitudeDegrees>
            </Position>
            <AltitudeMeters>14.3999996185302734375</AltitudeMeters>
            <DistanceMeters>NAN</DistanceMeters>
          </Trackpoint>
          <Trackpoint>
            <Time>2022-07-08T12:44:58.000Z</Time>
            <Position>
              <LatitudeDegrees>43.37273203767836093902587890625</LatitudeDegrees>
              <LongitudeDegrees>-1.778242886066436767578125</LongitudeDegrees>
            </Position>
            <AltitudeMeters>14.19999980926513671875</AltitudeMeters>
            <DistanceMeters>NAN</DistanceMeters>
          </Trackpoint>
          <Trackpoint>
            <Time>2022-07-08T12:44:59.000Z</Time>
            <Position>
              <LatitudeDegrees>43.3727257512509822845458984375</LatitudeDegrees>
              <LongitudeDegrees>-1.7782782576978206634521484375</LongitudeDegrees>
            </Position>
            <AltitudeMeters>14.19999980926513671875</AltitudeMeters>
            <DistanceMeters>NAN</DistanceMeters>
          </Trackpoint>
          <Trackpoint>
            <Time>2022-07-08T12:45:03.000Z</Time>
            <Position>
              <LatitudeDegrees>43.372720889747142791748046875</LatitudeDegrees>
              <LongitudeDegrees>-1.77842301316559314727783203125</LongitudeDegrees>
            </Position>
            <AltitudeMeters>14.80000019073486328125</AltitudeMeters>
            <DistanceMeters>NAN</DistanceMeters>
          </Trackpoint>
          <Trackpoint>
            <Time>2022-07-08T12:45:05.000Z</Time>
            <Position>
              <LatitudeDegrees>43.37271695025265216827392578125</LatitudeDegrees>
              <LongitudeDegrees>-1.7784936726093292236328125</LongitudeDegrees>
            </Position>
            <AltitudeMeters>15</AltitudeMeters>
            <DistanceMeters>NAN</DistanceMeters>
          </Trackpoint>
          <Trackpoint>
            <Time>2022-07-08T12:45:09.000Z</Time>
            <Position>
              <LatitudeDegrees>43.372701443731784820556640625</LatitudeDegrees>
              <LongitudeDegrees>-1.7786370031535625457763671875</LongitudeDegrees>
            </Position>
            <AltitudeMeters>14.80000019073486328125</AltitudeMeters>
            <DistanceMeters>NAN</DistanceMeters>
          </Trackpoint>
          <Trackpoint>
            <Time>2022-07-08T12:45:12.000Z</Time>
            <Position>
              <LatitudeDegrees>43.37267923168838024139404296875</LatitudeDegrees>
              <LongitudeDegrees>-1.77873280830681324005126953125</LongitudeDegrees>
            </Position>
            <AltitudeMeters>14.80000019073486328125</AltitudeMeters>
            <DistanceMeters>NAN</DistanceMeters>
          </Trackpoint>
          <Trackpoint>
            <Time>2022-07-08T12:45:18.000Z</Time>
            <Position>
              <LatitudeDegrees>43.37264503352344036102294921875</LatitudeDegrees>
              <LongitudeDegrees>-1.77892676554620265960693359375</LongitudeDegrees>
            </Position>
            <AltitudeMeters>14.80000019073486328125</AltitudeMeters>
            <DistanceMeters>NAN</DistanceMeters>
          </Trackpoint>
          <Trackpoint>
            <Time>2022-07-08T12:45:26.000Z</Time>
            <Position>
              <LatitudeDegrees>43.37261083535850048065185546875</LatitudeDegrees>
              <LongitudeDegrees>-1.77922180853784084320068359375</LongitudeDegrees>
            </Position>
            <AltitudeMeters>14.80000019073486328125</AltitudeMeters>
            <DistanceMeters>NAN</DistanceMeters>
          </Trackpoint>
          <Trackpoint>
            <Time>2022-07-08T12:45:33.000Z</Time>
            <Position>
              <LatitudeDegrees>43.37258250452578067779541015625</LatitudeDegrees>
              <LongitudeDegrees>-1.77949614822864532470703125</LongitudeDegrees>
            </Position>
            <AltitudeMeters>15</AltitudeMeters>
            <DistanceMeters>NAN</DistanceMeters>
          </Trackpoint>
          <Trackpoint>
            <Time>2022-07-08T12:45:35.000Z</Time>
            <Position>
              <LatitudeDegrees>43.372573368251323699951171875</LatitudeDegrees>
              <LongitudeDegrees>-1.77957753650844097137451171875</LongitudeDegrees>
            </Position>
            <AltitudeMeters>15</AltitudeMeters>
            <DistanceMeters>NAN</DistanceMeters>
          </Trackpoint>
          <Trackpoint>
            <Time>2022-07-08T12:45:38.000Z</Time>
            <Position>
              <LatitudeDegrees>43.37255400605499744415283203125</LatitudeDegrees>
              <LongitudeDegrees>-1.77969236858189105987548828125</LongitudeDegrees>
            </Position>
            <AltitudeMeters>15</AltitudeMeters>
            <DistanceMeters>NAN</DistanceMeters>
          </Trackpoint>
          <Trackpoint>
            <Time>2022-07-08T12:45:43.000Z</Time>
            <Position>
              <LatitudeDegrees>43.372535817325115203857421875</LatitudeDegrees>
              <LongitudeDegrees>-1.77987677045166492462158203125</LongitudeDegrees>
            </Position>
            <AltitudeMeters>15.3999996185302734375</AltitudeMeters>
            <DistanceMeters>NAN</DistanceMeters>
          </Trackpoint>
          <Trackpoint>
            <Time>2022-07-08T12:45:50.000Z</Time>
            <Position>
              <LatitudeDegrees>43.3724980987608432769775390625</LatitudeDegrees>
              <LongitudeDegrees>-1.78015203215181827545166015625</LongitudeDegrees>
            </Position>
            <AltitudeMeters>15.3999996185302734375</AltitudeMeters>
            <DistanceMeters>NAN</DistanceMeters>
          </Trackpoint>
          <Trackpoint>
            <Time>2022-07-08T12:45:55.000Z</Time>
            <Position>
              <LatitudeDegrees>43.372470103204250335693359375</LatitudeDegrees>
              <LongitudeDegrees>-1.78033408708870410919189453125</LongitudeDegrees>
            </Position>
            <AltitudeMeters>15.19999980926513671875</AltitudeMeters>
            <DistanceMeters>NAN</DistanceMeters>
          </Trackpoint>
          <Trackpoint>
            <Time>2022-07-08T12:45:58.000Z</Time>
            <Position>
              <LatitudeDegrees>43.37244520895183086395263671875</LatitudeDegrees>
              <LongitudeDegrees>-1.7804441414773464202880859375</LongitudeDegrees>
            </Position>
            <AltitudeMeters>15.6000003814697265625</AltitudeMeters>
            <DistanceMeters>NAN</DistanceMeters>
          </Trackpoint>
          <Trackpoint>
            <Time>2022-07-08T12:46:04.000Z</Time>
            <Position>
              <LatitudeDegrees>43.37238955311477184295654296875</LatitudeDegrees>
              <LongitudeDegrees>-1.78065578453242778778076171875</LongitudeDegrees>
            </Position>
            <AltitudeMeters>15.3999996185302734375</AltitudeMeters>
            <DistanceMeters>NAN</DistanceMeters>
          </Trackpoint>
          <Trackpoint>
            <Time>2022-07-08T12:46:11.000Z</Time>
            <Position>
              <LatitudeDegrees>43.37230774573981761932373046875</LatitudeDegrees>
              <LongitudeDegrees>-1.780925430357456207275390625</LongitudeDegrees>
            </Position>
            <AltitudeMeters>15.3999996185302734375</AltitudeMeters>
            <DistanceMeters>NAN</DistanceMeters>
          </Trackpoint>
          <Trackpoint>
            <Time>2022-07-08T12:46:14.000Z</Time>
            <Position>
              <LatitudeDegrees>43.37228947319090366363525390625</LatitudeDegrees>
              <LongitudeDegrees>-1.78104118444025516510009765625</LongitudeDegrees>
            </Position>
            <AltitudeMeters>15.3999996185302734375</AltitudeMeters>
            <DistanceMeters>NAN</DistanceMeters>
          </Trackpoint>
          <Trackpoint>
            <Time>2022-07-08T12:46:20.000Z</Time>
            <Position>
              <LatitudeDegrees>43.37226533330976963043212890625</LatitudeDegrees>
              <LongitudeDegrees>-1.78127981722354888916015625</LongitudeDegrees>
            </Position>
            <AltitudeMeters>15.3999996185302734375</AltitudeMeters>
            <DistanceMeters>NAN</DistanceMeters>
          </Trackpoint>
          <Trackpoint>
            <Time>2022-07-08T12:46:24.000Z</Time>
            <Position>
              <LatitudeDegrees>43.37224370799958705902099609375</LatitudeDegrees>
              <LongitudeDegrees>-1.78143865428864955902099609375</LongitudeDegrees>
            </Position>
            <AltitudeMeters>15.19999980926513671875</AltitudeMeters>
            <DistanceMeters>NAN</DistanceMeters>
          </Trackpoint>
          <Trackpoint>
            <Time>2022-07-08T12:46:28.000Z</Time>
            <Position>
              <LatitudeDegrees>43.37221353314816951751708984375</LatitudeDegrees>
              <LongitudeDegrees>-1.7816078849136829376220703125</LongitudeDegrees>
            </Position>
            <AltitudeMeters>15.19999980926513671875</AltitudeMeters>
            <DistanceMeters>NAN</DistanceMeters>
          </Trackpoint>
          <Trackpoint>
            <Time>2022-07-08T12:46:33.000Z</Time>
            <Position>
              <LatitudeDegrees>43.37218453176319599151611328125</LatitudeDegrees>
              <LongitudeDegrees>-1.7818117327988147735595703125</LongitudeDegrees>
            </Position>
            <AltitudeMeters>15.19999980926513671875</AltitudeMeters>
            <DistanceMeters>NAN</DistanceMeters>
          </Trackpoint>
          <Trackpoint>
            <Time>2022-07-08T12:46:41.000Z</Time>
            <Position>
              <LatitudeDegrees>43.37213776074349880218505859375</LatitudeDegrees>
              <LongitudeDegrees>-1.78215421736240386962890625</LongitudeDegrees>
            </Position>
            <AltitudeMeters>15</AltitudeMeters>
            <DistanceMeters>NAN</DistanceMeters>
          </Trackpoint>
          <Trackpoint>
            <Time>2022-07-08T12:46:44.000Z</Time>
            <Position>
              <LatitudeDegrees>43.37211311794817447662353515625</LatitudeDegrees>
              <LongitudeDegrees>-1.78228019736707210540771484375</LongitudeDegrees>
            </Position>
            <AltitudeMeters>15</AltitudeMeters>
            <DistanceMeters>NAN</DistanceMeters>
          </Trackpoint>
          <Trackpoint>
            <Time>2022-07-08T12:46:51.000Z</Time>
            <Position>
              <LatitudeDegrees>43.37206299416720867156982421875</LatitudeDegrees>
              <LongitudeDegrees>-1.7825855500996112823486328125</LongitudeDegrees>
            </Position>
            <AltitudeMeters>15.6000003814697265625</AltitudeMeters>
            <DistanceMeters>NAN</DistanceMeters>
          </Trackpoint>
          <Trackpoint>
            <Time>2022-07-08T12:46:53.000Z</Time>
            <Position>
              <LatitudeDegrees>43.37205243296921253204345703125</LatitudeDegrees>
              <LongitudeDegrees>-1.7826806008815765380859375</LongitudeDegrees>
            </Position>
            <AltitudeMeters>15.80000019073486328125</AltitudeMeters>
            <DistanceMeters>NAN</DistanceMeters>
          </Trackpoint>
          <Trackpoint>
            <Time>2022-07-08T12:47:02.000Z</Time>
            <Position>
              <LatitudeDegrees>43.37198353372514247894287109375</LatitudeDegrees>
              <LongitudeDegrees>-1.7830653302371501922607421875</LongitudeDegrees>
            </Position>
            <AltitudeMeters>15.3999996185302734375</AltitudeMeters>
            <DistanceMeters>NAN</DistanceMeters>
          </Trackpoint>
          <Trackpoint>
            <Time>2022-07-08T12:47:12.000Z</Time>
            <Position>
              <LatitudeDegrees>43.37190574966371059417724609375</LatitudeDegrees>
              <LongitudeDegrees>-1.7834633029997348785400390625</LongitudeDegrees>
            </Position>
            <AltitudeMeters>15.19999980926513671875</AltitudeMeters>
            <DistanceMeters>NAN</DistanceMeters>
          </Trackpoint>
          <Trackpoint>
            <Time>2022-07-08T12:47:18.000Z</Time>
            <Position>
              <LatitudeDegrees>43.3718661032617092132568359375</LatitudeDegrees>
              <LongitudeDegrees>-1.7837147600948810577392578125</LongitudeDegrees>
            </Position>
            <AltitudeMeters>15.3999996185302734375</AltitudeMeters>
            <DistanceMeters>NAN</DistanceMeters>
          </Trackpoint>
          <Trackpoint>
            <Time>2022-07-08T12:47:21.000Z</Time>
            <Position>
              <LatitudeDegrees>43.37184087373316287994384765625</LatitudeDegrees>
              <LongitudeDegrees>-1.7838339507579803466796875</LongitudeDegrees>
            </Position>
            <AltitudeMeters>15.3999996185302734375</AltitudeMeters>
            <DistanceMeters>NAN</DistanceMeters>
          </Trackpoint>
          <Trackpoint>
            <Time>2022-07-08T12:47:22.000Z</Time>
            <Position>
              <LatitudeDegrees>43.3718298934400081634521484375</LatitudeDegrees>
              <LongitudeDegrees>-1.7838753573596477508544921875</LongitudeDegrees>
            </Position>
            <AltitudeMeters>15.3999996185302734375</AltitudeMeters>
            <DistanceMeters>NAN</DistanceMeters>
          </Trackpoint>
          <Trackpoint>
            <Time>2022-07-08T12:47:30.000Z</Time>
            <Position>
              <LatitudeDegrees>43.3717537857592105865478515625</LatitudeDegrees>
              <LongitudeDegrees>-1.78419613279402256011962890625</LongitudeDegrees>
            </Position>
            <AltitudeMeters>14.80000019073486328125</AltitudeMeters>
            <DistanceMeters>NAN</DistanceMeters>
          </Trackpoint>
          <Trackpoint>
            <Time>2022-07-08T12:47:33.000Z</Time>
            <Position>
              <LatitudeDegrees>43.3717313222587108612060546875</LatitudeDegrees>
              <LongitudeDegrees>-1.784314401447772979736328125</LongitudeDegrees>
            </Position>
            <AltitudeMeters>14.3999996185302734375</AltitudeMeters>
            <DistanceMeters>NAN</DistanceMeters>
          </Trackpoint>
          <Trackpoint>
            <Time>2022-07-08T12:47:40.000Z</Time>
            <Position>
              <LatitudeDegrees>43.37168027646839618682861328125</LatitudeDegrees>
              <LongitudeDegrees>-1.78459594957530498504638671875</LongitudeDegrees>
            </Position>
            <AltitudeMeters>14.80000019073486328125</AltitudeMeters>
            <DistanceMeters>NAN</DistanceMeters>
          </Trackpoint>
          <Trackpoint>
            <Time>2022-07-08T12:47:43.000Z</Time>
            <Position>
              <LatitudeDegrees>43.3716464973986148834228515625</LatitudeDegrees>
              <LongitudeDegrees>-1.78470692597329616546630859375</LongitudeDegrees>
            </Position>
            <AltitudeMeters>15.6000003814697265625</AltitudeMeters>
            <DistanceMeters>NAN</DistanceMeters>
          </Trackpoint>
          <Trackpoint>
            <Time>2022-07-08T12:47:45.000Z</Time>
            <Position>
              <LatitudeDegrees>43.37163149379193782806396484375</LatitudeDegrees>
              <LongitudeDegrees>-1.78477180190384387969970703125</LongitudeDegrees>
            </Position>
            <AltitudeMeters>15.80000019073486328125</AltitudeMeters>
            <DistanceMeters>NAN</DistanceMeters>
          </Trackpoint>
          <Trackpoint>
            <Time>2022-07-08T12:47:50.000Z</Time>
            <Position>
              <LatitudeDegrees>43.37159394286572933197021484375</LatitudeDegrees>
              <LongitudeDegrees>-1.784959472715854644775390625</LongitudeDegrees>
            </Position>
            <AltitudeMeters>15</AltitudeMeters>
            <DistanceMeters>NAN</DistanceMeters>
          </Trackpoint>
          <Trackpoint>
            <Time>2022-07-08T12:47:51.000Z</Time>
            <Position>
              <LatitudeDegrees>43.3715838007628917694091796875</LatitudeDegrees>
              <LongitudeDegrees>-1.784997694194316864013671875</LongitudeDegrees>
            </Position>
            <AltitudeMeters>14.80000019073486328125</AltitudeMeters>
            <DistanceMeters>NAN</DistanceMeters>
          </Trackpoint>
          <Trackpoint>
            <Time>2022-07-08T12:47:52.000Z</Time>
            <Position>
              <LatitudeDegrees>43.37157617323100566864013671875</LatitudeDegrees>
              <LongitudeDegrees>-1.78503599949181079864501953125</LongitudeDegrees>
            </Position>
            <AltitudeMeters>14.80000019073486328125</AltitudeMeters>
            <DistanceMeters>NAN</DistanceMeters>
          </Trackpoint>
          <Trackpoint>
            <Time>2022-07-08T12:47:55.000Z</Time>
            <Position>
              <LatitudeDegrees>43.37155840359628200531005859375</LatitudeDegrees>
              <LongitudeDegrees>-1.78514647297561168670654296875</LongitudeDegrees>
            </Position>
            <AltitudeMeters>14.6000003814697265625</AltitudeMeters>
            <DistanceMeters>NAN</DistanceMeters>
          </Trackpoint>
          <Trackpoint>
            <Time>2022-07-08T12:48:00.000Z</Time>
            <Position>
              <LatitudeDegrees>43.37151490151882171630859375</LatitudeDegrees>
              <LongitudeDegrees>-1.78535769693553447723388671875</LongitudeDegrees>
            </Position>
            <AltitudeMeters>14.3999996185302734375</AltitudeMeters>
            <DistanceMeters>NAN</DistanceMeters>
          </Trackpoint>
          <Trackpoint>
            <Time>2022-07-08T12:48:07.000Z</Time>
            <Position>
              <LatitudeDegrees>43.37144742719829082489013671875</LatitudeDegrees>
              <LongitudeDegrees>-1.78568107075989246368408203125</LongitudeDegrees>
            </Position>
            <AltitudeMeters>14.3999996185302734375</AltitudeMeters>
            <DistanceMeters>NAN</DistanceMeters>
          </Trackpoint>
          <Trackpoint>
            <Time>2022-07-08T12:48:16.000Z</Time>
            <Position>
              <LatitudeDegrees>43.371369056403636932373046875</LatitudeDegrees>
              <LongitudeDegrees>-1.7860922031104564666748046875</LongitudeDegrees>
            </Position>
            <AltitudeMeters>14.19999980926513671875</AltitudeMeters>
            <DistanceMeters>NAN</DistanceMeters>
          </Trackpoint>
          <Trackpoint>
            <Time>2022-07-08T12:48:22.000Z</Time>
            <Position>
              <LatitudeDegrees>43.371353633701801300048828125</LatitudeDegrees>
              <LongitudeDegrees>-1.786320023238658905029296875</LongitudeDegrees>
            </Position>
            <AltitudeMeters>14.3999996185302734375</AltitudeMeters>
            <DistanceMeters>NAN</DistanceMeters>
          </Trackpoint>
          <Trackpoint>
            <Time>2022-07-08T12:48:25.000Z</Time>
            <Position>
              <LatitudeDegrees>43.3713289909064769744873046875</LatitudeDegrees>
              <LongitudeDegrees>-1.78642295300960540771484375</LongitudeDegrees>
            </Position>
            <AltitudeMeters>14.3999996185302734375</AltitudeMeters>
            <DistanceMeters>NAN</DistanceMeters>
          </Trackpoint>
          <Trackpoint>
            <Time>2022-07-08T12:48:33.000Z</Time>
            <Position>
              <LatitudeDegrees>43.37130275554955005645751953125</LatitudeDegrees>
              <LongitudeDegrees>-1.7867575585842132568359375</LongitudeDegrees>
            </Position>
            <AltitudeMeters>14.3999996185302734375</AltitudeMeters>
            <DistanceMeters>NAN</DistanceMeters>
          </Trackpoint>
          <Trackpoint>
            <Time>2022-07-08T12:48:37.000Z</Time>
            <Position>
              <LatitudeDegrees>43.37131465785205364227294921875</LatitudeDegrees>
              <LongitudeDegrees>-1.7869471572339534759521484375</LongitudeDegrees>
            </Position>
            <AltitudeMeters>14.19999980926513671875</AltitudeMeters>
            <DistanceMeters>NAN</DistanceMeters>
          </Trackpoint>
          <Trackpoint>
            <Time>2022-07-08T12:48:39.000Z</Time>
            <Position>
              <LatitudeDegrees>43.3713004924356937408447265625</LatitudeDegrees>
              <LongitudeDegrees>-1.787054948508739471435546875</LongitudeDegrees>
            </Position>
            <AltitudeMeters>14</AltitudeMeters>
            <DistanceMeters>NAN</DistanceMeters>
          </Trackpoint>
          <Trackpoint>
            <Time>2022-07-08T12:48:46.000Z</Time>
            <Position>
              <LatitudeDegrees>43.37123670615255832672119140625</LatitudeDegrees>
              <LongitudeDegrees>-1.78739969618618488311767578125</LongitudeDegrees>
            </Position>
            <AltitudeMeters>14.19999980926513671875</AltitudeMeters>
            <DistanceMeters>NAN</DistanceMeters>
          </Trackpoint>
          <Trackpoint>
            <Time>2022-07-08T12:48:54.000Z</Time>
            <Position>
              <LatitudeDegrees>43.3711583353579044342041015625</LatitudeDegrees>
              <LongitudeDegrees>-1.78774402476847171783447265625</LongitudeDegrees>
            </Position>
            <AltitudeMeters>14.6000003814697265625</AltitudeMeters>
            <DistanceMeters>NAN</DistanceMeters>
          </Trackpoint>
          <Trackpoint>
            <Time>2022-07-08T12:48:55.000Z</Time>
            <Position>
              <LatitudeDegrees>43.37114919908344745635986328125</LatitudeDegrees>
              <LongitudeDegrees>-1.78778844885528087615966796875</LongitudeDegrees>
            </Position>
            <AltitudeMeters>14.19999980926513671875</AltitudeMeters>
            <DistanceMeters>NAN</DistanceMeters>
          </Trackpoint>
          <Trackpoint>
            <Time>2022-07-08T12:49:00.000Z</Time>
            <Position>
              <LatitudeDegrees>43.371114246547222137451171875</LatitudeDegrees>
              <LongitudeDegrees>-1.78795985877513885498046875</LongitudeDegrees>
            </Position>
            <AltitudeMeters>14</AltitudeMeters>
            <DistanceMeters>NAN</DistanceMeters>
          </Trackpoint>
          <Trackpoint>
            <Time>2022-07-08T12:49:01.000Z</Time>
            <Position>
              <LatitudeDegrees>43.3711020089685916900634765625</LatitudeDegrees>
              <LongitudeDegrees>-1.7879848368465900421142578125</LongitudeDegrees>
            </Position>
            <AltitudeMeters>14</AltitudeMeters>
            <DistanceMeters>NAN</DistanceMeters>
          </Trackpoint>
          <Trackpoint>
            <Time>2022-07-08T12:49:07.000Z</Time>
            <Position>
              <LatitudeDegrees>43.37106755934655666351318359375</LatitudeDegrees>
              <LongitudeDegrees>-1.788131855428218841552734375</LongitudeDegrees>
            </Position>
            <AltitudeMeters>14</AltitudeMeters>
            <DistanceMeters>NAN</DistanceMeters>
          </Trackpoint>
          <Trackpoint>
            <Time>2022-07-08T12:49:11.000Z</Time>
            <Position>
              <LatitudeDegrees>43.37107409723103046417236328125</LatitudeDegrees>
              <LongitudeDegrees>-1.78815758787095546722412109375</LongitudeDegrees>
            </Position>
            <AltitudeMeters>13.80000019073486328125</AltitudeMeters>
            <DistanceMeters>NAN</DistanceMeters>
          </Trackpoint>
          <Trackpoint>
            <Time>2022-07-08T12:49:50.000Z</Time>
            <Position>
              <LatitudeDegrees>43.37108884938061237335205078125</LatitudeDegrees>
              <LongitudeDegrees>-1.78814216516911983489990234375</LongitudeDegrees>
            </Position>
            <AltitudeMeters>13.3999996185302734375</AltitudeMeters>
            <DistanceMeters>NAN</DistanceMeters>
          </Trackpoint>
          <Trackpoint>
            <Time>2022-07-08T12:49:52.000Z</Time>
            <Position>
              <LatitudeDegrees>43.371092788875102996826171875</LatitudeDegrees>
              <LongitudeDegrees>-1.7880988307297229766845703125</LongitudeDegrees>
            </Position>
            <AltitudeMeters>13.3999996185302734375</AltitudeMeters>
            <DistanceMeters>NAN</DistanceMeters>
          </Trackpoint>
          <Trackpoint>
            <Time>2022-07-08T12:49:56.000Z</Time>
            <Position>
              <LatitudeDegrees>43.371011316776275634765625</LatitudeDegrees>
              <LongitudeDegrees>-1.788078211247920989990234375</LongitudeDegrees>
            </Position>
            <AltitudeMeters>13.3999996185302734375</AltitudeMeters>
            <DistanceMeters>NAN</DistanceMeters>
          </Trackpoint>
          <Trackpoint>
            <Time>2022-07-08T12:50:02.000Z</Time>
            <Position>
              <LatitudeDegrees>43.37084300816059112548828125</LatitudeDegrees>
              <LongitudeDegrees>-1.7880173586308956146240234375</LongitudeDegrees>
            </Position>
            <AltitudeMeters>13.19999980926513671875</AltitudeMeters>
            <DistanceMeters>NAN</DistanceMeters>
          </Trackpoint>
          <Trackpoint>
            <Time>2022-07-08T12:50:08.000Z</Time>
            <Position>
              <LatitudeDegrees>43.37065399624407291412353515625</LatitudeDegrees>
              <LongitudeDegrees>-1.78794904612004756927490234375</LongitudeDegrees>
            </Position>
            <AltitudeMeters>13</AltitudeMeters>
            <DistanceMeters>NAN</DistanceMeters>
          </Trackpoint>
          <Trackpoint>
            <Time>2022-07-08T12:50:11.000Z</Time>
            <Position>
              <LatitudeDegrees>43.3705672435462474822998046875</LatitudeDegrees>
              <LongitudeDegrees>-1.78792842663824558258056640625</LongitudeDegrees>
            </Position>
            <AltitudeMeters>12.80000019073486328125</AltitudeMeters>
            <DistanceMeters>NAN</DistanceMeters>
          </Trackpoint>
          <Trackpoint>
            <Time>2022-07-08T12:50:20.000Z</Time>
            <Position>
              <LatitudeDegrees>43.3703126013278961181640625</LatitudeDegrees>
              <LongitudeDegrees>-1.787785850465297698974609375</LongitudeDegrees>
            </Position>
            <AltitudeMeters>12.80000019073486328125</AltitudeMeters>
            <DistanceMeters>NAN</DistanceMeters>
          </Trackpoint>
          <Trackpoint>
            <Time>2022-07-08T12:50:26.000Z</Time>
            <Position>
              <LatitudeDegrees>43.37014370597898960113525390625</LatitudeDegrees>
              <LongitudeDegrees>-1.7876901291310787200927734375</LongitudeDegrees>
            </Position>
            <AltitudeMeters>12.3999996185302734375</AltitudeMeters>
            <DistanceMeters>NAN</DistanceMeters>
          </Trackpoint>
          <Trackpoint>
            <Time>2022-07-08T12:50:27.000Z</Time>
            <Position>
              <LatitudeDegrees>43.37013280950486660003662109375</LatitudeDegrees>
              <LongitudeDegrees>-1.78766808472573757171630859375</LongitudeDegrees>
            </Position>
            <AltitudeMeters>12.3999996185302734375</AltitudeMeters>
            <DistanceMeters>NAN</DistanceMeters>
          </Trackpoint>
          <Trackpoint>
            <Time>2022-07-08T12:50:28.000Z</Time>
            <Position>
              <LatitudeDegrees>43.37012819945812225341796875</LatitudeDegrees>
              <LongitudeDegrees>-1.78763070143759250640869140625</LongitudeDegrees>
            </Position>
            <AltitudeMeters>12.3999996185302734375</AltitudeMeters>
            <DistanceMeters>NAN</DistanceMeters>
          </Trackpoint>
          <Trackpoint>
            <Time>2022-07-08T12:50:31.000Z</Time>
            <Position>
              <LatitudeDegrees>43.37014571763575077056884765625</LatitudeDegrees>
              <LongitudeDegrees>-1.7875332199037075042724609375</LongitudeDegrees>
            </Position>
            <AltitudeMeters>12.6000003814697265625</AltitudeMeters>
            <DistanceMeters>NAN</DistanceMeters>
          </Trackpoint>
          <Trackpoint>
            <Time>2022-07-08T12:50:38.000Z</Time>
            <Position>
              <LatitudeDegrees>43.37020866572856903076171875</LatitudeDegrees>
              <LongitudeDegrees>-1.787266172468662261962890625</LongitudeDegrees>
            </Position>
            <AltitudeMeters>12.80000019073486328125</AltitudeMeters>
            <DistanceMeters>NAN</DistanceMeters>
          </Trackpoint>
          <Trackpoint>
            <Time>2022-07-08T12:50:46.000Z</Time>
            <Position>
              <LatitudeDegrees>43.3702661655843257904052734375</LatitudeDegrees>
              <LongitudeDegrees>-1.78691186942160129547119140625</LongitudeDegrees>
            </Position>
            <AltitudeMeters>12.3999996185302734375</AltitudeMeters>
            <DistanceMeters>NAN</DistanceMeters>
          </Trackpoint>
          <Trackpoint>
            <Time>2022-07-08T12:50:51.000Z</Time>
            <Position>
              <LatitudeDegrees>43.3703030459582805633544921875</LatitudeDegrees>
              <LongitudeDegrees>-1.786690168082714080810546875</LongitudeDegrees>
            </Position>
            <AltitudeMeters>12.6000003814697265625</AltitudeMeters>
            <DistanceMeters>NAN</DistanceMeters>
          </Trackpoint>
          <Trackpoint>
            <Time>2022-07-08T12:50:53.000Z</Time>
            <Position>
              <LatitudeDegrees>43.37031352333724498748779296875</LatitudeDegrees>
              <LongitudeDegrees>-1.78660727106034755706787109375</LongitudeDegrees>
            </Position>
            <AltitudeMeters>12.6000003814697265625</AltitudeMeters>
            <DistanceMeters>NAN</DistanceMeters>
          </Trackpoint>
          <Trackpoint>
            <Time>2022-07-08T12:50:59.000Z</Time>
            <Position>
              <LatitudeDegrees>43.37037102319300174713134765625</LatitudeDegrees>
              <LongitudeDegrees>-1.7863822169601917266845703125</LongitudeDegrees>
            </Position>
            <AltitudeMeters>12.6000003814697265625</AltitudeMeters>
            <DistanceMeters>NAN</DistanceMeters>
          </Trackpoint>
          <Trackpoint>
            <Time>2022-07-08T12:51:03.000Z</Time>
            <Position>
              <LatitudeDegrees>43.37043531239032745361328125</LatitudeDegrees>
              <LongitudeDegrees>-1.7862561531364917755126953125</LongitudeDegrees>
            </Position>
            <AltitudeMeters>12.6000003814697265625</AltitudeMeters>
            <DistanceMeters>NAN</DistanceMeters>
          </Trackpoint>
          <Trackpoint>
            <Time>2022-07-08T12:51:06.000Z</Time>
            <Position>
              <LatitudeDegrees>43.37045945227146148681640625</LatitudeDegrees>
              <LongitudeDegrees>-1.786124892532825469970703125</LongitudeDegrees>
            </Position>
            <AltitudeMeters>12.80000019073486328125</AltitudeMeters>
            <DistanceMeters>NAN</DistanceMeters>
          </Trackpoint>
          <Trackpoint>
            <Time>2022-07-08T12:51:10.000Z</Time>
            <Position>
              <LatitudeDegrees>43.3703761361539363861083984375</LatitudeDegrees>
              <LongitudeDegrees>-1.78599421866238117218017578125</LongitudeDegrees>
            </Position>
            <AltitudeMeters>13</AltitudeMeters>
            <DistanceMeters>NAN</DistanceMeters>
          </Trackpoint>
          <Trackpoint>
            <Time>2022-07-08T12:51:15.000Z</Time>
            <Position>
              <LatitudeDegrees>43.37026155553758144378662109375</LatitudeDegrees>
              <LongitudeDegrees>-1.7858176119625568389892578125</LongitudeDegrees>
            </Position>
            <AltitudeMeters>13</AltitudeMeters>
            <DistanceMeters>NAN</DistanceMeters>
          </Trackpoint>
          <Trackpoint>
            <Time>2022-07-08T12:51:22.000Z</Time>
            <Position>
              <LatitudeDegrees>43.37022031657397747039794921875</LatitudeDegrees>
              <LongitudeDegrees>-1.7854856885969638824462890625</LongitudeDegrees>
            </Position>
            <AltitudeMeters>13</AltitudeMeters>
            <DistanceMeters>NAN</DistanceMeters>
          </Trackpoint>
          <Trackpoint>
            <Time>2022-07-08T12:51:31.000Z</Time>
            <Position>
              <LatitudeDegrees>43.37026339955627918243408203125</LatitudeDegrees>
              <LongitudeDegrees>-1.7850981093943119049072265625</LongitudeDegrees>
            </Position>
            <AltitudeMeters>13</AltitudeMeters>
            <DistanceMeters>NAN</DistanceMeters>
          </Trackpoint>
          <Trackpoint>
            <Time>2022-07-08T12:51:36.000Z</Time>
            <Position>
              <LatitudeDegrees>43.37020187638700008392333984375</LatitudeDegrees>
              <LongitudeDegrees>-1.78492804057896137237548828125</LongitudeDegrees>
            </Position>
            <AltitudeMeters>12.6000003814697265625</AltitudeMeters>
            <DistanceMeters>NAN</DistanceMeters>
          </Trackpoint>
          <Trackpoint>
            <Time>2022-07-08T12:51:41.000Z</Time>
            <Position>
              <LatitudeDegrees>43.37021947838366031646728515625</LatitudeDegrees>
              <LongitudeDegrees>-1.7847311496734619140625</LongitudeDegrees>
            </Position>
            <AltitudeMeters>12.6000003814697265625</AltitudeMeters>
            <DistanceMeters>NAN</DistanceMeters>
          </Trackpoint>
          <Trackpoint>
            <Time>2022-07-08T12:51:47.000Z</Time>
            <Position>
              <LatitudeDegrees>43.37026490829885005950927734375</LatitudeDegrees>
              <LongitudeDegrees>-1.7844781838357448577880859375</LongitudeDegrees>
            </Position>
            <AltitudeMeters>12.80000019073486328125</AltitudeMeters>
            <DistanceMeters>NAN</DistanceMeters>
          </Trackpoint>
          <Trackpoint>
            <Time>2022-07-08T12:51:53.000Z</Time>
            <Position>
              <LatitudeDegrees>43.37031461298465728759765625</LatitudeDegrees>
              <LongitudeDegrees>-1.784215159714221954345703125</LongitudeDegrees>
            </Position>
            <AltitudeMeters>12.80000019073486328125</AltitudeMeters>
            <DistanceMeters>NAN</DistanceMeters>
          </Trackpoint>
          <Trackpoint>
            <Time>2022-07-08T12:51:55.000Z</Time>
            <Position>
              <LatitudeDegrees>43.37033070623874664306640625</LatitudeDegrees>
              <LongitudeDegrees>-1.78413628600537776947021484375</LongitudeDegrees>
            </Position>
            <AltitudeMeters>12.80000019073486328125</AltitudeMeters>
            <DistanceMeters>NAN</DistanceMeters>
          </Trackpoint>
          <Trackpoint>
            <Time>2022-07-08T12:52:04.000Z</Time>
            <Position>
              <LatitudeDegrees>43.3703905530273914337158203125</LatitudeDegrees>
              <LongitudeDegrees>-1.7837870121002197265625</LongitudeDegrees>
            </Position>
            <AltitudeMeters>13</AltitudeMeters>
            <DistanceMeters>NAN</DistanceMeters>
          </Trackpoint>
          <Trackpoint>
            <Time>2022-07-08T12:52:12.000Z</Time>
            <Position>
              <LatitudeDegrees>43.37048904038965702056884765625</LatitudeDegrees>
              <LongitudeDegrees>-1.7834847606718540191650390625</LongitudeDegrees>
            </Position>
            <AltitudeMeters>12.80000019073486328125</AltitudeMeters>
            <DistanceMeters>NAN</DistanceMeters>
          </Trackpoint>
          <Trackpoint>
            <Time>2022-07-08T12:52:18.000Z</Time>
            <Position>
              <LatitudeDegrees>43.370595909655094146728515625</LatitudeDegrees>
              <LongitudeDegrees>-1.78328686393797397613525390625</LongitudeDegrees>
            </Position>
            <AltitudeMeters>13</AltitudeMeters>
            <DistanceMeters>NAN</DistanceMeters>
          </Trackpoint>
          <Trackpoint>
            <Time>2022-07-08T12:52:20.000Z</Time>
            <Position>
              <LatitudeDegrees>43.37060186080634593963623046875</LatitudeDegrees>
              <LongitudeDegrees>-1.7832044698297977447509765625</LongitudeDegrees>
            </Position>
            <AltitudeMeters>13</AltitudeMeters>
            <DistanceMeters>NAN</DistanceMeters>
          </Trackpoint>
          <Trackpoint>
            <Time>2022-07-08T12:52:23.000Z</Time>
            <Position>
              <LatitudeDegrees>43.3706239052116870880126953125</LatitudeDegrees>
              <LongitudeDegrees>-1.78306843154132366180419921875</LongitudeDegrees>
            </Position>
            <AltitudeMeters>13.19999980926513671875</AltitudeMeters>
            <DistanceMeters>NAN</DistanceMeters>
          </Trackpoint>
          <Trackpoint>
            <Time>2022-07-08T12:52:26.000Z</Time>
            <Position>
              <LatitudeDegrees>43.37065014056861400604248046875</LatitudeDegrees>
              <LongitudeDegrees>-1.7829332314431667327880859375</LongitudeDegrees>
            </Position>
            <AltitudeMeters>13</AltitudeMeters>
            <DistanceMeters>NAN</DistanceMeters>
          </Trackpoint>
          <Trackpoint>
            <Time>2022-07-08T12:52:31.000Z</Time>
            <Position>
              <LatitudeDegrees>43.3706746995449066162109375</LatitudeDegrees>
              <LongitudeDegrees>-1.7827126197516918182373046875</LongitudeDegrees>
            </Position>
            <AltitudeMeters>13</AltitudeMeters>
            <DistanceMeters>NAN</DistanceMeters>
          </Trackpoint>
          <Trackpoint>
            <Time>2022-07-08T12:52:33.000Z</Time>
            <Position>
              <LatitudeDegrees>43.370657600462436676025390625</LatitudeDegrees>
              <LongitudeDegrees>-1.78262787871062755584716796875</LongitudeDegrees>
            </Position>
            <AltitudeMeters>13</AltitudeMeters>
            <DistanceMeters>NAN</DistanceMeters>
          </Trackpoint>
          <Trackpoint>
            <Time>2022-07-08T12:52:42.000Z</Time>
            <Position>
              <LatitudeDegrees>43.3705762960016727447509765625</LatitudeDegrees>
              <LongitudeDegrees>-1.78225354291498661041259765625</LongitudeDegrees>
            </Position>
            <AltitudeMeters>13</AltitudeMeters>
            <DistanceMeters>NAN</DistanceMeters>
          </Trackpoint>
          <Trackpoint>
            <Time>2022-07-08T12:52:47.000Z</Time>
            <Position>
              <LatitudeDegrees>43.3705075643956661224365234375</LatitudeDegrees>
              <LongitudeDegrees>-1.78209780715405941009521484375</LongitudeDegrees>
            </Position>
            <AltitudeMeters>12.80000019073486328125</AltitudeMeters>
            <DistanceMeters>NAN</DistanceMeters>
          </Trackpoint>
          <Trackpoint>
            <Time>2022-07-08T12:52:49.000Z</Time>
            <Position>
              <LatitudeDegrees>43.3705065585672855377197265625</LatitudeDegrees>
              <LongitudeDegrees>-1.78205966949462890625</LongitudeDegrees>
            </Position>
            <AltitudeMeters>12.80000019073486328125</AltitudeMeters>
            <DistanceMeters>NAN</DistanceMeters>
          </Trackpoint>
          <Trackpoint>
            <Time>2022-07-08T12:52:51.000Z</Time>
            <Position>
              <LatitudeDegrees>43.3705293573439121246337890625</LatitudeDegrees>
              <LongitudeDegrees>-1.781994961202144622802734375</LongitudeDegrees>
            </Position>
            <AltitudeMeters>12.80000019073486328125</AltitudeMeters>
            <DistanceMeters>NAN</DistanceMeters>
          </Trackpoint>
          <Trackpoint>
            <Time>2022-07-08T12:52:55.000Z</Time>
            <Position>
              <LatitudeDegrees>43.37051418609917163848876953125</LatitudeDegrees>
              <LongitudeDegrees>-1.781852804124355316162109375</LongitudeDegrees>
            </Position>
            <AltitudeMeters>13.3999996185302734375</AltitudeMeters>
            <DistanceMeters>NAN</DistanceMeters>
          </Trackpoint>
          <Trackpoint>
            <Time>2022-07-08T12:53:02.000Z</Time>
            <Position>
              <LatitudeDegrees>43.37044159881770610809326171875</LatitudeDegrees>
              <LongitudeDegrees>-1.78158382885158061981201171875</LongitudeDegrees>
            </Position>
            <AltitudeMeters>13.3999996185302734375</AltitudeMeters>
            <DistanceMeters>NAN</DistanceMeters>
          </Trackpoint>
          <Trackpoint>
            <Time>2022-07-08T12:53:05.000Z</Time>
            <Position>
              <LatitudeDegrees>43.37041611783206462860107421875</LatitudeDegrees>
              <LongitudeDegrees>-1.781452484428882598876953125</LongitudeDegrees>
            </Position>
            <AltitudeMeters>13.3999996185302734375</AltitudeMeters>
            <DistanceMeters>NAN</DistanceMeters>
          </Trackpoint>
          <Trackpoint>
            <Time>2022-07-08T12:53:06.000Z</Time>
            <Position>
              <LatitudeDegrees>43.37041092105209827423095703125</LatitudeDegrees>
              <LongitudeDegrees>-1.78140630014240741729736328125</LongitudeDegrees>
            </Position>
            <AltitudeMeters>13.3999996185302734375</AltitudeMeters>
            <DistanceMeters>NAN</DistanceMeters>
          </Trackpoint>
          <Trackpoint>
            <Time>2022-07-08T12:53:09.000Z</Time>
            <Position>
              <LatitudeDegrees>43.3703788183629512786865234375</LatitudeDegrees>
              <LongitudeDegrees>-1.78126950748264789581298828125</LongitudeDegrees>
            </Position>
            <AltitudeMeters>13.6000003814697265625</AltitudeMeters>
            <DistanceMeters>NAN</DistanceMeters>
          </Trackpoint>
          <Trackpoint>
            <Time>2022-07-08T12:53:13.000Z</Time>
            <Position>
              <LatitudeDegrees>43.3702765591442584991455078125</LatitudeDegrees>
              <LongitudeDegrees>-1.78118686191737651824951171875</LongitudeDegrees>
            </Position>
            <AltitudeMeters>13.3999996185302734375</AltitudeMeters>
            <DistanceMeters>NAN</DistanceMeters>
          </Trackpoint>
          <Trackpoint>
            <Time>2022-07-08T12:53:20.000Z</Time>
            <Position>
              <LatitudeDegrees>43.3700670115649700164794921875</LatitudeDegrees>
              <LongitudeDegrees>-1.78112198598682880401611328125</LongitudeDegrees>
            </Position>
            <AltitudeMeters>13</AltitudeMeters>
            <DistanceMeters>NAN</DistanceMeters>
          </Trackpoint>
          <Trackpoint>
            <Time>2022-07-08T12:53:21.000Z</Time>
            <Position>
              <LatitudeDegrees>43.37004899047315120697021484375</LatitudeDegrees>
              <LongitudeDegrees>-1.78111259825527667999267578125</LongitudeDegrees>
            </Position>
            <AltitudeMeters>13</AltitudeMeters>
            <DistanceMeters>NAN</DistanceMeters>
          </Trackpoint>
          <Trackpoint>
            <Time>2022-07-08T12:53:22.000Z</Time>
            <Position>
              <LatitudeDegrees>43.370031975209712982177734375</LatitudeDegrees>
              <LongitudeDegrees>-1.7810965888202190399169921875</LongitudeDegrees>
            </Position>
            <AltitudeMeters>13</AltitudeMeters>
            <DistanceMeters>NAN</DistanceMeters>
          </Trackpoint>
          <Trackpoint>
            <Time>2022-07-08T12:53:24.000Z</Time>
            <Position>
              <LatitudeDegrees>43.37001822888851165771484375</LatitudeDegrees>
              <LongitudeDegrees>-1.7810498178005218505859375</LongitudeDegrees>
            </Position>
            <AltitudeMeters>13.19999980926513671875</AltitudeMeters>
            <DistanceMeters>NAN</DistanceMeters>
          </Trackpoint>
          <Trackpoint>
            <Time>2022-07-08T12:53:25.000Z</Time>
            <Position>
              <LatitudeDegrees>43.37001864798367023468017578125</LatitudeDegrees>
              <LongitudeDegrees>-1.78102525882422924041748046875</LongitudeDegrees>
            </Position>
            <AltitudeMeters>13.19999980926513671875</AltitudeMeters>
            <DistanceMeters>NAN</DistanceMeters>
          </Trackpoint>
          <Trackpoint>
            <Time>2022-07-08T12:53:32.000Z</Time>
            <Position>
              <LatitudeDegrees>43.3700479008257389068603515625</LatitudeDegrees>
              <LongitudeDegrees>-1.7808219976723194122314453125</LongitudeDegrees>
            </Position>
            <AltitudeMeters>13.80000019073486328125</AltitudeMeters>
            <DistanceMeters>NAN</DistanceMeters>
          </Trackpoint>
          <Trackpoint>
            <Time>2022-07-08T12:53:40.000Z</Time>
            <Position>
              <LatitudeDegrees>43.370040021836757659912109375</LatitudeDegrees>
              <LongitudeDegrees>-1.7805732227861881256103515625</LongitudeDegrees>
            </Position>
            <AltitudeMeters>14</AltitudeMeters>
            <DistanceMeters>NAN</DistanceMeters>
          </Trackpoint>
          <Trackpoint>
            <Time>2022-07-08T12:53:47.000Z</Time>
            <Position>
              <LatitudeDegrees>43.3700053207576274871826171875</LatitudeDegrees>
              <LongitudeDegrees>-1.78039175458252429962158203125</LongitudeDegrees>
            </Position>
            <AltitudeMeters>13.80000019073486328125</AltitudeMeters>
            <DistanceMeters>NAN</DistanceMeters>
          </Trackpoint>
          <Trackpoint>
            <Time>2022-07-08T12:53:51.000Z</Time>
            <Position>
              <LatitudeDegrees>43.36998528800904750823974609375</LatitudeDegrees>
              <LongitudeDegrees>-1.78030885756015777587890625</LongitudeDegrees>
            </Position>
            <AltitudeMeters>14</AltitudeMeters>
            <DistanceMeters>NAN</DistanceMeters>
          </Trackpoint>
          <Trackpoint>
            <Time>2022-07-08T12:53:53.000Z</Time>
            <Position>
              <LatitudeDegrees>43.36998193524777889251708984375</LatitudeDegrees>
              <LongitudeDegrees>-1.7803066782653331756591796875</LongitudeDegrees>
            </Position>
            <AltitudeMeters>13.80000019073486328125</AltitudeMeters>
            <DistanceMeters>NAN</DistanceMeters>
          </Trackpoint>
          <Trackpoint>
            <Time>2022-07-08T12:56:44.000Z</Time>
            <Position>
              <LatitudeDegrees>43.36997087113559246063232421875</LatitudeDegrees>
              <LongitudeDegrees>-1.780245490372180938720703125</LongitudeDegrees>
            </Position>
            <AltitudeMeters>13.3999996185302734375</AltitudeMeters>
            <DistanceMeters>NAN</DistanceMeters>
          </Trackpoint>
          <Trackpoint>
            <Time>2022-07-08T12:56:47.000Z</Time>
            <Position>
              <LatitudeDegrees>43.36995528079569339752197265625</LatitudeDegrees>
              <LongitudeDegrees>-1.78016393445432186126708984375</LongitudeDegrees>
            </Position>
            <AltitudeMeters>13.3999996185302734375</AltitudeMeters>
            <DistanceMeters>NAN</DistanceMeters>
          </Trackpoint>
          <Trackpoint>
            <Time>2022-07-08T12:56:52.000Z</Time>
            <Position>
              <LatitudeDegrees>43.37001278065145015716552734375</LatitudeDegrees>
              <LongitudeDegrees>-1.78000518120825290679931640625</LongitudeDegrees>
            </Position>
            <AltitudeMeters>13</AltitudeMeters>
            <DistanceMeters>NAN</DistanceMeters>
          </Trackpoint>
          <Trackpoint>
            <Time>2022-07-08T12:56:56.000Z</Time>
            <Position>
              <LatitudeDegrees>43.3700515888631343841552734375</LatitudeDegrees>
              <LongitudeDegrees>-1.7798473499715328216552734375</LongitudeDegrees>
            </Position>
            <AltitudeMeters>12.80000019073486328125</AltitudeMeters>
            <DistanceMeters>NAN</DistanceMeters>
          </Trackpoint>
          <Trackpoint>
            <Time>2022-07-08T12:56:59.000Z</Time>
            <Position>
              <LatitudeDegrees>43.3700631558895111083984375</LatitudeDegrees>
              <LongitudeDegrees>-1.7796978168189525604248046875</LongitudeDegrees>
            </Position>
            <AltitudeMeters>13</AltitudeMeters>
            <DistanceMeters>NAN</DistanceMeters>
          </Trackpoint>
          <Trackpoint>
            <Time>2022-07-08T12:57:06.000Z</Time>
            <Position>
              <LatitudeDegrees>43.3699613995850086212158203125</LatitudeDegrees>
              <LongitudeDegrees>-1.7794311046600341796875</LongitudeDegrees>
            </Position>
            <AltitudeMeters>13.19999980926513671875</AltitudeMeters>
            <DistanceMeters>NAN</DistanceMeters>
          </Trackpoint>
          <Trackpoint>
            <Time>2022-07-08T12:57:12.000Z</Time>
            <Position>
              <LatitudeDegrees>43.36992242373526096343994140625</LatitudeDegrees>
              <LongitudeDegrees>-1.7791892029345035552978515625</LongitudeDegrees>
            </Position>
            <AltitudeMeters>13.19999980926513671875</AltitudeMeters>
            <DistanceMeters>NAN</DistanceMeters>
          </Trackpoint>
          <Trackpoint>
            <Time>2022-07-08T12:57:19.000Z</Time>
            <Position>
              <LatitudeDegrees>43.36997506208717823028564453125</LatitudeDegrees>
              <LongitudeDegrees>-1.77889809943735599517822265625</LongitudeDegrees>
            </Position>
            <AltitudeMeters>13.6000003814697265625</AltitudeMeters>
            <DistanceMeters>NAN</DistanceMeters>
          </Trackpoint>
          <Trackpoint>
            <Time>2022-07-08T12:57:29.000Z</Time>
            <Position>
              <LatitudeDegrees>43.3700924925506114959716796875</LatitudeDegrees>
              <LongitudeDegrees>-1.77846743725240230560302734375</LongitudeDegrees>
            </Position>
            <AltitudeMeters>13.3999996185302734375</AltitudeMeters>
            <DistanceMeters>NAN</DistanceMeters>
          </Trackpoint>
          <Trackpoint>
            <Time>2022-07-08T12:57:39.000Z</Time>
            <Position>
              <LatitudeDegrees>43.3702148683369159698486328125</LatitudeDegrees>
              <LongitudeDegrees>-1.7779557220637798309326171875</LongitudeDegrees>
            </Position>
            <AltitudeMeters>13.19999980926513671875</AltitudeMeters>
            <DistanceMeters>NAN</DistanceMeters>
          </Trackpoint>
          <Trackpoint>
            <Time>2022-07-08T12:57:48.000Z</Time>
            <Position>
              <LatitudeDegrees>43.37029290385544300079345703125</LatitudeDegrees>
              <LongitudeDegrees>-1.7774784564971923828125</LongitudeDegrees>
            </Position>
            <AltitudeMeters>13</AltitudeMeters>
            <DistanceMeters>NAN</DistanceMeters>
          </Trackpoint>
          <Trackpoint>
            <Time>2022-07-08T12:57:49.000Z</Time>
            <Position>
              <LatitudeDegrees>43.3702809177339076995849609375</LatitudeDegrees>
              <LongitudeDegrees>-1.77744685672223567962646484375</LongitudeDegrees>
            </Position>
            <AltitudeMeters>13</AltitudeMeters>
            <DistanceMeters>NAN</DistanceMeters>
          </Trackpoint>
          <Trackpoint>
            <Time>2022-07-08T12:57:51.000Z</Time>
            <Position>
              <LatitudeDegrees>43.3702396787703037261962890625</LatitudeDegrees>
              <LongitudeDegrees>-1.77739866077899932861328125</LongitudeDegrees>
            </Position>
            <AltitudeMeters>13</AltitudeMeters>
            <DistanceMeters>NAN</DistanceMeters>
          </Trackpoint>
          <Trackpoint>
            <Time>2022-07-08T12:57:52.000Z</Time>
            <Position>
              <LatitudeDegrees>43.370215706527233123779296875</LatitudeDegrees>
              <LongitudeDegrees>-1.7773723416030406951904296875</LongitudeDegrees>
            </Position>
            <AltitudeMeters>13</AltitudeMeters>
            <DistanceMeters>NAN</DistanceMeters>
          </Trackpoint>
          <Trackpoint>
            <Time>2022-07-08T12:57:55.000Z</Time>
            <Position>
              <LatitudeDegrees>43.37020933628082275390625</LatitudeDegrees>
              <LongitudeDegrees>-1.77727888338267803192138671875</LongitudeDegrees>
            </Position>
            <AltitudeMeters>12.80000019073486328125</AltitudeMeters>
            <DistanceMeters>NAN</DistanceMeters>
          </Trackpoint>
          <Trackpoint>
            <Time>2022-07-08T12:58:00.000Z</Time>
            <Position>
              <LatitudeDegrees>43.3703167922794818878173828125</LatitudeDegrees>
              <LongitudeDegrees>-1.77712373435497283935546875</LongitudeDegrees>
            </Position>
            <AltitudeMeters>12.80000019073486328125</AltitudeMeters>
            <DistanceMeters>NAN</DistanceMeters>
          </Trackpoint>
          <Trackpoint>
            <Time>2022-07-08T12:58:06.000Z</Time>
            <Position>
              <LatitudeDegrees>43.37039985693991184234619140625</LatitudeDegrees>
              <LongitudeDegrees>-1.7768838442862033843994140625</LongitudeDegrees>
            </Position>
            <AltitudeMeters>13.19999980926513671875</AltitudeMeters>
            <DistanceMeters>NAN</DistanceMeters>
          </Trackpoint>
          <Trackpoint>
            <Time>2022-07-08T12:58:15.000Z</Time>
            <Position>
              <LatitudeDegrees>43.37045735679566860198974609375</LatitudeDegrees>
              <LongitudeDegrees>-1.77651663310825824737548828125</LongitudeDegrees>
            </Position>
            <AltitudeMeters>13.3999996185302734375</AltitudeMeters>
            <DistanceMeters>NAN</DistanceMeters>
          </Trackpoint>
          <Trackpoint>
            <Time>2022-07-08T12:58:19.000Z</Time>
            <Position>
              <LatitudeDegrees>43.3704842627048492431640625</LatitudeDegrees>
              <LongitudeDegrees>-1.7763510905206203460693359375</LongitudeDegrees>
            </Position>
            <AltitudeMeters>13.3999996185302734375</AltitudeMeters>
            <DistanceMeters>NAN</DistanceMeters>
          </Trackpoint>
          <Trackpoint>
            <Time>2022-07-08T12:58:22.000Z</Time>
            <Position>
              <LatitudeDegrees>43.3705062232911586761474609375</LatitudeDegrees>
              <LongitudeDegrees>-1.77622259594500064849853515625</LongitudeDegrees>
            </Position>
            <AltitudeMeters>13.3999996185302734375</AltitudeMeters>
            <DistanceMeters>NAN</DistanceMeters>
          </Trackpoint>
          <Trackpoint>
            <Time>2022-07-08T12:58:25.000Z</Time>
            <Position>
              <LatitudeDegrees>43.37052273564040660858154296875</LatitudeDegrees>
              <LongitudeDegrees>-1.77608379162847995758056640625</LongitudeDegrees>
            </Position>
            <AltitudeMeters>13.3999996185302734375</AltitudeMeters>
            <DistanceMeters>NAN</DistanceMeters>
          </Trackpoint>
          <Trackpoint>
            <Time>2022-07-08T12:58:28.000Z</Time>
            <Position>
              <LatitudeDegrees>43.37053698487579822540283203125</LatitudeDegrees>
              <LongitudeDegrees>-1.77594222128391265869140625</LongitudeDegrees>
            </Position>
            <AltitudeMeters>13.6000003814697265625</AltitudeMeters>
            <DistanceMeters>NAN</DistanceMeters>
          </Trackpoint>
          <Trackpoint>
            <Time>2022-07-08T12:58:33.000Z</Time>
            <Position>
              <LatitudeDegrees>43.37054871954023838043212890625</LatitudeDegrees>
              <LongitudeDegrees>-1.77581339143216609954833984375</LongitudeDegrees>
            </Position>
            <AltitudeMeters>13.80000019073486328125</AltitudeMeters>
            <DistanceMeters>NAN</DistanceMeters>
          </Trackpoint>
          <Trackpoint>
            <Time>2022-07-08T12:58:36.000Z</Time>
            <Position>
              <LatitudeDegrees>43.3705578558146953582763671875</LatitudeDegrees>
              <LongitudeDegrees>-1.7757180891931056976318359375</LongitudeDegrees>
            </Position>
            <AltitudeMeters>13.80000019073486328125</AltitudeMeters>
            <DistanceMeters>NAN</DistanceMeters>
          </Trackpoint>
          <Trackpoint>
            <Time>2022-07-08T12:58:40.000Z</Time>
            <Position>
              <LatitudeDegrees>43.37056162767112255096435546875</LatitudeDegrees>
              <LongitudeDegrees>-1.77555053494870662689208984375</LongitudeDegrees>
            </Position>
            <AltitudeMeters>13.80000019073486328125</AltitudeMeters>
            <DistanceMeters>NAN</DistanceMeters>
          </Trackpoint>
          <Trackpoint>
            <Time>2022-07-08T12:58:48.000Z</Time>
            <Position>
              <LatitudeDegrees>43.3705471269786357879638671875</LatitudeDegrees>
              <LongitudeDegrees>-1.7751873470842838287353515625</LongitudeDegrees>
            </Position>
            <AltitudeMeters>13.80000019073486328125</AltitudeMeters>
            <DistanceMeters>NAN</DistanceMeters>
          </Trackpoint>
          <Trackpoint>
            <Time>2022-07-08T12:58:53.000Z</Time>
            <Position>
              <LatitudeDegrees>43.37050898931920528411865234375</LatitudeDegrees>
              <LongitudeDegrees>-1.77497637458145618438720703125</LongitudeDegrees>
            </Position>
            <AltitudeMeters>13.6000003814697265625</AltitudeMeters>
            <DistanceMeters>NAN</DistanceMeters>
          </Trackpoint>
          <Trackpoint>
            <Time>2022-07-08T12:58:56.000Z</Time>
            <Position>
              <LatitudeDegrees>43.37048627436161041259765625</LatitudeDegrees>
              <LongitudeDegrees>-1.77484109066426753997802734375</LongitudeDegrees>
            </Position>
            <AltitudeMeters>13.3999996185302734375</AltitudeMeters>
            <DistanceMeters>NAN</DistanceMeters>
          </Trackpoint>
          <Trackpoint>
            <Time>2022-07-08T12:59:00.000Z</Time>
            <Position>
              <LatitudeDegrees>43.370434977114200592041015625</LatitudeDegrees>
              <LongitudeDegrees>-1.77466507069766521453857421875</LongitudeDegrees>
            </Position>
            <AltitudeMeters>14</AltitudeMeters>
            <DistanceMeters>NAN</DistanceMeters>
          </Trackpoint>
          <Trackpoint>
            <Time>2022-07-08T12:59:05.000Z</Time>
            <Position>
              <LatitudeDegrees>43.37037035264074802398681640625</LatitudeDegrees>
              <LongitudeDegrees>-1.77444278262555599212646484375</LongitudeDegrees>
            </Position>
            <AltitudeMeters>14.19999980926513671875</AltitudeMeters>
            <DistanceMeters>NAN</DistanceMeters>
          </Trackpoint>
          <Trackpoint>
            <Time>2022-07-08T12:59:11.000Z</Time>
            <Position>
              <LatitudeDegrees>43.37028569541871547698974609375</LatitudeDegrees>
              <LongitudeDegrees>-1.77416534163057804107666015625</LongitudeDegrees>
            </Position>
            <AltitudeMeters>14.3999996185302734375</AltitudeMeters>
            <DistanceMeters>NAN</DistanceMeters>
          </Trackpoint>
          <Trackpoint>
            <Time>2022-07-08T12:59:13.000Z</Time>
            <Position>
              <LatitudeDegrees>43.3702681772410869598388671875</LatitudeDegrees>
              <LongitudeDegrees>-1.7740876413881778717041015625</LongitudeDegrees>
            </Position>
            <AltitudeMeters>14.19999980926513671875</AltitudeMeters>
            <DistanceMeters>NAN</DistanceMeters>
          </Trackpoint>
          <Trackpoint>
            <Time>2022-07-08T12:59:19.000Z</Time>
            <Position>
              <LatitudeDegrees>43.370133899152278900146484375</LatitudeDegrees>
              <LongitudeDegrees>-1.77383459173142910003662109375</LongitudeDegrees>
            </Position>
            <AltitudeMeters>14</AltitudeMeters>
            <DistanceMeters>NAN</DistanceMeters>
          </Trackpoint>
          <Trackpoint>
            <Time>2022-07-08T12:59:22.000Z</Time>
            <Position>
              <LatitudeDegrees>43.370056115090847015380859375</LatitudeDegrees>
              <LongitudeDegrees>-1.77370685152709484100341796875</LongitudeDegrees>
            </Position>
            <AltitudeMeters>14.3999996185302734375</AltitudeMeters>
            <DistanceMeters>NAN</DistanceMeters>
          </Trackpoint>
          <Trackpoint>
            <Time>2022-07-08T12:59:25.000Z</Time>
            <Position>
              <LatitudeDegrees>43.36997271515429019927978515625</LatitudeDegrees>
              <LongitudeDegrees>-1.77356888540089130401611328125</LongitudeDegrees>
            </Position>
            <AltitudeMeters>14.6000003814697265625</AltitudeMeters>
            <DistanceMeters>NAN</DistanceMeters>
          </Trackpoint>
          <Trackpoint>
            <Time>2022-07-08T12:59:28.000Z</Time>
            <Position>
              <LatitudeDegrees>43.36989442817866802215576171875</LatitudeDegrees>
              <LongitudeDegrees>-1.77347115240991115570068359375</LongitudeDegrees>
            </Position>
            <AltitudeMeters>14.3999996185302734375</AltitudeMeters>
            <DistanceMeters>NAN</DistanceMeters>
          </Trackpoint>
          <Trackpoint>
            <Time>2022-07-08T12:59:37.000Z</Time>
            <Position>
              <LatitudeDegrees>43.36965722031891345977783203125</LatitudeDegrees>
              <LongitudeDegrees>-1.773178540170192718505859375</LongitudeDegrees>
            </Position>
            <AltitudeMeters>13.80000019073486328125</AltitudeMeters>
            <DistanceMeters>NAN</DistanceMeters>
          </Trackpoint>
          <Trackpoint>
            <Time>2022-07-08T12:59:47.000Z</Time>
            <Position>
              <LatitudeDegrees>43.36940400302410125732421875</LatitudeDegrees>
              <LongitudeDegrees>-1.7728454433381557464599609375</LongitudeDegrees>
            </Position>
            <AltitudeMeters>14.6000003814697265625</AltitudeMeters>
            <DistanceMeters>NAN</DistanceMeters>
          </Trackpoint>
          <Trackpoint>
            <Time>2022-07-08T12:59:51.000Z</Time>
            <Position>
              <LatitudeDegrees>43.36928640492260456085205078125</LatitudeDegrees>
              <LongitudeDegrees>-1.77271225489675998687744140625</LongitudeDegrees>
            </Position>
            <AltitudeMeters>14.6000003814697265625</AltitudeMeters>
            <DistanceMeters>NAN</DistanceMeters>
          </Trackpoint>
          <Trackpoint>
            <Time>2022-07-08T12:59:57.000Z</Time>
            <Position>
              <LatitudeDegrees>43.36910870857536792755126953125</LatitudeDegrees>
              <LongitudeDegrees>-1.77251293323934078216552734375</LongitudeDegrees>
            </Position>
            <AltitudeMeters>14.6000003814697265625</AltitudeMeters>
            <DistanceMeters>NAN</DistanceMeters>
          </Trackpoint>
          <Trackpoint>
            <Time>2022-07-08T13:00:08.000Z</Time>
            <Position>
              <LatitudeDegrees>43.3687627874314785003662109375</LatitudeDegrees>
              <LongitudeDegrees>-1.77220590412616729736328125</LongitudeDegrees>
            </Position>
            <AltitudeMeters>14.80000019073486328125</AltitudeMeters>
            <DistanceMeters>NAN</DistanceMeters>
          </Trackpoint>
          <Trackpoint>
            <Time>2022-07-08T13:00:17.000Z</Time>
            <Position>
              <LatitudeDegrees>43.36847922764718532562255859375</LatitudeDegrees>
              <LongitudeDegrees>-1.7720126174390316009521484375</LongitudeDegrees>
            </Position>
            <AltitudeMeters>15</AltitudeMeters>
            <DistanceMeters>NAN</DistanceMeters>
          </Trackpoint>
          <Trackpoint>
            <Time>2022-07-08T13:00:25.000Z</Time>
            <Position>
              <LatitudeDegrees>43.3682206459343433380126953125</LatitudeDegrees>
              <LongitudeDegrees>-1.7718417942523956298828125</LongitudeDegrees>
            </Position>
            <AltitudeMeters>14.80000019073486328125</AltitudeMeters>
            <DistanceMeters>NAN</DistanceMeters>
          </Trackpoint>
          <Trackpoint>
            <Time>2022-07-08T13:00:28.000Z</Time>
            <Position>
              <LatitudeDegrees>43.36811721324920654296875</LatitudeDegrees>
              <LongitudeDegrees>-1.771775074303150177001953125</LongitudeDegrees>
            </Position>
            <AltitudeMeters>14.80000019073486328125</AltitudeMeters>
            <DistanceMeters>NAN</DistanceMeters>
          </Trackpoint>
          <Trackpoint>
            <Time>2022-07-08T13:00:36.000Z</Time>
            <Position>
              <LatitudeDegrees>43.36782929487526416778564453125</LatitudeDegrees>
              <LongitudeDegrees>-1.77158899605274200439453125</LongitudeDegrees>
            </Position>
            <AltitudeMeters>14.6000003814697265625</AltitudeMeters>
            <DistanceMeters>NAN</DistanceMeters>
          </Trackpoint>
          <Trackpoint>
            <Time>2022-07-08T13:00:39.000Z</Time>
            <Position>
              <LatitudeDegrees>43.36773139424622058868408203125</LatitudeDegrees>
              <LongitudeDegrees>-1.7715224437415599822998046875</LongitudeDegrees>
            </Position>
            <AltitudeMeters>14.6000003814697265625</AltitudeMeters>
            <DistanceMeters>NAN</DistanceMeters>
          </Trackpoint>
          <Trackpoint>
            <Time>2022-07-08T13:00:40.000Z</Time>
            <Position>
              <LatitudeDegrees>43.367698453366756439208984375</LatitudeDegrees>
              <LongitudeDegrees>-1.77149956114590167999267578125</LongitudeDegrees>
            </Position>
            <AltitudeMeters>14.6000003814697265625</AltitudeMeters>
            <DistanceMeters>NAN</DistanceMeters>
          </Trackpoint>
          <Trackpoint>
            <Time>2022-07-08T13:00:41.000Z</Time>
            <Position>
              <LatitudeDegrees>43.36767137981951236724853515625</LatitudeDegrees>
              <LongitudeDegrees>-1.77147542126476764678955078125</LongitudeDegrees>
            </Position>
            <AltitudeMeters>14.6000003814697265625</AltitudeMeters>
            <DistanceMeters>NAN</DistanceMeters>
          </Trackpoint>
          <Trackpoint>
            <Time>2022-07-08T13:00:49.000Z</Time>
            <Position>
              <LatitudeDegrees>43.3674247004091739654541015625</LatitudeDegrees>
              <LongitudeDegrees>-1.7712810449302196502685546875</LongitudeDegrees>
            </Position>
            <AltitudeMeters>14.80000019073486328125</AltitudeMeters>
            <DistanceMeters>NAN</DistanceMeters>
          </Trackpoint>
          <Trackpoint>
            <Time>2022-07-08T13:00:57.000Z</Time>
            <Position>
              <LatitudeDegrees>43.3671712316572666168212890625</LatitudeDegrees>
              <LongitudeDegrees>-1.7711122334003448486328125</LongitudeDegrees>
            </Position>
            <AltitudeMeters>14.80000019073486328125</AltitudeMeters>
            <DistanceMeters>NAN</DistanceMeters>
          </Trackpoint>
          <Trackpoint>
            <Time>2022-07-08T13:01:06.000Z</Time>
            <Position>
              <LatitudeDegrees>43.36688666604459285736083984375</LatitudeDegrees>
              <LongitudeDegrees>-1.77091735415160655975341796875</LongitudeDegrees>
            </Position>
            <AltitudeMeters>14.80000019073486328125</AltitudeMeters>
            <DistanceMeters>NAN</DistanceMeters>
          </Trackpoint>
          <Trackpoint>
            <Time>2022-07-08T13:01:13.000Z</Time>
            <Position>
              <LatitudeDegrees>43.3666153438389301300048828125</LatitudeDegrees>
              <LongitudeDegrees>-1.770729012787342071533203125</LongitudeDegrees>
            </Position>
            <AltitudeMeters>14.80000019073486328125</AltitudeMeters>
            <DistanceMeters>NAN</DistanceMeters>
          </Trackpoint>
          <Trackpoint>
            <Time>2022-07-08T13:01:19.000Z</Time>
            <Position>
              <LatitudeDegrees>43.36637939326465129852294921875</LatitudeDegrees>
              <LongitudeDegrees>-1.77056816406548023223876953125</LongitudeDegrees>
            </Position>
            <AltitudeMeters>14.80000019073486328125</AltitudeMeters>
            <DistanceMeters>NAN</DistanceMeters>
          </Trackpoint>
          <Trackpoint>
            <Time>2022-07-08T13:01:26.000Z</Time>
            <Position>
              <LatitudeDegrees>43.36611100472509860992431640625</LatitudeDegrees>
              <LongitudeDegrees>-1.77038376219570636749267578125</LongitudeDegrees>
            </Position>
            <AltitudeMeters>14.80000019073486328125</AltitudeMeters>
            <DistanceMeters>NAN</DistanceMeters>
          </Trackpoint>
          <Trackpoint>
            <Time>2022-07-08T13:01:29.000Z</Time>
            <Position>
              <LatitudeDegrees>43.365990556776523590087890625</LatitudeDegrees>
              <LongitudeDegrees>-1.77031737752258777618408203125</LongitudeDegrees>
            </Position>
            <AltitudeMeters>15</AltitudeMeters>
            <DistanceMeters>NAN</DistanceMeters>
          </Trackpoint>
          <Trackpoint>
            <Time>2022-07-08T13:01:39.000Z</Time>
            <Position>
              <LatitudeDegrees>43.36559132672846317291259765625</LatitudeDegrees>
              <LongitudeDegrees>-1.770057119429111480712890625</LongitudeDegrees>
            </Position>
            <AltitudeMeters>14.6000003814697265625</AltitudeMeters>
            <DistanceMeters>NAN</DistanceMeters>
          </Trackpoint>
          <Trackpoint>
            <Time>2022-07-08T13:01:47.000Z</Time>
            <Position>
              <LatitudeDegrees>43.3652635104954242706298828125</LatitudeDegrees>
              <LongitudeDegrees>-1.7699339054524898529052734375</LongitudeDegrees>
            </Position>
            <AltitudeMeters>14.6000003814697265625</AltitudeMeters>
            <DistanceMeters>NAN</DistanceMeters>
          </Trackpoint>
          <Trackpoint>
            <Time>2022-07-08T13:01:49.000Z</Time>
            <Position>
              <LatitudeDegrees>43.365180194377899169921875</LatitudeDegrees>
              <LongitudeDegrees>-1.7699396051466464996337890625</LongitudeDegrees>
            </Position>
            <AltitudeMeters>14.6000003814697265625</AltitudeMeters>
            <DistanceMeters>NAN</DistanceMeters>
          </Trackpoint>
          <Trackpoint>
            <Time>2022-07-08T13:01:53.000Z</Time>
            <Position>
              <LatitudeDegrees>43.3650113828480243682861328125</LatitudeDegrees>
              <LongitudeDegrees>-1.7700006254017353057861328125</LongitudeDegrees>
            </Position>
            <AltitudeMeters>14.6000003814697265625</AltitudeMeters>
            <DistanceMeters>NAN</DistanceMeters>
          </Trackpoint>
          <Trackpoint>
            <Time>2022-07-08T13:01:57.000Z</Time>
            <Position>
              <LatitudeDegrees>43.364853300154209136962890625</LatitudeDegrees>
              <LongitudeDegrees>-1.7700690217316150665283203125</LongitudeDegrees>
            </Position>
            <AltitudeMeters>14.6000003814697265625</AltitudeMeters>
            <DistanceMeters>NAN</DistanceMeters>
          </Trackpoint>
          <Trackpoint>
            <Time>2022-07-08T13:02:01.000Z</Time>
            <Position>
              <LatitudeDegrees>43.3647213689982891082763671875</LatitudeDegrees>
              <LongitudeDegrees>-1.77016231231391429901123046875</LongitudeDegrees>
            </Position>
            <AltitudeMeters>14.3999996185302734375</AltitudeMeters>
            <DistanceMeters>NAN</DistanceMeters>
          </Trackpoint>
          <Trackpoint>
            <Time>2022-07-08T13:02:04.000Z</Time>
            <Position>
              <LatitudeDegrees>43.3646281622350215911865234375</LatitudeDegrees>
              <LongitudeDegrees>-1.7702376656234264373779296875</LongitudeDegrees>
            </Position>
            <AltitudeMeters>14.3999996185302734375</AltitudeMeters>
            <DistanceMeters>NAN</DistanceMeters>
          </Trackpoint>
          <Trackpoint>
            <Time>2022-07-08T13:02:08.000Z</Time>
            <Position>
              <LatitudeDegrees>43.36453302763402462005615234375</LatitudeDegrees>
              <LongitudeDegrees>-1.77034386433660984039306640625</LongitudeDegrees>
            </Position>
            <AltitudeMeters>14.6000003814697265625</AltitudeMeters>
            <DistanceMeters>NAN</DistanceMeters>
          </Trackpoint>
          <Trackpoint>
            <Time>2022-07-08T13:02:12.000Z</Time>
            <Position>
              <LatitudeDegrees>43.364440239965915679931640625</LatitudeDegrees>
              <LongitudeDegrees>-1.7704683355987071990966796875</LongitudeDegrees>
            </Position>
            <AltitudeMeters>14.80000019073486328125</AltitudeMeters>
            <DistanceMeters>NAN</DistanceMeters>
          </Trackpoint>
          <Trackpoint>
            <Time>2022-07-08T13:02:16.000Z</Time>
            <Position>
              <LatitudeDegrees>43.364355079829692840576171875</LatitudeDegrees>
              <LongitudeDegrees>-1.770603954792022705078125</LongitudeDegrees>
            </Position>
            <AltitudeMeters>14.80000019073486328125</AltitudeMeters>
            <DistanceMeters>NAN</DistanceMeters>
          </Trackpoint>
          <Trackpoint>
            <Time>2022-07-08T13:02:17.000Z</Time>
            <Position>
              <LatitudeDegrees>43.364334292709827423095703125</LatitudeDegrees>
              <LongitudeDegrees>-1.7706423439085483551025390625</LongitudeDegrees>
            </Position>
            <AltitudeMeters>14.80000019073486328125</AltitudeMeters>
            <DistanceMeters>NAN</DistanceMeters>
          </Trackpoint>
          <Trackpoint>
            <Time>2022-07-08T13:02:23.000Z</Time>
            <Position>
              <LatitudeDegrees>43.36421837098896503448486328125</LatitudeDegrees>
              <LongitudeDegrees>-1.7709199525415897369384765625</LongitudeDegrees>
            </Position>
            <AltitudeMeters>14.80000019073486328125</AltitudeMeters>
            <DistanceMeters>NAN</DistanceMeters>
          </Trackpoint>
          <Trackpoint>
            <Time>2022-07-08T13:02:30.000Z</Time>
            <Position>
              <LatitudeDegrees>43.36409901268780231475830078125</LatitudeDegrees>
              <LongitudeDegrees>-1.77129319868981838226318359375</LongitudeDegrees>
            </Position>
            <AltitudeMeters>14.80000019073486328125</AltitudeMeters>
            <DistanceMeters>NAN</DistanceMeters>
          </Trackpoint>
          <Trackpoint>
            <Time>2022-07-08T13:02:33.000Z</Time>
            <Position>
              <LatitudeDegrees>43.36404805071651935577392578125</LatitudeDegrees>
              <LongitudeDegrees>-1.77145354449748992919921875</LongitudeDegrees>
            </Position>
            <AltitudeMeters>14.80000019073486328125</AltitudeMeters>
            <DistanceMeters>NAN</DistanceMeters>
          </Trackpoint>
          <Trackpoint>
            <Time>2022-07-08T13:02:35.000Z</Time>
            <Position>
              <LatitudeDegrees>43.36401485837996006011962890625</LatitudeDegrees>
              <LongitudeDegrees>-1.77155421115458011627197265625</LongitudeDegrees>
            </Position>
            <AltitudeMeters>14.80000019073486328125</AltitudeMeters>
            <DistanceMeters>NAN</DistanceMeters>
          </Trackpoint>
          <Trackpoint>
            <Time>2022-07-08T13:02:38.000Z</Time>
            <Position>
              <LatitudeDegrees>43.36395350284874439239501953125</LatitudeDegrees>
              <LongitudeDegrees>-1.77171950228512287139892578125</LongitudeDegrees>
            </Position>
            <AltitudeMeters>14.80000019073486328125</AltitudeMeters>
            <DistanceMeters>NAN</DistanceMeters>
          </Trackpoint>
          <Trackpoint>
            <Time>2022-07-08T13:02:42.000Z</Time>
            <Position>
              <LatitudeDegrees>43.36387270130217075347900390625</LatitudeDegrees>
              <LongitudeDegrees>-1.771894432604312896728515625</LongitudeDegrees>
            </Position>
            <AltitudeMeters>14.80000019073486328125</AltitudeMeters>
            <DistanceMeters>NAN</DistanceMeters>
          </Trackpoint>
          <Trackpoint>
            <Time>2022-07-08T13:02:51.000Z</Time>
            <Position>
              <LatitudeDegrees>43.36364488117396831512451171875</LatitudeDegrees>
              <LongitudeDegrees>-1.77228779532015323638916015625</LongitudeDegrees>
            </Position>
            <AltitudeMeters>14.6000003814697265625</AltitudeMeters>
            <DistanceMeters>NAN</DistanceMeters>
          </Trackpoint>
          <Trackpoint>
            <Time>2022-07-08T13:02:57.000Z</Time>
            <Position>
              <LatitudeDegrees>43.36347573436796665191650390625</LatitudeDegrees>
              <LongitudeDegrees>-1.7725239135324954986572265625</LongitudeDegrees>
            </Position>
            <AltitudeMeters>14.6000003814697265625</AltitudeMeters>
            <DistanceMeters>NAN</DistanceMeters>
          </Trackpoint>
          <Trackpoint>
            <Time>2022-07-08T13:02:59.000Z</Time>
            <Position>
              <LatitudeDegrees>43.36341488175094127655029296875</LatitudeDegrees>
              <LongitudeDegrees>-1.77259859628975391387939453125</LongitudeDegrees>
            </Position>
            <AltitudeMeters>14.6000003814697265625</AltitudeMeters>
            <DistanceMeters>NAN</DistanceMeters>
          </Trackpoint>
          <Trackpoint>
            <Time>2022-07-08T13:03:02.000Z</Time>
            <Position>
              <LatitudeDegrees>43.3633266203105449676513671875</LatitudeDegrees>
              <LongitudeDegrees>-1.7727036215364933013916015625</LongitudeDegrees>
            </Position>
            <AltitudeMeters>14.6000003814697265625</AltitudeMeters>
            <DistanceMeters>NAN</DistanceMeters>
          </Trackpoint>
          <Trackpoint>
            <Time>2022-07-08T13:03:06.000Z</Time>
            <Position>
              <LatitudeDegrees>43.36320751346647739410400390625</LatitudeDegrees>
              <LongitudeDegrees>-1.7728216387331485748291015625</LongitudeDegrees>
            </Position>
            <AltitudeMeters>14.3999996185302734375</AltitudeMeters>
            <DistanceMeters>NAN</DistanceMeters>
          </Trackpoint>
          <Trackpoint>
            <Time>2022-07-08T13:03:11.000Z</Time>
            <Position>
              <LatitudeDegrees>43.3630438148975372314453125</LatitudeDegrees>
              <LongitudeDegrees>-1.77294761873781681060791015625</LongitudeDegrees>
            </Position>
            <AltitudeMeters>14.19999980926513671875</AltitudeMeters>
            <DistanceMeters>NAN</DistanceMeters>
          </Trackpoint>
          <Trackpoint>
            <Time>2022-07-08T13:03:24.000Z</Time>
            <Position>
              <LatitudeDegrees>43.36260602809488773345947265625</LatitudeDegrees>
              <LongitudeDegrees>-1.7732346989214420318603515625</LongitudeDegrees>
            </Position>
            <AltitudeMeters>14.3999996185302734375</AltitudeMeters>
            <DistanceMeters>NAN</DistanceMeters>
          </Trackpoint>
          <Trackpoint>
            <Time>2022-07-08T13:03:32.000Z</Time>
            <Position>
              <LatitudeDegrees>43.362334035336971282958984375</LatitudeDegrees>
              <LongitudeDegrees>-1.77334508858621120452880859375</LongitudeDegrees>
            </Position>
            <AltitudeMeters>14.19999980926513671875</AltitudeMeters>
            <DistanceMeters>NAN</DistanceMeters>
          </Trackpoint>
          <Trackpoint>
            <Time>2022-07-08T13:03:33.000Z</Time>
            <Position>
              <LatitudeDegrees>43.36230042390525341033935546875</LatitudeDegrees>
              <LongitudeDegrees>-1.77334391511976718902587890625</LongitudeDegrees>
            </Position>
            <AltitudeMeters>14.19999980926513671875</AltitudeMeters>
            <DistanceMeters>NAN</DistanceMeters>
          </Trackpoint>
          <Trackpoint>
            <Time>2022-07-08T13:03:41.000Z</Time>
            <Position>
              <LatitudeDegrees>43.3620287664234638214111328125</LatitudeDegrees>
              <LongitudeDegrees>-1.7732440866529941558837890625</LongitudeDegrees>
            </Position>
            <AltitudeMeters>14.3999996185302734375</AltitudeMeters>
            <DistanceMeters>NAN</DistanceMeters>
          </Trackpoint>
          <Trackpoint>
            <Time>2022-07-08T13:03:49.000Z</Time>
            <Position>
              <LatitudeDegrees>43.36179650388658046722412109375</LatitudeDegrees>
              <LongitudeDegrees>-1.7730958946049213409423828125</LongitudeDegrees>
            </Position>
            <AltitudeMeters>14.3999996185302734375</AltitudeMeters>
            <DistanceMeters>NAN</DistanceMeters>
          </Trackpoint>
          <Trackpoint>
            <Time>2022-07-08T13:03:50.000Z</Time>
            <Position>
              <LatitudeDegrees>43.36176901124417781829833984375</LatitudeDegrees>
              <LongitudeDegrees>-1.773073263466358184814453125</LongitudeDegrees>
            </Position>
            <AltitudeMeters>14.3999996185302734375</AltitudeMeters>
            <DistanceMeters>NAN</DistanceMeters>
          </Trackpoint>
          <Trackpoint>
            <Time>2022-07-08T13:03:52.000Z</Time>
            <Position>
              <LatitudeDegrees>43.361713774502277374267578125</LatitudeDegrees>
              <LongitudeDegrees>-1.77303043194115161895751953125</LongitudeDegrees>
            </Position>
            <AltitudeMeters>14.3999996185302734375</AltitudeMeters>
            <DistanceMeters>NAN</DistanceMeters>
          </Trackpoint>
          <Trackpoint>
            <Time>2022-07-08T13:03:55.000Z</Time>
            <Position>
              <LatitudeDegrees>43.3616924844682216644287109375</LatitudeDegrees>
              <LongitudeDegrees>-1.773019619286060333251953125</LongitudeDegrees>
            </Position>
            <AltitudeMeters>14.6000003814697265625</AltitudeMeters>
            <DistanceMeters>NAN</DistanceMeters>
          </Trackpoint>
          <Trackpoint>
            <Time>2022-07-08T13:03:56.000Z</Time>
            <Position>
              <LatitudeDegrees>43.3616924844682216644287109375</LatitudeDegrees>
              <LongitudeDegrees>-1.773019619286060333251953125</LongitudeDegrees>
            </Position>
            <AltitudeMeters>14.6000003814697265625</AltitudeMeters>
            <DistanceMeters>NAN</DistanceMeters>
          </Trackpoint>
          <Trackpoint>
            <Time>2022-07-08T13:04:33.000Z</Time>
            <Position>
              <LatitudeDegrees>43.36166314780712127685546875</LatitudeDegrees>
              <LongitudeDegrees>-1.77301970310509204864501953125</LongitudeDegrees>
            </Position>
            <AltitudeMeters>14.6000003814697265625</AltitudeMeters>
            <DistanceMeters>NAN</DistanceMeters>
          </Trackpoint>
          <Trackpoint>
            <Time>2022-07-08T13:04:34.000Z</Time>
            <Position>
              <LatitudeDegrees>43.36164495907723903656005859375</LatitudeDegrees>
              <LongitudeDegrees>-1.7730217985808849334716796875</LongitudeDegrees>
            </Position>
            <AltitudeMeters>14.6000003814697265625</AltitudeMeters>
            <DistanceMeters>NAN</DistanceMeters>
          </Trackpoint>
          <Trackpoint>
            <Time>2022-07-08T13:04:36.000Z</Time>
            <Position>
              <LatitudeDegrees>43.36159969680011272430419921875</LatitudeDegrees>
              <LongitudeDegrees>-1.77301081828773021697998046875</LongitudeDegrees>
            </Position>
            <AltitudeMeters>14.6000003814697265625</AltitudeMeters>
            <DistanceMeters>NAN</DistanceMeters>
          </Trackpoint>
          <Trackpoint>
            <Time>2022-07-08T13:04:39.000Z</Time>
            <Position>
              <LatitudeDegrees>43.3615342341363430023193359375</LatitudeDegrees>
              <LongitudeDegrees>-1.77295960485935211181640625</LongitudeDegrees>
            </Position>
            <AltitudeMeters>14.6000003814697265625</AltitudeMeters>
            <DistanceMeters>NAN</DistanceMeters>
          </Trackpoint>
          <Trackpoint>
            <Time>2022-07-08T13:04:41.000Z</Time>
            <Position>
              <LatitudeDegrees>43.36148704402148723602294921875</LatitudeDegrees>
              <LongitudeDegrees>-1.772918701171875</LongitudeDegrees>
            </Position>
            <AltitudeMeters>14.6000003814697265625</AltitudeMeters>
            <DistanceMeters>NAN</DistanceMeters>
          </Trackpoint>
          <Trackpoint>
            <Time>2022-07-08T13:04:43.000Z</Time>
            <Position>
              <LatitudeDegrees>43.36144899018108844757080078125</LatitudeDegrees>
              <LongitudeDegrees>-1.7728886939585208892822265625</LongitudeDegrees>
            </Position>
            <AltitudeMeters>14.80000019073486328125</AltitudeMeters>
            <DistanceMeters>NAN</DistanceMeters>
          </Trackpoint>
          <Trackpoint>
            <Time>2022-07-08T13:04:45.000Z</Time>
            <Position>
              <LatitudeDegrees>43.3613996207714080810546875</LatitudeDegrees>
              <LongitudeDegrees>-1.77284418605268001556396484375</LongitudeDegrees>
            </Position>
            <AltitudeMeters>14.80000019073486328125</AltitudeMeters>
            <DistanceMeters>NAN</DistanceMeters>
          </Trackpoint>
          <Trackpoint>
            <Time>2022-07-08T13:04:50.000Z</Time>
            <Position>
              <LatitudeDegrees>43.3612586371600627899169921875</LatitudeDegrees>
              <LongitudeDegrees>-1.7727515660226345062255859375</LongitudeDegrees>
            </Position>
            <AltitudeMeters>15</AltitudeMeters>
            <DistanceMeters>NAN</DistanceMeters>
          </Trackpoint>
          <Trackpoint>
            <Time>2022-07-08T13:04:56.000Z</Time>
            <Position>
              <LatitudeDegrees>43.3610641770064830780029296875</LatitudeDegrees>
              <LongitudeDegrees>-1.7726412601768970489501953125</LongitudeDegrees>
            </Position>
            <AltitudeMeters>14.80000019073486328125</AltitudeMeters>
            <DistanceMeters>NAN</DistanceMeters>
          </Trackpoint>
          <Trackpoint>
            <Time>2022-07-08T13:05:00.000Z</Time>
            <Position>
              <LatitudeDegrees>43.36091657169163227081298828125</LatitudeDegrees>
              <LongitudeDegrees>-1.772558949887752532958984375</LongitudeDegrees>
            </Position>
            <AltitudeMeters>15</AltitudeMeters>
            <DistanceMeters>NAN</DistanceMeters>
          </Trackpoint>
          <Trackpoint>
            <Time>2022-07-08T13:05:05.000Z</Time>
            <Position>
              <LatitudeDegrees>43.360676430165767669677734375</LatitudeDegrees>
              <LongitudeDegrees>-1.772493906319141387939453125</LongitudeDegrees>
            </Position>
            <AltitudeMeters>15</AltitudeMeters>
            <DistanceMeters>NAN</DistanceMeters>
          </Trackpoint>
          <Trackpoint>
            <Time>2022-07-08T13:05:11.000Z</Time>
            <Position>
              <LatitudeDegrees>43.3604144118726253509521484375</LatitudeDegrees>
              <LongitudeDegrees>-1.772336661815643310546875</LongitudeDegrees>
            </Position>
            <AltitudeMeters>15</AltitudeMeters>
            <DistanceMeters>NAN</DistanceMeters>
          </Trackpoint>
          <Trackpoint>
            <Time>2022-07-08T13:05:17.000Z</Time>
            <Position>
              <LatitudeDegrees>43.36022271774709224700927734375</LatitudeDegrees>
              <LongitudeDegrees>-1.77214731462299823760986328125</LongitudeDegrees>
            </Position>
            <AltitudeMeters>15</AltitudeMeters>
            <DistanceMeters>NAN</DistanceMeters>
          </Trackpoint>
          <Trackpoint>
            <Time>2022-07-08T13:05:23.000Z</Time>
            <Position>
              <LatitudeDegrees>43.36003462783992290496826171875</LatitudeDegrees>
              <LongitudeDegrees>-1.77198068238794803619384765625</LongitudeDegrees>
            </Position>
            <AltitudeMeters>15</AltitudeMeters>
            <DistanceMeters>NAN</DistanceMeters>
          </Trackpoint>
          <Trackpoint>
            <Time>2022-07-08T13:05:26.000Z</Time>
            <Position>
              <LatitudeDegrees>43.35993488319218158721923828125</LatitudeDegrees>
              <LongitudeDegrees>-1.771895103156566619873046875</LongitudeDegrees>
            </Position>
            <AltitudeMeters>15.19999980926513671875</AltitudeMeters>
            <DistanceMeters>NAN</DistanceMeters>
          </Trackpoint>
          <Trackpoint>
            <Time>2022-07-08T13:05:29.000Z</Time>
            <Position>
              <LatitudeDegrees>43.359824158251285552978515625</LatitudeDegrees>
              <LongitudeDegrees>-1.7718000523746013641357421875</LongitudeDegrees>
            </Position>
            <AltitudeMeters>15.19999980926513671875</AltitudeMeters>
            <DistanceMeters>NAN</DistanceMeters>
          </Trackpoint>
          <Trackpoint>
            <Time>2022-07-08T13:05:33.000Z</Time>
            <Position>
              <LatitudeDegrees>43.3596669137477874755859375</LatitudeDegrees>
              <LongitudeDegrees>-1.7717242799699306488037109375</LongitudeDegrees>
            </Position>
            <AltitudeMeters>15.3999996185302734375</AltitudeMeters>
            <DistanceMeters>NAN</DistanceMeters>
          </Trackpoint>
          <Trackpoint>
            <Time>2022-07-08T13:05:35.000Z</Time>
            <Position>
              <LatitudeDegrees>43.3596003614366054534912109375</LatitudeDegrees>
              <LongitudeDegrees>-1.77172620780766010284423828125</LongitudeDegrees>
            </Position>
            <AltitudeMeters>15.6000003814697265625</AltitudeMeters>
            <DistanceMeters>NAN</DistanceMeters>
          </Trackpoint>
          <Trackpoint>
            <Time>2022-07-08T13:05:41.000Z</Time>
            <Position>
              <LatitudeDegrees>43.35937279276549816131591796875</LatitudeDegrees>
              <LongitudeDegrees>-1.7717671953141689300537109375</LongitudeDegrees>
            </Position>
            <AltitudeMeters>15.19999980926513671875</AltitudeMeters>
            <DistanceMeters>NAN</DistanceMeters>
          </Trackpoint>
          <Trackpoint>
            <Time>2022-07-08T13:05:47.000Z</Time>
            <Position>
              <LatitudeDegrees>43.3591836132109165191650390625</LatitudeDegrees>
              <LongitudeDegrees>-1.77172536961734294891357421875</LongitudeDegrees>
            </Position>
            <AltitudeMeters>15.3999996185302734375</AltitudeMeters>
            <DistanceMeters>NAN</DistanceMeters>
          </Trackpoint>
          <Trackpoint>
            <Time>2022-07-08T13:05:52.000Z</Time>
            <Position>
              <LatitudeDegrees>43.35900868289172649383544921875</LatitudeDegrees>
              <LongitudeDegrees>-1.77167792804539203643798828125</LongitudeDegrees>
            </Position>
            <AltitudeMeters>15.80000019073486328125</AltitudeMeters>
            <DistanceMeters>NAN</DistanceMeters>
          </Trackpoint>
          <Trackpoint>
            <Time>2022-07-08T13:06:01.000Z</Time>
            <Position>
              <LatitudeDegrees>43.3587469160556793212890625</LatitudeDegrees>
              <LongitudeDegrees>-1.7717199213802814483642578125</LongitudeDegrees>
            </Position>
            <AltitudeMeters>16.3999996185302734375</AltitudeMeters>
            <DistanceMeters>NAN</DistanceMeters>
          </Trackpoint>
          <Trackpoint>
            <Time>2022-07-08T13:06:02.000Z</Time>
            <Position>
              <LatitudeDegrees>43.3587202616035938262939453125</LatitudeDegrees>
              <LongitudeDegrees>-1.7717249505221843719482421875</LongitudeDegrees>
            </Position>
            <AltitudeMeters>16.3999996185302734375</AltitudeMeters>
            <DistanceMeters>NAN</DistanceMeters>
          </Trackpoint>
          <Trackpoint>
            <Time>2022-07-08T13:06:07.000Z</Time>
            <Position>
              <LatitudeDegrees>43.35857751779258251190185546875</LatitudeDegrees>
              <LongitudeDegrees>-1.77174816839396953582763671875</LongitudeDegrees>
            </Position>
            <AltitudeMeters>16.6000003814697265625</AltitudeMeters>
            <DistanceMeters>NAN</DistanceMeters>
          </Trackpoint>
          <Trackpoint>
            <Time>2022-07-08T13:06:11.000Z</Time>
            <Position>
              <LatitudeDegrees>43.35846637375652790069580078125</LatitudeDegrees>
              <LongitudeDegrees>-1.77176208235323429107666015625</LongitudeDegrees>
            </Position>
            <AltitudeMeters>16.6000003814697265625</AltitudeMeters>
            <DistanceMeters>NAN</DistanceMeters>
          </Trackpoint>
          <Trackpoint>
            <Time>2022-07-08T13:06:18.000Z</Time>
            <Position>
              <LatitudeDegrees>43.3582827262580394744873046875</LatitudeDegrees>
              <LongitudeDegrees>-1.77178789861500263214111328125</LongitudeDegrees>
            </Position>
            <AltitudeMeters>16.799999237060546875</AltitudeMeters>
            <DistanceMeters>NAN</DistanceMeters>
          </Trackpoint>
          <Trackpoint>
            <Time>2022-07-08T13:06:20.000Z</Time>
            <Position>
              <LatitudeDegrees>43.35823595523834228515625</LatitudeDegrees>
              <LongitudeDegrees>-1.77178454585373401641845703125</LongitudeDegrees>
            </Position>
            <AltitudeMeters>17</AltitudeMeters>
            <DistanceMeters>NAN</DistanceMeters>
          </Trackpoint>
          <Trackpoint>
            <Time>2022-07-08T13:06:28.000Z</Time>
            <Position>
              <LatitudeDegrees>43.35803302936255931854248046875</LatitudeDegrees>
              <LongitudeDegrees>-1.77172536961734294891357421875</LongitudeDegrees>
            </Position>
            <AltitudeMeters>17.200000762939453125</AltitudeMeters>
            <DistanceMeters>NAN</DistanceMeters>
          </Trackpoint>
          <Trackpoint>
            <Time>2022-07-08T13:06:31.000Z</Time>
            <Position>
              <LatitudeDegrees>43.357968069612979888916015625</LatitudeDegrees>
              <LongitudeDegrees>-1.77168580703437328338623046875</LongitudeDegrees>
            </Position>
            <AltitudeMeters>17.6000003814697265625</AltitudeMeters>
            <DistanceMeters>NAN</DistanceMeters>
          </Trackpoint>
          <Trackpoint>
            <Time>2022-07-08T13:06:34.000Z</Time>
            <Position>
              <LatitudeDegrees>43.35791249759495258331298828125</LatitudeDegrees>
              <LongitudeDegrees>-1.77166049368679523468017578125</LongitudeDegrees>
            </Position>
            <AltitudeMeters>17.799999237060546875</AltitudeMeters>
            <DistanceMeters>NAN</DistanceMeters>
          </Trackpoint>
          <Trackpoint>
            <Time>2022-07-08T13:06:39.000Z</Time>
            <Position>
              <LatitudeDegrees>43.3577301912009716033935546875</LatitudeDegrees>
              <LongitudeDegrees>-1.7716540396213531494140625</LongitudeDegrees>
            </Position>
            <AltitudeMeters>18.3999996185302734375</AltitudeMeters>
            <DistanceMeters>NAN</DistanceMeters>
          </Trackpoint>
          <Trackpoint>
            <Time>2022-07-08T13:06:41.000Z</Time>
            <Position>
              <LatitudeDegrees>43.35768752731382846832275390625</LatitudeDegrees>
              <LongitudeDegrees>-1.77156711928546428680419921875</LongitudeDegrees>
            </Position>
            <AltitudeMeters>18.6000003814697265625</AltitudeMeters>
            <DistanceMeters>NAN</DistanceMeters>
          </Trackpoint>
          <Trackpoint>
            <Time>2022-07-08T13:06:43.000Z</Time>
            <Position>
              <LatitudeDegrees>43.35766657255589962005615234375</LatitudeDegrees>
              <LongitudeDegrees>-1.7715506069362163543701171875</LongitudeDegrees>
            </Position>
            <AltitudeMeters>18.6000003814697265625</AltitudeMeters>
            <DistanceMeters>NAN</DistanceMeters>
          </Trackpoint>
          <Trackpoint>
            <Time>2022-07-08T13:06:49.000Z</Time>
            <Position>
              <LatitudeDegrees>43.3575293608009815216064453125</LatitudeDegrees>
              <LongitudeDegrees>-1.77154884673655033111572265625</LongitudeDegrees>
            </Position>
            <AltitudeMeters>19</AltitudeMeters>
            <DistanceMeters>NAN</DistanceMeters>
          </Trackpoint>
          <Trackpoint>
            <Time>2022-07-08T13:06:53.000Z</Time>
            <Position>
              <LatitudeDegrees>43.35743959061801433563232421875</LatitudeDegrees>
              <LongitudeDegrees>-1.77155856974422931671142578125</LongitudeDegrees>
            </Position>
            <AltitudeMeters>19.200000762939453125</AltitudeMeters>
            <DistanceMeters>NAN</DistanceMeters>
          </Trackpoint>
          <Trackpoint>
            <Time>2022-07-08T13:06:58.000Z</Time>
            <Position>
              <LatitudeDegrees>43.3573218248784542083740234375</LatitudeDegrees>
              <LongitudeDegrees>-1.771547757089138031005859375</LongitudeDegrees>
            </Position>
            <AltitudeMeters>19.6000003814697265625</AltitudeMeters>
            <DistanceMeters>NAN</DistanceMeters>
          </Trackpoint>
          <Trackpoint>
            <Time>2022-07-08T13:07:00.000Z</Time>
            <Position>
              <LatitudeDegrees>43.35727237164974212646484375</LatitudeDegrees>
              <LongitudeDegrees>-1.7715519480407238006591796875</LongitudeDegrees>
            </Position>
            <AltitudeMeters>19.799999237060546875</AltitudeMeters>
            <DistanceMeters>NAN</DistanceMeters>
          </Trackpoint>
          <Trackpoint>
            <Time>2022-07-08T13:07:11.000Z</Time>
            <Position>
              <LatitudeDegrees>43.35700926370918750762939453125</LatitudeDegrees>
              <LongitudeDegrees>-1.77152420394122600555419921875</LongitudeDegrees>
            </Position>
            <AltitudeMeters>20.799999237060546875</AltitudeMeters>
            <DistanceMeters>NAN</DistanceMeters>
          </Trackpoint>
          <Trackpoint>
            <Time>2022-07-08T13:07:18.000Z</Time>
            <Position>
              <LatitudeDegrees>43.35684531368315219879150390625</LatitudeDegrees>
              <LongitudeDegrees>-1.77152303047478199005126953125</LongitudeDegrees>
            </Position>
            <AltitudeMeters>21</AltitudeMeters>
            <DistanceMeters>NAN</DistanceMeters>
          </Trackpoint>
          <Trackpoint>
            <Time>2022-07-08T13:07:24.000Z</Time>
            <Position>
              <LatitudeDegrees>43.3567122928798198699951171875</LatitudeDegrees>
              <LongitudeDegrees>-1.77152001298964023590087890625</LongitudeDegrees>
            </Position>
            <AltitudeMeters>21</AltitudeMeters>
            <DistanceMeters>NAN</DistanceMeters>
          </Trackpoint>
          <Trackpoint>
            <Time>2022-07-08T13:07:31.000Z</Time>
            <Position>
              <LatitudeDegrees>43.3565530367195606231689453125</LatitudeDegrees>
              <LongitudeDegrees>-1.77152303047478199005126953125</LongitudeDegrees>
            </Position>
            <AltitudeMeters>21.799999237060546875</AltitudeMeters>
            <DistanceMeters>NAN</DistanceMeters>
          </Trackpoint>
          <Trackpoint>
            <Time>2022-07-08T13:07:33.000Z</Time>
            <Position>
              <LatitudeDegrees>43.35651691071689128875732421875</LatitudeDegrees>
              <LongitudeDegrees>-1.77152059972286224365234375</LongitudeDegrees>
            </Position>
            <AltitudeMeters>22</AltitudeMeters>
            <DistanceMeters>NAN</DistanceMeters>
          </Trackpoint>
          <Trackpoint>
            <Time>2022-07-08T13:07:44.000Z</Time>
            <Position>
              <LatitudeDegrees>43.35629965178668498992919921875</LatitudeDegrees>
              <LongitudeDegrees>-1.77151464857161045074462890625</LongitudeDegrees>
            </Position>
            <AltitudeMeters>22.799999237060546875</AltitudeMeters>
            <DistanceMeters>NAN</DistanceMeters>
          </Trackpoint>
          <Trackpoint>
            <Time>2022-07-08T13:07:45.000Z</Time>
            <Position>
              <LatitudeDegrees>43.356280289590358734130859375</LatitudeDegrees>
              <LongitudeDegrees>-1.771514229476451873779296875</LongitudeDegrees>
            </Position>
            <AltitudeMeters>22.799999237060546875</AltitudeMeters>
            <DistanceMeters>NAN</DistanceMeters>
          </Trackpoint>
          <Trackpoint>
            <Time>2022-07-08T13:07:48.000Z</Time>
            <Position>
              <LatitudeDegrees>43.35623569786548614501953125</LatitudeDegrees>
              <LongitudeDegrees>-1.771523617208003997802734375</LongitudeDegrees>
            </Position>
            <AltitudeMeters>23</AltitudeMeters>
            <DistanceMeters>NAN</DistanceMeters>
          </Trackpoint>
          <Trackpoint>
            <Time>2022-07-08T13:07:50.000Z</Time>
            <Position>
              <LatitudeDegrees>43.356232680380344390869140625</LatitudeDegrees>
              <LongitudeDegrees>-1.77152571268379688262939453125</LongitudeDegrees>
            </Position>
            <AltitudeMeters>23.200000762939453125</AltitudeMeters>
            <DistanceMeters>NAN</DistanceMeters>
          </Trackpoint>
          <Trackpoint>
            <Time>2022-07-08T13:07:51.000Z</Time>
            <Position>
              <LatitudeDegrees>43.356232680380344390869140625</LatitudeDegrees>
              <LongitudeDegrees>-1.77152571268379688262939453125</LongitudeDegrees>
            </Position>
            <AltitudeMeters>23.200000762939453125</AltitudeMeters>
            <DistanceMeters>NAN</DistanceMeters>
          </Trackpoint>
          <Trackpoint>
            <Time>2022-07-08T13:09:04.000Z</Time>
            <Position>
              <LatitudeDegrees>43.35626595653593540191650390625</LatitudeDegrees>
              <LongitudeDegrees>-1.7714972980320453643798828125</LongitudeDegrees>
            </Position>
            <AltitudeMeters>21.6000003814697265625</AltitudeMeters>
            <DistanceMeters>NAN</DistanceMeters>
          </Trackpoint>
          <Trackpoint>
            <Time>2022-07-08T13:09:05.000Z</Time>
            <Position>
              <LatitudeDegrees>43.35629261098802089691162109375</LatitudeDegrees>
              <LongitudeDegrees>-1.77148447372019290924072265625</LongitudeDegrees>
            </Position>
            <AltitudeMeters>21.3999996185302734375</AltitudeMeters>
            <DistanceMeters>NAN</DistanceMeters>
          </Trackpoint>
          <Trackpoint>
            <Time>2022-07-08T13:09:06.000Z</Time>
            <Position>
              <LatitudeDegrees>43.3563243784010410308837890625</LatitudeDegrees>
              <LongitudeDegrees>-1.77147843874990940093994140625</LongitudeDegrees>
            </Position>
            <AltitudeMeters>21.3999996185302734375</AltitudeMeters>
            <DistanceMeters>NAN</DistanceMeters>
          </Trackpoint>
          <Trackpoint>
            <Time>2022-07-08T13:09:12.000Z</Time>
            <Position>
              <LatitudeDegrees>43.35657273419201374053955078125</LatitudeDegrees>
              <LongitudeDegrees>-1.77147097885608673095703125</LongitudeDegrees>
            </Position>
            <AltitudeMeters>21.200000762939453125</AltitudeMeters>
            <DistanceMeters>NAN</DistanceMeters>
          </Trackpoint>
          <Trackpoint>
            <Time>2022-07-08T13:09:18.000Z</Time>
            <Position>
              <LatitudeDegrees>43.35685285739600658416748046875</LatitudeDegrees>
              <LongitudeDegrees>-1.7714630998671054840087890625</LongitudeDegrees>
            </Position>
            <AltitudeMeters>20.6000003814697265625</AltitudeMeters>
            <DistanceMeters>NAN</DistanceMeters>
          </Trackpoint>
          <Trackpoint>
            <Time>2022-07-08T13:09:19.000Z</Time>
            <Position>
              <LatitudeDegrees>43.35689962841570377349853515625</LatitudeDegrees>
              <LongitudeDegrees>-1.77146519534289836883544921875</LongitudeDegrees>
            </Position>
            <AltitudeMeters>20.3999996185302734375</AltitudeMeters>
            <DistanceMeters>NAN</DistanceMeters>
          </Trackpoint>
          <Trackpoint>
            <Time>2022-07-08T13:09:24.000Z</Time>
            <Position>
              <LatitudeDegrees>43.35711102001368999481201171875</LatitudeDegrees>
              <LongitudeDegrees>-1.7714620940387248992919921875</LongitudeDegrees>
            </Position>
            <AltitudeMeters>19.799999237060546875</AltitudeMeters>
            <DistanceMeters>NAN</DistanceMeters>
          </Trackpoint>
          <Trackpoint>
            <Time>2022-07-08T13:09:26.000Z</Time>
            <Position>
              <LatitudeDegrees>43.35718327201902866363525390625</LatitudeDegrees>
              <LongitudeDegrees>-1.7714724875986576080322265625</LongitudeDegrees>
            </Position>
            <AltitudeMeters>19.3999996185302734375</AltitudeMeters>
            <DistanceMeters>NAN</DistanceMeters>
          </Trackpoint>
          <Trackpoint>
            <Time>2022-07-08T13:09:28.000Z</Time>
            <Position>
              <LatitudeDegrees>43.3572577871382236480712890625</LatitudeDegrees>
              <LongitudeDegrees>-1.77147676236927509307861328125</LongitudeDegrees>
            </Position>
            <AltitudeMeters>19</AltitudeMeters>
            <DistanceMeters>NAN</DistanceMeters>
          </Trackpoint>
          <Trackpoint>
            <Time>2022-07-08T13:09:30.000Z</Time>
            <Position>
              <LatitudeDegrees>43.35733615793287754058837890625</LatitudeDegrees>
              <LongitudeDegrees>-1.771484054625034332275390625</LongitudeDegrees>
            </Position>
            <AltitudeMeters>19</AltitudeMeters>
            <DistanceMeters>NAN</DistanceMeters>
          </Trackpoint>
          <Trackpoint>
            <Time>2022-07-08T13:09:31.000Z</Time>
            <Position>
              <LatitudeDegrees>43.35737370885908603668212890625</LatitudeDegrees>
              <LongitudeDegrees>-1.77148480899631977081298828125</LongitudeDegrees>
            </Position>
            <AltitudeMeters>19</AltitudeMeters>
            <DistanceMeters>NAN</DistanceMeters>
          </Trackpoint>
          <Trackpoint>
            <Time>2022-07-08T13:09:33.000Z</Time>
            <Position>
              <LatitudeDegrees>43.35743338800966739654541015625</LatitudeDegrees>
              <LongitudeDegrees>-1.771470643579959869384765625</LongitudeDegrees>
            </Position>
            <AltitudeMeters>18.6000003814697265625</AltitudeMeters>
            <DistanceMeters>NAN</DistanceMeters>
          </Trackpoint>
          <Trackpoint>
            <Time>2022-07-08T13:09:34.000Z</Time>
            <Position>
              <LatitudeDegrees>43.3574487268924713134765625</LatitudeDegrees>
              <LongitudeDegrees>-1.77146838046610355377197265625</LongitudeDegrees>
            </Position>
            <AltitudeMeters>18.200000762939453125</AltitudeMeters>
            <DistanceMeters>NAN</DistanceMeters>
          </Trackpoint>
          <Trackpoint>
            <Time>2022-07-08T13:09:36.000Z</Time>
            <Position>
              <LatitudeDegrees>43.35746842436492443084716796875</LatitudeDegrees>
              <LongitudeDegrees>-1.771483719348907470703125</LongitudeDegrees>
            </Position>
            <AltitudeMeters>17.3999996185302734375</AltitudeMeters>
            <DistanceMeters>NAN</DistanceMeters>
          </Trackpoint>
          <Trackpoint>
            <Time>2022-07-08T13:09:38.000Z</Time>
            <Position>
              <LatitudeDegrees>43.3574606291949748992919921875</LatitudeDegrees>
              <LongitudeDegrees>-1.77151246927678585052490234375</LongitudeDegrees>
            </Position>
            <AltitudeMeters>17.200000762939453125</AltitudeMeters>
            <DistanceMeters>NAN</DistanceMeters>
          </Trackpoint>
          <Trackpoint>
            <Time>2022-07-08T13:09:39.000Z</Time>
            <Position>
              <LatitudeDegrees>43.35744512267410755157470703125</LatitudeDegrees>
              <LongitudeDegrees>-1.771524958312511444091796875</LongitudeDegrees>
            </Position>
            <AltitudeMeters>17.200000762939453125</AltitudeMeters>
            <DistanceMeters>NAN</DistanceMeters>
          </Trackpoint>
          <Trackpoint>
            <Time>2022-07-08T13:09:40.000Z</Time>
            <Position>
              <LatitudeDegrees>43.35742953233420848846435546875</LatitudeDegrees>
              <LongitudeDegrees>-1.7715291492640972137451171875</LongitudeDegrees>
            </Position>
            <AltitudeMeters>17.200000762939453125</AltitudeMeters>
            <DistanceMeters>NAN</DistanceMeters>
          </Trackpoint>
          <Trackpoint>
            <Time>2022-07-08T13:09:43.000Z</Time>
            <Position>
              <LatitudeDegrees>43.35735283792018890380859375</LatitudeDegrees>
              <LongitudeDegrees>-1.77152370102703571319580078125</LongitudeDegrees>
            </Position>
            <AltitudeMeters>17.200000762939453125</AltitudeMeters>
            <DistanceMeters>NAN</DistanceMeters>
          </Trackpoint>
          <Trackpoint>
            <Time>2022-07-08T13:09:46.000Z</Time>
            <Position>
              <LatitudeDegrees>43.3572631515562534332275390625</LatitudeDegrees>
              <LongitudeDegrees>-1.77152135409414768218994140625</LongitudeDegrees>
            </Position>
            <AltitudeMeters>17.3999996185302734375</AltitudeMeters>
            <DistanceMeters>NAN</DistanceMeters>
          </Trackpoint>
          <Trackpoint>
            <Time>2022-07-08T13:09:48.000Z</Time>
            <Position>
              <LatitudeDegrees>43.3572115190327167510986328125</LatitudeDegrees>
              <LongitudeDegrees>-1.77154851146042346954345703125</LongitudeDegrees>
            </Position>
            <AltitudeMeters>17.6000003814697265625</AltitudeMeters>
            <DistanceMeters>NAN</DistanceMeters>
          </Trackpoint>
          <Trackpoint>
            <Time>2022-07-08T13:09:49.000Z</Time>
            <Position>
              <LatitudeDegrees>43.35719819180667400360107421875</LatitudeDegrees>
              <LongitudeDegrees>-1.77157231606543064117431640625</LongitudeDegrees>
            </Position>
            <AltitudeMeters>17.799999237060546875</AltitudeMeters>
            <DistanceMeters>NAN</DistanceMeters>
          </Trackpoint>
          <Trackpoint>
            <Time>2022-07-08T13:09:50.000Z</Time>
            <Position>
              <LatitudeDegrees>43.3571964316070079803466796875</LatitudeDegrees>
              <LongitudeDegrees>-1.77159779705107212066650390625</LongitudeDegrees>
            </Position>
            <AltitudeMeters>18</AltitudeMeters>
            <DistanceMeters>NAN</DistanceMeters>
          </Trackpoint>
          <Trackpoint>
            <Time>2022-07-08T13:09:52.000Z</Time>
            <Position>
              <LatitudeDegrees>43.3572021313011646270751953125</LatitudeDegrees>
              <LongitudeDegrees>-1.77165378816425800323486328125</LongitudeDegrees>
            </Position>
            <AltitudeMeters>18.3999996185302734375</AltitudeMeters>
            <DistanceMeters>NAN</DistanceMeters>
          </Trackpoint>
          <Trackpoint>
            <Time>2022-07-08T13:09:54.000Z</Time>
            <Position>
              <LatitudeDegrees>43.35720791481435298919677734375</LatitudeDegrees>
              <LongitudeDegrees>-1.7717091925442218780517578125</LongitudeDegrees>
            </Position>
            <AltitudeMeters>18.6000003814697265625</AltitudeMeters>
            <DistanceMeters>NAN</DistanceMeters>
          </Trackpoint>
          <Trackpoint>
            <Time>2022-07-08T13:10:00.000Z</Time>
            <Position>
              <LatitudeDegrees>43.357220403850078582763671875</LatitudeDegrees>
              <LongitudeDegrees>-1.7718506790697574615478515625</LongitudeDegrees>
            </Position>
            <AltitudeMeters>19.799999237060546875</AltitudeMeters>
            <DistanceMeters>NAN</DistanceMeters>
          </Trackpoint>
          <Trackpoint>
            <Time>2022-07-08T13:10:02.000Z</Time>
            <Position>
              <LatitudeDegrees>43.35722886957228183746337890625</LatitudeDegrees>
              <LongitudeDegrees>-1.7718956060707569122314453125</LongitudeDegrees>
            </Position>
            <AltitudeMeters>20</AltitudeMeters>
            <DistanceMeters>NAN</DistanceMeters>
          </Trackpoint>
          <Trackpoint>
            <Time>2022-07-08T13:10:03.000Z</Time>
            <Position>
              <LatitudeDegrees>43.35723373107612133026123046875</LatitudeDegrees>
              <LongitudeDegrees>-1.7719137109816074371337890625</LongitudeDegrees>
            </Position>
            <AltitudeMeters>20.3999996185302734375</AltitudeMeters>
            <DistanceMeters>NAN</DistanceMeters>
          </Trackpoint>
          <Trackpoint>
            <Time>2022-07-08T13:10:04.000Z</Time>
            <Position>
              <LatitudeDegrees>43.35724043659865856170654296875</LatitudeDegrees>
              <LongitudeDegrees>-1.77193458192050457000732421875</LongitudeDegrees>
            </Position>
            <AltitudeMeters>20.799999237060546875</AltitudeMeters>
            <DistanceMeters>NAN</DistanceMeters>
          </Trackpoint>
          <Trackpoint>
            <Time>2022-07-08T13:10:09.000Z</Time>
            <Position>
              <LatitudeDegrees>43.35725535638630390167236328125</LatitudeDegrees>
              <LongitudeDegrees>-1.77202812395989894866943359375</LongitudeDegrees>
            </Position>
            <AltitudeMeters>22</AltitudeMeters>
            <DistanceMeters>NAN</DistanceMeters>
          </Trackpoint>
          <Trackpoint>
            <Time>2022-07-08T13:10:11.000Z</Time>
            <Position>
              <LatitudeDegrees>43.3572534285485744476318359375</LatitudeDegrees>
              <LongitudeDegrees>-1.77206684835255146026611328125</LongitudeDegrees>
            </Position>
            <AltitudeMeters>22.6000003814697265625</AltitudeMeters>
            <DistanceMeters>NAN</DistanceMeters>
          </Trackpoint>
          <Trackpoint>
            <Time>2022-07-08T13:10:13.000Z</Time>
            <Position>
              <LatitudeDegrees>43.35725225508213043212890625</LatitudeDegrees>
              <LongitudeDegrees>-1.7721073329448699951171875</LongitudeDegrees>
            </Position>
            <AltitudeMeters>23.200000762939453125</AltitudeMeters>
            <DistanceMeters>NAN</DistanceMeters>
          </Trackpoint>
          <Trackpoint>
            <Time>2022-07-08T13:10:16.000Z</Time>
            <Position>
              <LatitudeDegrees>43.35725736804306507110595703125</LatitudeDegrees>
              <LongitudeDegrees>-1.77216055803000926971435546875</LongitudeDegrees>
            </Position>
            <AltitudeMeters>24.3999996185302734375</AltitudeMeters>
            <DistanceMeters>NAN</DistanceMeters>
          </Trackpoint>
          <Trackpoint>
            <Time>2022-07-08T13:10:18.000Z</Time>
            <Position>
              <LatitudeDegrees>43.35725921206176280975341796875</LatitudeDegrees>
              <LongitudeDegrees>-1.77220053970813751220703125</LongitudeDegrees>
            </Position>
            <AltitudeMeters>24.799999237060546875</AltitudeMeters>
            <DistanceMeters>NAN</DistanceMeters>
          </Trackpoint>
          <Trackpoint>
            <Time>2022-07-08T13:10:20.000Z</Time>
            <Position>
              <LatitudeDegrees>43.357263319194316864013671875</LatitudeDegrees>
              <LongitudeDegrees>-1.772241778671741485595703125</LongitudeDegrees>
            </Position>
            <AltitudeMeters>25.3999996185302734375</AltitudeMeters>
            <DistanceMeters>NAN</DistanceMeters>
          </Trackpoint>
          <Trackpoint>
            <Time>2022-07-08T13:10:24.000Z</Time>
            <Position>
              <LatitudeDegrees>43.3572738803923130035400390625</LatitudeDegrees>
              <LongitudeDegrees>-1.77230170927941799163818359375</LongitudeDegrees>
            </Position>
            <AltitudeMeters>26.6000003814697265625</AltitudeMeters>
            <DistanceMeters>NAN</DistanceMeters>
          </Trackpoint>
          <Trackpoint>
            <Time>2022-07-08T13:10:28.000Z</Time>
            <Position>
              <LatitudeDegrees>43.35729273967444896697998046875</LatitudeDegrees>
              <LongitudeDegrees>-1.7723693512380123138427734375</LongitudeDegrees>
            </Position>
            <AltitudeMeters>27.799999237060546875</AltitudeMeters>
            <DistanceMeters>NAN</DistanceMeters>
          </Trackpoint>
          <Trackpoint>
            <Time>2022-07-08T13:10:30.000Z</Time>
            <Position>
              <LatitudeDegrees>43.3572970144450664520263671875</LatitudeDegrees>
              <LongitudeDegrees>-1.772408746182918548583984375</LongitudeDegrees>
            </Position>
            <AltitudeMeters>28.3999996185302734375</AltitudeMeters>
            <DistanceMeters>NAN</DistanceMeters>
          </Trackpoint>
          <Trackpoint>
            <Time>2022-07-08T13:10:32.000Z</Time>
            <Position>
              <LatitudeDegrees>43.35730279795825481414794921875</LatitudeDegrees>
              <LongitudeDegrees>-1.77244638092815876007080078125</LongitudeDegrees>
            </Position>
            <AltitudeMeters>28.799999237060546875</AltitudeMeters>
            <DistanceMeters>NAN</DistanceMeters>
          </Trackpoint>
          <Trackpoint>
            <Time>2022-07-08T13:10:34.000Z</Time>
            <Position>
              <LatitudeDegrees>43.35730321705341339111328125</LatitudeDegrees>
              <LongitudeDegrees>-1.77248351275920867919921875</LongitudeDegrees>
            </Position>
            <AltitudeMeters>29.200000762939453125</AltitudeMeters>
            <DistanceMeters>NAN</DistanceMeters>
          </Trackpoint>
          <Trackpoint>
            <Time>2022-07-08T13:10:37.000Z</Time>
            <Position>
              <LatitudeDegrees>43.35730900056660175323486328125</LatitudeDegrees>
              <LongitudeDegrees>-1.7725359834730625152587890625</LongitudeDegrees>
            </Position>
            <AltitudeMeters>29.799999237060546875</AltitudeMeters>
            <DistanceMeters>NAN</DistanceMeters>
          </Trackpoint>
          <Trackpoint>
            <Time>2022-07-08T13:10:39.000Z</Time>
            <Position>
              <LatitudeDegrees>43.35731470026075839996337890625</LatitudeDegrees>
              <LongitudeDegrees>-1.7725708521902561187744140625</LongitudeDegrees>
            </Position>
            <AltitudeMeters>30.3999996185302734375</AltitudeMeters>
            <DistanceMeters>NAN</DistanceMeters>
          </Trackpoint>
          <Trackpoint>
            <Time>2022-07-08T13:10:41.000Z</Time>
            <Position>
              <LatitudeDegrees>43.35732257924973964691162109375</LatitudeDegrees>
              <LongitudeDegrees>-1.77260664291679859161376953125</LongitudeDegrees>
            </Position>
            <AltitudeMeters>30.6000003814697265625</AltitudeMeters>
            <DistanceMeters>NAN</DistanceMeters>
          </Trackpoint>
          <Trackpoint>
            <Time>2022-07-08T13:10:42.000Z</Time>
            <Position>
              <LatitudeDegrees>43.35732492618262767791748046875</LatitudeDegrees>
              <LongitudeDegrees>-1.77262541837990283966064453125</LongitudeDegrees>
            </Position>
            <AltitudeMeters>30.799999237060546875</AltitudeMeters>
            <DistanceMeters>NAN</DistanceMeters>
          </Trackpoint>
          <Trackpoint>
            <Time>2022-07-08T13:10:43.000Z</Time>
            <Position>
              <LatitudeDegrees>43.3573245070874691009521484375</LatitudeDegrees>
              <LongitudeDegrees>-1.772645451128482818603515625</LongitudeDegrees>
            </Position>
            <AltitudeMeters>31</AltitudeMeters>
            <DistanceMeters>NAN</DistanceMeters>
          </Trackpoint>
          <Trackpoint>
            <Time>2022-07-08T13:10:46.000Z</Time>
            <Position>
              <LatitudeDegrees>43.35733448155224323272705078125</LatitudeDegrees>
              <LongitudeDegrees>-1.77269699983298778533935546875</LongitudeDegrees>
            </Position>
            <AltitudeMeters>31.799999237060546875</AltitudeMeters>
            <DistanceMeters>NAN</DistanceMeters>
          </Trackpoint>
          <Trackpoint>
            <Time>2022-07-08T13:10:47.000Z</Time>
            <Position>
              <LatitudeDegrees>43.35733565501868724822998046875</LatitudeDegrees>
              <LongitudeDegrees>-1.772717535495758056640625</LongitudeDegrees>
            </Position>
            <AltitudeMeters>32</AltitudeMeters>
            <DistanceMeters>NAN</DistanceMeters>
          </Trackpoint>
          <Trackpoint>
            <Time>2022-07-08T13:10:51.000Z</Time>
            <Position>
              <LatitudeDegrees>43.35735107772052288055419921875</LatitudeDegrees>
              <LongitudeDegrees>-1.7727897875010967254638671875</LongitudeDegrees>
            </Position>
            <AltitudeMeters>32.59999847412109375</AltitudeMeters>
            <DistanceMeters>NAN</DistanceMeters>
          </Trackpoint>
          <Trackpoint>
            <Time>2022-07-08T13:10:56.000Z</Time>
            <Position>
              <LatitudeDegrees>43.3573965914547443389892578125</LatitudeDegrees>
              <LongitudeDegrees>-1.77288182079792022705078125</LongitudeDegrees>
            </Position>
            <AltitudeMeters>32.799999237060546875</AltitudeMeters>
            <DistanceMeters>NAN</DistanceMeters>
          </Trackpoint>
          <Trackpoint>
            <Time>2022-07-08T13:10:58.000Z</Time>
            <Position>
              <LatitudeDegrees>43.35738837718963623046875</LatitudeDegrees>
              <LongitudeDegrees>-1.77291610278189182281494140625</LongitudeDegrees>
            </Position>
            <AltitudeMeters>33</AltitudeMeters>
            <DistanceMeters>NAN</DistanceMeters>
          </Trackpoint>
          <Trackpoint>
            <Time>2022-07-08T13:11:00.000Z</Time>
            <Position>
              <LatitudeDegrees>43.35738410241901874542236328125</LatitudeDegrees>
              <LongitudeDegrees>-1.77295130677521228790283203125</LongitudeDegrees>
            </Position>
            <AltitudeMeters>33.40000152587890625</AltitudeMeters>
            <DistanceMeters>NAN</DistanceMeters>
          </Trackpoint>
          <Trackpoint>
            <Time>2022-07-08T13:11:02.000Z</Time>
            <Position>
              <LatitudeDegrees>43.3573768101632595062255859375</LatitudeDegrees>
              <LongitudeDegrees>-1.77298299036920070648193359375</LongitudeDegrees>
            </Position>
            <AltitudeMeters>33.799999237060546875</AltitudeMeters>
            <DistanceMeters>NAN</DistanceMeters>
          </Trackpoint>
          <Trackpoint>
            <Time>2022-07-08T13:11:03.000Z</Time>
            <Position>
              <LatitudeDegrees>43.3573727868497371673583984375</LatitudeDegrees>
              <LongitudeDegrees>-1.77299355156719684600830078125</LongitudeDegrees>
            </Position>
            <AltitudeMeters>34</AltitudeMeters>
            <DistanceMeters>NAN</DistanceMeters>
          </Trackpoint>
          <Trackpoint>
            <Time>2022-07-08T13:11:04.000Z</Time>
            <Position>
              <LatitudeDegrees>43.3573674224317073822021484375</LatitudeDegrees>
              <LongitudeDegrees>-1.77300520241260528564453125</LongitudeDegrees>
            </Position>
            <AltitudeMeters>34</AltitudeMeters>
            <DistanceMeters>NAN</DistanceMeters>
          </Trackpoint>
          <Trackpoint>
            <Time>2022-07-08T13:11:05.000Z</Time>
            <Position>
              <LatitudeDegrees>43.35735962726175785064697265625</LatitudeDegrees>
              <LongitudeDegrees>-1.773024983704090118408203125</LongitudeDegrees>
            </Position>
            <AltitudeMeters>34.200000762939453125</AltitudeMeters>
            <DistanceMeters>NAN</DistanceMeters>
          </Trackpoint>
          <Trackpoint>
            <Time>2022-07-08T13:11:06.000Z</Time>
            <Position>
              <LatitudeDegrees>43.3573526702821254730224609375</LatitudeDegrees>
              <LongitudeDegrees>-1.77303873002529144287109375</LongitudeDegrees>
            </Position>
            <AltitudeMeters>34.40000152587890625</AltitudeMeters>
            <DistanceMeters>NAN</DistanceMeters>
          </Trackpoint>
          <Trackpoint>
            <Time>2022-07-08T13:11:07.000Z</Time>
            <Position>
              <LatitudeDegrees>43.357349820435047149658203125</LatitudeDegrees>
              <LongitudeDegrees>-1.7730590142309665679931640625</LongitudeDegrees>
            </Position>
            <AltitudeMeters>34.40000152587890625</AltitudeMeters>
            <DistanceMeters>NAN</DistanceMeters>
          </Trackpoint>
          <Trackpoint>
            <Time>2022-07-08T13:11:08.000Z</Time>
            <Position>
              <LatitudeDegrees>43.35734537802636623382568359375</LatitudeDegrees>
              <LongitudeDegrees>-1.77307653240859508514404296875</LongitudeDegrees>
            </Position>
            <AltitudeMeters>34.59999847412109375</AltitudeMeters>
            <DistanceMeters>NAN</DistanceMeters>
          </Trackpoint>
          <Trackpoint>
            <Time>2022-07-08T13:11:12.000Z</Time>
            <Position>
              <LatitudeDegrees>43.3573174662888050079345703125</LatitudeDegrees>
              <LongitudeDegrees>-1.77315138280391693115234375</LongitudeDegrees>
            </Position>
            <AltitudeMeters>34.799999237060546875</AltitudeMeters>
            <DistanceMeters>NAN</DistanceMeters>
          </Trackpoint>
          <Trackpoint>
            <Time>2022-07-08T13:11:13.000Z</Time>
            <Position>
              <LatitudeDegrees>43.3573221601545810699462890625</LatitudeDegrees>
              <LongitudeDegrees>-1.77317610941827297210693359375</LongitudeDegrees>
            </Position>
            <AltitudeMeters>35</AltitudeMeters>
            <DistanceMeters>NAN</DistanceMeters>
          </Trackpoint>
          <Trackpoint>
            <Time>2022-07-08T13:11:14.000Z</Time>
            <Position>
              <LatitudeDegrees>43.35731654427945613861083984375</LatitudeDegrees>
              <LongitudeDegrees>-1.7731931246817111968994140625</LongitudeDegrees>
            </Position>
            <AltitudeMeters>35</AltitudeMeters>
            <DistanceMeters>NAN</DistanceMeters>
          </Trackpoint>
          <Trackpoint>
            <Time>2022-07-08T13:11:15.000Z</Time>
            <Position>
              <LatitudeDegrees>43.35731185041368007659912109375</LatitudeDegrees>
              <LongitudeDegrees>-1.7732070386409759521484375</LongitudeDegrees>
            </Position>
            <AltitudeMeters>35.200000762939453125</AltitudeMeters>
            <DistanceMeters>NAN</DistanceMeters>
          </Trackpoint>
          <Trackpoint>
            <Time>2022-07-08T13:11:18.000Z</Time>
            <Position>
              <LatitudeDegrees>43.35729877464473247528076171875</LatitudeDegrees>
              <LongitudeDegrees>-1.77326931618154048919677734375</LongitudeDegrees>
            </Position>
            <AltitudeMeters>35.40000152587890625</AltitudeMeters>
            <DistanceMeters>NAN</DistanceMeters>
          </Trackpoint>
          <Trackpoint>
            <Time>2022-07-08T13:11:22.000Z</Time>
            <Position>
              <LatitudeDegrees>43.357274048030376434326171875</LatitudeDegrees>
              <LongitudeDegrees>-1.77337400615215301513671875</LongitudeDegrees>
            </Position>
            <AltitudeMeters>35.799999237060546875</AltitudeMeters>
            <DistanceMeters>NAN</DistanceMeters>
          </Trackpoint>
          <Trackpoint>
            <Time>2022-07-08T13:11:25.000Z</Time>
            <Position>
              <LatitudeDegrees>43.35726642049849033355712890625</LatitudeDegrees>
              <LongitudeDegrees>-1.7734727449715137481689453125</LongitudeDegrees>
            </Position>
            <AltitudeMeters>36</AltitudeMeters>
            <DistanceMeters>NAN</DistanceMeters>
          </Trackpoint>
          <Trackpoint>
            <Time>2022-07-08T13:11:28.000Z</Time>
            <Position>
              <LatitudeDegrees>43.35726574994623661041259765625</LatitudeDegrees>
              <LongitudeDegrees>-1.7735957913100719451904296875</LongitudeDegrees>
            </Position>
            <AltitudeMeters>35.59999847412109375</AltitudeMeters>
            <DistanceMeters>NAN</DistanceMeters>
          </Trackpoint>
          <Trackpoint>
            <Time>2022-07-08T13:11:29.000Z</Time>
            <Position>
              <LatitudeDegrees>43.35725585930049419403076171875</LatitudeDegrees>
              <LongitudeDegrees>-1.7736457474529743194580078125</LongitudeDegrees>
            </Position>
            <AltitudeMeters>35.40000152587890625</AltitudeMeters>
            <DistanceMeters>NAN</DistanceMeters>
          </Trackpoint>
          <Trackpoint>
            <Time>2022-07-08T13:11:31.000Z</Time>
            <Position>
              <LatitudeDegrees>43.35723188705742359161376953125</LatitudeDegrees>
              <LongitudeDegrees>-1.773755550384521484375</LongitudeDegrees>
            </Position>
            <AltitudeMeters>35.200000762939453125</AltitudeMeters>
            <DistanceMeters>NAN</DistanceMeters>
          </Trackpoint>
          <Trackpoint>
            <Time>2022-07-08T13:11:33.000Z</Time>
            <Position>
              <LatitudeDegrees>43.3571965992450714111328125</LatitudeDegrees>
              <LongitudeDegrees>-1.7738918401300907135009765625</LongitudeDegrees>
            </Position>
            <AltitudeMeters>35.200000762939453125</AltitudeMeters>
            <DistanceMeters>NAN</DistanceMeters>
          </Trackpoint>
          <Trackpoint>
            <Time>2022-07-08T13:11:34.000Z</Time>
            <Position>
              <LatitudeDegrees>43.3571885526180267333984375</LatitudeDegrees>
              <LongitudeDegrees>-1.7739478312432765960693359375</LongitudeDegrees>
            </Position>
            <AltitudeMeters>35.200000762939453125</AltitudeMeters>
            <DistanceMeters>NAN</DistanceMeters>
          </Trackpoint>
          <Trackpoint>
            <Time>2022-07-08T13:11:37.000Z</Time>
            <Position>
              <LatitudeDegrees>43.357172124087810516357421875</LatitudeDegrees>
              <LongitudeDegrees>-1.7741265334188938140869140625</LongitudeDegrees>
            </Position>
            <AltitudeMeters>35.200000762939453125</AltitudeMeters>
            <DistanceMeters>NAN</DistanceMeters>
          </Trackpoint>
          <Trackpoint>
            <Time>2022-07-08T13:11:39.000Z</Time>
            <Position>
              <LatitudeDegrees>43.357171118259429931640625</LatitudeDegrees>
              <LongitudeDegrees>-1.77422334440052509307861328125</LongitudeDegrees>
            </Position>
            <AltitudeMeters>35.200000762939453125</AltitudeMeters>
            <DistanceMeters>NAN</DistanceMeters>
          </Trackpoint>
          <Trackpoint>
            <Time>2022-07-08T13:11:40.000Z</Time>
            <Position>
              <LatitudeDegrees>43.3571686036884784698486328125</LatitudeDegrees>
              <LongitudeDegrees>-1.77425301633775234222412109375</LongitudeDegrees>
            </Position>
            <AltitudeMeters>35.200000762939453125</AltitudeMeters>
            <DistanceMeters>NAN</DistanceMeters>
          </Trackpoint>
          <Trackpoint>
            <Time>2022-07-08T13:11:43.000Z</Time>
            <Position>
              <LatitudeDegrees>43.35712057538330554962158203125</LatitudeDegrees>
              <LongitudeDegrees>-1.77429676987230777740478515625</LongitudeDegrees>
            </Position>
            <AltitudeMeters>34.59999847412109375</AltitudeMeters>
            <DistanceMeters>NAN</DistanceMeters>
          </Trackpoint>
          <Trackpoint>
            <Time>2022-07-08T13:11:44.000Z</Time>
            <Position>
              <LatitudeDegrees>43.35711018182337284088134765625</LatitudeDegrees>
              <LongitudeDegrees>-1.77430464886128902435302734375</LongitudeDegrees>
            </Position>
            <AltitudeMeters>34.40000152587890625</AltitudeMeters>
            <DistanceMeters>NAN</DistanceMeters>
          </Trackpoint>
          <Trackpoint>
            <Time>2022-07-08T13:11:50.000Z</Time>
            <Position>
              <LatitudeDegrees>43.35699141025543212890625</LatitudeDegrees>
              <LongitudeDegrees>-1.774347312748432159423828125</LongitudeDegrees>
            </Position>
            <AltitudeMeters>34.59999847412109375</AltitudeMeters>
            <DistanceMeters>NAN</DistanceMeters>
          </Trackpoint>
          <Trackpoint>
            <Time>2022-07-08T13:11:55.000Z</Time>
            <Position>
              <LatitudeDegrees>43.35686543025076389312744140625</LatitudeDegrees>
              <LongitudeDegrees>-1.77432996220886707305908203125</LongitudeDegrees>
            </Position>
            <AltitudeMeters>34.59999847412109375</AltitudeMeters>
            <DistanceMeters>NAN</DistanceMeters>
          </Trackpoint>
          <Trackpoint>
            <Time>2022-07-08T13:12:00.000Z</Time>
            <Position>
              <LatitudeDegrees>43.356693349778652191162109375</LatitudeDegrees>
              <LongitudeDegrees>-1.77433499135076999664306640625</LongitudeDegrees>
            </Position>
            <AltitudeMeters>35</AltitudeMeters>
            <DistanceMeters>NAN</DistanceMeters>
          </Trackpoint>
          <Trackpoint>
            <Time>2022-07-08T13:12:06.000Z</Time>
            <Position>
              <LatitudeDegrees>43.356562592089176177978515625</LatitudeDegrees>
              <LongitudeDegrees>-1.77427849732339382171630859375</LongitudeDegrees>
            </Position>
            <AltitudeMeters>35.200000762939453125</AltitudeMeters>
            <DistanceMeters>NAN</DistanceMeters>
          </Trackpoint>
          <Trackpoint>
            <Time>2022-07-08T13:12:09.000Z</Time>
            <Position>
              <LatitudeDegrees>43.356449604034423828125</LatitudeDegrees>
              <LongitudeDegrees>-1.77428520284593105316162109375</LongitudeDegrees>
            </Position>
            <AltitudeMeters>35.40000152587890625</AltitudeMeters>
            <DistanceMeters>NAN</DistanceMeters>
          </Trackpoint>
          <Trackpoint>
            <Time>2022-07-08T13:12:12.000Z</Time>
            <Position>
              <LatitudeDegrees>43.3563468419015407562255859375</LatitudeDegrees>
              <LongitudeDegrees>-1.7742992006242275238037109375</LongitudeDegrees>
            </Position>
            <AltitudeMeters>35.59999847412109375</AltitudeMeters>
            <DistanceMeters>NAN</DistanceMeters>
          </Trackpoint>
          <Trackpoint>
            <Time>2022-07-08T13:12:14.000Z</Time>
            <Position>
              <LatitudeDegrees>43.35629068315029144287109375</LatitudeDegrees>
              <LongitudeDegrees>-1.77429660223424434661865234375</LongitudeDegrees>
            </Position>
            <AltitudeMeters>35.59999847412109375</AltitudeMeters>
            <DistanceMeters>NAN</DistanceMeters>
          </Trackpoint>
          <Trackpoint>
            <Time>2022-07-08T13:12:15.000Z</Time>
            <Position>
              <LatitudeDegrees>43.3562633581459522247314453125</LatitudeDegrees>
              <LongitudeDegrees>-1.7742965184152126312255859375</LongitudeDegrees>
            </Position>
            <AltitudeMeters>35.59999847412109375</AltitudeMeters>
            <DistanceMeters>NAN</DistanceMeters>
          </Trackpoint>
          <Trackpoint>
            <Time>2022-07-08T13:12:17.000Z</Time>
            <Position>
              <LatitudeDegrees>43.3562140725553035736083984375</LatitudeDegrees>
              <LongitudeDegrees>-1.77429735660552978515625</LongitudeDegrees>
            </Position>
            <AltitudeMeters>35.59999847412109375</AltitudeMeters>
            <DistanceMeters>NAN</DistanceMeters>
          </Trackpoint>
          <Trackpoint>
            <Time>2022-07-08T13:12:19.000Z</Time>
            <Position>
              <LatitudeDegrees>43.35613905452191829681396484375</LatitudeDegrees>
              <LongitudeDegrees>-1.774294339120388031005859375</LongitudeDegrees>
            </Position>
            <AltitudeMeters>35.59999847412109375</AltitudeMeters>
            <DistanceMeters>NAN</DistanceMeters>
          </Trackpoint>
          <Trackpoint>
            <Time>2022-07-08T13:12:20.000Z</Time>
            <Position>
              <LatitudeDegrees>43.3561108075082302093505859375</LatitudeDegrees>
              <LongitudeDegrees>-1.774292998015880584716796875</LongitudeDegrees>
            </Position>
            <AltitudeMeters>35.59999847412109375</AltitudeMeters>
            <DistanceMeters>NAN</DistanceMeters>
          </Trackpoint>
          <Trackpoint>
            <Time>2022-07-08T13:12:26.000Z</Time>
            <Position>
              <LatitudeDegrees>43.3558871783316135406494140625</LatitudeDegrees>
              <LongitudeDegrees>-1.77429593168199062347412109375</LongitudeDegrees>
            </Position>
            <AltitudeMeters>36</AltitudeMeters>
            <DistanceMeters>NAN</DistanceMeters>
          </Trackpoint>
          <Trackpoint>
            <Time>2022-07-08T13:12:28.000Z</Time>
            <Position>
              <LatitudeDegrees>43.35582791827619075775146484375</LatitudeDegrees>
              <LongitudeDegrees>-1.7742852866649627685546875</LongitudeDegrees>
            </Position>
            <AltitudeMeters>36</AltitudeMeters>
            <DistanceMeters>NAN</DistanceMeters>
          </Trackpoint>
          <Trackpoint>
            <Time>2022-07-08T13:12:31.000Z</Time>
            <Position>
              <LatitudeDegrees>43.355751223862171173095703125</LatitudeDegrees>
              <LongitudeDegrees>-1.774262152612209320068359375</LongitudeDegrees>
            </Position>
            <AltitudeMeters>36</AltitudeMeters>
            <DistanceMeters>NAN</DistanceMeters>
          </Trackpoint>
          <Trackpoint>
            <Time>2022-07-08T13:12:35.000Z</Time>
            <Position>
              <LatitudeDegrees>43.3556162752211093902587890625</LatitudeDegrees>
              <LongitudeDegrees>-1.774274222552776336669921875</LongitudeDegrees>
            </Position>
            <AltitudeMeters>36.200000762939453125</AltitudeMeters>
            <DistanceMeters>NAN</DistanceMeters>
          </Trackpoint>
          <Trackpoint>
            <Time>2022-07-08T13:12:40.000Z</Time>
            <Position>
              <LatitudeDegrees>43.35548576898872852325439453125</LatitudeDegrees>
              <LongitudeDegrees>-1.77429802715778350830078125</LongitudeDegrees>
            </Position>
            <AltitudeMeters>36.40000152587890625</AltitudeMeters>
            <DistanceMeters>NAN</DistanceMeters>
          </Trackpoint>
          <Trackpoint>
            <Time>2022-07-08T13:12:43.000Z</Time>
            <Position>
              <LatitudeDegrees>43.3554020337760448455810546875</LatitudeDegrees>
              <LongitudeDegrees>-1.7743380926549434661865234375</LongitudeDegrees>
            </Position>
            <AltitudeMeters>36.40000152587890625</AltitudeMeters>
            <DistanceMeters>NAN</DistanceMeters>
          </Trackpoint>
          <Trackpoint>
            <Time>2022-07-08T13:12:46.000Z</Time>
            <Position>
              <LatitudeDegrees>43.3553333021700382232666015625</LatitudeDegrees>
              <LongitudeDegrees>-1.77438796497881412506103515625</LongitudeDegrees>
            </Position>
            <AltitudeMeters>36.59999847412109375</AltitudeMeters>
            <DistanceMeters>NAN</DistanceMeters>
          </Trackpoint>
          <Trackpoint>
            <Time>2022-07-08T13:12:51.000Z</Time>
            <Position>
              <LatitudeDegrees>43.35528158582746982574462890625</LatitudeDegrees>
              <LongitudeDegrees>-1.77443423308432102203369140625</LongitudeDegrees>
            </Position>
            <AltitudeMeters>36.59999847412109375</AltitudeMeters>
            <DistanceMeters>NAN</DistanceMeters>
          </Trackpoint>
          <Trackpoint>
            <Time>2022-07-08T13:12:53.000Z</Time>
            <Position>
              <LatitudeDegrees>43.35528477095067501068115234375</LatitudeDegrees>
              <LongitudeDegrees>-1.77443456836044788360595703125</LongitudeDegrees>
            </Position>
            <AltitudeMeters>36.40000152587890625</AltitudeMeters>
            <DistanceMeters>NAN</DistanceMeters>
          </Trackpoint>
          <Trackpoint>
            <Time>2022-07-08T13:13:16.000Z</Time>
            <Position>
              <LatitudeDegrees>43.35526532493531703948974609375</LatitudeDegrees>
              <LongitudeDegrees>-1.77444613538682460784912109375</LongitudeDegrees>
            </Position>
            <AltitudeMeters>37</AltitudeMeters>
            <DistanceMeters>NAN</DistanceMeters>
          </Trackpoint>
          <Trackpoint>
            <Time>2022-07-08T13:13:18.000Z</Time>
            <Position>
              <LatitudeDegrees>43.35522224195301532745361328125</LatitudeDegrees>
              <LongitudeDegrees>-1.7744738794863224029541015625</LongitudeDegrees>
            </Position>
            <AltitudeMeters>37</AltitudeMeters>
            <DistanceMeters>NAN</DistanceMeters>
          </Trackpoint>
          <Trackpoint>
            <Time>2022-07-08T13:13:23.000Z</Time>
            <Position>
              <LatitudeDegrees>43.35508771240711212158203125</LatitudeDegrees>
              <LongitudeDegrees>-1.774560548365116119384765625</LongitudeDegrees>
            </Position>
            <AltitudeMeters>37.200000762939453125</AltitudeMeters>
            <DistanceMeters>NAN</DistanceMeters>
          </Trackpoint>
          <Trackpoint>
            <Time>2022-07-08T13:13:25.000Z</Time>
            <Position>
              <LatitudeDegrees>43.35503264330327510833740234375</LatitudeDegrees>
              <LongitudeDegrees>-1.77458745427429676055908203125</LongitudeDegrees>
            </Position>
            <AltitudeMeters>37.200000762939453125</AltitudeMeters>
            <DistanceMeters>NAN</DistanceMeters>
          </Trackpoint>
          <Trackpoint>
            <Time>2022-07-08T13:13:32.000Z</Time>
            <Position>
              <LatitudeDegrees>43.35485637187957763671875</LatitudeDegrees>
              <LongitudeDegrees>-1.77470345981419086456298828125</LongitudeDegrees>
            </Position>
            <AltitudeMeters>38.200000762939453125</AltitudeMeters>
            <DistanceMeters>NAN</DistanceMeters>
          </Trackpoint>
          <Trackpoint>
            <Time>2022-07-08T13:13:35.000Z</Time>
            <Position>
              <LatitudeDegrees>43.35478235967457294464111328125</LatitudeDegrees>
              <LongitudeDegrees>-1.77475760690867900848388671875</LongitudeDegrees>
            </Position>
            <AltitudeMeters>38.59999847412109375</AltitudeMeters>
            <DistanceMeters>NAN</DistanceMeters>
          </Trackpoint>
          <Trackpoint>
            <Time>2022-07-08T13:13:40.000Z</Time>
            <Position>
              <LatitudeDegrees>43.3546848781406879425048828125</LatitudeDegrees>
              <LongitudeDegrees>-1.774798594415187835693359375</LongitudeDegrees>
            </Position>
            <AltitudeMeters>39</AltitudeMeters>
            <DistanceMeters>NAN</DistanceMeters>
          </Trackpoint>
          <Trackpoint>
            <Time>2022-07-08T13:13:41.000Z</Time>
            <Position>
              <LatitudeDegrees>43.3546667732298374176025390625</LatitudeDegrees>
              <LongitudeDegrees>-1.77479155361652374267578125</LongitudeDegrees>
            </Position>
            <AltitudeMeters>39.200000762939453125</AltitudeMeters>
            <DistanceMeters>NAN</DistanceMeters>
          </Trackpoint>
          <Trackpoint>
            <Time>2022-07-08T13:13:43.000Z</Time>
            <Position>
              <LatitudeDegrees>43.35466350428760051727294921875</LatitudeDegrees>
              <LongitudeDegrees>-1.7747873626649379730224609375</LongitudeDegrees>
            </Position>
            <AltitudeMeters>39.40000152587890625</AltitudeMeters>
            <DistanceMeters>NAN</DistanceMeters>
          </Trackpoint>
          <Trackpoint>
            <Time>2022-07-08T13:13:44.000Z</Time>
            <Position>
              <LatitudeDegrees>43.35466350428760051727294921875</LatitudeDegrees>
              <LongitudeDegrees>-1.7747873626649379730224609375</LongitudeDegrees>
            </Position>
            <AltitudeMeters>39.40000152587890625</AltitudeMeters>
            <DistanceMeters>NAN</DistanceMeters>
          </Trackpoint>
          <Trackpoint>
            <Time>2022-07-08T13:13:58.000Z</Time>
            <Position>
              <LatitudeDegrees>43.3545913361012935638427734375</LatitudeDegrees>
              <LongitudeDegrees>-1.77481996826827526092529296875</LongitudeDegrees>
            </Position>
            <AltitudeMeters>39.799999237060546875</AltitudeMeters>
            <DistanceMeters>NAN</DistanceMeters>
          </Trackpoint>
          <Trackpoint>
            <Time>2022-07-08T13:13:59.000Z</Time>
            <Position>
              <LatitudeDegrees>43.35456996224820613861083984375</LatitudeDegrees>
              <LongitudeDegrees>-1.7748503945767879486083984375</LongitudeDegrees>
            </Position>
            <AltitudeMeters>39.799999237060546875</AltitudeMeters>
            <DistanceMeters>NAN</DistanceMeters>
          </Trackpoint>
          <Trackpoint>
            <Time>2022-07-08T13:14:03.000Z</Time>
            <Position>
              <LatitudeDegrees>43.35447994060814380645751953125</LatitudeDegrees>
              <LongitudeDegrees>-1.77493639290332794189453125</LongitudeDegrees>
            </Position>
            <AltitudeMeters>40.40000152587890625</AltitudeMeters>
            <DistanceMeters>NAN</DistanceMeters>
          </Trackpoint>
          <Trackpoint>
            <Time>2022-07-08T13:14:12.000Z</Time>
            <Position>
              <LatitudeDegrees>43.35425849072635173797607421875</LatitudeDegrees>
              <LongitudeDegrees>-1.77507720887660980224609375</LongitudeDegrees>
            </Position>
            <AltitudeMeters>41.40000152587890625</AltitudeMeters>
            <DistanceMeters>NAN</DistanceMeters>
          </Trackpoint>
          <Trackpoint>
            <Time>2022-07-08T13:14:13.000Z</Time>
            <Position>
              <LatitudeDegrees>43.35423552431166172027587890625</LatitudeDegrees>
              <LongitudeDegrees>-1.77508818916976451873779296875</LongitudeDegrees>
            </Position>
            <AltitudeMeters>41.59999847412109375</AltitudeMeters>
            <DistanceMeters>NAN</DistanceMeters>
          </Trackpoint>
          <Trackpoint>
            <Time>2022-07-08T13:14:21.000Z</Time>
            <Position>
              <LatitudeDegrees>43.354062102735042572021484375</LatitudeDegrees>
              <LongitudeDegrees>-1.77522364072501659393310546875</LongitudeDegrees>
            </Position>
            <AltitudeMeters>42.200000762939453125</AltitudeMeters>
            <DistanceMeters>NAN</DistanceMeters>
          </Trackpoint>
          <Trackpoint>
            <Time>2022-07-08T13:14:26.000Z</Time>
            <Position>
              <LatitudeDegrees>43.3539754338562488555908203125</LatitudeDegrees>
              <LongitudeDegrees>-1.77534853108227252960205078125</LongitudeDegrees>
            </Position>
            <AltitudeMeters>42.59999847412109375</AltitudeMeters>
            <DistanceMeters>NAN</DistanceMeters>
          </Trackpoint>
          <Trackpoint>
            <Time>2022-07-08T13:14:29.000Z</Time>
            <Position>
              <LatitudeDegrees>43.353936709463596343994140625</LatitudeDegrees>
              <LongitudeDegrees>-1.7754237167537212371826171875</LongitudeDegrees>
            </Position>
            <AltitudeMeters>43</AltitudeMeters>
            <DistanceMeters>NAN</DistanceMeters>
          </Trackpoint>
          <Trackpoint>
            <Time>2022-07-08T13:14:35.000Z</Time>
            <Position>
              <LatitudeDegrees>43.35388784296810626983642578125</LatitudeDegrees>
              <LongitudeDegrees>-1.7755692265927791595458984375</LongitudeDegrees>
            </Position>
            <AltitudeMeters>43</AltitudeMeters>
            <DistanceMeters>NAN</DistanceMeters>
          </Trackpoint>
          <Trackpoint>
            <Time>2022-07-08T13:14:42.000Z</Time>
            <Position>
              <LatitudeDegrees>43.353755660355091094970703125</LatitudeDegrees>
              <LongitudeDegrees>-1.775660254061222076416015625</LongitudeDegrees>
            </Position>
            <AltitudeMeters>43.40000152587890625</AltitudeMeters>
            <DistanceMeters>NAN</DistanceMeters>
          </Trackpoint>
          <Trackpoint>
            <Time>2022-07-08T13:14:46.000Z</Time>
            <Position>
              <LatitudeDegrees>43.3536850847303867340087890625</LatitudeDegrees>
              <LongitudeDegrees>-1.77562815137207508087158203125</LongitudeDegrees>
            </Position>
            <AltitudeMeters>43.799999237060546875</AltitudeMeters>
            <DistanceMeters>NAN</DistanceMeters>
          </Trackpoint>
          <Trackpoint>
            <Time>2022-07-08T13:14:49.000Z</Time>
            <Position>
              <LatitudeDegrees>43.35362951271235942840576171875</LatitudeDegrees>
              <LongitudeDegrees>-1.77558423019945621490478515625</LongitudeDegrees>
            </Position>
            <AltitudeMeters>44</AltitudeMeters>
            <DistanceMeters>NAN</DistanceMeters>
          </Trackpoint>
          <Trackpoint>
            <Time>2022-07-08T13:14:53.000Z</Time>
            <Position>
              <LatitudeDegrees>43.35358475334942340850830078125</LatitudeDegrees>
              <LongitudeDegrees>-1.77549152635037899017333984375</LongitudeDegrees>
            </Position>
            <AltitudeMeters>44.200000762939453125</AltitudeMeters>
            <DistanceMeters>NAN</DistanceMeters>
          </Trackpoint>
          <Trackpoint>
            <Time>2022-07-08T13:14:55.000Z</Time>
            <Position>
              <LatitudeDegrees>43.35358492098748683929443359375</LatitudeDegrees>
              <LongitudeDegrees>-1.77540670149028301239013671875</LongitudeDegrees>
            </Position>
            <AltitudeMeters>44</AltitudeMeters>
            <DistanceMeters>NAN</DistanceMeters>
          </Trackpoint>
          <Trackpoint>
            <Time>2022-07-08T13:14:59.000Z</Time>
            <Position>
              <LatitudeDegrees>43.3536399900913238525390625</LatitudeDegrees>
              <LongitudeDegrees>-1.775198914110660552978515625</LongitudeDegrees>
            </Position>
            <AltitudeMeters>43.799999237060546875</AltitudeMeters>
            <DistanceMeters>NAN</DistanceMeters>
          </Trackpoint>
          <Trackpoint>
            <Time>2022-07-08T13:15:00.000Z</Time>
            <Position>
              <LatitudeDegrees>43.35365214385092258453369140625</LatitudeDegrees>
              <LongitudeDegrees>-1.7751400731503963470458984375</LongitudeDegrees>
            </Position>
            <AltitudeMeters>43.799999237060546875</AltitudeMeters>
            <DistanceMeters>NAN</DistanceMeters>
          </Trackpoint>
          <Trackpoint>
            <Time>2022-07-08T13:15:02.000Z</Time>
            <Position>
              <LatitudeDegrees>43.353675864636898040771484375</LatitudeDegrees>
              <LongitudeDegrees>-1.7750041186809539794921875</LongitudeDegrees>
            </Position>
            <AltitudeMeters>43.59999847412109375</AltitudeMeters>
            <DistanceMeters>NAN</DistanceMeters>
          </Trackpoint>
          <Trackpoint>
            <Time>2022-07-08T13:15:04.000Z</Time>
            <Position>
              <LatitudeDegrees>43.3536696620285511016845703125</LatitudeDegrees>
              <LongitudeDegrees>-1.77486020140349864959716796875</LongitudeDegrees>
            </Position>
            <AltitudeMeters>43.40000152587890625</AltitudeMeters>
            <DistanceMeters>NAN</DistanceMeters>
          </Trackpoint>
          <Trackpoint>
            <Time>2022-07-08T13:15:07.000Z</Time>
            <Position>
              <LatitudeDegrees>43.353632278740406036376953125</LatitudeDegrees>
              <LongitudeDegrees>-1.7746378295123577117919921875</LongitudeDegrees>
            </Position>
            <AltitudeMeters>43</AltitudeMeters>
            <DistanceMeters>NAN</DistanceMeters>
          </Trackpoint>
          <Trackpoint>
            <Time>2022-07-08T13:15:08.000Z</Time>
            <Position>
              <LatitudeDegrees>43.3536254055798053741455078125</LatitudeDegrees>
              <LongitudeDegrees>-1.77456649951636791229248046875</LongitudeDegrees>
            </Position>
            <AltitudeMeters>42.59999847412109375</AltitudeMeters>
            <DistanceMeters>NAN</DistanceMeters>
          </Trackpoint>
          <Trackpoint>
            <Time>2022-07-08T13:15:11.000Z</Time>
            <Position>
              <LatitudeDegrees>43.353598080575466156005859375</LatitudeDegrees>
              <LongitudeDegrees>-1.77432124502956867218017578125</LongitudeDegrees>
            </Position>
            <AltitudeMeters>42.200000762939453125</AltitudeMeters>
            <DistanceMeters>NAN</DistanceMeters>
          </Trackpoint>
          <Trackpoint>
            <Time>2022-07-08T13:15:13.000Z</Time>
            <Position>
              <LatitudeDegrees>43.3535848371684551239013671875</LatitudeDegrees>
              <LongitudeDegrees>-1.7741825245320796966552734375</LongitudeDegrees>
            </Position>
            <AltitudeMeters>42</AltitudeMeters>
            <DistanceMeters>NAN</DistanceMeters>
          </Trackpoint>
          <Trackpoint>
            <Time>2022-07-08T13:15:15.000Z</Time>
            <Position>
              <LatitudeDegrees>43.35357050411403179168701171875</LatitudeDegrees>
              <LongitudeDegrees>-1.77402050234377384185791015625</LongitudeDegrees>
            </Position>
            <AltitudeMeters>41.799999237060546875</AltitudeMeters>
            <DistanceMeters>NAN</DistanceMeters>
          </Trackpoint>
          <Trackpoint>
            <Time>2022-07-08T13:15:17.000Z</Time>
            <Position>
              <LatitudeDegrees>43.35356111638247966766357421875</LatitudeDegrees>
              <LongitudeDegrees>-1.7738824523985385894775390625</LongitudeDegrees>
            </Position>
            <AltitudeMeters>41.799999237060546875</AltitudeMeters>
            <DistanceMeters>NAN</DistanceMeters>
          </Trackpoint>
          <Trackpoint>
            <Time>2022-07-08T13:15:20.000Z</Time>
            <Position>
              <LatitudeDegrees>43.35353630594909191131591796875</LatitudeDegrees>
              <LongitudeDegrees>-1.773672401905059814453125</LongitudeDegrees>
            </Position>
            <AltitudeMeters>41.799999237060546875</AltitudeMeters>
            <DistanceMeters>NAN</DistanceMeters>
          </Trackpoint>
          <Trackpoint>
            <Time>2022-07-08T13:15:29.000Z</Time>
            <Position>
              <LatitudeDegrees>43.35348777472972869873046875</LatitudeDegrees>
              <LongitudeDegrees>-1.773103438317775726318359375</LongitudeDegrees>
            </Position>
            <AltitudeMeters>41.799999237060546875</AltitudeMeters>
            <DistanceMeters>NAN</DistanceMeters>
          </Trackpoint>
          <Trackpoint>
            <Time>2022-07-08T13:15:31.000Z</Time>
            <Position>
              <LatitudeDegrees>43.35348668508231639862060546875</LatitudeDegrees>
              <LongitudeDegrees>-1.77298617549240589141845703125</LongitudeDegrees>
            </Position>
            <AltitudeMeters>41.799999237060546875</AltitudeMeters>
            <DistanceMeters>NAN</DistanceMeters>
          </Trackpoint>
          <Trackpoint>
            <Time>2022-07-08T13:15:33.000Z</Time>
            <Position>
              <LatitudeDegrees>43.35348911583423614501953125</LatitudeDegrees>
              <LongitudeDegrees>-1.77287578582763671875</LongitudeDegrees>
            </Position>
            <AltitudeMeters>42</AltitudeMeters>
            <DistanceMeters>NAN</DistanceMeters>
          </Trackpoint>
          <Trackpoint>
            <Time>2022-07-08T13:15:34.000Z</Time>
            <Position>
              <LatitudeDegrees>43.35349523462355136871337890625</LatitudeDegrees>
              <LongitudeDegrees>-1.772818453609943389892578125</LongitudeDegrees>
            </Position>
            <AltitudeMeters>42</AltitudeMeters>
            <DistanceMeters>NAN</DistanceMeters>
          </Trackpoint>
          <Trackpoint>
            <Time>2022-07-08T13:15:41.000Z</Time>
            <Position>
              <LatitudeDegrees>43.35350546054542064666748046875</LatitudeDegrees>
              <LongitudeDegrees>-1.7724786512553691864013671875</LongitudeDegrees>
            </Position>
            <AltitudeMeters>41.799999237060546875</AltitudeMeters>
            <DistanceMeters>NAN</DistanceMeters>
          </Trackpoint>
          <Trackpoint>
            <Time>2022-07-08T13:15:48.000Z</Time>
            <Position>
              <LatitudeDegrees>43.3534745313227176666259765625</LatitudeDegrees>
              <LongitudeDegrees>-1.77224856801331043243408203125</LongitudeDegrees>
            </Position>
            <AltitudeMeters>42.40000152587890625</AltitudeMeters>
            <DistanceMeters>NAN</DistanceMeters>
          </Trackpoint>
          <Trackpoint>
            <Time>2022-07-08T13:15:51.000Z</Time>
            <Position>
              <LatitudeDegrees>43.35346941836178302764892578125</LatitudeDegrees>
              <LongitudeDegrees>-1.77224873565137386322021484375</LongitudeDegrees>
            </Position>
            <AltitudeMeters>42.59999847412109375</AltitudeMeters>
            <DistanceMeters>NAN</DistanceMeters>
          </Trackpoint>
          <Trackpoint>
            <Time>2022-07-08T13:16:05.000Z</Time>
            <Position>
              <LatitudeDegrees>43.35347168147563934326171875</LatitudeDegrees>
              <LongitudeDegrees>-1.7722023837268352508544921875</LongitudeDegrees>
            </Position>
            <AltitudeMeters>42.59999847412109375</AltitudeMeters>
            <DistanceMeters>NAN</DistanceMeters>
          </Trackpoint>
          <Trackpoint>
            <Time>2022-07-08T13:16:07.000Z</Time>
            <Position>
              <LatitudeDegrees>43.35346891544759273529052734375</LatitudeDegrees>
              <LongitudeDegrees>-1.77214664407074451446533203125</LongitudeDegrees>
            </Position>
            <AltitudeMeters>42.799999237060546875</AltitudeMeters>
            <DistanceMeters>NAN</DistanceMeters>
          </Trackpoint>
          <Trackpoint>
            <Time>2022-07-08T13:16:12.000Z</Time>
            <Position>
              <LatitudeDegrees>43.3534336276352405548095703125</LatitudeDegrees>
              <LongitudeDegrees>-1.77199442870914936065673828125</LongitudeDegrees>
            </Position>
            <AltitudeMeters>43.200000762939453125</AltitudeMeters>
            <DistanceMeters>NAN</DistanceMeters>
          </Trackpoint>
          <Trackpoint>
            <Time>2022-07-08T13:16:17.000Z</Time>
            <Position>
              <LatitudeDegrees>43.3534135110676288604736328125</LatitudeDegrees>
              <LongitudeDegrees>-1.7718191631138324737548828125</LongitudeDegrees>
            </Position>
            <AltitudeMeters>43.59999847412109375</AltitudeMeters>
            <DistanceMeters>NAN</DistanceMeters>
          </Trackpoint>
          <Trackpoint>
            <Time>2022-07-08T13:16:18.000Z</Time>
            <Position>
              <LatitudeDegrees>43.35340990684926509857177734375</LatitudeDegrees>
              <LongitudeDegrees>-1.771789155900478363037109375</LongitudeDegrees>
            </Position>
            <AltitudeMeters>44</AltitudeMeters>
            <DistanceMeters>NAN</DistanceMeters>
          </Trackpoint>
          <Trackpoint>
            <Time>2022-07-08T13:16:23.000Z</Time>
            <Position>
              <LatitudeDegrees>43.35336984135210514068603515625</LatitudeDegrees>
              <LongitudeDegrees>-1.77163266576826572418212890625</LongitudeDegrees>
            </Position>
            <AltitudeMeters>44.59999847412109375</AltitudeMeters>
            <DistanceMeters>NAN</DistanceMeters>
          </Trackpoint>
          <Trackpoint>
            <Time>2022-07-08T13:16:24.000Z</Time>
            <Position>
              <LatitudeDegrees>43.35335542447865009307861328125</LatitudeDegrees>
              <LongitudeDegrees>-1.77161908708512783050537109375</LongitudeDegrees>
            </Position>
            <AltitudeMeters>44.799999237060546875</AltitudeMeters>
            <DistanceMeters>NAN</DistanceMeters>
          </Trackpoint>
          <Trackpoint>
            <Time>2022-07-08T13:16:26.000Z</Time>
            <Position>
              <LatitudeDegrees>43.35331871174275875091552734375</LatitudeDegrees>
              <LongitudeDegrees>-1.77160467021167278289794921875</LongitudeDegrees>
            </Position>
            <AltitudeMeters>45.200000762939453125</AltitudeMeters>
            <DistanceMeters>NAN</DistanceMeters>
          </Trackpoint>
          <Trackpoint>
            <Time>2022-07-08T13:16:27.000Z</Time>
            <Position>
              <LatitudeDegrees>43.3533005230128765106201171875</LatitudeDegrees>
              <LongitudeDegrees>-1.7715988866984844207763671875</LongitudeDegrees>
            </Position>
            <AltitudeMeters>45.40000152587890625</AltitudeMeters>
            <DistanceMeters>NAN</DistanceMeters>
          </Trackpoint>
          <Trackpoint>
            <Time>2022-07-08T13:16:30.000Z</Time>
            <Position>
              <LatitudeDegrees>43.353248722851276397705078125</LatitudeDegrees>
              <LongitudeDegrees>-1.77160064689815044403076171875</LongitudeDegrees>
            </Position>
            <AltitudeMeters>45.799999237060546875</AltitudeMeters>
            <DistanceMeters>NAN</DistanceMeters>
          </Trackpoint>
          <Trackpoint>
            <Time>2022-07-08T13:16:34.000Z</Time>
            <Position>
              <LatitudeDegrees>43.35322785191237926483154296875</LatitudeDegrees>
              <LongitudeDegrees>-1.7716176621615886688232421875</LongitudeDegrees>
            </Position>
            <AltitudeMeters>46</AltitudeMeters>
            <DistanceMeters>NAN</DistanceMeters>
          </Trackpoint>
          <Trackpoint>
            <Time>2022-07-08T13:16:35.000Z</Time>
            <Position>
              <LatitudeDegrees>43.35322785191237926483154296875</LatitudeDegrees>
              <LongitudeDegrees>-1.7716176621615886688232421875</LongitudeDegrees>
            </Position>
            <AltitudeMeters>46.200000762939453125</AltitudeMeters>
            <DistanceMeters>NAN</DistanceMeters>
          </Trackpoint>
          <Trackpoint>
            <Time>2022-07-08T13:17:06.000Z</Time>
            <Position>
              <LatitudeDegrees>43.3531952463090419769287109375</LatitudeDegrees>
              <LongitudeDegrees>-1.77169318310916423797607421875</LongitudeDegrees>
            </Position>
            <AltitudeMeters>46.200000762939453125</AltitudeMeters>
            <DistanceMeters>NAN</DistanceMeters>
          </Trackpoint>
          <Trackpoint>
            <Time>2022-07-08T13:17:07.000Z</Time>
            <Position>
              <LatitudeDegrees>43.35317973978817462921142578125</LatitudeDegrees>
              <LongitudeDegrees>-1.7717226035892963409423828125</LongitudeDegrees>
            </Position>
            <AltitudeMeters>46.200000762939453125</AltitudeMeters>
            <DistanceMeters>NAN</DistanceMeters>
          </Trackpoint>
          <Trackpoint>
            <Time>2022-07-08T13:17:08.000Z</Time>
            <Position>
              <LatitudeDegrees>43.35315761156380176544189453125</LatitudeDegrees>
              <LongitudeDegrees>-1.7717621661722660064697265625</LongitudeDegrees>
            </Position>
            <AltitudeMeters>46.200000762939453125</AltitudeMeters>
            <DistanceMeters>NAN</DistanceMeters>
          </Trackpoint>
          <Trackpoint>
            <Time>2022-07-08T13:17:13.000Z</Time>
            <Position>
              <LatitudeDegrees>43.35300807841122150421142578125</LatitudeDegrees>
              <LongitudeDegrees>-1.7719847895205020904541015625</LongitudeDegrees>
            </Position>
            <AltitudeMeters>45.200000762939453125</AltitudeMeters>
            <DistanceMeters>NAN</DistanceMeters>
          </Trackpoint>
          <Trackpoint>
            <Time>2022-07-08T13:17:15.000Z</Time>
            <Position>
              <LatitudeDegrees>43.35293783806264400482177734375</LatitudeDegrees>
              <LongitudeDegrees>-1.7720823548734188079833984375</LongitudeDegrees>
            </Position>
            <AltitudeMeters>44.799999237060546875</AltitudeMeters>
            <DistanceMeters>NAN</DistanceMeters>
          </Trackpoint>
          <Trackpoint>
            <Time>2022-07-08T13:17:19.000Z</Time>
            <Position>
              <LatitudeDegrees>43.3527764864265918731689453125</LatitudeDegrees>
              <LongitudeDegrees>-1.7723257653415203094482421875</LongitudeDegrees>
            </Position>
            <AltitudeMeters>44</AltitudeMeters>
            <DistanceMeters>NAN</DistanceMeters>
          </Trackpoint>
          <Trackpoint>
            <Time>2022-07-08T13:17:21.000Z</Time>
            <Position>
              <LatitudeDegrees>43.35270591080188751220703125</LatitudeDegrees>
              <LongitudeDegrees>-1.77242894656956195831298828125</LongitudeDegrees>
            </Position>
            <AltitudeMeters>43.40000152587890625</AltitudeMeters>
            <DistanceMeters>NAN</DistanceMeters>
          </Trackpoint>
          <Trackpoint>
            <Time>2022-07-08T13:17:25.000Z</Time>
            <Position>
              <LatitudeDegrees>43.35255294106900691986083984375</LatitudeDegrees>
              <LongitudeDegrees>-1.77262810058891773223876953125</LongitudeDegrees>
            </Position>
            <AltitudeMeters>42.40000152587890625</AltitudeMeters>
            <DistanceMeters>NAN</DistanceMeters>
          </Trackpoint>
          <Trackpoint>
            <Time>2022-07-08T13:17:26.000Z</Time>
            <Position>
              <LatitudeDegrees>43.3525246940553188323974609375</LatitudeDegrees>
              <LongitudeDegrees>-1.77267285995185375213623046875</LongitudeDegrees>
            </Position>
            <AltitudeMeters>42</AltitudeMeters>
            <DistanceMeters>NAN</DistanceMeters>
          </Trackpoint>
          <Trackpoint>
            <Time>2022-07-08T13:17:27.000Z</Time>
            <Position>
              <LatitudeDegrees>43.3525062538683414459228515625</LatitudeDegrees>
              <LongitudeDegrees>-1.7727188766002655029296875</LongitudeDegrees>
            </Position>
            <AltitudeMeters>41.40000152587890625</AltitudeMeters>
            <DistanceMeters>NAN</DistanceMeters>
          </Trackpoint>
          <Trackpoint>
            <Time>2022-07-08T13:17:28.000Z</Time>
            <Position>
              <LatitudeDegrees>43.35250130854547023773193359375</LatitudeDegrees>
              <LongitudeDegrees>-1.77277059294283390045166015625</LongitudeDegrees>
            </Position>
            <AltitudeMeters>40.799999237060546875</AltitudeMeters>
            <DistanceMeters>NAN</DistanceMeters>
          </Trackpoint>
          <Trackpoint>
            <Time>2022-07-08T13:17:30.000Z</Time>
            <Position>
              <LatitudeDegrees>43.35253081284463405609130859375</LatitudeDegrees>
              <LongitudeDegrees>-1.772887520492076873779296875</LongitudeDegrees>
            </Position>
            <AltitudeMeters>40.200000762939453125</AltitudeMeters>
            <DistanceMeters>NAN</DistanceMeters>
          </Trackpoint>
          <Trackpoint>
            <Time>2022-07-08T13:17:32.000Z</Time>
            <Position>
              <LatitudeDegrees>43.35257691331207752227783203125</LatitudeDegrees>
              <LongitudeDegrees>-1.77300428040325641632080078125</LongitudeDegrees>
            </Position>
            <AltitudeMeters>39.200000762939453125</AltitudeMeters>
            <DistanceMeters>NAN</DistanceMeters>
          </Trackpoint>
          <Trackpoint>
            <Time>2022-07-08T13:17:34.000Z</Time>
            <Position>
              <LatitudeDegrees>43.35258412174880504608154296875</LatitudeDegrees>
              <LongitudeDegrees>-1.7730942182242870330810546875</LongitudeDegrees>
            </Position>
            <AltitudeMeters>38.40000152587890625</AltitudeMeters>
            <DistanceMeters>NAN</DistanceMeters>
          </Trackpoint>
          <Trackpoint>
            <Time>2022-07-08T13:17:35.000Z</Time>
            <Position>
              <LatitudeDegrees>43.35255579091608524322509765625</LatitudeDegrees>
              <LongitudeDegrees>-1.7731170170009136199951171875</LongitudeDegrees>
            </Position>
            <AltitudeMeters>38.200000762939453125</AltitudeMeters>
            <DistanceMeters>NAN</DistanceMeters>
          </Trackpoint>
          <Trackpoint>
            <Time>2022-07-08T13:17:36.000Z</Time>
            <Position>
              <LatitudeDegrees>43.3525280468165874481201171875</LatitudeDegrees>
              <LongitudeDegrees>-1.77310603670775890350341796875</LongitudeDegrees>
            </Position>
            <AltitudeMeters>37.799999237060546875</AltitudeMeters>
            <DistanceMeters>NAN</DistanceMeters>
          </Trackpoint>
          <Trackpoint>
            <Time>2022-07-08T13:17:38.000Z</Time>
            <Position>
              <LatitudeDegrees>43.352451436221599578857421875</LatitudeDegrees>
              <LongitudeDegrees>-1.7730305157601833343505859375</LongitudeDegrees>
            </Position>
            <AltitudeMeters>37.200000762939453125</AltitudeMeters>
            <DistanceMeters>NAN</DistanceMeters>
          </Trackpoint>
          <Trackpoint>
            <Time>2022-07-08T13:17:39.000Z</Time>
            <Position>
              <LatitudeDegrees>43.35239787586033344268798828125</LatitudeDegrees>
              <LongitudeDegrees>-1.77298801951110363006591796875</LongitudeDegrees>
            </Position>
            <AltitudeMeters>36.799999237060546875</AltitudeMeters>
            <DistanceMeters>NAN</DistanceMeters>
          </Trackpoint>
          <Trackpoint>
            <Time>2022-07-08T13:17:40.000Z</Time>
            <Position>
              <LatitudeDegrees>43.352360241115093231201171875</LatitudeDegrees>
              <LongitudeDegrees>-1.77297594957053661346435546875</LongitudeDegrees>
            </Position>
            <AltitudeMeters>36.59999847412109375</AltitudeMeters>
            <DistanceMeters>NAN</DistanceMeters>
          </Trackpoint>
          <Trackpoint>
            <Time>2022-07-08T13:17:43.000Z</Time>
            <Position>
              <LatitudeDegrees>43.35222001187503337860107421875</LatitudeDegrees>
              <LongitudeDegrees>-1.77295063622295856475830078125</LongitudeDegrees>
            </Position>
            <AltitudeMeters>36</AltitudeMeters>
            <DistanceMeters>NAN</DistanceMeters>
          </Trackpoint>
          <Trackpoint>
            <Time>2022-07-08T13:17:44.000Z</Time>
            <Position>
              <LatitudeDegrees>43.3521837182343006134033203125</LatitudeDegrees>
              <LongitudeDegrees>-1.77292515523731708526611328125</LongitudeDegrees>
            </Position>
            <AltitudeMeters>35.799999237060546875</AltitudeMeters>
            <DistanceMeters>NAN</DistanceMeters>
          </Trackpoint>
          <Trackpoint>
            <Time>2022-07-08T13:17:46.000Z</Time>
            <Position>
              <LatitudeDegrees>43.3521057665348052978515625</LatitudeDegrees>
              <LongitudeDegrees>-1.77285742945969104766845703125</LongitudeDegrees>
            </Position>
            <AltitudeMeters>35.59999847412109375</AltitudeMeters>
            <DistanceMeters>NAN</DistanceMeters>
          </Trackpoint>
          <Trackpoint>
            <Time>2022-07-08T13:17:48.000Z</Time>
            <Position>
              <LatitudeDegrees>43.3520224504172801971435546875</LatitudeDegrees>
              <LongitudeDegrees>-1.77277989685535430908203125</LongitudeDegrees>
            </Position>
            <AltitudeMeters>35.40000152587890625</AltitudeMeters>
            <DistanceMeters>NAN</DistanceMeters>
          </Trackpoint>
          <Trackpoint>
            <Time>2022-07-08T13:17:50.000Z</Time>
            <Position>
              <LatitudeDegrees>43.35194659419357776641845703125</LatitudeDegrees>
              <LongitudeDegrees>-1.77269565872848033905029296875</LongitudeDegrees>
            </Position>
            <AltitudeMeters>35.200000762939453125</AltitudeMeters>
            <DistanceMeters>NAN</DistanceMeters>
          </Trackpoint>
          <Trackpoint>
            <Time>2022-07-08T13:17:54.000Z</Time>
            <Position>
              <LatitudeDegrees>43.35183075629174709320068359375</LatitudeDegrees>
              <LongitudeDegrees>-1.77250388078391551971435546875</LongitudeDegrees>
            </Position>
            <AltitudeMeters>34.799999237060546875</AltitudeMeters>
            <DistanceMeters>NAN</DistanceMeters>
          </Trackpoint>
          <Trackpoint>
            <Time>2022-07-08T13:17:59.000Z</Time>
            <Position>
              <LatitudeDegrees>43.35168222896754741668701171875</LatitudeDegrees>
              <LongitudeDegrees>-1.77217313088476657867431640625</LongitudeDegrees>
            </Position>
            <AltitudeMeters>33.799999237060546875</AltitudeMeters>
            <DistanceMeters>NAN</DistanceMeters>
          </Trackpoint>
          <Trackpoint>
            <Time>2022-07-08T13:18:00.000Z</Time>
            <Position>
              <LatitudeDegrees>43.3516549877822399139404296875</LatitudeDegrees>
              <LongitudeDegrees>-1.7720977775752544403076171875</LongitudeDegrees>
            </Position>
            <AltitudeMeters>33.59999847412109375</AltitudeMeters>
            <DistanceMeters>NAN</DistanceMeters>
          </Trackpoint>
          <Trackpoint>
            <Time>2022-07-08T13:18:01.000Z</Time>
            <Position>
              <LatitudeDegrees>43.351640067994594573974609375</LatitudeDegrees>
              <LongitudeDegrees>-1.77202141843736171722412109375</LongitudeDegrees>
            </Position>
            <AltitudeMeters>33.40000152587890625</AltitudeMeters>
            <DistanceMeters>NAN</DistanceMeters>
          </Trackpoint>
          <Trackpoint>
            <Time>2022-07-08T13:18:04.000Z</Time>
            <Position>
              <LatitudeDegrees>43.3516177721321582794189453125</LatitudeDegrees>
              <LongitudeDegrees>-1.771810613572597503662109375</LongitudeDegrees>
            </Position>
            <AltitudeMeters>33.200000762939453125</AltitudeMeters>
            <DistanceMeters>NAN</DistanceMeters>
          </Trackpoint>
          <Trackpoint>
            <Time>2022-07-08T13:18:05.000Z</Time>
            <Position>
              <LatitudeDegrees>43.351607210934162139892578125</LatitudeDegrees>
              <LongitudeDegrees>-1.77175336517393589019775390625</LongitudeDegrees>
            </Position>
            <AltitudeMeters>33.200000762939453125</AltitudeMeters>
            <DistanceMeters>NAN</DistanceMeters>
          </Trackpoint>
          <Trackpoint>
            <Time>2022-07-08T13:18:08.000Z</Time>
            <Position>
              <LatitudeDegrees>43.351575694978237152099609375</LatitudeDegrees>
              <LongitudeDegrees>-1.77161984145641326904296875</LongitudeDegrees>
            </Position>
            <AltitudeMeters>33.40000152587890625</AltitudeMeters>
            <DistanceMeters>NAN</DistanceMeters>
          </Trackpoint>
          <Trackpoint>
            <Time>2022-07-08T13:18:13.000Z</Time>
            <Position>
              <LatitudeDegrees>43.351554907858371734619140625</LatitudeDegrees>
              <LongitudeDegrees>-1.7715164087712764739990234375</LongitudeDegrees>
            </Position>
            <AltitudeMeters>34</AltitudeMeters>
            <DistanceMeters>NAN</DistanceMeters>
          </Trackpoint>
          <Trackpoint>
            <Time>2022-07-08T13:18:16.000Z</Time>
            <Position>
              <LatitudeDegrees>43.3515772037208080291748046875</LatitudeDegrees>
              <LongitudeDegrees>-1.7715325020253658294677734375</LongitudeDegrees>
            </Position>
            <AltitudeMeters>34</AltitudeMeters>
            <DistanceMeters>NAN</DistanceMeters>
          </Trackpoint>
          <Trackpoint>
            <Time>2022-07-08T13:18:17.000Z</Time>
            <Position>
              <LatitudeDegrees>43.35158483125269412994384765625</LatitudeDegrees>
              <LongitudeDegrees>-1.77155521698296070098876953125</LongitudeDegrees>
            </Position>
            <AltitudeMeters>34</AltitudeMeters>
            <DistanceMeters>NAN</DistanceMeters>
          </Trackpoint>
          <Trackpoint>
            <Time>2022-07-08T13:18:22.000Z</Time>
            <Position>
              <LatitudeDegrees>43.3516559936106204986572265625</LatitudeDegrees>
              <LongitudeDegrees>-1.771785132586956024169921875</LongitudeDegrees>
            </Position>
            <AltitudeMeters>34</AltitudeMeters>
            <DistanceMeters>NAN</DistanceMeters>
          </Trackpoint>
          <Trackpoint>
            <Time>2022-07-08T13:18:26.000Z</Time>
            <Position>
              <LatitudeDegrees>43.3516632020473480224609375</LatitudeDegrees>
              <LongitudeDegrees>-1.7720082588493824005126953125</LongitudeDegrees>
            </Position>
            <AltitudeMeters>33.59999847412109375</AltitudeMeters>
            <DistanceMeters>NAN</DistanceMeters>
          </Trackpoint>
          <Trackpoint>
            <Time>2022-07-08T13:18:28.000Z</Time>
            <Position>
              <LatitudeDegrees>43.35161567665636539459228515625</LatitudeDegrees>
              <LongitudeDegrees>-1.7721165530383586883544921875</LongitudeDegrees>
            </Position>
            <AltitudeMeters>33.40000152587890625</AltitudeMeters>
            <DistanceMeters>NAN</DistanceMeters>
          </Trackpoint>
          <Trackpoint>
            <Time>2022-07-08T13:18:29.000Z</Time>
            <Position>
              <LatitudeDegrees>43.35156890563666820526123046875</LatitudeDegrees>
              <LongitudeDegrees>-1.7721530981361865997314453125</LongitudeDegrees>
            </Position>
            <AltitudeMeters>33</AltitudeMeters>
            <DistanceMeters>NAN</DistanceMeters>
          </Trackpoint>
          <Trackpoint>
            <Time>2022-07-08T13:18:30.000Z</Time>
            <Position>
              <LatitudeDegrees>43.3515255711972713470458984375</LatitudeDegrees>
              <LongitudeDegrees>-1.77217313088476657867431640625</LongitudeDegrees>
            </Position>
            <AltitudeMeters>32.799999237060546875</AltitudeMeters>
            <DistanceMeters>NAN</DistanceMeters>
          </Trackpoint>
          <Trackpoint>
            <Time>2022-07-08T13:18:33.000Z</Time>
            <Position>
              <LatitudeDegrees>43.35132398642599582672119140625</LatitudeDegrees>
              <LongitudeDegrees>-1.77222778089344501495361328125</LongitudeDegrees>
            </Position>
            <AltitudeMeters>31.6000003814697265625</AltitudeMeters>
            <DistanceMeters>NAN</DistanceMeters>
          </Trackpoint>
          <Trackpoint>
            <Time>2022-07-08T13:18:38.000Z</Time>
            <Position>
              <LatitudeDegrees>43.35102223791182041168212890625</LatitudeDegrees>
              <LongitudeDegrees>-1.77229198627173900604248046875</LongitudeDegrees>
            </Position>
            <AltitudeMeters>30.3999996185302734375</AltitudeMeters>
            <DistanceMeters>NAN</DistanceMeters>
          </Trackpoint>
          <Trackpoint>
            <Time>2022-07-08T13:18:40.000Z</Time>
            <Position>
              <LatitudeDegrees>43.35088200867176055908203125</LatitudeDegrees>
              <LongitudeDegrees>-1.772316880524158477783203125</LongitudeDegrees>
            </Position>
            <AltitudeMeters>29.6000003814697265625</AltitudeMeters>
            <DistanceMeters>NAN</DistanceMeters>
          </Trackpoint>
          <Trackpoint>
            <Time>2022-07-08T13:18:41.000Z</Time>
            <Position>
              <LatitudeDegrees>43.3508261851966381072998046875</LatitudeDegrees>
              <LongitudeDegrees>-1.77232702262699604034423828125</LongitudeDegrees>
            </Position>
            <AltitudeMeters>29.3999996185302734375</AltitudeMeters>
            <DistanceMeters>NAN</DistanceMeters>
          </Trackpoint>
          <Trackpoint>
            <Time>2022-07-08T13:18:44.000Z</Time>
            <Position>
              <LatitudeDegrees>43.35061303339898586273193359375</LatitudeDegrees>
              <LongitudeDegrees>-1.7723675072193145751953125</LongitudeDegrees>
            </Position>
            <AltitudeMeters>27.3999996185302734375</AltitudeMeters>
            <DistanceMeters>NAN</DistanceMeters>
          </Trackpoint>
          <Trackpoint>
            <Time>2022-07-08T13:18:46.000Z</Time>
            <Position>
              <LatitudeDegrees>43.35047473199665546417236328125</LatitudeDegrees>
              <LongitudeDegrees>-1.77239365875720977783203125</LongitudeDegrees>
            </Position>
            <AltitudeMeters>26</AltitudeMeters>
            <DistanceMeters>NAN</DistanceMeters>
          </Trackpoint>
          <Trackpoint>
            <Time>2022-07-08T13:18:48.000Z</Time>
            <Position>
              <LatitudeDegrees>43.3503450639545917510986328125</LatitudeDegrees>
              <LongitudeDegrees>-1.7724243365228176116943359375</LongitudeDegrees>
            </Position>
            <AltitudeMeters>24.6000003814697265625</AltitudeMeters>
            <DistanceMeters>NAN</DistanceMeters>
          </Trackpoint>
          <Trackpoint>
            <Time>2022-07-08T13:18:50.000Z</Time>
            <Position>
              <LatitudeDegrees>43.35019293241202831268310546875</LatitudeDegrees>
              <LongitudeDegrees>-1.7724514938890933990478515625</LongitudeDegrees>
            </Position>
            <AltitudeMeters>22.799999237060546875</AltitudeMeters>
            <DistanceMeters>NAN</DistanceMeters>
          </Trackpoint>
          <Trackpoint>
            <Time>2022-07-08T13:18:51.000Z</Time>
            <Position>
              <LatitudeDegrees>43.3501254580914974212646484375</LatitudeDegrees>
              <LongitudeDegrees>-1.77245727740228176116943359375</LongitudeDegrees>
            </Position>
            <AltitudeMeters>21.6000003814697265625</AltitudeMeters>
            <DistanceMeters>NAN</DistanceMeters>
          </Trackpoint>
          <Trackpoint>
            <Time>2022-07-08T13:18:53.000Z</Time>
            <Position>
              <LatitudeDegrees>43.3500218577682971954345703125</LatitudeDegrees>
              <LongitudeDegrees>-1.77245241589844226837158203125</LongitudeDegrees>
            </Position>
            <AltitudeMeters>19.6000003814697265625</AltitudeMeters>
            <DistanceMeters>NAN</DistanceMeters>
          </Trackpoint>
          <Trackpoint>
            <Time>2022-07-08T13:18:55.000Z</Time>
            <Position>
              <LatitudeDegrees>43.34994767792522907257080078125</LatitudeDegrees>
              <LongitudeDegrees>-1.77243665792047977447509765625</LongitudeDegrees>
            </Position>
            <AltitudeMeters>18.3999996185302734375</AltitudeMeters>
            <DistanceMeters>NAN</DistanceMeters>
          </Trackpoint>
          <Trackpoint>
            <Time>2022-07-08T13:18:57.000Z</Time>
            <Position>
              <LatitudeDegrees>43.34989889524877071380615234375</LatitudeDegrees>
              <LongitudeDegrees>-1.77240975201129913330078125</LongitudeDegrees>
            </Position>
            <AltitudeMeters>18</AltitudeMeters>
            <DistanceMeters>NAN</DistanceMeters>
          </Trackpoint>
          <Trackpoint>
            <Time>2022-07-08T13:19:00.000Z</Time>
            <Position>
              <LatitudeDegrees>43.34982454776763916015625</LatitudeDegrees>
              <LongitudeDegrees>-1.77232920192182064056396484375</LongitudeDegrees>
            </Position>
            <AltitudeMeters>17.799999237060546875</AltitudeMeters>
            <DistanceMeters>NAN</DistanceMeters>
          </Trackpoint>
          <Trackpoint>
            <Time>2022-07-08T13:19:04.000Z</Time>
            <Position>
              <LatitudeDegrees>43.349745757877826690673828125</LatitudeDegrees>
              <LongitudeDegrees>-1.772170364856719970703125</LongitudeDegrees>
            </Position>
            <AltitudeMeters>17.6000003814697265625</AltitudeMeters>
            <DistanceMeters>NAN</DistanceMeters>
          </Trackpoint>
          <Trackpoint>
            <Time>2022-07-08T13:19:07.000Z</Time>
            <Position>
              <LatitudeDegrees>43.34967593662440776824951171875</LatitudeDegrees>
              <LongitudeDegrees>-1.77201471291482448577880859375</LongitudeDegrees>
            </Position>
            <AltitudeMeters>17.6000003814697265625</AltitudeMeters>
            <DistanceMeters>NAN</DistanceMeters>
          </Trackpoint>
          <Trackpoint>
            <Time>2022-07-08T13:19:12.000Z</Time>
            <Position>
              <LatitudeDegrees>43.349564708769321441650390625</LatitudeDegrees>
              <LongitudeDegrees>-1.7717591486871242523193359375</LongitudeDegrees>
            </Position>
            <AltitudeMeters>18</AltitudeMeters>
            <DistanceMeters>NAN</DistanceMeters>
          </Trackpoint>
          <Trackpoint>
            <Time>2022-07-08T13:19:14.000Z</Time>
            <Position>
              <LatitudeDegrees>43.34951098076999187469482421875</LatitudeDegrees>
              <LongitudeDegrees>-1.77167885005474090576171875</LongitudeDegrees>
            </Position>
            <AltitudeMeters>18</AltitudeMeters>
            <DistanceMeters>NAN</DistanceMeters>
          </Trackpoint>
          <Trackpoint>
            <Time>2022-07-08T13:19:15.000Z</Time>
            <Position>
              <LatitudeDegrees>43.34947653114795684814453125</LatitudeDegrees>
              <LongitudeDegrees>-1.7716540396213531494140625</LongitudeDegrees>
            </Position>
            <AltitudeMeters>18.200000762939453125</AltitudeMeters>
            <DistanceMeters>NAN</DistanceMeters>
          </Trackpoint>
          <Trackpoint>
            <Time>2022-07-08T13:19:16.000Z</Time>
            <Position>
              <LatitudeDegrees>43.3494277484714984893798828125</LatitudeDegrees>
              <LongitudeDegrees>-1.77164507098495960235595703125</LongitudeDegrees>
            </Position>
            <AltitudeMeters>18.200000762939453125</AltitudeMeters>
            <DistanceMeters>NAN</DistanceMeters>
          </Trackpoint>
          <Trackpoint>
            <Time>2022-07-08T13:19:18.000Z</Time>
            <Position>
              <LatitudeDegrees>43.3493435941636562347412109375</LatitudeDegrees>
              <LongitudeDegrees>-1.77166317589581012725830078125</LongitudeDegrees>
            </Position>
            <AltitudeMeters>18.200000762939453125</AltitudeMeters>
            <DistanceMeters>NAN</DistanceMeters>
          </Trackpoint>
          <Trackpoint>
            <Time>2022-07-08T13:19:20.000Z</Time>
            <Position>
              <LatitudeDegrees>43.349270336329936981201171875</LatitudeDegrees>
              <LongitudeDegrees>-1.77168999798595905303955078125</LongitudeDegrees>
            </Position>
            <AltitudeMeters>18</AltitudeMeters>
            <DistanceMeters>NAN</DistanceMeters>
          </Trackpoint>
          <Trackpoint>
            <Time>2022-07-08T13:19:22.000Z</Time>
            <Position>
              <LatitudeDegrees>43.34918526001274585723876953125</LatitudeDegrees>
              <LongitudeDegrees>-1.7717329971492290496826171875</LongitudeDegrees>
            </Position>
            <AltitudeMeters>17.6000003814697265625</AltitudeMeters>
            <DistanceMeters>NAN</DistanceMeters>
          </Trackpoint>
          <Trackpoint>
            <Time>2022-07-08T13:19:24.000Z</Time>
            <Position>
              <LatitudeDegrees>43.34911652840673923492431640625</LatitudeDegrees>
              <LongitudeDegrees>-1.77175453864037990570068359375</LongitudeDegrees>
            </Position>
            <AltitudeMeters>17.3999996185302734375</AltitudeMeters>
            <DistanceMeters>NAN</DistanceMeters>
          </Trackpoint>
          <Trackpoint>
            <Time>2022-07-08T13:19:25.000Z</Time>
            <Position>
              <LatitudeDegrees>43.34907780401408672332763671875</LatitudeDegrees>
              <LongitudeDegrees>-1.77176593802869319915771484375</LongitudeDegrees>
            </Position>
            <AltitudeMeters>17.3999996185302734375</AltitudeMeters>
            <DistanceMeters>NAN</DistanceMeters>
          </Trackpoint>
          <Trackpoint>
            <Time>2022-07-08T13:19:30.000Z</Time>
            <Position>
              <LatitudeDegrees>43.34890094585716724395751953125</LatitudeDegrees>
              <LongitudeDegrees>-1.7717869766056537628173828125</LongitudeDegrees>
            </Position>
            <AltitudeMeters>17</AltitudeMeters>
            <DistanceMeters>NAN</DistanceMeters>
          </Trackpoint>
          <Trackpoint>
            <Time>2022-07-08T13:19:34.000Z</Time>
            <Position>
              <LatitudeDegrees>43.3488329686224460601806640625</LatitudeDegrees>
              <LongitudeDegrees>-1.77168111316859722137451171875</LongitudeDegrees>
            </Position>
            <AltitudeMeters>16.799999237060546875</AltitudeMeters>
            <DistanceMeters>NAN</DistanceMeters>
          </Trackpoint>
          <Trackpoint>
            <Time>2022-07-08T13:19:39.000Z</Time>
            <Position>
              <LatitudeDegrees>43.34877781569957733154296875</LatitudeDegrees>
              <LongitudeDegrees>-1.77158455364406108856201171875</LongitudeDegrees>
            </Position>
            <AltitudeMeters>16.799999237060546875</AltitudeMeters>
            <DistanceMeters>NAN</DistanceMeters>
          </Trackpoint>
          <Trackpoint>
            <Time>2022-07-08T13:19:45.000Z</Time>
            <Position>
              <LatitudeDegrees>43.34877152927219867706298828125</LatitudeDegrees>
              <LongitudeDegrees>-1.7714614234864711761474609375</LongitudeDegrees>
            </Position>
            <AltitudeMeters>16.799999237060546875</AltitudeMeters>
            <DistanceMeters>NAN</DistanceMeters>
          </Trackpoint>
          <Trackpoint>
            <Time>2022-07-08T13:19:53.000Z</Time>
            <Position>
              <LatitudeDegrees>43.34876281209290027618408203125</LatitudeDegrees>
              <LongitudeDegrees>-1.77127291448414325714111328125</LongitudeDegrees>
            </Position>
            <AltitudeMeters>17</AltitudeMeters>
            <DistanceMeters>NAN</DistanceMeters>
          </Trackpoint>
          <Trackpoint>
            <Time>2022-07-08T13:19:54.000Z</Time>
            <Position>
              <LatitudeDegrees>43.34876532666385173797607421875</LatitudeDegrees>
              <LongitudeDegrees>-1.771252043545246124267578125</LongitudeDegrees>
            </Position>
            <AltitudeMeters>17</AltitudeMeters>
            <DistanceMeters>NAN</DistanceMeters>
          </Trackpoint>
          <Trackpoint>
            <Time>2022-07-08T13:19:58.000Z</Time>
            <Position>
              <LatitudeDegrees>43.3487699367105960845947265625</LatitudeDegrees>
              <LongitudeDegrees>-1.771233938634395599365234375</LongitudeDegrees>
            </Position>
            <AltitudeMeters>16.6000003814697265625</AltitudeMeters>
            <DistanceMeters>NAN</DistanceMeters>
          </Trackpoint>
          <Trackpoint>
            <Time>2022-07-08T13:50:57.000Z</Time>
            <Position>
              <LatitudeDegrees>43.34875543601810932159423828125</LatitudeDegrees>
              <LongitudeDegrees>-1.77129571326076984405517578125</LongitudeDegrees>
            </Position>
            <AltitudeMeters>23.200000762939453125</AltitudeMeters>
            <DistanceMeters>NAN</DistanceMeters>
          </Trackpoint>
          <Trackpoint>
            <Time>2022-07-08T13:51:01.000Z</Time>
            <Position>
              <LatitudeDegrees>43.3487793244421482086181640625</LatitudeDegrees>
              <LongitudeDegrees>-1.77130468189716339111328125</LongitudeDegrees>
            </Position>
            <AltitudeMeters>23.200000762939453125</AltitudeMeters>
            <DistanceMeters>NAN</DistanceMeters>
          </Trackpoint>
          <Trackpoint>
            <Time>2022-07-08T13:55:28.000Z</Time>
            <Position>
              <LatitudeDegrees>43.34877572022378444671630859375</LatitudeDegrees>
              <LongitudeDegrees>-1.7713051848113536834716796875</LongitudeDegrees>
            </Position>
            <AltitudeMeters>23.799999237060546875</AltitudeMeters>
            <DistanceMeters>NAN</DistanceMeters>
          </Trackpoint>
          <Trackpoint>
            <Time>2022-07-08T13:55:29.000Z</Time>
            <Position>
              <LatitudeDegrees>43.3487709425389766693115234375</LatitudeDegrees>
              <LongitudeDegrees>-1.7713112197816371917724609375</LongitudeDegrees>
            </Position>
            <AltitudeMeters>23.200000762939453125</AltitudeMeters>
            <DistanceMeters>NAN</DistanceMeters>
          </Trackpoint>
          <Trackpoint>
            <Time>2022-07-08T13:55:31.000Z</Time>
            <Position>
              <LatitudeDegrees>43.34878091700375080108642578125</LatitudeDegrees>
              <LongitudeDegrees>-1.77130761556327342987060546875</LongitudeDegrees>
            </Position>
            <AltitudeMeters>23.200000762939453125</AltitudeMeters>
            <DistanceMeters>NAN</DistanceMeters>
          </Trackpoint>
          <Trackpoint>
            <Time>2022-07-08T13:55:35.000Z</Time>
            <Position>
              <LatitudeDegrees>43.3487732894718647003173828125</LatitudeDegrees>
              <LongitudeDegrees>-1.77131004631519317626953125</LongitudeDegrees>
            </Position>
            <AltitudeMeters>23.6000003814697265625</AltitudeMeters>
            <DistanceMeters>NAN</DistanceMeters>
          </Trackpoint>
          <Trackpoint>
            <Time>2022-07-08T13:55:39.000Z</Time>
            <Position>
              <LatitudeDegrees>43.34874839521944522857666015625</LatitudeDegrees>
              <LongitudeDegrees>-1.77131800912320613861083984375</LongitudeDegrees>
            </Position>
            <AltitudeMeters>23.6000003814697265625</AltitudeMeters>
            <DistanceMeters>NAN</DistanceMeters>
          </Trackpoint>
          <Trackpoint>
            <Time>2022-07-08T13:55:41.000Z</Time>
            <Position>
              <LatitudeDegrees>43.348741270601749420166015625</LatitudeDegrees>
              <LongitudeDegrees>-1.7713187634944915771484375</LongitudeDegrees>
            </Position>
            <AltitudeMeters>23.6000003814697265625</AltitudeMeters>
            <DistanceMeters>NAN</DistanceMeters>
          </Trackpoint>
          <Trackpoint>
            <Time>2022-07-08T13:55:57.000Z</Time>
            <Position>
              <LatitudeDegrees>43.34871000610291957855224609375</LatitudeDegrees>
              <LongitudeDegrees>-1.7713085375726222991943359375</LongitudeDegrees>
            </Position>
            <AltitudeMeters>23.6000003814697265625</AltitudeMeters>
            <DistanceMeters>NAN</DistanceMeters>
          </Trackpoint>
          <Trackpoint>
            <Time>2022-07-08T13:55:58.000Z</Time>
            <Position>
              <LatitudeDegrees>43.3487072400748729705810546875</LatitudeDegrees>
              <LongitudeDegrees>-1.771317422389984130859375</LongitudeDegrees>
            </Position>
            <AltitudeMeters>23.6000003814697265625</AltitudeMeters>
            <DistanceMeters>NAN</DistanceMeters>
          </Trackpoint>
          <Trackpoint>
            <Time>2022-07-08T13:56:00.000Z</Time>
            <Position>
              <LatitudeDegrees>43.34870380349457263946533203125</LatitudeDegrees>
              <LongitudeDegrees>-1.77132211625576019287109375</LongitudeDegrees>
            </Position>
            <AltitudeMeters>23.3999996185302734375</AltitudeMeters>
            <DistanceMeters>NAN</DistanceMeters>
          </Trackpoint>
          <Trackpoint>
            <Time>2022-07-08T14:01:12.000Z</Time>
            <Position>
              <LatitudeDegrees>43.348733894526958465576171875</LatitudeDegrees>
              <LongitudeDegrees>-1.77127643488347530364990234375</LongitudeDegrees>
            </Position>
            <AltitudeMeters>25</AltitudeMeters>
            <DistanceMeters>NAN</DistanceMeters>
          </Trackpoint>
          <Trackpoint>
            <Time>2022-07-08T14:01:14.000Z</Time>
            <Position>
              <LatitudeDegrees>43.3487370796501636505126953125</LatitudeDegrees>
              <LongitudeDegrees>-1.771266460418701171875</LongitudeDegrees>
            </Position>
            <AltitudeMeters>25</AltitudeMeters>
            <DistanceMeters>NAN</DistanceMeters>
          </Trackpoint>
          <Trackpoint>
            <Time>2022-07-08T14:01:17.000Z</Time>
            <Position>
              <LatitudeDegrees>43.3487327210605144500732421875</LatitudeDegrees>
              <LongitudeDegrees>-1.77126486785709857940673828125</LongitudeDegrees>
            </Position>
            <AltitudeMeters>25.200000762939453125</AltitudeMeters>
            <DistanceMeters>NAN</DistanceMeters>
          </Trackpoint>
          <Trackpoint>
            <Time>2022-07-08T14:08:07.000Z</Time>
            <Position>
              <LatitudeDegrees>43.348870016634464263916015625</LatitudeDegrees>
              <LongitudeDegrees>-1.77122128196060657501220703125</LongitudeDegrees>
            </Position>
            <AltitudeMeters>24.200000762939453125</AltitudeMeters>
            <DistanceMeters>NAN</DistanceMeters>
          </Trackpoint>
          <Trackpoint>
            <Time>2022-07-08T14:08:09.000Z</Time>
            <Position>
              <LatitudeDegrees>43.348865322768688201904296875</LatitudeDegrees>
              <LongitudeDegrees>-1.77117316983640193939208984375</LongitudeDegrees>
            </Position>
            <AltitudeMeters>24.200000762939453125</AltitudeMeters>
            <DistanceMeters>NAN</DistanceMeters>
          </Trackpoint>
          <Trackpoint>
            <Time>2022-07-08T14:08:13.000Z</Time>
            <Position>
              <LatitudeDegrees>43.34885702468454837799072265625</LatitudeDegrees>
              <LongitudeDegrees>-1.77109136246144771575927734375</LongitudeDegrees>
            </Position>
            <AltitudeMeters>26</AltitudeMeters>
            <DistanceMeters>NAN</DistanceMeters>
          </Trackpoint>
          <Trackpoint>
            <Time>2022-07-08T14:08:14.000Z</Time>
            <Position>
              <LatitudeDegrees>43.34885417483747005462646484375</LatitudeDegrees>
              <LongitudeDegrees>-1.771073006093502044677734375</LongitudeDegrees>
            </Position>
            <AltitudeMeters>26.200000762939453125</AltitudeMeters>
            <DistanceMeters>NAN</DistanceMeters>
          </Trackpoint>
          <Trackpoint>
            <Time>2022-07-08T14:08:18.000Z</Time>
            <Position>
              <LatitudeDegrees>43.348840177059173583984375</LatitudeDegrees>
              <LongitudeDegrees>-1.77098684012889862060546875</LongitudeDegrees>
            </Position>
            <AltitudeMeters>26.200000762939453125</AltitudeMeters>
            <DistanceMeters>NAN</DistanceMeters>
          </Trackpoint>
          <Trackpoint>
            <Time>2022-07-08T14:08:21.000Z</Time>
            <Position>
              <LatitudeDegrees>43.34883674047887325286865234375</LatitudeDegrees>
              <LongitudeDegrees>-1.77092405967414379119873046875</LongitudeDegrees>
            </Position>
            <AltitudeMeters>26.200000762939453125</AltitudeMeters>
            <DistanceMeters>NAN</DistanceMeters>
          </Trackpoint>
          <Trackpoint>
            <Time>2022-07-08T14:08:25.000Z</Time>
            <Position>
              <LatitudeDegrees>43.3488084934651851654052734375</LatitudeDegrees>
              <LongitudeDegrees>-1.7708770371973514556884765625</LongitudeDegrees>
            </Position>
            <AltitudeMeters>26</AltitudeMeters>
            <DistanceMeters>NAN</DistanceMeters>
          </Trackpoint>
          <Trackpoint>
            <Time>2022-07-08T14:08:27.000Z</Time>
            <Position>
              <LatitudeDegrees>43.348810337483882904052734375</LatitudeDegrees>
              <LongitudeDegrees>-1.7708654701709747314453125</LongitudeDegrees>
            </Position>
            <AltitudeMeters>26</AltitudeMeters>
            <DistanceMeters>NAN</DistanceMeters>
          </Trackpoint>
          <Trackpoint>
            <Time>2022-07-08T14:08:28.000Z</Time>
            <Position>
              <LatitudeDegrees>43.34880991838872432708740234375</LatitudeDegrees>
              <LongitudeDegrees>-1.77086370997130870819091796875</LongitudeDegrees>
            </Position>
            <AltitudeMeters>26</AltitudeMeters>
            <DistanceMeters>NAN</DistanceMeters>
          </Trackpoint>
          <Trackpoint>
            <Time>2022-07-08T14:09:02.000Z</Time>
            <Position>
              <LatitudeDegrees>43.3488039672374725341796875</LatitudeDegrees>
              <LongitudeDegrees>-1.7707781307399272918701171875</LongitudeDegrees>
            </Position>
            <AltitudeMeters>25</AltitudeMeters>
            <DistanceMeters>NAN</DistanceMeters>
          </Trackpoint>
          <Trackpoint>
            <Time>2022-07-08T14:09:03.000Z</Time>
            <Position>
              <LatitudeDegrees>43.34879080764949321746826171875</LatitudeDegrees>
              <LongitudeDegrees>-1.77074619568884372711181640625</LongitudeDegrees>
            </Position>
            <AltitudeMeters>25</AltitudeMeters>
            <DistanceMeters>NAN</DistanceMeters>
          </Trackpoint>
          <Trackpoint>
            <Time>2022-07-08T14:09:04.000Z</Time>
            <Position>
              <LatitudeDegrees>43.34878376685082912445068359375</LatitudeDegrees>
              <LongitudeDegrees>-1.77070814184844493865966796875</LongitudeDegrees>
            </Position>
            <AltitudeMeters>25</AltitudeMeters>
            <DistanceMeters>NAN</DistanceMeters>
          </Trackpoint>
          <Trackpoint>
            <Time>2022-07-08T14:09:10.000Z</Time>
            <Position>
              <LatitudeDegrees>43.34872693754732608795166015625</LatitudeDegrees>
              <LongitudeDegrees>-1.77051032893359661102294921875</LongitudeDegrees>
            </Position>
            <AltitudeMeters>24.799999237060546875</AltitudeMeters>
            <DistanceMeters>NAN</DistanceMeters>
          </Trackpoint>
          <Trackpoint>
            <Time>2022-07-08T14:09:12.000Z</Time>
            <Position>
              <LatitudeDegrees>43.34869659505784511566162109375</LatitudeDegrees>
              <LongitudeDegrees>-1.7704629711806774139404296875</LongitudeDegrees>
            </Position>
            <AltitudeMeters>24.6000003814697265625</AltitudeMeters>
            <DistanceMeters>NAN</DistanceMeters>
          </Trackpoint>
          <Trackpoint>
            <Time>2022-07-08T14:09:15.000Z</Time>
            <Position>
              <LatitudeDegrees>43.3486948348581790924072265625</LatitudeDegrees>
              <LongitudeDegrees>-1.77035928703844547271728515625</LongitudeDegrees>
            </Position>
            <AltitudeMeters>24.3999996185302734375</AltitudeMeters>
            <DistanceMeters>NAN</DistanceMeters>
          </Trackpoint>
          <Trackpoint>
            <Time>2022-07-08T14:09:20.000Z</Time>
            <Position>
              <LatitudeDegrees>43.3488214015960693359375</LatitudeDegrees>
              <LongitudeDegrees>-1.77026239223778247833251953125</LongitudeDegrees>
            </Position>
            <AltitudeMeters>24.3999996185302734375</AltitudeMeters>
            <DistanceMeters>NAN</DistanceMeters>
          </Trackpoint>
          <Trackpoint>
            <Time>2022-07-08T14:09:26.000Z</Time>
            <Position>
              <LatitudeDegrees>43.3489456214010715484619140625</LatitudeDegrees>
              <LongitudeDegrees>-1.77024655044078826904296875</LongitudeDegrees>
            </Position>
            <AltitudeMeters>25</AltitudeMeters>
            <DistanceMeters>NAN</DistanceMeters>
          </Trackpoint>
          <Trackpoint>
            <Time>2022-07-08T14:09:27.000Z</Time>
            <Position>
              <LatitudeDegrees>43.34896045736968517303466796875</LatitudeDegrees>
              <LongitudeDegrees>-1.77023255266249179840087890625</LongitudeDegrees>
            </Position>
            <AltitudeMeters>25.200000762939453125</AltitudeMeters>
            <DistanceMeters>NAN</DistanceMeters>
          </Trackpoint>
          <Trackpoint>
            <Time>2022-07-08T14:09:31.000Z</Time>
            <Position>
              <LatitudeDegrees>43.3490076474845409393310546875</LatitudeDegrees>
              <LongitudeDegrees>-1.770143620669841766357421875</LongitudeDegrees>
            </Position>
            <AltitudeMeters>25.6000003814697265625</AltitudeMeters>
            <DistanceMeters>NAN</DistanceMeters>
          </Trackpoint>
          <Trackpoint>
            <Time>2022-07-08T14:09:34.000Z</Time>
            <Position>
              <LatitudeDegrees>43.349053077399730682373046875</LatitudeDegrees>
              <LongitudeDegrees>-1.77008771337568759918212890625</LongitudeDegrees>
            </Position>
            <AltitudeMeters>25.799999237060546875</AltitudeMeters>
            <DistanceMeters>NAN</DistanceMeters>
          </Trackpoint>
          <Trackpoint>
            <Time>2022-07-08T14:09:39.000Z</Time>
            <Position>
              <LatitudeDegrees>43.34914854727685451507568359375</LatitudeDegrees>
              <LongitudeDegrees>-1.770031638443470001220703125</LongitudeDegrees>
            </Position>
            <AltitudeMeters>26</AltitudeMeters>
            <DistanceMeters>NAN</DistanceMeters>
          </Trackpoint>
          <Trackpoint>
            <Time>2022-07-08T14:09:40.000Z</Time>
            <Position>
              <LatitudeDegrees>43.34917210042476654052734375</LatitudeDegrees>
              <LongitudeDegrees>-1.77003331482410430908203125</LongitudeDegrees>
            </Position>
            <AltitudeMeters>26</AltitudeMeters>
            <DistanceMeters>NAN</DistanceMeters>
          </Trackpoint>
          <Trackpoint>
            <Time>2022-07-08T14:09:44.000Z</Time>
            <Position>
              <LatitudeDegrees>43.34924024529755115509033203125</LatitudeDegrees>
              <LongitudeDegrees>-1.77012023515999317169189453125</LongitudeDegrees>
            </Position>
            <AltitudeMeters>26.200000762939453125</AltitudeMeters>
            <DistanceMeters>NAN</DistanceMeters>
          </Trackpoint>
          <Trackpoint>
            <Time>2022-07-08T14:09:47.000Z</Time>
            <Position>
              <LatitudeDegrees>43.3492505550384521484375</LatitudeDegrees>
              <LongitudeDegrees>-1.77024378441274166107177734375</LongitudeDegrees>
            </Position>
            <AltitudeMeters>26.200000762939453125</AltitudeMeters>
            <DistanceMeters>NAN</DistanceMeters>
          </Trackpoint>
          <Trackpoint>
            <Time>2022-07-08T14:09:50.000Z</Time>
            <Position>
              <LatitudeDegrees>43.34925080649554729461669921875</LatitudeDegrees>
              <LongitudeDegrees>-1.77037253044545650482177734375</LongitudeDegrees>
            </Position>
            <AltitudeMeters>25.799999237060546875</AltitudeMeters>
            <DistanceMeters>NAN</DistanceMeters>
          </Trackpoint>
          <Trackpoint>
            <Time>2022-07-08T14:09:52.000Z</Time>
            <Position>
              <LatitudeDegrees>43.34925147704780101776123046875</LatitudeDegrees>
              <LongitudeDegrees>-1.77044830285012722015380859375</LongitudeDegrees>
            </Position>
            <AltitudeMeters>25.6000003814697265625</AltitudeMeters>
            <DistanceMeters>NAN</DistanceMeters>
          </Trackpoint>
          <Trackpoint>
            <Time>2022-07-08T14:09:54.000Z</Time>
            <Position>
              <LatitudeDegrees>43.349266313016414642333984375</LatitudeDegrees>
              <LongitudeDegrees>-1.770499013364315032958984375</LongitudeDegrees>
            </Position>
            <AltitudeMeters>25.6000003814697265625</AltitudeMeters>
            <DistanceMeters>NAN</DistanceMeters>
          </Trackpoint>
          <Trackpoint>
            <Time>2022-07-08T14:09:55.000Z</Time>
            <Position>
              <LatitudeDegrees>43.34926857613027095794677734375</LatitudeDegrees>
              <LongitudeDegrees>-1.77051217295229434967041015625</LongitudeDegrees>
            </Position>
            <AltitudeMeters>25.3999996185302734375</AltitudeMeters>
            <DistanceMeters>NAN</DistanceMeters>
          </Trackpoint>
          <Trackpoint>
            <Time>2022-07-08T14:09:58.000Z</Time>
            <Position>
              <LatitudeDegrees>43.3492644689977169036865234375</LatitudeDegrees>
              <LongitudeDegrees>-1.7705203033983707427978515625</LongitudeDegrees>
            </Position>
            <AltitudeMeters>25.200000762939453125</AltitudeMeters>
            <DistanceMeters>NAN</DistanceMeters>
          </Trackpoint>
          <Trackpoint>
            <Time>2022-07-08T14:10:42.000Z</Time>
            <Position>
              <LatitudeDegrees>43.3493055403232574462890625</LatitudeDegrees>
              <LongitudeDegrees>-1.77054553292691707611083984375</LongitudeDegrees>
            </Position>
            <AltitudeMeters>22.799999237060546875</AltitudeMeters>
            <DistanceMeters>NAN</DistanceMeters>
          </Trackpoint>
          <Trackpoint>
            <Time>2022-07-08T14:10:43.000Z</Time>
            <Position>
              <LatitudeDegrees>43.3493109047412872314453125</LatitudeDegrees>
              <LongitudeDegrees>-1.77058476023375988006591796875</LongitudeDegrees>
            </Position>
            <AltitudeMeters>22.799999237060546875</AltitudeMeters>
            <DistanceMeters>NAN</DistanceMeters>
          </Trackpoint>
          <Trackpoint>
            <Time>2022-07-08T14:10:48.000Z</Time>
            <Position>
              <LatitudeDegrees>43.34934300743043422698974609375</LatitudeDegrees>
              <LongitudeDegrees>-1.7707855068147182464599609375</LongitudeDegrees>
            </Position>
            <AltitudeMeters>22.3999996185302734375</AltitudeMeters>
            <DistanceMeters>NAN</DistanceMeters>
          </Trackpoint>
          <Trackpoint>
            <Time>2022-07-08T14:10:54.000Z</Time>
            <Position>
              <LatitudeDegrees>43.34936949424445629119873046875</LatitudeDegrees>
              <LongitudeDegrees>-1.7709209583699703216552734375</LongitudeDegrees>
            </Position>
            <AltitudeMeters>21.799999237060546875</AltitudeMeters>
            <DistanceMeters>NAN</DistanceMeters>
          </Trackpoint>
          <Trackpoint>
            <Time>2022-07-08T14:10:59.000Z</Time>
            <Position>
              <LatitudeDegrees>43.34936966188251972198486328125</LatitudeDegrees>
              <LongitudeDegrees>-1.77095809020102024078369140625</LongitudeDegrees>
            </Position>
            <AltitudeMeters>21.6000003814697265625</AltitudeMeters>
            <DistanceMeters>NAN</DistanceMeters>
          </Trackpoint>
          <Trackpoint>
            <Time>2022-07-08T14:11:01.000Z</Time>
            <Position>
              <LatitudeDegrees>43.34936798550188541412353515625</LatitudeDegrees>
              <LongitudeDegrees>-1.77096865139901638031005859375</LongitudeDegrees>
            </Position>
            <AltitudeMeters>21.3999996185302734375</AltitudeMeters>
            <DistanceMeters>NAN</DistanceMeters>
          </Trackpoint>
          <Trackpoint>
            <Time>2022-07-08T14:11:08.000Z</Time>
            <Position>
              <LatitudeDegrees>43.34934401325881481170654296875</LatitudeDegrees>
              <LongitudeDegrees>-1.7708777077496051788330078125</LongitudeDegrees>
            </Position>
            <AltitudeMeters>21.3999996185302734375</AltitudeMeters>
            <DistanceMeters>NAN</DistanceMeters>
          </Trackpoint>
          <Trackpoint>
            <Time>2022-07-08T14:11:09.000Z</Time>
            <Position>
              <LatitudeDegrees>43.349336050450801849365234375</LatitudeDegrees>
              <LongitudeDegrees>-1.770855076611042022705078125</LongitudeDegrees>
            </Position>
            <AltitudeMeters>21.6000003814697265625</AltitudeMeters>
            <DistanceMeters>NAN</DistanceMeters>
          </Trackpoint>
          <Trackpoint>
            <Time>2022-07-08T14:11:15.000Z</Time>
            <Position>
              <LatitudeDegrees>43.3492912910878658294677734375</LatitudeDegrees>
              <LongitudeDegrees>-1.7706772126257419586181640625</LongitudeDegrees>
            </Position>
            <AltitudeMeters>21.3999996185302734375</AltitudeMeters>
            <DistanceMeters>NAN</DistanceMeters>
          </Trackpoint>
          <Trackpoint>
            <Time>2022-07-08T14:11:23.000Z</Time>
            <Position>
              <LatitudeDegrees>43.34928215481340885162353515625</LatitudeDegrees>
              <LongitudeDegrees>-1.77039097063243389129638671875</LongitudeDegrees>
            </Position>
            <AltitudeMeters>21.799999237060546875</AltitudeMeters>
            <DistanceMeters>NAN</DistanceMeters>
          </Trackpoint>
          <Trackpoint>
            <Time>2022-07-08T14:11:29.000Z</Time>
            <Position>
              <LatitudeDegrees>43.34926488809287548065185546875</LatitudeDegrees>
              <LongitudeDegrees>-1.77013984881341457366943359375</LongitudeDegrees>
            </Position>
            <AltitudeMeters>22.200000762939453125</AltitudeMeters>
            <DistanceMeters>NAN</DistanceMeters>
          </Trackpoint>
          <Trackpoint>
            <Time>2022-07-08T14:11:34.000Z</Time>
            <Position>
              <LatitudeDegrees>43.3492545783519744873046875</LatitudeDegrees>
              <LongitudeDegrees>-1.76995955407619476318359375</LongitudeDegrees>
            </Position>
            <AltitudeMeters>22.6000003814697265625</AltitudeMeters>
            <DistanceMeters>NAN</DistanceMeters>
          </Trackpoint>
          <Trackpoint>
            <Time>2022-07-08T14:11:35.000Z</Time>
            <Position>
              <LatitudeDegrees>43.34924158640205860137939453125</LatitudeDegrees>
              <LongitudeDegrees>-1.76994203589856624603271484375</LongitudeDegrees>
            </Position>
            <AltitudeMeters>22.6000003814697265625</AltitudeMeters>
            <DistanceMeters>NAN</DistanceMeters>
          </Trackpoint>
          <Trackpoint>
            <Time>2022-07-08T14:11:38.000Z</Time>
            <Position>
              <LatitudeDegrees>43.34918727166950702667236328125</LatitudeDegrees>
              <LongitudeDegrees>-1.76989878527820110321044921875</LongitudeDegrees>
            </Position>
            <AltitudeMeters>22.200000762939453125</AltitudeMeters>
            <DistanceMeters>NAN</DistanceMeters>
          </Trackpoint>
          <Trackpoint>
            <Time>2022-07-08T14:11:39.000Z</Time>
            <Position>
              <LatitudeDegrees>43.34917721338570117950439453125</LatitudeDegrees>
              <LongitudeDegrees>-1.7698665149509906768798828125</LongitudeDegrees>
            </Position>
            <AltitudeMeters>22</AltitudeMeters>
            <DistanceMeters>NAN</DistanceMeters>
          </Trackpoint>
          <Trackpoint>
            <Time>2022-07-08T14:11:43.000Z</Time>
            <Position>
              <LatitudeDegrees>43.34919062443077564239501953125</LatitudeDegrees>
              <LongitudeDegrees>-1.76972125656902790069580078125</LongitudeDegrees>
            </Position>
            <AltitudeMeters>22.3999996185302734375</AltitudeMeters>
            <DistanceMeters>NAN</DistanceMeters>
          </Trackpoint>
          <Trackpoint>
            <Time>2022-07-08T14:11:44.000Z</Time>
            <Position>
              <LatitudeDegrees>43.34919732995331287384033203125</LatitudeDegrees>
              <LongitudeDegrees>-1.769675575196743011474609375</LongitudeDegrees>
            </Position>
            <AltitudeMeters>22.6000003814697265625</AltitudeMeters>
            <DistanceMeters>NAN</DistanceMeters>
          </Trackpoint>
          <Trackpoint>
            <Time>2022-07-08T14:11:49.000Z</Time>
            <Position>
              <LatitudeDegrees>43.34917478263378143310546875</LatitudeDegrees>
              <LongitudeDegrees>-1.7694742418825626373291015625</LongitudeDegrees>
            </Position>
            <AltitudeMeters>22.799999237060546875</AltitudeMeters>
            <DistanceMeters>NAN</DistanceMeters>
          </Trackpoint>
          <Trackpoint>
            <Time>2022-07-08T14:11:51.000Z</Time>
            <Position>
              <LatitudeDegrees>43.3491699211299419403076171875</LatitudeDegrees>
              <LongitudeDegrees>-1.7693920992314815521240234375</LongitudeDegrees>
            </Position>
            <AltitudeMeters>22.799999237060546875</AltitudeMeters>
            <DistanceMeters>NAN</DistanceMeters>
          </Trackpoint>
          <Trackpoint>
            <Time>2022-07-08T14:11:59.000Z</Time>
            <Position>
              <LatitudeDegrees>43.349112756550312042236328125</LatitudeDegrees>
              <LongitudeDegrees>-1.76908859051764011383056640625</LongitudeDegrees>
            </Position>
            <AltitudeMeters>23.6000003814697265625</AltitudeMeters>
            <DistanceMeters>NAN</DistanceMeters>
          </Trackpoint>
          <Trackpoint>
            <Time>2022-07-08T14:12:06.000Z</Time>
            <Position>
              <LatitudeDegrees>43.3490247465670108795166015625</LatitudeDegrees>
              <LongitudeDegrees>-1.7688466049730777740478515625</LongitudeDegrees>
            </Position>
            <AltitudeMeters>23.6000003814697265625</AltitudeMeters>
            <DistanceMeters>NAN</DistanceMeters>
          </Trackpoint>
          <Trackpoint>
            <Time>2022-07-08T14:12:09.000Z</Time>
            <Position>
              <LatitudeDegrees>43.3490239083766937255859375</LatitudeDegrees>
              <LongitudeDegrees>-1.768726743757724761962890625</LongitudeDegrees>
            </Position>
            <AltitudeMeters>24</AltitudeMeters>
            <DistanceMeters>NAN</DistanceMeters>
          </Trackpoint>
          <Trackpoint>
            <Time>2022-07-08T14:12:12.000Z</Time>
            <Position>
              <LatitudeDegrees>43.34897772409021854400634765625</LatitudeDegrees>
              <LongitudeDegrees>-1.76861853338778018951416015625</LongitudeDegrees>
            </Position>
            <AltitudeMeters>24.200000762939453125</AltitudeMeters>
            <DistanceMeters>NAN</DistanceMeters>
          </Trackpoint>
          <Trackpoint>
            <Time>2022-07-08T14:12:18.000Z</Time>
            <Position>
              <LatitudeDegrees>43.348877392709255218505859375</LatitudeDegrees>
              <LongitudeDegrees>-1.7684097401797771453857421875</LongitudeDegrees>
            </Position>
            <AltitudeMeters>25</AltitudeMeters>
            <DistanceMeters>NAN</DistanceMeters>
          </Trackpoint>
          <Trackpoint>
            <Time>2022-07-08T14:12:22.000Z</Time>
            <Position>
              <LatitudeDegrees>43.348791897296905517578125</LatitudeDegrees>
              <LongitudeDegrees>-1.7682592011988162994384765625</LongitudeDegrees>
            </Position>
            <AltitudeMeters>25.200000762939453125</AltitudeMeters>
            <DistanceMeters>NAN</DistanceMeters>
          </Trackpoint>
          <Trackpoint>
            <Time>2022-07-08T14:12:26.000Z</Time>
            <Position>
              <LatitudeDegrees>43.34871302358806133270263671875</LatitudeDegrees>
              <LongitudeDegrees>-1.7681032977998256683349609375</LongitudeDegrees>
            </Position>
            <AltitudeMeters>25.3999996185302734375</AltitudeMeters>
            <DistanceMeters>NAN</DistanceMeters>
          </Trackpoint>
          <Trackpoint>
            <Time>2022-07-08T14:12:29.000Z</Time>
            <Position>
              <LatitudeDegrees>43.34864714182913303375244140625</LatitudeDegrees>
              <LongitudeDegrees>-1.767964661121368408203125</LongitudeDegrees>
            </Position>
            <AltitudeMeters>25.3999996185302734375</AltitudeMeters>
            <DistanceMeters>NAN</DistanceMeters>
          </Trackpoint>
          <Trackpoint>
            <Time>2022-07-08T14:12:30.000Z</Time>
            <Position>
              <LatitudeDegrees>43.3486214093863964080810546875</LatitudeDegrees>
              <LongitudeDegrees>-1.76791596226394176483154296875</LongitudeDegrees>
            </Position>
            <AltitudeMeters>25.3999996185302734375</AltitudeMeters>
            <DistanceMeters>NAN</DistanceMeters>
          </Trackpoint>
          <Trackpoint>
            <Time>2022-07-08T14:12:37.000Z</Time>
            <Position>
              <LatitudeDegrees>43.34841194562613964080810546875</LatitudeDegrees>
              <LongitudeDegrees>-1.76754481159150600433349609375</LongitudeDegrees>
            </Position>
            <AltitudeMeters>24.6000003814697265625</AltitudeMeters>
            <DistanceMeters>NAN</DistanceMeters>
          </Trackpoint>
          <Trackpoint>
            <Time>2022-07-08T14:12:42.000Z</Time>
            <Position>
              <LatitudeDegrees>43.34823911078274250030517578125</LatitudeDegrees>
              <LongitudeDegrees>-1.76721699535846710205078125</LongitudeDegrees>
            </Position>
            <AltitudeMeters>24</AltitudeMeters>
            <DistanceMeters>NAN</DistanceMeters>
          </Trackpoint>
          <Trackpoint>
            <Time>2022-07-08T14:12:43.000Z</Time>
            <Position>
              <LatitudeDegrees>43.34819845855236053466796875</LatitudeDegrees>
              <LongitudeDegrees>-1.7671506106853485107421875</LongitudeDegrees>
            </Position>
            <AltitudeMeters>23.6000003814697265625</AltitudeMeters>
            <DistanceMeters>NAN</DistanceMeters>
          </Trackpoint>
          <Trackpoint>
            <Time>2022-07-08T14:12:49.000Z</Time>
            <Position>
              <LatitudeDegrees>43.34790316410362720489501953125</LatitudeDegrees>
              <LongitudeDegrees>-1.7668195255100727081298828125</LongitudeDegrees>
            </Position>
            <AltitudeMeters>23</AltitudeMeters>
            <DistanceMeters>NAN</DistanceMeters>
          </Trackpoint>
          <Trackpoint>
            <Time>2022-07-08T14:12:55.000Z</Time>
            <Position>
              <LatitudeDegrees>43.347579538822174072265625</LatitudeDegrees>
              <LongitudeDegrees>-1.76661643199622631072998046875</LongitudeDegrees>
            </Position>
            <AltitudeMeters>23</AltitudeMeters>
            <DistanceMeters>NAN</DistanceMeters>
          </Trackpoint>
          <Trackpoint>
            <Time>2022-07-08T14:13:00.000Z</Time>
            <Position>
              <LatitudeDegrees>43.34736295044422149658203125</LatitudeDegrees>
              <LongitudeDegrees>-1.76648969762027263641357421875</LongitudeDegrees>
            </Position>
            <AltitudeMeters>23</AltitudeMeters>
            <DistanceMeters>NAN</DistanceMeters>
          </Trackpoint>
          <Trackpoint>
            <Time>2022-07-08T14:13:04.000Z</Time>
            <Position>
              <LatitudeDegrees>43.34721869789063930511474609375</LatitudeDegrees>
              <LongitudeDegrees>-1.7663954012095928192138671875</LongitudeDegrees>
            </Position>
            <AltitudeMeters>23</AltitudeMeters>
            <DistanceMeters>NAN</DistanceMeters>
          </Trackpoint>
          <Trackpoint>
            <Time>2022-07-08T14:13:07.000Z</Time>
            <Position>
              <LatitudeDegrees>43.34711660631000995635986328125</LatitudeDegrees>
              <LongitudeDegrees>-1.7663092352449893951416015625</LongitudeDegrees>
            </Position>
            <AltitudeMeters>23.200000762939453125</AltitudeMeters>
            <DistanceMeters>NAN</DistanceMeters>
          </Trackpoint>
          <Trackpoint>
            <Time>2022-07-08T14:13:08.000Z</Time>
            <Position>
              <LatitudeDegrees>43.34708668291568756103515625</LatitudeDegrees>
              <LongitudeDegrees>-1.76627730019390583038330078125</LongitudeDegrees>
            </Position>
            <AltitudeMeters>23.200000762939453125</AltitudeMeters>
            <DistanceMeters>NAN</DistanceMeters>
          </Trackpoint>
          <Trackpoint>
            <Time>2022-07-08T14:13:13.000Z</Time>
            <Position>
              <LatitudeDegrees>43.34693773649632930755615234375</LatitudeDegrees>
              <LongitudeDegrees>-1.76617269404232501983642578125</LongitudeDegrees>
            </Position>
            <AltitudeMeters>23.3999996185302734375</AltitudeMeters>
            <DistanceMeters>NAN</DistanceMeters>
          </Trackpoint>
          <Trackpoint>
            <Time>2022-07-08T14:13:14.000Z</Time>
            <Position>
              <LatitudeDegrees>43.34692130796611309051513671875</LatitudeDegrees>
              <LongitudeDegrees>-1.76618828438222408294677734375</LongitudeDegrees>
            </Position>
            <AltitudeMeters>23.6000003814697265625</AltitudeMeters>
            <DistanceMeters>NAN</DistanceMeters>
          </Trackpoint>
          <Trackpoint>
            <Time>2022-07-08T14:13:17.000Z</Time>
            <Position>
              <LatitudeDegrees>43.346938826143741607666015625</LatitudeDegrees>
              <LongitudeDegrees>-1.76626388914883136749267578125</LongitudeDegrees>
            </Position>
            <AltitudeMeters>23.6000003814697265625</AltitudeMeters>
            <DistanceMeters>NAN</DistanceMeters>
          </Trackpoint>
          <Trackpoint>
            <Time>2022-07-08T14:13:22.000Z</Time>
            <Position>
              <LatitudeDegrees>43.346979059278964996337890625</LatitudeDegrees>
              <LongitudeDegrees>-1.76632356829941272735595703125</LongitudeDegrees>
            </Position>
            <AltitudeMeters>23.6000003814697265625</AltitudeMeters>
            <DistanceMeters>NAN</DistanceMeters>
          </Trackpoint>
          <Trackpoint>
            <Time>2022-07-08T14:13:23.000Z</Time>
            <Position>
              <LatitudeDegrees>43.346979059278964996337890625</LatitudeDegrees>
              <LongitudeDegrees>-1.76632356829941272735595703125</LongitudeDegrees>
            </Position>
            <AltitudeMeters>23.6000003814697265625</AltitudeMeters>
            <DistanceMeters>NAN</DistanceMeters>
          </Trackpoint>
          <Trackpoint>
            <Time>2022-07-08T14:15:03.000Z</Time>
            <Position>
              <LatitudeDegrees>43.34703614003956317901611328125</LatitudeDegrees>
              <LongitudeDegrees>-1.766374446451663970947265625</LongitudeDegrees>
            </Position>
            <AltitudeMeters>23.200000762939453125</AltitudeMeters>
            <DistanceMeters>NAN</DistanceMeters>
          </Trackpoint>
          <Trackpoint>
            <Time>2022-07-08T14:15:05.000Z</Time>
            <Position>
              <LatitudeDegrees>43.34706715308129787445068359375</LatitudeDegrees>
              <LongitudeDegrees>-1.76639297045767307281494140625</LongitudeDegrees>
            </Position>
            <AltitudeMeters>24.200000762939453125</AltitudeMeters>
            <DistanceMeters>NAN</DistanceMeters>
          </Trackpoint>
          <Trackpoint>
            <Time>2022-07-08T14:15:06.000Z</Time>
            <Position>
              <LatitudeDegrees>43.34708777256309986114501953125</LatitudeDegrees>
              <LongitudeDegrees>-1.76639749668538570404052734375</LongitudeDegrees>
            </Position>
            <AltitudeMeters>24.200000762939453125</AltitudeMeters>
            <DistanceMeters>NAN</DistanceMeters>
          </Trackpoint>
          <Trackpoint>
            <Time>2022-07-08T14:15:08.000Z</Time>
            <Position>
              <LatitudeDegrees>43.34711484611034393310546875</LatitudeDegrees>
              <LongitudeDegrees>-1.76638006232678890228271484375</LongitudeDegrees>
            </Position>
            <AltitudeMeters>24.3999996185302734375</AltitudeMeters>
            <DistanceMeters>NAN</DistanceMeters>
          </Trackpoint>
          <Trackpoint>
            <Time>2022-07-08T14:15:10.000Z</Time>
            <Position>
              <LatitudeDegrees>43.34713303484022617340087890625</LatitudeDegrees>
              <LongitudeDegrees>-1.76634888164699077606201171875</LongitudeDegrees>
            </Position>
            <AltitudeMeters>24.200000762939453125</AltitudeMeters>
            <DistanceMeters>NAN</DistanceMeters>
          </Trackpoint>
          <Trackpoint>
            <Time>2022-07-08T14:15:11.000Z</Time>
            <Position>
              <LatitudeDegrees>43.34713454358279705047607421875</LatitudeDegrees>
              <LongitudeDegrees>-1.766330190002918243408203125</LongitudeDegrees>
            </Position>
            <AltitudeMeters>24.200000762939453125</AltitudeMeters>
            <DistanceMeters>NAN</DistanceMeters>
          </Trackpoint>
          <Trackpoint>
            <Time>2022-07-08T14:15:17.000Z</Time>
            <Position>
              <LatitudeDegrees>43.34704569540917873382568359375</LatitudeDegrees>
              <LongitudeDegrees>-1.76623304374516010284423828125</LongitudeDegrees>
            </Position>
            <AltitudeMeters>24</AltitudeMeters>
            <DistanceMeters>NAN</DistanceMeters>
          </Trackpoint>
          <Trackpoint>
            <Time>2022-07-08T14:15:23.000Z</Time>
            <Position>
              <LatitudeDegrees>43.34691627882421016693115234375</LatitudeDegrees>
              <LongitudeDegrees>-1.7661345563828945159912109375</LongitudeDegrees>
            </Position>
            <AltitudeMeters>24.200000762939453125</AltitudeMeters>
            <DistanceMeters>NAN</DistanceMeters>
          </Trackpoint>
          <Trackpoint>
            <Time>2022-07-08T14:15:35.000Z</Time>
            <Position>
              <LatitudeDegrees>43.3466778136789798736572265625</LatitudeDegrees>
              <LongitudeDegrees>-1.7658535949885845184326171875</LongitudeDegrees>
            </Position>
            <AltitudeMeters>25</AltitudeMeters>
            <DistanceMeters>NAN</DistanceMeters>
          </Trackpoint>
          <Trackpoint>
            <Time>2022-07-08T14:15:39.000Z</Time>
            <Position>
              <LatitudeDegrees>43.34659005515277385711669921875</LatitudeDegrees>
              <LongitudeDegrees>-1.76575980149209499359130859375</LongitudeDegrees>
            </Position>
            <AltitudeMeters>25.200000762939453125</AltitudeMeters>
            <DistanceMeters>NAN</DistanceMeters>
          </Trackpoint>
          <Trackpoint>
            <Time>2022-07-08T14:15:42.000Z</Time>
            <Position>
              <LatitudeDegrees>43.34651662968099117279052734375</LatitudeDegrees>
              <LongitudeDegrees>-1.76568654365837574005126953125</LongitudeDegrees>
            </Position>
            <AltitudeMeters>25.6000003814697265625</AltitudeMeters>
            <DistanceMeters>NAN</DistanceMeters>
          </Trackpoint>
          <Trackpoint>
            <Time>2022-07-08T14:15:47.000Z</Time>
            <Position>
              <LatitudeDegrees>43.34643113426864147186279296875</LatitudeDegrees>
              <LongitudeDegrees>-1.7655374296009540557861328125</LongitudeDegrees>
            </Position>
            <AltitudeMeters>26.200000762939453125</AltitudeMeters>
            <DistanceMeters>NAN</DistanceMeters>
          </Trackpoint>
          <Trackpoint>
            <Time>2022-07-08T14:15:50.000Z</Time>
            <Position>
              <LatitudeDegrees>43.3463891409337520599365234375</LatitudeDegrees>
              <LongitudeDegrees>-1.765441037714481353759765625</LongitudeDegrees>
            </Position>
            <AltitudeMeters>26.6000003814697265625</AltitudeMeters>
            <DistanceMeters>NAN</DistanceMeters>
          </Trackpoint>
          <Trackpoint>
            <Time>2022-07-08T14:15:54.000Z</Time>
            <Position>
              <LatitudeDegrees>43.34633541293442249298095703125</LatitudeDegrees>
              <LongitudeDegrees>-1.765283457934856414794921875</LongitudeDegrees>
            </Position>
            <AltitudeMeters>27</AltitudeMeters>
            <DistanceMeters>NAN</DistanceMeters>
          </Trackpoint>
          <Trackpoint>
            <Time>2022-07-08T14:15:56.000Z</Time>
            <Position>
              <LatitudeDegrees>43.34631345234811305999755859375</LatitudeDegrees>
              <LongitudeDegrees>-1.7651894129812717437744140625</LongitudeDegrees>
            </Position>
            <AltitudeMeters>27.3999996185302734375</AltitudeMeters>
            <DistanceMeters>NAN</DistanceMeters>
          </Trackpoint>
          <Trackpoint>
            <Time>2022-07-08T14:15:58.000Z</Time>
            <Position>
              <LatitudeDegrees>43.34629551507532596588134765625</LatitudeDegrees>
              <LongitudeDegrees>-1.7651025764644145965576171875</LongitudeDegrees>
            </Position>
            <AltitudeMeters>27.6000003814697265625</AltitudeMeters>
            <DistanceMeters>NAN</DistanceMeters>
          </Trackpoint>
          <Trackpoint>
            <Time>2022-07-08T14:15:59.000Z</Time>
            <Position>
              <LatitudeDegrees>43.34628470242023468017578125</LatitudeDegrees>
              <LongitudeDegrees>-1.765057146549224853515625</LongitudeDegrees>
            </Position>
            <AltitudeMeters>27.6000003814697265625</AltitudeMeters>
            <DistanceMeters>NAN</DistanceMeters>
          </Trackpoint>
          <Trackpoint>
            <Time>2022-07-08T14:16:02.000Z</Time>
            <Position>
              <LatitudeDegrees>43.34624178707599639892578125</LatitudeDegrees>
              <LongitudeDegrees>-1.7649369500577449798583984375</LongitudeDegrees>
            </Position>
            <AltitudeMeters>27.799999237060546875</AltitudeMeters>
            <DistanceMeters>NAN</DistanceMeters>
          </Trackpoint>
          <Trackpoint>
            <Time>2022-07-08T14:16:05.000Z</Time>
            <Position>
              <LatitudeDegrees>43.34620063193142414093017578125</LatitudeDegrees>
              <LongitudeDegrees>-1.76480568945407867431640625</LongitudeDegrees>
            </Position>
            <AltitudeMeters>27.6000003814697265625</AltitudeMeters>
            <DistanceMeters>NAN</DistanceMeters>
          </Trackpoint>
          <Trackpoint>
            <Time>2022-07-08T14:16:07.000Z</Time>
            <Position>
              <LatitudeDegrees>43.34618370048701763153076171875</LatitudeDegrees>
              <LongitudeDegrees>-1.76470418460667133331298828125</LongitudeDegrees>
            </Position>
            <AltitudeMeters>27.6000003814697265625</AltitudeMeters>
            <DistanceMeters>NAN</DistanceMeters>
          </Trackpoint>
          <Trackpoint>
            <Time>2022-07-08T14:16:08.000Z</Time>
            <Position>
              <LatitudeDegrees>43.34617741405963897705078125</LatitudeDegrees>
              <LongitudeDegrees>-1.76465171389281749725341796875</LongitudeDegrees>
            </Position>
            <AltitudeMeters>27.6000003814697265625</AltitudeMeters>
            <DistanceMeters>NAN</DistanceMeters>
          </Trackpoint>
          <Trackpoint>
            <Time>2022-07-08T14:16:12.000Z</Time>
            <Position>
              <LatitudeDegrees>43.34617783315479755401611328125</LatitudeDegrees>
              <LongitudeDegrees>-1.76440981216728687286376953125</LongitudeDegrees>
            </Position>
            <AltitudeMeters>27.3999996185302734375</AltitudeMeters>
            <DistanceMeters>NAN</DistanceMeters>
          </Trackpoint>
          <Trackpoint>
            <Time>2022-07-08T14:16:13.000Z</Time>
            <Position>
              <LatitudeDegrees>43.34620214067399501800537109375</LatitudeDegrees>
              <LongitudeDegrees>-1.76432800479233264923095703125</LongitudeDegrees>
            </Position>
            <AltitudeMeters>27.3999996185302734375</AltitudeMeters>
            <DistanceMeters>NAN</DistanceMeters>
          </Trackpoint>
          <Trackpoint>
            <Time>2022-07-08T14:16:15.000Z</Time>
            <Position>
              <LatitudeDegrees>43.34615193307399749755859375</LatitudeDegrees>
              <LongitudeDegrees>-1.76420487463474273681640625</LongitudeDegrees>
            </Position>
            <AltitudeMeters>27</AltitudeMeters>
            <DistanceMeters>NAN</DistanceMeters>
          </Trackpoint>
          <Trackpoint>
            <Time>2022-07-08T14:16:17.000Z</Time>
            <Position>
              <LatitudeDegrees>43.3460669405758380889892578125</LatitudeDegrees>
              <LongitudeDegrees>-1.764099262654781341552734375</LongitudeDegrees>
            </Position>
            <AltitudeMeters>26.6000003814697265625</AltitudeMeters>
            <DistanceMeters>NAN</DistanceMeters>
          </Trackpoint>
          <Trackpoint>
            <Time>2022-07-08T14:16:19.000Z</Time>
            <Position>
              <LatitudeDegrees>43.346012122929096221923828125</LatitudeDegrees>
              <LongitudeDegrees>-1.7639877833425998687744140625</LongitudeDegrees>
            </Position>
            <AltitudeMeters>26.6000003814697265625</AltitudeMeters>
            <DistanceMeters>NAN</DistanceMeters>
          </Trackpoint>
          <Trackpoint>
            <Time>2022-07-08T14:16:22.000Z</Time>
            <Position>
              <LatitudeDegrees>43.34596686065196990966796875</LatitudeDegrees>
              <LongitudeDegrees>-1.76379558630287647247314453125</LongitudeDegrees>
            </Position>
            <AltitudeMeters>26.6000003814697265625</AltitudeMeters>
            <DistanceMeters>NAN</DistanceMeters>
          </Trackpoint>
          <Trackpoint>
            <Time>2022-07-08T14:16:23.000Z</Time>
            <Position>
              <LatitudeDegrees>43.345953784883022308349609375</LatitudeDegrees>
              <LongitudeDegrees>-1.76370791159570217132568359375</LongitudeDegrees>
            </Position>
            <AltitudeMeters>26.799999237060546875</AltitudeMeters>
            <DistanceMeters>NAN</DistanceMeters>
          </Trackpoint>
          <Trackpoint>
            <Time>2022-07-08T14:16:25.000Z</Time>
            <Position>
              <LatitudeDegrees>43.34592805244028568267822265625</LatitudeDegrees>
              <LongitudeDegrees>-1.763584278523921966552734375</LongitudeDegrees>
            </Position>
            <AltitudeMeters>26.799999237060546875</AltitudeMeters>
            <DistanceMeters>NAN</DistanceMeters>
          </Trackpoint>
          <Trackpoint>
            <Time>2022-07-08T14:16:27.000Z</Time>
            <Position>
              <LatitudeDegrees>43.345894105732440948486328125</LatitudeDegrees>
              <LongitudeDegrees>-1.7634359188377857208251953125</LongitudeDegrees>
            </Position>
            <AltitudeMeters>26.200000762939453125</AltitudeMeters>
            <DistanceMeters>NAN</DistanceMeters>
          </Trackpoint>
          <Trackpoint>
            <Time>2022-07-08T14:16:28.000Z</Time>
            <Position>
              <LatitudeDegrees>43.34587893448770046234130859375</LatitudeDegrees>
              <LongitudeDegrees>-1.76336291246116161346435546875</LongitudeDegrees>
            </Position>
            <AltitudeMeters>25.799999237060546875</AltitudeMeters>
            <DistanceMeters>NAN</DistanceMeters>
          </Trackpoint>
          <Trackpoint>
            <Time>2022-07-08T14:16:31.000Z</Time>
            <Position>
              <LatitudeDegrees>43.34578715264797210693359375</LatitudeDegrees>
              <LongitudeDegrees>-1.76313425414264202117919921875</LongitudeDegrees>
            </Position>
            <AltitudeMeters>25</AltitudeMeters>
            <DistanceMeters>NAN</DistanceMeters>
          </Trackpoint>
          <Trackpoint>
            <Time>2022-07-08T14:16:32.000Z</Time>
            <Position>
              <LatitudeDegrees>43.34577030502259731292724609375</LatitudeDegrees>
              <LongitudeDegrees>-1.7630540393292903900146484375</LongitudeDegrees>
            </Position>
            <AltitudeMeters>24.3999996185302734375</AltitudeMeters>
            <DistanceMeters>NAN</DistanceMeters>
          </Trackpoint>
          <Trackpoint>
            <Time>2022-07-08T14:16:33.000Z</Time>
            <Position>
              <LatitudeDegrees>43.34575739689171314239501953125</LatitudeDegrees>
              <LongitudeDegrees>-1.7629682086408138275146484375</LongitudeDegrees>
            </Position>
            <AltitudeMeters>24</AltitudeMeters>
            <DistanceMeters>NAN</DistanceMeters>
          </Trackpoint>
          <Trackpoint>
            <Time>2022-07-08T14:16:34.000Z</Time>
            <Position>
              <LatitudeDegrees>43.345745913684368133544921875</LatitudeDegrees>
              <LongitudeDegrees>-1.7628907598555088043212890625</LongitudeDegrees>
            </Position>
            <AltitudeMeters>23.6000003814697265625</AltitudeMeters>
            <DistanceMeters>NAN</DistanceMeters>
          </Trackpoint>
          <Trackpoint>
            <Time>2022-07-08T14:16:36.000Z</Time>
            <Position>
              <LatitudeDegrees>43.345699645578861236572265625</LatitudeDegrees>
              <LongitudeDegrees>-1.76279244013130664825439453125</LongitudeDegrees>
            </Position>
            <AltitudeMeters>23.3999996185302734375</AltitudeMeters>
            <DistanceMeters>NAN</DistanceMeters>
          </Trackpoint>
          <Trackpoint>
            <Time>2022-07-08T14:16:37.000Z</Time>
            <Position>
              <LatitudeDegrees>43.34568397141993045806884765625</LatitudeDegrees>
              <LongitudeDegrees>-1.7627598345279693603515625</LongitudeDegrees>
            </Position>
            <AltitudeMeters>23.200000762939453125</AltitudeMeters>
            <DistanceMeters>NAN</DistanceMeters>
          </Trackpoint>
          <Trackpoint>
            <Time>2022-07-08T14:16:40.000Z</Time>
            <Position>
              <LatitudeDegrees>43.34566921927034854888916015625</LatitudeDegrees>
              <LongitudeDegrees>-1.7627330124378204345703125</LongitudeDegrees>
            </Position>
            <AltitudeMeters>22.799999237060546875</AltitudeMeters>
            <DistanceMeters>NAN</DistanceMeters>
          </Trackpoint>
          <Trackpoint>
            <Time>2022-07-08T14:16:41.000Z</Time>
            <Position>
              <LatitudeDegrees>43.34566921927034854888916015625</LatitudeDegrees>
              <LongitudeDegrees>-1.7627330124378204345703125</LongitudeDegrees>
            </Position>
            <AltitudeMeters>22.799999237060546875</AltitudeMeters>
            <DistanceMeters>NAN</DistanceMeters>
          </Trackpoint>
          <Trackpoint>
            <Time>2022-07-08T14:17:09.000Z</Time>
            <Position>
              <LatitudeDegrees>43.34565044380724430084228515625</LatitudeDegrees>
              <LongitudeDegrees>-1.76270443014800548553466796875</LongitudeDegrees>
            </Position>
            <AltitudeMeters>23.200000762939453125</AltitudeMeters>
            <DistanceMeters>NAN</DistanceMeters>
          </Trackpoint>
          <Trackpoint>
            <Time>2022-07-08T14:17:12.000Z</Time>
            <Position>
              <LatitudeDegrees>43.3456066064536571502685546875</LatitudeDegrees>
              <LongitudeDegrees>-1.76267408765852451324462890625</LongitudeDegrees>
            </Position>
            <AltitudeMeters>23.3999996185302734375</AltitudeMeters>
            <DistanceMeters>NAN</DistanceMeters>
          </Trackpoint>
          <Trackpoint>
            <Time>2022-07-08T14:17:20.000Z</Time>
            <Position>
              <LatitudeDegrees>43.34547006525099277496337890625</LatitudeDegrees>
              <LongitudeDegrees>-1.7625444196164608001708984375</LongitudeDegrees>
            </Position>
            <AltitudeMeters>23.6000003814697265625</AltitudeMeters>
            <DistanceMeters>NAN</DistanceMeters>
          </Trackpoint>
          <Trackpoint>
            <Time>2022-07-08T14:17:24.000Z</Time>
            <Position>
              <LatitudeDegrees>43.3453903533518314361572265625</LatitudeDegrees>
              <LongitudeDegrees>-1.762460768222808837890625</LongitudeDegrees>
            </Position>
            <AltitudeMeters>23.799999237060546875</AltitudeMeters>
            <DistanceMeters>NAN</DistanceMeters>
          </Trackpoint>
          <Trackpoint>
            <Time>2022-07-08T14:17:26.000Z</Time>
            <Position>
              <LatitudeDegrees>43.34534584544599056243896484375</LatitudeDegrees>
              <LongitudeDegrees>-1.76241793669760227203369140625</LongitudeDegrees>
            </Position>
            <AltitudeMeters>23.799999237060546875</AltitudeMeters>
            <DistanceMeters>NAN</DistanceMeters>
          </Trackpoint>
          <Trackpoint>
            <Time>2022-07-08T14:17:28.000Z</Time>
            <Position>
              <LatitudeDegrees>43.34530510939657688140869140625</LatitudeDegrees>
              <LongitudeDegrees>-1.76236278377473354339599609375</LongitudeDegrees>
            </Position>
            <AltitudeMeters>23.799999237060546875</AltitudeMeters>
            <DistanceMeters>NAN</DistanceMeters>
          </Trackpoint>
          <Trackpoint>
            <Time>2022-07-08T14:17:33.000Z</Time>
            <Position>
              <LatitudeDegrees>43.3451982401311397552490234375</LatitudeDegrees>
              <LongitudeDegrees>-1.762212328612804412841796875</LongitudeDegrees>
            </Position>
            <AltitudeMeters>23.799999237060546875</AltitudeMeters>
            <DistanceMeters>NAN</DistanceMeters>
          </Trackpoint>
          <Trackpoint>
            <Time>2022-07-08T14:17:35.000Z</Time>
            <Position>
              <LatitudeDegrees>43.34513663314282894134521484375</LatitudeDegrees>
              <LongitudeDegrees>-1.76214166916906833648681640625</LongitudeDegrees>
            </Position>
            <AltitudeMeters>23.799999237060546875</AltitudeMeters>
            <DistanceMeters>NAN</DistanceMeters>
          </Trackpoint>
          <Trackpoint>
            <Time>2022-07-08T14:17:36.000Z</Time>
            <Position>
              <LatitudeDegrees>43.3451016806066036224365234375</LatitudeDegrees>
              <LongitudeDegrees>-1.76210847683250904083251953125</LongitudeDegrees>
            </Position>
            <AltitudeMeters>23.799999237060546875</AltitudeMeters>
            <DistanceMeters>NAN</DistanceMeters>
          </Trackpoint>
          <Trackpoint>
            <Time>2022-07-08T14:17:40.000Z</Time>
            <Position>
              <LatitudeDegrees>43.34496631287038326263427734375</LatitudeDegrees>
              <LongitudeDegrees>-1.76196330226957798004150390625</LongitudeDegrees>
            </Position>
            <AltitudeMeters>23.799999237060546875</AltitudeMeters>
            <DistanceMeters>NAN</DistanceMeters>
          </Trackpoint>
          <Trackpoint>
            <Time>2022-07-08T14:17:47.000Z</Time>
            <Position>
              <LatitudeDegrees>43.3447620458900928497314453125</LatitudeDegrees>
              <LongitudeDegrees>-1.76172911189496517181396484375</LongitudeDegrees>
            </Position>
            <AltitudeMeters>23.799999237060546875</AltitudeMeters>
            <DistanceMeters>NAN</DistanceMeters>
          </Trackpoint>
          <Trackpoint>
            <Time>2022-07-08T14:17:48.000Z</Time>
            <Position>
              <LatitudeDegrees>43.3447382412850856781005859375</LatitudeDegrees>
              <LongitudeDegrees>-1.76169591955840587615966796875</LongitudeDegrees>
            </Position>
            <AltitudeMeters>24</AltitudeMeters>
            <DistanceMeters>NAN</DistanceMeters>
          </Trackpoint>
          <Trackpoint>
            <Time>2022-07-08T14:17:52.000Z</Time>
            <Position>
              <LatitudeDegrees>43.3446631394326686859130859375</LatitudeDegrees>
              <LongitudeDegrees>-1.76160581409931182861328125</LongitudeDegrees>
            </Position>
            <AltitudeMeters>24.200000762939453125</AltitudeMeters>
            <DistanceMeters>NAN</DistanceMeters>
          </Trackpoint>
          <Trackpoint>
            <Time>2022-07-08T14:17:59.000Z</Time>
            <Position>
              <LatitudeDegrees>43.34448628127574920654296875</LatitudeDegrees>
              <LongitudeDegrees>-1.76149056293070316314697265625</LongitudeDegrees>
            </Position>
            <AltitudeMeters>24.799999237060546875</AltitudeMeters>
            <DistanceMeters>NAN</DistanceMeters>
          </Trackpoint>
          <Trackpoint>
            <Time>2022-07-08T14:18:02.000Z</Time>
            <Position>
              <LatitudeDegrees>43.344396762549877166748046875</LatitudeDegrees>
              <LongitudeDegrees>-1.761415712535381317138671875</LongitudeDegrees>
            </Position>
            <AltitudeMeters>25</AltitudeMeters>
            <DistanceMeters>NAN</DistanceMeters>
          </Trackpoint>
          <Trackpoint>
            <Time>2022-07-08T14:18:04.000Z</Time>
            <Position>
              <LatitudeDegrees>43.34433783777058124542236328125</LatitudeDegrees>
              <LongitudeDegrees>-1.7613494955003261566162109375</LongitudeDegrees>
            </Position>
            <AltitudeMeters>25.200000762939453125</AltitudeMeters>
            <DistanceMeters>NAN</DistanceMeters>
          </Trackpoint>
          <Trackpoint>
            <Time>2022-07-08T14:18:13.000Z</Time>
            <Position>
              <LatitudeDegrees>43.3440690301358699798583984375</LatitudeDegrees>
              <LongitudeDegrees>-1.76108454354107379913330078125</LongitudeDegrees>
            </Position>
            <AltitudeMeters>25.200000762939453125</AltitudeMeters>
            <DistanceMeters>NAN</DistanceMeters>
          </Trackpoint>
          <Trackpoint>
            <Time>2022-07-08T14:18:24.000Z</Time>
            <Position>
              <LatitudeDegrees>43.34372931160032749176025390625</LatitudeDegrees>
              <LongitudeDegrees>-1.76075111143290996551513671875</LongitudeDegrees>
            </Position>
            <AltitudeMeters>24.3999996185302734375</AltitudeMeters>
            <DistanceMeters>NAN</DistanceMeters>
          </Trackpoint>
          <Trackpoint>
            <Time>2022-07-08T14:18:28.000Z</Time>
            <Position>
              <LatitudeDegrees>43.343576677143573760986328125</LatitudeDegrees>
              <LongitudeDegrees>-1.76061473786830902099609375</LongitudeDegrees>
            </Position>
            <AltitudeMeters>24</AltitudeMeters>
            <DistanceMeters>NAN</DistanceMeters>
          </Trackpoint>
          <Trackpoint>
            <Time>2022-07-08T14:18:33.000Z</Time>
            <Position>
              <LatitudeDegrees>43.343388251960277557373046875</LatitudeDegrees>
              <LongitudeDegrees>-1.76046377979218959808349609375</LongitudeDegrees>
            </Position>
            <AltitudeMeters>23.200000762939453125</AltitudeMeters>
            <DistanceMeters>NAN</DistanceMeters>
          </Trackpoint>
          <Trackpoint>
            <Time>2022-07-08T14:18:36.000Z</Time>
            <Position>
              <LatitudeDegrees>43.3432650379836559295654296875</LatitudeDegrees>
              <LongitudeDegrees>-1.760374009609222412109375</LongitudeDegrees>
            </Position>
            <AltitudeMeters>22.799999237060546875</AltitudeMeters>
            <DistanceMeters>NAN</DistanceMeters>
          </Trackpoint>
          <Trackpoint>
            <Time>2022-07-08T14:18:42.000Z</Time>
            <Position>
              <LatitudeDegrees>43.343025483191013336181640625</LatitudeDegrees>
              <LongitudeDegrees>-1.76020243205130100250244140625</LongitudeDegrees>
            </Position>
            <AltitudeMeters>22.3999996185302734375</AltitudeMeters>
            <DistanceMeters>NAN</DistanceMeters>
          </Trackpoint>
          <Trackpoint>
            <Time>2022-07-08T14:18:47.000Z</Time>
            <Position>
              <LatitudeDegrees>43.3428496308624744415283203125</LatitudeDegrees>
              <LongitudeDegrees>-1.7601527273654937744140625</LongitudeDegrees>
            </Position>
            <AltitudeMeters>22</AltitudeMeters>
            <DistanceMeters>NAN</DistanceMeters>
          </Trackpoint>
          <Trackpoint>
            <Time>2022-07-08T14:18:51.000Z</Time>
            <Position>
              <LatitudeDegrees>43.342751897871494293212890625</LatitudeDegrees>
              <LongitudeDegrees>-1.76019673235714435577392578125</LongitudeDegrees>
            </Position>
            <AltitudeMeters>21.799999237060546875</AltitudeMeters>
            <DistanceMeters>NAN</DistanceMeters>
          </Trackpoint>
          <Trackpoint>
            <Time>2022-07-08T14:18:52.000Z</Time>
            <Position>
              <LatitudeDegrees>43.3427446894347667694091796875</LatitudeDegrees>
              <LongitudeDegrees>-1.76020913757383823394775390625</LongitudeDegrees>
            </Position>
            <AltitudeMeters>21.799999237060546875</AltitudeMeters>
            <DistanceMeters>NAN</DistanceMeters>
          </Trackpoint>
          <Trackpoint>
            <Time>2022-07-08T14:18:54.000Z</Time>
            <Position>
              <LatitudeDegrees>43.3427446894347667694091796875</LatitudeDegrees>
              <LongitudeDegrees>-1.76020913757383823394775390625</LongitudeDegrees>
            </Position>
            <AltitudeMeters>21.799999237060546875</AltitudeMeters>
            <DistanceMeters>NAN</DistanceMeters>
          </Trackpoint>
          <Trackpoint>
            <Time>2022-07-08T14:19:19.000Z</Time>
            <Position>
              <LatitudeDegrees>43.34272935055196285247802734375</LatitudeDegrees>
              <LongitudeDegrees>-1.76024048589169979095458984375</LongitudeDegrees>
            </Position>
            <AltitudeMeters>21.3999996185302734375</AltitudeMeters>
            <DistanceMeters>NAN</DistanceMeters>
          </Trackpoint>
          <Trackpoint>
            <Time>2022-07-08T14:19:20.000Z</Time>
            <Position>
              <LatitudeDegrees>43.34270923398435115814208984375</LatitudeDegrees>
              <LongitudeDegrees>-1.76026077009737491607666015625</LongitudeDegrees>
            </Position>
            <AltitudeMeters>21.3999996185302734375</AltitudeMeters>
            <DistanceMeters>NAN</DistanceMeters>
          </Trackpoint>
          <Trackpoint>
            <Time>2022-07-08T14:19:21.000Z</Time>
            <Position>
              <LatitudeDegrees>43.3426897041499614715576171875</LatitudeDegrees>
              <LongitudeDegrees>-1.76028214395046234130859375</LongitudeDegrees>
            </Position>
            <AltitudeMeters>21.3999996185302734375</AltitudeMeters>
            <DistanceMeters>NAN</DistanceMeters>
          </Trackpoint>
          <Trackpoint>
            <Time>2022-07-08T14:19:27.000Z</Time>
            <Position>
              <LatitudeDegrees>43.3425321243703365325927734375</LatitudeDegrees>
              <LongitudeDegrees>-1.76043746061623096466064453125</LongitudeDegrees>
            </Position>
            <AltitudeMeters>21.3999996185302734375</AltitudeMeters>
            <DistanceMeters>NAN</DistanceMeters>
          </Trackpoint>
          <Trackpoint>
            <Time>2022-07-08T14:19:33.000Z</Time>
            <Position>
              <LatitudeDegrees>43.34241854958236217498779296875</LatitudeDegrees>
              <LongitudeDegrees>-1.7606410570442676544189453125</LongitudeDegrees>
            </Position>
            <AltitudeMeters>21.6000003814697265625</AltitudeMeters>
            <DistanceMeters>NAN</DistanceMeters>
          </Trackpoint>
          <Trackpoint>
            <Time>2022-07-08T14:19:37.000Z</Time>
            <Position>
              <LatitudeDegrees>43.3424174599349498748779296875</LatitudeDegrees>
              <LongitudeDegrees>-1.76080576144158840179443359375</LongitudeDegrees>
            </Position>
            <AltitudeMeters>21</AltitudeMeters>
            <DistanceMeters>NAN</DistanceMeters>
          </Trackpoint>
          <Trackpoint>
            <Time>2022-07-08T14:19:39.000Z</Time>
            <Position>
              <LatitudeDegrees>43.34240698255598545074462890625</LatitudeDegrees>
              <LongitudeDegrees>-1.7608566395938396453857421875</LongitudeDegrees>
            </Position>
            <AltitudeMeters>20.799999237060546875</AltitudeMeters>
            <DistanceMeters>NAN</DistanceMeters>
          </Trackpoint>
          <Trackpoint>
            <Time>2022-07-08T14:19:42.000Z</Time>
            <Position>
              <LatitudeDegrees>43.34240279160439968109130859375</LatitudeDegrees>
              <LongitudeDegrees>-1.76087533123791217803955078125</LongitudeDegrees>
            </Position>
            <AltitudeMeters>20.3999996185302734375</AltitudeMeters>
            <DistanceMeters>NAN</DistanceMeters>
          </Trackpoint>
          <Trackpoint>
            <Time>2022-07-08T14:19:43.000Z</Time>
            <Position>
              <LatitudeDegrees>43.34240279160439968109130859375</LatitudeDegrees>
              <LongitudeDegrees>-1.76087533123791217803955078125</LongitudeDegrees>
            </Position>
            <AltitudeMeters>20.3999996185302734375</AltitudeMeters>
            <DistanceMeters>NAN</DistanceMeters>
          </Trackpoint>
          <Trackpoint>
            <Time>2022-07-08T14:20:31.000Z</Time>
            <Position>
              <LatitudeDegrees>43.342392481863498687744140625</LatitudeDegrees>
              <LongitudeDegrees>-1.760937273502349853515625</LongitudeDegrees>
            </Position>
            <AltitudeMeters>19.200000762939453125</AltitudeMeters>
            <DistanceMeters>NAN</DistanceMeters>
          </Trackpoint>
          <Trackpoint>
            <Time>2022-07-08T14:20:34.000Z</Time>
            <Position>
              <LatitudeDegrees>43.3423956669867038726806640625</LatitudeDegrees>
              <LongitudeDegrees>-1.761032827198505401611328125</LongitudeDegrees>
            </Position>
            <AltitudeMeters>19.3999996185302734375</AltitudeMeters>
            <DistanceMeters>NAN</DistanceMeters>
          </Trackpoint>
          <Trackpoint>
            <Time>2022-07-08T14:20:39.000Z</Time>
            <Position>
              <LatitudeDegrees>43.34237697534263134002685546875</LatitudeDegrees>
              <LongitudeDegrees>-1.76120909862220287322998046875</LongitudeDegrees>
            </Position>
            <AltitudeMeters>19.3999996185302734375</AltitudeMeters>
            <DistanceMeters>NAN</DistanceMeters>
          </Trackpoint>
          <Trackpoint>
            <Time>2022-07-08T14:20:44.000Z</Time>
            <Position>
              <LatitudeDegrees>43.3424154482781887054443359375</LatitudeDegrees>
              <LongitudeDegrees>-1.761443205177783966064453125</LongitudeDegrees>
            </Position>
            <AltitudeMeters>19</AltitudeMeters>
            <DistanceMeters>NAN</DistanceMeters>
          </Trackpoint>
          <Trackpoint>
            <Time>2022-07-08T14:20:45.000Z</Time>
            <Position>
              <LatitudeDegrees>43.34242659620940685272216796875</LatitudeDegrees>
              <LongitudeDegrees>-1.7614938318729400634765625</LongitudeDegrees>
            </Position>
            <AltitudeMeters>19</AltitudeMeters>
            <DistanceMeters>NAN</DistanceMeters>
          </Trackpoint>
          <Trackpoint>
            <Time>2022-07-08T14:20:52.000Z</Time>
            <Position>
              <LatitudeDegrees>43.342504464089870452880859375</LatitudeDegrees>
              <LongitudeDegrees>-1.76183891482651233673095703125</LongitudeDegrees>
            </Position>
            <AltitudeMeters>18.6000003814697265625</AltitudeMeters>
            <DistanceMeters>NAN</DistanceMeters>
          </Trackpoint>
          <Trackpoint>
            <Time>2022-07-08T14:21:02.000Z</Time>
            <Position>
              <LatitudeDegrees>43.3426182903349399566650390625</LatitudeDegrees>
              <LongitudeDegrees>-1.76236446015536785125732421875</LongitudeDegrees>
            </Position>
            <AltitudeMeters>18.799999237060546875</AltitudeMeters>
            <DistanceMeters>NAN</DistanceMeters>
          </Trackpoint>
          <Trackpoint>
            <Time>2022-07-08T14:21:04.000Z</Time>
            <Position>
              <LatitudeDegrees>43.342638909816741943359375</LatitudeDegrees>
              <LongitudeDegrees>-1.7624716646969318389892578125</LongitudeDegrees>
            </Position>
            <AltitudeMeters>18.799999237060546875</AltitudeMeters>
            <DistanceMeters>NAN</DistanceMeters>
          </Trackpoint>
          <Trackpoint>
            <Time>2022-07-08T14:21:09.000Z</Time>
            <Position>
              <LatitudeDegrees>43.3426615409553050994873046875</LatitudeDegrees>
              <LongitudeDegrees>-1.76274667493999004364013671875</LongitudeDegrees>
            </Position>
            <AltitudeMeters>18.799999237060546875</AltitudeMeters>
            <DistanceMeters>NAN</DistanceMeters>
          </Trackpoint>
          <Trackpoint>
            <Time>2022-07-08T14:21:10.000Z</Time>
            <Position>
              <LatitudeDegrees>43.342664726078510284423828125</LatitudeDegrees>
              <LongitudeDegrees>-1.7628022469580173492431640625</LongitudeDegrees>
            </Position>
            <AltitudeMeters>18.799999237060546875</AltitudeMeters>
            <DistanceMeters>NAN</DistanceMeters>
          </Trackpoint>
          <Trackpoint>
            <Time>2022-07-08T14:21:13.000Z</Time>
            <Position>
              <LatitudeDegrees>43.34266833029687404632568359375</LatitudeDegrees>
              <LongitudeDegrees>-1.76296477206051349639892578125</LongitudeDegrees>
            </Position>
            <AltitudeMeters>18.799999237060546875</AltitudeMeters>
            <DistanceMeters>NAN</DistanceMeters>
          </Trackpoint>
          <Trackpoint>
            <Time>2022-07-08T14:21:16.000Z</Time>
            <Position>
              <LatitudeDegrees>43.34265894256532192230224609375</LatitudeDegrees>
              <LongitudeDegrees>-1.76313123665750026702880859375</LongitudeDegrees>
            </Position>
            <AltitudeMeters>19</AltitudeMeters>
            <DistanceMeters>NAN</DistanceMeters>
          </Trackpoint>
          <Trackpoint>
            <Time>2022-07-08T14:21:18.000Z</Time>
            <Position>
              <LatitudeDegrees>43.3426360599696636199951171875</LatitudeDegrees>
              <LongitudeDegrees>-1.7632448114454746246337890625</LongitudeDegrees>
            </Position>
            <AltitudeMeters>19.200000762939453125</AltitudeMeters>
            <DistanceMeters>NAN</DistanceMeters>
          </Trackpoint>
          <Trackpoint>
            <Time>2022-07-08T14:21:27.000Z</Time>
            <Position>
              <LatitudeDegrees>43.34253790788352489471435546875</LatitudeDegrees>
              <LongitudeDegrees>-1.7637269385159015655517578125</LongitudeDegrees>
            </Position>
            <AltitudeMeters>19.200000762939453125</AltitudeMeters>
            <DistanceMeters>NAN</DistanceMeters>
          </Trackpoint>
          <Trackpoint>
            <Time>2022-07-08T14:21:35.000Z</Time>
            <Position>
              <LatitudeDegrees>43.34248761646449565887451171875</LatitudeDegrees>
              <LongitudeDegrees>-1.76411795429885387420654296875</LongitudeDegrees>
            </Position>
            <AltitudeMeters>19</AltitudeMeters>
            <DistanceMeters>NAN</DistanceMeters>
          </Trackpoint>
          <Trackpoint>
            <Time>2022-07-08T14:21:37.000Z</Time>
            <Position>
              <LatitudeDegrees>43.34249398671090602874755859375</LatitudeDegrees>
              <LongitudeDegrees>-1.7641849257051944732666015625</LongitudeDegrees>
            </Position>
            <AltitudeMeters>19</AltitudeMeters>
            <DistanceMeters>NAN</DistanceMeters>
          </Trackpoint>
          <Trackpoint>
            <Time>2022-07-08T14:21:38.000Z</Time>
            <Position>
              <LatitudeDegrees>43.3425049670040607452392578125</LatitudeDegrees>
              <LongitudeDegrees>-1.76420219242572784423828125</LongitudeDegrees>
            </Position>
            <AltitudeMeters>19</AltitudeMeters>
            <DistanceMeters>NAN</DistanceMeters>
          </Trackpoint>
          <Trackpoint>
            <Time>2022-07-08T14:21:40.000Z</Time>
            <Position>
              <LatitudeDegrees>43.34253136999905109405517578125</LatitudeDegrees>
              <LongitudeDegrees>-1.76420579664409160614013671875</LongitudeDegrees>
            </Position>
            <AltitudeMeters>18.799999237060546875</AltitudeMeters>
            <DistanceMeters>NAN</DistanceMeters>
          </Trackpoint>
          <Trackpoint>
            <Time>2022-07-08T14:21:42.000Z</Time>
            <Position>
              <LatitudeDegrees>43.34254813380539417266845703125</LatitudeDegrees>
              <LongitudeDegrees>-1.76418215967714786529541015625</LongitudeDegrees>
            </Position>
            <AltitudeMeters>18.799999237060546875</AltitudeMeters>
            <DistanceMeters>NAN</DistanceMeters>
          </Trackpoint>
          <Trackpoint>
            <Time>2022-07-08T14:21:48.000Z</Time>
            <Position>
              <LatitudeDegrees>43.34255869500339031219482421875</LatitudeDegrees>
              <LongitudeDegrees>-1.76402290351688861846923828125</LongitudeDegrees>
            </Position>
            <AltitudeMeters>18.6000003814697265625</AltitudeMeters>
            <DistanceMeters>NAN</DistanceMeters>
          </Trackpoint>
          <Trackpoint>
            <Time>2022-07-08T14:21:51.000Z</Time>
            <Position>
              <LatitudeDegrees>43.34259071387350559234619140625</LatitudeDegrees>
              <LongitudeDegrees>-1.763932295143604278564453125</LongitudeDegrees>
            </Position>
            <AltitudeMeters>18.6000003814697265625</AltitudeMeters>
            <DistanceMeters>NAN</DistanceMeters>
          </Trackpoint>
          <Trackpoint>
            <Time>2022-07-08T14:21:52.000Z</Time>
            <Position>
              <LatitudeDegrees>43.34260848350822925567626953125</LatitudeDegrees>
              <LongitudeDegrees>-1.763918884098529815673828125</LongitudeDegrees>
            </Position>
            <AltitudeMeters>18.6000003814697265625</AltitudeMeters>
            <DistanceMeters>NAN</DistanceMeters>
          </Trackpoint>
          <Trackpoint>
            <Time>2022-07-08T14:21:57.000Z</Time>
            <Position>
              <LatitudeDegrees>43.3426749520003795623779296875</LatitudeDegrees>
              <LongitudeDegrees>-1.7638318799436092376708984375</LongitudeDegrees>
            </Position>
            <AltitudeMeters>18.6000003814697265625</AltitudeMeters>
            <DistanceMeters>NAN</DistanceMeters>
          </Trackpoint>
          <Trackpoint>
            <Time>2022-07-08T14:21:58.000Z</Time>
            <Position>
              <LatitudeDegrees>43.34268811158835887908935546875</LatitudeDegrees>
              <LongitudeDegrees>-1.76381218247115612030029296875</LongitudeDegrees>
            </Position>
            <AltitudeMeters>18.6000003814697265625</AltitudeMeters>
            <DistanceMeters>NAN</DistanceMeters>
          </Trackpoint>
          <Trackpoint>
            <Time>2022-07-08T14:22:05.000Z</Time>
            <Position>
              <LatitudeDegrees>43.34282607771456241607666015625</LatitudeDegrees>
              <LongitudeDegrees>-1.7636230029165744781494140625</LongitudeDegrees>
            </Position>
            <AltitudeMeters>18.3999996185302734375</AltitudeMeters>
            <DistanceMeters>NAN</DistanceMeters>
          </Trackpoint>
          <Trackpoint>
            <Time>2022-07-08T14:22:11.000Z</Time>
            <Position>
              <LatitudeDegrees>43.3429783768951892852783203125</LatitudeDegrees>
              <LongitudeDegrees>-1.7633906565606594085693359375</LongitudeDegrees>
            </Position>
            <AltitudeMeters>18.799999237060546875</AltitudeMeters>
            <DistanceMeters>NAN</DistanceMeters>
          </Trackpoint>
          <Trackpoint>
            <Time>2022-07-08T14:22:16.000Z</Time>
            <Position>
              <LatitudeDegrees>43.3431077934801578521728515625</LatitudeDegrees>
              <LongitudeDegrees>-1.76328881643712520599365234375</LongitudeDegrees>
            </Position>
            <AltitudeMeters>19</AltitudeMeters>
            <DistanceMeters>NAN</DistanceMeters>
          </Trackpoint>
          <Trackpoint>
            <Time>2022-07-08T14:22:21.000Z</Time>
            <Position>
              <LatitudeDegrees>43.3431735076010227203369140625</LatitudeDegrees>
              <LongitudeDegrees>-1.76322980783879756927490234375</LongitudeDegrees>
            </Position>
            <AltitudeMeters>19.200000762939453125</AltitudeMeters>
            <DistanceMeters>NAN</DistanceMeters>
          </Trackpoint>
          <Trackpoint>
            <Time>2022-07-08T14:22:22.000Z</Time>
            <Position>
              <LatitudeDegrees>43.3431740105152130126953125</LatitudeDegrees>
              <LongitudeDegrees>-1.76322343759238719940185546875</LongitudeDegrees>
            </Position>
            <AltitudeMeters>19.200000762939453125</AltitudeMeters>
            <DistanceMeters>NAN</DistanceMeters>
          </Trackpoint>
          <Trackpoint>
            <Time>2022-07-08T14:22:23.000Z</Time>
            <Position>
              <LatitudeDegrees>43.3431740105152130126953125</LatitudeDegrees>
              <LongitudeDegrees>-1.76322343759238719940185546875</LongitudeDegrees>
            </Position>
            <AltitudeMeters>19</AltitudeMeters>
            <DistanceMeters>NAN</DistanceMeters>
          </Trackpoint>
          <Trackpoint>
            <Time>2022-07-08T14:32:55.000Z</Time>
            <Position>
              <LatitudeDegrees>43.34313402883708477020263671875</LatitudeDegrees>
              <LongitudeDegrees>-1.7632211744785308837890625</LongitudeDegrees>
            </Position>
            <AltitudeMeters>23.200000762939453125</AltitudeMeters>
            <DistanceMeters>NAN</DistanceMeters>
          </Trackpoint>
          <Trackpoint>
            <Time>2022-07-08T14:32:56.000Z</Time>
            <Position>
              <LatitudeDegrees>43.34312933497130870819091796875</LatitudeDegrees>
              <LongitudeDegrees>-1.7632324062287807464599609375</LongitudeDegrees>
            </Position>
            <AltitudeMeters>23.200000762939453125</AltitudeMeters>
            <DistanceMeters>NAN</DistanceMeters>
          </Trackpoint>
          <Trackpoint>
            <Time>2022-07-08T14:32:57.000Z</Time>
            <Position>
              <LatitudeDegrees>43.34312262944877147674560546875</LatitudeDegrees>
              <LongitudeDegrees>-1.76323969848453998565673828125</LongitudeDegrees>
            </Position>
            <AltitudeMeters>23.3999996185302734375</AltitudeMeters>
            <DistanceMeters>NAN</DistanceMeters>
          </Trackpoint>
          <Trackpoint>
            <Time>2022-07-08T14:33:02.000Z</Time>
            <Position>
              <LatitudeDegrees>43.343112654983997344970703125</LatitudeDegrees>
              <LongitudeDegrees>-1.7632521875202655792236328125</LongitudeDegrees>
            </Position>
            <AltitudeMeters>23.6000003814697265625</AltitudeMeters>
            <DistanceMeters>NAN</DistanceMeters>
          </Trackpoint>
          <Trackpoint>
            <Time>2022-07-08T15:04:37.000Z</Time>
            <Position>
              <LatitudeDegrees>43.343114666640758514404296875</LatitudeDegrees>
              <LongitudeDegrees>-1.76328529603779315948486328125</LongitudeDegrees>
            </Position>
            <AltitudeMeters>25.3999996185302734375</AltitudeMeters>
            <DistanceMeters>NAN</DistanceMeters>
          </Trackpoint>
          <Trackpoint>
            <Time>2022-07-08T15:04:38.000Z</Time>
            <Position>
              <LatitudeDegrees>43.34310083650052547454833984375</LatitudeDegrees>
              <LongitudeDegrees>-1.76329451613128185272216796875</LongitudeDegrees>
            </Position>
            <AltitudeMeters>25.3999996185302734375</AltitudeMeters>
            <DistanceMeters>NAN</DistanceMeters>
          </Trackpoint>
          <Trackpoint>
            <Time>2022-07-08T15:04:39.000Z</Time>
            <Position>
              <LatitudeDegrees>43.3430917002260684967041015625</LatitudeDegrees>
              <LongitudeDegrees>-1.7632909119129180908203125</LongitudeDegrees>
            </Position>
            <AltitudeMeters>25.3999996185302734375</AltitudeMeters>
            <DistanceMeters>NAN</DistanceMeters>
          </Trackpoint>
          <Trackpoint>
            <Time>2022-07-08T15:04:41.000Z</Time>
            <Position>
              <LatitudeDegrees>43.34308859892189502716064453125</LatitudeDegrees>
              <LongitudeDegrees>-1.7632860504090785980224609375</LongitudeDegrees>
            </Position>
            <AltitudeMeters>26.200000762939453125</AltitudeMeters>
            <DistanceMeters>NAN</DistanceMeters>
          </Trackpoint>
          <Trackpoint>
            <Time>2022-07-08T15:04:42.000Z</Time>
            <Position>
              <LatitudeDegrees>43.34308859892189502716064453125</LatitudeDegrees>
              <LongitudeDegrees>-1.7632860504090785980224609375</LongitudeDegrees>
            </Position>
            <AltitudeMeters>26.200000762939453125</AltitudeMeters>
            <DistanceMeters>NAN</DistanceMeters>
          </Trackpoint>
          <Trackpoint>
            <Time>2022-07-08T15:05:21.000Z</Time>
            <Position>
              <LatitudeDegrees>43.3430015109479427337646484375</LatitudeDegrees>
              <LongitudeDegrees>-1.76337464712560176849365234375</LongitudeDegrees>
            </Position>
            <AltitudeMeters>25.6000003814697265625</AltitudeMeters>
            <DistanceMeters>NAN</DistanceMeters>
          </Trackpoint>
          <Trackpoint>
            <Time>2022-07-08T15:05:24.000Z</Time>
            <Position>
              <LatitudeDegrees>43.34295314736664295196533203125</LatitudeDegrees>
              <LongitudeDegrees>-1.763455867767333984375</LongitudeDegrees>
            </Position>
            <AltitudeMeters>25.799999237060546875</AltitudeMeters>
            <DistanceMeters>NAN</DistanceMeters>
          </Trackpoint>
          <Trackpoint>
            <Time>2022-07-08T15:05:29.000Z</Time>
            <Position>
              <LatitudeDegrees>43.34283613599836826324462890625</LatitudeDegrees>
              <LongitudeDegrees>-1.7635851167142391204833984375</LongitudeDegrees>
            </Position>
            <AltitudeMeters>25.6000003814697265625</AltitudeMeters>
            <DistanceMeters>NAN</DistanceMeters>
          </Trackpoint>
          <Trackpoint>
            <Time>2022-07-08T15:05:30.000Z</Time>
            <Position>
              <LatitudeDegrees>43.34280914627015590667724609375</LatitudeDegrees>
              <LongitudeDegrees>-1.76361185498535633087158203125</LongitudeDegrees>
            </Position>
            <AltitudeMeters>25.6000003814697265625</AltitudeMeters>
            <DistanceMeters>NAN</DistanceMeters>
          </Trackpoint>
          <Trackpoint>
            <Time>2022-07-08T15:05:31.000Z</Time>
            <Position>
              <LatitudeDegrees>43.34277478046715259552001953125</LatitudeDegrees>
              <LongitudeDegrees>-1.763646304607391357421875</LongitudeDegrees>
            </Position>
            <AltitudeMeters>25.6000003814697265625</AltitudeMeters>
            <DistanceMeters>NAN</DistanceMeters>
          </Trackpoint>
          <Trackpoint>
            <Time>2022-07-08T15:05:35.000Z</Time>
            <Position>
              <LatitudeDegrees>43.342712335288524627685546875</LatitudeDegrees>
              <LongitudeDegrees>-1.7637296207249164581298828125</LongitudeDegrees>
            </Position>
            <AltitudeMeters>25.6000003814697265625</AltitudeMeters>
            <DistanceMeters>NAN</DistanceMeters>
          </Trackpoint>
          <Trackpoint>
            <Time>2022-07-08T15:05:37.000Z</Time>
            <Position>
              <LatitudeDegrees>43.34269565530121326446533203125</LatitudeDegrees>
              <LongitudeDegrees>-1.76376222632825374603271484375</LongitudeDegrees>
            </Position>
            <AltitudeMeters>25.6000003814697265625</AltitudeMeters>
            <DistanceMeters>NAN</DistanceMeters>
          </Trackpoint>
          <Trackpoint>
            <Time>2022-07-08T15:05:41.000Z</Time>
            <Position>
              <LatitudeDegrees>43.34261334501206874847412109375</LatitudeDegrees>
              <LongitudeDegrees>-1.763838417828083038330078125</LongitudeDegrees>
            </Position>
            <AltitudeMeters>25.6000003814697265625</AltitudeMeters>
            <DistanceMeters>NAN</DistanceMeters>
          </Trackpoint>
          <Trackpoint>
            <Time>2022-07-08T15:05:42.000Z</Time>
            <Position>
              <LatitudeDegrees>43.342615105211734771728515625</LatitudeDegrees>
              <LongitudeDegrees>-1.763860546052455902099609375</LongitudeDegrees>
            </Position>
            <AltitudeMeters>25.6000003814697265625</AltitudeMeters>
            <DistanceMeters>NAN</DistanceMeters>
          </Trackpoint>
          <Trackpoint>
            <Time>2022-07-08T15:05:48.000Z</Time>
            <Position>
              <LatitudeDegrees>43.34260345436632633209228515625</LatitudeDegrees>
              <LongitudeDegrees>-1.7640823312103748321533203125</LongitudeDegrees>
            </Position>
            <AltitudeMeters>25.6000003814697265625</AltitudeMeters>
            <DistanceMeters>NAN</DistanceMeters>
          </Trackpoint>
          <Trackpoint>
            <Time>2022-07-08T15:05:55.000Z</Time>
            <Position>
              <LatitudeDegrees>43.34255039691925048828125</LatitudeDegrees>
              <LongitudeDegrees>-1.76434460096061229705810546875</LongitudeDegrees>
            </Position>
            <AltitudeMeters>25.3999996185302734375</AltitudeMeters>
            <DistanceMeters>NAN</DistanceMeters>
          </Trackpoint>
          <Trackpoint>
            <Time>2022-07-08T15:05:59.000Z</Time>
            <Position>
              <LatitudeDegrees>43.34251577965915203094482421875</LatitudeDegrees>
              <LongitudeDegrees>-1.7645017616450786590576171875</LongitudeDegrees>
            </Position>
            <AltitudeMeters>25.6000003814697265625</AltitudeMeters>
            <DistanceMeters>NAN</DistanceMeters>
          </Trackpoint>
          <Trackpoint>
            <Time>2022-07-08T15:06:02.000Z</Time>
            <Position>
              <LatitudeDegrees>43.3424744568765163421630859375</LatitudeDegrees>
              <LongitudeDegrees>-1.76458264701068401336669921875</LongitudeDegrees>
            </Position>
            <AltitudeMeters>25.6000003814697265625</AltitudeMeters>
            <DistanceMeters>NAN</DistanceMeters>
          </Trackpoint>
          <Trackpoint>
            <Time>2022-07-08T15:06:06.000Z</Time>
            <Position>
              <LatitudeDegrees>43.3424365706741809844970703125</LatitudeDegrees>
              <LongitudeDegrees>-1.76467250101268291473388671875</LongitudeDegrees>
            </Position>
            <AltitudeMeters>25.6000003814697265625</AltitudeMeters>
            <DistanceMeters>NAN</DistanceMeters>
          </Trackpoint>
          <Trackpoint>
            <Time>2022-07-08T15:06:07.000Z</Time>
            <Position>
              <LatitudeDegrees>43.34243305027484893798828125</LatitudeDegrees>
              <LongitudeDegrees>-1.76469630561769008636474609375</LongitudeDegrees>
            </Position>
            <AltitudeMeters>25.799999237060546875</AltitudeMeters>
            <DistanceMeters>NAN</DistanceMeters>
          </Trackpoint>
          <Trackpoint>
            <Time>2022-07-08T15:06:08.000Z</Time>
            <Position>
              <LatitudeDegrees>43.34243095479905605316162109375</LatitudeDegrees>
              <LongitudeDegrees>-1.76472924649715423583984375</LongitudeDegrees>
            </Position>
            <AltitudeMeters>25.799999237060546875</AltitudeMeters>
            <DistanceMeters>NAN</DistanceMeters>
          </Trackpoint>
          <Trackpoint>
            <Time>2022-07-08T15:06:13.000Z</Time>
            <Position>
              <LatitudeDegrees>43.3423916436731815338134765625</LatitudeDegrees>
              <LongitudeDegrees>-1.76490300334990024566650390625</LongitudeDegrees>
            </Position>
            <AltitudeMeters>26</AltitudeMeters>
            <DistanceMeters>NAN</DistanceMeters>
          </Trackpoint>
          <Trackpoint>
            <Time>2022-07-08T15:06:21.000Z</Time>
            <Position>
              <LatitudeDegrees>43.3423416875302791595458984375</LatitudeDegrees>
              <LongitudeDegrees>-1.765221096575260162353515625</LongitudeDegrees>
            </Position>
            <AltitudeMeters>26.200000762939453125</AltitudeMeters>
            <DistanceMeters>NAN</DistanceMeters>
          </Trackpoint>
          <Trackpoint>
            <Time>2022-07-08T15:06:30.000Z</Time>
            <Position>
              <LatitudeDegrees>43.34228410385549068450927734375</LatitudeDegrees>
              <LongitudeDegrees>-1.76560364663600921630859375</LongitudeDegrees>
            </Position>
            <AltitudeMeters>25.799999237060546875</AltitudeMeters>
            <DistanceMeters>NAN</DistanceMeters>
          </Trackpoint>
          <Trackpoint>
            <Time>2022-07-08T15:06:38.000Z</Time>
            <Position>
              <LatitudeDegrees>43.342234231531620025634765625</LatitudeDegrees>
              <LongitudeDegrees>-1.765933223068714141845703125</LongitudeDegrees>
            </Position>
            <AltitudeMeters>25.3999996185302734375</AltitudeMeters>
            <DistanceMeters>NAN</DistanceMeters>
          </Trackpoint>
          <Trackpoint>
            <Time>2022-07-08T15:06:39.000Z</Time>
            <Position>
              <LatitudeDegrees>43.34222760982811450958251953125</LatitudeDegrees>
              <LongitudeDegrees>-1.765968762338161468505859375</LongitudeDegrees>
            </Position>
            <AltitudeMeters>25.3999996185302734375</AltitudeMeters>
            <DistanceMeters>NAN</DistanceMeters>
          </Trackpoint>
          <Trackpoint>
            <Time>2022-07-08T15:06:48.000Z</Time>
            <Position>
              <LatitudeDegrees>43.3421780727803707122802734375</LatitudeDegrees>
              <LongitudeDegrees>-1.76633723080158233642578125</LongitudeDegrees>
            </Position>
            <AltitudeMeters>25.3999996185302734375</AltitudeMeters>
            <DistanceMeters>NAN</DistanceMeters>
          </Trackpoint>
          <Trackpoint>
            <Time>2022-07-08T15:06:49.000Z</Time>
            <Position>
              <LatitudeDegrees>43.34217178635299205780029296875</LatitudeDegrees>
              <LongitudeDegrees>-1.76637855358421802520751953125</LongitudeDegrees>
            </Position>
            <AltitudeMeters>25.3999996185302734375</AltitudeMeters>
            <DistanceMeters>NAN</DistanceMeters>
          </Trackpoint>
          <Trackpoint>
            <Time>2022-07-08T15:06:56.000Z</Time>
            <Position>
              <LatitudeDegrees>43.34213591180741786956787109375</LatitudeDegrees>
              <LongitudeDegrees>-1.766681559383869171142578125</LongitudeDegrees>
            </Position>
            <AltitudeMeters>25.799999237060546875</AltitudeMeters>
            <DistanceMeters>NAN</DistanceMeters>
          </Trackpoint>
          <Trackpoint>
            <Time>2022-07-08T15:06:57.000Z</Time>
            <Position>
              <LatitudeDegrees>43.34212786518037319183349609375</LatitudeDegrees>
              <LongitudeDegrees>-1.7667243070900440216064453125</LongitudeDegrees>
            </Position>
            <AltitudeMeters>26</AltitudeMeters>
            <DistanceMeters>NAN</DistanceMeters>
          </Trackpoint>
          <Trackpoint>
            <Time>2022-07-08T15:07:06.000Z</Time>
            <Position>
              <LatitudeDegrees>43.34209852851927280426025390625</LatitudeDegrees>
              <LongitudeDegrees>-1.7670897580683231353759765625</LongitudeDegrees>
            </Position>
            <AltitudeMeters>25.6000003814697265625</AltitudeMeters>
            <DistanceMeters>NAN</DistanceMeters>
          </Trackpoint>
          <Trackpoint>
            <Time>2022-07-08T15:07:14.000Z</Time>
            <Position>
              <LatitudeDegrees>43.34205343388020992279052734375</LatitudeDegrees>
              <LongitudeDegrees>-1.7674713023006916046142578125</LongitudeDegrees>
            </Position>
            <AltitudeMeters>25.6000003814697265625</AltitudeMeters>
            <DistanceMeters>NAN</DistanceMeters>
          </Trackpoint>
          <Trackpoint>
            <Time>2022-07-08T15:07:19.000Z</Time>
            <Position>
              <LatitudeDegrees>43.34202895872294902801513671875</LatitudeDegrees>
              <LongitudeDegrees>-1.7677495814859867095947265625</LongitudeDegrees>
            </Position>
            <AltitudeMeters>25.200000762939453125</AltitudeMeters>
            <DistanceMeters>NAN</DistanceMeters>
          </Trackpoint>
          <Trackpoint>
            <Time>2022-07-08T15:07:22.000Z</Time>
            <Position>
              <LatitudeDegrees>43.34199777804315090179443359375</LatitudeDegrees>
              <LongitudeDegrees>-1.76791847683489322662353515625</LongitudeDegrees>
            </Position>
            <AltitudeMeters>25.200000762939453125</AltitudeMeters>
            <DistanceMeters>NAN</DistanceMeters>
          </Trackpoint>
          <Trackpoint>
            <Time>2022-07-08T15:07:24.000Z</Time>
            <Position>
              <LatitudeDegrees>43.34196961484849452972412109375</LatitudeDegrees>
              <LongitudeDegrees>-1.76803247071802616119384765625</LongitudeDegrees>
            </Position>
            <AltitudeMeters>25.3999996185302734375</AltitudeMeters>
            <DistanceMeters>NAN</DistanceMeters>
          </Trackpoint>
          <Trackpoint>
            <Time>2022-07-08T15:07:27.000Z</Time>
            <Position>
              <LatitudeDegrees>43.34194178692996501922607421875</LatitudeDegrees>
              <LongitudeDegrees>-1.76820329390466213226318359375</LongitudeDegrees>
            </Position>
            <AltitudeMeters>25.799999237060546875</AltitudeMeters>
            <DistanceMeters>NAN</DistanceMeters>
          </Trackpoint>
          <Trackpoint>
            <Time>2022-07-08T15:07:29.000Z</Time>
            <Position>
              <LatitudeDegrees>43.341923095285892486572265625</LatitudeDegrees>
              <LongitudeDegrees>-1.768315024673938751220703125</LongitudeDegrees>
            </Position>
            <AltitudeMeters>25.6000003814697265625</AltitudeMeters>
            <DistanceMeters>NAN</DistanceMeters>
          </Trackpoint>
          <Trackpoint>
            <Time>2022-07-08T15:07:31.000Z</Time>
            <Position>
              <LatitudeDegrees>43.3419115282595157623291015625</LatitudeDegrees>
              <LongitudeDegrees>-1.76842533051967620849609375</LongitudeDegrees>
            </Position>
            <AltitudeMeters>25.3999996185302734375</AltitudeMeters>
            <DistanceMeters>NAN</DistanceMeters>
          </Trackpoint>
          <Trackpoint>
            <Time>2022-07-08T15:07:32.000Z</Time>
            <Position>
              <LatitudeDegrees>43.34190733730792999267578125</LatitudeDegrees>
              <LongitudeDegrees>-1.7684831656515598297119140625</LongitudeDegrees>
            </Position>
            <AltitudeMeters>25.3999996185302734375</AltitudeMeters>
            <DistanceMeters>NAN</DistanceMeters>
          </Trackpoint>
          <Trackpoint>
            <Time>2022-07-08T15:07:36.000Z</Time>
            <Position>
              <LatitudeDegrees>43.341880850493907928466796875</LatitudeDegrees>
              <LongitudeDegrees>-1.76870905794203281402587890625</LongitudeDegrees>
            </Position>
            <AltitudeMeters>25.3999996185302734375</AltitudeMeters>
            <DistanceMeters>NAN</DistanceMeters>
          </Trackpoint>
          <Trackpoint>
            <Time>2022-07-08T15:07:43.000Z</Time>
            <Position>
              <LatitudeDegrees>43.34185235202312469482421875</LatitudeDegrees>
              <LongitudeDegrees>-1.76915447227656841278076171875</LongitudeDegrees>
            </Position>
            <AltitudeMeters>25.799999237060546875</AltitudeMeters>
            <DistanceMeters>NAN</DistanceMeters>
          </Trackpoint>
          <Trackpoint>
            <Time>2022-07-08T15:07:48.000Z</Time>
            <Position>
              <LatitudeDegrees>43.34184673614799976348876953125</LatitudeDegrees>
              <LongitudeDegrees>-1.769457645714282989501953125</LongitudeDegrees>
            </Position>
            <AltitudeMeters>25.799999237060546875</AltitudeMeters>
            <DistanceMeters>NAN</DistanceMeters>
          </Trackpoint>
          <Trackpoint>
            <Time>2022-07-08T15:07:51.000Z</Time>
            <Position>
              <LatitudeDegrees>43.3418320678174495697021484375</LatitudeDegrees>
              <LongitudeDegrees>-1.76963089965283870697021484375</LongitudeDegrees>
            </Position>
            <AltitudeMeters>25.799999237060546875</AltitudeMeters>
            <DistanceMeters>NAN</DistanceMeters>
          </Trackpoint>
          <Trackpoint>
            <Time>2022-07-08T15:07:59.000Z</Time>
            <Position>
              <LatitudeDegrees>43.34180918522179126739501953125</LatitudeDegrees>
              <LongitudeDegrees>-1.77010095678269863128662109375</LongitudeDegrees>
            </Position>
            <AltitudeMeters>25.3999996185302734375</AltitudeMeters>
            <DistanceMeters>NAN</DistanceMeters>
          </Trackpoint>
          <Trackpoint>
            <Time>2022-07-08T15:08:06.000Z</Time>
            <Position>
              <LatitudeDegrees>43.34176844917237758636474609375</LatitudeDegrees>
              <LongitudeDegrees>-1.77051871083676815032958984375</LongitudeDegrees>
            </Position>
            <AltitudeMeters>25.3999996185302734375</AltitudeMeters>
            <DistanceMeters>NAN</DistanceMeters>
          </Trackpoint>
          <Trackpoint>
            <Time>2022-07-08T15:08:08.000Z</Time>
            <Position>
              <LatitudeDegrees>43.3417630009353160858154296875</LatitudeDegrees>
              <LongitudeDegrees>-1.77062516100704669952392578125</LongitudeDegrees>
            </Position>
            <AltitudeMeters>25.3999996185302734375</AltitudeMeters>
            <DistanceMeters>NAN</DistanceMeters>
          </Trackpoint>
          <Trackpoint>
            <Time>2022-07-08T15:08:18.000Z</Time>
            <Position>
              <LatitudeDegrees>43.34172570146620273590087890625</LatitudeDegrees>
              <LongitudeDegrees>-1.7712076194584369659423828125</LongitudeDegrees>
            </Position>
            <AltitudeMeters>25.6000003814697265625</AltitudeMeters>
            <DistanceMeters>NAN</DistanceMeters>
          </Trackpoint>
          <Trackpoint>
            <Time>2022-07-08T15:08:19.000Z</Time>
            <Position>
              <LatitudeDegrees>43.34172419272363185882568359375</LatitudeDegrees>
              <LongitudeDegrees>-1.7712602578103542327880859375</LongitudeDegrees>
            </Position>
            <AltitudeMeters>25.6000003814697265625</AltitudeMeters>
            <DistanceMeters>NAN</DistanceMeters>
          </Trackpoint>
          <Trackpoint>
            <Time>2022-07-08T15:08:21.000Z</Time>
            <Position>
              <LatitudeDegrees>43.34171061404049396514892578125</LatitudeDegrees>
              <LongitudeDegrees>-1.7713695578277111053466796875</LongitudeDegrees>
            </Position>
            <AltitudeMeters>25.6000003814697265625</AltitudeMeters>
            <DistanceMeters>NAN</DistanceMeters>
          </Trackpoint>
          <Trackpoint>
            <Time>2022-07-08T15:08:28.000Z</Time>
            <Position>
              <LatitudeDegrees>43.341688401997089385986328125</LatitudeDegrees>
              <LongitudeDegrees>-1.77173945121467113494873046875</LongitudeDegrees>
            </Position>
            <AltitudeMeters>25.6000003814697265625</AltitudeMeters>
            <DistanceMeters>NAN</DistanceMeters>
          </Trackpoint>
          <Trackpoint>
            <Time>2022-07-08T15:08:31.000Z</Time>
            <Position>
              <LatitudeDegrees>43.3416825346648693084716796875</LatitudeDegrees>
              <LongitudeDegrees>-1.7718956060707569122314453125</LongitudeDegrees>
            </Position>
            <AltitudeMeters>25.6000003814697265625</AltitudeMeters>
            <DistanceMeters>NAN</DistanceMeters>
          </Trackpoint>
          <Trackpoint>
            <Time>2022-07-08T15:08:38.000Z</Time>
            <Position>
              <LatitudeDegrees>43.34170692600309848785400390625</LatitudeDegrees>
              <LongitudeDegrees>-1.77225577645003795623779296875</LongitudeDegrees>
            </Position>
            <AltitudeMeters>25.6000003814697265625</AltitudeMeters>
            <DistanceMeters>NAN</DistanceMeters>
          </Trackpoint>
          <Trackpoint>
            <Time>2022-07-08T15:08:40.000Z</Time>
            <Position>
              <LatitudeDegrees>43.341721929609775543212890625</LatitudeDegrees>
              <LongitudeDegrees>-1.77232182584702968597412109375</LongitudeDegrees>
            </Position>
            <AltitudeMeters>25.799999237060546875</AltitudeMeters>
            <DistanceMeters>NAN</DistanceMeters>
          </Trackpoint>
          <Trackpoint>
            <Time>2022-07-08T15:08:42.000Z</Time>
            <Position>
              <LatitudeDegrees>43.34171664901077747344970703125</LatitudeDegrees>
              <LongitudeDegrees>-1.77240036427974700927734375</LongitudeDegrees>
            </Position>
            <AltitudeMeters>25.6000003814697265625</AltitudeMeters>
            <DistanceMeters>NAN</DistanceMeters>
          </Trackpoint>
          <Trackpoint>
            <Time>2022-07-08T15:08:47.000Z</Time>
            <Position>
              <LatitudeDegrees>43.341696448624134063720703125</LatitudeDegrees>
              <LongitudeDegrees>-1.77266196347773075103759765625</LongitudeDegrees>
            </Position>
            <AltitudeMeters>25.3999996185302734375</AltitudeMeters>
            <DistanceMeters>NAN</DistanceMeters>
          </Trackpoint>
          <Trackpoint>
            <Time>2022-07-08T15:08:48.000Z</Time>
            <Position>
              <LatitudeDegrees>43.34169737063348293304443359375</LatitudeDegrees>
              <LongitudeDegrees>-1.772725582122802734375</LongitudeDegrees>
            </Position>
            <AltitudeMeters>25.3999996185302734375</AltitudeMeters>
            <DistanceMeters>NAN</DistanceMeters>
          </Trackpoint>
          <Trackpoint>
            <Time>2022-07-08T15:08:53.000Z</Time>
            <Position>
              <LatitudeDegrees>43.34171279333531856536865234375</LatitudeDegrees>
              <LongitudeDegrees>-1.77298265509307384490966796875</LongitudeDegrees>
            </Position>
            <AltitudeMeters>25.6000003814697265625</AltitudeMeters>
            <DistanceMeters>NAN</DistanceMeters>
          </Trackpoint>
          <Trackpoint>
            <Time>2022-07-08T15:08:55.000Z</Time>
            <Position>
              <LatitudeDegrees>43.34171463735401630401611328125</LatitudeDegrees>
              <LongitudeDegrees>-1.77307787351310253143310546875</LongitudeDegrees>
            </Position>
            <AltitudeMeters>25.6000003814697265625</AltitudeMeters>
            <DistanceMeters>NAN</DistanceMeters>
          </Trackpoint>
          <Trackpoint>
            <Time>2022-07-08T15:09:01.000Z</Time>
            <Position>
              <LatitudeDegrees>43.3417267911136150360107421875</LatitudeDegrees>
              <LongitudeDegrees>-1.77338331006467342376708984375</LongitudeDegrees>
            </Position>
            <AltitudeMeters>25.200000762939453125</AltitudeMeters>
            <DistanceMeters>NAN</DistanceMeters>
          </Trackpoint>
          <Trackpoint>
            <Time>2022-07-08T15:09:05.000Z</Time>
            <Position>
              <LatitudeDegrees>43.3417398668825626373291015625</LatitudeDegrees>
              <LongitudeDegrees>-1.773551367223262786865234375</LongitudeDegrees>
            </Position>
            <AltitudeMeters>25.200000762939453125</AltitudeMeters>
            <DistanceMeters>NAN</DistanceMeters>
          </Trackpoint>
          <Trackpoint>
            <Time>2022-07-08T15:09:13.000Z</Time>
            <Position>
              <LatitudeDegrees>43.34176207892596721649169921875</LatitudeDegrees>
              <LongitudeDegrees>-1.773936264216899871826171875</LongitudeDegrees>
            </Position>
            <AltitudeMeters>25.3999996185302734375</AltitudeMeters>
            <DistanceMeters>NAN</DistanceMeters>
          </Trackpoint>
          <Trackpoint>
            <Time>2022-07-08T15:09:15.000Z</Time>
            <Position>
              <LatitudeDegrees>43.34176710806787014007568359375</LatitudeDegrees>
              <LongitudeDegrees>-1.7740326561033725738525390625</LongitudeDegrees>
            </Position>
            <AltitudeMeters>25.3999996185302734375</AltitudeMeters>
            <DistanceMeters>NAN</DistanceMeters>
          </Trackpoint>
          <Trackpoint>
            <Time>2022-07-08T15:09:19.000Z</Time>
            <Position>
              <LatitudeDegrees>43.34176115691661834716796875</LatitudeDegrees>
              <LongitudeDegrees>-1.77423407323658466339111328125</LongitudeDegrees>
            </Position>
            <AltitudeMeters>25.200000762939453125</AltitudeMeters>
            <DistanceMeters>NAN</DistanceMeters>
          </Trackpoint>
          <Trackpoint>
            <Time>2022-07-08T15:09:28.000Z</Time>
            <Position>
              <LatitudeDegrees>43.341708518564701080322265625</LatitudeDegrees>
              <LongitudeDegrees>-1.77473656833171844482421875</LongitudeDegrees>
            </Position>
            <AltitudeMeters>25</AltitudeMeters>
            <DistanceMeters>NAN</DistanceMeters>
          </Trackpoint>
          <Trackpoint>
            <Time>2022-07-08T15:09:29.000Z</Time>
            <Position>
              <LatitudeDegrees>43.341699130833148956298828125</LatitudeDegrees>
              <LongitudeDegrees>-1.77478845231235027313232421875</LongitudeDegrees>
            </Position>
            <AltitudeMeters>25.200000762939453125</AltitudeMeters>
            <DistanceMeters>NAN</DistanceMeters>
          </Trackpoint>
          <Trackpoint>
            <Time>2022-07-08T15:09:32.000Z</Time>
            <Position>
              <LatitudeDegrees>43.34167624823749065399169921875</LatitudeDegrees>
              <LongitudeDegrees>-1.77494578063488006591796875</LongitudeDegrees>
            </Position>
            <AltitudeMeters>25.200000762939453125</AltitudeMeters>
            <DistanceMeters>NAN</DistanceMeters>
          </Trackpoint>
          <Trackpoint>
            <Time>2022-07-08T15:09:36.000Z</Time>
            <Position>
              <LatitudeDegrees>43.341642133891582489013671875</LatitudeDegrees>
              <LongitudeDegrees>-1.7751477845013141632080078125</LongitudeDegrees>
            </Position>
            <AltitudeMeters>25.200000762939453125</AltitudeMeters>
            <DistanceMeters>NAN</DistanceMeters>
          </Trackpoint>
          <Trackpoint>
            <Time>2022-07-08T15:09:38.000Z</Time>
            <Position>
              <LatitudeDegrees>43.3416342549026012420654296875</LatitudeDegrees>
              <LongitudeDegrees>-1.7752401530742645263671875</LongitudeDegrees>
            </Position>
            <AltitudeMeters>25.200000762939453125</AltitudeMeters>
            <DistanceMeters>NAN</DistanceMeters>
          </Trackpoint>
          <Trackpoint>
            <Time>2022-07-08T15:09:42.000Z</Time>
            <Position>
              <LatitudeDegrees>43.34160466678440570831298828125</LatitudeDegrees>
              <LongitudeDegrees>-1.775412820279598236083984375</LongitudeDegrees>
            </Position>
            <AltitudeMeters>25.6000003814697265625</AltitudeMeters>
            <DistanceMeters>NAN</DistanceMeters>
          </Trackpoint>
          <Trackpoint>
            <Time>2022-07-08T15:09:50.000Z</Time>
            <Position>
              <LatitudeDegrees>43.341468460857868194580078125</LatitudeDegrees>
              <LongitudeDegrees>-1.77577081136405467987060546875</LongitudeDegrees>
            </Position>
            <AltitudeMeters>25.3999996185302734375</AltitudeMeters>
            <DistanceMeters>NAN</DistanceMeters>
          </Trackpoint>
          <Trackpoint>
            <Time>2022-07-08T15:09:59.000Z</Time>
            <Position>
              <LatitudeDegrees>43.34134181030094623565673828125</LatitudeDegrees>
              <LongitudeDegrees>-1.77613039501011371612548828125</LongitudeDegrees>
            </Position>
            <AltitudeMeters>25.6000003814697265625</AltitudeMeters>
            <DistanceMeters>NAN</DistanceMeters>
          </Trackpoint>
          <Trackpoint>
            <Time>2022-07-08T15:10:06.000Z</Time>
            <Position>
              <LatitudeDegrees>43.3412409760057926177978515625</LatitudeDegrees>
              <LongitudeDegrees>-1.776413619518280029296875</LongitudeDegrees>
            </Position>
            <AltitudeMeters>26</AltitudeMeters>
            <DistanceMeters>NAN</DistanceMeters>
          </Trackpoint>
          <Trackpoint>
            <Time>2022-07-08T15:10:11.000Z</Time>
            <Position>
              <LatitudeDegrees>43.3411704003810882568359375</LatitudeDegrees>
              <LongitudeDegrees>-1.7765753902494907379150390625</LongitudeDegrees>
            </Position>
            <AltitudeMeters>26</AltitudeMeters>
            <DistanceMeters>NAN</DistanceMeters>
          </Trackpoint>
          <Trackpoint>
            <Time>2022-07-08T15:10:14.000Z</Time>
            <Position>
              <LatitudeDegrees>43.34112145006656646728515625</LatitudeDegrees>
              <LongitudeDegrees>-1.77668946795165538787841796875</LongitudeDegrees>
            </Position>
            <AltitudeMeters>26</AltitudeMeters>
            <DistanceMeters>NAN</DistanceMeters>
          </Trackpoint>
          <Trackpoint>
            <Time>2022-07-08T15:10:16.000Z</Time>
            <Position>
              <LatitudeDegrees>43.341084234416484832763671875</LatitudeDegrees>
              <LongitudeDegrees>-1.776768006384372711181640625</LongitudeDegrees>
            </Position>
            <AltitudeMeters>26</AltitudeMeters>
            <DistanceMeters>NAN</DistanceMeters>
          </Trackpoint>
          <Trackpoint>
            <Time>2022-07-08T15:10:20.000Z</Time>
            <Position>
              <LatitudeDegrees>43.3410270698368549346923828125</LatitudeDegrees>
              <LongitudeDegrees>-1.7769140191376209259033203125</LongitudeDegrees>
            </Position>
            <AltitudeMeters>26.200000762939453125</AltitudeMeters>
            <DistanceMeters>NAN</DistanceMeters>
          </Trackpoint>
          <Trackpoint>
            <Time>2022-07-08T15:10:21.000Z</Time>
            <Position>
              <LatitudeDegrees>43.34101323969662189483642578125</LatitudeDegrees>
              <LongitudeDegrees>-1.77694260142743587493896484375</LongitudeDegrees>
            </Position>
            <AltitudeMeters>26.200000762939453125</AltitudeMeters>
            <DistanceMeters>NAN</DistanceMeters>
          </Trackpoint>
          <Trackpoint>
            <Time>2022-07-08T15:10:23.000Z</Time>
            <Position>
              <LatitudeDegrees>43.340991027653217315673828125</LatitudeDegrees>
              <LongitudeDegrees>-1.7770598642528057098388671875</LongitudeDegrees>
            </Position>
            <AltitudeMeters>26.3999996185302734375</AltitudeMeters>
            <DistanceMeters>NAN</DistanceMeters>
          </Trackpoint>
          <Trackpoint>
            <Time>2022-07-08T15:10:26.000Z</Time>
            <Position>
              <LatitudeDegrees>43.34098205901682376861572265625</LatitudeDegrees>
              <LongitudeDegrees>-1.7772251553833484649658203125</LongitudeDegrees>
            </Position>
            <AltitudeMeters>26.200000762939453125</AltitudeMeters>
            <DistanceMeters>NAN</DistanceMeters>
          </Trackpoint>
          <Trackpoint>
            <Time>2022-07-08T15:10:29.000Z</Time>
            <Position>
              <LatitudeDegrees>43.340967558324337005615234375</LatitudeDegrees>
              <LongitudeDegrees>-1.777388937771320343017578125</LongitudeDegrees>
            </Position>
            <AltitudeMeters>25.799999237060546875</AltitudeMeters>
            <DistanceMeters>NAN</DistanceMeters>
          </Trackpoint>
          <Trackpoint>
            <Time>2022-07-08T15:10:31.000Z</Time>
            <Position>
              <LatitudeDegrees>43.34092740900814533233642578125</LatitudeDegrees>
              <LongitudeDegrees>-1.7774963937699794769287109375</LongitudeDegrees>
            </Position>
            <AltitudeMeters>25.6000003814697265625</AltitudeMeters>
            <DistanceMeters>NAN</DistanceMeters>
          </Trackpoint>
          <Trackpoint>
            <Time>2022-07-08T15:10:33.000Z</Time>
            <Position>
              <LatitudeDegrees>43.34088985808193683624267578125</LatitudeDegrees>
              <LongitudeDegrees>-1.777604185044765472412109375</LongitudeDegrees>
            </Position>
            <AltitudeMeters>25.3999996185302734375</AltitudeMeters>
            <DistanceMeters>NAN</DistanceMeters>
          </Trackpoint>
          <Trackpoint>
            <Time>2022-07-08T15:10:37.000Z</Time>
            <Position>
              <LatitudeDegrees>43.340879380702972412109375</LatitudeDegrees>
              <LongitudeDegrees>-1.77782303653657436370849609375</LongitudeDegrees>
            </Position>
            <AltitudeMeters>25.3999996185302734375</AltitudeMeters>
            <DistanceMeters>NAN</DistanceMeters>
          </Trackpoint>
          <Trackpoint>
            <Time>2022-07-08T15:10:43.000Z</Time>
            <Position>
              <LatitudeDegrees>43.34084828384220600128173828125</LatitudeDegrees>
              <LongitudeDegrees>-1.77811506204307079315185546875</LongitudeDegrees>
            </Position>
            <AltitudeMeters>25.6000003814697265625</AltitudeMeters>
            <DistanceMeters>NAN</DistanceMeters>
          </Trackpoint>
          <Trackpoint>
            <Time>2022-07-08T15:10:52.000Z</Time>
            <Position>
              <LatitudeDegrees>43.34084325470030307769775390625</LatitudeDegrees>
              <LongitudeDegrees>-1.77854128181934356689453125</LongitudeDegrees>
            </Position>
            <AltitudeMeters>25.3999996185302734375</AltitudeMeters>
            <DistanceMeters>NAN</DistanceMeters>
          </Trackpoint>
          <Trackpoint>
            <Time>2022-07-08T15:10:53.000Z</Time>
            <Position>
              <LatitudeDegrees>43.340841829776763916015625</LatitudeDegrees>
              <LongitudeDegrees>-1.778581179678440093994140625</LongitudeDegrees>
            </Position>
            <AltitudeMeters>25.6000003814697265625</AltitudeMeters>
            <DistanceMeters>NAN</DistanceMeters>
          </Trackpoint>
          <Trackpoint>
            <Time>2022-07-08T15:10:55.000Z</Time>
            <Position>
              <LatitudeDegrees>43.34085700102150440216064453125</LatitudeDegrees>
              <LongitudeDegrees>-1.7786577902734279632568359375</LongitudeDegrees>
            </Position>
            <AltitudeMeters>25.6000003814697265625</AltitudeMeters>
            <DistanceMeters>NAN</DistanceMeters>
          </Trackpoint>
          <Trackpoint>
            <Time>2022-07-08T15:10:56.000Z</Time>
            <Position>
              <LatitudeDegrees>43.34088030271232128143310546875</LatitudeDegrees>
              <LongitudeDegrees>-1.77867379970848560333251953125</LongitudeDegrees>
            </Position>
            <AltitudeMeters>25.6000003814697265625</AltitudeMeters>
            <DistanceMeters>NAN</DistanceMeters>
          </Trackpoint>
          <Trackpoint>
            <Time>2022-07-08T15:11:00.000Z</Time>
            <Position>
              <LatitudeDegrees>43.34099982865154743194580078125</LatitudeDegrees>
              <LongitudeDegrees>-1.77871520631015300750732421875</LongitudeDegrees>
            </Position>
            <AltitudeMeters>25.6000003814697265625</AltitudeMeters>
            <DistanceMeters>NAN</DistanceMeters>
          </Trackpoint>
          <Trackpoint>
            <Time>2022-07-08T15:11:03.000Z</Time>
            <Position>
              <LatitudeDegrees>43.34104123525321483612060546875</LatitudeDegrees>
              <LongitudeDegrees>-1.77887630648910999298095703125</LongitudeDegrees>
            </Position>
            <AltitudeMeters>25.200000762939453125</AltitudeMeters>
            <DistanceMeters>NAN</DistanceMeters>
          </Trackpoint>
          <Trackpoint>
            <Time>2022-07-08T15:11:04.000Z</Time>
            <Position>
              <LatitudeDegrees>43.34105565212666988372802734375</LatitudeDegrees>
              <LongitudeDegrees>-1.77894336171448230743408203125</LongitudeDegrees>
            </Position>
            <AltitudeMeters>25.200000762939453125</AltitudeMeters>
            <DistanceMeters>NAN</DistanceMeters>
          </Trackpoint>
          <Trackpoint>
            <Time>2022-07-08T15:11:08.000Z</Time>
            <Position>
              <LatitudeDegrees>43.341119103133678436279296875</LatitudeDegrees>
              <LongitudeDegrees>-1.77916598506271839141845703125</LongitudeDegrees>
            </Position>
            <AltitudeMeters>25.3999996185302734375</AltitudeMeters>
            <DistanceMeters>NAN</DistanceMeters>
          </Trackpoint>
          <Trackpoint>
            <Time>2022-07-08T15:11:10.000Z</Time>
            <Position>
              <LatitudeDegrees>43.3411715738475322723388671875</LatitudeDegrees>
              <LongitudeDegrees>-1.7792760394513607025146484375</LongitudeDegrees>
            </Position>
            <AltitudeMeters>25.3999996185302734375</AltitudeMeters>
            <DistanceMeters>NAN</DistanceMeters>
          </Trackpoint>
          <Trackpoint>
            <Time>2022-07-08T15:11:13.000Z</Time>
            <Position>
              <LatitudeDegrees>43.34124642424285411834716796875</LatitudeDegrees>
              <LongitudeDegrees>-1.7794135026633739471435546875</LongitudeDegrees>
            </Position>
            <AltitudeMeters>24.799999237060546875</AltitudeMeters>
            <DistanceMeters>NAN</DistanceMeters>
          </Trackpoint>
          <Trackpoint>
            <Time>2022-07-08T15:11:14.000Z</Time>
            <Position>
              <LatitudeDegrees>43.34126268513500690460205078125</LatitudeDegrees>
              <LongitudeDegrees>-1.77945784293115139007568359375</LongitudeDegrees>
            </Position>
            <AltitudeMeters>24.799999237060546875</AltitudeMeters>
            <DistanceMeters>NAN</DistanceMeters>
          </Trackpoint>
          <Trackpoint>
            <Time>2022-07-08T15:11:15.000Z</Time>
            <Position>
              <LatitudeDegrees>43.34127190522849559783935546875</LatitudeDegrees>
              <LongitudeDegrees>-1.77950461395084857940673828125</LongitudeDegrees>
            </Position>
            <AltitudeMeters>24.6000003814697265625</AltitudeMeters>
            <DistanceMeters>NAN</DistanceMeters>
          </Trackpoint>
          <Trackpoint>
            <Time>2022-07-08T15:11:16.000Z</Time>
            <Position>
              <LatitudeDegrees>43.341274000704288482666015625</LatitudeDegrees>
              <LongitudeDegrees>-1.779550798237323760986328125</LongitudeDegrees>
            </Position>
            <AltitudeMeters>24.6000003814697265625</AltitudeMeters>
            <DistanceMeters>NAN</DistanceMeters>
          </Trackpoint>
          <Trackpoint>
            <Time>2022-07-08T15:11:19.000Z</Time>
            <Position>
              <LatitudeDegrees>43.341270983219146728515625</LatitudeDegrees>
              <LongitudeDegrees>-1.7796726711094379425048828125</LongitudeDegrees>
            </Position>
            <AltitudeMeters>24.6000003814697265625</AltitudeMeters>
            <DistanceMeters>NAN</DistanceMeters>
          </Trackpoint>
          <Trackpoint>
            <Time>2022-07-08T15:11:21.000Z</Time>
            <Position>
              <LatitudeDegrees>43.341263942420482635498046875</LatitudeDegrees>
              <LongitudeDegrees>-1.77974559366703033447265625</LongitudeDegrees>
            </Position>
            <AltitudeMeters>24.6000003814697265625</AltitudeMeters>
            <DistanceMeters>NAN</DistanceMeters>
          </Trackpoint>
          <Trackpoint>
            <Time>2022-07-08T15:11:26.000Z</Time>
            <Position>
              <LatitudeDegrees>43.3412131480872631072998046875</LatitudeDegrees>
              <LongitudeDegrees>-1.77997131831943988800048828125</LongitudeDegrees>
            </Position>
            <AltitudeMeters>24.3999996185302734375</AltitudeMeters>
            <DistanceMeters>NAN</DistanceMeters>
          </Trackpoint>
          <Trackpoint>
            <Time>2022-07-08T15:11:30.000Z</Time>
            <Position>
              <LatitudeDegrees>43.341144584119319915771484375</LatitudeDegrees>
              <LongitudeDegrees>-1.78015555255115032196044921875</LongitudeDegrees>
            </Position>
            <AltitudeMeters>24.200000762939453125</AltitudeMeters>
            <DistanceMeters>NAN</DistanceMeters>
          </Trackpoint>
          <Trackpoint>
            <Time>2022-07-08T15:11:36.000Z</Time>
            <Position>
              <LatitudeDegrees>43.34107040427625179290771484375</LatitudeDegrees>
              <LongitudeDegrees>-1.78041388280689716339111328125</LongitudeDegrees>
            </Position>
            <AltitudeMeters>24</AltitudeMeters>
            <DistanceMeters>NAN</DistanceMeters>
          </Trackpoint>
          <Trackpoint>
            <Time>2022-07-08T15:11:41.000Z</Time>
            <Position>
              <LatitudeDegrees>43.3410830609500408172607421875</LatitudeDegrees>
              <LongitudeDegrees>-1.78065695799887180328369140625</LongitudeDegrees>
            </Position>
            <AltitudeMeters>23.6000003814697265625</AltitudeMeters>
            <DistanceMeters>NAN</DistanceMeters>
          </Trackpoint>
          <Trackpoint>
            <Time>2022-07-08T15:11:42.000Z</Time>
            <Position>
              <LatitudeDegrees>43.3410884253680706024169921875</LatitudeDegrees>
              <LongitudeDegrees>-1.780710853636264801025390625</LongitudeDegrees>
            </Position>
            <AltitudeMeters>23.3999996185302734375</AltitudeMeters>
            <DistanceMeters>NAN</DistanceMeters>
          </Trackpoint>
          <Trackpoint>
            <Time>2022-07-08T15:11:47.000Z</Time>
            <Position>
              <LatitudeDegrees>43.34113259799778461456298828125</LatitudeDegrees>
              <LongitudeDegrees>-1.78088595159351825714111328125</LongitudeDegrees>
            </Position>
            <AltitudeMeters>23.200000762939453125</AltitudeMeters>
            <DistanceMeters>NAN</DistanceMeters>
          </Trackpoint>
          <Trackpoint>
            <Time>2022-07-08T15:11:50.000Z</Time>
            <Position>
              <LatitudeDegrees>43.3411279879510402679443359375</LatitudeDegrees>
              <LongitudeDegrees>-1.78102995269000530242919921875</LongitudeDegrees>
            </Position>
            <AltitudeMeters>23.200000762939453125</AltitudeMeters>
            <DistanceMeters>NAN</DistanceMeters>
          </Trackpoint>
          <Trackpoint>
            <Time>2022-07-08T15:11:57.000Z</Time>
            <Position>
              <LatitudeDegrees>43.3412620984017848968505859375</LatitudeDegrees>
              <LongitudeDegrees>-1.78129725158214569091796875</LongitudeDegrees>
            </Position>
            <AltitudeMeters>23.3999996185302734375</AltitudeMeters>
            <DistanceMeters>NAN</DistanceMeters>
          </Trackpoint>
          <Trackpoint>
            <Time>2022-07-08T15:12:05.000Z</Time>
            <Position>
              <LatitudeDegrees>43.341436944901943206787109375</LatitudeDegrees>
              <LongitudeDegrees>-1.78163814358413219451904296875</LongitudeDegrees>
            </Position>
            <AltitudeMeters>23.3999996185302734375</AltitudeMeters>
            <DistanceMeters>NAN</DistanceMeters>
          </Trackpoint>
          <Trackpoint>
            <Time>2022-07-08T15:12:07.000Z</Time>
            <Position>
              <LatitudeDegrees>43.34148061461746692657470703125</LatitudeDegrees>
              <LongitudeDegrees>-1.78171358071267604827880859375</LongitudeDegrees>
            </Position>
            <AltitudeMeters>23.3999996185302734375</AltitudeMeters>
            <DistanceMeters>NAN</DistanceMeters>
          </Trackpoint>
          <Trackpoint>
            <Time>2022-07-08T15:12:10.000Z</Time>
            <Position>
              <LatitudeDegrees>43.3415403775870800018310546875</LatitudeDegrees>
              <LongitudeDegrees>-1.78184635005891323089599609375</LongitudeDegrees>
            </Position>
            <AltitudeMeters>22.799999237060546875</AltitudeMeters>
            <DistanceMeters>NAN</DistanceMeters>
          </Trackpoint>
          <Trackpoint>
            <Time>2022-07-08T15:12:12.000Z</Time>
            <Position>
              <LatitudeDegrees>43.3415775932371616363525390625</LatitudeDegrees>
              <LongitudeDegrees>-1.781942658126354217529296875</LongitudeDegrees>
            </Position>
            <AltitudeMeters>22.6000003814697265625</AltitudeMeters>
            <DistanceMeters>NAN</DistanceMeters>
          </Trackpoint>
          <Trackpoint>
            <Time>2022-07-08T15:12:17.000Z</Time>
            <Position>
              <LatitudeDegrees>43.3416785113513469696044921875</LatitudeDegrees>
              <LongitudeDegrees>-1.78215916268527507781982421875</LongitudeDegrees>
            </Position>
            <AltitudeMeters>23</AltitudeMeters>
            <DistanceMeters>NAN</DistanceMeters>
          </Trackpoint>
          <Trackpoint>
            <Time>2022-07-08T15:12:23.000Z</Time>
            <Position>
              <LatitudeDegrees>43.34180281497538089752197265625</LatitudeDegrees>
              <LongitudeDegrees>-1.78242109715938568115234375</LongitudeDegrees>
            </Position>
            <AltitudeMeters>23.200000762939453125</AltitudeMeters>
            <DistanceMeters>NAN</DistanceMeters>
          </Trackpoint>
          <Trackpoint>
            <Time>2022-07-08T15:12:34.000Z</Time>
            <Position>
              <LatitudeDegrees>43.34203231148421764373779296875</LatitudeDegrees>
              <LongitudeDegrees>-1.78295074962079524993896484375</LongitudeDegrees>
            </Position>
            <AltitudeMeters>23.3999996185302734375</AltitudeMeters>
            <DistanceMeters>NAN</DistanceMeters>
          </Trackpoint>
          <Trackpoint>
            <Time>2022-07-08T15:12:41.000Z</Time>
            <Position>
              <LatitudeDegrees>43.34217178635299205780029296875</LatitudeDegrees>
              <LongitudeDegrees>-1.783264316618442535400390625</LongitudeDegrees>
            </Position>
            <AltitudeMeters>23.6000003814697265625</AltitudeMeters>
            <DistanceMeters>NAN</DistanceMeters>
          </Trackpoint>
          <Trackpoint>
            <Time>2022-07-08T15:12:46.000Z</Time>
            <Position>
              <LatitudeDegrees>43.3422719500958919525146484375</LatitudeDegrees>
              <LongitudeDegrees>-1.78348459303379058837890625</LongitudeDegrees>
            </Position>
            <AltitudeMeters>23.6000003814697265625</AltitudeMeters>
            <DistanceMeters>NAN</DistanceMeters>
          </Trackpoint>
          <Trackpoint>
            <Time>2022-07-08T15:12:56.000Z</Time>
            <Position>
              <LatitudeDegrees>43.34248878993093967437744140625</LatitudeDegrees>
              <LongitudeDegrees>-1.7839129082858562469482421875</LongitudeDegrees>
            </Position>
            <AltitudeMeters>23.6000003814697265625</AltitudeMeters>
            <DistanceMeters>NAN</DistanceMeters>
          </Trackpoint>
          <Trackpoint>
            <Time>2022-07-08T15:13:02.000Z</Time>
            <Position>
              <LatitudeDegrees>43.342609070241451263427734375</LatitudeDegrees>
              <LongitudeDegrees>-1.7841918580234050750732421875</LongitudeDegrees>
            </Position>
            <AltitudeMeters>24</AltitudeMeters>
            <DistanceMeters>NAN</DistanceMeters>
          </Trackpoint>
          <Trackpoint>
            <Time>2022-07-08T15:13:04.000Z</Time>
            <Position>
              <LatitudeDegrees>43.3426394127309322357177734375</LatitudeDegrees>
              <LongitudeDegrees>-1.78429462015628814697265625</LongitudeDegrees>
            </Position>
            <AltitudeMeters>24</AltitudeMeters>
            <DistanceMeters>NAN</DistanceMeters>
          </Trackpoint>
          <Trackpoint>
            <Time>2022-07-08T15:13:15.000Z</Time>
            <Position>
              <LatitudeDegrees>43.342827670276165008544921875</LatitudeDegrees>
              <LongitudeDegrees>-1.78480516187846660614013671875</LongitudeDegrees>
            </Position>
            <AltitudeMeters>24.3999996185302734375</AltitudeMeters>
            <DistanceMeters>NAN</DistanceMeters>
          </Trackpoint>
          <Trackpoint>
            <Time>2022-07-08T15:13:18.000Z</Time>
            <Position>
              <LatitudeDegrees>43.34287536330521106719970703125</LatitudeDegrees>
              <LongitudeDegrees>-1.78493273444473743438720703125</LongitudeDegrees>
            </Position>
            <AltitudeMeters>24.3999996185302734375</AltitudeMeters>
            <DistanceMeters>NAN</DistanceMeters>
          </Trackpoint>
          <Trackpoint>
            <Time>2022-07-08T15:13:21.000Z</Time>
            <Position>
              <LatitudeDegrees>43.3429351262748241424560546875</LatitudeDegrees>
              <LongitudeDegrees>-1.7850471474230289459228515625</LongitudeDegrees>
            </Position>
            <AltitudeMeters>24.6000003814697265625</AltitudeMeters>
            <DistanceMeters>NAN</DistanceMeters>
          </Trackpoint>
          <Trackpoint>
            <Time>2022-07-08T15:13:30.000Z</Time>
            <Position>
              <LatitudeDegrees>43.34307007491588592529296875</LatitudeDegrees>
              <LongitudeDegrees>-1.78541352041065692901611328125</LongitudeDegrees>
            </Position>
            <AltitudeMeters>24</AltitudeMeters>
            <DistanceMeters>NAN</DistanceMeters>
          </Trackpoint>
          <Trackpoint>
            <Time>2022-07-08T15:13:34.000Z</Time>
            <Position>
              <LatitudeDegrees>43.343111984431743621826171875</LatitudeDegrees>
              <LongitudeDegrees>-1.785506308078765869140625</LongitudeDegrees>
            </Position>
            <AltitudeMeters>24.3999996185302734375</AltitudeMeters>
            <DistanceMeters>NAN</DistanceMeters>
          </Trackpoint>
          <Trackpoint>
            <Time>2022-07-08T15:13:36.000Z</Time>
            <Position>
              <LatitudeDegrees>43.3431069552898406982421875</LatitudeDegrees>
              <LongitudeDegrees>-1.785546876490116119384765625</LongitudeDegrees>
            </Position>
            <AltitudeMeters>24.6000003814697265625</AltitudeMeters>
            <DistanceMeters>NAN</DistanceMeters>
          </Trackpoint>
          <Trackpoint>
            <Time>2022-07-08T15:13:41.000Z</Time>
            <Position>
              <LatitudeDegrees>43.34299539215862751007080078125</LatitudeDegrees>
              <LongitudeDegrees>-1.7856214754283428192138671875</LongitudeDegrees>
            </Position>
            <AltitudeMeters>24.799999237060546875</AltitudeMeters>
            <DistanceMeters>NAN</DistanceMeters>
          </Trackpoint>
          <Trackpoint>
            <Time>2022-07-08T15:13:46.000Z</Time>
            <Position>
              <LatitudeDegrees>43.34285373799502849578857421875</LatitudeDegrees>
              <LongitudeDegrees>-1.7857233993709087371826171875</LongitudeDegrees>
            </Position>
            <AltitudeMeters>25</AltitudeMeters>
            <DistanceMeters>NAN</DistanceMeters>
          </Trackpoint>
          <Trackpoint>
            <Time>2022-07-08T15:13:51.000Z</Time>
            <Position>
              <LatitudeDegrees>43.34273220039904117584228515625</LatitudeDegrees>
              <LongitudeDegrees>-1.785812415182590484619140625</LongitudeDegrees>
            </Position>
            <AltitudeMeters>25.3999996185302734375</AltitudeMeters>
            <DistanceMeters>NAN</DistanceMeters>
          </Trackpoint>
          <Trackpoint>
            <Time>2022-07-08T15:13:54.000Z</Time>
            <Position>
              <LatitudeDegrees>43.342662043869495391845703125</LatitudeDegrees>
              <LongitudeDegrees>-1.78583563305437564849853515625</LongitudeDegrees>
            </Position>
            <AltitudeMeters>25.6000003814697265625</AltitudeMeters>
            <DistanceMeters>NAN</DistanceMeters>
          </Trackpoint>
          <Trackpoint>
            <Time>2022-07-08T15:13:55.000Z</Time>
            <Position>
              <LatitudeDegrees>43.342641927301883697509765625</LatitudeDegrees>
              <LongitudeDegrees>-1.78584116511046886444091796875</LongitudeDegrees>
            </Position>
            <AltitudeMeters>25.6000003814697265625</AltitudeMeters>
            <DistanceMeters>NAN</DistanceMeters>
          </Trackpoint>
          <Trackpoint>
            <Time>2022-07-08T15:13:58.000Z</Time>
            <Position>
              <LatitudeDegrees>43.34259188733994960784912109375</LatitudeDegrees>
              <LongitudeDegrees>-1.785852648317813873291015625</LongitudeDegrees>
            </Position>
            <AltitudeMeters>25.799999237060546875</AltitudeMeters>
            <DistanceMeters>NAN</DistanceMeters>
          </Trackpoint>
          <Trackpoint>
            <Time>2022-07-08T15:14:00.000Z</Time>
            <Position>
              <LatitudeDegrees>43.3425777219235897064208984375</LatitudeDegrees>
              <LongitudeDegrees>-1.785902269184589385986328125</LongitudeDegrees>
            </Position>
            <AltitudeMeters>25.799999237060546875</AltitudeMeters>
            <DistanceMeters>NAN</DistanceMeters>
          </Trackpoint>
          <Trackpoint>
            <Time>2022-07-08T15:14:06.000Z</Time>
            <Position>
              <LatitudeDegrees>43.3425973355770111083984375</LatitudeDegrees>
              <LongitudeDegrees>-1.786123551428318023681640625</LongitudeDegrees>
            </Position>
            <AltitudeMeters>25.799999237060546875</AltitudeMeters>
            <DistanceMeters>NAN</DistanceMeters>
          </Trackpoint>
          <Trackpoint>
            <Time>2022-07-08T15:14:10.000Z</Time>
            <Position>
              <LatitudeDegrees>43.34266665391623973846435546875</LatitudeDegrees>
              <LongitudeDegrees>-1.7862940393388271331787109375</LongitudeDegrees>
            </Position>
            <AltitudeMeters>25.6000003814697265625</AltitudeMeters>
            <DistanceMeters>NAN</DistanceMeters>
          </Trackpoint>
          <Trackpoint>
            <Time>2022-07-08T15:14:12.000Z</Time>
            <Position>
              <LatitudeDegrees>43.34271962754428386688232421875</LatitudeDegrees>
              <LongitudeDegrees>-1.78638397715985774993896484375</LongitudeDegrees>
            </Position>
            <AltitudeMeters>25.3999996185302734375</AltitudeMeters>
            <DistanceMeters>NAN</DistanceMeters>
          </Trackpoint>
          <Trackpoint>
            <Time>2022-07-08T15:14:14.000Z</Time>
            <Position>
              <LatitudeDegrees>43.3427815698087215423583984375</LatitudeDegrees>
              <LongitudeDegrees>-1.78645513951778411865234375</LongitudeDegrees>
            </Position>
            <AltitudeMeters>25.200000762939453125</AltitudeMeters>
            <DistanceMeters>NAN</DistanceMeters>
          </Trackpoint>
          <Trackpoint>
            <Time>2022-07-08T15:14:15.000Z</Time>
            <Position>
              <LatitudeDegrees>43.34280797280371189117431640625</LatitudeDegrees>
              <LongitudeDegrees>-1.78649160079658031463623046875</LongitudeDegrees>
            </Position>
            <AltitudeMeters>25</AltitudeMeters>
            <DistanceMeters>NAN</DistanceMeters>
          </Trackpoint>
          <Trackpoint>
            <Time>2022-07-08T15:14:18.000Z</Time>
            <Position>
              <LatitudeDegrees>43.34288592450320720672607421875</LatitudeDegrees>
              <LongitudeDegrees>-1.786612384021282196044921875</LongitudeDegrees>
            </Position>
            <AltitudeMeters>24.799999237060546875</AltitudeMeters>
            <DistanceMeters>NAN</DistanceMeters>
          </Trackpoint>
          <Trackpoint>
            <Time>2022-07-08T15:14:21.000Z</Time>
            <Position>
              <LatitudeDegrees>43.342961780726909637451171875</LatitudeDegrees>
              <LongitudeDegrees>-1.78672696463763713836669921875</LongitudeDegrees>
            </Position>
            <AltitudeMeters>24.6000003814697265625</AltitudeMeters>
            <DistanceMeters>NAN</DistanceMeters>
          </Trackpoint>
          <Trackpoint>
            <Time>2022-07-08T15:14:22.000Z</Time>
            <Position>
              <LatitudeDegrees>43.3429897762835025787353515625</LatitudeDegrees>
              <LongitudeDegrees>-1.78675831295549869537353515625</LongitudeDegrees>
            </Position>
            <AltitudeMeters>24.3999996185302734375</AltitudeMeters>
            <DistanceMeters>NAN</DistanceMeters>
          </Trackpoint>
          <Trackpoint>
            <Time>2022-07-08T15:14:24.000Z</Time>
            <Position>
              <LatitudeDegrees>43.3430340327322483062744140625</LatitudeDegrees>
              <LongitudeDegrees>-1.7868281342089176177978515625</LongitudeDegrees>
            </Position>
            <AltitudeMeters>24.200000762939453125</AltitudeMeters>
            <DistanceMeters>NAN</DistanceMeters>
          </Trackpoint>
          <Trackpoint>
            <Time>2022-07-08T15:14:26.000Z</Time>
            <Position>
              <LatitudeDegrees>43.34308373741805553436279296875</LatitudeDegrees>
              <LongitudeDegrees>-1.78691186942160129547119140625</LongitudeDegrees>
            </Position>
            <AltitudeMeters>24</AltitudeMeters>
            <DistanceMeters>NAN</DistanceMeters>
          </Trackpoint>
          <Trackpoint>
            <Time>2022-07-08T15:14:29.000Z</Time>
            <Position>
              <LatitudeDegrees>43.34315012209117412567138671875</LatitudeDegrees>
              <LongitudeDegrees>-1.787071712315082550048828125</LongitudeDegrees>
            </Position>
            <AltitudeMeters>24.200000762939453125</AltitudeMeters>
            <DistanceMeters>NAN</DistanceMeters>
          </Trackpoint>
          <Trackpoint>
            <Time>2022-07-08T15:14:31.000Z</Time>
            <Position>
              <LatitudeDegrees>43.3431708253920078277587890625</LatitudeDegrees>
              <LongitudeDegrees>-1.787187047302722930908203125</LongitudeDegrees>
            </Position>
            <AltitudeMeters>24.200000762939453125</AltitudeMeters>
            <DistanceMeters>NAN</DistanceMeters>
          </Trackpoint>
          <Trackpoint>
            <Time>2022-07-08T15:14:32.000Z</Time>
            <Position>
              <LatitudeDegrees>43.34318297915160655975341796875</LatitudeDegrees>
              <LongitudeDegrees>-1.787244379520416259765625</LongitudeDegrees>
            </Position>
            <AltitudeMeters>24.200000762939453125</AltitudeMeters>
            <DistanceMeters>NAN</DistanceMeters>
          </Trackpoint>
          <Trackpoint>
            <Time>2022-07-08T15:14:34.000Z</Time>
            <Position>
              <LatitudeDegrees>43.3432066999375820159912109375</LatitudeDegrees>
              <LongitudeDegrees>-1.787358708679676055908203125</LongitudeDegrees>
            </Position>
            <AltitudeMeters>24.3999996185302734375</AltitudeMeters>
            <DistanceMeters>NAN</DistanceMeters>
          </Trackpoint>
          <Trackpoint>
            <Time>2022-07-08T15:14:36.000Z</Time>
            <Position>
              <LatitudeDegrees>43.3432298339903354644775390625</LatitudeDegrees>
              <LongitudeDegrees>-1.78747077472507953643798828125</LongitudeDegrees>
            </Position>
            <AltitudeMeters>24.3999996185302734375</AltitudeMeters>
            <DistanceMeters>NAN</DistanceMeters>
          </Trackpoint>
          <Trackpoint>
            <Time>2022-07-08T15:14:41.000Z</Time>
            <Position>
              <LatitudeDegrees>43.34323905408382415771484375</LatitudeDegrees>
              <LongitudeDegrees>-1.78775073029100894927978515625</LongitudeDegrees>
            </Position>
            <AltitudeMeters>24.799999237060546875</AltitudeMeters>
            <DistanceMeters>NAN</DistanceMeters>
          </Trackpoint>
          <Trackpoint>
            <Time>2022-07-08T15:14:42.000Z</Time>
            <Position>
              <LatitudeDegrees>43.34324601106345653533935546875</LatitudeDegrees>
              <LongitudeDegrees>-1.78780286572873592376708984375</LongitudeDegrees>
            </Position>
            <AltitudeMeters>24.799999237060546875</AltitudeMeters>
            <DistanceMeters>NAN</DistanceMeters>
          </Trackpoint>
          <Trackpoint>
            <Time>2022-07-08T15:14:45.000Z</Time>
            <Position>
              <LatitudeDegrees>43.343266546726226806640625</LatitudeDegrees>
              <LongitudeDegrees>-1.7879828251898288726806640625</LongitudeDegrees>
            </Position>
            <AltitudeMeters>25</AltitudeMeters>
            <DistanceMeters>NAN</DistanceMeters>
          </Trackpoint>
          <Trackpoint>
            <Time>2022-07-08T15:14:46.000Z</Time>
            <Position>
              <LatitudeDegrees>43.3432740904390811920166015625</LatitudeDegrees>
              <LongitudeDegrees>-1.7880411632359027862548828125</LongitudeDegrees>
            </Position>
            <AltitudeMeters>25</AltitudeMeters>
            <DistanceMeters>NAN</DistanceMeters>
          </Trackpoint>
          <Trackpoint>
            <Time>2022-07-08T15:14:47.000Z</Time>
            <Position>
              <LatitudeDegrees>43.34328372962772846221923828125</LatitudeDegrees>
              <LongitudeDegrees>-1.78809656761586666107177734375</LongitudeDegrees>
            </Position>
            <AltitudeMeters>25</AltitudeMeters>
            <DistanceMeters>NAN</DistanceMeters>
          </Trackpoint>
          <Trackpoint>
            <Time>2022-07-08T15:14:49.000Z</Time>
            <Position>
              <LatitudeDegrees>43.34330619312822818756103515625</LatitudeDegrees>
              <LongitudeDegrees>-1.7881933785974979400634765625</LongitudeDegrees>
            </Position>
            <AltitudeMeters>25.200000762939453125</AltitudeMeters>
            <DistanceMeters>NAN</DistanceMeters>
          </Trackpoint>
          <Trackpoint>
            <Time>2022-07-08T15:14:50.000Z</Time>
            <Position>
              <LatitudeDegrees>43.34331340156495571136474609375</LatitudeDegrees>
              <LongitudeDegrees>-1.78824190981686115264892578125</LongitudeDegrees>
            </Position>
            <AltitudeMeters>25.3999996185302734375</AltitudeMeters>
            <DistanceMeters>NAN</DistanceMeters>
          </Trackpoint>
          <Trackpoint>
            <Time>2022-07-08T15:14:51.000Z</Time>
            <Position>
              <LatitudeDegrees>43.343317173421382904052734375</LatitudeDegrees>
              <LongitudeDegrees>-1.7882896028459072113037109375</LongitudeDegrees>
            </Position>
            <AltitudeMeters>25.6000003814697265625</AltitudeMeters>
            <DistanceMeters>NAN</DistanceMeters>
          </Trackpoint>
          <Trackpoint>
            <Time>2022-07-08T15:14:54.000Z</Time>
            <Position>
              <LatitudeDegrees>43.34333360195159912109375</LatitudeDegrees>
              <LongitudeDegrees>-1.7884240485727787017822265625</LongitudeDegrees>
            </Position>
            <AltitudeMeters>25.6000003814697265625</AltitudeMeters>
            <DistanceMeters>NAN</DistanceMeters>
          </Trackpoint>
          <Trackpoint>
            <Time>2022-07-08T15:14:55.000Z</Time>
            <Position>
              <LatitudeDegrees>43.3433317579329013824462890625</LatitudeDegrees>
              <LongitudeDegrees>-1.7884636111557483673095703125</LongitudeDegrees>
            </Position>
            <AltitudeMeters>25.799999237060546875</AltitudeMeters>
            <DistanceMeters>NAN</DistanceMeters>
          </Trackpoint>
          <Trackpoint>
            <Time>2022-07-08T15:14:57.000Z</Time>
            <Position>
              <LatitudeDegrees>43.34330803714692592620849609375</LatitudeDegrees>
              <LongitudeDegrees>-1.78852806799113750457763671875</LongitudeDegrees>
            </Position>
            <AltitudeMeters>26</AltitudeMeters>
            <DistanceMeters>NAN</DistanceMeters>
          </Trackpoint>
          <Trackpoint>
            <Time>2022-07-08T15:14:58.000Z</Time>
            <Position>
              <LatitudeDegrees>43.34328272379934787750244140625</LatitudeDegrees>
              <LongitudeDegrees>-1.78855665028095245361328125</LongitudeDegrees>
            </Position>
            <AltitudeMeters>26</AltitudeMeters>
            <DistanceMeters>NAN</DistanceMeters>
          </Trackpoint>
          <Trackpoint>
            <Time>2022-07-08T15:15:03.000Z</Time>
            <Position>
              <LatitudeDegrees>43.34312078543007373809814453125</LatitudeDegrees>
              <LongitudeDegrees>-1.78863577544689178466796875</LongitudeDegrees>
            </Position>
            <AltitudeMeters>26.6000003814697265625</AltitudeMeters>
            <DistanceMeters>NAN</DistanceMeters>
          </Trackpoint>
          <Trackpoint>
            <Time>2022-07-08T15:15:04.000Z</Time>
            <Position>
              <LatitudeDegrees>43.3430873416364192962646484375</LatitudeDegrees>
              <LongitudeDegrees>-1.78864910267293453216552734375</LongitudeDegrees>
            </Position>
            <AltitudeMeters>26.6000003814697265625</AltitudeMeters>
            <DistanceMeters>NAN</DistanceMeters>
          </Trackpoint>
          <Trackpoint>
            <Time>2022-07-08T15:15:09.000Z</Time>
            <Position>
              <LatitudeDegrees>43.34294258616864681243896484375</LatitudeDegrees>
              <LongitudeDegrees>-1.7887536250054836273193359375</LongitudeDegrees>
            </Position>
            <AltitudeMeters>27</AltitudeMeters>
            <DistanceMeters>NAN</DistanceMeters>
          </Trackpoint>
          <Trackpoint>
            <Time>2022-07-08T15:15:13.000Z</Time>
            <Position>
              <LatitudeDegrees>43.34295339882373809814453125</LatitudeDegrees>
              <LongitudeDegrees>-1.788931153714656829833984375</LongitudeDegrees>
            </Position>
            <AltitudeMeters>27</AltitudeMeters>
            <DistanceMeters>NAN</DistanceMeters>
          </Trackpoint>
          <Trackpoint>
            <Time>2022-07-08T15:15:17.000Z</Time>
            <Position>
              <LatitudeDegrees>43.3429634571075439453125</LatitudeDegrees>
              <LongitudeDegrees>-1.78907305933535099029541015625</LongitudeDegrees>
            </Position>
            <AltitudeMeters>26.6000003814697265625</AltitudeMeters>
            <DistanceMeters>NAN</DistanceMeters>
          </Trackpoint>
          <Trackpoint>
            <Time>2022-07-08T15:15:20.000Z</Time>
            <Position>
              <LatitudeDegrees>43.342920206487178802490234375</LatitudeDegrees>
              <LongitudeDegrees>-1.78913357667624950408935546875</LongitudeDegrees>
            </Position>
            <AltitudeMeters>26.3999996185302734375</AltitudeMeters>
            <DistanceMeters>NAN</DistanceMeters>
          </Trackpoint>
          <Trackpoint>
            <Time>2022-07-08T15:15:22.000Z</Time>
            <Position>
              <LatitudeDegrees>43.3428637124598026275634765625</LatitudeDegrees>
              <LongitudeDegrees>-1.78917297162115573883056640625</LongitudeDegrees>
            </Position>
            <AltitudeMeters>26.3999996185302734375</AltitudeMeters>
            <DistanceMeters>NAN</DistanceMeters>
          </Trackpoint>
          <Trackpoint>
            <Time>2022-07-08T15:15:24.000Z</Time>
            <Position>
              <LatitudeDegrees>43.34279514849185943603515625</LatitudeDegrees>
              <LongitudeDegrees>-1.789213120937347412109375</LongitudeDegrees>
            </Position>
            <AltitudeMeters>26.3999996185302734375</AltitudeMeters>
            <DistanceMeters>NAN</DistanceMeters>
          </Trackpoint>
          <Trackpoint>
            <Time>2022-07-08T15:15:28.000Z</Time>
            <Position>
              <LatitudeDegrees>43.34265441633760929107666015625</LatitudeDegrees>
              <LongitudeDegrees>-1.78930456750094890594482421875</LongitudeDegrees>
            </Position>
            <AltitudeMeters>26.200000762939453125</AltitudeMeters>
            <DistanceMeters>NAN</DistanceMeters>
          </Trackpoint>
          <Trackpoint>
            <Time>2022-07-08T15:15:34.000Z</Time>
            <Position>
              <LatitudeDegrees>43.34241838194429874420166015625</LatitudeDegrees>
              <LongitudeDegrees>-1.7893822677433490753173828125</LongitudeDegrees>
            </Position>
            <AltitudeMeters>26.3999996185302734375</AltitudeMeters>
            <DistanceMeters>NAN</DistanceMeters>
          </Trackpoint>
          <Trackpoint>
            <Time>2022-07-08T15:15:40.000Z</Time>
            <Position>
              <LatitudeDegrees>43.3422260172665119171142578125</LatitudeDegrees>
              <LongitudeDegrees>-1.7894805036485195159912109375</LongitudeDegrees>
            </Position>
            <AltitudeMeters>26.6000003814697265625</AltitudeMeters>
            <DistanceMeters>NAN</DistanceMeters>
          </Trackpoint>
          <Trackpoint>
            <Time>2022-07-08T15:15:45.000Z</Time>
            <Position>
              <LatitudeDegrees>43.34210582077503204345703125</LatitudeDegrees>
              <LongitudeDegrees>-1.7895193956792354583740234375</LongitudeDegrees>
            </Position>
            <AltitudeMeters>26.6000003814697265625</AltitudeMeters>
            <DistanceMeters>NAN</DistanceMeters>
          </Trackpoint>
          <Trackpoint>
            <Time>2022-07-08T15:15:48.000Z</Time>
            <Position>
              <LatitudeDegrees>43.34205879829823970794677734375</LatitudeDegrees>
              <LongitudeDegrees>-1.789547391235828399658203125</LongitudeDegrees>
            </Position>
            <AltitudeMeters>26.6000003814697265625</AltitudeMeters>
            <DistanceMeters>NAN</DistanceMeters>
          </Trackpoint>
          <Trackpoint>
            <Time>2022-07-08T15:15:49.000Z</Time>
            <Position>
              <LatitudeDegrees>43.3420582115650177001953125</LatitudeDegrees>
              <LongitudeDegrees>-1.7895539291203022003173828125</LongitudeDegrees>
            </Position>
            <AltitudeMeters>26.6000003814697265625</AltitudeMeters>
            <DistanceMeters>NAN</DistanceMeters>
          </Trackpoint>
          <Trackpoint>
            <Time>2022-07-08T15:15:54.000Z</Time>
            <Position>
              <LatitudeDegrees>43.34205083549022674560546875</LatitudeDegrees>
              <LongitudeDegrees>-1.789564155042171478271484375</LongitudeDegrees>
            </Position>
            <AltitudeMeters>26.3999996185302734375</AltitudeMeters>
            <DistanceMeters>NAN</DistanceMeters>
          </Trackpoint>
          <Trackpoint>
            <Time>2022-07-08T15:16:00.000Z</Time>
            <Position>
              <LatitudeDegrees>43.3419950120151042938232421875</LatitudeDegrees>
              <LongitudeDegrees>-1.7896092496812343597412109375</LongitudeDegrees>
            </Position>
            <AltitudeMeters>26.6000003814697265625</AltitudeMeters>
            <DistanceMeters>NAN</DistanceMeters>
          </Trackpoint>
          <Trackpoint>
            <Time>2022-07-08T15:16:01.000Z</Time>
            <Position>
              <LatitudeDegrees>43.3419752307236194610595703125</LatitudeDegrees>
              <LongitudeDegrees>-1.78962307982146739959716796875</LongitudeDegrees>
            </Position>
            <AltitudeMeters>26.6000003814697265625</AltitudeMeters>
            <DistanceMeters>NAN</DistanceMeters>
          </Trackpoint>
          <Trackpoint>
            <Time>2022-07-08T15:16:02.000Z</Time>
            <Position>
              <LatitudeDegrees>43.34195402450859546661376953125</LatitudeDegrees>
              <LongitudeDegrees>-1.7896347306668758392333984375</LongitudeDegrees>
            </Position>
            <AltitudeMeters>26.6000003814697265625</AltitudeMeters>
            <DistanceMeters>NAN</DistanceMeters>
          </Trackpoint>
          <Trackpoint>
            <Time>2022-07-08T15:16:11.000Z</Time>
            <Position>
              <LatitudeDegrees>43.3417254500091075897216796875</LatitudeDegrees>
              <LongitudeDegrees>-1.7897349782288074493408203125</LongitudeDegrees>
            </Position>
            <AltitudeMeters>27</AltitudeMeters>
            <DistanceMeters>NAN</DistanceMeters>
          </Trackpoint>
          <Trackpoint>
            <Time>2022-07-08T15:16:14.000Z</Time>
            <Position>
              <LatitudeDegrees>43.3416466601192951202392578125</LatitudeDegrees>
              <LongitudeDegrees>-1.789780072867870330810546875</LongitudeDegrees>
            </Position>
            <AltitudeMeters>27</AltitudeMeters>
            <DistanceMeters>NAN</DistanceMeters>
          </Trackpoint>
          <Trackpoint>
            <Time>2022-07-08T15:16:15.000Z</Time>
            <Position>
              <LatitudeDegrees>43.34161941893398761749267578125</LatitudeDegrees>
              <LongitudeDegrees>-1.78979138843715190887451171875</LongitudeDegrees>
            </Position>
            <AltitudeMeters>27.200000762939453125</AltitudeMeters>
            <DistanceMeters>NAN</DistanceMeters>
          </Trackpoint>
          <Trackpoint>
            <Time>2022-07-08T15:16:17.000Z</Time>
            <Position>
              <LatitudeDegrees>43.3415645174682140350341796875</LatitudeDegrees>
              <LongitudeDegrees>-1.78980664350092411041259765625</LongitudeDegrees>
            </Position>
            <AltitudeMeters>27.200000762939453125</AltitudeMeters>
            <DistanceMeters>NAN</DistanceMeters>
          </Trackpoint>
          <Trackpoint>
            <Time>2022-07-08T15:16:18.000Z</Time>
            <Position>
              <LatitudeDegrees>43.3415370248258113861083984375</LatitudeDegrees>
              <LongitudeDegrees>-1.78981888107955455780029296875</LongitudeDegrees>
            </Position>
            <AltitudeMeters>27.200000762939453125</AltitudeMeters>
            <DistanceMeters>NAN</DistanceMeters>
          </Trackpoint>
          <Trackpoint>
            <Time>2022-07-08T15:16:21.000Z</Time>
            <Position>
              <LatitudeDegrees>43.34146636538207530975341796875</LatitudeDegrees>
              <LongitudeDegrees>-1.78984637372195720672607421875</LongitudeDegrees>
            </Position>
            <AltitudeMeters>27.3999996185302734375</AltitudeMeters>
            <DistanceMeters>NAN</DistanceMeters>
          </Trackpoint>
          <Trackpoint>
            <Time>2022-07-08T15:16:25.000Z</Time>
            <Position>
              <LatitudeDegrees>43.34138103760778903961181640625</LatitudeDegrees>
              <LongitudeDegrees>-1.7898798175156116485595703125</LongitudeDegrees>
            </Position>
            <AltitudeMeters>27.6000003814697265625</AltitudeMeters>
            <DistanceMeters>NAN</DistanceMeters>
          </Trackpoint>
          <Trackpoint>
            <Time>2022-07-08T15:16:29.000Z</Time>
            <Position>
              <LatitudeDegrees>43.34127970039844512939453125</LatitudeDegrees>
              <LongitudeDegrees>-1.78991309367120265960693359375</LongitudeDegrees>
            </Position>
            <AltitudeMeters>27.799999237060546875</AltitudeMeters>
            <DistanceMeters>NAN</DistanceMeters>
          </Trackpoint>
          <Trackpoint>
            <Time>2022-07-08T15:16:36.000Z</Time>
            <Position>
              <LatitudeDegrees>43.34113025106489658355712890625</LatitudeDegrees>
              <LongitudeDegrees>-1.78998501040041446685791015625</LongitudeDegrees>
            </Position>
            <AltitudeMeters>28.3999996185302734375</AltitudeMeters>
            <DistanceMeters>NAN</DistanceMeters>
          </Trackpoint>
          <Trackpoint>
            <Time>2022-07-08T15:16:38.000Z</Time>
            <Position>
              <LatitudeDegrees>43.34108817391097545623779296875</LatitudeDegrees>
              <LongitudeDegrees>-1.79001552052795886993408203125</LongitudeDegrees>
            </Position>
            <AltitudeMeters>28.6000003814697265625</AltitudeMeters>
            <DistanceMeters>NAN</DistanceMeters>
          </Trackpoint>
          <Trackpoint>
            <Time>2022-07-08T15:16:41.000Z</Time>
            <Position>
              <LatitudeDegrees>43.341024555265903472900390625</LatitudeDegrees>
              <LongitudeDegrees>-1.79004921577870845794677734375</LongitudeDegrees>
            </Position>
            <AltitudeMeters>28.799999237060546875</AltitudeMeters>
            <DistanceMeters>NAN</DistanceMeters>
          </Trackpoint>
          <Trackpoint>
            <Time>2022-07-08T15:16:49.000Z</Time>
            <Position>
              <LatitudeDegrees>43.34085633046925067901611328125</LatitudeDegrees>
              <LongitudeDegrees>-1.79012146778404712677001953125</LongitudeDegrees>
            </Position>
            <AltitudeMeters>29.6000003814697265625</AltitudeMeters>
            <DistanceMeters>NAN</DistanceMeters>
          </Trackpoint>
          <Trackpoint>
            <Time>2022-07-08T15:16:50.000Z</Time>
            <Position>
              <LatitudeDegrees>43.3408396504819393157958984375</LatitudeDegrees>
              <LongitudeDegrees>-1.790135465562343597412109375</LongitudeDegrees>
            </Position>
            <AltitudeMeters>29.6000003814697265625</AltitudeMeters>
            <DistanceMeters>NAN</DistanceMeters>
          </Trackpoint>
          <Trackpoint>
            <Time>2022-07-08T15:16:53.000Z</Time>
            <Position>
              <LatitudeDegrees>43.340786509215831756591796875</LatitudeDegrees>
              <LongitudeDegrees>-1.79016522131860256195068359375</LongitudeDegrees>
            </Position>
            <AltitudeMeters>30</AltitudeMeters>
            <DistanceMeters>NAN</DistanceMeters>
          </Trackpoint>
          <Trackpoint>
            <Time>2022-07-08T15:16:58.000Z</Time>
            <Position>
              <LatitudeDegrees>43.3406914584338665008544921875</LatitudeDegrees>
              <LongitudeDegrees>-1.7902202904224395751953125</LongitudeDegrees>
            </Position>
            <AltitudeMeters>30.6000003814697265625</AltitudeMeters>
            <DistanceMeters>NAN</DistanceMeters>
          </Trackpoint>
          <Trackpoint>
            <Time>2022-07-08T15:16:59.000Z</Time>
            <Position>
              <LatitudeDegrees>43.34066773764789104461669921875</LatitudeDegrees>
              <LongitudeDegrees>-1.79022909142076969146728515625</LongitudeDegrees>
            </Position>
            <AltitudeMeters>30.799999237060546875</AltitudeMeters>
            <DistanceMeters>NAN</DistanceMeters>
          </Trackpoint>
          <Trackpoint>
            <Time>2022-07-08T15:17:06.000Z</Time>
            <Position>
              <LatitudeDegrees>43.34052775986492633819580078125</LatitudeDegrees>
              <LongitudeDegrees>-1.7903007566928863525390625</LongitudeDegrees>
            </Position>
            <AltitudeMeters>31.799999237060546875</AltitudeMeters>
            <DistanceMeters>NAN</DistanceMeters>
          </Trackpoint>
          <Trackpoint>
            <Time>2022-07-08T15:17:09.000Z</Time>
            <Position>
              <LatitudeDegrees>43.3404624648392200469970703125</LatitudeDegrees>
              <LongitudeDegrees>-1.7903331108391284942626953125</LongitudeDegrees>
            </Position>
            <AltitudeMeters>32</AltitudeMeters>
            <DistanceMeters>NAN</DistanceMeters>
          </Trackpoint>
          <Trackpoint>
            <Time>2022-07-08T15:17:15.000Z</Time>
            <Position>
              <LatitudeDegrees>43.34033899940550327301025390625</LatitudeDegrees>
              <LongitudeDegrees>-1.7903689853847026824951171875</LongitudeDegrees>
            </Position>
            <AltitudeMeters>32.59999847412109375</AltitudeMeters>
            <DistanceMeters>NAN</DistanceMeters>
          </Trackpoint>
          <Trackpoint>
            <Time>2022-07-08T15:17:19.000Z</Time>
            <Position>
              <LatitudeDegrees>43.34028284065425395965576171875</LatitudeDegrees>
              <LongitudeDegrees>-1.79038432426750659942626953125</LongitudeDegrees>
            </Position>
            <AltitudeMeters>33</AltitudeMeters>
            <DistanceMeters>NAN</DistanceMeters>
          </Trackpoint>
          <Trackpoint>
            <Time>2022-07-08T15:17:21.000Z</Time>
            <Position>
              <LatitudeDegrees>43.34024906158447265625</LatitudeDegrees>
              <LongitudeDegrees>-1.79039874114096164703369140625</LongitudeDegrees>
            </Position>
            <AltitudeMeters>33</AltitudeMeters>
            <DistanceMeters>NAN</DistanceMeters>
          </Trackpoint>
          <Trackpoint>
            <Time>2022-07-08T15:17:23.000Z</Time>
            <Position>
              <LatitudeDegrees>43.34023355506360530853271484375</LatitudeDegrees>
              <LongitudeDegrees>-1.79041366092860698699951171875</LongitudeDegrees>
            </Position>
            <AltitudeMeters>33.40000152587890625</AltitudeMeters>
            <DistanceMeters>NAN</DistanceMeters>
          </Trackpoint>
          <Trackpoint>
            <Time>2022-07-08T15:17:25.000Z</Time>
            <Position>
              <LatitudeDegrees>43.3402106724679470062255859375</LatitudeDegrees>
              <LongitudeDegrees>-1.7904296703636646270751953125</LongitudeDegrees>
            </Position>
            <AltitudeMeters>33.59999847412109375</AltitudeMeters>
            <DistanceMeters>NAN</DistanceMeters>
          </Trackpoint>
          <Trackpoint>
            <Time>2022-07-08T15:17:26.000Z</Time>
            <Position>
              <LatitudeDegrees>43.34020120091736316680908203125</LatitudeDegrees>
              <LongitudeDegrees>-1.79044249467551708221435546875</LongitudeDegrees>
            </Position>
            <AltitudeMeters>33.799999237060546875</AltitudeMeters>
            <DistanceMeters>NAN</DistanceMeters>
          </Trackpoint>
          <Trackpoint>
            <Time>2022-07-08T15:17:28.000Z</Time>
            <Position>
              <LatitudeDegrees>43.34020203910768032073974609375</LatitudeDegrees>
              <LongitudeDegrees>-1.79046127013862133026123046875</LongitudeDegrees>
            </Position>
            <AltitudeMeters>34</AltitudeMeters>
            <DistanceMeters>NAN</DistanceMeters>
          </Trackpoint>
          <Trackpoint>
            <Time>2022-07-08T15:17:29.000Z</Time>
            <Position>
              <LatitudeDegrees>43.3401986025273799896240234375</LatitudeDegrees>
              <LongitudeDegrees>-1.790460683405399322509765625</LongitudeDegrees>
            </Position>
            <AltitudeMeters>34</AltitudeMeters>
            <DistanceMeters>NAN</DistanceMeters>
          </Trackpoint>
          <Trackpoint>
            <Time>2022-07-08T15:17:31.000Z</Time>
            <Position>
              <LatitudeDegrees>43.3401726186275482177734375</LatitudeDegrees>
              <LongitudeDegrees>-1.79047266952693462371826171875</LongitudeDegrees>
            </Position>
            <AltitudeMeters>34</AltitudeMeters>
            <DistanceMeters>NAN</DistanceMeters>
          </Trackpoint>
          <Trackpoint>
            <Time>2022-07-08T15:17:34.000Z</Time>
            <Position>
              <LatitudeDegrees>43.3401141129434108734130859375</LatitudeDegrees>
              <LongitudeDegrees>-1.79050351493060588836669921875</LongitudeDegrees>
            </Position>
            <AltitudeMeters>34.200000762939453125</AltitudeMeters>
            <DistanceMeters>NAN</DistanceMeters>
          </Trackpoint>
          <Trackpoint>
            <Time>2022-07-08T15:17:40.000Z</Time>
            <Position>
              <LatitudeDegrees>43.34000892005860805511474609375</LatitudeDegrees>
              <LongitudeDegrees>-1.7905637808144092559814453125</LongitudeDegrees>
            </Position>
            <AltitudeMeters>34.799999237060546875</AltitudeMeters>
            <DistanceMeters>NAN</DistanceMeters>
          </Trackpoint>
          <Trackpoint>
            <Time>2022-07-08T15:17:41.000Z</Time>
            <Position>
              <LatitudeDegrees>43.33999215625226497650146484375</LatitudeDegrees>
              <LongitudeDegrees>-1.7905716598033905029296875</LongitudeDegrees>
            </Position>
            <AltitudeMeters>35.200000762939453125</AltitudeMeters>
            <DistanceMeters>NAN</DistanceMeters>
          </Trackpoint>
          <Trackpoint>
            <Time>2022-07-08T15:17:42.000Z</Time>
            <Position>
              <LatitudeDegrees>43.339973799884319305419921875</LatitudeDegrees>
              <LongitudeDegrees>-1.790583394467830657958984375</LongitudeDegrees>
            </Position>
            <AltitudeMeters>35.40000152587890625</AltitudeMeters>
            <DistanceMeters>NAN</DistanceMeters>
          </Trackpoint>
          <Trackpoint>
            <Time>2022-07-08T15:17:44.000Z</Time>
            <Position>
              <LatitudeDegrees>43.33994035609066486358642578125</LatitudeDegrees>
              <LongitudeDegrees>-1.79061013273894786834716796875</LongitudeDegrees>
            </Position>
            <AltitudeMeters>35.799999237060546875</AltitudeMeters>
            <DistanceMeters>NAN</DistanceMeters>
          </Trackpoint>
          <Trackpoint>
            <Time>2022-07-08T15:17:45.000Z</Time>
            <Position>
              <LatitudeDegrees>43.33992384374141693115234375</LatitudeDegrees>
              <LongitudeDegrees>-1.7906221188604831695556640625</LongitudeDegrees>
            </Position>
            <AltitudeMeters>36</AltitudeMeters>
            <DistanceMeters>NAN</DistanceMeters>
          </Trackpoint>
          <Trackpoint>
            <Time>2022-07-08T15:17:47.000Z</Time>
            <Position>
              <LatitudeDegrees>43.33988939411938190460205078125</LatitudeDegrees>
              <LongitudeDegrees>-1.790645085275173187255859375</LongitudeDegrees>
            </Position>
            <AltitudeMeters>36.200000762939453125</AltitudeMeters>
            <DistanceMeters>NAN</DistanceMeters>
          </Trackpoint>
          <Trackpoint>
            <Time>2022-07-08T15:17:48.000Z</Time>
            <Position>
              <LatitudeDegrees>43.339869864284992218017578125</LatitudeDegrees>
              <LongitudeDegrees>-1.79065304808318614959716796875</LongitudeDegrees>
            </Position>
            <AltitudeMeters>36.40000152587890625</AltitudeMeters>
            <DistanceMeters>NAN</DistanceMeters>
          </Trackpoint>
          <Trackpoint>
            <Time>2022-07-08T15:17:50.000Z</Time>
            <Position>
              <LatitudeDegrees>43.33983759395778179168701171875</LatitudeDegrees>
              <LongitudeDegrees>-1.79065992124378681182861328125</LongitudeDegrees>
            </Position>
            <AltitudeMeters>36.59999847412109375</AltitudeMeters>
            <DistanceMeters>NAN</DistanceMeters>
          </Trackpoint>
          <Trackpoint>
            <Time>2022-07-08T15:17:52.000Z</Time>
            <Position>
              <LatitudeDegrees>43.3398123644292354583740234375</LatitudeDegrees>
              <LongitudeDegrees>-1.79067366756498813629150390625</LongitudeDegrees>
            </Position>
            <AltitudeMeters>37</AltitudeMeters>
            <DistanceMeters>NAN</DistanceMeters>
          </Trackpoint>
          <Trackpoint>
            <Time>2022-07-08T15:17:54.000Z</Time>
            <Position>
              <LatitudeDegrees>43.33978830836713314056396484375</LatitudeDegrees>
              <LongitudeDegrees>-1.790698729455471038818359375</LongitudeDegrees>
            </Position>
            <AltitudeMeters>37.200000762939453125</AltitudeMeters>
            <DistanceMeters>NAN</DistanceMeters>
          </Trackpoint>
          <Trackpoint>
            <Time>2022-07-08T15:17:55.000Z</Time>
            <Position>
              <LatitudeDegrees>43.33977590315043926239013671875</LatitudeDegrees>
              <LongitudeDegrees>-1.7907079495489597320556640625</LongitudeDegrees>
            </Position>
            <AltitudeMeters>37.200000762939453125</AltitudeMeters>
            <DistanceMeters>NAN</DistanceMeters>
          </Trackpoint>
          <Trackpoint>
            <Time>2022-07-08T15:17:56.000Z</Time>
            <Position>
              <LatitudeDegrees>43.33976827561855316162109375</LatitudeDegrees>
              <LongitudeDegrees>-1.790712811052799224853515625</LongitudeDegrees>
            </Position>
            <AltitudeMeters>37.40000152587890625</AltitudeMeters>
            <DistanceMeters>NAN</DistanceMeters>
          </Trackpoint>
          <Trackpoint>
            <Time>2022-07-08T15:17:57.000Z</Time>
            <Position>
              <LatitudeDegrees>43.3397654257714748382568359375</LatitudeDegrees>
              <LongitudeDegrees>-1.790714152157306671142578125</LongitudeDegrees>
            </Position>
            <AltitudeMeters>37.40000152587890625</AltitudeMeters>
            <DistanceMeters>NAN</DistanceMeters>
          </Trackpoint>
          <Trackpoint>
            <Time>2022-07-08T15:17:59.000Z</Time>
            <Position>
              <LatitudeDegrees>43.33976500667631626129150390625</LatitudeDegrees>
              <LongitudeDegrees>-1.7907089553773403167724609375</LongitudeDegrees>
            </Position>
            <AltitudeMeters>37.59999847412109375</AltitudeMeters>
            <DistanceMeters>NAN</DistanceMeters>
          </Trackpoint>
          <Trackpoint>
            <Time>2022-07-08T15:18:04.000Z</Time>
            <Position>
              <LatitudeDegrees>43.33970968611538410186767578125</LatitudeDegrees>
              <LongitudeDegrees>-1.790795288980007171630859375</LongitudeDegrees>
            </Position>
            <AltitudeMeters>38</AltitudeMeters>
            <DistanceMeters>NAN</DistanceMeters>
          </Trackpoint>
          <Trackpoint>
            <Time>2022-07-08T15:18:05.000Z</Time>
            <Position>
              <LatitudeDegrees>43.33970465697348117828369140625</LatitudeDegrees>
              <LongitudeDegrees>-1.79081615991890430450439453125</LongitudeDegrees>
            </Position>
            <AltitudeMeters>38.200000762939453125</AltitudeMeters>
            <DistanceMeters>NAN</DistanceMeters>
          </Trackpoint>
          <Trackpoint>
            <Time>2022-07-08T15:18:08.000Z</Time>
            <Position>
              <LatitudeDegrees>43.33971999585628509521484375</LatitudeDegrees>
              <LongitudeDegrees>-1.7908881604671478271484375</LongitudeDegrees>
            </Position>
            <AltitudeMeters>38.40000152587890625</AltitudeMeters>
            <DistanceMeters>NAN</DistanceMeters>
          </Trackpoint>
          <Trackpoint>
            <Time>2022-07-08T15:18:09.000Z</Time>
            <Position>
              <LatitudeDegrees>43.3397215045988559722900390625</LatitudeDegrees>
              <LongitudeDegrees>-1.79091808386147022247314453125</LongitudeDegrees>
            </Position>
            <AltitudeMeters>38.40000152587890625</AltitudeMeters>
            <DistanceMeters>NAN</DistanceMeters>
          </Trackpoint>
          <Trackpoint>
            <Time>2022-07-08T15:18:15.000Z</Time>
            <Position>
              <LatitudeDegrees>43.33974019624292850494384765625</LatitudeDegrees>
              <LongitudeDegrees>-1.79112679325044155120849609375</LongitudeDegrees>
            </Position>
            <AltitudeMeters>38.59999847412109375</AltitudeMeters>
            <DistanceMeters>NAN</DistanceMeters>
          </Trackpoint>
          <Trackpoint>
            <Time>2022-07-08T15:18:17.000Z</Time>
            <Position>
              <LatitudeDegrees>43.3397308923304080963134765625</LatitudeDegrees>
              <LongitudeDegrees>-1.7912105284631252288818359375</LongitudeDegrees>
            </Position>
            <AltitudeMeters>38.59999847412109375</AltitudeMeters>
            <DistanceMeters>NAN</DistanceMeters>
          </Trackpoint>
          <Trackpoint>
            <Time>2022-07-08T15:18:20.000Z</Time>
            <Position>
              <LatitudeDegrees>43.3397443033754825592041015625</LatitudeDegrees>
              <LongitudeDegrees>-1.79131655953824520111083984375</LongitudeDegrees>
            </Position>
            <AltitudeMeters>38.59999847412109375</AltitudeMeters>
            <DistanceMeters>NAN</DistanceMeters>
          </Trackpoint>
          <Trackpoint>
            <Time>2022-07-08T15:18:23.000Z</Time>
            <Position>
              <LatitudeDegrees>43.33975276909768581390380859375</LatitudeDegrees>
              <LongitudeDegrees>-1.79141865111887454986572265625</LongitudeDegrees>
            </Position>
            <AltitudeMeters>39.59999847412109375</AltitudeMeters>
            <DistanceMeters>NAN</DistanceMeters>
          </Trackpoint>
          <Trackpoint>
            <Time>2022-07-08T15:18:28.000Z</Time>
            <Position>
              <LatitudeDegrees>43.33979048766195774078369140625</LatitudeDegrees>
              <LongitudeDegrees>-1.79163850843906402587890625</LongitudeDegrees>
            </Position>
            <AltitudeMeters>39.200000762939453125</AltitudeMeters>
            <DistanceMeters>NAN</DistanceMeters>
          </Trackpoint>
          <Trackpoint>
            <Time>2022-07-08T15:18:32.000Z</Time>
            <Position>
              <LatitudeDegrees>43.33982937969267368316650390625</LatitudeDegrees>
              <LongitudeDegrees>-1.791801787912845611572265625</LongitudeDegrees>
            </Position>
            <AltitudeMeters>39.40000152587890625</AltitudeMeters>
            <DistanceMeters>NAN</DistanceMeters>
          </Trackpoint>
          <Trackpoint>
            <Time>2022-07-08T15:18:33.000Z</Time>
            <Position>
              <LatitudeDegrees>43.33984312601387500762939453125</LatitudeDegrees>
              <LongitudeDegrees>-1.791853420436382293701171875</LongitudeDegrees>
            </Position>
            <AltitudeMeters>39.59999847412109375</AltitudeMeters>
            <DistanceMeters>NAN</DistanceMeters>
          </Trackpoint>
          <Trackpoint>
            <Time>2022-07-08T15:18:36.000Z</Time>
            <Position>
              <LatitudeDegrees>43.3398867957293987274169921875</LatitudeDegrees>
              <LongitudeDegrees>-1.79201879538595676422119140625</LongitudeDegrees>
            </Position>
            <AltitudeMeters>39.799999237060546875</AltitudeMeters>
            <DistanceMeters>NAN</DistanceMeters>
          </Trackpoint>
          <Trackpoint>
            <Time>2022-07-08T15:18:37.000Z</Time>
            <Position>
              <LatitudeDegrees>43.3399062417447566986083984375</LatitudeDegrees>
              <LongitudeDegrees>-1.79207780398428440093994140625</LongitudeDegrees>
            </Position>
            <AltitudeMeters>39.799999237060546875</AltitudeMeters>
            <DistanceMeters>NAN</DistanceMeters>
          </Trackpoint>
          <Trackpoint>
            <Time>2022-07-08T15:18:39.000Z</Time>
            <Position>
              <LatitudeDegrees>43.33994270302355289459228515625</LatitudeDegrees>
              <LongitudeDegrees>-1.79219213314354419708251953125</LongitudeDegrees>
            </Position>
            <AltitudeMeters>39.799999237060546875</AltitudeMeters>
            <DistanceMeters>NAN</DistanceMeters>
          </Trackpoint>
          <Trackpoint>
            <Time>2022-07-08T15:18:46.000Z</Time>
            <Position>
              <LatitudeDegrees>43.340024091303348541259765625</LatitudeDegrees>
              <LongitudeDegrees>-1.7925566621124744415283203125</LongitudeDegrees>
            </Position>
            <AltitudeMeters>39.59999847412109375</AltitudeMeters>
            <DistanceMeters>NAN</DistanceMeters>
          </Trackpoint>
          <Trackpoint>
            <Time>2022-07-08T15:18:55.000Z</Time>
            <Position>
              <LatitudeDegrees>43.34010983817279338836669921875</LatitudeDegrees>
              <LongitudeDegrees>-1.79299394600093364715576171875</LongitudeDegrees>
            </Position>
            <AltitudeMeters>39.40000152587890625</AltitudeMeters>
            <DistanceMeters>NAN</DistanceMeters>
          </Trackpoint>
          <Trackpoint>
            <Time>2022-07-08T15:19:00.000Z</Time>
            <Position>
              <LatitudeDegrees>43.3401618897914886474609375</LatitudeDegrees>
              <LongitudeDegrees>-1.79314012639224529266357421875</LongitudeDegrees>
            </Position>
            <AltitudeMeters>39.59999847412109375</AltitudeMeters>
            <DistanceMeters>NAN</DistanceMeters>
          </Trackpoint>
          <Trackpoint>
            <Time>2022-07-08T15:19:04.000Z</Time>
            <Position>
              <LatitudeDegrees>43.34018209017813205718994140625</LatitudeDegrees>
              <LongitudeDegrees>-1.79316200315952301025390625</LongitudeDegrees>
            </Position>
            <AltitudeMeters>39.59999847412109375</AltitudeMeters>
            <DistanceMeters>NAN</DistanceMeters>
          </Trackpoint>
          <Trackpoint>
            <Time>2022-07-08T15:19:05.000Z</Time>
            <Position>
              <LatitudeDegrees>43.34018946625292301177978515625</LatitudeDegrees>
              <LongitudeDegrees>-1.79316292516887187957763671875</LongitudeDegrees>
            </Position>
            <AltitudeMeters>39.59999847412109375</AltitudeMeters>
            <DistanceMeters>NAN</DistanceMeters>
          </Trackpoint>
          <Trackpoint>
            <Time>2022-07-08T15:19:10.000Z</Time>
            <Position>
              <LatitudeDegrees>43.34023472853004932403564453125</LatitudeDegrees>
              <LongitudeDegrees>-1.79316342808306217193603515625</LongitudeDegrees>
            </Position>
            <AltitudeMeters>39.59999847412109375</AltitudeMeters>
            <DistanceMeters>NAN</DistanceMeters>
          </Trackpoint>
          <Trackpoint>
            <Time>2022-07-08T15:19:11.000Z</Time>
            <Position>
              <LatitudeDegrees>43.3402388356626033782958984375</LatitudeDegrees>
              <LongitudeDegrees>-1.7931618355214595794677734375</LongitudeDegrees>
            </Position>
            <AltitudeMeters>39.59999847412109375</AltitudeMeters>
            <DistanceMeters>NAN</DistanceMeters>
          </Trackpoint>
          <Trackpoint>
            <Time>2022-07-08T15:19:14.000Z</Time>
            <Position>
              <LatitudeDegrees>43.3402388356626033782958984375</LatitudeDegrees>
              <LongitudeDegrees>-1.7931618355214595794677734375</LongitudeDegrees>
            </Position>
            <AltitudeMeters>39.59999847412109375</AltitudeMeters>
            <DistanceMeters>NAN</DistanceMeters>
          </Trackpoint>
          <Trackpoint>
            <Time>2022-07-08T15:20:27.000Z</Time>
            <Position>
              <LatitudeDegrees>43.34024704992771148681640625</LatitudeDegrees>
              <LongitudeDegrees>-1.7932386137545108795166015625</LongitudeDegrees>
            </Position>
            <AltitudeMeters>39.40000152587890625</AltitudeMeters>
            <DistanceMeters>NAN</DistanceMeters>
          </Trackpoint>
          <Trackpoint>
            <Time>2022-07-08T15:20:28.000Z</Time>
            <Position>
              <LatitudeDegrees>43.3402472175657749176025390625</LatitudeDegrees>
              <LongitudeDegrees>-1.79328043945133686065673828125</LongitudeDegrees>
            </Position>
            <AltitudeMeters>39.40000152587890625</AltitudeMeters>
            <DistanceMeters>NAN</DistanceMeters>
          </Trackpoint>
          <Trackpoint>
            <Time>2022-07-08T15:20:34.000Z</Time>
            <Position>
              <LatitudeDegrees>43.34027588367462158203125</LatitudeDegrees>
              <LongitudeDegrees>-1.79353323765099048614501953125</LongitudeDegrees>
            </Position>
            <AltitudeMeters>40</AltitudeMeters>
            <DistanceMeters>NAN</DistanceMeters>
          </Trackpoint>
          <Trackpoint>
            <Time>2022-07-08T15:20:37.000Z</Time>
            <Position>
              <LatitudeDegrees>43.340292312204837799072265625</LatitudeDegrees>
              <LongitudeDegrees>-1.79367472417652606964111328125</LongitudeDegrees>
            </Position>
            <AltitudeMeters>40</AltitudeMeters>
            <DistanceMeters>NAN</DistanceMeters>
          </Trackpoint>
          <Trackpoint>
            <Time>2022-07-08T15:20:40.000Z</Time>
            <Position>
              <LatitudeDegrees>43.34031184203922748565673828125</LatitudeDegrees>
              <LongitudeDegrees>-1.7938176356256008148193359375</LongitudeDegrees>
            </Position>
            <AltitudeMeters>40</AltitudeMeters>
            <DistanceMeters>NAN</DistanceMeters>
          </Trackpoint>
          <Trackpoint>
            <Time>2022-07-08T15:20:45.000Z</Time>
            <Position>
              <LatitudeDegrees>43.34033958613872528076171875</LatitudeDegrees>
              <LongitudeDegrees>-1.79398619569838047027587890625</LongitudeDegrees>
            </Position>
            <AltitudeMeters>39.59999847412109375</AltitudeMeters>
            <DistanceMeters>NAN</DistanceMeters>
          </Trackpoint>
          <Trackpoint>
            <Time>2022-07-08T15:20:51.000Z</Time>
            <Position>
              <LatitudeDegrees>43.34038057364523410797119140625</LatitudeDegrees>
              <LongitudeDegrees>-1.79419037885963916778564453125</LongitudeDegrees>
            </Position>
            <AltitudeMeters>39.59999847412109375</AltitudeMeters>
            <DistanceMeters>NAN</DistanceMeters>
          </Trackpoint>
          <Trackpoint>
            <Time>2022-07-08T15:20:55.000Z</Time>
            <Position>
              <LatitudeDegrees>43.3403933979570865631103515625</LatitudeDegrees>
              <LongitudeDegrees>-1.7943017743527889251708984375</LongitudeDegrees>
            </Position>
            <AltitudeMeters>39.799999237060546875</AltitudeMeters>
            <DistanceMeters>NAN</DistanceMeters>
          </Trackpoint>
          <Trackpoint>
            <Time>2022-07-08T15:21:02.000Z</Time>
            <Position>
              <LatitudeDegrees>43.34043405018746852874755859375</LatitudeDegrees>
              <LongitudeDegrees>-1.794545352458953857421875</LongitudeDegrees>
            </Position>
            <AltitudeMeters>39.799999237060546875</AltitudeMeters>
            <DistanceMeters>NAN</DistanceMeters>
          </Trackpoint>
          <Trackpoint>
            <Time>2022-07-08T15:21:09.000Z</Time>
            <Position>
              <LatitudeDegrees>43.3404453657567501068115234375</LatitudeDegrees>
              <LongitudeDegrees>-1.79478599689900875091552734375</LongitudeDegrees>
            </Position>
            <AltitudeMeters>39.59999847412109375</AltitudeMeters>
            <DistanceMeters>NAN</DistanceMeters>
          </Trackpoint>
          <Trackpoint>
            <Time>2022-07-08T15:21:15.000Z</Time>
            <Position>
              <LatitudeDegrees>43.34048668853938579559326171875</LatitudeDegrees>
              <LongitudeDegrees>-1.79498012177646160125732421875</LongitudeDegrees>
            </Position>
            <AltitudeMeters>39.40000152587890625</AltitudeMeters>
            <DistanceMeters>NAN</DistanceMeters>
          </Trackpoint>
          <Trackpoint>
            <Time>2022-07-08T15:21:19.000Z</Time>
            <Position>
              <LatitudeDegrees>43.34054100327193737030029296875</LatitudeDegrees>
              <LongitudeDegrees>-1.79513300769031047821044921875</LongitudeDegrees>
            </Position>
            <AltitudeMeters>39.59999847412109375</AltitudeMeters>
            <DistanceMeters>NAN</DistanceMeters>
          </Trackpoint>
          <Trackpoint>
            <Time>2022-07-08T15:21:25.000Z</Time>
            <Position>
              <LatitudeDegrees>43.34060520865023136138916015625</LatitudeDegrees>
              <LongitudeDegrees>-1.79540893994271755218505859375</LongitudeDegrees>
            </Position>
            <AltitudeMeters>39.799999237060546875</AltitudeMeters>
            <DistanceMeters>NAN</DistanceMeters>
          </Trackpoint>
          <Trackpoint>
            <Time>2022-07-08T15:21:32.000Z</Time>
            <Position>
              <LatitudeDegrees>43.3406599424779415130615234375</LatitudeDegrees>
              <LongitudeDegrees>-1.795742623507976531982421875</LongitudeDegrees>
            </Position>
            <AltitudeMeters>39.59999847412109375</AltitudeMeters>
            <DistanceMeters>NAN</DistanceMeters>
          </Trackpoint>
          <Trackpoint>
            <Time>2022-07-08T15:21:38.000Z</Time>
            <Position>
              <LatitudeDegrees>43.3407330326735973358154296875</LatitudeDegrees>
              <LongitudeDegrees>-1.7960180528461933135986328125</LongitudeDegrees>
            </Position>
            <AltitudeMeters>40</AltitudeMeters>
            <DistanceMeters>NAN</DistanceMeters>
          </Trackpoint>
          <Trackpoint>
            <Time>2022-07-08T15:21:45.000Z</Time>
            <Position>
              <LatitudeDegrees>43.34074837155640125274658203125</LatitudeDegrees>
              <LongitudeDegrees>-1.79631133563816547393798828125</LongitudeDegrees>
            </Position>
            <AltitudeMeters>39.799999237060546875</AltitudeMeters>
            <DistanceMeters>NAN</DistanceMeters>
          </Trackpoint>
          <Trackpoint>
            <Time>2022-07-08T15:21:49.000Z</Time>
            <Position>
              <LatitudeDegrees>43.340744934976100921630859375</LatitudeDegrees>
              <LongitudeDegrees>-1.79642650298774242401123046875</LongitudeDegrees>
            </Position>
            <AltitudeMeters>40</AltitudeMeters>
            <DistanceMeters>NAN</DistanceMeters>
          </Trackpoint>
          <Trackpoint>
            <Time>2022-07-08T15:21:50.000Z</Time>
            <Position>
              <LatitudeDegrees>43.34075340069830417633056640625</LatitudeDegrees>
              <LongitudeDegrees>-1.7964492179453372955322265625</LongitudeDegrees>
            </Position>
            <AltitudeMeters>40.200000762939453125</AltitudeMeters>
            <DistanceMeters>NAN</DistanceMeters>
          </Trackpoint>
          <Trackpoint>
            <Time>2022-07-08T15:21:56.000Z</Time>
            <Position>
              <LatitudeDegrees>43.34080486558377742767333984375</LatitudeDegrees>
              <LongitudeDegrees>-1.79656446911394596099853515625</LongitudeDegrees>
            </Position>
            <AltitudeMeters>40.40000152587890625</AltitudeMeters>
            <DistanceMeters>NAN</DistanceMeters>
          </Trackpoint>
          <Trackpoint>
            <Time>2022-07-08T15:21:59.000Z</Time>
            <Position>
              <LatitudeDegrees>43.3408252336084842681884765625</LatitudeDegrees>
              <LongitudeDegrees>-1.796606965363025665283203125</LongitudeDegrees>
            </Position>
            <AltitudeMeters>40.40000152587890625</AltitudeMeters>
            <DistanceMeters>NAN</DistanceMeters>
          </Trackpoint>
          <Trackpoint>
            <Time>2022-07-08T15:22:00.000Z</Time>
            <Position>
              <LatitudeDegrees>43.34083755500614643096923828125</LatitudeDegrees>
              <LongitudeDegrees>-1.796621046960353851318359375</LongitudeDegrees>
            </Position>
            <AltitudeMeters>40.40000152587890625</AltitudeMeters>
            <DistanceMeters>NAN</DistanceMeters>
          </Trackpoint>
          <Trackpoint>
            <Time>2022-07-08T15:22:01.000Z</Time>
            <Position>
              <LatitudeDegrees>43.34084141068160533905029296875</LatitudeDegrees>
              <LongitudeDegrees>-1.79663068614900112152099609375</LongitudeDegrees>
            </Position>
            <AltitudeMeters>40.40000152587890625</AltitudeMeters>
            <DistanceMeters>NAN</DistanceMeters>
          </Trackpoint>
          <Trackpoint>
            <Time>2022-07-08T15:22:03.000Z</Time>
            <Position>
              <LatitudeDegrees>43.34084962494671344757080078125</LatitudeDegrees>
              <LongitudeDegrees>-1.79665130563080310821533203125</LongitudeDegrees>
            </Position>
            <AltitudeMeters>40.40000152587890625</AltitudeMeters>
            <DistanceMeters>NAN</DistanceMeters>
          </Trackpoint>
          <Trackpoint>
            <Time>2022-07-08T15:22:05.000Z</Time>
            <Position>
              <LatitudeDegrees>43.340850882232189178466796875</LatitudeDegrees>
              <LongitudeDegrees>-1.79669355042278766632080078125</LongitudeDegrees>
            </Position>
            <AltitudeMeters>40.40000152587890625</AltitudeMeters>
            <DistanceMeters>NAN</DistanceMeters>
          </Trackpoint>
          <Trackpoint>
            <Time>2022-07-08T15:22:08.000Z</Time>
            <Position>
              <LatitudeDegrees>43.34084727801382541656494140625</LatitudeDegrees>
              <LongitudeDegrees>-1.79670075885951519012451171875</LongitudeDegrees>
            </Position>
            <AltitudeMeters>40.200000762939453125</AltitudeMeters>
            <DistanceMeters>NAN</DistanceMeters>
          </Trackpoint>
          <Trackpoint>
            <Time>2022-07-08T15:22:39.000Z</Time>
            <Position>
              <LatitudeDegrees>43.34087602794170379638671875</LatitudeDegrees>
              <LongitudeDegrees>-1.79664392955601215362548828125</LongitudeDegrees>
            </Position>
            <AltitudeMeters>41</AltitudeMeters>
            <DistanceMeters>NAN</DistanceMeters>
          </Trackpoint>
          <Trackpoint>
            <Time>2022-07-08T15:22:40.000Z</Time>
            <Position>
              <LatitudeDegrees>43.340874016284942626953125</LatitudeDegrees>
              <LongitudeDegrees>-1.79661442525684833526611328125</LongitudeDegrees>
            </Position>
            <AltitudeMeters>41</AltitudeMeters>
            <DistanceMeters>NAN</DistanceMeters>
          </Trackpoint>
          <Trackpoint>
            <Time>2022-07-08T15:22:45.000Z</Time>
            <Position>
              <LatitudeDegrees>43.3408597670495510101318359375</LatitudeDegrees>
              <LongitudeDegrees>-1.79641460068523883819580078125</LongitudeDegrees>
            </Position>
            <AltitudeMeters>41</AltitudeMeters>
            <DistanceMeters>NAN</DistanceMeters>
          </Trackpoint>
          <Trackpoint>
            <Time>2022-07-08T15:22:50.000Z</Time>
            <Position>
              <LatitudeDegrees>43.3407595194876194000244140625</LatitudeDegrees>
              <LongitudeDegrees>-1.7961934022605419158935546875</LongitudeDegrees>
            </Position>
            <AltitudeMeters>41</AltitudeMeters>
            <DistanceMeters>NAN</DistanceMeters>
          </Trackpoint>
          <Trackpoint>
            <Time>2022-07-08T15:22:52.000Z</Time>
            <Position>
              <LatitudeDegrees>43.3407001756131649017333984375</LatitudeDegrees>
              <LongitudeDegrees>-1.79610933177173137664794921875</LongitudeDegrees>
            </Position>
            <AltitudeMeters>41</AltitudeMeters>
            <DistanceMeters>NAN</DistanceMeters>
          </Trackpoint>
          <Trackpoint>
            <Time>2022-07-08T15:22:59.000Z</Time>
            <Position>
              <LatitudeDegrees>43.34065742790699005126953125</LatitudeDegrees>
              <LongitudeDegrees>-1.7957833595573902130126953125</LongitudeDegrees>
            </Position>
            <AltitudeMeters>41</AltitudeMeters>
            <DistanceMeters>NAN</DistanceMeters>
          </Trackpoint>
          <Trackpoint>
            <Time>2022-07-08T15:23:04.000Z</Time>
            <Position>
              <LatitudeDegrees>43.3406270854175090789794921875</LatitudeDegrees>
              <LongitudeDegrees>-1.7955788411200046539306640625</LongitudeDegrees>
            </Position>
            <AltitudeMeters>41.59999847412109375</AltitudeMeters>
            <DistanceMeters>NAN</DistanceMeters>
          </Trackpoint>
          <Trackpoint>
            <Time>2022-07-08T15:23:09.000Z</Time>
            <Position>
              <LatitudeDegrees>43.3406418375670909881591796875</LatitudeDegrees>
              <LongitudeDegrees>-1.795454286038875579833984375</LongitudeDegrees>
            </Position>
            <AltitudeMeters>41.59999847412109375</AltitudeMeters>
            <DistanceMeters>NAN</DistanceMeters>
          </Trackpoint>
          <Trackpoint>
            <Time>2022-07-08T15:23:12.000Z</Time>
            <Position>
              <LatitudeDegrees>43.34069036878645420074462890625</LatitudeDegrees>
              <LongitudeDegrees>-1.795407347381114959716796875</LongitudeDegrees>
            </Position>
            <AltitudeMeters>41.40000152587890625</AltitudeMeters>
            <DistanceMeters>NAN</DistanceMeters>
          </Trackpoint>
          <Trackpoint>
            <Time>2022-07-08T15:23:13.000Z</Time>
            <Position>
              <LatitudeDegrees>43.34068869240581989288330078125</LatitudeDegrees>
              <LongitudeDegrees>-1.79539334960281848907470703125</LongitudeDegrees>
            </Position>
            <AltitudeMeters>41.40000152587890625</AltitudeMeters>
            <DistanceMeters>NAN</DistanceMeters>
          </Trackpoint>
          <Trackpoint>
            <Time>2022-07-08T15:23:16.000Z</Time>
            <Position>
              <LatitudeDegrees>43.3406783826649188995361328125</LatitudeDegrees>
              <LongitudeDegrees>-1.79534473456442356109619140625</LongitudeDegrees>
            </Position>
            <AltitudeMeters>41.40000152587890625</AltitudeMeters>
            <DistanceMeters>NAN</DistanceMeters>
          </Trackpoint>
          <Trackpoint>
            <Time>2022-07-08T15:23:18.000Z</Time>
            <Position>
              <LatitudeDegrees>43.34066404961049556732177734375</LatitudeDegrees>
              <LongitudeDegrees>-1.7953102849423885345458984375</LongitudeDegrees>
            </Position>
            <AltitudeMeters>41.40000152587890625</AltitudeMeters>
            <DistanceMeters>NAN</DistanceMeters>
          </Trackpoint>
          <Trackpoint>
            <Time>2022-07-08T15:23:23.000Z</Time>
            <Position>
              <LatitudeDegrees>43.3406287617981433868408203125</LatitudeDegrees>
              <LongitudeDegrees>-1.795155890285968780517578125</LongitudeDegrees>
            </Position>
            <AltitudeMeters>41.799999237060546875</AltitudeMeters>
            <DistanceMeters>NAN</DistanceMeters>
          </Trackpoint>
          <Trackpoint>
            <Time>2022-07-08T15:23:29.000Z</Time>
            <Position>
              <LatitudeDegrees>43.34056489169597625732421875</LatitudeDegrees>
              <LongitudeDegrees>-1.79493033327162265777587890625</LongitudeDegrees>
            </Position>
            <AltitudeMeters>41.799999237060546875</AltitudeMeters>
            <DistanceMeters>NAN</DistanceMeters>
          </Trackpoint>
          <Trackpoint>
            <Time>2022-07-08T15:23:32.000Z</Time>
            <Position>
              <LatitudeDegrees>43.34055642597377300262451171875</LatitudeDegrees>
              <LongitudeDegrees>-1.7947852425277233123779296875</LongitudeDegrees>
            </Position>
            <AltitudeMeters>41.799999237060546875</AltitudeMeters>
            <DistanceMeters>NAN</DistanceMeters>
          </Trackpoint>
          <Trackpoint>
            <Time>2022-07-08T15:23:34.000Z</Time>
            <Position>
              <LatitudeDegrees>43.34052641876041889190673828125</LatitudeDegrees>
              <LongitudeDegrees>-1.7946977354586124420166015625</LongitudeDegrees>
            </Position>
            <AltitudeMeters>41.799999237060546875</AltitudeMeters>
            <DistanceMeters>NAN</DistanceMeters>
          </Trackpoint>
          <Trackpoint>
            <Time>2022-07-08T15:23:37.000Z</Time>
            <Position>
              <LatitudeDegrees>43.34049574099481105804443359375</LatitudeDegrees>
              <LongitudeDegrees>-1.79457041434943675994873046875</LongitudeDegrees>
            </Position>
            <AltitudeMeters>42</AltitudeMeters>
            <DistanceMeters>NAN</DistanceMeters>
          </Trackpoint>
          <Trackpoint>
            <Time>2022-07-08T15:23:39.000Z</Time>
            <Position>
              <LatitudeDegrees>43.34048216231167316436767578125</LatitudeDegrees>
              <LongitudeDegrees>-1.79450855590403079986572265625</LongitudeDegrees>
            </Position>
            <AltitudeMeters>42.200000762939453125</AltitudeMeters>
            <DistanceMeters>NAN</DistanceMeters>
          </Trackpoint>
          <Trackpoint>
            <Time>2022-07-08T15:23:40.000Z</Time>
            <Position>
              <LatitudeDegrees>43.3404644764959812164306640625</LatitudeDegrees>
              <LongitudeDegrees>-1.7944751121103763580322265625</LongitudeDegrees>
            </Position>
            <AltitudeMeters>42.200000762939453125</AltitudeMeters>
            <DistanceMeters>NAN</DistanceMeters>
          </Trackpoint>
          <Trackpoint>
            <Time>2022-07-08T15:23:42.000Z</Time>
            <Position>
              <LatitudeDegrees>43.34042114205658435821533203125</LatitudeDegrees>
              <LongitudeDegrees>-1.79442532360553741455078125</LongitudeDegrees>
            </Position>
            <AltitudeMeters>42.200000762939453125</AltitudeMeters>
            <DistanceMeters>NAN</DistanceMeters>
          </Trackpoint>
          <Trackpoint>
            <Time>2022-07-08T15:23:47.000Z</Time>
            <Position>
              <LatitudeDegrees>43.3403628878295421600341796875</LatitudeDegrees>
              <LongitudeDegrees>-1.79441316984593868255615234375</LongitudeDegrees>
            </Position>
            <AltitudeMeters>41.799999237060546875</AltitudeMeters>
            <DistanceMeters>NAN</DistanceMeters>
          </Trackpoint>
          <Trackpoint>
            <Time>2022-07-08T15:23:59.000Z</Time>
            <Position>
              <LatitudeDegrees>43.34027118980884552001953125</LatitudeDegrees>
              <LongitudeDegrees>-1.7943661473691463470458984375</LongitudeDegrees>
            </Position>
            <AltitudeMeters>42</AltitudeMeters>
            <DistanceMeters>NAN</DistanceMeters>
          </Trackpoint>
          <Trackpoint>
            <Time>2022-07-08T15:24:00.000Z</Time>
            <Position>
              <LatitudeDegrees>43.3402316272258758544921875</LatitudeDegrees>
              <LongitudeDegrees>-1.79435986094176769256591796875</LongitudeDegrees>
            </Position>
            <AltitudeMeters>42</AltitudeMeters>
            <DistanceMeters>NAN</DistanceMeters>
          </Trackpoint>
          <Trackpoint>
            <Time>2022-07-08T15:24:05.000Z</Time>
            <Position>
              <LatitudeDegrees>43.34016390144824981689453125</LatitudeDegrees>
              <LongitudeDegrees>-1.79424159228801727294921875</LongitudeDegrees>
            </Position>
            <AltitudeMeters>42.200000762939453125</AltitudeMeters>
            <DistanceMeters>NAN</DistanceMeters>
          </Trackpoint>
          <Trackpoint>
            <Time>2022-07-08T15:24:07.000Z</Time>
            <Position>
              <LatitudeDegrees>43.34017119370400905609130859375</LatitudeDegrees>
              <LongitudeDegrees>-1.79418032057583332061767578125</LongitudeDegrees>
            </Position>
            <AltitudeMeters>42.40000152587890625</AltitudeMeters>
            <DistanceMeters>NAN</DistanceMeters>
          </Trackpoint>
          <Trackpoint>
            <Time>2022-07-08T15:24:09.000Z</Time>
            <Position>
              <LatitudeDegrees>43.34015711210668087005615234375</LatitudeDegrees>
              <LongitudeDegrees>-1.7941740341484546661376953125</LongitudeDegrees>
            </Position>
            <AltitudeMeters>42.59999847412109375</AltitudeMeters>
            <DistanceMeters>NAN</DistanceMeters>
          </Trackpoint>
          <Trackpoint>
            <Time>2022-07-08T15:24:13.000Z</Time>
            <Position>
              <LatitudeDegrees>43.34015325643122196197509765625</LatitudeDegrees>
              <LongitudeDegrees>-1.79417545907199382781982421875</LongitudeDegrees>
            </Position>
            <AltitudeMeters>42.40000152587890625</AltitudeMeters>
            <DistanceMeters>NAN</DistanceMeters>
          </Trackpoint>
          <Trackpoint>
            <Time>2022-07-08T15:24:58.000Z</Time>
            <Position>
              <LatitudeDegrees>43.34005401469767093658447265625</LatitudeDegrees>
              <LongitudeDegrees>-1.79419272579252719879150390625</LongitudeDegrees>
            </Position>
            <AltitudeMeters>42.200000762939453125</AltitudeMeters>
            <DistanceMeters>NAN</DistanceMeters>
          </Trackpoint>
          <Trackpoint>
            <Time>2022-07-08T15:24:59.000Z</Time>
            <Position>
              <LatitudeDegrees>43.340089805424213409423828125</LatitudeDegrees>
              <LongitudeDegrees>-1.79418794810771942138671875</LongitudeDegrees>
            </Position>
            <AltitudeMeters>42.200000762939453125</AltitudeMeters>
            <DistanceMeters>NAN</DistanceMeters>
          </Trackpoint>
          <Trackpoint>
            <Time>2022-07-08T15:25:00.000Z</Time>
            <Position>
              <LatitudeDegrees>43.3401922322809696197509765625</LatitudeDegrees>
              <LongitudeDegrees>-1.79416783154010772705078125</LongitudeDegrees>
            </Position>
            <AltitudeMeters>42.200000762939453125</AltitudeMeters>
            <DistanceMeters>NAN</DistanceMeters>
          </Trackpoint>
          <Trackpoint>
            <Time>2022-07-08T15:25:03.000Z</Time>
            <Position>
              <LatitudeDegrees>43.34024294279515743255615234375</LatitudeDegrees>
              <LongitudeDegrees>-1.794131956994533538818359375</LongitudeDegrees>
            </Position>
            <AltitudeMeters>42.200000762939453125</AltitudeMeters>
            <DistanceMeters>NAN</DistanceMeters>
          </Trackpoint>
          <Trackpoint>
            <Time>2022-07-08T15:25:04.000Z</Time>
            <Position>
              <LatitudeDegrees>43.34012542851269245147705078125</LatitudeDegrees>
              <LongitudeDegrees>-1.79412357509136199951171875</LongitudeDegrees>
            </Position>
            <AltitudeMeters>42.200000762939453125</AltitudeMeters>
            <DistanceMeters>NAN</DistanceMeters>
          </Trackpoint>
          <Trackpoint>
            <Time>2022-07-08T15:25:06.000Z</Time>
            <Position>
              <LatitudeDegrees>43.3400825969874858856201171875</LatitudeDegrees>
              <LongitudeDegrees>-1.7941177077591419219970703125</LongitudeDegrees>
            </Position>
            <AltitudeMeters>42.200000762939453125</AltitudeMeters>
            <DistanceMeters>NAN</DistanceMeters>
          </Trackpoint>
          <Trackpoint>
            <Time>2022-07-08T15:25:07.000Z</Time>
            <Position>
              <LatitudeDegrees>43.34007798694074153900146484375</LatitudeDegrees>
              <LongitudeDegrees>-1.794117875397205352783203125</LongitudeDegrees>
            </Position>
            <AltitudeMeters>42.200000762939453125</AltitudeMeters>
            <DistanceMeters>NAN</DistanceMeters>
          </Trackpoint>
          <Trackpoint>
            <Time>2022-07-08T15:25:11.000Z</Time>
            <Position>
              <LatitudeDegrees>43.34021209739148616790771484375</LatitudeDegrees>
              <LongitudeDegrees>-1.79413673467934131622314453125</LongitudeDegrees>
            </Position>
            <AltitudeMeters>42.200000762939453125</AltitudeMeters>
            <DistanceMeters>NAN</DistanceMeters>
          </Trackpoint>
          <Trackpoint>
            <Time>2022-07-08T15:25:15.000Z</Time>
            <Position>
              <LatitudeDegrees>43.34044511429965496063232421875</LatitudeDegrees>
              <LongitudeDegrees>-1.79407638497650623321533203125</LongitudeDegrees>
            </Position>
            <AltitudeMeters>42.40000152587890625</AltitudeMeters>
            <DistanceMeters>NAN</DistanceMeters>
          </Trackpoint>
          <Trackpoint>
            <Time>2022-07-08T15:25:18.000Z</Time>
            <Position>
              <LatitudeDegrees>43.34044343791902065277099609375</LatitudeDegrees>
              <LongitudeDegrees>-1.79408962838351726531982421875</LongitudeDegrees>
            </Position>
            <AltitudeMeters>42.799999237060546875</AltitudeMeters>
            <DistanceMeters>NAN</DistanceMeters>
          </Trackpoint>
          <Trackpoint>
            <Time>2022-07-08T15:25:20.000Z</Time>
            <Position>
              <LatitudeDegrees>43.3404275961220264434814453125</LatitudeDegrees>
              <LongitudeDegrees>-1.794086359441280364990234375</LongitudeDegrees>
            </Position>
            <AltitudeMeters>43</AltitudeMeters>
            <DistanceMeters>NAN</DistanceMeters>
          </Trackpoint>
          <Trackpoint>
            <Time>2022-07-08T15:25:24.000Z</Time>
            <Position>
              <LatitudeDegrees>43.3403773047029972076416015625</LatitudeDegrees>
              <LongitudeDegrees>-1.7941009439527988433837890625</LongitudeDegrees>
            </Position>
            <AltitudeMeters>43</AltitudeMeters>
            <DistanceMeters>NAN</DistanceMeters>
          </Trackpoint>
          <Trackpoint>
            <Time>2022-07-08T15:25:28.000Z</Time>
            <Position>
              <LatitudeDegrees>43.3403930626809597015380859375</LatitudeDegrees>
              <LongitudeDegrees>-1.7941032908856868743896484375</LongitudeDegrees>
            </Position>
            <AltitudeMeters>43</AltitudeMeters>
            <DistanceMeters>NAN</DistanceMeters>
          </Trackpoint>
          <Trackpoint>
            <Time>2022-07-08T15:25:30.000Z</Time>
            <Position>
              <LatitudeDegrees>43.34052323363721370697021484375</LatitudeDegrees>
              <LongitudeDegrees>-1.79403665475547313690185546875</LongitudeDegrees>
            </Position>
            <AltitudeMeters>43</AltitudeMeters>
            <DistanceMeters>NAN</DistanceMeters>
          </Trackpoint>
          <Trackpoint>
            <Time>2022-07-08T15:25:32.000Z</Time>
            <Position>
              <LatitudeDegrees>43.340537063777446746826171875</LatitudeDegrees>
              <LongitudeDegrees>-1.79404889233410358428955078125</LongitudeDegrees>
            </Position>
            <AltitudeMeters>43</AltitudeMeters>
            <DistanceMeters>NAN</DistanceMeters>
          </Trackpoint>
          <Trackpoint>
            <Time>2022-07-08T15:25:33.000Z</Time>
            <Position>
              <LatitudeDegrees>43.34049490280449390411376953125</LatitudeDegrees>
              <LongitudeDegrees>-1.7940156161785125732421875</LongitudeDegrees>
            </Position>
            <AltitudeMeters>43</AltitudeMeters>
            <DistanceMeters>NAN</DistanceMeters>
          </Trackpoint>
          <Trackpoint>
            <Time>2022-07-08T15:25:35.000Z</Time>
            <Position>
              <LatitudeDegrees>43.3404973335564136505126953125</LatitudeDegrees>
              <LongitudeDegrees>-1.7940037138760089874267578125</LongitudeDegrees>
            </Position>
            <AltitudeMeters>43</AltitudeMeters>
            <DistanceMeters>NAN</DistanceMeters>
          </Trackpoint>
          <Trackpoint>
            <Time>2022-07-08T15:25:38.000Z</Time>
            <Position>
              <LatitudeDegrees>43.3404544182121753692626953125</LatitudeDegrees>
              <LongitudeDegrees>-1.79401905275881290435791015625</LongitudeDegrees>
            </Position>
            <AltitudeMeters>43</AltitudeMeters>
            <DistanceMeters>NAN</DistanceMeters>
          </Trackpoint>
          <Trackpoint>
            <Time>2022-07-08T15:25:40.000Z</Time>
            <Position>
              <LatitudeDegrees>43.34056480787694454193115234375</LatitudeDegrees>
              <LongitudeDegrees>-1.794062219560146331787109375</LongitudeDegrees>
            </Position>
            <AltitudeMeters>43</AltitudeMeters>
            <DistanceMeters>NAN</DistanceMeters>
          </Trackpoint>
          <Trackpoint>
            <Time>2022-07-08T15:25:41.000Z</Time>
            <Position>
              <LatitudeDegrees>43.3406130038201808929443359375</LatitudeDegrees>
              <LongitudeDegrees>-1.794087029993534088134765625</LongitudeDegrees>
            </Position>
            <AltitudeMeters>43</AltitudeMeters>
            <DistanceMeters>NAN</DistanceMeters>
          </Trackpoint>
          <Trackpoint>
            <Time>2022-07-08T15:25:46.000Z</Time>
            <Position>
              <LatitudeDegrees>43.3404678292572498321533203125</LatitudeDegrees>
              <LongitudeDegrees>-1.79409801028668880462646484375</LongitudeDegrees>
            </Position>
            <AltitudeMeters>43</AltitudeMeters>
            <DistanceMeters>NAN</DistanceMeters>
          </Trackpoint>
          <Trackpoint>
            <Time>2022-07-08T15:25:49.000Z</Time>
            <Position>
              <LatitudeDegrees>43.34044578485190868377685546875</LatitudeDegrees>
              <LongitudeDegrees>-1.794073618948459625244140625</LongitudeDegrees>
            </Position>
            <AltitudeMeters>42.799999237060546875</AltitudeMeters>
            <DistanceMeters>NAN</DistanceMeters>
          </Trackpoint>
          <Trackpoint>
            <Time>2022-07-08T15:25:50.000Z</Time>
            <Position>
              <LatitudeDegrees>43.340378142893314361572265625</LatitudeDegrees>
              <LongitudeDegrees>-1.79406498558819293975830078125</LongitudeDegrees>
            </Position>
            <AltitudeMeters>42.799999237060546875</AltitudeMeters>
            <DistanceMeters>NAN</DistanceMeters>
          </Trackpoint>
          <Trackpoint>
            <Time>2022-07-08T15:25:53.000Z</Time>
            <Position>
              <LatitudeDegrees>43.3404269255697727203369140625</LatitudeDegrees>
              <LongitudeDegrees>-1.794089376926422119140625</LongitudeDegrees>
            </Position>
            <AltitudeMeters>42.59999847412109375</AltitudeMeters>
            <DistanceMeters>NAN</DistanceMeters>
          </Trackpoint>
          <Trackpoint>
            <Time>2022-07-08T15:25:54.000Z</Time>
            <Position>
              <LatitudeDegrees>43.3404269255697727203369140625</LatitudeDegrees>
              <LongitudeDegrees>-1.794083677232265472412109375</LongitudeDegrees>
            </Position>
            <AltitudeMeters>42.59999847412109375</AltitudeMeters>
            <DistanceMeters>NAN</DistanceMeters>
          </Trackpoint>
          <Trackpoint>
            <Time>2022-07-08T15:27:47.000Z</Time>
            <Position>
              <LatitudeDegrees>43.3402706868946552276611328125</LatitudeDegrees>
              <LongitudeDegrees>-1.79426162503659725189208984375</LongitudeDegrees>
            </Position>
            <AltitudeMeters>42.200000762939453125</AltitudeMeters>
            <DistanceMeters>NAN</DistanceMeters>
          </Trackpoint>
          <Trackpoint>
            <Time>2022-07-08T15:27:56.000Z</Time>
            <Position>
              <LatitudeDegrees>43.34019617177546024322509765625</LatitudeDegrees>
              <LongitudeDegrees>-1.79401100613176822662353515625</LongitudeDegrees>
            </Position>
            <AltitudeMeters>42.200000762939453125</AltitudeMeters>
            <DistanceMeters>NAN</DistanceMeters>
          </Trackpoint>
          <Trackpoint>
            <Time>2022-07-08T15:27:59.000Z</Time>
            <Position>
              <LatitudeDegrees>43.3402691781520843505859375</LatitudeDegrees>
              <LongitudeDegrees>-1.7940177954733371734619140625</LongitudeDegrees>
            </Position>
            <AltitudeMeters>42.200000762939453125</AltitudeMeters>
            <DistanceMeters>NAN</DistanceMeters>
          </Trackpoint>
          <Trackpoint>
            <Time>2022-07-08T15:28:00.000Z</Time>
            <Position>
              <LatitudeDegrees>43.34030681289732456207275390625</LatitudeDegrees>
              <LongitudeDegrees>-1.7939963378012180328369140625</LongitudeDegrees>
            </Position>
            <AltitudeMeters>42.200000762939453125</AltitudeMeters>
            <DistanceMeters>NAN</DistanceMeters>
          </Trackpoint>
          <Trackpoint>
            <Time>2022-07-08T15:28:11.000Z</Time>
            <Position>
              <LatitudeDegrees>43.34010179154574871063232421875</LatitudeDegrees>
              <LongitudeDegrees>-1.79400245659053325653076171875</LongitudeDegrees>
            </Position>
            <AltitudeMeters>42.200000762939453125</AltitudeMeters>
            <DistanceMeters>NAN</DistanceMeters>
          </Trackpoint>
          <Trackpoint>
            <Time>2022-07-08T15:28:58.000Z</Time>
            <Position>
              <LatitudeDegrees>43.34071752615272998809814453125</LatitudeDegrees>
              <LongitudeDegrees>-1.79424025118350982666015625</LongitudeDegrees>
            </Position>
            <AltitudeMeters>42.40000152587890625</AltitudeMeters>
            <DistanceMeters>NAN</DistanceMeters>
          </Trackpoint>
          <Trackpoint>
            <Time>2022-07-08T15:28:59.000Z</Time>
            <Position>
              <LatitudeDegrees>43.34083034656941890716552734375</LatitudeDegrees>
              <LongitudeDegrees>-1.79424670524895191192626953125</LongitudeDegrees>
            </Position>
            <AltitudeMeters>42.40000152587890625</AltitudeMeters>
            <DistanceMeters>NAN</DistanceMeters>
          </Trackpoint>
          <Trackpoint>
            <Time>2022-07-08T15:29:00.000Z</Time>
            <Position>
              <LatitudeDegrees>43.340910561382770538330078125</LatitudeDegrees>
              <LongitudeDegrees>-1.79427771829068660736083984375</LongitudeDegrees>
            </Position>
            <AltitudeMeters>42.200000762939453125</AltitudeMeters>
            <DistanceMeters>NAN</DistanceMeters>
          </Trackpoint>
          <Trackpoint>
            <Time>2022-07-08T15:29:08.000Z</Time>
            <Position>
              <LatitudeDegrees>43.34061576984822750091552734375</LatitudeDegrees>
              <LongitudeDegrees>-1.7943423427641391754150390625</LongitudeDegrees>
            </Position>
            <AltitudeMeters>42</AltitudeMeters>
            <DistanceMeters>NAN</DistanceMeters>
          </Trackpoint>
          <Trackpoint>
            <Time>2022-07-08T15:29:12.000Z</Time>
            <Position>
              <LatitudeDegrees>43.340455256402492523193359375</LatitudeDegrees>
              <LongitudeDegrees>-1.79432381875813007354736328125</LongitudeDegrees>
            </Position>
            <AltitudeMeters>42.200000762939453125</AltitudeMeters>
            <DistanceMeters>NAN</DistanceMeters>
          </Trackpoint>
          <Trackpoint>
            <Time>2022-07-08T15:29:15.000Z</Time>
            <Position>
              <LatitudeDegrees>43.34040421061217784881591796875</LatitudeDegrees>
              <LongitudeDegrees>-1.7943000979721546173095703125</LongitudeDegrees>
            </Position>
            <AltitudeMeters>42.200000762939453125</AltitudeMeters>
            <DistanceMeters>NAN</DistanceMeters>
          </Trackpoint>
          <Trackpoint>
            <Time>2022-07-08T15:29:17.000Z</Time>
            <Position>
              <LatitudeDegrees>43.34040119312703609466552734375</LatitudeDegrees>
              <LongitudeDegrees>-1.7941545881330966949462890625</LongitudeDegrees>
            </Position>
            <AltitudeMeters>42.200000762939453125</AltitudeMeters>
            <DistanceMeters>NAN</DistanceMeters>
          </Trackpoint>
          <Trackpoint>
            <Time>2022-07-08T15:29:18.000Z</Time>
            <Position>
              <LatitudeDegrees>43.34033447317779064178466796875</LatitudeDegrees>
              <LongitudeDegrees>-1.79406230337917804718017578125</LongitudeDegrees>
            </Position>
            <AltitudeMeters>42.200000762939453125</AltitudeMeters>
            <DistanceMeters>NAN</DistanceMeters>
          </Trackpoint>
          <Trackpoint>
            <Time>2022-07-08T15:34:01.000Z</Time>
            <Position>
              <LatitudeDegrees>43.3401047252118587493896484375</LatitudeDegrees>
              <LongitudeDegrees>-1.79415299557149410247802734375</LongitudeDegrees>
            </Position>
            <AltitudeMeters>42.59999847412109375</AltitudeMeters>
            <DistanceMeters>NAN</DistanceMeters>
          </Trackpoint>
          <Trackpoint>
            <Time>2022-07-08T15:34:03.000Z</Time>
            <Position>
              <LatitudeDegrees>43.34011469967663288116455078125</LatitudeDegrees>
              <LongitudeDegrees>-1.79408342577517032623291015625</LongitudeDegrees>
            </Position>
            <AltitudeMeters>43</AltitudeMeters>
            <DistanceMeters>NAN</DistanceMeters>
          </Trackpoint>
          <Trackpoint>
            <Time>2022-07-08T15:34:09.000Z</Time>
            <Position>
              <LatitudeDegrees>43.34015996195375919342041015625</LatitudeDegrees>
              <LongitudeDegrees>-1.79388745687901973724365234375</LongitudeDegrees>
            </Position>
            <AltitudeMeters>43.200000762939453125</AltitudeMeters>
            <DistanceMeters>NAN</DistanceMeters>
          </Trackpoint>
          <Trackpoint>
            <Time>2022-07-08T15:34:12.000Z</Time>
            <Position>
              <LatitudeDegrees>43.3401972614228725433349609375</LatitudeDegrees>
              <LongitudeDegrees>-1.793798021972179412841796875</LongitudeDegrees>
            </Position>
            <AltitudeMeters>42.799999237060546875</AltitudeMeters>
            <DistanceMeters>NAN</DistanceMeters>
          </Trackpoint>
          <Trackpoint>
            <Time>2022-07-08T15:34:15.000Z</Time>
            <Position>
              <LatitudeDegrees>43.34019315429031848907470703125</LatitudeDegrees>
              <LongitudeDegrees>-1.7936828546226024627685546875</LongitudeDegrees>
            </Position>
            <AltitudeMeters>43.200000762939453125</AltitudeMeters>
            <DistanceMeters>NAN</DistanceMeters>
          </Trackpoint>
          <Trackpoint>
            <Time>2022-07-08T15:34:21.000Z</Time>
            <Position>
              <LatitudeDegrees>43.34013263694941997528076171875</LatitudeDegrees>
              <LongitudeDegrees>-1.7934005521237850189208984375</LongitudeDegrees>
            </Position>
            <AltitudeMeters>43</AltitudeMeters>
            <DistanceMeters>NAN</DistanceMeters>
          </Trackpoint>
          <Trackpoint>
            <Time>2022-07-08T15:34:28.000Z</Time>
            <Position>
              <LatitudeDegrees>43.340077064931392669677734375</LatitudeDegrees>
              <LongitudeDegrees>-1.79304624907672405242919921875</LongitudeDegrees>
            </Position>
            <AltitudeMeters>42.40000152587890625</AltitudeMeters>
            <DistanceMeters>NAN</DistanceMeters>
          </Trackpoint>
          <Trackpoint>
            <Time>2022-07-08T15:34:30.000Z</Time>
            <Position>
              <LatitudeDegrees>43.34005552344024181365966796875</LatitudeDegrees>
              <LongitudeDegrees>-1.79294918663799762725830078125</LongitudeDegrees>
            </Position>
            <AltitudeMeters>42.59999847412109375</AltitudeMeters>
            <DistanceMeters>NAN</DistanceMeters>
          </Trackpoint>
          <Trackpoint>
            <Time>2022-07-08T15:34:34.000Z</Time>
            <Position>
              <LatitudeDegrees>43.340022750198841094970703125</LatitudeDegrees>
              <LongitudeDegrees>-1.7927383817732334136962890625</LongitudeDegrees>
            </Position>
            <AltitudeMeters>42</AltitudeMeters>
            <DistanceMeters>NAN</DistanceMeters>
          </Trackpoint>
          <Trackpoint>
            <Time>2022-07-08T15:34:39.000Z</Time>
            <Position>
              <LatitudeDegrees>43.33998025394976139068603515625</LatitudeDegrees>
              <LongitudeDegrees>-1.7924731783568859100341796875</LongitudeDegrees>
            </Position>
            <AltitudeMeters>41.40000152587890625</AltitudeMeters>
            <DistanceMeters>NAN</DistanceMeters>
          </Trackpoint>
          <Trackpoint>
            <Time>2022-07-08T15:34:48.000Z</Time>
            <Position>
              <LatitudeDegrees>43.33989492617547512054443359375</LatitudeDegrees>
              <LongitudeDegrees>-1.791998259723186492919921875</LongitudeDegrees>
            </Position>
            <AltitudeMeters>41.40000152587890625</AltitudeMeters>
            <DistanceMeters>NAN</DistanceMeters>
          </Trackpoint>
          <Trackpoint>
            <Time>2022-07-08T15:34:52.000Z</Time>
            <Position>
              <LatitudeDegrees>43.339862488210201263427734375</LatitudeDegrees>
              <LongitudeDegrees>-1.79178334772586822509765625</LongitudeDegrees>
            </Position>
            <AltitudeMeters>41.59999847412109375</AltitudeMeters>
            <DistanceMeters>NAN</DistanceMeters>
          </Trackpoint>
          <Trackpoint>
            <Time>2022-07-08T15:34:55.000Z</Time>
            <Position>
              <LatitudeDegrees>43.3398391865193843841552734375</LatitudeDegrees>
              <LongitudeDegrees>-1.7916338145732879638671875</LongitudeDegrees>
            </Position>
            <AltitudeMeters>41.59999847412109375</AltitudeMeters>
            <DistanceMeters>NAN</DistanceMeters>
          </Trackpoint>
          <Trackpoint>
            <Time>2022-07-08T15:34:58.000Z</Time>
            <Position>
              <LatitudeDegrees>43.33979954011738300323486328125</LatitudeDegrees>
              <LongitudeDegrees>-1.79148654453456401824951171875</LongitudeDegrees>
            </Position>
            <AltitudeMeters>41.40000152587890625</AltitudeMeters>
            <DistanceMeters>NAN</DistanceMeters>
          </Trackpoint>
          <Trackpoint>
            <Time>2022-07-08T15:35:00.000Z</Time>
            <Position>
              <LatitudeDegrees>43.33977808244526386260986328125</LatitudeDegrees>
              <LongitudeDegrees>-1.79138998501002788543701171875</LongitudeDegrees>
            </Position>
            <AltitudeMeters>41.40000152587890625</AltitudeMeters>
            <DistanceMeters>NAN</DistanceMeters>
          </Trackpoint>
          <Trackpoint>
            <Time>2022-07-08T15:35:02.000Z</Time>
            <Position>
              <LatitudeDegrees>43.3397627435624599456787109375</LatitudeDegrees>
              <LongitudeDegrees>-1.79129426367580890655517578125</LongitudeDegrees>
            </Position>
            <AltitudeMeters>41.40000152587890625</AltitudeMeters>
            <DistanceMeters>NAN</DistanceMeters>
          </Trackpoint>
          <Trackpoint>
            <Time>2022-07-08T15:35:05.000Z</Time>
            <Position>
              <LatitudeDegrees>43.339747488498687744140625</LatitudeDegrees>
              <LongitudeDegrees>-1.79117892868816852569580078125</LongitudeDegrees>
            </Position>
            <AltitudeMeters>41.200000762939453125</AltitudeMeters>
            <DistanceMeters>NAN</DistanceMeters>
          </Trackpoint>
          <Trackpoint>
            <Time>2022-07-08T15:35:07.000Z</Time>
            <Position>
              <LatitudeDegrees>43.33974421955645084381103515625</LatitudeDegrees>
              <LongitudeDegrees>-1.79112545214593410491943359375</LongitudeDegrees>
            </Position>
            <AltitudeMeters>41.200000762939453125</AltitudeMeters>
            <DistanceMeters>NAN</DistanceMeters>
          </Trackpoint>
          <Trackpoint>
            <Time>2022-07-08T15:35:13.000Z</Time>
            <Position>
              <LatitudeDegrees>43.33972913213074207305908203125</LatitudeDegrees>
              <LongitudeDegrees>-1.7909661121666431427001953125</LongitudeDegrees>
            </Position>
            <AltitudeMeters>41</AltitudeMeters>
            <DistanceMeters>NAN</DistanceMeters>
          </Trackpoint>
          <Trackpoint>
            <Time>2022-07-08T15:35:18.000Z</Time>
            <Position>
              <LatitudeDegrees>43.33974002860486507415771484375</LatitudeDegrees>
              <LongitudeDegrees>-1.790838539600372314453125</LongitudeDegrees>
            </Position>
            <AltitudeMeters>41</AltitudeMeters>
            <DistanceMeters>NAN</DistanceMeters>
          </Trackpoint>
          <Trackpoint>
            <Time>2022-07-08T15:35:24.000Z</Time>
            <Position>
              <LatitudeDegrees>43.339744471013545989990234375</LatitudeDegrees>
              <LongitudeDegrees>-1.79067827761173248291015625</LongitudeDegrees>
            </Position>
            <AltitudeMeters>41.200000762939453125</AltitudeMeters>
            <DistanceMeters>NAN</DistanceMeters>
          </Trackpoint>
          <Trackpoint>
            <Time>2022-07-08T15:35:27.000Z</Time>
            <Position>
              <LatitudeDegrees>43.3397064171731472015380859375</LatitudeDegrees>
              <LongitudeDegrees>-1.79061750881373882293701171875</LongitudeDegrees>
            </Position>
            <AltitudeMeters>40.799999237060546875</AltitudeMeters>
            <DistanceMeters>NAN</DistanceMeters>
          </Trackpoint>
          <Trackpoint>
            <Time>2022-07-08T15:35:28.000Z</Time>
            <Position>
              <LatitudeDegrees>43.33970298059284687042236328125</LatitudeDegrees>
              <LongitudeDegrees>-1.79060510359704494476318359375</LongitudeDegrees>
            </Position>
            <AltitudeMeters>40.799999237060546875</AltitudeMeters>
            <DistanceMeters>NAN</DistanceMeters>
          </Trackpoint>
          <Trackpoint>
            <Time>2022-07-08T15:35:29.000Z</Time>
            <Position>
              <LatitudeDegrees>43.33971136249601840972900390625</LatitudeDegrees>
              <LongitudeDegrees>-1.79059320129454135894775390625</LongitudeDegrees>
            </Position>
            <AltitudeMeters>40.799999237060546875</AltitudeMeters>
            <DistanceMeters>NAN</DistanceMeters>
          </Trackpoint>
          <Trackpoint>
            <Time>2022-07-08T15:35:34.000Z</Time>
            <Position>
              <LatitudeDegrees>43.3398318104445934295654296875</LatitudeDegrees>
              <LongitudeDegrees>-1.7905067838728427886962890625</LongitudeDegrees>
            </Position>
            <AltitudeMeters>40.799999237060546875</AltitudeMeters>
            <DistanceMeters>NAN</DistanceMeters>
          </Trackpoint>
          <Trackpoint>
            <Time>2022-07-08T15:35:37.000Z</Time>
            <Position>
              <LatitudeDegrees>43.33992761559784412384033203125</LatitudeDegrees>
              <LongitudeDegrees>-1.790445931255817413330078125</LongitudeDegrees>
            </Position>
            <AltitudeMeters>40.200000762939453125</AltitudeMeters>
            <DistanceMeters>NAN</DistanceMeters>
          </Trackpoint>
          <Trackpoint>
            <Time>2022-07-08T15:35:39.000Z</Time>
            <Position>
              <LatitudeDegrees>43.34000028669834136962890625</LatitudeDegrees>
              <LongitudeDegrees>-1.7904107272624969482421875</LongitudeDegrees>
            </Position>
            <AltitudeMeters>39.40000152587890625</AltitudeMeters>
            <DistanceMeters>NAN</DistanceMeters>
          </Trackpoint>
          <Trackpoint>
            <Time>2022-07-08T15:35:42.000Z</Time>
            <Position>
              <LatitudeDegrees>43.34009374491870403289794921875</LatitudeDegrees>
              <LongitudeDegrees>-1.79045339114964008331298828125</LongitudeDegrees>
            </Position>
            <AltitudeMeters>38</AltitudeMeters>
            <DistanceMeters>NAN</DistanceMeters>
          </Trackpoint>
          <Trackpoint>
            <Time>2022-07-08T15:35:43.000Z</Time>
            <Position>
              <LatitudeDegrees>43.34012727253139019012451171875</LatitudeDegrees>
              <LongitudeDegrees>-1.790452301502227783203125</LongitudeDegrees>
            </Position>
            <AltitudeMeters>37.799999237060546875</AltitudeMeters>
            <DistanceMeters>NAN</DistanceMeters>
          </Trackpoint>
          <Trackpoint>
            <Time>2022-07-08T15:35:45.000Z</Time>
            <Position>
              <LatitudeDegrees>43.34022031165659427642822265625</LatitudeDegrees>
              <LongitudeDegrees>-1.79041768424212932586669921875</LongitudeDegrees>
            </Position>
            <AltitudeMeters>37.59999847412109375</AltitudeMeters>
            <DistanceMeters>NAN</DistanceMeters>
          </Trackpoint>
          <Trackpoint>
            <Time>2022-07-08T15:35:46.000Z</Time>
            <Position>
              <LatitudeDegrees>43.3402718603610992431640625</LatitudeDegrees>
              <LongitudeDegrees>-1.7903914488852024078369140625</LongitudeDegrees>
            </Position>
            <AltitudeMeters>37.59999847412109375</AltitudeMeters>
            <DistanceMeters>NAN</DistanceMeters>
          </Trackpoint>
          <Trackpoint>
            <Time>2022-07-08T15:35:51.000Z</Time>
            <Position>
              <LatitudeDegrees>43.34053731523454189300537109375</LatitudeDegrees>
              <LongitudeDegrees>-1.79024241864681243896484375</LongitudeDegrees>
            </Position>
            <AltitudeMeters>37</AltitudeMeters>
            <DistanceMeters>NAN</DistanceMeters>
          </Trackpoint>
          <Trackpoint>
            <Time>2022-07-08T15:35:52.000Z</Time>
            <Position>
              <LatitudeDegrees>43.340595401823520660400390625</LatitudeDegrees>
              <LongitudeDegrees>-1.790224649012088775634765625</LongitudeDegrees>
            </Position>
            <AltitudeMeters>36.799999237060546875</AltitudeMeters>
            <DistanceMeters>NAN</DistanceMeters>
          </Trackpoint>
          <Trackpoint>
            <Time>2022-07-08T15:35:53.000Z</Time>
            <Position>
              <LatitudeDegrees>43.340654410421848297119140625</LatitudeDegrees>
              <LongitudeDegrees>-1.79020377807319164276123046875</LongitudeDegrees>
            </Position>
            <AltitudeMeters>36.59999847412109375</AltitudeMeters>
            <DistanceMeters>NAN</DistanceMeters>
          </Trackpoint>
          <Trackpoint>
            <Time>2022-07-08T15:35:55.000Z</Time>
            <Position>
              <LatitudeDegrees>43.34081760607659816741943359375</LatitudeDegrees>
              <LongitudeDegrees>-1.7901282571256160736083984375</LongitudeDegrees>
            </Position>
            <AltitudeMeters>35.799999237060546875</AltitudeMeters>
            <DistanceMeters>NAN</DistanceMeters>
          </Trackpoint>
          <Trackpoint>
            <Time>2022-07-08T15:35:56.000Z</Time>
            <Position>
              <LatitudeDegrees>43.340891115367412567138671875</LatitudeDegrees>
              <LongitudeDegrees>-1.79009799845516681671142578125</LongitudeDegrees>
            </Position>
            <AltitudeMeters>35.40000152587890625</AltitudeMeters>
            <DistanceMeters>NAN</DistanceMeters>
          </Trackpoint>
          <Trackpoint>
            <Time>2022-07-08T15:35:57.000Z</Time>
            <Position>
              <LatitudeDegrees>43.3409583382308483123779296875</LatitudeDegrees>
              <LongitudeDegrees>-1.7900591902434825897216796875</LongitudeDegrees>
            </Position>
            <AltitudeMeters>35.200000762939453125</AltitudeMeters>
            <DistanceMeters>NAN</DistanceMeters>
          </Trackpoint>
          <Trackpoint>
            <Time>2022-07-08T15:35:59.000Z</Time>
            <Position>
              <LatitudeDegrees>43.34112069569528102874755859375</LatitudeDegrees>
              <LongitudeDegrees>-1.78996891714632511138916015625</LongitudeDegrees>
            </Position>
            <AltitudeMeters>34.40000152587890625</AltitudeMeters>
            <DistanceMeters>NAN</DistanceMeters>
          </Trackpoint>
          <Trackpoint>
            <Time>2022-07-08T15:36:00.000Z</Time>
            <Position>
              <LatitudeDegrees>43.3411967195570468902587890625</LatitudeDegrees>
              <LongitudeDegrees>-1.7899359762668609619140625</LongitudeDegrees>
            </Position>
            <AltitudeMeters>34.200000762939453125</AltitudeMeters>
            <DistanceMeters>NAN</DistanceMeters>
          </Trackpoint>
          <Trackpoint>
            <Time>2022-07-08T15:36:02.000Z</Time>
            <Position>
              <LatitudeDegrees>43.34130777977406978607177734375</LatitudeDegrees>
              <LongitudeDegrees>-1.78988727740943431854248046875</LongitudeDegrees>
            </Position>
            <AltitudeMeters>33.40000152587890625</AltitudeMeters>
            <DistanceMeters>NAN</DistanceMeters>
          </Trackpoint>
          <Trackpoint>
            <Time>2022-07-08T15:36:03.000Z</Time>
            <Position>
              <LatitudeDegrees>43.34136687219142913818359375</LatitudeDegrees>
              <LongitudeDegrees>-1.78987822495400905609130859375</LongitudeDegrees>
            </Position>
            <AltitudeMeters>33.200000762939453125</AltitudeMeters>
            <DistanceMeters>NAN</DistanceMeters>
          </Trackpoint>
          <Trackpoint>
            <Time>2022-07-08T15:36:08.000Z</Time>
            <Position>
              <LatitudeDegrees>43.34169016219675540924072265625</LatitudeDegrees>
              <LongitudeDegrees>-1.78973791189491748809814453125</LongitudeDegrees>
            </Position>
            <AltitudeMeters>32.200000762939453125</AltitudeMeters>
            <DistanceMeters>NAN</DistanceMeters>
          </Trackpoint>
          <Trackpoint>
            <Time>2022-07-08T15:36:09.000Z</Time>
            <Position>
              <LatitudeDegrees>43.34175067953765392303466796875</LatitudeDegrees>
              <LongitudeDegrees>-1.78970396518707275390625</LongitudeDegrees>
            </Position>
            <AltitudeMeters>32.200000762939453125</AltitudeMeters>
            <DistanceMeters>NAN</DistanceMeters>
          </Trackpoint>
          <Trackpoint>
            <Time>2022-07-08T15:36:13.000Z</Time>
            <Position>
              <LatitudeDegrees>43.34197665564715862274169921875</LatitudeDegrees>
              <LongitudeDegrees>-1.78959709592163562774658203125</LongitudeDegrees>
            </Position>
            <AltitudeMeters>31.799999237060546875</AltitudeMeters>
            <DistanceMeters>NAN</DistanceMeters>
          </Trackpoint>
          <Trackpoint>
            <Time>2022-07-08T15:36:14.000Z</Time>
            <Position>
              <LatitudeDegrees>43.34202828817069530487060546875</LatitudeDegrees>
              <LongitudeDegrees>-1.78957295604050159454345703125</LongitudeDegrees>
            </Position>
            <AltitudeMeters>31</AltitudeMeters>
            <DistanceMeters>NAN</DistanceMeters>
          </Trackpoint>
          <Trackpoint>
            <Time>2022-07-08T15:36:15.000Z</Time>
            <Position>
              <LatitudeDegrees>43.34208327345550060272216796875</LatitudeDegrees>
              <LongitudeDegrees>-1.78954428993165493011474609375</LongitudeDegrees>
            </Position>
            <AltitudeMeters>30.6000003814697265625</AltitudeMeters>
            <DistanceMeters>NAN</DistanceMeters>
          </Trackpoint>
          <Trackpoint>
            <Time>2022-07-08T15:36:17.000Z</Time>
            <Position>
              <LatitudeDegrees>43.342190645635128021240234375</LatitudeDegrees>
              <LongitudeDegrees>-1.7894840240478515625</LongitudeDegrees>
            </Position>
            <AltitudeMeters>30</AltitudeMeters>
            <DistanceMeters>NAN</DistanceMeters>
          </Trackpoint>
          <Trackpoint>
            <Time>2022-07-08T15:36:22.000Z</Time>
            <Position>
              <LatitudeDegrees>43.3424610458314418792724609375</LatitudeDegrees>
              <LongitudeDegrees>-1.7893420346081256866455078125</LongitudeDegrees>
            </Position>
            <AltitudeMeters>29.3999996185302734375</AltitudeMeters>
            <DistanceMeters>NAN</DistanceMeters>
          </Trackpoint>
          <Trackpoint>
            <Time>2022-07-08T15:36:29.000Z</Time>
            <Position>
              <LatitudeDegrees>43.34284015931189060211181640625</LatitudeDegrees>
              <LongitudeDegrees>-1.7891536094248294830322265625</LongitudeDegrees>
            </Position>
            <AltitudeMeters>29.3999996185302734375</AltitudeMeters>
            <DistanceMeters>NAN</DistanceMeters>
          </Trackpoint>
          <Trackpoint>
            <Time>2022-07-08T15:36:31.000Z</Time>
            <Position>
              <LatitudeDegrees>43.34293805994093418121337890625</LatitudeDegrees>
              <LongitudeDegrees>-1.78911295719444751739501953125</LongitudeDegrees>
            </Position>
            <AltitudeMeters>29.799999237060546875</AltitudeMeters>
            <DistanceMeters>NAN</DistanceMeters>
          </Trackpoint>
          <Trackpoint>
            <Time>2022-07-08T15:36:35.000Z</Time>
            <Position>
              <LatitudeDegrees>43.3431165106594562530517578125</LatitudeDegrees>
              <LongitudeDegrees>-1.78902092389762401580810546875</LongitudeDegrees>
            </Position>
            <AltitudeMeters>29.799999237060546875</AltitudeMeters>
            <DistanceMeters>NAN</DistanceMeters>
          </Trackpoint>
          <Trackpoint>
            <Time>2022-07-08T15:36:38.000Z</Time>
            <Position>
              <LatitudeDegrees>43.34325137548148632049560546875</LatitudeDegrees>
              <LongitudeDegrees>-1.7889628373086452484130859375</LongitudeDegrees>
            </Position>
            <AltitudeMeters>29.6000003814697265625</AltitudeMeters>
            <DistanceMeters>NAN</DistanceMeters>
          </Trackpoint>
          <Trackpoint>
            <Time>2022-07-08T15:36:40.000Z</Time>
            <Position>
              <LatitudeDegrees>43.34332798607647418975830078125</LatitudeDegrees>
              <LongitudeDegrees>-1.7889132164418697357177734375</LongitudeDegrees>
            </Position>
            <AltitudeMeters>29.6000003814697265625</AltitudeMeters>
            <DistanceMeters>NAN</DistanceMeters>
          </Trackpoint>
          <Trackpoint>
            <Time>2022-07-08T15:36:42.000Z</Time>
            <Position>
              <LatitudeDegrees>43.34338967688381671905517578125</LatitudeDegrees>
              <LongitudeDegrees>-1.7888401262462139129638671875</LongitudeDegrees>
            </Position>
            <AltitudeMeters>29.6000003814697265625</AltitudeMeters>
            <DistanceMeters>NAN</DistanceMeters>
          </Trackpoint>
          <Trackpoint>
            <Time>2022-07-08T15:36:46.000Z</Time>
            <Position>
              <LatitudeDegrees>43.3434655331075191497802734375</LatitudeDegrees>
              <LongitudeDegrees>-1.78866318427026271820068359375</LongitudeDegrees>
            </Position>
            <AltitudeMeters>29.6000003814697265625</AltitudeMeters>
            <DistanceMeters>NAN</DistanceMeters>
          </Trackpoint>
          <Trackpoint>
            <Time>2022-07-08T15:36:50.000Z</Time>
            <Position>
              <LatitudeDegrees>43.34359176456928253173828125</LatitudeDegrees>
              <LongitudeDegrees>-1.7885333485901355743408203125</LongitudeDegrees>
            </Position>
            <AltitudeMeters>29.3999996185302734375</AltitudeMeters>
            <DistanceMeters>NAN</DistanceMeters>
          </Trackpoint>
          <Trackpoint>
            <Time>2022-07-08T15:36:53.000Z</Time>
            <Position>
              <LatitudeDegrees>43.3437200076878070831298828125</LatitudeDegrees>
              <LongitudeDegrees>-1.788542903959751129150390625</LongitudeDegrees>
            </Position>
            <AltitudeMeters>29</AltitudeMeters>
            <DistanceMeters>NAN</DistanceMeters>
          </Trackpoint>
          <Trackpoint>
            <Time>2022-07-08T15:36:55.000Z</Time>
            <Position>
              <LatitudeDegrees>43.3438118733465671539306640625</LatitudeDegrees>
              <LongitudeDegrees>-1.7885698936879634857177734375</LongitudeDegrees>
            </Position>
            <AltitudeMeters>28.799999237060546875</AltitudeMeters>
            <DistanceMeters>NAN</DistanceMeters>
          </Trackpoint>
          <Trackpoint>
            <Time>2022-07-08T15:36:56.000Z</Time>
            <Position>
              <LatitudeDegrees>43.34386023692786693572998046875</LatitudeDegrees>
              <LongitudeDegrees>-1.788579113781452178955078125</LongitudeDegrees>
            </Position>
            <AltitudeMeters>28.799999237060546875</AltitudeMeters>
            <DistanceMeters>NAN</DistanceMeters>
          </Trackpoint>
          <Trackpoint>
            <Time>2022-07-08T15:37:04.000Z</Time>
            <Position>
              <LatitudeDegrees>43.3442148752510547637939453125</LatitudeDegrees>
              <LongitudeDegrees>-1.78853443823754787445068359375</LongitudeDegrees>
            </Position>
            <AltitudeMeters>29.200000762939453125</AltitudeMeters>
            <DistanceMeters>NAN</DistanceMeters>
          </Trackpoint>
          <Trackpoint>
            <Time>2022-07-08T15:37:13.000Z</Time>
            <Position>
              <LatitudeDegrees>43.3445913903415203094482421875</LatitudeDegrees>
              <LongitudeDegrees>-1.7883700691163539886474609375</LongitudeDegrees>
            </Position>
            <AltitudeMeters>29.3999996185302734375</AltitudeMeters>
            <DistanceMeters>NAN</DistanceMeters>
          </Trackpoint>
          <Trackpoint>
            <Time>2022-07-08T15:37:21.000Z</Time>
            <Position>
              <LatitudeDegrees>43.344928510487079620361328125</LatitudeDegrees>
              <LongitudeDegrees>-1.78823612630367279052734375</LongitudeDegrees>
            </Position>
            <AltitudeMeters>29</AltitudeMeters>
            <DistanceMeters>NAN</DistanceMeters>
          </Trackpoint>
          <Trackpoint>
            <Time>2022-07-08T15:37:27.000Z</Time>
            <Position>
              <LatitudeDegrees>43.34516697563230991363525390625</LatitudeDegrees>
              <LongitudeDegrees>-1.78810729645192623138427734375</LongitudeDegrees>
            </Position>
            <AltitudeMeters>29.200000762939453125</AltitudeMeters>
            <DistanceMeters>NAN</DistanceMeters>
          </Trackpoint>
          <Trackpoint>
            <Time>2022-07-08T15:37:28.000Z</Time>
            <Position>
              <LatitudeDegrees>43.34520167671144008636474609375</LatitudeDegrees>
              <LongitudeDegrees>-1.78806622512638568878173828125</LongitudeDegrees>
            </Position>
            <AltitudeMeters>29.200000762939453125</AltitudeMeters>
            <DistanceMeters>NAN</DistanceMeters>
          </Trackpoint>
          <Trackpoint>
            <Time>2022-07-08T15:37:29.000Z</Time>
            <Position>
              <LatitudeDegrees>43.345232941210269927978515625</LatitudeDegrees>
              <LongitudeDegrees>-1.788019202649593353271484375</LongitudeDegrees>
            </Position>
            <AltitudeMeters>29.200000762939453125</AltitudeMeters>
            <DistanceMeters>NAN</DistanceMeters>
          </Trackpoint>
          <Trackpoint>
            <Time>2022-07-08T15:37:32.000Z</Time>
            <Position>
              <LatitudeDegrees>43.3453011699020862579345703125</LatitudeDegrees>
              <LongitudeDegrees>-1.7878353036940097808837890625</LongitudeDegrees>
            </Position>
            <AltitudeMeters>29</AltitudeMeters>
            <DistanceMeters>NAN</DistanceMeters>
          </Trackpoint>
          <Trackpoint>
            <Time>2022-07-08T15:37:34.000Z</Time>
            <Position>
              <LatitudeDegrees>43.34536864422261714935302734375</LatitudeDegrees>
              <LongitudeDegrees>-1.7877310328185558319091796875</LongitudeDegrees>
            </Position>
            <AltitudeMeters>29</AltitudeMeters>
            <DistanceMeters>NAN</DistanceMeters>
          </Trackpoint>
          <Trackpoint>
            <Time>2022-07-08T15:37:36.000Z</Time>
            <Position>
              <LatitudeDegrees>43.3454512059688568115234375</LatitudeDegrees>
              <LongitudeDegrees>-1.78767093457281589508056640625</LongitudeDegrees>
            </Position>
            <AltitudeMeters>29</AltitudeMeters>
            <DistanceMeters>NAN</DistanceMeters>
          </Trackpoint>
          <Trackpoint>
            <Time>2022-07-08T15:37:38.000Z</Time>
            <Position>
              <LatitudeDegrees>43.34554214961826801300048828125</LatitudeDegrees>
              <LongitudeDegrees>-1.7876614630222320556640625</LongitudeDegrees>
            </Position>
            <AltitudeMeters>29</AltitudeMeters>
            <DistanceMeters>NAN</DistanceMeters>
          </Trackpoint>
          <Trackpoint>
            <Time>2022-07-08T15:37:40.000Z</Time>
            <Position>
              <LatitudeDegrees>43.3456334285438060760498046875</LatitudeDegrees>
              <LongitudeDegrees>-1.78769004531204700469970703125</LongitudeDegrees>
            </Position>
            <AltitudeMeters>29.200000762939453125</AltitudeMeters>
            <DistanceMeters>NAN</DistanceMeters>
          </Trackpoint>
          <Trackpoint>
            <Time>2022-07-08T15:37:42.000Z</Time>
            <Position>
              <LatitudeDegrees>43.34572252817451953887939453125</LatitudeDegrees>
              <LongitudeDegrees>-1.7877285182476043701171875</LongitudeDegrees>
            </Position>
            <AltitudeMeters>29.200000762939453125</AltitudeMeters>
            <DistanceMeters>NAN</DistanceMeters>
          </Trackpoint>
          <Trackpoint>
            <Time>2022-07-08T15:37:43.000Z</Time>
            <Position>
              <LatitudeDegrees>43.34576678462326526641845703125</LatitudeDegrees>
              <LongitudeDegrees>-1.78774670697748661041259765625</LongitudeDegrees>
            </Position>
            <AltitudeMeters>29.200000762939453125</AltitudeMeters>
            <DistanceMeters>NAN</DistanceMeters>
          </Trackpoint>
          <Trackpoint>
            <Time>2022-07-08T15:37:45.000Z</Time>
            <Position>
              <LatitudeDegrees>43.34586552344262599945068359375</LatitudeDegrees>
              <LongitudeDegrees>-1.787755005061626434326171875</LongitudeDegrees>
            </Position>
            <AltitudeMeters>29.3999996185302734375</AltitudeMeters>
            <DistanceMeters>NAN</DistanceMeters>
          </Trackpoint>
          <Trackpoint>
            <Time>2022-07-08T15:37:46.000Z</Time>
            <Position>
              <LatitudeDegrees>43.34589888341724872589111328125</LatitudeDegrees>
              <LongitudeDegrees>-1.78774486295878887176513671875</LongitudeDegrees>
            </Position>
            <AltitudeMeters>29.3999996185302734375</AltitudeMeters>
            <DistanceMeters>NAN</DistanceMeters>
          </Trackpoint>
          <Trackpoint>
            <Time>2022-07-08T15:37:47.000Z</Time>
            <Position>
              <LatitudeDegrees>43.34593911655247211456298828125</LatitudeDegrees>
              <LongitudeDegrees>-1.78772977553308010101318359375</LongitudeDegrees>
            </Position>
            <AltitudeMeters>29.3999996185302734375</AltitudeMeters>
            <DistanceMeters>NAN</DistanceMeters>
          </Trackpoint>
          <Trackpoint>
            <Time>2022-07-08T15:37:53.000Z</Time>
            <Position>
              <LatitudeDegrees>43.34618504159152507781982421875</LatitudeDegrees>
              <LongitudeDegrees>-1.78761343471705913543701171875</LongitudeDegrees>
            </Position>
            <AltitudeMeters>29.3999996185302734375</AltitudeMeters>
            <DistanceMeters>NAN</DistanceMeters>
          </Trackpoint>
          <Trackpoint>
            <Time>2022-07-08T15:37:57.000Z</Time>
            <Position>
              <LatitudeDegrees>43.34636156447231769561767578125</LatitudeDegrees>
              <LongitudeDegrees>-1.78751184605062007904052734375</LongitudeDegrees>
            </Position>
            <AltitudeMeters>29.6000003814697265625</AltitudeMeters>
            <DistanceMeters>NAN</DistanceMeters>
          </Trackpoint>
          <Trackpoint>
            <Time>2022-07-08T15:38:01.000Z</Time>
            <Position>
              <LatitudeDegrees>43.34652006626129150390625</LatitudeDegrees>
              <LongitudeDegrees>-1.7874316312372684478759765625</LongitudeDegrees>
            </Position>
            <AltitudeMeters>29.6000003814697265625</AltitudeMeters>
            <DistanceMeters>NAN</DistanceMeters>
          </Trackpoint>
          <Trackpoint>
            <Time>2022-07-08T15:38:02.000Z</Time>
            <Position>
              <LatitudeDegrees>43.3465576171875</LatitudeDegrees>
              <LongitudeDegrees>-1.7874145321547985076904296875</LongitudeDegrees>
            </Position>
            <AltitudeMeters>29.3999996185302734375</AltitudeMeters>
            <DistanceMeters>NAN</DistanceMeters>
          </Trackpoint>
          <Trackpoint>
            <Time>2022-07-08T15:38:03.000Z</Time>
            <Position>
              <LatitudeDegrees>43.34659491665661334991455078125</LatitudeDegrees>
              <LongitudeDegrees>-1.78739986382424831390380859375</LongitudeDegrees>
            </Position>
            <AltitudeMeters>29.3999996185302734375</AltitudeMeters>
            <DistanceMeters>NAN</DistanceMeters>
          </Trackpoint>
          <Trackpoint>
            <Time>2022-07-08T15:38:10.000Z</Time>
            <Position>
              <LatitudeDegrees>43.3468674123287200927734375</LatitudeDegrees>
              <LongitudeDegrees>-1.78726055659353733062744140625</LongitudeDegrees>
            </Position>
            <AltitudeMeters>29.3999996185302734375</AltitudeMeters>
            <DistanceMeters>NAN</DistanceMeters>
          </Trackpoint>
          <Trackpoint>
            <Time>2022-07-08T15:38:16.000Z</Time>
            <Position>
              <LatitudeDegrees>43.34711476229131221771240234375</LatitudeDegrees>
              <LongitudeDegrees>-1.78714178502559661865234375</LongitudeDegrees>
            </Position>
            <AltitudeMeters>29.6000003814697265625</AltitudeMeters>
            <DistanceMeters>NAN</DistanceMeters>
          </Trackpoint>
          <Trackpoint>
            <Time>2022-07-08T15:38:18.000Z</Time>
            <Position>
              <LatitudeDegrees>43.34719690494239330291748046875</LatitudeDegrees>
              <LongitudeDegrees>-1.78709258325397968292236328125</LongitudeDegrees>
            </Position>
            <AltitudeMeters>29.6000003814697265625</AltitudeMeters>
            <DistanceMeters>NAN</DistanceMeters>
          </Trackpoint>
          <Trackpoint>
            <Time>2022-07-08T15:38:19.000Z</Time>
            <Position>
              <LatitudeDegrees>43.34723479114472866058349609375</LatitudeDegrees>
              <LongitudeDegrees>-1.7870691977441310882568359375</LongitudeDegrees>
            </Position>
            <AltitudeMeters>29.6000003814697265625</AltitudeMeters>
            <DistanceMeters>NAN</DistanceMeters>
          </Trackpoint>
          <Trackpoint>
            <Time>2022-07-08T15:38:20.000Z</Time>
            <Position>
              <LatitudeDegrees>43.3472804725170135498046875</LatitudeDegrees>
              <LongitudeDegrees>-1.7870470695197582244873046875</LongitudeDegrees>
            </Position>
            <AltitudeMeters>29.3999996185302734375</AltitudeMeters>
            <DistanceMeters>NAN</DistanceMeters>
          </Trackpoint>
          <Trackpoint>
            <Time>2022-07-08T15:38:24.000Z</Time>
            <Position>
              <LatitudeDegrees>43.34741785190999507904052734375</LatitudeDegrees>
              <LongitudeDegrees>-1.786974482238292694091796875</LongitudeDegrees>
            </Position>
            <AltitudeMeters>29.200000762939453125</AltitudeMeters>
            <DistanceMeters>NAN</DistanceMeters>
          </Trackpoint>
          <Trackpoint>
            <Time>2022-07-08T15:38:28.000Z</Time>
            <Position>
              <LatitudeDegrees>43.34753653965890407562255859375</LatitudeDegrees>
              <LongitudeDegrees>-1.78686342202126979827880859375</LongitudeDegrees>
            </Position>
            <AltitudeMeters>28.799999237060546875</AltitudeMeters>
            <DistanceMeters>NAN</DistanceMeters>
          </Trackpoint>
          <Trackpoint>
            <Time>2022-07-08T15:38:32.000Z</Time>
            <Position>
              <LatitudeDegrees>43.3475699834525585174560546875</LatitudeDegrees>
              <LongitudeDegrees>-1.78666862659156322479248046875</LongitudeDegrees>
            </Position>
            <AltitudeMeters>29</AltitudeMeters>
            <DistanceMeters>NAN</DistanceMeters>
          </Trackpoint>
          <Trackpoint>
            <Time>2022-07-08T15:38:37.000Z</Time>
            <Position>
              <LatitudeDegrees>43.347670733928680419921875</LatitudeDegrees>
              <LongitudeDegrees>-1.78646293468773365020751953125</LongitudeDegrees>
            </Position>
            <AltitudeMeters>29.3999996185302734375</AltitudeMeters>
            <DistanceMeters>NAN</DistanceMeters>
          </Trackpoint>
          <Trackpoint>
            <Time>2022-07-08T15:38:42.000Z</Time>
            <Position>
              <LatitudeDegrees>43.34784834645688533782958984375</LatitudeDegrees>
              <LongitudeDegrees>-1.7864026688039302825927734375</LongitudeDegrees>
            </Position>
            <AltitudeMeters>29.799999237060546875</AltitudeMeters>
            <DistanceMeters>NAN</DistanceMeters>
          </Trackpoint>
          <Trackpoint>
            <Time>2022-07-08T15:38:43.000Z</Time>
            <Position>
              <LatitudeDegrees>43.34788304753601551055908203125</LatitudeDegrees>
              <LongitudeDegrees>-1.78639386780560016632080078125</LongitudeDegrees>
            </Position>
            <AltitudeMeters>29.799999237060546875</AltitudeMeters>
            <DistanceMeters>NAN</DistanceMeters>
          </Trackpoint>
          <Trackpoint>
            <Time>2022-07-08T15:38:49.000Z</Time>
            <Position>
              <LatitudeDegrees>43.34806912578642368316650390625</LatitudeDegrees>
              <LongitudeDegrees>-1.7862688936293125152587890625</LongitudeDegrees>
            </Position>
            <AltitudeMeters>30</AltitudeMeters>
            <DistanceMeters>NAN</DistanceMeters>
          </Trackpoint>
          <Trackpoint>
            <Time>2022-07-08T15:38:53.000Z</Time>
            <Position>
              <LatitudeDegrees>43.34812209941446781158447265625</LatitudeDegrees>
              <LongitudeDegrees>-1.78615766577422618865966796875</LongitudeDegrees>
            </Position>
            <AltitudeMeters>30</AltitudeMeters>
            <DistanceMeters>NAN</DistanceMeters>
          </Trackpoint>
          <Trackpoint>
            <Time>2022-07-08T15:39:00.000Z</Time>
            <Position>
              <LatitudeDegrees>43.348245732486248016357421875</LatitudeDegrees>
              <LongitudeDegrees>-1.78598332218825817108154296875</LongitudeDegrees>
            </Position>
            <AltitudeMeters>30.200000762939453125</AltitudeMeters>
            <DistanceMeters>NAN</DistanceMeters>
          </Trackpoint>
          <Trackpoint>
            <Time>2022-07-08T15:39:07.000Z</Time>
            <Position>
              <LatitudeDegrees>43.3483904041349887847900390625</LatitudeDegrees>
              <LongitudeDegrees>-1.7857981659471988677978515625</LongitudeDegrees>
            </Position>
            <AltitudeMeters>30.799999237060546875</AltitudeMeters>
            <DistanceMeters>NAN</DistanceMeters>
          </Trackpoint>
          <Trackpoint>
            <Time>2022-07-08T15:39:09.000Z</Time>
            <Position>
              <LatitudeDegrees>43.34842778742313385009765625</LatitudeDegrees>
              <LongitudeDegrees>-1.78575365804135799407958984375</LongitudeDegrees>
            </Position>
            <AltitudeMeters>31</AltitudeMeters>
            <DistanceMeters>NAN</DistanceMeters>
          </Trackpoint>
          <Trackpoint>
            <Time>2022-07-08T15:39:12.000Z</Time>
            <Position>
              <LatitudeDegrees>43.34849190898239612579345703125</LatitudeDegrees>
              <LongitudeDegrees>-1.785677969455718994140625</LongitudeDegrees>
            </Position>
            <AltitudeMeters>31.200000762939453125</AltitudeMeters>
            <DistanceMeters>NAN</DistanceMeters>
          </Trackpoint>
          <Trackpoint>
            <Time>2022-07-08T15:39:19.000Z</Time>
            <Position>
              <LatitudeDegrees>43.348612524569034576416015625</LatitudeDegrees>
              <LongitudeDegrees>-1.7855182103812694549560546875</LongitudeDegrees>
            </Position>
            <AltitudeMeters>31.6000003814697265625</AltitudeMeters>
            <DistanceMeters>NAN</DistanceMeters>
          </Trackpoint>
          <Trackpoint>
            <Time>2022-07-08T15:39:22.000Z</Time>
            <Position>
              <LatitudeDegrees>43.348662815988063812255859375</LatitudeDegrees>
              <LongitudeDegrees>-1.78544671274721622467041015625</LongitudeDegrees>
            </Position>
            <AltitudeMeters>32</AltitudeMeters>
            <DistanceMeters>NAN</DistanceMeters>
          </Trackpoint>
          <Trackpoint>
            <Time>2022-07-08T15:39:25.000Z</Time>
            <Position>
              <LatitudeDegrees>43.34871335886418819427490234375</LatitudeDegrees>
              <LongitudeDegrees>-1.78537546657025814056396484375</LongitudeDegrees>
            </Position>
            <AltitudeMeters>32.200000762939453125</AltitudeMeters>
            <DistanceMeters>NAN</DistanceMeters>
          </Trackpoint>
          <Trackpoint>
            <Time>2022-07-08T15:39:30.000Z</Time>
            <Position>
              <LatitudeDegrees>43.348809666931629180908203125</LatitudeDegrees>
              <LongitudeDegrees>-1.78525711409747600555419921875</LongitudeDegrees>
            </Position>
            <AltitudeMeters>32.59999847412109375</AltitudeMeters>
            <DistanceMeters>NAN</DistanceMeters>
          </Trackpoint>
          <Trackpoint>
            <Time>2022-07-08T15:39:33.000Z</Time>
            <Position>
              <LatitudeDegrees>43.348855935037136077880859375</LatitudeDegrees>
              <LongitudeDegrees>-1.7852057330310344696044921875</LongitudeDegrees>
            </Position>
            <AltitudeMeters>32.59999847412109375</AltitudeMeters>
            <DistanceMeters>NAN</DistanceMeters>
          </Trackpoint>
          <Trackpoint>
            <Time>2022-07-08T15:39:37.000Z</Time>
            <Position>
              <LatitudeDegrees>43.348903544247150421142578125</LatitudeDegrees>
              <LongitudeDegrees>-1.7851427011191844940185546875</LongitudeDegrees>
            </Position>
            <AltitudeMeters>32.59999847412109375</AltitudeMeters>
            <DistanceMeters>NAN</DistanceMeters>
          </Trackpoint>
          <Trackpoint>
            <Time>2022-07-08T15:39:39.000Z</Time>
            <Position>
              <LatitudeDegrees>43.34892525337636470794677734375</LatitudeDegrees>
              <LongitudeDegrees>-1.78512468002736568450927734375</LongitudeDegrees>
            </Position>
            <AltitudeMeters>32.799999237060546875</AltitudeMeters>
            <DistanceMeters>NAN</DistanceMeters>
          </Trackpoint>
          <Trackpoint>
            <Time>2022-07-08T15:39:43.000Z</Time>
            <Position>
              <LatitudeDegrees>43.34893682040274143218994140625</LatitudeDegrees>
              <LongitudeDegrees>-1.78511294536292552947998046875</LongitudeDegrees>
            </Position>
            <AltitudeMeters>32.799999237060546875</AltitudeMeters>
            <DistanceMeters>NAN</DistanceMeters>
          </Trackpoint>
          <Trackpoint>
            <Time>2022-07-08T15:39:52.000Z</Time>
            <Position>
              <LatitudeDegrees>43.34899616427719593048095703125</LatitudeDegrees>
              <LongitudeDegrees>-1.7851527594029903411865234375</LongitudeDegrees>
            </Position>
            <AltitudeMeters>33</AltitudeMeters>
            <DistanceMeters>NAN</DistanceMeters>
          </Trackpoint>
          <Trackpoint>
            <Time>2022-07-08T15:39:53.000Z</Time>
            <Position>
              <LatitudeDegrees>43.34900069050490856170654296875</LatitudeDegrees>
              <LongitudeDegrees>-1.7851561121642589569091796875</LongitudeDegrees>
            </Position>
            <AltitudeMeters>33</AltitudeMeters>
            <DistanceMeters>NAN</DistanceMeters>
          </Trackpoint>
          <Trackpoint>
            <Time>2022-07-08T15:39:55.000Z</Time>
            <Position>
              <LatitudeDegrees>43.34900069050490856170654296875</LatitudeDegrees>
              <LongitudeDegrees>-1.7851561121642589569091796875</LongitudeDegrees>
            </Position>
            <AltitudeMeters>33</AltitudeMeters>
            <DistanceMeters>NAN</DistanceMeters>
          </Trackpoint>
          <Trackpoint>
            <Time>2022-07-08T15:40:18.000Z</Time>
            <Position>
              <LatitudeDegrees>43.34901913069188594818115234375</LatitudeDegrees>
              <LongitudeDegrees>-1.78517413325607776641845703125</LongitudeDegrees>
            </Position>
            <AltitudeMeters>33</AltitudeMeters>
            <DistanceMeters>NAN</DistanceMeters>
          </Trackpoint>
          <Trackpoint>
            <Time>2022-07-08T15:40:19.000Z</Time>
            <Position>
              <LatitudeDegrees>43.34903664886951446533203125</LatitudeDegrees>
              <LongitudeDegrees>-1.78518888540565967559814453125</LongitudeDegrees>
            </Position>
            <AltitudeMeters>33.200000762939453125</AltitudeMeters>
            <DistanceMeters>NAN</DistanceMeters>
          </Trackpoint>
          <Trackpoint>
            <Time>2022-07-08T15:40:22.000Z</Time>
            <Position>
              <LatitudeDegrees>43.349083922803401947021484375</LatitudeDegrees>
              <LongitudeDegrees>-1.7851906456053256988525390625</LongitudeDegrees>
            </Position>
            <AltitudeMeters>33.200000762939453125</AltitudeMeters>
            <DistanceMeters>NAN</DistanceMeters>
          </Trackpoint>
          <Trackpoint>
            <Time>2022-07-08T15:40:24.000Z</Time>
            <Position>
              <LatitudeDegrees>43.34911669604480266571044921875</LatitudeDegrees>
              <LongitudeDegrees>-1.78515133447945117950439453125</LongitudeDegrees>
            </Position>
            <AltitudeMeters>33</AltitudeMeters>
            <DistanceMeters>NAN</DistanceMeters>
          </Trackpoint>
          <Trackpoint>
            <Time>2022-07-08T15:40:27.000Z</Time>
            <Position>
              <LatitudeDegrees>43.34916941821575164794921875</LatitudeDegrees>
              <LongitudeDegrees>-1.785076819360256195068359375</LongitudeDegrees>
            </Position>
            <AltitudeMeters>33.200000762939453125</AltitudeMeters>
            <DistanceMeters>NAN</DistanceMeters>
          </Trackpoint>
          <Trackpoint>
            <Time>2022-07-08T15:40:29.000Z</Time>
            <Position>
              <LatitudeDegrees>43.34920638240873813629150390625</LatitudeDegrees>
              <LongitudeDegrees>-1.785028874874114990234375</LongitudeDegrees>
            </Position>
            <AltitudeMeters>33.40000152587890625</AltitudeMeters>
            <DistanceMeters>NAN</DistanceMeters>
          </Trackpoint>
          <Trackpoint>
            <Time>2022-07-08T15:40:38.000Z</Time>
            <Position>
              <LatitudeDegrees>43.3493241481482982635498046875</LatitudeDegrees>
              <LongitudeDegrees>-1.78485696204006671905517578125</LongitudeDegrees>
            </Position>
            <AltitudeMeters>32.40000152587890625</AltitudeMeters>
            <DistanceMeters>NAN</DistanceMeters>
          </Trackpoint>
          <Trackpoint>
            <Time>2022-07-08T15:40:47.000Z</Time>
            <Position>
              <LatitudeDegrees>43.34943252615630626678466796875</LatitudeDegrees>
              <LongitudeDegrees>-1.78474548272788524627685546875</LongitudeDegrees>
            </Position>
            <AltitudeMeters>32.59999847412109375</AltitudeMeters>
            <DistanceMeters>NAN</DistanceMeters>
          </Trackpoint>
          <Trackpoint>
            <Time>2022-07-08T15:40:51.000Z</Time>
            <Position>
              <LatitudeDegrees>43.3494445122778415679931640625</LatitudeDegrees>
              <LongitudeDegrees>-1.7847272939980030059814453125</LongitudeDegrees>
            </Position>
            <AltitudeMeters>32.799999237060546875</AltitudeMeters>
            <DistanceMeters>NAN</DistanceMeters>
          </Trackpoint>
          <Trackpoint>
            <Time>2022-07-08T15:40:52.000Z</Time>
            <Position>
              <LatitudeDegrees>43.34943839348852634429931640625</LatitudeDegrees>
              <LongitudeDegrees>-1.78472134284675121307373046875</LongitudeDegrees>
            </Position>
            <AltitudeMeters>33</AltitudeMeters>
            <DistanceMeters>NAN</DistanceMeters>
          </Trackpoint>
          <Trackpoint>
            <Time>2022-07-08T15:40:56.000Z</Time>
            <Position>
              <LatitudeDegrees>43.3494274131953716278076171875</LatitudeDegrees>
              <LongitudeDegrees>-1.78472888655960559844970703125</LongitudeDegrees>
            </Position>
            <AltitudeMeters>33.40000152587890625</AltitudeMeters>
            <DistanceMeters>NAN</DistanceMeters>
          </Trackpoint>
          <Trackpoint>
            <Time>2022-07-08T15:41:11.000Z</Time>
            <Position>
              <LatitudeDegrees>43.3494007587432861328125</LatitudeDegrees>
              <LongitudeDegrees>-1.784790493547916412353515625</LongitudeDegrees>
            </Position>
            <AltitudeMeters>33.200000762939453125</AltitudeMeters>
            <DistanceMeters>NAN</DistanceMeters>
          </Trackpoint>
          <Trackpoint>
            <Time>2022-07-08T15:41:19.000Z</Time>
            <Position>
              <LatitudeDegrees>43.3492587693035602569580078125</LatitudeDegrees>
              <LongitudeDegrees>-1.78498855791985988616943359375</LongitudeDegrees>
            </Position>
            <AltitudeMeters>33.59999847412109375</AltitudeMeters>
            <DistanceMeters>NAN</DistanceMeters>
          </Trackpoint>
          <Trackpoint>
            <Time>2022-07-08T15:41:25.000Z</Time>
            <Position>
              <LatitudeDegrees>43.34910093806684017181396484375</LatitudeDegrees>
              <LongitudeDegrees>-1.785157956182956695556640625</LongitudeDegrees>
            </Position>
            <AltitudeMeters>33.59999847412109375</AltitudeMeters>
            <DistanceMeters>NAN</DistanceMeters>
          </Trackpoint>
          <Trackpoint>
            <Time>2022-07-08T15:41:33.000Z</Time>
            <Position>
              <LatitudeDegrees>43.348931372165679931640625</LatitudeDegrees>
              <LongitudeDegrees>-1.785400696098804473876953125</LongitudeDegrees>
            </Position>
            <AltitudeMeters>32.40000152587890625</AltitudeMeters>
            <DistanceMeters>NAN</DistanceMeters>
          </Trackpoint>
          <Trackpoint>
            <Time>2022-07-08T15:41:34.000Z</Time>
            <Position>
              <LatitudeDegrees>43.348933719098567962646484375</LatitudeDegrees>
              <LongitudeDegrees>-1.78542223758995532989501953125</LongitudeDegrees>
            </Position>
            <AltitudeMeters>32.40000152587890625</AltitudeMeters>
            <DistanceMeters>NAN</DistanceMeters>
          </Trackpoint>
          <Trackpoint>
            <Time>2022-07-08T15:41:36.000Z</Time>
            <Position>
              <LatitudeDegrees>43.34894889034330844879150390625</LatitudeDegrees>
              <LongitudeDegrees>-1.78543430753052234649658203125</LongitudeDegrees>
            </Position>
            <AltitudeMeters>32.200000762939453125</AltitudeMeters>
            <DistanceMeters>NAN</DistanceMeters>
          </Trackpoint>
          <Trackpoint>
            <Time>2022-07-08T15:41:38.000Z</Time>
            <Position>
              <LatitudeDegrees>43.34894889034330844879150390625</LatitudeDegrees>
              <LongitudeDegrees>-1.78543430753052234649658203125</LongitudeDegrees>
            </Position>
            <AltitudeMeters>32.200000762939453125</AltitudeMeters>
            <DistanceMeters>NAN</DistanceMeters>
          </Trackpoint>
          <Trackpoint>
            <Time>2022-07-08T15:46:10.000Z</Time>
            <Position>
              <LatitudeDegrees>43.3489117585122585296630859375</LatitudeDegrees>
              <LongitudeDegrees>-1.78543548099696636199951171875</LongitudeDegrees>
            </Position>
            <AltitudeMeters>30.6000003814697265625</AltitudeMeters>
            <DistanceMeters>NAN</DistanceMeters>
          </Trackpoint>
          <Trackpoint>
            <Time>2022-07-08T15:46:11.000Z</Time>
            <Position>
              <LatitudeDegrees>43.348888121545314788818359375</LatitudeDegrees>
              <LongitudeDegrees>-1.785462386906147003173828125</LongitudeDegrees>
            </Position>
            <AltitudeMeters>30.6000003814697265625</AltitudeMeters>
            <DistanceMeters>NAN</DistanceMeters>
          </Trackpoint>
          <Trackpoint>
            <Time>2022-07-08T15:46:12.000Z</Time>
            <Position>
              <LatitudeDegrees>43.34885962307453155517578125</LatitudeDegrees>
              <LongitudeDegrees>-1.78549264557659626007080078125</LongitudeDegrees>
            </Position>
            <AltitudeMeters>30.6000003814697265625</AltitudeMeters>
            <DistanceMeters>NAN</DistanceMeters>
          </Trackpoint>
          <Trackpoint>
            <Time>2022-07-08T15:46:17.000Z</Time>
            <Position>
              <LatitudeDegrees>43.34870598278939723968505859375</LatitudeDegrees>
              <LongitudeDegrees>-1.78569749929010868072509765625</LongitudeDegrees>
            </Position>
            <AltitudeMeters>30.3999996185302734375</AltitudeMeters>
            <DistanceMeters>NAN</DistanceMeters>
          </Trackpoint>
          <Trackpoint>
            <Time>2022-07-08T15:46:22.000Z</Time>
            <Position>
              <LatitudeDegrees>43.3485288731753826141357421875</LatitudeDegrees>
              <LongitudeDegrees>-1.78592096082866191864013671875</LongitudeDegrees>
            </Position>
            <AltitudeMeters>30</AltitudeMeters>
            <DistanceMeters>NAN</DistanceMeters>
          </Trackpoint>
          <Trackpoint>
            <Time>2022-07-08T15:46:24.000Z</Time>
            <Position>
              <LatitudeDegrees>43.34845058619976043701171875</LatitudeDegrees>
              <LongitudeDegrees>-1.7860167659819126129150390625</LongitudeDegrees>
            </Position>
            <AltitudeMeters>29.6000003814697265625</AltitudeMeters>
            <DistanceMeters>NAN</DistanceMeters>
          </Trackpoint>
          <Trackpoint>
            <Time>2022-07-08T15:46:30.000Z</Time>
            <Position>
              <LatitudeDegrees>43.34826526232063770294189453125</LatitudeDegrees>
              <LongitudeDegrees>-1.78626176901161670684814453125</LongitudeDegrees>
            </Position>
            <AltitudeMeters>28.200000762939453125</AltitudeMeters>
            <DistanceMeters>NAN</DistanceMeters>
          </Trackpoint>
          <Trackpoint>
            <Time>2022-07-08T15:46:31.000Z</Time>
            <Position>
              <LatitudeDegrees>43.348243720829486846923828125</LatitudeDegrees>
              <LongitudeDegrees>-1.786293201148509979248046875</LongitudeDegrees>
            </Position>
            <AltitudeMeters>28</AltitudeMeters>
            <DistanceMeters>NAN</DistanceMeters>
          </Trackpoint>
          <Trackpoint>
            <Time>2022-07-08T15:46:34.000Z</Time>
            <Position>
              <LatitudeDegrees>43.348198793828487396240234375</LatitudeDegrees>
              <LongitudeDegrees>-1.7863738350570201873779296875</LongitudeDegrees>
            </Position>
            <AltitudeMeters>27.799999237060546875</AltitudeMeters>
            <DistanceMeters>NAN</DistanceMeters>
          </Trackpoint>
          <Trackpoint>
            <Time>2022-07-08T15:46:36.000Z</Time>
            <Position>
              <LatitudeDegrees>43.3482043258845806121826171875</LatitudeDegrees>
              <LongitudeDegrees>-1.78643125109374523162841796875</LongitudeDegrees>
            </Position>
            <AltitudeMeters>27.6000003814697265625</AltitudeMeters>
            <DistanceMeters>NAN</DistanceMeters>
          </Trackpoint>
          <Trackpoint>
            <Time>2022-07-08T15:46:37.000Z</Time>
            <Position>
              <LatitudeDegrees>43.34820021875202655792236328125</LatitudeDegrees>
              <LongitudeDegrees>-1.7864596657454967498779296875</LongitudeDegrees>
            </Position>
            <AltitudeMeters>27.3999996185302734375</AltitudeMeters>
            <DistanceMeters>NAN</DistanceMeters>
          </Trackpoint>
          <Trackpoint>
            <Time>2022-07-08T15:46:38.000Z</Time>
            <Position>
              <LatitudeDegrees>43.3481825329363346099853515625</LatitudeDegrees>
              <LongitudeDegrees>-1.7864911817014217376708984375</LongitudeDegrees>
            </Position>
            <AltitudeMeters>27.200000762939453125</AltitudeMeters>
            <DistanceMeters>NAN</DistanceMeters>
          </Trackpoint>
          <Trackpoint>
            <Time>2022-07-08T15:46:40.000Z</Time>
            <Position>
              <LatitudeDegrees>43.34813232533633708953857421875</LatitudeDegrees>
              <LongitudeDegrees>-1.78656284697353839874267578125</LongitudeDegrees>
            </Position>
            <AltitudeMeters>27.200000762939453125</AltitudeMeters>
            <DistanceMeters>NAN</DistanceMeters>
          </Trackpoint>
          <Trackpoint>
            <Time>2022-07-08T15:46:43.000Z</Time>
            <Position>
              <LatitudeDegrees>43.34806300699710845947265625</LatitudeDegrees>
              <LongitudeDegrees>-1.78669829852879047393798828125</LongitudeDegrees>
            </Position>
            <AltitudeMeters>27</AltitudeMeters>
            <DistanceMeters>NAN</DistanceMeters>
          </Trackpoint>
          <Trackpoint>
            <Time>2022-07-08T15:46:45.000Z</Time>
            <Position>
              <LatitudeDegrees>43.34804481826722621917724609375</LatitudeDegrees>
              <LongitudeDegrees>-1.78681162185966968536376953125</LongitudeDegrees>
            </Position>
            <AltitudeMeters>27</AltitudeMeters>
            <DistanceMeters>NAN</DistanceMeters>
          </Trackpoint>
          <Trackpoint>
            <Time>2022-07-08T15:46:47.000Z</Time>
            <Position>
              <LatitudeDegrees>43.3480319939553737640380859375</LatitudeDegrees>
              <LongitudeDegrees>-1.78693282417953014373779296875</LongitudeDegrees>
            </Position>
            <AltitudeMeters>27</AltitudeMeters>
            <DistanceMeters>NAN</DistanceMeters>
          </Trackpoint>
          <Trackpoint>
            <Time>2022-07-08T15:46:49.000Z</Time>
            <Position>
              <LatitudeDegrees>43.3479998074471950531005859375</LatitudeDegrees>
              <LongitudeDegrees>-1.78704497404396533966064453125</LongitudeDegrees>
            </Position>
            <AltitudeMeters>27</AltitudeMeters>
            <DistanceMeters>NAN</DistanceMeters>
          </Trackpoint>
          <Trackpoint>
            <Time>2022-07-08T15:46:50.000Z</Time>
            <Position>
              <LatitudeDegrees>43.34798094816505908966064453125</LatitudeDegrees>
              <LongitudeDegrees>-1.78708839230239391326904296875</LongitudeDegrees>
            </Position>
            <AltitudeMeters>27</AltitudeMeters>
            <DistanceMeters>NAN</DistanceMeters>
          </Trackpoint>
          <Trackpoint>
            <Time>2022-07-08T15:46:53.000Z</Time>
            <Position>
              <LatitudeDegrees>43.34793266840279102325439453125</LatitudeDegrees>
              <LongitudeDegrees>-1.787165589630603790283203125</LongitudeDegrees>
            </Position>
            <AltitudeMeters>27</AltitudeMeters>
            <DistanceMeters>NAN</DistanceMeters>
          </Trackpoint>
          <Trackpoint>
            <Time>2022-07-08T15:46:54.000Z</Time>
            <Position>
              <LatitudeDegrees>43.347921185195446014404296875</LatitudeDegrees>
              <LongitudeDegrees>-1.78717606700956821441650390625</LongitudeDegrees>
            </Position>
            <AltitudeMeters>27</AltitudeMeters>
            <DistanceMeters>NAN</DistanceMeters>
          </Trackpoint>
          <Trackpoint>
            <Time>2022-07-08T15:46:59.000Z</Time>
            <Position>
              <LatitudeDegrees>43.347803838551044464111328125</LatitudeDegrees>
              <LongitudeDegrees>-1.787235997617244720458984375</LongitudeDegrees>
            </Position>
            <AltitudeMeters>27</AltitudeMeters>
            <DistanceMeters>NAN</DistanceMeters>
          </Trackpoint>
          <Trackpoint>
            <Time>2022-07-08T15:47:03.000Z</Time>
            <Position>
              <LatitudeDegrees>43.3476561494171619415283203125</LatitudeDegrees>
              <LongitudeDegrees>-1.7872059904038906097412109375</LongitudeDegrees>
            </Position>
            <AltitudeMeters>26.799999237060546875</AltitudeMeters>
            <DistanceMeters>NAN</DistanceMeters>
          </Trackpoint>
          <Trackpoint>
            <Time>2022-07-08T15:47:08.000Z</Time>
            <Position>
              <LatitudeDegrees>43.34746562875807285308837890625</LatitudeDegrees>
              <LongitudeDegrees>-1.78715310059487819671630859375</LongitudeDegrees>
            </Position>
            <AltitudeMeters>27</AltitudeMeters>
            <DistanceMeters>NAN</DistanceMeters>
          </Trackpoint>
          <Trackpoint>
            <Time>2022-07-08T15:47:10.000Z</Time>
            <Position>
              <LatitudeDegrees>43.34741617552936077117919921875</LatitudeDegrees>
              <LongitudeDegrees>-1.787154190242290496826171875</LongitudeDegrees>
            </Position>
            <AltitudeMeters>27</AltitudeMeters>
            <DistanceMeters>NAN</DistanceMeters>
          </Trackpoint>
          <Trackpoint>
            <Time>2022-07-08T15:47:12.000Z</Time>
            <Position>
              <LatitudeDegrees>43.34735984914004802703857421875</LatitudeDegrees>
              <LongitudeDegrees>-1.78715921938419342041015625</LongitudeDegrees>
            </Position>
            <AltitudeMeters>26.799999237060546875</AltitudeMeters>
            <DistanceMeters>NAN</DistanceMeters>
          </Trackpoint>
          <Trackpoint>
            <Time>2022-07-08T15:47:17.000Z</Time>
            <Position>
              <LatitudeDegrees>43.34715315140783786773681640625</LatitudeDegrees>
              <LongitudeDegrees>-1.7872633226215839385986328125</LongitudeDegrees>
            </Position>
            <AltitudeMeters>26.799999237060546875</AltitudeMeters>
            <DistanceMeters>NAN</DistanceMeters>
          </Trackpoint>
          <Trackpoint>
            <Time>2022-07-08T15:47:25.000Z</Time>
            <Position>
              <LatitudeDegrees>43.34680010564625263214111328125</LatitudeDegrees>
              <LongitudeDegrees>-1.7874212376773357391357421875</LongitudeDegrees>
            </Position>
            <AltitudeMeters>26.6000003814697265625</AltitudeMeters>
            <DistanceMeters>NAN</DistanceMeters>
          </Trackpoint>
          <Trackpoint>
            <Time>2022-07-08T15:47:33.000Z</Time>
            <Position>
              <LatitudeDegrees>43.34641604684293270111083984375</LatitudeDegrees>
              <LongitudeDegrees>-1.78758661262691020965576171875</LongitudeDegrees>
            </Position>
            <AltitudeMeters>26.6000003814697265625</AltitudeMeters>
            <DistanceMeters>NAN</DistanceMeters>
          </Trackpoint>
          <Trackpoint>
            <Time>2022-07-08T15:47:34.000Z</Time>
            <Position>
              <LatitudeDegrees>43.3463676832616329193115234375</LatitudeDegrees>
              <LongitudeDegrees>-1.78761159069836139678955078125</LongitudeDegrees>
            </Position>
            <AltitudeMeters>26.6000003814697265625</AltitudeMeters>
            <DistanceMeters>NAN</DistanceMeters>
          </Trackpoint>
          <Trackpoint>
            <Time>2022-07-08T15:47:43.000Z</Time>
            <Position>
              <LatitudeDegrees>43.345955125987529754638671875</LatitudeDegrees>
              <LongitudeDegrees>-1.78780504502356052398681640625</LongitudeDegrees>
            </Position>
            <AltitudeMeters>27</AltitudeMeters>
            <DistanceMeters>NAN</DistanceMeters>
          </Trackpoint>
          <Trackpoint>
            <Time>2022-07-08T15:47:45.000Z</Time>
            <Position>
              <LatitudeDegrees>43.34586636163294315338134765625</LatitudeDegrees>
              <LongitudeDegrees>-1.7878467030823230743408203125</LongitudeDegrees>
            </Position>
            <AltitudeMeters>27.200000762939453125</AltitudeMeters>
            <DistanceMeters>NAN</DistanceMeters>
          </Trackpoint>
          <Trackpoint>
            <Time>2022-07-08T15:47:47.000Z</Time>
            <Position>
              <LatitudeDegrees>43.34578908048570156097412109375</LatitudeDegrees>
              <LongitudeDegrees>-1.78791937418282032012939453125</LongitudeDegrees>
            </Position>
            <AltitudeMeters>27.200000762939453125</AltitudeMeters>
            <DistanceMeters>NAN</DistanceMeters>
          </Trackpoint>
          <Trackpoint>
            <Time>2022-07-08T15:47:48.000Z</Time>
            <Position>
              <LatitudeDegrees>43.34575806744396686553955078125</LatitudeDegrees>
              <LongitudeDegrees>-1.78796849213540554046630859375</LongitudeDegrees>
            </Position>
            <AltitudeMeters>27.200000762939453125</AltitudeMeters>
            <DistanceMeters>NAN</DistanceMeters>
          </Trackpoint>
          <Trackpoint>
            <Time>2022-07-08T15:47:49.000Z</Time>
            <Position>
              <LatitudeDegrees>43.34573275409638881683349609375</LatitudeDegrees>
              <LongitudeDegrees>-1.788021884858608245849609375</LongitudeDegrees>
            </Position>
            <AltitudeMeters>27.200000762939453125</AltitudeMeters>
            <DistanceMeters>NAN</DistanceMeters>
          </Trackpoint>
          <Trackpoint>
            <Time>2022-07-08T15:47:51.000Z</Time>
            <Position>
              <LatitudeDegrees>43.34568950347602367401123046875</LatitudeDegrees>
              <LongitudeDegrees>-1.78813395090401172637939453125</LongitudeDegrees>
            </Position>
            <AltitudeMeters>27.3999996185302734375</AltitudeMeters>
            <DistanceMeters>NAN</DistanceMeters>
          </Trackpoint>
          <Trackpoint>
            <Time>2022-07-08T15:47:53.000Z</Time>
            <Position>
              <LatitudeDegrees>43.34562890231609344482421875</LatitudeDegrees>
              <LongitudeDegrees>-1.7882141657173633575439453125</LongitudeDegrees>
            </Position>
            <AltitudeMeters>27.200000762939453125</AltitudeMeters>
            <DistanceMeters>NAN</DistanceMeters>
          </Trackpoint>
          <Trackpoint>
            <Time>2022-07-08T15:47:54.000Z</Time>
            <Position>
              <LatitudeDegrees>43.3455881662666797637939453125</LatitudeDegrees>
              <LongitudeDegrees>-1.78824308328330516815185546875</LongitudeDegrees>
            </Position>
            <AltitudeMeters>27.200000762939453125</AltitudeMeters>
            <DistanceMeters>NAN</DistanceMeters>
          </Trackpoint>
          <Trackpoint>
            <Time>2022-07-08T15:47:55.000Z</Time>
            <Position>
              <LatitudeDegrees>43.34554248489439487457275390625</LatitudeDegrees>
              <LongitudeDegrees>-1.78825599141418933868408203125</LongitudeDegrees>
            </Position>
            <AltitudeMeters>27.200000762939453125</AltitudeMeters>
            <DistanceMeters>NAN</DistanceMeters>
          </Trackpoint>
          <Trackpoint>
            <Time>2022-07-08T15:47:56.000Z</Time>
            <Position>
              <LatitudeDegrees>43.34549403749406337738037109375</LatitudeDegrees>
              <LongitudeDegrees>-1.78825490176677703857421875</LongitudeDegrees>
            </Position>
            <AltitudeMeters>27.200000762939453125</AltitudeMeters>
            <DistanceMeters>NAN</DistanceMeters>
          </Trackpoint>
          <Trackpoint>
            <Time>2022-07-08T15:47:57.000Z</Time>
            <Position>
              <LatitudeDegrees>43.3454463444650173187255859375</LatitudeDegrees>
              <LongitudeDegrees>-1.78824492730200290679931640625</LongitudeDegrees>
            </Position>
            <AltitudeMeters>27.200000762939453125</AltitudeMeters>
            <DistanceMeters>NAN</DistanceMeters>
          </Trackpoint>
          <Trackpoint>
            <Time>2022-07-08T15:47:59.000Z</Time>
            <Position>
              <LatitudeDegrees>43.34536143578588962554931640625</LatitudeDegrees>
              <LongitudeDegrees>-1.78819949738681316375732421875</LongitudeDegrees>
            </Position>
            <AltitudeMeters>27.200000762939453125</AltitudeMeters>
            <DistanceMeters>NAN</DistanceMeters>
          </Trackpoint>
          <Trackpoint>
            <Time>2022-07-08T15:48:00.000Z</Time>
            <Position>
              <LatitudeDegrees>43.3453162573277950286865234375</LatitudeDegrees>
              <LongitudeDegrees>-1.78817669861018657684326171875</LongitudeDegrees>
            </Position>
            <AltitudeMeters>27.200000762939453125</AltitudeMeters>
            <DistanceMeters>NAN</DistanceMeters>
          </Trackpoint>
          <Trackpoint>
            <Time>2022-07-08T15:48:02.000Z</Time>
            <Position>
              <LatitudeDegrees>43.34522447548806667327880859375</LatitudeDegrees>
              <LongitudeDegrees>-1.78816328756511211395263671875</LongitudeDegrees>
            </Position>
            <AltitudeMeters>27.3999996185302734375</AltitudeMeters>
            <DistanceMeters>NAN</DistanceMeters>
          </Trackpoint>
          <Trackpoint>
            <Time>2022-07-08T15:48:04.000Z</Time>
            <Position>
              <LatitudeDegrees>43.34513244219124317169189453125</LatitudeDegrees>
              <LongitudeDegrees>-1.7881880141794681549072265625</LongitudeDegrees>
            </Position>
            <AltitudeMeters>27.6000003814697265625</AltitudeMeters>
            <DistanceMeters>NAN</DistanceMeters>
          </Trackpoint>
          <Trackpoint>
            <Time>2022-07-08T15:48:12.000Z</Time>
            <Position>
              <LatitudeDegrees>43.3447493053972721099853515625</LatitudeDegrees>
              <LongitudeDegrees>-1.7883744277060031890869140625</LongitudeDegrees>
            </Position>
            <AltitudeMeters>27.6000003814697265625</AltitudeMeters>
            <DistanceMeters>NAN</DistanceMeters>
          </Trackpoint>
          <Trackpoint>
            <Time>2022-07-08T15:48:15.000Z</Time>
            <Position>
              <LatitudeDegrees>43.34460924379527568817138671875</LatitudeDegrees>
              <LongitudeDegrees>-1.78845413960516452789306640625</LongitudeDegrees>
            </Position>
            <AltitudeMeters>28</AltitudeMeters>
            <DistanceMeters>NAN</DistanceMeters>
          </Trackpoint>
          <Trackpoint>
            <Time>2022-07-08T15:48:19.000Z</Time>
            <Position>
              <LatitudeDegrees>43.34442869760096073150634765625</LatitudeDegrees>
              <LongitudeDegrees>-1.788547597825527191162109375</LongitudeDegrees>
            </Position>
            <AltitudeMeters>27.6000003814697265625</AltitudeMeters>
            <DistanceMeters>NAN</DistanceMeters>
          </Trackpoint>
          <Trackpoint>
            <Time>2022-07-08T15:48:22.000Z</Time>
            <Position>
              <LatitudeDegrees>43.34429626353085041046142578125</LatitudeDegrees>
              <LongitudeDegrees>-1.78861607797443866729736328125</LongitudeDegrees>
            </Position>
            <AltitudeMeters>27.6000003814697265625</AltitudeMeters>
            <DistanceMeters>NAN</DistanceMeters>
          </Trackpoint>
          <Trackpoint>
            <Time>2022-07-08T15:48:24.000Z</Time>
            <Position>
              <LatitudeDegrees>43.3441991172730922698974609375</LatitudeDegrees>
              <LongitudeDegrees>-1.78865329362452030181884765625</LongitudeDegrees>
            </Position>
            <AltitudeMeters>27.799999237060546875</AltitudeMeters>
            <DistanceMeters>NAN</DistanceMeters>
          </Trackpoint>
          <Trackpoint>
            <Time>2022-07-08T15:48:26.000Z</Time>
            <Position>
              <LatitudeDegrees>43.344113789498805999755859375</LatitudeDegrees>
              <LongitudeDegrees>-1.78871079348027706146240234375</LongitudeDegrees>
            </Position>
            <AltitudeMeters>28</AltitudeMeters>
            <DistanceMeters>NAN</DistanceMeters>
          </Trackpoint>
          <Trackpoint>
            <Time>2022-07-08T15:48:30.000Z</Time>
            <Position>
              <LatitudeDegrees>43.34395780228078365325927734375</LatitudeDegrees>
              <LongitudeDegrees>-1.78884708322584629058837890625</LongitudeDegrees>
            </Position>
            <AltitudeMeters>27.799999237060546875</AltitudeMeters>
            <DistanceMeters>NAN</DistanceMeters>
          </Trackpoint>
          <Trackpoint>
            <Time>2022-07-08T15:48:32.000Z</Time>
            <Position>
              <LatitudeDegrees>43.34388722665607929229736328125</LatitudeDegrees>
              <LongitudeDegrees>-1.7889158986508846282958984375</LongitudeDegrees>
            </Position>
            <AltitudeMeters>28</AltitudeMeters>
            <DistanceMeters>NAN</DistanceMeters>
          </Trackpoint>
          <Trackpoint>
            <Time>2022-07-08T15:48:36.000Z</Time>
            <Position>
              <LatitudeDegrees>43.34373786114156246185302734375</LatitudeDegrees>
              <LongitudeDegrees>-1.78912301547825336456298828125</LongitudeDegrees>
            </Position>
            <AltitudeMeters>28.200000762939453125</AltitudeMeters>
            <DistanceMeters>NAN</DistanceMeters>
          </Trackpoint>
          <Trackpoint>
            <Time>2022-07-08T15:48:37.000Z</Time>
            <Position>
              <LatitudeDegrees>43.34370584227144718170166015625</LatitudeDegrees>
              <LongitudeDegrees>-1.78909133188426494598388671875</LongitudeDegrees>
            </Position>
            <AltitudeMeters>28.200000762939453125</AltitudeMeters>
            <DistanceMeters>NAN</DistanceMeters>
          </Trackpoint>
          <Trackpoint>
            <Time>2022-07-08T15:48:39.000Z</Time>
            <Position>
              <LatitudeDegrees>43.34364515729248523712158203125</LatitudeDegrees>
              <LongitudeDegrees>-1.78909485228359699249267578125</LongitudeDegrees>
            </Position>
            <AltitudeMeters>28.200000762939453125</AltitudeMeters>
            <DistanceMeters>NAN</DistanceMeters>
          </Trackpoint>
          <Trackpoint>
            <Time>2022-07-08T15:48:41.000Z</Time>
            <Position>
              <LatitudeDegrees>43.34355211816728115081787109375</LatitudeDegrees>
              <LongitudeDegrees>-1.78908596746623516082763671875</LongitudeDegrees>
            </Position>
            <AltitudeMeters>28.200000762939453125</AltitudeMeters>
            <DistanceMeters>NAN</DistanceMeters>
          </Trackpoint>
          <Trackpoint>
            <Time>2022-07-08T15:48:46.000Z</Time>
            <Position>
              <LatitudeDegrees>43.34337207488715648651123046875</LatitudeDegrees>
              <LongitudeDegrees>-1.78901103325188159942626953125</LongitudeDegrees>
            </Position>
            <AltitudeMeters>28.200000762939453125</AltitudeMeters>
            <DistanceMeters>NAN</DistanceMeters>
          </Trackpoint>
          <Trackpoint>
            <Time>2022-07-08T15:48:47.000Z</Time>
            <Position>
              <LatitudeDegrees>43.3433267287909984588623046875</LatitudeDegrees>
              <LongitudeDegrees>-1.7890211753547191619873046875</LongitudeDegrees>
            </Position>
            <AltitudeMeters>28.200000762939453125</AltitudeMeters>
            <DistanceMeters>NAN</DistanceMeters>
          </Trackpoint>
          <Trackpoint>
            <Time>2022-07-08T15:48:50.000Z</Time>
            <Position>
              <LatitudeDegrees>43.34318247623741626739501953125</LatitudeDegrees>
              <LongitudeDegrees>-1.7890878953039646148681640625</LongitudeDegrees>
            </Position>
            <AltitudeMeters>28</AltitudeMeters>
            <DistanceMeters>NAN</DistanceMeters>
          </Trackpoint>
          <Trackpoint>
            <Time>2022-07-08T15:48:52.000Z</Time>
            <Position>
              <LatitudeDegrees>43.34308859892189502716064453125</LatitudeDegrees>
              <LongitudeDegrees>-1.78913424722850322723388671875</LongitudeDegrees>
            </Position>
            <AltitudeMeters>28</AltitudeMeters>
            <DistanceMeters>NAN</DistanceMeters>
          </Trackpoint>
          <Trackpoint>
            <Time>2022-07-08T15:48:53.000Z</Time>
            <Position>
              <LatitudeDegrees>43.34303981624543666839599609375</LatitudeDegrees>
              <LongitudeDegrees>-1.7891514301300048828125</LongitudeDegrees>
            </Position>
            <AltitudeMeters>28</AltitudeMeters>
            <DistanceMeters>NAN</DistanceMeters>
          </Trackpoint>
          <Trackpoint>
            <Time>2022-07-08T15:48:55.000Z</Time>
            <Position>
              <LatitudeDegrees>43.34294577129185199737548828125</LatitudeDegrees>
              <LongitudeDegrees>-1.78919577039778232574462890625</LongitudeDegrees>
            </Position>
            <AltitudeMeters>28</AltitudeMeters>
            <DistanceMeters>NAN</DistanceMeters>
          </Trackpoint>
          <Trackpoint>
            <Time>2022-07-08T15:48:56.000Z</Time>
            <Position>
              <LatitudeDegrees>43.34288994781672954559326171875</LatitudeDegrees>
              <LongitudeDegrees>-1.78922074846923351287841796875</LongitudeDegrees>
            </Position>
            <AltitudeMeters>28</AltitudeMeters>
            <DistanceMeters>NAN</DistanceMeters>
          </Trackpoint>
          <Trackpoint>
            <Time>2022-07-08T15:48:58.000Z</Time>
            <Position>
              <LatitudeDegrees>43.34281124174594879150390625</LatitudeDegrees>
              <LongitudeDegrees>-1.78924866020679473876953125</LongitudeDegrees>
            </Position>
            <AltitudeMeters>28</AltitudeMeters>
            <DistanceMeters>NAN</DistanceMeters>
          </Trackpoint>
          <Trackpoint>
            <Time>2022-07-08T15:49:01.000Z</Time>
            <Position>
              <LatitudeDegrees>43.34269448183476924896240234375</LatitudeDegrees>
              <LongitudeDegrees>-1.7892949283123016357421875</LongitudeDegrees>
            </Position>
            <AltitudeMeters>28</AltitudeMeters>
            <DistanceMeters>NAN</DistanceMeters>
          </Trackpoint>
          <Trackpoint>
            <Time>2022-07-08T15:49:07.000Z</Time>
            <Position>
              <LatitudeDegrees>43.34247018210589885711669921875</LatitudeDegrees>
              <LongitudeDegrees>-1.7893785797059535980224609375</LongitudeDegrees>
            </Position>
            <AltitudeMeters>28.3999996185302734375</AltitudeMeters>
            <DistanceMeters>NAN</DistanceMeters>
          </Trackpoint>
          <Trackpoint>
            <Time>2022-07-08T15:49:13.000Z</Time>
            <Position>
              <LatitudeDegrees>43.3422400988638401031494140625</LatitudeDegrees>
              <LongitudeDegrees>-1.7894684337079524993896484375</LongitudeDegrees>
            </Position>
            <AltitudeMeters>28.6000003814697265625</AltitudeMeters>
            <DistanceMeters>NAN</DistanceMeters>
          </Trackpoint>
          <Trackpoint>
            <Time>2022-07-08T15:49:15.000Z</Time>
            <Position>
              <LatitudeDegrees>43.3421681821346282958984375</LatitudeDegrees>
              <LongitudeDegrees>-1.78951092995703220367431640625</LongitudeDegrees>
            </Position>
            <AltitudeMeters>28.6000003814697265625</AltitudeMeters>
            <DistanceMeters>NAN</DistanceMeters>
          </Trackpoint>
          <Trackpoint>
            <Time>2022-07-08T15:49:22.000Z</Time>
            <Position>
              <LatitudeDegrees>43.34193684160709381103515625</LatitudeDegrees>
              <LongitudeDegrees>-1.78962911479175090789794921875</LongitudeDegrees>
            </Position>
            <AltitudeMeters>28.6000003814697265625</AltitudeMeters>
            <DistanceMeters>NAN</DistanceMeters>
          </Trackpoint>
          <Trackpoint>
            <Time>2022-07-08T15:49:29.000Z</Time>
            <Position>
              <LatitudeDegrees>43.3416889049112796783447265625</LatitudeDegrees>
              <LongitudeDegrees>-1.78972533904016017913818359375</LongitudeDegrees>
            </Position>
            <AltitudeMeters>29.3999996185302734375</AltitudeMeters>
            <DistanceMeters>NAN</DistanceMeters>
          </Trackpoint>
          <Trackpoint>
            <Time>2022-07-08T15:49:30.000Z</Time>
            <Position>
              <LatitudeDegrees>43.3416558802127838134765625</LatitudeDegrees>
              <LongitudeDegrees>-1.78973824717104434967041015625</LongitudeDegrees>
            </Position>
            <AltitudeMeters>29.3999996185302734375</AltitudeMeters>
            <DistanceMeters>NAN</DistanceMeters>
          </Trackpoint>
          <Trackpoint>
            <Time>2022-07-08T15:49:36.000Z</Time>
            <Position>
              <LatitudeDegrees>43.34149469621479511260986328125</LatitudeDegrees>
              <LongitudeDegrees>-1.7898251675069332122802734375</LongitudeDegrees>
            </Position>
            <AltitudeMeters>30</AltitudeMeters>
            <DistanceMeters>NAN</DistanceMeters>
          </Trackpoint>
          <Trackpoint>
            <Time>2022-07-08T15:49:42.000Z</Time>
            <Position>
              <LatitudeDegrees>43.34133292548358440399169921875</LatitudeDegrees>
              <LongitudeDegrees>-1.789893396198749542236328125</LongitudeDegrees>
            </Position>
            <AltitudeMeters>30.3999996185302734375</AltitudeMeters>
            <DistanceMeters>NAN</DistanceMeters>
          </Trackpoint>
          <Trackpoint>
            <Time>2022-07-08T15:49:43.000Z</Time>
            <Position>
              <LatitudeDegrees>43.34130459465086460113525390625</LatitudeDegrees>
              <LongitudeDegrees>-1.789902113378047943115234375</LongitudeDegrees>
            </Position>
            <AltitudeMeters>30.6000003814697265625</AltitudeMeters>
            <DistanceMeters>NAN</DistanceMeters>
          </Trackpoint>
          <Trackpoint>
            <Time>2022-07-08T15:49:45.000Z</Time>
            <Position>
              <LatitudeDegrees>43.3412483520805835723876953125</LatitudeDegrees>
              <LongitudeDegrees>-1.789931952953338623046875</LongitudeDegrees>
            </Position>
            <AltitudeMeters>30.799999237060546875</AltitudeMeters>
            <DistanceMeters>NAN</DistanceMeters>
          </Trackpoint>
          <Trackpoint>
            <Time>2022-07-08T15:49:47.000Z</Time>
            <Position>
              <LatitudeDegrees>43.34118674509227275848388671875</LatitudeDegrees>
              <LongitudeDegrees>-1.7899562604725360870361328125</LongitudeDegrees>
            </Position>
            <AltitudeMeters>31</AltitudeMeters>
            <DistanceMeters>NAN</DistanceMeters>
          </Trackpoint>
          <Trackpoint>
            <Time>2022-07-08T15:49:50.000Z</Time>
            <Position>
              <LatitudeDegrees>43.34110594354569911956787109375</LatitudeDegrees>
              <LongitudeDegrees>-1.789985261857509613037109375</LongitudeDegrees>
            </Position>
            <AltitudeMeters>31.3999996185302734375</AltitudeMeters>
            <DistanceMeters>NAN</DistanceMeters>
          </Trackpoint>
          <Trackpoint>
            <Time>2022-07-08T15:49:52.000Z</Time>
            <Position>
              <LatitudeDegrees>43.34105833433568477630615234375</LatitudeDegrees>
              <LongitudeDegrees>-1.79001635871827602386474609375</LongitudeDegrees>
            </Position>
            <AltitudeMeters>31.799999237060546875</AltitudeMeters>
            <DistanceMeters>NAN</DistanceMeters>
          </Trackpoint>
          <Trackpoint>
            <Time>2022-07-08T15:49:53.000Z</Time>
            <Position>
              <LatitudeDegrees>43.34103402681648731231689453125</LatitudeDegrees>
              <LongitudeDegrees>-1.79003412835299968719482421875</LongitudeDegrees>
            </Position>
            <AltitudeMeters>32</AltitudeMeters>
            <DistanceMeters>NAN</DistanceMeters>
          </Trackpoint>
          <Trackpoint>
            <Time>2022-07-08T15:49:55.000Z</Time>
            <Position>
              <LatitudeDegrees>43.3409844897687435150146484375</LatitudeDegrees>
              <LongitudeDegrees>-1.790064387023448944091796875</LongitudeDegrees>
            </Position>
            <AltitudeMeters>32.200000762939453125</AltitudeMeters>
            <DistanceMeters>NAN</DistanceMeters>
          </Trackpoint>
          <Trackpoint>
            <Time>2022-07-08T15:49:57.000Z</Time>
            <Position>
              <LatitudeDegrees>43.3409412391483783721923828125</LatitudeDegrees>
              <LongitudeDegrees>-1.7900995910167694091796875</LongitudeDegrees>
            </Position>
            <AltitudeMeters>32.40000152587890625</AltitudeMeters>
            <DistanceMeters>NAN</DistanceMeters>
          </Trackpoint>
          <Trackpoint>
            <Time>2022-07-08T15:49:59.000Z</Time>
            <Position>
              <LatitudeDegrees>43.3408932946622371673583984375</LatitudeDegrees>
              <LongitudeDegrees>-1.79011367261409759521484375</LongitudeDegrees>
            </Position>
            <AltitudeMeters>32.799999237060546875</AltitudeMeters>
            <DistanceMeters>NAN</DistanceMeters>
          </Trackpoint>
          <Trackpoint>
            <Time>2022-07-08T15:50:04.000Z</Time>
            <Position>
              <LatitudeDegrees>43.3407762832939624786376953125</LatitudeDegrees>
              <LongitudeDegrees>-1.79016404785215854644775390625</LongitudeDegrees>
            </Position>
            <AltitudeMeters>33.799999237060546875</AltitudeMeters>
            <DistanceMeters>NAN</DistanceMeters>
          </Trackpoint>
          <Trackpoint>
            <Time>2022-07-08T15:50:05.000Z</Time>
            <Position>
              <LatitudeDegrees>43.34075340069830417633056640625</LatitudeDegrees>
              <LongitudeDegrees>-1.79017444141209125518798828125</LongitudeDegrees>
            </Position>
            <AltitudeMeters>33.799999237060546875</AltitudeMeters>
            <DistanceMeters>NAN</DistanceMeters>
          </Trackpoint>
          <Trackpoint>
            <Time>2022-07-08T15:50:08.000Z</Time>
            <Position>
              <LatitudeDegrees>43.34068265743553638458251953125</LatitudeDegrees>
              <LongitudeDegrees>-1.7902063764631748199462890625</LongitudeDegrees>
            </Position>
            <AltitudeMeters>34</AltitudeMeters>
            <DistanceMeters>NAN</DistanceMeters>
          </Trackpoint>
          <Trackpoint>
            <Time>2022-07-08T15:50:13.000Z</Time>
            <Position>
              <LatitudeDegrees>43.34059481509029865264892578125</LatitudeDegrees>
              <LongitudeDegrees>-1.790247447788715362548828125</LongitudeDegrees>
            </Position>
            <AltitudeMeters>34.40000152587890625</AltitudeMeters>
            <DistanceMeters>NAN</DistanceMeters>
          </Trackpoint>
          <Trackpoint>
            <Time>2022-07-08T15:50:15.000Z</Time>
            <Position>
              <LatitudeDegrees>43.3405519835650920867919921875</LatitudeDegrees>
              <LongitudeDegrees>-1.7902600206434726715087890625</LongitudeDegrees>
            </Position>
            <AltitudeMeters>34.59999847412109375</AltitudeMeters>
            <DistanceMeters>NAN</DistanceMeters>
          </Trackpoint>
          <Trackpoint>
            <Time>2022-07-08T15:50:19.000Z</Time>
            <Position>
              <LatitudeDegrees>43.3404515683650970458984375</LatitudeDegrees>
              <LongitudeDegrees>-1.79028525017201900482177734375</LongitudeDegrees>
            </Position>
            <AltitudeMeters>35</AltitudeMeters>
            <DistanceMeters>NAN</DistanceMeters>
          </Trackpoint>
          <Trackpoint>
            <Time>2022-07-08T15:50:24.000Z</Time>
            <Position>
              <LatitudeDegrees>43.340347968041896820068359375</LatitudeDegrees>
              <LongitudeDegrees>-1.7903103120625019073486328125</LongitudeDegrees>
            </Position>
            <AltitudeMeters>35.799999237060546875</AltitudeMeters>
            <DistanceMeters>NAN</DistanceMeters>
          </Trackpoint>
          <Trackpoint>
            <Time>2022-07-08T15:50:25.000Z</Time>
            <Position>
              <LatitudeDegrees>43.3403255045413970947265625</LatitudeDegrees>
              <LongitudeDegrees>-1.7903176881372928619384765625</LongitudeDegrees>
            </Position>
            <AltitudeMeters>36</AltitudeMeters>
            <DistanceMeters>NAN</DistanceMeters>
          </Trackpoint>
          <Trackpoint>
            <Time>2022-07-08T15:50:29.000Z</Time>
            <Position>
              <LatitudeDegrees>43.34024596028029918670654296875</LatitudeDegrees>
              <LongitudeDegrees>-1.79036906920373439788818359375</LongitudeDegrees>
            </Position>
            <AltitudeMeters>37</AltitudeMeters>
            <DistanceMeters>NAN</DistanceMeters>
          </Trackpoint>
          <Trackpoint>
            <Time>2022-07-08T15:50:30.000Z</Time>
            <Position>
              <LatitudeDegrees>43.3402385003864765167236328125</LatitudeDegrees>
              <LongitudeDegrees>-1.790395639836788177490234375</LongitudeDegrees>
            </Position>
            <AltitudeMeters>37</AltitudeMeters>
            <DistanceMeters>NAN</DistanceMeters>
          </Trackpoint>
          <Trackpoint>
            <Time>2022-07-08T15:50:36.000Z</Time>
            <Position>
              <LatitudeDegrees>43.34013146348297595977783203125</LatitudeDegrees>
              <LongitudeDegrees>-1.7904621921479701995849609375</LongitudeDegrees>
            </Position>
            <AltitudeMeters>37.799999237060546875</AltitudeMeters>
            <DistanceMeters>NAN</DistanceMeters>
          </Trackpoint>
          <Trackpoint>
            <Time>2022-07-08T15:50:37.000Z</Time>
            <Position>
              <LatitudeDegrees>43.34011352621018886566162109375</LatitudeDegrees>
              <LongitudeDegrees>-1.79046428762376308441162109375</LongitudeDegrees>
            </Position>
            <AltitudeMeters>38</AltitudeMeters>
            <DistanceMeters>NAN</DistanceMeters>
          </Trackpoint>
          <Trackpoint>
            <Time>2022-07-08T15:50:39.000Z</Time>
            <Position>
              <LatitudeDegrees>43.34007631056010723114013671875</LatitudeDegrees>
              <LongitudeDegrees>-1.790476106107234954833984375</LongitudeDegrees>
            </Position>
            <AltitudeMeters>38.200000762939453125</AltitudeMeters>
            <DistanceMeters>NAN</DistanceMeters>
          </Trackpoint>
          <Trackpoint>
            <Time>2022-07-08T15:50:45.000Z</Time>
            <Position>
              <LatitudeDegrees>43.33995376713573932647705078125</LatitudeDegrees>
              <LongitudeDegrees>-1.7905051074922084808349609375</LongitudeDegrees>
            </Position>
            <AltitudeMeters>39.200000762939453125</AltitudeMeters>
            <DistanceMeters>NAN</DistanceMeters>
          </Trackpoint>
          <Trackpoint>
            <Time>2022-07-08T15:50:50.000Z</Time>
            <Position>
              <LatitudeDegrees>43.3398465625941753387451171875</LatitudeDegrees>
              <LongitudeDegrees>-1.79052815772593021392822265625</LongitudeDegrees>
            </Position>
            <AltitudeMeters>40</AltitudeMeters>
            <DistanceMeters>NAN</DistanceMeters>
          </Trackpoint>
          <Trackpoint>
            <Time>2022-07-08T15:50:51.000Z</Time>
            <Position>
              <LatitudeDegrees>43.3398230932652950286865234375</LatitudeDegrees>
              <LongitudeDegrees>-1.79052497260272502899169921875</LongitudeDegrees>
            </Position>
            <AltitudeMeters>40.200000762939453125</AltitudeMeters>
            <DistanceMeters>NAN</DistanceMeters>
          </Trackpoint>
          <Trackpoint>
            <Time>2022-07-08T15:50:52.000Z</Time>
            <Position>
              <LatitudeDegrees>43.3398024737834930419921875</LatitudeDegrees>
              <LongitudeDegrees>-1.790523715317249298095703125</LongitudeDegrees>
            </Position>
            <AltitudeMeters>40.200000762939453125</AltitudeMeters>
            <DistanceMeters>NAN</DistanceMeters>
          </Trackpoint>
          <Trackpoint>
            <Time>2022-07-08T15:50:55.000Z</Time>
            <Position>
              <LatitudeDegrees>43.3397513441741466522216796875</LatitudeDegrees>
              <LongitudeDegrees>-1.79058708250522613525390625</LongitudeDegrees>
            </Position>
            <AltitudeMeters>40.799999237060546875</AltitudeMeters>
            <DistanceMeters>NAN</DistanceMeters>
          </Trackpoint>
          <Trackpoint>
            <Time>2022-07-08T15:51:01.000Z</Time>
            <Position>
              <LatitudeDegrees>43.33966710604727268218994140625</LatitudeDegrees>
              <LongitudeDegrees>-1.79069059900939464569091796875</LongitudeDegrees>
            </Position>
            <AltitudeMeters>41.40000152587890625</AltitudeMeters>
            <DistanceMeters>NAN</DistanceMeters>
          </Trackpoint>
          <Trackpoint>
            <Time>2022-07-08T15:51:03.000Z</Time>
            <Position>
              <LatitudeDegrees>43.339664675295352935791015625</LatitudeDegrees>
              <LongitudeDegrees>-1.79076972417533397674560546875</LongitudeDegrees>
            </Position>
            <AltitudeMeters>41.40000152587890625</AltitudeMeters>
            <DistanceMeters>NAN</DistanceMeters>
          </Trackpoint>
          <Trackpoint>
            <Time>2022-07-08T15:51:05.000Z</Time>
            <Position>
              <LatitudeDegrees>43.339679427444934844970703125</LatitudeDegrees>
              <LongitudeDegrees>-1.79085169918835163116455078125</LongitudeDegrees>
            </Position>
            <AltitudeMeters>41.799999237060546875</AltitudeMeters>
            <DistanceMeters>NAN</DistanceMeters>
          </Trackpoint>
          <Trackpoint>
            <Time>2022-07-08T15:51:09.000Z</Time>
            <Position>
              <LatitudeDegrees>43.33969853818416595458984375</LatitudeDegrees>
              <LongitudeDegrees>-1.79102704860270023345947265625</LongitudeDegrees>
            </Position>
            <AltitudeMeters>42</AltitudeMeters>
            <DistanceMeters>NAN</DistanceMeters>
          </Trackpoint>
          <Trackpoint>
            <Time>2022-07-08T15:51:15.000Z</Time>
            <Position>
              <LatitudeDegrees>43.3397483266890048980712890625</LatitudeDegrees>
              <LongitudeDegrees>-1.7912977002561092376708984375</LongitudeDegrees>
            </Position>
            <AltitudeMeters>42.40000152587890625</AltitudeMeters>
            <DistanceMeters>NAN</DistanceMeters>
          </Trackpoint>
          <Trackpoint>
            <Time>2022-07-08T15:51:16.000Z</Time>
            <Position>
              <LatitudeDegrees>43.33975763060152530670166015625</LatitudeDegrees>
              <LongitudeDegrees>-1.79134237580001354217529296875</LongitudeDegrees>
            </Position>
            <AltitudeMeters>42.40000152587890625</AltitudeMeters>
            <DistanceMeters>NAN</DistanceMeters>
          </Trackpoint>
          <Trackpoint>
            <Time>2022-07-08T15:51:23.000Z</Time>
            <Position>
              <LatitudeDegrees>43.339819572865962982177734375</LatitudeDegrees>
              <LongitudeDegrees>-1.79165569134056568145751953125</LongitudeDegrees>
            </Position>
            <AltitudeMeters>42.200000762939453125</AltitudeMeters>
            <DistanceMeters>NAN</DistanceMeters>
          </Trackpoint>
          <Trackpoint>
            <Time>2022-07-08T15:51:26.000Z</Time>
            <Position>
              <LatitudeDegrees>43.33984111435711383819580078125</LatitudeDegrees>
              <LongitudeDegrees>-1.7918244190514087677001953125</LongitudeDegrees>
            </Position>
            <AltitudeMeters>42.200000762939453125</AltitudeMeters>
            <DistanceMeters>NAN</DistanceMeters>
          </Trackpoint>
          <Trackpoint>
            <Time>2022-07-08T15:51:27.000Z</Time>
            <Position>
              <LatitudeDegrees>43.33985201083123683929443359375</LatitudeDegrees>
              <LongitudeDegrees>-1.79188200272619724273681640625</LongitudeDegrees>
            </Position>
            <AltitudeMeters>42.200000762939453125</AltitudeMeters>
            <DistanceMeters>NAN</DistanceMeters>
          </Trackpoint>
          <Trackpoint>
            <Time>2022-07-08T15:51:33.000Z</Time>
            <Position>
              <LatitudeDegrees>43.33989677019417285919189453125</LatitudeDegrees>
              <LongitudeDegrees>-1.79215458221733570098876953125</LongitudeDegrees>
            </Position>
            <AltitudeMeters>42.200000762939453125</AltitudeMeters>
            <DistanceMeters>NAN</DistanceMeters>
          </Trackpoint>
          <Trackpoint>
            <Time>2022-07-08T15:51:35.000Z</Time>
            <Position>
              <LatitudeDegrees>43.33993281237781047821044921875</LatitudeDegrees>
              <LongitudeDegrees>-1.7922525666654109954833984375</LongitudeDegrees>
            </Position>
            <AltitudeMeters>42.200000762939453125</AltitudeMeters>
            <DistanceMeters>NAN</DistanceMeters>
          </Trackpoint>
          <Trackpoint>
            <Time>2022-07-08T15:51:42.000Z</Time>
            <Position>
              <LatitudeDegrees>43.34003909491002559661865234375</LatitudeDegrees>
              <LongitudeDegrees>-1.79260603152215480804443359375</LongitudeDegrees>
            </Position>
            <AltitudeMeters>42.200000762939453125</AltitudeMeters>
            <DistanceMeters>NAN</DistanceMeters>
          </Trackpoint>
          <Trackpoint>
            <Time>2022-07-08T15:51:51.000Z</Time>
            <Position>
              <LatitudeDegrees>43.34016348235309123992919921875</LatitudeDegrees>
              <LongitudeDegrees>-1.79307441227138042449951171875</LongitudeDegrees>
            </Position>
            <AltitudeMeters>42.40000152587890625</AltitudeMeters>
            <DistanceMeters>NAN</DistanceMeters>
          </Trackpoint>
          <Trackpoint>
            <Time>2022-07-08T15:51:57.000Z</Time>
            <Position>
              <LatitudeDegrees>43.34024311043322086334228515625</LatitudeDegrees>
              <LongitudeDegrees>-1.79335721768438816070556640625</LongitudeDegrees>
            </Position>
            <AltitudeMeters>42.200000762939453125</AltitudeMeters>
            <DistanceMeters>NAN</DistanceMeters>
          </Trackpoint>
          <Trackpoint>
            <Time>2022-07-08T15:52:00.000Z</Time>
            <Position>
              <LatitudeDegrees>43.3402718603610992431640625</LatitudeDegrees>
              <LongitudeDegrees>-1.793506331741809844970703125</LongitudeDegrees>
            </Position>
            <AltitudeMeters>42.200000762939453125</AltitudeMeters>
            <DistanceMeters>NAN</DistanceMeters>
          </Trackpoint>
          <Trackpoint>
            <Time>2022-07-08T15:52:04.000Z</Time>
            <Position>
              <LatitudeDegrees>43.34031469188630580902099609375</LatitudeDegrees>
              <LongitudeDegrees>-1.79370758123695850372314453125</LongitudeDegrees>
            </Position>
            <AltitudeMeters>42.200000762939453125</AltitudeMeters>
            <DistanceMeters>NAN</DistanceMeters>
          </Trackpoint>
          <Trackpoint>
            <Time>2022-07-08T15:52:11.000Z</Time>
            <Position>
              <LatitudeDegrees>43.34038786590099334716796875</LatitudeDegrees>
              <LongitudeDegrees>-1.79408610798418521881103515625</LongitudeDegrees>
            </Position>
            <AltitudeMeters>42</AltitudeMeters>
            <DistanceMeters>NAN</DistanceMeters>
          </Trackpoint>
          <Trackpoint>
            <Time>2022-07-08T15:52:14.000Z</Time>
            <Position>
              <LatitudeDegrees>43.340423069894313812255859375</LatitudeDegrees>
              <LongitudeDegrees>-1.79424854926764965057373046875</LongitudeDegrees>
            </Position>
            <AltitudeMeters>42</AltitudeMeters>
            <DistanceMeters>NAN</DistanceMeters>
          </Trackpoint>
          <Trackpoint>
            <Time>2022-07-08T15:52:20.000Z</Time>
            <Position>
              <LatitudeDegrees>43.34048844873905181884765625</LatitudeDegrees>
              <LongitudeDegrees>-1.79459455423057079315185546875</LongitudeDegrees>
            </Position>
            <AltitudeMeters>42</AltitudeMeters>
            <DistanceMeters>NAN</DistanceMeters>
          </Trackpoint>
          <Trackpoint>
            <Time>2022-07-08T15:52:24.000Z</Time>
            <Position>
              <LatitudeDegrees>43.34053798578679561614990234375</LatitudeDegrees>
              <LongitudeDegrees>-1.79481751285493373870849609375</LongitudeDegrees>
            </Position>
            <AltitudeMeters>42</AltitudeMeters>
            <DistanceMeters>NAN</DistanceMeters>
          </Trackpoint>
          <Trackpoint>
            <Time>2022-07-08T15:52:27.000Z</Time>
            <Position>
              <LatitudeDegrees>43.3405804820358753204345703125</LatitudeDegrees>
              <LongitudeDegrees>-1.79498590528964996337890625</LongitudeDegrees>
            </Position>
            <AltitudeMeters>41.59999847412109375</AltitudeMeters>
            <DistanceMeters>NAN</DistanceMeters>
          </Trackpoint>
          <Trackpoint>
            <Time>2022-07-08T15:52:28.000Z</Time>
            <Position>
              <LatitudeDegrees>43.34059280343353748321533203125</LatitudeDegrees>
              <LongitudeDegrees>-1.79504298605024814605712890625</LongitudeDegrees>
            </Position>
            <AltitudeMeters>41.59999847412109375</AltitudeMeters>
            <DistanceMeters>NAN</DistanceMeters>
          </Trackpoint>
          <Trackpoint>
            <Time>2022-07-08T15:52:30.000Z</Time>
            <Position>
              <LatitudeDegrees>43.3406297676265239715576171875</LatitudeDegrees>
              <LongitudeDegrees>-1.79515815339982509613037109375</LongitudeDegrees>
            </Position>
            <AltitudeMeters>41.40000152587890625</AltitudeMeters>
            <DistanceMeters>NAN</DistanceMeters>
          </Trackpoint>
          <Trackpoint>
            <Time>2022-07-08T15:52:32.000Z</Time>
            <Position>
              <LatitudeDegrees>43.34065818227827548980712890625</LatitudeDegrees>
              <LongitudeDegrees>-1.79526762105524539947509765625</LongitudeDegrees>
            </Position>
            <AltitudeMeters>41.40000152587890625</AltitudeMeters>
            <DistanceMeters>NAN</DistanceMeters>
          </Trackpoint>
          <Trackpoint>
            <Time>2022-07-08T15:52:36.000Z</Time>
            <Position>
              <LatitudeDegrees>43.3407058753073215484619140625</LatitudeDegrees>
              <LongitudeDegrees>-1.79550466127693653106689453125</LongitudeDegrees>
            </Position>
            <AltitudeMeters>41.59999847412109375</AltitudeMeters>
            <DistanceMeters>NAN</DistanceMeters>
          </Trackpoint>
          <Trackpoint>
            <Time>2022-07-08T15:52:42.000Z</Time>
            <Position>
              <LatitudeDegrees>43.34073781035840511322021484375</LatitudeDegrees>
              <LongitudeDegrees>-1.7958743870258331298828125</LongitudeDegrees>
            </Position>
            <AltitudeMeters>41.799999237060546875</AltitudeMeters>
            <DistanceMeters>NAN</DistanceMeters>
          </Trackpoint>
          <Trackpoint>
            <Time>2022-07-08T15:52:43.000Z</Time>
            <Position>
              <LatitudeDegrees>43.34074770100414752960205078125</LatitudeDegrees>
              <LongitudeDegrees>-1.79592593573033809661865234375</LongitudeDegrees>
            </Position>
            <AltitudeMeters>41.799999237060546875</AltitudeMeters>
            <DistanceMeters>NAN</DistanceMeters>
          </Trackpoint>
          <Trackpoint>
            <Time>2022-07-08T15:52:44.000Z</Time>
            <Position>
              <LatitudeDegrees>43.340744934976100921630859375</LatitudeDegrees>
              <LongitudeDegrees>-1.79598159156739711761474609375</LongitudeDegrees>
            </Position>
            <AltitudeMeters>41.799999237060546875</AltitudeMeters>
            <DistanceMeters>NAN</DistanceMeters>
          </Trackpoint>
          <Trackpoint>
            <Time>2022-07-08T15:52:47.000Z</Time>
            <Position>
              <LatitudeDegrees>43.3407581783831119537353515625</LatitudeDegrees>
              <LongitudeDegrees>-1.79614269174635410308837890625</LongitudeDegrees>
            </Position>
            <AltitudeMeters>42</AltitudeMeters>
            <DistanceMeters>NAN</DistanceMeters>
          </Trackpoint>
          <Trackpoint>
            <Time>2022-07-08T15:52:51.000Z</Time>
            <Position>
              <LatitudeDegrees>43.34079732187092304229736328125</LatitudeDegrees>
              <LongitudeDegrees>-1.7963439412415027618408203125</LongitudeDegrees>
            </Position>
            <AltitudeMeters>42</AltitudeMeters>
            <DistanceMeters>NAN</DistanceMeters>
          </Trackpoint>
          <Trackpoint>
            <Time>2022-07-08T15:52:53.000Z</Time>
            <Position>
              <LatitudeDegrees>43.34081676788628101348876953125</LatitudeDegrees>
              <LongitudeDegrees>-1.79643672890961170196533203125</LongitudeDegrees>
            </Position>
            <AltitudeMeters>42</AltitudeMeters>
            <DistanceMeters>NAN</DistanceMeters>
          </Trackpoint>
          <Trackpoint>
            <Time>2022-07-08T15:52:58.000Z</Time>
            <Position>
              <LatitudeDegrees>43.34084694273769855499267578125</LatitudeDegrees>
              <LongitudeDegrees>-1.79667293094098567962646484375</LongitudeDegrees>
            </Position>
            <AltitudeMeters>42</AltitudeMeters>
            <DistanceMeters>NAN</DistanceMeters>
          </Trackpoint>
          <Trackpoint>
            <Time>2022-07-08T15:52:59.000Z</Time>
            <Position>
              <LatitudeDegrees>43.34085498936474323272705078125</LatitudeDegrees>
              <LongitudeDegrees>-1.79672171361744403839111328125</LongitudeDegrees>
            </Position>
            <AltitudeMeters>42</AltitudeMeters>
            <DistanceMeters>NAN</DistanceMeters>
          </Trackpoint>
          <Trackpoint>
            <Time>2022-07-08T15:53:02.000Z</Time>
            <Position>
              <LatitudeDegrees>43.3409231342375278472900390625</LatitudeDegrees>
              <LongitudeDegrees>-1.7968679778277873992919921875</LongitudeDegrees>
            </Position>
            <AltitudeMeters>42.200000762939453125</AltitudeMeters>
            <DistanceMeters>NAN</DistanceMeters>
          </Trackpoint>
          <Trackpoint>
            <Time>2022-07-08T15:53:05.000Z</Time>
            <Position>
              <LatitudeDegrees>43.3409160934388637542724609375</LatitudeDegrees>
              <LongitudeDegrees>-1.797038130462169647216796875</LongitudeDegrees>
            </Position>
            <AltitudeMeters>42.59999847412109375</AltitudeMeters>
            <DistanceMeters>NAN</DistanceMeters>
          </Trackpoint>
          <Trackpoint>
            <Time>2022-07-08T15:53:10.000Z</Time>
            <Position>
              <LatitudeDegrees>43.34097786806523799896240234375</LatitudeDegrees>
              <LongitudeDegrees>-1.79728665389120578765869140625</LongitudeDegrees>
            </Position>
            <AltitudeMeters>42.59999847412109375</AltitudeMeters>
            <DistanceMeters>NAN</DistanceMeters>
          </Trackpoint>
          <Trackpoint>
            <Time>2022-07-08T15:53:16.000Z</Time>
            <Position>
              <LatitudeDegrees>43.3411182649433612823486328125</LatitudeDegrees>
              <LongitudeDegrees>-1.7975435592234134674072265625</LongitudeDegrees>
            </Position>
            <AltitudeMeters>42.200000762939453125</AltitudeMeters>
            <DistanceMeters>NAN</DistanceMeters>
          </Trackpoint>
          <Trackpoint>
            <Time>2022-07-08T15:53:22.000Z</Time>
            <Position>
              <LatitudeDegrees>43.34123100154101848602294921875</LatitudeDegrees>
              <LongitudeDegrees>-1.79775436408817768096923828125</LongitudeDegrees>
            </Position>
            <AltitudeMeters>42.40000152587890625</AltitudeMeters>
            <DistanceMeters>NAN</DistanceMeters>
          </Trackpoint>
          <Trackpoint>
            <Time>2022-07-08T15:53:28.000Z</Time>
            <Position>
              <LatitudeDegrees>43.34137315861880779266357421875</LatitudeDegrees>
              <LongitudeDegrees>-1.79796525277197360992431640625</LongitudeDegrees>
            </Position>
            <AltitudeMeters>41.799999237060546875</AltitudeMeters>
            <DistanceMeters>NAN</DistanceMeters>
          </Trackpoint>
          <Trackpoint>
            <Time>2022-07-08T15:53:31.000Z</Time>
            <Position>
              <LatitudeDegrees>43.341465108096599578857421875</LatitudeDegrees>
              <LongitudeDegrees>-1.798069439828395843505859375</LongitudeDegrees>
            </Position>
            <AltitudeMeters>41.200000762939453125</AltitudeMeters>
            <DistanceMeters>NAN</DistanceMeters>
          </Trackpoint>
          <Trackpoint>
            <Time>2022-07-08T15:53:35.000Z</Time>
            <Position>
              <LatitudeDegrees>43.3415977098047733306884765625</LatitudeDegrees>
              <LongitudeDegrees>-1.798226349055767059326171875</LongitudeDegrees>
            </Position>
            <AltitudeMeters>40.40000152587890625</AltitudeMeters>
            <DistanceMeters>NAN</DistanceMeters>
          </Trackpoint>
          <Trackpoint>
            <Time>2022-07-08T15:53:37.000Z</Time>
            <Position>
              <LatitudeDegrees>43.34167071618139743804931640625</LatitudeDegrees>
              <LongitudeDegrees>-1.798304803669452667236328125</LongitudeDegrees>
            </Position>
            <AltitudeMeters>40</AltitudeMeters>
            <DistanceMeters>NAN</DistanceMeters>
          </Trackpoint>
          <Trackpoint>
            <Time>2022-07-08T15:53:43.000Z</Time>
            <Position>
              <LatitudeDegrees>43.34190406836569309234619140625</LatitudeDegrees>
              <LongitudeDegrees>-1.7985567636787891387939453125</LongitudeDegrees>
            </Position>
            <AltitudeMeters>39.40000152587890625</AltitudeMeters>
            <DistanceMeters>NAN</DistanceMeters>
          </Trackpoint>
          <Trackpoint>
            <Time>2022-07-08T15:53:46.000Z</Time>
            <Position>
              <LatitudeDegrees>43.34202040918171405792236328125</LatitudeDegrees>
              <LongitudeDegrees>-1.79867503233253955841064453125</LongitudeDegrees>
            </Position>
            <AltitudeMeters>39.200000762939453125</AltitudeMeters>
            <DistanceMeters>NAN</DistanceMeters>
          </Trackpoint>
          <Trackpoint>
            <Time>2022-07-08T15:53:48.000Z</Time>
            <Position>
              <LatitudeDegrees>43.34208126179873943328857421875</LatitudeDegrees>
              <LongitudeDegrees>-1.798768155276775360107421875</LongitudeDegrees>
            </Position>
            <AltitudeMeters>39</AltitudeMeters>
            <DistanceMeters>NAN</DistanceMeters>
          </Trackpoint>
          <Trackpoint>
            <Time>2022-07-08T15:53:52.000Z</Time>
            <Position>
              <LatitudeDegrees>43.3422199822962284088134765625</LatitudeDegrees>
              <LongitudeDegrees>-1.7989252321422100067138671875</LongitudeDegrees>
            </Position>
            <AltitudeMeters>38.200000762939453125</AltitudeMeters>
            <DistanceMeters>NAN</DistanceMeters>
          </Trackpoint>
          <Trackpoint>
            <Time>2022-07-08T15:53:54.000Z</Time>
            <Position>
              <LatitudeDegrees>43.34231411106884479522705078125</LatitudeDegrees>
              <LongitudeDegrees>-1.799013577401638031005859375</LongitudeDegrees>
            </Position>
            <AltitudeMeters>38.200000762939453125</AltitudeMeters>
            <DistanceMeters>NAN</DistanceMeters>
          </Trackpoint>
          <Trackpoint>
            <Time>2022-07-08T15:53:56.000Z</Time>
            <Position>
              <LatitudeDegrees>43.34239407442510128021240234375</LatitudeDegrees>
              <LongitudeDegrees>-1.7990903556346893310546875</LongitudeDegrees>
            </Position>
            <AltitudeMeters>38</AltitudeMeters>
            <DistanceMeters>NAN</DistanceMeters>
          </Trackpoint>
          <Trackpoint>
            <Time>2022-07-08T15:53:57.000Z</Time>
            <Position>
              <LatitudeDegrees>43.3424310386180877685546875</LatitudeDegrees>
              <LongitudeDegrees>-1.79912815801799297332763671875</LongitudeDegrees>
            </Position>
            <AltitudeMeters>37.799999237060546875</AltitudeMeters>
            <DistanceMeters>NAN</DistanceMeters>
          </Trackpoint>
          <Trackpoint>
            <Time>2022-07-08T15:53:59.000Z</Time>
            <Position>
              <LatitudeDegrees>43.34251225925981998443603515625</LatitudeDegrees>
              <LongitudeDegrees>-1.79922706447541713714599609375</LongitudeDegrees>
            </Position>
            <AltitudeMeters>37.59999847412109375</AltitudeMeters>
            <DistanceMeters>NAN</DistanceMeters>
          </Trackpoint>
          <Trackpoint>
            <Time>2022-07-08T15:54:02.000Z</Time>
            <Position>
              <LatitudeDegrees>43.3426617085933685302734375</LatitudeDegrees>
              <LongitudeDegrees>-1.79929613135755062103271484375</LongitudeDegrees>
            </Position>
            <AltitudeMeters>37</AltitudeMeters>
            <DistanceMeters>NAN</DistanceMeters>
          </Trackpoint>
          <Trackpoint>
            <Time>2022-07-08T15:54:05.000Z</Time>
            <Position>
              <LatitudeDegrees>43.34281819872558116912841796875</LatitudeDegrees>
              <LongitudeDegrees>-1.7993620969355106353759765625</LongitudeDegrees>
            </Position>
            <AltitudeMeters>36.799999237060546875</AltitudeMeters>
            <DistanceMeters>NAN</DistanceMeters>
          </Trackpoint>
          <Trackpoint>
            <Time>2022-07-08T15:54:08.000Z</Time>
            <Position>
              <LatitudeDegrees>43.342969827353954315185546875</LatitudeDegrees>
              <LongitudeDegrees>-1.79945169948041439056396484375</LongitudeDegrees>
            </Position>
            <AltitudeMeters>36.59999847412109375</AltitudeMeters>
            <DistanceMeters>NAN</DistanceMeters>
          </Trackpoint>
          <Trackpoint>
            <Time>2022-07-08T15:54:10.000Z</Time>
            <Position>
              <LatitudeDegrees>43.343060016632080078125</LatitudeDegrees>
              <LongitudeDegrees>-1.79952847771346569061279296875</LongitudeDegrees>
            </Position>
            <AltitudeMeters>36.59999847412109375</AltitudeMeters>
            <DistanceMeters>NAN</DistanceMeters>
          </Trackpoint>
          <Trackpoint>
            <Time>2022-07-08T15:54:12.000Z</Time>
            <Position>
              <LatitudeDegrees>43.34315414540469646453857421875</LatitudeDegrees>
              <LongitudeDegrees>-1.7996148951351642608642578125</LongitudeDegrees>
            </Position>
            <AltitudeMeters>36</AltitudeMeters>
            <DistanceMeters>NAN</DistanceMeters>
          </Trackpoint>
          <Trackpoint>
            <Time>2022-07-08T15:54:13.000Z</Time>
            <Position>
              <LatitudeDegrees>43.34320208989083766937255859375</LatitudeDegrees>
              <LongitudeDegrees>-1.799657978117465972900390625</LongitudeDegrees>
            </Position>
            <AltitudeMeters>35.59999847412109375</AltitudeMeters>
            <DistanceMeters>NAN</DistanceMeters>
          </Trackpoint>
          <Trackpoint>
            <Time>2022-07-08T15:54:14.000Z</Time>
            <Position>
              <LatitudeDegrees>43.343255482614040374755859375</LatitudeDegrees>
              <LongitudeDegrees>-1.7996960319578647613525390625</LongitudeDegrees>
            </Position>
            <AltitudeMeters>34.799999237060546875</AltitudeMeters>
            <DistanceMeters>NAN</DistanceMeters>
          </Trackpoint>
          <Trackpoint>
            <Time>2022-07-08T15:54:15.000Z</Time>
            <Position>
              <LatitudeDegrees>43.3433067798614501953125</LatitudeDegrees>
              <LongitudeDegrees>-1.79974012076854705810546875</LongitudeDegrees>
            </Position>
            <AltitudeMeters>34.40000152587890625</AltitudeMeters>
            <DistanceMeters>NAN</DistanceMeters>
          </Trackpoint>
          <Trackpoint>
            <Time>2022-07-08T15:54:18.000Z</Time>
            <Position>
              <LatitudeDegrees>43.3434591628611087799072265625</LatitudeDegrees>
              <LongitudeDegrees>-1.79988361895084381103515625</LongitudeDegrees>
            </Position>
            <AltitudeMeters>34.200000762939453125</AltitudeMeters>
            <DistanceMeters>NAN</DistanceMeters>
          </Trackpoint>
          <Trackpoint>
            <Time>2022-07-08T15:54:25.000Z</Time>
            <Position>
              <LatitudeDegrees>43.3438229374587535858154296875</LatitudeDegrees>
              <LongitudeDegrees>-1.80014236830174922943115234375</LongitudeDegrees>
            </Position>
            <AltitudeMeters>33.40000152587890625</AltitudeMeters>
            <DistanceMeters>NAN</DistanceMeters>
          </Trackpoint>
          <Trackpoint>
            <Time>2022-07-08T15:54:28.000Z</Time>
            <Position>
              <LatitudeDegrees>43.34397573955357074737548828125</LatitudeDegrees>
              <LongitudeDegrees>-1.800264827907085418701171875</LongitudeDegrees>
            </Position>
            <AltitudeMeters>32.799999237060546875</AltitudeMeters>
            <DistanceMeters>NAN</DistanceMeters>
          </Trackpoint>
          <Trackpoint>
            <Time>2022-07-08T15:54:30.000Z</Time>
            <Position>
              <LatitudeDegrees>43.3440703712403774261474609375</LatitudeDegrees>
              <LongitudeDegrees>-1.80034755729138851165771484375</LongitudeDegrees>
            </Position>
            <AltitudeMeters>32.799999237060546875</AltitudeMeters>
            <DistanceMeters>NAN</DistanceMeters>
          </Trackpoint>
          <Trackpoint>
            <Time>2022-07-08T15:54:34.000Z</Time>
            <Position>
              <LatitudeDegrees>43.34425804205238819122314453125</LatitudeDegrees>
              <LongitudeDegrees>-1.8005065619945526123046875</LongitudeDegrees>
            </Position>
            <AltitudeMeters>32.40000152587890625</AltitudeMeters>
            <DistanceMeters>NAN</DistanceMeters>
          </Trackpoint>
          <Trackpoint>
            <Time>2022-07-08T15:54:40.000Z</Time>
            <Position>
              <LatitudeDegrees>43.34456716664135456085205078125</LatitudeDegrees>
              <LongitudeDegrees>-1.80076430551707744598388671875</LongitudeDegrees>
            </Position>
            <AltitudeMeters>31.6000003814697265625</AltitudeMeters>
            <DistanceMeters>NAN</DistanceMeters>
          </Trackpoint>
          <Trackpoint>
            <Time>2022-07-08T15:54:42.000Z</Time>
            <Position>
              <LatitudeDegrees>43.34467294625937938690185546875</LatitudeDegrees>
              <LongitudeDegrees>-1.80085885338485240936279296875</LongitudeDegrees>
            </Position>
            <AltitudeMeters>31.3999996185302734375</AltitudeMeters>
            <DistanceMeters>NAN</DistanceMeters>
          </Trackpoint>
          <Trackpoint>
            <Time>2022-07-08T15:54:45.000Z</Time>
            <Position>
              <LatitudeDegrees>43.34483387880027294158935546875</LatitudeDegrees>
              <LongitudeDegrees>-1.80098734796047210693359375</LongitudeDegrees>
            </Position>
            <AltitudeMeters>30.799999237060546875</AltitudeMeters>
            <DistanceMeters>NAN</DistanceMeters>
          </Trackpoint>
          <Trackpoint>
            <Time>2022-07-08T15:54:46.000Z</Time>
            <Position>
              <LatitudeDegrees>43.3448897860944271087646484375</LatitudeDegrees>
              <LongitudeDegrees>-1.80099346674978733062744140625</LongitudeDegrees>
            </Position>
            <AltitudeMeters>30.6000003814697265625</AltitudeMeters>
            <DistanceMeters>NAN</DistanceMeters>
          </Trackpoint>
          <Trackpoint>
            <Time>2022-07-08T15:54:47.000Z</Time>
            <Position>
              <LatitudeDegrees>43.34494301117956638336181640625</LatitudeDegrees>
              <LongitudeDegrees>-1.80098910816013813018798828125</LongitudeDegrees>
            </Position>
            <AltitudeMeters>30.3999996185302734375</AltitudeMeters>
            <DistanceMeters>NAN</DistanceMeters>
          </Trackpoint>
          <Trackpoint>
            <Time>2022-07-08T15:54:48.000Z</Time>
            <Position>
              <LatitudeDegrees>43.3449880219995975494384765625</LatitudeDegrees>
              <LongitudeDegrees>-1.8009878508746623992919921875</LongitudeDegrees>
            </Position>
            <AltitudeMeters>30</AltitudeMeters>
            <DistanceMeters>NAN</DistanceMeters>
          </Trackpoint>
          <Trackpoint>
            <Time>2022-07-08T15:54:49.000Z</Time>
            <Position>
              <LatitudeDegrees>43.3450309373438358306884765625</LatitudeDegrees>
              <LongitudeDegrees>-1.800980307161808013916015625</LongitudeDegrees>
            </Position>
            <AltitudeMeters>29.799999237060546875</AltitudeMeters>
            <DistanceMeters>NAN</DistanceMeters>
          </Trackpoint>
          <Trackpoint>
            <Time>2022-07-08T15:54:50.000Z</Time>
            <Position>
              <LatitudeDegrees>43.34507142193615436553955078125</LatitudeDegrees>
              <LongitudeDegrees>-1.80096446536481380462646484375</LongitudeDegrees>
            </Position>
            <AltitudeMeters>29.6000003814697265625</AltitudeMeters>
            <DistanceMeters>NAN</DistanceMeters>
          </Trackpoint>
          <Trackpoint>
            <Time>2022-07-08T15:54:52.000Z</Time>
            <Position>
              <LatitudeDegrees>43.3451452665030956268310546875</LatitudeDegrees>
              <LongitudeDegrees>-1.80091761052608489990234375</LongitudeDegrees>
            </Position>
            <AltitudeMeters>29.200000762939453125</AltitudeMeters>
            <DistanceMeters>NAN</DistanceMeters>
          </Trackpoint>
          <Trackpoint>
            <Time>2022-07-08T15:54:54.000Z</Time>
            <Position>
              <LatitudeDegrees>43.34523369558155536651611328125</LatitudeDegrees>
              <LongitudeDegrees>-1.80090294219553470611572265625</LongitudeDegrees>
            </Position>
            <AltitudeMeters>29.200000762939453125</AltitudeMeters>
            <DistanceMeters>NAN</DistanceMeters>
          </Trackpoint>
          <Trackpoint>
            <Time>2022-07-08T15:54:55.000Z</Time>
            <Position>
              <LatitudeDegrees>43.34527996368706226348876953125</LatitudeDegrees>
              <LongitudeDegrees>-1.8009181134402751922607421875</LongitudeDegrees>
            </Position>
            <AltitudeMeters>29.200000762939453125</AltitudeMeters>
            <DistanceMeters>NAN</DistanceMeters>
          </Trackpoint>
          <Trackpoint>
            <Time>2022-07-08T15:54:56.000Z</Time>
            <Position>
              <LatitudeDegrees>43.3453212864696979522705078125</LatitudeDegrees>
              <LongitudeDegrees>-1.8009464442729949951171875</LongitudeDegrees>
            </Position>
            <AltitudeMeters>29</AltitudeMeters>
            <DistanceMeters>NAN</DistanceMeters>
          </Trackpoint>
          <Trackpoint>
            <Time>2022-07-08T15:54:58.000Z</Time>
            <Position>
              <LatitudeDegrees>43.3453886769711971282958984375</LatitudeDegrees>
              <LongitudeDegrees>-1.80102967657148838043212890625</LongitudeDegrees>
            </Position>
            <AltitudeMeters>29</AltitudeMeters>
            <DistanceMeters>NAN</DistanceMeters>
          </Trackpoint>
          <Trackpoint>
            <Time>2022-07-08T15:54:59.000Z</Time>
            <Position>
              <LatitudeDegrees>43.3454104699194431304931640625</LatitudeDegrees>
              <LongitudeDegrees>-1.80108047090470790863037109375</LongitudeDegrees>
            </Position>
            <AltitudeMeters>28.799999237060546875</AltitudeMeters>
            <DistanceMeters>NAN</DistanceMeters>
          </Trackpoint>
          <Trackpoint>
            <Time>2022-07-08T15:55:01.000Z</Time>
            <Position>
              <LatitudeDegrees>43.34543310105800628662109375</LatitudeDegrees>
              <LongitudeDegrees>-1.8011987395584583282470703125</LongitudeDegrees>
            </Position>
            <AltitudeMeters>28.799999237060546875</AltitudeMeters>
            <DistanceMeters>NAN</DistanceMeters>
          </Trackpoint>
          <Trackpoint>
            <Time>2022-07-08T15:55:03.000Z</Time>
            <Position>
              <LatitudeDegrees>43.3454453386366367340087890625</LatitudeDegrees>
              <LongitudeDegrees>-1.8013179302215576171875</LongitudeDegrees>
            </Position>
            <AltitudeMeters>28.6000003814697265625</AltitudeMeters>
            <DistanceMeters>NAN</DistanceMeters>
          </Trackpoint>
          <Trackpoint>
            <Time>2022-07-08T15:55:04.000Z</Time>
            <Position>
              <LatitudeDegrees>43.3454540558159351348876953125</LatitudeDegrees>
              <LongitudeDegrees>-1.80137249641120433807373046875</LongitudeDegrees>
            </Position>
            <AltitudeMeters>28.6000003814697265625</AltitudeMeters>
            <DistanceMeters>NAN</DistanceMeters>
          </Trackpoint>
          <Trackpoint>
            <Time>2022-07-08T15:55:05.000Z</Time>
            <Position>
              <LatitudeDegrees>43.34546671248972415924072265625</LatitudeDegrees>
              <LongitudeDegrees>-1.801427565515041351318359375</LongitudeDegrees>
            </Position>
            <AltitudeMeters>28.6000003814697265625</AltitudeMeters>
            <DistanceMeters>NAN</DistanceMeters>
          </Trackpoint>
          <Trackpoint>
            <Time>2022-07-08T15:55:07.000Z</Time>
            <Position>
              <LatitudeDegrees>43.34551683627068996429443359375</LatitudeDegrees>
              <LongitudeDegrees>-1.8015202693641185760498046875</LongitudeDegrees>
            </Position>
            <AltitudeMeters>28.6000003814697265625</AltitudeMeters>
            <DistanceMeters>NAN</DistanceMeters>
          </Trackpoint>
          <Trackpoint>
            <Time>2022-07-08T15:55:08.000Z</Time>
            <Position>
              <LatitudeDegrees>43.34554650820791721343994140625</LatitudeDegrees>
              <LongitudeDegrees>-1.80155991576611995697021484375</LongitudeDegrees>
            </Position>
            <AltitudeMeters>28.6000003814697265625</AltitudeMeters>
            <DistanceMeters>NAN</DistanceMeters>
          </Trackpoint>
          <Trackpoint>
            <Time>2022-07-08T15:55:09.000Z</Time>
            <Position>
              <LatitudeDegrees>43.3455812931060791015625</LatitudeDegrees>
              <LongitudeDegrees>-1.8015901744365692138671875</LongitudeDegrees>
            </Position>
            <AltitudeMeters>28.3999996185302734375</AltitudeMeters>
            <DistanceMeters>NAN</DistanceMeters>
          </Trackpoint>
          <Trackpoint>
            <Time>2022-07-08T15:55:12.000Z</Time>
            <Position>
              <LatitudeDegrees>43.34568631835281848907470703125</LatitudeDegrees>
              <LongitudeDegrees>-1.801685728132724761962890625</LongitudeDegrees>
            </Position>
            <AltitudeMeters>28.3999996185302734375</AltitudeMeters>
            <DistanceMeters>NAN</DistanceMeters>
          </Trackpoint>
          <Trackpoint>
            <Time>2022-07-08T15:55:18.000Z</Time>
            <Position>
              <LatitudeDegrees>43.34597566165030002593994140625</LatitudeDegrees>
              <LongitudeDegrees>-1.80186468176543712615966796875</LongitudeDegrees>
            </Position>
            <AltitudeMeters>28</AltitudeMeters>
            <DistanceMeters>NAN</DistanceMeters>
          </Trackpoint>
          <Trackpoint>
            <Time>2022-07-08T15:55:20.000Z</Time>
            <Position>
              <LatitudeDegrees>43.34608487784862518310546875</LatitudeDegrees>
              <LongitudeDegrees>-1.80189183913171291351318359375</LongitudeDegrees>
            </Position>
            <AltitudeMeters>28.200000762939453125</AltitudeMeters>
            <DistanceMeters>NAN</DistanceMeters>
          </Trackpoint>
          <Trackpoint>
            <Time>2022-07-08T15:55:22.000Z</Time>
            <Position>
              <LatitudeDegrees>43.346198536455631256103515625</LatitudeDegrees>
              <LongitudeDegrees>-1.80187691934406757354736328125</LongitudeDegrees>
            </Position>
            <AltitudeMeters>28.3999996185302734375</AltitudeMeters>
            <DistanceMeters>NAN</DistanceMeters>
          </Trackpoint>
          <Trackpoint>
            <Time>2022-07-08T15:55:23.000Z</Time>
            <Position>
              <LatitudeDegrees>43.34624907933175563812255859375</LatitudeDegrees>
              <LongitudeDegrees>-1.8018699623644351959228515625</LongitudeDegrees>
            </Position>
            <AltitudeMeters>28.3999996185302734375</AltitudeMeters>
            <DistanceMeters>NAN</DistanceMeters>
          </Trackpoint>
          <Trackpoint>
            <Time>2022-07-08T15:55:25.000Z</Time>
            <Position>
              <LatitudeDegrees>43.34633373655378818511962890625</LatitudeDegrees>
              <LongitudeDegrees>-1.80182998068630695343017578125</LongitudeDegrees>
            </Position>
            <AltitudeMeters>28.200000762939453125</AltitudeMeters>
            <DistanceMeters>NAN</DistanceMeters>
          </Trackpoint>
          <Trackpoint>
            <Time>2022-07-08T15:55:26.000Z</Time>
            <Position>
              <LatitudeDegrees>43.34637665189802646636962890625</LatitudeDegrees>
              <LongitudeDegrees>-1.80181154049932956695556640625</LongitudeDegrees>
            </Position>
            <AltitudeMeters>28</AltitudeMeters>
            <DistanceMeters>NAN</DistanceMeters>
          </Trackpoint>
          <Trackpoint>
            <Time>2022-07-08T15:55:27.000Z</Time>
            <Position>
              <LatitudeDegrees>43.346419148147106170654296875</LatitudeDegrees>
              <LongitudeDegrees>-1.80179603397846221923828125</LongitudeDegrees>
            </Position>
            <AltitudeMeters>27.799999237060546875</AltitudeMeters>
            <DistanceMeters>NAN</DistanceMeters>
          </Trackpoint>
          <Trackpoint>
            <Time>2022-07-08T15:55:36.000Z</Time>
            <Position>
              <LatitudeDegrees>43.346812091767787933349609375</LatitudeDegrees>
              <LongitudeDegrees>-1.80154147557914257049560546875</LongitudeDegrees>
            </Position>
            <AltitudeMeters>27.6000003814697265625</AltitudeMeters>
            <DistanceMeters>NAN</DistanceMeters>
          </Trackpoint>
          <Trackpoint>
            <Time>2022-07-08T15:55:37.000Z</Time>
            <Position>
              <LatitudeDegrees>43.34686565212905406951904296875</LatitudeDegrees>
              <LongitudeDegrees>-1.8015051819384098052978515625</LongitudeDegrees>
            </Position>
            <AltitudeMeters>27.6000003814697265625</AltitudeMeters>
            <DistanceMeters>NAN</DistanceMeters>
          </Trackpoint>
          <Trackpoint>
            <Time>2022-07-08T15:55:42.000Z</Time>
            <Position>
              <LatitudeDegrees>43.34709095768630504608154296875</LatitudeDegrees>
              <LongitudeDegrees>-1.80134584195911884307861328125</LongitudeDegrees>
            </Position>
            <AltitudeMeters>27.6000003814697265625</AltitudeMeters>
            <DistanceMeters>NAN</DistanceMeters>
          </Trackpoint>
          <Trackpoint>
            <Time>2022-07-08T15:55:48.000Z</Time>
            <Position>
              <LatitudeDegrees>43.3472913689911365509033203125</LatitudeDegrees>
              <LongitudeDegrees>-1.80119278840720653533935546875</LongitudeDegrees>
            </Position>
            <AltitudeMeters>27</AltitudeMeters>
            <DistanceMeters>NAN</DistanceMeters>
          </Trackpoint>
          <Trackpoint>
            <Time>2022-07-08T15:55:49.000Z</Time>
            <Position>
              <LatitudeDegrees>43.3473047800362110137939453125</LatitudeDegrees>
              <LongitudeDegrees>-1.801192201673984527587890625</LongitudeDegrees>
            </Position>
            <AltitudeMeters>26.799999237060546875</AltitudeMeters>
            <DistanceMeters>NAN</DistanceMeters>
          </Trackpoint>
          <Trackpoint>
            <Time>2022-07-08T15:55:51.000Z</Time>
            <Position>
              <LatitudeDegrees>43.3473101444542407989501953125</LatitudeDegrees>
              <LongitudeDegrees>-1.80119228549301624298095703125</LongitudeDegrees>
            </Position>
            <AltitudeMeters>26.3999996185302734375</AltitudeMeters>
            <DistanceMeters>NAN</DistanceMeters>
          </Trackpoint>
          <Trackpoint>
            <Time>2022-07-08T15:55:52.000Z</Time>
            <Position>
              <LatitudeDegrees>43.3473101444542407989501953125</LatitudeDegrees>
              <LongitudeDegrees>-1.80119228549301624298095703125</LongitudeDegrees>
            </Position>
            <AltitudeMeters>26.3999996185302734375</AltitudeMeters>
            <DistanceMeters>NAN</DistanceMeters>
          </Trackpoint>
          <Trackpoint>
            <Time>2022-07-08T15:56:17.000Z</Time>
            <Position>
              <LatitudeDegrees>43.3473292551934719085693359375</LatitudeDegrees>
              <LongitudeDegrees>-1.8012473545968532562255859375</LongitudeDegrees>
            </Position>
            <AltitudeMeters>26.3999996185302734375</AltitudeMeters>
            <DistanceMeters>NAN</DistanceMeters>
          </Trackpoint>
          <Trackpoint>
            <Time>2022-07-08T15:56:19.000Z</Time>
            <Position>
              <LatitudeDegrees>43.34733688272535800933837890625</LatitudeDegrees>
              <LongitudeDegrees>-1.80132128298282623291015625</LongitudeDegrees>
            </Position>
            <AltitudeMeters>26.3999996185302734375</AltitudeMeters>
            <DistanceMeters>NAN</DistanceMeters>
          </Trackpoint>
          <Trackpoint>
            <Time>2022-07-08T15:56:25.000Z</Time>
            <Position>
              <LatitudeDegrees>43.34743763320147991180419921875</LatitudeDegrees>
              <LongitudeDegrees>-1.8015392124652862548828125</LongitudeDegrees>
            </Position>
            <AltitudeMeters>26.799999237060546875</AltitudeMeters>
            <DistanceMeters>NAN</DistanceMeters>
          </Trackpoint>
          <Trackpoint>
            <Time>2022-07-08T15:56:29.000Z</Time>
            <Position>
              <LatitudeDegrees>43.347493708133697509765625</LatitudeDegrees>
              <LongitudeDegrees>-1.8016828782856464385986328125</LongitudeDegrees>
            </Position>
            <AltitudeMeters>27</AltitudeMeters>
            <DistanceMeters>NAN</DistanceMeters>
          </Trackpoint>
          <Trackpoint>
            <Time>2022-07-08T15:56:32.000Z</Time>
            <Position>
              <LatitudeDegrees>43.34753251634538173675537109375</LatitudeDegrees>
              <LongitudeDegrees>-1.801808439195156097412109375</LongitudeDegrees>
            </Position>
            <AltitudeMeters>26.6000003814697265625</AltitudeMeters>
            <DistanceMeters>NAN</DistanceMeters>
          </Trackpoint>
          <Trackpoint>
            <Time>2022-07-08T15:56:40.000Z</Time>
            <Position>
              <LatitudeDegrees>43.3476702310144901275634765625</LatitudeDegrees>
              <LongitudeDegrees>-1.802122592926025390625</LongitudeDegrees>
            </Position>
            <AltitudeMeters>26</AltitudeMeters>
            <DistanceMeters>NAN</DistanceMeters>
          </Trackpoint>
          <Trackpoint>
            <Time>2022-07-08T15:56:41.000Z</Time>
            <Position>
              <LatitudeDegrees>43.347688503563404083251953125</LatitudeDegrees>
              <LongitudeDegrees>-1.80216240696609020233154296875</LongitudeDegrees>
            </Position>
            <AltitudeMeters>26.200000762939453125</AltitudeMeters>
            <DistanceMeters>NAN</DistanceMeters>
          </Trackpoint>
          <Trackpoint>
            <Time>2022-07-08T15:56:44.000Z</Time>
            <Position>
              <LatitudeDegrees>43.3477315865457057952880859375</LatitudeDegrees>
              <LongitudeDegrees>-1.80227858014404773712158203125</LongitudeDegrees>
            </Position>
            <AltitudeMeters>26</AltitudeMeters>
            <DistanceMeters>NAN</DistanceMeters>
          </Trackpoint>
          <Trackpoint>
            <Time>2022-07-08T15:56:48.000Z</Time>
            <Position>
              <LatitudeDegrees>43.34780149161815643310546875</LatitudeDegrees>
              <LongitudeDegrees>-1.80244755931198596954345703125</LongitudeDegrees>
            </Position>
            <AltitudeMeters>25.799999237060546875</AltitudeMeters>
            <DistanceMeters>NAN</DistanceMeters>
          </Trackpoint>
          <Trackpoint>
            <Time>2022-07-08T15:56:55.000Z</Time>
            <Position>
              <LatitudeDegrees>43.34789293818175792694091796875</LatitudeDegrees>
              <LongitudeDegrees>-1.80270220153033733367919921875</LongitudeDegrees>
            </Position>
            <AltitudeMeters>25.6000003814697265625</AltitudeMeters>
            <DistanceMeters>NAN</DistanceMeters>
          </Trackpoint>
          <Trackpoint>
            <Time>2022-07-08T15:57:03.000Z</Time>
            <Position>
              <LatitudeDegrees>43.348019756376743316650390625</LatitudeDegrees>
              <LongitudeDegrees>-1.80302808992564678192138671875</LongitudeDegrees>
            </Position>
            <AltitudeMeters>26.3999996185302734375</AltitudeMeters>
            <DistanceMeters>NAN</DistanceMeters>
          </Trackpoint>
          <Trackpoint>
            <Time>2022-07-08T15:57:04.000Z</Time>
            <Position>
              <LatitudeDegrees>43.34803274832665920257568359375</LatitudeDegrees>
              <LongitudeDegrees>-1.803060360252857208251953125</LongitudeDegrees>
            </Position>
            <AltitudeMeters>26.3999996185302734375</AltitudeMeters>
            <DistanceMeters>NAN</DistanceMeters>
          </Trackpoint>
          <Trackpoint>
            <Time>2022-07-08T15:57:13.000Z</Time>
            <Position>
              <LatitudeDegrees>43.34819451905786991119384765625</LatitudeDegrees>
              <LongitudeDegrees>-1.803419105708599090576171875</LongitudeDegrees>
            </Position>
            <AltitudeMeters>26.6000003814697265625</AltitudeMeters>
            <DistanceMeters>NAN</DistanceMeters>
          </Trackpoint>
          <Trackpoint>
            <Time>2022-07-08T15:57:18.000Z</Time>
            <Position>
              <LatitudeDegrees>43.34824539721012115478515625</LatitudeDegrees>
              <LongitudeDegrees>-1.80355045013129711151123046875</LongitudeDegrees>
            </Position>
            <AltitudeMeters>26.200000762939453125</AltitudeMeters>
            <DistanceMeters>NAN</DistanceMeters>
          </Trackpoint>
          <Trackpoint>
            <Time>2022-07-08T15:57:22.000Z</Time>
            <Position>
              <LatitudeDegrees>43.3483223430812358856201171875</LatitudeDegrees>
              <LongitudeDegrees>-1.80375044234097003936767578125</LongitudeDegrees>
            </Position>
            <AltitudeMeters>26.200000762939453125</AltitudeMeters>
            <DistanceMeters>NAN</DistanceMeters>
          </Trackpoint>
          <Trackpoint>
            <Time>2022-07-08T15:57:29.000Z</Time>
            <Position>
              <LatitudeDegrees>43.3484338223934173583984375</LatitudeDegrees>
              <LongitudeDegrees>-1.80406275205314159393310546875</LongitudeDegrees>
            </Position>
            <AltitudeMeters>26</AltitudeMeters>
            <DistanceMeters>NAN</DistanceMeters>
          </Trackpoint>
          <Trackpoint>
            <Time>2022-07-08T15:57:38.000Z</Time>
            <Position>
              <LatitudeDegrees>43.348560892045497894287109375</LatitudeDegrees>
              <LongitudeDegrees>-1.80439517833292484283447265625</LongitudeDegrees>
            </Position>
            <AltitudeMeters>26.200000762939453125</AltitudeMeters>
            <DistanceMeters>NAN</DistanceMeters>
          </Trackpoint>
          <Trackpoint>
            <Time>2022-07-08T15:57:43.000Z</Time>
            <Position>
              <LatitudeDegrees>43.348640687763690948486328125</LatitudeDegrees>
              <LongitudeDegrees>-1.8046289496123790740966796875</LongitudeDegrees>
            </Position>
            <AltitudeMeters>26</AltitudeMeters>
            <DistanceMeters>NAN</DistanceMeters>
          </Trackpoint>
          <Trackpoint>
            <Time>2022-07-08T15:57:47.000Z</Time>
            <Position>
              <LatitudeDegrees>43.34870003163814544677734375</LatitudeDegrees>
              <LongitudeDegrees>-1.80481016635894775390625</LongitudeDegrees>
            </Position>
            <AltitudeMeters>26</AltitudeMeters>
            <DistanceMeters>NAN</DistanceMeters>
          </Trackpoint>
          <Trackpoint>
            <Time>2022-07-08T15:57:56.000Z</Time>
            <Position>
              <LatitudeDegrees>43.348860628902912139892578125</LatitudeDegrees>
              <LongitudeDegrees>-1.805224232375621795654296875</LongitudeDegrees>
            </Position>
            <AltitudeMeters>26.200000762939453125</AltitudeMeters>
            <DistanceMeters>NAN</DistanceMeters>
          </Trackpoint>
          <Trackpoint>
            <Time>2022-07-08T15:58:02.000Z</Time>
            <Position>
              <LatitudeDegrees>43.348947800695896148681640625</LatitudeDegrees>
              <LongitudeDegrees>-1.80543118156492710113525390625</LongitudeDegrees>
            </Position>
            <AltitudeMeters>26.799999237060546875</AltitudeMeters>
            <DistanceMeters>NAN</DistanceMeters>
          </Trackpoint>
          <Trackpoint>
            <Time>2022-07-08T15:58:03.000Z</Time>
            <Position>
              <LatitudeDegrees>43.34895928390324115753173828125</LatitudeDegrees>
              <LongitudeDegrees>-1.80546102114021778106689453125</LongitudeDegrees>
            </Position>
            <AltitudeMeters>26.799999237060546875</AltitudeMeters>
            <DistanceMeters>NAN</DistanceMeters>
          </Trackpoint>
          <Trackpoint>
            <Time>2022-07-08T15:58:06.000Z</Time>
            <Position>
              <LatitudeDegrees>43.34900270216166973114013671875</LatitudeDegrees>
              <LongitudeDegrees>-1.805553138256072998046875</LongitudeDegrees>
            </Position>
            <AltitudeMeters>27.3999996185302734375</AltitudeMeters>
            <DistanceMeters>NAN</DistanceMeters>
          </Trackpoint>
          <Trackpoint>
            <Time>2022-07-08T15:58:10.000Z</Time>
            <Position>
              <LatitudeDegrees>43.34905114956200122833251953125</LatitudeDegrees>
              <LongitudeDegrees>-1.8056510388851165771484375</LongitudeDegrees>
            </Position>
            <AltitudeMeters>27.6000003814697265625</AltitudeMeters>
            <DistanceMeters>NAN</DistanceMeters>
          </Trackpoint>
          <Trackpoint>
            <Time>2022-07-08T15:58:13.000Z</Time>
            <Position>
              <LatitudeDegrees>43.3490587770938873291015625</LatitudeDegrees>
              <LongitudeDegrees>-1.8056696467101573944091796875</LongitudeDegrees>
            </Position>
            <AltitudeMeters>27.3999996185302734375</AltitudeMeters>
            <DistanceMeters>NAN</DistanceMeters>
          </Trackpoint>
          <Trackpoint>
            <Time>2022-07-08T15:58:14.000Z</Time>
            <Position>
              <LatitudeDegrees>43.3490587770938873291015625</LatitudeDegrees>
              <LongitudeDegrees>-1.8056696467101573944091796875</LongitudeDegrees>
            </Position>
            <AltitudeMeters>27.3999996185302734375</AltitudeMeters>
            <DistanceMeters>NAN</DistanceMeters>
          </Trackpoint>
          <Trackpoint>
            <Time>2022-07-08T15:58:30.000Z</Time>
            <Position>
              <LatitudeDegrees>43.34907813929021358489990234375</LatitudeDegrees>
              <LongitudeDegrees>-1.805690936744213104248046875</LongitudeDegrees>
            </Position>
            <AltitudeMeters>27.3999996185302734375</AltitudeMeters>
            <DistanceMeters>NAN</DistanceMeters>
          </Trackpoint>
          <Trackpoint>
            <Time>2022-07-08T15:58:32.000Z</Time>
            <Position>
              <LatitudeDegrees>43.3491052128374576568603515625</LatitudeDegrees>
              <LongitudeDegrees>-1.8057534657418727874755859375</LongitudeDegrees>
            </Position>
            <AltitudeMeters>27.3999996185302734375</AltitudeMeters>
            <DistanceMeters>NAN</DistanceMeters>
          </Trackpoint>
          <Trackpoint>
            <Time>2022-07-08T15:58:36.000Z</Time>
            <Position>
              <LatitudeDegrees>43.3491471223533153533935546875</LatitudeDegrees>
              <LongitudeDegrees>-1.80592739023268222808837890625</LongitudeDegrees>
            </Position>
            <AltitudeMeters>27.799999237060546875</AltitudeMeters>
            <DistanceMeters>NAN</DistanceMeters>
          </Trackpoint>
          <Trackpoint>
            <Time>2022-07-08T15:58:39.000Z</Time>
            <Position>
              <LatitudeDegrees>43.34919112734496593475341796875</LatitudeDegrees>
              <LongitudeDegrees>-1.806057728826999664306640625</LongitudeDegrees>
            </Position>
            <AltitudeMeters>27.799999237060546875</AltitudeMeters>
            <DistanceMeters>NAN</DistanceMeters>
          </Trackpoint>
          <Trackpoint>
            <Time>2022-07-08T15:58:45.000Z</Time>
            <Position>
              <LatitudeDegrees>43.34928886033594608306884765625</LatitudeDegrees>
              <LongitudeDegrees>-1.80635939352214336395263671875</LongitudeDegrees>
            </Position>
            <AltitudeMeters>27.200000762939453125</AltitudeMeters>
            <DistanceMeters>NAN</DistanceMeters>
          </Trackpoint>
          <Trackpoint>
            <Time>2022-07-08T15:58:52.000Z</Time>
            <Position>
              <LatitudeDegrees>43.3494371362030506134033203125</LatitudeDegrees>
              <LongitudeDegrees>-1.80675250478088855743408203125</LongitudeDegrees>
            </Position>
            <AltitudeMeters>27</AltitudeMeters>
            <DistanceMeters>NAN</DistanceMeters>
          </Trackpoint>
          <Trackpoint>
            <Time>2022-07-08T15:58:53.000Z</Time>
            <Position>
              <LatitudeDegrees>43.34945515729486942291259765625</LatitudeDegrees>
              <LongitudeDegrees>-1.80680598132312297821044921875</LongitudeDegrees>
            </Position>
            <AltitudeMeters>27</AltitudeMeters>
            <DistanceMeters>NAN</DistanceMeters>
          </Trackpoint>
          <Trackpoint>
            <Time>2022-07-08T15:58:57.000Z</Time>
            <Position>
              <LatitudeDegrees>43.34952523000538349151611328125</LatitudeDegrees>
              <LongitudeDegrees>-1.807012259960174560546875</LongitudeDegrees>
            </Position>
            <AltitudeMeters>26.799999237060546875</AltitudeMeters>
            <DistanceMeters>NAN</DistanceMeters>
          </Trackpoint>
          <Trackpoint>
            <Time>2022-07-08T15:59:01.000Z</Time>
            <Position>
              <LatitudeDegrees>43.3496041037142276763916015625</LatitudeDegrees>
              <LongitudeDegrees>-1.8072226457297801971435546875</LongitudeDegrees>
            </Position>
            <AltitudeMeters>26.6000003814697265625</AltitudeMeters>
            <DistanceMeters>NAN</DistanceMeters>
          </Trackpoint>
          <Trackpoint>
            <Time>2022-07-08T15:59:11.000Z</Time>
            <Position>
              <LatitudeDegrees>43.3497844822704792022705078125</LatitudeDegrees>
              <LongitudeDegrees>-1.8077377974987030029296875</LongitudeDegrees>
            </Position>
            <AltitudeMeters>27</AltitudeMeters>
            <DistanceMeters>NAN</DistanceMeters>
          </Trackpoint>
          <Trackpoint>
            <Time>2022-07-08T15:59:21.000Z</Time>
            <Position>
              <LatitudeDegrees>43.3499658666551113128662109375</LatitudeDegrees>
              <LongitudeDegrees>-1.80822839029133319854736328125</LongitudeDegrees>
            </Position>
            <AltitudeMeters>27.200000762939453125</AltitudeMeters>
            <DistanceMeters>NAN</DistanceMeters>
          </Trackpoint>
          <Trackpoint>
            <Time>2022-07-08T15:59:29.000Z</Time>
            <Position>
              <LatitudeDegrees>43.350096456706523895263671875</LatitudeDegrees>
              <LongitudeDegrees>-1.80858914740383625030517578125</LongitudeDegrees>
            </Position>
            <AltitudeMeters>27.6000003814697265625</AltitudeMeters>
            <DistanceMeters>NAN</DistanceMeters>
          </Trackpoint>
          <Trackpoint>
            <Time>2022-07-08T15:59:30.000Z</Time>
            <Position>
              <LatitudeDegrees>43.35010944865643978118896484375</LatitudeDegrees>
              <LongitudeDegrees>-1.80862803943455219268798828125</LongitudeDegrees>
            </Position>
            <AltitudeMeters>27.6000003814697265625</AltitudeMeters>
            <DistanceMeters>NAN</DistanceMeters>
          </Trackpoint>
          <Trackpoint>
            <Time>2022-07-08T15:59:38.000Z</Time>
            <Position>
              <LatitudeDegrees>43.35020835511386394500732421875</LatitudeDegrees>
              <LongitudeDegrees>-1.8090002797544002532958984375</LongitudeDegrees>
            </Position>
            <AltitudeMeters>27.6000003814697265625</AltitudeMeters>
            <DistanceMeters>NAN</DistanceMeters>
          </Trackpoint>
          <Trackpoint>
            <Time>2022-07-08T15:59:40.000Z</Time>
            <Position>
              <LatitudeDegrees>43.3502347581088542938232421875</LatitudeDegrees>
              <LongitudeDegrees>-1.80909340269863605499267578125</LongitudeDegrees>
            </Position>
            <AltitudeMeters>27.6000003814697265625</AltitudeMeters>
            <DistanceMeters>NAN</DistanceMeters>
          </Trackpoint>
          <Trackpoint>
            <Time>2022-07-08T15:59:42.000Z</Time>
            <Position>
              <LatitudeDegrees>43.3502575568854808807373046875</LatitudeDegrees>
              <LongitudeDegrees>-1.80916951037943363189697265625</LongitudeDegrees>
            </Position>
            <AltitudeMeters>27.6000003814697265625</AltitudeMeters>
            <DistanceMeters>NAN</DistanceMeters>
          </Trackpoint>
          <Trackpoint>
            <Time>2022-07-08T15:59:45.000Z</Time>
            <Position>
              <LatitudeDegrees>43.35030390881001949310302734375</LatitudeDegrees>
              <LongitudeDegrees>-1.80932625196874141693115234375</LongitudeDegrees>
            </Position>
            <AltitudeMeters>27.6000003814697265625</AltitudeMeters>
            <DistanceMeters>NAN</DistanceMeters>
          </Trackpoint>
          <Trackpoint>
            <Time>2022-07-08T15:59:54.000Z</Time>
            <Position>
              <LatitudeDegrees>43.350420333445072174072265625</LatitudeDegrees>
              <LongitudeDegrees>-1.80980754084885120391845703125</LongitudeDegrees>
            </Position>
            <AltitudeMeters>27.799999237060546875</AltitudeMeters>
            <DistanceMeters>NAN</DistanceMeters>
          </Trackpoint>
          <Trackpoint>
            <Time>2022-07-08T15:59:56.000Z</Time>
            <Position>
              <LatitudeDegrees>43.3504432998597621917724609375</LatitudeDegrees>
              <LongitudeDegrees>-1.80990912951529026031494140625</LongitudeDegrees>
            </Position>
            <AltitudeMeters>27.799999237060546875</AltitudeMeters>
            <DistanceMeters>NAN</DistanceMeters>
          </Trackpoint>
          <Trackpoint>
            <Time>2022-07-08T15:59:57.000Z</Time>
            <Position>
              <LatitudeDegrees>43.3504562079906463623046875</LatitudeDegrees>
              <LongitudeDegrees>-1.80996662937104701995849609375</LongitudeDegrees>
            </Position>
            <AltitudeMeters>28</AltitudeMeters>
            <DistanceMeters>NAN</DistanceMeters>
          </Trackpoint>
          <Trackpoint>
            <Time>2022-07-08T16:00:02.000Z</Time>
            <Position>
              <LatitudeDegrees>43.35052661597728729248046875</LatitudeDegrees>
              <LongitudeDegrees>-1.81021875701844692230224609375</LongitudeDegrees>
            </Position>
            <AltitudeMeters>28.200000762939453125</AltitudeMeters>
            <DistanceMeters>NAN</DistanceMeters>
          </Trackpoint>
          <Trackpoint>
            <Time>2022-07-08T16:00:03.000Z</Time>
            <Position>
              <LatitudeDegrees>43.3505391888320446014404296875</LatitudeDegrees>
              <LongitudeDegrees>-1.81026670150458812713623046875</LongitudeDegrees>
            </Position>
            <AltitudeMeters>28.200000762939453125</AltitudeMeters>
            <DistanceMeters>NAN</DistanceMeters>
          </Trackpoint>
          <Trackpoint>
            <Time>2022-07-08T16:00:08.000Z</Time>
            <Position>
              <LatitudeDegrees>43.3506085909903049468994140625</LatitudeDegrees>
              <LongitudeDegrees>-1.810534000396728515625</LongitudeDegrees>
            </Position>
            <AltitudeMeters>28.200000762939453125</AltitudeMeters>
            <DistanceMeters>NAN</DistanceMeters>
          </Trackpoint>
          <Trackpoint>
            <Time>2022-07-08T16:00:11.000Z</Time>
            <Position>
              <LatitudeDegrees>43.35065661929547786712646484375</LatitudeDegrees>
              <LongitudeDegrees>-1.8106951005756855010986328125</LongitudeDegrees>
            </Position>
            <AltitudeMeters>28.200000762939453125</AltitudeMeters>
            <DistanceMeters>NAN</DistanceMeters>
          </Trackpoint>
          <Trackpoint>
            <Time>2022-07-08T16:00:16.000Z</Time>
            <Position>
              <LatitudeDegrees>43.35077044554054737091064453125</LatitudeDegrees>
              <LongitudeDegrees>-1.8109532631933689117431640625</LongitudeDegrees>
            </Position>
            <AltitudeMeters>28.3999996185302734375</AltitudeMeters>
            <DistanceMeters>NAN</DistanceMeters>
          </Trackpoint>
          <Trackpoint>
            <Time>2022-07-08T16:00:18.000Z</Time>
            <Position>
              <LatitudeDegrees>43.3508094213902950286865234375</LatitudeDegrees>
              <LongitudeDegrees>-1.81101654656231403350830078125</LongitudeDegrees>
            </Position>
            <AltitudeMeters>28.6000003814697265625</AltitudeMeters>
            <DistanceMeters>NAN</DistanceMeters>
          </Trackpoint>
          <Trackpoint>
            <Time>2022-07-08T16:00:26.000Z</Time>
            <Position>
              <LatitudeDegrees>43.3509659953415393829345703125</LatitudeDegrees>
              <LongitudeDegrees>-1.81124671362340450286865234375</LongitudeDegrees>
            </Position>
            <AltitudeMeters>28.799999237060546875</AltitudeMeters>
            <DistanceMeters>NAN</DistanceMeters>
          </Trackpoint>
          <Trackpoint>
            <Time>2022-07-08T16:00:30.000Z</Time>
            <Position>
              <LatitudeDegrees>43.3509988524019718170166015625</LatitudeDegrees>
              <LongitudeDegrees>-1.81133070029318332672119140625</LongitudeDegrees>
            </Position>
            <AltitudeMeters>28.3999996185302734375</AltitudeMeters>
            <DistanceMeters>NAN</DistanceMeters>
          </Trackpoint>
          <Trackpoint>
            <Time>2022-07-08T16:00:34.000Z</Time>
            <Position>
              <LatitudeDegrees>43.3510779775679111480712890625</LatitudeDegrees>
              <LongitudeDegrees>-1.81149582378566265106201171875</LongitudeDegrees>
            </Position>
            <AltitudeMeters>28.200000762939453125</AltitudeMeters>
            <DistanceMeters>NAN</DistanceMeters>
          </Trackpoint>
          <Trackpoint>
            <Time>2022-07-08T16:00:43.000Z</Time>
            <Position>
              <LatitudeDegrees>43.35126330144703388214111328125</LatitudeDegrees>
              <LongitudeDegrees>-1.8118836544454097747802734375</LongitudeDegrees>
            </Position>
            <AltitudeMeters>28.200000762939453125</AltitudeMeters>
            <DistanceMeters>NAN</DistanceMeters>
          </Trackpoint>
          <Trackpoint>
            <Time>2022-07-08T16:00:47.000Z</Time>
            <Position>
              <LatitudeDegrees>43.3513542450964450836181640625</LatitudeDegrees>
              <LongitudeDegrees>-1.81207551620900630950927734375</LongitudeDegrees>
            </Position>
            <AltitudeMeters>28.200000762939453125</AltitudeMeters>
            <DistanceMeters>NAN</DistanceMeters>
          </Trackpoint>
          <Trackpoint>
            <Time>2022-07-08T16:00:52.000Z</Time>
            <Position>
              <LatitudeDegrees>43.3514595218002796173095703125</LatitudeDegrees>
              <LongitudeDegrees>-1.81229663081467151641845703125</LongitudeDegrees>
            </Position>
            <AltitudeMeters>28.3999996185302734375</AltitudeMeters>
            <DistanceMeters>NAN</DistanceMeters>
          </Trackpoint>
          <Trackpoint>
            <Time>2022-07-08T16:00:56.000Z</Time>
            <Position>
              <LatitudeDegrees>43.351538144052028656005859375</LatitudeDegrees>
              <LongitudeDegrees>-1.81247198022902011871337890625</LongitudeDegrees>
            </Position>
            <AltitudeMeters>28.3999996185302734375</AltitudeMeters>
            <DistanceMeters>NAN</DistanceMeters>
          </Trackpoint>
          <Trackpoint>
            <Time>2022-07-08T16:00:58.000Z</Time>
            <Position>
              <LatitudeDegrees>43.3515773713588714599609375</LatitudeDegrees>
              <LongitudeDegrees>-1.81254624389111995697021484375</LongitudeDegrees>
            </Position>
            <AltitudeMeters>28.3999996185302734375</AltitudeMeters>
            <DistanceMeters>NAN</DistanceMeters>
          </Trackpoint>
          <Trackpoint>
            <Time>2022-07-08T16:01:00.000Z</Time>
            <Position>
              <LatitudeDegrees>43.35161902941763401031494140625</LatitudeDegrees>
              <LongitudeDegrees>-1.8125890754163265228271484375</LongitudeDegrees>
            </Position>
            <AltitudeMeters>28.200000762939453125</AltitudeMeters>
            <DistanceMeters>NAN</DistanceMeters>
          </Trackpoint>
          <Trackpoint>
            <Time>2022-07-08T16:01:01.000Z</Time>
            <Position>
              <LatitudeDegrees>43.35163570940494537353515625</LatitudeDegrees>
              <LongitudeDegrees>-1.81258597411215305328369140625</LongitudeDegrees>
            </Position>
            <AltitudeMeters>28.200000762939453125</AltitudeMeters>
            <DistanceMeters>NAN</DistanceMeters>
          </Trackpoint>
          <Trackpoint>
            <Time>2022-07-08T16:01:04.000Z</Time>
            <Position>
              <LatitudeDegrees>43.351635038852691650390625</LatitudeDegrees>
              <LongitudeDegrees>-1.81253249756991863250732421875</LongitudeDegrees>
            </Position>
            <AltitudeMeters>28.200000762939453125</AltitudeMeters>
            <DistanceMeters>NAN</DistanceMeters>
          </Trackpoint>
          <Trackpoint>
            <Time>2022-07-08T16:01:10.000Z</Time>
            <Position>
              <LatitudeDegrees>43.3516214601695537567138671875</LatitudeDegrees>
              <LongitudeDegrees>-1.812332086265087127685546875</LongitudeDegrees>
            </Position>
            <AltitudeMeters>28.200000762939453125</AltitudeMeters>
            <DistanceMeters>NAN</DistanceMeters>
          </Trackpoint>
          <Trackpoint>
            <Time>2022-07-08T16:01:16.000Z</Time>
            <Position>
              <LatitudeDegrees>43.351642750203609466552734375</LatitudeDegrees>
              <LongitudeDegrees>-1.8121662922203540802001953125</LongitudeDegrees>
            </Position>
            <AltitudeMeters>27.799999237060546875</AltitudeMeters>
            <DistanceMeters>NAN</DistanceMeters>
          </Trackpoint>
          <Trackpoint>
            <Time>2022-07-08T16:01:21.000Z</Time>
            <Position>
              <LatitudeDegrees>43.35165121592581272125244140625</LatitudeDegrees>
              <LongitudeDegrees>-1.812149696052074432373046875</LongitudeDegrees>
            </Position>
            <AltitudeMeters>27.6000003814697265625</AltitudeMeters>
            <DistanceMeters>NAN</DistanceMeters>
          </Trackpoint>
          <Trackpoint>
            <Time>2022-07-08T16:01:24.000Z</Time>
            <Position>
              <LatitudeDegrees>43.35165238939225673675537109375</LatitudeDegrees>
              <LongitudeDegrees>-1.81214592419564723968505859375</LongitudeDegrees>
            </Position>
            <AltitudeMeters>27.6000003814697265625</AltitudeMeters>
            <DistanceMeters>NAN</DistanceMeters>
          </Trackpoint>
          <Trackpoint>
            <Time>2022-07-08T16:02:17.000Z</Time>
            <Position>
              <LatitudeDegrees>43.3516881801187992095947265625</LatitudeDegrees>
              <LongitudeDegrees>-1.812062524259090423583984375</LongitudeDegrees>
            </Position>
            <AltitudeMeters>28.200000762939453125</AltitudeMeters>
            <DistanceMeters>NAN</DistanceMeters>
          </Trackpoint>
          <Trackpoint>
            <Time>2022-07-08T16:02:18.000Z</Time>
            <Position>
              <LatitudeDegrees>43.35169580765068531036376953125</LatitudeDegrees>
              <LongitudeDegrees>-1.81202866137027740478515625</LongitudeDegrees>
            </Position>
            <AltitudeMeters>28.200000762939453125</AltitudeMeters>
            <DistanceMeters>NAN</DistanceMeters>
          </Trackpoint>
          <Trackpoint>
            <Time>2022-07-08T16:02:23.000Z</Time>
            <Position>
              <LatitudeDegrees>43.3517696522176265716552734375</LatitudeDegrees>
              <LongitudeDegrees>-1.8118357099592685699462890625</LongitudeDegrees>
            </Position>
            <AltitudeMeters>28.6000003814697265625</AltitudeMeters>
            <DistanceMeters>NAN</DistanceMeters>
          </Trackpoint>
          <Trackpoint>
            <Time>2022-07-08T16:02:30.000Z</Time>
            <Position>
              <LatitudeDegrees>43.35186830721795558929443359375</LatitudeDegrees>
              <LongitudeDegrees>-1.8115195445716381072998046875</LongitudeDegrees>
            </Position>
            <AltitudeMeters>28.200000762939453125</AltitudeMeters>
            <DistanceMeters>NAN</DistanceMeters>
          </Trackpoint>
          <Trackpoint>
            <Time>2022-07-08T16:02:38.000Z</Time>
            <Position>
              <LatitudeDegrees>43.35199135355651378631591796875</LatitudeDegrees>
              <LongitudeDegrees>-1.8111195601522922515869140625</LongitudeDegrees>
            </Position>
            <AltitudeMeters>28.3999996185302734375</AltitudeMeters>
            <DistanceMeters>NAN</DistanceMeters>
          </Trackpoint>
          <Trackpoint>
            <Time>2022-07-08T16:02:41.000Z</Time>
            <Position>
              <LatitudeDegrees>43.3520650304853916168212890625</LatitudeDegrees>
              <LongitudeDegrees>-1.811008416116237640380859375</LongitudeDegrees>
            </Position>
            <AltitudeMeters>28.200000762939453125</AltitudeMeters>
            <DistanceMeters>NAN</DistanceMeters>
          </Trackpoint>
          <Trackpoint>
            <Time>2022-07-08T16:02:44.000Z</Time>
            <Position>
              <LatitudeDegrees>43.35216519422829151153564453125</LatitudeDegrees>
              <LongitudeDegrees>-1.8109028041362762451171875</LongitudeDegrees>
            </Position>
            <AltitudeMeters>28.3999996185302734375</AltitudeMeters>
            <DistanceMeters>NAN</DistanceMeters>
          </Trackpoint>
          <Trackpoint>
            <Time>2022-07-08T16:02:47.000Z</Time>
            <Position>
              <LatitudeDegrees>43.3522398769855499267578125</LatitudeDegrees>
              <LongitudeDegrees>-1.81079191155731678009033203125</LongitudeDegrees>
            </Position>
            <AltitudeMeters>28.3999996185302734375</AltitudeMeters>
            <DistanceMeters>NAN</DistanceMeters>
          </Trackpoint>
          <Trackpoint>
            <Time>2022-07-08T16:02:48.000Z</Time>
            <Position>
              <LatitudeDegrees>43.35223258472979068756103515625</LatitudeDegrees>
              <LongitudeDegrees>-1.81074866093695163726806640625</LongitudeDegrees>
            </Position>
            <AltitudeMeters>28.3999996185302734375</AltitudeMeters>
            <DistanceMeters>NAN</DistanceMeters>
          </Trackpoint>
          <Trackpoint>
            <Time>2022-07-08T16:02:49.000Z</Time>
            <Position>
              <LatitudeDegrees>43.35221238434314727783203125</LatitudeDegrees>
              <LongitudeDegrees>-1.8107165582478046417236328125</LongitudeDegrees>
            </Position>
            <AltitudeMeters>28.3999996185302734375</AltitudeMeters>
            <DistanceMeters>NAN</DistanceMeters>
          </Trackpoint>
          <Trackpoint>
            <Time>2022-07-08T16:02:51.000Z</Time>
            <Position>
              <LatitudeDegrees>43.352146334946155548095703125</LatitudeDegrees>
              <LongitudeDegrees>-1.81067557074129581451416015625</LongitudeDegrees>
            </Position>
            <AltitudeMeters>28.6000003814697265625</AltitudeMeters>
            <DistanceMeters>NAN</DistanceMeters>
          </Trackpoint>
          <Trackpoint>
            <Time>2022-07-08T16:02:57.000Z</Time>
            <Position>
              <LatitudeDegrees>43.3519111387431621551513671875</LatitudeDegrees>
              <LongitudeDegrees>-1.81061823852360248565673828125</LongitudeDegrees>
            </Position>
            <AltitudeMeters>28.6000003814697265625</AltitudeMeters>
            <DistanceMeters>NAN</DistanceMeters>
          </Trackpoint>
          <Trackpoint>
            <Time>2022-07-08T16:03:00.000Z</Time>
            <Position>
              <LatitudeDegrees>43.35182078182697296142578125</LatitudeDegrees>
              <LongitudeDegrees>-1.8106050789356231689453125</LongitudeDegrees>
            </Position>
            <AltitudeMeters>28.6000003814697265625</AltitudeMeters>
            <DistanceMeters>NAN</DistanceMeters>
          </Trackpoint>
          <Trackpoint>
            <Time>2022-07-08T16:03:01.000Z</Time>
            <Position>
              <LatitudeDegrees>43.35180024616420269012451171875</LatitudeDegrees>
              <LongitudeDegrees>-1.81059761904180049896240234375</LongitudeDegrees>
            </Position>
            <AltitudeMeters>28.3999996185302734375</AltitudeMeters>
            <DistanceMeters>NAN</DistanceMeters>
          </Trackpoint>
          <Trackpoint>
            <Time>2022-07-08T16:03:07.000Z</Time>
            <Position>
              <LatitudeDegrees>43.35169513709843158721923828125</LatitudeDegrees>
              <LongitudeDegrees>-1.81053056381642818450927734375</LongitudeDegrees>
            </Position>
            <AltitudeMeters>28</AltitudeMeters>
            <DistanceMeters>NAN</DistanceMeters>
          </Trackpoint>
          <Trackpoint>
            <Time>2022-07-08T16:03:09.000Z</Time>
            <Position>
              <LatitudeDegrees>43.3516754396259784698486328125</LatitudeDegrees>
              <LongitudeDegrees>-1.81049418635666370391845703125</LongitudeDegrees>
            </Position>
            <AltitudeMeters>28</AltitudeMeters>
            <DistanceMeters>NAN</DistanceMeters>
          </Trackpoint>
          <Trackpoint>
            <Time>2022-07-08T16:03:11.000Z</Time>
            <Position>
              <LatitudeDegrees>43.35168675519526004791259765625</LatitudeDegrees>
              <LongitudeDegrees>-1.81046132929623126983642578125</LongitudeDegrees>
            </Position>
            <AltitudeMeters>28</AltitudeMeters>
            <DistanceMeters>NAN</DistanceMeters>
          </Trackpoint>
          <Trackpoint>
            <Time>2022-07-08T16:03:14.000Z</Time>
            <Position>
              <LatitudeDegrees>43.35172112099826335906982421875</LatitudeDegrees>
              <LongitudeDegrees>-1.81040517054498195648193359375</LongitudeDegrees>
            </Position>
            <AltitudeMeters>28.200000762939453125</AltitudeMeters>
            <DistanceMeters>NAN</DistanceMeters>
          </Trackpoint>
          <Trackpoint>
            <Time>2022-07-08T16:03:16.000Z</Time>
            <Position>
              <LatitudeDegrees>43.3517475239932537078857421875</LatitudeDegrees>
              <LongitudeDegrees>-1.81040416471660137176513671875</LongitudeDegrees>
            </Position>
            <AltitudeMeters>28.3999996185302734375</AltitudeMeters>
            <DistanceMeters>NAN</DistanceMeters>
          </Trackpoint>
          <Trackpoint>
            <Time>2022-07-08T16:03:20.000Z</Time>
            <Position>
              <LatitudeDegrees>43.35184617899358272552490234375</LatitudeDegrees>
              <LongitudeDegrees>-1.810440458357334136962890625</LongitudeDegrees>
            </Position>
            <AltitudeMeters>28.6000003814697265625</AltitudeMeters>
            <DistanceMeters>NAN</DistanceMeters>
          </Trackpoint>
          <Trackpoint>
            <Time>2022-07-08T16:03:21.000Z</Time>
            <Position>
              <LatitudeDegrees>43.3518695645034313201904296875</LatitudeDegrees>
              <LongitudeDegrees>-1.81042461656033992767333984375</LongitudeDegrees>
            </Position>
            <AltitudeMeters>28.6000003814697265625</AltitudeMeters>
            <DistanceMeters>NAN</DistanceMeters>
          </Trackpoint>
          <Trackpoint>
            <Time>2022-07-08T16:03:22.000Z</Time>
            <Position>
              <LatitudeDegrees>43.3518849872052669525146484375</LatitudeDegrees>
              <LongitudeDegrees>-1.81039611808955669403076171875</LongitudeDegrees>
            </Position>
            <AltitudeMeters>28.6000003814697265625</AltitudeMeters>
            <DistanceMeters>NAN</DistanceMeters>
          </Trackpoint>
          <Trackpoint>
            <Time>2022-07-08T16:03:25.000Z</Time>
            <Position>
              <LatitudeDegrees>43.35188775323331356048583984375</LatitudeDegrees>
              <LongitudeDegrees>-1.81028614751994609832763671875</LongitudeDegrees>
            </Position>
            <AltitudeMeters>28.3999996185302734375</AltitudeMeters>
            <DistanceMeters>NAN</DistanceMeters>
          </Trackpoint>
          <Trackpoint>
            <Time>2022-07-08T16:03:29.000Z</Time>
            <Position>
              <LatitudeDegrees>43.35187702439725399017333984375</LatitudeDegrees>
              <LongitudeDegrees>-1.81011498905718326568603515625</LongitudeDegrees>
            </Position>
            <AltitudeMeters>28.200000762939453125</AltitudeMeters>
            <DistanceMeters>NAN</DistanceMeters>
          </Trackpoint>
          <Trackpoint>
            <Time>2022-07-08T16:03:32.000Z</Time>
            <Position>
              <LatitudeDegrees>43.351844586431980133056640625</LatitudeDegrees>
              <LongitudeDegrees>-1.80999378673732280731201171875</LongitudeDegrees>
            </Position>
            <AltitudeMeters>28.6000003814697265625</AltitudeMeters>
            <DistanceMeters>NAN</DistanceMeters>
          </Trackpoint>
          <Trackpoint>
            <Time>2022-07-08T16:03:35.000Z</Time>
            <Position>
              <LatitudeDegrees>43.35180561058223247528076171875</LatitudeDegrees>
              <LongitudeDegrees>-1.8098813854157924652099609375</LongitudeDegrees>
            </Position>
            <AltitudeMeters>28.799999237060546875</AltitudeMeters>
            <DistanceMeters>NAN</DistanceMeters>
          </Trackpoint>
          <Trackpoint>
            <Time>2022-07-08T16:03:38.000Z</Time>
            <Position>
              <LatitudeDegrees>43.351777531206607818603515625</LatitudeDegrees>
              <LongitudeDegrees>-1.80975590832531452178955078125</LongitudeDegrees>
            </Position>
            <AltitudeMeters>28.799999237060546875</AltitudeMeters>
            <DistanceMeters>NAN</DistanceMeters>
          </Trackpoint>
          <Trackpoint>
            <Time>2022-07-08T16:03:40.000Z</Time>
            <Position>
              <LatitudeDegrees>43.35177057422697544097900390625</LatitudeDegrees>
              <LongitudeDegrees>-1.80967913009226322174072265625</LongitudeDegrees>
            </Position>
            <AltitudeMeters>28.6000003814697265625</AltitudeMeters>
            <DistanceMeters>NAN</DistanceMeters>
          </Trackpoint>
          <Trackpoint>
            <Time>2022-07-08T16:03:47.000Z</Time>
            <Position>
              <LatitudeDegrees>43.3517968095839023590087890625</LatitudeDegrees>
              <LongitudeDegrees>-1.80938123725354671478271484375</LongitudeDegrees>
            </Position>
            <AltitudeMeters>28.6000003814697265625</AltitudeMeters>
            <DistanceMeters>NAN</DistanceMeters>
          </Trackpoint>
          <Trackpoint>
            <Time>2022-07-08T16:03:54.000Z</Time>
            <Position>
              <LatitudeDegrees>43.35182237438857555389404296875</LatitudeDegrees>
              <LongitudeDegrees>-1.80912726558744907379150390625</LongitudeDegrees>
            </Position>
            <AltitudeMeters>28.799999237060546875</AltitudeMeters>
            <DistanceMeters>NAN</DistanceMeters>
          </Trackpoint>
          <Trackpoint>
            <Time>2022-07-08T16:03:59.000Z</Time>
            <Position>
              <LatitudeDegrees>43.35188305936753749847412109375</LatitudeDegrees>
              <LongitudeDegrees>-1.8090359866619110107421875</LongitudeDegrees>
            </Position>
            <AltitudeMeters>29</AltitudeMeters>
            <DistanceMeters>NAN</DistanceMeters>
          </Trackpoint>
          <Trackpoint>
            <Time>2022-07-08T16:04:04.000Z</Time>
            <Position>
              <LatitudeDegrees>43.351976685225963592529296875</LatitudeDegrees>
              <LongitudeDegrees>-1.8091028742492198944091796875</LongitudeDegrees>
            </Position>
            <AltitudeMeters>29</AltitudeMeters>
            <DistanceMeters>NAN</DistanceMeters>
          </Trackpoint>
          <Trackpoint>
            <Time>2022-07-08T16:04:10.000Z</Time>
            <Position>
              <LatitudeDegrees>43.3520663715898990631103515625</LatitudeDegrees>
              <LongitudeDegrees>-1.809184513986110687255859375</LongitudeDegrees>
            </Position>
            <AltitudeMeters>30</AltitudeMeters>
            <DistanceMeters>NAN</DistanceMeters>
          </Trackpoint>
          <Trackpoint>
            <Time>2022-07-08T16:04:13.000Z</Time>
            <Position>
              <LatitudeDegrees>43.35210082121193408966064453125</LatitudeDegrees>
              <LongitudeDegrees>-1.80921410210430622100830078125</LongitudeDegrees>
            </Position>
            <AltitudeMeters>30.799999237060546875</AltitudeMeters>
            <DistanceMeters>NAN</DistanceMeters>
          </Trackpoint>
          <Trackpoint>
            <Time>2022-07-08T16:04:14.000Z</Time>
            <Position>
              <LatitudeDegrees>43.35211180150508880615234375</LatitudeDegrees>
              <LongitudeDegrees>-1.80921980179846286773681640625</LongitudeDegrees>
            </Position>
            <AltitudeMeters>31</AltitudeMeters>
            <DistanceMeters>NAN</DistanceMeters>
          </Trackpoint>
          <Trackpoint>
            <Time>2022-07-08T16:04:22.000Z</Time>
            <Position>
              <LatitudeDegrees>43.35224364884197711944580078125</LatitudeDegrees>
              <LongitudeDegrees>-1.8092612922191619873046875</LongitudeDegrees>
            </Position>
            <AltitudeMeters>32</AltitudeMeters>
            <DistanceMeters>NAN</DistanceMeters>
          </Trackpoint>
          <Trackpoint>
            <Time>2022-07-08T16:04:23.000Z</Time>
            <Position>
              <LatitudeDegrees>43.352260328829288482666015625</LatitudeDegrees>
              <LongitudeDegrees>-1.809265315532684326171875</LongitudeDegrees>
            </Position>
            <AltitudeMeters>32.200000762939453125</AltitudeMeters>
            <DistanceMeters>NAN</DistanceMeters>
          </Trackpoint>
          <Trackpoint>
            <Time>2022-07-08T16:04:28.000Z</Time>
            <Position>
              <LatitudeDegrees>43.3523141406476497650146484375</LatitudeDegrees>
              <LongitudeDegrees>-1.809275709092617034912109375</LongitudeDegrees>
            </Position>
            <AltitudeMeters>33.200000762939453125</AltitudeMeters>
            <DistanceMeters>NAN</DistanceMeters>
          </Trackpoint>
          <Trackpoint>
            <Time>2022-07-08T16:04:29.000Z</Time>
            <Position>
              <LatitudeDegrees>43.35231808014214038848876953125</LatitudeDegrees>
              <LongitudeDegrees>-1.80928182788193225860595703125</LongitudeDegrees>
            </Position>
            <AltitudeMeters>33.40000152587890625</AltitudeMeters>
            <DistanceMeters>NAN</DistanceMeters>
          </Trackpoint>
          <Trackpoint>
            <Time>2022-07-08T16:04:35.000Z</Time>
            <Position>
              <LatitudeDegrees>43.352388404309749603271484375</LatitudeDegrees>
              <LongitudeDegrees>-1.8092720210552215576171875</LongitudeDegrees>
            </Position>
            <AltitudeMeters>34.200000762939453125</AltitudeMeters>
            <DistanceMeters>NAN</DistanceMeters>
          </Trackpoint>
          <Trackpoint>
            <Time>2022-07-08T16:04:39.000Z</Time>
            <Position>
              <LatitudeDegrees>43.35244179703295230865478515625</LatitudeDegrees>
              <LongitudeDegrees>-1.80926866829395294189453125</LongitudeDegrees>
            </Position>
            <AltitudeMeters>35.200000762939453125</AltitudeMeters>
            <DistanceMeters>NAN</DistanceMeters>
          </Trackpoint>
          <Trackpoint>
            <Time>2022-07-08T16:04:40.000Z</Time>
            <Position>
              <LatitudeDegrees>43.35245738737285137176513671875</LatitudeDegrees>
              <LongitudeDegrees>-1.80925886146724224090576171875</LongitudeDegrees>
            </Position>
            <AltitudeMeters>35.40000152587890625</AltitudeMeters>
            <DistanceMeters>NAN</DistanceMeters>
          </Trackpoint>
          <Trackpoint>
            <Time>2022-07-08T16:04:41.000Z</Time>
            <Position>
              <LatitudeDegrees>43.35247029550373554229736328125</LatitudeDegrees>
              <LongitudeDegrees>-1.80925215594470500946044921875</LongitudeDegrees>
            </Position>
            <AltitudeMeters>35.59999847412109375</AltitudeMeters>
            <DistanceMeters>NAN</DistanceMeters>
          </Trackpoint>
          <Trackpoint>
            <Time>2022-07-08T16:04:47.000Z</Time>
            <Position>
              <LatitudeDegrees>43.35255444981157779693603515625</LatitudeDegrees>
              <LongitudeDegrees>-1.80921661667525768280029296875</LongitudeDegrees>
            </Position>
            <AltitudeMeters>36.59999847412109375</AltitudeMeters>
            <DistanceMeters>NAN</DistanceMeters>
          </Trackpoint>
          <Trackpoint>
            <Time>2022-07-08T16:04:48.000Z</Time>
            <Position>
              <LatitudeDegrees>43.35256643593311309814453125</LatitudeDegrees>
              <LongitudeDegrees>-1.8092091567814350128173828125</LongitudeDegrees>
            </Position>
            <AltitudeMeters>36.799999237060546875</AltitudeMeters>
            <DistanceMeters>NAN</DistanceMeters>
          </Trackpoint>
          <Trackpoint>
            <Time>2022-07-08T16:04:51.000Z</Time>
            <Position>
              <LatitudeDegrees>43.35260172374546527862548828125</LatitudeDegrees>
              <LongitudeDegrees>-1.80920303799211978912353515625</LongitudeDegrees>
            </Position>
            <AltitudeMeters>37.799999237060546875</AltitudeMeters>
            <DistanceMeters>NAN</DistanceMeters>
          </Trackpoint>
          <Trackpoint>
            <Time>2022-07-08T16:04:56.000Z</Time>
            <Position>
              <LatitudeDegrees>43.352657295763492584228515625</LatitudeDegrees>
              <LongitudeDegrees>-1.80917101912200450897216796875</LongitudeDegrees>
            </Position>
            <AltitudeMeters>38.799999237060546875</AltitudeMeters>
            <DistanceMeters>NAN</DistanceMeters>
          </Trackpoint>
          <Trackpoint>
            <Time>2022-07-08T16:04:57.000Z</Time>
            <Position>
              <LatitudeDegrees>43.35267238318920135498046875</LatitudeDegrees>
              <LongitudeDegrees>-1.80916967801749706268310546875</LongitudeDegrees>
            </Position>
            <AltitudeMeters>39</AltitudeMeters>
            <DistanceMeters>NAN</DistanceMeters>
          </Trackpoint>
          <Trackpoint>
            <Time>2022-07-08T16:04:59.000Z</Time>
            <Position>
              <LatitudeDegrees>43.35270046256482601165771484375</LatitudeDegrees>
              <LongitudeDegrees>-1.80916347540915012359619140625</LongitudeDegrees>
            </Position>
            <AltitudeMeters>39.200000762939453125</AltitudeMeters>
            <DistanceMeters>NAN</DistanceMeters>
          </Trackpoint>
          <Trackpoint>
            <Time>2022-07-08T16:05:00.000Z</Time>
            <Position>
              <LatitudeDegrees>43.35271102376282215118408203125</LatitudeDegrees>
              <LongitudeDegrees>-1.80915375240147113800048828125</LongitudeDegrees>
            </Position>
            <AltitudeMeters>39.40000152587890625</AltitudeMeters>
            <DistanceMeters>NAN</DistanceMeters>
          </Trackpoint>
          <Trackpoint>
            <Time>2022-07-08T16:05:03.000Z</Time>
            <Position>
              <LatitudeDegrees>43.3527362532913684844970703125</LatitudeDegrees>
              <LongitudeDegrees>-1.80912575684487819671630859375</LongitudeDegrees>
            </Position>
            <AltitudeMeters>39.799999237060546875</AltitudeMeters>
            <DistanceMeters>NAN</DistanceMeters>
          </Trackpoint>
          <Trackpoint>
            <Time>2022-07-08T16:05:04.000Z</Time>
            <Position>
              <LatitudeDegrees>43.35275284945964813232421875</LatitudeDegrees>
              <LongitudeDegrees>-1.80912458337843418121337890625</LongitudeDegrees>
            </Position>
            <AltitudeMeters>40</AltitudeMeters>
            <DistanceMeters>NAN</DistanceMeters>
          </Trackpoint>
          <Trackpoint>
            <Time>2022-07-08T16:05:08.000Z</Time>
            <Position>
              <LatitudeDegrees>43.35280406288802623748779296875</LatitudeDegrees>
              <LongitudeDegrees>-1.80908535607159137725830078125</LongitudeDegrees>
            </Position>
            <AltitudeMeters>40.799999237060546875</AltitudeMeters>
            <DistanceMeters>NAN</DistanceMeters>
          </Trackpoint>
          <Trackpoint>
            <Time>2022-07-08T16:05:09.000Z</Time>
            <Position>
              <LatitudeDegrees>43.35281160660088062286376953125</LatitudeDegrees>
              <LongitudeDegrees>-1.8090735375881195068359375</LongitudeDegrees>
            </Position>
            <AltitudeMeters>41</AltitudeMeters>
            <DistanceMeters>NAN</DistanceMeters>
          </Trackpoint>
          <Trackpoint>
            <Time>2022-07-08T16:05:11.000Z</Time>
            <Position>
              <LatitudeDegrees>43.3528284542262554168701171875</LatitudeDegrees>
              <LongitudeDegrees>-1.8090493977069854736328125</LongitudeDegrees>
            </Position>
            <AltitudeMeters>41.200000762939453125</AltitudeMeters>
            <DistanceMeters>NAN</DistanceMeters>
          </Trackpoint>
          <Trackpoint>
            <Time>2022-07-08T16:05:14.000Z</Time>
            <Position>
              <LatitudeDegrees>43.3528621494770050048828125</LatitudeDegrees>
              <LongitudeDegrees>-1.80902567692101001739501953125</LongitudeDegrees>
            </Position>
            <AltitudeMeters>42</AltitudeMeters>
            <DistanceMeters>NAN</DistanceMeters>
          </Trackpoint>
          <Trackpoint>
            <Time>2022-07-08T16:05:15.000Z</Time>
            <Position>
              <LatitudeDegrees>43.3528763987123966217041015625</LatitudeDegrees>
              <LongitudeDegrees>-1.80902416817843914031982421875</LongitudeDegrees>
            </Position>
            <AltitudeMeters>42</AltitudeMeters>
            <DistanceMeters>NAN</DistanceMeters>
          </Trackpoint>
          <Trackpoint>
            <Time>2022-07-08T16:05:18.000Z</Time>
            <Position>
              <LatitudeDegrees>43.35291109979152679443359375</LatitudeDegrees>
              <LongitudeDegrees>-1.80900371633470058441162109375</LongitudeDegrees>
            </Position>
            <AltitudeMeters>42.59999847412109375</AltitudeMeters>
            <DistanceMeters>NAN</DistanceMeters>
          </Trackpoint>
          <Trackpoint>
            <Time>2022-07-08T16:05:21.000Z</Time>
            <Position>
              <LatitudeDegrees>43.35294353775680065155029296875</LatitudeDegrees>
              <LongitudeDegrees>-1.80897572077810764312744140625</LongitudeDegrees>
            </Position>
            <AltitudeMeters>43.200000762939453125</AltitudeMeters>
            <DistanceMeters>NAN</DistanceMeters>
          </Trackpoint>
          <Trackpoint>
            <Time>2022-07-08T16:05:26.000Z</Time>
            <Position>
              <LatitudeDegrees>43.35301411338150501251220703125</LatitudeDegrees>
              <LongitudeDegrees>-1.80894688703119754791259765625</LongitudeDegrees>
            </Position>
            <AltitudeMeters>44.200000762939453125</AltitudeMeters>
            <DistanceMeters>NAN</DistanceMeters>
          </Trackpoint>
          <Trackpoint>
            <Time>2022-07-08T16:05:32.000Z</Time>
            <Position>
              <LatitudeDegrees>43.3530809171497821807861328125</LatitudeDegrees>
              <LongitudeDegrees>-1.80890631861984729766845703125</LongitudeDegrees>
            </Position>
            <AltitudeMeters>45</AltitudeMeters>
            <DistanceMeters>NAN</DistanceMeters>
          </Trackpoint>
          <Trackpoint>
            <Time>2022-07-08T16:05:33.000Z</Time>
            <Position>
              <LatitudeDegrees>43.35309189744293689727783203125</LatitudeDegrees>
              <LongitudeDegrees>-1.8088960088789463043212890625</LongitudeDegrees>
            </Position>
            <AltitudeMeters>45.200000762939453125</AltitudeMeters>
            <DistanceMeters>NAN</DistanceMeters>
          </Trackpoint>
          <Trackpoint>
            <Time>2022-07-08T16:05:38.000Z</Time>
            <Position>
              <LatitudeDegrees>43.353147804737091064453125</LatitudeDegrees>
              <LongitudeDegrees>-1.808856613934040069580078125</LongitudeDegrees>
            </Position>
            <AltitudeMeters>46</AltitudeMeters>
            <DistanceMeters>NAN</DistanceMeters>
          </Trackpoint>
          <Trackpoint>
            <Time>2022-07-08T16:05:40.000Z</Time>
            <Position>
              <LatitudeDegrees>43.353166915476322174072265625</LatitudeDegrees>
              <LongitudeDegrees>-1.8088296242058277130126953125</LongitudeDegrees>
            </Position>
            <AltitudeMeters>46.200000762939453125</AltitudeMeters>
            <DistanceMeters>NAN</DistanceMeters>
          </Trackpoint>
          <Trackpoint>
            <Time>2022-07-08T16:05:45.000Z</Time>
            <Position>
              <LatitudeDegrees>43.35323187522590160369873046875</LatitudeDegrees>
              <LongitudeDegrees>-1.80880774743854999542236328125</LongitudeDegrees>
            </Position>
            <AltitudeMeters>47</AltitudeMeters>
            <DistanceMeters>NAN</DistanceMeters>
          </Trackpoint>
          <Trackpoint>
            <Time>2022-07-08T16:05:46.000Z</Time>
            <Position>
              <LatitudeDegrees>43.35323967039585113525390625</LatitudeDegrees>
              <LongitudeDegrees>-1.808793246746063232421875</LongitudeDegrees>
            </Position>
            <AltitudeMeters>47.40000152587890625</AltitudeMeters>
            <DistanceMeters>NAN</DistanceMeters>
          </Trackpoint>
          <Trackpoint>
            <Time>2022-07-08T16:05:49.000Z</Time>
            <Position>
              <LatitudeDegrees>43.3532542549073696136474609375</LatitudeDegrees>
              <LongitudeDegrees>-1.8087300471961498260498046875</LongitudeDegrees>
            </Position>
            <AltitudeMeters>47.799999237060546875</AltitudeMeters>
            <DistanceMeters>NAN</DistanceMeters>
          </Trackpoint>
          <Trackpoint>
            <Time>2022-07-08T16:05:51.000Z</Time>
            <Position>
              <LatitudeDegrees>43.3532576076686382293701171875</LatitudeDegrees>
              <LongitudeDegrees>-1.80869576521217823028564453125</LongitudeDegrees>
            </Position>
            <AltitudeMeters>48</AltitudeMeters>
            <DistanceMeters>NAN</DistanceMeters>
          </Trackpoint>
          <Trackpoint>
            <Time>2022-07-08T16:05:56.000Z</Time>
            <Position>
              <LatitudeDegrees>43.3532794006168842315673828125</LatitudeDegrees>
              <LongitudeDegrees>-1.8086135387420654296875</LongitudeDegrees>
            </Position>
            <AltitudeMeters>48.40000152587890625</AltitudeMeters>
            <DistanceMeters>NAN</DistanceMeters>
          </Trackpoint>
          <Trackpoint>
            <Time>2022-07-08T16:06:00.000Z</Time>
            <Position>
              <LatitudeDegrees>43.353298008441925048828125</LatitudeDegrees>
              <LongitudeDegrees>-1.8085305579006671905517578125</LongitudeDegrees>
            </Position>
            <AltitudeMeters>48.799999237060546875</AltitudeMeters>
            <DistanceMeters>NAN</DistanceMeters>
          </Trackpoint>
          <Trackpoint>
            <Time>2022-07-08T16:06:05.000Z</Time>
            <Position>
              <LatitudeDegrees>43.353318460285663604736328125</LatitudeDegrees>
              <LongitudeDegrees>-1.80841706693172454833984375</LongitudeDegrees>
            </Position>
            <AltitudeMeters>49.40000152587890625</AltitudeMeters>
            <DistanceMeters>NAN</DistanceMeters>
          </Trackpoint>
          <Trackpoint>
            <Time>2022-07-08T16:06:07.000Z</Time>
            <Position>
              <LatitudeDegrees>43.35333044640719890594482421875</LatitudeDegrees>
              <LongitudeDegrees>-1.80837976746261119842529296875</LongitudeDegrees>
            </Position>
            <AltitudeMeters>49.799999237060546875</AltitudeMeters>
            <DistanceMeters>NAN</DistanceMeters>
          </Trackpoint>
          <Trackpoint>
            <Time>2022-07-08T16:06:16.000Z</Time>
            <Position>
              <LatitudeDegrees>43.35338450968265533447265625</LatitudeDegrees>
              <LongitudeDegrees>-1.80816737003624439239501953125</LongitudeDegrees>
            </Position>
            <AltitudeMeters>50.200000762939453125</AltitudeMeters>
            <DistanceMeters>NAN</DistanceMeters>
          </Trackpoint>
          <Trackpoint>
            <Time>2022-07-08T16:06:19.000Z</Time>
            <Position>
              <LatitudeDegrees>43.3534066379070281982421875</LatitudeDegrees>
              <LongitudeDegrees>-1.8080537952482700347900390625</LongitudeDegrees>
            </Position>
            <AltitudeMeters>50</AltitudeMeters>
            <DistanceMeters>NAN</DistanceMeters>
          </Trackpoint>
          <Trackpoint>
            <Time>2022-07-08T16:06:21.000Z</Time>
            <Position>
              <LatitudeDegrees>43.35343471728265285491943359375</LatitudeDegrees>
              <LongitudeDegrees>-1.80794659070670604705810546875</LongitudeDegrees>
            </Position>
            <AltitudeMeters>49.799999237060546875</AltitudeMeters>
            <DistanceMeters>NAN</DistanceMeters>
          </Trackpoint>
          <Trackpoint>
            <Time>2022-07-08T16:06:26.000Z</Time>
            <Position>
              <LatitudeDegrees>43.35349355824291706085205078125</LatitudeDegrees>
              <LongitudeDegrees>-1.80765707977116107940673828125</LongitudeDegrees>
            </Position>
            <AltitudeMeters>49.200000762939453125</AltitudeMeters>
            <DistanceMeters>NAN</DistanceMeters>
          </Trackpoint>
          <Trackpoint>
            <Time>2022-07-08T16:06:28.000Z</Time>
            <Position>
              <LatitudeDegrees>43.35350981913506984710693359375</LatitudeDegrees>
              <LongitudeDegrees>-1.80756605230271816253662109375</LongitudeDegrees>
            </Position>
            <AltitudeMeters>49.200000762939453125</AltitudeMeters>
            <DistanceMeters>NAN</DistanceMeters>
          </Trackpoint>
          <Trackpoint>
            <Time>2022-07-08T16:06:33.000Z</Time>
            <Position>
              <LatitudeDegrees>43.35352758876979351043701171875</LatitudeDegrees>
              <LongitudeDegrees>-1.807409562170505523681640625</LongitudeDegrees>
            </Position>
            <AltitudeMeters>49.799999237060546875</AltitudeMeters>
            <DistanceMeters>NAN</DistanceMeters>
          </Trackpoint>
          <Trackpoint>
            <Time>2022-07-08T16:06:38.000Z</Time>
            <Position>
              <LatitudeDegrees>43.3535221405327320098876953125</LatitudeDegrees>
              <LongitudeDegrees>-1.8072987534105777740478515625</LongitudeDegrees>
            </Position>
            <AltitudeMeters>50.59999847412109375</AltitudeMeters>
            <DistanceMeters>NAN</DistanceMeters>
          </Trackpoint>
          <Trackpoint>
            <Time>2022-07-08T16:06:40.000Z</Time>
            <Position>
              <LatitudeDegrees>43.3535244874656200408935546875</LatitudeDegrees>
              <LongitudeDegrees>-1.80725391022861003875732421875</LongitudeDegrees>
            </Position>
            <AltitudeMeters>51</AltitudeMeters>
            <DistanceMeters>NAN</DistanceMeters>
          </Trackpoint>
          <Trackpoint>
            <Time>2022-07-08T16:06:44.000Z</Time>
            <Position>
              <LatitudeDegrees>43.353559188544750213623046875</LatitudeDegrees>
              <LongitudeDegrees>-1.80717176757752895355224609375</LongitudeDegrees>
            </Position>
            <AltitudeMeters>51.799999237060546875</AltitudeMeters>
            <DistanceMeters>NAN</DistanceMeters>
          </Trackpoint>
          <Trackpoint>
            <Time>2022-07-08T16:06:45.000Z</Time>
            <Position>
              <LatitudeDegrees>43.35356614552438259124755859375</LatitudeDegrees>
              <LongitudeDegrees>-1.80715785361826419830322265625</LongitudeDegrees>
            </Position>
            <AltitudeMeters>52</AltitudeMeters>
            <DistanceMeters>NAN</DistanceMeters>
          </Trackpoint>
          <Trackpoint>
            <Time>2022-07-08T16:06:48.000Z</Time>
            <Position>
              <LatitudeDegrees>43.35358156822621822357177734375</LatitudeDegrees>
              <LongitudeDegrees>-1.80710806511342525482177734375</LongitudeDegrees>
            </Position>
            <AltitudeMeters>52.799999237060546875</AltitudeMeters>
            <DistanceMeters>NAN</DistanceMeters>
          </Trackpoint>
          <Trackpoint>
            <Time>2022-07-08T16:06:51.000Z</Time>
            <Position>
              <LatitudeDegrees>43.353613503277301788330078125</LatitudeDegrees>
              <LongitudeDegrees>-1.807091049849987030029296875</LongitudeDegrees>
            </Position>
            <AltitudeMeters>53.200000762939453125</AltitudeMeters>
            <DistanceMeters>NAN</DistanceMeters>
          </Trackpoint>
          <Trackpoint>
            <Time>2022-07-08T16:06:55.000Z</Time>
            <Position>
              <LatitudeDegrees>43.353660106658935546875</LatitudeDegrees>
              <LongitudeDegrees>-1.8071150220930576324462890625</LongitudeDegrees>
            </Position>
            <AltitudeMeters>53.799999237060546875</AltitudeMeters>
            <DistanceMeters>NAN</DistanceMeters>
          </Trackpoint>
          <Trackpoint>
            <Time>2022-07-08T16:06:57.000Z</Time>
            <Position>
              <LatitudeDegrees>43.35367863066494464874267578125</LatitudeDegrees>
              <LongitudeDegrees>-1.80712617002427577972412109375</LongitudeDegrees>
            </Position>
            <AltitudeMeters>54</AltitudeMeters>
            <DistanceMeters>NAN</DistanceMeters>
          </Trackpoint>
          <Trackpoint>
            <Time>2022-07-08T16:06:58.000Z</Time>
            <Position>
              <LatitudeDegrees>43.35368701256811618804931640625</LatitudeDegrees>
              <LongitudeDegrees>-1.80713488720357418060302734375</LongitudeDegrees>
            </Position>
            <AltitudeMeters>54.200000762939453125</AltitudeMeters>
            <DistanceMeters>NAN</DistanceMeters>
          </Trackpoint>
          <Trackpoint>
            <Time>2022-07-08T16:07:00.000Z</Time>
            <Position>
              <LatitudeDegrees>43.35370847024023532867431640625</LatitudeDegrees>
              <LongitudeDegrees>-1.80714796297252178192138671875</LongitudeDegrees>
            </Position>
            <AltitudeMeters>54.40000152587890625</AltitudeMeters>
            <DistanceMeters>NAN</DistanceMeters>
          </Trackpoint>
          <Trackpoint>
            <Time>2022-07-08T16:07:03.000Z</Time>
            <Position>
              <LatitudeDegrees>43.3537553250789642333984375</LatitudeDegrees>
              <LongitudeDegrees>-1.8071636371314525604248046875</LongitudeDegrees>
            </Position>
            <AltitudeMeters>54.799999237060546875</AltitudeMeters>
            <DistanceMeters>NAN</DistanceMeters>
          </Trackpoint>
          <Trackpoint>
            <Time>2022-07-08T16:07:07.000Z</Time>
            <Position>
              <LatitudeDegrees>43.35379329510033130645751953125</LatitudeDegrees>
              <LongitudeDegrees>-1.80720093660056591033935546875</LongitudeDegrees>
            </Position>
            <AltitudeMeters>55.200000762939453125</AltitudeMeters>
            <DistanceMeters>NAN</DistanceMeters>
          </Trackpoint>
          <Trackpoint>
            <Time>2022-07-08T16:07:08.000Z</Time>
            <Position>
              <LatitudeDegrees>43.3538062870502471923828125</LatitudeDegrees>
              <LongitudeDegrees>-1.80720814503729343414306640625</LongitudeDegrees>
            </Position>
            <AltitudeMeters>55.40000152587890625</AltitudeMeters>
            <DistanceMeters>NAN</DistanceMeters>
          </Trackpoint>
          <Trackpoint>
            <Time>2022-07-08T16:07:12.000Z</Time>
            <Position>
              <LatitudeDegrees>43.35386588238179683685302734375</LatitudeDegrees>
              <LongitudeDegrees>-1.80723530240356922149658203125</LongitudeDegrees>
            </Position>
            <AltitudeMeters>55.799999237060546875</AltitudeMeters>
            <DistanceMeters>NAN</DistanceMeters>
          </Trackpoint>
          <Trackpoint>
            <Time>2022-07-08T16:07:13.000Z</Time>
            <Position>
              <LatitudeDegrees>43.35387459956109523773193359375</LatitudeDegrees>
              <LongitudeDegrees>-1.80724636651575565338134765625</LongitudeDegrees>
            </Position>
            <AltitudeMeters>56</AltitudeMeters>
            <DistanceMeters>NAN</DistanceMeters>
          </Trackpoint>
          <Trackpoint>
            <Time>2022-07-08T16:07:18.000Z</Time>
            <Position>
              <LatitudeDegrees>43.35393302142620086669921875</LatitudeDegrees>
              <LongitudeDegrees>-1.807311661541461944580078125</LongitudeDegrees>
            </Position>
            <AltitudeMeters>56.59999847412109375</AltitudeMeters>
            <DistanceMeters>NAN</DistanceMeters>
          </Trackpoint>
          <Trackpoint>
            <Time>2022-07-08T16:07:22.000Z</Time>
            <Position>
              <LatitudeDegrees>43.35397819988429546356201171875</LatitudeDegrees>
              <LongitudeDegrees>-1.80736295878887176513671875</LongitudeDegrees>
            </Position>
            <AltitudeMeters>57.200000762939453125</AltitudeMeters>
            <DistanceMeters>NAN</DistanceMeters>
          </Trackpoint>
          <Trackpoint>
            <Time>2022-07-08T16:07:25.000Z</Time>
            <Position>
              <LatitudeDegrees>43.354017175734043121337890625</LatitudeDegrees>
              <LongitudeDegrees>-1.80739388801157474517822265625</LongitudeDegrees>
            </Position>
            <AltitudeMeters>57.799999237060546875</AltitudeMeters>
            <DistanceMeters>NAN</DistanceMeters>
          </Trackpoint>
          <Trackpoint>
            <Time>2022-07-08T16:07:29.000Z</Time>
            <Position>
              <LatitudeDegrees>43.354054391384124755859375</LatitudeDegrees>
              <LongitudeDegrees>-1.8074315227568149566650390625</LongitudeDegrees>
            </Position>
            <AltitudeMeters>58.40000152587890625</AltitudeMeters>
            <DistanceMeters>NAN</DistanceMeters>
          </Trackpoint>
          <Trackpoint>
            <Time>2022-07-08T16:07:31.000Z</Time>
            <Position>
              <LatitudeDegrees>43.35407643578946590423583984375</LatitudeDegrees>
              <LongitudeDegrees>-1.8074445985257625579833984375</LongitudeDegrees>
            </Position>
            <AltitudeMeters>58.799999237060546875</AltitudeMeters>
            <DistanceMeters>NAN</DistanceMeters>
          </Trackpoint>
          <Trackpoint>
            <Time>2022-07-08T16:07:38.000Z</Time>
            <Position>
              <LatitudeDegrees>43.35417299531400203704833984375</LatitudeDegrees>
              <LongitudeDegrees>-1.8075351230800151824951171875</LongitudeDegrees>
            </Position>
            <AltitudeMeters>59.40000152587890625</AltitudeMeters>
            <DistanceMeters>NAN</DistanceMeters>
          </Trackpoint>
          <Trackpoint>
            <Time>2022-07-08T16:07:41.000Z</Time>
            <Position>
              <LatitudeDegrees>43.3542201854288578033447265625</LatitudeDegrees>
              <LongitudeDegrees>-1.80758533068001270294189453125</LongitudeDegrees>
            </Position>
            <AltitudeMeters>59.59999847412109375</AltitudeMeters>
            <DistanceMeters>NAN</DistanceMeters>
          </Trackpoint>
          <Trackpoint>
            <Time>2022-07-08T16:07:46.000Z</Time>
            <Position>
              <LatitudeDegrees>43.3543070219457149505615234375</LatitudeDegrees>
              <LongitudeDegrees>-1.80767920799553394317626953125</LongitudeDegrees>
            </Position>
            <AltitudeMeters>59.799999237060546875</AltitudeMeters>
            <DistanceMeters>NAN</DistanceMeters>
          </Trackpoint>
          <Trackpoint>
            <Time>2022-07-08T16:07:48.000Z</Time>
            <Position>
              <LatitudeDegrees>43.3543479256331920623779296875</LatitudeDegrees>
              <LongitudeDegrees>-1.8077190220355987548828125</LongitudeDegrees>
            </Position>
            <AltitudeMeters>59.59999847412109375</AltitudeMeters>
            <DistanceMeters>NAN</DistanceMeters>
          </Trackpoint>
          <Trackpoint>
            <Time>2022-07-08T16:07:50.000Z</Time>
            <Position>
              <LatitudeDegrees>43.35436443798243999481201171875</LatitudeDegrees>
              <LongitudeDegrees>-1.80776202119886875152587890625</LongitudeDegrees>
            </Position>
            <AltitudeMeters>59.59999847412109375</AltitudeMeters>
            <DistanceMeters>NAN</DistanceMeters>
          </Trackpoint>
          <Trackpoint>
            <Time>2022-07-08T16:07:51.000Z</Time>
            <Position>
              <LatitudeDegrees>43.3543636836111545562744140625</LatitudeDegrees>
              <LongitudeDegrees>-1.80777057074010372161865234375</LongitudeDegrees>
            </Position>
            <AltitudeMeters>59.59999847412109375</AltitudeMeters>
            <DistanceMeters>NAN</DistanceMeters>
          </Trackpoint>
          <Trackpoint>
            <Time>2022-07-08T16:07:52.000Z</Time>
            <Position>
              <LatitudeDegrees>43.3543717302381992340087890625</LatitudeDegrees>
              <LongitudeDegrees>-1.807779036462306976318359375</LongitudeDegrees>
            </Position>
            <AltitudeMeters>59.40000152587890625</AltitudeMeters>
            <DistanceMeters>NAN</DistanceMeters>
          </Trackpoint>
          <Trackpoint>
            <Time>2022-07-08T16:07:53.000Z</Time>
            <Position>
              <LatitudeDegrees>43.35437952540814876556396484375</LatitudeDegrees>
              <LongitudeDegrees>-1.807785071432590484619140625</LongitudeDegrees>
            </Position>
            <AltitudeMeters>59.40000152587890625</AltitudeMeters>
            <DistanceMeters>NAN</DistanceMeters>
          </Trackpoint>
          <Trackpoint>
            <Time>2022-07-08T16:07:56.000Z</Time>
            <Position>
              <LatitudeDegrees>43.35440617986023426055908203125</LatitudeDegrees>
              <LongitudeDegrees>-1.80780292488634586334228515625</LongitudeDegrees>
            </Position>
            <AltitudeMeters>59.200000762939453125</AltitudeMeters>
            <DistanceMeters>NAN</DistanceMeters>
          </Trackpoint>
          <Trackpoint>
            <Time>2022-07-08T16:07:58.000Z</Time>
            <Position>
              <LatitudeDegrees>43.35440986789762973785400390625</LatitudeDegrees>
              <LongitudeDegrees>-1.80780644528567790985107421875</LongitudeDegrees>
            </Position>
            <AltitudeMeters>59.200000762939453125</AltitudeMeters>
            <DistanceMeters>NAN</DistanceMeters>
          </Trackpoint>
          <Trackpoint>
            <Time>2022-07-08T16:07:59.000Z</Time>
            <Position>
              <LatitudeDegrees>43.35441288538277149200439453125</LatitudeDegrees>
              <LongitudeDegrees>-1.80780510418117046356201171875</LongitudeDegrees>
            </Position>
            <AltitudeMeters>59.200000762939453125</AltitudeMeters>
            <DistanceMeters>NAN</DistanceMeters>
          </Trackpoint>
          <Trackpoint>
            <Time>2022-07-08T16:08:42.000Z</Time>
            <Position>
              <LatitudeDegrees>43.35443518124520778656005859375</LatitudeDegrees>
              <LongitudeDegrees>-1.8078120611608028411865234375</LongitudeDegrees>
            </Position>
            <AltitudeMeters>58.799999237060546875</AltitudeMeters>
            <DistanceMeters>NAN</DistanceMeters>
          </Trackpoint>
          <Trackpoint>
            <Time>2022-07-08T16:08:43.000Z</Time>
            <Position>
              <LatitudeDegrees>43.35445328615605831146240234375</LatitudeDegrees>
              <LongitudeDegrees>-1.80783142335712909698486328125</LongitudeDegrees>
            </Position>
            <AltitudeMeters>58.799999237060546875</AltitudeMeters>
            <DistanceMeters>NAN</DistanceMeters>
          </Trackpoint>
          <Trackpoint>
            <Time>2022-07-08T16:08:45.000Z</Time>
            <Position>
              <LatitudeDegrees>43.35448614321649074554443359375</LatitudeDegrees>
              <LongitudeDegrees>-1.8078625202178955078125</LongitudeDegrees>
            </Position>
            <AltitudeMeters>58.799999237060546875</AltitudeMeters>
            <DistanceMeters>NAN</DistanceMeters>
          </Trackpoint>
          <Trackpoint>
            <Time>2022-07-08T16:08:51.000Z</Time>
            <Position>
              <LatitudeDegrees>43.35453593172132968902587890625</LatitudeDegrees>
              <LongitudeDegrees>-1.80789529345929622650146484375</LongitudeDegrees>
            </Position>
            <AltitudeMeters>59</AltitudeMeters>
            <DistanceMeters>NAN</DistanceMeters>
          </Trackpoint>
          <Trackpoint>
            <Time>2022-07-08T16:08:52.000Z</Time>
            <Position>
              <LatitudeDegrees>43.35453593172132968902587890625</LatitudeDegrees>
              <LongitudeDegrees>-1.80789529345929622650146484375</LongitudeDegrees>
            </Position>
            <AltitudeMeters>58.799999237060546875</AltitudeMeters>
            <DistanceMeters>NAN</DistanceMeters>
          </Trackpoint>
          <Trackpoint>
            <Time>2022-07-08T16:11:11.000Z</Time>
            <Position>
              <LatitudeDegrees>43.3544981293380260467529296875</LatitudeDegrees>
              <LongitudeDegrees>-1.807847432792186737060546875</LongitudeDegrees>
            </Position>
            <AltitudeMeters>59.40000152587890625</AltitudeMeters>
            <DistanceMeters>NAN</DistanceMeters>
          </Trackpoint>
          <Trackpoint>
            <Time>2022-07-08T16:11:12.000Z</Time>
            <Position>
              <LatitudeDegrees>43.354514725506305694580078125</LatitudeDegrees>
              <LongitudeDegrees>-1.8078573234379291534423828125</LongitudeDegrees>
            </Position>
            <AltitudeMeters>59.40000152587890625</AltitudeMeters>
            <DistanceMeters>NAN</DistanceMeters>
          </Trackpoint>
          <Trackpoint>
            <Time>2022-07-08T16:11:14.000Z</Time>
            <Position>
              <LatitudeDegrees>43.35454800166189670562744140625</LatitudeDegrees>
              <LongitudeDegrees>-1.80788322351872920989990234375</LongitudeDegrees>
            </Position>
            <AltitudeMeters>59.40000152587890625</AltitudeMeters>
            <DistanceMeters>NAN</DistanceMeters>
          </Trackpoint>
          <Trackpoint>
            <Time>2022-07-08T16:11:19.000Z</Time>
            <Position>
              <LatitudeDegrees>43.35461991839110851287841796875</LatitudeDegrees>
              <LongitudeDegrees>-1.80795480497181415557861328125</LongitudeDegrees>
            </Position>
            <AltitudeMeters>59.799999237060546875</AltitudeMeters>
            <DistanceMeters>NAN</DistanceMeters>
          </Trackpoint>
          <Trackpoint>
            <Time>2022-07-08T16:11:20.000Z</Time>
            <Position>
              <LatitudeDegrees>43.35463718511164188385009765625</LatitudeDegrees>
              <LongitudeDegrees>-1.80796721018850803375244140625</LongitudeDegrees>
            </Position>
            <AltitudeMeters>59.799999237060546875</AltitudeMeters>
            <DistanceMeters>NAN</DistanceMeters>
          </Trackpoint>
          <Trackpoint>
            <Time>2022-07-08T16:11:25.000Z</Time>
            <Position>
              <LatitudeDegrees>43.35471916012465953826904296875</LatitudeDegrees>
              <LongitudeDegrees>-1.80805002339184284210205078125</LongitudeDegrees>
            </Position>
            <AltitudeMeters>60.40000152587890625</AltitudeMeters>
            <DistanceMeters>NAN</DistanceMeters>
          </Trackpoint>
          <Trackpoint>
            <Time>2022-07-08T16:11:33.000Z</Time>
            <Position>
              <LatitudeDegrees>43.35488813929259777069091796875</LatitudeDegrees>
              <LongitudeDegrees>-1.8081879056990146636962890625</LongitudeDegrees>
            </Position>
            <AltitudeMeters>60.799999237060546875</AltitudeMeters>
            <DistanceMeters>NAN</DistanceMeters>
          </Trackpoint>
          <Trackpoint>
            <Time>2022-07-08T16:11:34.000Z</Time>
            <Position>
              <LatitudeDegrees>43.3549118600785732269287109375</LatitudeDegrees>
              <LongitudeDegrees>-1.808208860456943511962890625</LongitudeDegrees>
            </Position>
            <AltitudeMeters>60.799999237060546875</AltitudeMeters>
            <DistanceMeters>NAN</DistanceMeters>
          </Trackpoint>
          <Trackpoint>
            <Time>2022-07-08T16:11:37.000Z</Time>
            <Position>
              <LatitudeDegrees>43.35498838685452938079833984375</LatitudeDegrees>
              <LongitudeDegrees>-1.80828589014708995819091796875</LongitudeDegrees>
            </Position>
            <AltitudeMeters>60.200000762939453125</AltitudeMeters>
            <DistanceMeters>NAN</DistanceMeters>
          </Trackpoint>
          <Trackpoint>
            <Time>2022-07-08T16:11:42.000Z</Time>
            <Position>
              <LatitudeDegrees>43.35521017201244831085205078125</LatitudeDegrees>
              <LongitudeDegrees>-1.80839787237346172332763671875</LongitudeDegrees>
            </Position>
            <AltitudeMeters>59.799999237060546875</AltitudeMeters>
            <DistanceMeters>NAN</DistanceMeters>
          </Trackpoint>
          <Trackpoint>
            <Time>2022-07-08T16:11:45.000Z</Time>
            <Position>
              <LatitudeDegrees>43.35537873208522796630859375</LatitudeDegrees>
              <LongitudeDegrees>-1.80845637805759906768798828125</LongitudeDegrees>
            </Position>
            <AltitudeMeters>59.200000762939453125</AltitudeMeters>
            <DistanceMeters>NAN</DistanceMeters>
          </Trackpoint>
          <Trackpoint>
            <Time>2022-07-08T16:11:47.000Z</Time>
            <Position>
              <LatitudeDegrees>43.35548576898872852325439453125</LatitudeDegrees>
              <LongitudeDegrees>-1.808465011417865753173828125</LongitudeDegrees>
            </Position>
            <AltitudeMeters>59</AltitudeMeters>
            <DistanceMeters>NAN</DistanceMeters>
          </Trackpoint>
          <Trackpoint>
            <Time>2022-07-08T16:11:49.000Z</Time>
            <Position>
              <LatitudeDegrees>43.35558316670358180999755859375</LatitudeDegrees>
              <LongitudeDegrees>-1.80843542329967021942138671875</LongitudeDegrees>
            </Position>
            <AltitudeMeters>58.59999847412109375</AltitudeMeters>
            <DistanceMeters>NAN</DistanceMeters>
          </Trackpoint>
          <Trackpoint>
            <Time>2022-07-08T16:11:50.000Z</Time>
            <Position>
              <LatitudeDegrees>43.3556221425533294677734375</LatitudeDegrees>
              <LongitudeDegrees>-1.80842645466327667236328125</LongitudeDegrees>
            </Position>
            <AltitudeMeters>58.59999847412109375</AltitudeMeters>
            <DistanceMeters>NAN</DistanceMeters>
          </Trackpoint>
          <Trackpoint>
            <Time>2022-07-08T16:11:52.000Z</Time>
            <Position>
              <LatitudeDegrees>43.355726413428783416748046875</LatitudeDegrees>
              <LongitudeDegrees>-1.80839695036411285400390625</LongitudeDegrees>
            </Position>
            <AltitudeMeters>58.200000762939453125</AltitudeMeters>
            <DistanceMeters>NAN</DistanceMeters>
          </Trackpoint>
          <Trackpoint>
            <Time>2022-07-08T16:11:55.000Z</Time>
            <Position>
              <LatitudeDegrees>43.35586949251592159271240234375</LatitudeDegrees>
              <LongitudeDegrees>-1.80836652405560016632080078125</LongitudeDegrees>
            </Position>
            <AltitudeMeters>58</AltitudeMeters>
            <DistanceMeters>NAN</DistanceMeters>
          </Trackpoint>
          <Trackpoint>
            <Time>2022-07-08T16:12:00.000Z</Time>
            <Position>
              <LatitudeDegrees>43.35608054883778095245361328125</LatitudeDegrees>
              <LongitudeDegrees>-1.8083186633884906768798828125</LongitudeDegrees>
            </Position>
            <AltitudeMeters>58.200000762939453125</AltitudeMeters>
            <DistanceMeters>NAN</DistanceMeters>
          </Trackpoint>
          <Trackpoint>
            <Time>2022-07-08T16:12:03.000Z</Time>
            <Position>
              <LatitudeDegrees>43.3561907708644866943359375</LatitudeDegrees>
              <LongitudeDegrees>-1.80826954543590545654296875</LongitudeDegrees>
            </Position>
            <AltitudeMeters>58.59999847412109375</AltitudeMeters>
            <DistanceMeters>NAN</DistanceMeters>
          </Trackpoint>
          <Trackpoint>
            <Time>2022-07-08T16:12:08.000Z</Time>
            <Position>
              <LatitudeDegrees>43.35636922158300876617431640625</LatitudeDegrees>
              <LongitudeDegrees>-1.80821112357079982757568359375</LongitudeDegrees>
            </Position>
            <AltitudeMeters>59.200000762939453125</AltitudeMeters>
            <DistanceMeters>NAN</DistanceMeters>
          </Trackpoint>
          <Trackpoint>
            <Time>2022-07-08T16:12:10.000Z</Time>
            <Position>
              <LatitudeDegrees>43.35642890073359012603759765625</LatitudeDegrees>
              <LongitudeDegrees>-1.8081996403634548187255859375</LongitudeDegrees>
            </Position>
            <AltitudeMeters>59.40000152587890625</AltitudeMeters>
            <DistanceMeters>NAN</DistanceMeters>
          </Trackpoint>
          <Trackpoint>
            <Time>2022-07-08T16:12:13.000Z</Time>
            <Position>
              <LatitudeDegrees>43.35651271976530551910400390625</LatitudeDegrees>
              <LongitudeDegrees>-1.80818396620452404022216796875</LongitudeDegrees>
            </Position>
            <AltitudeMeters>59.59999847412109375</AltitudeMeters>
            <DistanceMeters>NAN</DistanceMeters>
          </Trackpoint>
          <Trackpoint>
            <Time>2022-07-08T16:12:16.000Z</Time>
            <Position>
              <LatitudeDegrees>43.356606177985668182373046875</LatitudeDegrees>
              <LongitudeDegrees>-1.80816234089434146881103515625</LongitudeDegrees>
            </Position>
            <AltitudeMeters>59.799999237060546875</AltitudeMeters>
            <DistanceMeters>NAN</DistanceMeters>
          </Trackpoint>
          <Trackpoint>
            <Time>2022-07-08T16:12:21.000Z</Time>
            <Position>
              <LatitudeDegrees>43.35675210691988468170166015625</LatitudeDegrees>
              <LongitudeDegrees>-1.80813702754676342010498046875</LongitudeDegrees>
            </Position>
            <AltitudeMeters>60.40000152587890625</AltitudeMeters>
            <DistanceMeters>NAN</DistanceMeters>
          </Trackpoint>
          <Trackpoint>
            <Time>2022-07-08T16:12:24.000Z</Time>
            <Position>
              <LatitudeDegrees>43.3568467386066913604736328125</LatitudeDegrees>
              <LongitudeDegrees>-1.80811171419918537139892578125</LongitudeDegrees>
            </Position>
            <AltitudeMeters>60.59999847412109375</AltitudeMeters>
            <DistanceMeters>NAN</DistanceMeters>
          </Trackpoint>
          <Trackpoint>
            <Time>2022-07-08T16:12:31.000Z</Time>
            <Position>
              <LatitudeDegrees>43.35705016739666461944580078125</LatitudeDegrees>
              <LongitudeDegrees>-1.808102913200855255126953125</LongitudeDegrees>
            </Position>
            <AltitudeMeters>61</AltitudeMeters>
            <DistanceMeters>NAN</DistanceMeters>
          </Trackpoint>
          <Trackpoint>
            <Time>2022-07-08T16:12:34.000Z</Time>
            <Position>
              <LatitudeDegrees>43.3571344055235385894775390625</LatitudeDegrees>
              <LongitudeDegrees>-1.80810551159083843231201171875</LongitudeDegrees>
            </Position>
            <AltitudeMeters>61.200000762939453125</AltitudeMeters>
            <DistanceMeters>NAN</DistanceMeters>
          </Trackpoint>
          <Trackpoint>
            <Time>2022-07-08T16:12:38.000Z</Time>
            <Position>
              <LatitudeDegrees>43.357235155999660491943359375</LatitudeDegrees>
              <LongitudeDegrees>-1.8081201799213886260986328125</LongitudeDegrees>
            </Position>
            <AltitudeMeters>61.40000152587890625</AltitudeMeters>
            <DistanceMeters>NAN</DistanceMeters>
          </Trackpoint>
          <Trackpoint>
            <Time>2022-07-08T16:12:42.000Z</Time>
            <Position>
              <LatitudeDegrees>43.35733406245708465576171875</LatitudeDegrees>
              <LongitudeDegrees>-1.80813333950936794281005859375</LongitudeDegrees>
            </Position>
            <AltitudeMeters>62</AltitudeMeters>
            <DistanceMeters>NAN</DistanceMeters>
          </Trackpoint>
          <Trackpoint>
            <Time>2022-07-08T16:12:45.000Z</Time>
            <Position>
              <LatitudeDegrees>43.3574049733579158782958984375</LatitudeDegrees>
              <LongitudeDegrees>-1.80814423598349094390869140625</LongitudeDegrees>
            </Position>
            <AltitudeMeters>62.200000762939453125</AltitudeMeters>
            <DistanceMeters>NAN</DistanceMeters>
          </Trackpoint>
          <Trackpoint>
            <Time>2022-07-08T16:12:49.000Z</Time>
            <Position>
              <LatitudeDegrees>43.35748971439898014068603515625</LatitudeDegrees>
              <LongitudeDegrees>-1.80816066451370716094970703125</LongitudeDegrees>
            </Position>
            <AltitudeMeters>62.200000762939453125</AltitudeMeters>
            <DistanceMeters>NAN</DistanceMeters>
          </Trackpoint>
          <Trackpoint>
            <Time>2022-07-08T16:12:51.000Z</Time>
            <Position>
              <LatitudeDegrees>43.35753480903804302215576171875</LatitudeDegrees>
              <LongitudeDegrees>-1.8081580661237239837646484375</LongitudeDegrees>
            </Position>
            <AltitudeMeters>62.200000762939453125</AltitudeMeters>
            <DistanceMeters>NAN</DistanceMeters>
          </Trackpoint>
          <Trackpoint>
            <Time>2022-07-08T16:12:54.000Z</Time>
            <Position>
              <LatitudeDegrees>43.35760035552084445953369140625</LatitudeDegrees>
              <LongitudeDegrees>-1.80817591957747936248779296875</LongitudeDegrees>
            </Position>
            <AltitudeMeters>62.40000152587890625</AltitudeMeters>
            <DistanceMeters>NAN</DistanceMeters>
          </Trackpoint>
          <Trackpoint>
            <Time>2022-07-08T16:13:00.000Z</Time>
            <Position>
              <LatitudeDegrees>43.3577479608356952667236328125</LatitudeDegrees>
              <LongitudeDegrees>-1.80821095593273639678955078125</LongitudeDegrees>
            </Position>
            <AltitudeMeters>63</AltitudeMeters>
            <DistanceMeters>NAN</DistanceMeters>
          </Trackpoint>
          <Trackpoint>
            <Time>2022-07-08T16:13:02.000Z</Time>
            <Position>
              <LatitudeDegrees>43.35779615677893161773681640625</LatitudeDegrees>
              <LongitudeDegrees>-1.808216907083988189697265625</LongitudeDegrees>
            </Position>
            <AltitudeMeters>63.200000762939453125</AltitudeMeters>
            <DistanceMeters>NAN</DistanceMeters>
          </Trackpoint>
          <Trackpoint>
            <Time>2022-07-08T16:13:06.000Z</Time>
            <Position>
              <LatitudeDegrees>43.35788249038159847259521484375</LatitudeDegrees>
              <LongitudeDegrees>-1.808226294815540313720703125</LongitudeDegrees>
            </Position>
            <AltitudeMeters>63.59999847412109375</AltitudeMeters>
            <DistanceMeters>NAN</DistanceMeters>
          </Trackpoint>
          <Trackpoint>
            <Time>2022-07-08T16:13:09.000Z</Time>
            <Position>
              <LatitudeDegrees>43.35791719146072864532470703125</LatitudeDegrees>
              <LongitudeDegrees>-1.80822537280619144439697265625</LongitudeDegrees>
            </Position>
            <AltitudeMeters>64</AltitudeMeters>
            <DistanceMeters>NAN</DistanceMeters>
          </Trackpoint>
          <Trackpoint>
            <Time>2022-07-08T16:13:10.000Z</Time>
            <Position>
              <LatitudeDegrees>43.35793479345738887786865234375</LatitudeDegrees>
              <LongitudeDegrees>-1.80822034366428852081298828125</LongitudeDegrees>
            </Position>
            <AltitudeMeters>64</AltitudeMeters>
            <DistanceMeters>NAN</DistanceMeters>
          </Trackpoint>
          <Trackpoint>
            <Time>2022-07-08T16:13:13.000Z</Time>
            <Position>
              <LatitudeDegrees>43.35799044929444789886474609375</LatitudeDegrees>
              <LongitudeDegrees>-1.8082261271774768829345703125</LongitudeDegrees>
            </Position>
            <AltitudeMeters>64.40000152587890625</AltitudeMeters>
            <DistanceMeters>NAN</DistanceMeters>
          </Trackpoint>
          <Trackpoint>
            <Time>2022-07-08T16:13:14.000Z</Time>
            <Position>
              <LatitudeDegrees>43.3580024354159832000732421875</LatitudeDegrees>
              <LongitudeDegrees>-1.8082402087748050689697265625</LongitudeDegrees>
            </Position>
            <AltitudeMeters>64.59999847412109375</AltitudeMeters>
            <DistanceMeters>NAN</DistanceMeters>
          </Trackpoint>
          <Trackpoint>
            <Time>2022-07-08T16:13:23.000Z</Time>
            <Position>
              <LatitudeDegrees>43.3580644614994525909423828125</LatitudeDegrees>
              <LongitudeDegrees>-1.80831774137914180755615234375</LongitudeDegrees>
            </Position>
            <AltitudeMeters>65.59999847412109375</AltitudeMeters>
            <DistanceMeters>NAN</DistanceMeters>
          </Trackpoint>
          <Trackpoint>
            <Time>2022-07-08T16:13:24.000Z</Time>
            <Position>
              <LatitudeDegrees>43.3580644614994525909423828125</LatitudeDegrees>
              <LongitudeDegrees>-1.80831774137914180755615234375</LongitudeDegrees>
            </Position>
            <AltitudeMeters>65.59999847412109375</AltitudeMeters>
            <DistanceMeters>NAN</DistanceMeters>
          </Trackpoint>
          <Trackpoint>
            <Time>2022-07-08T16:13:43.000Z</Time>
            <Position>
              <LatitudeDegrees>43.358038477599620819091796875</LatitudeDegrees>
              <LongitudeDegrees>-1.8083079345524311065673828125</LongitudeDegrees>
            </Position>
            <AltitudeMeters>65</AltitudeMeters>
            <DistanceMeters>NAN</DistanceMeters>
          </Trackpoint>
          <Trackpoint>
            <Time>2022-07-08T16:13:44.000Z</Time>
            <Position>
              <LatitudeDegrees>43.358033113181591033935546875</LatitudeDegrees>
              <LongitudeDegrees>-1.80829846300184726715087890625</LongitudeDegrees>
            </Position>
            <AltitudeMeters>64.8000030517578125</AltitudeMeters>
            <DistanceMeters>NAN</DistanceMeters>
          </Trackpoint>
          <Trackpoint>
            <Time>2022-07-08T16:13:46.000Z</Time>
            <Position>
              <LatitudeDegrees>43.35802900604903697967529296875</LatitudeDegrees>
              <LongitudeDegrees>-1.8082831241190433502197265625</LongitudeDegrees>
            </Position>
            <AltitudeMeters>64.59999847412109375</AltitudeMeters>
            <DistanceMeters>NAN</DistanceMeters>
          </Trackpoint>
          <Trackpoint>
            <Time>2022-07-08T16:13:49.000Z</Time>
            <Position>
              <LatitudeDegrees>43.358027748763561248779296875</LatitudeDegrees>
              <LongitudeDegrees>-1.80827951990067958831787109375</LongitudeDegrees>
            </Position>
            <AltitudeMeters>64.40000152587890625</AltitudeMeters>
            <DistanceMeters>NAN</DistanceMeters>
          </Trackpoint>
          <Trackpoint>
            <Time>2022-07-08T16:14:07.000Z</Time>
            <Position>
              <LatitudeDegrees>43.358045518398284912109375</LatitudeDegrees>
              <LongitudeDegrees>-1.8082983791828155517578125</LongitudeDegrees>
            </Position>
            <AltitudeMeters>64.40000152587890625</AltitudeMeters>
            <DistanceMeters>NAN</DistanceMeters>
          </Trackpoint>
          <Trackpoint>
            <Time>2022-07-08T16:14:08.000Z</Time>
            <Position>
              <LatitudeDegrees>43.3580575883388519287109375</LatitudeDegrees>
              <LongitudeDegrees>-1.80830583907663822174072265625</LongitudeDegrees>
            </Position>
            <AltitudeMeters>64.40000152587890625</AltitudeMeters>
            <DistanceMeters>NAN</DistanceMeters>
          </Trackpoint>
          <Trackpoint>
            <Time>2022-07-08T16:14:10.000Z</Time>
            <Position>
              <LatitudeDegrees>43.35807242430746555328369140625</LatitudeDegrees>
              <LongitudeDegrees>-1.80831782519817352294921875</LongitudeDegrees>
            </Position>
            <AltitudeMeters>64.59999847412109375</AltitudeMeters>
            <DistanceMeters>NAN</DistanceMeters>
          </Trackpoint>
          <Trackpoint>
            <Time>2022-07-08T16:14:13.000Z</Time>
            <Position>
              <LatitudeDegrees>43.35807493887841701507568359375</LatitudeDegrees>
              <LongitudeDegrees>-1.80831891484558582305908203125</LongitudeDegrees>
            </Position>
            <AltitudeMeters>65</AltitudeMeters>
            <DistanceMeters>NAN</DistanceMeters>
          </Trackpoint>
          <Trackpoint>
            <Time>2022-07-08T16:14:18.000Z</Time>
            <Position>
              <LatitudeDegrees>43.35803219117224216461181640625</LatitudeDegrees>
              <LongitudeDegrees>-1.8082961998879909515380859375</LongitudeDegrees>
            </Position>
            <AltitudeMeters>65</AltitudeMeters>
            <DistanceMeters>NAN</DistanceMeters>
          </Trackpoint>
          <Trackpoint>
            <Time>2022-07-08T16:14:21.000Z</Time>
            <Position>
              <LatitudeDegrees>43.35802741348743438720703125</LatitudeDegrees>
              <LongitudeDegrees>-1.8082784302532672882080078125</LongitudeDegrees>
            </Position>
            <AltitudeMeters>64.8000030517578125</AltitudeMeters>
            <DistanceMeters>NAN</DistanceMeters>
          </Trackpoint>
          <Trackpoint>
            <Time>2022-07-08T16:14:22.000Z</Time>
            <Position>
              <LatitudeDegrees>43.35802741348743438720703125</LatitudeDegrees>
              <LongitudeDegrees>-1.8082784302532672882080078125</LongitudeDegrees>
            </Position>
            <AltitudeMeters>64.8000030517578125</AltitudeMeters>
            <DistanceMeters>NAN</DistanceMeters>
          </Trackpoint>
          <Trackpoint>
            <Time>2022-07-08T16:15:43.000Z</Time>
            <Position>
              <LatitudeDegrees>43.3581174351274967193603515625</LatitudeDegrees>
              <LongitudeDegrees>-1.808386556804180145263671875</LongitudeDegrees>
            </Position>
            <AltitudeMeters>65.40000152587890625</AltitudeMeters>
            <DistanceMeters>NAN</DistanceMeters>
          </Trackpoint>
          <Trackpoint>
            <Time>2022-07-08T16:15:45.000Z</Time>
            <Position>
              <LatitudeDegrees>43.3581318520009517669677734375</LatitudeDegrees>
              <LongitudeDegrees>-1.80844648741185665130615234375</LongitudeDegrees>
            </Position>
            <AltitudeMeters>65.1999969482421875</AltitudeMeters>
            <DistanceMeters>NAN</DistanceMeters>
          </Trackpoint>
          <Trackpoint>
            <Time>2022-07-08T16:15:51.000Z</Time>
            <Position>
              <LatitudeDegrees>43.3582089655101299285888671875</LatitudeDegrees>
              <LongitudeDegrees>-1.80869962088763713836669921875</LongitudeDegrees>
            </Position>
            <AltitudeMeters>64.8000030517578125</AltitudeMeters>
            <DistanceMeters>NAN</DistanceMeters>
          </Trackpoint>
          <Trackpoint>
            <Time>2022-07-08T16:15:53.000Z</Time>
            <Position>
              <LatitudeDegrees>43.35826185531914234161376953125</LatitudeDegrees>
              <LongitudeDegrees>-1.8087907321751117706298828125</LongitudeDegrees>
            </Position>
            <AltitudeMeters>64.40000152587890625</AltitudeMeters>
            <DistanceMeters>NAN</DistanceMeters>
          </Trackpoint>
          <Trackpoint>
            <Time>2022-07-08T16:15:56.000Z</Time>
            <Position>
              <LatitudeDegrees>43.35833980701863765716552734375</LatitudeDegrees>
              <LongitudeDegrees>-1.808953844010829925537109375</LongitudeDegrees>
            </Position>
            <AltitudeMeters>63.799999237060546875</AltitudeMeters>
            <DistanceMeters>NAN</DistanceMeters>
          </Trackpoint>
          <Trackpoint>
            <Time>2022-07-08T16:15:59.000Z</Time>
            <Position>
              <LatitudeDegrees>43.35842907428741455078125</LatitudeDegrees>
              <LongitudeDegrees>-1.80911871604621410369873046875</LongitudeDegrees>
            </Position>
            <AltitudeMeters>63.59999847412109375</AltitudeMeters>
            <DistanceMeters>NAN</DistanceMeters>
          </Trackpoint>
          <Trackpoint>
            <Time>2022-07-08T16:16:01.000Z</Time>
            <Position>
              <LatitudeDegrees>43.3584916032850742340087890625</LatitudeDegrees>
              <LongitudeDegrees>-1.80921779014170169830322265625</LongitudeDegrees>
            </Position>
            <AltitudeMeters>63.40000152587890625</AltitudeMeters>
            <DistanceMeters>NAN</DistanceMeters>
          </Trackpoint>
          <Trackpoint>
            <Time>2022-07-08T16:16:03.000Z</Time>
            <Position>
              <LatitudeDegrees>43.358544073998928070068359375</LatitudeDegrees>
              <LongitudeDegrees>-1.80930613540112972259521484375</LongitudeDegrees>
            </Position>
            <AltitudeMeters>63.40000152587890625</AltitudeMeters>
            <DistanceMeters>NAN</DistanceMeters>
          </Trackpoint>
          <Trackpoint>
            <Time>2022-07-08T16:16:06.000Z</Time>
            <Position>
              <LatitudeDegrees>43.3586061000823974609375</LatitudeDegrees>
              <LongitudeDegrees>-1.80939598940312862396240234375</LongitudeDegrees>
            </Position>
            <AltitudeMeters>63.59999847412109375</AltitudeMeters>
            <DistanceMeters>NAN</DistanceMeters>
          </Trackpoint>
          <Trackpoint>
            <Time>2022-07-08T16:16:08.000Z</Time>
            <Position>
              <LatitudeDegrees>43.358646668493747711181640625</LatitudeDegrees>
              <LongitudeDegrees>-1.809446699917316436767578125</LongitudeDegrees>
            </Position>
            <AltitudeMeters>63.799999237060546875</AltitudeMeters>
            <DistanceMeters>NAN</DistanceMeters>
          </Trackpoint>
          <Trackpoint>
            <Time>2022-07-08T16:16:13.000Z</Time>
            <Position>
              <LatitudeDegrees>43.3587246201932430267333984375</LatitudeDegrees>
              <LongitudeDegrees>-1.80957703851163387298583984375</LongitudeDegrees>
            </Position>
            <AltitudeMeters>64.1999969482421875</AltitudeMeters>
            <DistanceMeters>NAN</DistanceMeters>
          </Trackpoint>
          <Trackpoint>
            <Time>2022-07-08T16:16:16.000Z</Time>
            <Position>
              <LatitudeDegrees>43.35876158438622951507568359375</LatitudeDegrees>
              <LongitudeDegrees>-1.80965733714401721954345703125</LongitudeDegrees>
            </Position>
            <AltitudeMeters>64.1999969482421875</AltitudeMeters>
            <DistanceMeters>NAN</DistanceMeters>
          </Trackpoint>
          <Trackpoint>
            <Time>2022-07-08T16:16:21.000Z</Time>
            <Position>
              <LatitudeDegrees>43.3587933517992496490478515625</LatitudeDegrees>
              <LongitudeDegrees>-1.80975414812564849853515625</LongitudeDegrees>
            </Position>
            <AltitudeMeters>64.40000152587890625</AltitudeMeters>
            <DistanceMeters>NAN</DistanceMeters>
          </Trackpoint>
          <Trackpoint>
            <Time>2022-07-08T16:16:22.000Z</Time>
            <Position>
              <LatitudeDegrees>43.358799554407596588134765625</LatitudeDegrees>
              <LongitudeDegrees>-1.80975909344851970672607421875</LongitudeDegrees>
            </Position>
            <AltitudeMeters>64.59999847412109375</AltitudeMeters>
            <DistanceMeters>NAN</DistanceMeters>
          </Trackpoint>
          <Trackpoint>
            <Time>2022-07-08T16:16:25.000Z</Time>
            <Position>
              <LatitudeDegrees>43.3588389493525028228759765625</LatitudeDegrees>
              <LongitudeDegrees>-1.80977971293032169342041015625</LongitudeDegrees>
            </Position>
            <AltitudeMeters>65.1999969482421875</AltitudeMeters>
            <DistanceMeters>NAN</DistanceMeters>
          </Trackpoint>
          <Trackpoint>
            <Time>2022-07-08T16:16:26.000Z</Time>
            <Position>
              <LatitudeDegrees>43.35885085165500640869140625</LatitudeDegrees>
              <LongitudeDegrees>-1.80978122167289257049560546875</LongitudeDegrees>
            </Position>
            <AltitudeMeters>65.40000152587890625</AltitudeMeters>
            <DistanceMeters>NAN</DistanceMeters>
          </Trackpoint>
          <Trackpoint>
            <Time>2022-07-08T16:16:28.000Z</Time>
            <Position>
              <LatitudeDegrees>43.35887993685901165008544921875</LatitudeDegrees>
              <LongitudeDegrees>-1.80977158248424530029296875</LongitudeDegrees>
            </Position>
            <AltitudeMeters>65.8000030517578125</AltitudeMeters>
            <DistanceMeters>NAN</DistanceMeters>
          </Trackpoint>
          <Trackpoint>
            <Time>2022-07-08T16:16:33.000Z</Time>
            <Position>
              <LatitudeDegrees>43.3589764125645160675048828125</LatitudeDegrees>
              <LongitudeDegrees>-1.80977367796003818511962890625</LongitudeDegrees>
            </Position>
            <AltitudeMeters>66.8000030517578125</AltitudeMeters>
            <DistanceMeters>NAN</DistanceMeters>
          </Trackpoint>
          <Trackpoint>
            <Time>2022-07-08T16:16:35.000Z</Time>
            <Position>
              <LatitudeDegrees>43.35901153273880481719970703125</LatitudeDegrees>
              <LongitudeDegrees>-1.8097747676074504852294921875</LongitudeDegrees>
            </Position>
            <AltitudeMeters>67.40000152587890625</AltitudeMeters>
            <DistanceMeters>NAN</DistanceMeters>
          </Trackpoint>
          <Trackpoint>
            <Time>2022-07-08T16:16:38.000Z</Time>
            <Position>
              <LatitudeDegrees>43.35906081832945346832275390625</LatitudeDegrees>
              <LongitudeDegrees>-1.80975657887756824493408203125</LongitudeDegrees>
            </Position>
            <AltitudeMeters>68</AltitudeMeters>
            <DistanceMeters>NAN</DistanceMeters>
          </Trackpoint>
          <Trackpoint>
            <Time>2022-07-08T16:16:40.000Z</Time>
            <Position>
              <LatitudeDegrees>43.35907372646033763885498046875</LatitudeDegrees>
              <LongitudeDegrees>-1.809731684625148773193359375</LongitudeDegrees>
            </Position>
            <AltitudeMeters>68.40000152587890625</AltitudeMeters>
            <DistanceMeters>NAN</DistanceMeters>
          </Trackpoint>
          <Trackpoint>
            <Time>2022-07-08T16:16:43.000Z</Time>
            <Position>
              <LatitudeDegrees>43.35911211557686328887939453125</LatitudeDegrees>
              <LongitudeDegrees>-1.8097036890685558319091796875</LongitudeDegrees>
            </Position>
            <AltitudeMeters>69</AltitudeMeters>
            <DistanceMeters>NAN</DistanceMeters>
          </Trackpoint>
          <Trackpoint>
            <Time>2022-07-08T16:16:46.000Z</Time>
            <Position>
              <LatitudeDegrees>43.359144888818264007568359375</LatitudeDegrees>
              <LongitudeDegrees>-1.8096785433590412139892578125</LongitudeDegrees>
            </Position>
            <AltitudeMeters>69.59999847412109375</AltitudeMeters>
            <DistanceMeters>NAN</DistanceMeters>
          </Trackpoint>
          <Trackpoint>
            <Time>2022-07-08T16:16:53.000Z</Time>
            <Position>
              <LatitudeDegrees>43.35925779305398464202880859375</LatitudeDegrees>
              <LongitudeDegrees>-1.80960017256438732147216796875</LongitudeDegrees>
            </Position>
            <AltitudeMeters>70</AltitudeMeters>
            <DistanceMeters>NAN</DistanceMeters>
          </Trackpoint>
          <Trackpoint>
            <Time>2022-07-08T16:16:55.000Z</Time>
            <Position>
              <LatitudeDegrees>43.359284363687038421630859375</LatitudeDegrees>
              <LongitudeDegrees>-1.8095779605209827423095703125</LongitudeDegrees>
            </Position>
            <AltitudeMeters>70</AltitudeMeters>
            <DistanceMeters>NAN</DistanceMeters>
          </Trackpoint>
          <Trackpoint>
            <Time>2022-07-08T16:16:58.000Z</Time>
            <Position>
              <LatitudeDegrees>43.35932099260389804840087890625</LatitudeDegrees>
              <LongitudeDegrees>-1.809532530605792999267578125</LongitudeDegrees>
            </Position>
            <AltitudeMeters>70</AltitudeMeters>
            <DistanceMeters>NAN</DistanceMeters>
          </Trackpoint>
          <Trackpoint>
            <Time>2022-07-08T16:17:01.000Z</Time>
            <Position>
              <LatitudeDegrees>43.35932652465999126434326171875</LatitudeDegrees>
              <LongitudeDegrees>-1.80952641181647777557373046875</LongitudeDegrees>
            </Position>
            <AltitudeMeters>70</AltitudeMeters>
            <DistanceMeters>NAN</DistanceMeters>
          </Trackpoint>
          <Trackpoint>
            <Time>2022-07-08T16:17:11.000Z</Time>
            <Position>
              <LatitudeDegrees>43.3593700267374515533447265625</LatitudeDegrees>
              <LongitudeDegrees>-1.80947461165487766265869140625</LongitudeDegrees>
            </Position>
            <AltitudeMeters>69.59999847412109375</AltitudeMeters>
            <DistanceMeters>NAN</DistanceMeters>
          </Trackpoint>
          <Trackpoint>
            <Time>2022-07-08T16:17:12.000Z</Time>
            <Position>
              <LatitudeDegrees>43.35938452742993831634521484375</LatitudeDegrees>
              <LongitudeDegrees>-1.8094495497643947601318359375</LongitudeDegrees>
            </Position>
            <AltitudeMeters>69.59999847412109375</AltitudeMeters>
            <DistanceMeters>NAN</DistanceMeters>
          </Trackpoint>
          <Trackpoint>
            <Time>2022-07-08T16:17:14.000Z</Time>
            <Position>
              <LatitudeDegrees>43.35940414108335971832275390625</LatitudeDegrees>
              <LongitudeDegrees>-1.8094026111066341400146484375</LongitudeDegrees>
            </Position>
            <AltitudeMeters>69.40000152587890625</AltitudeMeters>
            <DistanceMeters>NAN</DistanceMeters>
          </Trackpoint>
          <Trackpoint>
            <Time>2022-07-08T16:17:16.000Z</Time>
            <Position>
              <LatitudeDegrees>43.35940900258719921112060546875</LatitudeDegrees>
              <LongitudeDegrees>-1.8093948997557163238525390625</LongitudeDegrees>
            </Position>
            <AltitudeMeters>69</AltitudeMeters>
            <DistanceMeters>NAN</DistanceMeters>
          </Trackpoint>
          <Trackpoint>
            <Time>2022-07-08T16:17:17.000Z</Time>
            <Position>
              <LatitudeDegrees>43.35940900258719921112060546875</LatitudeDegrees>
              <LongitudeDegrees>-1.8093948997557163238525390625</LongitudeDegrees>
            </Position>
            <AltitudeMeters>68.8000030517578125</AltitudeMeters>
            <DistanceMeters>NAN</DistanceMeters>
          </Trackpoint>
          <Trackpoint>
            <Time>2022-07-08T16:18:20.000Z</Time>
            <Position>
              <LatitudeDegrees>43.3593894727528095245361328125</LatitudeDegrees>
              <LongitudeDegrees>-1.80948986671864986419677734375</LongitudeDegrees>
            </Position>
            <AltitudeMeters>68.8000030517578125</AltitudeMeters>
            <DistanceMeters>NAN</DistanceMeters>
          </Trackpoint>
          <Trackpoint>
            <Time>2022-07-08T16:18:22.000Z</Time>
            <Position>
              <LatitudeDegrees>43.35935368202626705169677734375</LatitudeDegrees>
              <LongitudeDegrees>-1.8095229752361774444580078125</LongitudeDegrees>
            </Position>
            <AltitudeMeters>69</AltitudeMeters>
            <DistanceMeters>NAN</DistanceMeters>
          </Trackpoint>
          <Trackpoint>
            <Time>2022-07-08T16:18:28.000Z</Time>
            <Position>
              <LatitudeDegrees>43.3592248521745204925537109375</LatitudeDegrees>
              <LongitudeDegrees>-1.80962431244552135467529296875</LongitudeDegrees>
            </Position>
            <AltitudeMeters>69.40000152587890625</AltitudeMeters>
            <DistanceMeters>NAN</DistanceMeters>
          </Trackpoint>
          <Trackpoint>
            <Time>2022-07-08T16:18:31.000Z</Time>
            <Position>
              <LatitudeDegrees>43.35915972478687763214111328125</LatitudeDegrees>
              <LongitudeDegrees>-1.8097046948969364166259765625</LongitudeDegrees>
            </Position>
            <AltitudeMeters>69.1999969482421875</AltitudeMeters>
            <DistanceMeters>NAN</DistanceMeters>
          </Trackpoint>
          <Trackpoint>
            <Time>2022-07-08T16:18:36.000Z</Time>
            <Position>
              <LatitudeDegrees>43.35900817997753620147705078125</LatitudeDegrees>
              <LongitudeDegrees>-1.80981826968491077423095703125</LongitudeDegrees>
            </Position>
            <AltitudeMeters>67.8000030517578125</AltitudeMeters>
            <DistanceMeters>NAN</DistanceMeters>
          </Trackpoint>
          <Trackpoint>
            <Time>2022-07-08T16:18:37.000Z</Time>
            <Position>
              <LatitudeDegrees>43.3589687012135982513427734375</LatitudeDegrees>
              <LongitudeDegrees>-1.80982816033065319061279296875</LongitudeDegrees>
            </Position>
            <AltitudeMeters>67.40000152587890625</AltitudeMeters>
            <DistanceMeters>NAN</DistanceMeters>
          </Trackpoint>
          <Trackpoint>
            <Time>2022-07-08T16:18:39.000Z</Time>
            <Position>
              <LatitudeDegrees>43.3588996343314647674560546875</LatitudeDegrees>
              <LongitudeDegrees>-1.8098331056535243988037109375</LongitudeDegrees>
            </Position>
            <AltitudeMeters>66.40000152587890625</AltitudeMeters>
            <DistanceMeters>NAN</DistanceMeters>
          </Trackpoint>
          <Trackpoint>
            <Time>2022-07-08T16:18:42.000Z</Time>
            <Position>
              <LatitudeDegrees>43.3588265441358089447021484375</LatitudeDegrees>
              <LongitudeDegrees>-1.80981994606554508209228515625</LongitudeDegrees>
            </Position>
            <AltitudeMeters>65</AltitudeMeters>
            <DistanceMeters>NAN</DistanceMeters>
          </Trackpoint>
          <Trackpoint>
            <Time>2022-07-08T16:18:43.000Z</Time>
            <Position>
              <LatitudeDegrees>43.35881707258522510528564453125</LatitudeDegrees>
              <LongitudeDegrees>-1.80982111953198909759521484375</LongitudeDegrees>
            </Position>
            <AltitudeMeters>64.59999847412109375</AltitudeMeters>
            <DistanceMeters>NAN</DistanceMeters>
          </Trackpoint>
          <Trackpoint>
            <Time>2022-07-08T16:18:46.000Z</Time>
            <Position>
              <LatitudeDegrees>43.3588138036429882049560546875</LatitudeDegrees>
              <LongitudeDegrees>-1.8098243884742259979248046875</LongitudeDegrees>
            </Position>
            <AltitudeMeters>64</AltitudeMeters>
            <DistanceMeters>NAN</DistanceMeters>
          </Trackpoint>
          <Trackpoint>
            <Time>2022-07-08T16:18:47.000Z</Time>
            <Position>
              <LatitudeDegrees>43.3588138036429882049560546875</LatitudeDegrees>
              <LongitudeDegrees>-1.8098243884742259979248046875</LongitudeDegrees>
            </Position>
            <AltitudeMeters>64</AltitudeMeters>
            <DistanceMeters>NAN</DistanceMeters>
          </Trackpoint>
          <Trackpoint>
            <Time>2022-07-08T16:18:53.000Z</Time>
            <Position>
              <LatitudeDegrees>43.3587829582393169403076171875</LatitudeDegrees>
              <LongitudeDegrees>-1.80984576232731342315673828125</LongitudeDegrees>
            </Position>
            <AltitudeMeters>63.799999237060546875</AltitudeMeters>
            <DistanceMeters>NAN</DistanceMeters>
          </Trackpoint>
          <Trackpoint>
            <Time>2022-07-08T16:18:55.000Z</Time>
            <Position>
              <LatitudeDegrees>43.35878924466669559478759765625</LatitudeDegrees>
              <LongitudeDegrees>-1.80989856831729412078857421875</LongitudeDegrees>
            </Position>
            <AltitudeMeters>63.799999237060546875</AltitudeMeters>
            <DistanceMeters>NAN</DistanceMeters>
          </Trackpoint>
          <Trackpoint>
            <Time>2022-07-08T16:19:01.000Z</Time>
            <Position>
              <LatitudeDegrees>43.35882134735584259033203125</LatitudeDegrees>
              <LongitudeDegrees>-1.8101080320775508880615234375</LongitudeDegrees>
            </Position>
            <AltitudeMeters>64.1999969482421875</AltitudeMeters>
            <DistanceMeters>NAN</DistanceMeters>
          </Trackpoint>
          <Trackpoint>
            <Time>2022-07-08T16:19:06.000Z</Time>
            <Position>
              <LatitudeDegrees>43.35884389467537403106689453125</LatitudeDegrees>
              <LongitudeDegrees>-1.81026242673397064208984375</LongitudeDegrees>
            </Position>
            <AltitudeMeters>65</AltitudeMeters>
            <DistanceMeters>NAN</DistanceMeters>
          </Trackpoint>
          <Trackpoint>
            <Time>2022-07-08T16:19:08.000Z</Time>
            <Position>
              <LatitudeDegrees>43.35885562933981418609619140625</LatitudeDegrees>
              <LongitudeDegrees>-1.8103008158504962921142578125</LongitudeDegrees>
            </Position>
            <AltitudeMeters>65.40000152587890625</AltitudeMeters>
            <DistanceMeters>NAN</DistanceMeters>
          </Trackpoint>
          <Trackpoint>
            <Time>2022-07-08T16:19:12.000Z</Time>
            <Position>
              <LatitudeDegrees>43.35887574590742588043212890625</LatitudeDegrees>
              <LongitudeDegrees>-1.8103816173970699310302734375</LongitudeDegrees>
            </Position>
            <AltitudeMeters>66.1999969482421875</AltitudeMeters>
            <DistanceMeters>NAN</DistanceMeters>
          </Trackpoint>
          <Trackpoint>
            <Time>2022-07-08T16:19:14.000Z</Time>
            <Position>
              <LatitudeDegrees>43.35888530127704143524169921875</LatitudeDegrees>
              <LongitudeDegrees>-1.81041807867586612701416015625</LongitudeDegrees>
            </Position>
            <AltitudeMeters>66.59999847412109375</AltitudeMeters>
            <DistanceMeters>NAN</DistanceMeters>
          </Trackpoint>
          <Trackpoint>
            <Time>2022-07-08T16:19:17.000Z</Time>
            <Position>
              <LatitudeDegrees>43.35888647474348545074462890625</LatitudeDegrees>
              <LongitudeDegrees>-1.81047742255032062530517578125</LongitudeDegrees>
            </Position>
            <AltitudeMeters>67.1999969482421875</AltitudeMeters>
            <DistanceMeters>NAN</DistanceMeters>
          </Trackpoint>
          <Trackpoint>
            <Time>2022-07-08T16:19:20.000Z</Time>
            <Position>
              <LatitudeDegrees>43.3588929288089275360107421875</LatitudeDegrees>
              <LongitudeDegrees>-1.8105331622064113616943359375</LongitudeDegrees>
            </Position>
            <AltitudeMeters>67.59999847412109375</AltitudeMeters>
            <DistanceMeters>NAN</DistanceMeters>
          </Trackpoint>
          <Trackpoint>
            <Time>2022-07-08T16:19:22.000Z</Time>
            <Position>
              <LatitudeDegrees>43.3589024841785430908203125</LatitudeDegrees>
              <LongitudeDegrees>-1.81056560017168521881103515625</LongitudeDegrees>
            </Position>
            <AltitudeMeters>67.8000030517578125</AltitudeMeters>
            <DistanceMeters>NAN</DistanceMeters>
          </Trackpoint>
          <Trackpoint>
            <Time>2022-07-08T16:19:24.000Z</Time>
            <Position>
              <LatitudeDegrees>43.35891187191009521484375</LatitudeDegrees>
              <LongitudeDegrees>-1.81058504618704319000244140625</LongitudeDegrees>
            </Position>
            <AltitudeMeters>68.1999969482421875</AltitudeMeters>
            <DistanceMeters>NAN</DistanceMeters>
          </Trackpoint>
          <Trackpoint>
            <Time>2022-07-08T16:19:28.000Z</Time>
            <Position>
              <LatitudeDegrees>43.35892184637486934661865234375</LatitudeDegrees>
              <LongitudeDegrees>-1.81066475808620452880859375</LongitudeDegrees>
            </Position>
            <AltitudeMeters>69</AltitudeMeters>
            <DistanceMeters>NAN</DistanceMeters>
          </Trackpoint>
          <Trackpoint>
            <Time>2022-07-08T16:19:31.000Z</Time>
            <Position>
              <LatitudeDegrees>43.35894338786602020263671875</LatitudeDegrees>
              <LongitudeDegrees>-1.81071278639137744903564453125</LongitudeDegrees>
            </Position>
            <AltitudeMeters>69.40000152587890625</AltitudeMeters>
            <DistanceMeters>NAN</DistanceMeters>
          </Trackpoint>
          <Trackpoint>
            <Time>2022-07-08T16:19:36.000Z</Time>
            <Position>
              <LatitudeDegrees>43.35897766984999179840087890625</LatitudeDegrees>
              <LongitudeDegrees>-1.8107874691486358642578125</LongitudeDegrees>
            </Position>
            <AltitudeMeters>70.1999969482421875</AltitudeMeters>
            <DistanceMeters>NAN</DistanceMeters>
          </Trackpoint>
          <Trackpoint>
            <Time>2022-07-08T16:19:37.000Z</Time>
            <Position>
              <LatitudeDegrees>43.35898630321025848388671875</LatitudeDegrees>
              <LongitudeDegrees>-1.81080549024045467376708984375</LongitudeDegrees>
            </Position>
            <AltitudeMeters>70.59999847412109375</AltitudeMeters>
            <DistanceMeters>NAN</DistanceMeters>
          </Trackpoint>
          <Trackpoint>
            <Time>2022-07-08T16:19:39.000Z</Time>
            <Position>
              <LatitudeDegrees>43.35900214500725269317626953125</LatitudeDegrees>
              <LongitudeDegrees>-1.810837425291538238525390625</LongitudeDegrees>
            </Position>
            <AltitudeMeters>70.8000030517578125</AltitudeMeters>
            <DistanceMeters>NAN</DistanceMeters>
          </Trackpoint>
          <Trackpoint>
            <Time>2022-07-08T16:19:40.000Z</Time>
            <Position>
              <LatitudeDegrees>43.359013460576534271240234375</LatitudeDegrees>
              <LongitudeDegrees>-1.81085108779370784759521484375</LongitudeDegrees>
            </Position>
            <AltitudeMeters>71</AltitudeMeters>
            <DistanceMeters>NAN</DistanceMeters>
          </Trackpoint>
          <Trackpoint>
            <Time>2022-07-08T16:19:41.000Z</Time>
            <Position>
              <LatitudeDegrees>43.35902058519423007965087890625</LatitudeDegrees>
              <LongitudeDegrees>-1.8108665943145751953125</LongitudeDegrees>
            </Position>
            <AltitudeMeters>71.40000152587890625</AltitudeMeters>
            <DistanceMeters>NAN</DistanceMeters>
          </Trackpoint>
          <Trackpoint>
            <Time>2022-07-08T16:19:42.000Z</Time>
            <Position>
              <LatitudeDegrees>43.359027542173862457275390625</LatitudeDegrees>
              <LongitudeDegrees>-1.810883693397045135498046875</LongitudeDegrees>
            </Position>
            <AltitudeMeters>71.59999847412109375</AltitudeMeters>
            <DistanceMeters>NAN</DistanceMeters>
          </Trackpoint>
          <Trackpoint>
            <Time>2022-07-08T16:19:47.000Z</Time>
            <Position>
              <LatitudeDegrees>43.3590645901858806610107421875</LatitudeDegrees>
              <LongitudeDegrees>-1.8109609745442867279052734375</LongitudeDegrees>
            </Position>
            <AltitudeMeters>72.59999847412109375</AltitudeMeters>
            <DistanceMeters>NAN</DistanceMeters>
          </Trackpoint>
          <Trackpoint>
            <Time>2022-07-08T16:19:48.000Z</Time>
            <Position>
              <LatitudeDegrees>43.3590739779174327850341796875</LatitudeDegrees>
              <LongitudeDegrees>-1.8109767325222492218017578125</LongitudeDegrees>
            </Position>
            <AltitudeMeters>72.59999847412109375</AltitudeMeters>
            <DistanceMeters>NAN</DistanceMeters>
          </Trackpoint>
          <Trackpoint>
            <Time>2022-07-08T16:19:53.000Z</Time>
            <Position>
              <LatitudeDegrees>43.35912301205098628997802734375</LatitudeDegrees>
              <LongitudeDegrees>-1.81102928705513477325439453125</LongitudeDegrees>
            </Position>
            <AltitudeMeters>73.59999847412109375</AltitudeMeters>
            <DistanceMeters>NAN</DistanceMeters>
          </Trackpoint>
          <Trackpoint>
            <Time>2022-07-08T16:19:55.000Z</Time>
            <Position>
              <LatitudeDegrees>43.35914128459990024566650390625</LatitudeDegrees>
              <LongitudeDegrees>-1.81105661205947399139404296875</LongitudeDegrees>
            </Position>
            <AltitudeMeters>74.1999969482421875</AltitudeMeters>
            <DistanceMeters>NAN</DistanceMeters>
          </Trackpoint>
          <Trackpoint>
            <Time>2022-07-08T16:19:56.000Z</Time>
            <Position>
              <LatitudeDegrees>43.35915536619722843170166015625</LatitudeDegrees>
              <LongitudeDegrees>-1.81106834672391414642333984375</LongitudeDegrees>
            </Position>
            <AltitudeMeters>74.1999969482421875</AltitudeMeters>
            <DistanceMeters>NAN</DistanceMeters>
          </Trackpoint>
          <Trackpoint>
            <Time>2022-07-08T16:19:57.000Z</Time>
            <Position>
              <LatitudeDegrees>43.35916860960423946380615234375</LatitudeDegrees>
              <LongitudeDegrees>-1.8110860325396060943603515625</LongitudeDegrees>
            </Position>
            <AltitudeMeters>74.40000152587890625</AltitudeMeters>
            <DistanceMeters>NAN</DistanceMeters>
          </Trackpoint>
          <Trackpoint>
            <Time>2022-07-08T16:19:59.000Z</Time>
            <Position>
              <LatitudeDegrees>43.359188474714756011962890625</LatitudeDegrees>
              <LongitudeDegrees>-1.81111578829586505889892578125</LongitudeDegrees>
            </Position>
            <AltitudeMeters>74.59999847412109375</AltitudeMeters>
            <DistanceMeters>NAN</DistanceMeters>
          </Trackpoint>
          <Trackpoint>
            <Time>2022-07-08T16:20:03.000Z</Time>
            <Position>
              <LatitudeDegrees>43.35922879166901111602783203125</LatitudeDegrees>
              <LongitudeDegrees>-1.8111755512654781341552734375</LongitudeDegrees>
            </Position>
            <AltitudeMeters>75.59999847412109375</AltitudeMeters>
            <DistanceMeters>NAN</DistanceMeters>
          </Trackpoint>
          <Trackpoint>
            <Time>2022-07-08T16:20:04.000Z</Time>
            <Position>
              <LatitudeDegrees>43.3592352457344532012939453125</LatitudeDegrees>
              <LongitudeDegrees>-1.81119315326213836669921875</LongitudeDegrees>
            </Position>
            <AltitudeMeters>75.8000030517578125</AltitudeMeters>
            <DistanceMeters>NAN</DistanceMeters>
          </Trackpoint>
          <Trackpoint>
            <Time>2022-07-08T16:20:08.000Z</Time>
            <Position>
              <LatitudeDegrees>43.35927958600223064422607421875</LatitudeDegrees>
              <LongitudeDegrees>-1.81125040166079998016357421875</LongitudeDegrees>
            </Position>
            <AltitudeMeters>76.59999847412109375</AltitudeMeters>
            <DistanceMeters>NAN</DistanceMeters>
          </Trackpoint>
          <Trackpoint>
            <Time>2022-07-08T16:20:09.000Z</Time>
            <Position>
              <LatitudeDegrees>43.35929609835147857666015625</LatitudeDegrees>
              <LongitudeDegrees>-1.81125819683074951171875</LongitudeDegrees>
            </Position>
            <AltitudeMeters>76.8000030517578125</AltitudeMeters>
            <DistanceMeters>NAN</DistanceMeters>
          </Trackpoint>
          <Trackpoint>
            <Time>2022-07-08T16:20:10.000Z</Time>
            <Position>
              <LatitudeDegrees>43.35930858738720417022705078125</LatitudeDegrees>
              <LongitudeDegrees>-1.8112684227526187896728515625</LongitudeDegrees>
            </Position>
            <AltitudeMeters>76.8000030517578125</AltitudeMeters>
            <DistanceMeters>NAN</DistanceMeters>
          </Trackpoint>
          <Trackpoint>
            <Time>2022-07-08T16:20:17.000Z</Time>
            <Position>
              <LatitudeDegrees>43.3594201505184173583984375</LatitudeDegrees>
              <LongitudeDegrees>-1.81130907498300075531005859375</LongitudeDegrees>
            </Position>
            <AltitudeMeters>77.8000030517578125</AltitudeMeters>
            <DistanceMeters>NAN</DistanceMeters>
          </Trackpoint>
          <Trackpoint>
            <Time>2022-07-08T16:20:18.000Z</Time>
            <Position>
              <LatitudeDegrees>43.3594362437725067138671875</LatitudeDegrees>
              <LongitudeDegrees>-1.8113123439252376556396484375</LongitudeDegrees>
            </Position>
            <AltitudeMeters>77.8000030517578125</AltitudeMeters>
            <DistanceMeters>NAN</DistanceMeters>
          </Trackpoint>
          <Trackpoint>
            <Time>2022-07-08T16:20:24.000Z</Time>
            <Position>
              <LatitudeDegrees>43.3595440350472927093505859375</LatitudeDegrees>
              <LongitudeDegrees>-1.8113482184708118438720703125</LongitudeDegrees>
            </Position>
            <AltitudeMeters>77.8000030517578125</AltitudeMeters>
            <DistanceMeters>NAN</DistanceMeters>
          </Trackpoint>
          <Trackpoint>
            <Time>2022-07-08T16:20:30.000Z</Time>
            <Position>
              <LatitudeDegrees>43.35966096259653568267822265625</LatitudeDegrees>
              <LongitudeDegrees>-1.81150202639400959014892578125</LongitudeDegrees>
            </Position>
            <AltitudeMeters>77.1999969482421875</AltitudeMeters>
            <DistanceMeters>NAN</DistanceMeters>
          </Trackpoint>
          <Trackpoint>
            <Time>2022-07-08T16:20:31.000Z</Time>
            <Position>
              <LatitudeDegrees>43.3596660755574703216552734375</LatitudeDegrees>
              <LongitudeDegrees>-1.81154787540435791015625</LongitudeDegrees>
            </Position>
            <AltitudeMeters>77.1999969482421875</AltitudeMeters>
            <DistanceMeters>NAN</DistanceMeters>
          </Trackpoint>
          <Trackpoint>
            <Time>2022-07-08T16:20:33.000Z</Time>
            <Position>
              <LatitudeDegrees>43.359659872949123382568359375</LatitudeDegrees>
              <LongitudeDegrees>-1.81162926368415355682373046875</LongitudeDegrees>
            </Position>
            <AltitudeMeters>76.59999847412109375</AltitudeMeters>
            <DistanceMeters>NAN</DistanceMeters>
          </Trackpoint>
          <Trackpoint>
            <Time>2022-07-08T16:20:34.000Z</Time>
            <Position>
              <LatitudeDegrees>43.35964922793209552764892578125</LatitudeDegrees>
              <LongitudeDegrees>-1.8116660602390766143798828125</LongitudeDegrees>
            </Position>
            <AltitudeMeters>76.59999847412109375</AltitudeMeters>
            <DistanceMeters>NAN</DistanceMeters>
          </Trackpoint>
          <Trackpoint>
            <Time>2022-07-08T16:20:37.000Z</Time>
            <Position>
              <LatitudeDegrees>43.35960295982658863067626953125</LatitudeDegrees>
              <LongitudeDegrees>-1.81182825006544589996337890625</LongitudeDegrees>
            </Position>
            <AltitudeMeters>75.8000030517578125</AltitudeMeters>
            <DistanceMeters>NAN</DistanceMeters>
          </Trackpoint>
          <Trackpoint>
            <Time>2022-07-08T16:20:38.000Z</Time>
            <Position>
              <LatitudeDegrees>43.3595944941043853759765625</LatitudeDegrees>
              <LongitudeDegrees>-1.8118789605796337127685546875</LongitudeDegrees>
            </Position>
            <AltitudeMeters>75.8000030517578125</AltitudeMeters>
            <DistanceMeters>NAN</DistanceMeters>
          </Trackpoint>
          <Trackpoint>
            <Time>2022-07-08T16:20:39.000Z</Time>
            <Position>
              <LatitudeDegrees>43.35958887822926044464111328125</LatitudeDegrees>
              <LongitudeDegrees>-1.81193905882537364959716796875</LongitudeDegrees>
            </Position>
            <AltitudeMeters>75.59999847412109375</AltitudeMeters>
            <DistanceMeters>NAN</DistanceMeters>
          </Trackpoint>
          <Trackpoint>
            <Time>2022-07-08T16:20:42.000Z</Time>
            <Position>
              <LatitudeDegrees>43.35957127623260021209716796875</LatitudeDegrees>
              <LongitudeDegrees>-1.81213066913187503814697265625</LongitudeDegrees>
            </Position>
            <AltitudeMeters>75.40000152587890625</AltitudeMeters>
            <DistanceMeters>NAN</DistanceMeters>
          </Trackpoint>
          <Trackpoint>
            <Time>2022-07-08T16:20:43.000Z</Time>
            <Position>
              <LatitudeDegrees>43.35957379080355167388916015625</LatitudeDegrees>
              <LongitudeDegrees>-1.812194287776947021484375</LongitudeDegrees>
            </Position>
            <AltitudeMeters>75</AltitudeMeters>
            <DistanceMeters>NAN</DistanceMeters>
          </Trackpoint>
          <Trackpoint>
            <Time>2022-07-08T16:20:44.000Z</Time>
            <Position>
              <LatitudeDegrees>43.35957982577383518218994140625</LatitudeDegrees>
              <LongitudeDegrees>-1.81224700994789600372314453125</LongitudeDegrees>
            </Position>
            <AltitudeMeters>74.59999847412109375</AltitudeMeters>
            <DistanceMeters>NAN</DistanceMeters>
          </Trackpoint>
          <Trackpoint>
            <Time>2022-07-08T16:20:45.000Z</Time>
            <Position>
              <LatitudeDegrees>43.3596067316830158233642578125</LatitudeDegrees>
              <LongitudeDegrees>-1.81231037713587284088134765625</LongitudeDegrees>
            </Position>
            <AltitudeMeters>74.40000152587890625</AltitudeMeters>
            <DistanceMeters>NAN</DistanceMeters>
          </Trackpoint>
          <Trackpoint>
            <Time>2022-07-08T16:20:48.000Z</Time>
            <Position>
              <LatitudeDegrees>43.3596570231020450592041015625</LatitudeDegrees>
              <LongitudeDegrees>-1.8125029094517230987548828125</LongitudeDegrees>
            </Position>
            <AltitudeMeters>73.59999847412109375</AltitudeMeters>
            <DistanceMeters>NAN</DistanceMeters>
          </Trackpoint>
          <Trackpoint>
            <Time>2022-07-08T16:20:49.000Z</Time>
            <Position>
              <LatitudeDegrees>43.35967102088034152984619140625</LatitudeDegrees>
              <LongitudeDegrees>-1.812558062374591827392578125</LongitudeDegrees>
            </Position>
            <AltitudeMeters>73.59999847412109375</AltitudeMeters>
            <DistanceMeters>NAN</DistanceMeters>
          </Trackpoint>
          <Trackpoint>
            <Time>2022-07-08T16:20:50.000Z</Time>
            <Position>
              <LatitudeDegrees>43.35968627594411373138427734375</LatitudeDegrees>
              <LongitudeDegrees>-1.81260826997458934783935546875</LongitudeDegrees>
            </Position>
            <AltitudeMeters>73.59999847412109375</AltitudeMeters>
            <DistanceMeters>NAN</DistanceMeters>
          </Trackpoint>
          <Trackpoint>
            <Time>2022-07-08T16:20:54.000Z</Time>
            <Position>
              <LatitudeDegrees>43.35975701920688152313232421875</LatitudeDegrees>
              <LongitudeDegrees>-1.81278638541698455810546875</LongitudeDegrees>
            </Position>
            <AltitudeMeters>73.8000030517578125</AltitudeMeters>
            <DistanceMeters>NAN</DistanceMeters>
          </Trackpoint>
          <Trackpoint>
            <Time>2022-07-08T16:20:57.000Z</Time>
            <Position>
              <LatitudeDegrees>43.35980881936848163604736328125</LatitudeDegrees>
              <LongitudeDegrees>-1.8128891475498676300048828125</LongitudeDegrees>
            </Position>
            <AltitudeMeters>73.8000030517578125</AltitudeMeters>
            <DistanceMeters>NAN</DistanceMeters>
          </Trackpoint>
          <Trackpoint>
            <Time>2022-07-08T16:21:01.000Z</Time>
            <Position>
              <LatitudeDegrees>43.35988140664994716644287109375</LatitudeDegrees>
              <LongitudeDegrees>-1.813026778399944305419921875</LongitudeDegrees>
            </Position>
            <AltitudeMeters>73.8000030517578125</AltitudeMeters>
            <DistanceMeters>NAN</DistanceMeters>
          </Trackpoint>
          <Trackpoint>
            <Time>2022-07-08T16:21:09.000Z</Time>
            <Position>
              <LatitudeDegrees>43.36003110744059085845947265625</LatitudeDegrees>
              <LongitudeDegrees>-1.81328183971345424652099609375</LongitudeDegrees>
            </Position>
            <AltitudeMeters>74.1999969482421875</AltitudeMeters>
            <DistanceMeters>NAN</DistanceMeters>
          </Trackpoint>
          <Trackpoint>
            <Time>2022-07-08T16:21:12.000Z</Time>
            <Position>
              <LatitudeDegrees>43.36007854901254177093505859375</LatitudeDegrees>
              <LongitudeDegrees>-1.81338761933147907257080078125</LongitudeDegrees>
            </Position>
            <AltitudeMeters>74.8000030517578125</AltitudeMeters>
            <DistanceMeters>NAN</DistanceMeters>
          </Trackpoint>
          <Trackpoint>
            <Time>2022-07-08T16:21:17.000Z</Time>
            <Position>
              <LatitudeDegrees>43.36019405163824558258056640625</LatitudeDegrees>
              <LongitudeDegrees>-1.8135234899818897247314453125</LongitudeDegrees>
            </Position>
            <AltitudeMeters>75</AltitudeMeters>
            <DistanceMeters>NAN</DistanceMeters>
          </Trackpoint>
          <Trackpoint>
            <Time>2022-07-08T16:21:23.000Z</Time>
            <Position>
              <LatitudeDegrees>43.36036671884357929229736328125</LatitudeDegrees>
              <LongitudeDegrees>-1.81359515525400638580322265625</LongitudeDegrees>
            </Position>
            <AltitudeMeters>75.40000152587890625</AltitudeMeters>
            <DistanceMeters>NAN</DistanceMeters>
          </Trackpoint>
          <Trackpoint>
            <Time>2022-07-08T16:21:28.000Z</Time>
            <Position>
              <LatitudeDegrees>43.36048440076410770416259765625</LatitudeDegrees>
              <LongitudeDegrees>-1.81363756768405437469482421875</LongitudeDegrees>
            </Position>
            <AltitudeMeters>75.8000030517578125</AltitudeMeters>
            <DistanceMeters>NAN</DistanceMeters>
          </Trackpoint>
          <Trackpoint>
            <Time>2022-07-08T16:21:31.000Z</Time>
            <Position>
              <LatitudeDegrees>43.360542319715023040771484375</LatitudeDegrees>
              <LongitudeDegrees>-1.81364276446402072906494140625</LongitudeDegrees>
            </Position>
            <AltitudeMeters>76</AltitudeMeters>
            <DistanceMeters>NAN</DistanceMeters>
          </Trackpoint>
          <Trackpoint>
            <Time>2022-07-08T16:21:34.000Z</Time>
            <Position>
              <LatitudeDegrees>43.3605528809130191802978515625</LatitudeDegrees>
              <LongitudeDegrees>-1.8136435188353061676025390625</LongitudeDegrees>
            </Position>
            <AltitudeMeters>76.40000152587890625</AltitudeMeters>
            <DistanceMeters>NAN</DistanceMeters>
          </Trackpoint>
          <Trackpoint>
            <Time>2022-07-08T16:22:14.000Z</Time>
            <Position>
              <LatitudeDegrees>43.3609900809824466705322265625</LatitudeDegrees>
              <LongitudeDegrees>-1.813805289566516876220703125</LongitudeDegrees>
            </Position>
            <AltitudeMeters>80.1999969482421875</AltitudeMeters>
            <DistanceMeters>NAN</DistanceMeters>
          </Trackpoint>
          <Trackpoint>
            <Time>2022-07-08T16:22:19.000Z</Time>
            <Position>
              <LatitudeDegrees>43.36113072931766510009765625</LatitudeDegrees>
              <LongitudeDegrees>-1.81383588351309299468994140625</LongitudeDegrees>
            </Position>
            <AltitudeMeters>80.59999847412109375</AltitudeMeters>
            <DistanceMeters>NAN</DistanceMeters>
          </Trackpoint>
          <Trackpoint>
            <Time>2022-07-08T16:22:23.000Z</Time>
            <Position>
              <LatitudeDegrees>43.3612304739654064178466796875</LatitudeDegrees>
              <LongitudeDegrees>-1.813857257366180419921875</LongitudeDegrees>
            </Position>
            <AltitudeMeters>81</AltitudeMeters>
            <DistanceMeters>NAN</DistanceMeters>
          </Trackpoint>
          <Trackpoint>
            <Time>2022-07-08T16:22:24.000Z</Time>
            <Position>
              <LatitudeDegrees>43.3612318150699138641357421875</LatitudeDegrees>
              <LongitudeDegrees>-1.8138607777655124664306640625</LongitudeDegrees>
            </Position>
            <AltitudeMeters>81</AltitudeMeters>
            <DistanceMeters>NAN</DistanceMeters>
          </Trackpoint>
          <Trackpoint>
            <Time>2022-07-08T16:22:29.000Z</Time>
            <Position>
              <LatitudeDegrees>43.36126752197742462158203125</LatitudeDegrees>
              <LongitudeDegrees>-1.81385901756584644317626953125</LongitudeDegrees>
            </Position>
            <AltitudeMeters>81.1999969482421875</AltitudeMeters>
            <DistanceMeters>NAN</DistanceMeters>
          </Trackpoint>
          <Trackpoint>
            <Time>2022-07-08T16:22:30.000Z</Time>
            <Position>
              <LatitudeDegrees>43.36127690970897674560546875</LatitudeDegrees>
              <LongitudeDegrees>-1.81384074501693248748779296875</LongitudeDegrees>
            </Position>
            <AltitudeMeters>81.1999969482421875</AltitudeMeters>
            <DistanceMeters>NAN</DistanceMeters>
          </Trackpoint>
          <Trackpoint>
            <Time>2022-07-08T16:22:31.000Z</Time>
            <Position>
              <LatitudeDegrees>43.3612898178398609161376953125</LatitudeDegrees>
              <LongitudeDegrees>-1.81382632814347743988037109375</LongitudeDegrees>
            </Position>
            <AltitudeMeters>81.40000152587890625</AltitudeMeters>
            <DistanceMeters>NAN</DistanceMeters>
          </Trackpoint>
          <Trackpoint>
            <Time>2022-07-08T16:22:37.000Z</Time>
            <Position>
              <LatitudeDegrees>43.36131605319678783416748046875</LatitudeDegrees>
              <LongitudeDegrees>-1.81381643749773502349853515625</LongitudeDegrees>
            </Position>
            <AltitudeMeters>82</AltitudeMeters>
            <DistanceMeters>NAN</DistanceMeters>
          </Trackpoint>
          <Trackpoint>
            <Time>2022-07-08T16:22:39.000Z</Time>
            <Position>
              <LatitudeDegrees>43.36131823249161243438720703125</LatitudeDegrees>
              <LongitudeDegrees>-1.8138188682496547698974609375</LongitudeDegrees>
            </Position>
            <AltitudeMeters>82.1999969482421875</AltitudeMeters>
            <DistanceMeters>NAN</DistanceMeters>
          </Trackpoint>
          <Trackpoint>
            <Time>2022-07-08T16:26:17.000Z</Time>
            <Position>
              <LatitudeDegrees>43.36136282421648502349853515625</LatitudeDegrees>
              <LongitudeDegrees>-1.81385801173746585845947265625</LongitudeDegrees>
            </Position>
            <AltitudeMeters>81.8000030517578125</AltitudeMeters>
            <DistanceMeters>NAN</DistanceMeters>
          </Trackpoint>
          <Trackpoint>
            <Time>2022-07-08T16:26:18.000Z</Time>
            <Position>
              <LatitudeDegrees>43.361376486718654632568359375</LatitudeDegrees>
              <LongitudeDegrees>-1.81387209333479404449462890625</LongitudeDegrees>
            </Position>
            <AltitudeMeters>81.8000030517578125</AltitudeMeters>
            <DistanceMeters>NAN</DistanceMeters>
          </Trackpoint>
          <Trackpoint>
            <Time>2022-07-08T16:26:19.000Z</Time>
            <Position>
              <LatitudeDegrees>43.3613840304315090179443359375</LatitudeDegrees>
              <LongitudeDegrees>-1.81388164870440959930419921875</LongitudeDegrees>
            </Position>
            <AltitudeMeters>81.8000030517578125</AltitudeMeters>
            <DistanceMeters>NAN</DistanceMeters>
          </Trackpoint>
          <Trackpoint>
            <Time>2022-07-08T16:26:21.000Z</Time>
            <Position>
              <LatitudeDegrees>43.3613840304315090179443359375</LatitudeDegrees>
              <LongitudeDegrees>-1.81388164870440959930419921875</LongitudeDegrees>
            </Position>
            <AltitudeMeters>81.40000152587890625</AltitudeMeters>
            <DistanceMeters>NAN</DistanceMeters>
          </Trackpoint>
          <Trackpoint>
            <Time>2022-07-08T16:28:30.000Z</Time>
            <Position>
              <LatitudeDegrees>43.361511267721652984619140625</LatitudeDegrees>
              <LongitudeDegrees>-1.81373714469373226165771484375</LongitudeDegrees>
            </Position>
            <AltitudeMeters>85.40000152587890625</AltitudeMeters>
            <DistanceMeters>NAN</DistanceMeters>
          </Trackpoint>
          <Trackpoint>
            <Time>2022-07-08T16:28:31.000Z</Time>
            <Position>
              <LatitudeDegrees>43.36151822470128536224365234375</LatitudeDegrees>
              <LongitudeDegrees>-1.8137360550463199615478515625</LongitudeDegrees>
            </Position>
            <AltitudeMeters>85.59999847412109375</AltitudeMeters>
            <DistanceMeters>NAN</DistanceMeters>
          </Trackpoint>
          <Trackpoint>
            <Time>2022-07-08T16:28:34.000Z</Time>
            <Position>
              <LatitudeDegrees>43.3615292049944400787353515625</LatitudeDegrees>
              <LongitudeDegrees>-1.81372859515249729156494140625</LongitudeDegrees>
            </Position>
            <AltitudeMeters>86.40000152587890625</AltitudeMeters>
            <DistanceMeters>NAN</DistanceMeters>
          </Trackpoint>
          <Trackpoint>
            <Time>2022-07-08T16:28:35.000Z</Time>
            <Position>
              <LatitudeDegrees>43.36152970790863037109375</LatitudeDegrees>
              <LongitudeDegrees>-1.8137202970683574676513671875</LongitudeDegrees>
            </Position>
            <AltitudeMeters>86.8000030517578125</AltitudeMeters>
            <DistanceMeters>NAN</DistanceMeters>
          </Trackpoint>
          <Trackpoint>
            <Time>2022-07-08T16:28:40.000Z</Time>
            <Position>
              <LatitudeDegrees>43.3615674264729022979736328125</LatitudeDegrees>
              <LongitudeDegrees>-1.8136713467538356781005859375</LongitudeDegrees>
            </Position>
            <AltitudeMeters>87.1999969482421875</AltitudeMeters>
            <DistanceMeters>NAN</DistanceMeters>
          </Trackpoint>
          <Trackpoint>
            <Time>2022-07-08T16:28:41.000Z</Time>
            <Position>
              <LatitudeDegrees>43.36161277256906032562255859375</LatitudeDegrees>
              <LongitudeDegrees>-1.81366288103163242340087890625</LongitudeDegrees>
            </Position>
            <AltitudeMeters>87.1999969482421875</AltitudeMeters>
            <DistanceMeters>NAN</DistanceMeters>
          </Trackpoint>
          <Trackpoint>
            <Time>2022-07-08T16:28:44.000Z</Time>
            <Position>
              <LatitudeDegrees>43.36162023246288299560546875</LatitudeDegrees>
              <LongitudeDegrees>-1.81366422213613986968994140625</LongitudeDegrees>
            </Position>
            <AltitudeMeters>87.40000152587890625</AltitudeMeters>
            <DistanceMeters>NAN</DistanceMeters>
          </Trackpoint>
          <Trackpoint>
            <Time>2022-07-08T16:28:46.000Z</Time>
            <Position>
              <LatitudeDegrees>43.36162802763283252716064453125</LatitudeDegrees>
              <LongitudeDegrees>-1.81366925127804279327392578125</LongitudeDegrees>
            </Position>
            <AltitudeMeters>87.40000152587890625</AltitudeMeters>
            <DistanceMeters>NAN</DistanceMeters>
          </Trackpoint>
          <Trackpoint>
            <Time>2022-07-08T16:28:47.000Z</Time>
            <Position>
              <LatitudeDegrees>43.36162802763283252716064453125</LatitudeDegrees>
              <LongitudeDegrees>-1.81366925127804279327392578125</LongitudeDegrees>
            </Position>
            <AltitudeMeters>87.40000152587890625</AltitudeMeters>
            <DistanceMeters>NAN</DistanceMeters>
          </Trackpoint>
          <Trackpoint>
            <Time>2022-07-08T16:28:55.000Z</Time>
            <Position>
              <LatitudeDegrees>43.36165082640945911407470703125</LatitudeDegrees>
              <LongitudeDegrees>-1.813675202429294586181640625</LongitudeDegrees>
            </Position>
            <AltitudeMeters>87.40000152587890625</AltitudeMeters>
            <DistanceMeters>NAN</DistanceMeters>
          </Trackpoint>
          <Trackpoint>
            <Time>2022-07-08T16:28:56.000Z</Time>
            <Position>
              <LatitudeDegrees>43.36166591383516788482666015625</LatitudeDegrees>
              <LongitudeDegrees>-1.8136757053434848785400390625</LongitudeDegrees>
            </Position>
            <AltitudeMeters>87.40000152587890625</AltitudeMeters>
            <DistanceMeters>NAN</DistanceMeters>
          </Trackpoint>
          <Trackpoint>
            <Time>2022-07-08T16:28:57.000Z</Time>
            <Position>
              <LatitudeDegrees>43.36166574619710445404052734375</LatitudeDegrees>
              <LongitudeDegrees>-1.81365081109106540679931640625</LongitudeDegrees>
            </Position>
            <AltitudeMeters>87.40000152587890625</AltitudeMeters>
            <DistanceMeters>NAN</DistanceMeters>
          </Trackpoint>
          <Trackpoint>
            <Time>2022-07-08T16:28:58.000Z</Time>
            <Position>
              <LatitudeDegrees>43.36165853776037693023681640625</LatitudeDegrees>
              <LongitudeDegrees>-1.81363555602729320526123046875</LongitudeDegrees>
            </Position>
            <AltitudeMeters>87.59999847412109375</AltitudeMeters>
            <DistanceMeters>NAN</DistanceMeters>
          </Trackpoint>
          <Trackpoint>
            <Time>2022-07-08T16:29:00.000Z</Time>
            <Position>
              <LatitudeDegrees>43.3616623096168041229248046875</LatitudeDegrees>
              <LongitudeDegrees>-1.813636310398578643798828125</LongitudeDegrees>
            </Position>
            <AltitudeMeters>87.8000030517578125</AltitudeMeters>
            <DistanceMeters>NAN</DistanceMeters>
          </Trackpoint>
          <Trackpoint>
            <Time>2022-07-08T16:29:03.000Z</Time>
            <Position>
              <LatitudeDegrees>43.36166960187256336212158203125</LatitudeDegrees>
              <LongitudeDegrees>-1.81363823823630809783935546875</LongitudeDegrees>
            </Position>
            <AltitudeMeters>88.40000152587890625</AltitudeMeters>
            <DistanceMeters>NAN</DistanceMeters>
          </Trackpoint>
          <Trackpoint>
            <Time>2022-07-08T16:29:20.000Z</Time>
            <Position>
              <LatitudeDegrees>43.361838161945343017578125</LatitudeDegrees>
              <LongitudeDegrees>-1.81371836923062801361083984375</LongitudeDegrees>
            </Position>
            <AltitudeMeters>90</AltitudeMeters>
            <DistanceMeters>NAN</DistanceMeters>
          </Trackpoint>
          <Trackpoint>
            <Time>2022-07-08T16:29:21.000Z</Time>
            <Position>
              <LatitudeDegrees>43.361838161945343017578125</LatitudeDegrees>
              <LongitudeDegrees>-1.81371836923062801361083984375</LongitudeDegrees>
            </Position>
            <AltitudeMeters>90</AltitudeMeters>
            <DistanceMeters>NAN</DistanceMeters>
          </Trackpoint>
          <Trackpoint>
            <Time>2022-07-08T16:29:22.000Z</Time>
            <Position>
              <LatitudeDegrees>43.3618403412401676177978515625</LatitudeDegrees>
              <LongitudeDegrees>-1.8137202970683574676513671875</LongitudeDegrees>
            </Position>
            <AltitudeMeters>90.1999969482421875</AltitudeMeters>
            <DistanceMeters>NAN</DistanceMeters>
          </Trackpoint>
          <Trackpoint>
            <Time>2022-07-08T16:29:26.000Z</Time>
            <Position>
              <LatitudeDegrees>43.361905552446842193603515625</LatitudeDegrees>
              <LongitudeDegrees>-1.81374586187303066253662109375</LongitudeDegrees>
            </Position>
            <AltitudeMeters>91</AltitudeMeters>
            <DistanceMeters>NAN</DistanceMeters>
          </Trackpoint>
          <Trackpoint>
            <Time>2022-07-08T16:29:32.000Z</Time>
            <Position>
              <LatitudeDegrees>43.36193011142313480377197265625</LatitudeDegrees>
              <LongitudeDegrees>-1.81375994347035884857177734375</LongitudeDegrees>
            </Position>
            <AltitudeMeters>92.1999969482421875</AltitudeMeters>
            <DistanceMeters>NAN</DistanceMeters>
          </Trackpoint>
          <Trackpoint>
            <Time>2022-07-08T16:29:36.000Z</Time>
            <Position>
              <LatitudeDegrees>43.36196430958807468414306640625</LatitudeDegrees>
              <LongitudeDegrees>-1.8137655593454837799072265625</LongitudeDegrees>
            </Position>
            <AltitudeMeters>93.1999969482421875</AltitudeMeters>
            <DistanceMeters>NAN</DistanceMeters>
          </Trackpoint>
          <Trackpoint>
            <Time>2022-07-08T16:29:37.000Z</Time>
            <Position>
              <LatitudeDegrees>43.36196430958807468414306640625</LatitudeDegrees>
              <LongitudeDegrees>-1.8137655593454837799072265625</LongitudeDegrees>
            </Position>
            <AltitudeMeters>93.1999969482421875</AltitudeMeters>
            <DistanceMeters>NAN</DistanceMeters>
          </Trackpoint>
          <Trackpoint>
            <Time>2022-07-08T16:29:47.000Z</Time>
            <Position>
              <LatitudeDegrees>43.36203991435468196868896484375</LatitudeDegrees>
              <LongitudeDegrees>-1.8138299323618412017822265625</LongitudeDegrees>
            </Position>
            <AltitudeMeters>94</AltitudeMeters>
            <DistanceMeters>NAN</DistanceMeters>
          </Trackpoint>
          <Trackpoint>
            <Time>2022-07-08T16:29:49.000Z</Time>
            <Position>
              <LatitudeDegrees>43.36203773505985736846923828125</LatitudeDegrees>
              <LongitudeDegrees>-1.81384610943496227264404296875</LongitudeDegrees>
            </Position>
            <AltitudeMeters>94.40000152587890625</AltitudeMeters>
            <DistanceMeters>NAN</DistanceMeters>
          </Trackpoint>
          <Trackpoint>
            <Time>2022-07-08T16:29:50.000Z</Time>
            <Position>
              <LatitudeDegrees>43.3620374836027622222900390625</LatitudeDegrees>
              <LongitudeDegrees>-1.81385365314781665802001953125</LongitudeDegrees>
            </Position>
            <AltitudeMeters>94.40000152587890625</AltitudeMeters>
            <DistanceMeters>NAN</DistanceMeters>
          </Trackpoint>
          <Trackpoint>
            <Time>2022-07-08T16:29:54.000Z</Time>
            <Position>
              <LatitudeDegrees>43.36206472478806972503662109375</LatitudeDegrees>
              <LongitudeDegrees>-1.81392942555248737335205078125</LongitudeDegrees>
            </Position>
            <AltitudeMeters>95</AltitudeMeters>
            <DistanceMeters>NAN</DistanceMeters>
          </Trackpoint>
          <Trackpoint>
            <Time>2022-07-08T16:29:56.000Z</Time>
            <Position>
              <LatitudeDegrees>43.3620700053870677947998046875</LatitudeDegrees>
              <LongitudeDegrees>-1.81394903920590877532958984375</LongitudeDegrees>
            </Position>
            <AltitudeMeters>95.1999969482421875</AltitudeMeters>
            <DistanceMeters>NAN</DistanceMeters>
          </Trackpoint>
          <Trackpoint>
            <Time>2022-07-08T16:29:57.000Z</Time>
            <Position>
              <LatitudeDegrees>43.3620700053870677947998046875</LatitudeDegrees>
              <LongitudeDegrees>-1.81394903920590877532958984375</LongitudeDegrees>
            </Position>
            <AltitudeMeters>95.40000152587890625</AltitudeMeters>
            <DistanceMeters>NAN</DistanceMeters>
          </Trackpoint>
          <Trackpoint>
            <Time>2022-07-08T16:29:58.000Z</Time>
            <Position>
              <LatitudeDegrees>43.362072519958019256591796875</LatitudeDegrees>
              <LongitudeDegrees>-1.81395792402327060699462890625</LongitudeDegrees>
            </Position>
            <AltitudeMeters>95.40000152587890625</AltitudeMeters>
            <DistanceMeters>NAN</DistanceMeters>
          </Trackpoint>
          <Trackpoint>
            <Time>2022-07-08T16:30:00.000Z</Time>
            <Position>
              <LatitudeDegrees>43.3620773814618587493896484375</LatitudeDegrees>
              <LongitudeDegrees>-1.81398742832243442535400390625</LongitudeDegrees>
            </Position>
            <AltitudeMeters>96</AltitudeMeters>
            <DistanceMeters>NAN</DistanceMeters>
          </Trackpoint>
          <Trackpoint>
            <Time>2022-07-08T16:30:02.000Z</Time>
            <Position>
              <LatitudeDegrees>43.3620760403573513031005859375</LatitudeDegrees>
              <LongitudeDegrees>-1.8139982409775257110595703125</LongitudeDegrees>
            </Position>
            <AltitudeMeters>96.1999969482421875</AltitudeMeters>
            <DistanceMeters>NAN</DistanceMeters>
          </Trackpoint>
          <Trackpoint>
            <Time>2022-07-08T16:30:03.000Z</Time>
            <Position>
              <LatitudeDegrees>43.36207176558673381805419921875</LatitudeDegrees>
              <LongitudeDegrees>-1.81400679051876068115234375</LongitudeDegrees>
            </Position>
            <AltitudeMeters>96.40000152587890625</AltitudeMeters>
            <DistanceMeters>NAN</DistanceMeters>
          </Trackpoint>
          <Trackpoint>
            <Time>2022-07-08T16:30:08.000Z</Time>
            <Position>
              <LatitudeDegrees>43.3620830811560153961181640625</LatitudeDegrees>
              <LongitudeDegrees>-1.8140502087771892547607421875</LongitudeDegrees>
            </Position>
            <AltitudeMeters>97.40000152587890625</AltitudeMeters>
            <DistanceMeters>NAN</DistanceMeters>
          </Trackpoint>
          <Trackpoint>
            <Time>2022-07-08T16:30:09.000Z</Time>
            <Position>
              <LatitudeDegrees>43.36208551190793514251708984375</LatitudeDegrees>
              <LongitudeDegrees>-1.814065463840961456298828125</LongitudeDegrees>
            </Position>
            <AltitudeMeters>97.59999847412109375</AltitudeMeters>
            <DistanceMeters>NAN</DistanceMeters>
          </Trackpoint>
          <Trackpoint>
            <Time>2022-07-08T16:30:10.000Z</Time>
            <Position>
              <LatitudeDegrees>43.36208567954599857330322265625</LatitudeDegrees>
              <LongitudeDegrees>-1.81408197619020938873291015625</LongitudeDegrees>
            </Position>
            <AltitudeMeters>97.59999847412109375</AltitudeMeters>
            <DistanceMeters>NAN</DistanceMeters>
          </Trackpoint>
          <Trackpoint>
            <Time>2022-07-08T16:30:14.000Z</Time>
            <Position>
              <LatitudeDegrees>43.36211451329290866851806640625</LatitudeDegrees>
              <LongitudeDegrees>-1.8141595087945461273193359375</LongitudeDegrees>
            </Position>
            <AltitudeMeters>98</AltitudeMeters>
            <DistanceMeters>NAN</DistanceMeters>
          </Trackpoint>
          <Trackpoint>
            <Time>2022-07-08T16:30:16.000Z</Time>
            <Position>
              <LatitudeDegrees>43.36210261099040508270263671875</LatitudeDegrees>
              <LongitudeDegrees>-1.8141846545040607452392578125</LongitudeDegrees>
            </Position>
            <AltitudeMeters>98.1999969482421875</AltitudeMeters>
            <DistanceMeters>NAN</DistanceMeters>
          </Trackpoint>
          <Trackpoint>
            <Time>2022-07-08T16:30:18.000Z</Time>
            <Position>
              <LatitudeDegrees>43.36210076697170734405517578125</LatitudeDegrees>
              <LongitudeDegrees>-1.81419110856950283050537109375</LongitudeDegrees>
            </Position>
            <AltitudeMeters>98.1999969482421875</AltitudeMeters>
            <DistanceMeters>NAN</DistanceMeters>
          </Trackpoint>
          <Trackpoint>
            <Time>2022-07-08T16:30:19.000Z</Time>
            <Position>
              <LatitudeDegrees>43.362105377018451690673828125</LatitudeDegrees>
              <LongitudeDegrees>-1.81421558372676372528076171875</LongitudeDegrees>
            </Position>
            <AltitudeMeters>98.1999969482421875</AltitudeMeters>
            <DistanceMeters>NAN</DistanceMeters>
          </Trackpoint>
          <Trackpoint>
            <Time>2022-07-08T16:30:22.000Z</Time>
            <Position>
              <LatitudeDegrees>43.36211937479674816131591796875</LatitudeDegrees>
              <LongitudeDegrees>-1.8143177591264247894287109375</LongitudeDegrees>
            </Position>
            <AltitudeMeters>98.40000152587890625</AltitudeMeters>
            <DistanceMeters>NAN</DistanceMeters>
          </Trackpoint>
          <Trackpoint>
            <Time>2022-07-08T16:30:26.000Z</Time>
            <Position>
              <LatitudeDegrees>43.3621243201196193695068359375</LatitudeDegrees>
              <LongitudeDegrees>-1.8143735826015472412109375</LongitudeDegrees>
            </Position>
            <AltitudeMeters>98.59999847412109375</AltitudeMeters>
            <DistanceMeters>NAN</DistanceMeters>
          </Trackpoint>
          <Trackpoint>
            <Time>2022-07-08T16:30:28.000Z</Time>
            <Position>
              <LatitudeDegrees>43.36212960071861743927001953125</LatitudeDegrees>
              <LongitudeDegrees>-1.8143858201801776885986328125</LongitudeDegrees>
            </Position>
            <AltitudeMeters>98.8000030517578125</AltitudeMeters>
            <DistanceMeters>NAN</DistanceMeters>
          </Trackpoint>
          <Trackpoint>
            <Time>2022-07-08T16:30:30.000Z</Time>
            <Position>
              <LatitudeDegrees>43.36214326322078704833984375</LatitudeDegrees>
              <LongitudeDegrees>-1.81442798115313053131103515625</LongitudeDegrees>
            </Position>
            <AltitudeMeters>98.8000030517578125</AltitudeMeters>
            <DistanceMeters>NAN</DistanceMeters>
          </Trackpoint>
          <Trackpoint>
            <Time>2022-07-08T16:30:32.000Z</Time>
            <Position>
              <LatitudeDegrees>43.36215935647487640380859375</LatitudeDegrees>
              <LongitudeDegrees>-1.8144996464252471923828125</LongitudeDegrees>
            </Position>
            <AltitudeMeters>99.1999969482421875</AltitudeMeters>
            <DistanceMeters>NAN</DistanceMeters>
          </Trackpoint>
          <Trackpoint>
            <Time>2022-07-08T16:30:36.000Z</Time>
            <Position>
              <LatitudeDegrees>43.36219615302979946136474609375</LatitudeDegrees>
              <LongitudeDegrees>-1.81465982459485530853271484375</LongitudeDegrees>
            </Position>
            <AltitudeMeters>99.59999847412109375</AltitudeMeters>
            <DistanceMeters>NAN</DistanceMeters>
          </Trackpoint>
          <Trackpoint>
            <Time>2022-07-08T16:30:37.000Z</Time>
            <Position>
              <LatitudeDegrees>43.36220285855233669281005859375</LatitudeDegrees>
              <LongitudeDegrees>-1.81469335220754146575927734375</LongitudeDegrees>
            </Position>
            <AltitudeMeters>99.59999847412109375</AltitudeMeters>
            <DistanceMeters>NAN</DistanceMeters>
          </Trackpoint>
          <Trackpoint>
            <Time>2022-07-08T16:30:39.000Z</Time>
            <Position>
              <LatitudeDegrees>43.36221165955066680908203125</LatitudeDegrees>
              <LongitudeDegrees>-1.81475118733942508697509765625</LongitudeDegrees>
            </Position>
            <AltitudeMeters>99.8000030517578125</AltitudeMeters>
            <DistanceMeters>NAN</DistanceMeters>
          </Trackpoint>
          <Trackpoint>
            <Time>2022-07-08T16:30:42.000Z</Time>
            <Position>
              <LatitudeDegrees>43.36221409030258655548095703125</LatitudeDegrees>
              <LongitudeDegrees>-1.81484288536012172698974609375</LongitudeDegrees>
            </Position>
            <AltitudeMeters>100</AltitudeMeters>
            <DistanceMeters>NAN</DistanceMeters>
          </Trackpoint>
          <Trackpoint>
            <Time>2022-07-08T16:30:43.000Z</Time>
            <Position>
              <LatitudeDegrees>43.36219749413430690765380859375</LatitudeDegrees>
              <LongitudeDegrees>-1.81488454341888427734375</LongitudeDegrees>
            </Position>
            <AltitudeMeters>100.1999969482421875</AltitudeMeters>
            <DistanceMeters>NAN</DistanceMeters>
          </Trackpoint>
          <Trackpoint>
            <Time>2022-07-08T16:30:45.000Z</Time>
            <Position>
              <LatitudeDegrees>43.36218944750726222991943359375</LatitudeDegrees>
              <LongitudeDegrees>-1.81493793614208698272705078125</LongitudeDegrees>
            </Position>
            <AltitudeMeters>100.40000152587890625</AltitudeMeters>
            <DistanceMeters>NAN</DistanceMeters>
          </Trackpoint>
          <Trackpoint>
            <Time>2022-07-08T16:30:47.000Z</Time>
            <Position>
              <LatitudeDegrees>43.36220704950392246246337890625</LatitudeDegrees>
              <LongitudeDegrees>-1.8149578012526035308837890625</LongitudeDegrees>
            </Position>
            <AltitudeMeters>100.59999847412109375</AltitudeMeters>
            <DistanceMeters>NAN</DistanceMeters>
          </Trackpoint>
          <Trackpoint>
            <Time>2022-07-08T16:30:48.000Z</Time>
            <Position>
              <LatitudeDegrees>43.36224778555333614349365234375</LatitudeDegrees>
              <LongitudeDegrees>-1.8149650096893310546875</LongitudeDegrees>
            </Position>
            <AltitudeMeters>100.8000030517578125</AltitudeMeters>
            <DistanceMeters>NAN</DistanceMeters>
          </Trackpoint>
          <Trackpoint>
            <Time>2022-07-08T16:30:49.000Z</Time>
            <Position>
              <LatitudeDegrees>43.3622825704514980316162109375</LatitudeDegrees>
              <LongitudeDegrees>-1.814985461533069610595703125</LongitudeDegrees>
            </Position>
            <AltitudeMeters>100.8000030517578125</AltitudeMeters>
            <DistanceMeters>NAN</DistanceMeters>
          </Trackpoint>
          <Trackpoint>
            <Time>2022-07-08T16:30:54.000Z</Time>
            <Position>
              <LatitudeDegrees>43.362304531037807464599609375</LatitudeDegrees>
              <LongitudeDegrees>-1.81509182788431644439697265625</LongitudeDegrees>
            </Position>
            <AltitudeMeters>101.59999847412109375</AltitudeMeters>
            <DistanceMeters>NAN</DistanceMeters>
          </Trackpoint>
          <Trackpoint>
            <Time>2022-07-08T16:30:56.000Z</Time>
            <Position>
              <LatitudeDegrees>43.362303189933300018310546875</LatitudeDegrees>
              <LongitudeDegrees>-1.8151401914656162261962890625</LongitudeDegrees>
            </Position>
            <AltitudeMeters>102</AltitudeMeters>
            <DistanceMeters>NAN</DistanceMeters>
          </Trackpoint>
          <Trackpoint>
            <Time>2022-07-08T16:31:00.000Z</Time>
            <Position>
              <LatitudeDegrees>43.3622580952942371368408203125</LatitudeDegrees>
              <LongitudeDegrees>-1.81522225029766559600830078125</LongitudeDegrees>
            </Position>
            <AltitudeMeters>102.40000152587890625</AltitudeMeters>
            <DistanceMeters>NAN</DistanceMeters>
          </Trackpoint>
          <Trackpoint>
            <Time>2022-07-08T16:31:01.000Z</Time>
            <Position>
              <LatitudeDegrees>43.36224921047687530517578125</LatitudeDegrees>
              <LongitudeDegrees>-1.81525510735809803009033203125</LongitudeDegrees>
            </Position>
            <AltitudeMeters>102.40000152587890625</AltitudeMeters>
            <DistanceMeters>NAN</DistanceMeters>
          </Trackpoint>
          <Trackpoint>
            <Time>2022-07-08T16:31:03.000Z</Time>
            <Position>
              <LatitudeDegrees>43.3622632920742034912109375</LatitudeDegrees>
              <LongitudeDegrees>-1.81532400660216808319091796875</LongitudeDegrees>
            </Position>
            <AltitudeMeters>102.8000030517578125</AltitudeMeters>
            <DistanceMeters>NAN</DistanceMeters>
          </Trackpoint>
          <Trackpoint>
            <Time>2022-07-08T16:31:09.000Z</Time>
            <Position>
              <LatitudeDegrees>43.36227712221443653106689453125</LatitudeDegrees>
              <LongitudeDegrees>-1.81546364910900592803955078125</LongitudeDegrees>
            </Position>
            <AltitudeMeters>103.1999969482421875</AltitudeMeters>
            <DistanceMeters>NAN</DistanceMeters>
          </Trackpoint>
          <Trackpoint>
            <Time>2022-07-08T16:31:11.000Z</Time>
            <Position>
              <LatitudeDegrees>43.3622808940708637237548828125</LatitudeDegrees>
              <LongitudeDegrees>-1.81551285088062286376953125</LongitudeDegrees>
            </Position>
            <AltitudeMeters>103.40000152587890625</AltitudeMeters>
            <DistanceMeters>NAN</DistanceMeters>
          </Trackpoint>
          <Trackpoint>
            <Time>2022-07-08T16:31:14.000Z</Time>
            <Position>
              <LatitudeDegrees>43.36225566454231739044189453125</LatitudeDegrees>
              <LongitudeDegrees>-1.81558468379080295562744140625</LongitudeDegrees>
            </Position>
            <AltitudeMeters>103.8000030517578125</AltitudeMeters>
            <DistanceMeters>NAN</DistanceMeters>
          </Trackpoint>
          <Trackpoint>
            <Time>2022-07-08T16:31:16.000Z</Time>
            <Position>
              <LatitudeDegrees>43.3622718416154384613037109375</LatitudeDegrees>
              <LongitudeDegrees>-1.81563849560916423797607421875</LongitudeDegrees>
            </Position>
            <AltitudeMeters>103.8000030517578125</AltitudeMeters>
            <DistanceMeters>NAN</DistanceMeters>
          </Trackpoint>
          <Trackpoint>
            <Time>2022-07-08T16:31:22.000Z</Time>
            <Position>
              <LatitudeDegrees>43.36225985549390316009521484375</LatitudeDegrees>
              <LongitudeDegrees>-1.8157597817480564117431640625</LongitudeDegrees>
            </Position>
            <AltitudeMeters>104.59999847412109375</AltitudeMeters>
            <DistanceMeters>NAN</DistanceMeters>
          </Trackpoint>
          <Trackpoint>
            <Time>2022-07-08T16:31:24.000Z</Time>
            <Position>
              <LatitudeDegrees>43.36225599981844425201416015625</LatitudeDegrees>
              <LongitudeDegrees>-1.81582398712635040283203125</LongitudeDegrees>
            </Position>
            <AltitudeMeters>104.8000030517578125</AltitudeMeters>
            <DistanceMeters>NAN</DistanceMeters>
          </Trackpoint>
          <Trackpoint>
            <Time>2022-07-08T16:31:29.000Z</Time>
            <Position>
              <LatitudeDegrees>43.362251557409763336181640625</LatitudeDegrees>
              <LongitudeDegrees>-1.8159284256398677825927734375</LongitudeDegrees>
            </Position>
            <AltitudeMeters>105.8000030517578125</AltitudeMeters>
            <DistanceMeters>NAN</DistanceMeters>
          </Trackpoint>
          <Trackpoint>
            <Time>2022-07-08T16:31:30.000Z</Time>
            <Position>
              <LatitudeDegrees>43.3622530661523342132568359375</LatitudeDegrees>
              <LongitudeDegrees>-1.8159458599984645843505859375</LongitudeDegrees>
            </Position>
            <AltitudeMeters>106</AltitudeMeters>
            <DistanceMeters>NAN</DistanceMeters>
          </Trackpoint>
          <Trackpoint>
            <Time>2022-07-08T16:31:37.000Z</Time>
            <Position>
              <LatitudeDegrees>43.36229254491627216339111328125</LatitudeDegrees>
              <LongitudeDegrees>-1.81607368402183055877685546875</LongitudeDegrees>
            </Position>
            <AltitudeMeters>107</AltitudeMeters>
            <DistanceMeters>NAN</DistanceMeters>
          </Trackpoint>
          <Trackpoint>
            <Time>2022-07-08T16:31:41.000Z</Time>
            <Position>
              <LatitudeDegrees>43.3623150922358036041259765625</LatitudeDegrees>
              <LongitudeDegrees>-1.81614358909428119659423828125</LongitudeDegrees>
            </Position>
            <AltitudeMeters>107.59999847412109375</AltitudeMeters>
            <DistanceMeters>NAN</DistanceMeters>
          </Trackpoint>
          <Trackpoint>
            <Time>2022-07-08T16:31:43.000Z</Time>
            <Position>
              <LatitudeDegrees>43.36232833564281463623046875</LatitudeDegrees>
              <LongitudeDegrees>-1.81618281640112400054931640625</LongitudeDegrees>
            </Position>
            <AltitudeMeters>107.8000030517578125</AltitudeMeters>
            <DistanceMeters>NAN</DistanceMeters>
          </Trackpoint>
          <Trackpoint>
            <Time>2022-07-08T16:31:45.000Z</Time>
            <Position>
              <LatitudeDegrees>43.36234384216368198394775390625</LatitudeDegrees>
              <LongitudeDegrees>-1.81621517054736614227294921875</LongitudeDegrees>
            </Position>
            <AltitudeMeters>108.1999969482421875</AltitudeMeters>
            <DistanceMeters>NAN</DistanceMeters>
          </Trackpoint>
          <Trackpoint>
            <Time>2022-07-08T16:31:50.000Z</Time>
            <Position>
              <LatitudeDegrees>43.36236379109323024749755859375</LatitudeDegrees>
              <LongitudeDegrees>-1.81631189770996570587158203125</LongitudeDegrees>
            </Position>
            <AltitudeMeters>109.1999969482421875</AltitudeMeters>
            <DistanceMeters>NAN</DistanceMeters>
          </Trackpoint>
          <Trackpoint>
            <Time>2022-07-08T16:31:51.000Z</Time>
            <Position>
              <LatitudeDegrees>43.362362198531627655029296875</LatitudeDegrees>
              <LongitudeDegrees>-1.8163287453353404998779296875</LongitudeDegrees>
            </Position>
            <AltitudeMeters>109.1999969482421875</AltitudeMeters>
            <DistanceMeters>NAN</DistanceMeters>
          </Trackpoint>
          <Trackpoint>
            <Time>2022-07-08T16:31:55.000Z</Time>
            <Position>
              <LatitudeDegrees>43.3623744361102581024169921875</LatitudeDegrees>
              <LongitudeDegrees>-1.81639672257006168365478515625</LongitudeDegrees>
            </Position>
            <AltitudeMeters>110.1999969482421875</AltitudeMeters>
            <DistanceMeters>NAN</DistanceMeters>
          </Trackpoint>
          <Trackpoint>
            <Time>2022-07-08T16:31:56.000Z</Time>
            <Position>
              <LatitudeDegrees>43.362377621233463287353515625</LatitudeDegrees>
              <LongitudeDegrees>-1.816414408385753631591796875</LongitudeDegrees>
            </Position>
            <AltitudeMeters>110.40000152587890625</AltitudeMeters>
            <DistanceMeters>NAN</DistanceMeters>
          </Trackpoint>
          <Trackpoint>
            <Time>2022-07-08T16:32:01.000Z</Time>
            <Position>
              <LatitudeDegrees>43.36236664094030857086181640625</LatitudeDegrees>
              <LongitudeDegrees>-1.81651909835636615753173828125</LongitudeDegrees>
            </Position>
            <AltitudeMeters>111.1999969482421875</AltitudeMeters>
            <DistanceMeters>NAN</DistanceMeters>
          </Trackpoint>
          <Trackpoint>
            <Time>2022-07-08T16:32:04.000Z</Time>
            <Position>
              <LatitudeDegrees>43.3623732626438140869140625</LatitudeDegrees>
              <LongitudeDegrees>-1.8165704794228076934814453125</LongitudeDegrees>
            </Position>
            <AltitudeMeters>111.8000030517578125</AltitudeMeters>
            <DistanceMeters>NAN</DistanceMeters>
          </Trackpoint>
          <Trackpoint>
            <Time>2022-07-08T16:32:05.000Z</Time>
            <Position>
              <LatitudeDegrees>43.362379632890224456787109375</LatitudeDegrees>
              <LongitudeDegrees>-1.8165892548859119415283203125</LongitudeDegrees>
            </Position>
            <AltitudeMeters>112.1999969482421875</AltitudeMeters>
            <DistanceMeters>NAN</DistanceMeters>
          </Trackpoint>
          <Trackpoint>
            <Time>2022-07-08T16:32:06.000Z</Time>
            <Position>
              <LatitudeDegrees>43.3623885177075862884521484375</LatitudeDegrees>
              <LongitudeDegrees>-1.81660979054868221282958984375</LongitudeDegrees>
            </Position>
            <AltitudeMeters>112.1999969482421875</AltitudeMeters>
            <DistanceMeters>NAN</DistanceMeters>
          </Trackpoint>
          <Trackpoint>
            <Time>2022-07-08T16:32:08.000Z</Time>
            <Position>
              <LatitudeDegrees>43.3623947203159332275390625</LatitudeDegrees>
              <LongitudeDegrees>-1.816649772226810455322265625</LongitudeDegrees>
            </Position>
            <AltitudeMeters>112.59999847412109375</AltitudeMeters>
            <DistanceMeters>NAN</DistanceMeters>
          </Trackpoint>
          <Trackpoint>
            <Time>2022-07-08T16:32:10.000Z</Time>
            <Position>
              <LatitudeDegrees>43.36239715106785297393798828125</LatitudeDegrees>
              <LongitudeDegrees>-1.81668740697205066680908203125</LongitudeDegrees>
            </Position>
            <AltitudeMeters>113</AltitudeMeters>
            <DistanceMeters>NAN</DistanceMeters>
          </Trackpoint>
          <Trackpoint>
            <Time>2022-07-08T16:32:12.000Z</Time>
            <Position>
              <LatitudeDegrees>43.362405784428119659423828125</LatitudeDegrees>
              <LongitudeDegrees>-1.816718168556690216064453125</LongitudeDegrees>
            </Position>
            <AltitudeMeters>113.59999847412109375</AltitudeMeters>
            <DistanceMeters>NAN</DistanceMeters>
          </Trackpoint>
          <Trackpoint>
            <Time>2022-07-08T16:32:15.000Z</Time>
            <Position>
              <LatitudeDegrees>43.36240989156067371368408203125</LatitudeDegrees>
              <LongitudeDegrees>-1.8167682923376560211181640625</LongitudeDegrees>
            </Position>
            <AltitudeMeters>114.1999969482421875</AltitudeMeters>
            <DistanceMeters>NAN</DistanceMeters>
          </Trackpoint>
          <Trackpoint>
            <Time>2022-07-08T16:32:16.000Z</Time>
            <Position>
              <LatitudeDegrees>43.36241408251225948333740234375</LatitudeDegrees>
              <LongitudeDegrees>-1.816780865192413330078125</LongitudeDegrees>
            </Position>
            <AltitudeMeters>114.40000152587890625</AltitudeMeters>
            <DistanceMeters>NAN</DistanceMeters>
          </Trackpoint>
          <Trackpoint>
            <Time>2022-07-08T16:32:17.000Z</Time>
            <Position>
              <LatitudeDegrees>43.36241810582578182220458984375</LatitudeDegrees>
              <LongitudeDegrees>-1.81679762899875640869140625</LongitudeDegrees>
            </Position>
            <AltitudeMeters>114.59999847412109375</AltitudeMeters>
            <DistanceMeters>NAN</DistanceMeters>
          </Trackpoint>
          <Trackpoint>
            <Time>2022-07-08T16:32:20.000Z</Time>
            <Position>
              <LatitudeDegrees>43.36242715828120708465576171875</LatitudeDegrees>
              <LongitudeDegrees>-1.81684733368456363677978515625</LongitudeDegrees>
            </Position>
            <AltitudeMeters>115</AltitudeMeters>
            <DistanceMeters>NAN</DistanceMeters>
          </Trackpoint>
          <Trackpoint>
            <Time>2022-07-08T16:32:21.000Z</Time>
            <Position>
              <LatitudeDegrees>43.36243218742311000823974609375</LatitudeDegrees>
              <LongitudeDegrees>-1.8168655224144458770751953125</LongitudeDegrees>
            </Position>
            <AltitudeMeters>115</AltitudeMeters>
            <DistanceMeters>NAN</DistanceMeters>
          </Trackpoint>
          <Trackpoint>
            <Time>2022-07-08T16:32:22.000Z</Time>
            <Position>
              <LatitudeDegrees>43.36244375444948673248291015625</LatitudeDegrees>
              <LongitudeDegrees>-1.81688287295401096343994140625</LongitudeDegrees>
            </Position>
            <AltitudeMeters>115</AltitudeMeters>
            <DistanceMeters>NAN</DistanceMeters>
          </Trackpoint>
          <Trackpoint>
            <Time>2022-07-08T16:32:24.000Z</Time>
            <Position>
              <LatitudeDegrees>43.362464793026447296142578125</LatitudeDegrees>
              <LongitudeDegrees>-1.81692235171794891357421875</LongitudeDegrees>
            </Position>
            <AltitudeMeters>115.40000152587890625</AltitudeMeters>
            <DistanceMeters>NAN</DistanceMeters>
          </Trackpoint>
          <Trackpoint>
            <Time>2022-07-08T16:32:26.000Z</Time>
            <Position>
              <LatitudeDegrees>43.36247929371893405914306640625</LatitudeDegrees>
              <LongitudeDegrees>-1.81695613078773021697998046875</LongitudeDegrees>
            </Position>
            <AltitudeMeters>115.59999847412109375</AltitudeMeters>
            <DistanceMeters>NAN</DistanceMeters>
          </Trackpoint>
          <Trackpoint>
            <Time>2022-07-08T16:32:29.000Z</Time>
            <Position>
              <LatitudeDegrees>43.36250812746584415435791015625</LatitudeDegrees>
              <LongitudeDegrees>-1.81698228232562541961669921875</LongitudeDegrees>
            </Position>
            <AltitudeMeters>116.1999969482421875</AltitudeMeters>
            <DistanceMeters>NAN</DistanceMeters>
          </Trackpoint>
          <Trackpoint>
            <Time>2022-07-08T16:32:31.000Z</Time>
            <Position>
              <LatitudeDegrees>43.362534530460834503173828125</LatitudeDegrees>
              <LongitudeDegrees>-1.816993765532970428466796875</LongitudeDegrees>
            </Position>
            <AltitudeMeters>116.8000030517578125</AltitudeMeters>
            <DistanceMeters>NAN</DistanceMeters>
          </Trackpoint>
          <Trackpoint>
            <Time>2022-07-08T16:32:34.000Z</Time>
            <Position>
              <LatitudeDegrees>43.36256763897836208343505859375</LatitudeDegrees>
              <LongitudeDegrees>-1.81701849214732646942138671875</LongitudeDegrees>
            </Position>
            <AltitudeMeters>117.40000152587890625</AltitudeMeters>
            <DistanceMeters>NAN</DistanceMeters>
          </Trackpoint>
          <Trackpoint>
            <Time>2022-07-08T16:32:35.000Z</Time>
            <Position>
              <LatitudeDegrees>43.3625792898237705230712890625</LatitudeDegrees>
              <LongitudeDegrees>-1.8170224316418170928955078125</LongitudeDegrees>
            </Position>
            <AltitudeMeters>117.59999847412109375</AltitudeMeters>
            <DistanceMeters>NAN</DistanceMeters>
          </Trackpoint>
          <Trackpoint>
            <Time>2022-07-08T16:32:37.000Z</Time>
            <Position>
              <LatitudeDegrees>43.362600915133953094482421875</LatitudeDegrees>
              <LongitudeDegrees>-1.81702117435634136199951171875</LongitudeDegrees>
            </Position>
            <AltitudeMeters>118</AltitudeMeters>
            <DistanceMeters>NAN</DistanceMeters>
          </Trackpoint>
          <Trackpoint>
            <Time>2022-07-08T16:32:40.000Z</Time>
            <Position>
              <LatitudeDegrees>43.36263251490890979766845703125</LatitudeDegrees>
              <LongitudeDegrees>-1.817006170749664306640625</LongitudeDegrees>
            </Position>
            <AltitudeMeters>118.59999847412109375</AltitudeMeters>
            <DistanceMeters>NAN</DistanceMeters>
          </Trackpoint>
          <Trackpoint>
            <Time>2022-07-08T16:32:42.000Z</Time>
            <Position>
              <LatitudeDegrees>43.36265162564814090728759765625</LatitudeDegrees>
              <LongitudeDegrees>-1.8169939331710338592529296875</LongitudeDegrees>
            </Position>
            <AltitudeMeters>118.8000030517578125</AltitudeMeters>
            <DistanceMeters>NAN</DistanceMeters>
          </Trackpoint>
          <Trackpoint>
            <Time>2022-07-08T16:32:43.000Z</Time>
            <Position>
              <LatitudeDegrees>43.36265531368553638458251953125</LatitudeDegrees>
              <LongitudeDegrees>-1.8169942684471607208251953125</LongitudeDegrees>
            </Position>
            <AltitudeMeters>119</AltitudeMeters>
            <DistanceMeters>NAN</DistanceMeters>
          </Trackpoint>
          <Trackpoint>
            <Time>2022-07-08T16:32:44.000Z</Time>
            <Position>
              <LatitudeDegrees>43.36265531368553638458251953125</LatitudeDegrees>
              <LongitudeDegrees>-1.8169942684471607208251953125</LongitudeDegrees>
            </Position>
            <AltitudeMeters>119</AltitudeMeters>
            <DistanceMeters>NAN</DistanceMeters>
          </Trackpoint>
          <Trackpoint>
            <Time>2022-07-08T16:32:45.000Z</Time>
            <Position>
              <LatitudeDegrees>43.36265531368553638458251953125</LatitudeDegrees>
              <LongitudeDegrees>-1.8169942684471607208251953125</LongitudeDegrees>
            </Position>
            <AltitudeMeters>119</AltitudeMeters>
            <DistanceMeters>NAN</DistanceMeters>
          </Trackpoint>
          <Trackpoint>
            <Time>2022-07-08T16:33:02.000Z</Time>
            <Position>
              <LatitudeDegrees>43.36266889236867427825927734375</LatitudeDegrees>
              <LongitudeDegrees>-1.8169868923723697662353515625</LongitudeDegrees>
            </Position>
            <AltitudeMeters>120</AltitudeMeters>
            <DistanceMeters>NAN</DistanceMeters>
          </Trackpoint>
          <Trackpoint>
            <Time>2022-07-08T16:33:03.000Z</Time>
            <Position>
              <LatitudeDegrees>43.3626822195947170257568359375</LatitudeDegrees>
              <LongitudeDegrees>-1.81697708554565906524658203125</LongitudeDegrees>
            </Position>
            <AltitudeMeters>120.1999969482421875</AltitudeMeters>
            <DistanceMeters>NAN</DistanceMeters>
          </Trackpoint>
          <Trackpoint>
            <Time>2022-07-08T16:33:08.000Z</Time>
            <Position>
              <LatitudeDegrees>43.3627271465957164764404296875</LatitudeDegrees>
              <LongitudeDegrees>-1.81693433783948421478271484375</LongitudeDegrees>
            </Position>
            <AltitudeMeters>120.8000030517578125</AltitudeMeters>
            <DistanceMeters>NAN</DistanceMeters>
          </Trackpoint>
          <Trackpoint>
            <Time>2022-07-08T16:33:09.000Z</Time>
            <Position>
              <LatitudeDegrees>43.36272857151925563812255859375</LatitudeDegrees>
              <LongitudeDegrees>-1.81692763231694698333740234375</LongitudeDegrees>
            </Position>
            <AltitudeMeters>121</AltitudeMeters>
            <DistanceMeters>NAN</DistanceMeters>
          </Trackpoint>
          <Trackpoint>
            <Time>2022-07-08T16:33:10.000Z</Time>
            <Position>
              <LatitudeDegrees>43.36273175664246082305908203125</LatitudeDegrees>
              <LongitudeDegrees>-1.81691958568990230560302734375</LongitudeDegrees>
            </Position>
            <AltitudeMeters>121.1999969482421875</AltitudeMeters>
            <DistanceMeters>NAN</DistanceMeters>
          </Trackpoint>
          <Trackpoint>
            <Time>2022-07-08T16:33:12.000Z</Time>
            <Position>
              <LatitudeDegrees>43.3627596683800220489501953125</LatitudeDegrees>
              <LongitudeDegrees>-1.8168967030942440032958984375</LongitudeDegrees>
            </Position>
            <AltitudeMeters>121.59999847412109375</AltitudeMeters>
            <DistanceMeters>NAN</DistanceMeters>
          </Trackpoint>
          <Trackpoint>
            <Time>2022-07-08T16:33:14.000Z</Time>
            <Position>
              <LatitudeDegrees>43.36276419460773468017578125</LatitudeDegrees>
              <LongitudeDegrees>-1.8168973736464977264404296875</LongitudeDegrees>
            </Position>
            <AltitudeMeters>121.8000030517578125</AltitudeMeters>
            <DistanceMeters>NAN</DistanceMeters>
          </Trackpoint>
          <Trackpoint>
            <Time>2022-07-08T16:33:15.000Z</Time>
            <Position>
              <LatitudeDegrees>43.36276419460773468017578125</LatitudeDegrees>
              <LongitudeDegrees>-1.8168973736464977264404296875</LongitudeDegrees>
            </Position>
            <AltitudeMeters>122</AltitudeMeters>
            <DistanceMeters>NAN</DistanceMeters>
          </Trackpoint>
          <Trackpoint>
            <Time>2022-07-08T16:36:47.000Z</Time>
            <Position>
              <LatitudeDegrees>43.3632451482117176055908203125</LatitudeDegrees>
              <LongitudeDegrees>-1.8171468190848827362060546875</LongitudeDegrees>
            </Position>
            <AltitudeMeters>136.8000030517578125</AltitudeMeters>
            <DistanceMeters>NAN</DistanceMeters>
          </Trackpoint>
          <Trackpoint>
            <Time>2022-07-08T16:36:48.000Z</Time>
            <Position>
              <LatitudeDegrees>43.3632575534284114837646484375</LatitudeDegrees>
              <LongitudeDegrees>-1.8171588890254497528076171875</LongitudeDegrees>
            </Position>
            <AltitudeMeters>136.8000030517578125</AltitudeMeters>
            <DistanceMeters>NAN</DistanceMeters>
          </Trackpoint>
          <Trackpoint>
            <Time>2022-07-08T16:36:50.000Z</Time>
            <Position>
              <LatitudeDegrees>43.36326266638934612274169921875</LatitudeDegrees>
              <LongitudeDegrees>-1.81716199032962322235107421875</LongitudeDegrees>
            </Position>
            <AltitudeMeters>137.1999969482421875</AltitudeMeters>
            <DistanceMeters>NAN</DistanceMeters>
          </Trackpoint>
          <Trackpoint>
            <Time>2022-07-08T16:36:51.000Z</Time>
            <Position>
              <LatitudeDegrees>43.36326266638934612274169921875</LatitudeDegrees>
              <LongitudeDegrees>-1.81716199032962322235107421875</LongitudeDegrees>
            </Position>
            <AltitudeMeters>137.399993896484375</AltitudeMeters>
            <DistanceMeters>NAN</DistanceMeters>
          </Trackpoint>
          <Trackpoint>
            <Time>2022-07-08T16:40:13.000Z</Time>
            <Position>
              <LatitudeDegrees>43.36357464082539081573486328125</LatitudeDegrees>
              <LongitudeDegrees>-1.817133240401744842529296875</LongitudeDegrees>
            </Position>
            <AltitudeMeters>150.1999969482421875</AltitudeMeters>
            <DistanceMeters>NAN</DistanceMeters>
          </Trackpoint>
          <Trackpoint>
            <Time>2022-07-08T16:40:16.000Z</Time>
            <Position>
              <LatitudeDegrees>43.36361470632255077362060546875</LatitudeDegrees>
              <LongitudeDegrees>-1.8170824460685253143310546875</LongitudeDegrees>
            </Position>
            <AltitudeMeters>150.1999969482421875</AltitudeMeters>
            <DistanceMeters>NAN</DistanceMeters>
          </Trackpoint>
          <Trackpoint>
            <Time>2022-07-08T16:40:20.000Z</Time>
            <Position>
              <LatitudeDegrees>43.36363063193857669830322265625</LatitudeDegrees>
              <LongitudeDegrees>-1.81704363785684108734130859375</LongitudeDegrees>
            </Position>
            <AltitudeMeters>149.1999969482421875</AltitudeMeters>
            <DistanceMeters>NAN</DistanceMeters>
          </Trackpoint>
          <Trackpoint>
            <Time>2022-07-08T16:40:21.000Z</Time>
            <Position>
              <LatitudeDegrees>43.36363063193857669830322265625</LatitudeDegrees>
              <LongitudeDegrees>-1.81703173555433750152587890625</LongitudeDegrees>
            </Position>
            <AltitudeMeters>149</AltitudeMeters>
            <DistanceMeters>NAN</DistanceMeters>
          </Trackpoint>
          <Trackpoint>
            <Time>2022-07-08T16:40:24.000Z</Time>
            <Position>
              <LatitudeDegrees>43.36360598914325237274169921875</LatitudeDegrees>
              <LongitudeDegrees>-1.8169989623129367828369140625</LongitudeDegrees>
            </Position>
            <AltitudeMeters>148</AltitudeMeters>
            <DistanceMeters>NAN</DistanceMeters>
          </Trackpoint>
          <Trackpoint>
            <Time>2022-07-08T16:40:27.000Z</Time>
            <Position>
              <LatitudeDegrees>43.3635941706597805023193359375</LatitudeDegrees>
              <LongitudeDegrees>-1.8169855512678623199462890625</LongitudeDegrees>
            </Position>
            <AltitudeMeters>147.600006103515625</AltitudeMeters>
            <DistanceMeters>NAN</DistanceMeters>
          </Trackpoint>
          <Trackpoint>
            <Time>2022-07-08T16:40:30.000Z</Time>
            <Position>
              <LatitudeDegrees>43.3635401912033557891845703125</LatitudeDegrees>
              <LongitudeDegrees>-1.8169553764164447784423828125</LongitudeDegrees>
            </Position>
            <AltitudeMeters>147</AltitudeMeters>
            <DistanceMeters>NAN</DistanceMeters>
          </Trackpoint>
          <Trackpoint>
            <Time>2022-07-08T16:40:33.000Z</Time>
            <Position>
              <LatitudeDegrees>43.363486044108867645263671875</LatitudeDegrees>
              <LongitudeDegrees>-1.81696250103414058685302734375</LongitudeDegrees>
            </Position>
            <AltitudeMeters>146.399993896484375</AltitudeMeters>
            <DistanceMeters>NAN</DistanceMeters>
          </Trackpoint>
          <Trackpoint>
            <Time>2022-07-08T16:40:36.000Z</Time>
            <Position>
              <LatitudeDegrees>43.36346517316997051239013671875</LatitudeDegrees>
              <LongitudeDegrees>-1.81698295287787914276123046875</LongitudeDegrees>
            </Position>
            <AltitudeMeters>145.8000030517578125</AltitudeMeters>
            <DistanceMeters>NAN</DistanceMeters>
          </Trackpoint>
          <Trackpoint>
            <Time>2022-07-08T16:40:37.000Z</Time>
            <Position>
              <LatitudeDegrees>43.36344472132623195648193359375</LatitudeDegrees>
              <LongitudeDegrees>-1.81699133478105068206787109375</LongitudeDegrees>
            </Position>
            <AltitudeMeters>145.8000030517578125</AltitudeMeters>
            <DistanceMeters>NAN</DistanceMeters>
          </Trackpoint>
          <Trackpoint>
            <Time>2022-07-08T16:40:39.000Z</Time>
            <Position>
              <LatitudeDegrees>43.36344145238399505615234375</LatitudeDegrees>
              <LongitudeDegrees>-1.81697758845984935760498046875</LongitudeDegrees>
            </Position>
            <AltitudeMeters>144.8000030517578125</AltitudeMeters>
            <DistanceMeters>NAN</DistanceMeters>
          </Trackpoint>
          <Trackpoint>
            <Time>2022-07-08T16:40:40.000Z</Time>
            <Position>
              <LatitudeDegrees>43.36343835107982158660888671875</LatitudeDegrees>
              <LongitudeDegrees>-1.81698110885918140411376953125</LongitudeDegrees>
            </Position>
            <AltitudeMeters>144.600006103515625</AltitudeMeters>
            <DistanceMeters>NAN</DistanceMeters>
          </Trackpoint>
          <Trackpoint>
            <Time>2022-07-08T16:40:41.000Z</Time>
            <Position>
              <LatitudeDegrees>43.3634369261562824249267578125</LatitudeDegrees>
              <LongitudeDegrees>-1.81699477136135101318359375</LongitudeDegrees>
            </Position>
            <AltitudeMeters>144.399993896484375</AltitudeMeters>
            <DistanceMeters>NAN</DistanceMeters>
          </Trackpoint>
          <Trackpoint>
            <Time>2022-07-08T16:40:42.000Z</Time>
            <Position>
              <LatitudeDegrees>43.36342929862439632415771484375</LatitudeDegrees>
              <LongitudeDegrees>-1.81699217297136783599853515625</LongitudeDegrees>
            </Position>
            <AltitudeMeters>144.1999969482421875</AltitudeMeters>
            <DistanceMeters>NAN</DistanceMeters>
          </Trackpoint>
          <Trackpoint>
            <Time>2022-07-08T16:40:43.000Z</Time>
            <Position>
              <LatitudeDegrees>43.3634272031486034393310546875</LatitudeDegrees>
              <LongitudeDegrees>-1.817001141607761383056640625</LongitudeDegrees>
            </Position>
            <AltitudeMeters>144.1999969482421875</AltitudeMeters>
            <DistanceMeters>NAN</DistanceMeters>
          </Trackpoint>
          <Trackpoint>
            <Time>2022-07-08T16:40:44.000Z</Time>
            <Position>
              <LatitudeDegrees>43.36342242546379566192626953125</LatitudeDegrees>
              <LongitudeDegrees>-1.81700474582612514495849609375</LongitudeDegrees>
            </Position>
            <AltitudeMeters>144</AltitudeMeters>
            <DistanceMeters>NAN</DistanceMeters>
          </Trackpoint>
          <Trackpoint>
            <Time>2022-07-08T16:40:45.000Z</Time>
            <Position>
              <LatitudeDegrees>43.3634094335138797760009765625</LatitudeDegrees>
              <LongitudeDegrees>-1.81700457818806171417236328125</LongitudeDegrees>
            </Position>
            <AltitudeMeters>144</AltitudeMeters>
            <DistanceMeters>NAN</DistanceMeters>
          </Trackpoint>
          <Trackpoint>
            <Time>2022-07-08T16:40:46.000Z</Time>
            <Position>
              <LatitudeDegrees>43.36340750567615032196044921875</LatitudeDegrees>
              <LongitudeDegrees>-1.81700290180742740631103515625</LongitudeDegrees>
            </Position>
            <AltitudeMeters>144</AltitudeMeters>
            <DistanceMeters>NAN</DistanceMeters>
          </Trackpoint>
          <Trackpoint>
            <Time>2022-07-08T16:40:48.000Z</Time>
            <Position>
              <LatitudeDegrees>43.36339258588850498199462890625</LatitudeDegrees>
              <LongitudeDegrees>-1.81702427566051483154296875</LongitudeDegrees>
            </Position>
            <AltitudeMeters>143.399993896484375</AltitudeMeters>
            <DistanceMeters>NAN</DistanceMeters>
          </Trackpoint>
          <Trackpoint>
            <Time>2022-07-08T16:40:50.000Z</Time>
            <Position>
              <LatitudeDegrees>43.363393843173980712890625</LatitudeDegrees>
              <LongitudeDegrees>-1.81706241331994533538818359375</LongitudeDegrees>
            </Position>
            <AltitudeMeters>143</AltitudeMeters>
            <DistanceMeters>NAN</DistanceMeters>
          </Trackpoint>
          <Trackpoint>
            <Time>2022-07-08T16:40:51.000Z</Time>
            <Position>
              <LatitudeDegrees>43.36339510045945644378662109375</LatitudeDegrees>
              <LongitudeDegrees>-1.817070208489894866943359375</LongitudeDegrees>
            </Position>
            <AltitudeMeters>142.8000030517578125</AltitudeMeters>
            <DistanceMeters>NAN</DistanceMeters>
          </Trackpoint>
          <Trackpoint>
            <Time>2022-07-08T16:40:53.000Z</Time>
            <Position>
              <LatitudeDegrees>43.36340256035327911376953125</LatitudeDegrees>
              <LongitudeDegrees>-1.817086972296237945556640625</LongitudeDegrees>
            </Position>
            <AltitudeMeters>142.399993896484375</AltitudeMeters>
            <DistanceMeters>NAN</DistanceMeters>
          </Trackpoint>
          <Trackpoint>
            <Time>2022-07-08T16:40:54.000Z</Time>
            <Position>
              <LatitudeDegrees>43.3634080924093723297119140625</LatitudeDegrees>
              <LongitudeDegrees>-1.8170941807329654693603515625</LongitudeDegrees>
            </Position>
            <AltitudeMeters>142.399993896484375</AltitudeMeters>
            <DistanceMeters>NAN</DistanceMeters>
          </Trackpoint>
          <Trackpoint>
            <Time>2022-07-08T16:40:57.000Z</Time>
            <Position>
              <LatitudeDegrees>43.3634121157228946685791015625</LatitudeDegrees>
              <LongitudeDegrees>-1.81709979660809040069580078125</LongitudeDegrees>
            </Position>
            <AltitudeMeters>142.1999969482421875</AltitudeMeters>
            <DistanceMeters>NAN</DistanceMeters>
          </Trackpoint>
          <Trackpoint>
            <Time>2022-07-08T16:40:58.000Z</Time>
            <Position>
              <LatitudeDegrees>43.363416306674480438232421875</LatitudeDegrees>
              <LongitudeDegrees>-1.8171013891696929931640625</LongitudeDegrees>
            </Position>
            <AltitudeMeters>142.399993896484375</AltitudeMeters>
            <DistanceMeters>NAN</DistanceMeters>
          </Trackpoint>
          <Trackpoint>
            <Time>2022-07-08T16:41:01.000Z</Time>
            <Position>
              <LatitudeDegrees>43.36345075629651546478271484375</LatitudeDegrees>
              <LongitudeDegrees>-1.81706727482378482818603515625</LongitudeDegrees>
            </Position>
            <AltitudeMeters>142.8000030517578125</AltitudeMeters>
            <DistanceMeters>NAN</DistanceMeters>
          </Trackpoint>
          <Trackpoint>
            <Time>2022-07-08T16:41:03.000Z</Time>
            <Position>
              <LatitudeDegrees>43.363463915884494781494140625</LatitudeDegrees>
              <LongitudeDegrees>-1.81706006638705730438232421875</LongitudeDegrees>
            </Position>
            <AltitudeMeters>143.399993896484375</AltitudeMeters>
            <DistanceMeters>NAN</DistanceMeters>
          </Trackpoint>
          <Trackpoint>
            <Time>2022-07-08T16:41:04.000Z</Time>
            <Position>
              <LatitudeDegrees>43.3634614013135433197021484375</LatitudeDegrees>
              <LongitudeDegrees>-1.81705243885517120361328125</LongitudeDegrees>
            </Position>
            <AltitudeMeters>143.600006103515625</AltitudeMeters>
            <DistanceMeters>NAN</DistanceMeters>
          </Trackpoint>
          <Trackpoint>
            <Time>2022-07-08T16:41:06.000Z</Time>
            <Position>
              <LatitudeDegrees>43.36347070522606372833251953125</LatitudeDegrees>
              <LongitudeDegrees>-1.81703223846852779388427734375</LongitudeDegrees>
            </Position>
            <AltitudeMeters>144</AltitudeMeters>
            <DistanceMeters>NAN</DistanceMeters>
          </Trackpoint>
          <Trackpoint>
            <Time>2022-07-08T16:41:08.000Z</Time>
            <Position>
              <LatitudeDegrees>43.36347229778766632080078125</LatitudeDegrees>
              <LongitudeDegrees>-1.81700415909290313720703125</LongitudeDegrees>
            </Position>
            <AltitudeMeters>144.600006103515625</AltitudeMeters>
            <DistanceMeters>NAN</DistanceMeters>
          </Trackpoint>
          <Trackpoint>
            <Time>2022-07-08T16:41:09.000Z</Time>
            <Position>
              <LatitudeDegrees>43.3634691126644611358642578125</LatitudeDegrees>
              <LongitudeDegrees>-1.81699519045650959014892578125</LongitudeDegrees>
            </Position>
            <AltitudeMeters>145</AltitudeMeters>
            <DistanceMeters>NAN</DistanceMeters>
          </Trackpoint>
          <Trackpoint>
            <Time>2022-07-08T16:41:10.000Z</Time>
            <Position>
              <LatitudeDegrees>43.363472633063793182373046875</LatitudeDegrees>
              <LongitudeDegrees>-1.81699250824749469757080078125</LongitudeDegrees>
            </Position>
            <AltitudeMeters>145.1999969482421875</AltitudeMeters>
            <DistanceMeters>NAN</DistanceMeters>
          </Trackpoint>
          <Trackpoint>
            <Time>2022-07-08T16:41:13.000Z</Time>
            <Position>
              <LatitudeDegrees>43.36347707547247409820556640625</LatitudeDegrees>
              <LongitudeDegrees>-1.81698806583881378173828125</LongitudeDegrees>
            </Position>
            <AltitudeMeters>145.399993896484375</AltitudeMeters>
            <DistanceMeters>NAN</DistanceMeters>
          </Trackpoint>
          <Trackpoint>
            <Time>2022-07-08T16:41:14.000Z</Time>
            <Position>
              <LatitudeDegrees>43.36348629556596279144287109375</LatitudeDegrees>
              <LongitudeDegrees>-1.81698110885918140411376953125</LongitudeDegrees>
            </Position>
            <AltitudeMeters>145.8000030517578125</AltitudeMeters>
            <DistanceMeters>NAN</DistanceMeters>
          </Trackpoint>
          <Trackpoint>
            <Time>2022-07-08T16:41:16.000Z</Time>
            <Position>
              <LatitudeDegrees>43.3634966053068637847900390625</LatitudeDegrees>
              <LongitudeDegrees>-1.81696266867220401763916015625</LongitudeDegrees>
            </Position>
            <AltitudeMeters>146.399993896484375</AltitudeMeters>
            <DistanceMeters>NAN</DistanceMeters>
          </Trackpoint>
          <Trackpoint>
            <Time>2022-07-08T16:41:19.000Z</Time>
            <Position>
              <LatitudeDegrees>43.36352284066379070281982421875</LatitudeDegrees>
              <LongitudeDegrees>-1.81693836115300655364990234375</LongitudeDegrees>
            </Position>
            <AltitudeMeters>146.8000030517578125</AltitudeMeters>
            <DistanceMeters>NAN</DistanceMeters>
          </Trackpoint>
          <Trackpoint>
            <Time>2022-07-08T16:41:20.000Z</Time>
            <Position>
              <LatitudeDegrees>43.36354044266045093536376953125</LatitudeDegrees>
              <LongitudeDegrees>-1.81693308055400848388671875</LongitudeDegrees>
            </Position>
            <AltitudeMeters>147</AltitudeMeters>
            <DistanceMeters>NAN</DistanceMeters>
          </Trackpoint>
          <Trackpoint>
            <Time>2022-07-08T16:41:24.000Z</Time>
            <Position>
              <LatitudeDegrees>43.3635639958083629608154296875</LatitudeDegrees>
              <LongitudeDegrees>-1.81690701283514499664306640625</LongitudeDegrees>
            </Position>
            <AltitudeMeters>148</AltitudeMeters>
            <DistanceMeters>NAN</DistanceMeters>
          </Trackpoint>
          <Trackpoint>
            <Time>2022-07-08T16:41:26.000Z</Time>
            <Position>
              <LatitudeDegrees>43.36357665248215198516845703125</LatitudeDegrees>
              <LongitudeDegrees>-1.8169091083109378814697265625</LongitudeDegrees>
            </Position>
            <AltitudeMeters>148.399993896484375</AltitudeMeters>
            <DistanceMeters>NAN</DistanceMeters>
          </Trackpoint>
          <Trackpoint>
            <Time>2022-07-08T16:41:27.000Z</Time>
            <Position>
              <LatitudeDegrees>43.36357665248215198516845703125</LatitudeDegrees>
              <LongitudeDegrees>-1.8169091083109378814697265625</LongitudeDegrees>
            </Position>
            <AltitudeMeters>149.399993896484375</AltitudeMeters>
            <DistanceMeters>NAN</DistanceMeters>
          </Trackpoint>
          <Trackpoint>
            <Time>2022-07-08T16:41:30.000Z</Time>
            <Position>
              <LatitudeDegrees>43.36357665248215198516845703125</LatitudeDegrees>
              <LongitudeDegrees>-1.8169091083109378814697265625</LongitudeDegrees>
            </Position>
            <AltitudeMeters>150.399993896484375</AltitudeMeters>
            <DistanceMeters>NAN</DistanceMeters>
          </Trackpoint>
          <Trackpoint>
            <Time>2022-07-08T16:41:32.000Z</Time>
            <Position>
              <LatitudeDegrees>43.36357665248215198516845703125</LatitudeDegrees>
              <LongitudeDegrees>-1.8169091083109378814697265625</LongitudeDegrees>
            </Position>
            <AltitudeMeters>150.8000030517578125</AltitudeMeters>
            <DistanceMeters>NAN</DistanceMeters>
          </Trackpoint>
          <Trackpoint>
            <Time>2022-07-08T16:41:45.000Z</Time>
            <Position>
              <LatitudeDegrees>43.3636551909148693084716796875</LatitudeDegrees>
              <LongitudeDegrees>-1.81695210747420787811279296875</LongitudeDegrees>
            </Position>
            <AltitudeMeters>152.399993896484375</AltitudeMeters>
            <DistanceMeters>NAN</DistanceMeters>
          </Trackpoint>
          <Trackpoint>
            <Time>2022-07-08T16:41:49.000Z</Time>
            <Position>
              <LatitudeDegrees>43.3636982738971710205078125</LatitudeDegrees>
              <LongitudeDegrees>-1.81698580272495746612548828125</LongitudeDegrees>
            </Position>
            <AltitudeMeters>153.1999969482421875</AltitudeMeters>
            <DistanceMeters>NAN</DistanceMeters>
          </Trackpoint>
          <Trackpoint>
            <Time>2022-07-08T16:41:50.000Z</Time>
            <Position>
              <LatitudeDegrees>43.36370699107646942138671875</LatitudeDegrees>
              <LongitudeDegrees>-1.8170016445219516754150390625</LongitudeDegrees>
            </Position>
            <AltitudeMeters>153.399993896484375</AltitudeMeters>
            <DistanceMeters>NAN</DistanceMeters>
          </Trackpoint>
          <Trackpoint>
            <Time>2022-07-08T16:41:51.000Z</Time>
            <Position>
              <LatitudeDegrees>43.3637145347893238067626953125</LatitudeDegrees>
              <LongitudeDegrees>-1.8170204199850559234619140625</LongitudeDegrees>
            </Position>
            <AltitudeMeters>153.600006103515625</AltitudeMeters>
            <DistanceMeters>NAN</DistanceMeters>
          </Trackpoint>
          <Trackpoint>
            <Time>2022-07-08T16:41:52.000Z</Time>
            <Position>
              <LatitudeDegrees>43.36372668854892253875732421875</LatitudeDegrees>
              <LongitudeDegrees>-1.81703022681176662445068359375</LongitudeDegrees>
            </Position>
            <AltitudeMeters>154.1999969482421875</AltitudeMeters>
            <DistanceMeters>NAN</DistanceMeters>
          </Trackpoint>
          <Trackpoint>
            <Time>2022-07-08T16:41:54.000Z</Time>
            <Position>
              <LatitudeDegrees>43.36374848149716854095458984375</LatitudeDegrees>
              <LongitudeDegrees>-1.81705486960709095001220703125</LongitudeDegrees>
            </Position>
            <AltitudeMeters>154.600006103515625</AltitudeMeters>
            <DistanceMeters>NAN</DistanceMeters>
          </Trackpoint>
          <Trackpoint>
            <Time>2022-07-08T16:41:55.000Z</Time>
            <Position>
              <LatitudeDegrees>43.3637527562677860260009765625</LatitudeDegrees>
              <LongitudeDegrees>-1.81706157512962818145751953125</LongitudeDegrees>
            </Position>
            <AltitudeMeters>154.8000030517578125</AltitudeMeters>
            <DistanceMeters>NAN</DistanceMeters>
          </Trackpoint>
          <Trackpoint>
            <Time>2022-07-08T16:41:56.000Z</Time>
            <Position>
              <LatitudeDegrees>43.36375485174357891082763671875</LatitudeDegrees>
              <LongitudeDegrees>-1.817070208489894866943359375</LongitudeDegrees>
            </Position>
            <AltitudeMeters>154.8000030517578125</AltitudeMeters>
            <DistanceMeters>NAN</DistanceMeters>
          </Trackpoint>
          <Trackpoint>
            <Time>2022-07-08T16:41:58.000Z</Time>
            <Position>
              <LatitudeDegrees>43.36374990642070770263671875</LatitudeDegrees>
              <LongitudeDegrees>-1.81708596646785736083984375</LongitudeDegrees>
            </Position>
            <AltitudeMeters>155</AltitudeMeters>
            <DistanceMeters>NAN</DistanceMeters>
          </Trackpoint>
          <Trackpoint>
            <Time>2022-07-08T16:42:00.000Z</Time>
            <Position>
              <LatitudeDegrees>43.363746218383312225341796875</LatitudeDegrees>
              <LongitudeDegrees>-1.81709242053329944610595703125</LongitudeDegrees>
            </Position>
            <AltitudeMeters>155.1999969482421875</AltitudeMeters>
            <DistanceMeters>NAN</DistanceMeters>
          </Trackpoint>
          <Trackpoint>
            <Time>2022-07-08T16:42:04.000Z</Time>
            <Position>
              <LatitudeDegrees>43.3637309633195400238037109375</LatitudeDegrees>
              <LongitudeDegrees>-1.8171344138681888580322265625</LongitudeDegrees>
            </Position>
            <AltitudeMeters>155.600006103515625</AltitudeMeters>
            <DistanceMeters>NAN</DistanceMeters>
          </Trackpoint>
          <Trackpoint>
            <Time>2022-07-08T16:42:06.000Z</Time>
            <Position>
              <LatitudeDegrees>43.363744206726551055908203125</LatitudeDegrees>
              <LongitudeDegrees>-1.8171689473092555999755859375</LongitudeDegrees>
            </Position>
            <AltitudeMeters>155.8000030517578125</AltitudeMeters>
            <DistanceMeters>NAN</DistanceMeters>
          </Trackpoint>
          <Trackpoint>
            <Time>2022-07-08T16:42:07.000Z</Time>
            <Position>
              <LatitudeDegrees>43.36374697275459766387939453125</LatitudeDegrees>
              <LongitudeDegrees>-1.81718881241977214813232421875</LongitudeDegrees>
            </Position>
            <AltitudeMeters>156</AltitudeMeters>
            <DistanceMeters>NAN</DistanceMeters>
          </Trackpoint>
          <Trackpoint>
            <Time>2022-07-08T16:42:09.000Z</Time>
            <Position>
              <LatitudeDegrees>43.3637507446110248565673828125</LatitudeDegrees>
              <LongitudeDegrees>-1.81721932254731655120849609375</LongitudeDegrees>
            </Position>
            <AltitudeMeters>156</AltitudeMeters>
            <DistanceMeters>NAN</DistanceMeters>
          </Trackpoint>
          <Trackpoint>
            <Time>2022-07-08T16:42:10.000Z</Time>
            <Position>
              <LatitudeDegrees>43.363745212554931640625</LatitudeDegrees>
              <LongitudeDegrees>-1.81723591871559619903564453125</LongitudeDegrees>
            </Position>
            <AltitudeMeters>156</AltitudeMeters>
            <DistanceMeters>NAN</DistanceMeters>
          </Trackpoint>
          <Trackpoint>
            <Time>2022-07-08T16:42:13.000Z</Time>
            <Position>
              <LatitudeDegrees>43.363728113472461700439453125</LatitudeDegrees>
              <LongitudeDegrees>-1.81726492010056972503662109375</LongitudeDegrees>
            </Position>
            <AltitudeMeters>156.1999969482421875</AltitudeMeters>
            <DistanceMeters>NAN</DistanceMeters>
          </Trackpoint>
          <Trackpoint>
            <Time>2022-07-08T16:42:15.000Z</Time>
            <Position>
              <LatitudeDegrees>43.36373456753790378570556640625</LatitudeDegrees>
              <LongitudeDegrees>-1.8173047341406345367431640625</LongitudeDegrees>
            </Position>
            <AltitudeMeters>156.399993896484375</AltitudeMeters>
            <DistanceMeters>NAN</DistanceMeters>
          </Trackpoint>
          <Trackpoint>
            <Time>2022-07-08T16:42:18.000Z</Time>
            <Position>
              <LatitudeDegrees>43.363736830651760101318359375</LatitudeDegrees>
              <LongitudeDegrees>-1.81737924925982952117919921875</LongitudeDegrees>
            </Position>
            <AltitudeMeters>156.600006103515625</AltitudeMeters>
            <DistanceMeters>NAN</DistanceMeters>
          </Trackpoint>
          <Trackpoint>
            <Time>2022-07-08T16:42:20.000Z</Time>
            <Position>
              <LatitudeDegrees>43.36373792029917240142822265625</LatitudeDegrees>
              <LongitudeDegrees>-1.81740439496934413909912109375</LongitudeDegrees>
            </Position>
            <AltitudeMeters>156.600006103515625</AltitudeMeters>
            <DistanceMeters>NAN</DistanceMeters>
          </Trackpoint>
          <Trackpoint>
            <Time>2022-07-08T16:42:21.000Z</Time>
            <Position>
              <LatitudeDegrees>43.363740853965282440185546875</LatitudeDegrees>
              <LongitudeDegrees>-1.81742702610790729522705078125</LongitudeDegrees>
            </Position>
            <AltitudeMeters>156.8000030517578125</AltitudeMeters>
            <DistanceMeters>NAN</DistanceMeters>
          </Trackpoint>
          <Trackpoint>
            <Time>2022-07-08T16:42:24.000Z</Time>
            <Position>
              <LatitudeDegrees>43.36376356892287731170654296875</LatitudeDegrees>
              <LongitudeDegrees>-1.81750237941741943359375</LongitudeDegrees>
            </Position>
            <AltitudeMeters>157</AltitudeMeters>
            <DistanceMeters>NAN</DistanceMeters>
          </Trackpoint>
          <Trackpoint>
            <Time>2022-07-08T16:42:25.000Z</Time>
            <Position>
              <LatitudeDegrees>43.36377178318798542022705078125</LatitudeDegrees>
              <LongitudeDegrees>-1.81753213517367839813232421875</LongitudeDegrees>
            </Position>
            <AltitudeMeters>157</AltitudeMeters>
            <DistanceMeters>NAN</DistanceMeters>
          </Trackpoint>
          <Trackpoint>
            <Time>2022-07-08T16:42:26.000Z</Time>
            <Position>
              <LatitudeDegrees>43.3637782372534275054931640625</LatitudeDegrees>
              <LongitudeDegrees>-1.81756750680506229400634765625</LongitudeDegrees>
            </Position>
            <AltitudeMeters>157</AltitudeMeters>
            <DistanceMeters>NAN</DistanceMeters>
          </Trackpoint>
          <Trackpoint>
            <Time>2022-07-08T16:42:29.000Z</Time>
            <Position>
              <LatitudeDegrees>43.36377815343439579010009765625</LatitudeDegrees>
              <LongitudeDegrees>-1.8176899664103984832763671875</LongitudeDegrees>
            </Position>
            <AltitudeMeters>157.1999969482421875</AltitudeMeters>
            <DistanceMeters>NAN</DistanceMeters>
          </Trackpoint>
          <Trackpoint>
            <Time>2022-07-08T16:42:31.000Z</Time>
            <Position>
              <LatitudeDegrees>43.36376558057963848114013671875</LatitudeDegrees>
              <LongitudeDegrees>-1.81772165000438690185546875</LongitudeDegrees>
            </Position>
            <AltitudeMeters>157.399993896484375</AltitudeMeters>
            <DistanceMeters>NAN</DistanceMeters>
          </Trackpoint>
          <Trackpoint>
            <Time>2022-07-08T16:42:32.000Z</Time>
            <Position>
              <LatitudeDegrees>43.36375803686678409576416015625</LatitudeDegrees>
              <LongitudeDegrees>-1.8177342228591442108154296875</LongitudeDegrees>
            </Position>
            <AltitudeMeters>157.399993896484375</AltitudeMeters>
            <DistanceMeters>NAN</DistanceMeters>
          </Trackpoint>
          <Trackpoint>
            <Time>2022-07-08T16:42:34.000Z</Time>
            <Position>
              <LatitudeDegrees>43.36372517980635166168212890625</LatitudeDegrees>
              <LongitudeDegrees>-1.817801110446453094482421875</LongitudeDegrees>
            </Position>
            <AltitudeMeters>157.600006103515625</AltitudeMeters>
            <DistanceMeters>NAN</DistanceMeters>
          </Trackpoint>
          <Trackpoint>
            <Time>2022-07-08T16:42:36.000Z</Time>
            <Position>
              <LatitudeDegrees>43.3636920712888240814208984375</LatitudeDegrees>
              <LongitudeDegrees>-1.8178596161305904388427734375</LongitudeDegrees>
            </Position>
            <AltitudeMeters>157.8000030517578125</AltitudeMeters>
            <DistanceMeters>NAN</DistanceMeters>
          </Trackpoint>
          <Trackpoint>
            <Time>2022-07-08T16:42:38.000Z</Time>
            <Position>
              <LatitudeDegrees>43.36369131691753864288330078125</LatitudeDegrees>
              <LongitudeDegrees>-1.81793010793626308441162109375</LongitudeDegrees>
            </Position>
            <AltitudeMeters>157.8000030517578125</AltitudeMeters>
            <DistanceMeters>NAN</DistanceMeters>
          </Trackpoint>
          <Trackpoint>
            <Time>2022-07-08T16:42:41.000Z</Time>
            <Position>
              <LatitudeDegrees>43.36373976431787014007568359375</LatitudeDegrees>
              <LongitudeDegrees>-1.81801158003509044647216796875</LongitudeDegrees>
            </Position>
            <AltitudeMeters>157.8000030517578125</AltitudeMeters>
            <DistanceMeters>NAN</DistanceMeters>
          </Trackpoint>
          <Trackpoint>
            <Time>2022-07-08T16:42:44.000Z</Time>
            <Position>
              <LatitudeDegrees>43.36378016509115695953369140625</LatitudeDegrees>
              <LongitudeDegrees>-1.8180802278220653533935546875</LongitudeDegrees>
            </Position>
            <AltitudeMeters>158.1999969482421875</AltitudeMeters>
            <DistanceMeters>NAN</DistanceMeters>
          </Trackpoint>
          <Trackpoint>
            <Time>2022-07-08T16:42:48.000Z</Time>
            <Position>
              <LatitudeDegrees>43.36383649148046970367431640625</LatitudeDegrees>
              <LongitudeDegrees>-1.8181992508471012115478515625</LongitudeDegrees>
            </Position>
            <AltitudeMeters>158.1999969482421875</AltitudeMeters>
            <DistanceMeters>NAN</DistanceMeters>
          </Trackpoint>
          <Trackpoint>
            <Time>2022-07-08T16:42:49.000Z</Time>
            <Position>
              <LatitudeDegrees>43.363857530057430267333984375</LatitudeDegrees>
              <LongitudeDegrees>-1.8182287551462650299072265625</LongitudeDegrees>
            </Position>
            <AltitudeMeters>158.600006103515625</AltitudeMeters>
            <DistanceMeters>NAN</DistanceMeters>
          </Trackpoint>
          <Trackpoint>
            <Time>2022-07-08T16:42:50.000Z</Time>
            <Position>
              <LatitudeDegrees>43.363873958587646484375</LatitudeDegrees>
              <LongitudeDegrees>-1.8182518891990184783935546875</LongitudeDegrees>
            </Position>
            <AltitudeMeters>158.8000030517578125</AltitudeMeters>
            <DistanceMeters>NAN</DistanceMeters>
          </Trackpoint>
          <Trackpoint>
            <Time>2022-07-08T16:42:55.000Z</Time>
            <Position>
              <LatitudeDegrees>43.36391444317996501922607421875</LatitudeDegrees>
              <LongitudeDegrees>-1.818341575562953948974609375</LongitudeDegrees>
            </Position>
            <AltitudeMeters>159</AltitudeMeters>
            <DistanceMeters>NAN</DistanceMeters>
          </Trackpoint>
          <Trackpoint>
            <Time>2022-07-08T16:43:01.000Z</Time>
            <Position>
              <LatitudeDegrees>43.36396154947578907012939453125</LatitudeDegrees>
              <LongitudeDegrees>-1.8184034340083599090576171875</LongitudeDegrees>
            </Position>
            <AltitudeMeters>159.399993896484375</AltitudeMeters>
            <DistanceMeters>NAN</DistanceMeters>
          </Trackpoint>
          <Trackpoint>
            <Time>2022-07-08T16:43:02.000Z</Time>
            <Position>
              <LatitudeDegrees>43.36396154947578907012939453125</LatitudeDegrees>
              <LongitudeDegrees>-1.8184034340083599090576171875</LongitudeDegrees>
            </Position>
            <AltitudeMeters>159.399993896484375</AltitudeMeters>
            <DistanceMeters>NAN</DistanceMeters>
          </Trackpoint>
          <Trackpoint>
            <Time>2022-07-08T16:43:05.000Z</Time>
            <Position>
              <LatitudeDegrees>43.36396154947578907012939453125</LatitudeDegrees>
              <LongitudeDegrees>-1.8184034340083599090576171875</LongitudeDegrees>
            </Position>
            <AltitudeMeters>159.600006103515625</AltitudeMeters>
            <DistanceMeters>NAN</DistanceMeters>
          </Trackpoint>
          <Trackpoint>
            <Time>2022-07-08T16:50:40.000Z</Time>
            <Position>
              <LatitudeDegrees>43.36413840763270854949951171875</LatitudeDegrees>
              <LongitudeDegrees>-1.81857735849916934967041015625</LongitudeDegrees>
            </Position>
            <AltitudeMeters>162.600006103515625</AltitudeMeters>
            <DistanceMeters>NAN</DistanceMeters>
          </Trackpoint>
          <Trackpoint>
            <Time>2022-07-08T16:50:41.000Z</Time>
            <Position>
              <LatitudeDegrees>43.364157266914844512939453125</LatitudeDegrees>
              <LongitudeDegrees>-1.8185938708484172821044921875</LongitudeDegrees>
            </Position>
            <AltitudeMeters>162.600006103515625</AltitudeMeters>
            <DistanceMeters>NAN</DistanceMeters>
          </Trackpoint>
          <Trackpoint>
            <Time>2022-07-08T16:50:42.000Z</Time>
            <Position>
              <LatitudeDegrees>43.364174365997314453125</LatitudeDegrees>
              <LongitudeDegrees>-1.81860803626477718353271484375</LongitudeDegrees>
            </Position>
            <AltitudeMeters>162.600006103515625</AltitudeMeters>
            <DistanceMeters>NAN</DistanceMeters>
          </Trackpoint>
          <Trackpoint>
            <Time>2022-07-08T16:50:45.000Z</Time>
            <Position>
              <LatitudeDegrees>43.36422205902636051177978515625</LatitudeDegrees>
              <LongitudeDegrees>-1.81866821832954883575439453125</LongitudeDegrees>
            </Position>
            <AltitudeMeters>163.8000030517578125</AltitudeMeters>
            <DistanceMeters>NAN</DistanceMeters>
          </Trackpoint>
          <Trackpoint>
            <Time>2022-07-08T16:50:50.000Z</Time>
            <Position>
              <LatitudeDegrees>43.36431224830448627471923828125</LatitudeDegrees>
              <LongitudeDegrees>-1.81876243092119693756103515625</LongitudeDegrees>
            </Position>
            <AltitudeMeters>164.8000030517578125</AltitudeMeters>
            <DistanceMeters>NAN</DistanceMeters>
          </Trackpoint>
          <Trackpoint>
            <Time>2022-07-08T16:50:51.000Z</Time>
            <Position>
              <LatitudeDegrees>43.3643217198550701141357421875</LatitudeDegrees>
              <LongitudeDegrees>-1.8187729083001613616943359375</LongitudeDegrees>
            </Position>
            <AltitudeMeters>165</AltitudeMeters>
            <DistanceMeters>NAN</DistanceMeters>
          </Trackpoint>
          <Trackpoint>
            <Time>2022-07-08T16:50:52.000Z</Time>
            <Position>
              <LatitudeDegrees>43.3643250726163387298583984375</LatitudeDegrees>
              <LongitudeDegrees>-1.81878254748880863189697265625</LongitudeDegrees>
            </Position>
            <AltitudeMeters>165.1999969482421875</AltitudeMeters>
            <DistanceMeters>NAN</DistanceMeters>
          </Trackpoint>
          <Trackpoint>
            <Time>2022-07-08T16:50:55.000Z</Time>
            <Position>
              <LatitudeDegrees>43.36435046978294849395751953125</LatitudeDegrees>
              <LongitudeDegrees>-1.81881356053054332733154296875</LongitudeDegrees>
            </Position>
            <AltitudeMeters>165.600006103515625</AltitudeMeters>
            <DistanceMeters>NAN</DistanceMeters>
          </Trackpoint>
          <Trackpoint>
            <Time>2022-07-08T16:50:57.000Z</Time>
            <Position>
              <LatitudeDegrees>43.36437561549246311187744140625</LatitudeDegrees>
              <LongitudeDegrees>-1.8188342638313770294189453125</LongitudeDegrees>
            </Position>
            <AltitudeMeters>165.8000030517578125</AltitudeMeters>
            <DistanceMeters>NAN</DistanceMeters>
          </Trackpoint>
          <Trackpoint>
            <Time>2022-07-08T16:51:02.000Z</Time>
            <Position>
              <LatitudeDegrees>43.36439489386975765228271484375</LatitudeDegrees>
              <LongitudeDegrees>-1.81882940232753753662109375</LongitudeDegrees>
            </Position>
            <AltitudeMeters>166.8000030517578125</AltitudeMeters>
            <DistanceMeters>NAN</DistanceMeters>
          </Trackpoint>
          <Trackpoint>
            <Time>2022-07-08T16:51:03.000Z</Time>
            <Position>
              <LatitudeDegrees>43.36439472623169422149658203125</LatitudeDegrees>
              <LongitudeDegrees>-1.81883317418396472930908203125</LongitudeDegrees>
            </Position>
            <AltitudeMeters>167</AltitudeMeters>
            <DistanceMeters>NAN</DistanceMeters>
          </Trackpoint>
          <Trackpoint>
            <Time>2022-07-08T16:51:09.000Z</Time>
            <Position>
              <LatitudeDegrees>43.3644608594477176666259765625</LatitudeDegrees>
              <LongitudeDegrees>-1.818898804485797882080078125</LongitudeDegrees>
            </Position>
            <AltitudeMeters>167.600006103515625</AltitudeMeters>
            <DistanceMeters>NAN</DistanceMeters>
          </Trackpoint>
          <Trackpoint>
            <Time>2022-07-08T16:51:10.000Z</Time>
            <Position>
              <LatitudeDegrees>43.36448122747242450714111328125</LatitudeDegrees>
              <LongitudeDegrees>-1.818913556635379791259765625</LongitudeDegrees>
            </Position>
            <AltitudeMeters>168</AltitudeMeters>
            <DistanceMeters>NAN</DistanceMeters>
          </Trackpoint>
          <Trackpoint>
            <Time>2022-07-08T16:51:12.000Z</Time>
            <Position>
              <LatitudeDegrees>43.36452833376824855804443359375</LatitudeDegrees>
              <LongitudeDegrees>-1.8189418874680995941162109375</LongitudeDegrees>
            </Position>
            <AltitudeMeters>168.600006103515625</AltitudeMeters>
            <DistanceMeters>NAN</DistanceMeters>
          </Trackpoint>
          <Trackpoint>
            <Time>2022-07-08T16:51:14.000Z</Time>
            <Position>
              <LatitudeDegrees>43.3645570836961269378662109375</LatitudeDegrees>
              <LongitudeDegrees>-1.81897290050983428955078125</LongitudeDegrees>
            </Position>
            <AltitudeMeters>169</AltitudeMeters>
            <DistanceMeters>NAN</DistanceMeters>
          </Trackpoint>
          <Trackpoint>
            <Time>2022-07-08T16:51:15.000Z</Time>
            <Position>
              <LatitudeDegrees>43.36455767042934894561767578125</LatitudeDegrees>
              <LongitudeDegrees>-1.8189821206033229827880859375</LongitudeDegrees>
            </Position>
            <AltitudeMeters>169.1999969482421875</AltitudeMeters>
            <DistanceMeters>NAN</DistanceMeters>
          </Trackpoint>
          <Trackpoint>
            <Time>2022-07-08T16:51:16.000Z</Time>
            <Position>
              <LatitudeDegrees>43.36456689052283763885498046875</LatitudeDegrees>
              <LongitudeDegrees>-1.81900106370449066162109375</LongitudeDegrees>
            </Position>
            <AltitudeMeters>169.600006103515625</AltitudeMeters>
            <DistanceMeters>NAN</DistanceMeters>
          </Trackpoint>
          <Trackpoint>
            <Time>2022-07-08T16:51:20.000Z</Time>
            <Position>
              <LatitudeDegrees>43.36457007564604282379150390625</LatitudeDegrees>
              <LongitudeDegrees>-1.81900399737060070037841796875</LongitudeDegrees>
            </Position>
            <AltitudeMeters>170.1999969482421875</AltitudeMeters>
            <DistanceMeters>NAN</DistanceMeters>
          </Trackpoint>
          <Trackpoint>
            <Time>2022-07-08T16:52:23.000Z</Time>
            <Position>
              <LatitudeDegrees>43.36460980586707592010498046875</LatitudeDegrees>
              <LongitudeDegrees>-1.8191091902554035186767578125</LongitudeDegrees>
            </Position>
            <AltitudeMeters>171.8000030517578125</AltitudeMeters>
            <DistanceMeters>NAN</DistanceMeters>
          </Trackpoint>
          <Trackpoint>
            <Time>2022-07-08T16:52:27.000Z</Time>
            <Position>
              <LatitudeDegrees>43.3646248094737529754638671875</LatitudeDegrees>
              <LongitudeDegrees>-1.819126121699810028076171875</LongitudeDegrees>
            </Position>
            <AltitudeMeters>172.8000030517578125</AltitudeMeters>
            <DistanceMeters>NAN</DistanceMeters>
          </Trackpoint>
          <Trackpoint>
            <Time>2022-07-08T16:53:09.000Z</Time>
            <Position>
              <LatitudeDegrees>43.3647498674690723419189453125</LatitudeDegrees>
              <LongitudeDegrees>-1.81948461569845676422119140625</LongitudeDegrees>
            </Position>
            <AltitudeMeters>178</AltitudeMeters>
            <DistanceMeters>NAN</DistanceMeters>
          </Trackpoint>
          <Trackpoint>
            <Time>2022-07-08T16:53:16.000Z</Time>
            <Position>
              <LatitudeDegrees>43.3647689782083034515380859375</LatitudeDegrees>
              <LongitudeDegrees>-1.8196271918714046478271484375</LongitudeDegrees>
            </Position>
            <AltitudeMeters>179</AltitudeMeters>
            <DistanceMeters>NAN</DistanceMeters>
          </Trackpoint>
          <Trackpoint>
            <Time>2022-07-08T16:53:17.000Z</Time>
            <Position>
              <LatitudeDegrees>43.36477291770279407501220703125</LatitudeDegrees>
              <LongitudeDegrees>-1.81964890100061893463134765625</LongitudeDegrees>
            </Position>
            <AltitudeMeters>179.399993896484375</AltitudeMeters>
            <DistanceMeters>NAN</DistanceMeters>
          </Trackpoint>
          <Trackpoint>
            <Time>2022-07-08T16:53:20.000Z</Time>
            <Position>
              <LatitudeDegrees>43.36479018442332744598388671875</LatitudeDegrees>
              <LongitudeDegrees>-1.8196975998580455780029296875</LongitudeDegrees>
            </Position>
            <AltitudeMeters>180.399993896484375</AltitudeMeters>
            <DistanceMeters>NAN</DistanceMeters>
          </Trackpoint>
          <Trackpoint>
            <Time>2022-07-08T16:53:21.000Z</Time>
            <Position>
              <LatitudeDegrees>43.36479370482265949249267578125</LatitudeDegrees>
              <LongitudeDegrees>-1.81970975361764430999755859375</LongitudeDegrees>
            </Position>
            <AltitudeMeters>180.399993896484375</AltitudeMeters>
            <DistanceMeters>NAN</DistanceMeters>
          </Trackpoint>
          <Trackpoint>
            <Time>2022-07-08T16:53:22.000Z</Time>
            <Position>
              <LatitudeDegrees>43.36480124853551387786865234375</LatitudeDegrees>
              <LongitudeDegrees>-1.81971746496856212615966796875</LongitudeDegrees>
            </Position>
            <AltitudeMeters>180.8000030517578125</AltitudeMeters>
            <DistanceMeters>NAN</DistanceMeters>
          </Trackpoint>
          <Trackpoint>
            <Time>2022-07-08T16:53:23.000Z</Time>
            <Position>
              <LatitudeDegrees>43.364808373153209686279296875</LatitudeDegrees>
              <LongitudeDegrees>-1.8197245895862579345703125</LongitudeDegrees>
            </Position>
            <AltitudeMeters>181</AltitudeMeters>
            <DistanceMeters>NAN</DistanceMeters>
          </Trackpoint>
          <Trackpoint>
            <Time>2022-07-08T16:53:24.000Z</Time>
            <Position>
              <LatitudeDegrees>43.364809043705463409423828125</LatitudeDegrees>
              <LongitudeDegrees>-1.81973397731781005859375</LongitudeDegrees>
            </Position>
            <AltitudeMeters>181.600006103515625</AltitudeMeters>
            <DistanceMeters>NAN</DistanceMeters>
          </Trackpoint>
          <Trackpoint>
            <Time>2022-07-08T16:53:26.000Z</Time>
            <Position>
              <LatitudeDegrees>43.36481432430446147918701171875</LatitudeDegrees>
              <LongitudeDegrees>-1.81976188905537128448486328125</LongitudeDegrees>
            </Position>
            <AltitudeMeters>182.399993896484375</AltitudeMeters>
            <DistanceMeters>NAN</DistanceMeters>
          </Trackpoint>
          <Trackpoint>
            <Time>2022-07-08T16:53:28.000Z</Time>
            <Position>
              <LatitudeDegrees>43.36482949554920196533203125</LatitudeDegrees>
              <LongitudeDegrees>-1.819796673953533172607421875</LongitudeDegrees>
            </Position>
            <AltitudeMeters>182.600006103515625</AltitudeMeters>
            <DistanceMeters>NAN</DistanceMeters>
          </Trackpoint>
          <Trackpoint>
            <Time>2022-07-08T16:53:30.000Z</Time>
            <Position>
              <LatitudeDegrees>43.3648678846657276153564453125</LatitudeDegrees>
              <LongitudeDegrees>-1.8198317103087902069091796875</LongitudeDegrees>
            </Position>
            <AltitudeMeters>182.8000030517578125</AltitudeMeters>
            <DistanceMeters>NAN</DistanceMeters>
          </Trackpoint>
          <Trackpoint>
            <Time>2022-07-08T16:53:32.000Z</Time>
            <Position>
              <LatitudeDegrees>43.364884145557880401611328125</LatitudeDegrees>
              <LongitudeDegrees>-1.81986280716955661773681640625</LongitudeDegrees>
            </Position>
            <AltitudeMeters>183</AltitudeMeters>
            <DistanceMeters>NAN</DistanceMeters>
          </Trackpoint>
          <Trackpoint>
            <Time>2022-07-08T16:53:34.000Z</Time>
            <Position>
              <LatitudeDegrees>43.36488724686205387115478515625</LatitudeDegrees>
              <LongitudeDegrees>-1.81989817880094051361083984375</LongitudeDegrees>
            </Position>
            <AltitudeMeters>183.399993896484375</AltitudeMeters>
            <DistanceMeters>NAN</DistanceMeters>
          </Trackpoint>
          <Trackpoint>
            <Time>2022-07-08T16:53:35.000Z</Time>
            <Position>
              <LatitudeDegrees>43.3648945391178131103515625</LatitudeDegrees>
              <LongitudeDegrees>-1.8199074827134609222412109375</LongitudeDegrees>
            </Position>
            <AltitudeMeters>183.8000030517578125</AltitudeMeters>
            <DistanceMeters>NAN</DistanceMeters>
          </Trackpoint>
          <Trackpoint>
            <Time>2022-07-08T16:53:36.000Z</Time>
            <Position>
              <LatitudeDegrees>43.36490032263100147247314453125</LatitudeDegrees>
              <LongitudeDegrees>-1.81991946883499622344970703125</LongitudeDegrees>
            </Position>
            <AltitudeMeters>184.1999969482421875</AltitudeMeters>
            <DistanceMeters>NAN</DistanceMeters>
          </Trackpoint>
          <Trackpoint>
            <Time>2022-07-08T16:53:37.000Z</Time>
            <Position>
              <LatitudeDegrees>43.36490618996322154998779296875</LatitudeDegrees>
              <LongitudeDegrees>-1.81992969475686550140380859375</LongitudeDegrees>
            </Position>
            <AltitudeMeters>184.600006103515625</AltitudeMeters>
            <DistanceMeters>NAN</DistanceMeters>
          </Trackpoint>
          <Trackpoint>
            <Time>2022-07-08T16:53:39.000Z</Time>
            <Position>
              <LatitudeDegrees>43.364940471947193145751953125</LatitudeDegrees>
              <LongitudeDegrees>-1.8199594505131244659423828125</LongitudeDegrees>
            </Position>
            <AltitudeMeters>185</AltitudeMeters>
            <DistanceMeters>NAN</DistanceMeters>
          </Trackpoint>
          <Trackpoint>
            <Time>2022-07-08T16:53:40.000Z</Time>
            <Position>
              <LatitudeDegrees>43.36495933122932910919189453125</LatitudeDegrees>
              <LongitudeDegrees>-1.81997680105268955230712890625</LongitudeDegrees>
            </Position>
            <AltitudeMeters>185.1999969482421875</AltitudeMeters>
            <DistanceMeters>NAN</DistanceMeters>
          </Trackpoint>
          <Trackpoint>
            <Time>2022-07-08T16:53:41.000Z</Time>
            <Position>
              <LatitudeDegrees>43.36496721021831035614013671875</LatitudeDegrees>
              <LongitudeDegrees>-1.81998786516487598419189453125</LongitudeDegrees>
            </Position>
            <AltitudeMeters>185.399993896484375</AltitudeMeters>
            <DistanceMeters>NAN</DistanceMeters>
          </Trackpoint>
          <Trackpoint>
            <Time>2022-07-08T16:53:44.000Z</Time>
            <Position>
              <LatitudeDegrees>43.36496536619961261749267578125</LatitudeDegrees>
              <LongitudeDegrees>-1.82002876885235309600830078125</LongitudeDegrees>
            </Position>
            <AltitudeMeters>185.8000030517578125</AltitudeMeters>
            <DistanceMeters>NAN</DistanceMeters>
          </Trackpoint>
          <Trackpoint>
            <Time>2022-07-08T16:53:46.000Z</Time>
            <Position>
              <LatitudeDegrees>43.3649723231792449951171875</LatitudeDegrees>
              <LongitudeDegrees>-1.820054836571216583251953125</LongitudeDegrees>
            </Position>
            <AltitudeMeters>186.1999969482421875</AltitudeMeters>
            <DistanceMeters>NAN</DistanceMeters>
          </Trackpoint>
          <Trackpoint>
            <Time>2022-07-08T16:53:47.000Z</Time>
            <Position>
              <LatitudeDegrees>43.36497659794986248016357421875</LatitudeDegrees>
              <LongitudeDegrees>-1.82006749324500560760498046875</LongitudeDegrees>
            </Position>
            <AltitudeMeters>186.399993896484375</AltitudeMeters>
            <DistanceMeters>NAN</DistanceMeters>
          </Trackpoint>
          <Trackpoint>
            <Time>2022-07-08T16:53:50.000Z</Time>
            <Position>
              <LatitudeDegrees>43.36498917080461978912353515625</LatitudeDegrees>
              <LongitudeDegrees>-1.8201032839715480804443359375</LongitudeDegrees>
            </Position>
            <AltitudeMeters>187</AltitudeMeters>
            <DistanceMeters>NAN</DistanceMeters>
          </Trackpoint>
          <Trackpoint>
            <Time>2022-07-08T16:53:51.000Z</Time>
            <Position>
              <LatitudeDegrees>43.36500375531613826751708984375</LatitudeDegrees>
              <LongitudeDegrees>-1.8201234005391597747802734375</LongitudeDegrees>
            </Position>
            <AltitudeMeters>187.1999969482421875</AltitudeMeters>
            <DistanceMeters>NAN</DistanceMeters>
          </Trackpoint>
          <Trackpoint>
            <Time>2022-07-08T16:53:52.000Z</Time>
            <Position>
              <LatitudeDegrees>43.3650137297809123992919921875</LatitudeDegrees>
              <LongitudeDegrees>-1.82014712132513523101806640625</LongitudeDegrees>
            </Position>
            <AltitudeMeters>187.600006103515625</AltitudeMeters>
            <DistanceMeters>NAN</DistanceMeters>
          </Trackpoint>
          <Trackpoint>
            <Time>2022-07-08T16:53:54.000Z</Time>
            <Position>
              <LatitudeDegrees>43.36501683108508586883544921875</LatitudeDegrees>
              <LongitudeDegrees>-1.820183582603931427001953125</LongitudeDegrees>
            </Position>
            <AltitudeMeters>188.8000030517578125</AltitudeMeters>
            <DistanceMeters>NAN</DistanceMeters>
          </Trackpoint>
          <Trackpoint>
            <Time>2022-07-08T16:53:56.000Z</Time>
            <Position>
              <LatitudeDegrees>43.365014232695102691650390625</LatitudeDegrees>
              <LongitudeDegrees>-1.82022104971110820770263671875</LongitudeDegrees>
            </Position>
            <AltitudeMeters>189.399993896484375</AltitudeMeters>
            <DistanceMeters>NAN</DistanceMeters>
          </Trackpoint>
          <Trackpoint>
            <Time>2022-07-08T16:53:58.000Z</Time>
            <Position>
              <LatitudeDegrees>43.36501657962799072265625</LatitudeDegrees>
              <LongitudeDegrees>-1.8202246539294719696044921875</LongitudeDegrees>
            </Position>
            <AltitudeMeters>189.600006103515625</AltitudeMeters>
            <DistanceMeters>NAN</DistanceMeters>
          </Trackpoint>
          <Trackpoint>
            <Time>2022-07-08T16:53:59.000Z</Time>
            <Position>
              <LatitudeDegrees>43.36501657962799072265625</LatitudeDegrees>
              <LongitudeDegrees>-1.8202246539294719696044921875</LongitudeDegrees>
            </Position>
            <AltitudeMeters>189.399993896484375</AltitudeMeters>
            <DistanceMeters>NAN</DistanceMeters>
          </Trackpoint>
          <Trackpoint>
            <Time>2022-07-08T16:55:24.000Z</Time>
            <Position>
              <LatitudeDegrees>43.3649667911231517791748046875</LatitudeDegrees>
              <LongitudeDegrees>-1.8202156014740467071533203125</LongitudeDegrees>
            </Position>
            <AltitudeMeters>193</AltitudeMeters>
            <DistanceMeters>NAN</DistanceMeters>
          </Trackpoint>
          <Trackpoint>
            <Time>2022-07-08T16:55:25.000Z</Time>
            <Position>
              <LatitudeDegrees>43.36496000178158283233642578125</LatitudeDegrees>
              <LongitudeDegrees>-1.8202166073024272918701171875</LongitudeDegrees>
            </Position>
            <AltitudeMeters>193</AltitudeMeters>
            <DistanceMeters>NAN</DistanceMeters>
          </Trackpoint>
          <Trackpoint>
            <Time>2022-07-08T16:55:26.000Z</Time>
            <Position>
              <LatitudeDegrees>43.3649466745555400848388671875</LatitudeDegrees>
              <LongitudeDegrees>-1.8202192895114421844482421875</LongitudeDegrees>
            </Position>
            <AltitudeMeters>193</AltitudeMeters>
            <DistanceMeters>NAN</DistanceMeters>
          </Trackpoint>
          <Trackpoint>
            <Time>2022-07-08T16:55:31.000Z</Time>
            <Position>
              <LatitudeDegrees>43.36491524241864681243896484375</LatitudeDegrees>
              <LongitudeDegrees>-1.82021819986402988433837890625</LongitudeDegrees>
            </Position>
            <AltitudeMeters>192.399993896484375</AltitudeMeters>
            <DistanceMeters>NAN</DistanceMeters>
          </Trackpoint>
          <Trackpoint>
            <Time>2022-07-08T16:55:32.000Z</Time>
            <Position>
              <LatitudeDegrees>43.3649164997041225433349609375</LatitudeDegrees>
              <LongitudeDegrees>-1.82021216489374637603759765625</LongitudeDegrees>
            </Position>
            <AltitudeMeters>192.399993896484375</AltitudeMeters>
            <DistanceMeters>NAN</DistanceMeters>
          </Trackpoint>
          <Trackpoint>
            <Time>2022-07-08T16:55:34.000Z</Time>
            <Position>
              <LatitudeDegrees>43.3649164997041225433349609375</LatitudeDegrees>
              <LongitudeDegrees>-1.82021216489374637603759765625</LongitudeDegrees>
            </Position>
            <AltitudeMeters>192.399993896484375</AltitudeMeters>
            <DistanceMeters>NAN</DistanceMeters>
          </Trackpoint>
          <Trackpoint>
            <Time>2022-07-08T16:55:37.000Z</Time>
            <Position>
              <LatitudeDegrees>43.3648916892707347869873046875</LatitudeDegrees>
              <LongitudeDegrees>-1.820223145186901092529296875</LongitudeDegrees>
            </Position>
            <AltitudeMeters>193</AltitudeMeters>
            <DistanceMeters>NAN</DistanceMeters>
          </Trackpoint>
          <Trackpoint>
            <Time>2022-07-08T16:55:38.000Z</Time>
            <Position>
              <LatitudeDegrees>43.36488942615687847137451171875</LatitudeDegrees>
              <LongitudeDegrees>-1.82022750377655029296875</LongitudeDegrees>
            </Position>
            <AltitudeMeters>193</AltitudeMeters>
            <DistanceMeters>NAN</DistanceMeters>
          </Trackpoint>
          <Trackpoint>
            <Time>2022-07-08T16:55:40.000Z</Time>
            <Position>
              <LatitudeDegrees>43.36488179862499237060546875</LatitudeDegrees>
              <LongitudeDegrees>-1.82023831643164157867431640625</LongitudeDegrees>
            </Position>
            <AltitudeMeters>193</AltitudeMeters>
            <DistanceMeters>NAN</DistanceMeters>
          </Trackpoint>
          <Trackpoint>
            <Time>2022-07-08T16:55:42.000Z</Time>
            <Position>
              <LatitudeDegrees>43.36488473229110240936279296875</LatitudeDegrees>
              <LongitudeDegrees>-1.82024150155484676361083984375</LongitudeDegrees>
            </Position>
            <AltitudeMeters>193</AltitudeMeters>
            <DistanceMeters>NAN</DistanceMeters>
          </Trackpoint>
          <Trackpoint>
            <Time>2022-07-08T16:58:09.000Z</Time>
            <Position>
              <LatitudeDegrees>43.3649171702563762664794921875</LatitudeDegrees>
              <LongitudeDegrees>-1.820316016674041748046875</LongitudeDegrees>
            </Position>
            <AltitudeMeters>193.399993896484375</AltitudeMeters>
            <DistanceMeters>NAN</DistanceMeters>
          </Trackpoint>
          <Trackpoint>
            <Time>2022-07-08T16:58:10.000Z</Time>
            <Position>
              <LatitudeDegrees>43.3649278990924358367919921875</LatitudeDegrees>
              <LongitudeDegrees>-1.82031190954148769378662109375</LongitudeDegrees>
            </Position>
            <AltitudeMeters>193.399993896484375</AltitudeMeters>
            <DistanceMeters>NAN</DistanceMeters>
          </Trackpoint>
          <Trackpoint>
            <Time>2022-07-08T16:58:11.000Z</Time>
            <Position>
              <LatitudeDegrees>43.3649346046149730682373046875</LatitudeDegrees>
              <LongitudeDegrees>-1.8203078024089336395263671875</LongitudeDegrees>
            </Position>
            <AltitudeMeters>193.1999969482421875</AltitudeMeters>
            <DistanceMeters>NAN</DistanceMeters>
          </Trackpoint>
          <Trackpoint>
            <Time>2022-07-08T16:58:13.000Z</Time>
            <Position>
              <LatitudeDegrees>43.36495514027774333953857421875</LatitudeDegrees>
              <LongitudeDegrees>-1.820316016674041748046875</LongitudeDegrees>
            </Position>
            <AltitudeMeters>193.1999969482421875</AltitudeMeters>
            <DistanceMeters>NAN</DistanceMeters>
          </Trackpoint>
          <Trackpoint>
            <Time>2022-07-08T16:58:15.000Z</Time>
            <Position>
              <LatitudeDegrees>43.36496838368475437164306640625</LatitudeDegrees>
              <LongitudeDegrees>-1.820331774652004241943359375</LongitudeDegrees>
            </Position>
            <AltitudeMeters>193.399993896484375</AltitudeMeters>
            <DistanceMeters>NAN</DistanceMeters>
          </Trackpoint>
          <Trackpoint>
            <Time>2022-07-08T16:58:16.000Z</Time>
            <Position>
              <LatitudeDegrees>43.36496762931346893310546875</LatitudeDegrees>
              <LongitudeDegrees>-1.8203420005738735198974609375</LongitudeDegrees>
            </Position>
            <AltitudeMeters>193.399993896484375</AltitudeMeters>
            <DistanceMeters>NAN</DistanceMeters>
          </Trackpoint>
          <Trackpoint>
            <Time>2022-07-08T16:58:17.000Z</Time>
            <Position>
              <LatitudeDegrees>43.3649728260934352874755859375</LatitudeDegrees>
              <LongitudeDegrees>-1.8203495442867279052734375</LongitudeDegrees>
            </Position>
            <AltitudeMeters>193.600006103515625</AltitudeMeters>
            <DistanceMeters>NAN</DistanceMeters>
          </Trackpoint>
          <Trackpoint>
            <Time>2022-07-08T16:58:21.000Z</Time>
            <Position>
              <LatitudeDegrees>43.364992104470729827880859375</LatitudeDegrees>
              <LongitudeDegrees>-1.82037862949073314666748046875</LongitudeDegrees>
            </Position>
            <AltitudeMeters>193.8000030517578125</AltitudeMeters>
            <DistanceMeters>NAN</DistanceMeters>
          </Trackpoint>
          <Trackpoint>
            <Time>2022-07-08T16:58:23.000Z</Time>
            <Position>
              <LatitudeDegrees>43.36499654687941074371337890625</LatitudeDegrees>
              <LongitudeDegrees>-1.8203872628509998321533203125</LongitudeDegrees>
            </Position>
            <AltitudeMeters>193.8000030517578125</AltitudeMeters>
            <DistanceMeters>NAN</DistanceMeters>
          </Trackpoint>
          <Trackpoint>
            <Time>2022-07-08T16:58:26.000Z</Time>
            <Position>
              <LatitudeDegrees>43.36499973200261592864990234375</LatitudeDegrees>
              <LongitudeDegrees>-1.8203892745077610015869140625</LongitudeDegrees>
            </Position>
            <AltitudeMeters>194</AltitudeMeters>
            <DistanceMeters>NAN</DistanceMeters>
          </Trackpoint>
          <Trackpoint>
            <Time>2022-07-08T16:58:32.000Z</Time>
            <Position>
              <LatitudeDegrees>43.36502001620829105377197265625</LatitudeDegrees>
              <LongitudeDegrees>-1.82043327949941158294677734375</LongitudeDegrees>
            </Position>
            <AltitudeMeters>194.1999969482421875</AltitudeMeters>
            <DistanceMeters>NAN</DistanceMeters>
          </Trackpoint>
          <Trackpoint>
            <Time>2022-07-08T16:58:35.000Z</Time>
            <Position>
              <LatitudeDegrees>43.3650177530944347381591796875</LatitudeDegrees>
              <LongitudeDegrees>-1.82044082321226596832275390625</LongitudeDegrees>
            </Position>
            <AltitudeMeters>194.399993896484375</AltitudeMeters>
            <DistanceMeters>NAN</DistanceMeters>
          </Trackpoint>
          <Trackpoint>
            <Time>2022-07-08T16:58:36.000Z</Time>
            <Position>
              <LatitudeDegrees>43.36501833982765674591064453125</LatitudeDegrees>
              <LongitudeDegrees>-1.8204409070312976837158203125</LongitudeDegrees>
            </Position>
            <AltitudeMeters>194.399993896484375</AltitudeMeters>
            <DistanceMeters>NAN</DistanceMeters>
          </Trackpoint>
          <Trackpoint>
            <Time>2022-07-08T16:58:41.000Z</Time>
            <Position>
              <LatitudeDegrees>43.36502655409276485443115234375</LatitudeDegrees>
              <LongitudeDegrees>-1.8204405717551708221435546875</LongitudeDegrees>
            </Position>
            <AltitudeMeters>194.600006103515625</AltitudeMeters>
            <DistanceMeters>NAN</DistanceMeters>
          </Trackpoint>
          <Trackpoint>
            <Time>2022-07-08T16:58:44.000Z</Time>
            <Position>
              <LatitudeDegrees>43.36503334343433380126953125</LatitudeDegrees>
              <LongitudeDegrees>-1.82044065557420253753662109375</LongitudeDegrees>
            </Position>
            <AltitudeMeters>194.600006103515625</AltitudeMeters>
            <DistanceMeters>NAN</DistanceMeters>
          </Trackpoint>
          <Trackpoint>
            <Time>2022-07-08T16:58:45.000Z</Time>
            <Position>
              <LatitudeDegrees>43.36503334343433380126953125</LatitudeDegrees>
              <LongitudeDegrees>-1.82044065557420253753662109375</LongitudeDegrees>
            </Position>
            <AltitudeMeters>194.600006103515625</AltitudeMeters>
            <DistanceMeters>NAN</DistanceMeters>
          </Trackpoint>
          <Trackpoint>
            <Time>2022-07-08T16:58:46.000Z</Time>
            <Position>
              <LatitudeDegrees>43.36503334343433380126953125</LatitudeDegrees>
              <LongitudeDegrees>-1.82044065557420253753662109375</LongitudeDegrees>
            </Position>
            <AltitudeMeters>194.600006103515625</AltitudeMeters>
            <DistanceMeters>NAN</DistanceMeters>
          </Trackpoint>
          <Trackpoint>
            <Time>2022-07-08T16:59:43.000Z</Time>
            <Position>
              <LatitudeDegrees>43.36506444029510021209716796875</LatitudeDegrees>
              <LongitudeDegrees>-1.82047359645366668701171875</LongitudeDegrees>
            </Position>
            <AltitudeMeters>190.8000030517578125</AltitudeMeters>
            <DistanceMeters>NAN</DistanceMeters>
          </Trackpoint>
          <Trackpoint>
            <Time>2022-07-08T16:59:44.000Z</Time>
            <Position>
              <LatitudeDegrees>43.36506444029510021209716796875</LatitudeDegrees>
              <LongitudeDegrees>-1.82047359645366668701171875</LongitudeDegrees>
            </Position>
            <AltitudeMeters>190.8000030517578125</AltitudeMeters>
            <DistanceMeters>NAN</DistanceMeters>
          </Trackpoint>
          <Trackpoint>
            <Time>2022-07-08T16:59:45.000Z</Time>
            <Position>
              <LatitudeDegrees>43.365066535770893096923828125</LatitudeDegrees>
              <LongitudeDegrees>-1.820473931729793548583984375</LongitudeDegrees>
            </Position>
            <AltitudeMeters>191</AltitudeMeters>
            <DistanceMeters>NAN</DistanceMeters>
          </Trackpoint>
          <Trackpoint>
            <Time>2022-07-08T16:59:48.000Z</Time>
            <Position>
              <LatitudeDegrees>43.3650750853121280670166015625</LatitudeDegrees>
              <LongitudeDegrees>-1.82047636248171329498291015625</LongitudeDegrees>
            </Position>
            <AltitudeMeters>191.399993896484375</AltitudeMeters>
            <DistanceMeters>NAN</DistanceMeters>
          </Trackpoint>
          <Trackpoint>
            <Time>2022-07-08T17:00:01.000Z</Time>
            <Position>
              <LatitudeDegrees>43.36515395902097225189208984375</LatitudeDegrees>
              <LongitudeDegrees>-1.8205587565898895263671875</LongitudeDegrees>
            </Position>
            <AltitudeMeters>193.399993896484375</AltitudeMeters>
            <DistanceMeters>NAN</DistanceMeters>
          </Trackpoint>
          <Trackpoint>
            <Time>2022-07-08T17:00:02.000Z</Time>
            <Position>
              <LatitudeDegrees>43.36517541669309139251708984375</LatitudeDegrees>
              <LongitudeDegrees>-1.8205802142620086669921875</LongitudeDegrees>
            </Position>
            <AltitudeMeters>193.399993896484375</AltitudeMeters>
            <DistanceMeters>NAN</DistanceMeters>
          </Trackpoint>
          <Trackpoint>
            <Time>2022-07-08T17:00:05.000Z</Time>
            <Position>
              <LatitudeDegrees>43.365250937640666961669921875</LatitudeDegrees>
              <LongitudeDegrees>-1.82064785622060298919677734375</LongitudeDegrees>
            </Position>
            <AltitudeMeters>194.1999969482421875</AltitudeMeters>
            <DistanceMeters>NAN</DistanceMeters>
          </Trackpoint>
          <Trackpoint>
            <Time>2022-07-08T17:00:07.000Z</Time>
            <Position>
              <LatitudeDegrees>43.36529217660427093505859375</LatitudeDegrees>
              <LongitudeDegrees>-1.82070317678153514862060546875</LongitudeDegrees>
            </Position>
            <AltitudeMeters>194.600006103515625</AltitudeMeters>
            <DistanceMeters>NAN</DistanceMeters>
          </Trackpoint>
          <Trackpoint>
            <Time>2022-07-08T17:00:08.000Z</Time>
            <Position>
              <LatitudeDegrees>43.3653117902576923370361328125</LatitudeDegrees>
              <LongitudeDegrees>-1.820724047720432281494140625</LongitudeDegrees>
            </Position>
            <AltitudeMeters>194.600006103515625</AltitudeMeters>
            <DistanceMeters>NAN</DistanceMeters>
          </Trackpoint>
          <Trackpoint>
            <Time>2022-07-08T17:00:11.000Z</Time>
            <Position>
              <LatitudeDegrees>43.36533106863498687744140625</LatitudeDegrees>
              <LongitudeDegrees>-1.8207456730306148529052734375</LongitudeDegrees>
            </Position>
            <AltitudeMeters>195.399993896484375</AltitudeMeters>
            <DistanceMeters>NAN</DistanceMeters>
          </Trackpoint>
          <Trackpoint>
            <Time>2022-07-08T17:00:13.000Z</Time>
            <Position>
              <LatitudeDegrees>43.3653332479298114776611328125</LatitudeDegrees>
              <LongitudeDegrees>-1.82077425532042980194091796875</LongitudeDegrees>
            </Position>
            <AltitudeMeters>195.600006103515625</AltitudeMeters>
            <DistanceMeters>NAN</DistanceMeters>
          </Trackpoint>
          <Trackpoint>
            <Time>2022-07-08T17:00:14.000Z</Time>
            <Position>
              <LatitudeDegrees>43.365340791642665863037109375</LatitudeDegrees>
              <LongitudeDegrees>-1.82078699581325054168701171875</LongitudeDegrees>
            </Position>
            <AltitudeMeters>195.8000030517578125</AltitudeMeters>
            <DistanceMeters>NAN</DistanceMeters>
          </Trackpoint>
          <Trackpoint>
            <Time>2022-07-08T17:00:16.000Z</Time>
            <Position>
              <LatitudeDegrees>43.36533081717789173126220703125</LatitudeDegrees>
              <LongitudeDegrees>-1.82078481651842594146728515625</LongitudeDegrees>
            </Position>
            <AltitudeMeters>196.399993896484375</AltitudeMeters>
            <DistanceMeters>NAN</DistanceMeters>
          </Trackpoint>
          <Trackpoint>
            <Time>2022-07-08T17:00:18.000Z</Time>
            <Position>
              <LatitudeDegrees>43.36534439586102962493896484375</LatitudeDegrees>
              <LongitudeDegrees>-1.820801831781864166259765625</LongitudeDegrees>
            </Position>
            <AltitudeMeters>196.600006103515625</AltitudeMeters>
            <DistanceMeters>NAN</DistanceMeters>
          </Trackpoint>
          <Trackpoint>
            <Time>2022-07-08T17:00:24.000Z</Time>
            <Position>
              <LatitudeDegrees>43.36544112302362918853759765625</LatitudeDegrees>
              <LongitudeDegrees>-1.82094323448836803436279296875</LongitudeDegrees>
            </Position>
            <AltitudeMeters>197.8000030517578125</AltitudeMeters>
            <DistanceMeters>NAN</DistanceMeters>
          </Trackpoint>
          <Trackpoint>
            <Time>2022-07-08T17:00:27.000Z</Time>
            <Position>
              <LatitudeDegrees>43.36544900201261043548583984375</LatitudeDegrees>
              <LongitudeDegrees>-1.8209582380950450897216796875</LongitudeDegrees>
            </Position>
            <AltitudeMeters>198.399993896484375</AltitudeMeters>
            <DistanceMeters>NAN</DistanceMeters>
          </Trackpoint>
          <Trackpoint>
            <Time>2022-07-08T17:00:30.000Z</Time>
            <Position>
              <LatitudeDegrees>43.36546643637120723724365234375</LatitudeDegrees>
              <LongitudeDegrees>-1.82098413817584514617919921875</LongitudeDegrees>
            </Position>
            <AltitudeMeters>198.8000030517578125</AltitudeMeters>
            <DistanceMeters>NAN</DistanceMeters>
          </Trackpoint>
          <Trackpoint>
            <Time>2022-07-08T17:00:31.000Z</Time>
            <Position>
              <LatitudeDegrees>43.36547833867371082305908203125</LatitudeDegrees>
              <LongitudeDegrees>-1.820990927517414093017578125</LongitudeDegrees>
            </Position>
            <AltitudeMeters>198.8000030517578125</AltitudeMeters>
            <DistanceMeters>NAN</DistanceMeters>
          </Trackpoint>
          <Trackpoint>
            <Time>2022-07-08T17:00:37.000Z</Time>
            <Position>
              <LatitudeDegrees>43.365497700870037078857421875</LatitudeDegrees>
              <LongitudeDegrees>-1.8210120499134063720703125</LongitudeDegrees>
            </Position>
            <AltitudeMeters>199.8000030517578125</AltitudeMeters>
            <DistanceMeters>NAN</DistanceMeters>
          </Trackpoint>
          <Trackpoint>
            <Time>2022-07-08T17:00:39.000Z</Time>
            <Position>
              <LatitudeDegrees>43.36550482548773288726806640625</LatitudeDegrees>
              <LongitudeDegrees>-1.8210098706185817718505859375</LongitudeDegrees>
            </Position>
            <AltitudeMeters>200.1999969482421875</AltitudeMeters>
            <DistanceMeters>NAN</DistanceMeters>
          </Trackpoint>
          <Trackpoint>
            <Time>2022-07-08T17:00:45.000Z</Time>
            <Position>
              <LatitudeDegrees>43.36553625762462615966796875</LatitudeDegrees>
              <LongitudeDegrees>-1.82103417813777923583984375</LongitudeDegrees>
            </Position>
            <AltitudeMeters>200.399993896484375</AltitudeMeters>
            <DistanceMeters>NAN</DistanceMeters>
          </Trackpoint>
          <Trackpoint>
            <Time>2022-07-08T17:01:16.000Z</Time>
            <Position>
              <LatitudeDegrees>43.36558059789240360260009765625</LatitudeDegrees>
              <LongitudeDegrees>-1.82105991058051586151123046875</LongitudeDegrees>
            </Position>
            <AltitudeMeters>200.600006103515625</AltitudeMeters>
            <DistanceMeters>NAN</DistanceMeters>
          </Trackpoint>
          <Trackpoint>
            <Time>2022-07-08T17:01:17.000Z</Time>
            <Position>
              <LatitudeDegrees>43.36559870280325412750244140625</LatitudeDegrees>
              <LongitudeDegrees>-1.82106661610305309295654296875</LongitudeDegrees>
            </Position>
            <AltitudeMeters>200.600006103515625</AltitudeMeters>
            <DistanceMeters>NAN</DistanceMeters>
          </Trackpoint>
          <Trackpoint>
            <Time>2022-07-08T17:01:18.000Z</Time>
            <Position>
              <LatitudeDegrees>43.365615047514438629150390625</LatitudeDegrees>
              <LongitudeDegrees>-1.82107734493911266326904296875</LongitudeDegrees>
            </Position>
            <AltitudeMeters>200.8000030517578125</AltitudeMeters>
            <DistanceMeters>NAN</DistanceMeters>
          </Trackpoint>
          <Trackpoint>
            <Time>2022-07-08T17:01:22.000Z</Time>
            <Position>
              <LatitudeDegrees>43.36565385572612285614013671875</LatitudeDegrees>
              <LongitudeDegrees>-1.821104921400547027587890625</LongitudeDegrees>
            </Position>
            <AltitudeMeters>201.600006103515625</AltitudeMeters>
            <DistanceMeters>NAN</DistanceMeters>
          </Trackpoint>
          <Trackpoint>
            <Time>2022-07-08T17:01:23.000Z</Time>
            <Position>
              <LatitudeDegrees>43.3656589686870574951171875</LatitudeDegrees>
              <LongitudeDegrees>-1.82110869325697422027587890625</LongitudeDegrees>
            </Position>
            <AltitudeMeters>201.8000030517578125</AltitudeMeters>
            <DistanceMeters>NAN</DistanceMeters>
          </Trackpoint>
          <Trackpoint>
            <Time>2022-07-08T17:01:30.000Z</Time>
            <Position>
              <LatitudeDegrees>43.3657047338783740997314453125</LatitudeDegrees>
              <LongitudeDegrees>-1.82113635353744029998779296875</LongitudeDegrees>
            </Position>
            <AltitudeMeters>203.8000030517578125</AltitudeMeters>
            <DistanceMeters>NAN</DistanceMeters>
          </Trackpoint>
          <Trackpoint>
            <Time>2022-07-08T17:01:33.000Z</Time>
            <Position>
              <LatitudeDegrees>43.36574085988104343414306640625</LatitudeDegrees>
              <LongitudeDegrees>-1.82114540599286556243896484375</LongitudeDegrees>
            </Position>
            <AltitudeMeters>204.399993896484375</AltitudeMeters>
            <DistanceMeters>NAN</DistanceMeters>
          </Trackpoint>
          <Trackpoint>
            <Time>2022-07-08T17:01:36.000Z</Time>
            <Position>
              <LatitudeDegrees>43.3657831884920597076416015625</LatitudeDegrees>
              <LongitudeDegrees>-1.821181364357471466064453125</LongitudeDegrees>
            </Position>
            <AltitudeMeters>205</AltitudeMeters>
            <DistanceMeters>NAN</DistanceMeters>
          </Trackpoint>
          <Trackpoint>
            <Time>2022-07-08T17:01:39.000Z</Time>
            <Position>
              <LatitudeDegrees>43.365809507668018341064453125</LatitudeDegrees>
              <LongitudeDegrees>-1.82119636796414852142333984375</LongitudeDegrees>
            </Position>
            <AltitudeMeters>205.8000030517578125</AltitudeMeters>
            <DistanceMeters>NAN</DistanceMeters>
          </Trackpoint>
          <Trackpoint>
            <Time>2022-07-08T17:01:41.000Z</Time>
            <Position>
              <LatitudeDegrees>43.36583993397653102874755859375</LatitudeDegrees>
              <LongitudeDegrees>-1.82119653560221195220947265625</LongitudeDegrees>
            </Position>
            <AltitudeMeters>206.1999969482421875</AltitudeMeters>
            <DistanceMeters>NAN</DistanceMeters>
          </Trackpoint>
          <Trackpoint>
            <Time>2022-07-08T17:01:46.000Z</Time>
            <Position>
              <LatitudeDegrees>43.36594839580357074737548828125</LatitudeDegrees>
              <LongitudeDegrees>-1.821198128163814544677734375</LongitudeDegrees>
            </Position>
            <AltitudeMeters>207.1999969482421875</AltitudeMeters>
            <DistanceMeters>NAN</DistanceMeters>
          </Trackpoint>
          <Trackpoint>
            <Time>2022-07-08T17:01:48.000Z</Time>
            <Position>
              <LatitudeDegrees>43.36598460562527179718017578125</LatitudeDegrees>
              <LongitudeDegrees>-1.82121380232274532318115234375</LongitudeDegrees>
            </Position>
            <AltitudeMeters>207.1999969482421875</AltitudeMeters>
            <DistanceMeters>NAN</DistanceMeters>
          </Trackpoint>
          <Trackpoint>
            <Time>2022-07-08T17:01:50.000Z</Time>
            <Position>
              <LatitudeDegrees>43.3659987710416316986083984375</LatitudeDegrees>
              <LongitudeDegrees>-1.8212174065411090850830078125</LongitudeDegrees>
            </Position>
            <AltitudeMeters>207.399993896484375</AltitudeMeters>
            <DistanceMeters>NAN</DistanceMeters>
          </Trackpoint>
          <Trackpoint>
            <Time>2022-07-08T17:01:56.000Z</Time>
            <Position>
              <LatitudeDegrees>43.3661493100225925445556640625</LatitudeDegrees>
              <LongitudeDegrees>-1.82125437073409557342529296875</LongitudeDegrees>
            </Position>
            <AltitudeMeters>208</AltitudeMeters>
            <DistanceMeters>NAN</DistanceMeters>
          </Trackpoint>
          <Trackpoint>
            <Time>2022-07-08T17:01:57.000Z</Time>
            <Position>
              <LatitudeDegrees>43.366164900362491607666015625</LatitudeDegrees>
              <LongitudeDegrees>-1.82126216590404510498046875</LongitudeDegrees>
            </Position>
            <AltitudeMeters>208</AltitudeMeters>
            <DistanceMeters>NAN</DistanceMeters>
          </Trackpoint>
          <Trackpoint>
            <Time>2022-07-08T17:02:00.000Z</Time>
            <Position>
              <LatitudeDegrees>43.36619163863360881805419921875</LatitudeDegrees>
              <LongitudeDegrees>-1.8212556280195713043212890625</LongitudeDegrees>
            </Position>
            <AltitudeMeters>208</AltitudeMeters>
            <DistanceMeters>NAN</DistanceMeters>
          </Trackpoint>
          <Trackpoint>
            <Time>2022-07-08T17:02:03.000Z</Time>
            <Position>
              <LatitudeDegrees>43.366235978901386260986328125</LatitudeDegrees>
              <LongitudeDegrees>-1.82124732993543148040771484375</LongitudeDegrees>
            </Position>
            <AltitudeMeters>208.1999969482421875</AltitudeMeters>
            <DistanceMeters>NAN</DistanceMeters>
          </Trackpoint>
          <Trackpoint>
            <Time>2022-07-08T17:02:05.000Z</Time>
            <Position>
              <LatitudeDegrees>43.3662552572786808013916015625</LatitudeDegrees>
              <LongitudeDegrees>-1.82125638239085674285888671875</LongitudeDegrees>
            </Position>
            <AltitudeMeters>208.399993896484375</AltitudeMeters>
            <DistanceMeters>NAN</DistanceMeters>
          </Trackpoint>
          <Trackpoint>
            <Time>2022-07-08T17:02:07.000Z</Time>
            <Position>
              <LatitudeDegrees>43.36627260781824588775634765625</LatitudeDegrees>
              <LongitudeDegrees>-1.8212633393704891204833984375</LongitudeDegrees>
            </Position>
            <AltitudeMeters>208.8000030517578125</AltitudeMeters>
            <DistanceMeters>NAN</DistanceMeters>
          </Trackpoint>
          <Trackpoint>
            <Time>2022-07-08T17:02:12.000Z</Time>
            <Position>
              <LatitudeDegrees>43.36634586565196514129638671875</LatitudeDegrees>
              <LongitudeDegrees>-1.82125269435346126556396484375</LongitudeDegrees>
            </Position>
            <AltitudeMeters>209.399993896484375</AltitudeMeters>
            <DistanceMeters>NAN</DistanceMeters>
          </Trackpoint>
          <Trackpoint>
            <Time>2022-07-08T17:02:15.000Z</Time>
            <Position>
              <LatitudeDegrees>43.366394899785518646240234375</LatitudeDegrees>
              <LongitudeDegrees>-1.821263171732425689697265625</LongitudeDegrees>
            </Position>
            <AltitudeMeters>209.600006103515625</AltitudeMeters>
            <DistanceMeters>NAN</DistanceMeters>
          </Trackpoint>
          <Trackpoint>
            <Time>2022-07-08T17:02:18.000Z</Time>
            <Position>
              <LatitudeDegrees>43.36648014374077320098876953125</LatitudeDegrees>
              <LongitudeDegrees>-1.82127985171973705291748046875</LongitudeDegrees>
            </Position>
            <AltitudeMeters>210</AltitudeMeters>
            <DistanceMeters>NAN</DistanceMeters>
          </Trackpoint>
          <Trackpoint>
            <Time>2022-07-08T17:02:19.000Z</Time>
            <Position>
              <LatitudeDegrees>43.366511575877666473388671875</LatitudeDegrees>
              <LongitudeDegrees>-1.82129611261188983917236328125</LongitudeDegrees>
            </Position>
            <AltitudeMeters>210</AltitudeMeters>
            <DistanceMeters>NAN</DistanceMeters>
          </Trackpoint>
          <Trackpoint>
            <Time>2022-07-08T17:02:22.000Z</Time>
            <Position>
              <LatitudeDegrees>43.3665741048753261566162109375</LatitudeDegrees>
              <LongitudeDegrees>-1.82132326997816562652587890625</LongitudeDegrees>
            </Position>
            <AltitudeMeters>210.399993896484375</AltitudeMeters>
            <DistanceMeters>NAN</DistanceMeters>
          </Trackpoint>
          <Trackpoint>
            <Time>2022-07-08T17:02:27.000Z</Time>
            <Position>
              <LatitudeDegrees>43.36664266884326934814453125</LatitudeDegrees>
              <LongitudeDegrees>-1.82132125832140445709228515625</LongitudeDegrees>
            </Position>
            <AltitudeMeters>211.1999969482421875</AltitudeMeters>
            <DistanceMeters>NAN</DistanceMeters>
          </Trackpoint>
          <Trackpoint>
            <Time>2022-07-08T17:02:29.000Z</Time>
            <Position>
              <LatitudeDegrees>43.36669757030904293060302734375</LatitudeDegrees>
              <LongitudeDegrees>-1.82134288363158702850341796875</LongitudeDegrees>
            </Position>
            <AltitudeMeters>211.399993896484375</AltitudeMeters>
            <DistanceMeters>NAN</DistanceMeters>
          </Trackpoint>
          <Trackpoint>
            <Time>2022-07-08T17:02:33.000Z</Time>
            <Position>
              <LatitudeDegrees>43.36676261387765407562255859375</LatitudeDegrees>
              <LongitudeDegrees>-1.82131103239953517913818359375</LongitudeDegrees>
            </Position>
            <AltitudeMeters>212</AltitudeMeters>
            <DistanceMeters>NAN</DistanceMeters>
          </Trackpoint>
          <Trackpoint>
            <Time>2022-07-08T17:02:39.000Z</Time>
            <Position>
              <LatitudeDegrees>43.3667682297527790069580078125</LatitudeDegrees>
              <LongitudeDegrees>-1.82119519449770450592041015625</LongitudeDegrees>
            </Position>
            <AltitudeMeters>211.8000030517578125</AltitudeMeters>
            <DistanceMeters>NAN</DistanceMeters>
          </Trackpoint>
          <Trackpoint>
            <Time>2022-07-08T17:02:40.000Z</Time>
            <Position>
              <LatitudeDegrees>43.366767726838588714599609375</LatitudeDegrees>
              <LongitudeDegrees>-1.82117440737783908843994140625</LongitudeDegrees>
            </Position>
            <AltitudeMeters>211.8000030517578125</AltitudeMeters>
            <DistanceMeters>NAN</DistanceMeters>
          </Trackpoint>
          <Trackpoint>
            <Time>2022-07-08T17:02:43.000Z</Time>
            <Position>
              <LatitudeDegrees>43.36679287254810333251953125</LatitudeDegrees>
              <LongitudeDegrees>-1.8211084417998790740966796875</LongitudeDegrees>
            </Position>
            <AltitudeMeters>211.1999969482421875</AltitudeMeters>
            <DistanceMeters>NAN</DistanceMeters>
          </Trackpoint>
          <Trackpoint>
            <Time>2022-07-08T17:02:46.000Z</Time>
            <Position>
              <LatitudeDegrees>43.36679982952773571014404296875</LatitudeDegrees>
              <LongitudeDegrees>-1.82108924724161624908447265625</LongitudeDegrees>
            </Position>
            <AltitudeMeters>211</AltitudeMeters>
            <DistanceMeters>NAN</DistanceMeters>
          </Trackpoint>
          <Trackpoint>
            <Time>2022-07-08T17:02:47.000Z</Time>
            <Position>
              <LatitudeDegrees>43.36679982952773571014404296875</LatitudeDegrees>
              <LongitudeDegrees>-1.82108924724161624908447265625</LongitudeDegrees>
            </Position>
            <AltitudeMeters>211</AltitudeMeters>
            <DistanceMeters>NAN</DistanceMeters>
          </Trackpoint>
          <Trackpoint>
            <Time>2022-07-08T17:03:06.000Z</Time>
            <Position>
              <LatitudeDegrees>43.36683117784559726715087890625</LatitudeDegrees>
              <LongitudeDegrees>-1.8210496008396148681640625</LongitudeDegrees>
            </Position>
            <AltitudeMeters>211</AltitudeMeters>
            <DistanceMeters>NAN</DistanceMeters>
          </Trackpoint>
          <Trackpoint>
            <Time>2022-07-08T17:03:07.000Z</Time>
            <Position>
              <LatitudeDegrees>43.3668470196425914764404296875</LatitudeDegrees>
              <LongitudeDegrees>-1.82102923281490802764892578125</LongitudeDegrees>
            </Position>
            <AltitudeMeters>211</AltitudeMeters>
            <DistanceMeters>NAN</DistanceMeters>
          </Trackpoint>
          <Trackpoint>
            <Time>2022-07-08T17:03:11.000Z</Time>
            <Position>
              <LatitudeDegrees>43.36691197939217090606689453125</LatitudeDegrees>
              <LongitudeDegrees>-1.82095714844763278961181640625</LongitudeDegrees>
            </Position>
            <AltitudeMeters>210.8000030517578125</AltitudeMeters>
            <DistanceMeters>NAN</DistanceMeters>
          </Trackpoint>
          <Trackpoint>
            <Time>2022-07-08T17:03:12.000Z</Time>
            <Position>
              <LatitudeDegrees>43.36692455224692821502685546875</LatitudeDegrees>
              <LongitudeDegrees>-1.820950023829936981201171875</LongitudeDegrees>
            </Position>
            <AltitudeMeters>210.8000030517578125</AltitudeMeters>
            <DistanceMeters>NAN</DistanceMeters>
          </Trackpoint>
          <Trackpoint>
            <Time>2022-07-08T17:03:15.000Z</Time>
            <Position>
              <LatitudeDegrees>43.3669308386743068695068359375</LatitudeDegrees>
              <LongitudeDegrees>-1.82094742543995380401611328125</LongitudeDegrees>
            </Position>
            <AltitudeMeters>210.8000030517578125</AltitudeMeters>
            <DistanceMeters>NAN</DistanceMeters>
          </Trackpoint>
          <Trackpoint>
            <Time>2022-07-08T17:03:38.000Z</Time>
            <Position>
              <LatitudeDegrees>43.3670092932879924774169921875</LatitudeDegrees>
              <LongitudeDegrees>-1.82094926945865154266357421875</LongitudeDegrees>
            </Position>
            <AltitudeMeters>210.1999969482421875</AltitudeMeters>
            <DistanceMeters>NAN</DistanceMeters>
          </Trackpoint>
          <Trackpoint>
            <Time>2022-07-08T17:03:39.000Z</Time>
            <Position>
              <LatitudeDegrees>43.36701725609600543975830078125</LatitudeDegrees>
              <LongitudeDegrees>-1.82095714844763278961181640625</LongitudeDegrees>
            </Position>
            <AltitudeMeters>210.1999969482421875</AltitudeMeters>
            <DistanceMeters>NAN</DistanceMeters>
          </Trackpoint>
          <Trackpoint>
            <Time>2022-07-08T17:03:40.000Z</Time>
            <Position>
              <LatitudeDegrees>43.36702262051403522491455078125</LatitudeDegrees>
              <LongitudeDegrees>-1.8209716491401195526123046875</LongitudeDegrees>
            </Position>
            <AltitudeMeters>210.1999969482421875</AltitudeMeters>
            <DistanceMeters>NAN</DistanceMeters>
          </Trackpoint>
          <Trackpoint>
            <Time>2022-07-08T17:03:42.000Z</Time>
            <Position>
              <LatitudeDegrees>43.36705128662288188934326171875</LatitudeDegrees>
              <LongitudeDegrees>-1.8210266344249248504638671875</LongitudeDegrees>
            </Position>
            <AltitudeMeters>210.1999969482421875</AltitudeMeters>
            <DistanceMeters>NAN</DistanceMeters>
          </Trackpoint>
          <Trackpoint>
            <Time>2022-07-08T17:03:43.000Z</Time>
            <Position>
              <LatitudeDegrees>43.36711012758314609527587890625</LatitudeDegrees>
              <LongitudeDegrees>-1.8209870718419551849365234375</LongitudeDegrees>
            </Position>
            <AltitudeMeters>210.1999969482421875</AltitudeMeters>
            <DistanceMeters>NAN</DistanceMeters>
          </Trackpoint>
          <Trackpoint>
            <Time>2022-07-08T17:03:46.000Z</Time>
            <Position>
              <LatitudeDegrees>43.36707894690334796905517578125</LatitudeDegrees>
              <LongitudeDegrees>-1.82094432413578033447265625</LongitudeDegrees>
            </Position>
            <AltitudeMeters>210.1999969482421875</AltitudeMeters>
            <DistanceMeters>NAN</DistanceMeters>
          </Trackpoint>
          <Trackpoint>
            <Time>2022-07-08T17:03:47.000Z</Time>
            <Position>
              <LatitudeDegrees>43.36706318892538547515869140625</LatitudeDegrees>
              <LongitudeDegrees>-1.8209230341017246246337890625</LongitudeDegrees>
            </Position>
            <AltitudeMeters>210.1999969482421875</AltitudeMeters>
            <DistanceMeters>NAN</DistanceMeters>
          </Trackpoint>
          <Trackpoint>
            <Time>2022-07-08T17:03:49.000Z</Time>
            <Position>
              <LatitudeDegrees>43.36705262772738933563232421875</LatitudeDegrees>
              <LongitudeDegrees>-1.82093753479421138763427734375</LongitudeDegrees>
            </Position>
            <AltitudeMeters>210.1999969482421875</AltitudeMeters>
            <DistanceMeters>NAN</DistanceMeters>
          </Trackpoint>
          <Trackpoint>
            <Time>2022-07-08T17:03:52.000Z</Time>
            <Position>
              <LatitudeDegrees>43.3670250512659549713134765625</LatitudeDegrees>
              <LongitudeDegrees>-1.82095161639153957366943359375</LongitudeDegrees>
            </Position>
            <AltitudeMeters>210</AltitudeMeters>
            <DistanceMeters>NAN</DistanceMeters>
          </Trackpoint>
          <Trackpoint>
            <Time>2022-07-08T17:03:53.000Z</Time>
            <Position>
              <LatitudeDegrees>43.36700342595577239990234375</LatitudeDegrees>
              <LongitudeDegrees>-1.8209750019013881683349609375</LongitudeDegrees>
            </Position>
            <AltitudeMeters>210</AltitudeMeters>
            <DistanceMeters>NAN</DistanceMeters>
          </Trackpoint>
          <Trackpoint>
            <Time>2022-07-08T17:03:54.000Z</Time>
            <Position>
              <LatitudeDegrees>43.3669744245707988739013671875</LatitudeDegrees>
              <LongitudeDegrees>-1.8209917657077312469482421875</LongitudeDegrees>
            </Position>
            <AltitudeMeters>210</AltitudeMeters>
            <DistanceMeters>NAN</DistanceMeters>
          </Trackpoint>
          <Trackpoint>
            <Time>2022-07-08T17:04:02.000Z</Time>
            <Position>
              <LatitudeDegrees>43.366998396813869476318359375</LatitudeDegrees>
              <LongitudeDegrees>-1.8210138939321041107177734375</LongitudeDegrees>
            </Position>
            <AltitudeMeters>210</AltitudeMeters>
            <DistanceMeters>NAN</DistanceMeters>
          </Trackpoint>
          <Trackpoint>
            <Time>2022-07-08T17:04:03.000Z</Time>
            <Position>
              <LatitudeDegrees>43.36701038293540477752685546875</LatitudeDegrees>
              <LongitudeDegrees>-1.8210246227681636810302734375</LongitudeDegrees>
            </Position>
            <AltitudeMeters>209.8000030517578125</AltitudeMeters>
            <DistanceMeters>NAN</DistanceMeters>
          </Trackpoint>
          <Trackpoint>
            <Time>2022-07-08T17:04:06.000Z</Time>
            <Position>
              <LatitudeDegrees>43.36702396161854267120361328125</LatitudeDegrees>
              <LongitudeDegrees>-1.82105362415313720703125</LongitudeDegrees>
            </Position>
            <AltitudeMeters>209.8000030517578125</AltitudeMeters>
            <DistanceMeters>NAN</DistanceMeters>
          </Trackpoint>
          <Trackpoint>
            <Time>2022-07-08T17:04:22.000Z</Time>
            <Position>
              <LatitudeDegrees>43.36708799935877323150634765625</LatitudeDegrees>
              <LongitudeDegrees>-1.820950694382190704345703125</LongitudeDegrees>
            </Position>
            <AltitudeMeters>209.8000030517578125</AltitudeMeters>
            <DistanceMeters>NAN</DistanceMeters>
          </Trackpoint>
          <Trackpoint>
            <Time>2022-07-08T17:04:23.000Z</Time>
            <Position>
              <LatitudeDegrees>43.36708883754909038543701171875</LatitudeDegrees>
              <LongitudeDegrees>-1.820919178426265716552734375</LongitudeDegrees>
            </Position>
            <AltitudeMeters>209.600006103515625</AltitudeMeters>
            <DistanceMeters>NAN</DistanceMeters>
          </Trackpoint>
          <Trackpoint>
            <Time>2022-07-08T17:04:31.000Z</Time>
            <Position>
              <LatitudeDegrees>43.3672047592699527740478515625</LatitudeDegrees>
              <LongitudeDegrees>-1.82076930999755859375</LongitudeDegrees>
            </Position>
            <AltitudeMeters>210</AltitudeMeters>
            <DistanceMeters>NAN</DistanceMeters>
          </Trackpoint>
          <Trackpoint>
            <Time>2022-07-08T17:04:43.000Z</Time>
            <Position>
              <LatitudeDegrees>43.3671018294990062713623046875</LatitudeDegrees>
              <LongitudeDegrees>-1.82055364362895488739013671875</LongitudeDegrees>
            </Position>
            <AltitudeMeters>209.600006103515625</AltitudeMeters>
            <DistanceMeters>NAN</DistanceMeters>
          </Trackpoint>
          <Trackpoint>
            <Time>2022-07-08T17:04:45.000Z</Time>
            <Position>
              <LatitudeDegrees>43.36710794828832149505615234375</LatitudeDegrees>
              <LongitudeDegrees>-1.82059873826801776885986328125</LongitudeDegrees>
            </Position>
            <AltitudeMeters>209.600006103515625</AltitudeMeters>
            <DistanceMeters>NAN</DistanceMeters>
          </Trackpoint>
          <Trackpoint>
            <Time>2022-07-08T17:04:47.000Z</Time>
            <Position>
              <LatitudeDegrees>43.3670518733561038970947265625</LatitudeDegrees>
              <LongitudeDegrees>-1.8207490257918834686279296875</LongitudeDegrees>
            </Position>
            <AltitudeMeters>209.600006103515625</AltitudeMeters>
            <DistanceMeters>NAN</DistanceMeters>
          </Trackpoint>
          <Trackpoint>
            <Time>2022-07-08T17:04:49.000Z</Time>
            <Position>
              <LatitudeDegrees>43.36701155640184879302978515625</LatitudeDegrees>
              <LongitudeDegrees>-1.82079001329839229583740234375</LongitudeDegrees>
            </Position>
            <AltitudeMeters>209.600006103515625</AltitudeMeters>
            <DistanceMeters>NAN</DistanceMeters>
          </Trackpoint>
          <Trackpoint>
            <Time>2022-07-08T17:04:51.000Z</Time>
            <Position>
              <LatitudeDegrees>43.367001749575138092041015625</LatitudeDegrees>
              <LongitudeDegrees>-1.8208083696663379669189453125</LongitudeDegrees>
            </Position>
            <AltitudeMeters>209.600006103515625</AltitudeMeters>
            <DistanceMeters>NAN</DistanceMeters>
          </Trackpoint>
          <Trackpoint>
            <Time>2022-07-08T17:04:55.000Z</Time>
            <Position>
              <LatitudeDegrees>43.36700166575610637664794921875</LatitudeDegrees>
              <LongitudeDegrees>-1.8208083696663379669189453125</LongitudeDegrees>
            </Position>
            <AltitudeMeters>210</AltitudeMeters>
            <DistanceMeters>NAN</DistanceMeters>
          </Trackpoint>
          <Trackpoint>
            <Time>2022-07-08T17:04:56.000Z</Time>
            <Position>
              <LatitudeDegrees>43.36700166575610637664794921875</LatitudeDegrees>
              <LongitudeDegrees>-1.8208083696663379669189453125</LongitudeDegrees>
            </Position>
            <AltitudeMeters>210</AltitudeMeters>
            <DistanceMeters>NAN</DistanceMeters>
          </Trackpoint>
          <Trackpoint>
            <Time>2022-07-08T17:05:12.000Z</Time>
            <Position>
              <LatitudeDegrees>43.36678088642656803131103515625</LatitudeDegrees>
              <LongitudeDegrees>-1.82082504965364933013916015625</LongitudeDegrees>
            </Position>
            <AltitudeMeters>209.8000030517578125</AltitudeMeters>
            <DistanceMeters>NAN</DistanceMeters>
          </Trackpoint>
          <Trackpoint>
            <Time>2022-07-08T17:05:13.000Z</Time>
            <Position>
              <LatitudeDegrees>43.366768397390842437744140625</LatitudeDegrees>
              <LongitudeDegrees>-1.82082203216850757598876953125</LongitudeDegrees>
            </Position>
            <AltitudeMeters>209.8000030517578125</AltitudeMeters>
            <DistanceMeters>NAN</DistanceMeters>
          </Trackpoint>
          <Trackpoint>
            <Time>2022-07-08T17:05:14.000Z</Time>
            <Position>
              <LatitudeDegrees>43.36675490252673625946044921875</LatitudeDegrees>
              <LongitudeDegrees>-1.820819936692714691162109375</LongitudeDegrees>
            </Position>
            <AltitudeMeters>209.8000030517578125</AltitudeMeters>
            <DistanceMeters>NAN</DistanceMeters>
          </Trackpoint>
          <Trackpoint>
            <Time>2022-07-08T17:05:18.000Z</Time>
            <Position>
              <LatitudeDegrees>43.3667461015284061431884765625</LatitudeDegrees>
              <LongitudeDegrees>-1.82081557810306549072265625</LongitudeDegrees>
            </Position>
            <AltitudeMeters>209.8000030517578125</AltitudeMeters>
            <DistanceMeters>NAN</DistanceMeters>
          </Trackpoint>
          <Trackpoint>
            <Time>2022-07-08T17:06:32.000Z</Time>
            <Position>
              <LatitudeDegrees>43.36668851785361766815185546875</LatitudeDegrees>
              <LongitudeDegrees>-1.82090677320957183837890625</LongitudeDegrees>
            </Position>
            <AltitudeMeters>210.1999969482421875</AltitudeMeters>
            <DistanceMeters>NAN</DistanceMeters>
          </Trackpoint>
          <Trackpoint>
            <Time>2022-07-08T17:06:33.000Z</Time>
            <Position>
              <LatitudeDegrees>43.36667141877114772796630859375</LatitudeDegrees>
              <LongitudeDegrees>-1.82092613540589809417724609375</LongitudeDegrees>
            </Position>
            <AltitudeMeters>210.1999969482421875</AltitudeMeters>
            <DistanceMeters>NAN</DistanceMeters>
          </Trackpoint>
          <Trackpoint>
            <Time>2022-07-08T17:06:39.000Z</Time>
            <Position>
              <LatitudeDegrees>43.36661492474377155303955078125</LatitudeDegrees>
              <LongitudeDegrees>-1.82106259278953075408935546875</LongitudeDegrees>
            </Position>
            <AltitudeMeters>210.1999969482421875</AltitudeMeters>
            <DistanceMeters>NAN</DistanceMeters>
          </Trackpoint>
          <Trackpoint>
            <Time>2022-07-08T17:06:45.000Z</Time>
            <Position>
              <LatitudeDegrees>43.36654820479452610015869140625</LatitudeDegrees>
              <LongitudeDegrees>-1.82117071934044361114501953125</LongitudeDegrees>
            </Position>
            <AltitudeMeters>210.399993896484375</AltitudeMeters>
            <DistanceMeters>NAN</DistanceMeters>
          </Trackpoint>
          <Trackpoint>
            <Time>2022-07-08T17:06:48.000Z</Time>
            <Position>
              <LatitudeDegrees>43.366529680788516998291015625</LatitudeDegrees>
              <LongitudeDegrees>-1.82121128775179386138916015625</LongitudeDegrees>
            </Position>
            <AltitudeMeters>210.399993896484375</AltitudeMeters>
            <DistanceMeters>NAN</DistanceMeters>
          </Trackpoint>
          <Trackpoint>
            <Time>2022-07-08T17:06:51.000Z</Time>
            <Position>
              <LatitudeDegrees>43.366524316370487213134765625</LatitudeDegrees>
              <LongitudeDegrees>-1.821224279701709747314453125</LongitudeDegrees>
            </Position>
            <AltitudeMeters>210.399993896484375</AltitudeMeters>
            <DistanceMeters>NAN</DistanceMeters>
          </Trackpoint>
          <Trackpoint>
            <Time>2022-07-08T17:06:53.000Z</Time>
            <Position>
              <LatitudeDegrees>43.366526998579502105712890625</LatitudeDegrees>
              <LongitudeDegrees>-1.82122805155813694000244140625</LongitudeDegrees>
            </Position>
            <AltitudeMeters>210.1999969482421875</AltitudeMeters>
            <DistanceMeters>NAN</DistanceMeters>
          </Trackpoint>
          <Trackpoint>
            <Time>2022-07-08T17:11:49.000Z</Time>
            <Position>
              <LatitudeDegrees>43.366557843983173370361328125</LatitudeDegrees>
              <LongitudeDegrees>-1.82116401381790637969970703125</LongitudeDegrees>
            </Position>
            <AltitudeMeters>209</AltitudeMeters>
            <DistanceMeters>NAN</DistanceMeters>
          </Trackpoint>
          <Trackpoint>
            <Time>2022-07-08T17:11:50.000Z</Time>
            <Position>
              <LatitudeDegrees>43.3665700815618038177490234375</LatitudeDegrees>
              <LongitudeDegrees>-1.8211369402706623077392578125</LongitudeDegrees>
            </Position>
            <AltitudeMeters>209</AltitudeMeters>
            <DistanceMeters>NAN</DistanceMeters>
          </Trackpoint>
          <Trackpoint>
            <Time>2022-07-08T17:11:51.000Z</Time>
            <Position>
              <LatitudeDegrees>43.3665834926068782806396484375</LatitudeDegrees>
              <LongitudeDegrees>-1.8211101181805133819580078125</LongitudeDegrees>
            </Position>
            <AltitudeMeters>209</AltitudeMeters>
            <DistanceMeters>NAN</DistanceMeters>
          </Trackpoint>
          <Trackpoint>
            <Time>2022-07-08T17:11:53.000Z</Time>
            <Position>
              <LatitudeDegrees>43.366608805954456329345703125</LatitudeDegrees>
              <LongitudeDegrees>-1.82107198052108287811279296875</LongitudeDegrees>
            </Position>
            <AltitudeMeters>209</AltitudeMeters>
            <DistanceMeters>NAN</DistanceMeters>
          </Trackpoint>
          <Trackpoint>
            <Time>2022-07-08T17:11:56.000Z</Time>
            <Position>
              <LatitudeDegrees>43.36665079928934574127197265625</LatitudeDegrees>
              <LongitudeDegrees>-1.8210454098880290985107421875</LongitudeDegrees>
            </Position>
            <AltitudeMeters>209</AltitudeMeters>
            <DistanceMeters>NAN</DistanceMeters>
          </Trackpoint>
          <Trackpoint>
            <Time>2022-07-08T17:12:02.000Z</Time>
            <Position>
              <LatitudeDegrees>43.3667628653347492218017578125</LatitudeDegrees>
              <LongitudeDegrees>-1.8209807015955448150634765625</LongitudeDegrees>
            </Position>
            <AltitudeMeters>209</AltitudeMeters>
            <DistanceMeters>NAN</DistanceMeters>
          </Trackpoint>
          <Trackpoint>
            <Time>2022-07-08T17:12:06.000Z</Time>
            <Position>
              <LatitudeDegrees>43.36683302186429500579833984375</LatitudeDegrees>
              <LongitudeDegrees>-1.82098782621324062347412109375</LongitudeDegrees>
            </Position>
            <AltitudeMeters>209</AltitudeMeters>
            <DistanceMeters>NAN</DistanceMeters>
          </Trackpoint>
          <Trackpoint>
            <Time>2022-07-08T17:12:07.000Z</Time>
            <Position>
              <LatitudeDegrees>43.36683847010135650634765625</LatitudeDegrees>
              <LongitudeDegrees>-1.8210013210773468017578125</LongitudeDegrees>
            </Position>
            <AltitudeMeters>209.1999969482421875</AltitudeMeters>
            <DistanceMeters>NAN</DistanceMeters>
          </Trackpoint>
          <Trackpoint>
            <Time>2022-07-08T17:12:09.000Z</Time>
            <Position>
              <LatitudeDegrees>43.3668257296085357666015625</LatitudeDegrees>
              <LongitudeDegrees>-1.82104222476482391357421875</LongitudeDegrees>
            </Position>
            <AltitudeMeters>209.600006103515625</AltitudeMeters>
            <DistanceMeters>NAN</DistanceMeters>
          </Trackpoint>
          <Trackpoint>
            <Time>2022-07-08T17:12:11.000Z</Time>
            <Position>
              <LatitudeDegrees>43.36680628359317779541015625</LatitudeDegrees>
              <LongitudeDegrees>-1.821081452071666717529296875</LongitudeDegrees>
            </Position>
            <AltitudeMeters>209.8000030517578125</AltitudeMeters>
            <DistanceMeters>NAN</DistanceMeters>
          </Trackpoint>
          <Trackpoint>
            <Time>2022-07-08T17:12:13.000Z</Time>
            <Position>
              <LatitudeDegrees>43.36678876541554927825927734375</LatitudeDegrees>
              <LongitudeDegrees>-1.82112059555947780609130859375</LongitudeDegrees>
            </Position>
            <AltitudeMeters>210</AltitudeMeters>
            <DistanceMeters>NAN</DistanceMeters>
          </Trackpoint>
          <Trackpoint>
            <Time>2022-07-08T17:12:18.000Z</Time>
            <Position>
              <LatitudeDegrees>43.3667694032192230224609375</LatitudeDegrees>
              <LongitudeDegrees>-1.82121883146464824676513671875</LongitudeDegrees>
            </Position>
            <AltitudeMeters>210.600006103515625</AltitudeMeters>
            <DistanceMeters>NAN</DistanceMeters>
          </Trackpoint>
          <Trackpoint>
            <Time>2022-07-08T17:12:23.000Z</Time>
            <Position>
              <LatitudeDegrees>43.36674300022423267364501953125</LatitudeDegrees>
              <LongitudeDegrees>-1.82131187058985233306884765625</LongitudeDegrees>
            </Position>
            <AltitudeMeters>211</AltitudeMeters>
            <DistanceMeters>NAN</DistanceMeters>
          </Trackpoint>
          <Trackpoint>
            <Time>2022-07-08T17:12:26.000Z</Time>
            <Position>
              <LatitudeDegrees>43.36672120727598667144775390625</LatitudeDegrees>
              <LongitudeDegrees>-1.82133886031806468963623046875</LongitudeDegrees>
            </Position>
            <AltitudeMeters>211.1999969482421875</AltitudeMeters>
            <DistanceMeters>NAN</DistanceMeters>
          </Trackpoint>
          <Trackpoint>
            <Time>2022-07-08T17:12:28.000Z</Time>
            <Position>
              <LatitudeDegrees>43.36672120727598667144775390625</LatitudeDegrees>
              <LongitudeDegrees>-1.82133886031806468963623046875</LongitudeDegrees>
            </Position>
            <AltitudeMeters>211.1999969482421875</AltitudeMeters>
            <DistanceMeters>NAN</DistanceMeters>
          </Trackpoint>
          <Trackpoint>
            <Time>2022-07-08T17:12:47.000Z</Time>
            <Position>
              <LatitudeDegrees>43.36675104685127735137939453125</LatitudeDegrees>
              <LongitudeDegrees>-1.8213039077818393707275390625</LongitudeDegrees>
            </Position>
            <AltitudeMeters>210.600006103515625</AltitudeMeters>
            <DistanceMeters>NAN</DistanceMeters>
          </Trackpoint>
          <Trackpoint>
            <Time>2022-07-08T17:12:49.000Z</Time>
            <Position>
              <LatitudeDegrees>43.3667779527604579925537109375</LatitudeDegrees>
              <LongitudeDegrees>-1.82131036184728145599365234375</LongitudeDegrees>
            </Position>
            <AltitudeMeters>210.399993896484375</AltitudeMeters>
            <DistanceMeters>NAN</DistanceMeters>
          </Trackpoint>
          <Trackpoint>
            <Time>2022-07-08T17:12:54.000Z</Time>
            <Position>
              <LatitudeDegrees>43.36677233688533306121826171875</LatitudeDegrees>
              <LongitudeDegrees>-1.8213977850973606109619140625</LongitudeDegrees>
            </Position>
            <AltitudeMeters>211</AltitudeMeters>
            <DistanceMeters>NAN</DistanceMeters>
          </Trackpoint>
          <Trackpoint>
            <Time>2022-07-08T17:12:58.000Z</Time>
            <Position>
              <LatitudeDegrees>43.3667330257594585418701171875</LatitudeDegrees>
              <LongitudeDegrees>-1.8214752338826656341552734375</LongitudeDegrees>
            </Position>
            <AltitudeMeters>212</AltitudeMeters>
            <DistanceMeters>NAN</DistanceMeters>
          </Trackpoint>
          <Trackpoint>
            <Time>2022-07-08T17:12:59.000Z</Time>
            <Position>
              <LatitudeDegrees>43.36672606877982616424560546875</LatitudeDegrees>
              <LongitudeDegrees>-1.82150046341121196746826171875</LongitudeDegrees>
            </Position>
            <AltitudeMeters>212.399993896484375</AltitudeMeters>
            <DistanceMeters>NAN</DistanceMeters>
          </Trackpoint>
          <Trackpoint>
            <Time>2022-07-08T17:13:00.000Z</Time>
            <Position>
              <LatitudeDegrees>43.3667209558188915252685546875</LatitudeDegrees>
              <LongitudeDegrees>-1.82152963243424892425537109375</LongitudeDegrees>
            </Position>
            <AltitudeMeters>212.600006103515625</AltitudeMeters>
            <DistanceMeters>NAN</DistanceMeters>
          </Trackpoint>
          <Trackpoint>
            <Time>2022-07-08T17:13:01.000Z</Time>
            <Position>
              <LatitudeDegrees>43.36671634577214717864990234375</LatitudeDegrees>
              <LongitudeDegrees>-1.821555197238922119140625</LongitudeDegrees>
            </Position>
            <AltitudeMeters>212.8000030517578125</AltitudeMeters>
            <DistanceMeters>NAN</DistanceMeters>
          </Trackpoint>
          <Trackpoint>
            <Time>2022-07-08T17:13:05.000Z</Time>
            <Position>
              <LatitudeDegrees>43.3666924573481082916259765625</LatitudeDegrees>
              <LongitudeDegrees>-1.8216343224048614501953125</LongitudeDegrees>
            </Position>
            <AltitudeMeters>213.600006103515625</AltitudeMeters>
            <DistanceMeters>NAN</DistanceMeters>
          </Trackpoint>
          <Trackpoint>
            <Time>2022-07-08T17:13:07.000Z</Time>
            <Position>
              <LatitudeDegrees>43.36668449454009532928466796875</LatitudeDegrees>
              <LongitudeDegrees>-1.821675561368465423583984375</LongitudeDegrees>
            </Position>
            <AltitudeMeters>214</AltitudeMeters>
            <DistanceMeters>NAN</DistanceMeters>
          </Trackpoint>
          <Trackpoint>
            <Time>2022-07-08T17:13:11.000Z</Time>
            <Position>
              <LatitudeDegrees>43.36665809154510498046875</LatitudeDegrees>
              <LongitudeDegrees>-1.82174756191670894622802734375</LongitudeDegrees>
            </Position>
            <AltitudeMeters>214.8000030517578125</AltitudeMeters>
            <DistanceMeters>NAN</DistanceMeters>
          </Trackpoint>
          <Trackpoint>
            <Time>2022-07-08T17:13:15.000Z</Time>
            <Position>
              <LatitudeDegrees>43.366633951663970947265625</LatitudeDegrees>
              <LongitudeDegrees>-1.8218158744275569915771484375</LongitudeDegrees>
            </Position>
            <AltitudeMeters>215.8000030517578125</AltitudeMeters>
            <DistanceMeters>NAN</DistanceMeters>
          </Trackpoint>
          <Trackpoint>
            <Time>2022-07-08T17:13:16.000Z</Time>
            <Position>
              <LatitudeDegrees>43.36662816815078258514404296875</LatitudeDegrees>
              <LongitudeDegrees>-1.82183288969099521636962890625</LongitudeDegrees>
            </Position>
            <AltitudeMeters>216</AltitudeMeters>
            <DistanceMeters>NAN</DistanceMeters>
          </Trackpoint>
          <Trackpoint>
            <Time>2022-07-08T17:13:22.000Z</Time>
            <Position>
              <LatitudeDegrees>43.36658366024494171142578125</LatitudeDegrees>
              <LongitudeDegrees>-1.82193011976778507232666015625</LongitudeDegrees>
            </Position>
            <AltitudeMeters>217</AltitudeMeters>
            <DistanceMeters>NAN</DistanceMeters>
          </Trackpoint>
          <Trackpoint>
            <Time>2022-07-08T17:13:26.000Z</Time>
            <Position>
              <LatitudeDegrees>43.36655373685061931610107421875</LatitudeDegrees>
              <LongitudeDegrees>-1.8219895474612712860107421875</LongitudeDegrees>
            </Position>
            <AltitudeMeters>217.600006103515625</AltitudeMeters>
            <DistanceMeters>NAN</DistanceMeters>
          </Trackpoint>
          <Trackpoint>
            <Time>2022-07-08T17:13:28.000Z</Time>
            <Position>
              <LatitudeDegrees>43.366526998579502105712890625</LatitudeDegrees>
              <LongitudeDegrees>-1.82202600874006748199462890625</LongitudeDegrees>
            </Position>
            <AltitudeMeters>218</AltitudeMeters>
            <DistanceMeters>NAN</DistanceMeters>
          </Trackpoint>
          <Trackpoint>
            <Time>2022-07-08T17:13:29.000Z</Time>
            <Position>
              <LatitudeDegrees>43.36652372963726520538330078125</LatitudeDegrees>
              <LongitudeDegrees>-1.8220411799848079681396484375</LongitudeDegrees>
            </Position>
            <AltitudeMeters>218.1999969482421875</AltitudeMeters>
            <DistanceMeters>NAN</DistanceMeters>
          </Trackpoint>
          <Trackpoint>
            <Time>2022-07-08T17:13:37.000Z</Time>
            <Position>
              <LatitudeDegrees>43.3664751984179019927978515625</LatitudeDegrees>
              <LongitudeDegrees>-1.82218484580516815185546875</LongitudeDegrees>
            </Position>
            <AltitudeMeters>218.600006103515625</AltitudeMeters>
            <DistanceMeters>NAN</DistanceMeters>
          </Trackpoint>
          <Trackpoint>
            <Time>2022-07-08T17:13:39.000Z</Time>
            <Position>
              <LatitudeDegrees>43.366463966667652130126953125</LatitudeDegrees>
              <LongitudeDegrees>-1.822223402559757232666015625</LongitudeDegrees>
            </Position>
            <AltitudeMeters>218.8000030517578125</AltitudeMeters>
            <DistanceMeters>NAN</DistanceMeters>
          </Trackpoint>
          <Trackpoint>
            <Time>2022-07-08T17:13:42.000Z</Time>
            <Position>
              <LatitudeDegrees>43.3664529025554656982421875</LatitudeDegrees>
              <LongitudeDegrees>-1.82228283025324344635009765625</LongitudeDegrees>
            </Position>
            <AltitudeMeters>219.1999969482421875</AltitudeMeters>
            <DistanceMeters>NAN</DistanceMeters>
          </Trackpoint>
          <Trackpoint>
            <Time>2022-07-08T17:13:44.000Z</Time>
            <Position>
              <LatitudeDegrees>43.36645625531673431396484375</LatitudeDegrees>
              <LongitudeDegrees>-1.822315938770771026611328125</LongitudeDegrees>
            </Position>
            <AltitudeMeters>219.399993896484375</AltitudeMeters>
            <DistanceMeters>NAN</DistanceMeters>
          </Trackpoint>
          <Trackpoint>
            <Time>2022-07-08T17:13:47.000Z</Time>
            <Position>
              <LatitudeDegrees>43.3664394915103912353515625</LatitudeDegrees>
              <LongitudeDegrees>-1.82236480526626110076904296875</LongitudeDegrees>
            </Position>
            <AltitudeMeters>220</AltitudeMeters>
            <DistanceMeters>NAN</DistanceMeters>
          </Trackpoint>
          <Trackpoint>
            <Time>2022-07-08T17:13:49.000Z</Time>
            <Position>
              <LatitudeDegrees>43.3664309419691562652587890625</LatitudeDegrees>
              <LongitudeDegrees>-1.82239296846091747283935546875</LongitudeDegrees>
            </Position>
            <AltitudeMeters>220.399993896484375</AltitudeMeters>
            <DistanceMeters>NAN</DistanceMeters>
          </Trackpoint>
          <Trackpoint>
            <Time>2022-07-08T17:13:50.000Z</Time>
            <Position>
              <LatitudeDegrees>43.366430103778839111328125</LatitudeDegrees>
              <LongitudeDegrees>-1.82240721769630908966064453125</LongitudeDegrees>
            </Position>
            <AltitudeMeters>220.399993896484375</AltitudeMeters>
            <DistanceMeters>NAN</DistanceMeters>
          </Trackpoint>
          <Trackpoint>
            <Time>2022-07-08T17:13:53.000Z</Time>
            <Position>
              <LatitudeDegrees>43.3664218895137310028076171875</LatitudeDegrees>
              <LongitudeDegrees>-1.822450719773769378662109375</LongitudeDegrees>
            </Position>
            <AltitudeMeters>221</AltitudeMeters>
            <DistanceMeters>NAN</DistanceMeters>
          </Trackpoint>
          <Trackpoint>
            <Time>2022-07-08T17:13:56.000Z</Time>
            <Position>
              <LatitudeDegrees>43.3664121665060520172119140625</LatitudeDegrees>
              <LongitudeDegrees>-1.822496987879276275634765625</LongitudeDegrees>
            </Position>
            <AltitudeMeters>221.399993896484375</AltitudeMeters>
            <DistanceMeters>NAN</DistanceMeters>
          </Trackpoint>
          <Trackpoint>
            <Time>2022-07-08T17:13:57.000Z</Time>
            <Position>
              <LatitudeDegrees>43.36640822701156139373779296875</LatitudeDegrees>
              <LongitudeDegrees>-1.82251383550465106964111328125</LongitudeDegrees>
            </Position>
            <AltitudeMeters>221.399993896484375</AltitudeMeters>
            <DistanceMeters>NAN</DistanceMeters>
          </Trackpoint>
          <Trackpoint>
            <Time>2022-07-08T17:13:59.000Z</Time>
            <Position>
              <LatitudeDegrees>43.36640001274645328521728515625</LatitudeDegrees>
              <LongitudeDegrees>-1.82254719547927379608154296875</LongitudeDegrees>
            </Position>
            <AltitudeMeters>221.8000030517578125</AltitudeMeters>
            <DistanceMeters>NAN</DistanceMeters>
          </Trackpoint>
          <Trackpoint>
            <Time>2022-07-08T17:14:01.000Z</Time>
            <Position>
              <LatitudeDegrees>43.36638676933944225311279296875</LatitudeDegrees>
              <LongitudeDegrees>-1.822579801082611083984375</LongitudeDegrees>
            </Position>
            <AltitudeMeters>222</AltitudeMeters>
            <DistanceMeters>NAN</DistanceMeters>
          </Trackpoint>
          <Trackpoint>
            <Time>2022-07-08T17:14:03.000Z</Time>
            <Position>
              <LatitudeDegrees>43.3663648925721645355224609375</LatitudeDegrees>
              <LongitudeDegrees>-1.82261425070464611053466796875</LongitudeDegrees>
            </Position>
            <AltitudeMeters>222.1999969482421875</AltitudeMeters>
            <DistanceMeters>NAN</DistanceMeters>
          </Trackpoint>
          <Trackpoint>
            <Time>2022-07-08T17:14:05.000Z</Time>
            <Position>
              <LatitudeDegrees>43.36635030806064605712890625</LatitudeDegrees>
              <LongitudeDegrees>-1.82264610193669795989990234375</LongitudeDegrees>
            </Position>
            <AltitudeMeters>222.399993896484375</AltitudeMeters>
            <DistanceMeters>NAN</DistanceMeters>
          </Trackpoint>
          <Trackpoint>
            <Time>2022-07-08T17:14:06.000Z</Time>
            <Position>
              <LatitudeDegrees>43.366348631680011749267578125</LatitudeDegrees>
              <LongitudeDegrees>-1.82266294956207275390625</LongitudeDegrees>
            </Position>
            <AltitudeMeters>222.8000030517578125</AltitudeMeters>
            <DistanceMeters>NAN</DistanceMeters>
          </Trackpoint>
          <Trackpoint>
            <Time>2022-07-08T17:14:09.000Z</Time>
            <Position>
              <LatitudeDegrees>43.36632943712174892425537109375</LatitudeDegrees>
              <LongitudeDegrees>-1.82271902449429035186767578125</LongitudeDegrees>
            </Position>
            <AltitudeMeters>223</AltitudeMeters>
            <DistanceMeters>NAN</DistanceMeters>
          </Trackpoint>
          <Trackpoint>
            <Time>2022-07-08T17:14:12.000Z</Time>
            <Position>
              <LatitudeDegrees>43.3662928082048892974853515625</LatitudeDegrees>
              <LongitudeDegrees>-1.82279563508927822113037109375</LongitudeDegrees>
            </Position>
            <AltitudeMeters>223.399993896484375</AltitudeMeters>
            <DistanceMeters>NAN</DistanceMeters>
          </Trackpoint>
          <Trackpoint>
            <Time>2022-07-08T17:14:14.000Z</Time>
            <Position>
              <LatitudeDegrees>43.36629473604261875152587890625</LatitudeDegrees>
              <LongitudeDegrees>-1.822849027812480926513671875</LongitudeDegrees>
            </Position>
            <AltitudeMeters>223.600006103515625</AltitudeMeters>
            <DistanceMeters>NAN</DistanceMeters>
          </Trackpoint>
          <Trackpoint>
            <Time>2022-07-08T17:14:15.000Z</Time>
            <Position>
              <LatitudeDegrees>43.36629004217684268951416015625</LatitudeDegrees>
              <LongitudeDegrees>-1.8228679709136486053466796875</LongitudeDegrees>
            </Position>
            <AltitudeMeters>223.600006103515625</AltitudeMeters>
            <DistanceMeters>NAN</DistanceMeters>
          </Trackpoint>
          <Trackpoint>
            <Time>2022-07-08T17:14:17.000Z</Time>
            <Position>
              <LatitudeDegrees>43.366275541484355926513671875</LatitudeDegrees>
              <LongitudeDegrees>-1.8228937871754169464111328125</LongitudeDegrees>
            </Position>
            <AltitudeMeters>223.600006103515625</AltitudeMeters>
            <DistanceMeters>NAN</DistanceMeters>
          </Trackpoint>
          <Trackpoint>
            <Time>2022-07-08T17:14:18.000Z</Time>
            <Position>
              <LatitudeDegrees>43.366306386888027191162109375</LatitudeDegrees>
              <LongitudeDegrees>-1.822944916784763336181640625</LongitudeDegrees>
            </Position>
            <AltitudeMeters>223.8000030517578125</AltitudeMeters>
            <DistanceMeters>NAN</DistanceMeters>
          </Trackpoint>
          <Trackpoint>
            <Time>2022-07-08T17:14:19.000Z</Time>
            <Position>
              <LatitudeDegrees>43.3663028664886951446533203125</LatitudeDegrees>
              <LongitudeDegrees>-1.8229796178638935089111328125</LongitudeDegrees>
            </Position>
            <AltitudeMeters>223.8000030517578125</AltitudeMeters>
            <DistanceMeters>NAN</DistanceMeters>
          </Trackpoint>
          <Trackpoint>
            <Time>2022-07-08T17:14:23.000Z</Time>
            <Position>
              <LatitudeDegrees>43.36626942269504070281982421875</LatitudeDegrees>
              <LongitudeDegrees>-1.82307307608425617218017578125</LongitudeDegrees>
            </Position>
            <AltitudeMeters>224.1999969482421875</AltitudeMeters>
            <DistanceMeters>NAN</DistanceMeters>
          </Trackpoint>
          <Trackpoint>
            <Time>2022-07-08T17:14:25.000Z</Time>
            <Position>
              <LatitudeDegrees>43.36624159477651119232177734375</LatitudeDegrees>
              <LongitudeDegrees>-1.82311481796205043792724609375</LongitudeDegrees>
            </Position>
            <AltitudeMeters>224.1999969482421875</AltitudeMeters>
            <DistanceMeters>NAN</DistanceMeters>
          </Trackpoint>
          <Trackpoint>
            <Time>2022-07-08T17:14:30.000Z</Time>
            <Position>
              <LatitudeDegrees>43.36620588786900043487548828125</LatitudeDegrees>
              <LongitudeDegrees>-1.82324842549860477447509765625</LongitudeDegrees>
            </Position>
            <AltitudeMeters>224.600006103515625</AltitudeMeters>
            <DistanceMeters>NAN</DistanceMeters>
          </Trackpoint>
          <Trackpoint>
            <Time>2022-07-08T17:14:32.000Z</Time>
            <Position>
              <LatitudeDegrees>43.36618694476783275604248046875</LatitudeDegrees>
              <LongitudeDegrees>-1.82330056093633174896240234375</LongitudeDegrees>
            </Position>
            <AltitudeMeters>224.8000030517578125</AltitudeMeters>
            <DistanceMeters>NAN</DistanceMeters>
          </Trackpoint>
          <Trackpoint>
            <Time>2022-07-08T17:14:35.000Z</Time>
            <Position>
              <LatitudeDegrees>43.36614637635648250579833984375</LatitudeDegrees>
              <LongitudeDegrees>-1.82335831224918365478515625</LongitudeDegrees>
            </Position>
            <AltitudeMeters>224.8000030517578125</AltitudeMeters>
            <DistanceMeters>NAN</DistanceMeters>
          </Trackpoint>
          <Trackpoint>
            <Time>2022-07-08T17:14:37.000Z</Time>
            <Position>
              <LatitudeDegrees>43.36612978018820285797119140625</LatitudeDegrees>
              <LongitudeDegrees>-1.823396198451519012451171875</LongitudeDegrees>
            </Position>
            <AltitudeMeters>224.8000030517578125</AltitudeMeters>
            <DistanceMeters>NAN</DistanceMeters>
          </Trackpoint>
          <Trackpoint>
            <Time>2022-07-08T17:14:43.000Z</Time>
            <Position>
              <LatitudeDegrees>43.36606624536216259002685546875</LatitudeDegrees>
              <LongitudeDegrees>-1.8235475756227970123291015625</LongitudeDegrees>
            </Position>
            <AltitudeMeters>225</AltitudeMeters>
            <DistanceMeters>NAN</DistanceMeters>
          </Trackpoint>
          <Trackpoint>
            <Time>2022-07-08T17:14:52.000Z</Time>
            <Position>
              <LatitudeDegrees>43.3659675903618335723876953125</LatitudeDegrees>
              <LongitudeDegrees>-1.8237765692174434661865234375</LongitudeDegrees>
            </Position>
            <AltitudeMeters>225.399993896484375</AltitudeMeters>
            <DistanceMeters>NAN</DistanceMeters>
          </Trackpoint>
          <Trackpoint>
            <Time>2022-07-08T17:14:57.000Z</Time>
            <Position>
              <LatitudeDegrees>43.36590112186968326568603515625</LatitudeDegrees>
              <LongitudeDegrees>-1.823907159268856048583984375</LongitudeDegrees>
            </Position>
            <AltitudeMeters>225.8000030517578125</AltitudeMeters>
            <DistanceMeters>NAN</DistanceMeters>
          </Trackpoint>
          <Trackpoint>
            <Time>2022-07-08T17:14:59.000Z</Time>
            <Position>
              <LatitudeDegrees>43.36588251404464244842529296875</LatitudeDegrees>
              <LongitudeDegrees>-1.8239557743072509765625</LongitudeDegrees>
            </Position>
            <AltitudeMeters>226</AltitudeMeters>
            <DistanceMeters>NAN</DistanceMeters>
          </Trackpoint>
          <Trackpoint>
            <Time>2022-07-08T17:15:01.000Z</Time>
            <Position>
              <LatitudeDegrees>43.3658673427999019622802734375</LatitudeDegrees>
              <LongitudeDegrees>-1.8240015394985675811767578125</LongitudeDegrees>
            </Position>
            <AltitudeMeters>226.1999969482421875</AltitudeMeters>
            <DistanceMeters>NAN</DistanceMeters>
          </Trackpoint>
          <Trackpoint>
            <Time>2022-07-08T17:15:02.000Z</Time>
            <Position>
              <LatitudeDegrees>43.36585946381092071533203125</LatitudeDegrees>
              <LongitudeDegrees>-1.82402458973228931427001953125</LongitudeDegrees>
            </Position>
            <AltitudeMeters>226.399993896484375</AltitudeMeters>
            <DistanceMeters>NAN</DistanceMeters>
          </Trackpoint>
          <Trackpoint>
            <Time>2022-07-08T17:15:04.000Z</Time>
            <Position>
              <LatitudeDegrees>43.365845046937465667724609375</LatitudeDegrees>
              <LongitudeDegrees>-1.8240699358284473419189453125</LongitudeDegrees>
            </Position>
            <AltitudeMeters>226.399993896484375</AltitudeMeters>
            <DistanceMeters>NAN</DistanceMeters>
          </Trackpoint>
          <Trackpoint>
            <Time>2022-07-08T17:15:07.000Z</Time>
            <Position>
              <LatitudeDegrees>43.36581897921860218048095703125</LatitudeDegrees>
              <LongitudeDegrees>-1.8241260945796966552734375</LongitudeDegrees>
            </Position>
            <AltitudeMeters>226.600006103515625</AltitudeMeters>
            <DistanceMeters>NAN</DistanceMeters>
          </Trackpoint>
          <Trackpoint>
            <Time>2022-07-08T17:15:09.000Z</Time>
            <Position>
              <LatitudeDegrees>43.36580657400190830230712890625</LatitudeDegrees>
              <LongitudeDegrees>-1.82416356168687343597412109375</LongitudeDegrees>
            </Position>
            <AltitudeMeters>226.8000030517578125</AltitudeMeters>
            <DistanceMeters>NAN</DistanceMeters>
          </Trackpoint>
          <Trackpoint>
            <Time>2022-07-08T17:15:11.000Z</Time>
            <Position>
              <LatitudeDegrees>43.3657999522984027862548828125</LatitudeDegrees>
              <LongitudeDegrees>-1.82419960387051105499267578125</LongitudeDegrees>
            </Position>
            <AltitudeMeters>227</AltitudeMeters>
            <DistanceMeters>NAN</DistanceMeters>
          </Trackpoint>
          <Trackpoint>
            <Time>2022-07-08T17:15:13.000Z</Time>
            <Position>
              <LatitudeDegrees>43.36578394286334514617919921875</LatitudeDegrees>
              <LongitudeDegrees>-1.82423380203545093536376953125</LongitudeDegrees>
            </Position>
            <AltitudeMeters>227.1999969482421875</AltitudeMeters>
            <DistanceMeters>NAN</DistanceMeters>
          </Trackpoint>
          <Trackpoint>
            <Time>2022-07-08T17:15:15.000Z</Time>
            <Position>
              <LatitudeDegrees>43.36577220819890499114990234375</LatitudeDegrees>
              <LongitudeDegrees>-1.82426892220973968505859375</LongitudeDegrees>
            </Position>
            <AltitudeMeters>227.600006103515625</AltitudeMeters>
            <DistanceMeters>NAN</DistanceMeters>
          </Trackpoint>
          <Trackpoint>
            <Time>2022-07-08T17:15:16.000Z</Time>
            <Position>
              <LatitudeDegrees>43.36576768197119235992431640625</LatitudeDegrees>
              <LongitudeDegrees>-1.8242870271205902099609375</LongitudeDegrees>
            </Position>
            <AltitudeMeters>227.8000030517578125</AltitudeMeters>
            <DistanceMeters>NAN</DistanceMeters>
          </Trackpoint>
          <Trackpoint>
            <Time>2022-07-08T17:15:17.000Z</Time>
            <Position>
              <LatitudeDegrees>43.36575963534414768218994140625</LatitudeDegrees>
              <LongitudeDegrees>-1.82430136017501354217529296875</LongitudeDegrees>
            </Position>
            <AltitudeMeters>228</AltitudeMeters>
            <DistanceMeters>NAN</DistanceMeters>
          </Trackpoint>
          <Trackpoint>
            <Time>2022-07-08T17:15:19.000Z</Time>
            <Position>
              <LatitudeDegrees>43.365749828517436981201171875</LatitudeDegrees>
              <LongitudeDegrees>-1.824316866695880889892578125</LongitudeDegrees>
            </Position>
            <AltitudeMeters>228.399993896484375</AltitudeMeters>
            <DistanceMeters>NAN</DistanceMeters>
          </Trackpoint>
          <Trackpoint>
            <Time>2022-07-08T17:15:20.000Z</Time>
            <Position>
              <LatitudeDegrees>43.3657412789762020111083984375</LatitudeDegrees>
              <LongitudeDegrees>-1.82432684116065502166748046875</LongitudeDegrees>
            </Position>
            <AltitudeMeters>228.600006103515625</AltitudeMeters>
            <DistanceMeters>NAN</DistanceMeters>
          </Trackpoint>
          <Trackpoint>
            <Time>2022-07-08T17:15:22.000Z</Time>
            <Position>
              <LatitudeDegrees>43.36574102751910686492919921875</LatitudeDegrees>
              <LongitudeDegrees>-1.82435768656432628631591796875</LongitudeDegrees>
            </Position>
            <AltitudeMeters>229</AltitudeMeters>
            <DistanceMeters>NAN</DistanceMeters>
          </Trackpoint>
          <Trackpoint>
            <Time>2022-07-08T17:15:23.000Z</Time>
            <Position>
              <LatitudeDegrees>43.365750499069690704345703125</LatitudeDegrees>
              <LongitudeDegrees>-1.824375204741954803466796875</LongitudeDegrees>
            </Position>
            <AltitudeMeters>229.1999969482421875</AltitudeMeters>
            <DistanceMeters>NAN</DistanceMeters>
          </Trackpoint>
          <Trackpoint>
            <Time>2022-07-08T17:15:26.000Z</Time>
            <Position>
              <LatitudeDegrees>43.36575997062027454376220703125</LatitudeDegrees>
              <LongitudeDegrees>-1.8244238197803497314453125</LongitudeDegrees>
            </Position>
            <AltitudeMeters>229.399993896484375</AltitudeMeters>
            <DistanceMeters>NAN</DistanceMeters>
          </Trackpoint>
          <Trackpoint>
            <Time>2022-07-08T17:15:29.000Z</Time>
            <Position>
              <LatitudeDegrees>43.36580104194581508636474609375</LatitudeDegrees>
              <LongitudeDegrees>-1.8244759552180767059326171875</LongitudeDegrees>
            </Position>
            <AltitudeMeters>229.8000030517578125</AltitudeMeters>
            <DistanceMeters>NAN</DistanceMeters>
          </Trackpoint>
          <Trackpoint>
            <Time>2022-07-08T17:15:31.000Z</Time>
            <Position>
              <LatitudeDegrees>43.36581378243863582611083984375</LatitudeDegrees>
              <LongitudeDegrees>-1.82451945729553699493408203125</LongitudeDegrees>
            </Position>
            <AltitudeMeters>230</AltitudeMeters>
            <DistanceMeters>NAN</DistanceMeters>
          </Trackpoint>
          <Trackpoint>
            <Time>2022-07-08T17:15:33.000Z</Time>
            <Position>
              <LatitudeDegrees>43.365819565951824188232421875</LatitudeDegrees>
              <LongitudeDegrees>-1.82456220500171184539794921875</LongitudeDegrees>
            </Position>
            <AltitudeMeters>230.1999969482421875</AltitudeMeters>
            <DistanceMeters>NAN</DistanceMeters>
          </Trackpoint>
          <Trackpoint>
            <Time>2022-07-08T17:15:37.000Z</Time>
            <Position>
              <LatitudeDegrees>43.3658261038362979888916015625</LatitudeDegrees>
              <LongitudeDegrees>-1.8246419169008731842041015625</LongitudeDegrees>
            </Position>
            <AltitudeMeters>231.1999969482421875</AltitudeMeters>
            <DistanceMeters>NAN</DistanceMeters>
          </Trackpoint>
          <Trackpoint>
            <Time>2022-07-08T17:15:38.000Z</Time>
            <Position>
              <LatitudeDegrees>43.3658485673367977142333984375</LatitudeDegrees>
              <LongitudeDegrees>-1.8246653862297534942626953125</LongitudeDegrees>
            </Position>
            <AltitudeMeters>231.399993896484375</AltitudeMeters>
            <DistanceMeters>NAN</DistanceMeters>
          </Trackpoint>
          <Trackpoint>
            <Time>2022-07-08T17:15:41.000Z</Time>
            <Position>
              <LatitudeDegrees>43.3658358268439769744873046875</LatitudeDegrees>
              <LongitudeDegrees>-1.82471282780170440673828125</LongitudeDegrees>
            </Position>
            <AltitudeMeters>232</AltitudeMeters>
            <DistanceMeters>NAN</DistanceMeters>
          </Trackpoint>
          <Trackpoint>
            <Time>2022-07-08T17:15:42.000Z</Time>
            <Position>
              <LatitudeDegrees>43.36583490483462810516357421875</LatitudeDegrees>
              <LongitudeDegrees>-1.82472364045679569244384765625</LongitudeDegrees>
            </Position>
            <AltitudeMeters>232.1999969482421875</AltitudeMeters>
            <DistanceMeters>NAN</DistanceMeters>
          </Trackpoint>
          <Trackpoint>
            <Time>2022-07-08T17:15:43.000Z</Time>
            <Position>
              <LatitudeDegrees>43.3658306300640106201171875</LatitudeDegrees>
              <LongitudeDegrees>-1.824729926884174346923828125</LongitudeDegrees>
            </Position>
            <AltitudeMeters>232.399993896484375</AltitudeMeters>
            <DistanceMeters>NAN</DistanceMeters>
          </Trackpoint>
          <Trackpoint>
            <Time>2022-07-08T17:15:46.000Z</Time>
            <Position>
              <LatitudeDegrees>43.3658250980079174041748046875</LatitudeDegrees>
              <LongitudeDegrees>-1.824773512780666351318359375</LongitudeDegrees>
            </Position>
            <AltitudeMeters>233</AltitudeMeters>
            <DistanceMeters>NAN</DistanceMeters>
          </Trackpoint>
          <Trackpoint>
            <Time>2022-07-08T17:15:47.000Z</Time>
            <Position>
              <LatitudeDegrees>43.36582534946501255035400390625</LatitudeDegrees>
              <LongitudeDegrees>-1.82478147558867931365966796875</LongitudeDegrees>
            </Position>
            <AltitudeMeters>233.399993896484375</AltitudeMeters>
            <DistanceMeters>NAN</DistanceMeters>
          </Trackpoint>
          <Trackpoint>
            <Time>2022-07-08T17:15:48.000Z</Time>
            <Position>
              <LatitudeDegrees>43.36582132615149021148681640625</LatitudeDegrees>
              <LongitudeDegrees>-1.82479421608150005340576171875</LongitudeDegrees>
            </Position>
            <AltitudeMeters>233.600006103515625</AltitudeMeters>
            <DistanceMeters>NAN</DistanceMeters>
          </Trackpoint>
          <Trackpoint>
            <Time>2022-07-08T17:15:51.000Z</Time>
            <Position>
              <LatitudeDegrees>43.36582719348371028900146484375</LatitudeDegrees>
              <LongitudeDegrees>-1.82482137344777584075927734375</LongitudeDegrees>
            </Position>
            <AltitudeMeters>234.399993896484375</AltitudeMeters>
            <DistanceMeters>NAN</DistanceMeters>
          </Trackpoint>
          <Trackpoint>
            <Time>2022-07-08T17:15:52.000Z</Time>
            <Position>
              <LatitudeDegrees>43.36582937277853488922119140625</LatitudeDegrees>
              <LongitudeDegrees>-1.82482405565679073333740234375</LongitudeDegrees>
            </Position>
            <AltitudeMeters>234.399993896484375</AltitudeMeters>
            <DistanceMeters>NAN</DistanceMeters>
          </Trackpoint>
          <Trackpoint>
            <Time>2022-07-08T17:15:54.000Z</Time>
            <Position>
              <LatitudeDegrees>43.36582937277853488922119140625</LatitudeDegrees>
              <LongitudeDegrees>-1.82482405565679073333740234375</LongitudeDegrees>
            </Position>
            <AltitudeMeters>234.600006103515625</AltitudeMeters>
            <DistanceMeters>NAN</DistanceMeters>
          </Trackpoint>
          <Trackpoint>
            <Time>2022-07-08T17:17:59.000Z</Time>
            <Position>
              <LatitudeDegrees>43.36586390621960163116455078125</LatitudeDegrees>
              <LongitudeDegrees>-1.8248786218464374542236328125</LongitudeDegrees>
            </Position>
            <AltitudeMeters>235.1999969482421875</AltitudeMeters>
            <DistanceMeters>NAN</DistanceMeters>
          </Trackpoint>
          <Trackpoint>
            <Time>2022-07-08T17:18:00.000Z</Time>
            <Position>
              <LatitudeDegrees>43.36586390621960163116455078125</LatitudeDegrees>
              <LongitudeDegrees>-1.8248786218464374542236328125</LongitudeDegrees>
            </Position>
            <AltitudeMeters>235.1999969482421875</AltitudeMeters>
            <DistanceMeters>NAN</DistanceMeters>
          </Trackpoint>
          <Trackpoint>
            <Time>2022-07-08T17:18:01.000Z</Time>
            <Position>
              <LatitudeDegrees>43.36586390621960163116455078125</LatitudeDegrees>
              <LongitudeDegrees>-1.8248786218464374542236328125</LongitudeDegrees>
            </Position>
            <AltitudeMeters>235.1999969482421875</AltitudeMeters>
            <DistanceMeters>NAN</DistanceMeters>
          </Trackpoint>
          <Trackpoint>
            <Time>2022-07-08T17:22:54.000Z</Time>
            <Position>
              <LatitudeDegrees>43.3658696897327899932861328125</LatitudeDegrees>
              <LongitudeDegrees>-1.82486915029585361480712890625</LongitudeDegrees>
            </Position>
            <AltitudeMeters>237.600006103515625</AltitudeMeters>
            <DistanceMeters>NAN</DistanceMeters>
          </Trackpoint>
          <Trackpoint>
            <Time>2022-07-08T17:22:55.000Z</Time>
            <Position>
              <LatitudeDegrees>43.36584999226033687591552734375</LatitudeDegrees>
              <LongitudeDegrees>-1.8248569965362548828125</LongitudeDegrees>
            </Position>
            <AltitudeMeters>237.600006103515625</AltitudeMeters>
            <DistanceMeters>NAN</DistanceMeters>
          </Trackpoint>
          <Trackpoint>
            <Time>2022-07-08T17:22:56.000Z</Time>
            <Position>
              <LatitudeDegrees>43.36583456955850124359130859375</LatitudeDegrees>
              <LongitudeDegrees>-1.8248476088047027587890625</LongitudeDegrees>
            </Position>
            <AltitudeMeters>237.399993896484375</AltitudeMeters>
            <DistanceMeters>NAN</DistanceMeters>
          </Trackpoint>
          <Trackpoint>
            <Time>2022-07-08T17:23:00.000Z</Time>
            <Position>
              <LatitudeDegrees>43.3657865412533283233642578125</LatitudeDegrees>
              <LongitudeDegrees>-1.8248001672327518463134765625</LongitudeDegrees>
            </Position>
            <AltitudeMeters>237.600006103515625</AltitudeMeters>
            <DistanceMeters>NAN</DistanceMeters>
          </Trackpoint>
          <Trackpoint>
            <Time>2022-07-08T17:23:01.000Z</Time>
            <Position>
              <LatitudeDegrees>43.365773297846317291259765625</LatitudeDegrees>
              <LongitudeDegrees>-1.824787594377994537353515625</LongitudeDegrees>
            </Position>
            <AltitudeMeters>237.8000030517578125</AltitudeMeters>
            <DistanceMeters>NAN</DistanceMeters>
          </Trackpoint>
          <Trackpoint>
            <Time>2022-07-08T17:23:03.000Z</Time>
            <Position>
              <LatitudeDegrees>43.3657486550509929656982421875</LatitudeDegrees>
              <LongitudeDegrees>-1.82475968264043331146240234375</LongitudeDegrees>
            </Position>
            <AltitudeMeters>237.8000030517578125</AltitudeMeters>
            <DistanceMeters>NAN</DistanceMeters>
          </Trackpoint>
          <Trackpoint>
            <Time>2022-07-08T17:23:07.000Z</Time>
            <Position>
              <LatitudeDegrees>43.3657027222216129302978515625</LatitudeDegrees>
              <LongitudeDegrees>-1.82472196407616138458251953125</LongitudeDegrees>
            </Position>
            <AltitudeMeters>238.600006103515625</AltitudeMeters>
            <DistanceMeters>NAN</DistanceMeters>
          </Trackpoint>
          <Trackpoint>
            <Time>2022-07-08T17:23:08.000Z</Time>
            <Position>
              <LatitudeDegrees>43.365700878202915191650390625</LatitudeDegrees>
              <LongitudeDegrees>-1.8247072957456111907958984375</LongitudeDegrees>
            </Position>
            <AltitudeMeters>238.8000030517578125</AltitudeMeters>
            <DistanceMeters>NAN</DistanceMeters>
          </Trackpoint>
          <Trackpoint>
            <Time>2022-07-08T17:23:10.000Z</Time>
            <Position>
              <LatitudeDegrees>43.365701548755168914794921875</LatitudeDegrees>
              <LongitudeDegrees>-1.82465918362140655517578125</LongitudeDegrees>
            </Position>
            <AltitudeMeters>239</AltitudeMeters>
            <DistanceMeters>NAN</DistanceMeters>
          </Trackpoint>
          <Trackpoint>
            <Time>2022-07-08T17:23:14.000Z</Time>
            <Position>
              <LatitudeDegrees>43.3656755648553371429443359375</LatitudeDegrees>
              <LongitudeDegrees>-1.82460981421172618865966796875</LongitudeDegrees>
            </Position>
            <AltitudeMeters>239.1999969482421875</AltitudeMeters>
            <DistanceMeters>NAN</DistanceMeters>
          </Trackpoint>
          <Trackpoint>
            <Time>2022-07-08T17:23:16.000Z</Time>
            <Position>
              <LatitudeDegrees>43.365653268992900848388671875</LatitudeDegrees>
              <LongitudeDegrees>-1.8245963193476200103759765625</LongitudeDegrees>
            </Position>
            <AltitudeMeters>239.600006103515625</AltitudeMeters>
            <DistanceMeters>NAN</DistanceMeters>
          </Trackpoint>
          <Trackpoint>
            <Time>2022-07-08T17:23:18.000Z</Time>
            <Position>
              <LatitudeDegrees>43.365643210709095001220703125</LatitudeDegrees>
              <LongitudeDegrees>-1.82459053583443164825439453125</LongitudeDegrees>
            </Position>
            <AltitudeMeters>239.8000030517578125</AltitudeMeters>
            <DistanceMeters>NAN</DistanceMeters>
          </Trackpoint>
          <Trackpoint>
            <Time>2022-07-08T17:23:25.000Z</Time>
            <Position>
              <LatitudeDegrees>43.365643210709095001220703125</LatitudeDegrees>
              <LongitudeDegrees>-1.82459053583443164825439453125</LongitudeDegrees>
            </Position>
            <AltitudeMeters>240</AltitudeMeters>
            <DistanceMeters>NAN</DistanceMeters>
          </Trackpoint>
          <Trackpoint>
            <Time>2022-07-08T17:23:37.000Z</Time>
            <Position>
              <LatitudeDegrees>43.3656051568686962127685546875</LatitudeDegrees>
              <LongitudeDegrees>-1.82457528077065944671630859375</LongitudeDegrees>
            </Position>
            <AltitudeMeters>240.399993896484375</AltitudeMeters>
            <DistanceMeters>NAN</DistanceMeters>
          </Trackpoint>
          <Trackpoint>
            <Time>2022-07-08T17:23:38.000Z</Time>
            <Position>
              <LatitudeDegrees>43.3655893988907337188720703125</LatitudeDegrees>
              <LongitudeDegrees>-1.82456924580037593841552734375</LongitudeDegrees>
            </Position>
            <AltitudeMeters>240.399993896484375</AltitudeMeters>
            <DistanceMeters>NAN</DistanceMeters>
          </Trackpoint>
          <Trackpoint>
            <Time>2022-07-08T17:23:40.000Z</Time>
            <Position>
              <LatitudeDegrees>43.365564756095409393310546875</LatitudeDegrees>
              <LongitudeDegrees>-1.82454292662441730499267578125</LongitudeDegrees>
            </Position>
            <AltitudeMeters>240.600006103515625</AltitudeMeters>
            <DistanceMeters>NAN</DistanceMeters>
          </Trackpoint>
          <Trackpoint>
            <Time>2022-07-08T17:23:41.000Z</Time>
            <Position>
              <LatitudeDegrees>43.3655545301735401153564453125</LatitudeDegrees>
              <LongitudeDegrees>-1.8245265819132328033447265625</LongitudeDegrees>
            </Position>
            <AltitudeMeters>240.8000030517578125</AltitudeMeters>
            <DistanceMeters>NAN</DistanceMeters>
          </Trackpoint>
          <Trackpoint>
            <Time>2022-07-08T17:23:44.000Z</Time>
            <Position>
              <LatitudeDegrees>43.3655199967324733734130859375</LatitudeDegrees>
              <LongitudeDegrees>-1.8244920484721660614013671875</LongitudeDegrees>
            </Position>
            <AltitudeMeters>241.399993896484375</AltitudeMeters>
            <DistanceMeters>NAN</DistanceMeters>
          </Trackpoint>
          <Trackpoint>
            <Time>2022-07-08T17:23:47.000Z</Time>
            <Position>
              <LatitudeDegrees>43.3654980361461639404296875</LatitudeDegrees>
              <LongitudeDegrees>-1.8244893662631511688232421875</LongitudeDegrees>
            </Position>
            <AltitudeMeters>242</AltitudeMeters>
            <DistanceMeters>NAN</DistanceMeters>
          </Trackpoint>
          <Trackpoint>
            <Time>2022-07-08T17:23:48.000Z</Time>
            <Position>
              <LatitudeDegrees>43.36549476720392704010009765625</LatitudeDegrees>
              <LongitudeDegrees>-1.82448257692158222198486328125</LongitudeDegrees>
            </Position>
            <AltitudeMeters>242</AltitudeMeters>
            <DistanceMeters>NAN</DistanceMeters>
          </Trackpoint>
          <Trackpoint>
            <Time>2022-07-08T17:23:52.000Z</Time>
            <Position>
              <LatitudeDegrees>43.36545553989708423614501953125</LatitudeDegrees>
              <LongitudeDegrees>-1.8244521506130695343017578125</LongitudeDegrees>
            </Position>
            <AltitudeMeters>242.8000030517578125</AltitudeMeters>
            <DistanceMeters>NAN</DistanceMeters>
          </Trackpoint>
          <Trackpoint>
            <Time>2022-07-08T17:23:55.000Z</Time>
            <Position>
              <LatitudeDegrees>43.36542888544499874114990234375</LatitudeDegrees>
              <LongitudeDegrees>-1.8244363926351070404052734375</LongitudeDegrees>
            </Position>
            <AltitudeMeters>243</AltitudeMeters>
            <DistanceMeters>NAN</DistanceMeters>
          </Trackpoint>
          <Trackpoint>
            <Time>2022-07-08T17:23:56.000Z</Time>
            <Position>
              <LatitudeDegrees>43.36542117409408092498779296875</LatitudeDegrees>
              <LongitudeDegrees>-1.8244310282170772552490234375</LongitudeDegrees>
            </Position>
            <AltitudeMeters>243</AltitudeMeters>
            <DistanceMeters>NAN</DistanceMeters>
          </Trackpoint>
          <Trackpoint>
            <Time>2022-07-08T17:24:03.000Z</Time>
            <Position>
              <LatitudeDegrees>43.36536820046603679656982421875</LatitudeDegrees>
              <LongitudeDegrees>-1.8244139291346073150634765625</LongitudeDegrees>
            </Position>
            <AltitudeMeters>244</AltitudeMeters>
            <DistanceMeters>NAN</DistanceMeters>
          </Trackpoint>
          <Trackpoint>
            <Time>2022-07-08T17:24:05.000Z</Time>
            <Position>
              <LatitudeDegrees>43.3653463236987590789794921875</LatitudeDegrees>
              <LongitudeDegrees>-1.8244122527539730072021484375</LongitudeDegrees>
            </Position>
            <AltitudeMeters>244.1999969482421875</AltitudeMeters>
            <DistanceMeters>NAN</DistanceMeters>
          </Trackpoint>
          <Trackpoint>
            <Time>2022-07-08T17:24:06.000Z</Time>
            <Position>
              <LatitudeDegrees>43.3653371036052703857421875</LatitudeDegrees>
              <LongitudeDegrees>-1.8244115822017192840576171875</LongitudeDegrees>
            </Position>
            <AltitudeMeters>244.1999969482421875</AltitudeMeters>
            <DistanceMeters>NAN</DistanceMeters>
          </Trackpoint>
          <Trackpoint>
            <Time>2022-07-08T17:24:07.000Z</Time>
            <Position>
              <LatitudeDegrees>43.3653258718550205230712890625</LatitudeDegrees>
              <LongitudeDegrees>-1.824412085115909576416015625</LongitudeDegrees>
            </Position>
            <AltitudeMeters>244.399993896484375</AltitudeMeters>
            <DistanceMeters>NAN</DistanceMeters>
          </Trackpoint>
          <Trackpoint>
            <Time>2022-07-08T17:24:11.000Z</Time>
            <Position>
              <LatitudeDegrees>43.365271054208278656005859375</LatitudeDegrees>
              <LongitudeDegrees>-1.82440747506916522979736328125</LongitudeDegrees>
            </Position>
            <AltitudeMeters>245.1999969482421875</AltitudeMeters>
            <DistanceMeters>NAN</DistanceMeters>
          </Trackpoint>
          <Trackpoint>
            <Time>2022-07-08T17:24:12.000Z</Time>
            <Position>
              <LatitudeDegrees>43.36525789462029933929443359375</LatitudeDegrees>
              <LongitudeDegrees>-1.8244109116494655609130859375</LongitudeDegrees>
            </Position>
            <AltitudeMeters>245.1999969482421875</AltitudeMeters>
            <DistanceMeters>NAN</DistanceMeters>
          </Trackpoint>
          <Trackpoint>
            <Time>2022-07-08T17:24:19.000Z</Time>
            <Position>
              <LatitudeDegrees>43.36520307697355747222900390625</LatitudeDegrees>
              <LongitudeDegrees>-1.82442725636065006256103515625</LongitudeDegrees>
            </Position>
            <AltitudeMeters>246.1999969482421875</AltitudeMeters>
            <DistanceMeters>NAN</DistanceMeters>
          </Trackpoint>
          <Trackpoint>
            <Time>2022-07-08T17:24:20.000Z</Time>
            <Position>
              <LatitudeDegrees>43.36519695818424224853515625</LatitudeDegrees>
              <LongitudeDegrees>-1.8244266696274280548095703125</LongitudeDegrees>
            </Position>
            <AltitudeMeters>246.399993896484375</AltitudeMeters>
            <DistanceMeters>NAN</DistanceMeters>
          </Trackpoint>
          <Trackpoint>
            <Time>2022-07-08T17:24:22.000Z</Time>
            <Position>
              <LatitudeDegrees>43.36516334675252437591552734375</LatitudeDegrees>
              <LongitudeDegrees>-1.82442289777100086212158203125</LongitudeDegrees>
            </Position>
            <AltitudeMeters>246.600006103515625</AltitudeMeters>
            <DistanceMeters>NAN</DistanceMeters>
          </Trackpoint>
          <Trackpoint>
            <Time>2022-07-08T17:24:24.000Z</Time>
            <Position>
              <LatitudeDegrees>43.36511238478124141693115234375</LatitudeDegrees>
              <LongitudeDegrees>-1.82442490942776203155517578125</LongitudeDegrees>
            </Position>
            <AltitudeMeters>246.600006103515625</AltitudeMeters>
            <DistanceMeters>NAN</DistanceMeters>
          </Trackpoint>
          <Trackpoint>
            <Time>2022-07-08T17:24:25.000Z</Time>
            <Position>
              <LatitudeDegrees>43.3650797791779041290283203125</LatitudeDegrees>
              <LongitudeDegrees>-1.82442524470388889312744140625</LongitudeDegrees>
            </Position>
            <AltitudeMeters>246.8000030517578125</AltitudeMeters>
            <DistanceMeters>NAN</DistanceMeters>
          </Trackpoint>
          <Trackpoint>
            <Time>2022-07-08T17:24:30.000Z</Time>
            <Position>
              <LatitudeDegrees>43.36503870785236358642578125</LatitudeDegrees>
              <LongitudeDegrees>-1.82442641817033290863037109375</LongitudeDegrees>
            </Position>
            <AltitudeMeters>247</AltitudeMeters>
            <DistanceMeters>NAN</DistanceMeters>
          </Trackpoint>
          <Trackpoint>
            <Time>2022-07-08T17:24:32.000Z</Time>
            <Position>
              <LatitudeDegrees>43.36500492878258228302001953125</LatitudeDegrees>
              <LongitudeDegrees>-1.82442985475063323974609375</LongitudeDegrees>
            </Position>
            <AltitudeMeters>247</AltitudeMeters>
            <DistanceMeters>NAN</DistanceMeters>
          </Trackpoint>
          <Trackpoint>
            <Time>2022-07-08T17:24:33.000Z</Time>
            <Position>
              <LatitudeDegrees>43.3649895898997783660888671875</LatitudeDegrees>
              <LongitudeDegrees>-1.82443882338702678680419921875</LongitudeDegrees>
            </Position>
            <AltitudeMeters>247</AltitudeMeters>
            <DistanceMeters>NAN</DistanceMeters>
          </Trackpoint>
          <Trackpoint>
            <Time>2022-07-08T17:24:36.000Z</Time>
            <Position>
              <LatitudeDegrees>43.36492915637791156768798828125</LatitudeDegrees>
              <LongitudeDegrees>-1.82446816004812717437744140625</LongitudeDegrees>
            </Position>
            <AltitudeMeters>247.1999969482421875</AltitudeMeters>
            <DistanceMeters>NAN</DistanceMeters>
          </Trackpoint>
          <Trackpoint>
            <Time>2022-07-08T17:24:37.000Z</Time>
            <Position>
              <LatitudeDegrees>43.36492010392248630523681640625</LatitudeDegrees>
              <LongitudeDegrees>-1.82446782477200031280517578125</LongitudeDegrees>
            </Position>
            <AltitudeMeters>247.1999969482421875</AltitudeMeters>
            <DistanceMeters>NAN</DistanceMeters>
          </Trackpoint>
          <Trackpoint>
            <Time>2022-07-08T17:24:38.000Z</Time>
            <Position>
              <LatitudeDegrees>43.364899568259716033935546875</LatitudeDegrees>
              <LongitudeDegrees>-1.82446883060038089752197265625</LongitudeDegrees>
            </Position>
            <AltitudeMeters>247.1999969482421875</AltitudeMeters>
            <DistanceMeters>NAN</DistanceMeters>
          </Trackpoint>
          <Trackpoint>
            <Time>2022-07-08T17:24:41.000Z</Time>
            <Position>
              <LatitudeDegrees>43.3648400567471981048583984375</LatitudeDegrees>
              <LongitudeDegrees>-1.82445458136498928070068359375</LongitudeDegrees>
            </Position>
            <AltitudeMeters>247.8000030517578125</AltitudeMeters>
            <DistanceMeters>NAN</DistanceMeters>
          </Trackpoint>
          <Trackpoint>
            <Time>2022-07-08T17:24:42.000Z</Time>
            <Position>
              <LatitudeDegrees>43.36481901817023754119873046875</LatitudeDegrees>
              <LongitudeDegrees>-1.82446262799203395843505859375</LongitudeDegrees>
            </Position>
            <AltitudeMeters>247.8000030517578125</AltitudeMeters>
            <DistanceMeters>NAN</DistanceMeters>
          </Trackpoint>
          <Trackpoint>
            <Time>2022-07-08T17:24:43.000Z</Time>
            <Position>
              <LatitudeDegrees>43.364809043705463409423828125</LatitudeDegrees>
              <LongitudeDegrees>-1.82448039762675762176513671875</LongitudeDegrees>
            </Position>
            <AltitudeMeters>248</AltitudeMeters>
            <DistanceMeters>NAN</DistanceMeters>
          </Trackpoint>
          <Trackpoint>
            <Time>2022-07-08T17:24:46.000Z</Time>
            <Position>
              <LatitudeDegrees>43.36474173702299594879150390625</LatitudeDegrees>
              <LongitudeDegrees>-1.82452113367617130279541015625</LongitudeDegrees>
            </Position>
            <AltitudeMeters>248</AltitudeMeters>
            <DistanceMeters>NAN</DistanceMeters>
          </Trackpoint>
          <Trackpoint>
            <Time>2022-07-08T17:24:47.000Z</Time>
            <Position>
              <LatitudeDegrees>43.36473469622433185577392578125</LatitudeDegrees>
              <LongitudeDegrees>-1.82452951557934284210205078125</LongitudeDegrees>
            </Position>
            <AltitudeMeters>248.1999969482421875</AltitudeMeters>
            <DistanceMeters>NAN</DistanceMeters>
          </Trackpoint>
          <Trackpoint>
            <Time>2022-07-08T17:24:49.000Z</Time>
            <Position>
              <LatitudeDegrees>43.3647022582590579986572265625</LatitudeDegrees>
              <LongitudeDegrees>-1.8245785497128963470458984375</LongitudeDegrees>
            </Position>
            <AltitudeMeters>248.399993896484375</AltitudeMeters>
            <DistanceMeters>NAN</DistanceMeters>
          </Trackpoint>
          <Trackpoint>
            <Time>2022-07-08T17:24:51.000Z</Time>
            <Position>
              <LatitudeDegrees>43.364658169448375701904296875</LatitudeDegrees>
              <LongitudeDegrees>-1.82460696436464786529541015625</LongitudeDegrees>
            </Position>
            <AltitudeMeters>248.600006103515625</AltitudeMeters>
            <DistanceMeters>NAN</DistanceMeters>
          </Trackpoint>
          <Trackpoint>
            <Time>2022-07-08T17:24:53.000Z</Time>
            <Position>
              <LatitudeDegrees>43.3646308444440364837646484375</LatitudeDegrees>
              <LongitudeDegrees>-1.82463495992124080657958984375</LongitudeDegrees>
            </Position>
            <AltitudeMeters>248.600006103515625</AltitudeMeters>
            <DistanceMeters>NAN</DistanceMeters>
          </Trackpoint>
          <Trackpoint>
            <Time>2022-07-08T17:24:57.000Z</Time>
            <Position>
              <LatitudeDegrees>43.36452431045472621917724609375</LatitudeDegrees>
              <LongitudeDegrees>-1.82468994520604610443115234375</LongitudeDegrees>
            </Position>
            <AltitudeMeters>249</AltitudeMeters>
            <DistanceMeters>NAN</DistanceMeters>
          </Trackpoint>
          <Trackpoint>
            <Time>2022-07-08T17:24:58.000Z</Time>
            <Position>
              <LatitudeDegrees>43.36449556052684783935546875</LatitudeDegrees>
              <LongitudeDegrees>-1.824704445898532867431640625</LongitudeDegrees>
            </Position>
            <AltitudeMeters>249</AltitudeMeters>
            <DistanceMeters>NAN</DistanceMeters>
          </Trackpoint>
          <Trackpoint>
            <Time>2022-07-08T17:25:00.000Z</Time>
            <Position>
              <LatitudeDegrees>43.36445323191583156585693359375</LatitudeDegrees>
              <LongitudeDegrees>-1.824709810316562652587890625</LongitudeDegrees>
            </Position>
            <AltitudeMeters>249.1999969482421875</AltitudeMeters>
            <DistanceMeters>NAN</DistanceMeters>
          </Trackpoint>
          <Trackpoint>
            <Time>2022-07-08T17:25:03.000Z</Time>
            <Position>
              <LatitudeDegrees>43.3644075505435466766357421875</LatitudeDegrees>
              <LongitudeDegrees>-1.82471022941172122955322265625</LongitudeDegrees>
            </Position>
            <AltitudeMeters>249.399993896484375</AltitudeMeters>
            <DistanceMeters>NAN</DistanceMeters>
          </Trackpoint>
          <Trackpoint>
            <Time>2022-07-08T17:25:04.000Z</Time>
            <Position>
              <LatitudeDegrees>43.3643907867372035980224609375</LatitudeDegrees>
              <LongitudeDegrees>-1.824705787003040313720703125</LongitudeDegrees>
            </Position>
            <AltitudeMeters>249.600006103515625</AltitudeMeters>
            <DistanceMeters>NAN</DistanceMeters>
          </Trackpoint>
          <Trackpoint>
            <Time>2022-07-08T17:25:05.000Z</Time>
            <Position>
              <LatitudeDegrees>43.3643881045281887054443359375</LatitudeDegrees>
              <LongitudeDegrees>-1.8247161805629730224609375</LongitudeDegrees>
            </Position>
            <AltitudeMeters>249.8000030517578125</AltitudeMeters>
            <DistanceMeters>NAN</DistanceMeters>
          </Trackpoint>
          <Trackpoint>
            <Time>2022-07-08T17:25:07.000Z</Time>
            <Position>
              <LatitudeDegrees>43.36437108926475048065185546875</LatitudeDegrees>
              <LongitudeDegrees>-1.8247465230524539947509765625</LongitudeDegrees>
            </Position>
            <AltitudeMeters>250</AltitudeMeters>
            <DistanceMeters>NAN</DistanceMeters>
          </Trackpoint>
          <Trackpoint>
            <Time>2022-07-08T17:25:08.000Z</Time>
            <Position>
              <LatitudeDegrees>43.36436203680932521820068359375</LatitudeDegrees>
              <LongitudeDegrees>-1.8247468583285808563232421875</LongitudeDegrees>
            </Position>
            <AltitudeMeters>250</AltitudeMeters>
            <DistanceMeters>NAN</DistanceMeters>
          </Trackpoint>
          <Trackpoint>
            <Time>2022-07-08T17:25:10.000Z</Time>
            <Position>
              <LatitudeDegrees>43.36433839984238147735595703125</LatitudeDegrees>
              <LongitudeDegrees>-1.82475264184176921844482421875</LongitudeDegrees>
            </Position>
            <AltitudeMeters>250.399993896484375</AltitudeMeters>
            <DistanceMeters>NAN</DistanceMeters>
          </Trackpoint>
          <Trackpoint>
            <Time>2022-07-08T17:25:11.000Z</Time>
            <Position>
              <LatitudeDegrees>43.3643233962357044219970703125</LatitudeDegrees>
              <LongitudeDegrees>-1.8247656337916851043701171875</LongitudeDegrees>
            </Position>
            <AltitudeMeters>250.399993896484375</AltitudeMeters>
            <DistanceMeters>NAN</DistanceMeters>
          </Trackpoint>
          <Trackpoint>
            <Time>2022-07-08T17:25:13.000Z</Time>
            <Position>
              <LatitudeDegrees>43.3642687462270259857177734375</LatitudeDegrees>
              <LongitudeDegrees>-1.824779212474822998046875</LongitudeDegrees>
            </Position>
            <AltitudeMeters>250.600006103515625</AltitudeMeters>
            <DistanceMeters>NAN</DistanceMeters>
          </Trackpoint>
          <Trackpoint>
            <Time>2022-07-08T17:25:16.000Z</Time>
            <Position>
              <LatitudeDegrees>43.36420613341033458709716796875</LatitudeDegrees>
              <LongitudeDegrees>-1.82477795518934726715087890625</LongitudeDegrees>
            </Position>
            <AltitudeMeters>250.600006103515625</AltitudeMeters>
            <DistanceMeters>NAN</DistanceMeters>
          </Trackpoint>
          <Trackpoint>
            <Time>2022-07-08T17:25:18.000Z</Time>
            <Position>
              <LatitudeDegrees>43.36416556499898433685302734375</LatitudeDegrees>
              <LongitudeDegrees>-1.8247716687619686126708984375</LongitudeDegrees>
            </Position>
            <AltitudeMeters>250.600006103515625</AltitudeMeters>
            <DistanceMeters>NAN</DistanceMeters>
          </Trackpoint>
          <Trackpoint>
            <Time>2022-07-08T17:25:21.000Z</Time>
            <Position>
              <LatitudeDegrees>43.364113010466098785400390625</LatitudeDegrees>
              <LongitudeDegrees>-1.8247699923813343048095703125</LongitudeDegrees>
            </Position>
            <AltitudeMeters>251</AltitudeMeters>
            <DistanceMeters>NAN</DistanceMeters>
          </Trackpoint>
          <Trackpoint>
            <Time>2022-07-08T17:25:22.000Z</Time>
            <Position>
              <LatitudeDegrees>43.364091217517852783203125</LatitudeDegrees>
              <LongitudeDegrees>-1.82476068846881389617919921875</LongitudeDegrees>
            </Position>
            <AltitudeMeters>251</AltitudeMeters>
            <DistanceMeters>NAN</DistanceMeters>
          </Trackpoint>
          <Trackpoint>
            <Time>2022-07-08T17:25:23.000Z</Time>
            <Position>
              <LatitudeDegrees>43.364082835614681243896484375</LatitudeDegrees>
              <LongitudeDegrees>-1.82475431822240352630615234375</LongitudeDegrees>
            </Position>
            <AltitudeMeters>251</AltitudeMeters>
            <DistanceMeters>NAN</DistanceMeters>
          </Trackpoint>
          <Trackpoint>
            <Time>2022-07-08T17:25:26.000Z</Time>
            <Position>
              <LatitudeDegrees>43.36401569657027721405029296875</LatitudeDegrees>
              <LongitudeDegrees>-1.82471693493425846099853515625</LongitudeDegrees>
            </Position>
            <AltitudeMeters>251.1999969482421875</AltitudeMeters>
            <DistanceMeters>NAN</DistanceMeters>
          </Trackpoint>
          <Trackpoint>
            <Time>2022-07-08T17:25:32.000Z</Time>
            <Position>
              <LatitudeDegrees>43.36377446539700031280517578125</LatitudeDegrees>
              <LongitudeDegrees>-1.82458098046481609344482421875</LongitudeDegrees>
            </Position>
            <AltitudeMeters>251</AltitudeMeters>
            <DistanceMeters>NAN</DistanceMeters>
          </Trackpoint>
          <Trackpoint>
            <Time>2022-07-08T17:25:33.000Z</Time>
            <Position>
              <LatitudeDegrees>43.363736830651760101318359375</LatitudeDegrees>
              <LongitudeDegrees>-1.82455667294561862945556640625</LongitudeDegrees>
            </Position>
            <AltitudeMeters>251</AltitudeMeters>
            <DistanceMeters>NAN</DistanceMeters>
          </Trackpoint>
          <Trackpoint>
            <Time>2022-07-08T17:25:39.000Z</Time>
            <Position>
              <LatitudeDegrees>43.363560140132904052734375</LatitudeDegrees>
              <LongitudeDegrees>-1.82449414394795894622802734375</LongitudeDegrees>
            </Position>
            <AltitudeMeters>251.1999969482421875</AltitudeMeters>
            <DistanceMeters>NAN</DistanceMeters>
          </Trackpoint>
          <Trackpoint>
            <Time>2022-07-08T17:25:40.000Z</Time>
            <Position>
              <LatitudeDegrees>43.36353021673858165740966796875</LatitudeDegrees>
              <LongitudeDegrees>-1.82448886334896087646484375</LongitudeDegrees>
            </Position>
            <AltitudeMeters>251.1999969482421875</AltitudeMeters>
            <DistanceMeters>NAN</DistanceMeters>
          </Trackpoint>
          <Trackpoint>
            <Time>2022-07-08T17:25:43.000Z</Time>
            <Position>
              <LatitudeDegrees>43.36342670023441314697265625</LatitudeDegrees>
              <LongitudeDegrees>-1.82446782477200031280517578125</LongitudeDegrees>
            </Position>
            <AltitudeMeters>251.399993896484375</AltitudeMeters>
            <DistanceMeters>NAN</DistanceMeters>
          </Trackpoint>
          <Trackpoint>
            <Time>2022-07-08T17:25:46.000Z</Time>
            <Position>
              <LatitudeDegrees>43.3633361756801605224609375</LatitudeDegrees>
              <LongitudeDegrees>-1.82450001128017902374267578125</LongitudeDegrees>
            </Position>
            <AltitudeMeters>251.399993896484375</AltitudeMeters>
            <DistanceMeters>NAN</DistanceMeters>
          </Trackpoint>
          <Trackpoint>
            <Time>2022-07-08T17:25:50.000Z</Time>
            <Position>
              <LatitudeDegrees>43.3632619120180606842041015625</LatitudeDegrees>
              <LongitudeDegrees>-1.82455851696431636810302734375</LongitudeDegrees>
            </Position>
            <AltitudeMeters>251.600006103515625</AltitudeMeters>
            <DistanceMeters>NAN</DistanceMeters>
          </Trackpoint>
          <Trackpoint>
            <Time>2022-07-08T17:25:52.000Z</Time>
            <Position>
              <LatitudeDegrees>43.36326266638934612274169921875</LatitudeDegrees>
              <LongitudeDegrees>-1.82462523691356182098388671875</LongitudeDegrees>
            </Position>
            <AltitudeMeters>252</AltitudeMeters>
            <DistanceMeters>NAN</DistanceMeters>
          </Trackpoint>
          <Trackpoint>
            <Time>2022-07-08T17:25:55.000Z</Time>
            <Position>
              <LatitudeDegrees>43.36325512267649173736572265625</LatitudeDegrees>
              <LongitudeDegrees>-1.824704110622406005859375</LongitudeDegrees>
            </Position>
            <AltitudeMeters>252.399993896484375</AltitudeMeters>
            <DistanceMeters>NAN</DistanceMeters>
          </Trackpoint>
          <Trackpoint>
            <Time>2022-07-08T17:25:59.000Z</Time>
            <Position>
              <LatitudeDegrees>43.36323601193726062774658203125</LatitudeDegrees>
              <LongitudeDegrees>-1.8247827328741550445556640625</LongitudeDegrees>
            </Position>
            <AltitudeMeters>252.8000030517578125</AltitudeMeters>
            <DistanceMeters>NAN</DistanceMeters>
          </Trackpoint>
          <Trackpoint>
            <Time>2022-07-08T17:26:04.000Z</Time>
            <Position>
              <LatitudeDegrees>43.363211452960968017578125</LatitudeDegrees>
              <LongitudeDegrees>-1.824848614633083343505859375</LongitudeDegrees>
            </Position>
            <AltitudeMeters>253.399993896484375</AltitudeMeters>
            <DistanceMeters>NAN</DistanceMeters>
          </Trackpoint>
          <Trackpoint>
            <Time>2022-07-08T17:26:05.000Z</Time>
            <Position>
              <LatitudeDegrees>43.363208435475826263427734375</LatitudeDegrees>
              <LongitudeDegrees>-1.8248514644801616668701171875</LongitudeDegrees>
            </Position>
            <AltitudeMeters>253.399993896484375</AltitudeMeters>
            <DistanceMeters>NAN</DistanceMeters>
          </Trackpoint>
          <Trackpoint>
            <Time>2022-07-08T17:26:06.000Z</Time>
            <Position>
              <LatitudeDegrees>43.36320751346647739410400390625</LatitudeDegrees>
              <LongitudeDegrees>-1.82486495934426784515380859375</LongitudeDegrees>
            </Position>
            <AltitudeMeters>253.600006103515625</AltitudeMeters>
            <DistanceMeters>NAN</DistanceMeters>
          </Trackpoint>
          <Trackpoint>
            <Time>2022-07-08T17:26:09.000Z</Time>
            <Position>
              <LatitudeDegrees>43.363185636699199676513671875</LatitudeDegrees>
              <LongitudeDegrees>-1.8249141611158847808837890625</LongitudeDegrees>
            </Position>
            <AltitudeMeters>254</AltitudeMeters>
            <DistanceMeters>NAN</DistanceMeters>
          </Trackpoint>
          <Trackpoint>
            <Time>2022-07-08T17:26:12.000Z</Time>
            <Position>
              <LatitudeDegrees>43.3631723932921886444091796875</LatitudeDegrees>
              <LongitudeDegrees>-1.8249735049903392791748046875</LongitudeDegrees>
            </Position>
            <AltitudeMeters>254.399993896484375</AltitudeMeters>
            <DistanceMeters>NAN</DistanceMeters>
          </Trackpoint>
          <Trackpoint>
            <Time>2022-07-08T17:26:13.000Z</Time>
            <Position>
              <LatitudeDegrees>43.36317063309252262115478515625</LatitudeDegrees>
              <LongitudeDegrees>-1.8249909393489360809326171875</LongitudeDegrees>
            </Position>
            <AltitudeMeters>254.600006103515625</AltitudeMeters>
            <DistanceMeters>NAN</DistanceMeters>
          </Trackpoint>
          <Trackpoint>
            <Time>2022-07-08T17:26:17.000Z</Time>
            <Position>
              <LatitudeDegrees>43.363170884549617767333984375</LatitudeDegrees>
              <LongitudeDegrees>-1.8250368721783161163330078125</LongitudeDegrees>
            </Position>
            <AltitudeMeters>255</AltitudeMeters>
            <DistanceMeters>NAN</DistanceMeters>
          </Trackpoint>
          <Trackpoint>
            <Time>2022-07-08T17:26:18.000Z</Time>
            <Position>
              <LatitudeDegrees>43.3631653524935245513916015625</LatitudeDegrees>
              <LongitudeDegrees>-1.8250501155853271484375</LongitudeDegrees>
            </Position>
            <AltitudeMeters>255</AltitudeMeters>
            <DistanceMeters>NAN</DistanceMeters>
          </Trackpoint>
          <Trackpoint>
            <Time>2022-07-08T17:26:22.000Z</Time>
            <Position>
              <LatitudeDegrees>43.36314951069653034210205078125</LatitudeDegrees>
              <LongitudeDegrees>-1.82510434649884700775146484375</LongitudeDegrees>
            </Position>
            <AltitudeMeters>255.8000030517578125</AltitudeMeters>
            <DistanceMeters>NAN</DistanceMeters>
          </Trackpoint>
          <Trackpoint>
            <Time>2022-07-08T17:26:26.000Z</Time>
            <Position>
              <LatitudeDegrees>43.36314263753592967987060546875</LatitudeDegrees>
              <LongitudeDegrees>-1.82513938285410404205322265625</LongitudeDegrees>
            </Position>
            <AltitudeMeters>256.20001220703125</AltitudeMeters>
            <DistanceMeters>NAN</DistanceMeters>
          </Trackpoint>
          <Trackpoint>
            <Time>2022-07-08T17:26:28.000Z</Time>
            <Position>
              <LatitudeDegrees>43.36313710547983646392822265625</LatitudeDegrees>
              <LongitudeDegrees>-1.825175844132900238037109375</LongitudeDegrees>
            </Position>
            <AltitudeMeters>256.399993896484375</AltitudeMeters>
            <DistanceMeters>NAN</DistanceMeters>
          </Trackpoint>
          <Trackpoint>
            <Time>2022-07-08T17:26:30.000Z</Time>
            <Position>
              <LatitudeDegrees>43.36311564780771732330322265625</LatitudeDegrees>
              <LongitudeDegrees>-1.82520861737430095672607421875</LongitudeDegrees>
            </Position>
            <AltitudeMeters>256.600006103515625</AltitudeMeters>
            <DistanceMeters>NAN</DistanceMeters>
          </Trackpoint>
          <Trackpoint>
            <Time>2022-07-08T17:26:31.000Z</Time>
            <Position>
              <LatitudeDegrees>43.36310173384845256805419921875</LatitudeDegrees>
              <LongitudeDegrees>-1.82521976530551910400390625</LongitudeDegrees>
            </Position>
            <AltitudeMeters>256.79998779296875</AltitudeMeters>
            <DistanceMeters>NAN</DistanceMeters>
          </Trackpoint>
          <Trackpoint>
            <Time>2022-07-08T17:26:32.000Z</Time>
            <Position>
              <LatitudeDegrees>43.36309544742107391357421875</LatitudeDegrees>
              <LongitudeDegrees>-1.82524398900568485260009765625</LongitudeDegrees>
            </Position>
            <AltitudeMeters>257</AltitudeMeters>
            <DistanceMeters>NAN</DistanceMeters>
          </Trackpoint>
          <Trackpoint>
            <Time>2022-07-08T17:26:33.000Z</Time>
            <Position>
              <LatitudeDegrees>43.36308614350855350494384765625</LatitudeDegrees>
              <LongitudeDegrees>-1.82527014054358005523681640625</LongitudeDegrees>
            </Position>
            <AltitudeMeters>257</AltitudeMeters>
            <DistanceMeters>NAN</DistanceMeters>
          </Trackpoint>
          <Trackpoint>
            <Time>2022-07-08T17:26:35.000Z</Time>
            <Position>
              <LatitudeDegrees>43.3630630932748317718505859375</LatitudeDegrees>
              <LongitudeDegrees>-1.82533644139766693115234375</LongitudeDegrees>
            </Position>
            <AltitudeMeters>257.399993896484375</AltitudeMeters>
            <DistanceMeters>NAN</DistanceMeters>
          </Trackpoint>
          <Trackpoint>
            <Time>2022-07-08T17:26:39.000Z</Time>
            <Position>
              <LatitudeDegrees>43.363052196800708770751953125</LatitudeDegrees>
              <LongitudeDegrees>-1.82550081051886081695556640625</LongitudeDegrees>
            </Position>
            <AltitudeMeters>257.79998779296875</AltitudeMeters>
            <DistanceMeters>NAN</DistanceMeters>
          </Trackpoint>
          <Trackpoint>
            <Time>2022-07-08T17:26:40.000Z</Time>
            <Position>
              <LatitudeDegrees>43.363046832382678985595703125</LatitudeDegrees>
              <LongitudeDegrees>-1.82551740668714046478271484375</LongitudeDegrees>
            </Position>
            <AltitudeMeters>258</AltitudeMeters>
            <DistanceMeters>NAN</DistanceMeters>
          </Trackpoint>
          <Trackpoint>
            <Time>2022-07-08T17:26:43.000Z</Time>
            <Position>
              <LatitudeDegrees>43.363008610904216766357421875</LatitudeDegrees>
              <LongitudeDegrees>-1.8255682848393917083740234375</LongitudeDegrees>
            </Position>
            <AltitudeMeters>258.20001220703125</AltitudeMeters>
            <DistanceMeters>NAN</DistanceMeters>
          </Trackpoint>
          <Trackpoint>
            <Time>2022-07-08T17:26:46.000Z</Time>
            <Position>
              <LatitudeDegrees>43.3629910089075565338134765625</LatitudeDegrees>
              <LongitudeDegrees>-1.825623773038387298583984375</LongitudeDegrees>
            </Position>
            <AltitudeMeters>258.600006103515625</AltitudeMeters>
            <DistanceMeters>NAN</DistanceMeters>
          </Trackpoint>
          <Trackpoint>
            <Time>2022-07-08T17:26:48.000Z</Time>
            <Position>
              <LatitudeDegrees>43.36297952570021152496337890625</LatitudeDegrees>
              <LongitudeDegrees>-1.825663335621356964111328125</LongitudeDegrees>
            </Position>
            <AltitudeMeters>259</AltitudeMeters>
            <DistanceMeters>NAN</DistanceMeters>
          </Trackpoint>
          <Trackpoint>
            <Time>2022-07-08T17:26:49.000Z</Time>
            <Position>
              <LatitudeDegrees>43.36297474801540374755859375</LatitudeDegrees>
              <LongitudeDegrees>-1.82567297481000423431396484375</LongitudeDegrees>
            </Position>
            <AltitudeMeters>259</AltitudeMeters>
            <DistanceMeters>NAN</DistanceMeters>
          </Trackpoint>
          <Trackpoint>
            <Time>2022-07-08T17:26:50.000Z</Time>
            <Position>
              <LatitudeDegrees>43.362991176545619964599609375</LatitudeDegrees>
              <LongitudeDegrees>-1.8257013894617557525634765625</LongitudeDegrees>
            </Position>
            <AltitudeMeters>259.20001220703125</AltitudeMeters>
            <DistanceMeters>NAN</DistanceMeters>
          </Trackpoint>
          <Trackpoint>
            <Time>2022-07-08T17:26:52.000Z</Time>
            <Position>
              <LatitudeDegrees>43.36299260146915912628173828125</LatitudeDegrees>
              <LongitudeDegrees>-1.825768612325191497802734375</LongitudeDegrees>
            </Position>
            <AltitudeMeters>259.20001220703125</AltitudeMeters>
            <DistanceMeters>NAN</DistanceMeters>
          </Trackpoint>
          <Trackpoint>
            <Time>2022-07-08T17:26:53.000Z</Time>
            <Position>
              <LatitudeDegrees>43.36297265253961086273193359375</LatitudeDegrees>
              <LongitudeDegrees>-1.82578680105507373809814453125</LongitudeDegrees>
            </Position>
            <AltitudeMeters>259.399993896484375</AltitudeMeters>
            <DistanceMeters>NAN</DistanceMeters>
          </Trackpoint>
          <Trackpoint>
            <Time>2022-07-08T17:26:57.000Z</Time>
            <Position>
              <LatitudeDegrees>43.3629289828240871429443359375</LatitudeDegrees>
              <LongitudeDegrees>-1.825819574296474456787109375</LongitudeDegrees>
            </Position>
            <AltitudeMeters>259.399993896484375</AltitudeMeters>
            <DistanceMeters>NAN</DistanceMeters>
          </Trackpoint>
          <Trackpoint>
            <Time>2022-07-08T17:26:58.000Z</Time>
            <Position>
              <LatitudeDegrees>43.36291951127350330352783203125</LatitudeDegrees>
              <LongitudeDegrees>-1.82583575136959552764892578125</LongitudeDegrees>
            </Position>
            <AltitudeMeters>259.399993896484375</AltitudeMeters>
            <DistanceMeters>NAN</DistanceMeters>
          </Trackpoint>
          <Trackpoint>
            <Time>2022-07-08T17:27:04.000Z</Time>
            <Position>
              <LatitudeDegrees>43.3628139831125736236572265625</LatitudeDegrees>
              <LongitudeDegrees>-1.82582401670515537261962890625</LongitudeDegrees>
            </Position>
            <AltitudeMeters>260</AltitudeMeters>
            <DistanceMeters>NAN</DistanceMeters>
          </Trackpoint>
          <Trackpoint>
            <Time>2022-07-08T17:27:05.000Z</Time>
            <Position>
              <LatitudeDegrees>43.362802751362323760986328125</LatitudeDegrees>
              <LongitudeDegrees>-1.8258298002183437347412109375</LongitudeDegrees>
            </Position>
            <AltitudeMeters>260.20001220703125</AltitudeMeters>
            <DistanceMeters>NAN</DistanceMeters>
          </Trackpoint>
          <Trackpoint>
            <Time>2022-07-08T17:27:11.000Z</Time>
            <Position>
              <LatitudeDegrees>43.36271348409354686737060546875</LatitudeDegrees>
              <LongitudeDegrees>-1.825860477983951568603515625</LongitudeDegrees>
            </Position>
            <AltitudeMeters>260.399993896484375</AltitudeMeters>
            <DistanceMeters>NAN</DistanceMeters>
          </Trackpoint>
          <Trackpoint>
            <Time>2022-07-08T17:27:12.000Z</Time>
            <Position>
              <LatitudeDegrees>43.362701497972011566162109375</LatitudeDegrees>
              <LongitudeDegrees>-1.825874559581279754638671875</LongitudeDegrees>
            </Position>
            <AltitudeMeters>260.399993896484375</AltitudeMeters>
            <DistanceMeters>NAN</DistanceMeters>
          </Trackpoint>
          <Trackpoint>
            <Time>2022-07-08T17:27:16.000Z</Time>
            <Position>
              <LatitudeDegrees>43.36264877580106258392333984375</LatitudeDegrees>
              <LongitudeDegrees>-1.82592040859162807464599609375</LongitudeDegrees>
            </Position>
            <AltitudeMeters>260.399993896484375</AltitudeMeters>
            <DistanceMeters>NAN</DistanceMeters>
          </Trackpoint>
          <Trackpoint>
            <Time>2022-07-08T17:27:18.000Z</Time>
            <Position>
              <LatitudeDegrees>43.36263787932693958282470703125</LatitudeDegrees>
              <LongitudeDegrees>-1.82594438083469867706298828125</LongitudeDegrees>
            </Position>
            <AltitudeMeters>260.600006103515625</AltitudeMeters>
            <DistanceMeters>NAN</DistanceMeters>
          </Trackpoint>
          <Trackpoint>
            <Time>2022-07-08T17:27:21.000Z</Time>
            <Position>
              <LatitudeDegrees>43.362597562372684478759765625</LatitudeDegrees>
              <LongitudeDegrees>-1.8259749747812747955322265625</LongitudeDegrees>
            </Position>
            <AltitudeMeters>260.600006103515625</AltitudeMeters>
            <DistanceMeters>NAN</DistanceMeters>
          </Trackpoint>
          <Trackpoint>
            <Time>2022-07-08T17:27:22.000Z</Time>
            <Position>
              <LatitudeDegrees>43.36259110830724239349365234375</LatitudeDegrees>
              <LongitudeDegrees>-1.82598746381700038909912109375</LongitudeDegrees>
            </Position>
            <AltitudeMeters>260.600006103515625</AltitudeMeters>
            <DistanceMeters>NAN</DistanceMeters>
          </Trackpoint>
          <Trackpoint>
            <Time>2022-07-08T17:27:25.000Z</Time>
            <Position>
              <LatitudeDegrees>43.36258708499372005462646484375</LatitudeDegrees>
              <LongitudeDegrees>-1.82598821818828582763671875</LongitudeDegrees>
            </Position>
            <AltitudeMeters>260.600006103515625</AltitudeMeters>
            <DistanceMeters>NAN</DistanceMeters>
          </Trackpoint>
          <Trackpoint>
            <Time>2022-07-08T17:27:28.000Z</Time>
            <Position>
              <LatitudeDegrees>43.362585492432117462158203125</LatitudeDegrees>
              <LongitudeDegrees>-1.82599601335823535919189453125</LongitudeDegrees>
            </Position>
            <AltitudeMeters>260.600006103515625</AltitudeMeters>
            <DistanceMeters>NAN</DistanceMeters>
          </Trackpoint>
          <Trackpoint>
            <Time>2022-07-08T17:27:41.000Z</Time>
            <Position>
              <LatitudeDegrees>43.36256629787385463714599609375</LatitudeDegrees>
              <LongitudeDegrees>-1.82601034641265869140625</LongitudeDegrees>
            </Position>
            <AltitudeMeters>260.79998779296875</AltitudeMeters>
            <DistanceMeters>NAN</DistanceMeters>
          </Trackpoint>
          <Trackpoint>
            <Time>2022-07-08T17:27:43.000Z</Time>
            <Position>
              <LatitudeDegrees>43.3625635318458080291748046875</LatitudeDegrees>
              <LongitudeDegrees>-1.8260202370584011077880859375</LongitudeDegrees>
            </Position>
            <AltitudeMeters>261</AltitudeMeters>
            <DistanceMeters>NAN</DistanceMeters>
          </Trackpoint>
          <Trackpoint>
            <Time>2022-07-08T17:27:44.000Z</Time>
            <Position>
              <LatitudeDegrees>43.3625608496367931365966796875</LatitudeDegrees>
              <LongitudeDegrees>-1.826024092733860015869140625</LongitudeDegrees>
            </Position>
            <AltitudeMeters>261</AltitudeMeters>
            <DistanceMeters>NAN</DistanceMeters>
          </Trackpoint>
          <Trackpoint>
            <Time>2022-07-08T17:27:45.000Z</Time>
            <Position>
              <LatitudeDegrees>43.362543247640132904052734375</LatitudeDegrees>
              <LongitudeDegrees>-1.826048232614994049072265625</LongitudeDegrees>
            </Position>
            <AltitudeMeters>261</AltitudeMeters>
            <DistanceMeters>NAN</DistanceMeters>
          </Trackpoint>
          <Trackpoint>
            <Time>2022-07-08T17:27:47.000Z</Time>
            <Position>
              <LatitudeDegrees>43.36250863038003444671630859375</LatitudeDegrees>
              <LongitudeDegrees>-1.82609961368143558502197265625</LongitudeDegrees>
            </Position>
            <AltitudeMeters>261.20001220703125</AltitudeMeters>
            <DistanceMeters>NAN</DistanceMeters>
          </Trackpoint>
          <Trackpoint>
            <Time>2022-07-08T17:27:52.000Z</Time>
            <Position>
              <LatitudeDegrees>43.3624193631112575531005859375</LatitudeDegrees>
              <LongitudeDegrees>-1.82623875327408313751220703125</LongitudeDegrees>
            </Position>
            <AltitudeMeters>261.600006103515625</AltitudeMeters>
            <DistanceMeters>NAN</DistanceMeters>
          </Trackpoint>
          <Trackpoint>
            <Time>2022-07-08T17:27:53.000Z</Time>
            <Position>
              <LatitudeDegrees>43.36239681579172611236572265625</LatitudeDegrees>
              <LongitudeDegrees>-1.82625786401331424713134765625</LongitudeDegrees>
            </Position>
            <AltitudeMeters>261.600006103515625</AltitudeMeters>
            <DistanceMeters>NAN</DistanceMeters>
          </Trackpoint>
          <Trackpoint>
            <Time>2022-07-08T17:27:54.000Z</Time>
            <Position>
              <LatitudeDegrees>43.36237284354865550994873046875</LatitudeDegrees>
              <LongitudeDegrees>-1.82626775465905666351318359375</LongitudeDegrees>
            </Position>
            <AltitudeMeters>261.399993896484375</AltitudeMeters>
            <DistanceMeters>NAN</DistanceMeters>
          </Trackpoint>
          <Trackpoint>
            <Time>2022-07-08T17:27:56.000Z</Time>
            <Position>
              <LatitudeDegrees>43.3623238094151020050048828125</LatitudeDegrees>
              <LongitudeDegrees>-1.82629105634987354278564453125</LongitudeDegrees>
            </Position>
            <AltitudeMeters>261.399993896484375</AltitudeMeters>
            <DistanceMeters>NAN</DistanceMeters>
          </Trackpoint>
          <Trackpoint>
            <Time>2022-07-08T17:28:00.000Z</Time>
            <Position>
              <LatitudeDegrees>43.36226689629256725311279296875</LatitudeDegrees>
              <LongitudeDegrees>-1.8263474665582180023193359375</LongitudeDegrees>
            </Position>
            <AltitudeMeters>261.79998779296875</AltitudeMeters>
            <DistanceMeters>NAN</DistanceMeters>
          </Trackpoint>
          <Trackpoint>
            <Time>2022-07-08T17:28:05.000Z</Time>
            <Position>
              <LatitudeDegrees>43.3621819876134395599365234375</LatitudeDegrees>
              <LongitudeDegrees>-1.82637705467641353607177734375</LongitudeDegrees>
            </Position>
            <AltitudeMeters>262</AltitudeMeters>
            <DistanceMeters>NAN</DistanceMeters>
          </Trackpoint>
          <Trackpoint>
            <Time>2022-07-08T17:28:06.000Z</Time>
            <Position>
              <LatitudeDegrees>43.3621565066277980804443359375</LatitudeDegrees>
              <LongitudeDegrees>-1.82636297307908535003662109375</LongitudeDegrees>
            </Position>
            <AltitudeMeters>262</AltitudeMeters>
            <DistanceMeters>NAN</DistanceMeters>
          </Trackpoint>
          <Trackpoint>
            <Time>2022-07-08T17:28:07.000Z</Time>
            <Position>
              <LatitudeDegrees>43.3621333725750446319580078125</LatitudeDegrees>
              <LongitudeDegrees>-1.82634453289210796356201171875</LongitudeDegrees>
            </Position>
            <AltitudeMeters>262.20001220703125</AltitudeMeters>
            <DistanceMeters>NAN</DistanceMeters>
          </Trackpoint>
          <Trackpoint>
            <Time>2022-07-08T17:28:08.000Z</Time>
            <Position>
              <LatitudeDegrees>43.36211501620709896087646484375</LatitudeDegrees>
              <LongitudeDegrees>-1.82632659561932086944580078125</LongitudeDegrees>
            </Position>
            <AltitudeMeters>262.20001220703125</AltitudeMeters>
            <DistanceMeters>NAN</DistanceMeters>
          </Trackpoint>
          <Trackpoint>
            <Time>2022-07-08T17:28:12.000Z</Time>
            <Position>
              <LatitudeDegrees>43.36199842393398284912109375</LatitudeDegrees>
              <LongitudeDegrees>-1.82628703303635120391845703125</LongitudeDegrees>
            </Position>
            <AltitudeMeters>262.20001220703125</AltitudeMeters>
            <DistanceMeters>NAN</DistanceMeters>
          </Trackpoint>
          <Trackpoint>
            <Time>2022-07-08T17:28:18.000Z</Time>
            <Position>
              <LatitudeDegrees>43.3618851006031036376953125</LatitudeDegrees>
              <LongitudeDegrees>-1.82628066278994083404541015625</LongitudeDegrees>
            </Position>
            <AltitudeMeters>262.600006103515625</AltitudeMeters>
            <DistanceMeters>NAN</DistanceMeters>
          </Trackpoint>
          <Trackpoint>
            <Time>2022-07-08T17:28:22.000Z</Time>
            <Position>
              <LatitudeDegrees>43.36180128157138824462890625</LatitudeDegrees>
              <LongitudeDegrees>-1.8263025395572185516357421875</LongitudeDegrees>
            </Position>
            <AltitudeMeters>262.79998779296875</AltitudeMeters>
            <DistanceMeters>NAN</DistanceMeters>
          </Trackpoint>
          <Trackpoint>
            <Time>2022-07-08T17:28:23.000Z</Time>
            <Position>
              <LatitudeDegrees>43.361787535250186920166015625</LatitudeDegrees>
              <LongitudeDegrees>-1.826317794620990753173828125</LongitudeDegrees>
            </Position>
            <AltitudeMeters>262.79998779296875</AltitudeMeters>
            <DistanceMeters>NAN</DistanceMeters>
          </Trackpoint>
          <Trackpoint>
            <Time>2022-07-08T17:28:24.000Z</Time>
            <Position>
              <LatitudeDegrees>43.36177169345319271087646484375</LatitudeDegrees>
              <LongitudeDegrees>-1.8263317085802555084228515625</LongitudeDegrees>
            </Position>
            <AltitudeMeters>263</AltitudeMeters>
            <DistanceMeters>NAN</DistanceMeters>
          </Trackpoint>
          <Trackpoint>
            <Time>2022-07-08T17:28:25.000Z</Time>
            <Position>
              <LatitudeDegrees>43.36174403317272663116455078125</LatitudeDegrees>
              <LongitudeDegrees>-1.82634654454886913299560546875</LongitudeDegrees>
            </Position>
            <AltitudeMeters>263</AltitudeMeters>
            <DistanceMeters>NAN</DistanceMeters>
          </Trackpoint>
          <Trackpoint>
            <Time>2022-07-08T17:28:26.000Z</Time>
            <Position>
              <LatitudeDegrees>43.36172693409025669097900390625</LatitudeDegrees>
              <LongitudeDegrees>-1.82636196725070476531982421875</LongitudeDegrees>
            </Position>
            <AltitudeMeters>263</AltitudeMeters>
            <DistanceMeters>NAN</DistanceMeters>
          </Trackpoint>
          <Trackpoint>
            <Time>2022-07-08T17:28:27.000Z</Time>
            <Position>
              <LatitudeDegrees>43.36171209812164306640625</LatitudeDegrees>
              <LongitudeDegrees>-1.8263737857341766357421875</LongitudeDegrees>
            </Position>
            <AltitudeMeters>263.20001220703125</AltitudeMeters>
            <DistanceMeters>NAN</DistanceMeters>
          </Trackpoint>
          <Trackpoint>
            <Time>2022-07-08T17:28:29.000Z</Time>
            <Position>
              <LatitudeDegrees>43.36168326437473297119140625</LatitudeDegrees>
              <LongitudeDegrees>-1.82639800943434238433837890625</LongitudeDegrees>
            </Position>
            <AltitudeMeters>263.600006103515625</AltitudeMeters>
            <DistanceMeters>NAN</DistanceMeters>
          </Trackpoint>
          <Trackpoint>
            <Time>2022-07-08T17:28:31.000Z</Time>
            <Position>
              <LatitudeDegrees>43.36165669374167919158935546875</LatitudeDegrees>
              <LongitudeDegrees>-1.82640320621430873870849609375</LongitudeDegrees>
            </Position>
            <AltitudeMeters>263.79998779296875</AltitudeMeters>
            <DistanceMeters>NAN</DistanceMeters>
          </Trackpoint>
          <Trackpoint>
            <Time>2022-07-08T17:28:35.000Z</Time>
            <Position>
              <LatitudeDegrees>43.36151160299777984619140625</LatitudeDegrees>
              <LongitudeDegrees>-1.82644343934953212738037109375</LongitudeDegrees>
            </Position>
            <AltitudeMeters>264</AltitudeMeters>
            <DistanceMeters>NAN</DistanceMeters>
          </Trackpoint>
          <Trackpoint>
            <Time>2022-07-08T17:28:36.000Z</Time>
            <Position>
              <LatitudeDegrees>43.36147665046155452728271484375</LatitudeDegrees>
              <LongitudeDegrees>-1.82646556757390499114990234375</LongitudeDegrees>
            </Position>
            <AltitudeMeters>264.20001220703125</AltitudeMeters>
            <DistanceMeters>NAN</DistanceMeters>
          </Trackpoint>
          <Trackpoint>
            <Time>2022-07-08T17:28:41.000Z</Time>
            <Position>
              <LatitudeDegrees>43.36138679645955562591552734375</LatitudeDegrees>
              <LongitudeDegrees>-1.82657830417156219482421875</LongitudeDegrees>
            </Position>
            <AltitudeMeters>264.20001220703125</AltitudeMeters>
            <DistanceMeters>NAN</DistanceMeters>
          </Trackpoint>
          <Trackpoint>
            <Time>2022-07-08T17:28:42.000Z</Time>
            <Position>
              <LatitudeDegrees>43.36139014922082424163818359375</LatitudeDegrees>
              <LongitudeDegrees>-1.82658811099827289581298828125</LongitudeDegrees>
            </Position>
            <AltitudeMeters>264.399993896484375</AltitudeMeters>
            <DistanceMeters>NAN</DistanceMeters>
          </Trackpoint>
          <Trackpoint>
            <Time>2022-07-08T17:28:45.000Z</Time>
            <Position>
              <LatitudeDegrees>43.36136735044419765472412109375</LatitudeDegrees>
              <LongitudeDegrees>-1.82661359198391437530517578125</LongitudeDegrees>
            </Position>
            <AltitudeMeters>264.600006103515625</AltitudeMeters>
            <DistanceMeters>NAN</DistanceMeters>
          </Trackpoint>
          <Trackpoint>
            <Time>2022-07-08T17:28:50.000Z</Time>
            <Position>
              <LatitudeDegrees>43.3612184040248394012451171875</LatitudeDegrees>
              <LongitudeDegrees>-1.82670864276587963104248046875</LongitudeDegrees>
            </Position>
            <AltitudeMeters>265</AltitudeMeters>
            <DistanceMeters>NAN</DistanceMeters>
          </Trackpoint>
          <Trackpoint>
            <Time>2022-07-08T17:28:51.000Z</Time>
            <Position>
              <LatitudeDegrees>43.3611560426652431488037109375</LatitudeDegrees>
              <LongitudeDegrees>-1.8267219699919223785400390625</LongitudeDegrees>
            </Position>
            <AltitudeMeters>265.20001220703125</AltitudeMeters>
            <DistanceMeters>NAN</DistanceMeters>
          </Trackpoint>
          <Trackpoint>
            <Time>2022-07-08T17:28:53.000Z</Time>
            <Position>
              <LatitudeDegrees>43.3610911667346954345703125</LatitudeDegrees>
              <LongitudeDegrees>-1.826796568930149078369140625</LongitudeDegrees>
            </Position>
            <AltitudeMeters>265.600006103515625</AltitudeMeters>
            <DistanceMeters>NAN</DistanceMeters>
          </Trackpoint>
          <Trackpoint>
            <Time>2022-07-08T17:28:55.000Z</Time>
            <Position>
              <LatitudeDegrees>43.36107867769896984100341796875</LatitudeDegrees>
              <LongitudeDegrees>-1.82688315398991107940673828125</LongitudeDegrees>
            </Position>
            <AltitudeMeters>265.79998779296875</AltitudeMeters>
            <DistanceMeters>NAN</DistanceMeters>
          </Trackpoint>
          <Trackpoint>
            <Time>2022-07-08T17:28:57.000Z</Time>
            <Position>
              <LatitudeDegrees>43.36105705238878726959228515625</LatitudeDegrees>
              <LongitudeDegrees>-1.82694098912179470062255859375</LongitudeDegrees>
            </Position>
            <AltitudeMeters>265.79998779296875</AltitudeMeters>
            <DistanceMeters>NAN</DistanceMeters>
          </Trackpoint>
          <Trackpoint>
            <Time>2022-07-08T17:28:59.000Z</Time>
            <Position>
              <LatitudeDegrees>43.36105428636074066162109375</LatitudeDegrees>
              <LongitudeDegrees>-1.82700653560459613800048828125</LongitudeDegrees>
            </Position>
            <AltitudeMeters>266.20001220703125</AltitudeMeters>
            <DistanceMeters>NAN</DistanceMeters>
          </Trackpoint>
          <Trackpoint>
            <Time>2022-07-08T17:29:00.000Z</Time>
            <Position>
              <LatitudeDegrees>43.361027799546718597412109375</LatitudeDegrees>
              <LongitudeDegrees>-1.82702749036252498626708984375</LongitudeDegrees>
            </Position>
            <AltitudeMeters>266.399993896484375</AltitudeMeters>
            <DistanceMeters>NAN</DistanceMeters>
          </Trackpoint>
          <Trackpoint>
            <Time>2022-07-08T17:29:01.000Z</Time>
            <Position>
              <LatitudeDegrees>43.36103794164955615997314453125</LatitudeDegrees>
              <LongitudeDegrees>-1.82708398438990116119384765625</LongitudeDegrees>
            </Position>
            <AltitudeMeters>266.399993896484375</AltitudeMeters>
            <DistanceMeters>NAN</DistanceMeters>
          </Trackpoint>
          <Trackpoint>
            <Time>2022-07-08T17:29:03.000Z</Time>
            <Position>
              <LatitudeDegrees>43.3609879016876220703125</LatitudeDegrees>
              <LongitudeDegrees>-1.8271940387785434722900390625</LongitudeDegrees>
            </Position>
            <AltitudeMeters>266.600006103515625</AltitudeMeters>
            <DistanceMeters>NAN</DistanceMeters>
          </Trackpoint>
          <Trackpoint>
            <Time>2022-07-08T17:29:08.000Z</Time>
            <Position>
              <LatitudeDegrees>43.360926210880279541015625</LatitudeDegrees>
              <LongitudeDegrees>-1.82733602821826934814453125</LongitudeDegrees>
            </Position>
            <AltitudeMeters>267.20001220703125</AltitudeMeters>
            <DistanceMeters>NAN</DistanceMeters>
          </Trackpoint>
          <Trackpoint>
            <Time>2022-07-08T17:29:09.000Z</Time>
            <Position>
              <LatitudeDegrees>43.36089695803821086883544921875</LatitudeDegrees>
              <LongitudeDegrees>-1.82733594439923763275146484375</LongitudeDegrees>
            </Position>
            <AltitudeMeters>267.20001220703125</AltitudeMeters>
            <DistanceMeters>NAN</DistanceMeters>
          </Trackpoint>
          <Trackpoint>
            <Time>2022-07-08T17:29:12.000Z</Time>
            <Position>
              <LatitudeDegrees>43.360835015773773193359375</LatitudeDegrees>
              <LongitudeDegrees>-1.82737031020224094390869140625</LongitudeDegrees>
            </Position>
            <AltitudeMeters>267.399993896484375</AltitudeMeters>
            <DistanceMeters>NAN</DistanceMeters>
          </Trackpoint>
          <Trackpoint>
            <Time>2022-07-08T17:29:14.000Z</Time>
            <Position>
              <LatitudeDegrees>43.36081665940582752227783203125</LatitudeDegrees>
              <LongitudeDegrees>-1.82744801044464111328125</LongitudeDegrees>
            </Position>
            <AltitudeMeters>267.600006103515625</AltitudeMeters>
            <DistanceMeters>NAN</DistanceMeters>
          </Trackpoint>
          <Trackpoint>
            <Time>2022-07-08T17:29:16.000Z</Time>
            <Position>
              <LatitudeDegrees>43.360807187855243682861328125</LatitudeDegrees>
              <LongitudeDegrees>-1.82750207372009754180908203125</LongitudeDegrees>
            </Position>
            <AltitudeMeters>268</AltitudeMeters>
            <DistanceMeters>NAN</DistanceMeters>
          </Trackpoint>
          <Trackpoint>
            <Time>2022-07-08T17:29:19.000Z</Time>
            <Position>
              <LatitudeDegrees>43.36080308072268962860107421875</LatitudeDegrees>
              <LongitudeDegrees>-1.827544234693050384521484375</LongitudeDegrees>
            </Position>
            <AltitudeMeters>268.399993896484375</AltitudeMeters>
            <DistanceMeters>NAN</DistanceMeters>
          </Trackpoint>
          <Trackpoint>
            <Time>2022-07-08T17:29:21.000Z</Time>
            <Position>
              <LatitudeDegrees>43.36077441461384296417236328125</LatitudeDegrees>
              <LongitudeDegrees>-1.8275765888392925262451171875</LongitudeDegrees>
            </Position>
            <AltitudeMeters>268.600006103515625</AltitudeMeters>
            <DistanceMeters>NAN</DistanceMeters>
          </Trackpoint>
          <Trackpoint>
            <Time>2022-07-08T17:29:24.000Z</Time>
            <Position>
              <LatitudeDegrees>43.36074055172502994537353515625</LatitudeDegrees>
              <LongitudeDegrees>-1.82764272205531597137451171875</LongitudeDegrees>
            </Position>
            <AltitudeMeters>268.79998779296875</AltitudeMeters>
            <DistanceMeters>NAN</DistanceMeters>
          </Trackpoint>
          <Trackpoint>
            <Time>2022-07-08T17:29:26.000Z</Time>
            <Position>
              <LatitudeDegrees>43.360699228942394256591796875</LatitudeDegrees>
              <LongitudeDegrees>-1.82767658494412899017333984375</LongitudeDegrees>
            </Position>
            <AltitudeMeters>269</AltitudeMeters>
            <DistanceMeters>NAN</DistanceMeters>
          </Trackpoint>
          <Trackpoint>
            <Time>2022-07-08T17:29:31.000Z</Time>
            <Position>
              <LatitudeDegrees>43.360585905611515045166015625</LatitudeDegrees>
              <LongitudeDegrees>-1.82774615474045276641845703125</LongitudeDegrees>
            </Position>
            <AltitudeMeters>269</AltitudeMeters>
            <DistanceMeters>NAN</DistanceMeters>
          </Trackpoint>
          <Trackpoint>
            <Time>2022-07-08T17:29:37.000Z</Time>
            <Position>
              <LatitudeDegrees>43.36045322008430957794189453125</LatitudeDegrees>
              <LongitudeDegrees>-1.82781614363193511962890625</LongitudeDegrees>
            </Position>
            <AltitudeMeters>269.600006103515625</AltitudeMeters>
            <DistanceMeters>NAN</DistanceMeters>
          </Trackpoint>
          <Trackpoint>
            <Time>2022-07-08T17:29:44.000Z</Time>
            <Position>
              <LatitudeDegrees>43.36032078601419925689697265625</LatitudeDegrees>
              <LongitudeDegrees>-1.82791044004261493682861328125</LongitudeDegrees>
            </Position>
            <AltitudeMeters>270.20001220703125</AltitudeMeters>
            <DistanceMeters>NAN</DistanceMeters>
          </Trackpoint>
          <Trackpoint>
            <Time>2022-07-08T17:29:52.000Z</Time>
            <Position>
              <LatitudeDegrees>43.36014862172305583953857421875</LatitudeDegrees>
              <LongitudeDegrees>-1.8279966898262500762939453125</LongitudeDegrees>
            </Position>
            <AltitudeMeters>270.600006103515625</AltitudeMeters>
            <DistanceMeters>NAN</DistanceMeters>
          </Trackpoint>
          <Trackpoint>
            <Time>2022-07-08T17:29:53.000Z</Time>
            <Position>
              <LatitudeDegrees>43.36012984625995159149169921875</LatitudeDegrees>
              <LongitudeDegrees>-1.82800297625362873077392578125</LongitudeDegrees>
            </Position>
            <AltitudeMeters>270.600006103515625</AltitudeMeters>
            <DistanceMeters>NAN</DistanceMeters>
          </Trackpoint>
          <Trackpoint>
            <Time>2022-07-08T17:29:57.000Z</Time>
            <Position>
              <LatitudeDegrees>43.36004937998950481414794921875</LatitudeDegrees>
              <LongitudeDegrees>-1.82806282304227352142333984375</LongitudeDegrees>
            </Position>
            <AltitudeMeters>270.79998779296875</AltitudeMeters>
            <DistanceMeters>NAN</DistanceMeters>
          </Trackpoint>
          <Trackpoint>
            <Time>2022-07-08T17:30:01.000Z</Time>
            <Position>
              <LatitudeDegrees>43.35998450405895709991455078125</LatitudeDegrees>
              <LongitudeDegrees>-1.8281609751284122467041015625</LongitudeDegrees>
            </Position>
            <AltitudeMeters>270.79998779296875</AltitudeMeters>
            <DistanceMeters>NAN</DistanceMeters>
          </Trackpoint>
          <Trackpoint>
            <Time>2022-07-08T17:30:04.000Z</Time>
            <Position>
              <LatitudeDegrees>43.35992683656513690948486328125</LatitudeDegrees>
              <LongitudeDegrees>-1.8282092548906803131103515625</LongitudeDegrees>
            </Position>
            <AltitudeMeters>271</AltitudeMeters>
            <DistanceMeters>NAN</DistanceMeters>
          </Trackpoint>
          <Trackpoint>
            <Time>2022-07-08T17:30:10.000Z</Time>
            <Position>
              <LatitudeDegrees>43.359746038913726806640625</LatitudeDegrees>
              <LongitudeDegrees>-1.82827320881187915802001953125</LongitudeDegrees>
            </Position>
            <AltitudeMeters>271.20001220703125</AltitudeMeters>
            <DistanceMeters>NAN</DistanceMeters>
          </Trackpoint>
          <Trackpoint>
            <Time>2022-07-08T17:30:13.000Z</Time>
            <Position>
              <LatitudeDegrees>43.35968543775379657745361328125</LatitudeDegrees>
              <LongitudeDegrees>-1.82838720269501209259033203125</LongitudeDegrees>
            </Position>
            <AltitudeMeters>271.20001220703125</AltitudeMeters>
            <DistanceMeters>NAN</DistanceMeters>
          </Trackpoint>
          <Trackpoint>
            <Time>2022-07-08T17:30:14.000Z</Time>
            <Position>
              <LatitudeDegrees>43.35965492762625217437744140625</LatitudeDegrees>
              <LongitudeDegrees>-1.82842726819217205047607421875</LongitudeDegrees>
            </Position>
            <AltitudeMeters>271.399993896484375</AltitudeMeters>
            <DistanceMeters>NAN</DistanceMeters>
          </Trackpoint>
          <Trackpoint>
            <Time>2022-07-08T17:30:19.000Z</Time>
            <Position>
              <LatitudeDegrees>43.35956222377717494964599609375</LatitudeDegrees>
              <LongitudeDegrees>-1.828605718910694122314453125</LongitudeDegrees>
            </Position>
            <AltitudeMeters>271.600006103515625</AltitudeMeters>
            <DistanceMeters>NAN</DistanceMeters>
          </Trackpoint>
          <Trackpoint>
            <Time>2022-07-08T17:30:20.000Z</Time>
            <Position>
              <LatitudeDegrees>43.35955887101590633392333984375</LatitudeDegrees>
              <LongitudeDegrees>-1.82865274138748645782470703125</LongitudeDegrees>
            </Position>
            <AltitudeMeters>271.79998779296875</AltitudeMeters>
            <DistanceMeters>NAN</DistanceMeters>
          </Trackpoint>
          <Trackpoint>
            <Time>2022-07-08T17:30:26.000Z</Time>
            <Position>
              <LatitudeDegrees>43.35951746441423892974853515625</LatitudeDegrees>
              <LongitudeDegrees>-1.8289458565413951873779296875</LongitudeDegrees>
            </Position>
            <AltitudeMeters>272.20001220703125</AltitudeMeters>
            <DistanceMeters>NAN</DistanceMeters>
          </Trackpoint>
          <Trackpoint>
            <Time>2022-07-08T17:30:31.000Z</Time>
            <Position>
              <LatitudeDegrees>43.3594424463808536529541015625</LatitudeDegrees>
              <LongitudeDegrees>-1.82909027673304080963134765625</LongitudeDegrees>
            </Position>
            <AltitudeMeters>272.79998779296875</AltitudeMeters>
            <DistanceMeters>NAN</DistanceMeters>
          </Trackpoint>
          <Trackpoint>
            <Time>2022-07-08T17:30:32.000Z</Time>
            <Position>
              <LatitudeDegrees>43.35943733341991901397705078125</LatitudeDegrees>
              <LongitudeDegrees>-1.82911701500415802001953125</LongitudeDegrees>
            </Position>
            <AltitudeMeters>272.79998779296875</AltitudeMeters>
            <DistanceMeters>NAN</DistanceMeters>
          </Trackpoint>
          <Trackpoint>
            <Time>2022-07-08T17:30:40.000Z</Time>
            <Position>
              <LatitudeDegrees>43.359366841614246368408203125</LatitudeDegrees>
              <LongitudeDegrees>-1.8293914385139942169189453125</LongitudeDegrees>
            </Position>
            <AltitudeMeters>273.399993896484375</AltitudeMeters>
            <DistanceMeters>NAN</DistanceMeters>
          </Trackpoint>
          <Trackpoint>
            <Time>2022-07-08T17:30:45.000Z</Time>
            <Position>
              <LatitudeDegrees>43.35930414497852325439453125</LatitudeDegrees>
              <LongitudeDegrees>-1.8295637704432010650634765625</LongitudeDegrees>
            </Position>
            <AltitudeMeters>273.600006103515625</AltitudeMeters>
            <DistanceMeters>NAN</DistanceMeters>
          </Trackpoint>
          <Trackpoint>
            <Time>2022-07-08T17:30:47.000Z</Time>
            <Position>
              <LatitudeDegrees>43.35926013998687267303466796875</LatitudeDegrees>
              <LongitudeDegrees>-1.82959570549428462982177734375</LongitudeDegrees>
            </Position>
            <AltitudeMeters>273.79998779296875</AltitudeMeters>
            <DistanceMeters>NAN</DistanceMeters>
          </Trackpoint>
          <Trackpoint>
            <Time>2022-07-08T17:30:48.000Z</Time>
            <Position>
              <LatitudeDegrees>43.35924111306667327880859375</LatitudeDegrees>
              <LongitudeDegrees>-1.82961615733802318572998046875</LongitudeDegrees>
            </Position>
            <AltitudeMeters>274</AltitudeMeters>
            <DistanceMeters>NAN</DistanceMeters>
          </Trackpoint>
          <Trackpoint>
            <Time>2022-07-08T17:30:53.000Z</Time>
            <Position>
              <LatitudeDegrees>43.35918252356350421905517578125</LatitudeDegrees>
              <LongitudeDegrees>-1.82974959723651409149169921875</LongitudeDegrees>
            </Position>
            <AltitudeMeters>274.399993896484375</AltitudeMeters>
            <DistanceMeters>NAN</DistanceMeters>
          </Trackpoint>
          <Trackpoint>
            <Time>2022-07-08T17:30:58.000Z</Time>
            <Position>
              <LatitudeDegrees>43.3590679429471492767333984375</LatitudeDegrees>
              <LongitudeDegrees>-1.82983308099210262298583984375</LongitudeDegrees>
            </Position>
            <AltitudeMeters>274.79998779296875</AltitudeMeters>
            <DistanceMeters>NAN</DistanceMeters>
          </Trackpoint>
          <Trackpoint>
            <Time>2022-07-08T17:31:01.000Z</Time>
            <Position>
              <LatitudeDegrees>43.35901756770908832550048828125</LatitudeDegrees>
              <LongitudeDegrees>-1.8298886530101299285888671875</LongitudeDegrees>
            </Position>
            <AltitudeMeters>275</AltitudeMeters>
            <DistanceMeters>NAN</DistanceMeters>
          </Trackpoint>
          <Trackpoint>
            <Time>2022-07-08T17:31:03.000Z</Time>
            <Position>
              <LatitudeDegrees>43.35899761877954006195068359375</LatitudeDegrees>
              <LongitudeDegrees>-1.8299456499516963958740234375</LongitudeDegrees>
            </Position>
            <AltitudeMeters>275.20001220703125</AltitudeMeters>
            <DistanceMeters>NAN</DistanceMeters>
          </Trackpoint>
          <Trackpoint>
            <Time>2022-07-08T17:31:07.000Z</Time>
            <Position>
              <LatitudeDegrees>43.358918912708759307861328125</LatitudeDegrees>
              <LongitudeDegrees>-1.8300073407590389251708984375</LongitudeDegrees>
            </Position>
            <AltitudeMeters>275.600006103515625</AltitudeMeters>
            <DistanceMeters>NAN</DistanceMeters>
          </Trackpoint>
          <Trackpoint>
            <Time>2022-07-08T17:31:12.000Z</Time>
            <Position>
              <LatitudeDegrees>43.35884573869407176971435546875</LatitudeDegrees>
              <LongitudeDegrees>-1.83015913702547550201416015625</LongitudeDegrees>
            </Position>
            <AltitudeMeters>276</AltitudeMeters>
            <DistanceMeters>NAN</DistanceMeters>
          </Trackpoint>
          <Trackpoint>
            <Time>2022-07-08T17:31:14.000Z</Time>
            <Position>
              <LatitudeDegrees>43.3588453195989131927490234375</LatitudeDegrees>
              <LongitudeDegrees>-1.83021747507154941558837890625</LongitudeDegrees>
            </Position>
            <AltitudeMeters>276.20001220703125</AltitudeMeters>
            <DistanceMeters>NAN</DistanceMeters>
          </Trackpoint>
          <Trackpoint>
            <Time>2022-07-08T17:31:20.000Z</Time>
            <Position>
              <LatitudeDegrees>43.35880131460726261138916015625</LatitudeDegrees>
              <LongitudeDegrees>-1.83041679672896862030029296875</LongitudeDegrees>
            </Position>
            <AltitudeMeters>276.79998779296875</AltitudeMeters>
            <DistanceMeters>NAN</DistanceMeters>
          </Trackpoint>
          <Trackpoint>
            <Time>2022-07-08T17:31:23.000Z</Time>
            <Position>
              <LatitudeDegrees>43.35874800570309162139892578125</LatitudeDegrees>
              <LongitudeDegrees>-1.83046624995768070220947265625</LongitudeDegrees>
            </Position>
            <AltitudeMeters>277</AltitudeMeters>
            <DistanceMeters>NAN</DistanceMeters>
          </Trackpoint>
          <Trackpoint>
            <Time>2022-07-08T17:31:28.000Z</Time>
            <Position>
              <LatitudeDegrees>43.35866468958556652069091796875</LatitudeDegrees>
              <LongitudeDegrees>-1.83052944950759410858154296875</LongitudeDegrees>
            </Position>
            <AltitudeMeters>277.399993896484375</AltitudeMeters>
            <DistanceMeters>NAN</DistanceMeters>
          </Trackpoint>
          <Trackpoint>
            <Time>2022-07-08T17:31:31.000Z</Time>
            <Position>
              <LatitudeDegrees>43.35860853083431720733642578125</LatitudeDegrees>
              <LongitudeDegrees>-1.83055610395967960357666015625</LongitudeDegrees>
            </Position>
            <AltitudeMeters>277.79998779296875</AltitudeMeters>
            <DistanceMeters>NAN</DistanceMeters>
          </Trackpoint>
          <Trackpoint>
            <Time>2022-07-08T17:31:34.000Z</Time>
            <Position>
              <LatitudeDegrees>43.35856310091912746429443359375</LatitudeDegrees>
              <LongitudeDegrees>-1.83064947836101055145263671875</LongitudeDegrees>
            </Position>
            <AltitudeMeters>278</AltitudeMeters>
            <DistanceMeters>NAN</DistanceMeters>
          </Trackpoint>
          <Trackpoint>
            <Time>2022-07-08T17:31:37.000Z</Time>
            <Position>
              <LatitudeDegrees>43.3585154078900814056396484375</LatitudeDegrees>
              <LongitudeDegrees>-1.83072122745215892791748046875</LongitudeDegrees>
            </Position>
            <AltitudeMeters>278.20001220703125</AltitudeMeters>
            <DistanceMeters>NAN</DistanceMeters>
          </Trackpoint>
          <Trackpoint>
            <Time>2022-07-08T17:31:40.000Z</Time>
            <Position>
              <LatitudeDegrees>43.358493112027645111083984375</LatitudeDegrees>
              <LongitudeDegrees>-1.830832958221435546875</LongitudeDegrees>
            </Position>
            <AltitudeMeters>278.20001220703125</AltitudeMeters>
            <DistanceMeters>NAN</DistanceMeters>
          </Trackpoint>
          <Trackpoint>
            <Time>2022-07-08T17:31:45.000Z</Time>
            <Position>
              <LatitudeDegrees>43.3584547229111194610595703125</LatitudeDegrees>
              <LongitudeDegrees>-1.83094016276299953460693359375</LongitudeDegrees>
            </Position>
            <AltitudeMeters>278.20001220703125</AltitudeMeters>
            <DistanceMeters>NAN</DistanceMeters>
          </Trackpoint>
          <Trackpoint>
            <Time>2022-07-08T17:31:49.000Z</Time>
            <Position>
              <LatitudeDegrees>43.35846059024333953857421875</LatitudeDegrees>
              <LongitudeDegrees>-1.8309447728097438812255859375</LongitudeDegrees>
            </Position>
            <AltitudeMeters>278</AltitudeMeters>
            <DistanceMeters>NAN</DistanceMeters>
          </Trackpoint>
          <Trackpoint>
            <Time>2022-07-08T17:31:50.000Z</Time>
            <Position>
              <LatitudeDegrees>43.35846059024333953857421875</LatitudeDegrees>
              <LongitudeDegrees>-1.8309447728097438812255859375</LongitudeDegrees>
            </Position>
            <AltitudeMeters>278</AltitudeMeters>
            <DistanceMeters>NAN</DistanceMeters>
          </Trackpoint>
          <Trackpoint>
            <Time>2022-07-08T17:33:18.000Z</Time>
            <Position>
              <LatitudeDegrees>43.35847693495452404022216796875</LatitudeDegrees>
              <LongitudeDegrees>-1.83104778639972209930419921875</LongitudeDegrees>
            </Position>
            <AltitudeMeters>277.79998779296875</AltitudeMeters>
            <DistanceMeters>NAN</DistanceMeters>
          </Trackpoint>
          <Trackpoint>
            <Time>2022-07-08T17:33:20.000Z</Time>
            <Position>
              <LatitudeDegrees>43.3584550581872463226318359375</LatitudeDegrees>
              <LongitudeDegrees>-1.83112607337534427642822265625</LongitudeDegrees>
            </Position>
            <AltitudeMeters>277.79998779296875</AltitudeMeters>
            <DistanceMeters>NAN</DistanceMeters>
          </Trackpoint>
          <Trackpoint>
            <Time>2022-07-08T17:33:24.000Z</Time>
            <Position>
              <LatitudeDegrees>43.35841306485235691070556640625</LatitudeDegrees>
              <LongitudeDegrees>-1.83130376972258090972900390625</LongitudeDegrees>
            </Position>
            <AltitudeMeters>277.399993896484375</AltitudeMeters>
            <DistanceMeters>NAN</DistanceMeters>
          </Trackpoint>
          <Trackpoint>
            <Time>2022-07-08T17:33:27.000Z</Time>
            <Position>
              <LatitudeDegrees>43.35836813785135746002197265625</LatitudeDegrees>
              <LongitudeDegrees>-1.83143846690654754638671875</LongitudeDegrees>
            </Position>
            <AltitudeMeters>277.20001220703125</AltitudeMeters>
            <DistanceMeters>NAN</DistanceMeters>
          </Trackpoint>
          <Trackpoint>
            <Time>2022-07-08T17:33:29.000Z</Time>
            <Position>
              <LatitudeDegrees>43.358339555561542510986328125</LatitudeDegrees>
              <LongitudeDegrees>-1.83152572251856327056884765625</LongitudeDegrees>
            </Position>
            <AltitudeMeters>277</AltitudeMeters>
            <DistanceMeters>NAN</DistanceMeters>
          </Trackpoint>
          <Trackpoint>
            <Time>2022-07-08T17:33:35.000Z</Time>
            <Position>
              <LatitudeDegrees>43.3582431636750698089599609375</LatitudeDegrees>
              <LongitudeDegrees>-1.8318040855228900909423828125</LongitudeDegrees>
            </Position>
            <AltitudeMeters>276.79998779296875</AltitudeMeters>
            <DistanceMeters>NAN</DistanceMeters>
          </Trackpoint>
          <Trackpoint>
            <Time>2022-07-08T17:33:39.000Z</Time>
            <Position>
              <LatitudeDegrees>43.358144424855709075927734375</LatitudeDegrees>
              <LongitudeDegrees>-1.83200818486511707305908203125</LongitudeDegrees>
            </Position>
            <AltitudeMeters>276.600006103515625</AltitudeMeters>
            <DistanceMeters>NAN</DistanceMeters>
          </Trackpoint>
          <Trackpoint>
            <Time>2022-07-08T17:33:41.000Z</Time>
            <Position>
              <LatitudeDegrees>43.35809555836021900177001953125</LatitudeDegrees>
              <LongitudeDegrees>-1.8321083486080169677734375</LongitudeDegrees>
            </Position>
            <AltitudeMeters>276.600006103515625</AltitudeMeters>
            <DistanceMeters>NAN</DistanceMeters>
          </Trackpoint>
          <Trackpoint>
            <Time>2022-07-08T17:33:44.000Z</Time>
            <Position>
              <LatitudeDegrees>43.3580155111849308013916015625</LatitudeDegrees>
              <LongitudeDegrees>-1.83220264501869678497314453125</LongitudeDegrees>
            </Position>
            <AltitudeMeters>276.600006103515625</AltitudeMeters>
            <DistanceMeters>NAN</DistanceMeters>
          </Trackpoint>
          <Trackpoint>
            <Time>2022-07-08T17:33:46.000Z</Time>
            <Position>
              <LatitudeDegrees>43.35797720588743686676025390625</LatitudeDegrees>
              <LongitudeDegrees>-1.83226282708346843719482421875</LongitudeDegrees>
            </Position>
            <AltitudeMeters>276.600006103515625</AltitudeMeters>
            <DistanceMeters>NAN</DistanceMeters>
          </Trackpoint>
          <Trackpoint>
            <Time>2022-07-08T17:33:48.000Z</Time>
            <Position>
              <LatitudeDegrees>43.35799262858927249908447265625</LatitudeDegrees>
              <LongitudeDegrees>-1.83233390562236309051513671875</LongitudeDegrees>
            </Position>
            <AltitudeMeters>276.79998779296875</AltitudeMeters>
            <DistanceMeters>NAN</DistanceMeters>
          </Trackpoint>
          <Trackpoint>
            <Time>2022-07-08T17:33:51.000Z</Time>
            <Position>
              <LatitudeDegrees>43.35794158279895782470703125</LatitudeDegrees>
              <LongitudeDegrees>-1.83237832970917224884033203125</LongitudeDegrees>
            </Position>
            <AltitudeMeters>277</AltitudeMeters>
            <DistanceMeters>NAN</DistanceMeters>
          </Trackpoint>
          <Trackpoint>
            <Time>2022-07-08T17:33:53.000Z</Time>
            <Position>
              <LatitudeDegrees>43.357919119298458099365234375</LatitudeDegrees>
              <LongitudeDegrees>-1.83241370134055614471435546875</LongitudeDegrees>
            </Position>
            <AltitudeMeters>277.20001220703125</AltitudeMeters>
            <DistanceMeters>NAN</DistanceMeters>
          </Trackpoint>
          <Trackpoint>
            <Time>2022-07-08T17:33:55.000Z</Time>
            <Position>
              <LatitudeDegrees>43.35790361277759075164794921875</LatitudeDegrees>
              <LongitudeDegrees>-1.83245695196092128753662109375</LongitudeDegrees>
            </Position>
            <AltitudeMeters>277.399993896484375</AltitudeMeters>
            <DistanceMeters>NAN</DistanceMeters>
          </Trackpoint>
          <Trackpoint>
            <Time>2022-07-08T17:34:01.000Z</Time>
            <Position>
              <LatitudeDegrees>43.35782012902200222015380859375</LatitudeDegrees>
              <LongitudeDegrees>-1.83260581456124782562255859375</LongitudeDegrees>
            </Position>
            <AltitudeMeters>277.79998779296875</AltitudeMeters>
            <DistanceMeters>NAN</DistanceMeters>
          </Trackpoint>
          <Trackpoint>
            <Time>2022-07-08T17:34:06.000Z</Time>
            <Position>
              <LatitudeDegrees>43.35773630999028682708740234375</LatitudeDegrees>
              <LongitudeDegrees>-1.83274478651583194732666015625</LongitudeDegrees>
            </Position>
            <AltitudeMeters>278.20001220703125</AltitudeMeters>
            <DistanceMeters>NAN</DistanceMeters>
          </Trackpoint>
          <Trackpoint>
            <Time>2022-07-08T17:34:07.000Z</Time>
            <Position>
              <LatitudeDegrees>43.3577223122119903564453125</LatitudeDegrees>
              <LongitudeDegrees>-1.83278225362300872802734375</LongitudeDegrees>
            </Position>
            <AltitudeMeters>278.20001220703125</AltitudeMeters>
            <DistanceMeters>NAN</DistanceMeters>
          </Trackpoint>
          <Trackpoint>
            <Time>2022-07-08T17:34:12.000Z</Time>
            <Position>
              <LatitudeDegrees>43.3576282672584056854248046875</LatitudeDegrees>
              <LongitudeDegrees>-1.83294276706874370574951171875</LongitudeDegrees>
            </Position>
            <AltitudeMeters>278.399993896484375</AltitudeMeters>
            <DistanceMeters>NAN</DistanceMeters>
          </Trackpoint>
          <Trackpoint>
            <Time>2022-07-08T17:34:18.000Z</Time>
            <Position>
              <LatitudeDegrees>43.3574690110981464385986328125</LatitudeDegrees>
              <LongitudeDegrees>-1.833076290786266326904296875</LongitudeDegrees>
            </Position>
            <AltitudeMeters>278.79998779296875</AltitudeMeters>
            <DistanceMeters>NAN</DistanceMeters>
          </Trackpoint>
          <Trackpoint>
            <Time>2022-07-08T17:34:21.000Z</Time>
            <Position>
              <LatitudeDegrees>43.3574140258133411407470703125</LatitudeDegrees>
              <LongitudeDegrees>-1.83313320390880107879638671875</LongitudeDegrees>
            </Position>
            <AltitudeMeters>279.20001220703125</AltitudeMeters>
            <DistanceMeters>NAN</DistanceMeters>
          </Trackpoint>
          <Trackpoint>
            <Time>2022-07-08T17:34:24.000Z</Time>
            <Position>
              <LatitudeDegrees>43.3573751337826251983642578125</LatitudeDegrees>
              <LongitudeDegrees>-1.83318500407040119171142578125</LongitudeDegrees>
            </Position>
            <AltitudeMeters>279.399993896484375</AltitudeMeters>
            <DistanceMeters>NAN</DistanceMeters>
          </Trackpoint>
          <Trackpoint>
            <Time>2022-07-08T17:34:29.000Z</Time>
            <Position>
              <LatitudeDegrees>43.3572782389819622039794921875</LatitudeDegrees>
              <LongitudeDegrees>-1.83327452279627323150634765625</LongitudeDegrees>
            </Position>
            <AltitudeMeters>279.600006103515625</AltitudeMeters>
            <DistanceMeters>NAN</DistanceMeters>
          </Trackpoint>
          <Trackpoint>
            <Time>2022-07-08T17:34:33.000Z</Time>
            <Position>
              <LatitudeDegrees>43.35720892064273357391357421875</LatitudeDegrees>
              <LongitudeDegrees>-1.8333507142961025238037109375</LongitudeDegrees>
            </Position>
            <AltitudeMeters>280</AltitudeMeters>
            <DistanceMeters>NAN</DistanceMeters>
          </Trackpoint>
          <Trackpoint>
            <Time>2022-07-08T17:34:34.000Z</Time>
            <Position>
              <LatitudeDegrees>43.35719416849315166473388671875</LatitudeDegrees>
              <LongitudeDegrees>-1.8333711661398410797119140625</LongitudeDegrees>
            </Position>
            <AltitudeMeters>280.20001220703125</AltitudeMeters>
            <DistanceMeters>NAN</DistanceMeters>
          </Trackpoint>
          <Trackpoint>
            <Time>2022-07-08T17:34:35.000Z</Time>
            <Position>
              <LatitudeDegrees>43.3571826852858066558837890625</LatitudeDegrees>
              <LongitudeDegrees>-1.83339740149676799774169921875</LongitudeDegrees>
            </Position>
            <AltitudeMeters>280.20001220703125</AltitudeMeters>
            <DistanceMeters>NAN</DistanceMeters>
          </Trackpoint>
          <Trackpoint>
            <Time>2022-07-08T17:34:40.000Z</Time>
            <Position>
              <LatitudeDegrees>43.35711169056594371795654296875</LatitudeDegrees>
              <LongitudeDegrees>-1.83351608924567699432373046875</LongitudeDegrees>
            </Position>
            <AltitudeMeters>280.399993896484375</AltitudeMeters>
            <DistanceMeters>NAN</DistanceMeters>
          </Trackpoint>
          <Trackpoint>
            <Time>2022-07-08T17:34:41.000Z</Time>
            <Position>
              <LatitudeDegrees>43.35708553902804851531982421875</LatitudeDegrees>
              <LongitudeDegrees>-1.833530254662036895751953125</LongitudeDegrees>
            </Position>
            <AltitudeMeters>280.399993896484375</AltitudeMeters>
            <DistanceMeters>NAN</DistanceMeters>
          </Trackpoint>
          <Trackpoint>
            <Time>2022-07-08T17:34:48.000Z</Time>
            <Position>
              <LatitudeDegrees>43.3569069206714630126953125</LatitudeDegrees>
              <LongitudeDegrees>-1.8336189351975917816162109375</LongitudeDegrees>
            </Position>
            <AltitudeMeters>280.399993896484375</AltitudeMeters>
            <DistanceMeters>NAN</DistanceMeters>
          </Trackpoint>
          <Trackpoint>
            <Time>2022-07-08T17:34:49.000Z</Time>
            <Position>
              <LatitudeDegrees>43.35688504390418529510498046875</LatitudeDegrees>
              <LongitudeDegrees>-1.83363251388072967529296875</LongitudeDegrees>
            </Position>
            <AltitudeMeters>280.600006103515625</AltitudeMeters>
            <DistanceMeters>NAN</DistanceMeters>
          </Trackpoint>
          <Trackpoint>
            <Time>2022-07-08T17:34:54.000Z</Time>
            <Position>
              <LatitudeDegrees>43.35676618851721286773681640625</LatitudeDegrees>
              <LongitudeDegrees>-1.83367115445435047149658203125</LongitudeDegrees>
            </Position>
            <AltitudeMeters>280.600006103515625</AltitudeMeters>
            <DistanceMeters>NAN</DistanceMeters>
          </Trackpoint>
          <Trackpoint>
            <Time>2022-07-08T17:34:59.000Z</Time>
            <Position>
              <LatitudeDegrees>43.3566224388778209686279296875</LatitudeDegrees>
              <LongitudeDegrees>-1.83374441228806972503662109375</LongitudeDegrees>
            </Position>
            <AltitudeMeters>280.79998779296875</AltitudeMeters>
            <DistanceMeters>NAN</DistanceMeters>
          </Trackpoint>
          <Trackpoint>
            <Time>2022-07-08T17:35:04.000Z</Time>
            <Position>
              <LatitudeDegrees>43.35649109445512294769287109375</LatitudeDegrees>
              <LongitudeDegrees>-1.83382286690175533294677734375</LongitudeDegrees>
            </Position>
            <AltitudeMeters>280.600006103515625</AltitudeMeters>
            <DistanceMeters>NAN</DistanceMeters>
          </Trackpoint>
          <Trackpoint>
            <Time>2022-07-08T17:35:06.000Z</Time>
            <Position>
              <LatitudeDegrees>43.3564578182995319366455078125</LatitudeDegrees>
              <LongitudeDegrees>-1.8338817916810512542724609375</LongitudeDegrees>
            </Position>
            <AltitudeMeters>280.600006103515625</AltitudeMeters>
            <DistanceMeters>NAN</DistanceMeters>
          </Trackpoint>
          <Trackpoint>
            <Time>2022-07-08T17:35:09.000Z</Time>
            <Position>
              <LatitudeDegrees>43.35640325210988521575927734375</LatitudeDegrees>
              <LongitudeDegrees>-1.83396033011376857757568359375</LongitudeDegrees>
            </Position>
            <AltitudeMeters>280.600006103515625</AltitudeMeters>
            <DistanceMeters>NAN</DistanceMeters>
          </Trackpoint>
          <Trackpoint>
            <Time>2022-07-08T17:35:11.000Z</Time>
            <Position>
              <LatitudeDegrees>43.35637986660003662109375</LatitudeDegrees>
              <LongitudeDegrees>-1.8340122140944004058837890625</LongitudeDegrees>
            </Position>
            <AltitudeMeters>280.600006103515625</AltitudeMeters>
            <DistanceMeters>NAN</DistanceMeters>
          </Trackpoint>
          <Trackpoint>
            <Time>2022-07-08T17:35:13.000Z</Time>
            <Position>
              <LatitudeDegrees>43.3563528768718242645263671875</LatitudeDegrees>
              <LongitudeDegrees>-1.8340547941625118255615234375</LongitudeDegrees>
            </Position>
            <AltitudeMeters>280.600006103515625</AltitudeMeters>
            <DistanceMeters>NAN</DistanceMeters>
          </Trackpoint>
          <Trackpoint>
            <Time>2022-07-08T17:35:17.000Z</Time>
            <Position>
              <LatitudeDegrees>43.35633368231356143951416015625</LatitudeDegrees>
              <LongitudeDegrees>-1.834080107510089874267578125</LongitudeDegrees>
            </Position>
            <AltitudeMeters>280.600006103515625</AltitudeMeters>
            <DistanceMeters>NAN</DistanceMeters>
          </Trackpoint>
          <Trackpoint>
            <Time>2022-07-08T17:35:39.000Z</Time>
            <Position>
              <LatitudeDegrees>43.35628691129386425018310546875</LatitudeDegrees>
              <LongitudeDegrees>-1.83413282968103885650634765625</LongitudeDegrees>
            </Position>
            <AltitudeMeters>281</AltitudeMeters>
            <DistanceMeters>NAN</DistanceMeters>
          </Trackpoint>
          <Trackpoint>
            <Time>2022-07-08T17:35:44.000Z</Time>
            <Position>
              <LatitudeDegrees>43.356246761977672576904296875</LatitudeDegrees>
              <LongitudeDegrees>-1.83423140086233615875244140625</LongitudeDegrees>
            </Position>
            <AltitudeMeters>281.20001220703125</AltitudeMeters>
            <DistanceMeters>NAN</DistanceMeters>
          </Trackpoint>
          <Trackpoint>
            <Time>2022-07-08T17:35:46.000Z</Time>
            <Position>
              <LatitudeDegrees>43.35624047555029392242431640625</LatitudeDegrees>
              <LongitudeDegrees>-1.834237687289714813232421875</LongitudeDegrees>
            </Position>
            <AltitudeMeters>281.20001220703125</AltitudeMeters>
            <DistanceMeters>NAN</DistanceMeters>
          </Trackpoint>
          <Trackpoint>
            <Time>2022-07-08T17:35:48.000Z</Time>
            <Position>
              <LatitudeDegrees>43.35624047555029392242431640625</LatitudeDegrees>
              <LongitudeDegrees>-1.834237687289714813232421875</LongitudeDegrees>
            </Position>
            <AltitudeMeters>281.20001220703125</AltitudeMeters>
            <DistanceMeters>NAN</DistanceMeters>
          </Trackpoint>
          <Trackpoint>
            <Time>2022-07-08T17:36:46.000Z</Time>
            <Position>
              <LatitudeDegrees>43.35624282248318195343017578125</LatitudeDegrees>
              <LongitudeDegrees>-1.83429677970707416534423828125</LongitudeDegrees>
            </Position>
            <AltitudeMeters>280.600006103515625</AltitudeMeters>
            <DistanceMeters>NAN</DistanceMeters>
          </Trackpoint>
          <Trackpoint>
            <Time>2022-07-08T17:36:47.000Z</Time>
            <Position>
              <LatitudeDegrees>43.3562392182648181915283203125</LatitudeDegrees>
              <LongitudeDegrees>-1.8343273736536502838134765625</LongitudeDegrees>
            </Position>
            <AltitudeMeters>280.600006103515625</AltitudeMeters>
            <DistanceMeters>NAN</DistanceMeters>
          </Trackpoint>
          <Trackpoint>
            <Time>2022-07-08T17:36:48.000Z</Time>
            <Position>
              <LatitudeDegrees>43.356235362589359283447265625</LatitudeDegrees>
              <LongitudeDegrees>-1.83435645885765552520751953125</LongitudeDegrees>
            </Position>
            <AltitudeMeters>280.600006103515625</AltitudeMeters>
            <DistanceMeters>NAN</DistanceMeters>
          </Trackpoint>
          <Trackpoint>
            <Time>2022-07-08T17:36:53.000Z</Time>
            <Position>
              <LatitudeDegrees>43.3562103845179080963134765625</LatitudeDegrees>
              <LongitudeDegrees>-1.834501214325428009033203125</LongitudeDegrees>
            </Position>
            <AltitudeMeters>280.79998779296875</AltitudeMeters>
            <DistanceMeters>NAN</DistanceMeters>
          </Trackpoint>
          <Trackpoint>
            <Time>2022-07-08T17:36:54.000Z</Time>
            <Position>
              <LatitudeDegrees>43.35620946250855922698974609375</LatitudeDegrees>
              <LongitudeDegrees>-1.83453985489904880523681640625</LongitudeDegrees>
            </Position>
            <AltitudeMeters>281</AltitudeMeters>
            <DistanceMeters>NAN</DistanceMeters>
          </Trackpoint>
          <Trackpoint>
            <Time>2022-07-08T17:36:59.000Z</Time>
            <Position>
              <LatitudeDegrees>43.356199152767658233642578125</LatitudeDegrees>
              <LongitudeDegrees>-1.834664158523082733154296875</LongitudeDegrees>
            </Position>
            <AltitudeMeters>281.20001220703125</AltitudeMeters>
            <DistanceMeters>NAN</DistanceMeters>
          </Trackpoint>
          <Trackpoint>
            <Time>2022-07-08T17:37:01.000Z</Time>
            <Position>
              <LatitudeDegrees>43.35620325990021228790283203125</LatitudeDegrees>
              <LongitudeDegrees>-1.83469927869737148284912109375</LongitudeDegrees>
            </Position>
            <AltitudeMeters>281.600006103515625</AltitudeMeters>
            <DistanceMeters>NAN</DistanceMeters>
          </Trackpoint>
          <Trackpoint>
            <Time>2022-07-08T17:37:05.000Z</Time>
            <Position>
              <LatitudeDegrees>43.35618247278034687042236328125</LatitudeDegrees>
              <LongitudeDegrees>-1.83476298116147518157958984375</LongitudeDegrees>
            </Position>
            <AltitudeMeters>281.79998779296875</AltitudeMeters>
            <DistanceMeters>NAN</DistanceMeters>
          </Trackpoint>
          <Trackpoint>
            <Time>2022-07-08T17:37:08.000Z</Time>
            <Position>
              <LatitudeDegrees>43.3561842329800128936767578125</LatitudeDegrees>
              <LongitudeDegrees>-1.8348155356943607330322265625</LongitudeDegrees>
            </Position>
            <AltitudeMeters>282</AltitudeMeters>
            <DistanceMeters>NAN</DistanceMeters>
          </Trackpoint>
          <Trackpoint>
            <Time>2022-07-08T17:37:11.000Z</Time>
            <Position>
              <LatitudeDegrees>43.35618834011256694793701171875</LatitudeDegrees>
              <LongitudeDegrees>-1.83488971553742885589599609375</LongitudeDegrees>
            </Position>
            <AltitudeMeters>282.20001220703125</AltitudeMeters>
            <DistanceMeters>NAN</DistanceMeters>
          </Trackpoint>
          <Trackpoint>
            <Time>2022-07-08T17:37:14.000Z</Time>
            <Position>
              <LatitudeDegrees>43.3562100492417812347412109375</LatitudeDegrees>
              <LongitudeDegrees>-1.83499398641288280487060546875</LongitudeDegrees>
            </Position>
            <AltitudeMeters>282.20001220703125</AltitudeMeters>
            <DistanceMeters>NAN</DistanceMeters>
          </Trackpoint>
          <Trackpoint>
            <Time>2022-07-08T17:37:16.000Z</Time>
            <Position>
              <LatitudeDegrees>43.3562066964805126190185546875</LatitudeDegrees>
              <LongitudeDegrees>-1.8350354768335819244384765625</LongitudeDegrees>
            </Position>
            <AltitudeMeters>282.20001220703125</AltitudeMeters>
            <DistanceMeters>NAN</DistanceMeters>
          </Trackpoint>
          <Trackpoint>
            <Time>2022-07-08T17:37:19.000Z</Time>
            <Position>
              <LatitudeDegrees>43.356195129454135894775390625</LatitudeDegrees>
              <LongitudeDegrees>-1.83510295115411281585693359375</LongitudeDegrees>
            </Position>
            <AltitudeMeters>282.600006103515625</AltitudeMeters>
            <DistanceMeters>NAN</DistanceMeters>
          </Trackpoint>
          <Trackpoint>
            <Time>2022-07-08T17:37:20.000Z</Time>
            <Position>
              <LatitudeDegrees>43.356195800006389617919921875</LatitudeDegrees>
              <LongitudeDegrees>-1.8351283483207225799560546875</LongitudeDegrees>
            </Position>
            <AltitudeMeters>282.79998779296875</AltitudeMeters>
            <DistanceMeters>NAN</DistanceMeters>
          </Trackpoint>
          <Trackpoint>
            <Time>2022-07-08T17:37:24.000Z</Time>
            <Position>
              <LatitudeDegrees>43.3562130667269229888916015625</LatitudeDegrees>
              <LongitudeDegrees>-1.8352493830025196075439453125</LongitudeDegrees>
            </Position>
            <AltitudeMeters>282.79998779296875</AltitudeMeters>
            <DistanceMeters>NAN</DistanceMeters>
          </Trackpoint>
          <Trackpoint>
            <Time>2022-07-08T17:37:28.000Z</Time>
            <Position>
              <LatitudeDegrees>43.35622094571590423583984375</LatitudeDegrees>
              <LongitudeDegrees>-1.83541190810501575469970703125</LongitudeDegrees>
            </Position>
            <AltitudeMeters>282.600006103515625</AltitudeMeters>
            <DistanceMeters>NAN</DistanceMeters>
          </Trackpoint>
          <Trackpoint>
            <Time>2022-07-08T17:37:30.000Z</Time>
            <Position>
              <LatitudeDegrees>43.3562046848237514495849609375</LatitudeDegrees>
              <LongitudeDegrees>-1.8354592658579349517822265625</LongitudeDegrees>
            </Position>
            <AltitudeMeters>282.600006103515625</AltitudeMeters>
            <DistanceMeters>NAN</DistanceMeters>
          </Trackpoint>
          <Trackpoint>
            <Time>2022-07-08T17:37:35.000Z</Time>
            <Position>
              <LatitudeDegrees>43.35618884302675724029541015625</LatitudeDegrees>
              <LongitudeDegrees>-1.83567308820784091949462890625</LongitudeDegrees>
            </Position>
            <AltitudeMeters>282.399993896484375</AltitudeMeters>
            <DistanceMeters>NAN</DistanceMeters>
          </Trackpoint>
          <Trackpoint>
            <Time>2022-07-08T17:37:40.000Z</Time>
            <Position>
              <LatitudeDegrees>43.356202505528926849365234375</LatitudeDegrees>
              <LongitudeDegrees>-1.83586386032402515411376953125</LongitudeDegrees>
            </Position>
            <AltitudeMeters>282.399993896484375</AltitudeMeters>
            <DistanceMeters>NAN</DistanceMeters>
          </Trackpoint>
          <Trackpoint>
            <Time>2022-07-08T17:37:42.000Z</Time>
            <Position>
              <LatitudeDegrees>43.35618213750422000885009765625</LatitudeDegrees>
              <LongitudeDegrees>-1.83592605404555797576904296875</LongitudeDegrees>
            </Position>
            <AltitudeMeters>282.399993896484375</AltitudeMeters>
            <DistanceMeters>NAN</DistanceMeters>
          </Trackpoint>
          <Trackpoint>
            <Time>2022-07-08T17:37:47.000Z</Time>
            <Position>
              <LatitudeDegrees>43.3561688102781772613525390625</LatitudeDegrees>
              <LongitudeDegrees>-1.83598405681550502777099609375</LongitudeDegrees>
            </Position>
            <AltitudeMeters>282</AltitudeMeters>
            <DistanceMeters>NAN</DistanceMeters>
          </Trackpoint>
          <Trackpoint>
            <Time>2022-07-08T17:37:52.000Z</Time>
            <Position>
              <LatitudeDegrees>43.35616319440305233001708984375</LatitudeDegrees>
              <LongitudeDegrees>-1.8360014073550701141357421875</LongitudeDegrees>
            </Position>
            <AltitudeMeters>282</AltitudeMeters>
            <DistanceMeters>NAN</DistanceMeters>
          </Trackpoint>
          <Trackpoint>
            <Time>2022-07-08T17:37:54.000Z</Time>
            <Position>
              <LatitudeDegrees>43.35616059601306915283203125</LatitudeDegrees>
              <LongitudeDegrees>-1.83603837154805660247802734375</LongitudeDegrees>
            </Position>
            <AltitudeMeters>282</AltitudeMeters>
            <DistanceMeters>NAN</DistanceMeters>
          </Trackpoint>
          <Trackpoint>
            <Time>2022-07-08T17:38:00.000Z</Time>
            <Position>
              <LatitudeDegrees>43.3561098016798496246337890625</LatitudeDegrees>
              <LongitudeDegrees>-1.83618463575839996337890625</LongitudeDegrees>
            </Position>
            <AltitudeMeters>282</AltitudeMeters>
            <DistanceMeters>NAN</DistanceMeters>
          </Trackpoint>
          <Trackpoint>
            <Time>2022-07-08T17:38:07.000Z</Time>
            <Position>
              <LatitudeDegrees>43.356068395078182220458984375</LatitudeDegrees>
              <LongitudeDegrees>-1.8364241905510425567626953125</LongitudeDegrees>
            </Position>
            <AltitudeMeters>282.20001220703125</AltitudeMeters>
            <DistanceMeters>NAN</DistanceMeters>
          </Trackpoint>
          <Trackpoint>
            <Time>2022-07-08T17:38:13.000Z</Time>
            <Position>
              <LatitudeDegrees>43.35601843893527984619140625</LatitudeDegrees>
              <LongitudeDegrees>-1.83653910644352436065673828125</LongitudeDegrees>
            </Position>
            <AltitudeMeters>282.399993896484375</AltitudeMeters>
            <DistanceMeters>NAN</DistanceMeters>
          </Trackpoint>
          <Trackpoint>
            <Time>2022-07-08T17:38:16.000Z</Time>
            <Position>
              <LatitudeDegrees>43.35598197765648365020751953125</LatitudeDegrees>
              <LongitudeDegrees>-1.83661739341914653778076171875</LongitudeDegrees>
            </Position>
            <AltitudeMeters>282.399993896484375</AltitudeMeters>
            <DistanceMeters>NAN</DistanceMeters>
          </Trackpoint>
          <Trackpoint>
            <Time>2022-07-08T17:38:18.000Z</Time>
            <Position>
              <LatitudeDegrees>43.35595968179404735565185546875</LatitudeDegrees>
              <LongitudeDegrees>-1.83666743338108062744140625</LongitudeDegrees>
            </Position>
            <AltitudeMeters>282.399993896484375</AltitudeMeters>
            <DistanceMeters>NAN</DistanceMeters>
          </Trackpoint>
          <Trackpoint>
            <Time>2022-07-08T17:38:21.000Z</Time>
            <Position>
              <LatitudeDegrees>43.3559332787990570068359375</LatitudeDegrees>
              <LongitudeDegrees>-1.83675183914601802825927734375</LongitudeDegrees>
            </Position>
            <AltitudeMeters>282.600006103515625</AltitudeMeters>
            <DistanceMeters>NAN</DistanceMeters>
          </Trackpoint>
          <Trackpoint>
            <Time>2022-07-08T17:38:24.000Z</Time>
            <Position>
              <LatitudeDegrees>43.35589983500540256500244140625</LatitudeDegrees>
              <LongitudeDegrees>-1.83683532290160655975341796875</LongitudeDegrees>
            </Position>
            <AltitudeMeters>283</AltitudeMeters>
            <DistanceMeters>NAN</DistanceMeters>
          </Trackpoint>
          <Trackpoint>
            <Time>2022-07-08T17:38:26.000Z</Time>
            <Position>
              <LatitudeDegrees>43.35587804205715656280517578125</LatitudeDegrees>
              <LongitudeDegrees>-1.83687840588390827178955078125</LongitudeDegrees>
            </Position>
            <AltitudeMeters>283.20001220703125</AltitudeMeters>
            <DistanceMeters>NAN</DistanceMeters>
          </Trackpoint>
          <Trackpoint>
            <Time>2022-07-08T17:38:28.000Z</Time>
            <Position>
              <LatitudeDegrees>43.355864547193050384521484375</LatitudeDegrees>
              <LongitudeDegrees>-1.83691260404884815216064453125</LongitudeDegrees>
            </Position>
            <AltitudeMeters>283.399993896484375</AltitudeMeters>
            <DistanceMeters>NAN</DistanceMeters>
          </Trackpoint>
          <Trackpoint>
            <Time>2022-07-08T17:38:29.000Z</Time>
            <Position>
              <LatitudeDegrees>43.35585641674697399139404296875</LatitudeDegrees>
              <LongitudeDegrees>-1.83693087659776210784912109375</LongitudeDegrees>
            </Position>
            <AltitudeMeters>283.600006103515625</AltitudeMeters>
            <DistanceMeters>NAN</DistanceMeters>
          </Trackpoint>
          <Trackpoint>
            <Time>2022-07-08T17:38:34.000Z</Time>
            <Position>
              <LatitudeDegrees>43.355795480310916900634765625</LatitudeDegrees>
              <LongitudeDegrees>-1.836983598768711090087890625</LongitudeDegrees>
            </Position>
            <AltitudeMeters>284.399993896484375</AltitudeMeters>
            <DistanceMeters>NAN</DistanceMeters>
          </Trackpoint>
          <Trackpoint>
            <Time>2022-07-08T17:38:35.000Z</Time>
            <Position>
              <LatitudeDegrees>43.3557815663516521453857421875</LatitudeDegrees>
              <LongitudeDegrees>-1.83699005283415317535400390625</LongitudeDegrees>
            </Position>
            <AltitudeMeters>284.600006103515625</AltitudeMeters>
            <DistanceMeters>NAN</DistanceMeters>
          </Trackpoint>
          <Trackpoint>
            <Time>2022-07-08T17:38:36.000Z</Time>
            <Position>
              <LatitudeDegrees>43.35576270706951618194580078125</LatitudeDegrees>
              <LongitudeDegrees>-1.83700363151729106903076171875</LongitudeDegrees>
            </Position>
            <AltitudeMeters>284.600006103515625</AltitudeMeters>
            <DistanceMeters>NAN</DistanceMeters>
          </Trackpoint>
          <Trackpoint>
            <Time>2022-07-08T17:38:39.000Z</Time>
            <Position>
              <LatitudeDegrees>43.3557374775409698486328125</LatitudeDegrees>
              <LongitudeDegrees>-1.83707236312329769134521484375</LongitudeDegrees>
            </Position>
            <AltitudeMeters>285.20001220703125</AltitudeMeters>
            <DistanceMeters>NAN</DistanceMeters>
          </Trackpoint>
          <Trackpoint>
            <Time>2022-07-08T17:38:41.000Z</Time>
            <Position>
              <LatitudeDegrees>43.3557108230888843536376953125</LatitudeDegrees>
              <LongitudeDegrees>-1.83711209334433078765869140625</LongitudeDegrees>
            </Position>
            <AltitudeMeters>285.20001220703125</AltitudeMeters>
            <DistanceMeters>NAN</DistanceMeters>
          </Trackpoint>
          <Trackpoint>
            <Time>2022-07-08T17:38:47.000Z</Time>
            <Position>
              <LatitudeDegrees>43.35560965351760387420654296875</LatitudeDegrees>
              <LongitudeDegrees>-1.83721435256302356719970703125</LongitudeDegrees>
            </Position>
            <AltitudeMeters>285.399993896484375</AltitudeMeters>
            <DistanceMeters>NAN</DistanceMeters>
          </Trackpoint>
          <Trackpoint>
            <Time>2022-07-08T17:38:48.000Z</Time>
            <Position>
              <LatitudeDegrees>43.3555847592651844024658203125</LatitudeDegrees>
              <LongitudeDegrees>-1.83722608722746372222900390625</LongitudeDegrees>
            </Position>
            <AltitudeMeters>285.399993896484375</AltitudeMeters>
            <DistanceMeters>NAN</DistanceMeters>
          </Trackpoint>
          <Trackpoint>
            <Time>2022-07-08T17:38:51.000Z</Time>
            <Position>
              <LatitudeDegrees>43.3555213920772075653076171875</LatitudeDegrees>
              <LongitudeDegrees>-1.83723329566419124603271484375</LongitudeDegrees>
            </Position>
            <AltitudeMeters>285.399993896484375</AltitudeMeters>
            <DistanceMeters>NAN</DistanceMeters>
          </Trackpoint>
          <Trackpoint>
            <Time>2022-07-08T17:38:53.000Z</Time>
            <Position>
              <LatitudeDegrees>43.35547805763781070709228515625</LatitudeDegrees>
              <LongitudeDegrees>-1.83725425042212009429931640625</LongitudeDegrees>
            </Position>
            <AltitudeMeters>285.399993896484375</AltitudeMeters>
            <DistanceMeters>NAN</DistanceMeters>
          </Trackpoint>
          <Trackpoint>
            <Time>2022-07-08T17:38:54.000Z</Time>
            <Position>
              <LatitudeDegrees>43.35546112619340419769287109375</LatitudeDegrees>
              <LongitudeDegrees>-1.83727721683681011199951171875</LongitudeDegrees>
            </Position>
            <AltitudeMeters>285.399993896484375</AltitudeMeters>
            <DistanceMeters>NAN</DistanceMeters>
          </Trackpoint>
          <Trackpoint>
            <Time>2022-07-08T17:38:57.000Z</Time>
            <Position>
              <LatitudeDegrees>43.35538300685584545135498046875</LatitudeDegrees>
              <LongitudeDegrees>-1.837299428880214691162109375</LongitudeDegrees>
            </Position>
            <AltitudeMeters>285.399993896484375</AltitudeMeters>
            <DistanceMeters>NAN</DistanceMeters>
          </Trackpoint>
          <Trackpoint>
            <Time>2022-07-08T17:38:59.000Z</Time>
            <Position>
              <LatitudeDegrees>43.3553319610655307769775390625</LatitudeDegrees>
              <LongitudeDegrees>-1.8373093195259571075439453125</LongitudeDegrees>
            </Position>
            <AltitudeMeters>285.20001220703125</AltitudeMeters>
            <DistanceMeters>NAN</DistanceMeters>
          </Trackpoint>
          <Trackpoint>
            <Time>2022-07-08T17:39:04.000Z</Time>
            <Position>
              <LatitudeDegrees>43.35521151311695575714111328125</LatitudeDegrees>
              <LongitudeDegrees>-1.83734594844281673431396484375</LongitudeDegrees>
            </Position>
            <AltitudeMeters>285.20001220703125</AltitudeMeters>
            <DistanceMeters>NAN</DistanceMeters>
          </Trackpoint>
          <Trackpoint>
            <Time>2022-07-08T17:39:05.000Z</Time>
            <Position>
              <LatitudeDegrees>43.355191648006439208984375</LatitudeDegrees>
              <LongitudeDegrees>-1.83735902421176433563232421875</LongitudeDegrees>
            </Position>
            <AltitudeMeters>285.20001220703125</AltitudeMeters>
            <DistanceMeters>NAN</DistanceMeters>
          </Trackpoint>
          <Trackpoint>
            <Time>2022-07-08T17:39:06.000Z</Time>
            <Position>
              <LatitudeDegrees>43.35516340099275112152099609375</LatitudeDegrees>
              <LongitudeDegrees>-1.8373723514378070831298828125</LongitudeDegrees>
            </Position>
            <AltitudeMeters>285.20001220703125</AltitudeMeters>
            <DistanceMeters>NAN</DistanceMeters>
          </Trackpoint>
          <Trackpoint>
            <Time>2022-07-08T17:39:09.000Z</Time>
            <Position>
              <LatitudeDegrees>43.35508503019809722900390625</LatitudeDegrees>
              <LongitudeDegrees>-1.83740076608955860137939453125</LongitudeDegrees>
            </Position>
            <AltitudeMeters>285.20001220703125</AltitudeMeters>
            <DistanceMeters>NAN</DistanceMeters>
          </Trackpoint>
          <Trackpoint>
            <Time>2022-07-08T17:39:10.000Z</Time>
            <Position>
              <LatitudeDegrees>43.3550597168505191802978515625</LatitudeDegrees>
              <LongitudeDegrees>-1.83741166256368160247802734375</LongitudeDegrees>
            </Position>
            <AltitudeMeters>285.20001220703125</AltitudeMeters>
            <DistanceMeters>NAN</DistanceMeters>
          </Trackpoint>
          <Trackpoint>
            <Time>2022-07-08T17:39:16.000Z</Time>
            <Position>
              <LatitudeDegrees>43.35494496859610080718994140625</LatitudeDegrees>
              <LongitudeDegrees>-1.83751593343913555145263671875</LongitudeDegrees>
            </Position>
            <AltitudeMeters>284.399993896484375</AltitudeMeters>
            <DistanceMeters>NAN</DistanceMeters>
          </Trackpoint>
          <Trackpoint>
            <Time>2022-07-08T17:39:17.000Z</Time>
            <Position>
              <LatitudeDegrees>43.35492904298007488250732421875</LatitudeDegrees>
              <LongitudeDegrees>-1.83753621764481067657470703125</LongitudeDegrees>
            </Position>
            <AltitudeMeters>284.20001220703125</AltitudeMeters>
            <DistanceMeters>NAN</DistanceMeters>
          </Trackpoint>
          <Trackpoint>
            <Time>2022-07-08T17:39:22.000Z</Time>
            <Position>
              <LatitudeDegrees>43.35484572686254978179931640625</LatitudeDegrees>
              <LongitudeDegrees>-1.8376010097563266754150390625</LongitudeDegrees>
            </Position>
            <AltitudeMeters>283.399993896484375</AltitudeMeters>
            <DistanceMeters>NAN</DistanceMeters>
          </Trackpoint>
          <Trackpoint>
            <Time>2022-07-08T17:39:23.000Z</Time>
            <Position>
              <LatitudeDegrees>43.3548297174274921417236328125</LatitudeDegrees>
              <LongitudeDegrees>-1.83762364089488983154296875</LongitudeDegrees>
            </Position>
            <AltitudeMeters>283.399993896484375</AltitudeMeters>
            <DistanceMeters>NAN</DistanceMeters>
          </Trackpoint>
          <Trackpoint>
            <Time>2022-07-08T17:39:25.000Z</Time>
            <Position>
              <LatitudeDegrees>43.35479132831096649169921875</LatitudeDegrees>
              <LongitudeDegrees>-1.8376497924327850341796875</LongitudeDegrees>
            </Position>
            <AltitudeMeters>283.399993896484375</AltitudeMeters>
            <DistanceMeters>NAN</DistanceMeters>
          </Trackpoint>
          <Trackpoint>
            <Time>2022-07-08T17:39:26.000Z</Time>
            <Position>
              <LatitudeDegrees>43.3547757379710674285888671875</LatitudeDegrees>
              <LongitudeDegrees>-1.8376586772501468658447265625</LongitudeDegrees>
            </Position>
            <AltitudeMeters>283.20001220703125</AltitudeMeters>
            <DistanceMeters>NAN</DistanceMeters>
          </Trackpoint>
          <Trackpoint>
            <Time>2022-07-08T17:39:28.000Z</Time>
            <Position>
              <LatitudeDegrees>43.35474967025220394134521484375</LatitudeDegrees>
              <LongitudeDegrees>-1.8376633711159229278564453125</LongitudeDegrees>
            </Position>
            <AltitudeMeters>283.20001220703125</AltitudeMeters>
            <DistanceMeters>NAN</DistanceMeters>
          </Trackpoint>
          <Trackpoint>
            <Time>2022-07-08T17:39:34.000Z</Time>
            <Position>
              <LatitudeDegrees>43.354605250060558319091796875</LatitudeDegrees>
              <LongitudeDegrees>-1.83769145049154758453369140625</LongitudeDegrees>
            </Position>
            <AltitudeMeters>282.79998779296875</AltitudeMeters>
            <DistanceMeters>NAN</DistanceMeters>
          </Trackpoint>
          <Trackpoint>
            <Time>2022-07-08T17:39:39.000Z</Time>
            <Position>
              <LatitudeDegrees>43.35451263003051280975341796875</LatitudeDegrees>
              <LongitudeDegrees>-1.83772380463778972625732421875</LongitudeDegrees>
            </Position>
            <AltitudeMeters>282.20001220703125</AltitudeMeters>
            <DistanceMeters>NAN</DistanceMeters>
          </Trackpoint>
          <Trackpoint>
            <Time>2022-07-08T17:39:40.000Z</Time>
            <Position>
              <LatitudeDegrees>43.35449385456740856170654296875</LatitudeDegrees>
              <LongitudeDegrees>-1.83773092925548553466796875</LongitudeDegrees>
            </Position>
            <AltitudeMeters>282</AltitudeMeters>
            <DistanceMeters>NAN</DistanceMeters>
          </Trackpoint>
          <Trackpoint>
            <Time>2022-07-08T17:39:46.000Z</Time>
            <Position>
              <LatitudeDegrees>43.35442428477108478546142578125</LatitudeDegrees>
              <LongitudeDegrees>-1.83774475939571857452392578125</LongitudeDegrees>
            </Position>
            <AltitudeMeters>281</AltitudeMeters>
            <DistanceMeters>NAN</DistanceMeters>
          </Trackpoint>
          <Trackpoint>
            <Time>2022-07-08T17:39:50.000Z</Time>
            <Position>
              <LatitudeDegrees>43.354425542056560516357421875</LatitudeDegrees>
              <LongitudeDegrees>-1.8377478606998920440673828125</LongitudeDegrees>
            </Position>
            <AltitudeMeters>280.79998779296875</AltitudeMeters>
            <DistanceMeters>NAN</DistanceMeters>
          </Trackpoint>
          <Trackpoint>
            <Time>2022-07-08T17:39:57.000Z</Time>
            <Position>
              <LatitudeDegrees>43.354365192353725433349609375</LatitudeDegrees>
              <LongitudeDegrees>-1.83773453347384929656982421875</LongitudeDegrees>
            </Position>
            <AltitudeMeters>280.600006103515625</AltitudeMeters>
            <DistanceMeters>NAN</DistanceMeters>
          </Trackpoint>
          <Trackpoint>
            <Time>2022-07-08T17:39:59.000Z</Time>
            <Position>
              <LatitudeDegrees>43.35434532724320888519287109375</LatitudeDegrees>
              <LongitudeDegrees>-1.83772648684680461883544921875</LongitudeDegrees>
            </Position>
            <AltitudeMeters>280.600006103515625</AltitudeMeters>
            <DistanceMeters>NAN</DistanceMeters>
          </Trackpoint>
          <Trackpoint>
            <Time>2022-07-08T17:40:06.000Z</Time>
            <Position>
              <LatitudeDegrees>43.3542164973914623260498046875</LatitudeDegrees>
              <LongitudeDegrees>-1.83773805387318134307861328125</LongitudeDegrees>
            </Position>
            <AltitudeMeters>280.20001220703125</AltitudeMeters>
            <DistanceMeters>NAN</DistanceMeters>
          </Trackpoint>
          <Trackpoint>
            <Time>2022-07-08T17:40:08.000Z</Time>
            <Position>
              <LatitudeDegrees>43.354175090789794921875</LatitudeDegrees>
              <LongitudeDegrees>-1.83773151598870754241943359375</LongitudeDegrees>
            </Position>
            <AltitudeMeters>280</AltitudeMeters>
            <DistanceMeters>NAN</DistanceMeters>
          </Trackpoint>
          <Trackpoint>
            <Time>2022-07-08T17:40:13.000Z</Time>
            <Position>
              <LatitudeDegrees>43.354064114391803741455078125</LatitudeDegrees>
              <LongitudeDegrees>-1.83772313408553600311279296875</LongitudeDegrees>
            </Position>
            <AltitudeMeters>279.20001220703125</AltitudeMeters>
            <DistanceMeters>NAN</DistanceMeters>
          </Trackpoint>
          <Trackpoint>
            <Time>2022-07-08T17:40:15.000Z</Time>
            <Position>
              <LatitudeDegrees>43.35399471223354339599609375</LatitudeDegrees>
              <LongitudeDegrees>-1.837728917598724365234375</LongitudeDegrees>
            </Position>
            <AltitudeMeters>279</AltitudeMeters>
            <DistanceMeters>NAN</DistanceMeters>
          </Trackpoint>
          <Trackpoint>
            <Time>2022-07-08T17:40:17.000Z</Time>
            <Position>
              <LatitudeDegrees>43.35394634865224361419677734375</LatitudeDegrees>
              <LongitudeDegrees>-1.83772397227585315704345703125</LongitudeDegrees>
            </Position>
            <AltitudeMeters>279</AltitudeMeters>
            <DistanceMeters>NAN</DistanceMeters>
          </Trackpoint>
          <Trackpoint>
            <Time>2022-07-08T17:40:20.000Z</Time>
            <Position>
              <LatitudeDegrees>43.3539350330829620361328125</LatitudeDegrees>
              <LongitudeDegrees>-1.83772824704647064208984375</LongitudeDegrees>
            </Position>
            <AltitudeMeters>278.79998779296875</AltitudeMeters>
            <DistanceMeters>NAN</DistanceMeters>
          </Trackpoint>
          <Trackpoint>
            <Time>2022-07-08T17:41:08.000Z</Time>
            <Position>
              <LatitudeDegrees>43.35389790125191211700439453125</LatitudeDegrees>
              <LongitudeDegrees>-1.837718188762664794921875</LongitudeDegrees>
            </Position>
            <AltitudeMeters>278.79998779296875</AltitudeMeters>
            <DistanceMeters>NAN</DistanceMeters>
          </Trackpoint>
          <Trackpoint>
            <Time>2022-07-08T17:41:09.000Z</Time>
            <Position>
              <LatitudeDegrees>43.353875689208507537841796875</LatitudeDegrees>
              <LongitudeDegrees>-1.8377136625349521636962890625</LongitudeDegrees>
            </Position>
            <AltitudeMeters>278.79998779296875</AltitudeMeters>
            <DistanceMeters>NAN</DistanceMeters>
          </Trackpoint>
          <Trackpoint>
            <Time>2022-07-08T17:41:11.000Z</Time>
            <Position>
              <LatitudeDegrees>43.35382615216076374053955078125</LatitudeDegrees>
              <LongitudeDegrees>-1.8377005867660045623779296875</LongitudeDegrees>
            </Position>
            <AltitudeMeters>279</AltitudeMeters>
            <DistanceMeters>NAN</DistanceMeters>
          </Trackpoint>
          <Trackpoint>
            <Time>2022-07-08T17:41:13.000Z</Time>
            <Position>
              <LatitudeDegrees>43.35376345552504062652587890625</LatitudeDegrees>
              <LongitudeDegrees>-1.83767954818904399871826171875</LongitudeDegrees>
            </Position>
            <AltitudeMeters>279</AltitudeMeters>
            <DistanceMeters>NAN</DistanceMeters>
          </Trackpoint>
          <Trackpoint>
            <Time>2022-07-08T17:41:14.000Z</Time>
            <Position>
              <LatitudeDegrees>43.35372892208397388458251953125</LatitudeDegrees>
              <LongitudeDegrees>-1.8376590125262737274169921875</LongitudeDegrees>
            </Position>
            <AltitudeMeters>279</AltitudeMeters>
            <DistanceMeters>NAN</DistanceMeters>
          </Trackpoint>
          <Trackpoint>
            <Time>2022-07-08T17:41:16.000Z</Time>
            <Position>
              <LatitudeDegrees>43.35368298925459384918212890625</LatitudeDegrees>
              <LongitudeDegrees>-1.8376254849135875701904296875</LongitudeDegrees>
            </Position>
            <AltitudeMeters>279.20001220703125</AltitudeMeters>
            <DistanceMeters>NAN</DistanceMeters>
          </Trackpoint>
          <Trackpoint>
            <Time>2022-07-08T17:41:19.000Z</Time>
            <Position>
              <LatitudeDegrees>43.3536200411617755889892578125</LatitudeDegrees>
              <LongitudeDegrees>-1.83758986182510852813720703125</LongitudeDegrees>
            </Position>
            <AltitudeMeters>279.600006103515625</AltitudeMeters>
            <DistanceMeters>NAN</DistanceMeters>
          </Trackpoint>
          <Trackpoint>
            <Time>2022-07-08T17:41:24.000Z</Time>
            <Position>
              <LatitudeDegrees>43.353495486080646514892578125</LatitudeDegrees>
              <LongitudeDegrees>-1.83751090429723262786865234375</LongitudeDegrees>
            </Position>
            <AltitudeMeters>280</AltitudeMeters>
            <DistanceMeters>NAN</DistanceMeters>
          </Trackpoint>
          <Trackpoint>
            <Time>2022-07-08T17:41:27.000Z</Time>
            <Position>
              <LatitudeDegrees>43.35344427265226840972900390625</LatitudeDegrees>
              <LongitudeDegrees>-1.8374967388808727264404296875</LongitudeDegrees>
            </Position>
            <AltitudeMeters>280</AltitudeMeters>
            <DistanceMeters>NAN</DistanceMeters>
          </Trackpoint>
          <Trackpoint>
            <Time>2022-07-08T17:41:34.000Z</Time>
            <Position>
              <LatitudeDegrees>43.35324511863291263580322265625</LatitudeDegrees>
              <LongitudeDegrees>-1.8374700844287872314453125</LongitudeDegrees>
            </Position>
            <AltitudeMeters>280</AltitudeMeters>
            <DistanceMeters>NAN</DistanceMeters>
          </Trackpoint>
          <Trackpoint>
            <Time>2022-07-08T17:41:40.000Z</Time>
            <Position>
              <LatitudeDegrees>43.353088796138763427734375</LatitudeDegrees>
              <LongitudeDegrees>-1.837437562644481658935546875</LongitudeDegrees>
            </Position>
            <AltitudeMeters>279.79998779296875</AltitudeMeters>
            <DistanceMeters>NAN</DistanceMeters>
          </Trackpoint>
          <Trackpoint>
            <Time>2022-07-08T17:41:42.000Z</Time>
            <Position>
              <LatitudeDegrees>43.3530416898429393768310546875</LatitudeDegrees>
              <LongitudeDegrees>-1.8374266661703586578369140625</LongitudeDegrees>
            </Position>
            <AltitudeMeters>279.79998779296875</AltitudeMeters>
            <DistanceMeters>NAN</DistanceMeters>
          </Trackpoint>
          <Trackpoint>
            <Time>2022-07-08T17:41:50.000Z</Time>
            <Position>
              <LatitudeDegrees>43.3528586290776729583740234375</LatitudeDegrees>
              <LongitudeDegrees>-1.83740663342177867889404296875</LongitudeDegrees>
            </Position>
            <AltitudeMeters>279.20001220703125</AltitudeMeters>
            <DistanceMeters>NAN</DistanceMeters>
          </Trackpoint>
          <Trackpoint>
            <Time>2022-07-08T17:41:54.000Z</Time>
            <Position>
              <LatitudeDegrees>43.3528163842856884002685546875</LatitudeDegrees>
              <LongitudeDegrees>-1.83741551823914051055908203125</LongitudeDegrees>
            </Position>
            <AltitudeMeters>279</AltitudeMeters>
            <DistanceMeters>NAN</DistanceMeters>
          </Trackpoint>
          <Trackpoint>
            <Time>2022-07-08T17:41:55.000Z</Time>
            <Position>
              <LatitudeDegrees>43.3528163842856884002685546875</LatitudeDegrees>
              <LongitudeDegrees>-1.83741551823914051055908203125</LongitudeDegrees>
            </Position>
            <AltitudeMeters>279</AltitudeMeters>
            <DistanceMeters>NAN</DistanceMeters>
          </Trackpoint>
          <Trackpoint>
            <Time>2022-07-08T17:42:38.000Z</Time>
            <Position>
              <LatitudeDegrees>43.35275419056415557861328125</LatitudeDegrees>
              <LongitudeDegrees>-1.83743881992995738983154296875</LongitudeDegrees>
            </Position>
            <AltitudeMeters>278.399993896484375</AltitudeMeters>
            <DistanceMeters>NAN</DistanceMeters>
          </Trackpoint>
          <Trackpoint>
            <Time>2022-07-08T17:42:39.000Z</Time>
            <Position>
              <LatitudeDegrees>43.3527295477688312530517578125</LatitudeDegrees>
              <LongitudeDegrees>-1.83744887821376323699951171875</LongitudeDegrees>
            </Position>
            <AltitudeMeters>278.399993896484375</AltitudeMeters>
            <DistanceMeters>NAN</DistanceMeters>
          </Trackpoint>
          <Trackpoint>
            <Time>2022-07-08T17:42:40.000Z</Time>
            <Position>
              <LatitudeDegrees>43.35270431824028491973876953125</LatitudeDegrees>
              <LongitudeDegrees>-1.83745139278471469879150390625</LongitudeDegrees>
            </Position>
            <AltitudeMeters>278.20001220703125</AltitudeMeters>
            <DistanceMeters>NAN</DistanceMeters>
          </Trackpoint>
          <Trackpoint>
            <Time>2022-07-08T17:42:44.000Z</Time>
            <Position>
              <LatitudeDegrees>43.352616727352142333984375</LatitudeDegrees>
              <LongitudeDegrees>-1.83746564202010631561279296875</LongitudeDegrees>
            </Position>
            <AltitudeMeters>278</AltitudeMeters>
            <DistanceMeters>NAN</DistanceMeters>
          </Trackpoint>
          <Trackpoint>
            <Time>2022-07-08T17:42:48.000Z</Time>
            <Position>
              <LatitudeDegrees>43.35253869183361530303955078125</LatitudeDegrees>
              <LongitudeDegrees>-1.83747167699038982391357421875</LongitudeDegrees>
            </Position>
            <AltitudeMeters>277.79998779296875</AltitudeMeters>
            <DistanceMeters>NAN</DistanceMeters>
          </Trackpoint>
          <Trackpoint>
            <Time>2022-07-08T17:42:52.000Z</Time>
            <Position>
              <LatitudeDegrees>43.35251949727535247802734375</LatitudeDegrees>
              <LongitudeDegrees>-1.83747787959873676300048828125</LongitudeDegrees>
            </Position>
            <AltitudeMeters>277.79998779296875</AltitudeMeters>
            <DistanceMeters>NAN</DistanceMeters>
          </Trackpoint>
          <Trackpoint>
            <Time>2022-07-08T17:44:02.000Z</Time>
            <Position>
              <LatitudeDegrees>43.3525045774877071380615234375</LatitudeDegrees>
              <LongitudeDegrees>-1.83751224540174007415771484375</LongitudeDegrees>
            </Position>
            <AltitudeMeters>278</AltitudeMeters>
            <DistanceMeters>NAN</DistanceMeters>
          </Trackpoint>
          <Trackpoint>
            <Time>2022-07-08T17:44:03.000Z</Time>
            <Position>
              <LatitudeDegrees>43.3524915017187595367431640625</LatitudeDegrees>
              <LongitudeDegrees>-1.8375285901129245758056640625</LongitudeDegrees>
            </Position>
            <AltitudeMeters>278</AltitudeMeters>
            <DistanceMeters>NAN</DistanceMeters>
          </Trackpoint>
          <Trackpoint>
            <Time>2022-07-08T17:44:08.000Z</Time>
            <Position>
              <LatitudeDegrees>43.35243157111108303070068359375</LatitudeDegrees>
              <LongitudeDegrees>-1.837646774947643280029296875</LongitudeDegrees>
            </Position>
            <AltitudeMeters>278.20001220703125</AltitudeMeters>
            <DistanceMeters>NAN</DistanceMeters>
          </Trackpoint>
          <Trackpoint>
            <Time>2022-07-08T17:44:15.000Z</Time>
            <Position>
              <LatitudeDegrees>43.35232109762728214263916015625</LatitudeDegrees>
              <LongitudeDegrees>-1.83782086707651615142822265625</LongitudeDegrees>
            </Position>
            <AltitudeMeters>278.600006103515625</AltitudeMeters>
            <DistanceMeters>NAN</DistanceMeters>
          </Trackpoint>
          <Trackpoint>
            <Time>2022-07-08T17:44:16.000Z</Time>
            <Position>
              <LatitudeDegrees>43.35230651311576366424560546875</LatitudeDegrees>
              <LongitudeDegrees>-1.8378507904708385467529296875</LongitudeDegrees>
            </Position>
            <AltitudeMeters>278.600006103515625</AltitudeMeters>
            <DistanceMeters>NAN</DistanceMeters>
          </Trackpoint>
          <Trackpoint>
            <Time>2022-07-08T17:44:24.000Z</Time>
            <Position>
              <LatitudeDegrees>43.35220567882061004638671875</LatitudeDegrees>
              <LongitudeDegrees>-1.8380965478718280792236328125</LongitudeDegrees>
            </Position>
            <AltitudeMeters>278.79998779296875</AltitudeMeters>
            <DistanceMeters>NAN</DistanceMeters>
          </Trackpoint>
          <Trackpoint>
            <Time>2022-07-08T17:44:32.000Z</Time>
            <Position>
              <LatitudeDegrees>43.3520896732807159423828125</LatitudeDegrees>
              <LongitudeDegrees>-1.83832931332290172576904296875</LongitudeDegrees>
            </Position>
            <AltitudeMeters>278.79998779296875</AltitudeMeters>
            <DistanceMeters>NAN</DistanceMeters>
          </Trackpoint>
          <Trackpoint>
            <Time>2022-07-08T17:44:38.000Z</Time>
            <Position>
              <LatitudeDegrees>43.3520278148353099822998046875</LatitudeDegrees>
              <LongitudeDegrees>-1.838504411280155181884765625</LongitudeDegrees>
            </Position>
            <AltitudeMeters>278.399993896484375</AltitudeMeters>
            <DistanceMeters>NAN</DistanceMeters>
          </Trackpoint>
          <Trackpoint>
            <Time>2022-07-08T17:44:42.000Z</Time>
            <Position>
              <LatitudeDegrees>43.35198950953781604766845703125</LatitudeDegrees>
              <LongitudeDegrees>-1.83863122947514057159423828125</LongitudeDegrees>
            </Position>
            <AltitudeMeters>278.20001220703125</AltitudeMeters>
            <DistanceMeters>NAN</DistanceMeters>
          </Trackpoint>
          <Trackpoint>
            <Time>2022-07-08T17:44:44.000Z</Time>
            <Position>
              <LatitudeDegrees>43.35197542794048786163330078125</LatitudeDegrees>
              <LongitudeDegrees>-1.83869518339633941650390625</LongitudeDegrees>
            </Position>
            <AltitudeMeters>278.20001220703125</AltitudeMeters>
            <DistanceMeters>NAN</DistanceMeters>
          </Trackpoint>
          <Trackpoint>
            <Time>2022-07-08T17:44:50.000Z</Time>
            <Position>
              <LatitudeDegrees>43.35194860585033893585205078125</LatitudeDegrees>
              <LongitudeDegrees>-1.8388244323432445526123046875</LongitudeDegrees>
            </Position>
            <AltitudeMeters>278.20001220703125</AltitudeMeters>
            <DistanceMeters>NAN</DistanceMeters>
          </Trackpoint>
          <Trackpoint>
            <Time>2022-07-08T17:44:56.000Z</Time>
            <Position>
              <LatitudeDegrees>43.35189227946102619171142578125</LatitudeDegrees>
              <LongitudeDegrees>-1.83898410759866237640380859375</LongitudeDegrees>
            </Position>
            <AltitudeMeters>278.600006103515625</AltitudeMeters>
            <DistanceMeters>NAN</DistanceMeters>
          </Trackpoint>
          <Trackpoint>
            <Time>2022-07-08T17:45:01.000Z</Time>
            <Position>
              <LatitudeDegrees>43.35187132470309734344482421875</LatitudeDegrees>
              <LongitudeDegrees>-1.8391422741115093231201171875</LongitudeDegrees>
            </Position>
            <AltitudeMeters>279</AltitudeMeters>
            <DistanceMeters>NAN</DistanceMeters>
          </Trackpoint>
          <Trackpoint>
            <Time>2022-07-08T17:45:02.000Z</Time>
            <Position>
              <LatitudeDegrees>43.3518643677234649658203125</LatitudeDegrees>
              <LongitudeDegrees>-1.83917806483805179595947265625</LongitudeDegrees>
            </Position>
            <AltitudeMeters>279</AltitudeMeters>
            <DistanceMeters>NAN</DistanceMeters>
          </Trackpoint>
          <Trackpoint>
            <Time>2022-07-08T17:45:09.000Z</Time>
            <Position>
              <LatitudeDegrees>43.35176873020827770233154296875</LatitudeDegrees>
              <LongitudeDegrees>-1.83941158466041088104248046875</LongitudeDegrees>
            </Position>
            <AltitudeMeters>278.79998779296875</AltitudeMeters>
            <DistanceMeters>NAN</DistanceMeters>
          </Trackpoint>
          <Trackpoint>
            <Time>2022-07-08T17:45:18.000Z</Time>
            <Position>
              <LatitudeDegrees>43.35161802358925342559814453125</LatitudeDegrees>
              <LongitudeDegrees>-1.8396163545548915863037109375</LongitudeDegrees>
            </Position>
            <AltitudeMeters>278.600006103515625</AltitudeMeters>
            <DistanceMeters>NAN</DistanceMeters>
          </Trackpoint>
          <Trackpoint>
            <Time>2022-07-08T17:45:24.000Z</Time>
            <Position>
              <LatitudeDegrees>43.35152347572147846221923828125</LatitudeDegrees>
              <LongitudeDegrees>-1.83974585495889186859130859375</LongitudeDegrees>
            </Position>
            <AltitudeMeters>278.600006103515625</AltitudeMeters>
            <DistanceMeters>NAN</DistanceMeters>
          </Trackpoint>
          <Trackpoint>
            <Time>2022-07-08T17:45:27.000Z</Time>
            <Position>
              <LatitudeDegrees>43.35147838108241558074951171875</LatitudeDegrees>
              <LongitudeDegrees>-1.83980050496757030487060546875</LongitudeDegrees>
            </Position>
            <AltitudeMeters>278.600006103515625</AltitudeMeters>
            <DistanceMeters>NAN</DistanceMeters>
          </Trackpoint>
          <Trackpoint>
            <Time>2022-07-08T17:45:29.000Z</Time>
            <Position>
              <LatitudeDegrees>43.35145876742899417877197265625</LatitudeDegrees>
              <LongitudeDegrees>-1.8398503772914409637451171875</LongitudeDegrees>
            </Position>
            <AltitudeMeters>278.600006103515625</AltitudeMeters>
            <DistanceMeters>NAN</DistanceMeters>
          </Trackpoint>
          <Trackpoint>
            <Time>2022-07-08T17:45:33.000Z</Time>
            <Position>
              <LatitudeDegrees>43.351390622556209564208984375</LatitudeDegrees>
              <LongitudeDegrees>-1.8399412371218204498291015625</LongitudeDegrees>
            </Position>
            <AltitudeMeters>278.600006103515625</AltitudeMeters>
            <DistanceMeters>NAN</DistanceMeters>
          </Trackpoint>
          <Trackpoint>
            <Time>2022-07-08T17:45:35.000Z</Time>
            <Position>
              <LatitudeDegrees>43.35135466419160366058349609375</LatitudeDegrees>
              <LongitudeDegrees>-1.8399466015398502349853515625</LongitudeDegrees>
            </Position>
            <AltitudeMeters>278.79998779296875</AltitudeMeters>
            <DistanceMeters>NAN</DistanceMeters>
          </Trackpoint>
          <Trackpoint>
            <Time>2022-07-08T17:45:37.000Z</Time>
            <Position>
              <LatitudeDegrees>43.35132725536823272705078125</LatitudeDegrees>
              <LongitudeDegrees>-1.83995355851948261260986328125</LongitudeDegrees>
            </Position>
            <AltitudeMeters>279</AltitudeMeters>
            <DistanceMeters>NAN</DistanceMeters>
          </Trackpoint>
          <Trackpoint>
            <Time>2022-07-08T17:45:40.000Z</Time>
            <Position>
              <LatitudeDegrees>43.351287357509136199951171875</LatitudeDegrees>
              <LongitudeDegrees>-1.83998859487473964691162109375</LongitudeDegrees>
            </Position>
            <AltitudeMeters>279</AltitudeMeters>
            <DistanceMeters>NAN</DistanceMeters>
          </Trackpoint>
          <Trackpoint>
            <Time>2022-07-08T17:45:46.000Z</Time>
            <Position>
              <LatitudeDegrees>43.3511936478316783905029296875</LatitudeDegrees>
              <LongitudeDegrees>-1.84002111665904521942138671875</LongitudeDegrees>
            </Position>
            <AltitudeMeters>279.20001220703125</AltitudeMeters>
            <DistanceMeters>NAN</DistanceMeters>
          </Trackpoint>
          <Trackpoint>
            <Time>2022-07-08T17:45:47.000Z</Time>
            <Position>
              <LatitudeDegrees>43.35116791538894176483154296875</LatitudeDegrees>
              <LongitudeDegrees>-1.840029917657375335693359375</LongitudeDegrees>
            </Position>
            <AltitudeMeters>279.20001220703125</AltitudeMeters>
            <DistanceMeters>NAN</DistanceMeters>
          </Trackpoint>
          <Trackpoint>
            <Time>2022-07-08T17:45:51.000Z</Time>
            <Position>
              <LatitudeDegrees>43.35108024068176746368408203125</LatitudeDegrees>
              <LongitudeDegrees>-1.8400646187365055084228515625</LongitudeDegrees>
            </Position>
            <AltitudeMeters>279.20001220703125</AltitudeMeters>
            <DistanceMeters>NAN</DistanceMeters>
          </Trackpoint>
          <Trackpoint>
            <Time>2022-07-08T17:45:52.000Z</Time>
            <Position>
              <LatitudeDegrees>43.35106314159929752349853515625</LatitudeDegrees>
              <LongitudeDegrees>-1.84006713330745697021484375</LongitudeDegrees>
            </Position>
            <AltitudeMeters>279.20001220703125</AltitudeMeters>
            <DistanceMeters>NAN</DistanceMeters>
          </Trackpoint>
          <Trackpoint>
            <Time>2022-07-08T17:45:58.000Z</Time>
            <Position>
              <LatitudeDegrees>43.35095308721065521240234375</LatitudeDegrees>
              <LongitudeDegrees>-1.84009856544435024261474609375</LongitudeDegrees>
            </Position>
            <AltitudeMeters>279.20001220703125</AltitudeMeters>
            <DistanceMeters>NAN</DistanceMeters>
          </Trackpoint>
          <Trackpoint>
            <Time>2022-07-08T17:46:05.000Z</Time>
            <Position>
              <LatitudeDegrees>43.3508107624948024749755859375</LatitudeDegrees>
              <LongitudeDegrees>-1.84016997925937175750732421875</LongitudeDegrees>
            </Position>
            <AltitudeMeters>279.20001220703125</AltitudeMeters>
            <DistanceMeters>NAN</DistanceMeters>
          </Trackpoint>
          <Trackpoint>
            <Time>2022-07-08T17:46:11.000Z</Time>
            <Position>
              <LatitudeDegrees>43.35067070089280605316162109375</LatitudeDegrees>
              <LongitudeDegrees>-1.8402166664600372314453125</LongitudeDegrees>
            </Position>
            <AltitudeMeters>279.20001220703125</AltitudeMeters>
            <DistanceMeters>NAN</DistanceMeters>
          </Trackpoint>
          <Trackpoint>
            <Time>2022-07-08T17:46:12.000Z</Time>
            <Position>
              <LatitudeDegrees>43.3506515063345432281494140625</LatitudeDegrees>
              <LongitudeDegrees>-1.840224377810955047607421875</LongitudeDegrees>
            </Position>
            <AltitudeMeters>279.20001220703125</AltitudeMeters>
            <DistanceMeters>NAN</DistanceMeters>
          </Trackpoint>
          <Trackpoint>
            <Time>2022-07-08T17:46:15.000Z</Time>
            <Position>
              <LatitudeDegrees>43.35058403201401233673095703125</LatitudeDegrees>
              <LongitudeDegrees>-1.84023074805736541748046875</LongitudeDegrees>
            </Position>
            <AltitudeMeters>279.600006103515625</AltitudeMeters>
            <DistanceMeters>NAN</DistanceMeters>
          </Trackpoint>
          <Trackpoint>
            <Time>2022-07-08T17:46:18.000Z</Time>
            <Position>
              <LatitudeDegrees>43.3505485765635967254638671875</LatitudeDegrees>
              <LongitudeDegrees>-1.84025664813816547393798828125</LongitudeDegrees>
            </Position>
            <AltitudeMeters>279.79998779296875</AltitudeMeters>
            <DistanceMeters>NAN</DistanceMeters>
          </Trackpoint>
          <Trackpoint>
            <Time>2022-07-08T17:46:19.000Z</Time>
            <Position>
              <LatitudeDegrees>43.3505375124514102935791015625</LatitudeDegrees>
              <LongitudeDegrees>-1.8402674607932567596435546875</LongitudeDegrees>
            </Position>
            <AltitudeMeters>280</AltitudeMeters>
            <DistanceMeters>NAN</DistanceMeters>
          </Trackpoint>
          <Trackpoint>
            <Time>2022-07-08T17:46:22.000Z</Time>
            <Position>
              <LatitudeDegrees>43.3504919148981571197509765625</LatitudeDegrees>
              <LongitudeDegrees>-1.84029637835919857025146484375</LongitudeDegrees>
            </Position>
            <AltitudeMeters>280</AltitudeMeters>
            <DistanceMeters>NAN</DistanceMeters>
          </Trackpoint>
          <Trackpoint>
            <Time>2022-07-08T17:46:23.000Z</Time>
            <Position>
              <LatitudeDegrees>43.350468613207340240478515625</LatitudeDegrees>
              <LongitudeDegrees>-1.84030526317656040191650390625</LongitudeDegrees>
            </Position>
            <AltitudeMeters>280.20001220703125</AltitudeMeters>
            <DistanceMeters>NAN</DistanceMeters>
          </Trackpoint>
          <Trackpoint>
            <Time>2022-07-08T17:46:28.000Z</Time>
            <Position>
              <LatitudeDegrees>43.3503692038357257843017578125</LatitudeDegrees>
              <LongitudeDegrees>-1.840341053903102874755859375</LongitudeDegrees>
            </Position>
            <AltitudeMeters>280.399993896484375</AltitudeMeters>
            <DistanceMeters>NAN</DistanceMeters>
          </Trackpoint>
          <Trackpoint>
            <Time>2022-07-08T17:46:35.000Z</Time>
            <Position>
              <LatitudeDegrees>43.35020014084875583648681640625</LatitudeDegrees>
              <LongitudeDegrees>-1.8403539620339870452880859375</LongitudeDegrees>
            </Position>
            <AltitudeMeters>280.600006103515625</AltitudeMeters>
            <DistanceMeters>NAN</DistanceMeters>
          </Trackpoint>
          <Trackpoint>
            <Time>2022-07-08T17:46:36.000Z</Time>
            <Position>
              <LatitudeDegrees>43.35017700679600238800048828125</LatitudeDegrees>
              <LongitudeDegrees>-1.8403435684740543365478515625</LongitudeDegrees>
            </Position>
            <AltitudeMeters>280.79998779296875</AltitudeMeters>
            <DistanceMeters>NAN</DistanceMeters>
          </Trackpoint>
          <Trackpoint>
            <Time>2022-07-08T17:46:41.000Z</Time>
            <Position>
              <LatitudeDegrees>43.3500845544040203094482421875</LatitudeDegrees>
              <LongitudeDegrees>-1.84034499339759349822998046875</LongitudeDegrees>
            </Position>
            <AltitudeMeters>281</AltitudeMeters>
            <DistanceMeters>NAN</DistanceMeters>
          </Trackpoint>
          <Trackpoint>
            <Time>2022-07-08T17:46:43.000Z</Time>
            <Position>
              <LatitudeDegrees>43.35004381835460662841796875</LatitudeDegrees>
              <LongitudeDegrees>-1.84035052545368671417236328125</LongitudeDegrees>
            </Position>
            <AltitudeMeters>281</AltitudeMeters>
            <DistanceMeters>NAN</DistanceMeters>
          </Trackpoint>
          <Trackpoint>
            <Time>2022-07-08T17:46:44.000Z</Time>
            <Position>
              <LatitudeDegrees>43.3500128053128719329833984375</LatitudeDegrees>
              <LongitudeDegrees>-1.84034868143498897552490234375</LongitudeDegrees>
            </Position>
            <AltitudeMeters>281.20001220703125</AltitudeMeters>
            <DistanceMeters>NAN</DistanceMeters>
          </Trackpoint>
          <Trackpoint>
            <Time>2022-07-08T17:46:50.000Z</Time>
            <Position>
              <LatitudeDegrees>43.3498728275299072265625</LatitudeDegrees>
              <LongitudeDegrees>-1.84033409692347049713134765625</LongitudeDegrees>
            </Position>
            <AltitudeMeters>281.600006103515625</AltitudeMeters>
            <DistanceMeters>NAN</DistanceMeters>
          </Trackpoint>
          <Trackpoint>
            <Time>2022-07-08T17:46:55.000Z</Time>
            <Position>
              <LatitudeDegrees>43.34980300627648830413818359375</LatitudeDegrees>
              <LongitudeDegrees>-1.84030844829976558685302734375</LongitudeDegrees>
            </Position>
            <AltitudeMeters>281.600006103515625</AltitudeMeters>
            <DistanceMeters>NAN</DistanceMeters>
          </Trackpoint>
          <Trackpoint>
            <Time>2022-07-08T17:46:56.000Z</Time>
            <Position>
              <LatitudeDegrees>43.349794037640094757080078125</LatitudeDegrees>
              <LongitudeDegrees>-1.84031213633716106414794921875</LongitudeDegrees>
            </Position>
            <AltitudeMeters>281.600006103515625</AltitudeMeters>
            <DistanceMeters>NAN</DistanceMeters>
          </Trackpoint>
          <Trackpoint>
            <Time>2022-07-08T17:46:58.000Z</Time>
            <Position>
              <LatitudeDegrees>43.34978071041405200958251953125</LatitudeDegrees>
              <LongitudeDegrees>-1.84031599201261997222900390625</LongitudeDegrees>
            </Position>
            <AltitudeMeters>281.79998779296875</AltitudeMeters>
            <DistanceMeters>NAN</DistanceMeters>
          </Trackpoint>
          <Trackpoint>
            <Time>2022-07-08T17:47:01.000Z</Time>
            <Position>
              <LatitudeDegrees>43.34977132268249988555908203125</LatitudeDegrees>
              <LongitudeDegrees>-1.84033862315118312835693359375</LongitudeDegrees>
            </Position>
            <AltitudeMeters>281.79998779296875</AltitudeMeters>
            <DistanceMeters>NAN</DistanceMeters>
          </Trackpoint>
          <Trackpoint>
            <Time>2022-07-08T17:47:04.000Z</Time>
            <Position>
              <LatitudeDegrees>43.34977534599602222442626953125</LatitudeDegrees>
              <LongitudeDegrees>-1.8403941951692104339599609375</LongitudeDegrees>
            </Position>
            <AltitudeMeters>281.79998779296875</AltitudeMeters>
            <DistanceMeters>NAN</DistanceMeters>
          </Trackpoint>
          <Trackpoint>
            <Time>2022-07-08T17:47:06.000Z</Time>
            <Position>
              <LatitudeDegrees>43.34975640289485454559326171875</LatitudeDegrees>
              <LongitudeDegrees>-1.84043417684733867645263671875</LongitudeDegrees>
            </Position>
            <AltitudeMeters>282</AltitudeMeters>
            <DistanceMeters>NAN</DistanceMeters>
          </Trackpoint>
          <Trackpoint>
            <Time>2022-07-08T17:47:09.000Z</Time>
            <Position>
              <LatitudeDegrees>43.34970661439001560211181640625</LatitudeDegrees>
              <LongitudeDegrees>-1.8405329994857311248779296875</LongitudeDegrees>
            </Position>
            <AltitudeMeters>282.20001220703125</AltitudeMeters>
            <DistanceMeters>NAN</DistanceMeters>
          </Trackpoint>
          <Trackpoint>
            <Time>2022-07-08T17:47:12.000Z</Time>
            <Position>
              <LatitudeDegrees>43.3496600948274135589599609375</LatitudeDegrees>
              <LongitudeDegrees>-1.8405886553227901458740234375</LongitudeDegrees>
            </Position>
            <AltitudeMeters>282.600006103515625</AltitudeMeters>
            <DistanceMeters>NAN</DistanceMeters>
          </Trackpoint>
          <Trackpoint>
            <Time>2022-07-08T17:47:14.000Z</Time>
            <Position>
              <LatitudeDegrees>43.34962547756731510162353515625</LatitudeDegrees>
              <LongitudeDegrees>-1.84062142856419086456298828125</LongitudeDegrees>
            </Position>
            <AltitudeMeters>282.600006103515625</AltitudeMeters>
            <DistanceMeters>NAN</DistanceMeters>
          </Trackpoint>
          <Trackpoint>
            <Time>2022-07-08T17:47:17.000Z</Time>
            <Position>
              <LatitudeDegrees>43.3495938777923583984375</LatitudeDegrees>
              <LongitudeDegrees>-1.84073307551443576812744140625</LongitudeDegrees>
            </Position>
            <AltitudeMeters>282.79998779296875</AltitudeMeters>
            <DistanceMeters>NAN</DistanceMeters>
          </Trackpoint>
          <Trackpoint>
            <Time>2022-07-08T17:47:21.000Z</Time>
            <Position>
              <LatitudeDegrees>43.34953956305980682373046875</LatitudeDegrees>
              <LongitudeDegrees>-1.84085427783429622650146484375</LongitudeDegrees>
            </Position>
            <AltitudeMeters>283</AltitudeMeters>
            <DistanceMeters>NAN</DistanceMeters>
          </Trackpoint>
          <Trackpoint>
            <Time>2022-07-08T17:47:24.000Z</Time>
            <Position>
              <LatitudeDegrees>43.34950561635196208953857421875</LatitudeDegrees>
              <LongitudeDegrees>-1.84100029058754444122314453125</LongitudeDegrees>
            </Position>
            <AltitudeMeters>283.20001220703125</AltitudeMeters>
            <DistanceMeters>NAN</DistanceMeters>
          </Trackpoint>
          <Trackpoint>
            <Time>2022-07-08T17:47:27.000Z</Time>
            <Position>
              <LatitudeDegrees>43.3494408242404460906982421875</LatitudeDegrees>
              <LongitudeDegrees>-1.84106198139488697052001953125</LongitudeDegrees>
            </Position>
            <AltitudeMeters>283.20001220703125</AltitudeMeters>
            <DistanceMeters>NAN</DistanceMeters>
          </Trackpoint>
          <Trackpoint>
            <Time>2022-07-08T17:47:30.000Z</Time>
            <Position>
              <LatitudeDegrees>43.3493938855826854705810546875</LatitudeDegrees>
              <LongitudeDegrees>-1.84114110656082630157470703125</LongitudeDegrees>
            </Position>
            <AltitudeMeters>283.20001220703125</AltitudeMeters>
            <DistanceMeters>NAN</DistanceMeters>
          </Trackpoint>
          <Trackpoint>
            <Time>2022-07-08T17:47:31.000Z</Time>
            <Position>
              <LatitudeDegrees>43.34938441403210163116455078125</LatitudeDegrees>
              <LongitudeDegrees>-1.8411653302609920501708984375</LongitudeDegrees>
            </Position>
            <AltitudeMeters>283.20001220703125</AltitudeMeters>
            <DistanceMeters>NAN</DistanceMeters>
          </Trackpoint>
          <Trackpoint>
            <Time>2022-07-08T17:47:35.000Z</Time>
            <Position>
              <LatitudeDegrees>43.34935356862843036651611328125</LatitudeDegrees>
              <LongitudeDegrees>-1.84136666357517242431640625</LongitudeDegrees>
            </Position>
            <AltitudeMeters>283</AltitudeMeters>
            <DistanceMeters>NAN</DistanceMeters>
          </Trackpoint>
          <Trackpoint>
            <Time>2022-07-08T17:47:41.000Z</Time>
            <Position>
              <LatitudeDegrees>43.34926187060773372650146484375</LatitudeDegrees>
              <LongitudeDegrees>-1.8415725231170654296875</LongitudeDegrees>
            </Position>
            <AltitudeMeters>282.399993896484375</AltitudeMeters>
            <DistanceMeters>NAN</DistanceMeters>
          </Trackpoint>
          <Trackpoint>
            <Time>2022-07-08T17:47:42.000Z</Time>
            <Position>
              <LatitudeDegrees>43.3492470346391201019287109375</LatitudeDegrees>
              <LongitudeDegrees>-1.8416062183678150177001953125</LongitudeDegrees>
            </Position>
            <AltitudeMeters>282.399993896484375</AltitudeMeters>
            <DistanceMeters>NAN</DistanceMeters>
          </Trackpoint>
          <Trackpoint>
            <Time>2022-07-08T17:47:44.000Z</Time>
            <Position>
              <LatitudeDegrees>43.3492239005863666534423828125</LatitudeDegrees>
              <LongitudeDegrees>-1.84168006293475627899169921875</LongitudeDegrees>
            </Position>
            <AltitudeMeters>282.399993896484375</AltitudeMeters>
            <DistanceMeters>NAN</DistanceMeters>
          </Trackpoint>
          <Trackpoint>
            <Time>2022-07-08T17:47:48.000Z</Time>
            <Position>
              <LatitudeDegrees>43.3491633832454681396484375</LatitudeDegrees>
              <LongitudeDegrees>-1.84176765382289886474609375</LongitudeDegrees>
            </Position>
            <AltitudeMeters>282.399993896484375</AltitudeMeters>
            <DistanceMeters>NAN</DistanceMeters>
          </Trackpoint>
          <Trackpoint>
            <Time>2022-07-08T17:47:52.000Z</Time>
            <Position>
              <LatitudeDegrees>43.3491075597703456878662109375</LatitudeDegrees>
              <LongitudeDegrees>-1.8418737687170505523681640625</LongitudeDegrees>
            </Position>
            <AltitudeMeters>282.399993896484375</AltitudeMeters>
            <DistanceMeters>NAN</DistanceMeters>
          </Trackpoint>
          <Trackpoint>
            <Time>2022-07-08T17:47:59.000Z</Time>
            <Position>
              <LatitudeDegrees>43.34900270216166973114013671875</LatitudeDegrees>
              <LongitudeDegrees>-1.84204249642789363861083984375</LongitudeDegrees>
            </Position>
            <AltitudeMeters>282.600006103515625</AltitudeMeters>
            <DistanceMeters>NAN</DistanceMeters>
          </Trackpoint>
          <Trackpoint>
            <Time>2022-07-08T17:48:04.000Z</Time>
            <Position>
              <LatitudeDegrees>43.34892659448087215423583984375</LatitudeDegrees>
              <LongitudeDegrees>-1.84210695326328277587890625</LongitudeDegrees>
            </Position>
            <AltitudeMeters>282.600006103515625</AltitudeMeters>
            <DistanceMeters>NAN</DistanceMeters>
          </Trackpoint>
          <Trackpoint>
            <Time>2022-07-08T17:48:09.000Z</Time>
            <Position>
              <LatitudeDegrees>43.3488269336521625518798828125</LatitudeDegrees>
              <LongitudeDegrees>-1.842205189168453216552734375</LongitudeDegrees>
            </Position>
            <AltitudeMeters>282.399993896484375</AltitudeMeters>
            <DistanceMeters>NAN</DistanceMeters>
          </Trackpoint>
          <Trackpoint>
            <Time>2022-07-08T17:48:10.000Z</Time>
            <Position>
              <LatitudeDegrees>43.34880053065717220306396484375</LatitudeDegrees>
              <LongitudeDegrees>-1.84222354553639888763427734375</LongitudeDegrees>
            </Position>
            <AltitudeMeters>282.399993896484375</AltitudeMeters>
            <DistanceMeters>NAN</DistanceMeters>
          </Trackpoint>
          <Trackpoint>
            <Time>2022-07-08T17:48:16.000Z</Time>
            <Position>
              <LatitudeDegrees>43.34871000610291957855224609375</LatitudeDegrees>
              <LongitudeDegrees>-1.84225003235042095184326171875</LongitudeDegrees>
            </Position>
            <AltitudeMeters>282.20001220703125</AltitudeMeters>
            <DistanceMeters>NAN</DistanceMeters>
          </Trackpoint>
          <Trackpoint>
            <Time>2022-07-08T17:48:41.000Z</Time>
            <Position>
              <LatitudeDegrees>43.3486485667526721954345703125</LatitudeDegrees>
              <LongitudeDegrees>-1.842282973229885101318359375</LongitudeDegrees>
            </Position>
            <AltitudeMeters>282.399993896484375</AltitudeMeters>
            <DistanceMeters>NAN</DistanceMeters>
          </Trackpoint>
          <Trackpoint>
            <Time>2022-07-08T17:48:43.000Z</Time>
            <Position>
              <LatitudeDegrees>43.3485996164381504058837890625</LatitudeDegrees>
              <LongitudeDegrees>-1.84231725521385669708251953125</LongitudeDegrees>
            </Position>
            <AltitudeMeters>282.399993896484375</AltitudeMeters>
            <DistanceMeters>NAN</DistanceMeters>
          </Trackpoint>
          <Trackpoint>
            <Time>2022-07-08T17:48:47.000Z</Time>
            <Position>
              <LatitudeDegrees>43.34848905913531780242919921875</LatitudeDegrees>
              <LongitudeDegrees>-1.84235665015876293182373046875</LongitudeDegrees>
            </Position>
            <AltitudeMeters>282.600006103515625</AltitudeMeters>
            <DistanceMeters>NAN</DistanceMeters>
          </Trackpoint>
          <Trackpoint>
            <Time>2022-07-08T17:48:51.000Z</Time>
            <Position>
              <LatitudeDegrees>43.34838143549859523773193359375</LatitudeDegrees>
              <LongitudeDegrees>-1.84238900430500507354736328125</LongitudeDegrees>
            </Position>
            <AltitudeMeters>283.20001220703125</AltitudeMeters>
            <DistanceMeters>NAN</DistanceMeters>
          </Trackpoint>
          <Trackpoint>
            <Time>2022-07-08T17:48:57.000Z</Time>
            <Position>
              <LatitudeDegrees>43.3481992967426776885986328125</LatitudeDegrees>
              <LongitudeDegrees>-1.84251422993838787078857421875</LongitudeDegrees>
            </Position>
            <AltitudeMeters>283.399993896484375</AltitudeMeters>
            <DistanceMeters>NAN</DistanceMeters>
          </Trackpoint>
          <Trackpoint>
            <Time>2022-07-08T17:49:00.000Z</Time>
            <Position>
              <LatitudeDegrees>43.34808588959276676177978515625</LatitudeDegrees>
              <LongitudeDegrees>-1.84254809282720088958740234375</LongitudeDegrees>
            </Position>
            <AltitudeMeters>283.399993896484375</AltitudeMeters>
            <DistanceMeters>NAN</DistanceMeters>
          </Trackpoint>
          <Trackpoint>
            <Time>2022-07-08T17:49:03.000Z</Time>
            <Position>
              <LatitudeDegrees>43.34802553988993167877197265625</LatitudeDegrees>
              <LongitudeDegrees>-1.8425984680652618408203125</LongitudeDegrees>
            </Position>
            <AltitudeMeters>283</AltitudeMeters>
            <DistanceMeters>NAN</DistanceMeters>
          </Trackpoint>
          <Trackpoint>
            <Time>2022-07-08T17:49:05.000Z</Time>
            <Position>
              <LatitudeDegrees>43.34802553988993167877197265625</LatitudeDegrees>
              <LongitudeDegrees>-1.8425984680652618408203125</LongitudeDegrees>
            </Position>
            <AltitudeMeters>282.79998779296875</AltitudeMeters>
            <DistanceMeters>NAN</DistanceMeters>
          </Trackpoint>
          <Trackpoint>
            <Time>2022-07-08T17:49:14.000Z</Time>
            <Position>
              <LatitudeDegrees>43.34795094095170497894287109375</LatitudeDegrees>
              <LongitudeDegrees>-1.8427317403256893157958984375</LongitudeDegrees>
            </Position>
            <AltitudeMeters>283.20001220703125</AltitudeMeters>
            <DistanceMeters>NAN</DistanceMeters>
          </Trackpoint>
          <Trackpoint>
            <Time>2022-07-08T17:49:15.000Z</Time>
            <Position>
              <LatitudeDegrees>43.3479434810578823089599609375</LatitudeDegrees>
              <LongitudeDegrees>-1.84276216663420200347900390625</LongitudeDegrees>
            </Position>
            <AltitudeMeters>283.20001220703125</AltitudeMeters>
            <DistanceMeters>NAN</DistanceMeters>
          </Trackpoint>
          <Trackpoint>
            <Time>2022-07-08T17:49:20.000Z</Time>
            <Position>
              <LatitudeDegrees>43.3478786051273345947265625</LatitudeDegrees>
              <LongitudeDegrees>-1.84297389350831508636474609375</LongitudeDegrees>
            </Position>
            <AltitudeMeters>283.20001220703125</AltitudeMeters>
            <DistanceMeters>NAN</DistanceMeters>
          </Trackpoint>
          <Trackpoint>
            <Time>2022-07-08T17:49:21.000Z</Time>
            <Position>
              <LatitudeDegrees>43.3478697203099727630615234375</LatitudeDegrees>
              <LongitudeDegrees>-1.84301664121448993682861328125</LongitudeDegrees>
            </Position>
            <AltitudeMeters>283</AltitudeMeters>
            <DistanceMeters>NAN</DistanceMeters>
          </Trackpoint>
          <Trackpoint>
            <Time>2022-07-08T17:49:24.000Z</Time>
            <Position>
              <LatitudeDegrees>43.3478415571153163909912109375</LatitudeDegrees>
              <LongitudeDegrees>-1.84313599951565265655517578125</LongitudeDegrees>
            </Position>
            <AltitudeMeters>282.600006103515625</AltitudeMeters>
            <DistanceMeters>NAN</DistanceMeters>
          </Trackpoint>
          <Trackpoint>
            <Time>2022-07-08T17:49:29.000Z</Time>
            <Position>
              <LatitudeDegrees>43.3477419801056385040283203125</LatitudeDegrees>
              <LongitudeDegrees>-1.8432970158755779266357421875</LongitudeDegrees>
            </Position>
            <AltitudeMeters>282.600006103515625</AltitudeMeters>
            <DistanceMeters>NAN</DistanceMeters>
          </Trackpoint>
          <Trackpoint>
            <Time>2022-07-08T17:49:32.000Z</Time>
            <Position>
              <LatitudeDegrees>43.3476568199694156646728515625</LatitudeDegrees>
              <LongitudeDegrees>-1.84349340386688709259033203125</LongitudeDegrees>
            </Position>
            <AltitudeMeters>282.399993896484375</AltitudeMeters>
            <DistanceMeters>NAN</DistanceMeters>
          </Trackpoint>
          <Trackpoint>
            <Time>2022-07-08T17:49:33.000Z</Time>
            <Position>
              <LatitudeDegrees>43.34763544611632823944091796875</LatitudeDegrees>
              <LongitudeDegrees>-1.84353522956371307373046875</LongitudeDegrees>
            </Position>
            <AltitudeMeters>282.20001220703125</AltitudeMeters>
            <DistanceMeters>NAN</DistanceMeters>
          </Trackpoint>
          <Trackpoint>
            <Time>2022-07-08T17:49:36.000Z</Time>
            <Position>
              <LatitudeDegrees>43.3475706540048122406005859375</LatitudeDegrees>
              <LongitudeDegrees>-1.84362499974668025970458984375</LongitudeDegrees>
            </Position>
            <AltitudeMeters>282</AltitudeMeters>
            <DistanceMeters>NAN</DistanceMeters>
          </Trackpoint>
          <Trackpoint>
            <Time>2022-07-08T17:49:41.000Z</Time>
            <Position>
              <LatitudeDegrees>43.347504101693630218505859375</LatitudeDegrees>
              <LongitudeDegrees>-1.84367964975535869598388671875</LongitudeDegrees>
            </Position>
            <AltitudeMeters>281.600006103515625</AltitudeMeters>
            <DistanceMeters>NAN</DistanceMeters>
          </Trackpoint>
          <Trackpoint>
            <Time>2022-07-08T17:49:47.000Z</Time>
            <Position>
              <LatitudeDegrees>43.34739522077143192291259765625</LatitudeDegrees>
              <LongitudeDegrees>-1.84375843964517116546630859375</LongitudeDegrees>
            </Position>
            <AltitudeMeters>281.399993896484375</AltitudeMeters>
            <DistanceMeters>NAN</DistanceMeters>
          </Trackpoint>
          <Trackpoint>
            <Time>2022-07-08T17:49:49.000Z</Time>
            <Position>
              <LatitudeDegrees>43.347354233264923095703125</LatitudeDegrees>
              <LongitudeDegrees>-1.84378978796303272247314453125</LongitudeDegrees>
            </Position>
            <AltitudeMeters>281.20001220703125</AltitudeMeters>
            <DistanceMeters>NAN</DistanceMeters>
          </Trackpoint>
          <Trackpoint>
            <Time>2022-07-08T17:49:51.000Z</Time>
            <Position>
              <LatitudeDegrees>43.34730402566492557525634765625</LatitudeDegrees>
              <LongitudeDegrees>-1.84380923397839069366455078125</LongitudeDegrees>
            </Position>
            <AltitudeMeters>281.20001220703125</AltitudeMeters>
            <DistanceMeters>NAN</DistanceMeters>
          </Trackpoint>
          <Trackpoint>
            <Time>2022-07-08T17:49:53.000Z</Time>
            <Position>
              <LatitudeDegrees>43.34724317304790019989013671875</LatitudeDegrees>
              <LongitudeDegrees>-1.84384527616202831268310546875</LongitudeDegrees>
            </Position>
            <AltitudeMeters>281</AltitudeMeters>
            <DistanceMeters>NAN</DistanceMeters>
          </Trackpoint>
          <Trackpoint>
            <Time>2022-07-08T17:49:55.000Z</Time>
            <Position>
              <LatitudeDegrees>43.34720495156943798065185546875</LatitudeDegrees>
              <LongitudeDegrees>-1.84388794004917144775390625</LongitudeDegrees>
            </Position>
            <AltitudeMeters>281</AltitudeMeters>
            <DistanceMeters>NAN</DistanceMeters>
          </Trackpoint>
          <Trackpoint>
            <Time>2022-07-08T17:49:59.000Z</Time>
            <Position>
              <LatitudeDegrees>43.347178883850574493408203125</LatitudeDegrees>
              <LongitudeDegrees>-1.8439135886728763580322265625</LongitudeDegrees>
            </Position>
            <AltitudeMeters>280.79998779296875</AltitudeMeters>
            <DistanceMeters>NAN</DistanceMeters>
          </Trackpoint>
          <Trackpoint>
            <Time>2022-07-08T17:52:34.000Z</Time>
            <Position>
              <LatitudeDegrees>43.3470687456429004669189453125</LatitudeDegrees>
              <LongitudeDegrees>-1.84398089535534381866455078125</LongitudeDegrees>
            </Position>
            <AltitudeMeters>279.79998779296875</AltitudeMeters>
            <DistanceMeters>NAN</DistanceMeters>
          </Trackpoint>
          <Trackpoint>
            <Time>2022-07-08T17:52:35.000Z</Time>
            <Position>
              <LatitudeDegrees>43.34705860354006290435791015625</LatitudeDegrees>
              <LongitudeDegrees>-1.8439943902194499969482421875</LongitudeDegrees>
            </Position>
            <AltitudeMeters>279.79998779296875</AltitudeMeters>
            <DistanceMeters>NAN</DistanceMeters>
          </Trackpoint>
          <Trackpoint>
            <Time>2022-07-08T17:52:37.000Z</Time>
            <Position>
              <LatitudeDegrees>43.34702792577445507049560546875</LatitudeDegrees>
              <LongitudeDegrees>-1.84401408769190311431884765625</LongitudeDegrees>
            </Position>
            <AltitudeMeters>279.79998779296875</AltitudeMeters>
            <DistanceMeters>NAN</DistanceMeters>
          </Trackpoint>
          <Trackpoint>
            <Time>2022-07-08T17:52:42.000Z</Time>
            <Position>
              <LatitudeDegrees>43.3469098247587680816650390625</LatitudeDegrees>
              <LongitudeDegrees>-1.8440155126154422760009765625</LongitudeDegrees>
            </Position>
            <AltitudeMeters>280</AltitudeMeters>
            <DistanceMeters>NAN</DistanceMeters>
          </Trackpoint>
          <Trackpoint>
            <Time>2022-07-08T17:52:45.000Z</Time>
            <Position>
              <LatitudeDegrees>43.34684737958014011383056640625</LatitudeDegrees>
              <LongitudeDegrees>-1.84400235302746295928955078125</LongitudeDegrees>
            </Position>
            <AltitudeMeters>279.79998779296875</AltitudeMeters>
            <DistanceMeters>NAN</DistanceMeters>
          </Trackpoint>
          <Trackpoint>
            <Time>2022-07-08T17:52:48.000Z</Time>
            <Position>
              <LatitudeDegrees>43.34674260579049587249755859375</LatitudeDegrees>
              <LongitudeDegrees>-1.84398760087788105010986328125</LongitudeDegrees>
            </Position>
            <AltitudeMeters>279.79998779296875</AltitudeMeters>
            <DistanceMeters>NAN</DistanceMeters>
          </Trackpoint>
          <Trackpoint>
            <Time>2022-07-08T17:52:50.000Z</Time>
            <Position>
              <LatitudeDegrees>43.3466815017163753509521484375</LatitudeDegrees>
              <LongitudeDegrees>-1.843977458775043487548828125</LongitudeDegrees>
            </Position>
            <AltitudeMeters>279.600006103515625</AltitudeMeters>
            <DistanceMeters>NAN</DistanceMeters>
          </Trackpoint>
          <Trackpoint>
            <Time>2022-07-08T17:52:56.000Z</Time>
            <Position>
              <LatitudeDegrees>43.34649098105728626251220703125</LatitudeDegrees>
              <LongitudeDegrees>-1.84396681375801563262939453125</LongitudeDegrees>
            </Position>
            <AltitudeMeters>279</AltitudeMeters>
            <DistanceMeters>NAN</DistanceMeters>
          </Trackpoint>
          <Trackpoint>
            <Time>2022-07-08T17:52:58.000Z</Time>
            <Position>
              <LatitudeDegrees>43.34642107598483562469482421875</LatitudeDegrees>
              <LongitudeDegrees>-1.84396983124315738677978515625</LongitudeDegrees>
            </Position>
            <AltitudeMeters>278.79998779296875</AltitudeMeters>
            <DistanceMeters>NAN</DistanceMeters>
          </Trackpoint>
          <Trackpoint>
            <Time>2022-07-08T17:53:03.000Z</Time>
            <Position>
              <LatitudeDegrees>43.34626165218651294708251953125</LatitudeDegrees>
              <LongitudeDegrees>-1.8439950607717037200927734375</LongitudeDegrees>
            </Position>
            <AltitudeMeters>278.20001220703125</AltitudeMeters>
            <DistanceMeters>NAN</DistanceMeters>
          </Trackpoint>
          <Trackpoint>
            <Time>2022-07-08T17:53:06.000Z</Time>
            <Position>
              <LatitudeDegrees>43.3461727201938629150390625</LatitudeDegrees>
              <LongitudeDegrees>-1.84405582956969738006591796875</LongitudeDegrees>
            </Position>
            <AltitudeMeters>277.79998779296875</AltitudeMeters>
            <DistanceMeters>NAN</DistanceMeters>
          </Trackpoint>
          <Trackpoint>
            <Time>2022-07-08T17:53:07.000Z</Time>
            <Position>
              <LatitudeDegrees>43.3461350016295909881591796875</LatitudeDegrees>
              <LongitudeDegrees>-1.84408969245851039886474609375</LongitudeDegrees>
            </Position>
            <AltitudeMeters>277.79998779296875</AltitudeMeters>
            <DistanceMeters>NAN</DistanceMeters>
          </Trackpoint>
          <Trackpoint>
            <Time>2022-07-08T17:53:14.000Z</Time>
            <Position>
              <LatitudeDegrees>43.3460065908730030059814453125</LatitudeDegrees>
              <LongitudeDegrees>-1.84427778236567974090576171875</LongitudeDegrees>
            </Position>
            <AltitudeMeters>277.20001220703125</AltitudeMeters>
            <DistanceMeters>NAN</DistanceMeters>
          </Trackpoint>
          <Trackpoint>
            <Time>2022-07-08T17:53:18.000Z</Time>
            <Position>
              <LatitudeDegrees>43.3459868095815181732177734375</LatitudeDegrees>
              <LongitudeDegrees>-1.844388507306575775146484375</LongitudeDegrees>
            </Position>
            <AltitudeMeters>277</AltitudeMeters>
            <DistanceMeters>NAN</DistanceMeters>
          </Trackpoint>
          <Trackpoint>
            <Time>2022-07-08T17:53:20.000Z</Time>
            <Position>
              <LatitudeDegrees>43.3459713868796825408935546875</LatitudeDegrees>
              <LongitudeDegrees>-1.84444583952426910400390625</LongitudeDegrees>
            </Position>
            <AltitudeMeters>276.79998779296875</AltitudeMeters>
            <DistanceMeters>NAN</DistanceMeters>
          </Trackpoint>
          <Trackpoint>
            <Time>2022-07-08T17:53:25.000Z</Time>
            <Position>
              <LatitudeDegrees>43.345945067703723907470703125</LatitudeDegrees>
              <LongitudeDegrees>-1.84461222030222415924072265625</LongitudeDegrees>
            </Position>
            <AltitudeMeters>276.399993896484375</AltitudeMeters>
            <DistanceMeters>NAN</DistanceMeters>
          </Trackpoint>
          <Trackpoint>
            <Time>2022-07-08T17:53:28.000Z</Time>
            <Position>
              <LatitudeDegrees>43.34594951011240482330322265625</LatitudeDegrees>
              <LongitudeDegrees>-1.84471162967383861541748046875</LongitudeDegrees>
            </Position>
            <AltitudeMeters>276.20001220703125</AltitudeMeters>
            <DistanceMeters>NAN</DistanceMeters>
          </Trackpoint>
          <Trackpoint>
            <Time>2022-07-08T17:53:30.000Z</Time>
            <Position>
              <LatitudeDegrees>43.34594749845564365386962890625</LatitudeDegrees>
              <LongitudeDegrees>-1.84479595161974430084228515625</LongitudeDegrees>
            </Position>
            <AltitudeMeters>275.79998779296875</AltitudeMeters>
            <DistanceMeters>NAN</DistanceMeters>
          </Trackpoint>
          <Trackpoint>
            <Time>2022-07-08T17:53:34.000Z</Time>
            <Position>
              <LatitudeDegrees>43.34593257866799831390380859375</LatitudeDegrees>
              <LongitudeDegrees>-1.84490156359970569610595703125</LongitudeDegrees>
            </Position>
            <AltitudeMeters>274.79998779296875</AltitudeMeters>
            <DistanceMeters>NAN</DistanceMeters>
          </Trackpoint>
          <Trackpoint>
            <Time>2022-07-08T17:53:35.000Z</Time>
            <Position>
              <LatitudeDegrees>43.3459224365651607513427734375</LatitudeDegrees>
              <LongitudeDegrees>-1.84492486529052257537841796875</LongitudeDegrees>
            </Position>
            <AltitudeMeters>274.600006103515625</AltitudeMeters>
            <DistanceMeters>NAN</DistanceMeters>
          </Trackpoint>
          <Trackpoint>
            <Time>2022-07-08T17:53:36.000Z</Time>
            <Position>
              <LatitudeDegrees>43.34591061808168888092041015625</LatitudeDegrees>
              <LongitudeDegrees>-1.84494783170521259307861328125</LongitudeDegrees>
            </Position>
            <AltitudeMeters>274.600006103515625</AltitudeMeters>
            <DistanceMeters>NAN</DistanceMeters>
          </Trackpoint>
          <Trackpoint>
            <Time>2022-07-08T17:53:38.000Z</Time>
            <Position>
              <LatitudeDegrees>43.3458765037357807159423828125</LatitudeDegrees>
              <LongitudeDegrees>-1.8449760787189006805419921875</LongitudeDegrees>
            </Position>
            <AltitudeMeters>274.399993896484375</AltitudeMeters>
            <DistanceMeters>NAN</DistanceMeters>
          </Trackpoint>
          <Trackpoint>
            <Time>2022-07-08T17:53:43.000Z</Time>
            <Position>
              <LatitudeDegrees>43.34577684290707111358642578125</LatitudeDegrees>
              <LongitudeDegrees>-1.8451370112597942352294921875</LongitudeDegrees>
            </Position>
            <AltitudeMeters>273.79998779296875</AltitudeMeters>
            <DistanceMeters>NAN</DistanceMeters>
          </Trackpoint>
          <Trackpoint>
            <Time>2022-07-08T17:53:44.000Z</Time>
            <Position>
              <LatitudeDegrees>43.3457564748823642730712890625</LatitudeDegrees>
              <LongitudeDegrees>-1.84516341425478458404541015625</LongitudeDegrees>
            </Position>
            <AltitudeMeters>273.600006103515625</AltitudeMeters>
            <DistanceMeters>NAN</DistanceMeters>
          </Trackpoint>
          <Trackpoint>
            <Time>2022-07-08T17:53:45.000Z</Time>
            <Position>
              <LatitudeDegrees>43.34573375992476940155029296875</LatitudeDegrees>
              <LongitudeDegrees>-1.8451841175556182861328125</LongitudeDegrees>
            </Position>
            <AltitudeMeters>273.399993896484375</AltitudeMeters>
            <DistanceMeters>NAN</DistanceMeters>
          </Trackpoint>
          <Trackpoint>
            <Time>2022-07-08T17:53:47.000Z</Time>
            <Position>
              <LatitudeDegrees>43.34569838829338550567626953125</LatitudeDegrees>
              <LongitudeDegrees>-1.8452000431716442108154296875</LongitudeDegrees>
            </Position>
            <AltitudeMeters>273</AltitudeMeters>
            <DistanceMeters>NAN</DistanceMeters>
          </Trackpoint>
          <Trackpoint>
            <Time>2022-07-08T17:53:51.000Z</Time>
            <Position>
              <LatitudeDegrees>43.34565429948270320892333984375</LatitudeDegrees>
              <LongitudeDegrees>-1.84522275812923908233642578125</LongitudeDegrees>
            </Position>
            <AltitudeMeters>272.399993896484375</AltitudeMeters>
            <DistanceMeters>NAN</DistanceMeters>
          </Trackpoint>
          <Trackpoint>
            <Time>2022-07-08T17:53:52.000Z</Time>
            <Position>
              <LatitudeDegrees>43.34565429948270320892333984375</LatitudeDegrees>
              <LongitudeDegrees>-1.84522275812923908233642578125</LongitudeDegrees>
            </Position>
            <AltitudeMeters>272.399993896484375</AltitudeMeters>
            <DistanceMeters>NAN</DistanceMeters>
          </Trackpoint>
          <Trackpoint>
            <Time>2022-07-08T17:54:54.000Z</Time>
            <Position>
              <LatitudeDegrees>43.34562378935515880584716796875</LatitudeDegrees>
              <LongitudeDegrees>-1.8452761508524417877197265625</LongitudeDegrees>
            </Position>
            <AltitudeMeters>272</AltitudeMeters>
            <DistanceMeters>NAN</DistanceMeters>
          </Trackpoint>
          <Trackpoint>
            <Time>2022-07-08T17:54:55.000Z</Time>
            <Position>
              <LatitudeDegrees>43.34560803137719631195068359375</LatitudeDegrees>
              <LongitudeDegrees>-1.84529283083975315093994140625</LongitudeDegrees>
            </Position>
            <AltitudeMeters>272</AltitudeMeters>
            <DistanceMeters>NAN</DistanceMeters>
          </Trackpoint>
          <Trackpoint>
            <Time>2022-07-08T17:54:56.000Z</Time>
            <Position>
              <LatitudeDegrees>43.34559059701859951019287109375</LatitudeDegrees>
              <LongitudeDegrees>-1.84530775062739849090576171875</LongitudeDegrees>
            </Position>
            <AltitudeMeters>272</AltitudeMeters>
            <DistanceMeters>NAN</DistanceMeters>
          </Trackpoint>
          <Trackpoint>
            <Time>2022-07-08T17:54:59.000Z</Time>
            <Position>
              <LatitudeDegrees>43.34548942744731903076171875</LatitudeDegrees>
              <LongitudeDegrees>-1.8453626520931720733642578125</LongitudeDegrees>
            </Position>
            <AltitudeMeters>271.20001220703125</AltitudeMeters>
            <DistanceMeters>NAN</DistanceMeters>
          </Trackpoint>
          <Trackpoint>
            <Time>2022-07-08T17:55:01.000Z</Time>
            <Position>
              <LatitudeDegrees>43.34544089622795581817626953125</LatitudeDegrees>
              <LongitudeDegrees>-1.8454250134527683258056640625</LongitudeDegrees>
            </Position>
            <AltitudeMeters>270.79998779296875</AltitudeMeters>
            <DistanceMeters>NAN</DistanceMeters>
          </Trackpoint>
          <Trackpoint>
            <Time>2022-07-08T17:55:04.000Z</Time>
            <Position>
              <LatitudeDegrees>43.34535288624465465545654296875</LatitudeDegrees>
              <LongitudeDegrees>-1.8454845249652862548828125</LongitudeDegrees>
            </Position>
            <AltitudeMeters>270.20001220703125</AltitudeMeters>
            <DistanceMeters>NAN</DistanceMeters>
          </Trackpoint>
          <Trackpoint>
            <Time>2022-07-08T17:55:06.000Z</Time>
            <Position>
              <LatitudeDegrees>43.3452763594686985015869140625</LatitudeDegrees>
              <LongitudeDegrees>-1.8455259315669536590576171875</LongitudeDegrees>
            </Position>
            <AltitudeMeters>269.600006103515625</AltitudeMeters>
            <DistanceMeters>NAN</DistanceMeters>
          </Trackpoint>
          <Trackpoint>
            <Time>2022-07-08T17:55:09.000Z</Time>
            <Position>
              <LatitudeDegrees>43.34519530646502971649169921875</LatitudeDegrees>
              <LongitudeDegrees>-1.84561469592154026031494140625</LongitudeDegrees>
            </Position>
            <AltitudeMeters>269.20001220703125</AltitudeMeters>
            <DistanceMeters>NAN</DistanceMeters>
          </Trackpoint>
          <Trackpoint>
            <Time>2022-07-08T17:55:10.000Z</Time>
            <Position>
              <LatitudeDegrees>43.34516865201294422149658203125</LatitudeDegrees>
              <LongitudeDegrees>-1.84563330374658107757568359375</LongitudeDegrees>
            </Position>
            <AltitudeMeters>269</AltitudeMeters>
            <DistanceMeters>NAN</DistanceMeters>
          </Trackpoint>
          <Trackpoint>
            <Time>2022-07-08T17:55:11.000Z</Time>
            <Position>
              <LatitudeDegrees>43.3451385609805583953857421875</LatitudeDegrees>
              <LongitudeDegrees>-1.845636405050754547119140625</LongitudeDegrees>
            </Position>
            <AltitudeMeters>269</AltitudeMeters>
            <DistanceMeters>NAN</DistanceMeters>
          </Trackpoint>
          <Trackpoint>
            <Time>2022-07-08T17:55:15.000Z</Time>
            <Position>
              <LatitudeDegrees>43.34501392208039760589599609375</LatitudeDegrees>
              <LongitudeDegrees>-1.84567420743405818939208984375</LongitudeDegrees>
            </Position>
            <AltitudeMeters>268.600006103515625</AltitudeMeters>
            <DistanceMeters>NAN</DistanceMeters>
          </Trackpoint>
          <Trackpoint>
            <Time>2022-07-08T17:55:17.000Z</Time>
            <Position>
              <LatitudeDegrees>43.3449477888643741607666015625</LatitudeDegrees>
              <LongitudeDegrees>-1.8457146920263767242431640625</LongitudeDegrees>
            </Position>
            <AltitudeMeters>268.20001220703125</AltitudeMeters>
            <DistanceMeters>NAN</DistanceMeters>
          </Trackpoint>
          <Trackpoint>
            <Time>2022-07-08T17:55:18.000Z</Time>
            <Position>
              <LatitudeDegrees>43.34490864537656307220458984375</LatitudeDegrees>
              <LongitudeDegrees>-1.84572449885308742523193359375</LongitudeDegrees>
            </Position>
            <AltitudeMeters>268.20001220703125</AltitudeMeters>
            <DistanceMeters>NAN</DistanceMeters>
          </Trackpoint>
          <Trackpoint>
            <Time>2022-07-08T17:55:23.000Z</Time>
            <Position>
              <LatitudeDegrees>43.3447539992630481719970703125</LatitudeDegrees>
              <LongitudeDegrees>-1.8457178771495819091796875</LongitudeDegrees>
            </Position>
            <AltitudeMeters>267.79998779296875</AltitudeMeters>
            <DistanceMeters>NAN</DistanceMeters>
          </Trackpoint>
          <Trackpoint>
            <Time>2022-07-08T17:55:26.000Z</Time>
            <Position>
              <LatitudeDegrees>43.34463858045637607574462890625</LatitudeDegrees>
              <LongitudeDegrees>-1.8457153625786304473876953125</LongitudeDegrees>
            </Position>
            <AltitudeMeters>267.79998779296875</AltitudeMeters>
            <DistanceMeters>NAN</DistanceMeters>
          </Trackpoint>
          <Trackpoint>
            <Time>2022-07-08T17:55:28.000Z</Time>
            <Position>
              <LatitudeDegrees>43.3445310406386852264404296875</LatitudeDegrees>
              <LongitudeDegrees>-1.845717541873455047607421875</LongitudeDegrees>
            </Position>
            <AltitudeMeters>267.79998779296875</AltitudeMeters>
            <DistanceMeters>NAN</DistanceMeters>
          </Trackpoint>
          <Trackpoint>
            <Time>2022-07-08T17:55:32.000Z</Time>
            <Position>
              <LatitudeDegrees>43.34440338425338268280029296875</LatitudeDegrees>
              <LongitudeDegrees>-1.845718882977962493896484375</LongitudeDegrees>
            </Position>
            <AltitudeMeters>268</AltitudeMeters>
            <DistanceMeters>NAN</DistanceMeters>
          </Trackpoint>
          <Trackpoint>
            <Time>2022-07-08T17:55:38.000Z</Time>
            <Position>
              <LatitudeDegrees>43.34424898959696292877197265625</LatitudeDegrees>
              <LongitudeDegrees>-1.845777221024036407470703125</LongitudeDegrees>
            </Position>
            <AltitudeMeters>267.79998779296875</AltitudeMeters>
            <DistanceMeters>NAN</DistanceMeters>
          </Trackpoint>
          <Trackpoint>
            <Time>2022-07-08T17:55:44.000Z</Time>
            <Position>
              <LatitudeDegrees>43.34406559355556964874267578125</LatitudeDegrees>
              <LongitudeDegrees>-1.845832876861095428466796875</LongitudeDegrees>
            </Position>
            <AltitudeMeters>267.399993896484375</AltitudeMeters>
            <DistanceMeters>NAN</DistanceMeters>
          </Trackpoint>
          <Trackpoint>
            <Time>2022-07-08T17:55:45.000Z</Time>
            <Position>
              <LatitudeDegrees>43.3440314792096614837646484375</LatitudeDegrees>
              <LongitudeDegrees>-1.84585458599030971527099609375</LongitudeDegrees>
            </Position>
            <AltitudeMeters>267</AltitudeMeters>
            <DistanceMeters>NAN</DistanceMeters>
          </Trackpoint>
          <Trackpoint>
            <Time>2022-07-08T17:55:48.000Z</Time>
            <Position>
              <LatitudeDegrees>43.34394472651183605194091796875</LatitudeDegrees>
              <LongitudeDegrees>-1.84596170671284198760986328125</LongitudeDegrees>
            </Position>
            <AltitudeMeters>266.600006103515625</AltitudeMeters>
            <DistanceMeters>NAN</DistanceMeters>
          </Trackpoint>
          <Trackpoint>
            <Time>2022-07-08T17:55:52.000Z</Time>
            <Position>
              <LatitudeDegrees>43.34391438402235507965087890625</LatitudeDegrees>
              <LongitudeDegrees>-1.8461636267602443695068359375</LongitudeDegrees>
            </Position>
            <AltitudeMeters>266</AltitudeMeters>
            <DistanceMeters>NAN</DistanceMeters>
          </Trackpoint>
          <Trackpoint>
            <Time>2022-07-08T17:55:53.000Z</Time>
            <Position>
              <LatitudeDegrees>43.34392243064939975738525390625</LatitudeDegrees>
              <LongitudeDegrees>-1.84621919877827167510986328125</LongitudeDegrees>
            </Position>
            <AltitudeMeters>266</AltitudeMeters>
            <DistanceMeters>NAN</DistanceMeters>
          </Trackpoint>
          <Trackpoint>
            <Time>2022-07-08T17:55:57.000Z</Time>
            <Position>
              <LatitudeDegrees>43.34393366239964962005615234375</LatitudeDegrees>
              <LongitudeDegrees>-1.84639086015522480010986328125</LongitudeDegrees>
            </Position>
            <AltitudeMeters>265.399993896484375</AltitudeMeters>
            <DistanceMeters>NAN</DistanceMeters>
          </Trackpoint>
          <Trackpoint>
            <Time>2022-07-08T17:56:01.000Z</Time>
            <Position>
              <LatitudeDegrees>43.3439505100250244140625</LatitudeDegrees>
              <LongitudeDegrees>-1.84656486846506595611572265625</LongitudeDegrees>
            </Position>
            <AltitudeMeters>265</AltitudeMeters>
            <DistanceMeters>NAN</DistanceMeters>
          </Trackpoint>
          <Trackpoint>
            <Time>2022-07-08T17:56:06.000Z</Time>
            <Position>
              <LatitudeDegrees>43.34395520389080047607421875</LatitudeDegrees>
              <LongitudeDegrees>-1.84675362892448902130126953125</LongitudeDegrees>
            </Position>
            <AltitudeMeters>265</AltitudeMeters>
            <DistanceMeters>NAN</DistanceMeters>
          </Trackpoint>
          <Trackpoint>
            <Time>2022-07-08T17:56:07.000Z</Time>
            <Position>
              <LatitudeDegrees>43.34395763464272022247314453125</LatitudeDegrees>
              <LongitudeDegrees>-1.8467895872890949249267578125</LongitudeDegrees>
            </Position>
            <AltitudeMeters>265</AltitudeMeters>
            <DistanceMeters>NAN</DistanceMeters>
          </Trackpoint>
          <Trackpoint>
            <Time>2022-07-08T17:56:13.000Z</Time>
            <Position>
              <LatitudeDegrees>43.34397666156291961669921875</LatitudeDegrees>
              <LongitudeDegrees>-1.846997626125812530517578125</LongitudeDegrees>
            </Position>
            <AltitudeMeters>264.600006103515625</AltitudeMeters>
            <DistanceMeters>NAN</DistanceMeters>
          </Trackpoint>
          <Trackpoint>
            <Time>2022-07-08T17:56:18.000Z</Time>
            <Position>
              <LatitudeDegrees>43.34403022192418575286865234375</LatitudeDegrees>
              <LongitudeDegrees>-1.847175993025302886962890625</LongitudeDegrees>
            </Position>
            <AltitudeMeters>264.20001220703125</AltitudeMeters>
            <DistanceMeters>NAN</DistanceMeters>
          </Trackpoint>
          <Trackpoint>
            <Time>2022-07-08T17:56:20.000Z</Time>
            <Position>
              <LatitudeDegrees>43.344044387340545654296875</LatitudeDegrees>
              <LongitudeDegrees>-1.84724698774516582489013671875</LongitudeDegrees>
            </Position>
            <AltitudeMeters>263.79998779296875</AltitudeMeters>
            <DistanceMeters>NAN</DistanceMeters>
          </Trackpoint>
          <Trackpoint>
            <Time>2022-07-08T17:56:26.000Z</Time>
            <Position>
              <LatitudeDegrees>43.34407732822000980377197265625</LatitudeDegrees>
              <LongitudeDegrees>-1.84744932688772678375244140625</LongitudeDegrees>
            </Position>
            <AltitudeMeters>263.399993896484375</AltitudeMeters>
            <DistanceMeters>NAN</DistanceMeters>
          </Trackpoint>
          <Trackpoint>
            <Time>2022-07-08T17:56:29.000Z</Time>
            <Position>
              <LatitudeDegrees>43.34409627132117748260498046875</LatitudeDegrees>
              <LongitudeDegrees>-1.8475372530519962310791015625</LongitudeDegrees>
            </Position>
            <AltitudeMeters>263</AltitudeMeters>
            <DistanceMeters>NAN</DistanceMeters>
          </Trackpoint>
          <Trackpoint>
            <Time>2022-07-08T17:56:31.000Z</Time>
            <Position>
              <LatitudeDegrees>43.34412259049713611602783203125</LatitudeDegrees>
              <LongitudeDegrees>-1.8476170487701892852783203125</LongitudeDegrees>
            </Position>
            <AltitudeMeters>262.79998779296875</AltitudeMeters>
            <DistanceMeters>NAN</DistanceMeters>
          </Trackpoint>
          <Trackpoint>
            <Time>2022-07-08T17:56:33.000Z</Time>
            <Position>
              <LatitudeDegrees>43.34414622746407985687255859375</LatitudeDegrees>
              <LongitudeDegrees>-1.8476877920329570770263671875</LongitudeDegrees>
            </Position>
            <AltitudeMeters>262.399993896484375</AltitudeMeters>
            <DistanceMeters>NAN</DistanceMeters>
          </Trackpoint>
          <Trackpoint>
            <Time>2022-07-08T17:56:34.000Z</Time>
            <Position>
              <LatitudeDegrees>43.34415393881499767303466796875</LatitudeDegrees>
              <LongitudeDegrees>-1.8477183021605014801025390625</LongitudeDegrees>
            </Position>
            <AltitudeMeters>262.20001220703125</AltitudeMeters>
            <DistanceMeters>NAN</DistanceMeters>
          </Trackpoint>
          <Trackpoint>
            <Time>2022-07-08T17:56:41.000Z</Time>
            <Position>
              <LatitudeDegrees>43.34417975507676601409912109375</LatitudeDegrees>
              <LongitudeDegrees>-1.84798325411975383758544921875</LongitudeDegrees>
            </Position>
            <AltitudeMeters>261.79998779296875</AltitudeMeters>
            <DistanceMeters>NAN</DistanceMeters>
          </Trackpoint>
          <Trackpoint>
            <Time>2022-07-08T17:56:42.000Z</Time>
            <Position>
              <LatitudeDegrees>43.34417908452451229095458984375</LatitudeDegrees>
              <LongitudeDegrees>-1.848016194999217987060546875</LongitudeDegrees>
            </Position>
            <AltitudeMeters>261.399993896484375</AltitudeMeters>
            <DistanceMeters>NAN</DistanceMeters>
          </Trackpoint>
          <Trackpoint>
            <Time>2022-07-08T17:56:50.000Z</Time>
            <Position>
              <LatitudeDegrees>43.344141282141208648681640625</LatitudeDegrees>
              <LongitudeDegrees>-1.8482527323067188262939453125</LongitudeDegrees>
            </Position>
            <AltitudeMeters>260.79998779296875</AltitudeMeters>
            <DistanceMeters>NAN</DistanceMeters>
          </Trackpoint>
          <Trackpoint>
            <Time>2022-07-08T17:56:56.000Z</Time>
            <Position>
              <LatitudeDegrees>43.3440733887255191802978515625</LatitudeDegrees>
              <LongitudeDegrees>-1.8483217991888523101806640625</LongitudeDegrees>
            </Position>
            <AltitudeMeters>260.79998779296875</AltitudeMeters>
            <DistanceMeters>NAN</DistanceMeters>
          </Trackpoint>
          <Trackpoint>
            <Time>2022-07-08T17:56:58.000Z</Time>
            <Position>
              <LatitudeDegrees>43.344042710959911346435546875</LatitudeDegrees>
              <LongitudeDegrees>-1.84833562932908535003662109375</LongitudeDegrees>
            </Position>
            <AltitudeMeters>260.79998779296875</AltitudeMeters>
            <DistanceMeters>NAN</DistanceMeters>
          </Trackpoint>
          <Trackpoint>
            <Time>2022-07-08T17:57:00.000Z</Time>
            <Position>
              <LatitudeDegrees>43.34400759078562259674072265625</LatitudeDegrees>
              <LongitudeDegrees>-1.848344095051288604736328125</LongitudeDegrees>
            </Position>
            <AltitudeMeters>261</AltitudeMeters>
            <DistanceMeters>NAN</DistanceMeters>
          </Trackpoint>
          <Trackpoint>
            <Time>2022-07-08T17:57:01.000Z</Time>
            <Position>
              <LatitudeDegrees>43.34398663602769374847412109375</LatitudeDegrees>
              <LongitudeDegrees>-1.8483544886112213134765625</LongitudeDegrees>
            </Position>
            <AltitudeMeters>261</AltitudeMeters>
            <DistanceMeters>NAN</DistanceMeters>
          </Trackpoint>
          <Trackpoint>
            <Time>2022-07-08T17:57:06.000Z</Time>
            <Position>
              <LatitudeDegrees>43.34388957358896732330322265625</LatitudeDegrees>
              <LongitudeDegrees>-1.848370246589183807373046875</LongitudeDegrees>
            </Position>
            <AltitudeMeters>260.79998779296875</AltitudeMeters>
            <DistanceMeters>NAN</DistanceMeters>
          </Trackpoint>
          <Trackpoint>
            <Time>2022-07-08T17:57:11.000Z</Time>
            <Position>
              <LatitudeDegrees>43.3438021503388881683349609375</LatitudeDegrees>
              <LongitudeDegrees>-1.84839597903192043304443359375</LongitudeDegrees>
            </Position>
            <AltitudeMeters>260.399993896484375</AltitudeMeters>
            <DistanceMeters>NAN</DistanceMeters>
          </Trackpoint>
          <Trackpoint>
            <Time>2022-07-08T17:57:17.000Z</Time>
            <Position>
              <LatitudeDegrees>43.34368891082704067230224609375</LatitudeDegrees>
              <LongitudeDegrees>-1.848467476665973663330078125</LongitudeDegrees>
            </Position>
            <AltitudeMeters>260.399993896484375</AltitudeMeters>
            <DistanceMeters>NAN</DistanceMeters>
          </Trackpoint>
          <Trackpoint>
            <Time>2022-07-08T17:57:21.000Z</Time>
            <Position>
              <LatitudeDegrees>43.343561589717864990234375</LatitudeDegrees>
              <LongitudeDegrees>-1.848477534949779510498046875</LongitudeDegrees>
            </Position>
            <AltitudeMeters>259.600006103515625</AltitudeMeters>
            <DistanceMeters>NAN</DistanceMeters>
          </Trackpoint>
          <Trackpoint>
            <Time>2022-07-08T17:57:22.000Z</Time>
            <Position>
              <LatitudeDegrees>43.34352227859199047088623046875</LatitudeDegrees>
              <LongitudeDegrees>-1.8484837375581264495849609375</LongitudeDegrees>
            </Position>
            <AltitudeMeters>259.399993896484375</AltitudeMeters>
            <DistanceMeters>NAN</DistanceMeters>
          </Trackpoint>
          <Trackpoint>
            <Time>2022-07-08T17:57:27.000Z</Time>
            <Position>
              <LatitudeDegrees>43.34328440017998218536376953125</LatitudeDegrees>
              <LongitudeDegrees>-1.84853897430002689361572265625</LongitudeDegrees>
            </Position>
            <AltitudeMeters>258.399993896484375</AltitudeMeters>
            <DistanceMeters>NAN</DistanceMeters>
          </Trackpoint>
          <Trackpoint>
            <Time>2022-07-08T17:57:28.000Z</Time>
            <Position>
              <LatitudeDegrees>43.34325623698532581329345703125</LatitudeDegrees>
              <LongitudeDegrees>-1.84854534454643726348876953125</LongitudeDegrees>
            </Position>
            <AltitudeMeters>258.20001220703125</AltitudeMeters>
            <DistanceMeters>NAN</DistanceMeters>
          </Trackpoint>
          <Trackpoint>
            <Time>2022-07-08T17:57:33.000Z</Time>
            <Position>
              <LatitudeDegrees>43.3431168459355831146240234375</LatitudeDegrees>
              <LongitudeDegrees>-1.84858893044292926788330078125</LongitudeDegrees>
            </Position>
            <AltitudeMeters>257.79998779296875</AltitudeMeters>
            <DistanceMeters>NAN</DistanceMeters>
          </Trackpoint>
          <Trackpoint>
            <Time>2022-07-08T17:57:37.000Z</Time>
            <Position>
              <LatitudeDegrees>43.34292523562908172607421875</LatitudeDegrees>
              <LongitudeDegrees>-1.8486134894192218780517578125</LongitudeDegrees>
            </Position>
            <AltitudeMeters>257</AltitudeMeters>
            <DistanceMeters>NAN</DistanceMeters>
          </Trackpoint>
          <Trackpoint>
            <Time>2022-07-08T17:57:38.000Z</Time>
            <Position>
              <LatitudeDegrees>43.3428848348557949066162109375</LatitudeDegrees>
              <LongitudeDegrees>-1.84861357323825359344482421875</LongitudeDegrees>
            </Position>
            <AltitudeMeters>256.79998779296875</AltitudeMeters>
            <DistanceMeters>NAN</DistanceMeters>
          </Trackpoint>
          <Trackpoint>
            <Time>2022-07-08T17:57:42.000Z</Time>
            <Position>
              <LatitudeDegrees>43.3427260816097259521484375</LatitudeDegrees>
              <LongitudeDegrees>-1.84865581803023815155029296875</LongitudeDegrees>
            </Position>
            <AltitudeMeters>256</AltitudeMeters>
            <DistanceMeters>NAN</DistanceMeters>
          </Trackpoint>
          <Trackpoint>
            <Time>2022-07-08T17:57:43.000Z</Time>
            <Position>
              <LatitudeDegrees>43.34269481711089611053466796875</LatitudeDegrees>
              <LongitudeDegrees>-1.84866352938115596771240234375</LongitudeDegrees>
            </Position>
            <AltitudeMeters>255.600006103515625</AltitudeMeters>
            <DistanceMeters>NAN</DistanceMeters>
          </Trackpoint>
          <Trackpoint>
            <Time>2022-07-08T17:57:47.000Z</Time>
            <Position>
              <LatitudeDegrees>43.3425690047442913055419921875</LatitudeDegrees>
              <LongitudeDegrees>-1.8486838974058628082275390625</LongitudeDegrees>
            </Position>
            <AltitudeMeters>254.8000030517578125</AltitudeMeters>
            <DistanceMeters>NAN</DistanceMeters>
          </Trackpoint>
          <Trackpoint>
            <Time>2022-07-08T17:57:48.000Z</Time>
            <Position>
              <LatitudeDegrees>43.3425361476838588714599609375</LatitudeDegrees>
              <LongitudeDegrees>-1.84869353659451007843017578125</LongitudeDegrees>
            </Position>
            <AltitudeMeters>254.600006103515625</AltitudeMeters>
            <DistanceMeters>NAN</DistanceMeters>
          </Trackpoint>
          <Trackpoint>
            <Time>2022-07-08T17:57:52.000Z</Time>
            <Position>
              <LatitudeDegrees>43.34244620986282825469970703125</LatitudeDegrees>
              <LongitudeDegrees>-1.84870175085961818695068359375</LongitudeDegrees>
            </Position>
            <AltitudeMeters>254</AltitudeMeters>
            <DistanceMeters>NAN</DistanceMeters>
          </Trackpoint>
          <Trackpoint>
            <Time>2022-07-08T17:57:56.000Z</Time>
            <Position>
              <LatitudeDegrees>43.34232844412326812744140625</LatitudeDegrees>
              <LongitudeDegrees>-1.848726309835910797119140625</LongitudeDegrees>
            </Position>
            <AltitudeMeters>253.399993896484375</AltitudeMeters>
            <DistanceMeters>NAN</DistanceMeters>
          </Trackpoint>
          <Trackpoint>
            <Time>2022-07-08T17:57:58.000Z</Time>
            <Position>
              <LatitudeDegrees>43.3422176353633403778076171875</LatitudeDegrees>
              <LongitudeDegrees>-1.84870812110602855682373046875</LongitudeDegrees>
            </Position>
            <AltitudeMeters>252.8000030517578125</AltitudeMeters>
            <DistanceMeters>NAN</DistanceMeters>
          </Trackpoint>
          <Trackpoint>
            <Time>2022-07-08T17:58:00.000Z</Time>
            <Position>
              <LatitudeDegrees>43.3421359956264495849609375</LatitudeDegrees>
              <LongitudeDegrees>-1.8486879207193851470947265625</LongitudeDegrees>
            </Position>
            <AltitudeMeters>252.399993896484375</AltitudeMeters>
            <DistanceMeters>NAN</DistanceMeters>
          </Trackpoint>
          <Trackpoint>
            <Time>2022-07-08T17:58:03.000Z</Time>
            <Position>
              <LatitudeDegrees>43.34206961095333099365234375</LatitudeDegrees>
              <LongitudeDegrees>-1.84869403950870037078857421875</LongitudeDegrees>
            </Position>
            <AltitudeMeters>251.1999969482421875</AltitudeMeters>
            <DistanceMeters>NAN</DistanceMeters>
          </Trackpoint>
          <Trackpoint>
            <Time>2022-07-08T17:58:04.000Z</Time>
            <Position>
              <LatitudeDegrees>43.34205091930925846099853515625</LatitudeDegrees>
              <LongitudeDegrees>-1.84870812110602855682373046875</LongitudeDegrees>
            </Position>
            <AltitudeMeters>250.600006103515625</AltitudeMeters>
            <DistanceMeters>NAN</DistanceMeters>
          </Trackpoint>
          <Trackpoint>
            <Time>2022-07-08T17:58:06.000Z</Time>
            <Position>
              <LatitudeDegrees>43.3420000411570072174072265625</LatitudeDegrees>
              <LongitudeDegrees>-1.848729662597179412841796875</LongitudeDegrees>
            </Position>
            <AltitudeMeters>250.1999969482421875</AltitudeMeters>
            <DistanceMeters>NAN</DistanceMeters>
          </Trackpoint>
          <Trackpoint>
            <Time>2022-07-08T17:58:10.000Z</Time>
            <Position>
              <LatitudeDegrees>43.3418327383697032928466796875</LatitudeDegrees>
              <LongitudeDegrees>-1.84877132065594196319580078125</LongitudeDegrees>
            </Position>
            <AltitudeMeters>249.399993896484375</AltitudeMeters>
            <DistanceMeters>NAN</DistanceMeters>
          </Trackpoint>
          <Trackpoint>
            <Time>2022-07-08T17:58:12.000Z</Time>
            <Position>
              <LatitudeDegrees>43.34176191128790378570556640625</LatitudeDegrees>
              <LongitudeDegrees>-1.848790347576141357421875</LongitudeDegrees>
            </Position>
            <AltitudeMeters>249</AltitudeMeters>
            <DistanceMeters>NAN</DistanceMeters>
          </Trackpoint>
          <Trackpoint>
            <Time>2022-07-08T17:58:15.000Z</Time>
            <Position>
              <LatitudeDegrees>43.34167893044650554656982421875</LatitudeDegrees>
              <LongitudeDegrees>-1.848815493285655975341796875</LongitudeDegrees>
            </Position>
            <AltitudeMeters>248.399993896484375</AltitudeMeters>
            <DistanceMeters>NAN</DistanceMeters>
          </Trackpoint>
          <Trackpoint>
            <Time>2022-07-08T17:58:16.000Z</Time>
            <Position>
              <LatitudeDegrees>43.3416610769927501678466796875</LatitudeDegrees>
              <LongitudeDegrees>-1.8488337658345699310302734375</LongitudeDegrees>
            </Position>
            <AltitudeMeters>248.1999969482421875</AltitudeMeters>
            <DistanceMeters>NAN</DistanceMeters>
          </Trackpoint>
          <Trackpoint>
            <Time>2022-07-08T17:58:17.000Z</Time>
            <Position>
              <LatitudeDegrees>43.34165655076503753662109375</LatitudeDegrees>
              <LongitudeDegrees>-1.84884642250835895538330078125</LongitudeDegrees>
            </Position>
            <AltitudeMeters>248</AltitudeMeters>
            <DistanceMeters>NAN</DistanceMeters>
          </Trackpoint>
          <Trackpoint>
            <Time>2022-07-08T17:58:19.000Z</Time>
            <Position>
              <LatitudeDegrees>43.34164791740477085113525390625</LatitudeDegrees>
              <LongitudeDegrees>-1.84889134950935840606689453125</LongitudeDegrees>
            </Position>
            <AltitudeMeters>247.600006103515625</AltitudeMeters>
            <DistanceMeters>NAN</DistanceMeters>
          </Trackpoint>
          <Trackpoint>
            <Time>2022-07-08T17:58:23.000Z</Time>
            <Position>
              <LatitudeDegrees>43.34161120466887950897216796875</LatitudeDegrees>
              <LongitudeDegrees>-1.84901322238147258758544921875</LongitudeDegrees>
            </Position>
            <AltitudeMeters>247</AltitudeMeters>
            <DistanceMeters>NAN</DistanceMeters>
          </Trackpoint>
          <Trackpoint>
            <Time>2022-07-08T17:58:24.000Z</Time>
            <Position>
              <LatitudeDegrees>43.3416097797453403472900390625</LatitudeDegrees>
              <LongitudeDegrees>-1.849018000066280364990234375</LongitudeDegrees>
            </Position>
            <AltitudeMeters>246.8000030517578125</AltitudeMeters>
            <DistanceMeters>NAN</DistanceMeters>
          </Trackpoint>
          <Trackpoint>
            <Time>2022-07-08T17:58:25.000Z</Time>
            <Position>
              <LatitudeDegrees>43.3416097797453403472900390625</LatitudeDegrees>
              <LongitudeDegrees>-1.849018000066280364990234375</LongitudeDegrees>
            </Position>
            <AltitudeMeters>246.600006103515625</AltitudeMeters>
            <DistanceMeters>NAN</DistanceMeters>
          </Trackpoint>
          <Trackpoint>
            <Time>2022-07-08T17:58:30.000Z</Time>
            <Position>
              <LatitudeDegrees>43.34161355160176753997802734375</LatitudeDegrees>
              <LongitudeDegrees>-1.8490094505250453948974609375</LongitudeDegrees>
            </Position>
            <AltitudeMeters>246.399993896484375</AltitudeMeters>
            <DistanceMeters>NAN</DistanceMeters>
          </Trackpoint>
          <Trackpoint>
            <Time>2022-07-08T17:58:31.000Z</Time>
            <Position>
              <LatitudeDegrees>43.34161522798240184783935546875</LatitudeDegrees>
              <LongitudeDegrees>-1.8489997275173664093017578125</LongitudeDegrees>
            </Position>
            <AltitudeMeters>246.399993896484375</AltitudeMeters>
            <DistanceMeters>NAN</DistanceMeters>
          </Trackpoint>
          <Trackpoint>
            <Time>2022-07-08T17:58:33.000Z</Time>
            <Position>
              <LatitudeDegrees>43.3416184969246387481689453125</LatitudeDegrees>
              <LongitudeDegrees>-1.848979108035564422607421875</LongitudeDegrees>
            </Position>
            <AltitudeMeters>246.600006103515625</AltitudeMeters>
            <DistanceMeters>NAN</DistanceMeters>
          </Trackpoint>
          <Trackpoint>
            <Time>2022-07-08T17:58:37.000Z</Time>
            <Position>
              <LatitudeDegrees>43.341624028980731964111328125</LatitudeDegrees>
              <LongitudeDegrees>-1.8489740788936614990234375</LongitudeDegrees>
            </Position>
            <AltitudeMeters>247</AltitudeMeters>
            <DistanceMeters>NAN</DistanceMeters>
          </Trackpoint>
          <Trackpoint>
            <Time>2022-07-08T17:58:38.000Z</Time>
            <Position>
              <LatitudeDegrees>43.341624028980731964111328125</LatitudeDegrees>
              <LongitudeDegrees>-1.8489740788936614990234375</LongitudeDegrees>
            </Position>
            <AltitudeMeters>247</AltitudeMeters>
            <DistanceMeters>NAN</DistanceMeters>
          </Trackpoint>
          <Trackpoint>
            <Time>2022-07-08T18:00:31.000Z</Time>
            <Position>
              <LatitudeDegrees>43.34159343503415584564208984375</LatitudeDegrees>
              <LongitudeDegrees>-1.84900760650634765625</LongitudeDegrees>
            </Position>
            <AltitudeMeters>245.8000030517578125</AltitudeMeters>
            <DistanceMeters>NAN</DistanceMeters>
          </Trackpoint>
          <Trackpoint>
            <Time>2022-07-08T18:00:33.000Z</Time>
            <Position>
              <LatitudeDegrees>43.34158672951161861419677734375</LatitudeDegrees>
              <LongitudeDegrees>-1.84907860122621059417724609375</LongitudeDegrees>
            </Position>
            <AltitudeMeters>246</AltitudeMeters>
            <DistanceMeters>NAN</DistanceMeters>
          </Trackpoint>
          <Trackpoint>
            <Time>2022-07-08T18:00:37.000Z</Time>
            <Position>
              <LatitudeDegrees>43.34159812889993190765380859375</LatitudeDegrees>
              <LongitudeDegrees>-1.8492156453430652618408203125</LongitudeDegrees>
            </Position>
            <AltitudeMeters>245.8000030517578125</AltitudeMeters>
            <DistanceMeters>NAN</DistanceMeters>
          </Trackpoint>
          <Trackpoint>
            <Time>2022-07-08T18:00:38.000Z</Time>
            <Position>
              <LatitudeDegrees>43.34160047583281993865966796875</LatitudeDegrees>
              <LongitudeDegrees>-1.8492518551647663116455078125</LongitudeDegrees>
            </Position>
            <AltitudeMeters>245.600006103515625</AltitudeMeters>
            <DistanceMeters>NAN</DistanceMeters>
          </Trackpoint>
          <Trackpoint>
            <Time>2022-07-08T18:00:39.000Z</Time>
            <Position>
              <LatitudeDegrees>43.34159997291862964630126953125</LatitudeDegrees>
              <LongitudeDegrees>-1.8492873944342136383056640625</LongitudeDegrees>
            </Position>
            <AltitudeMeters>245.399993896484375</AltitudeMeters>
            <DistanceMeters>NAN</DistanceMeters>
          </Trackpoint>
          <Trackpoint>
            <Time>2022-07-08T18:00:40.000Z</Time>
            <Position>
              <LatitudeDegrees>43.3416057564318180084228515625</LatitudeDegrees>
              <LongitudeDegrees>-1.84930860064923763275146484375</LongitudeDegrees>
            </Position>
            <AltitudeMeters>245.399993896484375</AltitudeMeters>
            <DistanceMeters>NAN</DistanceMeters>
          </Trackpoint>
          <Trackpoint>
            <Time>2022-07-08T18:00:42.000Z</Time>
            <Position>
              <LatitudeDegrees>43.34162972867488861083984375</LatitudeDegrees>
              <LongitudeDegrees>-1.84930793009698390960693359375</LongitudeDegrees>
            </Position>
            <AltitudeMeters>245.1999969482421875</AltitudeMeters>
            <DistanceMeters>NAN</DistanceMeters>
          </Trackpoint>
          <Trackpoint>
            <Time>2022-07-08T18:00:44.000Z</Time>
            <Position>
              <LatitudeDegrees>43.341632746160030364990234375</LatitudeDegrees>
              <LongitudeDegrees>-1.8492642603814601898193359375</LongitudeDegrees>
            </Position>
            <AltitudeMeters>245.1999969482421875</AltitudeMeters>
            <DistanceMeters>NAN</DistanceMeters>
          </Trackpoint>
          <Trackpoint>
            <Time>2022-07-08T18:00:46.000Z</Time>
            <Position>
              <LatitudeDegrees>43.3416151441633701324462890625</LatitudeDegrees>
              <LongitudeDegrees>-1.84921522624790668487548828125</LongitudeDegrees>
            </Position>
            <AltitudeMeters>245.1999969482421875</AltitudeMeters>
            <DistanceMeters>NAN</DistanceMeters>
          </Trackpoint>
          <Trackpoint>
            <Time>2022-07-08T18:00:52.000Z</Time>
            <Position>
              <LatitudeDegrees>43.3415732346475124359130859375</LatitudeDegrees>
              <LongitudeDegrees>-1.84908463619649410247802734375</LongitudeDegrees>
            </Position>
            <AltitudeMeters>245.1999969482421875</AltitudeMeters>
            <DistanceMeters>NAN</DistanceMeters>
          </Trackpoint>
          <Trackpoint>
            <Time>2022-07-08T18:00:53.000Z</Time>
            <Position>
              <LatitudeDegrees>43.34157147444784641265869140625</LatitudeDegrees>
              <LongitudeDegrees>-1.849060915410518646240234375</LongitudeDegrees>
            </Position>
            <AltitudeMeters>245.1999969482421875</AltitudeMeters>
            <DistanceMeters>NAN</DistanceMeters>
          </Trackpoint>
          <Trackpoint>
            <Time>2022-07-08T18:00:57.000Z</Time>
            <Position>
              <LatitudeDegrees>43.34158052690327167510986328125</LatitudeDegrees>
              <LongitudeDegrees>-1.84899662621319293975830078125</LongitudeDegrees>
            </Position>
            <AltitudeMeters>246</AltitudeMeters>
            <DistanceMeters>NAN</DistanceMeters>
          </Trackpoint>
          <Trackpoint>
            <Time>2022-07-08T18:00:58.000Z</Time>
            <Position>
              <LatitudeDegrees>43.34158052690327167510986328125</LatitudeDegrees>
              <LongitudeDegrees>-1.84899662621319293975830078125</LongitudeDegrees>
            </Position>
            <AltitudeMeters>246</AltitudeMeters>
            <DistanceMeters>NAN</DistanceMeters>
          </Trackpoint>
          <Trackpoint>
            <Time>2022-07-09T06:13:36.000Z</Time>
            <Position>
              <LatitudeDegrees>43.34163886494934558868408203125</LatitudeDegrees>
              <LongitudeDegrees>-1.848931498825550079345703125</LongitudeDegrees>
            </Position>
            <AltitudeMeters>226.600006103515625</AltitudeMeters>
            <DistanceMeters>NAN</DistanceMeters>
          </Trackpoint>
          <Trackpoint>
            <Time>2022-07-09T06:13:37.000Z</Time>
            <Position>
              <LatitudeDegrees>43.341638781130313873291015625</LatitudeDegrees>
              <LongitudeDegrees>-1.848931498825550079345703125</LongitudeDegrees>
            </Position>
            <AltitudeMeters>226.600006103515625</AltitudeMeters>
            <DistanceMeters>NAN</DistanceMeters>
          </Trackpoint>
          <Trackpoint>
            <Time>2022-07-09T06:13:42.000Z</Time>
            <Position>
              <LatitudeDegrees>43.34160969592630863189697265625</LatitudeDegrees>
              <LongitudeDegrees>-1.84897952713072299957275390625</LongitudeDegrees>
            </Position>
            <AltitudeMeters>226.600006103515625</AltitudeMeters>
            <DistanceMeters>NAN</DistanceMeters>
          </Trackpoint>
          <Trackpoint>
            <Time>2022-07-09T06:13:44.000Z</Time>
            <Position>
              <LatitudeDegrees>43.34159142337739467620849609375</LatitudeDegrees>
              <LongitudeDegrees>-1.84905010275542736053466796875</LongitudeDegrees>
            </Position>
            <AltitudeMeters>226.600006103515625</AltitudeMeters>
            <DistanceMeters>NAN</DistanceMeters>
          </Trackpoint>
          <Trackpoint>
            <Time>2022-07-09T06:13:47.000Z</Time>
            <Position>
              <LatitudeDegrees>43.34158857353031635284423828125</LatitudeDegrees>
              <LongitudeDegrees>-1.84917214326560497283935546875</LongitudeDegrees>
            </Position>
            <AltitudeMeters>226</AltitudeMeters>
            <DistanceMeters>NAN</DistanceMeters>
          </Trackpoint>
          <Trackpoint>
            <Time>2022-07-09T06:13:49.000Z</Time>
            <Position>
              <LatitudeDegrees>43.34160022437572479248046875</LatitudeDegrees>
              <LongitudeDegrees>-1.849241964519023895263671875</LongitudeDegrees>
            </Position>
            <AltitudeMeters>225.600006103515625</AltitudeMeters>
            <DistanceMeters>NAN</DistanceMeters>
          </Trackpoint>
          <Trackpoint>
            <Time>2022-07-09T06:13:56.000Z</Time>
            <Position>
              <LatitudeDegrees>43.34162495099008083343505859375</LatitudeDegrees>
              <LongitudeDegrees>-1.849437095224857330322265625</LongitudeDegrees>
            </Position>
            <AltitudeMeters>225</AltitudeMeters>
            <DistanceMeters>NAN</DistanceMeters>
          </Trackpoint>
          <Trackpoint>
            <Time>2022-07-09T06:14:01.000Z</Time>
            <Position>
              <LatitudeDegrees>43.34165923297405242919921875</LatitudeDegrees>
              <LongitudeDegrees>-1.84955435805022716522216796875</LongitudeDegrees>
            </Position>
            <AltitudeMeters>224.399993896484375</AltitudeMeters>
            <DistanceMeters>NAN</DistanceMeters>
          </Trackpoint>
          <Trackpoint>
            <Time>2022-07-09T06:14:03.000Z</Time>
            <Position>
              <LatitudeDegrees>43.3416795171797275543212890625</LatitudeDegrees>
              <LongitudeDegrees>-1.84961470775306224822998046875</LongitudeDegrees>
            </Position>
            <AltitudeMeters>224</AltitudeMeters>
            <DistanceMeters>NAN</DistanceMeters>
          </Trackpoint>
          <Trackpoint>
            <Time>2022-07-09T06:14:07.000Z</Time>
            <Position>
              <LatitudeDegrees>43.34171229042112827301025390625</LatitudeDegrees>
              <LongitudeDegrees>-1.8497185595333576202392578125</LongitudeDegrees>
            </Position>
            <AltitudeMeters>223.399993896484375</AltitudeMeters>
            <DistanceMeters>NAN</DistanceMeters>
          </Trackpoint>
          <Trackpoint>
            <Time>2022-07-09T06:14:08.000Z</Time>
            <Position>
              <LatitudeDegrees>43.3417174033820629119873046875</LatitudeDegrees>
              <LongitudeDegrees>-1.84973591007292270660400390625</LongitudeDegrees>
            </Position>
            <AltitudeMeters>223.1999969482421875</AltitudeMeters>
            <DistanceMeters>NAN</DistanceMeters>
          </Trackpoint>
          <Trackpoint>
            <Time>2022-07-09T06:14:11.000Z</Time>
            <Position>
              <LatitudeDegrees>43.34173860959708690643310546875</LatitudeDegrees>
              <LongitudeDegrees>-1.849823333323001861572265625</LongitudeDegrees>
            </Position>
            <AltitudeMeters>222.8000030517578125</AltitudeMeters>
            <DistanceMeters>NAN</DistanceMeters>
          </Trackpoint>
          <Trackpoint>
            <Time>2022-07-09T06:14:14.000Z</Time>
            <Position>
              <LatitudeDegrees>43.3417562954127788543701171875</LatitudeDegrees>
              <LongitudeDegrees>-1.849876306951045989990234375</LongitudeDegrees>
            </Position>
            <AltitudeMeters>222.399993896484375</AltitudeMeters>
            <DistanceMeters>NAN</DistanceMeters>
          </Trackpoint>
          <Trackpoint>
            <Time>2022-07-09T06:14:15.000Z</Time>
            <Position>
              <LatitudeDegrees>43.341768868267536163330078125</LatitudeDegrees>
              <LongitudeDegrees>-1.8499195575714111328125</LongitudeDegrees>
            </Position>
            <AltitudeMeters>222.399993896484375</AltitudeMeters>
            <DistanceMeters>NAN</DistanceMeters>
          </Trackpoint>
          <Trackpoint>
            <Time>2022-07-09T06:14:17.000Z</Time>
            <Position>
              <LatitudeDegrees>43.34178152494132518768310546875</LatitudeDegrees>
              <LongitudeDegrees>-1.8499718606472015380859375</LongitudeDegrees>
            </Position>
            <AltitudeMeters>222</AltitudeMeters>
            <DistanceMeters>NAN</DistanceMeters>
          </Trackpoint>
          <Trackpoint>
            <Time>2022-07-09T06:14:19.000Z</Time>
            <Position>
              <LatitudeDegrees>43.3417764119803905487060546875</LatitudeDegrees>
              <LongitudeDegrees>-1.85001812875270843505859375</LongitudeDegrees>
            </Position>
            <AltitudeMeters>221.600006103515625</AltitudeMeters>
            <DistanceMeters>NAN</DistanceMeters>
          </Trackpoint>
          <Trackpoint>
            <Time>2022-07-09T06:14:21.000Z</Time>
            <Position>
              <LatitudeDegrees>43.341780267655849456787109375</LatitudeDegrees>
              <LongitudeDegrees>-1.8500709347426891326904296875</LongitudeDegrees>
            </Position>
            <AltitudeMeters>221.600006103515625</AltitudeMeters>
            <DistanceMeters>NAN</DistanceMeters>
          </Trackpoint>
          <Trackpoint>
            <Time>2022-07-09T06:14:22.000Z</Time>
            <Position>
              <LatitudeDegrees>43.34177817218005657196044921875</LatitudeDegrees>
              <LongitudeDegrees>-1.85010085813701152801513671875</LongitudeDegrees>
            </Position>
            <AltitudeMeters>221.399993896484375</AltitudeMeters>
            <DistanceMeters>NAN</DistanceMeters>
          </Trackpoint>
          <Trackpoint>
            <Time>2022-07-09T06:14:23.000Z</Time>
            <Position>
              <LatitudeDegrees>43.3417710475623607635498046875</LatitudeDegrees>
              <LongitudeDegrees>-1.85013036243617534637451171875</LongitudeDegrees>
            </Position>
            <AltitudeMeters>221.399993896484375</AltitudeMeters>
            <DistanceMeters>NAN</DistanceMeters>
          </Trackpoint>
          <Trackpoint>
            <Time>2022-07-09T06:14:24.000Z</Time>
            <Position>
              <LatitudeDegrees>43.3417604863643646240234375</LatitudeDegrees>
              <LongitudeDegrees>-1.8501571007072925567626953125</LongitudeDegrees>
            </Position>
            <AltitudeMeters>221.1999969482421875</AltitudeMeters>
            <DistanceMeters>NAN</DistanceMeters>
          </Trackpoint>
          <Trackpoint>
            <Time>2022-07-09T06:14:27.000Z</Time>
            <Position>
              <LatitudeDegrees>43.34173643030226230621337890625</LatitudeDegrees>
              <LongitudeDegrees>-1.85023446567356586456298828125</LongitudeDegrees>
            </Position>
            <AltitudeMeters>220.8000030517578125</AltitudeMeters>
            <DistanceMeters>NAN</DistanceMeters>
          </Trackpoint>
          <Trackpoint>
            <Time>2022-07-09T06:14:32.000Z</Time>
            <Position>
              <LatitudeDegrees>43.3417281322181224822998046875</LatitudeDegrees>
              <LongitudeDegrees>-1.850355081260204315185546875</LongitudeDegrees>
            </Position>
            <AltitudeMeters>220.1999969482421875</AltitudeMeters>
            <DistanceMeters>NAN</DistanceMeters>
          </Trackpoint>
          <Trackpoint>
            <Time>2022-07-09T06:14:33.000Z</Time>
            <Position>
              <LatitudeDegrees>43.34173089824616909027099609375</LatitudeDegrees>
              <LongitudeDegrees>-1.8503822386264801025390625</LongitudeDegrees>
            </Position>
            <AltitudeMeters>220.1999969482421875</AltitudeMeters>
            <DistanceMeters>NAN</DistanceMeters>
          </Trackpoint>
          <Trackpoint>
            <Time>2022-07-09T06:14:36.000Z</Time>
            <Position>
              <LatitudeDegrees>43.34176241420209407806396484375</LatitudeDegrees>
              <LongitudeDegrees>-1.85043328441679477691650390625</LongitudeDegrees>
            </Position>
            <AltitudeMeters>219.8000030517578125</AltitudeMeters>
            <DistanceMeters>NAN</DistanceMeters>
          </Trackpoint>
          <Trackpoint>
            <Time>2022-07-09T06:14:41.000Z</Time>
            <Position>
              <LatitudeDegrees>43.34181253798305988311767578125</LatitudeDegrees>
              <LongitudeDegrees>-1.850535459816455841064453125</LongitudeDegrees>
            </Position>
            <AltitudeMeters>219.399993896484375</AltitudeMeters>
            <DistanceMeters>NAN</DistanceMeters>
          </Trackpoint>
          <Trackpoint>
            <Time>2022-07-09T06:14:42.000Z</Time>
            <Position>
              <LatitudeDegrees>43.34181538783013820648193359375</LatitudeDegrees>
              <LongitudeDegrees>-1.8505584262311458587646484375</LongitudeDegrees>
            </Position>
            <AltitudeMeters>218.8000030517578125</AltitudeMeters>
            <DistanceMeters>NAN</DistanceMeters>
          </Trackpoint>
          <Trackpoint>
            <Time>2022-07-09T06:14:43.000Z</Time>
            <Position>
              <LatitudeDegrees>43.34181555546820163726806640625</LatitudeDegrees>
              <LongitudeDegrees>-1.85058415867388248443603515625</LongitudeDegrees>
            </Position>
            <AltitudeMeters>218.600006103515625</AltitudeMeters>
            <DistanceMeters>NAN</DistanceMeters>
          </Trackpoint>
          <Trackpoint>
            <Time>2022-07-09T06:14:44.000Z</Time>
            <Position>
              <LatitudeDegrees>43.34181136451661586761474609375</LatitudeDegrees>
              <LongitudeDegrees>-1.8506130762398242950439453125</LongitudeDegrees>
            </Position>
            <AltitudeMeters>218.399993896484375</AltitudeMeters>
            <DistanceMeters>NAN</DistanceMeters>
          </Trackpoint>
          <Trackpoint>
            <Time>2022-07-09T06:14:45.000Z</Time>
            <Position>
              <LatitudeDegrees>43.34180541336536407470703125</LatitudeDegrees>
              <LongitudeDegrees>-1.8506415747106075286865234375</LongitudeDegrees>
            </Position>
            <AltitudeMeters>218</AltitudeMeters>
            <DistanceMeters>NAN</DistanceMeters>
          </Trackpoint>
          <Trackpoint>
            <Time>2022-07-09T06:14:47.000Z</Time>
            <Position>
              <LatitudeDegrees>43.3417898230254650115966796875</LatitudeDegrees>
              <LongitudeDegrees>-1.8506915308535099029541015625</LongitudeDegrees>
            </Position>
            <AltitudeMeters>217.8000030517578125</AltitudeMeters>
            <DistanceMeters>NAN</DistanceMeters>
          </Trackpoint>
          <Trackpoint>
            <Time>2022-07-09T06:14:50.000Z</Time>
            <Position>
              <LatitudeDegrees>43.34177683107554912567138671875</LatitudeDegrees>
              <LongitudeDegrees>-1.85074903070926666259765625</LongitudeDegrees>
            </Position>
            <AltitudeMeters>217.399993896484375</AltitudeMeters>
            <DistanceMeters>NAN</DistanceMeters>
          </Trackpoint>
          <Trackpoint>
            <Time>2022-07-09T06:14:51.000Z</Time>
            <Position>
              <LatitudeDegrees>43.3417814411222934722900390625</LatitudeDegrees>
              <LongitudeDegrees>-1.85074391774833202362060546875</LongitudeDegrees>
            </Position>
            <AltitudeMeters>217.399993896484375</AltitudeMeters>
            <DistanceMeters>NAN</DistanceMeters>
          </Trackpoint>
          <Trackpoint>
            <Time>2022-07-09T06:15:03.000Z</Time>
            <Position>
              <LatitudeDegrees>43.3417811058461666107177734375</LatitudeDegrees>
              <LongitudeDegrees>-1.850793622434139251708984375</LongitudeDegrees>
            </Position>
            <AltitudeMeters>217</AltitudeMeters>
            <DistanceMeters>NAN</DistanceMeters>
          </Trackpoint>
          <Trackpoint>
            <Time>2022-07-09T06:15:05.000Z</Time>
            <Position>
              <LatitudeDegrees>43.34176023490726947784423828125</LatitudeDegrees>
              <LongitudeDegrees>-1.85082974843680858612060546875</LongitudeDegrees>
            </Position>
            <AltitudeMeters>216.8000030517578125</AltitudeMeters>
            <DistanceMeters>NAN</DistanceMeters>
          </Trackpoint>
          <Trackpoint>
            <Time>2022-07-09T06:15:08.000Z</Time>
            <Position>
              <LatitudeDegrees>43.34171698428690433502197265625</LatitudeDegrees>
              <LongitudeDegrees>-1.85087232850492000579833984375</LongitudeDegrees>
            </Position>
            <AltitudeMeters>216.399993896484375</AltitudeMeters>
            <DistanceMeters>NAN</DistanceMeters>
          </Trackpoint>
          <Trackpoint>
            <Time>2022-07-09T06:15:10.000Z</Time>
            <Position>
              <LatitudeDegrees>43.34167256020009517669677734375</LatitudeDegrees>
              <LongitudeDegrees>-1.8508876673877239227294921875</LongitudeDegrees>
            </Position>
            <AltitudeMeters>215.8000030517578125</AltitudeMeters>
            <DistanceMeters>NAN</DistanceMeters>
          </Trackpoint>
          <Trackpoint>
            <Time>2022-07-09T06:15:11.000Z</Time>
            <Position>
              <LatitudeDegrees>43.34164707921445369720458984375</LatitudeDegrees>
              <LongitudeDegrees>-1.8508799560368061065673828125</LongitudeDegrees>
            </Position>
            <AltitudeMeters>215.600006103515625</AltitudeMeters>
            <DistanceMeters>NAN</DistanceMeters>
          </Trackpoint>
          <Trackpoint>
            <Time>2022-07-09T06:15:12.000Z</Time>
            <Position>
              <LatitudeDegrees>43.34162595681846141815185546875</LatitudeDegrees>
              <LongitudeDegrees>-1.850871741771697998046875</LongitudeDegrees>
            </Position>
            <AltitudeMeters>215.399993896484375</AltitudeMeters>
            <DistanceMeters>NAN</DistanceMeters>
          </Trackpoint>
          <Trackpoint>
            <Time>2022-07-09T06:15:16.000Z</Time>
            <Position>
              <LatitudeDegrees>43.34152990020811557769775390625</LatitudeDegrees>
              <LongitudeDegrees>-1.85082455165684223175048828125</LongitudeDegrees>
            </Position>
            <AltitudeMeters>214.1999969482421875</AltitudeMeters>
            <DistanceMeters>NAN</DistanceMeters>
          </Trackpoint>
          <Trackpoint>
            <Time>2022-07-09T06:15:17.000Z</Time>
            <Position>
              <LatitudeDegrees>43.34150039590895175933837890625</LatitudeDegrees>
              <LongitudeDegrees>-1.85079286806285381317138671875</LongitudeDegrees>
            </Position>
            <AltitudeMeters>214</AltitudeMeters>
            <DistanceMeters>NAN</DistanceMeters>
          </Trackpoint>
          <Trackpoint>
            <Time>2022-07-09T06:15:21.000Z</Time>
            <Position>
              <LatitudeDegrees>43.34137835539877414703369140625</LatitudeDegrees>
              <LongitudeDegrees>-1.8507230468094348907470703125</LongitudeDegrees>
            </Position>
            <AltitudeMeters>213.1999969482421875</AltitudeMeters>
            <DistanceMeters>NAN</DistanceMeters>
          </Trackpoint>
          <Trackpoint>
            <Time>2022-07-09T06:15:22.000Z</Time>
            <Position>
              <LatitudeDegrees>43.34135287441313266754150390625</LatitudeDegrees>
              <LongitudeDegrees>-1.85071550309658050537109375</LongitudeDegrees>
            </Position>
            <AltitudeMeters>213</AltitudeMeters>
            <DistanceMeters>NAN</DistanceMeters>
          </Trackpoint>
          <Trackpoint>
            <Time>2022-07-09T06:15:27.000Z</Time>
            <Position>
              <LatitudeDegrees>43.34123100154101848602294921875</LatitudeDegrees>
              <LongitudeDegrees>-1.8506962247192859649658203125</LongitudeDegrees>
            </Position>
            <AltitudeMeters>211.8000030517578125</AltitudeMeters>
            <DistanceMeters>NAN</DistanceMeters>
          </Trackpoint>
          <Trackpoint>
            <Time>2022-07-09T06:15:32.000Z</Time>
            <Position>
              <LatitudeDegrees>43.34110007621347904205322265625</LatitudeDegrees>
              <LongitudeDegrees>-1.8507294170558452606201171875</LongitudeDegrees>
            </Position>
            <AltitudeMeters>211</AltitudeMeters>
            <DistanceMeters>NAN</DistanceMeters>
          </Trackpoint>
          <Trackpoint>
            <Time>2022-07-09T06:15:33.000Z</Time>
            <Position>
              <LatitudeDegrees>43.34107451140880584716796875</LatitudeDegrees>
              <LongitudeDegrees>-1.850752048194408416748046875</LongitudeDegrees>
            </Position>
            <AltitudeMeters>211</AltitudeMeters>
            <DistanceMeters>NAN</DistanceMeters>
          </Trackpoint>
          <Trackpoint>
            <Time>2022-07-09T06:15:35.000Z</Time>
            <Position>
              <LatitudeDegrees>43.3410334400832653045654296875</LatitudeDegrees>
              <LongitudeDegrees>-1.85081533156335353851318359375</LongitudeDegrees>
            </Position>
            <AltitudeMeters>210.8000030517578125</AltitudeMeters>
            <DistanceMeters>NAN</DistanceMeters>
          </Trackpoint>
          <Trackpoint>
            <Time>2022-07-09T06:15:36.000Z</Time>
            <Position>
              <LatitudeDegrees>43.34102530963718891143798828125</LatitudeDegrees>
              <LongitudeDegrees>-1.850850619375705718994140625</LongitudeDegrees>
            </Position>
            <AltitudeMeters>210.600006103515625</AltitudeMeters>
            <DistanceMeters>NAN</DistanceMeters>
          </Trackpoint>
          <Trackpoint>
            <Time>2022-07-09T06:15:39.000Z</Time>
            <Position>
              <LatitudeDegrees>43.34100569598376750946044921875</LatitudeDegrees>
              <LongitudeDegrees>-1.85095346532762050628662109375</LongitudeDegrees>
            </Position>
            <AltitudeMeters>210.1999969482421875</AltitudeMeters>
            <DistanceMeters>NAN</DistanceMeters>
          </Trackpoint>
          <Trackpoint>
            <Time>2022-07-09T06:15:41.000Z</Time>
            <Position>
              <LatitudeDegrees>43.3409868367016315460205078125</LatitudeDegrees>
              <LongitudeDegrees>-1.850994117558002471923828125</LongitudeDegrees>
            </Position>
            <AltitudeMeters>209.8000030517578125</AltitudeMeters>
            <DistanceMeters>NAN</DistanceMeters>
          </Trackpoint>
          <Trackpoint>
            <Time>2022-07-09T06:15:42.000Z</Time>
            <Position>
              <LatitudeDegrees>43.3409764431416988372802734375</LatitudeDegrees>
              <LongitudeDegrees>-1.8510167486965656280517578125</LongitudeDegrees>
            </Position>
            <AltitudeMeters>209.600006103515625</AltitudeMeters>
            <DistanceMeters>NAN</DistanceMeters>
          </Trackpoint>
          <Trackpoint>
            <Time>2022-07-09T06:15:47.000Z</Time>
            <Position>
              <LatitudeDegrees>43.34088633768260478973388671875</LatitudeDegrees>
              <LongitudeDegrees>-1.85110710561275482177734375</LongitudeDegrees>
            </Position>
            <AltitudeMeters>208.600006103515625</AltitudeMeters>
            <DistanceMeters>NAN</DistanceMeters>
          </Trackpoint>
          <Trackpoint>
            <Time>2022-07-09T06:15:48.000Z</Time>
            <Position>
              <LatitudeDegrees>43.34087108261883258819580078125</LatitudeDegrees>
              <LongitudeDegrees>-1.85111473314464092254638671875</LongitudeDegrees>
            </Position>
            <AltitudeMeters>208.399993896484375</AltitudeMeters>
            <DistanceMeters>NAN</DistanceMeters>
          </Trackpoint>
          <Trackpoint>
            <Time>2022-07-09T06:15:49.000Z</Time>
            <Position>
              <LatitudeDegrees>43.34085582755506038665771484375</LatitudeDegrees>
              <LongitudeDegrees>-1.85112730599939823150634765625</LongitudeDegrees>
            </Position>
            <AltitudeMeters>208.399993896484375</AltitudeMeters>
            <DistanceMeters>NAN</DistanceMeters>
          </Trackpoint>
          <Trackpoint>
            <Time>2022-07-09T06:15:56.000Z</Time>
            <Position>
              <LatitudeDegrees>43.3407682366669178009033203125</LatitudeDegrees>
              <LongitudeDegrees>-1.85119519941508769989013671875</LongitudeDegrees>
            </Position>
            <AltitudeMeters>207.600006103515625</AltitudeMeters>
            <DistanceMeters>NAN</DistanceMeters>
          </Trackpoint>
          <Trackpoint>
            <Time>2022-07-09T06:15:58.000Z</Time>
            <Position>
              <LatitudeDegrees>43.34072649478912353515625</LatitudeDegrees>
              <LongitudeDegrees>-1.85122084803879261016845703125</LongitudeDegrees>
            </Position>
            <AltitudeMeters>207.399993896484375</AltitudeMeters>
            <DistanceMeters>NAN</DistanceMeters>
          </Trackpoint>
          <Trackpoint>
            <Time>2022-07-09T06:16:02.000Z</Time>
            <Position>
              <LatitudeDegrees>43.340643011033535003662109375</LatitudeDegrees>
              <LongitudeDegrees>-1.851268708705902099609375</LongitudeDegrees>
            </Position>
            <AltitudeMeters>206.600006103515625</AltitudeMeters>
            <DistanceMeters>NAN</DistanceMeters>
          </Trackpoint>
          <Trackpoint>
            <Time>2022-07-09T06:16:05.000Z</Time>
            <Position>
              <LatitudeDegrees>43.34058609791100025177001953125</LatitudeDegrees>
              <LongitudeDegrees>-1.8513312377035617828369140625</LongitudeDegrees>
            </Position>
            <AltitudeMeters>206.1999969482421875</AltitudeMeters>
            <DistanceMeters>NAN</DistanceMeters>
          </Trackpoint>
          <Trackpoint>
            <Time>2022-07-09T06:16:08.000Z</Time>
            <Position>
              <LatitudeDegrees>43.3405427634716033935546875</LatitudeDegrees>
              <LongitudeDegrees>-1.85133777558803558349609375</LongitudeDegrees>
            </Position>
            <AltitudeMeters>205.8000030517578125</AltitudeMeters>
            <DistanceMeters>NAN</DistanceMeters>
          </Trackpoint>
          <Trackpoint>
            <Time>2022-07-09T06:16:14.000Z</Time>
            <Position>
              <LatitudeDegrees>43.34045751951634883880615234375</LatitudeDegrees>
              <LongitudeDegrees>-1.851383708417415618896484375</LongitudeDegrees>
            </Position>
            <AltitudeMeters>205</AltitudeMeters>
            <DistanceMeters>NAN</DistanceMeters>
          </Trackpoint>
          <Trackpoint>
            <Time>2022-07-09T06:16:16.000Z</Time>
            <Position>
              <LatitudeDegrees>43.34041871130466461181640625</LatitudeDegrees>
              <LongitudeDegrees>-1.85137876309454441070556640625</LongitudeDegrees>
            </Position>
            <AltitudeMeters>204.600006103515625</AltitudeMeters>
            <DistanceMeters>NAN</DistanceMeters>
          </Trackpoint>
          <Trackpoint>
            <Time>2022-07-09T06:16:20.000Z</Time>
            <Position>
              <LatitudeDegrees>43.340331204235553741455078125</LatitudeDegrees>
              <LongitudeDegrees>-1.851363591849803924560546875</LongitudeDegrees>
            </Position>
            <AltitudeMeters>204</AltitudeMeters>
            <DistanceMeters>NAN</DistanceMeters>
          </Trackpoint>
          <Trackpoint>
            <Time>2022-07-09T06:16:21.000Z</Time>
            <Position>
              <LatitudeDegrees>43.3403246663510799407958984375</LatitudeDegrees>
              <LongitudeDegrees>-1.8513612449169158935546875</LongitudeDegrees>
            </Position>
            <AltitudeMeters>204</AltitudeMeters>
            <DistanceMeters>NAN</DistanceMeters>
          </Trackpoint>
          <Trackpoint>
            <Time>2022-07-09T06:16:23.000Z</Time>
            <Position>
              <LatitudeDegrees>43.3403193019330501556396484375</LatitudeDegrees>
              <LongitudeDegrees>-1.85133299790322780609130859375</LongitudeDegrees>
            </Position>
            <AltitudeMeters>203.600006103515625</AltitudeMeters>
            <DistanceMeters>NAN</DistanceMeters>
          </Trackpoint>
          <Trackpoint>
            <Time>2022-07-09T06:16:26.000Z</Time>
            <Position>
              <LatitudeDegrees>43.3402871154248714447021484375</LatitudeDegrees>
              <LongitudeDegrees>-1.85128547251224517822265625</LongitudeDegrees>
            </Position>
            <AltitudeMeters>203.399993896484375</AltitudeMeters>
            <DistanceMeters>NAN</DistanceMeters>
          </Trackpoint>
          <Trackpoint>
            <Time>2022-07-09T06:16:29.000Z</Time>
            <Position>
              <LatitudeDegrees>43.3402237482368946075439453125</LatitudeDegrees>
              <LongitudeDegrees>-1.8512420542538166046142578125</LongitudeDegrees>
            </Position>
            <AltitudeMeters>203</AltitudeMeters>
            <DistanceMeters>NAN</DistanceMeters>
          </Trackpoint>
          <Trackpoint>
            <Time>2022-07-09T06:16:30.000Z</Time>
            <Position>
              <LatitudeDegrees>43.34020589478313922882080078125</LatitudeDegrees>
              <LongitudeDegrees>-1.85122772119939327239990234375</LongitudeDegrees>
            </Position>
            <AltitudeMeters>203</AltitudeMeters>
            <DistanceMeters>NAN</DistanceMeters>
          </Trackpoint>
          <Trackpoint>
            <Time>2022-07-09T06:16:34.000Z</Time>
            <Position>
              <LatitudeDegrees>43.34012878127396106719970703125</LatitudeDegrees>
              <LongitudeDegrees>-1.851179860532283782958984375</LongitudeDegrees>
            </Position>
            <AltitudeMeters>202</AltitudeMeters>
            <DistanceMeters>NAN</DistanceMeters>
          </Trackpoint>
          <Trackpoint>
            <Time>2022-07-09T06:16:35.000Z</Time>
            <Position>
              <LatitudeDegrees>43.3401057310402393341064453125</LatitudeDegrees>
              <LongitudeDegrees>-1.8511672876775264739990234375</LongitudeDegrees>
            </Position>
            <AltitudeMeters>201.8000030517578125</AltitudeMeters>
            <DistanceMeters>NAN</DistanceMeters>
          </Trackpoint>
          <Trackpoint>
            <Time>2022-07-09T06:16:38.000Z</Time>
            <Position>
              <LatitudeDegrees>43.3400188945233821868896484375</LatitudeDegrees>
              <LongitudeDegrees>-1.85112529434263706207275390625</LongitudeDegrees>
            </Position>
            <AltitudeMeters>201.1999969482421875</AltitudeMeters>
            <DistanceMeters>NAN</DistanceMeters>
          </Trackpoint>
          <Trackpoint>
            <Time>2022-07-09T06:16:41.000Z</Time>
            <Position>
              <LatitudeDegrees>43.33988000638782978057861328125</LatitudeDegrees>
              <LongitudeDegrees>-1.8510814569890499114990234375</LongitudeDegrees>
            </Position>
            <AltitudeMeters>200.8000030517578125</AltitudeMeters>
            <DistanceMeters>NAN</DistanceMeters>
          </Trackpoint>
          <Trackpoint>
            <Time>2022-07-09T06:16:42.000Z</Time>
            <Position>
              <LatitudeDegrees>43.3398549444973468780517578125</LatitudeDegrees>
              <LongitudeDegrees>-1.85104675590991973876953125</LongitudeDegrees>
            </Position>
            <AltitudeMeters>200.600006103515625</AltitudeMeters>
            <DistanceMeters>NAN</DistanceMeters>
          </Trackpoint>
          <Trackpoint>
            <Time>2022-07-09T06:16:46.000Z</Time>
            <Position>
              <LatitudeDegrees>43.33968638442456722259521484375</LatitudeDegrees>
              <LongitudeDegrees>-1.85097592882812023162841796875</LongitudeDegrees>
            </Position>
            <AltitudeMeters>200</AltitudeMeters>
            <DistanceMeters>NAN</DistanceMeters>
          </Trackpoint>
          <Trackpoint>
            <Time>2022-07-09T06:16:49.000Z</Time>
            <Position>
              <LatitudeDegrees>43.33958010189235210418701171875</LatitudeDegrees>
              <LongitudeDegrees>-1.850937791168689727783203125</LongitudeDegrees>
            </Position>
            <AltitudeMeters>199.8000030517578125</AltitudeMeters>
            <DistanceMeters>NAN</DistanceMeters>
          </Trackpoint>
          <Trackpoint>
            <Time>2022-07-09T06:16:50.000Z</Time>
            <Position>
              <LatitudeDegrees>43.3395508490502834320068359375</LatitudeDegrees>
              <LongitudeDegrees>-1.85090702958405017852783203125</LongitudeDegrees>
            </Position>
            <AltitudeMeters>199.399993896484375</AltitudeMeters>
            <DistanceMeters>NAN</DistanceMeters>
          </Trackpoint>
          <Trackpoint>
            <Time>2022-07-09T06:16:52.000Z</Time>
            <Position>
              <LatitudeDegrees>43.339474238455295562744140625</LatitudeDegrees>
              <LongitudeDegrees>-1.850857995450496673583984375</LongitudeDegrees>
            </Position>
            <AltitudeMeters>199</AltitudeMeters>
            <DistanceMeters>NAN</DistanceMeters>
          </Trackpoint>
          <Trackpoint>
            <Time>2022-07-09T06:16:56.000Z</Time>
            <Position>
              <LatitudeDegrees>43.339329399168491363525390625</LatitudeDegrees>
              <LongitudeDegrees>-1.85086436569690704345703125</LongitudeDegrees>
            </Position>
            <AltitudeMeters>198.399993896484375</AltitudeMeters>
            <DistanceMeters>NAN</DistanceMeters>
          </Trackpoint>
          <Trackpoint>
            <Time>2022-07-09T06:16:57.000Z</Time>
            <Position>
              <LatitudeDegrees>43.33929612301290035247802734375</LatitudeDegrees>
              <LongitudeDegrees>-1.85086704790592193603515625</LongitudeDegrees>
            </Position>
            <AltitudeMeters>198</AltitudeMeters>
            <DistanceMeters>NAN</DistanceMeters>
          </Trackpoint>
          <Trackpoint>
            <Time>2022-07-09T06:17:00.000Z</Time>
            <Position>
              <LatitudeDegrees>43.339165784418582916259765625</LatitudeDegrees>
              <LongitudeDegrees>-1.85078063048422336578369140625</LongitudeDegrees>
            </Position>
            <AltitudeMeters>197.1999969482421875</AltitudeMeters>
            <DistanceMeters>NAN</DistanceMeters>
          </Trackpoint>
          <Trackpoint>
            <Time>2022-07-09T06:17:02.000Z</Time>
            <Position>
              <LatitudeDegrees>43.33909210748970508575439453125</LatitudeDegrees>
              <LongitudeDegrees>-1.85076923109591007232666015625</LongitudeDegrees>
            </Position>
            <AltitudeMeters>197</AltitudeMeters>
            <DistanceMeters>NAN</DistanceMeters>
          </Trackpoint>
          <Trackpoint>
            <Time>2022-07-09T06:17:03.000Z</Time>
            <Position>
              <LatitudeDegrees>43.33906310610473155975341796875</LatitudeDegrees>
              <LongitudeDegrees>-1.8507703207433223724365234375</LongitudeDegrees>
            </Position>
            <AltitudeMeters>196.8000030517578125</AltitudeMeters>
            <DistanceMeters>NAN</DistanceMeters>
          </Trackpoint>
          <Trackpoint>
            <Time>2022-07-09T06:17:06.000Z</Time>
            <Position>
              <LatitudeDegrees>43.338997475802898406982421875</LatitudeDegrees>
              <LongitudeDegrees>-1.8507582508027553558349609375</LongitudeDegrees>
            </Position>
            <AltitudeMeters>196.399993896484375</AltitudeMeters>
            <DistanceMeters>NAN</DistanceMeters>
          </Trackpoint>
          <Trackpoint>
            <Time>2022-07-09T06:17:09.000Z</Time>
            <Position>
              <LatitudeDegrees>43.33888708613812923431396484375</LatitudeDegrees>
              <LongitudeDegrees>-1.850813739001750946044921875</LongitudeDegrees>
            </Position>
            <AltitudeMeters>196.1999969482421875</AltitudeMeters>
            <DistanceMeters>NAN</DistanceMeters>
          </Trackpoint>
          <Trackpoint>
            <Time>2022-07-09T06:17:10.000Z</Time>
            <Position>
              <LatitudeDegrees>43.3388350345194339752197265625</LatitudeDegrees>
              <LongitudeDegrees>-1.8508507870137691497802734375</LongitudeDegrees>
            </Position>
            <AltitudeMeters>196</AltitudeMeters>
            <DistanceMeters>NAN</DistanceMeters>
          </Trackpoint>
          <Trackpoint>
            <Time>2022-07-09T06:17:11.000Z</Time>
            <Position>
              <LatitudeDegrees>43.3388046920299530029296875</LatitudeDegrees>
              <LongitudeDegrees>-1.85087400488555431365966796875</LongitudeDegrees>
            </Position>
            <AltitudeMeters>196</AltitudeMeters>
            <DistanceMeters>NAN</DistanceMeters>
          </Trackpoint>
          <Trackpoint>
            <Time>2022-07-09T06:17:14.000Z</Time>
            <Position>
              <LatitudeDegrees>43.338729254901409149169921875</LatitudeDegrees>
              <LongitudeDegrees>-1.85093033127486705780029296875</LongitudeDegrees>
            </Position>
            <AltitudeMeters>195.8000030517578125</AltitudeMeters>
            <DistanceMeters>NAN</DistanceMeters>
          </Trackpoint>
          <Trackpoint>
            <Time>2022-07-09T06:17:16.000Z</Time>
            <Position>
              <LatitudeDegrees>43.33868457935750484466552734375</LatitudeDegrees>
              <LongitudeDegrees>-1.85097442008554935455322265625</LongitudeDegrees>
            </Position>
            <AltitudeMeters>195.600006103515625</AltitudeMeters>
            <DistanceMeters>NAN</DistanceMeters>
          </Trackpoint>
          <Trackpoint>
            <Time>2022-07-09T06:17:18.000Z</Time>
            <Position>
              <LatitudeDegrees>43.3386382274329662322998046875</LatitudeDegrees>
              <LongitudeDegrees>-1.8510496057569980621337890625</LongitudeDegrees>
            </Position>
            <AltitudeMeters>195</AltitudeMeters>
            <DistanceMeters>NAN</DistanceMeters>
          </Trackpoint>
          <Trackpoint>
            <Time>2022-07-09T06:17:19.000Z</Time>
            <Position>
              <LatitudeDegrees>43.33861819468438625335693359375</LatitudeDegrees>
              <LongitudeDegrees>-1.85107986442744731903076171875</LongitudeDegrees>
            </Position>
            <AltitudeMeters>194.8000030517578125</AltitudeMeters>
            <DistanceMeters>NAN</DistanceMeters>
          </Trackpoint>
          <Trackpoint>
            <Time>2022-07-09T06:17:25.000Z</Time>
            <Position>
              <LatitudeDegrees>43.338519372045993804931640625</LatitudeDegrees>
              <LongitudeDegrees>-1.85135009698569774627685546875</LongitudeDegrees>
            </Position>
            <AltitudeMeters>195.1999969482421875</AltitudeMeters>
            <DistanceMeters>NAN</DistanceMeters>
          </Trackpoint>
          <Trackpoint>
            <Time>2022-07-09T06:17:30.000Z</Time>
            <Position>
              <LatitudeDegrees>43.33844468928873538970947265625</LatitudeDegrees>
              <LongitudeDegrees>-1.851536929607391357421875</LongitudeDegrees>
            </Position>
            <AltitudeMeters>195</AltitudeMeters>
            <DistanceMeters>NAN</DistanceMeters>
          </Trackpoint>
          <Trackpoint>
            <Time>2022-07-09T06:17:33.000Z</Time>
            <Position>
              <LatitudeDegrees>43.3384085632860660552978515625</LatitudeDegrees>
              <LongitudeDegrees>-1.851631142199039459228515625</LongitudeDegrees>
            </Position>
            <AltitudeMeters>194.8000030517578125</AltitudeMeters>
            <DistanceMeters>NAN</DistanceMeters>
          </Trackpoint>
          <Trackpoint>
            <Time>2022-07-09T06:17:34.000Z</Time>
            <Position>
              <LatitudeDegrees>43.33840780891478061676025390625</LatitudeDegrees>
              <LongitudeDegrees>-1.8516581319272518157958984375</LongitudeDegrees>
            </Position>
            <AltitudeMeters>194.600006103515625</AltitudeMeters>
            <DistanceMeters>NAN</DistanceMeters>
          </Trackpoint>
          <Trackpoint>
            <Time>2022-07-09T06:17:38.000Z</Time>
            <Position>
              <LatitudeDegrees>43.33840093575417995452880859375</LatitudeDegrees>
              <LongitudeDegrees>-1.8518190644681453704833984375</LongitudeDegrees>
            </Position>
            <AltitudeMeters>194.600006103515625</AltitudeMeters>
            <DistanceMeters>NAN</DistanceMeters>
          </Trackpoint>
          <Trackpoint>
            <Time>2022-07-09T06:17:39.000Z</Time>
            <Position>
              <LatitudeDegrees>43.3383916318416595458984375</LatitudeDegrees>
              <LongitudeDegrees>-1.8518522568047046661376953125</LongitudeDegrees>
            </Position>
            <AltitudeMeters>194.8000030517578125</AltitudeMeters>
            <DistanceMeters>NAN</DistanceMeters>
          </Trackpoint>
          <Trackpoint>
            <Time>2022-07-09T06:17:45.000Z</Time>
            <Position>
              <LatitudeDegrees>43.3383747003972530364990234375</LatitudeDegrees>
              <LongitudeDegrees>-1.85199969448149204254150390625</LongitudeDegrees>
            </Position>
            <AltitudeMeters>195.1999969482421875</AltitudeMeters>
            <DistanceMeters>NAN</DistanceMeters>
          </Trackpoint>
          <Trackpoint>
            <Time>2022-07-09T06:17:47.000Z</Time>
            <Position>
              <LatitudeDegrees>43.3383755385875701904296875</LatitudeDegrees>
              <LongitudeDegrees>-1.85203037224709987640380859375</LongitudeDegrees>
            </Position>
            <AltitudeMeters>195.1999969482421875</AltitudeMeters>
            <DistanceMeters>NAN</DistanceMeters>
          </Trackpoint>
          <Trackpoint>
            <Time>2022-07-09T06:17:50.000Z</Time>
            <Position>
              <LatitudeDegrees>43.33838450722396373748779296875</LatitudeDegrees>
              <LongitudeDegrees>-1.85210891067981719970703125</LongitudeDegrees>
            </Position>
            <AltitudeMeters>195.1999969482421875</AltitudeMeters>
            <DistanceMeters>NAN</DistanceMeters>
          </Trackpoint>
          <Trackpoint>
            <Time>2022-07-09T06:17:51.000Z</Time>
            <Position>
              <LatitudeDegrees>43.33839096128940582275390625</LatitudeDegrees>
              <LongitudeDegrees>-1.85215006582438945770263671875</LongitudeDegrees>
            </Position>
            <AltitudeMeters>195.1999969482421875</AltitudeMeters>
            <DistanceMeters>NAN</DistanceMeters>
          </Trackpoint>
          <Trackpoint>
            <Time>2022-07-09T06:17:56.000Z</Time>
            <Position>
              <LatitudeDegrees>43.338419459760189056396484375</LatitudeDegrees>
              <LongitudeDegrees>-1.8523675762116909027099609375</LongitudeDegrees>
            </Position>
            <AltitudeMeters>195.1999969482421875</AltitudeMeters>
            <DistanceMeters>NAN</DistanceMeters>
          </Trackpoint>
          <Trackpoint>
            <Time>2022-07-09T06:18:02.000Z</Time>
            <Position>
              <LatitudeDegrees>43.338465727865695953369140625</LatitudeDegrees>
              <LongitudeDegrees>-1.852591037750244140625</LongitudeDegrees>
            </Position>
            <AltitudeMeters>195</AltitudeMeters>
            <DistanceMeters>NAN</DistanceMeters>
          </Trackpoint>
          <Trackpoint>
            <Time>2022-07-09T06:18:08.000Z</Time>
            <Position>
              <LatitudeDegrees>43.33844150416553020477294921875</LatitudeDegrees>
              <LongitudeDegrees>-1.852801926434040069580078125</LongitudeDegrees>
            </Position>
            <AltitudeMeters>195.1999969482421875</AltitudeMeters>
            <DistanceMeters>NAN</DistanceMeters>
          </Trackpoint>
          <Trackpoint>
            <Time>2022-07-09T06:18:09.000Z</Time>
            <Position>
              <LatitudeDegrees>43.3384414203464984893798828125</LatitudeDegrees>
              <LongitudeDegrees>-1.85283503495156764984130859375</LongitudeDegrees>
            </Position>
            <AltitudeMeters>195.1999969482421875</AltitudeMeters>
            <DistanceMeters>NAN</DistanceMeters>
          </Trackpoint>
          <Trackpoint>
            <Time>2022-07-09T06:18:12.000Z</Time>
            <Position>
              <LatitudeDegrees>43.338442929089069366455078125</LatitudeDegrees>
              <LongitudeDegrees>-1.85292296111583709716796875</LongitudeDegrees>
            </Position>
            <AltitudeMeters>195.1999969482421875</AltitudeMeters>
            <DistanceMeters>NAN</DistanceMeters>
          </Trackpoint>
          <Trackpoint>
            <Time>2022-07-09T06:18:15.000Z</Time>
            <Position>
              <LatitudeDegrees>43.33844938315451145172119140625</LatitudeDegrees>
              <LongitudeDegrees>-1.8529987335205078125</LongitudeDegrees>
            </Position>
            <AltitudeMeters>195.1999969482421875</AltitudeMeters>
            <DistanceMeters>NAN</DistanceMeters>
          </Trackpoint>
          <Trackpoint>
            <Time>2022-07-09T06:18:21.000Z</Time>
            <Position>
              <LatitudeDegrees>43.33844250999391078948974609375</LatitudeDegrees>
              <LongitudeDegrees>-1.85318774543702602386474609375</LongitudeDegrees>
            </Position>
            <AltitudeMeters>195.600006103515625</AltitudeMeters>
            <DistanceMeters>NAN</DistanceMeters>
          </Trackpoint>
          <Trackpoint>
            <Time>2022-07-09T06:18:27.000Z</Time>
            <Position>
              <LatitudeDegrees>43.3383943140506744384765625</LatitudeDegrees>
              <LongitudeDegrees>-1.85330391861498355865478515625</LongitudeDegrees>
            </Position>
            <AltitudeMeters>195.8000030517578125</AltitudeMeters>
            <DistanceMeters>NAN</DistanceMeters>
          </Trackpoint>
          <Trackpoint>
            <Time>2022-07-09T06:18:29.000Z</Time>
            <Position>
              <LatitudeDegrees>43.338386602699756622314453125</LatitudeDegrees>
              <LongitudeDegrees>-1.8533304892480373382568359375</LongitudeDegrees>
            </Position>
            <AltitudeMeters>196</AltitudeMeters>
            <DistanceMeters>NAN</DistanceMeters>
          </Trackpoint>
          <Trackpoint>
            <Time>2022-07-09T06:18:34.000Z</Time>
            <Position>
              <LatitudeDegrees>43.33833865821361541748046875</LatitudeDegrees>
              <LongitudeDegrees>-1.853428892791271209716796875</LongitudeDegrees>
            </Position>
            <AltitudeMeters>196.1999969482421875</AltitudeMeters>
            <DistanceMeters>NAN</DistanceMeters>
          </Trackpoint>
          <Trackpoint>
            <Time>2022-07-09T06:18:40.000Z</Time>
            <Position>
              <LatitudeDegrees>43.33826095797121524810791015625</LatitudeDegrees>
              <LongitudeDegrees>-1.8535460717976093292236328125</LongitudeDegrees>
            </Position>
            <AltitudeMeters>196.399993896484375</AltitudeMeters>
            <DistanceMeters>NAN</DistanceMeters>
          </Trackpoint>
          <Trackpoint>
            <Time>2022-07-09T06:18:41.000Z</Time>
            <Position>
              <LatitudeDegrees>43.33825190551578998565673828125</LatitudeDegrees>
              <LongitudeDegrees>-1.85356358997523784637451171875</LongitudeDegrees>
            </Position>
            <AltitudeMeters>196.399993896484375</AltitudeMeters>
            <DistanceMeters>NAN</DistanceMeters>
          </Trackpoint>
          <Trackpoint>
            <Time>2022-07-09T06:18:44.000Z</Time>
            <Position>
              <LatitudeDegrees>43.3382318727672100067138671875</LatitudeDegrees>
              <LongitudeDegrees>-1.8536315672099590301513671875</LongitudeDegrees>
            </Position>
            <AltitudeMeters>196.8000030517578125</AltitudeMeters>
            <DistanceMeters>NAN</DistanceMeters>
          </Trackpoint>
          <Trackpoint>
            <Time>2022-07-09T06:18:45.000Z</Time>
            <Position>
              <LatitudeDegrees>43.33822525106370449066162109375</LatitudeDegrees>
              <LongitudeDegrees>-1.853640116751194000244140625</LongitudeDegrees>
            </Position>
            <AltitudeMeters>197</AltitudeMeters>
            <DistanceMeters>NAN</DistanceMeters>
          </Trackpoint>
          <Trackpoint>
            <Time>2022-07-09T06:18:46.000Z</Time>
            <Position>
              <LatitudeDegrees>43.3382144384086132049560546875</LatitudeDegrees>
              <LongitudeDegrees>-1.85365411452949047088623046875</LongitudeDegrees>
            </Position>
            <AltitudeMeters>197</AltitudeMeters>
            <DistanceMeters>NAN</DistanceMeters>
          </Trackpoint>
          <Trackpoint>
            <Time>2022-07-09T06:18:52.000Z</Time>
            <Position>
              <LatitudeDegrees>43.33814931102097034454345703125</LatitudeDegrees>
              <LongitudeDegrees>-1.85376425273716449737548828125</LongitudeDegrees>
            </Position>
            <AltitudeMeters>197.1999969482421875</AltitudeMeters>
            <DistanceMeters>NAN</DistanceMeters>
          </Trackpoint>
          <Trackpoint>
            <Time>2022-07-09T06:18:54.000Z</Time>
            <Position>
              <LatitudeDegrees>43.33812148310244083404541015625</LatitudeDegrees>
              <LongitudeDegrees>-1.8538261950016021728515625</LongitudeDegrees>
            </Position>
            <AltitudeMeters>197.1999969482421875</AltitudeMeters>
            <DistanceMeters>NAN</DistanceMeters>
          </Trackpoint>
          <Trackpoint>
            <Time>2022-07-09T06:18:55.000Z</Time>
            <Position>
              <LatitudeDegrees>43.338098265230655670166015625</LatitudeDegrees>
              <LongitudeDegrees>-1.85384505428373813629150390625</LongitudeDegrees>
            </Position>
            <AltitudeMeters>197.399993896484375</AltitudeMeters>
            <DistanceMeters>NAN</DistanceMeters>
          </Trackpoint>
          <Trackpoint>
            <Time>2022-07-09T06:18:57.000Z</Time>
            <Position>
              <LatitudeDegrees>43.33807890303432941436767578125</LatitudeDegrees>
              <LongitudeDegrees>-1.85385636985301971435546875</LongitudeDegrees>
            </Position>
            <AltitudeMeters>197.399993896484375</AltitudeMeters>
            <DistanceMeters>NAN</DistanceMeters>
          </Trackpoint>
          <Trackpoint>
            <Time>2022-07-09T06:18:59.000Z</Time>
            <Position>
              <LatitudeDegrees>43.33806264214217662811279296875</LatitudeDegrees>
              <LongitudeDegrees>-1.85382912866771221160888671875</LongitudeDegrees>
            </Position>
            <AltitudeMeters>197.399993896484375</AltitudeMeters>
            <DistanceMeters>NAN</DistanceMeters>
          </Trackpoint>
          <Trackpoint>
            <Time>2022-07-09T06:19:00.000Z</Time>
            <Position>
              <LatitudeDegrees>43.338053338229656219482421875</LatitudeDegrees>
              <LongitudeDegrees>-1.8538313917815685272216796875</LongitudeDegrees>
            </Position>
            <AltitudeMeters>197.600006103515625</AltitudeMeters>
            <DistanceMeters>NAN</DistanceMeters>
          </Trackpoint>
          <Trackpoint>
            <Time>2022-07-09T06:19:02.000Z</Time>
            <Position>
              <LatitudeDegrees>43.33802458830177783966064453125</LatitudeDegrees>
              <LongitudeDegrees>-1.8538297154009342193603515625</LongitudeDegrees>
            </Position>
            <AltitudeMeters>197.600006103515625</AltitudeMeters>
            <DistanceMeters>NAN</DistanceMeters>
          </Trackpoint>
          <Trackpoint>
            <Time>2022-07-09T06:19:04.000Z</Time>
            <Position>
              <LatitudeDegrees>43.33799592219293117523193359375</LatitudeDegrees>
              <LongitudeDegrees>-1.85384924523532390594482421875</LongitudeDegrees>
            </Position>
            <AltitudeMeters>197.8000030517578125</AltitudeMeters>
            <DistanceMeters>NAN</DistanceMeters>
          </Trackpoint>
          <Trackpoint>
            <Time>2022-07-09T06:19:06.000Z</Time>
            <Position>
              <LatitudeDegrees>43.337970860302448272705078125</LatitudeDegrees>
              <LongitudeDegrees>-1.8538575433194637298583984375</LongitudeDegrees>
            </Position>
            <AltitudeMeters>197.600006103515625</AltitudeMeters>
            <DistanceMeters>NAN</DistanceMeters>
          </Trackpoint>
          <Trackpoint>
            <Time>2022-07-09T06:19:08.000Z</Time>
            <Position>
              <LatitudeDegrees>43.33794194273650646209716796875</LatitudeDegrees>
              <LongitudeDegrees>-1.853886879980564117431640625</LongitudeDegrees>
            </Position>
            <AltitudeMeters>197.600006103515625</AltitudeMeters>
            <DistanceMeters>NAN</DistanceMeters>
          </Trackpoint>
          <Trackpoint>
            <Time>2022-07-09T06:19:09.000Z</Time>
            <Position>
              <LatitudeDegrees>43.3379143662750720977783203125</LatitudeDegrees>
              <LongitudeDegrees>-1.853951252996921539306640625</LongitudeDegrees>
            </Position>
            <AltitudeMeters>197.600006103515625</AltitudeMeters>
            <DistanceMeters>NAN</DistanceMeters>
          </Trackpoint>
          <Trackpoint>
            <Time>2022-07-09T06:19:14.000Z</Time>
            <Position>
              <LatitudeDegrees>43.33782426081597805023193359375</LatitudeDegrees>
              <LongitudeDegrees>-1.85398503206670284271240234375</LongitudeDegrees>
            </Position>
            <AltitudeMeters>197</AltitudeMeters>
            <DistanceMeters>NAN</DistanceMeters>
          </Trackpoint>
          <Trackpoint>
            <Time>2022-07-09T06:19:16.000Z</Time>
            <Position>
              <LatitudeDegrees>43.337828032672405242919921875</LatitudeDegrees>
              <LongitudeDegrees>-1.85398369096219539642333984375</LongitudeDegrees>
            </Position>
            <AltitudeMeters>196.8000030517578125</AltitudeMeters>
            <DistanceMeters>NAN</DistanceMeters>
          </Trackpoint>
          <Trackpoint>
            <Time>2022-07-09T06:19:19.000Z</Time>
            <Position>
              <LatitudeDegrees>43.33779157139360904693603515625</LatitudeDegrees>
              <LongitudeDegrees>-1.853972375392913818359375</LongitudeDegrees>
            </Position>
            <AltitudeMeters>196.600006103515625</AltitudeMeters>
            <DistanceMeters>NAN</DistanceMeters>
          </Trackpoint>
          <Trackpoint>
            <Time>2022-07-09T06:19:22.000Z</Time>
            <Position>
              <LatitudeDegrees>43.33777933381497859954833984375</LatitudeDegrees>
              <LongitudeDegrees>-1.8539789132773876190185546875</LongitudeDegrees>
            </Position>
            <AltitudeMeters>196.399993896484375</AltitudeMeters>
            <DistanceMeters>NAN</DistanceMeters>
          </Trackpoint>
          <Trackpoint>
            <Time>2022-07-09T06:32:09.000Z</Time>
            <Position>
              <LatitudeDegrees>43.33787069655954837799072265625</LatitudeDegrees>
              <LongitudeDegrees>-1.85425878502428531646728515625</LongitudeDegrees>
            </Position>
            <AltitudeMeters>196.8000030517578125</AltitudeMeters>
            <DistanceMeters>NAN</DistanceMeters>
          </Trackpoint>
          <Trackpoint>
            <Time>2022-07-09T06:32:10.000Z</Time>
            <Position>
              <LatitudeDegrees>43.3378632366657257080078125</LatitudeDegrees>
              <LongitudeDegrees>-1.8542820028960704803466796875</LongitudeDegrees>
            </Position>
            <AltitudeMeters>197</AltitudeMeters>
            <DistanceMeters>NAN</DistanceMeters>
          </Trackpoint>
          <Trackpoint>
            <Time>2022-07-09T06:32:13.000Z</Time>
            <Position>
              <LatitudeDegrees>43.33785829134285449981689453125</LatitudeDegrees>
              <LongitudeDegrees>-1.85433371923863887786865234375</LongitudeDegrees>
            </Position>
            <AltitudeMeters>197.600006103515625</AltitudeMeters>
            <DistanceMeters>NAN</DistanceMeters>
          </Trackpoint>
          <Trackpoint>
            <Time>2022-07-09T06:32:16.000Z</Time>
            <Position>
              <LatitudeDegrees>43.33785460330545902252197265625</LatitudeDegrees>
              <LongitudeDegrees>-1.85436842031776905059814453125</LongitudeDegrees>
            </Position>
            <AltitudeMeters>198</AltitudeMeters>
            <DistanceMeters>NAN</DistanceMeters>
          </Trackpoint>
          <Trackpoint>
            <Time>2022-07-09T06:32:17.000Z</Time>
            <Position>
              <LatitudeDegrees>43.3378471434116363525390625</LatitudeDegrees>
              <LongitudeDegrees>-1.854386441409587860107421875</LongitudeDegrees>
            </Position>
            <AltitudeMeters>198.1999969482421875</AltitudeMeters>
            <DistanceMeters>NAN</DistanceMeters>
          </Trackpoint>
          <Trackpoint>
            <Time>2022-07-09T06:32:18.000Z</Time>
            <Position>
              <LatitudeDegrees>43.33784052170813083648681640625</LatitudeDegrees>
              <LongitudeDegrees>-1.85440110974013805389404296875</LongitudeDegrees>
            </Position>
            <AltitudeMeters>198.1999969482421875</AltitudeMeters>
            <DistanceMeters>NAN</DistanceMeters>
          </Trackpoint>
          <Trackpoint>
            <Time>2022-07-09T06:32:23.000Z</Time>
            <Position>
              <LatitudeDegrees>43.33782727830111980438232421875</LatitudeDegrees>
              <LongitudeDegrees>-1.854436732828617095947265625</LongitudeDegrees>
            </Position>
            <AltitudeMeters>198.8000030517578125</AltitudeMeters>
            <DistanceMeters>NAN</DistanceMeters>
          </Trackpoint>
          <Trackpoint>
            <Time>2022-07-09T06:32:25.000Z</Time>
            <Position>
              <LatitudeDegrees>43.3378295414149761199951171875</LatitudeDegrees>
              <LongitudeDegrees>-1.85446657240390777587890625</LongitudeDegrees>
            </Position>
            <AltitudeMeters>199.1999969482421875</AltitudeMeters>
            <DistanceMeters>NAN</DistanceMeters>
          </Trackpoint>
          <Trackpoint>
            <Time>2022-07-09T06:32:31.000Z</Time>
            <Position>
              <LatitudeDegrees>43.3378339000046253204345703125</LatitudeDegrees>
              <LongitudeDegrees>-1.85453857295215129852294921875</LongitudeDegrees>
            </Position>
            <AltitudeMeters>200.1999969482421875</AltitudeMeters>
            <DistanceMeters>NAN</DistanceMeters>
          </Trackpoint>
          <Trackpoint>
            <Time>2022-07-09T06:32:32.000Z</Time>
            <Position>
              <LatitudeDegrees>43.337833397090435028076171875</LatitudeDegrees>
              <LongitudeDegrees>-1.85454678721725940704345703125</LongitudeDegrees>
            </Position>
            <AltitudeMeters>200.399993896484375</AltitudeMeters>
            <DistanceMeters>NAN</DistanceMeters>
          </Trackpoint>
          <Trackpoint>
            <Time>2022-07-09T06:32:35.000Z</Time>
            <Position>
              <LatitudeDegrees>43.33783146925270557403564453125</LatitudeDegrees>
              <LongitudeDegrees>-1.8545973300933837890625</LongitudeDegrees>
            </Position>
            <AltitudeMeters>200.600006103515625</AltitudeMeters>
            <DistanceMeters>NAN</DistanceMeters>
          </Trackpoint>
          <Trackpoint>
            <Time>2022-07-09T06:32:38.000Z</Time>
            <Position>
              <LatitudeDegrees>43.33782392553985118865966796875</LatitudeDegrees>
              <LongitudeDegrees>-1.8546491302549839019775390625</LongitudeDegrees>
            </Position>
            <AltitudeMeters>201.1999969482421875</AltitudeMeters>
            <DistanceMeters>NAN</DistanceMeters>
          </Trackpoint>
          <Trackpoint>
            <Time>2022-07-09T06:32:40.000Z</Time>
            <Position>
              <LatitudeDegrees>43.33781789056956768035888671875</LatitudeDegrees>
              <LongitudeDegrees>-1.85467788018286228179931640625</LongitudeDegrees>
            </Position>
            <AltitudeMeters>201.399993896484375</AltitudeMeters>
            <DistanceMeters>NAN</DistanceMeters>
          </Trackpoint>
          <Trackpoint>
            <Time>2022-07-09T06:32:44.000Z</Time>
            <Position>
              <LatitudeDegrees>43.3378345705568790435791015625</LatitudeDegrees>
              <LongitudeDegrees>-1.85479103587567806243896484375</LongitudeDegrees>
            </Position>
            <AltitudeMeters>202</AltitudeMeters>
            <DistanceMeters>NAN</DistanceMeters>
          </Trackpoint>
          <Trackpoint>
            <Time>2022-07-09T06:32:49.000Z</Time>
            <Position>
              <LatitudeDegrees>43.337824679911136627197265625</LatitudeDegrees>
              <LongitudeDegrees>-1.85486932285130023956298828125</LongitudeDegrees>
            </Position>
            <AltitudeMeters>202.600006103515625</AltitudeMeters>
            <DistanceMeters>NAN</DistanceMeters>
          </Trackpoint>
          <Trackpoint>
            <Time>2022-07-09T06:32:50.000Z</Time>
            <Position>
              <LatitudeDegrees>43.337824009358882904052734375</LatitudeDegrees>
              <LongitudeDegrees>-1.8548677302896976470947265625</LongitudeDegrees>
            </Position>
            <AltitudeMeters>202.8000030517578125</AltitudeMeters>
            <DistanceMeters>NAN</DistanceMeters>
          </Trackpoint>
          <Trackpoint>
            <Time>2022-07-09T06:32:51.000Z</Time>
            <Position>
              <LatitudeDegrees>43.3378238417208194732666015625</LatitudeDegrees>
              <LongitudeDegrees>-1.85488122515380382537841796875</LongitudeDegrees>
            </Position>
            <AltitudeMeters>203</AltitudeMeters>
            <DistanceMeters>NAN</DistanceMeters>
          </Trackpoint>
          <Trackpoint>
            <Time>2022-07-09T06:32:58.000Z</Time>
            <Position>
              <LatitudeDegrees>43.3378087542951107025146484375</LatitudeDegrees>
              <LongitudeDegrees>-1.85499169863760471343994140625</LongitudeDegrees>
            </Position>
            <AltitudeMeters>203.399993896484375</AltitudeMeters>
            <DistanceMeters>NAN</DistanceMeters>
          </Trackpoint>
          <Trackpoint>
            <Time>2022-07-09T06:32:59.000Z</Time>
            <Position>
              <LatitudeDegrees>43.33780230022966861724853515625</LatitudeDegrees>
              <LongitudeDegrees>-1.8550108931958675384521484375</LongitudeDegrees>
            </Position>
            <AltitudeMeters>203.600006103515625</AltitudeMeters>
            <DistanceMeters>NAN</DistanceMeters>
          </Trackpoint>
          <Trackpoint>
            <Time>2022-07-09T06:33:01.000Z</Time>
            <Position>
              <LatitudeDegrees>43.3377934992313385009765625</LatitudeDegrees>
              <LongitudeDegrees>-1.85503930784761905670166015625</LongitudeDegrees>
            </Position>
            <AltitudeMeters>203.8000030517578125</AltitudeMeters>
            <DistanceMeters>NAN</DistanceMeters>
          </Trackpoint>
          <Trackpoint>
            <Time>2022-07-09T06:33:06.000Z</Time>
            <Position>
              <LatitudeDegrees>43.33776508457958698272705078125</LatitudeDegrees>
              <LongitudeDegrees>-1.8551377952098846435546875</LongitudeDegrees>
            </Position>
            <AltitudeMeters>204.399993896484375</AltitudeMeters>
            <DistanceMeters>NAN</DistanceMeters>
          </Trackpoint>
          <Trackpoint>
            <Time>2022-07-09T06:33:08.000Z</Time>
            <Position>
              <LatitudeDegrees>43.33777673542499542236328125</LatitudeDegrees>
              <LongitudeDegrees>-1.8551919423043727874755859375</LongitudeDegrees>
            </Position>
            <AltitudeMeters>204.600006103515625</AltitudeMeters>
            <DistanceMeters>NAN</DistanceMeters>
          </Trackpoint>
          <Trackpoint>
            <Time>2022-07-09T06:33:10.000Z</Time>
            <Position>
              <LatitudeDegrees>43.33777179010212421417236328125</LatitudeDegrees>
              <LongitudeDegrees>-1.8552236258983612060546875</LongitudeDegrees>
            </Position>
            <AltitudeMeters>205</AltitudeMeters>
            <DistanceMeters>NAN</DistanceMeters>
          </Trackpoint>
          <Trackpoint>
            <Time>2022-07-09T06:33:14.000Z</Time>
            <Position>
              <LatitudeDegrees>43.33775804378092288970947265625</LatitudeDegrees>
              <LongitudeDegrees>-1.85529327951371669769287109375</LongitudeDegrees>
            </Position>
            <AltitudeMeters>205.600006103515625</AltitudeMeters>
            <DistanceMeters>NAN</DistanceMeters>
          </Trackpoint>
          <Trackpoint>
            <Time>2022-07-09T06:33:15.000Z</Time>
            <Position>
              <LatitudeDegrees>43.3377584628760814666748046875</LatitudeDegrees>
              <LongitudeDegrees>-1.85530417598783969879150390625</LongitudeDegrees>
            </Position>
            <AltitudeMeters>205.600006103515625</AltitudeMeters>
            <DistanceMeters>NAN</DistanceMeters>
          </Trackpoint>
          <Trackpoint>
            <Time>2022-07-09T06:33:23.000Z</Time>
            <Position>
              <LatitudeDegrees>43.33770439960062503814697265625</LatitudeDegrees>
              <LongitudeDegrees>-1.8554387055337429046630859375</LongitudeDegrees>
            </Position>
            <AltitudeMeters>206.399993896484375</AltitudeMeters>
            <DistanceMeters>NAN</DistanceMeters>
          </Trackpoint>
          <Trackpoint>
            <Time>2022-07-09T06:33:26.000Z</Time>
            <Position>
              <LatitudeDegrees>43.3376914076507091522216796875</LatitudeDegrees>
              <LongitudeDegrees>-1.85548245906829833984375</LongitudeDegrees>
            </Position>
            <AltitudeMeters>206.600006103515625</AltitudeMeters>
            <DistanceMeters>NAN</DistanceMeters>
          </Trackpoint>
          <Trackpoint>
            <Time>2022-07-09T06:33:27.000Z</Time>
            <Position>
              <LatitudeDegrees>43.337682522833347320556640625</LatitudeDegrees>
              <LongitudeDegrees>-1.8555024079978466033935546875</LongitudeDegrees>
            </Position>
            <AltitudeMeters>206.8000030517578125</AltitudeMeters>
            <DistanceMeters>NAN</DistanceMeters>
          </Trackpoint>
          <Trackpoint>
            <Time>2022-07-09T06:33:30.000Z</Time>
            <Position>
              <LatitudeDegrees>43.337660394608974456787109375</LatitudeDegrees>
              <LongitudeDegrees>-1.85556267388164997100830078125</LongitudeDegrees>
            </Position>
            <AltitudeMeters>206.8000030517578125</AltitudeMeters>
            <DistanceMeters>NAN</DistanceMeters>
          </Trackpoint>
          <Trackpoint>
            <Time>2022-07-09T06:33:32.000Z</Time>
            <Position>
              <LatitudeDegrees>43.33765871822834014892578125</LatitudeDegrees>
              <LongitudeDegrees>-1.85560458339750766754150390625</LongitudeDegrees>
            </Position>
            <AltitudeMeters>207</AltitudeMeters>
            <DistanceMeters>NAN</DistanceMeters>
          </Trackpoint>
          <Trackpoint>
            <Time>2022-07-09T06:33:35.000Z</Time>
            <Position>
              <LatitudeDegrees>43.33764287643134593963623046875</LatitudeDegrees>
              <LongitudeDegrees>-1.85562386177480220794677734375</LongitudeDegrees>
            </Position>
            <AltitudeMeters>207.1999969482421875</AltitudeMeters>
            <DistanceMeters>NAN</DistanceMeters>
          </Trackpoint>
          <Trackpoint>
            <Time>2022-07-09T06:33:37.000Z</Time>
            <Position>
              <LatitudeDegrees>43.33763231523334980010986328125</LatitudeDegrees>
              <LongitudeDegrees>-1.8556487560272216796875</LongitudeDegrees>
            </Position>
            <AltitudeMeters>207.1999969482421875</AltitudeMeters>
            <DistanceMeters>NAN</DistanceMeters>
          </Trackpoint>
          <Trackpoint>
            <Time>2022-07-09T06:33:43.000Z</Time>
            <Position>
              <LatitudeDegrees>43.33759157918393611907958984375</LatitudeDegrees>
              <LongitudeDegrees>-1.8557407893240451812744140625</LongitudeDegrees>
            </Position>
            <AltitudeMeters>207.8000030517578125</AltitudeMeters>
            <DistanceMeters>NAN</DistanceMeters>
          </Trackpoint>
          <Trackpoint>
            <Time>2022-07-09T06:33:44.000Z</Time>
            <Position>
              <LatitudeDegrees>43.33758831024169921875</LatitudeDegrees>
              <LongitudeDegrees>-1.8557471595704555511474609375</LongitudeDegrees>
            </Position>
            <AltitudeMeters>207.8000030517578125</AltitudeMeters>
            <DistanceMeters>NAN</DistanceMeters>
          </Trackpoint>
          <Trackpoint>
            <Time>2022-07-09T06:33:47.000Z</Time>
            <Position>
              <LatitudeDegrees>43.33755017258226871490478515625</LatitudeDegrees>
              <LongitudeDegrees>-1.85584581457078456878662109375</LongitudeDegrees>
            </Position>
            <AltitudeMeters>208</AltitudeMeters>
            <DistanceMeters>NAN</DistanceMeters>
          </Trackpoint>
          <Trackpoint>
            <Time>2022-07-09T06:33:53.000Z</Time>
            <Position>
              <LatitudeDegrees>43.33753726445138454437255859375</LatitudeDegrees>
              <LongitudeDegrees>-1.855946145951747894287109375</LongitudeDegrees>
            </Position>
            <AltitudeMeters>208.1999969482421875</AltitudeMeters>
            <DistanceMeters>NAN</DistanceMeters>
          </Trackpoint>
          <Trackpoint>
            <Time>2022-07-09T06:34:01.000Z</Time>
            <Position>
              <LatitudeDegrees>43.33751949481666088104248046875</LatitudeDegrees>
              <LongitudeDegrees>-1.85615192167460918426513671875</LongitudeDegrees>
            </Position>
            <AltitudeMeters>208.399993896484375</AltitudeMeters>
            <DistanceMeters>NAN</DistanceMeters>
          </Trackpoint>
          <Trackpoint>
            <Time>2022-07-09T06:34:03.000Z</Time>
            <Position>
              <LatitudeDegrees>43.3375103585422039031982421875</LatitudeDegrees>
              <LongitudeDegrees>-1.85620129108428955078125</LongitudeDegrees>
            </Position>
            <AltitudeMeters>208.399993896484375</AltitudeMeters>
            <DistanceMeters>NAN</DistanceMeters>
          </Trackpoint>
          <Trackpoint>
            <Time>2022-07-09T06:34:11.000Z</Time>
            <Position>
              <LatitudeDegrees>43.3375123701989650726318359375</LatitudeDegrees>
              <LongitudeDegrees>-1.8563474714756011962890625</LongitudeDegrees>
            </Position>
            <AltitudeMeters>208.8000030517578125</AltitudeMeters>
            <DistanceMeters>NAN</DistanceMeters>
          </Trackpoint>
          <Trackpoint>
            <Time>2022-07-09T06:34:12.000Z</Time>
            <Position>
              <LatitudeDegrees>43.33751379512250423431396484375</LatitudeDegrees>
              <LongitudeDegrees>-1.85636649839580059051513671875</LongitudeDegrees>
            </Position>
            <AltitudeMeters>208.8000030517578125</AltitudeMeters>
            <DistanceMeters>NAN</DistanceMeters>
          </Trackpoint>
          <Trackpoint>
            <Time>2022-07-09T06:34:19.000Z</Time>
            <Position>
              <LatitudeDegrees>43.33752552978694438934326171875</LatitudeDegrees>
              <LongitudeDegrees>-1.85650496743619441986083984375</LongitudeDegrees>
            </Position>
            <AltitudeMeters>209.1999969482421875</AltitudeMeters>
            <DistanceMeters>NAN</DistanceMeters>
          </Trackpoint>
          <Trackpoint>
            <Time>2022-07-09T06:34:21.000Z</Time>
            <Position>
              <LatitudeDegrees>43.337532989680767059326171875</LatitudeDegrees>
              <LongitudeDegrees>-1.85654084198176860809326171875</LongitudeDegrees>
            </Position>
            <AltitudeMeters>209.600006103515625</AltitudeMeters>
            <DistanceMeters>NAN</DistanceMeters>
          </Trackpoint>
          <Trackpoint>
            <Time>2022-07-09T06:34:22.000Z</Time>
            <Position>
              <LatitudeDegrees>43.3375415392220020294189453125</LatitudeDegrees>
              <LongitudeDegrees>-1.85655534267425537109375</LongitudeDegrees>
            </Position>
            <AltitudeMeters>209.8000030517578125</AltitudeMeters>
            <DistanceMeters>NAN</DistanceMeters>
          </Trackpoint>
          <Trackpoint>
            <Time>2022-07-09T06:34:29.000Z</Time>
            <Position>
              <LatitudeDegrees>43.33762041293084621429443359375</LatitudeDegrees>
              <LongitudeDegrees>-1.85664611868560314178466796875</LongitudeDegrees>
            </Position>
            <AltitudeMeters>210.600006103515625</AltitudeMeters>
            <DistanceMeters>NAN</DistanceMeters>
          </Trackpoint>
          <Trackpoint>
            <Time>2022-07-09T06:34:31.000Z</Time>
            <Position>
              <LatitudeDegrees>43.337639607489109039306640625</LatitudeDegrees>
              <LongitudeDegrees>-1.8566718511283397674560546875</LongitudeDegrees>
            </Position>
            <AltitudeMeters>210.8000030517578125</AltitudeMeters>
            <DistanceMeters>NAN</DistanceMeters>
          </Trackpoint>
          <Trackpoint>
            <Time>2022-07-09T06:34:36.000Z</Time>
            <Position>
              <LatitudeDegrees>43.33768914453685283660888671875</LatitudeDegrees>
              <LongitudeDegrees>-1.856729350984096527099609375</LongitudeDegrees>
            </Position>
            <AltitudeMeters>211.1999969482421875</AltitudeMeters>
            <DistanceMeters>NAN</DistanceMeters>
          </Trackpoint>
          <Trackpoint>
            <Time>2022-07-09T06:34:38.000Z</Time>
            <Position>
              <LatitudeDegrees>43.33771236240863800048828125</LatitudeDegrees>
              <LongitudeDegrees>-1.856756508350372314453125</LongitudeDegrees>
            </Position>
            <AltitudeMeters>211.399993896484375</AltitudeMeters>
            <DistanceMeters>NAN</DistanceMeters>
          </Trackpoint>
          <Trackpoint>
            <Time>2022-07-09T06:34:39.000Z</Time>
            <Position>
              <LatitudeDegrees>43.3377209119498729705810546875</LatitudeDegrees>
              <LongitudeDegrees>-1.8567717634141445159912109375</LongitudeDegrees>
            </Position>
            <AltitudeMeters>211.600006103515625</AltitudeMeters>
            <DistanceMeters>NAN</DistanceMeters>
          </Trackpoint>
          <Trackpoint>
            <Time>2022-07-09T06:34:41.000Z</Time>
            <Position>
              <LatitudeDegrees>43.33772979676723480224609375</LatitudeDegrees>
              <LongitudeDegrees>-1.8567975796759128570556640625</LongitudeDegrees>
            </Position>
            <AltitudeMeters>211.600006103515625</AltitudeMeters>
            <DistanceMeters>NAN</DistanceMeters>
          </Trackpoint>
          <Trackpoint>
            <Time>2022-07-09T06:34:43.000Z</Time>
            <Position>
              <LatitudeDegrees>43.3377544395625591278076171875</LatitudeDegrees>
              <LongitudeDegrees>-1.8568203784525394439697265625</LongitudeDegrees>
            </Position>
            <AltitudeMeters>211.8000030517578125</AltitudeMeters>
            <DistanceMeters>NAN</DistanceMeters>
          </Trackpoint>
          <Trackpoint>
            <Time>2022-07-09T06:34:45.000Z</Time>
            <Position>
              <LatitudeDegrees>43.337773717939853668212890625</LatitudeDegrees>
              <LongitudeDegrees>-1.85684996657073497772216796875</LongitudeDegrees>
            </Position>
            <AltitudeMeters>212</AltitudeMeters>
            <DistanceMeters>NAN</DistanceMeters>
          </Trackpoint>
          <Trackpoint>
            <Time>2022-07-09T06:34:47.000Z</Time>
            <Position>
              <LatitudeDegrees>43.3377836085855960845947265625</LatitudeDegrees>
              <LongitudeDegrees>-1.85688282363116741180419921875</LongitudeDegrees>
            </Position>
            <AltitudeMeters>212.1999969482421875</AltitudeMeters>
            <DistanceMeters>NAN</DistanceMeters>
          </Trackpoint>
          <Trackpoint>
            <Time>2022-07-09T06:34:49.000Z</Time>
            <Position>
              <LatitudeDegrees>43.33779928274452686309814453125</LatitudeDegrees>
              <LongitudeDegrees>-1.85691148974001407623291015625</LongitudeDegrees>
            </Position>
            <AltitudeMeters>212.399993896484375</AltitudeMeters>
            <DistanceMeters>NAN</DistanceMeters>
          </Trackpoint>
          <Trackpoint>
            <Time>2022-07-09T06:34:51.000Z</Time>
            <Position>
              <LatitudeDegrees>43.3378141187131404876708984375</LatitudeDegrees>
              <LongitudeDegrees>-1.85694132931530475616455078125</LongitudeDegrees>
            </Position>
            <AltitudeMeters>212.600006103515625</AltitudeMeters>
            <DistanceMeters>NAN</DistanceMeters>
          </Trackpoint>
          <Trackpoint>
            <Time>2022-07-09T06:34:54.000Z</Time>
            <Position>
              <LatitudeDegrees>43.33782895468175411224365234375</LatitudeDegrees>
              <LongitudeDegrees>-1.85699614696204662322998046875</LongitudeDegrees>
            </Position>
            <AltitudeMeters>213</AltitudeMeters>
            <DistanceMeters>NAN</DistanceMeters>
          </Trackpoint>
          <Trackpoint>
            <Time>2022-07-09T06:34:55.000Z</Time>
            <Position>
              <LatitudeDegrees>43.3378337323665618896484375</LatitudeDegrees>
              <LongitudeDegrees>-1.85700905509293079376220703125</LongitudeDegrees>
            </Position>
            <AltitudeMeters>213</AltitudeMeters>
            <DistanceMeters>NAN</DistanceMeters>
          </Trackpoint>
          <Trackpoint>
            <Time>2022-07-09T06:35:00.000Z</Time>
            <Position>
              <LatitudeDegrees>43.33787153474986553192138671875</LatitudeDegrees>
              <LongitudeDegrees>-1.85710075311362743377685546875</LongitudeDegrees>
            </Position>
            <AltitudeMeters>213.399993896484375</AltitudeMeters>
            <DistanceMeters>NAN</DistanceMeters>
          </Trackpoint>
          <Trackpoint>
            <Time>2022-07-09T06:35:06.000Z</Time>
            <Position>
              <LatitudeDegrees>43.3379141986370086669921875</LatitudeDegrees>
              <LongitudeDegrees>-1.8571494519710540771484375</LongitudeDegrees>
            </Position>
            <AltitudeMeters>214</AltitudeMeters>
            <DistanceMeters>NAN</DistanceMeters>
          </Trackpoint>
          <Trackpoint>
            <Time>2022-07-09T06:35:07.000Z</Time>
            <Position>
              <LatitudeDegrees>43.3379209041595458984375</LatitudeDegrees>
              <LongitudeDegrees>-1.857155151665210723876953125</LongitudeDegrees>
            </Position>
            <AltitudeMeters>214</AltitudeMeters>
            <DistanceMeters>NAN</DistanceMeters>
          </Trackpoint>
          <Trackpoint>
            <Time>2022-07-09T06:35:10.000Z</Time>
            <Position>
              <LatitudeDegrees>43.33794194273650646209716796875</LatitudeDegrees>
              <LongitudeDegrees>-1.857191361486911773681640625</LongitudeDegrees>
            </Position>
            <AltitudeMeters>214.399993896484375</AltitudeMeters>
            <DistanceMeters>NAN</DistanceMeters>
          </Trackpoint>
          <Trackpoint>
            <Time>2022-07-09T06:35:11.000Z</Time>
            <Position>
              <LatitudeDegrees>43.33794579841196537017822265625</LatitudeDegrees>
              <LongitudeDegrees>-1.85720368288457393646240234375</LongitudeDegrees>
            </Position>
            <AltitudeMeters>214.399993896484375</AltitudeMeters>
            <DistanceMeters>NAN</DistanceMeters>
          </Trackpoint>
          <Trackpoint>
            <Time>2022-07-09T06:35:14.000Z</Time>
            <Position>
              <LatitudeDegrees>43.337948061525821685791015625</LatitudeDegrees>
              <LongitudeDegrees>-1.8572580814361572265625</LongitudeDegrees>
            </Position>
            <AltitudeMeters>214.600006103515625</AltitudeMeters>
            <DistanceMeters>NAN</DistanceMeters>
          </Trackpoint>
          <Trackpoint>
            <Time>2022-07-09T06:35:16.000Z</Time>
            <Position>
              <LatitudeDegrees>43.3379569463431835174560546875</LatitudeDegrees>
              <LongitudeDegrees>-1.85728465206921100616455078125</LongitudeDegrees>
            </Position>
            <AltitudeMeters>214.8000030517578125</AltitudeMeters>
            <DistanceMeters>NAN</DistanceMeters>
          </Trackpoint>
          <Trackpoint>
            <Time>2022-07-09T06:35:18.000Z</Time>
            <Position>
              <LatitudeDegrees>43.33796272985637187957763671875</LatitudeDegrees>
              <LongitudeDegrees>-1.8573128990828990936279296875</LongitudeDegrees>
            </Position>
            <AltitudeMeters>215</AltitudeMeters>
            <DistanceMeters>NAN</DistanceMeters>
          </Trackpoint>
          <Trackpoint>
            <Time>2022-07-09T06:35:19.000Z</Time>
            <Position>
              <LatitudeDegrees>43.3379649929702281951904296875</LatitudeDegrees>
              <LongitudeDegrees>-1.85732170008122920989990234375</LongitudeDegrees>
            </Position>
            <AltitudeMeters>215</AltitudeMeters>
            <DistanceMeters>NAN</DistanceMeters>
          </Trackpoint>
          <Trackpoint>
            <Time>2022-07-09T06:35:20.000Z</Time>
            <Position>
              <LatitudeDegrees>43.33796792663633823394775390625</LatitudeDegrees>
              <LongitudeDegrees>-1.857330836355686187744140625</LongitudeDegrees>
            </Position>
            <AltitudeMeters>215</AltitudeMeters>
            <DistanceMeters>NAN</DistanceMeters>
          </Trackpoint>
          <Trackpoint>
            <Time>2022-07-09T06:35:22.000Z</Time>
            <Position>
              <LatitudeDegrees>43.337966501712799072265625</LatitudeDegrees>
              <LongitudeDegrees>-1.8573584966361522674560546875</LongitudeDegrees>
            </Position>
            <AltitudeMeters>215.399993896484375</AltitudeMeters>
            <DistanceMeters>NAN</DistanceMeters>
          </Trackpoint>
          <Trackpoint>
            <Time>2022-07-09T06:35:24.000Z</Time>
            <Position>
              <LatitudeDegrees>43.33799240179359912872314453125</LatitudeDegrees>
              <LongitudeDegrees>-1.8573506176471710205078125</LongitudeDegrees>
            </Position>
            <AltitudeMeters>215.600006103515625</AltitudeMeters>
            <DistanceMeters>NAN</DistanceMeters>
          </Trackpoint>
          <Trackpoint>
            <Time>2022-07-09T06:35:25.000Z</Time>
            <Position>
              <LatitudeDegrees>43.33799525164067745208740234375</LatitudeDegrees>
              <LongitudeDegrees>-1.85734265483915805816650390625</LongitudeDegrees>
            </Position>
            <AltitudeMeters>215.600006103515625</AltitudeMeters>
            <DistanceMeters>NAN</DistanceMeters>
          </Trackpoint>
          <Trackpoint>
            <Time>2022-07-09T06:35:27.000Z</Time>
            <Position>
              <LatitudeDegrees>43.33800279535353183746337890625</LatitudeDegrees>
              <LongitudeDegrees>-1.85736763291060924530029296875</LongitudeDegrees>
            </Position>
            <AltitudeMeters>215.8000030517578125</AltitudeMeters>
            <DistanceMeters>NAN</DistanceMeters>
          </Trackpoint>
          <Trackpoint>
            <Time>2022-07-09T06:35:28.000Z</Time>
            <Position>
              <LatitudeDegrees>43.33800799213349819183349609375</LatitudeDegrees>
              <LongitudeDegrees>-1.85738188214600086212158203125</LongitudeDegrees>
            </Position>
            <AltitudeMeters>215.8000030517578125</AltitudeMeters>
            <DistanceMeters>NAN</DistanceMeters>
          </Trackpoint>
          <Trackpoint>
            <Time>2022-07-09T06:35:30.000Z</Time>
            <Position>
              <LatitudeDegrees>43.33802081644535064697265625</LatitudeDegrees>
              <LongitudeDegrees>-1.8574030883610248565673828125</LongitudeDegrees>
            </Position>
            <AltitudeMeters>216</AltitudeMeters>
            <DistanceMeters>NAN</DistanceMeters>
          </Trackpoint>
          <Trackpoint>
            <Time>2022-07-09T06:35:31.000Z</Time>
            <Position>
              <LatitudeDegrees>43.33802794106304645538330078125</LatitudeDegrees>
              <LongitudeDegrees>-1.8574148230254650115966796875</LongitudeDegrees>
            </Position>
            <AltitudeMeters>216.1999969482421875</AltitudeMeters>
            <DistanceMeters>NAN</DistanceMeters>
          </Trackpoint>
          <Trackpoint>
            <Time>2022-07-09T06:35:35.000Z</Time>
            <Position>
              <LatitudeDegrees>43.3380404300987720489501953125</LatitudeDegrees>
              <LongitudeDegrees>-1.8574761785566806793212890625</LongitudeDegrees>
            </Position>
            <AltitudeMeters>216.600006103515625</AltitudeMeters>
            <DistanceMeters>NAN</DistanceMeters>
          </Trackpoint>
          <Trackpoint>
            <Time>2022-07-09T06:35:37.000Z</Time>
            <Position>
              <LatitudeDegrees>43.33805141039192676544189453125</LatitudeDegrees>
              <LongitudeDegrees>-1.85751398093998432159423828125</LongitudeDegrees>
            </Position>
            <AltitudeMeters>216.8000030517578125</AltitudeMeters>
            <DistanceMeters>NAN</DistanceMeters>
          </Trackpoint>
          <Trackpoint>
            <Time>2022-07-09T06:35:41.000Z</Time>
            <Position>
              <LatitudeDegrees>43.338070772588253021240234375</LatitudeDegrees>
              <LongitudeDegrees>-1.85755915939807891845703125</LongitudeDegrees>
            </Position>
            <AltitudeMeters>217.1999969482421875</AltitudeMeters>
            <DistanceMeters>NAN</DistanceMeters>
          </Trackpoint>
          <Trackpoint>
            <Time>2022-07-09T06:35:42.000Z</Time>
            <Position>
              <LatitudeDegrees>43.3380722813308238983154296875</LatitudeDegrees>
              <LongitudeDegrees>-1.85756812803447246551513671875</LongitudeDegrees>
            </Position>
            <AltitudeMeters>217.1999969482421875</AltitudeMeters>
            <DistanceMeters>NAN</DistanceMeters>
          </Trackpoint>
          <Trackpoint>
            <Time>2022-07-09T06:35:44.000Z</Time>
            <Position>
              <LatitudeDegrees>43.33808091469109058380126953125</LatitudeDegrees>
              <LongitudeDegrees>-1.8575995601713657379150390625</LongitudeDegrees>
            </Position>
            <AltitudeMeters>217.600006103515625</AltitudeMeters>
            <DistanceMeters>NAN</DistanceMeters>
          </Trackpoint>
          <Trackpoint>
            <Time>2022-07-09T06:35:45.000Z</Time>
            <Position>
              <LatitudeDegrees>43.3380813337862491607666015625</LatitudeDegrees>
              <LongitudeDegrees>-1.8576163239777088165283203125</LongitudeDegrees>
            </Position>
            <AltitudeMeters>217.600006103515625</AltitudeMeters>
            <DistanceMeters>NAN</DistanceMeters>
          </Trackpoint>
          <Trackpoint>
            <Time>2022-07-09T06:35:46.000Z</Time>
            <Position>
              <LatitudeDegrees>43.338080160319805145263671875</LatitudeDegrees>
              <LongitudeDegrees>-1.8576428107917308807373046875</LongitudeDegrees>
            </Position>
            <AltitudeMeters>217.600006103515625</AltitudeMeters>
            <DistanceMeters>NAN</DistanceMeters>
          </Trackpoint>
          <Trackpoint>
            <Time>2022-07-09T06:35:51.000Z</Time>
            <Position>
              <LatitudeDegrees>43.33808376453816890716552734375</LatitudeDegrees>
              <LongitudeDegrees>-1.85769519768655300140380859375</LongitudeDegrees>
            </Position>
            <AltitudeMeters>217.8000030517578125</AltitudeMeters>
            <DistanceMeters>NAN</DistanceMeters>
          </Trackpoint>
          <Trackpoint>
            <Time>2022-07-09T06:35:55.000Z</Time>
            <Position>
              <LatitudeDegrees>43.338117040693759918212890625</LatitudeDegrees>
              <LongitudeDegrees>-1.85778404586017131805419921875</LongitudeDegrees>
            </Position>
            <AltitudeMeters>218.1999969482421875</AltitudeMeters>
            <DistanceMeters>NAN</DistanceMeters>
          </Trackpoint>
          <Trackpoint>
            <Time>2022-07-09T06:35:56.000Z</Time>
            <Position>
              <LatitudeDegrees>43.33812165074050426483154296875</LatitudeDegrees>
              <LongitudeDegrees>-1.85780516825616359710693359375</LongitudeDegrees>
            </Position>
            <AltitudeMeters>218.1999969482421875</AltitudeMeters>
            <DistanceMeters>NAN</DistanceMeters>
          </Trackpoint>
          <Trackpoint>
            <Time>2022-07-09T06:35:58.000Z</Time>
            <Position>
              <LatitudeDegrees>43.33811410702764987945556640625</LatitudeDegrees>
              <LongitudeDegrees>-1.857814975082874298095703125</LongitudeDegrees>
            </Position>
            <AltitudeMeters>218.399993896484375</AltitudeMeters>
            <DistanceMeters>NAN</DistanceMeters>
          </Trackpoint>
          <Trackpoint>
            <Time>2022-07-09T06:36:03.000Z</Time>
            <Position>
              <LatitudeDegrees>43.33806901238858699798583984375</LatitudeDegrees>
              <LongitudeDegrees>-1.8578815273940563201904296875</LongitudeDegrees>
            </Position>
            <AltitudeMeters>218.8000030517578125</AltitudeMeters>
            <DistanceMeters>NAN</DistanceMeters>
          </Trackpoint>
          <Trackpoint>
            <Time>2022-07-09T06:36:04.000Z</Time>
            <Position>
              <LatitudeDegrees>43.3380617201328277587890625</LatitudeDegrees>
              <LongitudeDegrees>-1.857883371412754058837890625</LongitudeDegrees>
            </Position>
            <AltitudeMeters>219</AltitudeMeters>
            <DistanceMeters>NAN</DistanceMeters>
          </Trackpoint>
          <Trackpoint>
            <Time>2022-07-09T06:36:07.000Z</Time>
            <Position>
              <LatitudeDegrees>43.338021822273731231689453125</LatitudeDegrees>
              <LongitudeDegrees>-1.85790876857936382293701171875</LongitudeDegrees>
            </Position>
            <AltitudeMeters>219.1999969482421875</AltitudeMeters>
            <DistanceMeters>NAN</DistanceMeters>
          </Trackpoint>
          <Trackpoint>
            <Time>2022-07-09T06:36:10.000Z</Time>
            <Position>
              <LatitudeDegrees>43.3380025438964366912841796875</LatitudeDegrees>
              <LongitudeDegrees>-1.85792251490056514739990234375</LongitudeDegrees>
            </Position>
            <AltitudeMeters>219.600006103515625</AltitudeMeters>
            <DistanceMeters>NAN</DistanceMeters>
          </Trackpoint>
          <Trackpoint>
            <Time>2022-07-09T06:36:11.000Z</Time>
            <Position>
              <LatitudeDegrees>43.33799223415553569793701171875</LatitudeDegrees>
              <LongitudeDegrees>-1.85792603529989719390869140625</LongitudeDegrees>
            </Position>
            <AltitudeMeters>219.8000030517578125</AltitudeMeters>
            <DistanceMeters>NAN</DistanceMeters>
          </Trackpoint>
          <Trackpoint>
            <Time>2022-07-09T06:36:14.000Z</Time>
            <Position>
              <LatitudeDegrees>43.3379624783992767333984375</LatitudeDegrees>
              <LongitudeDegrees>-1.85797146521508693695068359375</LongitudeDegrees>
            </Position>
            <AltitudeMeters>219.8000030517578125</AltitudeMeters>
            <DistanceMeters>NAN</DistanceMeters>
          </Trackpoint>
          <Trackpoint>
            <Time>2022-07-09T06:36:16.000Z</Time>
            <Position>
              <LatitudeDegrees>43.33794227801263332366943359375</LatitudeDegrees>
              <LongitudeDegrees>-1.85799359343945980072021484375</LongitudeDegrees>
            </Position>
            <AltitudeMeters>220</AltitudeMeters>
            <DistanceMeters>NAN</DistanceMeters>
          </Trackpoint>
          <Trackpoint>
            <Time>2022-07-09T06:36:17.000Z</Time>
            <Position>
              <LatitudeDegrees>43.33793439902365207672119140625</LatitudeDegrees>
              <LongitudeDegrees>-1.8580022267997264862060546875</LongitudeDegrees>
            </Position>
            <AltitudeMeters>220.1999969482421875</AltitudeMeters>
            <DistanceMeters>NAN</DistanceMeters>
          </Trackpoint>
          <Trackpoint>
            <Time>2022-07-09T06:36:18.000Z</Time>
            <Position>
              <LatitudeDegrees>43.3379257656633853912353515625</LatitudeDegrees>
              <LongitudeDegrees>-1.8580085970461368560791015625</LongitudeDegrees>
            </Position>
            <AltitudeMeters>220.1999969482421875</AltitudeMeters>
            <DistanceMeters>NAN</DistanceMeters>
          </Trackpoint>
          <Trackpoint>
            <Time>2022-07-09T06:36:19.000Z</Time>
            <Position>
              <LatitudeDegrees>43.33791512064635753631591796875</LatitudeDegrees>
              <LongitudeDegrees>-1.85802125371992588043212890625</LongitudeDegrees>
            </Position>
            <AltitudeMeters>220.399993896484375</AltitudeMeters>
            <DistanceMeters>NAN</DistanceMeters>
          </Trackpoint>
          <Trackpoint>
            <Time>2022-07-09T06:36:24.000Z</Time>
            <Position>
              <LatitudeDegrees>43.33784420974552631378173828125</LatitudeDegrees>
              <LongitudeDegrees>-1.8581249378621578216552734375</LongitudeDegrees>
            </Position>
            <AltitudeMeters>220.8000030517578125</AltitudeMeters>
            <DistanceMeters>NAN</DistanceMeters>
          </Trackpoint>
          <Trackpoint>
            <Time>2022-07-09T06:36:29.000Z</Time>
            <Position>
              <LatitudeDegrees>43.337785117328166961669921875</LatitudeDegrees>
              <LongitudeDegrees>-1.8582181446254253387451171875</LongitudeDegrees>
            </Position>
            <AltitudeMeters>221</AltitudeMeters>
            <DistanceMeters>NAN</DistanceMeters>
          </Trackpoint>
          <Trackpoint>
            <Time>2022-07-09T06:36:31.000Z</Time>
            <Position>
              <LatitudeDegrees>43.337769694626331329345703125</LatitudeDegrees>
              <LongitudeDegrees>-1.85826935805380344390869140625</LongitudeDegrees>
            </Position>
            <AltitudeMeters>221.1999969482421875</AltitudeMeters>
            <DistanceMeters>NAN</DistanceMeters>
          </Trackpoint>
          <Trackpoint>
            <Time>2022-07-09T06:36:32.000Z</Time>
            <Position>
              <LatitudeDegrees>43.33776223473250865936279296875</LatitudeDegrees>
              <LongitudeDegrees>-1.8582942523062229156494140625</LongitudeDegrees>
            </Position>
            <AltitudeMeters>221.399993896484375</AltitudeMeters>
            <DistanceMeters>NAN</DistanceMeters>
          </Trackpoint>
          <Trackpoint>
            <Time>2022-07-09T06:36:38.000Z</Time>
            <Position>
              <LatitudeDegrees>43.33771236240863800048828125</LatitudeDegrees>
              <LongitudeDegrees>-1.85840095393359661102294921875</LongitudeDegrees>
            </Position>
            <AltitudeMeters>222.1999969482421875</AltitudeMeters>
            <DistanceMeters>NAN</DistanceMeters>
          </Trackpoint>
          <Trackpoint>
            <Time>2022-07-09T06:36:39.000Z</Time>
            <Position>
              <LatitudeDegrees>43.33770356141030788421630859375</LatitudeDegrees>
              <LongitudeDegrees>-1.85841352678835391998291015625</LongitudeDegrees>
            </Position>
            <AltitudeMeters>222.399993896484375</AltitudeMeters>
            <DistanceMeters>NAN</DistanceMeters>
          </Trackpoint>
          <Trackpoint>
            <Time>2022-07-09T06:36:40.000Z</Time>
            <Position>
              <LatitudeDegrees>43.33769735880196094512939453125</LatitudeDegrees>
              <LongitudeDegrees>-1.85842677019536495208740234375</LongitudeDegrees>
            </Position>
            <AltitudeMeters>222.600006103515625</AltitudeMeters>
            <DistanceMeters>NAN</DistanceMeters>
          </Trackpoint>
          <Trackpoint>
            <Time>2022-07-09T06:36:44.000Z</Time>
            <Position>
              <LatitudeDegrees>43.33768545649945735931396484375</LatitudeDegrees>
              <LongitudeDegrees>-1.85849147848784923553466796875</LongitudeDegrees>
            </Position>
            <AltitudeMeters>223</AltitudeMeters>
            <DistanceMeters>NAN</DistanceMeters>
          </Trackpoint>
          <Trackpoint>
            <Time>2022-07-09T06:36:45.000Z</Time>
            <Position>
              <LatitudeDegrees>43.3376863785088062286376953125</LatitudeDegrees>
              <LongitudeDegrees>-1.858504973351955413818359375</LongitudeDegrees>
            </Position>
            <AltitudeMeters>223.1999969482421875</AltitudeMeters>
            <DistanceMeters>NAN</DistanceMeters>
          </Trackpoint>
          <Trackpoint>
            <Time>2022-07-09T06:36:49.000Z</Time>
            <Position>
              <LatitudeDegrees>43.33770490251481533050537109375</LatitudeDegrees>
              <LongitudeDegrees>-1.85858133248984813690185546875</LongitudeDegrees>
            </Position>
            <AltitudeMeters>223.399993896484375</AltitudeMeters>
            <DistanceMeters>NAN</DistanceMeters>
          </Trackpoint>
          <Trackpoint>
            <Time>2022-07-09T06:36:52.000Z</Time>
            <Position>
              <LatitudeDegrees>43.3377044834196567535400390625</LatitudeDegrees>
              <LongitudeDegrees>-1.85863883234560489654541015625</LongitudeDegrees>
            </Position>
            <AltitudeMeters>223.399993896484375</AltitudeMeters>
            <DistanceMeters>NAN</DistanceMeters>
          </Trackpoint>
          <Trackpoint>
            <Time>2022-07-09T06:36:58.000Z</Time>
            <Position>
              <LatitudeDegrees>43.3377390168607234954833984375</LatitudeDegrees>
              <LongitudeDegrees>-1.858754418790340423583984375</LongitudeDegrees>
            </Position>
            <AltitudeMeters>223.600006103515625</AltitudeMeters>
            <DistanceMeters>NAN</DistanceMeters>
          </Trackpoint>
          <Trackpoint>
            <Time>2022-07-09T06:37:01.000Z</Time>
            <Position>
              <LatitudeDegrees>43.337770365178585052490234375</LatitudeDegrees>
              <LongitudeDegrees>-1.8588032014667987823486328125</LongitudeDegrees>
            </Position>
            <AltitudeMeters>223.600006103515625</AltitudeMeters>
            <DistanceMeters>NAN</DistanceMeters>
          </Trackpoint>
          <Trackpoint>
            <Time>2022-07-09T06:37:04.000Z</Time>
            <Position>
              <LatitudeDegrees>43.33777899853885173797607421875</LatitudeDegrees>
              <LongitudeDegrees>-1.85884955339133739471435546875</LongitudeDegrees>
            </Position>
            <AltitudeMeters>223.600006103515625</AltitudeMeters>
            <DistanceMeters>NAN</DistanceMeters>
          </Trackpoint>
          <Trackpoint>
            <Time>2022-07-09T06:37:12.000Z</Time>
            <Position>
              <LatitudeDegrees>43.33787622861564159393310546875</LatitudeDegrees>
              <LongitudeDegrees>-1.85896572656929492950439453125</LongitudeDegrees>
            </Position>
            <AltitudeMeters>223.8000030517578125</AltitudeMeters>
            <DistanceMeters>NAN</DistanceMeters>
          </Trackpoint>
          <Trackpoint>
            <Time>2022-07-09T06:37:22.000Z</Time>
            <Position>
              <LatitudeDegrees>43.33799173124134540557861328125</LatitudeDegrees>
              <LongitudeDegrees>-1.8590918742120265960693359375</LongitudeDegrees>
            </Position>
            <AltitudeMeters>224</AltitudeMeters>
            <DistanceMeters>NAN</DistanceMeters>
          </Trackpoint>
          <Trackpoint>
            <Time>2022-07-09T06:37:29.000Z</Time>
            <Position>
              <LatitudeDegrees>43.338063396513462066650390625</LatitudeDegrees>
              <LongitudeDegrees>-1.8591746874153614044189453125</LongitudeDegrees>
            </Position>
            <AltitudeMeters>224.1999969482421875</AltitudeMeters>
            <DistanceMeters>NAN</DistanceMeters>
          </Trackpoint>
          <Trackpoint>
            <Time>2022-07-09T06:37:32.000Z</Time>
            <Position>
              <LatitudeDegrees>43.33808678202331066131591796875</LatitudeDegrees>
              <LongitudeDegrees>-1.85920561663806438446044921875</LongitudeDegrees>
            </Position>
            <AltitudeMeters>224.1999969482421875</AltitudeMeters>
            <DistanceMeters>NAN</DistanceMeters>
          </Trackpoint>
          <Trackpoint>
            <Time>2022-07-09T06:37:33.000Z</Time>
            <Position>
              <LatitudeDegrees>43.3380917273461818695068359375</LatitudeDegrees>
              <LongitudeDegrees>-1.859205700457096099853515625</LongitudeDegrees>
            </Position>
            <AltitudeMeters>224.1999969482421875</AltitudeMeters>
            <DistanceMeters>NAN</DistanceMeters>
          </Trackpoint>
          <Trackpoint>
            <Time>2022-07-09T06:37:38.000Z</Time>
            <Position>
              <LatitudeDegrees>43.3381282724440097808837890625</LatitudeDegrees>
              <LongitudeDegrees>-1.8592739291489124298095703125</LongitudeDegrees>
            </Position>
            <AltitudeMeters>224.399993896484375</AltitudeMeters>
            <DistanceMeters>NAN</DistanceMeters>
          </Trackpoint>
          <Trackpoint>
            <Time>2022-07-09T06:37:39.000Z</Time>
            <Position>
              <LatitudeDegrees>43.33813036791980266571044921875</LatitudeDegrees>
              <LongitudeDegrees>-1.85928222723305225372314453125</LongitudeDegrees>
            </Position>
            <AltitudeMeters>224.399993896484375</AltitudeMeters>
            <DistanceMeters>NAN</DistanceMeters>
          </Trackpoint>
          <Trackpoint>
            <Time>2022-07-09T06:37:40.000Z</Time>
            <Position>
              <LatitudeDegrees>43.33813481032848358154296875</LatitudeDegrees>
              <LongitudeDegrees>-1.85929429717361927032470703125</LongitudeDegrees>
            </Position>
            <AltitudeMeters>224.600006103515625</AltitudeMeters>
            <DistanceMeters>NAN</DistanceMeters>
          </Trackpoint>
          <Trackpoint>
            <Time>2022-07-09T06:37:46.000Z</Time>
            <Position>
              <LatitudeDegrees>43.33817512728273868560791015625</LatitudeDegrees>
              <LongitudeDegrees>-1.8593651242554187774658203125</LongitudeDegrees>
            </Position>
            <AltitudeMeters>225.1999969482421875</AltitudeMeters>
            <DistanceMeters>NAN</DistanceMeters>
          </Trackpoint>
          <Trackpoint>
            <Time>2022-07-09T06:37:48.000Z</Time>
            <Position>
              <LatitudeDegrees>43.33818669430911540985107421875</LatitudeDegrees>
              <LongitudeDegrees>-1.8593976460397243499755859375</LongitudeDegrees>
            </Position>
            <AltitudeMeters>225.399993896484375</AltitudeMeters>
            <DistanceMeters>NAN</DistanceMeters>
          </Trackpoint>
          <Trackpoint>
            <Time>2022-07-09T06:37:52.000Z</Time>
            <Position>
              <LatitudeDegrees>43.338213600218296051025390625</LatitudeDegrees>
              <LongitudeDegrees>-1.8594856560230255126953125</LongitudeDegrees>
            </Position>
            <AltitudeMeters>225.8000030517578125</AltitudeMeters>
            <DistanceMeters>NAN</DistanceMeters>
          </Trackpoint>
          <Trackpoint>
            <Time>2022-07-09T06:37:55.000Z</Time>
            <Position>
              <LatitudeDegrees>43.33822390995919704437255859375</LatitudeDegrees>
              <LongitudeDegrees>-1.85951977036893367767333984375</LongitudeDegrees>
            </Position>
            <AltitudeMeters>226</AltitudeMeters>
            <DistanceMeters>NAN</DistanceMeters>
          </Trackpoint>
          <Trackpoint>
            <Time>2022-07-09T06:37:56.000Z</Time>
            <Position>
              <LatitudeDegrees>43.338226340711116790771484375</LatitudeDegrees>
              <LongitudeDegrees>-1.85953133739531040191650390625</LongitudeDegrees>
            </Position>
            <AltitudeMeters>226.1999969482421875</AltitudeMeters>
            <DistanceMeters>NAN</DistanceMeters>
          </Trackpoint>
          <Trackpoint>
            <Time>2022-07-09T06:37:58.000Z</Time>
            <Position>
              <LatitudeDegrees>43.3382295258343219757080078125</LatitudeDegrees>
              <LongitudeDegrees>-1.8595491908490657806396484375</LongitudeDegrees>
            </Position>
            <AltitudeMeters>226.399993896484375</AltitudeMeters>
            <DistanceMeters>NAN</DistanceMeters>
          </Trackpoint>
          <Trackpoint>
            <Time>2022-07-09T06:38:00.000Z</Time>
            <Position>
              <LatitudeDegrees>43.3382315374910831451416015625</LatitudeDegrees>
              <LongitudeDegrees>-1.85956486500799655914306640625</LongitudeDegrees>
            </Position>
            <AltitudeMeters>226.600006103515625</AltitudeMeters>
            <DistanceMeters>NAN</DistanceMeters>
          </Trackpoint>
          <Trackpoint>
            <Time>2022-07-09T06:38:02.000Z</Time>
            <Position>
              <LatitudeDegrees>43.3382348902523517608642578125</LatitudeDegrees>
              <LongitudeDegrees>-1.85957374982535839080810546875</LongitudeDegrees>
            </Position>
            <AltitudeMeters>226.8000030517578125</AltitudeMeters>
            <DistanceMeters>NAN</DistanceMeters>
          </Trackpoint>
          <Trackpoint>
            <Time>2022-07-09T06:38:05.000Z</Time>
            <Position>
              <LatitudeDegrees>43.3382332138717174530029296875</LatitudeDegrees>
              <LongitudeDegrees>-1.859614066779613494873046875</LongitudeDegrees>
            </Position>
            <AltitudeMeters>227.1999969482421875</AltitudeMeters>
            <DistanceMeters>NAN</DistanceMeters>
          </Trackpoint>
          <Trackpoint>
            <Time>2022-07-09T06:38:10.000Z</Time>
            <Position>
              <LatitudeDegrees>43.33822734653949737548828125</LatitudeDegrees>
              <LongitudeDegrees>-1.85966595076024532318115234375</LongitudeDegrees>
            </Position>
            <AltitudeMeters>227.399993896484375</AltitudeMeters>
            <DistanceMeters>NAN</DistanceMeters>
          </Trackpoint>
          <Trackpoint>
            <Time>2022-07-09T06:38:15.000Z</Time>
            <Position>
              <LatitudeDegrees>43.33820681087672710418701171875</LatitudeDegrees>
              <LongitudeDegrees>-1.85976251028478145599365234375</LongitudeDegrees>
            </Position>
            <AltitudeMeters>227.600006103515625</AltitudeMeters>
            <DistanceMeters>NAN</DistanceMeters>
          </Trackpoint>
          <Trackpoint>
            <Time>2022-07-09T06:38:16.000Z</Time>
            <Position>
              <LatitudeDegrees>43.33819792605936527252197265625</LatitudeDegrees>
              <LongitudeDegrees>-1.859796456992626190185546875</LongitudeDegrees>
            </Position>
            <AltitudeMeters>227.600006103515625</AltitudeMeters>
            <DistanceMeters>NAN</DistanceMeters>
          </Trackpoint>
          <Trackpoint>
            <Time>2022-07-09T06:38:22.000Z</Time>
            <Position>
              <LatitudeDegrees>43.33811963908374309539794921875</LatitudeDegrees>
              <LongitudeDegrees>-1.85994272120296955108642578125</LongitudeDegrees>
            </Position>
            <AltitudeMeters>227.8000030517578125</AltitudeMeters>
            <DistanceMeters>NAN</DistanceMeters>
          </Trackpoint>
          <Trackpoint>
            <Time>2022-07-09T06:38:23.000Z</Time>
            <Position>
              <LatitudeDegrees>43.33810907788574695587158203125</LatitudeDegrees>
              <LongitudeDegrees>-1.859957389533519744873046875</LongitudeDegrees>
            </Position>
            <AltitudeMeters>227.8000030517578125</AltitudeMeters>
            <DistanceMeters>NAN</DistanceMeters>
          </Trackpoint>
          <Trackpoint>
            <Time>2022-07-09T06:38:26.000Z</Time>
            <Position>
              <LatitudeDegrees>43.33808108232915401458740234375</LatitudeDegrees>
              <LongitudeDegrees>-1.859993599355220794677734375</LongitudeDegrees>
            </Position>
            <AltitudeMeters>227.8000030517578125</AltitudeMeters>
            <DistanceMeters>NAN</DistanceMeters>
          </Trackpoint>
          <Trackpoint>
            <Time>2022-07-09T06:38:27.000Z</Time>
            <Position>
              <LatitudeDegrees>43.3380659110844135284423828125</LatitudeDegrees>
              <LongitudeDegrees>-1.8600075133144855499267578125</LongitudeDegrees>
            </Position>
            <AltitudeMeters>227.8000030517578125</AltitudeMeters>
            <DistanceMeters>NAN</DistanceMeters>
          </Trackpoint>
          <Trackpoint>
            <Time>2022-07-09T06:38:28.000Z</Time>
            <Position>
              <LatitudeDegrees>43.3380525000393390655517578125</LatitudeDegrees>
              <LongitudeDegrees>-1.860038526356220245361328125</LongitudeDegrees>
            </Position>
            <AltitudeMeters>228</AltitudeMeters>
            <DistanceMeters>NAN</DistanceMeters>
          </Trackpoint>
          <Trackpoint>
            <Time>2022-07-09T06:38:31.000Z</Time>
            <Position>
              <LatitudeDegrees>43.33803330548107624053955078125</LatitudeDegrees>
              <LongitudeDegrees>-1.8600893206894397735595703125</LongitudeDegrees>
            </Position>
            <AltitudeMeters>228</AltitudeMeters>
            <DistanceMeters>NAN</DistanceMeters>
          </Trackpoint>
          <Trackpoint>
            <Time>2022-07-09T06:38:39.000Z</Time>
            <Position>
              <LatitudeDegrees>43.3379566110670566558837890625</LatitudeDegrees>
              <LongitudeDegrees>-1.86021882109344005584716796875</LongitudeDegrees>
            </Position>
            <AltitudeMeters>228.399993896484375</AltitudeMeters>
            <DistanceMeters>NAN</DistanceMeters>
          </Trackpoint>
          <Trackpoint>
            <Time>2022-07-09T06:38:46.000Z</Time>
            <Position>
              <LatitudeDegrees>43.33790590055286884307861328125</LatitudeDegrees>
              <LongitudeDegrees>-1.860393919050693511962890625</LongitudeDegrees>
            </Position>
            <AltitudeMeters>228.600006103515625</AltitudeMeters>
            <DistanceMeters>NAN</DistanceMeters>
          </Trackpoint>
          <Trackpoint>
            <Time>2022-07-09T06:38:51.000Z</Time>
            <Position>
              <LatitudeDegrees>43.33786147646605968475341796875</LatitudeDegrees>
              <LongitudeDegrees>-1.86056189239025115966796875</LongitudeDegrees>
            </Position>
            <AltitudeMeters>228.8000030517578125</AltitudeMeters>
            <DistanceMeters>NAN</DistanceMeters>
          </Trackpoint>
          <Trackpoint>
            <Time>2022-07-09T06:38:52.000Z</Time>
            <Position>
              <LatitudeDegrees>43.3378570340573787689208984375</LatitudeDegrees>
              <LongitudeDegrees>-1.8605934083461761474609375</LongitudeDegrees>
            </Position>
            <AltitudeMeters>228.8000030517578125</AltitudeMeters>
            <DistanceMeters>NAN</DistanceMeters>
          </Trackpoint>
          <Trackpoint>
            <Time>2022-07-09T06:38:53.000Z</Time>
            <Position>
              <LatitudeDegrees>43.3378442935645580291748046875</LatitudeDegrees>
              <LongitudeDegrees>-1.8606314621865749359130859375</LongitudeDegrees>
            </Position>
            <AltitudeMeters>228.8000030517578125</AltitudeMeters>
            <DistanceMeters>NAN</DistanceMeters>
          </Trackpoint>
          <Trackpoint>
            <Time>2022-07-09T06:38:55.000Z</Time>
            <Position>
              <LatitudeDegrees>43.337827026844024658203125</LatitudeDegrees>
              <LongitudeDegrees>-1.86069474555552005767822265625</LongitudeDegrees>
            </Position>
            <AltitudeMeters>229</AltitudeMeters>
            <DistanceMeters>NAN</DistanceMeters>
          </Trackpoint>
          <Trackpoint>
            <Time>2022-07-09T06:38:56.000Z</Time>
            <Position>
              <LatitudeDegrees>43.3378208242356777191162109375</LatitudeDegrees>
              <LongitudeDegrees>-1.8607115931808948516845703125</LongitudeDegrees>
            </Position>
            <AltitudeMeters>229</AltitudeMeters>
            <DistanceMeters>NAN</DistanceMeters>
          </Trackpoint>
          <Trackpoint>
            <Time>2022-07-09T06:39:02.000Z</Time>
            <Position>
              <LatitudeDegrees>43.337773047387599945068359375</LatitudeDegrees>
              <LongitudeDegrees>-1.86085986904799938201904296875</LongitudeDegrees>
            </Position>
            <AltitudeMeters>229.600006103515625</AltitudeMeters>
            <DistanceMeters>NAN</DistanceMeters>
          </Trackpoint>
          <Trackpoint>
            <Time>2022-07-09T06:39:04.000Z</Time>
            <Position>
              <LatitudeDegrees>43.33775452338159084320068359375</LatitudeDegrees>
              <LongitudeDegrees>-1.8609104119241237640380859375</LongitudeDegrees>
            </Position>
            <AltitudeMeters>229.8000030517578125</AltitudeMeters>
            <DistanceMeters>NAN</DistanceMeters>
          </Trackpoint>
          <Trackpoint>
            <Time>2022-07-09T06:39:09.000Z</Time>
            <Position>
              <LatitudeDegrees>43.3377276174724102020263671875</LatitudeDegrees>
              <LongitudeDegrees>-1.86102951876819133758544921875</LongitudeDegrees>
            </Position>
            <AltitudeMeters>230.8000030517578125</AltitudeMeters>
            <DistanceMeters>NAN</DistanceMeters>
          </Trackpoint>
          <Trackpoint>
            <Time>2022-07-09T06:39:10.000Z</Time>
            <Position>
              <LatitudeDegrees>43.33772803656756877899169921875</LatitudeDegrees>
              <LongitudeDegrees>-1.8610418401658535003662109375</LongitudeDegrees>
            </Position>
            <AltitudeMeters>231</AltitudeMeters>
            <DistanceMeters>NAN</DistanceMeters>
          </Trackpoint>
          <Trackpoint>
            <Time>2022-07-09T06:39:11.000Z</Time>
            <Position>
              <LatitudeDegrees>43.3377291262149810791015625</LatitudeDegrees>
              <LongitudeDegrees>-1.86106170527637004852294921875</LongitudeDegrees>
            </Position>
            <AltitudeMeters>231</AltitudeMeters>
            <DistanceMeters>NAN</DistanceMeters>
          </Trackpoint>
          <Trackpoint>
            <Time>2022-07-09T06:39:12.000Z</Time>
            <Position>
              <LatitudeDegrees>43.33773356862366199493408203125</LatitudeDegrees>
              <LongitudeDegrees>-1.861085593700408935546875</LongitudeDegrees>
            </Position>
            <AltitudeMeters>231.1999969482421875</AltitudeMeters>
            <DistanceMeters>NAN</DistanceMeters>
          </Trackpoint>
          <Trackpoint>
            <Time>2022-07-09T06:39:16.000Z</Time>
            <Position>
              <LatitudeDegrees>43.33774362690746784210205078125</LatitudeDegrees>
              <LongitudeDegrees>-1.8611420877277851104736328125</LongitudeDegrees>
            </Position>
            <AltitudeMeters>231.8000030517578125</AltitudeMeters>
            <DistanceMeters>NAN</DistanceMeters>
          </Trackpoint>
          <Trackpoint>
            <Time>2022-07-09T06:39:17.000Z</Time>
            <Position>
              <LatitudeDegrees>43.33775217644870281219482421875</LatitudeDegrees>
              <LongitudeDegrees>-1.86117201112210750579833984375</LongitudeDegrees>
            </Position>
            <AltitudeMeters>232</AltitudeMeters>
            <DistanceMeters>NAN</DistanceMeters>
          </Trackpoint>
          <Trackpoint>
            <Time>2022-07-09T06:39:18.000Z</Time>
            <Position>
              <LatitudeDegrees>43.33776055835187435150146484375</LatitudeDegrees>
              <LongitudeDegrees>-1.861189194023609161376953125</LongitudeDegrees>
            </Position>
            <AltitudeMeters>232</AltitudeMeters>
            <DistanceMeters>NAN</DistanceMeters>
          </Trackpoint>
          <Trackpoint>
            <Time>2022-07-09T06:39:21.000Z</Time>
            <Position>
              <LatitudeDegrees>43.337767012417316436767578125</LatitudeDegrees>
              <LongitudeDegrees>-1.86124317348003387451171875</LongitudeDegrees>
            </Position>
            <AltitudeMeters>232.600006103515625</AltitudeMeters>
            <DistanceMeters>NAN</DistanceMeters>
          </Trackpoint>
          <Trackpoint>
            <Time>2022-07-09T06:39:22.000Z</Time>
            <Position>
              <LatitudeDegrees>43.337767682969570159912109375</LatitudeDegrees>
              <LongitudeDegrees>-1.86126387678086757659912109375</LongitudeDegrees>
            </Position>
            <AltitudeMeters>232.8000030517578125</AltitudeMeters>
            <DistanceMeters>NAN</DistanceMeters>
          </Trackpoint>
          <Trackpoint>
            <Time>2022-07-09T06:39:23.000Z</Time>
            <Position>
              <LatitudeDegrees>43.3377648331224918365478515625</LatitudeDegrees>
              <LongitudeDegrees>-1.86128298752009868621826171875</LongitudeDegrees>
            </Position>
            <AltitudeMeters>233</AltitudeMeters>
            <DistanceMeters>NAN</DistanceMeters>
          </Trackpoint>
          <Trackpoint>
            <Time>2022-07-09T06:39:25.000Z</Time>
            <Position>
              <LatitudeDegrees>43.33776122890412807464599609375</LatitudeDegrees>
              <LongitudeDegrees>-1.86133746989071369171142578125</LongitudeDegrees>
            </Position>
            <AltitudeMeters>233.1999969482421875</AltitudeMeters>
            <DistanceMeters>NAN</DistanceMeters>
          </Trackpoint>
          <Trackpoint>
            <Time>2022-07-09T06:39:26.000Z</Time>
            <Position>
              <LatitudeDegrees>43.33776692859828472137451171875</LatitudeDegrees>
              <LongitudeDegrees>-1.8613613583147525787353515625</LongitudeDegrees>
            </Position>
            <AltitudeMeters>233.399993896484375</AltitudeMeters>
            <DistanceMeters>NAN</DistanceMeters>
          </Trackpoint>
          <Trackpoint>
            <Time>2022-07-09T06:39:32.000Z</Time>
            <Position>
              <LatitudeDegrees>43.33778453059494495391845703125</LatitudeDegrees>
              <LongitudeDegrees>-1.86149454675614833831787109375</LongitudeDegrees>
            </Position>
            <AltitudeMeters>234</AltitudeMeters>
            <DistanceMeters>NAN</DistanceMeters>
          </Trackpoint>
          <Trackpoint>
            <Time>2022-07-09T06:39:35.000Z</Time>
            <Position>
              <LatitudeDegrees>43.33779810927808284759521484375</LatitudeDegrees>
              <LongitudeDegrees>-1.86152203939855098724365234375</LongitudeDegrees>
            </Position>
            <AltitudeMeters>234.600006103515625</AltitudeMeters>
            <DistanceMeters>NAN</DistanceMeters>
          </Trackpoint>
          <Trackpoint>
            <Time>2022-07-09T06:39:39.000Z</Time>
            <Position>
              <LatitudeDegrees>43.33783306181430816650390625</LatitudeDegrees>
              <LongitudeDegrees>-1.86159429140388965606689453125</LongitudeDegrees>
            </Position>
            <AltitudeMeters>235.1999969482421875</AltitudeMeters>
            <DistanceMeters>NAN</DistanceMeters>
          </Trackpoint>
          <Trackpoint>
            <Time>2022-07-09T06:39:40.000Z</Time>
            <Position>
              <LatitudeDegrees>43.3378389291465282440185546875</LatitudeDegrees>
              <LongitudeDegrees>-1.861614324152469635009765625</LongitudeDegrees>
            </Position>
            <AltitudeMeters>235.399993896484375</AltitudeMeters>
            <DistanceMeters>NAN</DistanceMeters>
          </Trackpoint>
          <Trackpoint>
            <Time>2022-07-09T06:39:41.000Z</Time>
            <Position>
              <LatitudeDegrees>43.33784236572682857513427734375</LatitudeDegrees>
              <LongitudeDegrees>-1.86162530444562435150146484375</LongitudeDegrees>
            </Position>
            <AltitudeMeters>235.600006103515625</AltitudeMeters>
            <DistanceMeters>NAN</DistanceMeters>
          </Trackpoint>
          <Trackpoint>
            <Time>2022-07-09T06:39:43.000Z</Time>
            <Position>
              <LatitudeDegrees>43.33783976733684539794921875</LatitudeDegrees>
              <LongitudeDegrees>-1.86165296472609043121337890625</LongitudeDegrees>
            </Position>
            <AltitudeMeters>236</AltitudeMeters>
            <DistanceMeters>NAN</DistanceMeters>
          </Trackpoint>
          <Trackpoint>
            <Time>2022-07-09T06:39:44.000Z</Time>
            <Position>
              <LatitudeDegrees>43.337836749851703643798828125</LatitudeDegrees>
              <LongitudeDegrees>-1.86166503466665744781494140625</LongitudeDegrees>
            </Position>
            <AltitudeMeters>236</AltitudeMeters>
            <DistanceMeters>NAN</DistanceMeters>
          </Trackpoint>
          <Trackpoint>
            <Time>2022-07-09T06:39:45.000Z</Time>
            <Position>
              <LatitudeDegrees>43.33783708512783050537109375</LatitudeDegrees>
              <LongitudeDegrees>-1.8616714887320995330810546875</LongitudeDegrees>
            </Position>
            <AltitudeMeters>236.1999969482421875</AltitudeMeters>
            <DistanceMeters>NAN</DistanceMeters>
          </Trackpoint>
          <Trackpoint>
            <Time>2022-07-09T06:39:50.000Z</Time>
            <Position>
              <LatitudeDegrees>43.33786147646605968475341796875</LatitudeDegrees>
              <LongitudeDegrees>-1.861741058528423309326171875</LongitudeDegrees>
            </Position>
            <AltitudeMeters>236.8000030517578125</AltitudeMeters>
            <DistanceMeters>NAN</DistanceMeters>
          </Trackpoint>
          <Trackpoint>
            <Time>2022-07-09T06:39:52.000Z</Time>
            <Position>
              <LatitudeDegrees>43.33787103183567523956298828125</LatitudeDegrees>
              <LongitudeDegrees>-1.86177416704595088958740234375</LongitudeDegrees>
            </Position>
            <AltitudeMeters>237.1999969482421875</AltitudeMeters>
            <DistanceMeters>NAN</DistanceMeters>
          </Trackpoint>
          <Trackpoint>
            <Time>2022-07-09T06:39:55.000Z</Time>
            <Position>
              <LatitudeDegrees>43.3378768153488636016845703125</LatitudeDegrees>
              <LongitudeDegrees>-1.86181825585663318634033203125</LongitudeDegrees>
            </Position>
            <AltitudeMeters>237.600006103515625</AltitudeMeters>
            <DistanceMeters>NAN</DistanceMeters>
          </Trackpoint>
          <Trackpoint>
            <Time>2022-07-09T06:39:56.000Z</Time>
            <Position>
              <LatitudeDegrees>43.3378764800727367401123046875</LatitudeDegrees>
              <LongitudeDegrees>-1.8618364445865154266357421875</LongitudeDegrees>
            </Position>
            <AltitudeMeters>237.600006103515625</AltitudeMeters>
            <DistanceMeters>NAN</DistanceMeters>
          </Trackpoint>
          <Trackpoint>
            <Time>2022-07-09T06:39:58.000Z</Time>
            <Position>
              <LatitudeDegrees>43.33786399103701114654541015625</LatitudeDegrees>
              <LongitudeDegrees>-1.86187810264527797698974609375</LongitudeDegrees>
            </Position>
            <AltitudeMeters>237.8000030517578125</AltitudeMeters>
            <DistanceMeters>NAN</DistanceMeters>
          </Trackpoint>
          <Trackpoint>
            <Time>2022-07-09T06:40:01.000Z</Time>
            <Position>
              <LatitudeDegrees>43.33786181174218654632568359375</LatitudeDegrees>
              <LongitudeDegrees>-1.86196359805762767791748046875</LongitudeDegrees>
            </Position>
            <AltitudeMeters>238</AltitudeMeters>
            <DistanceMeters>NAN</DistanceMeters>
          </Trackpoint>
          <Trackpoint>
            <Time>2022-07-09T06:40:02.000Z</Time>
            <Position>
              <LatitudeDegrees>43.33786650560796260833740234375</LatitudeDegrees>
              <LongitudeDegrees>-1.86199025250971317291259765625</LongitudeDegrees>
            </Position>
            <AltitudeMeters>238.1999969482421875</AltitudeMeters>
            <DistanceMeters>NAN</DistanceMeters>
          </Trackpoint>
          <Trackpoint>
            <Time>2022-07-09T06:40:07.000Z</Time>
            <Position>
              <LatitudeDegrees>43.3378831855952739715576171875</LatitudeDegrees>
              <LongitudeDegrees>-1.86210684478282928466796875</LongitudeDegrees>
            </Position>
            <AltitudeMeters>238.399993896484375</AltitudeMeters>
            <DistanceMeters>NAN</DistanceMeters>
          </Trackpoint>
          <Trackpoint>
            <Time>2022-07-09T06:40:13.000Z</Time>
            <Position>
              <LatitudeDegrees>43.3378764800727367401123046875</LatitudeDegrees>
              <LongitudeDegrees>-1.8622563779354095458984375</LongitudeDegrees>
            </Position>
            <AltitudeMeters>238.399993896484375</AltitudeMeters>
            <DistanceMeters>NAN</DistanceMeters>
          </Trackpoint>
          <Trackpoint>
            <Time>2022-07-09T06:40:20.000Z</Time>
            <Position>
              <LatitudeDegrees>43.33782476373016834259033203125</LatitudeDegrees>
              <LongitudeDegrees>-1.862433739006519317626953125</LongitudeDegrees>
            </Position>
            <AltitudeMeters>237.8000030517578125</AltitudeMeters>
            <DistanceMeters>NAN</DistanceMeters>
          </Trackpoint>
          <Trackpoint>
            <Time>2022-07-09T06:40:24.000Z</Time>
            <Position>
              <LatitudeDegrees>43.337791822850704193115234375</LatitudeDegrees>
              <LongitudeDegrees>-1.86256726272404193878173828125</LongitudeDegrees>
            </Position>
            <AltitudeMeters>237.1999969482421875</AltitudeMeters>
            <DistanceMeters>NAN</DistanceMeters>
          </Trackpoint>
          <Trackpoint>
            <Time>2022-07-09T06:40:26.000Z</Time>
            <Position>
              <LatitudeDegrees>43.33776625804603099822998046875</LatitudeDegrees>
              <LongitudeDegrees>-1.86260498128831386566162109375</LongitudeDegrees>
            </Position>
            <AltitudeMeters>236.399993896484375</AltitudeMeters>
            <DistanceMeters>NAN</DistanceMeters>
          </Trackpoint>
          <Trackpoint>
            <Time>2022-07-09T06:40:28.000Z</Time>
            <Position>
              <LatitudeDegrees>43.337737508118152618408203125</LatitudeDegrees>
              <LongitudeDegrees>-1.86262358911335468292236328125</LongitudeDegrees>
            </Position>
            <AltitudeMeters>236</AltitudeMeters>
            <DistanceMeters>NAN</DistanceMeters>
          </Trackpoint>
          <Trackpoint>
            <Time>2022-07-09T06:40:33.000Z</Time>
            <Position>
              <LatitudeDegrees>43.3376401104032993316650390625</LatitudeDegrees>
              <LongitudeDegrees>-1.86270170845091342926025390625</LongitudeDegrees>
            </Position>
            <AltitudeMeters>235.1999969482421875</AltitudeMeters>
            <DistanceMeters>NAN</DistanceMeters>
          </Trackpoint>
          <Trackpoint>
            <Time>2022-07-09T06:40:35.000Z</Time>
            <Position>
              <LatitudeDegrees>43.33759577013552188873291015625</LatitudeDegrees>
              <LongitudeDegrees>-1.862750239670276641845703125</LongitudeDegrees>
            </Position>
            <AltitudeMeters>235</AltitudeMeters>
            <DistanceMeters>NAN</DistanceMeters>
          </Trackpoint>
          <Trackpoint>
            <Time>2022-07-09T06:40:36.000Z</Time>
            <Position>
              <LatitudeDegrees>43.33756710402667522430419921875</LatitudeDegrees>
              <LongitudeDegrees>-1.86277312226593494415283203125</LongitudeDegrees>
            </Position>
            <AltitudeMeters>234.8000030517578125</AltitudeMeters>
            <DistanceMeters>NAN</DistanceMeters>
          </Trackpoint>
          <Trackpoint>
            <Time>2022-07-09T06:40:38.000Z</Time>
            <Position>
              <LatitudeDegrees>43.33751748315989971160888671875</LatitudeDegrees>
              <LongitudeDegrees>-1.86280648224055767059326171875</LongitudeDegrees>
            </Position>
            <AltitudeMeters>234</AltitudeMeters>
            <DistanceMeters>NAN</DistanceMeters>
          </Trackpoint>
          <Trackpoint>
            <Time>2022-07-09T06:40:39.000Z</Time>
            <Position>
              <LatitudeDegrees>43.3374956063926219940185546875</LatitudeDegrees>
              <LongitudeDegrees>-1.8628248386085033416748046875</LongitudeDegrees>
            </Position>
            <AltitudeMeters>233.600006103515625</AltitudeMeters>
            <DistanceMeters>NAN</DistanceMeters>
          </Trackpoint>
          <Trackpoint>
            <Time>2022-07-09T06:40:43.000Z</Time>
            <Position>
              <LatitudeDegrees>43.33739317953586578369140625</LatitudeDegrees>
              <LongitudeDegrees>-1.86292416416108608245849609375</LongitudeDegrees>
            </Position>
            <AltitudeMeters>232.399993896484375</AltitudeMeters>
            <DistanceMeters>NAN</DistanceMeters>
          </Trackpoint>
          <Trackpoint>
            <Time>2022-07-09T06:40:45.000Z</Time>
            <Position>
              <LatitudeDegrees>43.3373402059078216552734375</LatitudeDegrees>
              <LongitudeDegrees>-1.86297613196074962615966796875</LongitudeDegrees>
            </Position>
            <AltitudeMeters>231.600006103515625</AltitudeMeters>
            <DistanceMeters>NAN</DistanceMeters>
          </Trackpoint>
          <Trackpoint>
            <Time>2022-07-09T06:40:46.000Z</Time>
            <Position>
              <LatitudeDegrees>43.3373115397989749908447265625</LatitudeDegrees>
              <LongitudeDegrees>-1.8629991821944713592529296875</LongitudeDegrees>
            </Position>
            <AltitudeMeters>231</AltitudeMeters>
            <DistanceMeters>NAN</DistanceMeters>
          </Trackpoint>
          <Trackpoint>
            <Time>2022-07-09T06:40:48.000Z</Time>
            <Position>
              <LatitudeDegrees>43.3372599072754383087158203125</LatitudeDegrees>
              <LongitudeDegrees>-1.8630565144121646881103515625</LongitudeDegrees>
            </Position>
            <AltitudeMeters>230.600006103515625</AltitudeMeters>
            <DistanceMeters>NAN</DistanceMeters>
          </Trackpoint>
          <Trackpoint>
            <Time>2022-07-09T06:40:52.000Z</Time>
            <Position>
              <LatitudeDegrees>43.33716921508312225341796875</LatitudeDegrees>
              <LongitudeDegrees>-1.86317511834204196929931640625</LongitudeDegrees>
            </Position>
            <AltitudeMeters>230</AltitudeMeters>
            <DistanceMeters>NAN</DistanceMeters>
          </Trackpoint>
          <Trackpoint>
            <Time>2022-07-09T06:40:54.000Z</Time>
            <Position>
              <LatitudeDegrees>43.3371170796453952789306640625</LatitudeDegrees>
              <LongitudeDegrees>-1.8632258288562297821044921875</LongitudeDegrees>
            </Position>
            <AltitudeMeters>229.600006103515625</AltitudeMeters>
            <DistanceMeters>NAN</DistanceMeters>
          </Trackpoint>
          <Trackpoint>
            <Time>2022-07-09T06:40:57.000Z</Time>
            <Position>
              <LatitudeDegrees>43.33702311851084232330322265625</LatitudeDegrees>
              <LongitudeDegrees>-1.8632627092301845550537109375</LongitudeDegrees>
            </Position>
            <AltitudeMeters>228.8000030517578125</AltitudeMeters>
            <DistanceMeters>NAN</DistanceMeters>
          </Trackpoint>
          <Trackpoint>
            <Time>2022-07-09T06:41:01.000Z</Time>
            <Position>
              <LatitudeDegrees>43.33690744824707508087158203125</LatitudeDegrees>
              <LongitudeDegrees>-1.86332247219979763031005859375</LongitudeDegrees>
            </Position>
            <AltitudeMeters>227.8000030517578125</AltitudeMeters>
            <DistanceMeters>NAN</DistanceMeters>
          </Trackpoint>
          <Trackpoint>
            <Time>2022-07-09T06:41:03.000Z</Time>
            <Position>
              <LatitudeDegrees>43.33684324286878108978271484375</LatitudeDegrees>
              <LongitudeDegrees>-1.86336815357208251953125</LongitudeDegrees>
            </Position>
            <AltitudeMeters>227.600006103515625</AltitudeMeters>
            <DistanceMeters>NAN</DistanceMeters>
          </Trackpoint>
          <Trackpoint>
            <Time>2022-07-09T06:41:06.000Z</Time>
            <Position>
              <LatitudeDegrees>43.3367301709949970245361328125</LatitudeDegrees>
              <LongitudeDegrees>-1.86341634951531887054443359375</LongitudeDegrees>
            </Position>
            <AltitudeMeters>227.399993896484375</AltitudeMeters>
            <DistanceMeters>NAN</DistanceMeters>
          </Trackpoint>
          <Trackpoint>
            <Time>2022-07-09T06:41:08.000Z</Time>
            <Position>
              <LatitudeDegrees>43.33665900863707065582275390625</LatitudeDegrees>
              <LongitudeDegrees>-1.86347468756139278411865234375</LongitudeDegrees>
            </Position>
            <AltitudeMeters>227</AltitudeMeters>
            <DistanceMeters>NAN</DistanceMeters>
          </Trackpoint>
          <Trackpoint>
            <Time>2022-07-09T06:41:09.000Z</Time>
            <Position>
              <LatitudeDegrees>43.33663520403206348419189453125</LatitudeDegrees>
              <LongitudeDegrees>-1.86351793818175792694091796875</LongitudeDegrees>
            </Position>
            <AltitudeMeters>227</AltitudeMeters>
            <DistanceMeters>NAN</DistanceMeters>
          </Trackpoint>
          <Trackpoint>
            <Time>2022-07-09T06:41:11.000Z</Time>
            <Position>
              <LatitudeDegrees>43.3366034366190433502197265625</LatitudeDegrees>
              <LongitudeDegrees>-1.86363444663584232330322265625</LongitudeDegrees>
            </Position>
            <AltitudeMeters>226.600006103515625</AltitudeMeters>
            <DistanceMeters>NAN</DistanceMeters>
          </Trackpoint>
          <Trackpoint>
            <Time>2022-07-09T06:41:12.000Z</Time>
            <Position>
              <LatitudeDegrees>43.3365970663726329803466796875</LatitudeDegrees>
              <LongitudeDegrees>-1.86368138529360294342041015625</LongitudeDegrees>
            </Position>
            <AltitudeMeters>226.399993896484375</AltitudeMeters>
            <DistanceMeters>NAN</DistanceMeters>
          </Trackpoint>
          <Trackpoint>
            <Time>2022-07-09T06:41:18.000Z</Time>
            <Position>
              <LatitudeDegrees>43.336578793823719024658203125</LatitudeDegrees>
              <LongitudeDegrees>-1.8639875762164592742919921875</LongitudeDegrees>
            </Position>
            <AltitudeMeters>226</AltitudeMeters>
            <DistanceMeters>NAN</DistanceMeters>
          </Trackpoint>
          <Trackpoint>
            <Time>2022-07-09T06:41:21.000Z</Time>
            <Position>
              <LatitudeDegrees>43.3365784585475921630859375</LatitudeDegrees>
              <LongitudeDegrees>-1.86416409909725189208984375</LongitudeDegrees>
            </Position>
            <AltitudeMeters>225.8000030517578125</AltitudeMeters>
            <DistanceMeters>NAN</DistanceMeters>
          </Trackpoint>
          <Trackpoint>
            <Time>2022-07-09T06:41:24.000Z</Time>
            <Position>
              <LatitudeDegrees>43.3366017602384090423583984375</LatitudeDegrees>
              <LongitudeDegrees>-1.86430181376636028289794921875</LongitudeDegrees>
            </Position>
            <AltitudeMeters>225.600006103515625</AltitudeMeters>
            <DistanceMeters>NAN</DistanceMeters>
          </Trackpoint>
          <Trackpoint>
            <Time>2022-07-09T06:41:25.000Z</Time>
            <Position>
              <LatitudeDegrees>43.3366121537983417510986328125</LatitudeDegrees>
              <LongitudeDegrees>-1.8643485009670257568359375</LongitudeDegrees>
            </Position>
            <AltitudeMeters>225.600006103515625</AltitudeMeters>
            <DistanceMeters>NAN</DistanceMeters>
          </Trackpoint>
          <Trackpoint>
            <Time>2022-07-09T06:41:30.000Z</Time>
            <Position>
              <LatitudeDegrees>43.33668884821236133575439453125</LatitudeDegrees>
              <LongitudeDegrees>-1.8644998781383037567138671875</LongitudeDegrees>
            </Position>
            <AltitudeMeters>225</AltitudeMeters>
            <DistanceMeters>NAN</DistanceMeters>
          </Trackpoint>
          <Trackpoint>
            <Time>2022-07-09T06:41:31.000Z</Time>
            <Position>
              <LatitudeDegrees>43.3367003314197063446044921875</LatitudeDegrees>
              <LongitudeDegrees>-1.86452711932361125946044921875</LongitudeDegrees>
            </Position>
            <AltitudeMeters>224.8000030517578125</AltitudeMeters>
            <DistanceMeters>NAN</DistanceMeters>
          </Trackpoint>
          <Trackpoint>
            <Time>2022-07-09T06:41:34.000Z</Time>
            <Position>
              <LatitudeDegrees>43.33674835972487926483154296875</LatitudeDegrees>
              <LongitudeDegrees>-1.86461563222110271453857421875</LongitudeDegrees>
            </Position>
            <AltitudeMeters>224.600006103515625</AltitudeMeters>
            <DistanceMeters>NAN</DistanceMeters>
          </Trackpoint>
          <Trackpoint>
            <Time>2022-07-09T06:41:36.000Z</Time>
            <Position>
              <LatitudeDegrees>43.336780630052089691162109375</LatitudeDegrees>
              <LongitudeDegrees>-1.86467531137168407440185546875</LongitudeDegrees>
            </Position>
            <AltitudeMeters>224.399993896484375</AltitudeMeters>
            <DistanceMeters>NAN</DistanceMeters>
          </Trackpoint>
          <Trackpoint>
            <Time>2022-07-09T06:41:37.000Z</Time>
            <Position>
              <LatitudeDegrees>43.3367901854217052459716796875</LatitudeDegrees>
              <LongitudeDegrees>-1.86470615677535533905029296875</LongitudeDegrees>
            </Position>
            <AltitudeMeters>224.399993896484375</AltitudeMeters>
            <DistanceMeters>NAN</DistanceMeters>
          </Trackpoint>
          <Trackpoint>
            <Time>2022-07-09T06:41:41.000Z</Time>
            <Position>
              <LatitudeDegrees>43.3368388004601001739501953125</LatitudeDegrees>
              <LongitudeDegrees>-1.86483222059905529022216796875</LongitudeDegrees>
            </Position>
            <AltitudeMeters>224.600006103515625</AltitudeMeters>
            <DistanceMeters>NAN</DistanceMeters>
          </Trackpoint>
          <Trackpoint>
            <Time>2022-07-09T06:41:45.000Z</Time>
            <Position>
              <LatitudeDegrees>43.33687593229115009307861328125</LatitudeDegrees>
              <LongitudeDegrees>-1.86495979316532611846923828125</LongitudeDegrees>
            </Position>
            <AltitudeMeters>224.600006103515625</AltitudeMeters>
            <DistanceMeters>NAN</DistanceMeters>
          </Trackpoint>
          <Trackpoint>
            <Time>2022-07-09T06:41:46.000Z</Time>
            <Position>
              <LatitudeDegrees>43.33688079379498958587646484375</LatitudeDegrees>
              <LongitudeDegrees>-1.86498426832258701324462890625</LongitudeDegrees>
            </Position>
            <AltitudeMeters>224.600006103515625</AltitudeMeters>
            <DistanceMeters>NAN</DistanceMeters>
          </Trackpoint>
          <Trackpoint>
            <Time>2022-07-09T06:41:47.000Z</Time>
            <Position>
              <LatitudeDegrees>43.336883895099163055419921875</LatitudeDegrees>
              <LongitudeDegrees>-1.86500840820372104644775390625</LongitudeDegrees>
            </Position>
            <AltitudeMeters>224.8000030517578125</AltitudeMeters>
            <DistanceMeters>NAN</DistanceMeters>
          </Trackpoint>
          <Trackpoint>
            <Time>2022-07-09T06:41:49.000Z</Time>
            <Position>
              <LatitudeDegrees>43.336879201233386993408203125</LatitudeDegrees>
              <LongitudeDegrees>-1.86505266465246677398681640625</LongitudeDegrees>
            </Position>
            <AltitudeMeters>224.8000030517578125</AltitudeMeters>
            <DistanceMeters>NAN</DistanceMeters>
          </Trackpoint>
          <Trackpoint>
            <Time>2022-07-09T06:41:51.000Z</Time>
            <Position>
              <LatitudeDegrees>43.33687107078731060028076171875</LatitudeDegrees>
              <LongitudeDegrees>-1.865099184215068817138671875</LongitudeDegrees>
            </Position>
            <AltitudeMeters>224.8000030517578125</AltitudeMeters>
            <DistanceMeters>NAN</DistanceMeters>
          </Trackpoint>
          <Trackpoint>
            <Time>2022-07-09T06:41:53.000Z</Time>
            <Position>
              <LatitudeDegrees>43.33686855621635913848876953125</LatitudeDegrees>
              <LongitudeDegrees>-1.8651317059993743896484375</LongitudeDegrees>
            </Position>
            <AltitudeMeters>225</AltitudeMeters>
            <DistanceMeters>NAN</DistanceMeters>
          </Trackpoint>
          <Trackpoint>
            <Time>2022-07-09T06:41:55.000Z</Time>
            <Position>
              <LatitudeDegrees>43.33686084486544132232666015625</LatitudeDegrees>
              <LongitudeDegrees>-1.86516129411756992340087890625</LongitudeDegrees>
            </Position>
            <AltitudeMeters>225</AltitudeMeters>
            <DistanceMeters>NAN</DistanceMeters>
          </Trackpoint>
          <Trackpoint>
            <Time>2022-07-09T06:41:56.000Z</Time>
            <Position>
              <LatitudeDegrees>43.3368538878858089447021484375</LatitudeDegrees>
              <LongitudeDegrees>-1.8651781417429447174072265625</LongitudeDegrees>
            </Position>
            <AltitudeMeters>225.1999969482421875</AltitudeMeters>
            <DistanceMeters>NAN</DistanceMeters>
          </Trackpoint>
          <Trackpoint>
            <Time>2022-07-09T06:41:58.000Z</Time>
            <Position>
              <LatitudeDegrees>43.33684466779232025146484375</LatitudeDegrees>
              <LongitudeDegrees>-1.86518895439803600311279296875</LongitudeDegrees>
            </Position>
            <AltitudeMeters>225.399993896484375</AltitudeMeters>
            <DistanceMeters>NAN</DistanceMeters>
          </Trackpoint>
          <Trackpoint>
            <Time>2022-07-09T06:41:59.000Z</Time>
            <Position>
              <LatitudeDegrees>43.33683737553656101226806640625</LatitudeDegrees>
              <LongitudeDegrees>-1.86518660746514797210693359375</LongitudeDegrees>
            </Position>
            <AltitudeMeters>225.600006103515625</AltitudeMeters>
            <DistanceMeters>NAN</DistanceMeters>
          </Trackpoint>
          <Trackpoint>
            <Time>2022-07-09T06:42:00.000Z</Time>
            <Position>
              <LatitudeDegrees>43.33682698197662830352783203125</LatitudeDegrees>
              <LongitudeDegrees>-1.86518325470387935638427734375</LongitudeDegrees>
            </Position>
            <AltitudeMeters>225.600006103515625</AltitudeMeters>
            <DistanceMeters>NAN</DistanceMeters>
          </Trackpoint>
          <Trackpoint>
            <Time>2022-07-09T06:42:05.000Z</Time>
            <Position>
              <LatitudeDegrees>43.33681658841669559478759765625</LatitudeDegrees>
              <LongitudeDegrees>-1.86521074734628200531005859375</LongitudeDegrees>
            </Position>
            <AltitudeMeters>226</AltitudeMeters>
            <DistanceMeters>NAN</DistanceMeters>
          </Trackpoint>
          <Trackpoint>
            <Time>2022-07-09T06:42:10.000Z</Time>
            <Position>
              <LatitudeDegrees>43.33679228089749813079833984375</LatitudeDegrees>
              <LongitudeDegrees>-1.8652468733489513397216796875</LongitudeDegrees>
            </Position>
            <AltitudeMeters>226.399993896484375</AltitudeMeters>
            <DistanceMeters>NAN</DistanceMeters>
          </Trackpoint>
          <Trackpoint>
            <Time>2022-07-09T06:42:12.000Z</Time>
            <Position>
              <LatitudeDegrees>43.33677518181502819061279296875</LatitudeDegrees>
              <LongitudeDegrees>-1.86526422388851642608642578125</LongitudeDegrees>
            </Position>
            <AltitudeMeters>226.399993896484375</AltitudeMeters>
            <DistanceMeters>NAN</DistanceMeters>
          </Trackpoint>
          <Trackpoint>
            <Time>2022-07-09T06:42:14.000Z</Time>
            <Position>
              <LatitudeDegrees>43.33675506524741649627685546875</LatitudeDegrees>
              <LongitudeDegrees>-1.865296661853790283203125</LongitudeDegrees>
            </Position>
            <AltitudeMeters>226.600006103515625</AltitudeMeters>
            <DistanceMeters>NAN</DistanceMeters>
          </Trackpoint>
          <Trackpoint>
            <Time>2022-07-09T06:42:18.000Z</Time>
            <Position>
              <LatitudeDegrees>43.33671994507312774658203125</LatitudeDegrees>
              <LongitudeDegrees>-1.86540721915662288665771484375</LongitudeDegrees>
            </Position>
            <AltitudeMeters>227</AltitudeMeters>
            <DistanceMeters>NAN</DistanceMeters>
          </Trackpoint>
          <Trackpoint>
            <Time>2022-07-09T06:42:19.000Z</Time>
            <Position>
              <LatitudeDegrees>43.33670745603740215301513671875</LatitudeDegrees>
              <LongitudeDegrees>-1.86542297713458538055419921875</LongitudeDegrees>
            </Position>
            <AltitudeMeters>227</AltitudeMeters>
            <DistanceMeters>NAN</DistanceMeters>
          </Trackpoint>
          <Trackpoint>
            <Time>2022-07-09T06:42:25.000Z</Time>
            <Position>
              <LatitudeDegrees>43.33665900863707065582275390625</LatitudeDegrees>
              <LongitudeDegrees>-1.8655935488641262054443359375</LongitudeDegrees>
            </Position>
            <AltitudeMeters>227.399993896484375</AltitudeMeters>
            <DistanceMeters>NAN</DistanceMeters>
          </Trackpoint>
          <Trackpoint>
            <Time>2022-07-09T06:42:26.000Z</Time>
            <Position>
              <LatitudeDegrees>43.33664727397263050079345703125</LatitudeDegrees>
              <LongitudeDegrees>-1.86561249196529388427734375</LongitudeDegrees>
            </Position>
            <AltitudeMeters>227.399993896484375</AltitudeMeters>
            <DistanceMeters>NAN</DistanceMeters>
          </Trackpoint>
          <Trackpoint>
            <Time>2022-07-09T06:42:31.000Z</Time>
            <Position>
              <LatitudeDegrees>43.33659589290618896484375</LatitudeDegrees>
              <LongitudeDegrees>-1.86572120524942874908447265625</LongitudeDegrees>
            </Position>
            <AltitudeMeters>227.600006103515625</AltitudeMeters>
            <DistanceMeters>NAN</DistanceMeters>
          </Trackpoint>
          <Trackpoint>
            <Time>2022-07-09T06:42:33.000Z</Time>
            <Position>
              <LatitudeDegrees>43.3365776203572750091552734375</LatitudeDegrees>
              <LongitudeDegrees>-1.86575439758598804473876953125</LongitudeDegrees>
            </Position>
            <AltitudeMeters>227.8000030517578125</AltitudeMeters>
            <DistanceMeters>NAN</DistanceMeters>
          </Trackpoint>
          <Trackpoint>
            <Time>2022-07-09T06:42:40.000Z</Time>
            <Position>
              <LatitudeDegrees>43.33651148714125156402587890625</LatitudeDegrees>
              <LongitudeDegrees>-1.866004429757595062255859375</LongitudeDegrees>
            </Position>
            <AltitudeMeters>228.600006103515625</AltitudeMeters>
            <DistanceMeters>NAN</DistanceMeters>
          </Trackpoint>
          <Trackpoint>
            <Time>2022-07-09T06:42:41.000Z</Time>
            <Position>
              <LatitudeDegrees>43.336498998105525970458984375</LatitudeDegrees>
              <LongitudeDegrees>-1.866043992340564727783203125</LongitudeDegrees>
            </Position>
            <AltitudeMeters>228.600006103515625</AltitudeMeters>
            <DistanceMeters>NAN</DistanceMeters>
          </Trackpoint>
          <Trackpoint>
            <Time>2022-07-09T06:42:47.000Z</Time>
            <Position>
              <LatitudeDegrees>43.33638911135494709014892578125</LatitudeDegrees>
              <LongitudeDegrees>-1.8662314116954803466796875</LongitudeDegrees>
            </Position>
            <AltitudeMeters>228.600006103515625</AltitudeMeters>
            <DistanceMeters>NAN</DistanceMeters>
          </Trackpoint>
          <Trackpoint>
            <Time>2022-07-09T06:42:55.000Z</Time>
            <Position>
              <LatitudeDegrees>43.3363184519112110137939453125</LatitudeDegrees>
              <LongitudeDegrees>-1.8664474971592426300048828125</LongitudeDegrees>
            </Position>
            <AltitudeMeters>229</AltitudeMeters>
            <DistanceMeters>NAN</DistanceMeters>
          </Trackpoint>
          <Trackpoint>
            <Time>2022-07-09T06:43:03.000Z</Time>
            <Position>
              <LatitudeDegrees>43.33631434477865695953369140625</LatitudeDegrees>
              <LongitudeDegrees>-1.8666855432093143463134765625</LongitudeDegrees>
            </Position>
            <AltitudeMeters>229</AltitudeMeters>
            <DistanceMeters>NAN</DistanceMeters>
          </Trackpoint>
          <Trackpoint>
            <Time>2022-07-09T06:43:10.000Z</Time>
            <Position>
              <LatitudeDegrees>43.33631568588316440582275390625</LatitudeDegrees>
              <LongitudeDegrees>-1.86693876050412654876708984375</LongitudeDegrees>
            </Position>
            <AltitudeMeters>229.1999969482421875</AltitudeMeters>
            <DistanceMeters>NAN</DistanceMeters>
          </Trackpoint>
          <Trackpoint>
            <Time>2022-07-09T06:43:12.000Z</Time>
            <Position>
              <LatitudeDegrees>43.33631937392055988311767578125</LatitudeDegrees>
              <LongitudeDegrees>-1.86701118014752864837646484375</LongitudeDegrees>
            </Position>
            <AltitudeMeters>229.1999969482421875</AltitudeMeters>
            <DistanceMeters>NAN</DistanceMeters>
          </Trackpoint>
          <Trackpoint>
            <Time>2022-07-09T06:43:19.000Z</Time>
            <Position>
              <LatitudeDegrees>43.336344771087169647216796875</LatitudeDegrees>
              <LongitudeDegrees>-1.8672337196767330169677734375</LongitudeDegrees>
            </Position>
            <AltitudeMeters>229.600006103515625</AltitudeMeters>
            <DistanceMeters>NAN</DistanceMeters>
          </Trackpoint>
          <Trackpoint>
            <Time>2022-07-09T06:43:28.000Z</Time>
            <Position>
              <LatitudeDegrees>43.336397074162960052490234375</LatitudeDegrees>
              <LongitudeDegrees>-1.86753588728606700897216796875</LongitudeDegrees>
            </Position>
            <AltitudeMeters>229.600006103515625</AltitudeMeters>
            <DistanceMeters>NAN</DistanceMeters>
          </Trackpoint>
          <Trackpoint>
            <Time>2022-07-09T06:43:33.000Z</Time>
            <Position>
              <LatitudeDegrees>43.33635105751454830169677734375</LatitudeDegrees>
              <LongitudeDegrees>-1.86768508516252040863037109375</LongitudeDegrees>
            </Position>
            <AltitudeMeters>229.600006103515625</AltitudeMeters>
            <DistanceMeters>NAN</DistanceMeters>
          </Trackpoint>
          <Trackpoint>
            <Time>2022-07-09T06:43:38.000Z</Time>
            <Position>
              <LatitudeDegrees>43.33631099201738834381103515625</LatitudeDegrees>
              <LongitudeDegrees>-1.86783201992511749267578125</LongitudeDegrees>
            </Position>
            <AltitudeMeters>229.8000030517578125</AltitudeMeters>
            <DistanceMeters>NAN</DistanceMeters>
          </Trackpoint>
          <Trackpoint>
            <Time>2022-07-09T06:43:39.000Z</Time>
            <Position>
              <LatitudeDegrees>43.336305208504199981689453125</LatitudeDegrees>
              <LongitudeDegrees>-1.8678593449294567108154296875</LongitudeDegrees>
            </Position>
            <AltitudeMeters>230</AltitudeMeters>
            <DistanceMeters>NAN</DistanceMeters>
          </Trackpoint>
          <Trackpoint>
            <Time>2022-07-09T06:43:40.000Z</Time>
            <Position>
              <LatitudeDegrees>43.33629623986780643463134765625</LatitudeDegrees>
              <LongitudeDegrees>-1.86788809485733509063720703125</LongitudeDegrees>
            </Position>
            <AltitudeMeters>230</AltitudeMeters>
            <DistanceMeters>NAN</DistanceMeters>
          </Trackpoint>
          <Trackpoint>
            <Time>2022-07-09T06:43:46.000Z</Time>
            <Position>
              <LatitudeDegrees>43.336265981197357177734375</LatitudeDegrees>
              <LongitudeDegrees>-1.86805774457752704620361328125</LongitudeDegrees>
            </Position>
            <AltitudeMeters>230.600006103515625</AltitudeMeters>
            <DistanceMeters>NAN</DistanceMeters>
          </Trackpoint>
          <Trackpoint>
            <Time>2022-07-09T06:43:50.000Z</Time>
            <Position>
              <LatitudeDegrees>43.3362510614097118377685546875</LatitudeDegrees>
              <LongitudeDegrees>-1.868150532245635986328125</LongitudeDegrees>
            </Position>
            <AltitudeMeters>230.8000030517578125</AltitudeMeters>
            <DistanceMeters>NAN</DistanceMeters>
          </Trackpoint>
          <Trackpoint>
            <Time>2022-07-09T06:43:51.000Z</Time>
            <Position>
              <LatitudeDegrees>43.33624594844877719879150390625</LatitudeDegrees>
              <LongitudeDegrees>-1.8681714870035648345947265625</LongitudeDegrees>
            </Position>
            <AltitudeMeters>230.8000030517578125</AltitudeMeters>
            <DistanceMeters>NAN</DistanceMeters>
          </Trackpoint>
          <Trackpoint>
            <Time>2022-07-09T06:43:58.000Z</Time>
            <Position>
              <LatitudeDegrees>43.3362198807299137115478515625</LatitudeDegrees>
              <LongitudeDegrees>-1.86834004707634449005126953125</LongitudeDegrees>
            </Position>
            <AltitudeMeters>231.1999969482421875</AltitudeMeters>
            <DistanceMeters>NAN</DistanceMeters>
          </Trackpoint>
          <Trackpoint>
            <Time>2022-07-09T06:44:01.000Z</Time>
            <Position>
              <LatitudeDegrees>43.33621962927281856536865234375</LatitudeDegrees>
              <LongitudeDegrees>-1.8684045039117336273193359375</LongitudeDegrees>
            </Position>
            <AltitudeMeters>231.600006103515625</AltitudeMeters>
            <DistanceMeters>NAN</DistanceMeters>
          </Trackpoint>
          <Trackpoint>
            <Time>2022-07-09T06:44:02.000Z</Time>
            <Position>
              <LatitudeDegrees>43.3362165279686450958251953125</LatitudeDegrees>
              <LongitudeDegrees>-1.868421770632266998291015625</LongitudeDegrees>
            </Position>
            <AltitudeMeters>231.8000030517578125</AltitudeMeters>
            <DistanceMeters>NAN</DistanceMeters>
          </Trackpoint>
          <Trackpoint>
            <Time>2022-07-09T06:44:04.000Z</Time>
            <Position>
              <LatitudeDegrees>43.3362051285803318023681640625</LatitudeDegrees>
              <LongitudeDegrees>-1.86846996657550334930419921875</LongitudeDegrees>
            </Position>
            <AltitudeMeters>232</AltitudeMeters>
            <DistanceMeters>NAN</DistanceMeters>
          </Trackpoint>
          <Trackpoint>
            <Time>2022-07-09T06:44:09.000Z</Time>
            <Position>
              <LatitudeDegrees>43.336179144680500030517578125</LatitudeDegrees>
              <LongitudeDegrees>-1.8685959465801715850830078125</LongitudeDegrees>
            </Position>
            <AltitudeMeters>232.399993896484375</AltitudeMeters>
            <DistanceMeters>NAN</DistanceMeters>
          </Trackpoint>
          <Trackpoint>
            <Time>2022-07-09T06:44:11.000Z</Time>
            <Position>
              <LatitudeDegrees>43.33617101423442363739013671875</LatitudeDegrees>
              <LongitudeDegrees>-1.86863760463893413543701171875</LongitudeDegrees>
            </Position>
            <AltitudeMeters>232.600006103515625</AltitudeMeters>
            <DistanceMeters>NAN</DistanceMeters>
          </Trackpoint>
          <Trackpoint>
            <Time>2022-07-09T06:44:13.000Z</Time>
            <Position>
              <LatitudeDegrees>43.336164057254791259765625</LatitudeDegrees>
              <LongitudeDegrees>-1.868687979876995086669921875</LongitudeDegrees>
            </Position>
            <AltitudeMeters>232.8000030517578125</AltitudeMeters>
            <DistanceMeters>NAN</DistanceMeters>
          </Trackpoint>
          <Trackpoint>
            <Time>2022-07-09T06:44:14.000Z</Time>
            <Position>
              <LatitudeDegrees>43.336161039769649505615234375</LatitudeDegrees>
              <LongitudeDegrees>-1.868706084787845611572265625</LongitudeDegrees>
            </Position>
            <AltitudeMeters>232.8000030517578125</AltitudeMeters>
            <DistanceMeters>NAN</DistanceMeters>
          </Trackpoint>
          <Trackpoint>
            <Time>2022-07-09T06:44:21.000Z</Time>
            <Position>
              <LatitudeDegrees>43.3361072279512882232666015625</LatitudeDegrees>
              <LongitudeDegrees>-1.8688413687050342559814453125</LongitudeDegrees>
            </Position>
            <AltitudeMeters>233.600006103515625</AltitudeMeters>
            <DistanceMeters>NAN</DistanceMeters>
          </Trackpoint>
          <Trackpoint>
            <Time>2022-07-09T06:44:22.000Z</Time>
            <Position>
              <LatitudeDegrees>43.33609406836330890655517578125</LatitudeDegrees>
              <LongitudeDegrees>-1.8688450567424297332763671875</LongitudeDegrees>
            </Position>
            <AltitudeMeters>233.600006103515625</AltitudeMeters>
            <DistanceMeters>NAN</DistanceMeters>
          </Trackpoint>
          <Trackpoint>
            <Time>2022-07-09T06:44:23.000Z</Time>
            <Position>
              <LatitudeDegrees>43.336086273193359375</LatitudeDegrees>
              <LongitudeDegrees>-1.86885436065495014190673828125</LongitudeDegrees>
            </Position>
            <AltitudeMeters>233.600006103515625</AltitudeMeters>
            <DistanceMeters>NAN</DistanceMeters>
          </Trackpoint>
          <Trackpoint>
            <Time>2022-07-09T06:44:25.000Z</Time>
            <Position>
              <LatitudeDegrees>43.3360696770250797271728515625</LatitudeDegrees>
              <LongitudeDegrees>-1.8688651733100414276123046875</LongitudeDegrees>
            </Position>
            <AltitudeMeters>234</AltitudeMeters>
            <DistanceMeters>NAN</DistanceMeters>
          </Trackpoint>
          <Trackpoint>
            <Time>2022-07-09T06:44:28.000Z</Time>
            <Position>
              <LatitudeDegrees>43.33604545332491397857666015625</LatitudeDegrees>
              <LongitudeDegrees>-1.86892476864159107208251953125</LongitudeDegrees>
            </Position>
            <AltitudeMeters>234.600006103515625</AltitudeMeters>
            <DistanceMeters>NAN</DistanceMeters>
          </Trackpoint>
          <Trackpoint>
            <Time>2022-07-09T06:44:30.000Z</Time>
            <Position>
              <LatitudeDegrees>43.33601586520671844482421875</LatitudeDegrees>
              <LongitudeDegrees>-1.868970952928066253662109375</LongitudeDegrees>
            </Position>
            <AltitudeMeters>234.8000030517578125</AltitudeMeters>
            <DistanceMeters>NAN</DistanceMeters>
          </Trackpoint>
          <Trackpoint>
            <Time>2022-07-09T06:44:33.000Z</Time>
            <Position>
              <LatitudeDegrees>43.33599415607750415802001953125</LatitudeDegrees>
              <LongitudeDegrees>-1.869027279317378997802734375</LongitudeDegrees>
            </Position>
            <AltitudeMeters>235</AltitudeMeters>
            <DistanceMeters>NAN</DistanceMeters>
          </Trackpoint>
          <Trackpoint>
            <Time>2022-07-09T06:44:36.000Z</Time>
            <Position>
              <LatitudeDegrees>43.3359657414257526397705078125</LatitudeDegrees>
              <LongitudeDegrees>-1.8690814264118671417236328125</LongitudeDegrees>
            </Position>
            <AltitudeMeters>235.600006103515625</AltitudeMeters>
            <DistanceMeters>NAN</DistanceMeters>
          </Trackpoint>
          <Trackpoint>
            <Time>2022-07-09T06:44:39.000Z</Time>
            <Position>
              <LatitudeDegrees>43.33593665622174739837646484375</LatitudeDegrees>
              <LongitudeDegrees>-1.86912626959383487701416015625</LongitudeDegrees>
            </Position>
            <AltitudeMeters>235.8000030517578125</AltitudeMeters>
            <DistanceMeters>NAN</DistanceMeters>
          </Trackpoint>
          <Trackpoint>
            <Time>2022-07-09T06:44:42.000Z</Time>
            <Position>
              <LatitudeDegrees>43.33590698428452014923095703125</LatitudeDegrees>
              <LongitudeDegrees>-1.869174800813198089599609375</LongitudeDegrees>
            </Position>
            <AltitudeMeters>236.1999969482421875</AltitudeMeters>
            <DistanceMeters>NAN</DistanceMeters>
          </Trackpoint>
          <Trackpoint>
            <Time>2022-07-09T06:44:51.000Z</Time>
            <Position>
              <LatitudeDegrees>43.33582467399537563323974609375</LatitudeDegrees>
              <LongitudeDegrees>-1.86931653879582881927490234375</LongitudeDegrees>
            </Position>
            <AltitudeMeters>237</AltitudeMeters>
            <DistanceMeters>NAN</DistanceMeters>
          </Trackpoint>
          <Trackpoint>
            <Time>2022-07-09T06:44:54.000Z</Time>
            <Position>
              <LatitudeDegrees>43.33579500205814838409423828125</LatitudeDegrees>
              <LongitudeDegrees>-1.869353167712688446044921875</LongitudeDegrees>
            </Position>
            <AltitudeMeters>237.1999969482421875</AltitudeMeters>
            <DistanceMeters>NAN</DistanceMeters>
          </Trackpoint>
          <Trackpoint>
            <Time>2022-07-09T06:44:59.000Z</Time>
            <Position>
              <LatitudeDegrees>43.33575108088552951812744140625</LatitudeDegrees>
              <LongitudeDegrees>-1.869438998401165008544921875</LongitudeDegrees>
            </Position>
            <AltitudeMeters>237.600006103515625</AltitudeMeters>
            <DistanceMeters>NAN</DistanceMeters>
          </Trackpoint>
          <Trackpoint>
            <Time>2022-07-09T06:45:05.000Z</Time>
            <Position>
              <LatitudeDegrees>43.33572425879538059234619140625</LatitudeDegrees>
              <LongitudeDegrees>-1.8695417605340480804443359375</LongitudeDegrees>
            </Position>
            <AltitudeMeters>238.1999969482421875</AltitudeMeters>
            <DistanceMeters>NAN</DistanceMeters>
          </Trackpoint>
          <Trackpoint>
            <Time>2022-07-09T06:45:09.000Z</Time>
            <Position>
              <LatitudeDegrees>43.33570196293294429779052734375</LatitudeDegrees>
              <LongitudeDegrees>-1.86961946077644824981689453125</LongitudeDegrees>
            </Position>
            <AltitudeMeters>238.600006103515625</AltitudeMeters>
            <DistanceMeters>NAN</DistanceMeters>
          </Trackpoint>
          <Trackpoint>
            <Time>2022-07-09T06:45:17.000Z</Time>
            <Position>
              <LatitudeDegrees>43.335659466683864593505859375</LatitudeDegrees>
              <LongitudeDegrees>-1.8697719275951385498046875</LongitudeDegrees>
            </Position>
            <AltitudeMeters>239.1999969482421875</AltitudeMeters>
            <DistanceMeters>NAN</DistanceMeters>
          </Trackpoint>
          <Trackpoint>
            <Time>2022-07-09T06:45:18.000Z</Time>
            <Position>
              <LatitudeDegrees>43.33564982749521732330322265625</LatitudeDegrees>
              <LongitudeDegrees>-1.869787685573101043701171875</LongitudeDegrees>
            </Position>
            <AltitudeMeters>239.1999969482421875</AltitudeMeters>
            <DistanceMeters>NAN</DistanceMeters>
          </Trackpoint>
          <Trackpoint>
            <Time>2022-07-09T06:45:19.000Z</Time>
            <Position>
              <LatitudeDegrees>43.33564345724880695343017578125</LatitudeDegrees>
              <LongitudeDegrees>-1.86980344355106353759765625</LongitudeDegrees>
            </Position>
            <AltitudeMeters>239.1999969482421875</AltitudeMeters>
            <DistanceMeters>NAN</DistanceMeters>
          </Trackpoint>
          <Trackpoint>
            <Time>2022-07-09T06:45:21.000Z</Time>
            <Position>
              <LatitudeDegrees>43.335640020668506622314453125</LatitudeDegrees>
              <LongitudeDegrees>-1.86983688734471797943115234375</LongitudeDegrees>
            </Position>
            <AltitudeMeters>239.399993896484375</AltitudeMeters>
            <DistanceMeters>NAN</DistanceMeters>
          </Trackpoint>
          <Trackpoint>
            <Time>2022-07-09T06:45:22.000Z</Time>
            <Position>
              <LatitudeDegrees>43.335632979869842529296875</LatitudeDegrees>
              <LongitudeDegrees>-1.8698528967797756195068359375</LongitudeDegrees>
            </Position>
            <AltitudeMeters>239.600006103515625</AltitudeMeters>
            <DistanceMeters>NAN</DistanceMeters>
          </Trackpoint>
          <Trackpoint>
            <Time>2022-07-09T06:45:30.000Z</Time>
            <Position>
              <LatitudeDegrees>43.33560422994196414947509765625</LatitudeDegrees>
              <LongitudeDegrees>-1.869989521801471710205078125</LongitudeDegrees>
            </Position>
            <AltitudeMeters>240.1999969482421875</AltitudeMeters>
            <DistanceMeters>NAN</DistanceMeters>
          </Trackpoint>
          <Trackpoint>
            <Time>2022-07-09T06:45:32.000Z</Time>
            <Position>
              <LatitudeDegrees>43.33560422994196414947509765625</LatitudeDegrees>
              <LongitudeDegrees>-1.87002648599445819854736328125</LongitudeDegrees>
            </Position>
            <AltitudeMeters>240.399993896484375</AltitudeMeters>
            <DistanceMeters>NAN</DistanceMeters>
          </Trackpoint>
          <Trackpoint>
            <Time>2022-07-09T06:45:37.000Z</Time>
            <Position>
              <LatitudeDegrees>43.3355966024100780487060546875</LatitudeDegrees>
              <LongitudeDegrees>-1.87012530863285064697265625</LongitudeDegrees>
            </Position>
            <AltitudeMeters>240.8000030517578125</AltitudeMeters>
            <DistanceMeters>NAN</DistanceMeters>
          </Trackpoint>
          <Trackpoint>
            <Time>2022-07-09T06:45:38.000Z</Time>
            <Position>
              <LatitudeDegrees>43.33559584803879261016845703125</LatitudeDegrees>
              <LongitudeDegrees>-1.8701462633907794952392578125</LongitudeDegrees>
            </Position>
            <AltitudeMeters>240.8000030517578125</AltitudeMeters>
            <DistanceMeters>NAN</DistanceMeters>
          </Trackpoint>
          <Trackpoint>
            <Time>2022-07-09T06:45:44.000Z</Time>
            <Position>
              <LatitudeDegrees>43.335617892444133758544921875</LatitudeDegrees>
              <LongitudeDegrees>-1.87024693004786968231201171875</LongitudeDegrees>
            </Position>
            <AltitudeMeters>241.399993896484375</AltitudeMeters>
            <DistanceMeters>NAN</DistanceMeters>
          </Trackpoint>
          <Trackpoint>
            <Time>2022-07-09T06:45:47.000Z</Time>
            <Position>
              <LatitudeDegrees>43.3356318064033985137939453125</LatitudeDegrees>
              <LongitudeDegrees>-1.870296634733676910400390625</LongitudeDegrees>
            </Position>
            <AltitudeMeters>241.600006103515625</AltitudeMeters>
            <DistanceMeters>NAN</DistanceMeters>
          </Trackpoint>
          <Trackpoint>
            <Time>2022-07-09T06:45:50.000Z</Time>
            <Position>
              <LatitudeDegrees>43.33563876338303089141845703125</LatitudeDegrees>
              <LongitudeDegrees>-1.87034114263951778411865234375</LongitudeDegrees>
            </Position>
            <AltitudeMeters>242</AltitudeMeters>
            <DistanceMeters>NAN</DistanceMeters>
          </Trackpoint>
          <Trackpoint>
            <Time>2022-07-09T06:45:55.000Z</Time>
            <Position>
              <LatitudeDegrees>43.3356368355453014373779296875</LatitudeDegrees>
              <LongitudeDegrees>-1.8704255484044551849365234375</LongitudeDegrees>
            </Position>
            <AltitudeMeters>242.399993896484375</AltitudeMeters>
            <DistanceMeters>NAN</DistanceMeters>
          </Trackpoint>
          <Trackpoint>
            <Time>2022-07-09T06:45:56.000Z</Time>
            <Position>
              <LatitudeDegrees>43.3356344886124134063720703125</LatitudeDegrees>
              <LongitudeDegrees>-1.8704352714121341705322265625</LongitudeDegrees>
            </Position>
            <AltitudeMeters>242.399993896484375</AltitudeMeters>
            <DistanceMeters>NAN</DistanceMeters>
          </Trackpoint>
          <Trackpoint>
            <Time>2022-07-09T06:46:01.000Z</Time>
            <Position>
              <LatitudeDegrees>43.33562769927084445953369140625</LatitudeDegrees>
              <LongitudeDegrees>-1.87046594917774200439453125</LongitudeDegrees>
            </Position>
            <AltitudeMeters>242.8000030517578125</AltitudeMeters>
            <DistanceMeters>NAN</DistanceMeters>
          </Trackpoint>
          <Trackpoint>
            <Time>2022-07-09T06:46:06.000Z</Time>
            <Position>
              <LatitudeDegrees>43.3356435410678386688232421875</LatitudeDegrees>
              <LongitudeDegrees>-1.870475672185420989990234375</LongitudeDegrees>
            </Position>
            <AltitudeMeters>242.8000030517578125</AltitudeMeters>
            <DistanceMeters>NAN</DistanceMeters>
          </Trackpoint>
          <Trackpoint>
            <Time>2022-07-09T06:46:07.000Z</Time>
            <Position>
              <LatitudeDegrees>43.335642032325267791748046875</LatitudeDegrees>
              <LongitudeDegrees>-1.87047692947089672088623046875</LongitudeDegrees>
            </Position>
            <AltitudeMeters>242.8000030517578125</AltitudeMeters>
            <DistanceMeters>NAN</DistanceMeters>
          </Trackpoint>
          <Trackpoint>
            <Time>2022-07-09T06:48:24.000Z</Time>
            <Position>
              <LatitudeDegrees>43.33554622717201709747314453125</LatitudeDegrees>
              <LongitudeDegrees>-1.87151913531124591827392578125</LongitudeDegrees>
            </Position>
            <AltitudeMeters>247</AltitudeMeters>
            <DistanceMeters>NAN</DistanceMeters>
          </Trackpoint>
          <Trackpoint>
            <Time>2022-07-09T06:48:26.000Z</Time>
            <Position>
              <LatitudeDegrees>43.33555628545582294464111328125</LatitudeDegrees>
              <LongitudeDegrees>-1.8715457059442996978759765625</LongitudeDegrees>
            </Position>
            <AltitudeMeters>247.1999969482421875</AltitudeMeters>
            <DistanceMeters>NAN</DistanceMeters>
          </Trackpoint>
          <Trackpoint>
            <Time>2022-07-09T06:48:34.000Z</Time>
            <Position>
              <LatitudeDegrees>43.3355432935059070587158203125</LatitudeDegrees>
              <LongitudeDegrees>-1.8716955743730068206787109375</LongitudeDegrees>
            </Position>
            <AltitudeMeters>248</AltitudeMeters>
            <DistanceMeters>NAN</DistanceMeters>
          </Trackpoint>
          <Trackpoint>
            <Time>2022-07-09T06:48:36.000Z</Time>
            <Position>
              <LatitudeDegrees>43.33553650416433811187744140625</LatitudeDegrees>
              <LongitudeDegrees>-1.87174494378268718719482421875</LongitudeDegrees>
            </Position>
            <AltitudeMeters>248.1999969482421875</AltitudeMeters>
            <DistanceMeters>NAN</DistanceMeters>
          </Trackpoint>
          <Trackpoint>
            <Time>2022-07-09T06:48:37.000Z</Time>
            <Position>
              <LatitudeDegrees>43.33553717471659183502197265625</LatitudeDegrees>
              <LongitudeDegrees>-1.8717634677886962890625</LongitudeDegrees>
            </Position>
            <AltitudeMeters>248.1999969482421875</AltitudeMeters>
            <DistanceMeters>NAN</DistanceMeters>
          </Trackpoint>
          <Trackpoint>
            <Time>2022-07-09T06:48:43.000Z</Time>
            <Position>
              <LatitudeDegrees>43.33554002456367015838623046875</LatitudeDegrees>
              <LongitudeDegrees>-1.8718813173472881317138671875</LongitudeDegrees>
            </Position>
            <AltitudeMeters>248.8000030517578125</AltitudeMeters>
            <DistanceMeters>NAN</DistanceMeters>
          </Trackpoint>
          <Trackpoint>
            <Time>2022-07-09T06:48:48.000Z</Time>
            <Position>
              <LatitudeDegrees>43.3355583809316158294677734375</LatitudeDegrees>
              <LongitudeDegrees>-1.87195968814194202423095703125</LongitudeDegrees>
            </Position>
            <AltitudeMeters>249.1999969482421875</AltitudeMeters>
            <DistanceMeters>NAN</DistanceMeters>
          </Trackpoint>
          <Trackpoint>
            <Time>2022-07-09T06:48:53.000Z</Time>
            <Position>
              <LatitudeDegrees>43.3355721272528171539306640625</LatitudeDegrees>
              <LongitudeDegrees>-1.87204300425946712493896484375</LongitudeDegrees>
            </Position>
            <AltitudeMeters>249.600006103515625</AltitudeMeters>
            <DistanceMeters>NAN</DistanceMeters>
          </Trackpoint>
          <Trackpoint>
            <Time>2022-07-09T06:49:01.000Z</Time>
            <Position>
              <LatitudeDegrees>43.335583023726940155029296875</LatitudeDegrees>
              <LongitudeDegrees>-1.8721773661673069000244140625</LongitudeDegrees>
            </Position>
            <AltitudeMeters>250.1999969482421875</AltitudeMeters>
            <DistanceMeters>NAN</DistanceMeters>
          </Trackpoint>
          <Trackpoint>
            <Time>2022-07-09T06:49:04.000Z</Time>
            <Position>
              <LatitudeDegrees>43.33559048362076282501220703125</LatitudeDegrees>
              <LongitudeDegrees>-1.87222505919635295867919921875</LongitudeDegrees>
            </Position>
            <AltitudeMeters>250.600006103515625</AltitudeMeters>
            <DistanceMeters>NAN</DistanceMeters>
          </Trackpoint>
          <Trackpoint>
            <Time>2022-07-09T06:49:07.000Z</Time>
            <Position>
              <LatitudeDegrees>43.33560741506516933441162109375</LatitudeDegrees>
              <LongitudeDegrees>-1.87227099202573299407958984375</LongitudeDegrees>
            </Position>
            <AltitudeMeters>251</AltitudeMeters>
            <DistanceMeters>NAN</DistanceMeters>
          </Trackpoint>
          <Trackpoint>
            <Time>2022-07-09T06:49:09.000Z</Time>
            <Position>
              <LatitudeDegrees>43.335632644593715667724609375</LatitudeDegrees>
              <LongitudeDegrees>-1.8722930364310741424560546875</LongitudeDegrees>
            </Position>
            <AltitudeMeters>251.1999969482421875</AltitudeMeters>
            <DistanceMeters>NAN</DistanceMeters>
          </Trackpoint>
          <Trackpoint>
            <Time>2022-07-09T06:49:10.000Z</Time>
            <Position>
              <LatitudeDegrees>43.33564043976366519927978515625</LatitudeDegrees>
              <LongitudeDegrees>-1.87230451963841915130615234375</LongitudeDegrees>
            </Position>
            <AltitudeMeters>251.1999969482421875</AltitudeMeters>
            <DistanceMeters>NAN</DistanceMeters>
          </Trackpoint>
          <Trackpoint>
            <Time>2022-07-09T06:49:13.000Z</Time>
            <Position>
              <LatitudeDegrees>43.33566181361675262451171875</LatitudeDegrees>
              <LongitudeDegrees>-1.87234056182205677032470703125</LongitudeDegrees>
            </Position>
            <AltitudeMeters>251.399993896484375</AltitudeMeters>
            <DistanceMeters>NAN</DistanceMeters>
          </Trackpoint>
          <Trackpoint>
            <Time>2022-07-09T06:49:15.000Z</Time>
            <Position>
              <LatitudeDegrees>43.3356643281877040863037109375</LatitudeDegrees>
              <LongitudeDegrees>-1.87237610109150409698486328125</LongitudeDegrees>
            </Position>
            <AltitudeMeters>251.600006103515625</AltitudeMeters>
            <DistanceMeters>NAN</DistanceMeters>
          </Trackpoint>
          <Trackpoint>
            <Time>2022-07-09T06:49:20.000Z</Time>
            <Position>
              <LatitudeDegrees>43.33567279390990734100341796875</LatitudeDegrees>
              <LongitudeDegrees>-1.87246059067547321319580078125</LongitudeDegrees>
            </Position>
            <AltitudeMeters>252.1999969482421875</AltitudeMeters>
            <DistanceMeters>NAN</DistanceMeters>
          </Trackpoint>
          <Trackpoint>
            <Time>2022-07-09T06:49:22.000Z</Time>
            <Position>
              <LatitudeDegrees>43.3356799185276031494140625</LatitudeDegrees>
              <LongitudeDegrees>-1.872490681707859039306640625</LongitudeDegrees>
            </Position>
            <AltitudeMeters>252.399993896484375</AltitudeMeters>
            <DistanceMeters>NAN</DistanceMeters>
          </Trackpoint>
          <Trackpoint>
            <Time>2022-07-09T06:49:30.000Z</Time>
            <Position>
              <LatitudeDegrees>43.3357012085616588592529296875</LatitudeDegrees>
              <LongitudeDegrees>-1.87258489429950714111328125</LongitudeDegrees>
            </Position>
            <AltitudeMeters>253.1999969482421875</AltitudeMeters>
            <DistanceMeters>NAN</DistanceMeters>
          </Trackpoint>
          <Trackpoint>
            <Time>2022-07-09T06:49:31.000Z</Time>
            <Position>
              <LatitudeDegrees>43.33569961600005626678466796875</LatitudeDegrees>
              <LongitudeDegrees>-1.872596628963947296142578125</LongitudeDegrees>
            </Position>
            <AltitudeMeters>253.1999969482421875</AltitudeMeters>
            <DistanceMeters>NAN</DistanceMeters>
          </Trackpoint>
          <Trackpoint>
            <Time>2022-07-09T06:49:34.000Z</Time>
            <Position>
              <LatitudeDegrees>43.33569274283945560455322265625</LatitudeDegrees>
              <LongitudeDegrees>-1.87263241969048976898193359375</LongitudeDegrees>
            </Position>
            <AltitudeMeters>253.399993896484375</AltitudeMeters>
            <DistanceMeters>NAN</DistanceMeters>
          </Trackpoint>
          <Trackpoint>
            <Time>2022-07-09T06:49:35.000Z</Time>
            <Position>
              <LatitudeDegrees>43.335691988468170166015625</LatitudeDegrees>
              <LongitudeDegrees>-1.872645914554595947265625</LongitudeDegrees>
            </Position>
            <AltitudeMeters>253.399993896484375</AltitudeMeters>
            <DistanceMeters>NAN</DistanceMeters>
          </Trackpoint>
          <Trackpoint>
            <Time>2022-07-09T06:49:39.000Z</Time>
            <Position>
              <LatitudeDegrees>43.33568394184112548828125</LatitudeDegrees>
              <LongitudeDegrees>-1.872680447995662689208984375</LongitudeDegrees>
            </Position>
            <AltitudeMeters>253.8000030517578125</AltitudeMeters>
            <DistanceMeters>NAN</DistanceMeters>
          </Trackpoint>
          <Trackpoint>
            <Time>2022-07-09T06:49:40.000Z</Time>
            <Position>
              <LatitudeDegrees>43.335675895214080810546875</LatitudeDegrees>
              <LongitudeDegrees>-1.87268371693789958953857421875</LongitudeDegrees>
            </Position>
            <AltitudeMeters>253.8000030517578125</AltitudeMeters>
            <DistanceMeters>NAN</DistanceMeters>
          </Trackpoint>
          <Trackpoint>
            <Time>2022-07-09T06:49:44.000Z</Time>
            <Position>
              <LatitudeDegrees>43.335654102265834808349609375</LatitudeDegrees>
              <LongitudeDegrees>-1.87275278382003307342529296875</LongitudeDegrees>
            </Position>
            <AltitudeMeters>254</AltitudeMeters>
            <DistanceMeters>NAN</DistanceMeters>
          </Trackpoint>
          <Trackpoint>
            <Time>2022-07-09T06:49:45.000Z</Time>
            <Position>
              <LatitudeDegrees>43.33564127795398235321044921875</LatitudeDegrees>
              <LongitudeDegrees>-1.87276250682771205902099609375</LongitudeDegrees>
            </Position>
            <AltitudeMeters>254</AltitudeMeters>
            <DistanceMeters>NAN</DistanceMeters>
          </Trackpoint>
          <Trackpoint>
            <Time>2022-07-09T06:49:48.000Z</Time>
            <Position>
              <LatitudeDegrees>43.33561755716800689697265625</LatitudeDegrees>
              <LongitudeDegrees>-1.87279653735458850860595703125</LongitudeDegrees>
            </Position>
            <AltitudeMeters>254.1999969482421875</AltitudeMeters>
            <DistanceMeters>NAN</DistanceMeters>
          </Trackpoint>
          <Trackpoint>
            <Time>2022-07-09T06:49:50.000Z</Time>
            <Position>
              <LatitudeDegrees>43.3355976082384586334228515625</LatitudeDegrees>
              <LongitudeDegrees>-1.872824616730213165283203125</LongitudeDegrees>
            </Position>
            <AltitudeMeters>254.399993896484375</AltitudeMeters>
            <DistanceMeters>NAN</DistanceMeters>
          </Trackpoint>
          <Trackpoint>
            <Time>2022-07-09T06:49:51.000Z</Time>
            <Position>
              <LatitudeDegrees>43.33558931015431880950927734375</LatitudeDegrees>
              <LongitudeDegrees>-1.87283098697662353515625</LongitudeDegrees>
            </Position>
            <AltitudeMeters>254.600006103515625</AltitudeMeters>
            <DistanceMeters>NAN</DistanceMeters>
          </Trackpoint>
          <Trackpoint>
            <Time>2022-07-09T06:49:59.000Z</Time>
            <Position>
              <LatitudeDegrees>43.33551102317869663238525390625</LatitudeDegrees>
              <LongitudeDegrees>-1.87294774688780307769775390625</LongitudeDegrees>
            </Position>
            <AltitudeMeters>255.1999969482421875</AltitudeMeters>
            <DistanceMeters>NAN</DistanceMeters>
          </Trackpoint>
          <Trackpoint>
            <Time>2022-07-09T06:50:00.000Z</Time>
            <Position>
              <LatitudeDegrees>43.33549928851425647735595703125</LatitudeDegrees>
              <LongitudeDegrees>-1.87296015210449695587158203125</LongitudeDegrees>
            </Position>
            <AltitudeMeters>255.1999969482421875</AltitudeMeters>
            <DistanceMeters>NAN</DistanceMeters>
          </Trackpoint>
          <Trackpoint>
            <Time>2022-07-09T06:50:04.000Z</Time>
            <Position>
              <LatitudeDegrees>43.33546089939773082733154296875</LatitudeDegrees>
              <LongitudeDegrees>-1.87302217818796634674072265625</LongitudeDegrees>
            </Position>
            <AltitudeMeters>255.8000030517578125</AltitudeMeters>
            <DistanceMeters>NAN</DistanceMeters>
          </Trackpoint>
          <Trackpoint>
            <Time>2022-07-09T06:50:05.000Z</Time>
            <Position>
              <LatitudeDegrees>43.3354497514665126800537109375</LatitudeDegrees>
              <LongitudeDegrees>-1.873039864003658294677734375</LongitudeDegrees>
            </Position>
            <AltitudeMeters>255.8000030517578125</AltitudeMeters>
            <DistanceMeters>NAN</DistanceMeters>
          </Trackpoint>
          <Trackpoint>
            <Time>2022-07-09T06:50:09.000Z</Time>
            <Position>
              <LatitudeDegrees>43.3354098536074161529541015625</LatitudeDegrees>
              <LongitudeDegrees>-1.873101554811000823974609375</LongitudeDegrees>
            </Position>
            <AltitudeMeters>256.399993896484375</AltitudeMeters>
            <DistanceMeters>NAN</DistanceMeters>
          </Trackpoint>
          <Trackpoint>
            <Time>2022-07-09T06:50:12.000Z</Time>
            <Position>
              <LatitudeDegrees>43.33536651916801929473876953125</LatitudeDegrees>
              <LongitudeDegrees>-1.87309795059263706207275390625</LongitudeDegrees>
            </Position>
            <AltitudeMeters>256.399993896484375</AltitudeMeters>
            <DistanceMeters>NAN</DistanceMeters>
          </Trackpoint>
          <Trackpoint>
            <Time>2022-07-09T06:50:14.000Z</Time>
            <Position>
              <LatitudeDegrees>43.3353461511433124542236328125</LatitudeDegrees>
              <LongitudeDegrees>-1.8731137923896312713623046875</LongitudeDegrees>
            </Position>
            <AltitudeMeters>256.79998779296875</AltitudeMeters>
            <DistanceMeters>NAN</DistanceMeters>
          </Trackpoint>
          <Trackpoint>
            <Time>2022-07-09T06:50:20.000Z</Time>
            <Position>
              <LatitudeDegrees>43.3352767489850521087646484375</LatitudeDegrees>
              <LongitudeDegrees>-1.87319333665072917938232421875</LongitudeDegrees>
            </Position>
            <AltitudeMeters>257.399993896484375</AltitudeMeters>
            <DistanceMeters>NAN</DistanceMeters>
          </Trackpoint>
          <Trackpoint>
            <Time>2022-07-09T06:50:26.000Z</Time>
            <Position>
              <LatitudeDegrees>43.33520852029323577880859375</LatitudeDegrees>
              <LongitudeDegrees>-1.8732750602066516876220703125</LongitudeDegrees>
            </Position>
            <AltitudeMeters>257.79998779296875</AltitudeMeters>
            <DistanceMeters>NAN</DistanceMeters>
          </Trackpoint>
          <Trackpoint>
            <Time>2022-07-09T06:50:28.000Z</Time>
            <Position>
              <LatitudeDegrees>43.33518764935433864593505859375</LatitudeDegrees>
              <LongitudeDegrees>-1.87329702079296112060546875</LongitudeDegrees>
            </Position>
            <AltitudeMeters>258</AltitudeMeters>
            <DistanceMeters>NAN</DistanceMeters>
          </Trackpoint>
          <Trackpoint>
            <Time>2022-07-09T06:50:36.000Z</Time>
            <Position>
              <LatitudeDegrees>43.3351265452802181243896484375</LatitudeDegrees>
              <LongitudeDegrees>-1.87340573407709598541259765625</LongitudeDegrees>
            </Position>
            <AltitudeMeters>258.79998779296875</AltitudeMeters>
            <DistanceMeters>NAN</DistanceMeters>
          </Trackpoint>
          <Trackpoint>
            <Time>2022-07-09T06:50:37.000Z</Time>
            <Position>
              <LatitudeDegrees>43.335123695433139801025390625</LatitudeDegrees>
              <LongitudeDegrees>-1.87342233024537563323974609375</LongitudeDegrees>
            </Position>
            <AltitudeMeters>259</AltitudeMeters>
            <DistanceMeters>NAN</DistanceMeters>
          </Trackpoint>
          <Trackpoint>
            <Time>2022-07-09T06:50:43.000Z</Time>
            <Position>
              <LatitudeDegrees>43.3350601606070995330810546875</LatitudeDegrees>
              <LongitudeDegrees>-1.8734946660697460174560546875</LongitudeDegrees>
            </Position>
            <AltitudeMeters>259.79998779296875</AltitudeMeters>
            <DistanceMeters>NAN</DistanceMeters>
          </Trackpoint>
          <Trackpoint>
            <Time>2022-07-09T06:50:45.000Z</Time>
            <Position>
              <LatitudeDegrees>43.3350470848381519317626953125</LatitudeDegrees>
              <LongitudeDegrees>-1.87352274544537067413330078125</LongitudeDegrees>
            </Position>
            <AltitudeMeters>259.79998779296875</AltitudeMeters>
            <DistanceMeters>NAN</DistanceMeters>
          </Trackpoint>
          <Trackpoint>
            <Time>2022-07-09T06:50:51.000Z</Time>
            <Position>
              <LatitudeDegrees>43.33500710316002368927001953125</LatitudeDegrees>
              <LongitudeDegrees>-1.87362148426473140716552734375</LongitudeDegrees>
            </Position>
            <AltitudeMeters>260.600006103515625</AltitudeMeters>
            <DistanceMeters>NAN</DistanceMeters>
          </Trackpoint>
          <Trackpoint>
            <Time>2022-07-09T06:50:56.000Z</Time>
            <Position>
              <LatitudeDegrees>43.33498698659241199493408203125</LatitudeDegrees>
              <LongitudeDegrees>-1.87374184839427471160888671875</LongitudeDegrees>
            </Position>
            <AltitudeMeters>261</AltitudeMeters>
            <DistanceMeters>NAN</DistanceMeters>
          </Trackpoint>
          <Trackpoint>
            <Time>2022-07-09T06:51:00.000Z</Time>
            <Position>
              <LatitudeDegrees>43.33497340790927410125732421875</LatitudeDegrees>
              <LongitudeDegrees>-1.87382516451179981231689453125</LongitudeDegrees>
            </Position>
            <AltitudeMeters>261</AltitudeMeters>
            <DistanceMeters>NAN</DistanceMeters>
          </Trackpoint>
          <Trackpoint>
            <Time>2022-07-09T06:51:06.000Z</Time>
            <Position>
              <LatitudeDegrees>43.33498589694499969482421875</LatitudeDegrees>
              <LongitudeDegrees>-1.8739546649158000946044921875</LongitudeDegrees>
            </Position>
            <AltitudeMeters>261.600006103515625</AltitudeMeters>
            <DistanceMeters>NAN</DistanceMeters>
          </Trackpoint>
          <Trackpoint>
            <Time>2022-07-09T06:51:13.000Z</Time>
            <Position>
              <LatitudeDegrees>43.33502051420509815216064453125</LatitudeDegrees>
              <LongitudeDegrees>-1.87409187667071819305419921875</LongitudeDegrees>
            </Position>
            <AltitudeMeters>261.79998779296875</AltitudeMeters>
            <DistanceMeters>NAN</DistanceMeters>
          </Trackpoint>
          <Trackpoint>
            <Time>2022-07-09T06:51:14.000Z</Time>
            <Position>
              <LatitudeDegrees>43.33502403460443019866943359375</LatitudeDegrees>
              <LongitudeDegrees>-1.8741119094192981719970703125</LongitudeDegrees>
            </Position>
            <AltitudeMeters>262</AltitudeMeters>
            <DistanceMeters>NAN</DistanceMeters>
          </Trackpoint>
          <Trackpoint>
            <Time>2022-07-09T06:51:15.000Z</Time>
            <Position>
              <LatitudeDegrees>43.33502688445150852203369140625</LatitudeDegrees>
              <LongitudeDegrees>-1.87412909232079982757568359375</LongitudeDegrees>
            </Position>
            <AltitudeMeters>262</AltitudeMeters>
            <DistanceMeters>NAN</DistanceMeters>
          </Trackpoint>
          <Trackpoint>
            <Time>2022-07-09T06:51:24.000Z</Time>
            <Position>
              <LatitudeDegrees>43.3350920118391513824462890625</LatitudeDegrees>
              <LongitudeDegrees>-1.874317936599254608154296875</LongitudeDegrees>
            </Position>
            <AltitudeMeters>263</AltitudeMeters>
            <DistanceMeters>NAN</DistanceMeters>
          </Trackpoint>
          <Trackpoint>
            <Time>2022-07-09T06:51:25.000Z</Time>
            <Position>
              <LatitudeDegrees>43.33510332740843296051025390625</LatitudeDegrees>
              <LongitudeDegrees>-1.874337382614612579345703125</LongitudeDegrees>
            </Position>
            <AltitudeMeters>263</AltitudeMeters>
            <DistanceMeters>NAN</DistanceMeters>
          </Trackpoint>
          <Trackpoint>
            <Time>2022-07-09T06:51:28.000Z</Time>
            <Position>
              <LatitudeDegrees>43.3351272158324718475341796875</LatitudeDegrees>
              <LongitudeDegrees>-1.87439027242362499237060546875</LongitudeDegrees>
            </Position>
            <AltitudeMeters>263.20001220703125</AltitudeMeters>
            <DistanceMeters>NAN</DistanceMeters>
          </Trackpoint>
          <Trackpoint>
            <Time>2022-07-09T06:51:31.000Z</Time>
            <Position>
              <LatitudeDegrees>43.33512780256569385528564453125</LatitudeDegrees>
              <LongitudeDegrees>-1.874432265758514404296875</LongitudeDegrees>
            </Position>
            <AltitudeMeters>263.600006103515625</AltitudeMeters>
            <DistanceMeters>NAN</DistanceMeters>
          </Trackpoint>
          <Trackpoint>
            <Time>2022-07-09T06:51:36.000Z</Time>
            <Position>
              <LatitudeDegrees>43.3351421356201171875</LatitudeDegrees>
              <LongitudeDegrees>-1.87453511171042919158935546875</LongitudeDegrees>
            </Position>
            <AltitudeMeters>264.20001220703125</AltitudeMeters>
            <DistanceMeters>NAN</DistanceMeters>
          </Trackpoint>
          <Trackpoint>
            <Time>2022-07-09T06:51:39.000Z</Time>
            <Position>
              <LatitudeDegrees>43.33514674566686153411865234375</LatitudeDegrees>
              <LongitudeDegrees>-1.8745856545865535736083984375</LongitudeDegrees>
            </Position>
            <AltitudeMeters>264.399993896484375</AltitudeMeters>
            <DistanceMeters>NAN</DistanceMeters>
          </Trackpoint>
          <Trackpoint>
            <Time>2022-07-09T06:51:45.000Z</Time>
            <Position>
              <LatitudeDegrees>43.33515730686485767364501953125</LatitudeDegrees>
              <LongitudeDegrees>-1.8747130595147609710693359375</LongitudeDegrees>
            </Position>
            <AltitudeMeters>265.20001220703125</AltitudeMeters>
            <DistanceMeters>NAN</DistanceMeters>
          </Trackpoint>
          <Trackpoint>
            <Time>2022-07-09T06:51:50.000Z</Time>
            <Position>
              <LatitudeDegrees>43.335177004337310791015625</LatitudeDegrees>
              <LongitudeDegrees>-1.87480081804096698760986328125</LongitudeDegrees>
            </Position>
            <AltitudeMeters>265.600006103515625</AltitudeMeters>
            <DistanceMeters>NAN</DistanceMeters>
          </Trackpoint>
          <Trackpoint>
            <Time>2022-07-09T06:51:57.000Z</Time>
            <Position>
              <LatitudeDegrees>43.3352086879312992095947265625</LatitudeDegrees>
              <LongitudeDegrees>-1.87491447664797306060791015625</LongitudeDegrees>
            </Position>
            <AltitudeMeters>266.20001220703125</AltitudeMeters>
            <DistanceMeters>NAN</DistanceMeters>
          </Trackpoint>
          <Trackpoint>
            <Time>2022-07-09T06:51:58.000Z</Time>
            <Position>
              <LatitudeDegrees>43.335212208330631256103515625</LatitudeDegrees>
              <LongitudeDegrees>-1.87493140809237957000732421875</LongitudeDegrees>
            </Position>
            <AltitudeMeters>266.20001220703125</AltitudeMeters>
            <DistanceMeters>NAN</DistanceMeters>
          </Trackpoint>
          <Trackpoint>
            <Time>2022-07-09T06:52:04.000Z</Time>
            <Position>
              <LatitudeDegrees>43.33522385917603969573974609375</LatitudeDegrees>
              <LongitudeDegrees>-1.87503199093043804168701171875</LongitudeDegrees>
            </Position>
            <AltitudeMeters>267.399993896484375</AltitudeMeters>
            <DistanceMeters>NAN</DistanceMeters>
          </Trackpoint>
          <Trackpoint>
            <Time>2022-07-09T06:52:06.000Z</Time>
            <Position>
              <LatitudeDegrees>43.33523224107921123504638671875</LatitudeDegrees>
              <LongitudeDegrees>-1.875065267086029052734375</LongitudeDegrees>
            </Position>
            <AltitudeMeters>267.600006103515625</AltitudeMeters>
            <DistanceMeters>NAN</DistanceMeters>
          </Trackpoint>
          <Trackpoint>
            <Time>2022-07-09T06:52:10.000Z</Time>
            <Position>
              <LatitudeDegrees>43.335245735943317413330078125</LatitudeDegrees>
              <LongitudeDegrees>-1.8751341663300991058349609375</LongitudeDegrees>
            </Position>
            <AltitudeMeters>267.79998779296875</AltitudeMeters>
            <DistanceMeters>NAN</DistanceMeters>
          </Trackpoint>
          <Trackpoint>
            <Time>2022-07-09T06:52:14.000Z</Time>
            <Position>
              <LatitudeDegrees>43.335267864167690277099609375</LatitudeDegrees>
              <LongitudeDegrees>-1.8752025626599788665771484375</LongitudeDegrees>
            </Position>
            <AltitudeMeters>268.399993896484375</AltitudeMeters>
            <DistanceMeters>NAN</DistanceMeters>
          </Trackpoint>
          <Trackpoint>
            <Time>2022-07-09T06:52:15.000Z</Time>
            <Position>
              <LatitudeDegrees>43.33526878617703914642333984375</LatitudeDegrees>
              <LongitudeDegrees>-1.87522418797016143798828125</LongitudeDegrees>
            </Position>
            <AltitudeMeters>268.399993896484375</AltitudeMeters>
            <DistanceMeters>NAN</DistanceMeters>
          </Trackpoint>
          <Trackpoint>
            <Time>2022-07-09T06:52:22.000Z</Time>
            <Position>
              <LatitudeDegrees>43.335268534719944000244140625</LatitudeDegrees>
              <LongitudeDegrees>-1.87534547410905361175537109375</LongitudeDegrees>
            </Position>
            <AltitudeMeters>269.20001220703125</AltitudeMeters>
            <DistanceMeters>NAN</DistanceMeters>
          </Trackpoint>
          <Trackpoint>
            <Time>2022-07-09T06:52:23.000Z</Time>
            <Position>
              <LatitudeDegrees>43.33526752889156341552734375</LatitudeDegrees>
              <LongitudeDegrees>-1.875361315906047821044921875</LongitudeDegrees>
            </Position>
            <AltitudeMeters>269.20001220703125</AltitudeMeters>
            <DistanceMeters>NAN</DistanceMeters>
          </Trackpoint>
          <Trackpoint>
            <Time>2022-07-09T06:52:25.000Z</Time>
            <Position>
              <LatitudeDegrees>43.33526023663580417633056640625</LatitudeDegrees>
              <LongitudeDegrees>-1.87538587488234043121337890625</LongitudeDegrees>
            </Position>
            <AltitudeMeters>269.399993896484375</AltitudeMeters>
            <DistanceMeters>NAN</DistanceMeters>
          </Trackpoint>
          <Trackpoint>
            <Time>2022-07-09T06:52:26.000Z</Time>
            <Position>
              <LatitudeDegrees>43.33526350557804107666015625</LatitudeDegrees>
              <LongitudeDegrees>-1.87540314160287380218505859375</LongitudeDegrees>
            </Position>
            <AltitudeMeters>269.399993896484375</AltitudeMeters>
            <DistanceMeters>NAN</DistanceMeters>
          </Trackpoint>
          <Trackpoint>
            <Time>2022-07-09T06:52:27.000Z</Time>
            <Position>
              <LatitudeDegrees>43.33526325412094593048095703125</LatitudeDegrees>
              <LongitudeDegrees>-1.87543063424527645111083984375</LongitudeDegrees>
            </Position>
            <AltitudeMeters>269.600006103515625</AltitudeMeters>
            <DistanceMeters>NAN</DistanceMeters>
          </Trackpoint>
          <Trackpoint>
            <Time>2022-07-09T06:52:28.000Z</Time>
            <Position>
              <LatitudeDegrees>43.335263170301914215087890625</LatitudeDegrees>
              <LongitudeDegrees>-1.87545024789869785308837890625</LongitudeDegrees>
            </Position>
            <AltitudeMeters>269.600006103515625</AltitudeMeters>
            <DistanceMeters>NAN</DistanceMeters>
          </Trackpoint>
          <Trackpoint>
            <Time>2022-07-09T06:52:29.000Z</Time>
            <Position>
              <LatitudeDegrees>43.33525990135967731475830078125</LatitudeDegrees>
              <LongitudeDegrees>-1.8754644133150577545166015625</LongitudeDegrees>
            </Position>
            <AltitudeMeters>269.79998779296875</AltitudeMeters>
            <DistanceMeters>NAN</DistanceMeters>
          </Trackpoint>
          <Trackpoint>
            <Time>2022-07-09T06:52:35.000Z</Time>
            <Position>
              <LatitudeDegrees>43.3352345041930675506591796875</LatitudeDegrees>
              <LongitudeDegrees>-1.87557279132306575775146484375</LongitudeDegrees>
            </Position>
            <AltitudeMeters>270.20001220703125</AltitudeMeters>
            <DistanceMeters>NAN</DistanceMeters>
          </Trackpoint>
          <Trackpoint>
            <Time>2022-07-09T06:52:38.000Z</Time>
            <Position>
              <LatitudeDegrees>43.33524229936301708221435546875</LatitudeDegrees>
              <LongitudeDegrees>-1.875624842941761016845703125</LongitudeDegrees>
            </Position>
            <AltitudeMeters>270.600006103515625</AltitudeMeters>
            <DistanceMeters>NAN</DistanceMeters>
          </Trackpoint>
          <Trackpoint>
            <Time>2022-07-09T06:52:42.000Z</Time>
            <Position>
              <LatitudeDegrees>43.3352321572601795196533203125</LatitudeDegrees>
              <LongitudeDegrees>-1.87570321373641490936279296875</LongitudeDegrees>
            </Position>
            <AltitudeMeters>271</AltitudeMeters>
            <DistanceMeters>NAN</DistanceMeters>
          </Trackpoint>
          <Trackpoint>
            <Time>2022-07-09T06:52:44.000Z</Time>
            <Position>
              <LatitudeDegrees>43.335217572748661041259765625</LatitudeDegrees>
              <LongitudeDegrees>-1.8757425248622894287109375</LongitudeDegrees>
            </Position>
            <AltitudeMeters>271.399993896484375</AltitudeMeters>
            <DistanceMeters>NAN</DistanceMeters>
          </Trackpoint>
          <Trackpoint>
            <Time>2022-07-09T06:52:47.000Z</Time>
            <Position>
              <LatitudeDegrees>43.33521229214966297149658203125</LatitudeDegrees>
              <LongitudeDegrees>-1.87581335194408893585205078125</LongitudeDegrees>
            </Position>
            <AltitudeMeters>271.600006103515625</AltitudeMeters>
            <DistanceMeters>NAN</DistanceMeters>
          </Trackpoint>
          <Trackpoint>
            <Time>2022-07-09T06:52:53.000Z</Time>
            <Position>
              <LatitudeDegrees>43.33517658524215221405029296875</LatitudeDegrees>
              <LongitudeDegrees>-1.87591728754341602325439453125</LongitudeDegrees>
            </Position>
            <AltitudeMeters>272</AltitudeMeters>
            <DistanceMeters>NAN</DistanceMeters>
          </Trackpoint>
          <Trackpoint>
            <Time>2022-07-09T06:52:59.000Z</Time>
            <Position>
              <LatitudeDegrees>43.33514607511460781097412109375</LatitudeDegrees>
              <LongitudeDegrees>-1.8760300241410732269287109375</LongitudeDegrees>
            </Position>
            <AltitudeMeters>272.600006103515625</AltitudeMeters>
            <DistanceMeters>NAN</DistanceMeters>
          </Trackpoint>
          <Trackpoint>
            <Time>2022-07-09T06:53:00.000Z</Time>
            <Position>
              <LatitudeDegrees>43.33513819612562656402587890625</LatitudeDegrees>
              <LongitudeDegrees>-1.87605567276477813720703125</LongitudeDegrees>
            </Position>
            <AltitudeMeters>272.600006103515625</AltitudeMeters>
            <DistanceMeters>NAN</DistanceMeters>
          </Trackpoint>
          <Trackpoint>
            <Time>2022-07-09T06:53:03.000Z</Time>
            <Position>
              <LatitudeDegrees>43.33513082005083560943603515625</LatitudeDegrees>
              <LongitudeDegrees>-1.876109652221202850341796875</LongitudeDegrees>
            </Position>
            <AltitudeMeters>272.79998779296875</AltitudeMeters>
            <DistanceMeters>NAN</DistanceMeters>
          </Trackpoint>
          <Trackpoint>
            <Time>2022-07-09T06:53:05.000Z</Time>
            <Position>
              <LatitudeDegrees>43.33511791191995143890380859375</LatitudeDegrees>
              <LongitudeDegrees>-1.87612834386527538299560546875</LongitudeDegrees>
            </Position>
            <AltitudeMeters>273</AltitudeMeters>
            <DistanceMeters>NAN</DistanceMeters>
          </Trackpoint>
          <Trackpoint>
            <Time>2022-07-09T06:53:07.000Z</Time>
            <Position>
              <LatitudeDegrees>43.3351087756454944610595703125</LatitudeDegrees>
              <LongitudeDegrees>-1.8761389888823032379150390625</LongitudeDegrees>
            </Position>
            <AltitudeMeters>273</AltitudeMeters>
            <DistanceMeters>NAN</DistanceMeters>
          </Trackpoint>
          <Trackpoint>
            <Time>2022-07-09T06:53:10.000Z</Time>
            <Position>
              <LatitudeDegrees>43.3350873179733753204345703125</LatitudeDegrees>
              <LongitudeDegrees>-1.87616539187729358673095703125</LongitudeDegrees>
            </Position>
            <AltitudeMeters>273.20001220703125</AltitudeMeters>
            <DistanceMeters>NAN</DistanceMeters>
          </Trackpoint>
          <Trackpoint>
            <Time>2022-07-09T06:53:11.000Z</Time>
            <Position>
              <LatitudeDegrees>43.33508312702178955078125</LatitudeDegrees>
              <LongitudeDegrees>-1.8761745281517505645751953125</LongitudeDegrees>
            </Position>
            <AltitudeMeters>273.20001220703125</AltitudeMeters>
            <DistanceMeters>NAN</DistanceMeters>
          </Trackpoint>
          <Trackpoint>
            <Time>2022-07-09T06:53:13.000Z</Time>
            <Position>
              <LatitudeDegrees>43.33507130853831768035888671875</LatitudeDegrees>
              <LongitudeDegrees>-1.87620243988931179046630859375</LongitudeDegrees>
            </Position>
            <AltitudeMeters>273.600006103515625</AltitudeMeters>
            <DistanceMeters>NAN</DistanceMeters>
          </Trackpoint>
          <Trackpoint>
            <Time>2022-07-09T06:53:14.000Z</Time>
            <Position>
              <LatitudeDegrees>43.33506577648222446441650390625</LatitudeDegrees>
              <LongitudeDegrees>-1.8762137554585933685302734375</LongitudeDegrees>
            </Position>
            <AltitudeMeters>273.600006103515625</AltitudeMeters>
            <DistanceMeters>NAN</DistanceMeters>
          </Trackpoint>
          <Trackpoint>
            <Time>2022-07-09T06:53:17.000Z</Time>
            <Position>
              <LatitudeDegrees>43.3350356854498386383056640625</LatitudeDegrees>
              <LongitudeDegrees>-1.87624275684356689453125</LongitudeDegrees>
            </Position>
            <AltitudeMeters>273.79998779296875</AltitudeMeters>
            <DistanceMeters>NAN</DistanceMeters>
          </Trackpoint>
          <Trackpoint>
            <Time>2022-07-09T06:53:22.000Z</Time>
            <Position>
              <LatitudeDegrees>43.33498631604015827178955078125</LatitudeDegrees>
              <LongitudeDegrees>-1.87632179819047451019287109375</LongitudeDegrees>
            </Position>
            <AltitudeMeters>274</AltitudeMeters>
            <DistanceMeters>NAN</DistanceMeters>
          </Trackpoint>
          <Trackpoint>
            <Time>2022-07-09T06:53:23.000Z</Time>
            <Position>
              <LatitudeDegrees>43.3349803648889064788818359375</LatitudeDegrees>
              <LongitudeDegrees>-1.87633403576910495758056640625</LongitudeDegrees>
            </Position>
            <AltitudeMeters>274</AltitudeMeters>
            <DistanceMeters>NAN</DistanceMeters>
          </Trackpoint>
          <Trackpoint>
            <Time>2022-07-09T06:53:26.000Z</Time>
            <Position>
              <LatitudeDegrees>43.33495697937905788421630859375</LatitudeDegrees>
              <LongitudeDegrees>-1.876384578645229339599609375</LongitudeDegrees>
            </Position>
            <AltitudeMeters>274.399993896484375</AltitudeMeters>
            <DistanceMeters>NAN</DistanceMeters>
          </Trackpoint>
          <Trackpoint>
            <Time>2022-07-09T06:53:31.000Z</Time>
            <Position>
              <LatitudeDegrees>43.3349126391112804412841796875</LatitudeDegrees>
              <LongitudeDegrees>-1.8765074573457241058349609375</LongitudeDegrees>
            </Position>
            <AltitudeMeters>274.600006103515625</AltitudeMeters>
            <DistanceMeters>NAN</DistanceMeters>
          </Trackpoint>
          <Trackpoint>
            <Time>2022-07-09T06:53:33.000Z</Time>
            <Position>
              <LatitudeDegrees>43.33489947952330112457275390625</LatitudeDegrees>
              <LongitudeDegrees>-1.87654115259647369384765625</LongitudeDegrees>
            </Position>
            <AltitudeMeters>274.79998779296875</AltitudeMeters>
            <DistanceMeters>NAN</DistanceMeters>
          </Trackpoint>
          <Trackpoint>
            <Time>2022-07-09T06:53:34.000Z</Time>
            <Position>
              <LatitudeDegrees>43.3348851464688777923583984375</LatitudeDegrees>
              <LongitudeDegrees>-1.87656805850565433502197265625</LongitudeDegrees>
            </Position>
            <AltitudeMeters>275</AltitudeMeters>
            <DistanceMeters>NAN</DistanceMeters>
          </Trackpoint>
          <Trackpoint>
            <Time>2022-07-09T06:53:38.000Z</Time>
            <Position>
              <LatitudeDegrees>43.3348546363413333892822265625</LatitudeDegrees>
              <LongitudeDegrees>-1.87666411511600017547607421875</LongitudeDegrees>
            </Position>
            <AltitudeMeters>275</AltitudeMeters>
            <DistanceMeters>NAN</DistanceMeters>
          </Trackpoint>
          <Trackpoint>
            <Time>2022-07-09T06:53:42.000Z</Time>
            <Position>
              <LatitudeDegrees>43.3348174206912517547607421875</LatitudeDegrees>
              <LongitudeDegrees>-1.87681205570697784423828125</LongitudeDegrees>
            </Position>
            <AltitudeMeters>275.20001220703125</AltitudeMeters>
            <DistanceMeters>NAN</DistanceMeters>
          </Trackpoint>
          <Trackpoint>
            <Time>2022-07-09T06:53:45.000Z</Time>
            <Position>
              <LatitudeDegrees>43.334785066545009613037109375</LatitudeDegrees>
              <LongitudeDegrees>-1.87693937681615352630615234375</LongitudeDegrees>
            </Position>
            <AltitudeMeters>275.399993896484375</AltitudeMeters>
            <DistanceMeters>NAN</DistanceMeters>
          </Trackpoint>
          <Trackpoint>
            <Time>2022-07-09T06:53:52.000Z</Time>
            <Position>
              <LatitudeDegrees>43.3347228728234767913818359375</LatitudeDegrees>
              <LongitudeDegrees>-1.877037696540355682373046875</LongitudeDegrees>
            </Position>
            <AltitudeMeters>275.600006103515625</AltitudeMeters>
            <DistanceMeters>NAN</DistanceMeters>
          </Trackpoint>
          <Trackpoint>
            <Time>2022-07-09T06:54:01.000Z</Time>
            <Position>
              <LatitudeDegrees>43.3346271514892578125</LatitudeDegrees>
              <LongitudeDegrees>-1.87723609618842601776123046875</LongitudeDegrees>
            </Position>
            <AltitudeMeters>275.399993896484375</AltitudeMeters>
            <DistanceMeters>NAN</DistanceMeters>
          </Trackpoint>
          <Trackpoint>
            <Time>2022-07-09T06:54:07.000Z</Time>
            <Position>
              <LatitudeDegrees>43.33457878790795803070068359375</LatitudeDegrees>
              <LongitudeDegrees>-1.8773506768047809600830078125</LongitudeDegrees>
            </Position>
            <AltitudeMeters>275.600006103515625</AltitudeMeters>
            <DistanceMeters>NAN</DistanceMeters>
          </Trackpoint>
          <Trackpoint>
            <Time>2022-07-09T06:54:14.000Z</Time>
            <Position>
              <LatitudeDegrees>43.33452715538442134857177734375</LatitudeDegrees>
              <LongitudeDegrees>-1.87753985635936260223388671875</LongitudeDegrees>
            </Position>
            <AltitudeMeters>275.79998779296875</AltitudeMeters>
            <DistanceMeters>NAN</DistanceMeters>
          </Trackpoint>
          <Trackpoint>
            <Time>2022-07-09T06:54:22.000Z</Time>
            <Position>
              <LatitudeDegrees>43.33449840545654296875</LatitudeDegrees>
              <LongitudeDegrees>-1.877828277647495269775390625</LongitudeDegrees>
            </Position>
            <AltitudeMeters>275.600006103515625</AltitudeMeters>
            <DistanceMeters>NAN</DistanceMeters>
          </Trackpoint>
          <Trackpoint>
            <Time>2022-07-09T06:54:26.000Z</Time>
            <Position>
              <LatitudeDegrees>43.33447133190929889678955078125</LatitudeDegrees>
              <LongitudeDegrees>-1.87794805504381656646728515625</LongitudeDegrees>
            </Position>
            <AltitudeMeters>275.600006103515625</AltitudeMeters>
            <DistanceMeters>NAN</DistanceMeters>
          </Trackpoint>
          <Trackpoint>
            <Time>2022-07-09T06:54:29.000Z</Time>
            <Position>
              <LatitudeDegrees>43.334463536739349365234375</LatitudeDegrees>
              <LongitudeDegrees>-1.878027431666851043701171875</LongitudeDegrees>
            </Position>
            <AltitudeMeters>275.79998779296875</AltitudeMeters>
            <DistanceMeters>NAN</DistanceMeters>
          </Trackpoint>
          <Trackpoint>
            <Time>2022-07-09T06:54:31.000Z</Time>
            <Position>
              <LatitudeDegrees>43.3344512991607189178466796875</LatitudeDegrees>
              <LongitudeDegrees>-1.87807881273329257965087890625</LongitudeDegrees>
            </Position>
            <AltitudeMeters>276</AltitudeMeters>
            <DistanceMeters>NAN</DistanceMeters>
          </Trackpoint>
          <Trackpoint>
            <Time>2022-07-09T06:54:36.000Z</Time>
            <Position>
              <LatitudeDegrees>43.33441986702382564544677734375</LatitudeDegrees>
              <LongitudeDegrees>-1.87822348438203334808349609375</LongitudeDegrees>
            </Position>
            <AltitudeMeters>276.20001220703125</AltitudeMeters>
            <DistanceMeters>NAN</DistanceMeters>
          </Trackpoint>
          <Trackpoint>
            <Time>2022-07-09T06:54:37.000Z</Time>
            <Position>
              <LatitudeDegrees>43.3344107307493686676025390625</LatitudeDegrees>
              <LongitudeDegrees>-1.87824661843478679656982421875</LongitudeDegrees>
            </Position>
            <AltitudeMeters>276.20001220703125</AltitudeMeters>
            <DistanceMeters>NAN</DistanceMeters>
          </Trackpoint>
          <Trackpoint>
            <Time>2022-07-09T06:54:41.000Z</Time>
            <Position>
              <LatitudeDegrees>43.334366641938686370849609375</LatitudeDegrees>
              <LongitudeDegrees>-1.8783796392381191253662109375</LongitudeDegrees>
            </Position>
            <AltitudeMeters>276.399993896484375</AltitudeMeters>
            <DistanceMeters>NAN</DistanceMeters>
          </Trackpoint>
          <Trackpoint>
            <Time>2022-07-09T06:54:48.000Z</Time>
            <Position>
              <LatitudeDegrees>43.334350548684597015380859375</LatitudeDegrees>
              <LongitudeDegrees>-1.8784989975392818450927734375</LongitudeDegrees>
            </Position>
            <AltitudeMeters>276.600006103515625</AltitudeMeters>
            <DistanceMeters>NAN</DistanceMeters>
          </Trackpoint>
          <Trackpoint>
            <Time>2022-07-09T06:54:52.000Z</Time>
            <Position>
              <LatitudeDegrees>43.3343192003667354583740234375</LatitudeDegrees>
              <LongitudeDegrees>-1.87858625315129756927490234375</LongitudeDegrees>
            </Position>
            <AltitudeMeters>276.600006103515625</AltitudeMeters>
            <DistanceMeters>NAN</DistanceMeters>
          </Trackpoint>
          <Trackpoint>
            <Time>2022-07-09T06:54:54.000Z</Time>
            <Position>
              <LatitudeDegrees>43.33431065082550048828125</LatitudeDegrees>
              <LongitudeDegrees>-1.87862799502909183502197265625</LongitudeDegrees>
            </Position>
            <AltitudeMeters>276.600006103515625</AltitudeMeters>
            <DistanceMeters>NAN</DistanceMeters>
          </Trackpoint>
          <Trackpoint>
            <Time>2022-07-09T06:54:56.000Z</Time>
            <Position>
              <LatitudeDegrees>43.3342970721423625946044921875</LatitudeDegrees>
              <LongitudeDegrees>-1.87866303138434886932373046875</LongitudeDegrees>
            </Position>
            <AltitudeMeters>276.399993896484375</AltitudeMeters>
            <DistanceMeters>NAN</DistanceMeters>
          </Trackpoint>
          <Trackpoint>
            <Time>2022-07-09T06:55:01.000Z</Time>
            <Position>
              <LatitudeDegrees>43.334241248667240142822265625</LatitudeDegrees>
              <LongitudeDegrees>-1.8788419850170612335205078125</LongitudeDegrees>
            </Position>
            <AltitudeMeters>276.399993896484375</AltitudeMeters>
            <DistanceMeters>NAN</DistanceMeters>
          </Trackpoint>
          <Trackpoint>
            <Time>2022-07-09T06:55:04.000Z</Time>
            <Position>
              <LatitudeDegrees>43.33420746959745883941650390625</LatitudeDegrees>
              <LongitudeDegrees>-1.87895505689084529876708984375</LongitudeDegrees>
            </Position>
            <AltitudeMeters>276.20001220703125</AltitudeMeters>
            <DistanceMeters>NAN</DistanceMeters>
          </Trackpoint>
          <Trackpoint>
            <Time>2022-07-09T06:55:07.000Z</Time>
            <Position>
              <LatitudeDegrees>43.3341679908335208892822265625</LatitudeDegrees>
              <LongitudeDegrees>-1.8790173344314098358154296875</LongitudeDegrees>
            </Position>
            <AltitudeMeters>275.79998779296875</AltitudeMeters>
            <DistanceMeters>NAN</DistanceMeters>
          </Trackpoint>
          <Trackpoint>
            <Time>2022-07-09T06:55:13.000Z</Time>
            <Position>
              <LatitudeDegrees>43.3340759575366973876953125</LatitudeDegrees>
              <LongitudeDegrees>-1.87928312458097934722900390625</LongitudeDegrees>
            </Position>
            <AltitudeMeters>275.20001220703125</AltitudeMeters>
            <DistanceMeters>NAN</DistanceMeters>
          </Trackpoint>
          <Trackpoint>
            <Time>2022-07-09T06:55:14.000Z</Time>
            <Position>
              <LatitudeDegrees>43.33406229503452777862548828125</LatitudeDegrees>
              <LongitudeDegrees>-1.879310868680477142333984375</LongitudeDegrees>
            </Position>
            <AltitudeMeters>275.20001220703125</AltitudeMeters>
            <DistanceMeters>NAN</DistanceMeters>
          </Trackpoint>
          <Trackpoint>
            <Time>2022-07-09T06:55:15.000Z</Time>
            <Position>
              <LatitudeDegrees>43.3340476267039775848388671875</LatitudeDegrees>
              <LongitudeDegrees>-1.87935881316661834716796875</LongitudeDegrees>
            </Position>
            <AltitudeMeters>275</AltitudeMeters>
            <DistanceMeters>NAN</DistanceMeters>
          </Trackpoint>
          <Trackpoint>
            <Time>2022-07-09T06:55:17.000Z</Time>
            <Position>
              <LatitudeDegrees>43.3340303599834442138671875</LatitudeDegrees>
              <LongitudeDegrees>-1.87940935604274272918701171875</LongitudeDegrees>
            </Position>
            <AltitudeMeters>274.399993896484375</AltitudeMeters>
            <DistanceMeters>NAN</DistanceMeters>
          </Trackpoint>
          <Trackpoint>
            <Time>2022-07-09T06:55:19.000Z</Time>
            <Position>
              <LatitudeDegrees>43.3339943177998065948486328125</LatitudeDegrees>
              <LongitudeDegrees>-1.87950432300567626953125</LongitudeDegrees>
            </Position>
            <AltitudeMeters>274.20001220703125</AltitudeMeters>
            <DistanceMeters>NAN</DistanceMeters>
          </Trackpoint>
          <Trackpoint>
            <Time>2022-07-09T06:55:21.000Z</Time>
            <Position>
              <LatitudeDegrees>43.33395936526358127593994140625</LatitudeDegrees>
              <LongitudeDegrees>-1.87957942485809326171875</LongitudeDegrees>
            </Position>
            <AltitudeMeters>274</AltitudeMeters>
            <DistanceMeters>NAN</DistanceMeters>
          </Trackpoint>
          <Trackpoint>
            <Time>2022-07-09T06:55:22.000Z</Time>
            <Position>
              <LatitudeDegrees>43.33394251763820648193359375</LatitudeDegrees>
              <LongitudeDegrees>-1.8796168081462383270263671875</LongitudeDegrees>
            </Position>
            <AltitudeMeters>273.600006103515625</AltitudeMeters>
            <DistanceMeters>NAN</DistanceMeters>
          </Trackpoint>
          <Trackpoint>
            <Time>2022-07-09T06:55:27.000Z</Time>
            <Position>
              <LatitudeDegrees>43.3337763883173465728759765625</LatitudeDegrees>
              <LongitudeDegrees>-1.87984186224639415740966796875</LongitudeDegrees>
            </Position>
            <AltitudeMeters>273.20001220703125</AltitudeMeters>
            <DistanceMeters>NAN</DistanceMeters>
          </Trackpoint>
          <Trackpoint>
            <Time>2022-07-09T06:55:29.000Z</Time>
            <Position>
              <LatitudeDegrees>43.3337354846298694610595703125</LatitudeDegrees>
              <LongitudeDegrees>-1.879947893321514129638671875</LongitudeDegrees>
            </Position>
            <AltitudeMeters>272.79998779296875</AltitudeMeters>
            <DistanceMeters>NAN</DistanceMeters>
          </Trackpoint>
          <Trackpoint>
            <Time>2022-07-09T06:55:32.000Z</Time>
            <Position>
              <LatitudeDegrees>43.33368728868663311004638671875</LatitudeDegrees>
              <LongitudeDegrees>-1.8801425211131572723388671875</LongitudeDegrees>
            </Position>
            <AltitudeMeters>272.20001220703125</AltitudeMeters>
            <DistanceMeters>NAN</DistanceMeters>
          </Trackpoint>
          <Trackpoint>
            <Time>2022-07-09T06:55:33.000Z</Time>
            <Position>
              <LatitudeDegrees>43.333674967288970947265625</LatitudeDegrees>
              <LongitudeDegrees>-1.88019088469445705413818359375</LongitudeDegrees>
            </Position>
            <AltitudeMeters>271.79998779296875</AltitudeMeters>
            <DistanceMeters>NAN</DistanceMeters>
          </Trackpoint>
          <Trackpoint>
            <Time>2022-07-09T06:55:37.000Z</Time>
            <Position>
              <LatitudeDegrees>43.3335738815367221832275390625</LatitudeDegrees>
              <LongitudeDegrees>-1.880466230213642120361328125</LongitudeDegrees>
            </Position>
            <AltitudeMeters>270.600006103515625</AltitudeMeters>
            <DistanceMeters>NAN</DistanceMeters>
          </Trackpoint>
          <Trackpoint>
            <Time>2022-07-09T06:55:42.000Z</Time>
            <Position>
              <LatitudeDegrees>43.333532474935054779052734375</LatitudeDegrees>
              <LongitudeDegrees>-1.88065641559660434722900390625</LongitudeDegrees>
            </Position>
            <AltitudeMeters>269.600006103515625</AltitudeMeters>
            <DistanceMeters>NAN</DistanceMeters>
          </Trackpoint>
          <Trackpoint>
            <Time>2022-07-09T06:55:46.000Z</Time>
            <Position>
              <LatitudeDegrees>43.33351177163422107696533203125</LatitudeDegrees>
              <LongitudeDegrees>-1.88083495013415813446044921875</LongitudeDegrees>
            </Position>
            <AltitudeMeters>268.600006103515625</AltitudeMeters>
            <DistanceMeters>NAN</DistanceMeters>
          </Trackpoint>
          <Trackpoint>
            <Time>2022-07-09T06:55:48.000Z</Time>
            <Position>
              <LatitudeDegrees>43.33349467255175113677978515625</LatitudeDegrees>
              <LongitudeDegrees>-1.880914829671382904052734375</LongitudeDegrees>
            </Position>
            <AltitudeMeters>267.79998779296875</AltitudeMeters>
            <DistanceMeters>NAN</DistanceMeters>
          </Trackpoint>
          <Trackpoint>
            <Time>2022-07-09T06:55:49.000Z</Time>
            <Position>
              <LatitudeDegrees>43.33348863758146762847900390625</LatitudeDegrees>
              <LongitudeDegrees>-1.88096520490944385528564453125</LongitudeDegrees>
            </Position>
            <AltitudeMeters>267.20001220703125</AltitudeMeters>
            <DistanceMeters>NAN</DistanceMeters>
          </Trackpoint>
          <Trackpoint>
            <Time>2022-07-09T06:55:52.000Z</Time>
            <Position>
              <LatitudeDegrees>43.3334612287580966949462890625</LatitudeDegrees>
              <LongitudeDegrees>-1.88111088238656520843505859375</LongitudeDegrees>
            </Position>
            <AltitudeMeters>266</AltitudeMeters>
            <DistanceMeters>NAN</DistanceMeters>
          </Trackpoint>
          <Trackpoint>
            <Time>2022-07-09T06:55:54.000Z</Time>
            <Position>
              <LatitudeDegrees>43.33346215076744556427001953125</LatitudeDegrees>
              <LongitudeDegrees>-1.8811822123825550079345703125</LongitudeDegrees>
            </Position>
            <AltitudeMeters>265.399993896484375</AltitudeMeters>
            <DistanceMeters>NAN</DistanceMeters>
          </Trackpoint>
          <Trackpoint>
            <Time>2022-07-09T06:55:56.000Z</Time>
            <Position>
              <LatitudeDegrees>43.3334444649517536163330078125</LatitudeDegrees>
              <LongitudeDegrees>-1.88124046660959720611572265625</LongitudeDegrees>
            </Position>
            <AltitudeMeters>264.79998779296875</AltitudeMeters>
            <DistanceMeters>NAN</DistanceMeters>
          </Trackpoint>
          <Trackpoint>
            <Time>2022-07-09T06:55:59.000Z</Time>
            <Position>
              <LatitudeDegrees>43.33343784324824810028076171875</LatitudeDegrees>
              <LongitudeDegrees>-1.881358064711093902587890625</LongitudeDegrees>
            </Position>
            <AltitudeMeters>264.20001220703125</AltitudeMeters>
            <DistanceMeters>NAN</DistanceMeters>
          </Trackpoint>
          <Trackpoint>
            <Time>2022-07-09T06:56:01.000Z</Time>
            <Position>
              <LatitudeDegrees>43.3334370888769626617431640625</LatitudeDegrees>
              <LongitudeDegrees>-1.88143190927803516387939453125</LongitudeDegrees>
            </Position>
            <AltitudeMeters>263.600006103515625</AltitudeMeters>
            <DistanceMeters>NAN</DistanceMeters>
          </Trackpoint>
          <Trackpoint>
            <Time>2022-07-09T06:56:04.000Z</Time>
            <Position>
              <LatitudeDegrees>43.333436585962772369384765625</LatitudeDegrees>
              <LongitudeDegrees>-1.881530396640300750732421875</LongitudeDegrees>
            </Position>
            <AltitudeMeters>262.399993896484375</AltitudeMeters>
            <DistanceMeters>NAN</DistanceMeters>
          </Trackpoint>
          <Trackpoint>
            <Time>2022-07-09T06:56:06.000Z</Time>
            <Position>
              <LatitudeDegrees>43.333429209887981414794921875</LatitudeDegrees>
              <LongitudeDegrees>-1.8815925903618335723876953125</LongitudeDegrees>
            </Position>
            <AltitudeMeters>261.79998779296875</AltitudeMeters>
            <DistanceMeters>NAN</DistanceMeters>
          </Trackpoint>
          <Trackpoint>
            <Time>2022-07-09T06:56:08.000Z</Time>
            <Position>
              <LatitudeDegrees>43.33340473473072052001953125</LatitudeDegrees>
              <LongitudeDegrees>-1.88167498447000980377197265625</LongitudeDegrees>
            </Position>
            <AltitudeMeters>261</AltitudeMeters>
            <DistanceMeters>NAN</DistanceMeters>
          </Trackpoint>
          <Trackpoint>
            <Time>2022-07-09T06:56:09.000Z</Time>
            <Position>
              <LatitudeDegrees>43.33340347744524478912353515625</LatitudeDegrees>
              <LongitudeDegrees>-1.8817146308720111846923828125</LongitudeDegrees>
            </Position>
            <AltitudeMeters>260.79998779296875</AltitudeMeters>
            <DistanceMeters>NAN</DistanceMeters>
          </Trackpoint>
          <Trackpoint>
            <Time>2022-07-09T06:56:12.000Z</Time>
            <Position>
              <LatitudeDegrees>43.3333824388682842254638671875</LatitudeDegrees>
              <LongitudeDegrees>-1.88183424063026905059814453125</LongitudeDegrees>
            </Position>
            <AltitudeMeters>259.79998779296875</AltitudeMeters>
            <DistanceMeters>NAN</DistanceMeters>
          </Trackpoint>
          <Trackpoint>
            <Time>2022-07-09T06:56:13.000Z</Time>
            <Position>
              <LatitudeDegrees>43.33337632007896900177001953125</LatitudeDegrees>
              <LongitudeDegrees>-1.88186793588101863861083984375</LongitudeDegrees>
            </Position>
            <AltitudeMeters>259.20001220703125</AltitudeMeters>
            <DistanceMeters>NAN</DistanceMeters>
          </Trackpoint>
          <Trackpoint>
            <Time>2022-07-09T06:56:14.000Z</Time>
            <Position>
              <LatitudeDegrees>43.3333727158606052398681640625</LatitudeDegrees>
              <LongitudeDegrees>-1.8819033913314342498779296875</LongitudeDegrees>
            </Position>
            <AltitudeMeters>258.600006103515625</AltitudeMeters>
            <DistanceMeters>NAN</DistanceMeters>
          </Trackpoint>
          <Trackpoint>
            <Time>2022-07-09T06:56:15.000Z</Time>
            <Position>
              <LatitudeDegrees>43.333373554050922393798828125</LatitudeDegrees>
              <LongitudeDegrees>-1.881947480142116546630859375</LongitudeDegrees>
            </Position>
            <AltitudeMeters>258.20001220703125</AltitudeMeters>
            <DistanceMeters>NAN</DistanceMeters>
          </Trackpoint>
          <Trackpoint>
            <Time>2022-07-09T06:56:18.000Z</Time>
            <Position>
              <LatitudeDegrees>43.3333919942378997802734375</LatitudeDegrees>
              <LongitudeDegrees>-1.88211235217750072479248046875</LongitudeDegrees>
            </Position>
            <AltitudeMeters>257.79998779296875</AltitudeMeters>
            <DistanceMeters>NAN</DistanceMeters>
          </Trackpoint>
          <Trackpoint>
            <Time>2022-07-09T06:56:19.000Z</Time>
            <Position>
              <LatitudeDegrees>43.33338906057178974151611328125</LatitudeDegrees>
              <LongitudeDegrees>-1.88216767273843288421630859375</LongitudeDegrees>
            </Position>
            <AltitudeMeters>257.399993896484375</AltitudeMeters>
            <DistanceMeters>NAN</DistanceMeters>
          </Trackpoint>
          <Trackpoint>
            <Time>2022-07-09T06:56:20.000Z</Time>
            <Position>
              <LatitudeDegrees>43.33338839001953601837158203125</LatitudeDegrees>
              <LongitudeDegrees>-1.88221259973943233489990234375</LongitudeDegrees>
            </Position>
            <AltitudeMeters>257</AltitudeMeters>
            <DistanceMeters>NAN</DistanceMeters>
          </Trackpoint>
          <Trackpoint>
            <Time>2022-07-09T06:56:22.000Z</Time>
            <Position>
              <LatitudeDegrees>43.333396352827548980712890625</LatitudeDegrees>
              <LongitudeDegrees>-1.8822866119444370269775390625</LongitudeDegrees>
            </Position>
            <AltitudeMeters>256.399993896484375</AltitudeMeters>
            <DistanceMeters>NAN</DistanceMeters>
          </Trackpoint>
          <Trackpoint>
            <Time>2022-07-09T06:56:24.000Z</Time>
            <Position>
              <LatitudeDegrees>43.33340071141719818115234375</LatitudeDegrees>
              <LongitudeDegrees>-1.882362551987171173095703125</LongitudeDegrees>
            </Position>
            <AltitudeMeters>255.600006103515625</AltitudeMeters>
            <DistanceMeters>NAN</DistanceMeters>
          </Trackpoint>
          <Trackpoint>
            <Time>2022-07-09T06:56:26.000Z</Time>
            <Position>
              <LatitudeDegrees>43.33337229676544666290283203125</LatitudeDegrees>
              <LongitudeDegrees>-1.8824663199484348297119140625</LongitudeDegrees>
            </Position>
            <AltitudeMeters>255.1999969482421875</AltitudeMeters>
            <DistanceMeters>NAN</DistanceMeters>
          </Trackpoint>
          <Trackpoint>
            <Time>2022-07-09T06:56:28.000Z</Time>
            <Position>
              <LatitudeDegrees>43.33335519768297672271728515625</LatitudeDegrees>
              <LongitudeDegrees>-1.88255609013140201568603515625</LongitudeDegrees>
            </Position>
            <AltitudeMeters>254.600006103515625</AltitudeMeters>
            <DistanceMeters>NAN</DistanceMeters>
          </Trackpoint>
          <Trackpoint>
            <Time>2022-07-09T06:56:30.000Z</Time>
            <Position>
              <LatitudeDegrees>43.333366177976131439208984375</LatitudeDegrees>
              <LongitudeDegrees>-1.882624067366123199462890625</LongitudeDegrees>
            </Position>
            <AltitudeMeters>254.1999969482421875</AltitudeMeters>
            <DistanceMeters>NAN</DistanceMeters>
          </Trackpoint>
          <Trackpoint>
            <Time>2022-07-09T06:56:34.000Z</Time>
            <Position>
              <LatitudeDegrees>43.333358131349086761474609375</LatitudeDegrees>
              <LongitudeDegrees>-1.88281953334808349609375</LongitudeDegrees>
            </Position>
            <AltitudeMeters>253.1999969482421875</AltitudeMeters>
            <DistanceMeters>NAN</DistanceMeters>
          </Trackpoint>
          <Trackpoint>
            <Time>2022-07-09T06:56:35.000Z</Time>
            <Position>
              <LatitudeDegrees>43.33336651325225830078125</LatitudeDegrees>
              <LongitudeDegrees>-1.882875859737396240234375</LongitudeDegrees>
            </Position>
            <AltitudeMeters>253</AltitudeMeters>
            <DistanceMeters>NAN</DistanceMeters>
          </Trackpoint>
          <Trackpoint>
            <Time>2022-07-09T06:56:39.000Z</Time>
            <Position>
              <LatitudeDegrees>43.33327640779316425323486328125</LatitudeDegrees>
              <LongitudeDegrees>-1.88307635486125946044921875</LongitudeDegrees>
            </Position>
            <AltitudeMeters>252</AltitudeMeters>
            <DistanceMeters>NAN</DistanceMeters>
          </Trackpoint>
          <Trackpoint>
            <Time>2022-07-09T06:56:40.000Z</Time>
            <Position>
              <LatitudeDegrees>43.33326165564358234405517578125</LatitudeDegrees>
              <LongitudeDegrees>-1.88311583362519741058349609375</LongitudeDegrees>
            </Position>
            <AltitudeMeters>251.8000030517578125</AltitudeMeters>
            <DistanceMeters>NAN</DistanceMeters>
          </Trackpoint>
          <Trackpoint>
            <Time>2022-07-09T06:56:43.000Z</Time>
            <Position>
              <LatitudeDegrees>43.33329987712204456329345703125</LatitudeDegrees>
              <LongitudeDegrees>-1.88320183195173740386962890625</LongitudeDegrees>
            </Position>
            <AltitudeMeters>250.8000030517578125</AltitudeMeters>
            <DistanceMeters>NAN</DistanceMeters>
          </Trackpoint>
          <Trackpoint>
            <Time>2022-07-09T06:56:44.000Z</Time>
            <Position>
              <LatitudeDegrees>43.3332989551126956939697265625</LatitudeDegrees>
              <LongitudeDegrees>-1.883224211633205413818359375</LongitudeDegrees>
            </Position>
            <AltitudeMeters>250.600006103515625</AltitudeMeters>
            <DistanceMeters>NAN</DistanceMeters>
          </Trackpoint>
          <Trackpoint>
            <Time>2022-07-09T06:56:48.000Z</Time>
            <Position>
              <LatitudeDegrees>43.33320113830268383026123046875</LatitudeDegrees>
              <LongitudeDegrees>-1.883370392024517059326171875</LongitudeDegrees>
            </Position>
            <AltitudeMeters>249.600006103515625</AltitudeMeters>
            <DistanceMeters>NAN</DistanceMeters>
          </Trackpoint>
          <Trackpoint>
            <Time>2022-07-09T06:56:49.000Z</Time>
            <Position>
              <LatitudeDegrees>43.33318437449634075164794921875</LatitudeDegrees>
              <LongitudeDegrees>-1.883427388966083526611328125</LongitudeDegrees>
            </Position>
            <AltitudeMeters>249.399993896484375</AltitudeMeters>
            <DistanceMeters>NAN</DistanceMeters>
          </Trackpoint>
          <Trackpoint>
            <Time>2022-07-09T06:56:51.000Z</Time>
            <Position>
              <LatitudeDegrees>43.33316308446228504180908203125</LatitudeDegrees>
              <LongitudeDegrees>-1.88352168537676334381103515625</LongitudeDegrees>
            </Position>
            <AltitudeMeters>248.600006103515625</AltitudeMeters>
            <DistanceMeters>NAN</DistanceMeters>
          </Trackpoint>
          <Trackpoint>
            <Time>2022-07-09T06:56:54.000Z</Time>
            <Position>
              <LatitudeDegrees>43.33314531482756137847900390625</LatitudeDegrees>
              <LongitudeDegrees>-1.883666776120662689208984375</LongitudeDegrees>
            </Position>
            <AltitudeMeters>247.399993896484375</AltitudeMeters>
            <DistanceMeters>NAN</DistanceMeters>
          </Trackpoint>
          <Trackpoint>
            <Time>2022-07-09T06:56:56.000Z</Time>
            <Position>
              <LatitudeDegrees>43.3331272937357425689697265625</LatitudeDegrees>
              <LongitudeDegrees>-1.88375419937074184417724609375</LongitudeDegrees>
            </Position>
            <AltitudeMeters>247</AltitudeMeters>
            <DistanceMeters>NAN</DistanceMeters>
          </Trackpoint>
          <Trackpoint>
            <Time>2022-07-09T06:56:57.000Z</Time>
            <Position>
              <LatitudeDegrees>43.33311664871871471405029296875</LatitudeDegrees>
              <LongitudeDegrees>-1.8837903253734111785888671875</LongitudeDegrees>
            </Position>
            <AltitudeMeters>246.399993896484375</AltitudeMeters>
            <DistanceMeters>NAN</DistanceMeters>
          </Trackpoint>
          <Trackpoint>
            <Time>2022-07-09T06:56:59.000Z</Time>
            <Position>
              <LatitudeDegrees>43.33308664150536060333251953125</LatitudeDegrees>
              <LongitudeDegrees>-1.88385595567524433135986328125</LongitudeDegrees>
            </Position>
            <AltitudeMeters>245.8000030517578125</AltitudeMeters>
            <DistanceMeters>NAN</DistanceMeters>
          </Trackpoint>
          <Trackpoint>
            <Time>2022-07-09T06:57:00.000Z</Time>
            <Position>
              <LatitudeDegrees>43.33307406865060329437255859375</LatitudeDegrees>
              <LongitudeDegrees>-1.8838982842862606048583984375</LongitudeDegrees>
            </Position>
            <AltitudeMeters>245.399993896484375</AltitudeMeters>
            <DistanceMeters>NAN</DistanceMeters>
          </Trackpoint>
          <Trackpoint>
            <Time>2022-07-09T06:57:03.000Z</Time>
            <Position>
              <LatitudeDegrees>43.33301941864192485809326171875</LatitudeDegrees>
              <LongitudeDegrees>-1.884012781083583831787109375</LongitudeDegrees>
            </Position>
            <AltitudeMeters>244.399993896484375</AltitudeMeters>
            <DistanceMeters>NAN</DistanceMeters>
          </Trackpoint>
          <Trackpoint>
            <Time>2022-07-09T06:57:06.000Z</Time>
            <Position>
              <LatitudeDegrees>43.3329579792916774749755859375</LatitudeDegrees>
              <LongitudeDegrees>-1.8841725401580333709716796875</LongitudeDegrees>
            </Position>
            <AltitudeMeters>243.600006103515625</AltitudeMeters>
            <DistanceMeters>NAN</DistanceMeters>
          </Trackpoint>
          <Trackpoint>
            <Time>2022-07-09T06:57:08.000Z</Time>
            <Position>
              <LatitudeDegrees>43.33293861709535121917724609375</LatitudeDegrees>
              <LongitudeDegrees>-1.8842680938541889190673828125</LongitudeDegrees>
            </Position>
            <AltitudeMeters>243.1999969482421875</AltitudeMeters>
            <DistanceMeters>NAN</DistanceMeters>
          </Trackpoint>
          <Trackpoint>
            <Time>2022-07-09T06:57:10.000Z</Time>
            <Position>
              <LatitudeDegrees>43.332921601831912994384765625</LatitudeDegrees>
              <LongitudeDegrees>-1.88435484655201435089111328125</LongitudeDegrees>
            </Position>
            <AltitudeMeters>242.600006103515625</AltitudeMeters>
            <DistanceMeters>NAN</DistanceMeters>
          </Trackpoint>
          <Trackpoint>
            <Time>2022-07-09T06:57:13.000Z</Time>
            <Position>
              <LatitudeDegrees>43.33288564346730709075927734375</LatitudeDegrees>
              <LongitudeDegrees>-1.88449398614466190338134765625</LongitudeDegrees>
            </Position>
            <AltitudeMeters>241.600006103515625</AltitudeMeters>
            <DistanceMeters>NAN</DistanceMeters>
          </Trackpoint>
          <Trackpoint>
            <Time>2022-07-09T06:57:14.000Z</Time>
            <Position>
              <LatitudeDegrees>43.332890756428241729736328125</LatitudeDegrees>
              <LongitudeDegrees>-1.88454796560108661651611328125</LongitudeDegrees>
            </Position>
            <AltitudeMeters>241.1999969482421875</AltitudeMeters>
            <DistanceMeters>NAN</DistanceMeters>
          </Trackpoint>
          <Trackpoint>
            <Time>2022-07-09T06:57:15.000Z</Time>
            <Position>
              <LatitudeDegrees>43.33288329653441905975341796875</LatitudeDegrees>
              <LongitudeDegrees>-1.884606890380382537841796875</LongitudeDegrees>
            </Position>
            <AltitudeMeters>241</AltitudeMeters>
            <DistanceMeters>NAN</DistanceMeters>
          </Trackpoint>
          <Trackpoint>
            <Time>2022-07-09T06:57:16.000Z</Time>
            <Position>
              <LatitudeDegrees>43.332859575748443603515625</LatitudeDegrees>
              <LongitudeDegrees>-1.8846811540424823760986328125</LongitudeDegrees>
            </Position>
            <AltitudeMeters>240.600006103515625</AltitudeMeters>
            <DistanceMeters>NAN</DistanceMeters>
          </Trackpoint>
          <Trackpoint>
            <Time>2022-07-09T06:57:19.000Z</Time>
            <Position>
              <LatitudeDegrees>43.3327997289597988128662109375</LatitudeDegrees>
              <LongitudeDegrees>-1.8848528154194355010986328125</LongitudeDegrees>
            </Position>
            <AltitudeMeters>239.1999969482421875</AltitudeMeters>
            <DistanceMeters>NAN</DistanceMeters>
          </Trackpoint>
          <Trackpoint>
            <Time>2022-07-09T06:57:20.000Z</Time>
            <Position>
              <LatitudeDegrees>43.33279930986464023590087890625</LatitudeDegrees>
              <LongitudeDegrees>-1.88487117178738117218017578125</LongitudeDegrees>
            </Position>
            <AltitudeMeters>238.8000030517578125</AltitudeMeters>
            <DistanceMeters>NAN</DistanceMeters>
          </Trackpoint>
          <Trackpoint>
            <Time>2022-07-09T06:57:22.000Z</Time>
            <Position>
              <LatitudeDegrees>43.33278958685696125030517578125</LatitudeDegrees>
              <LongitudeDegrees>-1.8849049508571624755859375</LongitudeDegrees>
            </Position>
            <AltitudeMeters>238.1999969482421875</AltitudeMeters>
            <DistanceMeters>NAN</DistanceMeters>
          </Trackpoint>
          <Trackpoint>
            <Time>2022-07-09T06:57:27.000Z</Time>
            <Position>
              <LatitudeDegrees>43.3327708952128887176513671875</LatitudeDegrees>
              <LongitudeDegrees>-1.885101087391376495361328125</LongitudeDegrees>
            </Position>
            <AltitudeMeters>237.399993896484375</AltitudeMeters>
            <DistanceMeters>NAN</DistanceMeters>
          </Trackpoint>
          <Trackpoint>
            <Time>2022-07-09T06:57:29.000Z</Time>
            <Position>
              <LatitudeDegrees>43.3327289856970310211181640625</LatitudeDegrees>
              <LongitudeDegrees>-1.8852563202381134033203125</LongitudeDegrees>
            </Position>
            <AltitudeMeters>237</AltitudeMeters>
            <DistanceMeters>NAN</DistanceMeters>
          </Trackpoint>
          <Trackpoint>
            <Time>2022-07-09T06:57:31.000Z</Time>
            <Position>
              <LatitudeDegrees>43.3326971344649791717529296875</LatitudeDegrees>
              <LongitudeDegrees>-1.8853865750133991241455078125</LongitudeDegrees>
            </Position>
            <AltitudeMeters>236</AltitudeMeters>
            <DistanceMeters>NAN</DistanceMeters>
          </Trackpoint>
          <Trackpoint>
            <Time>2022-07-09T06:57:32.000Z</Time>
            <Position>
              <LatitudeDegrees>43.332688249647617340087890625</LatitudeDegrees>
              <LongitudeDegrees>-1.885432340204715728759765625</LongitudeDegrees>
            </Position>
            <AltitudeMeters>235.8000030517578125</AltitudeMeters>
            <DistanceMeters>NAN</DistanceMeters>
          </Trackpoint>
          <Trackpoint>
            <Time>2022-07-09T06:57:33.000Z</Time>
            <Position>
              <LatitudeDegrees>43.3326998166739940643310546875</LatitudeDegrees>
              <LongitudeDegrees>-1.88547450117766857147216796875</LongitudeDegrees>
            </Position>
            <AltitudeMeters>235.399993896484375</AltitudeMeters>
            <DistanceMeters>NAN</DistanceMeters>
          </Trackpoint>
          <Trackpoint>
            <Time>2022-07-09T06:57:35.000Z</Time>
            <Position>
              <LatitudeDegrees>43.33269990049302577972412109375</LatitudeDegrees>
              <LongitudeDegrees>-1.88554801046848297119140625</LongitudeDegrees>
            </Position>
            <AltitudeMeters>234.8000030517578125</AltitudeMeters>
            <DistanceMeters>NAN</DistanceMeters>
          </Trackpoint>
          <Trackpoint>
            <Time>2022-07-09T06:57:40.000Z</Time>
            <Position>
              <LatitudeDegrees>43.3327480964362621307373046875</LatitudeDegrees>
              <LongitudeDegrees>-1.8858088552951812744140625</LongitudeDegrees>
            </Position>
            <AltitudeMeters>233.600006103515625</AltitudeMeters>
            <DistanceMeters>NAN</DistanceMeters>
          </Trackpoint>
          <Trackpoint>
            <Time>2022-07-09T06:57:42.000Z</Time>
            <Position>
              <LatitudeDegrees>43.3327350206673145294189453125</LatitudeDegrees>
              <LongitudeDegrees>-1.88591589219868183135986328125</LongitudeDegrees>
            </Position>
            <AltitudeMeters>233</AltitudeMeters>
            <DistanceMeters>NAN</DistanceMeters>
          </Trackpoint>
          <Trackpoint>
            <Time>2022-07-09T06:57:44.000Z</Time>
            <Position>
              <LatitudeDegrees>43.33279319107532501220703125</LatitudeDegrees>
              <LongitudeDegrees>-1.8860081769526004791259765625</LongitudeDegrees>
            </Position>
            <AltitudeMeters>232</AltitudeMeters>
            <DistanceMeters>NAN</DistanceMeters>
          </Trackpoint>
          <Trackpoint>
            <Time>2022-07-09T06:57:47.000Z</Time>
            <Position>
              <LatitudeDegrees>43.332796879112720489501953125</LatitudeDegrees>
              <LongitudeDegrees>-1.88612778671085834503173828125</LongitudeDegrees>
            </Position>
            <AltitudeMeters>231</AltitudeMeters>
            <DistanceMeters>NAN</DistanceMeters>
          </Trackpoint>
          <Trackpoint>
            <Time>2022-07-09T06:57:48.000Z</Time>
            <Position>
              <LatitudeDegrees>43.332790844142436981201171875</LatitudeDegrees>
              <LongitudeDegrees>-1.8861520104110240936279296875</LongitudeDegrees>
            </Position>
            <AltitudeMeters>230.600006103515625</AltitudeMeters>
            <DistanceMeters>NAN</DistanceMeters>
          </Trackpoint>
          <Trackpoint>
            <Time>2022-07-09T06:57:52.000Z</Time>
            <Position>
              <LatitudeDegrees>43.332795202732086181640625</LatitudeDegrees>
              <LongitudeDegrees>-1.8862026371061801910400390625</LongitudeDegrees>
            </Position>
            <AltitudeMeters>229.8000030517578125</AltitudeMeters>
            <DistanceMeters>NAN</DistanceMeters>
          </Trackpoint>
          <Trackpoint>
            <Time>2022-07-09T06:57:53.000Z</Time>
            <Position>
              <LatitudeDegrees>43.3327903412282466888427734375</LatitudeDegrees>
              <LongitudeDegrees>-1.88621244393289089202880859375</LongitudeDegrees>
            </Position>
            <AltitudeMeters>229.600006103515625</AltitudeMeters>
            <DistanceMeters>NAN</DistanceMeters>
          </Trackpoint>
          <Trackpoint>
            <Time>2022-07-09T06:57:57.000Z</Time>
            <Position>
              <LatitudeDegrees>43.33279210142791271209716796875</LatitudeDegrees>
              <LongitudeDegrees>-1.88626541756093502044677734375</LongitudeDegrees>
            </Position>
            <AltitudeMeters>229.399993896484375</AltitudeMeters>
            <DistanceMeters>NAN</DistanceMeters>
          </Trackpoint>
          <Trackpoint>
            <Time>2022-07-09T06:58:12.000Z</Time>
            <Position>
              <LatitudeDegrees>43.3327375352382659912109375</LatitudeDegrees>
              <LongitudeDegrees>-1.8865479715168476104736328125</LongitudeDegrees>
            </Position>
            <AltitudeMeters>228</AltitudeMeters>
            <DistanceMeters>NAN</DistanceMeters>
          </Trackpoint>
          <Trackpoint>
            <Time>2022-07-09T06:58:13.000Z</Time>
            <Position>
              <LatitudeDegrees>43.33273611031472682952880859375</LatitudeDegrees>
              <LongitudeDegrees>-1.88658543862402439117431640625</LongitudeDegrees>
            </Position>
            <AltitudeMeters>227.8000030517578125</AltitudeMeters>
            <DistanceMeters>NAN</DistanceMeters>
          </Trackpoint>
          <Trackpoint>
            <Time>2022-07-09T06:58:17.000Z</Time>
            <Position>
              <LatitudeDegrees>43.33273879252374172210693359375</LatitudeDegrees>
              <LongitudeDegrees>-1.88675341196358203887939453125</LongitudeDegrees>
            </Position>
            <AltitudeMeters>226.8000030517578125</AltitudeMeters>
            <DistanceMeters>NAN</DistanceMeters>
          </Trackpoint>
          <Trackpoint>
            <Time>2022-07-09T06:58:19.000Z</Time>
            <Position>
              <LatitudeDegrees>43.33271968178451061248779296875</LatitudeDegrees>
              <LongitudeDegrees>-1.8868235684931278228759765625</LongitudeDegrees>
            </Position>
            <AltitudeMeters>226.600006103515625</AltitudeMeters>
            <DistanceMeters>NAN</DistanceMeters>
          </Trackpoint>
          <Trackpoint>
            <Time>2022-07-09T06:58:22.000Z</Time>
            <Position>
              <LatitudeDegrees>43.33271984942257404327392578125</LatitudeDegrees>
              <LongitudeDegrees>-1.88687427900731563568115234375</LongitudeDegrees>
            </Position>
            <AltitudeMeters>225.600006103515625</AltitudeMeters>
            <DistanceMeters>NAN</DistanceMeters>
          </Trackpoint>
          <Trackpoint>
            <Time>2022-07-09T06:58:25.000Z</Time>
            <Position>
              <LatitudeDegrees>43.33272873423993587493896484375</LatitudeDegrees>
              <LongitudeDegrees>-1.88690110109746456146240234375</LongitudeDegrees>
            </Position>
            <AltitudeMeters>225.1999969482421875</AltitudeMeters>
            <DistanceMeters>NAN</DistanceMeters>
          </Trackpoint>
          <Trackpoint>
            <Time>2022-07-09T06:58:26.000Z</Time>
            <Position>
              <LatitudeDegrees>43.33272051997482776641845703125</LatitudeDegrees>
              <LongitudeDegrees>-1.88692054711282253265380859375</LongitudeDegrees>
            </Position>
            <AltitudeMeters>225.1999969482421875</AltitudeMeters>
            <DistanceMeters>NAN</DistanceMeters>
          </Trackpoint>
          <Trackpoint>
            <Time>2022-07-09T06:58:28.000Z</Time>
            <Position>
              <LatitudeDegrees>43.332687914371490478515625</LatitudeDegrees>
              <LongitudeDegrees>-1.88699397258460521697998046875</LongitudeDegrees>
            </Position>
            <AltitudeMeters>224.600006103515625</AltitudeMeters>
            <DistanceMeters>NAN</DistanceMeters>
          </Trackpoint>
          <Trackpoint>
            <Time>2022-07-09T06:58:29.000Z</Time>
            <Position>
              <LatitudeDegrees>43.332680873572826385498046875</LatitudeDegrees>
              <LongitudeDegrees>-1.8870413303375244140625</LongitudeDegrees>
            </Position>
            <AltitudeMeters>224.399993896484375</AltitudeMeters>
            <DistanceMeters>NAN</DistanceMeters>
          </Trackpoint>
          <Trackpoint>
            <Time>2022-07-09T06:58:30.000Z</Time>
            <Position>
              <LatitudeDegrees>43.33267693407833576202392578125</LatitudeDegrees>
              <LongitudeDegrees>-1.8870860897004604339599609375</LongitudeDegrees>
            </Position>
            <AltitudeMeters>224.399993896484375</AltitudeMeters>
            <DistanceMeters>NAN</DistanceMeters>
          </Trackpoint>
          <Trackpoint>
            <Time>2022-07-09T06:58:32.000Z</Time>
            <Position>
              <LatitudeDegrees>43.33266134373843669891357421875</LatitudeDegrees>
              <LongitudeDegrees>-1.88715909607708454132080078125</LongitudeDegrees>
            </Position>
            <AltitudeMeters>223.399993896484375</AltitudeMeters>
            <DistanceMeters>NAN</DistanceMeters>
          </Trackpoint>
          <Trackpoint>
            <Time>2022-07-09T06:58:38.000Z</Time>
            <Position>
              <LatitudeDegrees>43.332618512213230133056640625</LatitudeDegrees>
              <LongitudeDegrees>-1.88729655928909778594970703125</LongitudeDegrees>
            </Position>
            <AltitudeMeters>222.399993896484375</AltitudeMeters>
            <DistanceMeters>NAN</DistanceMeters>
          </Trackpoint>
          <Trackpoint>
            <Time>2022-07-09T06:58:39.000Z</Time>
            <Position>
              <LatitudeDegrees>43.33260116167366504669189453125</LatitudeDegrees>
              <LongitudeDegrees>-1.887317262589931488037109375</LongitudeDegrees>
            </Position>
            <AltitudeMeters>222.1999969482421875</AltitudeMeters>
            <DistanceMeters>NAN</DistanceMeters>
          </Trackpoint>
          <Trackpoint>
            <Time>2022-07-09T06:58:42.000Z</Time>
            <Position>
              <LatitudeDegrees>43.33249202929437160491943359375</LatitudeDegrees>
              <LongitudeDegrees>-1.8874398060142993927001953125</LongitudeDegrees>
            </Position>
            <AltitudeMeters>221.8000030517578125</AltitudeMeters>
            <DistanceMeters>NAN</DistanceMeters>
          </Trackpoint>
          <Trackpoint>
            <Time>2022-07-09T06:58:44.000Z</Time>
            <Position>
              <LatitudeDegrees>43.33243587054312229156494140625</LatitudeDegrees>
              <LongitudeDegrees>-1.8874704837799072265625</LongitudeDegrees>
            </Position>
            <AltitudeMeters>221.1999969482421875</AltitudeMeters>
            <DistanceMeters>NAN</DistanceMeters>
          </Trackpoint>
          <Trackpoint>
            <Time>2022-07-09T06:58:47.000Z</Time>
            <Position>
              <LatitudeDegrees>43.3323298394680023193359375</LatitudeDegrees>
              <LongitudeDegrees>-1.88756763003766536712646484375</LongitudeDegrees>
            </Position>
            <AltitudeMeters>220.600006103515625</AltitudeMeters>
            <DistanceMeters>NAN</DistanceMeters>
          </Trackpoint>
          <Trackpoint>
            <Time>2022-07-09T06:58:52.000Z</Time>
            <Position>
              <LatitudeDegrees>43.33217603154480457305908203125</LatitudeDegrees>
              <LongitudeDegrees>-1.8878320790827274322509765625</LongitudeDegrees>
            </Position>
            <AltitudeMeters>220.399993896484375</AltitudeMeters>
            <DistanceMeters>NAN</DistanceMeters>
          </Trackpoint>
          <Trackpoint>
            <Time>2022-07-09T06:58:54.000Z</Time>
            <Position>
              <LatitudeDegrees>43.33211869932711124420166015625</LatitudeDegrees>
              <LongitudeDegrees>-1.887910030782222747802734375</LongitudeDegrees>
            </Position>
            <AltitudeMeters>220.1999969482421875</AltitudeMeters>
            <DistanceMeters>NAN</DistanceMeters>
          </Trackpoint>
          <Trackpoint>
            <Time>2022-07-09T06:58:59.000Z</Time>
            <Position>
              <LatitudeDegrees>43.33200420252978801727294921875</LatitudeDegrees>
              <LongitudeDegrees>-1.88806015066802501678466796875</LongitudeDegrees>
            </Position>
            <AltitudeMeters>219.8000030517578125</AltitudeMeters>
            <DistanceMeters>NAN</DistanceMeters>
          </Trackpoint>
          <Trackpoint>
            <Time>2022-07-09T06:59:04.000Z</Time>
            <Position>
              <LatitudeDegrees>43.33182223141193389892578125</LatitudeDegrees>
              <LongitudeDegrees>-1.88820968382060527801513671875</LongitudeDegrees>
            </Position>
            <AltitudeMeters>219.399993896484375</AltitudeMeters>
            <DistanceMeters>NAN</DistanceMeters>
          </Trackpoint>
          <Trackpoint>
            <Time>2022-07-09T06:59:08.000Z</Time>
            <Position>
              <LatitudeDegrees>43.3316906355321407318115234375</LatitudeDegrees>
              <LongitudeDegrees>-1.88829065300524234771728515625</LongitudeDegrees>
            </Position>
            <AltitudeMeters>219.1999969482421875</AltitudeMeters>
            <DistanceMeters>NAN</DistanceMeters>
          </Trackpoint>
          <Trackpoint>
            <Time>2022-07-09T06:59:10.000Z</Time>
            <Position>
              <LatitudeDegrees>43.3316322974860668182373046875</LatitudeDegrees>
              <LongitudeDegrees>-1.8883132003247737884521484375</LongitudeDegrees>
            </Position>
            <AltitudeMeters>218.8000030517578125</AltitudeMeters>
            <DistanceMeters>NAN</DistanceMeters>
          </Trackpoint>
          <Trackpoint>
            <Time>2022-07-09T06:59:15.000Z</Time>
            <Position>
              <LatitudeDegrees>43.331531547009944915771484375</LatitudeDegrees>
              <LongitudeDegrees>-1.88843767158687114715576171875</LongitudeDegrees>
            </Position>
            <AltitudeMeters>218.600006103515625</AltitudeMeters>
            <DistanceMeters>NAN</DistanceMeters>
          </Trackpoint>
          <Trackpoint>
            <Time>2022-07-09T06:59:21.000Z</Time>
            <Position>
              <LatitudeDegrees>43.3314599655568599700927734375</LatitudeDegrees>
              <LongitudeDegrees>-1.88853808678686618804931640625</LongitudeDegrees>
            </Position>
            <AltitudeMeters>218.399993896484375</AltitudeMeters>
            <DistanceMeters>NAN</DistanceMeters>
          </Trackpoint>
          <Trackpoint>
            <Time>2022-07-09T06:59:23.000Z</Time>
            <Position>
              <LatitudeDegrees>43.33144747652113437652587890625</LatitudeDegrees>
              <LongitudeDegrees>-1.88856415450572967529296875</LongitudeDegrees>
            </Position>
            <AltitudeMeters>218.600006103515625</AltitudeMeters>
            <DistanceMeters>NAN</DistanceMeters>
          </Trackpoint>
          <Trackpoint>
            <Time>2022-07-09T06:59:27.000Z</Time>
            <Position>
              <LatitudeDegrees>43.3314192295074462890625</LatitudeDegrees>
              <LongitudeDegrees>-1.8886840157210826873779296875</LongitudeDegrees>
            </Position>
            <AltitudeMeters>218.8000030517578125</AltitudeMeters>
            <DistanceMeters>NAN</DistanceMeters>
          </Trackpoint>
          <Trackpoint>
            <Time>2022-07-09T06:59:31.000Z</Time>
            <Position>
              <LatitudeDegrees>43.3313694410026073455810546875</LatitudeDegrees>
              <LongitudeDegrees>-1.88877931796014308929443359375</LongitudeDegrees>
            </Position>
            <AltitudeMeters>218.8000030517578125</AltitudeMeters>
            <DistanceMeters>NAN</DistanceMeters>
          </Trackpoint>
          <Trackpoint>
            <Time>2022-07-09T06:59:32.000Z</Time>
            <Position>
              <LatitudeDegrees>43.331352509558200836181640625</LatitudeDegrees>
              <LongitudeDegrees>-1.88880287110805511474609375</LongitudeDegrees>
            </Position>
            <AltitudeMeters>218.8000030517578125</AltitudeMeters>
            <DistanceMeters>NAN</DistanceMeters>
          </Trackpoint>
          <Trackpoint>
            <Time>2022-07-09T06:59:34.000Z</Time>
            <Position>
              <LatitudeDegrees>43.3313198201358318328857421875</LatitudeDegrees>
              <LongitudeDegrees>-1.88886330462992191314697265625</LongitudeDegrees>
            </Position>
            <AltitudeMeters>219</AltitudeMeters>
            <DistanceMeters>NAN</DistanceMeters>
          </Trackpoint>
          <Trackpoint>
            <Time>2022-07-09T06:59:39.000Z</Time>
            <Position>
              <LatitudeDegrees>43.33122569136321544647216796875</LatitudeDegrees>
              <LongitudeDegrees>-1.88906882889568805694580078125</LongitudeDegrees>
            </Position>
            <AltitudeMeters>219.1999969482421875</AltitudeMeters>
            <DistanceMeters>NAN</DistanceMeters>
          </Trackpoint>
          <Trackpoint>
            <Time>2022-07-09T06:59:41.000Z</Time>
            <Position>
              <LatitudeDegrees>43.33121932111680507659912109375</LatitudeDegrees>
              <LongitudeDegrees>-1.88910721801221370697021484375</LongitudeDegrees>
            </Position>
            <AltitudeMeters>219.1999969482421875</AltitudeMeters>
            <DistanceMeters>NAN</DistanceMeters>
          </Trackpoint>
          <Trackpoint>
            <Time>2022-07-09T06:59:42.000Z</Time>
            <Position>
              <LatitudeDegrees>43.33121605217456817626953125</LatitudeDegrees>
              <LongitudeDegrees>-1.88911643810570240020751953125</LongitudeDegrees>
            </Position>
            <AltitudeMeters>219.1999969482421875</AltitudeMeters>
            <DistanceMeters>NAN</DistanceMeters>
          </Trackpoint>
          <Trackpoint>
            <Time>2022-07-09T06:59:46.000Z</Time>
            <Position>
              <LatitudeDegrees>43.3312178961932659149169921875</LatitudeDegrees>
              <LongitudeDegrees>-1.8891483731567859649658203125</LongitudeDegrees>
            </Position>
            <AltitudeMeters>219.399993896484375</AltitudeMeters>
            <DistanceMeters>NAN</DistanceMeters>
          </Trackpoint>
          <Trackpoint>
            <Time>2022-07-09T06:59:51.000Z</Time>
            <Position>
              <LatitudeDegrees>43.33124027587473392486572265625</LatitudeDegrees>
              <LongitudeDegrees>-1.8891956470906734466552734375</LongitudeDegrees>
            </Position>
            <AltitudeMeters>219.399993896484375</AltitudeMeters>
            <DistanceMeters>NAN</DistanceMeters>
          </Trackpoint>
          <Trackpoint>
            <Time>2022-07-09T07:02:24.000Z</Time>
            <Position>
              <LatitudeDegrees>43.33078094758093357086181640625</LatitudeDegrees>
              <LongitudeDegrees>-1.89085417427122592926025390625</LongitudeDegrees>
            </Position>
            <AltitudeMeters>222.600006103515625</AltitudeMeters>
            <DistanceMeters>NAN</DistanceMeters>
          </Trackpoint>
          <Trackpoint>
            <Time>2022-07-09T07:02:25.000Z</Time>
            <Position>
              <LatitudeDegrees>43.33079771138727664947509765625</LatitudeDegrees>
              <LongitudeDegrees>-1.8908835947513580322265625</LongitudeDegrees>
            </Position>
            <AltitudeMeters>222.600006103515625</AltitudeMeters>
            <DistanceMeters>NAN</DistanceMeters>
          </Trackpoint>
          <Trackpoint>
            <Time>2022-07-09T07:02:27.000Z</Time>
            <Position>
              <LatitudeDegrees>43.330831825733184814453125</LatitudeDegrees>
              <LongitudeDegrees>-1.89092290587723255157470703125</LongitudeDegrees>
            </Position>
            <AltitudeMeters>222.600006103515625</AltitudeMeters>
            <DistanceMeters>NAN</DistanceMeters>
          </Trackpoint>
          <Trackpoint>
            <Time>2022-07-09T07:02:29.000Z</Time>
            <Position>
              <LatitudeDegrees>43.33086845465004444122314453125</LatitudeDegrees>
              <LongitudeDegrees>-1.890928857028484344482421875</LongitudeDegrees>
            </Position>
            <AltitudeMeters>222.8000030517578125</AltitudeMeters>
            <DistanceMeters>NAN</DistanceMeters>
          </Trackpoint>
          <Trackpoint>
            <Time>2022-07-09T07:02:33.000Z</Time>
            <Position>
              <LatitudeDegrees>43.3308641798794269561767578125</LatitudeDegrees>
              <LongitudeDegrees>-1.89109238795936107635498046875</LongitudeDegrees>
            </Position>
            <AltitudeMeters>222.8000030517578125</AltitudeMeters>
            <DistanceMeters>NAN</DistanceMeters>
          </Trackpoint>
          <Trackpoint>
            <Time>2022-07-09T07:02:41.000Z</Time>
            <Position>
              <LatitudeDegrees>43.33095277659595012664794921875</LatitudeDegrees>
              <LongitudeDegrees>-1.89148164354264736175537109375</LongitudeDegrees>
            </Position>
            <AltitudeMeters>222.8000030517578125</AltitudeMeters>
            <DistanceMeters>NAN</DistanceMeters>
          </Trackpoint>
          <Trackpoint>
            <Time>2022-07-09T07:02:45.000Z</Time>
            <Position>
              <LatitudeDegrees>43.33096392452716827392578125</LatitudeDegrees>
              <LongitudeDegrees>-1.89154601655900478363037109375</LongitudeDegrees>
            </Position>
            <AltitudeMeters>223</AltitudeMeters>
            <DistanceMeters>NAN</DistanceMeters>
          </Trackpoint>
          <Trackpoint>
            <Time>2022-07-09T07:02:47.000Z</Time>
            <Position>
              <LatitudeDegrees>43.33098043687641620635986328125</LatitudeDegrees>
              <LongitudeDegrees>-1.8916223756968975067138671875</LongitudeDegrees>
            </Position>
            <AltitudeMeters>222.8000030517578125</AltitudeMeters>
            <DistanceMeters>NAN</DistanceMeters>
          </Trackpoint>
          <Trackpoint>
            <Time>2022-07-09T07:02:48.000Z</Time>
            <Position>
              <LatitudeDegrees>43.3310003019869327545166015625</LatitudeDegrees>
              <LongitudeDegrees>-1.89165548421442508697509765625</LongitudeDegrees>
            </Position>
            <AltitudeMeters>223</AltitudeMeters>
            <DistanceMeters>NAN</DistanceMeters>
          </Trackpoint>
          <Trackpoint>
            <Time>2022-07-09T07:02:51.000Z</Time>
            <Position>
              <LatitudeDegrees>43.3310562931001186370849609375</LatitudeDegrees>
              <LongitudeDegrees>-1.89172488637268543243408203125</LongitudeDegrees>
            </Position>
            <AltitudeMeters>222.8000030517578125</AltitudeMeters>
            <DistanceMeters>NAN</DistanceMeters>
          </Trackpoint>
          <Trackpoint>
            <Time>2022-07-09T07:02:53.000Z</Time>
            <Position>
              <LatitudeDegrees>43.33107599057257175445556640625</LatitudeDegrees>
              <LongitudeDegrees>-1.89177568070590496063232421875</LongitudeDegrees>
            </Position>
            <AltitudeMeters>222.8000030517578125</AltitudeMeters>
            <DistanceMeters>NAN</DistanceMeters>
          </Trackpoint>
          <Trackpoint>
            <Time>2022-07-09T07:02:57.000Z</Time>
            <Position>
              <LatitudeDegrees>43.33111957646906375885009765625</LatitudeDegrees>
              <LongitudeDegrees>-1.89187877811491489410400390625</LongitudeDegrees>
            </Position>
            <AltitudeMeters>222.600006103515625</AltitudeMeters>
            <DistanceMeters>NAN</DistanceMeters>
          </Trackpoint>
          <Trackpoint>
            <Time>2022-07-09T07:02:59.000Z</Time>
            <Position>
              <LatitudeDegrees>43.33115880377590656280517578125</LatitudeDegrees>
              <LongitudeDegrees>-1.891954131424427032470703125</LongitudeDegrees>
            </Position>
            <AltitudeMeters>222.600006103515625</AltitudeMeters>
            <DistanceMeters>NAN</DistanceMeters>
          </Trackpoint>
          <Trackpoint>
            <Time>2022-07-09T07:03:05.000Z</Time>
            <Position>
              <LatitudeDegrees>43.3312225900590419769287109375</LatitudeDegrees>
              <LongitudeDegrees>-1.89213727600872516632080078125</LongitudeDegrees>
            </Position>
            <AltitudeMeters>222.600006103515625</AltitudeMeters>
            <DistanceMeters>NAN</DistanceMeters>
          </Trackpoint>
          <Trackpoint>
            <Time>2022-07-09T07:03:12.000Z</Time>
            <Position>
              <LatitudeDegrees>43.3313080854713916778564453125</LatitudeDegrees>
              <LongitudeDegrees>-1.89229913055896759033203125</LongitudeDegrees>
            </Position>
            <AltitudeMeters>222.399993896484375</AltitudeMeters>
            <DistanceMeters>NAN</DistanceMeters>
          </Trackpoint>
          <Trackpoint>
            <Time>2022-07-09T07:03:14.000Z</Time>
            <Position>
              <LatitudeDegrees>43.33133700303733348846435546875</LatitudeDegrees>
              <LongitudeDegrees>-1.89236090518534183502197265625</LongitudeDegrees>
            </Position>
            <AltitudeMeters>222.1999969482421875</AltitudeMeters>
            <DistanceMeters>NAN</DistanceMeters>
          </Trackpoint>
          <Trackpoint>
            <Time>2022-07-09T07:03:17.000Z</Time>
            <Position>
              <LatitudeDegrees>43.3314232528209686279296875</LatitudeDegrees>
              <LongitudeDegrees>-1.89247548580169677734375</LongitudeDegrees>
            </Position>
            <AltitudeMeters>222</AltitudeMeters>
            <DistanceMeters>NAN</DistanceMeters>
          </Trackpoint>
          <Trackpoint>
            <Time>2022-07-09T07:03:18.000Z</Time>
            <Position>
              <LatitudeDegrees>43.33144462667405605316162109375</LatitudeDegrees>
              <LongitudeDegrees>-1.892516724765300750732421875</LongitudeDegrees>
            </Position>
            <AltitudeMeters>222</AltitudeMeters>
            <DistanceMeters>NAN</DistanceMeters>
          </Trackpoint>
          <Trackpoint>
            <Time>2022-07-09T07:03:20.000Z</Time>
            <Position>
              <LatitudeDegrees>43.3314177207648754119873046875</LatitudeDegrees>
              <LongitudeDegrees>-1.89257347024977207183837890625</LongitudeDegrees>
            </Position>
            <AltitudeMeters>221.8000030517578125</AltitudeMeters>
            <DistanceMeters>NAN</DistanceMeters>
          </Trackpoint>
          <Trackpoint>
            <Time>2022-07-09T07:03:22.000Z</Time>
            <Position>
              <LatitudeDegrees>43.3314421959221363067626953125</LatitudeDegrees>
              <LongitudeDegrees>-1.89264220185577869415283203125</LongitudeDegrees>
            </Position>
            <AltitudeMeters>221.399993896484375</AltitudeMeters>
            <DistanceMeters>NAN</DistanceMeters>
          </Trackpoint>
          <Trackpoint>
            <Time>2022-07-09T07:03:28.000Z</Time>
            <Position>
              <LatitudeDegrees>43.33144269883632659912109375</LatitudeDegrees>
              <LongitudeDegrees>-1.8928201496601104736328125</LongitudeDegrees>
            </Position>
            <AltitudeMeters>221.1999969482421875</AltitudeMeters>
            <DistanceMeters>NAN</DistanceMeters>
          </Trackpoint>
          <Trackpoint>
            <Time>2022-07-09T07:03:34.000Z</Time>
            <Position>
              <LatitudeDegrees>43.331546969711780548095703125</LatitudeDegrees>
              <LongitudeDegrees>-1.8930280208587646484375</LongitudeDegrees>
            </Position>
            <AltitudeMeters>221.1999969482421875</AltitudeMeters>
            <DistanceMeters>NAN</DistanceMeters>
          </Trackpoint>
          <Trackpoint>
            <Time>2022-07-09T07:03:37.000Z</Time>
            <Position>
              <LatitudeDegrees>43.331549651920795440673828125</LatitudeDegrees>
              <LongitudeDegrees>-1.893106810748577117919921875</LongitudeDegrees>
            </Position>
            <AltitudeMeters>221.1999969482421875</AltitudeMeters>
            <DistanceMeters>NAN</DistanceMeters>
          </Trackpoint>
          <Trackpoint>
            <Time>2022-07-09T07:03:39.000Z</Time>
            <Position>
              <LatitudeDegrees>43.33154034800827503204345703125</LatitudeDegrees>
              <LongitudeDegrees>-1.89316707663238048553466796875</LongitudeDegrees>
            </Position>
            <AltitudeMeters>221.1999969482421875</AltitudeMeters>
            <DistanceMeters>NAN</DistanceMeters>
          </Trackpoint>
          <Trackpoint>
            <Time>2022-07-09T07:03:44.000Z</Time>
            <Position>
              <LatitudeDegrees>43.3315273560583591461181640625</LatitudeDegrees>
              <LongitudeDegrees>-1.89331912435591220855712890625</LongitudeDegrees>
            </Position>
            <AltitudeMeters>221.1999969482421875</AltitudeMeters>
            <DistanceMeters>NAN</DistanceMeters>
          </Trackpoint>
          <Trackpoint>
            <Time>2022-07-09T07:03:45.000Z</Time>
            <Position>
              <LatitudeDegrees>43.33151469938457012176513671875</LatitudeDegrees>
              <LongitudeDegrees>-1.89334846101701259613037109375</LongitudeDegrees>
            </Position>
            <AltitudeMeters>221.1999969482421875</AltitudeMeters>
            <DistanceMeters>NAN</DistanceMeters>
          </Trackpoint>
          <Trackpoint>
            <Time>2022-07-09T07:03:48.000Z</Time>
            <Position>
              <LatitudeDegrees>43.33150983788073062896728515625</LatitudeDegrees>
              <LongitudeDegrees>-1.89343462698161602020263671875</LongitudeDegrees>
            </Position>
            <AltitudeMeters>221.1999969482421875</AltitudeMeters>
            <DistanceMeters>NAN</DistanceMeters>
          </Trackpoint>
          <Trackpoint>
            <Time>2022-07-09T07:03:51.000Z</Time>
            <Position>
              <LatitudeDegrees>43.33153548650443553924560546875</LatitudeDegrees>
              <LongitudeDegrees>-1.89357586205005645751953125</LongitudeDegrees>
            </Position>
            <AltitudeMeters>221</AltitudeMeters>
            <DistanceMeters>NAN</DistanceMeters>
          </Trackpoint>
          <Trackpoint>
            <Time>2022-07-09T07:03:54.000Z</Time>
            <Position>
              <LatitudeDegrees>43.331535570323467254638671875</LatitudeDegrees>
              <LongitudeDegrees>-1.8937138281762599945068359375</LongitudeDegrees>
            </Position>
            <AltitudeMeters>220.8000030517578125</AltitudeMeters>
            <DistanceMeters>NAN</DistanceMeters>
          </Trackpoint>
          <Trackpoint>
            <Time>2022-07-09T07:03:57.000Z</Time>
            <Position>
              <LatitudeDegrees>43.33154755644500255584716796875</LatitudeDegrees>
              <LongitudeDegrees>-1.8938180990517139434814453125</LongitudeDegrees>
            </Position>
            <AltitudeMeters>220.399993896484375</AltitudeMeters>
            <DistanceMeters>NAN</DistanceMeters>
          </Trackpoint>
          <Trackpoint>
            <Time>2022-07-09T07:03:58.000Z</Time>
            <Position>
              <LatitudeDegrees>43.33155593834817409515380859375</LatitudeDegrees>
              <LongitudeDegrees>-1.8938590027391910552978515625</LongitudeDegrees>
            </Position>
            <AltitudeMeters>220.399993896484375</AltitudeMeters>
            <DistanceMeters>NAN</DistanceMeters>
          </Trackpoint>
          <Trackpoint>
            <Time>2022-07-09T07:04:00.000Z</Time>
            <Position>
              <LatitudeDegrees>43.3315099216997623443603515625</LatitudeDegrees>
              <LongitudeDegrees>-1.89395966939628124237060546875</LongitudeDegrees>
            </Position>
            <AltitudeMeters>220.1999969482421875</AltitudeMeters>
            <DistanceMeters>NAN</DistanceMeters>
          </Trackpoint>
          <Trackpoint>
            <Time>2022-07-09T07:04:01.000Z</Time>
            <Position>
              <LatitudeDegrees>43.33147278986871242523193359375</LatitudeDegrees>
              <LongitudeDegrees>-1.894016079604625701904296875</LongitudeDegrees>
            </Position>
            <AltitudeMeters>220</AltitudeMeters>
            <DistanceMeters>NAN</DistanceMeters>
          </Trackpoint>
          <Trackpoint>
            <Time>2022-07-09T07:04:03.000Z</Time>
            <Position>
              <LatitudeDegrees>43.331473879516124725341796875</LatitudeDegrees>
              <LongitudeDegrees>-1.894107945263385772705078125</LongitudeDegrees>
            </Position>
            <AltitudeMeters>219.600006103515625</AltitudeMeters>
            <DistanceMeters>NAN</DistanceMeters>
          </Trackpoint>
          <Trackpoint>
            <Time>2022-07-09T07:04:04.000Z</Time>
            <Position>
              <LatitudeDegrees>43.331476561725139617919921875</LatitudeDegrees>
              <LongitudeDegrees>-1.89413786865770816802978515625</LongitudeDegrees>
            </Position>
            <AltitudeMeters>219.399993896484375</AltitudeMeters>
            <DistanceMeters>NAN</DistanceMeters>
          </Trackpoint>
          <Trackpoint>
            <Time>2022-07-09T07:04:09.000Z</Time>
            <Position>
              <LatitudeDegrees>43.33145686425268650054931640625</LatitudeDegrees>
              <LongitudeDegrees>-1.8942901678383350372314453125</LongitudeDegrees>
            </Position>
            <AltitudeMeters>218.600006103515625</AltitudeMeters>
            <DistanceMeters>NAN</DistanceMeters>
          </Trackpoint>
          <Trackpoint>
            <Time>2022-07-09T07:04:10.000Z</Time>
            <Position>
              <LatitudeDegrees>43.3314401842653751373291015625</LatitudeDegrees>
              <LongitudeDegrees>-1.89431170932948589324951171875</LongitudeDegrees>
            </Position>
            <AltitudeMeters>218.600006103515625</AltitudeMeters>
            <DistanceMeters>NAN</DistanceMeters>
          </Trackpoint>
          <Trackpoint>
            <Time>2022-07-09T07:04:14.000Z</Time>
            <Position>
              <LatitudeDegrees>43.33136198110878467559814453125</LatitudeDegrees>
              <LongitudeDegrees>-1.89442637376487255096435546875</LongitudeDegrees>
            </Position>
            <AltitudeMeters>218.600006103515625</AltitudeMeters>
            <DistanceMeters>NAN</DistanceMeters>
          </Trackpoint>
          <Trackpoint>
            <Time>2022-07-09T07:04:16.000Z</Time>
            <Position>
              <LatitudeDegrees>43.3313251845538616180419921875</LatitudeDegrees>
              <LongitudeDegrees>-1.89450298435986042022705078125</LongitudeDegrees>
            </Position>
            <AltitudeMeters>218.399993896484375</AltitudeMeters>
            <DistanceMeters>NAN</DistanceMeters>
          </Trackpoint>
          <Trackpoint>
            <Time>2022-07-09T07:04:21.000Z</Time>
            <Position>
              <LatitudeDegrees>43.33126835525035858154296875</LatitudeDegrees>
              <LongitudeDegrees>-1.894705407321453094482421875</LongitudeDegrees>
            </Position>
            <AltitudeMeters>218.399993896484375</AltitudeMeters>
            <DistanceMeters>NAN</DistanceMeters>
          </Trackpoint>
          <Trackpoint>
            <Time>2022-07-09T07:04:26.000Z</Time>
            <Position>
              <LatitudeDegrees>43.33125536330044269561767578125</LatitudeDegrees>
              <LongitudeDegrees>-1.89491872675716876983642578125</LongitudeDegrees>
            </Position>
            <AltitudeMeters>218.1999969482421875</AltitudeMeters>
            <DistanceMeters>NAN</DistanceMeters>
          </Trackpoint>
          <Trackpoint>
            <Time>2022-07-09T07:04:28.000Z</Time>
            <Position>
              <LatitudeDegrees>43.33122753538191318511962890625</LatitudeDegrees>
              <LongitudeDegrees>-1.89501645974814891815185546875</LongitudeDegrees>
            </Position>
            <AltitudeMeters>218.1999969482421875</AltitudeMeters>
            <DistanceMeters>NAN</DistanceMeters>
          </Trackpoint>
          <Trackpoint>
            <Time>2022-07-09T07:04:35.000Z</Time>
            <Position>
              <LatitudeDegrees>43.33116031251847743988037109375</LatitudeDegrees>
              <LongitudeDegrees>-1.89531083218753337860107421875</LongitudeDegrees>
            </Position>
            <AltitudeMeters>217.8000030517578125</AltitudeMeters>
            <DistanceMeters>NAN</DistanceMeters>
          </Trackpoint>
          <Trackpoint>
            <Time>2022-07-09T07:04:37.000Z</Time>
            <Position>
              <LatitudeDegrees>43.33114991895854473114013671875</LatitudeDegrees>
              <LongitudeDegrees>-1.89537470228970050811767578125</LongitudeDegrees>
            </Position>
            <AltitudeMeters>217.600006103515625</AltitudeMeters>
            <DistanceMeters>NAN</DistanceMeters>
          </Trackpoint>
          <Trackpoint>
            <Time>2022-07-09T07:04:44.000Z</Time>
            <Position>
              <LatitudeDegrees>43.33104447461664676666259765625</LatitudeDegrees>
              <LongitudeDegrees>-1.895719282329082489013671875</LongitudeDegrees>
            </Position>
            <AltitudeMeters>217.1999969482421875</AltitudeMeters>
            <DistanceMeters>NAN</DistanceMeters>
          </Trackpoint>
          <Trackpoint>
            <Time>2022-07-09T07:04:47.000Z</Time>
            <Position>
              <LatitudeDegrees>43.3309711329638957977294921875</LatitudeDegrees>
              <LongitudeDegrees>-1.89586110413074493408203125</LongitudeDegrees>
            </Position>
            <AltitudeMeters>217</AltitudeMeters>
            <DistanceMeters>NAN</DistanceMeters>
          </Trackpoint>
          <Trackpoint>
            <Time>2022-07-09T07:04:49.000Z</Time>
            <Position>
              <LatitudeDegrees>43.33093282766640186309814453125</LatitudeDegrees>
              <LongitudeDegrees>-1.89597099088132381439208984375</LongitudeDegrees>
            </Position>
            <AltitudeMeters>216.1999969482421875</AltitudeMeters>
            <DistanceMeters>NAN</DistanceMeters>
          </Trackpoint>
          <Trackpoint>
            <Time>2022-07-09T07:04:50.000Z</Time>
            <Position>
              <LatitudeDegrees>43.3309154771268367767333984375</LatitudeDegrees>
              <LongitudeDegrees>-1.896015666425228118896484375</LongitudeDegrees>
            </Position>
            <AltitudeMeters>216</AltitudeMeters>
            <DistanceMeters>NAN</DistanceMeters>
          </Trackpoint>
          <Trackpoint>
            <Time>2022-07-09T07:04:54.000Z</Time>
            <Position>
              <LatitudeDegrees>43.33087935112416744232177734375</LatitudeDegrees>
              <LongitudeDegrees>-1.89616075716912746429443359375</LongitudeDegrees>
            </Position>
            <AltitudeMeters>214.600006103515625</AltitudeMeters>
            <DistanceMeters>NAN</DistanceMeters>
          </Trackpoint>
          <Trackpoint>
            <Time>2022-07-09T07:04:55.000Z</Time>
            <Position>
              <LatitudeDegrees>43.33086694590747356414794921875</LatitudeDegrees>
              <LongitudeDegrees>-1.89619512297213077545166015625</LongitudeDegrees>
            </Position>
            <AltitudeMeters>214.1999969482421875</AltitudeMeters>
            <DistanceMeters>NAN</DistanceMeters>
          </Trackpoint>
          <Trackpoint>
            <Time>2022-07-09T07:04:58.000Z</Time>
            <Position>
              <LatitudeDegrees>43.33074775524437427520751953125</LatitudeDegrees>
              <LongitudeDegrees>-1.89634432084858417510986328125</LongitudeDegrees>
            </Position>
            <AltitudeMeters>213.1999969482421875</AltitudeMeters>
            <DistanceMeters>NAN</DistanceMeters>
          </Trackpoint>
          <Trackpoint>
            <Time>2022-07-09T07:05:00.000Z</Time>
            <Position>
              <LatitudeDegrees>43.33073618821799755096435546875</LatitudeDegrees>
              <LongitudeDegrees>-1.8964496813714504241943359375</LongitudeDegrees>
            </Position>
            <AltitudeMeters>213</AltitudeMeters>
            <DistanceMeters>NAN</DistanceMeters>
          </Trackpoint>
          <Trackpoint>
            <Time>2022-07-09T07:05:02.000Z</Time>
            <Position>
              <LatitudeDegrees>43.33072277717292308807373046875</LatitudeDegrees>
              <LongitudeDegrees>-1.89650977961719036102294921875</LongitudeDegrees>
            </Position>
            <AltitudeMeters>212.1999969482421875</AltitudeMeters>
            <DistanceMeters>NAN</DistanceMeters>
          </Trackpoint>
          <Trackpoint>
            <Time>2022-07-09T07:05:05.000Z</Time>
            <Position>
              <LatitudeDegrees>43.330692350864410400390625</LatitudeDegrees>
              <LongitudeDegrees>-1.8966476619243621826171875</LongitudeDegrees>
            </Position>
            <AltitudeMeters>211</AltitudeMeters>
            <DistanceMeters>NAN</DistanceMeters>
          </Trackpoint>
          <Trackpoint>
            <Time>2022-07-09T07:05:09.000Z</Time>
            <Position>
              <LatitudeDegrees>43.3306695520877838134765625</LatitudeDegrees>
              <LongitudeDegrees>-1.89683340489864349365234375</LongitudeDegrees>
            </Position>
            <AltitudeMeters>210</AltitudeMeters>
            <DistanceMeters>NAN</DistanceMeters>
          </Trackpoint>
          <Trackpoint>
            <Time>2022-07-09T07:05:11.000Z</Time>
            <Position>
              <LatitudeDegrees>43.33065253682434558868408203125</LatitudeDegrees>
              <LongitudeDegrees>-1.89693264663219451904296875</LongitudeDegrees>
            </Position>
            <AltitudeMeters>209.8000030517578125</AltitudeMeters>
            <DistanceMeters>NAN</DistanceMeters>
          </Trackpoint>
          <Trackpoint>
            <Time>2022-07-09T07:05:17.000Z</Time>
            <Position>
              <LatitudeDegrees>43.3305869065225124359130859375</LatitudeDegrees>
              <LongitudeDegrees>-1.8972979299724102020263671875</LongitudeDegrees>
            </Position>
            <AltitudeMeters>208.8000030517578125</AltitudeMeters>
            <DistanceMeters>NAN</DistanceMeters>
          </Trackpoint>
          <Trackpoint>
            <Time>2022-07-09T07:05:25.000Z</Time>
            <Position>
              <LatitudeDegrees>43.33064608275890350341796875</LatitudeDegrees>
              <LongitudeDegrees>-1.89768391661345958709716796875</LongitudeDegrees>
            </Position>
            <AltitudeMeters>208.1999969482421875</AltitudeMeters>
            <DistanceMeters>NAN</DistanceMeters>
          </Trackpoint>
          <Trackpoint>
            <Time>2022-07-09T07:05:29.000Z</Time>
            <Position>
              <LatitudeDegrees>43.33068824373185634613037109375</LatitudeDegrees>
              <LongitudeDegrees>-1.89776387996971607208251953125</LongitudeDegrees>
            </Position>
            <AltitudeMeters>208.1999969482421875</AltitudeMeters>
            <DistanceMeters>NAN</DistanceMeters>
          </Trackpoint>
          <Trackpoint>
            <Time>2022-07-09T07:05:31.000Z</Time>
            <Position>
              <LatitudeDegrees>43.330710791051387786865234375</LatitudeDegrees>
              <LongitudeDegrees>-1.89779053442180156707763671875</LongitudeDegrees>
            </Position>
            <AltitudeMeters>208.399993896484375</AltitudeMeters>
            <DistanceMeters>NAN</DistanceMeters>
          </Trackpoint>
          <Trackpoint>
            <Time>2022-07-09T07:05:34.000Z</Time>
            <Position>
              <LatitudeDegrees>43.3307464979588985443115234375</LatitudeDegrees>
              <LongitudeDegrees>-1.89781970344483852386474609375</LongitudeDegrees>
            </Position>
            <AltitudeMeters>208.399993896484375</AltitudeMeters>
            <DistanceMeters>NAN</DistanceMeters>
          </Trackpoint>
          <Trackpoint>
            <Time>2022-07-09T07:05:37.000Z</Time>
            <Position>
              <LatitudeDegrees>43.3308063447475433349609375</LatitudeDegrees>
              <LongitudeDegrees>-1.89784233458340167999267578125</LongitudeDegrees>
            </Position>
            <AltitudeMeters>208.600006103515625</AltitudeMeters>
            <DistanceMeters>NAN</DistanceMeters>
          </Trackpoint>
          <Trackpoint>
            <Time>2022-07-09T07:05:40.000Z</Time>
            <Position>
              <LatitudeDegrees>43.33084163255989551544189453125</LatitudeDegrees>
              <LongitudeDegrees>-1.89787317998707294464111328125</LongitudeDegrees>
            </Position>
            <AltitudeMeters>209</AltitudeMeters>
            <DistanceMeters>NAN</DistanceMeters>
          </Trackpoint>
          <Trackpoint>
            <Time>2022-07-09T07:05:44.000Z</Time>
            <Position>
              <LatitudeDegrees>43.33088924176990985870361328125</LatitudeDegrees>
              <LongitudeDegrees>-1.89791701734066009521484375</LongitudeDegrees>
            </Position>
            <AltitudeMeters>209.1999969482421875</AltitudeMeters>
            <DistanceMeters>NAN</DistanceMeters>
          </Trackpoint>
          <Trackpoint>
            <Time>2022-07-09T07:05:48.000Z</Time>
            <Position>
              <LatitudeDegrees>43.3309744857251644134521484375</LatitudeDegrees>
              <LongitudeDegrees>-1.8980050273239612579345703125</LongitudeDegrees>
            </Position>
            <AltitudeMeters>209.600006103515625</AltitudeMeters>
            <DistanceMeters>NAN</DistanceMeters>
          </Trackpoint>
          <Trackpoint>
            <Time>2022-07-09T07:05:52.000Z</Time>
            <Position>
              <LatitudeDegrees>43.33103408105671405792236328125</LatitudeDegrees>
              <LongitudeDegrees>-1.8980382196605205535888671875</LongitudeDegrees>
            </Position>
            <AltitudeMeters>209.8000030517578125</AltitudeMeters>
            <DistanceMeters>NAN</DistanceMeters>
          </Trackpoint>
          <Trackpoint>
            <Time>2022-07-09T07:05:54.000Z</Time>
            <Position>
              <LatitudeDegrees>43.33108588121831417083740234375</LatitudeDegrees>
              <LongitudeDegrees>-1.8980637006461620330810546875</LongitudeDegrees>
            </Position>
            <AltitudeMeters>210</AltitudeMeters>
            <DistanceMeters>NAN</DistanceMeters>
          </Trackpoint>
          <Trackpoint>
            <Time>2022-07-09T07:06:00.000Z</Time>
            <Position>
              <LatitudeDegrees>43.33125368691980838775634765625</LatitudeDegrees>
              <LongitudeDegrees>-1.89807753078639507293701171875</LongitudeDegrees>
            </Position>
            <AltitudeMeters>210.399993896484375</AltitudeMeters>
            <DistanceMeters>NAN</DistanceMeters>
          </Trackpoint>
          <Trackpoint>
            <Time>2022-07-09T07:06:04.000Z</Time>
            <Position>
              <LatitudeDegrees>43.33131085149943828582763671875</LatitudeDegrees>
              <LongitudeDegrees>-1.89808792434632778167724609375</LongitudeDegrees>
            </Position>
            <AltitudeMeters>210.1999969482421875</AltitudeMeters>
            <DistanceMeters>NAN</DistanceMeters>
          </Trackpoint>
          <Trackpoint>
            <Time>2022-07-09T07:06:06.000Z</Time>
            <Position>
              <LatitudeDegrees>43.33134270273149013519287109375</LatitudeDegrees>
              <LongitudeDegrees>-1.89806990325450897216796875</LongitudeDegrees>
            </Position>
            <AltitudeMeters>210.399993896484375</AltitudeMeters>
            <DistanceMeters>NAN</DistanceMeters>
          </Trackpoint>
          <Trackpoint>
            <Time>2022-07-09T07:06:12.000Z</Time>
            <Position>
              <LatitudeDegrees>43.331459127366542816162109375</LatitudeDegrees>
              <LongitudeDegrees>-1.8981260620057582855224609375</LongitudeDegrees>
            </Position>
            <AltitudeMeters>210.399993896484375</AltitudeMeters>
            <DistanceMeters>NAN</DistanceMeters>
          </Trackpoint>
          <Trackpoint>
            <Time>2022-07-09T07:06:17.000Z</Time>
            <Position>
              <LatitudeDegrees>43.3315129391849040985107421875</LatitudeDegrees>
              <LongitudeDegrees>-1.898211054503917694091796875</LongitudeDegrees>
            </Position>
            <AltitudeMeters>210.600006103515625</AltitudeMeters>
            <DistanceMeters>NAN</DistanceMeters>
          </Trackpoint>
          <Trackpoint>
            <Time>2022-07-09T07:06:22.000Z</Time>
            <Position>
              <LatitudeDegrees>43.3315561898052692413330078125</LatitudeDegrees>
              <LongitudeDegrees>-1.89832144416868686676025390625</LongitudeDegrees>
            </Position>
            <AltitudeMeters>210.600006103515625</AltitudeMeters>
            <DistanceMeters>NAN</DistanceMeters>
          </Trackpoint>
          <Trackpoint>
            <Time>2022-07-09T07:06:24.000Z</Time>
            <Position>
              <LatitudeDegrees>43.3315736241638660430908203125</LatitudeDegrees>
              <LongitudeDegrees>-1.89837299287319183349609375</LongitudeDegrees>
            </Position>
            <AltitudeMeters>210.8000030517578125</AltitudeMeters>
            <DistanceMeters>NAN</DistanceMeters>
          </Trackpoint>
          <Trackpoint>
            <Time>2022-07-09T07:06:30.000Z</Time>
            <Position>
              <LatitudeDegrees>43.3316835947334766387939453125</LatitudeDegrees>
              <LongitudeDegrees>-1.89846661873161792755126953125</LongitudeDegrees>
            </Position>
            <AltitudeMeters>211</AltitudeMeters>
            <DistanceMeters>NAN</DistanceMeters>
          </Trackpoint>
          <Trackpoint>
            <Time>2022-07-09T07:06:33.000Z</Time>
            <Position>
              <LatitudeDegrees>43.33173313178122043609619140625</LatitudeDegrees>
              <LongitudeDegrees>-1.8985126353800296783447265625</LongitudeDegrees>
            </Position>
            <AltitudeMeters>211</AltitudeMeters>
            <DistanceMeters>NAN</DistanceMeters>
          </Trackpoint>
          <Trackpoint>
            <Time>2022-07-09T07:06:36.000Z</Time>
            <Position>
              <LatitudeDegrees>43.331793062388896942138671875</LatitudeDegrees>
              <LongitudeDegrees>-1.89855328761041164398193359375</LongitudeDegrees>
            </Position>
            <AltitudeMeters>211</AltitudeMeters>
            <DistanceMeters>NAN</DistanceMeters>
          </Trackpoint>
          <Trackpoint>
            <Time>2022-07-09T07:06:42.000Z</Time>
            <Position>
              <LatitudeDegrees>43.33196103572845458984375</LatitudeDegrees>
              <LongitudeDegrees>-1.898599304258823394775390625</LongitudeDegrees>
            </Position>
            <AltitudeMeters>210.8000030517578125</AltitudeMeters>
            <DistanceMeters>NAN</DistanceMeters>
          </Trackpoint>
          <Trackpoint>
            <Time>2022-07-09T07:06:45.000Z</Time>
            <Position>
              <LatitudeDegrees>43.33201459608972072601318359375</LatitudeDegrees>
              <LongitudeDegrees>-1.8986631743609905242919921875</LongitudeDegrees>
            </Position>
            <AltitudeMeters>210.399993896484375</AltitudeMeters>
            <DistanceMeters>NAN</DistanceMeters>
          </Trackpoint>
          <Trackpoint>
            <Time>2022-07-09T07:06:48.000Z</Time>
            <Position>
              <LatitudeDegrees>43.332039825618267059326171875</LatitudeDegrees>
              <LongitudeDegrees>-1.89875830896198749542236328125</LongitudeDegrees>
            </Position>
            <AltitudeMeters>210</AltitudeMeters>
            <DistanceMeters>NAN</DistanceMeters>
          </Trackpoint>
          <Trackpoint>
            <Time>2022-07-09T07:06:54.000Z</Time>
            <Position>
              <LatitudeDegrees>43.3320835791528224945068359375</LatitudeDegrees>
              <LongitudeDegrees>-1.8989136256277561187744140625</LongitudeDegrees>
            </Position>
            <AltitudeMeters>209</AltitudeMeters>
            <DistanceMeters>NAN</DistanceMeters>
          </Trackpoint>
          <Trackpoint>
            <Time>2022-07-09T07:06:55.000Z</Time>
            <Position>
              <LatitudeDegrees>43.3321010135114192962646484375</LatitudeDegrees>
              <LongitudeDegrees>-1.898943968117237091064453125</LongitudeDegrees>
            </Position>
            <AltitudeMeters>208.8000030517578125</AltitudeMeters>
            <DistanceMeters>NAN</DistanceMeters>
          </Trackpoint>
          <Trackpoint>
            <Time>2022-07-09T07:07:00.000Z</Time>
            <Position>
              <LatitudeDegrees>43.33218969404697418212890625</LatitudeDegrees>
              <LongitudeDegrees>-1.8990608118474483489990234375</LongitudeDegrees>
            </Position>
            <AltitudeMeters>207.8000030517578125</AltitudeMeters>
            <DistanceMeters>NAN</DistanceMeters>
          </Trackpoint>
          <Trackpoint>
            <Time>2022-07-09T07:07:02.000Z</Time>
            <Position>
              <LatitudeDegrees>43.332223556935787200927734375</LatitudeDegrees>
              <LongitudeDegrees>-1.899088807404041290283203125</LongitudeDegrees>
            </Position>
            <AltitudeMeters>207.1999969482421875</AltitudeMeters>
            <DistanceMeters>NAN</DistanceMeters>
          </Trackpoint>
          <Trackpoint>
            <Time>2022-07-09T07:07:04.000Z</Time>
            <Position>
              <LatitudeDegrees>43.332273177802562713623046875</LatitudeDegrees>
              <LongitudeDegrees>-1.89910112880170345306396484375</LongitudeDegrees>
            </Position>
            <AltitudeMeters>206.8000030517578125</AltitudeMeters>
            <DistanceMeters>NAN</DistanceMeters>
          </Trackpoint>
          <Trackpoint>
            <Time>2022-07-09T07:07:06.000Z</Time>
            <Position>
              <LatitudeDegrees>43.33231718279421329498291015625</LatitudeDegrees>
              <LongitudeDegrees>-1.89910850487649440765380859375</LongitudeDegrees>
            </Position>
            <AltitudeMeters>206</AltitudeMeters>
            <DistanceMeters>NAN</DistanceMeters>
          </Trackpoint>
          <Trackpoint>
            <Time>2022-07-09T07:07:08.000Z</Time>
            <Position>
              <LatitudeDegrees>43.332346267998218536376953125</LatitudeDegrees>
              <LongitudeDegrees>-1.89912174828350543975830078125</LongitudeDegrees>
            </Position>
            <AltitudeMeters>205.399993896484375</AltitudeMeters>
            <DistanceMeters>NAN</DistanceMeters>
          </Trackpoint>
          <Trackpoint>
            <Time>2022-07-09T07:07:11.000Z</Time>
            <Position>
              <LatitudeDegrees>43.33242170512676239013671875</LatitudeDegrees>
              <LongitudeDegrees>-1.899146474897861480712890625</LongitudeDegrees>
            </Position>
            <AltitudeMeters>204.1999969482421875</AltitudeMeters>
            <DistanceMeters>NAN</DistanceMeters>
          </Trackpoint>
          <Trackpoint>
            <Time>2022-07-09T07:07:15.000Z</Time>
            <Position>
              <LatitudeDegrees>43.33251130767166614532470703125</LatitudeDegrees>
              <LongitudeDegrees>-1.89919668249785900115966796875</LongitudeDegrees>
            </Position>
            <AltitudeMeters>203</AltitudeMeters>
            <DistanceMeters>NAN</DistanceMeters>
          </Trackpoint>
          <Trackpoint>
            <Time>2022-07-09T07:07:16.000Z</Time>
            <Position>
              <LatitudeDegrees>43.33252429962158203125</LatitudeDegrees>
              <LongitudeDegrees>-1.899218223989009857177734375</LongitudeDegrees>
            </Position>
            <AltitudeMeters>202.8000030517578125</AltitudeMeters>
            <DistanceMeters>NAN</DistanceMeters>
          </Trackpoint>
          <Trackpoint>
            <Time>2022-07-09T07:07:18.000Z</Time>
            <Position>
              <LatitudeDegrees>43.332531340420246124267578125</LatitudeDegrees>
              <LongitudeDegrees>-1.89928016625344753265380859375</LongitudeDegrees>
            </Position>
            <AltitudeMeters>202</AltitudeMeters>
            <DistanceMeters>NAN</DistanceMeters>
          </Trackpoint>
          <Trackpoint>
            <Time>2022-07-09T07:07:21.000Z</Time>
            <Position>
              <LatitudeDegrees>43.3325350284576416015625</LatitudeDegrees>
              <LongitudeDegrees>-1.89933716319501399993896484375</LongitudeDegrees>
            </Position>
            <AltitudeMeters>201.399993896484375</AltitudeMeters>
            <DistanceMeters>NAN</DistanceMeters>
          </Trackpoint>
          <Trackpoint>
            <Time>2022-07-09T07:07:25.000Z</Time>
            <Position>
              <LatitudeDegrees>43.33253008313477039337158203125</LatitudeDegrees>
              <LongitudeDegrees>-1.89937211573123931884765625</LongitudeDegrees>
            </Position>
            <AltitudeMeters>201.600006103515625</AltitudeMeters>
            <DistanceMeters>NAN</DistanceMeters>
          </Trackpoint>
          <Trackpoint>
            <Time>2022-07-09T07:07:26.000Z</Time>
            <Position>
              <LatitudeDegrees>43.33253377117216587066650390625</LatitudeDegrees>
              <LongitudeDegrees>-1.89938259311020374298095703125</LongitudeDegrees>
            </Position>
            <AltitudeMeters>201.600006103515625</AltitudeMeters>
            <DistanceMeters>NAN</DistanceMeters>
          </Trackpoint>
          <Trackpoint>
            <Time>2022-07-09T07:07:33.000Z</Time>
            <Position>
              <LatitudeDegrees>43.33256076090037822723388671875</LatitudeDegrees>
              <LongitudeDegrees>-1.899501197040081024169921875</LongitudeDegrees>
            </Position>
            <AltitudeMeters>202.1999969482421875</AltitudeMeters>
            <DistanceMeters>NAN</DistanceMeters>
          </Trackpoint>
          <Trackpoint>
            <Time>2022-07-09T07:07:38.000Z</Time>
            <Position>
              <LatitudeDegrees>43.3325636945664882659912109375</LatitudeDegrees>
              <LongitudeDegrees>-1.89956414513289928436279296875</LongitudeDegrees>
            </Position>
            <AltitudeMeters>202.8000030517578125</AltitudeMeters>
            <DistanceMeters>NAN</DistanceMeters>
          </Trackpoint>
          <Trackpoint>
            <Time>2022-07-09T07:07:42.000Z</Time>
            <Position>
              <LatitudeDegrees>43.33255439065396785736083984375</LatitudeDegrees>
              <LongitudeDegrees>-1.89962214790284633636474609375</LongitudeDegrees>
            </Position>
            <AltitudeMeters>203.1999969482421875</AltitudeMeters>
            <DistanceMeters>NAN</DistanceMeters>
          </Trackpoint>
          <Trackpoint>
            <Time>2022-07-09T07:07:48.000Z</Time>
            <Position>
              <LatitudeDegrees>43.33248649723827838897705078125</LatitudeDegrees>
              <LongitudeDegrees>-1.89967780373990535736083984375</LongitudeDegrees>
            </Position>
            <AltitudeMeters>203.600006103515625</AltitudeMeters>
            <DistanceMeters>NAN</DistanceMeters>
          </Trackpoint>
          <Trackpoint>
            <Time>2022-07-09T07:07:54.000Z</Time>
            <Position>
              <LatitudeDegrees>43.33242530934512615203857421875</LatitudeDegrees>
              <LongitudeDegrees>-1.89972558058798313140869140625</LongitudeDegrees>
            </Position>
            <AltitudeMeters>204.1999969482421875</AltitudeMeters>
            <DistanceMeters>NAN</DistanceMeters>
          </Trackpoint>
          <Trackpoint>
            <Time>2022-07-09T07:07:56.000Z</Time>
            <Position>
              <LatitudeDegrees>43.33240167237818241119384765625</LatitudeDegrees>
              <LongitudeDegrees>-1.89972558058798313140869140625</LongitudeDegrees>
            </Position>
            <AltitudeMeters>204.399993896484375</AltitudeMeters>
            <DistanceMeters>NAN</DistanceMeters>
          </Trackpoint>
          <Trackpoint>
            <Time>2022-07-09T07:08:02.000Z</Time>
            <Position>
              <LatitudeDegrees>43.33230779506266117095947265625</LatitudeDegrees>
              <LongitudeDegrees>-1.89978442154824733734130859375</LongitudeDegrees>
            </Position>
            <AltitudeMeters>204.600006103515625</AltitudeMeters>
            <DistanceMeters>NAN</DistanceMeters>
          </Trackpoint>
          <Trackpoint>
            <Time>2022-07-09T07:08:03.000Z</Time>
            <Position>
              <LatitudeDegrees>43.332298658788204193115234375</LatitudeDegrees>
              <LongitudeDegrees>-1.8997980840504169464111328125</LongitudeDegrees>
            </Position>
            <AltitudeMeters>204.8000030517578125</AltitudeMeters>
            <DistanceMeters>NAN</DistanceMeters>
          </Trackpoint>
          <Trackpoint>
            <Time>2022-07-09T07:08:08.000Z</Time>
            <Position>
              <LatitudeDegrees>43.3322414942085742950439453125</LatitudeDegrees>
              <LongitudeDegrees>-1.8998497165739536285400390625</LongitudeDegrees>
            </Position>
            <AltitudeMeters>205.1999969482421875</AltitudeMeters>
            <DistanceMeters>NAN</DistanceMeters>
          </Trackpoint>
          <Trackpoint>
            <Time>2022-07-09T07:08:09.000Z</Time>
            <Position>
              <LatitudeDegrees>43.3322290889918804168701171875</LatitudeDegrees>
              <LongitudeDegrees>-1.89985918812453746795654296875</LongitudeDegrees>
            </Position>
            <AltitudeMeters>205.399993896484375</AltitudeMeters>
            <DistanceMeters>NAN</DistanceMeters>
          </Trackpoint>
          <Trackpoint>
            <Time>2022-07-09T07:08:16.000Z</Time>
            <Position>
              <LatitudeDegrees>43.332157172262668609619140625</LatitudeDegrees>
              <LongitudeDegrees>-1.89996421337127685546875</LongitudeDegrees>
            </Position>
            <AltitudeMeters>205.8000030517578125</AltitudeMeters>
            <DistanceMeters>NAN</DistanceMeters>
          </Trackpoint>
          <Trackpoint>
            <Time>2022-07-09T07:08:20.000Z</Time>
            <Position>
              <LatitudeDegrees>43.3321047015488147735595703125</LatitudeDegrees>
              <LongitudeDegrees>-1.90001986920833587646484375</LongitudeDegrees>
            </Position>
            <AltitudeMeters>206.399993896484375</AltitudeMeters>
            <DistanceMeters>NAN</DistanceMeters>
          </Trackpoint>
          <Trackpoint>
            <Time>2022-07-09T07:08:22.000Z</Time>
            <Position>
              <LatitudeDegrees>43.3320792205631732940673828125</LatitudeDegrees>
              <LongitudeDegrees>-1.90004258416593074798583984375</LongitudeDegrees>
            </Position>
            <AltitudeMeters>206.600006103515625</AltitudeMeters>
            <DistanceMeters>NAN</DistanceMeters>
          </Trackpoint>
          <Trackpoint>
            <Time>2022-07-09T07:08:24.000Z</Time>
            <Position>
              <LatitudeDegrees>43.33205021917819976806640625</LatitudeDegrees>
              <LongitudeDegrees>-1.9000683166086673736572265625</LongitudeDegrees>
            </Position>
            <AltitudeMeters>206.8000030517578125</AltitudeMeters>
            <DistanceMeters>NAN</DistanceMeters>
          </Trackpoint>
          <Trackpoint>
            <Time>2022-07-09T07:08:26.000Z</Time>
            <Position>
              <LatitudeDegrees>43.33203773014247417449951171875</LatitudeDegrees>
              <LongitudeDegrees>-1.90010041929781436920166015625</LongitudeDegrees>
            </Position>
            <AltitudeMeters>207.1999969482421875</AltitudeMeters>
            <DistanceMeters>NAN</DistanceMeters>
          </Trackpoint>
          <Trackpoint>
            <Time>2022-07-09T07:08:28.000Z</Time>
            <Position>
              <LatitudeDegrees>43.3320175297558307647705078125</LatitudeDegrees>
              <LongitudeDegrees>-1.9001266546547412872314453125</LongitudeDegrees>
            </Position>
            <AltitudeMeters>207.399993896484375</AltitudeMeters>
            <DistanceMeters>NAN</DistanceMeters>
          </Trackpoint>
          <Trackpoint>
            <Time>2022-07-09T07:08:30.000Z</Time>
            <Position>
              <LatitudeDegrees>43.33199850283563137054443359375</LatitudeDegrees>
              <LongitudeDegrees>-1.900168396532535552978515625</LongitudeDegrees>
            </Position>
            <AltitudeMeters>207.399993896484375</AltitudeMeters>
            <DistanceMeters>NAN</DistanceMeters>
          </Trackpoint>
          <Trackpoint>
            <Time>2022-07-09T07:08:32.000Z</Time>
            <Position>
              <LatitudeDegrees>43.33198023028671741485595703125</LatitudeDegrees>
              <LongitudeDegrees>-1.90019312314689159393310546875</LongitudeDegrees>
            </Position>
            <AltitudeMeters>207.600006103515625</AltitudeMeters>
            <DistanceMeters>NAN</DistanceMeters>
          </Trackpoint>
          <Trackpoint>
            <Time>2022-07-09T07:08:35.000Z</Time>
            <Position>
              <LatitudeDegrees>43.331948630511760711669921875</LatitudeDegrees>
              <LongitudeDegrees>-1.90024039708077907562255859375</LongitudeDegrees>
            </Position>
            <AltitudeMeters>208.1999969482421875</AltitudeMeters>
            <DistanceMeters>NAN</DistanceMeters>
          </Trackpoint>
          <Trackpoint>
            <Time>2022-07-09T07:08:37.000Z</Time>
            <Position>
              <LatitudeDegrees>43.33192826248705387115478515625</LatitudeDegrees>
              <LongitudeDegrees>-1.9002674706280231475830078125</LongitudeDegrees>
            </Position>
            <AltitudeMeters>208.399993896484375</AltitudeMeters>
            <DistanceMeters>NAN</DistanceMeters>
          </Trackpoint>
          <Trackpoint>
            <Time>2022-07-09T07:08:39.000Z</Time>
            <Position>
              <LatitudeDegrees>43.33190680481493473052978515625</LatitudeDegrees>
              <LongitudeDegrees>-1.900299824774265289306640625</LongitudeDegrees>
            </Position>
            <AltitudeMeters>208.600006103515625</AltitudeMeters>
            <DistanceMeters>NAN</DistanceMeters>
          </Trackpoint>
          <Trackpoint>
            <Time>2022-07-09T07:08:42.000Z</Time>
            <Position>
              <LatitudeDegrees>43.3318736962974071502685546875</LatitudeDegrees>
              <LongitudeDegrees>-1.90035036765038967132568359375</LongitudeDegrees>
            </Position>
            <AltitudeMeters>208.8000030517578125</AltitudeMeters>
            <DistanceMeters>NAN</DistanceMeters>
          </Trackpoint>
          <Trackpoint>
            <Time>2022-07-09T07:08:48.000Z</Time>
            <Position>
              <LatitudeDegrees>43.331808149814605712890625</LatitudeDegrees>
              <LongitudeDegrees>-1.90042848698794841766357421875</LongitudeDegrees>
            </Position>
            <AltitudeMeters>209.600006103515625</AltitudeMeters>
            <DistanceMeters>NAN</DistanceMeters>
          </Trackpoint>
          <Trackpoint>
            <Time>2022-07-09T07:08:49.000Z</Time>
            <Position>
              <LatitudeDegrees>43.331803791224956512451171875</LatitudeDegrees>
              <LongitudeDegrees>-1.90044927410781383514404296875</LongitudeDegrees>
            </Position>
            <AltitudeMeters>209.600006103515625</AltitudeMeters>
            <DistanceMeters>NAN</DistanceMeters>
          </Trackpoint>
          <Trackpoint>
            <Time>2022-07-09T07:08:51.000Z</Time>
            <Position>
              <LatitudeDegrees>43.331791050732135772705078125</LatitudeDegrees>
              <LongitudeDegrees>-1.90049118362367153167724609375</LongitudeDegrees>
            </Position>
            <AltitudeMeters>209.8000030517578125</AltitudeMeters>
            <DistanceMeters>NAN</DistanceMeters>
          </Trackpoint>
          <Trackpoint>
            <Time>2022-07-09T07:08:55.000Z</Time>
            <Position>
              <LatitudeDegrees>43.3317734487354755401611328125</LatitudeDegrees>
              <LongitudeDegrees>-1.90054616890847682952880859375</LongitudeDegrees>
            </Position>
            <AltitudeMeters>210.1999969482421875</AltitudeMeters>
            <DistanceMeters>NAN</DistanceMeters>
          </Trackpoint>
          <Trackpoint>
            <Time>2022-07-09T07:08:56.000Z</Time>
            <Position>
              <LatitudeDegrees>43.33176699467003345489501953125</LatitudeDegrees>
              <LongitudeDegrees>-1.90056041814386844635009765625</LongitudeDegrees>
            </Position>
            <AltitudeMeters>210.399993896484375</AltitudeMeters>
            <DistanceMeters>NAN</DistanceMeters>
          </Trackpoint>
          <Trackpoint>
            <Time>2022-07-09T07:08:59.000Z</Time>
            <Position>
              <LatitudeDegrees>43.33175760693848133087158203125</LatitudeDegrees>
              <LongitudeDegrees>-1.9006024114787578582763671875</LongitudeDegrees>
            </Position>
            <AltitudeMeters>210.600006103515625</AltitudeMeters>
            <DistanceMeters>NAN</DistanceMeters>
          </Trackpoint>
          <Trackpoint>
            <Time>2022-07-09T07:09:00.000Z</Time>
            <Position>
              <LatitudeDegrees>43.33175123669207096099853515625</LatitudeDegrees>
              <LongitudeDegrees>-1.90062378533184528350830078125</LongitudeDegrees>
            </Position>
            <AltitudeMeters>210.600006103515625</AltitudeMeters>
            <DistanceMeters>NAN</DistanceMeters>
          </Trackpoint>
          <Trackpoint>
            <Time>2022-07-09T07:09:02.000Z</Time>
            <Position>
              <LatitudeDegrees>43.33173648454248905181884765625</LatitudeDegrees>
              <LongitudeDegrees>-1.90065228380262851715087890625</LongitudeDegrees>
            </Position>
            <AltitudeMeters>210.8000030517578125</AltitudeMeters>
            <DistanceMeters>NAN</DistanceMeters>
          </Trackpoint>
          <Trackpoint>
            <Time>2022-07-09T07:09:07.000Z</Time>
            <Position>
              <LatitudeDegrees>43.33170899190008640289306640625</LatitudeDegrees>
              <LongitudeDegrees>-1.9007147289812564849853515625</LongitudeDegrees>
            </Position>
            <AltitudeMeters>211.1999969482421875</AltitudeMeters>
            <DistanceMeters>NAN</DistanceMeters>
          </Trackpoint>
          <Trackpoint>
            <Time>2022-07-09T07:09:12.000Z</Time>
            <Position>
              <LatitudeDegrees>43.3316861093044281005859375</LatitudeDegrees>
              <LongitudeDegrees>-1.90077097155153751373291015625</LongitudeDegrees>
            </Position>
            <AltitudeMeters>211.600006103515625</AltitudeMeters>
            <DistanceMeters>NAN</DistanceMeters>
          </Trackpoint>
          <Trackpoint>
            <Time>2022-07-09T07:09:13.000Z</Time>
            <Position>
              <LatitudeDegrees>43.331676386296749114990234375</LatitudeDegrees>
              <LongitudeDegrees>-1.9007794372737407684326171875</LongitudeDegrees>
            </Position>
            <AltitudeMeters>211.8000030517578125</AltitudeMeters>
            <DistanceMeters>NAN</DistanceMeters>
          </Trackpoint>
          <Trackpoint>
            <Time>2022-07-09T07:09:18.000Z</Time>
            <Position>
              <LatitudeDegrees>43.33166909404098987579345703125</LatitudeDegrees>
              <LongitudeDegrees>-1.9008602388203144073486328125</LongitudeDegrees>
            </Position>
            <AltitudeMeters>212</AltitudeMeters>
            <DistanceMeters>NAN</DistanceMeters>
          </Trackpoint>
          <Trackpoint>
            <Time>2022-07-09T07:09:22.000Z</Time>
            <Position>
              <LatitudeDegrees>43.33165501244366168975830078125</LatitudeDegrees>
              <LongitudeDegrees>-1.900912709534168243408203125</LongitudeDegrees>
            </Position>
            <AltitudeMeters>212.399993896484375</AltitudeMeters>
            <DistanceMeters>NAN</DistanceMeters>
          </Trackpoint>
          <Trackpoint>
            <Time>2022-07-09T07:09:25.000Z</Time>
            <Position>
              <LatitudeDegrees>43.331647217273712158203125</LatitudeDegrees>
              <LongitudeDegrees>-1.9009601511061191558837890625</LongitudeDegrees>
            </Position>
            <AltitudeMeters>212.600006103515625</AltitudeMeters>
            <DistanceMeters>NAN</DistanceMeters>
          </Trackpoint>
          <Trackpoint>
            <Time>2022-07-09T07:09:28.000Z</Time>
            <Position>
              <LatitudeDegrees>43.3316262625157833099365234375</LatitudeDegrees>
              <LongitudeDegrees>-1.90100030042231082916259765625</LongitudeDegrees>
            </Position>
            <AltitudeMeters>213</AltitudeMeters>
            <DistanceMeters>NAN</DistanceMeters>
          </Trackpoint>
          <Trackpoint>
            <Time>2022-07-09T07:09:32.000Z</Time>
            <Position>
              <LatitudeDegrees>43.33158946596086025238037109375</LatitudeDegrees>
              <LongitudeDegrees>-1.90107020549476146697998046875</LongitudeDegrees>
            </Position>
            <AltitudeMeters>213.1999969482421875</AltitudeMeters>
            <DistanceMeters>NAN</DistanceMeters>
          </Trackpoint>
          <Trackpoint>
            <Time>2022-07-09T07:09:33.000Z</Time>
            <Position>
              <LatitudeDegrees>43.3315900526940822601318359375</LatitudeDegrees>
              <LongitudeDegrees>-1.901085376739501953125</LongitudeDegrees>
            </Position>
            <AltitudeMeters>213.1999969482421875</AltitudeMeters>
            <DistanceMeters>NAN</DistanceMeters>
          </Trackpoint>
          <Trackpoint>
            <Time>2022-07-09T07:09:34.000Z</Time>
            <Position>
              <LatitudeDegrees>43.33159550093114376068115234375</LatitudeDegrees>
              <LongitudeDegrees>-1.90110339783132076263427734375</LongitudeDegrees>
            </Position>
            <AltitudeMeters>213.1999969482421875</AltitudeMeters>
            <DistanceMeters>NAN</DistanceMeters>
          </Trackpoint>
          <Trackpoint>
            <Time>2022-07-09T07:09:37.000Z</Time>
            <Position>
              <LatitudeDegrees>43.3315950818359851837158203125</LatitudeDegrees>
              <LongitudeDegrees>-1.90115218050777912139892578125</LongitudeDegrees>
            </Position>
            <AltitudeMeters>213.399993896484375</AltitudeMeters>
            <DistanceMeters>NAN</DistanceMeters>
          </Trackpoint>
          <Trackpoint>
            <Time>2022-07-09T07:09:38.000Z</Time>
            <Position>
              <LatitudeDegrees>43.33159625530242919921875</LatitudeDegrees>
              <LongitudeDegrees>-1.9011673517525196075439453125</LongitudeDegrees>
            </Position>
            <AltitudeMeters>213.399993896484375</AltitudeMeters>
            <DistanceMeters>NAN</DistanceMeters>
          </Trackpoint>
          <Trackpoint>
            <Time>2022-07-09T07:09:40.000Z</Time>
            <Position>
              <LatitudeDegrees>43.33158996887505054473876953125</LatitudeDegrees>
              <LongitudeDegrees>-1.9011958502233028411865234375</LongitudeDegrees>
            </Position>
            <AltitudeMeters>213.600006103515625</AltitudeMeters>
            <DistanceMeters>NAN</DistanceMeters>
          </Trackpoint>
          <Trackpoint>
            <Time>2022-07-09T07:09:42.000Z</Time>
            <Position>
              <LatitudeDegrees>43.33157890476286411285400390625</LatitudeDegrees>
              <LongitudeDegrees>-1.9012297131121158599853515625</LongitudeDegrees>
            </Position>
            <AltitudeMeters>213.8000030517578125</AltitudeMeters>
            <DistanceMeters>NAN</DistanceMeters>
          </Trackpoint>
          <Trackpoint>
            <Time>2022-07-09T07:09:44.000Z</Time>
            <Position>
              <LatitudeDegrees>43.33157890476286411285400390625</LatitudeDegrees>
              <LongitudeDegrees>-1.90129919908940792083740234375</LongitudeDegrees>
            </Position>
            <AltitudeMeters>214</AltitudeMeters>
            <DistanceMeters>NAN</DistanceMeters>
          </Trackpoint>
          <Trackpoint>
            <Time>2022-07-09T07:09:48.000Z</Time>
            <Position>
              <LatitudeDegrees>43.3316014520823955535888671875</LatitudeDegrees>
              <LongitudeDegrees>-1.90138821490108966827392578125</LongitudeDegrees>
            </Position>
            <AltitudeMeters>214.399993896484375</AltitudeMeters>
            <DistanceMeters>NAN</DistanceMeters>
          </Trackpoint>
          <Trackpoint>
            <Time>2022-07-09T07:09:49.000Z</Time>
            <Position>
              <LatitudeDegrees>43.3316074870526790618896484375</LatitudeDegrees>
              <LongitudeDegrees>-1.90140648745000362396240234375</LongitudeDegrees>
            </Position>
            <AltitudeMeters>214.399993896484375</AltitudeMeters>
            <DistanceMeters>NAN</DistanceMeters>
          </Trackpoint>
          <Trackpoint>
            <Time>2022-07-09T07:09:50.000Z</Time>
            <Position>
              <LatitudeDegrees>43.33160589449107646942138671875</LatitudeDegrees>
              <LongitudeDegrees>-1.9014271907508373260498046875</LongitudeDegrees>
            </Position>
            <AltitudeMeters>214.399993896484375</AltitudeMeters>
            <DistanceMeters>NAN</DistanceMeters>
          </Trackpoint>
          <Trackpoint>
            <Time>2022-07-09T07:09:52.000Z</Time>
            <Position>
              <LatitudeDegrees>43.3316083252429962158203125</LatitudeDegrees>
              <LongitudeDegrees>-1.9014677591621875762939453125</LongitudeDegrees>
            </Position>
            <AltitudeMeters>214.600006103515625</AltitudeMeters>
            <DistanceMeters>NAN</DistanceMeters>
          </Trackpoint>
          <Trackpoint>
            <Time>2022-07-09T07:09:53.000Z</Time>
            <Position>
              <LatitudeDegrees>43.33160857670009136199951171875</LatitudeDegrees>
              <LongitudeDegrees>-1.9014845229685306549072265625</LongitudeDegrees>
            </Position>
            <AltitudeMeters>214.600006103515625</AltitudeMeters>
            <DistanceMeters>NAN</DistanceMeters>
          </Trackpoint>
          <Trackpoint>
            <Time>2022-07-09T07:09:57.000Z</Time>
            <Position>
              <LatitudeDegrees>43.33160237409174442291259765625</LatitudeDegrees>
              <LongitudeDegrees>-1.901561133563518524169921875</LongitudeDegrees>
            </Position>
            <AltitudeMeters>215</AltitudeMeters>
            <DistanceMeters>NAN</DistanceMeters>
          </Trackpoint>
          <Trackpoint>
            <Time>2022-07-09T07:09:58.000Z</Time>
            <Position>
              <LatitudeDegrees>43.3316078223288059234619140625</LatitudeDegrees>
              <LongitudeDegrees>-1.9015743769705295562744140625</LongitudeDegrees>
            </Position>
            <AltitudeMeters>215</AltitudeMeters>
            <DistanceMeters>NAN</DistanceMeters>
          </Trackpoint>
          <Trackpoint>
            <Time>2022-07-09T07:09:59.000Z</Time>
            <Position>
              <LatitudeDegrees>43.33161645568907260894775390625</LatitudeDegrees>
              <LongitudeDegrees>-1.90159256570041179656982421875</LongitudeDegrees>
            </Position>
            <AltitudeMeters>215.1999969482421875</AltitudeMeters>
            <DistanceMeters>NAN</DistanceMeters>
          </Trackpoint>
          <Trackpoint>
            <Time>2022-07-09T07:10:01.000Z</Time>
            <Position>
              <LatitudeDegrees>43.3316319622099399566650390625</LatitudeDegrees>
              <LongitudeDegrees>-1.90163464285433292388916015625</LongitudeDegrees>
            </Position>
            <AltitudeMeters>215.1999969482421875</AltitudeMeters>
            <DistanceMeters>NAN</DistanceMeters>
          </Trackpoint>
          <Trackpoint>
            <Time>2022-07-09T07:10:04.000Z</Time>
            <Position>
              <LatitudeDegrees>43.33162047900259494781494140625</LatitudeDegrees>
              <LongitudeDegrees>-1.90169231034815311431884765625</LongitudeDegrees>
            </Position>
            <AltitudeMeters>215.399993896484375</AltitudeMeters>
            <DistanceMeters>NAN</DistanceMeters>
          </Trackpoint>
          <Trackpoint>
            <Time>2022-07-09T07:10:08.000Z</Time>
            <Position>
              <LatitudeDegrees>43.3316566050052642822265625</LatitudeDegrees>
              <LongitudeDegrees>-1.90178166143596172332763671875</LongitudeDegrees>
            </Position>
            <AltitudeMeters>215.600006103515625</AltitudeMeters>
            <DistanceMeters>NAN</DistanceMeters>
          </Trackpoint>
          <Trackpoint>
            <Time>2022-07-09T07:10:10.000Z</Time>
            <Position>
              <LatitudeDegrees>43.331671692430973052978515625</LatitudeDegrees>
              <LongitudeDegrees>-1.9018211401998996734619140625</LongitudeDegrees>
            </Position>
            <AltitudeMeters>215.8000030517578125</AltitudeMeters>
            <DistanceMeters>NAN</DistanceMeters>
          </Trackpoint>
          <Trackpoint>
            <Time>2022-07-09T07:10:12.000Z</Time>
            <Position>
              <LatitudeDegrees>43.331706225872039794921875</LatitudeDegrees>
              <LongitudeDegrees>-1.90186497755348682403564453125</LongitudeDegrees>
            </Position>
            <AltitudeMeters>215.8000030517578125</AltitudeMeters>
            <DistanceMeters>NAN</DistanceMeters>
          </Trackpoint>
          <Trackpoint>
            <Time>2022-07-09T07:10:15.000Z</Time>
            <Position>
              <LatitudeDegrees>43.3317625522613525390625</LatitudeDegrees>
              <LongitudeDegrees>-1.9019421748816967010498046875</LongitudeDegrees>
            </Position>
            <AltitudeMeters>216</AltitudeMeters>
            <DistanceMeters>NAN</DistanceMeters>
          </Trackpoint>
          <Trackpoint>
            <Time>2022-07-09T07:10:17.000Z</Time>
            <Position>
              <LatitudeDegrees>43.3317959122359752655029296875</LatitudeDegrees>
              <LongitudeDegrees>-1.90197846852242946624755859375</LongitudeDegrees>
            </Position>
            <AltitudeMeters>216</AltitudeMeters>
            <DistanceMeters>NAN</DistanceMeters>
          </Trackpoint>
          <Trackpoint>
            <Time>2022-07-09T07:10:18.000Z</Time>
            <Position>
              <LatitudeDegrees>43.33180923946201801300048828125</LatitudeDegrees>
              <LongitudeDegrees>-1.901999004185199737548828125</LongitudeDegrees>
            </Position>
            <AltitudeMeters>216.1999969482421875</AltitudeMeters>
            <DistanceMeters>NAN</DistanceMeters>
          </Trackpoint>
          <Trackpoint>
            <Time>2022-07-09T07:10:21.000Z</Time>
            <Position>
              <LatitudeDegrees>43.33184360526502132415771484375</LatitudeDegrees>
              <LongitudeDegrees>-1.9020657241344451904296875</LongitudeDegrees>
            </Position>
            <AltitudeMeters>216.399993896484375</AltitudeMeters>
            <DistanceMeters>NAN</DistanceMeters>
          </Trackpoint>
          <Trackpoint>
            <Time>2022-07-09T07:10:30.000Z</Time>
            <Position>
              <LatitudeDegrees>43.332022726535797119140625</LatitudeDegrees>
              <LongitudeDegrees>-1.9022762775421142578125</LongitudeDegrees>
            </Position>
            <AltitudeMeters>216.600006103515625</AltitudeMeters>
            <DistanceMeters>NAN</DistanceMeters>
          </Trackpoint>
          <Trackpoint>
            <Time>2022-07-09T07:10:37.000Z</Time>
            <Position>
              <LatitudeDegrees>43.33207896910607814788818359375</LatitudeDegrees>
              <LongitudeDegrees>-1.90240862779319286346435546875</LongitudeDegrees>
            </Position>
            <AltitudeMeters>217</AltitudeMeters>
            <DistanceMeters>NAN</DistanceMeters>
          </Trackpoint>
          <Trackpoint>
            <Time>2022-07-09T07:10:41.000Z</Time>
            <Position>
              <LatitudeDegrees>43.33207896910607814788818359375</LatitudeDegrees>
              <LongitudeDegrees>-1.90249328501522541046142578125</LongitudeDegrees>
            </Position>
            <AltitudeMeters>217.399993896484375</AltitudeMeters>
            <DistanceMeters>NAN</DistanceMeters>
          </Trackpoint>
          <Trackpoint>
            <Time>2022-07-09T07:10:42.000Z</Time>
            <Position>
              <LatitudeDegrees>43.3320705033838748931884765625</LatitudeDegrees>
              <LongitudeDegrees>-1.90249814651906490325927734375</LongitudeDegrees>
            </Position>
            <AltitudeMeters>217.399993896484375</AltitudeMeters>
            <DistanceMeters>NAN</DistanceMeters>
          </Trackpoint>
          <Trackpoint>
            <Time>2022-07-09T07:10:43.000Z</Time>
            <Position>
              <LatitudeDegrees>43.33206119947135448455810546875</LatitudeDegrees>
              <LongitudeDegrees>-1.90250619314610958099365234375</LongitudeDegrees>
            </Position>
            <AltitudeMeters>217.600006103515625</AltitudeMeters>
            <DistanceMeters>NAN</DistanceMeters>
          </Trackpoint>
          <Trackpoint>
            <Time>2022-07-09T07:10:46.000Z</Time>
            <Position>
              <LatitudeDegrees>43.332057259976863861083984375</LatitudeDegrees>
              <LongitudeDegrees>-1.90256369300186634063720703125</LongitudeDegrees>
            </Position>
            <AltitudeMeters>217.8000030517578125</AltitudeMeters>
            <DistanceMeters>NAN</DistanceMeters>
          </Trackpoint>
          <Trackpoint>
            <Time>2022-07-09T07:10:50.000Z</Time>
            <Position>
              <LatitudeDegrees>43.33204493857920169830322265625</LatitudeDegrees>
              <LongitudeDegrees>-1.90268933773040771484375</LongitudeDegrees>
            </Position>
            <AltitudeMeters>218</AltitudeMeters>
            <DistanceMeters>NAN</DistanceMeters>
          </Trackpoint>
          <Trackpoint>
            <Time>2022-07-09T07:10:52.000Z</Time>
            <Position>
              <LatitudeDegrees>43.33202817477285861968994140625</LatitudeDegrees>
              <LongitudeDegrees>-1.90272965468466281890869140625</LongitudeDegrees>
            </Position>
            <AltitudeMeters>218.1999969482421875</AltitudeMeters>
            <DistanceMeters>NAN</DistanceMeters>
          </Trackpoint>
          <Trackpoint>
            <Time>2022-07-09T07:10:54.000Z</Time>
            <Position>
              <LatitudeDegrees>43.33203907124698162078857421875</LatitudeDegrees>
              <LongitudeDegrees>-1.9028125517070293426513671875</LongitudeDegrees>
            </Position>
            <AltitudeMeters>218.399993896484375</AltitudeMeters>
            <DistanceMeters>NAN</DistanceMeters>
          </Trackpoint>
          <Trackpoint>
            <Time>2022-07-09T07:10:57.000Z</Time>
            <Position>
              <LatitudeDegrees>43.33205281756818294525146484375</LatitudeDegrees>
              <LongitudeDegrees>-1.90294641070067882537841796875</LongitudeDegrees>
            </Position>
            <AltitudeMeters>218.600006103515625</AltitudeMeters>
            <DistanceMeters>NAN</DistanceMeters>
          </Trackpoint>
          <Trackpoint>
            <Time>2022-07-09T07:10:59.000Z</Time>
            <Position>
              <LatitudeDegrees>43.3320738561451435089111328125</LatitudeDegrees>
              <LongitudeDegrees>-1.90298647619783878326416015625</LongitudeDegrees>
            </Position>
            <AltitudeMeters>218.8000030517578125</AltitudeMeters>
            <DistanceMeters>NAN</DistanceMeters>
          </Trackpoint>
          <Trackpoint>
            <Time>2022-07-09T07:11:02.000Z</Time>
            <Position>
              <LatitudeDegrees>43.332092128694057464599609375</LatitudeDegrees>
              <LongitudeDegrees>-1.9030179083347320556640625</LongitudeDegrees>
            </Position>
            <AltitudeMeters>219.1999969482421875</AltitudeMeters>
            <DistanceMeters>NAN</DistanceMeters>
          </Trackpoint>
          <Trackpoint>
            <Time>2022-07-09T07:11:05.000Z</Time>
            <Position>
              <LatitudeDegrees>43.33211283199489116668701171875</LatitudeDegrees>
              <LongitudeDegrees>-1.90306476317346096038818359375</LongitudeDegrees>
            </Position>
            <AltitudeMeters>219.399993896484375</AltitudeMeters>
            <DistanceMeters>NAN</DistanceMeters>
          </Trackpoint>
          <Trackpoint>
            <Time>2022-07-09T07:11:07.000Z</Time>
            <Position>
              <LatitudeDegrees>43.332152478396892547607421875</LatitudeDegrees>
              <LongitudeDegrees>-1.90311974845826625823974609375</LongitudeDegrees>
            </Position>
            <AltitudeMeters>219.8000030517578125</AltitudeMeters>
            <DistanceMeters>NAN</DistanceMeters>
          </Trackpoint>
          <Trackpoint>
            <Time>2022-07-09T07:11:11.000Z</Time>
            <Position>
              <LatitudeDegrees>43.3322005905210971832275390625</LatitudeDegrees>
              <LongitudeDegrees>-1.9031702913343906402587890625</LongitudeDegrees>
            </Position>
            <AltitudeMeters>220</AltitudeMeters>
            <DistanceMeters>NAN</DistanceMeters>
          </Trackpoint>
          <Trackpoint>
            <Time>2022-07-09T07:11:13.000Z</Time>
            <Position>
              <LatitudeDegrees>43.33216915838420391082763671875</LatitudeDegrees>
              <LongitudeDegrees>-1.9032155536115169525146484375</LongitudeDegrees>
            </Position>
            <AltitudeMeters>220.1999969482421875</AltitudeMeters>
            <DistanceMeters>NAN</DistanceMeters>
          </Trackpoint>
          <Trackpoint>
            <Time>2022-07-09T07:11:14.000Z</Time>
            <Position>
              <LatitudeDegrees>43.3321447670459747314453125</LatitudeDegrees>
              <LongitudeDegrees>-1.90324765630066394805908203125</LongitudeDegrees>
            </Position>
            <AltitudeMeters>220.399993896484375</AltitudeMeters>
            <DistanceMeters>NAN</DistanceMeters>
          </Trackpoint>
          <Trackpoint>
            <Time>2022-07-09T07:11:21.000Z</Time>
            <Position>
              <LatitudeDegrees>43.332196064293384552001953125</LatitudeDegrees>
              <LongitudeDegrees>-1.9033553637564182281494140625</LongitudeDegrees>
            </Position>
            <AltitudeMeters>221</AltitudeMeters>
            <DistanceMeters>NAN</DistanceMeters>
          </Trackpoint>
          <Trackpoint>
            <Time>2022-07-09T07:11:22.000Z</Time>
            <Position>
              <LatitudeDegrees>43.332205116748809814453125</LatitudeDegrees>
              <LongitudeDegrees>-1.90337204374372959136962890625</LongitudeDegrees>
            </Position>
            <AltitudeMeters>221.1999969482421875</AltitudeMeters>
            <DistanceMeters>NAN</DistanceMeters>
          </Trackpoint>
          <Trackpoint>
            <Time>2022-07-09T07:11:23.000Z</Time>
            <Position>
              <LatitudeDegrees>43.33220972679555416107177734375</LatitudeDegrees>
              <LongitudeDegrees>-1.90338059328496456146240234375</LongitudeDegrees>
            </Position>
            <AltitudeMeters>221.1999969482421875</AltitudeMeters>
            <DistanceMeters>NAN</DistanceMeters>
          </Trackpoint>
          <Trackpoint>
            <Time>2022-07-09T07:11:25.000Z</Time>
            <Position>
              <LatitudeDegrees>43.33220805041491985321044921875</LatitudeDegrees>
              <LongitudeDegrees>-1.90341076813638210296630859375</LongitudeDegrees>
            </Position>
            <AltitudeMeters>221.600006103515625</AltitudeMeters>
            <DistanceMeters>NAN</DistanceMeters>
          </Trackpoint>
          <Trackpoint>
            <Time>2022-07-09T07:11:28.000Z</Time>
            <Position>
              <LatitudeDegrees>43.33222732879221439361572265625</LatitudeDegrees>
              <LongitudeDegrees>-1.90346457995474338531494140625</LongitudeDegrees>
            </Position>
            <AltitudeMeters>221.8000030517578125</AltitudeMeters>
            <DistanceMeters>NAN</DistanceMeters>
          </Trackpoint>
          <Trackpoint>
            <Time>2022-07-09T07:11:32.000Z</Time>
            <Position>
              <LatitudeDegrees>43.332260437309741973876953125</LatitudeDegrees>
              <LongitudeDegrees>-1.903542615473270416259765625</LongitudeDegrees>
            </Position>
            <AltitudeMeters>222.1999969482421875</AltitudeMeters>
            <DistanceMeters>NAN</DistanceMeters>
          </Trackpoint>
          <Trackpoint>
            <Time>2022-07-09T07:11:33.000Z</Time>
            <Position>
              <LatitudeDegrees>43.33226571790874004364013671875</LatitudeDegrees>
              <LongitudeDegrees>-1.90355778671801090240478515625</LongitudeDegrees>
            </Position>
            <AltitudeMeters>222.399993896484375</AltitudeMeters>
            <DistanceMeters>NAN</DistanceMeters>
          </Trackpoint>
          <Trackpoint>
            <Time>2022-07-09T07:11:35.000Z</Time>
            <Position>
              <LatitudeDegrees>43.332267813384532928466796875</LatitudeDegrees>
              <LongitudeDegrees>-1.90357957966625690460205078125</LongitudeDegrees>
            </Position>
            <AltitudeMeters>222.600006103515625</AltitudeMeters>
            <DistanceMeters>NAN</DistanceMeters>
          </Trackpoint>
          <Trackpoint>
            <Time>2022-07-09T07:11:36.000Z</Time>
            <Position>
              <LatitudeDegrees>43.33226890303194522857666015625</LatitudeDegrees>
              <LongitudeDegrees>-1.90359399653971195220947265625</LongitudeDegrees>
            </Position>
            <AltitudeMeters>222.8000030517578125</AltitudeMeters>
            <DistanceMeters>NAN</DistanceMeters>
          </Trackpoint>
          <Trackpoint>
            <Time>2022-07-09T07:11:40.000Z</Time>
            <Position>
              <LatitudeDegrees>43.332286588847637176513671875</LatitudeDegrees>
              <LongitudeDegrees>-1.9036554358899593353271484375</LongitudeDegrees>
            </Position>
            <AltitudeMeters>223.1999969482421875</AltitudeMeters>
            <DistanceMeters>NAN</DistanceMeters>
          </Trackpoint>
          <Trackpoint>
            <Time>2022-07-09T07:11:42.000Z</Time>
            <Position>
              <LatitudeDegrees>43.33230444230139255523681640625</LatitudeDegrees>
              <LongitudeDegrees>-1.9036882929503917694091796875</LongitudeDegrees>
            </Position>
            <AltitudeMeters>223.399993896484375</AltitudeMeters>
            <DistanceMeters>NAN</DistanceMeters>
          </Trackpoint>
          <Trackpoint>
            <Time>2022-07-09T07:11:43.000Z</Time>
            <Position>
              <LatitudeDegrees>43.332310728728771209716796875</LatitudeDegrees>
              <LongitudeDegrees>-1.90370614640414714813232421875</LongitudeDegrees>
            </Position>
            <AltitudeMeters>223.399993896484375</AltitudeMeters>
            <DistanceMeters>NAN</DistanceMeters>
          </Trackpoint>
          <Trackpoint>
            <Time>2022-07-09T07:11:46.000Z</Time>
            <Position>
              <LatitudeDegrees>43.33233377896249294281005859375</LatitudeDegrees>
              <LongitudeDegrees>-1.90374570898711681365966796875</LongitudeDegrees>
            </Position>
            <AltitudeMeters>223.600006103515625</AltitudeMeters>
            <DistanceMeters>NAN</DistanceMeters>
          </Trackpoint>
          <Trackpoint>
            <Time>2022-07-09T07:11:49.000Z</Time>
            <Position>
              <LatitudeDegrees>43.33234970457851886749267578125</LatitudeDegrees>
              <LongitudeDegrees>-1.90378644503653049468994140625</LongitudeDegrees>
            </Position>
            <AltitudeMeters>223.8000030517578125</AltitudeMeters>
            <DistanceMeters>NAN</DistanceMeters>
          </Trackpoint>
          <Trackpoint>
            <Time>2022-07-09T07:11:50.000Z</Time>
            <Position>
              <LatitudeDegrees>43.33235791884362697601318359375</LatitudeDegrees>
              <LongitudeDegrees>-1.90379750914871692657470703125</LongitudeDegrees>
            </Position>
            <AltitudeMeters>224</AltitudeMeters>
            <DistanceMeters>NAN</DistanceMeters>
          </Trackpoint>
          <Trackpoint>
            <Time>2022-07-09T07:11:54.000Z</Time>
            <Position>
              <LatitudeDegrees>43.332407958805561065673828125</LatitudeDegrees>
              <LongitudeDegrees>-1.90388903953135013580322265625</LongitudeDegrees>
            </Position>
            <AltitudeMeters>224.399993896484375</AltitudeMeters>
            <DistanceMeters>NAN</DistanceMeters>
          </Trackpoint>
          <Trackpoint>
            <Time>2022-07-09T07:11:56.000Z</Time>
            <Position>
              <LatitudeDegrees>43.33241960965096950531005859375</LatitudeDegrees>
              <LongitudeDegrees>-1.90392474643886089324951171875</LongitudeDegrees>
            </Position>
            <AltitudeMeters>224.600006103515625</AltitudeMeters>
            <DistanceMeters>NAN</DistanceMeters>
          </Trackpoint>
          <Trackpoint>
            <Time>2022-07-09T07:12:01.000Z</Time>
            <Position>
              <LatitudeDegrees>43.3324527181684970855712890625</LatitudeDegrees>
              <LongitudeDegrees>-1.90400739200413227081298828125</LongitudeDegrees>
            </Position>
            <AltitudeMeters>225.1999969482421875</AltitudeMeters>
            <DistanceMeters>NAN</DistanceMeters>
          </Trackpoint>
          <Trackpoint>
            <Time>2022-07-09T07:12:06.000Z</Time>
            <Position>
              <LatitudeDegrees>43.33251952193677425384521484375</LatitudeDegrees>
              <LongitudeDegrees>-1.90406170673668384552001953125</LongitudeDegrees>
            </Position>
            <AltitudeMeters>225.8000030517578125</AltitudeMeters>
            <DistanceMeters>NAN</DistanceMeters>
          </Trackpoint>
          <Trackpoint>
            <Time>2022-07-09T07:12:10.000Z</Time>
            <Position>
              <LatitudeDegrees>43.33255774341523647308349609375</LatitudeDegrees>
              <LongitudeDegrees>-1.90408936701714992523193359375</LongitudeDegrees>
            </Position>
            <AltitudeMeters>226.1999969482421875</AltitudeMeters>
            <DistanceMeters>NAN</DistanceMeters>
          </Trackpoint>
          <Trackpoint>
            <Time>2022-07-09T07:12:15.000Z</Time>
            <Position>
              <LatitudeDegrees>43.33261080086231231689453125</LatitudeDegrees>
              <LongitudeDegrees>-1.9041551649570465087890625</LongitudeDegrees>
            </Position>
            <AltitudeMeters>226.8000030517578125</AltitudeMeters>
            <DistanceMeters>NAN</DistanceMeters>
          </Trackpoint>
          <Trackpoint>
            <Time>2022-07-09T07:12:18.000Z</Time>
            <Position>
              <LatitudeDegrees>43.33262681029736995697021484375</LatitudeDegrees>
              <LongitudeDegrees>-1.90419648773968219757080078125</LongitudeDegrees>
            </Position>
            <AltitudeMeters>227.1999969482421875</AltitudeMeters>
            <DistanceMeters>NAN</DistanceMeters>
          </Trackpoint>
          <Trackpoint>
            <Time>2022-07-09T07:12:22.000Z</Time>
            <Position>
              <LatitudeDegrees>43.332648016512393951416015625</LatitudeDegrees>
              <LongitudeDegrees>-1.90423496067523956298828125</LongitudeDegrees>
            </Position>
            <AltitudeMeters>227.399993896484375</AltitudeMeters>
            <DistanceMeters>NAN</DistanceMeters>
          </Trackpoint>
          <Trackpoint>
            <Time>2022-07-09T07:12:24.000Z</Time>
            <Position>
              <LatitudeDegrees>43.3326488547027111053466796875</LatitudeDegrees>
              <LongitudeDegrees>-1.9042559154331684112548828125</LongitudeDegrees>
            </Position>
            <AltitudeMeters>227.399993896484375</AltitudeMeters>
            <DistanceMeters>NAN</DistanceMeters>
          </Trackpoint>
          <Trackpoint>
            <Time>2022-07-09T07:12:26.000Z</Time>
            <Position>
              <LatitudeDegrees>43.33264793269336223602294921875</LatitudeDegrees>
              <LongitudeDegrees>-1.90425775945186614990234375</LongitudeDegrees>
            </Position>
            <AltitudeMeters>227.399993896484375</AltitudeMeters>
            <DistanceMeters>NAN</DistanceMeters>
          </Trackpoint>
          <Trackpoint>
            <Time>2022-07-09T07:14:18.000Z</Time>
            <Position>
              <LatitudeDegrees>43.33265966735780239105224609375</LatitudeDegrees>
              <LongitudeDegrees>-1.904361359775066375732421875</LongitudeDegrees>
            </Position>
            <AltitudeMeters>226</AltitudeMeters>
            <DistanceMeters>NAN</DistanceMeters>
          </Trackpoint>
          <Trackpoint>
            <Time>2022-07-09T07:14:19.000Z</Time>
            <Position>
              <LatitudeDegrees>43.33266033791005611419677734375</LatitudeDegrees>
              <LongitudeDegrees>-1.904394887387752532958984375</LongitudeDegrees>
            </Position>
            <AltitudeMeters>226</AltitudeMeters>
            <DistanceMeters>NAN</DistanceMeters>
          </Trackpoint>
          <Trackpoint>
            <Time>2022-07-09T07:14:22.000Z</Time>
            <Position>
              <LatitudeDegrees>43.33265480585396289825439453125</LatitudeDegrees>
              <LongitudeDegrees>-1.90452774055302143096923828125</LongitudeDegrees>
            </Position>
            <AltitudeMeters>225.8000030517578125</AltitudeMeters>
            <DistanceMeters>NAN</DistanceMeters>
          </Trackpoint>
          <Trackpoint>
            <Time>2022-07-09T07:14:23.000Z</Time>
            <Position>
              <LatitudeDegrees>43.3326461724936962127685546875</LatitudeDegrees>
              <LongitudeDegrees>-1.9045794568955898284912109375</LongitudeDegrees>
            </Position>
            <AltitudeMeters>225.399993896484375</AltitudeMeters>
            <DistanceMeters>NAN</DistanceMeters>
          </Trackpoint>
          <Trackpoint>
            <Time>2022-07-09T07:14:25.000Z</Time>
            <Position>
              <LatitudeDegrees>43.33261909894645214080810546875</LatitudeDegrees>
              <LongitudeDegrees>-1.90469906665384769439697265625</LongitudeDegrees>
            </Position>
            <AltitudeMeters>224.600006103515625</AltitudeMeters>
            <DistanceMeters>NAN</DistanceMeters>
          </Trackpoint>
          <Trackpoint>
            <Time>2022-07-09T07:14:27.000Z</Time>
            <Position>
              <LatitudeDegrees>43.33260552026331424713134765625</LatitudeDegrees>
              <LongitudeDegrees>-1.90484340302646160125732421875</LongitudeDegrees>
            </Position>
            <AltitudeMeters>223.8000030517578125</AltitudeMeters>
            <DistanceMeters>NAN</DistanceMeters>
          </Trackpoint>
          <Trackpoint>
            <Time>2022-07-09T07:14:28.000Z</Time>
            <Position>
              <LatitudeDegrees>43.33259780891239643096923828125</LatitudeDegrees>
              <LongitudeDegrees>-1.904929988086223602294921875</LongitudeDegrees>
            </Position>
            <AltitudeMeters>223</AltitudeMeters>
            <DistanceMeters>NAN</DistanceMeters>
          </Trackpoint>
          <Trackpoint>
            <Time>2022-07-09T07:14:30.000Z</Time>
            <Position>
              <LatitudeDegrees>43.33257785998284816741943359375</LatitudeDegrees>
              <LongitudeDegrees>-1.9051075167953968048095703125</LongitudeDegrees>
            </Position>
            <AltitudeMeters>221.600006103515625</AltitudeMeters>
            <DistanceMeters>NAN</DistanceMeters>
          </Trackpoint>
          <Trackpoint>
            <Time>2022-07-09T07:14:31.000Z</Time>
            <Position>
              <LatitudeDegrees>43.33256428129971027374267578125</LatitudeDegrees>
              <LongitudeDegrees>-1.90520047210156917572021484375</LongitudeDegrees>
            </Position>
            <AltitudeMeters>220.600006103515625</AltitudeMeters>
            <DistanceMeters>NAN</DistanceMeters>
          </Trackpoint>
          <Trackpoint>
            <Time>2022-07-09T07:14:32.000Z</Time>
            <Position>
              <LatitudeDegrees>43.33255237899720668792724609375</LatitudeDegrees>
              <LongitudeDegrees>-1.90529309213161468505859375</LongitudeDegrees>
            </Position>
            <AltitudeMeters>219.600006103515625</AltitudeMeters>
            <DistanceMeters>NAN</DistanceMeters>
          </Trackpoint>
          <Trackpoint>
            <Time>2022-07-09T07:14:33.000Z</Time>
            <Position>
              <LatitudeDegrees>43.3325412310659885406494140625</LatitudeDegrees>
              <LongitudeDegrees>-1.90538831055164337158203125</LongitudeDegrees>
            </Position>
            <AltitudeMeters>219</AltitudeMeters>
            <DistanceMeters>NAN</DistanceMeters>
          </Trackpoint>
          <Trackpoint>
            <Time>2022-07-09T07:14:34.000Z</Time>
            <Position>
              <LatitudeDegrees>43.332528658211231231689453125</LatitudeDegrees>
              <LongitudeDegrees>-1.90548914484679698944091796875</LongitudeDegrees>
            </Position>
            <AltitudeMeters>218</AltitudeMeters>
            <DistanceMeters>NAN</DistanceMeters>
          </Trackpoint>
          <Trackpoint>
            <Time>2022-07-09T07:14:35.000Z</Time>
            <Position>
              <LatitudeDegrees>43.3325204439461231231689453125</LatitudeDegrees>
              <LongitudeDegrees>-1.90559056587517261505126953125</LongitudeDegrees>
            </Position>
            <AltitudeMeters>217</AltitudeMeters>
            <DistanceMeters>NAN</DistanceMeters>
          </Trackpoint>
          <Trackpoint>
            <Time>2022-07-09T07:14:36.000Z</Time>
            <Position>
              <LatitudeDegrees>43.33250745199620723724365234375</LatitudeDegrees>
              <LongitudeDegrees>-1.90569349564611911773681640625</LongitudeDegrees>
            </Position>
            <AltitudeMeters>216.600006103515625</AltitudeMeters>
            <DistanceMeters>NAN</DistanceMeters>
          </Trackpoint>
          <Trackpoint>
            <Time>2022-07-09T07:14:40.000Z</Time>
            <Position>
              <LatitudeDegrees>43.33243754692375659942626953125</LatitudeDegrees>
              <LongitudeDegrees>-1.90608442761003971099853515625</LongitudeDegrees>
            </Position>
            <AltitudeMeters>215.600006103515625</AltitudeMeters>
            <DistanceMeters>NAN</DistanceMeters>
          </Trackpoint>
          <Trackpoint>
            <Time>2022-07-09T07:14:42.000Z</Time>
            <Position>
              <LatitudeDegrees>43.3323943801224231719970703125</LatitudeDegrees>
              <LongitudeDegrees>-1.9062769599258899688720703125</LongitudeDegrees>
            </Position>
            <AltitudeMeters>215.399993896484375</AltitudeMeters>
            <DistanceMeters>NAN</DistanceMeters>
          </Trackpoint>
          <Trackpoint>
            <Time>2022-07-09T07:14:45.000Z</Time>
            <Position>
              <LatitudeDegrees>43.33236697129905223846435546875</LatitudeDegrees>
              <LongitudeDegrees>-1.9065780378878116607666015625</LongitudeDegrees>
            </Position>
            <AltitudeMeters>215</AltitudeMeters>
            <DistanceMeters>NAN</DistanceMeters>
          </Trackpoint>
          <Trackpoint>
            <Time>2022-07-09T07:14:48.000Z</Time>
            <Position>
              <LatitudeDegrees>43.33233679644763469696044921875</LatitudeDegrees>
              <LongitudeDegrees>-1.90688221715390682220458984375</LongitudeDegrees>
            </Position>
            <AltitudeMeters>214.1999969482421875</AltitudeMeters>
            <DistanceMeters>NAN</DistanceMeters>
          </Trackpoint>
          <Trackpoint>
            <Time>2022-07-09T07:14:50.000Z</Time>
            <Position>
              <LatitudeDegrees>43.33233646117150783538818359375</LatitudeDegrees>
              <LongitudeDegrees>-1.90710048191249370574951171875</LongitudeDegrees>
            </Position>
            <AltitudeMeters>213.600006103515625</AltitudeMeters>
            <DistanceMeters>NAN</DistanceMeters>
          </Trackpoint>
          <Trackpoint>
            <Time>2022-07-09T07:14:52.000Z</Time>
            <Position>
              <LatitudeDegrees>43.33232774399220943450927734375</LatitudeDegrees>
              <LongitudeDegrees>-1.90729829482734203338623046875</LongitudeDegrees>
            </Position>
            <AltitudeMeters>213</AltitudeMeters>
            <DistanceMeters>NAN</DistanceMeters>
          </Trackpoint>
          <Trackpoint>
            <Time>2022-07-09T07:14:55.000Z</Time>
            <Position>
              <LatitudeDegrees>43.33227577619254589080810546875</LatitudeDegrees>
              <LongitudeDegrees>-1.90756919793784618377685546875</LongitudeDegrees>
            </Position>
            <AltitudeMeters>211.8000030517578125</AltitudeMeters>
            <DistanceMeters>NAN</DistanceMeters>
          </Trackpoint>
          <Trackpoint>
            <Time>2022-07-09T07:14:57.000Z</Time>
            <Position>
              <LatitudeDegrees>43.33218910731375217437744140625</LatitudeDegrees>
              <LongitudeDegrees>-1.90777949988842010498046875</LongitudeDegrees>
            </Position>
            <AltitudeMeters>211</AltitudeMeters>
            <DistanceMeters>NAN</DistanceMeters>
          </Trackpoint>
          <Trackpoint>
            <Time>2022-07-09T07:14:58.000Z</Time>
            <Position>
              <LatitudeDegrees>43.33214719779789447784423828125</LatitudeDegrees>
              <LongitudeDegrees>-1.9078805856406688690185546875</LongitudeDegrees>
            </Position>
            <AltitudeMeters>210.600006103515625</AltitudeMeters>
            <DistanceMeters>NAN</DistanceMeters>
          </Trackpoint>
          <Trackpoint>
            <Time>2022-07-09T07:15:01.000Z</Time>
            <Position>
              <LatitudeDegrees>43.3319793082773685455322265625</LatitudeDegrees>
              <LongitudeDegrees>-1.9081638939678668975830078125</LongitudeDegrees>
            </Position>
            <AltitudeMeters>209.399993896484375</AltitudeMeters>
            <DistanceMeters>NAN</DistanceMeters>
          </Trackpoint>
          <Trackpoint>
            <Time>2022-07-09T07:15:03.000Z</Time>
            <Position>
              <LatitudeDegrees>43.33185249008238315582275390625</LatitudeDegrees>
              <LongitudeDegrees>-1.9083771295845508575439453125</LongitudeDegrees>
            </Position>
            <AltitudeMeters>207.8000030517578125</AltitudeMeters>
            <DistanceMeters>NAN</DistanceMeters>
          </Trackpoint>
          <Trackpoint>
            <Time>2022-07-09T07:15:04.000Z</Time>
            <Position>
              <LatitudeDegrees>43.33178711123764514923095703125</LatitudeDegrees>
              <LongitudeDegrees>-1.9084927998483180999755859375</LongitudeDegrees>
            </Position>
            <AltitudeMeters>206.600006103515625</AltitudeMeters>
            <DistanceMeters>NAN</DistanceMeters>
          </Trackpoint>
          <Trackpoint>
            <Time>2022-07-09T07:15:06.000Z</Time>
            <Position>
              <LatitudeDegrees>43.33165417425334453582763671875</LatitudeDegrees>
              <LongitudeDegrees>-1.9087016768753528594970703125</LongitudeDegrees>
            </Position>
            <AltitudeMeters>205.1999969482421875</AltitudeMeters>
            <DistanceMeters>NAN</DistanceMeters>
          </Trackpoint>
          <Trackpoint>
            <Time>2022-07-09T07:15:07.000Z</Time>
            <Position>
              <LatitudeDegrees>43.33159315399825572967529296875</LatitudeDegrees>
              <LongitudeDegrees>-1.90879605710506439208984375</LongitudeDegrees>
            </Position>
            <AltitudeMeters>204.399993896484375</AltitudeMeters>
            <DistanceMeters>NAN</DistanceMeters>
          </Trackpoint>
          <Trackpoint>
            <Time>2022-07-09T07:15:08.000Z</Time>
            <Position>
              <LatitudeDegrees>43.3315397612750530242919921875</LatitudeDegrees>
              <LongitudeDegrees>-1.90888716839253902435302734375</LongitudeDegrees>
            </Position>
            <AltitudeMeters>203.8000030517578125</AltitudeMeters>
            <DistanceMeters>NAN</DistanceMeters>
          </Trackpoint>
          <Trackpoint>
            <Time>2022-07-09T07:15:11.000Z</Time>
            <Position>
              <LatitudeDegrees>43.331411518156528472900390625</LatitudeDegrees>
              <LongitudeDegrees>-1.90909110009670257568359375</LongitudeDegrees>
            </Position>
            <AltitudeMeters>202</AltitudeMeters>
            <DistanceMeters>NAN</DistanceMeters>
          </Trackpoint>
          <Trackpoint>
            <Time>2022-07-09T07:15:14.000Z</Time>
            <Position>
              <LatitudeDegrees>43.33135410211980342864990234375</LatitudeDegrees>
              <LongitudeDegrees>-1.90919897519052028656005859375</LongitudeDegrees>
            </Position>
            <AltitudeMeters>200.8000030517578125</AltitudeMeters>
            <DistanceMeters>NAN</DistanceMeters>
          </Trackpoint>
          <Trackpoint>
            <Time>2022-07-09T07:15:19.000Z</Time>
            <Position>
              <LatitudeDegrees>43.33130188286304473876953125</LatitudeDegrees>
              <LongitudeDegrees>-1.90942495130002498626708984375</LongitudeDegrees>
            </Position>
            <AltitudeMeters>200.600006103515625</AltitudeMeters>
            <DistanceMeters>NAN</DistanceMeters>
          </Trackpoint>
          <Trackpoint>
            <Time>2022-07-09T07:15:27.000Z</Time>
            <Position>
              <LatitudeDegrees>43.33122166804969310760498046875</LatitudeDegrees>
              <LongitudeDegrees>-1.90984203480184078216552734375</LongitudeDegrees>
            </Position>
            <AltitudeMeters>200.8000030517578125</AltitudeMeters>
            <DistanceMeters>NAN</DistanceMeters>
          </Trackpoint>
          <Trackpoint>
            <Time>2022-07-09T07:15:34.000Z</Time>
            <Position>
              <LatitudeDegrees>43.33109878934919834136962890625</LatitudeDegrees>
              <LongitudeDegrees>-1.91029482521116733551025390625</LongitudeDegrees>
            </Position>
            <AltitudeMeters>200</AltitudeMeters>
            <DistanceMeters>NAN</DistanceMeters>
          </Trackpoint>
          <Trackpoint>
            <Time>2022-07-09T07:15:36.000Z</Time>
            <Position>
              <LatitudeDegrees>43.33106174133718013763427734375</LatitudeDegrees>
              <LongitudeDegrees>-1.91039172001183032989501953125</LongitudeDegrees>
            </Position>
            <AltitudeMeters>200</AltitudeMeters>
            <DistanceMeters>NAN</DistanceMeters>
          </Trackpoint>
          <Trackpoint>
            <Time>2022-07-09T07:15:38.000Z</Time>
            <Position>
              <LatitudeDegrees>43.3310432173311710357666015625</LatitudeDegrees>
              <LongitudeDegrees>-1.91047855652868747711181640625</LongitudeDegrees>
            </Position>
            <AltitudeMeters>200</AltitudeMeters>
            <DistanceMeters>NAN</DistanceMeters>
          </Trackpoint>
          <Trackpoint>
            <Time>2022-07-09T07:15:44.000Z</Time>
            <Position>
              <LatitudeDegrees>43.33102452568709850311279296875</LatitudeDegrees>
              <LongitudeDegrees>-1.91071190871298313140869140625</LongitudeDegrees>
            </Position>
            <AltitudeMeters>200</AltitudeMeters>
            <DistanceMeters>NAN</DistanceMeters>
          </Trackpoint>
          <Trackpoint>
            <Time>2022-07-09T07:15:52.000Z</Time>
            <Position>
              <LatitudeDegrees>43.3309969492256641387939453125</LatitudeDegrees>
              <LongitudeDegrees>-1.91094526089727878570556640625</LongitudeDegrees>
            </Position>
            <AltitudeMeters>201.399993896484375</AltitudeMeters>
            <DistanceMeters>NAN</DistanceMeters>
          </Trackpoint>
          <Trackpoint>
            <Time>2022-07-09T07:15:56.000Z</Time>
            <Position>
              <LatitudeDegrees>43.33098135888576507568359375</LatitudeDegrees>
              <LongitudeDegrees>-1.9110408984124660491943359375</LongitudeDegrees>
            </Position>
            <AltitudeMeters>202</AltitudeMeters>
            <DistanceMeters>NAN</DistanceMeters>
          </Trackpoint>
          <Trackpoint>
            <Time>2022-07-09T07:15:59.000Z</Time>
            <Position>
              <LatitudeDegrees>43.33095881156623363494873046875</LatitudeDegrees>
              <LongitudeDegrees>-1.91111843101680278778076171875</LongitudeDegrees>
            </Position>
            <AltitudeMeters>202.1999969482421875</AltitudeMeters>
            <DistanceMeters>NAN</DistanceMeters>
          </Trackpoint>
          <Trackpoint>
            <Time>2022-07-09T07:16:10.000Z</Time>
            <Position>
              <LatitudeDegrees>43.33088454790413379669189453125</LatitudeDegrees>
              <LongitudeDegrees>-1.9114319980144500732421875</LongitudeDegrees>
            </Position>
            <AltitudeMeters>202.399993896484375</AltitudeMeters>
            <DistanceMeters>NAN</DistanceMeters>
          </Trackpoint>
          <Trackpoint>
            <Time>2022-07-09T07:16:16.000Z</Time>
            <Position>
              <LatitudeDegrees>43.3308276347815990447998046875</LatitudeDegrees>
              <LongitudeDegrees>-1.911663673818111419677734375</LongitudeDegrees>
            </Position>
            <AltitudeMeters>202</AltitudeMeters>
            <DistanceMeters>NAN</DistanceMeters>
          </Trackpoint>
          <Trackpoint>
            <Time>2022-07-09T07:16:19.000Z</Time>
            <Position>
              <LatitudeDegrees>43.33077558316290378570556640625</LatitudeDegrees>
              <LongitudeDegrees>-1.91183231770992279052734375</LongitudeDegrees>
            </Position>
            <AltitudeMeters>201.399993896484375</AltitudeMeters>
            <DistanceMeters>NAN</DistanceMeters>
          </Trackpoint>
          <Trackpoint>
            <Time>2022-07-09T07:16:21.000Z</Time>
            <Position>
              <LatitudeDegrees>43.33074867725372314453125</LatitudeDegrees>
              <LongitudeDegrees>-1.911985874176025390625</LongitudeDegrees>
            </Position>
            <AltitudeMeters>200.8000030517578125</AltitudeMeters>
            <DistanceMeters>NAN</DistanceMeters>
          </Trackpoint>
          <Trackpoint>
            <Time>2022-07-09T07:16:23.000Z</Time>
            <Position>
              <LatitudeDegrees>43.33074172027409076690673828125</LatitudeDegrees>
              <LongitudeDegrees>-1.9121271930634975433349609375</LongitudeDegrees>
            </Position>
            <AltitudeMeters>199.8000030517578125</AltitudeMeters>
            <DistanceMeters>NAN</DistanceMeters>
          </Trackpoint>
          <Trackpoint>
            <Time>2022-07-09T07:16:26.000Z</Time>
            <Position>
              <LatitudeDegrees>43.33074658177793025970458984375</LatitudeDegrees>
              <LongitudeDegrees>-1.91232961602509021759033203125</LongitudeDegrees>
            </Position>
            <AltitudeMeters>198.1999969482421875</AltitudeMeters>
            <DistanceMeters>NAN</DistanceMeters>
          </Trackpoint>
          <Trackpoint>
            <Time>2022-07-09T07:16:27.000Z</Time>
            <Position>
              <LatitudeDegrees>43.33075194619596004486083984375</LatitudeDegrees>
              <LongitudeDegrees>-1.91241578198969364166259765625</LongitudeDegrees>
            </Position>
            <AltitudeMeters>197.600006103515625</AltitudeMeters>
            <DistanceMeters>NAN</DistanceMeters>
          </Trackpoint>
          <Trackpoint>
            <Time>2022-07-09T07:16:28.000Z</Time>
            <Position>
              <LatitudeDegrees>43.33075043745338916778564453125</LatitudeDegrees>
              <LongitudeDegrees>-1.91248686052858829498291015625</LongitudeDegrees>
            </Position>
            <AltitudeMeters>197</AltitudeMeters>
            <DistanceMeters>NAN</DistanceMeters>
          </Trackpoint>
          <Trackpoint>
            <Time>2022-07-09T07:16:30.000Z</Time>
            <Position>
              <LatitudeDegrees>43.3307200111448764801025390625</LatitudeDegrees>
              <LongitudeDegrees>-1.91260001622140407562255859375</LongitudeDegrees>
            </Position>
            <AltitudeMeters>196</AltitudeMeters>
            <DistanceMeters>NAN</DistanceMeters>
          </Trackpoint>
          <Trackpoint>
            <Time>2022-07-09T07:16:32.000Z</Time>
            <Position>
              <LatitudeDegrees>43.33066284656524658203125</LatitudeDegrees>
              <LongitudeDegrees>-1.9127152673900127410888671875</LongitudeDegrees>
            </Position>
            <AltitudeMeters>195.399993896484375</AltitudeMeters>
            <DistanceMeters>NAN</DistanceMeters>
          </Trackpoint>
          <Trackpoint>
            <Time>2022-07-09T07:16:33.000Z</Time>
            <Position>
              <LatitudeDegrees>43.33062923513352870941162109375</LatitudeDegrees>
              <LongitudeDegrees>-1.9127863459289073944091796875</LongitudeDegrees>
            </Position>
            <AltitudeMeters>194.600006103515625</AltitudeMeters>
            <DistanceMeters>NAN</DistanceMeters>
          </Trackpoint>
          <Trackpoint>
            <Time>2022-07-09T07:16:36.000Z</Time>
            <Position>
              <LatitudeDegrees>43.33054415881633758544921875</LatitudeDegrees>
              <LongitudeDegrees>-1.91297368146479129791259765625</LongitudeDegrees>
            </Position>
            <AltitudeMeters>193.399993896484375</AltitudeMeters>
            <DistanceMeters>NAN</DistanceMeters>
          </Trackpoint>
          <Trackpoint>
            <Time>2022-07-09T07:16:38.000Z</Time>
            <Position>
              <LatitudeDegrees>43.33047450520098209381103515625</LatitudeDegrees>
              <LongitudeDegrees>-1.91312137059867382049560546875</LongitudeDegrees>
            </Position>
            <AltitudeMeters>191.8000030517578125</AltitudeMeters>
            <DistanceMeters>NAN</DistanceMeters>
          </Trackpoint>
          <Trackpoint>
            <Time>2022-07-09T07:16:39.000Z</Time>
            <Position>
              <LatitudeDegrees>43.3304321765899658203125</LatitudeDegrees>
              <LongitudeDegrees>-1.913201250135898590087890625</LongitudeDegrees>
            </Position>
            <AltitudeMeters>191</AltitudeMeters>
            <DistanceMeters>NAN</DistanceMeters>
          </Trackpoint>
          <Trackpoint>
            <Time>2022-07-09T07:16:40.000Z</Time>
            <Position>
              <LatitudeDegrees>43.330396302044391632080078125</LatitudeDegrees>
              <LongitudeDegrees>-1.91326922737061977386474609375</LongitudeDegrees>
            </Position>
            <AltitudeMeters>189.399993896484375</AltitudeMeters>
            <DistanceMeters>NAN</DistanceMeters>
          </Trackpoint>
          <Trackpoint>
            <Time>2022-07-09T07:16:42.000Z</Time>
            <Position>
              <LatitudeDegrees>43.3303173445165157318115234375</LatitudeDegrees>
              <LongitudeDegrees>-1.91343820653855800628662109375</LongitudeDegrees>
            </Position>
            <AltitudeMeters>187.600006103515625</AltitudeMeters>
            <DistanceMeters>NAN</DistanceMeters>
          </Trackpoint>
          <Trackpoint>
            <Time>2022-07-09T07:16:43.000Z</Time>
            <Position>
              <LatitudeDegrees>43.330289013683795928955078125</LatitudeDegrees>
              <LongitudeDegrees>-1.91351146437227725982666015625</LongitudeDegrees>
            </Position>
            <AltitudeMeters>186</AltitudeMeters>
            <DistanceMeters>NAN</DistanceMeters>
          </Trackpoint>
          <Trackpoint>
            <Time>2022-07-09T07:16:44.000Z</Time>
            <Position>
              <LatitudeDegrees>43.33027166314423084259033203125</LatitudeDegrees>
              <LongitudeDegrees>-1.91357902251183986663818359375</LongitudeDegrees>
            </Position>
            <AltitudeMeters>185.1999969482421875</AltitudeMeters>
            <DistanceMeters>NAN</DistanceMeters>
          </Trackpoint>
          <Trackpoint>
            <Time>2022-07-09T07:16:45.000Z</Time>
            <Position>
              <LatitudeDegrees>43.33026814274489879608154296875</LatitudeDegrees>
              <LongitudeDegrees>-1.91364473663270473480224609375</LongitudeDegrees>
            </Position>
            <AltitudeMeters>184.1999969482421875</AltitudeMeters>
            <DistanceMeters>NAN</DistanceMeters>
          </Trackpoint>
          <Trackpoint>
            <Time>2022-07-09T07:16:46.000Z</Time>
            <Position>
              <LatitudeDegrees>43.3302586711943149566650390625</LatitudeDegrees>
              <LongitudeDegrees>-1.9137026555836200714111328125</LongitudeDegrees>
            </Position>
            <AltitudeMeters>183.600006103515625</AltitudeMeters>
            <DistanceMeters>NAN</DistanceMeters>
          </Trackpoint>
          <Trackpoint>
            <Time>2022-07-09T07:16:47.000Z</Time>
            <Position>
              <LatitudeDegrees>43.33023880608379840850830078125</LatitudeDegrees>
              <LongitudeDegrees>-1.91376375965774059295654296875</LongitudeDegrees>
            </Position>
            <AltitudeMeters>182.600006103515625</AltitudeMeters>
            <DistanceMeters>NAN</DistanceMeters>
          </Trackpoint>
          <Trackpoint>
            <Time>2022-07-09T07:16:48.000Z</Time>
            <Position>
              <LatitudeDegrees>43.33022405393421649932861328125</LatitudeDegrees>
              <LongitudeDegrees>-1.913821510970592498779296875</LongitudeDegrees>
            </Position>
            <AltitudeMeters>181.8000030517578125</AltitudeMeters>
            <DistanceMeters>NAN</DistanceMeters>
          </Trackpoint>
          <Trackpoint>
            <Time>2022-07-09T07:16:49.000Z</Time>
            <Position>
              <LatitudeDegrees>43.33020192570984363555908203125</LatitudeDegrees>
              <LongitudeDegrees>-1.9138754904270172119140625</LongitudeDegrees>
            </Position>
            <AltitudeMeters>181.1999969482421875</AltitudeMeters>
            <DistanceMeters>NAN</DistanceMeters>
          </Trackpoint>
          <Trackpoint>
            <Time>2022-07-09T07:16:50.000Z</Time>
            <Position>
              <LatitudeDegrees>43.33014861680567264556884765625</LatitudeDegrees>
              <LongitudeDegrees>-1.9139376841485500335693359375</LongitudeDegrees>
            </Position>
            <AltitudeMeters>180.1999969482421875</AltitudeMeters>
            <DistanceMeters>NAN</DistanceMeters>
          </Trackpoint>
          <Trackpoint>
            <Time>2022-07-09T07:16:51.000Z</Time>
            <Position>
              <LatitudeDegrees>43.33011911250650882720947265625</LatitudeDegrees>
              <LongitudeDegrees>-1.91398202441632747650146484375</LongitudeDegrees>
            </Position>
            <AltitudeMeters>179.1999969482421875</AltitudeMeters>
            <DistanceMeters>NAN</DistanceMeters>
          </Trackpoint>
          <Trackpoint>
            <Time>2022-07-09T07:16:53.000Z</Time>
            <Position>
              <LatitudeDegrees>43.3300511352717876434326171875</LatitudeDegrees>
              <LongitudeDegrees>-1.91410951316356658935546875</LongitudeDegrees>
            </Position>
            <AltitudeMeters>177.600006103515625</AltitudeMeters>
            <DistanceMeters>NAN</DistanceMeters>
          </Trackpoint>
          <Trackpoint>
            <Time>2022-07-09T07:16:54.000Z</Time>
            <Position>
              <LatitudeDegrees>43.330021463334560394287109375</LatitudeDegrees>
              <LongitudeDegrees>-1.91415703855454921722412109375</LongitudeDegrees>
            </Position>
            <AltitudeMeters>176</AltitudeMeters>
            <DistanceMeters>NAN</DistanceMeters>
          </Trackpoint>
          <Trackpoint>
            <Time>2022-07-09T07:16:55.000Z</Time>
            <Position>
              <LatitudeDegrees>43.329995982348918914794921875</LatitudeDegrees>
              <LongitudeDegrees>-1.9141919910907745361328125</LongitudeDegrees>
            </Position>
            <AltitudeMeters>175</AltitudeMeters>
            <DistanceMeters>NAN</DistanceMeters>
          </Trackpoint>
          <Trackpoint>
            <Time>2022-07-09T07:16:56.000Z</Time>
            <Position>
              <LatitudeDegrees>43.329970501363277435302734375</LatitudeDegrees>
              <LongitudeDegrees>-1.91421822644770145416259765625</LongitudeDegrees>
            </Position>
            <AltitudeMeters>173.8000030517578125</AltitudeMeters>
            <DistanceMeters>NAN</DistanceMeters>
          </Trackpoint>
          <Trackpoint>
            <Time>2022-07-09T07:16:57.000Z</Time>
            <Position>
              <LatitudeDegrees>43.3299485407769680023193359375</LatitudeDegrees>
              <LongitudeDegrees>-1.914228536188602447509765625</LongitudeDegrees>
            </Position>
            <AltitudeMeters>172.600006103515625</AltitudeMeters>
            <DistanceMeters>NAN</DistanceMeters>
          </Trackpoint>
          <Trackpoint>
            <Time>2022-07-09T07:16:58.000Z</Time>
            <Position>
              <LatitudeDegrees>43.3299277536571025848388671875</LatitudeDegrees>
              <LongitudeDegrees>-1.91422375850379467010498046875</LongitudeDegrees>
            </Position>
            <AltitudeMeters>171.600006103515625</AltitudeMeters>
            <DistanceMeters>NAN</DistanceMeters>
          </Trackpoint>
          <Trackpoint>
            <Time>2022-07-09T07:16:59.000Z</Time>
            <Position>
              <LatitudeDegrees>43.3299093134701251983642578125</LatitudeDegrees>
              <LongitudeDegrees>-1.914209760725498199462890625</LongitudeDegrees>
            </Position>
            <AltitudeMeters>171</AltitudeMeters>
            <DistanceMeters>NAN</DistanceMeters>
          </Trackpoint>
          <Trackpoint>
            <Time>2022-07-09T07:17:00.000Z</Time>
            <Position>
              <LatitudeDegrees>43.32989506423473358154296875</LatitudeDegrees>
              <LongitudeDegrees>-1.9141757301986217498779296875</LongitudeDegrees>
            </Position>
            <AltitudeMeters>170.399993896484375</AltitudeMeters>
            <DistanceMeters>NAN</DistanceMeters>
          </Trackpoint>
          <Trackpoint>
            <Time>2022-07-09T07:17:01.000Z</Time>
            <Position>
              <LatitudeDegrees>43.3298828266561031341552734375</LatitudeDegrees>
              <LongitudeDegrees>-1.91413901746273040771484375</LongitudeDegrees>
            </Position>
            <AltitudeMeters>170</AltitudeMeters>
            <DistanceMeters>NAN</DistanceMeters>
          </Trackpoint>
          <Trackpoint>
            <Time>2022-07-09T07:17:02.000Z</Time>
            <Position>
              <LatitudeDegrees>43.3298727683722972869873046875</LatitudeDegrees>
              <LongitudeDegrees>-1.91410414874553680419921875</LongitudeDegrees>
            </Position>
            <AltitudeMeters>169.600006103515625</AltitudeMeters>
            <DistanceMeters>NAN</DistanceMeters>
          </Trackpoint>
          <Trackpoint>
            <Time>2022-07-09T07:17:04.000Z</Time>
            <Position>
              <LatitudeDegrees>43.3298729360103607177734375</LatitudeDegrees>
              <LongitudeDegrees>-1.91402074880897998809814453125</LongitudeDegrees>
            </Position>
            <AltitudeMeters>168.1999969482421875</AltitudeMeters>
            <DistanceMeters>NAN</DistanceMeters>
          </Trackpoint>
          <Trackpoint>
            <Time>2022-07-09T07:17:06.000Z</Time>
            <Position>
              <LatitudeDegrees>43.32990034483373165130615234375</LatitudeDegrees>
              <LongitudeDegrees>-1.91389434970915317535400390625</LongitudeDegrees>
            </Position>
            <AltitudeMeters>166.8000030517578125</AltitudeMeters>
            <DistanceMeters>NAN</DistanceMeters>
          </Trackpoint>
          <Trackpoint>
            <Time>2022-07-09T07:17:07.000Z</Time>
            <Position>
              <LatitudeDegrees>43.32988877780735492706298828125</LatitudeDegrees>
              <LongitudeDegrees>-1.913841627538204193115234375</LongitudeDegrees>
            </Position>
            <AltitudeMeters>166</AltitudeMeters>
            <DistanceMeters>NAN</DistanceMeters>
          </Trackpoint>
          <Trackpoint>
            <Time>2022-07-09T07:17:08.000Z</Time>
            <Position>
              <LatitudeDegrees>43.32988877780735492706298828125</LatitudeDegrees>
              <LongitudeDegrees>-1.913841627538204193115234375</LongitudeDegrees>
            </Position>
            <AltitudeMeters>165</AltitudeMeters>
            <DistanceMeters>NAN</DistanceMeters>
          </Trackpoint>
          <Trackpoint>
            <Time>2022-07-09T07:17:09.000Z</Time>
            <Position>
              <LatitudeDegrees>43.32984435372054576873779296875</LatitudeDegrees>
              <LongitudeDegrees>-1.9137680344283580780029296875</LongitudeDegrees>
            </Position>
            <AltitudeMeters>164</AltitudeMeters>
            <DistanceMeters>NAN</DistanceMeters>
          </Trackpoint>
          <Trackpoint>
            <Time>2022-07-09T07:17:10.000Z</Time>
            <Position>
              <LatitudeDegrees>43.3298161067068576812744140625</LatitudeDegrees>
              <LongitudeDegrees>-1.91375386901199817657470703125</LongitudeDegrees>
            </Position>
            <AltitudeMeters>163</AltitudeMeters>
            <DistanceMeters>NAN</DistanceMeters>
          </Trackpoint>
          <Trackpoint>
            <Time>2022-07-09T07:17:11.000Z</Time>
            <Position>
              <LatitudeDegrees>43.32978383637964725494384765625</LatitudeDegrees>
              <LongitudeDegrees>-1.91375956870615482330322265625</LongitudeDegrees>
            </Position>
            <AltitudeMeters>162</AltitudeMeters>
            <DistanceMeters>NAN</DistanceMeters>
          </Trackpoint>
          <Trackpoint>
            <Time>2022-07-09T07:17:12.000Z</Time>
            <Position>
              <LatitudeDegrees>43.329749889671802520751953125</LatitudeDegrees>
              <LongitudeDegrees>-1.9137861393392086029052734375</LongitudeDegrees>
            </Position>
            <AltitudeMeters>161.1999969482421875</AltitudeMeters>
            <DistanceMeters>NAN</DistanceMeters>
          </Trackpoint>
          <Trackpoint>
            <Time>2022-07-09T07:17:14.000Z</Time>
            <Position>
              <LatitudeDegrees>43.329670093953609466552734375</LatitudeDegrees>
              <LongitudeDegrees>-1.91382779739797115325927734375</LongitudeDegrees>
            </Position>
            <AltitudeMeters>159.600006103515625</AltitudeMeters>
            <DistanceMeters>NAN</DistanceMeters>
          </Trackpoint>
          <Trackpoint>
            <Time>2022-07-09T07:17:15.000Z</Time>
            <Position>
              <LatitudeDegrees>43.329627513885498046875</LatitudeDegrees>
              <LongitudeDegrees>-1.91384355537593364715576171875</LongitudeDegrees>
            </Position>
            <AltitudeMeters>159</AltitudeMeters>
            <DistanceMeters>NAN</DistanceMeters>
          </Trackpoint>
          <Trackpoint>
            <Time>2022-07-09T07:17:16.000Z</Time>
            <Position>
              <LatitudeDegrees>43.3295897953212261199951171875</LatitudeDegrees>
              <LongitudeDegrees>-1.91386006772518157958984375</LongitudeDegrees>
            </Position>
            <AltitudeMeters>158</AltitudeMeters>
            <DistanceMeters>NAN</DistanceMeters>
          </Trackpoint>
          <Trackpoint>
            <Time>2022-07-09T07:17:18.000Z</Time>
            <Position>
              <LatitudeDegrees>43.32948376424610614776611328125</LatitudeDegrees>
              <LongitudeDegrees>-1.91388647072017192840576171875</LongitudeDegrees>
            </Position>
            <AltitudeMeters>156</AltitudeMeters>
            <DistanceMeters>NAN</DistanceMeters>
          </Trackpoint>
          <Trackpoint>
            <Time>2022-07-09T07:17:19.000Z</Time>
            <Position>
              <LatitudeDegrees>43.32942157052457332611083984375</LatitudeDegrees>
              <LongitudeDegrees>-1.913908012211322784423828125</LongitudeDegrees>
            </Position>
            <AltitudeMeters>155</AltitudeMeters>
            <DistanceMeters>NAN</DistanceMeters>
          </Trackpoint>
          <Trackpoint>
            <Time>2022-07-09T07:17:20.000Z</Time>
            <Position>
              <LatitudeDegrees>43.32935283891856670379638671875</LatitudeDegrees>
              <LongitudeDegrees>-1.9139286316931247711181640625</LongitudeDegrees>
            </Position>
            <AltitudeMeters>153.8000030517578125</AltitudeMeters>
            <DistanceMeters>NAN</DistanceMeters>
          </Trackpoint>
          <Trackpoint>
            <Time>2022-07-09T07:17:21.000Z</Time>
            <Position>
              <LatitudeDegrees>43.32929114811122417449951171875</LatitudeDegrees>
              <LongitudeDegrees>-1.91395872272551059722900390625</LongitudeDegrees>
            </Position>
            <AltitudeMeters>152.399993896484375</AltitudeMeters>
            <DistanceMeters>NAN</DistanceMeters>
          </Trackpoint>
          <Trackpoint>
            <Time>2022-07-09T07:17:23.000Z</Time>
            <Position>
              <LatitudeDegrees>43.32917765714228153228759765625</LatitudeDegrees>
              <LongitudeDegrees>-1.91402846015989780426025390625</LongitudeDegrees>
            </Position>
            <AltitudeMeters>151.1999969482421875</AltitudeMeters>
            <DistanceMeters>NAN</DistanceMeters>
          </Trackpoint>
          <Trackpoint>
            <Time>2022-07-09T07:17:25.000Z</Time>
            <Position>
              <LatitudeDegrees>43.32906517200171947479248046875</LatitudeDegrees>
              <LongitudeDegrees>-1.914079003036022186279296875</LongitudeDegrees>
            </Position>
            <AltitudeMeters>150</AltitudeMeters>
            <DistanceMeters>NAN</DistanceMeters>
          </Trackpoint>
          <Trackpoint>
            <Time>2022-07-09T07:17:27.000Z</Time>
            <Position>
              <LatitudeDegrees>43.32896576263010501861572265625</LatitudeDegrees>
              <LongitudeDegrees>-1.91415536217391490936279296875</LongitudeDegrees>
            </Position>
            <AltitudeMeters>148.8000030517578125</AltitudeMeters>
            <DistanceMeters>NAN</DistanceMeters>
          </Trackpoint>
          <Trackpoint>
            <Time>2022-07-09T07:17:28.000Z</Time>
            <Position>
              <LatitudeDegrees>43.32892335020005702972412109375</LatitudeDegrees>
              <LongitudeDegrees>-1.91419878043234348297119140625</LongitudeDegrees>
            </Position>
            <AltitudeMeters>147.600006103515625</AltitudeMeters>
            <DistanceMeters>NAN</DistanceMeters>
          </Trackpoint>
          <Trackpoint>
            <Time>2022-07-09T07:17:29.000Z</Time>
            <Position>
              <LatitudeDegrees>43.3288515172898769378662109375</LatitudeDegrees>
              <LongitudeDegrees>-1.9142535142600536346435546875</LongitudeDegrees>
            </Position>
            <AltitudeMeters>146.399993896484375</AltitudeMeters>
            <DistanceMeters>NAN</DistanceMeters>
          </Trackpoint>
          <Trackpoint>
            <Time>2022-07-09T07:17:30.000Z</Time>
            <Position>
              <LatitudeDegrees>43.3287737332284450531005859375</LatitudeDegrees>
              <LongitudeDegrees>-1.91433884203433990478515625</LongitudeDegrees>
            </Position>
            <AltitudeMeters>145</AltitudeMeters>
            <DistanceMeters>NAN</DistanceMeters>
          </Trackpoint>
          <Trackpoint>
            <Time>2022-07-09T07:17:31.000Z</Time>
            <Position>
              <LatitudeDegrees>43.3287331648170948028564453125</LatitudeDegrees>
              <LongitudeDegrees>-1.91442023031413555145263671875</LongitudeDegrees>
            </Position>
            <AltitudeMeters>143.399993896484375</AltitudeMeters>
            <DistanceMeters>NAN</DistanceMeters>
          </Trackpoint>
          <Trackpoint>
            <Time>2022-07-09T07:17:32.000Z</Time>
            <Position>
              <LatitudeDegrees>43.32871346734464168548583984375</LatitudeDegrees>
              <LongitudeDegrees>-1.91447806544601917266845703125</LongitudeDegrees>
            </Position>
            <AltitudeMeters>141.8000030517578125</AltitudeMeters>
            <DistanceMeters>NAN</DistanceMeters>
          </Trackpoint>
          <Trackpoint>
            <Time>2022-07-09T07:17:33.000Z</Time>
            <Position>
              <LatitudeDegrees>43.32869284786283969879150390625</LatitudeDegrees>
              <LongitudeDegrees>-1.9145351462066173553466796875</LongitudeDegrees>
            </Position>
            <AltitudeMeters>140.600006103515625</AltitudeMeters>
            <DistanceMeters>NAN</DistanceMeters>
          </Trackpoint>
          <Trackpoint>
            <Time>2022-07-09T07:17:35.000Z</Time>
            <Position>
              <LatitudeDegrees>43.32864708267152309417724609375</LatitudeDegrees>
              <LongitudeDegrees>-1.914665065705776214599609375</LongitudeDegrees>
            </Position>
            <AltitudeMeters>139.1999969482421875</AltitudeMeters>
            <DistanceMeters>NAN</DistanceMeters>
          </Trackpoint>
          <Trackpoint>
            <Time>2022-07-09T07:17:36.000Z</Time>
            <Position>
              <LatitudeDegrees>43.32862260751426219940185546875</LatitudeDegrees>
              <LongitudeDegrees>-1.91472767852246761322021484375</LongitudeDegrees>
            </Position>
            <AltitudeMeters>138.1999969482421875</AltitudeMeters>
            <DistanceMeters>NAN</DistanceMeters>
          </Trackpoint>
          <Trackpoint>
            <Time>2022-07-09T07:17:38.000Z</Time>
            <Position>
              <LatitudeDegrees>43.3285531215369701385498046875</LatitudeDegrees>
              <LongitudeDegrees>-1.91487503238022327423095703125</LongitudeDegrees>
            </Position>
            <AltitudeMeters>136.600006103515625</AltitudeMeters>
            <DistanceMeters>NAN</DistanceMeters>
          </Trackpoint>
          <Trackpoint>
            <Time>2022-07-09T07:17:39.000Z</Time>
            <Position>
              <LatitudeDegrees>43.3285346813499927520751953125</LatitudeDegrees>
              <LongitudeDegrees>-1.9149170257151126861572265625</LongitudeDegrees>
            </Position>
            <AltitudeMeters>135</AltitudeMeters>
            <DistanceMeters>NAN</DistanceMeters>
          </Trackpoint>
          <Trackpoint>
            <Time>2022-07-09T07:17:40.000Z</Time>
            <Position>
              <LatitudeDegrees>43.3285048417747020721435546875</LatitudeDegrees>
              <LongitudeDegrees>-1.9149669818580150604248046875</LongitudeDegrees>
            </Position>
            <AltitudeMeters>133.8000030517578125</AltitudeMeters>
            <DistanceMeters>NAN</DistanceMeters>
          </Trackpoint>
          <Trackpoint>
            <Time>2022-07-09T07:17:41.000Z</Time>
            <Position>
              <LatitudeDegrees>43.32848330028355121612548828125</LatitudeDegrees>
              <LongitudeDegrees>-1.915012411773204803466796875</LongitudeDegrees>
            </Position>
            <AltitudeMeters>132.600006103515625</AltitudeMeters>
            <DistanceMeters>NAN</DistanceMeters>
          </Trackpoint>
          <Trackpoint>
            <Time>2022-07-09T07:17:43.000Z</Time>
            <Position>
              <LatitudeDegrees>43.32849168218672275543212890625</LatitudeDegrees>
              <LongitudeDegrees>-1.91511240787804126739501953125</LongitudeDegrees>
            </Position>
            <AltitudeMeters>131.1999969482421875</AltitudeMeters>
            <DistanceMeters>NAN</DistanceMeters>
          </Trackpoint>
          <Trackpoint>
            <Time>2022-07-09T07:17:44.000Z</Time>
            <Position>
              <LatitudeDegrees>43.328499980270862579345703125</LatitudeDegrees>
              <LongitudeDegrees>-1.91517435014247894287109375</LongitudeDegrees>
            </Position>
            <AltitudeMeters>130.399993896484375</AltitudeMeters>
            <DistanceMeters>NAN</DistanceMeters>
          </Trackpoint>
          <Trackpoint>
            <Time>2022-07-09T07:17:45.000Z</Time>
            <Position>
              <LatitudeDegrees>43.3284947834908962249755859375</LatitudeDegrees>
              <LongitudeDegrees>-1.91526512615382671356201171875</LongitudeDegrees>
            </Position>
            <AltitudeMeters>130</AltitudeMeters>
            <DistanceMeters>NAN</DistanceMeters>
          </Trackpoint>
          <Trackpoint>
            <Time>2022-07-09T07:17:47.000Z</Time>
            <Position>
              <LatitudeDegrees>43.32847542129456996917724609375</LatitudeDegrees>
              <LongitudeDegrees>-1.91546763293445110321044921875</LongitudeDegrees>
            </Position>
            <AltitudeMeters>129.399993896484375</AltitudeMeters>
            <DistanceMeters>NAN</DistanceMeters>
          </Trackpoint>
          <Trackpoint>
            <Time>2022-07-09T07:17:49.000Z</Time>
            <Position>
              <LatitudeDegrees>43.32847617566585540771484375</LatitudeDegrees>
              <LongitudeDegrees>-1.91571657545864582061767578125</LongitudeDegrees>
            </Position>
            <AltitudeMeters>128.600006103515625</AltitudeMeters>
            <DistanceMeters>NAN</DistanceMeters>
          </Trackpoint>
          <Trackpoint>
            <Time>2022-07-09T07:17:50.000Z</Time>
            <Position>
              <LatitudeDegrees>43.3284713141620159149169921875</LatitudeDegrees>
              <LongitudeDegrees>-1.9158457405865192413330078125</LongitudeDegrees>
            </Position>
            <AltitudeMeters>127.8000030517578125</AltitudeMeters>
            <DistanceMeters>NAN</DistanceMeters>
          </Trackpoint>
          <Trackpoint>
            <Time>2022-07-09T07:17:51.000Z</Time>
            <Position>
              <LatitudeDegrees>43.32849252037703990936279296875</LatitudeDegrees>
              <LongitudeDegrees>-1.9159768335521221160888671875</LongitudeDegrees>
            </Position>
            <AltitudeMeters>127.40000152587890625</AltitudeMeters>
            <DistanceMeters>NAN</DistanceMeters>
          </Trackpoint>
          <Trackpoint>
            <Time>2022-07-09T07:17:53.000Z</Time>
            <Position>
              <LatitudeDegrees>43.32852202467620372772216796875</LatitudeDegrees>
              <LongitudeDegrees>-1.91625754348933696746826171875</LongitudeDegrees>
            </Position>
            <AltitudeMeters>125.59999847412109375</AltitudeMeters>
            <DistanceMeters>NAN</DistanceMeters>
          </Trackpoint>
          <Trackpoint>
            <Time>2022-07-09T07:17:55.000Z</Time>
            <Position>
              <LatitudeDegrees>43.3285169117152690887451171875</LatitudeDegrees>
              <LongitudeDegrees>-1.916495002806186676025390625</LongitudeDegrees>
            </Position>
            <AltitudeMeters>123.8000030517578125</AltitudeMeters>
            <DistanceMeters>NAN</DistanceMeters>
          </Trackpoint>
          <Trackpoint>
            <Time>2022-07-09T07:17:56.000Z</Time>
            <Position>
              <LatitudeDegrees>43.32851464860141277313232421875</LatitudeDegrees>
              <LongitudeDegrees>-1.9166328012943267822265625</LongitudeDegrees>
            </Position>
            <AltitudeMeters>122.1999969482421875</AltitudeMeters>
            <DistanceMeters>NAN</DistanceMeters>
          </Trackpoint>
          <Trackpoint>
            <Time>2022-07-09T07:17:57.000Z</Time>
            <Position>
              <LatitudeDegrees>43.32850123755633831024169921875</LatitudeDegrees>
              <LongitudeDegrees>-1.91673137247562408447265625</LongitudeDegrees>
            </Position>
            <AltitudeMeters>121</AltitudeMeters>
            <DistanceMeters>NAN</DistanceMeters>
          </Trackpoint>
          <Trackpoint>
            <Time>2022-07-09T07:17:58.000Z</Time>
            <Position>
              <LatitudeDegrees>43.32851548679172992706298828125</LatitudeDegrees>
              <LongitudeDegrees>-1.9168488867580890655517578125</LongitudeDegrees>
            </Position>
            <AltitudeMeters>119.8000030517578125</AltitudeMeters>
            <DistanceMeters>NAN</DistanceMeters>
          </Trackpoint>
          <Trackpoint>
            <Time>2022-07-09T07:17:59.000Z</Time>
            <Position>
              <LatitudeDegrees>43.328534848988056182861328125</LatitudeDegrees>
              <LongitudeDegrees>-1.9169632159173488616943359375</LongitudeDegrees>
            </Position>
            <AltitudeMeters>118.59999847412109375</AltitudeMeters>
            <DistanceMeters>NAN</DistanceMeters>
          </Trackpoint>
          <Trackpoint>
            <Time>2022-07-09T07:18:00.000Z</Time>
            <Position>
              <LatitudeDegrees>43.32855890505015850067138671875</LatitudeDegrees>
              <LongitudeDegrees>-1.91706907935440540313720703125</LongitudeDegrees>
            </Position>
            <AltitudeMeters>117.40000152587890625</AltitudeMeters>
            <DistanceMeters>NAN</DistanceMeters>
          </Trackpoint>
          <Trackpoint>
            <Time>2022-07-09T07:18:01.000Z</Time>
            <Position>
              <LatitudeDegrees>43.32858488894999027252197265625</LatitudeDegrees>
              <LongitudeDegrees>-1.91717603243887424468994140625</LongitudeDegrees>
            </Position>
            <AltitudeMeters>116.1999969482421875</AltitudeMeters>
            <DistanceMeters>NAN</DistanceMeters>
          </Trackpoint>
          <Trackpoint>
            <Time>2022-07-09T07:18:02.000Z</Time>
            <Position>
              <LatitudeDegrees>43.328611291944980621337890625</LatitudeDegrees>
              <LongitudeDegrees>-1.9172840751707553863525390625</LongitudeDegrees>
            </Position>
            <AltitudeMeters>115</AltitudeMeters>
            <DistanceMeters>NAN</DistanceMeters>
          </Trackpoint>
          <Trackpoint>
            <Time>2022-07-09T07:18:03.000Z</Time>
            <Position>
              <LatitudeDegrees>43.32864222116768360137939453125</LatitudeDegrees>
              <LongitudeDegrees>-1.9174144975841045379638671875</LongitudeDegrees>
            </Position>
            <AltitudeMeters>114</AltitudeMeters>
            <DistanceMeters>NAN</DistanceMeters>
          </Trackpoint>
          <Trackpoint>
            <Time>2022-07-09T07:18:04.000Z</Time>
            <Position>
              <LatitudeDegrees>43.32866317592561244964599609375</LatitudeDegrees>
              <LongitudeDegrees>-1.9175009988248348236083984375</LongitudeDegrees>
            </Position>
            <AltitudeMeters>112.1999969482421875</AltitudeMeters>
            <DistanceMeters>NAN</DistanceMeters>
          </Trackpoint>
          <Trackpoint>
            <Time>2022-07-09T07:18:05.000Z</Time>
            <Position>
              <LatitudeDegrees>43.3286912553012371063232421875</LatitudeDegrees>
              <LongitudeDegrees>-1.91760987974703311920166015625</LongitudeDegrees>
            </Position>
            <AltitudeMeters>111.1999969482421875</AltitudeMeters>
            <DistanceMeters>NAN</DistanceMeters>
          </Trackpoint>
          <Trackpoint>
            <Time>2022-07-09T07:18:06.000Z</Time>
            <Position>
              <LatitudeDegrees>43.32871891558170318603515625</LatitudeDegrees>
              <LongitudeDegrees>-1.91772135905921459197998046875</LongitudeDegrees>
            </Position>
            <AltitudeMeters>109.8000030517578125</AltitudeMeters>
            <DistanceMeters>NAN</DistanceMeters>
          </Trackpoint>
          <Trackpoint>
            <Time>2022-07-09T07:18:07.000Z</Time>
            <Position>
              <LatitudeDegrees>43.328744061291217803955078125</LatitudeDegrees>
              <LongitudeDegrees>-1.91782948561012744903564453125</LongitudeDegrees>
            </Position>
            <AltitudeMeters>108.1999969482421875</AltitudeMeters>
            <DistanceMeters>NAN</DistanceMeters>
          </Trackpoint>
          <Trackpoint>
            <Time>2022-07-09T07:18:08.000Z</Time>
            <Position>
              <LatitudeDegrees>43.3287777565419673919677734375</LatitudeDegrees>
              <LongitudeDegrees>-1.917953789234161376953125</LongitudeDegrees>
            </Position>
            <AltitudeMeters>106.8000030517578125</AltitudeMeters>
            <DistanceMeters>NAN</DistanceMeters>
          </Trackpoint>
          <Trackpoint>
            <Time>2022-07-09T07:18:09.000Z</Time>
            <Position>
              <LatitudeDegrees>43.3288055844604969024658203125</LatitudeDegrees>
              <LongitudeDegrees>-1.9180521927773952484130859375</LongitudeDegrees>
            </Position>
            <AltitudeMeters>105.40000152587890625</AltitudeMeters>
            <DistanceMeters>NAN</DistanceMeters>
          </Trackpoint>
          <Trackpoint>
            <Time>2022-07-09T07:18:10.000Z</Time>
            <Position>
              <LatitudeDegrees>43.3288270421326160430908203125</LatitudeDegrees>
              <LongitudeDegrees>-1.9181214272975921630859375</LongitudeDegrees>
            </Position>
            <AltitudeMeters>103.8000030517578125</AltitudeMeters>
            <DistanceMeters>NAN</DistanceMeters>
          </Trackpoint>
          <Trackpoint>
            <Time>2022-07-09T07:18:11.000Z</Time>
            <Position>
              <LatitudeDegrees>43.32884908653795719146728515625</LatitudeDegrees>
              <LongitudeDegrees>-1.91820901818573474884033203125</LongitudeDegrees>
            </Position>
            <AltitudeMeters>102.59999847412109375</AltitudeMeters>
            <DistanceMeters>NAN</DistanceMeters>
          </Trackpoint>
          <Trackpoint>
            <Time>2022-07-09T07:18:12.000Z</Time>
            <Position>
              <LatitudeDegrees>43.32887448370456695556640625</LatitudeDegrees>
              <LongitudeDegrees>-1.918291747570037841796875</LongitudeDegrees>
            </Position>
            <AltitudeMeters>101</AltitudeMeters>
            <DistanceMeters>NAN</DistanceMeters>
          </Trackpoint>
          <Trackpoint>
            <Time>2022-07-09T07:18:13.000Z</Time>
            <Position>
              <LatitudeDegrees>43.3289038203656673431396484375</LatitudeDegrees>
              <LongitudeDegrees>-1.91838202066719532012939453125</LongitudeDegrees>
            </Position>
            <AltitudeMeters>99.40000152587890625</AltitudeMeters>
            <DistanceMeters>NAN</DistanceMeters>
          </Trackpoint>
          <Trackpoint>
            <Time>2022-07-09T07:18:14.000Z</Time>
            <Position>
              <LatitudeDegrees>43.32892720587551593780517578125</LatitudeDegrees>
              <LongitudeDegrees>-1.91844723187386989593505859375</LongitudeDegrees>
            </Position>
            <AltitudeMeters>97.8000030517578125</AltitudeMeters>
            <DistanceMeters>NAN</DistanceMeters>
          </Trackpoint>
          <Trackpoint>
            <Time>2022-07-09T07:18:15.000Z</Time>
            <Position>
              <LatitudeDegrees>43.32894396968185901641845703125</LatitudeDegrees>
              <LongitudeDegrees>-1.9184957630932331085205078125</LongitudeDegrees>
            </Position>
            <AltitudeMeters>96.1999969482421875</AltitudeMeters>
            <DistanceMeters>NAN</DistanceMeters>
          </Trackpoint>
          <Trackpoint>
            <Time>2022-07-09T07:18:16.000Z</Time>
            <Position>
              <LatitudeDegrees>43.3289598114788532257080078125</LatitudeDegrees>
              <LongitudeDegrees>-1.91855384968221187591552734375</LongitudeDegrees>
            </Position>
            <AltitudeMeters>95</AltitudeMeters>
            <DistanceMeters>NAN</DistanceMeters>
          </Trackpoint>
          <Trackpoint>
            <Time>2022-07-09T07:18:17.000Z</Time>
            <Position>
              <LatitudeDegrees>43.328969366848468780517578125</LatitudeDegrees>
              <LongitudeDegrees>-1.9186241738498210906982421875</LongitudeDegrees>
            </Position>
            <AltitudeMeters>93.59999847412109375</AltitudeMeters>
            <DistanceMeters>NAN</DistanceMeters>
          </Trackpoint>
          <Trackpoint>
            <Time>2022-07-09T07:18:18.000Z</Time>
            <Position>
              <LatitudeDegrees>43.3289728872478008270263671875</LatitudeDegrees>
              <LongitudeDegrees>-1.91868494264781475067138671875</LongitudeDegrees>
            </Position>
            <AltitudeMeters>92.1999969482421875</AltitudeMeters>
            <DistanceMeters>NAN</DistanceMeters>
          </Trackpoint>
          <Trackpoint>
            <Time>2022-07-09T07:18:19.000Z</Time>
            <Position>
              <LatitudeDegrees>43.328974731266498565673828125</LatitudeDegrees>
              <LongitudeDegrees>-1.9187465496361255645751953125</LongitudeDegrees>
            </Position>
            <AltitudeMeters>91.40000152587890625</AltitudeMeters>
            <DistanceMeters>NAN</DistanceMeters>
          </Trackpoint>
          <Trackpoint>
            <Time>2022-07-09T07:18:20.000Z</Time>
            <Position>
              <LatitudeDegrees>43.32897095941007137298583984375</LatitudeDegrees>
              <LongitudeDegrees>-1.91879399120807647705078125</LongitudeDegrees>
            </Position>
            <AltitudeMeters>90.59999847412109375</AltitudeMeters>
            <DistanceMeters>NAN</DistanceMeters>
          </Trackpoint>
          <Trackpoint>
            <Time>2022-07-09T07:18:21.000Z</Time>
            <Position>
              <LatitudeDegrees>43.32896643318235874176025390625</LatitudeDegrees>
              <LongitudeDegrees>-1.91885040141642093658447265625</LongitudeDegrees>
            </Position>
            <AltitudeMeters>90</AltitudeMeters>
            <DistanceMeters>NAN</DistanceMeters>
          </Trackpoint>
          <Trackpoint>
            <Time>2022-07-09T07:18:22.000Z</Time>
            <Position>
              <LatitudeDegrees>43.32894958555698394775390625</LatitudeDegrees>
              <LongitudeDegrees>-1.91891611553728580474853515625</LongitudeDegrees>
            </Position>
            <AltitudeMeters>89.40000152587890625</AltitudeMeters>
            <DistanceMeters>NAN</DistanceMeters>
          </Trackpoint>
          <Trackpoint>
            <Time>2022-07-09T07:18:23.000Z</Time>
            <Position>
              <LatitudeDegrees>43.3289259485900402069091796875</LatitudeDegrees>
              <LongitudeDegrees>-1.918970681726932525634765625</LongitudeDegrees>
            </Position>
            <AltitudeMeters>88.8000030517578125</AltitudeMeters>
            <DistanceMeters>NAN</DistanceMeters>
          </Trackpoint>
          <Trackpoint>
            <Time>2022-07-09T07:18:24.000Z</Time>
            <Position>
              <LatitudeDegrees>43.3289014734327793121337890625</LatitudeDegrees>
              <LongitudeDegrees>-1.9190238229930400848388671875</LongitudeDegrees>
            </Position>
            <AltitudeMeters>88</AltitudeMeters>
            <DistanceMeters>NAN</DistanceMeters>
          </Trackpoint>
          <Trackpoint>
            <Time>2022-07-09T07:18:26.000Z</Time>
            <Position>
              <LatitudeDegrees>43.32885562442243099212646484375</LatitudeDegrees>
              <LongitudeDegrees>-1.9191163592040538787841796875</LongitudeDegrees>
            </Position>
            <AltitudeMeters>86.40000152587890625</AltitudeMeters>
            <DistanceMeters>NAN</DistanceMeters>
          </Trackpoint>
          <Trackpoint>
            <Time>2022-07-09T07:18:27.000Z</Time>
            <Position>
              <LatitudeDegrees>43.328823857009410858154296875</LatitudeDegrees>
              <LongitudeDegrees>-1.91918198950588703155517578125</LongitudeDegrees>
            </Position>
            <AltitudeMeters>85</AltitudeMeters>
            <DistanceMeters>NAN</DistanceMeters>
          </Trackpoint>
          <Trackpoint>
            <Time>2022-07-09T07:18:28.000Z</Time>
            <Position>
              <LatitudeDegrees>43.32879058085381984710693359375</LatitudeDegrees>
              <LongitudeDegrees>-1.91923932172358036041259765625</LongitudeDegrees>
            </Position>
            <AltitudeMeters>84.1999969482421875</AltitudeMeters>
            <DistanceMeters>NAN</DistanceMeters>
          </Trackpoint>
          <Trackpoint>
            <Time>2022-07-09T07:18:29.000Z</Time>
            <Position>
              <LatitudeDegrees>43.32876392640173435211181640625</LatitudeDegrees>
              <LongitudeDegrees>-1.91929531283676624298095703125</LongitudeDegrees>
            </Position>
            <AltitudeMeters>83.8000030517578125</AltitudeMeters>
            <DistanceMeters>NAN</DistanceMeters>
          </Trackpoint>
          <Trackpoint>
            <Time>2022-07-09T07:18:31.000Z</Time>
            <Position>
              <LatitudeDegrees>43.3287133835256099700927734375</LatitudeDegrees>
              <LongitudeDegrees>-1.9193912856280803680419921875</LongitudeDegrees>
            </Position>
            <AltitudeMeters>82.59999847412109375</AltitudeMeters>
            <DistanceMeters>NAN</DistanceMeters>
          </Trackpoint>
          <Trackpoint>
            <Time>2022-07-09T07:18:33.000Z</Time>
            <Position>
              <LatitudeDegrees>43.328662924468517303466796875</LatitudeDegrees>
              <LongitudeDegrees>-1.91950653679668903350830078125</LongitudeDegrees>
            </Position>
            <AltitudeMeters>80.59999847412109375</AltitudeMeters>
            <DistanceMeters>NAN</DistanceMeters>
          </Trackpoint>
          <Trackpoint>
            <Time>2022-07-09T07:18:34.000Z</Time>
            <Position>
              <LatitudeDegrees>43.32864171825349330902099609375</LatitudeDegrees>
              <LongitudeDegrees>-1.91956537775695323944091796875</LongitudeDegrees>
            </Position>
            <AltitudeMeters>79.40000152587890625</AltitudeMeters>
            <DistanceMeters>NAN</DistanceMeters>
          </Trackpoint>
          <Trackpoint>
            <Time>2022-07-09T07:18:36.000Z</Time>
            <Position>
              <LatitudeDegrees>43.32859829999506473541259765625</LatitudeDegrees>
              <LongitudeDegrees>-1.919676773250102996826171875</LongitudeDegrees>
            </Position>
            <AltitudeMeters>77.59999847412109375</AltitudeMeters>
            <DistanceMeters>NAN</DistanceMeters>
          </Trackpoint>
          <Trackpoint>
            <Time>2022-07-09T07:18:37.000Z</Time>
            <Position>
              <LatitudeDegrees>43.328577093780040740966796875</LatitudeDegrees>
              <LongitudeDegrees>-1.9197275675833225250244140625</LongitudeDegrees>
            </Position>
            <AltitudeMeters>76.40000152587890625</AltitudeMeters>
            <DistanceMeters>NAN</DistanceMeters>
          </Trackpoint>
          <Trackpoint>
            <Time>2022-07-09T07:18:39.000Z</Time>
            <Position>
              <LatitudeDegrees>43.3285380341112613677978515625</LatitudeDegrees>
              <LongitudeDegrees>-1.91982488147914409637451171875</LongitudeDegrees>
            </Position>
            <AltitudeMeters>74.40000152587890625</AltitudeMeters>
            <DistanceMeters>NAN</DistanceMeters>
          </Trackpoint>
          <Trackpoint>
            <Time>2022-07-09T07:18:41.000Z</Time>
            <Position>
              <LatitudeDegrees>43.3285182528197765350341796875</LatitudeDegrees>
              <LongitudeDegrees>-1.91990015096962451934814453125</LongitudeDegrees>
            </Position>
            <AltitudeMeters>72.8000030517578125</AltitudeMeters>
            <DistanceMeters>NAN</DistanceMeters>
          </Trackpoint>
          <Trackpoint>
            <Time>2022-07-09T07:18:42.000Z</Time>
            <Position>
              <LatitudeDegrees>43.32850978709757328033447265625</LatitudeDegrees>
              <LongitudeDegrees>-1.91992160864174365997314453125</LongitudeDegrees>
            </Position>
            <AltitudeMeters>72</AltitudeMeters>
            <DistanceMeters>NAN</DistanceMeters>
          </Trackpoint>
          <Trackpoint>
            <Time>2022-07-09T07:18:43.000Z</Time>
            <Position>
              <LatitudeDegrees>43.3285009860992431640625</LatitudeDegrees>
              <LongitudeDegrees>-1.91994491033256053924560546875</LongitudeDegrees>
            </Position>
            <AltitudeMeters>71.59999847412109375</AltitudeMeters>
            <DistanceMeters>NAN</DistanceMeters>
          </Trackpoint>
          <Trackpoint>
            <Time>2022-07-09T07:18:46.000Z</Time>
            <Position>
              <LatitudeDegrees>43.32848095335066318511962890625</LatitudeDegrees>
              <LongitudeDegrees>-1.92004146985709667205810546875</LongitudeDegrees>
            </Position>
            <AltitudeMeters>70.1999969482421875</AltitudeMeters>
            <DistanceMeters>NAN</DistanceMeters>
          </Trackpoint>
          <Trackpoint>
            <Time>2022-07-09T07:18:47.000Z</Time>
            <Position>
              <LatitudeDegrees>43.3284760080277919769287109375</LatitudeDegrees>
              <LongitudeDegrees>-1.9200779311358928680419921875</LongitudeDegrees>
            </Position>
            <AltitudeMeters>69.8000030517578125</AltitudeMeters>
            <DistanceMeters>NAN</DistanceMeters>
          </Trackpoint>
          <Trackpoint>
            <Time>2022-07-09T07:18:49.000Z</Time>
            <Position>
              <LatitudeDegrees>43.32847374491393566131591796875</LatitudeDegrees>
              <LongitudeDegrees>-1.9201741553843021392822265625</LongitudeDegrees>
            </Position>
            <AltitudeMeters>69</AltitudeMeters>
            <DistanceMeters>NAN</DistanceMeters>
          </Trackpoint>
          <Trackpoint>
            <Time>2022-07-09T07:18:52.000Z</Time>
            <Position>
              <LatitudeDegrees>43.32847885787487030029296875</LatitudeDegrees>
              <LongitudeDegrees>-1.9202720560133457183837890625</LongitudeDegrees>
            </Position>
            <AltitudeMeters>67.40000152587890625</AltitudeMeters>
            <DistanceMeters>NAN</DistanceMeters>
          </Trackpoint>
          <Trackpoint>
            <Time>2022-07-09T07:18:53.000Z</Time>
            <Position>
              <LatitudeDegrees>43.32848782651126384735107421875</LatitudeDegrees>
              <LongitudeDegrees>-1.92030868493020534515380859375</LongitudeDegrees>
            </Position>
            <AltitudeMeters>66.59999847412109375</AltitudeMeters>
            <DistanceMeters>NAN</DistanceMeters>
          </Trackpoint>
          <Trackpoint>
            <Time>2022-07-09T07:18:54.000Z</Time>
            <Position>
              <LatitudeDegrees>43.32849654369056224822998046875</LatitudeDegrees>
              <LongitudeDegrees>-1.92034740932285785675048828125</LongitudeDegrees>
            </Position>
            <AltitudeMeters>66</AltitudeMeters>
            <DistanceMeters>NAN</DistanceMeters>
          </Trackpoint>
          <Trackpoint>
            <Time>2022-07-09T07:18:56.000Z</Time>
            <Position>
              <LatitudeDegrees>43.32851012237370014190673828125</LatitudeDegrees>
              <LongitudeDegrees>-1.9204380176961421966552734375</LongitudeDegrees>
            </Position>
            <AltitudeMeters>64.8000030517578125</AltitudeMeters>
            <DistanceMeters>NAN</DistanceMeters>
          </Trackpoint>
          <Trackpoint>
            <Time>2022-07-09T07:18:58.000Z</Time>
            <Position>
              <LatitudeDegrees>43.3285296522080898284912109375</LatitudeDegrees>
              <LongitudeDegrees>-1.92051462829113006591796875</LongitudeDegrees>
            </Position>
            <AltitudeMeters>63.200000762939453125</AltitudeMeters>
            <DistanceMeters>NAN</DistanceMeters>
          </Trackpoint>
          <Trackpoint>
            <Time>2022-07-09T07:18:59.000Z</Time>
            <Position>
              <LatitudeDegrees>43.32852780818939208984375</LatitudeDegrees>
              <LongitudeDegrees>-1.92055863328278064727783203125</LongitudeDegrees>
            </Position>
            <AltitudeMeters>62.40000152587890625</AltitudeMeters>
            <DistanceMeters>NAN</DistanceMeters>
          </Trackpoint>
          <Trackpoint>
            <Time>2022-07-09T07:19:00.000Z</Time>
            <Position>
              <LatitudeDegrees>43.32852822728455066680908203125</LatitudeDegrees>
              <LongitudeDegrees>-1.92060406319797039031982421875</LongitudeDegrees>
            </Position>
            <AltitudeMeters>61.799999237060546875</AltitudeMeters>
            <DistanceMeters>NAN</DistanceMeters>
          </Trackpoint>
          <Trackpoint>
            <Time>2022-07-09T07:19:02.000Z</Time>
            <Position>
              <LatitudeDegrees>43.32851029001176357269287109375</LatitudeDegrees>
              <LongitudeDegrees>-1.9206730462610721588134765625</LongitudeDegrees>
            </Position>
            <AltitudeMeters>60.59999847412109375</AltitudeMeters>
            <DistanceMeters>NAN</DistanceMeters>
          </Trackpoint>
          <Trackpoint>
            <Time>2022-07-09T07:19:03.000Z</Time>
            <Position>
              <LatitudeDegrees>43.32850140519440174102783203125</LatitudeDegrees>
              <LongitudeDegrees>-1.92069324664771556854248046875</LongitudeDegrees>
            </Position>
            <AltitudeMeters>60</AltitudeMeters>
            <DistanceMeters>NAN</DistanceMeters>
          </Trackpoint>
          <Trackpoint>
            <Time>2022-07-09T07:19:04.000Z</Time>
            <Position>
              <LatitudeDegrees>43.32848397083580493927001953125</LatitudeDegrees>
              <LongitudeDegrees>-1.92072652280330657958984375</LongitudeDegrees>
            </Position>
            <AltitudeMeters>59.59999847412109375</AltitudeMeters>
            <DistanceMeters>NAN</DistanceMeters>
          </Trackpoint>
          <Trackpoint>
            <Time>2022-07-09T07:19:06.000Z</Time>
            <Position>
              <LatitudeDegrees>43.32843518815934658050537109375</LatitudeDegrees>
              <LongitudeDegrees>-1.92077857442200183868408203125</LongitudeDegrees>
            </Position>
            <AltitudeMeters>58</AltitudeMeters>
            <DistanceMeters>NAN</DistanceMeters>
          </Trackpoint>
          <Trackpoint>
            <Time>2022-07-09T07:19:08.000Z</Time>
            <Position>
              <LatitudeDegrees>43.32838037051260471343994140625</LatitudeDegrees>
              <LongitudeDegrees>-1.92082551307976245880126953125</LongitudeDegrees>
            </Position>
            <AltitudeMeters>56.200000762939453125</AltitudeMeters>
            <DistanceMeters>NAN</DistanceMeters>
          </Trackpoint>
          <Trackpoint>
            <Time>2022-07-09T07:19:10.000Z</Time>
            <Position>
              <LatitudeDegrees>43.32834768109023571014404296875</LatitudeDegrees>
              <LongitudeDegrees>-1.920854263007640838623046875</LongitudeDegrees>
            </Position>
            <AltitudeMeters>54.799999237060546875</AltitudeMeters>
            <DistanceMeters>NAN</DistanceMeters>
          </Trackpoint>
          <Trackpoint>
            <Time>2022-07-09T07:19:13.000Z</Time>
            <Position>
              <LatitudeDegrees>43.3283439092338085174560546875</LatitudeDegrees>
              <LongitudeDegrees>-1.920857615768909454345703125</LongitudeDegrees>
            </Position>
            <AltitudeMeters>53.59999847412109375</AltitudeMeters>
            <DistanceMeters>NAN</DistanceMeters>
          </Trackpoint>
          <Trackpoint>
            <Time>2022-07-09T07:21:59.000Z</Time>
            <Position>
              <LatitudeDegrees>43.32830476574599742889404296875</LatitudeDegrees>
              <LongitudeDegrees>-1.9209248386323451995849609375</LongitudeDegrees>
            </Position>
            <AltitudeMeters>48.799999237060546875</AltitudeMeters>
            <DistanceMeters>NAN</DistanceMeters>
          </Trackpoint>
          <Trackpoint>
            <Time>2022-07-09T07:22:02.000Z</Time>
            <Position>
              <LatitudeDegrees>43.32831448875367641448974609375</LatitudeDegrees>
              <LongitudeDegrees>-1.92091436125338077545166015625</LongitudeDegrees>
            </Position>
            <AltitudeMeters>49.799999237060546875</AltitudeMeters>
            <DistanceMeters>NAN</DistanceMeters>
          </Trackpoint>
          <Trackpoint>
            <Time>2022-07-09T07:22:03.000Z</Time>
            <Position>
              <LatitudeDegrees>43.32831448875367641448974609375</LatitudeDegrees>
              <LongitudeDegrees>-1.92091436125338077545166015625</LongitudeDegrees>
            </Position>
            <AltitudeMeters>50.200000762939453125</AltitudeMeters>
            <DistanceMeters>NAN</DistanceMeters>
          </Trackpoint>
          <Trackpoint>
            <Time>2022-07-09T07:30:57.000Z</Time>
            <Position>
              <LatitudeDegrees>43.3282211981713771820068359375</LatitudeDegrees>
              <LongitudeDegrees>-1.92134678363800048828125</LongitudeDegrees>
            </Position>
            <AltitudeMeters>22.200000762939453125</AltitudeMeters>
            <DistanceMeters>NAN</DistanceMeters>
          </Trackpoint>
          <Trackpoint>
            <Time>2022-07-09T07:30:58.000Z</Time>
            <Position>
              <LatitudeDegrees>43.328221701085567474365234375</LatitudeDegrees>
              <LongitudeDegrees>-1.92133446224033832550048828125</LongitudeDegrees>
            </Position>
            <AltitudeMeters>22.200000762939453125</AltitudeMeters>
            <DistanceMeters>NAN</DistanceMeters>
          </Trackpoint>
          <Trackpoint>
            <Time>2022-07-09T07:30:59.000Z</Time>
            <Position>
              <LatitudeDegrees>43.3282215334475040435791015625</LatitudeDegrees>
              <LongitudeDegrees>-1.92132356576621532440185546875</LongitudeDegrees>
            </Position>
            <AltitudeMeters>22.6000003814697265625</AltitudeMeters>
            <DistanceMeters>NAN</DistanceMeters>
          </Trackpoint>
          <Trackpoint>
            <Time>2022-07-09T07:31:00.000Z</Time>
            <Position>
              <LatitudeDegrees>43.3282175101339817047119140625</LatitudeDegrees>
              <LongitudeDegrees>-1.92131183110177516937255859375</LongitudeDegrees>
            </Position>
            <AltitudeMeters>23.200000762939453125</AltitudeMeters>
            <DistanceMeters>NAN</DistanceMeters>
          </Trackpoint>
          <Trackpoint>
            <Time>2022-07-09T07:31:02.000Z</Time>
            <Position>
              <LatitudeDegrees>43.3282175101339817047119140625</LatitudeDegrees>
              <LongitudeDegrees>-1.921288780868053436279296875</LongitudeDegrees>
            </Position>
            <AltitudeMeters>24.3999996185302734375</AltitudeMeters>
            <DistanceMeters>NAN</DistanceMeters>
          </Trackpoint>
          <Trackpoint>
            <Time>2022-07-09T07:31:04.000Z</Time>
            <Position>
              <LatitudeDegrees>43.32821709103882312774658203125</LatitudeDegrees>
              <LongitudeDegrees>-1.9212594442069530487060546875</LongitudeDegrees>
            </Position>
            <AltitudeMeters>25.200000762939453125</AltitudeMeters>
            <DistanceMeters>NAN</DistanceMeters>
          </Trackpoint>
          <Trackpoint>
            <Time>2022-07-09T07:31:05.000Z</Time>
            <Position>
              <LatitudeDegrees>43.32821600139141082763671875</LatitudeDegrees>
              <LongitudeDegrees>-1.92124645225703716278076171875</LongitudeDegrees>
            </Position>
            <AltitudeMeters>25.6000003814697265625</AltitudeMeters>
            <DistanceMeters>NAN</DistanceMeters>
          </Trackpoint>
          <Trackpoint>
            <Time>2022-07-09T07:31:06.000Z</Time>
            <Position>
              <LatitudeDegrees>43.32821222953498363494873046875</LatitudeDegrees>
              <LongitudeDegrees>-1.92123454995453357696533203125</LongitudeDegrees>
            </Position>
            <AltitudeMeters>25.799999237060546875</AltitudeMeters>
            <DistanceMeters>NAN</DistanceMeters>
          </Trackpoint>
          <Trackpoint>
            <Time>2022-07-09T07:31:08.000Z</Time>
            <Position>
              <LatitudeDegrees>43.3282101340591907501220703125</LatitudeDegrees>
              <LongitudeDegrees>-1.92122901789844036102294921875</LongitudeDegrees>
            </Position>
            <AltitudeMeters>26.799999237060546875</AltitudeMeters>
            <DistanceMeters>NAN</DistanceMeters>
          </Trackpoint>
          <Trackpoint>
            <Time>2022-07-09T07:31:10.000Z</Time>
            <Position>
              <LatitudeDegrees>43.3282101340591907501220703125</LatitudeDegrees>
              <LongitudeDegrees>-1.92122901789844036102294921875</LongitudeDegrees>
            </Position>
            <AltitudeMeters>27.200000762939453125</AltitudeMeters>
            <DistanceMeters>NAN</DistanceMeters>
          </Trackpoint>
          <Trackpoint>
            <Time>2022-07-09T07:31:54.000Z</Time>
            <Position>
              <LatitudeDegrees>43.3282037638127803802490234375</LatitudeDegrees>
              <LongitudeDegrees>-1.92129255272448062896728515625</LongitudeDegrees>
            </Position>
            <AltitudeMeters>22.200000762939453125</AltitudeMeters>
            <DistanceMeters>NAN</DistanceMeters>
          </Trackpoint>
          <Trackpoint>
            <Time>2022-07-09T07:31:56.000Z</Time>
            <Position>
              <LatitudeDegrees>43.3282037638127803802490234375</LatitudeDegrees>
              <LongitudeDegrees>-1.9212778843939304351806640625</LongitudeDegrees>
            </Position>
            <AltitudeMeters>22</AltitudeMeters>
            <DistanceMeters>NAN</DistanceMeters>
          </Trackpoint>
          <Trackpoint>
            <Time>2022-07-09T07:31:58.000Z</Time>
            <Position>
              <LatitudeDegrees>43.3282037638127803802490234375</LatitudeDegrees>
              <LongitudeDegrees>-1.9212778843939304351806640625</LongitudeDegrees>
            </Position>
            <AltitudeMeters>21.6000003814697265625</AltitudeMeters>
            <DistanceMeters>NAN</DistanceMeters>
          </Trackpoint>
          <Trackpoint>
            <Time>2022-07-09T07:32:09.000Z</Time>
            <Position>
              <LatitudeDegrees>43.328240476548671722412109375</LatitudeDegrees>
              <LongitudeDegrees>-1.92131769843399524688720703125</LongitudeDegrees>
            </Position>
            <AltitudeMeters>21.200000762939453125</AltitudeMeters>
            <DistanceMeters>NAN</DistanceMeters>
          </Trackpoint>
          <Trackpoint>
            <Time>2022-07-09T07:32:13.000Z</Time>
            <Position>
              <LatitudeDegrees>43.3282909356057643890380859375</LatitudeDegrees>
              <LongitudeDegrees>-1.92137385718524456024169921875</LongitudeDegrees>
            </Position>
            <AltitudeMeters>21.799999237060546875</AltitudeMeters>
            <DistanceMeters>NAN</DistanceMeters>
          </Trackpoint>
          <Trackpoint>
            <Time>2022-07-09T07:32:15.000Z</Time>
            <Position>
              <LatitudeDegrees>43.32828498445451259613037109375</LatitudeDegrees>
              <LongitudeDegrees>-1.9213749468326568603515625</LongitudeDegrees>
            </Position>
            <AltitudeMeters>22</AltitudeMeters>
            <DistanceMeters>NAN</DistanceMeters>
          </Trackpoint>
          <Trackpoint>
            <Time>2022-07-09T07:32:19.000Z</Time>
            <Position>
              <LatitudeDegrees>43.32825916819274425506591796875</LatitudeDegrees>
              <LongitudeDegrees>-1.921408809721469879150390625</LongitudeDegrees>
            </Position>
            <AltitudeMeters>21.6000003814697265625</AltitudeMeters>
            <DistanceMeters>NAN</DistanceMeters>
          </Trackpoint>
          <Trackpoint>
            <Time>2022-07-09T07:32:23.000Z</Time>
            <Position>
              <LatitudeDegrees>43.3282567374408245086669921875</LatitudeDegrees>
              <LongitudeDegrees>-1.92140688188374042510986328125</LongitudeDegrees>
            </Position>
            <AltitudeMeters>21.200000762939453125</AltitudeMeters>
            <DistanceMeters>NAN</DistanceMeters>
          </Trackpoint>
          <Trackpoint>
            <Time>2022-07-09T07:33:09.000Z</Time>
            <Position>
              <LatitudeDegrees>43.32821306772530078887939453125</LatitudeDegrees>
              <LongitudeDegrees>-1.92135591991245746612548828125</LongitudeDegrees>
            </Position>
            <AltitudeMeters>20.799999237060546875</AltitudeMeters>
            <DistanceMeters>NAN</DistanceMeters>
          </Trackpoint>
          <Trackpoint>
            <Time>2022-07-09T07:33:11.000Z</Time>
            <Position>
              <LatitudeDegrees>43.328182809054851531982421875</LatitudeDegrees>
              <LongitudeDegrees>-1.92132658325135707855224609375</LongitudeDegrees>
            </Position>
            <AltitudeMeters>22.200000762939453125</AltitudeMeters>
            <DistanceMeters>NAN</DistanceMeters>
          </Trackpoint>
          <Trackpoint>
            <Time>2022-07-09T07:33:12.000Z</Time>
            <Position>
              <LatitudeDegrees>43.328168727457523345947265625</LatitudeDegrees>
              <LongitudeDegrees>-1.92132440395653247833251953125</LongitudeDegrees>
            </Position>
            <AltitudeMeters>22.200000762939453125</AltitudeMeters>
            <DistanceMeters>NAN</DistanceMeters>
          </Trackpoint>
          <Trackpoint>
            <Time>2022-07-09T07:33:15.000Z</Time>
            <Position>
              <LatitudeDegrees>43.3281487785279750823974609375</LatitudeDegrees>
              <LongitudeDegrees>-1.92133714444935321807861328125</LongitudeDegrees>
            </Position>
            <AltitudeMeters>22</AltitudeMeters>
            <DistanceMeters>NAN</DistanceMeters>
          </Trackpoint>
          <Trackpoint>
            <Time>2022-07-09T07:33:16.000Z</Time>
            <Position>
              <LatitudeDegrees>43.3281464315950870513916015625</LatitudeDegrees>
              <LongitudeDegrees>-1.92134502343833446502685546875</LongitudeDegrees>
            </Position>
            <AltitudeMeters>22</AltitudeMeters>
            <DistanceMeters>NAN</DistanceMeters>
          </Trackpoint>
          <Trackpoint>
            <Time>2022-07-09T07:35:08.000Z</Time>
            <Position>
              <LatitudeDegrees>43.3279630355536937713623046875</LatitudeDegrees>
              <LongitudeDegrees>-1.92130831070244312286376953125</LongitudeDegrees>
            </Position>
            <AltitudeMeters>10.80000019073486328125</AltitudeMeters>
            <DistanceMeters>NAN</DistanceMeters>
          </Trackpoint>
          <Trackpoint>
            <Time>2022-07-09T07:35:11.000Z</Time>
            <Position>
              <LatitudeDegrees>43.327917270362377166748046875</LatitudeDegrees>
              <LongitudeDegrees>-1.92125600762665271759033203125</LongitudeDegrees>
            </Position>
            <AltitudeMeters>11</AltitudeMeters>
            <DistanceMeters>NAN</DistanceMeters>
          </Trackpoint>
          <Trackpoint>
            <Time>2022-07-09T07:35:19.000Z</Time>
            <Position>
              <LatitudeDegrees>43.32784376107156276702880859375</LatitudeDegrees>
              <LongitudeDegrees>-1.92117084749042987823486328125</LongitudeDegrees>
            </Position>
            <AltitudeMeters>10.80000019073486328125</AltitudeMeters>
            <DistanceMeters>NAN</DistanceMeters>
          </Trackpoint>
          <Trackpoint>
            <Time>2022-07-09T07:35:21.000Z</Time>
            <Position>
              <LatitudeDegrees>43.32784376107156276702880859375</LatitudeDegrees>
              <LongitudeDegrees>-1.92117084749042987823486328125</LongitudeDegrees>
            </Position>
            <AltitudeMeters>10.80000019073486328125</AltitudeMeters>
            <DistanceMeters>NAN</DistanceMeters>
          </Trackpoint>
          <Trackpoint>
            <Time>2022-07-09T07:35:36.000Z</Time>
            <Position>
              <LatitudeDegrees>43.3278289251029491424560546875</LatitudeDegrees>
              <LongitudeDegrees>-1.92114167846739292144775390625</LongitudeDegrees>
            </Position>
            <AltitudeMeters>10.80000019073486328125</AltitudeMeters>
            <DistanceMeters>NAN</DistanceMeters>
          </Trackpoint>
          <Trackpoint>
            <Time>2022-07-09T07:35:37.000Z</Time>
            <Position>
              <LatitudeDegrees>43.32781593315303325653076171875</LatitudeDegrees>
              <LongitudeDegrees>-1.92111133597791194915771484375</LongitudeDegrees>
            </Position>
            <AltitudeMeters>10.80000019073486328125</AltitudeMeters>
            <DistanceMeters>NAN</DistanceMeters>
          </Trackpoint>
          <Trackpoint>
            <Time>2022-07-09T07:35:41.000Z</Time>
            <Position>
              <LatitudeDegrees>43.32774259150028228759765625</LatitudeDegrees>
              <LongitudeDegrees>-1.920976303517818450927734375</LongitudeDegrees>
            </Position>
            <AltitudeMeters>10.80000019073486328125</AltitudeMeters>
            <DistanceMeters>NAN</DistanceMeters>
          </Trackpoint>
          <Trackpoint>
            <Time>2022-07-09T07:35:43.000Z</Time>
            <Position>
              <LatitudeDegrees>43.32771199755370616912841796875</LatitudeDegrees>
              <LongitudeDegrees>-1.92091503180563449859619140625</LongitudeDegrees>
            </Position>
            <AltitudeMeters>10.80000019073486328125</AltitudeMeters>
            <DistanceMeters>NAN</DistanceMeters>
          </Trackpoint>
          <Trackpoint>
            <Time>2022-07-09T07:35:44.000Z</Time>
            <Position>
              <LatitudeDegrees>43.32770235836505889892578125</LatitudeDegrees>
              <LongitudeDegrees>-1.920885778963565826416015625</LongitudeDegrees>
            </Position>
            <AltitudeMeters>10.80000019073486328125</AltitudeMeters>
            <DistanceMeters>NAN</DistanceMeters>
          </Trackpoint>
          <Trackpoint>
            <Time>2022-07-09T07:35:50.000Z</Time>
            <Position>
              <LatitudeDegrees>43.32769037224352359771728515625</LatitudeDegrees>
              <LongitudeDegrees>-1.92074932157993316650390625</LongitudeDegrees>
            </Position>
            <AltitudeMeters>10.3999996185302734375</AltitudeMeters>
            <DistanceMeters>NAN</DistanceMeters>
          </Trackpoint>
          <Trackpoint>
            <Time>2022-07-09T07:35:53.000Z</Time>
            <Position>
              <LatitudeDegrees>43.32770378328859806060791015625</LatitudeDegrees>
              <LongitudeDegrees>-1.9207390956580638885498046875</LongitudeDegrees>
            </Position>
            <AltitudeMeters>10.3999996185302734375</AltitudeMeters>
            <DistanceMeters>NAN</DistanceMeters>
          </Trackpoint>
          <Trackpoint>
            <Time>2022-07-09T07:35:54.000Z</Time>
            <Position>
              <LatitudeDegrees>43.32770378328859806060791015625</LatitudeDegrees>
              <LongitudeDegrees>-1.9207390956580638885498046875</LongitudeDegrees>
            </Position>
            <AltitudeMeters>10.3999996185302734375</AltitudeMeters>
            <DistanceMeters>NAN</DistanceMeters>
          </Trackpoint>
          <Trackpoint>
            <Time>2022-07-09T07:38:05.000Z</Time>
            <Position>
              <LatitudeDegrees>43.3276985026895999908447265625</LatitudeDegrees>
              <LongitudeDegrees>-1.92049744538962841033935546875</LongitudeDegrees>
            </Position>
            <AltitudeMeters>10.19999980926513671875</AltitudeMeters>
            <DistanceMeters>NAN</DistanceMeters>
          </Trackpoint>
          <Trackpoint>
            <Time>2022-07-09T07:38:06.000Z</Time>
            <Position>
              <LatitudeDegrees>43.3276837505400180816650390625</LatitudeDegrees>
              <LongitudeDegrees>-1.920474730432033538818359375</LongitudeDegrees>
            </Position>
            <AltitudeMeters>10.19999980926513671875</AltitudeMeters>
            <DistanceMeters>NAN</DistanceMeters>
          </Trackpoint>
          <Trackpoint>
            <Time>2022-07-09T07:38:08.000Z</Time>
            <Position>
              <LatitudeDegrees>43.32766656763851642608642578125</LatitudeDegrees>
              <LongitudeDegrees>-1.92041077651083469390869140625</LongitudeDegrees>
            </Position>
            <AltitudeMeters>10.19999980926513671875</AltitudeMeters>
            <DistanceMeters>NAN</DistanceMeters>
          </Trackpoint>
          <Trackpoint>
            <Time>2022-07-09T07:38:10.000Z</Time>
            <Position>
              <LatitudeDegrees>43.32766489125788211822509765625</LatitudeDegrees>
              <LongitudeDegrees>-1.92029535770416259765625</LongitudeDegrees>
            </Position>
            <AltitudeMeters>10.19999980926513671875</AltitudeMeters>
            <DistanceMeters>NAN</DistanceMeters>
          </Trackpoint>
          <Trackpoint>
            <Time>2022-07-09T07:38:14.000Z</Time>
            <Position>
              <LatitudeDegrees>43.32759507000446319580078125</LatitudeDegrees>
              <LongitudeDegrees>-1.920201145112514495849609375</LongitudeDegrees>
            </Position>
            <AltitudeMeters>9.80000019073486328125</AltitudeMeters>
            <DistanceMeters>NAN</DistanceMeters>
          </Trackpoint>
          <Trackpoint>
            <Time>2022-07-09T07:38:15.000Z</Time>
            <Position>
              <LatitudeDegrees>43.32758174277842044830322265625</LatitudeDegrees>
              <LongitudeDegrees>-1.92016954533755779266357421875</LongitudeDegrees>
            </Position>
            <AltitudeMeters>9.80000019073486328125</AltitudeMeters>
            <DistanceMeters>NAN</DistanceMeters>
          </Trackpoint>
          <Trackpoint>
            <Time>2022-07-09T07:38:16.000Z</Time>
            <Position>
              <LatitudeDegrees>43.32756020128726959228515625</LatitudeDegrees>
              <LongitudeDegrees>-1.92014590837061405181884765625</LongitudeDegrees>
            </Position>
            <AltitudeMeters>9.6000003814697265625</AltitudeMeters>
            <DistanceMeters>NAN</DistanceMeters>
          </Trackpoint>
          <Trackpoint>
            <Time>2022-07-09T07:38:18.000Z</Time>
            <Position>
              <LatitudeDegrees>43.32748937420547008514404296875</LatitudeDegrees>
              <LongitudeDegrees>-1.92012143321335315704345703125</LongitudeDegrees>
            </Position>
            <AltitudeMeters>9.6000003814697265625</AltitudeMeters>
            <DistanceMeters>NAN</DistanceMeters>
          </Trackpoint>
          <Trackpoint>
            <Time>2022-07-09T07:38:22.000Z</Time>
            <Position>
              <LatitudeDegrees>43.32740270532667636871337890625</LatitudeDegrees>
              <LongitudeDegrees>-1.920099556446075439453125</LongitudeDegrees>
            </Position>
            <AltitudeMeters>9.6000003814697265625</AltitudeMeters>
            <DistanceMeters>NAN</DistanceMeters>
          </Trackpoint>
          <Trackpoint>
            <Time>2022-07-09T07:38:23.000Z</Time>
            <Position>
              <LatitudeDegrees>43.3273903839290142059326171875</LatitudeDegrees>
              <LongitudeDegrees>-1.9200883246958255767822265625</LongitudeDegrees>
            </Position>
            <AltitudeMeters>9.6000003814697265625</AltitudeMeters>
            <DistanceMeters>NAN</DistanceMeters>
          </Trackpoint>
          <Trackpoint>
            <Time>2022-07-09T07:38:30.000Z</Time>
            <Position>
              <LatitudeDegrees>43.3272488974034786224365234375</LatitudeDegrees>
              <LongitudeDegrees>-1.92006938159465789794921875</LongitudeDegrees>
            </Position>
            <AltitudeMeters>9.6000003814697265625</AltitudeMeters>
            <DistanceMeters>NAN</DistanceMeters>
          </Trackpoint>
          <Trackpoint>
            <Time>2022-07-09T07:38:38.000Z</Time>
            <Position>
              <LatitudeDegrees>43.3271677605807781219482421875</LatitudeDegrees>
              <LongitudeDegrees>-1.9200863130390644073486328125</LongitudeDegrees>
            </Position>
            <AltitudeMeters>9.3999996185302734375</AltitudeMeters>
            <DistanceMeters>NAN</DistanceMeters>
          </Trackpoint>
          <Trackpoint>
            <Time>2022-07-09T07:38:41.000Z</Time>
            <Position>
              <LatitudeDegrees>43.32713750191032886505126953125</LatitudeDegrees>
              <LongitudeDegrees>-1.9200591556727886199951171875</LongitudeDegrees>
            </Position>
            <AltitudeMeters>9.3999996185302734375</AltitudeMeters>
            <DistanceMeters>NAN</DistanceMeters>
          </Trackpoint>
          <Trackpoint>
            <Time>2022-07-09T07:38:44.000Z</Time>
            <Position>
              <LatitudeDegrees>43.32712476141750812530517578125</LatitudeDegrees>
              <LongitudeDegrees>-1.92005018703639507293701171875</LongitudeDegrees>
            </Position>
            <AltitudeMeters>9.3999996185302734375</AltitudeMeters>
            <DistanceMeters>NAN</DistanceMeters>
          </Trackpoint>
          <Trackpoint>
            <Time>2022-07-09T07:38:45.000Z</Time>
            <Position>
              <LatitudeDegrees>43.32712476141750812530517578125</LatitudeDegrees>
              <LongitudeDegrees>-1.92005018703639507293701171875</LongitudeDegrees>
            </Position>
            <AltitudeMeters>9.3999996185302734375</AltitudeMeters>
            <DistanceMeters>NAN</DistanceMeters>
          </Trackpoint>
          <Trackpoint>
            <Time>2022-07-09T07:40:56.000Z</Time>
            <Position>
              <LatitudeDegrees>43.32714378833770751953125</LatitudeDegrees>
              <LongitudeDegrees>-1.92007181234657764434814453125</LongitudeDegrees>
            </Position>
            <AltitudeMeters>8.80000019073486328125</AltitudeMeters>
            <DistanceMeters>NAN</DistanceMeters>
          </Trackpoint>
          <Trackpoint>
            <Time>2022-07-09T07:40:57.000Z</Time>
            <Position>
              <LatitudeDegrees>43.32715812139213085174560546875</LatitudeDegrees>
              <LongitudeDegrees>-1.920081786811351776123046875</LongitudeDegrees>
            </Position>
            <AltitudeMeters>9</AltitudeMeters>
            <DistanceMeters>NAN</DistanceMeters>
          </Trackpoint>
          <Trackpoint>
            <Time>2022-07-09T07:40:58.000Z</Time>
            <Position>
              <LatitudeDegrees>43.32716993987560272216796875</LatitudeDegrees>
              <LongitudeDegrees>-1.92009176127612590789794921875</LongitudeDegrees>
            </Position>
            <AltitudeMeters>9</AltitudeMeters>
            <DistanceMeters>NAN</DistanceMeters>
          </Trackpoint>
          <Trackpoint>
            <Time>2022-07-09T07:40:59.000Z</Time>
            <Position>
              <LatitudeDegrees>43.327178321778774261474609375</LatitudeDegrees>
              <LongitudeDegrees>-1.9201060943305492401123046875</LongitudeDegrees>
            </Position>
            <AltitudeMeters>9</AltitudeMeters>
            <DistanceMeters>NAN</DistanceMeters>
          </Trackpoint>
          <Trackpoint>
            <Time>2022-07-09T07:41:03.000Z</Time>
            <Position>
              <LatitudeDegrees>43.327187038958072662353515625</LatitudeDegrees>
              <LongitudeDegrees>-1.9201154820621013641357421875</LongitudeDegrees>
            </Position>
            <AltitudeMeters>9</AltitudeMeters>
            <DistanceMeters>NAN</DistanceMeters>
          </Trackpoint>
          <Trackpoint>
            <Time>2022-07-09T07:42:42.000Z</Time>
            <Position>
              <LatitudeDegrees>43.32713699899613857269287109375</LatitudeDegrees>
              <LongitudeDegrees>-1.92012964747846126556396484375</LongitudeDegrees>
            </Position>
            <AltitudeMeters>9.3999996185302734375</AltitudeMeters>
            <DistanceMeters>NAN</DistanceMeters>
          </Trackpoint>
          <Trackpoint>
            <Time>2022-07-09T07:42:43.000Z</Time>
            <Position>
              <LatitudeDegrees>43.3271231688559055328369140625</LatitudeDegrees>
              <LongitudeDegrees>-1.92012344487011432647705078125</LongitudeDegrees>
            </Position>
            <AltitudeMeters>9.3999996185302734375</AltitudeMeters>
            <DistanceMeters>NAN</DistanceMeters>
          </Trackpoint>
          <Trackpoint>
            <Time>2022-07-09T07:42:45.000Z</Time>
            <Position>
              <LatitudeDegrees>43.3271164633333683013916015625</LatitudeDegrees>
              <LongitudeDegrees>-1.92011958919465541839599609375</LongitudeDegrees>
            </Position>
            <AltitudeMeters>9.6000003814697265625</AltitudeMeters>
            <DistanceMeters>NAN</DistanceMeters>
          </Trackpoint>
          <Trackpoint>
            <Time>2022-07-09T07:42:46.000Z</Time>
            <Position>
              <LatitudeDegrees>43.3271164633333683013916015625</LatitudeDegrees>
              <LongitudeDegrees>-1.92011958919465541839599609375</LongitudeDegrees>
            </Position>
            <AltitudeMeters>9.6000003814697265625</AltitudeMeters>
            <DistanceMeters>NAN</DistanceMeters>
          </Trackpoint>
          <Trackpoint>
            <Time>2022-07-09T07:46:01.000Z</Time>
            <Position>
              <LatitudeDegrees>43.32715325988829135894775390625</LatitudeDegrees>
              <LongitudeDegrees>-1.92011020146310329437255859375</LongitudeDegrees>
            </Position>
            <AltitudeMeters>9.3999996185302734375</AltitudeMeters>
            <DistanceMeters>NAN</DistanceMeters>
          </Trackpoint>
          <Trackpoint>
            <Time>2022-07-09T07:46:02.000Z</Time>
            <Position>
              <LatitudeDegrees>43.32717421464622020721435546875</LatitudeDegrees>
              <LongitudeDegrees>-1.92010215483605861663818359375</LongitudeDegrees>
            </Position>
            <AltitudeMeters>9.3999996185302734375</AltitudeMeters>
            <DistanceMeters>NAN</DistanceMeters>
          </Trackpoint>
          <Trackpoint>
            <Time>2022-07-09T07:46:03.000Z</Time>
            <Position>
              <LatitudeDegrees>43.32718863151967525482177734375</LatitudeDegrees>
              <LongitudeDegrees>-1.920087151229381561279296875</LongitudeDegrees>
            </Position>
            <AltitudeMeters>9.3999996185302734375</AltitudeMeters>
            <DistanceMeters>NAN</DistanceMeters>
          </Trackpoint>
          <Trackpoint>
            <Time>2022-07-09T07:46:05.000Z</Time>
            <Position>
              <LatitudeDegrees>43.32720187492668628692626953125</LatitudeDegrees>
              <LongitudeDegrees>-1.9200552999973297119140625</LongitudeDegrees>
            </Position>
            <AltitudeMeters>9.3999996185302734375</AltitudeMeters>
            <DistanceMeters>NAN</DistanceMeters>
          </Trackpoint>
          <Trackpoint>
            <Time>2022-07-09T07:46:08.000Z</Time>
            <Position>
              <LatitudeDegrees>43.3271949179470539093017578125</LatitudeDegrees>
              <LongitudeDegrees>-1.9199776835739612579345703125</LongitudeDegrees>
            </Position>
            <AltitudeMeters>9.6000003814697265625</AltitudeMeters>
            <DistanceMeters>NAN</DistanceMeters>
          </Trackpoint>
          <Trackpoint>
            <Time>2022-07-09T07:46:11.000Z</Time>
            <Position>
              <LatitudeDegrees>43.3271811716258525848388671875</LatitudeDegrees>
              <LongitudeDegrees>-1.919912807643413543701171875</LongitudeDegrees>
            </Position>
            <AltitudeMeters>9.6000003814697265625</AltitudeMeters>
            <DistanceMeters>NAN</DistanceMeters>
          </Trackpoint>
          <Trackpoint>
            <Time>2022-07-09T07:46:14.000Z</Time>
            <Position>
              <LatitudeDegrees>43.3271486498415470123291015625</LatitudeDegrees>
              <LongitudeDegrees>-1.9198606722056865692138671875</LongitudeDegrees>
            </Position>
            <AltitudeMeters>9.80000019073486328125</AltitudeMeters>
            <DistanceMeters>NAN</DistanceMeters>
          </Trackpoint>
          <Trackpoint>
            <Time>2022-07-09T07:46:20.000Z</Time>
            <Position>
              <LatitudeDegrees>43.32709291018545627593994140625</LatitudeDegrees>
              <LongitudeDegrees>-1.91974810324609279632568359375</LongitudeDegrees>
            </Position>
            <AltitudeMeters>10</AltitudeMeters>
            <DistanceMeters>NAN</DistanceMeters>
          </Trackpoint>
          <Trackpoint>
            <Time>2022-07-09T07:46:23.000Z</Time>
            <Position>
              <LatitudeDegrees>43.32706642337143421173095703125</LatitudeDegrees>
              <LongitudeDegrees>-1.91968708299100399017333984375</LongitudeDegrees>
            </Position>
            <AltitudeMeters>10</AltitudeMeters>
            <DistanceMeters>NAN</DistanceMeters>
          </Trackpoint>
          <Trackpoint>
            <Time>2022-07-09T07:46:26.000Z</Time>
            <Position>
              <LatitudeDegrees>43.327060975134372711181640625</LatitudeDegrees>
              <LongitudeDegrees>-1.91964316181838512420654296875</LongitudeDegrees>
            </Position>
            <AltitudeMeters>10</AltitudeMeters>
            <DistanceMeters>NAN</DistanceMeters>
          </Trackpoint>
          <Trackpoint>
            <Time>2022-07-09T07:46:27.000Z</Time>
            <Position>
              <LatitudeDegrees>43.32704999484121799468994140625</LatitudeDegrees>
              <LongitudeDegrees>-1.9196474365890026092529296875</LongitudeDegrees>
            </Position>
            <AltitudeMeters>10</AltitudeMeters>
            <DistanceMeters>NAN</DistanceMeters>
          </Trackpoint>
          <Trackpoint>
            <Time>2022-07-09T07:46:29.000Z</Time>
            <Position>
              <LatitudeDegrees>43.32704228349030017852783203125</LatitudeDegrees>
              <LongitudeDegrees>-1.9196427427232265472412109375</LongitudeDegrees>
            </Position>
            <AltitudeMeters>10</AltitudeMeters>
            <DistanceMeters>NAN</DistanceMeters>
          </Trackpoint>
          <Trackpoint>
            <Time>2022-07-09T07:46:30.000Z</Time>
            <Position>
              <LatitudeDegrees>43.32703038118779659271240234375</LatitudeDegrees>
              <LongitudeDegrees>-1.91961684264242649078369140625</LongitudeDegrees>
            </Position>
            <AltitudeMeters>10</AltitudeMeters>
            <DistanceMeters>NAN</DistanceMeters>
          </Trackpoint>
          <Trackpoint>
            <Time>2022-07-09T07:46:34.000Z</Time>
            <Position>
              <LatitudeDegrees>43.326962403953075408935546875</LatitudeDegrees>
              <LongitudeDegrees>-1.91958297975361347198486328125</LongitudeDegrees>
            </Position>
            <AltitudeMeters>10</AltitudeMeters>
            <DistanceMeters>NAN</DistanceMeters>
          </Trackpoint>
          <Trackpoint>
            <Time>2022-07-09T07:46:37.000Z</Time>
            <Position>
              <LatitudeDegrees>43.32691286690533161163330078125</LatitudeDegrees>
              <LongitudeDegrees>-1.91958046518266201019287109375</LongitudeDegrees>
            </Position>
            <AltitudeMeters>10</AltitudeMeters>
            <DistanceMeters>NAN</DistanceMeters>
          </Trackpoint>
          <Trackpoint>
            <Time>2022-07-09T07:46:41.000Z</Time>
            <Position>
              <LatitudeDegrees>43.32685947418212890625</LatitudeDegrees>
              <LongitudeDegrees>-1.91955397836863994598388671875</LongitudeDegrees>
            </Position>
            <AltitudeMeters>10</AltitudeMeters>
            <DistanceMeters>NAN</DistanceMeters>
          </Trackpoint>
          <Trackpoint>
            <Time>2022-07-09T07:46:44.000Z</Time>
            <Position>
              <LatitudeDegrees>43.32685536704957485198974609375</LatitudeDegrees>
              <LongitudeDegrees>-1.919552721083164215087890625</LongitudeDegrees>
            </Position>
            <AltitudeMeters>10</AltitudeMeters>
            <DistanceMeters>NAN</DistanceMeters>
          </Trackpoint>
          <Trackpoint>
            <Time>2022-07-09T07:50:21.000Z</Time>
            <Position>
              <LatitudeDegrees>43.32680306397378444671630859375</LatitudeDegrees>
              <LongitudeDegrees>-1.9195666350424289703369140625</LongitudeDegrees>
            </Position>
            <AltitudeMeters>10</AltitudeMeters>
            <DistanceMeters>NAN</DistanceMeters>
          </Trackpoint>
          <Trackpoint>
            <Time>2022-07-09T07:50:23.000Z</Time>
            <Position>
              <LatitudeDegrees>43.32680306397378444671630859375</LatitudeDegrees>
              <LongitudeDegrees>-1.9195666350424289703369140625</LongitudeDegrees>
            </Position>
            <AltitudeMeters>10</AltitudeMeters>
            <DistanceMeters>NAN</DistanceMeters>
          </Trackpoint>
          <Trackpoint>
            <Time>2022-07-09T08:01:28.000Z</Time>
            <Position>
              <LatitudeDegrees>43.3267493359744548797607421875</LatitudeDegrees>
              <LongitudeDegrees>-1.919651962816715240478515625</LongitudeDegrees>
            </Position>
            <AltitudeMeters>13.19999980926513671875</AltitudeMeters>
            <DistanceMeters>NAN</DistanceMeters>
          </Trackpoint>
          <Trackpoint>
            <Time>2022-07-09T08:01:30.000Z</Time>
            <Position>
              <LatitudeDegrees>43.3267506770789623260498046875</LatitudeDegrees>
              <LongitudeDegrees>-1.91965741105377674102783203125</LongitudeDegrees>
            </Position>
            <AltitudeMeters>13.19999980926513671875</AltitudeMeters>
            <DistanceMeters>NAN</DistanceMeters>
          </Trackpoint>
          <Trackpoint>
            <Time>2022-07-09T08:01:31.000Z</Time>
            <Position>
              <LatitudeDegrees>43.3267506770789623260498046875</LatitudeDegrees>
              <LongitudeDegrees>-1.91965741105377674102783203125</LongitudeDegrees>
            </Position>
            <AltitudeMeters>13.19999980926513671875</AltitudeMeters>
            <DistanceMeters>NAN</DistanceMeters>
          </Trackpoint>
          <Trackpoint>
            <Time>2022-07-09T08:02:35.000Z</Time>
            <Position>
              <LatitudeDegrees>43.32630283199250698089599609375</LatitudeDegrees>
              <LongitudeDegrees>-1.92005957476794719696044921875</LongitudeDegrees>
            </Position>
            <AltitudeMeters>12.19999980926513671875</AltitudeMeters>
            <DistanceMeters>NAN</DistanceMeters>
          </Trackpoint>
          <Trackpoint>
            <Time>2022-07-09T08:02:36.000Z</Time>
            <Position>
              <LatitudeDegrees>43.32627802155911922454833984375</LatitudeDegrees>
              <LongitudeDegrees>-1.92006963305175304412841796875</LongitudeDegrees>
            </Position>
            <AltitudeMeters>12.19999980926513671875</AltitudeMeters>
            <DistanceMeters>NAN</DistanceMeters>
          </Trackpoint>
          <Trackpoint>
            <Time>2022-07-09T08:02:38.000Z</Time>
            <Position>
              <LatitudeDegrees>43.32625304348766803741455078125</LatitudeDegrees>
              <LongitudeDegrees>-1.92006678320467472076416015625</LongitudeDegrees>
            </Position>
            <AltitudeMeters>12.3999996185302734375</AltitudeMeters>
            <DistanceMeters>NAN</DistanceMeters>
          </Trackpoint>
          <Trackpoint>
            <Time>2022-07-09T08:02:40.000Z</Time>
            <Position>
              <LatitudeDegrees>43.32622806541621685028076171875</LatitudeDegrees>
              <LongitudeDegrees>-1.92008220590651035308837890625</LongitudeDegrees>
            </Position>
            <AltitudeMeters>12.3999996185302734375</AltitudeMeters>
            <DistanceMeters>NAN</DistanceMeters>
          </Trackpoint>
          <Trackpoint>
            <Time>2022-07-09T08:02:43.000Z</Time>
            <Position>
              <LatitudeDegrees>43.32621901296079158782958984375</LatitudeDegrees>
              <LongitudeDegrees>-1.92010533995926380157470703125</LongitudeDegrees>
            </Position>
            <AltitudeMeters>12.3999996185302734375</AltitudeMeters>
            <DistanceMeters>NAN</DistanceMeters>
          </Trackpoint>
          <Trackpoint>
            <Time>2022-07-09T08:02:45.000Z</Time>
            <Position>
              <LatitudeDegrees>43.32621901296079158782958984375</LatitudeDegrees>
              <LongitudeDegrees>-1.92010533995926380157470703125</LongitudeDegrees>
            </Position>
            <AltitudeMeters>12.3999996185302734375</AltitudeMeters>
            <DistanceMeters>NAN</DistanceMeters>
          </Trackpoint>
          <Trackpoint>
            <Time>2022-07-09T08:03:39.000Z</Time>
            <Position>
              <LatitudeDegrees>43.32625572569668292999267578125</LatitudeDegrees>
              <LongitudeDegrees>-1.9201144762337207794189453125</LongitudeDegrees>
            </Position>
            <AltitudeMeters>11.6000003814697265625</AltitudeMeters>
            <DistanceMeters>NAN</DistanceMeters>
          </Trackpoint>
          <Trackpoint>
            <Time>2022-07-09T08:03:40.000Z</Time>
            <Position>
              <LatitudeDegrees>43.3262698911130428314208984375</LatitudeDegrees>
              <LongitudeDegrees>-1.92010483704507350921630859375</LongitudeDegrees>
            </Position>
            <AltitudeMeters>11.3999996185302734375</AltitudeMeters>
            <DistanceMeters>NAN</DistanceMeters>
          </Trackpoint>
          <Trackpoint>
            <Time>2022-07-09T08:03:41.000Z</Time>
            <Position>
              <LatitudeDegrees>43.32628271542489528656005859375</LatitudeDegrees>
              <LongitudeDegrees>-1.92011808045208454132080078125</LongitudeDegrees>
            </Position>
            <AltitudeMeters>11</AltitudeMeters>
            <DistanceMeters>NAN</DistanceMeters>
          </Trackpoint>
          <Trackpoint>
            <Time>2022-07-09T08:03:47.000Z</Time>
            <Position>
              <LatitudeDegrees>43.32629822194576263427734375</LatitudeDegrees>
              <LongitudeDegrees>-1.92012704908847808837890625</LongitudeDegrees>
            </Position>
            <AltitudeMeters>10</AltitudeMeters>
            <DistanceMeters>NAN</DistanceMeters>
          </Trackpoint>
          <Trackpoint>
            <Time>2022-07-09T08:03:48.000Z</Time>
            <Position>
              <LatitudeDegrees>43.32629822194576263427734375</LatitudeDegrees>
              <LongitudeDegrees>-1.92012704908847808837890625</LongitudeDegrees>
            </Position>
            <AltitudeMeters>10</AltitudeMeters>
            <DistanceMeters>NAN</DistanceMeters>
          </Trackpoint>
          <Trackpoint>
            <Time>2022-07-09T08:03:54.000Z</Time>
            <Position>
              <LatitudeDegrees>43.32630668766796588897705078125</LatitudeDegrees>
              <LongitudeDegrees>-1.9201235286891460418701171875</LongitudeDegrees>
            </Position>
            <AltitudeMeters>9.6000003814697265625</AltitudeMeters>
            <DistanceMeters>NAN</DistanceMeters>
          </Trackpoint>
          <Trackpoint>
            <Time>2022-07-09T08:07:41.000Z</Time>
            <Position>
              <LatitudeDegrees>43.3263718150556087493896484375</LatitudeDegrees>
              <LongitudeDegrees>-1.92022469826042652130126953125</LongitudeDegrees>
            </Position>
            <AltitudeMeters>5.80000019073486328125</AltitudeMeters>
            <DistanceMeters>NAN</DistanceMeters>
          </Trackpoint>
          <Trackpoint>
            <Time>2022-07-09T08:07:49.000Z</Time>
            <Position>
              <LatitudeDegrees>43.32647717557847499847412109375</LatitudeDegrees>
              <LongitudeDegrees>-1.92033953033387660980224609375</LongitudeDegrees>
            </Position>
            <AltitudeMeters>6.400000095367431640625</AltitudeMeters>
            <DistanceMeters>NAN</DistanceMeters>
          </Trackpoint>
          <Trackpoint>
            <Time>2022-07-09T08:07:56.000Z</Time>
            <Position>
              <LatitudeDegrees>43.32655479200184345245361328125</LatitudeDegrees>
              <LongitudeDegrees>-1.92046324722468852996826171875</LongitudeDegrees>
            </Position>
            <AltitudeMeters>6.19999980926513671875</AltitudeMeters>
            <DistanceMeters>NAN</DistanceMeters>
          </Trackpoint>
          <Trackpoint>
            <Time>2022-07-09T08:08:03.000Z</Time>
            <Position>
              <LatitudeDegrees>43.32661313004791736602783203125</LatitudeDegrees>
              <LongitudeDegrees>-1.92064362578094005584716796875</LongitudeDegrees>
            </Position>
            <AltitudeMeters>6</AltitudeMeters>
            <DistanceMeters>NAN</DistanceMeters>
          </Trackpoint>
          <Trackpoint>
            <Time>2022-07-09T08:08:10.000Z</Time>
            <Position>
              <LatitudeDegrees>43.3266081847250461578369140625</LatitudeDegrees>
              <LongitudeDegrees>-1.9208385050296783447265625</LongitudeDegrees>
            </Position>
            <AltitudeMeters>5.19999980926513671875</AltitudeMeters>
            <DistanceMeters>NAN</DistanceMeters>
          </Trackpoint>
          <Trackpoint>
            <Time>2022-07-09T08:08:18.000Z</Time>
            <Position>
              <LatitudeDegrees>43.3265719749033451080322265625</LatitudeDegrees>
              <LongitudeDegrees>-1.9210619665682315826416015625</LongitudeDegrees>
            </Position>
            <AltitudeMeters>5.400000095367431640625</AltitudeMeters>
            <DistanceMeters>NAN</DistanceMeters>
          </Trackpoint>
          <Trackpoint>
            <Time>2022-07-09T08:08:26.000Z</Time>
            <Position>
              <LatitudeDegrees>43.32648857496678829193115234375</LatitudeDegrees>
              <LongitudeDegrees>-1.92125634290277957916259765625</LongitudeDegrees>
            </Position>
            <AltitudeMeters>5.19999980926513671875</AltitudeMeters>
            <DistanceMeters>NAN</DistanceMeters>
          </Trackpoint>
          <Trackpoint>
            <Time>2022-07-09T08:08:33.000Z</Time>
            <Position>
              <LatitudeDegrees>43.32637592218816280364990234375</LatitudeDegrees>
              <LongitudeDegrees>-1.92140956409275531768798828125</LongitudeDegrees>
            </Position>
            <AltitudeMeters>5.19999980926513671875</AltitudeMeters>
            <DistanceMeters>NAN</DistanceMeters>
          </Trackpoint>
          <Trackpoint>
            <Time>2022-07-09T08:08:41.000Z</Time>
            <Position>
              <LatitudeDegrees>43.32628137432038784027099609375</LatitudeDegrees>
              <LongitudeDegrees>-1.92150729708373546600341796875</LongitudeDegrees>
            </Position>
            <AltitudeMeters>5</AltitudeMeters>
            <DistanceMeters>NAN</DistanceMeters>
          </Trackpoint>
          <Trackpoint>
            <Time>2022-07-09T08:08:47.000Z</Time>
            <Position>
              <LatitudeDegrees>43.3262356929481029510498046875</LatitudeDegrees>
              <LongitudeDegrees>-1.92153948359191417694091796875</LongitudeDegrees>
            </Position>
            <AltitudeMeters>5</AltitudeMeters>
            <DistanceMeters>NAN</DistanceMeters>
          </Trackpoint>
          <Trackpoint>
            <Time>2022-07-09T08:08:49.000Z</Time>
            <Position>
              <LatitudeDegrees>43.3262356929481029510498046875</LatitudeDegrees>
              <LongitudeDegrees>-1.92153948359191417694091796875</LongitudeDegrees>
            </Position>
            <AltitudeMeters>5</AltitudeMeters>
            <DistanceMeters>NAN</DistanceMeters>
          </Trackpoint>
          <Trackpoint>
            <Time>2022-07-09T08:10:30.000Z</Time>
            <Position>
              <LatitudeDegrees>43.32625639624893665313720703125</LatitudeDegrees>
              <LongitudeDegrees>-1.9215471111238002777099609375</LongitudeDegrees>
            </Position>
            <AltitudeMeters>6</AltitudeMeters>
            <DistanceMeters>NAN</DistanceMeters>
          </Trackpoint>
          <Trackpoint>
            <Time>2022-07-09T08:10:31.000Z</Time>
            <Position>
              <LatitudeDegrees>43.326269723474979400634765625</LatitudeDegrees>
              <LongitudeDegrees>-1.9215487875044345855712890625</LongitudeDegrees>
            </Position>
            <AltitudeMeters>6</AltitudeMeters>
            <DistanceMeters>NAN</DistanceMeters>
          </Trackpoint>
          <Trackpoint>
            <Time>2022-07-09T08:10:32.000Z</Time>
            <Position>
              <LatitudeDegrees>43.326281793415546417236328125</LatitudeDegrees>
              <LongitudeDegrees>-1.9215511344373226165771484375</LongitudeDegrees>
            </Position>
            <AltitudeMeters>6</AltitudeMeters>
            <DistanceMeters>NAN</DistanceMeters>
          </Trackpoint>
          <Trackpoint>
            <Time>2022-07-09T08:10:35.000Z</Time>
            <Position>
              <LatitudeDegrees>43.32632479257881641387939453125</LatitudeDegrees>
              <LongitudeDegrees>-1.92155138589441776275634765625</LongitudeDegrees>
            </Position>
            <AltitudeMeters>5.400000095367431640625</AltitudeMeters>
            <DistanceMeters>NAN</DistanceMeters>
          </Trackpoint>
          <Trackpoint>
            <Time>2022-07-09T08:10:43.000Z</Time>
            <Position>
              <LatitudeDegrees>43.32641313783824443817138671875</LatitudeDegrees>
              <LongitudeDegrees>-1.92154970951378345489501953125</LongitudeDegrees>
            </Position>
            <AltitudeMeters>6.19999980926513671875</AltitudeMeters>
            <DistanceMeters>NAN</DistanceMeters>
          </Trackpoint>
          <Trackpoint>
            <Time>2022-07-09T08:10:48.000Z</Time>
            <Position>
              <LatitudeDegrees>43.32644046284258365631103515625</LatitudeDegrees>
              <LongitudeDegrees>-1.921546272933483123779296875</LongitudeDegrees>
            </Position>
            <AltitudeMeters>6.400000095367431640625</AltitudeMeters>
            <DistanceMeters>NAN</DistanceMeters>
          </Trackpoint>
          <Trackpoint>
            <Time>2022-07-09T08:14:29.000Z</Time>
            <Position>
              <LatitudeDegrees>43.32644767127931118011474609375</LatitudeDegrees>
              <LongitudeDegrees>-1.92171734757721424102783203125</LongitudeDegrees>
            </Position>
            <AltitudeMeters>6</AltitudeMeters>
            <DistanceMeters>NAN</DistanceMeters>
          </Trackpoint>
          <Trackpoint>
            <Time>2022-07-09T08:14:32.000Z</Time>
            <Position>
              <LatitudeDegrees>43.32648136653006076812744140625</LatitudeDegrees>
              <LongitudeDegrees>-1.9217895157635211944580078125</LongitudeDegrees>
            </Position>
            <AltitudeMeters>6</AltitudeMeters>
            <DistanceMeters>NAN</DistanceMeters>
          </Trackpoint>
          <Trackpoint>
            <Time>2022-07-09T08:14:35.000Z</Time>
            <Position>
              <LatitudeDegrees>43.326501064002513885498046875</LatitudeDegrees>
              <LongitudeDegrees>-1.9218793697655200958251953125</LongitudeDegrees>
            </Position>
            <AltitudeMeters>5.19999980926513671875</AltitudeMeters>
            <DistanceMeters>NAN</DistanceMeters>
          </Trackpoint>
          <Trackpoint>
            <Time>2022-07-09T08:14:36.000Z</Time>
            <Position>
              <LatitudeDegrees>43.32651548087596893310546875</LatitudeDegrees>
              <LongitudeDegrees>-1.92190459929406642913818359375</LongitudeDegrees>
            </Position>
            <AltitudeMeters>5</AltitudeMeters>
            <DistanceMeters>NAN</DistanceMeters>
          </Trackpoint>
          <Trackpoint>
            <Time>2022-07-09T08:14:39.000Z</Time>
            <Position>
              <LatitudeDegrees>43.3265659399330615997314453125</LatitudeDegrees>
              <LongitudeDegrees>-1.92197936587035655975341796875</LongitudeDegrees>
            </Position>
            <AltitudeMeters>4.80000019073486328125</AltitudeMeters>
            <DistanceMeters>NAN</DistanceMeters>
          </Trackpoint>
          <Trackpoint>
            <Time>2022-07-09T08:14:42.000Z</Time>
            <Position>
              <LatitudeDegrees>43.32661740481853485107421875</LatitudeDegrees>
              <LongitudeDegrees>-1.92206033505499362945556640625</LongitudeDegrees>
            </Position>
            <AltitudeMeters>4.400000095367431640625</AltitudeMeters>
            <DistanceMeters>NAN</DistanceMeters>
          </Trackpoint>
          <Trackpoint>
            <Time>2022-07-09T08:14:48.000Z</Time>
            <Position>
              <LatitudeDegrees>43.32668605260550975799560546875</LatitudeDegrees>
              <LongitudeDegrees>-1.9222491793334484100341796875</LongitudeDegrees>
            </Position>
            <AltitudeMeters>5</AltitudeMeters>
            <DistanceMeters>NAN</DistanceMeters>
          </Trackpoint>
          <Trackpoint>
            <Time>2022-07-09T08:14:49.000Z</Time>
            <Position>
              <LatitudeDegrees>43.326702229678630828857421875</LatitudeDegrees>
              <LongitudeDegrees>-1.92227013409137725830078125</LongitudeDegrees>
            </Position>
            <AltitudeMeters>5</AltitudeMeters>
            <DistanceMeters>NAN</DistanceMeters>
          </Trackpoint>
          <Trackpoint>
            <Time>2022-07-09T08:14:52.000Z</Time>
            <Position>
              <LatitudeDegrees>43.32679334096610546112060546875</LatitudeDegrees>
              <LongitudeDegrees>-1.9222867302596569061279296875</LongitudeDegrees>
            </Position>
            <AltitudeMeters>5</AltitudeMeters>
            <DistanceMeters>NAN</DistanceMeters>
          </Trackpoint>
          <Trackpoint>
            <Time>2022-07-09T08:14:57.000Z</Time>
            <Position>
              <LatitudeDegrees>43.32691387273371219635009765625</LatitudeDegrees>
              <LongitudeDegrees>-1.92235529422760009765625</LongitudeDegrees>
            </Position>
            <AltitudeMeters>4.80000019073486328125</AltitudeMeters>
            <DistanceMeters>NAN</DistanceMeters>
          </Trackpoint>
          <Trackpoint>
            <Time>2022-07-09T08:15:03.000Z</Time>
            <Position>
              <LatitudeDegrees>43.32698729820549488067626953125</LatitudeDegrees>
              <LongitudeDegrees>-1.92259208299219608306884765625</LongitudeDegrees>
            </Position>
            <AltitudeMeters>4.80000019073486328125</AltitudeMeters>
            <DistanceMeters>NAN</DistanceMeters>
          </Trackpoint>
          <Trackpoint>
            <Time>2022-07-09T08:15:08.000Z</Time>
            <Position>
              <LatitudeDegrees>43.327063657343387603759765625</LatitudeDegrees>
              <LongitudeDegrees>-1.92274547182023525238037109375</LongitudeDegrees>
            </Position>
            <AltitudeMeters>4.80000019073486328125</AltitudeMeters>
            <DistanceMeters>NAN</DistanceMeters>
          </Trackpoint>
          <Trackpoint>
            <Time>2022-07-09T08:15:13.000Z</Time>
            <Position>
              <LatitudeDegrees>43.32711386494338512420654296875</LatitudeDegrees>
              <LongitudeDegrees>-1.9228050671517848968505859375</LongitudeDegrees>
            </Position>
            <AltitudeMeters>4.80000019073486328125</AltitudeMeters>
            <DistanceMeters>NAN</DistanceMeters>
          </Trackpoint>
          <Trackpoint>
            <Time>2022-07-09T08:15:17.000Z</Time>
            <Position>
              <LatitudeDegrees>43.32711629569530487060546875</LatitudeDegrees>
              <LongitudeDegrees>-1.92280146293342113494873046875</LongitudeDegrees>
            </Position>
            <AltitudeMeters>4.80000019073486328125</AltitudeMeters>
            <DistanceMeters>NAN</DistanceMeters>
          </Trackpoint>
          <Trackpoint>
            <Time>2022-07-09T08:17:08.000Z</Time>
            <Position>
              <LatitudeDegrees>43.327176310122013092041015625</LatitudeDegrees>
              <LongitudeDegrees>-1.92278453148901462554931640625</LongitudeDegrees>
            </Position>
            <AltitudeMeters>2.2000000476837158203125</AltitudeMeters>
            <DistanceMeters>NAN</DistanceMeters>
          </Trackpoint>
          <Trackpoint>
            <Time>2022-07-09T08:17:09.000Z</Time>
            <Position>
              <LatitudeDegrees>43.327197767794132232666015625</LatitudeDegrees>
              <LongitudeDegrees>-1.92278805188834667205810546875</LongitudeDegrees>
            </Position>
            <AltitudeMeters>2.2000000476837158203125</AltitudeMeters>
            <DistanceMeters>NAN</DistanceMeters>
          </Trackpoint>
          <Trackpoint>
            <Time>2022-07-09T08:17:14.000Z</Time>
            <Position>
              <LatitudeDegrees>43.3273172937333583831787109375</LatitudeDegrees>
              <LongitudeDegrees>-1.922852508723735809326171875</LongitudeDegrees>
            </Position>
            <AltitudeMeters>2.400000095367431640625</AltitudeMeters>
            <DistanceMeters>NAN</DistanceMeters>
          </Trackpoint>
          <Trackpoint>
            <Time>2022-07-09T08:17:18.000Z</Time>
            <Position>
              <LatitudeDegrees>43.3274024538695812225341796875</LatitudeDegrees>
              <LongitudeDegrees>-1.92292056977748870849609375</LongitudeDegrees>
            </Position>
            <AltitudeMeters>2.400000095367431640625</AltitudeMeters>
            <DistanceMeters>NAN</DistanceMeters>
          </Trackpoint>
          <Trackpoint>
            <Time>2022-07-09T08:17:19.000Z</Time>
            <Position>
              <LatitudeDegrees>43.3274235762655735015869140625</LatitudeDegrees>
              <LongitudeDegrees>-1.9229348190128803253173828125</LongitudeDegrees>
            </Position>
            <AltitudeMeters>2.400000095367431640625</AltitudeMeters>
            <DistanceMeters>NAN</DistanceMeters>
          </Trackpoint>
          <Trackpoint>
            <Time>2022-07-09T08:17:27.000Z</Time>
            <Position>
              <LatitudeDegrees>43.32760487683117389678955078125</LatitudeDegrees>
              <LongitudeDegrees>-1.9230365753173828125</LongitudeDegrees>
            </Position>
            <AltitudeMeters>2.400000095367431640625</AltitudeMeters>
            <DistanceMeters>NAN</DistanceMeters>
          </Trackpoint>
          <Trackpoint>
            <Time>2022-07-09T08:17:28.000Z</Time>
            <Position>
              <LatitudeDegrees>43.327634632587432861328125</LatitudeDegrees>
              <LongitudeDegrees>-1.923063062131404876708984375</LongitudeDegrees>
            </Position>
            <AltitudeMeters>2.599999904632568359375</AltitudeMeters>
            <DistanceMeters>NAN</DistanceMeters>
          </Trackpoint>
          <Trackpoint>
            <Time>2022-07-09T08:17:33.000Z</Time>
            <Position>
              <LatitudeDegrees>43.32776597701013088226318359375</LatitudeDegrees>
              <LongitudeDegrees>-1.9231128506362438201904296875</LongitudeDegrees>
            </Position>
            <AltitudeMeters>2.7999999523162841796875</AltitudeMeters>
            <DistanceMeters>NAN</DistanceMeters>
          </Trackpoint>
          <Trackpoint>
            <Time>2022-07-09T08:17:34.000Z</Time>
            <Position>
              <LatitudeDegrees>43.32778877578675746917724609375</LatitudeDegrees>
              <LongitudeDegrees>-1.92311963997781276702880859375</LongitudeDegrees>
            </Position>
            <AltitudeMeters>2.7999999523162841796875</AltitudeMeters>
            <DistanceMeters>NAN</DistanceMeters>
          </Trackpoint>
          <Trackpoint>
            <Time>2022-07-09T08:17:37.000Z</Time>
            <Position>
              <LatitudeDegrees>43.3278409950435161590576171875</LatitudeDegrees>
              <LongitudeDegrees>-1.92314880900084972381591796875</LongitudeDegrees>
            </Position>
            <AltitudeMeters>2.7999999523162841796875</AltitudeMeters>
            <DistanceMeters>NAN</DistanceMeters>
          </Trackpoint>
          <Trackpoint>
            <Time>2022-07-09T08:17:41.000Z</Time>
            <Position>
              <LatitudeDegrees>43.32796596921980381011962890625</LatitudeDegrees>
              <LongitudeDegrees>-1.92318853922188282012939453125</LongitudeDegrees>
            </Position>
            <AltitudeMeters>3</AltitudeMeters>
            <DistanceMeters>NAN</DistanceMeters>
          </Trackpoint>
          <Trackpoint>
            <Time>2022-07-09T08:17:45.000Z</Time>
            <Position>
              <LatitudeDegrees>43.3280683122575283050537109375</LatitudeDegrees>
              <LongitudeDegrees>-1.9231825880706310272216796875</LongitudeDegrees>
            </Position>
            <AltitudeMeters>2.599999904632568359375</AltitudeMeters>
            <DistanceMeters>NAN</DistanceMeters>
          </Trackpoint>
          <Trackpoint>
            <Time>2022-07-09T08:17:51.000Z</Time>
            <Position>
              <LatitudeDegrees>43.328182809054851531982421875</LatitudeDegrees>
              <LongitudeDegrees>-1.92315920256078243255615234375</LongitudeDegrees>
            </Position>
            <AltitudeMeters>2.7999999523162841796875</AltitudeMeters>
            <DistanceMeters>NAN</DistanceMeters>
          </Trackpoint>
          <Trackpoint>
            <Time>2022-07-09T08:17:52.000Z</Time>
            <Position>
              <LatitudeDegrees>43.32820753566920757293701171875</LatitudeDegrees>
              <LongitudeDegrees>-1.92315450869500637054443359375</LongitudeDegrees>
            </Position>
            <AltitudeMeters>2.7999999523162841796875</AltitudeMeters>
            <DistanceMeters>NAN</DistanceMeters>
          </Trackpoint>
          <Trackpoint>
            <Time>2022-07-09T08:17:54.000Z</Time>
            <Position>
              <LatitudeDegrees>43.328262269496917724609375</LatitudeDegrees>
              <LongitudeDegrees>-1.9231371581554412841796875</LongitudeDegrees>
            </Position>
            <AltitudeMeters>2.599999904632568359375</AltitudeMeters>
            <DistanceMeters>NAN</DistanceMeters>
          </Trackpoint>
          <Trackpoint>
            <Time>2022-07-09T08:17:56.000Z</Time>
            <Position>
              <LatitudeDegrees>43.32829772494733333587646484375</LatitudeDegrees>
              <LongitudeDegrees>-1.9231162033975124359130859375</LongitudeDegrees>
            </Position>
            <AltitudeMeters>2.599999904632568359375</AltitudeMeters>
            <DistanceMeters>NAN</DistanceMeters>
          </Trackpoint>
          <Trackpoint>
            <Time>2022-07-09T08:17:59.000Z</Time>
            <Position>
              <LatitudeDegrees>43.3283519558608531951904296875</LatitudeDegrees>
              <LongitudeDegrees>-1.923159621655941009521484375</LongitudeDegrees>
            </Position>
            <AltitudeMeters>2.599999904632568359375</AltitudeMeters>
            <DistanceMeters>NAN</DistanceMeters>
          </Trackpoint>
          <Trackpoint>
            <Time>2022-07-09T08:18:01.000Z</Time>
            <Position>
              <LatitudeDegrees>43.3283851481974124908447265625</LatitudeDegrees>
              <LongitudeDegrees>-1.9232084043323993682861328125</LongitudeDegrees>
            </Position>
            <AltitudeMeters>2.599999904632568359375</AltitudeMeters>
            <DistanceMeters>NAN</DistanceMeters>
          </Trackpoint>
          <Trackpoint>
            <Time>2022-07-09T08:18:09.000Z</Time>
            <Position>
              <LatitudeDegrees>43.32853778265416622161865234375</LatitudeDegrees>
              <LongitudeDegrees>-1.92339741624891757965087890625</LongitudeDegrees>
            </Position>
            <AltitudeMeters>2.7999999523162841796875</AltitudeMeters>
            <DistanceMeters>NAN</DistanceMeters>
          </Trackpoint>
          <Trackpoint>
            <Time>2022-07-09T08:18:11.000Z</Time>
            <Position>
              <LatitudeDegrees>43.32856225781142711639404296875</LatitudeDegrees>
              <LongitudeDegrees>-1.92344100214540958404541015625</LongitudeDegrees>
            </Position>
            <AltitudeMeters>3</AltitudeMeters>
            <DistanceMeters>NAN</DistanceMeters>
          </Trackpoint>
          <Trackpoint>
            <Time>2022-07-09T08:18:13.000Z</Time>
            <Position>
              <LatitudeDegrees>43.328587152063846588134765625</LatitudeDegrees>
              <LongitudeDegrees>-1.9235135056078433990478515625</LongitudeDegrees>
            </Position>
            <AltitudeMeters>3</AltitudeMeters>
            <DistanceMeters>NAN</DistanceMeters>
          </Trackpoint>
          <Trackpoint>
            <Time>2022-07-09T08:18:20.000Z</Time>
            <Position>
              <LatitudeDegrees>43.32871397025883197784423828125</LatitudeDegrees>
              <LongitudeDegrees>-1.92371190525591373443603515625</LongitudeDegrees>
            </Position>
            <AltitudeMeters>3</AltitudeMeters>
            <DistanceMeters>NAN</DistanceMeters>
          </Trackpoint>
          <Trackpoint>
            <Time>2022-07-09T08:18:27.000Z</Time>
            <Position>
              <LatitudeDegrees>43.3287841267883777618408203125</LatitudeDegrees>
              <LongitudeDegrees>-1.92394358105957508087158203125</LongitudeDegrees>
            </Position>
            <AltitudeMeters>2.7999999523162841796875</AltitudeMeters>
            <DistanceMeters>NAN</DistanceMeters>
          </Trackpoint>
          <Trackpoint>
            <Time>2022-07-09T08:18:33.000Z</Time>
            <Position>
              <LatitudeDegrees>43.328835926949977874755859375</LatitudeDegrees>
              <LongitudeDegrees>-1.92412982694804668426513671875</LongitudeDegrees>
            </Position>
            <AltitudeMeters>3.2000000476837158203125</AltitudeMeters>
            <DistanceMeters>NAN</DistanceMeters>
          </Trackpoint>
          <Trackpoint>
            <Time>2022-07-09T08:18:39.000Z</Time>
            <Position>
              <LatitudeDegrees>43.3288471587002277374267578125</LatitudeDegrees>
              <LongitudeDegrees>-1.9243208505213260650634765625</LongitudeDegrees>
            </Position>
            <AltitudeMeters>2.7999999523162841796875</AltitudeMeters>
            <DistanceMeters>NAN</DistanceMeters>
          </Trackpoint>
          <Trackpoint>
            <Time>2022-07-09T08:18:44.000Z</Time>
            <Position>
              <LatitudeDegrees>43.328852355480194091796875</LatitudeDegrees>
              <LongitudeDegrees>-1.92447130568325519561767578125</LongitudeDegrees>
            </Position>
            <AltitudeMeters>3</AltitudeMeters>
            <DistanceMeters>NAN</DistanceMeters>
          </Trackpoint>
          <Trackpoint>
            <Time>2022-07-09T08:18:46.000Z</Time>
            <Position>
              <LatitudeDegrees>43.3288565464317798614501953125</LatitudeDegrees>
              <LongitudeDegrees>-1.92453484050929546356201171875</LongitudeDegrees>
            </Position>
            <AltitudeMeters>3</AltitudeMeters>
            <DistanceMeters>NAN</DistanceMeters>
          </Trackpoint>
          <Trackpoint>
            <Time>2022-07-09T08:18:48.000Z</Time>
            <Position>
              <LatitudeDegrees>43.32885495387017726898193359375</LatitudeDegrees>
              <LongitudeDegrees>-1.9246004708111286163330078125</LongitudeDegrees>
            </Position>
            <AltitudeMeters>3</AltitudeMeters>
            <DistanceMeters>NAN</DistanceMeters>
          </Trackpoint>
          <Trackpoint>
            <Time>2022-07-09T08:18:51.000Z</Time>
            <Position>
              <LatitudeDegrees>43.32885478623211383819580078125</LatitudeDegrees>
              <LongitudeDegrees>-1.92469577305018901824951171875</LongitudeDegrees>
            </Position>
            <AltitudeMeters>3</AltitudeMeters>
            <DistanceMeters>NAN</DistanceMeters>
          </Trackpoint>
          <Trackpoint>
            <Time>2022-07-09T08:18:53.000Z</Time>
            <Position>
              <LatitudeDegrees>43.3288568817079067230224609375</LatitudeDegrees>
              <LongitudeDegrees>-1.924764923751354217529296875</LongitudeDegrees>
            </Position>
            <AltitudeMeters>3</AltitudeMeters>
            <DistanceMeters>NAN</DistanceMeters>
          </Trackpoint>
          <Trackpoint>
            <Time>2022-07-09T08:18:58.000Z</Time>
            <Position>
              <LatitudeDegrees>43.328835926949977874755859375</LatitudeDegrees>
              <LongitudeDegrees>-1.924990899860858917236328125</LongitudeDegrees>
            </Position>
            <AltitudeMeters>3</AltitudeMeters>
            <DistanceMeters>NAN</DistanceMeters>
          </Trackpoint>
          <Trackpoint>
            <Time>2022-07-09T08:19:01.000Z</Time>
            <Position>
              <LatitudeDegrees>43.3288189955055713653564453125</LatitudeDegrees>
              <LongitudeDegrees>-1.92512928508222103118896484375</LongitudeDegrees>
            </Position>
            <AltitudeMeters>3.2000000476837158203125</AltitudeMeters>
            <DistanceMeters>NAN</DistanceMeters>
          </Trackpoint>
          <Trackpoint>
            <Time>2022-07-09T08:19:03.000Z</Time>
            <Position>
              <LatitudeDegrees>43.3288065902888774871826171875</LatitudeDegrees>
              <LongitudeDegrees>-1.925216205418109893798828125</LongitudeDegrees>
            </Position>
            <AltitudeMeters>3.599999904632568359375</AltitudeMeters>
            <DistanceMeters>NAN</DistanceMeters>
          </Trackpoint>
          <Trackpoint>
            <Time>2022-07-09T08:19:09.000Z</Time>
            <Position>
              <LatitudeDegrees>43.328811116516590118408203125</LatitudeDegrees>
              <LongitudeDegrees>-1.9254438579082489013671875</LongitudeDegrees>
            </Position>
            <AltitudeMeters>3.7999999523162841796875</AltitudeMeters>
            <DistanceMeters>NAN</DistanceMeters>
          </Trackpoint>
          <Trackpoint>
            <Time>2022-07-09T08:19:12.000Z</Time>
            <Position>
              <LatitudeDegrees>43.3288310654461383819580078125</LatitudeDegrees>
              <LongitudeDegrees>-1.92551166750490665435791015625</LongitudeDegrees>
            </Position>
            <AltitudeMeters>4</AltitudeMeters>
            <DistanceMeters>NAN</DistanceMeters>
          </Trackpoint>
          <Trackpoint>
            <Time>2022-07-09T08:19:13.000Z</Time>
            <Position>
              <LatitudeDegrees>43.32883282564580440521240234375</LatitudeDegrees>
              <LongitudeDegrees>-1.92552206106483936309814453125</LongitudeDegrees>
            </Position>
            <AltitudeMeters>4</AltitudeMeters>
            <DistanceMeters>NAN</DistanceMeters>
          </Trackpoint>
          <Trackpoint>
            <Time>2022-07-09T08:19:14.000Z</Time>
            <Position>
              <LatitudeDegrees>43.3288350887596607208251953125</LatitudeDegrees>
              <LongitudeDegrees>-1.92553035914897918701171875</LongitudeDegrees>
            </Position>
            <AltitudeMeters>4</AltitudeMeters>
            <DistanceMeters>NAN</DistanceMeters>
          </Trackpoint>
          <Trackpoint>
            <Time>2022-07-09T08:19:18.000Z</Time>
            <Position>
              <LatitudeDegrees>43.32887439988553524017333984375</LatitudeDegrees>
              <LongitudeDegrees>-1.92559112794697284698486328125</LongitudeDegrees>
            </Position>
            <AltitudeMeters>4.19999980926513671875</AltitudeMeters>
            <DistanceMeters>NAN</DistanceMeters>
          </Trackpoint>
          <Trackpoint>
            <Time>2022-07-09T08:19:19.000Z</Time>
            <Position>
              <LatitudeDegrees>43.32888596691191196441650390625</LatitudeDegrees>
              <LongitudeDegrees>-1.92559347487986087799072265625</LongitudeDegrees>
            </Position>
            <AltitudeMeters>4.19999980926513671875</AltitudeMeters>
            <DistanceMeters>NAN</DistanceMeters>
          </Trackpoint>
          <Trackpoint>
            <Time>2022-07-09T08:19:20.000Z</Time>
            <Position>
              <LatitudeDegrees>43.3289004676043987274169921875</LatitudeDegrees>
              <LongitudeDegrees>-1.9255967438220977783203125</LongitudeDegrees>
            </Position>
            <AltitudeMeters>4.400000095367431640625</AltitudeMeters>
            <DistanceMeters>NAN</DistanceMeters>
          </Trackpoint>
          <Trackpoint>
            <Time>2022-07-09T08:19:22.000Z</Time>
            <Position>
              <LatitudeDegrees>43.32893474958837032318115234375</LatitudeDegrees>
              <LongitudeDegrees>-1.9256200455129146575927734375</LongitudeDegrees>
            </Position>
            <AltitudeMeters>4.400000095367431640625</AltitudeMeters>
            <DistanceMeters>NAN</DistanceMeters>
          </Trackpoint>
          <Trackpoint>
            <Time>2022-07-09T08:19:30.000Z</Time>
            <Position>
              <LatitudeDegrees>43.3290369249880313873291015625</LatitudeDegrees>
              <LongitudeDegrees>-1.92579044960439205169677734375</LongitudeDegrees>
            </Position>
            <AltitudeMeters>4.80000019073486328125</AltitudeMeters>
            <DistanceMeters>NAN</DistanceMeters>
          </Trackpoint>
          <Trackpoint>
            <Time>2022-07-09T08:19:34.000Z</Time>
            <Position>
              <LatitudeDegrees>43.32904421724379062652587890625</LatitudeDegrees>
              <LongitudeDegrees>-1.9258939661085605621337890625</LongitudeDegrees>
            </Position>
            <AltitudeMeters>5.400000095367431640625</AltitudeMeters>
            <DistanceMeters>NAN</DistanceMeters>
          </Trackpoint>
          <Trackpoint>
            <Time>2022-07-09T08:19:35.000Z</Time>
            <Position>
              <LatitudeDegrees>43.32904723472893238067626953125</LatitudeDegrees>
              <LongitudeDegrees>-1.92591500468552112579345703125</LongitudeDegrees>
            </Position>
            <AltitudeMeters>5.599999904632568359375</AltitudeMeters>
            <DistanceMeters>NAN</DistanceMeters>
          </Trackpoint>
          <Trackpoint>
            <Time>2022-07-09T08:19:40.000Z</Time>
            <Position>
              <LatitudeDegrees>43.3290543593466281890869140625</LatitudeDegrees>
              <LongitudeDegrees>-1.92606554366648197174072265625</LongitudeDegrees>
            </Position>
            <AltitudeMeters>5.80000019073486328125</AltitudeMeters>
            <DistanceMeters>NAN</DistanceMeters>
          </Trackpoint>
          <Trackpoint>
            <Time>2022-07-09T08:19:41.000Z</Time>
            <Position>
              <LatitudeDegrees>43.32906751893460750579833984375</LatitudeDegrees>
              <LongitudeDegrees>-1.926085241138935089111328125</LongitudeDegrees>
            </Position>
            <AltitudeMeters>5.80000019073486328125</AltitudeMeters>
            <DistanceMeters>NAN</DistanceMeters>
          </Trackpoint>
          <Trackpoint>
            <Time>2022-07-09T08:19:45.000Z</Time>
            <Position>
              <LatitudeDegrees>43.32910909317433834075927734375</LatitudeDegrees>
              <LongitudeDegrees>-1.926162354648113250732421875</LongitudeDegrees>
            </Position>
            <AltitudeMeters>5.80000019073486328125</AltitudeMeters>
            <DistanceMeters>NAN</DistanceMeters>
          </Trackpoint>
          <Trackpoint>
            <Time>2022-07-09T08:19:47.000Z</Time>
            <Position>
              <LatitudeDegrees>43.329139016568660736083984375</LatitudeDegrees>
              <LongitudeDegrees>-1.9261856563389301300048828125</LongitudeDegrees>
            </Position>
            <AltitudeMeters>6</AltitudeMeters>
            <DistanceMeters>NAN</DistanceMeters>
          </Trackpoint>
          <Trackpoint>
            <Time>2022-07-09T08:19:51.000Z</Time>
            <Position>
              <LatitudeDegrees>43.32914295606315135955810546875</LatitudeDegrees>
              <LongitudeDegrees>-1.92618372850120067596435546875</LongitudeDegrees>
            </Position>
            <AltitudeMeters>6</AltitudeMeters>
            <DistanceMeters>NAN</DistanceMeters>
          </Trackpoint>
          <Trackpoint>
            <Time>2022-07-09T08:20:00.000Z</Time>
            <Position>
              <LatitudeDegrees>43.32918436266481876373291015625</LatitudeDegrees>
              <LongitudeDegrees>-1.92624072544276714324951171875</LongitudeDegrees>
            </Position>
            <AltitudeMeters>6</AltitudeMeters>
            <DistanceMeters>NAN</DistanceMeters>
          </Trackpoint>
          <Trackpoint>
            <Time>2022-07-09T08:20:02.000Z</Time>
            <Position>
              <LatitudeDegrees>43.32922794856131076812744140625</LatitudeDegrees>
              <LongitudeDegrees>-1.9262761808931827545166015625</LongitudeDegrees>
            </Position>
            <AltitudeMeters>6</AltitudeMeters>
            <DistanceMeters>NAN</DistanceMeters>
          </Trackpoint>
          <Trackpoint>
            <Time>2022-07-09T08:20:03.000Z</Time>
            <Position>
              <LatitudeDegrees>43.32925644703209400177001953125</LatitudeDegrees>
              <LongitudeDegrees>-1.9262874126434326171875</LongitudeDegrees>
            </Position>
            <AltitudeMeters>6</AltitudeMeters>
            <DistanceMeters>NAN</DistanceMeters>
          </Trackpoint>
          <Trackpoint>
            <Time>2022-07-09T08:20:05.000Z</Time>
            <Position>
              <LatitudeDegrees>43.3293252624571323394775390625</LatitudeDegrees>
              <LongitudeDegrees>-1.92628799937665462493896484375</LongitudeDegrees>
            </Position>
            <AltitudeMeters>6</AltitudeMeters>
            <DistanceMeters>NAN</DistanceMeters>
          </Trackpoint>
          <Trackpoint>
            <Time>2022-07-09T08:20:10.000Z</Time>
            <Position>
              <LatitudeDegrees>43.32947571761906147003173828125</LatitudeDegrees>
              <LongitudeDegrees>-1.92619496025145053863525390625</LongitudeDegrees>
            </Position>
            <AltitudeMeters>5.599999904632568359375</AltitudeMeters>
            <DistanceMeters>NAN</DistanceMeters>
          </Trackpoint>
          <Trackpoint>
            <Time>2022-07-09T08:20:18.000Z</Time>
            <Position>
              <LatitudeDegrees>43.3297423459589481353759765625</LatitudeDegrees>
              <LongitudeDegrees>-1.92602765746414661407470703125</LongitudeDegrees>
            </Position>
            <AltitudeMeters>5.400000095367431640625</AltitudeMeters>
            <DistanceMeters>NAN</DistanceMeters>
          </Trackpoint>
          <Trackpoint>
            <Time>2022-07-09T08:20:24.000Z</Time>
            <Position>
              <LatitudeDegrees>43.32991040311753749847412109375</LatitudeDegrees>
              <LongitudeDegrees>-1.92592975683510303497314453125</LongitudeDegrees>
            </Position>
            <AltitudeMeters>4.80000019073486328125</AltitudeMeters>
            <DistanceMeters>NAN</DistanceMeters>
          </Trackpoint>
          <Trackpoint>
            <Time>2022-07-09T08:20:25.000Z</Time>
            <Position>
              <LatitudeDegrees>43.3299373090267181396484375</LatitudeDegrees>
              <LongitudeDegrees>-1.92591634579002857208251953125</LongitudeDegrees>
            </Position>
            <AltitudeMeters>4.80000019073486328125</AltitudeMeters>
            <DistanceMeters>NAN</DistanceMeters>
          </Trackpoint>
          <Trackpoint>
            <Time>2022-07-09T08:20:31.000Z</Time>
            <Position>
              <LatitudeDegrees>43.33005289547145366668701171875</LatitudeDegrees>
              <LongitudeDegrees>-1.92584526725113391876220703125</LongitudeDegrees>
            </Position>
            <AltitudeMeters>4.80000019073486328125</AltitudeMeters>
            <DistanceMeters>NAN</DistanceMeters>
          </Trackpoint>
          <Trackpoint>
            <Time>2022-07-09T08:20:37.000Z</Time>
            <Position>
              <LatitudeDegrees>43.33014987409114837646484375</LatitudeDegrees>
              <LongitudeDegrees>-1.925754658877849578857421875</LongitudeDegrees>
            </Position>
            <AltitudeMeters>4.599999904632568359375</AltitudeMeters>
            <DistanceMeters>NAN</DistanceMeters>
          </Trackpoint>
          <Trackpoint>
            <Time>2022-07-09T08:20:45.000Z</Time>
            <Position>
              <LatitudeDegrees>43.3303636126220226287841796875</LatitudeDegrees>
              <LongitudeDegrees>-1.9257196225225925445556640625</LongitudeDegrees>
            </Position>
            <AltitudeMeters>5</AltitudeMeters>
            <DistanceMeters>NAN</DistanceMeters>
          </Trackpoint>
          <Trackpoint>
            <Time>2022-07-09T08:20:49.000Z</Time>
            <Position>
              <LatitudeDegrees>43.33047400228679180145263671875</LatitudeDegrees>
              <LongitudeDegrees>-1.9257109053432941436767578125</LongitudeDegrees>
            </Position>
            <AltitudeMeters>5.19999980926513671875</AltitudeMeters>
            <DistanceMeters>NAN</DistanceMeters>
          </Trackpoint>
          <Trackpoint>
            <Time>2022-07-09T08:20:51.000Z</Time>
            <Position>
              <LatitudeDegrees>43.33052731119096279144287109375</LatitudeDegrees>
              <LongitudeDegrees>-1.925686933100223541259765625</LongitudeDegrees>
            </Position>
            <AltitudeMeters>5.400000095367431640625</AltitudeMeters>
            <DistanceMeters>NAN</DistanceMeters>
          </Trackpoint>
          <Trackpoint>
            <Time>2022-07-09T08:20:56.000Z</Time>
            <Position>
              <LatitudeDegrees>43.3306529559195041656494140625</LatitudeDegrees>
              <LongitudeDegrees>-1.92570093087852001190185546875</LongitudeDegrees>
            </Position>
            <AltitudeMeters>5.599999904632568359375</AltitudeMeters>
            <DistanceMeters>NAN</DistanceMeters>
          </Trackpoint>
          <Trackpoint>
            <Time>2022-07-09T08:21:02.000Z</Time>
            <Position>
              <LatitudeDegrees>43.3307941071689128875732421875</LatitudeDegrees>
              <LongitudeDegrees>-1.9256944768130779266357421875</LongitudeDegrees>
            </Position>
            <AltitudeMeters>6</AltitudeMeters>
            <DistanceMeters>NAN</DistanceMeters>
          </Trackpoint>
          <Trackpoint>
            <Time>2022-07-09T08:21:05.000Z</Time>
            <Position>
              <LatitudeDegrees>43.33086258731782436370849609375</LatitudeDegrees>
              <LongitudeDegrees>-1.92567922174930572509765625</LongitudeDegrees>
            </Position>
            <AltitudeMeters>6.19999980926513671875</AltitudeMeters>
            <DistanceMeters>NAN</DistanceMeters>
          </Trackpoint>
          <Trackpoint>
            <Time>2022-07-09T08:21:12.000Z</Time>
            <Position>
              <LatitudeDegrees>43.3310153894126415252685546875</LatitudeDegrees>
              <LongitudeDegrees>-1.92567109130322933197021484375</LongitudeDegrees>
            </Position>
            <AltitudeMeters>6.400000095367431640625</AltitudeMeters>
            <DistanceMeters>NAN</DistanceMeters>
          </Trackpoint>
          <Trackpoint>
            <Time>2022-07-09T08:21:20.000Z</Time>
            <Position>
              <LatitudeDegrees>43.33117975853383541107177734375</LatitudeDegrees>
              <LongitudeDegrees>-1.92563639022409915924072265625</LongitudeDegrees>
            </Position>
            <AltitudeMeters>6.599999904632568359375</AltitudeMeters>
            <DistanceMeters>NAN</DistanceMeters>
          </Trackpoint>
          <Trackpoint>
            <Time>2022-07-09T08:21:25.000Z</Time>
            <Position>
              <LatitudeDegrees>43.33130012266337871551513671875</LatitudeDegrees>
              <LongitudeDegrees>-1.925625242292881011962890625</LongitudeDegrees>
            </Position>
            <AltitudeMeters>6.599999904632568359375</AltitudeMeters>
            <DistanceMeters>NAN</DistanceMeters>
          </Trackpoint>
          <Trackpoint>
            <Time>2022-07-09T08:21:30.000Z</Time>
            <Position>
              <LatitudeDegrees>43.33141327835619449615478515625</LatitudeDegrees>
              <LongitudeDegrees>-1.92562767304480075836181640625</LongitudeDegrees>
            </Position>
            <AltitudeMeters>6.80000019073486328125</AltitudeMeters>
            <DistanceMeters>NAN</DistanceMeters>
          </Trackpoint>
          <Trackpoint>
            <Time>2022-07-09T08:21:35.000Z</Time>
            <Position>
              <LatitudeDegrees>43.33155459724366664886474609375</LatitudeDegrees>
              <LongitudeDegrees>-1.9256639666855335235595703125</LongitudeDegrees>
            </Position>
            <AltitudeMeters>7</AltitudeMeters>
            <DistanceMeters>NAN</DistanceMeters>
          </Trackpoint>
          <Trackpoint>
            <Time>2022-07-09T08:21:43.000Z</Time>
            <Position>
              <LatitudeDegrees>43.3317281864583492279052734375</LatitudeDegrees>
              <LongitudeDegrees>-1.92569154314696788787841796875</LongitudeDegrees>
            </Position>
            <AltitudeMeters>7</AltitudeMeters>
            <DistanceMeters>NAN</DistanceMeters>
          </Trackpoint>
          <Trackpoint>
            <Time>2022-07-09T08:21:49.000Z</Time>
            <Position>
              <LatitudeDegrees>43.331829607486724853515625</LatitudeDegrees>
              <LongitudeDegrees>-1.9256995059549808502197265625</LongitudeDegrees>
            </Position>
            <AltitudeMeters>7.400000095367431640625</AltitudeMeters>
            <DistanceMeters>NAN</DistanceMeters>
          </Trackpoint>
          <Trackpoint>
            <Time>2022-07-09T08:21:51.000Z</Time>
            <Position>
              <LatitudeDegrees>43.33183505572378635406494140625</LatitudeDegrees>
              <LongitudeDegrees>-1.9257011823356151580810546875</LongitudeDegrees>
            </Position>
            <AltitudeMeters>7.400000095367431640625</AltitudeMeters>
            <DistanceMeters>NAN</DistanceMeters>
          </Trackpoint>
          <Trackpoint>
            <Time>2022-07-09T08:21:54.000Z</Time>
            <Position>
              <LatitudeDegrees>43.33183304406702518463134765625</LatitudeDegrees>
              <LongitudeDegrees>-1.92569640465080738067626953125</LongitudeDegrees>
            </Position>
            <AltitudeMeters>7.599999904632568359375</AltitudeMeters>
            <DistanceMeters>NAN</DistanceMeters>
          </Trackpoint>
          <Trackpoint>
            <Time>2022-07-09T08:21:55.000Z</Time>
            <Position>
              <LatitudeDegrees>43.33183304406702518463134765625</LatitudeDegrees>
              <LongitudeDegrees>-1.92569640465080738067626953125</LongitudeDegrees>
            </Position>
            <AltitudeMeters>7.599999904632568359375</AltitudeMeters>
            <DistanceMeters>NAN</DistanceMeters>
          </Trackpoint>
          <Trackpoint>
            <Time>2022-07-09T08:23:11.000Z</Time>
            <Position>
              <LatitudeDegrees>43.33180077373981475830078125</LatitudeDegrees>
              <LongitudeDegrees>-1.9257135875523090362548828125</LongitudeDegrees>
            </Position>
            <AltitudeMeters>9</AltitudeMeters>
            <DistanceMeters>NAN</DistanceMeters>
          </Trackpoint>
          <Trackpoint>
            <Time>2022-07-09T08:23:12.000Z</Time>
            <Position>
              <LatitudeDegrees>43.33176816813647747039794921875</LatitudeDegrees>
              <LongitudeDegrees>-1.925713084638118743896484375</LongitudeDegrees>
            </Position>
            <AltitudeMeters>9</AltitudeMeters>
            <DistanceMeters>NAN</DistanceMeters>
          </Trackpoint>
          <Trackpoint>
            <Time>2022-07-09T08:23:17.000Z</Time>
            <Position>
              <LatitudeDegrees>43.33161595277488231658935546875</LatitudeDegrees>
              <LongitudeDegrees>-1.92571534775197505950927734375</LongitudeDegrees>
            </Position>
            <AltitudeMeters>8</AltitudeMeters>
            <DistanceMeters>NAN</DistanceMeters>
          </Trackpoint>
          <Trackpoint>
            <Time>2022-07-09T08:23:18.000Z</Time>
            <Position>
              <LatitudeDegrees>43.33158644847571849822998046875</LatitudeDegrees>
              <LongitudeDegrees>-1.925711072981357574462890625</LongitudeDegrees>
            </Position>
            <AltitudeMeters>7.80000019073486328125</AltitudeMeters>
            <DistanceMeters>NAN</DistanceMeters>
          </Trackpoint>
          <Trackpoint>
            <Time>2022-07-09T08:23:22.000Z</Time>
            <Position>
              <LatitudeDegrees>43.3314576186239719390869140625</LatitudeDegrees>
              <LongitudeDegrees>-1.92571065388619899749755859375</LongitudeDegrees>
            </Position>
            <AltitudeMeters>7</AltitudeMeters>
            <DistanceMeters>NAN</DistanceMeters>
          </Trackpoint>
          <Trackpoint>
            <Time>2022-07-09T08:23:23.000Z</Time>
            <Position>
              <LatitudeDegrees>43.33142518065869808197021484375</LatitudeDegrees>
              <LongitudeDegrees>-1.92571945488452911376953125</LongitudeDegrees>
            </Position>
            <AltitudeMeters>7</AltitudeMeters>
            <DistanceMeters>NAN</DistanceMeters>
          </Trackpoint>
          <Trackpoint>
            <Time>2022-07-09T08:23:30.000Z</Time>
            <Position>
              <LatitudeDegrees>43.331201970577239990234375</LatitudeDegrees>
              <LongitudeDegrees>-1.92571635358035564422607421875</LongitudeDegrees>
            </Position>
            <AltitudeMeters>7.19999980926513671875</AltitudeMeters>
            <DistanceMeters>NAN</DistanceMeters>
          </Trackpoint>
          <Trackpoint>
            <Time>2022-07-09T08:23:34.000Z</Time>
            <Position>
              <LatitudeDegrees>43.3310747332870960235595703125</LatitudeDegrees>
              <LongitudeDegrees>-1.9256986677646636962890625</LongitudeDegrees>
            </Position>
            <AltitudeMeters>7.19999980926513671875</AltitudeMeters>
            <DistanceMeters>NAN</DistanceMeters>
          </Trackpoint>
          <Trackpoint>
            <Time>2022-07-09T08:23:36.000Z</Time>
            <Position>
              <LatitudeDegrees>43.3310133777558803558349609375</LatitudeDegrees>
              <LongitudeDegrees>-1.925705708563327789306640625</LongitudeDegrees>
            </Position>
            <AltitudeMeters>7.19999980926513671875</AltitudeMeters>
            <DistanceMeters>NAN</DistanceMeters>
          </Trackpoint>
          <Trackpoint>
            <Time>2022-07-09T08:23:39.000Z</Time>
            <Position>
              <LatitudeDegrees>43.33091472275555133819580078125</LatitudeDegrees>
              <LongitudeDegrees>-1.925714425742626190185546875</LongitudeDegrees>
            </Position>
            <AltitudeMeters>7</AltitudeMeters>
            <DistanceMeters>NAN</DistanceMeters>
          </Trackpoint>
          <Trackpoint>
            <Time>2022-07-09T08:23:42.000Z</Time>
            <Position>
              <LatitudeDegrees>43.33081430755555629730224609375</LatitudeDegrees>
              <LongitudeDegrees>-1.92572557367384433746337890625</LongitudeDegrees>
            </Position>
            <AltitudeMeters>7</AltitudeMeters>
            <DistanceMeters>NAN</DistanceMeters>
          </Trackpoint>
          <Trackpoint>
            <Time>2022-07-09T08:23:43.000Z</Time>
            <Position>
              <LatitudeDegrees>43.3307783491909503936767578125</LatitudeDegrees>
              <LongitudeDegrees>-1.9257239811122417449951171875</LongitudeDegrees>
            </Position>
            <AltitudeMeters>6.80000019073486328125</AltitudeMeters>
            <DistanceMeters>NAN</DistanceMeters>
          </Trackpoint>
          <Trackpoint>
            <Time>2022-07-09T08:23:46.000Z</Time>
            <Position>
              <LatitudeDegrees>43.33066561259329319000244140625</LatitudeDegrees>
              <LongitudeDegrees>-1.92572037689387798309326171875</LongitudeDegrees>
            </Position>
            <AltitudeMeters>6.80000019073486328125</AltitudeMeters>
            <DistanceMeters>NAN</DistanceMeters>
          </Trackpoint>
          <Trackpoint>
            <Time>2022-07-09T08:23:49.000Z</Time>
            <Position>
              <LatitudeDegrees>43.33054759539663791656494140625</LatitudeDegrees>
              <LongitudeDegrees>-1.9257098995149135589599609375</LongitudeDegrees>
            </Position>
            <AltitudeMeters>6.599999904632568359375</AltitudeMeters>
            <DistanceMeters>NAN</DistanceMeters>
          </Trackpoint>
          <Trackpoint>
            <Time>2022-07-09T08:23:52.000Z</Time>
            <Position>
              <LatitudeDegrees>43.33041750825941562652587890625</LatitudeDegrees>
              <LongitudeDegrees>-1.92572104744613170623779296875</LongitudeDegrees>
            </Position>
            <AltitudeMeters>6.19999980926513671875</AltitudeMeters>
            <DistanceMeters>NAN</DistanceMeters>
          </Trackpoint>
          <Trackpoint>
            <Time>2022-07-09T08:23:54.000Z</Time>
            <Position>
              <LatitudeDegrees>43.33032765425741672515869140625</LatitudeDegrees>
              <LongitudeDegrees>-1.9257427565753459930419921875</LongitudeDegrees>
            </Position>
            <AltitudeMeters>5.80000019073486328125</AltitudeMeters>
            <DistanceMeters>NAN</DistanceMeters>
          </Trackpoint>
          <Trackpoint>
            <Time>2022-07-09T08:23:59.000Z</Time>
            <Position>
              <LatitudeDegrees>43.3301252312958240509033203125</LatitudeDegrees>
              <LongitudeDegrees>-1.92582548595964908599853515625</LongitudeDegrees>
            </Position>
            <AltitudeMeters>5.400000095367431640625</AltitudeMeters>
            <DistanceMeters>NAN</DistanceMeters>
          </Trackpoint>
          <Trackpoint>
            <Time>2022-07-09T08:24:03.000Z</Time>
            <Position>
              <LatitudeDegrees>43.3299827389419078826904296875</LatitudeDegrees>
              <LongitudeDegrees>-1.925889439880847930908203125</LongitudeDegrees>
            </Position>
            <AltitudeMeters>5</AltitudeMeters>
            <DistanceMeters>NAN</DistanceMeters>
          </Trackpoint>
          <Trackpoint>
            <Time>2022-07-09T08:24:06.000Z</Time>
            <Position>
              <LatitudeDegrees>43.32989632152020931243896484375</LatitudeDegrees>
              <LongitudeDegrees>-1.92595280706882476806640625</LongitudeDegrees>
            </Position>
            <AltitudeMeters>5</AltitudeMeters>
            <DistanceMeters>NAN</DistanceMeters>
          </Trackpoint>
          <Trackpoint>
            <Time>2022-07-09T08:24:07.000Z</Time>
            <Position>
              <LatitudeDegrees>43.32987151108682155609130859375</LatitudeDegrees>
              <LongitudeDegrees>-1.9259710796177387237548828125</LongitudeDegrees>
            </Position>
            <AltitudeMeters>4.80000019073486328125</AltitudeMeters>
            <DistanceMeters>NAN</DistanceMeters>
          </Trackpoint>
          <Trackpoint>
            <Time>2022-07-09T08:24:11.000Z</Time>
            <Position>
              <LatitudeDegrees>43.32978048361837863922119140625</LatitudeDegrees>
              <LongitudeDegrees>-1.92600854672491550445556640625</LongitudeDegrees>
            </Position>
            <AltitudeMeters>4.599999904632568359375</AltitudeMeters>
            <DistanceMeters>NAN</DistanceMeters>
          </Trackpoint>
          <Trackpoint>
            <Time>2022-07-09T08:24:16.000Z</Time>
            <Position>
              <LatitudeDegrees>43.32967436872422695159912109375</LatitudeDegrees>
              <LongitudeDegrees>-1.9260123185813426971435546875</LongitudeDegrees>
            </Position>
            <AltitudeMeters>4.599999904632568359375</AltitudeMeters>
            <DistanceMeters>NAN</DistanceMeters>
          </Trackpoint>
          <Trackpoint>
            <Time>2022-07-09T08:24:22.000Z</Time>
            <Position>
              <LatitudeDegrees>43.32957814447581768035888671875</LatitudeDegrees>
              <LongitudeDegrees>-1.9261249713599681854248046875</LongitudeDegrees>
            </Position>
            <AltitudeMeters>4.80000019073486328125</AltitudeMeters>
            <DistanceMeters>NAN</DistanceMeters>
          </Trackpoint>
          <Trackpoint>
            <Time>2022-07-09T08:24:24.000Z</Time>
            <Position>
              <LatitudeDegrees>43.32955576479434967041015625</LatitudeDegrees>
              <LongitudeDegrees>-1.92614885978400707244873046875</LongitudeDegrees>
            </Position>
            <AltitudeMeters>4.80000019073486328125</AltitudeMeters>
            <DistanceMeters>NAN</DistanceMeters>
          </Trackpoint>
          <Trackpoint>
            <Time>2022-07-09T08:24:31.000Z</Time>
            <Position>
              <LatitudeDegrees>43.32943372428417205810546875</LatitudeDegrees>
              <LongitudeDegrees>-1.9262297451496124267578125</LongitudeDegrees>
            </Position>
            <AltitudeMeters>5</AltitudeMeters>
            <DistanceMeters>NAN</DistanceMeters>
          </Trackpoint>
          <Trackpoint>
            <Time>2022-07-09T08:24:37.000Z</Time>
            <Position>
              <LatitudeDegrees>43.32934160716831684112548828125</LatitudeDegrees>
              <LongitudeDegrees>-1.92624206654727458953857421875</LongitudeDegrees>
            </Position>
            <AltitudeMeters>5.19999980926513671875</AltitudeMeters>
            <DistanceMeters>NAN</DistanceMeters>
          </Trackpoint>
          <Trackpoint>
            <Time>2022-07-09T08:24:43.000Z</Time>
            <Position>
              <LatitudeDegrees>43.3292525075376033782958984375</LatitudeDegrees>
              <LongitudeDegrees>-1.92622815258800983428955078125</LongitudeDegrees>
            </Position>
            <AltitudeMeters>5.19999980926513671875</AltitudeMeters>
            <DistanceMeters>NAN</DistanceMeters>
          </Trackpoint>
          <Trackpoint>
            <Time>2022-07-09T08:24:49.000Z</Time>
            <Position>
              <LatitudeDegrees>43.32921512424945831298828125</LatitudeDegrees>
              <LongitudeDegrees>-1.92618347704410552978515625</LongitudeDegrees>
            </Position>
            <AltitudeMeters>5.19999980926513671875</AltitudeMeters>
            <DistanceMeters>NAN</DistanceMeters>
          </Trackpoint>
          <Trackpoint>
            <Time>2022-07-09T08:24:54.000Z</Time>
            <Position>
              <LatitudeDegrees>43.32922174595296382904052734375</LatitudeDegrees>
              <LongitudeDegrees>-1.9261801242828369140625</LongitudeDegrees>
            </Position>
            <AltitudeMeters>5</AltitudeMeters>
            <DistanceMeters>NAN</DistanceMeters>
          </Trackpoint>
          <Trackpoint>
            <Time>2022-07-09T08:25:44.000Z</Time>
            <Position>
              <LatitudeDegrees>43.329174220561981201171875</LatitudeDegrees>
              <LongitudeDegrees>-1.92615372128784656524658203125</LongitudeDegrees>
            </Position>
            <AltitudeMeters>5.80000019073486328125</AltitudeMeters>
            <DistanceMeters>NAN</DistanceMeters>
          </Trackpoint>
          <Trackpoint>
            <Time>2022-07-09T08:25:45.000Z</Time>
            <Position>
              <LatitudeDegrees>43.329158462584018707275390625</LatitudeDegrees>
              <LongitudeDegrees>-1.9261434115469455718994140625</LongitudeDegrees>
            </Position>
            <AltitudeMeters>5.80000019073486328125</AltitudeMeters>
            <DistanceMeters>NAN</DistanceMeters>
          </Trackpoint>
          <Trackpoint>
            <Time>2022-07-09T08:25:49.000Z</Time>
            <Position>
              <LatitudeDegrees>43.3290764875710010528564453125</LatitudeDegrees>
              <LongitudeDegrees>-1.9260518811643123626708984375</LongitudeDegrees>
            </Position>
            <AltitudeMeters>6.19999980926513671875</AltitudeMeters>
            <DistanceMeters>NAN</DistanceMeters>
          </Trackpoint>
          <Trackpoint>
            <Time>2022-07-09T08:25:50.000Z</Time>
            <Position>
              <LatitudeDegrees>43.32906483672559261322021484375</LatitudeDegrees>
              <LongitudeDegrees>-1.9260166771709918975830078125</LongitudeDegrees>
            </Position>
            <AltitudeMeters>6.400000095367431640625</AltitudeMeters>
            <DistanceMeters>NAN</DistanceMeters>
          </Trackpoint>
          <Trackpoint>
            <Time>2022-07-09T08:25:53.000Z</Time>
            <Position>
              <LatitudeDegrees>43.3290489949285984039306640625</LatitudeDegrees>
              <LongitudeDegrees>-1.92588575184345245361328125</LongitudeDegrees>
            </Position>
            <AltitudeMeters>6.599999904632568359375</AltitudeMeters>
            <DistanceMeters>NAN</DistanceMeters>
          </Trackpoint>
          <Trackpoint>
            <Time>2022-07-09T08:25:54.000Z</Time>
            <Position>
              <LatitudeDegrees>43.32903047092258930206298828125</LatitudeDegrees>
              <LongitudeDegrees>-1.92584107629954814910888671875</LongitudeDegrees>
            </Position>
            <AltitudeMeters>6.599999904632568359375</AltitudeMeters>
            <DistanceMeters>NAN</DistanceMeters>
          </Trackpoint>
          <Trackpoint>
            <Time>2022-07-09T08:25:56.000Z</Time>
            <Position>
              <LatitudeDegrees>43.32899384200572967529296875</LatitudeDegrees>
              <LongitudeDegrees>-1.9257253222167491912841796875</LongitudeDegrees>
            </Position>
            <AltitudeMeters>6.400000095367431640625</AltitudeMeters>
            <DistanceMeters>NAN</DistanceMeters>
          </Trackpoint>
          <Trackpoint>
            <Time>2022-07-09T08:26:01.000Z</Time>
            <Position>
              <LatitudeDegrees>43.3288558758795261383056640625</LatitudeDegrees>
              <LongitudeDegrees>-1.92553698085248470306396484375</LongitudeDegrees>
            </Position>
            <AltitudeMeters>4.19999980926513671875</AltitudeMeters>
            <DistanceMeters>NAN</DistanceMeters>
          </Trackpoint>
          <Trackpoint>
            <Time>2022-07-09T08:26:05.000Z</Time>
            <Position>
              <LatitudeDegrees>43.32883802242577075958251953125</LatitudeDegrees>
              <LongitudeDegrees>-1.9253494776785373687744140625</LongitudeDegrees>
            </Position>
            <AltitudeMeters>4.19999980926513671875</AltitudeMeters>
            <DistanceMeters>NAN</DistanceMeters>
          </Trackpoint>
          <Trackpoint>
            <Time>2022-07-09T08:26:07.000Z</Time>
            <Position>
              <LatitudeDegrees>43.3288374356925487518310546875</LatitudeDegrees>
              <LongitudeDegrees>-1.92525685764849185943603515625</LongitudeDegrees>
            </Position>
            <AltitudeMeters>4.400000095367431640625</AltitudeMeters>
            <DistanceMeters>NAN</DistanceMeters>
          </Trackpoint>
          <Trackpoint>
            <Time>2022-07-09T08:26:08.000Z</Time>
            <Position>
              <LatitudeDegrees>43.328844644129276275634765625</LatitudeDegrees>
              <LongitudeDegrees>-1.92520690150558948516845703125</LongitudeDegrees>
            </Position>
            <AltitudeMeters>4.400000095367431640625</AltitudeMeters>
            <DistanceMeters>NAN</DistanceMeters>
          </Trackpoint>
          <Trackpoint>
            <Time>2022-07-09T08:26:14.000Z</Time>
            <Position>
              <LatitudeDegrees>43.3288751542568206787109375</LatitudeDegrees>
              <LongitudeDegrees>-1.92492007277905941009521484375</LongitudeDegrees>
            </Position>
            <AltitudeMeters>4.19999980926513671875</AltitudeMeters>
            <DistanceMeters>NAN</DistanceMeters>
          </Trackpoint>
          <Trackpoint>
            <Time>2022-07-09T08:26:17.000Z</Time>
            <Position>
              <LatitudeDegrees>43.32889284007251262664794921875</LatitudeDegrees>
              <LongitudeDegrees>-1.92480272613465785980224609375</LongitudeDegrees>
            </Position>
            <AltitudeMeters>4</AltitudeMeters>
            <DistanceMeters>NAN</DistanceMeters>
          </Trackpoint>
          <Trackpoint>
            <Time>2022-07-09T08:26:21.000Z</Time>
            <Position>
              <LatitudeDegrees>43.32892787642776966094970703125</LatitudeDegrees>
              <LongitudeDegrees>-1.924616061151027679443359375</LongitudeDegrees>
            </Position>
            <AltitudeMeters>4.400000095367431640625</AltitudeMeters>
            <DistanceMeters>NAN</DistanceMeters>
          </Trackpoint>
          <Trackpoint>
            <Time>2022-07-09T08:26:25.000Z</Time>
            <Position>
              <LatitudeDegrees>43.3289145492017269134521484375</LatitudeDegrees>
              <LongitudeDegrees>-1.92443040199577808380126953125</LongitudeDegrees>
            </Position>
            <AltitudeMeters>4.599999904632568359375</AltitudeMeters>
            <DistanceMeters>NAN</DistanceMeters>
          </Trackpoint>
          <Trackpoint>
            <Time>2022-07-09T08:26:27.000Z</Time>
            <Position>
              <LatitudeDegrees>43.32890641875565052032470703125</LatitudeDegrees>
              <LongitudeDegrees>-1.924337111413478851318359375</LongitudeDegrees>
            </Position>
            <AltitudeMeters>4.599999904632568359375</AltitudeMeters>
            <DistanceMeters>NAN</DistanceMeters>
          </Trackpoint>
          <Trackpoint>
            <Time>2022-07-09T08:26:30.000Z</Time>
            <Position>
              <LatitudeDegrees>43.32889585755765438079833984375</LatitudeDegrees>
              <LongitudeDegrees>-1.92419352941215038299560546875</LongitudeDegrees>
            </Position>
            <AltitudeMeters>4.599999904632568359375</AltitudeMeters>
            <DistanceMeters>NAN</DistanceMeters>
          </Trackpoint>
          <Trackpoint>
            <Time>2022-07-09T08:26:33.000Z</Time>
            <Position>
              <LatitudeDegrees>43.328845985233783721923828125</LatitudeDegrees>
              <LongitudeDegrees>-1.92403209395706653594970703125</LongitudeDegrees>
            </Position>
            <AltitudeMeters>4.599999904632568359375</AltitudeMeters>
            <DistanceMeters>NAN</DistanceMeters>
          </Trackpoint>
          <Trackpoint>
            <Time>2022-07-09T08:26:35.000Z</Time>
            <Position>
              <LatitudeDegrees>43.32882293500006198883056640625</LatitudeDegrees>
              <LongitudeDegrees>-1.9239299185574054718017578125</LongitudeDegrees>
            </Position>
            <AltitudeMeters>4.599999904632568359375</AltitudeMeters>
            <DistanceMeters>NAN</DistanceMeters>
          </Trackpoint>
          <Trackpoint>
            <Time>2022-07-09T08:26:42.000Z</Time>
            <Position>
              <LatitudeDegrees>43.32868765108287334442138671875</LatitudeDegrees>
              <LongitudeDegrees>-1.9236435927450656890869140625</LongitudeDegrees>
            </Position>
            <AltitudeMeters>4.400000095367431640625</AltitudeMeters>
            <DistanceMeters>NAN</DistanceMeters>
          </Trackpoint>
          <Trackpoint>
            <Time>2022-07-09T08:26:44.000Z</Time>
            <Position>
              <LatitudeDegrees>43.32863803021609783172607421875</LatitudeDegrees>
              <LongitudeDegrees>-1.92357276566326618194580078125</LongitudeDegrees>
            </Position>
            <AltitudeMeters>4.19999980926513671875</AltitudeMeters>
            <DistanceMeters>NAN</DistanceMeters>
          </Trackpoint>
          <Trackpoint>
            <Time>2022-07-09T08:26:46.000Z</Time>
            <Position>
              <LatitudeDegrees>43.32859578542411327362060546875</LatitudeDegrees>
              <LongitudeDegrees>-1.92350805737078189849853515625</LongitudeDegrees>
            </Position>
            <AltitudeMeters>4.19999980926513671875</AltitudeMeters>
            <DistanceMeters>NAN</DistanceMeters>
          </Trackpoint>
          <Trackpoint>
            <Time>2022-07-09T08:26:48.000Z</Time>
            <Position>
              <LatitudeDegrees>43.3285547979176044464111328125</LatitudeDegrees>
              <LongitudeDegrees>-1.923449970781803131103515625</LongitudeDegrees>
            </Position>
            <AltitudeMeters>4.19999980926513671875</AltitudeMeters>
            <DistanceMeters>NAN</DistanceMeters>
          </Trackpoint>
          <Trackpoint>
            <Time>2022-07-09T08:26:50.000Z</Time>
            <Position>
              <LatitudeDegrees>43.32851104438304901123046875</LatitudeDegrees>
              <LongitudeDegrees>-1.9233951531350612640380859375</LongitudeDegrees>
            </Position>
            <AltitudeMeters>4</AltitudeMeters>
            <DistanceMeters>NAN</DistanceMeters>
          </Trackpoint>
          <Trackpoint>
            <Time>2022-07-09T08:26:53.000Z</Time>
            <Position>
              <LatitudeDegrees>43.3284434862434864044189453125</LatitudeDegrees>
              <LongitudeDegrees>-1.92330873571336269378662109375</LongitudeDegrees>
            </Position>
            <AltitudeMeters>4</AltitudeMeters>
            <DistanceMeters>NAN</DistanceMeters>
          </Trackpoint>
          <Trackpoint>
            <Time>2022-07-09T08:27:00.000Z</Time>
            <Position>
              <LatitudeDegrees>43.3282667957246303558349609375</LatitudeDegrees>
              <LongitudeDegrees>-1.92314059473574161529541015625</LongitudeDegrees>
            </Position>
            <AltitudeMeters>3.7999999523162841796875</AltitudeMeters>
            <DistanceMeters>NAN</DistanceMeters>
          </Trackpoint>
          <Trackpoint>
            <Time>2022-07-09T08:27:03.000Z</Time>
            <Position>
              <LatitudeDegrees>43.32819647155702114105224609375</LatitudeDegrees>
              <LongitudeDegrees>-1.923132799565792083740234375</LongitudeDegrees>
            </Position>
            <AltitudeMeters>3.599999904632568359375</AltitudeMeters>
            <DistanceMeters>NAN</DistanceMeters>
          </Trackpoint>
          <Trackpoint>
            <Time>2022-07-09T08:27:05.000Z</Time>
            <Position>
              <LatitudeDegrees>43.3281491138041019439697265625</LatitudeDegrees>
              <LongitudeDegrees>-1.92314947955310344696044921875</LongitudeDegrees>
            </Position>
            <AltitudeMeters>3.599999904632568359375</AltitudeMeters>
            <DistanceMeters>NAN</DistanceMeters>
          </Trackpoint>
          <Trackpoint>
            <Time>2022-07-09T08:27:13.000Z</Time>
            <Position>
              <LatitudeDegrees>43.32793042995035648345947265625</LatitudeDegrees>
              <LongitudeDegrees>-1.92320664413273334503173828125</LongitudeDegrees>
            </Position>
            <AltitudeMeters>3.599999904632568359375</AltitudeMeters>
            <DistanceMeters>NAN</DistanceMeters>
          </Trackpoint>
          <Trackpoint>
            <Time>2022-07-09T08:27:19.000Z</Time>
            <Position>
              <LatitudeDegrees>43.3277843333780765533447265625</LatitudeDegrees>
              <LongitudeDegrees>-1.923162639141082763671875</LongitudeDegrees>
            </Position>
            <AltitudeMeters>3.599999904632568359375</AltitudeMeters>
            <DistanceMeters>NAN</DistanceMeters>
          </Trackpoint>
          <Trackpoint>
            <Time>2022-07-09T08:27:23.000Z</Time>
            <Position>
              <LatitudeDegrees>43.3276700042188167572021484375</LatitudeDegrees>
              <LongitudeDegrees>-1.92309700883924961090087890625</LongitudeDegrees>
            </Position>
            <AltitudeMeters>3.400000095367431640625</AltitudeMeters>
            <DistanceMeters>NAN</DistanceMeters>
          </Trackpoint>
          <Trackpoint>
            <Time>2022-07-09T08:27:25.000Z</Time>
            <Position>
              <LatitudeDegrees>43.32762189209461212158203125</LatitudeDegrees>
              <LongitudeDegrees>-1.9230538420379161834716796875</LongitudeDegrees>
            </Position>
            <AltitudeMeters>3.400000095367431640625</AltitudeMeters>
            <DistanceMeters>NAN</DistanceMeters>
          </Trackpoint>
          <Trackpoint>
            <Time>2022-07-09T08:27:29.000Z</Time>
            <Position>
              <LatitudeDegrees>43.32749825902283191680908203125</LatitudeDegrees>
              <LongitudeDegrees>-1.92300497554242610931396484375</LongitudeDegrees>
            </Position>
            <AltitudeMeters>3.2000000476837158203125</AltitudeMeters>
            <DistanceMeters>NAN</DistanceMeters>
          </Trackpoint>
          <Trackpoint>
            <Time>2022-07-09T08:27:30.000Z</Time>
            <Position>
              <LatitudeDegrees>43.3274678327143192291259765625</LatitudeDegrees>
              <LongitudeDegrees>-1.92299340851604938507080078125</LongitudeDegrees>
            </Position>
            <AltitudeMeters>3.2000000476837158203125</AltitudeMeters>
            <DistanceMeters>NAN</DistanceMeters>
          </Trackpoint>
          <Trackpoint>
            <Time>2022-07-09T08:27:34.000Z</Time>
            <Position>
              <LatitudeDegrees>43.3273665793240070343017578125</LatitudeDegrees>
              <LongitudeDegrees>-1.922926940023899078369140625</LongitudeDegrees>
            </Position>
            <AltitudeMeters>3</AltitudeMeters>
            <DistanceMeters>NAN</DistanceMeters>
          </Trackpoint>
          <Trackpoint>
            <Time>2022-07-09T08:27:38.000Z</Time>
            <Position>
              <LatitudeDegrees>43.32727882079780101776123046875</LatitudeDegrees>
              <LongitudeDegrees>-1.92285829223692417144775390625</LongitudeDegrees>
            </Position>
            <AltitudeMeters>2.7999999523162841796875</AltitudeMeters>
            <DistanceMeters>NAN</DistanceMeters>
          </Trackpoint>
          <Trackpoint>
            <Time>2022-07-09T08:27:39.000Z</Time>
            <Position>
              <LatitudeDegrees>43.32725551910698413848876953125</LatitudeDegrees>
              <LongitudeDegrees>-1.9228503294289112091064453125</LongitudeDegrees>
            </Position>
            <AltitudeMeters>2.7999999523162841796875</AltitudeMeters>
            <DistanceMeters>NAN</DistanceMeters>
          </Trackpoint>
          <Trackpoint>
            <Time>2022-07-09T08:27:46.000Z</Time>
            <Position>
              <LatitudeDegrees>43.32713238894939422607421875</LatitudeDegrees>
              <LongitudeDegrees>-1.92278218455612659454345703125</LongitudeDegrees>
            </Position>
            <AltitudeMeters>2.2000000476837158203125</AltitudeMeters>
            <DistanceMeters>NAN</DistanceMeters>
          </Trackpoint>
          <Trackpoint>
            <Time>2022-07-09T08:27:51.000Z</Time>
            <Position>
              <LatitudeDegrees>43.32711017690598964691162109375</LatitudeDegrees>
              <LongitudeDegrees>-1.92276097834110260009765625</LongitudeDegrees>
            </Position>
            <AltitudeMeters>2.2000000476837158203125</AltitudeMeters>
            <DistanceMeters>NAN</DistanceMeters>
          </Trackpoint>
          <Trackpoint>
            <Time>2022-07-09T08:27:52.000Z</Time>
            <Position>
              <LatitudeDegrees>43.32711017690598964691162109375</LatitudeDegrees>
              <LongitudeDegrees>-1.92276097834110260009765625</LongitudeDegrees>
            </Position>
            <AltitudeMeters>2</AltitudeMeters>
            <DistanceMeters>NAN</DistanceMeters>
          </Trackpoint>
          <Trackpoint>
            <Time>2022-07-09T08:39:53.000Z</Time>
            <Position>
              <LatitudeDegrees>43.327056281268596649169921875</LatitudeDegrees>
              <LongitudeDegrees>-1.92271932028234004974365234375</LongitudeDegrees>
            </Position>
            <AltitudeMeters>-0.60000002384185791015625</AltitudeMeters>
            <DistanceMeters>NAN</DistanceMeters>
          </Trackpoint>
          <Trackpoint>
            <Time>2022-07-09T08:39:54.000Z</Time>
            <Position>
              <LatitudeDegrees>43.3270561136305332183837890625</LatitudeDegrees>
              <LongitudeDegrees>-1.92273558117449283599853515625</LongitudeDegrees>
            </Position>
            <AltitudeMeters>-0.60000002384185791015625</AltitudeMeters>
            <DistanceMeters>NAN</DistanceMeters>
          </Trackpoint>
          <Trackpoint>
            <Time>2022-07-09T08:39:56.000Z</Time>
            <Position>
              <LatitudeDegrees>43.32706038840115070343017578125</LatitudeDegrees>
              <LongitudeDegrees>-1.92277346737682819366455078125</LongitudeDegrees>
            </Position>
            <AltitudeMeters>-0.60000002384185791015625</AltitudeMeters>
            <DistanceMeters>NAN</DistanceMeters>
          </Trackpoint>
          <Trackpoint>
            <Time>2022-07-09T08:40:00.000Z</Time>
            <Position>
              <LatitudeDegrees>43.32705988548696041107177734375</LatitudeDegrees>
              <LongitudeDegrees>-1.92281059920787811279296875</LongitudeDegrees>
            </Position>
            <AltitudeMeters>-0.60000002384185791015625</AltitudeMeters>
            <DistanceMeters>NAN</DistanceMeters>
          </Trackpoint>
          <Trackpoint>
            <Time>2022-07-09T08:46:49.000Z</Time>
            <Position>
              <LatitudeDegrees>43.3270665071904659271240234375</LatitudeDegrees>
              <LongitudeDegrees>-1.92273390479385852813720703125</LongitudeDegrees>
            </Position>
            <AltitudeMeters>-0.60000002384185791015625</AltitudeMeters>
            <DistanceMeters>NAN</DistanceMeters>
          </Trackpoint>
          <Trackpoint>
            <Time>2022-07-09T08:46:52.000Z</Time>
            <Position>
              <LatitudeDegrees>43.32706265151500701904296875</LatitudeDegrees>
              <LongitudeDegrees>-1.922761313617229461669921875</LongitudeDegrees>
            </Position>
            <AltitudeMeters>-0.60000002384185791015625</AltitudeMeters>
            <DistanceMeters>NAN</DistanceMeters>
          </Trackpoint>
          <Trackpoint>
            <Time>2022-07-09T08:46:53.000Z</Time>
            <Position>
              <LatitudeDegrees>43.32706541754305362701416015625</LatitudeDegrees>
              <LongitudeDegrees>-1.922770030796527862548828125</LongitudeDegrees>
            </Position>
            <AltitudeMeters>-0.800000011920928955078125</AltitudeMeters>
            <DistanceMeters>NAN</DistanceMeters>
          </Trackpoint>
          <Trackpoint>
            <Time>2022-07-09T08:46:57.000Z</Time>
            <Position>
              <LatitudeDegrees>43.3270561136305332183837890625</LatitudeDegrees>
              <LongitudeDegrees>-1.9228352420032024383544921875</LongitudeDegrees>
            </Position>
            <AltitudeMeters>-1</AltitudeMeters>
            <DistanceMeters>NAN</DistanceMeters>
          </Trackpoint>
          <Trackpoint>
            <Time>2022-07-09T08:57:15.000Z</Time>
            <Position>
              <LatitudeDegrees>43.32705703563988208770751953125</LatitudeDegrees>
              <LongitudeDegrees>-1.92283784039318561553955078125</LongitudeDegrees>
            </Position>
            <AltitudeMeters>-1</AltitudeMeters>
            <DistanceMeters>NAN</DistanceMeters>
          </Trackpoint>
          <Trackpoint>
            <Time>2022-07-09T08:57:16.000Z</Time>
            <Position>
              <LatitudeDegrees>43.32709089852869510650634765625</LatitudeDegrees>
              <LongitudeDegrees>-1.92341082729399204254150390625</LongitudeDegrees>
            </Position>
            <AltitudeMeters>-1</AltitudeMeters>
            <DistanceMeters>NAN</DistanceMeters>
          </Trackpoint>
          <Trackpoint>
            <Time>2022-07-09T08:57:18.000Z</Time>
            <Position>
              <LatitudeDegrees>43.3271499909460544586181640625</LatitudeDegrees>
              <LongitudeDegrees>-1.922998018562793731689453125</LongitudeDegrees>
            </Position>
            <AltitudeMeters>-1</AltitudeMeters>
            <DistanceMeters>NAN</DistanceMeters>
          </Trackpoint>
          <Trackpoint>
            <Time>2022-07-09T08:57:33.000Z</Time>
            <Position>
              <LatitudeDegrees>43.32710648886859416961669921875</LatitudeDegrees>
              <LongitudeDegrees>-1.92277732305228710174560546875</LongitudeDegrees>
            </Position>
            <AltitudeMeters>0</AltitudeMeters>
            <DistanceMeters>NAN</DistanceMeters>
          </Trackpoint>
          <Trackpoint>
            <Time>2022-07-09T08:57:35.000Z</Time>
            <Position>
              <LatitudeDegrees>43.3271144516766071319580078125</LatitudeDegrees>
              <LongitudeDegrees>-1.92271529696881771087646484375</LongitudeDegrees>
            </Position>
            <AltitudeMeters>0</AltitudeMeters>
            <DistanceMeters>NAN</DistanceMeters>
          </Trackpoint>
          <Trackpoint>
            <Time>2022-07-09T08:57:39.000Z</Time>
            <Position>
              <LatitudeDegrees>43.32715250551700592041015625</LatitudeDegrees>
              <LongitudeDegrees>-1.92250088788568973541259765625</LongitudeDegrees>
            </Position>
            <AltitudeMeters>-0.4000000059604644775390625</AltitudeMeters>
            <DistanceMeters>NAN</DistanceMeters>
          </Trackpoint>
          <Trackpoint>
            <Time>2022-07-09T08:57:44.000Z</Time>
            <Position>
              <LatitudeDegrees>43.3272083289921283721923828125</LatitudeDegrees>
              <LongitudeDegrees>-1.922556795179843902587890625</LongitudeDegrees>
            </Position>
            <AltitudeMeters>0</AltitudeMeters>
            <DistanceMeters>NAN</DistanceMeters>
          </Trackpoint>
          <Trackpoint>
            <Time>2022-07-09T08:57:46.000Z</Time>
            <Position>
              <LatitudeDegrees>43.327181339263916015625</LatitudeDegrees>
              <LongitudeDegrees>-1.922555454075336456298828125</LongitudeDegrees>
            </Position>
            <AltitudeMeters>0</AltitudeMeters>
            <DistanceMeters>NAN</DistanceMeters>
          </Trackpoint>
          <Trackpoint>
            <Time>2022-07-09T09:01:23.000Z</Time>
            <Position>
              <LatitudeDegrees>43.32707899622619152069091796875</LatitudeDegrees>
              <LongitudeDegrees>-1.922792829573154449462890625</LongitudeDegrees>
            </Position>
            <AltitudeMeters>-2.7999999523162841796875</AltitudeMeters>
            <DistanceMeters>NAN</DistanceMeters>
          </Trackpoint>
          <Trackpoint>
            <Time>2022-07-09T09:01:24.000Z</Time>
            <Position>
              <LatitudeDegrees>43.32708016969263553619384765625</LatitudeDegrees>
              <LongitudeDegrees>-1.92280313931405544281005859375</LongitudeDegrees>
            </Position>
            <AltitudeMeters>-2.7999999523162841796875</AltitudeMeters>
            <DistanceMeters>NAN</DistanceMeters>
          </Trackpoint>
          <Trackpoint>
            <Time>2022-07-09T09:01:25.000Z</Time>
            <Position>
              <LatitudeDegrees>43.32707899622619152069091796875</LatitudeDegrees>
              <LongitudeDegrees>-1.9228112697601318359375</LongitudeDegrees>
            </Position>
            <AltitudeMeters>-2.7999999523162841796875</AltitudeMeters>
            <DistanceMeters>NAN</DistanceMeters>
          </Trackpoint>
          <Trackpoint>
            <Time>2022-07-09T09:01:26.000Z</Time>
            <Position>
              <LatitudeDegrees>43.3270752243697643280029296875</LatitudeDegrees>
              <LongitudeDegrees>-1.92281998693943023681640625</LongitudeDegrees>
            </Position>
            <AltitudeMeters>-2.599999904632568359375</AltitudeMeters>
            <DistanceMeters>NAN</DistanceMeters>
          </Trackpoint>
          <Trackpoint>
            <Time>2022-07-09T09:05:30.000Z</Time>
            <Position>
              <LatitudeDegrees>43.32710380665957927703857421875</LatitudeDegrees>
              <LongitudeDegrees>-1.92284354008734226226806640625</LongitudeDegrees>
            </Position>
            <AltitudeMeters>0</AltitudeMeters>
            <DistanceMeters>NAN</DistanceMeters>
          </Trackpoint>
          <Trackpoint>
            <Time>2022-07-09T09:05:31.000Z</Time>
            <Position>
              <LatitudeDegrees>43.3270631544291973114013671875</LatitudeDegrees>
              <LongitudeDegrees>-1.922821663320064544677734375</LongitudeDegrees>
            </Position>
            <AltitudeMeters>0</AltitudeMeters>
            <DistanceMeters>NAN</DistanceMeters>
          </Trackpoint>
          <Trackpoint>
            <Time>2022-07-09T09:07:06.000Z</Time>
            <Position>
              <LatitudeDegrees>43.32702451385557651519775390625</LatitudeDegrees>
              <LongitudeDegrees>-1.9226253591477870941162109375</LongitudeDegrees>
            </Position>
            <AltitudeMeters>0.800000011920928955078125</AltitudeMeters>
            <DistanceMeters>NAN</DistanceMeters>
          </Trackpoint>
          <Trackpoint>
            <Time>2022-07-09T09:07:07.000Z</Time>
            <Position>
              <LatitudeDegrees>43.32701747305691242218017578125</LatitudeDegrees>
              <LongitudeDegrees>-1.92260297946631908416748046875</LongitudeDegrees>
            </Position>
            <AltitudeMeters>0.800000011920928955078125</AltitudeMeters>
            <DistanceMeters>NAN</DistanceMeters>
          </Trackpoint>
          <Trackpoint>
            <Time>2022-07-09T09:07:08.000Z</Time>
            <Position>
              <LatitudeDegrees>43.3270098455250263214111328125</LatitudeDegrees>
              <LongitudeDegrees>-1.92257699556648731231689453125</LongitudeDegrees>
            </Position>
            <AltitudeMeters>0.800000011920928955078125</AltitudeMeters>
            <DistanceMeters>NAN</DistanceMeters>
          </Trackpoint>
          <Trackpoint>
            <Time>2022-07-09T09:07:16.000Z</Time>
            <Position>
              <LatitudeDegrees>43.326936922967433929443359375</LatitudeDegrees>
              <LongitudeDegrees>-1.92238722927868366241455078125</LongitudeDegrees>
            </Position>
            <AltitudeMeters>0.20000000298023223876953125</AltitudeMeters>
            <DistanceMeters>NAN</DistanceMeters>
          </Trackpoint>
          <Trackpoint>
            <Time>2022-07-09T09:07:19.000Z</Time>
            <Position>
              <LatitudeDegrees>43.3268797583878040313720703125</LatitudeDegrees>
              <LongitudeDegrees>-1.922331154346466064453125</LongitudeDegrees>
            </Position>
            <AltitudeMeters>0.20000000298023223876953125</AltitudeMeters>
            <DistanceMeters>NAN</DistanceMeters>
          </Trackpoint>
          <Trackpoint>
            <Time>2022-07-09T09:07:22.000Z</Time>
            <Position>
              <LatitudeDegrees>43.32683323882520198822021484375</LatitudeDegrees>
              <LongitudeDegrees>-1.92230978049337863922119140625</LongitudeDegrees>
            </Position>
            <AltitudeMeters>0.4000000059604644775390625</AltitudeMeters>
            <DistanceMeters>NAN</DistanceMeters>
          </Trackpoint>
          <Trackpoint>
            <Time>2022-07-09T09:07:29.000Z</Time>
            <Position>
              <LatitudeDegrees>43.3267205022275447845458984375</LatitudeDegrees>
              <LongitudeDegrees>-1.9222183339297771453857421875</LongitudeDegrees>
            </Position>
            <AltitudeMeters>0.4000000059604644775390625</AltitudeMeters>
            <DistanceMeters>NAN</DistanceMeters>
          </Trackpoint>
          <Trackpoint>
            <Time>2022-07-09T09:07:36.000Z</Time>
            <Position>
              <LatitudeDegrees>43.326635174453258514404296875</LatitudeDegrees>
              <LongitudeDegrees>-1.92207165062427520751953125</LongitudeDegrees>
            </Position>
            <AltitudeMeters>0.4000000059604644775390625</AltitudeMeters>
            <DistanceMeters>NAN</DistanceMeters>
          </Trackpoint>
          <Trackpoint>
            <Time>2022-07-09T09:07:40.000Z</Time>
            <Position>
              <LatitudeDegrees>43.32658521831035614013671875</LatitudeDegrees>
              <LongitudeDegrees>-1.92198716104030609130859375</LongitudeDegrees>
            </Position>
            <AltitudeMeters>0.20000000298023223876953125</AltitudeMeters>
            <DistanceMeters>NAN</DistanceMeters>
          </Trackpoint>
          <Trackpoint>
            <Time>2022-07-09T09:07:42.000Z</Time>
            <Position>
              <LatitudeDegrees>43.32656049169600009918212890625</LatitudeDegrees>
              <LongitudeDegrees>-1.92195069976150989532470703125</LongitudeDegrees>
            </Position>
            <AltitudeMeters>0.4000000059604644775390625</AltitudeMeters>
            <DistanceMeters>NAN</DistanceMeters>
          </Trackpoint>
          <Trackpoint>
            <Time>2022-07-09T09:07:46.000Z</Time>
            <Position>
              <LatitudeDegrees>43.32650969736278057098388671875</LatitudeDegrees>
              <LongitudeDegrees>-1.92187911830842494964599609375</LongitudeDegrees>
            </Position>
            <AltitudeMeters>0.4000000059604644775390625</AltitudeMeters>
            <DistanceMeters>NAN</DistanceMeters>
          </Trackpoint>
          <Trackpoint>
            <Time>2022-07-09T09:07:51.000Z</Time>
            <Position>
              <LatitudeDegrees>43.32642671652138233184814453125</LatitudeDegrees>
              <LongitudeDegrees>-1.9217972271144390106201171875</LongitudeDegrees>
            </Position>
            <AltitudeMeters>0.4000000059604644775390625</AltitudeMeters>
            <DistanceMeters>NAN</DistanceMeters>
          </Trackpoint>
          <Trackpoint>
            <Time>2022-07-09T09:07:53.000Z</Time>
            <Position>
              <LatitudeDegrees>43.3263828791677951812744140625</LatitudeDegrees>
              <LongitudeDegrees>-1.9217821396887302398681640625</LongitudeDegrees>
            </Position>
            <AltitudeMeters>0.4000000059604644775390625</AltitudeMeters>
            <DistanceMeters>NAN</DistanceMeters>
          </Trackpoint>
          <Trackpoint>
            <Time>2022-07-09T09:07:58.000Z</Time>
            <Position>
              <LatitudeDegrees>43.32626712508499622344970703125</LatitudeDegrees>
              <LongitudeDegrees>-1.92178457044064998626708984375</LongitudeDegrees>
            </Position>
            <AltitudeMeters>0.60000002384185791015625</AltitudeMeters>
            <DistanceMeters>NAN</DistanceMeters>
          </Trackpoint>
          <Trackpoint>
            <Time>2022-07-09T09:08:02.000Z</Time>
            <Position>
              <LatitudeDegrees>43.326244913041591644287109375</LatitudeDegrees>
              <LongitudeDegrees>-1.92190091125667095184326171875</LongitudeDegrees>
            </Position>
            <AltitudeMeters>0.60000002384185791015625</AltitudeMeters>
            <DistanceMeters>NAN</DistanceMeters>
          </Trackpoint>
          <Trackpoint>
            <Time>2022-07-09T09:08:07.000Z</Time>
            <Position>
              <LatitudeDegrees>43.32621834240853786468505859375</LatitudeDegrees>
              <LongitudeDegrees>-1.92201239056885242462158203125</LongitudeDegrees>
            </Position>
            <AltitudeMeters>0.60000002384185791015625</AltitudeMeters>
            <DistanceMeters>NAN</DistanceMeters>
          </Trackpoint>
          <Trackpoint>
            <Time>2022-07-09T09:08:08.000Z</Time>
            <Position>
              <LatitudeDegrees>43.32619906403124332427978515625</LatitudeDegrees>
              <LongitudeDegrees>-1.922025717794895172119140625</LongitudeDegrees>
            </Position>
            <AltitudeMeters>0.800000011920928955078125</AltitudeMeters>
            <DistanceMeters>NAN</DistanceMeters>
          </Trackpoint>
          <Trackpoint>
            <Time>2022-07-09T09:08:11.000Z</Time>
            <Position>
              <LatitudeDegrees>43.32615279592573642730712890625</LatitudeDegrees>
              <LongitudeDegrees>-1.92204575054347515106201171875</LongitudeDegrees>
            </Position>
            <AltitudeMeters>1</AltitudeMeters>
            <DistanceMeters>NAN</DistanceMeters>
          </Trackpoint>
          <Trackpoint>
            <Time>2022-07-09T09:08:13.000Z</Time>
            <Position>
              <LatitudeDegrees>43.32614106126129627227783203125</LatitudeDegrees>
              <LongitudeDegrees>-1.92207307554781436920166015625</LongitudeDegrees>
            </Position>
            <AltitudeMeters>1</AltitudeMeters>
            <DistanceMeters>NAN</DistanceMeters>
          </Trackpoint>
          <Trackpoint>
            <Time>2022-07-09T09:08:15.000Z</Time>
            <Position>
              <LatitudeDegrees>43.32611323334276676177978515625</LatitudeDegrees>
              <LongitudeDegrees>-1.92205228842794895172119140625</LongitudeDegrees>
            </Position>
            <AltitudeMeters>1.2000000476837158203125</AltitudeMeters>
            <DistanceMeters>NAN</DistanceMeters>
          </Trackpoint>
          <Trackpoint>
            <Time>2022-07-09T09:08:16.000Z</Time>
            <Position>
              <LatitudeDegrees>43.3260895125567913055419921875</LatitudeDegrees>
              <LongitudeDegrees>-1.92204927094280719757080078125</LongitudeDegrees>
            </Position>
            <AltitudeMeters>1.2000000476837158203125</AltitudeMeters>
            <DistanceMeters>NAN</DistanceMeters>
          </Trackpoint>
          <Trackpoint>
            <Time>2022-07-09T09:08:18.000Z</Time>
            <Position>
              <LatitudeDegrees>43.32605808041989803314208984375</LatitudeDegrees>
              <LongitudeDegrees>-1.9220825470983982086181640625</LongitudeDegrees>
            </Position>
            <AltitudeMeters>1.39999997615814208984375</AltitudeMeters>
            <DistanceMeters>NAN</DistanceMeters>
          </Trackpoint>
          <Trackpoint>
            <Time>2022-07-09T09:08:24.000Z</Time>
            <Position>
              <LatitudeDegrees>43.32595146261155605316162109375</LatitudeDegrees>
              <LongitudeDegrees>-1.9221516139805316925048828125</LongitudeDegrees>
            </Position>
            <AltitudeMeters>1.60000002384185791015625</AltitudeMeters>
            <DistanceMeters>NAN</DistanceMeters>
          </Trackpoint>
          <Trackpoint>
            <Time>2022-07-09T09:08:29.000Z</Time>
            <Position>
              <LatitudeDegrees>43.32587451674044132232666015625</LatitudeDegrees>
              <LongitudeDegrees>-1.9222206808626651763916015625</LongitudeDegrees>
            </Position>
            <AltitudeMeters>1.7999999523162841796875</AltitudeMeters>
            <DistanceMeters>NAN</DistanceMeters>
          </Trackpoint>
          <Trackpoint>
            <Time>2022-07-09T09:08:31.000Z</Time>
            <Position>
              <LatitudeDegrees>43.32585138268768787384033203125</LatitudeDegrees>
              <LongitudeDegrees>-1.92223451100289821624755859375</LongitudeDegrees>
            </Position>
            <AltitudeMeters>2</AltitudeMeters>
            <DistanceMeters>NAN</DistanceMeters>
          </Trackpoint>
          <Trackpoint>
            <Time>2022-07-09T09:08:38.000Z</Time>
            <Position>
              <LatitudeDegrees>43.3257726766169071197509765625</LatitudeDegrees>
              <LongitudeDegrees>-1.92232646048069000244140625</LongitudeDegrees>
            </Position>
            <AltitudeMeters>2.400000095367431640625</AltitudeMeters>
            <DistanceMeters>NAN</DistanceMeters>
          </Trackpoint>
          <Trackpoint>
            <Time>2022-07-09T09:08:46.000Z</Time>
            <Position>
              <LatitudeDegrees>43.32566094584763050079345703125</LatitudeDegrees>
              <LongitudeDegrees>-1.922466941177845001220703125</LongitudeDegrees>
            </Position>
            <AltitudeMeters>2.7999999523162841796875</AltitudeMeters>
            <DistanceMeters>NAN</DistanceMeters>
          </Trackpoint>
          <Trackpoint>
            <Time>2022-07-09T09:08:50.000Z</Time>
            <Position>
              <LatitudeDegrees>43.32561953924596309661865234375</LatitudeDegrees>
              <LongitudeDegrees>-1.92255386151373386383056640625</LongitudeDegrees>
            </Position>
            <AltitudeMeters>3</AltitudeMeters>
            <DistanceMeters>NAN</DistanceMeters>
          </Trackpoint>
          <Trackpoint>
            <Time>2022-07-09T09:08:51.000Z</Time>
            <Position>
              <LatitudeDegrees>43.32560813985764980316162109375</LatitudeDegrees>
              <LongitudeDegrees>-1.922577582299709320068359375</LongitudeDegrees>
            </Position>
            <AltitudeMeters>3</AltitudeMeters>
            <DistanceMeters>NAN</DistanceMeters>
          </Trackpoint>
          <Trackpoint>
            <Time>2022-07-09T09:08:53.000Z</Time>
            <Position>
              <LatitudeDegrees>43.3255835808813571929931640625</LatitudeDegrees>
              <LongitudeDegrees>-1.92262644879519939422607421875</LongitudeDegrees>
            </Position>
            <AltitudeMeters>3</AltitudeMeters>
            <DistanceMeters>NAN</DistanceMeters>
          </Trackpoint>
          <Trackpoint>
            <Time>2022-07-09T09:08:55.000Z</Time>
            <Position>
              <LatitudeDegrees>43.32557528279721736907958984375</LatitudeDegrees>
              <LongitudeDegrees>-1.9226890616118907928466796875</LongitudeDegrees>
            </Position>
            <AltitudeMeters>3</AltitudeMeters>
            <DistanceMeters>NAN</DistanceMeters>
          </Trackpoint>
          <Trackpoint>
            <Time>2022-07-09T09:08:57.000Z</Time>
            <Position>
              <LatitudeDegrees>43.32555969245731830596923828125</LatitudeDegrees>
              <LongitudeDegrees>-1.92275368608534336090087890625</LongitudeDegrees>
            </Position>
            <AltitudeMeters>3</AltitudeMeters>
            <DistanceMeters>NAN</DistanceMeters>
          </Trackpoint>
          <Trackpoint>
            <Time>2022-07-09T09:09:03.000Z</Time>
            <Position>
              <LatitudeDegrees>43.32546195946633815765380859375</LatitudeDegrees>
              <LongitudeDegrees>-1.92298620007932186126708984375</LongitudeDegrees>
            </Position>
            <AltitudeMeters>3</AltitudeMeters>
            <DistanceMeters>NAN</DistanceMeters>
          </Trackpoint>
          <Trackpoint>
            <Time>2022-07-09T09:09:05.000Z</Time>
            <Position>
              <LatitudeDegrees>43.3253656513988971710205078125</LatitudeDegrees>
              <LongitudeDegrees>-1.923095919191837310791015625</LongitudeDegrees>
            </Position>
            <AltitudeMeters>3</AltitudeMeters>
            <DistanceMeters>NAN</DistanceMeters>
          </Trackpoint>
          <Trackpoint>
            <Time>2022-07-09T09:09:08.000Z</Time>
            <Position>
              <LatitudeDegrees>43.3254548348486423492431640625</LatitudeDegrees>
              <LongitudeDegrees>-1.9231594540178775787353515625</LongitudeDegrees>
            </Position>
            <AltitudeMeters>3</AltitudeMeters>
            <DistanceMeters>NAN</DistanceMeters>
          </Trackpoint>
          <Trackpoint>
            <Time>2022-07-09T09:09:09.000Z</Time>
            <Position>
              <LatitudeDegrees>43.325455673038959503173828125</LatitudeDegrees>
              <LongitudeDegrees>-1.9232060573995113372802734375</LongitudeDegrees>
            </Position>
            <AltitudeMeters>3.2000000476837158203125</AltitudeMeters>
            <DistanceMeters>NAN</DistanceMeters>
          </Trackpoint>
          <Trackpoint>
            <Time>2022-07-09T09:09:10.000Z</Time>
            <Position>
              <LatitudeDegrees>43.325450308620929718017578125</LatitudeDegrees>
              <LongitudeDegrees>-1.92324335686862468719482421875</LongitudeDegrees>
            </Position>
            <AltitudeMeters>3.2000000476837158203125</AltitudeMeters>
            <DistanceMeters>NAN</DistanceMeters>
          </Trackpoint>
          <Trackpoint>
            <Time>2022-07-09T09:09:12.000Z</Time>
            <Position>
              <LatitudeDegrees>43.32547704689204692840576171875</LatitudeDegrees>
              <LongitudeDegrees>-1.9232995994389057159423828125</LongitudeDegrees>
            </Position>
            <AltitudeMeters>3.400000095367431640625</AltitudeMeters>
            <DistanceMeters>NAN</DistanceMeters>
          </Trackpoint>
          <Trackpoint>
            <Time>2022-07-09T09:09:15.000Z</Time>
            <Position>
              <LatitudeDegrees>43.3254518173635005950927734375</LatitudeDegrees>
              <LongitudeDegrees>-1.923377551138401031494140625</LongitudeDegrees>
            </Position>
            <AltitudeMeters>3.599999904632568359375</AltitudeMeters>
            <DistanceMeters>NAN</DistanceMeters>
          </Trackpoint>
          <Trackpoint>
            <Time>2022-07-09T09:09:16.000Z</Time>
            <Position>
              <LatitudeDegrees>43.32545273937284946441650390625</LatitudeDegrees>
              <LongitudeDegrees>-1.9234159402549266815185546875</LongitudeDegrees>
            </Position>
            <AltitudeMeters>3.599999904632568359375</AltitudeMeters>
            <DistanceMeters>NAN</DistanceMeters>
          </Trackpoint>
          <Trackpoint>
            <Time>2022-07-09T09:09:19.000Z</Time>
            <Position>
              <LatitudeDegrees>43.32543698139488697052001953125</LatitudeDegrees>
              <LongitudeDegrees>-1.9235031120479106903076171875</LongitudeDegrees>
            </Position>
            <AltitudeMeters>3.599999904632568359375</AltitudeMeters>
            <DistanceMeters>NAN</DistanceMeters>
          </Trackpoint>
          <Trackpoint>
            <Time>2022-07-09T09:09:21.000Z</Time>
            <Position>
              <LatitudeDegrees>43.3254360593855381011962890625</LatitudeDegrees>
              <LongitudeDegrees>-1.923559606075286865234375</LongitudeDegrees>
            </Position>
            <AltitudeMeters>3.7999999523162841796875</AltitudeMeters>
            <DistanceMeters>NAN</DistanceMeters>
          </Trackpoint>
          <Trackpoint>
            <Time>2022-07-09T09:09:24.000Z</Time>
            <Position>
              <LatitudeDegrees>43.3254365622997283935546875</LatitudeDegrees>
              <LongitudeDegrees>-1.92364099435508251190185546875</LongitudeDegrees>
            </Position>
            <AltitudeMeters>3.599999904632568359375</AltitudeMeters>
            <DistanceMeters>NAN</DistanceMeters>
          </Trackpoint>
          <Trackpoint>
            <Time>2022-07-09T09:09:25.000Z</Time>
            <Position>
              <LatitudeDegrees>43.3254384063184261322021484375</LatitudeDegrees>
              <LongitudeDegrees>-1.9236539863049983978271484375</LongitudeDegrees>
            </Position>
            <AltitudeMeters>3.599999904632568359375</AltitudeMeters>
            <DistanceMeters>NAN</DistanceMeters>
          </Trackpoint>
          <Trackpoint>
            <Time>2022-07-09T09:09:26.000Z</Time>
            <Position>
              <LatitudeDegrees>43.32543731667101383209228515625</LatitudeDegrees>
              <LongitudeDegrees>-1.92366354167461395263671875</LongitudeDegrees>
            </Position>
            <AltitudeMeters>3.599999904632568359375</AltitudeMeters>
            <DistanceMeters>NAN</DistanceMeters>
          </Trackpoint>
          <Trackpoint>
            <Time>2022-07-09T09:09:28.000Z</Time>
            <Position>
              <LatitudeDegrees>43.32542709074914455413818359375</LatitudeDegrees>
              <LongitudeDegrees>-1.92369665019214153289794921875</LongitudeDegrees>
            </Position>
            <AltitudeMeters>3.400000095367431640625</AltitudeMeters>
            <DistanceMeters>NAN</DistanceMeters>
          </Trackpoint>
          <Trackpoint>
            <Time>2022-07-09T09:09:32.000Z</Time>
            <Position>
              <LatitudeDegrees>43.3254219777882099151611328125</LatitudeDegrees>
              <LongitudeDegrees>-1.923769153654575347900390625</LongitudeDegrees>
            </Position>
            <AltitudeMeters>3.2000000476837158203125</AltitudeMeters>
            <DistanceMeters>NAN</DistanceMeters>
          </Trackpoint>
          <Trackpoint>
            <Time>2022-07-09T09:09:33.000Z</Time>
            <Position>
              <LatitudeDegrees>43.32543044351041316986083984375</LatitudeDegrees>
              <LongitudeDegrees>-1.92380033433437347412109375</LongitudeDegrees>
            </Position>
            <AltitudeMeters>3.2000000476837158203125</AltitudeMeters>
            <DistanceMeters>NAN</DistanceMeters>
          </Trackpoint>
          <Trackpoint>
            <Time>2022-07-09T09:09:39.000Z</Time>
            <Position>
              <LatitudeDegrees>43.32549096085131168365478515625</LatitudeDegrees>
              <LongitudeDegrees>-1.9238578341901302337646484375</LongitudeDegrees>
            </Position>
            <AltitudeMeters>2.7999999523162841796875</AltitudeMeters>
            <DistanceMeters>NAN</DistanceMeters>
          </Trackpoint>
          <Trackpoint>
            <Time>2022-07-09T09:09:40.000Z</Time>
            <Position>
              <LatitudeDegrees>43.3254454471170902252197265625</LatitudeDegrees>
              <LongitudeDegrees>-1.92383444868028163909912109375</LongitudeDegrees>
            </Position>
            <AltitudeMeters>2.7999999523162841796875</AltitudeMeters>
            <DistanceMeters>NAN</DistanceMeters>
          </Trackpoint>
          <Trackpoint>
            <Time>2022-07-09T09:09:41.000Z</Time>
            <Position>
              <LatitudeDegrees>43.325441591441631317138671875</LatitudeDegrees>
              <LongitudeDegrees>-1.92383998073637485504150390625</LongitudeDegrees>
            </Position>
            <AltitudeMeters>2.7999999523162841796875</AltitudeMeters>
            <DistanceMeters>NAN</DistanceMeters>
          </Trackpoint>
          <Trackpoint>
            <Time>2022-07-09T09:09:43.000Z</Time>
            <Position>
              <LatitudeDegrees>43.32546271383762359619140625</LatitudeDegrees>
              <LongitudeDegrees>-1.92384836263954639434814453125</LongitudeDegrees>
            </Position>
            <AltitudeMeters>2.7999999523162841796875</AltitudeMeters>
            <DistanceMeters>NAN</DistanceMeters>
          </Trackpoint>
          <Trackpoint>
            <Time>2022-07-09T09:09:53.000Z</Time>
            <Position>
              <LatitudeDegrees>43.32551610656082630157470703125</LatitudeDegrees>
              <LongitudeDegrees>-1.92382640205323696136474609375</LongitudeDegrees>
            </Position>
            <AltitudeMeters>2.7999999523162841796875</AltitudeMeters>
            <DistanceMeters>NAN</DistanceMeters>
          </Trackpoint>
          <Trackpoint>
            <Time>2022-07-09T09:10:59.000Z</Time>
            <Position>
              <LatitudeDegrees>43.3255061320960521697998046875</LatitudeDegrees>
              <LongitudeDegrees>-1.9244371913373470306396484375</LongitudeDegrees>
            </Position>
            <AltitudeMeters>2.400000095367431640625</AltitudeMeters>
            <DistanceMeters>NAN</DistanceMeters>
          </Trackpoint>
          <Trackpoint>
            <Time>2022-07-09T09:11:00.000Z</Time>
            <Position>
              <LatitudeDegrees>43.32543949596583843231201171875</LatitudeDegrees>
              <LongitudeDegrees>-1.92447851411998271942138671875</LongitudeDegrees>
            </Position>
            <AltitudeMeters>2.400000095367431640625</AltitudeMeters>
            <DistanceMeters>NAN</DistanceMeters>
          </Trackpoint>
          <Trackpoint>
            <Time>2022-07-09T09:11:01.000Z</Time>
            <Position>
              <LatitudeDegrees>43.32544117234647274017333984375</LatitudeDegrees>
              <LongitudeDegrees>-1.92451111972332000732421875</LongitudeDegrees>
            </Position>
            <AltitudeMeters>2.2000000476837158203125</AltitudeMeters>
            <DistanceMeters>NAN</DistanceMeters>
          </Trackpoint>
          <Trackpoint>
            <Time>2022-07-09T09:11:04.000Z</Time>
            <Position>
              <LatitudeDegrees>43.32543044351041316986083984375</LatitudeDegrees>
              <LongitudeDegrees>-1.92455805838108062744140625</LongitudeDegrees>
            </Position>
            <AltitudeMeters>2</AltitudeMeters>
            <DistanceMeters>NAN</DistanceMeters>
          </Trackpoint>
          <Trackpoint>
            <Time>2022-07-09T09:11:06.000Z</Time>
            <Position>
              <LatitudeDegrees>43.325440920889377593994140625</LatitudeDegrees>
              <LongitudeDegrees>-1.92451204173266887664794921875</LongitudeDegrees>
            </Position>
            <AltitudeMeters>2</AltitudeMeters>
            <DistanceMeters>NAN</DistanceMeters>
          </Trackpoint>
          <Trackpoint>
            <Time>2022-07-09T09:11:08.000Z</Time>
            <Position>
              <LatitudeDegrees>43.32547671161592006683349609375</LatitudeDegrees>
              <LongitudeDegrees>-1.924451105296611785888671875</LongitudeDegrees>
            </Position>
            <AltitudeMeters>2</AltitudeMeters>
            <DistanceMeters>NAN</DistanceMeters>
          </Trackpoint>
          <Trackpoint>
            <Time>2022-07-09T09:11:09.000Z</Time>
            <Position>
              <LatitudeDegrees>43.3254699222743511199951171875</LatitudeDegrees>
              <LongitudeDegrees>-1.92446418106555938720703125</LongitudeDegrees>
            </Position>
            <AltitudeMeters>2.2000000476837158203125</AltitudeMeters>
            <DistanceMeters>NAN</DistanceMeters>
          </Trackpoint>
          <Trackpoint>
            <Time>2022-07-09T09:11:13.000Z</Time>
            <Position>
              <LatitudeDegrees>43.325467072427272796630859375</LatitudeDegrees>
              <LongitudeDegrees>-1.9244673661887645721435546875</LongitudeDegrees>
            </Position>
            <AltitudeMeters>2.2000000476837158203125</AltitudeMeters>
            <DistanceMeters>NAN</DistanceMeters>
          </Trackpoint>
          <Trackpoint>
            <Time>2022-07-09T09:11:26.000Z</Time>
            <Position>
              <LatitudeDegrees>43.32541217096149921417236328125</LatitudeDegrees>
              <LongitudeDegrees>-1.9245659373700618743896484375</LongitudeDegrees>
            </Position>
            <AltitudeMeters>2.2000000476837158203125</AltitudeMeters>
            <DistanceMeters>NAN</DistanceMeters>
          </Trackpoint>
          <Trackpoint>
            <Time>2022-07-09T09:11:27.000Z</Time>
            <Position>
              <LatitudeDegrees>43.32544620148837566375732421875</LatitudeDegrees>
              <LongitudeDegrees>-1.92455797456204891204833984375</LongitudeDegrees>
            </Position>
            <AltitudeMeters>2.2000000476837158203125</AltitudeMeters>
            <DistanceMeters>NAN</DistanceMeters>
          </Trackpoint>
          <Trackpoint>
            <Time>2022-07-09T09:11:29.000Z</Time>
            <Position>
              <LatitudeDegrees>43.32539289258420467376708984375</LatitudeDegrees>
              <LongitudeDegrees>-1.9245716370642185211181640625</LongitudeDegrees>
            </Position>
            <AltitudeMeters>2.2000000476837158203125</AltitudeMeters>
            <DistanceMeters>NAN</DistanceMeters>
          </Trackpoint>
          <Trackpoint>
            <Time>2022-07-09T09:11:30.000Z</Time>
            <Position>
              <LatitudeDegrees>43.32532281987369060516357421875</LatitudeDegrees>
              <LongitudeDegrees>-1.9245815277099609375</LongitudeDegrees>
            </Position>
            <AltitudeMeters>2.2000000476837158203125</AltitudeMeters>
            <DistanceMeters>NAN</DistanceMeters>
          </Trackpoint>
          <Trackpoint>
            <Time>2022-07-09T09:11:32.000Z</Time>
            <Position>
              <LatitudeDegrees>43.32536405883729457855224609375</LatitudeDegrees>
              <LongitudeDegrees>-1.92459217272698879241943359375</LongitudeDegrees>
            </Position>
            <AltitudeMeters>2.400000095367431640625</AltitudeMeters>
            <DistanceMeters>NAN</DistanceMeters>
          </Trackpoint>
          <Trackpoint>
            <Time>2022-07-09T09:11:34.000Z</Time>
            <Position>
              <LatitudeDegrees>43.32538283430039882659912109375</LatitudeDegrees>
              <LongitudeDegrees>-1.9246407039463520050048828125</LongitudeDegrees>
            </Position>
            <AltitudeMeters>2.400000095367431640625</AltitudeMeters>
            <DistanceMeters>NAN</DistanceMeters>
          </Trackpoint>
          <Trackpoint>
            <Time>2022-07-09T09:11:36.000Z</Time>
            <Position>
              <LatitudeDegrees>43.3254124224185943603515625</LatitudeDegrees>
              <LongitudeDegrees>-1.924624107778072357177734375</LongitudeDegrees>
            </Position>
            <AltitudeMeters>2.400000095367431640625</AltitudeMeters>
            <DistanceMeters>NAN</DistanceMeters>
          </Trackpoint>
          <Trackpoint>
            <Time>2022-07-09T09:11:37.000Z</Time>
            <Position>
              <LatitudeDegrees>43.3254015259444713592529296875</LatitudeDegrees>
              <LongitudeDegrees>-1.9246323220431804656982421875</LongitudeDegrees>
            </Position>
            <AltitudeMeters>2.599999904632568359375</AltitudeMeters>
            <DistanceMeters>NAN</DistanceMeters>
          </Trackpoint>
          <Trackpoint>
            <Time>2022-07-09T09:11:40.000Z</Time>
            <Position>
              <LatitudeDegrees>43.32531359978020191192626953125</LatitudeDegrees>
              <LongitudeDegrees>-1.9247080944478511810302734375</LongitudeDegrees>
            </Position>
            <AltitudeMeters>2.400000095367431640625</AltitudeMeters>
            <DistanceMeters>NAN</DistanceMeters>
          </Trackpoint>
          <Trackpoint>
            <Time>2022-07-09T09:11:43.000Z</Time>
            <Position>
              <LatitudeDegrees>43.3252325467765331268310546875</LatitudeDegrees>
              <LongitudeDegrees>-1.92477523349225521087646484375</LongitudeDegrees>
            </Position>
            <AltitudeMeters>2.599999904632568359375</AltitudeMeters>
            <DistanceMeters>NAN</DistanceMeters>
          </Trackpoint>
          <Trackpoint>
            <Time>2022-07-09T09:11:45.000Z</Time>
            <Position>
              <LatitudeDegrees>43.32524201832711696624755859375</LatitudeDegrees>
              <LongitudeDegrees>-1.92477540113031864166259765625</LongitudeDegrees>
            </Position>
            <AltitudeMeters>2.599999904632568359375</AltitudeMeters>
            <DistanceMeters>NAN</DistanceMeters>
          </Trackpoint>
          <Trackpoint>
            <Time>2022-07-09T09:11:49.000Z</Time>
            <Position>
              <LatitudeDegrees>43.3252935670316219329833984375</LatitudeDegrees>
              <LongitudeDegrees>-1.9247733056545257568359375</LongitudeDegrees>
            </Position>
            <AltitudeMeters>2.599999904632568359375</AltitudeMeters>
            <DistanceMeters>NAN</DistanceMeters>
          </Trackpoint>
          <Trackpoint>
            <Time>2022-07-09T09:11:50.000Z</Time>
            <Position>
              <LatitudeDegrees>43.32530203275382518768310546875</LatitudeDegrees>
              <LongitudeDegrees>-1.9247620739042758941650390625</LongitudeDegrees>
            </Position>
            <AltitudeMeters>2.599999904632568359375</AltitudeMeters>
            <DistanceMeters>NAN</DistanceMeters>
          </Trackpoint>
          <Trackpoint>
            <Time>2022-07-09T09:11:52.000Z</Time>
            <Position>
              <LatitudeDegrees>43.325290717184543609619140625</LatitudeDegrees>
              <LongitudeDegrees>-1.92475712858140468597412109375</LongitudeDegrees>
            </Position>
            <AltitudeMeters>2.599999904632568359375</AltitudeMeters>
            <DistanceMeters>NAN</DistanceMeters>
          </Trackpoint>
          <Trackpoint>
            <Time>2022-07-09T09:11:57.000Z</Time>
            <Position>
              <LatitudeDegrees>43.325251825153827667236328125</LatitudeDegrees>
              <LongitudeDegrees>-1.92476190626621246337890625</LongitudeDegrees>
            </Position>
            <AltitudeMeters>2.599999904632568359375</AltitudeMeters>
            <DistanceMeters>NAN</DistanceMeters>
          </Trackpoint>
          <Trackpoint>
            <Time>2022-07-09T09:12:00.000Z</Time>
            <Position>
              <LatitudeDegrees>43.32513975910842418670654296875</LatitudeDegrees>
              <LongitudeDegrees>-1.92487145774066448211669921875</LongitudeDegrees>
            </Position>
            <AltitudeMeters>2.599999904632568359375</AltitudeMeters>
            <DistanceMeters>NAN</DistanceMeters>
          </Trackpoint>
          <Trackpoint>
            <Time>2022-07-09T09:12:53.000Z</Time>
            <Position>
              <LatitudeDegrees>43.32528627477586269378662109375</LatitudeDegrees>
              <LongitudeDegrees>-1.9247349165380001068115234375</LongitudeDegrees>
            </Position>
            <AltitudeMeters>4.400000095367431640625</AltitudeMeters>
            <DistanceMeters>NAN</DistanceMeters>
          </Trackpoint>
          <Trackpoint>
            <Time>2022-07-09T09:12:55.000Z</Time>
            <Position>
              <LatitudeDegrees>43.32534201443195343017578125</LatitudeDegrees>
              <LongitudeDegrees>-1.9246752373874187469482421875</LongitudeDegrees>
            </Position>
            <AltitudeMeters>4.80000019073486328125</AltitudeMeters>
            <DistanceMeters>NAN</DistanceMeters>
          </Trackpoint>
          <Trackpoint>
            <Time>2022-07-09T09:12:56.000Z</Time>
            <Position>
              <LatitudeDegrees>43.3253596164286136627197265625</LatitudeDegrees>
              <LongitudeDegrees>-1.92465059459209442138671875</LongitudeDegrees>
            </Position>
            <AltitudeMeters>5</AltitudeMeters>
            <DistanceMeters>NAN</DistanceMeters>
          </Trackpoint>
          <Trackpoint>
            <Time>2022-07-09T09:12:58.000Z</Time>
            <Position>
              <LatitudeDegrees>43.32537076435983180999755859375</LatitudeDegrees>
              <LongitudeDegrees>-1.924647577106952667236328125</LongitudeDegrees>
            </Position>
            <AltitudeMeters>5.599999904632568359375</AltitudeMeters>
            <DistanceMeters>NAN</DistanceMeters>
          </Trackpoint>
          <Trackpoint>
            <Time>2022-07-09T09:13:00.000Z</Time>
            <Position>
              <LatitudeDegrees>43.32539238967001438140869140625</LatitudeDegrees>
              <LongitudeDegrees>-1.9246296398341655731201171875</LongitudeDegrees>
            </Position>
            <AltitudeMeters>5.80000019073486328125</AltitudeMeters>
            <DistanceMeters>NAN</DistanceMeters>
          </Trackpoint>
          <Trackpoint>
            <Time>2022-07-09T09:13:01.000Z</Time>
            <Position>
              <LatitudeDegrees>43.325420804321765899658203125</LatitudeDegrees>
              <LongitudeDegrees>-1.924600303173065185546875</LongitudeDegrees>
            </Position>
            <AltitudeMeters>5.80000019073486328125</AltitudeMeters>
            <DistanceMeters>NAN</DistanceMeters>
          </Trackpoint>
          <Trackpoint>
            <Time>2022-07-09T09:13:04.000Z</Time>
            <Position>
              <LatitudeDegrees>43.325443603098392486572265625</LatitudeDegrees>
              <LongitudeDegrees>-1.92458747886121273040771484375</LongitudeDegrees>
            </Position>
            <AltitudeMeters>5.80000019073486328125</AltitudeMeters>
            <DistanceMeters>NAN</DistanceMeters>
          </Trackpoint>
          <Trackpoint>
            <Time>2022-07-09T09:13:05.000Z</Time>
            <Position>
              <LatitudeDegrees>43.32546564750373363494873046875</LatitudeDegrees>
              <LongitudeDegrees>-1.924602650105953216552734375</LongitudeDegrees>
            </Position>
            <AltitudeMeters>5.80000019073486328125</AltitudeMeters>
            <DistanceMeters>NAN</DistanceMeters>
          </Trackpoint>
          <Trackpoint>
            <Time>2022-07-09T09:13:08.000Z</Time>
            <Position>
              <LatitudeDegrees>43.32550168968737125396728515625</LatitudeDegrees>
              <LongitudeDegrees>-1.9245713017880916595458984375</LongitudeDegrees>
            </Position>
            <AltitudeMeters>6</AltitudeMeters>
            <DistanceMeters>NAN</DistanceMeters>
          </Trackpoint>
          <Trackpoint>
            <Time>2022-07-09T09:13:10.000Z</Time>
            <Position>
              <LatitudeDegrees>43.32548576407134532928466796875</LatitudeDegrees>
              <LongitudeDegrees>-1.9246058352291584014892578125</LongitudeDegrees>
            </Position>
            <AltitudeMeters>5.80000019073486328125</AltitudeMeters>
            <DistanceMeters>NAN</DistanceMeters>
          </Trackpoint>
          <Trackpoint>
            <Time>2022-07-09T09:13:17.000Z</Time>
            <Position>
              <LatitudeDegrees>43.3254746161401271820068359375</LatitudeDegrees>
              <LongitudeDegrees>-1.92459988407790660858154296875</LongitudeDegrees>
            </Position>
            <AltitudeMeters>5.80000019073486328125</AltitudeMeters>
            <DistanceMeters>NAN</DistanceMeters>
          </Trackpoint>
          <Trackpoint>
            <Time>2022-07-09T09:13:19.000Z</Time>
            <Position>
              <LatitudeDegrees>43.32548417150974273681640625</LatitudeDegrees>
              <LongitudeDegrees>-1.92453031428158283233642578125</LongitudeDegrees>
            </Position>
            <AltitudeMeters>5.80000019073486328125</AltitudeMeters>
            <DistanceMeters>NAN</DistanceMeters>
          </Trackpoint>
          <Trackpoint>
            <Time>2022-07-09T09:13:21.000Z</Time>
            <Position>
              <LatitudeDegrees>43.32545089535415172576904296875</LatitudeDegrees>
              <LongitudeDegrees>-1.92453534342348575592041015625</LongitudeDegrees>
            </Position>
            <AltitudeMeters>5.599999904632568359375</AltitudeMeters>
            <DistanceMeters>NAN</DistanceMeters>
          </Trackpoint>
          <Trackpoint>
            <Time>2022-07-09T09:13:23.000Z</Time>
            <Position>
              <LatitudeDegrees>43.32542155869305133819580078125</LatitudeDegrees>
              <LongitudeDegrees>-1.92456853576004505157470703125</LongitudeDegrees>
            </Position>
            <AltitudeMeters>4.80000019073486328125</AltitudeMeters>
            <DistanceMeters>NAN</DistanceMeters>
          </Trackpoint>
          <Trackpoint>
            <Time>2022-07-09T09:13:29.000Z</Time>
            <Position>
              <LatitudeDegrees>43.32542826421558856964111328125</LatitudeDegrees>
              <LongitudeDegrees>-1.9245669431984424591064453125</LongitudeDegrees>
            </Position>
            <AltitudeMeters>3.7999999523162841796875</AltitudeMeters>
            <DistanceMeters>NAN</DistanceMeters>
          </Trackpoint>
          <Trackpoint>
            <Time>2022-07-09T09:13:30.000Z</Time>
            <Position>
              <LatitudeDegrees>43.32543580792844295501708984375</LatitudeDegrees>
              <LongitudeDegrees>-1.92454992793500423431396484375</LongitudeDegrees>
            </Position>
            <AltitudeMeters>2.2000000476837158203125</AltitudeMeters>
            <DistanceMeters>NAN</DistanceMeters>
          </Trackpoint>
          <Trackpoint>
            <Time>2022-07-09T09:13:33.000Z</Time>
            <Position>
              <LatitudeDegrees>43.32542323507368564605712890625</LatitudeDegrees>
              <LongitudeDegrees>-1.9245882332324981689453125</LongitudeDegrees>
            </Position>
            <AltitudeMeters>2.599999904632568359375</AltitudeMeters>
            <DistanceMeters>NAN</DistanceMeters>
          </Trackpoint>
          <Trackpoint>
            <Time>2022-07-09T09:13:35.000Z</Time>
            <Position>
              <LatitudeDegrees>43.32540378905832767486572265625</LatitudeDegrees>
              <LongitudeDegrees>-1.92461681552231311798095703125</LongitudeDegrees>
            </Position>
            <AltitudeMeters>3.2000000476837158203125</AltitudeMeters>
            <DistanceMeters>NAN</DistanceMeters>
          </Trackpoint>
          <Trackpoint>
            <Time>2022-07-09T09:13:38.000Z</Time>
            <Position>
              <LatitudeDegrees>43.3254005201160907745361328125</LatitudeDegrees>
              <LongitudeDegrees>-1.924649588763713836669921875</LongitudeDegrees>
            </Position>
            <AltitudeMeters>4.400000095367431640625</AltitudeMeters>
            <DistanceMeters>NAN</DistanceMeters>
          </Trackpoint>
          <Trackpoint>
            <Time>2022-07-09T09:13:39.000Z</Time>
            <Position>
              <LatitudeDegrees>43.32540764473378658294677734375</LatitudeDegrees>
              <LongitudeDegrees>-1.9246544502675533294677734375</LongitudeDegrees>
            </Position>
            <AltitudeMeters>4.80000019073486328125</AltitudeMeters>
            <DistanceMeters>NAN</DistanceMeters>
          </Trackpoint>
          <Trackpoint>
            <Time>2022-07-09T09:13:43.000Z</Time>
            <Position>
              <LatitudeDegrees>43.32547486759722232818603515625</LatitudeDegrees>
              <LongitudeDegrees>-1.9245401211082935333251953125</LongitudeDegrees>
            </Position>
            <AltitudeMeters>5.599999904632568359375</AltitudeMeters>
            <DistanceMeters>NAN</DistanceMeters>
          </Trackpoint>
          <Trackpoint>
            <Time>2022-07-09T09:13:44.000Z</Time>
            <Position>
              <LatitudeDegrees>43.32549783401191234588623046875</LatitudeDegrees>
              <LongitudeDegrees>-1.9245200045406818389892578125</LongitudeDegrees>
            </Position>
            <AltitudeMeters>5.599999904632568359375</AltitudeMeters>
            <DistanceMeters>NAN</DistanceMeters>
          </Trackpoint>
          <Trackpoint>
            <Time>2022-07-09T09:13:48.000Z</Time>
            <Position>
              <LatitudeDegrees>43.3254752866923809051513671875</LatitudeDegrees>
              <LongitudeDegrees>-1.924529559910297393798828125</LongitudeDegrees>
            </Position>
            <AltitudeMeters>5.599999904632568359375</AltitudeMeters>
            <DistanceMeters>NAN</DistanceMeters>
          </Trackpoint>
          <Trackpoint>
            <Time>2022-07-09T09:13:53.000Z</Time>
            <Position>
              <LatitudeDegrees>43.3254179544746875762939453125</LatitudeDegrees>
              <LongitudeDegrees>-1.92462771199643611907958984375</LongitudeDegrees>
            </Position>
            <AltitudeMeters>4.400000095367431640625</AltitudeMeters>
            <DistanceMeters>NAN</DistanceMeters>
          </Trackpoint>
          <Trackpoint>
            <Time>2022-07-09T09:13:56.000Z</Time>
            <Position>
              <LatitudeDegrees>43.32538384012877941131591796875</LatitudeDegrees>
              <LongitudeDegrees>-1.924670040607452392578125</LongitudeDegrees>
            </Position>
            <AltitudeMeters>3.400000095367431640625</AltitudeMeters>
            <DistanceMeters>NAN</DistanceMeters>
          </Trackpoint>
          <Trackpoint>
            <Time>2022-07-09T09:13:57.000Z</Time>
            <Position>
              <LatitudeDegrees>43.3253775537014007568359375</LatitudeDegrees>
              <LongitudeDegrees>-1.9246537797152996063232421875</LongitudeDegrees>
            </Position>
            <AltitudeMeters>3</AltitudeMeters>
            <DistanceMeters>NAN</DistanceMeters>
          </Trackpoint>
          <Trackpoint>
            <Time>2022-07-09T09:13:59.000Z</Time>
            <Position>
              <LatitudeDegrees>43.32538434304296970367431640625</LatitudeDegrees>
              <LongitudeDegrees>-1.92464531399309635162353515625</LongitudeDegrees>
            </Position>
            <AltitudeMeters>2.400000095367431640625</AltitudeMeters>
            <DistanceMeters>NAN</DistanceMeters>
          </Trackpoint>
          <Trackpoint>
            <Time>2022-07-09T09:14:02.000Z</Time>
            <Position>
              <LatitudeDegrees>43.32538736052811145782470703125</LatitudeDegrees>
              <LongitudeDegrees>-1.92464531399309635162353515625</LongitudeDegrees>
            </Position>
            <AltitudeMeters>2</AltitudeMeters>
            <DistanceMeters>NAN</DistanceMeters>
          </Trackpoint>
          <Trackpoint>
            <Time>2022-07-09T09:14:03.000Z</Time>
            <Position>
              <LatitudeDegrees>43.32539565861225128173828125</LatitudeDegrees>
              <LongitudeDegrees>-1.9246366806328296661376953125</LongitudeDegrees>
            </Position>
            <AltitudeMeters>2</AltitudeMeters>
            <DistanceMeters>NAN</DistanceMeters>
          </Trackpoint>
          <Trackpoint>
            <Time>2022-07-09T09:14:06.000Z</Time>
            <Position>
              <LatitudeDegrees>43.3254048787057399749755859375</LatitudeDegrees>
              <LongitudeDegrees>-1.92464196123182773590087890625</LongitudeDegrees>
            </Position>
            <AltitudeMeters>2</AltitudeMeters>
            <DistanceMeters>NAN</DistanceMeters>
          </Trackpoint>
          <Trackpoint>
            <Time>2022-07-09T09:14:37.000Z</Time>
            <Position>
              <LatitudeDegrees>43.3255128376185894012451171875</LatitudeDegrees>
              <LongitudeDegrees>-1.924561075866222381591796875</LongitudeDegrees>
            </Position>
            <AltitudeMeters>5.80000019073486328125</AltitudeMeters>
            <DistanceMeters>NAN</DistanceMeters>
          </Trackpoint>
          <Trackpoint>
            <Time>2022-07-09T09:14:38.000Z</Time>
            <Position>
              <LatitudeDegrees>43.32552247680723667144775390625</LatitudeDegrees>
              <LongitudeDegrees>-1.9245702959597110748291015625</LongitudeDegrees>
            </Position>
            <AltitudeMeters>5.80000019073486328125</AltitudeMeters>
            <DistanceMeters>NAN</DistanceMeters>
          </Trackpoint>
          <Trackpoint>
            <Time>2022-07-09T09:14:39.000Z</Time>
            <Position>
              <LatitudeDegrees>43.32552976906299591064453125</LatitudeDegrees>
              <LongitudeDegrees>-1.9245796836912631988525390625</LongitudeDegrees>
            </Position>
            <AltitudeMeters>6</AltitudeMeters>
            <DistanceMeters>NAN</DistanceMeters>
          </Trackpoint>
          <Trackpoint>
            <Time>2022-07-09T09:14:48.000Z</Time>
            <Position>
              <LatitudeDegrees>43.3255867660045623779296875</LatitudeDegrees>
              <LongitudeDegrees>-1.92454288713634014129638671875</LongitudeDegrees>
            </Position>
            <AltitudeMeters>6</AltitudeMeters>
            <DistanceMeters>NAN</DistanceMeters>
          </Trackpoint>
          <Trackpoint>
            <Time>2022-07-09T09:14:52.000Z</Time>
            <Position>
              <LatitudeDegrees>43.32555315457284450531005859375</LatitudeDegrees>
              <LongitudeDegrees>-1.92458781413733959197998046875</LongitudeDegrees>
            </Position>
            <AltitudeMeters>6.19999980926513671875</AltitudeMeters>
            <DistanceMeters>NAN</DistanceMeters>
          </Trackpoint>
          <Trackpoint>
            <Time>2022-07-09T09:15:05.000Z</Time>
            <Position>
              <LatitudeDegrees>43.3255681581795215606689453125</LatitudeDegrees>
              <LongitudeDegrees>-1.9244707189500331878662109375</LongitudeDegrees>
            </Position>
            <AltitudeMeters>6.19999980926513671875</AltitudeMeters>
            <DistanceMeters>NAN</DistanceMeters>
          </Trackpoint>
          <Trackpoint>
            <Time>2022-07-09T09:15:07.000Z</Time>
            <Position>
              <LatitudeDegrees>43.3255862630903720855712890625</LatitudeDegrees>
              <LongitudeDegrees>-1.9244700483977794647216796875</LongitudeDegrees>
            </Position>
            <AltitudeMeters>6.19999980926513671875</AltitudeMeters>
            <DistanceMeters>NAN</DistanceMeters>
          </Trackpoint>
          <Trackpoint>
            <Time>2022-07-09T09:15:09.000Z</Time>
            <Position>
              <LatitudeDegrees>43.32559539936482906341552734375</LatitudeDegrees>
              <LongitudeDegrees>-1.9245102815330028533935546875</LongitudeDegrees>
            </Position>
            <AltitudeMeters>6.19999980926513671875</AltitudeMeters>
            <DistanceMeters>NAN</DistanceMeters>
          </Trackpoint>
          <Trackpoint>
            <Time>2022-07-09T09:15:11.000Z</Time>
            <Position>
              <LatitudeDegrees>43.3256335370242595672607421875</LatitudeDegrees>
              <LongitudeDegrees>-1.92449226044118404388427734375</LongitudeDegrees>
            </Position>
            <AltitudeMeters>6.19999980926513671875</AltitudeMeters>
            <DistanceMeters>NAN</DistanceMeters>
          </Trackpoint>
          <Trackpoint>
            <Time>2022-07-09T09:15:12.000Z</Time>
            <Position>
              <LatitudeDegrees>43.3256377279758453369140625</LatitudeDegrees>
              <LongitudeDegrees>-1.9244911707937717437744140625</LongitudeDegrees>
            </Position>
            <AltitudeMeters>6.400000095367431640625</AltitudeMeters>
            <DistanceMeters>NAN</DistanceMeters>
          </Trackpoint>
          <Trackpoint>
            <Time>2022-07-09T09:15:13.000Z</Time>
            <Position>
              <LatitudeDegrees>43.32560621201992034912109375</LatitudeDegrees>
              <LongitudeDegrees>-1.92449158988893032073974609375</LongitudeDegrees>
            </Position>
            <AltitudeMeters>6.400000095367431640625</AltitudeMeters>
            <DistanceMeters>NAN</DistanceMeters>
          </Trackpoint>
          <Trackpoint>
            <Time>2022-07-09T09:15:15.000Z</Time>
            <Position>
              <LatitudeDegrees>43.32556723617017269134521484375</LatitudeDegrees>
              <LongitudeDegrees>-1.92450282163918018341064453125</LongitudeDegrees>
            </Position>
            <AltitudeMeters>6.599999904632568359375</AltitudeMeters>
            <DistanceMeters>NAN</DistanceMeters>
          </Trackpoint>
          <Trackpoint>
            <Time>2022-07-09T09:15:18.000Z</Time>
            <Position>
              <LatitudeDegrees>43.32554192282259464263916015625</LatitudeDegrees>
              <LongitudeDegrees>-1.92442554049193859100341796875</LongitudeDegrees>
            </Position>
            <AltitudeMeters>6.599999904632568359375</AltitudeMeters>
            <DistanceMeters>NAN</DistanceMeters>
          </Trackpoint>
          <Trackpoint>
            <Time>2022-07-09T09:15:20.000Z</Time>
            <Position>
              <LatitudeDegrees>43.3254786394536495208740234375</LatitudeDegrees>
              <LongitudeDegrees>-1.92437298595905303955078125</LongitudeDegrees>
            </Position>
            <AltitudeMeters>6.80000019073486328125</AltitudeMeters>
            <DistanceMeters>NAN</DistanceMeters>
          </Trackpoint>
          <Trackpoint>
            <Time>2022-07-09T09:15:21.000Z</Time>
            <Position>
              <LatitudeDegrees>43.32549087703227996826171875</LatitudeDegrees>
              <LongitudeDegrees>-1.92436502315104007720947265625</LongitudeDegrees>
            </Position>
            <AltitudeMeters>6.80000019073486328125</AltitudeMeters>
            <DistanceMeters>NAN</DistanceMeters>
          </Trackpoint>
          <Trackpoint>
            <Time>2022-07-09T09:15:22.000Z</Time>
            <Position>
              <LatitudeDegrees>43.32547889091074466705322265625</LatitudeDegrees>
              <LongitudeDegrees>-1.9243972934782505035400390625</LongitudeDegrees>
            </Position>
            <AltitudeMeters>6.80000019073486328125</AltitudeMeters>
            <DistanceMeters>NAN</DistanceMeters>
          </Trackpoint>
          <Trackpoint>
            <Time>2022-07-09T09:15:23.000Z</Time>
            <Position>
              <LatitudeDegrees>43.3254675753414630889892578125</LatitudeDegrees>
              <LongitudeDegrees>-1.924413554370403289794921875</LongitudeDegrees>
            </Position>
            <AltitudeMeters>6.80000019073486328125</AltitudeMeters>
            <DistanceMeters>NAN</DistanceMeters>
          </Trackpoint>
          <Trackpoint>
            <Time>2022-07-09T09:15:25.000Z</Time>
            <Position>
              <LatitudeDegrees>43.32547285594046115875244140625</LatitudeDegrees>
              <LongitudeDegrees>-1.92443844862282276153564453125</LongitudeDegrees>
            </Position>
            <AltitudeMeters>6.80000019073486328125</AltitudeMeters>
            <DistanceMeters>NAN</DistanceMeters>
          </Trackpoint>
          <Trackpoint>
            <Time>2022-07-09T09:15:29.000Z</Time>
            <Position>
              <LatitudeDegrees>43.32555064000189304351806640625</LatitudeDegrees>
              <LongitudeDegrees>-1.92446677945554256439208984375</LongitudeDegrees>
            </Position>
            <AltitudeMeters>7.400000095367431640625</AltitudeMeters>
            <DistanceMeters>NAN</DistanceMeters>
          </Trackpoint>
          <Trackpoint>
            <Time>2022-07-09T09:15:30.000Z</Time>
            <Position>
              <LatitudeDegrees>43.32556405104696750640869140625</LatitudeDegrees>
              <LongitudeDegrees>-1.92446996457874774932861328125</LongitudeDegrees>
            </Position>
            <AltitudeMeters>7.599999904632568359375</AltitudeMeters>
            <DistanceMeters>NAN</DistanceMeters>
          </Trackpoint>
          <Trackpoint>
            <Time>2022-07-09T09:15:31.000Z</Time>
            <Position>
              <LatitudeDegrees>43.32559808157384395599365234375</LatitudeDegrees>
              <LongitudeDegrees>-1.9244301505386829376220703125</LongitudeDegrees>
            </Position>
            <AltitudeMeters>8</AltitudeMeters>
            <DistanceMeters>NAN</DistanceMeters>
          </Trackpoint>
          <Trackpoint>
            <Time>2022-07-09T09:15:33.000Z</Time>
            <Position>
              <LatitudeDegrees>43.32564334385097026824951171875</LatitudeDegrees>
              <LongitudeDegrees>-1.924459822475910186767578125</LongitudeDegrees>
            </Position>
            <AltitudeMeters>8.3999996185302734375</AltitudeMeters>
            <DistanceMeters>NAN</DistanceMeters>
          </Trackpoint>
          <Trackpoint>
            <Time>2022-07-09T09:15:35.000Z</Time>
            <Position>
              <LatitudeDegrees>43.325520046055316925048828125</LatitudeDegrees>
              <LongitudeDegrees>-1.92452679388225078582763671875</LongitudeDegrees>
            </Position>
            <AltitudeMeters>9.19999980926513671875</AltitudeMeters>
            <DistanceMeters>NAN</DistanceMeters>
          </Trackpoint>
          <Trackpoint>
            <Time>2022-07-09T09:15:36.000Z</Time>
            <Position>
              <LatitudeDegrees>43.32553915679454803466796875</LatitudeDegrees>
              <LongitudeDegrees>-1.92454506643116474151611328125</LongitudeDegrees>
            </Position>
            <AltitudeMeters>9.6000003814697265625</AltitudeMeters>
            <DistanceMeters>NAN</DistanceMeters>
          </Trackpoint>
          <Trackpoint>
            <Time>2022-07-09T09:16:45.000Z</Time>
            <Position>
              <LatitudeDegrees>43.3255986683070659637451171875</LatitudeDegrees>
              <LongitudeDegrees>-1.92453785799443721771240234375</LongitudeDegrees>
            </Position>
            <AltitudeMeters>10.3999996185302734375</AltitudeMeters>
            <DistanceMeters>NAN</DistanceMeters>
          </Trackpoint>
          <Trackpoint>
            <Time>2022-07-09T09:16:46.000Z</Time>
            <Position>
              <LatitudeDegrees>43.32560311071574687957763671875</LatitudeDegrees>
              <LongitudeDegrees>-1.924525201320648193359375</LongitudeDegrees>
            </Position>
            <AltitudeMeters>10.19999980926513671875</AltitudeMeters>
            <DistanceMeters>NAN</DistanceMeters>
          </Trackpoint>
          <Trackpoint>
            <Time>2022-07-09T09:16:47.000Z</Time>
            <Position>
              <LatitudeDegrees>43.3255936391651630401611328125</LatitudeDegrees>
              <LongitudeDegrees>-1.924524866044521331787109375</LongitudeDegrees>
            </Position>
            <AltitudeMeters>10</AltitudeMeters>
            <DistanceMeters>NAN</DistanceMeters>
          </Trackpoint>
          <Trackpoint>
            <Time>2022-07-09T09:16:49.000Z</Time>
            <Position>
              <LatitudeDegrees>43.325570337474346160888671875</LatitudeDegrees>
              <LongitudeDegrees>-1.92454204894602298736572265625</LongitudeDegrees>
            </Position>
            <AltitudeMeters>9.19999980926513671875</AltitudeMeters>
            <DistanceMeters>NAN</DistanceMeters>
          </Trackpoint>
          <Trackpoint>
            <Time>2022-07-09T09:16:50.000Z</Time>
            <Position>
              <LatitudeDegrees>43.32556664943695068359375</LatitudeDegrees>
              <LongitudeDegrees>-1.92453048191964626312255859375</LongitudeDegrees>
            </Position>
            <AltitudeMeters>8.80000019073486328125</AltitudeMeters>
            <DistanceMeters>NAN</DistanceMeters>
          </Trackpoint>
          <Trackpoint>
            <Time>2022-07-09T09:16:52.000Z</Time>
            <Position>
              <LatitudeDegrees>43.325563967227935791015625</LatitudeDegrees>
              <LongitudeDegrees>-1.92452193237841129302978515625</LongitudeDegrees>
            </Position>
            <AltitudeMeters>8.19999980926513671875</AltitudeMeters>
            <DistanceMeters>NAN</DistanceMeters>
          </Trackpoint>
          <Trackpoint>
            <Time>2022-07-09T09:16:54.000Z</Time>
            <Position>
              <LatitudeDegrees>43.325543515384197235107421875</LatitudeDegrees>
              <LongitudeDegrees>-1.92452746443450450897216796875</LongitudeDegrees>
            </Position>
            <AltitudeMeters>7.19999980926513671875</AltitudeMeters>
            <DistanceMeters>NAN</DistanceMeters>
          </Trackpoint>
          <Trackpoint>
            <Time>2022-07-09T09:16:55.000Z</Time>
            <Position>
              <LatitudeDegrees>43.32553219981491565704345703125</LatitudeDegrees>
              <LongitudeDegrees>-1.9245277158915996551513671875</LongitudeDegrees>
            </Position>
            <AltitudeMeters>6.80000019073486328125</AltitudeMeters>
            <DistanceMeters>NAN</DistanceMeters>
          </Trackpoint>
          <Trackpoint>
            <Time>2022-07-09T09:16:57.000Z</Time>
            <Position>
              <LatitudeDegrees>43.32552482374012470245361328125</LatitudeDegrees>
              <LongitudeDegrees>-1.924521513283252716064453125</LongitudeDegrees>
            </Position>
            <AltitudeMeters>6.599999904632568359375</AltitudeMeters>
            <DistanceMeters>NAN</DistanceMeters>
          </Trackpoint>
          <Trackpoint>
            <Time>2022-07-09T09:16:59.000Z</Time>
            <Position>
              <LatitudeDegrees>43.32551258616149425506591796875</LatitudeDegrees>
              <LongitudeDegrees>-1.92448429763317108154296875</LongitudeDegrees>
            </Position>
            <AltitudeMeters>6.19999980926513671875</AltitudeMeters>
            <DistanceMeters>NAN</DistanceMeters>
          </Trackpoint>
          <Trackpoint>
            <Time>2022-07-09T09:17:00.000Z</Time>
            <Position>
              <LatitudeDegrees>43.32551107741892337799072265625</LatitudeDegrees>
              <LongitudeDegrees>-1.924455128610134124755859375</LongitudeDegrees>
            </Position>
            <AltitudeMeters>6.19999980926513671875</AltitudeMeters>
            <DistanceMeters>NAN</DistanceMeters>
          </Trackpoint>
          <Trackpoint>
            <Time>2022-07-09T09:17:22.000Z</Time>
            <Position>
              <LatitudeDegrees>43.32558098249137401580810546875</LatitudeDegrees>
              <LongitudeDegrees>-1.92454506643116474151611328125</LongitudeDegrees>
            </Position>
            <AltitudeMeters>8.19999980926513671875</AltitudeMeters>
            <DistanceMeters>NAN</DistanceMeters>
          </Trackpoint>
          <Trackpoint>
            <Time>2022-07-09T09:17:23.000Z</Time>
            <Position>
              <LatitudeDegrees>43.3255815692245960235595703125</LatitudeDegrees>
              <LongitudeDegrees>-1.92455613054335117340087890625</LongitudeDegrees>
            </Position>
            <AltitudeMeters>10.3999996185302734375</AltitudeMeters>
            <DistanceMeters>NAN</DistanceMeters>
          </Trackpoint>
          <Trackpoint>
            <Time>2022-07-09T09:17:24.000Z</Time>
            <Position>
              <LatitudeDegrees>43.3255814015865325927734375</LatitudeDegrees>
              <LongitudeDegrees>-1.92456199787557125091552734375</LongitudeDegrees>
            </Position>
            <AltitudeMeters>10.3999996185302734375</AltitudeMeters>
            <DistanceMeters>NAN</DistanceMeters>
          </Trackpoint>
          <Trackpoint>
            <Time>2022-07-09T09:17:26.000Z</Time>
            <Position>
              <LatitudeDegrees>43.325584419071674346923828125</LatitudeDegrees>
              <LongitudeDegrees>-1.92458890378475189208984375</LongitudeDegrees>
            </Position>
            <AltitudeMeters>10.6000003814697265625</AltitudeMeters>
            <DistanceMeters>NAN</DistanceMeters>
          </Trackpoint>
          <Trackpoint>
            <Time>2022-07-09T09:17:30.000Z</Time>
            <Position>
              <LatitudeDegrees>43.3255916275084018707275390625</LatitudeDegrees>
              <LongitudeDegrees>-1.92461865954101085662841796875</LongitudeDegrees>
            </Position>
            <AltitudeMeters>11.19999980926513671875</AltitudeMeters>
            <DistanceMeters>NAN</DistanceMeters>
          </Trackpoint>
          <Trackpoint>
            <Time>2022-07-09T09:17:31.000Z</Time>
            <Position>
              <LatitudeDegrees>43.32558735273778438568115234375</LatitudeDegrees>
              <LongitudeDegrees>-1.92462804727256298065185546875</LongitudeDegrees>
            </Position>
            <AltitudeMeters>11.6000003814697265625</AltitudeMeters>
            <DistanceMeters>NAN</DistanceMeters>
          </Trackpoint>
          <Trackpoint>
            <Time>2022-07-09T09:17:32.000Z</Time>
            <Position>
              <LatitudeDegrees>43.3255894482135772705078125</LatitudeDegrees>
              <LongitudeDegrees>-1.92463290877640247344970703125</LongitudeDegrees>
            </Position>
            <AltitudeMeters>11.80000019073486328125</AltitudeMeters>
            <DistanceMeters>NAN</DistanceMeters>
          </Trackpoint>
          <Trackpoint>
            <Time>2022-07-09T09:17:36.000Z</Time>
            <Position>
              <LatitudeDegrees>43.325603194534778594970703125</LatitudeDegrees>
              <LongitudeDegrees>-1.9246460683643817901611328125</LongitudeDegrees>
            </Position>
            <AltitudeMeters>12.6000003814697265625</AltitudeMeters>
            <DistanceMeters>NAN</DistanceMeters>
          </Trackpoint>
          <Trackpoint>
            <Time>2022-07-09T09:17:39.000Z</Time>
            <Position>
              <LatitudeDegrees>43.325611241161823272705078125</LatitudeDegrees>
              <LongitudeDegrees>-1.9246604852378368377685546875</LongitudeDegrees>
            </Position>
            <AltitudeMeters>13.19999980926513671875</AltitudeMeters>
            <DistanceMeters>NAN</DistanceMeters>
          </Trackpoint>
          <Trackpoint>
            <Time>2022-07-09T09:17:42.000Z</Time>
            <Position>
              <LatitudeDegrees>43.3256063796579837799072265625</LatitudeDegrees>
              <LongitudeDegrees>-1.92467833869159221649169921875</LongitudeDegrees>
            </Position>
            <AltitudeMeters>13.6000003814697265625</AltitudeMeters>
            <DistanceMeters>NAN</DistanceMeters>
          </Trackpoint>
          <Trackpoint>
            <Time>2022-07-09T09:21:21.000Z</Time>
            <Position>
              <LatitudeDegrees>43.32559372298419475555419921875</LatitudeDegrees>
              <LongitudeDegrees>-1.92496600560843944549560546875</LongitudeDegrees>
            </Position>
            <AltitudeMeters>14.3999996185302734375</AltitudeMeters>
            <DistanceMeters>NAN</DistanceMeters>
          </Trackpoint>
          <Trackpoint>
            <Time>2022-07-09T09:21:22.000Z</Time>
            <Position>
              <LatitudeDegrees>43.32560176961123943328857421875</LatitudeDegrees>
              <LongitudeDegrees>-1.9249773211777210235595703125</LongitudeDegrees>
            </Position>
            <AltitudeMeters>14.6000003814697265625</AltitudeMeters>
            <DistanceMeters>NAN</DistanceMeters>
          </Trackpoint>
          <Trackpoint>
            <Time>2022-07-09T09:21:23.000Z</Time>
            <Position>
              <LatitudeDegrees>43.32560461945831775665283203125</LatitudeDegrees>
              <LongitudeDegrees>-1.9249846972525119781494140625</LongitudeDegrees>
            </Position>
            <AltitudeMeters>14.80000019073486328125</AltitudeMeters>
            <DistanceMeters>NAN</DistanceMeters>
          </Trackpoint>
          <Trackpoint>
            <Time>2022-07-09T09:21:27.000Z</Time>
            <Position>
              <LatitudeDegrees>43.32558819092810153961181640625</LatitudeDegrees>
              <LongitudeDegrees>-1.9249672628939151763916015625</LongitudeDegrees>
            </Position>
            <AltitudeMeters>15.3999996185302734375</AltitudeMeters>
            <DistanceMeters>NAN</DistanceMeters>
          </Trackpoint>
          <Trackpoint>
            <Time>2022-07-09T09:22:44.000Z</Time>
            <Position>
              <LatitudeDegrees>43.32589329220354557037353515625</LatitudeDegrees>
              <LongitudeDegrees>-1.92550362087786197662353515625</LongitudeDegrees>
            </Position>
            <AltitudeMeters>20</AltitudeMeters>
            <DistanceMeters>NAN</DistanceMeters>
          </Trackpoint>
          <Trackpoint>
            <Time>2022-07-09T09:22:47.000Z</Time>
            <Position>
              <LatitudeDegrees>43.32592497579753398895263671875</LatitudeDegrees>
              <LongitudeDegrees>-1.92553530447185039520263671875</LongitudeDegrees>
            </Position>
            <AltitudeMeters>20.200000762939453125</AltitudeMeters>
            <DistanceMeters>NAN</DistanceMeters>
          </Trackpoint>
          <Trackpoint>
            <Time>2022-07-09T09:22:54.000Z</Time>
            <Position>
              <LatitudeDegrees>43.32596604712307453155517578125</LatitudeDegrees>
              <LongitudeDegrees>-1.92568265832960605621337890625</LongitudeDegrees>
            </Position>
            <AltitudeMeters>20.799999237060546875</AltitudeMeters>
            <DistanceMeters>NAN</DistanceMeters>
          </Trackpoint>
          <Trackpoint>
            <Time>2022-07-09T09:22:59.000Z</Time>
            <Position>
              <LatitudeDegrees>43.32600225694477558135986328125</LatitudeDegrees>
              <LongitudeDegrees>-1.92581861279904842376708984375</LongitudeDegrees>
            </Position>
            <AltitudeMeters>20.6000003814697265625</AltitudeMeters>
            <DistanceMeters>NAN</DistanceMeters>
          </Trackpoint>
          <Trackpoint>
            <Time>2022-07-09T09:23:05.000Z</Time>
            <Position>
              <LatitudeDegrees>43.325994797050952911376953125</LatitudeDegrees>
              <LongitudeDegrees>-1.9259985722601413726806640625</LongitudeDegrees>
            </Position>
            <AltitudeMeters>20.6000003814697265625</AltitudeMeters>
            <DistanceMeters>NAN</DistanceMeters>
          </Trackpoint>
          <Trackpoint>
            <Time>2022-07-09T09:23:09.000Z</Time>
            <Position>
              <LatitudeDegrees>43.3259768597781658172607421875</LatitudeDegrees>
              <LongitudeDegrees>-1.926110722124576568603515625</LongitudeDegrees>
            </Position>
            <AltitudeMeters>20.799999237060546875</AltitudeMeters>
            <DistanceMeters>NAN</DistanceMeters>
          </Trackpoint>
          <Trackpoint>
            <Time>2022-07-09T09:23:11.000Z</Time>
            <Position>
              <LatitudeDegrees>43.32599454559385776519775390625</LatitudeDegrees>
              <LongitudeDegrees>-1.92612471990287303924560546875</LongitudeDegrees>
            </Position>
            <AltitudeMeters>20.799999237060546875</AltitudeMeters>
            <DistanceMeters>NAN</DistanceMeters>
          </Trackpoint>
          <Trackpoint>
            <Time>2022-07-09T09:23:12.000Z</Time>
            <Position>
              <LatitudeDegrees>43.3260023407638072967529296875</LatitudeDegrees>
              <LongitudeDegrees>-1.9261175952851772308349609375</LongitudeDegrees>
            </Position>
            <AltitudeMeters>21</AltitudeMeters>
            <DistanceMeters>NAN</DistanceMeters>
          </Trackpoint>
          <Trackpoint>
            <Time>2022-07-09T09:23:13.000Z</Time>
            <Position>
              <LatitudeDegrees>43.326002173125743865966796875</LatitudeDegrees>
              <LongitudeDegrees>-1.92611566744744777679443359375</LongitudeDegrees>
            </Position>
            <AltitudeMeters>21</AltitudeMeters>
            <DistanceMeters>NAN</DistanceMeters>
          </Trackpoint>
          <Trackpoint>
            <Time>2022-07-09T09:23:55.000Z</Time>
            <Position>
              <LatitudeDegrees>43.3259443379938602447509765625</LatitudeDegrees>
              <LongitudeDegrees>-1.926188170909881591796875</LongitudeDegrees>
            </Position>
            <AltitudeMeters>22</AltitudeMeters>
            <DistanceMeters>NAN</DistanceMeters>
          </Trackpoint>
          <Trackpoint>
            <Time>2022-07-09T09:23:56.000Z</Time>
            <Position>
              <LatitudeDegrees>43.32595112733542919158935546875</LatitudeDegrees>
              <LongitudeDegrees>-1.92621675319969654083251953125</LongitudeDegrees>
            </Position>
            <AltitudeMeters>22.200000762939453125</AltitudeMeters>
            <DistanceMeters>NAN</DistanceMeters>
          </Trackpoint>
          <Trackpoint>
            <Time>2022-07-09T09:23:57.000Z</Time>
            <Position>
              <LatitudeDegrees>43.32595816813409328460693359375</LatitudeDegrees>
              <LongitudeDegrees>-1.9262413121759891510009765625</LongitudeDegrees>
            </Position>
            <AltitudeMeters>22.3999996185302734375</AltitudeMeters>
            <DistanceMeters>NAN</DistanceMeters>
          </Trackpoint>
          <Trackpoint>
            <Time>2022-07-09T09:24:00.000Z</Time>
            <Position>
              <LatitudeDegrees>43.32600125111639499664306640625</LatitudeDegrees>
              <LongitudeDegrees>-1.92628447897732257843017578125</LongitudeDegrees>
            </Position>
            <AltitudeMeters>23.200000762939453125</AltitudeMeters>
            <DistanceMeters>NAN</DistanceMeters>
          </Trackpoint>
          <Trackpoint>
            <Time>2022-07-09T09:24:01.000Z</Time>
            <Position>
              <LatitudeDegrees>43.32601080648601055145263671875</LatitudeDegrees>
              <LongitudeDegrees>-1.9262981414794921875</LongitudeDegrees>
            </Position>
            <AltitudeMeters>23.6000003814697265625</AltitudeMeters>
            <DistanceMeters>NAN</DistanceMeters>
          </Trackpoint>
          <Trackpoint>
            <Time>2022-07-09T09:24:03.000Z</Time>
            <Position>
              <LatitudeDegrees>43.326037041842937469482421875</LatitudeDegrees>
              <LongitudeDegrees>-1.9263123907148838043212890625</LongitudeDegrees>
            </Position>
            <AltitudeMeters>24.200000762939453125</AltitudeMeters>
            <DistanceMeters>NAN</DistanceMeters>
          </Trackpoint>
          <Trackpoint>
            <Time>2022-07-09T09:24:06.000Z</Time>
            <Position>
              <LatitudeDegrees>43.32607484422624111175537109375</LatitudeDegrees>
              <LongitudeDegrees>-1.92635111510753631591796875</LongitudeDegrees>
            </Position>
            <AltitudeMeters>25.200000762939453125</AltitudeMeters>
            <DistanceMeters>NAN</DistanceMeters>
          </Trackpoint>
          <Trackpoint>
            <Time>2022-07-09T09:24:07.000Z</Time>
            <Position>
              <LatitudeDegrees>43.3260885067284107208251953125</LatitudeDegrees>
              <LongitudeDegrees>-1.9263616763055324554443359375</LongitudeDegrees>
            </Position>
            <AltitudeMeters>25.3999996185302734375</AltitudeMeters>
            <DistanceMeters>NAN</DistanceMeters>
          </Trackpoint>
          <Trackpoint>
            <Time>2022-07-09T09:24:10.000Z</Time>
            <Position>
              <LatitudeDegrees>43.326124213635921478271484375</LatitudeDegrees>
              <LongitudeDegrees>-1.9264012388885021209716796875</LongitudeDegrees>
            </Position>
            <AltitudeMeters>26</AltitudeMeters>
            <DistanceMeters>NAN</DistanceMeters>
          </Trackpoint>
          <Trackpoint>
            <Time>2022-07-09T09:24:12.000Z</Time>
            <Position>
              <LatitudeDegrees>43.32617140375077724456787109375</LatitudeDegrees>
              <LongitudeDegrees>-1.92642965354025363922119140625</LongitudeDegrees>
            </Position>
            <AltitudeMeters>26.6000003814697265625</AltitudeMeters>
            <DistanceMeters>NAN</DistanceMeters>
          </Trackpoint>
          <Trackpoint>
            <Time>2022-07-09T09:24:14.000Z</Time>
            <Position>
              <LatitudeDegrees>43.3262063562870025634765625</LatitudeDegrees>
              <LongitudeDegrees>-1.926440298557281494140625</LongitudeDegrees>
            </Position>
            <AltitudeMeters>27</AltitudeMeters>
            <DistanceMeters>NAN</DistanceMeters>
          </Trackpoint>
          <Trackpoint>
            <Time>2022-07-09T09:24:15.000Z</Time>
            <Position>
              <LatitudeDegrees>43.3262108825147151947021484375</LatitudeDegrees>
              <LongitudeDegrees>-1.9264418072998523712158203125</LongitudeDegrees>
            </Position>
            <AltitudeMeters>27.200000762939453125</AltitudeMeters>
            <DistanceMeters>NAN</DistanceMeters>
          </Trackpoint>
          <Trackpoint>
            <Time>2022-07-09T09:24:17.000Z</Time>
            <Position>
              <LatitudeDegrees>43.32623242400586605072021484375</LatitudeDegrees>
              <LongitudeDegrees>-1.9264255464076995849609375</LongitudeDegrees>
            </Position>
            <AltitudeMeters>27.3999996185302734375</AltitudeMeters>
            <DistanceMeters>NAN</DistanceMeters>
          </Trackpoint>
          <Trackpoint>
            <Time>2022-07-09T09:24:18.000Z</Time>
            <Position>
              <LatitudeDegrees>43.32624030299484729766845703125</LatitudeDegrees>
              <LongitudeDegrees>-1.926429569721221923828125</LongitudeDegrees>
            </Position>
            <AltitudeMeters>27.799999237060546875</AltitudeMeters>
            <DistanceMeters>NAN</DistanceMeters>
          </Trackpoint>
          <Trackpoint>
            <Time>2022-07-09T09:24:20.000Z</Time>
            <Position>
              <LatitudeDegrees>43.32626092247664928436279296875</LatitudeDegrees>
              <LongitudeDegrees>-1.92643920890986919403076171875</LongitudeDegrees>
            </Position>
            <AltitudeMeters>28.200000762939453125</AltitudeMeters>
            <DistanceMeters>NAN</DistanceMeters>
          </Trackpoint>
          <Trackpoint>
            <Time>2022-07-09T09:24:24.000Z</Time>
            <Position>
              <LatitudeDegrees>43.32627248950302600860595703125</LatitudeDegrees>
              <LongitudeDegrees>-1.9265296496450901031494140625</LongitudeDegrees>
            </Position>
            <AltitudeMeters>28.799999237060546875</AltitudeMeters>
            <DistanceMeters>NAN</DistanceMeters>
          </Trackpoint>
          <Trackpoint>
            <Time>2022-07-09T09:24:25.000Z</Time>
            <Position>
              <LatitudeDegrees>43.32627517171204090118408203125</LatitudeDegrees>
              <LongitudeDegrees>-1.9265440665185451507568359375</LongitudeDegrees>
            </Position>
            <AltitudeMeters>29</AltitudeMeters>
            <DistanceMeters>NAN</DistanceMeters>
          </Trackpoint>
          <Trackpoint>
            <Time>2022-07-09T09:24:31.000Z</Time>
            <Position>
              <LatitudeDegrees>43.326298892498016357421875</LatitudeDegrees>
              <LongitudeDegrees>-1.926652528345584869384765625</LongitudeDegrees>
            </Position>
            <AltitudeMeters>30</AltitudeMeters>
            <DistanceMeters>NAN</DistanceMeters>
          </Trackpoint>
          <Trackpoint>
            <Time>2022-07-09T09:24:36.000Z</Time>
            <Position>
              <LatitudeDegrees>43.3263161592185497283935546875</LatitudeDegrees>
              <LongitudeDegrees>-1.92672033794224262237548828125</LongitudeDegrees>
            </Position>
            <AltitudeMeters>30.6000003814697265625</AltitudeMeters>
            <DistanceMeters>NAN</DistanceMeters>
          </Trackpoint>
          <Trackpoint>
            <Time>2022-07-09T09:24:38.000Z</Time>
            <Position>
              <LatitudeDegrees>43.32632261328399181365966796875</LatitudeDegrees>
              <LongitudeDegrees>-1.9267509318888187408447265625</LongitudeDegrees>
            </Position>
            <AltitudeMeters>30.799999237060546875</AltitudeMeters>
            <DistanceMeters>NAN</DistanceMeters>
          </Trackpoint>
          <Trackpoint>
            <Time>2022-07-09T09:24:41.000Z</Time>
            <Position>
              <LatitudeDegrees>43.3263352699577808380126953125</LatitudeDegrees>
              <LongitudeDegrees>-1.926794014871120452880859375</LongitudeDegrees>
            </Position>
            <AltitudeMeters>31</AltitudeMeters>
            <DistanceMeters>NAN</DistanceMeters>
          </Trackpoint>
          <Trackpoint>
            <Time>2022-07-09T09:24:42.000Z</Time>
            <Position>
              <LatitudeDegrees>43.3263406343758106231689453125</LatitudeDegrees>
              <LongitudeDegrees>-1.926808096468448638916015625</LongitudeDegrees>
            </Position>
            <AltitudeMeters>31.200000762939453125</AltitudeMeters>
            <DistanceMeters>NAN</DistanceMeters>
          </Trackpoint>
          <Trackpoint>
            <Time>2022-07-09T09:24:44.000Z</Time>
            <Position>
              <LatitudeDegrees>43.32635412923991680145263671875</LatitudeDegrees>
              <LongitudeDegrees>-1.92682896740734577178955078125</LongitudeDegrees>
            </Position>
            <AltitudeMeters>31.3999996185302734375</AltitudeMeters>
            <DistanceMeters>NAN</DistanceMeters>
          </Trackpoint>
          <Trackpoint>
            <Time>2022-07-09T09:24:47.000Z</Time>
            <Position>
              <LatitudeDegrees>43.326349519193172454833984375</LatitudeDegrees>
              <LongitudeDegrees>-1.9268652610480785369873046875</LongitudeDegrees>
            </Position>
            <AltitudeMeters>31.799999237060546875</AltitudeMeters>
            <DistanceMeters>NAN</DistanceMeters>
          </Trackpoint>
          <Trackpoint>
            <Time>2022-07-09T09:24:49.000Z</Time>
            <Position>
              <LatitudeDegrees>43.32634641788899898529052734375</LatitudeDegrees>
              <LongitudeDegrees>-1.9268847070634365081787109375</LongitudeDegrees>
            </Position>
            <AltitudeMeters>32</AltitudeMeters>
            <DistanceMeters>NAN</DistanceMeters>
          </Trackpoint>
          <Trackpoint>
            <Time>2022-07-09T09:24:51.000Z</Time>
            <Position>
              <LatitudeDegrees>43.3263339288532733917236328125</LatitudeDegrees>
              <LongitudeDegrees>-1.92689987830817699432373046875</LongitudeDegrees>
            </Position>
            <AltitudeMeters>32.200000762939453125</AltitudeMeters>
            <DistanceMeters>NAN</DistanceMeters>
          </Trackpoint>
          <Trackpoint>
            <Time>2022-07-09T09:24:52.000Z</Time>
            <Position>
              <LatitudeDegrees>43.3263349346816539764404296875</LatitudeDegrees>
              <LongitudeDegrees>-1.92690691910684108734130859375</LongitudeDegrees>
            </Position>
            <AltitudeMeters>32.59999847412109375</AltitudeMeters>
            <DistanceMeters>NAN</DistanceMeters>
          </Trackpoint>
          <Trackpoint>
            <Time>2022-07-09T09:24:55.000Z</Time>
            <Position>
              <LatitudeDegrees>43.3263366110622882843017578125</LatitudeDegrees>
              <LongitudeDegrees>-1.92693005315959453582763671875</LongitudeDegrees>
            </Position>
            <AltitudeMeters>33.200000762939453125</AltitudeMeters>
            <DistanceMeters>NAN</DistanceMeters>
          </Trackpoint>
          <Trackpoint>
            <Time>2022-07-09T09:24:59.000Z</Time>
            <Position>
              <LatitudeDegrees>43.3263402990996837615966796875</LatitudeDegrees>
              <LongitudeDegrees>-1.9270033948123455047607421875</LongitudeDegrees>
            </Position>
            <AltitudeMeters>33.799999237060546875</AltitudeMeters>
            <DistanceMeters>NAN</DistanceMeters>
          </Trackpoint>
          <Trackpoint>
            <Time>2022-07-09T09:25:01.000Z</Time>
            <Position>
              <LatitudeDegrees>43.32634356804192066192626953125</LatitudeDegrees>
              <LongitudeDegrees>-1.92703834734857082366943359375</LongitudeDegrees>
            </Position>
            <AltitudeMeters>34.200000762939453125</AltitudeMeters>
            <DistanceMeters>NAN</DistanceMeters>
          </Trackpoint>
          <Trackpoint>
            <Time>2022-07-09T09:25:02.000Z</Time>
            <Position>
              <LatitudeDegrees>43.326341472566127777099609375</LatitudeDegrees>
              <LongitudeDegrees>-1.92704790271818637847900390625</LongitudeDegrees>
            </Position>
            <AltitudeMeters>34.59999847412109375</AltitudeMeters>
            <DistanceMeters>NAN</DistanceMeters>
          </Trackpoint>
          <Trackpoint>
            <Time>2022-07-09T09:25:03.000Z</Time>
            <Position>
              <LatitudeDegrees>43.32633803598582744598388671875</LatitudeDegrees>
              <LongitudeDegrees>-1.9270597212016582489013671875</LongitudeDegrees>
            </Position>
            <AltitudeMeters>34.799999237060546875</AltitudeMeters>
            <DistanceMeters>NAN</DistanceMeters>
          </Trackpoint>
          <Trackpoint>
            <Time>2022-07-09T09:25:05.000Z</Time>
            <Position>
              <LatitudeDegrees>43.32632764242589473724365234375</LatitudeDegrees>
              <LongitudeDegrees>-1.92708059214055538177490234375</LongitudeDegrees>
            </Position>
            <AltitudeMeters>35.200000762939453125</AltitudeMeters>
            <DistanceMeters>NAN</DistanceMeters>
          </Trackpoint>
          <Trackpoint>
            <Time>2022-07-09T09:25:06.000Z</Time>
            <Position>
              <LatitudeDegrees>43.32632630132138729095458984375</LatitudeDegrees>
              <LongitudeDegrees>-1.92709433846175670623779296875</LongitudeDegrees>
            </Position>
            <AltitudeMeters>35.40000152587890625</AltitudeMeters>
            <DistanceMeters>NAN</DistanceMeters>
          </Trackpoint>
          <Trackpoint>
            <Time>2022-07-09T09:25:10.000Z</Time>
            <Position>
              <LatitudeDegrees>43.32632278092205524444580078125</LatitudeDegrees>
              <LongitudeDegrees>-1.927133314311504364013671875</LongitudeDegrees>
            </Position>
            <AltitudeMeters>36.40000152587890625</AltitudeMeters>
            <DistanceMeters>NAN</DistanceMeters>
          </Trackpoint>
          <Trackpoint>
            <Time>2022-07-09T09:25:12.000Z</Time>
            <Position>
              <LatitudeDegrees>43.326319344341754913330078125</LatitudeDegrees>
              <LongitudeDegrees>-1.92715452052652835845947265625</LongitudeDegrees>
            </Position>
            <AltitudeMeters>36.59999847412109375</AltitudeMeters>
            <DistanceMeters>NAN</DistanceMeters>
          </Trackpoint>
          <Trackpoint>
            <Time>2022-07-09T09:25:13.000Z</Time>
            <Position>
              <LatitudeDegrees>43.326319344341754913330078125</LatitudeDegrees>
              <LongitudeDegrees>-1.92717446945607662200927734375</LongitudeDegrees>
            </Position>
            <AltitudeMeters>37</AltitudeMeters>
            <DistanceMeters>NAN</DistanceMeters>
          </Trackpoint>
          <Trackpoint>
            <Time>2022-07-09T09:25:18.000Z</Time>
            <Position>
              <LatitudeDegrees>43.3263399638235569000244140625</LatitudeDegrees>
              <LongitudeDegrees>-1.927302293479442596435546875</LongitudeDegrees>
            </Position>
            <AltitudeMeters>38</AltitudeMeters>
            <DistanceMeters>NAN</DistanceMeters>
          </Trackpoint>
          <Trackpoint>
            <Time>2022-07-09T09:25:20.000Z</Time>
            <Position>
              <LatitudeDegrees>43.32632965408265590667724609375</LatitudeDegrees>
              <LongitudeDegrees>-1.92734546028077602386474609375</LongitudeDegrees>
            </Position>
            <AltitudeMeters>38.40000152587890625</AltitudeMeters>
            <DistanceMeters>NAN</DistanceMeters>
          </Trackpoint>
          <Trackpoint>
            <Time>2022-07-09T09:25:25.000Z</Time>
            <Position>
              <LatitudeDegrees>43.32632797770202159881591796875</LatitudeDegrees>
              <LongitudeDegrees>-1.92742626182734966278076171875</LongitudeDegrees>
            </Position>
            <AltitudeMeters>39.200000762939453125</AltitudeMeters>
            <DistanceMeters>NAN</DistanceMeters>
          </Trackpoint>
          <Trackpoint>
            <Time>2022-07-09T09:25:26.000Z</Time>
            <Position>
              <LatitudeDegrees>43.32633250392973423004150390625</LatitudeDegrees>
              <LongitudeDegrees>-1.92744419910013675689697265625</LongitudeDegrees>
            </Position>
            <AltitudeMeters>39.40000152587890625</AltitudeMeters>
            <DistanceMeters>NAN</DistanceMeters>
          </Trackpoint>
          <Trackpoint>
            <Time>2022-07-09T09:25:30.000Z</Time>
            <Position>
              <LatitudeDegrees>43.32635982893407344818115234375</LatitudeDegrees>
              <LongitudeDegrees>-1.9274930655956268310546875</LongitudeDegrees>
            </Position>
            <AltitudeMeters>40</AltitudeMeters>
            <DistanceMeters>NAN</DistanceMeters>
          </Trackpoint>
          <Trackpoint>
            <Time>2022-07-09T09:25:31.000Z</Time>
            <Position>
              <LatitudeDegrees>43.3263704739511013031005859375</LatitudeDegrees>
              <LongitudeDegrees>-1.92750404588878154754638671875</LongitudeDegrees>
            </Position>
            <AltitudeMeters>40.200000762939453125</AltitudeMeters>
            <DistanceMeters>NAN</DistanceMeters>
          </Trackpoint>
          <Trackpoint>
            <Time>2022-07-09T09:25:32.000Z</Time>
            <Position>
              <LatitudeDegrees>43.3263781853020191192626953125</LatitudeDegrees>
              <LongitudeDegrees>-1.92752399481832981109619140625</LongitudeDegrees>
            </Position>
            <AltitudeMeters>40.200000762939453125</AltitudeMeters>
            <DistanceMeters>NAN</DistanceMeters>
          </Trackpoint>
          <Trackpoint>
            <Time>2022-07-09T09:25:33.000Z</Time>
            <Position>
              <LatitudeDegrees>43.32638849504292011260986328125</LatitudeDegrees>
              <LongitudeDegrees>-1.92754846997559070587158203125</LongitudeDegrees>
            </Position>
            <AltitudeMeters>40.40000152587890625</AltitudeMeters>
            <DistanceMeters>NAN</DistanceMeters>
          </Trackpoint>
          <Trackpoint>
            <Time>2022-07-09T09:25:34.000Z</Time>
            <Position>
              <LatitudeDegrees>43.32639746367931365966796875</LatitudeDegrees>
              <LongitudeDegrees>-1.9275708496570587158203125</LongitudeDegrees>
            </Position>
            <AltitudeMeters>40.59999847412109375</AltitudeMeters>
            <DistanceMeters>NAN</DistanceMeters>
          </Trackpoint>
          <Trackpoint>
            <Time>2022-07-09T09:25:37.000Z</Time>
            <Position>
              <LatitudeDegrees>43.326405845582485198974609375</LatitudeDegrees>
              <LongitudeDegrees>-1.92759943194687366485595703125</LongitudeDegrees>
            </Position>
            <AltitudeMeters>41.200000762939453125</AltitudeMeters>
            <DistanceMeters>NAN</DistanceMeters>
          </Trackpoint>
          <Trackpoint>
            <Time>2022-07-09T09:25:38.000Z</Time>
            <Position>
              <LatitudeDegrees>43.3263999782502651214599609375</LatitudeDegrees>
              <LongitudeDegrees>-1.92760814912617206573486328125</LongitudeDegrees>
            </Position>
            <AltitudeMeters>41.40000152587890625</AltitudeMeters>
            <DistanceMeters>NAN</DistanceMeters>
          </Trackpoint>
          <Trackpoint>
            <Time>2022-07-09T09:26:08.000Z</Time>
            <Position>
              <LatitudeDegrees>43.32639151252806186676025390625</LatitudeDegrees>
              <LongitudeDegrees>-1.92770102061331272125244140625</LongitudeDegrees>
            </Position>
            <AltitudeMeters>42.200000762939453125</AltitudeMeters>
            <DistanceMeters>NAN</DistanceMeters>
          </Trackpoint>
          <Trackpoint>
            <Time>2022-07-09T09:26:09.000Z</Time>
            <Position>
              <LatitudeDegrees>43.32639603875577449798583984375</LatitudeDegrees>
              <LongitudeDegrees>-1.92770906724035739898681640625</LongitudeDegrees>
            </Position>
            <AltitudeMeters>42.40000152587890625</AltitudeMeters>
            <DistanceMeters>NAN</DistanceMeters>
          </Trackpoint>
          <Trackpoint>
            <Time>2022-07-09T09:26:10.000Z</Time>
            <Position>
              <LatitudeDegrees>43.32638883031904697418212890625</LatitudeDegrees>
              <LongitudeDegrees>-1.927728764712810516357421875</LongitudeDegrees>
            </Position>
            <AltitudeMeters>42.59999847412109375</AltitudeMeters>
            <DistanceMeters>NAN</DistanceMeters>
          </Trackpoint>
          <Trackpoint>
            <Time>2022-07-09T09:26:14.000Z</Time>
            <Position>
              <LatitudeDegrees>43.32640458829700946807861328125</LatitudeDegrees>
              <LongitudeDegrees>-1.92779908888041973114013671875</LongitudeDegrees>
            </Position>
            <AltitudeMeters>43.200000762939453125</AltitudeMeters>
            <DistanceMeters>NAN</DistanceMeters>
          </Trackpoint>
          <Trackpoint>
            <Time>2022-07-09T09:26:15.000Z</Time>
            <Position>
              <LatitudeDegrees>43.3264056779444217681884765625</LatitudeDegrees>
              <LongitudeDegrees>-1.92781702615320682525634765625</LongitudeDegrees>
            </Position>
            <AltitudeMeters>43.40000152587890625</AltitudeMeters>
            <DistanceMeters>NAN</DistanceMeters>
          </Trackpoint>
          <Trackpoint>
            <Time>2022-07-09T09:26:20.000Z</Time>
            <Position>
              <LatitudeDegrees>43.32643526606261730194091796875</LatitudeDegrees>
              <LongitudeDegrees>-1.92788810469210147857666015625</LongitudeDegrees>
            </Position>
            <AltitudeMeters>44.59999847412109375</AltitudeMeters>
            <DistanceMeters>NAN</DistanceMeters>
          </Trackpoint>
          <Trackpoint>
            <Time>2022-07-09T09:26:22.000Z</Time>
            <Position>
              <LatitudeDegrees>43.326444737613201141357421875</LatitudeDegrees>
              <LongitudeDegrees>-1.92791610024869441986083984375</LongitudeDegrees>
            </Position>
            <AltitudeMeters>44.799999237060546875</AltitudeMeters>
            <DistanceMeters>NAN</DistanceMeters>
          </Trackpoint>
          <Trackpoint>
            <Time>2022-07-09T09:26:24.000Z</Time>
            <Position>
              <LatitudeDegrees>43.326454795897006988525390625</LatitudeDegrees>
              <LongitudeDegrees>-1.92794593982398509979248046875</LongitudeDegrees>
            </Position>
            <AltitudeMeters>45.59999847412109375</AltitudeMeters>
            <DistanceMeters>NAN</DistanceMeters>
          </Trackpoint>
          <Trackpoint>
            <Time>2022-07-09T09:26:28.000Z</Time>
            <Position>
              <LatitudeDegrees>43.3264723978936672210693359375</LatitudeDegrees>
              <LongitudeDegrees>-1.9280152581632137298583984375</LongitudeDegrees>
            </Position>
            <AltitudeMeters>46.59999847412109375</AltitudeMeters>
            <DistanceMeters>NAN</DistanceMeters>
          </Trackpoint>
          <Trackpoint>
            <Time>2022-07-09T09:26:30.000Z</Time>
            <Position>
              <LatitudeDegrees>43.32648455165326595306396484375</LatitudeDegrees>
              <LongitudeDegrees>-1.92804316990077495574951171875</LongitudeDegrees>
            </Position>
            <AltitudeMeters>47.200000762939453125</AltitudeMeters>
            <DistanceMeters>NAN</DistanceMeters>
          </Trackpoint>
          <Trackpoint>
            <Time>2022-07-09T09:26:32.000Z</Time>
            <Position>
              <LatitudeDegrees>43.32650198601186275482177734375</LatitudeDegrees>
              <LongitudeDegrees>-1.92805490456521511077880859375</LongitudeDegrees>
            </Position>
            <AltitudeMeters>47.59999847412109375</AltitudeMeters>
            <DistanceMeters>NAN</DistanceMeters>
          </Trackpoint>
          <Trackpoint>
            <Time>2022-07-09T09:26:36.000Z</Time>
            <Position>
              <LatitudeDegrees>43.32650483585894107818603515625</LatitudeDegrees>
              <LongitudeDegrees>-1.928113661706447601318359375</LongitudeDegrees>
            </Position>
            <AltitudeMeters>48.799999237060546875</AltitudeMeters>
            <DistanceMeters>NAN</DistanceMeters>
          </Trackpoint>
          <Trackpoint>
            <Time>2022-07-09T09:26:39.000Z</Time>
            <Position>
              <LatitudeDegrees>43.32651740871369838714599609375</LatitudeDegrees>
              <LongitudeDegrees>-1.92815624177455902099609375</LongitudeDegrees>
            </Position>
            <AltitudeMeters>49.59999847412109375</AltitudeMeters>
            <DistanceMeters>NAN</DistanceMeters>
          </Trackpoint>
          <Trackpoint>
            <Time>2022-07-09T09:26:40.000Z</Time>
            <Position>
              <LatitudeDegrees>43.32651925273239612579345703125</LatitudeDegrees>
              <LongitudeDegrees>-1.928171999752521514892578125</LongitudeDegrees>
            </Position>
            <AltitudeMeters>49.799999237060546875</AltitudeMeters>
            <DistanceMeters>NAN</DistanceMeters>
          </Trackpoint>
          <Trackpoint>
            <Time>2022-07-09T09:26:41.000Z</Time>
            <Position>
              <LatitudeDegrees>43.32652218639850616455078125</LatitudeDegrees>
              <LongitudeDegrees>-1.9281849078834056854248046875</LongitudeDegrees>
            </Position>
            <AltitudeMeters>50.200000762939453125</AltitudeMeters>
            <DistanceMeters>NAN</DistanceMeters>
          </Trackpoint>
          <Trackpoint>
            <Time>2022-07-09T09:26:44.000Z</Time>
            <Position>
              <LatitudeDegrees>43.3265293948352336883544921875</LatitudeDegrees>
              <LongitudeDegrees>-1.9282194413244724273681640625</LongitudeDegrees>
            </Position>
            <AltitudeMeters>51.200000762939453125</AltitudeMeters>
            <DistanceMeters>NAN</DistanceMeters>
          </Trackpoint>
          <Trackpoint>
            <Time>2022-07-09T09:26:45.000Z</Time>
            <Position>
              <LatitudeDegrees>43.3265334181487560272216796875</LatitudeDegrees>
              <LongitudeDegrees>-1.928226314485073089599609375</LongitudeDegrees>
            </Position>
            <AltitudeMeters>51.40000152587890625</AltitudeMeters>
            <DistanceMeters>NAN</DistanceMeters>
          </Trackpoint>
          <Trackpoint>
            <Time>2022-07-09T09:26:47.000Z</Time>
            <Position>
              <LatitudeDegrees>43.32653333432972431182861328125</LatitudeDegrees>
              <LongitudeDegrees>-1.92822354845702648162841796875</LongitudeDegrees>
            </Position>
            <AltitudeMeters>52</AltitudeMeters>
            <DistanceMeters>NAN</DistanceMeters>
          </Trackpoint>
          <Trackpoint>
            <Time>2022-07-09T09:28:45.000Z</Time>
            <Position>
              <LatitudeDegrees>43.32659536041319370269775390625</LatitudeDegrees>
              <LongitudeDegrees>-1.9281088002026081085205078125</LongitudeDegrees>
            </Position>
            <AltitudeMeters>54.200000762939453125</AltitudeMeters>
            <DistanceMeters>NAN</DistanceMeters>
          </Trackpoint>
          <Trackpoint>
            <Time>2022-07-09T09:28:46.000Z</Time>
            <Position>
              <LatitudeDegrees>43.326596282422542572021484375</LatitudeDegrees>
              <LongitudeDegrees>-1.92809698171913623809814453125</LongitudeDegrees>
            </Position>
            <AltitudeMeters>54.40000152587890625</AltitudeMeters>
            <DistanceMeters>NAN</DistanceMeters>
          </Trackpoint>
          <Trackpoint>
            <Time>2022-07-09T09:28:47.000Z</Time>
            <Position>
              <LatitudeDegrees>43.32660206593573093414306640625</LatitudeDegrees>
              <LongitudeDegrees>-1.92809245549142360687255859375</LongitudeDegrees>
            </Position>
            <AltitudeMeters>54.40000152587890625</AltitudeMeters>
            <DistanceMeters>NAN</DistanceMeters>
          </Trackpoint>
          <Trackpoint>
            <Time>2022-07-09T09:28:49.000Z</Time>
            <Position>
              <LatitudeDegrees>43.326617740094661712646484375</LatitudeDegrees>
              <LongitudeDegrees>-1.9280487857758998870849609375</LongitudeDegrees>
            </Position>
            <AltitudeMeters>54.59999847412109375</AltitudeMeters>
            <DistanceMeters>NAN</DistanceMeters>
          </Trackpoint>
          <Trackpoint>
            <Time>2022-07-09T09:28:54.000Z</Time>
            <Position>
              <LatitudeDegrees>43.32661866210401058197021484375</LatitudeDegrees>
              <LongitudeDegrees>-1.927947700023651123046875</LongitudeDegrees>
            </Position>
            <AltitudeMeters>54.799999237060546875</AltitudeMeters>
            <DistanceMeters>NAN</DistanceMeters>
          </Trackpoint>
          <Trackpoint>
            <Time>2022-07-09T09:29:00.000Z</Time>
            <Position>
              <LatitudeDegrees>43.3266286365687847137451171875</LatitudeDegrees>
              <LongitudeDegrees>-1.9278551638126373291015625</LongitudeDegrees>
            </Position>
            <AltitudeMeters>55</AltitudeMeters>
            <DistanceMeters>NAN</DistanceMeters>
          </Trackpoint>
          <Trackpoint>
            <Time>2022-07-09T09:29:01.000Z</Time>
            <Position>
              <LatitudeDegrees>43.3266329951584339141845703125</LatitudeDegrees>
              <LongitudeDegrees>-1.9278429262340068817138671875</LongitudeDegrees>
            </Position>
            <AltitudeMeters>55</AltitudeMeters>
            <DistanceMeters>NAN</DistanceMeters>
          </Trackpoint>
          <Trackpoint>
            <Time>2022-07-09T09:29:03.000Z</Time>
            <Position>
              <LatitudeDegrees>43.326646573841571807861328125</LatitudeDegrees>
              <LongitudeDegrees>-1.92780545912683010101318359375</LongitudeDegrees>
            </Position>
            <AltitudeMeters>55.200000762939453125</AltitudeMeters>
            <DistanceMeters>NAN</DistanceMeters>
          </Trackpoint>
          <Trackpoint>
            <Time>2022-07-09T09:29:08.000Z</Time>
            <Position>
              <LatitudeDegrees>43.32665495574474334716796875</LatitudeDegrees>
              <LongitudeDegrees>-1.92771174944937229156494140625</LongitudeDegrees>
            </Position>
            <AltitudeMeters>55.40000152587890625</AltitudeMeters>
            <DistanceMeters>NAN</DistanceMeters>
          </Trackpoint>
          <Trackpoint>
            <Time>2022-07-09T09:29:09.000Z</Time>
            <Position>
              <LatitudeDegrees>43.32665755413472652435302734375</LatitudeDegrees>
              <LongitudeDegrees>-1.92769565619528293609619140625</LongitudeDegrees>
            </Position>
            <AltitudeMeters>55.40000152587890625</AltitudeMeters>
            <DistanceMeters>NAN</DistanceMeters>
          </Trackpoint>
          <Trackpoint>
            <Time>2022-07-09T09:29:13.000Z</Time>
            <Position>
              <LatitudeDegrees>43.3266676962375640869140625</LatitudeDegrees>
              <LongitudeDegrees>-1.92762088961899280548095703125</LongitudeDegrees>
            </Position>
            <AltitudeMeters>55.59999847412109375</AltitudeMeters>
            <DistanceMeters>NAN</DistanceMeters>
          </Trackpoint>
          <Trackpoint>
            <Time>2022-07-09T09:29:22.000Z</Time>
            <Position>
              <LatitudeDegrees>43.32678101956844329833984375</LatitudeDegrees>
              <LongitudeDegrees>-1.92746498622000217437744140625</LongitudeDegrees>
            </Position>
            <AltitudeMeters>56.200000762939453125</AltitudeMeters>
            <DistanceMeters>NAN</DistanceMeters>
          </Trackpoint>
          <Trackpoint>
            <Time>2022-07-09T09:29:29.000Z</Time>
            <Position>
              <LatitudeDegrees>43.3268435485661029815673828125</LatitudeDegrees>
              <LongitudeDegrees>-1.9273638166487216949462890625</LongitudeDegrees>
            </Position>
            <AltitudeMeters>57</AltitudeMeters>
            <DistanceMeters>NAN</DistanceMeters>
          </Trackpoint>
          <Trackpoint>
            <Time>2022-07-09T09:29:33.000Z</Time>
            <Position>
              <LatitudeDegrees>43.32688068039715290069580078125</LatitudeDegrees>
              <LongitudeDegrees>-1.92727337591350078582763671875</LongitudeDegrees>
            </Position>
            <AltitudeMeters>57.40000152587890625</AltitudeMeters>
            <DistanceMeters>NAN</DistanceMeters>
          </Trackpoint>
          <Trackpoint>
            <Time>2022-07-09T09:29:36.000Z</Time>
            <Position>
              <LatitudeDegrees>43.3268956840038299560546875</LatitudeDegrees>
              <LongitudeDegrees>-1.9271981902420520782470703125</LongitudeDegrees>
            </Position>
            <AltitudeMeters>57.799999237060546875</AltitudeMeters>
            <DistanceMeters>NAN</DistanceMeters>
          </Trackpoint>
          <Trackpoint>
            <Time>2022-07-09T09:29:43.000Z</Time>
            <Position>
              <LatitudeDegrees>43.32690482027828693389892578125</LatitudeDegrees>
              <LongitudeDegrees>-1.927034072577953338623046875</LongitudeDegrees>
            </Position>
            <AltitudeMeters>58.40000152587890625</AltitudeMeters>
            <DistanceMeters>NAN</DistanceMeters>
          </Trackpoint>
          <Trackpoint>
            <Time>2022-07-09T09:29:44.000Z</Time>
            <Position>
              <LatitudeDegrees>43.32690431736409664154052734375</LatitudeDegrees>
              <LongitudeDegrees>-1.9270161353051662445068359375</LongitudeDegrees>
            </Position>
            <AltitudeMeters>58.59999847412109375</AltitudeMeters>
            <DistanceMeters>NAN</DistanceMeters>
          </Trackpoint>
          <Trackpoint>
            <Time>2022-07-09T09:29:49.000Z</Time>
            <Position>
              <LatitudeDegrees>43.32691336981952190399169921875</LatitudeDegrees>
              <LongitudeDegrees>-1.92689937539398670196533203125</LongitudeDegrees>
            </Position>
            <AltitudeMeters>59.200000762939453125</AltitudeMeters>
            <DistanceMeters>NAN</DistanceMeters>
          </Trackpoint>
          <Trackpoint>
            <Time>2022-07-09T09:29:52.000Z</Time>
            <Position>
              <LatitudeDegrees>43.32692493684589862823486328125</LatitudeDegrees>
              <LongitudeDegrees>-1.92683215253055095672607421875</LongitudeDegrees>
            </Position>
            <AltitudeMeters>59.59999847412109375</AltitudeMeters>
            <DistanceMeters>NAN</DistanceMeters>
          </Trackpoint>
          <Trackpoint>
            <Time>2022-07-09T09:29:57.000Z</Time>
            <Position>
              <LatitudeDegrees>43.3269216679036617279052734375</LatitudeDegrees>
              <LongitudeDegrees>-1.9267257861793041229248046875</LongitudeDegrees>
            </Position>
            <AltitudeMeters>60.200000762939453125</AltitudeMeters>
            <DistanceMeters>NAN</DistanceMeters>
          </Trackpoint>
          <Trackpoint>
            <Time>2022-07-09T09:30:01.000Z</Time>
            <Position>
              <LatitudeDegrees>43.3269431255757808685302734375</LatitudeDegrees>
              <LongitudeDegrees>-1.9266245327889919281005859375</LongitudeDegrees>
            </Position>
            <AltitudeMeters>60.799999237060546875</AltitudeMeters>
            <DistanceMeters>NAN</DistanceMeters>
          </Trackpoint>
          <Trackpoint>
            <Time>2022-07-09T09:30:03.000Z</Time>
            <Position>
              <LatitudeDegrees>43.326944969594478607177734375</LatitudeDegrees>
              <LongitudeDegrees>-1.92658673040568828582763671875</LongitudeDegrees>
            </Position>
            <AltitudeMeters>61.200000762939453125</AltitudeMeters>
            <DistanceMeters>NAN</DistanceMeters>
          </Trackpoint>
          <Trackpoint>
            <Time>2022-07-09T09:30:10.000Z</Time>
            <Position>
              <LatitudeDegrees>43.32697070203721523284912109375</LatitudeDegrees>
              <LongitudeDegrees>-1.92644231021404266357421875</LongitudeDegrees>
            </Position>
            <AltitudeMeters>61.799999237060546875</AltitudeMeters>
            <DistanceMeters>NAN</DistanceMeters>
          </Trackpoint>
          <Trackpoint>
            <Time>2022-07-09T09:30:11.000Z</Time>
            <Position>
              <LatitudeDegrees>43.326975144445896148681640625</LatitudeDegrees>
              <LongitudeDegrees>-1.9264161586761474609375</LongitudeDegrees>
            </Position>
            <AltitudeMeters>61.799999237060546875</AltitudeMeters>
            <DistanceMeters>NAN</DistanceMeters>
          </Trackpoint>
          <Trackpoint>
            <Time>2022-07-09T09:30:19.000Z</Time>
            <Position>
              <LatitudeDegrees>43.32697992213070392608642578125</LatitudeDegrees>
              <LongitudeDegrees>-1.92624625749886035919189453125</LongitudeDegrees>
            </Position>
            <AltitudeMeters>62.59999847412109375</AltitudeMeters>
            <DistanceMeters>NAN</DistanceMeters>
          </Trackpoint>
          <Trackpoint>
            <Time>2022-07-09T09:30:21.000Z</Time>
            <Position>
              <LatitudeDegrees>43.3269788324832916259765625</LatitudeDegrees>
              <LongitudeDegrees>-1.92620493471622467041015625</LongitudeDegrees>
            </Position>
            <AltitudeMeters>62.799999237060546875</AltitudeMeters>
            <DistanceMeters>NAN</DistanceMeters>
          </Trackpoint>
          <Trackpoint>
            <Time>2022-07-09T09:30:26.000Z</Time>
            <Position>
              <LatitudeDegrees>43.32695930264890193939208984375</LatitudeDegrees>
              <LongitudeDegrees>-1.92610912956297397613525390625</LongitudeDegrees>
            </Position>
            <AltitudeMeters>63.40000152587890625</AltitudeMeters>
            <DistanceMeters>NAN</DistanceMeters>
          </Trackpoint>
          <Trackpoint>
            <Time>2022-07-09T09:30:27.000Z</Time>
            <Position>
              <LatitudeDegrees>43.32695092074573040008544921875</LatitudeDegrees>
              <LongitudeDegrees>-1.92608817480504512786865234375</LongitudeDegrees>
            </Position>
            <AltitudeMeters>63.40000152587890625</AltitudeMeters>
            <DistanceMeters>NAN</DistanceMeters>
          </Trackpoint>
          <Trackpoint>
            <Time>2022-07-09T09:30:29.000Z</Time>
            <Position>
              <LatitudeDegrees>43.3269427902996540069580078125</LatitudeDegrees>
              <LongitudeDegrees>-1.9260545633733272552490234375</LongitudeDegrees>
            </Position>
            <AltitudeMeters>64</AltitudeMeters>
            <DistanceMeters>NAN</DistanceMeters>
          </Trackpoint>
          <Trackpoint>
            <Time>2022-07-09T09:30:31.000Z</Time>
            <Position>
              <LatitudeDegrees>43.3269233442842960357666015625</LatitudeDegrees>
              <LongitudeDegrees>-1.92602514289319515228271484375</LongitudeDegrees>
            </Position>
            <AltitudeMeters>64.1999969482421875</AltitudeMeters>
            <DistanceMeters>NAN</DistanceMeters>
          </Trackpoint>
          <Trackpoint>
            <Time>2022-07-09T09:30:38.000Z</Time>
            <Position>
              <LatitudeDegrees>43.32691068761050701141357421875</LatitudeDegrees>
              <LongitudeDegrees>-1.92586655728518962860107421875</LongitudeDegrees>
            </Position>
            <AltitudeMeters>64.8000030517578125</AltitudeMeters>
            <DistanceMeters>NAN</DistanceMeters>
          </Trackpoint>
          <Trackpoint>
            <Time>2022-07-09T09:30:41.000Z</Time>
            <Position>
              <LatitudeDegrees>43.32690037786960601806640625</LatitudeDegrees>
              <LongitudeDegrees>-1.9257923774421215057373046875</LongitudeDegrees>
            </Position>
            <AltitudeMeters>65</AltitudeMeters>
            <DistanceMeters>NAN</DistanceMeters>
          </Trackpoint>
          <Trackpoint>
            <Time>2022-07-09T09:30:45.000Z</Time>
            <Position>
              <LatitudeDegrees>43.32690364681184291839599609375</LatitudeDegrees>
              <LongitudeDegrees>-1.92569606937468051910400390625</LongitudeDegrees>
            </Position>
            <AltitudeMeters>65.40000152587890625</AltitudeMeters>
            <DistanceMeters>NAN</DistanceMeters>
          </Trackpoint>
          <Trackpoint>
            <Time>2022-07-09T09:30:50.000Z</Time>
            <Position>
              <LatitudeDegrees>43.3269116096198558807373046875</LatitudeDegrees>
              <LongitudeDegrees>-1.9256022758781909942626953125</LongitudeDegrees>
            </Position>
            <AltitudeMeters>66.1999969482421875</AltitudeMeters>
            <DistanceMeters>NAN</DistanceMeters>
          </Trackpoint>
          <Trackpoint>
            <Time>2022-07-09T09:30:52.000Z</Time>
            <Position>
              <LatitudeDegrees>43.32692041061818599700927734375</LatitudeDegrees>
              <LongitudeDegrees>-1.925556845963001251220703125</LongitudeDegrees>
            </Position>
            <AltitudeMeters>66.1999969482421875</AltitudeMeters>
            <DistanceMeters>NAN</DistanceMeters>
          </Trackpoint>
          <Trackpoint>
            <Time>2022-07-09T09:30:55.000Z</Time>
            <Position>
              <LatitudeDegrees>43.32691705785691738128662109375</LatitudeDegrees>
              <LongitudeDegrees>-1.92549808882176876068115234375</LongitudeDegrees>
            </Position>
            <AltitudeMeters>66.59999847412109375</AltitudeMeters>
            <DistanceMeters>NAN</DistanceMeters>
          </Trackpoint>
          <Trackpoint>
            <Time>2022-07-09T09:30:57.000Z</Time>
            <Position>
              <LatitudeDegrees>43.32693264819681644439697265625</LatitudeDegrees>
              <LongitudeDegrees>-1.925436817109584808349609375</LongitudeDegrees>
            </Position>
            <AltitudeMeters>66.8000030517578125</AltitudeMeters>
            <DistanceMeters>NAN</DistanceMeters>
          </Trackpoint>
          <Trackpoint>
            <Time>2022-07-09T09:31:00.000Z</Time>
            <Position>
              <LatitudeDegrees>43.32693918608129024505615234375</LatitudeDegrees>
              <LongitudeDegrees>-1.92536029033362865447998046875</LongitudeDegrees>
            </Position>
            <AltitudeMeters>67.1999969482421875</AltitudeMeters>
            <DistanceMeters>NAN</DistanceMeters>
          </Trackpoint>
          <Trackpoint>
            <Time>2022-07-09T09:31:02.000Z</Time>
            <Position>
              <LatitudeDegrees>43.3269525133073329925537109375</LatitudeDegrees>
              <LongitudeDegrees>-1.92531310021877288818359375</LongitudeDegrees>
            </Position>
            <AltitudeMeters>67.40000152587890625</AltitudeMeters>
            <DistanceMeters>NAN</DistanceMeters>
          </Trackpoint>
          <Trackpoint>
            <Time>2022-07-09T09:31:05.000Z</Time>
            <Position>
              <LatitudeDegrees>43.326966762542724609375</LatitudeDegrees>
              <LongitudeDegrees>-1.92526188679039478302001953125</LongitudeDegrees>
            </Position>
            <AltitudeMeters>67.8000030517578125</AltitudeMeters>
            <DistanceMeters>NAN</DistanceMeters>
          </Trackpoint>
          <Trackpoint>
            <Time>2022-07-09T09:31:09.000Z</Time>
            <Position>
              <LatitudeDegrees>43.32697774283587932586669921875</LatitudeDegrees>
              <LongitudeDegrees>-1.92518175579607486724853515625</LongitudeDegrees>
            </Position>
            <AltitudeMeters>68.40000152587890625</AltitudeMeters>
            <DistanceMeters>NAN</DistanceMeters>
          </Trackpoint>
          <Trackpoint>
            <Time>2022-07-09T09:31:12.000Z</Time>
            <Position>
              <LatitudeDegrees>43.32698528654873371124267578125</LatitudeDegrees>
              <LongitudeDegrees>-1.92512073554098606109619140625</LongitudeDegrees>
            </Position>
            <AltitudeMeters>68.8000030517578125</AltitudeMeters>
            <DistanceMeters>NAN</DistanceMeters>
          </Trackpoint>
          <Trackpoint>
            <Time>2022-07-09T09:31:17.000Z</Time>
            <Position>
              <LatitudeDegrees>43.32701344974339008331298828125</LatitudeDegrees>
              <LongitudeDegrees>-1.92502886988222599029541015625</LongitudeDegrees>
            </Position>
            <AltitudeMeters>69.40000152587890625</AltitudeMeters>
            <DistanceMeters>NAN</DistanceMeters>
          </Trackpoint>
          <Trackpoint>
            <Time>2022-07-09T09:31:21.000Z</Time>
            <Position>
              <LatitudeDegrees>43.32702266983687877655029296875</LatitudeDegrees>
              <LongitudeDegrees>-1.92495091818273067474365234375</LongitudeDegrees>
            </Position>
            <AltitudeMeters>70.1999969482421875</AltitudeMeters>
            <DistanceMeters>NAN</DistanceMeters>
          </Trackpoint>
          <Trackpoint>
            <Time>2022-07-09T09:31:24.000Z</Time>
            <Position>
              <LatitudeDegrees>43.32704127766191959381103515625</LatitudeDegrees>
              <LongitudeDegrees>-1.92488436587154865264892578125</LongitudeDegrees>
            </Position>
            <AltitudeMeters>70.59999847412109375</AltitudeMeters>
            <DistanceMeters>NAN</DistanceMeters>
          </Trackpoint>
          <Trackpoint>
            <Time>2022-07-09T09:31:30.000Z</Time>
            <Position>
              <LatitudeDegrees>43.32707882858812808990478515625</LatitudeDegrees>
              <LongitudeDegrees>-1.9247786700725555419921875</LongitudeDegrees>
            </Position>
            <AltitudeMeters>71.1999969482421875</AltitudeMeters>
            <DistanceMeters>NAN</DistanceMeters>
          </Trackpoint>
          <Trackpoint>
            <Time>2022-07-09T09:31:32.000Z</Time>
            <Position>
              <LatitudeDegrees>43.32709307782351970672607421875</LatitudeDegrees>
              <LongitudeDegrees>-1.92474237643182277679443359375</LongitudeDegrees>
            </Position>
            <AltitudeMeters>71.59999847412109375</AltitudeMeters>
            <DistanceMeters>NAN</DistanceMeters>
          </Trackpoint>
          <Trackpoint>
            <Time>2022-07-09T09:31:37.000Z</Time>
            <Position>
              <LatitudeDegrees>43.32713951356709003448486328125</LatitudeDegrees>
              <LongitudeDegrees>-1.92466643638908863067626953125</LongitudeDegrees>
            </Position>
            <AltitudeMeters>72.1999969482421875</AltitudeMeters>
            <DistanceMeters>NAN</DistanceMeters>
          </Trackpoint>
          <Trackpoint>
            <Time>2022-07-09T09:31:41.000Z</Time>
            <Position>
              <LatitudeDegrees>43.32718209363520145416259765625</LatitudeDegrees>
              <LongitudeDegrees>-1.92461304366588592529296875</LongitudeDegrees>
            </Position>
            <AltitudeMeters>72.59999847412109375</AltitudeMeters>
            <DistanceMeters>NAN</DistanceMeters>
          </Trackpoint>
          <Trackpoint>
            <Time>2022-07-09T09:31:42.000Z</Time>
            <Position>
              <LatitudeDegrees>43.3271935768425464630126953125</LatitudeDegrees>
              <LongitudeDegrees>-1.9246021471917629241943359375</LongitudeDegrees>
            </Position>
            <AltitudeMeters>72.59999847412109375</AltitudeMeters>
            <DistanceMeters>NAN</DistanceMeters>
          </Trackpoint>
          <Trackpoint>
            <Time>2022-07-09T09:31:47.000Z</Time>
            <Position>
              <LatitudeDegrees>43.3272515796124935150146484375</LatitudeDegrees>
              <LongitudeDegrees>-1.92453660070896148681640625</LongitudeDegrees>
            </Position>
            <AltitudeMeters>73.40000152587890625</AltitudeMeters>
            <DistanceMeters>NAN</DistanceMeters>
          </Trackpoint>
          <Trackpoint>
            <Time>2022-07-09T09:31:49.000Z</Time>
            <Position>
              <LatitudeDegrees>43.32727664150297641754150390625</LatitudeDegrees>
              <LongitudeDegrees>-1.92451036535203456878662109375</LongitudeDegrees>
            </Position>
            <AltitudeMeters>73.8000030517578125</AltitudeMeters>
            <DistanceMeters>NAN</DistanceMeters>
          </Trackpoint>
          <Trackpoint>
            <Time>2022-07-09T09:31:57.000Z</Time>
            <Position>
              <LatitudeDegrees>43.3273907192051410675048828125</LatitudeDegrees>
              <LongitudeDegrees>-1.92445001564919948577880859375</LongitudeDegrees>
            </Position>
            <AltitudeMeters>74.59999847412109375</AltitudeMeters>
            <DistanceMeters>NAN</DistanceMeters>
          </Trackpoint>
          <Trackpoint>
            <Time>2022-07-09T09:32:00.000Z</Time>
            <Position>
              <LatitudeDegrees>43.32743556238710880279541015625</LatitudeDegrees>
              <LongitudeDegrees>-1.92443744279444217681884765625</LongitudeDegrees>
            </Position>
            <AltitudeMeters>74.8000030517578125</AltitudeMeters>
            <DistanceMeters>NAN</DistanceMeters>
          </Trackpoint>
          <Trackpoint>
            <Time>2022-07-09T09:32:04.000Z</Time>
            <Position>
              <LatitudeDegrees>43.32749725319445133209228515625</LatitudeDegrees>
              <LongitudeDegrees>-1.92441397346556186676025390625</LongitudeDegrees>
            </Position>
            <AltitudeMeters>75.1999969482421875</AltitudeMeters>
            <DistanceMeters>NAN</DistanceMeters>
          </Trackpoint>
          <Trackpoint>
            <Time>2022-07-09T09:32:06.000Z</Time>
            <Position>
              <LatitudeDegrees>43.32753061316907405853271484375</LatitudeDegrees>
              <LongitudeDegrees>-1.92443107254803180694580078125</LongitudeDegrees>
            </Position>
            <AltitudeMeters>75.59999847412109375</AltitudeMeters>
            <DistanceMeters>NAN</DistanceMeters>
          </Trackpoint>
          <Trackpoint>
            <Time>2022-07-09T09:32:08.000Z</Time>
            <Position>
              <LatitudeDegrees>43.32755215466022491455078125</LatitudeDegrees>
              <LongitudeDegrees>-1.92443107254803180694580078125</LongitudeDegrees>
            </Position>
            <AltitudeMeters>75.8000030517578125</AltitudeMeters>
            <DistanceMeters>NAN</DistanceMeters>
          </Trackpoint>
          <Trackpoint>
            <Time>2022-07-09T09:32:10.000Z</Time>
            <Position>
              <LatitudeDegrees>43.3275747857987880706787109375</LatitudeDegrees>
              <LongitudeDegrees>-1.9244251213967800140380859375</LongitudeDegrees>
            </Position>
            <AltitudeMeters>76</AltitudeMeters>
            <DistanceMeters>NAN</DistanceMeters>
          </Trackpoint>
          <Trackpoint>
            <Time>2022-07-09T09:32:15.000Z</Time>
            <Position>
              <LatitudeDegrees>43.3276579342782497406005859375</LatitudeDegrees>
              <LongitudeDegrees>-1.9244251213967800140380859375</LongitudeDegrees>
            </Position>
            <AltitudeMeters>76.8000030517578125</AltitudeMeters>
            <DistanceMeters>NAN</DistanceMeters>
          </Trackpoint>
          <Trackpoint>
            <Time>2022-07-09T09:32:20.000Z</Time>
            <Position>
              <LatitudeDegrees>43.32772457040846347808837890625</LatitudeDegrees>
              <LongitudeDegrees>-1.92444297485053539276123046875</LongitudeDegrees>
            </Position>
            <AltitudeMeters>77.59999847412109375</AltitudeMeters>
            <DistanceMeters>NAN</DistanceMeters>
          </Trackpoint>
          <Trackpoint>
            <Time>2022-07-09T09:32:21.000Z</Time>
            <Position>
              <LatitudeDegrees>43.32773831672966480255126953125</LatitudeDegrees>
              <LongitudeDegrees>-1.9244509376585483551025390625</LongitudeDegrees>
            </Position>
            <AltitudeMeters>77.8000030517578125</AltitudeMeters>
            <DistanceMeters>NAN</DistanceMeters>
          </Trackpoint>
          <Trackpoint>
            <Time>2022-07-09T09:32:23.000Z</Time>
            <Position>
              <LatitudeDegrees>43.3277682401239871978759765625</LatitudeDegrees>
              <LongitudeDegrees>-1.9244616664946079254150390625</LongitudeDegrees>
            </Position>
            <AltitudeMeters>78</AltitudeMeters>
            <DistanceMeters>NAN</DistanceMeters>
          </Trackpoint>
          <Trackpoint>
            <Time>2022-07-09T09:32:26.000Z</Time>
            <Position>
              <LatitudeDegrees>43.3277917094528675079345703125</LatitudeDegrees>
              <LongitudeDegrees>-1.9244737364351749420166015625</LongitudeDegrees>
            </Position>
            <AltitudeMeters>78.1999969482421875</AltitudeMeters>
            <DistanceMeters>NAN</DistanceMeters>
          </Trackpoint>
          <Trackpoint>
            <Time>2022-07-09T09:32:28.000Z</Time>
            <Position>
              <LatitudeDegrees>43.3278074674308300018310546875</LatitudeDegrees>
              <LongitudeDegrees>-1.9244623370468616485595703125</LongitudeDegrees>
            </Position>
            <AltitudeMeters>78.40000152587890625</AltitudeMeters>
            <DistanceMeters>NAN</DistanceMeters>
          </Trackpoint>
          <Trackpoint>
            <Time>2022-07-09T09:32:31.000Z</Time>
            <Position>
              <LatitudeDegrees>43.32780654542148113250732421875</LatitudeDegrees>
              <LongitudeDegrees>-1.92442235536873340606689453125</LongitudeDegrees>
            </Position>
            <AltitudeMeters>78.8000030517578125</AltitudeMeters>
            <DistanceMeters>NAN</DistanceMeters>
          </Trackpoint>
          <Trackpoint>
            <Time>2022-07-09T09:32:33.000Z</Time>
            <Position>
              <LatitudeDegrees>43.32779581658542156219482421875</LatitudeDegrees>
              <LongitudeDegrees>-1.92440760321915149688720703125</LongitudeDegrees>
            </Position>
            <AltitudeMeters>78.8000030517578125</AltitudeMeters>
            <DistanceMeters>NAN</DistanceMeters>
          </Trackpoint>
          <Trackpoint>
            <Time>2022-07-09T09:32:36.000Z</Time>
            <Position>
              <LatitudeDegrees>43.32779430784285068511962890625</LatitudeDegrees>
              <LongitudeDegrees>-1.9244060106575489044189453125</LongitudeDegrees>
            </Position>
            <AltitudeMeters>78.8000030517578125</AltitudeMeters>
            <DistanceMeters>NAN</DistanceMeters>
          </Trackpoint>
          <Trackpoint>
            <Time>2022-07-09T09:34:31.000Z</Time>
            <Position>
              <LatitudeDegrees>43.32782012410461902618408203125</LatitudeDegrees>
              <LongitudeDegrees>-1.92446929402649402618408203125</LongitudeDegrees>
            </Position>
            <AltitudeMeters>78.8000030517578125</AltitudeMeters>
            <DistanceMeters>NAN</DistanceMeters>
          </Trackpoint>
          <Trackpoint>
            <Time>2022-07-09T09:34:32.000Z</Time>
            <Position>
              <LatitudeDegrees>43.32782230339944362640380859375</LatitudeDegrees>
              <LongitudeDegrees>-1.92450047470629215240478515625</LongitudeDegrees>
            </Position>
            <AltitudeMeters>78.8000030517578125</AltitudeMeters>
            <DistanceMeters>NAN</DistanceMeters>
          </Trackpoint>
          <Trackpoint>
            <Time>2022-07-09T09:34:34.000Z</Time>
            <Position>
              <LatitudeDegrees>43.32783035002648830413818359375</LatitudeDegrees>
              <LongitudeDegrees>-1.92455981858074665069580078125</LongitudeDegrees>
            </Position>
            <AltitudeMeters>79</AltitudeMeters>
            <DistanceMeters>NAN</DistanceMeters>
          </Trackpoint>
          <Trackpoint>
            <Time>2022-07-09T09:34:37.000Z</Time>
            <Position>
              <LatitudeDegrees>43.32784158177673816680908203125</LatitudeDegrees>
              <LongitudeDegrees>-1.92465336062014102935791015625</LongitudeDegrees>
            </Position>
            <AltitudeMeters>79</AltitudeMeters>
            <DistanceMeters>NAN</DistanceMeters>
          </Trackpoint>
          <Trackpoint>
            <Time>2022-07-09T09:34:38.000Z</Time>
            <Position>
              <LatitudeDegrees>43.327844850718975067138671875</LatitudeDegrees>
              <LongitudeDegrees>-1.92468546330928802490234375</LongitudeDegrees>
            </Position>
            <AltitudeMeters>79</AltitudeMeters>
            <DistanceMeters>NAN</DistanceMeters>
          </Trackpoint>
          <Trackpoint>
            <Time>2022-07-09T09:34:41.000Z</Time>
            <Position>
              <LatitudeDegrees>43.32785381935536861419677734375</LatitudeDegrees>
              <LongitudeDegrees>-1.92476886324584484100341796875</LongitudeDegrees>
            </Position>
            <AltitudeMeters>79</AltitudeMeters>
            <DistanceMeters>NAN</DistanceMeters>
          </Trackpoint>
          <Trackpoint>
            <Time>2022-07-09T09:34:43.000Z</Time>
            <Position>
              <LatitudeDegrees>43.3278590999543666839599609375</LatitudeDegrees>
              <LongitudeDegrees>-1.92482552491128444671630859375</LongitudeDegrees>
            </Position>
            <AltitudeMeters>79</AltitudeMeters>
            <DistanceMeters>NAN</DistanceMeters>
          </Trackpoint>
          <Trackpoint>
            <Time>2022-07-09T09:34:45.000Z</Time>
            <Position>
              <LatitudeDegrees>43.3278627879917621612548828125</LatitudeDegrees>
              <LongitudeDegrees>-1.9248857907950878143310546875</LongitudeDegrees>
            </Position>
            <AltitudeMeters>79</AltitudeMeters>
            <DistanceMeters>NAN</DistanceMeters>
          </Trackpoint>
          <Trackpoint>
            <Time>2022-07-09T09:34:46.000Z</Time>
            <Position>
              <LatitudeDegrees>43.3278637938201427459716796875</LatitudeDegrees>
              <LongitudeDegrees>-1.9249163009226322174072265625</LongitudeDegrees>
            </Position>
            <AltitudeMeters>79.1999969482421875</AltitudeMeters>
            <DistanceMeters>NAN</DistanceMeters>
          </Trackpoint>
          <Trackpoint>
            <Time>2022-07-09T09:34:57.000Z</Time>
            <Position>
              <LatitudeDegrees>43.32789480686187744140625</LatitudeDegrees>
              <LongitudeDegrees>-1.9252364896237850189208984375</LongitudeDegrees>
            </Position>
            <AltitudeMeters>79.59999847412109375</AltitudeMeters>
            <DistanceMeters>NAN</DistanceMeters>
          </Trackpoint>
          <Trackpoint>
            <Time>2022-07-09T09:35:06.000Z</Time>
            <Position>
              <LatitudeDegrees>43.32793395034968852996826171875</LatitudeDegrees>
              <LongitudeDegrees>-1.92552222870290279388427734375</LongitudeDegrees>
            </Position>
            <AltitudeMeters>79.8000030517578125</AltitudeMeters>
            <DistanceMeters>NAN</DistanceMeters>
          </Trackpoint>
          <Trackpoint>
            <Time>2022-07-09T09:35:14.000Z</Time>
            <Position>
              <LatitudeDegrees>43.32796990871429443359375</LatitudeDegrees>
              <LongitudeDegrees>-1.92580168135464191436767578125</LongitudeDegrees>
            </Position>
            <AltitudeMeters>80</AltitudeMeters>
            <DistanceMeters>NAN</DistanceMeters>
          </Trackpoint>
          <Trackpoint>
            <Time>2022-07-09T09:35:19.000Z</Time>
            <Position>
              <LatitudeDegrees>43.3279972337186336517333984375</LatitudeDegrees>
              <LongitudeDegrees>-1.9259868375957012176513671875</LongitudeDegrees>
            </Position>
            <AltitudeMeters>80</AltitudeMeters>
            <DistanceMeters>NAN</DistanceMeters>
          </Trackpoint>
          <Trackpoint>
            <Time>2022-07-09T09:35:24.000Z</Time>
            <Position>
              <LatitudeDegrees>43.32802288234233856201171875</LatitudeDegrees>
              <LongitudeDegrees>-1.92614902742207050323486328125</LongitudeDegrees>
            </Position>
            <AltitudeMeters>80.40000152587890625</AltitudeMeters>
            <DistanceMeters>NAN</DistanceMeters>
          </Trackpoint>
          <Trackpoint>
            <Time>2022-07-09T09:35:29.000Z</Time>
            <Position>
              <LatitudeDegrees>43.3280595950782299041748046875</LatitudeDegrees>
              <LongitudeDegrees>-1.92629051394760608673095703125</LongitudeDegrees>
            </Position>
            <AltitudeMeters>80.59999847412109375</AltitudeMeters>
            <DistanceMeters>NAN</DistanceMeters>
          </Trackpoint>
          <Trackpoint>
            <Time>2022-07-09T09:35:31.000Z</Time>
            <Position>
              <LatitudeDegrees>43.32806713879108428955078125</LatitudeDegrees>
              <LongitudeDegrees>-1.92634616978466510772705078125</LongitudeDegrees>
            </Position>
            <AltitudeMeters>80.8000030517578125</AltitudeMeters>
            <DistanceMeters>NAN</DistanceMeters>
          </Trackpoint>
          <Trackpoint>
            <Time>2022-07-09T09:35:36.000Z</Time>
            <Position>
              <LatitudeDegrees>43.32809085957705974578857421875</LatitudeDegrees>
              <LongitudeDegrees>-1.92650073207914829254150390625</LongitudeDegrees>
            </Position>
            <AltitudeMeters>81</AltitudeMeters>
            <DistanceMeters>NAN</DistanceMeters>
          </Trackpoint>
          <Trackpoint>
            <Time>2022-07-09T09:35:38.000Z</Time>
            <Position>
              <LatitudeDegrees>43.3281041868031024932861328125</LatitudeDegrees>
              <LongitudeDegrees>-1.92657382227480411529541015625</LongitudeDegrees>
            </Position>
            <AltitudeMeters>81</AltitudeMeters>
            <DistanceMeters>NAN</DistanceMeters>
          </Trackpoint>
          <Trackpoint>
            <Time>2022-07-09T09:35:46.000Z</Time>
            <Position>
              <LatitudeDegrees>43.3281420730054378509521484375</LatitudeDegrees>
              <LongitudeDegrees>-1.92681706510484218597412109375</LongitudeDegrees>
            </Position>
            <AltitudeMeters>81.59999847412109375</AltitudeMeters>
            <DistanceMeters>NAN</DistanceMeters>
          </Trackpoint>
          <Trackpoint>
            <Time>2022-07-09T09:35:53.000Z</Time>
            <Position>
              <LatitudeDegrees>43.32818708382546901702880859375</LatitudeDegrees>
              <LongitudeDegrees>-1.9270080886781215667724609375</LongitudeDegrees>
            </Position>
            <AltitudeMeters>82</AltitudeMeters>
            <DistanceMeters>NAN</DistanceMeters>
          </Trackpoint>
          <Trackpoint>
            <Time>2022-07-09T09:35:54.000Z</Time>
            <Position>
              <LatitudeDegrees>43.32819261588156223297119140625</LatitudeDegrees>
              <LongitudeDegrees>-1.9270325638353824615478515625</LongitudeDegrees>
            </Position>
            <AltitudeMeters>82.1999969482421875</AltitudeMeters>
            <DistanceMeters>NAN</DistanceMeters>
          </Trackpoint>
          <Trackpoint>
            <Time>2022-07-09T09:36:00.000Z</Time>
            <Position>
              <LatitudeDegrees>43.32820820622146129608154296875</LatitudeDegrees>
              <LongitudeDegrees>-1.9272183068096637725830078125</LongitudeDegrees>
            </Position>
            <AltitudeMeters>82.8000030517578125</AltitudeMeters>
            <DistanceMeters>NAN</DistanceMeters>
          </Trackpoint>
          <Trackpoint>
            <Time>2022-07-09T09:36:02.000Z</Time>
            <Position>
              <LatitudeDegrees>43.328215666115283966064453125</LatitudeDegrees>
              <LongitudeDegrees>-1.927268095314502716064453125</LongitudeDegrees>
            </Position>
            <AltitudeMeters>82.8000030517578125</AltitudeMeters>
            <DistanceMeters>NAN</DistanceMeters>
          </Trackpoint>
          <Trackpoint>
            <Time>2022-07-09T09:36:06.000Z</Time>
            <Position>
              <LatitudeDegrees>43.32822446711361408233642578125</LatitudeDegrees>
              <LongitudeDegrees>-1.9273594580590724945068359375</LongitudeDegrees>
            </Position>
            <AltitudeMeters>83.1999969482421875</AltitudeMeters>
            <DistanceMeters>NAN</DistanceMeters>
          </Trackpoint>
          <Trackpoint>
            <Time>2022-07-09T09:36:08.000Z</Time>
            <Position>
              <LatitudeDegrees>43.32823988981544971466064453125</LatitudeDegrees>
              <LongitudeDegrees>-1.927413605153560638427734375</LongitudeDegrees>
            </Position>
            <AltitudeMeters>83.40000152587890625</AltitudeMeters>
            <DistanceMeters>NAN</DistanceMeters>
          </Trackpoint>
          <Trackpoint>
            <Time>2022-07-09T09:36:17.000Z</Time>
            <Position>
              <LatitudeDegrees>43.3282641135156154632568359375</LatitudeDegrees>
              <LongitudeDegrees>-1.927673779428005218505859375</LongitudeDegrees>
            </Position>
            <AltitudeMeters>84.1999969482421875</AltitudeMeters>
            <DistanceMeters>NAN</DistanceMeters>
          </Trackpoint>
          <Trackpoint>
            <Time>2022-07-09T09:36:22.000Z</Time>
            <Position>
              <LatitudeDegrees>43.32827576436102390289306640625</LatitudeDegrees>
              <LongitudeDegrees>-1.92781333811581134796142578125</LongitudeDegrees>
            </Position>
            <AltitudeMeters>84.59999847412109375</AltitudeMeters>
            <DistanceMeters>NAN</DistanceMeters>
          </Trackpoint>
          <Trackpoint>
            <Time>2022-07-09T09:36:30.000Z</Time>
            <Position>
              <LatitudeDegrees>43.32835539244115352630615234375</LatitudeDegrees>
              <LongitudeDegrees>-1.92807937972247600555419921875</LongitudeDegrees>
            </Position>
            <AltitudeMeters>85.1999969482421875</AltitudeMeters>
            <DistanceMeters>NAN</DistanceMeters>
          </Trackpoint>
          <Trackpoint>
            <Time>2022-07-09T09:36:31.000Z</Time>
            <Position>
              <LatitudeDegrees>43.32836612127721309661865234375</LatitudeDegrees>
              <LongitudeDegrees>-1.928103603422641754150390625</LongitudeDegrees>
            </Position>
            <AltitudeMeters>85.40000152587890625</AltitudeMeters>
            <DistanceMeters>NAN</DistanceMeters>
          </Trackpoint>
          <Trackpoint>
            <Time>2022-07-09T09:36:38.000Z</Time>
            <Position>
              <LatitudeDegrees>43.328417837619781494140625</LatitudeDegrees>
              <LongitudeDegrees>-1.92826881073415279388427734375</LongitudeDegrees>
            </Position>
            <AltitudeMeters>85.8000030517578125</AltitudeMeters>
            <DistanceMeters>NAN</DistanceMeters>
          </Trackpoint>
          <Trackpoint>
            <Time>2022-07-09T09:36:42.000Z</Time>
            <Position>
              <LatitudeDegrees>43.32844222895801067352294921875</LatitudeDegrees>
              <LongitudeDegrees>-1.9283612631261348724365234375</LongitudeDegrees>
            </Position>
            <AltitudeMeters>86.1999969482421875</AltitudeMeters>
            <DistanceMeters>NAN</DistanceMeters>
          </Trackpoint>
          <Trackpoint>
            <Time>2022-07-09T09:36:43.000Z</Time>
            <Position>
              <LatitudeDegrees>43.32845295779407024383544921875</LatitudeDegrees>
              <LongitudeDegrees>-1.92838313989341259002685546875</LongitudeDegrees>
            </Position>
            <AltitudeMeters>86.40000152587890625</AltitudeMeters>
            <DistanceMeters>NAN</DistanceMeters>
          </Trackpoint>
          <Trackpoint>
            <Time>2022-07-09T09:36:45.000Z</Time>
            <Position>
              <LatitudeDegrees>43.32847349345684051513671875</LatitudeDegrees>
              <LongitudeDegrees>-1.92841884680092334747314453125</LongitudeDegrees>
            </Position>
            <AltitudeMeters>86.59999847412109375</AltitudeMeters>
            <DistanceMeters>NAN</DistanceMeters>
          </Trackpoint>
          <Trackpoint>
            <Time>2022-07-09T09:36:46.000Z</Time>
            <Position>
              <LatitudeDegrees>43.3284786902368068695068359375</LatitudeDegrees>
              <LongitudeDegrees>-1.9284410588443279266357421875</LongitudeDegrees>
            </Position>
            <AltitudeMeters>86.59999847412109375</AltitudeMeters>
            <DistanceMeters>NAN</DistanceMeters>
          </Trackpoint>
          <Trackpoint>
            <Time>2022-07-09T09:36:50.000Z</Time>
            <Position>
              <LatitudeDegrees>43.3285115472972393035888671875</LatitudeDegrees>
              <LongitudeDegrees>-1.928541474044322967529296875</LongitudeDegrees>
            </Position>
            <AltitudeMeters>86.8000030517578125</AltitudeMeters>
            <DistanceMeters>NAN</DistanceMeters>
          </Trackpoint>
          <Trackpoint>
            <Time>2022-07-09T09:36:54.000Z</Time>
            <Position>
              <LatitudeDegrees>43.32855069078505039215087890625</LatitudeDegrees>
              <LongitudeDegrees>-1.9286150671541690826416015625</LongitudeDegrees>
            </Position>
            <AltitudeMeters>87.40000152587890625</AltitudeMeters>
            <DistanceMeters>NAN</DistanceMeters>
          </Trackpoint>
          <Trackpoint>
            <Time>2022-07-09T09:37:01.000Z</Time>
            <Position>
              <LatitudeDegrees>43.32860953174531459808349609375</LatitudeDegrees>
              <LongitudeDegrees>-1.92876518703997135162353515625</LongitudeDegrees>
            </Position>
            <AltitudeMeters>88.1999969482421875</AltitudeMeters>
            <DistanceMeters>NAN</DistanceMeters>
          </Trackpoint>
          <Trackpoint>
            <Time>2022-07-09T09:37:06.000Z</Time>
            <Position>
              <LatitudeDegrees>43.32869603298604488372802734375</LatitudeDegrees>
              <LongitudeDegrees>-1.92895310930907726287841796875</LongitudeDegrees>
            </Position>
            <AltitudeMeters>88.59999847412109375</AltitudeMeters>
            <DistanceMeters>NAN</DistanceMeters>
          </Trackpoint>
          <Trackpoint>
            <Time>2022-07-09T09:37:07.000Z</Time>
            <Position>
              <LatitudeDegrees>43.32870173268020153045654296875</LatitudeDegrees>
              <LongitudeDegrees>-1.92898638546466827392578125</LongitudeDegrees>
            </Position>
            <AltitudeMeters>88.8000030517578125</AltitudeMeters>
            <DistanceMeters>NAN</DistanceMeters>
          </Trackpoint>
          <Trackpoint>
            <Time>2022-07-09T09:37:13.000Z</Time>
            <Position>
              <LatitudeDegrees>43.32876945845782756805419921875</LatitudeDegrees>
              <LongitudeDegrees>-1.92913885228335857391357421875</LongitudeDegrees>
            </Position>
            <AltitudeMeters>89.1999969482421875</AltitudeMeters>
            <DistanceMeters>NAN</DistanceMeters>
          </Trackpoint>
          <Trackpoint>
            <Time>2022-07-09T09:37:17.000Z</Time>
            <Position>
              <LatitudeDegrees>43.32876962609589099884033203125</LatitudeDegrees>
              <LongitudeDegrees>-1.929251588881015777587890625</LongitudeDegrees>
            </Position>
            <AltitudeMeters>89.59999847412109375</AltitudeMeters>
            <DistanceMeters>NAN</DistanceMeters>
          </Trackpoint>
          <Trackpoint>
            <Time>2022-07-09T09:37:18.000Z</Time>
            <Position>
              <LatitudeDegrees>43.32877297885715961456298828125</LatitudeDegrees>
              <LongitudeDegrees>-1.9292953424155712127685546875</LongitudeDegrees>
            </Position>
            <AltitudeMeters>89.8000030517578125</AltitudeMeters>
            <DistanceMeters>NAN</DistanceMeters>
          </Trackpoint>
          <Trackpoint>
            <Time>2022-07-09T09:37:24.000Z</Time>
            <Position>
              <LatitudeDegrees>43.3287941850721836090087890625</LatitudeDegrees>
              <LongitudeDegrees>-1.9294502399861812591552734375</LongitudeDegrees>
            </Position>
            <AltitudeMeters>90.40000152587890625</AltitudeMeters>
            <DistanceMeters>NAN</DistanceMeters>
          </Trackpoint>
          <Trackpoint>
            <Time>2022-07-09T09:37:29.000Z</Time>
            <Position>
              <LatitudeDegrees>43.32879276014864444732666015625</LatitudeDegrees>
              <LongitudeDegrees>-1.929569430649280548095703125</LongitudeDegrees>
            </Position>
            <AltitudeMeters>90.59999847412109375</AltitudeMeters>
            <DistanceMeters>NAN</DistanceMeters>
          </Trackpoint>
          <Trackpoint>
            <Time>2022-07-09T09:37:33.000Z</Time>
            <Position>
              <LatitudeDegrees>43.3287925086915493011474609375</LatitudeDegrees>
              <LongitudeDegrees>-1.929683424532413482666015625</LongitudeDegrees>
            </Position>
            <AltitudeMeters>90.8000030517578125</AltitudeMeters>
            <DistanceMeters>NAN</DistanceMeters>
          </Trackpoint>
          <Trackpoint>
            <Time>2022-07-09T09:37:34.000Z</Time>
            <Position>
              <LatitudeDegrees>43.3287941850721836090087890625</LatitudeDegrees>
              <LongitudeDegrees>-1.9297117553651332855224609375</LongitudeDegrees>
            </Position>
            <AltitudeMeters>91</AltitudeMeters>
            <DistanceMeters>NAN</DistanceMeters>
          </Trackpoint>
          <Trackpoint>
            <Time>2022-07-09T09:37:38.000Z</Time>
            <Position>
              <LatitudeDegrees>43.328810445964336395263671875</LatitudeDegrees>
              <LongitudeDegrees>-1.92980504594743251800537109375</LongitudeDegrees>
            </Position>
            <AltitudeMeters>91.40000152587890625</AltitudeMeters>
            <DistanceMeters>NAN</DistanceMeters>
          </Trackpoint>
          <Trackpoint>
            <Time>2022-07-09T09:37:42.000Z</Time>
            <Position>
              <LatitudeDegrees>43.32882880233228206634521484375</LatitudeDegrees>
              <LongitudeDegrees>-1.92991082556545734405517578125</LongitudeDegrees>
            </Position>
            <AltitudeMeters>91.8000030517578125</AltitudeMeters>
            <DistanceMeters>NAN</DistanceMeters>
          </Trackpoint>
          <Trackpoint>
            <Time>2022-07-09T09:37:45.000Z</Time>
            <Position>
              <LatitudeDegrees>43.32884355448186397552490234375</LatitudeDegrees>
              <LongitudeDegrees>-1.93000101484358310699462890625</LongitudeDegrees>
            </Position>
            <AltitudeMeters>91.8000030517578125</AltitudeMeters>
            <DistanceMeters>NAN</DistanceMeters>
          </Trackpoint>
          <Trackpoint>
            <Time>2022-07-09T09:37:47.000Z</Time>
            <Position>
              <LatitudeDegrees>43.3288563787937164306640625</LatitudeDegrees>
              <LongitudeDegrees>-1.93004745058715343475341796875</LongitudeDegrees>
            </Position>
            <AltitudeMeters>92.1999969482421875</AltitudeMeters>
            <DistanceMeters>NAN</DistanceMeters>
          </Trackpoint>
          <Trackpoint>
            <Time>2022-07-09T09:37:51.000Z</Time>
            <Position>
              <LatitudeDegrees>43.32886115647852420806884765625</LatitudeDegrees>
              <LongitudeDegrees>-1.93015859462320804595947265625</LongitudeDegrees>
            </Position>
            <AltitudeMeters>92.40000152587890625</AltitudeMeters>
            <DistanceMeters>NAN</DistanceMeters>
          </Trackpoint>
          <Trackpoint>
            <Time>2022-07-09T09:37:52.000Z</Time>
            <Position>
              <LatitudeDegrees>43.32886132411658763885498046875</LatitudeDegrees>
              <LongitudeDegrees>-1.93018273450434207916259765625</LongitudeDegrees>
            </Position>
            <AltitudeMeters>92.59999847412109375</AltitudeMeters>
            <DistanceMeters>NAN</DistanceMeters>
          </Trackpoint>
          <Trackpoint>
            <Time>2022-07-09T09:37:56.000Z</Time>
            <Position>
              <LatitudeDegrees>43.3288857154548168182373046875</LatitudeDegrees>
              <LongitudeDegrees>-1.93026789464056491851806640625</LongitudeDegrees>
            </Position>
            <AltitudeMeters>92.8000030517578125</AltitudeMeters>
            <DistanceMeters>NAN</DistanceMeters>
          </Trackpoint>
          <Trackpoint>
            <Time>2022-07-09T09:38:01.000Z</Time>
            <Position>
              <LatitudeDegrees>43.32894749008119106292724609375</LatitudeDegrees>
              <LongitudeDegrees>-1.93034852854907512664794921875</LongitudeDegrees>
            </Position>
            <AltitudeMeters>93.1999969482421875</AltitudeMeters>
            <DistanceMeters>NAN</DistanceMeters>
          </Trackpoint>
          <Trackpoint>
            <Time>2022-07-09T09:38:08.000Z</Time>
            <Position>
              <LatitudeDegrees>43.3290751464664936065673828125</LatitudeDegrees>
              <LongitudeDegrees>-1.93036101758480072021484375</LongitudeDegrees>
            </Position>
            <AltitudeMeters>94</AltitudeMeters>
            <DistanceMeters>NAN</DistanceMeters>
          </Trackpoint>
          <Trackpoint>
            <Time>2022-07-09T09:38:12.000Z</Time>
            <Position>
              <LatitudeDegrees>43.32910456694662570953369140625</LatitudeDegrees>
              <LongitudeDegrees>-1.930267810821533203125</LongitudeDegrees>
            </Position>
            <AltitudeMeters>94.1999969482421875</AltitudeMeters>
            <DistanceMeters>NAN</DistanceMeters>
          </Trackpoint>
          <Trackpoint>
            <Time>2022-07-09T09:38:14.000Z</Time>
            <Position>
              <LatitudeDegrees>43.3291190676391124725341796875</LatitudeDegrees>
              <LongitudeDegrees>-1.93025666289031505584716796875</LongitudeDegrees>
            </Position>
            <AltitudeMeters>94.40000152587890625</AltitudeMeters>
            <DistanceMeters>NAN</DistanceMeters>
          </Trackpoint>
          <Trackpoint>
            <Time>2022-07-09T09:38:17.000Z</Time>
            <Position>
              <LatitudeDegrees>43.3291522599756717681884765625</LatitudeDegrees>
              <LongitudeDegrees>-1.93020419217646121978759765625</LongitudeDegrees>
            </Position>
            <AltitudeMeters>94.59999847412109375</AltitudeMeters>
            <DistanceMeters>NAN</DistanceMeters>
          </Trackpoint>
          <Trackpoint>
            <Time>2022-07-09T09:38:20.000Z</Time>
            <Position>
              <LatitudeDegrees>43.3292219974100589752197265625</LatitudeDegrees>
              <LongitudeDegrees>-1.9301526434719562530517578125</LongitudeDegrees>
            </Position>
            <AltitudeMeters>94.8000030517578125</AltitudeMeters>
            <DistanceMeters>NAN</DistanceMeters>
          </Trackpoint>
          <Trackpoint>
            <Time>2022-07-09T09:38:23.000Z</Time>
            <Position>
              <LatitudeDegrees>43.32925627939403057098388671875</LatitudeDegrees>
              <LongitudeDegrees>-1.93011802621185779571533203125</LongitudeDegrees>
            </Position>
            <AltitudeMeters>95</AltitudeMeters>
            <DistanceMeters>NAN</DistanceMeters>
          </Trackpoint>
          <Trackpoint>
            <Time>2022-07-09T09:38:28.000Z</Time>
            <Position>
              <LatitudeDegrees>43.32933582365512847900390625</LatitudeDegrees>
              <LongitudeDegrees>-1.93003378808498382568359375</LongitudeDegrees>
            </Position>
            <AltitudeMeters>95.1999969482421875</AltitudeMeters>
            <DistanceMeters>NAN</DistanceMeters>
          </Trackpoint>
          <Trackpoint>
            <Time>2022-07-09T09:38:29.000Z</Time>
            <Position>
              <LatitudeDegrees>43.32935485057532787322998046875</LatitudeDegrees>
              <LongitudeDegrees>-1.93001945503056049346923828125</LongitudeDegrees>
            </Position>
            <AltitudeMeters>95.40000152587890625</AltitudeMeters>
            <DistanceMeters>NAN</DistanceMeters>
          </Trackpoint>
          <Trackpoint>
            <Time>2022-07-09T09:38:34.000Z</Time>
            <Position>
              <LatitudeDegrees>43.32947270013391971588134765625</LatitudeDegrees>
              <LongitudeDegrees>-1.929871179163455963134765625</LongitudeDegrees>
            </Position>
            <AltitudeMeters>95.8000030517578125</AltitudeMeters>
            <DistanceMeters>NAN</DistanceMeters>
          </Trackpoint>
          <Trackpoint>
            <Time>2022-07-09T09:38:36.000Z</Time>
            <Position>
              <LatitudeDegrees>43.32950136624276638031005859375</LatitudeDegrees>
              <LongitudeDegrees>-1.929839663207530975341796875</LongitudeDegrees>
            </Position>
            <AltitudeMeters>95.8000030517578125</AltitudeMeters>
            <DistanceMeters>NAN</DistanceMeters>
          </Trackpoint>
          <Trackpoint>
            <Time>2022-07-09T09:38:38.000Z</Time>
            <Position>
              <LatitudeDegrees>43.32952852360904216766357421875</LatitudeDegrees>
              <LongitudeDegrees>-1.9298180378973484039306640625</LongitudeDegrees>
            </Position>
            <AltitudeMeters>96</AltitudeMeters>
            <DistanceMeters>NAN</DistanceMeters>
          </Trackpoint>
          <Trackpoint>
            <Time>2022-07-09T09:38:39.000Z</Time>
            <Position>
              <LatitudeDegrees>43.329535312950611114501953125</LatitudeDegrees>
              <LongitudeDegrees>-1.92980236373841762542724609375</LongitudeDegrees>
            </Position>
            <AltitudeMeters>96</AltitudeMeters>
            <DistanceMeters>NAN</DistanceMeters>
          </Trackpoint>
          <Trackpoint>
            <Time>2022-07-09T09:38:44.000Z</Time>
            <Position>
              <LatitudeDegrees>43.329584263265132904052734375</LatitudeDegrees>
              <LongitudeDegrees>-1.92968484945595264434814453125</LongitudeDegrees>
            </Position>
            <AltitudeMeters>96.40000152587890625</AltitudeMeters>
            <DistanceMeters>NAN</DistanceMeters>
          </Trackpoint>
          <Trackpoint>
            <Time>2022-07-09T09:38:45.000Z</Time>
            <Position>
              <LatitudeDegrees>43.32959859631955623626708984375</LatitudeDegrees>
              <LongitudeDegrees>-1.92966557107865810394287109375</LongitudeDegrees>
            </Position>
            <AltitudeMeters>96.40000152587890625</AltitudeMeters>
            <DistanceMeters>NAN</DistanceMeters>
          </Trackpoint>
          <Trackpoint>
            <Time>2022-07-09T09:38:51.000Z</Time>
            <Position>
              <LatitudeDegrees>43.3296652324497699737548828125</LatitudeDegrees>
              <LongitudeDegrees>-1.92952676676213741302490234375</LongitudeDegrees>
            </Position>
            <AltitudeMeters>97</AltitudeMeters>
            <DistanceMeters>NAN</DistanceMeters>
          </Trackpoint>
          <Trackpoint>
            <Time>2022-07-09T09:38:52.000Z</Time>
            <Position>
              <LatitudeDegrees>43.32967671565711498260498046875</LatitudeDegrees>
              <LongitudeDegrees>-1.92950648255646228790283203125</LongitudeDegrees>
            </Position>
            <AltitudeMeters>97.1999969482421875</AltitudeMeters>
            <DistanceMeters>NAN</DistanceMeters>
          </Trackpoint>
          <Trackpoint>
            <Time>2022-07-09T09:38:57.000Z</Time>
            <Position>
              <LatitudeDegrees>43.32970370538532733917236328125</LatitudeDegrees>
              <LongitudeDegrees>-1.929411850869655609130859375</LongitudeDegrees>
            </Position>
            <AltitudeMeters>97.40000152587890625</AltitudeMeters>
            <DistanceMeters>NAN</DistanceMeters>
          </Trackpoint>
          <Trackpoint>
            <Time>2022-07-09T09:38:58.000Z</Time>
            <Position>
              <LatitudeDegrees>43.3297225646674633026123046875</LatitudeDegrees>
              <LongitudeDegrees>-1.92940740846097469329833984375</LongitudeDegrees>
            </Position>
            <AltitudeMeters>97.59999847412109375</AltitudeMeters>
            <DistanceMeters>NAN</DistanceMeters>
          </Trackpoint>
          <Trackpoint>
            <Time>2022-07-09T09:39:01.000Z</Time>
            <Position>
              <LatitudeDegrees>43.32974410615861415863037109375</LatitudeDegrees>
              <LongitudeDegrees>-1.92936080507934093475341796875</LongitudeDegrees>
            </Position>
            <AltitudeMeters>97.8000030517578125</AltitudeMeters>
            <DistanceMeters>NAN</DistanceMeters>
          </Trackpoint>
          <Trackpoint>
            <Time>2022-07-09T09:39:03.000Z</Time>
            <Position>
              <LatitudeDegrees>43.3297534100711345672607421875</LatitudeDegrees>
              <LongitudeDegrees>-1.92932300269603729248046875</LongitudeDegrees>
            </Position>
            <AltitudeMeters>98</AltitudeMeters>
            <DistanceMeters>NAN</DistanceMeters>
          </Trackpoint>
          <Trackpoint>
            <Time>2022-07-09T09:39:04.000Z</Time>
            <Position>
              <LatitudeDegrees>43.3297631330788135528564453125</LatitudeDegrees>
              <LongitudeDegrees>-1.92929609678685665130615234375</LongitudeDegrees>
            </Position>
            <AltitudeMeters>98</AltitudeMeters>
            <DistanceMeters>NAN</DistanceMeters>
          </Trackpoint>
          <Trackpoint>
            <Time>2022-07-09T09:39:08.000Z</Time>
            <Position>
              <LatitudeDegrees>43.3298192918300628662109375</LatitudeDegrees>
              <LongitudeDegrees>-1.929203979671001434326171875</LongitudeDegrees>
            </Position>
            <AltitudeMeters>98.40000152587890625</AltitudeMeters>
            <DistanceMeters>NAN</DistanceMeters>
          </Trackpoint>
          <Trackpoint>
            <Time>2022-07-09T09:39:10.000Z</Time>
            <Position>
              <LatitudeDegrees>43.32984142005443572998046875</LatitudeDegrees>
              <LongitudeDegrees>-1.92917372100055217742919921875</LongitudeDegrees>
            </Position>
            <AltitudeMeters>98.59999847412109375</AltitudeMeters>
            <DistanceMeters>NAN</DistanceMeters>
          </Trackpoint>
          <Trackpoint>
            <Time>2022-07-09T09:39:17.000Z</Time>
            <Position>
              <LatitudeDegrees>43.3299160189926624298095703125</LatitudeDegrees>
              <LongitudeDegrees>-1.9290066696703433990478515625</LongitudeDegrees>
            </Position>
            <AltitudeMeters>99.1999969482421875</AltitudeMeters>
            <DistanceMeters>NAN</DistanceMeters>
          </Trackpoint>
          <Trackpoint>
            <Time>2022-07-09T09:39:19.000Z</Time>
            <Position>
              <LatitudeDegrees>43.329928256571292877197265625</LatitudeDegrees>
              <LongitudeDegrees>-1.92896199412643909454345703125</LongitudeDegrees>
            </Position>
            <AltitudeMeters>99.40000152587890625</AltitudeMeters>
            <DistanceMeters>NAN</DistanceMeters>
          </Trackpoint>
          <Trackpoint>
            <Time>2022-07-09T09:39:22.000Z</Time>
            <Position>
              <LatitudeDegrees>43.32996857352554798126220703125</LatitudeDegrees>
              <LongitudeDegrees>-1.928908936679363250732421875</LongitudeDegrees>
            </Position>
            <AltitudeMeters>99.8000030517578125</AltitudeMeters>
            <DistanceMeters>NAN</DistanceMeters>
          </Trackpoint>
          <Trackpoint>
            <Time>2022-07-09T09:39:23.000Z</Time>
            <Position>
              <LatitudeDegrees>43.32998014055192470550537109375</LatitudeDegrees>
              <LongitudeDegrees>-1.9288933463394641876220703125</LongitudeDegrees>
            </Position>
            <AltitudeMeters>99.8000030517578125</AltitudeMeters>
            <DistanceMeters>NAN</DistanceMeters>
          </Trackpoint>
          <Trackpoint>
            <Time>2022-07-09T09:39:27.000Z</Time>
            <Position>
              <LatitudeDegrees>43.330014087259769439697265625</LatitudeDegrees>
              <LongitudeDegrees>-1.92881095223128795623779296875</LongitudeDegrees>
            </Position>
            <AltitudeMeters>100.1999969482421875</AltitudeMeters>
            <DistanceMeters>NAN</DistanceMeters>
          </Trackpoint>
          <Trackpoint>
            <Time>2022-07-09T09:39:33.000Z</Time>
            <Position>
              <LatitudeDegrees>43.330037556588649749755859375</LatitudeDegrees>
              <LongitudeDegrees>-1.92867332138121128082275390625</LongitudeDegrees>
            </Position>
            <AltitudeMeters>100.8000030517578125</AltitudeMeters>
            <DistanceMeters>NAN</DistanceMeters>
          </Trackpoint>
          <Trackpoint>
            <Time>2022-07-09T09:39:39.000Z</Time>
            <Position>
              <LatitudeDegrees>43.3301617763936519622802734375</LatitudeDegrees>
              <LongitudeDegrees>-1.92844935692846775054931640625</LongitudeDegrees>
            </Position>
            <AltitudeMeters>101.40000152587890625</AltitudeMeters>
            <DistanceMeters>NAN</DistanceMeters>
          </Trackpoint>
          <Trackpoint>
            <Time>2022-07-09T09:39:47.000Z</Time>
            <Position>
              <LatitudeDegrees>43.33028205670416355133056640625</LatitudeDegrees>
              <LongitudeDegrees>-1.9282923638820648193359375</LongitudeDegrees>
            </Position>
            <AltitudeMeters>102.1999969482421875</AltitudeMeters>
            <DistanceMeters>NAN</DistanceMeters>
          </Trackpoint>
          <Trackpoint>
            <Time>2022-07-09T09:39:49.000Z</Time>
            <Position>
              <LatitudeDegrees>43.3302861638367176055908203125</LatitudeDegrees>
              <LongitudeDegrees>-1.92825506441295146942138671875</LongitudeDegrees>
            </Position>
            <AltitudeMeters>102.40000152587890625</AltitudeMeters>
            <DistanceMeters>NAN</DistanceMeters>
          </Trackpoint>
          <Trackpoint>
            <Time>2022-07-09T09:39:53.000Z</Time>
            <Position>
              <LatitudeDegrees>43.33033000119030475616455078125</LatitudeDegrees>
              <LongitudeDegrees>-1.92819203250110149383544921875</LongitudeDegrees>
            </Position>
            <AltitudeMeters>103</AltitudeMeters>
            <DistanceMeters>NAN</DistanceMeters>
          </Trackpoint>
          <Trackpoint>
            <Time>2022-07-09T09:39:57.000Z</Time>
            <Position>
              <LatitudeDegrees>43.33038750104606151580810546875</LatitudeDegrees>
              <LongitudeDegrees>-1.928162276744842529296875</LongitudeDegrees>
            </Position>
            <AltitudeMeters>103.40000152587890625</AltitudeMeters>
            <DistanceMeters>NAN</DistanceMeters>
          </Trackpoint>
          <Trackpoint>
            <Time>2022-07-09T09:39:58.000Z</Time>
            <Position>
              <LatitudeDegrees>43.3304011635482311248779296875</LatitudeDegrees>
              <LongitudeDegrees>-1.92816336639225482940673828125</LongitudeDegrees>
            </Position>
            <AltitudeMeters>103.40000152587890625</AltitudeMeters>
            <DistanceMeters>NAN</DistanceMeters>
          </Trackpoint>
          <Trackpoint>
            <Time>2022-07-09T09:40:03.000Z</Time>
            <Position>
              <LatitudeDegrees>43.330450616776943206787109375</LatitudeDegrees>
              <LongitudeDegrees>-1.9281862489879131317138671875</LongitudeDegrees>
            </Position>
            <AltitudeMeters>104.1999969482421875</AltitudeMeters>
            <DistanceMeters>NAN</DistanceMeters>
          </Trackpoint>
          <Trackpoint>
            <Time>2022-07-09T09:40:04.000Z</Time>
            <Position>
              <LatitudeDegrees>43.33045832812786102294921875</LatitudeDegrees>
              <LongitudeDegrees>-1.92820209078490734100341796875</LongitudeDegrees>
            </Position>
            <AltitudeMeters>104.1999969482421875</AltitudeMeters>
            <DistanceMeters>NAN</DistanceMeters>
          </Trackpoint>
          <Trackpoint>
            <Time>2022-07-09T09:40:08.000Z</Time>
            <Position>
              <LatitudeDegrees>43.330490849912166595458984375</LatitudeDegrees>
              <LongitudeDegrees>-1.92825741134583950042724609375</LongitudeDegrees>
            </Position>
            <AltitudeMeters>104.59999847412109375</AltitudeMeters>
            <DistanceMeters>NAN</DistanceMeters>
          </Trackpoint>
          <Trackpoint>
            <Time>2022-07-09T09:40:12.000Z</Time>
            <Position>
              <LatitudeDegrees>43.33049948327243328094482421875</LatitudeDegrees>
              <LongitudeDegrees>-1.9283473491668701171875</LongitudeDegrees>
            </Position>
            <AltitudeMeters>105</AltitudeMeters>
            <DistanceMeters>NAN</DistanceMeters>
          </Trackpoint>
          <Trackpoint>
            <Time>2022-07-09T09:40:17.000Z</Time>
            <Position>
              <LatitudeDegrees>43.33051188848912715911865234375</LatitudeDegrees>
              <LongitudeDegrees>-1.928450949490070343017578125</LongitudeDegrees>
            </Position>
            <AltitudeMeters>105.59999847412109375</AltitudeMeters>
            <DistanceMeters>NAN</DistanceMeters>
          </Trackpoint>
          <Trackpoint>
            <Time>2022-07-09T09:40:20.000Z</Time>
            <Position>
              <LatitudeDegrees>43.330521024763584136962890625</LatitudeDegrees>
              <LongitudeDegrees>-1.92851088009774684906005859375</LongitudeDegrees>
            </Position>
            <AltitudeMeters>106</AltitudeMeters>
            <DistanceMeters>NAN</DistanceMeters>
          </Trackpoint>
          <Trackpoint>
            <Time>2022-07-09T09:40:24.000Z</Time>
            <Position>
              <LatitudeDegrees>43.330536782741546630859375</LatitudeDegrees>
              <LongitudeDegrees>-1.9285855628550052642822265625</LongitudeDegrees>
            </Position>
            <AltitudeMeters>106.8000030517578125</AltitudeMeters>
            <DistanceMeters>NAN</DistanceMeters>
          </Trackpoint>
          <Trackpoint>
            <Time>2022-07-09T09:40:28.000Z</Time>
            <Position>
              <LatitudeDegrees>43.33055078051984310150146484375</LatitudeDegrees>
              <LongitudeDegrees>-1.9286573119461536407470703125</LongitudeDegrees>
            </Position>
            <AltitudeMeters>107.1999969482421875</AltitudeMeters>
            <DistanceMeters>NAN</DistanceMeters>
          </Trackpoint>
          <Trackpoint>
            <Time>2022-07-09T09:40:33.000Z</Time>
            <Position>
              <LatitudeDegrees>43.330596797168254852294921875</LatitudeDegrees>
              <LongitudeDegrees>-1.9287049211561679840087890625</LongitudeDegrees>
            </Position>
            <AltitudeMeters>108</AltitudeMeters>
            <DistanceMeters>NAN</DistanceMeters>
          </Trackpoint>
          <Trackpoint>
            <Time>2022-07-09T09:40:35.000Z</Time>
            <Position>
              <LatitudeDegrees>43.3306147344410419464111328125</LatitudeDegrees>
              <LongitudeDegrees>-1.9287411309778690338134765625</LongitudeDegrees>
            </Position>
            <AltitudeMeters>108.40000152587890625</AltitudeMeters>
            <DistanceMeters>NAN</DistanceMeters>
          </Trackpoint>
          <Trackpoint>
            <Time>2022-07-09T09:40:37.000Z</Time>
            <Position>
              <LatitudeDegrees>43.3306418918073177337646484375</LatitudeDegrees>
              <LongitudeDegrees>-1.92876200191676616668701171875</LongitudeDegrees>
            </Position>
            <AltitudeMeters>108.40000152587890625</AltitudeMeters>
            <DistanceMeters>NAN</DistanceMeters>
          </Trackpoint>
          <Trackpoint>
            <Time>2022-07-09T09:40:40.000Z</Time>
            <Position>
              <LatitudeDegrees>43.33067617379128932952880859375</LatitudeDegrees>
              <LongitudeDegrees>-1.92880558781325817108154296875</LongitudeDegrees>
            </Position>
            <AltitudeMeters>108.59999847412109375</AltitudeMeters>
            <DistanceMeters>NAN</DistanceMeters>
          </Trackpoint>
          <Trackpoint>
            <Time>2022-07-09T09:40:41.000Z</Time>
            <Position>
              <LatitudeDegrees>43.330687992274761199951171875</LatitudeDegrees>
              <LongitudeDegrees>-1.9288207590579986572265625</LongitudeDegrees>
            </Position>
            <AltitudeMeters>108.8000030517578125</AltitudeMeters>
            <DistanceMeters>NAN</DistanceMeters>
          </Trackpoint>
          <Trackpoint>
            <Time>2022-07-09T09:40:44.000Z</Time>
            <Position>
              <LatitudeDegrees>43.3307193405926227569580078125</LatitudeDegrees>
              <LongitudeDegrees>-1.92885923199355602264404296875</LongitudeDegrees>
            </Position>
            <AltitudeMeters>109</AltitudeMeters>
            <DistanceMeters>NAN</DistanceMeters>
          </Trackpoint>
          <Trackpoint>
            <Time>2022-07-09T09:40:45.000Z</Time>
            <Position>
              <LatitudeDegrees>43.33072931505739688873291015625</LatitudeDegrees>
              <LongitudeDegrees>-1.9288698770105838775634765625</LongitudeDegrees>
            </Position>
            <AltitudeMeters>109.1999969482421875</AltitudeMeters>
            <DistanceMeters>NAN</DistanceMeters>
          </Trackpoint>
          <Trackpoint>
            <Time>2022-07-09T09:40:53.000Z</Time>
            <Position>
              <LatitudeDegrees>43.33083811216056346893310546875</LatitudeDegrees>
              <LongitudeDegrees>-1.928980015218257904052734375</LongitudeDegrees>
            </Position>
            <AltitudeMeters>110</AltitudeMeters>
            <DistanceMeters>NAN</DistanceMeters>
          </Trackpoint>
          <Trackpoint>
            <Time>2022-07-09T09:40:54.000Z</Time>
            <Position>
              <LatitudeDegrees>43.33085085265338420867919921875</LatitudeDegrees>
              <LongitudeDegrees>-1.92899602465331554412841796875</LongitudeDegrees>
            </Position>
            <AltitudeMeters>110</AltitudeMeters>
            <DistanceMeters>NAN</DistanceMeters>
          </Trackpoint>
          <Trackpoint>
            <Time>2022-07-09T09:41:01.000Z</Time>
            <Position>
              <LatitudeDegrees>43.3309308998286724090576171875</LatitudeDegrees>
              <LongitudeDegrees>-1.92913164384663105010986328125</LongitudeDegrees>
            </Position>
            <AltitudeMeters>111</AltitudeMeters>
            <DistanceMeters>NAN</DistanceMeters>
          </Trackpoint>
          <Trackpoint>
            <Time>2022-07-09T09:41:03.000Z</Time>
            <Position>
              <LatitudeDegrees>43.33094305358827114105224609375</LatitudeDegrees>
              <LongitudeDegrees>-1.929164417088031768798828125</LongitudeDegrees>
            </Position>
            <AltitudeMeters>111</AltitudeMeters>
            <DistanceMeters>NAN</DistanceMeters>
          </Trackpoint>
          <Trackpoint>
            <Time>2022-07-09T09:41:04.000Z</Time>
            <Position>
              <LatitudeDegrees>43.33095026202499866485595703125</LatitudeDegrees>
              <LongitudeDegrees>-1.9291887246072292327880859375</LongitudeDegrees>
            </Position>
            <AltitudeMeters>111.1999969482421875</AltitudeMeters>
            <DistanceMeters>NAN</DistanceMeters>
          </Trackpoint>
          <Trackpoint>
            <Time>2022-07-09T09:41:09.000Z</Time>
            <Position>
              <LatitudeDegrees>43.33097607828676700592041015625</LatitudeDegrees>
              <LongitudeDegrees>-1.92928805015981197357177734375</LongitudeDegrees>
            </Position>
            <AltitudeMeters>111.59999847412109375</AltitudeMeters>
            <DistanceMeters>NAN</DistanceMeters>
          </Trackpoint>
          <Trackpoint>
            <Time>2022-07-09T09:41:17.000Z</Time>
            <Position>
              <LatitudeDegrees>43.3309758268296718597412109375</LatitudeDegrees>
              <LongitudeDegrees>-1.9294646568596363067626953125</LongitudeDegrees>
            </Position>
            <AltitudeMeters>112</AltitudeMeters>
            <DistanceMeters>NAN</DistanceMeters>
          </Trackpoint>
          <Trackpoint>
            <Time>2022-07-09T09:41:19.000Z</Time>
            <Position>
              <LatitudeDegrees>43.330980353057384490966796875</LatitudeDegrees>
              <LongitudeDegrees>-1.92951335571706295013427734375</LongitudeDegrees>
            </Position>
            <AltitudeMeters>112.1999969482421875</AltitudeMeters>
            <DistanceMeters>NAN</DistanceMeters>
          </Trackpoint>
          <Trackpoint>
            <Time>2022-07-09T09:41:24.000Z</Time>
            <Position>
              <LatitudeDegrees>43.33098135888576507568359375</LatitudeDegrees>
              <LongitudeDegrees>-1.9296369887888431549072265625</LongitudeDegrees>
            </Position>
            <AltitudeMeters>112.59999847412109375</AltitudeMeters>
            <DistanceMeters>NAN</DistanceMeters>
          </Trackpoint>
          <Trackpoint>
            <Time>2022-07-09T09:41:28.000Z</Time>
            <Position>
              <LatitudeDegrees>43.3309929259121417999267578125</LatitudeDegrees>
              <LongitudeDegrees>-1.92973195575177669525146484375</LongitudeDegrees>
            </Position>
            <AltitudeMeters>113</AltitudeMeters>
            <DistanceMeters>NAN</DistanceMeters>
          </Trackpoint>
          <Trackpoint>
            <Time>2022-07-09T09:41:32.000Z</Time>
            <Position>
              <LatitudeDegrees>43.33102016709744930267333984375</LatitudeDegrees>
              <LongitudeDegrees>-1.92980135791003704071044921875</LongitudeDegrees>
            </Position>
            <AltitudeMeters>113.40000152587890625</AltitudeMeters>
            <DistanceMeters>NAN</DistanceMeters>
          </Trackpoint>
          <Trackpoint>
            <Time>2022-07-09T09:41:35.000Z</Time>
            <Position>
              <LatitudeDegrees>43.3310395292937755584716796875</LatitudeDegrees>
              <LongitudeDegrees>-1.92984578199684619903564453125</LongitudeDegrees>
            </Position>
            <AltitudeMeters>113.59999847412109375</AltitudeMeters>
            <DistanceMeters>NAN</DistanceMeters>
          </Trackpoint>
          <Trackpoint>
            <Time>2022-07-09T09:41:42.000Z</Time>
            <Position>
              <LatitudeDegrees>43.33107230253517627716064453125</LatitudeDegrees>
              <LongitudeDegrees>-1.92998014390468597412109375</LongitudeDegrees>
            </Position>
            <AltitudeMeters>114.1999969482421875</AltitudeMeters>
            <DistanceMeters>NAN</DistanceMeters>
          </Trackpoint>
          <Trackpoint>
            <Time>2022-07-09T09:41:43.000Z</Time>
            <Position>
              <LatitudeDegrees>43.33107850514352321624755859375</LatitudeDegrees>
              <LongitudeDegrees>-1.9299970753490924835205078125</LongitudeDegrees>
            </Position>
            <AltitudeMeters>114.40000152587890625</AltitudeMeters>
            <DistanceMeters>NAN</DistanceMeters>
          </Trackpoint>
          <Trackpoint>
            <Time>2022-07-09T09:41:51.000Z</Time>
            <Position>
              <LatitudeDegrees>43.33111588843166828155517578125</LatitudeDegrees>
              <LongitudeDegrees>-1.9301404058933258056640625</LongitudeDegrees>
            </Position>
            <AltitudeMeters>115.40000152587890625</AltitudeMeters>
            <DistanceMeters>NAN</DistanceMeters>
          </Trackpoint>
          <Trackpoint>
            <Time>2022-07-09T09:41:52.000Z</Time>
            <Position>
              <LatitudeDegrees>43.3311233483254909515380859375</LatitudeDegrees>
              <LongitudeDegrees>-1.930155493319034576416015625</LongitudeDegrees>
            </Position>
            <AltitudeMeters>115.59999847412109375</AltitudeMeters>
            <DistanceMeters>NAN</DistanceMeters>
          </Trackpoint>
          <Trackpoint>
            <Time>2022-07-09T09:41:54.000Z</Time>
            <Position>
              <LatitudeDegrees>43.33113516680896282196044921875</LatitudeDegrees>
              <LongitudeDegrees>-1.9301912002265453338623046875</LongitudeDegrees>
            </Position>
            <AltitudeMeters>115.59999847412109375</AltitudeMeters>
            <DistanceMeters>NAN</DistanceMeters>
          </Trackpoint>
          <Trackpoint>
            <Time>2022-07-09T09:41:57.000Z</Time>
            <Position>
              <LatitudeDegrees>43.33116785623133182525634765625</LatitudeDegrees>
              <LongitudeDegrees>-1.9302396476268768310546875</LongitudeDegrees>
            </Position>
            <AltitudeMeters>115.8000030517578125</AltitudeMeters>
            <DistanceMeters>NAN</DistanceMeters>
          </Trackpoint>
          <Trackpoint>
            <Time>2022-07-09T09:42:02.000Z</Time>
            <Position>
              <LatitudeDegrees>43.331231810152530670166015625</LatitudeDegrees>
              <LongitudeDegrees>-1.93031148053705692291259765625</LongitudeDegrees>
            </Position>
            <AltitudeMeters>116.40000152587890625</AltitudeMeters>
            <DistanceMeters>NAN</DistanceMeters>
          </Trackpoint>
          <Trackpoint>
            <Time>2022-07-09T09:42:04.000Z</Time>
            <Position>
              <LatitudeDegrees>43.33124530501663684844970703125</LatitudeDegrees>
              <LongitudeDegrees>-1.93034802563488483428955078125</LongitudeDegrees>
            </Position>
            <AltitudeMeters>116.40000152587890625</AltitudeMeters>
            <DistanceMeters>NAN</DistanceMeters>
          </Trackpoint>
          <Trackpoint>
            <Time>2022-07-09T09:42:05.000Z</Time>
            <Position>
              <LatitudeDegrees>43.3312544412910938262939453125</LatitudeDegrees>
              <LongitudeDegrees>-1.93036646582186222076416015625</LongitudeDegrees>
            </Position>
            <AltitudeMeters>116.59999847412109375</AltitudeMeters>
            <DistanceMeters>NAN</DistanceMeters>
          </Trackpoint>
          <Trackpoint>
            <Time>2022-07-09T09:42:07.000Z</Time>
            <Position>
              <LatitudeDegrees>43.3312762342393398284912109375</LatitudeDegrees>
              <LongitudeDegrees>-1.93040259182453155517578125</LongitudeDegrees>
            </Position>
            <AltitudeMeters>116.59999847412109375</AltitudeMeters>
            <DistanceMeters>NAN</DistanceMeters>
          </Trackpoint>
          <Trackpoint>
            <Time>2022-07-09T09:42:10.000Z</Time>
            <Position>
              <LatitudeDegrees>43.33131521008908748626708984375</LatitudeDegrees>
              <LongitudeDegrees>-1.9304622709751129150390625</LongitudeDegrees>
            </Position>
            <AltitudeMeters>116.8000030517578125</AltitudeMeters>
            <DistanceMeters>NAN</DistanceMeters>
          </Trackpoint>
          <Trackpoint>
            <Time>2022-07-09T09:42:17.000Z</Time>
            <Position>
              <LatitudeDegrees>43.33135577850043773651123046875</LatitudeDegrees>
              <LongitudeDegrees>-1.93059311248362064361572265625</LongitudeDegrees>
            </Position>
            <AltitudeMeters>117.59999847412109375</AltitudeMeters>
            <DistanceMeters>NAN</DistanceMeters>
          </Trackpoint>
          <Trackpoint>
            <Time>2022-07-09T09:42:21.000Z</Time>
            <Position>
              <LatitudeDegrees>43.33135996945202350616455078125</LatitudeDegrees>
              <LongitudeDegrees>-1.930669136345386505126953125</LongitudeDegrees>
            </Position>
            <AltitudeMeters>117.8000030517578125</AltitudeMeters>
            <DistanceMeters>NAN</DistanceMeters>
          </Trackpoint>
          <Trackpoint>
            <Time>2022-07-09T09:42:23.000Z</Time>
            <Position>
              <LatitudeDegrees>43.33135225810110569000244140625</LatitudeDegrees>
              <LongitudeDegrees>-1.93071800284087657928466796875</LongitudeDegrees>
            </Position>
            <AltitudeMeters>118</AltitudeMeters>
            <DistanceMeters>NAN</DistanceMeters>
          </Trackpoint>
          <Trackpoint>
            <Time>2022-07-09T09:42:29.000Z</Time>
            <Position>
              <LatitudeDegrees>43.33135175518691539764404296875</LatitudeDegrees>
              <LongitudeDegrees>-1.9308342598378658294677734375</LongitudeDegrees>
            </Position>
            <AltitudeMeters>118.59999847412109375</AltitudeMeters>
            <DistanceMeters>NAN</DistanceMeters>
          </Trackpoint>
          <Trackpoint>
            <Time>2022-07-09T09:42:30.000Z</Time>
            <Position>
              <LatitudeDegrees>43.3313503302633762359619140625</LatitudeDegrees>
              <LongitudeDegrees>-1.9308426417410373687744140625</LongitudeDegrees>
            </Position>
            <AltitudeMeters>118.59999847412109375</AltitudeMeters>
            <DistanceMeters>NAN</DistanceMeters>
          </Trackpoint>
          <Trackpoint>
            <Time>2022-07-09T09:42:32.000Z</Time>
            <Position>
              <LatitudeDegrees>43.33133951760828495025634765625</LatitudeDegrees>
              <LongitudeDegrees>-1.93084775470197200775146484375</LongitudeDegrees>
            </Position>
            <AltitudeMeters>118.8000030517578125</AltitudeMeters>
            <DistanceMeters>NAN</DistanceMeters>
          </Trackpoint>
          <Trackpoint>
            <Time>2022-07-09T09:43:38.000Z</Time>
            <Position>
              <LatitudeDegrees>43.331377990543842315673828125</LatitudeDegrees>
              <LongitudeDegrees>-1.9308614172041416168212890625</LongitudeDegrees>
            </Position>
            <AltitudeMeters>119.1999969482421875</AltitudeMeters>
            <DistanceMeters>NAN</DistanceMeters>
          </Trackpoint>
          <Trackpoint>
            <Time>2022-07-09T09:43:39.000Z</Time>
            <Position>
              <LatitudeDegrees>43.3313761465251445770263671875</LatitudeDegrees>
              <LongitudeDegrees>-1.93088798783719539642333984375</LongitudeDegrees>
            </Position>
            <AltitudeMeters>119.1999969482421875</AltitudeMeters>
            <DistanceMeters>NAN</DistanceMeters>
          </Trackpoint>
          <Trackpoint>
            <Time>2022-07-09T09:43:43.000Z</Time>
            <Position>
              <LatitudeDegrees>43.331365920603275299072265625</LatitudeDegrees>
              <LongitudeDegrees>-1.93098253570497035980224609375</LongitudeDegrees>
            </Position>
            <AltitudeMeters>119.8000030517578125</AltitudeMeters>
            <DistanceMeters>NAN</DistanceMeters>
          </Trackpoint>
          <Trackpoint>
            <Time>2022-07-09T09:43:46.000Z</Time>
            <Position>
              <LatitudeDegrees>43.33134873770177364349365234375</LatitudeDegrees>
              <LongitudeDegrees>-1.93104791454970836639404296875</LongitudeDegrees>
            </Position>
            <AltitudeMeters>120.40000152587890625</AltitudeMeters>
            <DistanceMeters>NAN</DistanceMeters>
          </Trackpoint>
          <Trackpoint>
            <Time>2022-07-09T09:43:48.000Z</Time>
            <Position>
              <LatitudeDegrees>43.3313401043415069580078125</LatitudeDegrees>
              <LongitudeDegrees>-1.93109418265521526336669921875</LongitudeDegrees>
            </Position>
            <AltitudeMeters>120.59999847412109375</AltitudeMeters>
            <DistanceMeters>NAN</DistanceMeters>
          </Trackpoint>
          <Trackpoint>
            <Time>2022-07-09T09:43:50.000Z</Time>
            <Position>
              <LatitudeDegrees>43.33133532665669918060302734375</LatitudeDegrees>
              <LongitudeDegrees>-1.93113843910396099090576171875</LongitudeDegrees>
            </Position>
            <AltitudeMeters>120.8000030517578125</AltitudeMeters>
            <DistanceMeters>NAN</DistanceMeters>
          </Trackpoint>
          <Trackpoint>
            <Time>2022-07-09T09:43:52.000Z</Time>
            <Position>
              <LatitudeDegrees>43.3313339017331600189208984375</LatitudeDegrees>
              <LongitudeDegrees>-1.93117481656372547149658203125</LongitudeDegrees>
            </Position>
            <AltitudeMeters>121</AltitudeMeters>
            <DistanceMeters>NAN</DistanceMeters>
          </Trackpoint>
          <Trackpoint>
            <Time>2022-07-09T09:43:53.000Z</Time>
            <Position>
              <LatitudeDegrees>43.3313278667628765106201171875</LatitudeDegrees>
              <LongitudeDegrees>-1.93120189011096954345703125</LongitudeDegrees>
            </Position>
            <AltitudeMeters>121</AltitudeMeters>
            <DistanceMeters>NAN</DistanceMeters>
          </Trackpoint>
          <Trackpoint>
            <Time>2022-07-09T09:43:59.000Z</Time>
            <Position>
              <LatitudeDegrees>43.331332392990589141845703125</LatitudeDegrees>
              <LongitudeDegrees>-1.93132418207824230194091796875</LongitudeDegrees>
            </Position>
            <AltitudeMeters>121.59999847412109375</AltitudeMeters>
            <DistanceMeters>NAN</DistanceMeters>
          </Trackpoint>
          <Trackpoint>
            <Time>2022-07-09T09:44:01.000Z</Time>
            <Position>
              <LatitudeDegrees>43.33133272826671600341796875</LatitudeDegrees>
              <LongitudeDegrees>-1.93135335110127925872802734375</LongitudeDegrees>
            </Position>
            <AltitudeMeters>121.8000030517578125</AltitudeMeters>
            <DistanceMeters>NAN</DistanceMeters>
          </Trackpoint>
          <Trackpoint>
            <Time>2022-07-09T09:44:02.000Z</Time>
            <Position>
              <LatitudeDegrees>43.331333734095096588134765625</LatitudeDegrees>
              <LongitudeDegrees>-1.9313742220401763916015625</LongitudeDegrees>
            </Position>
            <AltitudeMeters>121.8000030517578125</AltitudeMeters>
            <DistanceMeters>NAN</DistanceMeters>
          </Trackpoint>
          <Trackpoint>
            <Time>2022-07-09T09:44:08.000Z</Time>
            <Position>
              <LatitudeDegrees>43.33135955035686492919921875</LatitudeDegrees>
              <LongitudeDegrees>-1.9314895570278167724609375</LongitudeDegrees>
            </Position>
            <AltitudeMeters>122.40000152587890625</AltitudeMeters>
            <DistanceMeters>NAN</DistanceMeters>
          </Trackpoint>
          <Trackpoint>
            <Time>2022-07-09T09:44:11.000Z</Time>
            <Position>
              <LatitudeDegrees>43.33137958310544490814208984375</LatitudeDegrees>
              <LongitudeDegrees>-1.9315406866371631622314453125</LongitudeDegrees>
            </Position>
            <AltitudeMeters>122.8000030517578125</AltitudeMeters>
            <DistanceMeters>NAN</DistanceMeters>
          </Trackpoint>
          <Trackpoint>
            <Time>2022-07-09T09:44:13.000Z</Time>
            <Position>
              <LatitudeDegrees>43.3313895575702190399169921875</LatitudeDegrees>
              <LongitudeDegrees>-1.93156893365085124969482421875</LongitudeDegrees>
            </Position>
            <AltitudeMeters>122.8000030517578125</AltitudeMeters>
            <DistanceMeters>NAN</DistanceMeters>
          </Trackpoint>
          <Trackpoint>
            <Time>2022-07-09T09:44:14.000Z</Time>
            <Position>
              <LatitudeDegrees>43.33139886148273944854736328125</LatitudeDegrees>
              <LongitudeDegrees>-1.9315869547426700592041015625</LongitudeDegrees>
            </Position>
            <AltitudeMeters>123</AltitudeMeters>
            <DistanceMeters>NAN</DistanceMeters>
          </Trackpoint>
          <Trackpoint>
            <Time>2022-07-09T09:44:15.000Z</Time>
            <Position>
              <LatitudeDegrees>43.3314073272049427032470703125</LatitudeDegrees>
              <LongitudeDegrees>-1.93160011433064937591552734375</LongitudeDegrees>
            </Position>
            <AltitudeMeters>123</AltitudeMeters>
            <DistanceMeters>NAN</DistanceMeters>
          </Trackpoint>
          <Trackpoint>
            <Time>2022-07-09T09:44:22.000Z</Time>
            <Position>
              <LatitudeDegrees>43.33147580735385417938232421875</LatitudeDegrees>
              <LongitudeDegrees>-1.931723915040493011474609375</LongitudeDegrees>
            </Position>
            <AltitudeMeters>123.40000152587890625</AltitudeMeters>
            <DistanceMeters>NAN</DistanceMeters>
          </Trackpoint>
          <Trackpoint>
            <Time>2022-07-09T09:44:29.000Z</Time>
            <Position>
              <LatitudeDegrees>43.3315404318273067474365234375</LatitudeDegrees>
              <LongitudeDegrees>-1.93182927556335926055908203125</LongitudeDegrees>
            </Position>
            <AltitudeMeters>124</AltitudeMeters>
            <DistanceMeters>NAN</DistanceMeters>
          </Trackpoint>
          <Trackpoint>
            <Time>2022-07-09T09:44:30.000Z</Time>
            <Position>
              <LatitudeDegrees>43.3315511606633663177490234375</LatitudeDegrees>
              <LongitudeDegrees>-1.93185274489223957061767578125</LongitudeDegrees>
            </Position>
            <AltitudeMeters>124</AltitudeMeters>
            <DistanceMeters>NAN</DistanceMeters>
          </Trackpoint>
          <Trackpoint>
            <Time>2022-07-09T09:44:40.000Z</Time>
            <Position>
              <LatitudeDegrees>43.3316202275454998016357421875</LatitudeDegrees>
              <LongitudeDegrees>-1.9320606999099254608154296875</LongitudeDegrees>
            </Position>
            <AltitudeMeters>124.1999969482421875</AltitudeMeters>
            <DistanceMeters>NAN</DistanceMeters>
          </Trackpoint>
          <Trackpoint>
            <Time>2022-07-09T09:44:46.000Z</Time>
            <Position>
              <LatitudeDegrees>43.33169055171310901641845703125</LatitudeDegrees>
              <LongitudeDegrees>-1.93218165077269077301025390625</LongitudeDegrees>
            </Position>
            <AltitudeMeters>124.40000152587890625</AltitudeMeters>
            <DistanceMeters>NAN</DistanceMeters>
          </Trackpoint>
          <Trackpoint>
            <Time>2022-07-09T09:44:48.000Z</Time>
            <Position>
              <LatitudeDegrees>43.33171653561294078826904296875</LatitudeDegrees>
              <LongitudeDegrees>-1.93220696412026882171630859375</LongitudeDegrees>
            </Position>
            <AltitudeMeters>124.40000152587890625</AltitudeMeters>
            <DistanceMeters>NAN</DistanceMeters>
          </Trackpoint>
          <Trackpoint>
            <Time>2022-07-09T09:44:49.000Z</Time>
            <Position>
              <LatitudeDegrees>43.33171653561294078826904296875</LatitudeDegrees>
              <LongitudeDegrees>-1.93220696412026882171630859375</LongitudeDegrees>
            </Position>
            <AltitudeMeters>124.40000152587890625</AltitudeMeters>
            <DistanceMeters>NAN</DistanceMeters>
          </Trackpoint>
          <Trackpoint>
            <Time>2022-07-09T09:44:54.000Z</Time>
            <Position>
              <LatitudeDegrees>43.33179297856986522674560546875</LatitudeDegrees>
              <LongitudeDegrees>-1.93231844343245029449462890625</LongitudeDegrees>
            </Position>
            <AltitudeMeters>124.59999847412109375</AltitudeMeters>
            <DistanceMeters>NAN</DistanceMeters>
          </Trackpoint>
          <Trackpoint>
            <Time>2022-07-09T09:44:57.000Z</Time>
            <Position>
              <LatitudeDegrees>43.33181477151811122894287109375</LatitudeDegrees>
              <LongitudeDegrees>-1.93237803876399993896484375</LongitudeDegrees>
            </Position>
            <AltitudeMeters>124.59999847412109375</AltitudeMeters>
            <DistanceMeters>NAN</DistanceMeters>
          </Trackpoint>
          <Trackpoint>
            <Time>2022-07-09T09:45:01.000Z</Time>
            <Position>
              <LatitudeDegrees>43.3318576030433177947998046875</LatitudeDegrees>
              <LongitudeDegrees>-1.9324650429189205169677734375</LongitudeDegrees>
            </Position>
            <AltitudeMeters>124.59999847412109375</AltitudeMeters>
            <DistanceMeters>NAN</DistanceMeters>
          </Trackpoint>
          <Trackpoint>
            <Time>2022-07-09T09:45:07.000Z</Time>
            <Position>
              <LatitudeDegrees>43.3319591917097568511962890625</LatitudeDegrees>
              <LongitudeDegrees>-1.93262320943176746368408203125</LongitudeDegrees>
            </Position>
            <AltitudeMeters>124.40000152587890625</AltitudeMeters>
            <DistanceMeters>NAN</DistanceMeters>
          </Trackpoint>
          <Trackpoint>
            <Time>2022-07-09T09:45:13.000Z</Time>
            <Position>
              <LatitudeDegrees>43.3320953138172626495361328125</LatitudeDegrees>
              <LongitudeDegrees>-1.93276251666247844696044921875</LongitudeDegrees>
            </Position>
            <AltitudeMeters>123.8000030517578125</AltitudeMeters>
            <DistanceMeters>NAN</DistanceMeters>
          </Trackpoint>
          <Trackpoint>
            <Time>2022-07-09T09:45:17.000Z</Time>
            <Position>
              <LatitudeDegrees>43.3321047015488147735595703125</LatitudeDegrees>
              <LongitudeDegrees>-1.93277098238468170166015625</LongitudeDegrees>
            </Position>
            <AltitudeMeters>123.40000152587890625</AltitudeMeters>
            <DistanceMeters>NAN</DistanceMeters>
          </Trackpoint>
          <Trackpoint>
            <Time>2022-07-09T09:45:57.000Z</Time>
            <Position>
              <LatitudeDegrees>43.3321264944970607757568359375</LatitudeDegrees>
              <LongitudeDegrees>-1.93284449167549610137939453125</LongitudeDegrees>
            </Position>
            <AltitudeMeters>122.40000152587890625</AltitudeMeters>
            <DistanceMeters>NAN</DistanceMeters>
          </Trackpoint>
          <Trackpoint>
            <Time>2022-07-09T09:45:58.000Z</Time>
            <Position>
              <LatitudeDegrees>43.33214501850306987762451171875</LatitudeDegrees>
              <LongitudeDegrees>-1.93287919275462627410888671875</LongitudeDegrees>
            </Position>
            <AltitudeMeters>122.40000152587890625</AltitudeMeters>
            <DistanceMeters>NAN</DistanceMeters>
          </Trackpoint>
          <Trackpoint>
            <Time>2022-07-09T09:45:59.000Z</Time>
            <Position>
              <LatitudeDegrees>43.33216463215649127960205078125</LatitudeDegrees>
              <LongitudeDegrees>-1.932920180261135101318359375</LongitudeDegrees>
            </Position>
            <AltitudeMeters>122.40000152587890625</AltitudeMeters>
            <DistanceMeters>NAN</DistanceMeters>
          </Trackpoint>
          <Trackpoint>
            <Time>2022-07-09T09:46:04.000Z</Time>
            <Position>
              <LatitudeDegrees>43.33227225579321384429931640625</LatitudeDegrees>
              <LongitudeDegrees>-1.93313534371554851531982421875</LongitudeDegrees>
            </Position>
            <AltitudeMeters>121.40000152587890625</AltitudeMeters>
            <DistanceMeters>NAN</DistanceMeters>
          </Trackpoint>
          <Trackpoint>
            <Time>2022-07-09T09:46:08.000Z</Time>
            <Position>
              <LatitudeDegrees>43.3323591761291027069091796875</LatitudeDegrees>
              <LongitudeDegrees>-1.9332546181976795196533203125</LongitudeDegrees>
            </Position>
            <AltitudeMeters>120.1999969482421875</AltitudeMeters>
            <DistanceMeters>NAN</DistanceMeters>
          </Trackpoint>
          <Trackpoint>
            <Time>2022-07-09T09:46:11.000Z</Time>
            <Position>
              <LatitudeDegrees>43.33242380060255527496337890625</LatitudeDegrees>
              <LongitudeDegrees>-1.93334455601871013641357421875</LongitudeDegrees>
            </Position>
            <AltitudeMeters>119.59999847412109375</AltitudeMeters>
            <DistanceMeters>NAN</DistanceMeters>
          </Trackpoint>
          <Trackpoint>
            <Time>2022-07-09T09:46:12.000Z</Time>
            <Position>
              <LatitudeDegrees>43.33244592882692813873291015625</LatitudeDegrees>
              <LongitudeDegrees>-1.9333699531853199005126953125</LongitudeDegrees>
            </Position>
            <AltitudeMeters>119.1999969482421875</AltitudeMeters>
            <DistanceMeters>NAN</DistanceMeters>
          </Trackpoint>
          <Trackpoint>
            <Time>2022-07-09T09:46:16.000Z</Time>
            <Position>
              <LatitudeDegrees>43.3325846493244171142578125</LatitudeDegrees>
              <LongitudeDegrees>-1.9334782473742961883544921875</LongitudeDegrees>
            </Position>
            <AltitudeMeters>118.40000152587890625</AltitudeMeters>
            <DistanceMeters>NAN</DistanceMeters>
          </Trackpoint>
          <Trackpoint>
            <Time>2022-07-09T09:46:17.000Z</Time>
            <Position>
              <LatitudeDegrees>43.332607448101043701171875</LatitudeDegrees>
              <LongitudeDegrees>-1.933489479124546051025390625</LongitudeDegrees>
            </Position>
            <AltitudeMeters>118.1999969482421875</AltitudeMeters>
            <DistanceMeters>NAN</DistanceMeters>
          </Trackpoint>
          <Trackpoint>
            <Time>2022-07-09T09:46:19.000Z</Time>
            <Position>
              <LatitudeDegrees>43.3326297439634799957275390625</LatitudeDegrees>
              <LongitudeDegrees>-1.93350129760801792144775390625</LongitudeDegrees>
            </Position>
            <AltitudeMeters>117.1999969482421875</AltitudeMeters>
            <DistanceMeters>NAN</DistanceMeters>
          </Trackpoint>
          <Trackpoint>
            <Time>2022-07-09T09:46:20.000Z</Time>
            <Position>
              <LatitudeDegrees>43.3326382935047149658203125</LatitudeDegrees>
              <LongitudeDegrees>-1.933498866856098175048828125</LongitudeDegrees>
            </Position>
            <AltitudeMeters>117</AltitudeMeters>
            <DistanceMeters>NAN</DistanceMeters>
          </Trackpoint>
          <Trackpoint>
            <Time>2022-07-09T09:46:22.000Z</Time>
            <Position>
              <LatitudeDegrees>43.33264307118952274322509765625</LatitudeDegrees>
              <LongitudeDegrees>-1.93348822183907032012939453125</LongitudeDegrees>
            </Position>
            <AltitudeMeters>116.8000030517578125</AltitudeMeters>
            <DistanceMeters>NAN</DistanceMeters>
          </Trackpoint>
          <Trackpoint>
            <Time>2022-07-09T09:46:31.000Z</Time>
            <Position>
              <LatitudeDegrees>43.33259177394211292266845703125</LatitudeDegrees>
              <LongitudeDegrees>-1.933468021452426910400390625</LongitudeDegrees>
            </Position>
            <AltitudeMeters>116.40000152587890625</AltitudeMeters>
            <DistanceMeters>NAN</DistanceMeters>
          </Trackpoint>
          <Trackpoint>
            <Time>2022-07-09T09:46:32.000Z</Time>
            <Position>
              <LatitudeDegrees>43.33257467485964298248291015625</LatitudeDegrees>
              <LongitudeDegrees>-1.9334556162357330322265625</LongitudeDegrees>
            </Position>
            <AltitudeMeters>116.59999847412109375</AltitudeMeters>
            <DistanceMeters>NAN</DistanceMeters>
          </Trackpoint>
          <Trackpoint>
            <Time>2022-07-09T09:46:36.000Z</Time>
            <Position>
              <LatitudeDegrees>43.3325348608195781707763671875</LatitudeDegrees>
              <LongitudeDegrees>-1.933401636779308319091796875</LongitudeDegrees>
            </Position>
            <AltitudeMeters>116.8000030517578125</AltitudeMeters>
            <DistanceMeters>NAN</DistanceMeters>
          </Trackpoint>
          <Trackpoint>
            <Time>2022-07-09T09:46:37.000Z</Time>
            <Position>
              <LatitudeDegrees>43.3325335197150707244873046875</LatitudeDegrees>
              <LongitudeDegrees>-1.933404989540576934814453125</LongitudeDegrees>
            </Position>
            <AltitudeMeters>117</AltitudeMeters>
            <DistanceMeters>NAN</DistanceMeters>
          </Trackpoint>
          <Trackpoint>
            <Time>2022-07-09T09:46:38.000Z</Time>
            <Position>
              <LatitudeDegrees>43.3325348608195781707763671875</LatitudeDegrees>
              <LongitudeDegrees>-1.93340389989316463470458984375</LongitudeDegrees>
            </Position>
            <AltitudeMeters>117</AltitudeMeters>
            <DistanceMeters>NAN</DistanceMeters>
          </Trackpoint>
          <Trackpoint>
            <Time>2022-07-09T09:47:12.000Z</Time>
            <Position>
              <LatitudeDegrees>43.3325831405818462371826171875</LatitudeDegrees>
              <LongitudeDegrees>-1.93341496400535106658935546875</LongitudeDegrees>
            </Position>
            <AltitudeMeters>117.1999969482421875</AltitudeMeters>
            <DistanceMeters>NAN</DistanceMeters>
          </Trackpoint>
          <Trackpoint>
            <Time>2022-07-09T09:47:14.000Z</Time>
            <Position>
              <LatitudeDegrees>43.33263485692441463470458984375</LatitudeDegrees>
              <LongitudeDegrees>-1.933445893228054046630859375</LongitudeDegrees>
            </Position>
            <AltitudeMeters>117</AltitudeMeters>
            <DistanceMeters>NAN</DistanceMeters>
          </Trackpoint>
          <Trackpoint>
            <Time>2022-07-09T09:47:18.000Z</Time>
            <Position>
              <LatitudeDegrees>43.33276771008968353271484375</LatitudeDegrees>
              <LongitudeDegrees>-1.9335439614951610565185546875</LongitudeDegrees>
            </Position>
            <AltitudeMeters>116.8000030517578125</AltitudeMeters>
            <DistanceMeters>NAN</DistanceMeters>
          </Trackpoint>
          <Trackpoint>
            <Time>2022-07-09T09:47:22.000Z</Time>
            <Position>
              <LatitudeDegrees>43.33292135037481784820556640625</LatitudeDegrees>
              <LongitudeDegrees>-1.93367714993655681610107421875</LongitudeDegrees>
            </Position>
            <AltitudeMeters>116</AltitudeMeters>
            <DistanceMeters>NAN</DistanceMeters>
          </Trackpoint>
          <Trackpoint>
            <Time>2022-07-09T09:47:23.000Z</Time>
            <Position>
              <LatitudeDegrees>43.332967869937419891357421875</LatitudeDegrees>
              <LongitudeDegrees>-1.93371067754924297332763671875</LongitudeDegrees>
            </Position>
            <AltitudeMeters>115.40000152587890625</AltitudeMeters>
            <DistanceMeters>NAN</DistanceMeters>
          </Trackpoint>
          <Trackpoint>
            <Time>2022-07-09T09:47:25.000Z</Time>
            <Position>
              <LatitudeDegrees>43.33306015469133853912353515625</LatitudeDegrees>
              <LongitudeDegrees>-1.9337883777916431427001953125</LongitudeDegrees>
            </Position>
            <AltitudeMeters>114.59999847412109375</AltitudeMeters>
            <DistanceMeters>NAN</DistanceMeters>
          </Trackpoint>
          <Trackpoint>
            <Time>2022-07-09T09:47:26.000Z</Time>
            <Position>
              <LatitudeDegrees>43.33310424350202083587646484375</LatitudeDegrees>
              <LongitudeDegrees>-1.93383255042135715484619140625</LongitudeDegrees>
            </Position>
            <AltitudeMeters>114.1999969482421875</AltitudeMeters>
            <DistanceMeters>NAN</DistanceMeters>
          </Trackpoint>
          <Trackpoint>
            <Time>2022-07-09T09:47:27.000Z</Time>
            <Position>
              <LatitudeDegrees>43.33314858376979827880859375</LatitudeDegrees>
              <LongitudeDegrees>-1.933873035013675689697265625</LongitudeDegrees>
            </Position>
            <AltitudeMeters>113.59999847412109375</AltitudeMeters>
            <DistanceMeters>NAN</DistanceMeters>
          </Trackpoint>
          <Trackpoint>
            <Time>2022-07-09T09:47:28.000Z</Time>
            <Position>
              <LatitudeDegrees>43.3331936784088611602783203125</LatitudeDegrees>
              <LongitudeDegrees>-1.933904550969600677490234375</LongitudeDegrees>
            </Position>
            <AltitudeMeters>113</AltitudeMeters>
            <DistanceMeters>NAN</DistanceMeters>
          </Trackpoint>
          <Trackpoint>
            <Time>2022-07-09T09:47:29.000Z</Time>
            <Position>
              <LatitudeDegrees>43.33324204199016094207763671875</LatitudeDegrees>
              <LongitudeDegrees>-1.93393983878195285797119140625</LongitudeDegrees>
            </Position>
            <AltitudeMeters>112.1999969482421875</AltitudeMeters>
            <DistanceMeters>NAN</DistanceMeters>
          </Trackpoint>
          <Trackpoint>
            <Time>2022-07-09T09:47:30.000Z</Time>
            <Position>
              <LatitudeDegrees>43.33327942527830600738525390625</LatitudeDegrees>
              <LongitudeDegrees>-1.9339657388627529144287109375</LongitudeDegrees>
            </Position>
            <AltitudeMeters>111.40000152587890625</AltitudeMeters>
            <DistanceMeters>NAN</DistanceMeters>
          </Trackpoint>
          <Trackpoint>
            <Time>2022-07-09T09:47:31.000Z</Time>
            <Position>
              <LatitudeDegrees>43.3333137072622776031494140625</LatitudeDegrees>
              <LongitudeDegrees>-1.93397403694689273834228515625</LongitudeDegrees>
            </Position>
            <AltitudeMeters>110.8000030517578125</AltitudeMeters>
            <DistanceMeters>NAN</DistanceMeters>
          </Trackpoint>
          <Trackpoint>
            <Time>2022-07-09T09:47:32.000Z</Time>
            <Position>
              <LatitudeDegrees>43.33334731869399547576904296875</LatitudeDegrees>
              <LongitudeDegrees>-1.93397588096559047698974609375</LongitudeDegrees>
            </Position>
            <AltitudeMeters>110.40000152587890625</AltitudeMeters>
            <DistanceMeters>NAN</DistanceMeters>
          </Trackpoint>
          <Trackpoint>
            <Time>2022-07-09T09:47:34.000Z</Time>
            <Position>
              <LatitudeDegrees>43.3334079198539257049560546875</LatitudeDegrees>
              <LongitudeDegrees>-1.93394419737160205841064453125</LongitudeDegrees>
            </Position>
            <AltitudeMeters>109.8000030517578125</AltitudeMeters>
            <DistanceMeters>NAN</DistanceMeters>
          </Trackpoint>
          <Trackpoint>
            <Time>2022-07-09T09:47:36.000Z</Time>
            <Position>
              <LatitudeDegrees>43.33344873972237110137939453125</LatitudeDegrees>
              <LongitudeDegrees>-1.93387479521334171295166015625</LongitudeDegrees>
            </Position>
            <AltitudeMeters>109.40000152587890625</AltitudeMeters>
            <DistanceMeters>NAN</DistanceMeters>
          </Trackpoint>
          <Trackpoint>
            <Time>2022-07-09T09:47:38.000Z</Time>
            <Position>
              <LatitudeDegrees>43.33348075859248638153076171875</LatitudeDegrees>
              <LongitudeDegrees>-1.93382785655558109283447265625</LongitudeDegrees>
            </Position>
            <AltitudeMeters>108.8000030517578125</AltitudeMeters>
            <DistanceMeters>NAN</DistanceMeters>
          </Trackpoint>
          <Trackpoint>
            <Time>2022-07-09T09:47:41.000Z</Time>
            <Position>
              <LatitudeDegrees>43.33351478911936283111572265625</LatitudeDegrees>
              <LongitudeDegrees>-1.93378326483070850372314453125</LongitudeDegrees>
            </Position>
            <AltitudeMeters>108.40000152587890625</AltitudeMeters>
            <DistanceMeters>NAN</DistanceMeters>
          </Trackpoint>
          <Trackpoint>
            <Time>2022-07-09T09:47:42.000Z</Time>
            <Position>
              <LatitudeDegrees>43.33351478911936283111572265625</LatitudeDegrees>
              <LongitudeDegrees>-1.93378326483070850372314453125</LongitudeDegrees>
            </Position>
            <AltitudeMeters>108.40000152587890625</AltitudeMeters>
            <DistanceMeters>NAN</DistanceMeters>
          </Trackpoint>
          <Trackpoint>
            <Time>2022-07-09T09:50:48.000Z</Time>
            <Position>
              <LatitudeDegrees>43.3334585465490818023681640625</LatitudeDegrees>
              <LongitudeDegrees>-1.93387613631784915924072265625</LongitudeDegrees>
            </Position>
            <AltitudeMeters>109.40000152587890625</AltitudeMeters>
            <DistanceMeters>NAN</DistanceMeters>
          </Trackpoint>
          <Trackpoint>
            <Time>2022-07-09T09:50:49.000Z</Time>
            <Position>
              <LatitudeDegrees>43.3334551937878131866455078125</LatitudeDegrees>
              <LongitudeDegrees>-1.9338993541896343231201171875</LongitudeDegrees>
            </Position>
            <AltitudeMeters>109.40000152587890625</AltitudeMeters>
            <DistanceMeters>NAN</DistanceMeters>
          </Trackpoint>
          <Trackpoint>
            <Time>2022-07-09T09:50:50.000Z</Time>
            <Position>
              <LatitudeDegrees>43.33345443941652774810791015625</LatitudeDegrees>
              <LongitudeDegrees>-1.9339174591004848480224609375</LongitudeDegrees>
            </Position>
            <AltitudeMeters>109.8000030517578125</AltitudeMeters>
            <DistanceMeters>NAN</DistanceMeters>
          </Trackpoint>
          <Trackpoint>
            <Time>2022-07-09T09:50:58.000Z</Time>
            <Position>
              <LatitudeDegrees>43.3334246836602687835693359375</LatitudeDegrees>
              <LongitudeDegrees>-1.9341270066797733306884765625</LongitudeDegrees>
            </Position>
            <AltitudeMeters>110.59999847412109375</AltitudeMeters>
            <DistanceMeters>NAN</DistanceMeters>
          </Trackpoint>
          <Trackpoint>
            <Time>2022-07-09T09:51:05.000Z</Time>
            <Position>
              <LatitudeDegrees>43.333422504365444183349609375</LatitudeDegrees>
              <LongitudeDegrees>-1.93422515876591205596923828125</LongitudeDegrees>
            </Position>
            <AltitudeMeters>110.1999969482421875</AltitudeMeters>
            <DistanceMeters>NAN</DistanceMeters>
          </Trackpoint>
          <Trackpoint>
            <Time>2022-07-09T09:51:06.000Z</Time>
            <Position>
              <LatitudeDegrees>43.333422504365444183349609375</LatitudeDegrees>
              <LongitudeDegrees>-1.93422515876591205596923828125</LongitudeDegrees>
            </Position>
            <AltitudeMeters>110.1999969482421875</AltitudeMeters>
            <DistanceMeters>NAN</DistanceMeters>
          </Trackpoint>
          <Trackpoint>
            <Time>2022-07-09T09:54:09.000Z</Time>
            <Position>
              <LatitudeDegrees>43.3334397710859775543212890625</LatitudeDegrees>
              <LongitudeDegrees>-1.934444010257720947265625</LongitudeDegrees>
            </Position>
            <AltitudeMeters>110.59999847412109375</AltitudeMeters>
            <DistanceMeters>NAN</DistanceMeters>
          </Trackpoint>
          <Trackpoint>
            <Time>2022-07-09T09:54:10.000Z</Time>
            <Position>
              <LatitudeDegrees>43.33343633450567722320556640625</LatitudeDegrees>
              <LongitudeDegrees>-1.9344706647098064422607421875</LongitudeDegrees>
            </Position>
            <AltitudeMeters>110.59999847412109375</AltitudeMeters>
            <DistanceMeters>NAN</DistanceMeters>
          </Trackpoint>
          <Trackpoint>
            <Time>2022-07-09T09:54:12.000Z</Time>
            <Position>
              <LatitudeDegrees>43.33343231119215488433837890625</LatitudeDegrees>
              <LongitudeDegrees>-1.93452321924269199371337890625</LongitudeDegrees>
            </Position>
            <AltitudeMeters>110.59999847412109375</AltitudeMeters>
            <DistanceMeters>NAN</DistanceMeters>
          </Trackpoint>
          <Trackpoint>
            <Time>2022-07-09T09:54:15.000Z</Time>
            <Position>
              <LatitudeDegrees>43.33342510275542736053466796875</LatitudeDegrees>
              <LongitudeDegrees>-1.9345794618129730224609375</LongitudeDegrees>
            </Position>
            <AltitudeMeters>110.1999969482421875</AltitudeMeters>
            <DistanceMeters>NAN</DistanceMeters>
          </Trackpoint>
          <Trackpoint>
            <Time>2022-07-09T09:54:17.000Z</Time>
            <Position>
              <LatitudeDegrees>43.33342510275542736053466796875</LatitudeDegrees>
              <LongitudeDegrees>-1.9345794618129730224609375</LongitudeDegrees>
            </Position>
            <AltitudeMeters>110</AltitudeMeters>
            <DistanceMeters>NAN</DistanceMeters>
          </Trackpoint>
          <Trackpoint>
            <Time>2022-07-09T09:55:06.000Z</Time>
            <Position>
              <LatitudeDegrees>43.33342275582253932952880859375</LatitudeDegrees>
              <LongitudeDegrees>-1.93464257754385471343994140625</LongitudeDegrees>
            </Position>
            <AltitudeMeters>110.1999969482421875</AltitudeMeters>
            <DistanceMeters>NAN</DistanceMeters>
          </Trackpoint>
          <Trackpoint>
            <Time>2022-07-09T09:55:09.000Z</Time>
            <Position>
              <LatitudeDegrees>43.33342979662120342254638671875</LatitudeDegrees>
              <LongitudeDegrees>-1.9347137399017810821533203125</LongitudeDegrees>
            </Position>
            <AltitudeMeters>109.1999969482421875</AltitudeMeters>
            <DistanceMeters>NAN</DistanceMeters>
          </Trackpoint>
          <Trackpoint>
            <Time>2022-07-09T09:55:10.000Z</Time>
            <Position>
              <LatitudeDegrees>43.33342778496444225311279296875</LatitudeDegrees>
              <LongitudeDegrees>-1.9347315095365047454833984375</LongitudeDegrees>
            </Position>
            <AltitudeMeters>108.8000030517578125</AltitudeMeters>
            <DistanceMeters>NAN</DistanceMeters>
          </Trackpoint>
          <Trackpoint>
            <Time>2022-07-09T09:55:13.000Z</Time>
            <Position>
              <LatitudeDegrees>43.33341353572905063629150390625</LatitudeDegrees>
              <LongitudeDegrees>-1.93477769382297992706298828125</LongitudeDegrees>
            </Position>
            <AltitudeMeters>107.8000030517578125</AltitudeMeters>
            <DistanceMeters>NAN</DistanceMeters>
          </Trackpoint>
          <Trackpoint>
            <Time>2022-07-09T09:55:14.000Z</Time>
            <Position>
              <LatitudeDegrees>43.3334109373390674591064453125</LatitudeDegrees>
              <LongitudeDegrees>-1.934795379638671875</LongitudeDegrees>
            </Position>
            <AltitudeMeters>107.59999847412109375</AltitudeMeters>
            <DistanceMeters>NAN</DistanceMeters>
          </Trackpoint>
          <Trackpoint>
            <Time>2022-07-09T09:55:18.000Z</Time>
            <Position>
              <LatitudeDegrees>43.33339023403823375701904296875</LatitudeDegrees>
              <LongitudeDegrees>-1.93488380871713161468505859375</LongitudeDegrees>
            </Position>
            <AltitudeMeters>106.59999847412109375</AltitudeMeters>
            <DistanceMeters>NAN</DistanceMeters>
          </Trackpoint>
          <Trackpoint>
            <Time>2022-07-09T09:55:19.000Z</Time>
            <Position>
              <LatitudeDegrees>43.3333878032863140106201171875</LatitudeDegrees>
              <LongitudeDegrees>-1.93491012789309024810791015625</LongitudeDegrees>
            </Position>
            <AltitudeMeters>106.40000152587890625</AltitudeMeters>
            <DistanceMeters>NAN</DistanceMeters>
          </Trackpoint>
          <Trackpoint>
            <Time>2022-07-09T09:55:22.000Z</Time>
            <Position>
              <LatitudeDegrees>43.333396352827548980712890625</LatitudeDegrees>
              <LongitudeDegrees>-1.934953965246677398681640625</LongitudeDegrees>
            </Position>
            <AltitudeMeters>105.40000152587890625</AltitudeMeters>
            <DistanceMeters>NAN</DistanceMeters>
          </Trackpoint>
          <Trackpoint>
            <Time>2022-07-09T09:55:24.000Z</Time>
            <Position>
              <LatitudeDegrees>43.333396352827548980712890625</LatitudeDegrees>
              <LongitudeDegrees>-1.934953965246677398681640625</LongitudeDegrees>
            </Position>
            <AltitudeMeters>104.8000030517578125</AltitudeMeters>
            <DistanceMeters>NAN</DistanceMeters>
          </Trackpoint>
          <Trackpoint>
            <Time>2022-07-09T09:55:27.000Z</Time>
            <Position>
              <LatitudeDegrees>43.33339073695242404937744140625</LatitudeDegrees>
              <LongitudeDegrees>-1.93500752560794353485107421875</LongitudeDegrees>
            </Position>
            <AltitudeMeters>104.40000152587890625</AltitudeMeters>
            <DistanceMeters>NAN</DistanceMeters>
          </Trackpoint>
          <Trackpoint>
            <Time>2022-07-09T09:55:28.000Z</Time>
            <Position>
              <LatitudeDegrees>43.33338637836277484893798828125</LatitudeDegrees>
              <LongitudeDegrees>-1.93503702990710735321044921875</LongitudeDegrees>
            </Position>
            <AltitudeMeters>104.40000152587890625</AltitudeMeters>
            <DistanceMeters>NAN</DistanceMeters>
          </Trackpoint>
          <Trackpoint>
            <Time>2022-07-09T09:55:30.000Z</Time>
            <Position>
              <LatitudeDegrees>43.33337078802287578582763671875</LatitudeDegrees>
              <LongitudeDegrees>-1.93508631549775600433349609375</LongitudeDegrees>
            </Position>
            <AltitudeMeters>104</AltitudeMeters>
            <DistanceMeters>NAN</DistanceMeters>
          </Trackpoint>
          <Trackpoint>
            <Time>2022-07-09T09:55:32.000Z</Time>
            <Position>
              <LatitudeDegrees>43.3333276212215423583984375</LatitudeDegrees>
              <LongitudeDegrees>-1.93515253253281116485595703125</LongitudeDegrees>
            </Position>
            <AltitudeMeters>103.59999847412109375</AltitudeMeters>
            <DistanceMeters>NAN</DistanceMeters>
          </Trackpoint>
          <Trackpoint>
            <Time>2022-07-09T09:55:33.000Z</Time>
            <Position>
              <LatitudeDegrees>43.33331110887229442596435546875</LatitudeDegrees>
              <LongitudeDegrees>-1.93518740125000476837158203125</LongitudeDegrees>
            </Position>
            <AltitudeMeters>103.40000152587890625</AltitudeMeters>
            <DistanceMeters>NAN</DistanceMeters>
          </Trackpoint>
          <Trackpoint>
            <Time>2022-07-09T09:55:34.000Z</Time>
            <Position>
              <LatitudeDegrees>43.33329082466661930084228515625</LatitudeDegrees>
              <LongitudeDegrees>-1.9352377764880657196044921875</LongitudeDegrees>
            </Position>
            <AltitudeMeters>103.1999969482421875</AltitudeMeters>
            <DistanceMeters>NAN</DistanceMeters>
          </Trackpoint>
          <Trackpoint>
            <Time>2022-07-09T09:55:38.000Z</Time>
            <Position>
              <LatitudeDegrees>43.3332471549510955810546875</LatitudeDegrees>
              <LongitudeDegrees>-1.93539594300091266632080078125</LongitudeDegrees>
            </Position>
            <AltitudeMeters>102.59999847412109375</AltitudeMeters>
            <DistanceMeters>NAN</DistanceMeters>
          </Trackpoint>
          <Trackpoint>
            <Time>2022-07-09T09:55:39.000Z</Time>
            <Position>
              <LatitudeDegrees>43.333241455256938934326171875</LatitudeDegrees>
              <LongitudeDegrees>-1.9354376010596752166748046875</LongitudeDegrees>
            </Position>
            <AltitudeMeters>102.40000152587890625</AltitudeMeters>
            <DistanceMeters>NAN</DistanceMeters>
          </Trackpoint>
          <Trackpoint>
            <Time>2022-07-09T09:55:40.000Z</Time>
            <Position>
              <LatitudeDegrees>43.3332396112382411956787109375</LatitudeDegrees>
              <LongitudeDegrees>-1.93546987138688564300537109375</LongitudeDegrees>
            </Position>
            <AltitudeMeters>102.1999969482421875</AltitudeMeters>
            <DistanceMeters>NAN</DistanceMeters>
          </Trackpoint>
          <Trackpoint>
            <Time>2022-07-09T09:55:41.000Z</Time>
            <Position>
              <LatitudeDegrees>43.33323064260184764862060546875</LatitudeDegrees>
              <LongitudeDegrees>-1.93550943396985530853271484375</LongitudeDegrees>
            </Position>
            <AltitudeMeters>102.1999969482421875</AltitudeMeters>
            <DistanceMeters>NAN</DistanceMeters>
          </Trackpoint>
          <Trackpoint>
            <Time>2022-07-09T09:55:43.000Z</Time>
            <Position>
              <LatitudeDegrees>43.33320968784391880035400390625</LatitudeDegrees>
              <LongitudeDegrees>-1.93557648919522762298583984375</LongitudeDegrees>
            </Position>
            <AltitudeMeters>102</AltitudeMeters>
            <DistanceMeters>NAN</DistanceMeters>
          </Trackpoint>
          <Trackpoint>
            <Time>2022-07-09T09:55:48.000Z</Time>
            <Position>
              <LatitudeDegrees>43.3331598155200481414794921875</LatitudeDegrees>
              <LongitudeDegrees>-1.9357128627598285675048828125</LongitudeDegrees>
            </Position>
            <AltitudeMeters>101.1999969482421875</AltitudeMeters>
            <DistanceMeters>NAN</DistanceMeters>
          </Trackpoint>
          <Trackpoint>
            <Time>2022-07-09T09:55:49.000Z</Time>
            <Position>
              <LatitudeDegrees>43.3331345021724700927734375</LatitudeDegrees>
              <LongitudeDegrees>-1.93575200624763965606689453125</LongitudeDegrees>
            </Position>
            <AltitudeMeters>101</AltitudeMeters>
            <DistanceMeters>NAN</DistanceMeters>
          </Trackpoint>
          <Trackpoint>
            <Time>2022-07-09T09:55:50.000Z</Time>
            <Position>
              <LatitudeDegrees>43.3331108652055263519287109375</LatitudeDegrees>
              <LongitudeDegrees>-1.93578016944229602813720703125</LongitudeDegrees>
            </Position>
            <AltitudeMeters>100.59999847412109375</AltitudeMeters>
            <DistanceMeters>NAN</DistanceMeters>
          </Trackpoint>
          <Trackpoint>
            <Time>2022-07-09T09:55:51.000Z</Time>
            <Position>
              <LatitudeDegrees>43.33307306282222270965576171875</LatitudeDegrees>
              <LongitudeDegrees>-1.93581906147301197052001953125</LongitudeDegrees>
            </Position>
            <AltitudeMeters>100.40000152587890625</AltitudeMeters>
            <DistanceMeters>NAN</DistanceMeters>
          </Trackpoint>
          <Trackpoint>
            <Time>2022-07-09T09:55:53.000Z</Time>
            <Position>
              <LatitudeDegrees>43.33301455713808536529541015625</LatitudeDegrees>
              <LongitudeDegrees>-1.935882009565830230712890625</LongitudeDegrees>
            </Position>
            <AltitudeMeters>100</AltitudeMeters>
            <DistanceMeters>NAN</DistanceMeters>
          </Trackpoint>
          <Trackpoint>
            <Time>2022-07-09T09:55:54.000Z</Time>
            <Position>
              <LatitudeDegrees>43.3329896628856658935546875</LatitudeDegrees>
              <LongitudeDegrees>-1.93591763265430927276611328125</LongitudeDegrees>
            </Position>
            <AltitudeMeters>99.8000030517578125</AltitudeMeters>
            <DistanceMeters>NAN</DistanceMeters>
          </Trackpoint>
          <Trackpoint>
            <Time>2022-07-09T09:55:57.000Z</Time>
            <Position>
              <LatitudeDegrees>43.3329254575073719024658203125</LatitudeDegrees>
              <LongitudeDegrees>-1.9359867833554744720458984375</LongitudeDegrees>
            </Position>
            <AltitudeMeters>99</AltitudeMeters>
            <DistanceMeters>NAN</DistanceMeters>
          </Trackpoint>
          <Trackpoint>
            <Time>2022-07-09T09:55:58.000Z</Time>
            <Position>
              <LatitudeDegrees>43.33291933871805667877197265625</LatitudeDegrees>
              <LongitudeDegrees>-1.9359901361167430877685546875</LongitudeDegrees>
            </Position>
            <AltitudeMeters>98.59999847412109375</AltitudeMeters>
            <DistanceMeters>NAN</DistanceMeters>
          </Trackpoint>
          <Trackpoint>
            <Time>2022-07-09T09:56:00.000Z</Time>
            <Position>
              <LatitudeDegrees>43.33291933871805667877197265625</LatitudeDegrees>
              <LongitudeDegrees>-1.9359901361167430877685546875</LongitudeDegrees>
            </Position>
            <AltitudeMeters>98.1999969482421875</AltitudeMeters>
            <DistanceMeters>NAN</DistanceMeters>
          </Trackpoint>
          <Trackpoint>
            <Time>2022-07-09T09:56:45.000Z</Time>
            <Position>
              <LatitudeDegrees>43.33287592045962810516357421875</LatitudeDegrees>
              <LongitudeDegrees>-1.9360169582068920135498046875</LongitudeDegrees>
            </Position>
            <AltitudeMeters>97.1999969482421875</AltitudeMeters>
            <DistanceMeters>NAN</DistanceMeters>
          </Trackpoint>
          <Trackpoint>
            <Time>2022-07-09T09:56:46.000Z</Time>
            <Position>
              <LatitudeDegrees>43.332857228815555572509765625</LatitudeDegrees>
              <LongitudeDegrees>-1.93603330291807651519775390625</LongitudeDegrees>
            </Position>
            <AltitudeMeters>96.8000030517578125</AltitudeMeters>
            <DistanceMeters>NAN</DistanceMeters>
          </Trackpoint>
          <Trackpoint>
            <Time>2022-07-09T09:56:49.000Z</Time>
            <Position>
              <LatitudeDegrees>43.3327992260456085205078125</LatitudeDegrees>
              <LongitudeDegrees>-1.9360866956412792205810546875</LongitudeDegrees>
            </Position>
            <AltitudeMeters>95.59999847412109375</AltitudeMeters>
            <DistanceMeters>NAN</DistanceMeters>
          </Trackpoint>
          <Trackpoint>
            <Time>2022-07-09T09:56:53.000Z</Time>
            <Position>
              <LatitudeDegrees>43.332707025110721588134765625</LatitudeDegrees>
              <LongitudeDegrees>-1.9361788965761661529541015625</LongitudeDegrees>
            </Position>
            <AltitudeMeters>94.59999847412109375</AltitudeMeters>
            <DistanceMeters>NAN</DistanceMeters>
          </Trackpoint>
          <Trackpoint>
            <Time>2022-07-09T09:56:56.000Z</Time>
            <Position>
              <LatitudeDegrees>43.33265597932040691375732421875</LatitudeDegrees>
              <LongitudeDegrees>-1.936228685081005096435546875</LongitudeDegrees>
            </Position>
            <AltitudeMeters>93.59999847412109375</AltitudeMeters>
            <DistanceMeters>NAN</DistanceMeters>
          </Trackpoint>
          <Trackpoint>
            <Time>2022-07-09T09:56:59.000Z</Time>
            <Position>
              <LatitudeDegrees>43.33262664265930652618408203125</LatitudeDegrees>
              <LongitudeDegrees>-1.93627872504293918609619140625</LongitudeDegrees>
            </Position>
            <AltitudeMeters>93</AltitudeMeters>
            <DistanceMeters>NAN</DistanceMeters>
          </Trackpoint>
          <Trackpoint>
            <Time>2022-07-09T09:57:00.000Z</Time>
            <Position>
              <LatitudeDegrees>43.33261708728969097137451171875</LatitudeDegrees>
              <LongitudeDegrees>-1.93630018271505832672119140625</LongitudeDegrees>
            </Position>
            <AltitudeMeters>92.40000152587890625</AltitudeMeters>
            <DistanceMeters>NAN</DistanceMeters>
          </Trackpoint>
          <Trackpoint>
            <Time>2022-07-09T09:57:02.000Z</Time>
            <Position>
              <LatitudeDegrees>43.3325672149658203125</LatitudeDegrees>
              <LongitudeDegrees>-1.93636807613074779510498046875</LongitudeDegrees>
            </Position>
            <AltitudeMeters>91.40000152587890625</AltitudeMeters>
            <DistanceMeters>NAN</DistanceMeters>
          </Trackpoint>
          <Trackpoint>
            <Time>2022-07-09T09:57:04.000Z</Time>
            <Position>
              <LatitudeDegrees>43.33252119831740856170654296875</LatitudeDegrees>
              <LongitudeDegrees>-1.9364062137901782989501953125</LongitudeDegrees>
            </Position>
            <AltitudeMeters>90.8000030517578125</AltitudeMeters>
            <DistanceMeters>NAN</DistanceMeters>
          </Trackpoint>
          <Trackpoint>
            <Time>2022-07-09T09:57:08.000Z</Time>
            <Position>
              <LatitudeDegrees>43.33243352361023426055908203125</LatitudeDegrees>
              <LongitudeDegrees>-1.93641350604593753814697265625</LongitudeDegrees>
            </Position>
            <AltitudeMeters>90.40000152587890625</AltitudeMeters>
            <DistanceMeters>NAN</DistanceMeters>
          </Trackpoint>
          <Trackpoint>
            <Time>2022-07-09T09:57:09.000Z</Time>
            <Position>
              <LatitudeDegrees>43.33242698572576045989990234375</LatitudeDegrees>
              <LongitudeDegrees>-1.9364085607230663299560546875</LongitudeDegrees>
            </Position>
            <AltitudeMeters>90.40000152587890625</AltitudeMeters>
            <DistanceMeters>NAN</DistanceMeters>
          </Trackpoint>
          <Trackpoint>
            <Time>2022-07-09T09:57:10.000Z</Time>
            <Position>
              <LatitudeDegrees>43.33242698572576045989990234375</LatitudeDegrees>
              <LongitudeDegrees>-1.9364085607230663299560546875</LongitudeDegrees>
            </Position>
            <AltitudeMeters>90.40000152587890625</AltitudeMeters>
            <DistanceMeters>NAN</DistanceMeters>
          </Trackpoint>
          <Trackpoint>
            <Time>2022-07-09T09:57:11.000Z</Time>
            <Position>
              <LatitudeDegrees>43.33242698572576045989990234375</LatitudeDegrees>
              <LongitudeDegrees>-1.9364085607230663299560546875</LongitudeDegrees>
            </Position>
            <AltitudeMeters>90.40000152587890625</AltitudeMeters>
            <DistanceMeters>NAN</DistanceMeters>
          </Trackpoint>
          <Trackpoint>
            <Time>2022-07-09T09:57:29.000Z</Time>
            <Position>
              <LatitudeDegrees>43.3323779515922069549560546875</LatitudeDegrees>
              <LongitudeDegrees>-1.93638886325061321258544921875</LongitudeDegrees>
            </Position>
            <AltitudeMeters>90.8000030517578125</AltitudeMeters>
            <DistanceMeters>NAN</DistanceMeters>
          </Trackpoint>
          <Trackpoint>
            <Time>2022-07-09T09:57:30.000Z</Time>
            <Position>
              <LatitudeDegrees>43.332353644073009490966796875</LatitudeDegrees>
              <LongitudeDegrees>-1.9363881088793277740478515625</LongitudeDegrees>
            </Position>
            <AltitudeMeters>90.8000030517578125</AltitudeMeters>
            <DistanceMeters>NAN</DistanceMeters>
          </Trackpoint>
          <Trackpoint>
            <Time>2022-07-09T09:57:33.000Z</Time>
            <Position>
              <LatitudeDegrees>43.33227996714413166046142578125</LatitudeDegrees>
              <LongitudeDegrees>-1.93638182245194911956787109375</LongitudeDegrees>
            </Position>
            <AltitudeMeters>90.8000030517578125</AltitudeMeters>
            <DistanceMeters>NAN</DistanceMeters>
          </Trackpoint>
          <Trackpoint>
            <Time>2022-07-09T09:57:35.000Z</Time>
            <Position>
              <LatitudeDegrees>43.33225674927234649658203125</LatitudeDegrees>
              <LongitudeDegrees>-1.93636422045528888702392578125</LongitudeDegrees>
            </Position>
            <AltitudeMeters>90.8000030517578125</AltitudeMeters>
            <DistanceMeters>NAN</DistanceMeters>
          </Trackpoint>
          <Trackpoint>
            <Time>2022-07-09T09:57:37.000Z</Time>
            <Position>
              <LatitudeDegrees>43.33223906345665454864501953125</LatitudeDegrees>
              <LongitudeDegrees>-1.93635307252407073974609375</LongitudeDegrees>
            </Position>
            <AltitudeMeters>90.8000030517578125</AltitudeMeters>
            <DistanceMeters>NAN</DistanceMeters>
          </Trackpoint>
          <Trackpoint>
            <Time>2022-07-09T09:57:40.000Z</Time>
            <Position>
              <LatitudeDegrees>43.3322131633758544921875</LatitudeDegrees>
              <LongitudeDegrees>-1.93632113747298717498779296875</LongitudeDegrees>
            </Position>
            <AltitudeMeters>90.8000030517578125</AltitudeMeters>
            <DistanceMeters>NAN</DistanceMeters>
          </Trackpoint>
          <Trackpoint>
            <Time>2022-07-09T09:57:43.000Z</Time>
            <Position>
              <LatitudeDegrees>43.3321851678192615509033203125</LatitudeDegrees>
              <LongitudeDegrees>-1.936311163008213043212890625</LongitudeDegrees>
            </Position>
            <AltitudeMeters>90.59999847412109375</AltitudeMeters>
            <DistanceMeters>NAN</DistanceMeters>
          </Trackpoint>
          <Trackpoint>
            <Time>2022-07-09T09:57:45.000Z</Time>
            <Position>
              <LatitudeDegrees>43.3321851678192615509033203125</LatitudeDegrees>
              <LongitudeDegrees>-1.936311163008213043212890625</LongitudeDegrees>
            </Position>
            <AltitudeMeters>90.40000152587890625</AltitudeMeters>
            <DistanceMeters>NAN</DistanceMeters>
          </Trackpoint>
          <Trackpoint>
            <Time>2022-07-09T10:00:16.000Z</Time>
            <Position>
              <LatitudeDegrees>43.33218759857118129730224609375</LatitudeDegrees>
              <LongitudeDegrees>-1.93675766699016094207763671875</LongitudeDegrees>
            </Position>
            <AltitudeMeters>91</AltitudeMeters>
            <DistanceMeters>NAN</DistanceMeters>
          </Trackpoint>
          <Trackpoint>
            <Time>2022-07-09T10:00:17.000Z</Time>
            <Position>
              <LatitudeDegrees>43.33221341483294963836669921875</LatitudeDegrees>
              <LongitudeDegrees>-1.9367776997387409210205078125</LongitudeDegrees>
            </Position>
            <AltitudeMeters>90.8000030517578125</AltitudeMeters>
            <DistanceMeters>NAN</DistanceMeters>
          </Trackpoint>
          <Trackpoint>
            <Time>2022-07-09T10:00:18.000Z</Time>
            <Position>
              <LatitudeDegrees>43.33223520778119564056396484375</LatitudeDegrees>
              <LongitudeDegrees>-1.93679354153573513031005859375</LongitudeDegrees>
            </Position>
            <AltitudeMeters>90.8000030517578125</AltitudeMeters>
            <DistanceMeters>NAN</DistanceMeters>
          </Trackpoint>
          <Trackpoint>
            <Time>2022-07-09T10:00:21.000Z</Time>
            <Position>
              <LatitudeDegrees>43.33229740150272846221923828125</LatitudeDegrees>
              <LongitudeDegrees>-1.93684517405927181243896484375</LongitudeDegrees>
            </Position>
            <AltitudeMeters>90.40000152587890625</AltitudeMeters>
            <DistanceMeters>NAN</DistanceMeters>
          </Trackpoint>
          <Trackpoint>
            <Time>2022-07-09T10:00:24.000Z</Time>
            <Position>
              <LatitudeDegrees>43.3323407359421253204345703125</LatitudeDegrees>
              <LongitudeDegrees>-1.93691910244524478912353515625</LongitudeDegrees>
            </Position>
            <AltitudeMeters>90.40000152587890625</AltitudeMeters>
            <DistanceMeters>NAN</DistanceMeters>
          </Trackpoint>
          <Trackpoint>
            <Time>2022-07-09T10:00:26.000Z</Time>
            <Position>
              <LatitudeDegrees>43.3323678933084011077880859375</LatitudeDegrees>
              <LongitudeDegrees>-1.93694072775542736053466796875</LongitudeDegrees>
            </Position>
            <AltitudeMeters>90.40000152587890625</AltitudeMeters>
            <DistanceMeters>NAN</DistanceMeters>
          </Trackpoint>
          <Trackpoint>
            <Time>2022-07-09T10:00:31.000Z</Time>
            <Position>
              <LatitudeDegrees>43.33245179615914821624755859375</LatitudeDegrees>
              <LongitudeDegrees>-1.93704499863088130950927734375</LongitudeDegrees>
            </Position>
            <AltitudeMeters>90.40000152587890625</AltitudeMeters>
            <DistanceMeters>NAN</DistanceMeters>
          </Trackpoint>
          <Trackpoint>
            <Time>2022-07-09T10:00:33.000Z</Time>
            <Position>
              <LatitudeDegrees>43.33248876035213470458984375</LatitudeDegrees>
              <LongitudeDegrees>-1.9370734132826328277587890625</LongitudeDegrees>
            </Position>
            <AltitudeMeters>90.59999847412109375</AltitudeMeters>
            <DistanceMeters>NAN</DistanceMeters>
          </Trackpoint>
          <Trackpoint>
            <Time>2022-07-09T10:00:39.000Z</Time>
            <Position>
              <LatitudeDegrees>43.332527987658977508544921875</LatitudeDegrees>
              <LongitudeDegrees>-1.9371853955090045928955078125</LongitudeDegrees>
            </Position>
            <AltitudeMeters>90.59999847412109375</AltitudeMeters>
            <DistanceMeters>NAN</DistanceMeters>
          </Trackpoint>
          <Trackpoint>
            <Time>2022-07-09T10:00:40.000Z</Time>
            <Position>
              <LatitudeDegrees>43.332527987658977508544921875</LatitudeDegrees>
              <LongitudeDegrees>-1.9371853955090045928955078125</LongitudeDegrees>
            </Position>
            <AltitudeMeters>90.59999847412109375</AltitudeMeters>
            <DistanceMeters>NAN</DistanceMeters>
          </Trackpoint>
          <Trackpoint>
            <Time>2022-07-09T10:01:01.000Z</Time>
            <Position>
              <LatitudeDegrees>43.332661427557468414306640625</LatitudeDegrees>
              <LongitudeDegrees>-1.93742034025490283966064453125</LongitudeDegrees>
            </Position>
            <AltitudeMeters>91.1999969482421875</AltitudeMeters>
            <DistanceMeters>NAN</DistanceMeters>
          </Trackpoint>
          <Trackpoint>
            <Time>2022-07-09T10:01:03.000Z</Time>
            <Position>
              <LatitudeDegrees>43.33267358131706714630126953125</LatitudeDegrees>
              <LongitudeDegrees>-1.93748672492802143096923828125</LongitudeDegrees>
            </Position>
            <AltitudeMeters>91.1999969482421875</AltitudeMeters>
            <DistanceMeters>NAN</DistanceMeters>
          </Trackpoint>
          <Trackpoint>
            <Time>2022-07-09T10:01:08.000Z</Time>
            <Position>
              <LatitudeDegrees>43.3326528780162334442138671875</LatitudeDegrees>
              <LongitudeDegrees>-1.93762712180614471435546875</LongitudeDegrees>
            </Position>
            <AltitudeMeters>91.1999969482421875</AltitudeMeters>
            <DistanceMeters>NAN</DistanceMeters>
          </Trackpoint>
          <Trackpoint>
            <Time>2022-07-09T10:01:13.000Z</Time>
            <Position>
              <LatitudeDegrees>43.33259864710271358489990234375</LatitudeDegrees>
              <LongitudeDegrees>-1.93775326944887638092041015625</LongitudeDegrees>
            </Position>
            <AltitudeMeters>90.59999847412109375</AltitudeMeters>
            <DistanceMeters>NAN</DistanceMeters>
          </Trackpoint>
          <Trackpoint>
            <Time>2022-07-09T10:01:17.000Z</Time>
            <Position>
              <LatitudeDegrees>43.3325693942606449127197265625</LatitudeDegrees>
              <LongitudeDegrees>-1.937881596386432647705078125</LongitudeDegrees>
            </Position>
            <AltitudeMeters>90.1999969482421875</AltitudeMeters>
            <DistanceMeters>NAN</DistanceMeters>
          </Trackpoint>
          <Trackpoint>
            <Time>2022-07-09T10:01:19.000Z</Time>
            <Position>
              <LatitudeDegrees>43.33258238621056079864501953125</LatitudeDegrees>
              <LongitudeDegrees>-1.9379498250782489776611328125</LongitudeDegrees>
            </Position>
            <AltitudeMeters>90.40000152587890625</AltitudeMeters>
            <DistanceMeters>NAN</DistanceMeters>
          </Trackpoint>
          <Trackpoint>
            <Time>2022-07-09T10:01:21.000Z</Time>
            <Position>
              <LatitudeDegrees>43.33260652609169483184814453125</LatitudeDegrees>
              <LongitudeDegrees>-1.9379903934895992279052734375</LongitudeDegrees>
            </Position>
            <AltitudeMeters>90.40000152587890625</AltitudeMeters>
            <DistanceMeters>NAN</DistanceMeters>
          </Trackpoint>
          <Trackpoint>
            <Time>2022-07-09T10:01:24.000Z</Time>
            <Position>
              <LatitudeDegrees>43.332671821117401123046875</LatitudeDegrees>
              <LongitudeDegrees>-1.9380383379757404327392578125</LongitudeDegrees>
            </Position>
            <AltitudeMeters>90.59999847412109375</AltitudeMeters>
            <DistanceMeters>NAN</DistanceMeters>
          </Trackpoint>
          <Trackpoint>
            <Time>2022-07-09T10:01:25.000Z</Time>
            <Position>
              <LatitudeDegrees>43.332689590752124786376953125</LatitudeDegrees>
              <LongitudeDegrees>-1.93803758360445499420166015625</LongitudeDegrees>
            </Position>
            <AltitudeMeters>90.59999847412109375</AltitudeMeters>
            <DistanceMeters>NAN</DistanceMeters>
          </Trackpoint>
          <Trackpoint>
            <Time>2022-07-09T10:01:28.000Z</Time>
            <Position>
              <LatitudeDegrees>43.33274432457983493804931640625</LatitudeDegrees>
              <LongitudeDegrees>-1.93804848007857799530029296875</LongitudeDegrees>
            </Position>
            <AltitudeMeters>90.8000030517578125</AltitudeMeters>
            <DistanceMeters>NAN</DistanceMeters>
          </Trackpoint>
          <Trackpoint>
            <Time>2022-07-09T10:01:32.000Z</Time>
            <Position>
              <LatitudeDegrees>43.33282730542123317718505859375</LatitudeDegrees>
              <LongitudeDegrees>-1.9380958378314971923828125</LongitudeDegrees>
            </Position>
            <AltitudeMeters>91.40000152587890625</AltitudeMeters>
            <DistanceMeters>NAN</DistanceMeters>
          </Trackpoint>
          <Trackpoint>
            <Time>2022-07-09T10:01:33.000Z</Time>
            <Position>
              <LatitudeDegrees>43.33285043947398662567138671875</LatitudeDegrees>
              <LongitudeDegrees>-1.93810723721981048583984375</LongitudeDegrees>
            </Position>
            <AltitudeMeters>91.59999847412109375</AltitudeMeters>
            <DistanceMeters>NAN</DistanceMeters>
          </Trackpoint>
          <Trackpoint>
            <Time>2022-07-09T10:01:39.000Z</Time>
            <Position>
              <LatitudeDegrees>43.33294599317014217376708984375</LatitudeDegrees>
              <LongitudeDegrees>-1.93813615478575229644775390625</LongitudeDegrees>
            </Position>
            <AltitudeMeters>92.1999969482421875</AltitudeMeters>
            <DistanceMeters>NAN</DistanceMeters>
          </Trackpoint>
          <Trackpoint>
            <Time>2022-07-09T10:01:43.000Z</Time>
            <Position>
              <LatitudeDegrees>43.33300164900720119476318359375</LatitudeDegrees>
              <LongitudeDegrees>-1.938197426497936248779296875</LongitudeDegrees>
            </Position>
            <AltitudeMeters>92.40000152587890625</AltitudeMeters>
            <DistanceMeters>NAN</DistanceMeters>
          </Trackpoint>
          <Trackpoint>
            <Time>2022-07-09T10:01:46.000Z</Time>
            <Position>
              <LatitudeDegrees>43.3330454863607883453369140625</LatitudeDegrees>
              <LongitudeDegrees>-1.93825819529592990875244140625</LongitudeDegrees>
            </Position>
            <AltitudeMeters>92.1999969482421875</AltitudeMeters>
            <DistanceMeters>NAN</DistanceMeters>
          </Trackpoint>
          <Trackpoint>
            <Time>2022-07-09T10:01:49.000Z</Time>
            <Position>
              <LatitudeDegrees>43.33308680914342403411865234375</LatitudeDegrees>
              <LongitudeDegrees>-1.9383575208485126495361328125</LongitudeDegrees>
            </Position>
            <AltitudeMeters>91.40000152587890625</AltitudeMeters>
            <DistanceMeters>NAN</DistanceMeters>
          </Trackpoint>
          <Trackpoint>
            <Time>2022-07-09T10:01:51.000Z</Time>
            <Position>
              <LatitudeDegrees>43.33309359848499298095703125</LatitudeDegrees>
              <LongitudeDegrees>-1.9384279288351535797119140625</LongitudeDegrees>
            </Position>
            <AltitudeMeters>90.8000030517578125</AltitudeMeters>
            <DistanceMeters>NAN</DistanceMeters>
          </Trackpoint>
          <Trackpoint>
            <Time>2022-07-09T10:01:54.000Z</Time>
            <Position>
              <LatitudeDegrees>43.333112038671970367431640625</LatitudeDegrees>
              <LongitudeDegrees>-1.93857000209391117095947265625</LongitudeDegrees>
            </Position>
            <AltitudeMeters>90.40000152587890625</AltitudeMeters>
            <DistanceMeters>NAN</DistanceMeters>
          </Trackpoint>
          <Trackpoint>
            <Time>2022-07-09T10:01:56.000Z</Time>
            <Position>
              <LatitudeDegrees>43.33312603645026683807373046875</LatitudeDegrees>
              <LongitudeDegrees>-1.93865549750626087188720703125</LongitudeDegrees>
            </Position>
            <AltitudeMeters>90.1999969482421875</AltitudeMeters>
            <DistanceMeters>NAN</DistanceMeters>
          </Trackpoint>
          <Trackpoint>
            <Time>2022-07-09T10:02:03.000Z</Time>
            <Position>
              <LatitudeDegrees>43.33316459320485591888427734375</LatitudeDegrees>
              <LongitudeDegrees>-1.9389640353620052337646484375</LongitudeDegrees>
            </Position>
            <AltitudeMeters>90</AltitudeMeters>
            <DistanceMeters>NAN</DistanceMeters>
          </Trackpoint>
          <Trackpoint>
            <Time>2022-07-09T10:02:07.000Z</Time>
            <Position>
              <LatitudeDegrees>43.33317138254642486572265625</LatitudeDegrees>
              <LongitudeDegrees>-1.93912588991224765777587890625</LongitudeDegrees>
            </Position>
            <AltitudeMeters>90</AltitudeMeters>
            <DistanceMeters>NAN</DistanceMeters>
          </Trackpoint>
          <Trackpoint>
            <Time>2022-07-09T10:02:09.000Z</Time>
            <Position>
              <LatitudeDegrees>43.33316442556679248809814453125</LatitudeDegrees>
              <LongitudeDegrees>-1.93917886354029178619384765625</LongitudeDegrees>
            </Position>
            <AltitudeMeters>90.1999969482421875</AltitudeMeters>
            <DistanceMeters>NAN</DistanceMeters>
          </Trackpoint>
          <Trackpoint>
            <Time>2022-07-09T10:02:14.000Z</Time>
            <Position>
              <LatitudeDegrees>43.3331997133791446685791015625</LatitudeDegrees>
              <LongitudeDegrees>-1.9393388740718364715576171875</LongitudeDegrees>
            </Position>
            <AltitudeMeters>90.59999847412109375</AltitudeMeters>
            <DistanceMeters>NAN</DistanceMeters>
          </Trackpoint>
          <Trackpoint>
            <Time>2022-07-09T10:02:16.000Z</Time>
            <Position>
              <LatitudeDegrees>43.333218656480312347412109375</LatitudeDegrees>
              <LongitudeDegrees>-1.93939293734729290008544921875</LongitudeDegrees>
            </Position>
            <AltitudeMeters>90.8000030517578125</AltitudeMeters>
            <DistanceMeters>NAN</DistanceMeters>
          </Trackpoint>
          <Trackpoint>
            <Time>2022-07-09T10:02:18.000Z</Time>
            <Position>
              <LatitudeDegrees>43.333242125809192657470703125</LatitudeDegrees>
              <LongitudeDegrees>-1.93944222293794155120849609375</LongitudeDegrees>
            </Position>
            <AltitudeMeters>90.59999847412109375</AltitudeMeters>
            <DistanceMeters>NAN</DistanceMeters>
          </Trackpoint>
          <Trackpoint>
            <Time>2022-07-09T10:02:23.000Z</Time>
            <Position>
              <LatitudeDegrees>43.33323013968765735626220703125</LatitudeDegrees>
              <LongitudeDegrees>-1.939582787454128265380859375</LongitudeDegrees>
            </Position>
            <AltitudeMeters>89.8000030517578125</AltitudeMeters>
            <DistanceMeters>NAN</DistanceMeters>
          </Trackpoint>
          <Trackpoint>
            <Time>2022-07-09T10:02:25.000Z</Time>
            <Position>
              <LatitudeDegrees>43.3331923373043537139892578125</LatitudeDegrees>
              <LongitudeDegrees>-1.939645819365978240966796875</LongitudeDegrees>
            </Position>
            <AltitudeMeters>89.1999969482421875</AltitudeMeters>
            <DistanceMeters>NAN</DistanceMeters>
          </Trackpoint>
          <Trackpoint>
            <Time>2022-07-09T10:02:27.000Z</Time>
            <Position>
              <LatitudeDegrees>43.33316744305193424224853515625</LatitudeDegrees>
              <LongitudeDegrees>-1.93969636224210262298583984375</LongitudeDegrees>
            </Position>
            <AltitudeMeters>88</AltitudeMeters>
            <DistanceMeters>NAN</DistanceMeters>
          </Trackpoint>
          <Trackpoint>
            <Time>2022-07-09T10:02:28.000Z</Time>
            <Position>
              <LatitudeDegrees>43.333146572113037109375</LatitudeDegrees>
              <LongitudeDegrees>-1.9397157244384288787841796875</LongitudeDegrees>
            </Position>
            <AltitudeMeters>87.59999847412109375</AltitudeMeters>
            <DistanceMeters>NAN</DistanceMeters>
          </Trackpoint>
          <Trackpoint>
            <Time>2022-07-09T10:02:31.000Z</Time>
            <Position>
              <LatitudeDegrees>43.33305831067264080047607421875</LatitudeDegrees>
              <LongitudeDegrees>-1.93972058594226837158203125</LongitudeDegrees>
            </Position>
            <AltitudeMeters>87</AltitudeMeters>
            <DistanceMeters>NAN</DistanceMeters>
          </Trackpoint>
          <Trackpoint>
            <Time>2022-07-09T10:02:32.000Z</Time>
            <Position>
              <LatitudeDegrees>43.33303391933441162109375</LatitudeDegrees>
              <LongitudeDegrees>-1.93973726592957973480224609375</LongitudeDegrees>
            </Position>
            <AltitudeMeters>86.8000030517578125</AltitudeMeters>
            <DistanceMeters>NAN</DistanceMeters>
          </Trackpoint>
          <Trackpoint>
            <Time>2022-07-09T10:02:35.000Z</Time>
            <Position>
              <LatitudeDegrees>43.332941047847270965576171875</LatitudeDegrees>
              <LongitudeDegrees>-1.93982946686446666717529296875</LongitudeDegrees>
            </Position>
            <AltitudeMeters>86.59999847412109375</AltitudeMeters>
            <DistanceMeters>NAN</DistanceMeters>
          </Trackpoint>
          <Trackpoint>
            <Time>2022-07-09T10:02:37.000Z</Time>
            <Position>
              <LatitudeDegrees>43.33290492184460163116455078125</LatitudeDegrees>
              <LongitudeDegrees>-1.9399182312190532684326171875</LongitudeDegrees>
            </Position>
            <AltitudeMeters>86.40000152587890625</AltitudeMeters>
            <DistanceMeters>NAN</DistanceMeters>
          </Trackpoint>
          <Trackpoint>
            <Time>2022-07-09T10:02:42.000Z</Time>
            <Position>
              <LatitudeDegrees>43.3328785188496112823486328125</LatitudeDegrees>
              <LongitudeDegrees>-1.9399611465632915496826171875</LongitudeDegrees>
            </Position>
            <AltitudeMeters>87</AltitudeMeters>
            <DistanceMeters>NAN</DistanceMeters>
          </Trackpoint>
          <Trackpoint>
            <Time>2022-07-09T10:04:58.000Z</Time>
            <Position>
              <LatitudeDegrees>43.333213627338409423828125</LatitudeDegrees>
              <LongitudeDegrees>-1.94051728583872318267822265625</LongitudeDegrees>
            </Position>
            <AltitudeMeters>99.1999969482421875</AltitudeMeters>
            <DistanceMeters>NAN</DistanceMeters>
          </Trackpoint>
          <Trackpoint>
            <Time>2022-07-09T10:05:00.000Z</Time>
            <Position>
              <LatitudeDegrees>43.33319962956011295318603515625</LatitudeDegrees>
              <LongitudeDegrees>-1.940561793744564056396484375</LongitudeDegrees>
            </Position>
            <AltitudeMeters>99.59999847412109375</AltitudeMeters>
            <DistanceMeters>NAN</DistanceMeters>
          </Trackpoint>
          <Trackpoint>
            <Time>2022-07-09T10:05:02.000Z</Time>
            <Position>
              <LatitudeDegrees>43.3331909961998462677001953125</LatitudeDegrees>
              <LongitudeDegrees>-1.9406028650701045989990234375</LongitudeDegrees>
            </Position>
            <AltitudeMeters>100</AltitudeMeters>
            <DistanceMeters>NAN</DistanceMeters>
          </Trackpoint>
          <Trackpoint>
            <Time>2022-07-09T10:05:05.000Z</Time>
            <Position>
              <LatitudeDegrees>43.3331792615354061126708984375</LatitudeDegrees>
              <LongitudeDegrees>-1.9406715966761112213134765625</LongitudeDegrees>
            </Position>
            <AltitudeMeters>100.59999847412109375</AltitudeMeters>
            <DistanceMeters>NAN</DistanceMeters>
          </Trackpoint>
          <Trackpoint>
            <Time>2022-07-09T10:05:06.000Z</Time>
            <Position>
              <LatitudeDegrees>43.3331782557070255279541015625</LatitudeDegrees>
              <LongitudeDegrees>-1.9406803138554096221923828125</LongitudeDegrees>
            </Position>
            <AltitudeMeters>100.59999847412109375</AltitudeMeters>
            <DistanceMeters>NAN</DistanceMeters>
          </Trackpoint>
          <Trackpoint>
            <Time>2022-07-09T10:05:08.000Z</Time>
            <Position>
              <LatitudeDegrees>43.3331782557070255279541015625</LatitudeDegrees>
              <LongitudeDegrees>-1.9406803138554096221923828125</LongitudeDegrees>
            </Position>
            <AltitudeMeters>100.8000030517578125</AltitudeMeters>
            <DistanceMeters>NAN</DistanceMeters>
          </Trackpoint>
          <Trackpoint>
            <Time>2022-07-09T10:06:13.000Z</Time>
            <Position>
              <LatitudeDegrees>43.33317699842154979705810546875</LatitudeDegrees>
              <LongitudeDegrees>-1.940776370465755462646484375</LongitudeDegrees>
            </Position>
            <AltitudeMeters>101</AltitudeMeters>
            <DistanceMeters>NAN</DistanceMeters>
          </Trackpoint>
          <Trackpoint>
            <Time>2022-07-09T10:06:15.000Z</Time>
            <Position>
              <LatitudeDegrees>43.33316023461520671844482421875</LatitudeDegrees>
              <LongitudeDegrees>-1.94083395414054393768310546875</LongitudeDegrees>
            </Position>
            <AltitudeMeters>100.1999969482421875</AltitudeMeters>
            <DistanceMeters>NAN</DistanceMeters>
          </Trackpoint>
          <Trackpoint>
            <Time>2022-07-09T10:06:17.000Z</Time>
            <Position>
              <LatitudeDegrees>43.3331333287060260772705078125</LatitudeDegrees>
              <LongitudeDegrees>-1.940891034901142120361328125</LongitudeDegrees>
            </Position>
            <AltitudeMeters>99.8000030517578125</AltitudeMeters>
            <DistanceMeters>NAN</DistanceMeters>
          </Trackpoint>
          <Trackpoint>
            <Time>2022-07-09T10:06:18.000Z</Time>
            <Position>
              <LatitudeDegrees>43.333125449717044830322265625</LatitudeDegrees>
              <LongitudeDegrees>-1.94092892110347747802734375</LongitudeDegrees>
            </Position>
            <AltitudeMeters>99.40000152587890625</AltitudeMeters>
            <DistanceMeters>NAN</DistanceMeters>
          </Trackpoint>
          <Trackpoint>
            <Time>2022-07-09T10:06:20.000Z</Time>
            <Position>
              <LatitudeDegrees>43.3330833725631237030029296875</LatitudeDegrees>
              <LongitudeDegrees>-1.941029839217662811279296875</LongitudeDegrees>
            </Position>
            <AltitudeMeters>98.8000030517578125</AltitudeMeters>
            <DistanceMeters>NAN</DistanceMeters>
          </Trackpoint>
          <Trackpoint>
            <Time>2022-07-09T10:06:21.000Z</Time>
            <Position>
              <LatitudeDegrees>43.3330531977117061614990234375</LatitudeDegrees>
              <LongitudeDegrees>-1.9410730898380279541015625</LongitudeDegrees>
            </Position>
            <AltitudeMeters>98.40000152587890625</AltitudeMeters>
            <DistanceMeters>NAN</DistanceMeters>
          </Trackpoint>
          <Trackpoint>
            <Time>2022-07-09T10:06:24.000Z</Time>
            <Position>
              <LatitudeDegrees>43.33297868259251117706298828125</LatitudeDegrees>
              <LongitudeDegrees>-1.94116755388677120208740234375</LongitudeDegrees>
            </Position>
            <AltitudeMeters>97</AltitudeMeters>
            <DistanceMeters>NAN</DistanceMeters>
          </Trackpoint>
          <Trackpoint>
            <Time>2022-07-09T10:06:26.000Z</Time>
            <Position>
              <LatitudeDegrees>43.3329212665557861328125</LatitudeDegrees>
              <LongitudeDegrees>-1.94123611785471439361572265625</LongitudeDegrees>
            </Position>
            <AltitudeMeters>96.40000152587890625</AltitudeMeters>
            <DistanceMeters>NAN</DistanceMeters>
          </Trackpoint>
          <Trackpoint>
            <Time>2022-07-09T10:06:27.000Z</Time>
            <Position>
              <LatitudeDegrees>43.3328905887901782989501953125</LatitudeDegrees>
              <LongitudeDegrees>-1.94126377813518047332763671875</LongitudeDegrees>
            </Position>
            <AltitudeMeters>96</AltitudeMeters>
            <DistanceMeters>NAN</DistanceMeters>
          </Trackpoint>
          <Trackpoint>
            <Time>2022-07-09T10:06:33.000Z</Time>
            <Position>
              <LatitudeDegrees>43.33274465985596179962158203125</LatitudeDegrees>
              <LongitudeDegrees>-1.94145597517490386962890625</LongitudeDegrees>
            </Position>
            <AltitudeMeters>95.59999847412109375</AltitudeMeters>
            <DistanceMeters>NAN</DistanceMeters>
          </Trackpoint>
          <Trackpoint>
            <Time>2022-07-09T10:06:37.000Z</Time>
            <Position>
              <LatitudeDegrees>43.3326837234199047088623046875</LatitudeDegrees>
              <LongitudeDegrees>-1.941568963229656219482421875</LongitudeDegrees>
            </Position>
            <AltitudeMeters>95.59999847412109375</AltitudeMeters>
            <DistanceMeters>NAN</DistanceMeters>
          </Trackpoint>
          <Trackpoint>
            <Time>2022-07-09T10:06:42.000Z</Time>
            <Position>
              <LatitudeDegrees>43.33263670094311237335205078125</LatitudeDegrees>
              <LongitudeDegrees>-1.94165236316621303558349609375</LongitudeDegrees>
            </Position>
            <AltitudeMeters>96</AltitudeMeters>
            <DistanceMeters>NAN</DistanceMeters>
          </Trackpoint>
          <Trackpoint>
            <Time>2022-07-09T10:06:49.000Z</Time>
            <Position>
              <LatitudeDegrees>43.33255891688168048858642578125</LatitudeDegrees>
              <LongitudeDegrees>-1.94174590520560741424560546875</LongitudeDegrees>
            </Position>
            <AltitudeMeters>97</AltitudeMeters>
            <DistanceMeters>NAN</DistanceMeters>
          </Trackpoint>
          <Trackpoint>
            <Time>2022-07-09T10:06:51.000Z</Time>
            <Position>
              <LatitudeDegrees>43.3325390517711639404296875</LatitudeDegrees>
              <LongitudeDegrees>-1.94176920689642429351806640625</LongitudeDegrees>
            </Position>
            <AltitudeMeters>97.1999969482421875</AltitudeMeters>
            <DistanceMeters>NAN</DistanceMeters>
          </Trackpoint>
          <Trackpoint>
            <Time>2022-07-09T10:06:56.000Z</Time>
            <Position>
              <LatitudeDegrees>43.3325093798339366912841796875</LatitudeDegrees>
              <LongitudeDegrees>-1.9418095238506793975830078125</LongitudeDegrees>
            </Position>
            <AltitudeMeters>98.1999969482421875</AltitudeMeters>
            <DistanceMeters>NAN</DistanceMeters>
          </Trackpoint>
          <Trackpoint>
            <Time>2022-07-09T10:06:58.000Z</Time>
            <Position>
              <LatitudeDegrees>43.33250577561557292938232421875</LatitudeDegrees>
              <LongitudeDegrees>-1.941812038421630859375</LongitudeDegrees>
            </Position>
            <AltitudeMeters>98.1999969482421875</AltitudeMeters>
            <DistanceMeters>NAN</DistanceMeters>
          </Trackpoint>
          <Trackpoint>
            <Time>2022-07-09T10:06:59.000Z</Time>
            <Position>
              <LatitudeDegrees>43.33250577561557292938232421875</LatitudeDegrees>
              <LongitudeDegrees>-1.941812038421630859375</LongitudeDegrees>
            </Position>
            <AltitudeMeters>98.1999969482421875</AltitudeMeters>
            <DistanceMeters>NAN</DistanceMeters>
          </Trackpoint>
          <Trackpoint>
            <Time>2022-07-09T10:08:52.000Z</Time>
            <Position>
              <LatitudeDegrees>43.33197645843029022216796875</LatitudeDegrees>
              <LongitudeDegrees>-1.942249573767185211181640625</LongitudeDegrees>
            </Position>
            <AltitudeMeters>89</AltitudeMeters>
            <DistanceMeters>NAN</DistanceMeters>
          </Trackpoint>
          <Trackpoint>
            <Time>2022-07-09T10:08:53.000Z</Time>
            <Position>
              <LatitudeDegrees>43.33195793442428112030029296875</LatitudeDegrees>
              <LongitudeDegrees>-1.94224982522428035736083984375</LongitudeDegrees>
            </Position>
            <AltitudeMeters>88.8000030517578125</AltitudeMeters>
            <DistanceMeters>NAN</DistanceMeters>
          </Trackpoint>
          <Trackpoint>
            <Time>2022-07-09T10:08:54.000Z</Time>
            <Position>
              <LatitudeDegrees>43.33193379454314708709716796875</LatitudeDegrees>
              <LongitudeDegrees>-1.942253597080707550048828125</LongitudeDegrees>
            </Position>
            <AltitudeMeters>88.40000152587890625</AltitudeMeters>
            <DistanceMeters>NAN</DistanceMeters>
          </Trackpoint>
          <Trackpoint>
            <Time>2022-07-09T10:08:55.000Z</Time>
            <Position>
              <LatitudeDegrees>43.33190563134849071502685546875</LatitudeDegrees>
              <LongitudeDegrees>-1.9422685168683528900146484375</LongitudeDegrees>
            </Position>
            <AltitudeMeters>87.8000030517578125</AltitudeMeters>
            <DistanceMeters>NAN</DistanceMeters>
          </Trackpoint>
          <Trackpoint>
            <Time>2022-07-09T10:08:58.000Z</Time>
            <Position>
              <LatitudeDegrees>43.3318497240543365478515625</LatitudeDegrees>
              <LongitudeDegrees>-1.94237655960023403167724609375</LongitudeDegrees>
            </Position>
            <AltitudeMeters>87.1999969482421875</AltitudeMeters>
            <DistanceMeters>NAN</DistanceMeters>
          </Trackpoint>
          <Trackpoint>
            <Time>2022-07-09T10:09:01.000Z</Time>
            <Position>
              <LatitudeDegrees>43.33179943263530731201171875</LatitudeDegrees>
              <LongitudeDegrees>-1.9425323791801929473876953125</LongitudeDegrees>
            </Position>
            <AltitudeMeters>86.8000030517578125</AltitudeMeters>
            <DistanceMeters>NAN</DistanceMeters>
          </Trackpoint>
          <Trackpoint>
            <Time>2022-07-09T10:09:02.000Z</Time>
            <Position>
              <LatitudeDegrees>43.33178468048572540283203125</LatitudeDegrees>
              <LongitudeDegrees>-1.942586861550807952880859375</LongitudeDegrees>
            </Position>
            <AltitudeMeters>86.59999847412109375</AltitudeMeters>
            <DistanceMeters>NAN</DistanceMeters>
          </Trackpoint>
          <Trackpoint>
            <Time>2022-07-09T10:09:07.000Z</Time>
            <Position>
              <LatitudeDegrees>43.33172835409641265869140625</LatitudeDegrees>
              <LongitudeDegrees>-1.9427523203194141387939453125</LongitudeDegrees>
            </Position>
            <AltitudeMeters>86.40000152587890625</AltitudeMeters>
            <DistanceMeters>NAN</DistanceMeters>
          </Trackpoint>
          <Trackpoint>
            <Time>2022-07-09T10:09:09.000Z</Time>
            <Position>
              <LatitudeDegrees>43.33170949481427669525146484375</LatitudeDegrees>
              <LongitudeDegrees>-1.94278777576982975006103515625</LongitudeDegrees>
            </Position>
            <AltitudeMeters>86.59999847412109375</AltitudeMeters>
            <DistanceMeters>NAN</DistanceMeters>
          </Trackpoint>
          <Trackpoint>
            <Time>2022-07-09T10:09:12.000Z</Time>
            <Position>
              <LatitudeDegrees>43.3317016996443271636962890625</LatitudeDegrees>
              <LongitudeDegrees>-1.94285449571907520294189453125</LongitudeDegrees>
            </Position>
            <AltitudeMeters>86.59999847412109375</AltitudeMeters>
            <DistanceMeters>NAN</DistanceMeters>
          </Trackpoint>
          <Trackpoint>
            <Time>2022-07-09T10:09:13.000Z</Time>
            <Position>
              <LatitudeDegrees>43.33170287311077117919921875</LatitudeDegrees>
              <LongitudeDegrees>-1.9428710080683231353759765625</LongitudeDegrees>
            </Position>
            <AltitudeMeters>86.59999847412109375</AltitudeMeters>
            <DistanceMeters>NAN</DistanceMeters>
          </Trackpoint>
          <Trackpoint>
            <Time>2022-07-09T10:09:16.000Z</Time>
            <Position>
              <LatitudeDegrees>43.33168753422796726226806640625</LatitudeDegrees>
              <LongitudeDegrees>-1.942924819886684417724609375</LongitudeDegrees>
            </Position>
            <AltitudeMeters>86.8000030517578125</AltitudeMeters>
            <DistanceMeters>NAN</DistanceMeters>
          </Trackpoint>
          <Trackpoint>
            <Time>2022-07-09T10:09:18.000Z</Time>
            <Position>
              <LatitudeDegrees>43.3316701836884021759033203125</LatitudeDegrees>
              <LongitudeDegrees>-1.94296547211706638336181640625</LongitudeDegrees>
            </Position>
            <AltitudeMeters>87</AltitudeMeters>
            <DistanceMeters>NAN</DistanceMeters>
          </Trackpoint>
          <Trackpoint>
            <Time>2022-07-09T10:09:23.000Z</Time>
            <Position>
              <LatitudeDegrees>43.33161570131778717041015625</LatitudeDegrees>
              <LongitudeDegrees>-1.9430383108556270599365234375</LongitudeDegrees>
            </Position>
            <AltitudeMeters>87.40000152587890625</AltitudeMeters>
            <DistanceMeters>NAN</DistanceMeters>
          </Trackpoint>
          <Trackpoint>
            <Time>2022-07-09T10:09:27.000Z</Time>
            <Position>
              <LatitudeDegrees>43.3315654098987579345703125</LatitudeDegrees>
              <LongitudeDegrees>-1.94310913793742656707763671875</LongitudeDegrees>
            </Position>
            <AltitudeMeters>87.59999847412109375</AltitudeMeters>
            <DistanceMeters>NAN</DistanceMeters>
          </Trackpoint>
          <Trackpoint>
            <Time>2022-07-09T10:09:34.000Z</Time>
            <Position>
              <LatitudeDegrees>43.331454098224639892578125</LatitudeDegrees>
              <LongitudeDegrees>-1.943226568400859832763671875</LongitudeDegrees>
            </Position>
            <AltitudeMeters>87.8000030517578125</AltitudeMeters>
            <DistanceMeters>NAN</DistanceMeters>
          </Trackpoint>
          <Trackpoint>
            <Time>2022-07-09T10:09:36.000Z</Time>
            <Position>
              <LatitudeDegrees>43.33143171854317188262939453125</LatitudeDegrees>
              <LongitudeDegrees>-1.943258754909038543701171875</LongitudeDegrees>
            </Position>
            <AltitudeMeters>88</AltitudeMeters>
            <DistanceMeters>NAN</DistanceMeters>
          </Trackpoint>
          <Trackpoint>
            <Time>2022-07-09T10:09:41.000Z</Time>
            <Position>
              <LatitudeDegrees>43.331373967230319976806640625</LatitudeDegrees>
              <LongitudeDegrees>-1.94332036189734935760498046875</LongitudeDegrees>
            </Position>
            <AltitudeMeters>88.59999847412109375</AltitudeMeters>
            <DistanceMeters>NAN</DistanceMeters>
          </Trackpoint>
          <Trackpoint>
            <Time>2022-07-09T10:09:44.000Z</Time>
            <Position>
              <LatitudeDegrees>43.33133432082831859588623046875</LatitudeDegrees>
              <LongitudeDegrees>-1.94334986619651317596435546875</LongitudeDegrees>
            </Position>
            <AltitudeMeters>89</AltitudeMeters>
            <DistanceMeters>NAN</DistanceMeters>
          </Trackpoint>
          <Trackpoint>
            <Time>2022-07-09T10:09:47.000Z</Time>
            <Position>
              <LatitudeDegrees>43.33129324950277805328369140625</LatitudeDegrees>
              <LongitudeDegrees>-1.94336034357547760009765625</LongitudeDegrees>
            </Position>
            <AltitudeMeters>89.40000152587890625</AltitudeMeters>
            <DistanceMeters>NAN</DistanceMeters>
          </Trackpoint>
          <Trackpoint>
            <Time>2022-07-09T10:09:50.000Z</Time>
            <Position>
              <LatitudeDegrees>43.33129056729376316070556640625</LatitudeDegrees>
              <LongitudeDegrees>-1.94336009211838245391845703125</LongitudeDegrees>
            </Position>
            <AltitudeMeters>89.59999847412109375</AltitudeMeters>
            <DistanceMeters>NAN</DistanceMeters>
          </Trackpoint>
          <Trackpoint>
            <Time>2022-07-09T10:10:38.000Z</Time>
            <Position>
              <LatitudeDegrees>43.33120356313884258270263671875</LatitudeDegrees>
              <LongitudeDegrees>-1.94339395500719547271728515625</LongitudeDegrees>
            </Position>
            <AltitudeMeters>92</AltitudeMeters>
            <DistanceMeters>NAN</DistanceMeters>
          </Trackpoint>
          <Trackpoint>
            <Time>2022-07-09T10:10:39.000Z</Time>
            <Position>
              <LatitudeDegrees>43.33118244074285030364990234375</LatitudeDegrees>
              <LongitudeDegrees>-1.943406946957111358642578125</LongitudeDegrees>
            </Position>
            <AltitudeMeters>92</AltitudeMeters>
            <DistanceMeters>NAN</DistanceMeters>
          </Trackpoint>
          <Trackpoint>
            <Time>2022-07-09T10:10:44.000Z</Time>
            <Position>
              <LatitudeDegrees>43.3311132900416851043701171875</LatitudeDegrees>
              <LongitudeDegrees>-1.943451203405857086181640625</LongitudeDegrees>
            </Position>
            <AltitudeMeters>92.59999847412109375</AltitudeMeters>
            <DistanceMeters>NAN</DistanceMeters>
          </Trackpoint>
          <Trackpoint>
            <Time>2022-07-09T10:10:50.000Z</Time>
            <Position>
              <LatitudeDegrees>43.33099653013050556182861328125</LatitudeDegrees>
              <LongitudeDegrees>-1.94360383786261081695556640625</LongitudeDegrees>
            </Position>
            <AltitudeMeters>92.59999847412109375</AltitudeMeters>
            <DistanceMeters>NAN</DistanceMeters>
          </Trackpoint>
          <Trackpoint>
            <Time>2022-07-09T10:10:55.000Z</Time>
            <Position>
              <LatitudeDegrees>43.33093852736055850982666015625</LatitudeDegrees>
              <LongitudeDegrees>-1.94375169463455677032470703125</LongitudeDegrees>
            </Position>
            <AltitudeMeters>91.59999847412109375</AltitudeMeters>
            <DistanceMeters>NAN</DistanceMeters>
          </Trackpoint>
          <Trackpoint>
            <Time>2022-07-09T10:10:56.000Z</Time>
            <Position>
              <LatitudeDegrees>43.33091924898326396942138671875</LatitudeDegrees>
              <LongitudeDegrees>-1.9437729008495807647705078125</LongitudeDegrees>
            </Position>
            <AltitudeMeters>91.40000152587890625</AltitudeMeters>
            <DistanceMeters>NAN</DistanceMeters>
          </Trackpoint>
          <Trackpoint>
            <Time>2022-07-09T10:10:59.000Z</Time>
            <Position>
              <LatitudeDegrees>43.33084029145538806915283203125</LatitudeDegrees>
              <LongitudeDegrees>-1.94381640292704105377197265625</LongitudeDegrees>
            </Position>
            <AltitudeMeters>91</AltitudeMeters>
            <DistanceMeters>NAN</DistanceMeters>
          </Trackpoint>
          <Trackpoint>
            <Time>2022-07-09T10:11:01.000Z</Time>
            <Position>
              <LatitudeDegrees>43.330784551799297332763671875</LatitudeDegrees>
              <LongitudeDegrees>-1.943815313279628753662109375</LongitudeDegrees>
            </Position>
            <AltitudeMeters>90.59999847412109375</AltitudeMeters>
            <DistanceMeters>NAN</DistanceMeters>
          </Trackpoint>
          <Trackpoint>
            <Time>2022-07-09T10:11:08.000Z</Time>
            <Position>
              <LatitudeDegrees>43.33064499311149120330810546875</LatitudeDegrees>
              <LongitudeDegrees>-1.94381053559482097625732421875</LongitudeDegrees>
            </Position>
            <AltitudeMeters>90</AltitudeMeters>
            <DistanceMeters>NAN</DistanceMeters>
          </Trackpoint>
          <Trackpoint>
            <Time>2022-07-09T10:11:10.000Z</Time>
            <Position>
              <LatitudeDegrees>43.3306117169559001922607421875</LatitudeDegrees>
              <LongitudeDegrees>-1.94383232854306697845458984375</LongitudeDegrees>
            </Position>
            <AltitudeMeters>90</AltitudeMeters>
            <DistanceMeters>NAN</DistanceMeters>
          </Trackpoint>
          <Trackpoint>
            <Time>2022-07-09T10:11:11.000Z</Time>
            <Position>
              <LatitudeDegrees>43.330599479377269744873046875</LatitudeDegrees>
              <LongitudeDegrees>-1.9438516907393932342529296875</LongitudeDegrees>
            </Position>
            <AltitudeMeters>89.8000030517578125</AltitudeMeters>
            <DistanceMeters>NAN</DistanceMeters>
          </Trackpoint>
          <Trackpoint>
            <Time>2022-07-09T10:11:12.000Z</Time>
            <Position>
              <LatitudeDegrees>43.33059604279696941375732421875</LatitudeDegrees>
              <LongitudeDegrees>-1.94386719726026058197021484375</LongitudeDegrees>
            </Position>
            <AltitudeMeters>89.8000030517578125</AltitudeMeters>
            <DistanceMeters>NAN</DistanceMeters>
          </Trackpoint>
          <Trackpoint>
            <Time>2022-07-09T10:11:16.000Z</Time>
            <Position>
              <LatitudeDegrees>43.3305966295301914215087890625</LatitudeDegrees>
              <LongitudeDegrees>-1.94396761246025562286376953125</LongitudeDegrees>
            </Position>
            <AltitudeMeters>88.8000030517578125</AltitudeMeters>
            <DistanceMeters>NAN</DistanceMeters>
          </Trackpoint>
          <Trackpoint>
            <Time>2022-07-09T10:11:19.000Z</Time>
            <Position>
              <LatitudeDegrees>43.3305983059108257293701171875</LatitudeDegrees>
              <LongitudeDegrees>-1.94406383670866489410400390625</LongitudeDegrees>
            </Position>
            <AltitudeMeters>88.40000152587890625</AltitudeMeters>
            <DistanceMeters>NAN</DistanceMeters>
          </Trackpoint>
          <Trackpoint>
            <Time>2022-07-09T10:11:24.000Z</Time>
            <Position>
              <LatitudeDegrees>43.330568969249725341796875</LatitudeDegrees>
              <LongitudeDegrees>-1.9442201592028141021728515625</LongitudeDegrees>
            </Position>
            <AltitudeMeters>88.40000152587890625</AltitudeMeters>
            <DistanceMeters>NAN</DistanceMeters>
          </Trackpoint>
          <Trackpoint>
            <Time>2022-07-09T10:11:25.000Z</Time>
            <Position>
              <LatitudeDegrees>43.33054692484438419342041015625</LatitudeDegrees>
              <LongitudeDegrees>-1.94425217807292938232421875</LongitudeDegrees>
            </Position>
            <AltitudeMeters>88.40000152587890625</AltitudeMeters>
            <DistanceMeters>NAN</DistanceMeters>
          </Trackpoint>
          <Trackpoint>
            <Time>2022-07-09T10:11:27.000Z</Time>
            <Position>
              <LatitudeDegrees>43.33051063120365142822265625</LatitudeDegrees>
              <LongitudeDegrees>-1.94429920054972171783447265625</LongitudeDegrees>
            </Position>
            <AltitudeMeters>88.59999847412109375</AltitudeMeters>
            <DistanceMeters>NAN</DistanceMeters>
          </Trackpoint>
          <Trackpoint>
            <Time>2022-07-09T10:11:30.000Z</Time>
            <Position>
              <LatitudeDegrees>43.33046503365039825439453125</LatitudeDegrees>
              <LongitudeDegrees>-1.94436726160347461700439453125</LongitudeDegrees>
            </Position>
            <AltitudeMeters>88.59999847412109375</AltitudeMeters>
            <DistanceMeters>NAN</DistanceMeters>
          </Trackpoint>
          <Trackpoint>
            <Time>2022-07-09T10:11:31.000Z</Time>
            <Position>
              <LatitudeDegrees>43.33045019768178462982177734375</LatitudeDegrees>
              <LongitudeDegrees>-1.944389976561069488525390625</LongitudeDegrees>
            </Position>
            <AltitudeMeters>88.59999847412109375</AltitudeMeters>
            <DistanceMeters>NAN</DistanceMeters>
          </Trackpoint>
          <Trackpoint>
            <Time>2022-07-09T10:11:36.000Z</Time>
            <Position>
              <LatitudeDegrees>43.33036453463137149810791015625</LatitudeDegrees>
              <LongitudeDegrees>-1.94445242173969745635986328125</LongitudeDegrees>
            </Position>
            <AltitudeMeters>88.8000030517578125</AltitudeMeters>
            <DistanceMeters>NAN</DistanceMeters>
          </Trackpoint>
          <Trackpoint>
            <Time>2022-07-09T10:11:41.000Z</Time>
            <Position>
              <LatitudeDegrees>43.33032212220132350921630859375</LatitudeDegrees>
              <LongitudeDegrees>-1.94449583999812602996826171875</LongitudeDegrees>
            </Position>
            <AltitudeMeters>89.1999969482421875</AltitudeMeters>
            <DistanceMeters>NAN</DistanceMeters>
          </Trackpoint>
          <Trackpoint>
            <Time>2022-07-09T10:11:48.000Z</Time>
            <Position>
              <LatitudeDegrees>43.33025154657661914825439453125</LatitudeDegrees>
              <LongitudeDegrees>-1.94449198432266712188720703125</LongitudeDegrees>
            </Position>
            <AltitudeMeters>89.8000030517578125</AltitudeMeters>
            <DistanceMeters>NAN</DistanceMeters>
          </Trackpoint>
          <Trackpoint>
            <Time>2022-07-09T10:11:49.000Z</Time>
            <Position>
              <LatitudeDegrees>43.33024014718830585479736328125</LatitudeDegrees>
              <LongitudeDegrees>-1.94449718110263347625732421875</LongitudeDegrees>
            </Position>
            <AltitudeMeters>89.8000030517578125</AltitudeMeters>
            <DistanceMeters>NAN</DistanceMeters>
          </Trackpoint>
          <Trackpoint>
            <Time>2022-07-09T10:11:52.000Z</Time>
            <Position>
              <LatitudeDegrees>43.330175019800662994384765625</LatitudeDegrees>
              <LongitudeDegrees>-1.94455434568226337432861328125</LongitudeDegrees>
            </Position>
            <AltitudeMeters>90.59999847412109375</AltitudeMeters>
            <DistanceMeters>NAN</DistanceMeters>
          </Trackpoint>
          <Trackpoint>
            <Time>2022-07-09T10:11:53.000Z</Time>
            <Position>
              <LatitudeDegrees>43.330156914889812469482421875</LatitudeDegrees>
              <LongitudeDegrees>-1.94456792436540126800537109375</LongitudeDegrees>
            </Position>
            <AltitudeMeters>90.8000030517578125</AltitudeMeters>
            <DistanceMeters>NAN</DistanceMeters>
          </Trackpoint>
          <Trackpoint>
            <Time>2022-07-09T10:11:55.000Z</Time>
            <Position>
              <LatitudeDegrees>43.3301584236323833465576171875</LatitudeDegrees>
              <LongitudeDegrees>-1.94457538425922393798828125</LongitudeDegrees>
            </Position>
            <AltitudeMeters>90.8000030517578125</AltitudeMeters>
            <DistanceMeters>NAN</DistanceMeters>
          </Trackpoint>
          <Trackpoint>
            <Time>2022-07-09T10:11:56.000Z</Time>
            <Position>
              <LatitudeDegrees>43.3301584236323833465576171875</LatitudeDegrees>
              <LongitudeDegrees>-1.94457538425922393798828125</LongitudeDegrees>
            </Position>
            <AltitudeMeters>91</AltitudeMeters>
            <DistanceMeters>NAN</DistanceMeters>
          </Trackpoint>
          <Trackpoint>
            <Time>2022-07-09T10:13:50.000Z</Time>
            <Position>
              <LatitudeDegrees>43.33013621158897876739501953125</LatitudeDegrees>
              <LongitudeDegrees>-1.94487051106989383697509765625</LongitudeDegrees>
            </Position>
            <AltitudeMeters>97.1999969482421875</AltitudeMeters>
            <DistanceMeters>NAN</DistanceMeters>
          </Trackpoint>
          <Trackpoint>
            <Time>2022-07-09T10:13:51.000Z</Time>
            <Position>
              <LatitudeDegrees>43.33012548275291919708251953125</LatitudeDegrees>
              <LongitudeDegrees>-1.94490605033934116363525390625</LongitudeDegrees>
            </Position>
            <AltitudeMeters>97.40000152587890625</AltitudeMeters>
            <DistanceMeters>NAN</DistanceMeters>
          </Trackpoint>
          <Trackpoint>
            <Time>2022-07-09T10:13:52.000Z</Time>
            <Position>
              <LatitudeDegrees>43.33011441864073276519775390625</LatitudeDegrees>
              <LongitudeDegrees>-1.94493723101913928985595703125</LongitudeDegrees>
            </Position>
            <AltitudeMeters>97.40000152587890625</AltitudeMeters>
            <DistanceMeters>NAN</DistanceMeters>
          </Trackpoint>
          <Trackpoint>
            <Time>2022-07-09T10:13:53.000Z</Time>
            <Position>
              <LatitudeDegrees>43.3301057852804660797119140625</LatitudeDegrees>
              <LongitudeDegrees>-1.94496438838541507720947265625</LongitudeDegrees>
            </Position>
            <AltitudeMeters>97.59999847412109375</AltitudeMeters>
            <DistanceMeters>NAN</DistanceMeters>
          </Trackpoint>
          <Trackpoint>
            <Time>2022-07-09T10:13:56.000Z</Time>
            <Position>
              <LatitudeDegrees>43.33010452799499034881591796875</LatitudeDegrees>
              <LongitudeDegrees>-1.945041753351688385009765625</LongitudeDegrees>
            </Position>
            <AltitudeMeters>97.59999847412109375</AltitudeMeters>
            <DistanceMeters>NAN</DistanceMeters>
          </Trackpoint>
          <Trackpoint>
            <Time>2022-07-09T10:13:58.000Z</Time>
            <Position>
              <LatitudeDegrees>43.33009899593889713287353515625</LatitudeDegrees>
              <LongitudeDegrees>-1.94509011693298816680908203125</LongitudeDegrees>
            </Position>
            <AltitudeMeters>97.59999847412109375</AltitudeMeters>
            <DistanceMeters>NAN</DistanceMeters>
          </Trackpoint>
          <Trackpoint>
            <Time>2022-07-09T10:14:00.000Z</Time>
            <Position>
              <LatitudeDegrees>43.33008415997028350830078125</LatitudeDegrees>
              <LongitudeDegrees>-1.94511392153799533843994140625</LongitudeDegrees>
            </Position>
            <AltitudeMeters>97.59999847412109375</AltitudeMeters>
            <DistanceMeters>NAN</DistanceMeters>
          </Trackpoint>
          <Trackpoint>
            <Time>2022-07-09T10:14:02.000Z</Time>
            <Position>
              <LatitudeDegrees>43.33007452078163623809814453125</LatitudeDegrees>
              <LongitudeDegrees>-1.94513923488557338714599609375</LongitudeDegrees>
            </Position>
            <AltitudeMeters>98</AltitudeMeters>
            <DistanceMeters>NAN</DistanceMeters>
          </Trackpoint>
          <Trackpoint>
            <Time>2022-07-09T10:14:05.000Z</Time>
            <Position>
              <LatitudeDegrees>43.33006043918430805206298828125</LatitudeDegrees>
              <LongitudeDegrees>-1.94515876471996307373046875</LongitudeDegrees>
            </Position>
            <AltitudeMeters>98.40000152587890625</AltitudeMeters>
            <DistanceMeters>NAN</DistanceMeters>
          </Trackpoint>
          <Trackpoint>
            <Time>2022-07-09T10:14:07.000Z</Time>
            <Position>
              <LatitudeDegrees>43.33006043918430805206298828125</LatitudeDegrees>
              <LongitudeDegrees>-1.94515876471996307373046875</LongitudeDegrees>
            </Position>
            <AltitudeMeters>98.40000152587890625</AltitudeMeters>
            <DistanceMeters>NAN</DistanceMeters>
          </Trackpoint>
          <Trackpoint>
            <Time>2022-07-09T10:14:08.000Z</Time>
            <Position>
              <LatitudeDegrees>43.33006043918430805206298828125</LatitudeDegrees>
              <LongitudeDegrees>-1.94515876471996307373046875</LongitudeDegrees>
            </Position>
            <AltitudeMeters>98.40000152587890625</AltitudeMeters>
            <DistanceMeters>NAN</DistanceMeters>
          </Trackpoint>
          <Trackpoint>
            <Time>2022-07-09T10:17:15.000Z</Time>
            <Position>
              <LatitudeDegrees>43.32920414395630359649658203125</LatitudeDegrees>
              <LongitudeDegrees>-1.9453899376094341278076171875</LongitudeDegrees>
            </Position>
            <AltitudeMeters>111.40000152587890625</AltitudeMeters>
            <DistanceMeters>NAN</DistanceMeters>
          </Trackpoint>
          <Trackpoint>
            <Time>2022-07-09T10:17:16.000Z</Time>
            <Position>
              <LatitudeDegrees>43.329191319644451141357421875</LatitudeDegrees>
              <LongitudeDegrees>-1.945395804941654205322265625</LongitudeDegrees>
            </Position>
            <AltitudeMeters>111.40000152587890625</AltitudeMeters>
            <DistanceMeters>NAN</DistanceMeters>
          </Trackpoint>
          <Trackpoint>
            <Time>2022-07-09T10:17:18.000Z</Time>
            <Position>
              <LatitudeDegrees>43.32918570376932621002197265625</LatitudeDegrees>
              <LongitudeDegrees>-1.94539974443614482879638671875</LongitudeDegrees>
            </Position>
            <AltitudeMeters>111.59999847412109375</AltitudeMeters>
            <DistanceMeters>NAN</DistanceMeters>
          </Trackpoint>
          <Trackpoint>
            <Time>2022-07-09T10:17:19.000Z</Time>
            <Position>
              <LatitudeDegrees>43.32918570376932621002197265625</LatitudeDegrees>
              <LongitudeDegrees>-1.94539974443614482879638671875</LongitudeDegrees>
            </Position>
            <AltitudeMeters>111.8000030517578125</AltitudeMeters>
            <DistanceMeters>NAN</DistanceMeters>
          </Trackpoint>
          <Trackpoint>
            <Time>2022-07-09T10:21:57.000Z</Time>
            <Position>
              <LatitudeDegrees>43.32847106270492076873779296875</LatitudeDegrees>
              <LongitudeDegrees>-1.94523076526820659637451171875</LongitudeDegrees>
            </Position>
            <AltitudeMeters>129.1999969482421875</AltitudeMeters>
            <DistanceMeters>NAN</DistanceMeters>
          </Trackpoint>
          <Trackpoint>
            <Time>2022-07-09T10:21:58.000Z</Time>
            <Position>
              <LatitudeDegrees>43.3284602500498294830322265625</LatitudeDegrees>
              <LongitudeDegrees>-1.945252306759357452392578125</LongitudeDegrees>
            </Position>
            <AltitudeMeters>129.1999969482421875</AltitudeMeters>
            <DistanceMeters>NAN</DistanceMeters>
          </Trackpoint>
          <Trackpoint>
            <Time>2022-07-09T10:22:00.000Z</Time>
            <Position>
              <LatitudeDegrees>43.3284327574074268341064453125</LatitudeDegrees>
              <LongitudeDegrees>-1.94529832340776920318603515625</LongitudeDegrees>
            </Position>
            <AltitudeMeters>129.1999969482421875</AltitudeMeters>
            <DistanceMeters>NAN</DistanceMeters>
          </Trackpoint>
          <Trackpoint>
            <Time>2022-07-09T10:22:02.000Z</Time>
            <Position>
              <LatitudeDegrees>43.32840451039373874664306640625</LatitudeDegrees>
              <LongitudeDegrees>-1.9453270733356475830078125</LongitudeDegrees>
            </Position>
            <AltitudeMeters>129</AltitudeMeters>
            <DistanceMeters>NAN</DistanceMeters>
          </Trackpoint>
          <Trackpoint>
            <Time>2022-07-09T10:22:04.000Z</Time>
            <Position>
              <LatitudeDegrees>43.3283923566341400146484375</LatitudeDegrees>
              <LongitudeDegrees>-1.9453512132167816162109375</LongitudeDegrees>
            </Position>
            <AltitudeMeters>129</AltitudeMeters>
            <DistanceMeters>NAN</DistanceMeters>
          </Trackpoint>
          <Trackpoint>
            <Time>2022-07-09T10:22:05.000Z</Time>
            <Position>
              <LatitudeDegrees>43.3283911831676959991455078125</LatitudeDegrees>
              <LongitudeDegrees>-1.945364288985729217529296875</LongitudeDegrees>
            </Position>
            <AltitudeMeters>129</AltitudeMeters>
            <DistanceMeters>NAN</DistanceMeters>
          </Trackpoint>
          <Trackpoint>
            <Time>2022-07-09T10:22:10.000Z</Time>
            <Position>
              <LatitudeDegrees>43.3283251337707042694091796875</LatitudeDegrees>
              <LongitudeDegrees>-1.9454854913055896759033203125</LongitudeDegrees>
            </Position>
            <AltitudeMeters>129.600006103515625</AltitudeMeters>
            <DistanceMeters>NAN</DistanceMeters>
          </Trackpoint>
          <Trackpoint>
            <Time>2022-07-09T10:22:11.000Z</Time>
            <Position>
              <LatitudeDegrees>43.32831063307821750640869140625</LatitudeDegrees>
              <LongitudeDegrees>-1.9455042667686939239501953125</LongitudeDegrees>
            </Position>
            <AltitudeMeters>129.600006103515625</AltitudeMeters>
            <DistanceMeters>NAN</DistanceMeters>
          </Trackpoint>
          <Trackpoint>
            <Time>2022-07-09T10:22:17.000Z</Time>
            <Position>
              <LatitudeDegrees>43.328267298638820648193359375</LatitudeDegrees>
              <LongitudeDegrees>-1.94564332254230976104736328125</LongitudeDegrees>
            </Position>
            <AltitudeMeters>130.1999969482421875</AltitudeMeters>
            <DistanceMeters>NAN</DistanceMeters>
          </Trackpoint>
          <Trackpoint>
            <Time>2022-07-09T10:22:18.000Z</Time>
            <Position>
              <LatitudeDegrees>43.32826268859207630157470703125</LatitudeDegrees>
              <LongitudeDegrees>-1.9456636905670166015625</LongitudeDegrees>
            </Position>
            <AltitudeMeters>130.1999969482421875</AltitudeMeters>
            <DistanceMeters>NAN</DistanceMeters>
          </Trackpoint>
          <Trackpoint>
            <Time>2022-07-09T10:22:22.000Z</Time>
            <Position>
              <LatitudeDegrees>43.3282470144331455230712890625</LatitudeDegrees>
              <LongitudeDegrees>-1.94574273191392421722412109375</LongitudeDegrees>
            </Position>
            <AltitudeMeters>130.600006103515625</AltitudeMeters>
            <DistanceMeters>NAN</DistanceMeters>
          </Trackpoint>
          <Trackpoint>
            <Time>2022-07-09T10:22:25.000Z</Time>
            <Position>
              <LatitudeDegrees>43.3282339386641979217529296875</LatitudeDegrees>
              <LongitudeDegrees>-1.94580224342644214630126953125</LongitudeDegrees>
            </Position>
            <AltitudeMeters>130.8000030517578125</AltitudeMeters>
            <DistanceMeters>NAN</DistanceMeters>
          </Trackpoint>
          <Trackpoint>
            <Time>2022-07-09T10:22:26.000Z</Time>
            <Position>
              <LatitudeDegrees>43.328237794339656829833984375</LatitudeDegrees>
              <LongitudeDegrees>-1.945822276175022125244140625</LongitudeDegrees>
            </Position>
            <AltitudeMeters>131</AltitudeMeters>
            <DistanceMeters>NAN</DistanceMeters>
          </Trackpoint>
          <Trackpoint>
            <Time>2022-07-09T10:22:29.000Z</Time>
            <Position>
              <LatitudeDegrees>43.32823771052062511444091796875</LatitudeDegrees>
              <LongitudeDegrees>-1.9458754174411296844482421875</LongitudeDegrees>
            </Position>
            <AltitudeMeters>131.1999969482421875</AltitudeMeters>
            <DistanceMeters>NAN</DistanceMeters>
          </Trackpoint>
          <Trackpoint>
            <Time>2022-07-09T10:22:35.000Z</Time>
            <Position>
              <LatitudeDegrees>43.3282265625894069671630859375</LatitudeDegrees>
              <LongitudeDegrees>-1.94596803747117519378662109375</LongitudeDegrees>
            </Position>
            <AltitudeMeters>132</AltitudeMeters>
            <DistanceMeters>NAN</DistanceMeters>
          </Trackpoint>
          <Trackpoint>
            <Time>2022-07-09T10:22:36.000Z</Time>
            <Position>
              <LatitudeDegrees>43.3282279036939144134521484375</LatitudeDegrees>
              <LongitudeDegrees>-1.94598647765815258026123046875</LongitudeDegrees>
            </Position>
            <AltitudeMeters>132.1999969482421875</AltitudeMeters>
            <DistanceMeters>NAN</DistanceMeters>
          </Trackpoint>
          <Trackpoint>
            <Time>2022-07-09T10:22:37.000Z</Time>
            <Position>
              <LatitudeDegrees>43.32823402248322963714599609375</LatitudeDegrees>
              <LongitudeDegrees>-1.94600642658770084381103515625</LongitudeDegrees>
            </Position>
            <AltitudeMeters>132.399993896484375</AltitudeMeters>
            <DistanceMeters>NAN</DistanceMeters>
          </Trackpoint>
          <Trackpoint>
            <Time>2022-07-09T10:22:40.000Z</Time>
            <Position>
              <LatitudeDegrees>43.328237123787403106689453125</LatitudeDegrees>
              <LongitudeDegrees>-1.94606074132025241851806640625</LongitudeDegrees>
            </Position>
            <AltitudeMeters>132.8000030517578125</AltitudeMeters>
            <DistanceMeters>NAN</DistanceMeters>
          </Trackpoint>
          <Trackpoint>
            <Time>2022-07-09T10:22:45.000Z</Time>
            <Position>
              <LatitudeDegrees>43.32821323536336421966552734375</LatitudeDegrees>
              <LongitudeDegrees>-1.94616191089153289794921875</LongitudeDegrees>
            </Position>
            <AltitudeMeters>133.399993896484375</AltitudeMeters>
            <DistanceMeters>NAN</DistanceMeters>
          </Trackpoint>
          <Trackpoint>
            <Time>2022-07-09T10:22:48.000Z</Time>
            <Position>
              <LatitudeDegrees>43.32820401526987552642822265625</LatitudeDegrees>
              <LongitudeDegrees>-1.94621245376765727996826171875</LongitudeDegrees>
            </Position>
            <AltitudeMeters>133.8000030517578125</AltitudeMeters>
            <DistanceMeters>NAN</DistanceMeters>
          </Trackpoint>
          <Trackpoint>
            <Time>2022-07-09T10:22:53.000Z</Time>
            <Position>
              <LatitudeDegrees>43.3282061107456684112548828125</LatitudeDegrees>
              <LongitudeDegrees>-1.94631186313927173614501953125</LongitudeDegrees>
            </Position>
            <AltitudeMeters>134.600006103515625</AltitudeMeters>
            <DistanceMeters>NAN</DistanceMeters>
          </Trackpoint>
          <Trackpoint>
            <Time>2022-07-09T10:22:57.000Z</Time>
            <Position>
              <LatitudeDegrees>43.3282158337533473968505859375</LatitudeDegrees>
              <LongitudeDegrees>-1.94638453423976898193359375</LongitudeDegrees>
            </Position>
            <AltitudeMeters>135.1999969482421875</AltitudeMeters>
            <DistanceMeters>NAN</DistanceMeters>
          </Trackpoint>
          <Trackpoint>
            <Time>2022-07-09T10:23:00.000Z</Time>
            <Position>
              <LatitudeDegrees>43.3282101340591907501220703125</LatitudeDegrees>
              <LongitudeDegrees>-1.94644614122807979583740234375</LongitudeDegrees>
            </Position>
            <AltitudeMeters>135.600006103515625</AltitudeMeters>
            <DistanceMeters>NAN</DistanceMeters>
          </Trackpoint>
          <Trackpoint>
            <Time>2022-07-09T10:23:04.000Z</Time>
            <Position>
              <LatitudeDegrees>43.32821256481111049652099609375</LatitudeDegrees>
              <LongitudeDegrees>-1.94651420228183269500732421875</LongitudeDegrees>
            </Position>
            <AltitudeMeters>136</AltitudeMeters>
            <DistanceMeters>NAN</DistanceMeters>
          </Trackpoint>
          <Trackpoint>
            <Time>2022-07-09T10:23:09.000Z</Time>
            <Position>
              <LatitudeDegrees>43.32822941243648529052734375</LatitudeDegrees>
              <LongitudeDegrees>-1.946588046848773956298828125</LongitudeDegrees>
            </Position>
            <AltitudeMeters>136.600006103515625</AltitudeMeters>
            <DistanceMeters>NAN</DistanceMeters>
          </Trackpoint>
          <Trackpoint>
            <Time>2022-07-09T10:23:11.000Z</Time>
            <Position>
              <LatitudeDegrees>43.3282339386641979217529296875</LatitudeDegrees>
              <LongitudeDegrees>-1.946608833968639373779296875</LongitudeDegrees>
            </Position>
            <AltitudeMeters>136.8000030517578125</AltitudeMeters>
            <DistanceMeters>NAN</DistanceMeters>
          </Trackpoint>
          <Trackpoint>
            <Time>2022-07-09T10:23:15.000Z</Time>
            <Position>
              <LatitudeDegrees>43.3282503671944141387939453125</LatitudeDegrees>
              <LongitudeDegrees>-1.94664462469518184661865234375</LongitudeDegrees>
            </Position>
            <AltitudeMeters>137.1999969482421875</AltitudeMeters>
            <DistanceMeters>NAN</DistanceMeters>
          </Trackpoint>
          <Trackpoint>
            <Time>2022-07-09T10:23:18.000Z</Time>
            <Position>
              <LatitudeDegrees>43.32826855592429637908935546875</LatitudeDegrees>
              <LongitudeDegrees>-1.94666884839534759521484375</LongitudeDegrees>
            </Position>
            <AltitudeMeters>137.600006103515625</AltitudeMeters>
            <DistanceMeters>NAN</DistanceMeters>
          </Trackpoint>
          <Trackpoint>
            <Time>2022-07-09T10:23:19.000Z</Time>
            <Position>
              <LatitudeDegrees>43.32826788537204265594482421875</LatitudeDegrees>
              <LongitudeDegrees>-1.94668049924075603485107421875</LongitudeDegrees>
            </Position>
            <AltitudeMeters>137.8000030517578125</AltitudeMeters>
            <DistanceMeters>NAN</DistanceMeters>
          </Trackpoint>
          <Trackpoint>
            <Time>2022-07-09T10:23:23.000Z</Time>
            <Position>
              <LatitudeDegrees>43.32826587371528148651123046875</LatitudeDegrees>
              <LongitudeDegrees>-1.9467524997889995574951171875</LongitudeDegrees>
            </Position>
            <AltitudeMeters>138.1999969482421875</AltitudeMeters>
            <DistanceMeters>NAN</DistanceMeters>
          </Trackpoint>
          <Trackpoint>
            <Time>2022-07-09T10:23:26.000Z</Time>
            <Position>
              <LatitudeDegrees>43.3282875828444957733154296875</LatitudeDegrees>
              <LongitudeDegrees>-1.94681595079600811004638671875</LongitudeDegrees>
            </Position>
            <AltitudeMeters>138.600006103515625</AltitudeMeters>
            <DistanceMeters>NAN</DistanceMeters>
          </Trackpoint>
          <Trackpoint>
            <Time>2022-07-09T10:23:28.000Z</Time>
            <Position>
              <LatitudeDegrees>43.32829244434833526611328125</LatitudeDegrees>
              <LongitudeDegrees>-1.94684511981904506683349609375</LongitudeDegrees>
            </Position>
            <AltitudeMeters>139</AltitudeMeters>
            <DistanceMeters>NAN</DistanceMeters>
          </Trackpoint>
          <Trackpoint>
            <Time>2022-07-09T10:23:30.000Z</Time>
            <Position>
              <LatitudeDegrees>43.32829780876636505126953125</LatitudeDegrees>
              <LongitudeDegrees>-1.946879066526889801025390625</LongitudeDegrees>
            </Position>
            <AltitudeMeters>139.1999969482421875</AltitudeMeters>
            <DistanceMeters>NAN</DistanceMeters>
          </Trackpoint>
          <Trackpoint>
            <Time>2022-07-09T10:23:31.000Z</Time>
            <Position>
              <LatitudeDegrees>43.32829722203314304351806640625</LatitudeDegrees>
              <LongitudeDegrees>-1.94689591415226459503173828125</LongitudeDegrees>
            </Position>
            <AltitudeMeters>139.399993896484375</AltitudeMeters>
            <DistanceMeters>NAN</DistanceMeters>
          </Trackpoint>
          <Trackpoint>
            <Time>2022-07-09T10:23:33.000Z</Time>
            <Position>
              <LatitudeDegrees>43.32829873077571392059326171875</LatitudeDegrees>
              <LongitudeDegrees>-1.946932375431060791015625</LongitudeDegrees>
            </Position>
            <AltitudeMeters>139.8000030517578125</AltitudeMeters>
            <DistanceMeters>NAN</DistanceMeters>
          </Trackpoint>
          <Trackpoint>
            <Time>2022-07-09T10:23:34.000Z</Time>
            <Position>
              <LatitudeDegrees>43.3282959647476673126220703125</LatitudeDegrees>
              <LongitudeDegrees>-1.94694721139967441558837890625</LongitudeDegrees>
            </Position>
            <AltitudeMeters>139.8000030517578125</AltitudeMeters>
            <DistanceMeters>NAN</DistanceMeters>
          </Trackpoint>
          <Trackpoint>
            <Time>2022-07-09T10:23:36.000Z</Time>
            <Position>
              <LatitudeDegrees>43.3282926119863986968994140625</LatitudeDegrees>
              <LongitudeDegrees>-1.94696229882538318634033203125</LongitudeDegrees>
            </Position>
            <AltitudeMeters>140.1999969482421875</AltitudeMeters>
            <DistanceMeters>NAN</DistanceMeters>
          </Trackpoint>
          <Trackpoint>
            <Time>2022-07-09T10:23:40.000Z</Time>
            <Position>
              <LatitudeDegrees>43.32828582264482975006103515625</LatitudeDegrees>
              <LongitudeDegrees>-1.94701510481536388397216796875</LongitudeDegrees>
            </Position>
            <AltitudeMeters>141</AltitudeMeters>
            <DistanceMeters>NAN</DistanceMeters>
          </Trackpoint>
          <Trackpoint>
            <Time>2022-07-09T10:23:42.000Z</Time>
            <Position>
              <LatitudeDegrees>43.32828246988356113433837890625</LatitudeDegrees>
              <LongitudeDegrees>-1.9470582716166973114013671875</LongitudeDegrees>
            </Position>
            <AltitudeMeters>141.399993896484375</AltitudeMeters>
            <DistanceMeters>NAN</DistanceMeters>
          </Trackpoint>
          <Trackpoint>
            <Time>2022-07-09T10:23:46.000Z</Time>
            <Position>
              <LatitudeDegrees>43.3282976411283016204833984375</LatitudeDegrees>
              <LongitudeDegrees>-1.9471441023051738739013671875</LongitudeDegrees>
            </Position>
            <AltitudeMeters>142.399993896484375</AltitudeMeters>
            <DistanceMeters>NAN</DistanceMeters>
          </Trackpoint>
          <Trackpoint>
            <Time>2022-07-09T10:23:47.000Z</Time>
            <Position>
              <LatitudeDegrees>43.32830317318439483642578125</LatitudeDegrees>
              <LongitudeDegrees>-1.947158686816692352294921875</LongitudeDegrees>
            </Position>
            <AltitudeMeters>142.600006103515625</AltitudeMeters>
            <DistanceMeters>NAN</DistanceMeters>
          </Trackpoint>
          <Trackpoint>
            <Time>2022-07-09T10:23:49.000Z</Time>
            <Position>
              <LatitudeDegrees>43.328310549259185791015625</LatitudeDegrees>
              <LongitudeDegrees>-1.9471920467913150787353515625</LongitudeDegrees>
            </Position>
            <AltitudeMeters>142.8000030517578125</AltitudeMeters>
            <DistanceMeters>NAN</DistanceMeters>
          </Trackpoint>
          <Trackpoint>
            <Time>2022-07-09T10:23:50.000Z</Time>
            <Position>
              <LatitudeDegrees>43.32832018844783306121826171875</LatitudeDegrees>
              <LongitudeDegrees>-1.9472081400454044342041015625</LongitudeDegrees>
            </Position>
            <AltitudeMeters>142.8000030517578125</AltitudeMeters>
            <DistanceMeters>NAN</DistanceMeters>
          </Trackpoint>
          <Trackpoint>
            <Time>2022-07-09T10:23:52.000Z</Time>
            <Position>
              <LatitudeDegrees>43.328321613371372222900390625</LatitudeDegrees>
              <LongitudeDegrees>-1.94724309258162975311279296875</LongitudeDegrees>
            </Position>
            <AltitudeMeters>143.600006103515625</AltitudeMeters>
            <DistanceMeters>NAN</DistanceMeters>
          </Trackpoint>
          <Trackpoint>
            <Time>2022-07-09T10:23:54.000Z</Time>
            <Position>
              <LatitudeDegrees>43.3283180929720401763916015625</LatitudeDegrees>
              <LongitudeDegrees>-1.947283409535884857177734375</LongitudeDegrees>
            </Position>
            <AltitudeMeters>144</AltitudeMeters>
            <DistanceMeters>NAN</DistanceMeters>
          </Trackpoint>
          <Trackpoint>
            <Time>2022-07-09T10:23:56.000Z</Time>
            <Position>
              <LatitudeDegrees>43.3283053524792194366455078125</LatitudeDegrees>
              <LongitudeDegrees>-1.94730880670249462127685546875</LongitudeDegrees>
            </Position>
            <AltitudeMeters>144.399993896484375</AltitudeMeters>
            <DistanceMeters>NAN</DistanceMeters>
          </Trackpoint>
          <Trackpoint>
            <Time>2022-07-09T10:23:57.000Z</Time>
            <Position>
              <LatitudeDegrees>43.32830057479441165924072265625</LatitudeDegrees>
              <LongitudeDegrees>-1.9473274983465671539306640625</LongitudeDegrees>
            </Position>
            <AltitudeMeters>144.8000030517578125</AltitudeMeters>
            <DistanceMeters>NAN</DistanceMeters>
          </Trackpoint>
          <Trackpoint>
            <Time>2022-07-09T10:23:58.000Z</Time>
            <Position>
              <LatitudeDegrees>43.32830250263214111328125</LatitudeDegrees>
              <LongitudeDegrees>-1.947343759238719940185546875</LongitudeDegrees>
            </Position>
            <AltitudeMeters>145</AltitudeMeters>
            <DistanceMeters>NAN</DistanceMeters>
          </Trackpoint>
          <Trackpoint>
            <Time>2022-07-09T10:24:00.000Z</Time>
            <Position>
              <LatitudeDegrees>43.3283078670501708984375</LatitudeDegrees>
              <LongitudeDegrees>-1.9473583437502384185791015625</LongitudeDegrees>
            </Position>
            <AltitudeMeters>145.600006103515625</AltitudeMeters>
            <DistanceMeters>NAN</DistanceMeters>
          </Trackpoint>
          <Trackpoint>
            <Time>2022-07-09T10:24:01.000Z</Time>
            <Position>
              <LatitudeDegrees>43.32830811850726604461669921875</LatitudeDegrees>
              <LongitudeDegrees>-1.947367899119853973388671875</LongitudeDegrees>
            </Position>
            <AltitudeMeters>145.8000030517578125</AltitudeMeters>
            <DistanceMeters>NAN</DistanceMeters>
          </Trackpoint>
          <Trackpoint>
            <Time>2022-07-09T10:24:02.000Z</Time>
            <Position>
              <LatitudeDegrees>43.3282989822328090667724609375</LatitudeDegrees>
              <LongitudeDegrees>-1.9473762810230255126953125</LongitudeDegrees>
            </Position>
            <AltitudeMeters>146</AltitudeMeters>
            <DistanceMeters>NAN</DistanceMeters>
          </Trackpoint>
          <Trackpoint>
            <Time>2022-07-09T10:24:06.000Z</Time>
            <Position>
              <LatitudeDegrees>43.3282627724111080169677734375</LatitudeDegrees>
              <LongitudeDegrees>-1.9473979063332080841064453125</LongitudeDegrees>
            </Position>
            <AltitudeMeters>146.8000030517578125</AltitudeMeters>
            <DistanceMeters>NAN</DistanceMeters>
          </Trackpoint>
          <Trackpoint>
            <Time>2022-07-09T10:24:07.000Z</Time>
            <Position>
              <LatitudeDegrees>43.3282661251723766326904296875</LatitudeDegrees>
              <LongitudeDegrees>-1.9474022649228572845458984375</LongitudeDegrees>
            </Position>
            <AltitudeMeters>147</AltitudeMeters>
            <DistanceMeters>NAN</DistanceMeters>
          </Trackpoint>
          <Trackpoint>
            <Time>2022-07-09T10:24:08.000Z</Time>
            <Position>
              <LatitudeDegrees>43.3282624371349811553955078125</LatitudeDegrees>
              <LongitudeDegrees>-1.94741458632051944732666015625</LongitudeDegrees>
            </Position>
            <AltitudeMeters>147.1999969482421875</AltitudeMeters>
            <DistanceMeters>NAN</DistanceMeters>
          </Trackpoint>
          <Trackpoint>
            <Time>2022-07-09T10:24:10.000Z</Time>
            <Position>
              <LatitudeDegrees>43.32824843935668468475341796875</LatitudeDegrees>
              <LongitudeDegrees>-1.9474220462143421173095703125</LongitudeDegrees>
            </Position>
            <AltitudeMeters>147.600006103515625</AltitudeMeters>
            <DistanceMeters>NAN</DistanceMeters>
          </Trackpoint>
          <Trackpoint>
            <Time>2022-07-09T10:24:13.000Z</Time>
            <Position>
              <LatitudeDegrees>43.32820770330727100372314453125</LatitudeDegrees>
              <LongitudeDegrees>-1.9474264048039913177490234375</LongitudeDegrees>
            </Position>
            <AltitudeMeters>147.8000030517578125</AltitudeMeters>
            <DistanceMeters>NAN</DistanceMeters>
          </Trackpoint>
          <Trackpoint>
            <Time>2022-07-09T10:24:14.000Z</Time>
            <Position>
              <LatitudeDegrees>43.32819429226219654083251953125</LatitudeDegrees>
              <LongitudeDegrees>-1.94742632098495960235595703125</LongitudeDegrees>
            </Position>
            <AltitudeMeters>148</AltitudeMeters>
            <DistanceMeters>NAN</DistanceMeters>
          </Trackpoint>
          <Trackpoint>
            <Time>2022-07-09T10:24:17.000Z</Time>
            <Position>
              <LatitudeDegrees>43.3281588368117809295654296875</LatitudeDegrees>
              <LongitudeDegrees>-1.94742665626108646392822265625</LongitudeDegrees>
            </Position>
            <AltitudeMeters>148.399993896484375</AltitudeMeters>
            <DistanceMeters>NAN</DistanceMeters>
          </Trackpoint>
          <Trackpoint>
            <Time>2022-07-09T10:24:19.000Z</Time>
            <Position>
              <LatitudeDegrees>43.3281464315950870513916015625</LatitudeDegrees>
              <LongitudeDegrees>-1.9474243931472301483154296875</LongitudeDegrees>
            </Position>
            <AltitudeMeters>148.8000030517578125</AltitudeMeters>
            <DistanceMeters>NAN</DistanceMeters>
          </Trackpoint>
          <Trackpoint>
            <Time>2022-07-09T10:24:21.000Z</Time>
            <Position>
              <LatitudeDegrees>43.32812421955168247222900390625</LatitudeDegrees>
              <LongitudeDegrees>-1.9474180229008197784423828125</LongitudeDegrees>
            </Position>
            <AltitudeMeters>149.1999969482421875</AltitudeMeters>
            <DistanceMeters>NAN</DistanceMeters>
          </Trackpoint>
          <Trackpoint>
            <Time>2022-07-09T10:24:23.000Z</Time>
            <Position>
              <LatitudeDegrees>43.3280941285192966461181640625</LatitudeDegrees>
              <LongitudeDegrees>-1.9474190287292003631591796875</LongitudeDegrees>
            </Position>
            <AltitudeMeters>149.8000030517578125</AltitudeMeters>
            <DistanceMeters>NAN</DistanceMeters>
          </Trackpoint>
          <Trackpoint>
            <Time>2022-07-09T10:24:25.000Z</Time>
            <Position>
              <LatitudeDegrees>43.32807426340878009796142578125</LatitudeDegrees>
              <LongitudeDegrees>-1.9474218785762786865234375</LongitudeDegrees>
            </Position>
            <AltitudeMeters>150.1999969482421875</AltitudeMeters>
            <DistanceMeters>NAN</DistanceMeters>
          </Trackpoint>
          <Trackpoint>
            <Time>2022-07-09T10:24:27.000Z</Time>
            <Position>
              <LatitudeDegrees>43.328050039708614349365234375</LatitudeDegrees>
              <LongitudeDegrees>-1.947429589927196502685546875</LongitudeDegrees>
            </Position>
            <AltitudeMeters>150.600006103515625</AltitudeMeters>
            <DistanceMeters>NAN</DistanceMeters>
          </Trackpoint>
          <Trackpoint>
            <Time>2022-07-09T10:24:30.000Z</Time>
            <Position>
              <LatitudeDegrees>43.3280062861740589141845703125</LatitudeDegrees>
              <LongitudeDegrees>-1.9474334456026554107666015625</LongitudeDegrees>
            </Position>
            <AltitudeMeters>151.1999969482421875</AltitudeMeters>
            <DistanceMeters>NAN</DistanceMeters>
          </Trackpoint>
          <Trackpoint>
            <Time>2022-07-09T10:24:31.000Z</Time>
            <Position>
              <LatitudeDegrees>43.327999413013458251953125</LatitudeDegrees>
              <LongitudeDegrees>-1.94743805564939975738525390625</LongitudeDegrees>
            </Position>
            <AltitudeMeters>151.600006103515625</AltitudeMeters>
            <DistanceMeters>NAN</DistanceMeters>
          </Trackpoint>
          <Trackpoint>
            <Time>2022-07-09T10:24:34.000Z</Time>
            <Position>
              <LatitudeDegrees>43.3279761113226413726806640625</LatitudeDegrees>
              <LongitudeDegrees>-1.947459094226360321044921875</LongitudeDegrees>
            </Position>
            <AltitudeMeters>152.399993896484375</AltitudeMeters>
            <DistanceMeters>NAN</DistanceMeters>
          </Trackpoint>
          <Trackpoint>
            <Time>2022-07-09T10:24:35.000Z</Time>
            <Position>
              <LatitudeDegrees>43.32797435112297534942626953125</LatitudeDegrees>
              <LongitudeDegrees>-1.94747275672852993011474609375</LongitudeDegrees>
            </Position>
            <AltitudeMeters>152.600006103515625</AltitudeMeters>
            <DistanceMeters>NAN</DistanceMeters>
          </Trackpoint>
          <Trackpoint>
            <Time>2022-07-09T10:24:37.000Z</Time>
            <Position>
              <LatitudeDegrees>43.3279645442962646484375</LatitudeDegrees>
              <LongitudeDegrees>-1.9474931247532367706298828125</LongitudeDegrees>
            </Position>
            <AltitudeMeters>153</AltitudeMeters>
            <DistanceMeters>NAN</DistanceMeters>
          </Trackpoint>
          <Trackpoint>
            <Time>2022-07-09T10:24:39.000Z</Time>
            <Position>
              <LatitudeDegrees>43.32794467918574810028076171875</LatitudeDegrees>
              <LongitudeDegrees>-1.947497986257076263427734375</LongitudeDegrees>
            </Position>
            <AltitudeMeters>153.1999969482421875</AltitudeMeters>
            <DistanceMeters>NAN</DistanceMeters>
          </Trackpoint>
          <Trackpoint>
            <Time>2022-07-09T10:24:41.000Z</Time>
            <Position>
              <LatitudeDegrees>43.32792389206588268280029296875</LatitudeDegrees>
              <LongitudeDegrees>-1.9475028477609157562255859375</LongitudeDegrees>
            </Position>
            <AltitudeMeters>153.600006103515625</AltitudeMeters>
            <DistanceMeters>NAN</DistanceMeters>
          </Trackpoint>
          <Trackpoint>
            <Time>2022-07-09T10:24:42.000Z</Time>
            <Position>
              <LatitudeDegrees>43.32791383378207683563232421875</LatitudeDegrees>
              <LongitudeDegrees>-1.94750175811350345611572265625</LongitudeDegrees>
            </Position>
            <AltitudeMeters>153.600006103515625</AltitudeMeters>
            <DistanceMeters>NAN</DistanceMeters>
          </Trackpoint>
          <Trackpoint>
            <Time>2022-07-09T10:24:46.000Z</Time>
            <Position>
              <LatitudeDegrees>43.327856920659542083740234375</LatitudeDegrees>
              <LongitudeDegrees>-1.94754500873386859893798828125</LongitudeDegrees>
            </Position>
            <AltitudeMeters>154.600006103515625</AltitudeMeters>
            <DistanceMeters>NAN</DistanceMeters>
          </Trackpoint>
          <Trackpoint>
            <Time>2022-07-09T10:24:47.000Z</Time>
            <Position>
              <LatitudeDegrees>43.32784443162381649017333984375</LatitudeDegrees>
              <LongitudeDegrees>-1.947554983198642730712890625</LongitudeDegrees>
            </Position>
            <AltitudeMeters>155</AltitudeMeters>
            <DistanceMeters>NAN</DistanceMeters>
          </Trackpoint>
          <Trackpoint>
            <Time>2022-07-09T10:24:48.000Z</Time>
            <Position>
              <LatitudeDegrees>43.32783646881580352783203125</LatitudeDegrees>
              <LongitudeDegrees>-1.94756110198795795440673828125</LongitudeDegrees>
            </Position>
            <AltitudeMeters>155.1999969482421875</AltitudeMeters>
            <DistanceMeters>NAN</DistanceMeters>
          </Trackpoint>
          <Trackpoint>
            <Time>2022-07-09T10:24:52.000Z</Time>
            <Position>
              <LatitudeDegrees>43.3277903683483600616455078125</LatitudeDegrees>
              <LongitudeDegrees>-1.94758574478328227996826171875</LongitudeDegrees>
            </Position>
            <AltitudeMeters>155.8000030517578125</AltitudeMeters>
            <DistanceMeters>NAN</DistanceMeters>
          </Trackpoint>
          <Trackpoint>
            <Time>2022-07-09T10:24:54.000Z</Time>
            <Position>
              <LatitudeDegrees>43.32776145078241825103759765625</LatitudeDegrees>
              <LongitudeDegrees>-1.94759823381900787353515625</LongitudeDegrees>
            </Position>
            <AltitudeMeters>156.1999969482421875</AltitudeMeters>
            <DistanceMeters>NAN</DistanceMeters>
          </Trackpoint>
          <Trackpoint>
            <Time>2022-07-09T10:24:56.000Z</Time>
            <Position>
              <LatitudeDegrees>43.3277370594441890716552734375</LatitudeDegrees>
              <LongitudeDegrees>-1.94762212224304676055908203125</LongitudeDegrees>
            </Position>
            <AltitudeMeters>156.600006103515625</AltitudeMeters>
            <DistanceMeters>NAN</DistanceMeters>
          </Trackpoint>
          <Trackpoint>
            <Time>2022-07-09T10:24:57.000Z</Time>
            <Position>
              <LatitudeDegrees>43.327725492417812347412109375</LatitudeDegrees>
              <LongitudeDegrees>-1.947626061737537384033203125</LongitudeDegrees>
            </Position>
            <AltitudeMeters>157</AltitudeMeters>
            <DistanceMeters>NAN</DistanceMeters>
          </Trackpoint>
          <Trackpoint>
            <Time>2022-07-09T10:24:58.000Z</Time>
            <Position>
              <LatitudeDegrees>43.32771853543817996978759765625</LatitudeDegrees>
              <LongitudeDegrees>-1.94763603620231151580810546875</LongitudeDegrees>
            </Position>
            <AltitudeMeters>157.1999969482421875</AltitudeMeters>
            <DistanceMeters>NAN</DistanceMeters>
          </Trackpoint>
          <Trackpoint>
            <Time>2022-07-09T10:25:00.000Z</Time>
            <Position>
              <LatitudeDegrees>43.327711410820484161376953125</LatitudeDegrees>
              <LongitudeDegrees>-1.9476654566824436187744140625</LongitudeDegrees>
            </Position>
            <AltitudeMeters>157.600006103515625</AltitudeMeters>
            <DistanceMeters>NAN</DistanceMeters>
          </Trackpoint>
          <Trackpoint>
            <Time>2022-07-09T10:25:02.000Z</Time>
            <Position>
              <LatitudeDegrees>43.32770898006856441497802734375</LatitudeDegrees>
              <LongitudeDegrees>-1.94770644418895244598388671875</LongitudeDegrees>
            </Position>
            <AltitudeMeters>158</AltitudeMeters>
            <DistanceMeters>NAN</DistanceMeters>
          </Trackpoint>
          <Trackpoint>
            <Time>2022-07-09T10:25:05.000Z</Time>
            <Position>
              <LatitudeDegrees>43.327699005603790283203125</LatitudeDegrees>
              <LongitudeDegrees>-1.94774734787642955780029296875</LongitudeDegrees>
            </Position>
            <AltitudeMeters>158.399993896484375</AltitudeMeters>
            <DistanceMeters>NAN</DistanceMeters>
          </Trackpoint>
          <Trackpoint>
            <Time>2022-07-09T10:25:07.000Z</Time>
            <Position>
              <LatitudeDegrees>43.32769389264285564422607421875</LatitudeDegrees>
              <LongitudeDegrees>-1.94776578806340694427490234375</LongitudeDegrees>
            </Position>
            <AltitudeMeters>158.8000030517578125</AltitudeMeters>
            <DistanceMeters>NAN</DistanceMeters>
          </Trackpoint>
          <Trackpoint>
            <Time>2022-07-09T10:25:09.000Z</Time>
            <Position>
              <LatitudeDegrees>43.32769825123250484466552734375</LatitudeDegrees>
              <LongitudeDegrees>-1.9478015787899494171142578125</LongitudeDegrees>
            </Position>
            <AltitudeMeters>159.1999969482421875</AltitudeMeters>
            <DistanceMeters>NAN</DistanceMeters>
          </Trackpoint>
          <Trackpoint>
            <Time>2022-07-09T10:25:14.000Z</Time>
            <Position>
              <LatitudeDegrees>43.32769355736672878265380859375</LatitudeDegrees>
              <LongitudeDegrees>-1.94785170257091522216796875</LongitudeDegrees>
            </Position>
            <AltitudeMeters>160.1999969482421875</AltitudeMeters>
            <DistanceMeters>NAN</DistanceMeters>
          </Trackpoint>
          <Trackpoint>
            <Time>2022-07-09T10:25:15.000Z</Time>
            <Position>
              <LatitudeDegrees>43.32769288681447505950927734375</LatitudeDegrees>
              <LongitudeDegrees>-1.94786855019629001617431640625</LongitudeDegrees>
            </Position>
            <AltitudeMeters>160.399993896484375</AltitudeMeters>
            <DistanceMeters>NAN</DistanceMeters>
          </Trackpoint>
          <Trackpoint>
            <Time>2022-07-09T10:25:19.000Z</Time>
            <Position>
              <LatitudeDegrees>43.32766992039978504180908203125</LatitudeDegrees>
              <LongitudeDegrees>-1.9479192607104778289794921875</LongitudeDegrees>
            </Position>
            <AltitudeMeters>161.399993896484375</AltitudeMeters>
            <DistanceMeters>NAN</DistanceMeters>
          </Trackpoint>
          <Trackpoint>
            <Time>2022-07-09T10:25:20.000Z</Time>
            <Position>
              <LatitudeDegrees>43.32766170613467693328857421875</LatitudeDegrees>
              <LongitudeDegrees>-1.94794884882867336273193359375</LongitudeDegrees>
            </Position>
            <AltitudeMeters>161.8000030517578125</AltitudeMeters>
            <DistanceMeters>NAN</DistanceMeters>
          </Trackpoint>
          <Trackpoint>
            <Time>2022-07-09T10:25:21.000Z</Time>
            <Position>
              <LatitudeDegrees>43.32765877246856689453125</LatitudeDegrees>
              <LongitudeDegrees>-1.947976760566234588623046875</LongitudeDegrees>
            </Position>
            <AltitudeMeters>162.1999969482421875</AltitudeMeters>
            <DistanceMeters>NAN</DistanceMeters>
          </Trackpoint>
          <Trackpoint>
            <Time>2022-07-09T10:25:24.000Z</Time>
            <Position>
              <LatitudeDegrees>43.32768467254936695098876953125</LatitudeDegrees>
              <LongitudeDegrees>-1.94804037921130657196044921875</LongitudeDegrees>
            </Position>
            <AltitudeMeters>162.8000030517578125</AltitudeMeters>
            <DistanceMeters>NAN</DistanceMeters>
          </Trackpoint>
          <Trackpoint>
            <Time>2022-07-09T10:25:27.000Z</Time>
            <Position>
              <LatitudeDegrees>43.3276931382715702056884765625</LatitudeDegrees>
              <LongitudeDegrees>-1.94807021878659725189208984375</LongitudeDegrees>
            </Position>
            <AltitudeMeters>163.399993896484375</AltitudeMeters>
            <DistanceMeters>NAN</DistanceMeters>
          </Trackpoint>
          <Trackpoint>
            <Time>2022-07-09T10:25:29.000Z</Time>
            <Position>
              <LatitudeDegrees>43.3276954852044582366943359375</LatitudeDegrees>
              <LongitudeDegrees>-1.94809955544769763946533203125</LongitudeDegrees>
            </Position>
            <AltitudeMeters>163.600006103515625</AltitudeMeters>
            <DistanceMeters>NAN</DistanceMeters>
          </Trackpoint>
          <Trackpoint>
            <Time>2022-07-09T10:25:30.000Z</Time>
            <Position>
              <LatitudeDegrees>43.327697329223155975341796875</LatitudeDegrees>
              <LongitudeDegrees>-1.94811330176889896392822265625</LongitudeDegrees>
            </Position>
            <AltitudeMeters>163.8000030517578125</AltitudeMeters>
            <DistanceMeters>NAN</DistanceMeters>
          </Trackpoint>
          <Trackpoint>
            <Time>2022-07-09T10:25:32.000Z</Time>
            <Position>
              <LatitudeDegrees>43.3277045376598834991455078125</LatitudeDegrees>
              <LongitudeDegrees>-1.948168538510799407958984375</LongitudeDegrees>
            </Position>
            <AltitudeMeters>164.399993896484375</AltitudeMeters>
            <DistanceMeters>NAN</DistanceMeters>
          </Trackpoint>
          <Trackpoint>
            <Time>2022-07-09T10:25:34.000Z</Time>
            <Position>
              <LatitudeDegrees>43.3277058787643909454345703125</LatitudeDegrees>
              <LongitudeDegrees>-1.94823249243199825286865234375</LongitudeDegrees>
            </Position>
            <AltitudeMeters>165</AltitudeMeters>
            <DistanceMeters>NAN</DistanceMeters>
          </Trackpoint>
          <Trackpoint>
            <Time>2022-07-09T10:25:36.000Z</Time>
            <Position>
              <LatitudeDegrees>43.32768182270228862762451171875</LatitudeDegrees>
              <LongitudeDegrees>-1.94826199673116207122802734375</LongitudeDegrees>
            </Position>
            <AltitudeMeters>165.1999969482421875</AltitudeMeters>
            <DistanceMeters>NAN</DistanceMeters>
          </Trackpoint>
          <Trackpoint>
            <Time>2022-07-09T10:25:38.000Z</Time>
            <Position>
              <LatitudeDegrees>43.327683247625827789306640625</LatitudeDegrees>
              <LongitudeDegrees>-1.94827239029109477996826171875</LongitudeDegrees>
            </Position>
            <AltitudeMeters>165.600006103515625</AltitudeMeters>
            <DistanceMeters>NAN</DistanceMeters>
          </Trackpoint>
          <Trackpoint>
            <Time>2022-07-09T10:25:40.000Z</Time>
            <Position>
              <LatitudeDegrees>43.32770638167858123779296875</LatitudeDegrees>
              <LongitudeDegrees>-1.948299296200275421142578125</LongitudeDegrees>
            </Position>
            <AltitudeMeters>166</AltitudeMeters>
            <DistanceMeters>NAN</DistanceMeters>
          </Trackpoint>
          <Trackpoint>
            <Time>2022-07-09T10:25:43.000Z</Time>
            <Position>
              <LatitudeDegrees>43.3277159370481967926025390625</LatitudeDegrees>
              <LongitudeDegrees>-1.94835185073316097259521484375</LongitudeDegrees>
            </Position>
            <AltitudeMeters>166.600006103515625</AltitudeMeters>
            <DistanceMeters>NAN</DistanceMeters>
          </Trackpoint>
          <Trackpoint>
            <Time>2022-07-09T10:25:44.000Z</Time>
            <Position>
              <LatitudeDegrees>43.32772155292332172393798828125</LatitudeDegrees>
              <LongitudeDegrees>-1.94836660288274288177490234375</LongitudeDegrees>
            </Position>
            <AltitudeMeters>166.8000030517578125</AltitudeMeters>
            <DistanceMeters>NAN</DistanceMeters>
          </Trackpoint>
          <Trackpoint>
            <Time>2022-07-09T10:25:46.000Z</Time>
            <Position>
              <LatitudeDegrees>43.32772775553166866302490234375</LatitudeDegrees>
              <LongitudeDegrees>-1.94839023984968662261962890625</LongitudeDegrees>
            </Position>
            <AltitudeMeters>167.1999969482421875</AltitudeMeters>
            <DistanceMeters>NAN</DistanceMeters>
          </Trackpoint>
          <Trackpoint>
            <Time>2022-07-09T10:25:48.000Z</Time>
            <Position>
              <LatitudeDegrees>43.32772775553166866302490234375</LatitudeDegrees>
              <LongitudeDegrees>-1.94839023984968662261962890625</LongitudeDegrees>
            </Position>
            <AltitudeMeters>167.399993896484375</AltitudeMeters>
            <DistanceMeters>NAN</DistanceMeters>
          </Trackpoint>
          <Trackpoint>
            <Time>2022-07-09T10:26:36.000Z</Time>
            <Position>
              <LatitudeDegrees>43.3277451060712337493896484375</LatitudeDegrees>
              <LongitudeDegrees>-1.94841823540627956390380859375</LongitudeDegrees>
            </Position>
            <AltitudeMeters>167.399993896484375</AltitudeMeters>
            <DistanceMeters>NAN</DistanceMeters>
          </Trackpoint>
          <Trackpoint>
            <Time>2022-07-09T10:26:37.000Z</Time>
            <Position>
              <LatitudeDegrees>43.32775340415537357330322265625</LatitudeDegrees>
              <LongitudeDegrees>-1.94843642413616180419921875</LongitudeDegrees>
            </Position>
            <AltitudeMeters>167.600006103515625</AltitudeMeters>
            <DistanceMeters>NAN</DistanceMeters>
          </Trackpoint>
          <Trackpoint>
            <Time>2022-07-09T10:26:42.000Z</Time>
            <Position>
              <LatitudeDegrees>43.3277816511690616607666015625</LatitudeDegrees>
              <LongitudeDegrees>-1.9485194049775600433349609375</LongitudeDegrees>
            </Position>
            <AltitudeMeters>168.1999969482421875</AltitudeMeters>
            <DistanceMeters>NAN</DistanceMeters>
          </Trackpoint>
          <Trackpoint>
            <Time>2022-07-09T10:26:44.000Z</Time>
            <Position>
              <LatitudeDegrees>43.327792547643184661865234375</LatitudeDegrees>
              <LongitudeDegrees>-1.9485529325902462005615234375</LongitudeDegrees>
            </Position>
            <AltitudeMeters>168.600006103515625</AltitudeMeters>
            <DistanceMeters>NAN</DistanceMeters>
          </Trackpoint>
          <Trackpoint>
            <Time>2022-07-09T10:26:49.000Z</Time>
            <Position>
              <LatitudeDegrees>43.3278064616024494171142578125</LatitudeDegrees>
              <LongitudeDegrees>-1.94865041412413120269775390625</LongitudeDegrees>
            </Position>
            <AltitudeMeters>169.399993896484375</AltitudeMeters>
            <DistanceMeters>NAN</DistanceMeters>
          </Trackpoint>
          <Trackpoint>
            <Time>2022-07-09T10:26:51.000Z</Time>
            <Position>
              <LatitudeDegrees>43.32781375385820865631103515625</LatitudeDegrees>
              <LongitudeDegrees>-1.94868318736553192138671875</LongitudeDegrees>
            </Position>
            <AltitudeMeters>169.600006103515625</AltitudeMeters>
            <DistanceMeters>NAN</DistanceMeters>
          </Trackpoint>
          <Trackpoint>
            <Time>2022-07-09T10:26:54.000Z</Time>
            <Position>
              <LatitudeDegrees>43.3278118260204792022705078125</LatitudeDegrees>
              <LongitudeDegrees>-1.94871545769274234771728515625</LongitudeDegrees>
            </Position>
            <AltitudeMeters>170.1999969482421875</AltitudeMeters>
            <DistanceMeters>NAN</DistanceMeters>
          </Trackpoint>
          <Trackpoint>
            <Time>2022-07-09T10:26:56.000Z</Time>
            <Position>
              <LatitudeDegrees>43.32781098783016204833984375</LatitudeDegrees>
              <LongitudeDegrees>-1.94874747656285762786865234375</LongitudeDegrees>
            </Position>
            <AltitudeMeters>170.399993896484375</AltitudeMeters>
            <DistanceMeters>NAN</DistanceMeters>
          </Trackpoint>
          <Trackpoint>
            <Time>2022-07-09T10:26:58.000Z</Time>
            <Position>
              <LatitudeDegrees>43.32780503667891025543212890625</LatitudeDegrees>
              <LongitudeDegrees>-1.948781423270702362060546875</LongitudeDegrees>
            </Position>
            <AltitudeMeters>170.8000030517578125</AltitudeMeters>
            <DistanceMeters>NAN</DistanceMeters>
          </Trackpoint>
          <Trackpoint>
            <Time>2022-07-09T10:26:59.000Z</Time>
            <Position>
              <LatitudeDegrees>43.327797241508960723876953125</LatitudeDegrees>
              <LongitudeDegrees>-1.94879542104899883270263671875</LongitudeDegrees>
            </Position>
            <AltitudeMeters>170.8000030517578125</AltitudeMeters>
            <DistanceMeters>NAN</DistanceMeters>
          </Trackpoint>
          <Trackpoint>
            <Time>2022-07-09T10:27:02.000Z</Time>
            <Position>
              <LatitudeDegrees>43.32778207026422023773193359375</LatitudeDegrees>
              <LongitudeDegrees>-1.94884722121059894561767578125</LongitudeDegrees>
            </Position>
            <AltitudeMeters>171.600006103515625</AltitudeMeters>
            <DistanceMeters>NAN</DistanceMeters>
          </Trackpoint>
          <Trackpoint>
            <Time>2022-07-09T10:27:06.000Z</Time>
            <Position>
              <LatitudeDegrees>43.327775783836841583251953125</LatitudeDegrees>
              <LongitudeDegrees>-1.94890790618956089019775390625</LongitudeDegrees>
            </Position>
            <AltitudeMeters>172.399993896484375</AltitudeMeters>
            <DistanceMeters>NAN</DistanceMeters>
          </Trackpoint>
          <Trackpoint>
            <Time>2022-07-09T10:27:07.000Z</Time>
            <Position>
              <LatitudeDegrees>43.327774442732334136962890625</LatitudeDegrees>
              <LongitudeDegrees>-1.9489244185388088226318359375</LongitudeDegrees>
            </Position>
            <AltitudeMeters>172.600006103515625</AltitudeMeters>
            <DistanceMeters>NAN</DistanceMeters>
          </Trackpoint>
          <Trackpoint>
            <Time>2022-07-09T10:27:08.000Z</Time>
            <Position>
              <LatitudeDegrees>43.32777075469493865966796875</LatitudeDegrees>
              <LongitudeDegrees>-1.9489455409348011016845703125</LongitudeDegrees>
            </Position>
            <AltitudeMeters>172.600006103515625</AltitudeMeters>
            <DistanceMeters>NAN</DistanceMeters>
          </Trackpoint>
          <Trackpoint>
            <Time>2022-07-09T10:27:10.000Z</Time>
            <Position>
              <LatitudeDegrees>43.32776564173400402069091796875</LatitudeDegrees>
              <LongitudeDegrees>-1.94898468442261219024658203125</LongitudeDegrees>
            </Position>
            <AltitudeMeters>173</AltitudeMeters>
            <DistanceMeters>NAN</DistanceMeters>
          </Trackpoint>
          <Trackpoint>
            <Time>2022-07-09T10:27:13.000Z</Time>
            <Position>
              <LatitudeDegrees>43.32776966504752635955810546875</LatitudeDegrees>
              <LongitudeDegrees>-1.94904989562928676605224609375</LongitudeDegrees>
            </Position>
            <AltitudeMeters>173.1999969482421875</AltitudeMeters>
            <DistanceMeters>NAN</DistanceMeters>
          </Trackpoint>
          <Trackpoint>
            <Time>2022-07-09T10:27:14.000Z</Time>
            <Position>
              <LatitudeDegrees>43.32776539027690887451171875</LatitudeDegrees>
              <LongitudeDegrees>-1.94906942546367645263671875</LongitudeDegrees>
            </Position>
            <AltitudeMeters>173.1999969482421875</AltitudeMeters>
            <DistanceMeters>NAN</DistanceMeters>
          </Trackpoint>
          <Trackpoint>
            <Time>2022-07-09T10:27:21.000Z</Time>
            <Position>
              <LatitudeDegrees>43.327747285366058349609375</LatitudeDegrees>
              <LongitudeDegrees>-1.94922222755849361419677734375</LongitudeDegrees>
            </Position>
            <AltitudeMeters>173.600006103515625</AltitudeMeters>
            <DistanceMeters>NAN</DistanceMeters>
          </Trackpoint>
          <Trackpoint>
            <Time>2022-07-09T10:27:25.000Z</Time>
            <Position>
              <LatitudeDegrees>43.3277323655784130096435546875</LatitudeDegrees>
              <LongitudeDegrees>-1.9492630474269390106201171875</LongitudeDegrees>
            </Position>
            <AltitudeMeters>173.8000030517578125</AltitudeMeters>
            <DistanceMeters>NAN</DistanceMeters>
          </Trackpoint>
          <Trackpoint>
            <Time>2022-07-09T10:27:27.000Z</Time>
            <Position>
              <LatitudeDegrees>43.3277323655784130096435546875</LatitudeDegrees>
              <LongitudeDegrees>-1.9492630474269390106201171875</LongitudeDegrees>
            </Position>
            <AltitudeMeters>173.8000030517578125</AltitudeMeters>
            <DistanceMeters>NAN</DistanceMeters>
          </Trackpoint>
          <Trackpoint>
            <Time>2022-07-09T10:27:28.000Z</Time>
            <Position>
              <LatitudeDegrees>43.32773429341614246368408203125</LatitudeDegrees>
              <LongitudeDegrees>-1.94925877265632152557373046875</LongitudeDegrees>
            </Position>
            <AltitudeMeters>173.8000030517578125</AltitudeMeters>
            <DistanceMeters>NAN</DistanceMeters>
          </Trackpoint>
          <Trackpoint>
            <Time>2022-07-09T10:33:02.000Z</Time>
            <Position>
              <LatitudeDegrees>43.32773831672966480255126953125</LatitudeDegrees>
              <LongitudeDegrees>-1.94945490919053554534912109375</LongitudeDegrees>
            </Position>
            <AltitudeMeters>172.399993896484375</AltitudeMeters>
            <DistanceMeters>NAN</DistanceMeters>
          </Trackpoint>
          <Trackpoint>
            <Time>2022-07-09T10:33:03.000Z</Time>
            <Position>
              <LatitudeDegrees>43.3277357183396816253662109375</LatitudeDegrees>
              <LongitudeDegrees>-1.9494746066629886627197265625</LongitudeDegrees>
            </Position>
            <AltitudeMeters>172.399993896484375</AltitudeMeters>
            <DistanceMeters>NAN</DistanceMeters>
          </Trackpoint>
          <Trackpoint>
            <Time>2022-07-09T10:33:08.000Z</Time>
            <Position>
              <LatitudeDegrees>43.3277062140405178070068359375</LatitudeDegrees>
              <LongitudeDegrees>-1.94955683313310146331787109375</LongitudeDegrees>
            </Position>
            <AltitudeMeters>173.1999969482421875</AltitudeMeters>
            <DistanceMeters>NAN</DistanceMeters>
          </Trackpoint>
          <Trackpoint>
            <Time>2022-07-09T10:33:10.000Z</Time>
            <Position>
              <LatitudeDegrees>43.327700011432170867919921875</LatitudeDegrees>
              <LongitudeDegrees>-1.949598826467990875244140625</LongitudeDegrees>
            </Position>
            <AltitudeMeters>173.600006103515625</AltitudeMeters>
            <DistanceMeters>NAN</DistanceMeters>
          </Trackpoint>
          <Trackpoint>
            <Time>2022-07-09T10:33:12.000Z</Time>
            <Position>
              <LatitudeDegrees>43.32769506610929965972900390625</LatitudeDegrees>
              <LongitudeDegrees>-1.9495993293821811676025390625</LongitudeDegrees>
            </Position>
            <AltitudeMeters>173.8000030517578125</AltitudeMeters>
            <DistanceMeters>NAN</DistanceMeters>
          </Trackpoint>
          <Trackpoint>
            <Time>2022-07-09T10:33:13.000Z</Time>
            <Position>
              <LatitudeDegrees>43.32769506610929965972900390625</LatitudeDegrees>
              <LongitudeDegrees>-1.9495993293821811676025390625</LongitudeDegrees>
            </Position>
            <AltitudeMeters>173.600006103515625</AltitudeMeters>
            <DistanceMeters>NAN</DistanceMeters>
          </Trackpoint>
          <Trackpoint>
            <Time>2022-07-09T10:33:58.000Z</Time>
            <Position>
              <LatitudeDegrees>43.32769691012799739837646484375</LatitudeDegrees>
              <LongitudeDegrees>-1.94975070655345916748046875</LongitudeDegrees>
            </Position>
            <AltitudeMeters>175.399993896484375</AltitudeMeters>
            <DistanceMeters>NAN</DistanceMeters>
          </Trackpoint>
          <Trackpoint>
            <Time>2022-07-09T10:33:59.000Z</Time>
            <Position>
              <LatitudeDegrees>43.32769724540412425994873046875</LatitudeDegrees>
              <LongitudeDegrees>-1.9498092122375965118408203125</LongitudeDegrees>
            </Position>
            <AltitudeMeters>175.399993896484375</AltitudeMeters>
            <DistanceMeters>NAN</DistanceMeters>
          </Trackpoint>
          <Trackpoint>
            <Time>2022-07-09T10:34:00.000Z</Time>
            <Position>
              <LatitudeDegrees>43.3276931382715702056884765625</LatitudeDegrees>
              <LongitudeDegrees>-1.949873082339763641357421875</LongitudeDegrees>
            </Position>
            <AltitudeMeters>175.399993896484375</AltitudeMeters>
            <DistanceMeters>NAN</DistanceMeters>
          </Trackpoint>
          <Trackpoint>
            <Time>2022-07-09T10:34:01.000Z</Time>
            <Position>
              <LatitudeDegrees>43.3276934735476970672607421875</LatitudeDegrees>
              <LongitudeDegrees>-1.94992379285395145416259765625</LongitudeDegrees>
            </Position>
            <AltitudeMeters>175</AltitudeMeters>
            <DistanceMeters>NAN</DistanceMeters>
          </Trackpoint>
          <Trackpoint>
            <Time>2022-07-09T10:34:04.000Z</Time>
            <Position>
              <LatitudeDegrees>43.32770210690796375274658203125</LatitudeDegrees>
              <LongitudeDegrees>-1.95013836957514286041259765625</LongitudeDegrees>
            </Position>
            <AltitudeMeters>174.399993896484375</AltitudeMeters>
            <DistanceMeters>NAN</DistanceMeters>
          </Trackpoint>
          <Trackpoint>
            <Time>2022-07-09T10:34:09.000Z</Time>
            <Position>
              <LatitudeDegrees>43.32771417684853076934814453125</LatitudeDegrees>
              <LongitudeDegrees>-1.9503401219844818115234375</LongitudeDegrees>
            </Position>
            <AltitudeMeters>173.8000030517578125</AltitudeMeters>
            <DistanceMeters>NAN</DistanceMeters>
          </Trackpoint>
          <Trackpoint>
            <Time>2022-07-09T10:34:16.000Z</Time>
            <Position>
              <LatitudeDegrees>43.32774217240512371063232421875</LatitudeDegrees>
              <LongitudeDegrees>-1.9505806826055049896240234375</LongitudeDegrees>
            </Position>
            <AltitudeMeters>174.600006103515625</AltitudeMeters>
            <DistanceMeters>NAN</DistanceMeters>
          </Trackpoint>
          <Trackpoint>
            <Time>2022-07-09T10:34:21.000Z</Time>
            <Position>
              <LatitudeDegrees>43.3277280069887638092041015625</LatitudeDegrees>
              <LongitudeDegrees>-1.95075762458145618438720703125</LongitudeDegrees>
            </Position>
            <AltitudeMeters>174.8000030517578125</AltitudeMeters>
            <DistanceMeters>NAN</DistanceMeters>
          </Trackpoint>
          <Trackpoint>
            <Time>2022-07-09T10:34:26.000Z</Time>
            <Position>
              <LatitudeDegrees>43.3277591876685619354248046875</LatitudeDegrees>
              <LongitudeDegrees>-1.9509387575089931488037109375</LongitudeDegrees>
            </Position>
            <AltitudeMeters>174.600006103515625</AltitudeMeters>
            <DistanceMeters>NAN</DistanceMeters>
          </Trackpoint>
          <Trackpoint>
            <Time>2022-07-09T10:34:28.000Z</Time>
            <Position>
              <LatitudeDegrees>43.327754996716976165771484375</LatitudeDegrees>
              <LongitudeDegrees>-1.95103774778544902801513671875</LongitudeDegrees>
            </Position>
            <AltitudeMeters>173.600006103515625</AltitudeMeters>
            <DistanceMeters>NAN</DistanceMeters>
          </Trackpoint>
          <Trackpoint>
            <Time>2022-07-09T10:34:29.000Z</Time>
            <Position>
              <LatitudeDegrees>43.32775256596505641937255859375</LatitudeDegrees>
              <LongitudeDegrees>-1.95111402310431003570556640625</LongitudeDegrees>
            </Position>
            <AltitudeMeters>173</AltitudeMeters>
            <DistanceMeters>NAN</DistanceMeters>
          </Trackpoint>
          <Trackpoint>
            <Time>2022-07-09T10:34:31.000Z</Time>
            <Position>
              <LatitudeDegrees>43.32776027731597423553466796875</LatitudeDegrees>
              <LongitudeDegrees>-1.95132625289261341094970703125</LongitudeDegrees>
            </Position>
            <AltitudeMeters>171.8000030517578125</AltitudeMeters>
            <DistanceMeters>NAN</DistanceMeters>
          </Trackpoint>
          <Trackpoint>
            <Time>2022-07-09T10:34:33.000Z</Time>
            <Position>
              <LatitudeDegrees>43.32776606082916259765625</LatitudeDegrees>
              <LongitudeDegrees>-1.951567232608795166015625</LongitudeDegrees>
            </Position>
            <AltitudeMeters>171.1999969482421875</AltitudeMeters>
            <DistanceMeters>NAN</DistanceMeters>
          </Trackpoint>
          <Trackpoint>
            <Time>2022-07-09T10:34:35.000Z</Time>
            <Position>
              <LatitudeDegrees>43.32779330201447010040283203125</LatitudeDegrees>
              <LongitudeDegrees>-1.9516964815557003021240234375</LongitudeDegrees>
            </Position>
            <AltitudeMeters>170.8000030517578125</AltitudeMeters>
            <DistanceMeters>NAN</DistanceMeters>
          </Trackpoint>
          <Trackpoint>
            <Time>2022-07-09T10:34:39.000Z</Time>
            <Position>
              <LatitudeDegrees>43.3277893625199794769287109375</LatitudeDegrees>
              <LongitudeDegrees>-1.951822377741336822509765625</LongitudeDegrees>
            </Position>
            <AltitudeMeters>171.1999969482421875</AltitudeMeters>
            <DistanceMeters>NAN</DistanceMeters>
          </Trackpoint>
          <Trackpoint>
            <Time>2022-07-09T10:34:45.000Z</Time>
            <Position>
              <LatitudeDegrees>43.3277508057653903961181640625</LatitudeDegrees>
              <LongitudeDegrees>-1.951912902295589447021484375</LongitudeDegrees>
            </Position>
            <AltitudeMeters>173</AltitudeMeters>
            <DistanceMeters>NAN</DistanceMeters>
          </Trackpoint>
          <Trackpoint>
            <Time>2022-07-09T10:34:52.000Z</Time>
            <Position>
              <LatitudeDegrees>43.3277531526982784271240234375</LatitudeDegrees>
              <LongitudeDegrees>-1.95204357616603374481201171875</LongitudeDegrees>
            </Position>
            <AltitudeMeters>173.8000030517578125</AltitudeMeters>
            <DistanceMeters>NAN</DistanceMeters>
          </Trackpoint>
          <Trackpoint>
            <Time>2022-07-09T10:34:54.000Z</Time>
            <Position>
              <LatitudeDegrees>43.32774661481380462646484375</LatitudeDegrees>
              <LongitudeDegrees>-1.952072493731975555419921875</LongitudeDegrees>
            </Position>
            <AltitudeMeters>174.399993896484375</AltitudeMeters>
            <DistanceMeters>NAN</DistanceMeters>
          </Trackpoint>
          <Trackpoint>
            <Time>2022-07-09T10:34:58.000Z</Time>
            <Position>
              <LatitudeDegrees>43.32774518989026546478271484375</LatitudeDegrees>
              <LongitudeDegrees>-1.9520904310047626495361328125</LongitudeDegrees>
            </Position>
            <AltitudeMeters>175.600006103515625</AltitudeMeters>
            <DistanceMeters>NAN</DistanceMeters>
          </Trackpoint>
          <Trackpoint>
            <Time>2022-07-09T10:34:59.000Z</Time>
            <Position>
              <LatitudeDegrees>43.32773932255804538726806640625</LatitudeDegrees>
              <LongitudeDegrees>-1.95210828445851802825927734375</LongitudeDegrees>
            </Position>
            <AltitudeMeters>175.8000030517578125</AltitudeMeters>
            <DistanceMeters>NAN</DistanceMeters>
          </Trackpoint>
          <Trackpoint>
            <Time>2022-07-09T10:35:02.000Z</Time>
            <Position>
              <LatitudeDegrees>43.327736221253871917724609375</LatitudeDegrees>
              <LongitudeDegrees>-1.95213912986218929290771484375</LongitudeDegrees>
            </Position>
            <AltitudeMeters>176.600006103515625</AltitudeMeters>
            <DistanceMeters>NAN</DistanceMeters>
          </Trackpoint>
          <Trackpoint>
            <Time>2022-07-09T10:35:03.000Z</Time>
            <Position>
              <LatitudeDegrees>43.32773848436772823333740234375</LatitudeDegrees>
              <LongitudeDegrees>-1.95214927196502685546875</LongitudeDegrees>
            </Position>
            <AltitudeMeters>176.8000030517578125</AltitudeMeters>
            <DistanceMeters>NAN</DistanceMeters>
          </Trackpoint>
          <Trackpoint>
            <Time>2022-07-09T10:35:06.000Z</Time>
            <Position>
              <LatitudeDegrees>43.32771887071430683135986328125</LatitudeDegrees>
              <LongitudeDegrees>-1.9522560574114322662353515625</LongitudeDegrees>
            </Position>
            <AltitudeMeters>177.600006103515625</AltitudeMeters>
            <DistanceMeters>NAN</DistanceMeters>
          </Trackpoint>
          <Trackpoint>
            <Time>2022-07-09T10:35:07.000Z</Time>
            <Position>
              <LatitudeDegrees>43.3277095668017864227294921875</LatitudeDegrees>
              <LongitudeDegrees>-1.952280364930629730224609375</LongitudeDegrees>
            </Position>
            <AltitudeMeters>178</AltitudeMeters>
            <DistanceMeters>NAN</DistanceMeters>
          </Trackpoint>
          <Trackpoint>
            <Time>2022-07-09T10:35:08.000Z</Time>
            <Position>
              <LatitudeDegrees>43.32770638167858123779296875</LatitudeDegrees>
              <LongitudeDegrees>-1.95229553617537021636962890625</LongitudeDegrees>
            </Position>
            <AltitudeMeters>178.399993896484375</AltitudeMeters>
            <DistanceMeters>NAN</DistanceMeters>
          </Trackpoint>
          <Trackpoint>
            <Time>2022-07-09T10:35:11.000Z</Time>
            <Position>
              <LatitudeDegrees>43.327704370021820068359375</LatitudeDegrees>
              <LongitudeDegrees>-1.95232160389423370361328125</LongitudeDegrees>
            </Position>
            <AltitudeMeters>179.399993896484375</AltitudeMeters>
            <DistanceMeters>NAN</DistanceMeters>
          </Trackpoint>
          <Trackpoint>
            <Time>2022-07-09T10:35:14.000Z</Time>
            <Position>
              <LatitudeDegrees>43.32769473083317279815673828125</LatitudeDegrees>
              <LongitudeDegrees>-1.95236007682979106903076171875</LongitudeDegrees>
            </Position>
            <AltitudeMeters>180</AltitudeMeters>
            <DistanceMeters>NAN</DistanceMeters>
          </Trackpoint>
          <Trackpoint>
            <Time>2022-07-09T10:35:16.000Z</Time>
            <Position>
              <LatitudeDegrees>43.32763530313968658447265625</LatitudeDegrees>
              <LongitudeDegrees>-1.95241623558104038238525390625</LongitudeDegrees>
            </Position>
            <AltitudeMeters>180.600006103515625</AltitudeMeters>
            <DistanceMeters>NAN</DistanceMeters>
          </Trackpoint>
          <Trackpoint>
            <Time>2022-07-09T10:35:18.000Z</Time>
            <Position>
              <LatitudeDegrees>43.32763086073100566864013671875</LatitudeDegrees>
              <LongitudeDegrees>-1.95248446427285671234130859375</LongitudeDegrees>
            </Position>
            <AltitudeMeters>181.1999969482421875</AltitudeMeters>
            <DistanceMeters>NAN</DistanceMeters>
          </Trackpoint>
          <Trackpoint>
            <Time>2022-07-09T10:35:21.000Z</Time>
            <Position>
              <LatitudeDegrees>43.32761879079043865203857421875</LatitudeDegrees>
              <LongitudeDegrees>-1.952582113444805145263671875</LongitudeDegrees>
            </Position>
            <AltitudeMeters>181.8000030517578125</AltitudeMeters>
            <DistanceMeters>NAN</DistanceMeters>
          </Trackpoint>
          <Trackpoint>
            <Time>2022-07-09T10:35:22.000Z</Time>
            <Position>
              <LatitudeDegrees>43.3276190422475337982177734375</LatitudeDegrees>
              <LongitudeDegrees>-1.95258622057735919952392578125</LongitudeDegrees>
            </Position>
            <AltitudeMeters>182</AltitudeMeters>
            <DistanceMeters>NAN</DistanceMeters>
          </Trackpoint>
          <Trackpoint>
            <Time>2022-07-09T10:35:23.000Z</Time>
            <Position>
              <LatitudeDegrees>43.32761778496205806732177734375</LatitudeDegrees>
              <LongitudeDegrees>-1.9525956921279430389404296875</LongitudeDegrees>
            </Position>
            <AltitudeMeters>182.1999969482421875</AltitudeMeters>
            <DistanceMeters>NAN</DistanceMeters>
          </Trackpoint>
          <Trackpoint>
            <Time>2022-07-09T10:35:25.000Z</Time>
            <Position>
              <LatitudeDegrees>43.32761929370462894439697265625</LatitudeDegrees>
              <LongitudeDegrees>-1.95266350172460079193115234375</LongitudeDegrees>
            </Position>
            <AltitudeMeters>182.8000030517578125</AltitudeMeters>
            <DistanceMeters>NAN</DistanceMeters>
          </Trackpoint>
          <Trackpoint>
            <Time>2022-07-09T10:35:28.000Z</Time>
            <Position>
              <LatitudeDegrees>43.327639997005462646484375</LatitudeDegrees>
              <LongitudeDegrees>-1.9527522660791873931884765625</LongitudeDegrees>
            </Position>
            <AltitudeMeters>183.399993896484375</AltitudeMeters>
            <DistanceMeters>NAN</DistanceMeters>
          </Trackpoint>
          <Trackpoint>
            <Time>2022-07-09T10:35:30.000Z</Time>
            <Position>
              <LatitudeDegrees>43.32765952683985233306884765625</LatitudeDegrees>
              <LongitudeDegrees>-1.952826865017414093017578125</LongitudeDegrees>
            </Position>
            <AltitudeMeters>183.8000030517578125</AltitudeMeters>
            <DistanceMeters>NAN</DistanceMeters>
          </Trackpoint>
          <Trackpoint>
            <Time>2022-07-09T10:35:34.000Z</Time>
            <Position>
              <LatitudeDegrees>43.32767285406589508056640625</LatitudeDegrees>
              <LongitudeDegrees>-1.952916719019412994384765625</LongitudeDegrees>
            </Position>
            <AltitudeMeters>185</AltitudeMeters>
            <DistanceMeters>NAN</DistanceMeters>
          </Trackpoint>
          <Trackpoint>
            <Time>2022-07-09T10:35:36.000Z</Time>
            <Position>
              <LatitudeDegrees>43.327696323394775390625</LatitudeDegrees>
              <LongitudeDegrees>-1.9529430381953716278076171875</LongitudeDegrees>
            </Position>
            <AltitudeMeters>185.1999969482421875</AltitudeMeters>
            <DistanceMeters>NAN</DistanceMeters>
          </Trackpoint>
          <Trackpoint>
            <Time>2022-07-09T10:35:43.000Z</Time>
            <Position>
              <LatitudeDegrees>43.32774267531931400299072265625</LatitudeDegrees>
              <LongitudeDegrees>-1.95309651084244251251220703125</LongitudeDegrees>
            </Position>
            <AltitudeMeters>185.1999969482421875</AltitudeMeters>
            <DistanceMeters>NAN</DistanceMeters>
          </Trackpoint>
          <Trackpoint>
            <Time>2022-07-09T10:35:52.000Z</Time>
            <Position>
              <LatitudeDegrees>43.327822051942348480224609375</LatitudeDegrees>
              <LongitudeDegrees>-1.95335031487047672271728515625</LongitudeDegrees>
            </Position>
            <AltitudeMeters>185.1999969482421875</AltitudeMeters>
            <DistanceMeters>NAN</DistanceMeters>
          </Trackpoint>
          <Trackpoint>
            <Time>2022-07-09T10:36:01.000Z</Time>
            <Position>
              <LatitudeDegrees>43.3279015123844146728515625</LatitudeDegrees>
              <LongitudeDegrees>-1.9535897858440876007080078125</LongitudeDegrees>
            </Position>
            <AltitudeMeters>185</AltitudeMeters>
            <DistanceMeters>NAN</DistanceMeters>
          </Trackpoint>
          <Trackpoint>
            <Time>2022-07-09T10:36:09.000Z</Time>
            <Position>
              <LatitudeDegrees>43.32798088900744915008544921875</LatitudeDegrees>
              <LongitudeDegrees>-1.9537919573485851287841796875</LongitudeDegrees>
            </Position>
            <AltitudeMeters>185.600006103515625</AltitudeMeters>
            <DistanceMeters>NAN</DistanceMeters>
          </Trackpoint>
          <Trackpoint>
            <Time>2022-07-09T10:36:15.000Z</Time>
            <Position>
              <LatitudeDegrees>43.3280270732939243316650390625</LatitudeDegrees>
              <LongitudeDegrees>-1.953934617340564727783203125</LongitudeDegrees>
            </Position>
            <AltitudeMeters>186</AltitudeMeters>
            <DistanceMeters>NAN</DistanceMeters>
          </Trackpoint>
          <Trackpoint>
            <Time>2022-07-09T10:36:18.000Z</Time>
            <Position>
              <LatitudeDegrees>43.32805498503148555755615234375</LatitudeDegrees>
              <LongitudeDegrees>-1.95400024764239788055419921875</LongitudeDegrees>
            </Position>
            <AltitudeMeters>186.1999969482421875</AltitudeMeters>
            <DistanceMeters>NAN</DistanceMeters>
          </Trackpoint>
          <Trackpoint>
            <Time>2022-07-09T10:36:22.000Z</Time>
            <Position>
              <LatitudeDegrees>43.3280839025974273681640625</LatitudeDegrees>
              <LongitudeDegrees>-1.95407518185675144195556640625</LongitudeDegrees>
            </Position>
            <AltitudeMeters>186.399993896484375</AltitudeMeters>
            <DistanceMeters>NAN</DistanceMeters>
          </Trackpoint>
          <Trackpoint>
            <Time>2022-07-09T10:36:25.000Z</Time>
            <Position>
              <LatitudeDegrees>43.3281015045940876007080078125</LatitudeDegrees>
              <LongitudeDegrees>-1.95411994121968746185302734375</LongitudeDegrees>
            </Position>
            <AltitudeMeters>186.600006103515625</AltitudeMeters>
            <DistanceMeters>NAN</DistanceMeters>
          </Trackpoint>
          <Trackpoint>
            <Time>2022-07-09T10:36:28.000Z</Time>
            <Position>
              <LatitudeDegrees>43.3281241357326507568359375</LatitudeDegrees>
              <LongitudeDegrees>-1.95416855625808238983154296875</LongitudeDegrees>
            </Position>
            <AltitudeMeters>187.1999969482421875</AltitudeMeters>
            <DistanceMeters>NAN</DistanceMeters>
          </Trackpoint>
          <Trackpoint>
            <Time>2022-07-09T10:36:31.000Z</Time>
            <Position>
              <LatitudeDegrees>43.32813964225351810455322265625</LatitudeDegrees>
              <LongitudeDegrees>-1.9542266428470611572265625</LongitudeDegrees>
            </Position>
            <AltitudeMeters>188.600006103515625</AltitudeMeters>
            <DistanceMeters>NAN</DistanceMeters>
          </Trackpoint>
          <Trackpoint>
            <Time>2022-07-09T10:36:34.000Z</Time>
            <Position>
              <LatitudeDegrees>43.3281590044498443603515625</LatitudeDegrees>
              <LongitudeDegrees>-1.95427232421934604644775390625</LongitudeDegrees>
            </Position>
            <AltitudeMeters>189.1999969482421875</AltitudeMeters>
            <DistanceMeters>NAN</DistanceMeters>
          </Trackpoint>
          <Trackpoint>
            <Time>2022-07-09T10:36:36.000Z</Time>
            <Position>
              <LatitudeDegrees>43.32817316986620426177978515625</LatitudeDegrees>
              <LongitudeDegrees>-1.95430937223136425018310546875</LongitudeDegrees>
            </Position>
            <AltitudeMeters>189.8000030517578125</AltitudeMeters>
            <DistanceMeters>NAN</DistanceMeters>
          </Trackpoint>
          <Trackpoint>
            <Time>2022-07-09T10:36:41.000Z</Time>
            <Position>
              <LatitudeDegrees>43.32818892784416675567626953125</LatitudeDegrees>
              <LongitudeDegrees>-1.954389251768589019775390625</LongitudeDegrees>
            </Position>
            <AltitudeMeters>191</AltitudeMeters>
            <DistanceMeters>NAN</DistanceMeters>
          </Trackpoint>
          <Trackpoint>
            <Time>2022-07-09T10:36:43.000Z</Time>
            <Position>
              <LatitudeDegrees>43.3281973935663700103759765625</LatitudeDegrees>
              <LongitudeDegrees>-1.95442236028611660003662109375</LongitudeDegrees>
            </Position>
            <AltitudeMeters>191.399993896484375</AltitudeMeters>
            <DistanceMeters>NAN</DistanceMeters>
          </Trackpoint>
          <Trackpoint>
            <Time>2022-07-09T10:36:46.000Z</Time>
            <Position>
              <LatitudeDegrees>43.32821868360042572021484375</LatitudeDegrees>
              <LongitudeDegrees>-1.95447600446641445159912109375</LongitudeDegrees>
            </Position>
            <AltitudeMeters>192</AltitudeMeters>
            <DistanceMeters>NAN</DistanceMeters>
          </Trackpoint>
          <Trackpoint>
            <Time>2022-07-09T10:36:47.000Z</Time>
            <Position>
              <LatitudeDegrees>43.32822061143815517425537109375</LatitudeDegrees>
              <LongitudeDegrees>-1.954490505158901214599609375</LongitudeDegrees>
            </Position>
            <AltitudeMeters>192.1999969482421875</AltitudeMeters>
            <DistanceMeters>NAN</DistanceMeters>
          </Trackpoint>
          <Trackpoint>
            <Time>2022-07-09T10:36:50.000Z</Time>
            <Position>
              <LatitudeDegrees>43.32822765223681926727294921875</LatitudeDegrees>
              <LongitudeDegrees>-1.95453769527375698089599609375</LongitudeDegrees>
            </Position>
            <AltitudeMeters>192.600006103515625</AltitudeMeters>
            <DistanceMeters>NAN</DistanceMeters>
          </Trackpoint>
          <Trackpoint>
            <Time>2022-07-09T10:36:57.000Z</Time>
            <Position>
              <LatitudeDegrees>43.32824693061411380767822265625</LatitudeDegrees>
              <LongitudeDegrees>-1.95464045740664005279541015625</LongitudeDegrees>
            </Position>
            <AltitudeMeters>193</AltitudeMeters>
            <DistanceMeters>NAN</DistanceMeters>
          </Trackpoint>
          <Trackpoint>
            <Time>2022-07-09T10:36:59.000Z</Time>
            <Position>
              <LatitudeDegrees>43.32825296558439731597900390625</LatitudeDegrees>
              <LongitudeDegrees>-1.95465839467942714691162109375</LongitudeDegrees>
            </Position>
            <AltitudeMeters>193</AltitudeMeters>
            <DistanceMeters>NAN</DistanceMeters>
          </Trackpoint>
          <Trackpoint>
            <Time>2022-07-09T10:37:00.000Z</Time>
            <Position>
              <LatitudeDegrees>43.32825128920376300811767578125</LatitudeDegrees>
              <LongitudeDegrees>-1.95467113517224788665771484375</LongitudeDegrees>
            </Position>
            <AltitudeMeters>193.1999969482421875</AltitudeMeters>
            <DistanceMeters>NAN</DistanceMeters>
          </Trackpoint>
          <Trackpoint>
            <Time>2022-07-09T10:37:06.000Z</Time>
            <Position>
              <LatitudeDegrees>43.3282473497092723846435546875</LatitudeDegrees>
              <LongitudeDegrees>-1.95470835082232952117919921875</LongitudeDegrees>
            </Position>
            <AltitudeMeters>193.600006103515625</AltitudeMeters>
            <DistanceMeters>NAN</DistanceMeters>
          </Trackpoint>
          <Trackpoint>
            <Time>2022-07-09T10:37:17.000Z</Time>
            <Position>
              <LatitudeDegrees>43.32828766666352748870849609375</LatitudeDegrees>
              <LongitudeDegrees>-1.9548782519996166229248046875</LongitudeDegrees>
            </Position>
            <AltitudeMeters>196.1999969482421875</AltitudeMeters>
            <DistanceMeters>NAN</DistanceMeters>
          </Trackpoint>
          <Trackpoint>
            <Time>2022-07-09T10:37:20.000Z</Time>
            <Position>
              <LatitudeDegrees>43.3283164165914058685302734375</LatitudeDegrees>
              <LongitudeDegrees>-1.9548940099775791168212890625</LongitudeDegrees>
            </Position>
            <AltitudeMeters>197.1999969482421875</AltitudeMeters>
            <DistanceMeters>NAN</DistanceMeters>
          </Trackpoint>
          <Trackpoint>
            <Time>2022-07-09T10:37:21.000Z</Time>
            <Position>
              <LatitudeDegrees>43.32832387648522853851318359375</LatitudeDegrees>
              <LongitudeDegrees>-1.9549067504703998565673828125</LongitudeDegrees>
            </Position>
            <AltitudeMeters>197.399993896484375</AltitudeMeters>
            <DistanceMeters>NAN</DistanceMeters>
          </Trackpoint>
          <Trackpoint>
            <Time>2022-07-09T10:37:26.000Z</Time>
            <Position>
              <LatitudeDegrees>43.32836620509624481201171875</LatitudeDegrees>
              <LongitudeDegrees>-1.95500976406037807464599609375</LongitudeDegrees>
            </Position>
            <AltitudeMeters>198.600006103515625</AltitudeMeters>
            <DistanceMeters>NAN</DistanceMeters>
          </Trackpoint>
          <Trackpoint>
            <Time>2022-07-09T10:37:27.000Z</Time>
            <Position>
              <LatitudeDegrees>43.3283757604658603668212890625</LatitudeDegrees>
              <LongitudeDegrees>-1.95502149872481822967529296875</LongitudeDegrees>
            </Position>
            <AltitudeMeters>199</AltitudeMeters>
            <DistanceMeters>NAN</DistanceMeters>
          </Trackpoint>
          <Trackpoint>
            <Time>2022-07-09T10:37:29.000Z</Time>
            <Position>
              <LatitudeDegrees>43.3283744193613529205322265625</LatitudeDegrees>
              <LongitudeDegrees>-1.9550308026373386383056640625</LongitudeDegrees>
            </Position>
            <AltitudeMeters>199.399993896484375</AltitudeMeters>
            <DistanceMeters>NAN</DistanceMeters>
          </Trackpoint>
          <Trackpoint>
            <Time>2022-07-09T10:37:30.000Z</Time>
            <Position>
              <LatitudeDegrees>43.32838774658739566802978515625</LatitudeDegrees>
              <LongitudeDegrees>-1.95503734052181243896484375</LongitudeDegrees>
            </Position>
            <AltitudeMeters>199.600006103515625</AltitudeMeters>
            <DistanceMeters>NAN</DistanceMeters>
          </Trackpoint>
          <Trackpoint>
            <Time>2022-07-09T10:37:31.000Z</Time>
            <Position>
              <LatitudeDegrees>43.3284035883843898773193359375</LatitudeDegrees>
              <LongitudeDegrees>-1.9550365023314952850341796875</LongitudeDegrees>
            </Position>
            <AltitudeMeters>199.8000030517578125</AltitudeMeters>
            <DistanceMeters>NAN</DistanceMeters>
          </Trackpoint>
          <Trackpoint>
            <Time>2022-07-09T10:37:32.000Z</Time>
            <Position>
              <LatitudeDegrees>43.328414149582386016845703125</LatitudeDegrees>
              <LongitudeDegrees>-1.9550468958914279937744140625</LongitudeDegrees>
            </Position>
            <AltitudeMeters>200.1999969482421875</AltitudeMeters>
            <DistanceMeters>NAN</DistanceMeters>
          </Trackpoint>
          <Trackpoint>
            <Time>2022-07-09T10:37:34.000Z</Time>
            <Position>
              <LatitudeDegrees>43.32842923700809478759765625</LatitudeDegrees>
              <LongitudeDegrees>-1.9550837762653827667236328125</LongitudeDegrees>
            </Position>
            <AltitudeMeters>200.8000030517578125</AltitudeMeters>
            <DistanceMeters>NAN</DistanceMeters>
          </Trackpoint>
          <Trackpoint>
            <Time>2022-07-09T10:37:36.000Z</Time>
            <Position>
              <LatitudeDegrees>43.3284431509673595428466796875</LatitudeDegrees>
              <LongitudeDegrees>-1.955118142068386077880859375</LongitudeDegrees>
            </Position>
            <AltitudeMeters>201.600006103515625</AltitudeMeters>
            <DistanceMeters>NAN</DistanceMeters>
          </Trackpoint>
          <Trackpoint>
            <Time>2022-07-09T10:37:38.000Z</Time>
            <Position>
              <LatitudeDegrees>43.3284558914601802825927734375</LatitudeDegrees>
              <LongitudeDegrees>-1.95512794889509677886962890625</LongitudeDegrees>
            </Position>
            <AltitudeMeters>201.8000030517578125</AltitudeMeters>
            <DistanceMeters>NAN</DistanceMeters>
          </Trackpoint>
          <Trackpoint>
            <Time>2022-07-09T10:37:39.000Z</Time>
            <Position>
              <LatitudeDegrees>43.328466452658176422119140625</LatitudeDegrees>
              <LongitudeDegrees>-1.95514035411179065704345703125</LongitudeDegrees>
            </Position>
            <AltitudeMeters>202</AltitudeMeters>
            <DistanceMeters>NAN</DistanceMeters>
          </Trackpoint>
          <Trackpoint>
            <Time>2022-07-09T10:37:43.000Z</Time>
            <Position>
              <LatitudeDegrees>43.32849754951894283294677734375</LatitudeDegrees>
              <LongitudeDegrees>-1.9552095048129558563232421875</LongitudeDegrees>
            </Position>
            <AltitudeMeters>202.8000030517578125</AltitudeMeters>
            <DistanceMeters>NAN</DistanceMeters>
          </Trackpoint>
          <Trackpoint>
            <Time>2022-07-09T10:37:44.000Z</Time>
            <Position>
              <LatitudeDegrees>43.32850760780274868011474609375</LatitudeDegrees>
              <LongitudeDegrees>-1.95522165857255458831787109375</LongitudeDegrees>
            </Position>
            <AltitudeMeters>203.1999969482421875</AltitudeMeters>
            <DistanceMeters>NAN</DistanceMeters>
          </Trackpoint>
          <Trackpoint>
            <Time>2022-07-09T10:37:45.000Z</Time>
            <Position>
              <LatitudeDegrees>43.3285184204578399658203125</LatitudeDegrees>
              <LongitudeDegrees>-1.9552356563508510589599609375</LongitudeDegrees>
            </Position>
            <AltitudeMeters>203.600006103515625</AltitudeMeters>
            <DistanceMeters>NAN</DistanceMeters>
          </Trackpoint>
          <Trackpoint>
            <Time>2022-07-09T10:37:49.000Z</Time>
            <Position>
              <LatitudeDegrees>43.328557312488555908203125</LatitudeDegrees>
              <LongitudeDegrees>-1.9552807509899139404296875</LongitudeDegrees>
            </Position>
            <AltitudeMeters>204.1999969482421875</AltitudeMeters>
            <DistanceMeters>NAN</DistanceMeters>
          </Trackpoint>
          <Trackpoint>
            <Time>2022-07-09T10:37:51.000Z</Time>
            <Position>
              <LatitudeDegrees>43.32857072353363037109375</LatitudeDegrees>
              <LongitudeDegrees>-1.95529617369174957275390625</LongitudeDegrees>
            </Position>
            <AltitudeMeters>204.8000030517578125</AltitudeMeters>
            <DistanceMeters>NAN</DistanceMeters>
          </Trackpoint>
          <Trackpoint>
            <Time>2022-07-09T10:37:53.000Z</Time>
            <Position>
              <LatitudeDegrees>43.3285859785974025726318359375</LatitudeDegrees>
              <LongitudeDegrees>-1.95532928220927715301513671875</LongitudeDegrees>
            </Position>
            <AltitudeMeters>205</AltitudeMeters>
            <DistanceMeters>NAN</DistanceMeters>
          </Trackpoint>
          <Trackpoint>
            <Time>2022-07-09T10:37:55.000Z</Time>
            <Position>
              <LatitudeDegrees>43.32859880290925502777099609375</LatitudeDegrees>
              <LongitudeDegrees>-1.95535023696720600128173828125</LongitudeDegrees>
            </Position>
            <AltitudeMeters>205.1999969482421875</AltitudeMeters>
            <DistanceMeters>NAN</DistanceMeters>
          </Trackpoint>
          <Trackpoint>
            <Time>2022-07-09T10:37:56.000Z</Time>
            <Position>
              <LatitudeDegrees>43.32860332913696765899658203125</LatitudeDegrees>
              <LongitudeDegrees>-1.95535761304199695587158203125</LongitudeDegrees>
            </Position>
            <AltitudeMeters>205.399993896484375</AltitudeMeters>
            <DistanceMeters>NAN</DistanceMeters>
          </Trackpoint>
          <Trackpoint>
            <Time>2022-07-09T10:37:57.000Z</Time>
            <Position>
              <LatitudeDegrees>43.3286134712398052215576171875</LatitudeDegrees>
              <LongitudeDegrees>-1.95537127554416656494140625</LongitudeDegrees>
            </Position>
            <AltitudeMeters>205.600006103515625</AltitudeMeters>
            <DistanceMeters>NAN</DistanceMeters>
          </Trackpoint>
          <Trackpoint>
            <Time>2022-07-09T10:37:58.000Z</Time>
            <Position>
              <LatitudeDegrees>43.32862394861876964569091796875</LatitudeDegrees>
              <LongitudeDegrees>-1.9553828425705432891845703125</LongitudeDegrees>
            </Position>
            <AltitudeMeters>205.600006103515625</AltitudeMeters>
            <DistanceMeters>NAN</DistanceMeters>
          </Trackpoint>
          <Trackpoint>
            <Time>2022-07-09T10:37:59.000Z</Time>
            <Position>
              <LatitudeDegrees>43.32863065414130687713623046875</LatitudeDegrees>
              <LongitudeDegrees>-1.955391727387905120849609375</LongitudeDegrees>
            </Position>
            <AltitudeMeters>206</AltitudeMeters>
            <DistanceMeters>NAN</DistanceMeters>
          </Trackpoint>
          <Trackpoint>
            <Time>2022-07-09T10:38:01.000Z</Time>
            <Position>
              <LatitudeDegrees>43.3286525309085845947265625</LatitudeDegrees>
              <LongitudeDegrees>-1.95541687309741973876953125</LongitudeDegrees>
            </Position>
            <AltitudeMeters>206.600006103515625</AltitudeMeters>
            <DistanceMeters>NAN</DistanceMeters>
          </Trackpoint>
          <Trackpoint>
            <Time>2022-07-09T10:38:02.000Z</Time>
            <Position>
              <LatitudeDegrees>43.32866401411592960357666015625</LatitudeDegrees>
              <LongitudeDegrees>-1.9554264284670352935791015625</LongitudeDegrees>
            </Position>
            <AltitudeMeters>206.8000030517578125</AltitudeMeters>
            <DistanceMeters>NAN</DistanceMeters>
          </Trackpoint>
          <Trackpoint>
            <Time>2022-07-09T10:38:04.000Z</Time>
            <Position>
              <LatitudeDegrees>43.32868278957903385162353515625</LatitudeDegrees>
              <LongitudeDegrees>-1.95544025860726833343505859375</LongitudeDegrees>
            </Position>
            <AltitudeMeters>207.399993896484375</AltitudeMeters>
            <DistanceMeters>NAN</DistanceMeters>
          </Trackpoint>
          <Trackpoint>
            <Time>2022-07-09T10:38:05.000Z</Time>
            <Position>
              <LatitudeDegrees>43.32869368605315685272216796875</LatitudeDegrees>
              <LongitudeDegrees>-1.95544235408306121826171875</LongitudeDegrees>
            </Position>
            <AltitudeMeters>207.600006103515625</AltitudeMeters>
            <DistanceMeters>NAN</DistanceMeters>
          </Trackpoint>
          <Trackpoint>
            <Time>2022-07-09T10:38:06.000Z</Time>
            <Position>
              <LatitudeDegrees>43.3287039957940578460693359375</LatitudeDegrees>
              <LongitudeDegrees>-1.955440007150173187255859375</LongitudeDegrees>
            </Position>
            <AltitudeMeters>207.600006103515625</AltitudeMeters>
            <DistanceMeters>NAN</DistanceMeters>
          </Trackpoint>
          <Trackpoint>
            <Time>2022-07-09T10:38:07.000Z</Time>
            <Position>
              <LatitudeDegrees>43.32871682010591030120849609375</LatitudeDegrees>
              <LongitudeDegrees>-1.9554470479488372802734375</LongitudeDegrees>
            </Position>
            <AltitudeMeters>207.8000030517578125</AltitudeMeters>
            <DistanceMeters>NAN</DistanceMeters>
          </Trackpoint>
          <Trackpoint>
            <Time>2022-07-09T10:38:08.000Z</Time>
            <Position>
              <LatitudeDegrees>43.3287247829139232635498046875</LatitudeDegrees>
              <LongitudeDegrees>-1.95545375347137451171875</LongitudeDegrees>
            </Position>
            <AltitudeMeters>207.8000030517578125</AltitudeMeters>
            <DistanceMeters>NAN</DistanceMeters>
          </Trackpoint>
          <Trackpoint>
            <Time>2022-07-09T10:38:12.000Z</Time>
            <Position>
              <LatitudeDegrees>43.3287438936531543731689453125</LatitudeDegrees>
              <LongitudeDegrees>-1.95546657778322696685791015625</LongitudeDegrees>
            </Position>
            <AltitudeMeters>208.1999969482421875</AltitudeMeters>
            <DistanceMeters>NAN</DistanceMeters>
          </Trackpoint>
          <Trackpoint>
            <Time>2022-07-09T10:38:32.000Z</Time>
            <Position>
              <LatitudeDegrees>43.32882880233228206634521484375</LatitudeDegrees>
              <LongitudeDegrees>-1.95559347979724407196044921875</LongitudeDegrees>
            </Position>
            <AltitudeMeters>209.399993896484375</AltitudeMeters>
            <DistanceMeters>NAN</DistanceMeters>
          </Trackpoint>
          <Trackpoint>
            <Time>2022-07-09T10:38:35.000Z</Time>
            <Position>
              <LatitudeDegrees>43.3288495056331157684326171875</LatitudeDegrees>
              <LongitudeDegrees>-1.9556564278900623321533203125</LongitudeDegrees>
            </Position>
            <AltitudeMeters>210</AltitudeMeters>
            <DistanceMeters>NAN</DistanceMeters>
          </Trackpoint>
          <Trackpoint>
            <Time>2022-07-09T10:38:38.000Z</Time>
            <Position>
              <LatitudeDegrees>43.32888185977935791015625</LatitudeDegrees>
              <LongitudeDegrees>-1.95571250282227993011474609375</LongitudeDegrees>
            </Position>
            <AltitudeMeters>210.600006103515625</AltitudeMeters>
            <DistanceMeters>NAN</DistanceMeters>
          </Trackpoint>
          <Trackpoint>
            <Time>2022-07-09T10:38:40.000Z</Time>
            <Position>
              <LatitudeDegrees>43.32888110540807247161865234375</LatitudeDegrees>
              <LongitudeDegrees>-1.95573831908404827117919921875</LongitudeDegrees>
            </Position>
            <AltitudeMeters>211.1999969482421875</AltitudeMeters>
            <DistanceMeters>NAN</DistanceMeters>
          </Trackpoint>
          <Trackpoint>
            <Time>2022-07-09T10:38:45.000Z</Time>
            <Position>
              <LatitudeDegrees>43.32892603240907192230224609375</LatitudeDegrees>
              <LongitudeDegrees>-1.9558193720877170562744140625</LongitudeDegrees>
            </Position>
            <AltitudeMeters>211.600006103515625</AltitudeMeters>
            <DistanceMeters>NAN</DistanceMeters>
          </Trackpoint>
          <Trackpoint>
            <Time>2022-07-09T10:38:46.000Z</Time>
            <Position>
              <LatitudeDegrees>43.3289296366274356842041015625</LatitudeDegrees>
              <LongitudeDegrees>-1.9558317773044109344482421875</LongitudeDegrees>
            </Position>
            <AltitudeMeters>212</AltitudeMeters>
            <DistanceMeters>NAN</DistanceMeters>
          </Trackpoint>
          <Trackpoint>
            <Time>2022-07-09T10:38:49.000Z</Time>
            <Position>
              <LatitudeDegrees>43.3289453946053981781005859375</LatitudeDegrees>
              <LongitudeDegrees>-1.95586589165031909942626953125</LongitudeDegrees>
            </Position>
            <AltitudeMeters>212.399993896484375</AltitudeMeters>
            <DistanceMeters>NAN</DistanceMeters>
          </Trackpoint>
          <Trackpoint>
            <Time>2022-07-09T10:38:52.000Z</Time>
            <Position>
              <LatitudeDegrees>43.3289708755910396575927734375</LatitudeDegrees>
              <LongitudeDegrees>-1.95590411312878131866455078125</LongitudeDegrees>
            </Position>
            <AltitudeMeters>212.600006103515625</AltitudeMeters>
            <DistanceMeters>NAN</DistanceMeters>
          </Trackpoint>
          <Trackpoint>
            <Time>2022-07-09T10:38:53.000Z</Time>
            <Position>
              <LatitudeDegrees>43.3289797604084014892578125</LatitudeDegrees>
              <LongitudeDegrees>-1.955926157534122467041015625</LongitudeDegrees>
            </Position>
            <AltitudeMeters>212.600006103515625</AltitudeMeters>
            <DistanceMeters>NAN</DistanceMeters>
          </Trackpoint>
          <Trackpoint>
            <Time>2022-07-09T10:38:54.000Z</Time>
            <Position>
              <LatitudeDegrees>43.32898839376866817474365234375</LatitudeDegrees>
              <LongitudeDegrees>-1.95594652555882930755615234375</LongitudeDegrees>
            </Position>
            <AltitudeMeters>212.8000030517578125</AltitudeMeters>
            <DistanceMeters>NAN</DistanceMeters>
          </Trackpoint>
          <Trackpoint>
            <Time>2022-07-09T10:38:56.000Z</Time>
            <Position>
              <LatitudeDegrees>43.32899476401507854461669921875</LatitudeDegrees>
              <LongitudeDegrees>-1.95598038844764232635498046875</LongitudeDegrees>
            </Position>
            <AltitudeMeters>212.8000030517578125</AltitudeMeters>
            <DistanceMeters>NAN</DistanceMeters>
          </Trackpoint>
          <Trackpoint>
            <Time>2022-07-09T10:38:58.000Z</Time>
            <Position>
              <LatitudeDegrees>43.328987471759319305419921875</LatitudeDegrees>
              <LongitudeDegrees>-1.95601056329905986785888671875</LongitudeDegrees>
            </Position>
            <AltitudeMeters>212.8000030517578125</AltitudeMeters>
            <DistanceMeters>NAN</DistanceMeters>
          </Trackpoint>
          <Trackpoint>
            <Time>2022-07-09T10:39:00.000Z</Time>
            <Position>
              <LatitudeDegrees>43.32899325527250766754150390625</LatitudeDegrees>
              <LongitudeDegrees>-1.9560393132269382476806640625</LongitudeDegrees>
            </Position>
            <AltitudeMeters>213</AltitudeMeters>
            <DistanceMeters>NAN</DistanceMeters>
          </Trackpoint>
          <Trackpoint>
            <Time>2022-07-09T10:39:02.000Z</Time>
            <Position>
              <LatitudeDegrees>43.32899996079504489898681640625</LatitudeDegrees>
              <LongitudeDegrees>-1.956085078418254852294921875</LongitudeDegrees>
            </Position>
            <AltitudeMeters>213</AltitudeMeters>
            <DistanceMeters>NAN</DistanceMeters>
          </Trackpoint>
          <Trackpoint>
            <Time>2022-07-09T10:39:04.000Z</Time>
            <Position>
              <LatitudeDegrees>43.32898973487317562103271484375</LatitudeDegrees>
              <LongitudeDegrees>-1.95611533708870410919189453125</LongitudeDegrees>
            </Position>
            <AltitudeMeters>213</AltitudeMeters>
            <DistanceMeters>NAN</DistanceMeters>
          </Trackpoint>
          <Trackpoint>
            <Time>2022-07-09T10:39:06.000Z</Time>
            <Position>
              <LatitudeDegrees>43.3289812691509723663330078125</LatitudeDegrees>
              <LongitudeDegrees>-1.95616655051708221435546875</LongitudeDegrees>
            </Position>
            <AltitudeMeters>213</AltitudeMeters>
            <DistanceMeters>NAN</DistanceMeters>
          </Trackpoint>
          <Trackpoint>
            <Time>2022-07-09T10:39:11.000Z</Time>
            <Position>
              <LatitudeDegrees>43.32898017950356006622314453125</LatitudeDegrees>
              <LongitudeDegrees>-1.9563858211040496826171875</LongitudeDegrees>
            </Position>
            <AltitudeMeters>212.8000030517578125</AltitudeMeters>
            <DistanceMeters>NAN</DistanceMeters>
          </Trackpoint>
          <Trackpoint>
            <Time>2022-07-09T10:39:17.000Z</Time>
            <Position>
              <LatitudeDegrees>43.32897867076098918914794921875</LatitudeDegrees>
              <LongitudeDegrees>-1.9567222706973552703857421875</LongitudeDegrees>
            </Position>
            <AltitudeMeters>212.399993896484375</AltitudeMeters>
            <DistanceMeters>NAN</DistanceMeters>
          </Trackpoint>
          <Trackpoint>
            <Time>2022-07-09T10:39:20.000Z</Time>
            <Position>
              <LatitudeDegrees>43.32898872904479503631591796875</LatitudeDegrees>
              <LongitudeDegrees>-1.9569224305450916290283203125</LongitudeDegrees>
            </Position>
            <AltitudeMeters>211.600006103515625</AltitudeMeters>
            <DistanceMeters>NAN</DistanceMeters>
          </Trackpoint>
          <Trackpoint>
            <Time>2022-07-09T10:39:22.000Z</Time>
            <Position>
              <LatitudeDegrees>43.3289933390915393829345703125</LatitudeDegrees>
              <LongitudeDegrees>-1.95704069919884204864501953125</LongitudeDegrees>
            </Position>
            <AltitudeMeters>211.399993896484375</AltitudeMeters>
            <DistanceMeters>NAN</DistanceMeters>
          </Trackpoint>
          <Trackpoint>
            <Time>2022-07-09T10:39:24.000Z</Time>
            <Position>
              <LatitudeDegrees>43.3290168084204196929931640625</LatitudeDegrees>
              <LongitudeDegrees>-1.95717430673539638519287109375</LongitudeDegrees>
            </Position>
            <AltitudeMeters>210.1999969482421875</AltitudeMeters>
            <DistanceMeters>NAN</DistanceMeters>
          </Trackpoint>
          <Trackpoint>
            <Time>2022-07-09T10:39:26.000Z</Time>
            <Position>
              <LatitudeDegrees>43.32903114147484302520751953125</LatitudeDegrees>
              <LongitudeDegrees>-1.9573177210986614227294921875</LongitudeDegrees>
            </Position>
            <AltitudeMeters>209.1999969482421875</AltitudeMeters>
            <DistanceMeters>NAN</DistanceMeters>
          </Trackpoint>
          <Trackpoint>
            <Time>2022-07-09T10:39:27.000Z</Time>
            <Position>
              <LatitudeDegrees>43.32904321141541004180908203125</LatitudeDegrees>
              <LongitudeDegrees>-1.95739977993071079254150390625</LongitudeDegrees>
            </Position>
            <AltitudeMeters>208.8000030517578125</AltitudeMeters>
            <DistanceMeters>NAN</DistanceMeters>
          </Trackpoint>
          <Trackpoint>
            <Time>2022-07-09T10:39:29.000Z</Time>
            <Position>
              <LatitudeDegrees>43.32907271571457386016845703125</LatitudeDegrees>
              <LongitudeDegrees>-1.9575889594852924346923828125</LongitudeDegrees>
            </Position>
            <AltitudeMeters>208</AltitudeMeters>
            <DistanceMeters>NAN</DistanceMeters>
          </Trackpoint>
          <Trackpoint>
            <Time>2022-07-09T10:39:30.000Z</Time>
            <Position>
              <LatitudeDegrees>43.3290677703917026519775390625</LatitudeDegrees>
              <LongitudeDegrees>-1.9576757960021495819091796875</LongitudeDegrees>
            </Position>
            <AltitudeMeters>207.600006103515625</AltitudeMeters>
            <DistanceMeters>NAN</DistanceMeters>
          </Trackpoint>
          <Trackpoint>
            <Time>2022-07-09T10:39:31.000Z</Time>
            <Position>
              <LatitudeDegrees>43.32904522307217121124267578125</LatitudeDegrees>
              <LongitudeDegrees>-1.95777310989797115325927734375</LongitudeDegrees>
            </Position>
            <AltitudeMeters>206.8000030517578125</AltitudeMeters>
            <DistanceMeters>NAN</DistanceMeters>
          </Trackpoint>
          <Trackpoint>
            <Time>2022-07-09T10:39:32.000Z</Time>
            <Position>
              <LatitudeDegrees>43.329020328819751739501953125</LatitudeDegrees>
              <LongitudeDegrees>-1.9578642211854457855224609375</LongitudeDegrees>
            </Position>
            <AltitudeMeters>206.399993896484375</AltitudeMeters>
            <DistanceMeters>NAN</DistanceMeters>
          </Trackpoint>
          <Trackpoint>
            <Time>2022-07-09T10:39:34.000Z</Time>
            <Position>
              <LatitudeDegrees>43.32894153892993927001953125</LatitudeDegrees>
              <LongitudeDegrees>-1.95803345181047916412353515625</LongitudeDegrees>
            </Position>
            <AltitudeMeters>204.8000030517578125</AltitudeMeters>
            <DistanceMeters>NAN</DistanceMeters>
          </Trackpoint>
          <Trackpoint>
            <Time>2022-07-09T10:39:35.000Z</Time>
            <Position>
              <LatitudeDegrees>43.32891798578202724456787109375</LatitudeDegrees>
              <LongitudeDegrees>-1.9581317715346813201904296875</LongitudeDegrees>
            </Position>
            <AltitudeMeters>204.1999969482421875</AltitudeMeters>
            <DistanceMeters>NAN</DistanceMeters>
          </Trackpoint>
          <Trackpoint>
            <Time>2022-07-09T10:39:36.000Z</Time>
            <Position>
              <LatitudeDegrees>43.32890289835631847381591796875</LatitudeDegrees>
              <LongitudeDegrees>-1.958227492868900299072265625</LongitudeDegrees>
            </Position>
            <AltitudeMeters>203.399993896484375</AltitudeMeters>
            <DistanceMeters>NAN</DistanceMeters>
          </Trackpoint>
          <Trackpoint>
            <Time>2022-07-09T10:39:38.000Z</Time>
            <Position>
              <LatitudeDegrees>43.3288655988872051239013671875</LatitudeDegrees>
              <LongitudeDegrees>-1.95842840708792209625244140625</LongitudeDegrees>
            </Position>
            <AltitudeMeters>202.1999969482421875</AltitudeMeters>
            <DistanceMeters>NAN</DistanceMeters>
          </Trackpoint>
          <Trackpoint>
            <Time>2022-07-09T10:39:40.000Z</Time>
            <Position>
              <LatitudeDegrees>43.32884103991091251373291015625</LatitudeDegrees>
              <LongitudeDegrees>-1.958677768707275390625</LongitudeDegrees>
            </Position>
            <AltitudeMeters>200.600006103515625</AltitudeMeters>
            <DistanceMeters>NAN</DistanceMeters>
          </Trackpoint>
          <Trackpoint>
            <Time>2022-07-09T10:39:41.000Z</Time>
            <Position>
              <LatitudeDegrees>43.32882620394229888916015625</LatitudeDegrees>
              <LongitudeDegrees>-1.95881330408155918121337890625</LongitudeDegrees>
            </Position>
            <AltitudeMeters>199.8000030517578125</AltitudeMeters>
            <DistanceMeters>NAN</DistanceMeters>
          </Trackpoint>
          <Trackpoint>
            <Time>2022-07-09T10:39:42.000Z</Time>
            <Position>
              <LatitudeDegrees>43.328812457621097564697265625</LatitudeDegrees>
              <LongitudeDegrees>-1.9589521922171115875244140625</LongitudeDegrees>
            </Position>
            <AltitudeMeters>198.8000030517578125</AltitudeMeters>
            <DistanceMeters>NAN</DistanceMeters>
          </Trackpoint>
          <Trackpoint>
            <Time>2022-07-09T10:39:44.000Z</Time>
            <Position>
              <LatitudeDegrees>43.32878186367452144622802734375</LatitudeDegrees>
              <LongitudeDegrees>-1.95920557714998722076416015625</LongitudeDegrees>
            </Position>
            <AltitudeMeters>197.399993896484375</AltitudeMeters>
            <DistanceMeters>NAN</DistanceMeters>
          </Trackpoint>
          <Trackpoint>
            <Time>2022-07-09T10:39:46.000Z</Time>
            <Position>
              <LatitudeDegrees>43.32875646650791168212890625</LatitudeDegrees>
              <LongitudeDegrees>-1.959406994283199310302734375</LongitudeDegrees>
            </Position>
            <AltitudeMeters>195.600006103515625</AltitudeMeters>
            <DistanceMeters>NAN</DistanceMeters>
          </Trackpoint>
          <Trackpoint>
            <Time>2022-07-09T10:39:48.000Z</Time>
            <Position>
              <LatitudeDegrees>43.32873559556901454925537109375</LatitudeDegrees>
              <LongitudeDegrees>-1.95956013165414333343505859375</LongitudeDegrees>
            </Position>
            <AltitudeMeters>194.1999969482421875</AltitudeMeters>
            <DistanceMeters>NAN</DistanceMeters>
          </Trackpoint>
          <Trackpoint>
            <Time>2022-07-09T10:39:49.000Z</Time>
            <Position>
              <LatitudeDegrees>43.3287271298468112945556640625</LatitudeDegrees>
              <LongitudeDegrees>-1.95962651632726192474365234375</LongitudeDegrees>
            </Position>
            <AltitudeMeters>193.1999969482421875</AltitudeMeters>
            <DistanceMeters>NAN</DistanceMeters>
          </Trackpoint>
          <Trackpoint>
            <Time>2022-07-09T10:39:50.000Z</Time>
            <Position>
              <LatitudeDegrees>43.32871933467686176300048828125</LatitudeDegrees>
              <LongitudeDegrees>-1.95968292653560638427734375</LongitudeDegrees>
            </Position>
            <AltitudeMeters>192.399993896484375</AltitudeMeters>
            <DistanceMeters>NAN</DistanceMeters>
          </Trackpoint>
          <Trackpoint>
            <Time>2022-07-09T10:39:51.000Z</Time>
            <Position>
              <LatitudeDegrees>43.32870508544147014617919921875</LatitudeDegrees>
              <LongitudeDegrees>-1.959733553230762481689453125</LongitudeDegrees>
            </Position>
            <AltitudeMeters>192</AltitudeMeters>
            <DistanceMeters>NAN</DistanceMeters>
          </Trackpoint>
          <Trackpoint>
            <Time>2022-07-09T10:39:52.000Z</Time>
            <Position>
              <LatitudeDegrees>43.32868144847452640533447265625</LatitudeDegrees>
              <LongitudeDegrees>-1.95978912524878978729248046875</LongitudeDegrees>
            </Position>
            <AltitudeMeters>191.600006103515625</AltitudeMeters>
            <DistanceMeters>NAN</DistanceMeters>
          </Trackpoint>
          <Trackpoint>
            <Time>2022-07-09T10:39:53.000Z</Time>
            <Position>
              <LatitudeDegrees>43.3286552131175994873046875</LatitudeDegrees>
              <LongitudeDegrees>-1.9598217308521270751953125</LongitudeDegrees>
            </Position>
            <AltitudeMeters>190.8000030517578125</AltitudeMeters>
            <DistanceMeters>NAN</DistanceMeters>
          </Trackpoint>
          <Trackpoint>
            <Time>2022-07-09T10:39:55.000Z</Time>
            <Position>
              <LatitudeDegrees>43.32859829999506473541259765625</LatitudeDegrees>
              <LongitudeDegrees>-1.9598698429763317108154296875</LongitudeDegrees>
            </Position>
            <AltitudeMeters>189.600006103515625</AltitudeMeters>
            <DistanceMeters>NAN</DistanceMeters>
          </Trackpoint>
          <Trackpoint>
            <Time>2022-07-09T10:39:56.000Z</Time>
            <Position>
              <LatitudeDegrees>43.3285655267536640167236328125</LatitudeDegrees>
              <LongitudeDegrees>-1.9598970003426074981689453125</LongitudeDegrees>
            </Position>
            <AltitudeMeters>188.8000030517578125</AltitudeMeters>
            <DistanceMeters>NAN</DistanceMeters>
          </Trackpoint>
          <Trackpoint>
            <Time>2022-07-09T10:39:57.000Z</Time>
            <Position>
              <LatitudeDegrees>43.32854683510959148406982421875</LatitudeDegrees>
              <LongitudeDegrees>-1.959928683936595916748046875</LongitudeDegrees>
            </Position>
            <AltitudeMeters>188.399993896484375</AltitudeMeters>
            <DistanceMeters>NAN</DistanceMeters>
          </Trackpoint>
          <Trackpoint>
            <Time>2022-07-09T10:39:59.000Z</Time>
            <Position>
              <LatitudeDegrees>43.32854851149022579193115234375</LatitudeDegrees>
              <LongitudeDegrees>-1.95998358540236949920654296875</LongitudeDegrees>
            </Position>
            <AltitudeMeters>188</AltitudeMeters>
            <DistanceMeters>NAN</DistanceMeters>
          </Trackpoint>
          <Trackpoint>
            <Time>2022-07-09T10:40:04.000Z</Time>
            <Position>
              <LatitudeDegrees>43.328563012182712554931640625</LatitudeDegrees>
              <LongitudeDegrees>-1.9600227288901805877685546875</LongitudeDegrees>
            </Position>
            <AltitudeMeters>187.8000030517578125</AltitudeMeters>
            <DistanceMeters>NAN</DistanceMeters>
          </Trackpoint>
          <Trackpoint>
            <Time>2022-07-09T10:40:06.000Z</Time>
            <Position>
              <LatitudeDegrees>43.32855823449790477752685546875</LatitudeDegrees>
              <LongitudeDegrees>-1.9600230641663074493408203125</LongitudeDegrees>
            </Position>
            <AltitudeMeters>188</AltitudeMeters>
            <DistanceMeters>NAN</DistanceMeters>
          </Trackpoint>
          <Trackpoint>
            <Time>2022-07-09T10:40:29.000Z</Time>
            <Position>
              <LatitudeDegrees>43.32847055979073047637939453125</LatitudeDegrees>
              <LongitudeDegrees>-1.960324309766292572021484375</LongitudeDegrees>
            </Position>
            <AltitudeMeters>184.600006103515625</AltitudeMeters>
            <DistanceMeters>NAN</DistanceMeters>
          </Trackpoint>
          <Trackpoint>
            <Time>2022-07-09T10:40:31.000Z</Time>
            <Position>
              <LatitudeDegrees>43.3284756727516651153564453125</LatitudeDegrees>
              <LongitudeDegrees>-1.96034383960068225860595703125</LongitudeDegrees>
            </Position>
            <AltitudeMeters>183.8000030517578125</AltitudeMeters>
            <DistanceMeters>NAN</DistanceMeters>
          </Trackpoint>
          <Trackpoint>
            <Time>2022-07-09T10:40:33.000Z</Time>
            <Position>
              <LatitudeDegrees>43.328487575054168701171875</LatitudeDegrees>
              <LongitudeDegrees>-1.960357837378978729248046875</LongitudeDegrees>
            </Position>
            <AltitudeMeters>183.600006103515625</AltitudeMeters>
            <DistanceMeters>NAN</DistanceMeters>
          </Trackpoint>
          <Trackpoint>
            <Time>2022-07-09T10:40:37.000Z</Time>
            <Position>
              <LatitudeDegrees>43.32855504937469959259033203125</LatitudeDegrees>
              <LongitudeDegrees>-1.96043536998331546783447265625</LongitudeDegrees>
            </Position>
            <AltitudeMeters>182.1999969482421875</AltitudeMeters>
            <DistanceMeters>NAN</DistanceMeters>
          </Trackpoint>
          <Trackpoint>
            <Time>2022-07-09T10:40:38.000Z</Time>
            <Position>
              <LatitudeDegrees>43.32855639047920703887939453125</LatitudeDegrees>
              <LongitudeDegrees>-1.96045230142772197723388671875</LongitudeDegrees>
            </Position>
            <AltitudeMeters>181.8000030517578125</AltitudeMeters>
            <DistanceMeters>NAN</DistanceMeters>
          </Trackpoint>
          <Trackpoint>
            <Time>2022-07-09T10:40:40.000Z</Time>
            <Position>
              <LatitudeDegrees>43.32854817621409893035888671875</LatitudeDegrees>
              <LongitudeDegrees>-1.96049957536160945892333984375</LongitudeDegrees>
            </Position>
            <AltitudeMeters>180.8000030517578125</AltitudeMeters>
            <DistanceMeters>NAN</DistanceMeters>
          </Trackpoint>
          <Trackpoint>
            <Time>2022-07-09T10:40:41.000Z</Time>
            <Position>
              <LatitudeDegrees>43.32854432053864002227783203125</LatitudeDegrees>
              <LongitudeDegrees>-1.96051952429115772247314453125</LongitudeDegrees>
            </Position>
            <AltitudeMeters>180.399993896484375</AltitudeMeters>
            <DistanceMeters>NAN</DistanceMeters>
          </Trackpoint>
          <Trackpoint>
            <Time>2022-07-09T10:40:43.000Z</Time>
            <Position>
              <LatitudeDegrees>43.32853895612061023712158203125</LatitudeDegrees>
              <LongitudeDegrees>-1.96058909408748149871826171875</LongitudeDegrees>
            </Position>
            <AltitudeMeters>180</AltitudeMeters>
            <DistanceMeters>NAN</DistanceMeters>
          </Trackpoint>
          <Trackpoint>
            <Time>2022-07-09T10:40:44.000Z</Time>
            <Position>
              <LatitudeDegrees>43.3285433985292911529541015625</LatitudeDegrees>
              <LongitudeDegrees>-1.9606282375752925872802734375</LongitudeDegrees>
            </Position>
            <AltitudeMeters>179.8000030517578125</AltitudeMeters>
            <DistanceMeters>NAN</DistanceMeters>
          </Trackpoint>
          <Trackpoint>
            <Time>2022-07-09T10:40:45.000Z</Time>
            <Position>
              <LatitudeDegrees>43.32854800857603549957275390625</LatitudeDegrees>
              <LongitudeDegrees>-1.960646845400333404541015625</LongitudeDegrees>
            </Position>
            <AltitudeMeters>179.399993896484375</AltitudeMeters>
            <DistanceMeters>NAN</DistanceMeters>
          </Trackpoint>
          <Trackpoint>
            <Time>2022-07-09T10:40:46.000Z</Time>
            <Position>
              <LatitudeDegrees>43.328552283346652984619140625</LatitudeDegrees>
              <LongitudeDegrees>-1.96064441464841365814208984375</LongitudeDegrees>
            </Position>
            <AltitudeMeters>178.600006103515625</AltitudeMeters>
            <DistanceMeters>NAN</DistanceMeters>
          </Trackpoint>
          <Trackpoint>
            <Time>2022-07-09T10:40:47.000Z</Time>
            <Position>
              <LatitudeDegrees>43.328557647764682769775390625</LatitudeDegrees>
              <LongitudeDegrees>-1.96067241020500659942626953125</LongitudeDegrees>
            </Position>
            <AltitudeMeters>178.1999969482421875</AltitudeMeters>
            <DistanceMeters>NAN</DistanceMeters>
          </Trackpoint>
          <Trackpoint>
            <Time>2022-07-09T10:40:50.000Z</Time>
            <Position>
              <LatitudeDegrees>43.3285843022167682647705078125</LatitudeDegrees>
              <LongitudeDegrees>-1.9607278145849704742431640625</LongitudeDegrees>
            </Position>
            <AltitudeMeters>177.600006103515625</AltitudeMeters>
            <DistanceMeters>NAN</DistanceMeters>
          </Trackpoint>
          <Trackpoint>
            <Time>2022-07-09T10:40:52.000Z</Time>
            <Position>
              <LatitudeDegrees>43.3285843022167682647705078125</LatitudeDegrees>
              <LongitudeDegrees>-1.9607278145849704742431640625</LongitudeDegrees>
            </Position>
            <AltitudeMeters>177.600006103515625</AltitudeMeters>
            <DistanceMeters>NAN</DistanceMeters>
          </Trackpoint>
          <Trackpoint>
            <Time>2022-07-09T10:41:24.000Z</Time>
            <Position>
              <LatitudeDegrees>43.32860450260341167449951171875</LatitudeDegrees>
              <LongitudeDegrees>-1.96074466221034526824951171875</LongitudeDegrees>
            </Position>
            <AltitudeMeters>178.600006103515625</AltitudeMeters>
            <DistanceMeters>NAN</DistanceMeters>
          </Trackpoint>
          <Trackpoint>
            <Time>2022-07-09T10:41:25.000Z</Time>
            <Position>
              <LatitudeDegrees>43.328618668019771575927734375</LatitudeDegrees>
              <LongitudeDegrees>-1.96076511405408382415771484375</LongitudeDegrees>
            </Position>
            <AltitudeMeters>178.600006103515625</AltitudeMeters>
            <DistanceMeters>NAN</DistanceMeters>
          </Trackpoint>
          <Trackpoint>
            <Time>2022-07-09T10:41:26.000Z</Time>
            <Position>
              <LatitudeDegrees>43.32862562499940395355224609375</LatitudeDegrees>
              <LongitudeDegrees>-1.96079067885875701904296875</LongitudeDegrees>
            </Position>
            <AltitudeMeters>178.399993896484375</AltitudeMeters>
            <DistanceMeters>NAN</DistanceMeters>
          </Trackpoint>
          <Trackpoint>
            <Time>2022-07-09T10:41:28.000Z</Time>
            <Position>
              <LatitudeDegrees>43.32863853313028812408447265625</LatitudeDegrees>
              <LongitudeDegrees>-1.9608475081622600555419921875</LongitudeDegrees>
            </Position>
            <AltitudeMeters>178.1999969482421875</AltitudeMeters>
            <DistanceMeters>NAN</DistanceMeters>
          </Trackpoint>
          <Trackpoint>
            <Time>2022-07-09T10:41:31.000Z</Time>
            <Position>
              <LatitudeDegrees>43.3286604098975658416748046875</LatitudeDegrees>
              <LongitudeDegrees>-1.9609095342457294464111328125</LongitudeDegrees>
            </Position>
            <AltitudeMeters>176.600006103515625</AltitudeMeters>
            <DistanceMeters>NAN</DistanceMeters>
          </Trackpoint>
          <Trackpoint>
            <Time>2022-07-09T10:41:32.000Z</Time>
            <Position>
              <LatitudeDegrees>43.32866661250591278076171875</LatitudeDegrees>
              <LongitudeDegrees>-1.96092923171818256378173828125</LongitudeDegrees>
            </Position>
            <AltitudeMeters>175.8000030517578125</AltitudeMeters>
            <DistanceMeters>NAN</DistanceMeters>
          </Trackpoint>
          <Trackpoint>
            <Time>2022-07-09T10:41:33.000Z</Time>
            <Position>
              <LatitudeDegrees>43.32867340184748172760009765625</LatitudeDegrees>
              <LongitudeDegrees>-1.9609480910003185272216796875</LongitudeDegrees>
            </Position>
            <AltitudeMeters>175.1999969482421875</AltitudeMeters>
            <DistanceMeters>NAN</DistanceMeters>
          </Trackpoint>
          <Trackpoint>
            <Time>2022-07-09T10:41:37.000Z</Time>
            <Position>
              <LatitudeDegrees>43.32870550453662872314453125</LatitudeDegrees>
              <LongitudeDegrees>-1.9610402919352054595947265625</LongitudeDegrees>
            </Position>
            <AltitudeMeters>173.8000030517578125</AltitudeMeters>
            <DistanceMeters>NAN</DistanceMeters>
          </Trackpoint>
          <Trackpoint>
            <Time>2022-07-09T10:41:38.000Z</Time>
            <Position>
              <LatitudeDegrees>43.32872025668621063232421875</LatitudeDegrees>
              <LongitudeDegrees>-1.9610526971518993377685546875</LongitudeDegrees>
            </Position>
            <AltitudeMeters>173.600006103515625</AltitudeMeters>
            <DistanceMeters>NAN</DistanceMeters>
          </Trackpoint>
          <Trackpoint>
            <Time>2022-07-09T10:41:41.000Z</Time>
            <Position>
              <LatitudeDegrees>43.32875101827085018157958984375</LatitudeDegrees>
              <LongitudeDegrees>-1.9610743224620819091796875</LongitudeDegrees>
            </Position>
            <AltitudeMeters>173.399993896484375</AltitudeMeters>
            <DistanceMeters>NAN</DistanceMeters>
          </Trackpoint>
          <Trackpoint>
            <Time>2022-07-09T10:41:43.000Z</Time>
            <Position>
              <LatitudeDegrees>43.32879091612994670867919921875</LatitudeDegrees>
              <LongitudeDegrees>-1.961060576140880584716796875</LongitudeDegrees>
            </Position>
            <AltitudeMeters>173.399993896484375</AltitudeMeters>
            <DistanceMeters>NAN</DistanceMeters>
          </Trackpoint>
          <Trackpoint>
            <Time>2022-07-09T10:41:45.000Z</Time>
            <Position>
              <LatitudeDegrees>43.328827209770679473876953125</LatitudeDegrees>
              <LongitudeDegrees>-1.96106887422502040863037109375</LongitudeDegrees>
            </Position>
            <AltitudeMeters>173.1999969482421875</AltitudeMeters>
            <DistanceMeters>NAN</DistanceMeters>
          </Trackpoint>
          <Trackpoint>
            <Time>2022-07-09T10:41:47.000Z</Time>
            <Position>
              <LatitudeDegrees>43.32885880954563617706298828125</LatitudeDegrees>
              <LongitudeDegrees>-1.96110173128545284271240234375</LongitudeDegrees>
            </Position>
            <AltitudeMeters>172.600006103515625</AltitudeMeters>
            <DistanceMeters>NAN</DistanceMeters>
          </Trackpoint>
          <Trackpoint>
            <Time>2022-07-09T10:41:48.000Z</Time>
            <Position>
              <LatitudeDegrees>43.328878171741962432861328125</LatitudeDegrees>
              <LongitudeDegrees>-1.9611314870417118072509765625</LongitudeDegrees>
            </Position>
            <AltitudeMeters>172.600006103515625</AltitudeMeters>
            <DistanceMeters>NAN</DistanceMeters>
          </Trackpoint>
          <Trackpoint>
            <Time>2022-07-09T10:41:51.000Z</Time>
            <Position>
              <LatitudeDegrees>43.3289085142314434051513671875</LatitudeDegrees>
              <LongitudeDegrees>-1.96122125722467899322509765625</LongitudeDegrees>
            </Position>
            <AltitudeMeters>172.399993896484375</AltitudeMeters>
            <DistanceMeters>NAN</DistanceMeters>
          </Trackpoint>
          <Trackpoint>
            <Time>2022-07-09T10:41:54.000Z</Time>
            <Position>
              <LatitudeDegrees>43.32889116369187831878662109375</LatitudeDegrees>
              <LongitudeDegrees>-1.96128546260297298431396484375</LongitudeDegrees>
            </Position>
            <AltitudeMeters>172</AltitudeMeters>
            <DistanceMeters>NAN</DistanceMeters>
          </Trackpoint>
          <Trackpoint>
            <Time>2022-07-09T10:41:57.000Z</Time>
            <Position>
              <LatitudeDegrees>43.32891211844980716705322265625</LatitudeDegrees>
              <LongitudeDegrees>-1.9613722153007984161376953125</LongitudeDegrees>
            </Position>
            <AltitudeMeters>171.600006103515625</AltitudeMeters>
            <DistanceMeters>NAN</DistanceMeters>
          </Trackpoint>
          <Trackpoint>
            <Time>2022-07-09T10:42:00.000Z</Time>
            <Position>
              <LatitudeDegrees>43.3289004676043987274169921875</LatitudeDegrees>
              <LongitudeDegrees>-1.96136827580630779266357421875</LongitudeDegrees>
            </Position>
            <AltitudeMeters>171</AltitudeMeters>
            <DistanceMeters>NAN</DistanceMeters>
          </Trackpoint>
          <Trackpoint>
            <Time>2022-07-09T10:42:02.000Z</Time>
            <Position>
              <LatitudeDegrees>43.32890172488987445831298828125</LatitudeDegrees>
              <LongitudeDegrees>-1.9613742269575595855712890625</LongitudeDegrees>
            </Position>
            <AltitudeMeters>170.399993896484375</AltitudeMeters>
            <DistanceMeters>NAN</DistanceMeters>
          </Trackpoint>
          <Trackpoint>
            <Time>2022-07-09T10:42:04.000Z</Time>
            <Position>
              <LatitudeDegrees>43.328883536159992218017578125</LatitudeDegrees>
              <LongitudeDegrees>-1.96139140985906124114990234375</LongitudeDegrees>
            </Position>
            <AltitudeMeters>169.399993896484375</AltitudeMeters>
            <DistanceMeters>NAN</DistanceMeters>
          </Trackpoint>
          <Trackpoint>
            <Time>2022-07-09T10:42:05.000Z</Time>
            <Position>
              <LatitudeDegrees>43.32887724973261356353759765625</LatitudeDegrees>
              <LongitudeDegrees>-1.96141001768410205841064453125</LongitudeDegrees>
            </Position>
            <AltitudeMeters>168.8000030517578125</AltitudeMeters>
            <DistanceMeters>NAN</DistanceMeters>
          </Trackpoint>
          <Trackpoint>
            <Time>2022-07-09T10:42:10.000Z</Time>
            <Position>
              <LatitudeDegrees>43.32883601076900959014892578125</LatitudeDegrees>
              <LongitudeDegrees>-1.96154127828776836395263671875</LongitudeDegrees>
            </Position>
            <AltitudeMeters>167.8000030517578125</AltitudeMeters>
            <DistanceMeters>NAN</DistanceMeters>
          </Trackpoint>
          <Trackpoint>
            <Time>2022-07-09T10:42:11.000Z</Time>
            <Position>
              <LatitudeDegrees>43.32883986644446849822998046875</LatitudeDegrees>
              <LongitudeDegrees>-1.96155988611280918121337890625</LongitudeDegrees>
            </Position>
            <AltitudeMeters>167.600006103515625</AltitudeMeters>
            <DistanceMeters>NAN</DistanceMeters>
          </Trackpoint>
          <Trackpoint>
            <Time>2022-07-09T10:42:14.000Z</Time>
            <Position>
              <LatitudeDegrees>43.32885730080306529998779296875</LatitudeDegrees>
              <LongitudeDegrees>-1.96161436848342418670654296875</LongitudeDegrees>
            </Position>
            <AltitudeMeters>166.600006103515625</AltitudeMeters>
            <DistanceMeters>NAN</DistanceMeters>
          </Trackpoint>
          <Trackpoint>
            <Time>2022-07-09T10:42:15.000Z</Time>
            <Position>
              <LatitudeDegrees>43.3288515172898769378662109375</LatitudeDegrees>
              <LongitudeDegrees>-1.961673796176910400390625</LongitudeDegrees>
            </Position>
            <AltitudeMeters>166.399993896484375</AltitudeMeters>
            <DistanceMeters>NAN</DistanceMeters>
          </Trackpoint>
          <Trackpoint>
            <Time>2022-07-09T10:42:17.000Z</Time>
            <Position>
              <LatitudeDegrees>43.32886300049722194671630859375</LatitudeDegrees>
              <LongitudeDegrees>-1.961742527782917022705078125</LongitudeDegrees>
            </Position>
            <AltitudeMeters>166.399993896484375</AltitudeMeters>
            <DistanceMeters>NAN</DistanceMeters>
          </Trackpoint>
          <Trackpoint>
            <Time>2022-07-09T10:42:20.000Z</Time>
            <Position>
              <LatitudeDegrees>43.32888848148286342620849609375</LatitudeDegrees>
              <LongitudeDegrees>-1.9618107564747333526611328125</LongitudeDegrees>
            </Position>
            <AltitudeMeters>166.1999969482421875</AltitudeMeters>
            <DistanceMeters>NAN</DistanceMeters>
          </Trackpoint>
          <Trackpoint>
            <Time>2022-07-09T10:42:23.000Z</Time>
            <Position>
              <LatitudeDegrees>43.32889057695865631103515625</LatitudeDegrees>
              <LongitudeDegrees>-1.96191594935953617095947265625</LongitudeDegrees>
            </Position>
            <AltitudeMeters>166</AltitudeMeters>
            <DistanceMeters>NAN</DistanceMeters>
          </Trackpoint>
          <Trackpoint>
            <Time>2022-07-09T10:42:24.000Z</Time>
            <Position>
              <LatitudeDegrees>43.32889082841575145721435546875</LatitudeDegrees>
              <LongitudeDegrees>-1.9619435258209705352783203125</LongitudeDegrees>
            </Position>
            <AltitudeMeters>165.399993896484375</AltitudeMeters>
            <DistanceMeters>NAN</DistanceMeters>
          </Trackpoint>
          <Trackpoint>
            <Time>2022-07-09T10:42:26.000Z</Time>
            <Position>
              <LatitudeDegrees>43.3288917504251003265380859375</LatitudeDegrees>
              <LongitudeDegrees>-1.96194964461028575897216796875</LongitudeDegrees>
            </Position>
            <AltitudeMeters>164.600006103515625</AltitudeMeters>
            <DistanceMeters>NAN</DistanceMeters>
          </Trackpoint>
          <Trackpoint>
            <Time>2022-07-09T10:42:27.000Z</Time>
            <Position>
              <LatitudeDegrees>43.3288917504251003265380859375</LatitudeDegrees>
              <LongitudeDegrees>-1.96194964461028575897216796875</LongitudeDegrees>
            </Position>
            <AltitudeMeters>164.399993896484375</AltitudeMeters>
            <DistanceMeters>NAN</DistanceMeters>
          </Trackpoint>
          <Trackpoint>
            <Time>2022-07-09T10:42:33.000Z</Time>
            <Position>
              <LatitudeDegrees>43.32893491722643375396728515625</LatitudeDegrees>
              <LongitudeDegrees>-1.96203715167939662933349609375</LongitudeDegrees>
            </Position>
            <AltitudeMeters>164.399993896484375</AltitudeMeters>
            <DistanceMeters>NAN</DistanceMeters>
          </Trackpoint>
          <Trackpoint>
            <Time>2022-07-09T10:42:34.000Z</Time>
            <Position>
              <LatitudeDegrees>43.32895369268953800201416015625</LatitudeDegrees>
              <LongitudeDegrees>-1.96205290965735912322998046875</LongitudeDegrees>
            </Position>
            <AltitudeMeters>164.399993896484375</AltitudeMeters>
            <DistanceMeters>NAN</DistanceMeters>
          </Trackpoint>
          <Trackpoint>
            <Time>2022-07-09T10:42:35.000Z</Time>
            <Position>
              <LatitudeDegrees>43.3289681933820247650146484375</LatitudeDegrees>
              <LongitudeDegrees>-1.96206799708306789398193359375</LongitudeDegrees>
            </Position>
            <AltitudeMeters>164.399993896484375</AltitudeMeters>
            <DistanceMeters>NAN</DistanceMeters>
          </Trackpoint>
          <Trackpoint>
            <Time>2022-07-09T10:42:36.000Z</Time>
            <Position>
              <LatitudeDegrees>43.328983448445796966552734375</LatitudeDegrees>
              <LongitudeDegrees>-1.9620910473167896270751953125</LongitudeDegrees>
            </Position>
            <AltitudeMeters>164.399993896484375</AltitudeMeters>
            <DistanceMeters>NAN</DistanceMeters>
          </Trackpoint>
          <Trackpoint>
            <Time>2022-07-09T10:42:39.000Z</Time>
            <Position>
              <LatitudeDegrees>43.32900197245180606842041015625</LatitudeDegrees>
              <LongitudeDegrees>-1.962138153612613677978515625</LongitudeDegrees>
            </Position>
            <AltitudeMeters>163.399993896484375</AltitudeMeters>
            <DistanceMeters>NAN</DistanceMeters>
          </Trackpoint>
          <Trackpoint>
            <Time>2022-07-09T10:42:41.000Z</Time>
            <Position>
              <LatitudeDegrees>43.329013623297214508056640625</LatitudeDegrees>
              <LongitudeDegrees>-1.96216891519725322723388671875</LongitudeDegrees>
            </Position>
            <AltitudeMeters>163.1999969482421875</AltitudeMeters>
            <DistanceMeters>NAN</DistanceMeters>
          </Trackpoint>
          <Trackpoint>
            <Time>2022-07-09T10:42:45.000Z</Time>
            <Position>
              <LatitudeDegrees>43.329055197536945343017578125</LatitudeDegrees>
              <LongitudeDegrees>-1.96229011751711368560791015625</LongitudeDegrees>
            </Position>
            <AltitudeMeters>162.399993896484375</AltitudeMeters>
            <DistanceMeters>NAN</DistanceMeters>
          </Trackpoint>
          <Trackpoint>
            <Time>2022-07-09T10:42:46.000Z</Time>
            <Position>
              <LatitudeDegrees>43.32905377261340618133544921875</LatitudeDegrees>
              <LongitudeDegrees>-1.9623331166803836822509765625</LongitudeDegrees>
            </Position>
            <AltitudeMeters>162.1999969482421875</AltitudeMeters>
            <DistanceMeters>NAN</DistanceMeters>
          </Trackpoint>
          <Trackpoint>
            <Time>2022-07-09T10:42:53.000Z</Time>
            <Position>
              <LatitudeDegrees>43.329079337418079376220703125</LatitudeDegrees>
              <LongitudeDegrees>-1.962556578218936920166015625</LongitudeDegrees>
            </Position>
            <AltitudeMeters>161.8000030517578125</AltitudeMeters>
            <DistanceMeters>NAN</DistanceMeters>
          </Trackpoint>
          <Trackpoint>
            <Time>2022-07-09T10:42:55.000Z</Time>
            <Position>
              <LatitudeDegrees>43.32908160053193569183349609375</LatitudeDegrees>
              <LongitudeDegrees>-1.96261751465499401092529296875</LongitudeDegrees>
            </Position>
            <AltitudeMeters>161.8000030517578125</AltitudeMeters>
            <DistanceMeters>NAN</DistanceMeters>
          </Trackpoint>
          <Trackpoint>
            <Time>2022-07-09T10:42:57.000Z</Time>
            <Position>
              <LatitudeDegrees>43.3290714584290981292724609375</LatitudeDegrees>
              <LongitudeDegrees>-1.9626653753221035003662109375</LongitudeDegrees>
            </Position>
            <AltitudeMeters>161.600006103515625</AltitudeMeters>
            <DistanceMeters>NAN</DistanceMeters>
          </Trackpoint>
          <Trackpoint>
            <Time>2022-07-09T10:42:58.000Z</Time>
            <Position>
              <LatitudeDegrees>43.32907405681908130645751953125</LatitudeDegrees>
              <LongitudeDegrees>-1.9626952148973941802978515625</LongitudeDegrees>
            </Position>
            <AltitudeMeters>161.600006103515625</AltitudeMeters>
            <DistanceMeters>NAN</DistanceMeters>
          </Trackpoint>
          <Trackpoint>
            <Time>2022-07-09T10:43:00.000Z</Time>
            <Position>
              <LatitudeDegrees>43.3290924131870269775390625</LatitudeDegrees>
              <LongitudeDegrees>-1.9627654552459716796875</LongitudeDegrees>
            </Position>
            <AltitudeMeters>161.399993896484375</AltitudeMeters>
            <DistanceMeters>NAN</DistanceMeters>
          </Trackpoint>
          <Trackpoint>
            <Time>2022-07-09T10:43:03.000Z</Time>
            <Position>
              <LatitudeDegrees>43.32912434823811054229736328125</LatitudeDegrees>
              <LongitudeDegrees>-1.96285036392509937286376953125</LongitudeDegrees>
            </Position>
            <AltitudeMeters>161.1999969482421875</AltitudeMeters>
            <DistanceMeters>NAN</DistanceMeters>
          </Trackpoint>
          <Trackpoint>
            <Time>2022-07-09T10:43:04.000Z</Time>
            <Position>
              <LatitudeDegrees>43.3291460573673248291015625</LatitudeDegrees>
              <LongitudeDegrees>-1.96288623847067356109619140625</LongitudeDegrees>
            </Position>
            <AltitudeMeters>161</AltitudeMeters>
            <DistanceMeters>NAN</DistanceMeters>
          </Trackpoint>
          <Trackpoint>
            <Time>2022-07-09T10:43:05.000Z</Time>
            <Position>
              <LatitudeDegrees>43.32915402017533779144287109375</LatitudeDegrees>
              <LongitudeDegrees>-1.962929069995880126953125</LongitudeDegrees>
            </Position>
            <AltitudeMeters>160.8000030517578125</AltitudeMeters>
            <DistanceMeters>NAN</DistanceMeters>
          </Trackpoint>
          <Trackpoint>
            <Time>2022-07-09T10:43:06.000Z</Time>
            <Position>
              <LatitudeDegrees>43.32916039042174816131591796875</LatitudeDegrees>
              <LongitudeDegrees>-1.9629500247538089752197265625</LongitudeDegrees>
            </Position>
            <AltitudeMeters>160.399993896484375</AltitudeMeters>
            <DistanceMeters>NAN</DistanceMeters>
          </Trackpoint>
          <Trackpoint>
            <Time>2022-07-09T10:43:08.000Z</Time>
            <Position>
              <LatitudeDegrees>43.32918670959770679473876953125</LatitudeDegrees>
              <LongitudeDegrees>-1.96301917545497417449951171875</LongitudeDegrees>
            </Position>
            <AltitudeMeters>160</AltitudeMeters>
            <DistanceMeters>NAN</DistanceMeters>
          </Trackpoint>
          <Trackpoint>
            <Time>2022-07-09T10:43:09.000Z</Time>
            <Position>
              <LatitudeDegrees>43.32921939902007579803466796875</LatitudeDegrees>
              <LongitudeDegrees>-1.9630672037601470947265625</LongitudeDegrees>
            </Position>
            <AltitudeMeters>159.8000030517578125</AltitudeMeters>
            <DistanceMeters>NAN</DistanceMeters>
          </Trackpoint>
          <Trackpoint>
            <Time>2022-07-09T10:43:10.000Z</Time>
            <Position>
              <LatitudeDegrees>43.32922828383743762969970703125</LatitudeDegrees>
              <LongitudeDegrees>-1.96310567669570446014404296875</LongitudeDegrees>
            </Position>
            <AltitudeMeters>159.8000030517578125</AltitudeMeters>
            <DistanceMeters>NAN</DistanceMeters>
          </Trackpoint>
          <Trackpoint>
            <Time>2022-07-09T10:43:11.000Z</Time>
            <Position>
              <LatitudeDegrees>43.3292370848357677459716796875</LatitudeDegrees>
              <LongitudeDegrees>-1.9631260447204113006591796875</LongitudeDegrees>
            </Position>
            <AltitudeMeters>159.8000030517578125</AltitudeMeters>
            <DistanceMeters>NAN</DistanceMeters>
          </Trackpoint>
          <Trackpoint>
            <Time>2022-07-09T10:43:14.000Z</Time>
            <Position>
              <LatitudeDegrees>43.32930590026080608367919921875</LatitudeDegrees>
              <LongitudeDegrees>-1.96319368667900562286376953125</LongitudeDegrees>
            </Position>
            <AltitudeMeters>159.8000030517578125</AltitudeMeters>
            <DistanceMeters>NAN</DistanceMeters>
          </Trackpoint>
          <Trackpoint>
            <Time>2022-07-09T10:43:15.000Z</Time>
            <Position>
              <LatitudeDegrees>43.3293235860764980316162109375</LatitudeDegrees>
              <LongitudeDegrees>-1.9632256217300891876220703125</LongitudeDegrees>
            </Position>
            <AltitudeMeters>159.8000030517578125</AltitudeMeters>
            <DistanceMeters>NAN</DistanceMeters>
          </Trackpoint>
          <Trackpoint>
            <Time>2022-07-09T10:43:18.000Z</Time>
            <Position>
              <LatitudeDegrees>43.32927186973392963409423828125</LatitudeDegrees>
              <LongitudeDegrees>-1.96323777548968791961669921875</LongitudeDegrees>
            </Position>
            <AltitudeMeters>159.8000030517578125</AltitudeMeters>
            <DistanceMeters>NAN</DistanceMeters>
          </Trackpoint>
          <Trackpoint>
            <Time>2022-07-09T10:43:21.000Z</Time>
            <Position>
              <LatitudeDegrees>43.32928209565579891204833984375</LatitudeDegrees>
              <LongitudeDegrees>-1.96328186430037021636962890625</LongitudeDegrees>
            </Position>
            <AltitudeMeters>159.399993896484375</AltitudeMeters>
            <DistanceMeters>NAN</DistanceMeters>
          </Trackpoint>
          <Trackpoint>
            <Time>2022-07-09T10:43:23.000Z</Time>
            <Position>
              <LatitudeDegrees>43.329301960766315460205078125</LatitudeDegrees>
              <LongitudeDegrees>-1.96333399973809719085693359375</LongitudeDegrees>
            </Position>
            <AltitudeMeters>159</AltitudeMeters>
            <DistanceMeters>NAN</DistanceMeters>
          </Trackpoint>
          <Trackpoint>
            <Time>2022-07-09T10:43:26.000Z</Time>
            <Position>
              <LatitudeDegrees>43.32932501100003719329833984375</LatitudeDegrees>
              <LongitudeDegrees>-1.96340315043926239013671875</LongitudeDegrees>
            </Position>
            <AltitudeMeters>158.1999969482421875</AltitudeMeters>
            <DistanceMeters>NAN</DistanceMeters>
          </Trackpoint>
          <Trackpoint>
            <Time>2022-07-09T10:43:28.000Z</Time>
            <Position>
              <LatitudeDegrees>43.329340852797031402587890625</LatitudeDegrees>
              <LongitudeDegrees>-1.9634509272873401641845703125</LongitudeDegrees>
            </Position>
            <AltitudeMeters>158</AltitudeMeters>
            <DistanceMeters>NAN</DistanceMeters>
          </Trackpoint>
          <Trackpoint>
            <Time>2022-07-09T10:43:29.000Z</Time>
            <Position>
              <LatitudeDegrees>43.3293592929840087890625</LatitudeDegrees>
              <LongitudeDegrees>-1.96347800083458423614501953125</LongitudeDegrees>
            </Position>
            <AltitudeMeters>158</AltitudeMeters>
            <DistanceMeters>NAN</DistanceMeters>
          </Trackpoint>
          <Trackpoint>
            <Time>2022-07-09T10:43:32.000Z</Time>
            <Position>
              <LatitudeDegrees>43.3293993584811687469482421875</LatitudeDegrees>
              <LongitudeDegrees>-1.96356500498950481414794921875</LongitudeDegrees>
            </Position>
            <AltitudeMeters>157.600006103515625</AltitudeMeters>
            <DistanceMeters>NAN</DistanceMeters>
          </Trackpoint>
          <Trackpoint>
            <Time>2022-07-09T10:43:33.000Z</Time>
            <Position>
              <LatitudeDegrees>43.3294117636978626251220703125</LatitudeDegrees>
              <LongitudeDegrees>-1.96360490284860134124755859375</LongitudeDegrees>
            </Position>
            <AltitudeMeters>157.600006103515625</AltitudeMeters>
            <DistanceMeters>NAN</DistanceMeters>
          </Trackpoint>
          <Trackpoint>
            <Time>2022-07-09T10:43:38.000Z</Time>
            <Position>
              <LatitudeDegrees>43.329474292695522308349609375</LatitudeDegrees>
              <LongitudeDegrees>-1.96380154229700565338134765625</LongitudeDegrees>
            </Position>
            <AltitudeMeters>156.600006103515625</AltitudeMeters>
            <DistanceMeters>NAN</DistanceMeters>
          </Trackpoint>
          <Trackpoint>
            <Time>2022-07-09T10:43:39.000Z</Time>
            <Position>
              <LatitudeDegrees>43.32948292605578899383544921875</LatitudeDegrees>
              <LongitudeDegrees>-1.9638314656913280487060546875</LongitudeDegrees>
            </Position>
            <AltitudeMeters>156.399993896484375</AltitudeMeters>
            <DistanceMeters>NAN</DistanceMeters>
          </Trackpoint>
          <Trackpoint>
            <Time>2022-07-09T10:43:43.000Z</Time>
            <Position>
              <LatitudeDegrees>43.32952919416129589080810546875</LatitudeDegrees>
              <LongitudeDegrees>-1.9639665819704532623291015625</LongitudeDegrees>
            </Position>
            <AltitudeMeters>156</AltitudeMeters>
            <DistanceMeters>NAN</DistanceMeters>
          </Trackpoint>
          <Trackpoint>
            <Time>2022-07-09T10:43:45.000Z</Time>
            <Position>
              <LatitudeDegrees>43.3295502327382564544677734375</LatitudeDegrees>
              <LongitudeDegrees>-1.9640356488525867462158203125</LongitudeDegrees>
            </Position>
            <AltitudeMeters>155.600006103515625</AltitudeMeters>
            <DistanceMeters>NAN</DistanceMeters>
          </Trackpoint>
          <Trackpoint>
            <Time>2022-07-09T10:43:46.000Z</Time>
            <Position>
              <LatitudeDegrees>43.32956875674426555633544921875</LatitudeDegrees>
              <LongitudeDegrees>-1.96407177485525608062744140625</LongitudeDegrees>
            </Position>
            <AltitudeMeters>155.399993896484375</AltitudeMeters>
            <DistanceMeters>NAN</DistanceMeters>
          </Trackpoint>
          <Trackpoint>
            <Time>2022-07-09T10:43:47.000Z</Time>
            <Position>
              <LatitudeDegrees>43.329592980444431304931640625</LatitudeDegrees>
              <LongitudeDegrees>-1.964119970798492431640625</LongitudeDegrees>
            </Position>
            <AltitudeMeters>155.399993896484375</AltitudeMeters>
            <DistanceMeters>NAN</DistanceMeters>
          </Trackpoint>
          <Trackpoint>
            <Time>2022-07-09T10:43:50.000Z</Time>
            <Position>
              <LatitudeDegrees>43.32967654801905155181884765625</LatitudeDegrees>
              <LongitudeDegrees>-1.96429372765123844146728515625</LongitudeDegrees>
            </Position>
            <AltitudeMeters>155</AltitudeMeters>
            <DistanceMeters>NAN</DistanceMeters>
          </Trackpoint>
          <Trackpoint>
            <Time>2022-07-09T10:43:53.000Z</Time>
            <Position>
              <LatitudeDegrees>43.32976371981203556060791015625</LatitudeDegrees>
              <LongitudeDegrees>-1.96439883671700954437255859375</LongitudeDegrees>
            </Position>
            <AltitudeMeters>154.8000030517578125</AltitudeMeters>
            <DistanceMeters>NAN</DistanceMeters>
          </Trackpoint>
          <Trackpoint>
            <Time>2022-07-09T10:43:55.000Z</Time>
            <Position>
              <LatitudeDegrees>43.32981057465076446533203125</LatitudeDegrees>
              <LongitudeDegrees>-1.96444644592702388763427734375</LongitudeDegrees>
            </Position>
            <AltitudeMeters>154.600006103515625</AltitudeMeters>
            <DistanceMeters>NAN</DistanceMeters>
          </Trackpoint>
          <Trackpoint>
            <Time>2022-07-09T10:43:57.000Z</Time>
            <Position>
              <LatitudeDegrees>43.3298549987375736236572265625</LatitudeDegrees>
              <LongitudeDegrees>-1.964475028216838836669921875</LongitudeDegrees>
            </Position>
            <AltitudeMeters>154.399993896484375</AltitudeMeters>
            <DistanceMeters>NAN</DistanceMeters>
          </Trackpoint>
          <Trackpoint>
            <Time>2022-07-09T10:44:00.000Z</Time>
            <Position>
              <LatitudeDegrees>43.3298952318727970123291015625</LatitudeDegrees>
              <LongitudeDegrees>-1.96451769210398197174072265625</LongitudeDegrees>
            </Position>
            <AltitudeMeters>153</AltitudeMeters>
            <DistanceMeters>NAN</DistanceMeters>
          </Trackpoint>
          <Trackpoint>
            <Time>2022-07-09T10:44:04.000Z</Time>
            <Position>
              <LatitudeDegrees>43.33001651801168918609619140625</LatitudeDegrees>
              <LongitudeDegrees>-1.9645901955664157867431640625</LongitudeDegrees>
            </Position>
            <AltitudeMeters>152.1999969482421875</AltitudeMeters>
            <DistanceMeters>NAN</DistanceMeters>
          </Trackpoint>
          <Trackpoint>
            <Time>2022-07-09T10:44:07.000Z</Time>
            <Position>
              <LatitudeDegrees>43.33008860237896442413330078125</LatitudeDegrees>
              <LongitudeDegrees>-1.9647033512592315673828125</LongitudeDegrees>
            </Position>
            <AltitudeMeters>152</AltitudeMeters>
            <DistanceMeters>NAN</DistanceMeters>
          </Trackpoint>
          <Trackpoint>
            <Time>2022-07-09T10:44:08.000Z</Time>
            <Position>
              <LatitudeDegrees>43.3301165141165256500244140625</LatitudeDegrees>
              <LongitudeDegrees>-1.9647092185914516448974609375</LongitudeDegrees>
            </Position>
            <AltitudeMeters>151.8000030517578125</AltitudeMeters>
            <DistanceMeters>NAN</DistanceMeters>
          </Trackpoint>
          <Trackpoint>
            <Time>2022-07-09T10:44:09.000Z</Time>
            <Position>
              <LatitudeDegrees>43.33013973198831081390380859375</LatitudeDegrees>
              <LongitudeDegrees>-1.96472422219812870025634765625</LongitudeDegrees>
            </Position>
            <AltitudeMeters>151.600006103515625</AltitudeMeters>
            <DistanceMeters>NAN</DistanceMeters>
          </Trackpoint>
          <Trackpoint>
            <Time>2022-07-09T10:44:10.000Z</Time>
            <Position>
              <LatitudeDegrees>43.3301580883562564849853515625</LatitudeDegrees>
              <LongitudeDegrees>-1.96475137956440448760986328125</LongitudeDegrees>
            </Position>
            <AltitudeMeters>151.600006103515625</AltitudeMeters>
            <DistanceMeters>NAN</DistanceMeters>
          </Trackpoint>
          <Trackpoint>
            <Time>2022-07-09T10:44:13.000Z</Time>
            <Position>
              <LatitudeDegrees>43.3302489481866359710693359375</LatitudeDegrees>
              <LongitudeDegrees>-1.96486436761915683746337890625</LongitudeDegrees>
            </Position>
            <AltitudeMeters>151</AltitudeMeters>
            <DistanceMeters>NAN</DistanceMeters>
          </Trackpoint>
          <Trackpoint>
            <Time>2022-07-09T10:44:16.000Z</Time>
            <Position>
              <LatitudeDegrees>43.33027082495391368865966796875</LatitudeDegrees>
              <LongitudeDegrees>-1.96497634984552860260009765625</LongitudeDegrees>
            </Position>
            <AltitudeMeters>150.399993896484375</AltitudeMeters>
            <DistanceMeters>NAN</DistanceMeters>
          </Trackpoint>
          <Trackpoint>
            <Time>2022-07-09T10:44:17.000Z</Time>
            <Position>
              <LatitudeDegrees>43.33027459681034088134765625</LatitudeDegrees>
              <LongitudeDegrees>-1.9649915210902690887451171875</LongitudeDegrees>
            </Position>
            <AltitudeMeters>149.8000030517578125</AltitudeMeters>
            <DistanceMeters>NAN</DistanceMeters>
          </Trackpoint>
          <Trackpoint>
            <Time>2022-07-09T10:44:23.000Z</Time>
            <Position>
              <LatitudeDegrees>43.33033486269414424896240234375</LatitudeDegrees>
              <LongitudeDegrees>-1.96521623991429805755615234375</LongitudeDegrees>
            </Position>
            <AltitudeMeters>148.8000030517578125</AltitudeMeters>
            <DistanceMeters>NAN</DistanceMeters>
          </Trackpoint>
          <Trackpoint>
            <Time>2022-07-09T10:44:29.000Z</Time>
            <Position>
              <LatitudeDegrees>43.33043226040899753570556640625</LatitudeDegrees>
              <LongitudeDegrees>-1.96545059792697429656982421875</LongitudeDegrees>
            </Position>
            <AltitudeMeters>147.8000030517578125</AltitudeMeters>
            <DistanceMeters>NAN</DistanceMeters>
          </Trackpoint>
          <Trackpoint>
            <Time>2022-07-09T10:44:31.000Z</Time>
            <Position>
              <LatitudeDegrees>43.3304628543555736541748046875</LatitudeDegrees>
              <LongitudeDegrees>-1.96548965759575366973876953125</LongitudeDegrees>
            </Position>
            <AltitudeMeters>147.600006103515625</AltitudeMeters>
            <DistanceMeters>NAN</DistanceMeters>
          </Trackpoint>
          <Trackpoint>
            <Time>2022-07-09T10:44:34.000Z</Time>
            <Position>
              <LatitudeDegrees>43.3305166661739349365234375</LatitudeDegrees>
              <LongitudeDegrees>-1.96562862955033779144287109375</LongitudeDegrees>
            </Position>
            <AltitudeMeters>146.8000030517578125</AltitudeMeters>
            <DistanceMeters>NAN</DistanceMeters>
          </Trackpoint>
          <Trackpoint>
            <Time>2022-07-09T10:44:36.000Z</Time>
            <Position>
              <LatitudeDegrees>43.33054608665406703948974609375</LatitudeDegrees>
              <LongitudeDegrees>-1.9657002948224544525146484375</LongitudeDegrees>
            </Position>
            <AltitudeMeters>146.399993896484375</AltitudeMeters>
            <DistanceMeters>NAN</DistanceMeters>
          </Trackpoint>
          <Trackpoint>
            <Time>2022-07-09T10:44:38.000Z</Time>
            <Position>
              <LatitudeDegrees>43.330584727227687835693359375</LatitudeDegrees>
              <LongitudeDegrees>-1.9657655060291290283203125</LongitudeDegrees>
            </Position>
            <AltitudeMeters>145.8000030517578125</AltitudeMeters>
            <DistanceMeters>NAN</DistanceMeters>
          </Trackpoint>
          <Trackpoint>
            <Time>2022-07-09T10:44:44.000Z</Time>
            <Position>
              <LatitudeDegrees>43.33066125400364398956298828125</LatitudeDegrees>
              <LongitudeDegrees>-1.96594177745282649993896484375</LongitudeDegrees>
            </Position>
            <AltitudeMeters>144.8000030517578125</AltitudeMeters>
            <DistanceMeters>NAN</DistanceMeters>
          </Trackpoint>
          <Trackpoint>
            <Time>2022-07-09T10:44:45.000Z</Time>
            <Position>
              <LatitudeDegrees>43.33067064173519611358642578125</LatitudeDegrees>
              <LongitudeDegrees>-1.96598670445382595062255859375</LongitudeDegrees>
            </Position>
            <AltitudeMeters>144.600006103515625</AltitudeMeters>
            <DistanceMeters>NAN</DistanceMeters>
          </Trackpoint>
          <Trackpoint>
            <Time>2022-07-09T10:44:53.000Z</Time>
            <Position>
              <LatitudeDegrees>43.33079092204570770263671875</LatitudeDegrees>
              <LongitudeDegrees>-1.9663031212985515594482421875</LongitudeDegrees>
            </Position>
            <AltitudeMeters>143.600006103515625</AltitudeMeters>
            <DistanceMeters>NAN</DistanceMeters>
          </Trackpoint>
          <Trackpoint>
            <Time>2022-07-09T10:44:58.000Z</Time>
            <Position>
              <LatitudeDegrees>43.330844901502132415771484375</LatitudeDegrees>
              <LongitudeDegrees>-1.9664570130407810211181640625</LongitudeDegrees>
            </Position>
            <AltitudeMeters>143</AltitudeMeters>
            <DistanceMeters>NAN</DistanceMeters>
          </Trackpoint>
          <Trackpoint>
            <Time>2022-07-09T10:44:59.000Z</Time>
            <Position>
              <LatitudeDegrees>43.33084397949278354644775390625</LatitudeDegrees>
              <LongitudeDegrees>-1.96646757423877716064453125</LongitudeDegrees>
            </Position>
            <AltitudeMeters>143</AltitudeMeters>
            <DistanceMeters>NAN</DistanceMeters>
          </Trackpoint>
          <Trackpoint>
            <Time>2022-07-09T10:45:02.000Z</Time>
            <Position>
              <LatitudeDegrees>43.33085889928042888641357421875</LatitudeDegrees>
              <LongitudeDegrees>-1.9665099866688251495361328125</LongitudeDegrees>
            </Position>
            <AltitudeMeters>142.399993896484375</AltitudeMeters>
            <DistanceMeters>NAN</DistanceMeters>
          </Trackpoint>
          <Trackpoint>
            <Time>2022-07-09T10:45:03.000Z</Time>
            <Position>
              <LatitudeDegrees>43.33086694590747356414794921875</LatitudeDegrees>
              <LongitudeDegrees>-1.96652381680905818939208984375</LongitudeDegrees>
            </Position>
            <AltitudeMeters>142</AltitudeMeters>
            <DistanceMeters>NAN</DistanceMeters>
          </Trackpoint>
          <Trackpoint>
            <Time>2022-07-09T10:45:05.000Z</Time>
            <Position>
              <LatitudeDegrees>43.33089410327374935150146484375</LatitudeDegrees>
              <LongitudeDegrees>-1.96658567525446414947509765625</LongitudeDegrees>
            </Position>
            <AltitudeMeters>138.600006103515625</AltitudeMeters>
            <DistanceMeters>NAN</DistanceMeters>
          </Trackpoint>
          <Trackpoint>
            <Time>2022-07-09T10:45:06.000Z</Time>
            <Position>
              <LatitudeDegrees>43.3309064246714115142822265625</LatitudeDegrees>
              <LongitudeDegrees>-1.9666347093880176544189453125</LongitudeDegrees>
            </Position>
            <AltitudeMeters>137</AltitudeMeters>
            <DistanceMeters>NAN</DistanceMeters>
          </Trackpoint>
          <Trackpoint>
            <Time>2022-07-09T10:45:08.000Z</Time>
            <Position>
              <LatitudeDegrees>43.33093307912349700927734375</LatitudeDegrees>
              <LongitudeDegrees>-1.966721378266811370849609375</LongitudeDegrees>
            </Position>
            <AltitudeMeters>135.600006103515625</AltitudeMeters>
            <DistanceMeters>NAN</DistanceMeters>
          </Trackpoint>
          <Trackpoint>
            <Time>2022-07-09T10:45:13.000Z</Time>
            <Position>
              <LatitudeDegrees>43.330989070236682891845703125</LatitudeDegrees>
              <LongitudeDegrees>-1.96687485091388225555419921875</LongitudeDegrees>
            </Position>
            <AltitudeMeters>134.600006103515625</AltitudeMeters>
            <DistanceMeters>NAN</DistanceMeters>
          </Trackpoint>
          <Trackpoint>
            <Time>2022-07-09T10:45:18.000Z</Time>
            <Position>
              <LatitudeDegrees>43.331013210117816925048828125</LatitudeDegrees>
              <LongitudeDegrees>-1.96707249619066715240478515625</LongitudeDegrees>
            </Position>
            <AltitudeMeters>133.1999969482421875</AltitudeMeters>
            <DistanceMeters>NAN</DistanceMeters>
          </Trackpoint>
          <Trackpoint>
            <Time>2022-07-09T10:45:19.000Z</Time>
            <Position>
              <LatitudeDegrees>43.331016562879085540771484375</LatitudeDegrees>
              <LongitudeDegrees>-1.96712362580001354217529296875</LongitudeDegrees>
            </Position>
            <AltitudeMeters>133</AltitudeMeters>
            <DistanceMeters>NAN</DistanceMeters>
          </Trackpoint>
          <Trackpoint>
            <Time>2022-07-09T10:45:20.000Z</Time>
            <Position>
              <LatitudeDegrees>43.33101362921297550201416015625</LatitudeDegrees>
              <LongitudeDegrees>-1.96716369129717350006103515625</LongitudeDegrees>
            </Position>
            <AltitudeMeters>132.8000030517578125</AltitudeMeters>
            <DistanceMeters>NAN</DistanceMeters>
          </Trackpoint>
          <Trackpoint>
            <Time>2022-07-09T10:45:22.000Z</Time>
            <Position>
              <LatitudeDegrees>43.33100306801497936248779296875</LatitudeDegrees>
              <LongitudeDegrees>-1.9672757573425769805908203125</LongitudeDegrees>
            </Position>
            <AltitudeMeters>132.8000030517578125</AltitudeMeters>
            <DistanceMeters>NAN</DistanceMeters>
          </Trackpoint>
          <Trackpoint>
            <Time>2022-07-09T10:45:27.000Z</Time>
            <Position>
              <LatitudeDegrees>43.33091136999428272247314453125</LatitudeDegrees>
              <LongitudeDegrees>-1.96753098629415035247802734375</LongitudeDegrees>
            </Position>
            <AltitudeMeters>132</AltitudeMeters>
            <DistanceMeters>NAN</DistanceMeters>
          </Trackpoint>
          <Trackpoint>
            <Time>2022-07-09T10:45:28.000Z</Time>
            <Position>
              <LatitudeDegrees>43.33091589622199535369873046875</LatitudeDegrees>
              <LongitudeDegrees>-1.9675962813198566436767578125</LongitudeDegrees>
            </Position>
            <AltitudeMeters>132</AltitudeMeters>
            <DistanceMeters>NAN</DistanceMeters>
          </Trackpoint>
          <Trackpoint>
            <Time>2022-07-09T10:45:32.000Z</Time>
            <Position>
              <LatitudeDegrees>43.3309436403214931488037109375</LatitudeDegrees>
              <LongitudeDegrees>-1.96780373342335224151611328125</LongitudeDegrees>
            </Position>
            <AltitudeMeters>131</AltitudeMeters>
            <DistanceMeters>NAN</DistanceMeters>
          </Trackpoint>
          <Trackpoint>
            <Time>2022-07-09T10:45:37.000Z</Time>
            <Position>
              <LatitudeDegrees>43.33102335222065448760986328125</LatitudeDegrees>
              <LongitudeDegrees>-1.96803792379796504974365234375</LongitudeDegrees>
            </Position>
            <AltitudeMeters>129.8000030517578125</AltitudeMeters>
            <DistanceMeters>NAN</DistanceMeters>
          </Trackpoint>
          <Trackpoint>
            <Time>2022-07-09T10:45:39.000Z</Time>
            <Position>
              <LatitudeDegrees>43.3310261182487010955810546875</LatitudeDegrees>
              <LongitudeDegrees>-1.96810212917625904083251953125</LongitudeDegrees>
            </Position>
            <AltitudeMeters>129.399993896484375</AltitudeMeters>
            <DistanceMeters>NAN</DistanceMeters>
          </Trackpoint>
          <Trackpoint>
            <Time>2022-07-09T10:45:41.000Z</Time>
            <Position>
              <LatitudeDegrees>43.33101094700396060943603515625</LatitudeDegrees>
              <LongitudeDegrees>-1.96815208531916141510009765625</LongitudeDegrees>
            </Position>
            <AltitudeMeters>129.1999969482421875</AltitudeMeters>
            <DistanceMeters>NAN</DistanceMeters>
          </Trackpoint>
          <Trackpoint>
            <Time>2022-07-09T10:45:45.000Z</Time>
            <Position>
              <LatitudeDegrees>43.331078588962554931640625</LatitudeDegrees>
              <LongitudeDegrees>-1.96825300343334674835205078125</LongitudeDegrees>
            </Position>
            <AltitudeMeters>128.600006103515625</AltitudeMeters>
            <DistanceMeters>NAN</DistanceMeters>
          </Trackpoint>
          <Trackpoint>
            <Time>2022-07-09T10:45:46.000Z</Time>
            <Position>
              <LatitudeDegrees>43.33109828643500804901123046875</LatitudeDegrees>
              <LongitudeDegrees>-1.9682956673204898834228515625</LongitudeDegrees>
            </Position>
            <AltitudeMeters>128.600006103515625</AltitudeMeters>
            <DistanceMeters>NAN</DistanceMeters>
          </Trackpoint>
          <Trackpoint>
            <Time>2022-07-09T10:45:50.000Z</Time>
            <Position>
              <LatitudeDegrees>43.33112192340195178985595703125</LatitudeDegrees>
              <LongitudeDegrees>-1.9684532471001148223876953125</LongitudeDegrees>
            </Position>
            <AltitudeMeters>127.8000030517578125</AltitudeMeters>
            <DistanceMeters>NAN</DistanceMeters>
          </Trackpoint>
          <Trackpoint>
            <Time>2022-07-09T10:45:52.000Z</Time>
            <Position>
              <LatitudeDegrees>43.331110440194606781005859375</LatitudeDegrees>
              <LongitudeDegrees>-1.96851854212582111358642578125</LongitudeDegrees>
            </Position>
            <AltitudeMeters>127.59999847412109375</AltitudeMeters>
            <DistanceMeters>NAN</DistanceMeters>
          </Trackpoint>
          <Trackpoint>
            <Time>2022-07-09T10:45:57.000Z</Time>
            <Position>
              <LatitudeDegrees>43.331086635589599609375</LatitudeDegrees>
              <LongitudeDegrees>-1.96867042221128940582275390625</LongitudeDegrees>
            </Position>
            <AltitudeMeters>126.8000030517578125</AltitudeMeters>
            <DistanceMeters>NAN</DistanceMeters>
          </Trackpoint>
          <Trackpoint>
            <Time>2022-07-09T10:45:59.000Z</Time>
            <Position>
              <LatitudeDegrees>43.33106475882232189178466796875</LatitudeDegrees>
              <LongitudeDegrees>-1.9687315262854099273681640625</LongitudeDegrees>
            </Position>
            <AltitudeMeters>126.59999847412109375</AltitudeMeters>
            <DistanceMeters>NAN</DistanceMeters>
          </Trackpoint>
          <Trackpoint>
            <Time>2022-07-09T10:46:03.000Z</Time>
            <Position>
              <LatitudeDegrees>43.331028632819652557373046875</LatitudeDegrees>
              <LongitudeDegrees>-1.96881115436553955078125</LongitudeDegrees>
            </Position>
            <AltitudeMeters>126</AltitudeMeters>
            <DistanceMeters>NAN</DistanceMeters>
          </Trackpoint>
          <Trackpoint>
            <Time>2022-07-09T10:46:07.000Z</Time>
            <Position>
              <LatitudeDegrees>43.3309833705425262451171875</LatitudeDegrees>
              <LongitudeDegrees>-1.96888960897922515869140625</LongitudeDegrees>
            </Position>
            <AltitudeMeters>125.8000030517578125</AltitudeMeters>
            <DistanceMeters>NAN</DistanceMeters>
          </Trackpoint>
          <Trackpoint>
            <Time>2022-07-09T10:46:09.000Z</Time>
            <Position>
              <LatitudeDegrees>43.33098010160028934478759765625</LatitudeDegrees>
              <LongitudeDegrees>-1.9688921235501766204833984375</LongitudeDegrees>
            </Position>
            <AltitudeMeters>125.59999847412109375</AltitudeMeters>
            <DistanceMeters>NAN</DistanceMeters>
          </Trackpoint>
          <Trackpoint>
            <Time>2022-07-09T10:46:10.000Z</Time>
            <Position>
              <LatitudeDegrees>43.33098010160028934478759765625</LatitudeDegrees>
              <LongitudeDegrees>-1.9688921235501766204833984375</LongitudeDegrees>
            </Position>
            <AltitudeMeters>125.40000152587890625</AltitudeMeters>
            <DistanceMeters>NAN</DistanceMeters>
          </Trackpoint>
          <Trackpoint>
            <Time>2022-07-09T10:46:11.000Z</Time>
            <Position>
              <LatitudeDegrees>43.33098010160028934478759765625</LatitudeDegrees>
              <LongitudeDegrees>-1.9688921235501766204833984375</LongitudeDegrees>
            </Position>
            <AltitudeMeters>125.1999969482421875</AltitudeMeters>
            <DistanceMeters>NAN</DistanceMeters>
          </Trackpoint>
          <Trackpoint>
            <Time>2022-07-09T10:46:38.000Z</Time>
            <Position>
              <LatitudeDegrees>43.330964930355548858642578125</LatitudeDegrees>
              <LongitudeDegrees>-1.96893654763698577880859375</LongitudeDegrees>
            </Position>
            <AltitudeMeters>124.59999847412109375</AltitudeMeters>
            <DistanceMeters>NAN</DistanceMeters>
          </Trackpoint>
          <Trackpoint>
            <Time>2022-07-09T10:46:39.000Z</Time>
            <Position>
              <LatitudeDegrees>43.3309516869485378265380859375</LatitudeDegrees>
              <LongitudeDegrees>-1.968965046107769012451171875</LongitudeDegrees>
            </Position>
            <AltitudeMeters>124.40000152587890625</AltitudeMeters>
            <DistanceMeters>NAN</DistanceMeters>
          </Trackpoint>
          <Trackpoint>
            <Time>2022-07-09T10:46:40.000Z</Time>
            <Position>
              <LatitudeDegrees>43.330944478511810302734375</LatitudeDegrees>
              <LongitudeDegrees>-1.96900762617588043212890625</LongitudeDegrees>
            </Position>
            <AltitudeMeters>124.40000152587890625</AltitudeMeters>
            <DistanceMeters>NAN</DistanceMeters>
          </Trackpoint>
          <Trackpoint>
            <Time>2022-07-09T10:46:45.000Z</Time>
            <Position>
              <LatitudeDegrees>43.330920673906803131103515625</LatitudeDegrees>
              <LongitudeDegrees>-1.96927475742995738983154296875</LongitudeDegrees>
            </Position>
            <AltitudeMeters>123.59999847412109375</AltitudeMeters>
            <DistanceMeters>NAN</DistanceMeters>
          </Trackpoint>
          <Trackpoint>
            <Time>2022-07-09T10:46:47.000Z</Time>
            <Position>
              <LatitudeDegrees>43.3309399522840976715087890625</LatitudeDegrees>
              <LongitudeDegrees>-1.9694138132035732269287109375</LongitudeDegrees>
            </Position>
            <AltitudeMeters>123.1999969482421875</AltitudeMeters>
            <DistanceMeters>NAN</DistanceMeters>
          </Trackpoint>
          <Trackpoint>
            <Time>2022-07-09T10:46:50.000Z</Time>
            <Position>
              <LatitudeDegrees>43.3309684507548809051513671875</LatitudeDegrees>
              <LongitudeDegrees>-1.96958220563828945159912109375</LongitudeDegrees>
            </Position>
            <AltitudeMeters>122</AltitudeMeters>
            <DistanceMeters>NAN</DistanceMeters>
          </Trackpoint>
          <Trackpoint>
            <Time>2022-07-09T10:46:52.000Z</Time>
            <Position>
              <LatitudeDegrees>43.330984376370906829833984375</LatitudeDegrees>
              <LongitudeDegrees>-1.96970231831073760986328125</LongitudeDegrees>
            </Position>
            <AltitudeMeters>121.59999847412109375</AltitudeMeters>
            <DistanceMeters>NAN</DistanceMeters>
          </Trackpoint>
          <Trackpoint>
            <Time>2022-07-09T10:46:54.000Z</Time>
            <Position>
              <LatitudeDegrees>43.33098580129444599151611328125</LatitudeDegrees>
              <LongitudeDegrees>-1.96983165107667446136474609375</LongitudeDegrees>
            </Position>
            <AltitudeMeters>120.8000030517578125</AltitudeMeters>
            <DistanceMeters>NAN</DistanceMeters>
          </Trackpoint>
          <Trackpoint>
            <Time>2022-07-09T10:46:55.000Z</Time>
            <Position>
              <LatitudeDegrees>43.3309795148670673370361328125</LatitudeDegrees>
              <LongitudeDegrees>-1.96987875737249851226806640625</LongitudeDegrees>
            </Position>
            <AltitudeMeters>120.40000152587890625</AltitudeMeters>
            <DistanceMeters>NAN</DistanceMeters>
          </Trackpoint>
          <Trackpoint>
            <Time>2022-07-09T10:46:56.000Z</Time>
            <Position>
              <LatitudeDegrees>43.3309647627174854278564453125</LatitudeDegrees>
              <LongitudeDegrees>-1.9699458964169025421142578125</LongitudeDegrees>
            </Position>
            <AltitudeMeters>120</AltitudeMeters>
            <DistanceMeters>NAN</DistanceMeters>
          </Trackpoint>
          <Trackpoint>
            <Time>2022-07-09T10:46:57.000Z</Time>
            <Position>
              <LatitudeDegrees>43.330944813787937164306640625</LatitudeDegrees>
              <LongitudeDegrees>-1.97000733576714992523193359375</LongitudeDegrees>
            </Position>
            <AltitudeMeters>119.8000030517578125</AltitudeMeters>
            <DistanceMeters>NAN</DistanceMeters>
          </Trackpoint>
          <Trackpoint>
            <Time>2022-07-09T10:46:58.000Z</Time>
            <Position>
              <LatitudeDegrees>43.3309117890894412994384765625</LatitudeDegrees>
              <LongitudeDegrees>-1.9700650870800018310546875</LongitudeDegrees>
            </Position>
            <AltitudeMeters>119.59999847412109375</AltitudeMeters>
            <DistanceMeters>NAN</DistanceMeters>
          </Trackpoint>
          <Trackpoint>
            <Time>2022-07-09T10:47:01.000Z</Time>
            <Position>
              <LatitudeDegrees>43.33078413270413875579833984375</LatitudeDegrees>
              <LongitudeDegrees>-1.9701986946165561676025390625</LongitudeDegrees>
            </Position>
            <AltitudeMeters>118.8000030517578125</AltitudeMeters>
            <DistanceMeters>NAN</DistanceMeters>
          </Trackpoint>
          <Trackpoint>
            <Time>2022-07-09T10:47:02.000Z</Time>
            <Position>
              <LatitudeDegrees>43.3307366073131561279296875</LatitudeDegrees>
              <LongitudeDegrees>-1.97023071348667144775390625</LongitudeDegrees>
            </Position>
            <AltitudeMeters>118.40000152587890625</AltitudeMeters>
            <DistanceMeters>NAN</DistanceMeters>
          </Trackpoint>
          <Trackpoint>
            <Time>2022-07-09T10:47:05.000Z</Time>
            <Position>
              <LatitudeDegrees>43.33060048520565032958984375</LatitudeDegrees>
              <LongitudeDegrees>-1.9702885486185550689697265625</LongitudeDegrees>
            </Position>
            <AltitudeMeters>117.59999847412109375</AltitudeMeters>
            <DistanceMeters>NAN</DistanceMeters>
          </Trackpoint>
          <Trackpoint>
            <Time>2022-07-09T10:47:06.000Z</Time>
            <Position>
              <LatitudeDegrees>43.330537118017673492431640625</LatitudeDegrees>
              <LongitudeDegrees>-1.97029952891170978546142578125</LongitudeDegrees>
            </Position>
            <AltitudeMeters>117.40000152587890625</AltitudeMeters>
            <DistanceMeters>NAN</DistanceMeters>
          </Trackpoint>
          <Trackpoint>
            <Time>2022-07-09T10:47:08.000Z</Time>
            <Position>
              <LatitudeDegrees>43.33040610887110233306884765625</LatitudeDegrees>
              <LongitudeDegrees>-1.97030757553875446319580078125</LongitudeDegrees>
            </Position>
            <AltitudeMeters>116.59999847412109375</AltitudeMeters>
            <DistanceMeters>NAN</DistanceMeters>
          </Trackpoint>
          <Trackpoint>
            <Time>2022-07-09T10:47:09.000Z</Time>
            <Position>
              <LatitudeDegrees>43.330348692834377288818359375</LatitudeDegrees>
              <LongitudeDegrees>-1.97030187584459781646728515625</LongitudeDegrees>
            </Position>
            <AltitudeMeters>116.40000152587890625</AltitudeMeters>
            <DistanceMeters>NAN</DistanceMeters>
          </Trackpoint>
          <Trackpoint>
            <Time>2022-07-09T10:47:11.000Z</Time>
            <Position>
              <LatitudeDegrees>43.33026328124105930328369140625</LatitudeDegrees>
              <LongitudeDegrees>-1.970289051532745361328125</LongitudeDegrees>
            </Position>
            <AltitudeMeters>115.8000030517578125</AltitudeMeters>
            <DistanceMeters>NAN</DistanceMeters>
          </Trackpoint>
          <Trackpoint>
            <Time>2022-07-09T10:47:13.000Z</Time>
            <Position>
              <LatitudeDegrees>43.33019739948213100433349609375</LatitudeDegrees>
              <LongitudeDegrees>-1.97026801295578479766845703125</LongitudeDegrees>
            </Position>
            <AltitudeMeters>115.1999969482421875</AltitudeMeters>
            <DistanceMeters>NAN</DistanceMeters>
          </Trackpoint>
          <Trackpoint>
            <Time>2022-07-09T10:47:18.000Z</Time>
            <Position>
              <LatitudeDegrees>43.33002875559031963348388671875</LatitudeDegrees>
              <LongitudeDegrees>-1.97012116201221942901611328125</LongitudeDegrees>
            </Position>
            <AltitudeMeters>114.40000152587890625</AltitudeMeters>
            <DistanceMeters>NAN</DistanceMeters>
          </Trackpoint>
          <Trackpoint>
            <Time>2022-07-09T10:47:19.000Z</Time>
            <Position>
              <LatitudeDegrees>43.32998299039900302886962890625</LatitudeDegrees>
              <LongitudeDegrees>-1.97007724083960056304931640625</LongitudeDegrees>
            </Position>
            <AltitudeMeters>114</AltitudeMeters>
            <DistanceMeters>NAN</DistanceMeters>
          </Trackpoint>
          <Trackpoint>
            <Time>2022-07-09T10:47:22.000Z</Time>
            <Position>
              <LatitudeDegrees>43.329884000122547149658203125</LatitudeDegrees>
              <LongitudeDegrees>-1.96996157057583332061767578125</LongitudeDegrees>
            </Position>
            <AltitudeMeters>112.8000030517578125</AltitudeMeters>
            <DistanceMeters>NAN</DistanceMeters>
          </Trackpoint>
          <Trackpoint>
            <Time>2022-07-09T10:47:23.000Z</Time>
            <Position>
              <LatitudeDegrees>43.3298720978200435638427734375</LatitudeDegrees>
              <LongitudeDegrees>-1.9699502550065517425537109375</LongitudeDegrees>
            </Position>
            <AltitudeMeters>112.40000152587890625</AltitudeMeters>
            <DistanceMeters>NAN</DistanceMeters>
          </Trackpoint>
          <Trackpoint>
            <Time>2022-07-09T10:47:25.000Z</Time>
            <Position>
              <LatitudeDegrees>43.329842090606689453125</LatitudeDegrees>
              <LongitudeDegrees>-1.96991982869803905487060546875</LongitudeDegrees>
            </Position>
            <AltitudeMeters>112</AltitudeMeters>
            <DistanceMeters>NAN</DistanceMeters>
          </Trackpoint>
          <Trackpoint>
            <Time>2022-07-09T10:47:26.000Z</Time>
            <Position>
              <LatitudeDegrees>43.329816944897174835205078125</LatitudeDegrees>
              <LongitudeDegrees>-1.9699019752442836761474609375</LongitudeDegrees>
            </Position>
            <AltitudeMeters>111.8000030517578125</AltitudeMeters>
            <DistanceMeters>NAN</DistanceMeters>
          </Trackpoint>
          <Trackpoint>
            <Time>2022-07-09T10:47:27.000Z</Time>
            <Position>
              <LatitudeDegrees>43.32980277948081493377685546875</LatitudeDegrees>
              <LongitudeDegrees>-1.96988026611506938934326171875</LongitudeDegrees>
            </Position>
            <AltitudeMeters>111.59999847412109375</AltitudeMeters>
            <DistanceMeters>NAN</DistanceMeters>
          </Trackpoint>
          <Trackpoint>
            <Time>2022-07-09T10:47:30.000Z</Time>
            <Position>
              <LatitudeDegrees>43.3297373168170452117919921875</LatitudeDegrees>
              <LongitudeDegrees>-1.9697941839694976806640625</LongitudeDegrees>
            </Position>
            <AltitudeMeters>111.40000152587890625</AltitudeMeters>
            <DistanceMeters>NAN</DistanceMeters>
          </Trackpoint>
          <Trackpoint>
            <Time>2022-07-09T10:47:33.000Z</Time>
            <Position>
              <LatitudeDegrees>43.32966045476496219635009765625</LatitudeDegrees>
              <LongitudeDegrees>-1.969678513705730438232421875</LongitudeDegrees>
            </Position>
            <AltitudeMeters>111</AltitudeMeters>
            <DistanceMeters>NAN</DistanceMeters>
          </Trackpoint>
          <Trackpoint>
            <Time>2022-07-09T10:47:35.000Z</Time>
            <Position>
              <LatitudeDegrees>43.3296182937920093536376953125</LatitudeDegrees>
              <LongitudeDegrees>-1.9695894978940486907958984375</LongitudeDegrees>
            </Position>
            <AltitudeMeters>110.8000030517578125</AltitudeMeters>
            <DistanceMeters>NAN</DistanceMeters>
          </Trackpoint>
          <Trackpoint>
            <Time>2022-07-09T10:47:40.000Z</Time>
            <Position>
              <LatitudeDegrees>43.3295349776744842529296875</LatitudeDegrees>
              <LongitudeDegrees>-1.9694104604423046112060546875</LongitudeDegrees>
            </Position>
            <AltitudeMeters>109.59999847412109375</AltitudeMeters>
            <DistanceMeters>NAN</DistanceMeters>
          </Trackpoint>
          <Trackpoint>
            <Time>2022-07-09T10:47:41.000Z</Time>
            <Position>
              <LatitudeDegrees>43.3295237459242343902587890625</LatitudeDegrees>
              <LongitudeDegrees>-1.9693906791508197784423828125</LongitudeDegrees>
            </Position>
            <AltitudeMeters>109.40000152587890625</AltitudeMeters>
            <DistanceMeters>NAN</DistanceMeters>
          </Trackpoint>
          <Trackpoint>
            <Time>2022-07-09T10:47:45.000Z</Time>
            <Position>
              <LatitudeDegrees>43.32951595075428485870361328125</LatitudeDegrees>
              <LongitudeDegrees>-1.9693839736282825469970703125</LongitudeDegrees>
            </Position>
            <AltitudeMeters>109</AltitudeMeters>
            <DistanceMeters>NAN</DistanceMeters>
          </Trackpoint>
          <Trackpoint>
            <Time>2022-07-09T10:47:46.000Z</Time>
            <Position>
              <LatitudeDegrees>43.32951595075428485870361328125</LatitudeDegrees>
              <LongitudeDegrees>-1.9693839736282825469970703125</LongitudeDegrees>
            </Position>
            <AltitudeMeters>108.8000030517578125</AltitudeMeters>
            <DistanceMeters>NAN</DistanceMeters>
          </Trackpoint>
          <Trackpoint>
            <Time>2022-07-09T10:49:13.000Z</Time>
            <Position>
              <LatitudeDegrees>43.32949365489184856414794921875</LatitudeDegrees>
              <LongitudeDegrees>-1.9693286530673503875732421875</LongitudeDegrees>
            </Position>
            <AltitudeMeters>106.8000030517578125</AltitudeMeters>
            <DistanceMeters>NAN</DistanceMeters>
          </Trackpoint>
          <Trackpoint>
            <Time>2022-07-09T10:49:14.000Z</Time>
            <Position>
              <LatitudeDegrees>43.32947839982807636260986328125</LatitudeDegrees>
              <LongitudeDegrees>-1.9693033397197723388671875</LongitudeDegrees>
            </Position>
            <AltitudeMeters>106.8000030517578125</AltitudeMeters>
            <DistanceMeters>NAN</DistanceMeters>
          </Trackpoint>
          <Trackpoint>
            <Time>2022-07-09T10:49:15.000Z</Time>
            <Position>
              <LatitudeDegrees>43.3294600434601306915283203125</LatitudeDegrees>
              <LongitudeDegrees>-1.969277858734130859375</LongitudeDegrees>
            </Position>
            <AltitudeMeters>106.8000030517578125</AltitudeMeters>
            <DistanceMeters>NAN</DistanceMeters>
          </Trackpoint>
          <Trackpoint>
            <Time>2022-07-09T10:49:21.000Z</Time>
            <Position>
              <LatitudeDegrees>43.329367339611053466796875</LatitudeDegrees>
              <LongitudeDegrees>-1.9690684787929058074951171875</LongitudeDegrees>
            </Position>
            <AltitudeMeters>105.59999847412109375</AltitudeMeters>
            <DistanceMeters>NAN</DistanceMeters>
          </Trackpoint>
          <Trackpoint>
            <Time>2022-07-09T10:49:22.000Z</Time>
            <Position>
              <LatitudeDegrees>43.32936130464076995849609375</LatitudeDegrees>
              <LongitudeDegrees>-1.96904609911143779754638671875</LongitudeDegrees>
            </Position>
            <AltitudeMeters>105.1999969482421875</AltitudeMeters>
            <DistanceMeters>NAN</DistanceMeters>
          </Trackpoint>
          <Trackpoint>
            <Time>2022-07-09T10:49:25.000Z</Time>
            <Position>
              <LatitudeDegrees>43.32935837097465991973876953125</LatitudeDegrees>
              <LongitudeDegrees>-1.96904090233147144317626953125</LongitudeDegrees>
            </Position>
            <AltitudeMeters>104.8000030517578125</AltitudeMeters>
            <DistanceMeters>NAN</DistanceMeters>
          </Trackpoint>
          <Trackpoint>
            <Time>2022-07-09T10:49:31.000Z</Time>
            <Position>
              <LatitudeDegrees>43.32934546284377574920654296875</LatitudeDegrees>
              <LongitudeDegrees>-1.96899019181728363037109375</LongitudeDegrees>
            </Position>
            <AltitudeMeters>104.40000152587890625</AltitudeMeters>
            <DistanceMeters>NAN</DistanceMeters>
          </Trackpoint>
          <Trackpoint>
            <Time>2022-07-09T10:49:33.000Z</Time>
            <Position>
              <LatitudeDegrees>43.32931243814527988433837890625</LatitudeDegrees>
              <LongitudeDegrees>-1.968918107450008392333984375</LongitudeDegrees>
            </Position>
            <AltitudeMeters>104.40000152587890625</AltitudeMeters>
            <DistanceMeters>NAN</DistanceMeters>
          </Trackpoint>
          <Trackpoint>
            <Time>2022-07-09T10:49:35.000Z</Time>
            <Position>
              <LatitudeDegrees>43.32927488721907138824462890625</LatitudeDegrees>
              <LongitudeDegrees>-1.96882431395351886749267578125</LongitudeDegrees>
            </Position>
            <AltitudeMeters>104.1999969482421875</AltitudeMeters>
            <DistanceMeters>NAN</DistanceMeters>
          </Trackpoint>
          <Trackpoint>
            <Time>2022-07-09T10:49:38.000Z</Time>
            <Position>
              <LatitudeDegrees>43.3292323909699916839599609375</LatitudeDegrees>
              <LongitudeDegrees>-1.9686584360897541046142578125</LongitudeDegrees>
            </Position>
            <AltitudeMeters>103.8000030517578125</AltitudeMeters>
            <DistanceMeters>NAN</DistanceMeters>
          </Trackpoint>
          <Trackpoint>
            <Time>2022-07-09T10:49:41.000Z</Time>
            <Position>
              <LatitudeDegrees>43.3291529305279254913330078125</LatitudeDegrees>
              <LongitudeDegrees>-1.96853312663733959197998046875</LongitudeDegrees>
            </Position>
            <AltitudeMeters>103.40000152587890625</AltitudeMeters>
            <DistanceMeters>NAN</DistanceMeters>
          </Trackpoint>
          <Trackpoint>
            <Time>2022-07-09T10:49:43.000Z</Time>
            <Position>
              <LatitudeDegrees>43.32909987308084964752197265625</LatitudeDegrees>
              <LongitudeDegrees>-1.968496330082416534423828125</LongitudeDegrees>
            </Position>
            <AltitudeMeters>102.8000030517578125</AltitudeMeters>
            <DistanceMeters>NAN</DistanceMeters>
          </Trackpoint>
          <Trackpoint>
            <Time>2022-07-09T10:49:45.000Z</Time>
            <Position>
              <LatitudeDegrees>43.32907573319971561431884765625</LatitudeDegrees>
              <LongitudeDegrees>-1.96847914718091487884521484375</LongitudeDegrees>
            </Position>
            <AltitudeMeters>102.40000152587890625</AltitudeMeters>
            <DistanceMeters>NAN</DistanceMeters>
          </Trackpoint>
          <Trackpoint>
            <Time>2022-07-09T10:49:46.000Z</Time>
            <Position>
              <LatitudeDegrees>43.32907221280038356781005859375</LatitudeDegrees>
              <LongitudeDegrees>-1.9684720225632190704345703125</LongitudeDegrees>
            </Position>
            <AltitudeMeters>102.40000152587890625</AltitudeMeters>
            <DistanceMeters>NAN</DistanceMeters>
          </Trackpoint>
          <Trackpoint>
            <Time>2022-07-09T10:49:47.000Z</Time>
            <Position>
              <LatitudeDegrees>43.3290694467723369598388671875</LatitudeDegrees>
              <LongitudeDegrees>-1.96846892125904560089111328125</LongitudeDegrees>
            </Position>
            <AltitudeMeters>102.1999969482421875</AltitudeMeters>
            <DistanceMeters>NAN</DistanceMeters>
          </Trackpoint>
          <Trackpoint>
            <Time>2022-07-09T10:49:49.000Z</Time>
            <Position>
              <LatitudeDegrees>43.3290724642574787139892578125</LatitudeDegrees>
              <LongitudeDegrees>-1.968468166887760162353515625</LongitudeDegrees>
            </Position>
            <AltitudeMeters>101.8000030517578125</AltitudeMeters>
            <DistanceMeters>NAN</DistanceMeters>
          </Trackpoint>
          <Trackpoint>
            <Time>2022-07-09T10:50:02.000Z</Time>
            <Position>
              <LatitudeDegrees>43.32905092276632785797119140625</LatitudeDegrees>
              <LongitudeDegrees>-1.96852491237223148345947265625</LongitudeDegrees>
            </Position>
            <AltitudeMeters>101.40000152587890625</AltitudeMeters>
            <DistanceMeters>NAN</DistanceMeters>
          </Trackpoint>
          <Trackpoint>
            <Time>2022-07-09T10:50:03.000Z</Time>
            <Position>
              <LatitudeDegrees>43.3290221728384494781494140625</LatitudeDegrees>
              <LongitudeDegrees>-1.9685115851461887359619140625</LongitudeDegrees>
            </Position>
            <AltitudeMeters>101</AltitudeMeters>
            <DistanceMeters>NAN</DistanceMeters>
          </Trackpoint>
          <Trackpoint>
            <Time>2022-07-09T10:50:07.000Z</Time>
            <Position>
              <LatitudeDegrees>43.32890524528920650482177734375</LatitudeDegrees>
              <LongitudeDegrees>-1.96849205531179904937744140625</LongitudeDegrees>
            </Position>
            <AltitudeMeters>99.1999969482421875</AltitudeMeters>
            <DistanceMeters>NAN</DistanceMeters>
          </Trackpoint>
          <Trackpoint>
            <Time>2022-07-09T10:50:10.000Z</Time>
            <Position>
              <LatitudeDegrees>43.32882628776133060455322265625</LatitudeDegrees>
              <LongitudeDegrees>-1.96845718659460544586181640625</LongitudeDegrees>
            </Position>
            <AltitudeMeters>97.59999847412109375</AltitudeMeters>
            <DistanceMeters>NAN</DistanceMeters>
          </Trackpoint>
          <Trackpoint>
            <Time>2022-07-09T10:50:12.000Z</Time>
            <Position>
              <LatitudeDegrees>43.3287653513252735137939453125</LatitudeDegrees>
              <LongitudeDegrees>-1.96843606419861316680908203125</LongitudeDegrees>
            </Position>
            <AltitudeMeters>96.1999969482421875</AltitudeMeters>
            <DistanceMeters>NAN</DistanceMeters>
          </Trackpoint>
          <Trackpoint>
            <Time>2022-07-09T10:50:14.000Z</Time>
            <Position>
              <LatitudeDegrees>43.32868681289255619049072265625</LatitudeDegrees>
              <LongitudeDegrees>-1.968421898782253265380859375</LongitudeDegrees>
            </Position>
            <AltitudeMeters>95</AltitudeMeters>
            <DistanceMeters>NAN</DistanceMeters>
          </Trackpoint>
          <Trackpoint>
            <Time>2022-07-09T10:50:16.000Z</Time>
            <Position>
              <LatitudeDegrees>43.3286265470087528228759765625</LatitudeDegrees>
              <LongitudeDegrees>-1.96840471588075160980224609375</LongitudeDegrees>
            </Position>
            <AltitudeMeters>93.40000152587890625</AltitudeMeters>
            <DistanceMeters>NAN</DistanceMeters>
          </Trackpoint>
          <Trackpoint>
            <Time>2022-07-09T10:50:18.000Z</Time>
            <Position>
              <LatitudeDegrees>43.3285490982234477996826171875</LatitudeDegrees>
              <LongitudeDegrees>-1.96839264594018459320068359375</LongitudeDegrees>
            </Position>
            <AltitudeMeters>91.8000030517578125</AltitudeMeters>
            <DistanceMeters>NAN</DistanceMeters>
          </Trackpoint>
          <Trackpoint>
            <Time>2022-07-09T10:50:20.000Z</Time>
            <Position>
              <LatitudeDegrees>43.32849629223346710205078125</LatitudeDegrees>
              <LongitudeDegrees>-1.968386359512805938720703125</LongitudeDegrees>
            </Position>
            <AltitudeMeters>90.40000152587890625</AltitudeMeters>
            <DistanceMeters>NAN</DistanceMeters>
          </Trackpoint>
          <Trackpoint>
            <Time>2022-07-09T10:50:22.000Z</Time>
            <Position>
              <LatitudeDegrees>43.3284713141620159149169921875</LatitudeDegrees>
              <LongitudeDegrees>-1.96838040836155414581298828125</LongitudeDegrees>
            </Position>
            <AltitudeMeters>89.40000152587890625</AltitudeMeters>
            <DistanceMeters>NAN</DistanceMeters>
          </Trackpoint>
          <Trackpoint>
            <Time>2022-07-09T10:50:23.000Z</Time>
            <Position>
              <LatitudeDegrees>43.32846687175333499908447265625</LatitudeDegrees>
              <LongitudeDegrees>-1.96838133037090301513671875</LongitudeDegrees>
            </Position>
            <AltitudeMeters>88.8000030517578125</AltitudeMeters>
            <DistanceMeters>NAN</DistanceMeters>
          </Trackpoint>
          <Trackpoint>
            <Time>2022-07-09T10:50:24.000Z</Time>
            <Position>
              <LatitudeDegrees>43.32845228724181652069091796875</LatitudeDegrees>
              <LongitudeDegrees>-1.96837923489511013031005859375</LongitudeDegrees>
            </Position>
            <AltitudeMeters>88.1999969482421875</AltitudeMeters>
            <DistanceMeters>NAN</DistanceMeters>
          </Trackpoint>
          <Trackpoint>
            <Time>2022-07-09T10:50:27.000Z</Time>
            <Position>
              <LatitudeDegrees>43.32840216346085071563720703125</LatitudeDegrees>
              <LongitudeDegrees>-1.96835995651781558990478515625</LongitudeDegrees>
            </Position>
            <AltitudeMeters>86.59999847412109375</AltitudeMeters>
            <DistanceMeters>NAN</DistanceMeters>
          </Trackpoint>
          <Trackpoint>
            <Time>2022-07-09T10:50:29.000Z</Time>
            <Position>
              <LatitudeDegrees>43.328346423804759979248046875</LatitudeDegrees>
              <LongitudeDegrees>-1.968346126377582550048828125</LongitudeDegrees>
            </Position>
            <AltitudeMeters>85</AltitudeMeters>
            <DistanceMeters>NAN</DistanceMeters>
          </Trackpoint>
          <Trackpoint>
            <Time>2022-07-09T10:50:31.000Z</Time>
            <Position>
              <LatitudeDegrees>43.328280039131641387939453125</LatitudeDegrees>
              <LongitudeDegrees>-1.96833246387541294097900390625</LongitudeDegrees>
            </Position>
            <AltitudeMeters>83.40000152587890625</AltitudeMeters>
            <DistanceMeters>NAN</DistanceMeters>
          </Trackpoint>
          <Trackpoint>
            <Time>2022-07-09T10:50:33.000Z</Time>
            <Position>
              <LatitudeDegrees>43.3282154984772205352783203125</LatitudeDegrees>
              <LongitudeDegrees>-1.96832274086773395538330078125</LongitudeDegrees>
            </Position>
            <AltitudeMeters>81.8000030517578125</AltitudeMeters>
            <DistanceMeters>NAN</DistanceMeters>
          </Trackpoint>
          <Trackpoint>
            <Time>2022-07-09T10:50:35.000Z</Time>
            <Position>
              <LatitudeDegrees>43.32818113267421722412109375</LatitudeDegrees>
              <LongitudeDegrees>-1.9683198072016239166259765625</LongitudeDegrees>
            </Position>
            <AltitudeMeters>80.59999847412109375</AltitudeMeters>
            <DistanceMeters>NAN</DistanceMeters>
          </Trackpoint>
          <Trackpoint>
            <Time>2022-07-09T10:50:37.000Z</Time>
            <Position>
              <LatitudeDegrees>43.32813561893999576568603515625</LatitudeDegrees>
              <LongitudeDegrees>-1.96832844056189060211181640625</LongitudeDegrees>
            </Position>
            <AltitudeMeters>78.8000030517578125</AltitudeMeters>
            <DistanceMeters>NAN</DistanceMeters>
          </Trackpoint>
          <Trackpoint>
            <Time>2022-07-09T10:50:39.000Z</Time>
            <Position>
              <LatitudeDegrees>43.328079879283905029296875</LatitudeDegrees>
              <LongitudeDegrees>-1.9683385826647281646728515625</LongitudeDegrees>
            </Position>
            <AltitudeMeters>77.1999969482421875</AltitudeMeters>
            <DistanceMeters>NAN</DistanceMeters>
          </Trackpoint>
          <Trackpoint>
            <Time>2022-07-09T10:50:40.000Z</Time>
            <Position>
              <LatitudeDegrees>43.3280595950782299041748046875</LatitudeDegrees>
              <LongitudeDegrees>-1.96834302507340908050537109375</LongitudeDegrees>
            </Position>
            <AltitudeMeters>76.1999969482421875</AltitudeMeters>
            <DistanceMeters>NAN</DistanceMeters>
          </Trackpoint>
          <Trackpoint>
            <Time>2022-07-09T10:50:41.000Z</Time>
            <Position>
              <LatitudeDegrees>43.328047357499599456787109375</LatitudeDegrees>
              <LongitudeDegrees>-1.96834520436823368072509765625</LongitudeDegrees>
            </Position>
            <AltitudeMeters>75.1999969482421875</AltitudeMeters>
            <DistanceMeters>NAN</DistanceMeters>
          </Trackpoint>
          <Trackpoint>
            <Time>2022-07-09T10:50:43.000Z</Time>
            <Position>
              <LatitudeDegrees>43.32804291509091854095458984375</LatitudeDegrees>
              <LongitudeDegrees>-1.96834486909210681915283203125</LongitudeDegrees>
            </Position>
            <AltitudeMeters>73.8000030517578125</AltitudeMeters>
            <DistanceMeters>NAN</DistanceMeters>
          </Trackpoint>
          <Trackpoint>
            <Time>2022-07-09T10:50:44.000Z</Time>
            <Position>
              <LatitudeDegrees>43.32804291509091854095458984375</LatitudeDegrees>
              <LongitudeDegrees>-1.96834486909210681915283203125</LongitudeDegrees>
            </Position>
            <AltitudeMeters>73.40000152587890625</AltitudeMeters>
            <DistanceMeters>NAN</DistanceMeters>
          </Trackpoint>
          <Trackpoint>
            <Time>2022-07-09T10:50:47.000Z</Time>
            <Position>
              <LatitudeDegrees>43.327987678349018096923828125</LatitudeDegrees>
              <LongitudeDegrees>-1.96836565621197223663330078125</LongitudeDegrees>
            </Position>
            <AltitudeMeters>72.59999847412109375</AltitudeMeters>
            <DistanceMeters>NAN</DistanceMeters>
          </Trackpoint>
          <Trackpoint>
            <Time>2022-07-09T10:50:49.000Z</Time>
            <Position>
              <LatitudeDegrees>43.327987678349018096923828125</LatitudeDegrees>
              <LongitudeDegrees>-1.96836565621197223663330078125</LongitudeDegrees>
            </Position>
            <AltitudeMeters>72.1999969482421875</AltitudeMeters>
            <DistanceMeters>NAN</DistanceMeters>
          </Trackpoint>
          <Trackpoint>
            <Time>2022-07-09T10:51:38.000Z</Time>
            <Position>
              <LatitudeDegrees>43.3279375545680522918701171875</LatitudeDegrees>
              <LongitudeDegrees>-1.96848325431346893310546875</LongitudeDegrees>
            </Position>
            <AltitudeMeters>67.59999847412109375</AltitudeMeters>
            <DistanceMeters>NAN</DistanceMeters>
          </Trackpoint>
          <Trackpoint>
            <Time>2022-07-09T10:51:41.000Z</Time>
            <Position>
              <LatitudeDegrees>43.3279181085526943206787109375</LatitudeDegrees>
              <LongitudeDegrees>-1.9686088152229785919189453125</LongitudeDegrees>
            </Position>
            <AltitudeMeters>66.1999969482421875</AltitudeMeters>
            <DistanceMeters>NAN</DistanceMeters>
          </Trackpoint>
          <Trackpoint>
            <Time>2022-07-09T10:51:43.000Z</Time>
            <Position>
              <LatitudeDegrees>43.32790830172598361968994140625</LatitudeDegrees>
              <LongitudeDegrees>-1.9686919637024402618408203125</LongitudeDegrees>
            </Position>
            <AltitudeMeters>65</AltitudeMeters>
            <DistanceMeters>NAN</DistanceMeters>
          </Trackpoint>
          <Trackpoint>
            <Time>2022-07-09T10:51:44.000Z</Time>
            <Position>
              <LatitudeDegrees>43.32789556123316287994384765625</LatitudeDegrees>
              <LongitudeDegrees>-1.9687291793525218963623046875</LongitudeDegrees>
            </Position>
            <AltitudeMeters>64.1999969482421875</AltitudeMeters>
            <DistanceMeters>NAN</DistanceMeters>
          </Trackpoint>
          <Trackpoint>
            <Time>2022-07-09T10:51:45.000Z</Time>
            <Position>
              <LatitudeDegrees>43.32787913270294666290283203125</LatitudeDegrees>
              <LongitudeDegrees>-1.96876144967973232269287109375</LongitudeDegrees>
            </Position>
            <AltitudeMeters>63.59999847412109375</AltitudeMeters>
            <DistanceMeters>NAN</DistanceMeters>
          </Trackpoint>
          <Trackpoint>
            <Time>2022-07-09T10:51:47.000Z</Time>
            <Position>
              <LatitudeDegrees>43.32782280631363391876220703125</LatitudeDegrees>
              <LongitudeDegrees>-1.968820877373218536376953125</LongitudeDegrees>
            </Position>
            <AltitudeMeters>61.59999847412109375</AltitudeMeters>
            <DistanceMeters>NAN</DistanceMeters>
          </Trackpoint>
          <Trackpoint>
            <Time>2022-07-09T10:51:49.000Z</Time>
            <Position>
              <LatitudeDegrees>43.32775725983083248138427734375</LatitudeDegrees>
              <LongitudeDegrees>-1.9688746891915798187255859375</LongitudeDegrees>
            </Position>
            <AltitudeMeters>59.59999847412109375</AltitudeMeters>
            <DistanceMeters>NAN</DistanceMeters>
          </Trackpoint>
          <Trackpoint>
            <Time>2022-07-09T10:51:50.000Z</Time>
            <Position>
              <LatitudeDegrees>43.32772306166589260101318359375</LatitudeDegrees>
              <LongitudeDegrees>-1.96889924816787242889404296875</LongitudeDegrees>
            </Position>
            <AltitudeMeters>58.59999847412109375</AltitudeMeters>
            <DistanceMeters>NAN</DistanceMeters>
          </Trackpoint>
          <Trackpoint>
            <Time>2022-07-09T10:51:51.000Z</Time>
            <Position>
              <LatitudeDegrees>43.32768048159778118133544921875</LatitudeDegrees>
              <LongitudeDegrees>-1.968928836286067962646484375</LongitudeDegrees>
            </Position>
            <AltitudeMeters>57.799999237060546875</AltitudeMeters>
            <DistanceMeters>NAN</DistanceMeters>
          </Trackpoint>
          <Trackpoint>
            <Time>2022-07-09T10:51:52.000Z</Time>
            <Position>
              <LatitudeDegrees>43.32762935198843479156494140625</LatitudeDegrees>
              <LongitudeDegrees>-1.968970410525798797607421875</LongitudeDegrees>
            </Position>
            <AltitudeMeters>57.200000762939453125</AltitudeMeters>
            <DistanceMeters>NAN</DistanceMeters>
          </Trackpoint>
          <Trackpoint>
            <Time>2022-07-09T10:51:53.000Z</Time>
            <Position>
              <LatitudeDegrees>43.327575623989105224609375</LatitudeDegrees>
              <LongitudeDegrees>-1.96901089511811733245849609375</LongitudeDegrees>
            </Position>
            <AltitudeMeters>55.200000762939453125</AltitudeMeters>
            <DistanceMeters>NAN</DistanceMeters>
          </Trackpoint>
          <Trackpoint>
            <Time>2022-07-09T10:51:54.000Z</Time>
            <Position>
              <LatitudeDegrees>43.32752172835171222686767578125</LatitudeDegrees>
              <LongitudeDegrees>-1.96905498392879962921142578125</LongitudeDegrees>
            </Position>
            <AltitudeMeters>53.799999237060546875</AltitudeMeters>
            <DistanceMeters>NAN</DistanceMeters>
          </Trackpoint>
          <Trackpoint>
            <Time>2022-07-09T10:51:55.000Z</Time>
            <Position>
              <LatitudeDegrees>43.32746758125722408294677734375</LatitudeDegrees>
              <LongitudeDegrees>-1.96909907273948192596435546875</LongitudeDegrees>
            </Position>
            <AltitudeMeters>52.59999847412109375</AltitudeMeters>
            <DistanceMeters>NAN</DistanceMeters>
          </Trackpoint>
          <Trackpoint>
            <Time>2022-07-09T10:51:56.000Z</Time>
            <Position>
              <LatitudeDegrees>43.3274162001907825469970703125</LatitudeDegrees>
              <LongitudeDegrees>-1.96914173662662506103515625</LongitudeDegrees>
            </Position>
            <AltitudeMeters>51.200000762939453125</AltitudeMeters>
            <DistanceMeters>NAN</DistanceMeters>
          </Trackpoint>
          <Trackpoint>
            <Time>2022-07-09T10:51:57.000Z</Time>
            <Position>
              <LatitudeDegrees>43.32736984826624393463134765625</LatitudeDegrees>
              <LongitudeDegrees>-1.969189681112766265869140625</LongitudeDegrees>
            </Position>
            <AltitudeMeters>49.40000152587890625</AltitudeMeters>
            <DistanceMeters>NAN</DistanceMeters>
          </Trackpoint>
          <Trackpoint>
            <Time>2022-07-09T10:51:58.000Z</Time>
            <Position>
              <LatitudeDegrees>43.327331207692623138427734375</LatitudeDegrees>
              <LongitudeDegrees>-1.9692227058112621307373046875</LongitudeDegrees>
            </Position>
            <AltitudeMeters>47.799999237060546875</AltitudeMeters>
            <DistanceMeters>NAN</DistanceMeters>
          </Trackpoint>
          <Trackpoint>
            <Time>2022-07-09T10:51:59.000Z</Time>
            <Position>
              <LatitudeDegrees>43.32729038782417774200439453125</LatitudeDegrees>
              <LongitudeDegrees>-1.96925128810107707977294921875</LongitudeDegrees>
            </Position>
            <AltitudeMeters>46.40000152587890625</AltitudeMeters>
            <DistanceMeters>NAN</DistanceMeters>
          </Trackpoint>
          <Trackpoint>
            <Time>2022-07-09T10:52:00.000Z</Time>
            <Position>
              <LatitudeDegrees>43.3272425271570682525634765625</LatitudeDegrees>
              <LongitudeDegrees>-1.969283558428287506103515625</LongitudeDegrees>
            </Position>
            <AltitudeMeters>45.200000762939453125</AltitudeMeters>
            <DistanceMeters>NAN</DistanceMeters>
          </Trackpoint>
          <Trackpoint>
            <Time>2022-07-09T10:52:02.000Z</Time>
            <Position>
              <LatitudeDegrees>43.32713448442518711090087890625</LatitudeDegrees>
              <LongitudeDegrees>-1.96936327032744884490966796875</LongitudeDegrees>
            </Position>
            <AltitudeMeters>43.59999847412109375</AltitudeMeters>
            <DistanceMeters>NAN</DistanceMeters>
          </Trackpoint>
          <Trackpoint>
            <Time>2022-07-09T10:52:03.000Z</Time>
            <Position>
              <LatitudeDegrees>43.32706977613270282745361328125</LatitudeDegrees>
              <LongitudeDegrees>-1.96940182708203792572021484375</LongitudeDegrees>
            </Position>
            <AltitudeMeters>42.40000152587890625</AltitudeMeters>
            <DistanceMeters>NAN</DistanceMeters>
          </Trackpoint>
          <Trackpoint>
            <Time>2022-07-09T10:52:04.000Z</Time>
            <Position>
              <LatitudeDegrees>43.32700825296342372894287109375</LatitudeDegrees>
              <LongitudeDegrees>-1.96943677961826324462890625</LongitudeDegrees>
            </Position>
            <AltitudeMeters>41.200000762939453125</AltitudeMeters>
            <DistanceMeters>NAN</DistanceMeters>
          </Trackpoint>
          <Trackpoint>
            <Time>2022-07-09T10:52:05.000Z</Time>
            <Position>
              <LatitudeDegrees>43.32695846445858478546142578125</LatitudeDegrees>
              <LongitudeDegrees>-1.96947374381124973297119140625</LongitudeDegrees>
            </Position>
            <AltitudeMeters>40.40000152587890625</AltitudeMeters>
            <DistanceMeters>NAN</DistanceMeters>
          </Trackpoint>
          <Trackpoint>
            <Time>2022-07-09T10:52:06.000Z</Time>
            <Position>
              <LatitudeDegrees>43.326912783086299896240234375</LatitudeDegrees>
              <LongitudeDegrees>-1.96951858699321746826171875</LongitudeDegrees>
            </Position>
            <AltitudeMeters>38.40000152587890625</AltitudeMeters>
            <DistanceMeters>NAN</DistanceMeters>
          </Trackpoint>
          <Trackpoint>
            <Time>2022-07-09T10:52:07.000Z</Time>
            <Position>
              <LatitudeDegrees>43.32687565125524997711181640625</LatitudeDegrees>
              <LongitudeDegrees>-1.9695650227367877960205078125</LongitudeDegrees>
            </Position>
            <AltitudeMeters>37.40000152587890625</AltitudeMeters>
            <DistanceMeters>NAN</DistanceMeters>
          </Trackpoint>
          <Trackpoint>
            <Time>2022-07-09T10:52:09.000Z</Time>
            <Position>
              <LatitudeDegrees>43.32680918276309967041015625</LatitudeDegrees>
              <LongitudeDegrees>-1.96964791975915431976318359375</LongitudeDegrees>
            </Position>
            <AltitudeMeters>36</AltitudeMeters>
            <DistanceMeters>NAN</DistanceMeters>
          </Trackpoint>
          <Trackpoint>
            <Time>2022-07-09T10:52:10.000Z</Time>
            <Position>
              <LatitudeDegrees>43.32678747363388538360595703125</LatitudeDegrees>
              <LongitudeDegrees>-1.96969695389270782470703125</LongitudeDegrees>
            </Position>
            <AltitudeMeters>34.799999237060546875</AltitudeMeters>
            <DistanceMeters>NAN</DistanceMeters>
          </Trackpoint>
          <Trackpoint>
            <Time>2022-07-09T10:52:12.000Z</Time>
            <Position>
              <LatitudeDegrees>43.32675713114440441131591796875</LatitudeDegrees>
              <LongitudeDegrees>-1.96978949010372161865234375</LongitudeDegrees>
            </Position>
            <AltitudeMeters>33.59999847412109375</AltitudeMeters>
            <DistanceMeters>NAN</DistanceMeters>
          </Trackpoint>
          <Trackpoint>
            <Time>2022-07-09T10:52:14.000Z</Time>
            <Position>
              <LatitudeDegrees>43.3267188258469104766845703125</LatitudeDegrees>
              <LongitudeDegrees>-1.96985746733844280242919921875</LongitudeDegrees>
            </Position>
            <AltitudeMeters>32</AltitudeMeters>
            <DistanceMeters>NAN</DistanceMeters>
          </Trackpoint>
          <Trackpoint>
            <Time>2022-07-09T10:52:16.000Z</Time>
            <Position>
              <LatitudeDegrees>43.32667431794106960296630859375</LatitudeDegrees>
              <LongitudeDegrees>-1.9699318148195743560791015625</LongitudeDegrees>
            </Position>
            <AltitudeMeters>30.799999237060546875</AltitudeMeters>
            <DistanceMeters>NAN</DistanceMeters>
          </Trackpoint>
          <Trackpoint>
            <Time>2022-07-09T10:52:18.000Z</Time>
            <Position>
              <LatitudeDegrees>43.3266252838075160980224609375</LatitudeDegrees>
              <LongitudeDegrees>-1.96999643929302692413330078125</LongitudeDegrees>
            </Position>
            <AltitudeMeters>29.799999237060546875</AltitudeMeters>
            <DistanceMeters>NAN</DistanceMeters>
          </Trackpoint>
          <Trackpoint>
            <Time>2022-07-09T10:52:20.000Z</Time>
            <Position>
              <LatitudeDegrees>43.326550684869289398193359375</LatitudeDegrees>
              <LongitudeDegrees>-1.970025189220905303955078125</LongitudeDegrees>
            </Position>
            <AltitudeMeters>28.3999996185302734375</AltitudeMeters>
            <DistanceMeters>NAN</DistanceMeters>
          </Trackpoint>
          <Trackpoint>
            <Time>2022-07-09T10:52:22.000Z</Time>
            <Position>
              <LatitudeDegrees>43.32648857496678829193115234375</LatitudeDegrees>
              <LongitudeDegrees>-1.97005913592875003814697265625</LongitudeDegrees>
            </Position>
            <AltitudeMeters>27</AltitudeMeters>
            <DistanceMeters>NAN</DistanceMeters>
          </Trackpoint>
          <Trackpoint>
            <Time>2022-07-09T10:52:24.000Z</Time>
            <Position>
              <LatitudeDegrees>43.3264422230422496795654296875</LatitudeDegrees>
              <LongitudeDegrees>-1.9701131992042064666748046875</LongitudeDegrees>
            </Position>
            <AltitudeMeters>25.6000003814697265625</AltitudeMeters>
            <DistanceMeters>NAN</DistanceMeters>
          </Trackpoint>
          <Trackpoint>
            <Time>2022-07-09T10:52:25.000Z</Time>
            <Position>
              <LatitudeDegrees>43.32642428576946258544921875</LatitudeDegrees>
              <LongitudeDegrees>-1.97015334852039813995361328125</LongitudeDegrees>
            </Position>
            <AltitudeMeters>25.3999996185302734375</AltitudeMeters>
            <DistanceMeters>NAN</DistanceMeters>
          </Trackpoint>
          <Trackpoint>
            <Time>2022-07-09T10:52:26.000Z</Time>
            <Position>
              <LatitudeDegrees>43.32641682587563991546630859375</LatitudeDegrees>
              <LongitudeDegrees>-1.97021202184259891510009765625</LongitudeDegrees>
            </Position>
            <AltitudeMeters>25.200000762939453125</AltitudeMeters>
            <DistanceMeters>NAN</DistanceMeters>
          </Trackpoint>
          <Trackpoint>
            <Time>2022-07-09T10:52:28.000Z</Time>
            <Position>
              <LatitudeDegrees>43.3264449052512645721435546875</LatitudeDegrees>
              <LongitudeDegrees>-1.97028838098049163818359375</LongitudeDegrees>
            </Position>
            <AltitudeMeters>24.799999237060546875</AltitudeMeters>
            <DistanceMeters>NAN</DistanceMeters>
          </Trackpoint>
          <Trackpoint>
            <Time>2022-07-09T10:52:29.000Z</Time>
            <Position>
              <LatitudeDegrees>43.32648505456745624542236328125</LatitudeDegrees>
              <LongitudeDegrees>-1.97033221833407878875732421875</LongitudeDegrees>
            </Position>
            <AltitudeMeters>24.3999996185302734375</AltitudeMeters>
            <DistanceMeters>NAN</DistanceMeters>
          </Trackpoint>
          <Trackpoint>
            <Time>2022-07-09T10:52:31.000Z</Time>
            <Position>
              <LatitudeDegrees>43.32657993771135807037353515625</LatitudeDegrees>
              <LongitudeDegrees>-1.9703904725611209869384765625</LongitudeDegrees>
            </Position>
            <AltitudeMeters>23.799999237060546875</AltitudeMeters>
            <DistanceMeters>NAN</DistanceMeters>
          </Trackpoint>
          <Trackpoint>
            <Time>2022-07-09T10:52:32.000Z</Time>
            <Position>
              <LatitudeDegrees>43.32661597989499568939208984375</LatitudeDegrees>
              <LongitudeDegrees>-1.9704146124422550201416015625</LongitudeDegrees>
            </Position>
            <AltitudeMeters>23.200000762939453125</AltitudeMeters>
            <DistanceMeters>NAN</DistanceMeters>
          </Trackpoint>
          <Trackpoint>
            <Time>2022-07-09T10:52:34.000Z</Time>
            <Position>
              <LatitudeDegrees>43.32669812254607677459716796875</LatitudeDegrees>
              <LongitudeDegrees>-1.97047018446028232574462890625</LongitudeDegrees>
            </Position>
            <AltitudeMeters>22</AltitudeMeters>
            <DistanceMeters>NAN</DistanceMeters>
          </Trackpoint>
          <Trackpoint>
            <Time>2022-07-09T10:52:36.000Z</Time>
            <Position>
              <LatitudeDegrees>43.32673902623355388641357421875</LatitudeDegrees>
              <LongitudeDegrees>-1.97052533738315105438232421875</LongitudeDegrees>
            </Position>
            <AltitudeMeters>20.3999996185302734375</AltitudeMeters>
            <DistanceMeters>NAN</DistanceMeters>
          </Trackpoint>
          <Trackpoint>
            <Time>2022-07-09T10:52:38.000Z</Time>
            <Position>
              <LatitudeDegrees>43.32674422301352024078369140625</LatitudeDegrees>
              <LongitudeDegrees>-1.9705720245838165283203125</LongitudeDegrees>
            </Position>
            <AltitudeMeters>19.3999996185302734375</AltitudeMeters>
            <DistanceMeters>NAN</DistanceMeters>
          </Trackpoint>
          <Trackpoint>
            <Time>2022-07-09T10:52:40.000Z</Time>
            <Position>
              <LatitudeDegrees>43.32672611810266971588134765625</LatitudeDegrees>
              <LongitudeDegrees>-1.9706013612449169158935546875</LongitudeDegrees>
            </Position>
            <AltitudeMeters>18.6000003814697265625</AltitudeMeters>
            <DistanceMeters>NAN</DistanceMeters>
          </Trackpoint>
          <Trackpoint>
            <Time>2022-07-09T10:52:41.000Z</Time>
            <Position>
              <LatitudeDegrees>43.3267132937908172607421875</LatitudeDegrees>
              <LongitudeDegrees>-1.97061485610902309417724609375</LongitudeDegrees>
            </Position>
            <AltitudeMeters>18.3999996185302734375</AltitudeMeters>
            <DistanceMeters>NAN</DistanceMeters>
          </Trackpoint>
          <Trackpoint>
            <Time>2022-07-09T10:52:44.000Z</Time>
            <Position>
              <LatitudeDegrees>43.32665906287729740142822265625</LatitudeDegrees>
              <LongitudeDegrees>-1.97063044644892215728759765625</LongitudeDegrees>
            </Position>
            <AltitudeMeters>18.200000762939453125</AltitudeMeters>
            <DistanceMeters>NAN</DistanceMeters>
          </Trackpoint>
          <Trackpoint>
            <Time>2022-07-09T10:52:45.000Z</Time>
            <Position>
              <LatitudeDegrees>43.32663039676845073699951171875</LatitudeDegrees>
              <LongitudeDegrees>-1.97062675841152667999267578125</LongitudeDegrees>
            </Position>
            <AltitudeMeters>18</AltitudeMeters>
            <DistanceMeters>NAN</DistanceMeters>
          </Trackpoint>
          <Trackpoint>
            <Time>2022-07-09T10:52:46.000Z</Time>
            <Position>
              <LatitudeDegrees>43.3265947736799716949462890625</LatitudeDegrees>
              <LongitudeDegrees>-1.97063648141920566558837890625</LongitudeDegrees>
            </Position>
            <AltitudeMeters>18</AltitudeMeters>
            <DistanceMeters>NAN</DistanceMeters>
          </Trackpoint>
          <Trackpoint>
            <Time>2022-07-09T10:52:48.000Z</Time>
            <Position>
              <LatitudeDegrees>43.3265139721333980560302734375</LatitudeDegrees>
              <LongitudeDegrees>-1.97066732682287693023681640625</LongitudeDegrees>
            </Position>
            <AltitudeMeters>17.6000003814697265625</AltitudeMeters>
            <DistanceMeters>NAN</DistanceMeters>
          </Trackpoint>
          <Trackpoint>
            <Time>2022-07-09T10:52:50.000Z</Time>
            <Position>
              <LatitudeDegrees>43.32640475593507289886474609375</LatitudeDegrees>
              <LongitudeDegrees>-1.9707012735307216644287109375</LongitudeDegrees>
            </Position>
            <AltitudeMeters>17.200000762939453125</AltitudeMeters>
            <DistanceMeters>NAN</DistanceMeters>
          </Trackpoint>
          <Trackpoint>
            <Time>2022-07-09T10:52:52.000Z</Time>
            <Position>
              <LatitudeDegrees>43.32629562355577945709228515625</LatitudeDegrees>
              <LongitudeDegrees>-1.97072566486895084381103515625</LongitudeDegrees>
            </Position>
            <AltitudeMeters>16.799999237060546875</AltitudeMeters>
            <DistanceMeters>NAN</DistanceMeters>
          </Trackpoint>
          <Trackpoint>
            <Time>2022-07-09T10:52:53.000Z</Time>
            <Position>
              <LatitudeDegrees>43.326237536966800689697265625</LatitudeDegrees>
              <LongitudeDegrees>-1.97072516195476055145263671875</LongitudeDegrees>
            </Position>
            <AltitudeMeters>16.6000003814697265625</AltitudeMeters>
            <DistanceMeters>NAN</DistanceMeters>
          </Trackpoint>
          <Trackpoint>
            <Time>2022-07-09T10:52:55.000Z</Time>
            <Position>
              <LatitudeDegrees>43.326153717935085296630859375</LatitudeDegrees>
              <LongitudeDegrees>-1.9708021916449069976806640625</LongitudeDegrees>
            </Position>
            <AltitudeMeters>16.200000762939453125</AltitudeMeters>
            <DistanceMeters>NAN</DistanceMeters>
          </Trackpoint>
          <Trackpoint>
            <Time>2022-07-09T10:52:57.000Z</Time>
            <Position>
              <LatitudeDegrees>43.3260945416986942291259765625</LatitudeDegrees>
              <LongitudeDegrees>-1.970893554389476776123046875</LongitudeDegrees>
            </Position>
            <AltitudeMeters>15.3999996185302734375</AltitudeMeters>
            <DistanceMeters>NAN</DistanceMeters>
          </Trackpoint>
          <Trackpoint>
            <Time>2022-07-09T10:52:58.000Z</Time>
            <Position>
              <LatitudeDegrees>43.32608037628233432769775390625</LatitudeDegrees>
              <LongitudeDegrees>-1.97092398069798946380615234375</LongitudeDegrees>
            </Position>
            <AltitudeMeters>14.80000019073486328125</AltitudeMeters>
            <DistanceMeters>NAN</DistanceMeters>
          </Trackpoint>
          <Trackpoint>
            <Time>2022-07-09T10:53:00.000Z</Time>
            <Position>
              <LatitudeDegrees>43.32609076984226703643798828125</LatitudeDegrees>
              <LongitudeDegrees>-1.97098751552402973175048828125</LongitudeDegrees>
            </Position>
            <AltitudeMeters>14.19999980926513671875</AltitudeMeters>
            <DistanceMeters>NAN</DistanceMeters>
          </Trackpoint>
          <Trackpoint>
            <Time>2022-07-09T10:53:02.000Z</Time>
            <Position>
              <LatitudeDegrees>43.32613267935812473297119140625</LatitudeDegrees>
              <LongitudeDegrees>-1.9710482843220233917236328125</LongitudeDegrees>
            </Position>
            <AltitudeMeters>13.80000019073486328125</AltitudeMeters>
            <DistanceMeters>NAN</DistanceMeters>
          </Trackpoint>
          <Trackpoint>
            <Time>2022-07-09T10:53:05.000Z</Time>
            <Position>
              <LatitudeDegrees>43.32619361579418182373046875</LatitudeDegrees>
              <LongitudeDegrees>-1.9711406528949737548828125</LongitudeDegrees>
            </Position>
            <AltitudeMeters>13.6000003814697265625</AltitudeMeters>
            <DistanceMeters>NAN</DistanceMeters>
          </Trackpoint>
          <Trackpoint>
            <Time>2022-07-09T10:53:12.000Z</Time>
            <Position>
              <LatitudeDegrees>43.32633937709033489227294921875</LatitudeDegrees>
              <LongitudeDegrees>-1.9713731668889522552490234375</LongitudeDegrees>
            </Position>
            <AltitudeMeters>13.3999996185302734375</AltitudeMeters>
            <DistanceMeters>NAN</DistanceMeters>
          </Trackpoint>
          <Trackpoint>
            <Time>2022-07-09T10:53:13.000Z</Time>
            <Position>
              <LatitudeDegrees>43.32635463215410709381103515625</LatitudeDegrees>
              <LongitudeDegrees>-1.97139252908527851104736328125</LongitudeDegrees>
            </Position>
            <AltitudeMeters>13.3999996185302734375</AltitudeMeters>
            <DistanceMeters>NAN</DistanceMeters>
          </Trackpoint>
          <Trackpoint>
            <Time>2022-07-09T10:53:15.000Z</Time>
            <Position>
              <LatitudeDegrees>43.3263882435858249664306640625</LatitudeDegrees>
              <LongitudeDegrees>-1.9714090414345264434814453125</LongitudeDegrees>
            </Position>
            <AltitudeMeters>13</AltitudeMeters>
            <DistanceMeters>NAN</DistanceMeters>
          </Trackpoint>
          <Trackpoint>
            <Time>2022-07-09T10:53:18.000Z</Time>
            <Position>
              <LatitudeDegrees>43.3264378644526004791259765625</LatitudeDegrees>
              <LongitudeDegrees>-1.971488334238529205322265625</LongitudeDegrees>
            </Position>
            <AltitudeMeters>12.6000003814697265625</AltitudeMeters>
            <DistanceMeters>NAN</DistanceMeters>
          </Trackpoint>
          <Trackpoint>
            <Time>2022-07-09T10:53:21.000Z</Time>
            <Position>
              <LatitudeDegrees>43.3265086077153682708740234375</LatitudeDegrees>
              <LongitudeDegrees>-1.97154700756072998046875</LongitudeDegrees>
            </Position>
            <AltitudeMeters>12.19999980926513671875</AltitudeMeters>
            <DistanceMeters>NAN</DistanceMeters>
          </Trackpoint>
          <Trackpoint>
            <Time>2022-07-09T10:53:24.000Z</Time>
            <Position>
              <LatitudeDegrees>43.32659334875643253326416015625</LatitudeDegrees>
              <LongitudeDegrees>-1.9716048426926136016845703125</LongitudeDegrees>
            </Position>
            <AltitudeMeters>11.6000003814697265625</AltitudeMeters>
            <DistanceMeters>NAN</DistanceMeters>
          </Trackpoint>
          <Trackpoint>
            <Time>2022-07-09T10:53:26.000Z</Time>
            <Position>
              <LatitudeDegrees>43.3266370184719562530517578125</LatitudeDegrees>
              <LongitudeDegrees>-1.97167030535638332366943359375</LongitudeDegrees>
            </Position>
            <AltitudeMeters>11.6000003814697265625</AltitudeMeters>
            <DistanceMeters>NAN</DistanceMeters>
          </Trackpoint>
          <Trackpoint>
            <Time>2022-07-09T10:53:29.000Z</Time>
            <Position>
              <LatitudeDegrees>43.326684124767780303955078125</LatitudeDegrees>
              <LongitudeDegrees>-1.97176636196672916412353515625</LongitudeDegrees>
            </Position>
            <AltitudeMeters>11.3999996185302734375</AltitudeMeters>
            <DistanceMeters>NAN</DistanceMeters>
          </Trackpoint>
          <Trackpoint>
            <Time>2022-07-09T10:53:35.000Z</Time>
            <Position>
              <LatitudeDegrees>43.32673215307295322418212890625</LatitudeDegrees>
              <LongitudeDegrees>-1.971940286457538604736328125</LongitudeDegrees>
            </Position>
            <AltitudeMeters>11</AltitudeMeters>
            <DistanceMeters>NAN</DistanceMeters>
          </Trackpoint>
          <Trackpoint>
            <Time>2022-07-09T10:53:41.000Z</Time>
            <Position>
              <LatitudeDegrees>43.32672058604657649993896484375</LatitudeDegrees>
              <LongitudeDegrees>-1.97207498364150524139404296875</LongitudeDegrees>
            </Position>
            <AltitudeMeters>11.19999980926513671875</AltitudeMeters>
            <DistanceMeters>NAN</DistanceMeters>
          </Trackpoint>
          <Trackpoint>
            <Time>2022-07-09T10:53:45.000Z</Time>
            <Position>
              <LatitudeDegrees>43.32671522162854671478271484375</LatitudeDegrees>
              <LongitudeDegrees>-1.972090490162372589111328125</LongitudeDegrees>
            </Position>
            <AltitudeMeters>11</AltitudeMeters>
            <DistanceMeters>NAN</DistanceMeters>
          </Trackpoint>
          <Trackpoint>
            <Time>2022-07-09T11:03:15.000Z</Time>
            <Position>
              <LatitudeDegrees>43.32657583057880401611328125</LatitudeDegrees>
              <LongitudeDegrees>-1.9722083397209644317626953125</LongitudeDegrees>
            </Position>
            <AltitudeMeters>12.3999996185302734375</AltitudeMeters>
            <DistanceMeters>NAN</DistanceMeters>
          </Trackpoint>
          <Trackpoint>
            <Time>2022-07-09T11:03:16.000Z</Time>
            <Position>
              <LatitudeDegrees>43.3265692926943302154541015625</LatitudeDegrees>
              <LongitudeDegrees>-1.97223172523081302642822265625</LongitudeDegrees>
            </Position>
            <AltitudeMeters>12.3999996185302734375</AltitudeMeters>
            <DistanceMeters>NAN</DistanceMeters>
          </Trackpoint>
          <Trackpoint>
            <Time>2022-07-09T11:03:20.000Z</Time>
            <Position>
              <LatitudeDegrees>43.32655345089733600616455078125</LatitudeDegrees>
              <LongitudeDegrees>-1.9723263569176197052001953125</LongitudeDegrees>
            </Position>
            <AltitudeMeters>12.3999996185302734375</AltitudeMeters>
            <DistanceMeters>NAN</DistanceMeters>
          </Trackpoint>
          <Trackpoint>
            <Time>2022-07-09T11:03:21.000Z</Time>
            <Position>
              <LatitudeDegrees>43.32654138095676898956298828125</LatitudeDegrees>
              <LongitudeDegrees>-1.97234538383781909942626953125</LongitudeDegrees>
            </Position>
            <AltitudeMeters>12.3999996185302734375</AltitudeMeters>
            <DistanceMeters>NAN</DistanceMeters>
          </Trackpoint>
          <Trackpoint>
            <Time>2022-07-09T11:03:27.000Z</Time>
            <Position>
              <LatitudeDegrees>43.3264915086328983306884765625</LatitudeDegrees>
              <LongitudeDegrees>-1.97248418815433979034423828125</LongitudeDegrees>
            </Position>
            <AltitudeMeters>12.3999996185302734375</AltitudeMeters>
            <DistanceMeters>NAN</DistanceMeters>
          </Trackpoint>
          <Trackpoint>
            <Time>2022-07-09T11:03:29.000Z</Time>
            <Position>
              <LatitudeDegrees>43.326476924121379852294921875</LatitudeDegrees>
              <LongitudeDegrees>-1.97252894751727581024169921875</LongitudeDegrees>
            </Position>
            <AltitudeMeters>12.19999980926513671875</AltitudeMeters>
            <DistanceMeters>NAN</DistanceMeters>
          </Trackpoint>
          <Trackpoint>
            <Time>2022-07-09T11:03:30.000Z</Time>
            <Position>
              <LatitudeDegrees>43.326464183628559112548828125</LatitudeDegrees>
              <LongitudeDegrees>-1.97254068218171596527099609375</LongitudeDegrees>
            </Position>
            <AltitudeMeters>12.19999980926513671875</AltitudeMeters>
            <DistanceMeters>NAN</DistanceMeters>
          </Trackpoint>
          <Trackpoint>
            <Time>2022-07-09T11:03:32.000Z</Time>
            <Position>
              <LatitudeDegrees>43.326427638530731201171875</LatitudeDegrees>
              <LongitudeDegrees>-1.97255861945450305938720703125</LongitudeDegrees>
            </Position>
            <AltitudeMeters>12.19999980926513671875</AltitudeMeters>
            <DistanceMeters>NAN</DistanceMeters>
          </Trackpoint>
          <Trackpoint>
            <Time>2022-07-09T11:03:35.000Z</Time>
            <Position>
              <LatitudeDegrees>43.32638581283390522003173828125</LatitudeDegrees>
              <LongitudeDegrees>-1.97260790504515171051025390625</LongitudeDegrees>
            </Position>
            <AltitudeMeters>12</AltitudeMeters>
            <DistanceMeters>NAN</DistanceMeters>
          </Trackpoint>
          <Trackpoint>
            <Time>2022-07-09T11:03:38.000Z</Time>
            <Position>
              <LatitudeDegrees>43.32635530270636081695556640625</LatitudeDegrees>
              <LongitudeDegrees>-1.972657106816768646240234375</LongitudeDegrees>
            </Position>
            <AltitudeMeters>11.80000019073486328125</AltitudeMeters>
            <DistanceMeters>NAN</DistanceMeters>
          </Trackpoint>
          <Trackpoint>
            <Time>2022-07-09T11:03:44.000Z</Time>
            <Position>
              <LatitudeDegrees>43.32626603543758392333984375</LatitudeDegrees>
              <LongitudeDegrees>-1.97283807210624217987060546875</LongitudeDegrees>
            </Position>
            <AltitudeMeters>11.6000003814697265625</AltitudeMeters>
            <DistanceMeters>NAN</DistanceMeters>
          </Trackpoint>
          <Trackpoint>
            <Time>2022-07-09T11:03:49.000Z</Time>
            <Position>
              <LatitudeDegrees>43.32621498964726924896240234375</LatitudeDegrees>
              <LongitudeDegrees>-1.97303689084947109222412109375</LongitudeDegrees>
            </Position>
            <AltitudeMeters>11.3999996185302734375</AltitudeMeters>
            <DistanceMeters>NAN</DistanceMeters>
          </Trackpoint>
          <Trackpoint>
            <Time>2022-07-09T11:03:58.000Z</Time>
            <Position>
              <LatitudeDegrees>43.32609730772674083709716796875</LatitudeDegrees>
              <LongitudeDegrees>-1.97338172234594821929931640625</LongitudeDegrees>
            </Position>
            <AltitudeMeters>11.19999980926513671875</AltitudeMeters>
            <DistanceMeters>NAN</DistanceMeters>
          </Trackpoint>
          <Trackpoint>
            <Time>2022-07-09T11:03:59.000Z</Time>
            <Position>
              <LatitudeDegrees>43.3260818012058734893798828125</LatitudeDegrees>
              <LongitudeDegrees>-1.9734180159866809844970703125</LongitudeDegrees>
            </Position>
            <AltitudeMeters>11.19999980926513671875</AltitudeMeters>
            <DistanceMeters>NAN</DistanceMeters>
          </Trackpoint>
          <Trackpoint>
            <Time>2022-07-09T11:04:00.000Z</Time>
            <Position>
              <LatitudeDegrees>43.32607031799852848052978515625</LatitudeDegrees>
              <LongitudeDegrees>-1.97345741093158721923828125</LongitudeDegrees>
            </Position>
            <AltitudeMeters>11</AltitudeMeters>
            <DistanceMeters>NAN</DistanceMeters>
          </Trackpoint>
          <Trackpoint>
            <Time>2022-07-09T11:04:06.000Z</Time>
            <Position>
              <LatitudeDegrees>43.32598616369068622589111328125</LatitudeDegrees>
              <LongitudeDegrees>-1.97366603650152683258056640625</LongitudeDegrees>
            </Position>
            <AltitudeMeters>10.6000003814697265625</AltitudeMeters>
            <DistanceMeters>NAN</DistanceMeters>
          </Trackpoint>
          <Trackpoint>
            <Time>2022-07-09T11:04:07.000Z</Time>
            <Position>
              <LatitudeDegrees>43.32597107626497745513916015625</LatitudeDegrees>
              <LongitudeDegrees>-1.97370040230453014373779296875</LongitudeDegrees>
            </Position>
            <AltitudeMeters>10.3999996185302734375</AltitudeMeters>
            <DistanceMeters>NAN</DistanceMeters>
          </Trackpoint>
          <Trackpoint>
            <Time>2022-07-09T11:04:12.000Z</Time>
            <Position>
              <LatitudeDegrees>43.32589329220354557037353515625</LatitudeDegrees>
              <LongitudeDegrees>-1.9738850556313991546630859375</LongitudeDegrees>
            </Position>
            <AltitudeMeters>10.19999980926513671875</AltitudeMeters>
            <DistanceMeters>NAN</DistanceMeters>
          </Trackpoint>
          <Trackpoint>
            <Time>2022-07-09T11:04:14.000Z</Time>
            <Position>
              <LatitudeDegrees>43.32587652839720249176025390625</LatitudeDegrees>
              <LongitudeDegrees>-1.97396862320601940155029296875</LongitudeDegrees>
            </Position>
            <AltitudeMeters>10.19999980926513671875</AltitudeMeters>
            <DistanceMeters>NAN</DistanceMeters>
          </Trackpoint>
          <Trackpoint>
            <Time>2022-07-09T11:04:19.000Z</Time>
            <Position>
              <LatitudeDegrees>43.3258306793868541717529296875</LatitudeDegrees>
              <LongitudeDegrees>-1.9741581380367279052734375</LongitudeDegrees>
            </Position>
            <AltitudeMeters>9.6000003814697265625</AltitudeMeters>
            <DistanceMeters>NAN</DistanceMeters>
          </Trackpoint>
          <Trackpoint>
            <Time>2022-07-09T11:04:24.000Z</Time>
            <Position>
              <LatitudeDegrees>43.32576169632375240325927734375</LatitudeDegrees>
              <LongitudeDegrees>-1.97431228123605251312255859375</LongitudeDegrees>
            </Position>
            <AltitudeMeters>9.6000003814697265625</AltitudeMeters>
            <DistanceMeters>NAN</DistanceMeters>
          </Trackpoint>
          <Trackpoint>
            <Time>2022-07-09T11:04:25.000Z</Time>
            <Position>
              <LatitudeDegrees>43.32575364969670772552490234375</LatitudeDegrees>
              <LongitudeDegrees>-1.9743282906711101531982421875</LongitudeDegrees>
            </Position>
            <AltitudeMeters>9.6000003814697265625</AltitudeMeters>
            <DistanceMeters>NAN</DistanceMeters>
          </Trackpoint>
          <Trackpoint>
            <Time>2022-07-09T11:04:26.000Z</Time>
            <Position>
              <LatitudeDegrees>43.325755409896373748779296875</LatitudeDegrees>
              <LongitudeDegrees>-1.9743376784026622772216796875</LongitudeDegrees>
            </Position>
            <AltitudeMeters>9.3999996185302734375</AltitudeMeters>
            <DistanceMeters>NAN</DistanceMeters>
          </Trackpoint>
          <Trackpoint>
            <Time>2022-07-09T11:04:27.000Z</Time>
            <Position>
              <LatitudeDegrees>43.325758092105388641357421875</LatitudeDegrees>
              <LongitudeDegrees>-1.974341869354248046875</LongitudeDegrees>
            </Position>
            <AltitudeMeters>9.19999980926513671875</AltitudeMeters>
            <DistanceMeters>NAN</DistanceMeters>
          </Trackpoint>
          <Trackpoint>
            <Time>2022-07-09T11:04:31.000Z</Time>
            <Position>
              <LatitudeDegrees>43.32577762193977832794189453125</LatitudeDegrees>
              <LongitudeDegrees>-1.97434061206877231597900390625</LongitudeDegrees>
            </Position>
            <AltitudeMeters>9</AltitudeMeters>
            <DistanceMeters>NAN</DistanceMeters>
          </Trackpoint>
          <Trackpoint>
            <Time>2022-07-09T11:04:33.000Z</Time>
            <Position>
              <LatitudeDegrees>43.3257797174155712127685546875</LatitudeDegrees>
              <LongitudeDegrees>-1.97435050271451473236083984375</LongitudeDegrees>
            </Position>
            <AltitudeMeters>8.80000019073486328125</AltitudeMeters>
            <DistanceMeters>NAN</DistanceMeters>
          </Trackpoint>
          <Trackpoint>
            <Time>2022-07-09T11:04:36.000Z</Time>
            <Position>
              <LatitudeDegrees>43.32576605491340160369873046875</LatitudeDegrees>
              <LongitudeDegrees>-1.97436911053955554962158203125</LongitudeDegrees>
            </Position>
            <AltitudeMeters>8.6000003814697265625</AltitudeMeters>
            <DistanceMeters>NAN</DistanceMeters>
          </Trackpoint>
          <Trackpoint>
            <Time>2022-07-09T11:04:37.000Z</Time>
            <Position>
              <LatitudeDegrees>43.32576312124729156494140625</LatitudeDegrees>
              <LongitudeDegrees>-1.9743681885302066802978515625</LongitudeDegrees>
            </Position>
            <AltitudeMeters>8.6000003814697265625</AltitudeMeters>
            <DistanceMeters>NAN</DistanceMeters>
          </Trackpoint>
          <Trackpoint>
            <Time>2022-07-09T11:04:38.000Z</Time>
            <Position>
              <LatitudeDegrees>43.32576312124729156494140625</LatitudeDegrees>
              <LongitudeDegrees>-1.9743681885302066802978515625</LongitudeDegrees>
            </Position>
            <AltitudeMeters>8.6000003814697265625</AltitudeMeters>
            <DistanceMeters>NAN</DistanceMeters>
          </Trackpoint>
          <Trackpoint>
            <Time>2022-07-09T11:06:18.000Z</Time>
            <Position>
              <LatitudeDegrees>43.32576555199921131134033203125</LatitudeDegrees>
              <LongitudeDegrees>-1.97443214245140552520751953125</LongitudeDegrees>
            </Position>
            <AltitudeMeters>8</AltitudeMeters>
            <DistanceMeters>NAN</DistanceMeters>
          </Trackpoint>
          <Trackpoint>
            <Time>2022-07-09T11:06:19.000Z</Time>
            <Position>
              <LatitudeDegrees>43.3257616125047206878662109375</LatitudeDegrees>
              <LongitudeDegrees>-1.97446265257894992828369140625</LongitudeDegrees>
            </Position>
            <AltitudeMeters>8</AltitudeMeters>
            <DistanceMeters>NAN</DistanceMeters>
          </Trackpoint>
          <Trackpoint>
            <Time>2022-07-09T11:06:21.000Z</Time>
            <Position>
              <LatitudeDegrees>43.32575951702892780303955078125</LatitudeDegrees>
              <LongitudeDegrees>-1.97452182881534099578857421875</LongitudeDegrees>
            </Position>
            <AltitudeMeters>8</AltitudeMeters>
            <DistanceMeters>NAN</DistanceMeters>
          </Trackpoint>
          <Trackpoint>
            <Time>2022-07-09T11:06:24.000Z</Time>
            <Position>
              <LatitudeDegrees>43.3257478661835193634033203125</LatitudeDegrees>
              <LongitudeDegrees>-1.974617801606655120849609375</LongitudeDegrees>
            </Position>
            <AltitudeMeters>8</AltitudeMeters>
            <DistanceMeters>NAN</DistanceMeters>
          </Trackpoint>
          <Trackpoint>
            <Time>2022-07-09T11:06:26.000Z</Time>
            <Position>
              <LatitudeDegrees>43.32574342377483844757080078125</LatitudeDegrees>
              <LongitudeDegrees>-1.97467957623302936553955078125</LongitudeDegrees>
            </Position>
            <AltitudeMeters>7.80000019073486328125</AltitudeMeters>
            <DistanceMeters>NAN</DistanceMeters>
          </Trackpoint>
          <Trackpoint>
            <Time>2022-07-09T11:06:27.000Z</Time>
            <Position>
              <LatitudeDegrees>43.32574124448001384735107421875</LatitudeDegrees>
              <LongitudeDegrees>-1.97471075691282749176025390625</LongitudeDegrees>
            </Position>
            <AltitudeMeters>7.80000019073486328125</AltitudeMeters>
            <DistanceMeters>NAN</DistanceMeters>
          </Trackpoint>
          <Trackpoint>
            <Time>2022-07-09T11:06:28.000Z</Time>
            <Position>
              <LatitudeDegrees>43.32573755644261837005615234375</LatitudeDegrees>
              <LongitudeDegrees>-1.9747416861355304718017578125</LongitudeDegrees>
            </Position>
            <AltitudeMeters>7.80000019073486328125</AltitudeMeters>
            <DistanceMeters>NAN</DistanceMeters>
          </Trackpoint>
          <Trackpoint>
            <Time>2022-07-09T11:06:36.000Z</Time>
            <Position>
              <LatitudeDegrees>43.32565239630639553070068359375</LatitudeDegrees>
              <LongitudeDegrees>-1.97498886846005916595458984375</LongitudeDegrees>
            </Position>
            <AltitudeMeters>7.80000019073486328125</AltitudeMeters>
            <DistanceMeters>NAN</DistanceMeters>
          </Trackpoint>
          <Trackpoint>
            <Time>2022-07-09T11:06:44.000Z</Time>
            <Position>
              <LatitudeDegrees>43.325573019683361053466796875</LatitudeDegrees>
              <LongitudeDegrees>-1.9752523116767406463623046875</LongitudeDegrees>
            </Position>
            <AltitudeMeters>7.80000019073486328125</AltitudeMeters>
            <DistanceMeters>NAN</DistanceMeters>
          </Trackpoint>
          <Trackpoint>
            <Time>2022-07-09T11:06:51.000Z</Time>
            <Position>
              <LatitudeDegrees>43.32547855563461780548095703125</LatitudeDegrees>
              <LongitudeDegrees>-1.97544886730611324310302734375</LongitudeDegrees>
            </Position>
            <AltitudeMeters>7.599999904632568359375</AltitudeMeters>
            <DistanceMeters>NAN</DistanceMeters>
          </Trackpoint>
          <Trackpoint>
            <Time>2022-07-09T11:06:52.000Z</Time>
            <Position>
              <LatitudeDegrees>43.32546229474246501922607421875</LatitudeDegrees>
              <LongitudeDegrees>-1.9754745997488498687744140625</LongitudeDegrees>
            </Position>
            <AltitudeMeters>7.599999904632568359375</AltitudeMeters>
            <DistanceMeters>NAN</DistanceMeters>
          </Trackpoint>
          <Trackpoint>
            <Time>2022-07-09T11:06:57.000Z</Time>
            <Position>
              <LatitudeDegrees>43.32542239688336849212646484375</LatitudeDegrees>
              <LongitudeDegrees>-1.9756264798343181610107421875</LongitudeDegrees>
            </Position>
            <AltitudeMeters>7.599999904632568359375</AltitudeMeters>
            <DistanceMeters>NAN</DistanceMeters>
          </Trackpoint>
          <Trackpoint>
            <Time>2022-07-09T11:06:58.000Z</Time>
            <Position>
              <LatitudeDegrees>43.32541066221892833709716796875</LatitudeDegrees>
              <LongitudeDegrees>-1.9756559841334819793701171875</LongitudeDegrees>
            </Position>
            <AltitudeMeters>7.599999904632568359375</AltitudeMeters>
            <DistanceMeters>NAN</DistanceMeters>
          </Trackpoint>
          <Trackpoint>
            <Time>2022-07-09T11:07:00.000Z</Time>
            <Position>
              <LatitudeDegrees>43.3253757096827030181884765625</LatitudeDegrees>
              <LongitudeDegrees>-1.9757113046944141387939453125</LongitudeDegrees>
            </Position>
            <AltitudeMeters>7.400000095367431640625</AltitudeMeters>
            <DistanceMeters>NAN</DistanceMeters>
          </Trackpoint>
          <Trackpoint>
            <Time>2022-07-09T11:07:05.000Z</Time>
            <Position>
              <LatitudeDegrees>43.325287364423274993896484375</LatitudeDegrees>
              <LongitudeDegrees>-1.97584323585033416748046875</LongitudeDegrees>
            </Position>
            <AltitudeMeters>7.400000095367431640625</AltitudeMeters>
            <DistanceMeters>NAN</DistanceMeters>
          </Trackpoint>
          <Trackpoint>
            <Time>2022-07-09T11:07:13.000Z</Time>
            <Position>
              <LatitudeDegrees>43.32519290037453174591064453125</LatitudeDegrees>
              <LongitudeDegrees>-1.9760546274483203887939453125</LongitudeDegrees>
            </Position>
            <AltitudeMeters>7</AltitudeMeters>
            <DistanceMeters>NAN</DistanceMeters>
          </Trackpoint>
          <Trackpoint>
            <Time>2022-07-09T11:07:16.000Z</Time>
            <Position>
              <LatitudeDegrees>43.32513992674648761749267578125</LatitudeDegrees>
              <LongitudeDegrees>-1.97609310038387775421142578125</LongitudeDegrees>
            </Position>
            <AltitudeMeters>7</AltitudeMeters>
            <DistanceMeters>NAN</DistanceMeters>
          </Trackpoint>
          <Trackpoint>
            <Time>2022-07-09T11:07:19.000Z</Time>
            <Position>
              <LatitudeDegrees>43.32509583793580532073974609375</LatitudeDegrees>
              <LongitudeDegrees>-1.97611304931342601776123046875</LongitudeDegrees>
            </Position>
            <AltitudeMeters>6.80000019073486328125</AltitudeMeters>
            <DistanceMeters>NAN</DistanceMeters>
          </Trackpoint>
          <Trackpoint>
            <Time>2022-07-09T11:07:25.000Z</Time>
            <Position>
              <LatitudeDegrees>43.3250417746603488922119140625</LatitudeDegrees>
              <LongitudeDegrees>-1.97624783031642436981201171875</LongitudeDegrees>
            </Position>
            <AltitudeMeters>6.80000019073486328125</AltitudeMeters>
            <DistanceMeters>NAN</DistanceMeters>
          </Trackpoint>
          <Trackpoint>
            <Time>2022-07-09T11:07:34.000Z</Time>
            <Position>
              <LatitudeDegrees>43.32492082379758358001708984375</LatitudeDegrees>
              <LongitudeDegrees>-1.97651454247534275054931640625</LongitudeDegrees>
            </Position>
            <AltitudeMeters>6.599999904632568359375</AltitudeMeters>
            <DistanceMeters>NAN</DistanceMeters>
          </Trackpoint>
          <Trackpoint>
            <Time>2022-07-09T11:07:42.000Z</Time>
            <Position>
              <LatitudeDegrees>43.32483180798590183258056640625</LatitudeDegrees>
              <LongitudeDegrees>-1.97672543115913867950439453125</LongitudeDegrees>
            </Position>
            <AltitudeMeters>6.19999980926513671875</AltitudeMeters>
            <DistanceMeters>NAN</DistanceMeters>
          </Trackpoint>
          <Trackpoint>
            <Time>2022-07-09T11:07:45.000Z</Time>
            <Position>
              <LatitudeDegrees>43.32482837140560150146484375</LatitudeDegrees>
              <LongitudeDegrees>-1.97679768316447734832763671875</LongitudeDegrees>
            </Position>
            <AltitudeMeters>6.19999980926513671875</AltitudeMeters>
            <DistanceMeters>NAN</DistanceMeters>
          </Trackpoint>
          <Trackpoint>
            <Time>2022-07-09T11:07:47.000Z</Time>
            <Position>
              <LatitudeDegrees>43.32481353543698787689208984375</LatitudeDegrees>
              <LongitudeDegrees>-1.9768505729734897613525390625</LongitudeDegrees>
            </Position>
            <AltitudeMeters>6</AltitudeMeters>
            <DistanceMeters>NAN</DistanceMeters>
          </Trackpoint>
          <Trackpoint>
            <Time>2022-07-09T11:07:53.000Z</Time>
            <Position>
              <LatitudeDegrees>43.32471680827438831329345703125</LatitudeDegrees>
              <LongitudeDegrees>-1.977002620697021484375</LongitudeDegrees>
            </Position>
            <AltitudeMeters>6</AltitudeMeters>
            <DistanceMeters>NAN</DistanceMeters>
          </Trackpoint>
          <Trackpoint>
            <Time>2022-07-09T11:07:58.000Z</Time>
            <Position>
              <LatitudeDegrees>43.32466936670243740081787109375</LatitudeDegrees>
              <LongitudeDegrees>-1.97714687325060367584228515625</LongitudeDegrees>
            </Position>
            <AltitudeMeters>5.80000019073486328125</AltitudeMeters>
            <DistanceMeters>NAN</DistanceMeters>
          </Trackpoint>
          <Trackpoint>
            <Time>2022-07-09T11:08:00.000Z</Time>
            <Position>
              <LatitudeDegrees>43.32465645857155323028564453125</LatitudeDegrees>
              <LongitudeDegrees>-1.977207474410533905029296875</LongitudeDegrees>
            </Position>
            <AltitudeMeters>6</AltitudeMeters>
            <DistanceMeters>NAN</DistanceMeters>
          </Trackpoint>
          <Trackpoint>
            <Time>2022-07-09T11:08:01.000Z</Time>
            <Position>
              <LatitudeDegrees>43.32465000450611114501953125</LatitudeDegrees>
              <LongitudeDegrees>-1.97723572142422199249267578125</LongitudeDegrees>
            </Position>
            <AltitudeMeters>5.80000019073486328125</AltitudeMeters>
            <DistanceMeters>NAN</DistanceMeters>
          </Trackpoint>
          <Trackpoint>
            <Time>2022-07-09T11:08:08.000Z</Time>
            <Position>
              <LatitudeDegrees>43.32458085380494594573974609375</LatitudeDegrees>
              <LongitudeDegrees>-1.9774413295090198516845703125</LongitudeDegrees>
            </Position>
            <AltitudeMeters>5.599999904632568359375</AltitudeMeters>
            <DistanceMeters>NAN</DistanceMeters>
          </Trackpoint>
          <Trackpoint>
            <Time>2022-07-09T11:08:14.000Z</Time>
            <Position>
              <LatitudeDegrees>43.32450927235186100006103515625</LatitudeDegrees>
              <LongitudeDegrees>-1.97759245522320270538330078125</LongitudeDegrees>
            </Position>
            <AltitudeMeters>5.599999904632568359375</AltitudeMeters>
            <DistanceMeters>NAN</DistanceMeters>
          </Trackpoint>
          <Trackpoint>
            <Time>2022-07-09T11:08:15.000Z</Time>
            <Position>
              <LatitudeDegrees>43.32450340501964092254638671875</LatitudeDegrees>
              <LongitudeDegrees>-1.9776099734008312225341796875</LongitudeDegrees>
            </Position>
            <AltitudeMeters>5.599999904632568359375</AltitudeMeters>
            <DistanceMeters>NAN</DistanceMeters>
          </Trackpoint>
          <Trackpoint>
            <Time>2022-07-09T11:08:17.000Z</Time>
            <Position>
              <LatitudeDegrees>43.32448932342231273651123046875</LatitudeDegrees>
              <LongitudeDegrees>-1.9776525534689426422119140625</LongitudeDegrees>
            </Position>
            <AltitudeMeters>5.400000095367431640625</AltitudeMeters>
            <DistanceMeters>NAN</DistanceMeters>
          </Trackpoint>
          <Trackpoint>
            <Time>2022-07-09T11:08:20.000Z</Time>
            <Position>
              <LatitudeDegrees>43.32447205670177936553955078125</LatitudeDegrees>
              <LongitudeDegrees>-1.9777434132993221282958984375</LongitudeDegrees>
            </Position>
            <AltitudeMeters>5.400000095367431640625</AltitudeMeters>
            <DistanceMeters>NAN</DistanceMeters>
          </Trackpoint>
          <Trackpoint>
            <Time>2022-07-09T11:08:29.000Z</Time>
            <Position>
              <LatitudeDegrees>43.32437382079660892486572265625</LatitudeDegrees>
              <LongitudeDegrees>-1.97800643742084503173828125</LongitudeDegrees>
            </Position>
            <AltitudeMeters>5.599999904632568359375</AltitudeMeters>
            <DistanceMeters>NAN</DistanceMeters>
          </Trackpoint>
          <Trackpoint>
            <Time>2022-07-09T11:08:38.000Z</Time>
            <Position>
              <LatitudeDegrees>43.32424339838325977325439453125</LatitudeDegrees>
              <LongitudeDegrees>-1.97829200886189937591552734375</LongitudeDegrees>
            </Position>
            <AltitudeMeters>5.19999980926513671875</AltitudeMeters>
            <DistanceMeters>NAN</DistanceMeters>
          </Trackpoint>
          <Trackpoint>
            <Time>2022-07-09T11:08:40.000Z</Time>
            <Position>
              <LatitudeDegrees>43.324217163026332855224609375</LatitudeDegrees>
              <LongitudeDegrees>-1.978358812630176544189453125</LongitudeDegrees>
            </Position>
            <AltitudeMeters>5.19999980926513671875</AltitudeMeters>
            <DistanceMeters>NAN</DistanceMeters>
          </Trackpoint>
          <Trackpoint>
            <Time>2022-07-09T11:08:49.000Z</Time>
            <Position>
              <LatitudeDegrees>43.32408967427909374237060546875</LatitudeDegrees>
              <LongitudeDegrees>-1.97870288975536823272705078125</LongitudeDegrees>
            </Position>
            <AltitudeMeters>5.400000095367431640625</AltitudeMeters>
            <DistanceMeters>NAN</DistanceMeters>
          </Trackpoint>
          <Trackpoint>
            <Time>2022-07-09T11:08:54.000Z</Time>
            <Position>
              <LatitudeDegrees>43.32401943393051624298095703125</LatitudeDegrees>
              <LongitudeDegrees>-1.97887890972197055816650390625</LongitudeDegrees>
            </Position>
            <AltitudeMeters>5.19999980926513671875</AltitudeMeters>
            <DistanceMeters>NAN</DistanceMeters>
          </Trackpoint>
          <Trackpoint>
            <Time>2022-07-09T11:08:59.000Z</Time>
            <Position>
              <LatitudeDegrees>43.3239434100687503814697265625</LatitudeDegrees>
              <LongitudeDegrees>-1.97904805652797222137451171875</LongitudeDegrees>
            </Position>
            <AltitudeMeters>5.19999980926513671875</AltitudeMeters>
            <DistanceMeters>NAN</DistanceMeters>
          </Trackpoint>
          <Trackpoint>
            <Time>2022-07-09T11:09:07.000Z</Time>
            <Position>
              <LatitudeDegrees>43.3238589204847812652587890625</LatitudeDegrees>
              <LongitudeDegrees>-1.979287527501583099365234375</LongitudeDegrees>
            </Position>
            <AltitudeMeters>4.80000019073486328125</AltitudeMeters>
            <DistanceMeters>NAN</DistanceMeters>
          </Trackpoint>
          <Trackpoint>
            <Time>2022-07-09T11:09:09.000Z</Time>
            <Position>
              <LatitudeDegrees>43.32384659908711910247802734375</LatitudeDegrees>
              <LongitudeDegrees>-1.97933237068355083465576171875</LongitudeDegrees>
            </Position>
            <AltitudeMeters>4.80000019073486328125</AltitudeMeters>
            <DistanceMeters>NAN</DistanceMeters>
          </Trackpoint>
          <Trackpoint>
            <Time>2022-07-09T11:09:15.000Z</Time>
            <Position>
              <LatitudeDegrees>43.32379144616425037384033203125</LatitudeDegrees>
              <LongitudeDegrees>-1.97946949861943721771240234375</LongitudeDegrees>
            </Position>
            <AltitudeMeters>4.80000019073486328125</AltitudeMeters>
            <DistanceMeters>NAN</DistanceMeters>
          </Trackpoint>
          <Trackpoint>
            <Time>2022-07-09T11:09:16.000Z</Time>
            <Position>
              <LatitudeDegrees>43.32378624938428401947021484375</LatitudeDegrees>
              <LongitudeDegrees>-1.9794801436364650726318359375</LongitudeDegrees>
            </Position>
            <AltitudeMeters>4.80000019073486328125</AltitudeMeters>
            <DistanceMeters>NAN</DistanceMeters>
          </Trackpoint>
          <Trackpoint>
            <Time>2022-07-09T11:09:17.000Z</Time>
            <Position>
              <LatitudeDegrees>43.32378256134688854217529296875</LatitudeDegrees>
              <LongitudeDegrees>-1.9794834963977336883544921875</LongitudeDegrees>
            </Position>
            <AltitudeMeters>4.80000019073486328125</AltitudeMeters>
            <DistanceMeters>NAN</DistanceMeters>
          </Trackpoint>
          <Trackpoint>
            <Time>2022-07-09T11:09:19.000Z</Time>
            <Position>
              <LatitudeDegrees>43.32375682890415191650390625</LatitudeDegrees>
              <LongitudeDegrees>-1.97948810644447803497314453125</LongitudeDegrees>
            </Position>
            <AltitudeMeters>4.80000019073486328125</AltitudeMeters>
            <DistanceMeters>NAN</DistanceMeters>
          </Trackpoint>
          <Trackpoint>
            <Time>2022-07-09T11:09:20.000Z</Time>
            <Position>
              <LatitudeDegrees>43.3237402327358722686767578125</LatitudeDegrees>
              <LongitudeDegrees>-1.97950185276567935943603515625</LongitudeDegrees>
            </Position>
            <AltitudeMeters>4.80000019073486328125</AltitudeMeters>
            <DistanceMeters>NAN</DistanceMeters>
          </Trackpoint>
          <Trackpoint>
            <Time>2022-07-09T11:09:24.000Z</Time>
            <Position>
              <LatitudeDegrees>43.3236996643245220184326171875</LatitudeDegrees>
              <LongitudeDegrees>-1.979618109762668609619140625</LongitudeDegrees>
            </Position>
            <AltitudeMeters>5</AltitudeMeters>
            <DistanceMeters>NAN</DistanceMeters>
          </Trackpoint>
          <Trackpoint>
            <Time>2022-07-09T11:09:26.000Z</Time>
            <Position>
              <LatitudeDegrees>43.32367242313921451568603515625</LatitudeDegrees>
              <LongitudeDegrees>-1.97968625463545322418212890625</LongitudeDegrees>
            </Position>
            <AltitudeMeters>5</AltitudeMeters>
            <DistanceMeters>NAN</DistanceMeters>
          </Trackpoint>
          <Trackpoint>
            <Time>2022-07-09T11:09:36.000Z</Time>
            <Position>
              <LatitudeDegrees>43.32353412173688411712646484375</LatitudeDegrees>
              <LongitudeDegrees>-1.98003418743610382080078125</LongitudeDegrees>
            </Position>
            <AltitudeMeters>4.80000019073486328125</AltitudeMeters>
            <DistanceMeters>NAN</DistanceMeters>
          </Trackpoint>
          <Trackpoint>
            <Time>2022-07-09T11:09:45.000Z</Time>
            <Position>
              <LatitudeDegrees>43.323422558605670928955078125</LatitudeDegrees>
              <LongitudeDegrees>-1.98032344691455364227294921875</LongitudeDegrees>
            </Position>
            <AltitudeMeters>4.599999904632568359375</AltitudeMeters>
            <DistanceMeters>NAN</DistanceMeters>
          </Trackpoint>
          <Trackpoint>
            <Time>2022-07-09T11:09:54.000Z</Time>
            <Position>
              <LatitudeDegrees>43.32333463244140148162841796875</LatitudeDegrees>
              <LongitudeDegrees>-1.98058395646512508392333984375</LongitudeDegrees>
            </Position>
            <AltitudeMeters>4.400000095367431640625</AltitudeMeters>
            <DistanceMeters>NAN</DistanceMeters>
          </Trackpoint>
          <Trackpoint>
            <Time>2022-07-09T11:09:56.000Z</Time>
            <Position>
              <LatitudeDegrees>43.32332004792988300323486328125</LatitudeDegrees>
              <LongitudeDegrees>-1.98062838055193424224853515625</LongitudeDegrees>
            </Position>
            <AltitudeMeters>4.400000095367431640625</AltitudeMeters>
            <DistanceMeters>NAN</DistanceMeters>
          </Trackpoint>
          <Trackpoint>
            <Time>2022-07-09T11:09:58.000Z</Time>
            <Position>
              <LatitudeDegrees>43.32333195023238658905029296875</LatitudeDegrees>
              <LongitudeDegrees>-1.98066391982138156890869140625</LongitudeDegrees>
            </Position>
            <AltitudeMeters>4.400000095367431640625</AltitudeMeters>
            <DistanceMeters>NAN</DistanceMeters>
          </Trackpoint>
          <Trackpoint>
            <Time>2022-07-09T11:10:01.000Z</Time>
            <Position>
              <LatitudeDegrees>43.3233365602791309356689453125</LatitudeDegrees>
              <LongitudeDegrees>-1.98066777549684047698974609375</LongitudeDegrees>
            </Position>
            <AltitudeMeters>4.400000095367431640625</AltitudeMeters>
            <DistanceMeters>NAN</DistanceMeters>
          </Trackpoint>
          <Trackpoint>
            <Time>2022-07-09T11:10:28.000Z</Time>
            <Position>
              <LatitudeDegrees>43.3233345486223697662353515625</LatitudeDegrees>
              <LongitudeDegrees>-1.98072292841970920562744140625</LongitudeDegrees>
            </Position>
            <AltitudeMeters>3.7999999523162841796875</AltitudeMeters>
            <DistanceMeters>NAN</DistanceMeters>
          </Trackpoint>
          <Trackpoint>
            <Time>2022-07-09T11:10:33.000Z</Time>
            <Position>
              <LatitudeDegrees>43.323317952454090118408203125</LatitudeDegrees>
              <LongitudeDegrees>-1.9808328151702880859375</LongitudeDegrees>
            </Position>
            <AltitudeMeters>3.7999999523162841796875</AltitudeMeters>
            <DistanceMeters>NAN</DistanceMeters>
          </Trackpoint>
          <Trackpoint>
            <Time>2022-07-09T11:10:35.000Z</Time>
            <Position>
              <LatitudeDegrees>43.32329993136227130889892578125</LatitudeDegrees>
              <LongitudeDegrees>-1.9808504171669483184814453125</LongitudeDegrees>
            </Position>
            <AltitudeMeters>3.599999904632568359375</AltitudeMeters>
            <DistanceMeters>NAN</DistanceMeters>
          </Trackpoint>
          <Trackpoint>
            <Time>2022-07-09T11:10:39.000Z</Time>
            <Position>
              <LatitudeDegrees>43.32327243871986865997314453125</LatitudeDegrees>
              <LongitudeDegrees>-1.9808598048985004425048828125</LongitudeDegrees>
            </Position>
            <AltitudeMeters>3.2000000476837158203125</AltitudeMeters>
            <DistanceMeters>NAN</DistanceMeters>
          </Trackpoint>
          <Trackpoint>
            <Time>2022-07-09T11:10:56.000Z</Time>
            <Position>
              <LatitudeDegrees>43.32325450144708156585693359375</LatitudeDegrees>
              <LongitudeDegrees>-1.9808943383395671844482421875</LongitudeDegrees>
            </Position>
            <AltitudeMeters>3.2000000476837158203125</AltitudeMeters>
            <DistanceMeters>NAN</DistanceMeters>
          </Trackpoint>
          <Trackpoint>
            <Time>2022-07-09T11:11:00.000Z</Time>
            <Position>
              <LatitudeDegrees>43.32322633825242519378662109375</LatitudeDegrees>
              <LongitudeDegrees>-1.9810318015515804290771484375</LongitudeDegrees>
            </Position>
            <AltitudeMeters>2.7999999523162841796875</AltitudeMeters>
            <DistanceMeters>NAN</DistanceMeters>
          </Trackpoint>
          <Trackpoint>
            <Time>2022-07-09T11:11:01.000Z</Time>
            <Position>
              <LatitudeDegrees>43.32321074791252613067626953125</LatitudeDegrees>
              <LongitudeDegrees>-1.98107144795358180999755859375</LongitudeDegrees>
            </Position>
            <AltitudeMeters>2.7999999523162841796875</AltitudeMeters>
            <DistanceMeters>NAN</DistanceMeters>
          </Trackpoint>
          <Trackpoint>
            <Time>2022-07-09T11:11:07.000Z</Time>
            <Position>
              <LatitudeDegrees>43.32311921752989292144775390625</LatitudeDegrees>
              <LongitudeDegrees>-1.9813234917819499969482421875</LongitudeDegrees>
            </Position>
            <AltitudeMeters>2.599999904632568359375</AltitudeMeters>
            <DistanceMeters>NAN</DistanceMeters>
          </Trackpoint>
          <Trackpoint>
            <Time>2022-07-09T11:11:12.000Z</Time>
            <Position>
              <LatitudeDegrees>43.323095329105854034423828125</LatitudeDegrees>
              <LongitudeDegrees>-1.98152692057192325592041015625</LongitudeDegrees>
            </Position>
            <AltitudeMeters>2.599999904632568359375</AltitudeMeters>
            <DistanceMeters>NAN</DistanceMeters>
          </Trackpoint>
          <Trackpoint>
            <Time>2022-07-09T11:11:13.000Z</Time>
            <Position>
              <LatitudeDegrees>43.32310647703707218170166015625</LatitudeDegrees>
              <LongitudeDegrees>-1.98154100216925144195556640625</LongitudeDegrees>
            </Position>
            <AltitudeMeters>2.400000095367431640625</AltitudeMeters>
            <DistanceMeters>NAN</DistanceMeters>
          </Trackpoint>
          <Trackpoint>
            <Time>2022-07-09T11:11:15.000Z</Time>
            <Position>
              <LatitudeDegrees>43.32312156446278095245361328125</LatitudeDegrees>
              <LongitudeDegrees>-1.9815394096076488494873046875</LongitudeDegrees>
            </Position>
            <AltitudeMeters>2</AltitudeMeters>
            <DistanceMeters>NAN</DistanceMeters>
          </Trackpoint>
          <Trackpoint>
            <Time>2022-07-09T11:11:17.000Z</Time>
            <Position>
              <LatitudeDegrees>43.323124162852764129638671875</LatitudeDegrees>
              <LongitudeDegrees>-1.9815370626747608184814453125</LongitudeDegrees>
            </Position>
            <AltitudeMeters>1.7999999523162841796875</AltitudeMeters>
            <DistanceMeters>NAN</DistanceMeters>
          </Trackpoint>
          <Trackpoint>
            <Time>2022-07-09T11:11:18.000Z</Time>
            <Position>
              <LatitudeDegrees>43.3231260068714618682861328125</LatitudeDegrees>
              <LongitudeDegrees>-1.9815377332270145416259765625</LongitudeDegrees>
            </Position>
            <AltitudeMeters>1.7999999523162841796875</AltitudeMeters>
            <DistanceMeters>NAN</DistanceMeters>
          </Trackpoint>
          <Trackpoint>
            <Time>2022-07-09T11:11:35.000Z</Time>
            <Position>
              <LatitudeDegrees>43.3231035433709621429443359375</LatitudeDegrees>
              <LongitudeDegrees>-1.98157846927642822265625</LongitudeDegrees>
            </Position>
            <AltitudeMeters>1.60000002384185791015625</AltitudeMeters>
            <DistanceMeters>NAN</DistanceMeters>
          </Trackpoint>
          <Trackpoint>
            <Time>2022-07-09T11:11:36.000Z</Time>
            <Position>
              <LatitudeDegrees>43.3230981789529323577880859375</LatitudeDegrees>
              <LongitudeDegrees>-1.98159380815923213958740234375</LongitudeDegrees>
            </Position>
            <AltitudeMeters>1.39999997615814208984375</AltitudeMeters>
            <DistanceMeters>NAN</DistanceMeters>
          </Trackpoint>
          <Trackpoint>
            <Time>2022-07-09T11:11:37.000Z</Time>
            <Position>
              <LatitudeDegrees>43.3230981789529323577880859375</LatitudeDegrees>
              <LongitudeDegrees>-1.98159380815923213958740234375</LongitudeDegrees>
            </Position>
            <AltitudeMeters>1.39999997615814208984375</AltitudeMeters>
            <DistanceMeters>NAN</DistanceMeters>
          </Trackpoint>
          <Trackpoint>
            <Time>2022-07-09T11:11:38.000Z</Time>
            <Position>
              <LatitudeDegrees>43.3230981789529323577880859375</LatitudeDegrees>
              <LongitudeDegrees>-1.98159380815923213958740234375</LongitudeDegrees>
            </Position>
            <AltitudeMeters>1.60000002384185791015625</AltitudeMeters>
            <DistanceMeters>NAN</DistanceMeters>
          </Trackpoint>
          <Trackpoint>
            <Time>2022-07-09T11:11:41.000Z</Time>
            <Position>
              <LatitudeDegrees>43.323069177567958831787109375</LatitudeDegrees>
              <LongitudeDegrees>-1.981645189225673675537109375</LongitudeDegrees>
            </Position>
            <AltitudeMeters>1.7999999523162841796875</AltitudeMeters>
            <DistanceMeters>NAN</DistanceMeters>
          </Trackpoint>
          <Trackpoint>
            <Time>2022-07-09T11:11:43.000Z</Time>
            <Position>
              <LatitudeDegrees>43.3230498991906642913818359375</LatitudeDegrees>
              <LongitudeDegrees>-1.981694139540195465087890625</LongitudeDegrees>
            </Position>
            <AltitudeMeters>1.7999999523162841796875</AltitudeMeters>
            <DistanceMeters>NAN</DistanceMeters>
          </Trackpoint>
          <Trackpoint>
            <Time>2022-07-09T11:11:47.000Z</Time>
            <Position>
              <LatitudeDegrees>43.32302316091954708099365234375</LatitudeDegrees>
              <LongitudeDegrees>-1.98177787475287914276123046875</LongitudeDegrees>
            </Position>
            <AltitudeMeters>1.60000002384185791015625</AltitudeMeters>
            <DistanceMeters>NAN</DistanceMeters>
          </Trackpoint>
          <Trackpoint>
            <Time>2022-07-09T11:11:49.000Z</Time>
            <Position>
              <LatitudeDegrees>43.3230267651379108428955078125</LatitudeDegrees>
              <LongitudeDegrees>-1.9817871786653995513916015625</LongitudeDegrees>
            </Position>
            <AltitudeMeters>1.39999997615814208984375</AltitudeMeters>
            <DistanceMeters>NAN</DistanceMeters>
          </Trackpoint>
          <Trackpoint>
            <Time>2022-07-09T11:11:51.000Z</Time>
            <Position>
              <LatitudeDegrees>43.32303271628916263580322265625</LatitudeDegrees>
              <LongitudeDegrees>-1.981787346303462982177734375</LongitudeDegrees>
            </Position>
            <AltitudeMeters>1.39999997615814208984375</AltitudeMeters>
            <DistanceMeters>NAN</DistanceMeters>
          </Trackpoint>
          <Trackpoint>
            <Time>2022-07-09T11:11:53.000Z</Time>
            <Position>
              <LatitudeDegrees>43.32303791306912899017333984375</LatitudeDegrees>
              <LongitudeDegrees>-1.9818096421658992767333984375</LongitudeDegrees>
            </Position>
            <AltitudeMeters>1.2000000476837158203125</AltitudeMeters>
            <DistanceMeters>NAN</DistanceMeters>
          </Trackpoint>
          <Trackpoint>
            <Time>2022-07-09T11:11:54.000Z</Time>
            <Position>
              <LatitudeDegrees>43.323037326335906982421875</LatitudeDegrees>
              <LongitudeDegrees>-1.9818185269832611083984375</LongitudeDegrees>
            </Position>
            <AltitudeMeters>1.2000000476837158203125</AltitudeMeters>
            <DistanceMeters>NAN</DistanceMeters>
          </Trackpoint>
          <Trackpoint>
            <Time>2022-07-09T11:11:55.000Z</Time>
            <Position>
              <LatitudeDegrees>43.323039673268795013427734375</LatitudeDegrees>
              <LongitudeDegrees>-1.9818280823528766632080078125</LongitudeDegrees>
            </Position>
            <AltitudeMeters>1.2000000476837158203125</AltitudeMeters>
            <DistanceMeters>NAN</DistanceMeters>
          </Trackpoint>
          <Trackpoint>
            <Time>2022-07-09T11:11:59.000Z</Time>
            <Position>
              <LatitudeDegrees>43.3230381645262241363525390625</LatitudeDegrees>
              <LongitudeDegrees>-1.98186747729778289794921875</LongitudeDegrees>
            </Position>
            <AltitudeMeters>1.2000000476837158203125</AltitudeMeters>
            <DistanceMeters>NAN</DistanceMeters>
          </Trackpoint>
          <Trackpoint>
            <Time>2022-07-09T11:12:02.000Z</Time>
            <Position>
              <LatitudeDegrees>43.32303456030786037445068359375</LatitudeDegrees>
              <LongitudeDegrees>-1.98191064409911632537841796875</LongitudeDegrees>
            </Position>
            <AltitudeMeters>1.2000000476837158203125</AltitudeMeters>
            <DistanceMeters>NAN</DistanceMeters>
          </Trackpoint>
          <Trackpoint>
            <Time>2022-07-09T11:12:03.000Z</Time>
            <Position>
              <LatitudeDegrees>43.323037326335906982421875</LatitudeDegrees>
              <LongitudeDegrees>-1.9819296710193157196044921875</LongitudeDegrees>
            </Position>
            <AltitudeMeters>1.2000000476837158203125</AltitudeMeters>
            <DistanceMeters>NAN</DistanceMeters>
          </Trackpoint>
          <Trackpoint>
            <Time>2022-07-09T11:12:04.000Z</Time>
            <Position>
              <LatitudeDegrees>43.32304076291620731353759765625</LatitudeDegrees>
              <LongitudeDegrees>-1.98194551281630992889404296875</LongitudeDegrees>
            </Position>
            <AltitudeMeters>1.2000000476837158203125</AltitudeMeters>
            <DistanceMeters>NAN</DistanceMeters>
          </Trackpoint>
          <Trackpoint>
            <Time>2022-07-09T11:12:07.000Z</Time>
            <Position>
              <LatitudeDegrees>43.32301109097898006439208984375</LatitudeDegrees>
              <LongitudeDegrees>-1.9819990731775760650634765625</LongitudeDegrees>
            </Position>
            <AltitudeMeters>1.2000000476837158203125</AltitudeMeters>
            <DistanceMeters>NAN</DistanceMeters>
          </Trackpoint>
          <Trackpoint>
            <Time>2022-07-09T11:12:08.000Z</Time>
            <Position>
              <LatitudeDegrees>43.32299985922873020172119140625</LatitudeDegrees>
              <LongitudeDegrees>-1.98201022110879421234130859375</LongitudeDegrees>
            </Position>
            <AltitudeMeters>1.2000000476837158203125</AltitudeMeters>
            <DistanceMeters>NAN</DistanceMeters>
          </Trackpoint>
          <Trackpoint>
            <Time>2022-07-09T11:12:13.000Z</Time>
            <Position>
              <LatitudeDegrees>43.32294118590652942657470703125</LatitudeDegrees>
              <LongitudeDegrees>-1.982125975191593170166015625</LongitudeDegrees>
            </Position>
            <AltitudeMeters>1.2000000476837158203125</AltitudeMeters>
            <DistanceMeters>NAN</DistanceMeters>
          </Trackpoint>
          <Trackpoint>
            <Time>2022-07-09T11:12:21.000Z</Time>
            <Position>
              <LatitudeDegrees>43.322862647473812103271484375</LatitudeDegrees>
              <LongitudeDegrees>-1.98239897377789020538330078125</LongitudeDegrees>
            </Position>
            <AltitudeMeters>1</AltitudeMeters>
            <DistanceMeters>NAN</DistanceMeters>
          </Trackpoint>
          <Trackpoint>
            <Time>2022-07-09T11:12:24.000Z</Time>
            <Position>
              <LatitudeDegrees>43.32283004187047481536865234375</LatitudeDegrees>
              <LongitudeDegrees>-1.98250827379524707794189453125</LongitudeDegrees>
            </Position>
            <AltitudeMeters>1</AltitudeMeters>
            <DistanceMeters>NAN</DistanceMeters>
          </Trackpoint>
          <Trackpoint>
            <Time>2022-07-09T11:12:29.000Z</Time>
            <Position>
              <LatitudeDegrees>43.32276667468249797821044921875</LatitudeDegrees>
              <LongitudeDegrees>-1.982686556875705718994140625</LongitudeDegrees>
            </Position>
            <AltitudeMeters>1</AltitudeMeters>
            <DistanceMeters>NAN</DistanceMeters>
          </Trackpoint>
          <Trackpoint>
            <Time>2022-07-09T11:12:33.000Z</Time>
            <Position>
              <LatitudeDegrees>43.32281109876930713653564453125</LatitudeDegrees>
              <LongitudeDegrees>-1.9828084297478199005126953125</LongitudeDegrees>
            </Position>
            <AltitudeMeters>1.2000000476837158203125</AltitudeMeters>
            <DistanceMeters>NAN</DistanceMeters>
          </Trackpoint>
          <Trackpoint>
            <Time>2022-07-09T11:12:39.000Z</Time>
            <Position>
              <LatitudeDegrees>43.32293179817497730255126953125</LatitudeDegrees>
              <LongitudeDegrees>-1.98288361541926860809326171875</LongitudeDegrees>
            </Position>
            <AltitudeMeters>1.2000000476837158203125</AltitudeMeters>
            <DistanceMeters>NAN</DistanceMeters>
          </Trackpoint>
          <Trackpoint>
            <Time>2022-07-09T11:12:44.000Z</Time>
            <Position>
              <LatitudeDegrees>43.32299717701971530914306640625</LatitudeDegrees>
              <LongitudeDegrees>-1.982950754463672637939453125</LongitudeDegrees>
            </Position>
            <AltitudeMeters>1</AltitudeMeters>
            <DistanceMeters>NAN</DistanceMeters>
          </Trackpoint>
          <Trackpoint>
            <Time>2022-07-09T11:12:45.000Z</Time>
            <Position>
              <LatitudeDegrees>43.32300472073256969451904296875</LatitudeDegrees>
              <LongitudeDegrees>-1.98296844027936458587646484375</LongitudeDegrees>
            </Position>
            <AltitudeMeters>1</AltitudeMeters>
            <DistanceMeters>NAN</DistanceMeters>
          </Trackpoint>
          <Trackpoint>
            <Time>2022-07-09T11:12:50.000Z</Time>
            <Position>
              <LatitudeDegrees>43.32306155003607273101806640625</LatitudeDegrees>
              <LongitudeDegrees>-1.98299341835081577301025390625</LongitudeDegrees>
            </Position>
            <AltitudeMeters>1.2000000476837158203125</AltitudeMeters>
            <DistanceMeters>NAN</DistanceMeters>
          </Trackpoint>
          <Trackpoint>
            <Time>2022-07-09T11:12:51.000Z</Time>
            <Position>
              <LatitudeDegrees>43.32307747565209865570068359375</LatitudeDegrees>
              <LongitudeDegrees>-1.9830012135207653045654296875</LongitudeDegrees>
            </Position>
            <AltitudeMeters>1.2000000476837158203125</AltitudeMeters>
            <DistanceMeters>NAN</DistanceMeters>
          </Trackpoint>
          <Trackpoint>
            <Time>2022-07-09T11:12:55.000Z</Time>
            <Position>
              <LatitudeDegrees>43.323122821748256683349609375</LatitudeDegrees>
              <LongitudeDegrees>-1.983025185763835906982421875</LongitudeDegrees>
            </Position>
            <AltitudeMeters>1.2000000476837158203125</AltitudeMeters>
            <DistanceMeters>NAN</DistanceMeters>
          </Trackpoint>
          <Trackpoint>
            <Time>2022-07-09T11:12:57.000Z</Time>
            <Position>
              <LatitudeDegrees>43.32312843762338161468505859375</LatitudeDegrees>
              <LongitudeDegrees>-1.9830201566219329833984375</LongitudeDegrees>
            </Position>
            <AltitudeMeters>1</AltitudeMeters>
            <DistanceMeters>NAN</DistanceMeters>
          </Trackpoint>
          <Trackpoint>
            <Time>2022-07-09T11:13:00.000Z</Time>
            <Position>
              <LatitudeDegrees>43.32315827719867229461669921875</LatitudeDegrees>
              <LongitudeDegrees>-1.98298931121826171875</LongitudeDegrees>
            </Position>
            <AltitudeMeters>1</AltitudeMeters>
            <DistanceMeters>NAN</DistanceMeters>
          </Trackpoint>
          <Trackpoint>
            <Time>2022-07-09T11:13:01.000Z</Time>
            <Position>
              <LatitudeDegrees>43.32317202351987361907958984375</LatitudeDegrees>
              <LongitudeDegrees>-1.98298319242894649505615234375</LongitudeDegrees>
            </Position>
            <AltitudeMeters>1</AltitudeMeters>
            <DistanceMeters>NAN</DistanceMeters>
          </Trackpoint>
          <Trackpoint>
            <Time>2022-07-09T11:13:02.000Z</Time>
            <Position>
              <LatitudeDegrees>43.3231883682310581207275390625</LatitudeDegrees>
              <LongitudeDegrees>-1.98296450078487396240234375</LongitudeDegrees>
            </Position>
            <AltitudeMeters>1</AltitudeMeters>
            <DistanceMeters>NAN</DistanceMeters>
          </Trackpoint>
          <Trackpoint>
            <Time>2022-07-09T11:13:06.000Z</Time>
            <Position>
              <LatitudeDegrees>43.32323203794658184051513671875</LatitudeDegrees>
              <LongitudeDegrees>-1.98292904533445835113525390625</LongitudeDegrees>
            </Position>
            <AltitudeMeters>1.2000000476837158203125</AltitudeMeters>
            <DistanceMeters>NAN</DistanceMeters>
          </Trackpoint>
          <Trackpoint>
            <Time>2022-07-09T11:13:07.000Z</Time>
            <Position>
              <LatitudeDegrees>43.3232681639492511749267578125</LatitudeDegrees>
              <LongitudeDegrees>-1.98292368091642856597900390625</LongitudeDegrees>
            </Position>
            <AltitudeMeters>1.2000000476837158203125</AltitudeMeters>
            <DistanceMeters>NAN</DistanceMeters>
          </Trackpoint>
          <Trackpoint>
            <Time>2022-07-09T11:13:13.000Z</Time>
            <Position>
              <LatitudeDegrees>43.32338911481201648712158203125</LatitudeDegrees>
              <LongitudeDegrees>-1.98294061236083507537841796875</LongitudeDegrees>
            </Position>
            <AltitudeMeters>1.39999997615814208984375</AltitudeMeters>
            <DistanceMeters>NAN</DistanceMeters>
          </Trackpoint>
          <Trackpoint>
            <Time>2022-07-09T11:13:14.000Z</Time>
            <Position>
              <LatitudeDegrees>43.3234086446464061737060546875</LatitudeDegrees>
              <LongitudeDegrees>-1.9829284586012363433837890625</LongitudeDegrees>
            </Position>
            <AltitudeMeters>1.39999997615814208984375</AltitudeMeters>
            <DistanceMeters>NAN</DistanceMeters>
          </Trackpoint>
          <Trackpoint>
            <Time>2022-07-09T11:13:15.000Z</Time>
            <Position>
              <LatitudeDegrees>43.3234223909676074981689453125</LatitudeDegrees>
              <LongitudeDegrees>-1.982909850776195526123046875</LongitudeDegrees>
            </Position>
            <AltitudeMeters>1.39999997615814208984375</AltitudeMeters>
            <DistanceMeters>NAN</DistanceMeters>
          </Trackpoint>
          <Trackpoint>
            <Time>2022-07-09T11:13:17.000Z</Time>
            <Position>
              <LatitudeDegrees>43.3234441839158535003662109375</LatitudeDegrees>
              <LongitudeDegrees>-1.98287439532577991485595703125</LongitudeDegrees>
            </Position>
            <AltitudeMeters>1.39999997615814208984375</AltitudeMeters>
            <DistanceMeters>NAN</DistanceMeters>
          </Trackpoint>
          <Trackpoint>
            <Time>2022-07-09T11:13:18.000Z</Time>
            <Position>
              <LatitudeDegrees>43.323442004621028900146484375</LatitudeDegrees>
              <LongitudeDegrees>-1.98287154547870159149169921875</LongitudeDegrees>
            </Position>
            <AltitudeMeters>1.39999997615814208984375</AltitudeMeters>
            <DistanceMeters>NAN</DistanceMeters>
          </Trackpoint>
          <Trackpoint>
            <Time>2022-07-09T11:13:23.000Z</Time>
            <Position>
              <LatitudeDegrees>43.32347779534757137298583984375</LatitudeDegrees>
              <LongitudeDegrees>-1.98290892876684665679931640625</LongitudeDegrees>
            </Position>
            <AltitudeMeters>1.39999997615814208984375</AltitudeMeters>
            <DistanceMeters>NAN</DistanceMeters>
          </Trackpoint>
          <Trackpoint>
            <Time>2022-07-09T11:13:24.000Z</Time>
            <Position>
              <LatitudeDegrees>43.323488272726535797119140625</LatitudeDegrees>
              <LongitudeDegrees>-1.9829284586012363433837890625</LongitudeDegrees>
            </Position>
            <AltitudeMeters>1.39999997615814208984375</AltitudeMeters>
            <DistanceMeters>NAN</DistanceMeters>
          </Trackpoint>
          <Trackpoint>
            <Time>2022-07-09T11:13:28.000Z</Time>
            <Position>
              <LatitudeDegrees>43.32345315255224704742431640625</LatitudeDegrees>
              <LongitudeDegrees>-1.98301537893712520599365234375</LongitudeDegrees>
            </Position>
            <AltitudeMeters>1.2000000476837158203125</AltitudeMeters>
            <DistanceMeters>NAN</DistanceMeters>
          </Trackpoint>
          <Trackpoint>
            <Time>2022-07-09T11:13:29.000Z</Time>
            <Position>
              <LatitudeDegrees>43.32345818169414997100830078125</LatitudeDegrees>
              <LongitudeDegrees>-1.9830504991114139556884765625</LongitudeDegrees>
            </Position>
            <AltitudeMeters>1.39999997615814208984375</AltitudeMeters>
            <DistanceMeters>NAN</DistanceMeters>
          </Trackpoint>
          <Trackpoint>
            <Time>2022-07-09T11:13:32.000Z</Time>
            <Position>
              <LatitudeDegrees>43.3235013484954833984375</LatitudeDegrees>
              <LongitudeDegrees>-1.9830950908362865447998046875</LongitudeDegrees>
            </Position>
            <AltitudeMeters>1.60000002384185791015625</AltitudeMeters>
            <DistanceMeters>NAN</DistanceMeters>
          </Trackpoint>
          <Trackpoint>
            <Time>2022-07-09T11:13:38.000Z</Time>
            <Position>
              <LatitudeDegrees>43.3235913701355457305908203125</LatitudeDegrees>
              <LongitudeDegrees>-1.9831601344048976898193359375</LongitudeDegrees>
            </Position>
            <AltitudeMeters>1.60000002384185791015625</AltitudeMeters>
            <DistanceMeters>NAN</DistanceMeters>
          </Trackpoint>
          <Trackpoint>
            <Time>2022-07-09T11:13:40.000Z</Time>
            <Position>
              <LatitudeDegrees>43.323619365692138671875</LatitudeDegrees>
              <LongitudeDegrees>-1.98317664675414562225341796875</LongitudeDegrees>
            </Position>
            <AltitudeMeters>1.39999997615814208984375</AltitudeMeters>
            <DistanceMeters>NAN</DistanceMeters>
          </Trackpoint>
          <Trackpoint>
            <Time>2022-07-09T11:13:43.000Z</Time>
            <Position>
              <LatitudeDegrees>43.32362984307110309600830078125</LatitudeDegrees>
              <LongitudeDegrees>-1.98319248855113983154296875</LongitudeDegrees>
            </Position>
            <AltitudeMeters>1.39999997615814208984375</AltitudeMeters>
            <DistanceMeters>NAN</DistanceMeters>
          </Trackpoint>
          <Trackpoint>
            <Time>2022-07-09T11:13:48.000Z</Time>
            <Position>
              <LatitudeDegrees>43.3237140811979770660400390625</LatitudeDegrees>
              <LongitudeDegrees>-1.98327773250639438629150390625</LongitudeDegrees>
            </Position>
            <AltitudeMeters>1.39999997615814208984375</AltitudeMeters>
            <DistanceMeters>NAN</DistanceMeters>
          </Trackpoint>
          <Trackpoint>
            <Time>2022-07-09T11:13:54.000Z</Time>
            <Position>
              <LatitudeDegrees>43.32383519969880580902099609375</LatitudeDegrees>
              <LongitudeDegrees>-1.98337127454578876495361328125</LongitudeDegrees>
            </Position>
            <AltitudeMeters>1.39999997615814208984375</AltitudeMeters>
            <DistanceMeters>NAN</DistanceMeters>
          </Trackpoint>
          <Trackpoint>
            <Time>2022-07-09T11:13:59.000Z</Time>
            <Position>
              <LatitudeDegrees>43.32394517026841640472412109375</LatitudeDegrees>
              <LongitudeDegrees>-1.98341913521289825439453125</LongitudeDegrees>
            </Position>
            <AltitudeMeters>1.2000000476837158203125</AltitudeMeters>
            <DistanceMeters>NAN</DistanceMeters>
          </Trackpoint>
          <Trackpoint>
            <Time>2022-07-09T11:14:01.000Z</Time>
            <Position>
              <LatitudeDegrees>43.323971740901470184326171875</LatitudeDegrees>
              <LongitudeDegrees>-1.9834573566913604736328125</LongitudeDegrees>
            </Position>
            <AltitudeMeters>1.2000000476837158203125</AltitudeMeters>
            <DistanceMeters>NAN</DistanceMeters>
          </Trackpoint>
          <Trackpoint>
            <Time>2022-07-09T11:14:03.000Z</Time>
            <Position>
              <LatitudeDegrees>43.32398825325071811676025390625</LatitudeDegrees>
              <LongitudeDegrees>-1.983505971729755401611328125</LongitudeDegrees>
            </Position>
            <AltitudeMeters>1</AltitudeMeters>
            <DistanceMeters>NAN</DistanceMeters>
          </Trackpoint>
          <Trackpoint>
            <Time>2022-07-09T11:14:05.000Z</Time>
            <Position>
              <LatitudeDegrees>43.32402748055756092071533203125</LatitudeDegrees>
              <LongitudeDegrees>-1.98349960148334503173828125</LongitudeDegrees>
            </Position>
            <AltitudeMeters>0.800000011920928955078125</AltitudeMeters>
            <DistanceMeters>NAN</DistanceMeters>
          </Trackpoint>
          <Trackpoint>
            <Time>2022-07-09T11:14:06.000Z</Time>
            <Position>
              <LatitudeDegrees>43.32404122687876224517822265625</LatitudeDegrees>
              <LongitudeDegrees>-1.98349549435079097747802734375</LongitudeDegrees>
            </Position>
            <AltitudeMeters>0.60000002384185791015625</AltitudeMeters>
            <DistanceMeters>NAN</DistanceMeters>
          </Trackpoint>
          <Trackpoint>
            <Time>2022-07-09T11:14:07.000Z</Time>
            <Position>
              <LatitudeDegrees>43.32406318746507167816162109375</LatitudeDegrees>
              <LongitudeDegrees>-1.9834860228002071380615234375</LongitudeDegrees>
            </Position>
            <AltitudeMeters>0.60000002384185791015625</AltitudeMeters>
            <DistanceMeters>NAN</DistanceMeters>
          </Trackpoint>
          <Trackpoint>
            <Time>2022-07-09T11:14:08.000Z</Time>
            <Position>
              <LatitudeDegrees>43.324083723127841949462890625</LatitudeDegrees>
              <LongitudeDegrees>-1.9834638945758342742919921875</LongitudeDegrees>
            </Position>
            <AltitudeMeters>0.4000000059604644775390625</AltitudeMeters>
            <DistanceMeters>NAN</DistanceMeters>
          </Trackpoint>
          <Trackpoint>
            <Time>2022-07-09T11:14:11.000Z</Time>
            <Position>
              <LatitudeDegrees>43.32414952106773853302001953125</LatitudeDegrees>
              <LongitudeDegrees>-1.98334529064595699310302734375</LongitudeDegrees>
            </Position>
            <AltitudeMeters>0.4000000059604644775390625</AltitudeMeters>
            <DistanceMeters>NAN</DistanceMeters>
          </Trackpoint>
          <Trackpoint>
            <Time>2022-07-09T11:14:12.000Z</Time>
            <Position>
              <LatitudeDegrees>43.32416913472115993499755859375</LatitudeDegrees>
              <LongitudeDegrees>-1.98331729508936405181884765625</LongitudeDegrees>
            </Position>
            <AltitudeMeters>0.60000002384185791015625</AltitudeMeters>
            <DistanceMeters>NAN</DistanceMeters>
          </Trackpoint>
          <Trackpoint>
            <Time>2022-07-09T11:14:15.000Z</Time>
            <Position>
              <LatitudeDegrees>43.32423426210880279541015625</LatitudeDegrees>
              <LongitudeDegrees>-1.98323196731507778167724609375</LongitudeDegrees>
            </Position>
            <AltitudeMeters>0.800000011920928955078125</AltitudeMeters>
            <DistanceMeters>NAN</DistanceMeters>
          </Trackpoint>
          <Trackpoint>
            <Time>2022-07-09T11:14:19.000Z</Time>
            <Position>
              <LatitudeDegrees>43.32429670728743076324462890625</LatitudeDegrees>
              <LongitudeDegrees>-1.98313490487635135650634765625</LongitudeDegrees>
            </Position>
            <AltitudeMeters>1</AltitudeMeters>
            <DistanceMeters>NAN</DistanceMeters>
          </Trackpoint>
          <Trackpoint>
            <Time>2022-07-09T11:14:24.000Z</Time>
            <Position>
              <LatitudeDegrees>43.3243073523044586181640625</LatitudeDegrees>
              <LongitudeDegrees>-1.983016468584537506103515625</LongitudeDegrees>
            </Position>
            <AltitudeMeters>1.2000000476837158203125</AltitudeMeters>
            <DistanceMeters>NAN</DistanceMeters>
          </Trackpoint>
          <Trackpoint>
            <Time>2022-07-09T11:14:26.000Z</Time>
            <Position>
              <LatitudeDegrees>43.32431481219828128814697265625</LatitudeDegrees>
              <LongitudeDegrees>-1.98297615163028240203857421875</LongitudeDegrees>
            </Position>
            <AltitudeMeters>1.39999997615814208984375</AltitudeMeters>
            <DistanceMeters>NAN</DistanceMeters>
          </Trackpoint>
          <Trackpoint>
            <Time>2022-07-09T11:14:28.000Z</Time>
            <Position>
              <LatitudeDegrees>43.324295617640018463134765625</LatitudeDegrees>
              <LongitudeDegrees>-1.98294681496918201446533203125</LongitudeDegrees>
            </Position>
            <AltitudeMeters>1.39999997615814208984375</AltitudeMeters>
            <DistanceMeters>NAN</DistanceMeters>
          </Trackpoint>
          <Trackpoint>
            <Time>2022-07-09T11:14:33.000Z</Time>
            <Position>
              <LatitudeDegrees>43.32420249469578266143798828125</LatitudeDegrees>
              <LongitudeDegrees>-1.98290348052978515625</LongitudeDegrees>
            </Position>
            <AltitudeMeters>1.60000002384185791015625</AltitudeMeters>
            <DistanceMeters>NAN</DistanceMeters>
          </Trackpoint>
          <Trackpoint>
            <Time>2022-07-09T11:14:34.000Z</Time>
            <Position>
              <LatitudeDegrees>43.324190340936183929443359375</LatitudeDegrees>
              <LongitudeDegrees>-1.98289400897920131683349609375</LongitudeDegrees>
            </Position>
            <AltitudeMeters>1.60000002384185791015625</AltitudeMeters>
            <DistanceMeters>NAN</DistanceMeters>
          </Trackpoint>
          <Trackpoint>
            <Time>2022-07-09T11:14:37.000Z</Time>
            <Position>
              <LatitudeDegrees>43.32411783747375011444091796875</LatitudeDegrees>
              <LongitudeDegrees>-1.98282678611576557159423828125</LongitudeDegrees>
            </Position>
            <AltitudeMeters>1.60000002384185791015625</AltitudeMeters>
            <DistanceMeters>NAN</DistanceMeters>
          </Trackpoint>
          <Trackpoint>
            <Time>2022-07-09T11:14:38.000Z</Time>
            <Position>
              <LatitudeDegrees>43.32410962320864200592041015625</LatitudeDegrees>
              <LongitudeDegrees>-1.9828054122626781463623046875</LongitudeDegrees>
            </Position>
            <AltitudeMeters>1.7999999523162841796875</AltitudeMeters>
            <DistanceMeters>NAN</DistanceMeters>
          </Trackpoint>
          <Trackpoint>
            <Time>2022-07-09T11:14:39.000Z</Time>
            <Position>
              <LatitudeDegrees>43.32408866845071315765380859375</LatitudeDegrees>
              <LongitudeDegrees>-1.98278655298054218292236328125</LongitudeDegrees>
            </Position>
            <AltitudeMeters>1.60000002384185791015625</AltitudeMeters>
            <DistanceMeters>NAN</DistanceMeters>
          </Trackpoint>
          <Trackpoint>
            <Time>2022-07-09T11:14:42.000Z</Time>
            <Position>
              <LatitudeDegrees>43.32399462349712848663330078125</LatitudeDegrees>
              <LongitudeDegrees>-1.9827329926192760467529296875</LongitudeDegrees>
            </Position>
            <AltitudeMeters>1.60000002384185791015625</AltitudeMeters>
            <DistanceMeters>NAN</DistanceMeters>
          </Trackpoint>
          <Trackpoint>
            <Time>2022-07-09T11:14:48.000Z</Time>
            <Position>
              <LatitudeDegrees>43.3239742554724216461181640625</LatitudeDegrees>
              <LongitudeDegrees>-1.982674486935138702392578125</LongitudeDegrees>
            </Position>
            <AltitudeMeters>1.60000002384185791015625</AltitudeMeters>
            <DistanceMeters>NAN</DistanceMeters>
          </Trackpoint>
          <Trackpoint>
            <Time>2022-07-09T11:14:53.000Z</Time>
            <Position>
              <LatitudeDegrees>43.3239742554724216461181640625</LatitudeDegrees>
              <LongitudeDegrees>-1.982674486935138702392578125</LongitudeDegrees>
            </Position>
            <AltitudeMeters>1.60000002384185791015625</AltitudeMeters>
            <DistanceMeters>NAN</DistanceMeters>
          </Trackpoint>
          <Trackpoint>
            <Time>2022-07-09T11:17:38.000Z</Time>
            <Position>
              <LatitudeDegrees>43.32402865402400493621826171875</LatitudeDegrees>
              <LongitudeDegrees>-1.98269200511276721954345703125</LongitudeDegrees>
            </Position>
            <AltitudeMeters>1</AltitudeMeters>
            <DistanceMeters>NAN</DistanceMeters>
          </Trackpoint>
          <Trackpoint>
            <Time>2022-07-09T11:17:39.000Z</Time>
            <Position>
              <LatitudeDegrees>43.32404441200196743011474609375</LatitudeDegrees>
              <LongitudeDegrees>-1.9827098585665225982666015625</LongitudeDegrees>
            </Position>
            <AltitudeMeters>1</AltitudeMeters>
            <DistanceMeters>NAN</DistanceMeters>
          </Trackpoint>
          <Trackpoint>
            <Time>2022-07-09T11:17:41.000Z</Time>
            <Position>
              <LatitudeDegrees>43.32409084774553775787353515625</LatitudeDegrees>
              <LongitudeDegrees>-1.98276090435683727264404296875</LongitudeDegrees>
            </Position>
            <AltitudeMeters>3</AltitudeMeters>
            <DistanceMeters>NAN</DistanceMeters>
          </Trackpoint>
          <Trackpoint>
            <Time>2022-07-09T11:17:42.000Z</Time>
            <Position>
              <LatitudeDegrees>43.324107863008975982666015625</LatitudeDegrees>
              <LongitudeDegrees>-1.982779763638973236083984375</LongitudeDegrees>
            </Position>
            <AltitudeMeters>4</AltitudeMeters>
            <DistanceMeters>NAN</DistanceMeters>
          </Trackpoint>
          <Trackpoint>
            <Time>2022-07-09T11:17:45.000Z</Time>
            <Position>
              <LatitudeDegrees>43.32418405450880527496337890625</LatitudeDegrees>
              <LongitudeDegrees>-1.98283282108604907989501953125</LongitudeDegrees>
            </Position>
            <AltitudeMeters>5</AltitudeMeters>
            <DistanceMeters>NAN</DistanceMeters>
          </Trackpoint>
          <Trackpoint>
            <Time>2022-07-09T11:17:49.000Z</Time>
            <Position>
              <LatitudeDegrees>43.32427776418626308441162109375</LatitudeDegrees>
              <LongitudeDegrees>-1.9829016365110874176025390625</LongitudeDegrees>
            </Position>
            <AltitudeMeters>5.19999980926513671875</AltitudeMeters>
            <DistanceMeters>NAN</DistanceMeters>
          </Trackpoint>
          <Trackpoint>
            <Time>2022-07-09T11:17:51.000Z</Time>
            <Position>
              <LatitudeDegrees>43.32431917078793048858642578125</LatitudeDegrees>
              <LongitudeDegrees>-1.9829432107508182525634765625</LongitudeDegrees>
            </Position>
            <AltitudeMeters>5.400000095367431640625</AltitudeMeters>
            <DistanceMeters>NAN</DistanceMeters>
          </Trackpoint>
          <Trackpoint>
            <Time>2022-07-09T11:17:52.000Z</Time>
            <Position>
              <LatitudeDegrees>43.32431917078793048858642578125</LatitudeDegrees>
              <LongitudeDegrees>-1.98298151604831218719482421875</LongitudeDegrees>
            </Position>
            <AltitudeMeters>5.19999980926513671875</AltitudeMeters>
            <DistanceMeters>NAN</DistanceMeters>
          </Trackpoint>
          <Trackpoint>
            <Time>2022-07-09T11:17:57.000Z</Time>
            <Position>
              <LatitudeDegrees>43.32426032982766628265380859375</LatitudeDegrees>
              <LongitudeDegrees>-1.9831926561892032623291015625</LongitudeDegrees>
            </Position>
            <AltitudeMeters>5</AltitudeMeters>
            <DistanceMeters>NAN</DistanceMeters>
          </Trackpoint>
          <Trackpoint>
            <Time>2022-07-09T11:18:03.000Z</Time>
            <Position>
              <LatitudeDegrees>43.324145413935184478759765625</LatitudeDegrees>
              <LongitudeDegrees>-1.9834219850599765777587890625</LongitudeDegrees>
            </Position>
            <AltitudeMeters>4.400000095367431640625</AltitudeMeters>
            <DistanceMeters>NAN</DistanceMeters>
          </Trackpoint>
          <Trackpoint>
            <Time>2022-07-09T11:18:07.000Z</Time>
            <Position>
              <LatitudeDegrees>43.3241472579538822174072265625</LatitudeDegrees>
              <LongitudeDegrees>-1.9834330491721630096435546875</LongitudeDegrees>
            </Position>
            <AltitudeMeters>4.19999980926513671875</AltitudeMeters>
            <DistanceMeters>NAN</DistanceMeters>
          </Trackpoint>
          <Trackpoint>
            <Time>2022-07-09T11:18:10.000Z</Time>
            <Position>
              <LatitudeDegrees>43.32416896708309650421142578125</LatitudeDegrees>
              <LongitudeDegrees>-1.98342927731573581695556640625</LongitudeDegrees>
            </Position>
            <AltitudeMeters>4.19999980926513671875</AltitudeMeters>
            <DistanceMeters>NAN</DistanceMeters>
          </Trackpoint>
          <Trackpoint>
            <Time>2022-07-09T11:18:11.000Z</Time>
            <Position>
              <LatitudeDegrees>43.3241278119385242462158203125</LatitudeDegrees>
              <LongitudeDegrees>-1.98342257179319858551025390625</LongitudeDegrees>
            </Position>
            <AltitudeMeters>4.19999980926513671875</AltitudeMeters>
            <DistanceMeters>NAN</DistanceMeters>
          </Trackpoint>
          <Trackpoint>
            <Time>2022-07-09T11:18:12.000Z</Time>
            <Position>
              <LatitudeDegrees>43.32411834038794040679931640625</LatitudeDegrees>
              <LongitudeDegrees>-1.9834176264703273773193359375</LongitudeDegrees>
            </Position>
            <AltitudeMeters>4.400000095367431640625</AltitudeMeters>
            <DistanceMeters>NAN</DistanceMeters>
          </Trackpoint>
          <Trackpoint>
            <Time>2022-07-09T11:18:16.000Z</Time>
            <Position>
              <LatitudeDegrees>43.3240979723632335662841796875</LatitudeDegrees>
              <LongitudeDegrees>-1.98340211994946002960205078125</LongitudeDegrees>
            </Position>
            <AltitudeMeters>4.400000095367431640625</AltitudeMeters>
            <DistanceMeters>NAN</DistanceMeters>
          </Trackpoint>
          <Trackpoint>
            <Time>2022-07-09T11:18:18.000Z</Time>
            <Position>
              <LatitudeDegrees>43.324076347053050994873046875</LatitudeDegrees>
              <LongitudeDegrees>-1.9833914749324321746826171875</LongitudeDegrees>
            </Position>
            <AltitudeMeters>4.599999904632568359375</AltitudeMeters>
            <DistanceMeters>NAN</DistanceMeters>
          </Trackpoint>
          <Trackpoint>
            <Time>2022-07-09T11:18:20.000Z</Time>
            <Position>
              <LatitudeDegrees>43.32397836260497570037841796875</LatitudeDegrees>
              <LongitudeDegrees>-1.9833549298346042633056640625</LongitudeDegrees>
            </Position>
            <AltitudeMeters>4.599999904632568359375</AltitudeMeters>
            <DistanceMeters>NAN</DistanceMeters>
          </Trackpoint>
          <Trackpoint>
            <Time>2022-07-09T11:18:26.000Z</Time>
            <Position>
              <LatitudeDegrees>43.3237603493034839630126953125</LatitudeDegrees>
              <LongitudeDegrees>-1.983281336724758148193359375</LongitudeDegrees>
            </Position>
            <AltitudeMeters>5</AltitudeMeters>
            <DistanceMeters>NAN</DistanceMeters>
          </Trackpoint>
          <Trackpoint>
            <Time>2022-07-09T11:18:32.000Z</Time>
            <Position>
              <LatitudeDegrees>43.32362263463437557220458984375</LatitudeDegrees>
              <LongitudeDegrees>-1.9831993617117404937744140625</LongitudeDegrees>
            </Position>
            <AltitudeMeters>5.19999980926513671875</AltitudeMeters>
            <DistanceMeters>NAN</DistanceMeters>
          </Trackpoint>
          <Trackpoint>
            <Time>2022-07-09T11:18:33.000Z</Time>
            <Position>
              <LatitudeDegrees>43.32360855303704738616943359375</LatitudeDegrees>
              <LongitudeDegrees>-1.98318653739988803863525390625</LongitudeDegrees>
            </Position>
            <AltitudeMeters>5.19999980926513671875</AltitudeMeters>
            <DistanceMeters>NAN</DistanceMeters>
          </Trackpoint>
          <Trackpoint>
            <Time>2022-07-09T11:18:36.000Z</Time>
            <Position>
              <LatitudeDegrees>43.32358424551784992218017578125</LatitudeDegrees>
              <LongitudeDegrees>-1.9831789098680019378662109375</LongitudeDegrees>
            </Position>
            <AltitudeMeters>5.19999980926513671875</AltitudeMeters>
            <DistanceMeters>NAN</DistanceMeters>
          </Trackpoint>
          <Trackpoint>
            <Time>2022-07-09T11:18:37.000Z</Time>
            <Position>
              <LatitudeDegrees>43.32357041537761688232421875</LatitudeDegrees>
              <LongitudeDegrees>-1.98317966423928737640380859375</LongitudeDegrees>
            </Position>
            <AltitudeMeters>5.19999980926513671875</AltitudeMeters>
            <DistanceMeters>NAN</DistanceMeters>
          </Trackpoint>
          <Trackpoint>
            <Time>2022-07-09T11:18:39.000Z</Time>
            <Position>
              <LatitudeDegrees>43.323572762310504913330078125</LatitudeDegrees>
              <LongitudeDegrees>-1.9831638224422931671142578125</LongitudeDegrees>
            </Position>
            <AltitudeMeters>5.19999980926513671875</AltitudeMeters>
            <DistanceMeters>NAN</DistanceMeters>
          </Trackpoint>
          <Trackpoint>
            <Time>2022-07-09T11:18:42.000Z</Time>
            <Position>
              <LatitudeDegrees>43.3235699124634265899658203125</LatitudeDegrees>
              <LongitudeDegrees>-1.983174383640289306640625</LongitudeDegrees>
            </Position>
            <AltitudeMeters>5.19999980926513671875</AltitudeMeters>
            <DistanceMeters>NAN</DistanceMeters>
          </Trackpoint>
          <Trackpoint>
            <Time>2022-07-09T11:18:46.000Z</Time>
            <Position>
              <LatitudeDegrees>43.32352481782436370849609375</LatitudeDegrees>
              <LongitudeDegrees>-1.9830950908362865447998046875</LongitudeDegrees>
            </Position>
            <AltitudeMeters>5</AltitudeMeters>
            <DistanceMeters>NAN</DistanceMeters>
          </Trackpoint>
          <Trackpoint>
            <Time>2022-07-09T11:18:49.000Z</Time>
            <Position>
              <LatitudeDegrees>43.3234758675098419189453125</LatitudeDegrees>
              <LongitudeDegrees>-1.98303331620991230010986328125</LongitudeDegrees>
            </Position>
            <AltitudeMeters>5</AltitudeMeters>
            <DistanceMeters>NAN</DistanceMeters>
          </Trackpoint>
          <Trackpoint>
            <Time>2022-07-09T11:18:51.000Z</Time>
            <Position>
              <LatitudeDegrees>43.323435969650745391845703125</LatitudeDegrees>
              <LongitudeDegrees>-1.9830032251775264739990234375</LongitudeDegrees>
            </Position>
            <AltitudeMeters>4.80000019073486328125</AltitudeMeters>
            <DistanceMeters>NAN</DistanceMeters>
          </Trackpoint>
          <Trackpoint>
            <Time>2022-07-09T11:18:56.000Z</Time>
            <Position>
              <LatitudeDegrees>43.32333027385175228118896484375</LatitudeDegrees>
              <LongitudeDegrees>-1.982904486358165740966796875</LongitudeDegrees>
            </Position>
            <AltitudeMeters>4.400000095367431640625</AltitudeMeters>
            <DistanceMeters>NAN</DistanceMeters>
          </Trackpoint>
          <Trackpoint>
            <Time>2022-07-09T11:19:02.000Z</Time>
            <Position>
              <LatitudeDegrees>43.3232678286731243133544921875</LatitudeDegrees>
              <LongitudeDegrees>-1.9827775843441486358642578125</LongitudeDegrees>
            </Position>
            <AltitudeMeters>4.19999980926513671875</AltitudeMeters>
            <DistanceMeters>NAN</DistanceMeters>
          </Trackpoint>
          <Trackpoint>
            <Time>2022-07-09T11:19:05.000Z</Time>
            <Position>
              <LatitudeDegrees>43.32331501878798007965087890625</LatitudeDegrees>
              <LongitudeDegrees>-1.98267976753413677215576171875</LongitudeDegrees>
            </Position>
            <AltitudeMeters>4.599999904632568359375</AltitudeMeters>
            <DistanceMeters>NAN</DistanceMeters>
          </Trackpoint>
          <Trackpoint>
            <Time>2022-07-09T11:19:07.000Z</Time>
            <Position>
              <LatitudeDegrees>43.3233395777642726898193359375</LatitudeDegrees>
              <LongitudeDegrees>-1.982612796127796173095703125</LongitudeDegrees>
            </Position>
            <AltitudeMeters>4.599999904632568359375</AltitudeMeters>
            <DistanceMeters>NAN</DistanceMeters>
          </Trackpoint>
          <Trackpoint>
            <Time>2022-07-09T11:19:11.000Z</Time>
            <Position>
              <LatitudeDegrees>43.32333949394524097442626953125</LatitudeDegrees>
              <LongitudeDegrees>-1.98248178698122501373291015625</LongitudeDegrees>
            </Position>
            <AltitudeMeters>4.400000095367431640625</AltitudeMeters>
            <DistanceMeters>NAN</DistanceMeters>
          </Trackpoint>
          <Trackpoint>
            <Time>2022-07-09T11:19:12.000Z</Time>
            <Position>
              <LatitudeDegrees>43.32334871403872966766357421875</LatitudeDegrees>
              <LongitudeDegrees>-1.98245345614850521087646484375</LongitudeDegrees>
            </Position>
            <AltitudeMeters>4.400000095367431640625</AltitudeMeters>
            <DistanceMeters>NAN</DistanceMeters>
          </Trackpoint>
          <Trackpoint>
            <Time>2022-07-09T11:19:15.000Z</Time>
            <Position>
              <LatitudeDegrees>43.3233633823692798614501953125</LatitudeDegrees>
              <LongitudeDegrees>-1.98240098543465137481689453125</LongitudeDegrees>
            </Position>
            <AltitudeMeters>4.19999980926513671875</AltitudeMeters>
            <DistanceMeters>NAN</DistanceMeters>
          </Trackpoint>
          <Trackpoint>
            <Time>2022-07-09T11:19:16.000Z</Time>
            <Position>
              <LatitudeDegrees>43.3233590237796306610107421875</LatitudeDegrees>
              <LongitudeDegrees>-1.982380114495754241943359375</LongitudeDegrees>
            </Position>
            <AltitudeMeters>4.19999980926513671875</AltitudeMeters>
            <DistanceMeters>NAN</DistanceMeters>
          </Trackpoint>
          <Trackpoint>
            <Time>2022-07-09T11:19:18.000Z</Time>
            <Position>
              <LatitudeDegrees>43.3233402483165264129638671875</LatitudeDegrees>
              <LongitudeDegrees>-1.9823417253792285919189453125</LongitudeDegrees>
            </Position>
            <AltitudeMeters>4.19999980926513671875</AltitudeMeters>
            <DistanceMeters>NAN</DistanceMeters>
          </Trackpoint>
          <Trackpoint>
            <Time>2022-07-09T11:19:20.000Z</Time>
            <Position>
              <LatitudeDegrees>43.32332155667245388031005859375</LatitudeDegrees>
              <LongitudeDegrees>-1.98231750167906284332275390625</LongitudeDegrees>
            </Position>
            <AltitudeMeters>4.19999980926513671875</AltitudeMeters>
            <DistanceMeters>NAN</DistanceMeters>
          </Trackpoint>
          <Trackpoint>
            <Time>2022-07-09T11:19:22.000Z</Time>
            <Position>
              <LatitudeDegrees>43.3233241550624370574951171875</LatitudeDegrees>
              <LongitudeDegrees>-1.98230626992881298065185546875</LongitudeDegrees>
            </Position>
            <AltitudeMeters>4.19999980926513671875</AltitudeMeters>
            <DistanceMeters>NAN</DistanceMeters>
          </Trackpoint>
          <Trackpoint>
            <Time>2022-07-09T11:19:24.000Z</Time>
            <Position>
              <LatitudeDegrees>43.32331015728414058685302734375</LatitudeDegrees>
              <LongitudeDegrees>-1.98227710090577602386474609375</LongitudeDegrees>
            </Position>
            <AltitudeMeters>4.19999980926513671875</AltitudeMeters>
            <DistanceMeters>NAN</DistanceMeters>
          </Trackpoint>
          <Trackpoint>
            <Time>2022-07-09T11:19:27.000Z</Time>
            <Position>
              <LatitudeDegrees>43.32325617782771587371826171875</LatitudeDegrees>
              <LongitudeDegrees>-1.98223703540861606597900390625</LongitudeDegrees>
            </Position>
            <AltitudeMeters>4</AltitudeMeters>
            <DistanceMeters>NAN</DistanceMeters>
          </Trackpoint>
          <Trackpoint>
            <Time>2022-07-09T11:19:28.000Z</Time>
            <Position>
              <LatitudeDegrees>43.323253579437732696533203125</LatitudeDegrees>
              <LongitudeDegrees>-1.98223200626671314239501953125</LongitudeDegrees>
            </Position>
            <AltitudeMeters>4</AltitudeMeters>
            <DistanceMeters>NAN</DistanceMeters>
          </Trackpoint>
          <Trackpoint>
            <Time>2022-07-09T11:19:30.000Z</Time>
            <Position>
              <LatitudeDegrees>43.3231759630143642425537109375</LatitudeDegrees>
              <LongitudeDegrees>-1.98219864629209041595458984375</LongitudeDegrees>
            </Position>
            <AltitudeMeters>4</AltitudeMeters>
            <DistanceMeters>NAN</DistanceMeters>
          </Trackpoint>
          <Trackpoint>
            <Time>2022-07-09T11:19:36.000Z</Time>
            <Position>
              <LatitudeDegrees>43.32301226444542407989501953125</LatitudeDegrees>
              <LongitudeDegrees>-1.9821127317845821380615234375</LongitudeDegrees>
            </Position>
            <AltitudeMeters>4</AltitudeMeters>
            <DistanceMeters>NAN</DistanceMeters>
          </Trackpoint>
          <Trackpoint>
            <Time>2022-07-09T11:19:40.000Z</Time>
            <Position>
              <LatitudeDegrees>43.3228882960975170135498046875</LatitudeDegrees>
              <LongitudeDegrees>-1.9820315949618816375732421875</LongitudeDegrees>
            </Position>
            <AltitudeMeters>4</AltitudeMeters>
            <DistanceMeters>NAN</DistanceMeters>
          </Trackpoint>
          <Trackpoint>
            <Time>2022-07-09T11:19:41.000Z</Time>
            <Position>
              <LatitudeDegrees>43.32289407961070537567138671875</LatitudeDegrees>
              <LongitudeDegrees>-1.9819960556924343109130859375</LongitudeDegrees>
            </Position>
            <AltitudeMeters>4</AltitudeMeters>
            <DistanceMeters>NAN</DistanceMeters>
          </Trackpoint>
          <Trackpoint>
            <Time>2022-07-09T11:19:46.000Z</Time>
            <Position>
              <LatitudeDegrees>43.32298024557530879974365234375</LatitudeDegrees>
              <LongitudeDegrees>-1.98176597245037555694580078125</LongitudeDegrees>
            </Position>
            <AltitudeMeters>4</AltitudeMeters>
            <DistanceMeters>NAN</DistanceMeters>
          </Trackpoint>
          <Trackpoint>
            <Time>2022-07-09T11:19:49.000Z</Time>
            <Position>
              <LatitudeDegrees>43.32300991751253604888916015625</LatitudeDegrees>
              <LongitudeDegrees>-1.98161224834620952606201171875</LongitudeDegrees>
            </Position>
            <AltitudeMeters>4.19999980926513671875</AltitudeMeters>
            <DistanceMeters>NAN</DistanceMeters>
          </Trackpoint>
          <Trackpoint>
            <Time>2022-07-09T11:19:53.000Z</Time>
            <Position>
              <LatitudeDegrees>43.32308652810752391815185546875</LatitudeDegrees>
              <LongitudeDegrees>-1.9814002700150012969970703125</LongitudeDegrees>
            </Position>
            <AltitudeMeters>4.400000095367431640625</AltitudeMeters>
            <DistanceMeters>NAN</DistanceMeters>
          </Trackpoint>
          <Trackpoint>
            <Time>2022-07-09T11:19:55.000Z</Time>
            <Position>
              <LatitudeDegrees>43.32314268685877323150634765625</LatitudeDegrees>
              <LongitudeDegrees>-1.98128233663737773895263671875</LongitudeDegrees>
            </Position>
            <AltitudeMeters>4.400000095367431640625</AltitudeMeters>
            <DistanceMeters>NAN</DistanceMeters>
          </Trackpoint>
          <Trackpoint>
            <Time>2022-07-09T11:20:00.000Z</Time>
            <Position>
              <LatitudeDegrees>43.32321544177830219268798828125</LatitudeDegrees>
              <LongitudeDegrees>-1.9810147024691104888916015625</LongitudeDegrees>
            </Position>
            <AltitudeMeters>4.599999904632568359375</AltitudeMeters>
            <DistanceMeters>NAN</DistanceMeters>
          </Trackpoint>
          <Trackpoint>
            <Time>2022-07-09T11:20:01.000Z</Time>
            <Position>
              <LatitudeDegrees>43.32321678288280963897705078125</LatitudeDegrees>
              <LongitudeDegrees>-1.980969272553920745849609375</LongitudeDegrees>
            </Position>
            <AltitudeMeters>4.599999904632568359375</AltitudeMeters>
            <DistanceMeters>NAN</DistanceMeters>
          </Trackpoint>
          <Trackpoint>
            <Time>2022-07-09T11:20:06.000Z</Time>
            <Position>
              <LatitudeDegrees>43.32324913702905178070068359375</LatitudeDegrees>
              <LongitudeDegrees>-1.98086625896394252777099609375</LongitudeDegrees>
            </Position>
            <AltitudeMeters>4.599999904632568359375</AltitudeMeters>
            <DistanceMeters>NAN</DistanceMeters>
          </Trackpoint>
          <Trackpoint>
            <Time>2022-07-09T11:20:08.000Z</Time>
            <Position>
              <LatitudeDegrees>43.32324913702905178070068359375</LatitudeDegrees>
              <LongitudeDegrees>-1.98086625896394252777099609375</LongitudeDegrees>
            </Position>
            <AltitudeMeters>4.599999904632568359375</AltitudeMeters>
            <DistanceMeters>NAN</DistanceMeters>
          </Trackpoint>
          <Trackpoint>
            <Time>2022-07-09T11:20:11.000Z</Time>
            <Position>
              <LatitudeDegrees>43.3232800662517547607421875</LatitudeDegrees>
              <LongitudeDegrees>-1.98082803748548030853271484375</LongitudeDegrees>
            </Position>
            <AltitudeMeters>4.599999904632568359375</AltitudeMeters>
            <DistanceMeters>NAN</DistanceMeters>
          </Trackpoint>
          <Trackpoint>
            <Time>2022-07-09T11:20:12.000Z</Time>
            <Position>
              <LatitudeDegrees>43.32328484393656253814697265625</LatitudeDegrees>
              <LongitudeDegrees>-1.98079803027212619781494140625</LongitudeDegrees>
            </Position>
            <AltitudeMeters>4.599999904632568359375</AltitudeMeters>
            <DistanceMeters>NAN</DistanceMeters>
          </Trackpoint>
          <Trackpoint>
            <Time>2022-07-09T11:20:17.000Z</Time>
            <Position>
              <LatitudeDegrees>43.3233476243913173675537109375</LatitudeDegrees>
              <LongitudeDegrees>-1.98058311827480792999267578125</LongitudeDegrees>
            </Position>
            <AltitudeMeters>5.19999980926513671875</AltitudeMeters>
            <DistanceMeters>NAN</DistanceMeters>
          </Trackpoint>
          <Trackpoint>
            <Time>2022-07-09T11:20:20.000Z</Time>
            <Position>
              <LatitudeDegrees>43.3233915455639362335205078125</LatitudeDegrees>
              <LongitudeDegrees>-1.98044096119701862335205078125</LongitudeDegrees>
            </Position>
            <AltitudeMeters>5.400000095367431640625</AltitudeMeters>
            <DistanceMeters>NAN</DistanceMeters>
          </Trackpoint>
          <Trackpoint>
            <Time>2022-07-09T11:20:24.000Z</Time>
            <Position>
              <LatitudeDegrees>43.32346639595925807952880859375</LatitudeDegrees>
              <LongitudeDegrees>-1.9802489317953586578369140625</LongitudeDegrees>
            </Position>
            <AltitudeMeters>5.599999904632568359375</AltitudeMeters>
            <DistanceMeters>NAN</DistanceMeters>
          </Trackpoint>
          <Trackpoint>
            <Time>2022-07-09T11:20:33.000Z</Time>
            <Position>
              <LatitudeDegrees>43.32362950779497623443603515625</LatitudeDegrees>
              <LongitudeDegrees>-1.97985020466148853302001953125</LongitudeDegrees>
            </Position>
            <AltitudeMeters>5.599999904632568359375</AltitudeMeters>
            <DistanceMeters>NAN</DistanceMeters>
          </Trackpoint>
          <Trackpoint>
            <Time>2022-07-09T11:20:44.000Z</Time>
            <Position>
              <LatitudeDegrees>43.3238086290657520294189453125</LatitudeDegrees>
              <LongitudeDegrees>-1.9793684966862201690673828125</LongitudeDegrees>
            </Position>
            <AltitudeMeters>5.599999904632568359375</AltitudeMeters>
            <DistanceMeters>NAN</DistanceMeters>
          </Trackpoint>
          <Trackpoint>
            <Time>2022-07-09T11:20:48.000Z</Time>
            <Position>
              <LatitudeDegrees>43.323818184435367584228515625</LatitudeDegrees>
              <LongitudeDegrees>-1.9793272577226161956787109375</LongitudeDegrees>
            </Position>
            <AltitudeMeters>5</AltitudeMeters>
            <DistanceMeters>NAN</DistanceMeters>
          </Trackpoint>
          <Trackpoint>
            <Time>2022-07-09T11:20:51.000Z</Time>
            <Position>
              <LatitudeDegrees>43.32381717860698699951171875</LatitudeDegrees>
              <LongitudeDegrees>-1.9793202169239521026611328125</LongitudeDegrees>
            </Position>
            <AltitudeMeters>5</AltitudeMeters>
            <DistanceMeters>NAN</DistanceMeters>
          </Trackpoint>
          <Trackpoint>
            <Time>2022-07-09T11:21:02.000Z</Time>
            <Position>
              <LatitudeDegrees>43.32379077561199665069580078125</LatitudeDegrees>
              <LongitudeDegrees>-1.97926028631627559661865234375</LongitudeDegrees>
            </Position>
            <AltitudeMeters>4.80000019073486328125</AltitudeMeters>
            <DistanceMeters>NAN</DistanceMeters>
          </Trackpoint>
          <Trackpoint>
            <Time>2022-07-09T11:21:03.000Z</Time>
            <Position>
              <LatitudeDegrees>43.3237875066697597503662109375</LatitudeDegrees>
              <LongitudeDegrees>-1.97923581115901470184326171875</LongitudeDegrees>
            </Position>
            <AltitudeMeters>4.80000019073486328125</AltitudeMeters>
            <DistanceMeters>NAN</DistanceMeters>
          </Trackpoint>
          <Trackpoint>
            <Time>2022-07-09T11:21:07.000Z</Time>
            <Position>
              <LatitudeDegrees>43.3238004148006439208984375</LatitudeDegrees>
              <LongitudeDegrees>-1.97908409871160984039306640625</LongitudeDegrees>
            </Position>
            <AltitudeMeters>5.400000095367431640625</AltitudeMeters>
            <DistanceMeters>NAN</DistanceMeters>
          </Trackpoint>
          <Trackpoint>
            <Time>2022-07-09T11:21:14.000Z</Time>
            <Position>
              <LatitudeDegrees>43.32388984970748424530029296875</LatitudeDegrees>
              <LongitudeDegrees>-1.97879810817539691925048828125</LongitudeDegrees>
            </Position>
            <AltitudeMeters>5.80000019073486328125</AltitudeMeters>
            <DistanceMeters>NAN</DistanceMeters>
          </Trackpoint>
          <Trackpoint>
            <Time>2022-07-09T11:21:21.000Z</Time>
            <Position>
              <LatitudeDegrees>43.3240134827792644500732421875</LatitudeDegrees>
              <LongitudeDegrees>-1.9785650074481964111328125</LongitudeDegrees>
            </Position>
            <AltitudeMeters>5.400000095367431640625</AltitudeMeters>
            <DistanceMeters>NAN</DistanceMeters>
          </Trackpoint>
          <Trackpoint>
            <Time>2022-07-09T11:21:22.000Z</Time>
            <Position>
              <LatitudeDegrees>43.32403150387108325958251953125</LatitudeDegrees>
              <LongitudeDegrees>-1.9785189069807529449462890625</LongitudeDegrees>
            </Position>
            <AltitudeMeters>5.400000095367431640625</AltitudeMeters>
            <DistanceMeters>NAN</DistanceMeters>
          </Trackpoint>
          <Trackpoint>
            <Time>2022-07-09T11:21:23.000Z</Time>
            <Position>
              <LatitudeDegrees>43.32404994405806064605712890625</LatitudeDegrees>
              <LongitudeDegrees>-1.97848713956773281097412109375</LongitudeDegrees>
            </Position>
            <AltitudeMeters>5.19999980926513671875</AltitudeMeters>
            <DistanceMeters>NAN</DistanceMeters>
          </Trackpoint>
          <Trackpoint>
            <Time>2022-07-09T11:21:27.000Z</Time>
            <Position>
              <LatitudeDegrees>43.324151448905467987060546875</LatitudeDegrees>
              <LongitudeDegrees>-1.9783381931483745574951171875</LongitudeDegrees>
            </Position>
            <AltitudeMeters>5.19999980926513671875</AltitudeMeters>
            <DistanceMeters>NAN</DistanceMeters>
          </Trackpoint>
          <Trackpoint>
            <Time>2022-07-09T11:21:28.000Z</Time>
            <Position>
              <LatitudeDegrees>43.324174918234348297119140625</LatitudeDegrees>
              <LongitudeDegrees>-1.9783008098602294921875</LongitudeDegrees>
            </Position>
            <AltitudeMeters>5.19999980926513671875</AltitudeMeters>
            <DistanceMeters>NAN</DistanceMeters>
          </Trackpoint>
          <Trackpoint>
            <Time>2022-07-09T11:21:33.000Z</Time>
            <Position>
              <LatitudeDegrees>43.324227221310138702392578125</LatitudeDegrees>
              <LongitudeDegrees>-1.978063099086284637451171875</LongitudeDegrees>
            </Position>
            <AltitudeMeters>5.599999904632568359375</AltitudeMeters>
            <DistanceMeters>NAN</DistanceMeters>
          </Trackpoint>
          <Trackpoint>
            <Time>2022-07-09T11:21:38.000Z</Time>
            <Position>
              <LatitudeDegrees>43.32435362040996551513671875</LatitudeDegrees>
              <LongitudeDegrees>-1.97789520956575870513916015625</LongitudeDegrees>
            </Position>
            <AltitudeMeters>5.80000019073486328125</AltitudeMeters>
            <DistanceMeters>NAN</DistanceMeters>
          </Trackpoint>
          <Trackpoint>
            <Time>2022-07-09T11:21:43.000Z</Time>
            <Position>
              <LatitudeDegrees>43.32440332509577274322509765625</LatitudeDegrees>
              <LongitudeDegrees>-1.9776776991784572601318359375</LongitudeDegrees>
            </Position>
            <AltitudeMeters>5.400000095367431640625</AltitudeMeters>
            <DistanceMeters>NAN</DistanceMeters>
          </Trackpoint>
          <Trackpoint>
            <Time>2022-07-09T11:21:47.000Z</Time>
            <Position>
              <LatitudeDegrees>43.324471972882747650146484375</LatitudeDegrees>
              <LongitudeDegrees>-1.977523304522037506103515625</LongitudeDegrees>
            </Position>
            <AltitudeMeters>5.19999980926513671875</AltitudeMeters>
            <DistanceMeters>NAN</DistanceMeters>
          </Trackpoint>
          <Trackpoint>
            <Time>2022-07-09T11:21:50.000Z</Time>
            <Position>
              <LatitudeDegrees>43.32451094873249530792236328125</LatitudeDegrees>
              <LongitudeDegrees>-1.977398581802845001220703125</LongitudeDegrees>
            </Position>
            <AltitudeMeters>5.19999980926513671875</AltitudeMeters>
            <DistanceMeters>NAN</DistanceMeters>
          </Trackpoint>
          <Trackpoint>
            <Time>2022-07-09T11:21:51.000Z</Time>
            <Position>
              <LatitudeDegrees>43.324521593749523162841796875</LatitudeDegrees>
              <LongitudeDegrees>-1.9773566722869873046875</LongitudeDegrees>
            </Position>
            <AltitudeMeters>5.19999980926513671875</AltitudeMeters>
            <DistanceMeters>NAN</DistanceMeters>
          </Trackpoint>
          <Trackpoint>
            <Time>2022-07-09T11:21:54.000Z</Time>
            <Position>
              <LatitudeDegrees>43.324556462466716766357421875</LatitudeDegrees>
              <LongitudeDegrees>-1.9772334583103656768798828125</LongitudeDegrees>
            </Position>
            <AltitudeMeters>5.19999980926513671875</AltitudeMeters>
            <DistanceMeters>NAN</DistanceMeters>
          </Trackpoint>
          <Trackpoint>
            <Time>2022-07-09T11:21:58.000Z</Time>
            <Position>
              <LatitudeDegrees>43.3246156387031078338623046875</LatitudeDegrees>
              <LongitudeDegrees>-1.9770691730082035064697265625</LongitudeDegrees>
            </Position>
            <AltitudeMeters>4.80000019073486328125</AltitudeMeters>
            <DistanceMeters>NAN</DistanceMeters>
          </Trackpoint>
          <Trackpoint>
            <Time>2022-07-09T11:22:01.000Z</Time>
            <Position>
              <LatitudeDegrees>43.32465612329542636871337890625</LatitudeDegrees>
              <LongitudeDegrees>-1.97693933732807636260986328125</LongitudeDegrees>
            </Position>
            <AltitudeMeters>5</AltitudeMeters>
            <DistanceMeters>NAN</DistanceMeters>
          </Trackpoint>
          <Trackpoint>
            <Time>2022-07-09T11:22:08.000Z</Time>
            <Position>
              <LatitudeDegrees>43.32474430091679096221923828125</LatitudeDegrees>
              <LongitudeDegrees>-1.9766445457935333251953125</LongitudeDegrees>
            </Position>
            <AltitudeMeters>5</AltitudeMeters>
            <DistanceMeters>NAN</DistanceMeters>
          </Trackpoint>
          <Trackpoint>
            <Time>2022-07-09T11:22:16.000Z</Time>
            <Position>
              <LatitudeDegrees>43.32483750768005847930908203125</LatitudeDegrees>
              <LongitudeDegrees>-1.97632326744496822357177734375</LongitudeDegrees>
            </Position>
            <AltitudeMeters>4.599999904632568359375</AltitudeMeters>
            <DistanceMeters>NAN</DistanceMeters>
          </Trackpoint>
          <Trackpoint>
            <Time>2022-07-09T11:22:20.000Z</Time>
            <Position>
              <LatitudeDegrees>43.32488344050943851470947265625</LatitudeDegrees>
              <LongitudeDegrees>-1.9761914201080799102783203125</LongitudeDegrees>
            </Position>
            <AltitudeMeters>4.599999904632568359375</AltitudeMeters>
            <DistanceMeters>NAN</DistanceMeters>
          </Trackpoint>
          <Trackpoint>
            <Time>2022-07-09T11:22:22.000Z</Time>
            <Position>
              <LatitudeDegrees>43.32488478161394596099853515625</LatitudeDegrees>
              <LongitudeDegrees>-1.976125873625278472900390625</LongitudeDegrees>
            </Position>
            <AltitudeMeters>4.599999904632568359375</AltitudeMeters>
            <DistanceMeters>NAN</DistanceMeters>
          </Trackpoint>
          <Trackpoint>
            <Time>2022-07-09T11:22:26.000Z</Time>
            <Position>
              <LatitudeDegrees>43.324789814651012420654296875</LatitudeDegrees>
              <LongitudeDegrees>-1.9759847223758697509765625</LongitudeDegrees>
            </Position>
            <AltitudeMeters>4.80000019073486328125</AltitudeMeters>
            <DistanceMeters>NAN</DistanceMeters>
          </Trackpoint>
          <Trackpoint>
            <Time>2022-07-09T11:22:29.000Z</Time>
            <Position>
              <LatitudeDegrees>43.324706666171550750732421875</LatitudeDegrees>
              <LongitudeDegrees>-1.9759230315685272216796875</LongitudeDegrees>
            </Position>
            <AltitudeMeters>4.599999904632568359375</AltitudeMeters>
            <DistanceMeters>NAN</DistanceMeters>
          </Trackpoint>
          <Trackpoint>
            <Time>2022-07-09T11:22:33.000Z</Time>
            <Position>
              <LatitudeDegrees>43.32462251186370849609375</LatitudeDegrees>
              <LongitudeDegrees>-1.9758651964366436004638671875</LongitudeDegrees>
            </Position>
            <AltitudeMeters>4.599999904632568359375</AltitudeMeters>
            <DistanceMeters>NAN</DistanceMeters>
          </Trackpoint>
          <Trackpoint>
            <Time>2022-07-09T11:22:37.000Z</Time>
            <Position>
              <LatitudeDegrees>43.324581272900104522705078125</LatitudeDegrees>
              <LongitudeDegrees>-1.9758323393762111663818359375</LongitudeDegrees>
            </Position>
            <AltitudeMeters>4.599999904632568359375</AltitudeMeters>
            <DistanceMeters>NAN</DistanceMeters>
          </Trackpoint>
          <Trackpoint>
            <Time>2022-07-09T11:22:42.000Z</Time>
            <Position>
              <LatitudeDegrees>43.32440634258091449737548828125</LatitudeDegrees>
              <LongitudeDegrees>-1.9757473468780517578125</LongitudeDegrees>
            </Position>
            <AltitudeMeters>4.19999980926513671875</AltitudeMeters>
            <DistanceMeters>NAN</DistanceMeters>
          </Trackpoint>
          <Trackpoint>
            <Time>2022-07-09T11:22:44.000Z</Time>
            <Position>
              <LatitudeDegrees>43.32434498704969882965087890625</LatitudeDegrees>
              <LongitudeDegrees>-1.97570376098155975341796875</LongitudeDegrees>
            </Position>
            <AltitudeMeters>4.19999980926513671875</AltitudeMeters>
            <DistanceMeters>NAN</DistanceMeters>
          </Trackpoint>
          <Trackpoint>
            <Time>2022-07-09T11:22:47.000Z</Time>
            <Position>
              <LatitudeDegrees>43.3242847211658954620361328125</LatitudeDegrees>
              <LongitudeDegrees>-1.97563712485134601593017578125</LongitudeDegrees>
            </Position>
            <AltitudeMeters>4.19999980926513671875</AltitudeMeters>
            <DistanceMeters>NAN</DistanceMeters>
          </Trackpoint>
          <Trackpoint>
            <Time>2022-07-09T11:22:50.000Z</Time>
            <Position>
              <LatitudeDegrees>43.3242729865014553070068359375</LatitudeDegrees>
              <LongitudeDegrees>-1.97559052146971225738525390625</LongitudeDegrees>
            </Position>
            <AltitudeMeters>4.19999980926513671875</AltitudeMeters>
            <DistanceMeters>NAN</DistanceMeters>
          </Trackpoint>
          <Trackpoint>
            <Time>2022-07-09T11:22:51.000Z</Time>
            <Position>
              <LatitudeDegrees>43.32426385022699832916259765625</LatitudeDegrees>
              <LongitudeDegrees>-1.9755850732326507568359375</LongitudeDegrees>
            </Position>
            <AltitudeMeters>4.19999980926513671875</AltitudeMeters>
            <DistanceMeters>NAN</DistanceMeters>
          </Trackpoint>
          <Trackpoint>
            <Time>2022-07-09T11:22:54.000Z</Time>
            <Position>
              <LatitudeDegrees>43.3242253772914409637451171875</LatitudeDegrees>
              <LongitudeDegrees>-1.97558029554784297943115234375</LongitudeDegrees>
            </Position>
            <AltitudeMeters>4.19999980926513671875</AltitudeMeters>
            <DistanceMeters>NAN</DistanceMeters>
          </Trackpoint>
          <Trackpoint>
            <Time>2022-07-09T11:22:57.000Z</Time>
            <Position>
              <LatitudeDegrees>43.3242253772914409637451171875</LatitudeDegrees>
              <LongitudeDegrees>-1.97558029554784297943115234375</LongitudeDegrees>
            </Position>
            <AltitudeMeters>3.7999999523162841796875</AltitudeMeters>
            <DistanceMeters>NAN</DistanceMeters>
          </Trackpoint>
          <Trackpoint>
            <Time>2022-07-09T11:23:07.000Z</Time>
            <Position>
              <LatitudeDegrees>43.32419360987842082977294921875</LatitudeDegrees>
              <LongitudeDegrees>-1.97553922422230243682861328125</LongitudeDegrees>
            </Position>
            <AltitudeMeters>3.400000095367431640625</AltitudeMeters>
            <DistanceMeters>NAN</DistanceMeters>
          </Trackpoint>
          <Trackpoint>
            <Time>2022-07-09T11:23:09.000Z</Time>
            <Position>
              <LatitudeDegrees>43.32415111362934112548828125</LatitudeDegrees>
              <LongitudeDegrees>-1.97548247873783111572265625</LongitudeDegrees>
            </Position>
            <AltitudeMeters>3.400000095367431640625</AltitudeMeters>
            <DistanceMeters>NAN</DistanceMeters>
          </Trackpoint>
          <Trackpoint>
            <Time>2022-07-09T11:23:15.000Z</Time>
            <Position>
              <LatitudeDegrees>43.324016667902469635009765625</LatitudeDegrees>
              <LongitudeDegrees>-1.975311823189258575439453125</LongitudeDegrees>
            </Position>
            <AltitudeMeters>3.7999999523162841796875</AltitudeMeters>
            <DistanceMeters>NAN</DistanceMeters>
          </Trackpoint>
          <Trackpoint>
            <Time>2022-07-09T11:23:18.000Z</Time>
            <Position>
              <LatitudeDegrees>43.32405430264770984649658203125</LatitudeDegrees>
              <LongitudeDegrees>-1.97521920315921306610107421875</LongitudeDegrees>
            </Position>
            <AltitudeMeters>3.599999904632568359375</AltitudeMeters>
            <DistanceMeters>NAN</DistanceMeters>
          </Trackpoint>
          <Trackpoint>
            <Time>2022-07-09T11:23:19.000Z</Time>
            <Position>
              <LatitudeDegrees>43.32405648194253444671630859375</LatitudeDegrees>
              <LongitudeDegrees>-1.9751902855932712554931640625</LongitudeDegrees>
            </Position>
            <AltitudeMeters>3.599999904632568359375</AltitudeMeters>
            <DistanceMeters>NAN</DistanceMeters>
          </Trackpoint>
          <Trackpoint>
            <Time>2022-07-09T11:23:21.000Z</Time>
            <Position>
              <LatitudeDegrees>43.32404072396457195281982421875</LatitudeDegrees>
              <LongitudeDegrees>-1.9751210510730743408203125</LongitudeDegrees>
            </Position>
            <AltitudeMeters>3.599999904632568359375</AltitudeMeters>
            <DistanceMeters>NAN</DistanceMeters>
          </Trackpoint>
          <Trackpoint>
            <Time>2022-07-09T11:23:25.000Z</Time>
            <Position>
              <LatitudeDegrees>43.32390828989446163177490234375</LatitudeDegrees>
              <LongitudeDegrees>-1.9750156067311763763427734375</LongitudeDegrees>
            </Position>
            <AltitudeMeters>3.599999904632568359375</AltitudeMeters>
            <DistanceMeters>NAN</DistanceMeters>
          </Trackpoint>
          <Trackpoint>
            <Time>2022-07-09T11:23:30.000Z</Time>
            <Position>
              <LatitudeDegrees>43.32380644977092742919921875</LatitudeDegrees>
              <LongitudeDegrees>-1.974878646433353424072265625</LongitudeDegrees>
            </Position>
            <AltitudeMeters>3.599999904632568359375</AltitudeMeters>
            <DistanceMeters>NAN</DistanceMeters>
          </Trackpoint>
          <Trackpoint>
            <Time>2022-07-09T11:23:32.000Z</Time>
            <Position>
              <LatitudeDegrees>43.32375557161867618560791015625</LatitudeDegrees>
              <LongitudeDegrees>-1.9748100824654102325439453125</LongitudeDegrees>
            </Position>
            <AltitudeMeters>3.400000095367431640625</AltitudeMeters>
            <DistanceMeters>NAN</DistanceMeters>
          </Trackpoint>
          <Trackpoint>
            <Time>2022-07-09T11:23:37.000Z</Time>
            <Position>
              <LatitudeDegrees>43.32365314476191997528076171875</LatitudeDegrees>
              <LongitudeDegrees>-1.9746655784547328948974609375</LongitudeDegrees>
            </Position>
            <AltitudeMeters>3.2000000476837158203125</AltitudeMeters>
            <DistanceMeters>NAN</DistanceMeters>
          </Trackpoint>
          <Trackpoint>
            <Time>2022-07-09T11:23:39.000Z</Time>
            <Position>
              <LatitudeDegrees>43.32361542619764804840087890625</LatitudeDegrees>
              <LongitudeDegrees>-1.9746162928640842437744140625</LongitudeDegrees>
            </Position>
            <AltitudeMeters>3.2000000476837158203125</AltitudeMeters>
            <DistanceMeters>NAN</DistanceMeters>
          </Trackpoint>
          <Trackpoint>
            <Time>2022-07-09T11:23:40.000Z</Time>
            <Position>
              <LatitudeDegrees>43.323599584400653839111328125</LatitudeDegrees>
              <LongitudeDegrees>-1.97458301670849323272705078125</LongitudeDegrees>
            </Position>
            <AltitudeMeters>3.2000000476837158203125</AltitudeMeters>
            <DistanceMeters>NAN</DistanceMeters>
          </Trackpoint>
          <Trackpoint>
            <Time>2022-07-09T11:23:42.000Z</Time>
            <Position>
              <LatitudeDegrees>43.3235870115458965301513671875</LatitudeDegrees>
              <LongitudeDegrees>-1.97454680688679218292236328125</LongitudeDegrees>
            </Position>
            <AltitudeMeters>3</AltitudeMeters>
            <DistanceMeters>NAN</DistanceMeters>
          </Trackpoint>
          <Trackpoint>
            <Time>2022-07-09T11:23:43.000Z</Time>
            <Position>
              <LatitudeDegrees>43.32357712090015411376953125</LatitudeDegrees>
              <LongitudeDegrees>-1.974543370306491851806640625</LongitudeDegrees>
            </Position>
            <AltitudeMeters>3</AltitudeMeters>
            <DistanceMeters>NAN</DistanceMeters>
          </Trackpoint>
          <Trackpoint>
            <Time>2022-07-09T11:23:46.000Z</Time>
            <Position>
              <LatitudeDegrees>43.32351735793054103851318359375</LatitudeDegrees>
              <LongitudeDegrees>-1.97458016686141490936279296875</LongitudeDegrees>
            </Position>
            <AltitudeMeters>2.7999999523162841796875</AltitudeMeters>
            <DistanceMeters>NAN</DistanceMeters>
          </Trackpoint>
          <Trackpoint>
            <Time>2022-07-09T11:23:51.000Z</Time>
            <Position>
              <LatitudeDegrees>43.3234693296253681182861328125</LatitudeDegrees>
              <LongitudeDegrees>-1.97462157346308231353759765625</LongitudeDegrees>
            </Position>
            <AltitudeMeters>2.599999904632568359375</AltitudeMeters>
            <DistanceMeters>NAN</DistanceMeters>
          </Trackpoint>
          <Trackpoint>
            <Time>2022-07-09T11:23:52.000Z</Time>
            <Position>
              <LatitudeDegrees>43.32345499657094478607177734375</LatitudeDegrees>
              <LongitudeDegrees>-1.974624507129192352294921875</LongitudeDegrees>
            </Position>
            <AltitudeMeters>2.599999904632568359375</AltitudeMeters>
            <DistanceMeters>NAN</DistanceMeters>
          </Trackpoint>
          <Trackpoint>
            <Time>2022-07-09T11:23:55.000Z</Time>
            <Position>
              <LatitudeDegrees>43.32340638153254985809326171875</LatitudeDegrees>
              <LongitudeDegrees>-1.97463783435523509979248046875</LongitudeDegrees>
            </Position>
            <AltitudeMeters>2.599999904632568359375</AltitudeMeters>
            <DistanceMeters>NAN</DistanceMeters>
          </Trackpoint>
          <Trackpoint>
            <Time>2022-07-09T11:24:01.000Z</Time>
            <Position>
              <LatitudeDegrees>43.323360867798328399658203125</LatitudeDegrees>
              <LongitudeDegrees>-1.974645964801311492919921875</LongitudeDegrees>
            </Position>
            <AltitudeMeters>2.599999904632568359375</AltitudeMeters>
            <DistanceMeters>NAN</DistanceMeters>
          </Trackpoint>
          <Trackpoint>
            <Time>2022-07-09T11:24:07.000Z</Time>
            <Position>
              <LatitudeDegrees>43.32325768657028675079345703125</LatitudeDegrees>
              <LongitudeDegrees>-1.97481418959796428680419921875</LongitudeDegrees>
            </Position>
            <AltitudeMeters>2.599999904632568359375</AltitudeMeters>
            <DistanceMeters>NAN</DistanceMeters>
          </Trackpoint>
          <Trackpoint>
            <Time>2022-07-09T11:24:10.000Z</Time>
            <Position>
              <LatitudeDegrees>43.32321091555058956146240234375</LatitudeDegrees>
              <LongitudeDegrees>-1.9749106653034687042236328125</LongitudeDegrees>
            </Position>
            <AltitudeMeters>2.400000095367431640625</AltitudeMeters>
            <DistanceMeters>NAN</DistanceMeters>
          </Trackpoint>
          <Trackpoint>
            <Time>2022-07-09T11:24:11.000Z</Time>
            <Position>
              <LatitudeDegrees>43.3231987617909908294677734375</LatitudeDegrees>
              <LongitudeDegrees>-1.97493371553719043731689453125</LongitudeDegrees>
            </Position>
            <AltitudeMeters>2.2000000476837158203125</AltitudeMeters>
            <DistanceMeters>NAN</DistanceMeters>
          </Trackpoint>
          <Trackpoint>
            <Time>2022-07-09T11:24:13.000Z</Time>
            <Position>
              <LatitudeDegrees>43.32317939959466457366943359375</LatitudeDegrees>
              <LongitudeDegrees>-1.9749733619391918182373046875</LongitudeDegrees>
            </Position>
            <AltitudeMeters>2.2000000476837158203125</AltitudeMeters>
            <DistanceMeters>NAN</DistanceMeters>
          </Trackpoint>
          <Trackpoint>
            <Time>2022-07-09T11:24:14.000Z</Time>
            <Position>
              <LatitudeDegrees>43.32317805849015712738037109375</LatitudeDegrees>
              <LongitudeDegrees>-1.97498987428843975067138671875</LongitudeDegrees>
            </Position>
            <AltitudeMeters>2</AltitudeMeters>
            <DistanceMeters>NAN</DistanceMeters>
          </Trackpoint>
          <Trackpoint>
            <Time>2022-07-09T11:24:15.000Z</Time>
            <Position>
              <LatitudeDegrees>43.32319331355392932891845703125</LatitudeDegrees>
              <LongitudeDegrees>-1.97499607689678668975830078125</LongitudeDegrees>
            </Position>
            <AltitudeMeters>2</AltitudeMeters>
            <DistanceMeters>NAN</DistanceMeters>
          </Trackpoint>
          <Trackpoint>
            <Time>2022-07-09T11:24:19.000Z</Time>
            <Position>
              <LatitudeDegrees>43.323209993541240692138671875</LatitudeDegrees>
              <LongitudeDegrees>-1.9749923050403594970703125</LongitudeDegrees>
            </Position>
            <AltitudeMeters>2.599999904632568359375</AltitudeMeters>
            <DistanceMeters>NAN</DistanceMeters>
          </Trackpoint>
          <Trackpoint>
            <Time>2022-07-09T11:24:25.000Z</Time>
            <Position>
              <LatitudeDegrees>43.32327931188046932220458984375</LatitudeDegrees>
              <LongitudeDegrees>-1.97488191537559032440185546875</LongitudeDegrees>
            </Position>
            <AltitudeMeters>3</AltitudeMeters>
            <DistanceMeters>NAN</DistanceMeters>
          </Trackpoint>
          <Trackpoint>
            <Time>2022-07-09T11:24:32.000Z</Time>
            <Position>
              <LatitudeDegrees>43.3233311958611011505126953125</LatitudeDegrees>
              <LongitudeDegrees>-1.97481854818761348724365234375</LongitudeDegrees>
            </Position>
            <AltitudeMeters>2.7999999523162841796875</AltitudeMeters>
            <DistanceMeters>NAN</DistanceMeters>
          </Trackpoint>
          <Trackpoint>
            <Time>2022-07-09T11:26:12.000Z</Time>
            <Position>
              <LatitudeDegrees>43.32329406403005123138427734375</LatitudeDegrees>
              <LongitudeDegrees>-1.9746112637221813201904296875</LongitudeDegrees>
            </Position>
            <AltitudeMeters>3.599999904632568359375</AltitudeMeters>
            <DistanceMeters>NAN</DistanceMeters>
          </Trackpoint>
          <Trackpoint>
            <Time>2022-07-09T11:26:17.000Z</Time>
            <Position>
              <LatitudeDegrees>43.32332809455692768096923828125</LatitudeDegrees>
              <LongitudeDegrees>-1.97482039220631122589111328125</LongitudeDegrees>
            </Position>
            <AltitudeMeters>3.7999999523162841796875</AltitudeMeters>
            <DistanceMeters>NAN</DistanceMeters>
          </Trackpoint>
          <Trackpoint>
            <Time>2022-07-09T11:26:18.000Z</Time>
            <Position>
              <LatitudeDegrees>43.32331133075058460235595703125</LatitudeDegrees>
              <LongitudeDegrees>-1.97482793591916561126708984375</LongitudeDegrees>
            </Position>
            <AltitudeMeters>3.7999999523162841796875</AltitudeMeters>
            <DistanceMeters>NAN</DistanceMeters>
          </Trackpoint>
          <Trackpoint>
            <Time>2022-07-09T11:26:24.000Z</Time>
            <Position>
              <LatitudeDegrees>43.32321845926344394683837890625</LatitudeDegrees>
              <LongitudeDegrees>-1.9749344699084758758544921875</LongitudeDegrees>
            </Position>
            <AltitudeMeters>4</AltitudeMeters>
            <DistanceMeters>NAN</DistanceMeters>
          </Trackpoint>
          <Trackpoint>
            <Time>2022-07-09T11:26:29.000Z</Time>
            <Position>
              <LatitudeDegrees>43.3231384120881557464599609375</LatitudeDegrees>
              <LongitudeDegrees>-1.97503949515521526336669921875</LongitudeDegrees>
            </Position>
            <AltitudeMeters>3.599999904632568359375</AltitudeMeters>
            <DistanceMeters>NAN</DistanceMeters>
          </Trackpoint>
          <Trackpoint>
            <Time>2022-07-09T11:26:30.000Z</Time>
            <Position>
              <LatitudeDegrees>43.32314126193523406982421875</LatitudeDegrees>
              <LongitudeDegrees>-1.97503932751715183258056640625</LongitudeDegrees>
            </Position>
            <AltitudeMeters>3.400000095367431640625</AltitudeMeters>
            <DistanceMeters>NAN</DistanceMeters>
          </Trackpoint>
          <Trackpoint>
            <Time>2022-07-09T11:26:32.000Z</Time>
            <Position>
              <LatitudeDegrees>43.323134891688823699951171875</LatitudeDegrees>
              <LongitudeDegrees>-1.9750095717608928680419921875</LongitudeDegrees>
            </Position>
            <AltitudeMeters>3.2000000476837158203125</AltitudeMeters>
            <DistanceMeters>NAN</DistanceMeters>
          </Trackpoint>
          <Trackpoint>
            <Time>2022-07-09T11:26:34.000Z</Time>
            <Position>
              <LatitudeDegrees>43.32310396246612071990966796875</LatitudeDegrees>
              <LongitudeDegrees>-1.974963136017322540283203125</LongitudeDegrees>
            </Position>
            <AltitudeMeters>3.2000000476837158203125</AltitudeMeters>
            <DistanceMeters>NAN</DistanceMeters>
          </Trackpoint>
          <Trackpoint>
            <Time>2022-07-09T11:26:35.000Z</Time>
            <Position>
              <LatitudeDegrees>43.32310144789516925811767578125</LatitudeDegrees>
              <LongitudeDegrees>-1.97495081461966037750244140625</LongitudeDegrees>
            </Position>
            <AltitudeMeters>3</AltitudeMeters>
            <DistanceMeters>NAN</DistanceMeters>
          </Trackpoint>
          <Trackpoint>
            <Time>2022-07-09T11:26:37.000Z</Time>
            <Position>
              <LatitudeDegrees>43.3230948261916637420654296875</LatitudeDegrees>
              <LongitudeDegrees>-1.9749468751251697540283203125</LongitudeDegrees>
            </Position>
            <AltitudeMeters>3</AltitudeMeters>
            <DistanceMeters>NAN</DistanceMeters>
          </Trackpoint>
          <Trackpoint>
            <Time>2022-07-09T11:26:40.000Z</Time>
            <Position>
              <LatitudeDegrees>43.32309189252555370330810546875</LatitudeDegrees>
              <LongitudeDegrees>-1.974962465465068817138671875</LongitudeDegrees>
            </Position>
            <AltitudeMeters>3</AltitudeMeters>
            <DistanceMeters>NAN</DistanceMeters>
          </Trackpoint>
          <Trackpoint>
            <Time>2022-07-09T11:27:23.000Z</Time>
            <Position>
              <LatitudeDegrees>43.32362581975758075714111328125</LatitudeDegrees>
              <LongitudeDegrees>-1.9751178659498691558837890625</LongitudeDegrees>
            </Position>
            <AltitudeMeters>3.400000095367431640625</AltitudeMeters>
            <DistanceMeters>NAN</DistanceMeters>
          </Trackpoint>
          <Trackpoint>
            <Time>2022-07-09T11:27:24.000Z</Time>
            <Position>
              <LatitudeDegrees>43.32362749613821506500244140625</LatitudeDegrees>
              <LongitudeDegrees>-1.975118704140186309814453125</LongitudeDegrees>
            </Position>
            <AltitudeMeters>3.2000000476837158203125</AltitudeMeters>
            <DistanceMeters>NAN</DistanceMeters>
          </Trackpoint>
          <Trackpoint>
            <Time>2022-07-09T11:27:26.000Z</Time>
            <Position>
              <LatitudeDegrees>43.32361064851284027099609375</LatitudeDegrees>
              <LongitudeDegrees>-1.9750920496881008148193359375</LongitudeDegrees>
            </Position>
            <AltitudeMeters>3.2000000476837158203125</AltitudeMeters>
            <DistanceMeters>NAN</DistanceMeters>
          </Trackpoint>
          <Trackpoint>
            <Time>2022-07-09T11:27:30.000Z</Time>
            <Position>
              <LatitudeDegrees>43.32357452251017093658447265625</LatitudeDegrees>
              <LongitudeDegrees>-1.9750518165528774261474609375</LongitudeDegrees>
            </Position>
            <AltitudeMeters>3.599999904632568359375</AltitudeMeters>
            <DistanceMeters>NAN</DistanceMeters>
          </Trackpoint>
          <Trackpoint>
            <Time>2022-07-09T11:27:33.000Z</Time>
            <Position>
              <LatitudeDegrees>43.32357033155858516693115234375</LatitudeDegrees>
              <LongitudeDegrees>-1.97505340911448001861572265625</LongitudeDegrees>
            </Position>
            <AltitudeMeters>3.599999904632568359375</AltitudeMeters>
            <DistanceMeters>NAN</DistanceMeters>
          </Trackpoint>
          <Trackpoint>
            <Time>2022-07-09T11:27:34.000Z</Time>
            <Position>
              <LatitudeDegrees>43.32357284612953662872314453125</LatitudeDegrees>
              <LongitudeDegrees>-1.9750474579632282257080078125</LongitudeDegrees>
            </Position>
            <AltitudeMeters>3.400000095367431640625</AltitudeMeters>
            <DistanceMeters>NAN</DistanceMeters>
          </Trackpoint>
          <Trackpoint>
            <Time>2022-07-09T11:27:36.000Z</Time>
            <Position>
              <LatitudeDegrees>43.3235849998891353607177734375</LatitudeDegrees>
              <LongitudeDegrees>-1.97503563947975635528564453125</LongitudeDegrees>
            </Position>
            <AltitudeMeters>3.400000095367431640625</AltitudeMeters>
            <DistanceMeters>NAN</DistanceMeters>
          </Trackpoint>
          <Trackpoint>
            <Time>2022-07-09T11:27:39.000Z</Time>
            <Position>
              <LatitudeDegrees>43.32349137403070926666259765625</LatitudeDegrees>
              <LongitudeDegrees>-1.97497746907174587249755859375</LongitudeDegrees>
            </Position>
            <AltitudeMeters>3.2000000476837158203125</AltitudeMeters>
            <DistanceMeters>NAN</DistanceMeters>
          </Trackpoint>
          <Trackpoint>
            <Time>2022-07-09T11:27:40.000Z</Time>
            <Position>
              <LatitudeDegrees>43.32347511313855648040771484375</LatitudeDegrees>
              <LongitudeDegrees>-1.97496950626373291015625</LongitudeDegrees>
            </Position>
            <AltitudeMeters>3.2000000476837158203125</AltitudeMeters>
            <DistanceMeters>NAN</DistanceMeters>
          </Trackpoint>
          <Trackpoint>
            <Time>2022-07-09T11:27:43.000Z</Time>
            <Position>
              <LatitudeDegrees>43.32344292663037776947021484375</LatitudeDegrees>
              <LongitudeDegrees>-1.9749532453715801239013671875</LongitudeDegrees>
            </Position>
            <AltitudeMeters>3.2000000476837158203125</AltitudeMeters>
            <DistanceMeters>NAN</DistanceMeters>
          </Trackpoint>
          <Trackpoint>
            <Time>2022-07-09T11:27:45.000Z</Time>
            <Position>
              <LatitudeDegrees>43.3234267495572566986083984375</LatitudeDegrees>
              <LongitudeDegrees>-1.97494712658226490020751953125</LongitudeDegrees>
            </Position>
            <AltitudeMeters>3.400000095367431640625</AltitudeMeters>
            <DistanceMeters>NAN</DistanceMeters>
          </Trackpoint>
          <Trackpoint>
            <Time>2022-07-09T11:27:46.000Z</Time>
            <Position>
              <LatitudeDegrees>43.32344242371618747711181640625</LatitudeDegrees>
              <LongitudeDegrees>-1.97495902888476848602294921875</LongitudeDegrees>
            </Position>
            <AltitudeMeters>3.400000095367431640625</AltitudeMeters>
            <DistanceMeters>NAN</DistanceMeters>
          </Trackpoint>
          <Trackpoint>
            <Time>2022-07-09T11:27:48.000Z</Time>
            <Position>
              <LatitudeDegrees>43.32343898713588714599609375</LatitudeDegrees>
              <LongitudeDegrees>-1.97499029338359832763671875</LongitudeDegrees>
            </Position>
            <AltitudeMeters>3.400000095367431640625</AltitudeMeters>
            <DistanceMeters>NAN</DistanceMeters>
          </Trackpoint>
          <Trackpoint>
            <Time>2022-07-09T11:27:49.000Z</Time>
            <Position>
              <LatitudeDegrees>43.32342850975692272186279296875</LatitudeDegrees>
              <LongitudeDegrees>-1.9749864377081394195556640625</LongitudeDegrees>
            </Position>
            <AltitudeMeters>3.599999904632568359375</AltitudeMeters>
            <DistanceMeters>NAN</DistanceMeters>
          </Trackpoint>
          <Trackpoint>
            <Time>2022-07-09T11:27:52.000Z</Time>
            <Position>
              <LatitudeDegrees>43.32341350615024566650390625</LatitudeDegrees>
              <LongitudeDegrees>-1.97497420012950897216796875</LongitudeDegrees>
            </Position>
            <AltitudeMeters>3.7999999523162841796875</AltitudeMeters>
            <DistanceMeters>NAN</DistanceMeters>
          </Trackpoint>
          <Trackpoint>
            <Time>2022-07-09T11:27:53.000Z</Time>
            <Position>
              <LatitudeDegrees>43.323409147560596466064453125</LatitudeDegrees>
              <LongitudeDegrees>-1.97496523149311542510986328125</LongitudeDegrees>
            </Position>
            <AltitudeMeters>3.7999999523162841796875</AltitudeMeters>
            <DistanceMeters>NAN</DistanceMeters>
          </Trackpoint>
          <Trackpoint>
            <Time>2022-07-09T11:27:55.000Z</Time>
            <Position>
              <LatitudeDegrees>43.323403783142566680908203125</LatitudeDegrees>
              <LongitudeDegrees>-1.97493824176490306854248046875</LongitudeDegrees>
            </Position>
            <AltitudeMeters>3.7999999523162841796875</AltitudeMeters>
            <DistanceMeters>NAN</DistanceMeters>
          </Trackpoint>
          <Trackpoint>
            <Time>2022-07-09T11:27:56.000Z</Time>
            <Position>
              <LatitudeDegrees>43.32340755499899387359619140625</LatitudeDegrees>
              <LongitudeDegrees>-1.9749421812593936920166015625</LongitudeDegrees>
            </Position>
            <AltitudeMeters>3.7999999523162841796875</AltitudeMeters>
            <DistanceMeters>NAN</DistanceMeters>
          </Trackpoint>
          <Trackpoint>
            <Time>2022-07-09T11:28:00.000Z</Time>
            <Position>
              <LatitudeDegrees>43.3233851753175258636474609375</LatitudeDegrees>
              <LongitudeDegrees>-1.974950395524501800537109375</LongitudeDegrees>
            </Position>
            <AltitudeMeters>4</AltitudeMeters>
            <DistanceMeters>NAN</DistanceMeters>
          </Trackpoint>
          <Trackpoint>
            <Time>2022-07-09T11:28:03.000Z</Time>
            <Position>
              <LatitudeDegrees>43.323433287441730499267578125</LatitudeDegrees>
              <LongitudeDegrees>-1.97499834001064300537109375</LongitudeDegrees>
            </Position>
            <AltitudeMeters>4</AltitudeMeters>
            <DistanceMeters>NAN</DistanceMeters>
          </Trackpoint>
          <Trackpoint>
            <Time>2022-07-09T11:29:12.000Z</Time>
            <Position>
              <LatitudeDegrees>43.32331216894090175628662109375</LatitudeDegrees>
              <LongitudeDegrees>-1.97487236000597476959228515625</LongitudeDegrees>
            </Position>
            <AltitudeMeters>4.599999904632568359375</AltitudeMeters>
            <DistanceMeters>NAN</DistanceMeters>
          </Trackpoint>
          <Trackpoint>
            <Time>2022-07-09T11:29:14.000Z</Time>
            <Position>
              <LatitudeDegrees>43.32329213619232177734375</LatitudeDegrees>
              <LongitudeDegrees>-1.97486582212150096893310546875</LongitudeDegrees>
            </Position>
            <AltitudeMeters>4.599999904632568359375</AltitudeMeters>
            <DistanceMeters>NAN</DistanceMeters>
          </Trackpoint>
          <Trackpoint>
            <Time>2022-07-09T11:29:15.000Z</Time>
            <Position>
              <LatitudeDegrees>43.32328115589916706085205078125</LatitudeDegrees>
              <LongitudeDegrees>-1.9748570211231708526611328125</LongitudeDegrees>
            </Position>
            <AltitudeMeters>4.599999904632568359375</AltitudeMeters>
            <DistanceMeters>NAN</DistanceMeters>
          </Trackpoint>
          <Trackpoint>
            <Time>2022-07-09T11:29:18.000Z</Time>
            <Position>
              <LatitudeDegrees>43.3232634700834751129150390625</LatitudeDegrees>
              <LongitudeDegrees>-1.9748087413609027862548828125</LongitudeDegrees>
            </Position>
            <AltitudeMeters>4.80000019073486328125</AltitudeMeters>
            <DistanceMeters>NAN</DistanceMeters>
          </Trackpoint>
          <Trackpoint>
            <Time>2022-07-09T11:29:20.000Z</Time>
            <Position>
              <LatitudeDegrees>43.3232460357248783111572265625</LatitudeDegrees>
              <LongitudeDegrees>-1.97482810355722904205322265625</LongitudeDegrees>
            </Position>
            <AltitudeMeters>4.80000019073486328125</AltitudeMeters>
            <DistanceMeters>NAN</DistanceMeters>
          </Trackpoint>
          <Trackpoint>
            <Time>2022-07-09T11:29:21.000Z</Time>
            <Position>
              <LatitudeDegrees>43.3232480473816394805908203125</LatitudeDegrees>
              <LongitudeDegrees>-1.9748422689735889434814453125</LongitudeDegrees>
            </Position>
            <AltitudeMeters>4.80000019073486328125</AltitudeMeters>
            <DistanceMeters>NAN</DistanceMeters>
          </Trackpoint>
          <Trackpoint>
            <Time>2022-07-09T11:29:22.000Z</Time>
            <Position>
              <LatitudeDegrees>43.32324142567813396453857421875</LatitudeDegrees>
              <LongitudeDegrees>-1.97485006414353847503662109375</LongitudeDegrees>
            </Position>
            <AltitudeMeters>4.80000019073486328125</AltitudeMeters>
            <DistanceMeters>NAN</DistanceMeters>
          </Trackpoint>
          <Trackpoint>
            <Time>2022-07-09T11:29:23.000Z</Time>
            <Position>
              <LatitudeDegrees>43.323236815631389617919921875</LatitudeDegrees>
              <LongitudeDegrees>-1.97485148906707763671875</LongitudeDegrees>
            </Position>
            <AltitudeMeters>4.80000019073486328125</AltitudeMeters>
            <DistanceMeters>NAN</DistanceMeters>
          </Trackpoint>
          <Trackpoint>
            <Time>2022-07-09T11:29:25.000Z</Time>
            <Position>
              <LatitudeDegrees>43.32322717644274234771728515625</LatitudeDegrees>
              <LongitudeDegrees>-1.97484813630580902099609375</LongitudeDegrees>
            </Position>
            <AltitudeMeters>5</AltitudeMeters>
            <DistanceMeters>NAN</DistanceMeters>
          </Trackpoint>
          <Trackpoint>
            <Time>2022-07-09T11:29:28.000Z</Time>
            <Position>
              <LatitudeDegrees>43.32325416617095470428466796875</LatitudeDegrees>
              <LongitudeDegrees>-1.97487629950046539306640625</LongitudeDegrees>
            </Position>
            <AltitudeMeters>5</AltitudeMeters>
            <DistanceMeters>NAN</DistanceMeters>
          </Trackpoint>
          <Trackpoint>
            <Time>2022-07-09T11:29:31.000Z</Time>
            <Position>
              <LatitudeDegrees>43.32327092997729778289794921875</LatitudeDegrees>
              <LongitudeDegrees>-1.97487571276724338531494140625</LongitudeDegrees>
            </Position>
            <AltitudeMeters>5</AltitudeMeters>
            <DistanceMeters>NAN</DistanceMeters>
          </Trackpoint>
          <Trackpoint>
            <Time>2022-07-09T11:29:32.000Z</Time>
            <Position>
              <LatitudeDegrees>43.32328476011753082275390625</LatitudeDegrees>
              <LongitudeDegrees>-1.9748903810977935791015625</LongitudeDegrees>
            </Position>
            <AltitudeMeters>5</AltitudeMeters>
            <DistanceMeters>NAN</DistanceMeters>
          </Trackpoint>
          <Trackpoint>
            <Time>2022-07-09T11:30:46.000Z</Time>
            <Position>
              <LatitudeDegrees>43.32307848148047924041748046875</LatitudeDegrees>
              <LongitudeDegrees>-1.974917538464069366455078125</LongitudeDegrees>
            </Position>
            <AltitudeMeters>5.19999980926513671875</AltitudeMeters>
            <DistanceMeters>NAN</DistanceMeters>
          </Trackpoint>
          <Trackpoint>
            <Time>2022-07-09T11:30:48.000Z</Time>
            <Position>
              <LatitudeDegrees>43.3230555988848209381103515625</LatitudeDegrees>
              <LongitudeDegrees>-1.97490689344704151153564453125</LongitudeDegrees>
            </Position>
            <AltitudeMeters>5.19999980926513671875</AltitudeMeters>
            <DistanceMeters>NAN</DistanceMeters>
          </Trackpoint>
          <Trackpoint>
            <Time>2022-07-09T11:30:50.000Z</Time>
            <Position>
              <LatitudeDegrees>43.3230559341609477996826171875</LatitudeDegrees>
              <LongitudeDegrees>-1.97491376660764217376708984375</LongitudeDegrees>
            </Position>
            <AltitudeMeters>5.599999904632568359375</AltitudeMeters>
            <DistanceMeters>NAN</DistanceMeters>
          </Trackpoint>
          <Trackpoint>
            <Time>2022-07-09T11:43:08.000Z</Time>
            <Position>
              <LatitudeDegrees>43.32333706319332122802734375</LatitudeDegrees>
              <LongitudeDegrees>-1.97490136139094829559326171875</LongitudeDegrees>
            </Position>
            <AltitudeMeters>7</AltitudeMeters>
            <DistanceMeters>NAN</DistanceMeters>
          </Trackpoint>
          <Trackpoint>
            <Time>2022-07-09T11:43:09.000Z</Time>
            <Position>
              <LatitudeDegrees>43.32332993857562541961669921875</LatitudeDegrees>
              <LongitudeDegrees>-1.97487856261432170867919921875</LongitudeDegrees>
            </Position>
            <AltitudeMeters>7</AltitudeMeters>
            <DistanceMeters>NAN</DistanceMeters>
          </Trackpoint>
          <Trackpoint>
            <Time>2022-07-09T11:43:10.000Z</Time>
            <Position>
              <LatitudeDegrees>43.32330831326544284820556640625</LatitudeDegrees>
              <LongitudeDegrees>-1.974859535694122314453125</LongitudeDegrees>
            </Position>
            <AltitudeMeters>7</AltitudeMeters>
            <DistanceMeters>NAN</DistanceMeters>
          </Trackpoint>
          <Trackpoint>
            <Time>2022-07-09T11:43:12.000Z</Time>
            <Position>
              <LatitudeDegrees>43.32327537238597869873046875</LatitudeDegrees>
              <LongitudeDegrees>-1.97482408024370670318603515625</LongitudeDegrees>
            </Position>
            <AltitudeMeters>8.6000003814697265625</AltitudeMeters>
            <DistanceMeters>NAN</DistanceMeters>
          </Trackpoint>
          <Trackpoint>
            <Time>2022-07-09T11:43:13.000Z</Time>
            <Position>
              <LatitudeDegrees>43.32323555834591388702392578125</LatitudeDegrees>
              <LongitudeDegrees>-1.97480748407542705535888671875</LongitudeDegrees>
            </Position>
            <AltitudeMeters>9.6000003814697265625</AltitudeMeters>
            <DistanceMeters>NAN</DistanceMeters>
          </Trackpoint>
          <Trackpoint>
            <Time>2022-07-09T11:43:24.000Z</Time>
            <Position>
              <LatitudeDegrees>43.3232639729976654052734375</LatitudeDegrees>
              <LongitudeDegrees>-1.97482089512050151824951171875</LongitudeDegrees>
            </Position>
            <AltitudeMeters>10.6000003814697265625</AltitudeMeters>
            <DistanceMeters>NAN</DistanceMeters>
          </Trackpoint>
          <Trackpoint>
            <Time>2022-07-09T11:43:25.000Z</Time>
            <Position>
              <LatitudeDegrees>43.323287777602672576904296875</LatitudeDegrees>
              <LongitudeDegrees>-1.97482139803469181060791015625</LongitudeDegrees>
            </Position>
            <AltitudeMeters>10.6000003814697265625</AltitudeMeters>
            <DistanceMeters>NAN</DistanceMeters>
          </Trackpoint>
          <Trackpoint>
            <Time>2022-07-09T11:43:26.000Z</Time>
            <Position>
              <LatitudeDegrees>43.323305547237396240234375</LatitudeDegrees>
              <LongitudeDegrees>-1.9748134352266788482666015625</LongitudeDegrees>
            </Position>
            <AltitudeMeters>10.6000003814697265625</AltitudeMeters>
            <DistanceMeters>NAN</DistanceMeters>
          </Trackpoint>
          <Trackpoint>
            <Time>2022-07-09T11:43:27.000Z</Time>
            <Position>
              <LatitudeDegrees>43.3233425952494144439697265625</LatitudeDegrees>
              <LongitudeDegrees>-1.97483246214687824249267578125</LongitudeDegrees>
            </Position>
            <AltitudeMeters>10.6000003814697265625</AltitudeMeters>
            <DistanceMeters>NAN</DistanceMeters>
          </Trackpoint>
          <Trackpoint>
            <Time>2022-07-09T11:43:28.000Z</Time>
            <Position>
              <LatitudeDegrees>43.323361873626708984375</LatitudeDegrees>
              <LongitudeDegrees>-1.97485861368477344512939453125</LongitudeDegrees>
            </Position>
            <AltitudeMeters>10.6000003814697265625</AltitudeMeters>
            <DistanceMeters>NAN</DistanceMeters>
          </Trackpoint>
          <Trackpoint>
            <Time>2022-07-09T11:43:30.000Z</Time>
            <Position>
              <LatitudeDegrees>43.3234029449522495269775390625</LatitudeDegrees>
              <LongitudeDegrees>-1.9748945720493793487548828125</LongitudeDegrees>
            </Position>
            <AltitudeMeters>10.3999996185302734375</AltitudeMeters>
            <DistanceMeters>NAN</DistanceMeters>
          </Trackpoint>
          <Trackpoint>
            <Time>2022-07-09T11:43:35.000Z</Time>
            <Position>
              <LatitudeDegrees>43.323361538350582122802734375</LatitudeDegrees>
              <LongitudeDegrees>-1.97484805248677730560302734375</LongitudeDegrees>
            </Position>
            <AltitudeMeters>10.3999996185302734375</AltitudeMeters>
            <DistanceMeters>NAN</DistanceMeters>
          </Trackpoint>
          <Trackpoint>
            <Time>2022-07-09T11:43:36.000Z</Time>
            <Position>
              <LatitudeDegrees>43.32337385974824428558349609375</LatitudeDegrees>
              <LongitudeDegrees>-1.9748342223465442657470703125</LongitudeDegrees>
            </Position>
            <AltitudeMeters>10.3999996185302734375</AltitudeMeters>
            <DistanceMeters>NAN</DistanceMeters>
          </Trackpoint>
          <Trackpoint>
            <Time>2022-07-09T11:43:37.000Z</Time>
            <Position>
              <LatitudeDegrees>43.3233700878918170928955078125</LatitudeDegrees>
              <LongitudeDegrees>-1.9748248346149921417236328125</LongitudeDegrees>
            </Position>
            <AltitudeMeters>10.3999996185302734375</AltitudeMeters>
            <DistanceMeters>NAN</DistanceMeters>
          </Trackpoint>
          <Trackpoint>
            <Time>2022-07-09T11:43:38.000Z</Time>
            <Position>
              <LatitudeDegrees>43.32336883060634136199951171875</LatitudeDegrees>
              <LongitudeDegrees>-1.9748198054730892181396484375</LongitudeDegrees>
            </Position>
            <AltitudeMeters>10.19999980926513671875</AltitudeMeters>
            <DistanceMeters>NAN</DistanceMeters>
          </Trackpoint>
          <Trackpoint>
            <Time>2022-07-09T11:43:40.000Z</Time>
            <Position>
              <LatitudeDegrees>43.32335709594190120697021484375</LatitudeDegrees>
              <LongitudeDegrees>-1.97480698116123676300048828125</LongitudeDegrees>
            </Position>
            <AltitudeMeters>10.19999980926513671875</AltitudeMeters>
            <DistanceMeters>NAN</DistanceMeters>
          </Trackpoint>
          <Trackpoint>
            <Time>2022-07-09T11:43:43.000Z</Time>
            <Position>
              <LatitudeDegrees>43.32321259193122386932373046875</LatitudeDegrees>
              <LongitudeDegrees>-1.974708996713161468505859375</LongitudeDegrees>
            </Position>
            <AltitudeMeters>10.19999980926513671875</AltitudeMeters>
            <DistanceMeters>NAN</DistanceMeters>
          </Trackpoint>
          <Trackpoint>
            <Time>2022-07-09T11:43:45.000Z</Time>
            <Position>
              <LatitudeDegrees>43.3231461234390735626220703125</LatitudeDegrees>
              <LongitudeDegrees>-1.97469231672585010528564453125</LongitudeDegrees>
            </Position>
            <AltitudeMeters>10.19999980926513671875</AltitudeMeters>
            <DistanceMeters>NAN</DistanceMeters>
          </Trackpoint>
          <Trackpoint>
            <Time>2022-07-09T11:43:47.000Z</Time>
            <Position>
              <LatitudeDegrees>43.32316582091152667999267578125</LatitudeDegrees>
              <LongitudeDegrees>-1.97473757900297641754150390625</LongitudeDegrees>
            </Position>
            <AltitudeMeters>10.19999980926513671875</AltitudeMeters>
            <DistanceMeters>NAN</DistanceMeters>
          </Trackpoint>
          <Trackpoint>
            <Time>2022-07-09T11:43:50.000Z</Time>
            <Position>
              <LatitudeDegrees>43.3231179602444171905517578125</LatitudeDegrees>
              <LongitudeDegrees>-1.97480916045606136322021484375</LongitudeDegrees>
            </Position>
            <AltitudeMeters>10.19999980926513671875</AltitudeMeters>
            <DistanceMeters>NAN</DistanceMeters>
          </Trackpoint>
          <Trackpoint>
            <Time>2022-07-09T11:43:51.000Z</Time>
            <Position>
              <LatitudeDegrees>43.3232004381716251373291015625</LatitudeDegrees>
              <LongitudeDegrees>-1.9748322106897830963134765625</LongitudeDegrees>
            </Position>
            <AltitudeMeters>10.3999996185302734375</AltitudeMeters>
            <DistanceMeters>NAN</DistanceMeters>
          </Trackpoint>
          <Trackpoint>
            <Time>2022-07-09T11:43:52.000Z</Time>
            <Position>
              <LatitudeDegrees>43.32321376539766788482666015625</LatitudeDegrees>
              <LongitudeDegrees>-1.97483916766941547393798828125</LongitudeDegrees>
            </Position>
            <AltitudeMeters>10.6000003814697265625</AltitudeMeters>
            <DistanceMeters>NAN</DistanceMeters>
          </Trackpoint>
          <Trackpoint>
            <Time>2022-07-09T11:43:55.000Z</Time>
            <Position>
              <LatitudeDegrees>43.32319599576294422149658203125</LatitudeDegrees>
              <LongitudeDegrees>-1.974888704717159271240234375</LongitudeDegrees>
            </Position>
            <AltitudeMeters>10.6000003814697265625</AltitudeMeters>
            <DistanceMeters>NAN</DistanceMeters>
          </Trackpoint>
          <Trackpoint>
            <Time>2022-07-09T11:43:58.000Z</Time>
            <Position>
              <LatitudeDegrees>43.32316213287413120269775390625</LatitudeDegrees>
              <LongitudeDegrees>-1.974943690001964569091796875</LongitudeDegrees>
            </Position>
            <AltitudeMeters>10.19999980926513671875</AltitudeMeters>
            <DistanceMeters>NAN</DistanceMeters>
          </Trackpoint>
          <Trackpoint>
            <Time>2022-07-09T11:43:59.000Z</Time>
            <Position>
              <LatitudeDegrees>43.32318685948848724365234375</LatitudeDegrees>
              <LongitudeDegrees>-1.974974535405635833740234375</LongitudeDegrees>
            </Position>
            <AltitudeMeters>10.19999980926513671875</AltitudeMeters>
            <DistanceMeters>NAN</DistanceMeters>
          </Trackpoint>
          <Trackpoint>
            <Time>2022-07-09T11:44:01.000Z</Time>
            <Position>
              <LatitudeDegrees>43.32318074069917201995849609375</LatitudeDegrees>
              <LongitudeDegrees>-1.974974535405635833740234375</LongitudeDegrees>
            </Position>
            <AltitudeMeters>10.19999980926513671875</AltitudeMeters>
            <DistanceMeters>NAN</DistanceMeters>
          </Trackpoint>
          <Trackpoint>
            <Time>2022-07-09T11:44:02.000Z</Time>
            <Position>
              <LatitudeDegrees>43.3231464587152004241943359375</LatitudeDegrees>
              <LongitudeDegrees>-1.974945366382598876953125</LongitudeDegrees>
            </Position>
            <AltitudeMeters>10.19999980926513671875</AltitudeMeters>
            <DistanceMeters>NAN</DistanceMeters>
          </Trackpoint>
          <Trackpoint>
            <Time>2022-07-09T11:44:04.000Z</Time>
            <Position>
              <LatitudeDegrees>43.32319264300167560577392578125</LatitudeDegrees>
              <LongitudeDegrees>-1.97489432059228420257568359375</LongitudeDegrees>
            </Position>
            <AltitudeMeters>10.6000003814697265625</AltitudeMeters>
            <DistanceMeters>NAN</DistanceMeters>
          </Trackpoint>
          <Trackpoint>
            <Time>2022-07-09T11:44:08.000Z</Time>
            <Position>
              <LatitudeDegrees>43.323209322988986968994140625</LatitudeDegrees>
              <LongitudeDegrees>-1.9748271815478801727294921875</LongitudeDegrees>
            </Position>
            <AltitudeMeters>10.6000003814697265625</AltitudeMeters>
            <DistanceMeters>NAN</DistanceMeters>
          </Trackpoint>
          <Trackpoint>
            <Time>2022-07-09T11:44:10.000Z</Time>
            <Position>
              <LatitudeDegrees>43.32321125082671642303466796875</LatitudeDegrees>
              <LongitudeDegrees>-1.97483246214687824249267578125</LongitudeDegrees>
            </Position>
            <AltitudeMeters>10.3999996185302734375</AltitudeMeters>
            <DistanceMeters>NAN</DistanceMeters>
          </Trackpoint>
          <Trackpoint>
            <Time>2022-07-09T11:44:14.000Z</Time>
            <Position>
              <LatitudeDegrees>43.32320169545710086822509765625</LatitudeDegrees>
              <LongitudeDegrees>-1.9748234935104846954345703125</LongitudeDegrees>
            </Position>
            <AltitudeMeters>10.3999996185302734375</AltitudeMeters>
            <DistanceMeters>NAN</DistanceMeters>
          </Trackpoint>
          <Trackpoint>
            <Time>2022-07-09T11:44:15.000Z</Time>
            <Position>
              <LatitudeDegrees>43.323210664093494415283203125</LatitudeDegrees>
              <LongitudeDegrees>-1.974817626178264617919921875</LongitudeDegrees>
            </Position>
            <AltitudeMeters>10.3999996185302734375</AltitudeMeters>
            <DistanceMeters>NAN</DistanceMeters>
          </Trackpoint>
          <Trackpoint>
            <Time>2022-07-09T11:44:18.000Z</Time>
            <Position>
              <LatitudeDegrees>43.32320320419967174530029296875</LatitudeDegrees>
              <LongitudeDegrees>-1.9748080708086490631103515625</LongitudeDegrees>
            </Position>
            <AltitudeMeters>10.3999996185302734375</AltitudeMeters>
            <DistanceMeters>NAN</DistanceMeters>
          </Trackpoint>
          <Trackpoint>
            <Time>2022-07-09T11:44:19.000Z</Time>
            <Position>
              <LatitudeDegrees>43.32319482229650020599365234375</LatitudeDegrees>
              <LongitudeDegrees>-1.9748043827712535858154296875</LongitudeDegrees>
            </Position>
            <AltitudeMeters>10.3999996185302734375</AltitudeMeters>
            <DistanceMeters>NAN</DistanceMeters>
          </Trackpoint>
          <Trackpoint>
            <Time>2022-07-09T11:44:24.000Z</Time>
            <Position>
              <LatitudeDegrees>43.323216028511524200439453125</LatitudeDegrees>
              <LongitudeDegrees>-1.974875293672084808349609375</LongitudeDegrees>
            </Position>
            <AltitudeMeters>10.3999996185302734375</AltitudeMeters>
            <DistanceMeters>NAN</DistanceMeters>
          </Trackpoint>
          <Trackpoint>
            <Time>2022-07-09T11:44:29.000Z</Time>
            <Position>
              <LatitudeDegrees>43.32321460358798503875732421875</LatitudeDegrees>
              <LongitudeDegrees>-1.9748908840119838714599609375</LongitudeDegrees>
            </Position>
            <AltitudeMeters>10.3999996185302734375</AltitudeMeters>
            <DistanceMeters>NAN</DistanceMeters>
          </Trackpoint>
          <Trackpoint>
            <Time>2022-07-09T11:44:33.000Z</Time>
            <Position>
              <LatitudeDegrees>43.3231900446116924285888671875</LatitudeDegrees>
              <LongitudeDegrees>-1.97486079297959804534912109375</LongitudeDegrees>
            </Position>
            <AltitudeMeters>10.6000003814697265625</AltitudeMeters>
            <DistanceMeters>NAN</DistanceMeters>
          </Trackpoint>
          <Trackpoint>
            <Time>2022-07-09T11:44:40.000Z</Time>
            <Position>
              <LatitudeDegrees>43.3231739513576030731201171875</LatitudeDegrees>
              <LongitudeDegrees>-1.9748120941221714019775390625</LongitudeDegrees>
            </Position>
            <AltitudeMeters>9.80000019073486328125</AltitudeMeters>
            <DistanceMeters>NAN</DistanceMeters>
          </Trackpoint>
          <Trackpoint>
            <Time>2022-07-09T11:44:41.000Z</Time>
            <Position>
              <LatitudeDegrees>43.323187194764614105224609375</LatitudeDegrees>
              <LongitudeDegrees>-1.9748164527118206024169921875</LongitudeDegrees>
            </Position>
            <AltitudeMeters>9.80000019073486328125</AltitudeMeters>
            <DistanceMeters>NAN</DistanceMeters>
          </Trackpoint>
          <Trackpoint>
            <Time>2022-07-09T11:44:43.000Z</Time>
            <Position>
              <LatitudeDegrees>43.3232371509075164794921875</LatitudeDegrees>
              <LongitudeDegrees>-1.97483950294554233551025390625</LongitudeDegrees>
            </Position>
            <AltitudeMeters>10</AltitudeMeters>
            <DistanceMeters>NAN</DistanceMeters>
          </Trackpoint>
          <Trackpoint>
            <Time>2022-07-09T11:44:46.000Z</Time>
            <Position>
              <LatitudeDegrees>43.32322348840534687042236328125</LatitudeDegrees>
              <LongitudeDegrees>-1.97482843883335590362548828125</LongitudeDegrees>
            </Position>
            <AltitudeMeters>10</AltitudeMeters>
            <DistanceMeters>NAN</DistanceMeters>
          </Trackpoint>
          <Trackpoint>
            <Time>2022-07-09T11:44:48.000Z</Time>
            <Position>
              <LatitudeDegrees>43.323198258876800537109375</LatitudeDegrees>
              <LongitudeDegrees>-1.9748211465775966644287109375</LongitudeDegrees>
            </Position>
            <AltitudeMeters>10</AltitudeMeters>
            <DistanceMeters>NAN</DistanceMeters>
          </Trackpoint>
          <Trackpoint>
            <Time>2022-07-09T11:44:49.000Z</Time>
            <Position>
              <LatitudeDegrees>43.32319834269583225250244140625</LatitudeDegrees>
              <LongitudeDegrees>-1.97482676245272159576416015625</LongitudeDegrees>
            </Position>
            <AltitudeMeters>10</AltitudeMeters>
            <DistanceMeters>NAN</DistanceMeters>
          </Trackpoint>
          <Trackpoint>
            <Time>2022-07-09T11:44:53.000Z</Time>
            <Position>
              <LatitudeDegrees>43.323175795376300811767578125</LatitudeDegrees>
              <LongitudeDegrees>-1.97485928423702716827392578125</LongitudeDegrees>
            </Position>
            <AltitudeMeters>10.3999996185302734375</AltitudeMeters>
            <DistanceMeters>NAN</DistanceMeters>
          </Trackpoint>
          <Trackpoint>
            <Time>2022-07-09T11:44:58.000Z</Time>
            <Position>
              <LatitudeDegrees>43.32313933409750461578369140625</LatitudeDegrees>
              <LongitudeDegrees>-1.974864564836025238037109375</LongitudeDegrees>
            </Position>
            <AltitudeMeters>10.19999980926513671875</AltitudeMeters>
            <DistanceMeters>NAN</DistanceMeters>
          </Trackpoint>
          <Trackpoint>
            <Time>2022-07-09T11:45:11.000Z</Time>
            <Position>
              <LatitudeDegrees>43.32311888225376605987548828125</LatitudeDegrees>
              <LongitudeDegrees>-1.97484218515455722808837890625</LongitudeDegrees>
            </Position>
            <AltitudeMeters>10</AltitudeMeters>
            <DistanceMeters>NAN</DistanceMeters>
          </Trackpoint>
          <Trackpoint>
            <Time>2022-07-09T11:45:13.000Z</Time>
            <Position>
              <LatitudeDegrees>43.3231296949088573455810546875</LatitudeDegrees>
              <LongitudeDegrees>-1.974837072193622589111328125</LongitudeDegrees>
            </Position>
            <AltitudeMeters>9.80000019073486328125</AltitudeMeters>
            <DistanceMeters>NAN</DistanceMeters>
          </Trackpoint>
          <Trackpoint>
            <Time>2022-07-09T11:45:14.000Z</Time>
            <Position>
              <LatitudeDegrees>43.32311854697763919830322265625</LatitudeDegrees>
              <LongitudeDegrees>-1.97482592426240444183349609375</LongitudeDegrees>
            </Position>
            <AltitudeMeters>9.80000019073486328125</AltitudeMeters>
            <DistanceMeters>NAN</DistanceMeters>
          </Trackpoint>
          <Trackpoint>
            <Time>2022-07-09T11:45:15.000Z</Time>
            <Position>
              <LatitudeDegrees>43.32310413010418415069580078125</LatitudeDegrees>
              <LongitudeDegrees>-1.97481636889278888702392578125</LongitudeDegrees>
            </Position>
            <AltitudeMeters>9.80000019073486328125</AltitudeMeters>
            <DistanceMeters>NAN</DistanceMeters>
          </Trackpoint>
          <Trackpoint>
            <Time>2022-07-09T11:45:17.000Z</Time>
            <Position>
              <LatitudeDegrees>43.3230867795646190643310546875</LatitudeDegrees>
              <LongitudeDegrees>-1.9748080708086490631103515625</LongitudeDegrees>
            </Position>
            <AltitudeMeters>9.80000019073486328125</AltitudeMeters>
            <DistanceMeters>NAN</DistanceMeters>
          </Trackpoint>
          <Trackpoint>
            <Time>2022-07-09T11:45:21.000Z</Time>
            <Position>
              <LatitudeDegrees>43.32319012843072414398193359375</LatitudeDegrees>
              <LongitudeDegrees>-1.974870599806308746337890625</LongitudeDegrees>
            </Position>
            <AltitudeMeters>10.19999980926513671875</AltitudeMeters>
            <DistanceMeters>NAN</DistanceMeters>
          </Trackpoint>
          <Trackpoint>
            <Time>2022-07-09T11:45:24.000Z</Time>
            <Position>
              <LatitudeDegrees>43.3231337182223796844482421875</LatitudeDegrees>
              <LongitudeDegrees>-1.97481460869312286376953125</LongitudeDegrees>
            </Position>
            <AltitudeMeters>10.3999996185302734375</AltitudeMeters>
            <DistanceMeters>NAN</DistanceMeters>
          </Trackpoint>
          <Trackpoint>
            <Time>2022-07-09T11:45:27.000Z</Time>
            <Position>
              <LatitudeDegrees>43.32305006682872772216796875</LatitudeDegrees>
              <LongitudeDegrees>-1.97475786320865154266357421875</LongitudeDegrees>
            </Position>
            <AltitudeMeters>9.80000019073486328125</AltitudeMeters>
            <DistanceMeters>NAN</DistanceMeters>
          </Trackpoint>
          <Trackpoint>
            <Time>2022-07-09T11:45:28.000Z</Time>
            <Position>
              <LatitudeDegrees>43.323064148426055908203125</LatitudeDegrees>
              <LongitudeDegrees>-1.9747500680387020111083984375</LongitudeDegrees>
            </Position>
            <AltitudeMeters>9.80000019073486328125</AltitudeMeters>
            <DistanceMeters>NAN</DistanceMeters>
          </Trackpoint>
          <Trackpoint>
            <Time>2022-07-09T11:45:30.000Z</Time>
            <Position>
              <LatitudeDegrees>43.32312642596662044525146484375</LatitudeDegrees>
              <LongitudeDegrees>-1.97477638721466064453125</LongitudeDegrees>
            </Position>
            <AltitudeMeters>10</AltitudeMeters>
            <DistanceMeters>NAN</DistanceMeters>
          </Trackpoint>
          <Trackpoint>
            <Time>2022-07-09T11:45:32.000Z</Time>
            <Position>
              <LatitudeDegrees>43.32317537628114223480224609375</LatitudeDegrees>
              <LongitudeDegrees>-1.97487889789044857025146484375</LongitudeDegrees>
            </Position>
            <AltitudeMeters>10.3999996185302734375</AltitudeMeters>
            <DistanceMeters>NAN</DistanceMeters>
          </Trackpoint>
          <Trackpoint>
            <Time>2022-07-09T11:45:34.000Z</Time>
            <Position>
              <LatitudeDegrees>43.32319867797195911407470703125</LatitudeDegrees>
              <LongitudeDegrees>-1.974916867911815643310546875</LongitudeDegrees>
            </Position>
            <AltitudeMeters>10.6000003814697265625</AltitudeMeters>
            <DistanceMeters>NAN</DistanceMeters>
          </Trackpoint>
          <Trackpoint>
            <Time>2022-07-09T11:45:48.000Z</Time>
            <Position>
              <LatitudeDegrees>43.323225080966949462890625</LatitudeDegrees>
              <LongitudeDegrees>-1.9747852720320224761962890625</LongitudeDegrees>
            </Position>
            <AltitudeMeters>10.6000003814697265625</AltitudeMeters>
            <DistanceMeters>NAN</DistanceMeters>
          </Trackpoint>
          <Trackpoint>
            <Time>2022-07-09T11:45:49.000Z</Time>
            <Position>
              <LatitudeDegrees>43.32323522306978702545166015625</LatitudeDegrees>
              <LongitudeDegrees>-1.97476498782634735107421875</LongitudeDegrees>
            </Position>
            <AltitudeMeters>10.6000003814697265625</AltitudeMeters>
            <DistanceMeters>NAN</DistanceMeters>
          </Trackpoint>
          <Trackpoint>
            <Time>2022-07-09T11:45:50.000Z</Time>
            <Position>
              <LatitudeDegrees>43.32323539070785045623779296875</LatitudeDegrees>
              <LongitudeDegrees>-1.97474495507776737213134765625</LongitudeDegrees>
            </Position>
            <AltitudeMeters>10.6000003814697265625</AltitudeMeters>
            <DistanceMeters>NAN</DistanceMeters>
          </Trackpoint>
          <Trackpoint>
            <Time>2022-07-09T11:45:53.000Z</Time>
            <Position>
              <LatitudeDegrees>43.32323874346911907196044921875</LatitudeDegrees>
              <LongitudeDegrees>-1.97465769946575164794921875</LongitudeDegrees>
            </Position>
            <AltitudeMeters>10.80000019073486328125</AltitudeMeters>
            <DistanceMeters>NAN</DistanceMeters>
          </Trackpoint>
          <Trackpoint>
            <Time>2022-07-09T11:45:56.000Z</Time>
            <Position>
              <LatitudeDegrees>43.3232031203806400299072265625</LatitudeDegrees>
              <LongitudeDegrees>-1.9746085815131664276123046875</LongitudeDegrees>
            </Position>
            <AltitudeMeters>10.80000019073486328125</AltitudeMeters>
            <DistanceMeters>NAN</DistanceMeters>
          </Trackpoint>
          <Trackpoint>
            <Time>2022-07-09T11:45:58.000Z</Time>
            <Position>
              <LatitudeDegrees>43.323136232793331146240234375</LatitudeDegrees>
              <LongitudeDegrees>-1.97457580827176570892333984375</LongitudeDegrees>
            </Position>
            <AltitudeMeters>11</AltitudeMeters>
            <DistanceMeters>NAN</DistanceMeters>
          </Trackpoint>
          <Trackpoint>
            <Time>2022-07-09T11:46:00.000Z</Time>
            <Position>
              <LatitudeDegrees>43.32309390418231487274169921875</LatitudeDegrees>
              <LongitudeDegrees>-1.9745485670864582061767578125</LongitudeDegrees>
            </Position>
            <AltitudeMeters>11</AltitudeMeters>
            <DistanceMeters>NAN</DistanceMeters>
          </Trackpoint>
          <Trackpoint>
            <Time>2022-07-09T11:46:01.000Z</Time>
            <Position>
              <LatitudeDegrees>43.323068507015705108642578125</LatitudeDegrees>
              <LongitudeDegrees>-1.9745462201535701751708984375</LongitudeDegrees>
            </Position>
            <AltitudeMeters>11</AltitudeMeters>
            <DistanceMeters>NAN</DistanceMeters>
          </Trackpoint>
          <Trackpoint>
            <Time>2022-07-09T11:46:04.000Z</Time>
            <Position>
              <LatitudeDegrees>43.32286356948316097259521484375</LatitudeDegrees>
              <LongitudeDegrees>-1.97447908110916614532470703125</LongitudeDegrees>
            </Position>
            <AltitudeMeters>11</AltitudeMeters>
            <DistanceMeters>NAN</DistanceMeters>
          </Trackpoint>
          <Trackpoint>
            <Time>2022-07-09T11:46:06.000Z</Time>
            <Position>
              <LatitudeDegrees>43.32279718481004238128662109375</LatitudeDegrees>
              <LongitudeDegrees>-1.97442426346242427825927734375</LongitudeDegrees>
            </Position>
            <AltitudeMeters>11</AltitudeMeters>
            <DistanceMeters>NAN</DistanceMeters>
          </Trackpoint>
          <Trackpoint>
            <Time>2022-07-09T11:46:09.000Z</Time>
            <Position>
              <LatitudeDegrees>43.32279550842940807342529296875</LatitudeDegrees>
              <LongitudeDegrees>-1.9743584655225276947021484375</LongitudeDegrees>
            </Position>
            <AltitudeMeters>11</AltitudeMeters>
            <DistanceMeters>NAN</DistanceMeters>
          </Trackpoint>
          <Trackpoint>
            <Time>2022-07-09T11:46:11.000Z</Time>
            <Position>
              <LatitudeDegrees>43.32284395582973957061767578125</LatitudeDegrees>
              <LongitudeDegrees>-1.97431680746376514434814453125</LongitudeDegrees>
            </Position>
            <AltitudeMeters>10.80000019073486328125</AltitudeMeters>
            <DistanceMeters>NAN</DistanceMeters>
          </Trackpoint>
          <Trackpoint>
            <Time>2022-07-09T11:46:12.000Z</Time>
            <Position>
              <LatitudeDegrees>43.3228450454771518707275390625</LatitudeDegrees>
              <LongitudeDegrees>-1.97429015301167964935302734375</LongitudeDegrees>
            </Position>
            <AltitudeMeters>10.80000019073486328125</AltitudeMeters>
            <DistanceMeters>NAN</DistanceMeters>
          </Trackpoint>
          <Trackpoint>
            <Time>2022-07-09T11:46:16.000Z</Time>
            <Position>
              <LatitudeDegrees>43.32287882454693317413330078125</LatitudeDegrees>
              <LongitudeDegrees>-1.9742062501609325408935546875</LongitudeDegrees>
            </Position>
            <AltitudeMeters>10.80000019073486328125</AltitudeMeters>
            <DistanceMeters>NAN</DistanceMeters>
          </Trackpoint>
          <Trackpoint>
            <Time>2022-07-09T11:46:17.000Z</Time>
            <Position>
              <LatitudeDegrees>43.32289743237197399139404296875</LatitudeDegrees>
              <LongitudeDegrees>-1.9741811044514179229736328125</LongitudeDegrees>
            </Position>
            <AltitudeMeters>11</AltitudeMeters>
            <DistanceMeters>NAN</DistanceMeters>
          </Trackpoint>
          <Trackpoint>
            <Time>2022-07-09T11:46:18.000Z</Time>
            <Position>
              <LatitudeDegrees>43.32292341627180576324462890625</LatitudeDegrees>
              <LongitudeDegrees>-1.974159814417362213134765625</LongitudeDegrees>
            </Position>
            <AltitudeMeters>11</AltitudeMeters>
            <DistanceMeters>NAN</DistanceMeters>
          </Trackpoint>
          <Trackpoint>
            <Time>2022-07-09T11:46:21.000Z</Time>
            <Position>
              <LatitudeDegrees>43.3230659924447536468505859375</LatitudeDegrees>
              <LongitudeDegrees>-1.97406149469316005706787109375</LongitudeDegrees>
            </Position>
            <AltitudeMeters>11</AltitudeMeters>
            <DistanceMeters>NAN</DistanceMeters>
          </Trackpoint>
          <Trackpoint>
            <Time>2022-07-09T11:46:22.000Z</Time>
            <Position>
              <LatitudeDegrees>43.32308133132755756378173828125</LatitudeDegrees>
              <LongitudeDegrees>-1.974017322063446044921875</LongitudeDegrees>
            </Position>
            <AltitudeMeters>11</AltitudeMeters>
            <DistanceMeters>NAN</DistanceMeters>
          </Trackpoint>
          <Trackpoint>
            <Time>2022-07-09T11:46:26.000Z</Time>
            <Position>
              <LatitudeDegrees>43.3231459558010101318359375</LatitudeDegrees>
              <LongitudeDegrees>-1.973887570202350616455078125</LongitudeDegrees>
            </Position>
            <AltitudeMeters>10.80000019073486328125</AltitudeMeters>
            <DistanceMeters>NAN</DistanceMeters>
          </Trackpoint>
          <Trackpoint>
            <Time>2022-07-09T11:46:28.000Z</Time>
            <Position>
              <LatitudeDegrees>43.32316875457763671875</LatitudeDegrees>
              <LongitudeDegrees>-1.9738309085369110107421875</LongitudeDegrees>
            </Position>
            <AltitudeMeters>10.6000003814697265625</AltitudeMeters>
            <DistanceMeters>NAN</DistanceMeters>
          </Trackpoint>
          <Trackpoint>
            <Time>2022-07-09T11:46:32.000Z</Time>
            <Position>
              <LatitudeDegrees>43.3232621289789676666259765625</LatitudeDegrees>
              <LongitudeDegrees>-1.97374650277197360992431640625</LongitudeDegrees>
            </Position>
            <AltitudeMeters>11</AltitudeMeters>
            <DistanceMeters>NAN</DistanceMeters>
          </Trackpoint>
          <Trackpoint>
            <Time>2022-07-09T11:46:35.000Z</Time>
            <Position>
              <LatitudeDegrees>43.32333815284073352813720703125</LatitudeDegrees>
              <LongitudeDegrees>-1.97361297905445098876953125</LongitudeDegrees>
            </Position>
            <AltitudeMeters>11</AltitudeMeters>
            <DistanceMeters>NAN</DistanceMeters>
          </Trackpoint>
          <Trackpoint>
            <Time>2022-07-09T11:46:37.000Z</Time>
            <Position>
              <LatitudeDegrees>43.32337201572954654693603515625</LatitudeDegrees>
              <LongitudeDegrees>-1.97357333265244960784912109375</LongitudeDegrees>
            </Position>
            <AltitudeMeters>11</AltitudeMeters>
            <DistanceMeters>NAN</DistanceMeters>
          </Trackpoint>
          <Trackpoint>
            <Time>2022-07-09T11:46:40.000Z</Time>
            <Position>
              <LatitudeDegrees>43.32343203015625476837158203125</LatitudeDegrees>
              <LongitudeDegrees>-1.97348129935562610626220703125</LongitudeDegrees>
            </Position>
            <AltitudeMeters>11</AltitudeMeters>
            <DistanceMeters>NAN</DistanceMeters>
          </Trackpoint>
          <Trackpoint>
            <Time>2022-07-09T11:46:43.000Z</Time>
            <Position>
              <LatitudeDegrees>43.32348936237394809722900390625</LatitudeDegrees>
              <LongitudeDegrees>-1.97338038124144077301025390625</LongitudeDegrees>
            </Position>
            <AltitudeMeters>11</AltitudeMeters>
            <DistanceMeters>NAN</DistanceMeters>
          </Trackpoint>
          <Trackpoint>
            <Time>2022-07-09T11:46:46.000Z</Time>
            <Position>
              <LatitudeDegrees>43.32354602403938770294189453125</LatitudeDegrees>
              <LongitudeDegrees>-1.9732996635138988494873046875</LongitudeDegrees>
            </Position>
            <AltitudeMeters>11</AltitudeMeters>
            <DistanceMeters>NAN</DistanceMeters>
          </Trackpoint>
          <Trackpoint>
            <Time>2022-07-09T11:46:49.000Z</Time>
            <Position>
              <LatitudeDegrees>43.32360318861901760101318359375</LatitudeDegrees>
              <LongitudeDegrees>-1.97321710176765918731689453125</LongitudeDegrees>
            </Position>
            <AltitudeMeters>11</AltitudeMeters>
            <DistanceMeters>NAN</DistanceMeters>
          </Trackpoint>
          <Trackpoint>
            <Time>2022-07-09T11:46:50.000Z</Time>
            <Position>
              <LatitudeDegrees>43.32361442036926746368408203125</LatitudeDegrees>
              <LongitudeDegrees>-1.97318323887884616851806640625</LongitudeDegrees>
            </Position>
            <AltitudeMeters>11</AltitudeMeters>
            <DistanceMeters>NAN</DistanceMeters>
          </Trackpoint>
          <Trackpoint>
            <Time>2022-07-09T11:46:51.000Z</Time>
            <Position>
              <LatitudeDegrees>43.3236262388527393341064453125</LatitudeDegrees>
              <LongitudeDegrees>-1.9731575064361095428466796875</LongitudeDegrees>
            </Position>
            <AltitudeMeters>11.19999980926513671875</AltitudeMeters>
            <DistanceMeters>NAN</DistanceMeters>
          </Trackpoint>
          <Trackpoint>
            <Time>2022-07-09T11:46:54.000Z</Time>
            <Position>
              <LatitudeDegrees>43.3237154223024845123291015625</LatitudeDegrees>
              <LongitudeDegrees>-1.9730986654758453369140625</LongitudeDegrees>
            </Position>
            <AltitudeMeters>11.19999980926513671875</AltitudeMeters>
            <DistanceMeters>NAN</DistanceMeters>
          </Trackpoint>
          <Trackpoint>
            <Time>2022-07-09T11:47:00.000Z</Time>
            <Position>
              <LatitudeDegrees>43.323806785047054290771484375</LatitudeDegrees>
              <LongitudeDegrees>-1.9729593582451343536376953125</LongitudeDegrees>
            </Position>
            <AltitudeMeters>11.19999980926513671875</AltitudeMeters>
            <DistanceMeters>NAN</DistanceMeters>
          </Trackpoint>
          <Trackpoint>
            <Time>2022-07-09T11:47:06.000Z</Time>
            <Position>
              <LatitudeDegrees>43.3239103853702545166015625</LatitudeDegrees>
              <LongitudeDegrees>-1.97280697524547576904296875</LongitudeDegrees>
            </Position>
            <AltitudeMeters>11.19999980926513671875</AltitudeMeters>
            <DistanceMeters>NAN</DistanceMeters>
          </Trackpoint>
          <Trackpoint>
            <Time>2022-07-09T11:47:11.000Z</Time>
            <Position>
              <LatitudeDegrees>43.3239829726517200469970703125</LatitudeDegrees>
              <LongitudeDegrees>-1.9726465456187725067138671875</LongitudeDegrees>
            </Position>
            <AltitudeMeters>11</AltitudeMeters>
            <DistanceMeters>NAN</DistanceMeters>
          </Trackpoint>
          <Trackpoint>
            <Time>2022-07-09T11:47:13.000Z</Time>
            <Position>
              <LatitudeDegrees>43.324005603790283203125</LatitudeDegrees>
              <LongitudeDegrees>-1.97258812375366687774658203125</LongitudeDegrees>
            </Position>
            <AltitudeMeters>10.80000019073486328125</AltitudeMeters>
            <DistanceMeters>NAN</DistanceMeters>
          </Trackpoint>
          <Trackpoint>
            <Time>2022-07-09T11:47:21.000Z</Time>
            <Position>
              <LatitudeDegrees>43.32411666400730609893798828125</LatitudeDegrees>
              <LongitudeDegrees>-1.97236566804349422454833984375</LongitudeDegrees>
            </Position>
            <AltitudeMeters>11</AltitudeMeters>
            <DistanceMeters>NAN</DistanceMeters>
          </Trackpoint>
          <Trackpoint>
            <Time>2022-07-09T11:47:31.000Z</Time>
            <Position>
              <LatitudeDegrees>43.3242858946323394775390625</LatitudeDegrees>
              <LongitudeDegrees>-1.9720856286585330963134765625</LongitudeDegrees>
            </Position>
            <AltitudeMeters>11.19999980926513671875</AltitudeMeters>
            <DistanceMeters>NAN</DistanceMeters>
          </Trackpoint>
          <Trackpoint>
            <Time>2022-07-09T11:47:34.000Z</Time>
            <Position>
              <LatitudeDegrees>43.324338532984256744384765625</LatitudeDegrees>
              <LongitudeDegrees>-1.97201815433800220489501953125</LongitudeDegrees>
            </Position>
            <AltitudeMeters>11.6000003814697265625</AltitudeMeters>
            <DistanceMeters>NAN</DistanceMeters>
          </Trackpoint>
          <Trackpoint>
            <Time>2022-07-09T11:47:37.000Z</Time>
            <Position>
              <LatitudeDegrees>43.32440265454351902008056640625</LatitudeDegrees>
              <LongitudeDegrees>-1.97199024260044097900390625</LongitudeDegrees>
            </Position>
            <AltitudeMeters>11.80000019073486328125</AltitudeMeters>
            <DistanceMeters>NAN</DistanceMeters>
          </Trackpoint>
          <Trackpoint>
            <Time>2022-07-09T11:47:42.000Z</Time>
            <Position>
              <LatitudeDegrees>43.32449175417423248291015625</LatitudeDegrees>
              <LongitudeDegrees>-1.971922852098941802978515625</LongitudeDegrees>
            </Position>
            <AltitudeMeters>11.6000003814697265625</AltitudeMeters>
            <DistanceMeters>NAN</DistanceMeters>
          </Trackpoint>
          <Trackpoint>
            <Time>2022-07-09T11:47:47.000Z</Time>
            <Position>
              <LatitudeDegrees>43.3245163969695568084716796875</LatitudeDegrees>
              <LongitudeDegrees>-1.97188002057373523712158203125</LongitudeDegrees>
            </Position>
            <AltitudeMeters>11.19999980926513671875</AltitudeMeters>
            <DistanceMeters>NAN</DistanceMeters>
          </Trackpoint>
          <Trackpoint>
            <Time>2022-07-09T11:47:49.000Z</Time>
            <Position>
              <LatitudeDegrees>43.3244976215064525604248046875</LatitudeDegrees>
              <LongitudeDegrees>-1.97185906581580638885498046875</LongitudeDegrees>
            </Position>
            <AltitudeMeters>11</AltitudeMeters>
            <DistanceMeters>NAN</DistanceMeters>
          </Trackpoint>
          <Trackpoint>
            <Time>2022-07-09T11:47:51.000Z</Time>
            <Position>
              <LatitudeDegrees>43.32449376583099365234375</LatitudeDegrees>
              <LongitudeDegrees>-1.971849091351032257080078125</LongitudeDegrees>
            </Position>
            <AltitudeMeters>11</AltitudeMeters>
            <DistanceMeters>NAN</DistanceMeters>
          </Trackpoint>
          <Trackpoint>
            <Time>2022-07-09T11:47:54.000Z</Time>
            <Position>
              <LatitudeDegrees>43.32450927235186100006103515625</LatitudeDegrees>
              <LongitudeDegrees>-1.97185889817774295806884765625</LongitudeDegrees>
            </Position>
            <AltitudeMeters>10.80000019073486328125</AltitudeMeters>
            <DistanceMeters>NAN</DistanceMeters>
          </Trackpoint>
          <Trackpoint>
            <Time>2022-07-09T11:48:18.000Z</Time>
            <Position>
              <LatitudeDegrees>43.3245656825602054595947265625</LatitudeDegrees>
              <LongitudeDegrees>-1.971825622022151947021484375</LongitudeDegrees>
            </Position>
            <AltitudeMeters>10.19999980926513671875</AltitudeMeters>
            <DistanceMeters>NAN</DistanceMeters>
          </Trackpoint>
          <Trackpoint>
            <Time>2022-07-09T11:48:19.000Z</Time>
            <Position>
              <LatitudeDegrees>43.324563167989253997802734375</LatitudeDegrees>
              <LongitudeDegrees>-1.97182855568826198577880859375</LongitudeDegrees>
            </Position>
            <AltitudeMeters>10.19999980926513671875</AltitudeMeters>
            <DistanceMeters>NAN</DistanceMeters>
          </Trackpoint>
          <Trackpoint>
            <Time>2022-07-09T11:48:20.000Z</Time>
            <Position>
              <LatitudeDegrees>43.324543721973896026611328125</LatitudeDegrees>
              <LongitudeDegrees>-1.971829645335674285888671875</LongitudeDegrees>
            </Position>
            <AltitudeMeters>10.19999980926513671875</AltitudeMeters>
            <DistanceMeters>NAN</DistanceMeters>
          </Trackpoint>
          <Trackpoint>
            <Time>2022-07-09T11:48:23.000Z</Time>
            <Position>
              <LatitudeDegrees>43.32451547496020793914794921875</LatitudeDegrees>
              <LongitudeDegrees>-1.97180458344519138336181640625</LongitudeDegrees>
            </Position>
            <AltitudeMeters>10.19999980926513671875</AltitudeMeters>
            <DistanceMeters>NAN</DistanceMeters>
          </Trackpoint>
          <Trackpoint>
            <Time>2022-07-09T11:48:27.000Z</Time>
            <Position>
              <LatitudeDegrees>43.32453844137489795684814453125</LatitudeDegrees>
              <LongitudeDegrees>-1.97181531228125095367431640625</LongitudeDegrees>
            </Position>
            <AltitudeMeters>10.19999980926513671875</AltitudeMeters>
            <DistanceMeters>NAN</DistanceMeters>
          </Trackpoint>
          <Trackpoint>
            <Time>2022-07-09T11:48:32.000Z</Time>
            <Position>
              <LatitudeDegrees>43.3245760761201381683349609375</LatitudeDegrees>
              <LongitudeDegrees>-1.9718549586832523345947265625</LongitudeDegrees>
            </Position>
            <AltitudeMeters>9.80000019073486328125</AltitudeMeters>
            <DistanceMeters>NAN</DistanceMeters>
          </Trackpoint>
          <Trackpoint>
            <Time>2022-07-09T11:48:34.000Z</Time>
            <Position>
              <LatitudeDegrees>43.32455704919993877410888671875</LatitudeDegrees>
              <LongitudeDegrees>-1.97183995507657527923583984375</LongitudeDegrees>
            </Position>
            <AltitudeMeters>9.3999996185302734375</AltitudeMeters>
            <DistanceMeters>NAN</DistanceMeters>
          </Trackpoint>
          <Trackpoint>
            <Time>2022-07-09T11:48:36.000Z</Time>
            <Position>
              <LatitudeDegrees>43.32452016882598400115966796875</LatitudeDegrees>
              <LongitudeDegrees>-1.97185621596872806549072265625</LongitudeDegrees>
            </Position>
            <AltitudeMeters>9.3999996185302734375</AltitudeMeters>
            <DistanceMeters>NAN</DistanceMeters>
          </Trackpoint>
          <Trackpoint>
            <Time>2022-07-09T11:48:38.000Z</Time>
            <Position>
              <LatitudeDegrees>43.32453869283199310302734375</LatitudeDegrees>
              <LongitudeDegrees>-1.97185487486422061920166015625</LongitudeDegrees>
            </Position>
            <AltitudeMeters>9.3999996185302734375</AltitudeMeters>
            <DistanceMeters>NAN</DistanceMeters>
          </Trackpoint>
          <Trackpoint>
            <Time>2022-07-09T11:48:40.000Z</Time>
            <Position>
              <LatitudeDegrees>43.3245881460607051849365234375</LatitudeDegrees>
              <LongitudeDegrees>-1.97183207608759403228759765625</LongitudeDegrees>
            </Position>
            <AltitudeMeters>9.19999980926513671875</AltitudeMeters>
            <DistanceMeters>NAN</DistanceMeters>
          </Trackpoint>
          <Trackpoint>
            <Time>2022-07-09T11:48:41.000Z</Time>
            <Position>
              <LatitudeDegrees>43.32460834644734859466552734375</LatitudeDegrees>
              <LongitudeDegrees>-1.97181497700512409210205078125</LongitudeDegrees>
            </Position>
            <AltitudeMeters>9.19999980926513671875</AltitudeMeters>
            <DistanceMeters>NAN</DistanceMeters>
          </Trackpoint>
          <Trackpoint>
            <Time>2022-07-09T11:48:42.000Z</Time>
            <Position>
              <LatitudeDegrees>43.32455101422965526580810546875</LatitudeDegrees>
              <LongitudeDegrees>-1.9717848859727382659912109375</LongitudeDegrees>
            </Position>
            <AltitudeMeters>9.19999980926513671875</AltitudeMeters>
            <DistanceMeters>NAN</DistanceMeters>
          </Trackpoint>
          <Trackpoint>
            <Time>2022-07-09T11:48:44.000Z</Time>
            <Position>
              <LatitudeDegrees>43.32450860179960727691650390625</LatitudeDegrees>
              <LongitudeDegrees>-1.97175529785454273223876953125</LongitudeDegrees>
            </Position>
            <AltitudeMeters>9.19999980926513671875</AltitudeMeters>
            <DistanceMeters>NAN</DistanceMeters>
          </Trackpoint>
          <Trackpoint>
            <Time>2022-07-09T11:48:49.000Z</Time>
            <Position>
              <LatitudeDegrees>43.3244932629168033599853515625</LatitudeDegrees>
              <LongitudeDegrees>-1.97177709080278873443603515625</LongitudeDegrees>
            </Position>
            <AltitudeMeters>9.80000019073486328125</AltitudeMeters>
            <DistanceMeters>NAN</DistanceMeters>
          </Trackpoint>
          <Trackpoint>
            <Time>2022-07-09T11:48:50.000Z</Time>
            <Position>
              <LatitudeDegrees>43.3245046623051166534423828125</LatitudeDegrees>
              <LongitudeDegrees>-1.971780695021152496337890625</LongitudeDegrees>
            </Position>
            <AltitudeMeters>9.80000019073486328125</AltitudeMeters>
            <DistanceMeters>NAN</DistanceMeters>
          </Trackpoint>
          <Trackpoint>
            <Time>2022-07-09T11:48:52.000Z</Time>
            <Position>
              <LatitudeDegrees>43.32453743554651737213134765625</LatitudeDegrees>
              <LongitudeDegrees>-1.971794776618480682373046875</LongitudeDegrees>
            </Position>
            <AltitudeMeters>9.80000019073486328125</AltitudeMeters>
            <DistanceMeters>NAN</DistanceMeters>
          </Trackpoint>
          <Trackpoint>
            <Time>2022-07-09T11:48:54.000Z</Time>
            <Position>
              <LatitudeDegrees>43.3245459012687206268310546875</LatitudeDegrees>
              <LongitudeDegrees>-1.971807517111301422119140625</LongitudeDegrees>
            </Position>
            <AltitudeMeters>9.19999980926513671875</AltitudeMeters>
            <DistanceMeters>NAN</DistanceMeters>
          </Trackpoint>
          <Trackpoint>
            <Time>2022-07-09T11:48:57.000Z</Time>
            <Position>
              <LatitudeDegrees>43.32450793124735355377197265625</LatitudeDegrees>
              <LongitudeDegrees>-1.97179536335170269012451171875</LongitudeDegrees>
            </Position>
            <AltitudeMeters>9</AltitudeMeters>
            <DistanceMeters>NAN</DistanceMeters>
          </Trackpoint>
          <Trackpoint>
            <Time>2022-07-09T11:48:58.000Z</Time>
            <Position>
              <LatitudeDegrees>43.3244989626109600067138671875</LatitudeDegrees>
              <LongitudeDegrees>-1.971784047782421112060546875</LongitudeDegrees>
            </Position>
            <AltitudeMeters>9</AltitudeMeters>
            <DistanceMeters>NAN</DistanceMeters>
          </Trackpoint>
          <Trackpoint>
            <Time>2022-07-09T11:49:00.000Z</Time>
            <Position>
              <LatitudeDegrees>43.32449737004935741424560546875</LatitudeDegrees>
              <LongitudeDegrees>-1.9717654399573802947998046875</LongitudeDegrees>
            </Position>
            <AltitudeMeters>9</AltitudeMeters>
            <DistanceMeters>NAN</DistanceMeters>
          </Trackpoint>
          <Trackpoint>
            <Time>2022-07-09T11:49:03.000Z</Time>
            <Position>
              <LatitudeDegrees>43.3245184086263179779052734375</LatitudeDegrees>
              <LongitudeDegrees>-1.97176359593868255615234375</LongitudeDegrees>
            </Position>
            <AltitudeMeters>9.19999980926513671875</AltitudeMeters>
            <DistanceMeters>NAN</DistanceMeters>
          </Trackpoint>
          <Trackpoint>
            <Time>2022-07-09T11:49:07.000Z</Time>
            <Position>
              <LatitudeDegrees>43.32448580302298069000244140625</LatitudeDegrees>
              <LongitudeDegrees>-1.971746496856212615966796875</LongitudeDegrees>
            </Position>
            <AltitudeMeters>9.3999996185302734375</AltitudeMeters>
            <DistanceMeters>NAN</DistanceMeters>
          </Trackpoint>
          <Trackpoint>
            <Time>2022-07-09T11:49:09.000Z</Time>
            <Position>
              <LatitudeDegrees>43.3244714699685573577880859375</LatitudeDegrees>
              <LongitudeDegrees>-1.9717379473149776458740234375</LongitudeDegrees>
            </Position>
            <AltitudeMeters>9.19999980926513671875</AltitudeMeters>
            <DistanceMeters>NAN</DistanceMeters>
          </Trackpoint>
          <Trackpoint>
            <Time>2022-07-09T11:49:10.000Z</Time>
            <Position>
              <LatitudeDegrees>43.3244768343865871429443359375</LatitudeDegrees>
              <LongitudeDegrees>-1.9717414677143096923828125</LongitudeDegrees>
            </Position>
            <AltitudeMeters>9.19999980926513671875</AltitudeMeters>
            <DistanceMeters>NAN</DistanceMeters>
          </Trackpoint>
          <Trackpoint>
            <Time>2022-07-09T11:49:11.000Z</Time>
            <Position>
              <LatitudeDegrees>43.32448102533817291259765625</LatitudeDegrees>
              <LongitudeDegrees>-1.97173065505921840667724609375</LongitudeDegrees>
            </Position>
            <AltitudeMeters>9.19999980926513671875</AltitudeMeters>
            <DistanceMeters>NAN</DistanceMeters>
          </Trackpoint>
          <Trackpoint>
            <Time>2022-07-09T11:49:13.000Z</Time>
            <Position>
              <LatitudeDegrees>43.324444480240345001220703125</LatitudeDegrees>
              <LongitudeDegrees>-1.97168069891631603240966796875</LongitudeDegrees>
            </Position>
            <AltitudeMeters>9</AltitudeMeters>
            <DistanceMeters>NAN</DistanceMeters>
          </Trackpoint>
          <Trackpoint>
            <Time>2022-07-09T11:49:14.000Z</Time>
            <Position>
              <LatitudeDegrees>43.3243886567652225494384765625</LatitudeDegrees>
              <LongitudeDegrees>-1.97164549492299556732177734375</LongitudeDegrees>
            </Position>
            <AltitudeMeters>9</AltitudeMeters>
            <DistanceMeters>NAN</DistanceMeters>
          </Trackpoint>
          <Trackpoint>
            <Time>2022-07-09T11:49:15.000Z</Time>
            <Position>
              <LatitudeDegrees>43.32438924349844455718994140625</LatitudeDegrees>
              <LongitudeDegrees>-1.97164197452366352081298828125</LongitudeDegrees>
            </Position>
            <AltitudeMeters>9</AltitudeMeters>
            <DistanceMeters>NAN</DistanceMeters>
          </Trackpoint>
          <Trackpoint>
            <Time>2022-07-09T11:49:16.000Z</Time>
            <Position>
              <LatitudeDegrees>43.32438723184168338775634765625</LatitudeDegrees>
              <LongitudeDegrees>-1.97164214216172695159912109375</LongitudeDegrees>
            </Position>
            <AltitudeMeters>9</AltitudeMeters>
            <DistanceMeters>NAN</DistanceMeters>
          </Trackpoint>
          <Trackpoint>
            <Time>2022-07-09T11:49:47.000Z</Time>
            <Position>
              <LatitudeDegrees>43.3245717175304889678955078125</LatitudeDegrees>
              <LongitudeDegrees>-1.97185068391263484954833984375</LongitudeDegrees>
            </Position>
            <AltitudeMeters>8</AltitudeMeters>
            <DistanceMeters>NAN</DistanceMeters>
          </Trackpoint>
          <Trackpoint>
            <Time>2022-07-09T11:49:49.000Z</Time>
            <Position>
              <LatitudeDegrees>43.32464866340160369873046875</LatitudeDegrees>
              <LongitudeDegrees>-1.97186283767223358154296875</LongitudeDegrees>
            </Position>
            <AltitudeMeters>8</AltitudeMeters>
            <DistanceMeters>NAN</DistanceMeters>
          </Trackpoint>
          <Trackpoint>
            <Time>2022-07-09T11:49:53.000Z</Time>
            <Position>
              <LatitudeDegrees>43.3245955221354961395263671875</LatitudeDegrees>
              <LongitudeDegrees>-1.9718420505523681640625</LongitudeDegrees>
            </Position>
            <AltitudeMeters>8.80000019073486328125</AltitudeMeters>
            <DistanceMeters>NAN</DistanceMeters>
          </Trackpoint>
          <Trackpoint>
            <Time>2022-07-09T11:49:55.000Z</Time>
            <Position>
              <LatitudeDegrees>43.32458521239459514617919921875</LatitudeDegrees>
              <LongitudeDegrees>-1.97184699587523937225341796875</LongitudeDegrees>
            </Position>
            <AltitudeMeters>8.6000003814697265625</AltitudeMeters>
            <DistanceMeters>NAN</DistanceMeters>
          </Trackpoint>
          <Trackpoint>
            <Time>2022-07-09T11:49:57.000Z</Time>
            <Position>
              <LatitudeDegrees>43.32458504475653171539306640625</LatitudeDegrees>
              <LongitudeDegrees>-1.971851773560047149658203125</LongitudeDegrees>
            </Position>
            <AltitudeMeters>8.6000003814697265625</AltitudeMeters>
            <DistanceMeters>NAN</DistanceMeters>
          </Trackpoint>
          <Trackpoint>
            <Time>2022-07-09T11:49:58.000Z</Time>
            <Position>
              <LatitudeDegrees>43.3245700411498546600341796875</LatitudeDegrees>
              <LongitudeDegrees>-1.971852444112300872802734375</LongitudeDegrees>
            </Position>
            <AltitudeMeters>8.6000003814697265625</AltitudeMeters>
            <DistanceMeters>NAN</DistanceMeters>
          </Trackpoint>
          <Trackpoint>
            <Time>2022-07-09T11:50:00.000Z</Time>
            <Position>
              <LatitudeDegrees>43.32452419213950634002685546875</LatitudeDegrees>
              <LongitudeDegrees>-1.97182319127023220062255859375</LongitudeDegrees>
            </Position>
            <AltitudeMeters>8.6000003814697265625</AltitudeMeters>
            <DistanceMeters>NAN</DistanceMeters>
          </Trackpoint>
          <Trackpoint>
            <Time>2022-07-09T11:50:01.000Z</Time>
            <Position>
              <LatitudeDegrees>43.32453290931880474090576171875</LatitudeDegrees>
              <LongitudeDegrees>-1.9718165695667266845703125</LongitudeDegrees>
            </Position>
            <AltitudeMeters>8.3999996185302734375</AltitudeMeters>
            <DistanceMeters>NAN</DistanceMeters>
          </Trackpoint>
          <Trackpoint>
            <Time>2022-07-09T11:50:02.000Z</Time>
            <Position>
              <LatitudeDegrees>43.3245438896119594573974609375</LatitudeDegrees>
              <LongitudeDegrees>-1.97182168252766132354736328125</LongitudeDegrees>
            </Position>
            <AltitudeMeters>8.3999996185302734375</AltitudeMeters>
            <DistanceMeters>NAN</DistanceMeters>
          </Trackpoint>
          <Trackpoint>
            <Time>2022-07-09T12:03:55.000Z</Time>
            <Position>
              <LatitudeDegrees>43.32397299818694591522216796875</LatitudeDegrees>
              <LongitudeDegrees>-1.9714234583079814910888671875</LongitudeDegrees>
            </Position>
            <AltitudeMeters>11.80000019073486328125</AltitudeMeters>
            <DistanceMeters>NAN</DistanceMeters>
          </Trackpoint>
          <Trackpoint>
            <Time>2022-07-09T12:04:23.000Z</Time>
            <Position>
              <LatitudeDegrees>43.3240617625415325164794921875</LatitudeDegrees>
              <LongitudeDegrees>-1.9716564752161502838134765625</LongitudeDegrees>
            </Position>
            <AltitudeMeters>11.80000019073486328125</AltitudeMeters>
            <DistanceMeters>NAN</DistanceMeters>
          </Trackpoint>
          <Trackpoint>
            <Time>2022-07-09T12:04:25.000Z</Time>
            <Position>
              <LatitudeDegrees>43.3241512812674045562744140625</LatitudeDegrees>
              <LongitudeDegrees>-1.97171372361481189727783203125</LongitudeDegrees>
            </Position>
            <AltitudeMeters>11.80000019073486328125</AltitudeMeters>
            <DistanceMeters>NAN</DistanceMeters>
          </Trackpoint>
          <Trackpoint>
            <Time>2022-07-09T12:04:26.000Z</Time>
            <Position>
              <LatitudeDegrees>43.32415656186640262603759765625</LatitudeDegrees>
              <LongitudeDegrees>-1.97171372361481189727783203125</LongitudeDegrees>
            </Position>
            <AltitudeMeters>11.80000019073486328125</AltitudeMeters>
            <DistanceMeters>NAN</DistanceMeters>
          </Trackpoint>
          <Trackpoint>
            <Time>2022-07-09T12:04:27.000Z</Time>
            <Position>
              <LatitudeDegrees>43.32413770258426666259765625</LatitudeDegrees>
              <LongitudeDegrees>-1.9716997258365154266357421875</LongitudeDegrees>
            </Position>
            <AltitudeMeters>13</AltitudeMeters>
            <DistanceMeters>NAN</DistanceMeters>
          </Trackpoint>
          <Trackpoint>
            <Time>2022-07-09T12:04:29.000Z</Time>
            <Position>
              <LatitudeDegrees>43.3241088688373565673828125</LatitudeDegrees>
              <LongitudeDegrees>-1.97169276885688304901123046875</LongitudeDegrees>
            </Position>
            <AltitudeMeters>14</AltitudeMeters>
            <DistanceMeters>NAN</DistanceMeters>
          </Trackpoint>
          <Trackpoint>
            <Time>2022-07-09T12:04:31.000Z</Time>
            <Position>
              <LatitudeDegrees>43.3240926079452037811279296875</LatitudeDegrees>
              <LongitudeDegrees>-1.971706934273242950439453125</LongitudeDegrees>
            </Position>
            <AltitudeMeters>14.3999996185302734375</AltitudeMeters>
            <DistanceMeters>NAN</DistanceMeters>
          </Trackpoint>
          <Trackpoint>
            <Time>2022-07-09T12:04:35.000Z</Time>
            <Position>
              <LatitudeDegrees>43.32408632151782512664794921875</LatitudeDegrees>
              <LongitudeDegrees>-1.97169293649494647979736328125</LongitudeDegrees>
            </Position>
            <AltitudeMeters>14.6000003814697265625</AltitudeMeters>
            <DistanceMeters>NAN</DistanceMeters>
          </Trackpoint>
          <Trackpoint>
            <Time>2022-07-09T12:04:37.000Z</Time>
            <Position>
              <LatitudeDegrees>43.32409218885004520416259765625</LatitudeDegrees>
              <LongitudeDegrees>-1.97166862897574901580810546875</LongitudeDegrees>
            </Position>
            <AltitudeMeters>14.6000003814697265625</AltitudeMeters>
            <DistanceMeters>NAN</DistanceMeters>
          </Trackpoint>
          <Trackpoint>
            <Time>2022-07-09T12:04:39.000Z</Time>
            <Position>
              <LatitudeDegrees>43.32405279390513896942138671875</LatitudeDegrees>
              <LongitudeDegrees>-1.971580199897289276123046875</LongitudeDegrees>
            </Position>
            <AltitudeMeters>14.6000003814697265625</AltitudeMeters>
            <DistanceMeters>NAN</DistanceMeters>
          </Trackpoint>
          <Trackpoint>
            <Time>2022-07-09T12:04:40.000Z</Time>
            <Position>
              <LatitudeDegrees>43.32405195571482181549072265625</LatitudeDegrees>
              <LongitudeDegrees>-1.97160459123551845550537109375</LongitudeDegrees>
            </Position>
            <AltitudeMeters>14.80000019073486328125</AltitudeMeters>
            <DistanceMeters>NAN</DistanceMeters>
          </Trackpoint>
          <Trackpoint>
            <Time>2022-07-09T12:04:41.000Z</Time>
            <Position>
              <LatitudeDegrees>43.3240419812500476837158203125</LatitudeDegrees>
              <LongitudeDegrees>-1.9716098718345165252685546875</LongitudeDegrees>
            </Position>
            <AltitudeMeters>14.80000019073486328125</AltitudeMeters>
            <DistanceMeters>NAN</DistanceMeters>
          </Trackpoint>
          <Trackpoint>
            <Time>2022-07-09T12:04:45.000Z</Time>
            <Position>
              <LatitudeDegrees>43.324014656245708465576171875</LatitudeDegrees>
              <LongitudeDegrees>-1.9715954549610614776611328125</LongitudeDegrees>
            </Position>
            <AltitudeMeters>14.6000003814697265625</AltitudeMeters>
            <DistanceMeters>NAN</DistanceMeters>
          </Trackpoint>
          <Trackpoint>
            <Time>2022-07-09T12:04:48.000Z</Time>
            <Position>
              <LatitudeDegrees>43.324038125574588775634765625</LatitudeDegrees>
              <LongitudeDegrees>-1.9716370292007923126220703125</LongitudeDegrees>
            </Position>
            <AltitudeMeters>14.19999980926513671875</AltitudeMeters>
            <DistanceMeters>NAN</DistanceMeters>
          </Trackpoint>
          <Trackpoint>
            <Time>2022-07-09T12:04:50.000Z</Time>
            <Position>
              <LatitudeDegrees>43.32403418608009815216064453125</LatitudeDegrees>
              <LongitudeDegrees>-1.971614398062229156494140625</LongitudeDegrees>
            </Position>
            <AltitudeMeters>14.19999980926513671875</AltitudeMeters>
            <DistanceMeters>NAN</DistanceMeters>
          </Trackpoint>
          <Trackpoint>
            <Time>2022-07-09T12:04:51.000Z</Time>
            <Position>
              <LatitudeDegrees>43.32403200678527355194091796875</LatitudeDegrees>
              <LongitudeDegrees>-1.97161532007157802581787109375</LongitudeDegrees>
            </Position>
            <AltitudeMeters>14.19999980926513671875</AltitudeMeters>
            <DistanceMeters>NAN</DistanceMeters>
          </Trackpoint>
          <Trackpoint>
            <Time>2022-07-09T12:04:55.000Z</Time>
            <Position>
              <LatitudeDegrees>43.3240409754216670989990234375</LatitudeDegrees>
              <LongitudeDegrees>-1.971670053899288177490234375</LongitudeDegrees>
            </Position>
            <AltitudeMeters>14.19999980926513671875</AltitudeMeters>
            <DistanceMeters>NAN</DistanceMeters>
          </Trackpoint>
          <Trackpoint>
            <Time>2022-07-09T12:04:57.000Z</Time>
            <Position>
              <LatitudeDegrees>43.32402496598660945892333984375</LatitudeDegrees>
              <LongitudeDegrees>-1.9716886617243289947509765625</LongitudeDegrees>
            </Position>
            <AltitudeMeters>14.3999996185302734375</AltitudeMeters>
            <DistanceMeters>NAN</DistanceMeters>
          </Trackpoint>
          <Trackpoint>
            <Time>2022-07-09T12:04:58.000Z</Time>
            <Position>
              <LatitudeDegrees>43.3240198530256748199462890625</LatitudeDegrees>
              <LongitudeDegrees>-1.97169092483818531036376953125</LongitudeDegrees>
            </Position>
            <AltitudeMeters>14.3999996185302734375</AltitudeMeters>
            <DistanceMeters>NAN</DistanceMeters>
          </Trackpoint>
          <Trackpoint>
            <Time>2022-07-09T12:05:00.000Z</Time>
            <Position>
              <LatitudeDegrees>43.32401675172150135040283203125</LatitudeDegrees>
              <LongitudeDegrees>-1.97170031256973743438720703125</LongitudeDegrees>
            </Position>
            <AltitudeMeters>14.3999996185302734375</AltitudeMeters>
            <DistanceMeters>NAN</DistanceMeters>
          </Trackpoint>
          <Trackpoint>
            <Time>2022-07-09T12:05:05.000Z</Time>
            <Position>
              <LatitudeDegrees>43.32403980195522308349609375</LatitudeDegrees>
              <LongitudeDegrees>-1.97171539999544620513916015625</LongitudeDegrees>
            </Position>
            <AltitudeMeters>14.19999980926513671875</AltitudeMeters>
            <DistanceMeters>NAN</DistanceMeters>
          </Trackpoint>
          <Trackpoint>
            <Time>2022-07-09T12:05:06.000Z</Time>
            <Position>
              <LatitudeDegrees>43.32404642365872859954833984375</LatitudeDegrees>
              <LongitudeDegrees>-1.97172696702182292938232421875</LongitudeDegrees>
            </Position>
            <AltitudeMeters>14.19999980926513671875</AltitudeMeters>
            <DistanceMeters>NAN</DistanceMeters>
          </Trackpoint>
          <Trackpoint>
            <Time>2022-07-09T12:05:11.000Z</Time>
            <Position>
              <LatitudeDegrees>43.32404474727809429168701171875</LatitudeDegrees>
              <LongitudeDegrees>-1.97179787792265415191650390625</LongitudeDegrees>
            </Position>
            <AltitudeMeters>14</AltitudeMeters>
            <DistanceMeters>NAN</DistanceMeters>
          </Trackpoint>
          <Trackpoint>
            <Time>2022-07-09T12:05:15.000Z</Time>
            <Position>
              <LatitudeDegrees>43.32402312196791172027587890625</LatitudeDegrees>
              <LongitudeDegrees>-1.97178111411631107330322265625</LongitudeDegrees>
            </Position>
            <AltitudeMeters>13.80000019073486328125</AltitudeMeters>
            <DistanceMeters>NAN</DistanceMeters>
          </Trackpoint>
          <Trackpoint>
            <Time>2022-07-09T12:05:17.000Z</Time>
            <Position>
              <LatitudeDegrees>43.324029743671417236328125</LatitudeDegrees>
              <LongitudeDegrees>-1.97178832255303859710693359375</LongitudeDegrees>
            </Position>
            <AltitudeMeters>13.80000019073486328125</AltitudeMeters>
            <DistanceMeters>NAN</DistanceMeters>
          </Trackpoint>
          <Trackpoint>
            <Time>2022-07-09T12:05:19.000Z</Time>
            <Position>
              <LatitudeDegrees>43.324028737843036651611328125</LatitudeDegrees>
              <LongitudeDegrees>-1.9717879034578800201416015625</LongitudeDegrees>
            </Position>
            <AltitudeMeters>13.80000019073486328125</AltitudeMeters>
            <DistanceMeters>NAN</DistanceMeters>
          </Trackpoint>
          <Trackpoint>
            <Time>2022-07-09T12:05:24.000Z</Time>
            <Position>
              <LatitudeDegrees>43.3239977248013019561767578125</LatitudeDegrees>
              <LongitudeDegrees>-1.9717795215547084808349609375</LongitudeDegrees>
            </Position>
            <AltitudeMeters>14</AltitudeMeters>
            <DistanceMeters>NAN</DistanceMeters>
          </Trackpoint>
          <Trackpoint>
            <Time>2022-07-09T12:05:25.000Z</Time>
            <Position>
              <LatitudeDegrees>43.32399680279195308685302734375</LatitudeDegrees>
              <LongitudeDegrees>-1.97177524678409099578857421875</LongitudeDegrees>
            </Position>
            <AltitudeMeters>14</AltitudeMeters>
            <DistanceMeters>NAN</DistanceMeters>
          </Trackpoint>
          <Trackpoint>
            <Time>2022-07-09T12:05:48.000Z</Time>
            <Position>
              <LatitudeDegrees>43.3241026662290096282958984375</LatitudeDegrees>
              <LongitudeDegrees>-1.97180039249360561370849609375</LongitudeDegrees>
            </Position>
            <AltitudeMeters>13.6000003814697265625</AltitudeMeters>
            <DistanceMeters>NAN</DistanceMeters>
          </Trackpoint>
          <Trackpoint>
            <Time>2022-07-09T12:05:49.000Z</Time>
            <Position>
              <LatitudeDegrees>43.3241402171552181243896484375</LatitudeDegrees>
              <LongitudeDegrees>-1.9718244485557079315185546875</LongitudeDegrees>
            </Position>
            <AltitudeMeters>13.3999996185302734375</AltitudeMeters>
            <DistanceMeters>NAN</DistanceMeters>
          </Trackpoint>
          <Trackpoint>
            <Time>2022-07-09T12:05:51.000Z</Time>
            <Position>
              <LatitudeDegrees>43.324030078947544097900390625</LatitudeDegrees>
              <LongitudeDegrees>-1.971571482717990875244140625</LongitudeDegrees>
            </Position>
            <AltitudeMeters>13.3999996185302734375</AltitudeMeters>
            <DistanceMeters>NAN</DistanceMeters>
          </Trackpoint>
          <Trackpoint>
            <Time>2022-07-09T12:05:54.000Z</Time>
            <Position>
              <LatitudeDegrees>43.32400233484804630279541015625</LatitudeDegrees>
              <LongitudeDegrees>-1.97153368033468723297119140625</LongitudeDegrees>
            </Position>
            <AltitudeMeters>13.3999996185302734375</AltitudeMeters>
            <DistanceMeters>NAN</DistanceMeters>
          </Trackpoint>
          <Trackpoint>
            <Time>2022-07-09T12:06:23.000Z</Time>
            <Position>
              <LatitudeDegrees>43.3239398896694183349609375</LatitudeDegrees>
              <LongitudeDegrees>-1.971503086388111114501953125</LongitudeDegrees>
            </Position>
            <AltitudeMeters>13.6000003814697265625</AltitudeMeters>
            <DistanceMeters>NAN</DistanceMeters>
          </Trackpoint>
          <Trackpoint>
            <Time>2022-07-09T12:06:26.000Z</Time>
            <Position>
              <LatitudeDegrees>43.3239682205021381378173828125</LatitudeDegrees>
              <LongitudeDegrees>-1.97151473723351955413818359375</LongitudeDegrees>
            </Position>
            <AltitudeMeters>13.80000019073486328125</AltitudeMeters>
            <DistanceMeters>NAN</DistanceMeters>
          </Trackpoint>
          <Trackpoint>
            <Time>2022-07-09T12:07:14.000Z</Time>
            <Position>
              <LatitudeDegrees>43.3240352757275104522705078125</LatitudeDegrees>
              <LongitudeDegrees>-1.97157374583184719085693359375</LongitudeDegrees>
            </Position>
            <AltitudeMeters>12.3999996185302734375</AltitudeMeters>
            <DistanceMeters>NAN</DistanceMeters>
          </Trackpoint>
          <Trackpoint>
            <Time>2022-07-09T12:07:16.000Z</Time>
            <Position>
              <LatitudeDegrees>43.3240605890750885009765625</LatitudeDegrees>
              <LongitudeDegrees>-1.97161029092967510223388671875</LongitudeDegrees>
            </Position>
            <AltitudeMeters>12.6000003814697265625</AltitudeMeters>
            <DistanceMeters>NAN</DistanceMeters>
          </Trackpoint>
          <Trackpoint>
            <Time>2022-07-09T12:07:32.000Z</Time>
            <Position>
              <LatitudeDegrees>43.32412605173885822296142578125</LatitudeDegrees>
              <LongitudeDegrees>-1.9717870652675628662109375</LongitudeDegrees>
            </Position>
            <AltitudeMeters>12.6000003814697265625</AltitudeMeters>
            <DistanceMeters>NAN</DistanceMeters>
          </Trackpoint>
          <Trackpoint>
            <Time>2022-07-09T12:07:35.000Z</Time>
            <Position>
              <LatitudeDegrees>43.3240976370871067047119140625</LatitudeDegrees>
              <LongitudeDegrees>-1.971747837960720062255859375</LongitudeDegrees>
            </Position>
            <AltitudeMeters>12.6000003814697265625</AltitudeMeters>
            <DistanceMeters>NAN</DistanceMeters>
          </Trackpoint>
          <Trackpoint>
            <Time>2022-07-09T12:07:40.000Z</Time>
            <Position>
              <LatitudeDegrees>43.32403636537492275238037109375</LatitudeDegrees>
              <LongitudeDegrees>-1.9717146456241607666015625</LongitudeDegrees>
            </Position>
            <AltitudeMeters>12.6000003814697265625</AltitudeMeters>
            <DistanceMeters>NAN</DistanceMeters>
          </Trackpoint>
          <Trackpoint>
            <Time>2022-07-09T12:07:41.000Z</Time>
            <Position>
              <LatitudeDegrees>43.324043489992618560791015625</LatitudeDegrees>
              <LongitudeDegrees>-1.971723027527332305908203125</LongitudeDegrees>
            </Position>
            <AltitudeMeters>12.6000003814697265625</AltitudeMeters>
            <DistanceMeters>NAN</DistanceMeters>
          </Trackpoint>
          <Trackpoint>
            <Time>2022-07-09T12:07:42.000Z</Time>
            <Position>
              <LatitudeDegrees>43.3240257203578948974609375</LatitudeDegrees>
              <LongitudeDegrees>-1.971682794392108917236328125</LongitudeDegrees>
            </Position>
            <AltitudeMeters>12.6000003814697265625</AltitudeMeters>
            <DistanceMeters>NAN</DistanceMeters>
          </Trackpoint>
          <Trackpoint>
            <Time>2022-07-09T12:07:43.000Z</Time>
            <Position>
              <LatitudeDegrees>43.324030078947544097900390625</LatitudeDegrees>
              <LongitudeDegrees>-1.9716725684702396392822265625</LongitudeDegrees>
            </Position>
            <AltitudeMeters>12.6000003814697265625</AltitudeMeters>
            <DistanceMeters>NAN</DistanceMeters>
          </Trackpoint>
          <Trackpoint>
            <Time>2022-07-09T12:07:49.000Z</Time>
            <Position>
              <LatitudeDegrees>43.32405866123735904693603515625</LatitudeDegrees>
              <LongitudeDegrees>-1.9717171601951122283935546875</LongitudeDegrees>
            </Position>
            <AltitudeMeters>12.19999980926513671875</AltitudeMeters>
            <DistanceMeters>NAN</DistanceMeters>
          </Trackpoint>
          <Trackpoint>
            <Time>2022-07-09T12:07:53.000Z</Time>
            <Position>
              <LatitudeDegrees>43.32407961599528789520263671875</LatitudeDegrees>
              <LongitudeDegrees>-1.97167634032666683197021484375</LongitudeDegrees>
            </Position>
            <AltitudeMeters>12.3999996185302734375</AltitudeMeters>
            <DistanceMeters>NAN</DistanceMeters>
          </Trackpoint>
          <Trackpoint>
            <Time>2022-07-09T12:07:55.000Z</Time>
            <Position>
              <LatitudeDegrees>43.32408498041331768035888671875</LatitudeDegrees>
              <LongitudeDegrees>-1.9716759212315082550048828125</LongitudeDegrees>
            </Position>
            <AltitudeMeters>12.6000003814697265625</AltitudeMeters>
            <DistanceMeters>NAN</DistanceMeters>
          </Trackpoint>
          <Trackpoint>
            <Time>2022-07-09T12:07:57.000Z</Time>
            <Position>
              <LatitudeDegrees>43.3240201883018016815185546875</LatitudeDegrees>
              <LongitudeDegrees>-1.97163811884820461273193359375</LongitudeDegrees>
            </Position>
            <AltitudeMeters>12.3999996185302734375</AltitudeMeters>
            <DistanceMeters>NAN</DistanceMeters>
          </Trackpoint>
          <Trackpoint>
            <Time>2022-07-09T12:07:58.000Z</Time>
            <Position>
              <LatitudeDegrees>43.324013315141201019287109375</LatitudeDegrees>
              <LongitudeDegrees>-1.9716309942305088043212890625</LongitudeDegrees>
            </Position>
            <AltitudeMeters>12.19999980926513671875</AltitudeMeters>
            <DistanceMeters>NAN</DistanceMeters>
          </Trackpoint>
          <Trackpoint>
            <Time>2022-07-09T12:08:03.000Z</Time>
            <Position>
              <LatitudeDegrees>43.3239819668233394622802734375</LatitudeDegrees>
              <LongitudeDegrees>-1.97167734615504741668701171875</LongitudeDegrees>
            </Position>
            <AltitudeMeters>12.3999996185302734375</AltitudeMeters>
            <DistanceMeters>NAN</DistanceMeters>
          </Trackpoint>
          <Trackpoint>
            <Time>2022-07-09T12:08:04.000Z</Time>
            <Position>
              <LatitudeDegrees>43.3239774405956268310546875</LatitudeDegrees>
              <LongitudeDegrees>-1.971729062497615814208984375</LongitudeDegrees>
            </Position>
            <AltitudeMeters>12.3999996185302734375</AltitudeMeters>
            <DistanceMeters>NAN</DistanceMeters>
          </Trackpoint>
          <Trackpoint>
            <Time>2022-07-09T12:08:09.000Z</Time>
            <Position>
              <LatitudeDegrees>43.324007280170917510986328125</LatitudeDegrees>
              <LongitudeDegrees>-1.97172730229794979095458984375</LongitudeDegrees>
            </Position>
            <AltitudeMeters>12.6000003814697265625</AltitudeMeters>
            <DistanceMeters>NAN</DistanceMeters>
          </Trackpoint>
          <Trackpoint>
            <Time>2022-07-09T12:08:10.000Z</Time>
            <Position>
              <LatitudeDegrees>43.32399462349712848663330078125</LatitudeDegrees>
              <LongitudeDegrees>-1.97170115076005458831787109375</LongitudeDegrees>
            </Position>
            <AltitudeMeters>12.3999996185302734375</AltitudeMeters>
            <DistanceMeters>NAN</DistanceMeters>
          </Trackpoint>
          <Trackpoint>
            <Time>2022-07-09T12:09:09.000Z</Time>
            <Position>
              <LatitudeDegrees>43.3242012374103069305419921875</LatitudeDegrees>
              <LongitudeDegrees>-1.97218042798340320587158203125</LongitudeDegrees>
            </Position>
            <AltitudeMeters>11.19999980926513671875</AltitudeMeters>
            <DistanceMeters>NAN</DistanceMeters>
          </Trackpoint>
          <Trackpoint>
            <Time>2022-07-09T12:09:10.000Z</Time>
            <Position>
              <LatitudeDegrees>43.324213139712810516357421875</LatitudeDegrees>
              <LongitudeDegrees>-1.97220976464450359344482421875</LongitudeDegrees>
            </Position>
            <AltitudeMeters>11.19999980926513671875</AltitudeMeters>
            <DistanceMeters>NAN</DistanceMeters>
          </Trackpoint>
          <Trackpoint>
            <Time>2022-07-09T12:09:11.000Z</Time>
            <Position>
              <LatitudeDegrees>43.3242314122617244720458984375</LatitudeDegrees>
              <LongitudeDegrees>-1.97224228642880916595458984375</LongitudeDegrees>
            </Position>
            <AltitudeMeters>11</AltitudeMeters>
            <DistanceMeters>NAN</DistanceMeters>
          </Trackpoint>
          <Trackpoint>
            <Time>2022-07-09T12:09:12.000Z</Time>
            <Position>
              <LatitudeDegrees>43.32425127737224102020263671875</LatitudeDegrees>
              <LongitudeDegrees>-1.9722671806812286376953125</LongitudeDegrees>
            </Position>
            <AltitudeMeters>11</AltitudeMeters>
            <DistanceMeters>NAN</DistanceMeters>
          </Trackpoint>
          <Trackpoint>
            <Time>2022-07-09T12:09:14.000Z</Time>
            <Position>
              <LatitudeDegrees>43.324307017028331756591796875</LatitudeDegrees>
              <LongitudeDegrees>-1.97228905744850635528564453125</LongitudeDegrees>
            </Position>
            <AltitudeMeters>11</AltitudeMeters>
            <DistanceMeters>NAN</DistanceMeters>
          </Trackpoint>
          <Trackpoint>
            <Time>2022-07-09T12:09:15.000Z</Time>
            <Position>
              <LatitudeDegrees>43.3243387006223201751708984375</LatitudeDegrees>
              <LongitudeDegrees>-1.9723008759319782257080078125</LongitudeDegrees>
            </Position>
            <AltitudeMeters>11</AltitudeMeters>
            <DistanceMeters>NAN</DistanceMeters>
          </Trackpoint>
          <Trackpoint>
            <Time>2022-07-09T12:09:19.000Z</Time>
            <Position>
              <LatitudeDegrees>43.3244714699685573577880859375</LatitudeDegrees>
              <LongitudeDegrees>-1.97229978628456592559814453125</LongitudeDegrees>
            </Position>
            <AltitudeMeters>10.6000003814697265625</AltitudeMeters>
            <DistanceMeters>NAN</DistanceMeters>
          </Trackpoint>
          <Trackpoint>
            <Time>2022-07-09T12:09:22.000Z</Time>
            <Position>
              <LatitudeDegrees>43.32451530732214450836181640625</LatitudeDegrees>
              <LongitudeDegrees>-1.97230095975100994110107421875</LongitudeDegrees>
            </Position>
            <AltitudeMeters>10.6000003814697265625</AltitudeMeters>
            <DistanceMeters>NAN</DistanceMeters>
          </Trackpoint>
          <Trackpoint>
            <Time>2022-07-09T12:09:27.000Z</Time>
            <Position>
              <LatitudeDegrees>43.32446157932281494140625</LatitudeDegrees>
              <LongitudeDegrees>-1.9723407737910747528076171875</LongitudeDegrees>
            </Position>
            <AltitudeMeters>10.3999996185302734375</AltitudeMeters>
            <DistanceMeters>NAN</DistanceMeters>
          </Trackpoint>
          <Trackpoint>
            <Time>2022-07-09T12:09:29.000Z</Time>
            <Position>
              <LatitudeDegrees>43.3245096914470195770263671875</LatitudeDegrees>
              <LongitudeDegrees>-1.97230833582580089569091796875</LongitudeDegrees>
            </Position>
            <AltitudeMeters>10.3999996185302734375</AltitudeMeters>
            <DistanceMeters>NAN</DistanceMeters>
          </Trackpoint>
          <Trackpoint>
            <Time>2022-07-09T12:09:31.000Z</Time>
            <Position>
              <LatitudeDegrees>43.32455084659159183502197265625</LatitudeDegrees>
              <LongitudeDegrees>-1.972295679152011871337890625</LongitudeDegrees>
            </Position>
            <AltitudeMeters>10.19999980926513671875</AltitudeMeters>
            <DistanceMeters>NAN</DistanceMeters>
          </Trackpoint>
          <Trackpoint>
            <Time>2022-07-09T12:09:33.000Z</Time>
            <Position>
              <LatitudeDegrees>43.3246109448373317718505859375</LatitudeDegrees>
              <LongitudeDegrees>-1.9723038934171199798583984375</LongitudeDegrees>
            </Position>
            <AltitudeMeters>10.19999980926513671875</AltitudeMeters>
            <DistanceMeters>NAN</DistanceMeters>
          </Trackpoint>
          <Trackpoint>
            <Time>2022-07-09T12:09:35.000Z</Time>
            <Position>
              <LatitudeDegrees>43.32467037253081798553466796875</LatitudeDegrees>
              <LongitudeDegrees>-1.97237136773765087127685546875</LongitudeDegrees>
            </Position>
            <AltitudeMeters>10.19999980926513671875</AltitudeMeters>
            <DistanceMeters>NAN</DistanceMeters>
          </Trackpoint>
          <Trackpoint>
            <Time>2022-07-09T12:09:37.000Z</Time>
            <Position>
              <LatitudeDegrees>43.3247051574289798736572265625</LatitudeDegrees>
              <LongitudeDegrees>-1.9724551029503345489501953125</LongitudeDegrees>
            </Position>
            <AltitudeMeters>10.19999980926513671875</AltitudeMeters>
            <DistanceMeters>NAN</DistanceMeters>
          </Trackpoint>
          <Trackpoint>
            <Time>2022-07-09T12:09:39.000Z</Time>
            <Position>
              <LatitudeDegrees>43.32476207055151462554931640625</LatitudeDegrees>
              <LongitudeDegrees>-1.97247840464115142822265625</LongitudeDegrees>
            </Position>
            <AltitudeMeters>10.19999980926513671875</AltitudeMeters>
            <DistanceMeters>NAN</DistanceMeters>
          </Trackpoint>
          <Trackpoint>
            <Time>2022-07-09T12:09:43.000Z</Time>
            <Position>
              <LatitudeDegrees>43.3248446322977542877197265625</LatitudeDegrees>
              <LongitudeDegrees>-1.97256146930158138275146484375</LongitudeDegrees>
            </Position>
            <AltitudeMeters>10.19999980926513671875</AltitudeMeters>
            <DistanceMeters>NAN</DistanceMeters>
          </Trackpoint>
          <Trackpoint>
            <Time>2022-07-09T12:09:45.000Z</Time>
            <Position>
              <LatitudeDegrees>43.32491227425634860992431640625</LatitudeDegrees>
              <LongitudeDegrees>-1.9725707732141017913818359375</LongitudeDegrees>
            </Position>
            <AltitudeMeters>10.3999996185302734375</AltitudeMeters>
            <DistanceMeters>NAN</DistanceMeters>
          </Trackpoint>
          <Trackpoint>
            <Time>2022-07-09T12:09:46.000Z</Time>
            <Position>
              <LatitudeDegrees>43.3249323070049285888671875</LatitudeDegrees>
              <LongitudeDegrees>-1.97259399108588695526123046875</LongitudeDegrees>
            </Position>
            <AltitudeMeters>10.3999996185302734375</AltitudeMeters>
            <DistanceMeters>NAN</DistanceMeters>
          </Trackpoint>
          <Trackpoint>
            <Time>2022-07-09T12:09:47.000Z</Time>
            <Position>
              <LatitudeDegrees>43.32495250739157199859619140625</LatitudeDegrees>
              <LongitudeDegrees>-1.9726187177002429962158203125</LongitudeDegrees>
            </Position>
            <AltitudeMeters>10.3999996185302734375</AltitudeMeters>
            <DistanceMeters>NAN</DistanceMeters>
          </Trackpoint>
          <Trackpoint>
            <Time>2022-07-09T12:09:49.000Z</Time>
            <Position>
              <LatitudeDegrees>43.3249777369201183319091796875</LatitudeDegrees>
              <LongitudeDegrees>-1.97268283925950527191162109375</LongitudeDegrees>
            </Position>
            <AltitudeMeters>10.3999996185302734375</AltitudeMeters>
            <DistanceMeters>NAN</DistanceMeters>
          </Trackpoint>
          <Trackpoint>
            <Time>2022-07-09T12:09:52.000Z</Time>
            <Position>
              <LatitudeDegrees>43.32508712075650691986083984375</LatitudeDegrees>
              <LongitudeDegrees>-1.97267965413630008697509765625</LongitudeDegrees>
            </Position>
            <AltitudeMeters>10.19999980926513671875</AltitudeMeters>
            <DistanceMeters>NAN</DistanceMeters>
          </Trackpoint>
          <Trackpoint>
            <Time>2022-07-09T12:09:55.000Z</Time>
            <Position>
              <LatitudeDegrees>43.3252556808292865753173828125</LatitudeDegrees>
              <LongitudeDegrees>-1.97264361195266246795654296875</LongitudeDegrees>
            </Position>
            <AltitudeMeters>10.19999980926513671875</AltitudeMeters>
            <DistanceMeters>NAN</DistanceMeters>
          </Trackpoint>
          <Trackpoint>
            <Time>2022-07-09T12:09:56.000Z</Time>
            <Position>
              <LatitudeDegrees>43.325298093259334564208984375</LatitudeDegrees>
              <LongitudeDegrees>-1.9726468808948993682861328125</LongitudeDegrees>
            </Position>
            <AltitudeMeters>10.19999980926513671875</AltitudeMeters>
            <DistanceMeters>NAN</DistanceMeters>
          </Trackpoint>
          <Trackpoint>
            <Time>2022-07-09T12:09:57.000Z</Time>
            <Position>
              <LatitudeDegrees>43.32531896419823169708251953125</LatitudeDegrees>
              <LongitudeDegrees>-1.9726748764514923095703125</LongitudeDegrees>
            </Position>
            <AltitudeMeters>10.19999980926513671875</AltitudeMeters>
            <DistanceMeters>NAN</DistanceMeters>
          </Trackpoint>
          <Trackpoint>
            <Time>2022-07-09T12:09:58.000Z</Time>
            <Position>
              <LatitudeDegrees>43.32534427754580974578857421875</LatitudeDegrees>
              <LongitudeDegrees>-1.972706057131290435791015625</LongitudeDegrees>
            </Position>
            <AltitudeMeters>10.19999980926513671875</AltitudeMeters>
            <DistanceMeters>NAN</DistanceMeters>
          </Trackpoint>
          <Trackpoint>
            <Time>2022-07-09T12:10:00.000Z</Time>
            <Position>
              <LatitudeDegrees>43.32540638744831085205078125</LatitudeDegrees>
              <LongitudeDegrees>-1.9727471284568309783935546875</LongitudeDegrees>
            </Position>
            <AltitudeMeters>10.19999980926513671875</AltitudeMeters>
            <DistanceMeters>NAN</DistanceMeters>
          </Trackpoint>
          <Trackpoint>
            <Time>2022-07-09T12:10:02.000Z</Time>
            <Position>
              <LatitudeDegrees>43.32543195225298404693603515625</LatitudeDegrees>
              <LongitudeDegrees>-1.97280068881809711456298828125</LongitudeDegrees>
            </Position>
            <AltitudeMeters>10.19999980926513671875</AltitudeMeters>
            <DistanceMeters>NAN</DistanceMeters>
          </Trackpoint>
          <Trackpoint>
            <Time>2022-07-09T12:10:03.000Z</Time>
            <Position>
              <LatitudeDegrees>43.32543647848069667816162109375</LatitudeDegrees>
              <LongitudeDegrees>-1.9728250801563262939453125</LongitudeDegrees>
            </Position>
            <AltitudeMeters>10.19999980926513671875</AltitudeMeters>
            <DistanceMeters>NAN</DistanceMeters>
          </Trackpoint>
          <Trackpoint>
            <Time>2022-07-09T12:10:04.000Z</Time>
            <Position>
              <LatitudeDegrees>43.3254213072359561920166015625</LatitudeDegrees>
              <LongitudeDegrees>-1.97287796996533870697021484375</LongitudeDegrees>
            </Position>
            <AltitudeMeters>10</AltitudeMeters>
            <DistanceMeters>NAN</DistanceMeters>
          </Trackpoint>
          <Trackpoint>
            <Time>2022-07-09T12:10:06.000Z</Time>
            <Position>
              <LatitudeDegrees>43.325403369963169097900390625</LatitudeDegrees>
              <LongitudeDegrees>-1.97301224805414676666259765625</LongitudeDegrees>
            </Position>
            <AltitudeMeters>10</AltitudeMeters>
            <DistanceMeters>NAN</DistanceMeters>
          </Trackpoint>
          <Trackpoint>
            <Time>2022-07-09T12:10:08.000Z</Time>
            <Position>
              <LatitudeDegrees>43.3254338800907135009765625</LatitudeDegrees>
              <LongitudeDegrees>-1.97305105626583099365234375</LongitudeDegrees>
            </Position>
            <AltitudeMeters>10</AltitudeMeters>
            <DistanceMeters>NAN</DistanceMeters>
          </Trackpoint>
          <Trackpoint>
            <Time>2022-07-09T12:10:10.000Z</Time>
            <Position>
              <LatitudeDegrees>43.32543446682393550872802734375</LatitudeDegrees>
              <LongitudeDegrees>-1.97311366908252239227294921875</LongitudeDegrees>
            </Position>
            <AltitudeMeters>10</AltitudeMeters>
            <DistanceMeters>NAN</DistanceMeters>
          </Trackpoint>
          <Trackpoint>
            <Time>2022-07-09T12:10:14.000Z</Time>
            <Position>
              <LatitudeDegrees>43.3254794776439666748046875</LatitudeDegrees>
              <LongitudeDegrees>-1.97319463826715946197509765625</LongitudeDegrees>
            </Position>
            <AltitudeMeters>10.6000003814697265625</AltitudeMeters>
            <DistanceMeters>NAN</DistanceMeters>
          </Trackpoint>
          <Trackpoint>
            <Time>2022-07-09T12:10:15.000Z</Time>
            <Position>
              <LatitudeDegrees>43.32550160586833953857421875</LatitudeDegrees>
              <LongitudeDegrees>-1.97319723665714263916015625</LongitudeDegrees>
            </Position>
            <AltitudeMeters>10.80000019073486328125</AltitudeMeters>
            <DistanceMeters>NAN</DistanceMeters>
          </Trackpoint>
          <Trackpoint>
            <Time>2022-07-09T12:10:16.000Z</Time>
            <Position>
              <LatitudeDegrees>43.3254955708980560302734375</LatitudeDegrees>
              <LongitudeDegrees>-1.9732419960200786590576171875</LongitudeDegrees>
            </Position>
            <AltitudeMeters>10.80000019073486328125</AltitudeMeters>
            <DistanceMeters>NAN</DistanceMeters>
          </Trackpoint>
          <Trackpoint>
            <Time>2022-07-09T12:10:17.000Z</Time>
            <Position>
              <LatitudeDegrees>43.325461037456989288330078125</LatitudeDegrees>
              <LongitudeDegrees>-1.9733186066150665283203125</LongitudeDegrees>
            </Position>
            <AltitudeMeters>10.80000019073486328125</AltitudeMeters>
            <DistanceMeters>NAN</DistanceMeters>
          </Trackpoint>
          <Trackpoint>
            <Time>2022-07-09T12:10:22.000Z</Time>
            <Position>
              <LatitudeDegrees>43.32535768859088420867919921875</LatitudeDegrees>
              <LongitudeDegrees>-1.973783634603023529052734375</LongitudeDegrees>
            </Position>
            <AltitudeMeters>10.6000003814697265625</AltitudeMeters>
            <DistanceMeters>NAN</DistanceMeters>
          </Trackpoint>
          <Trackpoint>
            <Time>2022-07-09T12:10:24.000Z</Time>
            <Position>
              <LatitudeDegrees>43.32539976574480533599853515625</LatitudeDegrees>
              <LongitudeDegrees>-1.97378522716462612152099609375</LongitudeDegrees>
            </Position>
            <AltitudeMeters>10.19999980926513671875</AltitudeMeters>
            <DistanceMeters>NAN</DistanceMeters>
          </Trackpoint>
          <Trackpoint>
            <Time>2022-07-09T12:10:26.000Z</Time>
            <Position>
              <LatitudeDegrees>43.32543161697685718536376953125</LatitudeDegrees>
              <LongitudeDegrees>-1.973765529692173004150390625</LongitudeDegrees>
            </Position>
            <AltitudeMeters>9.80000019073486328125</AltitudeMeters>
            <DistanceMeters>NAN</DistanceMeters>
          </Trackpoint>
          <Trackpoint>
            <Time>2022-07-09T12:10:27.000Z</Time>
            <Position>
              <LatitudeDegrees>43.32544385455548763275146484375</LatitudeDegrees>
              <LongitudeDegrees>-1.9737613387405872344970703125</LongitudeDegrees>
            </Position>
            <AltitudeMeters>9.80000019073486328125</AltitudeMeters>
            <DistanceMeters>NAN</DistanceMeters>
          </Trackpoint>
          <Trackpoint>
            <Time>2022-07-09T12:10:28.000Z</Time>
            <Position>
              <LatitudeDegrees>43.32545642741024494171142578125</LatitudeDegrees>
              <LongitudeDegrees>-1.97375840507447719573974609375</LongitudeDegrees>
            </Position>
            <AltitudeMeters>10</AltitudeMeters>
            <DistanceMeters>NAN</DistanceMeters>
          </Trackpoint>
          <Trackpoint>
            <Time>2022-07-09T12:10:29.000Z</Time>
            <Position>
              <LatitudeDegrees>43.3254714310169219970703125</LatitudeDegrees>
              <LongitudeDegrees>-1.97375991381704807281494140625</LongitudeDegrees>
            </Position>
            <AltitudeMeters>10</AltitudeMeters>
            <DistanceMeters>NAN</DistanceMeters>
          </Trackpoint>
          <Trackpoint>
            <Time>2022-07-09T12:10:30.000Z</Time>
            <Position>
              <LatitudeDegrees>43.3254856802523136138916015625</LatitudeDegrees>
              <LongitudeDegrees>-1.97376720607280731201171875</LongitudeDegrees>
            </Position>
            <AltitudeMeters>9.80000019073486328125</AltitudeMeters>
            <DistanceMeters>NAN</DistanceMeters>
          </Trackpoint>
          <Trackpoint>
            <Time>2022-07-09T12:10:32.000Z</Time>
            <Position>
              <LatitudeDegrees>43.32551241852343082427978515625</LatitudeDegrees>
              <LongitudeDegrees>-1.97379411198198795318603515625</LongitudeDegrees>
            </Position>
            <AltitudeMeters>10</AltitudeMeters>
            <DistanceMeters>NAN</DistanceMeters>
          </Trackpoint>
          <Trackpoint>
            <Time>2022-07-09T12:10:37.000Z</Time>
            <Position>
              <LatitudeDegrees>43.32559657283127307891845703125</LatitudeDegrees>
              <LongitudeDegrees>-1.97389989160001277923583984375</LongitudeDegrees>
            </Position>
            <AltitudeMeters>10.80000019073486328125</AltitudeMeters>
            <DistanceMeters>NAN</DistanceMeters>
          </Trackpoint>
          <Trackpoint>
            <Time>2022-07-09T12:10:41.000Z</Time>
            <Position>
              <LatitudeDegrees>43.32566781900823116302490234375</LatitudeDegrees>
              <LongitudeDegrees>-1.97398739866912364959716796875</LongitudeDegrees>
            </Position>
            <AltitudeMeters>10.6000003814697265625</AltitudeMeters>
            <DistanceMeters>NAN</DistanceMeters>
          </Trackpoint>
          <Trackpoint>
            <Time>2022-07-09T12:10:43.000Z</Time>
            <Position>
              <LatitudeDegrees>43.32570587284862995147705078125</LatitudeDegrees>
              <LongitudeDegrees>-1.973995864391326904296875</LongitudeDegrees>
            </Position>
            <AltitudeMeters>10.3999996185302734375</AltitudeMeters>
            <DistanceMeters>NAN</DistanceMeters>
          </Trackpoint>
          <Trackpoint>
            <Time>2022-07-09T12:10:49.000Z</Time>
            <Position>
              <LatitudeDegrees>43.32587149925529956817626953125</LatitudeDegrees>
              <LongitudeDegrees>-1.97397951968014240264892578125</LongitudeDegrees>
            </Position>
            <AltitudeMeters>10</AltitudeMeters>
            <DistanceMeters>NAN</DistanceMeters>
          </Trackpoint>
          <Trackpoint>
            <Time>2022-07-09T12:10:54.000Z</Time>
            <Position>
              <LatitudeDegrees>43.32595297135412693023681640625</LatitudeDegrees>
              <LongitudeDegrees>-1.97386913001537322998046875</LongitudeDegrees>
            </Position>
            <AltitudeMeters>10.19999980926513671875</AltitudeMeters>
            <DistanceMeters>NAN</DistanceMeters>
          </Trackpoint>
          <Trackpoint>
            <Time>2022-07-09T12:10:59.000Z</Time>
            <Position>
              <LatitudeDegrees>43.3260264806449413299560546875</LatitudeDegrees>
              <LongitudeDegrees>-1.9737182557582855224609375</LongitudeDegrees>
            </Position>
            <AltitudeMeters>10.3999996185302734375</AltitudeMeters>
            <DistanceMeters>NAN</DistanceMeters>
          </Trackpoint>
          <Trackpoint>
            <Time>2022-07-09T12:11:05.000Z</Time>
            <Position>
              <LatitudeDegrees>43.3260534703731536865234375</LatitudeDegrees>
              <LongitudeDegrees>-1.97353645227849483489990234375</LongitudeDegrees>
            </Position>
            <AltitudeMeters>10.6000003814697265625</AltitudeMeters>
            <DistanceMeters>NAN</DistanceMeters>
          </Trackpoint>
          <Trackpoint>
            <Time>2022-07-09T12:11:06.000Z</Time>
            <Position>
              <LatitudeDegrees>43.326056487858295440673828125</LatitudeDegrees>
              <LongitudeDegrees>-1.9735175929963588714599609375</LongitudeDegrees>
            </Position>
            <AltitudeMeters>10.6000003814697265625</AltitudeMeters>
            <DistanceMeters>NAN</DistanceMeters>
          </Trackpoint>
          <Trackpoint>
            <Time>2022-07-09T12:11:10.000Z</Time>
            <Position>
              <LatitudeDegrees>43.32606084644794464111328125</LatitudeDegrees>
              <LongitudeDegrees>-1.97349018417298793792724609375</LongitudeDegrees>
            </Position>
            <AltitudeMeters>10.19999980926513671875</AltitudeMeters>
            <DistanceMeters>NAN</DistanceMeters>
          </Trackpoint>
          <Trackpoint>
            <Time>2022-07-09T12:11:11.000Z</Time>
            <Position>
              <LatitudeDegrees>43.32605808041989803314208984375</LatitudeDegrees>
              <LongitudeDegrees>-1.973487921059131622314453125</LongitudeDegrees>
            </Position>
            <AltitudeMeters>10.19999980926513671875</AltitudeMeters>
            <DistanceMeters>NAN</DistanceMeters>
          </Trackpoint>
          <Trackpoint>
            <Time>2022-07-09T12:20:59.000Z</Time>
            <Position>
              <LatitudeDegrees>43.326088003814220428466796875</LatitudeDegrees>
              <LongitudeDegrees>-1.9734498672187328338623046875</LongitudeDegrees>
            </Position>
            <AltitudeMeters>10.3999996185302734375</AltitudeMeters>
            <DistanceMeters>NAN</DistanceMeters>
          </Trackpoint>
          <Trackpoint>
            <Time>2022-07-09T12:21:00.000Z</Time>
            <Position>
              <LatitudeDegrees>43.32609479315578937530517578125</LatitudeDegrees>
              <LongitudeDegrees>-1.97342790663242340087890625</LongitudeDegrees>
            </Position>
            <AltitudeMeters>10.3999996185302734375</AltitudeMeters>
            <DistanceMeters>NAN</DistanceMeters>
          </Trackpoint>
          <Trackpoint>
            <Time>2022-07-09T12:21:01.000Z</Time>
            <Position>
              <LatitudeDegrees>43.3260995708405971527099609375</LatitudeDegrees>
              <LongitudeDegrees>-1.973404772579669952392578125</LongitudeDegrees>
            </Position>
            <AltitudeMeters>10.3999996185302734375</AltitudeMeters>
            <DistanceMeters>NAN</DistanceMeters>
          </Trackpoint>
          <Trackpoint>
            <Time>2022-07-09T12:21:03.000Z</Time>
            <Position>
              <LatitudeDegrees>43.32611809484660625457763671875</LatitudeDegrees>
              <LongitudeDegrees>-1.97337367571890354156494140625</LongitudeDegrees>
            </Position>
            <AltitudeMeters>11.19999980926513671875</AltitudeMeters>
            <DistanceMeters>NAN</DistanceMeters>
          </Trackpoint>
          <Trackpoint>
            <Time>2022-07-09T12:21:08.000Z</Time>
            <Position>
              <LatitudeDegrees>43.32613787613809108734130859375</LatitudeDegrees>
              <LongitudeDegrees>-1.97331349365413188934326171875</LongitudeDegrees>
            </Position>
            <AltitudeMeters>12.19999980926513671875</AltitudeMeters>
            <DistanceMeters>NAN</DistanceMeters>
          </Trackpoint>
          <Trackpoint>
            <Time>2022-07-09T12:21:09.000Z</Time>
            <Position>
              <LatitudeDegrees>43.32613460719585418701171875</LatitudeDegrees>
              <LongitudeDegrees>-1.97332589887082576751708984375</LongitudeDegrees>
            </Position>
            <AltitudeMeters>12.19999980926513671875</AltitudeMeters>
            <DistanceMeters>NAN</DistanceMeters>
          </Trackpoint>
          <Trackpoint>
            <Time>2022-07-09T12:21:12.000Z</Time>
            <Position>
              <LatitudeDegrees>43.32610971294343471527099609375</LatitudeDegrees>
              <LongitudeDegrees>-1.973384656012058258056640625</LongitudeDegrees>
            </Position>
            <AltitudeMeters>12.3999996185302734375</AltitudeMeters>
            <DistanceMeters>NAN</DistanceMeters>
          </Trackpoint>
          <Trackpoint>
            <Time>2022-07-09T12:21:16.000Z</Time>
            <Position>
              <LatitudeDegrees>43.3260881714522838592529296875</LatitudeDegrees>
              <LongitudeDegrees>-1.9734371267259120941162109375</LongitudeDegrees>
            </Position>
            <AltitudeMeters>12.3999996185302734375</AltitudeMeters>
            <DistanceMeters>NAN</DistanceMeters>
          </Trackpoint>
          <Trackpoint>
            <Time>2022-07-09T12:21:19.000Z</Time>
            <Position>
              <LatitudeDegrees>43.32606797106564044952392578125</LatitudeDegrees>
              <LongitudeDegrees>-1.97344743646681308746337890625</LongitudeDegrees>
            </Position>
            <AltitudeMeters>12</AltitudeMeters>
            <DistanceMeters>NAN</DistanceMeters>
          </Trackpoint>
          <Trackpoint>
            <Time>2022-07-09T12:21:20.000Z</Time>
            <Position>
              <LatitudeDegrees>43.3260693959891796112060546875</LatitudeDegrees>
              <LongitudeDegrees>-1.9734446704387664794921875</LongitudeDegrees>
            </Position>
            <AltitudeMeters>12</AltitudeMeters>
            <DistanceMeters>NAN</DistanceMeters>
          </Trackpoint>
          <Trackpoint>
            <Time>2022-07-09T12:23:12.000Z</Time>
            <Position>
              <LatitudeDegrees>43.32602455280721187591552734375</LatitudeDegrees>
              <LongitudeDegrees>-1.9736141525208950042724609375</LongitudeDegrees>
            </Position>
            <AltitudeMeters>12.6000003814697265625</AltitudeMeters>
            <DistanceMeters>NAN</DistanceMeters>
          </Trackpoint>
          <Trackpoint>
            <Time>2022-07-09T12:23:13.000Z</Time>
            <Position>
              <LatitudeDegrees>43.32601432688534259796142578125</LatitudeDegrees>
              <LongitudeDegrees>-1.9736426509916782379150390625</LongitudeDegrees>
            </Position>
            <AltitudeMeters>12.6000003814697265625</AltitudeMeters>
            <DistanceMeters>NAN</DistanceMeters>
          </Trackpoint>
          <Trackpoint>
            <Time>2022-07-09T12:23:14.000Z</Time>
            <Position>
              <LatitudeDegrees>43.3260060288012027740478515625</LatitudeDegrees>
              <LongitudeDegrees>-1.9736681319773197174072265625</LongitudeDegrees>
            </Position>
            <AltitudeMeters>12.6000003814697265625</AltitudeMeters>
            <DistanceMeters>NAN</DistanceMeters>
          </Trackpoint>
          <Trackpoint>
            <Time>2022-07-09T12:23:21.000Z</Time>
            <Position>
              <LatitudeDegrees>43.32594710402190685272216796875</LatitudeDegrees>
              <LongitudeDegrees>-1.973862089216709136962890625</LongitudeDegrees>
            </Position>
            <AltitudeMeters>12.3999996185302734375</AltitudeMeters>
            <DistanceMeters>NAN</DistanceMeters>
          </Trackpoint>
          <Trackpoint>
            <Time>2022-07-09T12:23:26.000Z</Time>
            <Position>
              <LatitudeDegrees>43.32586261443793773651123046875</LatitudeDegrees>
              <LongitudeDegrees>-1.9740570522844791412353515625</LongitudeDegrees>
            </Position>
            <AltitudeMeters>12.19999980926513671875</AltitudeMeters>
            <DistanceMeters>NAN</DistanceMeters>
          </Trackpoint>
          <Trackpoint>
            <Time>2022-07-09T12:23:33.000Z</Time>
            <Position>
              <LatitudeDegrees>43.3257669769227504730224609375</LatitudeDegrees>
              <LongitudeDegrees>-1.974291242659091949462890625</LongitudeDegrees>
            </Position>
            <AltitudeMeters>11.19999980926513671875</AltitudeMeters>
            <DistanceMeters>NAN</DistanceMeters>
          </Trackpoint>
          <Trackpoint>
            <Time>2022-07-09T12:23:41.000Z</Time>
            <Position>
              <LatitudeDegrees>43.3256291784346103668212890625</LatitudeDegrees>
              <LongitudeDegrees>-1.97458519600331783294677734375</LongitudeDegrees>
            </Position>
            <AltitudeMeters>12</AltitudeMeters>
            <DistanceMeters>NAN</DistanceMeters>
          </Trackpoint>
          <Trackpoint>
            <Time>2022-07-09T12:23:43.000Z</Time>
            <Position>
              <LatitudeDegrees>43.325607217848300933837890625</LatitudeDegrees>
              <LongitudeDegrees>-1.9746516644954681396484375</LongitudeDegrees>
            </Position>
            <AltitudeMeters>11.80000019073486328125</AltitudeMeters>
            <DistanceMeters>NAN</DistanceMeters>
          </Trackpoint>
          <Trackpoint>
            <Time>2022-07-09T12:23:46.000Z</Time>
            <Position>
              <LatitudeDegrees>43.32557737827301025390625</LatitudeDegrees>
              <LongitudeDegrees>-1.9747410155832767486572265625</LongitudeDegrees>
            </Position>
            <AltitudeMeters>11.3999996185302734375</AltitudeMeters>
            <DistanceMeters>NAN</DistanceMeters>
          </Trackpoint>
          <Trackpoint>
            <Time>2022-07-09T12:23:47.000Z</Time>
            <Position>
              <LatitudeDegrees>43.325563967227935791015625</LatitudeDegrees>
              <LongitudeDegrees>-1.97477496229112148284912109375</LongitudeDegrees>
            </Position>
            <AltitudeMeters>11.19999980926513671875</AltitudeMeters>
            <DistanceMeters>NAN</DistanceMeters>
          </Trackpoint>
          <Trackpoint>
            <Time>2022-07-09T12:23:55.000Z</Time>
            <Position>
              <LatitudeDegrees>43.32544385455548763275146484375</LatitudeDegrees>
              <LongitudeDegrees>-1.97509263642132282257080078125</LongitudeDegrees>
            </Position>
            <AltitudeMeters>11</AltitudeMeters>
            <DistanceMeters>NAN</DistanceMeters>
          </Trackpoint>
          <Trackpoint>
            <Time>2022-07-09T12:24:04.000Z</Time>
            <Position>
              <LatitudeDegrees>43.325293064117431640625</LatitudeDegrees>
              <LongitudeDegrees>-1.97549010626971721649169921875</LongitudeDegrees>
            </Position>
            <AltitudeMeters>11.3999996185302734375</AltitudeMeters>
            <DistanceMeters>NAN</DistanceMeters>
          </Trackpoint>
          <Trackpoint>
            <Time>2022-07-09T12:24:12.000Z</Time>
            <Position>
              <LatitudeDegrees>43.32516054622828960418701171875</LatitudeDegrees>
              <LongitudeDegrees>-1.9758326746523380279541015625</LongitudeDegrees>
            </Position>
            <AltitudeMeters>10.80000019073486328125</AltitudeMeters>
            <DistanceMeters>NAN</DistanceMeters>
          </Trackpoint>
          <Trackpoint>
            <Time>2022-07-09T12:24:13.000Z</Time>
            <Position>
              <LatitudeDegrees>43.32514579407870769500732421875</LatitudeDegrees>
              <LongitudeDegrees>-1.97587274014949798583984375</LongitudeDegrees>
            </Position>
            <AltitudeMeters>10.80000019073486328125</AltitudeMeters>
            <DistanceMeters>NAN</DistanceMeters>
          </Trackpoint>
          <Trackpoint>
            <Time>2022-07-09T12:24:19.000Z</Time>
            <Position>
              <LatitudeDegrees>43.3250528387725353240966796875</LatitudeDegrees>
              <LongitudeDegrees>-1.9760866463184356689453125</LongitudeDegrees>
            </Position>
            <AltitudeMeters>10.19999980926513671875</AltitudeMeters>
            <DistanceMeters>NAN</DistanceMeters>
          </Trackpoint>
          <Trackpoint>
            <Time>2022-07-09T12:24:20.000Z</Time>
            <Position>
              <LatitudeDegrees>43.3250327222049236297607421875</LatitudeDegrees>
              <LongitudeDegrees>-1.9760946929454803466796875</LongitudeDegrees>
            </Position>
            <AltitudeMeters>10</AltitudeMeters>
            <DistanceMeters>NAN</DistanceMeters>
          </Trackpoint>
          <Trackpoint>
            <Time>2022-07-09T12:24:23.000Z</Time>
            <Position>
              <LatitudeDegrees>43.32494529895484447479248046875</LatitudeDegrees>
              <LongitudeDegrees>-1.97610567323863506317138671875</LongitudeDegrees>
            </Position>
            <AltitudeMeters>10</AltitudeMeters>
            <DistanceMeters>NAN</DistanceMeters>
          </Trackpoint>
          <Trackpoint>
            <Time>2022-07-09T12:24:27.000Z</Time>
            <Position>
              <LatitudeDegrees>43.3248707838356494903564453125</LatitudeDegrees>
              <LongitudeDegrees>-1.976211369037628173828125</LongitudeDegrees>
            </Position>
            <AltitudeMeters>10</AltitudeMeters>
            <DistanceMeters>NAN</DistanceMeters>
          </Trackpoint>
          <Trackpoint>
            <Time>2022-07-09T12:24:32.000Z</Time>
            <Position>
              <LatitudeDegrees>43.32480682991445064544677734375</LatitudeDegrees>
              <LongitudeDegrees>-1.97639442980289459228515625</LongitudeDegrees>
            </Position>
            <AltitudeMeters>9.80000019073486328125</AltitudeMeters>
            <DistanceMeters>NAN</DistanceMeters>
          </Trackpoint>
          <Trackpoint>
            <Time>2022-07-09T12:24:38.000Z</Time>
            <Position>
              <LatitudeDegrees>43.32473675720393657684326171875</LatitudeDegrees>
              <LongitudeDegrees>-1.97657883167266845703125</LongitudeDegrees>
            </Position>
            <AltitudeMeters>9.19999980926513671875</AltitudeMeters>
            <DistanceMeters>NAN</DistanceMeters>
          </Trackpoint>
          <Trackpoint>
            <Time>2022-07-09T12:24:44.000Z</Time>
            <Position>
              <LatitudeDegrees>43.324660398066043853759765625</LatitudeDegrees>
              <LongitudeDegrees>-1.97675493545830249786376953125</LongitudeDegrees>
            </Position>
            <AltitudeMeters>9.19999980926513671875</AltitudeMeters>
            <DistanceMeters>NAN</DistanceMeters>
          </Trackpoint>
          <Trackpoint>
            <Time>2022-07-09T12:24:50.000Z</Time>
            <Position>
              <LatitudeDegrees>43.32460080273449420928955078125</LatitudeDegrees>
              <LongitudeDegrees>-1.9770587794482707977294921875</LongitudeDegrees>
            </Position>
            <AltitudeMeters>9.6000003814697265625</AltitudeMeters>
            <DistanceMeters>NAN</DistanceMeters>
          </Trackpoint>
          <Trackpoint>
            <Time>2022-07-09T12:24:56.000Z</Time>
            <Position>
              <LatitudeDegrees>43.32456844858825206756591796875</LatitudeDegrees>
              <LongitudeDegrees>-1.97730327956378459930419921875</LongitudeDegrees>
            </Position>
            <AltitudeMeters>9.3999996185302734375</AltitudeMeters>
            <DistanceMeters>NAN</DistanceMeters>
          </Trackpoint>
          <Trackpoint>
            <Time>2022-07-09T12:24:57.000Z</Time>
            <Position>
              <LatitudeDegrees>43.32456006668508052825927734375</LatitudeDegrees>
              <LongitudeDegrees>-1.97734837420284748077392578125</LongitudeDegrees>
            </Position>
            <AltitudeMeters>9</AltitudeMeters>
            <DistanceMeters>NAN</DistanceMeters>
          </Trackpoint>
          <Trackpoint>
            <Time>2022-07-09T12:25:03.000Z</Time>
            <Position>
              <LatitudeDegrees>43.3244818635284900665283203125</LatitudeDegrees>
              <LongitudeDegrees>-1.97761458344757556915283203125</LongitudeDegrees>
            </Position>
            <AltitudeMeters>9.19999980926513671875</AltitudeMeters>
            <DistanceMeters>NAN</DistanceMeters>
          </Trackpoint>
          <Trackpoint>
            <Time>2022-07-09T12:25:12.000Z</Time>
            <Position>
              <LatitudeDegrees>43.3243028260767459869384765625</LatitudeDegrees>
              <LongitudeDegrees>-1.97810928337275981903076171875</LongitudeDegrees>
            </Position>
            <AltitudeMeters>9.3999996185302734375</AltitudeMeters>
            <DistanceMeters>NAN</DistanceMeters>
          </Trackpoint>
          <Trackpoint>
            <Time>2022-07-09T12:25:18.000Z</Time>
            <Position>
              <LatitudeDegrees>43.3241586573421955108642578125</LatitudeDegrees>
              <LongitudeDegrees>-1.97842343710362911224365234375</LongitudeDegrees>
            </Position>
            <AltitudeMeters>9.6000003814697265625</AltitudeMeters>
            <DistanceMeters>NAN</DistanceMeters>
          </Trackpoint>
          <Trackpoint>
            <Time>2022-07-09T12:25:22.000Z</Time>
            <Position>
              <LatitudeDegrees>43.324075005948543548583984375</LatitudeDegrees>
              <LongitudeDegrees>-1.978634409606456756591796875</LongitudeDegrees>
            </Position>
            <AltitudeMeters>9.3999996185302734375</AltitudeMeters>
            <DistanceMeters>NAN</DistanceMeters>
          </Trackpoint>
          <Trackpoint>
            <Time>2022-07-09T12:25:26.000Z</Time>
            <Position>
              <LatitudeDegrees>43.323988504707813262939453125</LatitudeDegrees>
              <LongitudeDegrees>-1.97885334491729736328125</LongitudeDegrees>
            </Position>
            <AltitudeMeters>9.3999996185302734375</AltitudeMeters>
            <DistanceMeters>NAN</DistanceMeters>
          </Trackpoint>
          <Trackpoint>
            <Time>2022-07-09T12:25:32.000Z</Time>
            <Position>
              <LatitudeDegrees>43.32387752830982208251953125</LatitudeDegrees>
              <LongitudeDegrees>-1.97912030853331089019775390625</LongitudeDegrees>
            </Position>
            <AltitudeMeters>9.80000019073486328125</AltitudeMeters>
            <DistanceMeters>NAN</DistanceMeters>
          </Trackpoint>
          <Trackpoint>
            <Time>2022-07-09T12:25:37.000Z</Time>
            <Position>
              <LatitudeDegrees>43.32383595407009124755859375</LatitudeDegrees>
              <LongitudeDegrees>-1.979335807263851165771484375</LongitudeDegrees>
            </Position>
            <AltitudeMeters>9.80000019073486328125</AltitudeMeters>
            <DistanceMeters>NAN</DistanceMeters>
          </Trackpoint>
          <Trackpoint>
            <Time>2022-07-09T12:25:38.000Z</Time>
            <Position>
              <LatitudeDegrees>43.3238277398049831390380859375</LatitudeDegrees>
              <LongitudeDegrees>-1.9793778844177722930908203125</LongitudeDegrees>
            </Position>
            <AltitudeMeters>9.80000019073486328125</AltitudeMeters>
            <DistanceMeters>NAN</DistanceMeters>
          </Trackpoint>
          <Trackpoint>
            <Time>2022-07-09T12:25:40.000Z</Time>
            <Position>
              <LatitudeDegrees>43.32379865460097789764404296875</LatitudeDegrees>
              <LongitudeDegrees>-1.97943412698805332183837890625</LongitudeDegrees>
            </Position>
            <AltitudeMeters>9.80000019073486328125</AltitudeMeters>
            <DistanceMeters>NAN</DistanceMeters>
          </Trackpoint>
          <Trackpoint>
            <Time>2022-07-09T12:25:42.000Z</Time>
            <Position>
              <LatitudeDegrees>43.323800079524517059326171875</LatitudeDegrees>
              <LongitudeDegrees>-1.97942188940942287445068359375</LongitudeDegrees>
            </Position>
            <AltitudeMeters>9.80000019073486328125</AltitudeMeters>
            <DistanceMeters>NAN</DistanceMeters>
          </Trackpoint>
          <Trackpoint>
            <Time>2022-07-09T12:25:48.000Z</Time>
            <Position>
              <LatitudeDegrees>43.32377484999597072601318359375</LatitudeDegrees>
              <LongitudeDegrees>-1.9794809818267822265625</LongitudeDegrees>
            </Position>
            <AltitudeMeters>9.6000003814697265625</AltitudeMeters>
            <DistanceMeters>NAN</DistanceMeters>
          </Trackpoint>
          <Trackpoint>
            <Time>2022-07-09T12:25:53.000Z</Time>
            <Position>
              <LatitudeDegrees>43.32368298433721065521240234375</LatitudeDegrees>
              <LongitudeDegrees>-1.9796834886074066162109375</LongitudeDegrees>
            </Position>
            <AltitudeMeters>9.80000019073486328125</AltitudeMeters>
            <DistanceMeters>NAN</DistanceMeters>
          </Trackpoint>
          <Trackpoint>
            <Time>2022-07-09T12:25:56.000Z</Time>
            <Position>
              <LatitudeDegrees>43.32362632267177104949951171875</LatitudeDegrees>
              <LongitudeDegrees>-1.97982472367584705352783203125</LongitudeDegrees>
            </Position>
            <AltitudeMeters>9.80000019073486328125</AltitudeMeters>
            <DistanceMeters>NAN</DistanceMeters>
          </Trackpoint>
          <Trackpoint>
            <Time>2022-07-09T12:26:00.000Z</Time>
            <Position>
              <LatitudeDegrees>43.3235454373061656951904296875</LatitudeDegrees>
              <LongitudeDegrees>-1.980019100010395050048828125</LongitudeDegrees>
            </Position>
            <AltitudeMeters>9.80000019073486328125</AltitudeMeters>
            <DistanceMeters>NAN</DistanceMeters>
          </Trackpoint>
          <Trackpoint>
            <Time>2022-07-09T12:26:01.000Z</Time>
            <Position>
              <LatitudeDegrees>43.32352439872920513153076171875</LatitudeDegrees>
              <LongitudeDegrees>-1.980064027011394500732421875</LongitudeDegrees>
            </Position>
            <AltitudeMeters>9.80000019073486328125</AltitudeMeters>
            <DistanceMeters>NAN</DistanceMeters>
          </Trackpoint>
          <Trackpoint>
            <Time>2022-07-09T12:26:11.000Z</Time>
            <Position>
              <LatitudeDegrees>43.32336078397929668426513671875</LatitudeDegrees>
              <LongitudeDegrees>-1.9805084355175495147705078125</LongitudeDegrees>
            </Position>
            <AltitudeMeters>9.3999996185302734375</AltitudeMeters>
            <DistanceMeters>NAN</DistanceMeters>
          </Trackpoint>
          <Trackpoint>
            <Time>2022-07-09T12:26:18.000Z</Time>
            <Position>
              <LatitudeDegrees>43.32327914424240589141845703125</LatitudeDegrees>
              <LongitudeDegrees>-1.98076374828815460205078125</LongitudeDegrees>
            </Position>
            <AltitudeMeters>9.3999996185302734375</AltitudeMeters>
            <DistanceMeters>NAN</DistanceMeters>
          </Trackpoint>
          <Trackpoint>
            <Time>2022-07-09T12:26:26.000Z</Time>
            <Position>
              <LatitudeDegrees>43.3231887035071849822998046875</LatitudeDegrees>
              <LongitudeDegrees>-1.98104479350149631500244140625</LongitudeDegrees>
            </Position>
            <AltitudeMeters>8.80000019073486328125</AltitudeMeters>
            <DistanceMeters>NAN</DistanceMeters>
          </Trackpoint>
          <Trackpoint>
            <Time>2022-07-09T12:26:34.000Z</Time>
            <Position>
              <LatitudeDegrees>43.3230911381542682647705078125</LatitudeDegrees>
              <LongitudeDegrees>-1.98138359002768993377685546875</LongitudeDegrees>
            </Position>
            <AltitudeMeters>8.3999996185302734375</AltitudeMeters>
            <DistanceMeters>NAN</DistanceMeters>
          </Trackpoint>
          <Trackpoint>
            <Time>2022-07-09T12:26:40.000Z</Time>
            <Position>
              <LatitudeDegrees>43.3230187185108661651611328125</LatitudeDegrees>
              <LongitudeDegrees>-1.9816212169826030731201171875</LongitudeDegrees>
            </Position>
            <AltitudeMeters>8.19999980926513671875</AltitudeMeters>
            <DistanceMeters>NAN</DistanceMeters>
          </Trackpoint>
          <Trackpoint>
            <Time>2022-07-09T12:26:43.000Z</Time>
            <Position>
              <LatitudeDegrees>43.32299013622105121612548828125</LatitudeDegrees>
              <LongitudeDegrees>-1.98174367658793926239013671875</LongitudeDegrees>
            </Position>
            <AltitudeMeters>8</AltitudeMeters>
            <DistanceMeters>NAN</DistanceMeters>
          </Trackpoint>
          <Trackpoint>
            <Time>2022-07-09T12:26:48.000Z</Time>
            <Position>
              <LatitudeDegrees>43.3229405991733074188232421875</LatitudeDegrees>
              <LongitudeDegrees>-1.98198013007640838623046875</LongitudeDegrees>
            </Position>
            <AltitudeMeters>7.400000095367431640625</AltitudeMeters>
            <DistanceMeters>NAN</DistanceMeters>
          </Trackpoint>
          <Trackpoint>
            <Time>2022-07-09T12:26:54.000Z</Time>
            <Position>
              <LatitudeDegrees>43.3228675089776515960693359375</LatitudeDegrees>
              <LongitudeDegrees>-1.98219998739659786224365234375</LongitudeDegrees>
            </Position>
            <AltitudeMeters>7</AltitudeMeters>
            <DistanceMeters>NAN</DistanceMeters>
          </Trackpoint>
          <Trackpoint>
            <Time>2022-07-09T12:26:55.000Z</Time>
            <Position>
              <LatitudeDegrees>43.32285401411354541778564453125</LatitudeDegrees>
              <LongitudeDegrees>-1.98223225772380828857421875</LongitudeDegrees>
            </Position>
            <AltitudeMeters>7</AltitudeMeters>
            <DistanceMeters>NAN</DistanceMeters>
          </Trackpoint>
          <Trackpoint>
            <Time>2022-07-09T12:27:01.000Z</Time>
            <Position>
              <LatitudeDegrees>43.3227810077369213104248046875</LatitudeDegrees>
              <LongitudeDegrees>-1.9824755005538463592529296875</LongitudeDegrees>
            </Position>
            <AltitudeMeters>7</AltitudeMeters>
            <DistanceMeters>NAN</DistanceMeters>
          </Trackpoint>
          <Trackpoint>
            <Time>2022-07-09T12:27:05.000Z</Time>
            <Position>
              <LatitudeDegrees>43.32273088395595550537109375</LatitudeDegrees>
              <LongitudeDegrees>-1.98262092657387256622314453125</LongitudeDegrees>
            </Position>
            <AltitudeMeters>7.19999980926513671875</AltitudeMeters>
            <DistanceMeters>NAN</DistanceMeters>
          </Trackpoint>
          <Trackpoint>
            <Time>2022-07-09T12:27:08.000Z</Time>
            <Position>
              <LatitudeDegrees>43.32273348234593868255615234375</LatitudeDegrees>
              <LongitudeDegrees>-1.98273626156151294708251953125</LongitudeDegrees>
            </Position>
            <AltitudeMeters>6.80000019073486328125</AltitudeMeters>
            <DistanceMeters>NAN</DistanceMeters>
          </Trackpoint>
          <Trackpoint>
            <Time>2022-07-09T12:27:12.000Z</Time>
            <Position>
              <LatitudeDegrees>43.32271881401538848876953125</LatitudeDegrees>
              <LongitudeDegrees>-1.98288177140057086944580078125</LongitudeDegrees>
            </Position>
            <AltitudeMeters>6.400000095367431640625</AltitudeMeters>
            <DistanceMeters>NAN</DistanceMeters>
          </Trackpoint>
          <Trackpoint>
            <Time>2022-07-09T12:27:14.000Z</Time>
            <Position>
              <LatitudeDegrees>43.3226921595633029937744140625</LatitudeDegrees>
              <LongitudeDegrees>-1.9829525984823703765869140625</LongitudeDegrees>
            </Position>
            <AltitudeMeters>6.19999980926513671875</AltitudeMeters>
            <DistanceMeters>NAN</DistanceMeters>
          </Trackpoint>
          <Trackpoint>
            <Time>2022-07-09T12:27:21.000Z</Time>
            <Position>
              <LatitudeDegrees>43.32263038493692874908447265625</LatitudeDegrees>
              <LongitudeDegrees>-1.983174718916416168212890625</LongitudeDegrees>
            </Position>
            <AltitudeMeters>6</AltitudeMeters>
            <DistanceMeters>NAN</DistanceMeters>
          </Trackpoint>
          <Trackpoint>
            <Time>2022-07-09T12:27:22.000Z</Time>
            <Position>
              <LatitudeDegrees>43.32261647097766399383544921875</LatitudeDegrees>
              <LongitudeDegrees>-1.9831909798085689544677734375</LongitudeDegrees>
            </Position>
            <AltitudeMeters>6</AltitudeMeters>
            <DistanceMeters>NAN</DistanceMeters>
          </Trackpoint>
          <Trackpoint>
            <Time>2022-07-09T12:27:26.000Z</Time>
            <Position>
              <LatitudeDegrees>43.3225848712027072906494140625</LatitudeDegrees>
              <LongitudeDegrees>-1.9832657463848590850830078125</LongitudeDegrees>
            </Position>
            <AltitudeMeters>5.80000019073486328125</AltitudeMeters>
            <DistanceMeters>NAN</DistanceMeters>
          </Trackpoint>
          <Trackpoint>
            <Time>2022-07-09T12:27:27.000Z</Time>
            <Position>
              <LatitudeDegrees>43.3225848712027072906494140625</LatitudeDegrees>
              <LongitudeDegrees>-1.98327270336449146270751953125</LongitudeDegrees>
            </Position>
            <AltitudeMeters>5.80000019073486328125</AltitudeMeters>
            <DistanceMeters>NAN</DistanceMeters>
          </Trackpoint>
          <Trackpoint>
            <Time>2022-07-09T12:27:29.000Z</Time>
            <Position>
              <LatitudeDegrees>43.3225865475833415985107421875</LatitudeDegrees>
              <LongitudeDegrees>-1.9832593761384487152099609375</LongitudeDegrees>
            </Position>
            <AltitudeMeters>6</AltitudeMeters>
            <DistanceMeters>NAN</DistanceMeters>
          </Trackpoint>
          <Trackpoint>
            <Time>2022-07-09T12:27:31.000Z</Time>
            <Position>
              <LatitudeDegrees>43.32260373048484325408935546875</LatitudeDegrees>
              <LongitudeDegrees>-1.98323833756148815155029296875</LongitudeDegrees>
            </Position>
            <AltitudeMeters>6</AltitudeMeters>
            <DistanceMeters>NAN</DistanceMeters>
          </Trackpoint>
          <Trackpoint>
            <Time>2022-07-09T12:27:34.000Z</Time>
            <Position>
              <LatitudeDegrees>43.3226116932928562164306640625</LatitudeDegrees>
              <LongitudeDegrees>-1.983252502977848052978515625</LongitudeDegrees>
            </Position>
            <AltitudeMeters>6</AltitudeMeters>
            <DistanceMeters>NAN</DistanceMeters>
          </Trackpoint>
          <Trackpoint>
            <Time>2022-07-09T12:27:35.000Z</Time>
            <Position>
              <LatitudeDegrees>43.32260624505579471588134765625</LatitudeDegrees>
              <LongitudeDegrees>-1.98326490819454193115234375</LongitudeDegrees>
            </Position>
            <AltitudeMeters>5.80000019073486328125</AltitudeMeters>
            <DistanceMeters>NAN</DistanceMeters>
          </Trackpoint>
          <Trackpoint>
            <Time>2022-07-09T12:27:42.000Z</Time>
            <Position>
              <LatitudeDegrees>43.32258730195462703704833984375</LatitudeDegrees>
              <LongitudeDegrees>-1.9832711108028888702392578125</LongitudeDegrees>
            </Position>
            <AltitudeMeters>5.80000019073486328125</AltitudeMeters>
            <DistanceMeters>NAN</DistanceMeters>
          </Trackpoint>
          <Trackpoint>
            <Time>2022-07-09T12:27:45.000Z</Time>
            <Position>
              <LatitudeDegrees>43.32262686453759670257568359375</LatitudeDegrees>
              <LongitudeDegrees>-1.98323138058185577392578125</LongitudeDegrees>
            </Position>
            <AltitudeMeters>5.599999904632568359375</AltitudeMeters>
            <DistanceMeters>NAN</DistanceMeters>
          </Trackpoint>
          <Trackpoint>
            <Time>2022-07-09T12:27:50.000Z</Time>
            <Position>
              <LatitudeDegrees>43.32260037772357463836669921875</LatitudeDegrees>
              <LongitudeDegrees>-1.9832100905478000640869140625</LongitudeDegrees>
            </Position>
            <AltitudeMeters>5.599999904632568359375</AltitudeMeters>
            <DistanceMeters>NAN</DistanceMeters>
          </Trackpoint>
          <Trackpoint>
            <Time>2022-07-09T12:27:55.000Z</Time>
            <Position>
              <LatitudeDegrees>43.3225885592401027679443359375</LatitudeDegrees>
              <LongitudeDegrees>-1.98320447467267513275146484375</LongitudeDegrees>
            </Position>
            <AltitudeMeters>5.80000019073486328125</AltitudeMeters>
            <DistanceMeters>NAN</DistanceMeters>
          </Trackpoint>
          <Trackpoint>
            <Time>2022-07-09T12:27:58.000Z</Time>
            <Position>
              <LatitudeDegrees>43.32259115763008594512939453125</LatitudeDegrees>
              <LongitudeDegrees>-1.98320531286299228668212890625</LongitudeDegrees>
            </Position>
            <AltitudeMeters>6</AltitudeMeters>
            <DistanceMeters>NAN</DistanceMeters>
          </Trackpoint>
          <Trackpoint>
            <Time>2022-07-09T12:32:10.000Z</Time>
            <Position>
              <LatitudeDegrees>43.32258545793592929840087890625</LatitudeDegrees>
              <LongitudeDegrees>-1.9834042154252529144287109375</LongitudeDegrees>
            </Position>
            <AltitudeMeters>5.599999904632568359375</AltitudeMeters>
            <DistanceMeters>NAN</DistanceMeters>
          </Trackpoint>
          <Trackpoint>
            <Time>2022-07-09T12:32:11.000Z</Time>
            <Position>
              <LatitudeDegrees>43.32267698831856250762939453125</LatitudeDegrees>
              <LongitudeDegrees>-1.98348459787666797637939453125</LongitudeDegrees>
            </Position>
            <AltitudeMeters>5.599999904632568359375</AltitudeMeters>
            <DistanceMeters>NAN</DistanceMeters>
          </Trackpoint>
          <Trackpoint>
            <Time>2022-07-09T12:32:15.000Z</Time>
            <Position>
              <LatitudeDegrees>43.32273088395595550537109375</LatitudeDegrees>
              <LongitudeDegrees>-1.98352717794477939605712890625</LongitudeDegrees>
            </Position>
            <AltitudeMeters>7.400000095367431640625</AltitudeMeters>
            <DistanceMeters>NAN</DistanceMeters>
          </Trackpoint>
          <Trackpoint>
            <Time>2022-07-09T12:32:16.000Z</Time>
            <Position>
              <LatitudeDegrees>43.3227605558931827545166015625</LatitudeDegrees>
              <LongitudeDegrees>-1.98354377411305904388427734375</LongitudeDegrees>
            </Position>
            <AltitudeMeters>7.599999904632568359375</AltitudeMeters>
            <DistanceMeters>NAN</DistanceMeters>
          </Trackpoint>
          <Trackpoint>
            <Time>2022-07-09T12:32:17.000Z</Time>
            <Position>
              <LatitudeDegrees>43.3227793313562870025634765625</LatitudeDegrees>
              <LongitudeDegrees>-1.983544863760471343994140625</LongitudeDegrees>
            </Position>
            <AltitudeMeters>7.80000019073486328125</AltitudeMeters>
            <DistanceMeters>NAN</DistanceMeters>
          </Trackpoint>
          <Trackpoint>
            <Time>2022-07-09T12:32:19.000Z</Time>
            <Position>
              <LatitudeDegrees>43.3227779902517795562744140625</LatitudeDegrees>
              <LongitudeDegrees>-1.9835460372269153594970703125</LongitudeDegrees>
            </Position>
            <AltitudeMeters>8</AltitudeMeters>
            <DistanceMeters>NAN</DistanceMeters>
          </Trackpoint>
          <Trackpoint>
            <Time>2022-07-09T12:32:20.000Z</Time>
            <Position>
              <LatitudeDegrees>43.3227779902517795562744140625</LatitudeDegrees>
              <LongitudeDegrees>-1.98354947380721569061279296875</LongitudeDegrees>
            </Position>
            <AltitudeMeters>8</AltitudeMeters>
            <DistanceMeters>NAN</DistanceMeters>
          </Trackpoint>
          <Trackpoint>
            <Time>2022-07-09T12:32:22.000Z</Time>
            <Position>
              <LatitudeDegrees>43.32273264415562152862548828125</LatitudeDegrees>
              <LongitudeDegrees>-1.98350572027266025543212890625</LongitudeDegrees>
            </Position>
            <AltitudeMeters>8</AltitudeMeters>
            <DistanceMeters>NAN</DistanceMeters>
          </Trackpoint>
          <Trackpoint>
            <Time>2022-07-09T12:32:26.000Z</Time>
            <Position>
              <LatitudeDegrees>43.3227059058845043182373046875</LatitudeDegrees>
              <LongitudeDegrees>-1.9834786467254161834716796875</LongitudeDegrees>
            </Position>
            <AltitudeMeters>8</AltitudeMeters>
            <DistanceMeters>NAN</DistanceMeters>
          </Trackpoint>
          <Trackpoint>
            <Time>2022-07-09T12:32:27.000Z</Time>
            <Position>
              <LatitudeDegrees>43.32271470688283443450927734375</LatitudeDegrees>
              <LongitudeDegrees>-1.98346666060388088226318359375</LongitudeDegrees>
            </Position>
            <AltitudeMeters>8</AltitudeMeters>
            <DistanceMeters>NAN</DistanceMeters>
          </Trackpoint>
          <Trackpoint>
            <Time>2022-07-09T12:32:29.000Z</Time>
            <Position>
              <LatitudeDegrees>43.32271805964410305023193359375</LatitudeDegrees>
              <LongitudeDegrees>-1.98341779410839080810546875</LongitudeDegrees>
            </Position>
            <AltitudeMeters>8</AltitudeMeters>
            <DistanceMeters>NAN</DistanceMeters>
          </Trackpoint>
          <Trackpoint>
            <Time>2022-07-09T12:32:31.000Z</Time>
            <Position>
              <LatitudeDegrees>43.32271520979702472686767578125</LatitudeDegrees>
              <LongitudeDegrees>-1.9833683408796787261962890625</LongitudeDegrees>
            </Position>
            <AltitudeMeters>8.3999996185302734375</AltitudeMeters>
            <DistanceMeters>NAN</DistanceMeters>
          </Trackpoint>
          <Trackpoint>
            <Time>2022-07-09T12:32:32.000Z</Time>
            <Position>
              <LatitudeDegrees>43.322721831500530242919921875</LatitudeDegrees>
              <LongitudeDegrees>-1.983339004218578338623046875</LongitudeDegrees>
            </Position>
            <AltitudeMeters>8.6000003814697265625</AltitudeMeters>
            <DistanceMeters>NAN</DistanceMeters>
          </Trackpoint>
          <Trackpoint>
            <Time>2022-07-09T12:32:34.000Z</Time>
            <Position>
              <LatitudeDegrees>43.3227122761309146881103515625</LatitudeDegrees>
              <LongitudeDegrees>-1.98326884768903255462646484375</LongitudeDegrees>
            </Position>
            <AltitudeMeters>8.80000019073486328125</AltitudeMeters>
            <DistanceMeters>NAN</DistanceMeters>
          </Trackpoint>
          <Trackpoint>
            <Time>2022-07-09T12:32:36.000Z</Time>
            <Position>
              <LatitudeDegrees>43.32269056700170040130615234375</LatitudeDegrees>
              <LongitudeDegrees>-1.98321788571774959564208984375</LongitudeDegrees>
            </Position>
            <AltitudeMeters>9</AltitudeMeters>
            <DistanceMeters>NAN</DistanceMeters>
          </Trackpoint>
          <Trackpoint>
            <Time>2022-07-09T12:32:38.000Z</Time>
            <Position>
              <LatitudeDegrees>43.32268369384109973907470703125</LatitudeDegrees>
              <LongitudeDegrees>-1.98317346163094043731689453125</LongitudeDegrees>
            </Position>
            <AltitudeMeters>9.19999980926513671875</AltitudeMeters>
            <DistanceMeters>NAN</DistanceMeters>
          </Trackpoint>
          <Trackpoint>
            <Time>2022-07-09T12:32:39.000Z</Time>
            <Position>
              <LatitudeDegrees>43.322688974440097808837890625</LatitudeDegrees>
              <LongitudeDegrees>-1.98316164314746856689453125</LongitudeDegrees>
            </Position>
            <AltitudeMeters>9.3999996185302734375</AltitudeMeters>
            <DistanceMeters>NAN</DistanceMeters>
          </Trackpoint>
          <Trackpoint>
            <Time>2022-07-09T12:32:40.000Z</Time>
            <Position>
              <LatitudeDegrees>43.322687633335590362548828125</LatitudeDegrees>
              <LongitudeDegrees>-1.98312786407768726348876953125</LongitudeDegrees>
            </Position>
            <AltitudeMeters>9.3999996185302734375</AltitudeMeters>
            <DistanceMeters>NAN</DistanceMeters>
          </Trackpoint>
          <Trackpoint>
            <Time>2022-07-09T12:32:42.000Z</Time>
            <Position>
              <LatitudeDegrees>43.322718143463134765625</LatitudeDegrees>
              <LongitudeDegrees>-1.98305301368236541748046875</LongitudeDegrees>
            </Position>
            <AltitudeMeters>9.6000003814697265625</AltitudeMeters>
            <DistanceMeters>NAN</DistanceMeters>
          </Trackpoint>
          <Trackpoint>
            <Time>2022-07-09T12:32:47.000Z</Time>
            <Position>
              <LatitudeDegrees>43.322802297770977020263671875</LatitudeDegrees>
              <LongitudeDegrees>-1.9827779196202754974365234375</LongitudeDegrees>
            </Position>
            <AltitudeMeters>10</AltitudeMeters>
            <DistanceMeters>NAN</DistanceMeters>
          </Trackpoint>
          <Trackpoint>
            <Time>2022-07-09T12:32:48.000Z</Time>
            <Position>
              <LatitudeDegrees>43.32278897054493427276611328125</LatitudeDegrees>
              <LongitudeDegrees>-1.98273114860057830810546875</LongitudeDegrees>
            </Position>
            <AltitudeMeters>9.80000019073486328125</AltitudeMeters>
            <DistanceMeters>NAN</DistanceMeters>
          </Trackpoint>
          <Trackpoint>
            <Time>2022-07-09T12:32:52.000Z</Time>
            <Position>
              <LatitudeDegrees>43.3227850310504436492919921875</LatitudeDegrees>
              <LongitudeDegrees>-1.9825898297131061553955078125</LongitudeDegrees>
            </Position>
            <AltitudeMeters>9.3999996185302734375</AltitudeMeters>
            <DistanceMeters>NAN</DistanceMeters>
          </Trackpoint>
          <Trackpoint>
            <Time>2022-07-09T12:32:57.000Z</Time>
            <Position>
              <LatitudeDegrees>43.3228527568280696868896484375</LatitudeDegrees>
              <LongitudeDegrees>-1.98235907591879367828369140625</LongitudeDegrees>
            </Position>
            <AltitudeMeters>9.80000019073486328125</AltitudeMeters>
            <DistanceMeters>NAN</DistanceMeters>
          </Trackpoint>
          <Trackpoint>
            <Time>2022-07-09T12:33:05.000Z</Time>
            <Position>
              <LatitudeDegrees>43.3229721151292324066162109375</LatitudeDegrees>
              <LongitudeDegrees>-1.9819762744009494781494140625</LongitudeDegrees>
            </Position>
            <AltitudeMeters>10</AltitudeMeters>
            <DistanceMeters>NAN</DistanceMeters>
          </Trackpoint>
          <Trackpoint>
            <Time>2022-07-09T12:33:08.000Z</Time>
            <Position>
              <LatitudeDegrees>43.32300715148448944091796875</LatitudeDegrees>
              <LongitudeDegrees>-1.9818321056663990020751953125</LongitudeDegrees>
            </Position>
            <AltitudeMeters>10</AltitudeMeters>
            <DistanceMeters>NAN</DistanceMeters>
          </Trackpoint>
          <Trackpoint>
            <Time>2022-07-09T12:33:12.000Z</Time>
            <Position>
              <LatitudeDegrees>43.32306909374892711639404296875</LatitudeDegrees>
              <LongitudeDegrees>-1.98163370601832866668701171875</LongitudeDegrees>
            </Position>
            <AltitudeMeters>10.3999996185302734375</AltitudeMeters>
            <DistanceMeters>NAN</DistanceMeters>
          </Trackpoint>
          <Trackpoint>
            <Time>2022-07-09T12:33:15.000Z</Time>
            <Position>
              <LatitudeDegrees>43.32310781814157962799072265625</LatitudeDegrees>
              <LongitudeDegrees>-1.98149540461599826812744140625</LongitudeDegrees>
            </Position>
            <AltitudeMeters>10.80000019073486328125</AltitudeMeters>
            <DistanceMeters>NAN</DistanceMeters>
          </Trackpoint>
          <Trackpoint>
            <Time>2022-07-09T12:33:18.000Z</Time>
            <Position>
              <LatitudeDegrees>43.323138244450092315673828125</LatitudeDegrees>
              <LongitudeDegrees>-1.9813523255288600921630859375</LongitudeDegrees>
            </Position>
            <AltitudeMeters>11</AltitudeMeters>
            <DistanceMeters>NAN</DistanceMeters>
          </Trackpoint>
          <Trackpoint>
            <Time>2022-07-09T12:33:24.000Z</Time>
            <Position>
              <LatitudeDegrees>43.32319666631519794464111328125</LatitudeDegrees>
              <LongitudeDegrees>-1.98108653537929058074951171875</LongitudeDegrees>
            </Position>
            <AltitudeMeters>11.3999996185302734375</AltitudeMeters>
            <DistanceMeters>NAN</DistanceMeters>
          </Trackpoint>
          <Trackpoint>
            <Time>2022-07-09T12:33:26.000Z</Time>
            <Position>
              <LatitudeDegrees>43.32321560941636562347412109375</LatitudeDegrees>
              <LongitudeDegrees>-1.9809922389686107635498046875</LongitudeDegrees>
            </Position>
            <AltitudeMeters>11.80000019073486328125</AltitudeMeters>
            <DistanceMeters>NAN</DistanceMeters>
          </Trackpoint>
          <Trackpoint>
            <Time>2022-07-09T12:33:31.000Z</Time>
            <Position>
              <LatitudeDegrees>43.3232597820460796356201171875</LatitudeDegrees>
              <LongitudeDegrees>-1.98085217736661434173583984375</LongitudeDegrees>
            </Position>
            <AltitudeMeters>11.6000003814697265625</AltitudeMeters>
            <DistanceMeters>NAN</DistanceMeters>
          </Trackpoint>
          <Trackpoint>
            <Time>2022-07-09T12:33:36.000Z</Time>
            <Position>
              <LatitudeDegrees>43.32326472736895084381103515625</LatitudeDegrees>
              <LongitudeDegrees>-1.9807890616357326507568359375</LongitudeDegrees>
            </Position>
            <AltitudeMeters>11.6000003814697265625</AltitudeMeters>
            <DistanceMeters>NAN</DistanceMeters>
          </Trackpoint>
          <Trackpoint>
            <Time>2022-07-09T12:33:38.000Z</Time>
            <Position>
              <LatitudeDegrees>43.32328065298497676849365234375</LatitudeDegrees>
              <LongitudeDegrees>-1.98073835112154483795166015625</LongitudeDegrees>
            </Position>
            <AltitudeMeters>11.6000003814697265625</AltitudeMeters>
            <DistanceMeters>NAN</DistanceMeters>
          </Trackpoint>
          <Trackpoint>
            <Time>2022-07-09T12:33:40.000Z</Time>
            <Position>
              <LatitudeDegrees>43.32330646924674510955810546875</LatitudeDegrees>
              <LongitudeDegrees>-1.9806727208197116851806640625</LongitudeDegrees>
            </Position>
            <AltitudeMeters>11.6000003814697265625</AltitudeMeters>
            <DistanceMeters>NAN</DistanceMeters>
          </Trackpoint>
          <Trackpoint>
            <Time>2022-07-09T12:33:47.000Z</Time>
            <Position>
              <LatitudeDegrees>43.32343898713588714599609375</LatitudeDegrees>
              <LongitudeDegrees>-1.98035127483308315277099609375</LongitudeDegrees>
            </Position>
            <AltitudeMeters>12.3999996185302734375</AltitudeMeters>
            <DistanceMeters>NAN</DistanceMeters>
          </Trackpoint>
          <Trackpoint>
            <Time>2022-07-09T12:33:54.000Z</Time>
            <Position>
              <LatitudeDegrees>43.32357083447277545928955078125</LatitudeDegrees>
              <LongitudeDegrees>-1.98000828735530376434326171875</LongitudeDegrees>
            </Position>
            <AltitudeMeters>12.3999996185302734375</AltitudeMeters>
            <DistanceMeters>NAN</DistanceMeters>
          </Trackpoint>
          <Trackpoint>
            <Time>2022-07-09T12:34:01.000Z</Time>
            <Position>
              <LatitudeDegrees>43.3237030170857906341552734375</LatitudeDegrees>
              <LongitudeDegrees>-1.97967837564647197723388671875</LongitudeDegrees>
            </Position>
            <AltitudeMeters>12.3999996185302734375</AltitudeMeters>
            <DistanceMeters>NAN</DistanceMeters>
          </Trackpoint>
          <Trackpoint>
            <Time>2022-07-09T12:34:03.000Z</Time>
            <Position>
              <LatitudeDegrees>43.32373562268912792205810546875</LatitudeDegrees>
              <LongitudeDegrees>-1.97958785109221935272216796875</LongitudeDegrees>
            </Position>
            <AltitudeMeters>12.3999996185302734375</AltitudeMeters>
            <DistanceMeters>NAN</DistanceMeters>
          </Trackpoint>
          <Trackpoint>
            <Time>2022-07-09T12:34:05.000Z</Time>
            <Position>
              <LatitudeDegrees>43.32376420497894287109375</LatitudeDegrees>
              <LongitudeDegrees>-1.9795076362788677215576171875</LongitudeDegrees>
            </Position>
            <AltitudeMeters>12.3999996185302734375</AltitudeMeters>
            <DistanceMeters>NAN</DistanceMeters>
          </Trackpoint>
          <Trackpoint>
            <Time>2022-07-09T12:34:07.000Z</Time>
            <Position>
              <LatitudeDegrees>43.32379362545907497406005859375</LatitudeDegrees>
              <LongitudeDegrees>-1.9794268347322940826416015625</LongitudeDegrees>
            </Position>
            <AltitudeMeters>12.19999980926513671875</AltitudeMeters>
            <DistanceMeters>NAN</DistanceMeters>
          </Trackpoint>
          <Trackpoint>
            <Time>2022-07-09T12:34:10.000Z</Time>
            <Position>
              <LatitudeDegrees>43.32381625659763813018798828125</LatitudeDegrees>
              <LongitudeDegrees>-1.979328095912933349609375</LongitudeDegrees>
            </Position>
            <AltitudeMeters>12</AltitudeMeters>
            <DistanceMeters>NAN</DistanceMeters>
          </Trackpoint>
          <Trackpoint>
            <Time>2022-07-09T12:34:15.000Z</Time>
            <Position>
              <LatitudeDegrees>43.32380049861967563629150390625</LatitudeDegrees>
              <LongitudeDegrees>-1.9791148602962493896484375</LongitudeDegrees>
            </Position>
            <AltitudeMeters>11.80000019073486328125</AltitudeMeters>
            <DistanceMeters>NAN</DistanceMeters>
          </Trackpoint>
          <Trackpoint>
            <Time>2022-07-09T12:34:20.000Z</Time>
            <Position>
              <LatitudeDegrees>43.32387342117726802825927734375</LatitudeDegrees>
              <LongitudeDegrees>-1.97887371294200420379638671875</LongitudeDegrees>
            </Position>
            <AltitudeMeters>12.6000003814697265625</AltitudeMeters>
            <DistanceMeters>NAN</DistanceMeters>
          </Trackpoint>
          <Trackpoint>
            <Time>2022-07-09T12:34:21.000Z</Time>
            <Position>
              <LatitudeDegrees>43.32388984970748424530029296875</LatitudeDegrees>
              <LongitudeDegrees>-1.97882585227489471435546875</LongitudeDegrees>
            </Position>
            <AltitudeMeters>12.6000003814697265625</AltitudeMeters>
            <DistanceMeters>NAN</DistanceMeters>
          </Trackpoint>
          <Trackpoint>
            <Time>2022-07-09T12:34:29.000Z</Time>
            <Position>
              <LatitudeDegrees>43.3240513689815998077392578125</LatitudeDegrees>
              <LongitudeDegrees>-1.97841941379010677337646484375</LongitudeDegrees>
            </Position>
            <AltitudeMeters>12.19999980926513671875</AltitudeMeters>
            <DistanceMeters>NAN</DistanceMeters>
          </Trackpoint>
          <Trackpoint>
            <Time>2022-07-09T12:34:32.000Z</Time>
            <Position>
              <LatitudeDegrees>43.324131332337856292724609375</LatitudeDegrees>
              <LongitudeDegrees>-1.9782761670649051666259765625</LongitudeDegrees>
            </Position>
            <AltitudeMeters>12</AltitudeMeters>
            <DistanceMeters>NAN</DistanceMeters>
          </Trackpoint>
          <Trackpoint>
            <Time>2022-07-09T12:34:34.000Z</Time>
            <Position>
              <LatitudeDegrees>43.32417131401598453521728515625</LatitudeDegrees>
              <LongitudeDegrees>-1.97819259949028491973876953125</LongitudeDegrees>
            </Position>
            <AltitudeMeters>12</AltitudeMeters>
            <DistanceMeters>NAN</DistanceMeters>
          </Trackpoint>
          <Trackpoint>
            <Time>2022-07-09T12:34:36.000Z</Time>
            <Position>
              <LatitudeDegrees>43.32417701371014118194580078125</LatitudeDegrees>
              <LongitudeDegrees>-1.9781393744051456451416015625</LongitudeDegrees>
            </Position>
            <AltitudeMeters>12</AltitudeMeters>
            <DistanceMeters>NAN</DistanceMeters>
          </Trackpoint>
          <Trackpoint>
            <Time>2022-07-09T12:34:37.000Z</Time>
            <Position>
              <LatitudeDegrees>43.3241636864840984344482421875</LatitudeDegrees>
              <LongitudeDegrees>-1.9781316630542278289794921875</LongitudeDegrees>
            </Position>
            <AltitudeMeters>11.80000019073486328125</AltitudeMeters>
            <DistanceMeters>NAN</DistanceMeters>
          </Trackpoint>
          <Trackpoint>
            <Time>2022-07-09T12:34:38.000Z</Time>
            <Position>
              <LatitudeDegrees>43.3241459168493747711181640625</LatitudeDegrees>
              <LongitudeDegrees>-1.97812554426491260528564453125</LongitudeDegrees>
            </Position>
            <AltitudeMeters>11.6000003814697265625</AltitudeMeters>
            <DistanceMeters>NAN</DistanceMeters>
          </Trackpoint>
          <Trackpoint>
            <Time>2022-07-09T12:34:41.000Z</Time>
            <Position>
              <LatitudeDegrees>43.32404893822968006134033203125</LatitudeDegrees>
              <LongitudeDegrees>-1.9781088642776012420654296875</LongitudeDegrees>
            </Position>
            <AltitudeMeters>11.6000003814697265625</AltitudeMeters>
            <DistanceMeters>NAN</DistanceMeters>
          </Trackpoint>
          <Trackpoint>
            <Time>2022-07-09T12:34:44.000Z</Time>
            <Position>
              <LatitudeDegrees>43.32392857410013675689697265625</LatitudeDegrees>
              <LongitudeDegrees>-1.97809319011867046356201171875</LongitudeDegrees>
            </Position>
            <AltitudeMeters>11.6000003814697265625</AltitudeMeters>
            <DistanceMeters>NAN</DistanceMeters>
          </Trackpoint>
          <Trackpoint>
            <Time>2022-07-09T12:34:47.000Z</Time>
            <Position>
              <LatitudeDegrees>43.323804438114166259765625</LatitudeDegrees>
              <LongitudeDegrees>-1.9780629314482212066650390625</LongitudeDegrees>
            </Position>
            <AltitudeMeters>11.80000019073486328125</AltitudeMeters>
            <DistanceMeters>NAN</DistanceMeters>
          </Trackpoint>
          <Trackpoint>
            <Time>2022-07-09T12:34:53.000Z</Time>
            <Position>
              <LatitudeDegrees>43.32358005456626415252685546875</LatitudeDegrees>
              <LongitudeDegrees>-1.9779529608786106109619140625</LongitudeDegrees>
            </Position>
            <AltitudeMeters>11.80000019073486328125</AltitudeMeters>
            <DistanceMeters>NAN</DistanceMeters>
          </Trackpoint>
          <Trackpoint>
            <Time>2022-07-09T12:34:57.000Z</Time>
            <Position>
              <LatitudeDegrees>43.323484249413013458251953125</LatitudeDegrees>
              <LongitudeDegrees>-1.9778607599437236785888671875</LongitudeDegrees>
            </Position>
            <AltitudeMeters>11.80000019073486328125</AltitudeMeters>
            <DistanceMeters>NAN</DistanceMeters>
          </Trackpoint>
          <Trackpoint>
            <Time>2022-07-09T12:34:58.000Z</Time>
            <Position>
              <LatitudeDegrees>43.32345197908580303192138671875</LatitudeDegrees>
              <LongitudeDegrees>-1.97786134667694568634033203125</LongitudeDegrees>
            </Position>
            <AltitudeMeters>11.80000019073486328125</AltitudeMeters>
            <DistanceMeters>NAN</DistanceMeters>
          </Trackpoint>
          <Trackpoint>
            <Time>2022-07-09T12:35:00.000Z</Time>
            <Position>
              <LatitudeDegrees>43.32337905652821063995361328125</LatitudeDegrees>
              <LongitudeDegrees>-1.97784550487995147705078125</LongitudeDegrees>
            </Position>
            <AltitudeMeters>11.6000003814697265625</AltitudeMeters>
            <DistanceMeters>NAN</DistanceMeters>
          </Trackpoint>
          <Trackpoint>
            <Time>2022-07-09T12:35:03.000Z</Time>
            <Position>
              <LatitudeDegrees>43.32330211065709590911865234375</LatitudeDegrees>
              <LongitudeDegrees>-1.9777883403003215789794921875</LongitudeDegrees>
            </Position>
            <AltitudeMeters>11.3999996185302734375</AltitudeMeters>
            <DistanceMeters>NAN</DistanceMeters>
          </Trackpoint>
          <Trackpoint>
            <Time>2022-07-09T12:35:05.000Z</Time>
            <Position>
              <LatitudeDegrees>43.32326187752187252044677734375</LatitudeDegrees>
              <LongitudeDegrees>-1.97775833308696746826171875</LongitudeDegrees>
            </Position>
            <AltitudeMeters>11.19999980926513671875</AltitudeMeters>
            <DistanceMeters>NAN</DistanceMeters>
          </Trackpoint>
          <Trackpoint>
            <Time>2022-07-09T12:35:07.000Z</Time>
            <Position>
              <LatitudeDegrees>43.323259614408016204833984375</LatitudeDegrees>
              <LongitudeDegrees>-1.9777576625347137451171875</LongitudeDegrees>
            </Position>
            <AltitudeMeters>11</AltitudeMeters>
            <DistanceMeters>NAN</DistanceMeters>
          </Trackpoint>
          <Trackpoint>
            <Time>2022-07-09T12:35:08.000Z</Time>
            <Position>
              <LatitudeDegrees>43.32325994968414306640625</LatitudeDegrees>
              <LongitudeDegrees>-1.97775305248796939849853515625</LongitudeDegrees>
            </Position>
            <AltitudeMeters>11</AltitudeMeters>
            <DistanceMeters>NAN</DistanceMeters>
          </Trackpoint>
          <Trackpoint>
            <Time>2022-07-09T12:35:13.000Z</Time>
            <Position>
              <LatitudeDegrees>43.32322482950985431671142578125</LatitudeDegrees>
              <LongitudeDegrees>-1.97774182073771953582763671875</LongitudeDegrees>
            </Position>
            <AltitudeMeters>10.80000019073486328125</AltitudeMeters>
            <DistanceMeters>NAN</DistanceMeters>
          </Trackpoint>
          <Trackpoint>
            <Time>2022-07-09T12:35:15.000Z</Time>
            <Position>
              <LatitudeDegrees>43.323201946914196014404296875</LatitudeDegrees>
              <LongitudeDegrees>-1.97770980186760425567626953125</LongitudeDegrees>
            </Position>
            <AltitudeMeters>10.80000019073486328125</AltitudeMeters>
            <DistanceMeters>NAN</DistanceMeters>
          </Trackpoint>
          <Trackpoint>
            <Time>2022-07-09T12:35:20.000Z</Time>
            <Position>
              <LatitudeDegrees>43.3230800740420818328857421875</LatitudeDegrees>
              <LongitudeDegrees>-1.97763235308229923248291015625</LongitudeDegrees>
            </Position>
            <AltitudeMeters>10.80000019073486328125</AltitudeMeters>
            <DistanceMeters>NAN</DistanceMeters>
          </Trackpoint>
          <Trackpoint>
            <Time>2022-07-09T12:35:22.000Z</Time>
            <Position>
              <LatitudeDegrees>43.323034979403018951416015625</LatitudeDegrees>
              <LongitudeDegrees>-1.97759061120450496673583984375</LongitudeDegrees>
            </Position>
            <AltitudeMeters>10.6000003814697265625</AltitudeMeters>
            <DistanceMeters>NAN</DistanceMeters>
          </Trackpoint>
          <Trackpoint>
            <Time>2022-07-09T12:35:23.000Z</Time>
            <Position>
              <LatitudeDegrees>43.3230032958090305328369140625</LatitudeDegrees>
              <LongitudeDegrees>-1.9775603525340557098388671875</LongitudeDegrees>
            </Position>
            <AltitudeMeters>10.3999996185302734375</AltitudeMeters>
            <DistanceMeters>NAN</DistanceMeters>
          </Trackpoint>
          <Trackpoint>
            <Time>2022-07-09T12:35:24.000Z</Time>
            <Position>
              <LatitudeDegrees>43.3229701034724712371826171875</LatitudeDegrees>
              <LongitudeDegrees>-1.9775489531457424163818359375</LongitudeDegrees>
            </Position>
            <AltitudeMeters>10.3999996185302734375</AltitudeMeters>
            <DistanceMeters>NAN</DistanceMeters>
          </Trackpoint>
          <Trackpoint>
            <Time>2022-07-09T12:35:28.000Z</Time>
            <Position>
              <LatitudeDegrees>43.3228554390370845794677734375</LatitudeDegrees>
              <LongitudeDegrees>-1.977385841310024261474609375</LongitudeDegrees>
            </Position>
            <AltitudeMeters>10.3999996185302734375</AltitudeMeters>
            <DistanceMeters>NAN</DistanceMeters>
          </Trackpoint>
          <Trackpoint>
            <Time>2022-07-09T12:35:32.000Z</Time>
            <Position>
              <LatitudeDegrees>43.32283490337431430816650390625</LatitudeDegrees>
              <LongitudeDegrees>-1.97730160318315029144287109375</LongitudeDegrees>
            </Position>
            <AltitudeMeters>10.19999980926513671875</AltitudeMeters>
            <DistanceMeters>NAN</DistanceMeters>
          </Trackpoint>
          <Trackpoint>
            <Time>2022-07-09T12:35:33.000Z</Time>
            <Position>
              <LatitudeDegrees>43.32283205352723598480224609375</LatitudeDegrees>
              <LongitudeDegrees>-1.97727343998849391937255859375</LongitudeDegrees>
            </Position>
            <AltitudeMeters>10.19999980926513671875</AltitudeMeters>
            <DistanceMeters>NAN</DistanceMeters>
          </Trackpoint>
          <Trackpoint>
            <Time>2022-07-09T12:35:34.000Z</Time>
            <Position>
              <LatitudeDegrees>43.32283674739301204681396484375</LatitudeDegrees>
              <LongitudeDegrees>-1.977255754172801971435546875</LongitudeDegrees>
            </Position>
            <AltitudeMeters>10.19999980926513671875</AltitudeMeters>
            <DistanceMeters>NAN</DistanceMeters>
          </Trackpoint>
          <Trackpoint>
            <Time>2022-07-09T12:35:37.000Z</Time>
            <Position>
              <LatitudeDegrees>43.32286172546446323394775390625</LatitudeDegrees>
              <LongitudeDegrees>-1.9771687500178813934326171875</LongitudeDegrees>
            </Position>
            <AltitudeMeters>10.19999980926513671875</AltitudeMeters>
            <DistanceMeters>NAN</DistanceMeters>
          </Trackpoint>
          <Trackpoint>
            <Time>2022-07-09T12:35:38.000Z</Time>
            <Position>
              <LatitudeDegrees>43.32288402132689952850341796875</LatitudeDegrees>
              <LongitudeDegrees>-1.9771442748606204986572265625</LongitudeDegrees>
            </Position>
            <AltitudeMeters>10.19999980926513671875</AltitudeMeters>
            <DistanceMeters>NAN</DistanceMeters>
          </Trackpoint>
          <Trackpoint>
            <Time>2022-07-09T12:35:40.000Z</Time>
            <Position>
              <LatitudeDegrees>43.3229238353669643402099609375</LatitudeDegrees>
              <LongitudeDegrees>-1.97711954824626445770263671875</LongitudeDegrees>
            </Position>
            <AltitudeMeters>10.19999980926513671875</AltitudeMeters>
            <DistanceMeters>NAN</DistanceMeters>
          </Trackpoint>
          <Trackpoint>
            <Time>2022-07-09T12:35:44.000Z</Time>
            <Position>
              <LatitudeDegrees>43.323008157312870025634765625</LatitudeDegrees>
              <LongitudeDegrees>-1.977049224078655242919921875</LongitudeDegrees>
            </Position>
            <AltitudeMeters>10.19999980926513671875</AltitudeMeters>
            <DistanceMeters>NAN</DistanceMeters>
          </Trackpoint>
          <Trackpoint>
            <Time>2022-07-09T12:35:47.000Z</Time>
            <Position>
              <LatitudeDegrees>43.32308133132755756378173828125</LatitudeDegrees>
              <LongitudeDegrees>-1.9770064763724803924560546875</LongitudeDegrees>
            </Position>
            <AltitudeMeters>10.3999996185302734375</AltitudeMeters>
            <DistanceMeters>NAN</DistanceMeters>
          </Trackpoint>
          <Trackpoint>
            <Time>2022-07-09T12:35:53.000Z</Time>
            <Position>
              <LatitudeDegrees>43.3232400007545948028564453125</LatitudeDegrees>
              <LongitudeDegrees>-1.9768559373915195465087890625</LongitudeDegrees>
            </Position>
            <AltitudeMeters>10.3999996185302734375</AltitudeMeters>
            <DistanceMeters>NAN</DistanceMeters>
          </Trackpoint>
          <Trackpoint>
            <Time>2022-07-09T12:36:00.000Z</Time>
            <Position>
              <LatitudeDegrees>43.32341392524540424346923828125</LatitudeDegrees>
              <LongitudeDegrees>-1.976671703159809112548828125</LongitudeDegrees>
            </Position>
            <AltitudeMeters>10.3999996185302734375</AltitudeMeters>
            <DistanceMeters>NAN</DistanceMeters>
          </Trackpoint>
          <Trackpoint>
            <Time>2022-07-09T12:36:05.000Z</Time>
            <Position>
              <LatitudeDegrees>43.32352540455758571624755859375</LatitudeDegrees>
              <LongitudeDegrees>-1.97655133903026580810546875</LongitudeDegrees>
            </Position>
            <AltitudeMeters>10.19999980926513671875</AltitudeMeters>
            <DistanceMeters>NAN</DistanceMeters>
          </Trackpoint>
          <Trackpoint>
            <Time>2022-07-09T12:36:08.000Z</Time>
            <Position>
              <LatitudeDegrees>43.32357033155858516693115234375</LatitudeDegrees>
              <LongitudeDegrees>-1.976468525826930999755859375</LongitudeDegrees>
            </Position>
            <AltitudeMeters>9.80000019073486328125</AltitudeMeters>
            <DistanceMeters>NAN</DistanceMeters>
          </Trackpoint>
          <Trackpoint>
            <Time>2022-07-09T12:36:10.000Z</Time>
            <Position>
              <LatitudeDegrees>43.3235871791839599609375</LatitudeDegrees>
              <LongitudeDegrees>-1.97641898877918720245361328125</LongitudeDegrees>
            </Position>
            <AltitudeMeters>9.6000003814697265625</AltitudeMeters>
            <DistanceMeters>NAN</DistanceMeters>
          </Trackpoint>
          <Trackpoint>
            <Time>2022-07-09T12:36:12.000Z</Time>
            <Position>
              <LatitudeDegrees>43.323606960475444793701171875</LatitudeDegrees>
              <LongitudeDegrees>-1.97635897435247898101806640625</LongitudeDegrees>
            </Position>
            <AltitudeMeters>9.6000003814697265625</AltitudeMeters>
            <DistanceMeters>NAN</DistanceMeters>
          </Trackpoint>
          <Trackpoint>
            <Time>2022-07-09T12:36:13.000Z</Time>
            <Position>
              <LatitudeDegrees>43.3236111514270305633544921875</LatitudeDegrees>
              <LongitudeDegrees>-1.97632812894880771636962890625</LongitudeDegrees>
            </Position>
            <AltitudeMeters>9.6000003814697265625</AltitudeMeters>
            <DistanceMeters>NAN</DistanceMeters>
          </Trackpoint>
          <Trackpoint>
            <Time>2022-07-09T12:36:14.000Z</Time>
            <Position>
              <LatitudeDegrees>43.32360620610415935516357421875</LatitudeDegrees>
              <LongitudeDegrees>-1.9763077609241008758544921875</LongitudeDegrees>
            </Position>
            <AltitudeMeters>9.6000003814697265625</AltitudeMeters>
            <DistanceMeters>NAN</DistanceMeters>
          </Trackpoint>
          <Trackpoint>
            <Time>2022-07-09T12:36:15.000Z</Time>
            <Position>
              <LatitudeDegrees>43.323605619370937347412109375</LatitudeDegrees>
              <LongitudeDegrees>-1.97629175148904323577880859375</LongitudeDegrees>
            </Position>
            <AltitudeMeters>9.6000003814697265625</AltitudeMeters>
            <DistanceMeters>NAN</DistanceMeters>
          </Trackpoint>
          <Trackpoint>
            <Time>2022-07-09T12:36:20.000Z</Time>
            <Position>
              <LatitudeDegrees>43.3236369676887989044189453125</LatitudeDegrees>
              <LongitudeDegrees>-1.97624933905899524688720703125</LongitudeDegrees>
            </Position>
            <AltitudeMeters>10</AltitudeMeters>
            <DistanceMeters>NAN</DistanceMeters>
          </Trackpoint>
          <Trackpoint>
            <Time>2022-07-09T12:36:25.000Z</Time>
            <Position>
              <LatitudeDegrees>43.32365549169480800628662109375</LatitudeDegrees>
              <LongitudeDegrees>-1.97621027939021587371826171875</LongitudeDegrees>
            </Position>
            <AltitudeMeters>10</AltitudeMeters>
            <DistanceMeters>NAN</DistanceMeters>
          </Trackpoint>
          <Trackpoint>
            <Time>2022-07-09T12:36:26.000Z</Time>
            <Position>
              <LatitudeDegrees>43.32366085611283779144287109375</LatitudeDegrees>
              <LongitudeDegrees>-1.976184882223606109619140625</LongitudeDegrees>
            </Position>
            <AltitudeMeters>10</AltitudeMeters>
            <DistanceMeters>NAN</DistanceMeters>
          </Trackpoint>
          <Trackpoint>
            <Time>2022-07-09T12:36:27.000Z</Time>
            <Position>
              <LatitudeDegrees>43.32365683279931545257568359375</LatitudeDegrees>
              <LongitudeDegrees>-1.976152695715427398681640625</LongitudeDegrees>
            </Position>
            <AltitudeMeters>10</AltitudeMeters>
            <DistanceMeters>NAN</DistanceMeters>
          </Trackpoint>
          <Trackpoint>
            <Time>2022-07-09T12:36:30.000Z</Time>
            <Position>
              <LatitudeDegrees>43.32360251806676387786865234375</LatitudeDegrees>
              <LongitudeDegrees>-1.97608790360391139984130859375</LongitudeDegrees>
            </Position>
            <AltitudeMeters>10</AltitudeMeters>
            <DistanceMeters>NAN</DistanceMeters>
          </Trackpoint>
          <Trackpoint>
            <Time>2022-07-09T12:36:35.000Z</Time>
            <Position>
              <LatitudeDegrees>43.32346337847411632537841796875</LatitudeDegrees>
              <LongitudeDegrees>-1.9759641028940677642822265625</LongitudeDegrees>
            </Position>
            <AltitudeMeters>10</AltitudeMeters>
            <DistanceMeters>NAN</DistanceMeters>
          </Trackpoint>
          <Trackpoint>
            <Time>2022-07-09T12:36:39.000Z</Time>
            <Position>
              <LatitudeDegrees>43.3234301023185253143310546875</LatitudeDegrees>
              <LongitudeDegrees>-1.975813396275043487548828125</LongitudeDegrees>
            </Position>
            <AltitudeMeters>10</AltitudeMeters>
            <DistanceMeters>NAN</DistanceMeters>
          </Trackpoint>
          <Trackpoint>
            <Time>2022-07-09T12:36:42.000Z</Time>
            <Position>
              <LatitudeDegrees>43.32338375039398670196533203125</LatitudeDegrees>
              <LongitudeDegrees>-1.97573460638523101806640625</LongitudeDegrees>
            </Position>
            <AltitudeMeters>10</AltitudeMeters>
            <DistanceMeters>NAN</DistanceMeters>
          </Trackpoint>
          <Trackpoint>
            <Time>2022-07-09T12:36:45.000Z</Time>
            <Position>
              <LatitudeDegrees>43.32331233657896518707275390625</LatitudeDegrees>
              <LongitudeDegrees>-1.97562555782496929168701171875</LongitudeDegrees>
            </Position>
            <AltitudeMeters>9.6000003814697265625</AltitudeMeters>
            <DistanceMeters>NAN</DistanceMeters>
          </Trackpoint>
          <Trackpoint>
            <Time>2022-07-09T12:36:51.000Z</Time>
            <Position>
              <LatitudeDegrees>43.3231528289616107940673828125</LatitudeDegrees>
              <LongitudeDegrees>-1.97539807297289371490478515625</LongitudeDegrees>
            </Position>
            <AltitudeMeters>9.80000019073486328125</AltitudeMeters>
            <DistanceMeters>NAN</DistanceMeters>
          </Trackpoint>
          <Trackpoint>
            <Time>2022-07-09T12:36:52.000Z</Time>
            <Position>
              <LatitudeDegrees>43.323134221136569976806640625</LatitudeDegrees>
              <LongitudeDegrees>-1.97534979321062564849853515625</LongitudeDegrees>
            </Position>
            <AltitudeMeters>9.80000019073486328125</AltitudeMeters>
            <DistanceMeters>NAN</DistanceMeters>
          </Trackpoint>
          <Trackpoint>
            <Time>2022-07-09T12:36:59.000Z</Time>
            <Position>
              <LatitudeDegrees>43.32299700938165187835693359375</LatitudeDegrees>
              <LongitudeDegrees>-1.9751507230103015899658203125</LongitudeDegrees>
            </Position>
            <AltitudeMeters>9.6000003814697265625</AltitudeMeters>
            <DistanceMeters>NAN</DistanceMeters>
          </Trackpoint>
          <Trackpoint>
            <Time>2022-07-09T12:37:01.000Z</Time>
            <Position>
              <LatitudeDegrees>43.32296968437731266021728515625</LatitudeDegrees>
              <LongitudeDegrees>-1.9751269184052944183349609375</LongitudeDegrees>
            </Position>
            <AltitudeMeters>9.3999996185302734375</AltitudeMeters>
            <DistanceMeters>NAN</DistanceMeters>
          </Trackpoint>
          <Trackpoint>
            <Time>2022-07-09T12:37:02.000Z</Time>
            <Position>
              <LatitudeDegrees>43.32297236658632755279541015625</LatitudeDegrees>
              <LongitudeDegrees>-1.97511107660830020904541015625</LongitudeDegrees>
            </Position>
            <AltitudeMeters>9.3999996185302734375</AltitudeMeters>
            <DistanceMeters>NAN</DistanceMeters>
          </Trackpoint>
          <Trackpoint>
            <Time>2022-07-09T12:37:07.000Z</Time>
            <Position>
              <LatitudeDegrees>43.32303590141236782073974609375</LatitudeDegrees>
              <LongitudeDegrees>-1.9750179536640644073486328125</LongitudeDegrees>
            </Position>
            <AltitudeMeters>9.19999980926513671875</AltitudeMeters>
            <DistanceMeters>NAN</DistanceMeters>
          </Trackpoint>
          <Trackpoint>
            <Time>2022-07-09T12:37:08.000Z</Time>
            <Position>
              <LatitudeDegrees>43.32303958944976329803466796875</LatitudeDegrees>
              <LongitudeDegrees>-1.97502373717725276947021484375</LongitudeDegrees>
            </Position>
            <AltitudeMeters>9.19999980926513671875</AltitudeMeters>
            <DistanceMeters>NAN</DistanceMeters>
          </Trackpoint>
          <Trackpoint>
            <Time>2022-07-09T12:37:13.000Z</Time>
            <Position>
              <LatitudeDegrees>43.32306439988315105438232421875</LatitudeDegrees>
              <LongitudeDegrees>-1.9750032015144824981689453125</LongitudeDegrees>
            </Position>
            <AltitudeMeters>9</AltitudeMeters>
            <DistanceMeters>NAN</DistanceMeters>
          </Trackpoint>
          <Trackpoint>
            <Time>2022-07-09T12:37:16.000Z</Time>
            <Position>
              <LatitudeDegrees>43.32310639321804046630859375</LatitudeDegrees>
              <LongitudeDegrees>-1.97500496171414852142333984375</LongitudeDegrees>
            </Position>
            <AltitudeMeters>9</AltitudeMeters>
            <DistanceMeters>NAN</DistanceMeters>
          </Trackpoint>
          <Trackpoint>
            <Time>2022-07-09T12:37:18.000Z</Time>
            <Position>
              <LatitudeDegrees>43.32312307320535182952880859375</LatitudeDegrees>
              <LongitudeDegrees>-1.97500982321798801422119140625</LongitudeDegrees>
            </Position>
            <AltitudeMeters>9.19999980926513671875</AltitudeMeters>
            <DistanceMeters>NAN</DistanceMeters>
          </Trackpoint>
          <Trackpoint>
            <Time>2022-07-09T12:37:22.000Z</Time>
            <Position>
              <LatitudeDegrees>43.32317881286144256591796875</LatitudeDegrees>
              <LongitudeDegrees>-1.9750164449214935302734375</LongitudeDegrees>
            </Position>
            <AltitudeMeters>9</AltitudeMeters>
            <DistanceMeters>NAN</DistanceMeters>
          </Trackpoint>
          <Trackpoint>
            <Time>2022-07-09T12:37:24.000Z</Time>
            <Position>
              <LatitudeDegrees>43.323186524212360382080078125</LatitudeDegrees>
              <LongitudeDegrees>-1.97501149959862232208251953125</LongitudeDegrees>
            </Position>
            <AltitudeMeters>9</AltitudeMeters>
            <DistanceMeters>NAN</DistanceMeters>
          </Trackpoint>
          <Trackpoint>
            <Time>2022-07-09T12:37:27.000Z</Time>
            <Position>
              <LatitudeDegrees>43.32319985143840312957763671875</LatitudeDegrees>
              <LongitudeDegrees>-1.9750166125595569610595703125</LongitudeDegrees>
            </Position>
            <AltitudeMeters>9</AltitudeMeters>
            <DistanceMeters>NAN</DistanceMeters>
          </Trackpoint>
          <Trackpoint>
            <Time>2022-07-09T12:37:28.000Z</Time>
            <Position>
              <LatitudeDegrees>43.32319557666778564453125</LatitudeDegrees>
              <LongitudeDegrees>-1.975020468235015869140625</LongitudeDegrees>
            </Position>
            <AltitudeMeters>9</AltitudeMeters>
            <DistanceMeters>NAN</DistanceMeters>
          </Trackpoint>
          <Trackpoint>
            <Time>2022-07-09T12:37:29.000Z</Time>
            <Position>
              <LatitudeDegrees>43.32320303656160831451416015625</LatitudeDegrees>
              <LongitudeDegrees>-1.9750206358730792999267578125</LongitudeDegrees>
            </Position>
            <AltitudeMeters>9</AltitudeMeters>
            <DistanceMeters>NAN</DistanceMeters>
          </Trackpoint>
          <Trackpoint>
            <Time>2022-07-09T12:37:31.000Z</Time>
            <Position>
              <LatitudeDegrees>43.32317604683339595794677734375</LatitudeDegrees>
              <LongitudeDegrees>-1.975045613944530487060546875</LongitudeDegrees>
            </Position>
            <AltitudeMeters>9</AltitudeMeters>
            <DistanceMeters>NAN</DistanceMeters>
          </Trackpoint>
          <Trackpoint>
            <Time>2022-07-09T12:37:34.000Z</Time>
            <Position>
              <LatitudeDegrees>43.32321636378765106201171875</LatitudeDegrees>
              <LongitudeDegrees>-1.975053660571575164794921875</LongitudeDegrees>
            </Position>
            <AltitudeMeters>8.80000019073486328125</AltitudeMeters>
            <DistanceMeters>NAN</DistanceMeters>
          </Trackpoint>
          <Trackpoint>
            <Time>2022-07-09T12:37:39.000Z</Time>
            <Position>
              <LatitudeDegrees>43.32337939180433750152587890625</LatitudeDegrees>
              <LongitudeDegrees>-1.97495852597057819366455078125</LongitudeDegrees>
            </Position>
            <AltitudeMeters>8.3999996185302734375</AltitudeMeters>
            <DistanceMeters>NAN</DistanceMeters>
          </Trackpoint>
          <Trackpoint>
            <Time>2022-07-09T12:37:43.000Z</Time>
            <Position>
              <LatitudeDegrees>43.32336849533021450042724609375</LatitudeDegrees>
              <LongitudeDegrees>-1.97494192980229854583740234375</LongitudeDegrees>
            </Position>
            <AltitudeMeters>8.3999996185302734375</AltitudeMeters>
            <DistanceMeters>NAN</DistanceMeters>
          </Trackpoint>
          <Trackpoint>
            <Time>2022-07-09T12:37:44.000Z</Time>
            <Position>
              <LatitudeDegrees>43.3233694173395633697509765625</LatitudeDegrees>
              <LongitudeDegrees>-1.97494461201131343841552734375</LongitudeDegrees>
            </Position>
            <AltitudeMeters>8.3999996185302734375</AltitudeMeters>
            <DistanceMeters>NAN</DistanceMeters>
          </Trackpoint>
          <Trackpoint>
            <Time>2022-07-09T12:37:46.000Z</Time>
            <Position>
              <LatitudeDegrees>43.32335810177028179168701171875</LatitudeDegrees>
              <LongitudeDegrees>-1.9749589450657367706298828125</LongitudeDegrees>
            </Position>
            <AltitudeMeters>8.6000003814697265625</AltitudeMeters>
            <DistanceMeters>NAN</DistanceMeters>
          </Trackpoint>
          <Trackpoint>
            <Time>2022-07-09T12:37:48.000Z</Time>
            <Position>
              <LatitudeDegrees>43.3233268372714519500732421875</LatitudeDegrees>
              <LongitudeDegrees>-1.9749834202229976654052734375</LongitudeDegrees>
            </Position>
            <AltitudeMeters>8.6000003814697265625</AltitudeMeters>
            <DistanceMeters>NAN</DistanceMeters>
          </Trackpoint>
          <Trackpoint>
            <Time>2022-07-09T12:42:13.000Z</Time>
            <Position>
              <LatitudeDegrees>43.324328474700450897216796875</LatitudeDegrees>
              <LongitudeDegrees>-1.9747514091432094573974609375</LongitudeDegrees>
            </Position>
            <AltitudeMeters>9.19999980926513671875</AltitudeMeters>
            <DistanceMeters>NAN</DistanceMeters>
          </Trackpoint>
          <Trackpoint>
            <Time>2022-07-09T12:42:14.000Z</Time>
            <Position>
              <LatitudeDegrees>43.32360721193253993988037109375</LatitudeDegrees>
              <LongitudeDegrees>-1.97489499114453792572021484375</LongitudeDegrees>
            </Position>
            <AltitudeMeters>9.19999980926513671875</AltitudeMeters>
            <DistanceMeters>NAN</DistanceMeters>
          </Trackpoint>
          <Trackpoint>
            <Time>2022-07-09T12:42:57.000Z</Time>
            <Position>
              <LatitudeDegrees>43.3234482072293758392333984375</LatitudeDegrees>
              <LongitudeDegrees>-1.97496213018894195556640625</LongitudeDegrees>
            </Position>
            <AltitudeMeters>12.19999980926513671875</AltitudeMeters>
            <DistanceMeters>NAN</DistanceMeters>
          </Trackpoint>
          <Trackpoint>
            <Time>2022-07-09T12:42:59.000Z</Time>
            <Position>
              <LatitudeDegrees>43.32343270070850849151611328125</LatitudeDegrees>
              <LongitudeDegrees>-1.9749505631625652313232421875</LongitudeDegrees>
            </Position>
            <AltitudeMeters>12.19999980926513671875</AltitudeMeters>
            <DistanceMeters>NAN</DistanceMeters>
          </Trackpoint>
          <Trackpoint>
            <Time>2022-07-09T12:43:03.000Z</Time>
            <Position>
              <LatitudeDegrees>43.32340671680867671966552734375</LatitudeDegrees>
              <LongitudeDegrees>-1.97495735250413417816162109375</LongitudeDegrees>
            </Position>
            <AltitudeMeters>12.3999996185302734375</AltitudeMeters>
            <DistanceMeters>NAN</DistanceMeters>
          </Trackpoint>
          <Trackpoint>
            <Time>2022-07-09T12:46:13.000Z</Time>
            <Position>
              <LatitudeDegrees>43.32306205295026302337646484375</LatitudeDegrees>
              <LongitudeDegrees>-1.9750947318971157073974609375</LongitudeDegrees>
            </Position>
            <AltitudeMeters>13.19999980926513671875</AltitudeMeters>
            <DistanceMeters>NAN</DistanceMeters>
          </Trackpoint>
          <Trackpoint>
            <Time>2022-07-09T12:46:14.000Z</Time>
            <Position>
              <LatitudeDegrees>43.3230663277208805084228515625</LatitudeDegrees>
              <LongitudeDegrees>-1.97511057369410991668701171875</LongitudeDegrees>
            </Position>
            <AltitudeMeters>13.3999996185302734375</AltitudeMeters>
            <DistanceMeters>NAN</DistanceMeters>
          </Trackpoint>
          <Trackpoint>
            <Time>2022-07-09T12:46:16.000Z</Time>
            <Position>
              <LatitudeDegrees>43.32309474237263202667236328125</LatitudeDegrees>
              <LongitudeDegrees>-1.9750756211578845977783203125</LongitudeDegrees>
            </Position>
            <AltitudeMeters>13.3999996185302734375</AltitudeMeters>
            <DistanceMeters>NAN</DistanceMeters>
          </Trackpoint>
          <Trackpoint>
            <Time>2022-07-09T12:46:21.000Z</Time>
            <Position>
              <LatitudeDegrees>43.3231888711452484130859375</LatitudeDegrees>
              <LongitudeDegrees>-1.97503999806940555572509765625</LongitudeDegrees>
            </Position>
            <AltitudeMeters>13.3999996185302734375</AltitudeMeters>
            <DistanceMeters>NAN</DistanceMeters>
          </Trackpoint>
          <Trackpoint>
            <Time>2022-07-09T12:46:26.000Z</Time>
            <Position>
              <LatitudeDegrees>43.32332373596727848052978515625</LatitudeDegrees>
              <LongitudeDegrees>-1.97507604025304317474365234375</LongitudeDegrees>
            </Position>
            <AltitudeMeters>13.3999996185302734375</AltitudeMeters>
            <DistanceMeters>NAN</DistanceMeters>
          </Trackpoint>
          <Trackpoint>
            <Time>2022-07-09T12:46:29.000Z</Time>
            <Position>
              <LatitudeDegrees>43.3233415894210338592529296875</LatitudeDegrees>
              <LongitudeDegrees>-1.9750969111919403076171875</LongitudeDegrees>
            </Position>
            <AltitudeMeters>13.6000003814697265625</AltitudeMeters>
            <DistanceMeters>NAN</DistanceMeters>
          </Trackpoint>
          <Trackpoint>
            <Time>2022-07-09T12:46:31.000Z</Time>
            <Position>
              <LatitudeDegrees>43.32337168045341968536376953125</LatitudeDegrees>
              <LongitudeDegrees>-1.9751210510730743408203125</LongitudeDegrees>
            </Position>
            <AltitudeMeters>13.6000003814697265625</AltitudeMeters>
            <DistanceMeters>NAN</DistanceMeters>
          </Trackpoint>
          <Trackpoint>
            <Time>2022-07-09T12:46:37.000Z</Time>
            <Position>
              <LatitudeDegrees>43.3233184553682804107666015625</LatitudeDegrees>
              <LongitudeDegrees>-1.97501552291214466094970703125</LongitudeDegrees>
            </Position>
            <AltitudeMeters>13.6000003814697265625</AltitudeMeters>
            <DistanceMeters>NAN</DistanceMeters>
          </Trackpoint>
          <Trackpoint>
            <Time>2022-07-09T12:46:42.000Z</Time>
            <Position>
              <LatitudeDegrees>43.32329054363071918487548828125</LatitudeDegrees>
              <LongitudeDegrees>-1.974987946450710296630859375</LongitudeDegrees>
            </Position>
            <AltitudeMeters>13.6000003814697265625</AltitudeMeters>
            <DistanceMeters>NAN</DistanceMeters>
          </Trackpoint>
          <Trackpoint>
            <Time>2022-07-09T12:46:43.000Z</Time>
            <Position>
              <LatitudeDegrees>43.32329020835459232330322265625</LatitudeDegrees>
              <LongitudeDegrees>-1.97499171830713748931884765625</LongitudeDegrees>
            </Position>
            <AltitudeMeters>13.6000003814697265625</AltitudeMeters>
            <DistanceMeters>NAN</DistanceMeters>
          </Trackpoint>
          <Trackpoint>
            <Time>2022-07-09T12:46:47.000Z</Time>
            <Position>
              <LatitudeDegrees>43.32330311648547649383544921875</LatitudeDegrees>
              <LongitudeDegrees>-1.9749735295772552490234375</LongitudeDegrees>
            </Position>
            <AltitudeMeters>13.3999996185302734375</AltitudeMeters>
            <DistanceMeters>NAN</DistanceMeters>
          </Trackpoint>
          <Trackpoint>
            <Time>2022-07-09T12:46:52.000Z</Time>
            <Position>
              <LatitudeDegrees>43.32328853197395801544189453125</LatitudeDegrees>
              <LongitudeDegrees>-1.97495299391448497772216796875</LongitudeDegrees>
            </Position>
            <AltitudeMeters>13</AltitudeMeters>
            <DistanceMeters>NAN</DistanceMeters>
          </Trackpoint>
          <Trackpoint>
            <Time>2022-07-09T12:46:53.000Z</Time>
            <Position>
              <LatitudeDegrees>43.32327579148113727569580078125</LatitudeDegrees>
              <LongitudeDegrees>-1.97497428394854068756103515625</LongitudeDegrees>
            </Position>
            <AltitudeMeters>13</AltitudeMeters>
            <DistanceMeters>NAN</DistanceMeters>
          </Trackpoint>
          <Trackpoint>
            <Time>2022-07-09T12:46:55.000Z</Time>
            <Position>
              <LatitudeDegrees>43.3233176171779632568359375</LatitudeDegrees>
              <LongitudeDegrees>-1.97496422566473484039306640625</LongitudeDegrees>
            </Position>
            <AltitudeMeters>13</AltitudeMeters>
            <DistanceMeters>NAN</DistanceMeters>
          </Trackpoint>
          <Trackpoint>
            <Time>2022-07-09T12:46:57.000Z</Time>
            <Position>
              <LatitudeDegrees>43.32332457415759563446044921875</LatitudeDegrees>
              <LongitudeDegrees>-1.97496539913117885589599609375</LongitudeDegrees>
            </Position>
            <AltitudeMeters>13.3999996185302734375</AltitudeMeters>
            <DistanceMeters>NAN</DistanceMeters>
          </Trackpoint>
          <Trackpoint>
            <Time>2022-07-09T12:47:06.000Z</Time>
            <Position>
              <LatitudeDegrees>43.32342398352921009063720703125</LatitudeDegrees>
              <LongitudeDegrees>-1.97492432780563831329345703125</LongitudeDegrees>
            </Position>
            <AltitudeMeters>14.19999980926513671875</AltitudeMeters>
            <DistanceMeters>NAN</DistanceMeters>
          </Trackpoint>
          <Trackpoint>
            <Time>2022-07-09T12:47:09.000Z</Time>
            <Position>
              <LatitudeDegrees>43.32343907095491886138916015625</LatitudeDegrees>
              <LongitudeDegrees>-1.97494897060096263885498046875</LongitudeDegrees>
            </Position>
            <AltitudeMeters>14.19999980926513671875</AltitudeMeters>
            <DistanceMeters>NAN</DistanceMeters>
          </Trackpoint>
          <Trackpoint>
            <Time>2022-07-09T12:47:10.000Z</Time>
            <Position>
              <LatitudeDegrees>43.32337654195725917816162109375</LatitudeDegrees>
              <LongitudeDegrees>-1.974967829883098602294921875</LongitudeDegrees>
            </Position>
            <AltitudeMeters>14.3999996185302734375</AltitudeMeters>
            <DistanceMeters>NAN</DistanceMeters>
          </Trackpoint>
          <Trackpoint>
            <Time>2022-07-09T12:47:11.000Z</Time>
            <Position>
              <LatitudeDegrees>43.3233154378831386566162109375</LatitudeDegrees>
              <LongitudeDegrees>-1.97496707551181316375732421875</LongitudeDegrees>
            </Position>
            <AltitudeMeters>14.6000003814697265625</AltitudeMeters>
            <DistanceMeters>NAN</DistanceMeters>
          </Trackpoint>
          <Trackpoint>
            <Time>2022-07-09T12:47:12.000Z</Time>
            <Position>
              <LatitudeDegrees>43.32327126525342464447021484375</LatitudeDegrees>
              <LongitudeDegrees>-1.9749596156179904937744140625</LongitudeDegrees>
            </Position>
            <AltitudeMeters>14.6000003814697265625</AltitudeMeters>
            <DistanceMeters>NAN</DistanceMeters>
          </Trackpoint>
          <Trackpoint>
            <Time>2022-07-09T12:47:17.000Z</Time>
            <Position>
              <LatitudeDegrees>43.32326103933155536651611328125</LatitudeDegrees>
              <LongitudeDegrees>-1.97475283406674861907958984375</LongitudeDegrees>
            </Position>
            <AltitudeMeters>14.3999996185302734375</AltitudeMeters>
            <DistanceMeters>NAN</DistanceMeters>
          </Trackpoint>
          <Trackpoint>
            <Time>2022-07-09T12:47:19.000Z</Time>
            <Position>
              <LatitudeDegrees>43.32322038710117340087890625</LatitudeDegrees>
              <LongitudeDegrees>-1.97471779771149158477783203125</LongitudeDegrees>
            </Position>
            <AltitudeMeters>14.3999996185302734375</AltitudeMeters>
            <DistanceMeters>NAN</DistanceMeters>
          </Trackpoint>
          <Trackpoint>
            <Time>2022-07-09T12:47:21.000Z</Time>
            <Position>
              <LatitudeDegrees>43.32316028885543346405029296875</LatitudeDegrees>
              <LongitudeDegrees>-1.97468183934688568115234375</LongitudeDegrees>
            </Position>
            <AltitudeMeters>14.19999980926513671875</AltitudeMeters>
            <DistanceMeters>NAN</DistanceMeters>
          </Trackpoint>
          <Trackpoint>
            <Time>2022-07-09T12:47:25.000Z</Time>
            <Position>
              <LatitudeDegrees>43.32303858362138271331787109375</LatitudeDegrees>
              <LongitudeDegrees>-1.97461268864572048187255859375</LongitudeDegrees>
            </Position>
            <AltitudeMeters>14.19999980926513671875</AltitudeMeters>
            <DistanceMeters>NAN</DistanceMeters>
          </Trackpoint>
          <Trackpoint>
            <Time>2022-07-09T12:47:26.000Z</Time>
            <Position>
              <LatitudeDegrees>43.3230418525636196136474609375</LatitudeDegrees>
              <LongitudeDegrees>-1.97454563342034816741943359375</LongitudeDegrees>
            </Position>
            <AltitudeMeters>14.19999980926513671875</AltitudeMeters>
            <DistanceMeters>NAN</DistanceMeters>
          </Trackpoint>
          <Trackpoint>
            <Time>2022-07-09T12:47:30.000Z</Time>
            <Position>
              <LatitudeDegrees>43.32302986644208431243896484375</LatitudeDegrees>
              <LongitudeDegrees>-1.97437430731952190399169921875</LongitudeDegrees>
            </Position>
            <AltitudeMeters>14.19999980926513671875</AltitudeMeters>
            <DistanceMeters>NAN</DistanceMeters>
          </Trackpoint>
          <Trackpoint>
            <Time>2022-07-09T12:47:31.000Z</Time>
            <Position>
              <LatitudeDegrees>43.32300178706645965576171875</LatitudeDegrees>
              <LongitudeDegrees>-1.97435469366610050201416015625</LongitudeDegrees>
            </Position>
            <AltitudeMeters>14.19999980926513671875</AltitudeMeters>
            <DistanceMeters>NAN</DistanceMeters>
          </Trackpoint>
          <Trackpoint>
            <Time>2022-07-09T12:47:34.000Z</Time>
            <Position>
              <LatitudeDegrees>43.32293682731688022613525390625</LatitudeDegrees>
              <LongitudeDegrees>-1.97433256544172763824462890625</LongitudeDegrees>
            </Position>
            <AltitudeMeters>14.3999996185302734375</AltitudeMeters>
            <DistanceMeters>NAN</DistanceMeters>
          </Trackpoint>
          <Trackpoint>
            <Time>2022-07-09T12:47:35.000Z</Time>
            <Position>
              <LatitudeDegrees>43.32291939295828342437744140625</LatitudeDegrees>
              <LongitudeDegrees>-1.9743487425148487091064453125</LongitudeDegrees>
            </Position>
            <AltitudeMeters>14.3999996185302734375</AltitudeMeters>
            <DistanceMeters>NAN</DistanceMeters>
          </Trackpoint>
          <Trackpoint>
            <Time>2022-07-09T12:47:37.000Z</Time>
            <Position>
              <LatitudeDegrees>43.32291453145444393157958984375</LatitudeDegrees>
              <LongitudeDegrees>-1.97435217909514904022216796875</LongitudeDegrees>
            </Position>
            <AltitudeMeters>14.3999996185302734375</AltitudeMeters>
            <DistanceMeters>NAN</DistanceMeters>
          </Trackpoint>
          <Trackpoint>
            <Time>2022-07-09T12:47:38.000Z</Time>
            <Position>
              <LatitudeDegrees>43.32291805185377597808837890625</LatitudeDegrees>
              <LongitudeDegrees>-1.9743665121495723724365234375</LongitudeDegrees>
            </Position>
            <AltitudeMeters>14.3999996185302734375</AltitudeMeters>
            <DistanceMeters>NAN</DistanceMeters>
          </Trackpoint>
          <Trackpoint>
            <Time>2022-07-09T12:47:41.000Z</Time>
            <Position>
              <LatitudeDegrees>43.32294872961938381195068359375</LatitudeDegrees>
              <LongitudeDegrees>-1.9743584655225276947021484375</LongitudeDegrees>
            </Position>
            <AltitudeMeters>14.3999996185302734375</AltitudeMeters>
            <DistanceMeters>NAN</DistanceMeters>
          </Trackpoint>
          <Trackpoint>
            <Time>2022-07-09T12:47:43.000Z</Time>
            <Position>
              <LatitudeDegrees>43.32292676903307437896728515625</LatitudeDegrees>
              <LongitudeDegrees>-1.97435536421835422515869140625</LongitudeDegrees>
            </Position>
            <AltitudeMeters>14.19999980926513671875</AltitudeMeters>
            <DistanceMeters>NAN</DistanceMeters>
          </Trackpoint>
          <Trackpoint>
            <Time>2022-07-09T12:47:47.000Z</Time>
            <Position>
              <LatitudeDegrees>43.32297873683273792266845703125</LatitudeDegrees>
              <LongitudeDegrees>-1.97426131926476955413818359375</LongitudeDegrees>
            </Position>
            <AltitudeMeters>14.19999980926513671875</AltitudeMeters>
            <DistanceMeters>NAN</DistanceMeters>
          </Trackpoint>
          <Trackpoint>
            <Time>2022-07-09T12:47:51.000Z</Time>
            <Position>
              <LatitudeDegrees>43.32303439266979694366455078125</LatitudeDegrees>
              <LongitudeDegrees>-1.97407071478664875030517578125</LongitudeDegrees>
            </Position>
            <AltitudeMeters>14.3999996185302734375</AltitudeMeters>
            <DistanceMeters>NAN</DistanceMeters>
          </Trackpoint>
          <Trackpoint>
            <Time>2022-07-09T12:47:58.000Z</Time>
            <Position>
              <LatitudeDegrees>43.32314469851553440093994140625</LatitudeDegrees>
              <LongitudeDegrees>-1.9738914258778095245361328125</LongitudeDegrees>
            </Position>
            <AltitudeMeters>14.6000003814697265625</AltitudeMeters>
            <DistanceMeters>NAN</DistanceMeters>
          </Trackpoint>
          <Trackpoint>
            <Time>2022-07-09T12:48:04.000Z</Time>
            <Position>
              <LatitudeDegrees>43.32324544899165630340576171875</LatitudeDegrees>
              <LongitudeDegrees>-1.9736845605075359344482421875</LongitudeDegrees>
            </Position>
            <AltitudeMeters>14.6000003814697265625</AltitudeMeters>
            <DistanceMeters>NAN</DistanceMeters>
          </Trackpoint>
          <Trackpoint>
            <Time>2022-07-09T12:48:10.000Z</Time>
            <Position>
              <LatitudeDegrees>43.3233456127345561981201171875</LatitudeDegrees>
              <LongitudeDegrees>-1.973473168909549713134765625</LongitudeDegrees>
            </Position>
            <AltitudeMeters>14.6000003814697265625</AltitudeMeters>
            <DistanceMeters>NAN</DistanceMeters>
          </Trackpoint>
          <Trackpoint>
            <Time>2022-07-09T12:48:17.000Z</Time>
            <Position>
              <LatitudeDegrees>43.32348098047077655792236328125</LatitudeDegrees>
              <LongitudeDegrees>-1.9732837378978729248046875</LongitudeDegrees>
            </Position>
            <AltitudeMeters>14.6000003814697265625</AltitudeMeters>
            <DistanceMeters>NAN</DistanceMeters>
          </Trackpoint>
          <Trackpoint>
            <Time>2022-07-09T12:48:22.000Z</Time>
            <Position>
              <LatitudeDegrees>43.32357184030115604400634765625</LatitudeDegrees>
              <LongitudeDegrees>-1.97313688695430755615234375</LongitudeDegrees>
            </Position>
            <AltitudeMeters>14.6000003814697265625</AltitudeMeters>
            <DistanceMeters>NAN</DistanceMeters>
          </Trackpoint>
          <Trackpoint>
            <Time>2022-07-09T12:48:30.000Z</Time>
            <Position>
              <LatitudeDegrees>43.32374475896358489990234375</LatitudeDegrees>
              <LongitudeDegrees>-1.97295558638870716094970703125</LongitudeDegrees>
            </Position>
            <AltitudeMeters>14.3999996185302734375</AltitudeMeters>
            <DistanceMeters>NAN</DistanceMeters>
          </Trackpoint>
          <Trackpoint>
            <Time>2022-07-09T12:48:33.000Z</Time>
            <Position>
              <LatitudeDegrees>43.32381994463503360748291015625</LatitudeDegrees>
              <LongitudeDegrees>-1.97284343652427196502685546875</LongitudeDegrees>
            </Position>
            <AltitudeMeters>14.6000003814697265625</AltitudeMeters>
            <DistanceMeters>NAN</DistanceMeters>
          </Trackpoint>
          <Trackpoint>
            <Time>2022-07-09T12:48:37.000Z</Time>
            <Position>
              <LatitudeDegrees>43.3239028416574001312255859375</LatitudeDegrees>
              <LongitudeDegrees>-1.972681246697902679443359375</LongitudeDegrees>
            </Position>
            <AltitudeMeters>14.6000003814697265625</AltitudeMeters>
            <DistanceMeters>NAN</DistanceMeters>
          </Trackpoint>
          <Trackpoint>
            <Time>2022-07-09T12:48:41.000Z</Time>
            <Position>
              <LatitudeDegrees>43.323948942124843597412109375</LatitudeDegrees>
              <LongitudeDegrees>-1.972604803740978240966796875</LongitudeDegrees>
            </Position>
            <AltitudeMeters>14.3999996185302734375</AltitudeMeters>
            <DistanceMeters>NAN</DistanceMeters>
          </Trackpoint>
          <Trackpoint>
            <Time>2022-07-09T12:48:47.000Z</Time>
            <Position>
              <LatitudeDegrees>43.3240168355405330657958984375</LatitudeDegrees>
              <LongitudeDegrees>-1.97262986563146114349365234375</LongitudeDegrees>
            </Position>
            <AltitudeMeters>14.19999980926513671875</AltitudeMeters>
            <DistanceMeters>NAN</DistanceMeters>
          </Trackpoint>
          <Trackpoint>
            <Time>2022-07-09T12:48:48.000Z</Time>
            <Position>
              <LatitudeDegrees>43.32401960156857967376708984375</LatitudeDegrees>
              <LongitudeDegrees>-1.97262936271727085113525390625</LongitudeDegrees>
            </Position>
            <AltitudeMeters>14</AltitudeMeters>
            <DistanceMeters>NAN</DistanceMeters>
          </Trackpoint>
          <Trackpoint>
            <Time>2022-07-09T12:48:58.000Z</Time>
            <Position>
              <LatitudeDegrees>43.3240674622356891632080078125</LatitudeDegrees>
              <LongitudeDegrees>-1.97268283925950527191162109375</LongitudeDegrees>
            </Position>
            <AltitudeMeters>13.80000019073486328125</AltitudeMeters>
            <DistanceMeters>NAN</DistanceMeters>
          </Trackpoint>
          <Trackpoint>
            <Time>2022-07-09T12:49:01.000Z</Time>
            <Position>
              <LatitudeDegrees>43.32410526461899280548095703125</LatitudeDegrees>
              <LongitudeDegrees>-1.9727310352027416229248046875</LongitudeDegrees>
            </Position>
            <AltitudeMeters>13.6000003814697265625</AltitudeMeters>
            <DistanceMeters>NAN</DistanceMeters>
          </Trackpoint>
          <Trackpoint>
            <Time>2022-07-09T12:49:02.000Z</Time>
            <Position>
              <LatitudeDegrees>43.3241180889308452606201171875</LatitudeDegrees>
              <LongitudeDegrees>-1.972760371863842010498046875</LongitudeDegrees>
            </Position>
            <AltitudeMeters>13.80000019073486328125</AltitudeMeters>
            <DistanceMeters>NAN</DistanceMeters>
          </Trackpoint>
          <Trackpoint>
            <Time>2022-07-09T12:49:05.000Z</Time>
            <Position>
              <LatitudeDegrees>43.32414147444069385528564453125</LatitudeDegrees>
              <LongitudeDegrees>-1.97283388115465641021728515625</LongitudeDegrees>
            </Position>
            <AltitudeMeters>13.80000019073486328125</AltitudeMeters>
            <DistanceMeters>NAN</DistanceMeters>
          </Trackpoint>
          <Trackpoint>
            <Time>2022-07-09T12:49:07.000Z</Time>
            <Position>
              <LatitudeDegrees>43.32416175864636898040771484375</LatitudeDegrees>
              <LongitudeDegrees>-1.97284427471458911895751953125</LongitudeDegrees>
            </Position>
            <AltitudeMeters>13.80000019073486328125</AltitudeMeters>
            <DistanceMeters>NAN</DistanceMeters>
          </Trackpoint>
          <Trackpoint>
            <Time>2022-07-09T12:49:09.000Z</Time>
            <Position>
              <LatitudeDegrees>43.32417852245271205902099609375</LatitudeDegrees>
              <LongitudeDegrees>-1.972841508686542510986328125</LongitudeDegrees>
            </Position>
            <AltitudeMeters>13.80000019073486328125</AltitudeMeters>
            <DistanceMeters>NAN</DistanceMeters>
          </Trackpoint>
          <Trackpoint>
            <Time>2022-07-09T12:49:12.000Z</Time>
            <Position>
              <LatitudeDegrees>43.32420685328543186187744140625</LatitudeDegrees>
              <LongitudeDegrees>-1.97281091473996639251708984375</LongitudeDegrees>
            </Position>
            <AltitudeMeters>13.6000003814697265625</AltitudeMeters>
            <DistanceMeters>NAN</DistanceMeters>
          </Trackpoint>
          <Trackpoint>
            <Time>2022-07-09T12:49:14.000Z</Time>
            <Position>
              <LatitudeDegrees>43.32422194071114063262939453125</LatitudeDegrees>
              <LongitudeDegrees>-1.97280923835933208465576171875</LongitudeDegrees>
            </Position>
            <AltitudeMeters>13.3999996185302734375</AltitudeMeters>
            <DistanceMeters>NAN</DistanceMeters>
          </Trackpoint>
          <Trackpoint>
            <Time>2022-07-09T12:49:16.000Z</Time>
            <Position>
              <LatitudeDegrees>43.3242226950824260711669921875</LatitudeDegrees>
              <LongitudeDegrees>-1.97279163636267185211181640625</LongitudeDegrees>
            </Position>
            <AltitudeMeters>13.3999996185302734375</AltitudeMeters>
            <DistanceMeters>NAN</DistanceMeters>
          </Trackpoint>
          <Trackpoint>
            <Time>2022-07-09T12:49:32.000Z</Time>
            <Position>
              <LatitudeDegrees>43.32428161986172199249267578125</LatitudeDegrees>
              <LongitudeDegrees>-1.97268183343112468719482421875</LongitudeDegrees>
            </Position>
            <AltitudeMeters>13.19999980926513671875</AltitudeMeters>
            <DistanceMeters>NAN</DistanceMeters>
          </Trackpoint>
          <Trackpoint>
            <Time>2022-07-09T12:49:33.000Z</Time>
            <Position>
              <LatitudeDegrees>43.3242944441735744476318359375</LatitudeDegrees>
              <LongitudeDegrees>-1.97266255505383014678955078125</LongitudeDegrees>
            </Position>
            <AltitudeMeters>13.19999980926513671875</AltitudeMeters>
            <DistanceMeters>NAN</DistanceMeters>
          </Trackpoint>
          <Trackpoint>
            <Time>2022-07-09T12:49:40.000Z</Time>
            <Position>
              <LatitudeDegrees>43.324364684522151947021484375</LatitudeDegrees>
              <LongitudeDegrees>-1.972566582262516021728515625</LongitudeDegrees>
            </Position>
            <AltitudeMeters>13.19999980926513671875</AltitudeMeters>
            <DistanceMeters>NAN</DistanceMeters>
          </Trackpoint>
          <Trackpoint>
            <Time>2022-07-09T12:49:42.000Z</Time>
            <Position>
              <LatitudeDegrees>43.32438153214752674102783203125</LatitudeDegrees>
              <LongitudeDegrees>-1.97254587896168231964111328125</LongitudeDegrees>
            </Position>
            <AltitudeMeters>13.19999980926513671875</AltitudeMeters>
            <DistanceMeters>NAN</DistanceMeters>
          </Trackpoint>
          <Trackpoint>
            <Time>2022-07-09T12:49:44.000Z</Time>
            <Position>
              <LatitudeDegrees>43.3243806101381778717041015625</LatitudeDegrees>
              <LongitudeDegrees>-1.97252542711794376373291015625</LongitudeDegrees>
            </Position>
            <AltitudeMeters>13.19999980926513671875</AltitudeMeters>
            <DistanceMeters>NAN</DistanceMeters>
          </Trackpoint>
          <Trackpoint>
            <Time>2022-07-09T12:49:46.000Z</Time>
            <Position>
              <LatitudeDegrees>43.32438287325203418731689453125</LatitudeDegrees>
              <LongitudeDegrees>-1.9725184701383113861083984375</LongitudeDegrees>
            </Position>
            <AltitudeMeters>13.19999980926513671875</AltitudeMeters>
            <DistanceMeters>NAN</DistanceMeters>
          </Trackpoint>
          <Trackpoint>
            <Time>2022-07-09T12:52:19.000Z</Time>
            <Position>
              <LatitudeDegrees>43.32431137561798095703125</LatitudeDegrees>
              <LongitudeDegrees>-1.97186551988124847412109375</LongitudeDegrees>
            </Position>
            <AltitudeMeters>13.19999980926513671875</AltitudeMeters>
            <DistanceMeters>NAN</DistanceMeters>
          </Trackpoint>
          <Trackpoint>
            <Time>2022-07-09T12:52:20.000Z</Time>
            <Position>
              <LatitudeDegrees>43.32430860958993434906005859375</LatitudeDegrees>
              <LongitudeDegrees>-1.9718619994819164276123046875</LongitudeDegrees>
            </Position>
            <AltitudeMeters>13.19999980926513671875</AltitudeMeters>
            <DistanceMeters>NAN</DistanceMeters>
          </Trackpoint>
          <Trackpoint>
            <Time>2022-07-09T12:52:25.000Z</Time>
            <Position>
              <LatitudeDegrees>43.32426569424569606781005859375</LatitudeDegrees>
              <LongitudeDegrees>-1.97185940109193325042724609375</LongitudeDegrees>
            </Position>
            <AltitudeMeters>13.6000003814697265625</AltitudeMeters>
            <DistanceMeters>NAN</DistanceMeters>
          </Trackpoint>
          <Trackpoint>
            <Time>2022-07-09T12:52:27.000Z</Time>
            <Position>
              <LatitudeDegrees>43.3242706395685672760009765625</LatitudeDegrees>
              <LongitudeDegrees>-1.97184498421847820281982421875</LongitudeDegrees>
            </Position>
            <AltitudeMeters>13.6000003814697265625</AltitudeMeters>
            <DistanceMeters>NAN</DistanceMeters>
          </Trackpoint>
          <Trackpoint>
            <Time>2022-07-09T12:52:29.000Z</Time>
            <Position>
              <LatitudeDegrees>43.3242669515311717987060546875</LatitudeDegrees>
              <LongitudeDegrees>-1.97182838805019855499267578125</LongitudeDegrees>
            </Position>
            <AltitudeMeters>13.3999996185302734375</AltitudeMeters>
            <DistanceMeters>NAN</DistanceMeters>
          </Trackpoint>
          <Trackpoint>
            <Time>2022-07-09T12:52:31.000Z</Time>
            <Position>
              <LatitudeDegrees>43.32423401065170764923095703125</LatitudeDegrees>
              <LongitudeDegrees>-1.97180340997874736785888671875</LongitudeDegrees>
            </Position>
            <AltitudeMeters>13.3999996185302734375</AltitudeMeters>
            <DistanceMeters>NAN</DistanceMeters>
          </Trackpoint>
          <Trackpoint>
            <Time>2022-07-09T12:56:57.000Z</Time>
            <Position>
              <LatitudeDegrees>43.32487673498690128326416015625</LatitudeDegrees>
              <LongitudeDegrees>-1.9722901470959186553955078125</LongitudeDegrees>
            </Position>
            <AltitudeMeters>14.6000003814697265625</AltitudeMeters>
            <DistanceMeters>NAN</DistanceMeters>
          </Trackpoint>
          <Trackpoint>
            <Time>2022-07-09T12:56:58.000Z</Time>
            <Position>
              <LatitudeDegrees>43.3248302154242992401123046875</LatitudeDegrees>
              <LongitudeDegrees>-1.97227430529892444610595703125</LongitudeDegrees>
            </Position>
            <AltitudeMeters>14.6000003814697265625</AltitudeMeters>
            <DistanceMeters>NAN</DistanceMeters>
          </Trackpoint>
          <Trackpoint>
            <Time>2022-07-09T12:56:59.000Z</Time>
            <Position>
              <LatitudeDegrees>43.324734158813953399658203125</LatitudeDegrees>
              <LongitudeDegrees>-1.972231306135654449462890625</LongitudeDegrees>
            </Position>
            <AltitudeMeters>14.6000003814697265625</AltitudeMeters>
            <DistanceMeters>NAN</DistanceMeters>
          </Trackpoint>
          <Trackpoint>
            <Time>2022-07-09T12:57:01.000Z</Time>
            <Position>
              <LatitudeDegrees>43.324721418321132659912109375</LatitudeDegrees>
              <LongitudeDegrees>-1.9722291268408298492431640625</LongitudeDegrees>
            </Position>
            <AltitudeMeters>14.6000003814697265625</AltitudeMeters>
            <DistanceMeters>NAN</DistanceMeters>
          </Trackpoint>
          <Trackpoint>
            <Time>2022-07-09T12:57:03.000Z</Time>
            <Position>
              <LatitudeDegrees>43.3246836997568607330322265625</LatitudeDegrees>
              <LongitudeDegrees>-1.97212510742247104644775390625</LongitudeDegrees>
            </Position>
            <AltitudeMeters>14.6000003814697265625</AltitudeMeters>
            <DistanceMeters>NAN</DistanceMeters>
          </Trackpoint>
          <Trackpoint>
            <Time>2022-07-09T12:57:08.000Z</Time>
            <Position>
              <LatitudeDegrees>43.32455788739025592803955078125</LatitudeDegrees>
              <LongitudeDegrees>-1.97213281877338886260986328125</LongitudeDegrees>
            </Position>
            <AltitudeMeters>13.80000019073486328125</AltitudeMeters>
            <DistanceMeters>NAN</DistanceMeters>
          </Trackpoint>
          <Trackpoint>
            <Time>2022-07-09T12:57:12.000Z</Time>
            <Position>
              <LatitudeDegrees>43.3243236131966114044189453125</LatitudeDegrees>
              <LongitudeDegrees>-1.9719270430505275726318359375</LongitudeDegrees>
            </Position>
            <AltitudeMeters>13.6000003814697265625</AltitudeMeters>
            <DistanceMeters>NAN</DistanceMeters>
          </Trackpoint>
          <Trackpoint>
            <Time>2022-07-09T12:57:14.000Z</Time>
            <Position>
              <LatitudeDegrees>43.32431741058826446533203125</LatitudeDegrees>
              <LongitudeDegrees>-1.97194942273199558258056640625</LongitudeDegrees>
            </Position>
            <AltitudeMeters>13.6000003814697265625</AltitudeMeters>
            <DistanceMeters>NAN</DistanceMeters>
          </Trackpoint>
          <Trackpoint>
            <Time>2022-07-09T12:57:15.000Z</Time>
            <Position>
              <LatitudeDegrees>43.32431045360863208770751953125</LatitudeDegrees>
              <LongitudeDegrees>-1.971953026950359344482421875</LongitudeDegrees>
            </Position>
            <AltitudeMeters>13.6000003814697265625</AltitudeMeters>
            <DistanceMeters>NAN</DistanceMeters>
          </Trackpoint>
          <Trackpoint>
            <Time>2022-07-09T13:01:55.000Z</Time>
            <Position>
              <LatitudeDegrees>43.324298299849033355712890625</LatitudeDegrees>
              <LongitudeDegrees>-1.97189033031463623046875</LongitudeDegrees>
            </Position>
            <AltitudeMeters>15.3999996185302734375</AltitudeMeters>
            <DistanceMeters>NAN</DistanceMeters>
          </Trackpoint>
          <Trackpoint>
            <Time>2022-07-09T13:01:56.000Z</Time>
            <Position>
              <LatitudeDegrees>43.3242967911064624786376953125</LatitudeDegrees>
              <LongitudeDegrees>-1.9718787632882595062255859375</LongitudeDegrees>
            </Position>
            <AltitudeMeters>15.3999996185302734375</AltitudeMeters>
            <DistanceMeters>NAN</DistanceMeters>
          </Trackpoint>
          <Trackpoint>
            <Time>2022-07-09T13:02:11.000Z</Time>
            <Position>
              <LatitudeDegrees>43.32418422214686870574951171875</LatitudeDegrees>
              <LongitudeDegrees>-1.97180693037807941436767578125</LongitudeDegrees>
            </Position>
            <AltitudeMeters>15.3999996185302734375</AltitudeMeters>
            <DistanceMeters>NAN</DistanceMeters>
          </Trackpoint>
          <Trackpoint>
            <Time>2022-07-09T13:02:12.000Z</Time>
            <Position>
              <LatitudeDegrees>43.32417927682399749755859375</LatitudeDegrees>
              <LongitudeDegrees>-1.9717744924128055572509765625</LongitudeDegrees>
            </Position>
            <AltitudeMeters>15.3999996185302734375</AltitudeMeters>
            <DistanceMeters>NAN</DistanceMeters>
          </Trackpoint>
          <Trackpoint>
            <Time>2022-07-09T13:02:13.000Z</Time>
            <Position>
              <LatitudeDegrees>43.32417768426239490509033203125</LatitudeDegrees>
              <LongitudeDegrees>-1.97173384018242359161376953125</LongitudeDegrees>
            </Position>
            <AltitudeMeters>15.3999996185302734375</AltitudeMeters>
            <DistanceMeters>NAN</DistanceMeters>
          </Trackpoint>
          <Trackpoint>
            <Time>2022-07-09T13:02:16.000Z</Time>
            <Position>
              <LatitudeDegrees>43.32413812167942523956298828125</LatitudeDegrees>
              <LongitudeDegrees>-1.9716413877904415130615234375</LongitudeDegrees>
            </Position>
            <AltitudeMeters>15.3999996185302734375</AltitudeMeters>
            <DistanceMeters>NAN</DistanceMeters>
          </Trackpoint>
          <Trackpoint>
            <Time>2022-07-09T13:02:18.000Z</Time>
            <Position>
              <LatitudeDegrees>43.324180282652378082275390625</LatitudeDegrees>
              <LongitudeDegrees>-1.97168589569628238677978515625</LongitudeDegrees>
            </Position>
            <AltitudeMeters>15.3999996185302734375</AltitudeMeters>
            <DistanceMeters>NAN</DistanceMeters>
          </Trackpoint>
          <Trackpoint>
            <Time>2022-07-09T13:02:39.000Z</Time>
            <Position>
              <LatitudeDegrees>43.32425060681998729705810546875</LatitudeDegrees>
              <LongitudeDegrees>-1.97182218544185161590576171875</LongitudeDegrees>
            </Position>
            <AltitudeMeters>15.3999996185302734375</AltitudeMeters>
            <DistanceMeters>NAN</DistanceMeters>
          </Trackpoint>
          <Trackpoint>
            <Time>2022-07-09T13:02:43.000Z</Time>
            <Position>
              <LatitudeDegrees>43.32426183857023715972900390625</LatitudeDegrees>
              <LongitudeDegrees>-1.971841044723987579345703125</LongitudeDegrees>
            </Position>
            <AltitudeMeters>15.3999996185302734375</AltitudeMeters>
            <DistanceMeters>NAN</DistanceMeters>
          </Trackpoint>
          <Trackpoint>
            <Time>2022-07-09T13:02:44.000Z</Time>
            <Position>
              <LatitudeDegrees>43.32427709363400936126708984375</LatitudeDegrees>
              <LongitudeDegrees>-1.97186074219644069671630859375</LongitudeDegrees>
            </Position>
            <AltitudeMeters>15.3999996185302734375</AltitudeMeters>
            <DistanceMeters>NAN</DistanceMeters>
          </Trackpoint>
          <Trackpoint>
            <Time>2022-07-09T13:02:58.000Z</Time>
            <Position>
              <LatitudeDegrees>43.32424591295421123504638671875</LatitudeDegrees>
              <LongitudeDegrees>-1.97187767364084720611572265625</LongitudeDegrees>
            </Position>
            <AltitudeMeters>16</AltitudeMeters>
            <DistanceMeters>NAN</DistanceMeters>
          </Trackpoint>
          <Trackpoint>
            <Time>2022-07-09T13:02:59.000Z</Time>
            <Position>
              <LatitudeDegrees>43.32425379194319248199462890625</LatitudeDegrees>
              <LongitudeDegrees>-1.9718449003994464874267578125</LongitudeDegrees>
            </Position>
            <AltitudeMeters>16</AltitudeMeters>
            <DistanceMeters>NAN</DistanceMeters>
          </Trackpoint>
          <Trackpoint>
            <Time>2022-07-09T13:03:00.000Z</Time>
            <Position>
              <LatitudeDegrees>43.32425563596189022064208984375</LatitudeDegrees>
              <LongitudeDegrees>-1.97181497700512409210205078125</LongitudeDegrees>
            </Position>
            <AltitudeMeters>16</AltitudeMeters>
            <DistanceMeters>NAN</DistanceMeters>
          </Trackpoint>
          <Trackpoint>
            <Time>2022-07-09T13:11:55.000Z</Time>
            <Position>
              <LatitudeDegrees>43.32422344945371150970458984375</LatitudeDegrees>
              <LongitudeDegrees>-1.9717376120388507843017578125</LongitudeDegrees>
            </Position>
            <AltitudeMeters>17.6000003814697265625</AltitudeMeters>
            <DistanceMeters>NAN</DistanceMeters>
          </Trackpoint>
          <Trackpoint>
            <Time>2022-07-09T13:11:56.000Z</Time>
            <Position>
              <LatitudeDegrees>43.32419964484870433807373046875</LatitudeDegrees>
              <LongitudeDegrees>-1.9717268832027912139892578125</LongitudeDegrees>
            </Position>
            <AltitudeMeters>17.6000003814697265625</AltitudeMeters>
            <DistanceMeters>NAN</DistanceMeters>
          </Trackpoint>
          <Trackpoint>
            <Time>2022-07-09T13:11:58.000Z</Time>
            <Position>
              <LatitudeDegrees>43.3241925202310085296630859375</LatitudeDegrees>
              <LongitudeDegrees>-1.97174389846622943878173828125</LongitudeDegrees>
            </Position>
            <AltitudeMeters>17.6000003814697265625</AltitudeMeters>
            <DistanceMeters>NAN</DistanceMeters>
          </Trackpoint>
          <Trackpoint>
            <Time>2022-07-09T13:12:02.000Z</Time>
            <Position>
              <LatitudeDegrees>43.3241920173168182373046875</LatitudeDegrees>
              <LongitudeDegrees>-1.97178245522081851959228515625</LongitudeDegrees>
            </Position>
            <AltitudeMeters>17.799999237060546875</AltitudeMeters>
            <DistanceMeters>NAN</DistanceMeters>
          </Trackpoint>
          <Trackpoint>
            <Time>2022-07-09T13:12:07.000Z</Time>
            <Position>
              <LatitudeDegrees>43.32418153993785381317138671875</LatitudeDegrees>
              <LongitudeDegrees>-1.9718100316822528839111328125</LongitudeDegrees>
            </Position>
            <AltitudeMeters>17.799999237060546875</AltitudeMeters>
            <DistanceMeters>NAN</DistanceMeters>
          </Trackpoint>
          <Trackpoint>
            <Time>2022-07-09T13:12:13.000Z</Time>
            <Position>
              <LatitudeDegrees>43.32419394515454769134521484375</LatitudeDegrees>
              <LongitudeDegrees>-1.97182335890829563140869140625</LongitudeDegrees>
            </Position>
            <AltitudeMeters>17.3999996185302734375</AltitudeMeters>
            <DistanceMeters>NAN</DistanceMeters>
          </Trackpoint>
          <Trackpoint>
            <Time>2022-07-09T13:12:17.000Z</Time>
            <Position>
              <LatitudeDegrees>43.32415287382900714874267578125</LatitudeDegrees>
              <LongitudeDegrees>-1.97183676995337009429931640625</LongitudeDegrees>
            </Position>
            <AltitudeMeters>17.3999996185302734375</AltitudeMeters>
            <DistanceMeters>NAN</DistanceMeters>
          </Trackpoint>
          <Trackpoint>
            <Time>2022-07-09T13:12:18.000Z</Time>
            <Position>
              <LatitudeDegrees>43.3241415582597255706787109375</LatitudeDegrees>
              <LongitudeDegrees>-1.9718586467206478118896484375</LongitudeDegrees>
            </Position>
            <AltitudeMeters>17.3999996185302734375</AltitudeMeters>
            <DistanceMeters>NAN</DistanceMeters>
          </Trackpoint>
          <Trackpoint>
            <Time>2022-07-09T13:12:23.000Z</Time>
            <Position>
              <LatitudeDegrees>43.3241174183785915374755859375</LatitudeDegrees>
              <LongitudeDegrees>-1.97202234528958797454833984375</LongitudeDegrees>
            </Position>
            <AltitudeMeters>16.799999237060546875</AltitudeMeters>
            <DistanceMeters>NAN</DistanceMeters>
          </Trackpoint>
          <Trackpoint>
            <Time>2022-07-09T13:12:24.000Z</Time>
            <Position>
              <LatitudeDegrees>43.32410543225705623626708984375</LatitudeDegrees>
              <LongitudeDegrees>-1.9720579683780670166015625</LongitudeDegrees>
            </Position>
            <AltitudeMeters>16.6000003814697265625</AltitudeMeters>
            <DistanceMeters>NAN</DistanceMeters>
          </Trackpoint>
          <Trackpoint>
            <Time>2022-07-09T13:12:25.000Z</Time>
            <Position>
              <LatitudeDegrees>43.3241026662290096282958984375</LatitudeDegrees>
              <LongitudeDegrees>-1.97208705358207225799560546875</LongitudeDegrees>
            </Position>
            <AltitudeMeters>16.6000003814697265625</AltitudeMeters>
            <DistanceMeters>NAN</DistanceMeters>
          </Trackpoint>
          <Trackpoint>
            <Time>2022-07-09T13:12:27.000Z</Time>
            <Position>
              <LatitudeDegrees>43.3240838907659053802490234375</LatitudeDegrees>
              <LongitudeDegrees>-1.97215947322547435760498046875</LongitudeDegrees>
            </Position>
            <AltitudeMeters>16.3999996185302734375</AltitudeMeters>
            <DistanceMeters>NAN</DistanceMeters>
          </Trackpoint>
          <Trackpoint>
            <Time>2022-07-09T13:12:29.000Z</Time>
            <Position>
              <LatitudeDegrees>43.32406260073184967041015625</LatitudeDegrees>
              <LongitudeDegrees>-1.9721707887947559356689453125</LongitudeDegrees>
            </Position>
            <AltitudeMeters>16.3999996185302734375</AltitudeMeters>
            <DistanceMeters>NAN</DistanceMeters>
          </Trackpoint>
          <Trackpoint>
            <Time>2022-07-09T13:12:33.000Z</Time>
            <Position>
              <LatitudeDegrees>43.32402027212083339691162109375</LatitudeDegrees>
              <LongitudeDegrees>-1.972272880375385284423828125</LongitudeDegrees>
            </Position>
            <AltitudeMeters>16.6000003814697265625</AltitudeMeters>
            <DistanceMeters>NAN</DistanceMeters>
          </Trackpoint>
          <Trackpoint>
            <Time>2022-07-09T13:12:40.000Z</Time>
            <Position>
              <LatitudeDegrees>43.3238773606717586517333984375</LatitudeDegrees>
              <LongitudeDegrees>-1.9725047238171100616455078125</LongitudeDegrees>
            </Position>
            <AltitudeMeters>16.6000003814697265625</AltitudeMeters>
            <DistanceMeters>NAN</DistanceMeters>
          </Trackpoint>
          <Trackpoint>
            <Time>2022-07-09T13:12:46.000Z</Time>
            <Position>
              <LatitudeDegrees>43.32377920858561992645263671875</LatitudeDegrees>
              <LongitudeDegrees>-1.9727028720080852508544921875</LongitudeDegrees>
            </Position>
            <AltitudeMeters>16.3999996185302734375</AltitudeMeters>
            <DistanceMeters>NAN</DistanceMeters>
          </Trackpoint>
          <Trackpoint>
            <Time>2022-07-09T13:12:51.000Z</Time>
            <Position>
              <LatitudeDegrees>43.32367745228111743927001953125</LatitudeDegrees>
              <LongitudeDegrees>-1.97285651229321956634521484375</LongitudeDegrees>
            </Position>
            <AltitudeMeters>16</AltitudeMeters>
            <DistanceMeters>NAN</DistanceMeters>
          </Trackpoint>
          <Trackpoint>
            <Time>2022-07-09T13:12:54.000Z</Time>
            <Position>
              <LatitudeDegrees>43.32364358939230442047119140625</LatitudeDegrees>
              <LongitudeDegrees>-1.9728919677436351776123046875</LongitudeDegrees>
            </Position>
            <AltitudeMeters>15.3999996185302734375</AltitudeMeters>
            <DistanceMeters>NAN</DistanceMeters>
          </Trackpoint>
          <Trackpoint>
            <Time>2022-07-09T13:12:57.000Z</Time>
            <Position>
              <LatitudeDegrees>43.32360838539898395538330078125</LatitudeDegrees>
              <LongitudeDegrees>-1.972934715449810028076171875</LongitudeDegrees>
            </Position>
            <AltitudeMeters>15</AltitudeMeters>
            <DistanceMeters>NAN</DistanceMeters>
          </Trackpoint>
          <Trackpoint>
            <Time>2022-07-09T13:13:04.000Z</Time>
            <Position>
              <LatitudeDegrees>43.32356027327477931976318359375</LatitudeDegrees>
              <LongitudeDegrees>-1.9729969091713428497314453125</LongitudeDegrees>
            </Position>
            <AltitudeMeters>14.80000019073486328125</AltitudeMeters>
            <DistanceMeters>NAN</DistanceMeters>
          </Trackpoint>
          <Trackpoint>
            <Time>2022-07-09T13:13:05.000Z</Time>
            <Position>
              <LatitudeDegrees>43.32356102764606475830078125</LatitudeDegrees>
              <LongitudeDegrees>-1.9730207137763500213623046875</LongitudeDegrees>
            </Position>
            <AltitudeMeters>14.80000019073486328125</AltitudeMeters>
            <DistanceMeters>NAN</DistanceMeters>
          </Trackpoint>
          <Trackpoint>
            <Time>2022-07-09T13:13:07.000Z</Time>
            <Position>
              <LatitudeDegrees>43.32356798462569713592529296875</LatitudeDegrees>
              <LongitudeDegrees>-1.97307460941374301910400390625</LongitudeDegrees>
            </Position>
            <AltitudeMeters>14.80000019073486328125</AltitudeMeters>
            <DistanceMeters>NAN</DistanceMeters>
          </Trackpoint>
          <Trackpoint>
            <Time>2022-07-09T13:13:09.000Z</Time>
            <Position>
              <LatitudeDegrees>43.3235581777989864349365234375</LatitudeDegrees>
              <LongitudeDegrees>-1.97312347590923309326171875</LongitudeDegrees>
            </Position>
            <AltitudeMeters>14.6000003814697265625</AltitudeMeters>
            <DistanceMeters>NAN</DistanceMeters>
          </Trackpoint>
          <Trackpoint>
            <Time>2022-07-09T13:13:11.000Z</Time>
            <Position>
              <LatitudeDegrees>43.32352858968079090118408203125</LatitudeDegrees>
              <LongitudeDegrees>-1.97319078259170055389404296875</LongitudeDegrees>
            </Position>
            <AltitudeMeters>14.3999996185302734375</AltitudeMeters>
            <DistanceMeters>NAN</DistanceMeters>
          </Trackpoint>
          <Trackpoint>
            <Time>2022-07-09T13:13:14.000Z</Time>
            <Position>
              <LatitudeDegrees>43.3234812319278717041015625</LatitudeDegrees>
              <LongitudeDegrees>-1.9732785411179065704345703125</LongitudeDegrees>
            </Position>
            <AltitudeMeters>14.3999996185302734375</AltitudeMeters>
            <DistanceMeters>NAN</DistanceMeters>
          </Trackpoint>
          <Trackpoint>
            <Time>2022-07-09T13:13:18.000Z</Time>
            <Position>
              <LatitudeDegrees>43.32342599518597126007080078125</LatitudeDegrees>
              <LongitudeDegrees>-1.9733861647546291351318359375</LongitudeDegrees>
            </Position>
            <AltitudeMeters>14.3999996185302734375</AltitudeMeters>
            <DistanceMeters>NAN</DistanceMeters>
          </Trackpoint>
          <Trackpoint>
            <Time>2022-07-09T13:13:20.000Z</Time>
            <Position>
              <LatitudeDegrees>43.3233873546123504638671875</LatitudeDegrees>
              <LongitudeDegrees>-1.97345129214227199554443359375</LongitudeDegrees>
            </Position>
            <AltitudeMeters>14.3999996185302734375</AltitudeMeters>
            <DistanceMeters>NAN</DistanceMeters>
          </Trackpoint>
          <Trackpoint>
            <Time>2022-07-09T13:13:21.000Z</Time>
            <Position>
              <LatitudeDegrees>43.32338190637528896331787109375</LatitudeDegrees>
              <LongitudeDegrees>-1.9734740070998668670654296875</LongitudeDegrees>
            </Position>
            <AltitudeMeters>14.3999996185302734375</AltitudeMeters>
            <DistanceMeters>NAN</DistanceMeters>
          </Trackpoint>
          <Trackpoint>
            <Time>2022-07-09T13:13:24.000Z</Time>
            <Position>
              <LatitudeDegrees>43.3233509771525859832763671875</LatitudeDegrees>
              <LongitudeDegrees>-1.9735303334891796112060546875</LongitudeDegrees>
            </Position>
            <AltitudeMeters>14.3999996185302734375</AltitudeMeters>
            <DistanceMeters>NAN</DistanceMeters>
          </Trackpoint>
          <Trackpoint>
            <Time>2022-07-09T13:13:26.000Z</Time>
            <Position>
              <LatitudeDegrees>43.32332842983305454254150390625</LatitudeDegrees>
              <LongitudeDegrees>-1.97354030795395374298095703125</LongitudeDegrees>
            </Position>
            <AltitudeMeters>14.19999980926513671875</AltitudeMeters>
            <DistanceMeters>NAN</DistanceMeters>
          </Trackpoint>
          <Trackpoint>
            <Time>2022-07-09T13:13:30.000Z</Time>
            <Position>
              <LatitudeDegrees>43.32328367047011852264404296875</LatitudeDegrees>
              <LongitudeDegrees>-1.97358003817498683929443359375</LongitudeDegrees>
            </Position>
            <AltitudeMeters>14</AltitudeMeters>
            <DistanceMeters>NAN</DistanceMeters>
          </Trackpoint>
          <Trackpoint>
            <Time>2022-07-09T13:13:38.000Z</Time>
            <Position>
              <LatitudeDegrees>43.32316263578832149505615234375</LatitudeDegrees>
              <LongitudeDegrees>-1.9737881608307361602783203125</LongitudeDegrees>
            </Position>
            <AltitudeMeters>14.19999980926513671875</AltitudeMeters>
            <DistanceMeters>NAN</DistanceMeters>
          </Trackpoint>
          <Trackpoint>
            <Time>2022-07-09T13:13:41.000Z</Time>
            <Position>
              <LatitudeDegrees>43.32310060970485210418701171875</LatitudeDegrees>
              <LongitudeDegrees>-1.973872147500514984130859375</LongitudeDegrees>
            </Position>
            <AltitudeMeters>14.3999996185302734375</AltitudeMeters>
            <DistanceMeters>NAN</DistanceMeters>
          </Trackpoint>
          <Trackpoint>
            <Time>2022-07-09T13:13:42.000Z</Time>
            <Position>
              <LatitudeDegrees>43.32307445816695690155029296875</LatitudeDegrees>
              <LongitudeDegrees>-1.9739145599305629730224609375</LongitudeDegrees>
            </Position>
            <AltitudeMeters>14.3999996185302734375</AltitudeMeters>
            <DistanceMeters>NAN</DistanceMeters>
          </Trackpoint>
          <Trackpoint>
            <Time>2022-07-09T13:13:45.000Z</Time>
            <Position>
              <LatitudeDegrees>43.32301293499767780303955078125</LatitudeDegrees>
              <LongitudeDegrees>-1.973981447517871856689453125</LongitudeDegrees>
            </Position>
            <AltitudeMeters>14.19999980926513671875</AltitudeMeters>
            <DistanceMeters>NAN</DistanceMeters>
          </Trackpoint>
          <Trackpoint>
            <Time>2022-07-09T13:13:46.000Z</Time>
            <Position>
              <LatitudeDegrees>43.32299550063908100128173828125</LatitudeDegrees>
              <LongitudeDegrees>-1.973998546600341796875</LongitudeDegrees>
            </Position>
            <AltitudeMeters>14.19999980926513671875</AltitudeMeters>
            <DistanceMeters>NAN</DistanceMeters>
          </Trackpoint>
          <Trackpoint>
            <Time>2022-07-09T13:13:52.000Z</Time>
            <Position>
              <LatitudeDegrees>43.32287438213825225830078125</LatitudeDegrees>
              <LongitudeDegrees>-1.974124275147914886474609375</LongitudeDegrees>
            </Position>
            <AltitudeMeters>14.19999980926513671875</AltitudeMeters>
            <DistanceMeters>NAN</DistanceMeters>
          </Trackpoint>
          <Trackpoint>
            <Time>2022-07-09T13:13:57.000Z</Time>
            <Position>
              <LatitudeDegrees>43.322808332741260528564453125</LatitudeDegrees>
              <LongitudeDegrees>-1.9742659293115139007568359375</LongitudeDegrees>
            </Position>
            <AltitudeMeters>14.3999996185302734375</AltitudeMeters>
            <DistanceMeters>NAN</DistanceMeters>
          </Trackpoint>
          <Trackpoint>
            <Time>2022-07-09T13:14:02.000Z</Time>
            <Position>
              <LatitudeDegrees>43.322683610022068023681640625</LatitudeDegrees>
              <LongitudeDegrees>-1.97442074306309223175048828125</LongitudeDegrees>
            </Position>
            <AltitudeMeters>14.19999980926513671875</AltitudeMeters>
            <DistanceMeters>NAN</DistanceMeters>
          </Trackpoint>
          <Trackpoint>
            <Time>2022-07-09T13:14:07.000Z</Time>
            <Position>
              <LatitudeDegrees>43.3225818537175655364990234375</LatitudeDegrees>
              <LongitudeDegrees>-1.97458838112652301788330078125</LongitudeDegrees>
            </Position>
            <AltitudeMeters>13.80000019073486328125</AltitudeMeters>
            <DistanceMeters>NAN</DistanceMeters>
          </Trackpoint>
          <Trackpoint>
            <Time>2022-07-09T13:14:12.000Z</Time>
            <Position>
              <LatitudeDegrees>43.322484791278839111328125</LatitudeDegrees>
              <LongitudeDegrees>-1.974721737205982208251953125</LongitudeDegrees>
            </Position>
            <AltitudeMeters>14</AltitudeMeters>
            <DistanceMeters>NAN</DistanceMeters>
          </Trackpoint>
          <Trackpoint>
            <Time>2022-07-09T13:14:17.000Z</Time>
            <Position>
              <LatitudeDegrees>43.32236937247216701507568359375</LatitudeDegrees>
              <LongitudeDegrees>-1.974885351955890655517578125</LongitudeDegrees>
            </Position>
            <AltitudeMeters>14</AltitudeMeters>
            <DistanceMeters>NAN</DistanceMeters>
          </Trackpoint>
          <Trackpoint>
            <Time>2022-07-09T13:14:21.000Z</Time>
            <Position>
              <LatitudeDegrees>43.3223106153309345245361328125</LatitudeDegrees>
              <LongitudeDegrees>-1.97498769499361515045166015625</LongitudeDegrees>
            </Position>
            <AltitudeMeters>14</AltitudeMeters>
            <DistanceMeters>NAN</DistanceMeters>
          </Trackpoint>
          <Trackpoint>
            <Time>2022-07-09T13:14:22.000Z</Time>
            <Position>
              <LatitudeDegrees>43.32229963503777980804443359375</LatitudeDegrees>
              <LongitudeDegrees>-1.97501284070312976837158203125</LongitudeDegrees>
            </Position>
            <AltitudeMeters>13.80000019073486328125</AltitudeMeters>
            <DistanceMeters>NAN</DistanceMeters>
          </Trackpoint>
          <Trackpoint>
            <Time>2022-07-09T13:14:26.000Z</Time>
            <Position>
              <LatitudeDegrees>43.3222018182277679443359375</LatitudeDegrees>
              <LongitudeDegrees>-1.97511677630245685577392578125</LongitudeDegrees>
            </Position>
            <AltitudeMeters>14</AltitudeMeters>
            <DistanceMeters>NAN</DistanceMeters>
          </Trackpoint>
          <Trackpoint>
            <Time>2022-07-09T13:14:28.000Z</Time>
            <Position>
              <LatitudeDegrees>43.32215328700840473175048828125</LatitudeDegrees>
              <LongitudeDegrees>-1.97518349625170230865478515625</LongitudeDegrees>
            </Position>
            <AltitudeMeters>14</AltitudeMeters>
            <DistanceMeters>NAN</DistanceMeters>
          </Trackpoint>
          <Trackpoint>
            <Time>2022-07-09T13:14:33.000Z</Time>
            <Position>
              <LatitudeDegrees>43.32202688790857791900634765625</LatitudeDegrees>
              <LongitudeDegrees>-1.97531484067440032958984375</LongitudeDegrees>
            </Position>
            <AltitudeMeters>14.19999980926513671875</AltitudeMeters>
            <DistanceMeters>NAN</DistanceMeters>
          </Trackpoint>
          <Trackpoint>
            <Time>2022-07-09T13:14:37.000Z</Time>
            <Position>
              <LatitudeDegrees>43.32195513881742954254150390625</LatitudeDegrees>
              <LongitudeDegrees>-1.97540075518190860748291015625</LongitudeDegrees>
            </Position>
            <AltitudeMeters>14.19999980926513671875</AltitudeMeters>
            <DistanceMeters>NAN</DistanceMeters>
          </Trackpoint>
          <Trackpoint>
            <Time>2022-07-09T13:14:38.000Z</Time>
            <Position>
              <LatitudeDegrees>43.32194767892360687255859375</LatitudeDegrees>
              <LongitudeDegrees>-1.97541969828307628631591796875</LongitudeDegrees>
            </Position>
            <AltitudeMeters>14.19999980926513671875</AltitudeMeters>
            <DistanceMeters>NAN</DistanceMeters>
          </Trackpoint>
          <Trackpoint>
            <Time>2022-07-09T13:14:43.000Z</Time>
            <Position>
              <LatitudeDegrees>43.3219163306057453155517578125</LatitudeDegrees>
              <LongitudeDegrees>-1.97552145458757877349853515625</LongitudeDegrees>
            </Position>
            <AltitudeMeters>14</AltitudeMeters>
            <DistanceMeters>NAN</DistanceMeters>
          </Trackpoint>
          <Trackpoint>
            <Time>2022-07-09T13:14:49.000Z</Time>
            <Position>
              <LatitudeDegrees>43.32177258096635341644287109375</LatitudeDegrees>
              <LongitudeDegrees>-1.97563980706036090850830078125</LongitudeDegrees>
            </Position>
            <AltitudeMeters>14</AltitudeMeters>
            <DistanceMeters>NAN</DistanceMeters>
          </Trackpoint>
          <Trackpoint>
            <Time>2022-07-09T13:14:54.000Z</Time>
            <Position>
              <LatitudeDegrees>43.32170066423714160919189453125</LatitudeDegrees>
              <LongitudeDegrees>-1.97573251090943813323974609375</LongitudeDegrees>
            </Position>
            <AltitudeMeters>14</AltitudeMeters>
            <DistanceMeters>NAN</DistanceMeters>
          </Trackpoint>
          <Trackpoint>
            <Time>2022-07-09T13:14:55.000Z</Time>
            <Position>
              <LatitudeDegrees>43.321701250970363616943359375</LatitudeDegrees>
              <LongitudeDegrees>-1.97576268576085567474365234375</LongitudeDegrees>
            </Position>
            <AltitudeMeters>14</AltitudeMeters>
            <DistanceMeters>NAN</DistanceMeters>
          </Trackpoint>
          <Trackpoint>
            <Time>2022-07-09T13:14:56.000Z</Time>
            <Position>
              <LatitudeDegrees>43.3216843195259571075439453125</LatitudeDegrees>
              <LongitudeDegrees>-1.97581331245601177215576171875</LongitudeDegrees>
            </Position>
            <AltitudeMeters>14</AltitudeMeters>
            <DistanceMeters>NAN</DistanceMeters>
          </Trackpoint>
          <Trackpoint>
            <Time>2022-07-09T13:14:58.000Z</Time>
            <Position>
              <LatitudeDegrees>43.32161768339574337005615234375</LatitudeDegrees>
              <LongitudeDegrees>-1.97587676346302032470703125</LongitudeDegrees>
            </Position>
            <AltitudeMeters>14</AltitudeMeters>
            <DistanceMeters>NAN</DistanceMeters>
          </Trackpoint>
          <Trackpoint>
            <Time>2022-07-09T13:14:59.000Z</Time>
            <Position>
              <LatitudeDegrees>43.3216028474271297454833984375</LatitudeDegrees>
              <LongitudeDegrees>-1.975903250277042388916015625</LongitudeDegrees>
            </Position>
            <AltitudeMeters>14</AltitudeMeters>
            <DistanceMeters>NAN</DistanceMeters>
          </Trackpoint>
          <Trackpoint>
            <Time>2022-07-09T13:15:00.000Z</Time>
            <Position>
              <LatitudeDegrees>43.3215937949717044830322265625</LatitudeDegrees>
              <LongitudeDegrees>-1.9759352691471576690673828125</LongitudeDegrees>
            </Position>
            <AltitudeMeters>14.19999980926513671875</AltitudeMeters>
            <DistanceMeters>NAN</DistanceMeters>
          </Trackpoint>
          <Trackpoint>
            <Time>2022-07-09T13:15:05.000Z</Time>
            <Position>
              <LatitudeDegrees>43.3215723372995853424072265625</LatitudeDegrees>
              <LongitudeDegrees>-1.97610969655215740203857421875</LongitudeDegrees>
            </Position>
            <AltitudeMeters>14.3999996185302734375</AltitudeMeters>
            <DistanceMeters>NAN</DistanceMeters>
          </Trackpoint>
          <Trackpoint>
            <Time>2022-07-09T13:15:12.000Z</Time>
            <Position>
              <LatitudeDegrees>43.32159153185784816741943359375</LatitudeDegrees>
              <LongitudeDegrees>-1.9763865508139133453369140625</LongitudeDegrees>
            </Position>
            <AltitudeMeters>14.3999996185302734375</AltitudeMeters>
            <DistanceMeters>NAN</DistanceMeters>
          </Trackpoint>
          <Trackpoint>
            <Time>2022-07-09T13:15:14.000Z</Time>
            <Position>
              <LatitudeDegrees>43.32157091237604618072509765625</LatitudeDegrees>
              <LongitudeDegrees>-1.9764532707631587982177734375</LongitudeDegrees>
            </Position>
            <AltitudeMeters>14.6000003814697265625</AltitudeMeters>
            <DistanceMeters>NAN</DistanceMeters>
          </Trackpoint>
          <Trackpoint>
            <Time>2022-07-09T13:15:16.000Z</Time>
            <Position>
              <LatitudeDegrees>43.3215471915900707244873046875</LatitudeDegrees>
              <LongitudeDegrees>-1.97654320858418941497802734375</LongitudeDegrees>
            </Position>
            <AltitudeMeters>14.6000003814697265625</AltitudeMeters>
            <DistanceMeters>NAN</DistanceMeters>
          </Trackpoint>
          <Trackpoint>
            <Time>2022-07-09T13:15:17.000Z</Time>
            <Position>
              <LatitudeDegrees>43.32156035117805004119873046875</LatitudeDegrees>
              <LongitudeDegrees>-1.9765622355043888092041015625</LongitudeDegrees>
            </Position>
            <AltitudeMeters>14.80000019073486328125</AltitudeMeters>
            <DistanceMeters>NAN</DistanceMeters>
          </Trackpoint>
          <Trackpoint>
            <Time>2022-07-09T13:15:21.000Z</Time>
            <Position>
              <LatitudeDegrees>43.3215914480388164520263671875</LatitudeDegrees>
              <LongitudeDegrees>-1.97663390077650547027587890625</LongitudeDegrees>
            </Position>
            <AltitudeMeters>14.80000019073486328125</AltitudeMeters>
            <DistanceMeters>NAN</DistanceMeters>
          </Trackpoint>
          <Trackpoint>
            <Time>2022-07-09T13:15:23.000Z</Time>
            <Position>
              <LatitudeDegrees>43.321552388370037078857421875</LatitudeDegrees>
              <LongitudeDegrees>-1.976665668189525604248046875</LongitudeDegrees>
            </Position>
            <AltitudeMeters>14.80000019073486328125</AltitudeMeters>
            <DistanceMeters>NAN</DistanceMeters>
          </Trackpoint>
          <Trackpoint>
            <Time>2022-07-09T13:15:26.000Z</Time>
            <Position>
              <LatitudeDegrees>43.3214660547673702239990234375</LatitudeDegrees>
              <LongitudeDegrees>-1.97672693990170955657958984375</LongitudeDegrees>
            </Position>
            <AltitudeMeters>14.80000019073486328125</AltitudeMeters>
            <DistanceMeters>NAN</DistanceMeters>
          </Trackpoint>
          <Trackpoint>
            <Time>2022-07-09T13:15:27.000Z</Time>
            <Position>
              <LatitudeDegrees>43.32146312110126018524169921875</LatitudeDegrees>
              <LongitudeDegrees>-1.97675610892474651336669921875</LongitudeDegrees>
            </Position>
            <AltitudeMeters>15</AltitudeMeters>
            <DistanceMeters>NAN</DistanceMeters>
          </Trackpoint>
          <Trackpoint>
            <Time>2022-07-09T13:15:28.000Z</Time>
            <Position>
              <LatitudeDegrees>43.32146932370960712432861328125</LatitudeDegrees>
              <LongitudeDegrees>-1.976796425879001617431640625</LongitudeDegrees>
            </Position>
            <AltitudeMeters>15</AltitudeMeters>
            <DistanceMeters>NAN</DistanceMeters>
          </Trackpoint>
          <Trackpoint>
            <Time>2022-07-09T13:15:30.000Z</Time>
            <Position>
              <LatitudeDegrees>43.321452476084232330322265625</LatitudeDegrees>
              <LongitudeDegrees>-1.97683422826230525970458984375</LongitudeDegrees>
            </Position>
            <AltitudeMeters>15</AltitudeMeters>
            <DistanceMeters>NAN</DistanceMeters>
          </Trackpoint>
          <Trackpoint>
            <Time>2022-07-09T13:15:34.000Z</Time>
            <Position>
              <LatitudeDegrees>43.32142959348857402801513671875</LatitudeDegrees>
              <LongitudeDegrees>-1.97692818939685821533203125</LongitudeDegrees>
            </Position>
            <AltitudeMeters>15</AltitudeMeters>
            <DistanceMeters>NAN</DistanceMeters>
          </Trackpoint>
          <Trackpoint>
            <Time>2022-07-09T13:15:35.000Z</Time>
            <Position>
              <LatitudeDegrees>43.32142464816570281982421875</LatitudeDegrees>
              <LongitudeDegrees>-1.97696439921855926513671875</LongitudeDegrees>
            </Position>
            <AltitudeMeters>15</AltitudeMeters>
            <DistanceMeters>NAN</DistanceMeters>
          </Trackpoint>
          <Trackpoint>
            <Time>2022-07-09T13:15:40.000Z</Time>
            <Position>
              <LatitudeDegrees>43.32144468091428279876708984375</LatitudeDegrees>
              <LongitudeDegrees>-1.977136395871639251708984375</LongitudeDegrees>
            </Position>
            <AltitudeMeters>14.80000019073486328125</AltitudeMeters>
            <DistanceMeters>NAN</DistanceMeters>
          </Trackpoint>
          <Trackpoint>
            <Time>2022-07-09T13:15:45.000Z</Time>
            <Position>
              <LatitudeDegrees>43.32143814302980899810791015625</LatitudeDegrees>
              <LongitudeDegrees>-1.9773628748953342437744140625</LongitudeDegrees>
            </Position>
            <AltitudeMeters>15</AltitudeMeters>
            <DistanceMeters>NAN</DistanceMeters>
          </Trackpoint>
          <Trackpoint>
            <Time>2022-07-09T13:15:46.000Z</Time>
            <Position>
              <LatitudeDegrees>43.32143194042146205902099609375</LatitudeDegrees>
              <LongitudeDegrees>-1.97740972973406314849853515625</LongitudeDegrees>
            </Position>
            <AltitudeMeters>15</AltitudeMeters>
            <DistanceMeters>NAN</DistanceMeters>
          </Trackpoint>
          <Trackpoint>
            <Time>2022-07-09T13:15:47.000Z</Time>
            <Position>
              <LatitudeDegrees>43.321424983441829681396484375</LatitudeDegrees>
              <LongitudeDegrees>-1.97745163924992084503173828125</LongitudeDegrees>
            </Position>
            <AltitudeMeters>15.19999980926513671875</AltitudeMeters>
            <DistanceMeters>NAN</DistanceMeters>
          </Trackpoint>
          <Trackpoint>
            <Time>2022-07-09T13:15:49.000Z</Time>
            <Position>
              <LatitudeDegrees>43.3214100636541843414306640625</LatitudeDegrees>
              <LongitudeDegrees>-1.97753277607262134552001953125</LongitudeDegrees>
            </Position>
            <AltitudeMeters>15.3999996185302734375</AltitudeMeters>
            <DistanceMeters>NAN</DistanceMeters>
          </Trackpoint>
          <Trackpoint>
            <Time>2022-07-09T13:15:53.000Z</Time>
            <Position>
              <LatitudeDegrees>43.32135767675936222076416015625</LatitudeDegrees>
              <LongitudeDegrees>-1.97767811827361583709716796875</LongitudeDegrees>
            </Position>
            <AltitudeMeters>15.19999980926513671875</AltitudeMeters>
            <DistanceMeters>NAN</DistanceMeters>
          </Trackpoint>
          <Trackpoint>
            <Time>2022-07-09T13:15:58.000Z</Time>
            <Position>
              <LatitudeDegrees>43.32129699178040027618408203125</LatitudeDegrees>
              <LongitudeDegrees>-1.97775925509631633758544921875</LongitudeDegrees>
            </Position>
            <AltitudeMeters>15</AltitudeMeters>
            <DistanceMeters>NAN</DistanceMeters>
          </Trackpoint>
          <Trackpoint>
            <Time>2022-07-09T13:16:04.000Z</Time>
            <Position>
              <LatitudeDegrees>43.32125432789325714111328125</LatitudeDegrees>
              <LongitudeDegrees>-1.97786536999046802520751953125</LongitudeDegrees>
            </Position>
            <AltitudeMeters>14.6000003814697265625</AltitudeMeters>
            <DistanceMeters>NAN</DistanceMeters>
          </Trackpoint>
          <Trackpoint>
            <Time>2022-07-09T13:16:06.000Z</Time>
            <Position>
              <LatitudeDegrees>43.3212335407733917236328125</LatitudeDegrees>
              <LongitudeDegrees>-1.97790543548762798309326171875</LongitudeDegrees>
            </Position>
            <AltitudeMeters>14.3999996185302734375</AltitudeMeters>
            <DistanceMeters>NAN</DistanceMeters>
          </Trackpoint>
          <Trackpoint>
            <Time>2022-07-09T13:16:11.000Z</Time>
            <Position>
              <LatitudeDegrees>43.32120160572230815887451171875</LatitudeDegrees>
              <LongitudeDegrees>-1.97801582515239715576171875</LongitudeDegrees>
            </Position>
            <AltitudeMeters>14.3999996185302734375</AltitudeMeters>
            <DistanceMeters>NAN</DistanceMeters>
          </Trackpoint>
          <Trackpoint>
            <Time>2022-07-09T13:16:19.000Z</Time>
            <Position>
              <LatitudeDegrees>43.32112181000411510467529296875</LatitudeDegrees>
              <LongitudeDegrees>-1.978212632238864898681640625</LongitudeDegrees>
            </Position>
            <AltitudeMeters>14.19999980926513671875</AltitudeMeters>
            <DistanceMeters>NAN</DistanceMeters>
          </Trackpoint>
          <Trackpoint>
            <Time>2022-07-09T13:16:28.000Z</Time>
            <Position>
              <LatitudeDegrees>43.32104519940912723541259765625</LatitudeDegrees>
              <LongitudeDegrees>-1.97846752591431140899658203125</LongitudeDegrees>
            </Position>
            <AltitudeMeters>14</AltitudeMeters>
            <DistanceMeters>NAN</DistanceMeters>
          </Trackpoint>
          <Trackpoint>
            <Time>2022-07-09T13:16:39.000Z</Time>
            <Position>
              <LatitudeDegrees>43.32091896794736385345458984375</LatitudeDegrees>
              <LongitudeDegrees>-1.97880037128925323486328125</LongitudeDegrees>
            </Position>
            <AltitudeMeters>13.80000019073486328125</AltitudeMeters>
            <DistanceMeters>NAN</DistanceMeters>
          </Trackpoint>
          <Trackpoint>
            <Time>2022-07-09T13:16:40.000Z</Time>
            <Position>
              <LatitudeDegrees>43.320903964340686798095703125</LatitudeDegrees>
              <LongitudeDegrees>-1.97882459498941898345947265625</LongitudeDegrees>
            </Position>
            <AltitudeMeters>13.80000019073486328125</AltitudeMeters>
            <DistanceMeters>NAN</DistanceMeters>
          </Trackpoint>
          <Trackpoint>
            <Time>2022-07-09T13:16:45.000Z</Time>
            <Position>
              <LatitudeDegrees>43.3208635635673999786376953125</LatitudeDegrees>
              <LongitudeDegrees>-1.9789641536772251129150390625</LongitudeDegrees>
            </Position>
            <AltitudeMeters>13.80000019073486328125</AltitudeMeters>
            <DistanceMeters>NAN</DistanceMeters>
          </Trackpoint>
          <Trackpoint>
            <Time>2022-07-09T13:16:46.000Z</Time>
            <Position>
              <LatitudeDegrees>43.320874460041522979736328125</LatitudeDegrees>
              <LongitudeDegrees>-1.97898938320577144622802734375</LongitudeDegrees>
            </Position>
            <AltitudeMeters>13.80000019073486328125</AltitudeMeters>
            <DistanceMeters>NAN</DistanceMeters>
          </Trackpoint>
          <Trackpoint>
            <Time>2022-07-09T13:16:47.000Z</Time>
            <Position>
              <LatitudeDegrees>43.32089298404753208160400390625</LatitudeDegrees>
              <LongitudeDegrees>-1.97900949977338314056396484375</LongitudeDegrees>
            </Position>
            <AltitudeMeters>13.80000019073486328125</AltitudeMeters>
            <DistanceMeters>NAN</DistanceMeters>
          </Trackpoint>
          <Trackpoint>
            <Time>2022-07-09T13:16:50.000Z</Time>
            <Position>
              <LatitudeDegrees>43.32094344310462474822998046875</LatitudeDegrees>
              <LongitudeDegrees>-1.97903112508356571197509765625</LongitudeDegrees>
            </Position>
            <AltitudeMeters>13.6000003814697265625</AltitudeMeters>
            <DistanceMeters>NAN</DistanceMeters>
          </Trackpoint>
          <Trackpoint>
            <Time>2022-07-09T13:16:51.000Z</Time>
            <Position>
              <LatitudeDegrees>43.32095266319811344146728515625</LatitudeDegrees>
              <LongitudeDegrees>-1.97904051281511783599853515625</LongitudeDegrees>
            </Position>
            <AltitudeMeters>13.3999996185302734375</AltitudeMeters>
            <DistanceMeters>NAN</DistanceMeters>
          </Trackpoint>
          <Trackpoint>
            <Time>2022-07-09T13:16:52.000Z</Time>
            <Position>
              <LatitudeDegrees>43.32096037454903125762939453125</LatitudeDegrees>
              <LongitudeDegrees>-1.9790576957166194915771484375</LongitudeDegrees>
            </Position>
            <AltitudeMeters>13.3999996185302734375</AltitudeMeters>
            <DistanceMeters>NAN</DistanceMeters>
          </Trackpoint>
          <Trackpoint>
            <Time>2022-07-09T13:16:55.000Z</Time>
            <Position>
              <LatitudeDegrees>43.32096573896706104278564453125</LatitudeDegrees>
              <LongitudeDegrees>-1.97914847172796726226806640625</LongitudeDegrees>
            </Position>
            <AltitudeMeters>13.3999996185302734375</AltitudeMeters>
            <DistanceMeters>NAN</DistanceMeters>
          </Trackpoint>
          <Trackpoint>
            <Time>2022-07-09T13:17:00.000Z</Time>
            <Position>
              <LatitudeDegrees>43.32092131488025188446044921875</LatitudeDegrees>
              <LongitudeDegrees>-1.9793125055730342864990234375</LongitudeDegrees>
            </Position>
            <AltitudeMeters>13.3999996185302734375</AltitudeMeters>
            <DistanceMeters>NAN</DistanceMeters>
          </Trackpoint>
          <Trackpoint>
            <Time>2022-07-09T13:17:05.000Z</Time>
            <Position>
              <LatitudeDegrees>43.32079256884753704071044921875</LatitudeDegrees>
              <LongitudeDegrees>-1.97947092354297637939453125</LongitudeDegrees>
            </Position>
            <AltitudeMeters>12.6000003814697265625</AltitudeMeters>
            <DistanceMeters>NAN</DistanceMeters>
          </Trackpoint>
          <Trackpoint>
            <Time>2022-07-09T13:17:08.000Z</Time>
            <Position>
              <LatitudeDegrees>43.3207051455974578857421875</LatitudeDegrees>
              <LongitudeDegrees>-1.9795250706374645233154296875</LongitudeDegrees>
            </Position>
            <AltitudeMeters>12.19999980926513671875</AltitudeMeters>
            <DistanceMeters>NAN</DistanceMeters>
          </Trackpoint>
          <Trackpoint>
            <Time>2022-07-09T13:17:10.000Z</Time>
            <Position>
              <LatitudeDegrees>43.3206459693610668182373046875</LatitudeDegrees>
              <LongitudeDegrees>-1.97952322661876678466796875</LongitudeDegrees>
            </Position>
            <AltitudeMeters>12</AltitudeMeters>
            <DistanceMeters>NAN</DistanceMeters>
          </Trackpoint>
          <Trackpoint>
            <Time>2022-07-09T13:17:11.000Z</Time>
            <Position>
              <LatitudeDegrees>43.320618979632854461669921875</LatitudeDegrees>
              <LongitudeDegrees>-1.9795351289212703704833984375</LongitudeDegrees>
            </Position>
            <AltitudeMeters>11.80000019073486328125</AltitudeMeters>
            <DistanceMeters>NAN</DistanceMeters>
          </Trackpoint>
          <Trackpoint>
            <Time>2022-07-09T13:17:13.000Z</Time>
            <Position>
              <LatitudeDegrees>43.32057346589863300323486328125</LatitudeDegrees>
              <LongitudeDegrees>-1.97960260324180126190185546875</LongitudeDegrees>
            </Position>
            <AltitudeMeters>11.80000019073486328125</AltitudeMeters>
            <DistanceMeters>NAN</DistanceMeters>
          </Trackpoint>
          <Trackpoint>
            <Time>2022-07-09T13:17:19.000Z</Time>
            <Position>
              <LatitudeDegrees>43.32045595161616802215576171875</LatitudeDegrees>
              <LongitudeDegrees>-1.9798341952264308929443359375</LongitudeDegrees>
            </Position>
            <AltitudeMeters>11.19999980926513671875</AltitudeMeters>
            <DistanceMeters>NAN</DistanceMeters>
          </Trackpoint>
          <Trackpoint>
            <Time>2022-07-09T13:17:26.000Z</Time>
            <Position>
              <LatitudeDegrees>43.3203215897083282470703125</LatitudeDegrees>
              <LongitudeDegrees>-1.9800990633666515350341796875</LongitudeDegrees>
            </Position>
            <AltitudeMeters>11</AltitudeMeters>
            <DistanceMeters>NAN</DistanceMeters>
          </Trackpoint>
          <Trackpoint>
            <Time>2022-07-09T13:17:34.000Z</Time>
            <Position>
              <LatitudeDegrees>43.32015705294907093048095703125</LatitudeDegrees>
              <LongitudeDegrees>-1.98041112162172794342041015625</LongitudeDegrees>
            </Position>
            <AltitudeMeters>10.80000019073486328125</AltitudeMeters>
            <DistanceMeters>NAN</DistanceMeters>
          </Trackpoint>
          <Trackpoint>
            <Time>2022-07-09T13:17:37.000Z</Time>
            <Position>
              <LatitudeDegrees>43.32008832134306430816650390625</LatitudeDegrees>
              <LongitudeDegrees>-1.9805074296891689300537109375</LongitudeDegrees>
            </Position>
            <AltitudeMeters>10.80000019073486328125</AltitudeMeters>
            <DistanceMeters>NAN</DistanceMeters>
          </Trackpoint>
          <Trackpoint>
            <Time>2022-07-09T13:17:40.000Z</Time>
            <Position>
              <LatitudeDegrees>43.320014141499996185302734375</LatitudeDegrees>
              <LongitudeDegrees>-1.98064162395894527435302734375</LongitudeDegrees>
            </Position>
            <AltitudeMeters>11</AltitudeMeters>
            <DistanceMeters>NAN</DistanceMeters>
          </Trackpoint>
          <Trackpoint>
            <Time>2022-07-09T13:17:42.000Z</Time>
            <Position>
              <LatitudeDegrees>43.31998639740049839019775390625</LatitudeDegrees>
              <LongitudeDegrees>-1.98073885403573513031005859375</LongitudeDegrees>
            </Position>
            <AltitudeMeters>11</AltitudeMeters>
            <DistanceMeters>NAN</DistanceMeters>
          </Trackpoint>
          <Trackpoint>
            <Time>2022-07-09T13:17:44.000Z</Time>
            <Position>
              <LatitudeDegrees>43.3199455775320529937744140625</LatitudeDegrees>
              <LongitudeDegrees>-1.9808242656290531158447265625</LongitudeDegrees>
            </Position>
            <AltitudeMeters>11.19999980926513671875</AltitudeMeters>
            <DistanceMeters>NAN</DistanceMeters>
          </Trackpoint>
          <Trackpoint>
            <Time>2022-07-09T13:17:46.000Z</Time>
            <Position>
              <LatitudeDegrees>43.31990492530167102813720703125</LatitudeDegrees>
              <LongitudeDegrees>-1.98091663420200347900390625</LongitudeDegrees>
            </Position>
            <AltitudeMeters>11</AltitudeMeters>
            <DistanceMeters>NAN</DistanceMeters>
          </Trackpoint>
          <Trackpoint>
            <Time>2022-07-09T13:17:47.000Z</Time>
            <Position>
              <LatitudeDegrees>43.31988506019115447998046875</LatitudeDegrees>
              <LongitudeDegrees>-1.98095561005175113677978515625</LongitudeDegrees>
            </Position>
            <AltitudeMeters>11</AltitudeMeters>
            <DistanceMeters>NAN</DistanceMeters>
          </Trackpoint>
          <Trackpoint>
            <Time>2022-07-09T13:17:52.000Z</Time>
            <Position>
              <LatitudeDegrees>43.31979529000818729400634765625</LatitudeDegrees>
              <LongitudeDegrees>-1.98115292005240917205810546875</LongitudeDegrees>
            </Position>
            <AltitudeMeters>10.80000019073486328125</AltitudeMeters>
            <DistanceMeters>NAN</DistanceMeters>
          </Trackpoint>
          <Trackpoint>
            <Time>2022-07-09T13:17:53.000Z</Time>
            <Position>
              <LatitudeDegrees>43.3197729103267192840576171875</LatitudeDegrees>
              <LongitudeDegrees>-1.98118426837027072906494140625</LongitudeDegrees>
            </Position>
            <AltitudeMeters>10.80000019073486328125</AltitudeMeters>
            <DistanceMeters>NAN</DistanceMeters>
          </Trackpoint>
          <Trackpoint>
            <Time>2022-07-09T13:17:55.000Z</Time>
            <Position>
              <LatitudeDegrees>43.319741226732730865478515625</LatitudeDegrees>
              <LongitudeDegrees>-1.98123715817928314208984375</LongitudeDegrees>
            </Position>
            <AltitudeMeters>10.80000019073486328125</AltitudeMeters>
            <DistanceMeters>NAN</DistanceMeters>
          </Trackpoint>
          <Trackpoint>
            <Time>2022-07-09T13:17:56.000Z</Time>
            <Position>
              <LatitudeDegrees>43.31972680985927581787109375</LatitudeDegrees>
              <LongitudeDegrees>-1.981264315545558929443359375</LongitudeDegrees>
            </Position>
            <AltitudeMeters>10.80000019073486328125</AltitudeMeters>
            <DistanceMeters>NAN</DistanceMeters>
          </Trackpoint>
          <Trackpoint>
            <Time>2022-07-09T13:17:59.000Z</Time>
            <Position>
              <LatitudeDegrees>43.3196907676756381988525390625</LatitudeDegrees>
              <LongitudeDegrees>-1.98135106824338436126708984375</LongitudeDegrees>
            </Position>
            <AltitudeMeters>11.19999980926513671875</AltitudeMeters>
            <DistanceMeters>NAN</DistanceMeters>
          </Trackpoint>
          <Trackpoint>
            <Time>2022-07-09T13:18:03.000Z</Time>
            <Position>
              <LatitudeDegrees>43.3196693100035190582275390625</LatitudeDegrees>
              <LongitudeDegrees>-1.98144913651049137115478515625</LongitudeDegrees>
            </Position>
            <AltitudeMeters>11.19999980926513671875</AltitudeMeters>
            <DistanceMeters>NAN</DistanceMeters>
          </Trackpoint>
          <Trackpoint>
            <Time>2022-07-09T13:18:08.000Z</Time>
            <Position>
              <LatitudeDegrees>43.31968146376311779022216796875</LatitudeDegrees>
              <LongitudeDegrees>-1.9815578497946262359619140625</LongitudeDegrees>
            </Position>
            <AltitudeMeters>11.19999980926513671875</AltitudeMeters>
            <DistanceMeters>NAN</DistanceMeters>
          </Trackpoint>
          <Trackpoint>
            <Time>2022-07-09T13:18:10.000Z</Time>
            <Position>
              <LatitudeDegrees>43.319689929485321044921875</LatitudeDegrees>
              <LongitudeDegrees>-1.98158324696123600006103515625</LongitudeDegrees>
            </Position>
            <AltitudeMeters>11</AltitudeMeters>
            <DistanceMeters>NAN</DistanceMeters>
          </Trackpoint>
          <Trackpoint>
            <Time>2022-07-09T13:18:14.000Z</Time>
            <Position>
              <LatitudeDegrees>43.31965648569166660308837890625</LatitudeDegrees>
              <LongitudeDegrees>-1.981667988002300262451171875</LongitudeDegrees>
            </Position>
            <AltitudeMeters>10.80000019073486328125</AltitudeMeters>
            <DistanceMeters>NAN</DistanceMeters>
          </Trackpoint>
          <Trackpoint>
            <Time>2022-07-09T13:18:15.000Z</Time>
            <Position>
              <LatitudeDegrees>43.31964290700852870941162109375</LatitudeDegrees>
              <LongitudeDegrees>-1.98170780204236507415771484375</LongitudeDegrees>
            </Position>
            <AltitudeMeters>10.80000019073486328125</AltitudeMeters>
            <DistanceMeters>NAN</DistanceMeters>
          </Trackpoint>
          <Trackpoint>
            <Time>2022-07-09T13:18:20.000Z</Time>
            <Position>
              <LatitudeDegrees>43.31959068775177001953125</LatitudeDegrees>
              <LongitudeDegrees>-1.9818777032196521759033203125</LongitudeDegrees>
            </Position>
            <AltitudeMeters>10.80000019073486328125</AltitudeMeters>
            <DistanceMeters>NAN</DistanceMeters>
          </Trackpoint>
          <Trackpoint>
            <Time>2022-07-09T13:18:25.000Z</Time>
            <Position>
              <LatitudeDegrees>43.3195569925010204315185546875</LatitudeDegrees>
              <LongitudeDegrees>-1.98202572762966156005859375</LongitudeDegrees>
            </Position>
            <AltitudeMeters>11.19999980926513671875</AltitudeMeters>
            <DistanceMeters>NAN</DistanceMeters>
          </Trackpoint>
          <Trackpoint>
            <Time>2022-07-09T13:18:27.000Z</Time>
            <Position>
              <LatitudeDegrees>43.31956244073808193206787109375</LatitudeDegrees>
              <LongitudeDegrees>-1.98208834044635295867919921875</LongitudeDegrees>
            </Position>
            <AltitudeMeters>11.19999980926513671875</AltitudeMeters>
            <DistanceMeters>NAN</DistanceMeters>
          </Trackpoint>
          <Trackpoint>
            <Time>2022-07-09T13:18:29.000Z</Time>
            <Position>
              <LatitudeDegrees>43.31952773965895175933837890625</LatitudeDegrees>
              <LongitudeDegrees>-1.98216964490711688995361328125</LongitudeDegrees>
            </Position>
            <AltitudeMeters>11.3999996185302734375</AltitudeMeters>
            <DistanceMeters>NAN</DistanceMeters>
          </Trackpoint>
          <Trackpoint>
            <Time>2022-07-09T13:18:36.000Z</Time>
            <Position>
              <LatitudeDegrees>43.3193881809711456298828125</LatitudeDegrees>
              <LongitudeDegrees>-1.9824832119047641754150390625</LongitudeDegrees>
            </Position>
            <AltitudeMeters>11.3999996185302734375</AltitudeMeters>
            <DistanceMeters>NAN</DistanceMeters>
          </Trackpoint>
          <Trackpoint>
            <Time>2022-07-09T13:18:38.000Z</Time>
            <Position>
              <LatitudeDegrees>43.31935825757682323455810546875</LatitudeDegrees>
              <LongitudeDegrees>-1.98257750831544399261474609375</LongitudeDegrees>
            </Position>
            <AltitudeMeters>11.3999996185302734375</AltitudeMeters>
            <DistanceMeters>NAN</DistanceMeters>
          </Trackpoint>
          <Trackpoint>
            <Time>2022-07-09T13:18:42.000Z</Time>
            <Position>
              <LatitudeDegrees>43.31927946768701076507568359375</LatitudeDegrees>
              <LongitudeDegrees>-1.98272385634481906890869140625</LongitudeDegrees>
            </Position>
            <AltitudeMeters>11.6000003814697265625</AltitudeMeters>
            <DistanceMeters>NAN</DistanceMeters>
          </Trackpoint>
          <Trackpoint>
            <Time>2022-07-09T13:18:43.000Z</Time>
            <Position>
              <LatitudeDegrees>43.31925951875746250152587890625</LatitudeDegrees>
              <LongitudeDegrees>-1.9827626645565032958984375</LongitudeDegrees>
            </Position>
            <AltitudeMeters>11.6000003814697265625</AltitudeMeters>
            <DistanceMeters>NAN</DistanceMeters>
          </Trackpoint>
          <Trackpoint>
            <Time>2022-07-09T13:18:47.000Z</Time>
            <Position>
              <LatitudeDegrees>43.31920553930103778839111328125</LatitudeDegrees>
              <LongitudeDegrees>-1.98289568535983562469482421875</LongitudeDegrees>
            </Position>
            <AltitudeMeters>11.3999996185302734375</AltitudeMeters>
            <DistanceMeters>NAN</DistanceMeters>
          </Trackpoint>
          <Trackpoint>
            <Time>2022-07-09T13:18:48.000Z</Time>
            <Position>
              <LatitudeDegrees>43.3191925473511219024658203125</LatitudeDegrees>
              <LongitudeDegrees>-1.98292166925966739654541015625</LongitudeDegrees>
            </Position>
            <AltitudeMeters>11.3999996185302734375</AltitudeMeters>
            <DistanceMeters>NAN</DistanceMeters>
          </Trackpoint>
          <Trackpoint>
            <Time>2022-07-09T13:18:53.000Z</Time>
            <Position>
              <LatitudeDegrees>43.31912331283092498779296875</LatitudeDegrees>
              <LongitudeDegrees>-1.98309735395014286041259765625</LongitudeDegrees>
            </Position>
            <AltitudeMeters>11.80000019073486328125</AltitudeMeters>
            <DistanceMeters>NAN</DistanceMeters>
          </Trackpoint>
          <Trackpoint>
            <Time>2022-07-09T13:18:58.000Z</Time>
            <Position>
              <LatitudeDegrees>43.31904075108468532562255859375</LatitudeDegrees>
              <LongitudeDegrees>-1.98327186517417430877685546875</LongitudeDegrees>
            </Position>
            <AltitudeMeters>11.6000003814697265625</AltitudeMeters>
            <DistanceMeters>NAN</DistanceMeters>
          </Trackpoint>
          <Trackpoint>
            <Time>2022-07-09T13:19:01.000Z</Time>
            <Position>
              <LatitudeDegrees>43.31898760981857776641845703125</LatitudeDegrees>
              <LongitudeDegrees>-1.98338703252375125885009765625</LongitudeDegrees>
            </Position>
            <AltitudeMeters>11.3999996185302734375</AltitudeMeters>
            <DistanceMeters>NAN</DistanceMeters>
          </Trackpoint>
          <Trackpoint>
            <Time>2022-07-09T13:19:07.000Z</Time>
            <Position>
              <LatitudeDegrees>43.3188948221504688262939453125</LatitudeDegrees>
              <LongitudeDegrees>-1.9836305268108844757080078125</LongitudeDegrees>
            </Position>
            <AltitudeMeters>12</AltitudeMeters>
            <DistanceMeters>NAN</DistanceMeters>
          </Trackpoint>
          <Trackpoint>
            <Time>2022-07-09T13:19:08.000Z</Time>
            <Position>
              <LatitudeDegrees>43.31888015381991863250732421875</LatitudeDegrees>
              <LongitudeDegrees>-1.98368375189602375030517578125</LongitudeDegrees>
            </Position>
            <AltitudeMeters>12.19999980926513671875</AltitudeMeters>
            <DistanceMeters>NAN</DistanceMeters>
          </Trackpoint>
          <Trackpoint>
            <Time>2022-07-09T13:19:14.000Z</Time>
            <Position>
              <LatitudeDegrees>43.3188408426940441131591796875</LatitudeDegrees>
              <LongitudeDegrees>-1.98399321176111698150634765625</LongitudeDegrees>
            </Position>
            <AltitudeMeters>12.6000003814697265625</AltitudeMeters>
            <DistanceMeters>NAN</DistanceMeters>
          </Trackpoint>
          <Trackpoint>
            <Time>2022-07-09T13:19:20.000Z</Time>
            <Position>
              <LatitudeDegrees>43.3188348077237606048583984375</LatitudeDegrees>
              <LongitudeDegrees>-1.98426227085292339324951171875</LongitudeDegrees>
            </Position>
            <AltitudeMeters>12.19999980926513671875</AltitudeMeters>
            <DistanceMeters>NAN</DistanceMeters>
          </Trackpoint>
          <Trackpoint>
            <Time>2022-07-09T13:19:24.000Z</Time>
            <Position>
              <LatitudeDegrees>43.31887579523026943206787109375</LatitudeDegrees>
              <LongitudeDegrees>-1.98441331274807453155517578125</LongitudeDegrees>
            </Position>
            <AltitudeMeters>12.19999980926513671875</AltitudeMeters>
            <DistanceMeters>NAN</DistanceMeters>
          </Trackpoint>
          <Trackpoint>
            <Time>2022-07-09T13:19:26.000Z</Time>
            <Position>
              <LatitudeDegrees>43.31890094093978404998779296875</LatitudeDegrees>
              <LongitudeDegrees>-1.98447282426059246063232421875</LongitudeDegrees>
            </Position>
            <AltitudeMeters>12.19999980926513671875</AltitudeMeters>
            <DistanceMeters>NAN</DistanceMeters>
          </Trackpoint>
          <Trackpoint>
            <Time>2022-07-09T13:19:34.000Z</Time>
            <Position>
              <LatitudeDegrees>43.31899230368435382843017578125</LatitudeDegrees>
              <LongitudeDegrees>-1.984790079295635223388671875</LongitudeDegrees>
            </Position>
            <AltitudeMeters>12.3999996185302734375</AltitudeMeters>
            <DistanceMeters>NAN</DistanceMeters>
          </Trackpoint>
          <Trackpoint>
            <Time>2022-07-09T13:19:35.000Z</Time>
            <Position>
              <LatitudeDegrees>43.31900940276682376861572265625</LatitudeDegrees>
              <LongitudeDegrees>-1.98482193052768707275390625</LongitudeDegrees>
            </Position>
            <AltitudeMeters>12.19999980926513671875</AltitudeMeters>
            <DistanceMeters>NAN</DistanceMeters>
          </Trackpoint>
          <Trackpoint>
            <Time>2022-07-09T13:19:40.000Z</Time>
            <Position>
              <LatitudeDegrees>43.31901459954679012298583984375</LatitudeDegrees>
              <LongitudeDegrees>-1.98493315838277339935302734375</LongitudeDegrees>
            </Position>
            <AltitudeMeters>11.80000019073486328125</AltitudeMeters>
            <DistanceMeters>NAN</DistanceMeters>
          </Trackpoint>
          <Trackpoint>
            <Time>2022-07-09T13:19:45.000Z</Time>
            <Position>
              <LatitudeDegrees>43.318951316177845001220703125</LatitudeDegrees>
              <LongitudeDegrees>-1.98499535210430622100830078125</LongitudeDegrees>
            </Position>
            <AltitudeMeters>11.80000019073486328125</AltitudeMeters>
            <DistanceMeters>NAN</DistanceMeters>
          </Trackpoint>
          <Trackpoint>
            <Time>2022-07-09T13:19:51.000Z</Time>
            <Position>
              <LatitudeDegrees>43.31883338280022144317626953125</LatitudeDegrees>
              <LongitudeDegrees>-1.98503944091498851776123046875</LongitudeDegrees>
            </Position>
            <AltitudeMeters>11.6000003814697265625</AltitudeMeters>
            <DistanceMeters>NAN</DistanceMeters>
          </Trackpoint>
          <Trackpoint>
            <Time>2022-07-09T13:19:53.000Z</Time>
            <Position>
              <LatitudeDegrees>43.31879264675080776214599609375</LatitudeDegrees>
              <LongitudeDegrees>-1.985052265226840972900390625</LongitudeDegrees>
            </Position>
            <AltitudeMeters>11.6000003814697265625</AltitudeMeters>
            <DistanceMeters>NAN</DistanceMeters>
          </Trackpoint>
          <Trackpoint>
            <Time>2022-07-09T13:19:58.000Z</Time>
            <Position>
              <LatitudeDegrees>43.31870413385331630706787109375</LatitudeDegrees>
              <LongitudeDegrees>-1.9851188175380229949951171875</LongitudeDegrees>
            </Position>
            <AltitudeMeters>11.6000003814697265625</AltitudeMeters>
            <DistanceMeters>NAN</DistanceMeters>
          </Trackpoint>
          <Trackpoint>
            <Time>2022-07-09T13:19:59.000Z</Time>
            <Position>
              <LatitudeDegrees>43.31869994290173053741455078125</LatitudeDegrees>
              <LongitudeDegrees>-1.9851283729076385498046875</LongitudeDegrees>
            </Position>
            <AltitudeMeters>11.3999996185302734375</AltitudeMeters>
            <DistanceMeters>NAN</DistanceMeters>
          </Trackpoint>
          <Trackpoint>
            <Time>2022-07-09T13:20:01.000Z</Time>
            <Position>
              <LatitudeDegrees>43.31870019435882568359375</LatitudeDegrees>
              <LongitudeDegrees>-1.985134743154048919677734375</LongitudeDegrees>
            </Position>
            <AltitudeMeters>11.3999996185302734375</AltitudeMeters>
            <DistanceMeters>NAN</DistanceMeters>
          </Trackpoint>
          <Trackpoint>
            <Time>2022-07-09T13:20:17.000Z</Time>
            <Position>
              <LatitudeDegrees>43.31866063177585601806640625</LatitudeDegrees>
              <LongitudeDegrees>-1.985159218311309814453125</LongitudeDegrees>
            </Position>
            <AltitudeMeters>11.6000003814697265625</AltitudeMeters>
            <DistanceMeters>NAN</DistanceMeters>
          </Trackpoint>
          <Trackpoint>
            <Time>2022-07-09T13:20:18.000Z</Time>
            <Position>
              <LatitudeDegrees>43.3186349831521511077880859375</LatitudeDegrees>
              <LongitudeDegrees>-1.98514941148459911346435546875</LongitudeDegrees>
            </Position>
            <AltitudeMeters>11.6000003814697265625</AltitudeMeters>
            <DistanceMeters>NAN</DistanceMeters>
          </Trackpoint>
          <Trackpoint>
            <Time>2022-07-09T13:20:21.000Z</Time>
            <Position>
              <LatitudeDegrees>43.3185414411127567291259765625</LatitudeDegrees>
              <LongitudeDegrees>-1.98513063602149486541748046875</LongitudeDegrees>
            </Position>
            <AltitudeMeters>11.6000003814697265625</AltitudeMeters>
            <DistanceMeters>NAN</DistanceMeters>
          </Trackpoint>
          <Trackpoint>
            <Time>2022-07-09T13:20:22.000Z</Time>
            <Position>
              <LatitudeDegrees>43.3185149542987346649169921875</LatitudeDegrees>
              <LongitudeDegrees>-1.985143125057220458984375</LongitudeDegrees>
            </Position>
            <AltitudeMeters>11.6000003814697265625</AltitudeMeters>
            <DistanceMeters>NAN</DistanceMeters>
          </Trackpoint>
          <Trackpoint>
            <Time>2022-07-09T13:20:27.000Z</Time>
            <Position>
              <LatitudeDegrees>43.31837489269673824310302734375</LatitudeDegrees>
              <LongitudeDegrees>-1.98518075980246067047119140625</LongitudeDegrees>
            </Position>
            <AltitudeMeters>11.3999996185302734375</AltitudeMeters>
            <DistanceMeters>NAN</DistanceMeters>
          </Trackpoint>
          <Trackpoint>
            <Time>2022-07-09T13:20:32.000Z</Time>
            <Position>
              <LatitudeDegrees>43.318232484161853790283203125</LatitudeDegrees>
              <LongitudeDegrees>-1.98524530045688152313232421875</LongitudeDegrees>
            </Position>
            <AltitudeMeters>11.3999996185302734375</AltitudeMeters>
            <DistanceMeters>NAN</DistanceMeters>
          </Trackpoint>
          <Trackpoint>
            <Time>2022-07-09T13:20:33.000Z</Time>
            <Position>
              <LatitudeDegrees>43.31821027211844921112060546875</LatitudeDegrees>
              <LongitudeDegrees>-1.98526457883417606353759765625</LongitudeDegrees>
            </Position>
            <AltitudeMeters>11.19999980926513671875</AltitudeMeters>
            <DistanceMeters>NAN</DistanceMeters>
          </Trackpoint>
          <Trackpoint>
            <Time>2022-07-09T13:20:39.000Z</Time>
            <Position>
              <LatitudeDegrees>43.3180604875087738037109375</LatitudeDegrees>
              <LongitudeDegrees>-1.98542081750929355621337890625</LongitudeDegrees>
            </Position>
            <AltitudeMeters>10.80000019073486328125</AltitudeMeters>
            <DistanceMeters>NAN</DistanceMeters>
          </Trackpoint>
          <Trackpoint>
            <Time>2022-07-09T13:20:44.000Z</Time>
            <Position>
              <LatitudeDegrees>43.3179060928523540496826171875</LatitudeDegrees>
              <LongitudeDegrees>-1.98554503731429576873779296875</LongitudeDegrees>
            </Position>
            <AltitudeMeters>10.80000019073486328125</AltitudeMeters>
            <DistanceMeters>NAN</DistanceMeters>
          </Trackpoint>
          <Trackpoint>
            <Time>2022-07-09T13:20:51.000Z</Time>
            <Position>
              <LatitudeDegrees>43.31770266406238079071044921875</LatitudeDegrees>
              <LongitudeDegrees>-1.98573698289692401885986328125</LongitudeDegrees>
            </Position>
            <AltitudeMeters>11.19999980926513671875</AltitudeMeters>
            <DistanceMeters>NAN</DistanceMeters>
          </Trackpoint>
          <Trackpoint>
            <Time>2022-07-09T13:20:56.000Z</Time>
            <Position>
              <LatitudeDegrees>43.3175376243889331817626953125</LatitudeDegrees>
              <LongitudeDegrees>-1.98590017855167388916015625</LongitudeDegrees>
            </Position>
            <AltitudeMeters>11.19999980926513671875</AltitudeMeters>
            <DistanceMeters>NAN</DistanceMeters>
          </Trackpoint>
          <Trackpoint>
            <Time>2022-07-09T13:20:57.000Z</Time>
            <Position>
              <LatitudeDegrees>43.317495882511138916015625</LatitudeDegrees>
              <LongitudeDegrees>-1.98593429289758205413818359375</LongitudeDegrees>
            </Position>
            <AltitudeMeters>11.19999980926513671875</AltitudeMeters>
            <DistanceMeters>NAN</DistanceMeters>
          </Trackpoint>
          <Trackpoint>
            <Time>2022-07-09T13:21:04.000Z</Time>
            <Position>
              <LatitudeDegrees>43.3172214590013027191162109375</LatitudeDegrees>
              <LongitudeDegrees>-1.986145935952663421630859375</LongitudeDegrees>
            </Position>
            <AltitudeMeters>11</AltitudeMeters>
            <DistanceMeters>NAN</DistanceMeters>
          </Trackpoint>
          <Trackpoint>
            <Time>2022-07-09T13:21:09.000Z</Time>
            <Position>
              <LatitudeDegrees>43.3170397393405437469482421875</LatitudeDegrees>
              <LongitudeDegrees>-1.98631147854030132293701171875</LongitudeDegrees>
            </Position>
            <AltitudeMeters>11.19999980926513671875</AltitudeMeters>
            <DistanceMeters>NAN</DistanceMeters>
          </Trackpoint>
          <Trackpoint>
            <Time>2022-07-09T13:21:10.000Z</Time>
            <Position>
              <LatitudeDegrees>43.31701165996491909027099609375</LatitudeDegrees>
              <LongitudeDegrees>-1.98634433560073375701904296875</LongitudeDegrees>
            </Position>
            <AltitudeMeters>11.19999980926513671875</AltitudeMeters>
            <DistanceMeters>NAN</DistanceMeters>
          </Trackpoint>
          <Trackpoint>
            <Time>2022-07-09T13:21:12.000Z</Time>
            <Position>
              <LatitudeDegrees>43.31700109876692295074462890625</LatitudeDegrees>
              <LongitudeDegrees>-1.98643083684146404266357421875</LongitudeDegrees>
            </Position>
            <AltitudeMeters>11.19999980926513671875</AltitudeMeters>
            <DistanceMeters>NAN</DistanceMeters>
          </Trackpoint>
          <Trackpoint>
            <Time>2022-07-09T13:21:13.000Z</Time>
            <Position>
              <LatitudeDegrees>43.317010737955570220947265625</LatitudeDegrees>
              <LongitudeDegrees>-1.9864761829376220703125</LongitudeDegrees>
            </Position>
            <AltitudeMeters>11.19999980926513671875</AltitudeMeters>
            <DistanceMeters>NAN</DistanceMeters>
          </Trackpoint>
          <Trackpoint>
            <Time>2022-07-09T13:21:17.000Z</Time>
            <Position>
              <LatitudeDegrees>43.3170397393405437469482421875</LatitudeDegrees>
              <LongitudeDegrees>-1.98656209744513034820556640625</LongitudeDegrees>
            </Position>
            <AltitudeMeters>11</AltitudeMeters>
            <DistanceMeters>NAN</DistanceMeters>
          </Trackpoint>
          <Trackpoint>
            <Time>2022-07-09T13:21:21.000Z</Time>
            <Position>
              <LatitudeDegrees>43.3170722611248493194580078125</LatitudeDegrees>
              <LongitudeDegrees>-1.98657215572893619537353515625</LongitudeDegrees>
            </Position>
            <AltitudeMeters>11</AltitudeMeters>
            <DistanceMeters>NAN</DistanceMeters>
          </Trackpoint>
          <Trackpoint>
            <Time>2022-07-09T13:21:22.000Z</Time>
            <Position>
              <LatitudeDegrees>43.31708407960832118988037109375</LatitudeDegrees>
              <LongitudeDegrees>-1.98656134307384490966796875</LongitudeDegrees>
            </Position>
            <AltitudeMeters>11</AltitudeMeters>
            <DistanceMeters>NAN</DistanceMeters>
          </Trackpoint>
          <Trackpoint>
            <Time>2022-07-09T13:21:27.000Z</Time>
            <Position>
              <LatitudeDegrees>43.31715599633753299713134765625</LatitudeDegrees>
              <LongitudeDegrees>-1.98648397810757160186767578125</LongitudeDegrees>
            </Position>
            <AltitudeMeters>10.19999980926513671875</AltitudeMeters>
            <DistanceMeters>NAN</DistanceMeters>
          </Trackpoint>
          <Trackpoint>
            <Time>2022-07-09T13:21:31.000Z</Time>
            <Position>
              <LatitudeDegrees>43.31722456030547618865966796875</LatitudeDegrees>
              <LongitudeDegrees>-1.98641692288219928741455078125</LongitudeDegrees>
            </Position>
            <AltitudeMeters>9</AltitudeMeters>
            <DistanceMeters>NAN</DistanceMeters>
          </Trackpoint>
          <Trackpoint>
            <Time>2022-07-09T13:21:33.000Z</Time>
            <Position>
              <LatitudeDegrees>43.3172504603862762451171875</LatitudeDegrees>
              <LongitudeDegrees>-1.98638775385916233062744140625</LongitudeDegrees>
            </Position>
            <AltitudeMeters>8.6000003814697265625</AltitudeMeters>
            <DistanceMeters>NAN</DistanceMeters>
          </Trackpoint>
          <Trackpoint>
            <Time>2022-07-09T13:21:34.000Z</Time>
            <Position>
              <LatitudeDegrees>43.317259848117828369140625</LatitudeDegrees>
              <LongitudeDegrees>-1.9863667152822017669677734375</LongitudeDegrees>
            </Position>
            <AltitudeMeters>8.3999996185302734375</AltitudeMeters>
            <DistanceMeters>NAN</DistanceMeters>
          </Trackpoint>
          <Trackpoint>
            <Time>2022-07-09T13:21:36.000Z</Time>
            <Position>
              <LatitudeDegrees>43.3172558248043060302734375</LatitudeDegrees>
              <LongitudeDegrees>-1.98630980215966701507568359375</LongitudeDegrees>
            </Position>
            <AltitudeMeters>8</AltitudeMeters>
            <DistanceMeters>NAN</DistanceMeters>
          </Trackpoint>
          <Trackpoint>
            <Time>2022-07-09T13:22:57.000Z</Time>
            <Position>
              <LatitudeDegrees>43.3165155351161956787109375</LatitudeDegrees>
              <LongitudeDegrees>-1.98735686950385570526123046875</LongitudeDegrees>
            </Position>
            <AltitudeMeters>9</AltitudeMeters>
            <DistanceMeters>NAN</DistanceMeters>
          </Trackpoint>
          <Trackpoint>
            <Time>2022-07-09T13:22:58.000Z</Time>
            <Position>
              <LatitudeDegrees>43.31653640605509281158447265625</LatitudeDegrees>
              <LongitudeDegrees>-1.98758435435593128204345703125</LongitudeDegrees>
            </Position>
            <AltitudeMeters>9</AltitudeMeters>
            <DistanceMeters>NAN</DistanceMeters>
          </Trackpoint>
          <Trackpoint>
            <Time>2022-07-09T13:23:00.000Z</Time>
            <Position>
              <LatitudeDegrees>43.3165401779115200042724609375</LatitudeDegrees>
              <LongitudeDegrees>-1.9873316399753093719482421875</LongitudeDegrees>
            </Position>
            <AltitudeMeters>9</AltitudeMeters>
            <DistanceMeters>NAN</DistanceMeters>
          </Trackpoint>
          <Trackpoint>
            <Time>2022-07-09T13:23:01.000Z</Time>
            <Position>
              <LatitudeDegrees>43.31654629670083522796630859375</LatitudeDegrees>
              <LongitudeDegrees>-1.98737497441470623016357421875</LongitudeDegrees>
            </Position>
            <AltitudeMeters>9</AltitudeMeters>
            <DistanceMeters>NAN</DistanceMeters>
          </Trackpoint>
          <Trackpoint>
            <Time>2022-07-09T13:23:03.000Z</Time>
            <Position>
              <LatitudeDegrees>43.31678836606442928314208984375</LatitudeDegrees>
              <LongitudeDegrees>-1.987450160086154937744140625</LongitudeDegrees>
            </Position>
            <AltitudeMeters>8.80000019073486328125</AltitudeMeters>
            <DistanceMeters>NAN</DistanceMeters>
          </Trackpoint>
          <Trackpoint>
            <Time>2022-07-09T13:23:06.000Z</Time>
            <Position>
              <LatitudeDegrees>43.31656021066009998321533203125</LatitudeDegrees>
              <LongitudeDegrees>-1.987358964979648590087890625</LongitudeDegrees>
            </Position>
            <AltitudeMeters>8.80000019073486328125</AltitudeMeters>
            <DistanceMeters>NAN</DistanceMeters>
          </Trackpoint>
          <Trackpoint>
            <Time>2022-07-09T13:23:07.000Z</Time>
            <Position>
              <LatitudeDegrees>43.31656959839165210723876953125</LatitudeDegrees>
              <LongitudeDegrees>-1.98736189864575862884521484375</LongitudeDegrees>
            </Position>
            <AltitudeMeters>8.80000019073486328125</AltitudeMeters>
            <DistanceMeters>NAN</DistanceMeters>
          </Trackpoint>
          <Trackpoint>
            <Time>2022-07-09T13:23:09.000Z</Time>
            <Position>
              <LatitudeDegrees>43.31654210574924945831298828125</LatitudeDegrees>
              <LongitudeDegrees>-1.98737832717597484588623046875</LongitudeDegrees>
            </Position>
            <AltitudeMeters>8.6000003814697265625</AltitudeMeters>
            <DistanceMeters>NAN</DistanceMeters>
          </Trackpoint>
          <Trackpoint>
            <Time>2022-07-09T13:23:10.000Z</Time>
            <Position>
              <LatitudeDegrees>43.31651444546878337860107421875</LatitudeDegrees>
              <LongitudeDegrees>-1.9873899780213832855224609375</LongitudeDegrees>
            </Position>
            <AltitudeMeters>8.6000003814697265625</AltitudeMeters>
            <DistanceMeters>NAN</DistanceMeters>
          </Trackpoint>
          <Trackpoint>
            <Time>2022-07-09T13:23:12.000Z</Time>
            <Position>
              <LatitudeDegrees>43.31646532751619815826416015625</LatitudeDegrees>
              <LongitudeDegrees>-1.98738620616495609283447265625</LongitudeDegrees>
            </Position>
            <AltitudeMeters>8.6000003814697265625</AltitudeMeters>
            <DistanceMeters>NAN</DistanceMeters>
          </Trackpoint>
          <Trackpoint>
            <Time>2022-07-09T13:23:17.000Z</Time>
            <Position>
              <LatitudeDegrees>43.316356278955936431884765625</LatitudeDegrees>
              <LongitudeDegrees>-1.9873299635946750640869140625</LongitudeDegrees>
            </Position>
            <AltitudeMeters>8.6000003814697265625</AltitudeMeters>
            <DistanceMeters>NAN</DistanceMeters>
          </Trackpoint>
          <Trackpoint>
            <Time>2022-07-09T13:23:18.000Z</Time>
            <Position>
              <LatitudeDegrees>43.316373042762279510498046875</LatitudeDegrees>
              <LongitudeDegrees>-1.9873544387519359588623046875</LongitudeDegrees>
            </Position>
            <AltitudeMeters>8.6000003814697265625</AltitudeMeters>
            <DistanceMeters>NAN</DistanceMeters>
          </Trackpoint>
          <Trackpoint>
            <Time>2022-07-09T13:23:19.000Z</Time>
            <Position>
              <LatitudeDegrees>43.31639324314892292022705078125</LatitudeDegrees>
              <LongitudeDegrees>-1.98735485784709453582763671875</LongitudeDegrees>
            </Position>
            <AltitudeMeters>8.6000003814697265625</AltitudeMeters>
            <DistanceMeters>NAN</DistanceMeters>
          </Trackpoint>
          <Trackpoint>
            <Time>2022-07-09T13:23:21.000Z</Time>
            <Position>
              <LatitudeDegrees>43.31641822122037410736083984375</LatitudeDegrees>
              <LongitudeDegrees>-1.98739609681069850921630859375</LongitudeDegrees>
            </Position>
            <AltitudeMeters>8.6000003814697265625</AltitudeMeters>
            <DistanceMeters>NAN</DistanceMeters>
          </Trackpoint>
          <Trackpoint>
            <Time>2022-07-09T13:23:23.000Z</Time>
            <Position>
              <LatitudeDegrees>43.3164375834167003631591796875</LatitudeDegrees>
              <LongitudeDegrees>-1.98741219006478786468505859375</LongitudeDegrees>
            </Position>
            <AltitudeMeters>8.80000019073486328125</AltitudeMeters>
            <DistanceMeters>NAN</DistanceMeters>
          </Trackpoint>
          <Trackpoint>
            <Time>2022-07-09T13:23:26.000Z</Time>
            <Position>
              <LatitudeDegrees>43.3164469711482524871826171875</LatitudeDegrees>
              <LongitudeDegrees>-1.98743297718465328216552734375</LongitudeDegrees>
            </Position>
            <AltitudeMeters>8.80000019073486328125</AltitudeMeters>
            <DistanceMeters>NAN</DistanceMeters>
          </Trackpoint>
          <Trackpoint>
            <Time>2022-07-09T13:23:27.000Z</Time>
            <Position>
              <LatitudeDegrees>43.316436074674129486083984375</LatitudeDegrees>
              <LongitudeDegrees>-1.9874318875372409820556640625</LongitudeDegrees>
            </Position>
            <AltitudeMeters>8.80000019073486328125</AltitudeMeters>
            <DistanceMeters>NAN</DistanceMeters>
          </Trackpoint>
          <Trackpoint>
            <Time>2022-07-09T13:23:29.000Z</Time>
            <Position>
              <LatitudeDegrees>43.31645459868013858795166015625</LatitudeDegrees>
              <LongitudeDegrees>-1.98740833438932895660400390625</LongitudeDegrees>
            </Position>
            <AltitudeMeters>9</AltitudeMeters>
            <DistanceMeters>NAN</DistanceMeters>
          </Trackpoint>
          <Trackpoint>
            <Time>2022-07-09T13:23:31.000Z</Time>
            <Position>
              <LatitudeDegrees>43.316490389406681060791015625</LatitudeDegrees>
              <LongitudeDegrees>-1.98735351674258708953857421875</LongitudeDegrees>
            </Position>
            <AltitudeMeters>9</AltitudeMeters>
            <DistanceMeters>NAN</DistanceMeters>
          </Trackpoint>
          <Trackpoint>
            <Time>2022-07-09T13:23:33.000Z</Time>
            <Position>
              <LatitudeDegrees>43.316503129899501800537109375</LatitudeDegrees>
              <LongitudeDegrees>-1.9873058237135410308837890625</LongitudeDegrees>
            </Position>
            <AltitudeMeters>9</AltitudeMeters>
            <DistanceMeters>NAN</DistanceMeters>
          </Trackpoint>
          <Trackpoint>
            <Time>2022-07-09T13:23:35.000Z</Time>
            <Position>
              <LatitudeDegrees>43.316458202898502349853515625</LatitudeDegrees>
              <LongitudeDegrees>-1.98734882287681102752685546875</LongitudeDegrees>
            </Position>
            <AltitudeMeters>9.19999980926513671875</AltitudeMeters>
            <DistanceMeters>NAN</DistanceMeters>
          </Trackpoint>
          <Trackpoint>
            <Time>2022-07-09T13:23:54.000Z</Time>
            <Position>
              <LatitudeDegrees>43.316483013331890106201171875</LatitudeDegrees>
              <LongitudeDegrees>-1.98748402297496795654296875</LongitudeDegrees>
            </Position>
            <AltitudeMeters>9.3999996185302734375</AltitudeMeters>
            <DistanceMeters>NAN</DistanceMeters>
          </Trackpoint>
          <Trackpoint>
            <Time>2022-07-09T13:23:55.000Z</Time>
            <Position>
              <LatitudeDegrees>43.3164888806641101837158203125</LatitudeDegrees>
              <LongitudeDegrees>-1.98747195303440093994140625</LongitudeDegrees>
            </Position>
            <AltitudeMeters>9.3999996185302734375</AltitudeMeters>
            <DistanceMeters>NAN</DistanceMeters>
          </Trackpoint>
          <Trackpoint>
            <Time>2022-07-09T13:23:56.000Z</Time>
            <Position>
              <LatitudeDegrees>43.3164905570447444915771484375</LatitudeDegrees>
              <LongitudeDegrees>-1.987450830638408660888671875</LongitudeDegrees>
            </Position>
            <AltitudeMeters>9.19999980926513671875</AltitudeMeters>
            <DistanceMeters>NAN</DistanceMeters>
          </Trackpoint>
          <Trackpoint>
            <Time>2022-07-09T13:23:57.000Z</Time>
            <Position>
              <LatitudeDegrees>43.31649013794958591461181640625</LatitudeDegrees>
              <LongitudeDegrees>-1.987444460391998291015625</LongitudeDegrees>
            </Position>
            <AltitudeMeters>9.3999996185302734375</AltitudeMeters>
            <DistanceMeters>NAN</DistanceMeters>
          </Trackpoint>
          <Trackpoint>
            <Time>2022-07-09T13:24:26.000Z</Time>
            <Position>
              <LatitudeDegrees>43.31657496280968189239501953125</LatitudeDegrees>
              <LongitudeDegrees>-1.98731236159801483154296875</LongitudeDegrees>
            </Position>
            <AltitudeMeters>8.80000019073486328125</AltitudeMeters>
            <DistanceMeters>NAN</DistanceMeters>
          </Trackpoint>
          <Trackpoint>
            <Time>2022-07-09T13:24:28.000Z</Time>
            <Position>
              <LatitudeDegrees>43.31659088842570781707763671875</LatitudeDegrees>
              <LongitudeDegrees>-1.98728629387915134429931640625</LongitudeDegrees>
            </Position>
            <AltitudeMeters>8.80000019073486328125</AltitudeMeters>
            <DistanceMeters>NAN</DistanceMeters>
          </Trackpoint>
          <Trackpoint>
            <Time>2022-07-09T13:24:35.000Z</Time>
            <Position>
              <LatitudeDegrees>43.316620476543903350830078125</LatitudeDegrees>
              <LongitudeDegrees>-1.98721169494092464447021484375</LongitudeDegrees>
            </Position>
            <AltitudeMeters>8.80000019073486328125</AltitudeMeters>
            <DistanceMeters>NAN</DistanceMeters>
          </Trackpoint>
          <Trackpoint>
            <Time>2022-07-09T13:24:48.000Z</Time>
            <Position>
              <LatitudeDegrees>43.31660061143338680267333984375</LatitudeDegrees>
              <LongitudeDegrees>-1.98723130859434604644775390625</LongitudeDegrees>
            </Position>
            <AltitudeMeters>8.6000003814697265625</AltitudeMeters>
            <DistanceMeters>NAN</DistanceMeters>
          </Trackpoint>
          <Trackpoint>
            <Time>2022-07-09T13:24:49.000Z</Time>
            <Position>
              <LatitudeDegrees>43.3165933191776275634765625</LatitudeDegrees>
              <LongitudeDegrees>-1.9872427918016910552978515625</LongitudeDegrees>
            </Position>
            <AltitudeMeters>8.6000003814697265625</AltitudeMeters>
            <DistanceMeters>NAN</DistanceMeters>
          </Trackpoint>
          <Trackpoint>
            <Time>2022-07-09T13:24:50.000Z</Time>
            <Position>
              <LatitudeDegrees>43.31658753566443920135498046875</LatitudeDegrees>
              <LongitudeDegrees>-1.987256705760955810546875</LongitudeDegrees>
            </Position>
            <AltitudeMeters>8.80000019073486328125</AltitudeMeters>
            <DistanceMeters>NAN</DistanceMeters>
          </Trackpoint>
          <Trackpoint>
            <Time>2022-07-09T13:24:51.000Z</Time>
            <Position>
              <LatitudeDegrees>43.3165794052183628082275390625</LatitudeDegrees>
              <LongitudeDegrees>-1.987271793186664581298828125</LongitudeDegrees>
            </Position>
            <AltitudeMeters>8.80000019073486328125</AltitudeMeters>
            <DistanceMeters>NAN</DistanceMeters>
          </Trackpoint>
          <Trackpoint>
            <Time>2022-07-09T13:24:58.000Z</Time>
            <Position>
              <LatitudeDegrees>43.3165089972317218780517578125</LatitudeDegrees>
              <LongitudeDegrees>-1.9873182289302349090576171875</LongitudeDegrees>
            </Position>
            <AltitudeMeters>8.80000019073486328125</AltitudeMeters>
            <DistanceMeters>NAN</DistanceMeters>
          </Trackpoint>
          <Trackpoint>
            <Time>2022-07-09T13:25:00.000Z</Time>
            <Position>
              <LatitudeDegrees>43.31650187261402606964111328125</LatitudeDegrees>
              <LongitudeDegrees>-1.9873266108334064483642578125</LongitudeDegrees>
            </Position>
            <AltitudeMeters>8.6000003814697265625</AltitudeMeters>
            <DistanceMeters>NAN</DistanceMeters>
          </Trackpoint>
          <Trackpoint>
            <Time>2022-07-09T13:25:02.000Z</Time>
            <Position>
              <LatitudeDegrees>43.316484354436397552490234375</LatitudeDegrees>
              <LongitudeDegrees>-1.9873195700347423553466796875</LongitudeDegrees>
            </Position>
            <AltitudeMeters>8.80000019073486328125</AltitudeMeters>
            <DistanceMeters>NAN</DistanceMeters>
          </Trackpoint>
          <Trackpoint>
            <Time>2022-07-09T13:25:07.000Z</Time>
            <Position>
              <LatitudeDegrees>43.31647370941936969757080078125</LatitudeDegrees>
              <LongitudeDegrees>-1.9873098470270633697509765625</LongitudeDegrees>
            </Position>
            <AltitudeMeters>9</AltitudeMeters>
            <DistanceMeters>NAN</DistanceMeters>
          </Trackpoint>
          <Trackpoint>
            <Time>2022-07-09T13:25:10.000Z</Time>
            <Position>
              <LatitudeDegrees>43.3164667524397373199462890625</LatitudeDegrees>
              <LongitudeDegrees>-1.9873058237135410308837890625</LongitudeDegrees>
            </Position>
            <AltitudeMeters>9.19999980926513671875</AltitudeMeters>
            <DistanceMeters>NAN</DistanceMeters>
          </Trackpoint>
          <Trackpoint>
            <Time>2022-07-09T13:43:50.000Z</Time>
            <Position>
              <LatitudeDegrees>43.31654311157763004302978515625</LatitudeDegrees>
              <LongitudeDegrees>-1.9873577915132045745849609375</LongitudeDegrees>
            </Position>
            <AltitudeMeters>0.4000000059604644775390625</AltitudeMeters>
            <DistanceMeters>NAN</DistanceMeters>
          </Trackpoint>
          <Trackpoint>
            <Time>2022-07-09T13:43:52.000Z</Time>
            <Position>
              <LatitudeDegrees>43.3165411837399005889892578125</LatitudeDegrees>
              <LongitudeDegrees>-1.98731814511120319366455078125</LongitudeDegrees>
            </Position>
            <AltitudeMeters>0.4000000059604644775390625</AltitudeMeters>
            <DistanceMeters>NAN</DistanceMeters>
          </Trackpoint>
          <Trackpoint>
            <Time>2022-07-09T13:43:54.000Z</Time>
            <Position>
              <LatitudeDegrees>43.31651218235492706298828125</LatitudeDegrees>
              <LongitudeDegrees>-1.987409926950931549072265625</LongitudeDegrees>
            </Position>
            <AltitudeMeters>0.20000000298023223876953125</AltitudeMeters>
            <DistanceMeters>NAN</DistanceMeters>
          </Trackpoint>
          <Trackpoint>
            <Time>2022-07-09T13:43:55.000Z</Time>
            <Position>
              <LatitudeDegrees>43.316527940332889556884765625</LatitudeDegrees>
              <LongitudeDegrees>-1.9874566979706287384033203125</LongitudeDegrees>
            </Position>
            <AltitudeMeters>0.20000000298023223876953125</AltitudeMeters>
            <DistanceMeters>NAN</DistanceMeters>
          </Trackpoint>
          <Trackpoint>
            <Time>2022-07-09T13:43:56.000Z</Time>
            <Position>
              <LatitudeDegrees>43.31656222231686115264892578125</LatitudeDegrees>
              <LongitudeDegrees>-1.9874392636120319366455078125</LongitudeDegrees>
            </Position>
            <AltitudeMeters>0.20000000298023223876953125</AltitudeMeters>
            <DistanceMeters>NAN</DistanceMeters>
          </Trackpoint>
          <Trackpoint>
            <Time>2022-07-09T13:43:58.000Z</Time>
            <Position>
              <LatitudeDegrees>43.3165381662547588348388671875</LatitudeDegrees>
              <LongitudeDegrees>-1.9874054007232189178466796875</LongitudeDegrees>
            </Position>
            <AltitudeMeters>0</AltitudeMeters>
            <DistanceMeters>NAN</DistanceMeters>
          </Trackpoint>
          <Trackpoint>
            <Time>2022-07-09T13:44:00.000Z</Time>
            <Position>
              <LatitudeDegrees>43.31655233167111873626708984375</LatitudeDegrees>
              <LongitudeDegrees>-1.987375728785991668701171875</LongitudeDegrees>
            </Position>
            <AltitudeMeters>0</AltitudeMeters>
            <DistanceMeters>NAN</DistanceMeters>
          </Trackpoint>
          <Trackpoint>
            <Time>2022-07-09T13:44:02.000Z</Time>
            <Position>
              <LatitudeDegrees>43.3165549300611019134521484375</LatitudeDegrees>
              <LongitudeDegrees>-1.98737732134759426116943359375</LongitudeDegrees>
            </Position>
            <AltitudeMeters>0</AltitudeMeters>
            <DistanceMeters>NAN</DistanceMeters>
          </Trackpoint>
          <Trackpoint>
            <Time>2022-07-09T13:44:06.000Z</Time>
            <Position>
              <LatitudeDegrees>43.31655149348080158233642578125</LatitudeDegrees>
              <LongitudeDegrees>-1.9873762317001819610595703125</LongitudeDegrees>
            </Position>
            <AltitudeMeters>-0.20000000298023223876953125</AltitudeMeters>
            <DistanceMeters>NAN</DistanceMeters>
          </Trackpoint>
          <Trackpoint>
            <Time>2022-07-09T13:44:11.000Z</Time>
            <Position>
              <LatitudeDegrees>43.3165334723889827728271484375</LatitudeDegrees>
              <LongitudeDegrees>-1.9873691909015178680419921875</LongitudeDegrees>
            </Position>
            <AltitudeMeters>-0.4000000059604644775390625</AltitudeMeters>
            <DistanceMeters>NAN</DistanceMeters>
          </Trackpoint>
          <Trackpoint>
            <Time>2022-07-09T13:44:14.000Z</Time>
            <Position>
              <LatitudeDegrees>43.31654529087245464324951171875</LatitudeDegrees>
              <LongitudeDegrees>-1.9873594678938388824462890625</LongitudeDegrees>
            </Position>
            <AltitudeMeters>-0.4000000059604644775390625</AltitudeMeters>
            <DistanceMeters>NAN</DistanceMeters>
          </Trackpoint>
          <Trackpoint>
            <Time>2022-07-09T13:47:26.000Z</Time>
            <Position>
              <LatitudeDegrees>43.31657110713422298431396484375</LatitudeDegrees>
              <LongitudeDegrees>-1.9874054007232189178466796875</LongitudeDegrees>
            </Position>
            <AltitudeMeters>-1.39999997615814208984375</AltitudeMeters>
            <DistanceMeters>NAN</DistanceMeters>
          </Trackpoint>
          <Trackpoint>
            <Time>2022-07-09T13:47:28.000Z</Time>
            <Position>
              <LatitudeDegrees>43.31655769608914852142333984375</LatitudeDegrees>
              <LongitudeDegrees>-1.987403891980648040771484375</LongitudeDegrees>
            </Position>
            <AltitudeMeters>-1.39999997615814208984375</AltitudeMeters>
            <DistanceMeters>NAN</DistanceMeters>
          </Trackpoint>
          <Trackpoint>
            <Time>2022-07-09T13:55:09.000Z</Time>
            <Position>
              <LatitudeDegrees>43.316558785736560821533203125</LatitudeDegrees>
              <LongitudeDegrees>-1.9873733818531036376953125</LongitudeDegrees>
            </Position>
            <AltitudeMeters>3.400000095367431640625</AltitudeMeters>
            <DistanceMeters>NAN</DistanceMeters>
          </Trackpoint>
          <Trackpoint>
            <Time>2022-07-09T13:55:10.000Z</Time>
            <Position>
              <LatitudeDegrees>43.3165539242327213287353515625</LatitudeDegrees>
              <LongitudeDegrees>-1.987370364367961883544921875</LongitudeDegrees>
            </Position>
            <AltitudeMeters>0.4000000059604644775390625</AltitudeMeters>
            <DistanceMeters>NAN</DistanceMeters>
          </Trackpoint>
          <Trackpoint>
            <Time>2022-07-09T13:55:12.000Z</Time>
            <Position>
              <LatitudeDegrees>43.31653674133121967315673828125</LatitudeDegrees>
              <LongitudeDegrees>-1.987318731844425201416015625</LongitudeDegrees>
            </Position>
            <AltitudeMeters>0.4000000059604644775390625</AltitudeMeters>
            <DistanceMeters>NAN</DistanceMeters>
          </Trackpoint>
          <Trackpoint>
            <Time>2022-07-09T13:55:15.000Z</Time>
            <Position>
              <LatitudeDegrees>43.3165374957025051116943359375</LatitudeDegrees>
              <LongitudeDegrees>-1.98731579817831516265869140625</LongitudeDegrees>
            </Position>
            <AltitudeMeters>0.60000002384185791015625</AltitudeMeters>
            <DistanceMeters>NAN</DistanceMeters>
          </Trackpoint>
          <Trackpoint>
            <Time>2022-07-09T13:55:20.000Z</Time>
            <Position>
              <LatitudeDegrees>43.31650874577462673187255859375</LatitudeDegrees>
              <LongitudeDegrees>-1.98731646873056888580322265625</LongitudeDegrees>
            </Position>
            <AltitudeMeters>0.60000002384185791015625</AltitudeMeters>
            <DistanceMeters>NAN</DistanceMeters>
          </Trackpoint>
          <Trackpoint>
            <Time>2022-07-09T13:55:24.000Z</Time>
            <Position>
              <LatitudeDegrees>43.31648427061736583709716796875</LatitudeDegrees>
              <LongitudeDegrees>-1.98736575432121753692626953125</LongitudeDegrees>
            </Position>
            <AltitudeMeters>0.60000002384185791015625</AltitudeMeters>
            <DistanceMeters>NAN</DistanceMeters>
          </Trackpoint>
          <Trackpoint>
            <Time>2022-07-09T13:55:28.000Z</Time>
            <Position>
              <LatitudeDegrees>43.31647521816194057464599609375</LatitudeDegrees>
              <LongitudeDegrees>-1.98734396137297153472900390625</LongitudeDegrees>
            </Position>
            <AltitudeMeters>0.800000011920928955078125</AltitudeMeters>
            <DistanceMeters>NAN</DistanceMeters>
          </Trackpoint>
          <Trackpoint>
            <Time>2022-07-09T13:55:33.000Z</Time>
            <Position>
              <LatitudeDegrees>43.31647287122905254364013671875</LatitudeDegrees>
              <LongitudeDegrees>-1.987305320799350738525390625</LongitudeDegrees>
            </Position>
            <AltitudeMeters>0.800000011920928955078125</AltitudeMeters>
            <DistanceMeters>NAN</DistanceMeters>
          </Trackpoint>
          <Trackpoint>
            <Time>2022-07-09T13:55:37.000Z</Time>
            <Position>
              <LatitudeDegrees>43.31647538580000400543212890625</LatitudeDegrees>
              <LongitudeDegrees>-1.98725226335227489471435546875</LongitudeDegrees>
            </Position>
            <AltitudeMeters>0.800000011920928955078125</AltitudeMeters>
            <DistanceMeters>NAN</DistanceMeters>
          </Trackpoint>
          <Trackpoint>
            <Time>2022-07-09T13:55:41.000Z</Time>
            <Position>
              <LatitudeDegrees>43.31649935804307460784912109375</LatitudeDegrees>
              <LongitudeDegrees>-1.987208425998687744140625</LongitudeDegrees>
            </Position>
            <AltitudeMeters>1</AltitudeMeters>
            <DistanceMeters>NAN</DistanceMeters>
          </Trackpoint>
          <Trackpoint>
            <Time>2022-07-09T13:55:54.000Z</Time>
            <Position>
              <LatitudeDegrees>43.31647823564708232879638671875</LatitudeDegrees>
              <LongitudeDegrees>-1.987248323857784271240234375</LongitudeDegrees>
            </Position>
            <AltitudeMeters>1.2000000476837158203125</AltitudeMeters>
            <DistanceMeters>NAN</DistanceMeters>
          </Trackpoint>
          <Trackpoint>
            <Time>2022-07-09T13:55:56.000Z</Time>
            <Position>
              <LatitudeDegrees>43.3164806663990020751953125</LatitudeDegrees>
              <LongitudeDegrees>-1.98724069632589817047119140625</LongitudeDegrees>
            </Position>
            <AltitudeMeters>1.2000000476837158203125</AltitudeMeters>
            <DistanceMeters>NAN</DistanceMeters>
          </Trackpoint>
          <Trackpoint>
            <Time>2022-07-09T13:55:59.000Z</Time>
            <Position>
              <LatitudeDegrees>43.31648058257997035980224609375</LatitudeDegrees>
              <LongitudeDegrees>-1.987239606678485870361328125</LongitudeDegrees>
            </Position>
            <AltitudeMeters>1.2000000476837158203125</AltitudeMeters>
            <DistanceMeters>NAN</DistanceMeters>
          </Trackpoint>
          <Trackpoint>
            <Time>2022-07-09T13:56:53.000Z</Time>
            <Position>
              <LatitudeDegrees>43.316563479602336883544921875</LatitudeDegrees>
              <LongitudeDegrees>-1.98734429664909839630126953125</LongitudeDegrees>
            </Position>
            <AltitudeMeters>2.599999904632568359375</AltitudeMeters>
            <DistanceMeters>NAN</DistanceMeters>
          </Trackpoint>
          <Trackpoint>
            <Time>2022-07-09T13:56:54.000Z</Time>
            <Position>
              <LatitudeDegrees>43.31657077185809612274169921875</LatitudeDegrees>
              <LongitudeDegrees>-1.98732920922338962554931640625</LongitudeDegrees>
            </Position>
            <AltitudeMeters>0.4000000059604644775390625</AltitudeMeters>
            <DistanceMeters>NAN</DistanceMeters>
          </Trackpoint>
          <Trackpoint>
            <Time>2022-07-09T13:56:55.000Z</Time>
            <Position>
              <LatitudeDegrees>43.316576220095157623291015625</LatitudeDegrees>
              <LongitudeDegrees>-1.9873329810798168182373046875</LongitudeDegrees>
            </Position>
            <AltitudeMeters>0.4000000059604644775390625</AltitudeMeters>
            <DistanceMeters>NAN</DistanceMeters>
          </Trackpoint>
          <Trackpoint>
            <Time>2022-07-09T13:56:57.000Z</Time>
            <Position>
              <LatitudeDegrees>43.31659122370183467864990234375</LatitudeDegrees>
              <LongitudeDegrees>-1.98735452257096767425537109375</LongitudeDegrees>
            </Position>
            <AltitudeMeters>0.4000000059604644775390625</AltitudeMeters>
            <DistanceMeters>NAN</DistanceMeters>
          </Trackpoint>
          <Trackpoint>
            <Time>2022-07-09T13:57:01.000Z</Time>
            <Position>
              <LatitudeDegrees>43.3165800757706165313720703125</LatitudeDegrees>
              <LongitudeDegrees>-1.9873953424394130706787109375</LongitudeDegrees>
            </Position>
            <AltitudeMeters>0.60000002384185791015625</AltitudeMeters>
            <DistanceMeters>NAN</DistanceMeters>
          </Trackpoint>
          <Trackpoint>
            <Time>2022-07-09T13:57:10.000Z</Time>
            <Position>
              <LatitudeDegrees>43.31658820621669292449951171875</LatitudeDegrees>
              <LongitudeDegrees>-1.9874593801796436309814453125</LongitudeDegrees>
            </Position>
            <AltitudeMeters>0.800000011920928955078125</AltitudeMeters>
            <DistanceMeters>NAN</DistanceMeters>
          </Trackpoint>
          <Trackpoint>
            <Time>2022-07-09T13:57:15.000Z</Time>
            <Position>
              <LatitudeDegrees>43.3165589533746242523193359375</LatitudeDegrees>
              <LongitudeDegrees>-1.98750791139900684356689453125</LongitudeDegrees>
            </Position>
            <AltitudeMeters>1</AltitudeMeters>
            <DistanceMeters>NAN</DistanceMeters>
          </Trackpoint>
          <Trackpoint>
            <Time>2022-07-09T13:57:21.000Z</Time>
            <Position>
              <LatitudeDegrees>43.31650891341269016265869140625</LatitudeDegrees>
              <LongitudeDegrees>-1.98751076124608516693115234375</LongitudeDegrees>
            </Position>
            <AltitudeMeters>1</AltitudeMeters>
            <DistanceMeters>NAN</DistanceMeters>
          </Trackpoint>
          <Trackpoint>
            <Time>2022-07-09T13:58:20.000Z</Time>
            <Position>
              <LatitudeDegrees>43.31639391370117664337158203125</LatitudeDegrees>
              <LongitudeDegrees>-1.98727623559534549713134765625</LongitudeDegrees>
            </Position>
            <AltitudeMeters>2.2000000476837158203125</AltitudeMeters>
            <DistanceMeters>NAN</DistanceMeters>
          </Trackpoint>
          <Trackpoint>
            <Time>2022-07-09T13:58:21.000Z</Time>
            <Position>
              <LatitudeDegrees>43.31638611853122711181640625</LatitudeDegrees>
              <LongitudeDegrees>-1.98724170215427875518798828125</LongitudeDegrees>
            </Position>
            <AltitudeMeters>2.2000000476837158203125</AltitudeMeters>
            <DistanceMeters>NAN</DistanceMeters>
          </Trackpoint>
          <Trackpoint>
            <Time>2022-07-09T13:58:24.000Z</Time>
            <Position>
              <LatitudeDegrees>43.316377736628055572509765625</LatitudeDegrees>
              <LongitudeDegrees>-1.9871405325829982757568359375</LongitudeDegrees>
            </Position>
            <AltitudeMeters>2.400000095367431640625</AltitudeMeters>
            <DistanceMeters>NAN</DistanceMeters>
          </Trackpoint>
          <Trackpoint>
            <Time>2022-07-09T13:58:25.000Z</Time>
            <Position>
              <LatitudeDegrees>43.31638586707413196563720703125</LatitudeDegrees>
              <LongitudeDegrees>-1.98713055811822414398193359375</LongitudeDegrees>
            </Position>
            <AltitudeMeters>2.400000095367431640625</AltitudeMeters>
            <DistanceMeters>NAN</DistanceMeters>
          </Trackpoint>
          <Trackpoint>
            <Time>2022-07-09T13:58:27.000Z</Time>
            <Position>
              <LatitudeDegrees>43.31639190204441547393798828125</LatitudeDegrees>
              <LongitudeDegrees>-1.98716039769351482391357421875</LongitudeDegrees>
            </Position>
            <AltitudeMeters>2.400000095367431640625</AltitudeMeters>
            <DistanceMeters>NAN</DistanceMeters>
          </Trackpoint>
          <Trackpoint>
            <Time>2022-07-09T13:58:31.000Z</Time>
            <Position>
              <LatitudeDegrees>43.3164422772824764251708984375</LatitudeDegrees>
              <LongitudeDegrees>-1.98733784258365631103515625</LongitudeDegrees>
            </Position>
            <AltitudeMeters>2.400000095367431640625</AltitudeMeters>
            <DistanceMeters>NAN</DistanceMeters>
          </Trackpoint>
          <Trackpoint>
            <Time>2022-07-09T13:58:34.000Z</Time>
            <Position>
              <LatitudeDegrees>43.3165110088884830474853515625</LatitudeDegrees>
              <LongitudeDegrees>-1.98739190585911273956298828125</LongitudeDegrees>
            </Position>
            <AltitudeMeters>2.400000095367431640625</AltitudeMeters>
            <DistanceMeters>NAN</DistanceMeters>
          </Trackpoint>
          <Trackpoint>
            <Time>2022-07-09T13:58:37.000Z</Time>
            <Position>
              <LatitudeDegrees>43.31647253595292568206787109375</LatitudeDegrees>
              <LongitudeDegrees>-1.98748343624174594879150390625</LongitudeDegrees>
            </Position>
            <AltitudeMeters>2.599999904632568359375</AltitudeMeters>
            <DistanceMeters>NAN</DistanceMeters>
          </Trackpoint>
          <Trackpoint>
            <Time>2022-07-09T13:58:39.000Z</Time>
            <Position>
              <LatitudeDegrees>43.31648544408380985260009765625</LatitudeDegrees>
              <LongitudeDegrees>-1.9875163771212100982666015625</LongitudeDegrees>
            </Position>
            <AltitudeMeters>2.599999904632568359375</AltitudeMeters>
            <DistanceMeters>NAN</DistanceMeters>
          </Trackpoint>
          <Trackpoint>
            <Time>2022-07-09T13:58:44.000Z</Time>
            <Position>
              <LatitudeDegrees>43.3164211548864841461181640625</LatitudeDegrees>
              <LongitudeDegrees>-1.98743482120335102081298828125</LongitudeDegrees>
            </Position>
            <AltitudeMeters>2.7999999523162841796875</AltitudeMeters>
            <DistanceMeters>NAN</DistanceMeters>
          </Trackpoint>
          <Trackpoint>
            <Time>2022-07-09T13:58:48.000Z</Time>
            <Position>
              <LatitudeDegrees>43.3163815923035144805908203125</LatitudeDegrees>
              <LongitudeDegrees>-1.98723751120269298553466796875</LongitudeDegrees>
            </Position>
            <AltitudeMeters>2.7999999523162841796875</AltitudeMeters>
            <DistanceMeters>NAN</DistanceMeters>
          </Trackpoint>
          <Trackpoint>
            <Time>2022-07-09T13:58:57.000Z</Time>
            <Position>
              <LatitudeDegrees>43.31640623509883880615234375</LatitudeDegrees>
              <LongitudeDegrees>-1.98692536912858486175537109375</LongitudeDegrees>
            </Position>
            <AltitudeMeters>3</AltitudeMeters>
            <DistanceMeters>NAN</DistanceMeters>
          </Trackpoint>
          <Trackpoint>
            <Time>2022-07-09T13:59:01.000Z</Time>
            <Position>
              <LatitudeDegrees>43.31642928533256053924560546875</LatitudeDegrees>
              <LongitudeDegrees>-1.98692746460437774658203125</LongitudeDegrees>
            </Position>
            <AltitudeMeters>3.2000000476837158203125</AltitudeMeters>
            <DistanceMeters>NAN</DistanceMeters>
          </Trackpoint>
          <Trackpoint>
            <Time>2022-07-09T13:59:02.000Z</Time>
            <Position>
              <LatitudeDegrees>43.31643448211252689361572265625</LatitudeDegrees>
              <LongitudeDegrees>-1.9869309850037097930908203125</LongitudeDegrees>
            </Position>
            <AltitudeMeters>3.2000000476837158203125</AltitudeMeters>
            <DistanceMeters>NAN</DistanceMeters>
          </Trackpoint>
          <Trackpoint>
            <Time>2022-07-09T13:59:06.000Z</Time>
            <Position>
              <LatitudeDegrees>43.31646013073623180389404296875</LatitudeDegrees>
              <LongitudeDegrees>-1.987046487629413604736328125</LongitudeDegrees>
            </Position>
            <AltitudeMeters>3.2000000476837158203125</AltitudeMeters>
            <DistanceMeters>NAN</DistanceMeters>
          </Trackpoint>
          <Trackpoint>
            <Time>2022-07-09T13:59:07.000Z</Time>
            <Position>
              <LatitudeDegrees>43.3164687640964984893798828125</LatitudeDegrees>
              <LongitudeDegrees>-1.98709149844944477081298828125</LongitudeDegrees>
            </Position>
            <AltitudeMeters>3.2000000476837158203125</AltitudeMeters>
            <DistanceMeters>NAN</DistanceMeters>
          </Trackpoint>
          <Trackpoint>
            <Time>2022-07-09T13:59:09.000Z</Time>
            <Position>
              <LatitudeDegrees>43.31647471524775028228759765625</LatitudeDegrees>
              <LongitudeDegrees>-1.98717950843274593353271484375</LongitudeDegrees>
            </Position>
            <AltitudeMeters>3.2000000476837158203125</AltitudeMeters>
            <DistanceMeters>NAN</DistanceMeters>
          </Trackpoint>
          <Trackpoint>
            <Time>2022-07-09T13:59:10.000Z</Time>
            <Position>
              <LatitudeDegrees>43.3164704404771327972412109375</LatitudeDegrees>
              <LongitudeDegrees>-1.98726600967347621917724609375</LongitudeDegrees>
            </Position>
            <AltitudeMeters>3.2000000476837158203125</AltitudeMeters>
            <DistanceMeters>NAN</DistanceMeters>
          </Trackpoint>
          <Trackpoint>
            <Time>2022-07-09T13:59:11.000Z</Time>
            <Position>
              <LatitudeDegrees>43.31647597253322601318359375</LatitudeDegrees>
              <LongitudeDegrees>-1.9873143732547760009765625</LongitudeDegrees>
            </Position>
            <AltitudeMeters>3.2000000476837158203125</AltitudeMeters>
            <DistanceMeters>NAN</DistanceMeters>
          </Trackpoint>
          <Trackpoint>
            <Time>2022-07-09T13:59:16.000Z</Time>
            <Position>
              <LatitudeDegrees>43.3165036328136920928955078125</LatitudeDegrees>
              <LongitudeDegrees>-1.9874002039432525634765625</LongitudeDegrees>
            </Position>
            <AltitudeMeters>3.599999904632568359375</AltitudeMeters>
            <DistanceMeters>NAN</DistanceMeters>
          </Trackpoint>
          <Trackpoint>
            <Time>2022-07-09T13:59:20.000Z</Time>
            <Position>
              <LatitudeDegrees>43.31650489009916782379150390625</LatitudeDegrees>
              <LongitudeDegrees>-1.987428367137908935546875</LongitudeDegrees>
            </Position>
            <AltitudeMeters>3.599999904632568359375</AltitudeMeters>
            <DistanceMeters>NAN</DistanceMeters>
          </Trackpoint>
          <Trackpoint>
            <Time>2022-07-09T13:59:23.000Z</Time>
            <Position>
              <LatitudeDegrees>43.316522575914859771728515625</LatitudeDegrees>
              <LongitudeDegrees>-1.9874188117682933807373046875</LongitudeDegrees>
            </Position>
            <AltitudeMeters>3.599999904632568359375</AltitudeMeters>
            <DistanceMeters>NAN</DistanceMeters>
          </Trackpoint>
          <Trackpoint>
            <Time>2022-07-09T14:01:25.000Z</Time>
            <Position>
              <LatitudeDegrees>43.3164952509105205535888671875</LatitudeDegrees>
              <LongitudeDegrees>-1.98731495998799800872802734375</LongitudeDegrees>
            </Position>
            <AltitudeMeters>6.19999980926513671875</AltitudeMeters>
            <DistanceMeters>NAN</DistanceMeters>
          </Trackpoint>
          <Trackpoint>
            <Time>2022-07-09T14:01:26.000Z</Time>
            <Position>
              <LatitudeDegrees>43.316499777138233184814453125</LatitudeDegrees>
              <LongitudeDegrees>-1.9873145408928394317626953125</LongitudeDegrees>
            </Position>
            <AltitudeMeters>6.19999980926513671875</AltitudeMeters>
            <DistanceMeters>NAN</DistanceMeters>
          </Trackpoint>
          <Trackpoint>
            <Time>2022-07-09T14:01:31.000Z</Time>
            <Position>
              <LatitudeDegrees>43.3165190555155277252197265625</LatitudeDegrees>
              <LongitudeDegrees>-1.98733356781303882598876953125</LongitudeDegrees>
            </Position>
            <AltitudeMeters>6.19999980926513671875</AltitudeMeters>
            <DistanceMeters>NAN</DistanceMeters>
          </Trackpoint>
          <Trackpoint>
            <Time>2022-07-09T14:01:34.000Z</Time>
            <Position>
              <LatitudeDegrees>43.31654302775859832763671875</LatitudeDegrees>
              <LongitudeDegrees>-1.98737346567213535308837890625</LongitudeDegrees>
            </Position>
            <AltitudeMeters>6.19999980926513671875</AltitudeMeters>
            <DistanceMeters>NAN</DistanceMeters>
          </Trackpoint>
          <Trackpoint>
            <Time>2022-07-09T14:02:33.000Z</Time>
            <Position>
              <LatitudeDegrees>43.31650723703205585479736328125</LatitudeDegrees>
              <LongitudeDegrees>-1.9873343221843242645263671875</LongitudeDegrees>
            </Position>
            <AltitudeMeters>7.400000095367431640625</AltitudeMeters>
            <DistanceMeters>NAN</DistanceMeters>
          </Trackpoint>
          <Trackpoint>
            <Time>2022-07-09T14:02:34.000Z</Time>
            <Position>
              <LatitudeDegrees>43.31649701111018657684326171875</LatitudeDegrees>
              <LongitudeDegrees>-1.9873299635946750640869140625</LongitudeDegrees>
            </Position>
            <AltitudeMeters>7.400000095367431640625</AltitudeMeters>
            <DistanceMeters>NAN</DistanceMeters>
          </Trackpoint>
          <Trackpoint>
            <Time>2022-07-09T14:02:37.000Z</Time>
            <Position>
              <LatitudeDegrees>43.316486366093158721923828125</LatitudeDegrees>
              <LongitudeDegrees>-1.987330801784992218017578125</LongitudeDegrees>
            </Position>
            <AltitudeMeters>7.400000095367431640625</AltitudeMeters>
            <DistanceMeters>NAN</DistanceMeters>
          </Trackpoint>
          <Trackpoint>
            <Time>2022-07-09T14:03:36.000Z</Time>
            <Position>
              <LatitudeDegrees>43.31651578657329082489013671875</LatitudeDegrees>
              <LongitudeDegrees>-1.98720934800803661346435546875</LongitudeDegrees>
            </Position>
            <AltitudeMeters>8.19999980926513671875</AltitudeMeters>
            <DistanceMeters>NAN</DistanceMeters>
          </Trackpoint>
          <Trackpoint>
            <Time>2022-07-09T14:03:37.000Z</Time>
            <Position>
              <LatitudeDegrees>43.3165153674781322479248046875</LatitudeDegrees>
              <LongitudeDegrees>-1.98719275183975696563720703125</LongitudeDegrees>
            </Position>
            <AltitudeMeters>8.19999980926513671875</AltitudeMeters>
            <DistanceMeters>NAN</DistanceMeters>
          </Trackpoint>
          <Trackpoint>
            <Time>2022-07-09T14:03:41.000Z</Time>
            <Position>
              <LatitudeDegrees>43.31648494116961956024169921875</LatitudeDegrees>
              <LongitudeDegrees>-1.9871800951659679412841796875</LongitudeDegrees>
            </Position>
            <AltitudeMeters>8.19999980926513671875</AltitudeMeters>
            <DistanceMeters>NAN</DistanceMeters>
          </Trackpoint>
          <Trackpoint>
            <Time>2022-07-09T14:03:44.000Z</Time>
            <Position>
              <LatitudeDegrees>43.31647463142871856689453125</LatitudeDegrees>
              <LongitudeDegrees>-1.9872441329061985015869140625</LongitudeDegrees>
            </Position>
            <AltitudeMeters>8.19999980926513671875</AltitudeMeters>
            <DistanceMeters>NAN</DistanceMeters>
          </Trackpoint>
          <Trackpoint>
            <Time>2022-07-09T14:03:46.000Z</Time>
            <Position>
              <LatitudeDegrees>43.31646868027746677398681640625</LatitudeDegrees>
              <LongitudeDegrees>-1.987269110977649688720703125</LongitudeDegrees>
            </Position>
            <AltitudeMeters>8.19999980926513671875</AltitudeMeters>
            <DistanceMeters>NAN</DistanceMeters>
          </Trackpoint>
          <Trackpoint>
            <Time>2022-07-09T14:03:47.000Z</Time>
            <Position>
              <LatitudeDegrees>43.316472284495830535888671875</LatitudeDegrees>
              <LongitudeDegrees>-1.98725393973290920257568359375</LongitudeDegrees>
            </Position>
            <AltitudeMeters>8.19999980926513671875</AltitudeMeters>
            <DistanceMeters>NAN</DistanceMeters>
          </Trackpoint>
          <Trackpoint>
            <Time>2022-07-09T14:03:52.000Z</Time>
            <Position>
              <LatitudeDegrees>43.31649650819599628448486328125</LatitudeDegrees>
              <LongitudeDegrees>-1.98719962500035762786865234375</LongitudeDegrees>
            </Position>
            <AltitudeMeters>8.3999996185302734375</AltitudeMeters>
            <DistanceMeters>NAN</DistanceMeters>
          </Trackpoint>
          <Trackpoint>
            <Time>2022-07-09T14:03:55.000Z</Time>
            <Position>
              <LatitudeDegrees>43.3165136910974979400634765625</LatitudeDegrees>
              <LongitudeDegrees>-1.98720264248549938201904296875</LongitudeDegrees>
            </Position>
            <AltitudeMeters>8.3999996185302734375</AltitudeMeters>
            <DistanceMeters>NAN</DistanceMeters>
          </Trackpoint>
          <Trackpoint>
            <Time>2022-07-09T14:03:56.000Z</Time>
            <Position>
              <LatitudeDegrees>43.3165133558213710784912109375</LatitudeDegrees>
              <LongitudeDegrees>-1.987170539796352386474609375</LongitudeDegrees>
            </Position>
            <AltitudeMeters>8.3999996185302734375</AltitudeMeters>
            <DistanceMeters>NAN</DistanceMeters>
          </Trackpoint>
          <Trackpoint>
            <Time>2022-07-09T14:03:59.000Z</Time>
            <Position>
              <LatitudeDegrees>43.31652282737195491790771484375</LatitudeDegrees>
              <LongitudeDegrees>-1.98709988035261631011962890625</LongitudeDegrees>
            </Position>
            <AltitudeMeters>8.6000003814697265625</AltitudeMeters>
            <DistanceMeters>NAN</DistanceMeters>
          </Trackpoint>
          <Trackpoint>
            <Time>2022-07-09T14:04:03.000Z</Time>
            <Position>
              <LatitudeDegrees>43.31652953289449214935302734375</LatitudeDegrees>
              <LongitudeDegrees>-1.987033076584339141845703125</LongitudeDegrees>
            </Position>
            <AltitudeMeters>8.6000003814697265625</AltitudeMeters>
            <DistanceMeters>NAN</DistanceMeters>
          </Trackpoint>
          <Trackpoint>
            <Time>2022-07-09T14:04:04.000Z</Time>
            <Position>
              <LatitudeDegrees>43.31653724424540996551513671875</LatitudeDegrees>
              <LongitudeDegrees>-1.98702410794794559478759765625</LongitudeDegrees>
            </Position>
            <AltitudeMeters>8.6000003814697265625</AltitudeMeters>
            <DistanceMeters>NAN</DistanceMeters>
          </Trackpoint>
          <Trackpoint>
            <Time>2022-07-09T14:04:06.000Z</Time>
            <Position>
              <LatitudeDegrees>43.3165462128818035125732421875</LatitudeDegrees>
              <LongitudeDegrees>-1.98701463639736175537109375</LongitudeDegrees>
            </Position>
            <AltitudeMeters>8.6000003814697265625</AltitudeMeters>
            <DistanceMeters>NAN</DistanceMeters>
          </Trackpoint>
          <Trackpoint>
            <Time>2022-07-09T14:04:08.000Z</Time>
            <Position>
              <LatitudeDegrees>43.31656088121235370635986328125</LatitudeDegrees>
              <LongitudeDegrees>-1.98701597750186920166015625</LongitudeDegrees>
            </Position>
            <AltitudeMeters>8.6000003814697265625</AltitudeMeters>
            <DistanceMeters>NAN</DistanceMeters>
          </Trackpoint>
          <Trackpoint>
            <Time>2022-07-09T14:04:09.000Z</Time>
            <Position>
              <LatitudeDegrees>43.316561467945575714111328125</LatitudeDegrees>
              <LongitudeDegrees>-1.98700617067515850067138671875</LongitudeDegrees>
            </Position>
            <AltitudeMeters>8.80000019073486328125</AltitudeMeters>
            <DistanceMeters>NAN</DistanceMeters>
          </Trackpoint>
          <Trackpoint>
            <Time>2022-07-09T14:04:12.000Z</Time>
            <Position>
              <LatitudeDegrees>43.31656255759298801422119140625</LatitudeDegrees>
              <LongitudeDegrees>-1.98690173216164112091064453125</LongitudeDegrees>
            </Position>
            <AltitudeMeters>8.80000019073486328125</AltitudeMeters>
            <DistanceMeters>NAN</DistanceMeters>
          </Trackpoint>
          <Trackpoint>
            <Time>2022-07-09T14:04:13.000Z</Time>
            <Position>
              <LatitudeDegrees>43.3165606297552585601806640625</LatitudeDegrees>
              <LongitudeDegrees>-1.9868967868387699127197265625</LongitudeDegrees>
            </Position>
            <AltitudeMeters>8.80000019073486328125</AltitudeMeters>
            <DistanceMeters>NAN</DistanceMeters>
          </Trackpoint>
          <Trackpoint>
            <Time>2022-07-09T14:04:14.000Z</Time>
            <Position>
              <LatitudeDegrees>43.31654663197696208953857421875</LatitudeDegrees>
              <LongitudeDegrees>-1.98697649873793125152587890625</LongitudeDegrees>
            </Position>
            <AltitudeMeters>8.80000019073486328125</AltitudeMeters>
            <DistanceMeters>NAN</DistanceMeters>
          </Trackpoint>
          <Trackpoint>
            <Time>2022-07-09T14:04:15.000Z</Time>
            <Position>
              <LatitudeDegrees>43.31655803136527538299560546875</LatitudeDegrees>
              <LongitudeDegrees>-1.98703416623175144195556640625</LongitudeDegrees>
            </Position>
            <AltitudeMeters>8.80000019073486328125</AltitudeMeters>
            <DistanceMeters>NAN</DistanceMeters>
          </Trackpoint>
          <Trackpoint>
            <Time>2022-07-09T14:04:20.000Z</Time>
            <Position>
              <LatitudeDegrees>43.31656741909682750701904296875</LatitudeDegrees>
              <LongitudeDegrees>-1.98703165166079998016357421875</LongitudeDegrees>
            </Position>
            <AltitudeMeters>8.80000019073486328125</AltitudeMeters>
            <DistanceMeters>NAN</DistanceMeters>
          </Trackpoint>
          <Trackpoint>
            <Time>2022-07-09T14:04:21.000Z</Time>
            <Position>
              <LatitudeDegrees>43.31657228060066699981689453125</LatitudeDegrees>
              <LongitudeDegrees>-1.98700617067515850067138671875</LongitudeDegrees>
            </Position>
            <AltitudeMeters>8.80000019073486328125</AltitudeMeters>
            <DistanceMeters>NAN</DistanceMeters>
          </Trackpoint>
          <Trackpoint>
            <Time>2022-07-09T14:04:23.000Z</Time>
            <Position>
              <LatitudeDegrees>43.31657848320901393890380859375</LatitudeDegrees>
              <LongitudeDegrees>-1.98700332082808017730712890625</LongitudeDegrees>
            </Position>
            <AltitudeMeters>9</AltitudeMeters>
            <DistanceMeters>NAN</DistanceMeters>
          </Trackpoint>
          <Trackpoint>
            <Time>2022-07-09T14:04:24.000Z</Time>
            <Position>
              <LatitudeDegrees>43.3165767230093479156494140625</LatitudeDegrees>
              <LongitudeDegrees>-1.98702025227248668670654296875</LongitudeDegrees>
            </Position>
            <AltitudeMeters>9</AltitudeMeters>
            <DistanceMeters>NAN</DistanceMeters>
          </Trackpoint>
          <Trackpoint>
            <Time>2022-07-09T14:04:28.000Z</Time>
            <Position>
              <LatitudeDegrees>43.31658686511218547821044921875</LatitudeDegrees>
              <LongitudeDegrees>-1.98697934858500957489013671875</LongitudeDegrees>
            </Position>
            <AltitudeMeters>9</AltitudeMeters>
            <DistanceMeters>NAN</DistanceMeters>
          </Trackpoint>
          <Trackpoint>
            <Time>2022-07-09T14:04:29.000Z</Time>
            <Position>
              <LatitudeDegrees>43.31658753566443920135498046875</LatitudeDegrees>
              <LongitudeDegrees>-1.987026035785675048828125</LongitudeDegrees>
            </Position>
            <AltitudeMeters>9</AltitudeMeters>
            <DistanceMeters>NAN</DistanceMeters>
          </Trackpoint>
          <Trackpoint>
            <Time>2022-07-09T14:04:33.000Z</Time>
            <Position>
              <LatitudeDegrees>43.31655316986143589019775390625</LatitudeDegrees>
              <LongitudeDegrees>-1.987130306661128997802734375</LongitudeDegrees>
            </Position>
            <AltitudeMeters>9</AltitudeMeters>
            <DistanceMeters>NAN</DistanceMeters>
          </Trackpoint>
          <Trackpoint>
            <Time>2022-07-09T14:04:37.000Z</Time>
            <Position>
              <LatitudeDegrees>43.31652819178998470306396484375</LatitudeDegrees>
              <LongitudeDegrees>-1.987133324146270751953125</LongitudeDegrees>
            </Position>
            <AltitudeMeters>9.19999980926513671875</AltitudeMeters>
            <DistanceMeters>NAN</DistanceMeters>
          </Trackpoint>
          <Trackpoint>
            <Time>2022-07-09T14:04:38.000Z</Time>
            <Position>
              <LatitudeDegrees>43.31651578657329082489013671875</LatitudeDegrees>
              <LongitudeDegrees>-1.98714195750653743743896484375</LongitudeDegrees>
            </Position>
            <AltitudeMeters>9.19999980926513671875</AltitudeMeters>
            <DistanceMeters>NAN</DistanceMeters>
          </Trackpoint>
          <Trackpoint>
            <Time>2022-07-09T14:04:40.000Z</Time>
            <Position>
              <LatitudeDegrees>43.3165061473846435546875</LatitudeDegrees>
              <LongitudeDegrees>-1.98715989477932453155517578125</LongitudeDegrees>
            </Position>
            <AltitudeMeters>9.19999980926513671875</AltitudeMeters>
            <DistanceMeters>NAN</DistanceMeters>
          </Trackpoint>
          <Trackpoint>
            <Time>2022-07-09T14:04:46.000Z</Time>
            <Position>
              <LatitudeDegrees>43.31651176325976848602294921875</LatitudeDegrees>
              <LongitudeDegrees>-1.98714782483875751495361328125</LongitudeDegrees>
            </Position>
            <AltitudeMeters>9.19999980926513671875</AltitudeMeters>
            <DistanceMeters>NAN</DistanceMeters>
          </Trackpoint>
          <Trackpoint>
            <Time>2022-07-09T14:04:47.000Z</Time>
            <Position>
              <LatitudeDegrees>43.3165096677839756011962890625</LatitudeDegrees>
              <LongitudeDegrees>-1.987158469855785369873046875</LongitudeDegrees>
            </Position>
            <AltitudeMeters>9.19999980926513671875</AltitudeMeters>
            <DistanceMeters>NAN</DistanceMeters>
          </Trackpoint>
          <Trackpoint>
            <Time>2022-07-09T14:04:51.000Z</Time>
            <Position>
              <LatitudeDegrees>43.316510505974292755126953125</LatitudeDegrees>
              <LongitudeDegrees>-1.98719702661037445068359375</LongitudeDegrees>
            </Position>
            <AltitudeMeters>9.3999996185302734375</AltitudeMeters>
            <DistanceMeters>NAN</DistanceMeters>
          </Trackpoint>
          <Trackpoint>
            <Time>2022-07-09T14:04:58.000Z</Time>
            <Position>
              <LatitudeDegrees>43.31649416126310825347900390625</LatitudeDegrees>
              <LongitudeDegrees>-1.98717397637665271759033203125</LongitudeDegrees>
            </Position>
            <AltitudeMeters>9.3999996185302734375</AltitudeMeters>
            <DistanceMeters>NAN</DistanceMeters>
          </Trackpoint>
          <Trackpoint>
            <Time>2022-07-09T14:05:00.000Z</Time>
            <Position>
              <LatitudeDegrees>43.31650790758430957794189453125</LatitudeDegrees>
              <LongitudeDegrees>-1.98714673519134521484375</LongitudeDegrees>
            </Position>
            <AltitudeMeters>9.3999996185302734375</AltitudeMeters>
            <DistanceMeters>NAN</DistanceMeters>
          </Trackpoint>
          <Trackpoint>
            <Time>2022-07-09T14:05:04.000Z</Time>
            <Position>
              <LatitudeDegrees>43.31649986095726490020751953125</LatitudeDegrees>
              <LongitudeDegrees>-1.9871395267546176910400390625</LongitudeDegrees>
            </Position>
            <AltitudeMeters>9.3999996185302734375</AltitudeMeters>
            <DistanceMeters>NAN</DistanceMeters>
          </Trackpoint>
          <Trackpoint>
            <Time>2022-07-09T14:05:08.000Z</Time>
            <Position>
              <LatitudeDegrees>43.31652701832354068756103515625</LatitudeDegrees>
              <LongitudeDegrees>-1.9871036522090435028076171875</LongitudeDegrees>
            </Position>
            <AltitudeMeters>9.19999980926513671875</AltitudeMeters>
            <DistanceMeters>NAN</DistanceMeters>
          </Trackpoint>
          <Trackpoint>
            <Time>2022-07-09T14:05:10.000Z</Time>
            <Position>
              <LatitudeDegrees>43.31655618734657764434814453125</LatitudeDegrees>
              <LongitudeDegrees>-1.98707188479602336883544921875</LongitudeDegrees>
            </Position>
            <AltitudeMeters>9.19999980926513671875</AltitudeMeters>
            <DistanceMeters>NAN</DistanceMeters>
          </Trackpoint>
          <Trackpoint>
            <Time>2022-07-09T14:05:12.000Z</Time>
            <Position>
              <LatitudeDegrees>43.31654612906277179718017578125</LatitudeDegrees>
              <LongitudeDegrees>-1.98709216900169849395751953125</LongitudeDegrees>
            </Position>
            <AltitudeMeters>9.3999996185302734375</AltitudeMeters>
            <DistanceMeters>NAN</DistanceMeters>
          </Trackpoint>
          <Trackpoint>
            <Time>2022-07-09T14:05:13.000Z</Time>
            <Position>
              <LatitudeDegrees>43.31653372384607791900634765625</LatitudeDegrees>
              <LongitudeDegrees>-1.98710692115128040313720703125</LongitudeDegrees>
            </Position>
            <AltitudeMeters>9.3999996185302734375</AltitudeMeters>
            <DistanceMeters>NAN</DistanceMeters>
          </Trackpoint>
          <Trackpoint>
            <Time>2022-07-09T14:05:16.000Z</Time>
            <Position>
              <LatitudeDegrees>43.3165190555155277252197265625</LatitudeDegrees>
              <LongitudeDegrees>-1.98717020452022552490234375</LongitudeDegrees>
            </Position>
            <AltitudeMeters>9.3999996185302734375</AltitudeMeters>
            <DistanceMeters>NAN</DistanceMeters>
          </Trackpoint>
          <Trackpoint>
            <Time>2022-07-09T14:05:18.000Z</Time>
            <Position>
              <LatitudeDegrees>43.316514194011688232421875</LatitudeDegrees>
              <LongitudeDegrees>-1.9872471503913402557373046875</LongitudeDegrees>
            </Position>
            <AltitudeMeters>9.3999996185302734375</AltitudeMeters>
            <DistanceMeters>NAN</DistanceMeters>
          </Trackpoint>
          <Trackpoint>
            <Time>2022-07-09T14:05:20.000Z</Time>
            <Position>
              <LatitudeDegrees>43.31651360727846622467041015625</LatitudeDegrees>
              <LongitudeDegrees>-1.98729501105844974517822265625</LongitudeDegrees>
            </Position>
            <AltitudeMeters>9.3999996185302734375</AltitudeMeters>
            <DistanceMeters>NAN</DistanceMeters>
          </Trackpoint>
          <Trackpoint>
            <Time>2022-07-09T14:05:22.000Z</Time>
            <Position>
              <LatitudeDegrees>43.3165150322020053863525390625</LatitudeDegrees>
              <LongitudeDegrees>-1.98732770048081874847412109375</LongitudeDegrees>
            </Position>
            <AltitudeMeters>9.3999996185302734375</AltitudeMeters>
            <DistanceMeters>NAN</DistanceMeters>
          </Trackpoint>
          <Trackpoint>
            <Time>2022-07-09T14:05:24.000Z</Time>
            <Position>
              <LatitudeDegrees>43.31651830114424228668212890625</LatitudeDegrees>
              <LongitudeDegrees>-1.98734848760068416595458984375</LongitudeDegrees>
            </Position>
            <AltitudeMeters>9.6000003814697265625</AltitudeMeters>
            <DistanceMeters>NAN</DistanceMeters>
          </Trackpoint>
          <Trackpoint>
            <Time>2022-07-09T14:05:28.000Z</Time>
            <Position>
              <LatitudeDegrees>43.31647463142871856689453125</LatitudeDegrees>
              <LongitudeDegrees>-1.98740816675126552581787109375</LongitudeDegrees>
            </Position>
            <AltitudeMeters>9.6000003814697265625</AltitudeMeters>
            <DistanceMeters>NAN</DistanceMeters>
          </Trackpoint>
          <Trackpoint>
            <Time>2022-07-09T14:05:30.000Z</Time>
            <Position>
              <LatitudeDegrees>43.3164781518280506134033203125</LatitudeDegrees>
              <LongitudeDegrees>-1.98740598745644092559814453125</LongitudeDegrees>
            </Position>
            <AltitudeMeters>9.6000003814697265625</AltitudeMeters>
            <DistanceMeters>NAN</DistanceMeters>
          </Trackpoint>
          <Trackpoint>
            <Time>2022-07-09T14:05:34.000Z</Time>
            <Position>
              <LatitudeDegrees>43.31647002138197422027587890625</LatitudeDegrees>
              <LongitudeDegrees>-1.98734530247747898101806640625</LongitudeDegrees>
            </Position>
            <AltitudeMeters>9.6000003814697265625</AltitudeMeters>
            <DistanceMeters>NAN</DistanceMeters>
          </Trackpoint>
          <Trackpoint>
            <Time>2022-07-09T14:05:36.000Z</Time>
            <Position>
              <LatitudeDegrees>43.316468261182308197021484375</LatitudeDegrees>
              <LongitudeDegrees>-1.98735116980969905853271484375</LongitudeDegrees>
            </Position>
            <AltitudeMeters>9.80000019073486328125</AltitudeMeters>
            <DistanceMeters>NAN</DistanceMeters>
          </Trackpoint>
          <Trackpoint>
            <Time>2022-07-09T14:05:53.000Z</Time>
            <Position>
              <LatitudeDegrees>43.31646432168781757354736328125</LatitudeDegrees>
              <LongitudeDegrees>-1.987331807613372802734375</LongitudeDegrees>
            </Position>
            <AltitudeMeters>9.80000019073486328125</AltitudeMeters>
            <DistanceMeters>NAN</DistanceMeters>
          </Trackpoint>
          <Trackpoint>
            <Time>2022-07-09T14:05:54.000Z</Time>
            <Position>
              <LatitudeDegrees>43.3164724521338939666748046875</LatitudeDegrees>
              <LongitudeDegrees>-1.98732283897697925567626953125</LongitudeDegrees>
            </Position>
            <AltitudeMeters>9.80000019073486328125</AltitudeMeters>
            <DistanceMeters>NAN</DistanceMeters>
          </Trackpoint>
          <Trackpoint>
            <Time>2022-07-09T14:05:58.000Z</Time>
            <Position>
              <LatitudeDegrees>43.31647588871419429779052734375</LatitudeDegrees>
              <LongitudeDegrees>-1.9873242639005184173583984375</LongitudeDegrees>
            </Position>
            <AltitudeMeters>9.80000019073486328125</AltitudeMeters>
            <DistanceMeters>NAN</DistanceMeters>
          </Trackpoint>
          <Trackpoint>
            <Time>2022-07-09T14:06:01.000Z</Time>
            <Position>
              <LatitudeDegrees>43.3164918981492519378662109375</LatitudeDegrees>
              <LongitudeDegrees>-1.98727548122406005859375</LongitudeDegrees>
            </Position>
            <AltitudeMeters>9.80000019073486328125</AltitudeMeters>
            <DistanceMeters>NAN</DistanceMeters>
          </Trackpoint>
          <Trackpoint>
            <Time>2022-07-09T14:06:40.000Z</Time>
            <Position>
              <LatitudeDegrees>43.3165096677839756011962890625</LatitudeDegrees>
              <LongitudeDegrees>-1.98722141794860363006591796875</LongitudeDegrees>
            </Position>
            <AltitudeMeters>10.19999980926513671875</AltitudeMeters>
            <DistanceMeters>NAN</DistanceMeters>
          </Trackpoint>
          <Trackpoint>
            <Time>2022-07-09T14:06:43.000Z</Time>
            <Position>
              <LatitudeDegrees>43.3164989389479160308837890625</LatitudeDegrees>
              <LongitudeDegrees>-1.9872216694056987762451171875</LongitudeDegrees>
            </Position>
            <AltitudeMeters>10.19999980926513671875</AltitudeMeters>
            <DistanceMeters>NAN</DistanceMeters>
          </Trackpoint>
          <Trackpoint>
            <Time>2022-07-09T14:06:47.000Z</Time>
            <Position>
              <LatitudeDegrees>43.31653271801769733428955078125</LatitudeDegrees>
              <LongitudeDegrees>-1.9872038997709751129150390625</LongitudeDegrees>
            </Position>
            <AltitudeMeters>10.19999980926513671875</AltitudeMeters>
            <DistanceMeters>NAN</DistanceMeters>
          </Trackpoint>
          <Trackpoint>
            <Time>2022-07-09T14:06:49.000Z</Time>
            <Position>
              <LatitudeDegrees>43.3165505714714527130126953125</LatitudeDegrees>
              <LongitudeDegrees>-1.9871764071285724639892578125</LongitudeDegrees>
            </Position>
            <AltitudeMeters>10.19999980926513671875</AltitudeMeters>
            <DistanceMeters>NAN</DistanceMeters>
          </Trackpoint>
          <Trackpoint>
            <Time>2022-07-09T14:07:36.000Z</Time>
            <Position>
              <LatitudeDegrees>43.31657881848514080047607421875</LatitudeDegrees>
              <LongitudeDegrees>-1.98730339296162128448486328125</LongitudeDegrees>
            </Position>
            <AltitudeMeters>10.80000019073486328125</AltitudeMeters>
            <DistanceMeters>NAN</DistanceMeters>
          </Trackpoint>
          <Trackpoint>
            <Time>2022-07-09T14:07:37.000Z</Time>
            <Position>
              <LatitudeDegrees>43.3165753819048404693603515625</LatitudeDegrees>
              <LongitudeDegrees>-1.98730808682739734649658203125</LongitudeDegrees>
            </Position>
            <AltitudeMeters>10.80000019073486328125</AltitudeMeters>
            <DistanceMeters>NAN</DistanceMeters>
          </Trackpoint>
          <Trackpoint>
            <Time>2022-07-09T14:07:41.000Z</Time>
            <Position>
              <LatitudeDegrees>43.31656691618263721466064453125</LatitudeDegrees>
              <LongitudeDegrees>-1.98725259862840175628662109375</LongitudeDegrees>
            </Position>
            <AltitudeMeters>10.80000019073486328125</AltitudeMeters>
            <DistanceMeters>NAN</DistanceMeters>
          </Trackpoint>
          <Trackpoint>
            <Time>2022-07-09T14:08:09.000Z</Time>
            <Position>
              <LatitudeDegrees>43.31655266694724559783935546875</LatitudeDegrees>
              <LongitudeDegrees>-1.98738335631787776947021484375</LongitudeDegrees>
            </Position>
            <AltitudeMeters>10.80000019073486328125</AltitudeMeters>
            <DistanceMeters>NAN</DistanceMeters>
          </Trackpoint>
          <Trackpoint>
            <Time>2022-07-09T14:08:11.000Z</Time>
            <Position>
              <LatitudeDegrees>43.3165545947849750518798828125</LatitudeDegrees>
              <LongitudeDegrees>-1.9873879663646221160888671875</LongitudeDegrees>
            </Position>
            <AltitudeMeters>10.80000019073486328125</AltitudeMeters>
            <DistanceMeters>NAN</DistanceMeters>
          </Trackpoint>
          <Trackpoint>
            <Time>2022-07-09T14:08:16.000Z</Time>
            <Position>
              <LatitudeDegrees>43.31657999195158481597900390625</LatitudeDegrees>
              <LongitudeDegrees>-1.98734547011554241180419921875</LongitudeDegrees>
            </Position>
            <AltitudeMeters>11.19999980926513671875</AltitudeMeters>
            <DistanceMeters>NAN</DistanceMeters>
          </Trackpoint>
          <Trackpoint>
            <Time>2022-07-09T14:08:20.000Z</Time>
            <Position>
              <LatitudeDegrees>43.31657311879098415374755859375</LatitudeDegrees>
              <LongitudeDegrees>-1.98735368438065052032470703125</LongitudeDegrees>
            </Position>
            <AltitudeMeters>11.19999980926513671875</AltitudeMeters>
            <DistanceMeters>NAN</DistanceMeters>
          </Trackpoint>
          <Trackpoint>
            <Time>2022-07-09T14:08:26.000Z</Time>
            <Position>
              <LatitudeDegrees>43.31658535636961460113525390625</LatitudeDegrees>
              <LongitudeDegrees>-1.98742710985243320465087890625</LongitudeDegrees>
            </Position>
            <AltitudeMeters>11.19999980926513671875</AltitudeMeters>
            <DistanceMeters>NAN</DistanceMeters>
          </Trackpoint>
          <Trackpoint>
            <Time>2022-07-09T14:08:28.000Z</Time>
            <Position>
              <LatitudeDegrees>43.3165599592030048370361328125</LatitudeDegrees>
              <LongitudeDegrees>-1.9873963482677936553955078125</LongitudeDegrees>
            </Position>
            <AltitudeMeters>11.19999980926513671875</AltitudeMeters>
            <DistanceMeters>NAN</DistanceMeters>
          </Trackpoint>
          <Trackpoint>
            <Time>2022-07-09T14:08:43.000Z</Time>
            <Position>
              <LatitudeDegrees>43.316590301692485809326171875</LatitudeDegrees>
              <LongitudeDegrees>-1.9874446280300617218017578125</LongitudeDegrees>
            </Position>
            <AltitudeMeters>11.3999996185302734375</AltitudeMeters>
            <DistanceMeters>NAN</DistanceMeters>
          </Trackpoint>
          <Trackpoint>
            <Time>2022-07-09T14:08:44.000Z</Time>
            <Position>
              <LatitudeDegrees>43.316588290035724639892578125</LatitudeDegrees>
              <LongitudeDegrees>-1.98745242320001125335693359375</LongitudeDegrees>
            </Position>
            <AltitudeMeters>11.3999996185302734375</AltitudeMeters>
            <DistanceMeters>NAN</DistanceMeters>
          </Trackpoint>
          <Trackpoint>
            <Time>2022-07-09T14:08:48.000Z</Time>
            <Position>
              <LatitudeDegrees>43.31657965667545795440673828125</LatitudeDegrees>
              <LongitudeDegrees>-1.9874721206724643707275390625</LongitudeDegrees>
            </Position>
            <AltitudeMeters>11.3999996185302734375</AltitudeMeters>
            <DistanceMeters>NAN</DistanceMeters>
          </Trackpoint>
          <Trackpoint>
            <Time>2022-07-09T14:08:53.000Z</Time>
            <Position>
              <LatitudeDegrees>43.31659876741468906402587890625</LatitudeDegrees>
              <LongitudeDegrees>-1.98747924529016017913818359375</LongitudeDegrees>
            </Position>
            <AltitudeMeters>11.3999996185302734375</AltitudeMeters>
            <DistanceMeters>NAN</DistanceMeters>
          </Trackpoint>
          <Trackpoint>
            <Time>2022-07-09T14:08:58.000Z</Time>
            <Position>
              <LatitudeDegrees>43.31655618734657764434814453125</LatitudeDegrees>
              <LongitudeDegrees>-1.9874509982764720916748046875</LongitudeDegrees>
            </Position>
            <AltitudeMeters>11.6000003814697265625</AltitudeMeters>
            <DistanceMeters>NAN</DistanceMeters>
          </Trackpoint>
          <Trackpoint>
            <Time>2022-07-09T14:09:00.000Z</Time>
            <Position>
              <LatitudeDegrees>43.3165656588971614837646484375</LatitudeDegrees>
              <LongitudeDegrees>-1.987440772354602813720703125</LongitudeDegrees>
            </Position>
            <AltitudeMeters>11.3999996185302734375</AltitudeMeters>
            <DistanceMeters>NAN</DistanceMeters>
          </Trackpoint>
          <Trackpoint>
            <Time>2022-07-09T14:09:02.000Z</Time>
            <Position>
              <LatitudeDegrees>43.3165773935616016387939453125</LatitudeDegrees>
              <LongitudeDegrees>-1.98743532411754131317138671875</LongitudeDegrees>
            </Position>
            <AltitudeMeters>11.3999996185302734375</AltitudeMeters>
            <DistanceMeters>NAN</DistanceMeters>
          </Trackpoint>
          <Trackpoint>
            <Time>2022-07-09T14:09:06.000Z</Time>
            <Position>
              <LatitudeDegrees>43.316578567028045654296875</LatitudeDegrees>
              <LongitudeDegrees>-1.9873363338410854339599609375</LongitudeDegrees>
            </Position>
            <AltitudeMeters>11.6000003814697265625</AltitudeMeters>
            <DistanceMeters>NAN</DistanceMeters>
          </Trackpoint>
          <Trackpoint>
            <Time>2022-07-09T14:09:09.000Z</Time>
            <Position>
              <LatitudeDegrees>43.3165374957025051116943359375</LatitudeDegrees>
              <LongitudeDegrees>-1.9873170554637908935546875</LongitudeDegrees>
            </Position>
            <AltitudeMeters>11.6000003814697265625</AltitudeMeters>
            <DistanceMeters>NAN</DistanceMeters>
          </Trackpoint>
          <Trackpoint>
            <Time>2022-07-09T14:09:44.000Z</Time>
            <Position>
              <LatitudeDegrees>43.31659340299665927886962890625</LatitudeDegrees>
              <LongitudeDegrees>-1.98718185536563396453857421875</LongitudeDegrees>
            </Position>
            <AltitudeMeters>11.80000019073486328125</AltitudeMeters>
            <DistanceMeters>NAN</DistanceMeters>
          </Trackpoint>
          <Trackpoint>
            <Time>2022-07-09T14:09:47.000Z</Time>
            <Position>
              <LatitudeDegrees>43.31659675575792789459228515625</LatitudeDegrees>
              <LongitudeDegrees>-1.987197361886501312255859375</LongitudeDegrees>
            </Position>
            <AltitudeMeters>11.80000019073486328125</AltitudeMeters>
            <DistanceMeters>NAN</DistanceMeters>
          </Trackpoint>
          <Trackpoint>
            <Time>2022-07-09T14:09:58.000Z</Time>
            <Position>
              <LatitudeDegrees>43.316581584513187408447265625</LatitudeDegrees>
              <LongitudeDegrees>-1.98732904158532619476318359375</LongitudeDegrees>
            </Position>
            <AltitudeMeters>12</AltitudeMeters>
            <DistanceMeters>NAN</DistanceMeters>
          </Trackpoint>
          <Trackpoint>
            <Time>2022-07-09T14:10:00.000Z</Time>
            <Position>
              <LatitudeDegrees>43.3165713585913181304931640625</LatitudeDegrees>
              <LongitudeDegrees>-1.98738855309784412384033203125</LongitudeDegrees>
            </Position>
            <AltitudeMeters>12</AltitudeMeters>
            <DistanceMeters>NAN</DistanceMeters>
          </Trackpoint>
          <Trackpoint>
            <Time>2022-07-09T14:10:01.000Z</Time>
            <Position>
              <LatitudeDegrees>43.3165723644196987152099609375</LatitudeDegrees>
              <LongitudeDegrees>-1.98740355670452117919921875</LongitudeDegrees>
            </Position>
            <AltitudeMeters>12</AltitudeMeters>
            <DistanceMeters>NAN</DistanceMeters>
          </Trackpoint>
          <Trackpoint>
            <Time>2022-07-09T14:10:02.000Z</Time>
            <Position>
              <LatitudeDegrees>43.316567838191986083984375</LatitudeDegrees>
              <LongitudeDegrees>-1.98741587810218334197998046875</LongitudeDegrees>
            </Position>
            <AltitudeMeters>12</AltitudeMeters>
            <DistanceMeters>NAN</DistanceMeters>
          </Trackpoint>
          <Trackpoint>
            <Time>2022-07-09T14:10:10.000Z</Time>
            <Position>
              <LatitudeDegrees>43.316583596169948577880859375</LatitudeDegrees>
              <LongitudeDegrees>-1.9873577915132045745849609375</LongitudeDegrees>
            </Position>
            <AltitudeMeters>12</AltitudeMeters>
            <DistanceMeters>NAN</DistanceMeters>
          </Trackpoint>
          <Trackpoint>
            <Time>2022-07-09T14:10:11.000Z</Time>
            <Position>
              <LatitudeDegrees>43.3165767230093479156494140625</LatitudeDegrees>
              <LongitudeDegrees>-1.9873413629829883575439453125</LongitudeDegrees>
            </Position>
            <AltitudeMeters>12</AltitudeMeters>
            <DistanceMeters>NAN</DistanceMeters>
          </Trackpoint>
          <Trackpoint>
            <Time>2022-07-09T14:10:14.000Z</Time>
            <Position>
              <LatitudeDegrees>43.3165716938674449920654296875</LatitudeDegrees>
              <LongitudeDegrees>-1.98733650147914886474609375</LongitudeDegrees>
            </Position>
            <AltitudeMeters>12.19999980926513671875</AltitudeMeters>
            <DistanceMeters>NAN</DistanceMeters>
          </Trackpoint>
          <Trackpoint>
            <Time>2022-07-09T14:10:19.000Z</Time>
            <Position>
              <LatitudeDegrees>43.3166048862040042877197265625</LatitudeDegrees>
              <LongitudeDegrees>-1.98730808682739734649658203125</LongitudeDegrees>
            </Position>
            <AltitudeMeters>12.19999980926513671875</AltitudeMeters>
            <DistanceMeters>NAN</DistanceMeters>
          </Trackpoint>
          <Trackpoint>
            <Time>2022-07-09T14:10:21.000Z</Time>
            <Position>
              <LatitudeDegrees>43.3165824227035045623779296875</LatitudeDegrees>
              <LongitudeDegrees>-1.98733247816562652587890625</LongitudeDegrees>
            </Position>
            <AltitudeMeters>12.19999980926513671875</AltitudeMeters>
            <DistanceMeters>NAN</DistanceMeters>
          </Trackpoint>
          <Trackpoint>
            <Time>2022-07-09T14:10:24.000Z</Time>
            <Position>
              <LatitudeDegrees>43.31657211296260356903076171875</LatitudeDegrees>
              <LongitudeDegrees>-1.98736994527280330657958984375</LongitudeDegrees>
            </Position>
            <AltitudeMeters>12.19999980926513671875</AltitudeMeters>
            <DistanceMeters>NAN</DistanceMeters>
          </Trackpoint>
          <Trackpoint>
            <Time>2022-07-09T14:10:25.000Z</Time>
            <Position>
              <LatitudeDegrees>43.31657378934323787689208984375</LatitudeDegrees>
              <LongitudeDegrees>-1.98737899772822856903076171875</LongitudeDegrees>
            </Position>
            <AltitudeMeters>12.19999980926513671875</AltitudeMeters>
            <DistanceMeters>NAN</DistanceMeters>
          </Trackpoint>
          <Trackpoint>
            <Time>2022-07-09T14:10:29.000Z</Time>
            <Position>
              <LatitudeDegrees>43.31656104885041713714599609375</LatitudeDegrees>
              <LongitudeDegrees>-1.9874077476561069488525390625</LongitudeDegrees>
            </Position>
            <AltitudeMeters>12.19999980926513671875</AltitudeMeters>
            <DistanceMeters>NAN</DistanceMeters>
          </Trackpoint>
          <Trackpoint>
            <Time>2022-07-09T14:10:30.000Z</Time>
            <Position>
              <LatitudeDegrees>43.316557444632053375244140625</LatitudeDegrees>
              <LongitudeDegrees>-1.98742593638598918914794921875</LongitudeDegrees>
            </Position>
            <AltitudeMeters>12.19999980926513671875</AltitudeMeters>
            <DistanceMeters>NAN</DistanceMeters>
          </Trackpoint>
          <Trackpoint>
            <Time>2022-07-09T14:10:33.000Z</Time>
            <Position>
              <LatitudeDegrees>43.31653766334056854248046875</LatitudeDegrees>
              <LongitudeDegrees>-1.98745988309383392333984375</LongitudeDegrees>
            </Position>
            <AltitudeMeters>12.19999980926513671875</AltitudeMeters>
            <DistanceMeters>NAN</DistanceMeters>
          </Trackpoint>
          <Trackpoint>
            <Time>2022-07-09T14:10:35.000Z</Time>
            <Position>
              <LatitudeDegrees>43.316524922847747802734375</LatitudeDegrees>
              <LongitudeDegrees>-1.98747103102505207061767578125</LongitudeDegrees>
            </Position>
            <AltitudeMeters>12.19999980926513671875</AltitudeMeters>
            <DistanceMeters>NAN</DistanceMeters>
          </Trackpoint>
          <Trackpoint>
            <Time>2022-07-09T14:10:37.000Z</Time>
            <Position>
              <LatitudeDegrees>43.3165126852691173553466796875</LatitudeDegrees>
              <LongitudeDegrees>-1.9874645769596099853515625</LongitudeDegrees>
            </Position>
            <AltitudeMeters>12.19999980926513671875</AltitudeMeters>
            <DistanceMeters>NAN</DistanceMeters>
          </Trackpoint>
          <Trackpoint>
            <Time>2022-07-09T14:11:51.000Z</Time>
            <Position>
              <LatitudeDegrees>43.31647471524775028228759765625</LatitudeDegrees>
              <LongitudeDegrees>-1.987493075430393218994140625</LongitudeDegrees>
            </Position>
            <AltitudeMeters>12.80000019073486328125</AltitudeMeters>
            <DistanceMeters>NAN</DistanceMeters>
          </Trackpoint>
          <Trackpoint>
            <Time>2022-07-09T14:11:53.000Z</Time>
            <Position>
              <LatitudeDegrees>43.31647521816194057464599609375</LatitudeDegrees>
              <LongitudeDegrees>-1.98750204406678676605224609375</LongitudeDegrees>
            </Position>
            <AltitudeMeters>12.80000019073486328125</AltitudeMeters>
            <DistanceMeters>NAN</DistanceMeters>
          </Trackpoint>
          <Trackpoint>
            <Time>2022-07-09T14:11:54.000Z</Time>
            <Position>
              <LatitudeDegrees>43.31648242659866809844970703125</LatitudeDegrees>
              <LongitudeDegrees>-1.98751193471252918243408203125</LongitudeDegrees>
            </Position>
            <AltitudeMeters>12.80000019073486328125</AltitudeMeters>
            <DistanceMeters>NAN</DistanceMeters>
          </Trackpoint>
          <Trackpoint>
            <Time>2022-07-09T14:11:57.000Z</Time>
            <Position>
              <LatitudeDegrees>43.3164851926267147064208984375</LatitudeDegrees>
              <LongitudeDegrees>-1.98755216784775257110595703125</LongitudeDegrees>
            </Position>
            <AltitudeMeters>12.80000019073486328125</AltitudeMeters>
            <DistanceMeters>NAN</DistanceMeters>
          </Trackpoint>
          <Trackpoint>
            <Time>2022-07-09T14:11:59.000Z</Time>
            <Position>
              <LatitudeDegrees>43.3164855279028415679931640625</LatitudeDegrees>
              <LongitudeDegrees>-1.98756742291152477264404296875</LongitudeDegrees>
            </Position>
            <AltitudeMeters>13</AltitudeMeters>
            <DistanceMeters>NAN</DistanceMeters>
          </Trackpoint>
          <Trackpoint>
            <Time>2022-07-09T14:12:02.000Z</Time>
            <Position>
              <LatitudeDegrees>43.3164436183869838714599609375</LatitudeDegrees>
              <LongitudeDegrees>-1.9875396788120269775390625</LongitudeDegrees>
            </Position>
            <AltitudeMeters>13</AltitudeMeters>
            <DistanceMeters>NAN</DistanceMeters>
          </Trackpoint>
          <Trackpoint>
            <Time>2022-07-09T14:12:03.000Z</Time>
            <Position>
              <LatitudeDegrees>43.31643397919833660125732421875</LatitudeDegrees>
              <LongitudeDegrees>-1.987508833408355712890625</LongitudeDegrees>
            </Position>
            <AltitudeMeters>13</AltitudeMeters>
            <DistanceMeters>NAN</DistanceMeters>
          </Trackpoint>
          <Trackpoint>
            <Time>2022-07-09T14:12:08.000Z</Time>
            <Position>
              <LatitudeDegrees>43.31645929254591464996337890625</LatitudeDegrees>
              <LongitudeDegrees>-1.987318061292171478271484375</LongitudeDegrees>
            </Position>
            <AltitudeMeters>13</AltitudeMeters>
            <DistanceMeters>NAN</DistanceMeters>
          </Trackpoint>
          <Trackpoint>
            <Time>2022-07-09T14:12:09.000Z</Time>
            <Position>
              <LatitudeDegrees>43.31646650098264217376708984375</LatitudeDegrees>
              <LongitudeDegrees>-1.987299956381320953369140625</LongitudeDegrees>
            </Position>
            <AltitudeMeters>13</AltitudeMeters>
            <DistanceMeters>NAN</DistanceMeters>
          </Trackpoint>
          <Trackpoint>
            <Time>2022-07-09T14:12:10.000Z</Time>
            <Position>
              <LatitudeDegrees>43.31647136248648166656494140625</LatitudeDegrees>
              <LongitudeDegrees>-1.98728813789784908294677734375</LongitudeDegrees>
            </Position>
            <AltitudeMeters>13.19999980926513671875</AltitudeMeters>
            <DistanceMeters>NAN</DistanceMeters>
          </Trackpoint>
          <Trackpoint>
            <Time>2022-07-09T14:16:04.000Z</Time>
            <Position>
              <LatitudeDegrees>43.31649332307279109954833984375</LatitudeDegrees>
              <LongitudeDegrees>-1.98740062303841114044189453125</LongitudeDegrees>
            </Position>
            <AltitudeMeters>13.80000019073486328125</AltitudeMeters>
            <DistanceMeters>NAN</DistanceMeters>
          </Trackpoint>
          <Trackpoint>
            <Time>2022-07-09T14:16:06.000Z</Time>
            <Position>
              <LatitudeDegrees>43.3164804987609386444091796875</LatitudeDegrees>
              <LongitudeDegrees>-1.98740296997129917144775390625</LongitudeDegrees>
            </Position>
            <AltitudeMeters>13.80000019073486328125</AltitudeMeters>
            <DistanceMeters>NAN</DistanceMeters>
          </Trackpoint>
          <Trackpoint>
            <Time>2022-07-09T14:16:09.000Z</Time>
            <Position>
              <LatitudeDegrees>43.31649064086377620697021484375</LatitudeDegrees>
              <LongitudeDegrees>-1.98735930025577545166015625</LongitudeDegrees>
            </Position>
            <AltitudeMeters>14</AltitudeMeters>
            <DistanceMeters>NAN</DistanceMeters>
          </Trackpoint>
          <Trackpoint>
            <Time>2022-07-09T14:16:10.000Z</Time>
            <Position>
              <LatitudeDegrees>43.31648929975926876068115234375</LatitudeDegrees>
              <LongitudeDegrees>-1.98735921643674373626708984375</LongitudeDegrees>
            </Position>
            <AltitudeMeters>14.19999980926513671875</AltitudeMeters>
            <DistanceMeters>NAN</DistanceMeters>
          </Trackpoint>
          <Trackpoint>
            <Time>2022-07-09T14:18:09.000Z</Time>
            <Position>
              <LatitudeDegrees>43.316497094929218292236328125</LatitudeDegrees>
              <LongitudeDegrees>-1.98724119924008846282958984375</LongitudeDegrees>
            </Position>
            <AltitudeMeters>15.19999980926513671875</AltitudeMeters>
            <DistanceMeters>NAN</DistanceMeters>
          </Trackpoint>
          <Trackpoint>
            <Time>2022-07-09T14:18:11.000Z</Time>
            <Position>
              <LatitudeDegrees>43.316498436033725738525390625</LatitudeDegrees>
              <LongitudeDegrees>-1.98723382316529750823974609375</LongitudeDegrees>
            </Position>
            <AltitudeMeters>15.19999980926513671875</AltitudeMeters>
            <DistanceMeters>NAN</DistanceMeters>
          </Trackpoint>
          <Trackpoint>
            <Time>2022-07-09T14:18:13.000Z</Time>
            <Position>
              <LatitudeDegrees>43.3164996095001697540283203125</LatitudeDegrees>
              <LongitudeDegrees>-1.98721739463508129119873046875</LongitudeDegrees>
            </Position>
            <AltitudeMeters>15.19999980926513671875</AltitudeMeters>
            <DistanceMeters>NAN</DistanceMeters>
          </Trackpoint>
          <Trackpoint>
            <Time>2022-07-09T14:18:14.000Z</Time>
            <Position>
              <LatitudeDegrees>43.316503129899501800537109375</LatitudeDegrees>
              <LongitudeDegrees>-1.98720633052289485931396484375</LongitudeDegrees>
            </Position>
            <AltitudeMeters>15.19999980926513671875</AltitudeMeters>
            <DistanceMeters>NAN</DistanceMeters>
          </Trackpoint>
          <Trackpoint>
            <Time>2022-07-09T14:18:16.000Z</Time>
            <Position>
              <LatitudeDegrees>43.3165022917091846466064453125</LatitudeDegrees>
              <LongitudeDegrees>-1.98720498941838741302490234375</LongitudeDegrees>
            </Position>
            <AltitudeMeters>15.19999980926513671875</AltitudeMeters>
            <DistanceMeters>NAN</DistanceMeters>
          </Trackpoint>
          <Trackpoint>
            <Time>2022-07-09T14:20:02.000Z</Time>
            <Position>
              <LatitudeDegrees>43.31652618013322353363037109375</LatitudeDegrees>
              <LongitudeDegrees>-1.9874090887606143951416015625</LongitudeDegrees>
            </Position>
            <AltitudeMeters>15.19999980926513671875</AltitudeMeters>
            <DistanceMeters>NAN</DistanceMeters>
          </Trackpoint>
          <Trackpoint>
            <Time>2022-07-09T14:20:03.000Z</Time>
            <Position>
              <LatitudeDegrees>43.3165183849632740020751953125</LatitudeDegrees>
              <LongitudeDegrees>-1.98740062303841114044189453125</LongitudeDegrees>
            </Position>
            <AltitudeMeters>15.19999980926513671875</AltitudeMeters>
            <DistanceMeters>NAN</DistanceMeters>
          </Trackpoint>
          <Trackpoint>
            <Time>2022-07-09T14:20:06.000Z</Time>
            <Position>
              <LatitudeDegrees>43.31651880405843257904052734375</LatitudeDegrees>
              <LongitudeDegrees>-1.9873948395252227783203125</LongitudeDegrees>
            </Position>
            <AltitudeMeters>15.19999980926513671875</AltitudeMeters>
            <DistanceMeters>NAN</DistanceMeters>
          </Trackpoint>
          <Trackpoint>
            <Time>2022-07-09T14:20:10.000Z</Time>
            <Position>
              <LatitudeDegrees>43.31651343964040279388427734375</LatitudeDegrees>
              <LongitudeDegrees>-1.9874493218958377838134765625</LongitudeDegrees>
            </Position>
            <AltitudeMeters>15.3999996185302734375</AltitudeMeters>
            <DistanceMeters>NAN</DistanceMeters>
          </Trackpoint>
          <Trackpoint>
            <Time>2022-07-09T14:20:11.000Z</Time>
            <Position>
              <LatitudeDegrees>43.31652265973389148712158203125</LatitudeDegrees>
              <LongitudeDegrees>-1.9874593801796436309814453125</LongitudeDegrees>
            </Position>
            <AltitudeMeters>15.3999996185302734375</AltitudeMeters>
            <DistanceMeters>NAN</DistanceMeters>
          </Trackpoint>
          <Trackpoint>
            <Time>2022-07-09T14:20:13.000Z</Time>
            <Position>
              <LatitudeDegrees>43.3165257610380649566650390625</LatitudeDegrees>
              <LongitudeDegrees>-1.9874426163733005523681640625</LongitudeDegrees>
            </Position>
            <AltitudeMeters>15.3999996185302734375</AltitudeMeters>
            <DistanceMeters>NAN</DistanceMeters>
          </Trackpoint>
          <Trackpoint>
            <Time>2022-07-09T14:20:23.000Z</Time>
            <Position>
              <LatitudeDegrees>43.31662341021001338958740234375</LatitudeDegrees>
              <LongitudeDegrees>-1.9874221645295619964599609375</LongitudeDegrees>
            </Position>
            <AltitudeMeters>15.19999980926513671875</AltitudeMeters>
            <DistanceMeters>NAN</DistanceMeters>
          </Trackpoint>
          <Trackpoint>
            <Time>2022-07-09T14:20:25.000Z</Time>
            <Position>
              <LatitudeDegrees>43.31666012294590473175048828125</LatitudeDegrees>
              <LongitudeDegrees>-1.98742057196795940399169921875</LongitudeDegrees>
            </Position>
            <AltitudeMeters>15.19999980926513671875</AltitudeMeters>
            <DistanceMeters>NAN</DistanceMeters>
          </Trackpoint>
          <Trackpoint>
            <Time>2022-07-09T14:20:26.000Z</Time>
            <Position>
              <LatitudeDegrees>43.3166286908090114593505859375</LatitudeDegrees>
              <LongitudeDegrees>-1.98745309375226497650146484375</LongitudeDegrees>
            </Position>
            <AltitudeMeters>15.3999996185302734375</AltitudeMeters>
            <DistanceMeters>NAN</DistanceMeters>
          </Trackpoint>
          <Trackpoint>
            <Time>2022-07-09T14:20:28.000Z</Time>
            <Position>
              <LatitudeDegrees>43.31661368720233440399169921875</LatitudeDegrees>
              <LongitudeDegrees>-1.98747673071920871734619140625</LongitudeDegrees>
            </Position>
            <AltitudeMeters>15.3999996185302734375</AltitudeMeters>
            <DistanceMeters>NAN</DistanceMeters>
          </Trackpoint>
          <Trackpoint>
            <Time>2022-07-09T14:20:30.000Z</Time>
            <Position>
              <LatitudeDegrees>43.316610418260097503662109375</LatitudeDegrees>
              <LongitudeDegrees>-1.98748494498431682586669921875</LongitudeDegrees>
            </Position>
            <AltitudeMeters>15.3999996185302734375</AltitudeMeters>
            <DistanceMeters>NAN</DistanceMeters>
          </Trackpoint>
          <Trackpoint>
            <Time>2022-07-09T14:20:33.000Z</Time>
            <Position>
              <LatitudeDegrees>43.31655819900333881378173828125</LatitudeDegrees>
              <LongitudeDegrees>-1.987472288310527801513671875</LongitudeDegrees>
            </Position>
            <AltitudeMeters>15.3999996185302734375</AltitudeMeters>
            <DistanceMeters>NAN</DistanceMeters>
          </Trackpoint>
          <Trackpoint>
            <Time>2022-07-09T14:20:35.000Z</Time>
            <Position>
              <LatitudeDegrees>43.316535651683807373046875</LatitudeDegrees>
              <LongitudeDegrees>-1.98744068853557109832763671875</LongitudeDegrees>
            </Position>
            <AltitudeMeters>15.3999996185302734375</AltitudeMeters>
            <DistanceMeters>NAN</DistanceMeters>
          </Trackpoint>
          <Trackpoint>
            <Time>2022-07-09T14:20:40.000Z</Time>
            <Position>
              <LatitudeDegrees>43.31653674133121967315673828125</LatitudeDegrees>
              <LongitudeDegrees>-1.9874922372400760650634765625</LongitudeDegrees>
            </Position>
            <AltitudeMeters>15.19999980926513671875</AltitudeMeters>
            <DistanceMeters>NAN</DistanceMeters>
          </Trackpoint>
          <Trackpoint>
            <Time>2022-07-09T14:20:41.000Z</Time>
            <Position>
              <LatitudeDegrees>43.3165291137993335723876953125</LatitudeDegrees>
              <LongitudeDegrees>-1.98750682175159454345703125</LongitudeDegrees>
            </Position>
            <AltitudeMeters>15.19999980926513671875</AltitudeMeters>
            <DistanceMeters>NAN</DistanceMeters>
          </Trackpoint>
          <Trackpoint>
            <Time>2022-07-09T14:20:46.000Z</Time>
            <Position>
              <LatitudeDegrees>43.31650623120367527008056640625</LatitudeDegrees>
              <LongitudeDegrees>-1.98749181814491748809814453125</LongitudeDegrees>
            </Position>
            <AltitudeMeters>15.19999980926513671875</AltitudeMeters>
            <DistanceMeters>NAN</DistanceMeters>
          </Trackpoint>
          <Trackpoint>
            <Time>2022-07-09T14:20:49.000Z</Time>
            <Position>
              <LatitudeDegrees>43.3165106736123561859130859375</LatitudeDegrees>
              <LongitudeDegrees>-1.98745896108448505401611328125</LongitudeDegrees>
            </Position>
            <AltitudeMeters>15.19999980926513671875</AltitudeMeters>
            <DistanceMeters>NAN</DistanceMeters>
          </Trackpoint>
          <Trackpoint>
            <Time>2022-07-09T14:20:54.000Z</Time>
            <Position>
              <LatitudeDegrees>43.31646792590618133544921875</LatitudeDegrees>
              <LongitudeDegrees>-1.98742258362472057342529296875</LongitudeDegrees>
            </Position>
            <AltitudeMeters>15.19999980926513671875</AltitudeMeters>
            <DistanceMeters>NAN</DistanceMeters>
          </Trackpoint>
          <Trackpoint>
            <Time>2022-07-09T14:20:57.000Z</Time>
            <Position>
              <LatitudeDegrees>43.31648804247379302978515625</LatitudeDegrees>
              <LongitudeDegrees>-1.98737396858632564544677734375</LongitudeDegrees>
            </Position>
            <AltitudeMeters>15.19999980926513671875</AltitudeMeters>
            <DistanceMeters>NAN</DistanceMeters>
          </Trackpoint>
          <Trackpoint>
            <Time>2022-07-09T14:20:58.000Z</Time>
            <Position>
              <LatitudeDegrees>43.31649047322571277618408203125</LatitudeDegrees>
              <LongitudeDegrees>-1.98736734688282012939453125</LongitudeDegrees>
            </Position>
            <AltitudeMeters>15.19999980926513671875</AltitudeMeters>
            <DistanceMeters>NAN</DistanceMeters>
          </Trackpoint>
          <Trackpoint>
            <Time>2022-07-09T14:21:00.000Z</Time>
            <Position>
              <LatitudeDegrees>43.3164888806641101837158203125</LatitudeDegrees>
              <LongitudeDegrees>-1.98734127916395664215087890625</LongitudeDegrees>
            </Position>
            <AltitudeMeters>15.19999980926513671875</AltitudeMeters>
            <DistanceMeters>NAN</DistanceMeters>
          </Trackpoint>
          <Trackpoint>
            <Time>2022-07-09T14:21:01.000Z</Time>
            <Position>
              <LatitudeDegrees>43.31650371663272380828857421875</LatitudeDegrees>
              <LongitudeDegrees>-1.98732401244342327117919921875</LongitudeDegrees>
            </Position>
            <AltitudeMeters>15.19999980926513671875</AltitudeMeters>
            <DistanceMeters>NAN</DistanceMeters>
          </Trackpoint>
          <Trackpoint>
            <Time>2022-07-09T14:21:06.000Z</Time>
            <Position>
              <LatitudeDegrees>43.31646390259265899658203125</LatitudeDegrees>
              <LongitudeDegrees>-1.98711253702640533447265625</LongitudeDegrees>
            </Position>
            <AltitudeMeters>15.19999980926513671875</AltitudeMeters>
            <DistanceMeters>NAN</DistanceMeters>
          </Trackpoint>
          <Trackpoint>
            <Time>2022-07-09T14:21:09.000Z</Time>
            <Position>
              <LatitudeDegrees>43.31647555343806743621826171875</LatitudeDegrees>
              <LongitudeDegrees>-1.98701505549252033233642578125</LongitudeDegrees>
            </Position>
            <AltitudeMeters>15.19999980926513671875</AltitudeMeters>
            <DistanceMeters>NAN</DistanceMeters>
          </Trackpoint>
          <Trackpoint>
            <Time>2022-07-09T14:21:23.000Z</Time>
            <Position>
              <LatitudeDegrees>43.31665559671819210052490234375</LatitudeDegrees>
              <LongitudeDegrees>-1.9870221801102161407470703125</LongitudeDegrees>
            </Position>
            <AltitudeMeters>15</AltitudeMeters>
            <DistanceMeters>NAN</DistanceMeters>
          </Trackpoint>
          <Trackpoint>
            <Time>2022-07-09T14:21:25.000Z</Time>
            <Position>
              <LatitudeDegrees>43.31666934303939342498779296875</LatitudeDegrees>
              <LongitudeDegrees>-1.987091414630413055419921875</LongitudeDegrees>
            </Position>
            <AltitudeMeters>15</AltitudeMeters>
            <DistanceMeters>NAN</DistanceMeters>
          </Trackpoint>
          <Trackpoint>
            <Time>2022-07-09T14:21:29.000Z</Time>
            <Position>
              <LatitudeDegrees>43.3166645653545856475830078125</LatitudeDegrees>
              <LongitudeDegrees>-1.98721605353057384490966796875</LongitudeDegrees>
            </Position>
            <AltitudeMeters>15.19999980926513671875</AltitudeMeters>
            <DistanceMeters>NAN</DistanceMeters>
          </Trackpoint>
          <Trackpoint>
            <Time>2022-07-09T14:21:30.000Z</Time>
            <Position>
              <LatitudeDegrees>43.31668392755091190338134765625</LatitudeDegrees>
              <LongitudeDegrees>-1.9871804304420948028564453125</LongitudeDegrees>
            </Position>
            <AltitudeMeters>15.19999980926513671875</AltitudeMeters>
            <DistanceMeters>NAN</DistanceMeters>
          </Trackpoint>
          <Trackpoint>
            <Time>2022-07-09T14:21:34.000Z</Time>
            <Position>
              <LatitudeDegrees>43.3166638948023319244384765625</LatitudeDegrees>
              <LongitudeDegrees>-1.9871636666357517242431640625</LongitudeDegrees>
            </Position>
            <AltitudeMeters>15.3999996185302734375</AltitudeMeters>
            <DistanceMeters>NAN</DistanceMeters>
          </Trackpoint>
          <Trackpoint>
            <Time>2022-07-09T14:21:39.000Z</Time>
            <Position>
              <LatitudeDegrees>43.3166414313018321990966796875</LatitudeDegrees>
              <LongitudeDegrees>-1.98712318204343318939208984375</LongitudeDegrees>
            </Position>
            <AltitudeMeters>15.19999980926513671875</AltitudeMeters>
            <DistanceMeters>NAN</DistanceMeters>
          </Trackpoint>
          <Trackpoint>
            <Time>2022-07-09T14:21:47.000Z</Time>
            <Position>
              <LatitudeDegrees>43.31663413904607295989990234375</LatitudeDegrees>
              <LongitudeDegrees>-1.9870959408581256866455078125</LongitudeDegrees>
            </Position>
            <AltitudeMeters>15.3999996185302734375</AltitudeMeters>
            <DistanceMeters>NAN</DistanceMeters>
          </Trackpoint>
          <Trackpoint>
            <Time>2022-07-09T14:21:50.000Z</Time>
            <Position>
              <LatitudeDegrees>43.31662139855325222015380859375</LatitudeDegrees>
              <LongitudeDegrees>-1.987171880900859832763671875</LongitudeDegrees>
            </Position>
            <AltitudeMeters>15.3999996185302734375</AltitudeMeters>
            <DistanceMeters>NAN</DistanceMeters>
          </Trackpoint>
          <Trackpoint>
            <Time>2022-07-09T14:23:07.000Z</Time>
            <Position>
              <LatitudeDegrees>43.31658326089382171630859375</LatitudeDegrees>
              <LongitudeDegrees>-1.987005583941936492919921875</LongitudeDegrees>
            </Position>
            <AltitudeMeters>15</AltitudeMeters>
            <DistanceMeters>NAN</DistanceMeters>
          </Trackpoint>
          <Trackpoint>
            <Time>2022-07-09T14:23:10.000Z</Time>
            <Position>
              <LatitudeDegrees>43.31656448543071746826171875</LatitudeDegrees>
              <LongitudeDegrees>-1.98709401302039623260498046875</LongitudeDegrees>
            </Position>
            <AltitudeMeters>15</AltitudeMeters>
            <DistanceMeters>NAN</DistanceMeters>
          </Trackpoint>
          <Trackpoint>
            <Time>2022-07-09T14:23:13.000Z</Time>
            <Position>
              <LatitudeDegrees>43.3165820874273777008056640625</LatitudeDegrees>
              <LongitudeDegrees>-1.98697951622307300567626953125</LongitudeDegrees>
            </Position>
            <AltitudeMeters>15</AltitudeMeters>
            <DistanceMeters>NAN</DistanceMeters>
          </Trackpoint>
          <Trackpoint>
            <Time>2022-07-09T14:23:19.000Z</Time>
            <Position>
              <LatitudeDegrees>43.3165713585913181304931640625</LatitudeDegrees>
              <LongitudeDegrees>-1.98711228556931018829345703125</LongitudeDegrees>
            </Position>
            <AltitudeMeters>14.80000019073486328125</AltitudeMeters>
            <DistanceMeters>NAN</DistanceMeters>
          </Trackpoint>
          <Trackpoint>
            <Time>2022-07-09T14:23:25.000Z</Time>
            <Position>
              <LatitudeDegrees>43.31652198918163776397705078125</LatitudeDegrees>
              <LongitudeDegrees>-1.98719962500035762786865234375</LongitudeDegrees>
            </Position>
            <AltitudeMeters>15</AltitudeMeters>
            <DistanceMeters>NAN</DistanceMeters>
          </Trackpoint>
          <Trackpoint>
            <Time>2022-07-09T14:25:39.000Z</Time>
            <Position>
              <LatitudeDegrees>43.3164493180811405181884765625</LatitudeDegrees>
              <LongitudeDegrees>-1.9872028939425945281982421875</LongitudeDegrees>
            </Position>
            <AltitudeMeters>14.80000019073486328125</AltitudeMeters>
            <DistanceMeters>NAN</DistanceMeters>
          </Trackpoint>
          <Trackpoint>
            <Time>2022-07-09T14:25:41.000Z</Time>
            <Position>
              <LatitudeDegrees>43.31645946018397808074951171875</LatitudeDegrees>
              <LongitudeDegrees>-1.98722242377698421478271484375</LongitudeDegrees>
            </Position>
            <AltitudeMeters>14.80000019073486328125</AltitudeMeters>
            <DistanceMeters>NAN</DistanceMeters>
          </Trackpoint>
          <Trackpoint>
            <Time>2022-07-09T14:25:42.000Z</Time>
            <Position>
              <LatitudeDegrees>43.3164623938500881195068359375</LatitudeDegrees>
              <LongitudeDegrees>-1.98723030276596546173095703125</LongitudeDegrees>
            </Position>
            <AltitudeMeters>14.80000019073486328125</AltitudeMeters>
            <DistanceMeters>NAN</DistanceMeters>
          </Trackpoint>
          <Trackpoint>
            <Time>2022-07-09T14:25:58.000Z</Time>
            <Position>
              <LatitudeDegrees>43.31641771830618381500244140625</LatitudeDegrees>
              <LongitudeDegrees>-1.987068951129913330078125</LongitudeDegrees>
            </Position>
            <AltitudeMeters>14.80000019073486328125</AltitudeMeters>
            <DistanceMeters>NAN</DistanceMeters>
          </Trackpoint>
          <Trackpoint>
            <Time>2022-07-09T14:26:00.000Z</Time>
            <Position>
              <LatitudeDegrees>43.3163841068744659423828125</LatitudeDegrees>
              <LongitudeDegrees>-1.98700164444744586944580078125</LongitudeDegrees>
            </Position>
            <AltitudeMeters>14.80000019073486328125</AltitudeMeters>
            <DistanceMeters>NAN</DistanceMeters>
          </Trackpoint>
          <Trackpoint>
            <Time>2022-07-09T14:26:01.000Z</Time>
            <Position>
              <LatitudeDegrees>43.31639357842504978179931640625</LatitudeDegrees>
              <LongitudeDegrees>-1.987010948359966278076171875</LongitudeDegrees>
            </Position>
            <AltitudeMeters>14.80000019073486328125</AltitudeMeters>
            <DistanceMeters>NAN</DistanceMeters>
          </Trackpoint>
          <Trackpoint>
            <Time>2022-07-09T14:26:02.000Z</Time>
            <Position>
              <LatitudeDegrees>43.316404558718204498291015625</LatitudeDegrees>
              <LongitudeDegrees>-1.9870268739759922027587890625</LongitudeDegrees>
            </Position>
            <AltitudeMeters>14.80000019073486328125</AltitudeMeters>
            <DistanceMeters>NAN</DistanceMeters>
          </Trackpoint>
          <Trackpoint>
            <Time>2022-07-09T14:26:05.000Z</Time>
            <Position>
              <LatitudeDegrees>43.31644236110150814056396484375</LatitudeDegrees>
              <LongitudeDegrees>-1.9870681129395961761474609375</LongitudeDegrees>
            </Position>
            <AltitudeMeters>14.80000019073486328125</AltitudeMeters>
            <DistanceMeters>NAN</DistanceMeters>
          </Trackpoint>
          <Trackpoint>
            <Time>2022-07-09T14:26:07.000Z</Time>
            <Position>
              <LatitudeDegrees>43.3164426125586032867431640625</LatitudeDegrees>
              <LongitudeDegrees>-1.98708303272724151611328125</LongitudeDegrees>
            </Position>
            <AltitudeMeters>14.80000019073486328125</AltitudeMeters>
            <DistanceMeters>NAN</DistanceMeters>
          </Trackpoint>
          <Trackpoint>
            <Time>2022-07-09T14:26:08.000Z</Time>
            <Position>
              <LatitudeDegrees>43.316452503204345703125</LatitudeDegrees>
              <LongitudeDegrees>-1.98710759170353412628173828125</LongitudeDegrees>
            </Position>
            <AltitudeMeters>14.80000019073486328125</AltitudeMeters>
            <DistanceMeters>NAN</DistanceMeters>
          </Trackpoint>
          <Trackpoint>
            <Time>2022-07-09T14:26:10.000Z</Time>
            <Position>
              <LatitudeDegrees>43.3164818398654460906982421875</LatitudeDegrees>
              <LongitudeDegrees>-1.98715603910386562347412109375</LongitudeDegrees>
            </Position>
            <AltitudeMeters>14.80000019073486328125</AltitudeMeters>
            <DistanceMeters>NAN</DistanceMeters>
          </Trackpoint>
          <Trackpoint>
            <Time>2022-07-09T14:26:11.000Z</Time>
            <Position>
              <LatitudeDegrees>43.31649382598698139190673828125</LatitudeDegrees>
              <LongitudeDegrees>-1.98719032108783721923828125</LongitudeDegrees>
            </Position>
            <AltitudeMeters>14.80000019073486328125</AltitudeMeters>
            <DistanceMeters>NAN</DistanceMeters>
          </Trackpoint>
          <Trackpoint>
            <Time>2022-07-09T14:26:13.000Z</Time>
            <Position>
              <LatitudeDegrees>43.31652081571519374847412109375</LatitudeDegrees>
              <LongitudeDegrees>-1.98723851703107357025146484375</LongitudeDegrees>
            </Position>
            <AltitudeMeters>14.80000019073486328125</AltitudeMeters>
            <DistanceMeters>NAN</DistanceMeters>
          </Trackpoint>
          <Trackpoint>
            <Time>2022-07-09T14:26:14.000Z</Time>
            <Position>
              <LatitudeDegrees>43.3165267668664455413818359375</LatitudeDegrees>
              <LongitudeDegrees>-1.9872018881142139434814453125</LongitudeDegrees>
            </Position>
            <AltitudeMeters>14.80000019073486328125</AltitudeMeters>
            <DistanceMeters>NAN</DistanceMeters>
          </Trackpoint>
          <Trackpoint>
            <Time>2022-07-09T14:26:16.000Z</Time>
            <Position>
              <LatitudeDegrees>43.31651645712554454803466796875</LatitudeDegrees>
              <LongitudeDegrees>-1.98712728917598724365234375</LongitudeDegrees>
            </Position>
            <AltitudeMeters>14.80000019073486328125</AltitudeMeters>
            <DistanceMeters>NAN</DistanceMeters>
          </Trackpoint>
          <Trackpoint>
            <Time>2022-07-09T14:26:19.000Z</Time>
            <Position>
              <LatitudeDegrees>43.3164431154727935791015625</LatitudeDegrees>
              <LongitudeDegrees>-1.98702226392924785614013671875</LongitudeDegrees>
            </Position>
            <AltitudeMeters>14.80000019073486328125</AltitudeMeters>
            <DistanceMeters>NAN</DistanceMeters>
          </Trackpoint>
          <Trackpoint>
            <Time>2022-07-09T14:26:23.000Z</Time>
            <Position>
              <LatitudeDegrees>43.31638486124575138092041015625</LatitudeDegrees>
              <LongitudeDegrees>-1.98682361282408237457275390625</LongitudeDegrees>
            </Position>
            <AltitudeMeters>14.80000019073486328125</AltitudeMeters>
            <DistanceMeters>NAN</DistanceMeters>
          </Trackpoint>
          <Trackpoint>
            <Time>2022-07-09T14:26:26.000Z</Time>
            <Position>
              <LatitudeDegrees>43.31637983210384845733642578125</LatitudeDegrees>
              <LongitudeDegrees>-1.98692603968083858489990234375</LongitudeDegrees>
            </Position>
            <AltitudeMeters>14.80000019073486328125</AltitudeMeters>
            <DistanceMeters>NAN</DistanceMeters>
          </Trackpoint>
          <Trackpoint>
            <Time>2022-07-09T14:26:27.000Z</Time>
            <Position>
              <LatitudeDegrees>43.31639341078698635101318359375</LatitudeDegrees>
              <LongitudeDegrees>-1.9869630038738250732421875</LongitudeDegrees>
            </Position>
            <AltitudeMeters>14.80000019073486328125</AltitudeMeters>
            <DistanceMeters>NAN</DistanceMeters>
          </Trackpoint>
          <Trackpoint>
            <Time>2022-07-09T14:26:31.000Z</Time>
            <Position>
              <LatitudeDegrees>43.31647035665810108184814453125</LatitudeDegrees>
              <LongitudeDegrees>-1.98706869967281818389892578125</LongitudeDegrees>
            </Position>
            <AltitudeMeters>14.6000003814697265625</AltitudeMeters>
            <DistanceMeters>NAN</DistanceMeters>
          </Trackpoint>
          <Trackpoint>
            <Time>2022-07-09T14:26:33.000Z</Time>
            <Position>
              <LatitudeDegrees>43.31648661755025386810302734375</LatitudeDegrees>
              <LongitudeDegrees>-1.98705696500837802886962890625</LongitudeDegrees>
            </Position>
            <AltitudeMeters>14.6000003814697265625</AltitudeMeters>
            <DistanceMeters>NAN</DistanceMeters>
          </Trackpoint>
          <Trackpoint>
            <Time>2022-07-09T14:26:34.000Z</Time>
            <Position>
              <LatitudeDegrees>43.3164922334253787994384765625</LatitudeDegrees>
              <LongitudeDegrees>-1.987052522599697113037109375</LongitudeDegrees>
            </Position>
            <AltitudeMeters>14.6000003814697265625</AltitudeMeters>
            <DistanceMeters>NAN</DistanceMeters>
          </Trackpoint>
          <Trackpoint>
            <Time>2022-07-09T14:26:36.000Z</Time>
            <Position>
              <LatitudeDegrees>43.31651595421135425567626953125</LatitudeDegrees>
              <LongitudeDegrees>-1.9870734773576259613037109375</LongitudeDegrees>
            </Position>
            <AltitudeMeters>14.6000003814697265625</AltitudeMeters>
            <DistanceMeters>NAN</DistanceMeters>
          </Trackpoint>
          <Trackpoint>
            <Time>2022-07-09T14:26:41.000Z</Time>
            <Position>
              <LatitudeDegrees>43.31654570996761322021484375</LatitudeDegrees>
              <LongitudeDegrees>-1.98703215457499027252197265625</LongitudeDegrees>
            </Position>
            <AltitudeMeters>14.6000003814697265625</AltitudeMeters>
            <DistanceMeters>NAN</DistanceMeters>
          </Trackpoint>
          <Trackpoint>
            <Time>2022-07-09T14:26:44.000Z</Time>
            <Position>
              <LatitudeDegrees>43.316522575914859771728515625</LatitudeDegrees>
              <LongitudeDegrees>-1.9870868884027004241943359375</LongitudeDegrees>
            </Position>
            <AltitudeMeters>14.80000019073486328125</AltitudeMeters>
            <DistanceMeters>NAN</DistanceMeters>
          </Trackpoint>
          <Trackpoint>
            <Time>2022-07-09T14:26:46.000Z</Time>
            <Position>
              <LatitudeDegrees>43.31649080850183963775634765625</LatitudeDegrees>
              <LongitudeDegrees>-1.98709367774426937103271484375</LongitudeDegrees>
            </Position>
            <AltitudeMeters>14.80000019073486328125</AltitudeMeters>
            <DistanceMeters>NAN</DistanceMeters>
          </Trackpoint>
          <Trackpoint>
            <Time>2022-07-09T14:26:47.000Z</Time>
            <Position>
              <LatitudeDegrees>43.31648695282638072967529296875</LatitudeDegrees>
              <LongitudeDegrees>-1.98708915151655673980712890625</LongitudeDegrees>
            </Position>
            <AltitudeMeters>14.80000019073486328125</AltitudeMeters>
            <DistanceMeters>NAN</DistanceMeters>
          </Trackpoint>
          <Trackpoint>
            <Time>2022-07-09T14:26:48.000Z</Time>
            <Position>
              <LatitudeDegrees>43.31647085957229137420654296875</LatitudeDegrees>
              <LongitudeDegrees>-1.98706299997866153717041015625</LongitudeDegrees>
            </Position>
            <AltitudeMeters>14.80000019073486328125</AltitudeMeters>
            <DistanceMeters>NAN</DistanceMeters>
          </Trackpoint>
          <Trackpoint>
            <Time>2022-07-09T14:26:49.000Z</Time>
            <Position>
              <LatitudeDegrees>43.316464908421039581298828125</LatitudeDegrees>
              <LongitudeDegrees>-1.98703684844076633453369140625</LongitudeDegrees>
            </Position>
            <AltitudeMeters>14.80000019073486328125</AltitudeMeters>
            <DistanceMeters>NAN</DistanceMeters>
          </Trackpoint>
          <Trackpoint>
            <Time>2022-07-09T14:26:53.000Z</Time>
            <Position>
              <LatitudeDegrees>43.31643649376928806304931640625</LatitudeDegrees>
              <LongitudeDegrees>-1.987058557569980621337890625</LongitudeDegrees>
            </Position>
            <AltitudeMeters>14.80000019073486328125</AltitudeMeters>
            <DistanceMeters>NAN</DistanceMeters>
          </Trackpoint>
          <Trackpoint>
            <Time>2022-07-09T14:26:56.000Z</Time>
            <Position>
              <LatitudeDegrees>43.3164248429238796234130859375</LatitudeDegrees>
              <LongitudeDegrees>-1.98707523755729198455810546875</LongitudeDegrees>
            </Position>
            <AltitudeMeters>14.80000019073486328125</AltitudeMeters>
            <DistanceMeters>NAN</DistanceMeters>
          </Trackpoint>
          <Trackpoint>
            <Time>2022-07-09T14:26:59.000Z</Time>
            <Position>
              <LatitudeDegrees>43.31642626784741878509521484375</LatitudeDegrees>
              <LongitudeDegrees>-1.9870756566524505615234375</LongitudeDegrees>
            </Position>
            <AltitudeMeters>14.6000003814697265625</AltitudeMeters>
            <DistanceMeters>NAN</DistanceMeters>
          </Trackpoint>
          <Trackpoint>
            <Time>2022-07-09T14:27:01.000Z</Time>
            <Position>
              <LatitudeDegrees>43.31644118763506412506103515625</LatitudeDegrees>
              <LongitudeDegrees>-1.98705227114260196685791015625</LongitudeDegrees>
            </Position>
            <AltitudeMeters>14.6000003814697265625</AltitudeMeters>
            <DistanceMeters>NAN</DistanceMeters>
          </Trackpoint>
          <Trackpoint>
            <Time>2022-07-09T14:27:03.000Z</Time>
            <Position>
              <LatitudeDegrees>43.31644303165376186370849609375</LatitudeDegrees>
              <LongitudeDegrees>-1.98694146238267421722412109375</LongitudeDegrees>
            </Position>
            <AltitudeMeters>14.6000003814697265625</AltitudeMeters>
            <DistanceMeters>NAN</DistanceMeters>
          </Trackpoint>
          <Trackpoint>
            <Time>2022-07-09T14:27:04.000Z</Time>
            <Position>
              <LatitudeDegrees>43.3164526708424091339111328125</LatitudeDegrees>
              <LongitudeDegrees>-1.98688999749720096588134765625</LongitudeDegrees>
            </Position>
            <AltitudeMeters>14.6000003814697265625</AltitudeMeters>
            <DistanceMeters>NAN</DistanceMeters>
          </Trackpoint>
          <Trackpoint>
            <Time>2022-07-09T14:27:07.000Z</Time>
            <Position>
              <LatitudeDegrees>43.316498436033725738525390625</LatitudeDegrees>
              <LongitudeDegrees>-1.98690827004611492156982421875</LongitudeDegrees>
            </Position>
            <AltitudeMeters>14.6000003814697265625</AltitudeMeters>
            <DistanceMeters>NAN</DistanceMeters>
          </Trackpoint>
          <Trackpoint>
            <Time>2022-07-09T14:27:09.000Z</Time>
            <Position>
              <LatitudeDegrees>43.3165740408003330230712890625</LatitudeDegrees>
              <LongitudeDegrees>-1.98708227835595607757568359375</LongitudeDegrees>
            </Position>
            <AltitudeMeters>14.6000003814697265625</AltitudeMeters>
            <DistanceMeters>NAN</DistanceMeters>
          </Trackpoint>
          <Trackpoint>
            <Time>2022-07-09T14:27:11.000Z</Time>
            <Position>
              <LatitudeDegrees>43.31662005744874477386474609375</LatitudeDegrees>
              <LongitudeDegrees>-1.9871720485389232635498046875</LongitudeDegrees>
            </Position>
            <AltitudeMeters>14.3999996185302734375</AltitudeMeters>
            <DistanceMeters>NAN</DistanceMeters>
          </Trackpoint>
          <Trackpoint>
            <Time>2022-07-09T14:27:12.000Z</Time>
            <Position>
              <LatitudeDegrees>43.31661653704941272735595703125</LatitudeDegrees>
              <LongitudeDegrees>-1.98712971992790699005126953125</LongitudeDegrees>
            </Position>
            <AltitudeMeters>14.6000003814697265625</AltitudeMeters>
            <DistanceMeters>NAN</DistanceMeters>
          </Trackpoint>
          <Trackpoint>
            <Time>2022-07-09T14:27:14.000Z</Time>
            <Position>
              <LatitudeDegrees>43.31663698889315128326416015625</LatitudeDegrees>
              <LongitudeDegrees>-1.98705042712390422821044921875</LongitudeDegrees>
            </Position>
            <AltitudeMeters>14.3999996185302734375</AltitudeMeters>
            <DistanceMeters>NAN</DistanceMeters>
          </Trackpoint>
          <Trackpoint>
            <Time>2022-07-09T14:27:16.000Z</Time>
            <Position>
              <LatitudeDegrees>43.3165760524570941925048828125</LatitudeDegrees>
              <LongitudeDegrees>-1.98697842657566070556640625</LongitudeDegrees>
            </Position>
            <AltitudeMeters>14.3999996185302734375</AltitudeMeters>
            <DistanceMeters>NAN</DistanceMeters>
          </Trackpoint>
          <Trackpoint>
            <Time>2022-07-09T14:27:21.000Z</Time>
            <Position>
              <LatitudeDegrees>43.31652031280100345611572265625</LatitudeDegrees>
              <LongitudeDegrees>-1.9869705475866794586181640625</LongitudeDegrees>
            </Position>
            <AltitudeMeters>14.3999996185302734375</AltitudeMeters>
            <DistanceMeters>NAN</DistanceMeters>
          </Trackpoint>
          <Trackpoint>
            <Time>2022-07-09T14:27:23.000Z</Time>
            <Position>
              <LatitudeDegrees>43.3165311254560947418212890625</LatitudeDegrees>
              <LongitudeDegrees>-1.9870533607900142669677734375</LongitudeDegrees>
            </Position>
            <AltitudeMeters>14.3999996185302734375</AltitudeMeters>
            <DistanceMeters>NAN</DistanceMeters>
          </Trackpoint>
          <Trackpoint>
            <Time>2022-07-09T14:27:24.000Z</Time>
            <Position>
              <LatitudeDegrees>43.31654763780534267425537109375</LatitudeDegrees>
              <LongitudeDegrees>-1.98708345182240009307861328125</LongitudeDegrees>
            </Position>
            <AltitudeMeters>14.3999996185302734375</AltitudeMeters>
            <DistanceMeters>NAN</DistanceMeters>
          </Trackpoint>
          <Trackpoint>
            <Time>2022-07-09T14:27:26.000Z</Time>
            <Position>
              <LatitudeDegrees>43.31661201082170009613037109375</LatitudeDegrees>
              <LongitudeDegrees>-1.9871965236961841583251953125</LongitudeDegrees>
            </Position>
            <AltitudeMeters>14.3999996185302734375</AltitudeMeters>
            <DistanceMeters>NAN</DistanceMeters>
          </Trackpoint>
          <Trackpoint>
            <Time>2022-07-09T14:27:29.000Z</Time>
            <Position>
              <LatitudeDegrees>43.3166260085999965667724609375</LatitudeDegrees>
              <LongitudeDegrees>-1.9873514212667942047119140625</LongitudeDegrees>
            </Position>
            <AltitudeMeters>14.3999996185302734375</AltitudeMeters>
            <DistanceMeters>NAN</DistanceMeters>
          </Trackpoint>
          <Trackpoint>
            <Time>2022-07-09T14:27:30.000Z</Time>
            <Position>
              <LatitudeDegrees>43.31662424840033054351806640625</LatitudeDegrees>
              <LongitudeDegrees>-1.98733122088015079498291015625</LongitudeDegrees>
            </Position>
            <AltitudeMeters>14.3999996185302734375</AltitudeMeters>
            <DistanceMeters>NAN</DistanceMeters>
          </Trackpoint>
          <Trackpoint>
            <Time>2022-07-09T14:27:32.000Z</Time>
            <Position>
              <LatitudeDegrees>43.3166389167308807373046875</LatitudeDegrees>
              <LongitudeDegrees>-1.98729149065911769866943359375</LongitudeDegrees>
            </Position>
            <AltitudeMeters>14.3999996185302734375</AltitudeMeters>
            <DistanceMeters>NAN</DistanceMeters>
          </Trackpoint>
          <Trackpoint>
            <Time>2022-07-09T14:27:33.000Z</Time>
            <Position>
              <LatitudeDegrees>43.31664822064340114593505859375</LatitudeDegrees>
              <LongitudeDegrees>-1.98725997470319271087646484375</LongitudeDegrees>
            </Position>
            <AltitudeMeters>14.3999996185302734375</AltitudeMeters>
            <DistanceMeters>NAN</DistanceMeters>
          </Trackpoint>
          <Trackpoint>
            <Time>2022-07-09T14:27:36.000Z</Time>
            <Position>
              <LatitudeDegrees>43.3166067302227020263671875</LatitudeDegrees>
              <LongitudeDegrees>-1.987210772931575775146484375</LongitudeDegrees>
            </Position>
            <AltitudeMeters>14.3999996185302734375</AltitudeMeters>
            <DistanceMeters>NAN</DistanceMeters>
          </Trackpoint>
          <Trackpoint>
            <Time>2022-07-09T14:27:37.000Z</Time>
            <Position>
              <LatitudeDegrees>43.3165718615055084228515625</LatitudeDegrees>
              <LongitudeDegrees>-1.98719032108783721923828125</LongitudeDegrees>
            </Position>
            <AltitudeMeters>14.3999996185302734375</AltitudeMeters>
            <DistanceMeters>NAN</DistanceMeters>
          </Trackpoint>
          <Trackpoint>
            <Time>2022-07-09T14:27:39.000Z</Time>
            <Position>
              <LatitudeDegrees>43.31651276908814907073974609375</LatitudeDegrees>
              <LongitudeDegrees>-1.98720582760870456695556640625</LongitudeDegrees>
            </Position>
            <AltitudeMeters>14.3999996185302734375</AltitudeMeters>
            <DistanceMeters>NAN</DistanceMeters>
          </Trackpoint>
          <Trackpoint>
            <Time>2022-07-09T14:27:40.000Z</Time>
            <Position>
              <LatitudeDegrees>43.31649969331920146942138671875</LatitudeDegrees>
              <LongitudeDegrees>-1.9872253574430942535400390625</LongitudeDegrees>
            </Position>
            <AltitudeMeters>14.3999996185302734375</AltitudeMeters>
            <DistanceMeters>NAN</DistanceMeters>
          </Trackpoint>
          <Trackpoint>
            <Time>2022-07-09T14:27:44.000Z</Time>
            <Position>
              <LatitudeDegrees>43.31638016737997531890869140625</LatitudeDegrees>
              <LongitudeDegrees>-1.98735854588449001312255859375</LongitudeDegrees>
            </Position>
            <AltitudeMeters>14.3999996185302734375</AltitudeMeters>
            <DistanceMeters>NAN</DistanceMeters>
          </Trackpoint>
          <Trackpoint>
            <Time>2022-07-09T14:27:45.000Z</Time>
            <Position>
              <LatitudeDegrees>43.31634613685309886932373046875</LatitudeDegrees>
              <LongitudeDegrees>-1.9873519241809844970703125</LongitudeDegrees>
            </Position>
            <AltitudeMeters>14.3999996185302734375</AltitudeMeters>
            <DistanceMeters>NAN</DistanceMeters>
          </Trackpoint>
          <Trackpoint>
            <Time>2022-07-09T14:27:47.000Z</Time>
            <Position>
              <LatitudeDegrees>43.3163487352430820465087890625</LatitudeDegrees>
              <LongitudeDegrees>-1.987332142889499664306640625</LongitudeDegrees>
            </Position>
            <AltitudeMeters>14.3999996185302734375</AltitudeMeters>
            <DistanceMeters>NAN</DistanceMeters>
          </Trackpoint>
          <Trackpoint>
            <Time>2022-07-09T14:27:50.000Z</Time>
            <Position>
              <LatitudeDegrees>43.31628662534058094024658203125</LatitudeDegrees>
              <LongitudeDegrees>-1.987189315259456634521484375</LongitudeDegrees>
            </Position>
            <AltitudeMeters>14.3999996185302734375</AltitudeMeters>
            <DistanceMeters>NAN</DistanceMeters>
          </Trackpoint>
          <Trackpoint>
            <Time>2022-07-09T14:27:52.000Z</Time>
            <Position>
              <LatitudeDegrees>43.31630338914692401885986328125</LatitudeDegrees>
              <LongitudeDegrees>-1.98713491670787334442138671875</LongitudeDegrees>
            </Position>
            <AltitudeMeters>14.3999996185302734375</AltitudeMeters>
            <DistanceMeters>NAN</DistanceMeters>
          </Trackpoint>
          <Trackpoint>
            <Time>2022-07-09T14:27:53.000Z</Time>
            <Position>
              <LatitudeDegrees>43.31631747074425220489501953125</LatitudeDegrees>
              <LongitudeDegrees>-1.98718436993658542633056640625</LongitudeDegrees>
            </Position>
            <AltitudeMeters>14.3999996185302734375</AltitudeMeters>
            <DistanceMeters>NAN</DistanceMeters>
          </Trackpoint>
          <Trackpoint>
            <Time>2022-07-09T14:27:54.000Z</Time>
            <Position>
              <LatitudeDegrees>43.316324763000011444091796875</LatitudeDegrees>
              <LongitudeDegrees>-1.987159140408039093017578125</LongitudeDegrees>
            </Position>
            <AltitudeMeters>14.3999996185302734375</AltitudeMeters>
            <DistanceMeters>NAN</DistanceMeters>
          </Trackpoint>
          <Trackpoint>
            <Time>2022-07-09T14:27:56.000Z</Time>
            <Position>
              <LatitudeDegrees>43.316276483237743377685546875</LatitudeDegrees>
              <LongitudeDegrees>-1.9873427040874958038330078125</LongitudeDegrees>
            </Position>
            <AltitudeMeters>14.3999996185302734375</AltitudeMeters>
            <DistanceMeters>NAN</DistanceMeters>
          </Trackpoint>
          <Trackpoint>
            <Time>2022-07-09T14:27:57.000Z</Time>
            <Position>
              <LatitudeDegrees>43.31629416905343532562255859375</LatitudeDegrees>
              <LongitudeDegrees>-1.98734479956328868865966796875</LongitudeDegrees>
            </Position>
            <AltitudeMeters>14.3999996185302734375</AltitudeMeters>
            <DistanceMeters>NAN</DistanceMeters>
          </Trackpoint>
          <Trackpoint>
            <Time>2022-07-09T14:28:00.000Z</Time>
            <Position>
              <LatitudeDegrees>43.31656054593622684478759765625</LatitudeDegrees>
              <LongitudeDegrees>-1.98717012070119380950927734375</LongitudeDegrees>
            </Position>
            <AltitudeMeters>14.3999996185302734375</AltitudeMeters>
            <DistanceMeters>NAN</DistanceMeters>
          </Trackpoint>
          <Trackpoint>
            <Time>2022-07-09T14:28:06.000Z</Time>
            <Position>
              <LatitudeDegrees>43.316440768539905548095703125</LatitudeDegrees>
              <LongitudeDegrees>-1.9870084337890148162841796875</LongitudeDegrees>
            </Position>
            <AltitudeMeters>14.3999996185302734375</AltitudeMeters>
            <DistanceMeters>NAN</DistanceMeters>
          </Trackpoint>
          <Trackpoint>
            <Time>2022-07-09T14:28:07.000Z</Time>
            <Position>
              <LatitudeDegrees>43.3164017088711261749267578125</LatitudeDegrees>
              <LongitudeDegrees>-1.98701086454093456268310546875</LongitudeDegrees>
            </Position>
            <AltitudeMeters>14.3999996185302734375</AltitudeMeters>
            <DistanceMeters>NAN</DistanceMeters>
          </Trackpoint>
          <Trackpoint>
            <Time>2022-07-09T14:28:08.000Z</Time>
            <Position>
              <LatitudeDegrees>43.31638201139867305755615234375</LatitudeDegrees>
              <LongitudeDegrees>-1.98701689951121807098388671875</LongitudeDegrees>
            </Position>
            <AltitudeMeters>14.3999996185302734375</AltitudeMeters>
            <DistanceMeters>NAN</DistanceMeters>
          </Trackpoint>
          <Trackpoint>
            <Time>2022-07-09T14:28:09.000Z</Time>
            <Position>
              <LatitudeDegrees>43.3164231665432453155517578125</LatitudeDegrees>
              <LongitudeDegrees>-1.98702461086213588714599609375</LongitudeDegrees>
            </Position>
            <AltitudeMeters>14.3999996185302734375</AltitudeMeters>
            <DistanceMeters>NAN</DistanceMeters>
          </Trackpoint>
          <Trackpoint>
            <Time>2022-07-09T14:28:14.000Z</Time>
            <Position>
              <LatitudeDegrees>43.31649466417729854583740234375</LatitudeDegrees>
              <LongitudeDegrees>-1.98716894723474979400634765625</LongitudeDegrees>
            </Position>
            <AltitudeMeters>14.3999996185302734375</AltitudeMeters>
            <DistanceMeters>NAN</DistanceMeters>
          </Trackpoint>
          <Trackpoint>
            <Time>2022-07-09T14:28:19.000Z</Time>
            <Position>
              <LatitudeDegrees>43.31655182875692844390869140625</LatitudeDegrees>
              <LongitudeDegrees>-1.987297944724559783935546875</LongitudeDegrees>
            </Position>
            <AltitudeMeters>14.3999996185302734375</AltitudeMeters>
            <DistanceMeters>NAN</DistanceMeters>
          </Trackpoint>
          <Trackpoint>
            <Time>2022-07-09T14:28:20.000Z</Time>
            <Position>
              <LatitudeDegrees>43.3166094124317169189453125</LatitudeDegrees>
              <LongitudeDegrees>-1.98714673519134521484375</LongitudeDegrees>
            </Position>
            <AltitudeMeters>14.3999996185302734375</AltitudeMeters>
            <DistanceMeters>NAN</DistanceMeters>
          </Trackpoint>
          <Trackpoint>
            <Time>2022-07-09T14:28:22.000Z</Time>
            <Position>
              <LatitudeDegrees>43.31665827892720699310302734375</LatitudeDegrees>
              <LongitudeDegrees>-1.98713441379368305206298828125</LongitudeDegrees>
            </Position>
            <AltitudeMeters>14.3999996185302734375</AltitudeMeters>
            <DistanceMeters>NAN</DistanceMeters>
          </Trackpoint>
          <Trackpoint>
            <Time>2022-07-09T14:28:24.000Z</Time>
            <Position>
              <LatitudeDegrees>43.31665970385074615478515625</LatitudeDegrees>
              <LongitudeDegrees>-1.9870402850210666656494140625</LongitudeDegrees>
            </Position>
            <AltitudeMeters>14.3999996185302734375</AltitudeMeters>
            <DistanceMeters>NAN</DistanceMeters>
          </Trackpoint>
          <Trackpoint>
            <Time>2022-07-09T14:28:26.000Z</Time>
            <Position>
              <LatitudeDegrees>43.31670974381268024444580078125</LatitudeDegrees>
              <LongitudeDegrees>-1.98690072633326053619384765625</LongitudeDegrees>
            </Position>
            <AltitudeMeters>14.3999996185302734375</AltitudeMeters>
            <DistanceMeters>NAN</DistanceMeters>
          </Trackpoint>
          <Trackpoint>
            <Time>2022-07-09T14:28:27.000Z</Time>
            <Position>
              <LatitudeDegrees>43.316691219806671142578125</LatitudeDegrees>
              <LongitudeDegrees>-1.9869085215032100677490234375</LongitudeDegrees>
            </Position>
            <AltitudeMeters>14.3999996185302734375</AltitudeMeters>
            <DistanceMeters>NAN</DistanceMeters>
          </Trackpoint>
          <Trackpoint>
            <Time>2022-07-09T14:28:28.000Z</Time>
            <Position>
              <LatitudeDegrees>43.31662081182003021240234375</LatitudeDegrees>
              <LongitudeDegrees>-1.98697314597666263580322265625</LongitudeDegrees>
            </Position>
            <AltitudeMeters>14.3999996185302734375</AltitudeMeters>
            <DistanceMeters>NAN</DistanceMeters>
          </Trackpoint>
          <Trackpoint>
            <Time>2022-07-09T14:28:30.000Z</Time>
            <Position>
              <LatitudeDegrees>43.3165680058300495147705078125</LatitudeDegrees>
              <LongitudeDegrees>-1.98707691393792629241943359375</LongitudeDegrees>
            </Position>
            <AltitudeMeters>14.3999996185302734375</AltitudeMeters>
            <DistanceMeters>NAN</DistanceMeters>
          </Trackpoint>
          <Trackpoint>
            <Time>2022-07-09T14:28:31.000Z</Time>
            <Position>
              <LatitudeDegrees>43.31657328642904758453369140625</LatitudeDegrees>
              <LongitudeDegrees>-1.98707138188183307647705078125</LongitudeDegrees>
            </Position>
            <AltitudeMeters>14.3999996185302734375</AltitudeMeters>
            <DistanceMeters>NAN</DistanceMeters>
          </Trackpoint>
          <Trackpoint>
            <Time>2022-07-09T14:28:32.000Z</Time>
            <Position>
              <LatitudeDegrees>43.316578902304172515869140625</LatitudeDegrees>
              <LongitudeDegrees>-1.9870506785809993743896484375</LongitudeDegrees>
            </Position>
            <AltitudeMeters>14.3999996185302734375</AltitudeMeters>
            <DistanceMeters>NAN</DistanceMeters>
          </Trackpoint>
          <Trackpoint>
            <Time>2022-07-09T14:28:34.000Z</Time>
            <Position>
              <LatitudeDegrees>43.3165468834340572357177734375</LatitudeDegrees>
              <LongitudeDegrees>-1.9870496727526187896728515625</LongitudeDegrees>
            </Position>
            <AltitudeMeters>14.3999996185302734375</AltitudeMeters>
            <DistanceMeters>NAN</DistanceMeters>
          </Trackpoint>
          <Trackpoint>
            <Time>2022-07-09T14:28:35.000Z</Time>
            <Position>
              <LatitudeDegrees>43.316538669168949127197265625</LatitudeDegrees>
              <LongitudeDegrees>-1.98711714707314968109130859375</LongitudeDegrees>
            </Position>
            <AltitudeMeters>14.3999996185302734375</AltitudeMeters>
            <DistanceMeters>NAN</DistanceMeters>
          </Trackpoint>
          <Trackpoint>
            <Time>2022-07-09T14:28:37.000Z</Time>
            <Position>
              <LatitudeDegrees>43.31654629670083522796630859375</LatitudeDegrees>
              <LongitudeDegrees>-1.9870523549616336822509765625</LongitudeDegrees>
            </Position>
            <AltitudeMeters>14.3999996185302734375</AltitudeMeters>
            <DistanceMeters>NAN</DistanceMeters>
          </Trackpoint>
          <Trackpoint>
            <Time>2022-07-09T14:28:40.000Z</Time>
            <Position>
              <LatitudeDegrees>43.3165344782173633575439453125</LatitudeDegrees>
              <LongitudeDegrees>-1.9870359264314174652099609375</LongitudeDegrees>
            </Position>
            <AltitudeMeters>14.3999996185302734375</AltitudeMeters>
            <DistanceMeters>NAN</DistanceMeters>
          </Trackpoint>
          <Trackpoint>
            <Time>2022-07-09T14:28:43.000Z</Time>
            <Position>
              <LatitudeDegrees>43.31653204746544361114501953125</LatitudeDegrees>
              <LongitudeDegrees>-1.9870292209088802337646484375</LongitudeDegrees>
            </Position>
            <AltitudeMeters>14.3999996185302734375</AltitudeMeters>
            <DistanceMeters>NAN</DistanceMeters>
          </Trackpoint>
          <Trackpoint>
            <Time>2022-07-09T14:28:48.000Z</Time>
            <Position>
              <LatitudeDegrees>43.3165061473846435546875</LatitudeDegrees>
              <LongitudeDegrees>-1.98697708547115325927734375</LongitudeDegrees>
            </Position>
            <AltitudeMeters>14.3999996185302734375</AltitudeMeters>
            <DistanceMeters>NAN</DistanceMeters>
          </Trackpoint>
          <Trackpoint>
            <Time>2022-07-09T14:28:53.000Z</Time>
            <Position>
              <LatitudeDegrees>43.31645560450851917266845703125</LatitudeDegrees>
              <LongitudeDegrees>-1.98704271577298641204833984375</LongitudeDegrees>
            </Position>
            <AltitudeMeters>14.3999996185302734375</AltitudeMeters>
            <DistanceMeters>NAN</DistanceMeters>
          </Trackpoint>
          <Trackpoint>
            <Time>2022-07-09T14:28:55.000Z</Time>
            <Position>
              <LatitudeDegrees>43.31646599806845188140869140625</LatitudeDegrees>
              <LongitudeDegrees>-1.98705344460904598236083984375</LongitudeDegrees>
            </Position>
            <AltitudeMeters>14.3999996185302734375</AltitudeMeters>
            <DistanceMeters>NAN</DistanceMeters>
          </Trackpoint>
          <Trackpoint>
            <Time>2022-07-09T14:28:57.000Z</Time>
            <Position>
              <LatitudeDegrees>43.31646264530718326568603515625</LatitudeDegrees>
              <LongitudeDegrees>-1.98705260641872882843017578125</LongitudeDegrees>
            </Position>
            <AltitudeMeters>14.3999996185302734375</AltitudeMeters>
            <DistanceMeters>NAN</DistanceMeters>
          </Trackpoint>
          <Trackpoint>
            <Time>2022-07-09T14:28:59.000Z</Time>
            <Position>
              <LatitudeDegrees>43.316439427435398101806640625</LatitudeDegrees>
              <LongitudeDegrees>-1.98706216178834438323974609375</LongitudeDegrees>
            </Position>
            <AltitudeMeters>14.3999996185302734375</AltitudeMeters>
            <DistanceMeters>NAN</DistanceMeters>
          </Trackpoint>
          <Trackpoint>
            <Time>2022-07-09T14:29:01.000Z</Time>
            <Position>
              <LatitudeDegrees>43.316448144614696502685546875</LatitudeDegrees>
              <LongitudeDegrees>-1.98707389645278453826904296875</LongitudeDegrees>
            </Position>
            <AltitudeMeters>14.3999996185302734375</AltitudeMeters>
            <DistanceMeters>NAN</DistanceMeters>
          </Trackpoint>
          <Trackpoint>
            <Time>2022-07-09T14:29:03.000Z</Time>
            <Position>
              <LatitudeDegrees>43.316450826823711395263671875</LatitudeDegrees>
              <LongitudeDegrees>-1.98709451593458652496337890625</LongitudeDegrees>
            </Position>
            <AltitudeMeters>14.3999996185302734375</AltitudeMeters>
            <DistanceMeters>NAN</DistanceMeters>
          </Trackpoint>
          <Trackpoint>
            <Time>2022-07-09T14:29:04.000Z</Time>
            <Position>
              <LatitudeDegrees>43.31644068472087383270263671875</LatitudeDegrees>
              <LongitudeDegrees>-1.9870959408581256866455078125</LongitudeDegrees>
            </Position>
            <AltitudeMeters>14.3999996185302734375</AltitudeMeters>
            <DistanceMeters>NAN</DistanceMeters>
          </Trackpoint>
          <Trackpoint>
            <Time>2022-07-09T14:29:08.000Z</Time>
            <Position>
              <LatitudeDegrees>43.31640011630952358245849609375</LatitudeDegrees>
              <LongitudeDegrees>-1.98713391087949275970458984375</LongitudeDegrees>
            </Position>
            <AltitudeMeters>14.3999996185302734375</AltitudeMeters>
            <DistanceMeters>NAN</DistanceMeters>
          </Trackpoint>
          <Trackpoint>
            <Time>2022-07-09T14:29:12.000Z</Time>
            <Position>
              <LatitudeDegrees>43.3163738809525966644287109375</LatitudeDegrees>
              <LongitudeDegrees>-1.9871472381055355072021484375</LongitudeDegrees>
            </Position>
            <AltitudeMeters>14.3999996185302734375</AltitudeMeters>
            <DistanceMeters>NAN</DistanceMeters>
          </Trackpoint>
          <Trackpoint>
            <Time>2022-07-09T14:29:13.000Z</Time>
            <Position>
              <LatitudeDegrees>43.31639952957630157470703125</LatitudeDegrees>
              <LongitudeDegrees>-1.98715100996196269989013671875</LongitudeDegrees>
            </Position>
            <AltitudeMeters>14.3999996185302734375</AltitudeMeters>
            <DistanceMeters>NAN</DistanceMeters>
          </Trackpoint>
          <Trackpoint>
            <Time>2022-07-09T14:29:15.000Z</Time>
            <Position>
              <LatitudeDegrees>43.31639374606311321258544921875</LatitudeDegrees>
              <LongitudeDegrees>-1.98715251870453357696533203125</LongitudeDegrees>
            </Position>
            <AltitudeMeters>14.3999996185302734375</AltitudeMeters>
            <DistanceMeters>NAN</DistanceMeters>
          </Trackpoint>
          <Trackpoint>
            <Time>2022-07-09T14:29:19.000Z</Time>
            <Position>
              <LatitudeDegrees>43.3164281956851482391357421875</LatitudeDegrees>
              <LongitudeDegrees>-1.98714883066713809967041015625</LongitudeDegrees>
            </Position>
            <AltitudeMeters>14.3999996185302734375</AltitudeMeters>
            <DistanceMeters>NAN</DistanceMeters>
          </Trackpoint>
          <Trackpoint>
            <Time>2022-07-09T14:29:21.000Z</Time>
            <Position>
              <LatitudeDegrees>43.31641000695526599884033203125</LatitudeDegrees>
              <LongitudeDegrees>-1.98715235106647014617919921875</LongitudeDegrees>
            </Position>
            <AltitudeMeters>14.3999996185302734375</AltitudeMeters>
            <DistanceMeters>NAN</DistanceMeters>
          </Trackpoint>
          <Trackpoint>
            <Time>2022-07-09T14:29:23.000Z</Time>
            <Position>
              <LatitudeDegrees>43.31639609299600124359130859375</LatitudeDegrees>
              <LongitudeDegrees>-1.98715679347515106201171875</LongitudeDegrees>
            </Position>
            <AltitudeMeters>14.3999996185302734375</AltitudeMeters>
            <DistanceMeters>NAN</DistanceMeters>
          </Trackpoint>
          <Trackpoint>
            <Time>2022-07-09T14:29:26.000Z</Time>
            <Position>
              <LatitudeDegrees>43.31640112213790416717529296875</LatitudeDegrees>
              <LongitudeDegrees>-1.9871794246137142181396484375</LongitudeDegrees>
            </Position>
            <AltitudeMeters>14.3999996185302734375</AltitudeMeters>
            <DistanceMeters>NAN</DistanceMeters>
          </Trackpoint>
          <Trackpoint>
            <Time>2022-07-09T14:35:53.000Z</Time>
            <Position>
              <LatitudeDegrees>43.3164999447762966156005859375</LatitudeDegrees>
              <LongitudeDegrees>-1.98726500384509563446044921875</LongitudeDegrees>
            </Position>
            <AltitudeMeters>14.6000003814697265625</AltitudeMeters>
            <DistanceMeters>NAN</DistanceMeters>
          </Trackpoint>
          <Trackpoint>
            <Time>2022-07-09T14:35:57.000Z</Time>
            <Position>
              <LatitudeDegrees>43.316487036645412445068359375</LatitudeDegrees>
              <LongitudeDegrees>-1.9872484914958477020263671875</LongitudeDegrees>
            </Position>
            <AltitudeMeters>14.6000003814697265625</AltitudeMeters>
            <DistanceMeters>NAN</DistanceMeters>
          </Trackpoint>
          <Trackpoint>
            <Time>2022-07-09T14:36:03.000Z</Time>
            <Position>
              <LatitudeDegrees>43.3164986036717891693115234375</LatitudeDegrees>
              <LongitudeDegrees>-1.987271122634410858154296875</LongitudeDegrees>
            </Position>
            <AltitudeMeters>14.80000019073486328125</AltitudeMeters>
            <DistanceMeters>NAN</DistanceMeters>
          </Trackpoint>
          <Trackpoint>
            <Time>2022-07-09T14:36:08.000Z</Time>
            <Position>
              <LatitudeDegrees>43.316504471004009246826171875</LatitudeDegrees>
              <LongitudeDegrees>-1.98727623559534549713134765625</LongitudeDegrees>
            </Position>
            <AltitudeMeters>14.6000003814697265625</AltitudeMeters>
            <DistanceMeters>NAN</DistanceMeters>
          </Trackpoint>
          <Trackpoint>
            <Time>2022-07-09T14:36:12.000Z</Time>
            <Position>
              <LatitudeDegrees>43.31649131141602993011474609375</LatitudeDegrees>
              <LongitudeDegrees>-1.9872411154210567474365234375</LongitudeDegrees>
            </Position>
            <AltitudeMeters>14.6000003814697265625</AltitudeMeters>
            <DistanceMeters>NAN</DistanceMeters>
          </Trackpoint>
          <Trackpoint>
            <Time>2022-07-09T14:36:15.000Z</Time>
            <Position>
              <LatitudeDegrees>43.31646013073623180389404296875</LatitudeDegrees>
              <LongitudeDegrees>-1.98717347346246242523193359375</LongitudeDegrees>
            </Position>
            <AltitudeMeters>14.6000003814697265625</AltitudeMeters>
            <DistanceMeters>NAN</DistanceMeters>
          </Trackpoint>
          <Trackpoint>
            <Time>2022-07-09T14:36:17.000Z</Time>
            <Position>
              <LatitudeDegrees>43.3164506591856479644775390625</LatitudeDegrees>
              <LongitudeDegrees>-1.9871251098811626434326171875</LongitudeDegrees>
            </Position>
            <AltitudeMeters>14.6000003814697265625</AltitudeMeters>
            <DistanceMeters>NAN</DistanceMeters>
          </Trackpoint>
          <Trackpoint>
            <Time>2022-07-09T14:36:23.000Z</Time>
            <Position>
              <LatitudeDegrees>43.31642174161970615386962890625</LatitudeDegrees>
              <LongitudeDegrees>-1.98718554340302944183349609375</LongitudeDegrees>
            </Position>
            <AltitudeMeters>14.6000003814697265625</AltitudeMeters>
            <DistanceMeters>NAN</DistanceMeters>
          </Trackpoint>
          <Trackpoint>
            <Time>2022-07-09T14:36:24.000Z</Time>
            <Position>
              <LatitudeDegrees>43.3164243400096893310546875</LatitudeDegrees>
              <LongitudeDegrees>-1.9871576316654682159423828125</LongitudeDegrees>
            </Position>
            <AltitudeMeters>14.6000003814697265625</AltitudeMeters>
            <DistanceMeters>NAN</DistanceMeters>
          </Trackpoint>
          <Trackpoint>
            <Time>2022-07-09T14:36:28.000Z</Time>
            <Position>
              <LatitudeDegrees>43.3164308778941631317138671875</LatitudeDegrees>
              <LongitudeDegrees>-1.98706568218767642974853515625</LongitudeDegrees>
            </Position>
            <AltitudeMeters>14.6000003814697265625</AltitudeMeters>
            <DistanceMeters>NAN</DistanceMeters>
          </Trackpoint>
          <Trackpoint>
            <Time>2022-07-09T14:36:33.000Z</Time>
            <Position>
              <LatitudeDegrees>43.3164332248270511627197265625</LatitudeDegrees>
              <LongitudeDegrees>-1.9870662689208984375</LongitudeDegrees>
            </Position>
            <AltitudeMeters>14.80000019073486328125</AltitudeMeters>
            <DistanceMeters>NAN</DistanceMeters>
          </Trackpoint>
          <Trackpoint>
            <Time>2022-07-09T14:36:40.000Z</Time>
            <Position>
              <LatitudeDegrees>43.31648460589349269866943359375</LatitudeDegrees>
              <LongitudeDegrees>-1.98706316761672496795654296875</LongitudeDegrees>
            </Position>
            <AltitudeMeters>14.80000019073486328125</AltitudeMeters>
            <DistanceMeters>NAN</DistanceMeters>
          </Trackpoint>
          <Trackpoint>
            <Time>2022-07-09T14:36:42.000Z</Time>
            <Position>
              <LatitudeDegrees>43.31649449653923511505126953125</LatitudeDegrees>
              <LongitudeDegrees>-1.987010948359966278076171875</LongitudeDegrees>
            </Position>
            <AltitudeMeters>14.80000019073486328125</AltitudeMeters>
            <DistanceMeters>NAN</DistanceMeters>
          </Trackpoint>
          <Trackpoint>
            <Time>2022-07-09T14:36:45.000Z</Time>
            <Position>
              <LatitudeDegrees>43.3165039680898189544677734375</LatitudeDegrees>
              <LongitudeDegrees>-1.98698068968951702117919921875</LongitudeDegrees>
            </Position>
            <AltitudeMeters>14.80000019073486328125</AltitudeMeters>
            <DistanceMeters>NAN</DistanceMeters>
          </Trackpoint>
          <Trackpoint>
            <Time>2022-07-09T14:36:51.000Z</Time>
            <Position>
              <LatitudeDegrees>43.31645946018397808074951171875</LatitudeDegrees>
              <LongitudeDegrees>-1.98705478571355342864990234375</LongitudeDegrees>
            </Position>
            <AltitudeMeters>14.6000003814697265625</AltitudeMeters>
            <DistanceMeters>NAN</DistanceMeters>
          </Trackpoint>
          <Trackpoint>
            <Time>2022-07-09T14:36:52.000Z</Time>
            <Position>
              <LatitudeDegrees>43.31646348349750041961669921875</LatitudeDegrees>
              <LongitudeDegrees>-1.98708294890820980072021484375</LongitudeDegrees>
            </Position>
            <AltitudeMeters>14.6000003814697265625</AltitudeMeters>
            <DistanceMeters>NAN</DistanceMeters>
          </Trackpoint>
          <Trackpoint>
            <Time>2022-07-09T14:37:07.000Z</Time>
            <Position>
              <LatitudeDegrees>43.316487707197666168212890625</LatitudeDegrees>
              <LongitudeDegrees>-1.987525261938571929931640625</LongitudeDegrees>
            </Position>
            <AltitudeMeters>14.6000003814697265625</AltitudeMeters>
            <DistanceMeters>NAN</DistanceMeters>
          </Trackpoint>
          <Trackpoint>
            <Time>2022-07-09T14:37:08.000Z</Time>
            <Position>
              <LatitudeDegrees>43.3164888806641101837158203125</LatitudeDegrees>
              <LongitudeDegrees>-1.98752165772020816802978515625</LongitudeDegrees>
            </Position>
            <AltitudeMeters>14.6000003814697265625</AltitudeMeters>
            <DistanceMeters>NAN</DistanceMeters>
          </Trackpoint>
          <Trackpoint>
            <Time>2022-07-09T14:37:10.000Z</Time>
            <Position>
              <LatitudeDegrees>43.31648929975926876068115234375</LatitudeDegrees>
              <LongitudeDegrees>-1.987508833408355712890625</LongitudeDegrees>
            </Position>
            <AltitudeMeters>14.6000003814697265625</AltitudeMeters>
            <DistanceMeters>NAN</DistanceMeters>
          </Trackpoint>
          <Trackpoint>
            <Time>2022-07-09T14:37:12.000Z</Time>
            <Position>
              <LatitudeDegrees>43.31644386984407901763916015625</LatitudeDegrees>
              <LongitudeDegrees>-1.9875830970704555511474609375</LongitudeDegrees>
            </Position>
            <AltitudeMeters>14.6000003814697265625</AltitudeMeters>
            <DistanceMeters>NAN</DistanceMeters>
          </Trackpoint>
          <Trackpoint>
            <Time>2022-07-09T14:37:14.000Z</Time>
            <Position>
              <LatitudeDegrees>43.31641889177262783050537109375</LatitudeDegrees>
              <LongitudeDegrees>-1.987603046000003814697265625</LongitudeDegrees>
            </Position>
            <AltitudeMeters>14.6000003814697265625</AltitudeMeters>
            <DistanceMeters>NAN</DistanceMeters>
          </Trackpoint>
          <Trackpoint>
            <Time>2022-07-09T14:37:16.000Z</Time>
            <Position>
              <LatitudeDegrees>43.316433727741241455078125</LatitudeDegrees>
              <LongitudeDegrees>-1.987484358251094818115234375</LongitudeDegrees>
            </Position>
            <AltitudeMeters>14.6000003814697265625</AltitudeMeters>
            <DistanceMeters>NAN</DistanceMeters>
          </Trackpoint>
          <Trackpoint>
            <Time>2022-07-09T14:37:17.000Z</Time>
            <Position>
              <LatitudeDegrees>43.31642978824675083160400390625</LatitudeDegrees>
              <LongitudeDegrees>-1.98743440210819244384765625</LongitudeDegrees>
            </Position>
            <AltitudeMeters>14.6000003814697265625</AltitudeMeters>
            <DistanceMeters>NAN</DistanceMeters>
          </Trackpoint>
          <Trackpoint>
            <Time>2022-07-09T14:37:23.000Z</Time>
            <Position>
              <LatitudeDegrees>43.31644512712955474853515625</LatitudeDegrees>
              <LongitudeDegrees>-1.9873504154384136199951171875</LongitudeDegrees>
            </Position>
            <AltitudeMeters>14.6000003814697265625</AltitudeMeters>
            <DistanceMeters>NAN</DistanceMeters>
          </Trackpoint>
          <Trackpoint>
            <Time>2022-07-09T14:41:45.000Z</Time>
            <Position>
              <LatitudeDegrees>43.3163839392364025115966796875</LatitudeDegrees>
              <LongitudeDegrees>-1.9871723838150501251220703125</LongitudeDegrees>
            </Position>
            <AltitudeMeters>14.3999996185302734375</AltitudeMeters>
            <DistanceMeters>NAN</DistanceMeters>
          </Trackpoint>
          <Trackpoint>
            <Time>2022-07-09T14:42:03.000Z</Time>
            <Position>
              <LatitudeDegrees>43.31650204025208950042724609375</LatitudeDegrees>
              <LongitudeDegrees>-1.9869081862270832061767578125</LongitudeDegrees>
            </Position>
            <AltitudeMeters>14.80000019073486328125</AltitudeMeters>
            <DistanceMeters>NAN</DistanceMeters>
          </Trackpoint>
          <Trackpoint>
            <Time>2022-07-09T14:42:09.000Z</Time>
            <Position>
              <LatitudeDegrees>43.31648326478898525238037109375</LatitudeDegrees>
              <LongitudeDegrees>-1.98714765720069408416748046875</LongitudeDegrees>
            </Position>
            <AltitudeMeters>14.80000019073486328125</AltitudeMeters>
            <DistanceMeters>NAN</DistanceMeters>
          </Trackpoint>
          <Trackpoint>
            <Time>2022-07-09T14:42:12.000Z</Time>
            <Position>
              <LatitudeDegrees>43.3164939098060131072998046875</LatitudeDegrees>
              <LongitudeDegrees>-1.9871888123452663421630859375</LongitudeDegrees>
            </Position>
            <AltitudeMeters>14.80000019073486328125</AltitudeMeters>
            <DistanceMeters>NAN</DistanceMeters>
          </Trackpoint>
          <Trackpoint>
            <Time>2022-07-09T14:42:14.000Z</Time>
            <Position>
              <LatitudeDegrees>43.31646733917295932769775390625</LatitudeDegrees>
              <LongitudeDegrees>-1.9872991181910037994384765625</LongitudeDegrees>
            </Position>
            <AltitudeMeters>14.80000019073486328125</AltitudeMeters>
            <DistanceMeters>NAN</DistanceMeters>
          </Trackpoint>
          <Trackpoint>
            <Time>2022-07-09T14:42:18.000Z</Time>
            <Position>
              <LatitudeDegrees>43.31646817736327648162841796875</LatitudeDegrees>
              <LongitudeDegrees>-1.98740498162806034088134765625</LongitudeDegrees>
            </Position>
            <AltitudeMeters>14.80000019073486328125</AltitudeMeters>
            <DistanceMeters>NAN</DistanceMeters>
          </Trackpoint>
          <Trackpoint>
            <Time>2022-07-09T14:42:19.000Z</Time>
            <Position>
              <LatitudeDegrees>43.3164788223803043365478515625</LatitudeDegrees>
              <LongitudeDegrees>-1.987327449023723602294921875</LongitudeDegrees>
            </Position>
            <AltitudeMeters>13.80000019073486328125</AltitudeMeters>
            <DistanceMeters>NAN</DistanceMeters>
          </Trackpoint>
          <Trackpoint>
            <Time>2022-07-09T14:42:20.000Z</Time>
            <Position>
              <LatitudeDegrees>43.31649231724441051483154296875</LatitudeDegrees>
              <LongitudeDegrees>-1.987205408513545989990234375</LongitudeDegrees>
            </Position>
            <AltitudeMeters>13.80000019073486328125</AltitudeMeters>
            <DistanceMeters>NAN</DistanceMeters>
          </Trackpoint>
          <Trackpoint>
            <Time>2022-07-09T14:42:21.000Z</Time>
            <Position>
              <LatitudeDegrees>43.31651151180267333984375</LatitudeDegrees>
              <LongitudeDegrees>-1.98710993863642215728759765625</LongitudeDegrees>
            </Position>
            <AltitudeMeters>13.80000019073486328125</AltitudeMeters>
            <DistanceMeters>NAN</DistanceMeters>
          </Trackpoint>
          <Trackpoint>
            <Time>2022-07-09T14:42:26.000Z</Time>
            <Position>
              <LatitudeDegrees>43.316491059958934783935546875</LatitudeDegrees>
              <LongitudeDegrees>-1.986984126269817352294921875</LongitudeDegrees>
            </Position>
            <AltitudeMeters>14</AltitudeMeters>
            <DistanceMeters>NAN</DistanceMeters>
          </Trackpoint>
          <Trackpoint>
            <Time>2022-07-09T14:42:29.000Z</Time>
            <Position>
              <LatitudeDegrees>43.3164493180811405181884765625</LatitudeDegrees>
              <LongitudeDegrees>-1.987051181495189666748046875</LongitudeDegrees>
            </Position>
            <AltitudeMeters>14</AltitudeMeters>
            <DistanceMeters>NAN</DistanceMeters>
          </Trackpoint>
          <Trackpoint>
            <Time>2022-07-09T14:42:35.000Z</Time>
            <Position>
              <LatitudeDegrees>43.3164587058126926422119140625</LatitudeDegrees>
              <LongitudeDegrees>-1.986972391605377197265625</LongitudeDegrees>
            </Position>
            <AltitudeMeters>13.80000019073486328125</AltitudeMeters>
            <DistanceMeters>NAN</DistanceMeters>
          </Trackpoint>
          <Trackpoint>
            <Time>2022-07-09T14:42:42.000Z</Time>
            <Position>
              <LatitudeDegrees>43.31642576493322849273681640625</LatitudeDegrees>
              <LongitudeDegrees>-1.987088061869144439697265625</LongitudeDegrees>
            </Position>
            <AltitudeMeters>13.80000019073486328125</AltitudeMeters>
            <DistanceMeters>NAN</DistanceMeters>
          </Trackpoint>
          <Trackpoint>
            <Time>2022-07-09T14:42:48.000Z</Time>
            <Position>
              <LatitudeDegrees>43.31642501056194305419921875</LatitudeDegrees>
              <LongitudeDegrees>-1.9872152991592884063720703125</LongitudeDegrees>
            </Position>
            <AltitudeMeters>13.80000019073486328125</AltitudeMeters>
            <DistanceMeters>NAN</DistanceMeters>
          </Trackpoint>
          <Trackpoint>
            <Time>2022-07-09T14:42:49.000Z</Time>
            <Position>
              <LatitudeDegrees>43.31643565557897090911865234375</LatitudeDegrees>
              <LongitudeDegrees>-1.9872015528380870819091796875</LongitudeDegrees>
            </Position>
            <AltitudeMeters>13.80000019073486328125</AltitudeMeters>
            <DistanceMeters>NAN</DistanceMeters>
          </Trackpoint>
          <Trackpoint>
            <Time>2022-07-09T14:42:50.000Z</Time>
            <Position>
              <LatitudeDegrees>43.31645392812788486480712890625</LatitudeDegrees>
              <LongitudeDegrees>-1.9872193224728107452392578125</LongitudeDegrees>
            </Position>
            <AltitudeMeters>13.80000019073486328125</AltitudeMeters>
            <DistanceMeters>NAN</DistanceMeters>
          </Trackpoint>
          <Trackpoint>
            <Time>2022-07-09T14:42:52.000Z</Time>
            <Position>
              <LatitudeDegrees>43.316466249525547027587890625</LatitudeDegrees>
              <LongitudeDegrees>-1.987279169261455535888671875</LongitudeDegrees>
            </Position>
            <AltitudeMeters>13.80000019073486328125</AltitudeMeters>
            <DistanceMeters>NAN</DistanceMeters>
          </Trackpoint>
          <Trackpoint>
            <Time>2022-07-09T14:42:58.000Z</Time>
            <Position>
              <LatitudeDegrees>43.31652157008647918701171875</LatitudeDegrees>
              <LongitudeDegrees>-1.9874724559485912322998046875</LongitudeDegrees>
            </Position>
            <AltitudeMeters>13.80000019073486328125</AltitudeMeters>
            <DistanceMeters>NAN</DistanceMeters>
          </Trackpoint>
          <Trackpoint>
            <Time>2022-07-09T14:43:05.000Z</Time>
            <Position>
              <LatitudeDegrees>43.3164372481405735015869140625</LatitudeDegrees>
              <LongitudeDegrees>-1.9875931553542613983154296875</LongitudeDegrees>
            </Position>
            <AltitudeMeters>13.80000019073486328125</AltitudeMeters>
            <DistanceMeters>NAN</DistanceMeters>
          </Trackpoint>
          <Trackpoint>
            <Time>2022-07-09T14:43:10.000Z</Time>
            <Position>
              <LatitudeDegrees>43.3164556883275508880615234375</LatitudeDegrees>
              <LongitudeDegrees>-1.9876779802143573760986328125</LongitudeDegrees>
            </Position>
            <AltitudeMeters>13.80000019073486328125</AltitudeMeters>
            <DistanceMeters>NAN</DistanceMeters>
          </Trackpoint>
          <Trackpoint>
            <Time>2022-07-09T14:43:13.000Z</Time>
            <Position>
              <LatitudeDegrees>43.31645719707012176513671875</LatitudeDegrees>
              <LongitudeDegrees>-1.9876903854310512542724609375</LongitudeDegrees>
            </Position>
            <AltitudeMeters>13.80000019073486328125</AltitudeMeters>
            <DistanceMeters>NAN</DistanceMeters>
          </Trackpoint>
          <Trackpoint>
            <Time>2022-07-09T14:43:14.000Z</Time>
            <Position>
              <LatitudeDegrees>43.316415958106517791748046875</LatitudeDegrees>
              <LongitudeDegrees>-1.98775182478129863739013671875</LongitudeDegrees>
            </Position>
            <AltitudeMeters>13.80000019073486328125</AltitudeMeters>
            <DistanceMeters>NAN</DistanceMeters>
          </Trackpoint>
          <Trackpoint>
            <Time>2022-07-09T14:43:21.000Z</Time>
            <Position>
              <LatitudeDegrees>43.3163363300263881683349609375</LatitudeDegrees>
              <LongitudeDegrees>-1.98774629272520542144775390625</LongitudeDegrees>
            </Position>
            <AltitudeMeters>13.80000019073486328125</AltitudeMeters>
            <DistanceMeters>NAN</DistanceMeters>
          </Trackpoint>
          <Trackpoint>
            <Time>2022-07-09T14:43:22.000Z</Time>
            <Position>
              <LatitudeDegrees>43.31635502167046070098876953125</LatitudeDegrees>
              <LongitudeDegrees>-1.98767772875726222991943359375</LongitudeDegrees>
            </Position>
            <AltitudeMeters>13.80000019073486328125</AltitudeMeters>
            <DistanceMeters>NAN</DistanceMeters>
          </Trackpoint>
          <Trackpoint>
            <Time>2022-07-09T14:43:30.000Z</Time>
            <Position>
              <LatitudeDegrees>43.3164509944617748260498046875</LatitudeDegrees>
              <LongitudeDegrees>-1.98733490891754627227783203125</LongitudeDegrees>
            </Position>
            <AltitudeMeters>13.80000019073486328125</AltitudeMeters>
            <DistanceMeters>NAN</DistanceMeters>
          </Trackpoint>
          <Trackpoint>
            <Time>2022-07-09T14:43:38.000Z</Time>
            <Position>
              <LatitudeDegrees>43.3165234141051769256591796875</LatitudeDegrees>
              <LongitudeDegrees>-1.98732870630919933319091796875</LongitudeDegrees>
            </Position>
            <AltitudeMeters>13.80000019073486328125</AltitudeMeters>
            <DistanceMeters>NAN</DistanceMeters>
          </Trackpoint>
          <Trackpoint>
            <Time>2022-07-09T14:43:40.000Z</Time>
            <Position>
              <LatitudeDegrees>43.31638611853122711181640625</LatitudeDegrees>
              <LongitudeDegrees>-1.98759189806878566741943359375</LongitudeDegrees>
            </Position>
            <AltitudeMeters>13.80000019073486328125</AltitudeMeters>
            <DistanceMeters>NAN</DistanceMeters>
          </Trackpoint>
          <Trackpoint>
            <Time>2022-07-09T14:43:44.000Z</Time>
            <Position>
              <LatitudeDegrees>43.31645728088915348052978515625</LatitudeDegrees>
              <LongitudeDegrees>-1.98736323975026607513427734375</LongitudeDegrees>
            </Position>
            <AltitudeMeters>13.80000019073486328125</AltitudeMeters>
            <DistanceMeters>NAN</DistanceMeters>
          </Trackpoint>
          <Trackpoint>
            <Time>2022-07-09T14:43:46.000Z</Time>
            <Position>
              <LatitudeDegrees>43.3164758048951625823974609375</LatitudeDegrees>
              <LongitudeDegrees>-1.987338848412036895751953125</LongitudeDegrees>
            </Position>
            <AltitudeMeters>13.80000019073486328125</AltitudeMeters>
            <DistanceMeters>NAN</DistanceMeters>
          </Trackpoint>
          <Trackpoint>
            <Time>2022-07-09T14:43:47.000Z</Time>
            <Position>
              <LatitudeDegrees>43.316446803510189056396484375</LatitudeDegrees>
              <LongitudeDegrees>-1.9873856194317340850830078125</LongitudeDegrees>
            </Position>
            <AltitudeMeters>13.80000019073486328125</AltitudeMeters>
            <DistanceMeters>NAN</DistanceMeters>
          </Trackpoint>
          <Trackpoint>
            <Time>2022-07-09T14:43:49.000Z</Time>
            <Position>
              <LatitudeDegrees>43.3164077438414096832275390625</LatitudeDegrees>
              <LongitudeDegrees>-1.98750011622905731201171875</LongitudeDegrees>
            </Position>
            <AltitudeMeters>14</AltitudeMeters>
            <DistanceMeters>NAN</DistanceMeters>
          </Trackpoint>
          <Trackpoint>
            <Time>2022-07-09T14:43:50.000Z</Time>
            <Position>
              <LatitudeDegrees>43.31639550626277923583984375</LatitudeDegrees>
              <LongitudeDegrees>-1.9875090010464191436767578125</LongitudeDegrees>
            </Position>
            <AltitudeMeters>14</AltitudeMeters>
            <DistanceMeters>NAN</DistanceMeters>
          </Trackpoint>
          <Trackpoint>
            <Time>2022-07-09T14:43:53.000Z</Time>
            <Position>
              <LatitudeDegrees>43.31640497781336307525634765625</LatitudeDegrees>
              <LongitudeDegrees>-1.98742694221436977386474609375</LongitudeDegrees>
            </Position>
            <AltitudeMeters>14</AltitudeMeters>
            <DistanceMeters>NAN</DistanceMeters>
          </Trackpoint>
          <Trackpoint>
            <Time>2022-07-09T14:43:59.000Z</Time>
            <Position>
              <LatitudeDegrees>43.3164136111736297607421875</LatitudeDegrees>
              <LongitudeDegrees>-1.98703902773559093475341796875</LongitudeDegrees>
            </Position>
            <AltitudeMeters>14</AltitudeMeters>
            <DistanceMeters>NAN</DistanceMeters>
          </Trackpoint>
          <Trackpoint>
            <Time>2022-07-09T14:44:00.000Z</Time>
            <Position>
              <LatitudeDegrees>43.31643532030284404754638671875</LatitudeDegrees>
              <LongitudeDegrees>-1.98700834996998310089111328125</LongitudeDegrees>
            </Position>
            <AltitudeMeters>14</AltitudeMeters>
            <DistanceMeters>NAN</DistanceMeters>
          </Trackpoint>
          <Trackpoint>
            <Time>2022-07-09T14:44:02.000Z</Time>
            <Position>
              <LatitudeDegrees>43.31642325036227703094482421875</LatitudeDegrees>
              <LongitudeDegrees>-1.98697037994861602783203125</LongitudeDegrees>
            </Position>
            <AltitudeMeters>14</AltitudeMeters>
            <DistanceMeters>NAN</DistanceMeters>
          </Trackpoint>
          <Trackpoint>
            <Time>2022-07-09T14:44:03.000Z</Time>
            <Position>
              <LatitudeDegrees>43.316428698599338531494140625</LatitudeDegrees>
              <LongitudeDegrees>-1.98696912266314029693603515625</LongitudeDegrees>
            </Position>
            <AltitudeMeters>14</AltitudeMeters>
            <DistanceMeters>NAN</DistanceMeters>
          </Trackpoint>
          <Trackpoint>
            <Time>2022-07-09T14:44:08.000Z</Time>
            <Position>
              <LatitudeDegrees>43.316457532346248626708984375</LatitudeDegrees>
              <LongitudeDegrees>-1.987023018300533294677734375</LongitudeDegrees>
            </Position>
            <AltitudeMeters>14</AltitudeMeters>
            <DistanceMeters>NAN</DistanceMeters>
          </Trackpoint>
          <Trackpoint>
            <Time>2022-07-09T14:44:11.000Z</Time>
            <Position>
              <LatitudeDegrees>43.316491059958934783935546875</LatitudeDegrees>
              <LongitudeDegrees>-1.98685504496097564697265625</LongitudeDegrees>
            </Position>
            <AltitudeMeters>14</AltitudeMeters>
            <DistanceMeters>NAN</DistanceMeters>
          </Trackpoint>
          <Trackpoint>
            <Time>2022-07-09T14:44:12.000Z</Time>
            <Position>
              <LatitudeDegrees>43.31649516709148883819580078125</LatitudeDegrees>
              <LongitudeDegrees>-1.986834593117237091064453125</LongitudeDegrees>
            </Position>
            <AltitudeMeters>14</AltitudeMeters>
            <DistanceMeters>NAN</DistanceMeters>
          </Trackpoint>
          <Trackpoint>
            <Time>2022-07-09T14:44:15.000Z</Time>
            <Position>
              <LatitudeDegrees>43.31651486456394195556640625</LatitudeDegrees>
              <LongitudeDegrees>-1.98672168888151645660400390625</LongitudeDegrees>
            </Position>
            <AltitudeMeters>14</AltitudeMeters>
            <DistanceMeters>NAN</DistanceMeters>
          </Trackpoint>
          <Trackpoint>
            <Time>2022-07-09T14:44:16.000Z</Time>
            <Position>
              <LatitudeDegrees>43.31652433611452579498291015625</LatitudeDegrees>
              <LongitudeDegrees>-1.986699812114238739013671875</LongitudeDegrees>
            </Position>
            <AltitudeMeters>14</AltitudeMeters>
            <DistanceMeters>NAN</DistanceMeters>
          </Trackpoint>
          <Trackpoint>
            <Time>2022-07-09T14:44:18.000Z</Time>
            <Position>
              <LatitudeDegrees>43.316485695540904998779296875</LatitudeDegrees>
              <LongitudeDegrees>-1.9867479242384433746337890625</LongitudeDegrees>
            </Position>
            <AltitudeMeters>14</AltitudeMeters>
            <DistanceMeters>NAN</DistanceMeters>
          </Trackpoint>
          <Trackpoint>
            <Time>2022-07-09T14:44:19.000Z</Time>
            <Position>
              <LatitudeDegrees>43.31640078686177730560302734375</LatitudeDegrees>
              <LongitudeDegrees>-1.9867459125816822052001953125</LongitudeDegrees>
            </Position>
            <AltitudeMeters>14</AltitudeMeters>
            <DistanceMeters>NAN</DistanceMeters>
          </Trackpoint>
          <Trackpoint>
            <Time>2022-07-09T14:44:21.000Z</Time>
            <Position>
              <LatitudeDegrees>43.3164000324904918670654296875</LatitudeDegrees>
              <LongitudeDegrees>-1.98674415238201618194580078125</LongitudeDegrees>
            </Position>
            <AltitudeMeters>14</AltitudeMeters>
            <DistanceMeters>NAN</DistanceMeters>
          </Trackpoint>
          <Trackpoint>
            <Time>2022-07-09T14:44:23.000Z</Time>
            <Position>
              <LatitudeDegrees>43.3164221607148647308349609375</LatitudeDegrees>
              <LongitudeDegrees>-1.986693441867828369140625</LongitudeDegrees>
            </Position>
            <AltitudeMeters>14</AltitudeMeters>
            <DistanceMeters>NAN</DistanceMeters>
          </Trackpoint>
          <Trackpoint>
            <Time>2022-07-09T14:44:24.000Z</Time>
            <Position>
              <LatitudeDegrees>43.31643364392220973968505859375</LatitudeDegrees>
              <LongitudeDegrees>-1.986712552607059478759765625</LongitudeDegrees>
            </Position>
            <AltitudeMeters>13.80000019073486328125</AltitudeMeters>
            <DistanceMeters>NAN</DistanceMeters>
          </Trackpoint>
          <Trackpoint>
            <Time>2022-07-09T14:44:28.000Z</Time>
            <Position>
              <LatitudeDegrees>43.31647790037095546722412109375</LatitudeDegrees>
              <LongitudeDegrees>-1.98691061697900295257568359375</LongitudeDegrees>
            </Position>
            <AltitudeMeters>13.80000019073486328125</AltitudeMeters>
            <DistanceMeters>NAN</DistanceMeters>
          </Trackpoint>
          <Trackpoint>
            <Time>2022-07-09T14:44:29.000Z</Time>
            <Position>
              <LatitudeDegrees>43.316493071615695953369140625</LatitudeDegrees>
              <LongitudeDegrees>-1.98694732971489429473876953125</LongitudeDegrees>
            </Position>
            <AltitudeMeters>13.80000019073486328125</AltitudeMeters>
            <DistanceMeters>NAN</DistanceMeters>
          </Trackpoint>
          <Trackpoint>
            <Time>2022-07-09T14:44:36.000Z</Time>
            <Position>
              <LatitudeDegrees>43.31646448932588100433349609375</LatitudeDegrees>
              <LongitudeDegrees>-1.98743850924074649810791015625</LongitudeDegrees>
            </Position>
            <AltitudeMeters>14</AltitudeMeters>
            <DistanceMeters>NAN</DistanceMeters>
          </Trackpoint>
          <Trackpoint>
            <Time>2022-07-09T14:44:43.000Z</Time>
            <Position>
              <LatitudeDegrees>43.31647488288581371307373046875</LatitudeDegrees>
              <LongitudeDegrees>-1.987485699355602264404296875</LongitudeDegrees>
            </Position>
            <AltitudeMeters>14</AltitudeMeters>
            <DistanceMeters>NAN</DistanceMeters>
          </Trackpoint>
          <Trackpoint>
            <Time>2022-07-09T14:44:47.000Z</Time>
            <Position>
              <LatitudeDegrees>43.316464908421039581298828125</LatitudeDegrees>
              <LongitudeDegrees>-1.9877229072153568267822265625</LongitudeDegrees>
            </Position>
            <AltitudeMeters>14</AltitudeMeters>
            <DistanceMeters>NAN</DistanceMeters>
          </Trackpoint>
          <Trackpoint>
            <Time>2022-07-09T14:44:51.000Z</Time>
            <Position>
              <LatitudeDegrees>43.3164714463055133819580078125</LatitudeDegrees>
              <LongitudeDegrees>-1.98773422278463840484619140625</LongitudeDegrees>
            </Position>
            <AltitudeMeters>14.19999980926513671875</AltitudeMeters>
            <DistanceMeters>NAN</DistanceMeters>
          </Trackpoint>
          <Trackpoint>
            <Time>2022-07-09T14:45:19.000Z</Time>
            <Position>
              <LatitudeDegrees>43.31653053872287273406982421875</LatitudeDegrees>
              <LongitudeDegrees>-1.9870694540441036224365234375</LongitudeDegrees>
            </Position>
            <AltitudeMeters>14.19999980926513671875</AltitudeMeters>
            <DistanceMeters>NAN</DistanceMeters>
          </Trackpoint>
          <Trackpoint>
            <Time>2022-07-09T14:45:20.000Z</Time>
            <Position>
              <LatitudeDegrees>43.3165509067475795745849609375</LatitudeDegrees>
              <LongitudeDegrees>-1.98710541240870952606201171875</LongitudeDegrees>
            </Position>
            <AltitudeMeters>14.19999980926513671875</AltitudeMeters>
            <DistanceMeters>NAN</DistanceMeters>
          </Trackpoint>
          <Trackpoint>
            <Time>2022-07-09T14:45:21.000Z</Time>
            <Position>
              <LatitudeDegrees>43.3165589533746242523193359375</LatitudeDegrees>
              <LongitudeDegrees>-1.9870992936193943023681640625</LongitudeDegrees>
            </Position>
            <AltitudeMeters>14.19999980926513671875</AltitudeMeters>
            <DistanceMeters>NAN</DistanceMeters>
          </Trackpoint>
          <Trackpoint>
            <Time>2022-07-09T14:45:23.000Z</Time>
            <Position>
              <LatitudeDegrees>43.3165706880390644073486328125</LatitudeDegrees>
              <LongitudeDegrees>-1.98706903494894504547119140625</LongitudeDegrees>
            </Position>
            <AltitudeMeters>14.19999980926513671875</AltitudeMeters>
            <DistanceMeters>NAN</DistanceMeters>
          </Trackpoint>
          <Trackpoint>
            <Time>2022-07-09T14:45:24.000Z</Time>
            <Position>
              <LatitudeDegrees>43.316538669168949127197265625</LatitudeDegrees>
              <LongitudeDegrees>-1.9870848767459392547607421875</LongitudeDegrees>
            </Position>
            <AltitudeMeters>14.19999980926513671875</AltitudeMeters>
            <DistanceMeters>NAN</DistanceMeters>
          </Trackpoint>
          <Trackpoint>
            <Time>2022-07-09T14:45:27.000Z</Time>
            <Position>
              <LatitudeDegrees>43.31645610742270946502685546875</LatitudeDegrees>
              <LongitudeDegrees>-1.98712234385311603546142578125</LongitudeDegrees>
            </Position>
            <AltitudeMeters>14.19999980926513671875</AltitudeMeters>
            <DistanceMeters>NAN</DistanceMeters>
          </Trackpoint>
          <Trackpoint>
            <Time>2022-07-09T14:45:32.000Z</Time>
            <Position>
              <LatitudeDegrees>43.316462896764278411865234375</LatitudeDegrees>
              <LongitudeDegrees>-1.98717682622373104095458984375</LongitudeDegrees>
            </Position>
            <AltitudeMeters>14.19999980926513671875</AltitudeMeters>
            <DistanceMeters>NAN</DistanceMeters>
          </Trackpoint>
          <Trackpoint>
            <Time>2022-07-09T14:45:40.000Z</Time>
            <Position>
              <LatitudeDegrees>43.31654596142470836639404296875</LatitudeDegrees>
              <LongitudeDegrees>-1.98700114153325557708740234375</LongitudeDegrees>
            </Position>
            <AltitudeMeters>14</AltitudeMeters>
            <DistanceMeters>NAN</DistanceMeters>
          </Trackpoint>
          <Trackpoint>
            <Time>2022-07-09T14:45:50.000Z</Time>
            <Position>
              <LatitudeDegrees>43.3164587058126926422119140625</LatitudeDegrees>
              <LongitudeDegrees>-1.987008936703205108642578125</LongitudeDegrees>
            </Position>
            <AltitudeMeters>14</AltitudeMeters>
            <DistanceMeters>NAN</DistanceMeters>
          </Trackpoint>
          <Trackpoint>
            <Time>2022-07-09T14:45:51.000Z</Time>
            <Position>
              <LatitudeDegrees>43.3164335601031780242919921875</LatitudeDegrees>
              <LongitudeDegrees>-1.98712184093892574310302734375</LongitudeDegrees>
            </Position>
            <AltitudeMeters>14</AltitudeMeters>
            <DistanceMeters>NAN</DistanceMeters>
          </Trackpoint>
          <Trackpoint>
            <Time>2022-07-09T14:46:03.000Z</Time>
            <Position>
              <LatitudeDegrees>43.31647153012454509735107421875</LatitudeDegrees>
              <LongitudeDegrees>-1.987273134291172027587890625</LongitudeDegrees>
            </Position>
            <AltitudeMeters>14.19999980926513671875</AltitudeMeters>
            <DistanceMeters>NAN</DistanceMeters>
          </Trackpoint>
          <Trackpoint>
            <Time>2022-07-09T14:46:05.000Z</Time>
            <Position>
              <LatitudeDegrees>43.31647555343806743621826171875</LatitudeDegrees>
              <LongitudeDegrees>-1.98724924586713314056396484375</LongitudeDegrees>
            </Position>
            <AltitudeMeters>14.19999980926513671875</AltitudeMeters>
            <DistanceMeters>NAN</DistanceMeters>
          </Trackpoint>
          <Trackpoint>
            <Time>2022-07-09T14:46:08.000Z</Time>
            <Position>
              <LatitudeDegrees>43.31648192368447780609130859375</LatitudeDegrees>
              <LongitudeDegrees>-1.98720096610486507415771484375</LongitudeDegrees>
            </Position>
            <AltitudeMeters>14.6000003814697265625</AltitudeMeters>
            <DistanceMeters>NAN</DistanceMeters>
          </Trackpoint>
          <Trackpoint>
            <Time>2022-07-09T14:46:10.000Z</Time>
            <Position>
              <LatitudeDegrees>43.316489718854427337646484375</LatitudeDegrees>
              <LongitudeDegrees>-1.9871579669415950775146484375</LongitudeDegrees>
            </Position>
            <AltitudeMeters>14.6000003814697265625</AltitudeMeters>
            <DistanceMeters>NAN</DistanceMeters>
          </Trackpoint>
          <Trackpoint>
            <Time>2022-07-09T14:46:12.000Z</Time>
            <Position>
              <LatitudeDegrees>43.31648997031152248382568359375</LatitudeDegrees>
              <LongitudeDegrees>-1.9871857948601245880126953125</LongitudeDegrees>
            </Position>
            <AltitudeMeters>14.3999996185302734375</AltitudeMeters>
            <DistanceMeters>NAN</DistanceMeters>
          </Trackpoint>
          <Trackpoint>
            <Time>2022-07-09T14:46:38.000Z</Time>
            <Position>
              <LatitudeDegrees>43.31645007245242595672607421875</LatitudeDegrees>
              <LongitudeDegrees>-1.98743331246078014373779296875</LongitudeDegrees>
            </Position>
            <AltitudeMeters>14.3999996185302734375</AltitudeMeters>
            <DistanceMeters>NAN</DistanceMeters>
          </Trackpoint>
          <Trackpoint>
            <Time>2022-07-09T14:46:39.000Z</Time>
            <Position>
              <LatitudeDegrees>43.3164570294320583343505859375</LatitudeDegrees>
              <LongitudeDegrees>-1.987448818981647491455078125</LongitudeDegrees>
            </Position>
            <AltitudeMeters>14.3999996185302734375</AltitudeMeters>
            <DistanceMeters>NAN</DistanceMeters>
          </Trackpoint>
          <Trackpoint>
            <Time>2022-07-09T14:46:40.000Z</Time>
            <Position>
              <LatitudeDegrees>43.31646365113556385040283203125</LatitudeDegrees>
              <LongitudeDegrees>-1.9874486513435840606689453125</LongitudeDegrees>
            </Position>
            <AltitudeMeters>14.3999996185302734375</AltitudeMeters>
            <DistanceMeters>NAN</DistanceMeters>
          </Trackpoint>
          <Trackpoint>
            <Time>2022-07-09T14:46:42.000Z</Time>
            <Position>
              <LatitudeDegrees>43.31647119484841823577880859375</LatitudeDegrees>
              <LongitudeDegrees>-1.98740531690418720245361328125</LongitudeDegrees>
            </Position>
            <AltitudeMeters>14.3999996185302734375</AltitudeMeters>
            <DistanceMeters>NAN</DistanceMeters>
          </Trackpoint>
          <Trackpoint>
            <Time>2022-07-09T14:46:54.000Z</Time>
            <Position>
              <LatitudeDegrees>43.3165418542921543121337890625</LatitudeDegrees>
              <LongitudeDegrees>-1.98732870630919933319091796875</LongitudeDegrees>
            </Position>
            <AltitudeMeters>14.3999996185302734375</AltitudeMeters>
            <DistanceMeters>NAN</DistanceMeters>
          </Trackpoint>
          <Trackpoint>
            <Time>2022-07-09T14:46:59.000Z</Time>
            <Position>
              <LatitudeDegrees>43.31650556065142154693603515625</LatitudeDegrees>
              <LongitudeDegrees>-1.987387798726558685302734375</LongitudeDegrees>
            </Position>
            <AltitudeMeters>14.3999996185302734375</AltitudeMeters>
            <DistanceMeters>NAN</DistanceMeters>
          </Trackpoint>
          <Trackpoint>
            <Time>2022-07-09T14:47:01.000Z</Time>
            <Position>
              <LatitudeDegrees>43.316501788794994354248046875</LatitudeDegrees>
              <LongitudeDegrees>-1.98729936964809894561767578125</LongitudeDegrees>
            </Position>
            <AltitudeMeters>14.3999996185302734375</AltitudeMeters>
            <DistanceMeters>NAN</DistanceMeters>
          </Trackpoint>
          <Trackpoint>
            <Time>2022-07-09T14:47:04.000Z</Time>
            <Position>
              <LatitudeDegrees>43.3165338076651096343994140625</LatitudeDegrees>
              <LongitudeDegrees>-1.98691799305379390716552734375</LongitudeDegrees>
            </Position>
            <AltitudeMeters>14.3999996185302734375</AltitudeMeters>
            <DistanceMeters>NAN</DistanceMeters>
          </Trackpoint>
          <Trackpoint>
            <Time>2022-07-09T14:47:08.000Z</Time>
            <Position>
              <LatitudeDegrees>43.31658636219799518585205078125</LatitudeDegrees>
              <LongitudeDegrees>-1.9868478365242481231689453125</LongitudeDegrees>
            </Position>
            <AltitudeMeters>14.3999996185302734375</AltitudeMeters>
            <DistanceMeters>NAN</DistanceMeters>
          </Trackpoint>
          <Trackpoint>
            <Time>2022-07-09T14:47:27.000Z</Time>
            <Position>
              <LatitudeDegrees>43.31653104163706302642822265625</LatitudeDegrees>
              <LongitudeDegrees>-1.987118236720561981201171875</LongitudeDegrees>
            </Position>
            <AltitudeMeters>14.19999980926513671875</AltitudeMeters>
            <DistanceMeters>NAN</DistanceMeters>
          </Trackpoint>
          <Trackpoint>
            <Time>2022-07-09T14:47:30.000Z</Time>
            <Position>
              <LatitudeDegrees>43.31649801693856716156005859375</LatitudeDegrees>
              <LongitudeDegrees>-1.98719979263842105865478515625</LongitudeDegrees>
            </Position>
            <AltitudeMeters>14.19999980926513671875</AltitudeMeters>
            <DistanceMeters>NAN</DistanceMeters>
          </Trackpoint>
          <Trackpoint>
            <Time>2022-07-09T14:47:41.000Z</Time>
            <Position>
              <LatitudeDegrees>43.31645292229950428009033203125</LatitudeDegrees>
              <LongitudeDegrees>-1.98718772269785404205322265625</LongitudeDegrees>
            </Position>
            <AltitudeMeters>14</AltitudeMeters>
            <DistanceMeters>NAN</DistanceMeters>
          </Trackpoint>
          <Trackpoint>
            <Time>2022-07-09T14:47:43.000Z</Time>
            <Position>
              <LatitudeDegrees>43.3164654113352298736572265625</LatitudeDegrees>
              <LongitudeDegrees>-1.9872491620481014251708984375</LongitudeDegrees>
            </Position>
            <AltitudeMeters>14</AltitudeMeters>
            <DistanceMeters>NAN</DistanceMeters>
          </Trackpoint>
          <Trackpoint>
            <Time>2022-07-09T14:47:44.000Z</Time>
            <Position>
              <LatitudeDegrees>43.31645225174725055694580078125</LatitudeDegrees>
              <LongitudeDegrees>-1.9872692786157131195068359375</LongitudeDegrees>
            </Position>
            <AltitudeMeters>14.19999980926513671875</AltitudeMeters>
            <DistanceMeters>NAN</DistanceMeters>
          </Trackpoint>
          <Trackpoint>
            <Time>2022-07-09T14:49:28.000Z</Time>
            <Position>
              <LatitudeDegrees>43.3163943327963352203369140625</LatitudeDegrees>
              <LongitudeDegrees>-1.98745560832321643829345703125</LongitudeDegrees>
            </Position>
            <AltitudeMeters>12</AltitudeMeters>
            <DistanceMeters>NAN</DistanceMeters>
          </Trackpoint>
          <Trackpoint>
            <Time>2022-07-09T14:49:30.000Z</Time>
            <Position>
              <LatitudeDegrees>43.31639609299600124359130859375</LatitudeDegrees>
              <LongitudeDegrees>-1.987413279712200164794921875</LongitudeDegrees>
            </Position>
            <AltitudeMeters>12</AltitudeMeters>
            <DistanceMeters>NAN</DistanceMeters>
          </Trackpoint>
          <Trackpoint>
            <Time>2022-07-09T14:49:31.000Z</Time>
            <Position>
              <LatitudeDegrees>43.31640078686177730560302734375</LatitudeDegrees>
              <LongitudeDegrees>-1.98740967549383640289306640625</LongitudeDegrees>
            </Position>
            <AltitudeMeters>11.80000019073486328125</AltitudeMeters>
            <DistanceMeters>NAN</DistanceMeters>
          </Trackpoint>
          <Trackpoint>
            <Time>2022-07-09T14:50:15.000Z</Time>
            <Position>
              <LatitudeDegrees>43.31651159562170505523681640625</LatitudeDegrees>
              <LongitudeDegrees>-1.98737028054893016815185546875</LongitudeDegrees>
            </Position>
            <AltitudeMeters>10</AltitudeMeters>
            <DistanceMeters>NAN</DistanceMeters>
          </Trackpoint>
          <Trackpoint>
            <Time>2022-07-09T14:50:16.000Z</Time>
            <Position>
              <LatitudeDegrees>43.31652291119098663330078125</LatitudeDegrees>
              <LongitudeDegrees>-1.9873638264834880828857421875</LongitudeDegrees>
            </Position>
            <AltitudeMeters>10</AltitudeMeters>
            <DistanceMeters>NAN</DistanceMeters>
          </Trackpoint>
          <Trackpoint>
            <Time>2022-07-09T14:50:17.000Z</Time>
            <Position>
              <LatitudeDegrees>43.31652157008647918701171875</LatitudeDegrees>
              <LongitudeDegrees>-1.98737044818699359893798828125</LongitudeDegrees>
            </Position>
            <AltitudeMeters>10</AltitudeMeters>
            <DistanceMeters>NAN</DistanceMeters>
          </Trackpoint>
          <Trackpoint>
            <Time>2022-07-09T14:50:25.000Z</Time>
            <Position>
              <LatitudeDegrees>43.316530287265777587890625</LatitudeDegrees>
              <LongitudeDegrees>-1.98730741627514362335205078125</LongitudeDegrees>
            </Position>
            <AltitudeMeters>9.6000003814697265625</AltitudeMeters>
            <DistanceMeters>NAN</DistanceMeters>
          </Trackpoint>
          <Trackpoint>
            <Time>2022-07-09T14:50:30.000Z</Time>
            <Position>
              <LatitudeDegrees>43.31654411740601062774658203125</LatitudeDegrees>
              <LongitudeDegrees>-1.9872937537729740142822265625</LongitudeDegrees>
            </Position>
            <AltitudeMeters>9.3999996185302734375</AltitudeMeters>
            <DistanceMeters>NAN</DistanceMeters>
          </Trackpoint>
          <Trackpoint>
            <Time>2022-07-09T15:01:44.000Z</Time>
            <Position>
              <LatitudeDegrees>43.31660010851919651031494140625</LatitudeDegrees>
              <LongitudeDegrees>-1.9872890599071979522705078125</LongitudeDegrees>
            </Position>
            <AltitudeMeters>-8</AltitudeMeters>
            <DistanceMeters>NAN</DistanceMeters>
          </Trackpoint>
          <Trackpoint>
            <Time>2022-07-09T15:01:48.000Z</Time>
            <Position>
              <LatitudeDegrees>43.3165716938674449920654296875</LatitudeDegrees>
              <LongitudeDegrees>-1.98728998191654682159423828125</LongitudeDegrees>
            </Position>
            <AltitudeMeters>-8</AltitudeMeters>
            <DistanceMeters>NAN</DistanceMeters>
          </Trackpoint>
          <Trackpoint>
            <Time>2022-07-09T15:01:52.000Z</Time>
            <Position>
              <LatitudeDegrees>43.31658837385475635528564453125</LatitudeDegrees>
              <LongitudeDegrees>-1.98728746734559535980224609375</LongitudeDegrees>
            </Position>
            <AltitudeMeters>-8</AltitudeMeters>
            <DistanceMeters>NAN</DistanceMeters>
          </Trackpoint>
          <Trackpoint>
            <Time>2022-07-09T15:01:54.000Z</Time>
            <Position>
              <LatitudeDegrees>43.31659533083438873291015625</LatitudeDegrees>
              <LongitudeDegrees>-1.98729517869651317596435546875</LongitudeDegrees>
            </Position>
            <AltitudeMeters>-8</AltitudeMeters>
            <DistanceMeters>NAN</DistanceMeters>
          </Trackpoint>
          <Trackpoint>
            <Time>2022-07-09T15:06:48.000Z</Time>
            <Position>
              <LatitudeDegrees>43.3164902217686176300048828125</LatitudeDegrees>
              <LongitudeDegrees>-1.98737665079534053802490234375</LongitudeDegrees>
            </Position>
            <AltitudeMeters>-7.400000095367431640625</AltitudeMeters>
            <DistanceMeters>NAN</DistanceMeters>
          </Trackpoint>
          <Trackpoint>
            <Time>2022-07-09T15:06:49.000Z</Time>
            <Position>
              <LatitudeDegrees>43.316502459347248077392578125</LatitudeDegrees>
              <LongitudeDegrees>-1.98738276958465576171875</LongitudeDegrees>
            </Position>
            <AltitudeMeters>-7</AltitudeMeters>
            <DistanceMeters>NAN</DistanceMeters>
          </Trackpoint>
          <Trackpoint>
            <Time>2022-07-09T15:06:50.000Z</Time>
            <Position>
              <LatitudeDegrees>43.31650975160300731658935546875</LatitudeDegrees>
              <LongitudeDegrees>-1.98739022947847843170166015625</LongitudeDegrees>
            </Position>
            <AltitudeMeters>-6.80000019073486328125</AltitudeMeters>
            <DistanceMeters>NAN</DistanceMeters>
          </Trackpoint>
          <Trackpoint>
            <Time>2022-07-09T15:06:51.000Z</Time>
            <Position>
              <LatitudeDegrees>43.316496424376964569091796875</LatitudeDegrees>
              <LongitudeDegrees>-1.9874050654470920562744140625</LongitudeDegrees>
            </Position>
            <AltitudeMeters>-6.80000019073486328125</AltitudeMeters>
            <DistanceMeters>NAN</DistanceMeters>
          </Trackpoint>
          <Trackpoint>
            <Time>2022-07-09T15:08:01.000Z</Time>
            <Position>
              <LatitudeDegrees>43.31679440103471279144287109375</LatitudeDegrees>
              <LongitudeDegrees>-1.98697130195796489715576171875</LongitudeDegrees>
            </Position>
            <AltitudeMeters>-1</AltitudeMeters>
            <DistanceMeters>NAN</DistanceMeters>
          </Trackpoint>
          <Trackpoint>
            <Time>2022-07-09T15:08:02.000Z</Time>
            <Position>
              <LatitudeDegrees>43.3168053813278675079345703125</LatitudeDegrees>
              <LongitudeDegrees>-1.98697046376764774322509765625</LongitudeDegrees>
            </Position>
            <AltitudeMeters>-0.800000011920928955078125</AltitudeMeters>
            <DistanceMeters>NAN</DistanceMeters>
          </Trackpoint>
          <Trackpoint>
            <Time>2022-07-09T15:08:07.000Z</Time>
            <Position>
              <LatitudeDegrees>43.3168147690594196319580078125</LatitudeDegrees>
              <LongitudeDegrees>-1.98692637495696544647216796875</LongitudeDegrees>
            </Position>
            <AltitudeMeters>0</AltitudeMeters>
            <DistanceMeters>NAN</DistanceMeters>
          </Trackpoint>
          <Trackpoint>
            <Time>2022-07-09T15:08:12.000Z</Time>
            <Position>
              <LatitudeDegrees>43.31684209406375885009765625</LatitudeDegrees>
              <LongitudeDegrees>-1.98686418123543262481689453125</LongitudeDegrees>
            </Position>
            <AltitudeMeters>1.2000000476837158203125</AltitudeMeters>
            <DistanceMeters>NAN</DistanceMeters>
          </Trackpoint>
          <Trackpoint>
            <Time>2022-07-09T15:08:15.000Z</Time>
            <Position>
              <LatitudeDegrees>43.316849134862422943115234375</LatitudeDegrees>
              <LongitudeDegrees>-1.98683735914528369903564453125</LongitudeDegrees>
            </Position>
            <AltitudeMeters>1.60000002384185791015625</AltitudeMeters>
            <DistanceMeters>NAN</DistanceMeters>
          </Trackpoint>
          <Trackpoint>
            <Time>2022-07-09T15:08:17.000Z</Time>
            <Position>
              <LatitudeDegrees>43.316884338855743408203125</LatitudeDegrees>
              <LongitudeDegrees>-1.9868169911205768585205078125</LongitudeDegrees>
            </Position>
            <AltitudeMeters>2</AltitudeMeters>
            <DistanceMeters>NAN</DistanceMeters>
          </Trackpoint>
          <Trackpoint>
            <Time>2022-07-09T15:08:18.000Z</Time>
            <Position>
              <LatitudeDegrees>43.31688727252185344696044921875</LatitudeDegrees>
              <LongitudeDegrees>-1.98681472800672054290771484375</LongitudeDegrees>
            </Position>
            <AltitudeMeters>2.2000000476837158203125</AltitudeMeters>
            <DistanceMeters>NAN</DistanceMeters>
          </Trackpoint>
          <Trackpoint>
            <Time>2022-07-09T15:08:21.000Z</Time>
            <Position>
              <LatitudeDegrees>43.31688609905540943145751953125</LatitudeDegrees>
              <LongitudeDegrees>-1.9867737405002117156982421875</LongitudeDegrees>
            </Position>
            <AltitudeMeters>2.599999904632568359375</AltitudeMeters>
            <DistanceMeters>NAN</DistanceMeters>
          </Trackpoint>
          <Trackpoint>
            <Time>2022-07-09T15:08:22.000Z</Time>
            <Position>
              <LatitudeDegrees>43.3168871887028217315673828125</LatitudeDegrees>
              <LongitudeDegrees>-1.9867509417235851287841796875</LongitudeDegrees>
            </Position>
            <AltitudeMeters>2.599999904632568359375</AltitudeMeters>
            <DistanceMeters>NAN</DistanceMeters>
          </Trackpoint>
          <Trackpoint>
            <Time>2022-07-09T15:08:27.000Z</Time>
            <Position>
              <LatitudeDegrees>43.316920213401317596435546875</LatitudeDegrees>
              <LongitudeDegrees>-1.9866527058184146881103515625</LongitudeDegrees>
            </Position>
            <AltitudeMeters>2.599999904632568359375</AltitudeMeters>
            <DistanceMeters>NAN</DistanceMeters>
          </Trackpoint>
          <Trackpoint>
            <Time>2022-07-09T15:08:29.000Z</Time>
            <Position>
              <LatitudeDegrees>43.31693102605640888214111328125</LatitudeDegrees>
              <LongitudeDegrees>-1.98661456815898418426513671875</LongitudeDegrees>
            </Position>
            <AltitudeMeters>2.7999999523162841796875</AltitudeMeters>
            <DistanceMeters>NAN</DistanceMeters>
          </Trackpoint>
          <Trackpoint>
            <Time>2022-07-09T15:08:35.000Z</Time>
            <Position>
              <LatitudeDegrees>43.317000679671764373779296875</LatitudeDegrees>
              <LongitudeDegrees>-1.9865283183753490447998046875</LongitudeDegrees>
            </Position>
            <AltitudeMeters>3</AltitudeMeters>
            <DistanceMeters>NAN</DistanceMeters>
          </Trackpoint>
          <Trackpoint>
            <Time>2022-07-09T15:08:37.000Z</Time>
            <Position>
              <LatitudeDegrees>43.317026831209659576416015625</LatitudeDegrees>
              <LongitudeDegrees>-1.9864914380013942718505859375</LongitudeDegrees>
            </Position>
            <AltitudeMeters>3.2000000476837158203125</AltitudeMeters>
            <DistanceMeters>NAN</DistanceMeters>
          </Trackpoint>
          <Trackpoint>
            <Time>2022-07-09T15:08:38.000Z</Time>
            <Position>
              <LatitudeDegrees>43.31703797914087772369384765625</LatitudeDegrees>
              <LongitudeDegrees>-1.98647425509989261627197265625</LongitudeDegrees>
            </Position>
            <AltitudeMeters>3.2000000476837158203125</AltitudeMeters>
            <DistanceMeters>NAN</DistanceMeters>
          </Trackpoint>
          <Trackpoint>
            <Time>2022-07-09T15:08:40.000Z</Time>
            <Position>
              <LatitudeDegrees>43.31706312485039234161376953125</LatitudeDegrees>
              <LongitudeDegrees>-1.98643452487885951995849609375</LongitudeDegrees>
            </Position>
            <AltitudeMeters>3.2000000476837158203125</AltitudeMeters>
            <DistanceMeters>NAN</DistanceMeters>
          </Trackpoint>
          <Trackpoint>
            <Time>2022-07-09T15:08:43.000Z</Time>
            <Position>
              <LatitudeDegrees>43.317094556987285614013671875</LatitudeDegrees>
              <LongitudeDegrees>-1.9863955490291118621826171875</LongitudeDegrees>
            </Position>
            <AltitudeMeters>3.400000095367431640625</AltitudeMeters>
            <DistanceMeters>NAN</DistanceMeters>
          </Trackpoint>
          <Trackpoint>
            <Time>2022-07-09T15:08:45.000Z</Time>
            <Position>
              <LatitudeDegrees>43.3171270787715911865234375</LatitudeDegrees>
              <LongitudeDegrees>-1.986385323107242584228515625</LongitudeDegrees>
            </Position>
            <AltitudeMeters>3.599999904632568359375</AltitudeMeters>
            <DistanceMeters>NAN</DistanceMeters>
          </Trackpoint>
          <Trackpoint>
            <Time>2022-07-09T15:08:46.000Z</Time>
            <Position>
              <LatitudeDegrees>43.3171399869024753570556640625</LatitudeDegrees>
              <LongitudeDegrees>-1.98637752793729305267333984375</LongitudeDegrees>
            </Position>
            <AltitudeMeters>3.599999904632568359375</AltitudeMeters>
            <DistanceMeters>NAN</DistanceMeters>
          </Trackpoint>
          <Trackpoint>
            <Time>2022-07-09T15:08:49.000Z</Time>
            <Position>
              <LatitudeDegrees>43.31717829219996929168701171875</LatitudeDegrees>
              <LongitudeDegrees>-1.9863496161997318267822265625</LongitudeDegrees>
            </Position>
            <AltitudeMeters>3.599999904632568359375</AltitudeMeters>
            <DistanceMeters>NAN</DistanceMeters>
          </Trackpoint>
          <Trackpoint>
            <Time>2022-07-09T15:08:50.000Z</Time>
            <Position>
              <LatitudeDegrees>43.31718139350414276123046875</LatitudeDegrees>
              <LongitudeDegrees>-1.98634148575365543365478515625</LongitudeDegrees>
            </Position>
            <AltitudeMeters>3.599999904632568359375</AltitudeMeters>
            <DistanceMeters>NAN</DistanceMeters>
          </Trackpoint>
          <Trackpoint>
            <Time>2022-07-09T15:08:52.000Z</Time>
            <Position>
              <LatitudeDegrees>43.31717879511415958404541015625</LatitudeDegrees>
              <LongitudeDegrees>-1.986304856836795806884765625</LongitudeDegrees>
            </Position>
            <AltitudeMeters>3.7999999523162841796875</AltitudeMeters>
            <DistanceMeters>NAN</DistanceMeters>
          </Trackpoint>
          <Trackpoint>
            <Time>2022-07-09T15:08:55.000Z</Time>
            <Position>
              <LatitudeDegrees>43.3171564154326915740966796875</LatitudeDegrees>
              <LongitudeDegrees>-1.986231096088886260986328125</LongitudeDegrees>
            </Position>
            <AltitudeMeters>3.7999999523162841796875</AltitudeMeters>
            <DistanceMeters>NAN</DistanceMeters>
          </Trackpoint>
          <Trackpoint>
            <Time>2022-07-09T15:08:58.000Z</Time>
            <Position>
              <LatitudeDegrees>43.31717611290514469146728515625</LatitudeDegrees>
              <LongitudeDegrees>-1.986172758042812347412109375</LongitudeDegrees>
            </Position>
            <AltitudeMeters>3.7999999523162841796875</AltitudeMeters>
            <DistanceMeters>NAN</DistanceMeters>
          </Trackpoint>
          <Trackpoint>
            <Time>2022-07-09T15:08:59.000Z</Time>
            <Position>
              <LatitudeDegrees>43.3171855844557285308837890625</LatitudeDegrees>
              <LongitudeDegrees>-1.98614694178104400634765625</LongitudeDegrees>
            </Position>
            <AltitudeMeters>3.7999999523162841796875</AltitudeMeters>
            <DistanceMeters>NAN</DistanceMeters>
          </Trackpoint>
          <Trackpoint>
            <Time>2022-07-09T15:09:00.000Z</Time>
            <Position>
              <LatitudeDegrees>43.31720151007175445556640625</LatitudeDegrees>
              <LongitudeDegrees>-1.98612992651760578155517578125</LongitudeDegrees>
            </Position>
            <AltitudeMeters>3.7999999523162841796875</AltitudeMeters>
            <DistanceMeters>NAN</DistanceMeters>
          </Trackpoint>
          <Trackpoint>
            <Time>2022-07-09T15:09:03.000Z</Time>
            <Position>
              <LatitudeDegrees>43.3172278292477130889892578125</LatitudeDegrees>
              <LongitudeDegrees>-1.98607443831861019134521484375</LongitudeDegrees>
            </Position>
            <AltitudeMeters>4</AltitudeMeters>
            <DistanceMeters>NAN</DistanceMeters>
          </Trackpoint>
          <Trackpoint>
            <Time>2022-07-09T15:09:04.000Z</Time>
            <Position>
              <LatitudeDegrees>43.317244760692119598388671875</LatitudeDegrees>
              <LongitudeDegrees>-1.986057423055171966552734375</LongitudeDegrees>
            </Position>
            <AltitudeMeters>4.400000095367431640625</AltitudeMeters>
            <DistanceMeters>NAN</DistanceMeters>
          </Trackpoint>
          <Trackpoint>
            <Time>2022-07-09T15:09:07.000Z</Time>
            <Position>
              <LatitudeDegrees>43.317316509783267974853515625</LatitudeDegrees>
              <LongitudeDegrees>-1.98598508723080158233642578125</LongitudeDegrees>
            </Position>
            <AltitudeMeters>5.19999980926513671875</AltitudeMeters>
            <DistanceMeters>NAN</DistanceMeters>
          </Trackpoint>
          <Trackpoint>
            <Time>2022-07-09T15:09:10.000Z</Time>
            <Position>
              <LatitudeDegrees>43.3173787035048007965087890625</LatitudeDegrees>
              <LongitudeDegrees>-1.985937394201755523681640625</LongitudeDegrees>
            </Position>
            <AltitudeMeters>5.400000095367431640625</AltitudeMeters>
            <DistanceMeters>NAN</DistanceMeters>
          </Trackpoint>
          <Trackpoint>
            <Time>2022-07-09T15:09:13.000Z</Time>
            <Position>
              <LatitudeDegrees>43.317443244159221649169921875</LatitudeDegrees>
              <LongitudeDegrees>-1.9858513958752155303955078125</LongitudeDegrees>
            </Position>
            <AltitudeMeters>5.599999904632568359375</AltitudeMeters>
            <DistanceMeters>NAN</DistanceMeters>
          </Trackpoint>
          <Trackpoint>
            <Time>2022-07-09T15:09:19.000Z</Time>
            <Position>
              <LatitudeDegrees>43.31757425330579280853271484375</LatitudeDegrees>
              <LongitudeDegrees>-1.98571485467255115509033203125</LongitudeDegrees>
            </Position>
            <AltitudeMeters>5.80000019073486328125</AltitudeMeters>
            <DistanceMeters>NAN</DistanceMeters>
          </Trackpoint>
          <Trackpoint>
            <Time>2022-07-09T15:09:26.000Z</Time>
            <Position>
              <LatitudeDegrees>43.317771144211292266845703125</LatitudeDegrees>
              <LongitudeDegrees>-1.98557026684284210205078125</LongitudeDegrees>
            </Position>
            <AltitudeMeters>6</AltitudeMeters>
            <DistanceMeters>NAN</DistanceMeters>
          </Trackpoint>
          <Trackpoint>
            <Time>2022-07-09T15:09:29.000Z</Time>
            <Position>
              <LatitudeDegrees>43.31780442036688327789306640625</LatitudeDegrees>
              <LongitudeDegrees>-1.98549927212297916412353515625</LongitudeDegrees>
            </Position>
            <AltitudeMeters>6.599999904632568359375</AltitudeMeters>
            <DistanceMeters>NAN</DistanceMeters>
          </Trackpoint>
          <Trackpoint>
            <Time>2022-07-09T15:09:34.000Z</Time>
            <Position>
              <LatitudeDegrees>43.3178896643221378326416015625</LatitudeDegrees>
              <LongitudeDegrees>-1.98539097793400287628173828125</LongitudeDegrees>
            </Position>
            <AltitudeMeters>6.80000019073486328125</AltitudeMeters>
            <DistanceMeters>NAN</DistanceMeters>
          </Trackpoint>
          <Trackpoint>
            <Time>2022-07-09T15:09:39.000Z</Time>
            <Position>
              <LatitudeDegrees>43.31805252470076084136962890625</LatitudeDegrees>
              <LongitudeDegrees>-1.98529961518943309783935546875</LongitudeDegrees>
            </Position>
            <AltitudeMeters>6.599999904632568359375</AltitudeMeters>
            <DistanceMeters>NAN</DistanceMeters>
          </Trackpoint>
          <Trackpoint>
            <Time>2022-07-09T15:09:44.000Z</Time>
            <Position>
              <LatitudeDegrees>43.318134248256683349609375</LatitudeDegrees>
              <LongitudeDegrees>-1.98520439676940441131591796875</LongitudeDegrees>
            </Position>
            <AltitudeMeters>6.599999904632568359375</AltitudeMeters>
            <DistanceMeters>NAN</DistanceMeters>
          </Trackpoint>
          <Trackpoint>
            <Time>2022-07-09T15:09:49.000Z</Time>
            <Position>
              <LatitudeDegrees>43.31826508976519107818603515625</LatitudeDegrees>
              <LongitudeDegrees>-1.9851104356348514556884765625</LongitudeDegrees>
            </Position>
            <AltitudeMeters>6.80000019073486328125</AltitudeMeters>
            <DistanceMeters>NAN</DistanceMeters>
          </Trackpoint>
          <Trackpoint>
            <Time>2022-07-09T15:09:53.000Z</Time>
            <Position>
              <LatitudeDegrees>43.3183426223695278167724609375</LatitudeDegrees>
              <LongitudeDegrees>-1.98508218862116336822509765625</LongitudeDegrees>
            </Position>
            <AltitudeMeters>7</AltitudeMeters>
            <DistanceMeters>NAN</DistanceMeters>
          </Trackpoint>
          <Trackpoint>
            <Time>2022-07-09T15:09:56.000Z</Time>
            <Position>
              <LatitudeDegrees>43.318406827747821807861328125</LatitudeDegrees>
              <LongitudeDegrees>-1.9850474037230014801025390625</LongitudeDegrees>
            </Position>
            <AltitudeMeters>7.19999980926513671875</AltitudeMeters>
            <DistanceMeters>NAN</DistanceMeters>
          </Trackpoint>
          <Trackpoint>
            <Time>2022-07-09T15:09:57.000Z</Time>
            <Position>
              <LatitudeDegrees>43.31842903979122638702392578125</LatitudeDegrees>
              <LongitudeDegrees>-1.98503390885889530181884765625</LongitudeDegrees>
            </Position>
            <AltitudeMeters>7.19999980926513671875</AltitudeMeters>
            <DistanceMeters>NAN</DistanceMeters>
          </Trackpoint>
          <Trackpoint>
            <Time>2022-07-09T15:10:00.000Z</Time>
            <Position>
              <LatitudeDegrees>43.318499028682708740234375</LatitudeDegrees>
              <LongitudeDegrees>-1.9849887304008007049560546875</LongitudeDegrees>
            </Position>
            <AltitudeMeters>7.400000095367431640625</AltitudeMeters>
            <DistanceMeters>NAN</DistanceMeters>
          </Trackpoint>
          <Trackpoint>
            <Time>2022-07-09T15:10:05.000Z</Time>
            <Position>
              <LatitudeDegrees>43.3186041377484798431396484375</LatitudeDegrees>
              <LongitudeDegrees>-1.98491622693836688995361328125</LongitudeDegrees>
            </Position>
            <AltitudeMeters>7.599999904632568359375</AltitudeMeters>
            <DistanceMeters>NAN</DistanceMeters>
          </Trackpoint>
          <Trackpoint>
            <Time>2022-07-09T15:10:06.000Z</Time>
            <Position>
              <LatitudeDegrees>43.31862173974514007568359375</LatitudeDegrees>
              <LongitudeDegrees>-1.9848842918872833251953125</LongitudeDegrees>
            </Position>
            <AltitudeMeters>7.599999904632568359375</AltitudeMeters>
            <DistanceMeters>NAN</DistanceMeters>
          </Trackpoint>
          <Trackpoint>
            <Time>2022-07-09T15:10:07.000Z</Time>
            <Position>
              <LatitudeDegrees>43.31863288767635822296142578125</LatitudeDegrees>
              <LongitudeDegrees>-1.98485436849296092987060546875</LongitudeDegrees>
            </Position>
            <AltitudeMeters>7.599999904632568359375</AltitudeMeters>
            <DistanceMeters>NAN</DistanceMeters>
          </Trackpoint>
          <Trackpoint>
            <Time>2022-07-09T15:10:09.000Z</Time>
            <Position>
              <LatitudeDegrees>43.31865082494914531707763671875</LatitudeDegrees>
              <LongitudeDegrees>-1.984796784818172454833984375</LongitudeDegrees>
            </Position>
            <AltitudeMeters>7.80000019073486328125</AltitudeMeters>
            <DistanceMeters>NAN</DistanceMeters>
          </Trackpoint>
          <Trackpoint>
            <Time>2022-07-09T15:10:17.000Z</Time>
            <Position>
              <LatitudeDegrees>43.31878359429538249969482421875</LatitudeDegrees>
              <LongitudeDegrees>-1.98453719727694988250732421875</LongitudeDegrees>
            </Position>
            <AltitudeMeters>7.599999904632568359375</AltitudeMeters>
            <DistanceMeters>NAN</DistanceMeters>
          </Trackpoint>
          <Trackpoint>
            <Time>2022-07-09T15:10:22.000Z</Time>
            <Position>
              <LatitudeDegrees>43.31882533617317676544189453125</LatitudeDegrees>
              <LongitudeDegrees>-1.98436654172837734222412109375</LongitudeDegrees>
            </Position>
            <AltitudeMeters>7.400000095367431640625</AltitudeMeters>
            <DistanceMeters>NAN</DistanceMeters>
          </Trackpoint>
          <Trackpoint>
            <Time>2022-07-09T15:10:27.000Z</Time>
            <Position>
              <LatitudeDegrees>43.318814523518085479736328125</LatitudeDegrees>
              <LongitudeDegrees>-1.98426998220384120941162109375</LongitudeDegrees>
            </Position>
            <AltitudeMeters>7.599999904632568359375</AltitudeMeters>
            <DistanceMeters>NAN</DistanceMeters>
          </Trackpoint>
          <Trackpoint>
            <Time>2022-07-09T15:10:30.000Z</Time>
            <Position>
              <LatitudeDegrees>43.3188368193805217742919921875</LatitudeDegrees>
              <LongitudeDegrees>-1.98420862667262554168701171875</LongitudeDegrees>
            </Position>
            <AltitudeMeters>7.599999904632568359375</AltitudeMeters>
            <DistanceMeters>NAN</DistanceMeters>
          </Trackpoint>
          <Trackpoint>
            <Time>2022-07-09T15:10:33.000Z</Time>
            <Position>
              <LatitudeDegrees>43.31887110136449337005615234375</LatitudeDegrees>
              <LongitudeDegrees>-1.984177865087985992431640625</LongitudeDegrees>
            </Position>
            <AltitudeMeters>7.599999904632568359375</AltitudeMeters>
            <DistanceMeters>NAN</DistanceMeters>
          </Trackpoint>
          <Trackpoint>
            <Time>2022-07-09T15:10:36.000Z</Time>
            <Position>
              <LatitudeDegrees>43.3188892900943756103515625</LatitudeDegrees>
              <LongitudeDegrees>-1.98418666608631610870361328125</LongitudeDegrees>
            </Position>
            <AltitudeMeters>7.80000019073486328125</AltitudeMeters>
            <DistanceMeters>NAN</DistanceMeters>
          </Trackpoint>
          <Trackpoint>
            <Time>2022-07-09T15:10:38.000Z</Time>
            <Position>
              <LatitudeDegrees>43.3188892900943756103515625</LatitudeDegrees>
              <LongitudeDegrees>-1.984224803745746612548828125</LongitudeDegrees>
            </Position>
            <AltitudeMeters>8</AltitudeMeters>
            <DistanceMeters>NAN</DistanceMeters>
          </Trackpoint>
          <Trackpoint>
            <Time>2022-07-09T15:10:40.000Z</Time>
            <Position>
              <LatitudeDegrees>43.31886657513678073883056640625</LatitudeDegrees>
              <LongitudeDegrees>-1.9842665456235408782958984375</LongitudeDegrees>
            </Position>
            <AltitudeMeters>8</AltitudeMeters>
            <DistanceMeters>NAN</DistanceMeters>
          </Trackpoint>
          <Trackpoint>
            <Time>2022-07-09T15:10:43.000Z</Time>
            <Position>
              <LatitudeDegrees>43.3188512362539768218994140625</LatitudeDegrees>
              <LongitudeDegrees>-1.9843255542218685150146484375</LongitudeDegrees>
            </Position>
            <AltitudeMeters>8.6000003814697265625</AltitudeMeters>
            <DistanceMeters>NAN</DistanceMeters>
          </Trackpoint>
          <Trackpoint>
            <Time>2022-07-09T15:10:44.000Z</Time>
            <Position>
              <LatitudeDegrees>43.3188606239855289459228515625</LatitudeDegrees>
              <LongitudeDegrees>-1.98434759862720966339111328125</LongitudeDegrees>
            </Position>
            <AltitudeMeters>8.80000019073486328125</AltitudeMeters>
            <DistanceMeters>NAN</DistanceMeters>
          </Trackpoint>
          <Trackpoint>
            <Time>2022-07-09T15:10:47.000Z</Time>
            <Position>
              <LatitudeDegrees>43.31891066394746303558349609375</LatitudeDegrees>
              <LongitudeDegrees>-1.9843961298465728759765625</LongitudeDegrees>
            </Position>
            <AltitudeMeters>8.80000019073486328125</AltitudeMeters>
            <DistanceMeters>NAN</DistanceMeters>
          </Trackpoint>
          <Trackpoint>
            <Time>2022-07-09T15:10:48.000Z</Time>
            <Position>
              <LatitudeDegrees>43.31893078051507472991943359375</LatitudeDegrees>
              <LongitudeDegrees>-1.98440358974039554595947265625</LongitudeDegrees>
            </Position>
            <AltitudeMeters>8.80000019073486328125</AltitudeMeters>
            <DistanceMeters>NAN</DistanceMeters>
          </Trackpoint>
          <Trackpoint>
            <Time>2022-07-09T15:10:53.000Z</Time>
            <Position>
              <LatitudeDegrees>43.31904309801757335662841796875</LatitudeDegrees>
              <LongitudeDegrees>-1.98446863330900669097900390625</LongitudeDegrees>
            </Position>
            <AltitudeMeters>9.19999980926513671875</AltitudeMeters>
            <DistanceMeters>NAN</DistanceMeters>
          </Trackpoint>
          <Trackpoint>
            <Time>2022-07-09T15:10:55.000Z</Time>
            <Position>
              <LatitudeDegrees>43.319091796875</LatitudeDegrees>
              <LongitudeDegrees>-1.9845079444348812103271484375</LongitudeDegrees>
            </Position>
            <AltitudeMeters>9.19999980926513671875</AltitudeMeters>
            <DistanceMeters>NAN</DistanceMeters>
          </Trackpoint>
          <Trackpoint>
            <Time>2022-07-09T15:10:58.000Z</Time>
            <Position>
              <LatitudeDegrees>43.319167234003543853759765625</LatitudeDegrees>
              <LongitudeDegrees>-1.98456251062452793121337890625</LongitudeDegrees>
            </Position>
            <AltitudeMeters>9.3999996185302734375</AltitudeMeters>
            <DistanceMeters>NAN</DistanceMeters>
          </Trackpoint>
          <Trackpoint>
            <Time>2022-07-09T15:11:02.000Z</Time>
            <Position>
              <LatitudeDegrees>43.31927343271672725677490234375</LatitudeDegrees>
              <LongitudeDegrees>-1.9846383668482303619384765625</LongitudeDegrees>
            </Position>
            <AltitudeMeters>9.3999996185302734375</AltitudeMeters>
            <DistanceMeters>NAN</DistanceMeters>
          </Trackpoint>
          <Trackpoint>
            <Time>2022-07-09T15:11:07.000Z</Time>
            <Position>
              <LatitudeDegrees>43.319398574531078338623046875</LatitudeDegrees>
              <LongitudeDegrees>-1.984707601368427276611328125</LongitudeDegrees>
            </Position>
            <AltitudeMeters>9.19999980926513671875</AltitudeMeters>
            <DistanceMeters>NAN</DistanceMeters>
          </Trackpoint>
          <Trackpoint>
            <Time>2022-07-09T15:11:08.000Z</Time>
            <Position>
              <LatitudeDegrees>43.31942464224994182586669921875</LatitudeDegrees>
              <LongitudeDegrees>-1.984739117324352264404296875</LongitudeDegrees>
            </Position>
            <AltitudeMeters>9.19999980926513671875</AltitudeMeters>
            <DistanceMeters>NAN</DistanceMeters>
          </Trackpoint>
          <Trackpoint>
            <Time>2022-07-09T15:11:12.000Z</Time>
            <Position>
              <LatitudeDegrees>43.3195214532315731048583984375</LatitudeDegrees>
              <LongitudeDegrees>-1.9847815297544002532958984375</LongitudeDegrees>
            </Position>
            <AltitudeMeters>9.19999980926513671875</AltitudeMeters>
            <DistanceMeters>NAN</DistanceMeters>
          </Trackpoint>
          <Trackpoint>
            <Time>2022-07-09T15:11:14.000Z</Time>
            <Position>
              <LatitudeDegrees>43.3195717446506023406982421875</LatitudeDegrees>
              <LongitudeDegrees>-1.984799467027187347412109375</LongitudeDegrees>
            </Position>
            <AltitudeMeters>9.19999980926513671875</AltitudeMeters>
            <DistanceMeters>NAN</DistanceMeters>
          </Trackpoint>
          <Trackpoint>
            <Time>2022-07-09T15:11:21.000Z</Time>
            <Position>
              <LatitudeDegrees>43.3197341859340667724609375</LatitudeDegrees>
              <LongitudeDegrees>-1.98478245176374912261962890625</LongitudeDegrees>
            </Position>
            <AltitudeMeters>9.3999996185302734375</AltitudeMeters>
            <DistanceMeters>NAN</DistanceMeters>
          </Trackpoint>
          <Trackpoint>
            <Time>2022-07-09T15:11:29.000Z</Time>
            <Position>
              <LatitudeDegrees>43.31989268772304058074951171875</LatitudeDegrees>
              <LongitudeDegrees>-1.98468991555273532867431640625</LongitudeDegrees>
            </Position>
            <AltitudeMeters>9.3999996185302734375</AltitudeMeters>
            <DistanceMeters>NAN</DistanceMeters>
          </Trackpoint>
          <Trackpoint>
            <Time>2022-07-09T15:11:34.000Z</Time>
            <Position>
              <LatitudeDegrees>43.3199938572943210601806640625</LatitudeDegrees>
              <LongitudeDegrees>-1.98472428135573863983154296875</LongitudeDegrees>
            </Position>
            <AltitudeMeters>9.6000003814697265625</AltitudeMeters>
            <DistanceMeters>NAN</DistanceMeters>
          </Trackpoint>
          <Trackpoint>
            <Time>2022-07-09T15:11:37.000Z</Time>
            <Position>
              <LatitudeDegrees>43.3200699649751186370849609375</LatitudeDegrees>
              <LongitudeDegrees>-1.984739117324352264404296875</LongitudeDegrees>
            </Position>
            <AltitudeMeters>9.6000003814697265625</AltitudeMeters>
            <DistanceMeters>NAN</DistanceMeters>
          </Trackpoint>
          <Trackpoint>
            <Time>2022-07-09T15:11:39.000Z</Time>
            <Position>
              <LatitudeDegrees>43.3201177418231964111328125</LatitudeDegrees>
              <LongitudeDegrees>-1.98472612537443637847900390625</LongitudeDegrees>
            </Position>
            <AltitudeMeters>9.6000003814697265625</AltitudeMeters>
            <DistanceMeters>NAN</DistanceMeters>
          </Trackpoint>
          <Trackpoint>
            <Time>2022-07-09T15:11:42.000Z</Time>
            <Position>
              <LatitudeDegrees>43.320183120667934417724609375</LatitudeDegrees>
              <LongitudeDegrees>-1.984754540026187896728515625</LongitudeDegrees>
            </Position>
            <AltitudeMeters>9.80000019073486328125</AltitudeMeters>
            <DistanceMeters>NAN</DistanceMeters>
          </Trackpoint>
          <Trackpoint>
            <Time>2022-07-09T15:11:50.000Z</Time>
            <Position>
              <LatitudeDegrees>43.3203428797423839569091796875</LatitudeDegrees>
              <LongitudeDegrees>-1.98487901128828525543212890625</LongitudeDegrees>
            </Position>
            <AltitudeMeters>9.6000003814697265625</AltitudeMeters>
            <DistanceMeters>NAN</DistanceMeters>
          </Trackpoint>
          <Trackpoint>
            <Time>2022-07-09T15:11:53.000Z</Time>
            <Position>
              <LatitudeDegrees>43.3204059116542339324951171875</LatitudeDegrees>
              <LongitudeDegrees>-1.98489510454237461090087890625</LongitudeDegrees>
            </Position>
            <AltitudeMeters>9.6000003814697265625</AltitudeMeters>
            <DistanceMeters>NAN</DistanceMeters>
          </Trackpoint>
          <Trackpoint>
            <Time>2022-07-09T15:11:57.000Z</Time>
            <Position>
              <LatitudeDegrees>43.32048864103853702545166015625</LatitudeDegrees>
              <LongitudeDegrees>-1.98493458330631256103515625</LongitudeDegrees>
            </Position>
            <AltitudeMeters>10</AltitudeMeters>
            <DistanceMeters>NAN</DistanceMeters>
          </Trackpoint>
          <Trackpoint>
            <Time>2022-07-09T15:12:02.000Z</Time>
            <Position>
              <LatitudeDegrees>43.320572376251220703125</LatitudeDegrees>
              <LongitudeDegrees>-1.9849364273250102996826171875</LongitudeDegrees>
            </Position>
            <AltitudeMeters>10.19999980926513671875</AltitudeMeters>
            <DistanceMeters>NAN</DistanceMeters>
          </Trackpoint>
          <Trackpoint>
            <Time>2022-07-09T15:12:07.000Z</Time>
            <Position>
              <LatitudeDegrees>43.32060498185455799102783203125</LatitudeDegrees>
              <LongitudeDegrees>-1.9849230162799358367919921875</LongitudeDegrees>
            </Position>
            <AltitudeMeters>10.19999980926513671875</AltitudeMeters>
            <DistanceMeters>NAN</DistanceMeters>
          </Trackpoint>
          <Trackpoint>
            <Time>2022-07-09T15:12:08.000Z</Time>
            <Position>
              <LatitudeDegrees>43.32061520777642726898193359375</LatitudeDegrees>
              <LongitudeDegrees>-1.984924189746379852294921875</LongitudeDegrees>
            </Position>
            <AltitudeMeters>10.19999980926513671875</AltitudeMeters>
            <DistanceMeters>NAN</DistanceMeters>
          </Trackpoint>
          <Trackpoint>
            <Time>2022-07-09T15:12:11.000Z</Time>
            <Position>
              <LatitudeDegrees>43.3206412754952907562255859375</LatitudeDegrees>
              <LongitudeDegrees>-1.9849210046231746673583984375</LongitudeDegrees>
            </Position>
            <AltitudeMeters>10.19999980926513671875</AltitudeMeters>
            <DistanceMeters>NAN</DistanceMeters>
          </Trackpoint>
          <Trackpoint>
            <Time>2022-07-09T15:12:14.000Z</Time>
            <Position>
              <LatitudeDegrees>43.32064211368560791015625</LatitudeDegrees>
              <LongitudeDegrees>-1.98492326773703098297119140625</LongitudeDegrees>
            </Position>
            <AltitudeMeters>10.19999980926513671875</AltitudeMeters>
            <DistanceMeters>NAN</DistanceMeters>
          </Trackpoint>
          <Trackpoint>
            <Time>2022-07-09T15:13:03.000Z</Time>
            <Position>
              <LatitudeDegrees>43.32066960632801055908203125</LatitudeDegrees>
              <LongitudeDegrees>-1.984944641590118408203125</LongitudeDegrees>
            </Position>
            <AltitudeMeters>10.6000003814697265625</AltitudeMeters>
            <DistanceMeters>NAN</DistanceMeters>
          </Trackpoint>
          <Trackpoint>
            <Time>2022-07-09T15:13:05.000Z</Time>
            <Position>
              <LatitudeDegrees>43.32068008370697498321533203125</LatitudeDegrees>
              <LongitudeDegrees>-1.985002644360065460205078125</LongitudeDegrees>
            </Position>
            <AltitudeMeters>10.80000019073486328125</AltitudeMeters>
            <DistanceMeters>NAN</DistanceMeters>
          </Trackpoint>
          <Trackpoint>
            <Time>2022-07-09T15:13:10.000Z</Time>
            <Position>
              <LatitudeDegrees>43.32076348364353179931640625</LatitudeDegrees>
              <LongitudeDegrees>-1.98510917834937572479248046875</LongitudeDegrees>
            </Position>
            <AltitudeMeters>10.80000019073486328125</AltitudeMeters>
            <DistanceMeters>NAN</DistanceMeters>
          </Trackpoint>
          <Trackpoint>
            <Time>2022-07-09T15:13:19.000Z</Time>
            <Position>
              <LatitudeDegrees>43.32096255384385585784912109375</LatitudeDegrees>
              <LongitudeDegrees>-1.9851912371814250946044921875</LongitudeDegrees>
            </Position>
            <AltitudeMeters>10.19999980926513671875</AltitudeMeters>
            <DistanceMeters>NAN</DistanceMeters>
          </Trackpoint>
          <Trackpoint>
            <Time>2022-07-09T15:13:21.000Z</Time>
            <Position>
              <LatitudeDegrees>43.32100194878876209259033203125</LatitudeDegrees>
              <LongitudeDegrees>-1.98520188219845294952392578125</LongitudeDegrees>
            </Position>
            <AltitudeMeters>10.19999980926513671875</AltitudeMeters>
            <DistanceMeters>NAN</DistanceMeters>
          </Trackpoint>
          <Trackpoint>
            <Time>2022-07-09T15:13:23.000Z</Time>
            <Position>
              <LatitudeDegrees>43.32102675922214984893798828125</LatitudeDegrees>
              <LongitudeDegrees>-1.985249407589435577392578125</LongitudeDegrees>
            </Position>
            <AltitudeMeters>10.3999996185302734375</AltitudeMeters>
            <DistanceMeters>NAN</DistanceMeters>
          </Trackpoint>
          <Trackpoint>
            <Time>2022-07-09T15:13:26.000Z</Time>
            <Position>
              <LatitudeDegrees>43.32107336260378360748291015625</LatitudeDegrees>
              <LongitudeDegrees>-1.9853169657289981842041015625</LongitudeDegrees>
            </Position>
            <AltitudeMeters>10.6000003814697265625</AltitudeMeters>
            <DistanceMeters>NAN</DistanceMeters>
          </Trackpoint>
          <Trackpoint>
            <Time>2022-07-09T15:13:29.000Z</Time>
            <Position>
              <LatitudeDegrees>43.32110957242548465728759765625</LatitudeDegrees>
              <LongitudeDegrees>-1.98538720607757568359375</LongitudeDegrees>
            </Position>
            <AltitudeMeters>10.6000003814697265625</AltitudeMeters>
            <DistanceMeters>NAN</DistanceMeters>
          </Trackpoint>
          <Trackpoint>
            <Time>2022-07-09T15:13:34.000Z</Time>
            <Position>
              <LatitudeDegrees>43.3211101591587066650390625</LatitudeDegrees>
              <LongitudeDegrees>-1.98556330986320972442626953125</LongitudeDegrees>
            </Position>
            <AltitudeMeters>10.6000003814697265625</AltitudeMeters>
            <DistanceMeters>NAN</DistanceMeters>
          </Trackpoint>
          <Trackpoint>
            <Time>2022-07-09T15:13:35.000Z</Time>
            <Position>
              <LatitudeDegrees>43.321127258241176605224609375</LatitudeDegrees>
              <LongitudeDegrees>-1.98558476753532886505126953125</LongitudeDegrees>
            </Position>
            <AltitudeMeters>10.6000003814697265625</AltitudeMeters>
            <DistanceMeters>NAN</DistanceMeters>
          </Trackpoint>
          <Trackpoint>
            <Time>2022-07-09T15:13:38.000Z</Time>
            <Position>
              <LatitudeDegrees>43.32118903286755084991455078125</LatitudeDegrees>
              <LongitudeDegrees>-1.98554503731429576873779296875</LongitudeDegrees>
            </Position>
            <AltitudeMeters>10.3999996185302734375</AltitudeMeters>
            <DistanceMeters>NAN</DistanceMeters>
          </Trackpoint>
          <Trackpoint>
            <Time>2022-07-09T15:13:41.000Z</Time>
            <Position>
              <LatitudeDegrees>43.321216441690921783447265625</LatitudeDegrees>
              <LongitudeDegrees>-1.98546297848224639892578125</LongitudeDegrees>
            </Position>
            <AltitudeMeters>10.3999996185302734375</AltitudeMeters>
            <DistanceMeters>NAN</DistanceMeters>
          </Trackpoint>
          <Trackpoint>
            <Time>2022-07-09T15:13:44.000Z</Time>
            <Position>
              <LatitudeDegrees>43.32122616469860076904296875</LatitudeDegrees>
              <LongitudeDegrees>-1.98537136428058147430419921875</LongitudeDegrees>
            </Position>
            <AltitudeMeters>10.6000003814697265625</AltitudeMeters>
            <DistanceMeters>NAN</DistanceMeters>
          </Trackpoint>
          <Trackpoint>
            <Time>2022-07-09T15:13:49.000Z</Time>
            <Position>
              <LatitudeDegrees>43.3212015219032764434814453125</LatitudeDegrees>
              <LongitudeDegrees>-1.98525317944586277008056640625</LongitudeDegrees>
            </Position>
            <AltitudeMeters>10.6000003814697265625</AltitudeMeters>
            <DistanceMeters>NAN</DistanceMeters>
          </Trackpoint>
          <Trackpoint>
            <Time>2022-07-09T15:13:56.000Z</Time>
            <Position>
              <LatitudeDegrees>43.32123546861112117767333984375</LatitudeDegrees>
              <LongitudeDegrees>-1.98506056331098079681396484375</LongitudeDegrees>
            </Position>
            <AltitudeMeters>10.6000003814697265625</AltitudeMeters>
            <DistanceMeters>NAN</DistanceMeters>
          </Trackpoint>
          <Trackpoint>
            <Time>2022-07-09T15:14:01.000Z</Time>
            <Position>
              <LatitudeDegrees>43.3213111571967601776123046875</LatitudeDegrees>
              <LongitudeDegrees>-1.984982192516326904296875</LongitudeDegrees>
            </Position>
            <AltitudeMeters>10.3999996185302734375</AltitudeMeters>
            <DistanceMeters>NAN</DistanceMeters>
          </Trackpoint>
          <Trackpoint>
            <Time>2022-07-09T15:14:08.000Z</Time>
            <Position>
              <LatitudeDegrees>43.3214409090578556060791015625</LatitudeDegrees>
              <LongitudeDegrees>-1.9849823601543903350830078125</LongitudeDegrees>
            </Position>
            <AltitudeMeters>10.3999996185302734375</AltitudeMeters>
            <DistanceMeters>NAN</DistanceMeters>
          </Trackpoint>
          <Trackpoint>
            <Time>2022-07-09T15:14:12.000Z</Time>
            <Position>
              <LatitudeDegrees>43.3215156756341457366943359375</LatitudeDegrees>
              <LongitudeDegrees>-1.98503650724887847900390625</LongitudeDegrees>
            </Position>
            <AltitudeMeters>10.6000003814697265625</AltitudeMeters>
            <DistanceMeters>NAN</DistanceMeters>
          </Trackpoint>
          <Trackpoint>
            <Time>2022-07-09T15:14:17.000Z</Time>
            <Position>
              <LatitudeDegrees>43.321573846042156219482421875</LatitudeDegrees>
              <LongitudeDegrees>-1.985053606331348419189453125</LongitudeDegrees>
            </Position>
            <AltitudeMeters>10.6000003814697265625</AltitudeMeters>
            <DistanceMeters>NAN</DistanceMeters>
          </Trackpoint>
          <Trackpoint>
            <Time>2022-07-09T15:14:22.000Z</Time>
            <Position>
              <LatitudeDegrees>43.3216289989650249481201171875</LatitudeDegrees>
              <LongitudeDegrees>-1.9850091822445392608642578125</LongitudeDegrees>
            </Position>
            <AltitudeMeters>10.3999996185302734375</AltitudeMeters>
            <DistanceMeters>NAN</DistanceMeters>
          </Trackpoint>
          <Trackpoint>
            <Time>2022-07-09T15:14:24.000Z</Time>
            <Position>
              <LatitudeDegrees>43.32164919935166835784912109375</LatitudeDegrees>
              <LongitudeDegrees>-1.98500054888427257537841796875</LongitudeDegrees>
            </Position>
            <AltitudeMeters>10.3999996185302734375</AltitudeMeters>
            <DistanceMeters>NAN</DistanceMeters>
          </Trackpoint>
          <Trackpoint>
            <Time>2022-07-09T15:14:25.000Z</Time>
            <Position>
              <LatitudeDegrees>43.32165800034999847412109375</LatitudeDegrees>
              <LongitudeDegrees>-1.9849981181323528289794921875</LongitudeDegrees>
            </Position>
            <AltitudeMeters>10.19999980926513671875</AltitudeMeters>
            <DistanceMeters>NAN</DistanceMeters>
          </Trackpoint>
          <Trackpoint>
            <Time>2022-07-09T15:14:27.000Z</Time>
            <Position>
              <LatitudeDegrees>43.32167937420308589935302734375</LatitudeDegrees>
              <LongitudeDegrees>-1.98499283753335475921630859375</LongitudeDegrees>
            </Position>
            <AltitudeMeters>10</AltitudeMeters>
            <DistanceMeters>NAN</DistanceMeters>
          </Trackpoint>
          <Trackpoint>
            <Time>2022-07-09T15:14:29.000Z</Time>
            <Position>
              <LatitudeDegrees>43.3217029273509979248046875</LatitudeDegrees>
              <LongitudeDegrees>-1.98499350808560848236083984375</LongitudeDegrees>
            </Position>
            <AltitudeMeters>10</AltitudeMeters>
            <DistanceMeters>NAN</DistanceMeters>
          </Trackpoint>
          <Trackpoint>
            <Time>2022-07-09T15:14:30.000Z</Time>
            <Position>
              <LatitudeDegrees>43.3217124827206134796142578125</LatitudeDegrees>
              <LongitudeDegrees>-1.9849857129156589508056640625</LongitudeDegrees>
            </Position>
            <AltitudeMeters>10</AltitudeMeters>
            <DistanceMeters>NAN</DistanceMeters>
          </Trackpoint>
          <Trackpoint>
            <Time>2022-07-09T15:14:37.000Z</Time>
            <Position>
              <LatitudeDegrees>43.32177056930959224700927734375</LatitudeDegrees>
              <LongitudeDegrees>-1.9849032349884510040283203125</LongitudeDegrees>
            </Position>
            <AltitudeMeters>10.19999980926513671875</AltitudeMeters>
            <DistanceMeters>NAN</DistanceMeters>
          </Trackpoint>
          <Trackpoint>
            <Time>2022-07-09T15:14:38.000Z</Time>
            <Position>
              <LatitudeDegrees>43.32177509553730487823486328125</LatitudeDegrees>
              <LongitudeDegrees>-1.98488471098244190216064453125</LongitudeDegrees>
            </Position>
            <AltitudeMeters>10.19999980926513671875</AltitudeMeters>
            <DistanceMeters>NAN</DistanceMeters>
          </Trackpoint>
          <Trackpoint>
            <Time>2022-07-09T15:14:39.000Z</Time>
            <Position>
              <LatitudeDegrees>43.321776688098907470703125</LatitudeDegrees>
              <LongitudeDegrees>-1.9848767481744289398193359375</LongitudeDegrees>
            </Position>
            <AltitudeMeters>10.19999980926513671875</AltitudeMeters>
            <DistanceMeters>NAN</DistanceMeters>
          </Trackpoint>
          <Trackpoint>
            <Time>2022-07-09T15:14:41.000Z</Time>
            <Position>
              <LatitudeDegrees>43.3217828907072544097900390625</LatitudeDegrees>
              <LongitudeDegrees>-1.9848583079874515533447265625</LongitudeDegrees>
            </Position>
            <AltitudeMeters>10.19999980926513671875</AltitudeMeters>
            <DistanceMeters>NAN</DistanceMeters>
          </Trackpoint>
          <Trackpoint>
            <Time>2022-07-09T15:14:42.000Z</Time>
            <Position>
              <LatitudeDegrees>43.32179035060107707977294921875</LatitudeDegrees>
              <LongitudeDegrees>-1.9848552905023097991943359375</LongitudeDegrees>
            </Position>
            <AltitudeMeters>10.19999980926513671875</AltitudeMeters>
            <DistanceMeters>NAN</DistanceMeters>
          </Trackpoint>
          <Trackpoint>
            <Time>2022-07-09T15:14:45.000Z</Time>
            <Position>
              <LatitudeDegrees>43.32179169170558452606201171875</LatitudeDegrees>
              <LongitudeDegrees>-1.98484741151332855224609375</LongitudeDegrees>
            </Position>
            <AltitudeMeters>10.3999996185302734375</AltitudeMeters>
            <DistanceMeters>NAN</DistanceMeters>
          </Trackpoint>
          <Trackpoint>
            <Time>2022-07-09T15:14:50.000Z</Time>
            <Position>
              <LatitudeDegrees>43.32181801088154315948486328125</LatitudeDegrees>
              <LongitudeDegrees>-1.9848640076816082000732421875</LongitudeDegrees>
            </Position>
            <AltitudeMeters>10.6000003814697265625</AltitudeMeters>
            <DistanceMeters>NAN</DistanceMeters>
          </Trackpoint>
          <Trackpoint>
            <Time>2022-07-09T15:14:54.000Z</Time>
            <Position>
              <LatitudeDegrees>43.3218972198665142059326171875</LatitudeDegrees>
              <LongitudeDegrees>-1.98483240790665149688720703125</LongitudeDegrees>
            </Position>
            <AltitudeMeters>10.6000003814697265625</AltitudeMeters>
            <DistanceMeters>NAN</DistanceMeters>
          </Trackpoint>
          <Trackpoint>
            <Time>2022-07-09T15:14:55.000Z</Time>
            <Position>
              <LatitudeDegrees>43.32190317101776599884033203125</LatitudeDegrees>
              <LongitudeDegrees>-1.9848321564495563507080078125</LongitudeDegrees>
            </Position>
            <AltitudeMeters>10.6000003814697265625</AltitudeMeters>
            <DistanceMeters>NAN</DistanceMeters>
          </Trackpoint>
          <Trackpoint>
            <Time>2022-07-09T15:14:58.000Z</Time>
            <Position>
              <LatitudeDegrees>43.3218978904187679290771484375</LatitudeDegrees>
              <LongitudeDegrees>-1.984841041266918182373046875</LongitudeDegrees>
            </Position>
            <AltitudeMeters>10.80000019073486328125</AltitudeMeters>
            <DistanceMeters>NAN</DistanceMeters>
          </Trackpoint>
          <Trackpoint>
            <Time>2022-07-09T15:17:02.000Z</Time>
            <Position>
              <LatitudeDegrees>43.32200107164680957794189453125</LatitudeDegrees>
              <LongitudeDegrees>-1.9848448969423770904541015625</LongitudeDegrees>
            </Position>
            <AltitudeMeters>13.19999980926513671875</AltitudeMeters>
            <DistanceMeters>NAN</DistanceMeters>
          </Trackpoint>
          <Trackpoint>
            <Time>2022-07-09T15:17:03.000Z</Time>
            <Position>
              <LatitudeDegrees>43.322015069425106048583984375</LatitudeDegrees>
              <LongitudeDegrees>-1.9848646782338619232177734375</LongitudeDegrees>
            </Position>
            <AltitudeMeters>13.19999980926513671875</AltitudeMeters>
            <DistanceMeters>NAN</DistanceMeters>
          </Trackpoint>
          <Trackpoint>
            <Time>2022-07-09T15:17:05.000Z</Time>
            <Position>
              <LatitudeDegrees>43.3220460824668407440185546875</LatitudeDegrees>
              <LongitudeDegrees>-1.98489074595272541046142578125</LongitudeDegrees>
            </Position>
            <AltitudeMeters>13.19999980926513671875</AltitudeMeters>
            <DistanceMeters>NAN</DistanceMeters>
          </Trackpoint>
          <Trackpoint>
            <Time>2022-07-09T15:17:06.000Z</Time>
            <Position>
              <LatitudeDegrees>43.3220692165195941925048828125</LatitudeDegrees>
              <LongitudeDegrees>-1.984896697103977203369140625</LongitudeDegrees>
            </Position>
            <AltitudeMeters>13.19999980926513671875</AltitudeMeters>
            <DistanceMeters>NAN</DistanceMeters>
          </Trackpoint>
          <Trackpoint>
            <Time>2022-07-09T15:17:07.000Z</Time>
            <Position>
              <LatitudeDegrees>43.32209520041942596435546875</LatitudeDegrees>
              <LongitudeDegrees>-1.9848921708762645721435546875</LongitudeDegrees>
            </Position>
            <AltitudeMeters>13.19999980926513671875</AltitudeMeters>
            <DistanceMeters>NAN</DistanceMeters>
          </Trackpoint>
          <Trackpoint>
            <Time>2022-07-09T15:17:09.000Z</Time>
            <Position>
              <LatitudeDegrees>43.32212830893695354461669921875</LatitudeDegrees>
              <LongitudeDegrees>-1.98488336987793445587158203125</LongitudeDegrees>
            </Position>
            <AltitudeMeters>13.19999980926513671875</AltitudeMeters>
            <DistanceMeters>NAN</DistanceMeters>
          </Trackpoint>
          <Trackpoint>
            <Time>2022-07-09T15:17:11.000Z</Time>
            <Position>
              <LatitudeDegrees>43.32214993424713611602783203125</LatitudeDegrees>
              <LongitudeDegrees>-1.98486618697643280029296875</LongitudeDegrees>
            </Position>
            <AltitudeMeters>13.19999980926513671875</AltitudeMeters>
            <DistanceMeters>NAN</DistanceMeters>
          </Trackpoint>
          <Trackpoint>
            <Time>2022-07-09T15:17:17.000Z</Time>
            <Position>
              <LatitudeDegrees>43.322221599519252777099609375</LatitudeDegrees>
              <LongitudeDegrees>-1.98473274707794189453125</LongitudeDegrees>
            </Position>
            <AltitudeMeters>13</AltitudeMeters>
            <DistanceMeters>NAN</DistanceMeters>
          </Trackpoint>
          <Trackpoint>
            <Time>2022-07-09T15:17:19.000Z</Time>
            <Position>
              <LatitudeDegrees>43.322233669459819793701171875</LatitudeDegrees>
              <LongitudeDegrees>-1.984690837562084197998046875</LongitudeDegrees>
            </Position>
            <AltitudeMeters>13</AltitudeMeters>
            <DistanceMeters>NAN</DistanceMeters>
          </Trackpoint>
          <Trackpoint>
            <Time>2022-07-09T15:17:21.000Z</Time>
            <Position>
              <LatitudeDegrees>43.32226241938769817352294921875</LatitudeDegrees>
              <LongitudeDegrees>-1.98465119116008281707763671875</LongitudeDegrees>
            </Position>
            <AltitudeMeters>13</AltitudeMeters>
            <DistanceMeters>NAN</DistanceMeters>
          </Trackpoint>
          <Trackpoint>
            <Time>2022-07-09T15:17:24.000Z</Time>
            <Position>
              <LatitudeDegrees>43.3222804404795169830322265625</LatitudeDegrees>
              <LongitudeDegrees>-1.984579525887966156005859375</LongitudeDegrees>
            </Position>
            <AltitudeMeters>13</AltitudeMeters>
            <DistanceMeters>NAN</DistanceMeters>
          </Trackpoint>
          <Trackpoint>
            <Time>2022-07-09T15:17:28.000Z</Time>
            <Position>
              <LatitudeDegrees>43.3222723938524723052978515625</LatitudeDegrees>
              <LongitudeDegrees>-1.9844858162105083465576171875</LongitudeDegrees>
            </Position>
            <AltitudeMeters>13</AltitudeMeters>
            <DistanceMeters>NAN</DistanceMeters>
          </Trackpoint>
          <Trackpoint>
            <Time>2022-07-09T15:17:30.000Z</Time>
            <Position>
              <LatitudeDegrees>43.32229108549654483795166015625</LatitudeDegrees>
              <LongitudeDegrees>-1.98442873544991016387939453125</LongitudeDegrees>
            </Position>
            <AltitudeMeters>12.80000019073486328125</AltitudeMeters>
            <DistanceMeters>NAN</DistanceMeters>
          </Trackpoint>
          <Trackpoint>
            <Time>2022-07-09T15:17:33.000Z</Time>
            <Position>
              <LatitudeDegrees>43.32232645712792873382568359375</LatitudeDegrees>
              <LongitudeDegrees>-1.98434256948530673980712890625</LongitudeDegrees>
            </Position>
            <AltitudeMeters>12.80000019073486328125</AltitudeMeters>
            <DistanceMeters>NAN</DistanceMeters>
          </Trackpoint>
          <Trackpoint>
            <Time>2022-07-09T15:17:38.000Z</Time>
            <Position>
              <LatitudeDegrees>43.32235931418836116790771484375</LatitudeDegrees>
              <LongitudeDegrees>-1.98420242406427860260009765625</LongitudeDegrees>
            </Position>
            <AltitudeMeters>12.80000019073486328125</AltitudeMeters>
            <DistanceMeters>NAN</DistanceMeters>
          </Trackpoint>
          <Trackpoint>
            <Time>2022-07-09T15:17:42.000Z</Time>
            <Position>
              <LatitudeDegrees>43.32238529808819293975830078125</LatitudeDegrees>
              <LongitudeDegrees>-1.98409211821854114532470703125</LongitudeDegrees>
            </Position>
            <AltitudeMeters>12.6000003814697265625</AltitudeMeters>
            <DistanceMeters>NAN</DistanceMeters>
          </Trackpoint>
          <Trackpoint>
            <Time>2022-07-09T15:17:45.000Z</Time>
            <Position>
              <LatitudeDegrees>43.322406671941280364990234375</LatitudeDegrees>
              <LongitudeDegrees>-1.984017603099346160888671875</LongitudeDegrees>
            </Position>
            <AltitudeMeters>12.6000003814697265625</AltitudeMeters>
            <DistanceMeters>NAN</DistanceMeters>
          </Trackpoint>
          <Trackpoint>
            <Time>2022-07-09T15:17:50.000Z</Time>
            <Position>
              <LatitudeDegrees>43.3224598132073879241943359375</LatitudeDegrees>
              <LongitudeDegrees>-1.98395381681621074676513671875</LongitudeDegrees>
            </Position>
            <AltitudeMeters>12.3999996185302734375</AltitudeMeters>
            <DistanceMeters>NAN</DistanceMeters>
          </Trackpoint>
          <Trackpoint>
            <Time>2022-07-09T15:17:52.000Z</Time>
            <Position>
              <LatitudeDegrees>43.322474397718906402587890625</LatitudeDegrees>
              <LongitudeDegrees>-1.98394493199884891510009765625</LongitudeDegrees>
            </Position>
            <AltitudeMeters>12.3999996185302734375</AltitudeMeters>
            <DistanceMeters>NAN</DistanceMeters>
          </Trackpoint>
          <Trackpoint>
            <Time>2022-07-09T15:17:54.000Z</Time>
            <Position>
              <LatitudeDegrees>43.32248738966882228851318359375</LatitudeDegrees>
              <LongitudeDegrees>-1.9839428365230560302734375</LongitudeDegrees>
            </Position>
            <AltitudeMeters>12.3999996185302734375</AltitudeMeters>
            <DistanceMeters>NAN</DistanceMeters>
          </Trackpoint>
          <Trackpoint>
            <Time>2022-07-09T15:17:55.000Z</Time>
            <Position>
              <LatitudeDegrees>43.32248386926949024200439453125</LatitudeDegrees>
              <LongitudeDegrees>-1.9839480333030223846435546875</LongitudeDegrees>
            </Position>
            <AltitudeMeters>12.19999980926513671875</AltitudeMeters>
            <DistanceMeters>NAN</DistanceMeters>
          </Trackpoint>
          <Trackpoint>
            <Time>2022-07-09T15:17:58.000Z</Time>
            <Position>
              <LatitudeDegrees>43.3224976994097232818603515625</LatitudeDegrees>
              <LongitudeDegrees>-1.98395691812038421630859375</LongitudeDegrees>
            </Position>
            <AltitudeMeters>12.3999996185302734375</AltitudeMeters>
            <DistanceMeters>NAN</DistanceMeters>
          </Trackpoint>
          <Trackpoint>
            <Time>2022-07-09T15:18:01.000Z</Time>
            <Position>
              <LatitudeDegrees>43.32253114320337772369384765625</LatitudeDegrees>
              <LongitudeDegrees>-1.98397560976445674896240234375</LongitudeDegrees>
            </Position>
            <AltitudeMeters>12.6000003814697265625</AltitudeMeters>
            <DistanceMeters>NAN</DistanceMeters>
          </Trackpoint>
          <Trackpoint>
            <Time>2022-07-09T15:18:02.000Z</Time>
            <Position>
              <LatitudeDegrees>43.32254715263843536376953125</LatitudeDegrees>
              <LongitudeDegrees>-1.9839830696582794189453125</LongitudeDegrees>
            </Position>
            <AltitudeMeters>12.6000003814697265625</AltitudeMeters>
            <DistanceMeters>NAN</DistanceMeters>
          </Trackpoint>
          <Trackpoint>
            <Time>2022-07-09T15:18:05.000Z</Time>
            <Position>
              <LatitudeDegrees>43.32259970717132091522216796875</LatitudeDegrees>
              <LongitudeDegrees>-1.9839906133711338043212890625</LongitudeDegrees>
            </Position>
            <AltitudeMeters>12.80000019073486328125</AltitudeMeters>
            <DistanceMeters>NAN</DistanceMeters>
          </Trackpoint>
          <Trackpoint>
            <Time>2022-07-09T15:18:06.000Z</Time>
            <Position>
              <LatitudeDegrees>43.3226207457482814788818359375</LatitudeDegrees>
              <LongitudeDegrees>-1.9839879311621189117431640625</LongitudeDegrees>
            </Position>
            <AltitudeMeters>12.80000019073486328125</AltitudeMeters>
            <DistanceMeters>NAN</DistanceMeters>
          </Trackpoint>
          <Trackpoint>
            <Time>2022-07-09T15:18:08.000Z</Time>
            <Position>
              <LatitudeDegrees>43.32265972159802913665771484375</LatitudeDegrees>
              <LongitudeDegrees>-1.98399321176111698150634765625</LongitudeDegrees>
            </Position>
            <AltitudeMeters>12.80000019073486328125</AltitudeMeters>
            <DistanceMeters>NAN</DistanceMeters>
          </Trackpoint>
          <Trackpoint>
            <Time>2022-07-09T15:18:10.000Z</Time>
            <Position>
              <LatitudeDegrees>43.32267799414694309234619140625</LatitudeDegrees>
              <LongitudeDegrees>-1.98398566804826259613037109375</LongitudeDegrees>
            </Position>
            <AltitudeMeters>12.80000019073486328125</AltitudeMeters>
            <DistanceMeters>NAN</DistanceMeters>
          </Trackpoint>
          <Trackpoint>
            <Time>2022-07-09T15:18:11.000Z</Time>
            <Position>
              <LatitudeDegrees>43.3226908184587955474853515625</LatitudeDegrees>
              <LongitudeDegrees>-1.98397829197347164154052734375</LongitudeDegrees>
            </Position>
            <AltitudeMeters>12.80000019073486328125</AltitudeMeters>
            <DistanceMeters>NAN</DistanceMeters>
          </Trackpoint>
          <Trackpoint>
            <Time>2022-07-09T15:18:16.000Z</Time>
            <Position>
              <LatitudeDegrees>43.32278997637331485748291015625</LatitudeDegrees>
              <LongitudeDegrees>-1.98400377295911312103271484375</LongitudeDegrees>
            </Position>
            <AltitudeMeters>12.80000019073486328125</AltitudeMeters>
            <DistanceMeters>NAN</DistanceMeters>
          </Trackpoint>
          <Trackpoint>
            <Time>2022-07-09T15:18:18.000Z</Time>
            <Position>
              <LatitudeDegrees>43.32281109876930713653564453125</LatitudeDegrees>
              <LongitudeDegrees>-1.98400125838816165924072265625</LongitudeDegrees>
            </Position>
            <AltitudeMeters>12.80000019073486328125</AltitudeMeters>
            <DistanceMeters>NAN</DistanceMeters>
          </Trackpoint>
          <Trackpoint>
            <Time>2022-07-09T15:18:21.000Z</Time>
            <Position>
              <LatitudeDegrees>43.32284345291554927825927734375</LatitudeDegrees>
              <LongitudeDegrees>-1.9840016774833202362060546875</LongitudeDegrees>
            </Position>
            <AltitudeMeters>13</AltitudeMeters>
            <DistanceMeters>NAN</DistanceMeters>
          </Trackpoint>
          <Trackpoint>
            <Time>2022-07-09T15:18:22.000Z</Time>
            <Position>
              <LatitudeDegrees>43.322848565876483917236328125</LatitudeDegrees>
              <LongitudeDegrees>-1.98400712572038173675537109375</LongitudeDegrees>
            </Position>
            <AltitudeMeters>13</AltitudeMeters>
            <DistanceMeters>NAN</DistanceMeters>
          </Trackpoint>
          <Trackpoint>
            <Time>2022-07-09T15:18:25.000Z</Time>
            <Position>
              <LatitudeDegrees>43.322888799011707305908203125</LatitudeDegrees>
              <LongitudeDegrees>-1.9840234704315662384033203125</LongitudeDegrees>
            </Position>
            <AltitudeMeters>13</AltitudeMeters>
            <DistanceMeters>NAN</DistanceMeters>
          </Trackpoint>
          <Trackpoint>
            <Time>2022-07-09T15:18:29.000Z</Time>
            <Position>
              <LatitudeDegrees>43.3229456283152103424072265625</LatitudeDegrees>
              <LongitudeDegrees>-1.98402690701186656951904296875</LongitudeDegrees>
            </Position>
            <AltitudeMeters>13</AltitudeMeters>
            <DistanceMeters>NAN</DistanceMeters>
          </Trackpoint>
          <Trackpoint>
            <Time>2022-07-09T15:18:30.000Z</Time>
            <Position>
              <LatitudeDegrees>43.32296633161604404449462890625</LatitudeDegrees>
              <LongitudeDegrees>-1.984031014144420623779296875</LongitudeDegrees>
            </Position>
            <AltitudeMeters>13</AltitudeMeters>
            <DistanceMeters>NAN</DistanceMeters>
          </Trackpoint>
          <Trackpoint>
            <Time>2022-07-09T15:18:37.000Z</Time>
            <Position>
              <LatitudeDegrees>43.3230924792587757110595703125</LatitudeDegrees>
              <LongitudeDegrees>-1.984077952802181243896484375</LongitudeDegrees>
            </Position>
            <AltitudeMeters>13.19999980926513671875</AltitudeMeters>
            <DistanceMeters>NAN</DistanceMeters>
          </Trackpoint>
          <Trackpoint>
            <Time>2022-07-09T15:18:41.000Z</Time>
            <Position>
              <LatitudeDegrees>43.3231508173048496246337890625</LatitudeDegrees>
              <LongitudeDegrees>-1.9840791262686252593994140625</LongitudeDegrees>
            </Position>
            <AltitudeMeters>13.3999996185302734375</AltitudeMeters>
            <DistanceMeters>NAN</DistanceMeters>
          </Trackpoint>
          <Trackpoint>
            <Time>2022-07-09T15:18:42.000Z</Time>
            <Position>
              <LatitudeDegrees>43.32316263578832149505615234375</LatitudeDegrees>
              <LongitudeDegrees>-1.98408759199082851409912109375</LongitudeDegrees>
            </Position>
            <AltitudeMeters>13.3999996185302734375</AltitudeMeters>
            <DistanceMeters>NAN</DistanceMeters>
          </Trackpoint>
          <Trackpoint>
            <Time>2022-07-09T15:18:47.000Z</Time>
            <Position>
              <LatitudeDegrees>43.323243521153926849365234375</LatitudeDegrees>
              <LongitudeDegrees>-1.984125562012195587158203125</LongitudeDegrees>
            </Position>
            <AltitudeMeters>13.6000003814697265625</AltitudeMeters>
            <DistanceMeters>NAN</DistanceMeters>
          </Trackpoint>
          <Trackpoint>
            <Time>2022-07-09T15:18:53.000Z</Time>
            <Position>
              <LatitudeDegrees>43.32333412952721118927001953125</LatitudeDegrees>
              <LongitudeDegrees>-1.98413151316344738006591796875</LongitudeDegrees>
            </Position>
            <AltitudeMeters>13.6000003814697265625</AltitudeMeters>
            <DistanceMeters>NAN</DistanceMeters>
          </Trackpoint>
          <Trackpoint>
            <Time>2022-07-09T15:18:57.000Z</Time>
            <Position>
              <LatitudeDegrees>43.32336497493088245391845703125</LatitudeDegrees>
              <LongitudeDegrees>-1.984133608639240264892578125</LongitudeDegrees>
            </Position>
            <AltitudeMeters>13.6000003814697265625</AltitudeMeters>
            <DistanceMeters>NAN</DistanceMeters>
          </Trackpoint>
          <Trackpoint>
            <Time>2022-07-09T15:19:03.000Z</Time>
            <Position>
              <LatitudeDegrees>43.323384337127208709716796875</LatitudeDegrees>
              <LongitudeDegrees>-1.98417174629867076873779296875</LongitudeDegrees>
            </Position>
            <AltitudeMeters>13.6000003814697265625</AltitudeMeters>
            <DistanceMeters>NAN</DistanceMeters>
          </Trackpoint>
          <Trackpoint>
            <Time>2022-07-09T15:19:04.000Z</Time>
            <Position>
              <LatitudeDegrees>43.32339481450617313385009765625</LatitudeDegrees>
              <LongitudeDegrees>-1.9841735064983367919921875</LongitudeDegrees>
            </Position>
            <AltitudeMeters>13.6000003814697265625</AltitudeMeters>
            <DistanceMeters>NAN</DistanceMeters>
          </Trackpoint>
          <Trackpoint>
            <Time>2022-07-09T15:19:06.000Z</Time>
            <Position>
              <LatitudeDegrees>43.3234166912734508514404296875</LatitudeDegrees>
              <LongitudeDegrees>-1.9841837324202060699462890625</LongitudeDegrees>
            </Position>
            <AltitudeMeters>13.3999996185302734375</AltitudeMeters>
            <DistanceMeters>NAN</DistanceMeters>
          </Trackpoint>
          <Trackpoint>
            <Time>2022-07-09T15:19:08.000Z</Time>
            <Position>
              <LatitudeDegrees>43.32344410009682178497314453125</LatitudeDegrees>
              <LongitudeDegrees>-1.984198987483978271484375</LongitudeDegrees>
            </Position>
            <AltitudeMeters>13.6000003814697265625</AltitudeMeters>
            <DistanceMeters>NAN</DistanceMeters>
          </Trackpoint>
          <Trackpoint>
            <Time>2022-07-09T15:19:12.000Z</Time>
            <Position>
              <LatitudeDegrees>43.3234968222677707672119140625</LatitudeDegrees>
              <LongitudeDegrees>-1.98420158587396144866943359375</LongitudeDegrees>
            </Position>
            <AltitudeMeters>13.6000003814697265625</AltitudeMeters>
            <DistanceMeters>NAN</DistanceMeters>
          </Trackpoint>
          <Trackpoint>
            <Time>2022-07-09T15:19:14.000Z</Time>
            <Position>
              <LatitudeDegrees>43.32353211008012294769287109375</LatitudeDegrees>
              <LongitudeDegrees>-1.98421147651970386505126953125</LongitudeDegrees>
            </Position>
            <AltitudeMeters>13.6000003814697265625</AltitudeMeters>
            <DistanceMeters>NAN</DistanceMeters>
          </Trackpoint>
          <Trackpoint>
            <Time>2022-07-09T15:19:15.000Z</Time>
            <Position>
              <LatitudeDegrees>43.32354686222970485687255859375</LatitudeDegrees>
              <LongitudeDegrees>-1.98421432636678218841552734375</LongitudeDegrees>
            </Position>
            <AltitudeMeters>13.6000003814697265625</AltitudeMeters>
            <DistanceMeters>NAN</DistanceMeters>
          </Trackpoint>
          <Trackpoint>
            <Time>2022-07-09T15:19:18.000Z</Time>
            <Position>
              <LatitudeDegrees>43.323589861392974853515625</LatitudeDegrees>
              <LongitudeDegrees>-1.984242908656597137451171875</LongitudeDegrees>
            </Position>
            <AltitudeMeters>13.3999996185302734375</AltitudeMeters>
            <DistanceMeters>NAN</DistanceMeters>
          </Trackpoint>
          <Trackpoint>
            <Time>2022-07-09T15:19:22.000Z</Time>
            <Position>
              <LatitudeDegrees>43.32363604567945003509521484375</LatitudeDegrees>
              <LongitudeDegrees>-1.98426646180450916290283203125</LongitudeDegrees>
            </Position>
            <AltitudeMeters>13.3999996185302734375</AltitudeMeters>
            <DistanceMeters>NAN</DistanceMeters>
          </Trackpoint>
          <Trackpoint>
            <Time>2022-07-09T15:19:24.000Z</Time>
            <Position>
              <LatitudeDegrees>43.323669321835041046142578125</LatitudeDegrees>
              <LongitudeDegrees>-1.98428205214440822601318359375</LongitudeDegrees>
            </Position>
            <AltitudeMeters>13.3999996185302734375</AltitudeMeters>
            <DistanceMeters>NAN</DistanceMeters>
          </Trackpoint>
          <Trackpoint>
            <Time>2022-07-09T15:19:29.000Z</Time>
            <Position>
              <LatitudeDegrees>43.3237660489976406097412109375</LatitudeDegrees>
              <LongitudeDegrees>-1.98428993113338947296142578125</LongitudeDegrees>
            </Position>
            <AltitudeMeters>13.6000003814697265625</AltitudeMeters>
            <DistanceMeters>NAN</DistanceMeters>
          </Trackpoint>
          <Trackpoint>
            <Time>2022-07-09T15:19:31.000Z</Time>
            <Position>
              <LatitudeDegrees>43.32380242645740509033203125</LatitudeDegrees>
              <LongitudeDegrees>-1.98427065275609493255615234375</LongitudeDegrees>
            </Position>
            <AltitudeMeters>13.6000003814697265625</AltitudeMeters>
            <DistanceMeters>NAN</DistanceMeters>
          </Trackpoint>
          <Trackpoint>
            <Time>2022-07-09T15:19:33.000Z</Time>
            <Position>
              <LatitudeDegrees>43.32383193075656890869140625</LatitudeDegrees>
              <LongitudeDegrees>-1.984268724918365478515625</LongitudeDegrees>
            </Position>
            <AltitudeMeters>13.6000003814697265625</AltitudeMeters>
            <DistanceMeters>NAN</DistanceMeters>
          </Trackpoint>
          <Trackpoint>
            <Time>2022-07-09T15:19:35.000Z</Time>
            <Position>
              <LatitudeDegrees>43.32386168651282787322998046875</LatitudeDegrees>
              <LongitudeDegrees>-1.98429085314273834228515625</LongitudeDegrees>
            </Position>
            <AltitudeMeters>13.6000003814697265625</AltitudeMeters>
            <DistanceMeters>NAN</DistanceMeters>
          </Trackpoint>
          <Trackpoint>
            <Time>2022-07-09T15:19:37.000Z</Time>
            <Position>
              <LatitudeDegrees>43.3239077031612396240234375</LatitudeDegrees>
              <LongitudeDegrees>-1.98429755866527557373046875</LongitudeDegrees>
            </Position>
            <AltitudeMeters>13.6000003814697265625</AltitudeMeters>
            <DistanceMeters>NAN</DistanceMeters>
          </Trackpoint>
          <Trackpoint>
            <Time>2022-07-09T15:19:38.000Z</Time>
            <Position>
              <LatitudeDegrees>43.32392438314855098724365234375</LatitudeDegrees>
              <LongitudeDegrees>-1.98428842239081859588623046875</LongitudeDegrees>
            </Position>
            <AltitudeMeters>13.6000003814697265625</AltitudeMeters>
            <DistanceMeters>NAN</DistanceMeters>
          </Trackpoint>
          <Trackpoint>
            <Time>2022-07-09T15:19:40.000Z</Time>
            <Position>
              <LatitudeDegrees>43.32395690493285655975341796875</LatitudeDegrees>
              <LongitudeDegrees>-1.98426579125225543975830078125</LongitudeDegrees>
            </Position>
            <AltitudeMeters>13.6000003814697265625</AltitudeMeters>
            <DistanceMeters>NAN</DistanceMeters>
          </Trackpoint>
          <Trackpoint>
            <Time>2022-07-09T15:19:46.000Z</Time>
            <Position>
              <LatitudeDegrees>43.32407391630113124847412109375</LatitudeDegrees>
              <LongitudeDegrees>-1.9843168370425701141357421875</LongitudeDegrees>
            </Position>
            <AltitudeMeters>13.3999996185302734375</AltitudeMeters>
            <DistanceMeters>NAN</DistanceMeters>
          </Trackpoint>
          <Trackpoint>
            <Time>2022-07-09T15:19:47.000Z</Time>
            <Position>
              <LatitudeDegrees>43.324095793068408966064453125</LatitudeDegrees>
              <LongitudeDegrees>-1.98431507684290409088134765625</LongitudeDegrees>
            </Position>
            <AltitudeMeters>13.3999996185302734375</AltitudeMeters>
            <DistanceMeters>NAN</DistanceMeters>
          </Trackpoint>
          <Trackpoint>
            <Time>2022-07-09T15:19:48.000Z</Time>
            <Position>
              <LatitudeDegrees>43.32411892712116241455078125</LatitudeDegrees>
              <LongitudeDegrees>-1.9843114726245403289794921875</LongitudeDegrees>
            </Position>
            <AltitudeMeters>13.3999996185302734375</AltitudeMeters>
            <DistanceMeters>NAN</DistanceMeters>
          </Trackpoint>
          <Trackpoint>
            <Time>2022-07-09T15:19:51.000Z</Time>
            <Position>
              <LatitudeDegrees>43.32417123019695281982421875</LatitudeDegrees>
              <LongitudeDegrees>-1.98434642516076564788818359375</LongitudeDegrees>
            </Position>
            <AltitudeMeters>13.19999980926513671875</AltitudeMeters>
            <DistanceMeters>NAN</DistanceMeters>
          </Trackpoint>
          <Trackpoint>
            <Time>2022-07-09T15:19:57.000Z</Time>
            <Position>
              <LatitudeDegrees>43.32424121908843517303466796875</LatitudeDegrees>
              <LongitudeDegrees>-1.98436989448964595794677734375</LongitudeDegrees>
            </Position>
            <AltitudeMeters>13.19999980926513671875</AltitudeMeters>
            <DistanceMeters>NAN</DistanceMeters>
          </Trackpoint>
          <Trackpoint>
            <Time>2022-07-09T15:20:01.000Z</Time>
            <Position>
              <LatitudeDegrees>43.32427759654819965362548828125</LatitudeDegrees>
              <LongitudeDegrees>-1.9843728281557559967041015625</LongitudeDegrees>
            </Position>
            <AltitudeMeters>13.19999980926513671875</AltitudeMeters>
            <DistanceMeters>NAN</DistanceMeters>
          </Trackpoint>
          <Trackpoint>
            <Time>2022-07-09T15:20:02.000Z</Time>
            <Position>
              <LatitudeDegrees>43.32428899593651294708251953125</LatitudeDegrees>
              <LongitudeDegrees>-1.98436335660517215728759765625</LongitudeDegrees>
            </Position>
            <AltitudeMeters>13.19999980926513671875</AltitudeMeters>
            <DistanceMeters>NAN</DistanceMeters>
          </Trackpoint>
          <Trackpoint>
            <Time>2022-07-09T15:20:07.000Z</Time>
            <Position>
              <LatitudeDegrees>43.3243554644286632537841796875</LatitudeDegrees>
              <LongitudeDegrees>-1.984346844255924224853515625</LongitudeDegrees>
            </Position>
            <AltitudeMeters>13.19999980926513671875</AltitudeMeters>
            <DistanceMeters>NAN</DistanceMeters>
          </Trackpoint>
          <Trackpoint>
            <Time>2022-07-09T15:20:09.000Z</Time>
            <Position>
              <LatitudeDegrees>43.32437264733016490936279296875</LatitudeDegrees>
              <LongitudeDegrees>-1.98436955921351909637451171875</LongitudeDegrees>
            </Position>
            <AltitudeMeters>13.19999980926513671875</AltitudeMeters>
            <DistanceMeters>NAN</DistanceMeters>
          </Trackpoint>
          <Trackpoint>
            <Time>2022-07-09T15:20:13.000Z</Time>
            <Position>
              <LatitudeDegrees>43.32440047524869441986083984375</LatitudeDegrees>
              <LongitudeDegrees>-1.98440895415842533111572265625</LongitudeDegrees>
            </Position>
            <AltitudeMeters>13.19999980926513671875</AltitudeMeters>
            <DistanceMeters>NAN</DistanceMeters>
          </Trackpoint>
          <Trackpoint>
            <Time>2022-07-09T15:20:15.000Z</Time>
            <Position>
              <LatitudeDegrees>43.32441262900829315185546875</LatitudeDegrees>
              <LongitudeDegrees>-1.9844103790819644927978515625</LongitudeDegrees>
            </Position>
            <AltitudeMeters>13.19999980926513671875</AltitudeMeters>
            <DistanceMeters>NAN</DistanceMeters>
          </Trackpoint>
          <Trackpoint>
            <Time>2022-07-09T15:20:16.000Z</Time>
            <Position>
              <LatitudeDegrees>43.3244020678102970123291015625</LatitudeDegrees>
              <LongitudeDegrees>-1.98441834188997745513916015625</LongitudeDegrees>
            </Position>
            <AltitudeMeters>13</AltitudeMeters>
            <DistanceMeters>NAN</DistanceMeters>
          </Trackpoint>
          <Trackpoint>
            <Time>2022-07-09T15:20:19.000Z</Time>
            <Position>
              <LatitudeDegrees>43.32438991405069828033447265625</LatitudeDegrees>
              <LongitudeDegrees>-1.9844435714185237884521484375</LongitudeDegrees>
            </Position>
            <AltitudeMeters>13</AltitudeMeters>
            <DistanceMeters>NAN</DistanceMeters>
          </Trackpoint>
          <Trackpoint>
            <Time>2022-07-09T15:20:24.000Z</Time>
            <Position>
              <LatitudeDegrees>43.32436711527407169342041015625</LatitudeDegrees>
              <LongitudeDegrees>-1.9844551384449005126953125</LongitudeDegrees>
            </Position>
            <AltitudeMeters>13</AltitudeMeters>
            <DistanceMeters>NAN</DistanceMeters>
          </Trackpoint>
          <Trackpoint>
            <Time>2022-07-09T15:21:04.000Z</Time>
            <Position>
              <LatitudeDegrees>43.3243480883538722991943359375</LatitudeDegrees>
              <LongitudeDegrees>-1.9845235347747802734375</LongitudeDegrees>
            </Position>
            <AltitudeMeters>13.19999980926513671875</AltitudeMeters>
            <DistanceMeters>NAN</DistanceMeters>
          </Trackpoint>
          <Trackpoint>
            <Time>2022-07-09T15:21:10.000Z</Time>
            <Position>
              <LatitudeDegrees>43.32441422156989574432373046875</LatitudeDegrees>
              <LongitudeDegrees>-1.98440006934106349945068359375</LongitudeDegrees>
            </Position>
            <AltitudeMeters>13.19999980926513671875</AltitudeMeters>
            <DistanceMeters>NAN</DistanceMeters>
          </Trackpoint>
          <Trackpoint>
            <Time>2022-07-09T15:21:14.000Z</Time>
            <Position>
              <LatitudeDegrees>43.32445864565670490264892578125</LatitudeDegrees>
              <LongitudeDegrees>-1.98438799940049648284912109375</LongitudeDegrees>
            </Position>
            <AltitudeMeters>13.19999980926513671875</AltitudeMeters>
            <DistanceMeters>NAN</DistanceMeters>
          </Trackpoint>
          <Trackpoint>
            <Time>2022-07-09T15:21:16.000Z</Time>
            <Position>
              <LatitudeDegrees>43.32449602894484996795654296875</LatitudeDegrees>
              <LongitudeDegrees>-1.98438732884824275970458984375</LongitudeDegrees>
            </Position>
            <AltitudeMeters>13.19999980926513671875</AltitudeMeters>
            <DistanceMeters>NAN</DistanceMeters>
          </Trackpoint>
          <Trackpoint>
            <Time>2022-07-09T15:21:18.000Z</Time>
            <Position>
              <LatitudeDegrees>43.32451966591179370880126953125</LatitudeDegrees>
              <LongitudeDegrees>-1.9844417273998260498046875</LongitudeDegrees>
            </Position>
            <AltitudeMeters>13.19999980926513671875</AltitudeMeters>
            <DistanceMeters>NAN</DistanceMeters>
          </Trackpoint>
          <Trackpoint>
            <Time>2022-07-09T15:21:22.000Z</Time>
            <Position>
              <LatitudeDegrees>43.3245676942169666290283203125</LatitudeDegrees>
              <LongitudeDegrees>-1.9844935275614261627197265625</LongitudeDegrees>
            </Position>
            <AltitudeMeters>13.3999996185302734375</AltitudeMeters>
            <DistanceMeters>NAN</DistanceMeters>
          </Trackpoint>
          <Trackpoint>
            <Time>2022-07-09T15:21:24.000Z</Time>
            <Position>
              <LatitudeDegrees>43.3245742321014404296875</LatitudeDegrees>
              <LongitudeDegrees>-1.984493024647235870361328125</LongitudeDegrees>
            </Position>
            <AltitudeMeters>13.3999996185302734375</AltitudeMeters>
            <DistanceMeters>NAN</DistanceMeters>
          </Trackpoint>
          <Trackpoint>
            <Time>2022-07-09T15:21:25.000Z</Time>
            <Position>
              <LatitudeDegrees>43.3245723880827426910400390625</LatitudeDegrees>
              <LongitudeDegrees>-1.9844953715801239013671875</LongitudeDegrees>
            </Position>
            <AltitudeMeters>13.3999996185302734375</AltitudeMeters>
            <DistanceMeters>NAN</DistanceMeters>
          </Trackpoint>
          <Trackpoint>
            <Time>2022-07-09T15:21:30.000Z</Time>
            <Position>
              <LatitudeDegrees>43.324547745287418365478515625</LatitudeDegrees>
              <LongitudeDegrees>-1.98449428193271160125732421875</LongitudeDegrees>
            </Position>
            <AltitudeMeters>13</AltitudeMeters>
            <DistanceMeters>NAN</DistanceMeters>
          </Trackpoint>
          <Trackpoint>
            <Time>2022-07-09T15:21:34.000Z</Time>
            <Position>
              <LatitudeDegrees>43.3245237730443477630615234375</LatitudeDegrees>
              <LongitudeDegrees>-1.984545998275279998779296875</LongitudeDegrees>
            </Position>
            <AltitudeMeters>13.19999980926513671875</AltitudeMeters>
            <DistanceMeters>NAN</DistanceMeters>
          </Trackpoint>
          <Trackpoint>
            <Time>2022-07-09T15:21:38.000Z</Time>
            <Position>
              <LatitudeDegrees>43.324455879628658294677734375</LatitudeDegrees>
              <LongitudeDegrees>-1.9847309030592441558837890625</LongitudeDegrees>
            </Position>
            <AltitudeMeters>13</AltitudeMeters>
            <DistanceMeters>NAN</DistanceMeters>
          </Trackpoint>
          <Trackpoint>
            <Time>2022-07-09T15:21:40.000Z</Time>
            <Position>
              <LatitudeDegrees>43.324432075023651123046875</LatitudeDegrees>
              <LongitudeDegrees>-1.98481178842484951019287109375</LongitudeDegrees>
            </Position>
            <AltitudeMeters>13</AltitudeMeters>
            <DistanceMeters>NAN</DistanceMeters>
          </Trackpoint>
          <Trackpoint>
            <Time>2022-07-09T15:21:42.000Z</Time>
            <Position>
              <LatitudeDegrees>43.32442662678658962249755859375</LatitudeDegrees>
              <LongitudeDegrees>-1.98485755361616611480712890625</LongitudeDegrees>
            </Position>
            <AltitudeMeters>13</AltitudeMeters>
            <DistanceMeters>NAN</DistanceMeters>
          </Trackpoint>
          <Trackpoint>
            <Time>2022-07-09T15:21:45.000Z</Time>
            <Position>
              <LatitudeDegrees>43.32436258904635906219482421875</LatitudeDegrees>
              <LongitudeDegrees>-1.98502242565155029296875</LongitudeDegrees>
            </Position>
            <AltitudeMeters>13</AltitudeMeters>
            <DistanceMeters>NAN</DistanceMeters>
          </Trackpoint>
          <Trackpoint>
            <Time>2022-07-09T15:21:46.000Z</Time>
            <Position>
              <LatitudeDegrees>43.3243464119732379913330078125</LatitudeDegrees>
              <LongitudeDegrees>-1.9850695319473743438720703125</LongitudeDegrees>
            </Position>
            <AltitudeMeters>13</AltitudeMeters>
            <DistanceMeters>NAN</DistanceMeters>
          </Trackpoint>
          <Trackpoint>
            <Time>2022-07-09T15:21:49.000Z</Time>
            <Position>
              <LatitudeDegrees>43.32432671450078487396240234375</LatitudeDegrees>
              <LongitudeDegrees>-1.98517170734703540802001953125</LongitudeDegrees>
            </Position>
            <AltitudeMeters>13.19999980926513671875</AltitudeMeters>
            <DistanceMeters>NAN</DistanceMeters>
          </Trackpoint>
          <Trackpoint>
            <Time>2022-07-09T15:21:50.000Z</Time>
            <Position>
              <LatitudeDegrees>43.32434381358325481414794921875</LatitudeDegrees>
              <LongitudeDegrees>-1.9851778261363506317138671875</LongitudeDegrees>
            </Position>
            <AltitudeMeters>13.3999996185302734375</AltitudeMeters>
            <DistanceMeters>NAN</DistanceMeters>
          </Trackpoint>
          <Trackpoint>
            <Time>2022-07-09T15:21:52.000Z</Time>
            <Position>
              <LatitudeDegrees>43.3243450708687305450439453125</LatitudeDegrees>
              <LongitudeDegrees>-1.98517288081347942352294921875</LongitudeDegrees>
            </Position>
            <AltitudeMeters>13.3999996185302734375</AltitudeMeters>
            <DistanceMeters>NAN</DistanceMeters>
          </Trackpoint>
          <Trackpoint>
            <Time>2022-07-09T15:21:53.000Z</Time>
            <Position>
              <LatitudeDegrees>43.3243314921855926513671875</LatitudeDegrees>
              <LongitudeDegrees>-1.9851820170879364013671875</LongitudeDegrees>
            </Position>
            <AltitudeMeters>13.3999996185302734375</AltitudeMeters>
            <DistanceMeters>NAN</DistanceMeters>
          </Trackpoint>
          <Trackpoint>
            <Time>2022-07-09T15:21:56.000Z</Time>
            <Position>
              <LatitudeDegrees>43.3243393711745738983154296875</LatitudeDegrees>
              <LongitudeDegrees>-1.985143125057220458984375</LongitudeDegrees>
            </Position>
            <AltitudeMeters>13.6000003814697265625</AltitudeMeters>
            <DistanceMeters>NAN</DistanceMeters>
          </Trackpoint>
          <Trackpoint>
            <Time>2022-07-09T15:25:31.000Z</Time>
            <Position>
              <LatitudeDegrees>43.32429855130612850189208984375</LatitudeDegrees>
              <LongitudeDegrees>-1.9852163828909397125244140625</LongitudeDegrees>
            </Position>
            <AltitudeMeters>13.80000019073486328125</AltitudeMeters>
            <DistanceMeters>NAN</DistanceMeters>
          </Trackpoint>
          <Trackpoint>
            <Time>2022-07-09T15:25:32.000Z</Time>
            <Position>
              <LatitudeDegrees>43.3242756687104701995849609375</LatitudeDegrees>
              <LongitudeDegrees>-1.98519366793334484100341796875</LongitudeDegrees>
            </Position>
            <AltitudeMeters>13.80000019073486328125</AltitudeMeters>
            <DistanceMeters>NAN</DistanceMeters>
          </Trackpoint>
          <Trackpoint>
            <Time>2022-07-09T15:25:35.000Z</Time>
            <Position>
              <LatitudeDegrees>43.324226550757884979248046875</LatitudeDegrees>
              <LongitudeDegrees>-1.9851721264421939849853515625</LongitudeDegrees>
            </Position>
            <AltitudeMeters>13.80000019073486328125</AltitudeMeters>
            <DistanceMeters>NAN</DistanceMeters>
          </Trackpoint>
          <Trackpoint>
            <Time>2022-07-09T15:25:36.000Z</Time>
            <Position>
              <LatitudeDegrees>43.324222527444362640380859375</LatitudeDegrees>
              <LongitudeDegrees>-1.9851838611066341400146484375</LongitudeDegrees>
            </Position>
            <AltitudeMeters>13.80000019073486328125</AltitudeMeters>
            <DistanceMeters>NAN</DistanceMeters>
          </Trackpoint>
          <Trackpoint>
            <Time>2022-07-09T15:25:38.000Z</Time>
            <Position>
              <LatitudeDegrees>43.3241918496787548065185546875</LatitudeDegrees>
              <LongitudeDegrees>-1.98523859493434429168701171875</LongitudeDegrees>
            </Position>
            <AltitudeMeters>13.6000003814697265625</AltitudeMeters>
            <DistanceMeters>NAN</DistanceMeters>
          </Trackpoint>
          <Trackpoint>
            <Time>2022-07-09T15:25:40.000Z</Time>
            <Position>
              <LatitudeDegrees>43.32417282275855541229248046875</LatitudeDegrees>
              <LongitudeDegrees>-1.9853032194077968597412109375</LongitudeDegrees>
            </Position>
            <AltitudeMeters>13.6000003814697265625</AltitudeMeters>
            <DistanceMeters>NAN</DistanceMeters>
          </Trackpoint>
          <Trackpoint>
            <Time>2022-07-09T15:25:44.000Z</Time>
            <Position>
              <LatitudeDegrees>43.32414440810680389404296875</LatitudeDegrees>
              <LongitudeDegrees>-1.9853900559246540069580078125</LongitudeDegrees>
            </Position>
            <AltitudeMeters>13.80000019073486328125</AltitudeMeters>
            <DistanceMeters>NAN</DistanceMeters>
          </Trackpoint>
          <Trackpoint>
            <Time>2022-07-09T15:25:45.000Z</Time>
            <Position>
              <LatitudeDegrees>43.3241378702223300933837890625</LatitudeDegrees>
              <LongitudeDegrees>-1.98541712947189807891845703125</LongitudeDegrees>
            </Position>
            <AltitudeMeters>13.80000019073486328125</AltitudeMeters>
            <DistanceMeters>NAN</DistanceMeters>
          </Trackpoint>
          <Trackpoint>
            <Time>2022-07-09T15:25:47.000Z</Time>
            <Position>
              <LatitudeDegrees>43.32412923686206340789794921875</LatitudeDegrees>
              <LongitudeDegrees>-1.9855020381510257720947265625</LongitudeDegrees>
            </Position>
            <AltitudeMeters>14</AltitudeMeters>
            <DistanceMeters>NAN</DistanceMeters>
          </Trackpoint>
          <Trackpoint>
            <Time>2022-07-09T15:25:49.000Z</Time>
            <Position>
              <LatitudeDegrees>43.3241291530430316925048828125</LatitudeDegrees>
              <LongitudeDegrees>-1.985549144446849822998046875</LongitudeDegrees>
            </Position>
            <AltitudeMeters>14</AltitudeMeters>
            <DistanceMeters>NAN</DistanceMeters>
          </Trackpoint>
          <Trackpoint>
            <Time>2022-07-09T15:25:52.000Z</Time>
            <Position>
              <LatitudeDegrees>43.324114568531513214111328125</LatitudeDegrees>
              <LongitudeDegrees>-1.98559985496103763580322265625</LongitudeDegrees>
            </Position>
            <AltitudeMeters>14</AltitudeMeters>
            <DistanceMeters>NAN</DistanceMeters>
          </Trackpoint>
          <Trackpoint>
            <Time>2022-07-09T15:25:54.000Z</Time>
            <Position>
              <LatitudeDegrees>43.32407961599528789520263671875</LatitudeDegrees>
              <LongitudeDegrees>-1.98563556186854839324951171875</LongitudeDegrees>
            </Position>
            <AltitudeMeters>14</AltitudeMeters>
            <DistanceMeters>NAN</DistanceMeters>
          </Trackpoint>
          <Trackpoint>
            <Time>2022-07-09T15:25:55.000Z</Time>
            <Position>
              <LatitudeDegrees>43.32406251691281795501708984375</LatitudeDegrees>
              <LongitudeDegrees>-1.9856649823486804962158203125</LongitudeDegrees>
            </Position>
            <AltitudeMeters>14</AltitudeMeters>
            <DistanceMeters>NAN</DistanceMeters>
          </Trackpoint>
          <Trackpoint>
            <Time>2022-07-09T15:25:58.000Z</Time>
            <Position>
              <LatitudeDegrees>43.32402043975889682769775390625</LatitudeDegrees>
              <LongitudeDegrees>-1.985736228525638580322265625</LongitudeDegrees>
            </Position>
            <AltitudeMeters>14</AltitudeMeters>
            <DistanceMeters>NAN</DistanceMeters>
          </Trackpoint>
          <Trackpoint>
            <Time>2022-07-09T15:26:01.000Z</Time>
            <Position>
              <LatitudeDegrees>43.3240235410630702972412109375</LatitudeDegrees>
              <LongitudeDegrees>-1.9858332909643650054931640625</LongitudeDegrees>
            </Position>
            <AltitudeMeters>14</AltitudeMeters>
            <DistanceMeters>NAN</DistanceMeters>
          </Trackpoint>
          <Trackpoint>
            <Time>2022-07-09T15:26:05.000Z</Time>
            <Position>
              <LatitudeDegrees>43.3239900134503841400146484375</LatitudeDegrees>
              <LongitudeDegrees>-1.98592364788055419921875</LongitudeDegrees>
            </Position>
            <AltitudeMeters>14.19999980926513671875</AltitudeMeters>
            <DistanceMeters>NAN</DistanceMeters>
          </Trackpoint>
          <Trackpoint>
            <Time>2022-07-09T15:26:07.000Z</Time>
            <Position>
              <LatitudeDegrees>43.323977775871753692626953125</LatitudeDegrees>
              <LongitudeDegrees>-1.9858969934284687042236328125</LongitudeDegrees>
            </Position>
            <AltitudeMeters>14.19999980926513671875</AltitudeMeters>
            <DistanceMeters>NAN</DistanceMeters>
          </Trackpoint>
          <Trackpoint>
            <Time>2022-07-09T15:26:08.000Z</Time>
            <Position>
              <LatitudeDegrees>43.32396729849278926849365234375</LatitudeDegrees>
              <LongitudeDegrees>-1.985897161066532135009765625</LongitudeDegrees>
            </Position>
            <AltitudeMeters>14.19999980926513671875</AltitudeMeters>
            <DistanceMeters>NAN</DistanceMeters>
          </Trackpoint>
          <Trackpoint>
            <Time>2022-07-09T15:26:10.000Z</Time>
            <Position>
              <LatitudeDegrees>43.32393645308911800384521484375</LatitudeDegrees>
              <LongitudeDegrees>-1.98590462096035480499267578125</LongitudeDegrees>
            </Position>
            <AltitudeMeters>14.3999996185302734375</AltitudeMeters>
            <DistanceMeters>NAN</DistanceMeters>
          </Trackpoint>
          <Trackpoint>
            <Time>2022-07-09T15:26:11.000Z</Time>
            <Position>
              <LatitudeDegrees>43.32392723299562931060791015625</LatitudeDegrees>
              <LongitudeDegrees>-1.98592473752796649932861328125</LongitudeDegrees>
            </Position>
            <AltitudeMeters>14.3999996185302734375</AltitudeMeters>
            <DistanceMeters>NAN</DistanceMeters>
          </Trackpoint>
          <Trackpoint>
            <Time>2022-07-09T15:26:12.000Z</Time>
            <Position>
              <LatitudeDegrees>43.3239108882844448089599609375</LatitudeDegrees>
              <LongitudeDegrees>-1.985942088067531585693359375</LongitudeDegrees>
            </Position>
            <AltitudeMeters>14.3999996185302734375</AltitudeMeters>
            <DistanceMeters>NAN</DistanceMeters>
          </Trackpoint>
          <Trackpoint>
            <Time>2022-07-09T15:26:15.000Z</Time>
            <Position>
              <LatitudeDegrees>43.32384894602000713348388671875</LatitudeDegrees>
              <LongitudeDegrees>-1.98598324321210384368896484375</LongitudeDegrees>
            </Position>
            <AltitudeMeters>14.6000003814697265625</AltitudeMeters>
            <DistanceMeters>NAN</DistanceMeters>
          </Trackpoint>
          <Trackpoint>
            <Time>2022-07-09T15:26:19.000Z</Time>
            <Position>
              <LatitudeDegrees>43.32378138788044452667236328125</LatitudeDegrees>
              <LongitudeDegrees>-1.98601241223514080047607421875</LongitudeDegrees>
            </Position>
            <AltitudeMeters>15</AltitudeMeters>
            <DistanceMeters>NAN</DistanceMeters>
          </Trackpoint>
          <Trackpoint>
            <Time>2022-07-09T15:26:20.000Z</Time>
            <Position>
              <LatitudeDegrees>43.323778621852397918701171875</LatitudeDegrees>
              <LongitudeDegrees>-1.98603051714599132537841796875</LongitudeDegrees>
            </Position>
            <AltitudeMeters>15</AltitudeMeters>
            <DistanceMeters>NAN</DistanceMeters>
          </Trackpoint>
          <Trackpoint>
            <Time>2022-07-09T15:26:22.000Z</Time>
            <Position>
              <LatitudeDegrees>43.32377786748111248016357421875</LatitudeDegrees>
              <LongitudeDegrees>-1.9860592670738697052001953125</LongitudeDegrees>
            </Position>
            <AltitudeMeters>15.19999980926513671875</AltitudeMeters>
            <DistanceMeters>NAN</DistanceMeters>
          </Trackpoint>
          <Trackpoint>
            <Time>2022-07-09T15:26:24.000Z</Time>
            <Position>
              <LatitudeDegrees>43.32377233542501926422119140625</LatitudeDegrees>
              <LongitudeDegrees>-1.98611131869256496429443359375</LongitudeDegrees>
            </Position>
            <AltitudeMeters>15.19999980926513671875</AltitudeMeters>
            <DistanceMeters>NAN</DistanceMeters>
          </Trackpoint>
          <Trackpoint>
            <Time>2022-07-09T15:26:25.000Z</Time>
            <Position>
              <LatitudeDegrees>43.3237657137215137481689453125</LatitudeDegrees>
              <LongitudeDegrees>-1.98613545857369899749755859375</LongitudeDegrees>
            </Position>
            <AltitudeMeters>15.3999996185302734375</AltitudeMeters>
            <DistanceMeters>NAN</DistanceMeters>
          </Trackpoint>
          <Trackpoint>
            <Time>2022-07-09T15:26:27.000Z</Time>
            <Position>
              <LatitudeDegrees>43.323750793933868408203125</LatitudeDegrees>
              <LongitudeDegrees>-1.9861739315092563629150390625</LongitudeDegrees>
            </Position>
            <AltitudeMeters>15.3999996185302734375</AltitudeMeters>
            <DistanceMeters>NAN</DistanceMeters>
          </Trackpoint>
          <Trackpoint>
            <Time>2022-07-09T15:26:28.000Z</Time>
            <Position>
              <LatitudeDegrees>43.32374048419296741485595703125</LatitudeDegrees>
              <LongitudeDegrees>-1.98618155904114246368408203125</LongitudeDegrees>
            </Position>
            <AltitudeMeters>15.6000003814697265625</AltitudeMeters>
            <DistanceMeters>NAN</DistanceMeters>
          </Trackpoint>
          <Trackpoint>
            <Time>2022-07-09T15:26:31.000Z</Time>
            <Position>
              <LatitudeDegrees>43.3237333595752716064453125</LatitudeDegrees>
              <LongitudeDegrees>-1.986278705298900604248046875</LongitudeDegrees>
            </Position>
            <AltitudeMeters>16</AltitudeMeters>
            <DistanceMeters>NAN</DistanceMeters>
          </Trackpoint>
          <Trackpoint>
            <Time>2022-07-09T15:26:33.000Z</Time>
            <Position>
              <LatitudeDegrees>43.3237506262958049774169921875</LatitudeDegrees>
              <LongitudeDegrees>-1.98637736029922962188720703125</LongitudeDegrees>
            </Position>
            <AltitudeMeters>16.200000762939453125</AltitudeMeters>
            <DistanceMeters>NAN</DistanceMeters>
          </Trackpoint>
          <Trackpoint>
            <Time>2022-07-09T15:26:35.000Z</Time>
            <Position>
              <LatitudeDegrees>43.323752470314502716064453125</LatitudeDegrees>
              <LongitudeDegrees>-1.9864560663700103759765625</LongitudeDegrees>
            </Position>
            <AltitudeMeters>16</AltitudeMeters>
            <DistanceMeters>NAN</DistanceMeters>
          </Trackpoint>
          <Trackpoint>
            <Time>2022-07-09T15:26:38.000Z</Time>
            <Position>
              <LatitudeDegrees>43.3237268216907978057861328125</LatitudeDegrees>
              <LongitudeDegrees>-1.98651733808219432830810546875</LongitudeDegrees>
            </Position>
            <AltitudeMeters>16</AltitudeMeters>
            <DistanceMeters>NAN</DistanceMeters>
          </Trackpoint>
          <Trackpoint>
            <Time>2022-07-09T15:26:40.000Z</Time>
            <Position>
              <LatitudeDegrees>43.32368382252752780914306640625</LatitudeDegrees>
              <LongitudeDegrees>-1.9865333475172519683837890625</LongitudeDegrees>
            </Position>
            <AltitudeMeters>15.80000019073486328125</AltitudeMeters>
            <DistanceMeters>NAN</DistanceMeters>
          </Trackpoint>
          <Trackpoint>
            <Time>2022-07-09T15:26:43.000Z</Time>
            <Position>
              <LatitudeDegrees>43.32367368042469024658203125</LatitudeDegrees>
              <LongitudeDegrees>-1.98654382489621639251708984375</LongitudeDegrees>
            </Position>
            <AltitudeMeters>15.80000019073486328125</AltitudeMeters>
            <DistanceMeters>NAN</DistanceMeters>
          </Trackpoint>
          <Trackpoint>
            <Time>2022-07-09T15:26:44.000Z</Time>
            <Position>
              <LatitudeDegrees>43.32367225550115108489990234375</LatitudeDegrees>
              <LongitudeDegrees>-1.9865507818758487701416015625</LongitudeDegrees>
            </Position>
            <AltitudeMeters>15.80000019073486328125</AltitudeMeters>
            <DistanceMeters>NAN</DistanceMeters>
          </Trackpoint>
          <Trackpoint>
            <Time>2022-07-09T15:27:06.000Z</Time>
            <Position>
              <LatitudeDegrees>43.323503024876117706298828125</LatitudeDegrees>
              <LongitudeDegrees>-1.98642991483211517333984375</LongitudeDegrees>
            </Position>
            <AltitudeMeters>15</AltitudeMeters>
            <DistanceMeters>NAN</DistanceMeters>
          </Trackpoint>
          <Trackpoint>
            <Time>2022-07-09T15:27:08.000Z</Time>
            <Position>
              <LatitudeDegrees>43.32348190248012542724609375</LatitudeDegrees>
              <LongitudeDegrees>-1.9864069484174251556396484375</LongitudeDegrees>
            </Position>
            <AltitudeMeters>15</AltitudeMeters>
            <DistanceMeters>NAN</DistanceMeters>
          </Trackpoint>
          <Trackpoint>
            <Time>2022-07-09T15:27:14.000Z</Time>
            <Position>
              <LatitudeDegrees>43.32343286834657192230224609375</LatitudeDegrees>
              <LongitudeDegrees>-1.9863623566925525665283203125</LongitudeDegrees>
            </Position>
            <AltitudeMeters>14.80000019073486328125</AltitudeMeters>
            <DistanceMeters>NAN</DistanceMeters>
          </Trackpoint>
          <Trackpoint>
            <Time>2022-07-09T15:27:17.000Z</Time>
            <Position>
              <LatitudeDegrees>43.32341057248413562774658203125</LatitudeDegrees>
              <LongitudeDegrees>-1.98634886182844638824462890625</LongitudeDegrees>
            </Position>
            <AltitudeMeters>14.80000019073486328125</AltitudeMeters>
            <DistanceMeters>NAN</DistanceMeters>
          </Trackpoint>
          <Trackpoint>
            <Time>2022-07-09T15:27:18.000Z</Time>
            <Position>
              <LatitudeDegrees>43.32340168766677379608154296875</LatitudeDegrees>
              <LongitudeDegrees>-1.9863455928862094879150390625</LongitudeDegrees>
            </Position>
            <AltitudeMeters>14.80000019073486328125</AltitudeMeters>
            <DistanceMeters>NAN</DistanceMeters>
          </Trackpoint>
          <Trackpoint>
            <Time>2022-07-09T15:27:19.000Z</Time>
            <Position>
              <LatitudeDegrees>43.32340638153254985809326171875</LatitudeDegrees>
              <LongitudeDegrees>-1.98633603751659393310546875</LongitudeDegrees>
            </Position>
            <AltitudeMeters>14.80000019073486328125</AltitudeMeters>
            <DistanceMeters>NAN</DistanceMeters>
          </Trackpoint>
          <Trackpoint>
            <Time>2022-07-09T15:27:24.000Z</Time>
            <Position>
              <LatitudeDegrees>43.32337637431919574737548828125</LatitudeDegrees>
              <LongitudeDegrees>-1.98633360676467418670654296875</LongitudeDegrees>
            </Position>
            <AltitudeMeters>14.6000003814697265625</AltitudeMeters>
            <DistanceMeters>NAN</DistanceMeters>
          </Trackpoint>
          <Trackpoint>
            <Time>2022-07-09T15:27:25.000Z</Time>
            <Position>
              <LatitudeDegrees>43.32337888889014720916748046875</LatitudeDegrees>
              <LongitudeDegrees>-1.9863254763185977935791015625</LongitudeDegrees>
            </Position>
            <AltitudeMeters>14.6000003814697265625</AltitudeMeters>
            <DistanceMeters>NAN</DistanceMeters>
          </Trackpoint>
          <Trackpoint>
            <Time>2022-07-09T15:27:30.000Z</Time>
            <Position>
              <LatitudeDegrees>43.32340051420032978057861328125</LatitudeDegrees>
              <LongitudeDegrees>-1.98631835170090198516845703125</LongitudeDegrees>
            </Position>
            <AltitudeMeters>14.6000003814697265625</AltitudeMeters>
            <DistanceMeters>NAN</DistanceMeters>
          </Trackpoint>
          <Trackpoint>
            <Time>2022-07-09T15:27:37.000Z</Time>
            <Position>
              <LatitudeDegrees>43.32342021167278289794921875</LatitudeDegrees>
              <LongitudeDegrees>-1.98633469641208648681640625</LongitudeDegrees>
            </Position>
            <AltitudeMeters>14.80000019073486328125</AltitudeMeters>
            <DistanceMeters>NAN</DistanceMeters>
          </Trackpoint>
          <Trackpoint>
            <Time>2022-07-09T15:27:41.000Z</Time>
            <Position>
              <LatitudeDegrees>43.323429934680461883544921875</LatitudeDegrees>
              <LongitudeDegrees>-1.9863345287740230560302734375</LongitudeDegrees>
            </Position>
            <AltitudeMeters>14.80000019073486328125</AltitudeMeters>
            <DistanceMeters>NAN</DistanceMeters>
          </Trackpoint>
          <Trackpoint>
            <Time>2022-07-09T15:27:46.000Z</Time>
            <Position>
              <LatitudeDegrees>43.32343203015625476837158203125</LatitudeDegrees>
              <LongitudeDegrees>-1.98634232394397258758544921875</LongitudeDegrees>
            </Position>
            <AltitudeMeters>14.80000019073486328125</AltitudeMeters>
            <DistanceMeters>NAN</DistanceMeters>
          </Trackpoint>
          <Trackpoint>
            <Time>2022-07-09T15:27:47.000Z</Time>
            <Position>
              <LatitudeDegrees>43.32342850975692272186279296875</LatitudeDegrees>
              <LongitudeDegrees>-1.98634006083011627197265625</LongitudeDegrees>
            </Position>
            <AltitudeMeters>14.80000019073486328125</AltitudeMeters>
            <DistanceMeters>NAN</DistanceMeters>
          </Trackpoint>
          <Trackpoint>
            <Time>2022-07-09T15:28:07.000Z</Time>
            <Position>
              <LatitudeDegrees>43.32353076897561550140380859375</LatitudeDegrees>
              <LongitudeDegrees>-1.98637400753796100616455078125</LongitudeDegrees>
            </Position>
            <AltitudeMeters>14.6000003814697265625</AltitudeMeters>
            <DistanceMeters>NAN</DistanceMeters>
          </Trackpoint>
          <Trackpoint>
            <Time>2022-07-09T15:28:08.000Z</Time>
            <Position>
              <LatitudeDegrees>43.323543928563594818115234375</LatitudeDegrees>
              <LongitudeDegrees>-1.98638993315398693084716796875</LongitudeDegrees>
            </Position>
            <AltitudeMeters>14.6000003814697265625</AltitudeMeters>
            <DistanceMeters>NAN</DistanceMeters>
          </Trackpoint>
          <Trackpoint>
            <Time>2022-07-09T15:28:09.000Z</Time>
            <Position>
              <LatitudeDegrees>43.32355499267578125</LatitudeDegrees>
              <LongitudeDegrees>-1.98640770278871059417724609375</LongitudeDegrees>
            </Position>
            <AltitudeMeters>14.6000003814697265625</AltitudeMeters>
            <DistanceMeters>NAN</DistanceMeters>
          </Trackpoint>
          <Trackpoint>
            <Time>2022-07-09T15:28:17.000Z</Time>
            <Position>
              <LatitudeDegrees>43.323669321835041046142578125</LatitudeDegrees>
              <LongitudeDegrees>-1.986527480185031890869140625</LongitudeDegrees>
            </Position>
            <AltitudeMeters>15</AltitudeMeters>
            <DistanceMeters>NAN</DistanceMeters>
          </Trackpoint>
          <Trackpoint>
            <Time>2022-07-09T15:28:18.000Z</Time>
            <Position>
              <LatitudeDegrees>43.3236822299659252166748046875</LatitudeDegrees>
              <LongitudeDegrees>-1.98654432781040668487548828125</LongitudeDegrees>
            </Position>
            <AltitudeMeters>15</AltitudeMeters>
            <DistanceMeters>NAN</DistanceMeters>
          </Trackpoint>
          <Trackpoint>
            <Time>2022-07-09T15:28:22.000Z</Time>
            <Position>
              <LatitudeDegrees>43.32372372038662433624267578125</LatitudeDegrees>
              <LongitudeDegrees>-1.98650501668453216552734375</LongitudeDegrees>
            </Position>
            <AltitudeMeters>15.3999996185302734375</AltitudeMeters>
            <DistanceMeters>NAN</DistanceMeters>
          </Trackpoint>
          <Trackpoint>
            <Time>2022-07-09T15:28:26.000Z</Time>
            <Position>
              <LatitudeDegrees>43.32376479171216487884521484375</LatitudeDegrees>
              <LongitudeDegrees>-1.98640937916934490203857421875</LongitudeDegrees>
            </Position>
            <AltitudeMeters>15.3999996185302734375</AltitudeMeters>
            <DistanceMeters>NAN</DistanceMeters>
          </Trackpoint>
          <Trackpoint>
            <Time>2022-07-09T15:28:28.000Z</Time>
            <Position>
              <LatitudeDegrees>43.32379848696291446685791015625</LatitudeDegrees>
              <LongitudeDegrees>-1.98634207248687744140625</LongitudeDegrees>
            </Position>
            <AltitudeMeters>15.19999980926513671875</AltitudeMeters>
            <DistanceMeters>NAN</DistanceMeters>
          </Trackpoint>
          <Trackpoint>
            <Time>2022-07-09T15:28:30.000Z</Time>
            <Position>
              <LatitudeDegrees>43.32382346503436565399169921875</LatitudeDegrees>
              <LongitudeDegrees>-1.9862507097423076629638671875</LongitudeDegrees>
            </Position>
            <AltitudeMeters>15</AltitudeMeters>
            <DistanceMeters>NAN</DistanceMeters>
          </Trackpoint>
          <Trackpoint>
            <Time>2022-07-09T15:28:33.000Z</Time>
            <Position>
              <LatitudeDegrees>43.32386218942701816558837890625</LatitudeDegrees>
              <LongitudeDegrees>-1.98615993373095989227294921875</LongitudeDegrees>
            </Position>
            <AltitudeMeters>14.6000003814697265625</AltitudeMeters>
            <DistanceMeters>NAN</DistanceMeters>
          </Trackpoint>
          <Trackpoint>
            <Time>2022-07-09T15:28:34.000Z</Time>
            <Position>
              <LatitudeDegrees>43.3238773606717586517333984375</LatitudeDegrees>
              <LongitudeDegrees>-1.98614082299172878265380859375</LongitudeDegrees>
            </Position>
            <AltitudeMeters>14.3999996185302734375</AltitudeMeters>
            <DistanceMeters>NAN</DistanceMeters>
          </Trackpoint>
          <Trackpoint>
            <Time>2022-07-09T15:28:35.000Z</Time>
            <Position>
              <LatitudeDegrees>43.32390074618160724639892578125</LatitudeDegrees>
              <LongitudeDegrees>-1.9861216284334659576416015625</LongitudeDegrees>
            </Position>
            <AltitudeMeters>14.3999996185302734375</AltitudeMeters>
            <DistanceMeters>NAN</DistanceMeters>
          </Trackpoint>
          <Trackpoint>
            <Time>2022-07-09T15:28:38.000Z</Time>
            <Position>
              <LatitudeDegrees>43.323965705931186676025390625</LatitudeDegrees>
              <LongitudeDegrees>-1.986048035323619842529296875</LongitudeDegrees>
            </Position>
            <AltitudeMeters>14</AltitudeMeters>
            <DistanceMeters>NAN</DistanceMeters>
          </Trackpoint>
          <Trackpoint>
            <Time>2022-07-09T15:28:40.000Z</Time>
            <Position>
              <LatitudeDegrees>43.323982469737529754638671875</LatitudeDegrees>
              <LongitudeDegrees>-1.98602314107120037078857421875</LongitudeDegrees>
            </Position>
            <AltitudeMeters>14</AltitudeMeters>
            <DistanceMeters>NAN</DistanceMeters>
          </Trackpoint>
          <Trackpoint>
            <Time>2022-07-09T15:28:41.000Z</Time>
            <Position>
              <LatitudeDegrees>43.3239729143679141998291015625</LatitudeDegrees>
              <LongitudeDegrees>-1.98601710610091686248779296875</LongitudeDegrees>
            </Position>
            <AltitudeMeters>14</AltitudeMeters>
            <DistanceMeters>NAN</DistanceMeters>
          </Trackpoint>
          <Trackpoint>
            <Time>2022-07-09T15:28:42.000Z</Time>
            <Position>
              <LatitudeDegrees>43.3239732496440410614013671875</LatitudeDegrees>
              <LongitudeDegrees>-1.9860066287219524383544921875</LongitudeDegrees>
            </Position>
            <AltitudeMeters>13.80000019073486328125</AltitudeMeters>
            <DistanceMeters>NAN</DistanceMeters>
          </Trackpoint>
          <Trackpoint>
            <Time>2022-07-09T15:28:44.000Z</Time>
            <Position>
              <LatitudeDegrees>43.323995210230350494384765625</LatitudeDegrees>
              <LongitudeDegrees>-1.98595994152128696441650390625</LongitudeDegrees>
            </Position>
            <AltitudeMeters>13.80000019073486328125</AltitudeMeters>
            <DistanceMeters>NAN</DistanceMeters>
          </Trackpoint>
          <Trackpoint>
            <Time>2022-07-09T15:28:45.000Z</Time>
            <Position>
              <LatitudeDegrees>43.3240067772567272186279296875</LatitudeDegrees>
              <LongitudeDegrees>-1.98592959903180599212646484375</LongitudeDegrees>
            </Position>
            <AltitudeMeters>13.80000019073486328125</AltitudeMeters>
            <DistanceMeters>NAN</DistanceMeters>
          </Trackpoint>
          <Trackpoint>
            <Time>2022-07-09T15:28:48.000Z</Time>
            <Position>
              <LatitudeDegrees>43.32403720356523990631103515625</LatitudeDegrees>
              <LongitudeDegrees>-1.98583312332630157470703125</LongitudeDegrees>
            </Position>
            <AltitudeMeters>13.6000003814697265625</AltitudeMeters>
            <DistanceMeters>NAN</DistanceMeters>
          </Trackpoint>
          <Trackpoint>
            <Time>2022-07-09T15:28:50.000Z</Time>
            <Position>
              <LatitudeDegrees>43.3240134827792644500732421875</LatitudeDegrees>
              <LongitudeDegrees>-1.98584008030593395233154296875</LongitudeDegrees>
            </Position>
            <AltitudeMeters>13.3999996185302734375</AltitudeMeters>
            <DistanceMeters>NAN</DistanceMeters>
          </Trackpoint>
          <Trackpoint>
            <Time>2022-07-09T15:28:51.000Z</Time>
            <Position>
              <LatitudeDegrees>43.3239910192787647247314453125</LatitudeDegrees>
              <LongitudeDegrees>-1.98583044111728668212890625</LongitudeDegrees>
            </Position>
            <AltitudeMeters>13.3999996185302734375</AltitudeMeters>
            <DistanceMeters>NAN</DistanceMeters>
          </Trackpoint>
          <Trackpoint>
            <Time>2022-07-09T15:28:52.000Z</Time>
            <Position>
              <LatitudeDegrees>43.32397215999662876129150390625</LatitudeDegrees>
              <LongitudeDegrees>-1.9858118332922458648681640625</LongitudeDegrees>
            </Position>
            <AltitudeMeters>13.3999996185302734375</AltitudeMeters>
            <DistanceMeters>NAN</DistanceMeters>
          </Trackpoint>
          <Trackpoint>
            <Time>2022-07-09T15:28:55.000Z</Time>
            <Position>
              <LatitudeDegrees>43.32390300929546356201171875</LatitudeDegrees>
              <LongitudeDegrees>-1.98577671311795711517333984375</LongitudeDegrees>
            </Position>
            <AltitudeMeters>13.6000003814697265625</AltitudeMeters>
            <DistanceMeters>NAN</DistanceMeters>
          </Trackpoint>
          <Trackpoint>
            <Time>2022-07-09T15:28:57.000Z</Time>
            <Position>
              <LatitudeDegrees>43.323858417570590972900390625</LatitudeDegrees>
              <LongitudeDegrees>-1.985741592943668365478515625</LongitudeDegrees>
            </Position>
            <AltitudeMeters>13.80000019073486328125</AltitudeMeters>
            <DistanceMeters>NAN</DistanceMeters>
          </Trackpoint>
          <Trackpoint>
            <Time>2022-07-09T15:28:58.000Z</Time>
            <Position>
              <LatitudeDegrees>43.32383452914655208587646484375</LatitudeDegrees>
              <LongitudeDegrees>-1.9857172854244709014892578125</LongitudeDegrees>
            </Position>
            <AltitudeMeters>13.80000019073486328125</AltitudeMeters>
            <DistanceMeters>NAN</DistanceMeters>
          </Trackpoint>
          <Trackpoint>
            <Time>2022-07-09T15:28:59.000Z</Time>
            <Position>
              <LatitudeDegrees>43.3238138258457183837890625</LatitudeDegrees>
              <LongitudeDegrees>-1.98571183718740940093994140625</LongitudeDegrees>
            </Position>
            <AltitudeMeters>13.80000019073486328125</AltitudeMeters>
            <DistanceMeters>NAN</DistanceMeters>
          </Trackpoint>
          <Trackpoint>
            <Time>2022-07-09T15:29:02.000Z</Time>
            <Position>
              <LatitudeDegrees>43.323772586882114410400390625</LatitudeDegrees>
              <LongitudeDegrees>-1.9856911338865756988525390625</LongitudeDegrees>
            </Position>
            <AltitudeMeters>14</AltitudeMeters>
            <DistanceMeters>NAN</DistanceMeters>
          </Trackpoint>
          <Trackpoint>
            <Time>2022-07-09T15:29:03.000Z</Time>
            <Position>
              <LatitudeDegrees>43.323762528598308563232421875</LatitudeDegrees>
              <LongitudeDegrees>-1.985672526061534881591796875</LongitudeDegrees>
            </Position>
            <AltitudeMeters>14</AltitudeMeters>
            <DistanceMeters>NAN</DistanceMeters>
          </Trackpoint>
          <Trackpoint>
            <Time>2022-07-09T15:29:06.000Z</Time>
            <Position>
              <LatitudeDegrees>43.32372464239597320556640625</LatitudeDegrees>
              <LongitudeDegrees>-1.985624246299266815185546875</LongitudeDegrees>
            </Position>
            <AltitudeMeters>14</AltitudeMeters>
            <DistanceMeters>NAN</DistanceMeters>
          </Trackpoint>
          <Trackpoint>
            <Time>2022-07-09T15:29:09.000Z</Time>
            <Position>
              <LatitudeDegrees>43.3236341178417205810546875</LatitudeDegrees>
              <LongitudeDegrees>-1.98562734760344028472900390625</LongitudeDegrees>
            </Position>
            <AltitudeMeters>14</AltitudeMeters>
            <DistanceMeters>NAN</DistanceMeters>
          </Trackpoint>
          <Trackpoint>
            <Time>2022-07-09T15:29:12.000Z</Time>
            <Position>
              <LatitudeDegrees>43.32362431101500988006591796875</LatitudeDegrees>
              <LongitudeDegrees>-1.9855747930705547332763671875</LongitudeDegrees>
            </Position>
            <AltitudeMeters>14</AltitudeMeters>
            <DistanceMeters>NAN</DistanceMeters>
          </Trackpoint>
          <Trackpoint>
            <Time>2022-07-09T15:29:13.000Z</Time>
            <Position>
              <LatitudeDegrees>43.32362137734889984130859375</LatitudeDegrees>
              <LongitudeDegrees>-1.98558275587856769561767578125</LongitudeDegrees>
            </Position>
            <AltitudeMeters>14</AltitudeMeters>
            <DistanceMeters>NAN</DistanceMeters>
          </Trackpoint>
          <Trackpoint>
            <Time>2022-07-09T15:29:15.000Z</Time>
            <Position>
              <LatitudeDegrees>43.32361542619764804840087890625</LatitudeDegrees>
              <LongitudeDegrees>-1.98559029959142208099365234375</LongitudeDegrees>
            </Position>
            <AltitudeMeters>14</AltitudeMeters>
            <DistanceMeters>NAN</DistanceMeters>
          </Trackpoint>
          <Trackpoint>
            <Time>2022-07-09T15:29:22.000Z</Time>
            <Position>
              <LatitudeDegrees>43.32357485778629779815673828125</LatitudeDegrees>
              <LongitudeDegrees>-1.985597424209117889404296875</LongitudeDegrees>
            </Position>
            <AltitudeMeters>14.19999980926513671875</AltitudeMeters>
            <DistanceMeters>NAN</DistanceMeters>
          </Trackpoint>
          <Trackpoint>
            <Time>2022-07-09T15:29:23.000Z</Time>
            <Position>
              <LatitudeDegrees>43.32359648309648036956787109375</LatitudeDegrees>
              <LongitudeDegrees>-1.9855789840221405029296875</LongitudeDegrees>
            </Position>
            <AltitudeMeters>14.19999980926513671875</AltitudeMeters>
            <DistanceMeters>NAN</DistanceMeters>
          </Trackpoint>
          <Trackpoint>
            <Time>2022-07-09T15:29:26.000Z</Time>
            <Position>
              <LatitudeDegrees>43.32361333072185516357421875</LatitudeDegrees>
              <LongitudeDegrees>-1.985494829714298248291015625</LongitudeDegrees>
            </Position>
            <AltitudeMeters>14.3999996185302734375</AltitudeMeters>
            <DistanceMeters>NAN</DistanceMeters>
          </Trackpoint>
          <Trackpoint>
            <Time>2022-07-09T15:29:28.000Z</Time>
            <Position>
              <LatitudeDegrees>43.32358877174556255340576171875</LatitudeDegrees>
              <LongitudeDegrees>-1.985455937683582305908203125</LongitudeDegrees>
            </Position>
            <AltitudeMeters>14.6000003814697265625</AltitudeMeters>
            <DistanceMeters>NAN</DistanceMeters>
          </Trackpoint>
          <Trackpoint>
            <Time>2022-07-09T15:29:30.000Z</Time>
            <Position>
              <LatitudeDegrees>43.3235732652246952056884765625</LatitudeDegrees>
              <LongitudeDegrees>-1.985394246876239776611328125</LongitudeDegrees>
            </Position>
            <AltitudeMeters>14.6000003814697265625</AltitudeMeters>
            <DistanceMeters>NAN</DistanceMeters>
          </Trackpoint>
          <Trackpoint>
            <Time>2022-07-09T15:29:32.000Z</Time>
            <Position>
              <LatitudeDegrees>43.323584161698818206787109375</LatitudeDegrees>
              <LongitudeDegrees>-1.98532358743250370025634765625</LongitudeDegrees>
            </Position>
            <AltitudeMeters>14.80000019073486328125</AltitudeMeters>
            <DistanceMeters>NAN</DistanceMeters>
          </Trackpoint>
          <Trackpoint>
            <Time>2022-07-09T15:29:35.000Z</Time>
            <Position>
              <LatitudeDegrees>43.3236242271959781646728515625</LatitudeDegrees>
              <LongitudeDegrees>-1.9852110184729099273681640625</LongitudeDegrees>
            </Position>
            <AltitudeMeters>14.80000019073486328125</AltitudeMeters>
            <DistanceMeters>NAN</DistanceMeters>
          </Trackpoint>
          <Trackpoint>
            <Time>2022-07-09T15:29:40.000Z</Time>
            <Position>
              <LatitudeDegrees>43.3236153423786163330078125</LatitudeDegrees>
              <LongitudeDegrees>-1.9851724617183208465576171875</LongitudeDegrees>
            </Position>
            <AltitudeMeters>15</AltitudeMeters>
            <DistanceMeters>NAN</DistanceMeters>
          </Trackpoint>
          <Trackpoint>
            <Time>2022-07-09T15:29:42.000Z</Time>
            <Position>
              <LatitudeDegrees>43.3236031047999858856201171875</LatitudeDegrees>
              <LongitudeDegrees>-1.9851473160088062286376953125</LongitudeDegrees>
            </Position>
            <AltitudeMeters>15</AltitudeMeters>
            <DistanceMeters>NAN</DistanceMeters>
          </Trackpoint>
          <Trackpoint>
            <Time>2022-07-09T15:29:44.000Z</Time>
            <Position>
              <LatitudeDegrees>43.32360302098095417022705078125</LatitudeDegrees>
              <LongitudeDegrees>-1.985102556645870208740234375</LongitudeDegrees>
            </Position>
            <AltitudeMeters>15.19999980926513671875</AltitudeMeters>
            <DistanceMeters>NAN</DistanceMeters>
          </Trackpoint>
          <Trackpoint>
            <Time>2022-07-09T15:29:51.000Z</Time>
            <Position>
              <LatitudeDegrees>43.32361425273120403289794921875</LatitudeDegrees>
              <LongitudeDegrees>-1.98490583337843418121337890625</LongitudeDegrees>
            </Position>
            <AltitudeMeters>15.19999980926513671875</AltitudeMeters>
            <DistanceMeters>NAN</DistanceMeters>
          </Trackpoint>
          <Trackpoint>
            <Time>2022-07-09T15:29:59.000Z</Time>
            <Position>
              <LatitudeDegrees>43.32360872067511081695556640625</LatitudeDegrees>
              <LongitudeDegrees>-1.9846930168569087982177734375</LongitudeDegrees>
            </Position>
            <AltitudeMeters>15.19999980926513671875</AltitudeMeters>
            <DistanceMeters>NAN</DistanceMeters>
          </Trackpoint>
          <Trackpoint>
            <Time>2022-07-09T15:30:04.000Z</Time>
            <Position>
              <LatitudeDegrees>43.3236121572554111480712890625</LatitudeDegrees>
              <LongitudeDegrees>-1.98458681814372539520263671875</LongitudeDegrees>
            </Position>
            <AltitudeMeters>15.19999980926513671875</AltitudeMeters>
            <DistanceMeters>NAN</DistanceMeters>
          </Trackpoint>
          <Trackpoint>
            <Time>2022-07-09T15:30:06.000Z</Time>
            <Position>
              <LatitudeDegrees>43.323622383177280426025390625</LatitudeDegrees>
              <LongitudeDegrees>-1.9845597445964813232421875</LongitudeDegrees>
            </Position>
            <AltitudeMeters>15.19999980926513671875</AltitudeMeters>
            <DistanceMeters>NAN</DistanceMeters>
          </Trackpoint>
          <Trackpoint>
            <Time>2022-07-09T15:30:10.000Z</Time>
            <Position>
              <LatitudeDegrees>43.32364124245941638946533203125</LatitudeDegrees>
              <LongitudeDegrees>-1.98454122059047222137451171875</LongitudeDegrees>
            </Position>
            <AltitudeMeters>15.19999980926513671875</AltitudeMeters>
            <DistanceMeters>NAN</DistanceMeters>
          </Trackpoint>
          <Trackpoint>
            <Time>2022-07-09T15:30:14.000Z</Time>
            <Position>
              <LatitudeDegrees>43.3236034400761127471923828125</LatitudeDegrees>
              <LongitudeDegrees>-1.98437592945992946624755859375</LongitudeDegrees>
            </Position>
            <AltitudeMeters>15.19999980926513671875</AltitudeMeters>
            <DistanceMeters>NAN</DistanceMeters>
          </Trackpoint>
          <Trackpoint>
            <Time>2022-07-09T15:30:15.000Z</Time>
            <Position>
              <LatitudeDegrees>43.32358508370816707611083984375</LatitudeDegrees>
              <LongitudeDegrees>-1.98435313068330287933349609375</LongitudeDegrees>
            </Position>
            <AltitudeMeters>15.19999980926513671875</AltitudeMeters>
            <DistanceMeters>NAN</DistanceMeters>
          </Trackpoint>
          <Trackpoint>
            <Time>2022-07-09T15:30:19.000Z</Time>
            <Position>
              <LatitudeDegrees>43.32355055026710033416748046875</LatitudeDegrees>
              <LongitudeDegrees>-1.98431767523288726806640625</LongitudeDegrees>
            </Position>
            <AltitudeMeters>15</AltitudeMeters>
            <DistanceMeters>NAN</DistanceMeters>
          </Trackpoint>
          <Trackpoint>
            <Time>2022-07-09T15:30:21.000Z</Time>
            <Position>
              <LatitudeDegrees>43.3235241472721099853515625</LatitudeDegrees>
              <LongitudeDegrees>-1.98429244570434093475341796875</LongitudeDegrees>
            </Position>
            <AltitudeMeters>14.80000019073486328125</AltitudeMeters>
            <DistanceMeters>NAN</DistanceMeters>
          </Trackpoint>
          <Trackpoint>
            <Time>2022-07-09T15:30:22.000Z</Time>
            <Position>
              <LatitudeDegrees>43.3235241472721099853515625</LatitudeDegrees>
              <LongitudeDegrees>-1.9842692278325557708740234375</LongitudeDegrees>
            </Position>
            <AltitudeMeters>14.80000019073486328125</AltitudeMeters>
            <DistanceMeters>NAN</DistanceMeters>
          </Trackpoint>
          <Trackpoint>
            <Time>2022-07-09T15:30:25.000Z</Time>
            <Position>
              <LatitudeDegrees>43.32356295548379421234130859375</LatitudeDegrees>
              <LongitudeDegrees>-1.9842668808996677398681640625</LongitudeDegrees>
            </Position>
            <AltitudeMeters>14.80000019073486328125</AltitudeMeters>
            <DistanceMeters>NAN</DistanceMeters>
          </Trackpoint>
          <Trackpoint>
            <Time>2022-07-09T15:30:27.000Z</Time>
            <Position>
              <LatitudeDegrees>43.32356949336826801300048828125</LatitudeDegrees>
              <LongitudeDegrees>-1.984322033822536468505859375</LongitudeDegrees>
            </Position>
            <AltitudeMeters>14.6000003814697265625</AltitudeMeters>
            <DistanceMeters>NAN</DistanceMeters>
          </Trackpoint>
          <Trackpoint>
            <Time>2022-07-09T15:30:29.000Z</Time>
            <Position>
              <LatitudeDegrees>43.3235643804073333740234375</LatitudeDegrees>
              <LongitudeDegrees>-1.98435883037745952606201171875</LongitudeDegrees>
            </Position>
            <AltitudeMeters>14.6000003814697265625</AltitudeMeters>
            <DistanceMeters>NAN</DistanceMeters>
          </Trackpoint>
          <Trackpoint>
            <Time>2022-07-09T15:30:33.000Z</Time>
            <Position>
              <LatitudeDegrees>43.3234696649014949798583984375</LatitudeDegrees>
              <LongitudeDegrees>-1.98427568189799785614013671875</LongitudeDegrees>
            </Position>
            <AltitudeMeters>14.80000019073486328125</AltitudeMeters>
            <DistanceMeters>NAN</DistanceMeters>
          </Trackpoint>
          <Trackpoint>
            <Time>2022-07-09T15:30:38.000Z</Time>
            <Position>
              <LatitudeDegrees>43.3234505541622638702392578125</LatitudeDegrees>
              <LongitudeDegrees>-1.9842486083507537841796875</LongitudeDegrees>
            </Position>
            <AltitudeMeters>14.80000019073486328125</AltitudeMeters>
            <DistanceMeters>NAN</DistanceMeters>
          </Trackpoint>
          <Trackpoint>
            <Time>2022-07-09T15:30:41.000Z</Time>
            <Position>
              <LatitudeDegrees>43.3234865963459014892578125</LatitudeDegrees>
              <LongitudeDegrees>-1.98427082039415836334228515625</LongitudeDegrees>
            </Position>
            <AltitudeMeters>14.80000019073486328125</AltitudeMeters>
            <DistanceMeters>NAN</DistanceMeters>
          </Trackpoint>
          <Trackpoint>
            <Time>2022-07-09T15:33:07.000Z</Time>
            <Position>
              <LatitudeDegrees>43.3234307728707790374755859375</LatitudeDegrees>
              <LongitudeDegrees>-1.9841884262859821319580078125</LongitudeDegrees>
            </Position>
            <AltitudeMeters>14.6000003814697265625</AltitudeMeters>
            <DistanceMeters>NAN</DistanceMeters>
          </Trackpoint>
          <Trackpoint>
            <Time>2022-07-09T15:33:08.000Z</Time>
            <Position>
              <LatitudeDegrees>43.32333412952721118927001953125</LatitudeDegrees>
              <LongitudeDegrees>-1.9841927848756313323974609375</LongitudeDegrees>
            </Position>
            <AltitudeMeters>14.6000003814697265625</AltitudeMeters>
            <DistanceMeters>NAN</DistanceMeters>
          </Trackpoint>
          <Trackpoint>
            <Time>2022-07-09T15:33:09.000Z</Time>
            <Position>
              <LatitudeDegrees>43.32332231104373931884765625</LatitudeDegrees>
              <LongitudeDegrees>-1.98417275212705135345458984375</LongitudeDegrees>
            </Position>
            <AltitudeMeters>14.6000003814697265625</AltitudeMeters>
            <DistanceMeters>NAN</DistanceMeters>
          </Trackpoint>
          <Trackpoint>
            <Time>2022-07-09T15:33:11.000Z</Time>
            <Position>
              <LatitudeDegrees>43.32324008457362651824951171875</LatitudeDegrees>
              <LongitudeDegrees>-1.9842135719954967498779296875</LongitudeDegrees>
            </Position>
            <AltitudeMeters>14.80000019073486328125</AltitudeMeters>
            <DistanceMeters>NAN</DistanceMeters>
          </Trackpoint>
          <Trackpoint>
            <Time>2022-07-09T15:33:12.000Z</Time>
            <Position>
              <LatitudeDegrees>43.32324880175292491912841796875</LatitudeDegrees>
              <LongitudeDegrees>-1.984217427670955657958984375</LongitudeDegrees>
            </Position>
            <AltitudeMeters>15</AltitudeMeters>
            <DistanceMeters>NAN</DistanceMeters>
          </Trackpoint>
          <Trackpoint>
            <Time>2022-07-09T15:33:14.000Z</Time>
            <Position>
              <LatitudeDegrees>43.32329909317195415496826171875</LatitudeDegrees>
              <LongitudeDegrees>-1.9842481054365634918212890625</LongitudeDegrees>
            </Position>
            <AltitudeMeters>15.19999980926513671875</AltitudeMeters>
            <DistanceMeters>NAN</DistanceMeters>
          </Trackpoint>
          <Trackpoint>
            <Time>2022-07-09T15:33:18.000Z</Time>
            <Position>
              <LatitudeDegrees>43.3233553357422351837158203125</LatitudeDegrees>
              <LongitudeDegrees>-1.98430686257779598236083984375</LongitudeDegrees>
            </Position>
            <AltitudeMeters>15</AltitudeMeters>
            <DistanceMeters>NAN</DistanceMeters>
          </Trackpoint>
          <Trackpoint>
            <Time>2022-07-09T15:33:19.000Z</Time>
            <Position>
              <LatitudeDegrees>43.32335893996059894561767578125</LatitudeDegrees>
              <LongitudeDegrees>-1.984301917254924774169921875</LongitudeDegrees>
            </Position>
            <AltitudeMeters>15</AltitudeMeters>
            <DistanceMeters>NAN</DistanceMeters>
          </Trackpoint>
          <Trackpoint>
            <Time>2022-07-09T15:33:21.000Z</Time>
            <Position>
              <LatitudeDegrees>43.32336832769215106964111328125</LatitudeDegrees>
              <LongitudeDegrees>-1.984303928911685943603515625</LongitudeDegrees>
            </Position>
            <AltitudeMeters>14.80000019073486328125</AltitudeMeters>
            <DistanceMeters>NAN</DistanceMeters>
          </Trackpoint>
          <Trackpoint>
            <Time>2022-07-09T15:33:22.000Z</Time>
            <Position>
              <LatitudeDegrees>43.32336329855024814605712890625</LatitudeDegrees>
              <LongitudeDegrees>-1.98431407101452350616455078125</LongitudeDegrees>
            </Position>
            <AltitudeMeters>14.80000019073486328125</AltitudeMeters>
            <DistanceMeters>NAN</DistanceMeters>
          </Trackpoint>
          <Trackpoint>
            <Time>2022-07-09T15:33:25.000Z</Time>
            <Position>
              <LatitudeDegrees>43.32332759164273738861083984375</LatitudeDegrees>
              <LongitudeDegrees>-1.98436419479548931121826171875</LongitudeDegrees>
            </Position>
            <AltitudeMeters>15</AltitudeMeters>
            <DistanceMeters>NAN</DistanceMeters>
          </Trackpoint>
          <Trackpoint>
            <Time>2022-07-09T15:33:27.000Z</Time>
            <Position>
              <LatitudeDegrees>43.3233539946377277374267578125</LatitudeDegrees>
              <LongitudeDegrees>-1.98438229970633983612060546875</LongitudeDegrees>
            </Position>
            <AltitudeMeters>15.19999980926513671875</AltitudeMeters>
            <DistanceMeters>NAN</DistanceMeters>
          </Trackpoint>
          <Trackpoint>
            <Time>2022-07-09T15:33:28.000Z</Time>
            <Position>
              <LatitudeDegrees>43.32340302877128124237060546875</LatitudeDegrees>
              <LongitudeDegrees>-1.984365284442901611328125</LongitudeDegrees>
            </Position>
            <AltitudeMeters>15.19999980926513671875</AltitudeMeters>
            <DistanceMeters>NAN</DistanceMeters>
          </Trackpoint>
          <Trackpoint>
            <Time>2022-07-09T15:33:29.000Z</Time>
            <Position>
              <LatitudeDegrees>43.3234508894383907318115234375</LatitudeDegrees>
              <LongitudeDegrees>-1.98435254395008087158203125</LongitudeDegrees>
            </Position>
            <AltitudeMeters>15.19999980926513671875</AltitudeMeters>
            <DistanceMeters>NAN</DistanceMeters>
          </Trackpoint>
          <Trackpoint>
            <Time>2022-07-09T15:33:31.000Z</Time>
            <Position>
              <LatitudeDegrees>43.323511742055416107177734375</LatitudeDegrees>
              <LongitudeDegrees>-1.9843319244682788848876953125</LongitudeDegrees>
            </Position>
            <AltitudeMeters>15.19999980926513671875</AltitudeMeters>
            <DistanceMeters>NAN</DistanceMeters>
          </Trackpoint>
          <Trackpoint>
            <Time>2022-07-09T15:33:32.000Z</Time>
            <Position>
              <LatitudeDegrees>43.32352741621434688568115234375</LatitudeDegrees>
              <LongitudeDegrees>-1.9843156635761260986328125</LongitudeDegrees>
            </Position>
            <AltitudeMeters>15.3999996185302734375</AltitudeMeters>
            <DistanceMeters>NAN</DistanceMeters>
          </Trackpoint>
          <Trackpoint>
            <Time>2022-07-09T15:33:42.000Z</Time>
            <Position>
              <LatitudeDegrees>43.32352456636726856231689453125</LatitudeDegrees>
              <LongitudeDegrees>-1.98434122838079929351806640625</LongitudeDegrees>
            </Position>
            <AltitudeMeters>15.19999980926513671875</AltitudeMeters>
            <DistanceMeters>NAN</DistanceMeters>
          </Trackpoint>
          <Trackpoint>
            <Time>2022-07-09T15:33:44.000Z</Time>
            <Position>
              <LatitudeDegrees>43.323487602174282073974609375</LatitudeDegrees>
              <LongitudeDegrees>-1.9842662103474140167236328125</LongitudeDegrees>
            </Position>
            <AltitudeMeters>15.3999996185302734375</AltitudeMeters>
            <DistanceMeters>NAN</DistanceMeters>
          </Trackpoint>
          <Trackpoint>
            <Time>2022-07-09T15:33:47.000Z</Time>
            <Position>
              <LatitudeDegrees>43.323461450636386871337890625</LatitudeDegrees>
              <LongitudeDegrees>-1.98420477099716663360595703125</LongitudeDegrees>
            </Position>
            <AltitudeMeters>15.3999996185302734375</AltitudeMeters>
            <DistanceMeters>NAN</DistanceMeters>
          </Trackpoint>
          <Trackpoint>
            <Time>2022-07-09T15:33:48.000Z</Time>
            <Position>
              <LatitudeDegrees>43.32344912923872470855712890625</LatitudeDegrees>
              <LongitudeDegrees>-1.9841944612562656402587890625</LongitudeDegrees>
            </Position>
            <AltitudeMeters>15.3999996185302734375</AltitudeMeters>
            <DistanceMeters>NAN</DistanceMeters>
          </Trackpoint>
          <Trackpoint>
            <Time>2022-07-09T15:33:49.000Z</Time>
            <Position>
              <LatitudeDegrees>43.32345063798129558563232421875</LatitudeDegrees>
              <LongitudeDegrees>-1.98419370688498020172119140625</LongitudeDegrees>
            </Position>
            <AltitudeMeters>15.3999996185302734375</AltitudeMeters>
            <DistanceMeters>NAN</DistanceMeters>
          </Trackpoint>
          <Trackpoint>
            <Time>2022-07-09T15:33:52.000Z</Time>
            <Position>
              <LatitudeDegrees>43.3234166912734508514404296875</LatitudeDegrees>
              <LongitudeDegrees>-1.9841817207634449005126953125</LongitudeDegrees>
            </Position>
            <AltitudeMeters>15.3999996185302734375</AltitudeMeters>
            <DistanceMeters>NAN</DistanceMeters>
          </Trackpoint>
          <Trackpoint>
            <Time>2022-07-09T15:33:55.000Z</Time>
            <Position>
              <LatitudeDegrees>43.3233726024627685546875</LatitudeDegrees>
              <LongitudeDegrees>-1.98412111960351467132568359375</LongitudeDegrees>
            </Position>
            <AltitudeMeters>13.6000003814697265625</AltitudeMeters>
            <DistanceMeters>NAN</DistanceMeters>
          </Trackpoint>
          <Trackpoint>
            <Time>2022-07-09T15:33:56.000Z</Time>
            <Position>
              <LatitudeDegrees>43.32337461411952972412109375</LatitudeDegrees>
              <LongitudeDegrees>-1.984119527041912078857421875</LongitudeDegrees>
            </Position>
            <AltitudeMeters>13.6000003814697265625</AltitudeMeters>
            <DistanceMeters>NAN</DistanceMeters>
          </Trackpoint>
          <Trackpoint>
            <Time>2022-07-09T15:33:58.000Z</Time>
            <Position>
              <LatitudeDegrees>43.32335340790450572967529296875</LatitudeDegrees>
              <LongitudeDegrees>-1.9841210357844829559326171875</LongitudeDegrees>
            </Position>
            <AltitudeMeters>13.6000003814697265625</AltitudeMeters>
            <DistanceMeters>NAN</DistanceMeters>
          </Trackpoint>
          <Trackpoint>
            <Time>2022-07-09T15:33:59.000Z</Time>
            <Position>
              <LatitudeDegrees>43.323341421782970428466796875</LatitudeDegrees>
              <LongitudeDegrees>-1.98411659337580204010009765625</LongitudeDegrees>
            </Position>
            <AltitudeMeters>13.6000003814697265625</AltitudeMeters>
            <DistanceMeters>NAN</DistanceMeters>
          </Trackpoint>
          <Trackpoint>
            <Time>2022-07-09T15:34:02.000Z</Time>
            <Position>
              <LatitudeDegrees>43.3233261667191982269287109375</LatitudeDegrees>
              <LongitudeDegrees>-1.98418465442955493927001953125</LongitudeDegrees>
            </Position>
            <AltitudeMeters>13.6000003814697265625</AltitudeMeters>
            <DistanceMeters>NAN</DistanceMeters>
          </Trackpoint>
          <Trackpoint>
            <Time>2022-07-09T15:34:03.000Z</Time>
            <Position>
              <LatitudeDegrees>43.32332893274724483489990234375</LatitudeDegrees>
              <LongitudeDegrees>-1.98421415872871875762939453125</LongitudeDegrees>
            </Position>
            <AltitudeMeters>13.6000003814697265625</AltitudeMeters>
            <DistanceMeters>NAN</DistanceMeters>
          </Trackpoint>
          <Trackpoint>
            <Time>2022-07-09T15:34:10.000Z</Time>
            <Position>
              <LatitudeDegrees>43.32329490222036838531494140625</LatitudeDegrees>
              <LongitudeDegrees>-1.9843612611293792724609375</LongitudeDegrees>
            </Position>
            <AltitudeMeters>13.80000019073486328125</AltitudeMeters>
            <DistanceMeters>NAN</DistanceMeters>
          </Trackpoint>
          <Trackpoint>
            <Time>2022-07-09T15:34:14.000Z</Time>
            <Position>
              <LatitudeDegrees>43.3232741989195346832275390625</LatitudeDegrees>
              <LongitudeDegrees>-1.98447232134640216827392578125</LongitudeDegrees>
            </Position>
            <AltitudeMeters>13.80000019073486328125</AltitudeMeters>
            <DistanceMeters>NAN</DistanceMeters>
          </Trackpoint>
          <Trackpoint>
            <Time>2022-07-09T15:34:16.000Z</Time>
            <Position>
              <LatitudeDegrees>43.32326808013021945953369140625</LatitudeDegrees>
              <LongitudeDegrees>-1.984526216983795166015625</LongitudeDegrees>
            </Position>
            <AltitudeMeters>14</AltitudeMeters>
            <DistanceMeters>NAN</DistanceMeters>
          </Trackpoint>
          <Trackpoint>
            <Time>2022-07-09T15:34:22.000Z</Time>
            <Position>
              <LatitudeDegrees>43.3232188783586025238037109375</LatitudeDegrees>
              <LongitudeDegrees>-1.9846879877150058746337890625</LongitudeDegrees>
            </Position>
            <AltitudeMeters>14</AltitudeMeters>
            <DistanceMeters>NAN</DistanceMeters>
          </Trackpoint>
          <Trackpoint>
            <Time>2022-07-09T15:34:26.000Z</Time>
            <Position>
              <LatitudeDegrees>43.3231880329549312591552734375</LatitudeDegrees>
              <LongitudeDegrees>-1.984786726534366607666015625</LongitudeDegrees>
            </Position>
            <AltitudeMeters>14</AltitudeMeters>
            <DistanceMeters>NAN</DistanceMeters>
          </Trackpoint>
          <Trackpoint>
            <Time>2022-07-09T15:34:27.000Z</Time>
            <Position>
              <LatitudeDegrees>43.3231866918504238128662109375</LatitudeDegrees>
              <LongitudeDegrees>-1.98480105958878993988037109375</LongitudeDegrees>
            </Position>
            <AltitudeMeters>14</AltitudeMeters>
            <DistanceMeters>NAN</DistanceMeters>
          </Trackpoint>
          <Trackpoint>
            <Time>2022-07-09T15:34:31.000Z</Time>
            <Position>
              <LatitudeDegrees>43.32317068241536617279052734375</LatitudeDegrees>
              <LongitudeDegrees>-1.9848797656595706939697265625</LongitudeDegrees>
            </Position>
            <AltitudeMeters>13.80000019073486328125</AltitudeMeters>
            <DistanceMeters>NAN</DistanceMeters>
          </Trackpoint>
          <Trackpoint>
            <Time>2022-07-09T15:34:32.000Z</Time>
            <Position>
              <LatitudeDegrees>43.323171436786651611328125</LatitudeDegrees>
              <LongitudeDegrees>-1.984927542507648468017578125</LongitudeDegrees>
            </Position>
            <AltitudeMeters>13.80000019073486328125</AltitudeMeters>
            <DistanceMeters>NAN</DistanceMeters>
          </Trackpoint>
          <Trackpoint>
            <Time>2022-07-09T15:34:34.000Z</Time>
            <Position>
              <LatitudeDegrees>43.32315199077129364013671875</LatitudeDegrees>
              <LongitudeDegrees>-1.98500289581716060638427734375</LongitudeDegrees>
            </Position>
            <AltitudeMeters>13.80000019073486328125</AltitudeMeters>
            <DistanceMeters>NAN</DistanceMeters>
          </Trackpoint>
          <Trackpoint>
            <Time>2022-07-09T15:34:36.000Z</Time>
            <Position>
              <LatitudeDegrees>43.32313598133623600006103515625</LatitudeDegrees>
              <LongitudeDegrees>-1.985043548047542572021484375</LongitudeDegrees>
            </Position>
            <AltitudeMeters>13.80000019073486328125</AltitudeMeters>
            <DistanceMeters>NAN</DistanceMeters>
          </Trackpoint>
          <Trackpoint>
            <Time>2022-07-09T15:34:39.000Z</Time>
            <Position>
              <LatitudeDegrees>43.32316179759800434112548828125</LatitudeDegrees>
              <LongitudeDegrees>-1.98515796102583408355712890625</LongitudeDegrees>
            </Position>
            <AltitudeMeters>13.6000003814697265625</AltitudeMeters>
            <DistanceMeters>NAN</DistanceMeters>
          </Trackpoint>
          <Trackpoint>
            <Time>2022-07-09T15:34:40.000Z</Time>
            <Position>
              <LatitudeDegrees>43.32316431216895580291748046875</LatitudeDegrees>
              <LongitudeDegrees>-1.9851887226104736328125</LongitudeDegrees>
            </Position>
            <AltitudeMeters>13.6000003814697265625</AltitudeMeters>
            <DistanceMeters>NAN</DistanceMeters>
          </Trackpoint>
          <Trackpoint>
            <Time>2022-07-09T15:34:41.000Z</Time>
            <Position>
              <LatitudeDegrees>43.323152996599674224853515625</LatitudeDegrees>
              <LongitudeDegrees>-1.98520816862583160400390625</LongitudeDegrees>
            </Position>
            <AltitudeMeters>13.6000003814697265625</AltitudeMeters>
            <DistanceMeters>NAN</DistanceMeters>
          </Trackpoint>
          <Trackpoint>
            <Time>2022-07-09T15:34:43.000Z</Time>
            <Position>
              <LatitudeDegrees>43.3231226541101932525634765625</LatitudeDegrees>
              <LongitudeDegrees>-1.985251419246196746826171875</LongitudeDegrees>
            </Position>
            <AltitudeMeters>13.6000003814697265625</AltitudeMeters>
            <DistanceMeters>NAN</DistanceMeters>
          </Trackpoint>
          <Trackpoint>
            <Time>2022-07-09T15:34:44.000Z</Time>
            <Position>
              <LatitudeDegrees>43.3231099136173725128173828125</LatitudeDegrees>
              <LongitudeDegrees>-1.98527790606021881103515625</LongitudeDegrees>
            </Position>
            <AltitudeMeters>13.6000003814697265625</AltitudeMeters>
            <DistanceMeters>NAN</DistanceMeters>
          </Trackpoint>
          <Trackpoint>
            <Time>2022-07-09T15:34:46.000Z</Time>
            <Position>
              <LatitudeDegrees>43.3230965025722980499267578125</LatitudeDegrees>
              <LongitudeDegrees>-1.98530816473066806793212890625</LongitudeDegrees>
            </Position>
            <AltitudeMeters>13.6000003814697265625</AltitudeMeters>
            <DistanceMeters>NAN</DistanceMeters>
          </Trackpoint>
          <Trackpoint>
            <Time>2022-07-09T15:34:47.000Z</Time>
            <Position>
              <LatitudeDegrees>43.32308535464107990264892578125</LatitudeDegrees>
              <LongitudeDegrees>-1.98533096350729465484619140625</LongitudeDegrees>
            </Position>
            <AltitudeMeters>13.6000003814697265625</AltitudeMeters>
            <DistanceMeters>NAN</DistanceMeters>
          </Trackpoint>
          <Trackpoint>
            <Time>2022-07-09T15:34:51.000Z</Time>
            <Position>
              <LatitudeDegrees>43.32307152450084686279296875</LatitudeDegrees>
              <LongitudeDegrees>-1.98541880585253238677978515625</LongitudeDegrees>
            </Position>
            <AltitudeMeters>14</AltitudeMeters>
            <DistanceMeters>NAN</DistanceMeters>
          </Trackpoint>
          <Trackpoint>
            <Time>2022-07-09T15:34:54.000Z</Time>
            <Position>
              <LatitudeDegrees>43.3229868672788143157958984375</LatitudeDegrees>
              <LongitudeDegrees>-1.9855198077857494354248046875</LongitudeDegrees>
            </Position>
            <AltitudeMeters>14.19999980926513671875</AltitudeMeters>
            <DistanceMeters>NAN</DistanceMeters>
          </Trackpoint>
          <Trackpoint>
            <Time>2022-07-09T15:34:57.000Z</Time>
            <Position>
              <LatitudeDegrees>43.322972618043422698974609375</LatitudeDegrees>
              <LongitudeDegrees>-1.9856046326458454132080078125</LongitudeDegrees>
            </Position>
            <AltitudeMeters>14.6000003814697265625</AltitudeMeters>
            <DistanceMeters>NAN</DistanceMeters>
          </Trackpoint>
          <Trackpoint>
            <Time>2022-07-09T15:34:58.000Z</Time>
            <Position>
              <LatitudeDegrees>43.322965241968631744384765625</LatitudeDegrees>
              <LongitudeDegrees>-1.98562659323215484619140625</LongitudeDegrees>
            </Position>
            <AltitudeMeters>14.6000003814697265625</AltitudeMeters>
            <DistanceMeters>NAN</DistanceMeters>
          </Trackpoint>
          <Trackpoint>
            <Time>2022-07-09T15:34:59.000Z</Time>
            <Position>
              <LatitudeDegrees>43.32295191474258899688720703125</LatitudeDegrees>
              <LongitudeDegrees>-1.98564729653298854827880859375</LongitudeDegrees>
            </Position>
            <AltitudeMeters>14.80000019073486328125</AltitudeMeters>
            <DistanceMeters>NAN</DistanceMeters>
          </Trackpoint>
          <Trackpoint>
            <Time>2022-07-09T15:35:01.000Z</Time>
            <Position>
              <LatitudeDegrees>43.3229238353669643402099609375</LatitudeDegrees>
              <LongitudeDegrees>-1.9856716878712177276611328125</LongitudeDegrees>
            </Position>
            <AltitudeMeters>14.80000019073486328125</AltitudeMeters>
            <DistanceMeters>NAN</DistanceMeters>
          </Trackpoint>
          <Trackpoint>
            <Time>2022-07-09T15:35:03.000Z</Time>
            <Position>
              <LatitudeDegrees>43.3229057304561138153076171875</LatitudeDegrees>
              <LongitudeDegrees>-1.98573782108724117279052734375</LongitudeDegrees>
            </Position>
            <AltitudeMeters>14.80000019073486328125</AltitudeMeters>
            <DistanceMeters>NAN</DistanceMeters>
          </Trackpoint>
          <Trackpoint>
            <Time>2022-07-09T15:35:06.000Z</Time>
            <Position>
              <LatitudeDegrees>43.3228825964033603668212890625</LatitudeDegrees>
              <LongitudeDegrees>-1.98581526987254619598388671875</LongitudeDegrees>
            </Position>
            <AltitudeMeters>14.80000019073486328125</AltitudeMeters>
            <DistanceMeters>NAN</DistanceMeters>
          </Trackpoint>
          <Trackpoint>
            <Time>2022-07-09T15:35:08.000Z</Time>
            <Position>
              <LatitudeDegrees>43.32287178374826908111572265625</LatitudeDegrees>
              <LongitudeDegrees>-1.9858621247112751007080078125</LongitudeDegrees>
            </Position>
            <AltitudeMeters>14.6000003814697265625</AltitudeMeters>
            <DistanceMeters>NAN</DistanceMeters>
          </Trackpoint>
          <Trackpoint>
            <Time>2022-07-09T15:35:09.000Z</Time>
            <Position>
              <LatitudeDegrees>43.32286457531154155731201171875</LatitudeDegrees>
              <LongitudeDegrees>-1.98587947525084018707275390625</LongitudeDegrees>
            </Position>
            <AltitudeMeters>14.6000003814697265625</AltitudeMeters>
            <DistanceMeters>NAN</DistanceMeters>
          </Trackpoint>
          <Trackpoint>
            <Time>2022-07-09T15:35:11.000Z</Time>
            <Position>
              <LatitudeDegrees>43.32287463359534740447998046875</LatitudeDegrees>
              <LongitudeDegrees>-1.98588986881077289581298828125</LongitudeDegrees>
            </Position>
            <AltitudeMeters>14.6000003814697265625</AltitudeMeters>
            <DistanceMeters>NAN</DistanceMeters>
          </Trackpoint>
          <Trackpoint>
            <Time>2022-07-09T15:35:12.000Z</Time>
            <Position>
              <LatitudeDegrees>43.3228768967092037200927734375</LatitudeDegrees>
              <LongitudeDegrees>-1.98588400147855281829833984375</LongitudeDegrees>
            </Position>
            <AltitudeMeters>14.6000003814697265625</AltitudeMeters>
            <DistanceMeters>NAN</DistanceMeters>
          </Trackpoint>
          <Trackpoint>
            <Time>2022-07-09T15:35:14.000Z</Time>
            <Position>
              <LatitudeDegrees>43.3228661678731441497802734375</LatitudeDegrees>
              <LongitudeDegrees>-1.98586128652095794677734375</LongitudeDegrees>
            </Position>
            <AltitudeMeters>14.80000019073486328125</AltitudeMeters>
            <DistanceMeters>NAN</DistanceMeters>
          </Trackpoint>
          <Trackpoint>
            <Time>2022-07-09T15:35:17.000Z</Time>
            <Position>
              <LatitudeDegrees>43.32278075627982616424560546875</LatitudeDegrees>
              <LongitudeDegrees>-1.98582298122346401214599609375</LongitudeDegrees>
            </Position>
            <AltitudeMeters>15</AltitudeMeters>
            <DistanceMeters>NAN</DistanceMeters>
          </Trackpoint>
          <Trackpoint>
            <Time>2022-07-09T15:35:22.000Z</Time>
            <Position>
              <LatitudeDegrees>43.32264027558267116546630859375</LatitudeDegrees>
              <LongitudeDegrees>-1.9857729412615299224853515625</LongitudeDegrees>
            </Position>
            <AltitudeMeters>14.6000003814697265625</AltitudeMeters>
            <DistanceMeters>NAN</DistanceMeters>
          </Trackpoint>
          <Trackpoint>
            <Time>2022-07-09T15:35:23.000Z</Time>
            <Position>
              <LatitudeDegrees>43.322631306946277618408203125</LatitudeDegrees>
              <LongitudeDegrees>-1.98575911112129688262939453125</LongitudeDegrees>
            </Position>
            <AltitudeMeters>14.6000003814697265625</AltitudeMeters>
            <DistanceMeters>NAN</DistanceMeters>
          </Trackpoint>
          <Trackpoint>
            <Time>2022-07-09T15:35:27.000Z</Time>
            <Position>
              <LatitudeDegrees>43.3225466497242450714111328125</LatitudeDegrees>
              <LongitudeDegrees>-1.985741592943668365478515625</LongitudeDegrees>
            </Position>
            <AltitudeMeters>14.3999996185302734375</AltitudeMeters>
            <DistanceMeters>NAN</DistanceMeters>
          </Trackpoint>
          <Trackpoint>
            <Time>2022-07-09T15:35:28.000Z</Time>
            <Position>
              <LatitudeDegrees>43.32252142019569873809814453125</LatitudeDegrees>
              <LongitudeDegrees>-1.98573279194533824920654296875</LongitudeDegrees>
            </Position>
            <AltitudeMeters>14.3999996185302734375</AltitudeMeters>
            <DistanceMeters>NAN</DistanceMeters>
          </Trackpoint>
          <Trackpoint>
            <Time>2022-07-09T15:35:31.000Z</Time>
            <Position>
              <LatitudeDegrees>43.32245461642742156982421875</LatitudeDegrees>
              <LongitudeDegrees>-1.98569959960877895355224609375</LongitudeDegrees>
            </Position>
            <AltitudeMeters>14.3999996185302734375</AltitudeMeters>
            <DistanceMeters>NAN</DistanceMeters>
          </Trackpoint>
          <Trackpoint>
            <Time>2022-07-09T15:35:37.000Z</Time>
            <Position>
              <LatitudeDegrees>43.3223251998424530029296875</LatitudeDegrees>
              <LongitudeDegrees>-1.98558376170694828033447265625</LongitudeDegrees>
            </Position>
            <AltitudeMeters>14.19999980926513671875</AltitudeMeters>
            <DistanceMeters>NAN</DistanceMeters>
          </Trackpoint>
          <Trackpoint>
            <Time>2022-07-09T15:35:42.000Z</Time>
            <Position>
              <LatitudeDegrees>43.322203494608402252197265625</LatitudeDegrees>
              <LongitudeDegrees>-1.98554612696170806884765625</LongitudeDegrees>
            </Position>
            <AltitudeMeters>13.80000019073486328125</AltitudeMeters>
            <DistanceMeters>NAN</DistanceMeters>
          </Trackpoint>
          <Trackpoint>
            <Time>2022-07-09T15:35:44.000Z</Time>
            <Position>
              <LatitudeDegrees>43.3221587352454662322998046875</LatitudeDegrees>
              <LongitudeDegrees>-1.98550849221646785736083984375</LongitudeDegrees>
            </Position>
            <AltitudeMeters>13.80000019073486328125</AltitudeMeters>
            <DistanceMeters>NAN</DistanceMeters>
          </Trackpoint>
          <Trackpoint>
            <Time>2022-07-09T15:35:46.000Z</Time>
            <Position>
              <LatitudeDegrees>43.3221347630023956298828125</LatitudeDegrees>
              <LongitudeDegrees>-1.9854716956615447998046875</LongitudeDegrees>
            </Position>
            <AltitudeMeters>13.80000019073486328125</AltitudeMeters>
            <DistanceMeters>NAN</DistanceMeters>
          </Trackpoint>
          <Trackpoint>
            <Time>2022-07-09T15:35:48.000Z</Time>
            <Position>
              <LatitudeDegrees>43.3221079409122467041015625</LatitudeDegrees>
              <LongitudeDegrees>-1.985465325415134429931640625</LongitudeDegrees>
            </Position>
            <AltitudeMeters>14</AltitudeMeters>
            <DistanceMeters>NAN</DistanceMeters>
          </Trackpoint>
          <Trackpoint>
            <Time>2022-07-09T15:35:52.000Z</Time>
            <Position>
              <LatitudeDegrees>43.32208405248820781707763671875</LatitudeDegrees>
              <LongitudeDegrees>-1.98542936705052852630615234375</LongitudeDegrees>
            </Position>
            <AltitudeMeters>14.19999980926513671875</AltitudeMeters>
            <DistanceMeters>NAN</DistanceMeters>
          </Trackpoint>
          <Trackpoint>
            <Time>2022-07-09T15:35:53.000Z</Time>
            <Position>
              <LatitudeDegrees>43.32207198254764080047607421875</LatitudeDegrees>
              <LongitudeDegrees>-1.98540857993066310882568359375</LongitudeDegrees>
            </Position>
            <AltitudeMeters>14.3999996185302734375</AltitudeMeters>
            <DistanceMeters>NAN</DistanceMeters>
          </Trackpoint>
          <Trackpoint>
            <Time>2022-07-09T15:35:58.000Z</Time>
            <Position>
              <LatitudeDegrees>43.32199704833328723907470703125</LatitudeDegrees>
              <LongitudeDegrees>-1.985278241336345672607421875</LongitudeDegrees>
            </Position>
            <AltitudeMeters>14.6000003814697265625</AltitudeMeters>
            <DistanceMeters>NAN</DistanceMeters>
          </Trackpoint>
          <Trackpoint>
            <Time>2022-07-09T15:36:03.000Z</Time>
            <Position>
              <LatitudeDegrees>43.3219067752361297607421875</LatitudeDegrees>
              <LongitudeDegrees>-1.9852183945477008819580078125</LongitudeDegrees>
            </Position>
            <AltitudeMeters>14.19999980926513671875</AltitudeMeters>
            <DistanceMeters>NAN</DistanceMeters>
          </Trackpoint>
          <Trackpoint>
            <Time>2022-07-09T15:36:04.000Z</Time>
            <Position>
              <LatitudeDegrees>43.32189529202878475189208984375</LatitudeDegrees>
              <LongitudeDegrees>-1.98520858772099018096923828125</LongitudeDegrees>
            </Position>
            <AltitudeMeters>14.19999980926513671875</AltitudeMeters>
            <DistanceMeters>NAN</DistanceMeters>
          </Trackpoint>
          <Trackpoint>
            <Time>2022-07-09T15:36:09.000Z</Time>
            <Position>
              <LatitudeDegrees>43.321819268167018890380859375</LatitudeDegrees>
              <LongitudeDegrees>-1.98516122996807098388671875</LongitudeDegrees>
            </Position>
            <AltitudeMeters>14.19999980926513671875</AltitudeMeters>
            <DistanceMeters>NAN</DistanceMeters>
          </Trackpoint>
          <Trackpoint>
            <Time>2022-07-09T15:36:11.000Z</Time>
            <Position>
              <LatitudeDegrees>43.3217745088040828704833984375</LatitudeDegrees>
              <LongitudeDegrees>-1.985138766467571258544921875</LongitudeDegrees>
            </Position>
            <AltitudeMeters>14.19999980926513671875</AltitudeMeters>
            <DistanceMeters>NAN</DistanceMeters>
          </Trackpoint>
          <Trackpoint>
            <Time>2022-07-09T15:36:12.000Z</Time>
            <Position>
              <LatitudeDegrees>43.32175229676067829132080078125</LatitudeDegrees>
              <LongitudeDegrees>-1.98513231240212917327880859375</LongitudeDegrees>
            </Position>
            <AltitudeMeters>14.19999980926513671875</AltitudeMeters>
            <DistanceMeters>NAN</DistanceMeters>
          </Trackpoint>
          <Trackpoint>
            <Time>2022-07-09T15:36:18.000Z</Time>
            <Position>
              <LatitudeDegrees>43.3216377161443233489990234375</LatitudeDegrees>
              <LongitudeDegrees>-1.98511353693902492523193359375</LongitudeDegrees>
            </Position>
            <AltitudeMeters>14.19999980926513671875</AltitudeMeters>
            <DistanceMeters>NAN</DistanceMeters>
          </Trackpoint>
          <Trackpoint>
            <Time>2022-07-09T15:36:24.000Z</Time>
            <Position>
              <LatitudeDegrees>43.321501426398754119873046875</LatitudeDegrees>
              <LongitudeDegrees>-1.9850534386932849884033203125</LongitudeDegrees>
            </Position>
            <AltitudeMeters>14.3999996185302734375</AltitudeMeters>
            <DistanceMeters>NAN</DistanceMeters>
          </Trackpoint>
          <Trackpoint>
            <Time>2022-07-09T15:36:29.000Z</Time>
            <Position>
              <LatitudeDegrees>43.32134325988590717315673828125</LatitudeDegrees>
              <LongitudeDegrees>-1.98488705791532993316650390625</LongitudeDegrees>
            </Position>
            <AltitudeMeters>14.19999980926513671875</AltitudeMeters>
            <DistanceMeters>NAN</DistanceMeters>
          </Trackpoint>
          <Trackpoint>
            <Time>2022-07-09T15:36:34.000Z</Time>
            <Position>
              <LatitudeDegrees>43.3211830817162990570068359375</LatitudeDegrees>
              <LongitudeDegrees>-1.984778679907321929931640625</LongitudeDegrees>
            </Position>
            <AltitudeMeters>14.3999996185302734375</AltitudeMeters>
            <DistanceMeters>NAN</DistanceMeters>
          </Trackpoint>
          <Trackpoint>
            <Time>2022-07-09T15:36:38.000Z</Time>
            <Position>
              <LatitudeDegrees>43.3210892044007778167724609375</LatitudeDegrees>
              <LongitudeDegrees>-1.9847107864916324615478515625</LongitudeDegrees>
            </Position>
            <AltitudeMeters>14.19999980926513671875</AltitudeMeters>
            <DistanceMeters>NAN</DistanceMeters>
          </Trackpoint>
          <Trackpoint>
            <Time>2022-07-09T15:36:44.000Z</Time>
            <Position>
              <LatitudeDegrees>43.32095324993133544921875</LatitudeDegrees>
              <LongitudeDegrees>-1.9846008159220218658447265625</LongitudeDegrees>
            </Position>
            <AltitudeMeters>14.19999980926513671875</AltitudeMeters>
            <DistanceMeters>NAN</DistanceMeters>
          </Trackpoint>
          <Trackpoint>
            <Time>2022-07-09T15:36:50.000Z</Time>
            <Position>
              <LatitudeDegrees>43.32081855274736881256103515625</LatitudeDegrees>
              <LongitudeDegrees>-1.98449796997010707855224609375</LongitudeDegrees>
            </Position>
            <AltitudeMeters>14.19999980926513671875</AltitudeMeters>
            <DistanceMeters>NAN</DistanceMeters>
          </Trackpoint>
          <Trackpoint>
            <Time>2022-07-09T15:36:59.000Z</Time>
            <Position>
              <LatitudeDegrees>43.32057028077542781829833984375</LatitudeDegrees>
              <LongitudeDegrees>-1.9843577407300472259521484375</LongitudeDegrees>
            </Position>
            <AltitudeMeters>14.6000003814697265625</AltitudeMeters>
            <DistanceMeters>NAN</DistanceMeters>
          </Trackpoint>
          <Trackpoint>
            <Time>2022-07-09T15:37:07.000Z</Time>
            <Position>
              <LatitudeDegrees>43.3203189074993133544921875</LatitudeDegrees>
              <LongitudeDegrees>-1.984164454042911529541015625</LongitudeDegrees>
            </Position>
            <AltitudeMeters>14.6000003814697265625</AltitudeMeters>
            <DistanceMeters>NAN</DistanceMeters>
          </Trackpoint>
          <Trackpoint>
            <Time>2022-07-09T15:37:15.000Z</Time>
            <Position>
              <LatitudeDegrees>43.32009385339915752410888671875</LatitudeDegrees>
              <LongitudeDegrees>-1.98398198001086711883544921875</LongitudeDegrees>
            </Position>
            <AltitudeMeters>14.6000003814697265625</AltitudeMeters>
            <DistanceMeters>NAN</DistanceMeters>
          </Trackpoint>
          <Trackpoint>
            <Time>2022-07-09T15:37:17.000Z</Time>
            <Position>
              <LatitudeDegrees>43.320064432919025421142578125</LatitudeDegrees>
              <LongitudeDegrees>-1.9839252345263957977294921875</LongitudeDegrees>
            </Position>
            <AltitudeMeters>14.6000003814697265625</AltitudeMeters>
            <DistanceMeters>NAN</DistanceMeters>
          </Trackpoint>
          <Trackpoint>
            <Time>2022-07-09T15:37:20.000Z</Time>
            <Position>
              <LatitudeDegrees>43.32002294249832630157470703125</LatitudeDegrees>
              <LongitudeDegrees>-1.98388718068599700927734375</LongitudeDegrees>
            </Position>
            <AltitudeMeters>15.19999980926513671875</AltitudeMeters>
            <DistanceMeters>NAN</DistanceMeters>
          </Trackpoint>
          <Trackpoint>
            <Time>2022-07-09T15:37:25.000Z</Time>
            <Position>
              <LatitudeDegrees>43.31988983787596225738525390625</LatitudeDegrees>
              <LongitudeDegrees>-1.98377989232540130615234375</LongitudeDegrees>
            </Position>
            <AltitudeMeters>15.6000003814697265625</AltitudeMeters>
            <DistanceMeters>NAN</DistanceMeters>
          </Trackpoint>
          <Trackpoint>
            <Time>2022-07-09T15:37:30.000Z</Time>
            <Position>
              <LatitudeDegrees>43.31972815096378326416015625</LatitudeDegrees>
              <LongitudeDegrees>-1.98363295756280422210693359375</LongitudeDegrees>
            </Position>
            <AltitudeMeters>15.3999996185302734375</AltitudeMeters>
            <DistanceMeters>NAN</DistanceMeters>
          </Trackpoint>
          <Trackpoint>
            <Time>2022-07-09T15:37:35.000Z</Time>
            <Position>
              <LatitudeDegrees>43.31954668276011943817138671875</LatitudeDegrees>
              <LongitudeDegrees>-1.98349197395145893096923828125</LongitudeDegrees>
            </Position>
            <AltitudeMeters>15</AltitudeMeters>
            <DistanceMeters>NAN</DistanceMeters>
          </Trackpoint>
          <Trackpoint>
            <Time>2022-07-09T15:37:43.000Z</Time>
            <Position>
              <LatitudeDegrees>43.31929028034210205078125</LatitudeDegrees>
              <LongitudeDegrees>-1.98330421932041645050048828125</LongitudeDegrees>
            </Position>
            <AltitudeMeters>14.80000019073486328125</AltitudeMeters>
            <DistanceMeters>NAN</DistanceMeters>
          </Trackpoint>
          <Trackpoint>
            <Time>2022-07-09T15:37:45.000Z</Time>
            <Position>
              <LatitudeDegrees>43.31921878270804882049560546875</LatitudeDegrees>
              <LongitudeDegrees>-1.98328058235347270965576171875</LongitudeDegrees>
            </Position>
            <AltitudeMeters>14.80000019073486328125</AltitudeMeters>
            <DistanceMeters>NAN</DistanceMeters>
          </Trackpoint>
          <Trackpoint>
            <Time>2022-07-09T15:37:48.000Z</Time>
            <Position>
              <LatitudeDegrees>43.319135718047618865966796875</LatitudeDegrees>
              <LongitudeDegrees>-1.983274631202220916748046875</LongitudeDegrees>
            </Position>
            <AltitudeMeters>14.80000019073486328125</AltitudeMeters>
            <DistanceMeters>NAN</DistanceMeters>
          </Trackpoint>
          <Trackpoint>
            <Time>2022-07-09T15:37:52.000Z</Time>
            <Position>
              <LatitudeDegrees>43.31908651627600193023681640625</LatitudeDegrees>
              <LongitudeDegrees>-1.98326381854712963104248046875</LongitudeDegrees>
            </Position>
            <AltitudeMeters>14.80000019073486328125</AltitudeMeters>
            <DistanceMeters>NAN</DistanceMeters>
          </Trackpoint>
          <Trackpoint>
            <Time>2022-07-09T15:37:57.000Z</Time>
            <Position>
              <LatitudeDegrees>43.31905030645430088043212890625</LatitudeDegrees>
              <LongitudeDegrees>-1.98318569920957088470458984375</LongitudeDegrees>
            </Position>
            <AltitudeMeters>14.80000019073486328125</AltitudeMeters>
            <DistanceMeters>NAN</DistanceMeters>
          </Trackpoint>
          <Trackpoint>
            <Time>2022-07-09T15:37:58.000Z</Time>
            <Position>
              <LatitudeDegrees>43.319024741649627685546875</LatitudeDegrees>
              <LongitudeDegrees>-1.98317480273544788360595703125</LongitudeDegrees>
            </Position>
            <AltitudeMeters>14.80000019073486328125</AltitudeMeters>
            <DistanceMeters>NAN</DistanceMeters>
          </Trackpoint>
          <Trackpoint>
            <Time>2022-07-09T15:38:05.000Z</Time>
            <Position>
              <LatitudeDegrees>43.31884008832275867462158203125</LatitudeDegrees>
              <LongitudeDegrees>-1.983063407242298126220703125</LongitudeDegrees>
            </Position>
            <AltitudeMeters>15</AltitudeMeters>
            <DistanceMeters>NAN</DistanceMeters>
          </Trackpoint>
          <Trackpoint>
            <Time>2022-07-09T15:38:08.000Z</Time>
            <Position>
              <LatitudeDegrees>43.31878057681024074554443359375</LatitudeDegrees>
              <LongitudeDegrees>-1.98303683660924434661865234375</LongitudeDegrees>
            </Position>
            <AltitudeMeters>15</AltitudeMeters>
            <DistanceMeters>NAN</DistanceMeters>
          </Trackpoint>
          <Trackpoint>
            <Time>2022-07-09T15:38:10.000Z</Time>
            <Position>
              <LatitudeDegrees>43.31874000839889049530029296875</LatitudeDegrees>
              <LongitudeDegrees>-1.98301554657518863677978515625</LongitudeDegrees>
            </Position>
            <AltitudeMeters>15</AltitudeMeters>
            <DistanceMeters>NAN</DistanceMeters>
          </Trackpoint>
          <Trackpoint>
            <Time>2022-07-09T15:38:14.000Z</Time>
            <Position>
              <LatitudeDegrees>43.318642191588878631591796875</LatitudeDegrees>
              <LongitudeDegrees>-1.9829316437244415283203125</LongitudeDegrees>
            </Position>
            <AltitudeMeters>14.80000019073486328125</AltitudeMeters>
            <DistanceMeters>NAN</DistanceMeters>
          </Trackpoint>
          <Trackpoint>
            <Time>2022-07-09T15:38:16.000Z</Time>
            <Position>
              <LatitudeDegrees>43.31859349273145198822021484375</LatitudeDegrees>
              <LongitudeDegrees>-1.98289669118821620941162109375</LongitudeDegrees>
            </Position>
            <AltitudeMeters>14.80000019073486328125</AltitudeMeters>
            <DistanceMeters>NAN</DistanceMeters>
          </Trackpoint>
          <Trackpoint>
            <Time>2022-07-09T15:38:18.000Z</Time>
            <Position>
              <LatitudeDegrees>43.31854353658854961395263671875</LatitudeDegrees>
              <LongitudeDegrees>-1.98287573643028736114501953125</LongitudeDegrees>
            </Position>
            <AltitudeMeters>14.6000003814697265625</AltitudeMeters>
            <DistanceMeters>NAN</DistanceMeters>
          </Trackpoint>
          <Trackpoint>
            <Time>2022-07-09T15:38:23.000Z</Time>
            <Position>
              <LatitudeDegrees>43.3184603042900562286376953125</LatitudeDegrees>
              <LongitudeDegrees>-1.982781775295734405517578125</LongitudeDegrees>
            </Position>
            <AltitudeMeters>15.19999980926513671875</AltitudeMeters>
            <DistanceMeters>NAN</DistanceMeters>
          </Trackpoint>
          <Trackpoint>
            <Time>2022-07-09T15:38:28.000Z</Time>
            <Position>
              <LatitudeDegrees>43.31831387244164943695068359375</LatitudeDegrees>
              <LongitudeDegrees>-1.98268630541861057281494140625</LongitudeDegrees>
            </Position>
            <AltitudeMeters>15.19999980926513671875</AltitudeMeters>
            <DistanceMeters>NAN</DistanceMeters>
          </Trackpoint>
          <Trackpoint>
            <Time>2022-07-09T15:38:29.000Z</Time>
            <Position>
              <LatitudeDegrees>43.3182913251221179962158203125</LatitudeDegrees>
              <LongitudeDegrees>-1.9826763309538364410400390625</LongitudeDegrees>
            </Position>
            <AltitudeMeters>15.19999980926513671875</AltitudeMeters>
            <DistanceMeters>NAN</DistanceMeters>
          </Trackpoint>
          <Trackpoint>
            <Time>2022-07-09T15:38:36.000Z</Time>
            <Position>
              <LatitudeDegrees>43.31812628544867038726806640625</LatitudeDegrees>
              <LongitudeDegrees>-1.98249201290309429168701171875</LongitudeDegrees>
            </Position>
            <AltitudeMeters>15.19999980926513671875</AltitudeMeters>
            <DistanceMeters>NAN</DistanceMeters>
          </Trackpoint>
          <Trackpoint>
            <Time>2022-07-09T15:38:41.000Z</Time>
            <Position>
              <LatitudeDegrees>43.3180271275341510772705078125</LatitudeDegrees>
              <LongitudeDegrees>-1.98244222439825534820556640625</LongitudeDegrees>
            </Position>
            <AltitudeMeters>15.6000003814697265625</AltitudeMeters>
            <DistanceMeters>NAN</DistanceMeters>
          </Trackpoint>
          <Trackpoint>
            <Time>2022-07-09T15:38:43.000Z</Time>
            <Position>
              <LatitudeDegrees>43.31799276173114776611328125</LatitudeDegrees>
              <LongitudeDegrees>-1.982444822788238525390625</LongitudeDegrees>
            </Position>
            <AltitudeMeters>15.80000019073486328125</AltitudeMeters>
            <DistanceMeters>NAN</DistanceMeters>
          </Trackpoint>
          <Trackpoint>
            <Time>2022-07-09T15:38:50.000Z</Time>
            <Position>
              <LatitudeDegrees>43.31787147559225559234619140625</LatitudeDegrees>
              <LongitudeDegrees>-1.98237265460193157196044921875</LongitudeDegrees>
            </Position>
            <AltitudeMeters>15.3999996185302734375</AltitudeMeters>
            <DistanceMeters>NAN</DistanceMeters>
          </Trackpoint>
          <Trackpoint>
            <Time>2022-07-09T15:38:51.000Z</Time>
            <Position>
              <LatitudeDegrees>43.31785052083432674407958984375</LatitudeDegrees>
              <LongitudeDegrees>-1.98235974647104740142822265625</LongitudeDegrees>
            </Position>
            <AltitudeMeters>15.3999996185302734375</AltitudeMeters>
            <DistanceMeters>NAN</DistanceMeters>
          </Trackpoint>
          <Trackpoint>
            <Time>2022-07-09T15:38:55.000Z</Time>
            <Position>
              <LatitudeDegrees>43.3177739940583705902099609375</LatitudeDegrees>
              <LongitudeDegrees>-1.9822971336543560028076171875</LongitudeDegrees>
            </Position>
            <AltitudeMeters>15.19999980926513671875</AltitudeMeters>
            <DistanceMeters>NAN</DistanceMeters>
          </Trackpoint>
          <Trackpoint>
            <Time>2022-07-09T15:39:02.000Z</Time>
            <Position>
              <LatitudeDegrees>43.31762622110545635223388671875</LatitudeDegrees>
              <LongitudeDegrees>-1.9821784459054470062255859375</LongitudeDegrees>
            </Position>
            <AltitudeMeters>15</AltitudeMeters>
            <DistanceMeters>NAN</DistanceMeters>
          </Trackpoint>
          <Trackpoint>
            <Time>2022-07-09T15:39:03.000Z</Time>
            <Position>
              <LatitudeDegrees>43.317604847252368927001953125</LatitudeDegrees>
              <LongitudeDegrees>-1.98214349336922168731689453125</LongitudeDegrees>
            </Position>
            <AltitudeMeters>15</AltitudeMeters>
            <DistanceMeters>NAN</DistanceMeters>
          </Trackpoint>
          <Trackpoint>
            <Time>2022-07-09T15:39:06.000Z</Time>
            <Position>
              <LatitudeDegrees>43.31752069294452667236328125</LatitudeDegrees>
              <LongitudeDegrees>-1.9821216166019439697265625</LongitudeDegrees>
            </Position>
            <AltitudeMeters>15.19999980926513671875</AltitudeMeters>
            <DistanceMeters>NAN</DistanceMeters>
          </Trackpoint>
          <Trackpoint>
            <Time>2022-07-09T15:39:07.000Z</Time>
            <Position>
              <LatitudeDegrees>43.31749496050179004669189453125</LatitudeDegrees>
              <LongitudeDegrees>-1.982137374579906463623046875</LongitudeDegrees>
            </Position>
            <AltitudeMeters>15.19999980926513671875</AltitudeMeters>
            <DistanceMeters>NAN</DistanceMeters>
          </Trackpoint>
          <Trackpoint>
            <Time>2022-07-09T15:39:09.000Z</Time>
            <Position>
              <LatitudeDegrees>43.31742337904870510101318359375</LatitudeDegrees>
              <LongitudeDegrees>-1.9821859896183013916015625</LongitudeDegrees>
            </Position>
            <AltitudeMeters>15.19999980926513671875</AltitudeMeters>
            <DistanceMeters>NAN</DistanceMeters>
          </Trackpoint>
          <Trackpoint>
            <Time>2022-07-09T15:39:10.000Z</Time>
            <Position>
              <LatitudeDegrees>43.31739974208176136016845703125</LatitudeDegrees>
              <LongitudeDegrees>-1.98219495825469493865966796875</LongitudeDegrees>
            </Position>
            <AltitudeMeters>15.19999980926513671875</AltitudeMeters>
            <DistanceMeters>NAN</DistanceMeters>
          </Trackpoint>
          <Trackpoint>
            <Time>2022-07-09T15:39:12.000Z</Time>
            <Position>
              <LatitudeDegrees>43.31733922474086284637451171875</LatitudeDegrees>
              <LongitudeDegrees>-1.982136704027652740478515625</LongitudeDegrees>
            </Position>
            <AltitudeMeters>15.19999980926513671875</AltitudeMeters>
            <DistanceMeters>NAN</DistanceMeters>
          </Trackpoint>
          <Trackpoint>
            <Time>2022-07-09T15:39:14.000Z</Time>
            <Position>
              <LatitudeDegrees>43.31719304434955120086669921875</LatitudeDegrees>
              <LongitudeDegrees>-1.9821167550981044769287109375</LongitudeDegrees>
            </Position>
            <AltitudeMeters>15.19999980926513671875</AltitudeMeters>
            <DistanceMeters>NAN</DistanceMeters>
          </Trackpoint>
          <Trackpoint>
            <Time>2022-07-09T15:39:18.000Z</Time>
            <Position>
              <LatitudeDegrees>43.31724383868277072906494140625</LatitudeDegrees>
              <LongitudeDegrees>-1.98231984861195087432861328125</LongitudeDegrees>
            </Position>
            <AltitudeMeters>15.19999980926513671875</AltitudeMeters>
            <DistanceMeters>NAN</DistanceMeters>
          </Trackpoint>
          <Trackpoint>
            <Time>2022-07-09T15:39:20.000Z</Time>
            <Position>
              <LatitudeDegrees>43.317348696291446685791015625</LatitudeDegrees>
              <LongitudeDegrees>-1.98239050805568695068359375</LongitudeDegrees>
            </Position>
            <AltitudeMeters>15.19999980926513671875</AltitudeMeters>
            <DistanceMeters>NAN</DistanceMeters>
          </Trackpoint>
          <Trackpoint>
            <Time>2022-07-09T15:39:22.000Z</Time>
            <Position>
              <LatitudeDegrees>43.31730318255722522735595703125</LatitudeDegrees>
              <LongitudeDegrees>-1.98239511810243129730224609375</LongitudeDegrees>
            </Position>
            <AltitudeMeters>15.19999980926513671875</AltitudeMeters>
            <DistanceMeters>NAN</DistanceMeters>
          </Trackpoint>
          <Trackpoint>
            <Time>2022-07-09T15:39:24.000Z</Time>
            <Position>
              <LatitudeDegrees>43.31726009957492351531982421875</LatitudeDegrees>
              <LongitudeDegrees>-1.9824828766286373138427734375</LongitudeDegrees>
            </Position>
            <AltitudeMeters>15.19999980926513671875</AltitudeMeters>
            <DistanceMeters>NAN</DistanceMeters>
          </Trackpoint>
          <Trackpoint>
            <Time>2022-07-09T15:39:26.000Z</Time>
            <Position>
              <LatitudeDegrees>43.3172727562487125396728515625</LatitudeDegrees>
              <LongitudeDegrees>-1.98254364542663097381591796875</LongitudeDegrees>
            </Position>
            <AltitudeMeters>15.19999980926513671875</AltitudeMeters>
            <DistanceMeters>NAN</DistanceMeters>
          </Trackpoint>
          <Trackpoint>
            <Time>2022-07-09T15:39:27.000Z</Time>
            <Position>
              <LatitudeDegrees>43.3172362111508846282958984375</LatitudeDegrees>
              <LongitudeDegrees>-1.9825891591608524322509765625</LongitudeDegrees>
            </Position>
            <AltitudeMeters>15.19999980926513671875</AltitudeMeters>
            <DistanceMeters>NAN</DistanceMeters>
          </Trackpoint>
          <Trackpoint>
            <Time>2022-07-09T15:39:30.000Z</Time>
            <Position>
              <LatitudeDegrees>43.3171567507088184356689453125</LatitudeDegrees>
              <LongitudeDegrees>-1.98266685940325260162353515625</LongitudeDegrees>
            </Position>
            <AltitudeMeters>15.19999980926513671875</AltitudeMeters>
            <DistanceMeters>NAN</DistanceMeters>
          </Trackpoint>
          <Trackpoint>
            <Time>2022-07-09T15:39:38.000Z</Time>
            <Position>
              <LatitudeDegrees>43.31713604740798473358154296875</LatitudeDegrees>
              <LongitudeDegrees>-1.98281488381326198577880859375</LongitudeDegrees>
            </Position>
            <AltitudeMeters>15.19999980926513671875</AltitudeMeters>
            <DistanceMeters>NAN</DistanceMeters>
          </Trackpoint>
          <Trackpoint>
            <Time>2022-07-09T15:39:45.000Z</Time>
            <Position>
              <LatitudeDegrees>43.3170481212437152862548828125</LatitudeDegrees>
              <LongitudeDegrees>-1.982901804149150848388671875</LongitudeDegrees>
            </Position>
            <AltitudeMeters>15.6000003814697265625</AltitudeMeters>
            <DistanceMeters>NAN</DistanceMeters>
          </Trackpoint>
          <Trackpoint>
            <Time>2022-07-09T15:39:48.000Z</Time>
            <Position>
              <LatitudeDegrees>43.31702758558094501495361328125</LatitudeDegrees>
              <LongitudeDegrees>-1.9829468987882137298583984375</LongitudeDegrees>
            </Position>
            <AltitudeMeters>15.6000003814697265625</AltitudeMeters>
            <DistanceMeters>NAN</DistanceMeters>
          </Trackpoint>
          <Trackpoint>
            <Time>2022-07-09T15:39:50.000Z</Time>
            <Position>
              <LatitudeDegrees>43.31702222116291522979736328125</LatitudeDegrees>
              <LongitudeDegrees>-1.98296047747135162353515625</LongitudeDegrees>
            </Position>
            <AltitudeMeters>15.6000003814697265625</AltitudeMeters>
            <DistanceMeters>NAN</DistanceMeters>
          </Trackpoint>
          <Trackpoint>
            <Time>2022-07-09T15:39:51.000Z</Time>
            <Position>
              <LatitudeDegrees>43.3170251548290252685546875</LatitudeDegrees>
              <LongitudeDegrees>-1.98296592570841312408447265625</LongitudeDegrees>
            </Position>
            <AltitudeMeters>15.6000003814697265625</AltitudeMeters>
            <DistanceMeters>NAN</DistanceMeters>
          </Trackpoint>
          <Trackpoint>
            <Time>2022-07-09T15:41:21.000Z</Time>
            <Position>
              <LatitudeDegrees>43.31713018007576465606689453125</LatitudeDegrees>
              <LongitudeDegrees>-1.9829700328409671783447265625</LongitudeDegrees>
            </Position>
            <AltitudeMeters>12.6000003814697265625</AltitudeMeters>
            <DistanceMeters>NAN</DistanceMeters>
          </Trackpoint>
          <Trackpoint>
            <Time>2022-07-09T15:41:22.000Z</Time>
            <Position>
              <LatitudeDegrees>43.317139148712158203125</LatitudeDegrees>
              <LongitudeDegrees>-1.9829358346760272979736328125</LongitudeDegrees>
            </Position>
            <AltitudeMeters>12.6000003814697265625</AltitudeMeters>
            <DistanceMeters>NAN</DistanceMeters>
          </Trackpoint>
          <Trackpoint>
            <Time>2022-07-09T15:41:23.000Z</Time>
            <Position>
              <LatitudeDegrees>43.31715096719563007354736328125</LatitudeDegrees>
              <LongitudeDegrees>-1.98289535008370876312255859375</LongitudeDegrees>
            </Position>
            <AltitudeMeters>12.6000003814697265625</AltitudeMeters>
            <DistanceMeters>NAN</DistanceMeters>
          </Trackpoint>
          <Trackpoint>
            <Time>2022-07-09T15:41:28.000Z</Time>
            <Position>
              <LatitudeDegrees>43.31721835769712924957275390625</LatitudeDegrees>
              <LongitudeDegrees>-1.9826957769691944122314453125</LongitudeDegrees>
            </Position>
            <AltitudeMeters>12.19999980926513671875</AltitudeMeters>
            <DistanceMeters>NAN</DistanceMeters>
          </Trackpoint>
          <Trackpoint>
            <Time>2022-07-09T15:41:36.000Z</Time>
            <Position>
              <LatitudeDegrees>43.3173163421452045440673828125</LatitudeDegrees>
              <LongitudeDegrees>-1.98241556994616985321044921875</LongitudeDegrees>
            </Position>
            <AltitudeMeters>11.80000019073486328125</AltitudeMeters>
            <DistanceMeters>NAN</DistanceMeters>
          </Trackpoint>
          <Trackpoint>
            <Time>2022-07-09T15:41:43.000Z</Time>
            <Position>
              <LatitudeDegrees>43.3173890970647335052490234375</LatitudeDegrees>
              <LongitudeDegrees>-1.9821942038834095001220703125</LongitudeDegrees>
            </Position>
            <AltitudeMeters>11.6000003814697265625</AltitudeMeters>
            <DistanceMeters>NAN</DistanceMeters>
          </Trackpoint>
          <Trackpoint>
            <Time>2022-07-09T15:41:45.000Z</Time>
            <Position>
              <LatitudeDegrees>43.31739488057792186737060546875</LatitudeDegrees>
              <LongitudeDegrees>-1.98213628493249416351318359375</LongitudeDegrees>
            </Position>
            <AltitudeMeters>11.6000003814697265625</AltitudeMeters>
            <DistanceMeters>NAN</DistanceMeters>
          </Trackpoint>
          <Trackpoint>
            <Time>2022-07-09T15:41:50.000Z</Time>
            <Position>
              <LatitudeDegrees>43.31745137460529804229736328125</LatitudeDegrees>
              <LongitudeDegrees>-1.98200468905270099639892578125</LongitudeDegrees>
            </Position>
            <AltitudeMeters>11.3999996185302734375</AltitudeMeters>
            <DistanceMeters>NAN</DistanceMeters>
          </Trackpoint>
          <Trackpoint>
            <Time>2022-07-09T15:41:56.000Z</Time>
            <Position>
              <LatitudeDegrees>43.31749412231147289276123046875</LatitudeDegrees>
              <LongitudeDegrees>-1.98188717477023601531982421875</LongitudeDegrees>
            </Position>
            <AltitudeMeters>11.19999980926513671875</AltitudeMeters>
            <DistanceMeters>NAN</DistanceMeters>
          </Trackpoint>
          <Trackpoint>
            <Time>2022-07-09T15:41:57.000Z</Time>
            <Position>
              <LatitudeDegrees>43.317492194473743438720703125</LatitudeDegrees>
              <LongitudeDegrees>-1.9818810559809207916259765625</LongitudeDegrees>
            </Position>
            <AltitudeMeters>11.19999980926513671875</AltitudeMeters>
            <DistanceMeters>NAN</DistanceMeters>
          </Trackpoint>
          <Trackpoint>
            <Time>2022-07-09T15:42:42.000Z</Time>
            <Position>
              <LatitudeDegrees>43.3173974789679050445556640625</LatitudeDegrees>
              <LongitudeDegrees>-1.9816876016557216644287109375</LongitudeDegrees>
            </Position>
            <AltitudeMeters>10.80000019073486328125</AltitudeMeters>
            <DistanceMeters>NAN</DistanceMeters>
          </Trackpoint>
          <Trackpoint>
            <Time>2022-07-09T15:42:45.000Z</Time>
            <Position>
              <LatitudeDegrees>43.31733553670346736907958984375</LatitudeDegrees>
              <LongitudeDegrees>-1.98169439099729061126708984375</LongitudeDegrees>
            </Position>
            <AltitudeMeters>10.6000003814697265625</AltitudeMeters>
            <DistanceMeters>NAN</DistanceMeters>
          </Trackpoint>
          <Trackpoint>
            <Time>2022-07-09T15:42:51.000Z</Time>
            <Position>
              <LatitudeDegrees>43.3172610215842723846435546875</LatitudeDegrees>
              <LongitudeDegrees>-1.98176178149878978729248046875</LongitudeDegrees>
            </Position>
            <AltitudeMeters>10.80000019073486328125</AltitudeMeters>
            <DistanceMeters>NAN</DistanceMeters>
          </Trackpoint>
          <Trackpoint>
            <Time>2022-07-09T15:42:52.000Z</Time>
            <Position>
              <LatitudeDegrees>43.31725339405238628387451171875</LatitudeDegrees>
              <LongitudeDegrees>-1.981778629124164581298828125</LongitudeDegrees>
            </Position>
            <AltitudeMeters>10.80000019073486328125</AltitudeMeters>
            <DistanceMeters>NAN</DistanceMeters>
          </Trackpoint>
          <Trackpoint>
            <Time>2022-07-09T15:42:56.000Z</Time>
            <Position>
              <LatitudeDegrees>43.31725959666073322296142578125</LatitudeDegrees>
              <LongitudeDegrees>-1.98186747729778289794921875</LongitudeDegrees>
            </Position>
            <AltitudeMeters>10.6000003814697265625</AltitudeMeters>
            <DistanceMeters>NAN</DistanceMeters>
          </Trackpoint>
          <Trackpoint>
            <Time>2022-07-09T15:42:57.000Z</Time>
            <Position>
              <LatitudeDegrees>43.317269571125507354736328125</LatitudeDegrees>
              <LongitudeDegrees>-1.9818904437124729156494140625</LongitudeDegrees>
            </Position>
            <AltitudeMeters>10.6000003814697265625</AltitudeMeters>
            <DistanceMeters>NAN</DistanceMeters>
          </Trackpoint>
          <Trackpoint>
            <Time>2022-07-09T15:43:04.000Z</Time>
            <Position>
              <LatitudeDegrees>43.31738431937992572784423828125</LatitudeDegrees>
              <LongitudeDegrees>-1.9820071198046207427978515625</LongitudeDegrees>
            </Position>
            <AltitudeMeters>11</AltitudeMeters>
            <DistanceMeters>NAN</DistanceMeters>
          </Trackpoint>
          <Trackpoint>
            <Time>2022-07-09T15:43:05.000Z</Time>
            <Position>
              <LatitudeDegrees>43.3173991553485393524169921875</LatitudeDegrees>
              <LongitudeDegrees>-1.98200250975787639617919921875</LongitudeDegrees>
            </Position>
            <AltitudeMeters>11</AltitudeMeters>
            <DistanceMeters>NAN</DistanceMeters>
          </Trackpoint>
          <Trackpoint>
            <Time>2022-07-09T15:43:10.000Z</Time>
            <Position>
              <LatitudeDegrees>43.31745321862399578094482421875</LatitudeDegrees>
              <LongitudeDegrees>-1.98197099380195140838623046875</LongitudeDegrees>
            </Position>
            <AltitudeMeters>10.80000019073486328125</AltitudeMeters>
            <DistanceMeters>NAN</DistanceMeters>
          </Trackpoint>
          <Trackpoint>
            <Time>2022-07-09T15:43:11.000Z</Time>
            <Position>
              <LatitudeDegrees>43.317458666861057281494140625</LatitudeDegrees>
              <LongitudeDegrees>-1.9819544814527034759521484375</LongitudeDegrees>
            </Position>
            <AltitudeMeters>10.6000003814697265625</AltitudeMeters>
            <DistanceMeters>NAN</DistanceMeters>
          </Trackpoint>
          <Trackpoint>
            <Time>2022-07-09T15:43:15.000Z</Time>
            <Position>
              <LatitudeDegrees>43.3174856565892696380615234375</LatitudeDegrees>
              <LongitudeDegrees>-1.98185180313885211944580078125</LongitudeDegrees>
            </Position>
            <AltitudeMeters>10.6000003814697265625</AltitudeMeters>
            <DistanceMeters>NAN</DistanceMeters>
          </Trackpoint>
          <Trackpoint>
            <Time>2022-07-09T15:43:20.000Z</Time>
            <Position>
              <LatitudeDegrees>43.31753653474152088165283203125</LatitudeDegrees>
              <LongitudeDegrees>-1.981693804264068603515625</LongitudeDegrees>
            </Position>
            <AltitudeMeters>10.80000019073486328125</AltitudeMeters>
            <DistanceMeters>NAN</DistanceMeters>
          </Trackpoint>
          <Trackpoint>
            <Time>2022-07-09T15:43:23.000Z</Time>
            <Position>
              <LatitudeDegrees>43.31756469793617725372314453125</LatitudeDegrees>
              <LongitudeDegrees>-1.98160939849913120269775390625</LongitudeDegrees>
            </Position>
            <AltitudeMeters>10.6000003814697265625</AltitudeMeters>
            <DistanceMeters>NAN</DistanceMeters>
          </Trackpoint>
          <Trackpoint>
            <Time>2022-07-09T15:43:27.000Z</Time>
            <Position>
              <LatitudeDegrees>43.3175993151962757110595703125</LatitudeDegrees>
              <LongitudeDegrees>-1.98153932578861713409423828125</LongitudeDegrees>
            </Position>
            <AltitudeMeters>10.3999996185302734375</AltitudeMeters>
            <DistanceMeters>NAN</DistanceMeters>
          </Trackpoint>
          <Trackpoint>
            <Time>2022-07-09T15:43:28.000Z</Time>
            <Position>
              <LatitudeDegrees>43.31760107539594173431396484375</LatitudeDegrees>
              <LongitudeDegrees>-1.9815236516296863555908203125</LongitudeDegrees>
            </Position>
            <AltitudeMeters>10.3999996185302734375</AltitudeMeters>
            <DistanceMeters>NAN</DistanceMeters>
          </Trackpoint>
          <Trackpoint>
            <Time>2022-07-09T15:43:30.000Z</Time>
            <Position>
              <LatitudeDegrees>43.31760006956756114959716796875</LatitudeDegrees>
              <LongitudeDegrees>-1.9814877770841121673583984375</LongitudeDegrees>
            </Position>
            <AltitudeMeters>10.3999996185302734375</AltitudeMeters>
            <DistanceMeters>NAN</DistanceMeters>
          </Trackpoint>
          <Trackpoint>
            <Time>2022-07-09T15:43:31.000Z</Time>
            <Position>
              <LatitudeDegrees>43.3175999857485294342041015625</LatitudeDegrees>
              <LongitudeDegrees>-1.9814700074493885040283203125</LongitudeDegrees>
            </Position>
            <AltitudeMeters>10.19999980926513671875</AltitudeMeters>
            <DistanceMeters>NAN</DistanceMeters>
          </Trackpoint>
          <Trackpoint>
            <Time>2022-07-09T15:43:37.000Z</Time>
            <Position>
              <LatitudeDegrees>43.3177196793258190155029296875</LatitudeDegrees>
              <LongitudeDegrees>-1.98131762444972991943359375</LongitudeDegrees>
            </Position>
            <AltitudeMeters>10.19999980926513671875</AltitudeMeters>
            <DistanceMeters>NAN</DistanceMeters>
          </Trackpoint>
          <Trackpoint>
            <Time>2022-07-09T15:43:38.000Z</Time>
            <Position>
              <LatitudeDegrees>43.317740298807621002197265625</LatitudeDegrees>
              <LongitudeDegrees>-1.98129080235958099365234375</LongitudeDegrees>
            </Position>
            <AltitudeMeters>10.3999996185302734375</AltitudeMeters>
            <DistanceMeters>NAN</DistanceMeters>
          </Trackpoint>
          <Trackpoint>
            <Time>2022-07-09T15:43:41.000Z</Time>
            <Position>
              <LatitudeDegrees>43.31776787526905536651611328125</LatitudeDegrees>
              <LongitudeDegrees>-1.98120572604238986968994140625</LongitudeDegrees>
            </Position>
            <AltitudeMeters>10.3999996185302734375</AltitudeMeters>
            <DistanceMeters>NAN</DistanceMeters>
          </Trackpoint>
          <Trackpoint>
            <Time>2022-07-09T15:43:43.000Z</Time>
            <Position>
              <LatitudeDegrees>43.3178018219769001007080078125</LatitudeDegrees>
              <LongitudeDegrees>-1.981141269207000732421875</LongitudeDegrees>
            </Position>
            <AltitudeMeters>10.3999996185302734375</AltitudeMeters>
            <DistanceMeters>NAN</DistanceMeters>
          </Trackpoint>
          <Trackpoint>
            <Time>2022-07-09T15:43:46.000Z</Time>
            <Position>
              <LatitudeDegrees>43.31786745227873325347900390625</LatitudeDegrees>
              <LongitudeDegrees>-1.981032304465770721435546875</LongitudeDegrees>
            </Position>
            <AltitudeMeters>10.19999980926513671875</AltitudeMeters>
            <DistanceMeters>NAN</DistanceMeters>
          </Trackpoint>
          <Trackpoint>
            <Time>2022-07-09T15:43:54.000Z</Time>
            <Position>
              <LatitudeDegrees>43.3179805241525173187255859375</LatitudeDegrees>
              <LongitudeDegrees>-1.98073566891252994537353515625</LongitudeDegrees>
            </Position>
            <AltitudeMeters>10.19999980926513671875</AltitudeMeters>
            <DistanceMeters>NAN</DistanceMeters>
          </Trackpoint>
          <Trackpoint>
            <Time>2022-07-09T15:43:58.000Z</Time>
            <Position>
              <LatitudeDegrees>43.31799888052046298980712890625</LatitudeDegrees>
              <LongitudeDegrees>-1.9806690327823162078857421875</LongitudeDegrees>
            </Position>
            <AltitudeMeters>10</AltitudeMeters>
            <DistanceMeters>NAN</DistanceMeters>
          </Trackpoint>
          <Trackpoint>
            <Time>2022-07-09T15:44:04.000Z</Time>
            <Position>
              <LatitudeDegrees>43.31802972592413425445556640625</LatitudeDegrees>
              <LongitudeDegrees>-1.9805650971829891204833984375</LongitudeDegrees>
            </Position>
            <AltitudeMeters>9.80000019073486328125</AltitudeMeters>
            <DistanceMeters>NAN</DistanceMeters>
          </Trackpoint>
          <Trackpoint>
            <Time>2022-07-09T15:44:05.000Z</Time>
            <Position>
              <LatitudeDegrees>43.31804464571177959442138671875</LatitudeDegrees>
              <LongitudeDegrees>-1.98055193759500980377197265625</LongitudeDegrees>
            </Position>
            <AltitudeMeters>9.6000003814697265625</AltitudeMeters>
            <DistanceMeters>NAN</DistanceMeters>
          </Trackpoint>
          <Trackpoint>
            <Time>2022-07-09T15:44:11.000Z</Time>
            <Position>
              <LatitudeDegrees>43.31811002455651760101318359375</LatitudeDegrees>
              <LongitudeDegrees>-1.98053198866546154022216796875</LongitudeDegrees>
            </Position>
            <AltitudeMeters>9.80000019073486328125</AltitudeMeters>
            <DistanceMeters>NAN</DistanceMeters>
          </Trackpoint>
          <Trackpoint>
            <Time>2022-07-09T15:44:15.000Z</Time>
            <Position>
              <LatitudeDegrees>43.31820440478622913360595703125</LatitudeDegrees>
              <LongitudeDegrees>-1.980572305619716644287109375</LongitudeDegrees>
            </Position>
            <AltitudeMeters>10</AltitudeMeters>
            <DistanceMeters>NAN</DistanceMeters>
          </Trackpoint>
          <Trackpoint>
            <Time>2022-07-09T15:44:21.000Z</Time>
            <Position>
              <LatitudeDegrees>43.31834119744598865509033203125</LatitudeDegrees>
              <LongitudeDegrees>-1.980701722204685211181640625</LongitudeDegrees>
            </Position>
            <AltitudeMeters>10.6000003814697265625</AltitudeMeters>
            <DistanceMeters>NAN</DistanceMeters>
          </Trackpoint>
          <Trackpoint>
            <Time>2022-07-09T15:44:22.000Z</Time>
            <Position>
              <LatitudeDegrees>43.31837304867804050445556640625</LatitudeDegrees>
              <LongitudeDegrees>-1.98072393424808979034423828125</LongitudeDegrees>
            </Position>
            <AltitudeMeters>10.6000003814697265625</AltitudeMeters>
            <DistanceMeters>NAN</DistanceMeters>
          </Trackpoint>
          <Trackpoint>
            <Time>2022-07-09T15:44:27.000Z</Time>
            <Position>
              <LatitudeDegrees>43.318500705063343048095703125</LatitudeDegrees>
              <LongitudeDegrees>-1.98084563948214054107666015625</LongitudeDegrees>
            </Position>
            <AltitudeMeters>9.80000019073486328125</AltitudeMeters>
            <DistanceMeters>NAN</DistanceMeters>
          </Trackpoint>
          <Trackpoint>
            <Time>2022-07-09T15:44:30.000Z</Time>
            <Position>
              <LatitudeDegrees>43.31858661957085132598876953125</LatitudeDegrees>
              <LongitudeDegrees>-1.98089928366243839263916015625</LongitudeDegrees>
            </Position>
            <AltitudeMeters>10.19999980926513671875</AltitudeMeters>
            <DistanceMeters>NAN</DistanceMeters>
          </Trackpoint>
          <Trackpoint>
            <Time>2022-07-09T15:44:32.000Z</Time>
            <Position>
              <LatitudeDegrees>43.31863020546734333038330078125</LatitudeDegrees>
              <LongitudeDegrees>-1.9809352420270442962646484375</LongitudeDegrees>
            </Position>
            <AltitudeMeters>10.19999980926513671875</AltitudeMeters>
            <DistanceMeters>NAN</DistanceMeters>
          </Trackpoint>
          <Trackpoint>
            <Time>2022-07-09T15:44:38.000Z</Time>
            <Position>
              <LatitudeDegrees>43.318754173815250396728515625</LatitudeDegrees>
              <LongitudeDegrees>-1.9810259342193603515625</LongitudeDegrees>
            </Position>
            <AltitudeMeters>10.3999996185302734375</AltitudeMeters>
            <DistanceMeters>NAN</DistanceMeters>
          </Trackpoint>
          <Trackpoint>
            <Time>2022-07-09T15:44:40.000Z</Time>
            <Position>
              <LatitudeDegrees>43.3188136853277683258056640625</LatitudeDegrees>
              <LongitudeDegrees>-1.981066167354583740234375</LongitudeDegrees>
            </Position>
            <AltitudeMeters>10.3999996185302734375</AltitudeMeters>
            <DistanceMeters>NAN</DistanceMeters>
          </Trackpoint>
          <Trackpoint>
            <Time>2022-07-09T15:44:42.000Z</Time>
            <Position>
              <LatitudeDegrees>43.31885618157684803009033203125</LatitudeDegrees>
              <LongitudeDegrees>-1.98110380209982395172119140625</LongitudeDegrees>
            </Position>
            <AltitudeMeters>10.6000003814697265625</AltitudeMeters>
            <DistanceMeters>NAN</DistanceMeters>
          </Trackpoint>
          <Trackpoint>
            <Time>2022-07-09T15:44:44.000Z</Time>
            <Position>
              <LatitudeDegrees>43.31889021210372447967529296875</LatitudeDegrees>
              <LongitudeDegrees>-1.98114604689180850982666015625</LongitudeDegrees>
            </Position>
            <AltitudeMeters>10.6000003814697265625</AltitudeMeters>
            <DistanceMeters>NAN</DistanceMeters>
          </Trackpoint>
          <Trackpoint>
            <Time>2022-07-09T15:44:49.000Z</Time>
            <Position>
              <LatitudeDegrees>43.3189903758466243743896484375</LatitudeDegrees>
              <LongitudeDegrees>-1.9812366552650928497314453125</LongitudeDegrees>
            </Position>
            <AltitudeMeters>10.3999996185302734375</AltitudeMeters>
            <DistanceMeters>NAN</DistanceMeters>
          </Trackpoint>
          <Trackpoint>
            <Time>2022-07-09T15:44:54.000Z</Time>
            <Position>
              <LatitudeDegrees>43.31903882324695587158203125</LatitudeDegrees>
              <LongitudeDegrees>-1.9812386669218540191650390625</LongitudeDegrees>
            </Position>
            <AltitudeMeters>10.6000003814697265625</AltitudeMeters>
            <DistanceMeters>NAN</DistanceMeters>
          </Trackpoint>
          <Trackpoint>
            <Time>2022-07-09T15:44:55.000Z</Time>
            <Position>
              <LatitudeDegrees>43.3190448582172393798828125</LatitudeDegrees>
              <LongitudeDegrees>-1.98123472742736339569091796875</LongitudeDegrees>
            </Position>
            <AltitudeMeters>10.6000003814697265625</AltitudeMeters>
            <DistanceMeters>NAN</DistanceMeters>
          </Trackpoint>
          <Trackpoint>
            <Time>2022-07-09T15:44:57.000Z</Time>
            <Position>
              <LatitudeDegrees>43.319094814360141754150390625</LatitudeDegrees>
              <LongitudeDegrees>-1.98120103217661380767822265625</LongitudeDegrees>
            </Position>
            <AltitudeMeters>10.6000003814697265625</AltitudeMeters>
            <DistanceMeters>NAN</DistanceMeters>
          </Trackpoint>
          <Trackpoint>
            <Time>2022-07-09T15:45:04.000Z</Time>
            <Position>
              <LatitudeDegrees>43.31921341829001903533935546875</LatitudeDegrees>
              <LongitudeDegrees>-1.980967260897159576416015625</LongitudeDegrees>
            </Position>
            <AltitudeMeters>10.6000003814697265625</AltitudeMeters>
            <DistanceMeters>NAN</DistanceMeters>
          </Trackpoint>
          <Trackpoint>
            <Time>2022-07-09T15:45:11.000Z</Time>
            <Position>
              <LatitudeDegrees>43.3192837424576282501220703125</LatitudeDegrees>
              <LongitudeDegrees>-1.98075545020401477813720703125</LongitudeDegrees>
            </Position>
            <AltitudeMeters>10.6000003814697265625</AltitudeMeters>
            <DistanceMeters>NAN</DistanceMeters>
          </Trackpoint>
          <Trackpoint>
            <Time>2022-07-09T15:45:12.000Z</Time>
            <Position>
              <LatitudeDegrees>43.3192901127040386199951171875</LatitudeDegrees>
              <LongitudeDegrees>-1.98073022067546844482421875</LongitudeDegrees>
            </Position>
            <AltitudeMeters>10.80000019073486328125</AltitudeMeters>
            <DistanceMeters>NAN</DistanceMeters>
          </Trackpoint>
          <Trackpoint>
            <Time>2022-07-09T15:45:18.000Z</Time>
            <Position>
              <LatitudeDegrees>43.31933797337114810943603515625</LatitudeDegrees>
              <LongitudeDegrees>-1.98057121597230434417724609375</LongitudeDegrees>
            </Position>
            <AltitudeMeters>10.80000019073486328125</AltitudeMeters>
            <DistanceMeters>NAN</DistanceMeters>
          </Trackpoint>
          <Trackpoint>
            <Time>2022-07-09T15:45:20.000Z</Time>
            <Position>
              <LatitudeDegrees>43.319350294768810272216796875</LatitudeDegrees>
              <LongitudeDegrees>-1.9805412925779819488525390625</LongitudeDegrees>
            </Position>
            <AltitudeMeters>10.80000019073486328125</AltitudeMeters>
            <DistanceMeters>NAN</DistanceMeters>
          </Trackpoint>
          <Trackpoint>
            <Time>2022-07-09T15:45:22.000Z</Time>
            <Position>
              <LatitudeDegrees>43.31934870220720767974853515625</LatitudeDegrees>
              <LongitudeDegrees>-1.980515979230403900146484375</LongitudeDegrees>
            </Position>
            <AltitudeMeters>10.80000019073486328125</AltitudeMeters>
            <DistanceMeters>NAN</DistanceMeters>
          </Trackpoint>
          <Trackpoint>
            <Time>2022-07-09T15:45:26.000Z</Time>
            <Position>
              <LatitudeDegrees>43.31939480267465114593505859375</LatitudeDegrees>
              <LongitudeDegrees>-1.9803723134100437164306640625</LongitudeDegrees>
            </Position>
            <AltitudeMeters>10.80000019073486328125</AltitudeMeters>
            <DistanceMeters>NAN</DistanceMeters>
          </Trackpoint>
          <Trackpoint>
            <Time>2022-07-09T15:45:31.000Z</Time>
            <Position>
              <LatitudeDegrees>43.31948138773441314697265625</LatitudeDegrees>
              <LongitudeDegrees>-1.98018631897866725921630859375</LongitudeDegrees>
            </Position>
            <AltitudeMeters>11.19999980926513671875</AltitudeMeters>
            <DistanceMeters>NAN</DistanceMeters>
          </Trackpoint>
          <Trackpoint>
            <Time>2022-07-09T15:45:36.000Z</Time>
            <Position>
              <LatitudeDegrees>43.3195727504789829254150390625</LatitudeDegrees>
              <LongitudeDegrees>-1.98000828735530376434326171875</LongitudeDegrees>
            </Position>
            <AltitudeMeters>11.3999996185302734375</AltitudeMeters>
            <DistanceMeters>NAN</DistanceMeters>
          </Trackpoint>
          <Trackpoint>
            <Time>2022-07-09T15:45:40.000Z</Time>
            <Position>
              <LatitudeDegrees>43.31962362863123416900634765625</LatitudeDegrees>
              <LongitudeDegrees>-1.97987786494195461273193359375</LongitudeDegrees>
            </Position>
            <AltitudeMeters>11.3999996185302734375</AltitudeMeters>
            <DistanceMeters>NAN</DistanceMeters>
          </Trackpoint>
          <Trackpoint>
            <Time>2022-07-09T15:45:42.000Z</Time>
            <Position>
              <LatitudeDegrees>43.31963703967630863189697265625</LatitudeDegrees>
              <LongitudeDegrees>-1.979824639856815338134765625</LongitudeDegrees>
            </Position>
            <AltitudeMeters>11.3999996185302734375</AltitudeMeters>
            <DistanceMeters>NAN</DistanceMeters>
          </Trackpoint>
          <Trackpoint>
            <Time>2022-07-09T15:45:44.000Z</Time>
            <Position>
              <LatitudeDegrees>43.31964634358882904052734375</LatitudeDegrees>
              <LongitudeDegrees>-1.9798046909272670745849609375</LongitudeDegrees>
            </Position>
            <AltitudeMeters>11.3999996185302734375</AltitudeMeters>
            <DistanceMeters>NAN</DistanceMeters>
          </Trackpoint>
          <Trackpoint>
            <Time>2022-07-09T15:45:47.000Z</Time>
            <Position>
              <LatitudeDegrees>43.3196501992642879486083984375</LatitudeDegrees>
              <LongitudeDegrees>-1.97978231124579906463623046875</LongitudeDegrees>
            </Position>
            <AltitudeMeters>11.19999980926513671875</AltitudeMeters>
            <DistanceMeters>NAN</DistanceMeters>
          </Trackpoint>
          <Trackpoint>
            <Time>2022-07-09T15:45:52.000Z</Time>
            <Position>
              <LatitudeDegrees>43.3197048492729663848876953125</LatitudeDegrees>
              <LongitudeDegrees>-1.9797091372311115264892578125</LongitudeDegrees>
            </Position>
            <AltitudeMeters>11.3999996185302734375</AltitudeMeters>
            <DistanceMeters>NAN</DistanceMeters>
          </Trackpoint>
          <Trackpoint>
            <Time>2022-07-09T15:45:56.000Z</Time>
            <Position>
              <LatitudeDegrees>43.31975405104458332061767578125</LatitudeDegrees>
              <LongitudeDegrees>-1.97958625853061676025390625</LongitudeDegrees>
            </Position>
            <AltitudeMeters>11.6000003814697265625</AltitudeMeters>
            <DistanceMeters>NAN</DistanceMeters>
          </Trackpoint>
          <Trackpoint>
            <Time>2022-07-09T15:45:57.000Z</Time>
            <Position>
              <LatitudeDegrees>43.3197759278118610382080078125</LatitudeDegrees>
              <LongitudeDegrees>-1.9795478694140911102294921875</LongitudeDegrees>
            </Position>
            <AltitudeMeters>11.6000003814697265625</AltitudeMeters>
            <DistanceMeters>NAN</DistanceMeters>
          </Trackpoint>
          <Trackpoint>
            <Time>2022-07-09T15:46:02.000Z</Time>
            <Position>
              <LatitudeDegrees>43.31984926946461200714111328125</LatitudeDegrees>
              <LongitudeDegrees>-1.97934477590024471282958984375</LongitudeDegrees>
            </Position>
            <AltitudeMeters>11.80000019073486328125</AltitudeMeters>
            <DistanceMeters>NAN</DistanceMeters>
          </Trackpoint>
          <Trackpoint>
            <Time>2022-07-09T15:46:03.000Z</Time>
            <Position>
              <LatitudeDegrees>43.3198517002165317535400390625</LatitudeDegrees>
              <LongitudeDegrees>-1.97931594215333461761474609375</LongitudeDegrees>
            </Position>
            <AltitudeMeters>11.80000019073486328125</AltitudeMeters>
            <DistanceMeters>NAN</DistanceMeters>
          </Trackpoint>
          <Trackpoint>
            <Time>2022-07-09T15:46:04.000Z</Time>
            <Position>
              <LatitudeDegrees>43.31985848955810070037841796875</LatitudeDegrees>
              <LongitudeDegrees>-1.97928559966385364532470703125</LongitudeDegrees>
            </Position>
            <AltitudeMeters>11.80000019073486328125</AltitudeMeters>
            <DistanceMeters>NAN</DistanceMeters>
          </Trackpoint>
          <Trackpoint>
            <Time>2022-07-09T15:46:07.000Z</Time>
            <Position>
              <LatitudeDegrees>43.31987441517412662506103515625</LatitudeDegrees>
              <LongitudeDegrees>-1.97922524996101856231689453125</LongitudeDegrees>
            </Position>
            <AltitudeMeters>11.80000019073486328125</AltitudeMeters>
            <DistanceMeters>NAN</DistanceMeters>
          </Trackpoint>
          <Trackpoint>
            <Time>2022-07-09T15:46:10.000Z</Time>
            <Position>
              <LatitudeDegrees>43.31985245458781719207763671875</LatitudeDegrees>
              <LongitudeDegrees>-1.97921209037303924560546875</LongitudeDegrees>
            </Position>
            <AltitudeMeters>12</AltitudeMeters>
            <DistanceMeters>NAN</DistanceMeters>
          </Trackpoint>
          <Trackpoint>
            <Time>2022-07-09T15:46:11.000Z</Time>
            <Position>
              <LatitudeDegrees>43.31984407268464565277099609375</LatitudeDegrees>
              <LongitudeDegrees>-1.9792042113840579986572265625</LongitudeDegrees>
            </Position>
            <AltitudeMeters>12</AltitudeMeters>
            <DistanceMeters>NAN</DistanceMeters>
          </Trackpoint>
          <Trackpoint>
            <Time>2022-07-09T15:46:12.000Z</Time>
            <Position>
              <LatitudeDegrees>43.3198426477611064910888671875</LatitudeDegrees>
              <LongitudeDegrees>-1.979199014604091644287109375</LongitudeDegrees>
            </Position>
            <AltitudeMeters>12</AltitudeMeters>
            <DistanceMeters>NAN</DistanceMeters>
          </Trackpoint>
          <Trackpoint>
            <Time>2022-07-09T15:46:20.000Z</Time>
            <Position>
              <LatitudeDegrees>43.3198020793497562408447265625</LatitudeDegrees>
              <LongitudeDegrees>-1.97904177010059356689453125</LongitudeDegrees>
            </Position>
            <AltitudeMeters>11.80000019073486328125</AltitudeMeters>
            <DistanceMeters>NAN</DistanceMeters>
          </Trackpoint>
          <Trackpoint>
            <Time>2022-07-09T15:46:23.000Z</Time>
            <Position>
              <LatitudeDegrees>43.319814987480640411376953125</LatitudeDegrees>
              <LongitudeDegrees>-1.97902425192296504974365234375</LongitudeDegrees>
            </Position>
            <AltitudeMeters>12</AltitudeMeters>
            <DistanceMeters>NAN</DistanceMeters>
          </Trackpoint>
          <Trackpoint>
            <Time>2022-07-09T15:46:24.000Z</Time>
            <Position>
              <LatitudeDegrees>43.31981725059449672698974609375</LatitudeDegrees>
              <LongitudeDegrees>-1.97903330437839031219482421875</LongitudeDegrees>
            </Position>
            <AltitudeMeters>12</AltitudeMeters>
            <DistanceMeters>NAN</DistanceMeters>
          </Trackpoint>
          <Trackpoint>
            <Time>2022-07-09T15:46:26.000Z</Time>
            <Position>
              <LatitudeDegrees>43.31982831470668315887451171875</LatitudeDegrees>
              <LongitudeDegrees>-1.97903514839708805084228515625</LongitudeDegrees>
            </Position>
            <AltitudeMeters>12</AltitudeMeters>
            <DistanceMeters>NAN</DistanceMeters>
          </Trackpoint>
          <Trackpoint>
            <Time>2022-07-09T15:46:27.000Z</Time>
            <Position>
              <LatitudeDegrees>43.319840468466281890869140625</LatitudeDegrees>
              <LongitudeDegrees>-1.97903632186353206634521484375</LongitudeDegrees>
            </Position>
            <AltitudeMeters>12</AltitudeMeters>
            <DistanceMeters>NAN</DistanceMeters>
          </Trackpoint>
          <Trackpoint>
            <Time>2022-07-09T15:46:32.000Z</Time>
            <Position>
              <LatitudeDegrees>43.31994432024657726287841796875</LatitudeDegrees>
              <LongitudeDegrees>-1.97906993329524993896484375</LongitudeDegrees>
            </Position>
            <AltitudeMeters>12</AltitudeMeters>
            <DistanceMeters>NAN</DistanceMeters>
          </Trackpoint>
          <Trackpoint>
            <Time>2022-07-09T15:46:37.000Z</Time>
            <Position>
              <LatitudeDegrees>43.320072479546070098876953125</LatitudeDegrees>
              <LongitudeDegrees>-1.979055516421794891357421875</LongitudeDegrees>
            </Position>
            <AltitudeMeters>12.6000003814697265625</AltitudeMeters>
            <DistanceMeters>NAN</DistanceMeters>
          </Trackpoint>
          <Trackpoint>
            <Time>2022-07-09T15:46:38.000Z</Time>
            <Position>
              <LatitudeDegrees>43.320091925561428070068359375</LatitudeDegrees>
              <LongitudeDegrees>-1.97905878536403179168701171875</LongitudeDegrees>
            </Position>
            <AltitudeMeters>12.80000019073486328125</AltitudeMeters>
            <DistanceMeters>NAN</DistanceMeters>
          </Trackpoint>
          <Trackpoint>
            <Time>2022-07-09T15:46:41.000Z</Time>
            <Position>
              <LatitudeDegrees>43.32015520893037319183349609375</LatitudeDegrees>
              <LongitudeDegrees>-1.979058198630809783935546875</LongitudeDegrees>
            </Position>
            <AltitudeMeters>13</AltitudeMeters>
            <DistanceMeters>NAN</DistanceMeters>
          </Trackpoint>
          <Trackpoint>
            <Time>2022-07-09T15:46:42.000Z</Time>
            <Position>
              <LatitudeDegrees>43.320183120667934417724609375</LatitudeDegrees>
              <LongitudeDegrees>-1.97905744425952434539794921875</LongitudeDegrees>
            </Position>
            <AltitudeMeters>13.19999980926513671875</AltitudeMeters>
            <DistanceMeters>NAN</DistanceMeters>
          </Trackpoint>
          <Trackpoint>
            <Time>2022-07-09T15:46:48.000Z</Time>
            <Position>
              <LatitudeDegrees>43.32038638181984424591064453125</LatitudeDegrees>
              <LongitudeDegrees>-1.97910346090793609619140625</LongitudeDegrees>
            </Position>
            <AltitudeMeters>13.3999996185302734375</AltitudeMeters>
            <DistanceMeters>NAN</DistanceMeters>
          </Trackpoint>
          <Trackpoint>
            <Time>2022-07-09T15:46:50.000Z</Time>
            <Position>
              <LatitudeDegrees>43.3204639144241809844970703125</LatitudeDegrees>
              <LongitudeDegrees>-1.9790996052324771881103515625</LongitudeDegrees>
            </Position>
            <AltitudeMeters>13.3999996185302734375</AltitudeMeters>
            <DistanceMeters>NAN</DistanceMeters>
          </Trackpoint>
          <Trackpoint>
            <Time>2022-07-09T15:46:52.000Z</Time>
            <Position>
              <LatitudeDegrees>43.32050188444554805755615234375</LatitudeDegrees>
              <LongitudeDegrees>-1.9790768064558506011962890625</LongitudeDegrees>
            </Position>
            <AltitudeMeters>13.3999996185302734375</AltitudeMeters>
            <DistanceMeters>NAN</DistanceMeters>
          </Trackpoint>
          <Trackpoint>
            <Time>2022-07-09T15:46:54.000Z</Time>
            <Position>
              <LatitudeDegrees>43.32052099518477916717529296875</LatitudeDegrees>
              <LongitudeDegrees>-1.9790355674922466278076171875</LongitudeDegrees>
            </Position>
            <AltitudeMeters>13.3999996185302734375</AltitudeMeters>
            <DistanceMeters>NAN</DistanceMeters>
          </Trackpoint>
          <Trackpoint>
            <Time>2022-07-09T15:46:58.000Z</Time>
            <Position>
              <LatitudeDegrees>43.32056575454771518707275390625</LatitudeDegrees>
              <LongitudeDegrees>-1.97893892414867877960205078125</LongitudeDegrees>
            </Position>
            <AltitudeMeters>13.19999980926513671875</AltitudeMeters>
            <DistanceMeters>NAN</DistanceMeters>
          </Trackpoint>
          <Trackpoint>
            <Time>2022-07-09T15:46:59.000Z</Time>
            <Position>
              <LatitudeDegrees>43.32058369182050228118896484375</LatitudeDegrees>
              <LongitudeDegrees>-1.97892786003649234771728515625</LongitudeDegrees>
            </Position>
            <AltitudeMeters>13.19999980926513671875</AltitudeMeters>
            <DistanceMeters>NAN</DistanceMeters>
          </Trackpoint>
          <Trackpoint>
            <Time>2022-07-09T15:47:02.000Z</Time>
            <Position>
              <LatitudeDegrees>43.32065812312066555023193359375</LatitudeDegrees>
              <LongitudeDegrees>-1.9788799993693828582763671875</LongitudeDegrees>
            </Position>
            <AltitudeMeters>13.3999996185302734375</AltitudeMeters>
            <DistanceMeters>NAN</DistanceMeters>
          </Trackpoint>
          <Trackpoint>
            <Time>2022-07-09T15:47:03.000Z</Time>
            <Position>
              <LatitudeDegrees>43.3206756412982940673828125</LatitudeDegrees>
              <LongitudeDegrees>-1.9788439571857452392578125</LongitudeDegrees>
            </Position>
            <AltitudeMeters>13.3999996185302734375</AltitudeMeters>
            <DistanceMeters>NAN</DistanceMeters>
          </Trackpoint>
          <Trackpoint>
            <Time>2022-07-09T15:47:11.000Z</Time>
            <Position>
              <LatitudeDegrees>43.32078703679144382476806640625</LatitudeDegrees>
              <LongitudeDegrees>-1.9785125367343425750732421875</LongitudeDegrees>
            </Position>
            <AltitudeMeters>13.80000019073486328125</AltitudeMeters>
            <DistanceMeters>NAN</DistanceMeters>
          </Trackpoint>
          <Trackpoint>
            <Time>2022-07-09T15:47:12.000Z</Time>
            <Position>
              <LatitudeDegrees>43.32080581225454807281494140625</LatitudeDegrees>
              <LongitudeDegrees>-1.978475488722324371337890625</LongitudeDegrees>
            </Position>
            <AltitudeMeters>14</AltitudeMeters>
            <DistanceMeters>NAN</DistanceMeters>
          </Trackpoint>
          <Trackpoint>
            <Time>2022-07-09T15:47:19.000Z</Time>
            <Position>
              <LatitudeDegrees>43.32094662822782993316650390625</LatitudeDegrees>
              <LongitudeDegrees>-1.9781759195029735565185546875</LongitudeDegrees>
            </Position>
            <AltitudeMeters>13.80000019073486328125</AltitudeMeters>
            <DistanceMeters>NAN</DistanceMeters>
          </Trackpoint>
          <Trackpoint>
            <Time>2022-07-09T15:47:24.000Z</Time>
            <Position>
              <LatitudeDegrees>43.32106120884418487548828125</LatitudeDegrees>
              <LongitudeDegrees>-1.97801180183887481689453125</LongitudeDegrees>
            </Position>
            <AltitudeMeters>13.80000019073486328125</AltitudeMeters>
            <DistanceMeters>NAN</DistanceMeters>
          </Trackpoint>
          <Trackpoint>
            <Time>2022-07-09T15:47:29.000Z</Time>
            <Position>
              <LatitudeDegrees>43.321143686771392822265625</LatitudeDegrees>
              <LongitudeDegrees>-1.9778490252792835235595703125</LongitudeDegrees>
            </Position>
            <AltitudeMeters>14.6000003814697265625</AltitudeMeters>
            <DistanceMeters>NAN</DistanceMeters>
          </Trackpoint>
          <Trackpoint>
            <Time>2022-07-09T15:47:30.000Z</Time>
            <Position>
              <LatitudeDegrees>43.3211450278759002685546875</LatitudeDegrees>
              <LongitudeDegrees>-1.97781222872436046600341796875</LongitudeDegrees>
            </Position>
            <AltitudeMeters>14.6000003814697265625</AltitudeMeters>
            <DistanceMeters>NAN</DistanceMeters>
          </Trackpoint>
          <Trackpoint>
            <Time>2022-07-09T15:47:33.000Z</Time>
            <Position>
              <LatitudeDegrees>43.32115466706454753875732421875</LatitudeDegrees>
              <LongitudeDegrees>-1.97773327119648456573486328125</LongitudeDegrees>
            </Position>
            <AltitudeMeters>14.80000019073486328125</AltitudeMeters>
            <DistanceMeters>NAN</DistanceMeters>
          </Trackpoint>
          <Trackpoint>
            <Time>2022-07-09T15:47:34.000Z</Time>
            <Position>
              <LatitudeDegrees>43.32115584053099155426025390625</LatitudeDegrees>
              <LongitudeDegrees>-1.977711729705333709716796875</LongitudeDegrees>
            </Position>
            <AltitudeMeters>14.80000019073486328125</AltitudeMeters>
            <DistanceMeters>NAN</DistanceMeters>
          </Trackpoint>
          <Trackpoint>
            <Time>2022-07-09T15:47:38.000Z</Time>
            <Position>
              <LatitudeDegrees>43.32114645279943943023681640625</LatitudeDegrees>
              <LongitudeDegrees>-1.97760008275508880615234375</LongitudeDegrees>
            </Position>
            <AltitudeMeters>13.3999996185302734375</AltitudeMeters>
            <DistanceMeters>NAN</DistanceMeters>
          </Trackpoint>
          <Trackpoint>
            <Time>2022-07-09T15:47:39.000Z</Time>
            <Position>
              <LatitudeDegrees>43.3211485482752323150634765625</LatitudeDegrees>
              <LongitudeDegrees>-1.9775694049894809722900390625</LongitudeDegrees>
            </Position>
            <AltitudeMeters>13</AltitudeMeters>
            <DistanceMeters>NAN</DistanceMeters>
          </Trackpoint>
          <Trackpoint>
            <Time>2022-07-09T15:47:44.000Z</Time>
            <Position>
              <LatitudeDegrees>43.32120479084551334381103515625</LatitudeDegrees>
              <LongitudeDegrees>-1.97741366922855377197265625</LongitudeDegrees>
            </Position>
            <AltitudeMeters>12.3999996185302734375</AltitudeMeters>
            <DistanceMeters>NAN</DistanceMeters>
          </Trackpoint>
          <Trackpoint>
            <Time>2022-07-09T15:47:45.000Z</Time>
            <Position>
              <LatitudeDegrees>43.32122138701379299163818359375</LatitudeDegrees>
              <LongitudeDegrees>-1.977382488548755645751953125</LongitudeDegrees>
            </Position>
            <AltitudeMeters>12.3999996185302734375</AltitudeMeters>
            <DistanceMeters>NAN</DistanceMeters>
          </Trackpoint>
          <Trackpoint>
            <Time>2022-07-09T15:47:52.000Z</Time>
            <Position>
              <LatitudeDegrees>43.32133135758340358734130859375</LatitudeDegrees>
              <LongitudeDegrees>-1.97721275500953197479248046875</LongitudeDegrees>
            </Position>
            <AltitudeMeters>13.6000003814697265625</AltitudeMeters>
            <DistanceMeters>NAN</DistanceMeters>
          </Trackpoint>
          <Trackpoint>
            <Time>2022-07-09T15:47:53.000Z</Time>
            <Position>
              <LatitudeDegrees>43.321333117783069610595703125</LatitudeDegrees>
              <LongitudeDegrees>-1.97721174918115139007568359375</LongitudeDegrees>
            </Position>
            <AltitudeMeters>13.6000003814697265625</AltitudeMeters>
            <DistanceMeters>NAN</DistanceMeters>
          </Trackpoint>
          <Trackpoint>
            <Time>2022-07-09T15:47:54.000Z</Time>
            <Position>
              <LatitudeDegrees>43.32133236341178417205810546875</LatitudeDegrees>
              <LongitudeDegrees>-1.977211497724056243896484375</LongitudeDegrees>
            </Position>
            <AltitudeMeters>13.80000019073486328125</AltitudeMeters>
            <DistanceMeters>NAN</DistanceMeters>
          </Trackpoint>
          <Trackpoint>
            <Time>2022-07-09T15:47:58.000Z</Time>
            <Position>
              <LatitudeDegrees>43.3213671483099460601806640625</LatitudeDegrees>
              <LongitudeDegrees>-1.977159865200519561767578125</LongitudeDegrees>
            </Position>
            <AltitudeMeters>13.80000019073486328125</AltitudeMeters>
            <DistanceMeters>NAN</DistanceMeters>
          </Trackpoint>
          <Trackpoint>
            <Time>2022-07-09T15:48:00.000Z</Time>
            <Position>
              <LatitudeDegrees>43.32139941863715648651123046875</LatitudeDegrees>
              <LongitudeDegrees>-1.97708937339484691619873046875</LongitudeDegrees>
            </Position>
            <AltitudeMeters>14</AltitudeMeters>
            <DistanceMeters>NAN</DistanceMeters>
          </Trackpoint>
          <Trackpoint>
            <Time>2022-07-09T15:48:03.000Z</Time>
            <Position>
              <LatitudeDegrees>43.32144183106720447540283203125</LatitudeDegrees>
              <LongitudeDegrees>-1.97696481831371784210205078125</LongitudeDegrees>
            </Position>
            <AltitudeMeters>14.19999980926513671875</AltitudeMeters>
            <DistanceMeters>NAN</DistanceMeters>
          </Trackpoint>
          <Trackpoint>
            <Time>2022-07-09T15:48:07.000Z</Time>
            <Position>
              <LatitudeDegrees>43.321503438055515289306640625</LatitudeDegrees>
              <LongitudeDegrees>-1.97677002288401126861572265625</LongitudeDegrees>
            </Position>
            <AltitudeMeters>14.19999980926513671875</AltitudeMeters>
            <DistanceMeters>NAN</DistanceMeters>
          </Trackpoint>
          <Trackpoint>
            <Time>2022-07-09T15:48:13.000Z</Time>
            <Position>
              <LatitudeDegrees>43.321591280400753021240234375</LatitudeDegrees>
              <LongitudeDegrees>-1.97651789523661136627197265625</LongitudeDegrees>
            </Position>
            <AltitudeMeters>14</AltitudeMeters>
            <DistanceMeters>NAN</DistanceMeters>
          </Trackpoint>
          <Trackpoint>
            <Time>2022-07-09T15:48:18.000Z</Time>
            <Position>
              <LatitudeDegrees>43.32169555127620697021484375</LatitudeDegrees>
              <LongitudeDegrees>-1.97626241482794284820556640625</LongitudeDegrees>
            </Position>
            <AltitudeMeters>13.19999980926513671875</AltitudeMeters>
            <DistanceMeters>NAN</DistanceMeters>
          </Trackpoint>
          <Trackpoint>
            <Time>2022-07-09T15:48:19.000Z</Time>
            <Position>
              <LatitudeDegrees>43.32171508111059665679931640625</LatitudeDegrees>
              <LongitudeDegrees>-1.97621874511241912841796875</LongitudeDegrees>
            </Position>
            <AltitudeMeters>13.19999980926513671875</AltitudeMeters>
            <DistanceMeters>NAN</DistanceMeters>
          </Trackpoint>
          <Trackpoint>
            <Time>2022-07-09T15:48:24.000Z</Time>
            <Position>
              <LatitudeDegrees>43.3217949606478214263916015625</LatitudeDegrees>
              <LongitudeDegrees>-1.97597776539623737335205078125</LongitudeDegrees>
            </Position>
            <AltitudeMeters>13</AltitudeMeters>
            <DistanceMeters>NAN</DistanceMeters>
          </Trackpoint>
          <Trackpoint>
            <Time>2022-07-09T15:48:29.000Z</Time>
            <Position>
              <LatitudeDegrees>43.32186059094965457916259765625</LatitudeDegrees>
              <LongitudeDegrees>-1.9757019169628620147705078125</LongitudeDegrees>
            </Position>
            <AltitudeMeters>12.6000003814697265625</AltitudeMeters>
            <DistanceMeters>NAN</DistanceMeters>
          </Trackpoint>
          <Trackpoint>
            <Time>2022-07-09T15:48:30.000Z</Time>
            <Position>
              <LatitudeDegrees>43.32189043052494525909423828125</LatitudeDegrees>
              <LongitudeDegrees>-1.97564651258289813995361328125</LongitudeDegrees>
            </Position>
            <AltitudeMeters>12.3999996185302734375</AltitudeMeters>
            <DistanceMeters>NAN</DistanceMeters>
          </Trackpoint>
          <Trackpoint>
            <Time>2022-07-09T15:48:33.000Z</Time>
            <Position>
              <LatitudeDegrees>43.32195580936968326568603515625</LatitudeDegrees>
              <LongitudeDegrees>-1.97549329139292240142822265625</LongitudeDegrees>
            </Position>
            <AltitudeMeters>12.19999980926513671875</AltitudeMeters>
            <DistanceMeters>NAN</DistanceMeters>
          </Trackpoint>
          <Trackpoint>
            <Time>2022-07-09T15:48:35.000Z</Time>
            <Position>
              <LatitudeDegrees>43.322036527097225189208984375</LatitudeDegrees>
              <LongitudeDegrees>-1.97545163333415985107421875</LongitudeDegrees>
            </Position>
            <AltitudeMeters>12.19999980926513671875</AltitudeMeters>
            <DistanceMeters>NAN</DistanceMeters>
          </Trackpoint>
          <Trackpoint>
            <Time>2022-07-09T15:48:36.000Z</Time>
            <Position>
              <LatitudeDegrees>43.32207885570824146270751953125</LatitudeDegrees>
              <LongitudeDegrees>-1.97544761002063751220703125</LongitudeDegrees>
            </Position>
            <AltitudeMeters>12.19999980926513671875</AltitudeMeters>
            <DistanceMeters>NAN</DistanceMeters>
          </Trackpoint>
          <Trackpoint>
            <Time>2022-07-09T15:48:37.000Z</Time>
            <Position>
              <LatitudeDegrees>43.322126381099224090576171875</LatitudeDegrees>
              <LongitudeDegrees>-1.97545356117188930511474609375</LongitudeDegrees>
            </Position>
            <AltitudeMeters>12.19999980926513671875</AltitudeMeters>
            <DistanceMeters>NAN</DistanceMeters>
          </Trackpoint>
          <Trackpoint>
            <Time>2022-07-09T15:48:40.000Z</Time>
            <Position>
              <LatitudeDegrees>43.32224297337234020233154296875</LatitudeDegrees>
              <LongitudeDegrees>-1.97549764998257160186767578125</LongitudeDegrees>
            </Position>
            <AltitudeMeters>12.3999996185302734375</AltitudeMeters>
            <DistanceMeters>NAN</DistanceMeters>
          </Trackpoint>
          <Trackpoint>
            <Time>2022-07-09T15:48:46.000Z</Time>
            <Position>
              <LatitudeDegrees>43.32246526144444942474365234375</LatitudeDegrees>
              <LongitudeDegrees>-1.97561130858957767486572265625</LongitudeDegrees>
            </Position>
            <AltitudeMeters>12.6000003814697265625</AltitudeMeters>
            <DistanceMeters>NAN</DistanceMeters>
          </Trackpoint>
          <Trackpoint>
            <Time>2022-07-09T15:48:49.000Z</Time>
            <Position>
              <LatitudeDegrees>43.322540111839771270751953125</LatitudeDegrees>
              <LongitudeDegrees>-1.975657828152179718017578125</LongitudeDegrees>
            </Position>
            <AltitudeMeters>12.6000003814697265625</AltitudeMeters>
            <DistanceMeters>NAN</DistanceMeters>
          </Trackpoint>
          <Trackpoint>
            <Time>2022-07-09T15:48:50.000Z</Time>
            <Position>
              <LatitudeDegrees>43.32257137633860111236572265625</LatitudeDegrees>
              <LongitudeDegrees>-1.97564785368740558624267578125</LongitudeDegrees>
            </Position>
            <AltitudeMeters>12.6000003814697265625</AltitudeMeters>
            <DistanceMeters>NAN</DistanceMeters>
          </Trackpoint>
          <Trackpoint>
            <Time>2022-07-09T15:48:54.000Z</Time>
            <Position>
              <LatitudeDegrees>43.3226980268955230712890625</LatitudeDegrees>
              <LongitudeDegrees>-1.97558096610009670257568359375</LongitudeDegrees>
            </Position>
            <AltitudeMeters>12.6000003814697265625</AltitudeMeters>
            <DistanceMeters>NAN</DistanceMeters>
          </Trackpoint>
          <Trackpoint>
            <Time>2022-07-09T15:48:56.000Z</Time>
            <Position>
              <LatitudeDegrees>43.322745300829410552978515625</LatitudeDegrees>
              <LongitudeDegrees>-1.97552162222564220428466796875</LongitudeDegrees>
            </Position>
            <AltitudeMeters>12.80000019073486328125</AltitudeMeters>
            <DistanceMeters>NAN</DistanceMeters>
          </Trackpoint>
          <Trackpoint>
            <Time>2022-07-09T15:48:59.000Z</Time>
            <Position>
              <LatitudeDegrees>43.3228064887225627899169921875</LatitudeDegrees>
              <LongitudeDegrees>-1.975439898669719696044921875</LongitudeDegrees>
            </Position>
            <AltitudeMeters>12.80000019073486328125</AltitudeMeters>
            <DistanceMeters>NAN</DistanceMeters>
          </Trackpoint>
          <Trackpoint>
            <Time>2022-07-09T15:49:02.000Z</Time>
            <Position>
              <LatitudeDegrees>43.322861306369304656982421875</LatitudeDegrees>
              <LongitudeDegrees>-1.9753522239625453948974609375</LongitudeDegrees>
            </Position>
            <AltitudeMeters>12.3999996185302734375</AltitudeMeters>
            <DistanceMeters>NAN</DistanceMeters>
          </Trackpoint>
          <Trackpoint>
            <Time>2022-07-09T15:49:03.000Z</Time>
            <Position>
              <LatitudeDegrees>43.322867341339588165283203125</LatitudeDegrees>
              <LongitudeDegrees>-1.9753401540219783782958984375</LongitudeDegrees>
            </Position>
            <AltitudeMeters>12.3999996185302734375</AltitudeMeters>
            <DistanceMeters>NAN</DistanceMeters>
          </Trackpoint>
          <Trackpoint>
            <Time>2022-07-09T15:49:06.000Z</Time>
            <Position>
              <LatitudeDegrees>43.32289407961070537567138671875</LatitudeDegrees>
              <LongitudeDegrees>-1.975348033010959625244140625</LongitudeDegrees>
            </Position>
            <AltitudeMeters>12</AltitudeMeters>
            <DistanceMeters>NAN</DistanceMeters>
          </Trackpoint>
          <Trackpoint>
            <Time>2022-07-09T15:49:09.000Z</Time>
            <Position>
              <LatitudeDegrees>43.3229030482470989227294921875</LatitudeDegrees>
              <LongitudeDegrees>-1.9753602705895900726318359375</LongitudeDegrees>
            </Position>
            <AltitudeMeters>12</AltitudeMeters>
            <DistanceMeters>NAN</DistanceMeters>
          </Trackpoint>
          <Trackpoint>
            <Time>2022-07-09T15:59:59.000Z</Time>
            <Position>
              <LatitudeDegrees>43.32304847426712512969970703125</LatitudeDegrees>
              <LongitudeDegrees>-1.97503346018493175506591796875</LongitudeDegrees>
            </Position>
            <AltitudeMeters>9.3999996185302734375</AltitudeMeters>
            <DistanceMeters>NAN</DistanceMeters>
          </Trackpoint>
          <Trackpoint>
            <Time>2022-07-09T16:00:00.000Z</Time>
            <Position>
              <LatitudeDegrees>43.323039002716541290283203125</LatitudeDegrees>
              <LongitudeDegrees>-1.975047290325164794921875</LongitudeDegrees>
            </Position>
            <AltitudeMeters>9.3999996185302734375</AltitudeMeters>
            <DistanceMeters>NAN</DistanceMeters>
          </Trackpoint>
          <Trackpoint>
            <Time>2022-07-09T16:00:06.000Z</Time>
            <Position>
              <LatitudeDegrees>43.322937749326229095458984375</LatitudeDegrees>
              <LongitudeDegrees>-1.97518701665103435516357421875</LongitudeDegrees>
            </Position>
            <AltitudeMeters>9.3999996185302734375</AltitudeMeters>
            <DistanceMeters>NAN</DistanceMeters>
          </Trackpoint>
          <Trackpoint>
            <Time>2022-07-09T16:00:13.000Z</Time>
            <Position>
              <LatitudeDegrees>43.3227870427072048187255859375</LatitudeDegrees>
              <LongitudeDegrees>-1.97537192143499851226806640625</LongitudeDegrees>
            </Position>
            <AltitudeMeters>9.3999996185302734375</AltitudeMeters>
            <DistanceMeters>NAN</DistanceMeters>
          </Trackpoint>
          <Trackpoint>
            <Time>2022-07-09T16:00:20.000Z</Time>
            <Position>
              <LatitudeDegrees>43.32265578210353851318359375</LatitudeDegrees>
              <LongitudeDegrees>-1.975591443479061126708984375</LongitudeDegrees>
            </Position>
            <AltitudeMeters>9.19999980926513671875</AltitudeMeters>
            <DistanceMeters>NAN</DistanceMeters>
          </Trackpoint>
          <Trackpoint>
            <Time>2022-07-09T16:00:21.000Z</Time>
            <Position>
              <LatitudeDegrees>43.32264010794460773468017578125</LatitudeDegrees>
              <LongitudeDegrees>-1.97560829110443592071533203125</LongitudeDegrees>
            </Position>
            <AltitudeMeters>9.19999980926513671875</AltitudeMeters>
            <DistanceMeters>NAN</DistanceMeters>
          </Trackpoint>
          <Trackpoint>
            <Time>2022-07-09T16:00:23.000Z</Time>
            <Position>
              <LatitudeDegrees>43.3226150460541248321533203125</LatitudeDegrees>
              <LongitudeDegrees>-1.97563402354717254638671875</LongitudeDegrees>
            </Position>
            <AltitudeMeters>9.19999980926513671875</AltitudeMeters>
            <DistanceMeters>NAN</DistanceMeters>
          </Trackpoint>
          <Trackpoint>
            <Time>2022-07-09T16:00:26.000Z</Time>
            <Position>
              <LatitudeDegrees>43.322586715221405029296875</LatitudeDegrees>
              <LongitudeDegrees>-1.97569345124065876007080078125</LongitudeDegrees>
            </Position>
            <AltitudeMeters>9</AltitudeMeters>
            <DistanceMeters>NAN</DistanceMeters>
          </Trackpoint>
          <Trackpoint>
            <Time>2022-07-09T16:00:28.000Z</Time>
            <Position>
              <LatitudeDegrees>43.32255612127482891082763671875</LatitudeDegrees>
              <LongitudeDegrees>-1.97574089281260967254638671875</LongitudeDegrees>
            </Position>
            <AltitudeMeters>9</AltitudeMeters>
            <DistanceMeters>NAN</DistanceMeters>
          </Trackpoint>
          <Trackpoint>
            <Time>2022-07-09T16:00:30.000Z</Time>
            <Position>
              <LatitudeDegrees>43.3225397765636444091796875</LatitudeDegrees>
              <LongitudeDegrees>-1.975808031857013702392578125</LongitudeDegrees>
            </Position>
            <AltitudeMeters>9</AltitudeMeters>
            <DistanceMeters>NAN</DistanceMeters>
          </Trackpoint>
          <Trackpoint>
            <Time>2022-07-09T16:00:32.000Z</Time>
            <Position>
              <LatitudeDegrees>43.322532735764980316162109375</LatitudeDegrees>
              <LongitudeDegrees>-1.97586326859891414642333984375</LongitudeDegrees>
            </Position>
            <AltitudeMeters>9</AltitudeMeters>
            <DistanceMeters>NAN</DistanceMeters>
          </Trackpoint>
          <Trackpoint>
            <Time>2022-07-09T16:00:33.000Z</Time>
            <Position>
              <LatitudeDegrees>43.3225231803953647613525390625</LatitudeDegrees>
              <LongitudeDegrees>-1.9758890010416507720947265625</LongitudeDegrees>
            </Position>
            <AltitudeMeters>9</AltitudeMeters>
            <DistanceMeters>NAN</DistanceMeters>
          </Trackpoint>
          <Trackpoint>
            <Time>2022-07-09T16:00:39.000Z</Time>
            <Position>
              <LatitudeDegrees>43.3224802650511264801025390625</LatitudeDegrees>
              <LongitudeDegrees>-1.9761401228606700897216796875</LongitudeDegrees>
            </Position>
            <AltitudeMeters>9.19999980926513671875</AltitudeMeters>
            <DistanceMeters>NAN</DistanceMeters>
          </Trackpoint>
          <Trackpoint>
            <Time>2022-07-09T16:00:44.000Z</Time>
            <Position>
              <LatitudeDegrees>43.32245872355997562408447265625</LatitudeDegrees>
              <LongitudeDegrees>-1.9763590581715106964111328125</LongitudeDegrees>
            </Position>
            <AltitudeMeters>9.19999980926513671875</AltitudeMeters>
            <DistanceMeters>NAN</DistanceMeters>
          </Trackpoint>
          <Trackpoint>
            <Time>2022-07-09T16:00:51.000Z</Time>
            <Position>
              <LatitudeDegrees>43.32236836664378643035888671875</LatitudeDegrees>
              <LongitudeDegrees>-1.976632140576839447021484375</LongitudeDegrees>
            </Position>
            <AltitudeMeters>9.3999996185302734375</AltitudeMeters>
            <DistanceMeters>NAN</DistanceMeters>
          </Trackpoint>
          <Trackpoint>
            <Time>2022-07-09T16:00:56.000Z</Time>
            <Position>
              <LatitudeDegrees>43.322287984192371368408203125</LatitudeDegrees>
              <LongitudeDegrees>-1.97675049304962158203125</LongitudeDegrees>
            </Position>
            <AltitudeMeters>9.6000003814697265625</AltitudeMeters>
            <DistanceMeters>NAN</DistanceMeters>
          </Trackpoint>
          <Trackpoint>
            <Time>2022-07-09T16:00:57.000Z</Time>
            <Position>
              <LatitudeDegrees>43.32228840328752994537353515625</LatitudeDegrees>
              <LongitudeDegrees>-1.9767861999571323394775390625</LongitudeDegrees>
            </Position>
            <AltitudeMeters>9.6000003814697265625</AltitudeMeters>
            <DistanceMeters>NAN</DistanceMeters>
          </Trackpoint>
          <Trackpoint>
            <Time>2022-07-09T16:01:01.000Z</Time>
            <Position>
              <LatitudeDegrees>43.3222742378711700439453125</LatitudeDegrees>
              <LongitudeDegrees>-1.976916790008544921875</LongitudeDegrees>
            </Position>
            <AltitudeMeters>9.3999996185302734375</AltitudeMeters>
            <DistanceMeters>NAN</DistanceMeters>
          </Trackpoint>
          <Trackpoint>
            <Time>2022-07-09T16:01:06.000Z</Time>
            <Position>
              <LatitudeDegrees>43.32226560451090335845947265625</LatitudeDegrees>
              <LongitudeDegrees>-1.97705282829701900482177734375</LongitudeDegrees>
            </Position>
            <AltitudeMeters>9.3999996185302734375</AltitudeMeters>
            <DistanceMeters>NAN</DistanceMeters>
          </Trackpoint>
          <Trackpoint>
            <Time>2022-07-09T16:01:07.000Z</Time>
            <Position>
              <LatitudeDegrees>43.322263173758983612060546875</LatitudeDegrees>
              <LongitudeDegrees>-1.97709373198449611663818359375</LongitudeDegrees>
            </Position>
            <AltitudeMeters>9.3999996185302734375</AltitudeMeters>
            <DistanceMeters>NAN</DistanceMeters>
          </Trackpoint>
          <Trackpoint>
            <Time>2022-07-09T16:01:09.000Z</Time>
            <Position>
              <LatitudeDegrees>43.32226610742509365081787109375</LatitudeDegrees>
              <LongitudeDegrees>-1.97716028429567813873291015625</LongitudeDegrees>
            </Position>
            <AltitudeMeters>9.6000003814697265625</AltitudeMeters>
            <DistanceMeters>NAN</DistanceMeters>
          </Trackpoint>
          <Trackpoint>
            <Time>2022-07-09T16:01:10.000Z</Time>
            <Position>
              <LatitudeDegrees>43.32225705496966838836669921875</LatitudeDegrees>
              <LongitudeDegrees>-1.97718090377748012542724609375</LongitudeDegrees>
            </Position>
            <AltitudeMeters>9.6000003814697265625</AltitudeMeters>
            <DistanceMeters>NAN</DistanceMeters>
          </Trackpoint>
          <Trackpoint>
            <Time>2022-07-09T16:01:11.000Z</Time>
            <Position>
              <LatitudeDegrees>43.32224464975297451019287109375</LatitudeDegrees>
              <LongitudeDegrees>-1.977194733917713165283203125</LongitudeDegrees>
            </Position>
            <AltitudeMeters>9.80000019073486328125</AltitudeMeters>
            <DistanceMeters>NAN</DistanceMeters>
          </Trackpoint>
          <Trackpoint>
            <Time>2022-07-09T16:01:13.000Z</Time>
            <Position>
              <LatitudeDegrees>43.32219821400940418243408203125</LatitudeDegrees>
              <LongitudeDegrees>-1.97719641029834747314453125</LongitudeDegrees>
            </Position>
            <AltitudeMeters>9.80000019073486328125</AltitudeMeters>
            <DistanceMeters>NAN</DistanceMeters>
          </Trackpoint>
          <Trackpoint>
            <Time>2022-07-09T16:01:18.000Z</Time>
            <Position>
              <LatitudeDegrees>43.32202286459505558013916015625</LatitudeDegrees>
              <LongitudeDegrees>-1.97720956988632678985595703125</LongitudeDegrees>
            </Position>
            <AltitudeMeters>9.80000019073486328125</AltitudeMeters>
            <DistanceMeters>NAN</DistanceMeters>
          </Trackpoint>
          <Trackpoint>
            <Time>2022-07-09T16:01:24.000Z</Time>
            <Position>
              <LatitudeDegrees>43.3218372054398059844970703125</LatitudeDegrees>
              <LongitudeDegrees>-1.977244354784488677978515625</LongitudeDegrees>
            </Position>
            <AltitudeMeters>10</AltitudeMeters>
            <DistanceMeters>NAN</DistanceMeters>
          </Trackpoint>
          <Trackpoint>
            <Time>2022-07-09T16:01:30.000Z</Time>
            <Position>
              <LatitudeDegrees>43.3216642029583454132080078125</LatitudeDegrees>
              <LongitudeDegrees>-1.97724393568933010101318359375</LongitudeDegrees>
            </Position>
            <AltitudeMeters>10.19999980926513671875</AltitudeMeters>
            <DistanceMeters>NAN</DistanceMeters>
          </Trackpoint>
          <Trackpoint>
            <Time>2022-07-09T16:01:32.000Z</Time>
            <Position>
              <LatitudeDegrees>43.32161701284348964691162109375</LatitudeDegrees>
              <LongitudeDegrees>-1.977304704487323760986328125</LongitudeDegrees>
            </Position>
            <AltitudeMeters>10.19999980926513671875</AltitudeMeters>
            <DistanceMeters>NAN</DistanceMeters>
          </Trackpoint>
          <Trackpoint>
            <Time>2022-07-09T16:01:34.000Z</Time>
            <Position>
              <LatitudeDegrees>43.32157962955534458160400390625</LatitudeDegrees>
              <LongitudeDegrees>-1.9773658923804759979248046875</LongitudeDegrees>
            </Position>
            <AltitudeMeters>10.3999996185302734375</AltitudeMeters>
            <DistanceMeters>NAN</DistanceMeters>
          </Trackpoint>
          <Trackpoint>
            <Time>2022-07-09T16:01:35.000Z</Time>
            <Position>
              <LatitudeDegrees>43.321557082235813140869140625</LatitudeDegrees>
              <LongitudeDegrees>-1.97738776914775371551513671875</LongitudeDegrees>
            </Position>
            <AltitudeMeters>10.3999996185302734375</AltitudeMeters>
            <DistanceMeters>NAN</DistanceMeters>
          </Trackpoint>
          <Trackpoint>
            <Time>2022-07-09T16:01:36.000Z</Time>
            <Position>
              <LatitudeDegrees>43.32153403200209140777587890625</LatitudeDegrees>
              <LongitudeDegrees>-1.97740922681987285614013671875</LongitudeDegrees>
            </Position>
            <AltitudeMeters>10.3999996185302734375</AltitudeMeters>
            <DistanceMeters>NAN</DistanceMeters>
          </Trackpoint>
          <Trackpoint>
            <Time>2022-07-09T16:01:39.000Z</Time>
            <Position>
              <LatitudeDegrees>43.321466557681560516357421875</LatitudeDegrees>
              <LongitudeDegrees>-1.97744057513773441314697265625</LongitudeDegrees>
            </Position>
            <AltitudeMeters>10.3999996185302734375</AltitudeMeters>
            <DistanceMeters>NAN</DistanceMeters>
          </Trackpoint>
          <Trackpoint>
            <Time>2022-07-09T16:01:41.000Z</Time>
            <Position>
              <LatitudeDegrees>43.321434371173381805419921875</LatitudeDegrees>
              <LongitudeDegrees>-1.97749623097479343414306640625</LongitudeDegrees>
            </Position>
            <AltitudeMeters>10.3999996185302734375</AltitudeMeters>
            <DistanceMeters>NAN</DistanceMeters>
          </Trackpoint>
          <Trackpoint>
            <Time>2022-07-09T16:01:43.000Z</Time>
            <Position>
              <LatitudeDegrees>43.321428336203098297119140625</LatitudeDegrees>
              <LongitudeDegrees>-1.977592371404170989990234375</LongitudeDegrees>
            </Position>
            <AltitudeMeters>10.6000003814697265625</AltitudeMeters>
            <DistanceMeters>NAN</DistanceMeters>
          </Trackpoint>
          <Trackpoint>
            <Time>2022-07-09T16:01:48.000Z</Time>
            <Position>
              <LatitudeDegrees>43.32140344195067882537841796875</LatitudeDegrees>
              <LongitudeDegrees>-1.977721787989139556884765625</LongitudeDegrees>
            </Position>
            <AltitudeMeters>11</AltitudeMeters>
            <DistanceMeters>NAN</DistanceMeters>
          </Trackpoint>
          <Trackpoint>
            <Time>2022-07-09T16:01:49.000Z</Time>
            <Position>
              <LatitudeDegrees>43.32138701342046260833740234375</LatitudeDegrees>
              <LongitudeDegrees>-1.97773410938680171966552734375</LongitudeDegrees>
            </Position>
            <AltitudeMeters>11</AltitudeMeters>
            <DistanceMeters>NAN</DistanceMeters>
          </Trackpoint>
          <Trackpoint>
            <Time>2022-07-09T16:01:50.000Z</Time>
            <Position>
              <LatitudeDegrees>43.3213691599667072296142578125</LatitudeDegrees>
              <LongitudeDegrees>-1.97773846797645092010498046875</LongitudeDegrees>
            </Position>
            <AltitudeMeters>11</AltitudeMeters>
            <DistanceMeters>NAN</DistanceMeters>
          </Trackpoint>
          <Trackpoint>
            <Time>2022-07-09T16:01:54.000Z</Time>
            <Position>
              <LatitudeDegrees>43.32130554132163524627685546875</LatitudeDegrees>
              <LongitudeDegrees>-1.97772338055074214935302734375</LongitudeDegrees>
            </Position>
            <AltitudeMeters>11</AltitudeMeters>
            <DistanceMeters>NAN</DistanceMeters>
          </Trackpoint>
          <Trackpoint>
            <Time>2022-07-09T16:01:58.000Z</Time>
            <Position>
              <LatitudeDegrees>43.321277797222137451171875</LatitudeDegrees>
              <LongitudeDegrees>-1.97773947380483150482177734375</LongitudeDegrees>
            </Position>
            <AltitudeMeters>11</AltitudeMeters>
            <DistanceMeters>NAN</DistanceMeters>
          </Trackpoint>
          <Trackpoint>
            <Time>2022-07-09T16:02:00.000Z</Time>
            <Position>
              <LatitudeDegrees>43.32124971784651279449462890625</LatitudeDegrees>
              <LongitudeDegrees>-1.977754645049571990966796875</LongitudeDegrees>
            </Position>
            <AltitudeMeters>11</AltitudeMeters>
            <DistanceMeters>NAN</DistanceMeters>
          </Trackpoint>
          <Trackpoint>
            <Time>2022-07-09T16:02:02.000Z</Time>
            <Position>
              <LatitudeDegrees>43.32121904008090496063232421875</LatitudeDegrees>
              <LongitudeDegrees>-1.977793872356414794921875</LongitudeDegrees>
            </Position>
            <AltitudeMeters>11</AltitudeMeters>
            <DistanceMeters>NAN</DistanceMeters>
          </Trackpoint>
          <Trackpoint>
            <Time>2022-07-09T16:02:09.000Z</Time>
            <Position>
              <LatitudeDegrees>43.32111946307122707366943359375</LatitudeDegrees>
              <LongitudeDegrees>-1.97803015820682048797607421875</LongitudeDegrees>
            </Position>
            <AltitudeMeters>10.80000019073486328125</AltitudeMeters>
            <DistanceMeters>NAN</DistanceMeters>
          </Trackpoint>
          <Trackpoint>
            <Time>2022-07-09T16:02:17.000Z</Time>
            <Position>
              <LatitudeDegrees>43.320995159447193145751953125</LatitudeDegrees>
              <LongitudeDegrees>-1.97838035412132740020751953125</LongitudeDegrees>
            </Position>
            <AltitudeMeters>10.80000019073486328125</AltitudeMeters>
            <DistanceMeters>NAN</DistanceMeters>
          </Trackpoint>
          <Trackpoint>
            <Time>2022-07-09T16:02:26.000Z</Time>
            <Position>
              <LatitudeDegrees>43.32085526548326015472412109375</LatitudeDegrees>
              <LongitudeDegrees>-1.97882040403783321380615234375</LongitudeDegrees>
            </Position>
            <AltitudeMeters>10.80000019073486328125</AltitudeMeters>
            <DistanceMeters>NAN</DistanceMeters>
          </Trackpoint>
          <Trackpoint>
            <Time>2022-07-09T16:02:34.000Z</Time>
            <Position>
              <LatitudeDegrees>43.320705480873584747314453125</LatitudeDegrees>
              <LongitudeDegrees>-1.97923891246318817138671875</LongitudeDegrees>
            </Position>
            <AltitudeMeters>10.19999980926513671875</AltitudeMeters>
            <DistanceMeters>NAN</DistanceMeters>
          </Trackpoint>
          <Trackpoint>
            <Time>2022-07-09T16:02:42.000Z</Time>
            <Position>
              <LatitudeDegrees>43.32051915116608142852783203125</LatitudeDegrees>
              <LongitudeDegrees>-1.97967468760907649993896484375</LongitudeDegrees>
            </Position>
            <AltitudeMeters>9.3999996185302734375</AltitudeMeters>
            <DistanceMeters>NAN</DistanceMeters>
          </Trackpoint>
          <Trackpoint>
            <Time>2022-07-09T16:02:46.000Z</Time>
            <Position>
              <LatitudeDegrees>43.3204300515353679656982421875</LatitudeDegrees>
              <LongitudeDegrees>-1.979905106127262115478515625</LongitudeDegrees>
            </Position>
            <AltitudeMeters>9.19999980926513671875</AltitudeMeters>
            <DistanceMeters>NAN</DistanceMeters>
          </Trackpoint>
          <Trackpoint>
            <Time>2022-07-09T16:02:48.000Z</Time>
            <Position>
              <LatitudeDegrees>43.320408426225185394287109375</LatitudeDegrees>
              <LongitudeDegrees>-1.97999688796699047088623046875</LongitudeDegrees>
            </Position>
            <AltitudeMeters>9</AltitudeMeters>
            <DistanceMeters>NAN</DistanceMeters>
          </Trackpoint>
          <Trackpoint>
            <Time>2022-07-09T16:02:52.000Z</Time>
            <Position>
              <LatitudeDegrees>43.320393674075603485107421875</LatitudeDegrees>
              <LongitudeDegrees>-1.9800675474107265472412109375</LongitudeDegrees>
            </Position>
            <AltitudeMeters>8.80000019073486328125</AltitudeMeters>
            <DistanceMeters>NAN</DistanceMeters>
          </Trackpoint>
          <Trackpoint>
            <Time>2022-07-09T16:02:53.000Z</Time>
            <Position>
              <LatitudeDegrees>43.320393674075603485107421875</LatitudeDegrees>
              <LongitudeDegrees>-1.9800675474107265472412109375</LongitudeDegrees>
            </Position>
            <AltitudeMeters>8.80000019073486328125</AltitudeMeters>
            <DistanceMeters>NAN</DistanceMeters>
          </Trackpoint>
          <Trackpoint>
            <Time>2022-07-09T16:03:23.000Z</Time>
            <Position>
              <LatitudeDegrees>43.32036877982318401336669921875</LatitudeDegrees>
              <LongitudeDegrees>-1.9801292382180690765380859375</LongitudeDegrees>
            </Position>
            <AltitudeMeters>8.3999996185302734375</AltitudeMeters>
            <DistanceMeters>NAN</DistanceMeters>
          </Trackpoint>
          <Trackpoint>
            <Time>2022-07-09T16:03:25.000Z</Time>
            <Position>
              <LatitudeDegrees>43.32033701241016387939453125</LatitudeDegrees>
              <LongitudeDegrees>-1.98020475916564464569091796875</LongitudeDegrees>
            </Position>
            <AltitudeMeters>8.3999996185302734375</AltitudeMeters>
            <DistanceMeters>NAN</DistanceMeters>
          </Trackpoint>
          <Trackpoint>
            <Time>2022-07-09T16:03:28.000Z</Time>
            <Position>
              <LatitudeDegrees>43.3202754892408847808837890625</LatitudeDegrees>
              <LongitudeDegrees>-1.9803491793572902679443359375</LongitudeDegrees>
            </Position>
            <AltitudeMeters>8.3999996185302734375</AltitudeMeters>
            <DistanceMeters>NAN</DistanceMeters>
          </Trackpoint>
          <Trackpoint>
            <Time>2022-07-09T16:03:30.000Z</Time>
            <Position>
              <LatitudeDegrees>43.32024523057043552398681640625</LatitudeDegrees>
              <LongitudeDegrees>-1.98045403696596622467041015625</LongitudeDegrees>
            </Position>
            <AltitudeMeters>8.19999980926513671875</AltitudeMeters>
            <DistanceMeters>NAN</DistanceMeters>
          </Trackpoint>
          <Trackpoint>
            <Time>2022-07-09T16:03:37.000Z</Time>
            <Position>
              <LatitudeDegrees>43.320107348263263702392578125</LatitudeDegrees>
              <LongitudeDegrees>-1.9808125309646129608154296875</LongitudeDegrees>
            </Position>
            <AltitudeMeters>8</AltitudeMeters>
            <DistanceMeters>NAN</DistanceMeters>
          </Trackpoint>
          <Trackpoint>
            <Time>2022-07-09T16:03:43.000Z</Time>
            <Position>
              <LatitudeDegrees>43.3199995569884777069091796875</LatitudeDegrees>
              <LongitudeDegrees>-1.98111838661134243011474609375</LongitudeDegrees>
            </Position>
            <AltitudeMeters>7.80000019073486328125</AltitudeMeters>
            <DistanceMeters>NAN</DistanceMeters>
          </Trackpoint>
          <Trackpoint>
            <Time>2022-07-09T16:03:49.000Z</Time>
            <Position>
              <LatitudeDegrees>43.3198664523661136627197265625</LatitudeDegrees>
              <LongitudeDegrees>-1.98137529194355010986328125</LongitudeDegrees>
            </Position>
            <AltitudeMeters>7.599999904632568359375</AltitudeMeters>
            <DistanceMeters>NAN</DistanceMeters>
          </Trackpoint>
          <Trackpoint>
            <Time>2022-07-09T16:03:57.000Z</Time>
            <Position>
              <LatitudeDegrees>43.31973494030535221099853515625</LatitudeDegrees>
              <LongitudeDegrees>-1.98172708041965961456298828125</LongitudeDegrees>
            </Position>
            <AltitudeMeters>8</AltitudeMeters>
            <DistanceMeters>NAN</DistanceMeters>
          </Trackpoint>
          <Trackpoint>
            <Time>2022-07-09T16:04:02.000Z</Time>
            <Position>
              <LatitudeDegrees>43.3196465112268924713134765625</LatitudeDegrees>
              <LongitudeDegrees>-1.98198239319026470184326171875</LongitudeDegrees>
            </Position>
            <AltitudeMeters>8</AltitudeMeters>
            <DistanceMeters>NAN</DistanceMeters>
          </Trackpoint>
          <Trackpoint>
            <Time>2022-07-09T16:04:11.000Z</Time>
            <Position>
              <LatitudeDegrees>43.31948365084826946258544921875</LatitudeDegrees>
              <LongitudeDegrees>-1.98245060630142688751220703125</LongitudeDegrees>
            </Position>
            <AltitudeMeters>8.3999996185302734375</AltitudeMeters>
            <DistanceMeters>NAN</DistanceMeters>
          </Trackpoint>
          <Trackpoint>
            <Time>2022-07-09T16:04:18.000Z</Time>
            <Position>
              <LatitudeDegrees>43.31937988288700580596923828125</LatitudeDegrees>
              <LongitudeDegrees>-1.982748247683048248291015625</LongitudeDegrees>
            </Position>
            <AltitudeMeters>8.19999980926513671875</AltitudeMeters>
            <DistanceMeters>NAN</DistanceMeters>
          </Trackpoint>
          <Trackpoint>
            <Time>2022-07-09T16:04:25.000Z</Time>
            <Position>
              <LatitudeDegrees>43.31925314851105213165283203125</LatitudeDegrees>
              <LongitudeDegrees>-1.98301822878420352935791015625</LongitudeDegrees>
            </Position>
            <AltitudeMeters>8.3999996185302734375</AltitudeMeters>
            <DistanceMeters>NAN</DistanceMeters>
          </Trackpoint>
          <Trackpoint>
            <Time>2022-07-09T16:04:30.000Z</Time>
            <Position>
              <LatitudeDegrees>43.319227583706378936767578125</LatitudeDegrees>
              <LongitudeDegrees>-1.98311210609972476959228515625</LongitudeDegrees>
            </Position>
            <AltitudeMeters>8.19999980926513671875</AltitudeMeters>
            <DistanceMeters>NAN</DistanceMeters>
          </Trackpoint>
          <Trackpoint>
            <Time>2022-07-09T16:04:32.000Z</Time>
            <Position>
              <LatitudeDegrees>43.319227583706378936767578125</LatitudeDegrees>
              <LongitudeDegrees>-1.98311210609972476959228515625</LongitudeDegrees>
            </Position>
            <AltitudeMeters>8.19999980926513671875</AltitudeMeters>
            <DistanceMeters>NAN</DistanceMeters>
          </Trackpoint>
          <Trackpoint>
            <Time>2022-07-09T16:05:03.000Z</Time>
            <Position>
              <LatitudeDegrees>43.31922247074544429779052734375</LatitudeDegrees>
              <LongitudeDegrees>-1.98318603448569774627685546875</LongitudeDegrees>
            </Position>
            <AltitudeMeters>8</AltitudeMeters>
            <DistanceMeters>NAN</DistanceMeters>
          </Trackpoint>
          <Trackpoint>
            <Time>2022-07-09T16:05:05.000Z</Time>
            <Position>
              <LatitudeDegrees>43.3192026056349277496337890625</LatitudeDegrees>
              <LongitudeDegrees>-1.98325979523360729217529296875</LongitudeDegrees>
            </Position>
            <AltitudeMeters>8</AltitudeMeters>
            <DistanceMeters>NAN</DistanceMeters>
          </Trackpoint>
          <Trackpoint>
            <Time>2022-07-09T16:05:13.000Z</Time>
            <Position>
              <LatitudeDegrees>43.31906975246965885162353515625</LatitudeDegrees>
              <LongitudeDegrees>-1.98359456844627857208251953125</LongitudeDegrees>
            </Position>
            <AltitudeMeters>8.19999980926513671875</AltitudeMeters>
            <DistanceMeters>NAN</DistanceMeters>
          </Trackpoint>
          <Trackpoint>
            <Time>2022-07-09T16:05:19.000Z</Time>
            <Position>
              <LatitudeDegrees>43.3189501427114009857177734375</LatitudeDegrees>
              <LongitudeDegrees>-1.98384426534175872802734375</LongitudeDegrees>
            </Position>
            <AltitudeMeters>8.3999996185302734375</AltitudeMeters>
            <DistanceMeters>NAN</DistanceMeters>
          </Trackpoint>
          <Trackpoint>
            <Time>2022-07-09T16:05:21.000Z</Time>
            <Position>
              <LatitudeDegrees>43.31893463619053363800048828125</LatitudeDegrees>
              <LongitudeDegrees>-1.983941830694675445556640625</LongitudeDegrees>
            </Position>
            <AltitudeMeters>8.6000003814697265625</AltitudeMeters>
            <DistanceMeters>NAN</DistanceMeters>
          </Trackpoint>
          <Trackpoint>
            <Time>2022-07-09T16:05:23.000Z</Time>
            <Position>
              <LatitudeDegrees>43.31894519738852977752685546875</LatitudeDegrees>
              <LongitudeDegrees>-1.98403361253440380096435546875</LongitudeDegrees>
            </Position>
            <AltitudeMeters>8.6000003814697265625</AltitudeMeters>
            <DistanceMeters>NAN</DistanceMeters>
          </Trackpoint>
          <Trackpoint>
            <Time>2022-07-09T16:05:28.000Z</Time>
            <Position>
              <LatitudeDegrees>43.318920135498046875</LatitudeDegrees>
              <LongitudeDegrees>-1.98420225642621517181396484375</LongitudeDegrees>
            </Position>
            <AltitudeMeters>8.6000003814697265625</AltitudeMeters>
            <DistanceMeters>NAN</DistanceMeters>
          </Trackpoint>
          <Trackpoint>
            <Time>2022-07-09T16:05:31.000Z</Time>
            <Position>
              <LatitudeDegrees>43.3188924752175807952880859375</LatitudeDegrees>
              <LongitudeDegrees>-1.9843198545277118682861328125</LongitudeDegrees>
            </Position>
            <AltitudeMeters>8.3999996185302734375</AltitudeMeters>
            <DistanceMeters>NAN</DistanceMeters>
          </Trackpoint>
          <Trackpoint>
            <Time>2022-07-09T16:05:34.000Z</Time>
            <Position>
              <LatitudeDegrees>43.3188948221504688262939453125</LatitudeDegrees>
              <LongitudeDegrees>-1.98441088199615478515625</LongitudeDegrees>
            </Position>
            <AltitudeMeters>8.3999996185302734375</AltitudeMeters>
            <DistanceMeters>NAN</DistanceMeters>
          </Trackpoint>
          <Trackpoint>
            <Time>2022-07-09T16:05:38.000Z</Time>
            <Position>
              <LatitudeDegrees>43.31886758096516132354736328125</LatitudeDegrees>
              <LongitudeDegrees>-1.98453887365758419036865234375</LongitudeDegrees>
            </Position>
            <AltitudeMeters>8.3999996185302734375</AltitudeMeters>
            <DistanceMeters>NAN</DistanceMeters>
          </Trackpoint>
          <Trackpoint>
            <Time>2022-07-09T16:05:48.000Z</Time>
            <Position>
              <LatitudeDegrees>43.31870899535715579986572265625</LatitudeDegrees>
              <LongitudeDegrees>-1.98488269932568073272705078125</LongitudeDegrees>
            </Position>
            <AltitudeMeters>8.3999996185302734375</AltitudeMeters>
            <DistanceMeters>NAN</DistanceMeters>
          </Trackpoint>
          <Trackpoint>
            <Time>2022-07-09T16:05:49.000Z</Time>
            <Position>
              <LatitudeDegrees>43.318691812455654144287109375</LatitudeDegrees>
              <LongitudeDegrees>-1.9849136285483837127685546875</LongitudeDegrees>
            </Position>
            <AltitudeMeters>8.3999996185302734375</AltitudeMeters>
            <DistanceMeters>NAN</DistanceMeters>
          </Trackpoint>
          <Trackpoint>
            <Time>2022-07-09T16:05:52.000Z</Time>
            <Position>
              <LatitudeDegrees>43.3186155371367931365966796875</LatitudeDegrees>
              <LongitudeDegrees>-1.98496987111866474151611328125</LongitudeDegrees>
            </Position>
            <AltitudeMeters>8.6000003814697265625</AltitudeMeters>
            <DistanceMeters>NAN</DistanceMeters>
          </Trackpoint>
          <Trackpoint>
            <Time>2022-07-09T16:05:59.000Z</Time>
            <Position>
              <LatitudeDegrees>43.318429291248321533203125</LatitudeDegrees>
              <LongitudeDegrees>-1.9850748963654041290283203125</LongitudeDegrees>
            </Position>
            <AltitudeMeters>8.6000003814697265625</AltitudeMeters>
            <DistanceMeters>NAN</DistanceMeters>
          </Trackpoint>
          <Trackpoint>
            <Time>2022-07-09T16:06:01.000Z</Time>
            <Position>
              <LatitudeDegrees>43.318391405045986175537109375</LatitudeDegrees>
              <LongitudeDegrees>-1.985091157257556915283203125</LongitudeDegrees>
            </Position>
            <AltitudeMeters>8.6000003814697265625</AltitudeMeters>
            <DistanceMeters>NAN</DistanceMeters>
          </Trackpoint>
          <Trackpoint>
            <Time>2022-07-09T16:06:03.000Z</Time>
            <Position>
              <LatitudeDegrees>43.3183620683848857879638671875</LatitudeDegrees>
              <LongitudeDegrees>-1.98512074537575244903564453125</LongitudeDegrees>
            </Position>
            <AltitudeMeters>8.6000003814697265625</AltitudeMeters>
            <DistanceMeters>NAN</DistanceMeters>
          </Trackpoint>
          <Trackpoint>
            <Time>2022-07-09T16:06:09.000Z</Time>
            <Position>
              <LatitudeDegrees>43.31821982748806476593017578125</LatitudeDegrees>
              <LongitudeDegrees>-1.98524714447557926177978515625</LongitudeDegrees>
            </Position>
            <AltitudeMeters>8.3999996185302734375</AltitudeMeters>
            <DistanceMeters>NAN</DistanceMeters>
          </Trackpoint>
          <Trackpoint>
            <Time>2022-07-09T16:06:17.000Z</Time>
            <Position>
              <LatitudeDegrees>43.31799988634884357452392578125</LatitudeDegrees>
              <LongitudeDegrees>-1.985445879399776458740234375</LongitudeDegrees>
            </Position>
            <AltitudeMeters>8.3999996185302734375</AltitudeMeters>
            <DistanceMeters>NAN</DistanceMeters>
          </Trackpoint>
          <Trackpoint>
            <Time>2022-07-09T16:06:26.000Z</Time>
            <Position>
              <LatitudeDegrees>43.31776502542197704315185546875</LatitudeDegrees>
              <LongitudeDegrees>-1.98563338257372379302978515625</LongitudeDegrees>
            </Position>
            <AltitudeMeters>8.6000003814697265625</AltitudeMeters>
            <DistanceMeters>NAN</DistanceMeters>
          </Trackpoint>
          <Trackpoint>
            <Time>2022-07-09T16:06:34.000Z</Time>
            <Position>
              <LatitudeDegrees>43.31757157109677791595458984375</LatitudeDegrees>
              <LongitudeDegrees>-1.98584628291428089141845703125</LongitudeDegrees>
            </Position>
            <AltitudeMeters>8.80000019073486328125</AltitudeMeters>
            <DistanceMeters>NAN</DistanceMeters>
          </Trackpoint>
          <Trackpoint>
            <Time>2022-07-09T16:06:42.000Z</Time>
            <Position>
              <LatitudeDegrees>43.3173783682286739349365234375</LatitudeDegrees>
              <LongitudeDegrees>-1.98604912497103214263916015625</LongitudeDegrees>
            </Position>
            <AltitudeMeters>8.19999980926513671875</AltitudeMeters>
            <DistanceMeters>NAN</DistanceMeters>
          </Trackpoint>
          <Trackpoint>
            <Time>2022-07-09T16:06:52.000Z</Time>
            <Position>
              <LatitudeDegrees>43.31716454587876796722412109375</LatitudeDegrees>
              <LongitudeDegrees>-1.98631248436868190765380859375</LongitudeDegrees>
            </Position>
            <AltitudeMeters>8.6000003814697265625</AltitudeMeters>
            <DistanceMeters>NAN</DistanceMeters>
          </Trackpoint>
          <Trackpoint>
            <Time>2022-07-09T16:06:57.000Z</Time>
            <Position>
              <LatitudeDegrees>43.31712129525840282440185546875</LatitudeDegrees>
              <LongitudeDegrees>-1.9865058548748493194580078125</LongitudeDegrees>
            </Position>
            <AltitudeMeters>8.3999996185302734375</AltitudeMeters>
            <DistanceMeters>NAN</DistanceMeters>
          </Trackpoint>
          <Trackpoint>
            <Time>2022-07-09T16:06:58.000Z</Time>
            <Position>
              <LatitudeDegrees>43.31710671074688434600830078125</LatitudeDegrees>
              <LongitudeDegrees>-1.9865279830992221832275390625</LongitudeDegrees>
            </Position>
            <AltitudeMeters>8.3999996185302734375</AltitudeMeters>
            <DistanceMeters>NAN</DistanceMeters>
          </Trackpoint>
          <Trackpoint>
            <Time>2022-07-09T16:07:04.000Z</Time>
            <Position>
              <LatitudeDegrees>43.31702238880097866058349609375</LatitudeDegrees>
              <LongitudeDegrees>-1.9866899214684963226318359375</LongitudeDegrees>
            </Position>
            <AltitudeMeters>8.3999996185302734375</AltitudeMeters>
            <DistanceMeters>NAN</DistanceMeters>
          </Trackpoint>
          <Trackpoint>
            <Time>2022-07-09T16:07:10.000Z</Time>
            <Position>
              <LatitudeDegrees>43.31692993640899658203125</LatitudeDegrees>
              <LongitudeDegrees>-1.98681741021573543548583984375</LongitudeDegrees>
            </Position>
            <AltitudeMeters>8.6000003814697265625</AltitudeMeters>
            <DistanceMeters>NAN</DistanceMeters>
          </Trackpoint>
          <Trackpoint>
            <Time>2022-07-09T16:07:17.000Z</Time>
            <Position>
              <LatitudeDegrees>43.31686682067811489105224609375</LatitudeDegrees>
              <LongitudeDegrees>-1.9869165681302547454833984375</LongitudeDegrees>
            </Position>
            <AltitudeMeters>8</AltitudeMeters>
            <DistanceMeters>NAN</DistanceMeters>
          </Trackpoint>
          <Trackpoint>
            <Time>2022-07-09T16:07:20.000Z</Time>
            <Position>
              <LatitudeDegrees>43.31682608462870121002197265625</LatitudeDegrees>
              <LongitudeDegrees>-1.9869648478925228118896484375</LongitudeDegrees>
            </Position>
            <AltitudeMeters>7.19999980926513671875</AltitudeMeters>
            <DistanceMeters>NAN</DistanceMeters>
          </Trackpoint>
          <Trackpoint>
            <Time>2022-07-09T16:07:24.000Z</Time>
            <Position>
              <LatitudeDegrees>43.31677176989614963531494140625</LatitudeDegrees>
              <LongitudeDegrees>-1.98700658977031707763671875</LongitudeDegrees>
            </Position>
            <AltitudeMeters>6.19999980926513671875</AltitudeMeters>
            <DistanceMeters>NAN</DistanceMeters>
          </Trackpoint>
          <Trackpoint>
            <Time>2022-07-09T16:07:25.000Z</Time>
            <Position>
              <LatitudeDegrees>43.31676003523170948028564453125</LatitudeDegrees>
              <LongitudeDegrees>-1.9870101101696491241455078125</LongitudeDegrees>
            </Position>
            <AltitudeMeters>5.80000019073486328125</AltitudeMeters>
            <DistanceMeters>NAN</DistanceMeters>
          </Trackpoint>
          <Trackpoint>
            <Time>2022-07-09T16:07:27.000Z</Time>
            <Position>
              <LatitudeDegrees>43.3167515695095062255859375</LatitudeDegrees>
              <LongitudeDegrees>-1.987033747136592864990234375</LongitudeDegrees>
            </Position>
            <AltitudeMeters>5.400000095367431640625</AltitudeMeters>
            <DistanceMeters>NAN</DistanceMeters>
          </Trackpoint>
          <Trackpoint>
            <Time>2022-07-09T16:07:29.000Z</Time>
            <Position>
              <LatitudeDegrees>43.31675760447978973388671875</LatitudeDegrees>
              <LongitudeDegrees>-1.98706182651221752166748046875</LongitudeDegrees>
            </Position>
            <AltitudeMeters>5.400000095367431640625</AltitudeMeters>
            <DistanceMeters>NAN</DistanceMeters>
          </Trackpoint>
          <Trackpoint>
            <Time>2022-07-09T16:07:32.000Z</Time>
            <Position>
              <LatitudeDegrees>43.31672550179064273834228515625</LatitudeDegrees>
              <LongitudeDegrees>-1.98710893280804157257080078125</LongitudeDegrees>
            </Position>
            <AltitudeMeters>5.400000095367431640625</AltitudeMeters>
            <DistanceMeters>NAN</DistanceMeters>
          </Trackpoint>
          <Trackpoint>
            <Time>2022-07-09T16:07:33.000Z</Time>
            <Position>
              <LatitudeDegrees>43.31671200692653656005859375</LatitudeDegrees>
              <LongitudeDegrees>-1.9871103577315807342529296875</LongitudeDegrees>
            </Position>
            <AltitudeMeters>5.400000095367431640625</AltitudeMeters>
            <DistanceMeters>NAN</DistanceMeters>
          </Trackpoint>
          <Trackpoint>
            <Time>2022-07-09T16:07:38.000Z</Time>
            <Position>
              <LatitudeDegrees>43.31662743352353572845458984375</LatitudeDegrees>
              <LongitudeDegrees>-1.987160146236419677734375</LongitudeDegrees>
            </Position>
            <AltitudeMeters>5.400000095367431640625</AltitudeMeters>
            <DistanceMeters>NAN</DistanceMeters>
          </Trackpoint>
          <Trackpoint>
            <Time>2022-07-09T16:07:39.000Z</Time>
            <Position>
              <LatitudeDegrees>43.3165767230093479156494140625</LatitudeDegrees>
              <LongitudeDegrees>-1.98722074739634990692138671875</LongitudeDegrees>
            </Position>
            <AltitudeMeters>5.400000095367431640625</AltitudeMeters>
            <DistanceMeters>NAN</DistanceMeters>
          </Trackpoint>
          <Trackpoint>
            <Time>2022-07-09T16:12:09.000Z</Time>
            <Position>
              <LatitudeDegrees>43.31686195917427539825439453125</LatitudeDegrees>
              <LongitudeDegrees>-1.9868572242558002471923828125</LongitudeDegrees>
            </Position>
            <AltitudeMeters>6.19999980926513671875</AltitudeMeters>
            <DistanceMeters>NAN</DistanceMeters>
          </Trackpoint>
          <Trackpoint>
            <Time>2022-07-09T16:12:12.000Z</Time>
            <Position>
              <LatitudeDegrees>43.31680613569915294647216796875</LatitudeDegrees>
              <LongitudeDegrees>-1.98688848875463008880615234375</LongitudeDegrees>
            </Position>
            <AltitudeMeters>6.19999980926513671875</AltitudeMeters>
            <DistanceMeters>NAN</DistanceMeters>
          </Trackpoint>
          <Trackpoint>
            <Time>2022-07-09T16:12:14.000Z</Time>
            <Position>
              <LatitudeDegrees>43.31676506437361240386962890625</LatitudeDegrees>
              <LongitudeDegrees>-1.98691715486347675323486328125</LongitudeDegrees>
            </Position>
            <AltitudeMeters>6.19999980926513671875</AltitudeMeters>
            <DistanceMeters>NAN</DistanceMeters>
          </Trackpoint>
          <Trackpoint>
            <Time>2022-07-09T16:12:16.000Z</Time>
            <Position>
              <LatitudeDegrees>43.3167158626019954681396484375</LatitudeDegrees>
              <LongitudeDegrees>-1.98691983707249164581298828125</LongitudeDegrees>
            </Position>
            <AltitudeMeters>6</AltitudeMeters>
            <DistanceMeters>NAN</DistanceMeters>
          </Trackpoint>
          <Trackpoint>
            <Time>2022-07-09T16:12:19.000Z</Time>
            <Position>
              <LatitudeDegrees>43.3166608773171901702880859375</LatitudeDegrees>
              <LongitudeDegrees>-1.986922435462474822998046875</LongitudeDegrees>
            </Position>
            <AltitudeMeters>6.19999980926513671875</AltitudeMeters>
            <DistanceMeters>NAN</DistanceMeters>
          </Trackpoint>
          <Trackpoint>
            <Time>2022-07-09T16:12:21.000Z</Time>
            <Position>
              <LatitudeDegrees>43.31661888398230075836181640625</LatitudeDegrees>
              <LongitudeDegrees>-1.9869442284107208251953125</LongitudeDegrees>
            </Position>
            <AltitudeMeters>6.400000095367431640625</AltitudeMeters>
            <DistanceMeters>NAN</DistanceMeters>
          </Trackpoint>
          <Trackpoint>
            <Time>2022-07-09T16:12:30.000Z</Time>
            <Position>
              <LatitudeDegrees>43.31645292229950428009033203125</LatitudeDegrees>
              <LongitudeDegrees>-1.98713776655495166778564453125</LongitudeDegrees>
            </Position>
            <AltitudeMeters>6.19999980926513671875</AltitudeMeters>
            <DistanceMeters>NAN</DistanceMeters>
          </Trackpoint>
          <Trackpoint>
            <Time>2022-07-09T16:12:37.000Z</Time>
            <Position>
              <LatitudeDegrees>43.3163195662200450897216796875</LatitudeDegrees>
              <LongitudeDegrees>-1.9872964359819889068603515625</LongitudeDegrees>
            </Position>
            <AltitudeMeters>6.400000095367431640625</AltitudeMeters>
            <DistanceMeters>NAN</DistanceMeters>
          </Trackpoint>
          <Trackpoint>
            <Time>2022-07-09T16:12:44.000Z</Time>
            <Position>
              <LatitudeDegrees>43.3161867968738079071044921875</LatitudeDegrees>
              <LongitudeDegrees>-1.987452171742916107177734375</LongitudeDegrees>
            </Position>
            <AltitudeMeters>6.400000095367431640625</AltitudeMeters>
            <DistanceMeters>NAN</DistanceMeters>
          </Trackpoint>
          <Trackpoint>
            <Time>2022-07-09T16:12:53.000Z</Time>
            <Position>
              <LatitudeDegrees>43.31601086072623729705810546875</LatitudeDegrees>
              <LongitudeDegrees>-1.98773204348981380462646484375</LongitudeDegrees>
            </Position>
            <AltitudeMeters>6.80000019073486328125</AltitudeMeters>
            <DistanceMeters>NAN</DistanceMeters>
          </Trackpoint>
          <Trackpoint>
            <Time>2022-07-09T16:13:00.000Z</Time>
            <Position>
              <LatitudeDegrees>43.315843977034091949462890625</LatitudeDegrees>
              <LongitudeDegrees>-1.9879420101642608642578125</LongitudeDegrees>
            </Position>
            <AltitudeMeters>7</AltitudeMeters>
            <DistanceMeters>NAN</DistanceMeters>
          </Trackpoint>
          <Trackpoint>
            <Time>2022-07-09T16:13:06.000Z</Time>
            <Position>
              <LatitudeDegrees>43.31570760346949100494384765625</LatitudeDegrees>
              <LongitudeDegrees>-1.98814786970615386962890625</LongitudeDegrees>
            </Position>
            <AltitudeMeters>7.19999980926513671875</AltitudeMeters>
            <DistanceMeters>NAN</DistanceMeters>
          </Trackpoint>
          <Trackpoint>
            <Time>2022-07-09T16:13:08.000Z</Time>
            <Position>
              <LatitudeDegrees>43.31566418521106243133544921875</LatitudeDegrees>
              <LongitudeDegrees>-1.98821182362735271453857421875</LongitudeDegrees>
            </Position>
            <AltitudeMeters>7.400000095367431640625</AltitudeMeters>
            <DistanceMeters>NAN</DistanceMeters>
          </Trackpoint>
          <Trackpoint>
            <Time>2022-07-09T16:13:09.000Z</Time>
            <Position>
              <LatitudeDegrees>43.31564239226281642913818359375</LatitudeDegrees>
              <LongitudeDegrees>-1.98823529295623302459716796875</LongitudeDegrees>
            </Position>
            <AltitudeMeters>7.400000095367431640625</AltitudeMeters>
            <DistanceMeters>NAN</DistanceMeters>
          </Trackpoint>
          <Trackpoint>
            <Time>2022-07-09T16:13:12.000Z</Time>
            <Position>
              <LatitudeDegrees>43.3155571483075618743896484375</LatitudeDegrees>
              <LongitudeDegrees>-1.98827653191983699798583984375</LongitudeDegrees>
            </Position>
            <AltitudeMeters>7.599999904632568359375</AltitudeMeters>
            <DistanceMeters>NAN</DistanceMeters>
          </Trackpoint>
          <Trackpoint>
            <Time>2022-07-09T16:13:17.000Z</Time>
            <Position>
              <LatitudeDegrees>43.31540384329855442047119140625</LatitudeDegrees>
              <LongitudeDegrees>-1.9883481971919536590576171875</LongitudeDegrees>
            </Position>
            <AltitudeMeters>7.80000019073486328125</AltitudeMeters>
            <DistanceMeters>NAN</DistanceMeters>
          </Trackpoint>
          <Trackpoint>
            <Time>2022-07-09T16:13:20.000Z</Time>
            <Position>
              <LatitudeDegrees>43.31532689742743968963623046875</LatitudeDegrees>
              <LongitudeDegrees>-1.98843629099428653717041015625</LongitudeDegrees>
            </Position>
            <AltitudeMeters>8</AltitudeMeters>
            <DistanceMeters>NAN</DistanceMeters>
          </Trackpoint>
          <Trackpoint>
            <Time>2022-07-09T16:13:21.000Z</Time>
            <Position>
              <LatitudeDegrees>43.31530988216400146484375</LatitudeDegrees>
              <LongitudeDegrees>-1.98848222382366657257080078125</LongitudeDegrees>
            </Position>
            <AltitudeMeters>8.19999980926513671875</AltitudeMeters>
            <DistanceMeters>NAN</DistanceMeters>
          </Trackpoint>
          <Trackpoint>
            <Time>2022-07-09T16:13:24.000Z</Time>
            <Position>
              <LatitudeDegrees>43.3152899332344532012939453125</LatitudeDegrees>
              <LongitudeDegrees>-1.98862136341631412506103515625</LongitudeDegrees>
            </Position>
            <AltitudeMeters>8.3999996185302734375</AltitudeMeters>
            <DistanceMeters>NAN</DistanceMeters>
          </Trackpoint>
          <Trackpoint>
            <Time>2022-07-09T16:13:30.000Z</Time>
            <Position>
              <LatitudeDegrees>43.31524626351892948150634765625</LatitudeDegrees>
              <LongitudeDegrees>-1.98885262012481689453125</LongitudeDegrees>
            </Position>
            <AltitudeMeters>8.19999980926513671875</AltitudeMeters>
            <DistanceMeters>NAN</DistanceMeters>
          </Trackpoint>
          <Trackpoint>
            <Time>2022-07-09T16:13:32.000Z</Time>
            <Position>
              <LatitudeDegrees>43.315239809453487396240234375</LatitudeDegrees>
              <LongitudeDegrees>-1.988879106938838958740234375</LongitudeDegrees>
            </Position>
            <AltitudeMeters>8.19999980926513671875</AltitudeMeters>
            <DistanceMeters>NAN</DistanceMeters>
          </Trackpoint>
          <Trackpoint>
            <Time>2022-07-09T16:13:34.000Z</Time>
            <Position>
              <LatitudeDegrees>43.3152326010167598724365234375</LatitudeDegrees>
              <LongitudeDegrees>-1.988889165222644805908203125</LongitudeDegrees>
            </Position>
            <AltitudeMeters>8</AltitudeMeters>
            <DistanceMeters>NAN</DistanceMeters>
          </Trackpoint>
          <Trackpoint>
            <Time>2022-07-09T16:13:36.000Z</Time>
            <Position>
              <LatitudeDegrees>43.315225727856159210205078125</LatitudeDegrees>
              <LongitudeDegrees>-1.9888866506516933441162109375</LongitudeDegrees>
            </Position>
            <AltitudeMeters>8</AltitudeMeters>
            <DistanceMeters>NAN</DistanceMeters>
          </Trackpoint>
          <Trackpoint>
            <Time>2022-07-09T16:13:40.000Z</Time>
            <Position>
              <LatitudeDegrees>43.3152195252478122711181640625</LatitudeDegrees>
              <LongitudeDegrees>-1.9889577291905879974365234375</LongitudeDegrees>
            </Position>
            <AltitudeMeters>8</AltitudeMeters>
            <DistanceMeters>NAN</DistanceMeters>
          </Trackpoint>
          <Trackpoint>
            <Time>2022-07-09T16:13:42.000Z</Time>
            <Position>
              <LatitudeDegrees>43.3152155019342899322509765625</LatitudeDegrees>
              <LongitudeDegrees>-1.98903744108974933624267578125</LongitudeDegrees>
            </Position>
            <AltitudeMeters>8.19999980926513671875</AltitudeMeters>
            <DistanceMeters>NAN</DistanceMeters>
          </Trackpoint>
          <Trackpoint>
            <Time>2022-07-09T16:13:49.000Z</Time>
            <Position>
              <LatitudeDegrees>43.31515322439372539520263671875</LatitudeDegrees>
              <LongitudeDegrees>-1.989350505173206329345703125</LongitudeDegrees>
            </Position>
            <AltitudeMeters>8</AltitudeMeters>
            <DistanceMeters>NAN</DistanceMeters>
          </Trackpoint>
          <Trackpoint>
            <Time>2022-07-09T16:13:59.000Z</Time>
            <Position>
              <LatitudeDegrees>43.31504367291927337646484375</LatitudeDegrees>
              <LongitudeDegrees>-1.9898438639938831329345703125</LongitudeDegrees>
            </Position>
            <AltitudeMeters>8.19999980926513671875</AltitudeMeters>
            <DistanceMeters>NAN</DistanceMeters>
          </Trackpoint>
          <Trackpoint>
            <Time>2022-07-09T16:14:07.000Z</Time>
            <Position>
              <LatitudeDegrees>43.31495222635567188262939453125</LatitudeDegrees>
              <LongitudeDegrees>-1.99017771519720554351806640625</LongitudeDegrees>
            </Position>
            <AltitudeMeters>8.3999996185302734375</AltitudeMeters>
            <DistanceMeters>NAN</DistanceMeters>
          </Trackpoint>
          <Trackpoint>
            <Time>2022-07-09T16:14:15.000Z</Time>
            <Position>
              <LatitudeDegrees>43.31489170901477336883544921875</LatitudeDegrees>
              <LongitudeDegrees>-1.990509219467639923095703125</LongitudeDegrees>
            </Position>
            <AltitudeMeters>8.80000019073486328125</AltitudeMeters>
            <DistanceMeters>NAN</DistanceMeters>
          </Trackpoint>
          <Trackpoint>
            <Time>2022-07-09T16:14:22.000Z</Time>
            <Position>
              <LatitudeDegrees>43.3148332871496677398681640625</LatitudeDegrees>
              <LongitudeDegrees>-1.990794874727725982666015625</LongitudeDegrees>
            </Position>
            <AltitudeMeters>9.3999996185302734375</AltitudeMeters>
            <DistanceMeters>NAN</DistanceMeters>
          </Trackpoint>
          <Trackpoint>
            <Time>2022-07-09T16:14:26.000Z</Time>
            <Position>
              <LatitudeDegrees>43.31479020416736602783203125</LatitudeDegrees>
              <LongitudeDegrees>-1.99094482697546482086181640625</LongitudeDegrees>
            </Position>
            <AltitudeMeters>9.3999996185302734375</AltitudeMeters>
            <DistanceMeters>NAN</DistanceMeters>
          </Trackpoint>
          <Trackpoint>
            <Time>2022-07-09T16:14:32.000Z</Time>
            <Position>
              <LatitudeDegrees>43.31475374288856983184814453125</LatitudeDegrees>
              <LongitudeDegrees>-1.99118488468229770660400390625</LongitudeDegrees>
            </Position>
            <AltitudeMeters>9.80000019073486328125</AltitudeMeters>
            <DistanceMeters>NAN</DistanceMeters>
          </Trackpoint>
          <Trackpoint>
            <Time>2022-07-09T16:14:40.000Z</Time>
            <Position>
              <LatitudeDegrees>43.31469238735735416412353515625</LatitudeDegrees>
              <LongitudeDegrees>-1.9915308058261871337890625</LongitudeDegrees>
            </Position>
            <AltitudeMeters>10.3999996185302734375</AltitudeMeters>
            <DistanceMeters>NAN</DistanceMeters>
          </Trackpoint>
          <Trackpoint>
            <Time>2022-07-09T16:14:52.000Z</Time>
            <Position>
              <LatitudeDegrees>43.314606137573719024658203125</LatitudeDegrees>
              <LongitudeDegrees>-1.9920315407216548919677734375</LongitudeDegrees>
            </Position>
            <AltitudeMeters>10.80000019073486328125</AltitudeMeters>
            <DistanceMeters>NAN</DistanceMeters>
          </Trackpoint>
          <Trackpoint>
            <Time>2022-07-09T16:15:00.000Z</Time>
            <Position>
              <LatitudeDegrees>43.3145674131810665130615234375</LatitudeDegrees>
              <LongitudeDegrees>-1.992364637553691864013671875</LongitudeDegrees>
            </Position>
            <AltitudeMeters>11.3999996185302734375</AltitudeMeters>
            <DistanceMeters>NAN</DistanceMeters>
          </Trackpoint>
          <Trackpoint>
            <Time>2022-07-09T16:15:02.000Z</Time>
            <Position>
              <LatitudeDegrees>43.3145570196211338043212890625</LatitudeDegrees>
              <LongitudeDegrees>-1.99245147407054901123046875</LongitudeDegrees>
            </Position>
            <AltitudeMeters>11.3999996185302734375</AltitudeMeters>
            <DistanceMeters>NAN</DistanceMeters>
          </Trackpoint>
          <Trackpoint>
            <Time>2022-07-09T16:15:09.000Z</Time>
            <Position>
              <LatitudeDegrees>43.3145268447697162628173828125</LatitudeDegrees>
              <LongitudeDegrees>-1.99275724589824676513671875</LongitudeDegrees>
            </Position>
            <AltitudeMeters>11.6000003814697265625</AltitudeMeters>
            <DistanceMeters>NAN</DistanceMeters>
          </Trackpoint>
          <Trackpoint>
            <Time>2022-07-09T16:15:17.000Z</Time>
            <Position>
              <LatitudeDegrees>43.31452391110360622406005859375</LatitudeDegrees>
              <LongitudeDegrees>-1.9930558092892169952392578125</LongitudeDegrees>
            </Position>
            <AltitudeMeters>12</AltitudeMeters>
            <DistanceMeters>NAN</DistanceMeters>
          </Trackpoint>
          <Trackpoint>
            <Time>2022-07-09T16:15:26.000Z</Time>
            <Position>
              <LatitudeDegrees>43.31452508457005023956298828125</LatitudeDegrees>
              <LongitudeDegrees>-1.9933837093412876129150390625</LongitudeDegrees>
            </Position>
            <AltitudeMeters>12.19999980926513671875</AltitudeMeters>
            <DistanceMeters>NAN</DistanceMeters>
          </Trackpoint>
          <Trackpoint>
            <Time>2022-07-09T16:15:34.000Z</Time>
            <Position>
              <LatitudeDegrees>43.3145295269787311553955078125</LatitudeDegrees>
              <LongitudeDegrees>-1.99369258247315883636474609375</LongitudeDegrees>
            </Position>
            <AltitudeMeters>12.3999996185302734375</AltitudeMeters>
            <DistanceMeters>NAN</DistanceMeters>
          </Trackpoint>
          <Trackpoint>
            <Time>2022-07-09T16:15:44.000Z</Time>
            <Position>
              <LatitudeDegrees>43.31451804377138614654541015625</LatitudeDegrees>
              <LongitudeDegrees>-1.99410765431821346282958984375</LongitudeDegrees>
            </Position>
            <AltitudeMeters>12.80000019073486328125</AltitudeMeters>
            <DistanceMeters>NAN</DistanceMeters>
          </Trackpoint>
          <Trackpoint>
            <Time>2022-07-09T16:15:57.000Z</Time>
            <Position>
              <LatitudeDegrees>43.3145084045827388763427734375</LatitudeDegrees>
              <LongitudeDegrees>-1.99463638477027416229248046875</LongitudeDegrees>
            </Position>
            <AltitudeMeters>12.80000019073486328125</AltitudeMeters>
            <DistanceMeters>NAN</DistanceMeters>
          </Trackpoint>
          <Trackpoint>
            <Time>2022-07-09T16:16:05.000Z</Time>
            <Position>
              <LatitudeDegrees>43.31450748257339000701904296875</LatitudeDegrees>
              <LongitudeDegrees>-1.994952969253063201904296875</LongitudeDegrees>
            </Position>
            <AltitudeMeters>13.19999980926513671875</AltitudeMeters>
            <DistanceMeters>NAN</DistanceMeters>
          </Trackpoint>
          <Trackpoint>
            <Time>2022-07-09T16:16:08.000Z</Time>
            <Position>
              <LatitudeDegrees>43.31451100297272205352783203125</LatitudeDegrees>
              <LongitudeDegrees>-1.995019018650054931640625</LongitudeDegrees>
            </Position>
            <AltitudeMeters>13.19999980926513671875</AltitudeMeters>
            <DistanceMeters>NAN</DistanceMeters>
          </Trackpoint>
          <Trackpoint>
            <Time>2022-07-09T16:16:09.000Z</Time>
            <Position>
              <LatitudeDegrees>43.3145161159336566925048828125</LatitudeDegrees>
              <LongitudeDegrees>-1.995030753314495086669921875</LongitudeDegrees>
            </Position>
            <AltitudeMeters>13.3999996185302734375</AltitudeMeters>
            <DistanceMeters>NAN</DistanceMeters>
          </Trackpoint>
          <Trackpoint>
            <Time>2022-07-09T16:16:16.000Z</Time>
            <Position>
              <LatitudeDegrees>43.3145506493747234344482421875</LatitudeDegrees>
              <LongitudeDegrees>-1.99506386183202266693115234375</LongitudeDegrees>
            </Position>
            <AltitudeMeters>13.19999980926513671875</AltitudeMeters>
            <DistanceMeters>NAN</DistanceMeters>
          </Trackpoint>
          <Trackpoint>
            <Time>2022-07-09T16:16:21.000Z</Time>
            <Position>
              <LatitudeDegrees>43.3145704306662082672119140625</LatitudeDegrees>
              <LongitudeDegrees>-1.995142735540866851806640625</LongitudeDegrees>
            </Position>
            <AltitudeMeters>13.19999980926513671875</AltitudeMeters>
            <DistanceMeters>NAN</DistanceMeters>
          </Trackpoint>
          <Trackpoint>
            <Time>2022-07-09T16:16:22.000Z</Time>
            <Position>
              <LatitudeDegrees>43.3145700953900814056396484375</LatitudeDegrees>
              <LongitudeDegrees>-1.995163522660732269287109375</LongitudeDegrees>
            </Position>
            <AltitudeMeters>13.19999980926513671875</AltitudeMeters>
            <DistanceMeters>NAN</DistanceMeters>
          </Trackpoint>
          <Trackpoint>
            <Time>2022-07-09T16:16:31.000Z</Time>
            <Position>
              <LatitudeDegrees>43.3145674131810665130615234375</LatitudeDegrees>
              <LongitudeDegrees>-1.99539913795888423919677734375</LongitudeDegrees>
            </Position>
            <AltitudeMeters>13.19999980926513671875</AltitudeMeters>
            <DistanceMeters>NAN</DistanceMeters>
          </Trackpoint>
          <Trackpoint>
            <Time>2022-07-09T16:16:38.000Z</Time>
            <Position>
              <LatitudeDegrees>43.314552493393421173095703125</LatitudeDegrees>
              <LongitudeDegrees>-1.99562896974384784698486328125</LongitudeDegrees>
            </Position>
            <AltitudeMeters>13.19999980926513671875</AltitudeMeters>
            <DistanceMeters>NAN</DistanceMeters>
          </Trackpoint>
          <Trackpoint>
            <Time>2022-07-09T16:16:41.000Z</Time>
            <Position>
              <LatitudeDegrees>43.3145489729940891265869140625</LatitudeDegrees>
              <LongitudeDegrees>-1.9957427121698856353759765625</LongitudeDegrees>
            </Position>
            <AltitudeMeters>13.6000003814697265625</AltitudeMeters>
            <DistanceMeters>NAN</DistanceMeters>
          </Trackpoint>
          <Trackpoint>
            <Time>2022-07-09T16:16:44.000Z</Time>
            <Position>
              <LatitudeDegrees>43.31456012092530727386474609375</LatitudeDegrees>
              <LongitudeDegrees>-1.99585963971912860870361328125</LongitudeDegrees>
            </Position>
            <AltitudeMeters>13.6000003814697265625</AltitudeMeters>
            <DistanceMeters>NAN</DistanceMeters>
          </Trackpoint>
          <Trackpoint>
            <Time>2022-07-09T16:16:53.000Z</Time>
            <Position>
              <LatitudeDegrees>43.31462399102747440338134765625</LatitudeDegrees>
              <LongitudeDegrees>-1.99620597995817661285400390625</LongitudeDegrees>
            </Position>
            <AltitudeMeters>13.3999996185302734375</AltitudeMeters>
            <DistanceMeters>NAN</DistanceMeters>
          </Trackpoint>
          <Trackpoint>
            <Time>2022-07-09T16:16:58.000Z</Time>
            <Position>
              <LatitudeDegrees>43.3146700076758861541748046875</LatitudeDegrees>
              <LongitudeDegrees>-1.9963794015347957611083984375</LongitudeDegrees>
            </Position>
            <AltitudeMeters>13.3999996185302734375</AltitudeMeters>
            <DistanceMeters>NAN</DistanceMeters>
          </Trackpoint>
          <Trackpoint>
            <Time>2022-07-09T16:17:01.000Z</Time>
            <Position>
              <LatitudeDegrees>43.31466975621879100799560546875</LatitudeDegrees>
              <LongitudeDegrees>-1.9964928925037384033203125</LongitudeDegrees>
            </Position>
            <AltitudeMeters>13.6000003814697265625</AltitudeMeters>
            <DistanceMeters>NAN</DistanceMeters>
          </Trackpoint>
          <Trackpoint>
            <Time>2022-07-09T16:17:03.000Z</Time>
            <Position>
              <LatitudeDegrees>43.3146492205560207366943359375</LatitudeDegrees>
              <LongitudeDegrees>-1.9965235702693462371826171875</LongitudeDegrees>
            </Position>
            <AltitudeMeters>13.80000019073486328125</AltitudeMeters>
            <DistanceMeters>NAN</DistanceMeters>
          </Trackpoint>
          <Trackpoint>
            <Time>2022-07-09T16:17:04.000Z</Time>
            <Position>
              <LatitudeDegrees>43.3146393299102783203125</LatitudeDegrees>
              <LongitudeDegrees>-1.99653304181993007659912109375</LongitudeDegrees>
            </Position>
            <AltitudeMeters>13.80000019073486328125</AltitudeMeters>
            <DistanceMeters>NAN</DistanceMeters>
          </Trackpoint>
          <Trackpoint>
            <Time>2022-07-09T16:17:07.000Z</Time>
            <Position>
              <LatitudeDegrees>43.3146498911082744598388671875</LatitudeDegrees>
              <LongitudeDegrees>-1.99661350809037685394287109375</LongitudeDegrees>
            </Position>
            <AltitudeMeters>13.80000019073486328125</AltitudeMeters>
            <DistanceMeters>NAN</DistanceMeters>
          </Trackpoint>
          <Trackpoint>
            <Time>2022-07-09T16:17:14.000Z</Time>
            <Position>
              <LatitudeDegrees>43.314710743725299835205078125</LatitudeDegrees>
              <LongitudeDegrees>-1.996901929378509521484375</LongitudeDegrees>
            </Position>
            <AltitudeMeters>14</AltitudeMeters>
            <DistanceMeters>NAN</DistanceMeters>
          </Trackpoint>
          <Trackpoint>
            <Time>2022-07-09T16:17:23.000Z</Time>
            <Position>
              <LatitudeDegrees>43.31481040455400943756103515625</LatitudeDegrees>
              <LongitudeDegrees>-1.9973056018352508544921875</LongitudeDegrees>
            </Position>
            <AltitudeMeters>13.80000019073486328125</AltitudeMeters>
            <DistanceMeters>NAN</DistanceMeters>
          </Trackpoint>
          <Trackpoint>
            <Time>2022-07-09T16:17:30.000Z</Time>
            <Position>
              <LatitudeDegrees>43.31490729935467243194580078125</LatitudeDegrees>
              <LongitudeDegrees>-1.99760709889233112335205078125</LongitudeDegrees>
            </Position>
            <AltitudeMeters>14</AltitudeMeters>
            <DistanceMeters>NAN</DistanceMeters>
          </Trackpoint>
          <Trackpoint>
            <Time>2022-07-09T16:17:32.000Z</Time>
            <Position>
              <LatitudeDegrees>43.3149383962154388427734375</LatitudeDegrees>
              <LongitudeDegrees>-1.9976601563394069671630859375</LongitudeDegrees>
            </Position>
            <AltitudeMeters>14.19999980926513671875</AltitudeMeters>
            <DistanceMeters>NAN</DistanceMeters>
          </Trackpoint>
          <Trackpoint>
            <Time>2022-07-09T16:17:35.000Z</Time>
            <Position>
              <LatitudeDegrees>43.31498441286385059356689453125</LatitudeDegrees>
              <LongitudeDegrees>-1.99777021072804927825927734375</LongitudeDegrees>
            </Position>
            <AltitudeMeters>13.80000019073486328125</AltitudeMeters>
            <DistanceMeters>NAN</DistanceMeters>
          </Trackpoint>
          <Trackpoint>
            <Time>2022-07-09T16:17:37.000Z</Time>
            <Position>
              <LatitudeDegrees>43.3150203712284564971923828125</LatitudeDegrees>
              <LongitudeDegrees>-1.99784916825592517852783203125</LongitudeDegrees>
            </Position>
            <AltitudeMeters>13.80000019073486328125</AltitudeMeters>
            <DistanceMeters>NAN</DistanceMeters>
          </Trackpoint>
          <Trackpoint>
            <Time>2022-07-09T16:18:00.000Z</Time>
            <Position>
              <LatitudeDegrees>43.31549654714763164520263671875</LatitudeDegrees>
              <LongitudeDegrees>-1.99894468300044536590576171875</LongitudeDegrees>
            </Position>
            <AltitudeMeters>15.19999980926513671875</AltitudeMeters>
            <DistanceMeters>NAN</DistanceMeters>
          </Trackpoint>
          <Trackpoint>
            <Time>2022-07-09T16:18:03.000Z</Time>
            <Position>
              <LatitudeDegrees>43.315575756132602691650390625</LatitudeDegrees>
              <LongitudeDegrees>-1.99908315204083919525146484375</LongitudeDegrees>
            </Position>
            <AltitudeMeters>15.3999996185302734375</AltitudeMeters>
            <DistanceMeters>NAN</DistanceMeters>
          </Trackpoint>
          <Trackpoint>
            <Time>2022-07-09T16:18:06.000Z</Time>
            <Position>
              <LatitudeDegrees>43.3155970461666584014892578125</LatitudeDegrees>
              <LongitudeDegrees>-1.99924358166754245758056640625</LongitudeDegrees>
            </Position>
            <AltitudeMeters>15.3999996185302734375</AltitudeMeters>
            <DistanceMeters>NAN</DistanceMeters>
          </Trackpoint>
          <Trackpoint>
            <Time>2022-07-09T16:18:07.000Z</Time>
            <Position>
              <LatitudeDegrees>43.31560852937400341033935546875</LatitudeDegrees>
              <LongitudeDegrees>-1.99928850866854190826416015625</LongitudeDegrees>
            </Position>
            <AltitudeMeters>15.80000019073486328125</AltitudeMeters>
            <DistanceMeters>NAN</DistanceMeters>
          </Trackpoint>
          <Trackpoint>
            <Time>2022-07-09T16:18:11.000Z</Time>
            <Position>
              <LatitudeDegrees>43.3156255446374416351318359375</LatitudeDegrees>
              <LongitudeDegrees>-1.99946402572095394134521484375</LongitudeDegrees>
            </Position>
            <AltitudeMeters>16.6000003814697265625</AltitudeMeters>
            <DistanceMeters>NAN</DistanceMeters>
          </Trackpoint>
          <Trackpoint>
            <Time>2022-07-09T16:18:14.000Z</Time>
            <Position>
              <LatitudeDegrees>43.31563618965446949005126953125</LatitudeDegrees>
              <LongitudeDegrees>-1.9995692186057567596435546875</LongitudeDegrees>
            </Position>
            <AltitudeMeters>16.6000003814697265625</AltitudeMeters>
            <DistanceMeters>NAN</DistanceMeters>
          </Trackpoint>
          <Trackpoint>
            <Time>2022-07-09T16:18:22.000Z</Time>
            <Position>
              <LatitudeDegrees>43.31570810638368129730224609375</LatitudeDegrees>
              <LongitudeDegrees>-1.9998776726424694061279296875</LongitudeDegrees>
            </Position>
            <AltitudeMeters>16.3999996185302734375</AltitudeMeters>
            <DistanceMeters>NAN</DistanceMeters>
          </Trackpoint>
          <Trackpoint>
            <Time>2022-07-09T16:18:26.000Z</Time>
            <Position>
              <LatitudeDegrees>43.31572721712291240692138671875</LatitudeDegrees>
              <LongitudeDegrees>-2.00009400956332683563232421875</LongitudeDegrees>
            </Position>
            <AltitudeMeters>16.200000762939453125</AltitudeMeters>
            <DistanceMeters>NAN</DistanceMeters>
          </Trackpoint>
          <Trackpoint>
            <Time>2022-07-09T16:18:27.000Z</Time>
            <Position>
              <LatitudeDegrees>43.31572185270488262176513671875</LatitudeDegrees>
              <LongitudeDegrees>-2.000163160264492034912109375</LongitudeDegrees>
            </Position>
            <AltitudeMeters>16.200000762939453125</AltitudeMeters>
            <DistanceMeters>NAN</DistanceMeters>
          </Trackpoint>
          <Trackpoint>
            <Time>2022-07-09T16:18:30.000Z</Time>
            <Position>
              <LatitudeDegrees>43.31570944748818874359130859375</LatitudeDegrees>
              <LongitudeDegrees>-2.000366337597370147705078125</LongitudeDegrees>
            </Position>
            <AltitudeMeters>16.200000762939453125</AltitudeMeters>
            <DistanceMeters>NAN</DistanceMeters>
          </Trackpoint>
          <Trackpoint>
            <Time>2022-07-09T16:18:31.000Z</Time>
            <Position>
              <LatitudeDegrees>43.3157026581466197967529296875</LatitudeDegrees>
              <LongitudeDegrees>-2.00043062679469585418701171875</LongitudeDegrees>
            </Position>
            <AltitudeMeters>16</AltitudeMeters>
            <DistanceMeters>NAN</DistanceMeters>
          </Trackpoint>
          <Trackpoint>
            <Time>2022-07-09T16:18:32.000Z</Time>
            <Position>
              <LatitudeDegrees>43.31569083966314792633056640625</LatitudeDegrees>
              <LongitudeDegrees>-2.000497095286846160888671875</LongitudeDegrees>
            </Position>
            <AltitudeMeters>15.80000019073486328125</AltitudeMeters>
            <DistanceMeters>NAN</DistanceMeters>
          </Trackpoint>
          <Trackpoint>
            <Time>2022-07-09T16:18:34.000Z</Time>
            <Position>
              <LatitudeDegrees>43.3156634308397769927978515625</LatitudeDegrees>
              <LongitudeDegrees>-2.00062743388116359710693359375</LongitudeDegrees>
            </Position>
            <AltitudeMeters>15.3999996185302734375</AltitudeMeters>
            <DistanceMeters>NAN</DistanceMeters>
          </Trackpoint>
          <Trackpoint>
            <Time>2022-07-09T16:18:37.000Z</Time>
            <Position>
              <LatitudeDegrees>43.31562579609453678131103515625</LatitudeDegrees>
              <LongitudeDegrees>-2.00079440139234066009521484375</LongitudeDegrees>
            </Position>
            <AltitudeMeters>14.6000003814697265625</AltitudeMeters>
            <DistanceMeters>NAN</DistanceMeters>
          </Trackpoint>
          <Trackpoint>
            <Time>2022-07-09T16:18:40.000Z</Time>
            <Position>
              <LatitudeDegrees>43.31556863151490688323974609375</LatitudeDegrees>
              <LongitudeDegrees>-2.00092867948114871978759765625</LongitudeDegrees>
            </Position>
            <AltitudeMeters>14.19999980926513671875</AltitudeMeters>
            <DistanceMeters>NAN</DistanceMeters>
          </Trackpoint>
          <Trackpoint>
            <Time>2022-07-09T16:18:41.000Z</Time>
            <Position>
              <LatitudeDegrees>43.3155440725386142730712890625</LatitudeDegrees>
              <LongitudeDegrees>-2.00097578577697277069091796875</LongitudeDegrees>
            </Position>
            <AltitudeMeters>14.19999980926513671875</AltitudeMeters>
            <DistanceMeters>NAN</DistanceMeters>
          </Trackpoint>
          <Trackpoint>
            <Time>2022-07-09T16:18:45.000Z</Time>
            <Position>
              <LatitudeDegrees>43.3155206032097339630126953125</LatitudeDegrees>
              <LongitudeDegrees>-2.00116471387445926666259765625</LongitudeDegrees>
            </Position>
            <AltitudeMeters>13.80000019073486328125</AltitudeMeters>
            <DistanceMeters>NAN</DistanceMeters>
          </Trackpoint>
          <Trackpoint>
            <Time>2022-07-09T16:18:48.000Z</Time>
            <Position>
              <LatitudeDegrees>43.31553451716899871826171875</LatitudeDegrees>
              <LongitudeDegrees>-2.00130217708647251129150390625</LongitudeDegrees>
            </Position>
            <AltitudeMeters>13.6000003814697265625</AltitudeMeters>
            <DistanceMeters>NAN</DistanceMeters>
          </Trackpoint>
          <Trackpoint>
            <Time>2022-07-09T16:18:50.000Z</Time>
            <Position>
              <LatitudeDegrees>43.3155548013746738433837890625</LatitudeDegrees>
              <LongitudeDegrees>-2.00138817541301250457763671875</LongitudeDegrees>
            </Position>
            <AltitudeMeters>13.6000003814697265625</AltitudeMeters>
            <DistanceMeters>NAN</DistanceMeters>
          </Trackpoint>
          <Trackpoint>
            <Time>2022-07-09T16:18:55.000Z</Time>
            <Position>
              <LatitudeDegrees>43.3156473375856876373291015625</LatitudeDegrees>
              <LongitudeDegrees>-2.0015993155539035797119140625</LongitudeDegrees>
            </Position>
            <AltitudeMeters>13.80000019073486328125</AltitudeMeters>
            <DistanceMeters>NAN</DistanceMeters>
          </Trackpoint>
          <Trackpoint>
            <Time>2022-07-09T16:18:59.000Z</Time>
            <Position>
              <LatitudeDegrees>43.31568916328251361846923828125</LatitudeDegrees>
              <LongitudeDegrees>-2.00178287923336029052734375</LongitudeDegrees>
            </Position>
            <AltitudeMeters>13.80000019073486328125</AltitudeMeters>
            <DistanceMeters>NAN</DistanceMeters>
          </Trackpoint>
          <Trackpoint>
            <Time>2022-07-09T16:19:00.000Z</Time>
            <Position>
              <LatitudeDegrees>43.31570257432758808135986328125</LatitudeDegrees>
              <LongitudeDegrees>-2.00182990171015262603759765625</LongitudeDegrees>
            </Position>
            <AltitudeMeters>13.80000019073486328125</AltitudeMeters>
            <DistanceMeters>NAN</DistanceMeters>
          </Trackpoint>
          <Trackpoint>
            <Time>2022-07-09T16:19:02.000Z</Time>
            <Position>
              <LatitudeDegrees>43.31573409028351306915283203125</LatitudeDegrees>
              <LongitudeDegrees>-2.00192377902567386627197265625</LongitudeDegrees>
            </Position>
            <AltitudeMeters>13.80000019073486328125</AltitudeMeters>
            <DistanceMeters>NAN</DistanceMeters>
          </Trackpoint>
          <Trackpoint>
            <Time>2022-07-09T16:19:03.000Z</Time>
            <Position>
              <LatitudeDegrees>43.3157506026327610015869140625</LatitudeDegrees>
              <LongitudeDegrees>-2.00196904130280017852783203125</LongitudeDegrees>
            </Position>
            <AltitudeMeters>13.80000019073486328125</AltitudeMeters>
            <DistanceMeters>NAN</DistanceMeters>
          </Trackpoint>
          <Trackpoint>
            <Time>2022-07-09T16:19:04.000Z</Time>
            <Position>
              <LatitudeDegrees>43.31576543860137462615966796875</LatitudeDegrees>
              <LongitudeDegrees>-2.0020155608654022216796875</LongitudeDegrees>
            </Position>
            <AltitudeMeters>13.80000019073486328125</AltitudeMeters>
            <DistanceMeters>NAN</DistanceMeters>
          </Trackpoint>
          <Trackpoint>
            <Time>2022-07-09T16:19:06.000Z</Time>
            <Position>
              <LatitudeDegrees>43.31579469144344329833984375</LatitudeDegrees>
              <LongitudeDegrees>-2.00210918672382831573486328125</LongitudeDegrees>
            </Position>
            <AltitudeMeters>13.6000003814697265625</AltitudeMeters>
            <DistanceMeters>NAN</DistanceMeters>
          </Trackpoint>
          <Trackpoint>
            <Time>2022-07-09T16:19:11.000Z</Time>
            <Position>
              <LatitudeDegrees>43.31585261039435863494873046875</LatitudeDegrees>
              <LongitudeDegrees>-2.00233801268041133880615234375</LongitudeDegrees>
            </Position>
            <AltitudeMeters>13.3999996185302734375</AltitudeMeters>
            <DistanceMeters>NAN</DistanceMeters>
          </Trackpoint>
          <Trackpoint>
            <Time>2022-07-09T16:19:21.000Z</Time>
            <Position>
              <LatitudeDegrees>43.3159832842648029327392578125</LatitudeDegrees>
              <LongitudeDegrees>-2.002748809754848480224609375</LongitudeDegrees>
            </Position>
            <AltitudeMeters>13</AltitudeMeters>
            <DistanceMeters>NAN</DistanceMeters>
          </Trackpoint>
          <Trackpoint>
            <Time>2022-07-09T16:19:27.000Z</Time>
            <Position>
              <LatitudeDegrees>43.31603474915027618408203125</LatitudeDegrees>
              <LongitudeDegrees>-2.002890966832637786865234375</LongitudeDegrees>
            </Position>
            <AltitudeMeters>12.6000003814697265625</AltitudeMeters>
            <DistanceMeters>NAN</DistanceMeters>
          </Trackpoint>
          <Trackpoint>
            <Time>2022-07-09T16:19:31.000Z</Time>
            <Position>
              <LatitudeDegrees>43.3160764910280704498291015625</LatitudeDegrees>
              <LongitudeDegrees>-2.00302985496819019317626953125</LongitudeDegrees>
            </Position>
            <AltitudeMeters>12.6000003814697265625</AltitudeMeters>
            <DistanceMeters>NAN</DistanceMeters>
          </Trackpoint>
          <Trackpoint>
            <Time>2022-07-09T16:19:33.000Z</Time>
            <Position>
              <LatitudeDegrees>43.31610054709017276763916015625</LatitudeDegrees>
              <LongitudeDegrees>-2.00310654938220977783203125</LongitudeDegrees>
            </Position>
            <AltitudeMeters>12.3999996185302734375</AltitudeMeters>
            <DistanceMeters>NAN</DistanceMeters>
          </Trackpoint>
          <Trackpoint>
            <Time>2022-07-09T16:19:38.000Z</Time>
            <Position>
              <LatitudeDegrees>43.3161532692611217498779296875</LatitudeDegrees>
              <LongitudeDegrees>-2.003220878541469573974609375</LongitudeDegrees>
            </Position>
            <AltitudeMeters>12.3999996185302734375</AltitudeMeters>
            <DistanceMeters>NAN</DistanceMeters>
          </Trackpoint>
          <Trackpoint>
            <Time>2022-07-09T16:19:42.000Z</Time>
            <Position>
              <LatitudeDegrees>43.3161753974854946136474609375</LatitudeDegrees>
              <LongitudeDegrees>-2.00326840393245220184326171875</LongitudeDegrees>
            </Position>
            <AltitudeMeters>12.19999980926513671875</AltitudeMeters>
            <DistanceMeters>NAN</DistanceMeters>
          </Trackpoint>
          <Trackpoint>
            <Time>2022-07-09T16:19:44.000Z</Time>
            <Position>
              <LatitudeDegrees>43.3161894790828227996826171875</LatitudeDegrees>
              <LongitudeDegrees>-2.0033352077007293701171875</LongitudeDegrees>
            </Position>
            <AltitudeMeters>12.19999980926513671875</AltitudeMeters>
            <DistanceMeters>NAN</DistanceMeters>
          </Trackpoint>
          <Trackpoint>
            <Time>2022-07-09T16:19:51.000Z</Time>
            <Position>
              <LatitudeDegrees>43.31626181490719318389892578125</LatitudeDegrees>
              <LongitudeDegrees>-2.00361357070505619049072265625</LongitudeDegrees>
            </Position>
            <AltitudeMeters>12.19999980926513671875</AltitudeMeters>
            <DistanceMeters>NAN</DistanceMeters>
          </Trackpoint>
          <Trackpoint>
            <Time>2022-07-09T16:19:59.000Z</Time>
            <Position>
              <LatitudeDegrees>43.31636331975460052490234375</LatitudeDegrees>
              <LongitudeDegrees>-2.003954462707042694091796875</LongitudeDegrees>
            </Position>
            <AltitudeMeters>12</AltitudeMeters>
            <DistanceMeters>NAN</DistanceMeters>
          </Trackpoint>
          <Trackpoint>
            <Time>2022-07-09T16:20:00.000Z</Time>
            <Position>
              <LatitudeDegrees>43.3163752220571041107177734375</LatitudeDegrees>
              <LongitudeDegrees>-2.0040019042789936065673828125</LongitudeDegrees>
            </Position>
            <AltitudeMeters>12</AltitudeMeters>
            <DistanceMeters>NAN</DistanceMeters>
          </Trackpoint>
          <Trackpoint>
            <Time>2022-07-09T16:20:07.000Z</Time>
            <Position>
              <LatitudeDegrees>43.31646247766911983489990234375</LatitudeDegrees>
              <LongitudeDegrees>-2.00428294949233531951904296875</LongitudeDegrees>
            </Position>
            <AltitudeMeters>12.19999980926513671875</AltitudeMeters>
            <DistanceMeters>NAN</DistanceMeters>
          </Trackpoint>
          <Trackpoint>
            <Time>2022-07-09T16:20:08.000Z</Time>
            <Position>
              <LatitudeDegrees>43.3164737932384014129638671875</LatitudeDegrees>
              <LongitudeDegrees>-2.0043197460472583770751953125</LongitudeDegrees>
            </Position>
            <AltitudeMeters>12.19999980926513671875</AltitudeMeters>
            <DistanceMeters>NAN</DistanceMeters>
          </Trackpoint>
          <Trackpoint>
            <Time>2022-07-09T16:20:14.000Z</Time>
            <Position>
              <LatitudeDegrees>43.3165871165692806243896484375</LatitudeDegrees>
              <LongitudeDegrees>-2.00450037606060504913330078125</LongitudeDegrees>
            </Position>
            <AltitudeMeters>12.3999996185302734375</AltitudeMeters>
            <DistanceMeters>NAN</DistanceMeters>
          </Trackpoint>
          <Trackpoint>
            <Time>2022-07-09T16:20:21.000Z</Time>
            <Position>
              <LatitudeDegrees>43.316758610308170318603515625</LatitudeDegrees>
              <LongitudeDegrees>-2.0046731270849704742431640625</LongitudeDegrees>
            </Position>
            <AltitudeMeters>12.19999980926513671875</AltitudeMeters>
            <DistanceMeters>NAN</DistanceMeters>
          </Trackpoint>
          <Trackpoint>
            <Time>2022-07-09T16:20:26.000Z</Time>
            <Position>
              <LatitudeDegrees>43.31688609905540943145751953125</LatitudeDegrees>
              <LongitudeDegrees>-2.004809081554412841796875</LongitudeDegrees>
            </Position>
            <AltitudeMeters>12.19999980926513671875</AltitudeMeters>
            <DistanceMeters>NAN</DistanceMeters>
          </Trackpoint>
          <Trackpoint>
            <Time>2022-07-09T16:20:28.000Z</Time>
            <Position>
              <LatitudeDegrees>43.31694024614989757537841796875</LatitudeDegrees>
              <LongitudeDegrees>-2.0048514939844608306884765625</LongitudeDegrees>
            </Position>
            <AltitudeMeters>12</AltitudeMeters>
            <DistanceMeters>NAN</DistanceMeters>
          </Trackpoint>
          <Trackpoint>
            <Time>2022-07-09T16:20:30.000Z</Time>
            <Position>
              <LatitudeDegrees>43.3169876039028167724609375</LatitudeDegrees>
              <LongitudeDegrees>-2.0048950798809528350830078125</LongitudeDegrees>
            </Position>
            <AltitudeMeters>11.80000019073486328125</AltitudeMeters>
            <DistanceMeters>NAN</DistanceMeters>
          </Trackpoint>
          <Trackpoint>
            <Time>2022-07-09T16:20:32.000Z</Time>
            <Position>
              <LatitudeDegrees>43.31700227223336696624755859375</LatitudeDegrees>
              <LongitudeDegrees>-2.0049366541206836700439453125</LongitudeDegrees>
            </Position>
            <AltitudeMeters>11.6000003814697265625</AltitudeMeters>
            <DistanceMeters>NAN</DistanceMeters>
          </Trackpoint>
          <Trackpoint>
            <Time>2022-07-09T16:20:33.000Z</Time>
            <Position>
              <LatitudeDegrees>43.31699992530047893524169921875</LatitudeDegrees>
              <LongitudeDegrees>-2.0049497298896312713623046875</LongitudeDegrees>
            </Position>
            <AltitudeMeters>11.6000003814697265625</AltitudeMeters>
            <DistanceMeters>NAN</DistanceMeters>
          </Trackpoint>
          <Trackpoint>
            <Time>2022-07-09T16:20:35.000Z</Time>
            <Position>
              <LatitudeDegrees>43.31698047928512096405029296875</LatitudeDegrees>
              <LongitudeDegrees>-2.00494914315640926361083984375</LongitudeDegrees>
            </Position>
            <AltitudeMeters>11.6000003814697265625</AltitudeMeters>
            <DistanceMeters>NAN</DistanceMeters>
          </Trackpoint>
          <Trackpoint>
            <Time>2022-07-09T16:20:40.000Z</Time>
            <Position>
              <LatitudeDegrees>43.31687637604773044586181640625</LatitudeDegrees>
              <LongitudeDegrees>-2.0048354007303714752197265625</LongitudeDegrees>
            </Position>
            <AltitudeMeters>11.80000019073486328125</AltitudeMeters>
            <DistanceMeters>NAN</DistanceMeters>
          </Trackpoint>
          <Trackpoint>
            <Time>2022-07-09T16:20:46.000Z</Time>
            <Position>
              <LatitudeDegrees>43.31672449596226215362548828125</LatitudeDegrees>
              <LongitudeDegrees>-2.00468176044523715972900390625</LongitudeDegrees>
            </Position>
            <AltitudeMeters>11.80000019073486328125</AltitudeMeters>
            <DistanceMeters>NAN</DistanceMeters>
          </Trackpoint>
          <Trackpoint>
            <Time>2022-07-09T16:20:49.000Z</Time>
            <Position>
              <LatitudeDegrees>43.3166581951081752777099609375</LatitudeDegrees>
              <LongitudeDegrees>-2.0047297887504100799560546875</LongitudeDegrees>
            </Position>
            <AltitudeMeters>11.80000019073486328125</AltitudeMeters>
            <DistanceMeters>NAN</DistanceMeters>
          </Trackpoint>
          <Trackpoint>
            <Time>2022-07-09T16:20:50.000Z</Time>
            <Position>
              <LatitudeDegrees>43.31664704717695713043212890625</LatitudeDegrees>
              <LongitudeDegrees>-2.00476055033504962921142578125</LongitudeDegrees>
            </Position>
            <AltitudeMeters>11.80000019073486328125</AltitudeMeters>
            <DistanceMeters>NAN</DistanceMeters>
          </Trackpoint>
          <Trackpoint>
            <Time>2022-07-09T16:20:52.000Z</Time>
            <Position>
              <LatitudeDegrees>43.31665056757628917694091796875</LatitudeDegrees>
              <LongitudeDegrees>-2.00482207350432872772216796875</LongitudeDegrees>
            </Position>
            <AltitudeMeters>11.80000019073486328125</AltitudeMeters>
            <DistanceMeters>NAN</DistanceMeters>
          </Trackpoint>
          <Trackpoint>
            <Time>2022-07-09T16:20:55.000Z</Time>
            <Position>
              <LatitudeDegrees>43.316684179008007049560546875</LatitudeDegrees>
              <LongitudeDegrees>-2.0049111731350421905517578125</LongitudeDegrees>
            </Position>
            <AltitudeMeters>11.80000019073486328125</AltitudeMeters>
            <DistanceMeters>NAN</DistanceMeters>
          </Trackpoint>
          <Trackpoint>
            <Time>2022-07-09T16:20:58.000Z</Time>
            <Position>
              <LatitudeDegrees>43.31672365777194499969482421875</LatitudeDegrees>
              <LongitudeDegrees>-2.004998512566089630126953125</LongitudeDegrees>
            </Position>
            <AltitudeMeters>11.80000019073486328125</AltitudeMeters>
            <DistanceMeters>NAN</DistanceMeters>
          </Trackpoint>
          <Trackpoint>
            <Time>2022-07-09T16:21:06.000Z</Time>
            <Position>
              <LatitudeDegrees>43.31680990755558013916015625</LatitudeDegrees>
              <LongitudeDegrees>-2.005341164767742156982421875</LongitudeDegrees>
            </Position>
            <AltitudeMeters>11.6000003814697265625</AltitudeMeters>
            <DistanceMeters>NAN</DistanceMeters>
          </Trackpoint>
          <Trackpoint>
            <Time>2022-07-09T16:21:11.000Z</Time>
            <Position>
              <LatitudeDegrees>43.31678886897861957550048828125</LatitudeDegrees>
              <LongitudeDegrees>-2.0055143348872661590576171875</LongitudeDegrees>
            </Position>
            <AltitudeMeters>11.3999996185302734375</AltitudeMeters>
            <DistanceMeters>NAN</DistanceMeters>
          </Trackpoint>
          <Trackpoint>
            <Time>2022-07-09T16:21:18.000Z</Time>
            <Position>
              <LatitudeDegrees>43.316643945872783660888671875</LatitudeDegrees>
              <LongitudeDegrees>-2.00573922134935855865478515625</LongitudeDegrees>
            </Position>
            <AltitudeMeters>11</AltitudeMeters>
            <DistanceMeters>NAN</DistanceMeters>
          </Trackpoint>
          <Trackpoint>
            <Time>2022-07-09T16:21:23.000Z</Time>
            <Position>
              <LatitudeDegrees>43.3164620585739612579345703125</LatitudeDegrees>
              <LongitudeDegrees>-2.00582689605653285980224609375</LongitudeDegrees>
            </Position>
            <AltitudeMeters>10.80000019073486328125</AltitudeMeters>
            <DistanceMeters>NAN</DistanceMeters>
          </Trackpoint>
          <Trackpoint>
            <Time>2022-07-09T16:21:24.000Z</Time>
            <Position>
              <LatitudeDegrees>43.31642610020935535430908203125</LatitudeDegrees>
              <LongitudeDegrees>-2.00583930127322673797607421875</LongitudeDegrees>
            </Position>
            <AltitudeMeters>10.80000019073486328125</AltitudeMeters>
            <DistanceMeters>NAN</DistanceMeters>
          </Trackpoint>
          <Trackpoint>
            <Time>2022-07-09T16:21:25.000Z</Time>
            <Position>
              <LatitudeDegrees>43.316392488777637481689453125</LatitudeDegrees>
              <LongitudeDegrees>-2.005851455032825469970703125</LongitudeDegrees>
            </Position>
            <AltitudeMeters>10.80000019073486328125</AltitudeMeters>
            <DistanceMeters>NAN</DistanceMeters>
          </Trackpoint>
          <Trackpoint>
            <Time>2022-07-09T16:21:27.000Z</Time>
            <Position>
              <LatitudeDegrees>43.316332139074802398681640625</LatitudeDegrees>
              <LongitudeDegrees>-2.00587484054267406463623046875</LongitudeDegrees>
            </Position>
            <AltitudeMeters>10.80000019073486328125</AltitudeMeters>
            <DistanceMeters>NAN</DistanceMeters>
          </Trackpoint>
          <Trackpoint>
            <Time>2022-07-09T16:21:28.000Z</Time>
            <Position>
              <LatitudeDegrees>43.31630288623273372650146484375</LatitudeDegrees>
              <LongitudeDegrees>-2.00588137842714786529541015625</LongitudeDegrees>
            </Position>
            <AltitudeMeters>10.80000019073486328125</AltitudeMeters>
            <DistanceMeters>NAN</DistanceMeters>
          </Trackpoint>
          <Trackpoint>
            <Time>2022-07-09T16:21:32.000Z</Time>
            <Position>
              <LatitudeDegrees>43.31619341857731342315673828125</LatitudeDegrees>
              <LongitudeDegrees>-2.0058885030448436737060546875</LongitudeDegrees>
            </Position>
            <AltitudeMeters>11</AltitudeMeters>
            <DistanceMeters>NAN</DistanceMeters>
          </Trackpoint>
          <Trackpoint>
            <Time>2022-07-09T16:21:36.000Z</Time>
            <Position>
              <LatitudeDegrees>43.31610842607915401458740234375</LatitudeDegrees>
              <LongitudeDegrees>-2.005940638482570648193359375</LongitudeDegrees>
            </Position>
            <AltitudeMeters>11</AltitudeMeters>
            <DistanceMeters>NAN</DistanceMeters>
          </Trackpoint>
          <Trackpoint>
            <Time>2022-07-09T16:21:39.000Z</Time>
            <Position>
              <LatitudeDegrees>43.31601521931588649749755859375</LatitudeDegrees>
              <LongitudeDegrees>-2.005994617938995361328125</LongitudeDegrees>
            </Position>
            <AltitudeMeters>11.19999980926513671875</AltitudeMeters>
            <DistanceMeters>NAN</DistanceMeters>
          </Trackpoint>
          <Trackpoint>
            <Time>2022-07-09T16:21:42.000Z</Time>
            <Position>
              <LatitudeDegrees>43.3159430511295795440673828125</LatitudeDegrees>
              <LongitudeDegrees>-2.006031163036823272705078125</LongitudeDegrees>
            </Position>
            <AltitudeMeters>11.6000003814697265625</AltitudeMeters>
            <DistanceMeters>NAN</DistanceMeters>
          </Trackpoint>
          <Trackpoint>
            <Time>2022-07-09T16:21:44.000Z</Time>
            <Position>
              <LatitudeDegrees>43.31589351408183574676513671875</LatitudeDegrees>
              <LongitudeDegrees>-2.0060718990862369537353515625</LongitudeDegrees>
            </Position>
            <AltitudeMeters>11.6000003814697265625</AltitudeMeters>
            <DistanceMeters>NAN</DistanceMeters>
          </Trackpoint>
          <Trackpoint>
            <Time>2022-07-09T16:21:47.000Z</Time>
            <Position>
              <LatitudeDegrees>43.3158314041793346405029296875</LatitudeDegrees>
              <LongitudeDegrees>-2.0061245374381542205810546875</LongitudeDegrees>
            </Position>
            <AltitudeMeters>12</AltitudeMeters>
            <DistanceMeters>NAN</DistanceMeters>
          </Trackpoint>
          <Trackpoint>
            <Time>2022-07-09T16:21:50.000Z</Time>
            <Position>
              <LatitudeDegrees>43.315768204629421234130859375</LatitudeDegrees>
              <LongitudeDegrees>-2.00617843307554721832275390625</LongitudeDegrees>
            </Position>
            <AltitudeMeters>12.19999980926513671875</AltitudeMeters>
            <DistanceMeters>NAN</DistanceMeters>
          </Trackpoint>
          <Trackpoint>
            <Time>2022-07-09T16:21:52.000Z</Time>
            <Position>
              <LatitudeDegrees>43.31573375500738620758056640625</LatitudeDegrees>
              <LongitudeDegrees>-2.0062180794775485992431640625</LongitudeDegrees>
            </Position>
            <AltitudeMeters>12.6000003814697265625</AltitudeMeters>
            <DistanceMeters>NAN</DistanceMeters>
          </Trackpoint>
          <Trackpoint>
            <Time>2022-07-09T16:21:55.000Z</Time>
            <Position>
              <LatitudeDegrees>43.31567692570388317108154296875</LatitudeDegrees>
              <LongitudeDegrees>-2.006276585161685943603515625</LongitudeDegrees>
            </Position>
            <AltitudeMeters>12.80000019073486328125</AltitudeMeters>
            <DistanceMeters>NAN</DistanceMeters>
          </Trackpoint>
          <Trackpoint>
            <Time>2022-07-09T16:21:57.000Z</Time>
            <Position>
              <LatitudeDegrees>43.31565412692725658416748046875</LatitudeDegrees>
              <LongitudeDegrees>-2.00629879720509052276611328125</LongitudeDegrees>
            </Position>
            <AltitudeMeters>13</AltitudeMeters>
            <DistanceMeters>NAN</DistanceMeters>
          </Trackpoint>
          <Trackpoint>
            <Time>2022-07-09T16:21:58.000Z</Time>
            <Position>
              <LatitudeDegrees>43.31564851105213165283203125</LatitudeDegrees>
              <LongitudeDegrees>-2.006313465535640716552734375</LongitudeDegrees>
            </Position>
            <AltitudeMeters>13.19999980926513671875</AltitudeMeters>
            <DistanceMeters>NAN</DistanceMeters>
          </Trackpoint>
          <Trackpoint>
            <Time>2022-07-09T16:22:01.000Z</Time>
            <Position>
              <LatitudeDegrees>43.315646164119243621826171875</LatitudeDegrees>
              <LongitudeDegrees>-2.006329558789730072021484375</LongitudeDegrees>
            </Position>
            <AltitudeMeters>13.6000003814697265625</AltitudeMeters>
            <DistanceMeters>NAN</DistanceMeters>
          </Trackpoint>
          <Trackpoint>
            <Time>2022-07-09T16:22:02.000Z</Time>
            <Position>
              <LatitudeDegrees>43.315646164119243621826171875</LatitudeDegrees>
              <LongitudeDegrees>-2.006329558789730072021484375</LongitudeDegrees>
            </Position>
            <AltitudeMeters>13.6000003814697265625</AltitudeMeters>
            <DistanceMeters>NAN</DistanceMeters>
          </Trackpoint>
          <Trackpoint>
            <Time>2022-07-09T16:22:52.000Z</Time>
            <Position>
              <LatitudeDegrees>43.31562445499002933502197265625</LatitudeDegrees>
              <LongitudeDegrees>-2.00637255795300006866455078125</LongitudeDegrees>
            </Position>
            <AltitudeMeters>14.80000019073486328125</AltitudeMeters>
            <DistanceMeters>NAN</DistanceMeters>
          </Trackpoint>
          <Trackpoint>
            <Time>2022-07-09T16:22:55.000Z</Time>
            <Position>
              <LatitudeDegrees>43.3156438171863555908203125</LatitudeDegrees>
              <LongitudeDegrees>-2.00644413940608501434326171875</LongitudeDegrees>
            </Position>
            <AltitudeMeters>15.3999996185302734375</AltitudeMeters>
            <DistanceMeters>NAN</DistanceMeters>
          </Trackpoint>
          <Trackpoint>
            <Time>2022-07-09T16:22:59.000Z</Time>
            <Position>
              <LatitudeDegrees>43.31568061374127864837646484375</LatitudeDegrees>
              <LongitudeDegrees>-2.00650465674698352813720703125</LongitudeDegrees>
            </Position>
            <AltitudeMeters>16</AltitudeMeters>
            <DistanceMeters>NAN</DistanceMeters>
          </Trackpoint>
          <Trackpoint>
            <Time>2022-07-09T16:23:03.000Z</Time>
            <Position>
              <LatitudeDegrees>43.3157160691916942596435546875</LatitudeDegrees>
              <LongitudeDegrees>-2.00656659901142120361328125</LongitudeDegrees>
            </Position>
            <AltitudeMeters>16.6000003814697265625</AltitudeMeters>
            <DistanceMeters>NAN</DistanceMeters>
          </Trackpoint>
          <Trackpoint>
            <Time>2022-07-09T16:23:05.000Z</Time>
            <Position>
              <LatitudeDegrees>43.31573727540671825408935546875</LatitudeDegrees>
              <LongitudeDegrees>-2.0066063292324542999267578125</LongitudeDegrees>
            </Position>
            <AltitudeMeters>17</AltitudeMeters>
            <DistanceMeters>NAN</DistanceMeters>
          </Trackpoint>
          <Trackpoint>
            <Time>2022-07-09T16:23:10.000Z</Time>
            <Position>
              <LatitudeDegrees>43.31578169949352741241455078125</LatitudeDegrees>
              <LongitudeDegrees>-2.00669392012059688568115234375</LongitudeDegrees>
            </Position>
            <AltitudeMeters>17.799999237060546875</AltitudeMeters>
            <DistanceMeters>NAN</DistanceMeters>
          </Trackpoint>
          <Trackpoint>
            <Time>2022-07-09T16:23:13.000Z</Time>
            <Position>
              <LatitudeDegrees>43.31580407917499542236328125</LatitudeDegrees>
              <LongitudeDegrees>-2.00672677718102931976318359375</LongitudeDegrees>
            </Position>
            <AltitudeMeters>18.200000762939453125</AltitudeMeters>
            <DistanceMeters>NAN</DistanceMeters>
          </Trackpoint>
          <Trackpoint>
            <Time>2022-07-09T16:23:14.000Z</Time>
            <Position>
              <LatitudeDegrees>43.315815143287181854248046875</LatitudeDegrees>
              <LongitudeDegrees>-2.0067384280264377593994140625</LongitudeDegrees>
            </Position>
            <AltitudeMeters>18.3999996185302734375</AltitudeMeters>
            <DistanceMeters>NAN</DistanceMeters>
          </Trackpoint>
          <Trackpoint>
            <Time>2022-07-09T16:23:17.000Z</Time>
            <Position>
              <LatitudeDegrees>43.31584422849118709564208984375</LatitudeDegrees>
              <LongitudeDegrees>-2.00676952488720417022705078125</LongitudeDegrees>
            </Position>
            <AltitudeMeters>19</AltitudeMeters>
            <DistanceMeters>NAN</DistanceMeters>
          </Trackpoint>
          <Trackpoint>
            <Time>2022-07-09T16:23:18.000Z</Time>
            <Position>
              <LatitudeDegrees>43.31585311330854892730712890625</LatitudeDegrees>
              <LongitudeDegrees>-2.00678394176065921783447265625</LongitudeDegrees>
            </Position>
            <AltitudeMeters>19.200000762939453125</AltitudeMeters>
            <DistanceMeters>NAN</DistanceMeters>
          </Trackpoint>
          <Trackpoint>
            <Time>2022-07-09T16:23:23.000Z</Time>
            <Position>
              <LatitudeDegrees>43.3158957771956920623779296875</LatitudeDegrees>
              <LongitudeDegrees>-2.00685803778469562530517578125</LongitudeDegrees>
            </Position>
            <AltitudeMeters>20.200000762939453125</AltitudeMeters>
            <DistanceMeters>NAN</DistanceMeters>
          </Trackpoint>
          <Trackpoint>
            <Time>2022-07-09T16:23:26.000Z</Time>
            <Position>
              <LatitudeDegrees>43.31591245718300342559814453125</LatitudeDegrees>
              <LongitudeDegrees>-2.0068998634815216064453125</LongitudeDegrees>
            </Position>
            <AltitudeMeters>21</AltitudeMeters>
            <DistanceMeters>NAN</DistanceMeters>
          </Trackpoint>
          <Trackpoint>
            <Time>2022-07-09T16:23:27.000Z</Time>
            <Position>
              <LatitudeDegrees>43.3159122057259082794189453125</LatitudeDegrees>
              <LongitudeDegrees>-2.00690749101340770721435546875</LongitudeDegrees>
            </Position>
            <AltitudeMeters>21.200000762939453125</AltitudeMeters>
            <DistanceMeters>NAN</DistanceMeters>
          </Trackpoint>
          <Trackpoint>
            <Time>2022-07-09T16:23:29.000Z</Time>
            <Position>
              <LatitudeDegrees>43.3159111998975276947021484375</LatitudeDegrees>
              <LongitudeDegrees>-2.0069211535155773162841796875</LongitudeDegrees>
            </Position>
            <AltitudeMeters>21.3999996185302734375</AltitudeMeters>
            <DistanceMeters>NAN</DistanceMeters>
          </Trackpoint>
          <Trackpoint>
            <Time>2022-07-09T16:23:33.000Z</Time>
            <Position>
              <LatitudeDegrees>43.3159279637038707733154296875</LatitudeDegrees>
              <LongitudeDegrees>-2.00697907246649265289306640625</LongitudeDegrees>
            </Position>
            <AltitudeMeters>22</AltitudeMeters>
            <DistanceMeters>NAN</DistanceMeters>
          </Trackpoint>
          <Trackpoint>
            <Time>2022-07-09T16:23:35.000Z</Time>
            <Position>
              <LatitudeDegrees>43.3159427158534526824951171875</LatitudeDegrees>
              <LongitudeDegrees>-2.00701226480305194854736328125</LongitudeDegrees>
            </Position>
            <AltitudeMeters>22.3999996185302734375</AltitudeMeters>
            <DistanceMeters>NAN</DistanceMeters>
          </Trackpoint>
          <Trackpoint>
            <Time>2022-07-09T16:23:40.000Z</Time>
            <Position>
              <LatitudeDegrees>43.31596895121037960052490234375</LatitudeDegrees>
              <LongitudeDegrees>-2.00709138996899127960205078125</LongitudeDegrees>
            </Position>
            <AltitudeMeters>23.3999996185302734375</AltitudeMeters>
            <DistanceMeters>NAN</DistanceMeters>
          </Trackpoint>
          <Trackpoint>
            <Time>2022-07-09T16:23:41.000Z</Time>
            <Position>
              <LatitudeDegrees>43.31597532145678997039794921875</LatitudeDegrees>
              <LongitudeDegrees>-2.00710932724177837371826171875</LongitudeDegrees>
            </Position>
            <AltitudeMeters>23.6000003814697265625</AltitudeMeters>
            <DistanceMeters>NAN</DistanceMeters>
          </Trackpoint>
          <Trackpoint>
            <Time>2022-07-09T16:23:43.000Z</Time>
            <Position>
              <LatitudeDegrees>43.31598554737865924835205078125</LatitudeDegrees>
              <LongitudeDegrees>-2.00714352540671825408935546875</LongitudeDegrees>
            </Position>
            <AltitudeMeters>23.6000003814697265625</AltitudeMeters>
            <DistanceMeters>NAN</DistanceMeters>
          </Trackpoint>
          <Trackpoint>
            <Time>2022-07-09T16:23:45.000Z</Time>
            <Position>
              <LatitudeDegrees>43.31599610857665538787841796875</LatitudeDegrees>
              <LongitudeDegrees>-2.00717747211456298828125</LongitudeDegrees>
            </Position>
            <AltitudeMeters>24</AltitudeMeters>
            <DistanceMeters>NAN</DistanceMeters>
          </Trackpoint>
          <Trackpoint>
            <Time>2022-07-09T16:23:46.000Z</Time>
            <Position>
              <LatitudeDegrees>43.3160023950040340423583984375</LatitudeDegrees>
              <LongitudeDegrees>-2.0072034560143947601318359375</LongitudeDegrees>
            </Position>
            <AltitudeMeters>24.200000762939453125</AltitudeMeters>
            <DistanceMeters>NAN</DistanceMeters>
          </Trackpoint>
          <Trackpoint>
            <Time>2022-07-09T16:23:47.000Z</Time>
            <Position>
              <LatitudeDegrees>43.3160037361085414886474609375</LatitudeDegrees>
              <LongitudeDegrees>-2.007226087152957916259765625</LongitudeDegrees>
            </Position>
            <AltitudeMeters>24.6000003814697265625</AltitudeMeters>
            <DistanceMeters>NAN</DistanceMeters>
          </Trackpoint>
          <Trackpoint>
            <Time>2022-07-09T16:23:48.000Z</Time>
            <Position>
              <LatitudeDegrees>43.31600717268884181976318359375</LatitudeDegrees>
              <LongitudeDegrees>-2.00724394060671329498291015625</LongitudeDegrees>
            </Position>
            <AltitudeMeters>24.6000003814697265625</AltitudeMeters>
            <DistanceMeters>NAN</DistanceMeters>
          </Trackpoint>
          <Trackpoint>
            <Time>2022-07-09T16:23:49.000Z</Time>
            <Position>
              <LatitudeDegrees>43.31601035781204700469970703125</LatitudeDegrees>
              <LongitudeDegrees>-2.00725969858467578887939453125</LongitudeDegrees>
            </Position>
            <AltitudeMeters>24.799999237060546875</AltitudeMeters>
            <DistanceMeters>NAN</DistanceMeters>
          </Trackpoint>
          <Trackpoint>
            <Time>2022-07-09T16:23:55.000Z</Time>
            <Position>
              <LatitudeDegrees>43.31605729646980762481689453125</LatitudeDegrees>
              <LongitudeDegrees>-2.00735106132924556732177734375</LongitudeDegrees>
            </Position>
            <AltitudeMeters>25.799999237060546875</AltitudeMeters>
            <DistanceMeters>NAN</DistanceMeters>
          </Trackpoint>
          <Trackpoint>
            <Time>2022-07-09T16:23:56.000Z</Time>
            <Position>
              <LatitudeDegrees>43.31606467254459857940673828125</LatitudeDegrees>
              <LongitudeDegrees>-2.00736598111689090728759765625</LongitudeDegrees>
            </Position>
            <AltitudeMeters>26</AltitudeMeters>
            <DistanceMeters>NAN</DistanceMeters>
          </Trackpoint>
          <Trackpoint>
            <Time>2022-07-09T16:24:01.000Z</Time>
            <Position>
              <LatitudeDegrees>43.31610742025077342987060546875</LatitudeDegrees>
              <LongitudeDegrees>-2.0074207149446010589599609375</LongitudeDegrees>
            </Position>
            <AltitudeMeters>26.799999237060546875</AltitudeMeters>
            <DistanceMeters>NAN</DistanceMeters>
          </Trackpoint>
          <Trackpoint>
            <Time>2022-07-09T16:24:02.000Z</Time>
            <Position>
              <LatitudeDegrees>43.3161200769245624542236328125</LatitudeDegrees>
              <LongitudeDegrees>-2.0074354670941829681396484375</LongitudeDegrees>
            </Position>
            <AltitudeMeters>27</AltitudeMeters>
            <DistanceMeters>NAN</DistanceMeters>
          </Trackpoint>
          <Trackpoint>
            <Time>2022-07-09T16:24:04.000Z</Time>
            <Position>
              <LatitudeDegrees>43.31613600254058837890625</LatitudeDegrees>
              <LongitudeDegrees>-2.0074552483856678009033203125</LongitudeDegrees>
            </Position>
            <AltitudeMeters>27.3999996185302734375</AltitudeMeters>
            <DistanceMeters>NAN</DistanceMeters>
          </Trackpoint>
          <Trackpoint>
            <Time>2022-07-09T16:24:07.000Z</Time>
            <Position>
              <LatitudeDegrees>43.3161633275449275970458984375</LatitudeDegrees>
              <LongitudeDegrees>-2.0074911229312419891357421875</LongitudeDegrees>
            </Position>
            <AltitudeMeters>28</AltitudeMeters>
            <DistanceMeters>NAN</DistanceMeters>
          </Trackpoint>
          <Trackpoint>
            <Time>2022-07-09T16:24:09.000Z</Time>
            <Position>
              <LatitudeDegrees>43.31618671305477619171142578125</LatitudeDegrees>
              <LongitudeDegrees>-2.00751132331788539886474609375</LongitudeDegrees>
            </Position>
            <AltitudeMeters>28.3999996185302734375</AltitudeMeters>
            <DistanceMeters>NAN</DistanceMeters>
          </Trackpoint>
          <Trackpoint>
            <Time>2022-07-09T16:24:12.000Z</Time>
            <Position>
              <LatitudeDegrees>43.3162085898220539093017578125</LatitudeDegrees>
              <LongitudeDegrees>-2.007537223398685455322265625</LongitudeDegrees>
            </Position>
            <AltitudeMeters>29.200000762939453125</AltitudeMeters>
            <DistanceMeters>NAN</DistanceMeters>
          </Trackpoint>
          <Trackpoint>
            <Time>2022-07-09T16:24:16.000Z</Time>
            <Position>
              <LatitudeDegrees>43.31622443161904811859130859375</LatitudeDegrees>
              <LongitudeDegrees>-2.00758139602839946746826171875</LongitudeDegrees>
            </Position>
            <AltitudeMeters>29.799999237060546875</AltitudeMeters>
            <DistanceMeters>NAN</DistanceMeters>
          </Trackpoint>
          <Trackpoint>
            <Time>2022-07-09T16:24:17.000Z</Time>
            <Position>
              <LatitudeDegrees>43.31622392870485782623291015625</LatitudeDegrees>
              <LongitudeDegrees>-2.00759815983474254608154296875</LongitudeDegrees>
            </Position>
            <AltitudeMeters>30</AltitudeMeters>
            <DistanceMeters>NAN</DistanceMeters>
          </Trackpoint>
          <Trackpoint>
            <Time>2022-07-09T16:24:19.000Z</Time>
            <Position>
              <LatitudeDegrees>43.31621521152555942535400390625</LatitudeDegrees>
              <LongitudeDegrees>-2.007632441818714141845703125</LongitudeDegrees>
            </Position>
            <AltitudeMeters>30.200000762939453125</AltitudeMeters>
            <DistanceMeters>NAN</DistanceMeters>
          </Trackpoint>
          <Trackpoint>
            <Time>2022-07-09T16:24:26.000Z</Time>
            <Position>
              <LatitudeDegrees>43.31618604250252246856689453125</LatitudeDegrees>
              <LongitudeDegrees>-2.0077519677579402923583984375</LongitudeDegrees>
            </Position>
            <AltitudeMeters>31.200000762939453125</AltitudeMeters>
            <DistanceMeters>NAN</DistanceMeters>
          </Trackpoint>
          <Trackpoint>
            <Time>2022-07-09T16:24:30.000Z</Time>
            <Position>
              <LatitudeDegrees>43.316160142421722412109375</LatitudeDegrees>
              <LongitudeDegrees>-2.00780577957630157470703125</LongitudeDegrees>
            </Position>
            <AltitudeMeters>31.799999237060546875</AltitudeMeters>
            <DistanceMeters>NAN</DistanceMeters>
          </Trackpoint>
          <Trackpoint>
            <Time>2022-07-09T16:24:33.000Z</Time>
            <Position>
              <LatitudeDegrees>43.3161361701786518096923828125</LatitudeDegrees>
              <LongitudeDegrees>-2.00783821754157543182373046875</LongitudeDegrees>
            </Position>
            <AltitudeMeters>32.40000152587890625</AltitudeMeters>
            <DistanceMeters>NAN</DistanceMeters>
          </Trackpoint>
          <Trackpoint>
            <Time>2022-07-09T16:24:34.000Z</Time>
            <Position>
              <LatitudeDegrees>43.31612301059067249298095703125</LatitudeDegrees>
              <LongitudeDegrees>-2.00785137712955474853515625</LongitudeDegrees>
            </Position>
            <AltitudeMeters>32.59999847412109375</AltitudeMeters>
            <DistanceMeters>NAN</DistanceMeters>
          </Trackpoint>
          <Trackpoint>
            <Time>2022-07-09T16:24:40.000Z</Time>
            <Position>
              <LatitudeDegrees>43.3161123655736446380615234375</LatitudeDegrees>
              <LongitudeDegrees>-2.007926143705844879150390625</LongitudeDegrees>
            </Position>
            <AltitudeMeters>33.59999847412109375</AltitudeMeters>
            <DistanceMeters>NAN</DistanceMeters>
          </Trackpoint>
          <Trackpoint>
            <Time>2022-07-09T16:24:41.000Z</Time>
            <Position>
              <LatitudeDegrees>43.3161110244691371917724609375</LatitudeDegrees>
              <LongitudeDegrees>-2.007940895855426788330078125</LongitudeDegrees>
            </Position>
            <AltitudeMeters>33.799999237060546875</AltitudeMeters>
            <DistanceMeters>NAN</DistanceMeters>
          </Trackpoint>
          <Trackpoint>
            <Time>2022-07-09T16:24:43.000Z</Time>
            <Position>
              <LatitudeDegrees>43.316109515726566314697265625</LatitudeDegrees>
              <LongitudeDegrees>-2.00797333382070064544677734375</LongitudeDegrees>
            </Position>
            <AltitudeMeters>34</AltitudeMeters>
            <DistanceMeters>NAN</DistanceMeters>
          </Trackpoint>
          <Trackpoint>
            <Time>2022-07-09T16:24:46.000Z</Time>
            <Position>
              <LatitudeDegrees>43.31611027009785175323486328125</LatitudeDegrees>
              <LongitudeDegrees>-2.00798682868480682373046875</LongitudeDegrees>
            </Position>
            <AltitudeMeters>34.40000152587890625</AltitudeMeters>
            <DistanceMeters>NAN</DistanceMeters>
          </Trackpoint>
          <Trackpoint>
            <Time>2022-07-09T16:24:47.000Z</Time>
            <Position>
              <LatitudeDegrees>43.31611412577331066131591796875</LatitudeDegrees>
              <LongitudeDegrees>-2.0080022513866424560546875</LongitudeDegrees>
            </Position>
            <AltitudeMeters>34.59999847412109375</AltitudeMeters>
            <DistanceMeters>NAN</DistanceMeters>
          </Trackpoint>
          <Trackpoint>
            <Time>2022-07-09T16:24:48.000Z</Time>
            <Position>
              <LatitudeDegrees>43.31611630506813526153564453125</LatitudeDegrees>
              <LongitudeDegrees>-2.0080114714801311492919921875</LongitudeDegrees>
            </Position>
            <AltitudeMeters>34.59999847412109375</AltitudeMeters>
            <DistanceMeters>NAN</DistanceMeters>
          </Trackpoint>
          <Trackpoint>
            <Time>2022-07-09T16:24:50.000Z</Time>
            <Position>
              <LatitudeDegrees>43.31612166948616504669189453125</LatitudeDegrees>
              <LongitudeDegrees>-2.008017003536224365234375</LongitudeDegrees>
            </Position>
            <AltitudeMeters>34.799999237060546875</AltitudeMeters>
            <DistanceMeters>NAN</DistanceMeters>
          </Trackpoint>
          <Trackpoint>
            <Time>2022-07-09T16:24:58.000Z</Time>
            <Position>
              <LatitudeDegrees>43.31618486903607845306396484375</LatitudeDegrees>
              <LongitudeDegrees>-2.00804960913956165313720703125</LongitudeDegrees>
            </Position>
            <AltitudeMeters>35.799999237060546875</AltitudeMeters>
            <DistanceMeters>NAN</DistanceMeters>
          </Trackpoint>
          <Trackpoint>
            <Time>2022-07-09T16:24:59.000Z</Time>
            <Position>
              <LatitudeDegrees>43.3162045665085315704345703125</LatitudeDegrees>
              <LongitudeDegrees>-2.00807844288647174835205078125</LongitudeDegrees>
            </Position>
            <AltitudeMeters>36</AltitudeMeters>
            <DistanceMeters>NAN</DistanceMeters>
          </Trackpoint>
          <Trackpoint>
            <Time>2022-07-09T16:25:00.000Z</Time>
            <Position>
              <LatitudeDegrees>43.31623935140669345855712890625</LatitudeDegrees>
              <LongitudeDegrees>-2.0081110484898090362548828125</LongitudeDegrees>
            </Position>
            <AltitudeMeters>36</AltitudeMeters>
            <DistanceMeters>NAN</DistanceMeters>
          </Trackpoint>
          <Trackpoint>
            <Time>2022-07-09T16:25:03.000Z</Time>
            <Position>
              <LatitudeDegrees>43.316293917596340179443359375</LatitudeDegrees>
              <LongitudeDegrees>-2.00809277594089508056640625</LongitudeDegrees>
            </Position>
            <AltitudeMeters>36.40000152587890625</AltitudeMeters>
            <DistanceMeters>NAN</DistanceMeters>
          </Trackpoint>
          <Trackpoint>
            <Time>2022-07-09T16:25:04.000Z</Time>
            <Position>
              <LatitudeDegrees>43.31629500724375247955322265625</LatitudeDegrees>
              <LongitudeDegrees>-2.00808112509548664093017578125</LongitudeDegrees>
            </Position>
            <AltitudeMeters>36.40000152587890625</AltitudeMeters>
            <DistanceMeters>NAN</DistanceMeters>
          </Trackpoint>
          <Trackpoint>
            <Time>2022-07-09T16:25:05.000Z</Time>
            <Position>
              <LatitudeDegrees>43.31628687679767608642578125</LatitudeDegrees>
              <LongitudeDegrees>-2.0080701448023319244384765625</LongitudeDegrees>
            </Position>
            <AltitudeMeters>36.59999847412109375</AltitudeMeters>
            <DistanceMeters>NAN</DistanceMeters>
          </Trackpoint>
          <Trackpoint>
            <Time>2022-07-09T16:25:07.000Z</Time>
            <Position>
              <LatitudeDegrees>43.31630020402371883392333984375</LatitudeDegrees>
              <LongitudeDegrees>-2.00806486420333385467529296875</LongitudeDegrees>
            </Position>
            <AltitudeMeters>36.799999237060546875</AltitudeMeters>
            <DistanceMeters>NAN</DistanceMeters>
          </Trackpoint>
          <Trackpoint>
            <Time>2022-07-09T16:25:08.000Z</Time>
            <Position>
              <LatitudeDegrees>43.316307999193668365478515625</LatitudeDegrees>
              <LongitudeDegrees>-2.00806804932653903961181640625</LongitudeDegrees>
            </Position>
            <AltitudeMeters>37</AltitudeMeters>
            <DistanceMeters>NAN</DistanceMeters>
          </Trackpoint>
          <Trackpoint>
            <Time>2022-07-09T16:25:11.000Z</Time>
            <Position>
              <LatitudeDegrees>43.316331468522548675537109375</LatitudeDegrees>
              <LongitudeDegrees>-2.00804047286510467529296875</LongitudeDegrees>
            </Position>
            <AltitudeMeters>37.200000762939453125</AltitudeMeters>
            <DistanceMeters>NAN</DistanceMeters>
          </Trackpoint>
          <Trackpoint>
            <Time>2022-07-09T16:25:13.000Z</Time>
            <Position>
              <LatitudeDegrees>43.316336832940578460693359375</LatitudeDegrees>
              <LongitudeDegrees>-2.0079947076737880706787109375</LongitudeDegrees>
            </Position>
            <AltitudeMeters>37.200000762939453125</AltitudeMeters>
            <DistanceMeters>NAN</DistanceMeters>
          </Trackpoint>
          <Trackpoint>
            <Time>2022-07-09T16:25:17.000Z</Time>
            <Position>
              <LatitudeDegrees>43.3163406886160373687744140625</LatitudeDegrees>
              <LongitudeDegrees>-2.0079216174781322479248046875</LongitudeDegrees>
            </Position>
            <AltitudeMeters>37.59999847412109375</AltitudeMeters>
            <DistanceMeters>NAN</DistanceMeters>
          </Trackpoint>
          <Trackpoint>
            <Time>2022-07-09T16:25:20.000Z</Time>
            <Position>
              <LatitudeDegrees>43.31636273302137851715087890625</LatitudeDegrees>
              <LongitudeDegrees>-2.00788616202771663665771484375</LongitudeDegrees>
            </Position>
            <AltitudeMeters>38</AltitudeMeters>
            <DistanceMeters>NAN</DistanceMeters>
          </Trackpoint>
          <Trackpoint>
            <Time>2022-07-09T16:25:24.000Z</Time>
            <Position>
              <LatitudeDegrees>43.31639550626277923583984375</LatitudeDegrees>
              <LongitudeDegrees>-2.00787543319165706634521484375</LongitudeDegrees>
            </Position>
            <AltitudeMeters>38.40000152587890625</AltitudeMeters>
            <DistanceMeters>NAN</DistanceMeters>
          </Trackpoint>
          <Trackpoint>
            <Time>2022-07-09T16:25:32.000Z</Time>
            <Position>
              <LatitudeDegrees>43.316472284495830535888671875</LatitudeDegrees>
              <LongitudeDegrees>-2.00788398273289203643798828125</LongitudeDegrees>
            </Position>
            <AltitudeMeters>38.799999237060546875</AltitudeMeters>
            <DistanceMeters>NAN</DistanceMeters>
          </Trackpoint>
          <Trackpoint>
            <Time>2022-07-09T16:25:33.000Z</Time>
            <Position>
              <LatitudeDegrees>43.3164761401712894439697265625</LatitudeDegrees>
              <LongitudeDegrees>-2.00789253227412700653076171875</LongitudeDegrees>
            </Position>
            <AltitudeMeters>39</AltitudeMeters>
            <DistanceMeters>NAN</DistanceMeters>
          </Trackpoint>
          <Trackpoint>
            <Time>2022-07-09T16:25:40.000Z</Time>
            <Position>
              <LatitudeDegrees>43.3164744637906551361083984375</LatitudeDegrees>
              <LongitudeDegrees>-2.00794600881636142730712890625</LongitudeDegrees>
            </Position>
            <AltitudeMeters>39.59999847412109375</AltitudeMeters>
            <DistanceMeters>NAN</DistanceMeters>
          </Trackpoint>
          <Trackpoint>
            <Time>2022-07-09T16:25:41.000Z</Time>
            <Position>
              <LatitudeDegrees>43.31645979546010494232177734375</LatitudeDegrees>
              <LongitudeDegrees>-2.00794659554958343505859375</LongitudeDegrees>
            </Position>
            <AltitudeMeters>39.59999847412109375</AltitudeMeters>
            <DistanceMeters>NAN</DistanceMeters>
          </Trackpoint>
          <Trackpoint>
            <Time>2022-07-09T16:25:44.000Z</Time>
            <Position>
              <LatitudeDegrees>43.31642760895192623138427734375</LatitudeDegrees>
              <LongitudeDegrees>-2.00797484256327152252197265625</LongitudeDegrees>
            </Position>
            <AltitudeMeters>39.799999237060546875</AltitudeMeters>
            <DistanceMeters>NAN</DistanceMeters>
          </Trackpoint>
          <Trackpoint>
            <Time>2022-07-09T16:25:45.000Z</Time>
            <Position>
              <LatitudeDegrees>43.31641838885843753814697265625</LatitudeDegrees>
              <LongitudeDegrees>-2.00798146426677703857421875</LongitudeDegrees>
            </Position>
            <AltitudeMeters>40</AltitudeMeters>
            <DistanceMeters>NAN</DistanceMeters>
          </Trackpoint>
          <Trackpoint>
            <Time>2022-07-09T16:25:48.000Z</Time>
            <Position>
              <LatitudeDegrees>43.3163929916918277740478515625</LatitudeDegrees>
              <LongitudeDegrees>-2.007989846169948577880859375</LongitudeDegrees>
            </Position>
            <AltitudeMeters>40.40000152587890625</AltitudeMeters>
            <DistanceMeters>NAN</DistanceMeters>
          </Trackpoint>
          <Trackpoint>
            <Time>2022-07-09T16:25:50.000Z</Time>
            <Position>
              <LatitudeDegrees>43.31637731753289699554443359375</LatitudeDegrees>
              <LongitudeDegrees>-2.00795975513756275177001953125</LongitudeDegrees>
            </Position>
            <AltitudeMeters>40.59999847412109375</AltitudeMeters>
            <DistanceMeters>NAN</DistanceMeters>
          </Trackpoint>
          <Trackpoint>
            <Time>2022-07-09T16:25:52.000Z</Time>
            <Position>
              <LatitudeDegrees>43.31633775494992733001708984375</LatitudeDegrees>
              <LongitudeDegrees>-2.0079179294407367706298828125</LongitudeDegrees>
            </Position>
            <AltitudeMeters>40.799999237060546875</AltitudeMeters>
            <DistanceMeters>NAN</DistanceMeters>
          </Trackpoint>
          <Trackpoint>
            <Time>2022-07-09T16:25:53.000Z</Time>
            <Position>
              <LatitudeDegrees>43.31632032059133052825927734375</LatitudeDegrees>
              <LongitudeDegrees>-2.00790292583405971527099609375</LongitudeDegrees>
            </Position>
            <AltitudeMeters>41</AltitudeMeters>
            <DistanceMeters>NAN</DistanceMeters>
          </Trackpoint>
          <Trackpoint>
            <Time>2022-07-09T16:25:54.000Z</Time>
            <Position>
              <LatitudeDegrees>43.31630992703139781951904296875</LatitudeDegrees>
              <LongitudeDegrees>-2.00789873488247394561767578125</LongitudeDegrees>
            </Position>
            <AltitudeMeters>41</AltitudeMeters>
            <DistanceMeters>NAN</DistanceMeters>
          </Trackpoint>
          <Trackpoint>
            <Time>2022-07-09T16:25:55.000Z</Time>
            <Position>
              <LatitudeDegrees>43.31629534251987934112548828125</LatitudeDegrees>
              <LongitudeDegrees>-2.00790242291986942291259765625</LongitudeDegrees>
            </Position>
            <AltitudeMeters>41.200000762939453125</AltitudeMeters>
            <DistanceMeters>NAN</DistanceMeters>
          </Trackpoint>
          <Trackpoint>
            <Time>2022-07-09T16:26:02.000Z</Time>
            <Position>
              <LatitudeDegrees>43.3161901496350765228271484375</LatitudeDegrees>
              <LongitudeDegrees>-2.0079635269939899444580078125</LongitudeDegrees>
            </Position>
            <AltitudeMeters>42.200000762939453125</AltitudeMeters>
            <DistanceMeters>NAN</DistanceMeters>
          </Trackpoint>
          <Trackpoint>
            <Time>2022-07-09T16:26:03.000Z</Time>
            <Position>
              <LatitudeDegrees>43.31617229618132114410400390625</LatitudeDegrees>
              <LongitudeDegrees>-2.00796863995492458343505859375</LongitudeDegrees>
            </Position>
            <AltitudeMeters>42.200000762939453125</AltitudeMeters>
            <DistanceMeters>NAN</DistanceMeters>
          </Trackpoint>
          <Trackpoint>
            <Time>2022-07-09T16:26:07.000Z</Time>
            <Position>
              <LatitudeDegrees>43.31614279188215732574462890625</LatitudeDegrees>
              <LongitudeDegrees>-2.00798959471285343170166015625</LongitudeDegrees>
            </Position>
            <AltitudeMeters>42.59999847412109375</AltitudeMeters>
            <DistanceMeters>NAN</DistanceMeters>
          </Trackpoint>
          <Trackpoint>
            <Time>2022-07-09T16:26:08.000Z</Time>
            <Position>
              <LatitudeDegrees>43.3161411993205547332763671875</LatitudeDegrees>
              <LongitudeDegrees>-2.00801071710884571075439453125</LongitudeDegrees>
            </Position>
            <AltitudeMeters>42.799999237060546875</AltitudeMeters>
            <DistanceMeters>NAN</DistanceMeters>
          </Trackpoint>
          <Trackpoint>
            <Time>2022-07-09T16:26:09.000Z</Time>
            <Position>
              <LatitudeDegrees>43.31613642163574695587158203125</LatitudeDegrees>
              <LongitudeDegrees>-2.008016668260097503662109375</LongitudeDegrees>
            </Position>
            <AltitudeMeters>43</AltitudeMeters>
            <DistanceMeters>NAN</DistanceMeters>
          </Trackpoint>
          <Trackpoint>
            <Time>2022-07-09T16:26:11.000Z</Time>
            <Position>
              <LatitudeDegrees>43.31611161120235919952392578125</LatitudeDegrees>
              <LongitudeDegrees>-2.0080191828310489654541015625</LongitudeDegrees>
            </Position>
            <AltitudeMeters>43.200000762939453125</AltitudeMeters>
            <DistanceMeters>NAN</DistanceMeters>
          </Trackpoint>
          <Trackpoint>
            <Time>2022-07-09T16:26:12.000Z</Time>
            <Position>
              <LatitudeDegrees>43.31609618850052356719970703125</LatitudeDegrees>
              <LongitudeDegrees>-2.0080183446407318115234375</LongitudeDegrees>
            </Position>
            <AltitudeMeters>43.40000152587890625</AltitudeMeters>
            <DistanceMeters>NAN</DistanceMeters>
          </Trackpoint>
          <Trackpoint>
            <Time>2022-07-09T16:26:13.000Z</Time>
            <Position>
              <LatitudeDegrees>43.31608579494059085845947265625</LatitudeDegrees>
              <LongitudeDegrees>-2.00801859609782695770263671875</LongitudeDegrees>
            </Position>
            <AltitudeMeters>43.40000152587890625</AltitudeMeters>
            <DistanceMeters>NAN</DistanceMeters>
          </Trackpoint>
          <Trackpoint>
            <Time>2022-07-09T16:26:20.000Z</Time>
            <Position>
              <LatitudeDegrees>43.31601454876363277435302734375</LatitudeDegrees>
              <LongitudeDegrees>-2.00812839902937412261962890625</LongitudeDegrees>
            </Position>
            <AltitudeMeters>44</AltitudeMeters>
            <DistanceMeters>NAN</DistanceMeters>
          </Trackpoint>
          <Trackpoint>
            <Time>2022-07-09T16:26:21.000Z</Time>
            <Position>
              <LatitudeDegrees>43.31601538695394992828369140625</LatitudeDegrees>
              <LongitudeDegrees>-2.008135356009006500244140625</LongitudeDegrees>
            </Position>
            <AltitudeMeters>44</AltitudeMeters>
            <DistanceMeters>NAN</DistanceMeters>
          </Trackpoint>
          <Trackpoint>
            <Time>2022-07-09T16:26:24.000Z</Time>
            <Position>
              <LatitudeDegrees>43.31599895842373371124267578125</LatitudeDegrees>
              <LongitudeDegrees>-2.00810710899531841278076171875</LongitudeDegrees>
            </Position>
            <AltitudeMeters>44.200000762939453125</AltitudeMeters>
            <DistanceMeters>NAN</DistanceMeters>
          </Trackpoint>
          <Trackpoint>
            <Time>2022-07-09T16:26:30.000Z</Time>
            <Position>
              <LatitudeDegrees>43.315937519073486328125</LatitudeDegrees>
              <LongitudeDegrees>-2.008086405694484710693359375</LongitudeDegrees>
            </Position>
            <AltitudeMeters>45</AltitudeMeters>
            <DistanceMeters>NAN</DistanceMeters>
          </Trackpoint>
          <Trackpoint>
            <Time>2022-07-09T16:26:32.000Z</Time>
            <Position>
              <LatitudeDegrees>43.31592720933258533477783203125</LatitudeDegrees>
              <LongitudeDegrees>-2.00806234963238239288330078125</LongitudeDegrees>
            </Position>
            <AltitudeMeters>45.200000762939453125</AltitudeMeters>
            <DistanceMeters>NAN</DistanceMeters>
          </Trackpoint>
          <Trackpoint>
            <Time>2022-07-09T16:26:34.000Z</Time>
            <Position>
              <LatitudeDegrees>43.3159227669239044189453125</LatitudeDegrees>
              <LongitudeDegrees>-2.00803334824740886688232421875</LongitudeDegrees>
            </Position>
            <AltitudeMeters>45.59999847412109375</AltitudeMeters>
            <DistanceMeters>NAN</DistanceMeters>
          </Trackpoint>
          <Trackpoint>
            <Time>2022-07-09T16:26:38.000Z</Time>
            <Position>
              <LatitudeDegrees>43.31591078080236911773681640625</LatitudeDegrees>
              <LongitudeDegrees>-2.00799596495926380157470703125</LongitudeDegrees>
            </Position>
            <AltitudeMeters>46.200000762939453125</AltitudeMeters>
            <DistanceMeters>NAN</DistanceMeters>
          </Trackpoint>
          <Trackpoint>
            <Time>2022-07-09T16:26:44.000Z</Time>
            <Position>
              <LatitudeDegrees>43.3158189989626407623291015625</LatitudeDegrees>
              <LongitudeDegrees>-2.0079792849719524383544921875</LongitudeDegrees>
            </Position>
            <AltitudeMeters>47.40000152587890625</AltitudeMeters>
            <DistanceMeters>NAN</DistanceMeters>
          </Trackpoint>
          <Trackpoint>
            <Time>2022-07-09T16:26:46.000Z</Time>
            <Position>
              <LatitudeDegrees>43.31581338308751583099365234375</LatitudeDegrees>
              <LongitudeDegrees>-2.00795195996761322021484375</LongitudeDegrees>
            </Position>
            <AltitudeMeters>47.59999847412109375</AltitudeMeters>
            <DistanceMeters>NAN</DistanceMeters>
          </Trackpoint>
          <Trackpoint>
            <Time>2022-07-09T16:26:51.000Z</Time>
            <Position>
              <LatitudeDegrees>43.31576510332524776458740234375</LatitudeDegrees>
              <LongitudeDegrees>-2.00789286755025386810302734375</LongitudeDegrees>
            </Position>
            <AltitudeMeters>48.40000152587890625</AltitudeMeters>
            <DistanceMeters>NAN</DistanceMeters>
          </Trackpoint>
          <Trackpoint>
            <Time>2022-07-09T16:26:53.000Z</Time>
            <Position>
              <LatitudeDegrees>43.315747082233428955078125</LatitudeDegrees>
              <LongitudeDegrees>-2.00785799883306026458740234375</LongitudeDegrees>
            </Position>
            <AltitudeMeters>48.799999237060546875</AltitudeMeters>
            <DistanceMeters>NAN</DistanceMeters>
          </Trackpoint>
          <Trackpoint>
            <Time>2022-07-09T16:26:54.000Z</Time>
            <Position>
              <LatitudeDegrees>43.31573626957833766937255859375</LatitudeDegrees>
              <LongitudeDegrees>-2.0078475214540958404541015625</LongitudeDegrees>
            </Position>
            <AltitudeMeters>48.799999237060546875</AltitudeMeters>
            <DistanceMeters>NAN</DistanceMeters>
          </Trackpoint>
          <Trackpoint>
            <Time>2022-07-09T16:26:59.000Z</Time>
            <Position>
              <LatitudeDegrees>43.31567608751356601715087890625</LatitudeDegrees>
              <LongitudeDegrees>-2.00779773294925689697265625</LongitudeDegrees>
            </Position>
            <AltitudeMeters>49.59999847412109375</AltitudeMeters>
            <DistanceMeters>NAN</DistanceMeters>
          </Trackpoint>
          <Trackpoint>
            <Time>2022-07-09T16:27:01.000Z</Time>
            <Position>
              <LatitudeDegrees>43.315648175776004791259765625</LatitudeDegrees>
              <LongitudeDegrees>-2.0077925361692905426025390625</LongitudeDegrees>
            </Position>
            <AltitudeMeters>50</AltitudeMeters>
            <DistanceMeters>NAN</DistanceMeters>
          </Trackpoint>
          <Trackpoint>
            <Time>2022-07-09T16:27:04.000Z</Time>
            <Position>
              <LatitudeDegrees>43.31560048274695873260498046875</LatitudeDegrees>
              <LongitudeDegrees>-2.00778926722705364227294921875</LongitudeDegrees>
            </Position>
            <AltitudeMeters>50.799999237060546875</AltitudeMeters>
            <DistanceMeters>NAN</DistanceMeters>
          </Trackpoint>
          <Trackpoint>
            <Time>2022-07-09T16:27:08.000Z</Time>
            <Position>
              <LatitudeDegrees>43.31554080359637737274169921875</LatitudeDegrees>
              <LongitudeDegrees>-2.00777619145810604095458984375</LongitudeDegrees>
            </Position>
            <AltitudeMeters>51.40000152587890625</AltitudeMeters>
            <DistanceMeters>NAN</DistanceMeters>
          </Trackpoint>
          <Trackpoint>
            <Time>2022-07-09T16:27:09.000Z</Time>
            <Position>
              <LatitudeDegrees>43.31552722491323947906494140625</LatitudeDegrees>
              <LongitudeDegrees>-2.00777434743940830230712890625</LongitudeDegrees>
            </Position>
            <AltitudeMeters>51.59999847412109375</AltitudeMeters>
            <DistanceMeters>NAN</DistanceMeters>
          </Trackpoint>
          <Trackpoint>
            <Time>2022-07-09T16:27:10.000Z</Time>
            <Position>
              <LatitudeDegrees>43.31551783718168735504150390625</LatitudeDegrees>
              <LongitudeDegrees>-2.00777786783874034881591796875</LongitudeDegrees>
            </Position>
            <AltitudeMeters>51.799999237060546875</AltitudeMeters>
            <DistanceMeters>NAN</DistanceMeters>
          </Trackpoint>
          <Trackpoint>
            <Time>2022-07-09T16:27:11.000Z</Time>
            <Position>
              <LatitudeDegrees>43.31550912000238895416259765625</LatitudeDegrees>
              <LongitudeDegrees>-2.007787339389324188232421875</LongitudeDegrees>
            </Position>
            <AltitudeMeters>52</AltitudeMeters>
            <DistanceMeters>NAN</DistanceMeters>
          </Trackpoint>
          <Trackpoint>
            <Time>2022-07-09T16:27:13.000Z</Time>
            <Position>
              <LatitudeDegrees>43.31548464484512805938720703125</LatitudeDegrees>
              <LongitudeDegrees>-2.007792703807353973388671875</LongitudeDegrees>
            </Position>
            <AltitudeMeters>52.40000152587890625</AltitudeMeters>
            <DistanceMeters>NAN</DistanceMeters>
          </Trackpoint>
          <Trackpoint>
            <Time>2022-07-09T16:27:15.000Z</Time>
            <Position>
              <LatitudeDegrees>43.3154612593352794647216796875</LatitudeDegrees>
              <LongitudeDegrees>-2.007788680493831634521484375</LongitudeDegrees>
            </Position>
            <AltitudeMeters>52.59999847412109375</AltitudeMeters>
            <DistanceMeters>NAN</DistanceMeters>
          </Trackpoint>
          <Trackpoint>
            <Time>2022-07-09T16:27:20.000Z</Time>
            <Position>
              <LatitudeDegrees>43.3153834752738475799560546875</LatitudeDegrees>
              <LongitudeDegrees>-2.0077734254300594329833984375</LongitudeDegrees>
            </Position>
            <AltitudeMeters>53.200000762939453125</AltitudeMeters>
            <DistanceMeters>NAN</DistanceMeters>
          </Trackpoint>
          <Trackpoint>
            <Time>2022-07-09T16:27:27.000Z</Time>
            <Position>
              <LatitudeDegrees>43.31527157686650753021240234375</LatitudeDegrees>
              <LongitudeDegrees>-2.00777300633490085601806640625</LongitudeDegrees>
            </Position>
            <AltitudeMeters>53.799999237060546875</AltitudeMeters>
            <DistanceMeters>NAN</DistanceMeters>
          </Trackpoint>
          <Trackpoint>
            <Time>2022-07-09T16:27:29.000Z</Time>
            <Position>
              <LatitudeDegrees>43.3152441680431365966796875</LatitudeDegrees>
              <LongitudeDegrees>-2.007801420986652374267578125</LongitudeDegrees>
            </Position>
            <AltitudeMeters>54.200000762939453125</AltitudeMeters>
            <DistanceMeters>NAN</DistanceMeters>
          </Trackpoint>
          <Trackpoint>
            <Time>2022-07-09T16:27:31.000Z</Time>
            <Position>
              <LatitudeDegrees>43.315217681229114532470703125</LatitudeDegrees>
              <LongitudeDegrees>-2.0078310929238796234130859375</LongitudeDegrees>
            </Position>
            <AltitudeMeters>54.40000152587890625</AltitudeMeters>
            <DistanceMeters>NAN</DistanceMeters>
          </Trackpoint>
          <Trackpoint>
            <Time>2022-07-09T16:27:34.000Z</Time>
            <Position>
              <LatitudeDegrees>43.31518926657736301422119140625</LatitudeDegrees>
              <LongitudeDegrees>-2.00786721892654895782470703125</LongitudeDegrees>
            </Position>
            <AltitudeMeters>54.799999237060546875</AltitudeMeters>
            <DistanceMeters>NAN</DistanceMeters>
          </Trackpoint>
          <Trackpoint>
            <Time>2022-07-09T16:27:37.000Z</Time>
            <Position>
              <LatitudeDegrees>43.315160684287548065185546875</LatitudeDegrees>
              <LongitudeDegrees>-2.00794416479766368865966796875</LongitudeDegrees>
            </Position>
            <AltitudeMeters>55.40000152587890625</AltitudeMeters>
            <DistanceMeters>NAN</DistanceMeters>
          </Trackpoint>
          <Trackpoint>
            <Time>2022-07-09T16:27:40.000Z</Time>
            <Position>
              <LatitudeDegrees>43.31513042561709880828857421875</LatitudeDegrees>
              <LongitudeDegrees>-2.00798951089382171630859375</LongitudeDegrees>
            </Position>
            <AltitudeMeters>55.799999237060546875</AltitudeMeters>
            <DistanceMeters>NAN</DistanceMeters>
          </Trackpoint>
          <Trackpoint>
            <Time>2022-07-09T16:27:47.000Z</Time>
            <Position>
              <LatitudeDegrees>43.31505767069756984710693359375</LatitudeDegrees>
              <LongitudeDegrees>-2.00809369795024394989013671875</LongitudeDegrees>
            </Position>
            <AltitudeMeters>56.59999847412109375</AltitudeMeters>
            <DistanceMeters>NAN</DistanceMeters>
          </Trackpoint>
          <Trackpoint>
            <Time>2022-07-09T16:27:50.000Z</Time>
            <Position>
              <LatitudeDegrees>43.3150083012878894805908203125</LatitudeDegrees>
              <LongitudeDegrees>-2.00813275761902332305908203125</LongitudeDegrees>
            </Position>
            <AltitudeMeters>56.799999237060546875</AltitudeMeters>
            <DistanceMeters>NAN</DistanceMeters>
          </Trackpoint>
          <Trackpoint>
            <Time>2022-07-09T16:27:53.000Z</Time>
            <Position>
              <LatitudeDegrees>43.31496915780007839202880859375</LatitudeDegrees>
              <LongitudeDegrees>-2.008174248039722442626953125</LongitudeDegrees>
            </Position>
            <AltitudeMeters>57.200000762939453125</AltitudeMeters>
            <DistanceMeters>NAN</DistanceMeters>
          </Trackpoint>
          <Trackpoint>
            <Time>2022-07-09T16:27:56.000Z</Time>
            <Position>
              <LatitudeDegrees>43.31495172344148159027099609375</LatitudeDegrees>
              <LongitudeDegrees>-2.0082221925258636474609375</LongitudeDegrees>
            </Position>
            <AltitudeMeters>57.59999847412109375</AltitudeMeters>
            <DistanceMeters>NAN</DistanceMeters>
          </Trackpoint>
          <Trackpoint>
            <Time>2022-07-09T16:27:57.000Z</Time>
            <Position>
              <LatitudeDegrees>43.3149479515850543975830078125</LatitudeDegrees>
              <LongitudeDegrees>-2.008241973817348480224609375</LongitudeDegrees>
            </Position>
            <AltitudeMeters>57.799999237060546875</AltitudeMeters>
            <DistanceMeters>NAN</DistanceMeters>
          </Trackpoint>
          <Trackpoint>
            <Time>2022-07-09T16:28:02.000Z</Time>
            <Position>
              <LatitudeDegrees>43.31494049169123172760009765625</LatitudeDegrees>
              <LongitudeDegrees>-2.00834196992218494415283203125</LongitudeDegrees>
            </Position>
            <AltitudeMeters>58.59999847412109375</AltitudeMeters>
            <DistanceMeters>NAN</DistanceMeters>
          </Trackpoint>
          <Trackpoint>
            <Time>2022-07-09T16:28:04.000Z</Time>
            <Position>
              <LatitudeDegrees>43.31492573954164981842041015625</LatitudeDegrees>
              <LongitudeDegrees>-2.00837080366909503936767578125</LongitudeDegrees>
            </Position>
            <AltitudeMeters>58.799999237060546875</AltitudeMeters>
            <DistanceMeters>NAN</DistanceMeters>
          </Trackpoint>
          <Trackpoint>
            <Time>2022-07-09T16:28:09.000Z</Time>
            <Position>
              <LatitudeDegrees>43.31491760909557342529296875</LatitudeDegrees>
              <LongitudeDegrees>-2.00848328880965709686279296875</LongitudeDegrees>
            </Position>
            <AltitudeMeters>59.40000152587890625</AltitudeMeters>
            <DistanceMeters>NAN</DistanceMeters>
          </Trackpoint>
          <Trackpoint>
            <Time>2022-07-09T16:28:12.000Z</Time>
            <Position>
              <LatitudeDegrees>43.3149325288832187652587890625</LatitudeDegrees>
              <LongitudeDegrees>-2.0085542835295200347900390625</LongitudeDegrees>
            </Position>
            <AltitudeMeters>60</AltitudeMeters>
            <DistanceMeters>NAN</DistanceMeters>
          </Trackpoint>
          <Trackpoint>
            <Time>2022-07-09T16:28:16.000Z</Time>
            <Position>
              <LatitudeDegrees>43.314972929656505584716796875</LatitudeDegrees>
              <LongitudeDegrees>-2.0086216740310192108154296875</LongitudeDegrees>
            </Position>
            <AltitudeMeters>60.59999847412109375</AltitudeMeters>
            <DistanceMeters>NAN</DistanceMeters>
          </Trackpoint>
          <Trackpoint>
            <Time>2022-07-09T16:28:17.000Z</Time>
            <Position>
              <LatitudeDegrees>43.3149851672351360321044921875</LatitudeDegrees>
              <LongitudeDegrees>-2.00862578116357326507568359375</LongitudeDegrees>
            </Position>
            <AltitudeMeters>60.799999237060546875</AltitudeMeters>
            <DistanceMeters>NAN</DistanceMeters>
          </Trackpoint>
          <Trackpoint>
            <Time>2022-07-09T16:28:19.000Z</Time>
            <Position>
              <LatitudeDegrees>43.3150163479149341583251953125</LatitudeDegrees>
              <LongitudeDegrees>-2.00862293131649494171142578125</LongitudeDegrees>
            </Position>
            <AltitudeMeters>61.200000762939453125</AltitudeMeters>
            <DistanceMeters>NAN</DistanceMeters>
          </Trackpoint>
          <Trackpoint>
            <Time>2022-07-09T16:28:22.000Z</Time>
            <Position>
              <LatitudeDegrees>43.3150689862668514251708984375</LatitudeDegrees>
              <LongitudeDegrees>-2.0086035691201686859130859375</LongitudeDegrees>
            </Position>
            <AltitudeMeters>61.59999847412109375</AltitudeMeters>
            <DistanceMeters>NAN</DistanceMeters>
          </Trackpoint>
          <Trackpoint>
            <Time>2022-07-09T16:28:26.000Z</Time>
            <Position>
              <LatitudeDegrees>43.31511215306818485260009765625</LatitudeDegrees>
              <LongitudeDegrees>-2.00855772010982036590576171875</LongitudeDegrees>
            </Position>
            <AltitudeMeters>62.200000762939453125</AltitudeMeters>
            <DistanceMeters>NAN</DistanceMeters>
          </Trackpoint>
          <Trackpoint>
            <Time>2022-07-09T16:28:27.000Z</Time>
            <Position>
              <LatitudeDegrees>43.3151259832084178924560546875</LatitudeDegrees>
              <LongitudeDegrees>-2.00854204595088958740234375</LongitudeDegrees>
            </Position>
            <AltitudeMeters>62.200000762939453125</AltitudeMeters>
            <DistanceMeters>NAN</DistanceMeters>
          </Trackpoint>
          <Trackpoint>
            <Time>2022-07-09T16:28:34.000Z</Time>
            <Position>
              <LatitudeDegrees>43.31522262655198574066162109375</LatitudeDegrees>
              <LongitudeDegrees>-2.0084580592811107635498046875</LongitudeDegrees>
            </Position>
            <AltitudeMeters>63.200000762939453125</AltitudeMeters>
            <DistanceMeters>NAN</DistanceMeters>
          </Trackpoint>
          <Trackpoint>
            <Time>2022-07-09T16:28:35.000Z</Time>
            <Position>
              <LatitudeDegrees>43.3152369596064090728759765625</LatitudeDegrees>
              <LongitudeDegrees>-2.0084490068256855010986328125</LongitudeDegrees>
            </Position>
            <AltitudeMeters>63.40000152587890625</AltitudeMeters>
            <DistanceMeters>NAN</DistanceMeters>
          </Trackpoint>
          <Trackpoint>
            <Time>2022-07-09T16:28:41.000Z</Time>
            <Position>
              <LatitudeDegrees>43.31533863209187984466552734375</LatitudeDegrees>
              <LongitudeDegrees>-2.008413635194301605224609375</LongitudeDegrees>
            </Position>
            <AltitudeMeters>64</AltitudeMeters>
            <DistanceMeters>NAN</DistanceMeters>
          </Trackpoint>
          <Trackpoint>
            <Time>2022-07-09T16:28:44.000Z</Time>
            <Position>
              <LatitudeDegrees>43.31538624130189418792724609375</LatitudeDegrees>
              <LongitudeDegrees>-2.00840801931917667388916015625</LongitudeDegrees>
            </Position>
            <AltitudeMeters>64.40000152587890625</AltitudeMeters>
            <DistanceMeters>NAN</DistanceMeters>
          </Trackpoint>
          <Trackpoint>
            <Time>2022-07-09T16:28:45.000Z</Time>
            <Position>
              <LatitudeDegrees>43.31540082581341266632080078125</LatitudeDegrees>
              <LongitudeDegrees>-2.00840584002435207366943359375</LongitudeDegrees>
            </Position>
            <AltitudeMeters>64.59999847412109375</AltitudeMeters>
            <DistanceMeters>NAN</DistanceMeters>
          </Trackpoint>
          <Trackpoint>
            <Time>2022-07-09T16:28:50.000Z</Time>
            <Position>
              <LatitudeDegrees>43.31546653993427753448486328125</LatitudeDegrees>
              <LongitudeDegrees>-2.00840064324438571929931640625</LongitudeDegrees>
            </Position>
            <AltitudeMeters>65.1999969482421875</AltitudeMeters>
            <DistanceMeters>NAN</DistanceMeters>
          </Trackpoint>
          <Trackpoint>
            <Time>2022-07-09T16:28:54.000Z</Time>
            <Position>
              <LatitudeDegrees>43.3155219443142414093017578125</LatitudeDegrees>
              <LongitudeDegrees>-2.008397541940212249755859375</LongitudeDegrees>
            </Position>
            <AltitudeMeters>65.59999847412109375</AltitudeMeters>
            <DistanceMeters>NAN</DistanceMeters>
          </Trackpoint>
          <Trackpoint>
            <Time>2022-07-09T16:28:59.000Z</Time>
            <Position>
              <LatitudeDegrees>43.3155957050621509552001953125</LatitudeDegrees>
              <LongitudeDegrees>-2.00842377729713916778564453125</LongitudeDegrees>
            </Position>
            <AltitudeMeters>66</AltitudeMeters>
            <DistanceMeters>NAN</DistanceMeters>
          </Trackpoint>
          <Trackpoint>
            <Time>2022-07-09T16:29:00.000Z</Time>
            <Position>
              <LatitudeDegrees>43.31560584716498851776123046875</LatitudeDegrees>
              <LongitudeDegrees>-2.00843584723770618438720703125</LongitudeDegrees>
            </Position>
            <AltitudeMeters>66.1999969482421875</AltitudeMeters>
            <DistanceMeters>NAN</DistanceMeters>
          </Trackpoint>
          <Trackpoint>
            <Time>2022-07-09T16:29:05.000Z</Time>
            <Position>
              <LatitudeDegrees>43.31564675085246562957763671875</LatitudeDegrees>
              <LongitudeDegrees>-2.0085267908871173858642578125</LongitudeDegrees>
            </Position>
            <AltitudeMeters>66.59999847412109375</AltitudeMeters>
            <DistanceMeters>NAN</DistanceMeters>
          </Trackpoint>
          <Trackpoint>
            <Time>2022-07-09T16:29:07.000Z</Time>
            <Position>
              <LatitudeDegrees>43.3156644366681575775146484375</LatitudeDegrees>
              <LongitudeDegrees>-2.00857012532651424407958984375</LongitudeDegrees>
            </Position>
            <AltitudeMeters>66.59999847412109375</AltitudeMeters>
            <DistanceMeters>NAN</DistanceMeters>
          </Trackpoint>
          <Trackpoint>
            <Time>2022-07-09T16:29:09.000Z</Time>
            <Position>
              <LatitudeDegrees>43.315677680075168609619140625</LatitudeDegrees>
              <LongitudeDegrees>-2.0086126215755939483642578125</LongitudeDegrees>
            </Position>
            <AltitudeMeters>66.8000030517578125</AltitudeMeters>
            <DistanceMeters>NAN</DistanceMeters>
          </Trackpoint>
          <Trackpoint>
            <Time>2022-07-09T16:29:12.000Z</Time>
            <Position>
              <LatitudeDegrees>43.31570089794695377349853515625</LatitudeDegrees>
              <LongitudeDegrees>-2.00867506675422191619873046875</LongitudeDegrees>
            </Position>
            <AltitudeMeters>67</AltitudeMeters>
            <DistanceMeters>NAN</DistanceMeters>
          </Trackpoint>
          <Trackpoint>
            <Time>2022-07-09T16:29:14.000Z</Time>
            <Position>
              <LatitudeDegrees>43.3157117106020450592041015625</LatitudeDegrees>
              <LongitudeDegrees>-2.00870490632951259613037109375</LongitudeDegrees>
            </Position>
            <AltitudeMeters>67.1999969482421875</AltitudeMeters>
            <DistanceMeters>NAN</DistanceMeters>
          </Trackpoint>
          <Trackpoint>
            <Time>2022-07-09T16:29:18.000Z</Time>
            <Position>
              <LatitudeDegrees>43.31574012525379657745361328125</LatitudeDegrees>
              <LongitudeDegrees>-2.0087722130119800567626953125</LongitudeDegrees>
            </Position>
            <AltitudeMeters>67.59999847412109375</AltitudeMeters>
            <DistanceMeters>NAN</DistanceMeters>
          </Trackpoint>
          <Trackpoint>
            <Time>2022-07-09T16:29:19.000Z</Time>
            <Position>
              <LatitudeDegrees>43.31574507057666778564453125</LatitudeDegrees>
              <LongitudeDegrees>-2.00878344476222991943359375</LongitudeDegrees>
            </Position>
            <AltitudeMeters>67.59999847412109375</AltitudeMeters>
            <DistanceMeters>NAN</DistanceMeters>
          </Trackpoint>
          <Trackpoint>
            <Time>2022-07-09T16:29:24.000Z</Time>
            <Position>
              <LatitudeDegrees>43.31578907556831836700439453125</LatitudeDegrees>
              <LongitudeDegrees>-2.0088687725365161895751953125</LongitudeDegrees>
            </Position>
            <AltitudeMeters>68.40000152587890625</AltitudeMeters>
            <DistanceMeters>NAN</DistanceMeters>
          </Trackpoint>
          <Trackpoint>
            <Time>2022-07-09T16:29:27.000Z</Time>
            <Position>
              <LatitudeDegrees>43.31580885685980319976806640625</LatitudeDegrees>
              <LongitudeDegrees>-2.008895762264728546142578125</LongitudeDegrees>
            </Position>
            <AltitudeMeters>68.8000030517578125</AltitudeMeters>
            <DistanceMeters>NAN</DistanceMeters>
          </Trackpoint>
          <Trackpoint>
            <Time>2022-07-09T16:29:29.000Z</Time>
            <Position>
              <LatitudeDegrees>43.31582243554294109344482421875</LatitudeDegrees>
              <LongitudeDegrees>-2.00892719440162181854248046875</LongitudeDegrees>
            </Position>
            <AltitudeMeters>69.1999969482421875</AltitudeMeters>
            <DistanceMeters>NAN</DistanceMeters>
          </Trackpoint>
          <Trackpoint>
            <Time>2022-07-09T16:29:30.000Z</Time>
            <Position>
              <LatitudeDegrees>43.3158293925225734710693359375</LatitudeDegrees>
              <LongitudeDegrees>-2.00894144363701343536376953125</LongitudeDegrees>
            </Position>
            <AltitudeMeters>69.1999969482421875</AltitudeMeters>
            <DistanceMeters>NAN</DistanceMeters>
          </Trackpoint>
          <Trackpoint>
            <Time>2022-07-09T16:29:31.000Z</Time>
            <Position>
              <LatitudeDegrees>43.31584070809185504913330078125</LatitudeDegrees>
              <LongitudeDegrees>-2.00895376503467559814453125</LongitudeDegrees>
            </Position>
            <AltitudeMeters>69.40000152587890625</AltitudeMeters>
            <DistanceMeters>NAN</DistanceMeters>
          </Trackpoint>
          <Trackpoint>
            <Time>2022-07-09T16:29:33.000Z</Time>
            <Position>
              <LatitudeDegrees>43.31586384214460849761962890625</LatitudeDegrees>
              <LongitudeDegrees>-2.0090002007782459259033203125</LongitudeDegrees>
            </Position>
            <AltitudeMeters>69.59999847412109375</AltitudeMeters>
            <DistanceMeters>NAN</DistanceMeters>
          </Trackpoint>
          <Trackpoint>
            <Time>2022-07-09T16:29:34.000Z</Time>
            <Position>
              <LatitudeDegrees>43.31587113440036773681640625</LatitudeDegrees>
              <LongitudeDegrees>-2.00901604257524013519287109375</LongitudeDegrees>
            </Position>
            <AltitudeMeters>69.8000030517578125</AltitudeMeters>
            <DistanceMeters>NAN</DistanceMeters>
          </Trackpoint>
          <Trackpoint>
            <Time>2022-07-09T16:29:35.000Z</Time>
            <Position>
              <LatitudeDegrees>43.31587708555161952972412109375</LatitudeDegrees>
              <LongitudeDegrees>-2.00903280638158321380615234375</LongitudeDegrees>
            </Position>
            <AltitudeMeters>70</AltitudeMeters>
            <DistanceMeters>NAN</DistanceMeters>
          </Trackpoint>
          <Trackpoint>
            <Time>2022-07-09T16:29:40.000Z</Time>
            <Position>
              <LatitudeDegrees>43.31592419184744358062744140625</LatitudeDegrees>
              <LongitudeDegrees>-2.00910338200628757476806640625</LongitudeDegrees>
            </Position>
            <AltitudeMeters>70.8000030517578125</AltitudeMeters>
            <DistanceMeters>NAN</DistanceMeters>
          </Trackpoint>
          <Trackpoint>
            <Time>2022-07-09T16:29:41.000Z</Time>
            <Position>
              <LatitudeDegrees>43.315930478274822235107421875</LatitudeDegrees>
              <LongitudeDegrees>-2.00911603868007659912109375</LongitudeDegrees>
            </Position>
            <AltitudeMeters>71</AltitudeMeters>
            <DistanceMeters>NAN</DistanceMeters>
          </Trackpoint>
          <Trackpoint>
            <Time>2022-07-09T16:29:45.000Z</Time>
            <Position>
              <LatitudeDegrees>43.31596241332590579986572265625</LatitudeDegrees>
              <LongitudeDegrees>-2.00918569229543209075927734375</LongitudeDegrees>
            </Position>
            <AltitudeMeters>71.40000152587890625</AltitudeMeters>
            <DistanceMeters>NAN</DistanceMeters>
          </Trackpoint>
          <Trackpoint>
            <Time>2022-07-09T16:29:49.000Z</Time>
            <Position>
              <LatitudeDegrees>43.31597900949418544769287109375</LatitudeDegrees>
              <LongitudeDegrees>-2.0092503167688846588134765625</LongitudeDegrees>
            </Position>
            <AltitudeMeters>71.8000030517578125</AltitudeMeters>
            <DistanceMeters>NAN</DistanceMeters>
          </Trackpoint>
          <Trackpoint>
            <Time>2022-07-09T16:29:50.000Z</Time>
            <Position>
              <LatitudeDegrees>43.315985463559627532958984375</LatitudeDegrees>
              <LongitudeDegrees>-2.00926699675619602203369140625</LongitudeDegrees>
            </Position>
            <AltitudeMeters>72</AltitudeMeters>
            <DistanceMeters>NAN</DistanceMeters>
          </Trackpoint>
          <Trackpoint>
            <Time>2022-07-09T16:29:56.000Z</Time>
            <Position>
              <LatitudeDegrees>43.3160295523703098297119140625</LatitudeDegrees>
              <LongitudeDegrees>-2.0093676634132862091064453125</LongitudeDegrees>
            </Position>
            <AltitudeMeters>72.8000030517578125</AltitudeMeters>
            <DistanceMeters>NAN</DistanceMeters>
          </Trackpoint>
          <Trackpoint>
            <Time>2022-07-09T16:29:58.000Z</Time>
            <Position>
              <LatitudeDegrees>43.316048495471477508544921875</LatitudeDegrees>
              <LongitudeDegrees>-2.00940764509141445159912109375</LongitudeDegrees>
            </Position>
            <AltitudeMeters>73</AltitudeMeters>
            <DistanceMeters>NAN</DistanceMeters>
          </Trackpoint>
          <Trackpoint>
            <Time>2022-07-09T16:29:59.000Z</Time>
            <Position>
              <LatitudeDegrees>43.316053859889507293701171875</LatitudeDegrees>
              <LongitudeDegrees>-2.0094213075935840606689453125</LongitudeDegrees>
            </Position>
            <AltitudeMeters>73.1999969482421875</AltitudeMeters>
            <DistanceMeters>NAN</DistanceMeters>
          </Trackpoint>
          <Trackpoint>
            <Time>2022-07-09T16:30:01.000Z</Time>
            <Position>
              <LatitudeDegrees>43.31607053987681865692138671875</LatitudeDegrees>
              <LongitudeDegrees>-2.0094538293778896331787109375</LongitudeDegrees>
            </Position>
            <AltitudeMeters>73.40000152587890625</AltitudeMeters>
            <DistanceMeters>NAN</DistanceMeters>
          </Trackpoint>
          <Trackpoint>
            <Time>2022-07-09T16:30:07.000Z</Time>
            <Position>
              <LatitudeDegrees>43.31613558344542980194091796875</LatitudeDegrees>
              <LongitudeDegrees>-2.00956220738589763641357421875</LongitudeDegrees>
            </Position>
            <AltitudeMeters>74</AltitudeMeters>
            <DistanceMeters>NAN</DistanceMeters>
          </Trackpoint>
          <Trackpoint>
            <Time>2022-07-09T16:30:09.000Z</Time>
            <Position>
              <LatitudeDegrees>43.31615620292723178863525390625</LatitudeDegrees>
              <LongitudeDegrees>-2.00959389097988605499267578125</LongitudeDegrees>
            </Position>
            <AltitudeMeters>74.1999969482421875</AltitudeMeters>
            <DistanceMeters>NAN</DistanceMeters>
          </Trackpoint>
          <Trackpoint>
            <Time>2022-07-09T16:30:10.000Z</Time>
            <Position>
              <LatitudeDegrees>43.31616307608783245086669921875</LatitudeDegrees>
              <LongitudeDegrees>-2.00961266644299030303955078125</LongitudeDegrees>
            </Position>
            <AltitudeMeters>74.1999969482421875</AltitudeMeters>
            <DistanceMeters>NAN</DistanceMeters>
          </Trackpoint>
          <Trackpoint>
            <Time>2022-07-09T16:30:17.000Z</Time>
            <Position>
              <LatitudeDegrees>43.3162437938153743743896484375</LatitudeDegrees>
              <LongitudeDegrees>-2.0096730999648571014404296875</LongitudeDegrees>
            </Position>
            <AltitudeMeters>75</AltitudeMeters>
            <DistanceMeters>NAN</DistanceMeters>
          </Trackpoint>
          <Trackpoint>
            <Time>2022-07-09T16:30:20.000Z</Time>
            <Position>
              <LatitudeDegrees>43.3162840269505977630615234375</LatitudeDegrees>
              <LongitudeDegrees>-2.00970285572111606597900390625</LongitudeDegrees>
            </Position>
            <AltitudeMeters>75.1999969482421875</AltitudeMeters>
            <DistanceMeters>NAN</DistanceMeters>
          </Trackpoint>
          <Trackpoint>
            <Time>2022-07-09T16:30:25.000Z</Time>
            <Position>
              <LatitudeDegrees>43.31635435111820697784423828125</LatitudeDegrees>
              <LongitudeDegrees>-2.0097777061164379119873046875</LongitudeDegrees>
            </Position>
            <AltitudeMeters>75.40000152587890625</AltitudeMeters>
            <DistanceMeters>NAN</DistanceMeters>
          </Trackpoint>
          <Trackpoint>
            <Time>2022-07-09T16:30:32.000Z</Time>
            <Position>
              <LatitudeDegrees>43.31642895005643367767333984375</LatitudeDegrees>
              <LongitudeDegrees>-2.009792625904083251953125</LongitudeDegrees>
            </Position>
            <AltitudeMeters>75.59999847412109375</AltitudeMeters>
            <DistanceMeters>NAN</DistanceMeters>
          </Trackpoint>
          <Trackpoint>
            <Time>2022-07-09T16:30:34.000Z</Time>
            <Position>
              <LatitudeDegrees>43.31642895005643367767333984375</LatitudeDegrees>
              <LongitudeDegrees>-2.009792625904083251953125</LongitudeDegrees>
            </Position>
            <AltitudeMeters>75.59999847412109375</AltitudeMeters>
            <DistanceMeters>NAN</DistanceMeters>
          </Trackpoint>
          <Trackpoint>
            <Time>2022-07-09T16:33:16.000Z</Time>
            <Position>
              <LatitudeDegrees>43.31646616570651531219482421875</LatitudeDegrees>
              <LongitudeDegrees>-2.00974208302795886993408203125</LongitudeDegrees>
            </Position>
            <AltitudeMeters>75.1999969482421875</AltitudeMeters>
            <DistanceMeters>NAN</DistanceMeters>
          </Trackpoint>
          <Trackpoint>
            <Time>2022-07-09T16:33:17.000Z</Time>
            <Position>
              <LatitudeDegrees>43.31647865474224090576171875</LatitudeDegrees>
              <LongitudeDegrees>-2.0097240619361400604248046875</LongitudeDegrees>
            </Position>
            <AltitudeMeters>75.1999969482421875</AltitudeMeters>
            <DistanceMeters>NAN</DistanceMeters>
          </Trackpoint>
          <Trackpoint>
            <Time>2022-07-09T16:33:18.000Z</Time>
            <Position>
              <LatitudeDegrees>43.31649349071085453033447265625</LatitudeDegrees>
              <LongitudeDegrees>-2.0097066275775432586669921875</LongitudeDegrees>
            </Position>
            <AltitudeMeters>75.1999969482421875</AltitudeMeters>
            <DistanceMeters>NAN</DistanceMeters>
          </Trackpoint>
          <Trackpoint>
            <Time>2022-07-09T16:33:20.000Z</Time>
            <Position>
              <LatitudeDegrees>43.316519558429718017578125</LatitudeDegrees>
              <LongitudeDegrees>-2.0096670649945735931396484375</LongitudeDegrees>
            </Position>
            <AltitudeMeters>76.59999847412109375</AltitudeMeters>
            <DistanceMeters>NAN</DistanceMeters>
          </Trackpoint>
          <Trackpoint>
            <Time>2022-07-09T16:33:23.000Z</Time>
            <Position>
              <LatitudeDegrees>43.3165670000016689300537109375</LatitudeDegrees>
              <LongitudeDegrees>-2.00961836613714694976806640625</LongitudeDegrees>
            </Position>
            <AltitudeMeters>77.1999969482421875</AltitudeMeters>
            <DistanceMeters>NAN</DistanceMeters>
          </Trackpoint>
          <Trackpoint>
            <Time>2022-07-09T16:33:24.000Z</Time>
            <Position>
              <LatitudeDegrees>43.31658083014190196990966796875</LatitudeDegrees>
              <LongitudeDegrees>-2.0095966570079326629638671875</LongitudeDegrees>
            </Position>
            <AltitudeMeters>77.40000152587890625</AltitudeMeters>
            <DistanceMeters>NAN</DistanceMeters>
          </Trackpoint>
          <Trackpoint>
            <Time>2022-07-09T16:33:26.000Z</Time>
            <Position>
              <LatitudeDegrees>43.316605053842067718505859375</LatitudeDegrees>
              <LongitudeDegrees>-2.00957075692713260650634765625</LongitudeDegrees>
            </Position>
            <AltitudeMeters>77.59999847412109375</AltitudeMeters>
            <DistanceMeters>NAN</DistanceMeters>
          </Trackpoint>
          <Trackpoint>
            <Time>2022-07-09T16:33:29.000Z</Time>
            <Position>
              <LatitudeDegrees>43.31665995530784130096435546875</LatitudeDegrees>
              <LongitudeDegrees>-2.009540498256683349609375</LongitudeDegrees>
            </Position>
            <AltitudeMeters>78</AltitudeMeters>
            <DistanceMeters>NAN</DistanceMeters>
          </Trackpoint>
          <Trackpoint>
            <Time>2022-07-09T16:33:35.000Z</Time>
            <Position>
              <LatitudeDegrees>43.31677772104740142822265625</LatitudeDegrees>
              <LongitudeDegrees>-2.00943681411445140838623046875</LongitudeDegrees>
            </Position>
            <AltitudeMeters>78.8000030517578125</AltitudeMeters>
            <DistanceMeters>NAN</DistanceMeters>
          </Trackpoint>
          <Trackpoint>
            <Time>2022-07-09T16:33:42.000Z</Time>
            <Position>
              <LatitudeDegrees>43.31688408739864826202392578125</LatitudeDegrees>
              <LongitudeDegrees>-2.0093234069645404815673828125</LongitudeDegrees>
            </Position>
            <AltitudeMeters>79.59999847412109375</AltitudeMeters>
            <DistanceMeters>NAN</DistanceMeters>
          </Trackpoint>
          <Trackpoint>
            <Time>2022-07-09T16:33:43.000Z</Time>
            <Position>
              <LatitudeDegrees>43.31689666025340557098388671875</LatitudeDegrees>
              <LongitudeDegrees>-2.0093004405498504638671875</LongitudeDegrees>
            </Position>
            <AltitudeMeters>79.8000030517578125</AltitudeMeters>
            <DistanceMeters>NAN</DistanceMeters>
          </Trackpoint>
          <Trackpoint>
            <Time>2022-07-09T16:33:49.000Z</Time>
            <Position>
              <LatitudeDegrees>43.3169884420931339263916015625</LatitudeDegrees>
              <LongitudeDegrees>-2.00919256545603275299072265625</LongitudeDegrees>
            </Position>
            <AltitudeMeters>80.40000152587890625</AltitudeMeters>
            <DistanceMeters>NAN</DistanceMeters>
          </Trackpoint>
          <Trackpoint>
            <Time>2022-07-09T16:33:52.000Z</Time>
            <Position>
              <LatitudeDegrees>43.31702607683837413787841796875</LatitudeDegrees>
              <LongitudeDegrees>-2.00913858599960803985595703125</LongitudeDegrees>
            </Position>
            <AltitudeMeters>80.8000030517578125</AltitudeMeters>
            <DistanceMeters>NAN</DistanceMeters>
          </Trackpoint>
          <Trackpoint>
            <Time>2022-07-09T16:33:53.000Z</Time>
            <Position>
              <LatitudeDegrees>43.31703546456992626190185546875</LatitudeDegrees>
              <LongitudeDegrees>-2.0091234147548675537109375</LongitudeDegrees>
            </Position>
            <AltitudeMeters>81</AltitudeMeters>
            <DistanceMeters>NAN</DistanceMeters>
          </Trackpoint>
          <Trackpoint>
            <Time>2022-07-09T16:33:55.000Z</Time>
            <Position>
              <LatitudeDegrees>43.31705935299396514892578125</LatitudeDegrees>
              <LongitudeDegrees>-2.0090900547802448272705078125</LongitudeDegrees>
            </Position>
            <AltitudeMeters>81.1999969482421875</AltitudeMeters>
            <DistanceMeters>NAN</DistanceMeters>
          </Trackpoint>
          <Trackpoint>
            <Time>2022-07-09T16:33:57.000Z</Time>
            <Position>
              <LatitudeDegrees>43.31707184202969074249267578125</LatitudeDegrees>
              <LongitudeDegrees>-2.00905845500528812408447265625</LongitudeDegrees>
            </Position>
            <AltitudeMeters>81.40000152587890625</AltitudeMeters>
            <DistanceMeters>NAN</DistanceMeters>
          </Trackpoint>
          <Trackpoint>
            <Time>2022-07-09T16:34:01.000Z</Time>
            <Position>
              <LatitudeDegrees>43.3171109855175018310546875</LatitudeDegrees>
              <LongitudeDegrees>-2.0090243406593799591064453125</LongitudeDegrees>
            </Position>
            <AltitudeMeters>81.8000030517578125</AltitudeMeters>
            <DistanceMeters>NAN</DistanceMeters>
          </Trackpoint>
          <Trackpoint>
            <Time>2022-07-09T16:34:02.000Z</Time>
            <Position>
              <LatitudeDegrees>43.31712062470614910125732421875</LatitudeDegrees>
              <LongitudeDegrees>-2.00902576558291912078857421875</LongitudeDegrees>
            </Position>
            <AltitudeMeters>82</AltitudeMeters>
            <DistanceMeters>NAN</DistanceMeters>
          </Trackpoint>
          <Trackpoint>
            <Time>2022-07-09T16:34:03.000Z</Time>
            <Position>
              <LatitudeDegrees>43.317130096256732940673828125</LatitudeDegrees>
              <LongitudeDegrees>-2.0090290345251560211181640625</LongitudeDegrees>
            </Position>
            <AltitudeMeters>82.1999969482421875</AltitudeMeters>
            <DistanceMeters>NAN</DistanceMeters>
          </Trackpoint>
          <Trackpoint>
            <Time>2022-07-09T16:34:07.000Z</Time>
            <Position>
              <LatitudeDegrees>43.317135460674762725830078125</LatitudeDegrees>
              <LongitudeDegrees>-2.0090431161224842071533203125</LongitudeDegrees>
            </Position>
            <AltitudeMeters>82.59999847412109375</AltitudeMeters>
            <DistanceMeters>NAN</DistanceMeters>
          </Trackpoint>
          <Trackpoint>
            <Time>2022-07-09T16:34:08.000Z</Time>
            <Position>
              <LatitudeDegrees>43.31712682731449604034423828125</LatitudeDegrees>
              <LongitudeDegrees>-2.0090525038540363311767578125</LongitudeDegrees>
            </Position>
            <AltitudeMeters>82.8000030517578125</AltitudeMeters>
            <DistanceMeters>NAN</DistanceMeters>
          </Trackpoint>
          <Trackpoint>
            <Time>2022-07-09T16:34:10.000Z</Time>
            <Position>
              <LatitudeDegrees>43.31711224280297756195068359375</LatitudeDegrees>
              <LongitudeDegrees>-2.0090585388243198394775390625</LongitudeDegrees>
            </Position>
            <AltitudeMeters>83</AltitudeMeters>
            <DistanceMeters>NAN</DistanceMeters>
          </Trackpoint>
          <Trackpoint>
            <Time>2022-07-09T16:34:11.000Z</Time>
            <Position>
              <LatitudeDegrees>43.317099921405315399169921875</LatitudeDegrees>
              <LongitudeDegrees>-2.00905778445303440093994140625</LongitudeDegrees>
            </Position>
            <AltitudeMeters>83</AltitudeMeters>
            <DistanceMeters>NAN</DistanceMeters>
          </Trackpoint>
          <Trackpoint>
            <Time>2022-07-09T16:34:13.000Z</Time>
            <Position>
              <LatitudeDegrees>43.31708491779863834381103515625</LatitudeDegrees>
              <LongitudeDegrees>-2.00907169841229915618896484375</LongitudeDegrees>
            </Position>
            <AltitudeMeters>83.1999969482421875</AltitudeMeters>
            <DistanceMeters>NAN</DistanceMeters>
          </Trackpoint>
          <Trackpoint>
            <Time>2022-07-09T16:34:14.000Z</Time>
            <Position>
              <LatitudeDegrees>43.31707301549613475799560546875</LatitudeDegrees>
              <LongitudeDegrees>-2.0090763084590435028076171875</LongitudeDegrees>
            </Position>
            <AltitudeMeters>83.40000152587890625</AltitudeMeters>
            <DistanceMeters>NAN</DistanceMeters>
          </Trackpoint>
          <Trackpoint>
            <Time>2022-07-09T16:34:15.000Z</Time>
            <Position>
              <LatitudeDegrees>43.31705574877560138702392578125</LatitudeDegrees>
              <LongitudeDegrees>-2.0090937428176403045654296875</LongitudeDegrees>
            </Position>
            <AltitudeMeters>83.40000152587890625</AltitudeMeters>
            <DistanceMeters>NAN</DistanceMeters>
          </Trackpoint>
          <Trackpoint>
            <Time>2022-07-09T16:34:20.000Z</Time>
            <Position>
              <LatitudeDegrees>43.317038901150226593017578125</LatitudeDegrees>
              <LongitudeDegrees>-2.0092238299548625946044921875</LongitudeDegrees>
            </Position>
            <AltitudeMeters>84.1999969482421875</AltitudeMeters>
            <DistanceMeters>NAN</DistanceMeters>
          </Trackpoint>
          <Trackpoint>
            <Time>2022-07-09T16:34:27.000Z</Time>
            <Position>
              <LatitudeDegrees>43.31701870076358318328857421875</LatitudeDegrees>
              <LongitudeDegrees>-2.00934444554150104522705078125</LongitudeDegrees>
            </Position>
            <AltitudeMeters>85.1999969482421875</AltitudeMeters>
            <DistanceMeters>NAN</DistanceMeters>
          </Trackpoint>
          <Trackpoint>
            <Time>2022-07-09T16:34:28.000Z</Time>
            <Position>
              <LatitudeDegrees>43.31701316870748996734619140625</LatitudeDegrees>
              <LongitudeDegrees>-2.0093559287488460540771484375</LongitudeDegrees>
            </Position>
            <AltitudeMeters>85.1999969482421875</AltitudeMeters>
            <DistanceMeters>NAN</DistanceMeters>
          </Trackpoint>
          <Trackpoint>
            <Time>2022-07-09T16:34:29.000Z</Time>
            <Position>
              <LatitudeDegrees>43.31699858419597148895263671875</LatitudeDegrees>
              <LongitudeDegrees>-2.00936372391879558563232421875</LongitudeDegrees>
            </Position>
            <AltitudeMeters>85.40000152587890625</AltitudeMeters>
            <DistanceMeters>NAN</DistanceMeters>
          </Trackpoint>
          <Trackpoint>
            <Time>2022-07-09T16:34:33.000Z</Time>
            <Position>
              <LatitudeDegrees>43.3169535733759403228759765625</LatitudeDegrees>
              <LongitudeDegrees>-2.009384930133819580078125</LongitudeDegrees>
            </Position>
            <AltitudeMeters>86</AltitudeMeters>
            <DistanceMeters>NAN</DistanceMeters>
          </Trackpoint>
          <Trackpoint>
            <Time>2022-07-09T16:34:36.000Z</Time>
            <Position>
              <LatitudeDegrees>43.31692566163837909698486328125</LatitudeDegrees>
              <LongitudeDegrees>-2.00942306779325008392333984375</LongitudeDegrees>
            </Position>
            <AltitudeMeters>86.1999969482421875</AltitudeMeters>
            <DistanceMeters>NAN</DistanceMeters>
          </Trackpoint>
          <Trackpoint>
            <Time>2022-07-09T16:34:39.000Z</Time>
            <Position>
              <LatitudeDegrees>43.3169062994420528411865234375</LatitudeDegrees>
              <LongitudeDegrees>-2.00947620905935764312744140625</LongitudeDegrees>
            </Position>
            <AltitudeMeters>86.59999847412109375</AltitudeMeters>
            <DistanceMeters>NAN</DistanceMeters>
          </Trackpoint>
          <Trackpoint>
            <Time>2022-07-09T16:34:40.000Z</Time>
            <Position>
              <LatitudeDegrees>43.31689733080565929412841796875</LatitudeDegrees>
              <LongitudeDegrees>-2.00948509387671947479248046875</LongitudeDegrees>
            </Position>
            <AltitudeMeters>86.8000030517578125</AltitudeMeters>
            <DistanceMeters>NAN</DistanceMeters>
          </Trackpoint>
          <Trackpoint>
            <Time>2022-07-09T16:34:43.000Z</Time>
            <Position>
              <LatitudeDegrees>43.31687352620065212249755859375</LatitudeDegrees>
              <LongitudeDegrees>-2.00950227677822113037109375</LongitudeDegrees>
            </Position>
            <AltitudeMeters>87</AltitudeMeters>
            <DistanceMeters>NAN</DistanceMeters>
          </Trackpoint>
          <Trackpoint>
            <Time>2022-07-09T16:34:45.000Z</Time>
            <Position>
              <LatitudeDegrees>43.31685055978596210479736328125</LatitudeDegrees>
              <LongitudeDegrees>-2.0095168612897396087646484375</LongitudeDegrees>
            </Position>
            <AltitudeMeters>87.40000152587890625</AltitudeMeters>
            <DistanceMeters>NAN</DistanceMeters>
          </Trackpoint>
          <Trackpoint>
            <Time>2022-07-09T16:34:46.000Z</Time>
            <Position>
              <LatitudeDegrees>43.31683941185474395751953125</LatitudeDegrees>
              <LongitudeDegrees>-2.0095275901257991790771484375</LongitudeDegrees>
            </Position>
            <AltitudeMeters>87.59999847412109375</AltitudeMeters>
            <DistanceMeters>NAN</DistanceMeters>
          </Trackpoint>
          <Trackpoint>
            <Time>2022-07-09T16:34:48.000Z</Time>
            <Position>
              <LatitudeDegrees>43.316827006638050079345703125</LatitudeDegrees>
              <LongitudeDegrees>-2.00955600477755069732666015625</LongitudeDegrees>
            </Position>
            <AltitudeMeters>87.59999847412109375</AltitudeMeters>
            <DistanceMeters>NAN</DistanceMeters>
          </Trackpoint>
          <Trackpoint>
            <Time>2022-07-09T16:34:51.000Z</Time>
            <Position>
              <LatitudeDegrees>43.31680026836693286895751953125</LatitudeDegrees>
              <LongitudeDegrees>-2.00960864312946796417236328125</LongitudeDegrees>
            </Position>
            <AltitudeMeters>87.8000030517578125</AltitudeMeters>
            <DistanceMeters>NAN</DistanceMeters>
          </Trackpoint>
          <Trackpoint>
            <Time>2022-07-09T16:34:52.000Z</Time>
            <Position>
              <LatitudeDegrees>43.316791467368602752685546875</LatitudeDegrees>
              <LongitudeDegrees>-2.00961970724165439605712890625</LongitudeDegrees>
            </Position>
            <AltitudeMeters>88</AltitudeMeters>
            <DistanceMeters>NAN</DistanceMeters>
          </Trackpoint>
          <Trackpoint>
            <Time>2022-07-09T16:34:56.000Z</Time>
            <Position>
              <LatitudeDegrees>43.31677637994289398193359375</LatitudeDegrees>
              <LongitudeDegrees>-2.00970201753079891204833984375</LongitudeDegrees>
            </Position>
            <AltitudeMeters>88.40000152587890625</AltitudeMeters>
            <DistanceMeters>NAN</DistanceMeters>
          </Trackpoint>
          <Trackpoint>
            <Time>2022-07-09T16:34:58.000Z</Time>
            <Position>
              <LatitudeDegrees>43.3167651481926441192626953125</LatitudeDegrees>
              <LongitudeDegrees>-2.00975515879690647125244140625</LongitudeDegrees>
            </Position>
            <AltitudeMeters>88.59999847412109375</AltitudeMeters>
            <DistanceMeters>NAN</DistanceMeters>
          </Trackpoint>
          <Trackpoint>
            <Time>2022-07-09T16:34:59.000Z</Time>
            <Position>
              <LatitudeDegrees>43.316759951412677764892578125</LatitudeDegrees>
              <LongitudeDegrees>-2.00978633947670459747314453125</LongitudeDegrees>
            </Position>
            <AltitudeMeters>88.8000030517578125</AltitudeMeters>
            <DistanceMeters>NAN</DistanceMeters>
          </Trackpoint>
          <Trackpoint>
            <Time>2022-07-09T16:35:02.000Z</Time>
            <Position>
              <LatitudeDegrees>43.31673522479832172393798828125</LatitudeDegrees>
              <LongitudeDegrees>-2.00985171832144260406494140625</LongitudeDegrees>
            </Position>
            <AltitudeMeters>89.40000152587890625</AltitudeMeters>
            <DistanceMeters>NAN</DistanceMeters>
          </Trackpoint>
          <Trackpoint>
            <Time>2022-07-09T16:35:03.000Z</Time>
            <Position>
              <LatitudeDegrees>43.316720388829708099365234375</LatitudeDegrees>
              <LongitudeDegrees>-2.00987066142261028289794921875</LongitudeDegrees>
            </Position>
            <AltitudeMeters>89.59999847412109375</AltitudeMeters>
            <DistanceMeters>NAN</DistanceMeters>
          </Trackpoint>
          <Trackpoint>
            <Time>2022-07-09T16:35:05.000Z</Time>
            <Position>
              <LatitudeDegrees>43.31670236773788928985595703125</LatitudeDegrees>
              <LongitudeDegrees>-2.00989999808371067047119140625</LongitudeDegrees>
            </Position>
            <AltitudeMeters>90</AltitudeMeters>
            <DistanceMeters>NAN</DistanceMeters>
          </Trackpoint>
          <Trackpoint>
            <Time>2022-07-09T16:35:06.000Z</Time>
            <Position>
              <LatitudeDegrees>43.31669063307344913482666015625</LatitudeDegrees>
              <LongitudeDegrees>-2.0099077932536602020263671875</LongitudeDegrees>
            </Position>
            <AltitudeMeters>90.1999969482421875</AltitudeMeters>
            <DistanceMeters>NAN</DistanceMeters>
          </Trackpoint>
          <Trackpoint>
            <Time>2022-07-09T16:35:08.000Z</Time>
            <Position>
              <LatitudeDegrees>43.316664732992649078369140625</LatitudeDegrees>
              <LongitudeDegrees>-2.0099258981645107269287109375</LongitudeDegrees>
            </Position>
            <AltitudeMeters>90.40000152587890625</AltitudeMeters>
            <DistanceMeters>NAN</DistanceMeters>
          </Trackpoint>
          <Trackpoint>
            <Time>2022-07-09T16:35:09.000Z</Time>
            <Position>
              <LatitudeDegrees>43.31665299832820892333984375</LatitudeDegrees>
              <LongitudeDegrees>-2.0099346153438091278076171875</LongitudeDegrees>
            </Position>
            <AltitudeMeters>90.59999847412109375</AltitudeMeters>
            <DistanceMeters>NAN</DistanceMeters>
          </Trackpoint>
          <Trackpoint>
            <Time>2022-07-09T16:35:10.000Z</Time>
            <Position>
              <LatitudeDegrees>43.316645957529544830322265625</LatitudeDegrees>
              <LongitudeDegrees>-2.0099522173404693603515625</LongitudeDegrees>
            </Position>
            <AltitudeMeters>90.59999847412109375</AltitudeMeters>
            <DistanceMeters>NAN</DistanceMeters>
          </Trackpoint>
          <Trackpoint>
            <Time>2022-07-09T16:35:13.000Z</Time>
            <Position>
              <LatitudeDegrees>43.31665459088981151580810546875</LatitudeDegrees>
              <LongitudeDegrees>-2.01004483737051486968994140625</LongitudeDegrees>
            </Position>
            <AltitudeMeters>91.1999969482421875</AltitudeMeters>
            <DistanceMeters>NAN</DistanceMeters>
          </Trackpoint>
          <Trackpoint>
            <Time>2022-07-09T16:35:15.000Z</Time>
            <Position>
              <LatitudeDegrees>43.31663179211318492889404296875</LatitudeDegrees>
              <LongitudeDegrees>-2.010078616440296173095703125</LongitudeDegrees>
            </Position>
            <AltitudeMeters>91.59999847412109375</AltitudeMeters>
            <DistanceMeters>NAN</DistanceMeters>
          </Trackpoint>
          <Trackpoint>
            <Time>2022-07-09T16:35:16.000Z</Time>
            <Position>
              <LatitudeDegrees>43.316617794334888458251953125</LatitudeDegrees>
              <LongitudeDegrees>-2.01009630225598812103271484375</LongitudeDegrees>
            </Position>
            <AltitudeMeters>91.8000030517578125</AltitudeMeters>
            <DistanceMeters>NAN</DistanceMeters>
          </Trackpoint>
          <Trackpoint>
            <Time>2022-07-09T16:35:19.000Z</Time>
            <Position>
              <LatitudeDegrees>43.3165960013866424560546875</LatitudeDegrees>
              <LongitudeDegrees>-2.01013527810573577880859375</LongitudeDegrees>
            </Position>
            <AltitudeMeters>92.1999969482421875</AltitudeMeters>
            <DistanceMeters>NAN</DistanceMeters>
          </Trackpoint>
          <Trackpoint>
            <Time>2022-07-09T16:35:20.000Z</Time>
            <Position>
              <LatitudeDegrees>43.31658418290317058563232421875</LatitudeDegrees>
              <LongitudeDegrees>-2.0101515389978885650634765625</LongitudeDegrees>
            </Position>
            <AltitudeMeters>92.40000152587890625</AltitudeMeters>
            <DistanceMeters>NAN</DistanceMeters>
          </Trackpoint>
          <Trackpoint>
            <Time>2022-07-09T16:35:21.000Z</Time>
            <Position>
              <LatitudeDegrees>43.31657127477228641510009765625</LatitudeDegrees>
              <LongitudeDegrees>-2.01015849597752094268798828125</LongitudeDegrees>
            </Position>
            <AltitudeMeters>92.59999847412109375</AltitudeMeters>
            <DistanceMeters>NAN</DistanceMeters>
          </Trackpoint>
          <Trackpoint>
            <Time>2022-07-09T16:35:22.000Z</Time>
            <Position>
              <LatitudeDegrees>43.3165584504604339599609375</LatitudeDegrees>
              <LongitudeDegrees>-2.01016033999621868133544921875</LongitudeDegrees>
            </Position>
            <AltitudeMeters>92.8000030517578125</AltitudeMeters>
            <DistanceMeters>NAN</DistanceMeters>
          </Trackpoint>
          <Trackpoint>
            <Time>2022-07-09T16:35:25.000Z</Time>
            <Position>
              <LatitudeDegrees>43.31653338856995105743408203125</LatitudeDegrees>
              <LongitudeDegrees>-2.01016101054847240447998046875</LongitudeDegrees>
            </Position>
            <AltitudeMeters>93.1999969482421875</AltitudeMeters>
            <DistanceMeters>NAN</DistanceMeters>
          </Trackpoint>
          <Trackpoint>
            <Time>2022-07-09T16:35:26.000Z</Time>
            <Position>
              <LatitudeDegrees>43.3165287785232067108154296875</LatitudeDegrees>
              <LongitudeDegrees>-2.010162435472011566162109375</LongitudeDegrees>
            </Position>
            <AltitudeMeters>93.1999969482421875</AltitudeMeters>
            <DistanceMeters>NAN</DistanceMeters>
          </Trackpoint>
          <Trackpoint>
            <Time>2022-07-09T16:35:29.000Z</Time>
            <Position>
              <LatitudeDegrees>43.31650757230818271636962890625</LatitudeDegrees>
              <LongitudeDegrees>-2.010181881487369537353515625</LongitudeDegrees>
            </Position>
            <AltitudeMeters>93.59999847412109375</AltitudeMeters>
            <DistanceMeters>NAN</DistanceMeters>
          </Trackpoint>
          <Trackpoint>
            <Time>2022-07-09T16:35:30.000Z</Time>
            <Position>
              <LatitudeDegrees>43.31648192368447780609130859375</LatitudeDegrees>
              <LongitudeDegrees>-2.01020099222660064697265625</LongitudeDegrees>
            </Position>
            <AltitudeMeters>93.59999847412109375</AltitudeMeters>
            <DistanceMeters>NAN</DistanceMeters>
          </Trackpoint>
          <Trackpoint>
            <Time>2022-07-09T16:35:33.000Z</Time>
            <Position>
              <LatitudeDegrees>43.3164530061185359954833984375</LatitudeDegrees>
              <LongitudeDegrees>-2.01020300388336181640625</LongitudeDegrees>
            </Position>
            <AltitudeMeters>94.1999969482421875</AltitudeMeters>
            <DistanceMeters>NAN</DistanceMeters>
          </Trackpoint>
          <Trackpoint>
            <Time>2022-07-09T16:35:36.000Z</Time>
            <Position>
              <LatitudeDegrees>43.31642660312354564666748046875</LatitudeDegrees>
              <LongitudeDegrees>-2.01021750457584857940673828125</LongitudeDegrees>
            </Position>
            <AltitudeMeters>94.40000152587890625</AltitudeMeters>
            <DistanceMeters>NAN</DistanceMeters>
          </Trackpoint>
          <Trackpoint>
            <Time>2022-07-09T16:35:38.000Z</Time>
            <Position>
              <LatitudeDegrees>43.31640883348882198333740234375</LatitudeDegrees>
              <LongitudeDegrees>-2.0102229528129100799560546875</LongitudeDegrees>
            </Position>
            <AltitudeMeters>94.59999847412109375</AltitudeMeters>
            <DistanceMeters>NAN</DistanceMeters>
          </Trackpoint>
          <Trackpoint>
            <Time>2022-07-09T16:35:39.000Z</Time>
            <Position>
              <LatitudeDegrees>43.31639693118631839752197265625</LatitudeDegrees>
              <LongitudeDegrees>-2.01023141853511333465576171875</LongitudeDegrees>
            </Position>
            <AltitudeMeters>94.8000030517578125</AltitudeMeters>
            <DistanceMeters>NAN</DistanceMeters>
          </Trackpoint>
          <Trackpoint>
            <Time>2022-07-09T16:35:42.000Z</Time>
            <Position>
              <LatitudeDegrees>43.316337168216705322265625</LatitudeDegrees>
              <LongitudeDegrees>-2.0102242939174175262451171875</LongitudeDegrees>
            </Position>
            <AltitudeMeters>95</AltitudeMeters>
            <DistanceMeters>NAN</DistanceMeters>
          </Trackpoint>
          <Trackpoint>
            <Time>2022-07-09T16:35:43.000Z</Time>
            <Position>
              <LatitudeDegrees>43.316332809627056121826171875</LatitudeDegrees>
              <LongitudeDegrees>-2.01022270135581493377685546875</LongitudeDegrees>
            </Position>
            <AltitudeMeters>95.40000152587890625</AltitudeMeters>
            <DistanceMeters>NAN</DistanceMeters>
          </Trackpoint>
          <Trackpoint>
            <Time>2022-07-09T16:35:47.000Z</Time>
            <Position>
              <LatitudeDegrees>43.3162759803235530853271484375</LatitudeDegrees>
              <LongitudeDegrees>-2.01016050763428211212158203125</LongitudeDegrees>
            </Position>
            <AltitudeMeters>95.8000030517578125</AltitudeMeters>
            <DistanceMeters>NAN</DistanceMeters>
          </Trackpoint>
          <Trackpoint>
            <Time>2022-07-09T16:35:49.000Z</Time>
            <Position>
              <LatitudeDegrees>43.316233567893505096435546875</LatitudeDegrees>
              <LongitudeDegrees>-2.01012949459254741668701171875</LongitudeDegrees>
            </Position>
            <AltitudeMeters>96</AltitudeMeters>
            <DistanceMeters>NAN</DistanceMeters>
          </Trackpoint>
          <Trackpoint>
            <Time>2022-07-09T16:35:52.000Z</Time>
            <Position>
              <LatitudeDegrees>43.31619459204375743865966796875</LatitudeDegrees>
              <LongitudeDegrees>-2.0101159997284412384033203125</LongitudeDegrees>
            </Position>
            <AltitudeMeters>96.1999969482421875</AltitudeMeters>
            <DistanceMeters>NAN</DistanceMeters>
          </Trackpoint>
          <Trackpoint>
            <Time>2022-07-09T16:35:53.000Z</Time>
            <Position>
              <LatitudeDegrees>43.316176235675811767578125</LatitudeDegrees>
              <LongitudeDegrees>-2.01011071912944316864013671875</LongitudeDegrees>
            </Position>
            <AltitudeMeters>96.40000152587890625</AltitudeMeters>
            <DistanceMeters>NAN</DistanceMeters>
          </Trackpoint>
          <Trackpoint>
            <Time>2022-07-09T16:35:56.000Z</Time>
            <Position>
              <LatitudeDegrees>43.31612166948616504669189453125</LatitudeDegrees>
              <LongitudeDegrees>-2.01008439995348453521728515625</LongitudeDegrees>
            </Position>
            <AltitudeMeters>96.59999847412109375</AltitudeMeters>
            <DistanceMeters>NAN</DistanceMeters>
          </Trackpoint>
          <Trackpoint>
            <Time>2022-07-09T16:35:57.000Z</Time>
            <Position>
              <LatitudeDegrees>43.31611060537397861480712890625</LatitudeDegrees>
              <LongitudeDegrees>-2.0100734196603298187255859375</LongitudeDegrees>
            </Position>
            <AltitudeMeters>96.8000030517578125</AltitudeMeters>
            <DistanceMeters>NAN</DistanceMeters>
          </Trackpoint>
          <Trackpoint>
            <Time>2022-07-09T16:36:04.000Z</Time>
            <Position>
              <LatitudeDegrees>43.315999545156955718994140625</LatitudeDegrees>
              <LongitudeDegrees>-2.00996839441359043121337890625</LongitudeDegrees>
            </Position>
            <AltitudeMeters>97.59999847412109375</AltitudeMeters>
            <DistanceMeters>NAN</DistanceMeters>
          </Trackpoint>
          <Trackpoint>
            <Time>2022-07-09T16:36:07.000Z</Time>
            <Position>
              <LatitudeDegrees>43.31594950519502162933349609375</LatitudeDegrees>
              <LongitudeDegrees>-2.0099507085978984832763671875</LongitudeDegrees>
            </Position>
            <AltitudeMeters>97.8000030517578125</AltitudeMeters>
            <DistanceMeters>NAN</DistanceMeters>
          </Trackpoint>
          <Trackpoint>
            <Time>2022-07-09T16:36:12.000Z</Time>
            <Position>
              <LatitudeDegrees>43.31587725318968296051025390625</LatitudeDegrees>
              <LongitudeDegrees>-2.00995096005499362945556640625</LongitudeDegrees>
            </Position>
            <AltitudeMeters>98.40000152587890625</AltitudeMeters>
            <DistanceMeters>NAN</DistanceMeters>
          </Trackpoint>
          <Trackpoint>
            <Time>2022-07-09T16:36:14.000Z</Time>
            <Position>
              <LatitudeDegrees>43.315874151885509490966796875</LatitudeDegrees>
              <LongitudeDegrees>-2.0099523849785327911376953125</LongitudeDegrees>
            </Position>
            <AltitudeMeters>98.59999847412109375</AltitudeMeters>
            <DistanceMeters>NAN</DistanceMeters>
          </Trackpoint>
          <Trackpoint>
            <Time>2022-07-09T16:37:43.000Z</Time>
            <Position>
              <LatitudeDegrees>43.3158624172210693359375</LatitudeDegrees>
              <LongitudeDegrees>-2.00999789871275424957275390625</LongitudeDegrees>
            </Position>
            <AltitudeMeters>98.40000152587890625</AltitudeMeters>
            <DistanceMeters>NAN</DistanceMeters>
          </Trackpoint>
          <Trackpoint>
            <Time>2022-07-09T16:37:44.000Z</Time>
            <Position>
              <LatitudeDegrees>43.31585638225078582763671875</LatitudeDegrees>
              <LongitudeDegrees>-2.0100184343755245208740234375</LongitudeDegrees>
            </Position>
            <AltitudeMeters>98.40000152587890625</AltitudeMeters>
            <DistanceMeters>NAN</DistanceMeters>
          </Trackpoint>
          <Trackpoint>
            <Time>2022-07-09T16:37:48.000Z</Time>
            <Position>
              <LatitudeDegrees>43.31583534367382526397705078125</LatitudeDegrees>
              <LongitudeDegrees>-2.010102756321430206298828125</LongitudeDegrees>
            </Position>
            <AltitudeMeters>99.1999969482421875</AltitudeMeters>
            <DistanceMeters>NAN</DistanceMeters>
          </Trackpoint>
          <Trackpoint>
            <Time>2022-07-09T16:37:51.000Z</Time>
            <Position>
              <LatitudeDegrees>43.3158047497272491455078125</LatitudeDegrees>
              <LongitudeDegrees>-2.0101555623114109039306640625</LongitudeDegrees>
            </Position>
            <AltitudeMeters>99.59999847412109375</AltitudeMeters>
            <DistanceMeters>NAN</DistanceMeters>
          </Trackpoint>
          <Trackpoint>
            <Time>2022-07-09T16:37:56.000Z</Time>
            <Position>
              <LatitudeDegrees>43.3157402090728282928466796875</LatitudeDegrees>
              <LongitudeDegrees>-2.01025840826332569122314453125</LongitudeDegrees>
            </Position>
            <AltitudeMeters>100.1999969482421875</AltitudeMeters>
            <DistanceMeters>NAN</DistanceMeters>
          </Trackpoint>
          <Trackpoint>
            <Time>2022-07-09T16:38:03.000Z</Time>
            <Position>
              <LatitudeDegrees>43.31565228290855884552001953125</LatitudeDegrees>
              <LongitudeDegrees>-2.0103599131107330322265625</LongitudeDegrees>
            </Position>
            <AltitudeMeters>101</AltitudeMeters>
            <DistanceMeters>NAN</DistanceMeters>
          </Trackpoint>
          <Trackpoint>
            <Time>2022-07-09T16:38:04.000Z</Time>
            <Position>
              <LatitudeDegrees>43.31564222462475299835205078125</LatitudeDegrees>
              <LongitudeDegrees>-2.010372988879680633544921875</LongitudeDegrees>
            </Position>
            <AltitudeMeters>101.1999969482421875</AltitudeMeters>
            <DistanceMeters>NAN</DistanceMeters>
          </Trackpoint>
          <Trackpoint>
            <Time>2022-07-09T16:38:06.000Z</Time>
            <Position>
              <LatitudeDegrees>43.3156151510775089263916015625</LatitudeDegrees>
              <LongitudeDegrees>-2.01038028113543987274169921875</LongitudeDegrees>
            </Position>
            <AltitudeMeters>101.1999969482421875</AltitudeMeters>
            <DistanceMeters>NAN</DistanceMeters>
          </Trackpoint>
          <Trackpoint>
            <Time>2022-07-09T16:38:07.000Z</Time>
            <Position>
              <LatitudeDegrees>43.31560182385146617889404296875</LatitudeDegrees>
              <LongitudeDegrees>-2.01038279570639133453369140625</LongitudeDegrees>
            </Position>
            <AltitudeMeters>101.40000152587890625</AltitudeMeters>
            <DistanceMeters>NAN</DistanceMeters>
          </Trackpoint>
          <Trackpoint>
            <Time>2022-07-09T16:38:08.000Z</Time>
            <Position>
              <LatitudeDegrees>43.31558883190155029296875</LatitudeDegrees>
              <LongitudeDegrees>-2.010394446551799774169921875</LongitudeDegrees>
            </Position>
            <AltitudeMeters>101.40000152587890625</AltitudeMeters>
            <DistanceMeters>NAN</DistanceMeters>
          </Trackpoint>
          <Trackpoint>
            <Time>2022-07-09T16:38:11.000Z</Time>
            <Position>
              <LatitudeDegrees>43.31555907614529132843017578125</LatitudeDegrees>
              <LongitudeDegrees>-2.01043359003961086273193359375</LongitudeDegrees>
            </Position>
            <AltitudeMeters>101.59999847412109375</AltitudeMeters>
            <DistanceMeters>NAN</DistanceMeters>
          </Trackpoint>
          <Trackpoint>
            <Time>2022-07-09T16:38:12.000Z</Time>
            <Position>
              <LatitudeDegrees>43.315549604594707489013671875</LatitudeDegrees>
              <LongitudeDegrees>-2.01044247485697269439697265625</LongitudeDegrees>
            </Position>
            <AltitudeMeters>101.59999847412109375</AltitudeMeters>
            <DistanceMeters>NAN</DistanceMeters>
          </Trackpoint>
          <Trackpoint>
            <Time>2022-07-09T16:38:13.000Z</Time>
            <Position>
              <LatitudeDegrees>43.31553443334996700286865234375</LatitudeDegrees>
              <LongitudeDegrees>-2.010444737970829010009765625</LongitudeDegrees>
            </Position>
            <AltitudeMeters>101.59999847412109375</AltitudeMeters>
            <DistanceMeters>NAN</DistanceMeters>
          </Trackpoint>
          <Trackpoint>
            <Time>2022-07-09T16:38:15.000Z</Time>
            <Position>
              <LatitudeDegrees>43.3155159093439579010009765625</LatitudeDegrees>
              <LongitudeDegrees>-2.01045840047299861907958984375</LongitudeDegrees>
            </Position>
            <AltitudeMeters>101.8000030517578125</AltitudeMeters>
            <DistanceMeters>NAN</DistanceMeters>
          </Trackpoint>
          <Trackpoint>
            <Time>2022-07-09T16:38:18.000Z</Time>
            <Position>
              <LatitudeDegrees>43.3155232854187488555908203125</LatitudeDegrees>
              <LongitudeDegrees>-2.0105200074613094329833984375</LongitudeDegrees>
            </Position>
            <AltitudeMeters>102.1999969482421875</AltitudeMeters>
            <DistanceMeters>NAN</DistanceMeters>
          </Trackpoint>
          <Trackpoint>
            <Time>2022-07-09T16:38:21.000Z</Time>
            <Position>
              <LatitudeDegrees>43.31551984883844852447509765625</LatitudeDegrees>
              <LongitudeDegrees>-2.0105592347681522369384765625</LongitudeDegrees>
            </Position>
            <AltitudeMeters>102.8000030517578125</AltitudeMeters>
            <DistanceMeters>NAN</DistanceMeters>
          </Trackpoint>
          <Trackpoint>
            <Time>2022-07-09T16:38:23.000Z</Time>
            <Position>
              <LatitudeDegrees>43.31551867537200450897216796875</LatitudeDegrees>
              <LongitudeDegrees>-2.010563425719738006591796875</LongitudeDegrees>
            </Position>
            <AltitudeMeters>102.8000030517578125</AltitudeMeters>
            <DistanceMeters>NAN</DistanceMeters>
          </Trackpoint>
          <Trackpoint>
            <Time>2022-07-09T16:38:24.000Z</Time>
            <Position>
              <LatitudeDegrees>43.31550828181207180023193359375</LatitudeDegrees>
              <LongitudeDegrees>-2.0105733163654804229736328125</LongitudeDegrees>
            </Position>
            <AltitudeMeters>102.8000030517578125</AltitudeMeters>
            <DistanceMeters>NAN</DistanceMeters>
          </Trackpoint>
          <Trackpoint>
            <Time>2022-07-09T16:38:49.000Z</Time>
            <Position>
              <LatitudeDegrees>43.315542228519916534423828125</LatitudeDegrees>
              <LongitudeDegrees>-2.01066367328166961669921875</LongitudeDegrees>
            </Position>
            <AltitudeMeters>104.40000152587890625</AltitudeMeters>
            <DistanceMeters>NAN</DistanceMeters>
          </Trackpoint>
          <Trackpoint>
            <Time>2022-07-09T16:38:51.000Z</Time>
            <Position>
              <LatitudeDegrees>43.315542228519916534423828125</LatitudeDegrees>
              <LongitudeDegrees>-2.01066367328166961669921875</LongitudeDegrees>
            </Position>
            <AltitudeMeters>104.59999847412109375</AltitudeMeters>
            <DistanceMeters>NAN</DistanceMeters>
          </Trackpoint>
          <Trackpoint>
            <Time>2022-07-09T16:39:23.000Z</Time>
            <Position>
              <LatitudeDegrees>43.315544910728931427001953125</LatitudeDegrees>
              <LongitudeDegrees>-2.01095402240753173828125</LongitudeDegrees>
            </Position>
            <AltitudeMeters>107.8000030517578125</AltitudeMeters>
            <DistanceMeters>NAN</DistanceMeters>
          </Trackpoint>
          <Trackpoint>
            <Time>2022-07-09T16:39:25.000Z</Time>
            <Position>
              <LatitudeDegrees>43.31553778611123561859130859375</LatitudeDegrees>
              <LongitudeDegrees>-2.010976485908031463623046875</LongitudeDegrees>
            </Position>
            <AltitudeMeters>108</AltitudeMeters>
            <DistanceMeters>NAN</DistanceMeters>
          </Trackpoint>
          <Trackpoint>
            <Time>2022-07-09T16:39:29.000Z</Time>
            <Position>
              <LatitudeDegrees>43.31554348580539226531982421875</LatitudeDegrees>
              <LongitudeDegrees>-2.0110292918980121612548828125</LongitudeDegrees>
            </Position>
            <AltitudeMeters>108.8000030517578125</AltitudeMeters>
            <DistanceMeters>NAN</DistanceMeters>
          </Trackpoint>
          <Trackpoint>
            <Time>2022-07-09T16:39:30.000Z</Time>
            <Position>
              <LatitudeDegrees>43.31554549746215343475341796875</LatitudeDegrees>
              <LongitudeDegrees>-2.01102669350802898406982421875</LongitudeDegrees>
            </Position>
            <AltitudeMeters>109.1999969482421875</AltitudeMeters>
            <DistanceMeters>NAN</DistanceMeters>
          </Trackpoint>
          <Trackpoint>
            <Time>2022-07-09T16:39:33.000Z</Time>
            <Position>
              <LatitudeDegrees>43.3155658654868602752685546875</LatitudeDegrees>
              <LongitudeDegrees>-2.0110765658318996429443359375</LongitudeDegrees>
            </Position>
            <AltitudeMeters>109.40000152587890625</AltitudeMeters>
            <DistanceMeters>NAN</DistanceMeters>
          </Trackpoint>
          <Trackpoint>
            <Time>2022-07-09T16:39:34.000Z</Time>
            <Position>
              <LatitudeDegrees>43.3155658654868602752685546875</LatitudeDegrees>
              <LongitudeDegrees>-2.0110765658318996429443359375</LongitudeDegrees>
            </Position>
            <AltitudeMeters>109.59999847412109375</AltitudeMeters>
            <DistanceMeters>NAN</DistanceMeters>
          </Trackpoint>
          <Trackpoint>
            <Time>2022-07-09T16:39:37.000Z</Time>
            <Position>
              <LatitudeDegrees>43.3155685476958751678466796875</LatitudeDegrees>
              <LongitudeDegrees>-2.01110112480819225311279296875</LongitudeDegrees>
            </Position>
            <AltitudeMeters>109.8000030517578125</AltitudeMeters>
            <DistanceMeters>NAN</DistanceMeters>
          </Trackpoint>
          <Trackpoint>
            <Time>2022-07-09T16:39:38.000Z</Time>
            <Position>
              <LatitudeDegrees>43.31557768397033214569091796875</LatitudeDegrees>
              <LongitudeDegrees>-2.011128365993499755859375</LongitudeDegrees>
            </Position>
            <AltitudeMeters>109.8000030517578125</AltitudeMeters>
            <DistanceMeters>NAN</DistanceMeters>
          </Trackpoint>
          <Trackpoint>
            <Time>2022-07-09T16:39:40.000Z</Time>
            <Position>
              <LatitudeDegrees>43.315571062266826629638671875</LatitudeDegrees>
              <LongitudeDegrees>-2.011136077344417572021484375</LongitudeDegrees>
            </Position>
            <AltitudeMeters>110.1999969482421875</AltitudeMeters>
            <DistanceMeters>NAN</DistanceMeters>
          </Trackpoint>
          <Trackpoint>
            <Time>2022-07-09T16:39:41.000Z</Time>
            <Position>
              <LatitudeDegrees>43.31557206809520721435546875</LatitudeDegrees>
              <LongitudeDegrees>-2.01114001683890819549560546875</LongitudeDegrees>
            </Position>
            <AltitudeMeters>110.40000152587890625</AltitudeMeters>
            <DistanceMeters>NAN</DistanceMeters>
          </Trackpoint>
          <Trackpoint>
            <Time>2022-07-09T16:39:44.000Z</Time>
            <Position>
              <LatitudeDegrees>43.3155846409499645233154296875</LatitudeDegrees>
              <LongitudeDegrees>-2.01112744398415088653564453125</LongitudeDegrees>
            </Position>
            <AltitudeMeters>111</AltitudeMeters>
            <DistanceMeters>NAN</DistanceMeters>
          </Trackpoint>
          <Trackpoint>
            <Time>2022-07-09T16:39:48.000Z</Time>
            <Position>
              <LatitudeDegrees>43.31558279693126678466796875</LatitudeDegrees>
              <LongitudeDegrees>-2.01113431714475154876708984375</LongitudeDegrees>
            </Position>
            <AltitudeMeters>111.1999969482421875</AltitudeMeters>
            <DistanceMeters>NAN</DistanceMeters>
          </Trackpoint>
          <Trackpoint>
            <Time>2022-07-09T16:39:52.000Z</Time>
            <Position>
              <LatitudeDegrees>43.315597213804721832275390625</LatitudeDegrees>
              <LongitudeDegrees>-2.01118133962154388427734375</LongitudeDegrees>
            </Position>
            <AltitudeMeters>111.40000152587890625</AltitudeMeters>
            <DistanceMeters>NAN</DistanceMeters>
          </Trackpoint>
          <Trackpoint>
            <Time>2022-07-09T16:39:53.000Z</Time>
            <Position>
              <LatitudeDegrees>43.3156000636518001556396484375</LatitudeDegrees>
              <LongitudeDegrees>-2.0111967623233795166015625</LongitudeDegrees>
            </Position>
            <AltitudeMeters>111.40000152587890625</AltitudeMeters>
            <DistanceMeters>NAN</DistanceMeters>
          </Trackpoint>
          <Trackpoint>
            <Time>2022-07-09T16:39:57.000Z</Time>
            <Position>
              <LatitudeDegrees>43.315599225461483001708984375</LatitudeDegrees>
              <LongitudeDegrees>-2.01121293939650058746337890625</LongitudeDegrees>
            </Position>
            <AltitudeMeters>112</AltitudeMeters>
            <DistanceMeters>NAN</DistanceMeters>
          </Trackpoint>
          <Trackpoint>
            <Time>2022-07-09T16:41:36.000Z</Time>
            <Position>
              <LatitudeDegrees>43.31577968783676624298095703125</LatitudeDegrees>
              <LongitudeDegrees>-2.01158023439347743988037109375</LongitudeDegrees>
            </Position>
            <AltitudeMeters>117.40000152587890625</AltitudeMeters>
            <DistanceMeters>NAN</DistanceMeters>
          </Trackpoint>
          <Trackpoint>
            <Time>2022-07-09T16:41:37.000Z</Time>
            <Position>
              <LatitudeDegrees>43.31579879857599735260009765625</LatitudeDegrees>
              <LongitudeDegrees>-2.0116230659186840057373046875</LongitudeDegrees>
            </Position>
            <AltitudeMeters>117.1999969482421875</AltitudeMeters>
            <DistanceMeters>NAN</DistanceMeters>
          </Trackpoint>
          <Trackpoint>
            <Time>2022-07-09T16:41:42.000Z</Time>
            <Position>
              <LatitudeDegrees>43.31585110165178775787353515625</LatitudeDegrees>
              <LongitudeDegrees>-2.0117895305156707763671875</LongitudeDegrees>
            </Position>
            <AltitudeMeters>117.40000152587890625</AltitudeMeters>
            <DistanceMeters>NAN</DistanceMeters>
          </Trackpoint>
          <Trackpoint>
            <Time>2022-07-09T16:41:47.000Z</Time>
            <Position>
              <LatitudeDegrees>43.315904997289180755615234375</LatitudeDegrees>
              <LongitudeDegrees>-2.0118926279246807098388671875</LongitudeDegrees>
            </Position>
            <AltitudeMeters>118</AltitudeMeters>
            <DistanceMeters>NAN</DistanceMeters>
          </Trackpoint>
          <Trackpoint>
            <Time>2022-07-09T16:41:50.000Z</Time>
            <Position>
              <LatitudeDegrees>43.3159420453011989593505859375</LatitudeDegrees>
              <LongitudeDegrees>-2.01195457018911838531494140625</LongitudeDegrees>
            </Position>
            <AltitudeMeters>118.40000152587890625</AltitudeMeters>
            <DistanceMeters>NAN</DistanceMeters>
          </Trackpoint>
          <Trackpoint>
            <Time>2022-07-09T16:41:53.000Z</Time>
            <Position>
              <LatitudeDegrees>43.31600231118500232696533203125</LatitudeDegrees>
              <LongitudeDegrees>-2.0119965635240077972412109375</LongitudeDegrees>
            </Position>
            <AltitudeMeters>118.59999847412109375</AltitudeMeters>
            <DistanceMeters>NAN</DistanceMeters>
          </Trackpoint>
          <Trackpoint>
            <Time>2022-07-09T16:41:59.000Z</Time>
            <Position>
              <LatitudeDegrees>43.3160711266100406646728515625</LatitudeDegrees>
              <LongitudeDegrees>-2.01212011277675628662109375</LongitudeDegrees>
            </Position>
            <AltitudeMeters>119.59999847412109375</AltitudeMeters>
            <DistanceMeters>NAN</DistanceMeters>
          </Trackpoint>
          <Trackpoint>
            <Time>2022-07-09T16:42:01.000Z</Time>
            <Position>
              <LatitudeDegrees>43.31608428619801998138427734375</LatitudeDegrees>
              <LongitudeDegrees>-2.01215204782783985137939453125</LongitudeDegrees>
            </Position>
            <AltitudeMeters>119.8000030517578125</AltitudeMeters>
            <DistanceMeters>NAN</DistanceMeters>
          </Trackpoint>
          <Trackpoint>
            <Time>2022-07-09T16:42:05.000Z</Time>
            <Position>
              <LatitudeDegrees>43.316132985055446624755859375</LatitudeDegrees>
              <LongitudeDegrees>-2.012200914323329925537109375</LongitudeDegrees>
            </Position>
            <AltitudeMeters>120.59999847412109375</AltitudeMeters>
            <DistanceMeters>NAN</DistanceMeters>
          </Trackpoint>
          <Trackpoint>
            <Time>2022-07-09T16:42:08.000Z</Time>
            <Position>
              <LatitudeDegrees>43.31617799587547779083251953125</LatitudeDegrees>
              <LongitudeDegrees>-2.01224760152399539947509765625</LongitudeDegrees>
            </Position>
            <AltitudeMeters>121</AltitudeMeters>
            <DistanceMeters>NAN</DistanceMeters>
          </Trackpoint>
          <Trackpoint>
            <Time>2022-07-09T16:42:11.000Z</Time>
            <Position>
              <LatitudeDegrees>43.31624739803373813629150390625</LatitudeDegrees>
              <LongitudeDegrees>-2.01229353435337543487548828125</LongitudeDegrees>
            </Position>
            <AltitudeMeters>121.59999847412109375</AltitudeMeters>
            <DistanceMeters>NAN</DistanceMeters>
          </Trackpoint>
          <Trackpoint>
            <Time>2022-07-09T16:42:13.000Z</Time>
            <Position>
              <LatitudeDegrees>43.31625963561236858367919921875</LatitudeDegrees>
              <LongitudeDegrees>-2.0123254694044589996337890625</LongitudeDegrees>
            </Position>
            <AltitudeMeters>122</AltitudeMeters>
            <DistanceMeters>NAN</DistanceMeters>
          </Trackpoint>
          <Trackpoint>
            <Time>2022-07-09T16:42:15.000Z</Time>
            <Position>
              <LatitudeDegrees>43.31624488346278667449951171875</LatitudeDegrees>
              <LongitudeDegrees>-2.0123432390391826629638671875</LongitudeDegrees>
            </Position>
            <AltitudeMeters>122.40000152587890625</AltitudeMeters>
            <DistanceMeters>NAN</DistanceMeters>
          </Trackpoint>
          <Trackpoint>
            <Time>2022-07-09T16:42:17.000Z</Time>
            <Position>
              <LatitudeDegrees>43.31622560508549213409423828125</LatitudeDegrees>
              <LongitudeDegrees>-2.01237626373767852783203125</LongitudeDegrees>
            </Position>
            <AltitudeMeters>122.59999847412109375</AltitudeMeters>
            <DistanceMeters>NAN</DistanceMeters>
          </Trackpoint>
          <Trackpoint>
            <Time>2022-07-09T16:42:20.000Z</Time>
            <Position>
              <LatitudeDegrees>43.3162387646734714508056640625</LatitudeDegrees>
              <LongitudeDegrees>-2.01237701810896396636962890625</LongitudeDegrees>
            </Position>
            <AltitudeMeters>123.1999969482421875</AltitudeMeters>
            <DistanceMeters>NAN</DistanceMeters>
          </Trackpoint>
          <Trackpoint>
            <Time>2022-07-09T16:42:22.000Z</Time>
            <Position>
              <LatitudeDegrees>43.31628310494124889373779296875</LatitudeDegrees>
              <LongitudeDegrees>-2.01243518851697444915771484375</LongitudeDegrees>
            </Position>
            <AltitudeMeters>123.8000030517578125</AltitudeMeters>
            <DistanceMeters>NAN</DistanceMeters>
          </Trackpoint>
          <Trackpoint>
            <Time>2022-07-09T16:42:24.000Z</Time>
            <Position>
              <LatitudeDegrees>43.3163326419889926910400390625</LatitudeDegrees>
              <LongitudeDegrees>-2.01248497702181339263916015625</LongitudeDegrees>
            </Position>
            <AltitudeMeters>124</AltitudeMeters>
            <DistanceMeters>NAN</DistanceMeters>
          </Trackpoint>
          <Trackpoint>
            <Time>2022-07-09T16:42:25.000Z</Time>
            <Position>
              <LatitudeDegrees>43.3163403533399105072021484375</LatitudeDegrees>
              <LongitudeDegrees>-2.0124954544007778167724609375</LongitudeDegrees>
            </Position>
            <AltitudeMeters>124.1999969482421875</AltitudeMeters>
            <DistanceMeters>NAN</DistanceMeters>
          </Trackpoint>
          <Trackpoint>
            <Time>2022-07-09T16:42:28.000Z</Time>
            <Position>
              <LatitudeDegrees>43.31635518930852413177490234375</LatitudeDegrees>
              <LongitudeDegrees>-2.01251448132097721099853515625</LongitudeDegrees>
            </Position>
            <AltitudeMeters>124.59999847412109375</AltitudeMeters>
            <DistanceMeters>NAN</DistanceMeters>
          </Trackpoint>
          <Trackpoint>
            <Time>2022-07-09T16:42:29.000Z</Time>
            <Position>
              <LatitudeDegrees>43.3163665048778057098388671875</LatitudeDegrees>
              <LongitudeDegrees>-2.01252202503383159637451171875</LongitudeDegrees>
            </Position>
            <AltitudeMeters>124.8000030517578125</AltitudeMeters>
            <DistanceMeters>NAN</DistanceMeters>
          </Trackpoint>
          <Trackpoint>
            <Time>2022-07-09T16:42:30.000Z</Time>
            <Position>
              <LatitudeDegrees>43.31637999974191188812255859375</LatitudeDegrees>
              <LongitudeDegrees>-2.01253141276538372039794921875</LongitudeDegrees>
            </Position>
            <AltitudeMeters>124.8000030517578125</AltitudeMeters>
            <DistanceMeters>NAN</DistanceMeters>
          </Trackpoint>
          <Trackpoint>
            <Time>2022-07-09T16:42:35.000Z</Time>
            <Position>
              <LatitudeDegrees>43.31640447489917278289794921875</LatitudeDegrees>
              <LongitudeDegrees>-2.01258949935436248779296875</LongitudeDegrees>
            </Position>
            <AltitudeMeters>125.59999847412109375</AltitudeMeters>
            <DistanceMeters>NAN</DistanceMeters>
          </Trackpoint>
          <Trackpoint>
            <Time>2022-07-09T16:42:37.000Z</Time>
            <Position>
              <LatitudeDegrees>43.3164204843342304229736328125</LatitudeDegrees>
              <LongitudeDegrees>-2.01262227259576320648193359375</LongitudeDegrees>
            </Position>
            <AltitudeMeters>125.8000030517578125</AltitudeMeters>
            <DistanceMeters>NAN</DistanceMeters>
          </Trackpoint>
          <Trackpoint>
            <Time>2022-07-09T16:42:41.000Z</Time>
            <Position>
              <LatitudeDegrees>43.31648678518831729888916015625</LatitudeDegrees>
              <LongitudeDegrees>-2.01268664561212062835693359375</LongitudeDegrees>
            </Position>
            <AltitudeMeters>126.1999969482421875</AltitudeMeters>
            <DistanceMeters>NAN</DistanceMeters>
          </Trackpoint>
          <Trackpoint>
            <Time>2022-07-09T16:42:43.000Z</Time>
            <Position>
              <LatitudeDegrees>43.316505141556262969970703125</LatitudeDegrees>
              <LongitudeDegrees>-2.01272252015769481658935546875</LongitudeDegrees>
            </Position>
            <AltitudeMeters>126.40000152587890625</AltitudeMeters>
            <DistanceMeters>NAN</DistanceMeters>
          </Trackpoint>
          <Trackpoint>
            <Time>2022-07-09T16:42:48.000Z</Time>
            <Position>
              <LatitudeDegrees>43.31654847599565982818603515625</LatitudeDegrees>
              <LongitudeDegrees>-2.01279602944850921630859375</LongitudeDegrees>
            </Position>
            <AltitudeMeters>126.8000030517578125</AltitudeMeters>
            <DistanceMeters>NAN</DistanceMeters>
          </Trackpoint>
          <Trackpoint>
            <Time>2022-07-09T16:42:49.000Z</Time>
            <Position>
              <LatitudeDegrees>43.31655032001435756683349609375</LatitudeDegrees>
              <LongitudeDegrees>-2.0128139667212963104248046875</LongitudeDegrees>
            </Position>
            <AltitudeMeters>126.8000030517578125</AltitudeMeters>
            <DistanceMeters>NAN</DistanceMeters>
          </Trackpoint>
          <Trackpoint>
            <Time>2022-07-09T16:42:50.000Z</Time>
            <Position>
              <LatitudeDegrees>43.3165562711656093597412109375</LatitudeDegrees>
              <LongitudeDegrees>-2.01283751986920833587646484375</LongitudeDegrees>
            </Position>
            <AltitudeMeters>127</AltitudeMeters>
            <DistanceMeters>NAN</DistanceMeters>
          </Trackpoint>
          <Trackpoint>
            <Time>2022-07-09T16:42:54.000Z</Time>
            <Position>
              <LatitudeDegrees>43.3165887929499149322509765625</LatitudeDegrees>
              <LongitudeDegrees>-2.01288127340376377105712890625</LongitudeDegrees>
            </Position>
            <AltitudeMeters>127.40000152587890625</AltitudeMeters>
            <DistanceMeters>NAN</DistanceMeters>
          </Trackpoint>
          <Trackpoint>
            <Time>2022-07-09T16:42:58.000Z</Time>
            <Position>
              <LatitudeDegrees>43.316617794334888458251953125</LatitudeDegrees>
              <LongitudeDegrees>-2.012925781309604644775390625</LongitudeDegrees>
            </Position>
            <AltitudeMeters>127.8000030517578125</AltitudeMeters>
            <DistanceMeters>NAN</DistanceMeters>
          </Trackpoint>
          <Trackpoint>
            <Time>2022-07-09T16:43:00.000Z</Time>
            <Position>
              <LatitudeDegrees>43.3166085742413997650146484375</LatitudeDegrees>
              <LongitudeDegrees>-2.0129571296274662017822265625</LongitudeDegrees>
            </Position>
            <AltitudeMeters>128</AltitudeMeters>
            <DistanceMeters>NAN</DistanceMeters>
          </Trackpoint>
          <Trackpoint>
            <Time>2022-07-09T16:43:02.000Z</Time>
            <Position>
              <LatitudeDegrees>43.316597677767276763916015625</LatitudeDegrees>
              <LongitudeDegrees>-2.01299794949591159820556640625</LongitudeDegrees>
            </Position>
            <AltitudeMeters>128.1999969482421875</AltitudeMeters>
            <DistanceMeters>NAN</DistanceMeters>
          </Trackpoint>
          <Trackpoint>
            <Time>2022-07-09T16:43:04.000Z</Time>
            <Position>
              <LatitudeDegrees>43.31661251373589038848876953125</LatitudeDegrees>
              <LongitudeDegrees>-2.01303063891828060150146484375</LongitudeDegrees>
            </Position>
            <AltitudeMeters>128.600006103515625</AltitudeMeters>
            <DistanceMeters>NAN</DistanceMeters>
          </Trackpoint>
          <Trackpoint>
            <Time>2022-07-09T16:43:07.000Z</Time>
            <Position>
              <LatitudeDegrees>43.31665626727044582366943359375</LatitudeDegrees>
              <LongitudeDegrees>-2.01307623647153377532958984375</LongitudeDegrees>
            </Position>
            <AltitudeMeters>128.8000030517578125</AltitudeMeters>
            <DistanceMeters>NAN</DistanceMeters>
          </Trackpoint>
          <Trackpoint>
            <Time>2022-07-09T16:43:08.000Z</Time>
            <Position>
              <LatitudeDegrees>43.3166684210300445556640625</LatitudeDegrees>
              <LongitudeDegrees>-2.01308378018438816070556640625</LongitudeDegrees>
            </Position>
            <AltitudeMeters>128.8000030517578125</AltitudeMeters>
            <DistanceMeters>NAN</DistanceMeters>
          </Trackpoint>
          <Trackpoint>
            <Time>2022-07-09T16:43:09.000Z</Time>
            <Position>
              <LatitudeDegrees>43.31667671911418437957763671875</LatitudeDegrees>
              <LongitudeDegrees>-2.013099454343318939208984375</LongitudeDegrees>
            </Position>
            <AltitudeMeters>129</AltitudeMeters>
            <DistanceMeters>NAN</DistanceMeters>
          </Trackpoint>
          <Trackpoint>
            <Time>2022-07-09T16:43:16.000Z</Time>
            <Position>
              <LatitudeDegrees>43.3167400024831295013427734375</LatitudeDegrees>
              <LongitudeDegrees>-2.01317581348121166229248046875</LongitudeDegrees>
            </Position>
            <AltitudeMeters>129.8000030517578125</AltitudeMeters>
            <DistanceMeters>NAN</DistanceMeters>
          </Trackpoint>
          <Trackpoint>
            <Time>2022-07-09T16:43:17.000Z</Time>
            <Position>
              <LatitudeDegrees>43.3167426846921443939208984375</LatitudeDegrees>
              <LongitudeDegrees>-2.0131888054311275482177734375</LongitudeDegrees>
            </Position>
            <AltitudeMeters>130</AltitudeMeters>
            <DistanceMeters>NAN</DistanceMeters>
          </Trackpoint>
          <Trackpoint>
            <Time>2022-07-09T16:43:19.000Z</Time>
            <Position>
              <LatitudeDegrees>43.31675500608980655670166015625</LatitudeDegrees>
              <LongitudeDegrees>-2.01319844461977481842041015625</LongitudeDegrees>
            </Position>
            <AltitudeMeters>130.1999969482421875</AltitudeMeters>
            <DistanceMeters>NAN</DistanceMeters>
          </Trackpoint>
          <Trackpoint>
            <Time>2022-07-09T16:43:22.000Z</Time>
            <Position>
              <LatitudeDegrees>43.31677428446710109710693359375</LatitudeDegrees>
              <LongitudeDegrees>-2.01323465444147586822509765625</LongitudeDegrees>
            </Position>
            <AltitudeMeters>130.600006103515625</AltitudeMeters>
            <DistanceMeters>NAN</DistanceMeters>
          </Trackpoint>
          <Trackpoint>
            <Time>2022-07-09T16:43:24.000Z</Time>
            <Position>
              <LatitudeDegrees>43.31680051982402801513671875</LatitudeDegrees>
              <LongitudeDegrees>-2.0132545195519924163818359375</LongitudeDegrees>
            </Position>
            <AltitudeMeters>130.8000030517578125</AltitudeMeters>
            <DistanceMeters>NAN</DistanceMeters>
          </Trackpoint>
          <Trackpoint>
            <Time>2022-07-09T16:43:26.000Z</Time>
            <Position>
              <LatitudeDegrees>43.31682189367711544036865234375</LatitudeDegrees>
              <LongitudeDegrees>-2.013282515108585357666015625</LongitudeDegrees>
            </Position>
            <AltitudeMeters>131</AltitudeMeters>
            <DistanceMeters>NAN</DistanceMeters>
          </Trackpoint>
          <Trackpoint>
            <Time>2022-07-09T16:43:28.000Z</Time>
            <Position>
              <LatitudeDegrees>43.31683245487511157989501953125</LatitudeDegrees>
              <LongitudeDegrees>-2.0133007876574993133544921875</LongitudeDegrees>
            </Position>
            <AltitudeMeters>131.399993896484375</AltitudeMeters>
            <DistanceMeters>NAN</DistanceMeters>
          </Trackpoint>
          <Trackpoint>
            <Time>2022-07-09T16:43:29.000Z</Time>
            <Position>
              <LatitudeDegrees>43.31684821285307407379150390625</LatitudeDegrees>
              <LongitudeDegrees>-2.013322077691555023193359375</LongitudeDegrees>
            </Position>
            <AltitudeMeters>131.399993896484375</AltitudeMeters>
            <DistanceMeters>NAN</DistanceMeters>
          </Trackpoint>
          <Trackpoint>
            <Time>2022-07-09T16:43:30.000Z</Time>
            <Position>
              <LatitudeDegrees>43.31685994751751422882080078125</LatitudeDegrees>
              <LongitudeDegrees>-2.01333892531692981719970703125</LongitudeDegrees>
            </Position>
            <AltitudeMeters>131.600006103515625</AltitudeMeters>
            <DistanceMeters>NAN</DistanceMeters>
          </Trackpoint>
          <Trackpoint>
            <Time>2022-07-09T16:43:32.000Z</Time>
            <Position>
              <LatitudeDegrees>43.3168734423816204071044921875</LatitudeDegrees>
              <LongitudeDegrees>-2.0133720338344573974609375</LongitudeDegrees>
            </Position>
            <AltitudeMeters>131.8000030517578125</AltitudeMeters>
            <DistanceMeters>NAN</DistanceMeters>
          </Trackpoint>
          <Trackpoint>
            <Time>2022-07-09T16:43:34.000Z</Time>
            <Position>
              <LatitudeDegrees>43.3168972469866275787353515625</LatitudeDegrees>
              <LongitudeDegrees>-2.01342358253896236419677734375</LongitudeDegrees>
            </Position>
            <AltitudeMeters>132</AltitudeMeters>
            <DistanceMeters>NAN</DistanceMeters>
          </Trackpoint>
          <Trackpoint>
            <Time>2022-07-09T16:43:37.000Z</Time>
            <Position>
              <LatitudeDegrees>43.3169461973011493682861328125</LatitudeDegrees>
              <LongitudeDegrees>-2.0134982652962207794189453125</LongitudeDegrees>
            </Position>
            <AltitudeMeters>132.399993896484375</AltitudeMeters>
            <DistanceMeters>NAN</DistanceMeters>
          </Trackpoint>
          <Trackpoint>
            <Time>2022-07-09T16:43:38.000Z</Time>
            <Position>
              <LatitudeDegrees>43.31695147790014743804931640625</LatitudeDegrees>
              <LongitudeDegrees>-2.013513855636119842529296875</LongitudeDegrees>
            </Position>
            <AltitudeMeters>132.600006103515625</AltitudeMeters>
            <DistanceMeters>NAN</DistanceMeters>
          </Trackpoint>
          <Trackpoint>
            <Time>2022-07-09T16:43:39.000Z</Time>
            <Position>
              <LatitudeDegrees>43.31695608794689178466796875</LatitudeDegrees>
              <LongitudeDegrees>-2.01352315954864025115966796875</LongitudeDegrees>
            </Position>
            <AltitudeMeters>132.600006103515625</AltitudeMeters>
            <DistanceMeters>NAN</DistanceMeters>
          </Trackpoint>
          <Trackpoint>
            <Time>2022-07-09T16:43:41.000Z</Time>
            <Position>
              <LatitudeDegrees>43.316948711872100830078125</LatitudeDegrees>
              <LongitudeDegrees>-2.0135364867746829986572265625</LongitudeDegrees>
            </Position>
            <AltitudeMeters>132.600006103515625</AltitudeMeters>
            <DistanceMeters>NAN</DistanceMeters>
          </Trackpoint>
          <Trackpoint>
            <Time>2022-07-09T16:43:42.000Z</Time>
            <Position>
              <LatitudeDegrees>43.316980563104152679443359375</LatitudeDegrees>
              <LongitudeDegrees>-2.01356456615030765533447265625</LongitudeDegrees>
            </Position>
            <AltitudeMeters>132.8000030517578125</AltitudeMeters>
            <DistanceMeters>NAN</DistanceMeters>
          </Trackpoint>
          <Trackpoint>
            <Time>2022-07-09T16:43:45.000Z</Time>
            <Position>
              <LatitudeDegrees>43.31702875904738903045654296875</LatitudeDegrees>
              <LongitudeDegrees>-2.01365073211491107940673828125</LongitudeDegrees>
            </Position>
            <AltitudeMeters>132.8000030517578125</AltitudeMeters>
            <DistanceMeters>NAN</DistanceMeters>
          </Trackpoint>
          <Trackpoint>
            <Time>2022-07-09T16:43:48.000Z</Time>
            <Position>
              <LatitudeDegrees>43.31704602576792240142822265625</LatitudeDegrees>
              <LongitudeDegrees>-2.0137322880327701568603515625</LongitudeDegrees>
            </Position>
            <AltitudeMeters>132.8000030517578125</AltitudeMeters>
            <DistanceMeters>NAN</DistanceMeters>
          </Trackpoint>
          <Trackpoint>
            <Time>2022-07-09T16:43:51.000Z</Time>
            <Position>
              <LatitudeDegrees>43.3170689083635807037353515625</LatitudeDegrees>
              <LongitudeDegrees>-2.01379909180104732513427734375</LongitudeDegrees>
            </Position>
            <AltitudeMeters>132.8000030517578125</AltitudeMeters>
            <DistanceMeters>NAN</DistanceMeters>
          </Trackpoint>
          <Trackpoint>
            <Time>2022-07-09T16:43:53.000Z</Time>
            <Position>
              <LatitudeDegrees>43.31708483397960662841796875</LatitudeDegrees>
              <LongitudeDegrees>-2.013836391270160675048828125</LongitudeDegrees>
            </Position>
            <AltitudeMeters>132.8000030517578125</AltitudeMeters>
            <DistanceMeters>NAN</DistanceMeters>
          </Trackpoint>
          <Trackpoint>
            <Time>2022-07-09T16:43:59.000Z</Time>
            <Position>
              <LatitudeDegrees>43.31718265078961849212646484375</LatitudeDegrees>
              <LongitudeDegrees>-2.0139961503446102142333984375</LongitudeDegrees>
            </Position>
            <AltitudeMeters>132.600006103515625</AltitudeMeters>
            <DistanceMeters>NAN</DistanceMeters>
          </Trackpoint>
          <Trackpoint>
            <Time>2022-07-09T16:44:02.000Z</Time>
            <Position>
              <LatitudeDegrees>43.31724853254854679107666015625</LatitudeDegrees>
              <LongitudeDegrees>-2.01408189721405506134033203125</LongitudeDegrees>
            </Position>
            <AltitudeMeters>132.600006103515625</AltitudeMeters>
            <DistanceMeters>NAN</DistanceMeters>
          </Trackpoint>
          <Trackpoint>
            <Time>2022-07-09T16:44:05.000Z</Time>
            <Position>
              <LatitudeDegrees>43.31731894053518772125244140625</LatitudeDegrees>
              <LongitudeDegrees>-2.01423729769885540008544921875</LongitudeDegrees>
            </Position>
            <AltitudeMeters>132.600006103515625</AltitudeMeters>
            <DistanceMeters>NAN</DistanceMeters>
          </Trackpoint>
          <Trackpoint>
            <Time>2022-07-09T16:44:06.000Z</Time>
            <Position>
              <LatitudeDegrees>43.31733352504670619964599609375</LatitudeDegrees>
              <LongitudeDegrees>-2.0142660476267337799072265625</LongitudeDegrees>
            </Position>
            <AltitudeMeters>132.600006103515625</AltitudeMeters>
            <DistanceMeters>NAN</DistanceMeters>
          </Trackpoint>
          <Trackpoint>
            <Time>2022-07-09T16:44:08.000Z</Time>
            <Position>
              <LatitudeDegrees>43.31737996079027652740478515625</LatitudeDegrees>
              <LongitudeDegrees>-2.01434458605945110321044921875</LongitudeDegrees>
            </Position>
            <AltitudeMeters>132.600006103515625</AltitudeMeters>
            <DistanceMeters>NAN</DistanceMeters>
          </Trackpoint>
          <Trackpoint>
            <Time>2022-07-09T16:44:09.000Z</Time>
            <Position>
              <LatitudeDegrees>43.31739865243434906005859375</LatitudeDegrees>
              <LongitudeDegrees>-2.01436973176896572113037109375</LongitudeDegrees>
            </Position>
            <AltitudeMeters>132.600006103515625</AltitudeMeters>
            <DistanceMeters>NAN</DistanceMeters>
          </Trackpoint>
          <Trackpoint>
            <Time>2022-07-09T16:44:11.000Z</Time>
            <Position>
              <LatitudeDegrees>43.31742681562900543212890625</LatitudeDegrees>
              <LongitudeDegrees>-2.01443578116595745086669921875</LongitudeDegrees>
            </Position>
            <AltitudeMeters>132.8000030517578125</AltitudeMeters>
            <DistanceMeters>NAN</DistanceMeters>
          </Trackpoint>
          <Trackpoint>
            <Time>2022-07-09T16:44:18.000Z</Time>
            <Position>
              <LatitudeDegrees>43.317599482834339141845703125</LatitudeDegrees>
              <LongitudeDegrees>-2.01474339701235294342041015625</LongitudeDegrees>
            </Position>
            <AltitudeMeters>133</AltitudeMeters>
            <DistanceMeters>NAN</DistanceMeters>
          </Trackpoint>
          <Trackpoint>
            <Time>2022-07-09T16:44:22.000Z</Time>
            <Position>
              <LatitudeDegrees>43.3176261372864246368408203125</LatitudeDegrees>
              <LongitudeDegrees>-2.01485998928546905517578125</LongitudeDegrees>
            </Position>
            <AltitudeMeters>133</AltitudeMeters>
            <DistanceMeters>NAN</DistanceMeters>
          </Trackpoint>
          <Trackpoint>
            <Time>2022-07-09T16:44:26.000Z</Time>
            <Position>
              <LatitudeDegrees>43.31768908537924289703369140625</LatitudeDegrees>
              <LongitudeDegrees>-2.01498806476593017578125</LongitudeDegrees>
            </Position>
            <AltitudeMeters>133.1999969482421875</AltitudeMeters>
            <DistanceMeters>NAN</DistanceMeters>
          </Trackpoint>
          <Trackpoint>
            <Time>2022-07-09T16:44:31.000Z</Time>
            <Position>
              <LatitudeDegrees>43.3177287317812442779541015625</LatitudeDegrees>
              <LongitudeDegrees>-2.0151074230670928955078125</LongitudeDegrees>
            </Position>
            <AltitudeMeters>133.600006103515625</AltitudeMeters>
            <DistanceMeters>NAN</DistanceMeters>
          </Trackpoint>
          <Trackpoint>
            <Time>2022-07-09T16:44:35.000Z</Time>
            <Position>
              <LatitudeDegrees>43.317753374576568603515625</LatitudeDegrees>
              <LongitudeDegrees>-2.01519551686942577362060546875</LongitudeDegrees>
            </Position>
            <AltitudeMeters>134.1999969482421875</AltitudeMeters>
            <DistanceMeters>NAN</DistanceMeters>
          </Trackpoint>
          <Trackpoint>
            <Time>2022-07-09T16:44:36.000Z</Time>
            <Position>
              <LatitudeDegrees>43.31776879727840423583984375</LatitudeDegrees>
              <LongitudeDegrees>-2.0152148790657520294189453125</LongitudeDegrees>
            </Position>
            <AltitudeMeters>134.399993896484375</AltitudeMeters>
            <DistanceMeters>NAN</DistanceMeters>
          </Trackpoint>
          <Trackpoint>
            <Time>2022-07-09T16:44:41.000Z</Time>
            <Position>
              <LatitudeDegrees>43.31781682558357715606689453125</LatitudeDegrees>
              <LongitudeDegrees>-2.01531453989446163177490234375</LongitudeDegrees>
            </Position>
            <AltitudeMeters>135.1999969482421875</AltitudeMeters>
            <DistanceMeters>NAN</DistanceMeters>
          </Trackpoint>
          <Trackpoint>
            <Time>2022-07-09T16:44:42.000Z</Time>
            <Position>
              <LatitudeDegrees>43.3178232796490192413330078125</LatitudeDegrees>
              <LongitudeDegrees>-2.0153365842998027801513671875</LongitudeDegrees>
            </Position>
            <AltitudeMeters>135.399993896484375</AltitudeMeters>
            <DistanceMeters>NAN</DistanceMeters>
          </Trackpoint>
          <Trackpoint>
            <Time>2022-07-09T16:44:44.000Z</Time>
            <Position>
              <LatitudeDegrees>43.31783761270344257354736328125</LatitudeDegrees>
              <LongitudeDegrees>-2.01538008637726306915283203125</LongitudeDegrees>
            </Position>
            <AltitudeMeters>135.600006103515625</AltitudeMeters>
            <DistanceMeters>NAN</DistanceMeters>
          </Trackpoint>
          <Trackpoint>
            <Time>2022-07-09T16:44:48.000Z</Time>
            <Position>
              <LatitudeDegrees>43.31786393187940120697021484375</LatitudeDegrees>
              <LongitudeDegrees>-2.01542191207408905029296875</LongitudeDegrees>
            </Position>
            <AltitudeMeters>136.399993896484375</AltitudeMeters>
            <DistanceMeters>NAN</DistanceMeters>
          </Trackpoint>
          <Trackpoint>
            <Time>2022-07-09T16:44:51.000Z</Time>
            <Position>
              <LatitudeDegrees>43.31786326132714748382568359375</LatitudeDegrees>
              <LongitudeDegrees>-2.0154857821762561798095703125</LongitudeDegrees>
            </Position>
            <AltitudeMeters>136.600006103515625</AltitudeMeters>
            <DistanceMeters>NAN</DistanceMeters>
          </Trackpoint>
          <Trackpoint>
            <Time>2022-07-09T16:44:54.000Z</Time>
            <Position>
              <LatitudeDegrees>43.31786041148006916046142578125</LatitudeDegrees>
              <LongitudeDegrees>-2.0155947469174861907958984375</LongitudeDegrees>
            </Position>
            <AltitudeMeters>136.399993896484375</AltitudeMeters>
            <DistanceMeters>NAN</DistanceMeters>
          </Trackpoint>
          <Trackpoint>
            <Time>2022-07-09T16:44:56.000Z</Time>
            <Position>
              <LatitudeDegrees>43.317851610481739044189453125</LatitudeDegrees>
              <LongitudeDegrees>-2.01565735973417758941650390625</LongitudeDegrees>
            </Position>
            <AltitudeMeters>136</AltitudeMeters>
            <DistanceMeters>NAN</DistanceMeters>
          </Trackpoint>
          <Trackpoint>
            <Time>2022-07-09T16:44:57.000Z</Time>
            <Position>
              <LatitudeDegrees>43.31785085611045360565185546875</LatitudeDegrees>
              <LongitudeDegrees>-2.01567278243601322174072265625</LongitudeDegrees>
            </Position>
            <AltitudeMeters>135.8000030517578125</AltitudeMeters>
            <DistanceMeters>NAN</DistanceMeters>
          </Trackpoint>
          <Trackpoint>
            <Time>2022-07-09T16:44:59.000Z</Time>
            <Position>
              <LatitudeDegrees>43.3178561367094516754150390625</LatitudeDegrees>
              <LongitudeDegrees>-2.01568351127207279205322265625</LongitudeDegrees>
            </Position>
            <AltitudeMeters>135.600006103515625</AltitudeMeters>
            <DistanceMeters>NAN</DistanceMeters>
          </Trackpoint>
          <Trackpoint>
            <Time>2022-07-09T16:45:01.000Z</Time>
            <Position>
              <LatitudeDegrees>43.3178561367094516754150390625</LatitudeDegrees>
              <LongitudeDegrees>-2.01568351127207279205322265625</LongitudeDegrees>
            </Position>
            <AltitudeMeters>135.600006103515625</AltitudeMeters>
            <DistanceMeters>NAN</DistanceMeters>
          </Trackpoint>
          <Trackpoint>
            <Time>2022-07-09T16:45:14.000Z</Time>
            <Position>
              <LatitudeDegrees>43.31784926354885101318359375</LatitudeDegrees>
              <LongitudeDegrees>-2.01570731587707996368408203125</LongitudeDegrees>
            </Position>
            <AltitudeMeters>135</AltitudeMeters>
            <DistanceMeters>NAN</DistanceMeters>
          </Trackpoint>
          <Trackpoint>
            <Time>2022-07-09T16:45:15.000Z</Time>
            <Position>
              <LatitudeDegrees>43.3178433962166309356689453125</LatitudeDegrees>
              <LongitudeDegrees>-2.01572139747440814971923828125</LongitudeDegrees>
            </Position>
            <AltitudeMeters>134.8000030517578125</AltitudeMeters>
            <DistanceMeters>NAN</DistanceMeters>
          </Trackpoint>
          <Trackpoint>
            <Time>2022-07-09T16:45:18.000Z</Time>
            <Position>
              <LatitudeDegrees>43.31784113310277462005615234375</LatitudeDegrees>
              <LongitudeDegrees>-2.01572994701564311981201171875</LongitudeDegrees>
            </Position>
            <AltitudeMeters>134.8000030517578125</AltitudeMeters>
            <DistanceMeters>NAN</DistanceMeters>
          </Trackpoint>
          <Trackpoint>
            <Time>2022-07-09T16:46:13.000Z</Time>
            <Position>
              <LatitudeDegrees>43.31782621331512928009033203125</LatitudeDegrees>
              <LongitudeDegrees>-2.0157699286937713623046875</LongitudeDegrees>
            </Position>
            <AltitudeMeters>134.399993896484375</AltitudeMeters>
            <DistanceMeters>NAN</DistanceMeters>
          </Trackpoint>
          <Trackpoint>
            <Time>2022-07-09T16:46:14.000Z</Time>
            <Position>
              <LatitudeDegrees>43.31781649030745029449462890625</LatitudeDegrees>
              <LongitudeDegrees>-2.01579247601330280303955078125</LongitudeDegrees>
            </Position>
            <AltitudeMeters>134.399993896484375</AltitudeMeters>
            <DistanceMeters>NAN</DistanceMeters>
          </Trackpoint>
          <Trackpoint>
            <Time>2022-07-09T16:46:19.000Z</Time>
            <Position>
              <LatitudeDegrees>43.31775731407105922698974609375</LatitudeDegrees>
              <LongitudeDegrees>-2.0159541629254817962646484375</LongitudeDegrees>
            </Position>
            <AltitudeMeters>134</AltitudeMeters>
            <DistanceMeters>NAN</DistanceMeters>
          </Trackpoint>
          <Trackpoint>
            <Time>2022-07-09T16:46:20.000Z</Time>
            <Position>
              <LatitudeDegrees>43.3177424781024456024169921875</LatitudeDegrees>
              <LongitudeDegrees>-2.0159990899264812469482421875</LongitudeDegrees>
            </Position>
            <AltitudeMeters>134</AltitudeMeters>
            <DistanceMeters>NAN</DistanceMeters>
          </Trackpoint>
          <Trackpoint>
            <Time>2022-07-09T16:46:24.000Z</Time>
            <Position>
              <LatitudeDegrees>43.31771020777523517608642578125</LatitudeDegrees>
              <LongitudeDegrees>-2.01620486564934253692626953125</LongitudeDegrees>
            </Position>
            <AltitudeMeters>133.399993896484375</AltitudeMeters>
            <DistanceMeters>NAN</DistanceMeters>
          </Trackpoint>
          <Trackpoint>
            <Time>2022-07-09T16:46:25.000Z</Time>
            <Position>
              <LatitudeDegrees>43.3177196793258190155029296875</LatitudeDegrees>
              <LongitudeDegrees>-2.01625742018222808837890625</LongitudeDegrees>
            </Position>
            <AltitudeMeters>133.399993896484375</AltitudeMeters>
            <DistanceMeters>NAN</DistanceMeters>
          </Trackpoint>
          <Trackpoint>
            <Time>2022-07-09T16:46:27.000Z</Time>
            <Position>
              <LatitudeDegrees>43.3177562244236469268798828125</LatitudeDegrees>
              <LongitudeDegrees>-2.01629471965134143829345703125</LongitudeDegrees>
            </Position>
            <AltitudeMeters>133.399993896484375</AltitudeMeters>
            <DistanceMeters>NAN</DistanceMeters>
          </Trackpoint>
          <Trackpoint>
            <Time>2022-07-09T16:46:31.000Z</Time>
            <Position>
              <LatitudeDegrees>43.31784431822597980499267578125</LatitudeDegrees>
              <LongitudeDegrees>-2.01626974157989025115966796875</LongitudeDegrees>
            </Position>
            <AltitudeMeters>133.600006103515625</AltitudeMeters>
            <DistanceMeters>NAN</DistanceMeters>
          </Trackpoint>
          <Trackpoint>
            <Time>2022-07-09T16:46:39.000Z</Time>
            <Position>
              <LatitudeDegrees>43.3179905824363231658935546875</LatitudeDegrees>
              <LongitudeDegrees>-2.01622934080660343170166015625</LongitudeDegrees>
            </Position>
            <AltitudeMeters>134.8000030517578125</AltitudeMeters>
            <DistanceMeters>NAN</DistanceMeters>
          </Trackpoint>
          <Trackpoint>
            <Time>2022-07-09T16:46:40.000Z</Time>
            <Position>
              <LatitudeDegrees>43.3180063404142856597900390625</LatitudeDegrees>
              <LongitudeDegrees>-2.016229592263698577880859375</LongitudeDegrees>
            </Position>
            <AltitudeMeters>135</AltitudeMeters>
            <DistanceMeters>NAN</DistanceMeters>
          </Trackpoint>
          <Trackpoint>
            <Time>2022-07-09T16:46:48.000Z</Time>
            <Position>
              <LatitudeDegrees>43.31812913529574871063232421875</LatitudeDegrees>
              <LongitudeDegrees>-2.01626186259090900421142578125</LongitudeDegrees>
            </Position>
            <AltitudeMeters>136</AltitudeMeters>
            <DistanceMeters>NAN</DistanceMeters>
          </Trackpoint>
          <Trackpoint>
            <Time>2022-07-09T16:46:49.000Z</Time>
            <Position>
              <LatitudeDegrees>43.31812913529574871063232421875</LatitudeDegrees>
              <LongitudeDegrees>-2.01626186259090900421142578125</LongitudeDegrees>
            </Position>
            <AltitudeMeters>136</AltitudeMeters>
            <DistanceMeters>NAN</DistanceMeters>
          </Trackpoint>
          <Trackpoint>
            <Time>2022-07-09T16:46:51.000Z</Time>
            <Position>
              <LatitudeDegrees>43.31812913529574871063232421875</LatitudeDegrees>
              <LongitudeDegrees>-2.01626186259090900421142578125</LongitudeDegrees>
            </Position>
            <AltitudeMeters>136.1999969482421875</AltitudeMeters>
            <DistanceMeters>NAN</DistanceMeters>
          </Trackpoint>
          <Trackpoint>
            <Time>2022-07-09T16:48:33.000Z</Time>
            <Position>
              <LatitudeDegrees>43.3183721266686916351318359375</LatitudeDegrees>
              <LongitudeDegrees>-2.01635691337287425994873046875</LongitudeDegrees>
            </Position>
            <AltitudeMeters>136</AltitudeMeters>
            <DistanceMeters>NAN</DistanceMeters>
          </Trackpoint>
          <Trackpoint>
            <Time>2022-07-09T16:48:35.000Z</Time>
            <Position>
              <LatitudeDegrees>43.31837765872478485107421875</LatitudeDegrees>
              <LongitudeDegrees>-2.01635934412479400634765625</LongitudeDegrees>
            </Position>
            <AltitudeMeters>136</AltitudeMeters>
            <DistanceMeters>NAN</DistanceMeters>
          </Trackpoint>
          <Trackpoint>
            <Time>2022-07-09T16:48:36.000Z</Time>
            <Position>
              <LatitudeDegrees>43.31837765872478485107421875</LatitudeDegrees>
              <LongitudeDegrees>-2.01635934412479400634765625</LongitudeDegrees>
            </Position>
            <AltitudeMeters>136</AltitudeMeters>
            <DistanceMeters>NAN</DistanceMeters>
          </Trackpoint>
          <Trackpoint>
            <Time>2022-07-09T16:48:55.000Z</Time>
            <Position>
              <LatitudeDegrees>43.31839702092111110687255859375</LatitudeDegrees>
              <LongitudeDegrees>-2.01635724864900112152099609375</LongitudeDegrees>
            </Position>
            <AltitudeMeters>136.1999969482421875</AltitudeMeters>
            <DistanceMeters>NAN</DistanceMeters>
          </Trackpoint>
          <Trackpoint>
            <Time>2022-07-09T16:48:57.000Z</Time>
            <Position>
              <LatitudeDegrees>43.3183966018259525299072265625</LatitudeDegrees>
              <LongitudeDegrees>-2.01634484343230724334716796875</LongitudeDegrees>
            </Position>
            <AltitudeMeters>136.1999969482421875</AltitudeMeters>
            <DistanceMeters>NAN</DistanceMeters>
          </Trackpoint>
          <Trackpoint>
            <Time>2022-07-09T16:48:58.000Z</Time>
            <Position>
              <LatitudeDegrees>43.3183966018259525299072265625</LatitudeDegrees>
              <LongitudeDegrees>-2.01634484343230724334716796875</LongitudeDegrees>
            </Position>
            <AltitudeMeters>136.1999969482421875</AltitudeMeters>
            <DistanceMeters>NAN</DistanceMeters>
          </Trackpoint>
          <Trackpoint>
            <Time>2022-07-09T16:49:08.000Z</Time>
            <Position>
              <LatitudeDegrees>43.3184006251394748687744140625</LatitudeDegrees>
              <LongitudeDegrees>-2.0163688994944095611572265625</LongitudeDegrees>
            </Position>
            <AltitudeMeters>136.1999969482421875</AltitudeMeters>
            <DistanceMeters>NAN</DistanceMeters>
          </Trackpoint>
          <Trackpoint>
            <Time>2022-07-09T16:49:10.000Z</Time>
            <Position>
              <LatitudeDegrees>43.31839978694915771484375</LatitudeDegrees>
              <LongitudeDegrees>-2.01638281345367431640625</LongitudeDegrees>
            </Position>
            <AltitudeMeters>136.1999969482421875</AltitudeMeters>
            <DistanceMeters>NAN</DistanceMeters>
          </Trackpoint>
          <Trackpoint>
            <Time>2022-07-09T16:49:16.000Z</Time>
            <Position>
              <LatitudeDegrees>43.31841445527970790863037109375</LatitudeDegrees>
              <LongitudeDegrees>-2.01642966829240322113037109375</LongitudeDegrees>
            </Position>
            <AltitudeMeters>136.1999969482421875</AltitudeMeters>
            <DistanceMeters>NAN</DistanceMeters>
          </Trackpoint>
          <Trackpoint>
            <Time>2022-07-09T16:49:17.000Z</Time>
            <Position>
              <LatitudeDegrees>43.31841328181326389312744140625</LatitudeDegrees>
              <LongitudeDegrees>-2.01643536798655986785888671875</LongitudeDegrees>
            </Position>
            <AltitudeMeters>136.1999969482421875</AltitudeMeters>
            <DistanceMeters>NAN</DistanceMeters>
          </Trackpoint>
          <Trackpoint>
            <Time>2022-07-09T16:51:52.000Z</Time>
            <Position>
              <LatitudeDegrees>43.31835175864398479461669921875</LatitudeDegrees>
              <LongitudeDegrees>-2.01646168716251850128173828125</LongitudeDegrees>
            </Position>
            <AltitudeMeters>139.399993896484375</AltitudeMeters>
            <DistanceMeters>NAN</DistanceMeters>
          </Trackpoint>
          <Trackpoint>
            <Time>2022-07-09T16:51:53.000Z</Time>
            <Position>
              <LatitudeDegrees>43.31837070174515247344970703125</LatitudeDegrees>
              <LongitudeDegrees>-2.01650812290608882904052734375</LongitudeDegrees>
            </Position>
            <AltitudeMeters>139.399993896484375</AltitudeMeters>
            <DistanceMeters>NAN</DistanceMeters>
          </Trackpoint>
          <Trackpoint>
            <Time>2022-07-09T16:51:54.000Z</Time>
            <Position>
              <LatitudeDegrees>43.3183194883167743682861328125</LatitudeDegrees>
              <LongitudeDegrees>-2.0164912752807140350341796875</LongitudeDegrees>
            </Position>
            <AltitudeMeters>139.399993896484375</AltitudeMeters>
            <DistanceMeters>NAN</DistanceMeters>
          </Trackpoint>
          <Trackpoint>
            <Time>2022-07-09T16:51:55.000Z</Time>
            <Position>
              <LatitudeDegrees>43.31825285218656063079833984375</LatitudeDegrees>
              <LongitudeDegrees>-2.01641944237053394317626953125</LongitudeDegrees>
            </Position>
            <AltitudeMeters>139.399993896484375</AltitudeMeters>
            <DistanceMeters>NAN</DistanceMeters>
          </Trackpoint>
          <Trackpoint>
            <Time>2022-07-09T16:55:25.000Z</Time>
            <Position>
              <LatitudeDegrees>43.31830322742462158203125</LatitudeDegrees>
              <LongitudeDegrees>-2.016311399638652801513671875</LongitudeDegrees>
            </Position>
            <AltitudeMeters>138</AltitudeMeters>
            <DistanceMeters>NAN</DistanceMeters>
          </Trackpoint>
          <Trackpoint>
            <Time>2022-07-09T16:55:26.000Z</Time>
            <Position>
              <LatitudeDegrees>43.3183117769658565521240234375</LatitudeDegrees>
              <LongitudeDegrees>-2.01614300720393657684326171875</LongitudeDegrees>
            </Position>
            <AltitudeMeters>138</AltitudeMeters>
            <DistanceMeters>NAN</DistanceMeters>
          </Trackpoint>
          <Trackpoint>
            <Time>2022-07-09T16:55:29.000Z</Time>
            <Position>
              <LatitudeDegrees>43.31833080388605594635009765625</LatitudeDegrees>
              <LongitudeDegrees>-2.01620570383965969085693359375</LongitudeDegrees>
            </Position>
            <AltitudeMeters>138</AltitudeMeters>
            <DistanceMeters>NAN</DistanceMeters>
          </Trackpoint>
          <Trackpoint>
            <Time>2022-07-09T16:55:32.000Z</Time>
            <Position>
              <LatitudeDegrees>43.31835846416652202606201171875</LatitudeDegrees>
              <LongitudeDegrees>-2.01622213236987590789794921875</LongitudeDegrees>
            </Position>
            <AltitudeMeters>137.8000030517578125</AltitudeMeters>
            <DistanceMeters>NAN</DistanceMeters>
          </Trackpoint>
          <Trackpoint>
            <Time>2022-07-09T16:55:34.000Z</Time>
            <Position>
              <LatitudeDegrees>43.31837254576385021209716796875</LatitudeDegrees>
              <LongitudeDegrees>-2.016285918653011322021484375</LongitudeDegrees>
            </Position>
            <AltitudeMeters>137.600006103515625</AltitudeMeters>
            <DistanceMeters>NAN</DistanceMeters>
          </Trackpoint>
          <Trackpoint>
            <Time>2022-07-09T16:55:36.000Z</Time>
            <Position>
              <LatitudeDegrees>43.31838461570441722869873046875</LatitudeDegrees>
              <LongitudeDegrees>-2.0162988267838954925537109375</LongitudeDegrees>
            </Position>
            <AltitudeMeters>137.600006103515625</AltitudeMeters>
            <DistanceMeters>NAN</DistanceMeters>
          </Trackpoint>
          <Trackpoint>
            <Time>2022-07-09T16:55:37.000Z</Time>
            <Position>
              <LatitudeDegrees>43.31838260404765605926513671875</LatitudeDegrees>
              <LongitudeDegrees>-2.0163316838443279266357421875</LongitudeDegrees>
            </Position>
            <AltitudeMeters>137.600006103515625</AltitudeMeters>
            <DistanceMeters>NAN</DistanceMeters>
          </Trackpoint>
          <Trackpoint>
            <Time>2022-07-09T16:55:41.000Z</Time>
            <Position>
              <LatitudeDegrees>43.31839920021593570709228515625</LatitudeDegrees>
              <LongitudeDegrees>-2.01629304327070713043212890625</LongitudeDegrees>
            </Position>
            <AltitudeMeters>137.600006103515625</AltitudeMeters>
            <DistanceMeters>NAN</DistanceMeters>
          </Trackpoint>
          <Trackpoint>
            <Time>2022-07-09T16:55:42.000Z</Time>
            <Position>
              <LatitudeDegrees>43.3183878846466541290283203125</LatitudeDegrees>
              <LongitudeDegrees>-2.01630343683063983917236328125</LongitudeDegrees>
            </Position>
            <AltitudeMeters>137.600006103515625</AltitudeMeters>
            <DistanceMeters>NAN</DistanceMeters>
          </Trackpoint>
          <Trackpoint>
            <Time>2022-07-09T16:55:43.000Z</Time>
            <Position>
              <LatitudeDegrees>43.318383358418941497802734375</LatitudeDegrees>
              <LongitudeDegrees>-2.0163092203438282012939453125</LongitudeDegrees>
            </Position>
            <AltitudeMeters>137.8000030517578125</AltitudeMeters>
            <DistanceMeters>NAN</DistanceMeters>
          </Trackpoint>
          <Trackpoint>
            <Time>2022-07-09T16:55:44.000Z</Time>
            <Position>
              <LatitudeDegrees>43.3183791674673557281494140625</LatitudeDegrees>
              <LongitudeDegrees>-2.01631600968539714813232421875</LongitudeDegrees>
            </Position>
            <AltitudeMeters>137.8000030517578125</AltitudeMeters>
            <DistanceMeters>NAN</DistanceMeters>
          </Trackpoint>
          <Trackpoint>
            <Time>2022-07-09T16:55:45.000Z</Time>
            <Position>
              <LatitudeDegrees>43.31837556324899196624755859375</LatitudeDegrees>
              <LongitudeDegrees>-2.01633545570075511932373046875</LongitudeDegrees>
            </Position>
            <AltitudeMeters>137.8000030517578125</AltitudeMeters>
            <DistanceMeters>NAN</DistanceMeters>
          </Trackpoint>
          <Trackpoint>
            <Time>2022-07-09T16:59:49.000Z</Time>
            <Position>
              <LatitudeDegrees>43.3182376809418201446533203125</LatitudeDegrees>
              <LongitudeDegrees>-2.01631768606603145599365234375</LongitudeDegrees>
            </Position>
            <AltitudeMeters>139.600006103515625</AltitudeMeters>
            <DistanceMeters>NAN</DistanceMeters>
          </Trackpoint>
          <Trackpoint>
            <Time>2022-07-09T16:59:50.000Z</Time>
            <Position>
              <LatitudeDegrees>43.3182531036436557769775390625</LatitudeDegrees>
              <LongitudeDegrees>-2.01633444987237453460693359375</LongitudeDegrees>
            </Position>
            <AltitudeMeters>139.600006103515625</AltitudeMeters>
            <DistanceMeters>NAN</DistanceMeters>
          </Trackpoint>
          <Trackpoint>
            <Time>2022-07-09T16:59:52.000Z</Time>
            <Position>
              <LatitudeDegrees>43.3182859607040882110595703125</LatitudeDegrees>
              <LongitudeDegrees>-2.0163712464272975921630859375</LongitudeDegrees>
            </Position>
            <AltitudeMeters>139.8000030517578125</AltitudeMeters>
            <DistanceMeters>NAN</DistanceMeters>
          </Trackpoint>
          <Trackpoint>
            <Time>2022-07-09T16:59:55.000Z</Time>
            <Position>
              <LatitudeDegrees>43.318327032029628753662109375</LatitudeDegrees>
              <LongitudeDegrees>-2.016428411006927490234375</LongitudeDegrees>
            </Position>
            <AltitudeMeters>140.1999969482421875</AltitudeMeters>
            <DistanceMeters>NAN</DistanceMeters>
          </Trackpoint>
          <Trackpoint>
            <Time>2022-07-09T16:59:58.000Z</Time>
            <Position>
              <LatitudeDegrees>43.318359553813934326171875</LatitudeDegrees>
              <LongitudeDegrees>-2.01646529138088226318359375</LongitudeDegrees>
            </Position>
            <AltitudeMeters>140.600006103515625</AltitudeMeters>
            <DistanceMeters>NAN</DistanceMeters>
          </Trackpoint>
          <Trackpoint>
            <Time>2022-07-09T16:59:59.000Z</Time>
            <Position>
              <LatitudeDegrees>43.31837221048772335052490234375</LatitudeDegrees>
              <LongitudeDegrees>-2.01648063026368618011474609375</LongitudeDegrees>
            </Position>
            <AltitudeMeters>140.600006103515625</AltitudeMeters>
            <DistanceMeters>NAN</DistanceMeters>
          </Trackpoint>
          <Trackpoint>
            <Time>2022-07-09T17:00:08.000Z</Time>
            <Position>
              <LatitudeDegrees>43.318485282361507415771484375</LatitudeDegrees>
              <LongitudeDegrees>-2.016582302749156951904296875</LongitudeDegrees>
            </Position>
            <AltitudeMeters>141.1999969482421875</AltitudeMeters>
            <DistanceMeters>NAN</DistanceMeters>
          </Trackpoint>
          <Trackpoint>
            <Time>2022-07-09T17:00:15.000Z</Time>
            <Position>
              <LatitudeDegrees>43.31852207891643047332763671875</LatitudeDegrees>
              <LongitudeDegrees>-2.016622535884380340576171875</LongitudeDegrees>
            </Position>
            <AltitudeMeters>141.399993896484375</AltitudeMeters>
            <DistanceMeters>NAN</DistanceMeters>
          </Trackpoint>
          <Trackpoint>
            <Time>2022-07-09T17:00:40.000Z</Time>
            <Position>
              <LatitudeDegrees>43.31852761097252368927001953125</LatitudeDegrees>
              <LongitudeDegrees>-2.0166515372693538665771484375</LongitudeDegrees>
            </Position>
            <AltitudeMeters>141.600006103515625</AltitudeMeters>
            <DistanceMeters>NAN</DistanceMeters>
          </Trackpoint>
          <Trackpoint>
            <Time>2022-07-09T17:00:41.000Z</Time>
            <Position>
              <LatitudeDegrees>43.31854135729372501373291015625</LatitudeDegrees>
              <LongitudeDegrees>-2.01666637323796749114990234375</LongitudeDegrees>
            </Position>
            <AltitudeMeters>141.600006103515625</AltitudeMeters>
            <DistanceMeters>NAN</DistanceMeters>
          </Trackpoint>
          <Trackpoint>
            <Time>2022-07-09T17:00:43.000Z</Time>
            <Position>
              <LatitudeDegrees>43.31857572309672832489013671875</LatitudeDegrees>
              <LongitudeDegrees>-2.0166961289942264556884765625</LongitudeDegrees>
            </Position>
            <AltitudeMeters>141.8000030517578125</AltitudeMeters>
            <DistanceMeters>NAN</DistanceMeters>
          </Trackpoint>
          <Trackpoint>
            <Time>2022-07-09T17:00:50.000Z</Time>
            <Position>
              <LatitudeDegrees>43.31865317188203334808349609375</LatitudeDegrees>
              <LongitudeDegrees>-2.01679293997585773468017578125</LongitudeDegrees>
            </Position>
            <AltitudeMeters>142</AltitudeMeters>
            <DistanceMeters>NAN</DistanceMeters>
          </Trackpoint>
          <Trackpoint>
            <Time>2022-07-09T17:00:54.000Z</Time>
            <Position>
              <LatitudeDegrees>43.31871100701391696929931640625</LatitudeDegrees>
              <LongitudeDegrees>-2.016853876411914825439453125</LongitudeDegrees>
            </Position>
            <AltitudeMeters>142.600006103515625</AltitudeMeters>
            <DistanceMeters>NAN</DistanceMeters>
          </Trackpoint>
          <Trackpoint>
            <Time>2022-07-09T17:00:56.000Z</Time>
            <Position>
              <LatitudeDegrees>43.31874352879822254180908203125</LatitudeDegrees>
              <LongitudeDegrees>-2.01687977649271488189697265625</LongitudeDegrees>
            </Position>
            <AltitudeMeters>143</AltitudeMeters>
            <DistanceMeters>NAN</DistanceMeters>
          </Trackpoint>
          <Trackpoint>
            <Time>2022-07-09T17:01:02.000Z</Time>
            <Position>
              <LatitudeDegrees>43.3188250847160816192626953125</LatitudeDegrees>
              <LongitudeDegrees>-2.0169603265821933746337890625</LongitudeDegrees>
            </Position>
            <AltitudeMeters>143.600006103515625</AltitudeMeters>
            <DistanceMeters>NAN</DistanceMeters>
          </Trackpoint>
          <Trackpoint>
            <Time>2022-07-09T17:01:03.000Z</Time>
            <Position>
              <LatitudeDegrees>43.318838663399219512939453125</LatitudeDegrees>
              <LongitudeDegrees>-2.01697382144629955291748046875</LongitudeDegrees>
            </Position>
            <AltitudeMeters>143.8000030517578125</AltitudeMeters>
            <DistanceMeters>NAN</DistanceMeters>
          </Trackpoint>
          <Trackpoint>
            <Time>2022-07-09T17:01:10.000Z</Time>
            <Position>
              <LatitudeDegrees>43.31894360482692718505859375</LatitudeDegrees>
              <LongitudeDegrees>-2.01707691885530948638916015625</LongitudeDegrees>
            </Position>
            <AltitudeMeters>144.600006103515625</AltitudeMeters>
            <DistanceMeters>NAN</DistanceMeters>
          </Trackpoint>
          <Trackpoint>
            <Time>2022-07-09T17:01:12.000Z</Time>
            <Position>
              <LatitudeDegrees>43.318970091640949249267578125</LatitudeDegrees>
              <LongitudeDegrees>-2.0170930959284305572509765625</LongitudeDegrees>
            </Position>
            <AltitudeMeters>145</AltitudeMeters>
            <DistanceMeters>NAN</DistanceMeters>
          </Trackpoint>
          <Trackpoint>
            <Time>2022-07-09T17:01:18.000Z</Time>
            <Position>
              <LatitudeDegrees>43.31904418766498565673828125</LatitudeDegrees>
              <LongitudeDegrees>-2.0171812735497951507568359375</LongitudeDegrees>
            </Position>
            <AltitudeMeters>145.399993896484375</AltitudeMeters>
            <DistanceMeters>NAN</DistanceMeters>
          </Trackpoint>
          <Trackpoint>
            <Time>2022-07-09T17:01:23.000Z</Time>
            <Position>
              <LatitudeDegrees>43.3191077224910259246826171875</LatitudeDegrees>
              <LongitudeDegrees>-2.0172513462603092193603515625</LongitudeDegrees>
            </Position>
            <AltitudeMeters>146</AltitudeMeters>
            <DistanceMeters>NAN</DistanceMeters>
          </Trackpoint>
          <Trackpoint>
            <Time>2022-07-09T17:01:26.000Z</Time>
            <Position>
              <LatitudeDegrees>43.31915642134845256805419921875</LatitudeDegrees>
              <LongitudeDegrees>-2.01728529296815395355224609375</LongitudeDegrees>
            </Position>
            <AltitudeMeters>146.600006103515625</AltitudeMeters>
            <DistanceMeters>NAN</DistanceMeters>
          </Trackpoint>
          <Trackpoint>
            <Time>2022-07-09T17:01:32.000Z</Time>
            <Position>
              <LatitudeDegrees>43.31923194229602813720703125</LatitudeDegrees>
              <LongitudeDegrees>-2.01737514697015285491943359375</LongitudeDegrees>
            </Position>
            <AltitudeMeters>147.1999969482421875</AltitudeMeters>
            <DistanceMeters>NAN</DistanceMeters>
          </Trackpoint>
          <Trackpoint>
            <Time>2022-07-09T17:01:37.000Z</Time>
            <Position>
              <LatitudeDegrees>43.31926555372774600982666015625</LatitudeDegrees>
              <LongitudeDegrees>-2.01745796017348766326904296875</LongitudeDegrees>
            </Position>
            <AltitudeMeters>148.1999969482421875</AltitudeMeters>
            <DistanceMeters>NAN</DistanceMeters>
          </Trackpoint>
          <Trackpoint>
            <Time>2022-07-09T17:01:39.000Z</Time>
            <Position>
              <LatitudeDegrees>43.319264464080333709716796875</LatitudeDegrees>
              <LongitudeDegrees>-2.01749886386096477508544921875</LongitudeDegrees>
            </Position>
            <AltitudeMeters>148.600006103515625</AltitudeMeters>
            <DistanceMeters>NAN</DistanceMeters>
          </Trackpoint>
          <Trackpoint>
            <Time>2022-07-09T17:01:43.000Z</Time>
            <Position>
              <LatitudeDegrees>43.31924711354076862335205078125</LatitudeDegrees>
              <LongitudeDegrees>-2.01758511364459991455078125</LongitudeDegrees>
            </Position>
            <AltitudeMeters>149.1999969482421875</AltitudeMeters>
            <DistanceMeters>NAN</DistanceMeters>
          </Trackpoint>
          <Trackpoint>
            <Time>2022-07-09T17:01:47.000Z</Time>
            <Position>
              <LatitudeDegrees>43.3192218840122222900390625</LatitudeDegrees>
              <LongitudeDegrees>-2.017667256295680999755859375</LongitudeDegrees>
            </Position>
            <AltitudeMeters>149.399993896484375</AltitudeMeters>
            <DistanceMeters>NAN</DistanceMeters>
          </Trackpoint>
          <Trackpoint>
            <Time>2022-07-09T17:01:53.000Z</Time>
            <Position>
              <LatitudeDegrees>43.31915549933910369873046875</LatitudeDegrees>
              <LongitudeDegrees>-2.017749063670635223388671875</LongitudeDegrees>
            </Position>
            <AltitudeMeters>149.600006103515625</AltitudeMeters>
            <DistanceMeters>NAN</DistanceMeters>
          </Trackpoint>
          <Trackpoint>
            <Time>2022-07-09T17:01:54.000Z</Time>
            <Position>
              <LatitudeDegrees>43.31913932226598262786865234375</LatitudeDegrees>
              <LongitudeDegrees>-2.017760463058948516845703125</LongitudeDegrees>
            </Position>
            <AltitudeMeters>149.600006103515625</AltitudeMeters>
            <DistanceMeters>NAN</DistanceMeters>
          </Trackpoint>
          <Trackpoint>
            <Time>2022-07-09T17:01:58.000Z</Time>
            <Position>
              <LatitudeDegrees>43.3190976642072200775146484375</LatitudeDegrees>
              <LongitudeDegrees>-2.01782156713306903839111328125</LongitudeDegrees>
            </Position>
            <AltitudeMeters>150.399993896484375</AltitudeMeters>
            <DistanceMeters>NAN</DistanceMeters>
          </Trackpoint>
          <Trackpoint>
            <Time>2022-07-09T17:02:04.000Z</Time>
            <Position>
              <LatitudeDegrees>43.31901694647967815399169921875</LatitudeDegrees>
              <LongitudeDegrees>-2.01790739782154560089111328125</LongitudeDegrees>
            </Position>
            <AltitudeMeters>150.8000030517578125</AltitudeMeters>
            <DistanceMeters>NAN</DistanceMeters>
          </Trackpoint>
          <Trackpoint>
            <Time>2022-07-09T17:02:12.000Z</Time>
            <Position>
              <LatitudeDegrees>43.31892876885831356048583984375</LatitudeDegrees>
              <LongitudeDegrees>-2.0180422626435756683349609375</LongitudeDegrees>
            </Position>
            <AltitudeMeters>151.1999969482421875</AltitudeMeters>
            <DistanceMeters>NAN</DistanceMeters>
          </Trackpoint>
          <Trackpoint>
            <Time>2022-07-09T17:02:13.000Z</Time>
            <Position>
              <LatitudeDegrees>43.318915106356143951416015625</LatitudeDegrees>
              <LongitudeDegrees>-2.01805927790701389312744140625</LongitudeDegrees>
            </Position>
            <AltitudeMeters>151.399993896484375</AltitudeMeters>
            <DistanceMeters>NAN</DistanceMeters>
          </Trackpoint>
          <Trackpoint>
            <Time>2022-07-09T17:02:22.000Z</Time>
            <Position>
              <LatitudeDegrees>43.31883003003895282745361328125</LatitudeDegrees>
              <LongitudeDegrees>-2.01821970753371715545654296875</LongitudeDegrees>
            </Position>
            <AltitudeMeters>152.600006103515625</AltitudeMeters>
            <DistanceMeters>NAN</DistanceMeters>
          </Trackpoint>
          <Trackpoint>
            <Time>2022-07-09T17:02:31.000Z</Time>
            <Position>
              <LatitudeDegrees>43.318761549890041351318359375</LatitudeDegrees>
              <LongitudeDegrees>-2.0183996669948101043701171875</LongitudeDegrees>
            </Position>
            <AltitudeMeters>153.600006103515625</AltitudeMeters>
            <DistanceMeters>NAN</DistanceMeters>
          </Trackpoint>
          <Trackpoint>
            <Time>2022-07-09T17:02:37.000Z</Time>
            <Position>
              <LatitudeDegrees>43.3187352307140827178955078125</LatitudeDegrees>
              <LongitudeDegrees>-2.01854073442518711090087890625</LongitudeDegrees>
            </Position>
            <AltitudeMeters>154.1999969482421875</AltitudeMeters>
            <DistanceMeters>NAN</DistanceMeters>
          </Trackpoint>
          <Trackpoint>
            <Time>2022-07-09T17:02:39.000Z</Time>
            <Position>
              <LatitudeDegrees>43.318721987307071685791015625</LatitudeDegrees>
              <LongitudeDegrees>-2.01858214102685451507568359375</LongitudeDegrees>
            </Position>
            <AltitudeMeters>154.600006103515625</AltitudeMeters>
            <DistanceMeters>NAN</DistanceMeters>
          </Trackpoint>
          <Trackpoint>
            <Time>2022-07-09T17:02:41.000Z</Time>
            <Position>
              <LatitudeDegrees>43.31871067173779010772705078125</LatitudeDegrees>
              <LongitudeDegrees>-2.01863427646458148956298828125</LongitudeDegrees>
            </Position>
            <AltitudeMeters>154.8000030517578125</AltitudeMeters>
            <DistanceMeters>NAN</DistanceMeters>
          </Trackpoint>
          <Trackpoint>
            <Time>2022-07-09T17:02:47.000Z</Time>
            <Position>
              <LatitudeDegrees>43.31870019435882568359375</LatitudeDegrees>
              <LongitudeDegrees>-2.01876251958310604095458984375</LongitudeDegrees>
            </Position>
            <AltitudeMeters>155.1999969482421875</AltitudeMeters>
            <DistanceMeters>NAN</DistanceMeters>
          </Trackpoint>
          <Trackpoint>
            <Time>2022-07-09T17:02:50.000Z</Time>
            <Position>
              <LatitudeDegrees>43.31871000118553638458251953125</LatitudeDegrees>
              <LongitudeDegrees>-2.01882018707692623138427734375</LongitudeDegrees>
            </Position>
            <AltitudeMeters>155.8000030517578125</AltitudeMeters>
            <DistanceMeters>NAN</DistanceMeters>
          </Trackpoint>
          <Trackpoint>
            <Time>2022-07-09T17:02:52.000Z</Time>
            <Position>
              <LatitudeDegrees>43.31871829926967620849609375</LatitudeDegrees>
              <LongitudeDegrees>-2.018863521516323089599609375</LongitudeDegrees>
            </Position>
            <AltitudeMeters>156</AltitudeMeters>
            <DistanceMeters>NAN</DistanceMeters>
          </Trackpoint>
          <Trackpoint>
            <Time>2022-07-09T17:02:54.000Z</Time>
            <Position>
              <LatitudeDegrees>43.31873414106667041778564453125</LatitudeDegrees>
              <LongitudeDegrees>-2.0189009048044681549072265625</LongitudeDegrees>
            </Position>
            <AltitudeMeters>156.1999969482421875</AltitudeMeters>
            <DistanceMeters>NAN</DistanceMeters>
          </Trackpoint>
          <Trackpoint>
            <Time>2022-07-09T17:02:58.000Z</Time>
            <Position>
              <LatitudeDegrees>43.31875182688236236572265625</LatitudeDegrees>
              <LongitudeDegrees>-2.018984891474246978759765625</LongitudeDegrees>
            </Position>
            <AltitudeMeters>156.8000030517578125</AltitudeMeters>
            <DistanceMeters>NAN</DistanceMeters>
          </Trackpoint>
          <Trackpoint>
            <Time>2022-07-09T17:03:01.000Z</Time>
            <Position>
              <LatitudeDegrees>43.31874847412109375</LatitudeDegrees>
              <LongitudeDegrees>-2.019019089639186859130859375</LongitudeDegrees>
            </Position>
            <AltitudeMeters>156.8000030517578125</AltitudeMeters>
            <DistanceMeters>NAN</DistanceMeters>
          </Trackpoint>
          <Trackpoint>
            <Time>2022-07-09T17:03:02.000Z</Time>
            <Position>
              <LatitudeDegrees>43.3187429420650005340576171875</LatitudeDegrees>
              <LongitudeDegrees>-2.0190343447029590606689453125</LongitudeDegrees>
            </Position>
            <AltitudeMeters>157</AltitudeMeters>
            <DistanceMeters>NAN</DistanceMeters>
          </Trackpoint>
          <Trackpoint>
            <Time>2022-07-09T17:03:07.000Z</Time>
            <Position>
              <LatitudeDegrees>43.31870564259588718414306640625</LatitudeDegrees>
              <LongitudeDegrees>-2.0191178284585475921630859375</LongitudeDegrees>
            </Position>
            <AltitudeMeters>157.8000030517578125</AltitudeMeters>
            <DistanceMeters>NAN</DistanceMeters>
          </Trackpoint>
          <Trackpoint>
            <Time>2022-07-09T17:03:08.000Z</Time>
            <Position>
              <LatitudeDegrees>43.3187027089297771453857421875</LatitudeDegrees>
              <LongitudeDegrees>-2.0191423036158084869384765625</LongitudeDegrees>
            </Position>
            <AltitudeMeters>158</AltitudeMeters>
            <DistanceMeters>NAN</DistanceMeters>
          </Trackpoint>
          <Trackpoint>
            <Time>2022-07-09T17:03:10.000Z</Time>
            <Position>
              <LatitudeDegrees>43.31869860179722309112548828125</LatitudeDegrees>
              <LongitudeDegrees>-2.0191848836839199066162109375</LongitudeDegrees>
            </Position>
            <AltitudeMeters>158.399993896484375</AltitudeMeters>
            <DistanceMeters>NAN</DistanceMeters>
          </Trackpoint>
          <Trackpoint>
            <Time>2022-07-09T17:03:14.000Z</Time>
            <Position>
              <LatitudeDegrees>43.318669684231281280517578125</LatitudeDegrees>
              <LongitudeDegrees>-2.0192733965814113616943359375</LongitudeDegrees>
            </Position>
            <AltitudeMeters>158.8000030517578125</AltitudeMeters>
            <DistanceMeters>NAN</DistanceMeters>
          </Trackpoint>
          <Trackpoint>
            <Time>2022-07-09T17:03:15.000Z</Time>
            <Position>
              <LatitudeDegrees>43.318655602633953094482421875</LatitudeDegrees>
              <LongitudeDegrees>-2.0192916691303253173828125</LongitudeDegrees>
            </Position>
            <AltitudeMeters>158.8000030517578125</AltitudeMeters>
            <DistanceMeters>NAN</DistanceMeters>
          </Trackpoint>
          <Trackpoint>
            <Time>2022-07-09T17:03:16.000Z</Time>
            <Position>
              <LatitudeDegrees>43.31864713691174983978271484375</LatitudeDegrees>
              <LongitudeDegrees>-2.01930952258408069610595703125</LongitudeDegrees>
            </Position>
            <AltitudeMeters>159</AltitudeMeters>
            <DistanceMeters>NAN</DistanceMeters>
          </Trackpoint>
          <Trackpoint>
            <Time>2022-07-09T17:03:17.000Z</Time>
            <Position>
              <LatitudeDegrees>43.31864587962627410888671875</LatitudeDegrees>
              <LongitudeDegrees>-2.019336260855197906494140625</LongitudeDegrees>
            </Position>
            <AltitudeMeters>159.1999969482421875</AltitudeMeters>
            <DistanceMeters>NAN</DistanceMeters>
          </Trackpoint>
          <Trackpoint>
            <Time>2022-07-09T17:03:21.000Z</Time>
            <Position>
              <LatitudeDegrees>43.31865870393812656402587890625</LatitudeDegrees>
              <LongitudeDegrees>-2.01943541876971721649169921875</LongitudeDegrees>
            </Position>
            <AltitudeMeters>159.600006103515625</AltitudeMeters>
            <DistanceMeters>NAN</DistanceMeters>
          </Trackpoint>
          <Trackpoint>
            <Time>2022-07-09T17:03:24.000Z</Time>
            <Position>
              <LatitudeDegrees>43.31865903921425342559814453125</LatitudeDegrees>
              <LongitudeDegrees>-2.0195318944752216339111328125</LongitudeDegrees>
            </Position>
            <AltitudeMeters>160.1999969482421875</AltitudeMeters>
            <DistanceMeters>NAN</DistanceMeters>
          </Trackpoint>
          <Trackpoint>
            <Time>2022-07-09T17:03:27.000Z</Time>
            <Position>
              <LatitudeDegrees>43.31864990293979644775390625</LatitudeDegrees>
              <LongitudeDegrees>-2.01962166465818881988525390625</LongitudeDegrees>
            </Position>
            <AltitudeMeters>160.399993896484375</AltitudeMeters>
            <DistanceMeters>NAN</DistanceMeters>
          </Trackpoint>
          <Trackpoint>
            <Time>2022-07-09T17:03:29.000Z</Time>
            <Position>
              <LatitudeDegrees>43.3186524175107479095458984375</LatitudeDegrees>
              <LongitudeDegrees>-2.01966474764049053192138671875</LongitudeDegrees>
            </Position>
            <AltitudeMeters>160.600006103515625</AltitudeMeters>
            <DistanceMeters>NAN</DistanceMeters>
          </Trackpoint>
          <Trackpoint>
            <Time>2022-07-09T17:03:33.000Z</Time>
            <Position>
              <LatitudeDegrees>43.3186440356075763702392578125</LatitudeDegrees>
              <LongitudeDegrees>-2.01973733492195606231689453125</LongitudeDegrees>
            </Position>
            <AltitudeMeters>160.8000030517578125</AltitudeMeters>
            <DistanceMeters>NAN</DistanceMeters>
          </Trackpoint>
          <Trackpoint>
            <Time>2022-07-09T17:03:35.000Z</Time>
            <Position>
              <LatitudeDegrees>43.318633474409580230712890625</LatitudeDegrees>
              <LongitudeDegrees>-2.01976868323981761932373046875</LongitudeDegrees>
            </Position>
            <AltitudeMeters>161.1999969482421875</AltitudeMeters>
            <DistanceMeters>NAN</DistanceMeters>
          </Trackpoint>
          <Trackpoint>
            <Time>2022-07-09T17:03:36.000Z</Time>
            <Position>
              <LatitudeDegrees>43.3186309598386287689208984375</LatitudeDegrees>
              <LongitudeDegrees>-2.0197863690555095672607421875</LongitudeDegrees>
            </Position>
            <AltitudeMeters>161.1999969482421875</AltitudeMeters>
            <DistanceMeters>NAN</DistanceMeters>
          </Trackpoint>
          <Trackpoint>
            <Time>2022-07-09T17:03:43.000Z</Time>
            <Position>
              <LatitudeDegrees>43.31859567202627658843994140625</LatitudeDegrees>
              <LongitudeDegrees>-2.01991855166852474212646484375</LongitudeDegrees>
            </Position>
            <AltitudeMeters>162</AltitudeMeters>
            <DistanceMeters>NAN</DistanceMeters>
          </Trackpoint>
          <Trackpoint>
            <Time>2022-07-09T17:03:46.000Z</Time>
            <Position>
              <LatitudeDegrees>43.31856952048838138580322265625</LatitudeDegrees>
              <LongitudeDegrees>-2.01997202821075916290283203125</LongitudeDegrees>
            </Position>
            <AltitudeMeters>162.1999969482421875</AltitudeMeters>
            <DistanceMeters>NAN</DistanceMeters>
          </Trackpoint>
          <Trackpoint>
            <Time>2022-07-09T17:03:52.000Z</Time>
            <Position>
              <LatitudeDegrees>43.31848553381860256195068359375</LatitudeDegrees>
              <LongitudeDegrees>-2.020056433975696563720703125</LongitudeDegrees>
            </Position>
            <AltitudeMeters>162.8000030517578125</AltitudeMeters>
            <DistanceMeters>NAN</DistanceMeters>
          </Trackpoint>
          <Trackpoint>
            <Time>2022-07-09T17:03:56.000Z</Time>
            <Position>
              <LatitudeDegrees>43.31844446249306201934814453125</LatitudeDegrees>
              <LongitudeDegrees>-2.02010504901409149169921875</LongitudeDegrees>
            </Position>
            <AltitudeMeters>163</AltitudeMeters>
            <DistanceMeters>NAN</DistanceMeters>
          </Trackpoint>
          <Trackpoint>
            <Time>2022-07-09T17:03:57.000Z</Time>
            <Position>
              <LatitudeDegrees>43.31843423657119274139404296875</LatitudeDegrees>
              <LongitudeDegrees>-2.0201162807643413543701171875</LongitudeDegrees>
            </Position>
            <AltitudeMeters>163.1999969482421875</AltitudeMeters>
            <DistanceMeters>NAN</DistanceMeters>
          </Trackpoint>
          <Trackpoint>
            <Time>2022-07-09T17:04:00.000Z</Time>
            <Position>
              <LatitudeDegrees>43.318400122225284576416015625</LatitudeDegrees>
              <LongitudeDegrees>-2.02015332877635955810546875</LongitudeDegrees>
            </Position>
            <AltitudeMeters>163.600006103515625</AltitudeMeters>
            <DistanceMeters>NAN</DistanceMeters>
          </Trackpoint>
          <Trackpoint>
            <Time>2022-07-09T17:04:01.000Z</Time>
            <Position>
              <LatitudeDegrees>43.318385370075702667236328125</LatitudeDegrees>
              <LongitudeDegrees>-2.0201638899743556976318359375</LongitudeDegrees>
            </Position>
            <AltitudeMeters>163.600006103515625</AltitudeMeters>
            <DistanceMeters>NAN</DistanceMeters>
          </Trackpoint>
          <Trackpoint>
            <Time>2022-07-09T17:04:05.000Z</Time>
            <Position>
              <LatitudeDegrees>43.3183479867875576019287109375</LatitudeDegrees>
              <LongitudeDegrees>-2.02021661214530467987060546875</LongitudeDegrees>
            </Position>
            <AltitudeMeters>164</AltitudeMeters>
            <DistanceMeters>NAN</DistanceMeters>
          </Trackpoint>
          <Trackpoint>
            <Time>2022-07-09T17:04:09.000Z</Time>
            <Position>
              <LatitudeDegrees>43.3183144591748714447021484375</LatitudeDegrees>
              <LongitudeDegrees>-2.02025885693728923797607421875</LongitudeDegrees>
            </Position>
            <AltitudeMeters>164.1999969482421875</AltitudeMeters>
            <DistanceMeters>NAN</DistanceMeters>
          </Trackpoint>
          <Trackpoint>
            <Time>2022-07-09T17:04:11.000Z</Time>
            <Position>
              <LatitudeDegrees>43.31828822381794452667236328125</LatitudeDegrees>
              <LongitudeDegrees>-2.0202711783349514007568359375</LongitudeDegrees>
            </Position>
            <AltitudeMeters>164.399993896484375</AltitudeMeters>
            <DistanceMeters>NAN</DistanceMeters>
          </Trackpoint>
          <Trackpoint>
            <Time>2022-07-09T17:04:20.000Z</Time>
            <Position>
              <LatitudeDegrees>43.31818596459925174713134765625</LatitudeDegrees>
              <LongitudeDegrees>-2.02034167014062404632568359375</LongitudeDegrees>
            </Position>
            <AltitudeMeters>165</AltitudeMeters>
            <DistanceMeters>NAN</DistanceMeters>
          </Trackpoint>
          <Trackpoint>
            <Time>2022-07-09T17:04:22.000Z</Time>
            <Position>
              <LatitudeDegrees>43.31816836260259151458740234375</LatitudeDegrees>
              <LongitudeDegrees>-2.0203593559563159942626953125</LongitudeDegrees>
            </Position>
            <AltitudeMeters>165.399993896484375</AltitudeMeters>
            <DistanceMeters>NAN</DistanceMeters>
          </Trackpoint>
          <Trackpoint>
            <Time>2022-07-09T17:04:28.000Z</Time>
            <Position>
              <LatitudeDegrees>43.31810030154883861541748046875</LatitudeDegrees>
              <LongitudeDegrees>-2.02041341923177242279052734375</LongitudeDegrees>
            </Position>
            <AltitudeMeters>166</AltitudeMeters>
            <DistanceMeters>NAN</DistanceMeters>
          </Trackpoint>
          <Trackpoint>
            <Time>2022-07-09T17:04:32.000Z</Time>
            <Position>
              <LatitudeDegrees>43.31805503927171230316162109375</LatitudeDegrees>
              <LongitudeDegrees>-2.02045147307217121124267578125</LongitudeDegrees>
            </Position>
            <AltitudeMeters>166.399993896484375</AltitudeMeters>
            <DistanceMeters>NAN</DistanceMeters>
          </Trackpoint>
          <Trackpoint>
            <Time>2022-07-09T17:04:42.000Z</Time>
            <Position>
              <LatitudeDegrees>43.3179459907114505767822265625</LatitudeDegrees>
              <LongitudeDegrees>-2.02053227461874485015869140625</LongitudeDegrees>
            </Position>
            <AltitudeMeters>167.399993896484375</AltitudeMeters>
            <DistanceMeters>NAN</DistanceMeters>
          </Trackpoint>
          <Trackpoint>
            <Time>2022-07-09T17:04:44.000Z</Time>
            <Position>
              <LatitudeDegrees>43.31792302429676055908203125</LatitudeDegrees>
              <LongitudeDegrees>-2.0205538161098957061767578125</LongitudeDegrees>
            </Position>
            <AltitudeMeters>167.8000030517578125</AltitudeMeters>
            <DistanceMeters>NAN</DistanceMeters>
          </Trackpoint>
          <Trackpoint>
            <Time>2022-07-09T17:04:50.000Z</Time>
            <Position>
              <LatitudeDegrees>43.317849934101104736328125</LatitudeDegrees>
              <LongitudeDegrees>-2.020631097257137298583984375</LongitudeDegrees>
            </Position>
            <AltitudeMeters>168.399993896484375</AltitudeMeters>
            <DistanceMeters>NAN</DistanceMeters>
          </Trackpoint>
          <Trackpoint>
            <Time>2022-07-09T17:04:52.000Z</Time>
            <Position>
              <LatitudeDegrees>43.31782705150544643402099609375</LatitudeDegrees>
              <LongitudeDegrees>-2.02066026628017425537109375</LongitudeDegrees>
            </Position>
            <AltitudeMeters>168.600006103515625</AltitudeMeters>
            <DistanceMeters>NAN</DistanceMeters>
          </Trackpoint>
          <Trackpoint>
            <Time>2022-07-09T17:05:00.000Z</Time>
            <Position>
              <LatitudeDegrees>43.31774826161563396453857421875</LatitudeDegrees>
              <LongitudeDegrees>-2.02076093293726444244384765625</LongitudeDegrees>
            </Position>
            <AltitudeMeters>169.399993896484375</AltitudeMeters>
            <DistanceMeters>NAN</DistanceMeters>
          </Trackpoint>
          <Trackpoint>
            <Time>2022-07-09T17:05:01.000Z</Time>
            <Position>
              <LatitudeDegrees>43.3177381195127964019775390625</LatitudeDegrees>
              <LongitudeDegrees>-2.0207776129245758056640625</LongitudeDegrees>
            </Position>
            <AltitudeMeters>169.600006103515625</AltitudeMeters>
            <DistanceMeters>NAN</DistanceMeters>
          </Trackpoint>
          <Trackpoint>
            <Time>2022-07-09T17:05:10.000Z</Time>
            <Position>
              <LatitudeDegrees>43.3176368661224842071533203125</LatitudeDegrees>
              <LongitudeDegrees>-2.0208542235195636749267578125</LongitudeDegrees>
            </Position>
            <AltitudeMeters>170.600006103515625</AltitudeMeters>
            <DistanceMeters>NAN</DistanceMeters>
          </Trackpoint>
          <Trackpoint>
            <Time>2022-07-09T17:05:11.000Z</Time>
            <Position>
              <LatitudeDegrees>43.31763057969510555267333984375</LatitudeDegrees>
              <LongitudeDegrees>-2.0208602584898471832275390625</LongitudeDegrees>
            </Position>
            <AltitudeMeters>170.600006103515625</AltitudeMeters>
            <DistanceMeters>NAN</DistanceMeters>
          </Trackpoint>
          <Trackpoint>
            <Time>2022-07-09T17:05:19.000Z</Time>
            <Position>
              <LatitudeDegrees>43.317559920251369476318359375</LatitudeDegrees>
              <LongitudeDegrees>-2.02093183994293212890625</LongitudeDegrees>
            </Position>
            <AltitudeMeters>171.399993896484375</AltitudeMeters>
            <DistanceMeters>NAN</DistanceMeters>
          </Trackpoint>
          <Trackpoint>
            <Time>2022-07-09T17:05:21.000Z</Time>
            <Position>
              <LatitudeDegrees>43.3175356127321720123291015625</LatitudeDegrees>
              <LongitudeDegrees>-2.0209437422454357147216796875</LongitudeDegrees>
            </Position>
            <AltitudeMeters>171.600006103515625</AltitudeMeters>
            <DistanceMeters>NAN</DistanceMeters>
          </Trackpoint>
          <Trackpoint>
            <Time>2022-07-09T17:05:27.000Z</Time>
            <Position>
              <LatitudeDegrees>43.3174648694694042205810546875</LatitudeDegrees>
              <LongitudeDegrees>-2.02099646441638469696044921875</LongitudeDegrees>
            </Position>
            <AltitudeMeters>172.399993896484375</AltitudeMeters>
            <DistanceMeters>NAN</DistanceMeters>
          </Trackpoint>
          <Trackpoint>
            <Time>2022-07-09T17:05:32.000Z</Time>
            <Position>
              <LatitudeDegrees>43.3173937909305095672607421875</LatitudeDegrees>
              <LongitudeDegrees>-2.02101322822272777557373046875</LongitudeDegrees>
            </Position>
            <AltitudeMeters>172.8000030517578125</AltitudeMeters>
            <DistanceMeters>NAN</DistanceMeters>
          </Trackpoint>
          <Trackpoint>
            <Time>2022-07-09T17:05:35.000Z</Time>
            <Position>
              <LatitudeDegrees>43.317374847829341888427734375</LatitudeDegrees>
              <LongitudeDegrees>-2.02102839946746826171875</LongitudeDegrees>
            </Position>
            <AltitudeMeters>173</AltitudeMeters>
            <DistanceMeters>NAN</DistanceMeters>
          </Trackpoint>
          <Trackpoint>
            <Time>2022-07-09T17:05:40.000Z</Time>
            <Position>
              <LatitudeDegrees>43.31733637489378452301025390625</LatitudeDegrees>
              <LongitudeDegrees>-2.02107206918299198150634765625</LongitudeDegrees>
            </Position>
            <AltitudeMeters>173.600006103515625</AltitudeMeters>
            <DistanceMeters>NAN</DistanceMeters>
          </Trackpoint>
          <Trackpoint>
            <Time>2022-07-09T17:05:41.000Z</Time>
            <Position>
              <LatitudeDegrees>43.31732489168643951416015625</LatitudeDegrees>
              <LongitudeDegrees>-2.02107491903007030487060546875</LongitudeDegrees>
            </Position>
            <AltitudeMeters>173.8000030517578125</AltitudeMeters>
            <DistanceMeters>NAN</DistanceMeters>
          </Trackpoint>
          <Trackpoint>
            <Time>2022-07-09T17:05:42.000Z</Time>
            <Position>
              <LatitudeDegrees>43.31731156446039676666259765625</LatitudeDegrees>
              <LongitudeDegrees>-2.02107693068683147430419921875</LongitudeDegrees>
            </Position>
            <AltitudeMeters>173.8000030517578125</AltitudeMeters>
            <DistanceMeters>NAN</DistanceMeters>
          </Trackpoint>
          <Trackpoint>
            <Time>2022-07-09T17:05:47.000Z</Time>
            <Position>
              <LatitudeDegrees>43.31723193638026714324951171875</LatitudeDegrees>
              <LongitudeDegrees>-2.0211088657379150390625</LongitudeDegrees>
            </Position>
            <AltitudeMeters>174.600006103515625</AltitudeMeters>
            <DistanceMeters>NAN</DistanceMeters>
          </Trackpoint>
          <Trackpoint>
            <Time>2022-07-09T17:05:50.000Z</Time>
            <Position>
              <LatitudeDegrees>43.3171929605305194854736328125</LatitudeDegrees>
              <LongitudeDegrees>-2.02113904058933258056640625</LongitudeDegrees>
            </Position>
            <AltitudeMeters>174.8000030517578125</AltitudeMeters>
            <DistanceMeters>NAN</DistanceMeters>
          </Trackpoint>
          <Trackpoint>
            <Time>2022-07-09T17:05:54.000Z</Time>
            <Position>
              <LatitudeDegrees>43.31715448759496212005615234375</LatitudeDegrees>
              <LongitudeDegrees>-2.0211670361459255218505859375</LongitudeDegrees>
            </Position>
            <AltitudeMeters>175.1999969482421875</AltitudeMeters>
            <DistanceMeters>NAN</DistanceMeters>
          </Trackpoint>
          <Trackpoint>
            <Time>2022-07-09T17:05:57.000Z</Time>
            <Position>
              <LatitudeDegrees>43.31711995415389537811279296875</LatitudeDegrees>
              <LongitudeDegrees>-2.0211774297058582305908203125</LongitudeDegrees>
            </Position>
            <AltitudeMeters>175.600006103515625</AltitudeMeters>
            <DistanceMeters>NAN</DistanceMeters>
          </Trackpoint>
          <Trackpoint>
            <Time>2022-07-09T17:06:00.000Z</Time>
            <Position>
              <LatitudeDegrees>43.31710821948945522308349609375</LatitudeDegrees>
              <LongitudeDegrees>-2.0211837999522686004638671875</LongitudeDegrees>
            </Position>
            <AltitudeMeters>175.8000030517578125</AltitudeMeters>
            <DistanceMeters>NAN</DistanceMeters>
          </Trackpoint>
          <Trackpoint>
            <Time>2022-07-09T17:06:01.000Z</Time>
            <Position>
              <LatitudeDegrees>43.317101262509822845458984375</LatitudeDegrees>
              <LongitudeDegrees>-2.02118723653256893157958984375</LongitudeDegrees>
            </Position>
            <AltitudeMeters>176</AltitudeMeters>
            <DistanceMeters>NAN</DistanceMeters>
          </Trackpoint>
          <Trackpoint>
            <Time>2022-07-09T17:06:18.000Z</Time>
            <Position>
              <LatitudeDegrees>43.31682063639163970947265625</LatitudeDegrees>
              <LongitudeDegrees>-2.0212977938354015350341796875</LongitudeDegrees>
            </Position>
            <AltitudeMeters>178</AltitudeMeters>
            <DistanceMeters>NAN</DistanceMeters>
          </Trackpoint>
          <Trackpoint>
            <Time>2022-07-09T17:06:24.000Z</Time>
            <Position>
              <LatitudeDegrees>43.31675718538463115692138671875</LatitudeDegrees>
              <LongitudeDegrees>-2.02139795757830142974853515625</LongitudeDegrees>
            </Position>
            <AltitudeMeters>178.8000030517578125</AltitudeMeters>
            <DistanceMeters>NAN</DistanceMeters>
          </Trackpoint>
          <Trackpoint>
            <Time>2022-07-09T17:06:26.000Z</Time>
            <Position>
              <LatitudeDegrees>43.31673421896994113922119140625</LatitudeDegrees>
              <LongitudeDegrees>-2.0214208401739597320556640625</LongitudeDegrees>
            </Position>
            <AltitudeMeters>179</AltitudeMeters>
            <DistanceMeters>NAN</DistanceMeters>
          </Trackpoint>
          <Trackpoint>
            <Time>2022-07-09T17:06:29.000Z</Time>
            <Position>
              <LatitudeDegrees>43.31670655868947505950927734375</LatitudeDegrees>
              <LongitudeDegrees>-2.02147456817328929901123046875</LongitudeDegrees>
            </Position>
            <AltitudeMeters>179</AltitudeMeters>
            <DistanceMeters>NAN</DistanceMeters>
          </Trackpoint>
          <Trackpoint>
            <Time>2022-07-09T17:06:34.000Z</Time>
            <Position>
              <LatitudeDegrees>43.3166716061532497406005859375</LatitudeDegrees>
              <LongitudeDegrees>-2.02155939303338527679443359375</LongitudeDegrees>
            </Position>
            <AltitudeMeters>179.600006103515625</AltitudeMeters>
            <DistanceMeters>NAN</DistanceMeters>
          </Trackpoint>
          <Trackpoint>
            <Time>2022-07-09T17:06:39.000Z</Time>
            <Position>
              <LatitudeDegrees>43.31662776879966259002685546875</LatitudeDegrees>
              <LongitudeDegrees>-2.0216347463428974151611328125</LongitudeDegrees>
            </Position>
            <AltitudeMeters>180</AltitudeMeters>
            <DistanceMeters>NAN</DistanceMeters>
          </Trackpoint>
          <Trackpoint>
            <Time>2022-07-09T17:06:41.000Z</Time>
            <Position>
              <LatitudeDegrees>43.31661469303071498870849609375</LatitudeDegrees>
              <LongitudeDegrees>-2.02167154289782047271728515625</LongitudeDegrees>
            </Position>
            <AltitudeMeters>180.399993896484375</AltitudeMeters>
            <DistanceMeters>NAN</DistanceMeters>
          </Trackpoint>
          <Trackpoint>
            <Time>2022-07-09T17:06:42.000Z</Time>
            <Position>
              <LatitudeDegrees>43.3166139386594295501708984375</LatitudeDegrees>
              <LongitudeDegrees>-2.0216786675155162811279296875</LongitudeDegrees>
            </Position>
            <AltitudeMeters>180.600006103515625</AltitudeMeters>
            <DistanceMeters>NAN</DistanceMeters>
          </Trackpoint>
          <Trackpoint>
            <Time>2022-07-09T17:06:44.000Z</Time>
            <Position>
              <LatitudeDegrees>43.316613100469112396240234375</LatitudeDegrees>
              <LongitudeDegrees>-2.02167539857327938079833984375</LongitudeDegrees>
            </Position>
            <AltitudeMeters>180.8000030517578125</AltitudeMeters>
            <DistanceMeters>NAN</DistanceMeters>
          </Trackpoint>
          <Trackpoint>
            <Time>2022-07-09T17:07:13.000Z</Time>
            <Position>
              <LatitudeDegrees>43.3165664970874786376953125</LatitudeDegrees>
              <LongitudeDegrees>-2.021724097430706024169921875</LongitudeDegrees>
            </Position>
            <AltitudeMeters>180.8000030517578125</AltitudeMeters>
            <DistanceMeters>NAN</DistanceMeters>
          </Trackpoint>
          <Trackpoint>
            <Time>2022-07-09T17:07:14.000Z</Time>
            <Position>
              <LatitudeDegrees>43.31655836664140224456787109375</LatitudeDegrees>
              <LongitudeDegrees>-2.0217447169125080108642578125</LongitudeDegrees>
            </Position>
            <AltitudeMeters>180.8000030517578125</AltitudeMeters>
            <DistanceMeters>NAN</DistanceMeters>
          </Trackpoint>
          <Trackpoint>
            <Time>2022-07-09T17:07:17.000Z</Time>
            <Position>
              <LatitudeDegrees>43.31653389148414134979248046875</LatitudeDegrees>
              <LongitudeDegrees>-2.02180691063404083251953125</LongitudeDegrees>
            </Position>
            <AltitudeMeters>181.1999969482421875</AltitudeMeters>
            <DistanceMeters>NAN</DistanceMeters>
          </Trackpoint>
          <Trackpoint>
            <Time>2022-07-09T17:07:22.000Z</Time>
            <Position>
              <LatitudeDegrees>43.31650472246110439300537109375</LatitudeDegrees>
              <LongitudeDegrees>-2.02191151678562164306640625</LongitudeDegrees>
            </Position>
            <AltitudeMeters>181.600006103515625</AltitudeMeters>
            <DistanceMeters>NAN</DistanceMeters>
          </Trackpoint>
          <Trackpoint>
            <Time>2022-07-09T17:07:23.000Z</Time>
            <Position>
              <LatitudeDegrees>43.31649986095726490020751953125</LatitudeDegrees>
              <LongitudeDegrees>-2.0219291187822818756103515625</LongitudeDegrees>
            </Position>
            <AltitudeMeters>181.8000030517578125</AltitudeMeters>
            <DistanceMeters>NAN</DistanceMeters>
          </Trackpoint>
          <Trackpoint>
            <Time>2022-07-09T17:07:28.000Z</Time>
            <Position>
              <LatitudeDegrees>43.3164724521338939666748046875</LatitudeDegrees>
              <LongitudeDegrees>-2.02203799970448017120361328125</LongitudeDegrees>
            </Position>
            <AltitudeMeters>182.1999969482421875</AltitudeMeters>
            <DistanceMeters>NAN</DistanceMeters>
          </Trackpoint>
          <Trackpoint>
            <Time>2022-07-09T17:07:32.000Z</Time>
            <Position>
              <LatitudeDegrees>43.31645292229950428009033203125</LatitudeDegrees>
              <LongitudeDegrees>-2.0221212320029735565185546875</LongitudeDegrees>
            </Position>
            <AltitudeMeters>182.8000030517578125</AltitudeMeters>
            <DistanceMeters>NAN</DistanceMeters>
          </Trackpoint>
          <Trackpoint>
            <Time>2022-07-09T17:07:38.000Z</Time>
            <Position>
              <LatitudeDegrees>43.31642509438097476959228515625</LatitudeDegrees>
              <LongitudeDegrees>-2.02224972657859325408935546875</LongitudeDegrees>
            </Position>
            <AltitudeMeters>183.1999969482421875</AltitudeMeters>
            <DistanceMeters>NAN</DistanceMeters>
          </Trackpoint>
          <Trackpoint>
            <Time>2022-07-09T17:07:39.000Z</Time>
            <Position>
              <LatitudeDegrees>43.31641922704875469207763671875</LatitudeDegrees>
              <LongitudeDegrees>-2.02226883731782436370849609375</LongitudeDegrees>
            </Position>
            <AltitudeMeters>183.1999969482421875</AltitudeMeters>
            <DistanceMeters>NAN</DistanceMeters>
          </Trackpoint>
          <Trackpoint>
            <Time>2022-07-09T17:07:40.000Z</Time>
            <Position>
              <LatitudeDegrees>43.31641302444040775299072265625</LatitudeDegrees>
              <LongitudeDegrees>-2.02228912152349948883056640625</LongitudeDegrees>
            </Position>
            <AltitudeMeters>183.399993896484375</AltitudeMeters>
            <DistanceMeters>NAN</DistanceMeters>
          </Trackpoint>
          <Trackpoint>
            <Time>2022-07-09T17:07:47.000Z</Time>
            <Position>
              <LatitudeDegrees>43.316396176815032958984375</LatitudeDegrees>
              <LongitudeDegrees>-2.02243764884769916534423828125</LongitudeDegrees>
            </Position>
            <AltitudeMeters>183.8000030517578125</AltitudeMeters>
            <DistanceMeters>NAN</DistanceMeters>
          </Trackpoint>
          <Trackpoint>
            <Time>2022-07-09T17:07:50.000Z</Time>
            <Position>
              <LatitudeDegrees>43.3163950033485889434814453125</LatitudeDegrees>
              <LongitudeDegrees>-2.0224984176456928253173828125</LongitudeDegrees>
            </Position>
            <AltitudeMeters>183.8000030517578125</AltitudeMeters>
            <DistanceMeters>NAN</DistanceMeters>
          </Trackpoint>
          <Trackpoint>
            <Time>2022-07-09T17:07:54.000Z</Time>
            <Position>
              <LatitudeDegrees>43.31639684736728668212890625</LatitudeDegrees>
              <LongitudeDegrees>-2.0226338692009449005126953125</LongitudeDegrees>
            </Position>
            <AltitudeMeters>183.8000030517578125</AltitudeMeters>
            <DistanceMeters>NAN</DistanceMeters>
          </Trackpoint>
          <Trackpoint>
            <Time>2022-07-09T17:07:59.000Z</Time>
            <Position>
              <LatitudeDegrees>43.3164261840283870697021484375</LatitudeDegrees>
              <LongitudeDegrees>-2.0228246413171291351318359375</LongitudeDegrees>
            </Position>
            <AltitudeMeters>183.399993896484375</AltitudeMeters>
            <DistanceMeters>NAN</DistanceMeters>
          </Trackpoint>
          <Trackpoint>
            <Time>2022-07-09T17:08:06.000Z</Time>
            <Position>
              <LatitudeDegrees>43.31644269637763500213623046875</LatitudeDegrees>
              <LongitudeDegrees>-2.02315270900726318359375</LongitudeDegrees>
            </Position>
            <AltitudeMeters>183</AltitudeMeters>
            <DistanceMeters>NAN</DistanceMeters>
          </Trackpoint>
          <Trackpoint>
            <Time>2022-07-09T17:08:13.000Z</Time>
            <Position>
              <LatitudeDegrees>43.31645459868013858795166015625</LatitudeDegrees>
              <LongitudeDegrees>-2.02346627600491046905517578125</LongitudeDegrees>
            </Position>
            <AltitudeMeters>182.600006103515625</AltitudeMeters>
            <DistanceMeters>NAN</DistanceMeters>
          </Trackpoint>
          <Trackpoint>
            <Time>2022-07-09T17:08:17.000Z</Time>
            <Position>
              <LatitudeDegrees>43.31641972996294498443603515625</LatitudeDegrees>
              <LongitudeDegrees>-2.02363844029605388641357421875</LongitudeDegrees>
            </Position>
            <AltitudeMeters>182</AltitudeMeters>
            <DistanceMeters>NAN</DistanceMeters>
          </Trackpoint>
          <Trackpoint>
            <Time>2022-07-09T17:08:18.000Z</Time>
            <Position>
              <LatitudeDegrees>43.31639475189149379730224609375</LatitudeDegrees>
              <LongitudeDegrees>-2.0236936770379543304443359375</LongitudeDegrees>
            </Position>
            <AltitudeMeters>181.600006103515625</AltitudeMeters>
            <DistanceMeters>NAN</DistanceMeters>
          </Trackpoint>
          <Trackpoint>
            <Time>2022-07-09T17:08:20.000Z</Time>
            <Position>
              <LatitudeDegrees>43.31631864421069622039794921875</LatitudeDegrees>
              <LongitudeDegrees>-2.02380205504596233367919921875</LongitudeDegrees>
            </Position>
            <AltitudeMeters>181</AltitudeMeters>
            <DistanceMeters>NAN</DistanceMeters>
          </Trackpoint>
          <Trackpoint>
            <Time>2022-07-09T17:08:22.000Z</Time>
            <Position>
              <LatitudeDegrees>43.3162176422774791717529296875</LatitudeDegrees>
              <LongitudeDegrees>-2.023882605135440826416015625</LongitudeDegrees>
            </Position>
            <AltitudeMeters>180.1999969482421875</AltitudeMeters>
            <DistanceMeters>NAN</DistanceMeters>
          </Trackpoint>
          <Trackpoint>
            <Time>2022-07-09T17:08:23.000Z</Time>
            <Position>
              <LatitudeDegrees>43.31617078743875026702880859375</LatitudeDegrees>
              <LongitudeDegrees>-2.0239233411848545074462890625</LongitudeDegrees>
            </Position>
            <AltitudeMeters>180.1999969482421875</AltitudeMeters>
            <DistanceMeters>NAN</DistanceMeters>
          </Trackpoint>
          <Trackpoint>
            <Time>2022-07-09T17:08:25.000Z</Time>
            <Position>
              <LatitudeDegrees>43.3161051571369171142578125</LatitudeDegrees>
              <LongitudeDegrees>-2.02402509748935699462890625</LongitudeDegrees>
            </Position>
            <AltitudeMeters>180</AltitudeMeters>
            <DistanceMeters>NAN</DistanceMeters>
          </Trackpoint>
          <Trackpoint>
            <Time>2022-07-09T17:08:29.000Z</Time>
            <Position>
              <LatitudeDegrees>43.31605109386146068572998046875</LatitudeDegrees>
              <LongitudeDegrees>-2.02419918961822986602783203125</LongitudeDegrees>
            </Position>
            <AltitudeMeters>180.1999969482421875</AltitudeMeters>
            <DistanceMeters>NAN</DistanceMeters>
          </Trackpoint>
          <Trackpoint>
            <Time>2022-07-09T17:08:33.000Z</Time>
            <Position>
              <LatitudeDegrees>43.3160151354968547821044921875</LatitudeDegrees>
              <LongitudeDegrees>-2.02434428036212921142578125</LongitudeDegrees>
            </Position>
            <AltitudeMeters>180.399993896484375</AltitudeMeters>
            <DistanceMeters>NAN</DistanceMeters>
          </Trackpoint>
          <Trackpoint>
            <Time>2022-07-09T17:08:34.000Z</Time>
            <Position>
              <LatitudeDegrees>43.31600599922239780426025390625</LatitudeDegrees>
              <LongitudeDegrees>-2.02437923289835453033447265625</LongitudeDegrees>
            </Position>
            <AltitudeMeters>180.600006103515625</AltitudeMeters>
            <DistanceMeters>NAN</DistanceMeters>
          </Trackpoint>
          <Trackpoint>
            <Time>2022-07-09T17:08:39.000Z</Time>
            <Position>
              <LatitudeDegrees>43.31597431562840938568115234375</LatitudeDegrees>
              <LongitudeDegrees>-2.02449356205761432647705078125</LongitudeDegrees>
            </Position>
            <AltitudeMeters>181.1999969482421875</AltitudeMeters>
            <DistanceMeters>NAN</DistanceMeters>
          </Trackpoint>
          <Trackpoint>
            <Time>2022-07-09T17:08:45.000Z</Time>
            <Position>
              <LatitudeDegrees>43.31595218740403652191162109375</LatitudeDegrees>
              <LongitudeDegrees>-2.02462968416512012481689453125</LongitudeDegrees>
            </Position>
            <AltitudeMeters>181.8000030517578125</AltitudeMeters>
            <DistanceMeters>NAN</DistanceMeters>
          </Trackpoint>
          <Trackpoint>
            <Time>2022-07-09T17:08:49.000Z</Time>
            <Position>
              <LatitudeDegrees>43.31591539084911346435546875</LatitudeDegrees>
              <LongitudeDegrees>-2.02472339384257793426513671875</LongitudeDegrees>
            </Position>
            <AltitudeMeters>182</AltitudeMeters>
            <DistanceMeters>NAN</DistanceMeters>
          </Trackpoint>
          <Trackpoint>
            <Time>2022-07-09T17:08:53.000Z</Time>
            <Position>
              <LatitudeDegrees>43.31587473861873149871826171875</LatitudeDegrees>
              <LongitudeDegrees>-2.0247970707714557647705078125</LongitudeDegrees>
            </Position>
            <AltitudeMeters>182.8000030517578125</AltitudeMeters>
            <DistanceMeters>NAN</DistanceMeters>
          </Trackpoint>
          <Trackpoint>
            <Time>2022-07-09T17:08:55.000Z</Time>
            <Position>
              <LatitudeDegrees>43.3158562146127223968505859375</LatitudeDegrees>
              <LongitudeDegrees>-2.0248411595821380615234375</LongitudeDegrees>
            </Position>
            <AltitudeMeters>183.1999969482421875</AltitudeMeters>
            <DistanceMeters>NAN</DistanceMeters>
          </Trackpoint>
          <Trackpoint>
            <Time>2022-07-09T17:09:03.000Z</Time>
            <Position>
              <LatitudeDegrees>43.31579443998634815216064453125</LatitudeDegrees>
              <LongitudeDegrees>-2.025005109608173370361328125</LongitudeDegrees>
            </Position>
            <AltitudeMeters>183.8000030517578125</AltitudeMeters>
            <DistanceMeters>NAN</DistanceMeters>
          </Trackpoint>
          <Trackpoint>
            <Time>2022-07-09T17:09:06.000Z</Time>
            <Position>
              <LatitudeDegrees>43.315774239599704742431640625</LatitudeDegrees>
              <LongitudeDegrees>-2.02506369911134243011474609375</LongitudeDegrees>
            </Position>
            <AltitudeMeters>184.1999969482421875</AltitudeMeters>
            <DistanceMeters>NAN</DistanceMeters>
          </Trackpoint>
          <Trackpoint>
            <Time>2022-07-09T17:09:10.000Z</Time>
            <Position>
              <LatitudeDegrees>43.3157452382147312164306640625</LatitudeDegrees>
              <LongitudeDegrees>-2.02514835633337497711181640625</LongitudeDegrees>
            </Position>
            <AltitudeMeters>184.600006103515625</AltitudeMeters>
            <DistanceMeters>NAN</DistanceMeters>
          </Trackpoint>
          <Trackpoint>
            <Time>2022-07-09T17:09:16.000Z</Time>
            <Position>
              <LatitudeDegrees>43.31568899564445018768310546875</LatitudeDegrees>
              <LongitudeDegrees>-2.0252520404756069183349609375</LongitudeDegrees>
            </Position>
            <AltitudeMeters>185.1999969482421875</AltitudeMeters>
            <DistanceMeters>NAN</DistanceMeters>
          </Trackpoint>
          <Trackpoint>
            <Time>2022-07-09T17:09:17.000Z</Time>
            <Position>
              <LatitudeDegrees>43.3156812004745006561279296875</LatitudeDegrees>
              <LongitudeDegrees>-2.02526888810098171234130859375</LongitudeDegrees>
            </Position>
            <AltitudeMeters>185.399993896484375</AltitudeMeters>
            <DistanceMeters>NAN</DistanceMeters>
          </Trackpoint>
          <Trackpoint>
            <Time>2022-07-09T17:09:23.000Z</Time>
            <Position>
              <LatitudeDegrees>43.31564088352024555206298828125</LatitudeDegrees>
              <LongitudeDegrees>-2.02538707293570041656494140625</LongitudeDegrees>
            </Position>
            <AltitudeMeters>185.8000030517578125</AltitudeMeters>
            <DistanceMeters>NAN</DistanceMeters>
          </Trackpoint>
          <Trackpoint>
            <Time>2022-07-09T17:09:27.000Z</Time>
            <Position>
              <LatitudeDegrees>43.31561707891523838043212890625</LatitudeDegrees>
              <LongitudeDegrees>-2.02546820975840091705322265625</LongitudeDegrees>
            </Position>
            <AltitudeMeters>186.399993896484375</AltitudeMeters>
            <DistanceMeters>NAN</DistanceMeters>
          </Trackpoint>
          <Trackpoint>
            <Time>2022-07-09T17:09:33.000Z</Time>
            <Position>
              <LatitudeDegrees>43.31556712277233600616455078125</LatitudeDegrees>
              <LongitudeDegrees>-2.02558815479278564453125</LongitudeDegrees>
            </Position>
            <AltitudeMeters>187</AltitudeMeters>
            <DistanceMeters>NAN</DistanceMeters>
          </Trackpoint>
          <Trackpoint>
            <Time>2022-07-09T17:09:36.000Z</Time>
            <Position>
              <LatitudeDegrees>43.31553862430155277252197265625</LatitudeDegrees>
              <LongitudeDegrees>-2.0256399549543857574462890625</LongitudeDegrees>
            </Position>
            <AltitudeMeters>187.1999969482421875</AltitudeMeters>
            <DistanceMeters>NAN</DistanceMeters>
          </Trackpoint>
          <Trackpoint>
            <Time>2022-07-09T17:09:38.000Z</Time>
            <Position>
              <LatitudeDegrees>43.3155190944671630859375</LatitudeDegrees>
              <LongitudeDegrees>-2.02567591331899166107177734375</LongitudeDegrees>
            </Position>
            <AltitudeMeters>187.600006103515625</AltitudeMeters>
            <DistanceMeters>NAN</DistanceMeters>
          </Trackpoint>
          <Trackpoint>
            <Time>2022-07-09T17:09:42.000Z</Time>
            <Position>
              <LatitudeDegrees>43.3154723234474658966064453125</LatitudeDegrees>
              <LongitudeDegrees>-2.02574171125888824462890625</LongitudeDegrees>
            </Position>
            <AltitudeMeters>188.399993896484375</AltitudeMeters>
            <DistanceMeters>NAN</DistanceMeters>
          </Trackpoint>
          <Trackpoint>
            <Time>2022-07-09T17:09:45.000Z</Time>
            <Position>
              <LatitudeDegrees>43.31543527543544769287109375</LatitudeDegrees>
              <LongitudeDegrees>-2.02577800489962100982666015625</LongitudeDegrees>
            </Position>
            <AltitudeMeters>188.8000030517578125</AltitudeMeters>
            <DistanceMeters>NAN</DistanceMeters>
          </Trackpoint>
          <Trackpoint>
            <Time>2022-07-09T17:09:48.000Z</Time>
            <Position>
              <LatitudeDegrees>43.3154139854013919830322265625</LatitudeDegrees>
              <LongitudeDegrees>-2.02584489248692989349365234375</LongitudeDegrees>
            </Position>
            <AltitudeMeters>189.399993896484375</AltitudeMeters>
            <DistanceMeters>NAN</DistanceMeters>
          </Trackpoint>
          <Trackpoint>
            <Time>2022-07-09T17:09:53.000Z</Time>
            <Position>
              <LatitudeDegrees>43.3153683878481388092041015625</LatitudeDegrees>
              <LongitudeDegrees>-2.02595360577106475830078125</LongitudeDegrees>
            </Position>
            <AltitudeMeters>189.8000030517578125</AltitudeMeters>
            <DistanceMeters>NAN</DistanceMeters>
          </Trackpoint>
          <Trackpoint>
            <Time>2022-07-09T17:09:59.000Z</Time>
            <Position>
              <LatitudeDegrees>43.3153258077800273895263671875</LatitudeDegrees>
              <LongitudeDegrees>-2.02607489190995693206787109375</LongitudeDegrees>
            </Position>
            <AltitudeMeters>190.399993896484375</AltitudeMeters>
            <DistanceMeters>NAN</DistanceMeters>
          </Trackpoint>
          <Trackpoint>
            <Time>2022-07-09T17:10:06.000Z</Time>
            <Position>
              <LatitudeDegrees>43.315276689827442169189453125</LatitudeDegrees>
              <LongitudeDegrees>-2.02622023411095142364501953125</LongitudeDegrees>
            </Position>
            <AltitudeMeters>190.8000030517578125</AltitudeMeters>
            <DistanceMeters>NAN</DistanceMeters>
          </Trackpoint>
          <Trackpoint>
            <Time>2022-07-09T17:10:10.000Z</Time>
            <Position>
              <LatitudeDegrees>43.31524358130991458892822265625</LatitudeDegrees>
              <LongitudeDegrees>-2.0263004489243030548095703125</LongitudeDegrees>
            </Position>
            <AltitudeMeters>191</AltitudeMeters>
            <DistanceMeters>NAN</DistanceMeters>
          </Trackpoint>
          <Trackpoint>
            <Time>2022-07-09T17:10:19.000Z</Time>
            <Position>
              <LatitudeDegrees>43.31516437232494354248046875</LatitudeDegrees>
              <LongitudeDegrees>-2.0264880359172821044921875</LongitudeDegrees>
            </Position>
            <AltitudeMeters>191.600006103515625</AltitudeMeters>
            <DistanceMeters>NAN</DistanceMeters>
          </Trackpoint>
          <Trackpoint>
            <Time>2022-07-09T17:10:22.000Z</Time>
            <Position>
              <LatitudeDegrees>43.315142579376697540283203125</LatitudeDegrees>
              <LongitudeDegrees>-2.026545703411102294921875</LongitudeDegrees>
            </Position>
            <AltitudeMeters>191.8000030517578125</AltitudeMeters>
            <DistanceMeters>NAN</DistanceMeters>
          </Trackpoint>
          <Trackpoint>
            <Time>2022-07-09T17:10:28.000Z</Time>
            <Position>
              <LatitudeDegrees>43.31511265598237514495849609375</LatitudeDegrees>
              <LongitudeDegrees>-2.026659362018108367919921875</LongitudeDegrees>
            </Position>
            <AltitudeMeters>192.399993896484375</AltitudeMeters>
            <DistanceMeters>NAN</DistanceMeters>
          </Trackpoint>
          <Trackpoint>
            <Time>2022-07-09T17:10:35.000Z</Time>
            <Position>
              <LatitudeDegrees>43.31506353802978992462158203125</LatitudeDegrees>
              <LongitudeDegrees>-2.026765644550323486328125</LongitudeDegrees>
            </Position>
            <AltitudeMeters>193</AltitudeMeters>
            <DistanceMeters>NAN</DistanceMeters>
          </Trackpoint>
          <Trackpoint>
            <Time>2022-07-09T17:10:40.000Z</Time>
            <Position>
              <LatitudeDegrees>43.3150240592658519744873046875</LatitudeDegrees>
              <LongitudeDegrees>-2.0268409140408039093017578125</LongitudeDegrees>
            </Position>
            <AltitudeMeters>193.600006103515625</AltitudeMeters>
            <DistanceMeters>NAN</DistanceMeters>
          </Trackpoint>
          <Trackpoint>
            <Time>2022-07-09T17:10:43.000Z</Time>
            <Position>
              <LatitudeDegrees>43.31499279476702213287353515625</LatitudeDegrees>
              <LongitudeDegrees>-2.02688944526016712188720703125</LongitudeDegrees>
            </Position>
            <AltitudeMeters>194</AltitudeMeters>
            <DistanceMeters>NAN</DistanceMeters>
          </Trackpoint>
          <Trackpoint>
            <Time>2022-07-09T17:10:44.000Z</Time>
            <Position>
              <LatitudeDegrees>43.3149841614067554473876953125</LatitudeDegrees>
              <LongitudeDegrees>-2.0269042812287807464599609375</LongitudeDegrees>
            </Position>
            <AltitudeMeters>194.1999969482421875</AltitudeMeters>
            <DistanceMeters>NAN</DistanceMeters>
          </Trackpoint>
          <Trackpoint>
            <Time>2022-07-09T17:10:48.000Z</Time>
            <Position>
              <LatitudeDegrees>43.31494979560375213623046875</LatitudeDegrees>
              <LongitudeDegrees>-2.02696136198937892913818359375</LongitudeDegrees>
            </Position>
            <AltitudeMeters>194.8000030517578125</AltitudeMeters>
            <DistanceMeters>NAN</DistanceMeters>
          </Trackpoint>
          <Trackpoint>
            <Time>2022-07-09T17:10:49.000Z</Time>
            <Position>
              <LatitudeDegrees>43.31493764184415340423583984375</LatitudeDegrees>
              <LongitudeDegrees>-2.0269726775586605072021484375</LongitudeDegrees>
            </Position>
            <AltitudeMeters>195</AltitudeMeters>
            <DistanceMeters>NAN</DistanceMeters>
          </Trackpoint>
          <Trackpoint>
            <Time>2022-07-09T17:10:51.000Z</Time>
            <Position>
              <LatitudeDegrees>43.314928673207759857177734375</LatitudeDegrees>
              <LongitudeDegrees>-2.027004696428775787353515625</LongitudeDegrees>
            </Position>
            <AltitudeMeters>195.1999969482421875</AltitudeMeters>
            <DistanceMeters>NAN</DistanceMeters>
          </Trackpoint>
          <Trackpoint>
            <Time>2022-07-09T17:10:54.000Z</Time>
            <Position>
              <LatitudeDegrees>43.3149204589426517486572265625</LatitudeDegrees>
              <LongitudeDegrees>-2.027042917907238006591796875</LongitudeDegrees>
            </Position>
            <AltitudeMeters>195.600006103515625</AltitudeMeters>
            <DistanceMeters>NAN</DistanceMeters>
          </Trackpoint>
          <Trackpoint>
            <Time>2022-07-09T17:10:56.000Z</Time>
            <Position>
              <LatitudeDegrees>43.314922638237476348876953125</LatitudeDegrees>
              <LongitudeDegrees>-2.02706848271191120147705078125</LongitudeDegrees>
            </Position>
            <AltitudeMeters>196.1999969482421875</AltitudeMeters>
            <DistanceMeters>NAN</DistanceMeters>
          </Trackpoint>
          <Trackpoint>
            <Time>2022-07-09T17:10:57.000Z</Time>
            <Position>
              <LatitudeDegrees>43.31492842175066471099853515625</LatitudeDegrees>
              <LongitudeDegrees>-2.02708759345114231109619140625</LongitudeDegrees>
            </Position>
            <AltitudeMeters>196.1999969482421875</AltitudeMeters>
            <DistanceMeters>NAN</DistanceMeters>
          </Trackpoint>
          <Trackpoint>
            <Time>2022-07-09T17:10:59.000Z</Time>
            <Position>
              <LatitudeDegrees>43.31496479921042919158935546875</LatitudeDegrees>
              <LongitudeDegrees>-2.0271262340247631072998046875</LongitudeDegrees>
            </Position>
            <AltitudeMeters>196.399993896484375</AltitudeMeters>
            <DistanceMeters>NAN</DistanceMeters>
          </Trackpoint>
          <Trackpoint>
            <Time>2022-07-09T17:11:02.000Z</Time>
            <Position>
              <LatitudeDegrees>43.31506202928721904754638671875</LatitudeDegrees>
              <LongitudeDegrees>-2.02720058150589466094970703125</LongitudeDegrees>
            </Position>
            <AltitudeMeters>195.8000030517578125</AltitudeMeters>
            <DistanceMeters>NAN</DistanceMeters>
          </Trackpoint>
          <Trackpoint>
            <Time>2022-07-09T17:11:04.000Z</Time>
            <Position>
              <LatitudeDegrees>43.31513009034097194671630859375</LatitudeDegrees>
              <LongitudeDegrees>-2.02726931311190128326416015625</LongitudeDegrees>
            </Position>
            <AltitudeMeters>194.8000030517578125</AltitudeMeters>
            <DistanceMeters>NAN</DistanceMeters>
          </Trackpoint>
          <Trackpoint>
            <Time>2022-07-09T17:11:05.000Z</Time>
            <Position>
              <LatitudeDegrees>43.3151591755449771881103515625</LatitudeDegrees>
              <LongitudeDegrees>-2.0273166708648204803466796875</LongitudeDegrees>
            </Position>
            <AltitudeMeters>194.1999969482421875</AltitudeMeters>
            <DistanceMeters>NAN</DistanceMeters>
          </Trackpoint>
          <Trackpoint>
            <Time>2022-07-09T17:11:06.000Z</Time>
            <Position>
              <LatitudeDegrees>43.31517937593162059783935546875</LatitudeDegrees>
              <LongitudeDegrees>-2.0273704826831817626953125</LongitudeDegrees>
            </Position>
            <AltitudeMeters>193.600006103515625</AltitudeMeters>
            <DistanceMeters>NAN</DistanceMeters>
          </Trackpoint>
          <Trackpoint>
            <Time>2022-07-09T17:11:07.000Z</Time>
            <Position>
              <LatitudeDegrees>43.31519345752894878387451171875</LatitudeDegrees>
              <LongitudeDegrees>-2.0274377055466175079345703125</LongitudeDegrees>
            </Position>
            <AltitudeMeters>193.1999969482421875</AltitudeMeters>
            <DistanceMeters>NAN</DistanceMeters>
          </Trackpoint>
          <Trackpoint>
            <Time>2022-07-09T17:11:08.000Z</Time>
            <Position>
              <LatitudeDegrees>43.31520058214664459228515625</LatitudeDegrees>
              <LongitudeDegrees>-2.0275094546377658843994140625</LongitudeDegrees>
            </Position>
            <AltitudeMeters>192.8000030517578125</AltitudeMeters>
            <DistanceMeters>NAN</DistanceMeters>
          </Trackpoint>
          <Trackpoint>
            <Time>2022-07-09T17:11:09.000Z</Time>
            <Position>
              <LatitudeDegrees>43.3151987381279468536376953125</LatitudeDegrees>
              <LongitudeDegrees>-2.02757743187248706817626953125</LongitudeDegrees>
            </Position>
            <AltitudeMeters>192.399993896484375</AltitudeMeters>
            <DistanceMeters>NAN</DistanceMeters>
          </Trackpoint>
          <Trackpoint>
            <Time>2022-07-09T17:11:11.000Z</Time>
            <Position>
              <LatitudeDegrees>43.315189182758331298828125</LatitudeDegrees>
              <LongitudeDegrees>-2.02770911157131195068359375</LongitudeDegrees>
            </Position>
            <AltitudeMeters>191.600006103515625</AltitudeMeters>
            <DistanceMeters>NAN</DistanceMeters>
          </Trackpoint>
          <Trackpoint>
            <Time>2022-07-09T17:11:12.000Z</Time>
            <Position>
              <LatitudeDegrees>43.31517635844647884368896484375</LatitudeDegrees>
              <LongitudeDegrees>-2.0277647674083709716796875</LongitudeDegrees>
            </Position>
            <AltitudeMeters>191.1999969482421875</AltitudeMeters>
            <DistanceMeters>NAN</DistanceMeters>
          </Trackpoint>
          <Trackpoint>
            <Time>2022-07-09T17:11:13.000Z</Time>
            <Position>
              <LatitudeDegrees>43.3151521347463130950927734375</LatitudeDegrees>
              <LongitudeDegrees>-2.0278179086744785308837890625</LongitudeDegrees>
            </Position>
            <AltitudeMeters>191.1999969482421875</AltitudeMeters>
            <DistanceMeters>NAN</DistanceMeters>
          </Trackpoint>
          <Trackpoint>
            <Time>2022-07-09T17:11:17.000Z</Time>
            <Position>
              <LatitudeDegrees>43.314987011253833770751953125</LatitudeDegrees>
              <LongitudeDegrees>-2.0279956050217151641845703125</LongitudeDegrees>
            </Position>
            <AltitudeMeters>190.399993896484375</AltitudeMeters>
            <DistanceMeters>NAN</DistanceMeters>
          </Trackpoint>
          <Trackpoint>
            <Time>2022-07-09T17:11:18.000Z</Time>
            <Position>
              <LatitudeDegrees>43.31495390273630619049072265625</LatitudeDegrees>
              <LongitudeDegrees>-2.0280542783439159393310546875</LongitudeDegrees>
            </Position>
            <AltitudeMeters>190.1999969482421875</AltitudeMeters>
            <DistanceMeters>NAN</DistanceMeters>
          </Trackpoint>
          <Trackpoint>
            <Time>2022-07-09T17:11:19.000Z</Time>
            <Position>
              <LatitudeDegrees>43.31493194214999675750732421875</LatitudeDegrees>
              <LongitudeDegrees>-2.0281209982931613922119140625</LongitudeDegrees>
            </Position>
            <AltitudeMeters>190</AltitudeMeters>
            <DistanceMeters>NAN</DistanceMeters>
          </Trackpoint>
          <Trackpoint>
            <Time>2022-07-09T17:11:20.000Z</Time>
            <Position>
              <LatitudeDegrees>43.3149204589426517486572265625</LatitudeDegrees>
              <LongitudeDegrees>-2.0281914062798023223876953125</LongitudeDegrees>
            </Position>
            <AltitudeMeters>190</AltitudeMeters>
            <DistanceMeters>NAN</DistanceMeters>
          </Trackpoint>
          <Trackpoint>
            <Time>2022-07-09T17:11:23.000Z</Time>
            <Position>
              <LatitudeDegrees>43.3148926310241222381591796875</LatitudeDegrees>
              <LongitudeDegrees>-2.02840338461101055145263671875</LongitudeDegrees>
            </Position>
            <AltitudeMeters>189.600006103515625</AltitudeMeters>
            <DistanceMeters>NAN</DistanceMeters>
          </Trackpoint>
          <Trackpoint>
            <Time>2022-07-09T17:11:26.000Z</Time>
            <Position>
              <LatitudeDegrees>43.31486958079040050506591796875</LatitudeDegrees>
              <LongitudeDegrees>-2.028618045151233673095703125</LongitudeDegrees>
            </Position>
            <AltitudeMeters>189.1999969482421875</AltitudeMeters>
            <DistanceMeters>NAN</DistanceMeters>
          </Trackpoint>
          <Trackpoint>
            <Time>2022-07-09T17:11:27.000Z</Time>
            <Position>
              <LatitudeDegrees>43.31487930379807949066162109375</LatitudeDegrees>
              <LongitudeDegrees>-2.02869473956525325775146484375</LongitudeDegrees>
            </Position>
            <AltitudeMeters>189</AltitudeMeters>
            <DistanceMeters>NAN</DistanceMeters>
          </Trackpoint>
          <Trackpoint>
            <Time>2022-07-09T17:11:28.000Z</Time>
            <Position>
              <LatitudeDegrees>43.3148981630802154541015625</LatitudeDegrees>
              <LongitudeDegrees>-2.028776966035366058349609375</LongitudeDegrees>
            </Position>
            <AltitudeMeters>188.600006103515625</AltitudeMeters>
            <DistanceMeters>NAN</DistanceMeters>
          </Trackpoint>
          <Trackpoint>
            <Time>2022-07-09T17:11:30.000Z</Time>
            <Position>
              <LatitudeDegrees>43.31494619138538837432861328125</LatitudeDegrees>
              <LongitudeDegrees>-2.02894887886941432952880859375</LongitudeDegrees>
            </Position>
            <AltitudeMeters>187.8000030517578125</AltitudeMeters>
            <DistanceMeters>NAN</DistanceMeters>
          </Trackpoint>
          <Trackpoint>
            <Time>2022-07-09T17:11:32.000Z</Time>
            <Position>
              <LatitudeDegrees>43.31499849446117877960205078125</LatitudeDegrees>
              <LongitudeDegrees>-2.0291338674724102020263671875</LongitudeDegrees>
            </Position>
            <AltitudeMeters>186.600006103515625</AltitudeMeters>
            <DistanceMeters>NAN</DistanceMeters>
          </Trackpoint>
          <Trackpoint>
            <Time>2022-07-09T17:11:34.000Z</Time>
            <Position>
              <LatitudeDegrees>43.31500084139406681060791015625</LatitudeDegrees>
              <LongitudeDegrees>-2.02931768260896205902099609375</LongitudeDegrees>
            </Position>
            <AltitudeMeters>185.600006103515625</AltitudeMeters>
            <DistanceMeters>NAN</DistanceMeters>
          </Trackpoint>
          <Trackpoint>
            <Time>2022-07-09T17:11:35.000Z</Time>
            <Position>
              <LatitudeDegrees>43.3149855025112628936767578125</LatitudeDegrees>
              <LongitudeDegrees>-2.0294062793254852294921875</LongitudeDegrees>
            </Position>
            <AltitudeMeters>185</AltitudeMeters>
            <DistanceMeters>NAN</DistanceMeters>
          </Trackpoint>
          <Trackpoint>
            <Time>2022-07-09T17:11:36.000Z</Time>
            <Position>
              <LatitudeDegrees>43.31496396102011203765869140625</LatitudeDegrees>
              <LongitudeDegrees>-2.02949236147105693817138671875</LongitudeDegrees>
            </Position>
            <AltitudeMeters>184.600006103515625</AltitudeMeters>
            <DistanceMeters>NAN</DistanceMeters>
          </Trackpoint>
          <Trackpoint>
            <Time>2022-07-09T17:11:38.000Z</Time>
            <Position>
              <LatitudeDegrees>43.31491936929523944854736328125</LatitudeDegrees>
              <LongitudeDegrees>-2.02965429984033107757568359375</LongitudeDegrees>
            </Position>
            <AltitudeMeters>184.1999969482421875</AltitudeMeters>
            <DistanceMeters>NAN</DistanceMeters>
          </Trackpoint>
          <Trackpoint>
            <Time>2022-07-09T17:11:42.000Z</Time>
            <Position>
              <LatitudeDegrees>43.31483202986419200897216796875</LatitudeDegrees>
              <LongitudeDegrees>-2.0298761688172817230224609375</LongitudeDegrees>
            </Position>
            <AltitudeMeters>184.1999969482421875</AltitudeMeters>
            <DistanceMeters>NAN</DistanceMeters>
          </Trackpoint>
          <Trackpoint>
            <Time>2022-07-09T17:11:46.000Z</Time>
            <Position>
              <LatitudeDegrees>43.31477637402713298797607421875</LatitudeDegrees>
              <LongitudeDegrees>-2.02998186461627483367919921875</LongitudeDegrees>
            </Position>
            <AltitudeMeters>185.1999969482421875</AltitudeMeters>
            <DistanceMeters>NAN</DistanceMeters>
          </Trackpoint>
          <Trackpoint>
            <Time>2022-07-09T17:11:50.000Z</Time>
            <Position>
              <LatitudeDegrees>43.314722143113613128662109375</LatitudeDegrees>
              <LongitudeDegrees>-2.030065767467021942138671875</LongitudeDegrees>
            </Position>
            <AltitudeMeters>186</AltitudeMeters>
            <DistanceMeters>NAN</DistanceMeters>
          </Trackpoint>
          <Trackpoint>
            <Time>2022-07-09T17:11:52.000Z</Time>
            <Position>
              <LatitudeDegrees>43.31469858996570110321044921875</LatitudeDegrees>
              <LongitudeDegrees>-2.03011111356317996978759765625</LongitudeDegrees>
            </Position>
            <AltitudeMeters>186.399993896484375</AltitudeMeters>
            <DistanceMeters>NAN</DistanceMeters>
          </Trackpoint>
          <Trackpoint>
            <Time>2022-07-09T17:11:55.000Z</Time>
            <Position>
              <LatitudeDegrees>43.3146673254668712615966796875</LatitudeDegrees>
              <LongitudeDegrees>-2.03018504194915294647216796875</LongitudeDegrees>
            </Position>
            <AltitudeMeters>187</AltitudeMeters>
            <DistanceMeters>NAN</DistanceMeters>
          </Trackpoint>
          <Trackpoint>
            <Time>2022-07-09T17:11:56.000Z</Time>
            <Position>
              <LatitudeDegrees>43.31465500406920909881591796875</LatitudeDegrees>
              <LongitudeDegrees>-2.03020499087870121002197265625</LongitudeDegrees>
            </Position>
            <AltitudeMeters>187.1999969482421875</AltitudeMeters>
            <DistanceMeters>NAN</DistanceMeters>
          </Trackpoint>
          <Trackpoint>
            <Time>2022-07-09T17:12:01.000Z</Time>
            <Position>
              <LatitudeDegrees>43.3145959116518497467041015625</LatitudeDegrees>
              <LongitudeDegrees>-2.0303120277822017669677734375</LongitudeDegrees>
            </Position>
            <AltitudeMeters>187.8000030517578125</AltitudeMeters>
            <DistanceMeters>NAN</DistanceMeters>
          </Trackpoint>
          <Trackpoint>
            <Time>2022-07-09T17:12:04.000Z</Time>
            <Position>
              <LatitudeDegrees>43.314551152288913726806640625</LatitudeDegrees>
              <LongitudeDegrees>-2.03036315739154815673828125</LongitudeDegrees>
            </Position>
            <AltitudeMeters>188.1999969482421875</AltitudeMeters>
            <DistanceMeters>NAN</DistanceMeters>
          </Trackpoint>
          <Trackpoint>
            <Time>2022-07-09T17:12:10.000Z</Time>
            <Position>
              <LatitudeDegrees>43.31446741707623004913330078125</LatitudeDegrees>
              <LongitudeDegrees>-2.03049324452877044677734375</LongitudeDegrees>
            </Position>
            <AltitudeMeters>188.600006103515625</AltitudeMeters>
            <DistanceMeters>NAN</DistanceMeters>
          </Trackpoint>
          <Trackpoint>
            <Time>2022-07-09T17:12:16.000Z</Time>
            <Position>
              <LatitudeDegrees>43.314405642449855804443359375</LatitudeDegrees>
              <LongitudeDegrees>-2.03062911517918109893798828125</LongitudeDegrees>
            </Position>
            <AltitudeMeters>188.8000030517578125</AltitudeMeters>
            <DistanceMeters>NAN</DistanceMeters>
          </Trackpoint>
          <Trackpoint>
            <Time>2022-07-09T17:12:20.000Z</Time>
            <Position>
              <LatitudeDegrees>43.31434495747089385986328125</LatitudeDegrees>
              <LongitudeDegrees>-2.0307331345975399017333984375</LongitudeDegrees>
            </Position>
            <AltitudeMeters>189.399993896484375</AltitudeMeters>
            <DistanceMeters>NAN</DistanceMeters>
          </Trackpoint>
          <Trackpoint>
            <Time>2022-07-09T17:12:24.000Z</Time>
            <Position>
              <LatitudeDegrees>43.31428804434835910797119140625</LatitudeDegrees>
              <LongitudeDegrees>-2.03082575462758541107177734375</LongitudeDegrees>
            </Position>
            <AltitudeMeters>189.600006103515625</AltitudeMeters>
            <DistanceMeters>NAN</DistanceMeters>
          </Trackpoint>
          <Trackpoint>
            <Time>2022-07-09T17:12:28.000Z</Time>
            <Position>
              <LatitudeDegrees>43.3142804168164730072021484375</LatitudeDegrees>
              <LongitudeDegrees>-2.03084536828100681304931640625</LongitudeDegrees>
            </Position>
            <AltitudeMeters>189.399993896484375</AltitudeMeters>
            <DistanceMeters>NAN</DistanceMeters>
          </Trackpoint>
          <Trackpoint>
            <Time>2022-07-09T17:12:57.000Z</Time>
            <Position>
              <LatitudeDegrees>43.31423087976872920989990234375</LatitudeDegrees>
              <LongitudeDegrees>-2.030900605022907257080078125</LongitudeDegrees>
            </Position>
            <AltitudeMeters>189.600006103515625</AltitudeMeters>
            <DistanceMeters>NAN</DistanceMeters>
          </Trackpoint>
          <Trackpoint>
            <Time>2022-07-09T17:12:58.000Z</Time>
            <Position>
              <LatitudeDegrees>43.314205147325992584228515625</LatitudeDegrees>
              <LongitudeDegrees>-2.03092373907566070556640625</LongitudeDegrees>
            </Position>
            <AltitudeMeters>189.600006103515625</AltitudeMeters>
            <DistanceMeters>NAN</DistanceMeters>
          </Trackpoint>
          <Trackpoint>
            <Time>2022-07-09T17:12:59.000Z</Time>
            <Position>
              <LatitudeDegrees>43.3141774870455265045166015625</LatitudeDegrees>
              <LongitudeDegrees>-2.0309500582516193389892578125</LongitudeDegrees>
            </Position>
            <AltitudeMeters>189.600006103515625</AltitudeMeters>
            <DistanceMeters>NAN</DistanceMeters>
          </Trackpoint>
          <Trackpoint>
            <Time>2022-07-09T17:13:02.000Z</Time>
            <Position>
              <LatitudeDegrees>43.31408771686255931854248046875</LatitudeDegrees>
              <LongitudeDegrees>-2.031070925295352935791015625</LongitudeDegrees>
            </Position>
            <AltitudeMeters>189.399993896484375</AltitudeMeters>
            <DistanceMeters>NAN</DistanceMeters>
          </Trackpoint>
          <Trackpoint>
            <Time>2022-07-09T17:13:04.000Z</Time>
            <Position>
              <LatitudeDegrees>43.3140081726014614105224609375</LatitudeDegrees>
              <LongitudeDegrees>-2.03116354532539844512939453125</LongitudeDegrees>
            </Position>
            <AltitudeMeters>188.8000030517578125</AltitudeMeters>
            <DistanceMeters>NAN</DistanceMeters>
          </Trackpoint>
          <Trackpoint>
            <Time>2022-07-09T17:13:05.000Z</Time>
            <Position>
              <LatitudeDegrees>43.3139632456004619598388671875</LatitudeDegrees>
              <LongitudeDegrees>-2.03121878206729888916015625</LongitudeDegrees>
            </Position>
            <AltitudeMeters>188.600006103515625</AltitudeMeters>
            <DistanceMeters>NAN</DistanceMeters>
          </Trackpoint>
          <Trackpoint>
            <Time>2022-07-09T17:13:06.000Z</Time>
            <Position>
              <LatitudeDegrees>43.31392091698944568634033203125</LatitudeDegrees>
              <LongitudeDegrees>-2.03129027970135211944580078125</LongitudeDegrees>
            </Position>
            <AltitudeMeters>188.1999969482421875</AltitudeMeters>
            <DistanceMeters>NAN</DistanceMeters>
          </Trackpoint>
          <Trackpoint>
            <Time>2022-07-09T17:13:07.000Z</Time>
            <Position>
              <LatitudeDegrees>43.3138811029493808746337890625</LatitudeDegrees>
              <LongitudeDegrees>-2.03137191943824291229248046875</LongitudeDegrees>
            </Position>
            <AltitudeMeters>187.8000030517578125</AltitudeMeters>
            <DistanceMeters>NAN</DistanceMeters>
          </Trackpoint>
          <Trackpoint>
            <Time>2022-07-09T17:13:09.000Z</Time>
            <Position>
              <LatitudeDegrees>43.31381119787693023681640625</LatitudeDegrees>
              <LongitudeDegrees>-2.03154240734875202178955078125</LongitudeDegrees>
            </Position>
            <AltitudeMeters>187</AltitudeMeters>
            <DistanceMeters>NAN</DistanceMeters>
          </Trackpoint>
          <Trackpoint>
            <Time>2022-07-09T17:13:10.000Z</Time>
            <Position>
              <LatitudeDegrees>43.31377507187426090240478515625</LatitudeDegrees>
              <LongitudeDegrees>-2.031626142561435699462890625</LongitudeDegrees>
            </Position>
            <AltitudeMeters>186.399993896484375</AltitudeMeters>
            <DistanceMeters>NAN</DistanceMeters>
          </Trackpoint>
          <Trackpoint>
            <Time>2022-07-09T17:13:11.000Z</Time>
            <Position>
              <LatitudeDegrees>43.31372612155973911285400390625</LatitudeDegrees>
              <LongitudeDegrees>-2.0316957123577594757080078125</LongitudeDegrees>
            </Position>
            <AltitudeMeters>186.1999969482421875</AltitudeMeters>
            <DistanceMeters>NAN</DistanceMeters>
          </Trackpoint>
          <Trackpoint>
            <Time>2022-07-09T17:13:12.000Z</Time>
            <Position>
              <LatitudeDegrees>43.31367650069296360015869140625</LatitudeDegrees>
              <LongitudeDegrees>-2.03174307011067867279052734375</LongitudeDegrees>
            </Position>
            <AltitudeMeters>186</AltitudeMeters>
            <DistanceMeters>NAN</DistanceMeters>
          </Trackpoint>
          <Trackpoint>
            <Time>2022-07-09T17:13:13.000Z</Time>
            <Position>
              <LatitudeDegrees>43.31363358534872531890869140625</LatitudeDegrees>
              <LongitudeDegrees>-2.03177710063755512237548828125</LongitudeDegrees>
            </Position>
            <AltitudeMeters>185.8000030517578125</AltitudeMeters>
            <DistanceMeters>NAN</DistanceMeters>
          </Trackpoint>
          <Trackpoint>
            <Time>2022-07-09T17:13:14.000Z</Time>
            <Position>
              <LatitudeDegrees>43.3135961182415485382080078125</LatitudeDegrees>
              <LongitudeDegrees>-2.031795121729373931884765625</LongitudeDegrees>
            </Position>
            <AltitudeMeters>185.8000030517578125</AltitudeMeters>
            <DistanceMeters>NAN</DistanceMeters>
          </Trackpoint>
          <Trackpoint>
            <Time>2022-07-09T17:13:18.000Z</Time>
            <Position>
              <LatitudeDegrees>43.31350500695407390594482421875</LatitudeDegrees>
              <LongitudeDegrees>-2.03183074481785297393798828125</LongitudeDegrees>
            </Position>
            <AltitudeMeters>186</AltitudeMeters>
            <DistanceMeters>NAN</DistanceMeters>
          </Trackpoint>
          <Trackpoint>
            <Time>2022-07-09T17:13:24.000Z</Time>
            <Position>
              <LatitudeDegrees>43.31341381184756755828857421875</LatitudeDegrees>
              <LongitudeDegrees>-2.03189126215875148773193359375</LongitudeDegrees>
            </Position>
            <AltitudeMeters>187</AltitudeMeters>
            <DistanceMeters>NAN</DistanceMeters>
          </Trackpoint>
          <Trackpoint>
            <Time>2022-07-09T17:13:25.000Z</Time>
            <Position>
              <LatitudeDegrees>43.313407190144062042236328125</LatitudeDegrees>
              <LongitudeDegrees>-2.03190484084188938140869140625</LongitudeDegrees>
            </Position>
            <AltitudeMeters>187</AltitudeMeters>
            <DistanceMeters>NAN</DistanceMeters>
          </Trackpoint>
          <Trackpoint>
            <Time>2022-07-09T17:13:30.000Z</Time>
            <Position>
              <LatitudeDegrees>43.31334424205124378204345703125</LatitudeDegrees>
              <LongitudeDegrees>-2.03196820802986621856689453125</LongitudeDegrees>
            </Position>
            <AltitudeMeters>187.8000030517578125</AltitudeMeters>
            <DistanceMeters>NAN</DistanceMeters>
          </Trackpoint>
          <Trackpoint>
            <Time>2022-07-09T17:13:32.000Z</Time>
            <Position>
              <LatitudeDegrees>43.31332831643521785736083984375</LatitudeDegrees>
              <LongitudeDegrees>-2.03200408257544040679931640625</LongitudeDegrees>
            </Position>
            <AltitudeMeters>188</AltitudeMeters>
            <DistanceMeters>NAN</DistanceMeters>
          </Trackpoint>
          <Trackpoint>
            <Time>2022-07-09T17:13:36.000Z</Time>
            <Position>
              <LatitudeDegrees>43.31329177133738994598388671875</LatitudeDegrees>
              <LongitudeDegrees>-2.0320735685527324676513671875</LongitudeDegrees>
            </Position>
            <AltitudeMeters>188.600006103515625</AltitudeMeters>
            <DistanceMeters>NAN</DistanceMeters>
          </Trackpoint>
          <Trackpoint>
            <Time>2022-07-09T17:13:41.000Z</Time>
            <Position>
              <LatitudeDegrees>43.313268385827541351318359375</LatitudeDegrees>
              <LongitudeDegrees>-2.0321593992412090301513671875</LongitudeDegrees>
            </Position>
            <AltitudeMeters>189.399993896484375</AltitudeMeters>
            <DistanceMeters>NAN</DistanceMeters>
          </Trackpoint>
          <Trackpoint>
            <Time>2022-07-09T17:13:43.000Z</Time>
            <Position>
              <LatitudeDegrees>43.313265703618526458740234375</LatitudeDegrees>
              <LongitudeDegrees>-2.0321674458682537078857421875</LongitudeDegrees>
            </Position>
            <AltitudeMeters>189.600006103515625</AltitudeMeters>
            <DistanceMeters>NAN</DistanceMeters>
          </Trackpoint>
          <Trackpoint>
            <Time>2022-07-09T17:13:44.000Z</Time>
            <Position>
              <LatitudeDegrees>43.313265703618526458740234375</LatitudeDegrees>
              <LongitudeDegrees>-2.0321674458682537078857421875</LongitudeDegrees>
            </Position>
            <AltitudeMeters>189.8000030517578125</AltitudeMeters>
            <DistanceMeters>NAN</DistanceMeters>
          </Trackpoint>
          <Trackpoint>
            <Time>2022-07-09T17:14:10.000Z</Time>
            <Position>
              <LatitudeDegrees>43.31325388513505458831787109375</LatitudeDegrees>
              <LongitudeDegrees>-2.03222972340881824493408203125</LongitudeDegrees>
            </Position>
            <AltitudeMeters>189.600006103515625</AltitudeMeters>
            <DistanceMeters>NAN</DistanceMeters>
          </Trackpoint>
          <Trackpoint>
            <Time>2022-07-09T17:14:11.000Z</Time>
            <Position>
              <LatitudeDegrees>43.3132440783083438873291015625</LatitudeDegrees>
              <LongitudeDegrees>-2.032257132232189178466796875</LongitudeDegrees>
            </Position>
            <AltitudeMeters>189.600006103515625</AltitudeMeters>
            <DistanceMeters>NAN</DistanceMeters>
          </Trackpoint>
          <Trackpoint>
            <Time>2022-07-09T17:14:12.000Z</Time>
            <Position>
              <LatitudeDegrees>43.3132336847484111785888671875</LatitudeDegrees>
              <LongitudeDegrees>-2.032287307083606719970703125</LongitudeDegrees>
            </Position>
            <AltitudeMeters>189.600006103515625</AltitudeMeters>
            <DistanceMeters>NAN</DistanceMeters>
          </Trackpoint>
          <Trackpoint>
            <Time>2022-07-09T17:14:16.000Z</Time>
            <Position>
              <LatitudeDegrees>43.31319487653672695159912109375</LatitudeDegrees>
              <LongitudeDegrees>-2.03245502896606922149658203125</LongitudeDegrees>
            </Position>
            <AltitudeMeters>189.1999969482421875</AltitudeMeters>
            <DistanceMeters>NAN</DistanceMeters>
          </Trackpoint>
          <Trackpoint>
            <Time>2022-07-09T17:14:18.000Z</Time>
            <Position>
              <LatitudeDegrees>43.313177861273288726806640625</LatitudeDegrees>
              <LongitudeDegrees>-2.0325600542128086090087890625</LongitudeDegrees>
            </Position>
            <AltitudeMeters>189</AltitudeMeters>
            <DistanceMeters>NAN</DistanceMeters>
          </Trackpoint>
          <Trackpoint>
            <Time>2022-07-09T17:14:19.000Z</Time>
            <Position>
              <LatitudeDegrees>43.31317056901752948760986328125</LatitudeDegrees>
              <LongitudeDegrees>-2.03261462040245532989501953125</LongitudeDegrees>
            </Position>
            <AltitudeMeters>189</AltitudeMeters>
            <DistanceMeters>NAN</DistanceMeters>
          </Trackpoint>
          <Trackpoint>
            <Time>2022-07-09T17:14:23.000Z</Time>
            <Position>
              <LatitudeDegrees>43.3131599240005016326904296875</LatitudeDegrees>
              <LongitudeDegrees>-2.03283808194100856781005859375</LongitudeDegrees>
            </Position>
            <AltitudeMeters>188.8000030517578125</AltitudeMeters>
            <DistanceMeters>NAN</DistanceMeters>
          </Trackpoint>
          <Trackpoint>
            <Time>2022-07-09T17:14:25.000Z</Time>
            <Position>
              <LatitudeDegrees>43.31316822208464145660400390625</LatitudeDegrees>
              <LongitudeDegrees>-2.03294939361512660980224609375</LongitudeDegrees>
            </Position>
            <AltitudeMeters>188.600006103515625</AltitudeMeters>
            <DistanceMeters>NAN</DistanceMeters>
          </Trackpoint>
          <Trackpoint>
            <Time>2022-07-09T17:14:29.000Z</Time>
            <Position>
              <LatitudeDegrees>43.31317325122654438018798828125</LatitudeDegrees>
              <LongitudeDegrees>-2.03316874802112579345703125</LongitudeDegrees>
            </Position>
            <AltitudeMeters>188.399993896484375</AltitudeMeters>
            <DistanceMeters>NAN</DistanceMeters>
          </Trackpoint>
          <Trackpoint>
            <Time>2022-07-09T17:14:33.000Z</Time>
            <Position>
              <LatitudeDegrees>43.31315849907696247100830078125</LatitudeDegrees>
              <LongitudeDegrees>-2.03340302221477031707763671875</LongitudeDegrees>
            </Position>
            <AltitudeMeters>188.1999969482421875</AltitudeMeters>
            <DistanceMeters>NAN</DistanceMeters>
          </Trackpoint>
          <Trackpoint>
            <Time>2022-07-09T17:14:34.000Z</Time>
            <Position>
              <LatitudeDegrees>43.3131478540599346160888671875</LatitudeDegrees>
              <LongitudeDegrees>-2.0334582589566707611083984375</LongitudeDegrees>
            </Position>
            <AltitudeMeters>188.1999969482421875</AltitudeMeters>
            <DistanceMeters>NAN</DistanceMeters>
          </Trackpoint>
          <Trackpoint>
            <Time>2022-07-09T17:14:41.000Z</Time>
            <Position>
              <LatitudeDegrees>43.313055820763111114501953125</LatitudeDegrees>
              <LongitudeDegrees>-2.0337821356952190399169921875</LongitudeDegrees>
            </Position>
            <AltitudeMeters>188.1999969482421875</AltitudeMeters>
            <DistanceMeters>NAN</DistanceMeters>
          </Trackpoint>
          <Trackpoint>
            <Time>2022-07-09T17:14:48.000Z</Time>
            <Position>
              <LatitudeDegrees>43.31296705640852451324462890625</LatitudeDegrees>
              <LongitudeDegrees>-2.03413275070488452911376953125</LongitudeDegrees>
            </Position>
            <AltitudeMeters>187.8000030517578125</AltitudeMeters>
            <DistanceMeters>NAN</DistanceMeters>
          </Trackpoint>
          <Trackpoint>
            <Time>2022-07-09T17:14:53.000Z</Time>
            <Position>
              <LatitudeDegrees>43.312882818281650543212890625</LatitudeDegrees>
              <LongitudeDegrees>-2.0343611575663089752197265625</LongitudeDegrees>
            </Position>
            <AltitudeMeters>188</AltitudeMeters>
            <DistanceMeters>NAN</DistanceMeters>
          </Trackpoint>
          <Trackpoint>
            <Time>2022-07-09T17:14:58.000Z</Time>
            <Position>
              <LatitudeDegrees>43.3128494583070278167724609375</LatitudeDegrees>
              <LongitudeDegrees>-2.03454296104609966278076171875</LongitudeDegrees>
            </Position>
            <AltitudeMeters>188.600006103515625</AltitudeMeters>
            <DistanceMeters>NAN</DistanceMeters>
          </Trackpoint>
          <Trackpoint>
            <Time>2022-07-09T17:15:04.000Z</Time>
            <Position>
              <LatitudeDegrees>43.31282950937747955322265625</LatitudeDegrees>
              <LongitudeDegrees>-2.03479550778865814208984375</LongitudeDegrees>
            </Position>
            <AltitudeMeters>188.8000030517578125</AltitudeMeters>
            <DistanceMeters>NAN</DistanceMeters>
          </Trackpoint>
          <Trackpoint>
            <Time>2022-07-09T17:15:06.000Z</Time>
            <Position>
              <LatitudeDegrees>43.312799669802188873291015625</LatitudeDegrees>
              <LongitudeDegrees>-2.03489064238965511322021484375</LongitudeDegrees>
            </Position>
            <AltitudeMeters>188.600006103515625</AltitudeMeters>
            <DistanceMeters>NAN</DistanceMeters>
          </Trackpoint>
          <Trackpoint>
            <Time>2022-07-09T17:15:08.000Z</Time>
            <Position>
              <LatitudeDegrees>43.31274309195578098297119140625</LatitudeDegrees>
              <LongitudeDegrees>-2.035011760890483856201171875</LongitudeDegrees>
            </Position>
            <AltitudeMeters>188.399993896484375</AltitudeMeters>
            <DistanceMeters>NAN</DistanceMeters>
          </Trackpoint>
          <Trackpoint>
            <Time>2022-07-09T17:15:14.000Z</Time>
            <Position>
              <LatitudeDegrees>43.31259892322123050689697265625</LatitudeDegrees>
              <LongitudeDegrees>-2.03541350550949573516845703125</LongitudeDegrees>
            </Position>
            <AltitudeMeters>187.600006103515625</AltitudeMeters>
            <DistanceMeters>NAN</DistanceMeters>
          </Trackpoint>
          <Trackpoint>
            <Time>2022-07-09T17:15:16.000Z</Time>
            <Position>
              <LatitudeDegrees>43.3125614561140537261962890625</LatitudeDegrees>
              <LongitudeDegrees>-2.035534791648387908935546875</LongitudeDegrees>
            </Position>
            <AltitudeMeters>187.399993896484375</AltitudeMeters>
            <DistanceMeters>NAN</DistanceMeters>
          </Trackpoint>
          <Trackpoint>
            <Time>2022-07-09T17:15:17.000Z</Time>
            <Position>
              <LatitudeDegrees>43.3125477097928524017333984375</LatitudeDegrees>
              <LongitudeDegrees>-2.0355912856757640838623046875</LongitudeDegrees>
            </Position>
            <AltitudeMeters>187.1999969482421875</AltitudeMeters>
            <DistanceMeters>NAN</DistanceMeters>
          </Trackpoint>
          <Trackpoint>
            <Time>2022-07-09T17:15:18.000Z</Time>
            <Position>
              <LatitudeDegrees>43.312526084482669830322265625</LatitudeDegrees>
              <LongitudeDegrees>-2.035659849643707275390625</LongitudeDegrees>
            </Position>
            <AltitudeMeters>187.1999969482421875</AltitudeMeters>
            <DistanceMeters>NAN</DistanceMeters>
          </Trackpoint>
          <Trackpoint>
            <Time>2022-07-09T17:15:19.000Z</Time>
            <Position>
              <LatitudeDegrees>43.3125163614749908447265625</LatitudeDegrees>
              <LongitudeDegrees>-2.03571961261332035064697265625</LongitudeDegrees>
            </Position>
            <AltitudeMeters>187</AltitudeMeters>
            <DistanceMeters>NAN</DistanceMeters>
          </Trackpoint>
          <Trackpoint>
            <Time>2022-07-09T17:15:21.000Z</Time>
            <Position>
              <LatitudeDegrees>43.312479816377162933349609375</LatitudeDegrees>
              <LongitudeDegrees>-2.03583360649645328521728515625</LongitudeDegrees>
            </Position>
            <AltitudeMeters>186</AltitudeMeters>
            <DistanceMeters>NAN</DistanceMeters>
          </Trackpoint>
          <Trackpoint>
            <Time>2022-07-09T17:15:25.000Z</Time>
            <Position>
              <LatitudeDegrees>43.31237948499619960784912109375</LatitudeDegrees>
              <LongitudeDegrees>-2.0361305773258209228515625</LongitudeDegrees>
            </Position>
            <AltitudeMeters>184.8000030517578125</AltitudeMeters>
            <DistanceMeters>NAN</DistanceMeters>
          </Trackpoint>
          <Trackpoint>
            <Time>2022-07-09T17:15:28.000Z</Time>
            <Position>
              <LatitudeDegrees>43.31231494434177875518798828125</LatitudeDegrees>
              <LongitudeDegrees>-2.03633216209709644317626953125</LongitudeDegrees>
            </Position>
            <AltitudeMeters>183.399993896484375</AltitudeMeters>
            <DistanceMeters>NAN</DistanceMeters>
          </Trackpoint>
          <Trackpoint>
            <Time>2022-07-09T17:15:32.000Z</Time>
            <Position>
              <LatitudeDegrees>43.31226666457951068878173828125</LatitudeDegrees>
              <LongitudeDegrees>-2.03649091534316539764404296875</LongitudeDegrees>
            </Position>
            <AltitudeMeters>182.399993896484375</AltitudeMeters>
            <DistanceMeters>NAN</DistanceMeters>
          </Trackpoint>
          <Trackpoint>
            <Time>2022-07-09T17:15:33.000Z</Time>
            <Position>
              <LatitudeDegrees>43.3122580312192440032958984375</LatitudeDegrees>
              <LongitudeDegrees>-2.03651421703398227691650390625</LongitudeDegrees>
            </Position>
            <AltitudeMeters>182.399993896484375</AltitudeMeters>
            <DistanceMeters>NAN</DistanceMeters>
          </Trackpoint>
          <Trackpoint>
            <Time>2022-07-09T17:15:34.000Z</Time>
            <Position>
              <LatitudeDegrees>43.31224990077316761016845703125</LatitudeDegrees>
              <LongitudeDegrees>-2.03652544878423213958740234375</LongitudeDegrees>
            </Position>
            <AltitudeMeters>182.399993896484375</AltitudeMeters>
            <DistanceMeters>NAN</DistanceMeters>
          </Trackpoint>
          <Trackpoint>
            <Time>2022-07-09T17:15:35.000Z</Time>
            <Position>
              <LatitudeDegrees>43.3122449554502964019775390625</LatitudeDegrees>
              <LongitudeDegrees>-2.0365337468683719635009765625</LongitudeDegrees>
            </Position>
            <AltitudeMeters>182.399993896484375</AltitudeMeters>
            <DistanceMeters>NAN</DistanceMeters>
          </Trackpoint>
          <Trackpoint>
            <Time>2022-07-09T17:15:39.000Z</Time>
            <Position>
              <LatitudeDegrees>43.312225006520748138427734375</LatitudeDegrees>
              <LongitudeDegrees>-2.0365704596042633056640625</LongitudeDegrees>
            </Position>
            <AltitudeMeters>182.1999969482421875</AltitudeMeters>
            <DistanceMeters>NAN</DistanceMeters>
          </Trackpoint>
          <Trackpoint>
            <Time>2022-07-09T17:15:41.000Z</Time>
            <Position>
              <LatitudeDegrees>43.312226347625255584716796875</LatitudeDegrees>
              <LongitudeDegrees>-2.03659124672412872314453125</LongitudeDegrees>
            </Position>
            <AltitudeMeters>182.1999969482421875</AltitudeMeters>
            <DistanceMeters>NAN</DistanceMeters>
          </Trackpoint>
          <Trackpoint>
            <Time>2022-07-09T17:15:47.000Z</Time>
            <Position>
              <LatitudeDegrees>43.31221385858952999114990234375</LatitudeDegrees>
              <LongitudeDegrees>-2.03662452287971973419189453125</LongitudeDegrees>
            </Position>
            <AltitudeMeters>182.1999969482421875</AltitudeMeters>
            <DistanceMeters>NAN</DistanceMeters>
          </Trackpoint>
          <Trackpoint>
            <Time>2022-07-09T17:15:48.000Z</Time>
            <Position>
              <LatitudeDegrees>43.31221385858952999114990234375</LatitudeDegrees>
              <LongitudeDegrees>-2.03662452287971973419189453125</LongitudeDegrees>
            </Position>
            <AltitudeMeters>182.1999969482421875</AltitudeMeters>
            <DistanceMeters>NAN</DistanceMeters>
          </Trackpoint>
          <Trackpoint>
            <Time>2022-07-09T17:17:02.000Z</Time>
            <Position>
              <LatitudeDegrees>43.3121812529861927032470703125</LatitudeDegrees>
              <LongitudeDegrees>-2.036697529256343841552734375</LongitudeDegrees>
            </Position>
            <AltitudeMeters>182</AltitudeMeters>
            <DistanceMeters>NAN</DistanceMeters>
          </Trackpoint>
          <Trackpoint>
            <Time>2022-07-09T17:17:03.000Z</Time>
            <Position>
              <LatitudeDegrees>43.3121730387210845947265625</LatitudeDegrees>
              <LongitudeDegrees>-2.036746479570865631103515625</LongitudeDegrees>
            </Position>
            <AltitudeMeters>182</AltitudeMeters>
            <DistanceMeters>NAN</DistanceMeters>
          </Trackpoint>
          <Trackpoint>
            <Time>2022-07-09T17:17:08.000Z</Time>
            <Position>
              <LatitudeDegrees>43.3121675066649913787841796875</LatitudeDegrees>
              <LongitudeDegrees>-2.0370103418827056884765625</LongitudeDegrees>
            </Position>
            <AltitudeMeters>181.399993896484375</AltitudeMeters>
            <DistanceMeters>NAN</DistanceMeters>
          </Trackpoint>
          <Trackpoint>
            <Time>2022-07-09T17:17:09.000Z</Time>
            <Position>
              <LatitudeDegrees>43.31217077560722827911376953125</LatitudeDegrees>
              <LongitudeDegrees>-2.037069685757160186767578125</LongitudeDegrees>
            </Position>
            <AltitudeMeters>181.1999969482421875</AltitudeMeters>
            <DistanceMeters>NAN</DistanceMeters>
          </Trackpoint>
          <Trackpoint>
            <Time>2022-07-09T17:17:11.000Z</Time>
            <Position>
              <LatitudeDegrees>43.31215317361056804656982421875</LatitudeDegrees>
              <LongitudeDegrees>-2.03721008263528347015380859375</LongitudeDegrees>
            </Position>
            <AltitudeMeters>181</AltitudeMeters>
            <DistanceMeters>NAN</DistanceMeters>
          </Trackpoint>
          <Trackpoint>
            <Time>2022-07-09T17:17:13.000Z</Time>
            <Position>
              <LatitudeDegrees>43.3121242560446262359619140625</LatitudeDegrees>
              <LongitudeDegrees>-2.03732524998486042022705078125</LongitudeDegrees>
            </Position>
            <AltitudeMeters>181</AltitudeMeters>
            <DistanceMeters>NAN</DistanceMeters>
          </Trackpoint>
          <Trackpoint>
            <Time>2022-07-09T17:17:14.000Z</Time>
            <Position>
              <LatitudeDegrees>43.31210799515247344970703125</LatitudeDegrees>
              <LongitudeDegrees>-2.037380151450634002685546875</LongitudeDegrees>
            </Position>
            <AltitudeMeters>181</AltitudeMeters>
            <DistanceMeters>NAN</DistanceMeters>
          </Trackpoint>
          <Trackpoint>
            <Time>2022-07-09T17:17:16.000Z</Time>
            <Position>
              <LatitudeDegrees>43.312089554965496063232421875</LatitudeDegrees>
              <LongitudeDegrees>-2.037488110363483428955078125</LongitudeDegrees>
            </Position>
            <AltitudeMeters>181</AltitudeMeters>
            <DistanceMeters>NAN</DistanceMeters>
          </Trackpoint>
          <Trackpoint>
            <Time>2022-07-09T17:17:18.000Z</Time>
            <Position>
              <LatitudeDegrees>43.31207983195781707763671875</LatitudeDegrees>
              <LongitudeDegrees>-2.03757788054645061492919921875</LongitudeDegrees>
            </Position>
            <AltitudeMeters>181.1999969482421875</AltitudeMeters>
            <DistanceMeters>NAN</DistanceMeters>
          </Trackpoint>
          <Trackpoint>
            <Time>2022-07-09T17:17:19.000Z</Time>
            <Position>
              <LatitudeDegrees>43.312067426741123199462890625</LatitudeDegrees>
              <LongitudeDegrees>-2.03761559911072254180908203125</LongitudeDegrees>
            </Position>
            <AltitudeMeters>181.1999969482421875</AltitudeMeters>
            <DistanceMeters>NAN</DistanceMeters>
          </Trackpoint>
          <Trackpoint>
            <Time>2022-07-09T17:17:22.000Z</Time>
            <Position>
              <LatitudeDegrees>43.31204286776483058929443359375</LatitudeDegrees>
              <LongitudeDegrees>-2.0377085544168949127197265625</LongitudeDegrees>
            </Position>
            <AltitudeMeters>181.399993896484375</AltitudeMeters>
            <DistanceMeters>NAN</DistanceMeters>
          </Trackpoint>
          <Trackpoint>
            <Time>2022-07-09T17:17:26.000Z</Time>
            <Position>
              <LatitudeDegrees>43.31201009452342987060546875</LatitudeDegrees>
              <LongitudeDegrees>-2.037805616855621337890625</LongitudeDegrees>
            </Position>
            <AltitudeMeters>182.399993896484375</AltitudeMeters>
            <DistanceMeters>NAN</DistanceMeters>
          </Trackpoint>
          <Trackpoint>
            <Time>2022-07-09T17:17:28.000Z</Time>
            <Position>
              <LatitudeDegrees>43.3119787462055683135986328125</LatitudeDegrees>
              <LongitudeDegrees>-2.0378540642559528350830078125</LongitudeDegrees>
            </Position>
            <AltitudeMeters>182.8000030517578125</AltitudeMeters>
            <DistanceMeters>NAN</DistanceMeters>
          </Trackpoint>
          <Trackpoint>
            <Time>2022-07-09T17:17:31.000Z</Time>
            <Position>
              <LatitudeDegrees>43.3119475655257701873779296875</LatitudeDegrees>
              <LongitudeDegrees>-2.0379459299147129058837890625</LongitudeDegrees>
            </Position>
            <AltitudeMeters>183.399993896484375</AltitudeMeters>
            <DistanceMeters>NAN</DistanceMeters>
          </Trackpoint>
          <Trackpoint>
            <Time>2022-07-09T17:17:39.000Z</Time>
            <Position>
              <LatitudeDegrees>43.31187103874981403350830078125</LatitudeDegrees>
              <LongitudeDegrees>-2.038212306797504425048828125</LongitudeDegrees>
            </Position>
            <AltitudeMeters>183.600006103515625</AltitudeMeters>
            <DistanceMeters>NAN</DistanceMeters>
          </Trackpoint>
          <Trackpoint>
            <Time>2022-07-09T17:17:47.000Z</Time>
            <Position>
              <LatitudeDegrees>43.31178537569940090179443359375</LatitudeDegrees>
              <LongitudeDegrees>-2.03846083022654056549072265625</LongitudeDegrees>
            </Position>
            <AltitudeMeters>183.600006103515625</AltitudeMeters>
            <DistanceMeters>NAN</DistanceMeters>
          </Trackpoint>
          <Trackpoint>
            <Time>2022-07-09T17:17:51.000Z</Time>
            <Position>
              <LatitudeDegrees>43.311762325465679168701171875</LatitudeDegrees>
              <LongitudeDegrees>-2.0385993830859661102294921875</LongitudeDegrees>
            </Position>
            <AltitudeMeters>183.8000030517578125</AltitudeMeters>
            <DistanceMeters>NAN</DistanceMeters>
          </Trackpoint>
          <Trackpoint>
            <Time>2022-07-09T17:17:54.000Z</Time>
            <Position>
              <LatitudeDegrees>43.3117752335965633392333984375</LatitudeDegrees>
              <LongitudeDegrees>-2.03871983103454113006591796875</LongitudeDegrees>
            </Position>
            <AltitudeMeters>183.600006103515625</AltitudeMeters>
            <DistanceMeters>NAN</DistanceMeters>
          </Trackpoint>
          <Trackpoint>
            <Time>2022-07-09T17:17:57.000Z</Time>
            <Position>
              <LatitudeDegrees>43.3118124492466449737548828125</LatitudeDegrees>
              <LongitudeDegrees>-2.03889803029596805572509765625</LongitudeDegrees>
            </Position>
            <AltitudeMeters>182.399993896484375</AltitudeMeters>
            <DistanceMeters>NAN</DistanceMeters>
          </Trackpoint>
          <Trackpoint>
            <Time>2022-07-09T17:17:58.000Z</Time>
            <Position>
              <LatitudeDegrees>43.31183373928070068359375</LatitudeDegrees>
              <LongitudeDegrees>-2.0389817655086517333984375</LongitudeDegrees>
            </Position>
            <AltitudeMeters>181.600006103515625</AltitudeMeters>
            <DistanceMeters>NAN</DistanceMeters>
          </Trackpoint>
          <Trackpoint>
            <Time>2022-07-09T17:17:59.000Z</Time>
            <Position>
              <LatitudeDegrees>43.31186165101826190948486328125</LatitudeDegrees>
              <LongitudeDegrees>-2.039092071354389190673828125</LongitudeDegrees>
            </Position>
            <AltitudeMeters>181</AltitudeMeters>
            <DistanceMeters>NAN</DistanceMeters>
          </Trackpoint>
          <Trackpoint>
            <Time>2022-07-09T17:18:01.000Z</Time>
            <Position>
              <LatitudeDegrees>43.311909176409244537353515625</LatitudeDegrees>
              <LongitudeDegrees>-2.03928016126155853271484375</LongitudeDegrees>
            </Position>
            <AltitudeMeters>180</AltitudeMeters>
            <DistanceMeters>NAN</DistanceMeters>
          </Trackpoint>
          <Trackpoint>
            <Time>2022-07-09T17:18:03.000Z</Time>
            <Position>
              <LatitudeDegrees>43.3119396865367889404296875</LatitudeDegrees>
              <LongitudeDegrees>-2.03942407853901386260986328125</LongitudeDegrees>
            </Position>
            <AltitudeMeters>178.399993896484375</AltitudeMeters>
            <DistanceMeters>NAN</DistanceMeters>
          </Trackpoint>
          <Trackpoint>
            <Time>2022-07-09T17:18:04.000Z</Time>
            <Position>
              <LatitudeDegrees>43.31194647587835788726806640625</LatitudeDegrees>
              <LongitudeDegrees>-2.03949415124952793121337890625</LongitudeDegrees>
            </Position>
            <AltitudeMeters>177.1999969482421875</AltitudeMeters>
            <DistanceMeters>NAN</DistanceMeters>
          </Trackpoint>
          <Trackpoint>
            <Time>2022-07-09T17:18:05.000Z</Time>
            <Position>
              <LatitudeDegrees>43.311954438686370849609375</LatitudeDegrees>
              <LongitudeDegrees>-2.0395736955106258392333984375</LongitudeDegrees>
            </Position>
            <AltitudeMeters>176.1999969482421875</AltitudeMeters>
            <DistanceMeters>NAN</DistanceMeters>
          </Trackpoint>
          <Trackpoint>
            <Time>2022-07-09T17:18:06.000Z</Time>
            <Position>
              <LatitudeDegrees>43.31195376813411712646484375</LatitudeDegrees>
              <LongitudeDegrees>-2.03963153064250946044921875</LongitudeDegrees>
            </Position>
            <AltitudeMeters>175.1999969482421875</AltitudeMeters>
            <DistanceMeters>NAN</DistanceMeters>
          </Trackpoint>
          <Trackpoint>
            <Time>2022-07-09T17:18:07.000Z</Time>
            <Position>
              <LatitudeDegrees>43.31194647587835788726806640625</LatitudeDegrees>
              <LongitudeDegrees>-2.0396846719086170196533203125</LongitudeDegrees>
            </Position>
            <AltitudeMeters>174.1999969482421875</AltitudeMeters>
            <DistanceMeters>NAN</DistanceMeters>
          </Trackpoint>
          <Trackpoint>
            <Time>2022-07-09T17:18:08.000Z</Time>
            <Position>
              <LatitudeDegrees>43.31193222664296627044677734375</LatitudeDegrees>
              <LongitudeDegrees>-2.0397247374057769775390625</LongitudeDegrees>
            </Position>
            <AltitudeMeters>173.600006103515625</AltitudeMeters>
            <DistanceMeters>NAN</DistanceMeters>
          </Trackpoint>
          <Trackpoint>
            <Time>2022-07-09T17:18:09.000Z</Time>
            <Position>
              <LatitudeDegrees>43.3119053207337856292724609375</LatitudeDegrees>
              <LongitudeDegrees>-2.0397805608808994293212890625</LongitudeDegrees>
            </Position>
            <AltitudeMeters>173</AltitudeMeters>
            <DistanceMeters>NAN</DistanceMeters>
          </Trackpoint>
          <Trackpoint>
            <Time>2022-07-09T17:18:11.000Z</Time>
            <Position>
              <LatitudeDegrees>43.311857879161834716796875</LatitudeDegrees>
              <LongitudeDegrees>-2.03986731357872486114501953125</LongitudeDegrees>
            </Position>
            <AltitudeMeters>172.600006103515625</AltitudeMeters>
            <DistanceMeters>NAN</DistanceMeters>
          </Trackpoint>
          <Trackpoint>
            <Time>2022-07-09T17:18:15.000Z</Time>
            <Position>
              <LatitudeDegrees>43.31174497492611408233642578125</LatitudeDegrees>
              <LongitudeDegrees>-2.040073089301586151123046875</LongitudeDegrees>
            </Position>
            <AltitudeMeters>172.1999969482421875</AltitudeMeters>
            <DistanceMeters>NAN</DistanceMeters>
          </Trackpoint>
          <Trackpoint>
            <Time>2022-07-09T17:18:17.000Z</Time>
            <Position>
              <LatitudeDegrees>43.3116907440125942230224609375</LatitudeDegrees>
              <LongitudeDegrees>-2.0401879213750362396240234375</LongitudeDegrees>
            </Position>
            <AltitudeMeters>172</AltitudeMeters>
            <DistanceMeters>NAN</DistanceMeters>
          </Trackpoint>
          <Trackpoint>
            <Time>2022-07-09T17:18:18.000Z</Time>
            <Position>
              <LatitudeDegrees>43.3116609044373035430908203125</LatitudeDegrees>
              <LongitudeDegrees>-2.04025246202945709228515625</LongitudeDegrees>
            </Position>
            <AltitudeMeters>171.8000030517578125</AltitudeMeters>
            <DistanceMeters>NAN</DistanceMeters>
          </Trackpoint>
          <Trackpoint>
            <Time>2022-07-09T17:18:19.000Z</Time>
            <Position>
              <LatitudeDegrees>43.31162109039723873138427734375</LatitudeDegrees>
              <LongitudeDegrees>-2.0403284020721912384033203125</LongitudeDegrees>
            </Position>
            <AltitudeMeters>171.8000030517578125</AltitudeMeters>
            <DistanceMeters>NAN</DistanceMeters>
          </Trackpoint>
          <Trackpoint>
            <Time>2022-07-09T17:18:22.000Z</Time>
            <Position>
              <LatitudeDegrees>43.3115324936807155609130859375</LatitudeDegrees>
              <LongitudeDegrees>-2.04050065018236637115478515625</LongitudeDegrees>
            </Position>
            <AltitudeMeters>171.8000030517578125</AltitudeMeters>
            <DistanceMeters>NAN</DistanceMeters>
          </Trackpoint>
          <Trackpoint>
            <Time>2022-07-09T17:18:24.000Z</Time>
            <Position>
              <LatitudeDegrees>43.3114702999591827392578125</LatitudeDegrees>
              <LongitudeDegrees>-2.04062805511057376861572265625</LongitudeDegrees>
            </Position>
            <AltitudeMeters>171.8000030517578125</AltitudeMeters>
            <DistanceMeters>NAN</DistanceMeters>
          </Trackpoint>
          <Trackpoint>
            <Time>2022-07-09T17:18:26.000Z</Time>
            <Position>
              <LatitudeDegrees>43.311420343816280364990234375</LatitudeDegrees>
              <LongitudeDegrees>-2.04072863794863224029541015625</LongitudeDegrees>
            </Position>
            <AltitudeMeters>172</AltitudeMeters>
            <DistanceMeters>NAN</DistanceMeters>
          </Trackpoint>
          <Trackpoint>
            <Time>2022-07-09T17:18:29.000Z</Time>
            <Position>
              <LatitudeDegrees>43.3113470859825611114501953125</LatitudeDegrees>
              <LongitudeDegrees>-2.04085118137300014495849609375</LongitudeDegrees>
            </Position>
            <AltitudeMeters>172</AltitudeMeters>
            <DistanceMeters>NAN</DistanceMeters>
          </Trackpoint>
          <Trackpoint>
            <Time>2022-07-09T17:18:35.000Z</Time>
            <Position>
              <LatitudeDegrees>43.311248011887073516845703125</LatitudeDegrees>
              <LongitudeDegrees>-2.041067518293857574462890625</LongitudeDegrees>
            </Position>
            <AltitudeMeters>172.8000030517578125</AltitudeMeters>
            <DistanceMeters>NAN</DistanceMeters>
          </Trackpoint>
          <Trackpoint>
            <Time>2022-07-09T17:18:38.000Z</Time>
            <Position>
              <LatitudeDegrees>43.31120367161929607391357421875</LatitudeDegrees>
              <LongitudeDegrees>-2.04116173088550567626953125</LongitudeDegrees>
            </Position>
            <AltitudeMeters>173</AltitudeMeters>
            <DistanceMeters>NAN</DistanceMeters>
          </Trackpoint>
          <Trackpoint>
            <Time>2022-07-09T17:18:43.000Z</Time>
            <Position>
              <LatitudeDegrees>43.3111331798136234283447265625</LatitudeDegrees>
              <LongitudeDegrees>-2.0413144491612911224365234375</LongitudeDegrees>
            </Position>
            <AltitudeMeters>173.399993896484375</AltitudeMeters>
            <DistanceMeters>NAN</DistanceMeters>
          </Trackpoint>
          <Trackpoint>
            <Time>2022-07-09T17:18:50.000Z</Time>
            <Position>
              <LatitudeDegrees>43.31104994751513004302978515625</LatitudeDegrees>
              <LongitudeDegrees>-2.04154620878398418426513671875</LongitudeDegrees>
            </Position>
            <AltitudeMeters>174</AltitudeMeters>
            <DistanceMeters>NAN</DistanceMeters>
          </Trackpoint>
          <Trackpoint>
            <Time>2022-07-09T17:18:52.000Z</Time>
            <Position>
              <LatitudeDegrees>43.31103569827973842620849609375</LatitudeDegrees>
              <LongitudeDegrees>-2.04160421155393123626708984375</LongitudeDegrees>
            </Position>
            <AltitudeMeters>174.1999969482421875</AltitudeMeters>
            <DistanceMeters>NAN</DistanceMeters>
          </Trackpoint>
          <Trackpoint>
            <Time>2022-07-09T17:18:55.000Z</Time>
            <Position>
              <LatitudeDegrees>43.31100284121930599212646484375</LatitudeDegrees>
              <LongitudeDegrees>-2.0417003519833087921142578125</LongitudeDegrees>
            </Position>
            <AltitudeMeters>174.399993896484375</AltitudeMeters>
            <DistanceMeters>NAN</DistanceMeters>
          </Trackpoint>
          <Trackpoint>
            <Time>2022-07-09T17:19:01.000Z</Time>
            <Position>
              <LatitudeDegrees>43.3109139092266559600830078125</LatitudeDegrees>
              <LongitudeDegrees>-2.0418411679565906524658203125</LongitudeDegrees>
            </Position>
            <AltitudeMeters>174.8000030517578125</AltitudeMeters>
            <DistanceMeters>NAN</DistanceMeters>
          </Trackpoint>
          <Trackpoint>
            <Time>2022-07-09T17:19:06.000Z</Time>
            <Position>
              <LatitudeDegrees>43.3108346164226531982421875</LatitudeDegrees>
              <LongitudeDegrees>-2.04188718460500240325927734375</LongitudeDegrees>
            </Position>
            <AltitudeMeters>175</AltitudeMeters>
            <DistanceMeters>NAN</DistanceMeters>
          </Trackpoint>
          <Trackpoint>
            <Time>2022-07-09T17:19:07.000Z</Time>
            <Position>
              <LatitudeDegrees>43.3108153380453586578369140625</LatitudeDegrees>
              <LongitudeDegrees>-2.04189104028046131134033203125</LongitudeDegrees>
            </Position>
            <AltitudeMeters>175</AltitudeMeters>
            <DistanceMeters>NAN</DistanceMeters>
          </Trackpoint>
          <Trackpoint>
            <Time>2022-07-09T17:19:15.000Z</Time>
            <Position>
              <LatitudeDegrees>43.31068332307040691375732421875</LatitudeDegrees>
              <LongitudeDegrees>-2.0419202931225299835205078125</LongitudeDegrees>
            </Position>
            <AltitudeMeters>176</AltitudeMeters>
            <DistanceMeters>NAN</DistanceMeters>
          </Trackpoint>
          <Trackpoint>
            <Time>2022-07-09T17:19:16.000Z</Time>
            <Position>
              <LatitudeDegrees>43.310664631426334381103515625</LatitudeDegrees>
              <LongitudeDegrees>-2.041918449103832244873046875</LongitudeDegrees>
            </Position>
            <AltitudeMeters>176</AltitudeMeters>
            <DistanceMeters>NAN</DistanceMeters>
          </Trackpoint>
          <Trackpoint>
            <Time>2022-07-09T17:19:25.000Z</Time>
            <Position>
              <LatitudeDegrees>43.3105236478149890899658203125</LatitudeDegrees>
              <LongitudeDegrees>-2.0419407449662685394287109375</LongitudeDegrees>
            </Position>
            <AltitudeMeters>177</AltitudeMeters>
            <DistanceMeters>NAN</DistanceMeters>
          </Trackpoint>
          <Trackpoint>
            <Time>2022-07-09T17:19:26.000Z</Time>
            <Position>
              <LatitudeDegrees>43.310513757169246673583984375</LatitudeDegrees>
              <LongitudeDegrees>-2.041944600641727447509765625</LongitudeDegrees>
            </Position>
            <AltitudeMeters>177.1999969482421875</AltitudeMeters>
            <DistanceMeters>NAN</DistanceMeters>
          </Trackpoint>
          <Trackpoint>
            <Time>2022-07-09T17:19:33.000Z</Time>
            <Position>
              <LatitudeDegrees>43.3104230649769306182861328125</LatitudeDegrees>
              <LongitudeDegrees>-2.04197418875992298126220703125</LongitudeDegrees>
            </Position>
            <AltitudeMeters>178</AltitudeMeters>
            <DistanceMeters>NAN</DistanceMeters>
          </Trackpoint>
          <Trackpoint>
            <Time>2022-07-09T17:19:36.000Z</Time>
            <Position>
              <LatitudeDegrees>43.3103892020881175994873046875</LatitudeDegrees>
              <LongitudeDegrees>-2.0419863425195217132568359375</LongitudeDegrees>
            </Position>
            <AltitudeMeters>178.600006103515625</AltitudeMeters>
            <DistanceMeters>NAN</DistanceMeters>
          </Trackpoint>
          <Trackpoint>
            <Time>2022-07-09T17:19:38.000Z</Time>
            <Position>
              <LatitudeDegrees>43.310366235673427581787109375</LatitudeDegrees>
              <LongitudeDegrees>-2.0419883541762828826904296875</LongitudeDegrees>
            </Position>
            <AltitudeMeters>179.1999969482421875</AltitudeMeters>
            <DistanceMeters>NAN</DistanceMeters>
          </Trackpoint>
          <Trackpoint>
            <Time>2022-07-09T17:19:40.000Z</Time>
            <Position>
              <LatitudeDegrees>43.31034720875322818756103515625</LatitudeDegrees>
              <LongitudeDegrees>-2.0420044474303722381591796875</LongitudeDegrees>
            </Position>
            <AltitudeMeters>179.600006103515625</AltitudeMeters>
            <DistanceMeters>NAN</DistanceMeters>
          </Trackpoint>
          <Trackpoint>
            <Time>2022-07-09T17:19:44.000Z</Time>
            <Position>
              <LatitudeDegrees>43.31030018627643585205078125</LatitudeDegrees>
              <LongitudeDegrees>-2.0420409925282001495361328125</LongitudeDegrees>
            </Position>
            <AltitudeMeters>180.1999969482421875</AltitudeMeters>
            <DistanceMeters>NAN</DistanceMeters>
          </Trackpoint>
          <Trackpoint>
            <Time>2022-07-09T17:19:48.000Z</Time>
            <Position>
              <LatitudeDegrees>43.31024830229580402374267578125</LatitudeDegrees>
              <LongitudeDegrees>-2.0420577563345432281494140625</LongitudeDegrees>
            </Position>
            <AltitudeMeters>181</AltitudeMeters>
            <DistanceMeters>NAN</DistanceMeters>
          </Trackpoint>
          <Trackpoint>
            <Time>2022-07-09T17:19:50.000Z</Time>
            <Position>
              <LatitudeDegrees>43.3102215640246868133544921875</LatitudeDegrees>
              <LongitudeDegrees>-2.0420631207525730133056640625</LongitudeDegrees>
            </Position>
            <AltitudeMeters>181.399993896484375</AltitudeMeters>
            <DistanceMeters>NAN</DistanceMeters>
          </Trackpoint>
          <Trackpoint>
            <Time>2022-07-09T17:19:55.000Z</Time>
            <Position>
              <LatitudeDegrees>43.3101521618664264678955078125</LatitudeDegrees>
              <LongitudeDegrees>-2.04209773801267147064208984375</LongitudeDegrees>
            </Position>
            <AltitudeMeters>182.399993896484375</AltitudeMeters>
            <DistanceMeters>NAN</DistanceMeters>
          </Trackpoint>
          <Trackpoint>
            <Time>2022-07-09T17:20:00.000Z</Time>
            <Position>
              <LatitudeDegrees>43.31008586101233959197998046875</LatitudeDegrees>
              <LongitudeDegrees>-2.04211835749447345733642578125</LongitudeDegrees>
            </Position>
            <AltitudeMeters>182.8000030517578125</AltitudeMeters>
            <DistanceMeters>NAN</DistanceMeters>
          </Trackpoint>
          <Trackpoint>
            <Time>2022-07-09T17:20:08.000Z</Time>
            <Position>
              <LatitudeDegrees>43.30998829565942287445068359375</LatitudeDegrees>
              <LongitudeDegrees>-2.04213998280465602874755859375</LongitudeDegrees>
            </Position>
            <AltitudeMeters>183.1999969482421875</AltitudeMeters>
            <DistanceMeters>NAN</DistanceMeters>
          </Trackpoint>
          <Trackpoint>
            <Time>2022-07-09T17:20:09.000Z</Time>
            <Position>
              <LatitudeDegrees>43.309969939291477203369140625</LatitudeDegrees>
              <LongitudeDegrees>-2.0421499572694301605224609375</LongitudeDegrees>
            </Position>
            <AltitudeMeters>183.1999969482421875</AltitudeMeters>
            <DistanceMeters>NAN</DistanceMeters>
          </Trackpoint>
          <Trackpoint>
            <Time>2022-07-09T17:20:14.000Z</Time>
            <Position>
              <LatitudeDegrees>43.30985971726477146148681640625</LatitudeDegrees>
              <LongitudeDegrees>-2.04226009547710418701171875</LongitudeDegrees>
            </Position>
            <AltitudeMeters>183.1999969482421875</AltitudeMeters>
            <DistanceMeters>NAN</DistanceMeters>
          </Trackpoint>
          <Trackpoint>
            <Time>2022-07-09T17:20:15.000Z</Time>
            <Position>
              <LatitudeDegrees>43.30983641557395458221435546875</LatitudeDegrees>
              <LongitudeDegrees>-2.04228825867176055908203125</LongitudeDegrees>
            </Position>
            <AltitudeMeters>183.1999969482421875</AltitudeMeters>
            <DistanceMeters>NAN</DistanceMeters>
          </Trackpoint>
          <Trackpoint>
            <Time>2022-07-09T17:20:21.000Z</Time>
            <Position>
              <LatitudeDegrees>43.30974454991519451141357421875</LatitudeDegrees>
              <LongitudeDegrees>-2.0424510352313518524169921875</LongitudeDegrees>
            </Position>
            <AltitudeMeters>183</AltitudeMeters>
            <DistanceMeters>NAN</DistanceMeters>
          </Trackpoint>
          <Trackpoint>
            <Time>2022-07-09T17:20:28.000Z</Time>
            <Position>
              <LatitudeDegrees>43.309658467769622802734375</LatitudeDegrees>
              <LongitudeDegrees>-2.042661421000957489013671875</LongitudeDegrees>
            </Position>
            <AltitudeMeters>183.399993896484375</AltitudeMeters>
            <DistanceMeters>NAN</DistanceMeters>
          </Trackpoint>
          <Trackpoint>
            <Time>2022-07-09T17:20:36.000Z</Time>
            <Position>
              <LatitudeDegrees>43.30956182442605495452880859375</LatitudeDegrees>
              <LongitudeDegrees>-2.04298135824501514434814453125</LongitudeDegrees>
            </Position>
            <AltitudeMeters>183</AltitudeMeters>
            <DistanceMeters>NAN</DistanceMeters>
          </Trackpoint>
          <Trackpoint>
            <Time>2022-07-09T17:20:43.000Z</Time>
            <Position>
              <LatitudeDegrees>43.309481777250766754150390625</LatitudeDegrees>
              <LongitudeDegrees>-2.04329785890877246856689453125</LongitudeDegrees>
            </Position>
            <AltitudeMeters>182.8000030517578125</AltitudeMeters>
            <DistanceMeters>NAN</DistanceMeters>
          </Trackpoint>
          <Trackpoint>
            <Time>2022-07-09T17:20:44.000Z</Time>
            <Position>
              <LatitudeDegrees>43.30947540700435638427734375</LatitudeDegrees>
              <LongitudeDegrees>-2.0433475635945796966552734375</LongitudeDegrees>
            </Position>
            <AltitudeMeters>182.600006103515625</AltitudeMeters>
            <DistanceMeters>NAN</DistanceMeters>
          </Trackpoint>
          <Trackpoint>
            <Time>2022-07-09T17:20:49.000Z</Time>
            <Position>
              <LatitudeDegrees>43.30939619801938533782958984375</LatitudeDegrees>
              <LongitudeDegrees>-2.0435420237481594085693359375</LongitudeDegrees>
            </Position>
            <AltitudeMeters>182.1999969482421875</AltitudeMeters>
            <DistanceMeters>NAN</DistanceMeters>
          </Trackpoint>
          <Trackpoint>
            <Time>2022-07-09T17:20:53.000Z</Time>
            <Position>
              <LatitudeDegrees>43.30930181778967380523681640625</LatitudeDegrees>
              <LongitudeDegrees>-2.043556608259677886962890625</LongitudeDegrees>
            </Position>
            <AltitudeMeters>182.1999969482421875</AltitudeMeters>
            <DistanceMeters>NAN</DistanceMeters>
          </Trackpoint>
          <Trackpoint>
            <Time>2022-07-09T17:20:58.000Z</Time>
            <Position>
              <LatitudeDegrees>43.30919318832457065582275390625</LatitudeDegrees>
              <LongitudeDegrees>-2.04351142980158329010009765625</LongitudeDegrees>
            </Position>
            <AltitudeMeters>183.1999969482421875</AltitudeMeters>
            <DistanceMeters>NAN</DistanceMeters>
          </Trackpoint>
          <Trackpoint>
            <Time>2022-07-09T17:21:00.000Z</Time>
            <Position>
              <LatitudeDegrees>43.30915379337966442108154296875</LatitudeDegrees>
              <LongitudeDegrees>-2.04352953471243381500244140625</LongitudeDegrees>
            </Position>
            <AltitudeMeters>183.399993896484375</AltitudeMeters>
            <DistanceMeters>NAN</DistanceMeters>
          </Trackpoint>
          <Trackpoint>
            <Time>2022-07-09T17:21:04.000Z</Time>
            <Position>
              <LatitudeDegrees>43.30906896851956844329833984375</LatitudeDegrees>
              <LongitudeDegrees>-2.04362274147570133209228515625</LongitudeDegrees>
            </Position>
            <AltitudeMeters>183.8000030517578125</AltitudeMeters>
            <DistanceMeters>NAN</DistanceMeters>
          </Trackpoint>
          <Trackpoint>
            <Time>2022-07-09T17:21:11.000Z</Time>
            <Position>
              <LatitudeDegrees>43.30891775898635387420654296875</LatitudeDegrees>
              <LongitudeDegrees>-2.04384553246200084686279296875</LongitudeDegrees>
            </Position>
            <AltitudeMeters>184</AltitudeMeters>
            <DistanceMeters>NAN</DistanceMeters>
          </Trackpoint>
          <Trackpoint>
            <Time>2022-07-09T17:21:13.000Z</Time>
            <Position>
              <LatitudeDegrees>43.3088673837482929229736328125</LatitudeDegrees>
              <LongitudeDegrees>-2.04392708837985992431640625</LongitudeDegrees>
            </Position>
            <AltitudeMeters>184</AltitudeMeters>
            <DistanceMeters>NAN</DistanceMeters>
          </Trackpoint>
          <Trackpoint>
            <Time>2022-07-09T17:21:15.000Z</Time>
            <Position>
              <LatitudeDegrees>43.308808542788028717041015625</LatitudeDegrees>
              <LongitudeDegrees>-2.04401769675314426422119140625</LongitudeDegrees>
            </Position>
            <AltitudeMeters>184</AltitudeMeters>
            <DistanceMeters>NAN</DistanceMeters>
          </Trackpoint>
          <Trackpoint>
            <Time>2022-07-09T17:21:17.000Z</Time>
            <Position>
              <LatitudeDegrees>43.30875498242676258087158203125</LatitudeDegrees>
              <LongitudeDegrees>-2.044103443622589111328125</LongitudeDegrees>
            </Position>
            <AltitudeMeters>184</AltitudeMeters>
            <DistanceMeters>NAN</DistanceMeters>
          </Trackpoint>
          <Trackpoint>
            <Time>2022-07-09T17:21:21.000Z</Time>
            <Position>
              <LatitudeDegrees>43.30868683755397796630859375</LatitudeDegrees>
              <LongitudeDegrees>-2.04422506503760814666748046875</LongitudeDegrees>
            </Position>
            <AltitudeMeters>184.1999969482421875</AltitudeMeters>
            <DistanceMeters>NAN</DistanceMeters>
          </Trackpoint>
          <Trackpoint>
            <Time>2022-07-09T17:21:24.000Z</Time>
            <Position>
              <LatitudeDegrees>43.30865490250289440155029296875</LatitudeDegrees>
              <LongitudeDegrees>-2.0442937128245830535888671875</LongitudeDegrees>
            </Position>
            <AltitudeMeters>184.600006103515625</AltitudeMeters>
            <DistanceMeters>NAN</DistanceMeters>
          </Trackpoint>
          <Trackpoint>
            <Time>2022-07-09T17:21:27.000Z</Time>
            <Position>
              <LatitudeDegrees>43.30862120725214481353759765625</LatitudeDegrees>
              <LongitudeDegrees>-2.044366300106048583984375</LongitudeDegrees>
            </Position>
            <AltitudeMeters>184.8000030517578125</AltitudeMeters>
            <DistanceMeters>NAN</DistanceMeters>
          </Trackpoint>
          <Trackpoint>
            <Time>2022-07-09T17:21:32.000Z</Time>
            <Position>
              <LatitudeDegrees>43.30857552587985992431640625</LatitudeDegrees>
              <LongitudeDegrees>-2.04447828233242034912109375</LongitudeDegrees>
            </Position>
            <AltitudeMeters>185.600006103515625</AltitudeMeters>
            <DistanceMeters>NAN</DistanceMeters>
          </Trackpoint>
          <Trackpoint>
            <Time>2022-07-09T17:21:38.000Z</Time>
            <Position>
              <LatitudeDegrees>43.3085381425917148590087890625</LatitudeDegrees>
              <LongitudeDegrees>-2.04461683519184589385986328125</LongitudeDegrees>
            </Position>
            <AltitudeMeters>186.399993896484375</AltitudeMeters>
            <DistanceMeters>NAN</DistanceMeters>
          </Trackpoint>
          <Trackpoint>
            <Time>2022-07-09T17:21:39.000Z</Time>
            <Position>
              <LatitudeDegrees>43.30853470601141452789306640625</LatitudeDegrees>
              <LongitudeDegrees>-2.04463376663625240325927734375</LongitudeDegrees>
            </Position>
            <AltitudeMeters>186.600006103515625</AltitudeMeters>
            <DistanceMeters>NAN</DistanceMeters>
          </Trackpoint>
          <Trackpoint>
            <Time>2022-07-09T17:21:43.000Z</Time>
            <Position>
              <LatitudeDegrees>43.3084523119032382965087890625</LatitudeDegrees>
              <LongitudeDegrees>-2.04470618627965450286865234375</LongitudeDegrees>
            </Position>
            <AltitudeMeters>187.600006103515625</AltitudeMeters>
            <DistanceMeters>NAN</DistanceMeters>
          </Trackpoint>
          <Trackpoint>
            <Time>2022-07-09T17:21:45.000Z</Time>
            <Position>
              <LatitudeDegrees>43.308415599167346954345703125</LatitudeDegrees>
              <LongitudeDegrees>-2.04473937861621379852294921875</LongitudeDegrees>
            </Position>
            <AltitudeMeters>187.8000030517578125</AltitudeMeters>
            <DistanceMeters>NAN</DistanceMeters>
          </Trackpoint>
          <Trackpoint>
            <Time>2022-07-09T17:21:49.000Z</Time>
            <Position>
              <LatitudeDegrees>43.308376036584377288818359375</LatitudeDegrees>
              <LongitudeDegrees>-2.044861502945423126220703125</LongitudeDegrees>
            </Position>
            <AltitudeMeters>188</AltitudeMeters>
            <DistanceMeters>NAN</DistanceMeters>
          </Trackpoint>
          <Trackpoint>
            <Time>2022-07-09T17:21:50.000Z</Time>
            <Position>
              <LatitudeDegrees>43.30837226472795009613037109375</LatitudeDegrees>
              <LongitudeDegrees>-2.0448948629200458526611328125</LongitudeDegrees>
            </Position>
            <AltitudeMeters>188</AltitudeMeters>
            <DistanceMeters>NAN</DistanceMeters>
          </Trackpoint>
          <Trackpoint>
            <Time>2022-07-09T17:21:54.000Z</Time>
            <Position>
              <LatitudeDegrees>43.3083347976207733154296875</LatitudeDegrees>
              <LongitudeDegrees>-2.04500324092805385589599609375</LongitudeDegrees>
            </Position>
            <AltitudeMeters>188.399993896484375</AltitudeMeters>
            <DistanceMeters>NAN</DistanceMeters>
          </Trackpoint>
          <Trackpoint>
            <Time>2022-07-09T17:21:58.000Z</Time>
            <Position>
              <LatitudeDegrees>43.3083047904074192047119140625</LatitudeDegrees>
              <LongitudeDegrees>-2.04510734416544437408447265625</LongitudeDegrees>
            </Position>
            <AltitudeMeters>188.8000030517578125</AltitudeMeters>
            <DistanceMeters>NAN</DistanceMeters>
          </Trackpoint>
          <Trackpoint>
            <Time>2022-07-09T17:22:02.000Z</Time>
            <Position>
              <LatitudeDegrees>43.30827704630792140960693359375</LatitudeDegrees>
              <LongitudeDegrees>-2.045199461281299591064453125</LongitudeDegrees>
            </Position>
            <AltitudeMeters>189</AltitudeMeters>
            <DistanceMeters>NAN</DistanceMeters>
          </Trackpoint>
          <Trackpoint>
            <Time>2022-07-09T17:22:05.000Z</Time>
            <Position>
              <LatitudeDegrees>43.308274447917938232421875</LatitudeDegrees>
              <LongitudeDegrees>-2.045256793498992919921875</LongitudeDegrees>
            </Position>
            <AltitudeMeters>189.399993896484375</AltitudeMeters>
            <DistanceMeters>NAN</DistanceMeters>
          </Trackpoint>
          <Trackpoint>
            <Time>2022-07-09T17:22:07.000Z</Time>
            <Position>
              <LatitudeDegrees>43.3082548342645168304443359375</LatitudeDegrees>
              <LongitudeDegrees>-2.0453079231083393096923828125</LongitudeDegrees>
            </Position>
            <AltitudeMeters>189.600006103515625</AltitudeMeters>
            <DistanceMeters>NAN</DistanceMeters>
          </Trackpoint>
          <Trackpoint>
            <Time>2022-07-09T17:22:08.000Z</Time>
            <Position>
              <LatitudeDegrees>43.30825407989323139190673828125</LatitudeDegrees>
              <LongitudeDegrees>-2.04532862640917301177978515625</LongitudeDegrees>
            </Position>
            <AltitudeMeters>189.8000030517578125</AltitudeMeters>
            <DistanceMeters>NAN</DistanceMeters>
          </Trackpoint>
          <Trackpoint>
            <Time>2022-07-09T17:22:09.000Z</Time>
            <Position>
              <LatitudeDegrees>43.30825055949389934539794921875</LatitudeDegrees>
              <LongitudeDegrees>-2.045348323881626129150390625</LongitudeDegrees>
            </Position>
            <AltitudeMeters>189.8000030517578125</AltitudeMeters>
            <DistanceMeters>NAN</DistanceMeters>
          </Trackpoint>
          <Trackpoint>
            <Time>2022-07-09T17:22:12.000Z</Time>
            <Position>
              <LatitudeDegrees>43.30822683870792388916015625</LatitudeDegrees>
              <LongitudeDegrees>-2.04541026614606380462646484375</LongitudeDegrees>
            </Position>
            <AltitudeMeters>190</AltitudeMeters>
            <DistanceMeters>NAN</DistanceMeters>
          </Trackpoint>
          <Trackpoint>
            <Time>2022-07-09T17:22:15.000Z</Time>
            <Position>
              <LatitudeDegrees>43.30821342766284942626953125</LatitudeDegrees>
              <LongitudeDegrees>-2.04548318870365619659423828125</LongitudeDegrees>
            </Position>
            <AltitudeMeters>190.399993896484375</AltitudeMeters>
            <DistanceMeters>NAN</DistanceMeters>
          </Trackpoint>
          <Trackpoint>
            <Time>2022-07-09T17:22:18.000Z</Time>
            <Position>
              <LatitudeDegrees>43.3082068897783756256103515625</LatitudeDegrees>
              <LongitudeDegrees>-2.04555359669029712677001953125</LongitudeDegrees>
            </Position>
            <AltitudeMeters>190.8000030517578125</AltitudeMeters>
            <DistanceMeters>NAN</DistanceMeters>
          </Trackpoint>
          <Trackpoint>
            <Time>2022-07-09T17:22:23.000Z</Time>
            <Position>
              <LatitudeDegrees>43.30817327834665775299072265625</LatitudeDegrees>
              <LongitudeDegrees>-2.04566457308828830718994140625</LongitudeDegrees>
            </Position>
            <AltitudeMeters>191.399993896484375</AltitudeMeters>
            <DistanceMeters>NAN</DistanceMeters>
          </Trackpoint>
          <Trackpoint>
            <Time>2022-07-09T17:22:25.000Z</Time>
            <Position>
              <LatitudeDegrees>43.3081619627773761749267578125</LatitudeDegrees>
              <LongitudeDegrees>-2.04571469686925411224365234375</LongitudeDegrees>
            </Position>
            <AltitudeMeters>191.8000030517578125</AltitudeMeters>
            <DistanceMeters>NAN</DistanceMeters>
          </Trackpoint>
          <Trackpoint>
            <Time>2022-07-09T17:22:26.000Z</Time>
            <Position>
              <LatitudeDegrees>43.30815115012228488922119140625</LatitudeDegrees>
              <LongitudeDegrees>-2.045738585293292999267578125</LongitudeDegrees>
            </Position>
            <AltitudeMeters>192</AltitudeMeters>
            <DistanceMeters>NAN</DistanceMeters>
          </Trackpoint>
          <Trackpoint>
            <Time>2022-07-09T17:22:33.000Z</Time>
            <Position>
              <LatitudeDegrees>43.30807797610759735107421875</LatitudeDegrees>
              <LongitudeDegrees>-2.045863308012485504150390625</LongitudeDegrees>
            </Position>
            <AltitudeMeters>193</AltitudeMeters>
            <DistanceMeters>NAN</DistanceMeters>
          </Trackpoint>
          <Trackpoint>
            <Time>2022-07-09T17:22:39.000Z</Time>
            <Position>
              <LatitudeDegrees>43.30800765193998813629150390625</LatitudeDegrees>
              <LongitudeDegrees>-2.04596799798309803009033203125</LongitudeDegrees>
            </Position>
            <AltitudeMeters>193.399993896484375</AltitudeMeters>
            <DistanceMeters>NAN</DistanceMeters>
          </Trackpoint>
          <Trackpoint>
            <Time>2022-07-09T17:22:42.000Z</Time>
            <Position>
              <LatitudeDegrees>43.30797445960342884063720703125</LatitudeDegrees>
              <LongitudeDegrees>-2.046014852821826934814453125</LongitudeDegrees>
            </Position>
            <AltitudeMeters>194.1999969482421875</AltitudeMeters>
            <DistanceMeters>NAN</DistanceMeters>
          </Trackpoint>
          <Trackpoint>
            <Time>2022-07-09T17:22:44.000Z</Time>
            <Position>
              <LatitudeDegrees>43.30795585177838802337646484375</LatitudeDegrees>
              <LongitudeDegrees>-2.04606003127992153167724609375</LongitudeDegrees>
            </Position>
            <AltitudeMeters>194.600006103515625</AltitudeMeters>
            <DistanceMeters>NAN</DistanceMeters>
          </Trackpoint>
          <Trackpoint>
            <Time>2022-07-09T17:22:48.000Z</Time>
            <Position>
              <LatitudeDegrees>43.30792986787855625152587890625</LatitudeDegrees>
              <LongitudeDegrees>-2.04614133574068546295166015625</LongitudeDegrees>
            </Position>
            <AltitudeMeters>194.8000030517578125</AltitudeMeters>
            <DistanceMeters>NAN</DistanceMeters>
          </Trackpoint>
          <Trackpoint>
            <Time>2022-07-09T17:22:52.000Z</Time>
            <Position>
              <LatitudeDegrees>43.307896591722965240478515625</LatitudeDegrees>
              <LongitudeDegrees>-2.04621342010796070098876953125</LongitudeDegrees>
            </Position>
            <AltitudeMeters>195.1999969482421875</AltitudeMeters>
            <DistanceMeters>NAN</DistanceMeters>
          </Trackpoint>
          <Trackpoint>
            <Time>2022-07-09T17:22:57.000Z</Time>
            <Position>
              <LatitudeDegrees>43.30785895697772502899169921875</LatitudeDegrees>
              <LongitudeDegrees>-2.04631961882114410400390625</LongitudeDegrees>
            </Position>
            <AltitudeMeters>196</AltitudeMeters>
            <DistanceMeters>NAN</DistanceMeters>
          </Trackpoint>
          <Trackpoint>
            <Time>2022-07-09T17:23:02.000Z</Time>
            <Position>
              <LatitudeDegrees>43.30782978795468807220458984375</LatitudeDegrees>
              <LongitudeDegrees>-2.04642028547823429107666015625</LongitudeDegrees>
            </Position>
            <AltitudeMeters>196.399993896484375</AltitudeMeters>
            <DistanceMeters>NAN</DistanceMeters>
          </Trackpoint>
          <Trackpoint>
            <Time>2022-07-09T17:23:05.000Z</Time>
            <Position>
              <LatitudeDegrees>43.30780162476003170013427734375</LatitudeDegrees>
              <LongitudeDegrees>-2.04647342674434185028076171875</LongitudeDegrees>
            </Position>
            <AltitudeMeters>196.600006103515625</AltitudeMeters>
            <DistanceMeters>NAN</DistanceMeters>
          </Trackpoint>
          <Trackpoint>
            <Time>2022-07-09T17:23:06.000Z</Time>
            <Position>
              <LatitudeDegrees>43.30780179239809513092041015625</LatitudeDegrees>
              <LongitudeDegrees>-2.04648851417005062103271484375</LongitudeDegrees>
            </Position>
            <AltitudeMeters>196.8000030517578125</AltitudeMeters>
            <DistanceMeters>NAN</DistanceMeters>
          </Trackpoint>
          <Trackpoint>
            <Time>2022-07-09T17:23:09.000Z</Time>
            <Position>
              <LatitudeDegrees>43.30778561532497406005859375</LatitudeDegrees>
              <LongitudeDegrees>-2.0465563237667083740234375</LongitudeDegrees>
            </Position>
            <AltitudeMeters>196.8000030517578125</AltitudeMeters>
            <DistanceMeters>NAN</DistanceMeters>
          </Trackpoint>
          <Trackpoint>
            <Time>2022-07-09T17:23:13.000Z</Time>
            <Position>
              <LatitudeDegrees>43.30774898640811443328857421875</LatitudeDegrees>
              <LongitudeDegrees>-2.046652548015117645263671875</LongitudeDegrees>
            </Position>
            <AltitudeMeters>197.1999969482421875</AltitudeMeters>
            <DistanceMeters>NAN</DistanceMeters>
          </Trackpoint>
          <Trackpoint>
            <Time>2022-07-09T17:23:17.000Z</Time>
            <Position>
              <LatitudeDegrees>43.30772501416504383087158203125</LatitudeDegrees>
              <LongitudeDegrees>-2.0467655360698699951171875</LongitudeDegrees>
            </Position>
            <AltitudeMeters>197.399993896484375</AltitudeMeters>
            <DistanceMeters>NAN</DistanceMeters>
          </Trackpoint>
          <Trackpoint>
            <Time>2022-07-09T17:23:18.000Z</Time>
            <Position>
              <LatitudeDegrees>43.30771545879542827606201171875</LatitudeDegrees>
              <LongitudeDegrees>-2.04679311253130435943603515625</LongitudeDegrees>
            </Position>
            <AltitudeMeters>197.399993896484375</AltitudeMeters>
            <DistanceMeters>NAN</DistanceMeters>
          </Trackpoint>
          <Trackpoint>
            <Time>2022-07-09T17:23:27.000Z</Time>
            <Position>
              <LatitudeDegrees>43.30763247795403003692626953125</LatitudeDegrees>
              <LongitudeDegrees>-2.04701405949890613555908203125</LongitudeDegrees>
            </Position>
            <AltitudeMeters>198.399993896484375</AltitudeMeters>
            <DistanceMeters>NAN</DistanceMeters>
          </Trackpoint>
          <Trackpoint>
            <Time>2022-07-09T17:23:28.000Z</Time>
            <Position>
              <LatitudeDegrees>43.307621665298938751220703125</LatitudeDegrees>
              <LongitudeDegrees>-2.04703635536134243011474609375</LongitudeDegrees>
            </Position>
            <AltitudeMeters>198.600006103515625</AltitudeMeters>
            <DistanceMeters>NAN</DistanceMeters>
          </Trackpoint>
          <Trackpoint>
            <Time>2022-07-09T17:23:29.000Z</Time>
            <Position>
              <LatitudeDegrees>43.30761034972965717315673828125</LatitudeDegrees>
              <LongitudeDegrees>-2.04705999232828617095947265625</LongitudeDegrees>
            </Position>
            <AltitudeMeters>198.8000030517578125</AltitudeMeters>
            <DistanceMeters>NAN</DistanceMeters>
          </Trackpoint>
          <Trackpoint>
            <Time>2022-07-09T17:23:36.000Z</Time>
            <Position>
              <LatitudeDegrees>43.3075081743299961090087890625</LatitudeDegrees>
              <LongitudeDegrees>-2.04721773974597454071044921875</LongitudeDegrees>
            </Position>
            <AltitudeMeters>199.399993896484375</AltitudeMeters>
            <DistanceMeters>NAN</DistanceMeters>
          </Trackpoint>
          <Trackpoint>
            <Time>2022-07-09T17:23:41.000Z</Time>
            <Position>
              <LatitudeDegrees>43.30741186626255512237548828125</LatitudeDegrees>
              <LongitudeDegrees>-2.0473621599376201629638671875</LongitudeDegrees>
            </Position>
            <AltitudeMeters>199.600006103515625</AltitudeMeters>
            <DistanceMeters>NAN</DistanceMeters>
          </Trackpoint>
          <Trackpoint>
            <Time>2022-07-09T17:23:47.000Z</Time>
            <Position>
              <LatitudeDegrees>43.30738554708659648895263671875</LatitudeDegrees>
              <LongitudeDegrees>-2.04756290651857852935791015625</LongitudeDegrees>
            </Position>
            <AltitudeMeters>199.399993896484375</AltitudeMeters>
            <DistanceMeters>NAN</DistanceMeters>
          </Trackpoint>
          <Trackpoint>
            <Time>2022-07-09T17:23:52.000Z</Time>
            <Position>
              <LatitudeDegrees>43.30731614492833614349365234375</LatitudeDegrees>
              <LongitudeDegrees>-2.04775015823543071746826171875</LongitudeDegrees>
            </Position>
            <AltitudeMeters>199.1999969482421875</AltitudeMeters>
            <DistanceMeters>NAN</DistanceMeters>
          </Trackpoint>
          <Trackpoint>
            <Time>2022-07-09T17:23:57.000Z</Time>
            <Position>
              <LatitudeDegrees>43.30725730396807193756103515625</LatitudeDegrees>
              <LongitudeDegrees>-2.0480127632617950439453125</LongitudeDegrees>
            </Position>
            <AltitudeMeters>198.600006103515625</AltitudeMeters>
            <DistanceMeters>NAN</DistanceMeters>
          </Trackpoint>
          <Trackpoint>
            <Time>2022-07-09T17:23:59.000Z</Time>
            <Position>
              <LatitudeDegrees>43.3072252012789249420166015625</LatitudeDegrees>
              <LongitudeDegrees>-2.04816631972789764404296875</LongitudeDegrees>
            </Position>
            <AltitudeMeters>197.8000030517578125</AltitudeMeters>
            <DistanceMeters>NAN</DistanceMeters>
          </Trackpoint>
          <Trackpoint>
            <Time>2022-07-09T17:24:01.000Z</Time>
            <Position>
              <LatitudeDegrees>43.3072007261216640472412109375</LatitudeDegrees>
              <LongitudeDegrees>-2.04834292642772197723388671875</LongitudeDegrees>
            </Position>
            <AltitudeMeters>197</AltitudeMeters>
            <DistanceMeters>NAN</DistanceMeters>
          </Trackpoint>
          <Trackpoint>
            <Time>2022-07-09T17:24:02.000Z</Time>
            <Position>
              <LatitudeDegrees>43.3071903325617313385009765625</LatitudeDegrees>
              <LongitudeDegrees>-2.04844501800835132598876953125</LongitudeDegrees>
            </Position>
            <AltitudeMeters>196.8000030517578125</AltitudeMeters>
            <DistanceMeters>NAN</DistanceMeters>
          </Trackpoint>
          <Trackpoint>
            <Time>2022-07-09T17:24:04.000Z</Time>
            <Position>
              <LatitudeDegrees>43.3071635104715824127197265625</LatitudeDegrees>
              <LongitudeDegrees>-2.04864643514156341552734375</LongitudeDegrees>
            </Position>
            <AltitudeMeters>196</AltitudeMeters>
            <DistanceMeters>NAN</DistanceMeters>
          </Trackpoint>
          <Trackpoint>
            <Time>2022-07-09T17:24:05.000Z</Time>
            <Position>
              <LatitudeDegrees>43.30714599229395389556884765625</LatitudeDegrees>
              <LongitudeDegrees>-2.04875179566442966461181640625</LongitudeDegrees>
            </Position>
            <AltitudeMeters>195.600006103515625</AltitudeMeters>
            <DistanceMeters>NAN</DistanceMeters>
          </Trackpoint>
          <Trackpoint>
            <Time>2022-07-09T17:24:08.000Z</Time>
            <Position>
              <LatitudeDegrees>43.30706820823252201080322265625</LatitudeDegrees>
              <LongitudeDegrees>-2.0490519516170024871826171875</LongitudeDegrees>
            </Position>
            <AltitudeMeters>195</AltitudeMeters>
            <DistanceMeters>NAN</DistanceMeters>
          </Trackpoint>
          <Trackpoint>
            <Time>2022-07-09T17:24:10.000Z</Time>
            <Position>
              <LatitudeDegrees>43.3070183359086513519287109375</LatitudeDegrees>
              <LongitudeDegrees>-2.0492283068597316741943359375</LongitudeDegrees>
            </Position>
            <AltitudeMeters>194.8000030517578125</AltitudeMeters>
            <DistanceMeters>NAN</DistanceMeters>
          </Trackpoint>
          <Trackpoint>
            <Time>2022-07-09T17:24:13.000Z</Time>
            <Position>
              <LatitudeDegrees>43.30695723183453083038330078125</LatitudeDegrees>
              <LongitudeDegrees>-2.049478925764560699462890625</LongitudeDegrees>
            </Position>
            <AltitudeMeters>194.600006103515625</AltitudeMeters>
            <DistanceMeters>NAN</DistanceMeters>
          </Trackpoint>
          <Trackpoint>
            <Time>2022-07-09T17:24:15.000Z</Time>
            <Position>
              <LatitudeDegrees>43.3069452457129955291748046875</LatitudeDegrees>
              <LongitudeDegrees>-2.04963759519159793853759765625</LongitudeDegrees>
            </Position>
            <AltitudeMeters>194.600006103515625</AltitudeMeters>
            <DistanceMeters>NAN</DistanceMeters>
          </Trackpoint>
          <Trackpoint>
            <Time>2022-07-09T17:24:17.000Z</Time>
            <Position>
              <LatitudeDegrees>43.30696309916675090789794921875</LatitudeDegrees>
              <LongitudeDegrees>-2.0497939176857471466064453125</LongitudeDegrees>
            </Position>
            <AltitudeMeters>194.399993896484375</AltitudeMeters>
            <DistanceMeters>NAN</DistanceMeters>
          </Trackpoint>
          <Trackpoint>
            <Time>2022-07-09T17:24:19.000Z</Time>
            <Position>
              <LatitudeDegrees>43.30698422156274318695068359375</LatitudeDegrees>
              <LongitudeDegrees>-2.049969770014286041259765625</LongitudeDegrees>
            </Position>
            <AltitudeMeters>194.399993896484375</AltitudeMeters>
            <DistanceMeters>NAN</DistanceMeters>
          </Trackpoint>
          <Trackpoint>
            <Time>2022-07-09T17:24:21.000Z</Time>
            <Position>
              <LatitudeDegrees>43.30701372586190700531005859375</LatitudeDegrees>
              <LongitudeDegrees>-2.050151824951171875</LongitudeDegrees>
            </Position>
            <AltitudeMeters>194</AltitudeMeters>
            <DistanceMeters>NAN</DistanceMeters>
          </Trackpoint>
          <Trackpoint>
            <Time>2022-07-09T17:24:26.000Z</Time>
            <Position>
              <LatitudeDegrees>43.306992352008819580078125</LatitudeDegrees>
              <LongitudeDegrees>-2.0506311021745204925537109375</LongitudeDegrees>
            </Position>
            <AltitudeMeters>192.399993896484375</AltitudeMeters>
            <DistanceMeters>NAN</DistanceMeters>
          </Trackpoint>
          <Trackpoint>
            <Time>2022-07-09T17:24:28.000Z</Time>
            <Position>
              <LatitudeDegrees>43.306967206299304962158203125</LatitudeDegrees>
              <LongitudeDegrees>-2.05082170665264129638671875</LongitudeDegrees>
            </Position>
            <AltitudeMeters>191.8000030517578125</AltitudeMeters>
            <DistanceMeters>NAN</DistanceMeters>
          </Trackpoint>
          <Trackpoint>
            <Time>2022-07-09T17:24:30.000Z</Time>
            <Position>
              <LatitudeDegrees>43.3069221116602420806884765625</LatitudeDegrees>
              <LongitudeDegrees>-2.050991691648960113525390625</LongitudeDegrees>
            </Position>
            <AltitudeMeters>191.600006103515625</AltitudeMeters>
            <DistanceMeters>NAN</DistanceMeters>
          </Trackpoint>
          <Trackpoint>
            <Time>2022-07-09T17:24:31.000Z</Time>
            <Position>
              <LatitudeDegrees>43.30689621157944202423095703125</LatitudeDegrees>
              <LongitudeDegrees>-2.05106218345463275909423828125</LongitudeDegrees>
            </Position>
            <AltitudeMeters>191.600006103515625</AltitudeMeters>
            <DistanceMeters>NAN</DistanceMeters>
          </Trackpoint>
          <Trackpoint>
            <Time>2022-07-09T17:24:34.000Z</Time>
            <Position>
              <LatitudeDegrees>43.3068221993744373321533203125</LatitudeDegrees>
              <LongitudeDegrees>-2.05125060863792896270751953125</LongitudeDegrees>
            </Position>
            <AltitudeMeters>191.600006103515625</AltitudeMeters>
            <DistanceMeters>NAN</DistanceMeters>
          </Trackpoint>
          <Trackpoint>
            <Time>2022-07-09T17:24:36.000Z</Time>
            <Position>
              <LatitudeDegrees>43.3067973889410495758056640625</LatitudeDegrees>
              <LongitudeDegrees>-2.0513670332729816436767578125</LongitudeDegrees>
            </Position>
            <AltitudeMeters>191.600006103515625</AltitudeMeters>
            <DistanceMeters>NAN</DistanceMeters>
          </Trackpoint>
          <Trackpoint>
            <Time>2022-07-09T17:24:40.000Z</Time>
            <Position>
              <LatitudeDegrees>43.30674014054238796234130859375</LatitudeDegrees>
              <LongitudeDegrees>-2.05153425224125385284423828125</LongitudeDegrees>
            </Position>
            <AltitudeMeters>191.8000030517578125</AltitudeMeters>
            <DistanceMeters>NAN</DistanceMeters>
          </Trackpoint>
          <Trackpoint>
            <Time>2022-07-09T17:24:45.000Z</Time>
            <Position>
              <LatitudeDegrees>43.30665900371968746185302734375</LatitudeDegrees>
              <LongitudeDegrees>-2.051674313843250274658203125</LongitudeDegrees>
            </Position>
            <AltitudeMeters>192.399993896484375</AltitudeMeters>
            <DistanceMeters>NAN</DistanceMeters>
          </Trackpoint>
          <Trackpoint>
            <Time>2022-07-09T17:24:49.000Z</Time>
            <Position>
              <LatitudeDegrees>43.30667476169764995574951171875</LatitudeDegrees>
              <LongitudeDegrees>-2.0518488250672817230224609375</LongitudeDegrees>
            </Position>
            <AltitudeMeters>193</AltitudeMeters>
            <DistanceMeters>NAN</DistanceMeters>
          </Trackpoint>
          <Trackpoint>
            <Time>2022-07-09T17:24:52.000Z</Time>
            <Position>
              <LatitudeDegrees>43.30667124129831790924072265625</LatitudeDegrees>
              <LongitudeDegrees>-2.05193893052637577056884765625</LongitudeDegrees>
            </Position>
            <AltitudeMeters>193.600006103515625</AltitudeMeters>
            <DistanceMeters>NAN</DistanceMeters>
          </Trackpoint>
          <Trackpoint>
            <Time>2022-07-09T17:24:53.000Z</Time>
            <Position>
              <LatitudeDegrees>43.306666798889636993408203125</LatitudeDegrees>
              <LongitudeDegrees>-2.05194898881018161773681640625</LongitudeDegrees>
            </Position>
            <AltitudeMeters>193.600006103515625</AltitudeMeters>
            <DistanceMeters>NAN</DistanceMeters>
          </Trackpoint>
          <Trackpoint>
            <Time>2022-07-09T17:24:55.000Z</Time>
            <Position>
              <LatitudeDegrees>43.30665363930165767669677734375</LatitudeDegrees>
              <LongitudeDegrees>-2.0519688539206981658935546875</LongitudeDegrees>
            </Position>
            <AltitudeMeters>194.1999969482421875</AltitudeMeters>
            <DistanceMeters>NAN</DistanceMeters>
          </Trackpoint>
          <Trackpoint>
            <Time>2022-07-09T17:24:58.000Z</Time>
            <Position>
              <LatitudeDegrees>43.30663804896175861358642578125</LatitudeDegrees>
              <LongitudeDegrees>-2.05202342011034488677978515625</LongitudeDegrees>
            </Position>
            <AltitudeMeters>194.600006103515625</AltitudeMeters>
            <DistanceMeters>NAN</DistanceMeters>
          </Trackpoint>
          <Trackpoint>
            <Time>2022-07-09T17:25:01.000Z</Time>
            <Position>
              <LatitudeDegrees>43.30661977641284465789794921875</LatitudeDegrees>
              <LongitudeDegrees>-2.052071280777454376220703125</LongitudeDegrees>
            </Position>
            <AltitudeMeters>195.1999969482421875</AltitudeMeters>
            <DistanceMeters>NAN</DistanceMeters>
          </Trackpoint>
          <Trackpoint>
            <Time>2022-07-09T17:25:06.000Z</Time>
            <Position>
              <LatitudeDegrees>43.30661348998546600341796875</LatitudeDegrees>
              <LongitudeDegrees>-2.05216356553137302398681640625</LongitudeDegrees>
            </Position>
            <AltitudeMeters>195.600006103515625</AltitudeMeters>
            <DistanceMeters>NAN</DistanceMeters>
          </Trackpoint>
          <Trackpoint>
            <Time>2022-07-09T17:25:08.000Z</Time>
            <Position>
              <LatitudeDegrees>43.3066146634519100189208984375</LatitudeDegrees>
              <LongitudeDegrees>-2.052213437855243682861328125</LongitudeDegrees>
            </Position>
            <AltitudeMeters>196</AltitudeMeters>
            <DistanceMeters>NAN</DistanceMeters>
          </Trackpoint>
          <Trackpoint>
            <Time>2022-07-09T17:25:14.000Z</Time>
            <Position>
              <LatitudeDegrees>43.30661240033805370330810546875</LatitudeDegrees>
              <LongitudeDegrees>-2.05234050750732421875</LongitudeDegrees>
            </Position>
            <AltitudeMeters>196.600006103515625</AltitudeMeters>
            <DistanceMeters>NAN</DistanceMeters>
          </Trackpoint>
          <Trackpoint>
            <Time>2022-07-09T17:25:15.000Z</Time>
            <Position>
              <LatitudeDegrees>43.30662279389798641204833984375</LatitudeDegrees>
              <LongitudeDegrees>-2.0523604564368724822998046875</LongitudeDegrees>
            </Position>
            <AltitudeMeters>196.8000030517578125</AltitudeMeters>
            <DistanceMeters>NAN</DistanceMeters>
          </Trackpoint>
          <Trackpoint>
            <Time>2022-07-09T17:25:20.000Z</Time>
            <Position>
              <LatitudeDegrees>43.3066495321691036224365234375</LatitudeDegrees>
              <LongitudeDegrees>-2.05245492048561573028564453125</LongitudeDegrees>
            </Position>
            <AltitudeMeters>197.1999969482421875</AltitudeMeters>
            <DistanceMeters>NAN</DistanceMeters>
          </Trackpoint>
          <Trackpoint>
            <Time>2022-07-09T17:25:21.000Z</Time>
            <Position>
              <LatitudeDegrees>43.30664995126426219940185546875</LatitudeDegrees>
              <LongitudeDegrees>-2.0524786412715911865234375</LongitudeDegrees>
            </Position>
            <AltitudeMeters>197.399993896484375</AltitudeMeters>
            <DistanceMeters>NAN</DistanceMeters>
          </Trackpoint>
          <Trackpoint>
            <Time>2022-07-09T17:25:22.000Z</Time>
            <Position>
              <LatitudeDegrees>43.30664726905524730682373046875</LatitudeDegrees>
              <LongitudeDegrees>-2.0525002665817737579345703125</LongitudeDegrees>
            </Position>
            <AltitudeMeters>197.399993896484375</AltitudeMeters>
            <DistanceMeters>NAN</DistanceMeters>
          </Trackpoint>
          <Trackpoint>
            <Time>2022-07-09T17:25:24.000Z</Time>
            <Position>
              <LatitudeDegrees>43.306665457785129547119140625</LatitudeDegrees>
              <LongitudeDegrees>-2.0525502227246761322021484375</LongitudeDegrees>
            </Position>
            <AltitudeMeters>197.600006103515625</AltitudeMeters>
            <DistanceMeters>NAN</DistanceMeters>
          </Trackpoint>
          <Trackpoint>
            <Time>2022-07-09T17:25:25.000Z</Time>
            <Position>
              <LatitudeDegrees>43.30667509697377681732177734375</LatitudeDegrees>
              <LongitudeDegrees>-2.0525723509490489959716796875</LongitudeDegrees>
            </Position>
            <AltitudeMeters>197.8000030517578125</AltitudeMeters>
            <DistanceMeters>NAN</DistanceMeters>
          </Trackpoint>
          <Trackpoint>
            <Time>2022-07-09T17:25:27.000Z</Time>
            <Position>
              <LatitudeDegrees>43.30668951384723186492919921875</LatitudeDegrees>
              <LongitudeDegrees>-2.05260026268661022186279296875</LongitudeDegrees>
            </Position>
            <AltitudeMeters>198</AltitudeMeters>
            <DistanceMeters>NAN</DistanceMeters>
          </Trackpoint>
          <Trackpoint>
            <Time>2022-07-09T17:25:30.000Z</Time>
            <Position>
              <LatitudeDegrees>43.30668984912335872650146484375</LatitudeDegrees>
              <LongitudeDegrees>-2.05265390686690807342529296875</LongitudeDegrees>
            </Position>
            <AltitudeMeters>198.399993896484375</AltitudeMeters>
            <DistanceMeters>NAN</DistanceMeters>
          </Trackpoint>
          <Trackpoint>
            <Time>2022-07-09T17:25:35.000Z</Time>
            <Position>
              <LatitudeDegrees>43.3066726662218570709228515625</LatitudeDegrees>
              <LongitudeDegrees>-2.05271861515939235687255859375</LongitudeDegrees>
            </Position>
            <AltitudeMeters>198.8000030517578125</AltitudeMeters>
            <DistanceMeters>NAN</DistanceMeters>
          </Trackpoint>
          <Trackpoint>
            <Time>2022-07-09T17:25:39.000Z</Time>
            <Position>
              <LatitudeDegrees>43.3067040145397186279296875</LatitudeDegrees>
              <LongitudeDegrees>-2.05284677445888519287109375</LongitudeDegrees>
            </Position>
            <AltitudeMeters>199</AltitudeMeters>
            <DistanceMeters>NAN</DistanceMeters>
          </Trackpoint>
          <Trackpoint>
            <Time>2022-07-09T17:25:45.000Z</Time>
            <Position>
              <LatitudeDegrees>43.30676461569964885711669921875</LatitudeDegrees>
              <LongitudeDegrees>-2.0530306734144687652587890625</LongitudeDegrees>
            </Position>
            <AltitudeMeters>199.1999969482421875</AltitudeMeters>
            <DistanceMeters>NAN</DistanceMeters>
          </Trackpoint>
          <Trackpoint>
            <Time>2022-07-09T17:25:51.000Z</Time>
            <Position>
              <LatitudeDegrees>43.30680166371166706085205078125</LatitudeDegrees>
              <LongitudeDegrees>-2.0532338507473468780517578125</LongitudeDegrees>
            </Position>
            <AltitudeMeters>199.1999969482421875</AltitudeMeters>
            <DistanceMeters>NAN</DistanceMeters>
          </Trackpoint>
          <Trackpoint>
            <Time>2022-07-09T17:25:57.000Z</Time>
            <Position>
              <LatitudeDegrees>43.306802920997142791748046875</LatitudeDegrees>
              <LongitudeDegrees>-2.0533978007733821868896484375</LongitudeDegrees>
            </Position>
            <AltitudeMeters>199.600006103515625</AltitudeMeters>
            <DistanceMeters>NAN</DistanceMeters>
          </Trackpoint>
          <Trackpoint>
            <Time>2022-07-09T17:25:59.000Z</Time>
            <Position>
              <LatitudeDegrees>43.3068366162478923797607421875</LatitudeDegrees>
              <LongitudeDegrees>-2.05344582907855510711669921875</LongitudeDegrees>
            </Position>
            <AltitudeMeters>199.600006103515625</AltitudeMeters>
            <DistanceMeters>NAN</DistanceMeters>
          </Trackpoint>
          <Trackpoint>
            <Time>2022-07-09T17:26:00.000Z</Time>
            <Position>
              <LatitudeDegrees>43.30684550106525421142578125</LatitudeDegrees>
              <LongitudeDegrees>-2.05346393398940563201904296875</LongitudeDegrees>
            </Position>
            <AltitudeMeters>199.8000030517578125</AltitudeMeters>
            <DistanceMeters>NAN</DistanceMeters>
          </Trackpoint>
          <Trackpoint>
            <Time>2022-07-09T17:26:01.000Z</Time>
            <Position>
              <LatitudeDegrees>43.306842483580112457275390625</LatitudeDegrees>
              <LongitudeDegrees>-2.05348304472863674163818359375</LongitudeDegrees>
            </Position>
            <AltitudeMeters>199.8000030517578125</AltitudeMeters>
            <DistanceMeters>NAN</DistanceMeters>
          </Trackpoint>
          <Trackpoint>
            <Time>2022-07-09T17:26:06.000Z</Time>
            <Position>
              <LatitudeDegrees>43.306764028966426849365234375</LatitudeDegrees>
              <LongitudeDegrees>-2.0536341704428195953369140625</LongitudeDegrees>
            </Position>
            <AltitudeMeters>200</AltitudeMeters>
            <DistanceMeters>NAN</DistanceMeters>
          </Trackpoint>
          <Trackpoint>
            <Time>2022-07-09T17:26:07.000Z</Time>
            <Position>
              <LatitudeDegrees>43.3067514561116695404052734375</LatitudeDegrees>
              <LongitudeDegrees>-2.05367834307253360748291015625</LongitudeDegrees>
            </Position>
            <AltitudeMeters>200</AltitudeMeters>
            <DistanceMeters>NAN</DistanceMeters>
          </Trackpoint>
          <Trackpoint>
            <Time>2022-07-09T17:26:08.000Z</Time>
            <Position>
              <LatitudeDegrees>43.30674198456108570098876953125</LatitudeDegrees>
              <LongitudeDegrees>-2.05372159369289875030517578125</LongitudeDegrees>
            </Position>
            <AltitudeMeters>200.1999969482421875</AltitudeMeters>
            <DistanceMeters>NAN</DistanceMeters>
          </Trackpoint>
          <Trackpoint>
            <Time>2022-07-09T17:26:13.000Z</Time>
            <Position>
              <LatitudeDegrees>43.30666369758546352386474609375</LatitudeDegrees>
              <LongitudeDegrees>-2.05390599556267261505126953125</LongitudeDegrees>
            </Position>
            <AltitudeMeters>200.1999969482421875</AltitudeMeters>
            <DistanceMeters>NAN</DistanceMeters>
          </Trackpoint>
          <Trackpoint>
            <Time>2022-07-09T17:26:18.000Z</Time>
            <Position>
              <LatitudeDegrees>43.306617848575115203857421875</LatitudeDegrees>
              <LongitudeDegrees>-2.05406927503645420074462890625</LongitudeDegrees>
            </Position>
            <AltitudeMeters>200.8000030517578125</AltitudeMeters>
            <DistanceMeters>NAN</DistanceMeters>
          </Trackpoint>
          <Trackpoint>
            <Time>2022-07-09T17:26:19.000Z</Time>
            <Position>
              <LatitudeDegrees>43.30662346445024013519287109375</LatitudeDegrees>
              <LongitudeDegrees>-2.0540938340127468109130859375</LongitudeDegrees>
            </Position>
            <AltitudeMeters>200.8000030517578125</AltitudeMeters>
            <DistanceMeters>NAN</DistanceMeters>
          </Trackpoint>
          <Trackpoint>
            <Time>2022-07-09T17:26:20.000Z</Time>
            <Position>
              <LatitudeDegrees>43.30661726184189319610595703125</LatitudeDegrees>
              <LongitudeDegrees>-2.05411520786583423614501953125</LongitudeDegrees>
            </Position>
            <AltitudeMeters>201</AltitudeMeters>
            <DistanceMeters>NAN</DistanceMeters>
          </Trackpoint>
          <Trackpoint>
            <Time>2022-07-09T17:26:23.000Z</Time>
            <Position>
              <LatitudeDegrees>43.30658390186727046966552734375</LatitudeDegrees>
              <LongitudeDegrees>-2.05416818149387836456298828125</LongitudeDegrees>
            </Position>
            <AltitudeMeters>201.1999969482421875</AltitudeMeters>
            <DistanceMeters>NAN</DistanceMeters>
          </Trackpoint>
          <Trackpoint>
            <Time>2022-07-09T17:26:29.000Z</Time>
            <Position>
              <LatitudeDegrees>43.30660653300583362579345703125</LatitudeDegrees>
              <LongitudeDegrees>-2.05430597998201847076416015625</LongitudeDegrees>
            </Position>
            <AltitudeMeters>202</AltitudeMeters>
            <DistanceMeters>NAN</DistanceMeters>
          </Trackpoint>
          <Trackpoint>
            <Time>2022-07-09T17:26:30.000Z</Time>
            <Position>
              <LatitudeDegrees>43.30660946667194366455078125</LatitudeDegrees>
              <LongitudeDegrees>-2.0543312095105648040771484375</LongitudeDegrees>
            </Position>
            <AltitudeMeters>202.1999969482421875</AltitudeMeters>
            <DistanceMeters>NAN</DistanceMeters>
          </Trackpoint>
          <Trackpoint>
            <Time>2022-07-09T17:26:34.000Z</Time>
            <Position>
              <LatitudeDegrees>43.306591026484966278076171875</LatitudeDegrees>
              <LongitudeDegrees>-2.05441343598067760467529296875</LongitudeDegrees>
            </Position>
            <AltitudeMeters>203</AltitudeMeters>
            <DistanceMeters>NAN</DistanceMeters>
          </Trackpoint>
          <Trackpoint>
            <Time>2022-07-09T17:26:35.000Z</Time>
            <Position>
              <LatitudeDegrees>43.30658440478146076202392578125</LatitudeDegrees>
              <LongitudeDegrees>-2.05443439073860645294189453125</LongitudeDegrees>
            </Position>
            <AltitudeMeters>203.1999969482421875</AltitudeMeters>
            <DistanceMeters>NAN</DistanceMeters>
          </Trackpoint>
          <Trackpoint>
            <Time>2022-07-09T17:26:38.000Z</Time>
            <Position>
              <LatitudeDegrees>43.30656093545258045196533203125</LatitudeDegrees>
              <LongitudeDegrees>-2.05450094304978847503662109375</LongitudeDegrees>
            </Position>
            <AltitudeMeters>203.399993896484375</AltitudeMeters>
            <DistanceMeters>NAN</DistanceMeters>
          </Trackpoint>
          <Trackpoint>
            <Time>2022-07-09T17:26:40.000Z</Time>
            <Position>
              <LatitudeDegrees>43.30657417885959148406982421875</LatitudeDegrees>
              <LongitudeDegrees>-2.05454184673726558685302734375</LongitudeDegrees>
            </Position>
            <AltitudeMeters>203.600006103515625</AltitudeMeters>
            <DistanceMeters>NAN</DistanceMeters>
          </Trackpoint>
          <Trackpoint>
            <Time>2022-07-09T17:26:41.000Z</Time>
            <Position>
              <LatitudeDegrees>43.3065761066973209381103515625</LatitudeDegrees>
              <LongitudeDegrees>-2.05455777235329151153564453125</LongitudeDegrees>
            </Position>
            <AltitudeMeters>203.8000030517578125</AltitudeMeters>
            <DistanceMeters>NAN</DistanceMeters>
          </Trackpoint>
          <Trackpoint>
            <Time>2022-07-09T17:26:43.000Z</Time>
            <Position>
              <LatitudeDegrees>43.30657602287828922271728515625</LatitudeDegrees>
              <LongitudeDegrees>-2.05457679927349090576171875</LongitudeDegrees>
            </Position>
            <AltitudeMeters>204</AltitudeMeters>
            <DistanceMeters>NAN</DistanceMeters>
          </Trackpoint>
          <Trackpoint>
            <Time>2022-07-09T17:26:44.000Z</Time>
            <Position>
              <LatitudeDegrees>43.30656244419515132904052734375</LatitudeDegrees>
              <LongitudeDegrees>-2.05459691584110260009765625</LongitudeDegrees>
            </Position>
            <AltitudeMeters>204</AltitudeMeters>
            <DistanceMeters>NAN</DistanceMeters>
          </Trackpoint>
          <Trackpoint>
            <Time>2022-07-09T17:26:46.000Z</Time>
            <Position>
              <LatitudeDegrees>43.3065345324575901031494140625</LatitudeDegrees>
              <LongitudeDegrees>-2.054641507565975189208984375</LongitudeDegrees>
            </Position>
            <AltitudeMeters>204.1999969482421875</AltitudeMeters>
            <DistanceMeters>NAN</DistanceMeters>
          </Trackpoint>
          <Trackpoint>
            <Time>2022-07-09T17:26:50.000Z</Time>
            <Position>
              <LatitudeDegrees>43.30653436481952667236328125</LatitudeDegrees>
              <LongitudeDegrees>-2.05471635796129703521728515625</LongitudeDegrees>
            </Position>
            <AltitudeMeters>204.600006103515625</AltitudeMeters>
            <DistanceMeters>NAN</DistanceMeters>
          </Trackpoint>
          <Trackpoint>
            <Time>2022-07-09T17:26:52.000Z</Time>
            <Position>
              <LatitudeDegrees>43.306525982916355133056640625</LatitudeDegrees>
              <LongitudeDegrees>-2.05474820919334888458251953125</LongitudeDegrees>
            </Position>
            <AltitudeMeters>204.8000030517578125</AltitudeMeters>
            <DistanceMeters>NAN</DistanceMeters>
          </Trackpoint>
          <Trackpoint>
            <Time>2022-07-09T17:26:53.000Z</Time>
            <Position>
              <LatitudeDegrees>43.306520283222198486328125</LatitudeDegrees>
              <LongitudeDegrees>-2.05476815812289714813232421875</LongitudeDegrees>
            </Position>
            <AltitudeMeters>205</AltitudeMeters>
            <DistanceMeters>NAN</DistanceMeters>
          </Trackpoint>
          <Trackpoint>
            <Time>2022-07-09T17:26:54.000Z</Time>
            <Position>
              <LatitudeDegrees>43.3065140806138515472412109375</LatitudeDegrees>
              <LongitudeDegrees>-2.054788358509540557861328125</LongitudeDegrees>
            </Position>
            <AltitudeMeters>205</AltitudeMeters>
            <DistanceMeters>NAN</DistanceMeters>
          </Trackpoint>
          <Trackpoint>
            <Time>2022-07-09T17:26:56.000Z</Time>
            <Position>
              <LatitudeDegrees>43.306495137512683868408203125</LatitudeDegrees>
              <LongitudeDegrees>-2.05483672209084033966064453125</LongitudeDegrees>
            </Position>
            <AltitudeMeters>205</AltitudeMeters>
            <DistanceMeters>NAN</DistanceMeters>
          </Trackpoint>
          <Trackpoint>
            <Time>2022-07-09T17:26:57.000Z</Time>
            <Position>
              <LatitudeDegrees>43.30648214556276798248291015625</LatitudeDegrees>
              <LongitudeDegrees>-2.054870836436748504638671875</LongitudeDegrees>
            </Position>
            <AltitudeMeters>205.399993896484375</AltitudeMeters>
            <DistanceMeters>NAN</DistanceMeters>
          </Trackpoint>
          <Trackpoint>
            <Time>2022-07-09T17:27:04.000Z</Time>
            <Position>
              <LatitudeDegrees>43.3064533956348896026611328125</LatitudeDegrees>
              <LongitudeDegrees>-2.05503679811954498291015625</LongitudeDegrees>
            </Position>
            <AltitudeMeters>206.399993896484375</AltitudeMeters>
            <DistanceMeters>NAN</DistanceMeters>
          </Trackpoint>
          <Trackpoint>
            <Time>2022-07-09T17:27:06.000Z</Time>
            <Position>
              <LatitudeDegrees>43.3064460195600986480712890625</LatitudeDegrees>
              <LongitudeDegrees>-2.05506420694291591644287109375</LongitudeDegrees>
            </Position>
            <AltitudeMeters>206.399993896484375</AltitudeMeters>
            <DistanceMeters>NAN</DistanceMeters>
          </Trackpoint>
          <Trackpoint>
            <Time>2022-07-09T17:27:11.000Z</Time>
            <Position>
              <LatitudeDegrees>43.30644593574106693267822265625</LatitudeDegrees>
              <LongitudeDegrees>-2.055088765919208526611328125</LongitudeDegrees>
            </Position>
            <AltitudeMeters>206.600006103515625</AltitudeMeters>
            <DistanceMeters>NAN</DistanceMeters>
          </Trackpoint>
          <Trackpoint>
            <Time>2022-07-09T17:28:53.000Z</Time>
            <Position>
              <LatitudeDegrees>43.306435458362102508544921875</LatitudeDegrees>
              <LongitudeDegrees>-2.0551422424614429473876953125</LongitudeDegrees>
            </Position>
            <AltitudeMeters>206</AltitudeMeters>
            <DistanceMeters>NAN</DistanceMeters>
          </Trackpoint>
          <Trackpoint>
            <Time>2022-07-09T17:28:54.000Z</Time>
            <Position>
              <LatitudeDegrees>43.30642984248697757720947265625</LatitudeDegrees>
              <LongitudeDegrees>-2.0551777817308902740478515625</LongitudeDegrees>
            </Position>
            <AltitudeMeters>206</AltitudeMeters>
            <DistanceMeters>NAN</DistanceMeters>
          </Trackpoint>
          <Trackpoint>
            <Time>2022-07-09T17:28:55.000Z</Time>
            <Position>
              <LatitudeDegrees>43.3064210414886474609375</LatitudeDegrees>
              <LongitudeDegrees>-2.055224217474460601806640625</LongitudeDegrees>
            </Position>
            <AltitudeMeters>206</AltitudeMeters>
            <DistanceMeters>NAN</DistanceMeters>
          </Trackpoint>
          <Trackpoint>
            <Time>2022-07-09T17:28:59.000Z</Time>
            <Position>
              <LatitudeDegrees>43.30637351609766483306884765625</LatitudeDegrees>
              <LongitudeDegrees>-2.05545312725007534027099609375</LongitudeDegrees>
            </Position>
            <AltitudeMeters>205.600006103515625</AltitudeMeters>
            <DistanceMeters>NAN</DistanceMeters>
          </Trackpoint>
          <Trackpoint>
            <Time>2022-07-09T17:29:01.000Z</Time>
            <Position>
              <LatitudeDegrees>43.30637116916477680206298828125</LatitudeDegrees>
              <LongitudeDegrees>-2.05558606423437595367431640625</LongitudeDegrees>
            </Position>
            <AltitudeMeters>205.1999969482421875</AltitudeMeters>
            <DistanceMeters>NAN</DistanceMeters>
          </Trackpoint>
          <Trackpoint>
            <Time>2022-07-09T17:29:04.000Z</Time>
            <Position>
              <LatitudeDegrees>43.30641408450901508331298828125</LatitudeDegrees>
              <LongitudeDegrees>-2.0557899959385395050048828125</LongitudeDegrees>
            </Position>
            <AltitudeMeters>204.8000030517578125</AltitudeMeters>
            <DistanceMeters>NAN</DistanceMeters>
          </Trackpoint>
          <Trackpoint>
            <Time>2022-07-09T17:29:07.000Z</Time>
            <Position>
              <LatitudeDegrees>43.3064825646579265594482421875</LatitudeDegrees>
              <LongitudeDegrees>-2.0560079254209995269775390625</LongitudeDegrees>
            </Position>
            <AltitudeMeters>204</AltitudeMeters>
            <DistanceMeters>NAN</DistanceMeters>
          </Trackpoint>
          <Trackpoint>
            <Time>2022-07-09T17:29:09.000Z</Time>
            <Position>
              <LatitudeDegrees>43.3064492046833038330078125</LatitudeDegrees>
              <LongitudeDegrees>-2.0561614818871021270751953125</LongitudeDegrees>
            </Position>
            <AltitudeMeters>203.600006103515625</AltitudeMeters>
            <DistanceMeters>NAN</DistanceMeters>
          </Trackpoint>
          <Trackpoint>
            <Time>2022-07-09T17:29:13.000Z</Time>
            <Position>
              <LatitudeDegrees>43.30635591410100460052490234375</LatitudeDegrees>
              <LongitudeDegrees>-2.0563381724059581756591796875</LongitudeDegrees>
            </Position>
            <AltitudeMeters>203.399993896484375</AltitudeMeters>
            <DistanceMeters>NAN</DistanceMeters>
          </Trackpoint>
          <Trackpoint>
            <Time>2022-07-09T17:29:17.000Z</Time>
            <Position>
              <LatitudeDegrees>43.306296654045581817626953125</LatitudeDegrees>
              <LongitudeDegrees>-2.05640614964067935943603515625</LongitudeDegrees>
            </Position>
            <AltitudeMeters>203.8000030517578125</AltitudeMeters>
            <DistanceMeters>NAN</DistanceMeters>
          </Trackpoint>
          <Trackpoint>
            <Time>2022-07-09T17:29:19.000Z</Time>
            <Position>
              <LatitudeDegrees>43.30627528019249439239501953125</LatitudeDegrees>
              <LongitudeDegrees>-2.056433223187923431396484375</LongitudeDegrees>
            </Position>
            <AltitudeMeters>204</AltitudeMeters>
            <DistanceMeters>NAN</DistanceMeters>
          </Trackpoint>
          <Trackpoint>
            <Time>2022-07-09T17:29:24.000Z</Time>
            <Position>
              <LatitudeDegrees>43.30621560104191303253173828125</LatitudeDegrees>
              <LongitudeDegrees>-2.05648728646337985992431640625</LongitudeDegrees>
            </Position>
            <AltitudeMeters>204.399993896484375</AltitudeMeters>
            <DistanceMeters>NAN</DistanceMeters>
          </Trackpoint>
          <Trackpoint>
            <Time>2022-07-09T17:29:26.000Z</Time>
            <Position>
              <LatitudeDegrees>43.30618567764759063720703125</LatitudeDegrees>
              <LongitudeDegrees>-2.0565091632306575775146484375</LongitudeDegrees>
            </Position>
            <AltitudeMeters>204.600006103515625</AltitudeMeters>
            <DistanceMeters>NAN</DistanceMeters>
          </Trackpoint>
          <Trackpoint>
            <Time>2022-07-09T17:29:28.000Z</Time>
            <Position>
              <LatitudeDegrees>43.30615558661520481109619140625</LatitudeDegrees>
              <LongitudeDegrees>-2.05654126591980457305908203125</LongitudeDegrees>
            </Position>
            <AltitudeMeters>205</AltitudeMeters>
            <DistanceMeters>NAN</DistanceMeters>
          </Trackpoint>
          <Trackpoint>
            <Time>2022-07-09T17:29:29.000Z</Time>
            <Position>
              <LatitudeDegrees>43.30615960992872714996337890625</LatitudeDegrees>
              <LongitudeDegrees>-2.056567668914794921875</LongitudeDegrees>
            </Position>
            <AltitudeMeters>205.1999969482421875</AltitudeMeters>
            <DistanceMeters>NAN</DistanceMeters>
          </Trackpoint>
          <Trackpoint>
            <Time>2022-07-09T17:29:33.000Z</Time>
            <Position>
              <LatitudeDegrees>43.30616011284291744232177734375</LatitudeDegrees>
              <LongitudeDegrees>-2.05663011409342288970947265625</LongitudeDegrees>
            </Position>
            <AltitudeMeters>205.8000030517578125</AltitudeMeters>
            <DistanceMeters>NAN</DistanceMeters>
          </Trackpoint>
          <Trackpoint>
            <Time>2022-07-09T17:29:35.000Z</Time>
            <Position>
              <LatitudeDegrees>43.306140415370464324951171875</LatitudeDegrees>
              <LongitudeDegrees>-2.0566667430102825164794921875</LongitudeDegrees>
            </Position>
            <AltitudeMeters>206.399993896484375</AltitudeMeters>
            <DistanceMeters>NAN</DistanceMeters>
          </Trackpoint>
          <Trackpoint>
            <Time>2022-07-09T17:29:39.000Z</Time>
            <Position>
              <LatitudeDegrees>43.30611552111804485321044921875</LatitudeDegrees>
              <LongitudeDegrees>-2.05674276687204837799072265625</LongitudeDegrees>
            </Position>
            <AltitudeMeters>207</AltitudeMeters>
            <DistanceMeters>NAN</DistanceMeters>
          </Trackpoint>
          <Trackpoint>
            <Time>2022-07-09T17:29:41.000Z</Time>
            <Position>
              <LatitudeDegrees>43.306099511682987213134765625</LatitudeDegrees>
              <LongitudeDegrees>-2.0567760430276393890380859375</LongitudeDegrees>
            </Position>
            <AltitudeMeters>207.1999969482421875</AltitudeMeters>
            <DistanceMeters>NAN</DistanceMeters>
          </Trackpoint>
          <Trackpoint>
            <Time>2022-07-09T17:29:42.000Z</Time>
            <Position>
              <LatitudeDegrees>43.30609607510268688201904296875</LatitudeDegrees>
              <LongitudeDegrees>-2.05679766833782196044921875</LongitudeDegrees>
            </Position>
            <AltitudeMeters>207.399993896484375</AltitudeMeters>
            <DistanceMeters>NAN</DistanceMeters>
          </Trackpoint>
          <Trackpoint>
            <Time>2022-07-09T17:29:47.000Z</Time>
            <Position>
              <LatitudeDegrees>43.30607193522155284881591796875</LatitudeDegrees>
              <LongitudeDegrees>-2.0569071359932422637939453125</LongitudeDegrees>
            </Position>
            <AltitudeMeters>208</AltitudeMeters>
            <DistanceMeters>NAN</DistanceMeters>
          </Trackpoint>
          <Trackpoint>
            <Time>2022-07-09T17:29:49.000Z</Time>
            <Position>
              <LatitudeDegrees>43.3060500584542751312255859375</LatitudeDegrees>
              <LongitudeDegrees>-2.05694175325334072113037109375</LongitudeDegrees>
            </Position>
            <AltitudeMeters>208.1999969482421875</AltitudeMeters>
            <DistanceMeters>NAN</DistanceMeters>
          </Trackpoint>
          <Trackpoint>
            <Time>2022-07-09T17:29:50.000Z</Time>
            <Position>
              <LatitudeDegrees>43.3060423471033573150634765625</LatitudeDegrees>
              <LongitudeDegrees>-2.05696052871644496917724609375</LongitudeDegrees>
            </Position>
            <AltitudeMeters>208.399993896484375</AltitudeMeters>
            <DistanceMeters>NAN</DistanceMeters>
          </Trackpoint>
          <Trackpoint>
            <Time>2022-07-09T17:29:55.000Z</Time>
            <Position>
              <LatitudeDegrees>43.3060074783861637115478515625</LatitudeDegrees>
              <LongitudeDegrees>-2.0570301823318004608154296875</LongitudeDegrees>
            </Position>
            <AltitudeMeters>209</AltitudeMeters>
            <DistanceMeters>NAN</DistanceMeters>
          </Trackpoint>
          <Trackpoint>
            <Time>2022-07-09T17:29:56.000Z</Time>
            <Position>
              <LatitudeDegrees>43.30599348060786724090576171875</LatitudeDegrees>
              <LongitudeDegrees>-2.05703764222562313079833984375</LongitudeDegrees>
            </Position>
            <AltitudeMeters>209</AltitudeMeters>
            <DistanceMeters>NAN</DistanceMeters>
          </Trackpoint>
          <Trackpoint>
            <Time>2022-07-09T17:29:57.000Z</Time>
            <Position>
              <LatitudeDegrees>43.3059860207140445709228515625</LatitudeDegrees>
              <LongitudeDegrees>-2.05705692060291767120361328125</LongitudeDegrees>
            </Position>
            <AltitudeMeters>209.1999969482421875</AltitudeMeters>
            <DistanceMeters>NAN</DistanceMeters>
          </Trackpoint>
          <Trackpoint>
            <Time>2022-07-09T17:29:58.000Z</Time>
            <Position>
              <LatitudeDegrees>43.30598493106663227081298828125</LatitudeDegrees>
              <LongitudeDegrees>-2.057078294456005096435546875</LongitudeDegrees>
            </Position>
            <AltitudeMeters>209.399993896484375</AltitudeMeters>
            <DistanceMeters>NAN</DistanceMeters>
          </Trackpoint>
          <Trackpoint>
            <Time>2022-07-09T17:29:59.000Z</Time>
            <Position>
              <LatitudeDegrees>43.30597621388733386993408203125</LatitudeDegrees>
              <LongitudeDegrees>-2.05709229223430156707763671875</LongitudeDegrees>
            </Position>
            <AltitudeMeters>209.600006103515625</AltitudeMeters>
            <DistanceMeters>NAN</DistanceMeters>
          </Trackpoint>
          <Trackpoint>
            <Time>2022-07-09T17:30:00.000Z</Time>
            <Position>
              <LatitudeDegrees>43.30596347339451313018798828125</LatitudeDegrees>
              <LongitudeDegrees>-2.05710637383162975311279296875</LongitudeDegrees>
            </Position>
            <AltitudeMeters>209.600006103515625</AltitudeMeters>
            <DistanceMeters>NAN</DistanceMeters>
          </Trackpoint>
          <Trackpoint>
            <Time>2022-07-09T17:30:07.000Z</Time>
            <Position>
              <LatitudeDegrees>43.3058995194733142852783203125</LatitudeDegrees>
              <LongitudeDegrees>-2.05721600912511348724365234375</LongitudeDegrees>
            </Position>
            <AltitudeMeters>210.600006103515625</AltitudeMeters>
            <DistanceMeters>NAN</DistanceMeters>
          </Trackpoint>
          <Trackpoint>
            <Time>2022-07-09T17:30:09.000Z</Time>
            <Position>
              <LatitudeDegrees>43.305881582200527191162109375</LatitudeDegrees>
              <LongitudeDegrees>-2.0572524704039096832275390625</LongitudeDegrees>
            </Position>
            <AltitudeMeters>210.8000030517578125</AltitudeMeters>
            <DistanceMeters>NAN</DistanceMeters>
          </Trackpoint>
          <Trackpoint>
            <Time>2022-07-09T17:30:14.000Z</Time>
            <Position>
              <LatitudeDegrees>43.30584235489368438720703125</LatitudeDegrees>
              <LongitudeDegrees>-2.0573520474135875701904296875</LongitudeDegrees>
            </Position>
            <AltitudeMeters>211.600006103515625</AltitudeMeters>
            <DistanceMeters>NAN</DistanceMeters>
          </Trackpoint>
          <Trackpoint>
            <Time>2022-07-09T17:30:15.000Z</Time>
            <Position>
              <LatitudeDegrees>43.3058324642479419708251953125</LatitudeDegrees>
              <LongitudeDegrees>-2.05738364718854427337646484375</LongitudeDegrees>
            </Position>
            <AltitudeMeters>211.600006103515625</AltitudeMeters>
            <DistanceMeters>NAN</DistanceMeters>
          </Trackpoint>
          <Trackpoint>
            <Time>2022-07-09T17:30:22.000Z</Time>
            <Position>
              <LatitudeDegrees>43.30576457083225250244140625</LatitudeDegrees>
              <LongitudeDegrees>-2.057530581951141357421875</LongitudeDegrees>
            </Position>
            <AltitudeMeters>212</AltitudeMeters>
            <DistanceMeters>NAN</DistanceMeters>
          </Trackpoint>
          <Trackpoint>
            <Time>2022-07-09T17:30:27.000Z</Time>
            <Position>
              <LatitudeDegrees>43.30574671737849712371826171875</LatitudeDegrees>
              <LongitudeDegrees>-2.05761129967868328094482421875</LongitudeDegrees>
            </Position>
            <AltitudeMeters>212.399993896484375</AltitudeMeters>
            <DistanceMeters>NAN</DistanceMeters>
          </Trackpoint>
          <Trackpoint>
            <Time>2022-07-09T17:30:28.000Z</Time>
            <Position>
              <LatitudeDegrees>43.305737078189849853515625</LatitudeDegrees>
              <LongitudeDegrees>-2.05763183534145355224609375</LongitudeDegrees>
            </Position>
            <AltitudeMeters>212.600006103515625</AltitudeMeters>
            <DistanceMeters>NAN</DistanceMeters>
          </Trackpoint>
          <Trackpoint>
            <Time>2022-07-09T17:30:29.000Z</Time>
            <Position>
              <LatitudeDegrees>43.305721320211887359619140625</LatitudeDegrees>
              <LongitudeDegrees>-2.05764801241457462310791015625</LongitudeDegrees>
            </Position>
            <AltitudeMeters>212.600006103515625</AltitudeMeters>
            <DistanceMeters>NAN</DistanceMeters>
          </Trackpoint>
          <Trackpoint>
            <Time>2022-07-09T17:30:32.000Z</Time>
            <Position>
              <LatitudeDegrees>43.30569458194077014923095703125</LatitudeDegrees>
              <LongitudeDegrees>-2.0576893351972103118896484375</LongitudeDegrees>
            </Position>
            <AltitudeMeters>213</AltitudeMeters>
            <DistanceMeters>NAN</DistanceMeters>
          </Trackpoint>
          <Trackpoint>
            <Time>2022-07-09T17:30:35.000Z</Time>
            <Position>
              <LatitudeDegrees>43.30567614175379276275634765625</LatitudeDegrees>
              <LongitudeDegrees>-2.05773719586431980133056640625</LongitudeDegrees>
            </Position>
            <AltitudeMeters>213.600006103515625</AltitudeMeters>
            <DistanceMeters>NAN</DistanceMeters>
          </Trackpoint>
          <Trackpoint>
            <Time>2022-07-09T17:30:41.000Z</Time>
            <Position>
              <LatitudeDegrees>43.30563582479953765869140625</LatitudeDegrees>
              <LongitudeDegrees>-2.057830654084682464599609375</LongitudeDegrees>
            </Position>
            <AltitudeMeters>214.600006103515625</AltitudeMeters>
            <DistanceMeters>NAN</DistanceMeters>
          </Trackpoint>
          <Trackpoint>
            <Time>2022-07-09T17:30:42.000Z</Time>
            <Position>
              <LatitudeDegrees>43.305633477866649627685546875</LatitudeDegrees>
              <LongitudeDegrees>-2.05783836543560028076171875</LongitudeDegrees>
            </Position>
            <AltitudeMeters>214.600006103515625</AltitudeMeters>
            <DistanceMeters>NAN</DistanceMeters>
          </Trackpoint>
          <Trackpoint>
            <Time>2022-07-09T17:30:46.000Z</Time>
            <Position>
              <LatitudeDegrees>43.30560439266264438629150390625</LatitudeDegrees>
              <LongitudeDegrees>-2.05790030770003795623779296875</LongitudeDegrees>
            </Position>
            <AltitudeMeters>215.600006103515625</AltitudeMeters>
            <DistanceMeters>NAN</DistanceMeters>
          </Trackpoint>
          <Trackpoint>
            <Time>2022-07-09T17:30:47.000Z</Time>
            <Position>
              <LatitudeDegrees>43.3056068234145641326904296875</LatitudeDegrees>
              <LongitudeDegrees>-2.05791908316314220428466796875</LongitudeDegrees>
            </Position>
            <AltitudeMeters>215.8000030517578125</AltitudeMeters>
            <DistanceMeters>NAN</DistanceMeters>
          </Trackpoint>
          <Trackpoint>
            <Time>2022-07-09T17:30:48.000Z</Time>
            <Position>
              <LatitudeDegrees>43.30560070462524890899658203125</LatitudeDegrees>
              <LongitudeDegrees>-2.05793366767466068267822265625</LongitudeDegrees>
            </Position>
            <AltitudeMeters>216</AltitudeMeters>
            <DistanceMeters>NAN</DistanceMeters>
          </Trackpoint>
          <Trackpoint>
            <Time>2022-07-09T17:30:53.000Z</Time>
            <Position>
              <LatitudeDegrees>43.30558042041957378387451171875</LatitudeDegrees>
              <LongitudeDegrees>-2.058021090924739837646484375</LongitudeDegrees>
            </Position>
            <AltitudeMeters>216.399993896484375</AltitudeMeters>
            <DistanceMeters>NAN</DistanceMeters>
          </Trackpoint>
          <Trackpoint>
            <Time>2022-07-09T17:30:54.000Z</Time>
            <Position>
              <LatitudeDegrees>43.30556969158351421356201171875</LatitudeDegrees>
              <LongitudeDegrees>-2.05803810618817806243896484375</LongitudeDegrees>
            </Position>
            <AltitudeMeters>216.600006103515625</AltitudeMeters>
            <DistanceMeters>NAN</DistanceMeters>
          </Trackpoint>
          <Trackpoint>
            <Time>2022-07-09T17:30:55.000Z</Time>
            <Position>
              <LatitudeDegrees>43.30557547509670257568359375</LatitudeDegrees>
              <LongitudeDegrees>-2.058058641850948333740234375</LongitudeDegrees>
            </Position>
            <AltitudeMeters>216.600006103515625</AltitudeMeters>
            <DistanceMeters>NAN</DistanceMeters>
          </Trackpoint>
          <Trackpoint>
            <Time>2022-07-09T17:30:57.000Z</Time>
            <Position>
              <LatitudeDegrees>43.30555963329970836639404296875</LatitudeDegrees>
              <LongitudeDegrees>-2.058095522224903106689453125</LongitudeDegrees>
            </Position>
            <AltitudeMeters>216.8000030517578125</AltitudeMeters>
            <DistanceMeters>NAN</DistanceMeters>
          </Trackpoint>
          <Trackpoint>
            <Time>2022-07-09T17:31:00.000Z</Time>
            <Position>
              <LatitudeDegrees>43.30552929081022739410400390625</LatitudeDegrees>
              <LongitudeDegrees>-2.05813349224627017974853515625</LongitudeDegrees>
            </Position>
            <AltitudeMeters>217</AltitudeMeters>
            <DistanceMeters>NAN</DistanceMeters>
          </Trackpoint>
          <Trackpoint>
            <Time>2022-07-09T17:31:07.000Z</Time>
            <Position>
              <LatitudeDegrees>43.3054918237030506134033203125</LatitudeDegrees>
              <LongitudeDegrees>-2.05824279226362705230712890625</LongitudeDegrees>
            </Position>
            <AltitudeMeters>218</AltitudeMeters>
            <DistanceMeters>NAN</DistanceMeters>
          </Trackpoint>
          <Trackpoint>
            <Time>2022-07-09T17:31:08.000Z</Time>
            <Position>
              <LatitudeDegrees>43.3054881356656551361083984375</LatitudeDegrees>
              <LongitudeDegrees>-2.05826056189835071563720703125</LongitudeDegrees>
            </Position>
            <AltitudeMeters>218.399993896484375</AltitudeMeters>
            <DistanceMeters>NAN</DistanceMeters>
          </Trackpoint>
          <Trackpoint>
            <Time>2022-07-09T17:31:09.000Z</Time>
            <Position>
              <LatitudeDegrees>43.30548989586532115936279296875</LatitudeDegrees>
              <LongitudeDegrees>-2.05827883444726467132568359375</LongitudeDegrees>
            </Position>
            <AltitudeMeters>218.399993896484375</AltitudeMeters>
            <DistanceMeters>NAN</DistanceMeters>
          </Trackpoint>
          <Trackpoint>
            <Time>2022-07-09T17:31:11.000Z</Time>
            <Position>
              <LatitudeDegrees>43.3054878003895282745361328125</LatitudeDegrees>
              <LongitudeDegrees>-2.05831672064960002899169921875</LongitudeDegrees>
            </Position>
            <AltitudeMeters>218.600006103515625</AltitudeMeters>
            <DistanceMeters>NAN</DistanceMeters>
          </Trackpoint>
          <Trackpoint>
            <Time>2022-07-09T17:31:13.000Z</Time>
            <Position>
              <LatitudeDegrees>43.30548553727567195892333984375</LatitudeDegrees>
              <LongitudeDegrees>-2.0583541877567768096923828125</LongitudeDegrees>
            </Position>
            <AltitudeMeters>218.8000030517578125</AltitudeMeters>
            <DistanceMeters>NAN</DistanceMeters>
          </Trackpoint>
          <Trackpoint>
            <Time>2022-07-09T17:31:18.000Z</Time>
            <Position>
              <LatitudeDegrees>43.30548830330371856689453125</LatitudeDegrees>
              <LongitudeDegrees>-2.05845954827964305877685546875</LongitudeDegrees>
            </Position>
            <AltitudeMeters>219</AltitudeMeters>
            <DistanceMeters>NAN</DistanceMeters>
          </Trackpoint>
          <Trackpoint>
            <Time>2022-07-09T17:31:19.000Z</Time>
            <Position>
              <LatitudeDegrees>43.305493332445621490478515625</LatitudeDegrees>
              <LongitudeDegrees>-2.05848217941820621490478515625</LongitudeDegrees>
            </Position>
            <AltitudeMeters>219.1999969482421875</AltitudeMeters>
            <DistanceMeters>NAN</DistanceMeters>
          </Trackpoint>
          <Trackpoint>
            <Time>2022-07-09T17:31:21.000Z</Time>
            <Position>
              <LatitudeDegrees>43.30550665967166423797607421875</LatitudeDegrees>
              <LongitudeDegrees>-2.0585184730589389801025390625</LongitudeDegrees>
            </Position>
            <AltitudeMeters>219.399993896484375</AltitudeMeters>
            <DistanceMeters>NAN</DistanceMeters>
          </Trackpoint>
          <Trackpoint>
            <Time>2022-07-09T17:31:22.000Z</Time>
            <Position>
              <LatitudeDegrees>43.305504061281681060791015625</LatitudeDegrees>
              <LongitudeDegrees>-2.05853641033172607421875</LongitudeDegrees>
            </Position>
            <AltitudeMeters>219.600006103515625</AltitudeMeters>
            <DistanceMeters>NAN</DistanceMeters>
          </Trackpoint>
          <Trackpoint>
            <Time>2022-07-09T17:31:24.000Z</Time>
            <Position>
              <LatitudeDegrees>43.305492661893367767333984375</LatitudeDegrees>
              <LongitudeDegrees>-2.0585613884031772613525390625</LongitudeDegrees>
            </Position>
            <AltitudeMeters>220</AltitudeMeters>
            <DistanceMeters>NAN</DistanceMeters>
          </Trackpoint>
          <Trackpoint>
            <Time>2022-07-09T17:31:25.000Z</Time>
            <Position>
              <LatitudeDegrees>43.30549224279820919036865234375</LatitudeDegrees>
              <LongitudeDegrees>-2.058590389788150787353515625</LongitudeDegrees>
            </Position>
            <AltitudeMeters>220</AltitudeMeters>
            <DistanceMeters>NAN</DistanceMeters>
          </Trackpoint>
          <Trackpoint>
            <Time>2022-07-09T17:31:26.000Z</Time>
            <Position>
              <LatitudeDegrees>43.3054904825985431671142578125</LatitudeDegrees>
              <LongitudeDegrees>-2.05861159600317478179931640625</LongitudeDegrees>
            </Position>
            <AltitudeMeters>220.1999969482421875</AltitudeMeters>
            <DistanceMeters>NAN</DistanceMeters>
          </Trackpoint>
          <Trackpoint>
            <Time>2022-07-09T17:31:30.000Z</Time>
            <Position>
              <LatitudeDegrees>43.30546508543193340301513671875</LatitudeDegrees>
              <LongitudeDegrees>-2.0587025396525859832763671875</LongitudeDegrees>
            </Position>
            <AltitudeMeters>220.600006103515625</AltitudeMeters>
            <DistanceMeters>NAN</DistanceMeters>
          </Trackpoint>
          <Trackpoint>
            <Time>2022-07-09T17:31:32.000Z</Time>
            <Position>
              <LatitudeDegrees>43.30545117147266864776611328125</LatitudeDegrees>
              <LongitudeDegrees>-2.05874386243522167205810546875</LongitudeDegrees>
            </Position>
            <AltitudeMeters>221</AltitudeMeters>
            <DistanceMeters>NAN</DistanceMeters>
          </Trackpoint>
          <Trackpoint>
            <Time>2022-07-09T17:31:33.000Z</Time>
            <Position>
              <LatitudeDegrees>43.30544932745397090911865234375</LatitudeDegrees>
              <LongitudeDegrees>-2.05876699648797512054443359375</LongitudeDegrees>
            </Position>
            <AltitudeMeters>221</AltitudeMeters>
            <DistanceMeters>NAN</DistanceMeters>
          </Trackpoint>
          <Trackpoint>
            <Time>2022-07-09T17:31:34.000Z</Time>
            <Position>
              <LatitudeDegrees>43.30544195137917995452880859375</LatitudeDegrees>
              <LongitudeDegrees>-2.05877973698079586029052734375</LongitudeDegrees>
            </Position>
            <AltitudeMeters>221.1999969482421875</AltitudeMeters>
            <DistanceMeters>NAN</DistanceMeters>
          </Trackpoint>
          <Trackpoint>
            <Time>2022-07-09T17:31:38.000Z</Time>
            <Position>
              <LatitudeDegrees>43.30543507821857929229736328125</LatitudeDegrees>
              <LongitudeDegrees>-2.05887277610599994659423828125</LongitudeDegrees>
            </Position>
            <AltitudeMeters>221.600006103515625</AltitudeMeters>
            <DistanceMeters>NAN</DistanceMeters>
          </Trackpoint>
          <Trackpoint>
            <Time>2022-07-09T17:31:41.000Z</Time>
            <Position>
              <LatitudeDegrees>43.3054244332015514373779296875</LatitudeDegrees>
              <LongitudeDegrees>-2.05893614329397678375244140625</LongitudeDegrees>
            </Position>
            <AltitudeMeters>221.8000030517578125</AltitudeMeters>
            <DistanceMeters>NAN</DistanceMeters>
          </Trackpoint>
          <Trackpoint>
            <Time>2022-07-09T17:31:44.000Z</Time>
            <Position>
              <LatitudeDegrees>43.305417560040950775146484375</LatitudeDegrees>
              <LongitudeDegrees>-2.0589910447597503662109375</LongitudeDegrees>
            </Position>
            <AltitudeMeters>222.1999969482421875</AltitudeMeters>
            <DistanceMeters>NAN</DistanceMeters>
          </Trackpoint>
          <Trackpoint>
            <Time>2022-07-09T17:31:45.000Z</Time>
            <Position>
              <LatitudeDegrees>43.3054093457758426666259765625</LatitudeDegrees>
              <LongitudeDegrees>-2.05900521017611026763916015625</LongitudeDegrees>
            </Position>
            <AltitudeMeters>222.1999969482421875</AltitudeMeters>
            <DistanceMeters>NAN</DistanceMeters>
          </Trackpoint>
          <Trackpoint>
            <Time>2022-07-09T17:31:47.000Z</Time>
            <Position>
              <LatitudeDegrees>43.30539970658719539642333984375</LatitudeDegrees>
              <LongitudeDegrees>-2.0590361393988132476806640625</LongitudeDegrees>
            </Position>
            <AltitudeMeters>222.399993896484375</AltitudeMeters>
            <DistanceMeters>NAN</DistanceMeters>
          </Trackpoint>
          <Trackpoint>
            <Time>2022-07-09T17:31:49.000Z</Time>
            <Position>
              <LatitudeDegrees>43.30540113151073455810546875</LatitudeDegrees>
              <LongitudeDegrees>-2.05906438641250133514404296875</LongitudeDegrees>
            </Position>
            <AltitudeMeters>222.600006103515625</AltitudeMeters>
            <DistanceMeters>NAN</DistanceMeters>
          </Trackpoint>
          <Trackpoint>
            <Time>2022-07-09T17:31:51.000Z</Time>
            <Position>
              <LatitudeDegrees>43.30538797192275524139404296875</LatitudeDegrees>
              <LongitudeDegrees>-2.05910059623420238494873046875</LongitudeDegrees>
            </Position>
            <AltitudeMeters>222.8000030517578125</AltitudeMeters>
            <DistanceMeters>NAN</DistanceMeters>
          </Trackpoint>
          <Trackpoint>
            <Time>2022-07-09T17:31:54.000Z</Time>
            <Position>
              <LatitudeDegrees>43.3053704537451267242431640625</LatitudeDegrees>
              <LongitudeDegrees>-2.0591571740806102752685546875</LongitudeDegrees>
            </Position>
            <AltitudeMeters>223.399993896484375</AltitudeMeters>
            <DistanceMeters>NAN</DistanceMeters>
          </Trackpoint>
          <Trackpoint>
            <Time>2022-07-09T17:31:56.000Z</Time>
            <Position>
              <LatitudeDegrees>43.3053681068122386932373046875</LatitudeDegrees>
              <LongitudeDegrees>-2.05916949547827243804931640625</LongitudeDegrees>
            </Position>
            <AltitudeMeters>223.600006103515625</AltitudeMeters>
            <DistanceMeters>NAN</DistanceMeters>
          </Trackpoint>
          <Trackpoint>
            <Time>2022-07-09T17:32:00.000Z</Time>
            <Position>
              <LatitudeDegrees>43.3053513430058956146240234375</LatitudeDegrees>
              <LongitudeDegrees>-2.05923152156174182891845703125</LongitudeDegrees>
            </Position>
            <AltitudeMeters>224</AltitudeMeters>
            <DistanceMeters>NAN</DistanceMeters>
          </Trackpoint>
          <Trackpoint>
            <Time>2022-07-09T17:32:02.000Z</Time>
            <Position>
              <LatitudeDegrees>43.3053334057331085205078125</LatitudeDegrees>
              <LongitudeDegrees>-2.0592601038515567779541015625</LongitudeDegrees>
            </Position>
            <AltitudeMeters>224.1999969482421875</AltitudeMeters>
            <DistanceMeters>NAN</DistanceMeters>
          </Trackpoint>
          <Trackpoint>
            <Time>2022-07-09T17:32:04.000Z</Time>
            <Position>
              <LatitudeDegrees>43.30532661639153957366943359375</LatitudeDegrees>
              <LongitudeDegrees>-2.05930821597576141357421875</LongitudeDegrees>
            </Position>
            <AltitudeMeters>224.1999969482421875</AltitudeMeters>
            <DistanceMeters>NAN</DistanceMeters>
          </Trackpoint>
          <Trackpoint>
            <Time>2022-07-09T17:32:05.000Z</Time>
            <Position>
              <LatitudeDegrees>43.3053339086472988128662109375</LatitudeDegrees>
              <LongitudeDegrees>-2.059336043894290924072265625</LongitudeDegrees>
            </Position>
            <AltitudeMeters>224.1999969482421875</AltitudeMeters>
            <DistanceMeters>NAN</DistanceMeters>
          </Trackpoint>
          <Trackpoint>
            <Time>2022-07-09T17:32:07.000Z</Time>
            <Position>
              <LatitudeDegrees>43.30536014400422573089599609375</LatitudeDegrees>
              <LongitudeDegrees>-2.05938692204654216766357421875</LongitudeDegrees>
            </Position>
            <AltitudeMeters>224.399993896484375</AltitudeMeters>
            <DistanceMeters>NAN</DistanceMeters>
          </Trackpoint>
          <Trackpoint>
            <Time>2022-07-09T17:32:08.000Z</Time>
            <Position>
              <LatitudeDegrees>43.305358551442623138427734375</LatitudeDegrees>
              <LongitudeDegrees>-2.05941156484186649322509765625</LongitudeDegrees>
            </Position>
            <AltitudeMeters>224.600006103515625</AltitudeMeters>
            <DistanceMeters>NAN</DistanceMeters>
          </Trackpoint>
          <Trackpoint>
            <Time>2022-07-09T17:32:12.000Z</Time>
            <Position>
              <LatitudeDegrees>43.30535813234746456146240234375</LatitudeDegrees>
              <LongitudeDegrees>-2.05952153541147708892822265625</LongitudeDegrees>
            </Position>
            <AltitudeMeters>225</AltitudeMeters>
            <DistanceMeters>NAN</DistanceMeters>
          </Trackpoint>
          <Trackpoint>
            <Time>2022-07-09T17:32:15.000Z</Time>
            <Position>
              <LatitudeDegrees>43.3053412847220897674560546875</LatitudeDegrees>
              <LongitudeDegrees>-2.0595806278288364410400390625</LongitudeDegrees>
            </Position>
            <AltitudeMeters>225.1999969482421875</AltitudeMeters>
            <DistanceMeters>NAN</DistanceMeters>
          </Trackpoint>
          <Trackpoint>
            <Time>2022-07-09T17:32:16.000Z</Time>
            <Position>
              <LatitudeDegrees>43.30533675849437713623046875</LatitudeDegrees>
              <LongitudeDegrees>-2.05959915183484554290771484375</LongitudeDegrees>
            </Position>
            <AltitudeMeters>225.1999969482421875</AltitudeMeters>
            <DistanceMeters>NAN</DistanceMeters>
          </Trackpoint>
          <Trackpoint>
            <Time>2022-07-09T17:32:18.000Z</Time>
            <Position>
              <LatitudeDegrees>43.30533684231340885162353515625</LatitudeDegrees>
              <LongitudeDegrees>-2.05963720567524433135986328125</LongitudeDegrees>
            </Position>
            <AltitudeMeters>225.399993896484375</AltitudeMeters>
            <DistanceMeters>NAN</DistanceMeters>
          </Trackpoint>
          <Trackpoint>
            <Time>2022-07-09T17:32:20.000Z</Time>
            <Position>
              <LatitudeDegrees>43.30533231608569622039794921875</LatitudeDegrees>
              <LongitudeDegrees>-2.05967308022081851959228515625</LongitudeDegrees>
            </Position>
            <AltitudeMeters>225.8000030517578125</AltitudeMeters>
            <DistanceMeters>NAN</DistanceMeters>
          </Trackpoint>
          <Trackpoint>
            <Time>2022-07-09T17:32:25.000Z</Time>
            <Position>
              <LatitudeDegrees>43.3052930049598217010498046875</LatitudeDegrees>
              <LongitudeDegrees>-2.05975706689059734344482421875</LongitudeDegrees>
            </Position>
            <AltitudeMeters>226.399993896484375</AltitudeMeters>
            <DistanceMeters>NAN</DistanceMeters>
          </Trackpoint>
          <Trackpoint>
            <Time>2022-07-09T17:32:27.000Z</Time>
            <Position>
              <LatitudeDegrees>43.30527682788670063018798828125</LatitudeDegrees>
              <LongitudeDegrees>-2.05979361198842525482177734375</LongitudeDegrees>
            </Position>
            <AltitudeMeters>226.600006103515625</AltitudeMeters>
            <DistanceMeters>NAN</DistanceMeters>
          </Trackpoint>
          <Trackpoint>
            <Time>2022-07-09T17:32:29.000Z</Time>
            <Position>
              <LatitudeDegrees>43.3052487485110759735107421875</LatitudeDegrees>
              <LongitudeDegrees>-2.0598344318568706512451171875</LongitudeDegrees>
            </Position>
            <AltitudeMeters>227.1999969482421875</AltitudeMeters>
            <DistanceMeters>NAN</DistanceMeters>
          </Trackpoint>
          <Trackpoint>
            <Time>2022-07-09T17:32:31.000Z</Time>
            <Position>
              <LatitudeDegrees>43.30522947013378143310546875</LatitudeDegrees>
              <LongitudeDegrees>-2.0598679594695568084716796875</LongitudeDegrees>
            </Position>
            <AltitudeMeters>227.600006103515625</AltitudeMeters>
            <DistanceMeters>NAN</DistanceMeters>
          </Trackpoint>
          <Trackpoint>
            <Time>2022-07-09T17:32:35.000Z</Time>
            <Position>
              <LatitudeDegrees>43.30519191920757293701171875</LatitudeDegrees>
              <LongitudeDegrees>-2.0599229447543621063232421875</LongitudeDegrees>
            </Position>
            <AltitudeMeters>228</AltitudeMeters>
            <DistanceMeters>NAN</DistanceMeters>
          </Trackpoint>
          <Trackpoint>
            <Time>2022-07-09T17:32:38.000Z</Time>
            <Position>
              <LatitudeDegrees>43.3051666058599948883056640625</LatitudeDegrees>
              <LongitudeDegrees>-2.05997600220143795013427734375</LongitudeDegrees>
            </Position>
            <AltitudeMeters>228.1999969482421875</AltitudeMeters>
            <DistanceMeters>NAN</DistanceMeters>
          </Trackpoint>
          <Trackpoint>
            <Time>2022-07-09T17:32:41.000Z</Time>
            <Position>
              <LatitudeDegrees>43.30514171160757541656494140625</LatitudeDegrees>
              <LongitudeDegrees>-2.060032077133655548095703125</LongitudeDegrees>
            </Position>
            <AltitudeMeters>228.399993896484375</AltitudeMeters>
            <DistanceMeters>NAN</DistanceMeters>
          </Trackpoint>
          <Trackpoint>
            <Time>2022-07-09T17:32:44.000Z</Time>
            <Position>
              <LatitudeDegrees>43.3051146380603313446044921875</LatitudeDegrees>
              <LongitudeDegrees>-2.06009653396904468536376953125</LongitudeDegrees>
            </Position>
            <AltitudeMeters>228.600006103515625</AltitudeMeters>
            <DistanceMeters>NAN</DistanceMeters>
          </Trackpoint>
          <Trackpoint>
            <Time>2022-07-09T17:32:49.000Z</Time>
            <Position>
              <LatitudeDegrees>43.30509292893111705780029296875</LatitudeDegrees>
              <LongitudeDegrees>-2.06019829027354717254638671875</LongitudeDegrees>
            </Position>
            <AltitudeMeters>229</AltitudeMeters>
            <DistanceMeters>NAN</DistanceMeters>
          </Trackpoint>
          <Trackpoint>
            <Time>2022-07-09T17:32:56.000Z</Time>
            <Position>
              <LatitudeDegrees>43.3050298132002353668212890625</LatitudeDegrees>
              <LongitudeDegrees>-2.0604191534221172332763671875</LongitudeDegrees>
            </Position>
            <AltitudeMeters>228.8000030517578125</AltitudeMeters>
            <DistanceMeters>NAN</DistanceMeters>
          </Trackpoint>
          <Trackpoint>
            <Time>2022-07-09T17:32:59.000Z</Time>
            <Position>
              <LatitudeDegrees>43.30498077906668186187744140625</LatitudeDegrees>
              <LongitudeDegrees>-2.060568518936634063720703125</LongitudeDegrees>
            </Position>
            <AltitudeMeters>228.399993896484375</AltitudeMeters>
            <DistanceMeters>NAN</DistanceMeters>
          </Trackpoint>
          <Trackpoint>
            <Time>2022-07-09T17:33:01.000Z</Time>
            <Position>
              <LatitudeDegrees>43.30493015237152576446533203125</LatitudeDegrees>
              <LongitudeDegrees>-2.0606799982488155364990234375</LongitudeDegrees>
            </Position>
            <AltitudeMeters>228.1999969482421875</AltitudeMeters>
            <DistanceMeters>NAN</DistanceMeters>
          </Trackpoint>
          <Trackpoint>
            <Time>2022-07-09T17:33:03.000Z</Time>
            <Position>
              <LatitudeDegrees>43.30487516708672046661376953125</LatitudeDegrees>
              <LongitudeDegrees>-2.06079206429421901702880859375</LongitudeDegrees>
            </Position>
            <AltitudeMeters>228.1999969482421875</AltitudeMeters>
            <DistanceMeters>NAN</DistanceMeters>
          </Trackpoint>
          <Trackpoint>
            <Time>2022-07-09T17:33:06.000Z</Time>
            <Position>
              <LatitudeDegrees>43.304803334176540374755859375</LatitudeDegrees>
              <LongitudeDegrees>-2.06095986999571323394775390625</LongitudeDegrees>
            </Position>
            <AltitudeMeters>228</AltitudeMeters>
            <DistanceMeters>NAN</DistanceMeters>
          </Trackpoint>
          <Trackpoint>
            <Time>2022-07-09T17:33:07.000Z</Time>
            <Position>
              <LatitudeDegrees>43.3047887496650218963623046875</LatitudeDegrees>
              <LongitudeDegrees>-2.06101141870021820068359375</LongitudeDegrees>
            </Position>
            <AltitudeMeters>228</AltitudeMeters>
            <DistanceMeters>NAN</DistanceMeters>
          </Trackpoint>
          <Trackpoint>
            <Time>2022-07-09T17:33:08.000Z</Time>
            <Position>
              <LatitudeDegrees>43.30478020012378692626953125</LatitudeDegrees>
              <LongitudeDegrees>-2.06105793826282024383544921875</LongitudeDegrees>
            </Position>
            <AltitudeMeters>228</AltitudeMeters>
            <DistanceMeters>NAN</DistanceMeters>
          </Trackpoint>
          <Trackpoint>
            <Time>2022-07-09T17:33:12.000Z</Time>
            <Position>
              <LatitudeDegrees>43.3048023283481597900390625</LatitudeDegrees>
              <LongitudeDegrees>-2.061176709830760955810546875</LongitudeDegrees>
            </Position>
            <AltitudeMeters>228.1999969482421875</AltitudeMeters>
            <DistanceMeters>NAN</DistanceMeters>
          </Trackpoint>
          <Trackpoint>
            <Time>2022-07-09T17:33:17.000Z</Time>
            <Position>
              <LatitudeDegrees>43.304862342774868011474609375</LatitudeDegrees>
              <LongitudeDegrees>-2.06125281751155853271484375</LongitudeDegrees>
            </Position>
            <AltitudeMeters>229</AltitudeMeters>
            <DistanceMeters>NAN</DistanceMeters>
          </Trackpoint>
          <Trackpoint>
            <Time>2022-07-09T17:33:18.000Z</Time>
            <Position>
              <LatitudeDegrees>43.304876424372196197509765625</LatitudeDegrees>
              <LongitudeDegrees>-2.06126262433826923370361328125</LongitudeDegrees>
            </Position>
            <AltitudeMeters>229.1999969482421875</AltitudeMeters>
            <DistanceMeters>NAN</DistanceMeters>
          </Trackpoint>
          <Trackpoint>
            <Time>2022-07-09T17:33:20.000Z</Time>
            <Position>
              <LatitudeDegrees>43.3049131371080875396728515625</LatitudeDegrees>
              <LongitudeDegrees>-2.0612818188965320587158203125</LongitudeDegrees>
            </Position>
            <AltitudeMeters>229.600006103515625</AltitudeMeters>
            <DistanceMeters>NAN</DistanceMeters>
          </Trackpoint>
          <Trackpoint>
            <Time>2022-07-09T17:33:22.000Z</Time>
            <Position>
              <LatitudeDegrees>43.30494892783463001251220703125</LatitudeDegrees>
              <LongitudeDegrees>-2.06130788661539554595947265625</LongitudeDegrees>
            </Position>
            <AltitudeMeters>230.1999969482421875</AltitudeMeters>
            <DistanceMeters>NAN</DistanceMeters>
          </Trackpoint>
          <Trackpoint>
            <Time>2022-07-09T17:33:24.000Z</Time>
            <Position>
              <LatitudeDegrees>43.30498932860791683197021484375</LatitudeDegrees>
              <LongitudeDegrees>-2.06133035011589527130126953125</LongitudeDegrees>
            </Position>
            <AltitudeMeters>230.8000030517578125</AltitudeMeters>
            <DistanceMeters>NAN</DistanceMeters>
          </Trackpoint>
          <Trackpoint>
            <Time>2022-07-09T17:33:28.000Z</Time>
            <Position>
              <LatitudeDegrees>43.3050284720957279205322265625</LatitudeDegrees>
              <LongitudeDegrees>-2.06139069981873035430908203125</LongitudeDegrees>
            </Position>
            <AltitudeMeters>231.8000030517578125</AltitudeMeters>
            <DistanceMeters>NAN</DistanceMeters>
          </Trackpoint>
          <Trackpoint>
            <Time>2022-07-09T17:33:29.000Z</Time>
            <Position>
              <LatitudeDegrees>43.30502067692577838897705078125</LatitudeDegrees>
              <LongitudeDegrees>-2.0614082179963588714599609375</LongitudeDegrees>
            </Position>
            <AltitudeMeters>232</AltitudeMeters>
            <DistanceMeters>NAN</DistanceMeters>
          </Trackpoint>
          <Trackpoint>
            <Time>2022-07-09T17:33:30.000Z</Time>
            <Position>
              <LatitudeDegrees>43.3050117082893848419189453125</LatitudeDegrees>
              <LongitudeDegrees>-2.06142690964043140411376953125</LongitudeDegrees>
            </Position>
            <AltitudeMeters>232.1999969482421875</AltitudeMeters>
            <DistanceMeters>NAN</DistanceMeters>
          </Trackpoint>
          <Trackpoint>
            <Time>2022-07-09T17:33:31.000Z</Time>
            <Position>
              <LatitudeDegrees>43.30500273965299129486083984375</LatitudeDegrees>
              <LongitudeDegrees>-2.06144803203642368316650390625</LongitudeDegrees>
            </Position>
            <AltitudeMeters>232.399993896484375</AltitudeMeters>
            <DistanceMeters>NAN</DistanceMeters>
          </Trackpoint>
          <Trackpoint>
            <Time>2022-07-09T17:33:34.000Z</Time>
            <Position>
              <LatitudeDegrees>43.3050061762332916259765625</LatitudeDegrees>
              <LongitudeDegrees>-2.0615007542073726654052734375</LongitudeDegrees>
            </Position>
            <AltitudeMeters>232.600006103515625</AltitudeMeters>
            <DistanceMeters>NAN</DistanceMeters>
          </Trackpoint>
          <Trackpoint>
            <Time>2022-07-09T17:33:35.000Z</Time>
            <Position>
              <LatitudeDegrees>43.3049976266920566558837890625</LatitudeDegrees>
              <LongitudeDegrees>-2.06151324324309825897216796875</LongitudeDegrees>
            </Position>
            <AltitudeMeters>232.8000030517578125</AltitudeMeters>
            <DistanceMeters>NAN</DistanceMeters>
          </Trackpoint>
          <Trackpoint>
            <Time>2022-07-09T17:33:36.000Z</Time>
            <Position>
              <LatitudeDegrees>43.304994441568851470947265625</LatitudeDegrees>
              <LongitudeDegrees>-2.06151491962373256683349609375</LongitudeDegrees>
            </Position>
            <AltitudeMeters>233</AltitudeMeters>
            <DistanceMeters>NAN</DistanceMeters>
          </Trackpoint>
          <Trackpoint>
            <Time>2022-07-09T17:33:40.000Z</Time>
            <Position>
              <LatitudeDegrees>43.30495144240558147430419921875</LatitudeDegrees>
              <LongitudeDegrees>-2.06155783496797084808349609375</LongitudeDegrees>
            </Position>
            <AltitudeMeters>233.600006103515625</AltitudeMeters>
            <DistanceMeters>NAN</DistanceMeters>
          </Trackpoint>
          <Trackpoint>
            <Time>2022-07-09T17:33:42.000Z</Time>
            <Position>
              <LatitudeDegrees>43.304937779903411865234375</LatitudeDegrees>
              <LongitudeDegrees>-2.06157728098332881927490234375</LongitudeDegrees>
            </Position>
            <AltitudeMeters>234</AltitudeMeters>
            <DistanceMeters>NAN</DistanceMeters>
          </Trackpoint>
          <Trackpoint>
            <Time>2022-07-09T17:33:45.000Z</Time>
            <Position>
              <LatitudeDegrees>43.30493350513279438018798828125</LatitudeDegrees>
              <LongitudeDegrees>-2.06157962791621685028076171875</LongitudeDegrees>
            </Position>
            <AltitudeMeters>234.399993896484375</AltitudeMeters>
            <DistanceMeters>NAN</DistanceMeters>
          </Trackpoint>
          <Trackpoint>
            <Time>2022-07-09T17:33:56.000Z</Time>
            <Position>
              <LatitudeDegrees>43.3049811981618404388427734375</LatitudeDegrees>
              <LongitudeDegrees>-2.06152162514626979827880859375</LongitudeDegrees>
            </Position>
            <AltitudeMeters>234.1999969482421875</AltitudeMeters>
            <DistanceMeters>NAN</DistanceMeters>
          </Trackpoint>
          <Trackpoint>
            <Time>2022-07-09T17:33:58.000Z</Time>
            <Position>
              <LatitudeDegrees>43.30502470023930072784423828125</LatitudeDegrees>
              <LongitudeDegrees>-2.061503939330577850341796875</LongitudeDegrees>
            </Position>
            <AltitudeMeters>233.8000030517578125</AltitudeMeters>
            <DistanceMeters>NAN</DistanceMeters>
          </Trackpoint>
          <Trackpoint>
            <Time>2022-07-09T17:34:00.000Z</Time>
            <Position>
              <LatitudeDegrees>43.30507214181125164031982421875</LatitudeDegrees>
              <LongitudeDegrees>-2.06154811196029186248779296875</LongitudeDegrees>
            </Position>
            <AltitudeMeters>233.399993896484375</AltitudeMeters>
            <DistanceMeters>NAN</DistanceMeters>
          </Trackpoint>
          <Trackpoint>
            <Time>2022-07-09T17:34:04.000Z</Time>
            <Position>
              <LatitudeDegrees>43.30515864305198192596435546875</LatitudeDegrees>
              <LongitudeDegrees>-2.06169077195227146148681640625</LongitudeDegrees>
            </Position>
            <AltitudeMeters>232.8000030517578125</AltitudeMeters>
            <DistanceMeters>NAN</DistanceMeters>
          </Trackpoint>
          <Trackpoint>
            <Time>2022-07-09T17:34:05.000Z</Time>
            <Position>
              <LatitudeDegrees>43.3051743172109127044677734375</LatitudeDegrees>
              <LongitudeDegrees>-2.06171474419534206390380859375</LongitudeDegrees>
            </Position>
            <AltitudeMeters>232.8000030517578125</AltitudeMeters>
            <DistanceMeters>NAN</DistanceMeters>
          </Trackpoint>
          <Trackpoint>
            <Time>2022-07-09T17:34:08.000Z</Time>
            <Position>
              <LatitudeDegrees>43.30520809628069400787353515625</LatitudeDegrees>
              <LongitudeDegrees>-2.06177358515560626983642578125</LongitudeDegrees>
            </Position>
            <AltitudeMeters>231.600006103515625</AltitudeMeters>
            <DistanceMeters>NAN</DistanceMeters>
          </Trackpoint>
          <Trackpoint>
            <Time>2022-07-09T17:34:10.000Z</Time>
            <Position>
              <LatitudeDegrees>43.30520809628069400787353515625</LatitudeDegrees>
              <LongitudeDegrees>-2.06177358515560626983642578125</LongitudeDegrees>
            </Position>
            <AltitudeMeters>231</AltitudeMeters>
            <DistanceMeters>NAN</DistanceMeters>
          </Trackpoint>
          <Trackpoint>
            <Time>2022-07-09T17:34:58.000Z</Time>
            <Position>
              <LatitudeDegrees>43.30511958338320255279541015625</LatitudeDegrees>
              <LongitudeDegrees>-2.06161885522305965423583984375</LongitudeDegrees>
            </Position>
            <AltitudeMeters>232</AltitudeMeters>
            <DistanceMeters>NAN</DistanceMeters>
          </Trackpoint>
          <Trackpoint>
            <Time>2022-07-09T17:35:01.000Z</Time>
            <Position>
              <LatitudeDegrees>43.3050827868282794952392578125</LatitudeDegrees>
              <LongitudeDegrees>-2.06156202591955661773681640625</LongitudeDegrees>
            </Position>
            <AltitudeMeters>232.1999969482421875</AltitudeMeters>
            <DistanceMeters>NAN</DistanceMeters>
          </Trackpoint>
          <Trackpoint>
            <Time>2022-07-09T17:35:04.000Z</Time>
            <Position>
              <LatitudeDegrees>43.3050355128943920135498046875</LatitudeDegrees>
              <LongitudeDegrees>-2.06151944585144519805908203125</LongitudeDegrees>
            </Position>
            <AltitudeMeters>232.399993896484375</AltitudeMeters>
            <DistanceMeters>NAN</DistanceMeters>
          </Trackpoint>
          <Trackpoint>
            <Time>2022-07-09T17:35:05.000Z</Time>
            <Position>
              <LatitudeDegrees>43.305015228688716888427734375</LatitudeDegrees>
              <LongitudeDegrees>-2.06151592545211315155029296875</LongitudeDegrees>
            </Position>
            <AltitudeMeters>232.600006103515625</AltitudeMeters>
            <DistanceMeters>NAN</DistanceMeters>
          </Trackpoint>
          <Trackpoint>
            <Time>2022-07-09T17:35:06.000Z</Time>
            <Position>
              <LatitudeDegrees>43.3049962855875492095947265625</LatitudeDegrees>
              <LongitudeDegrees>-2.0615230500698089599609375</LongitudeDegrees>
            </Position>
            <AltitudeMeters>232.8000030517578125</AltitudeMeters>
            <DistanceMeters>NAN</DistanceMeters>
          </Trackpoint>
          <Trackpoint>
            <Time>2022-07-09T17:35:07.000Z</Time>
            <Position>
              <LatitudeDegrees>43.3049818687140941619873046875</LatitudeDegrees>
              <LongitudeDegrees>-2.0615351200103759765625</LongitudeDegrees>
            </Position>
            <AltitudeMeters>232.8000030517578125</AltitudeMeters>
            <DistanceMeters>NAN</DistanceMeters>
          </Trackpoint>
          <Trackpoint>
            <Time>2022-07-09T17:35:11.000Z</Time>
            <Position>
              <LatitudeDegrees>43.30494104884564876556396484375</LatitudeDegrees>
              <LongitudeDegrees>-2.06158935092389583587646484375</LongitudeDegrees>
            </Position>
            <AltitudeMeters>233</AltitudeMeters>
            <DistanceMeters>NAN</DistanceMeters>
          </Trackpoint>
          <Trackpoint>
            <Time>2022-07-09T17:35:15.000Z</Time>
            <Position>
              <LatitudeDegrees>43.3049195073544979095458984375</LatitudeDegrees>
              <LongitudeDegrees>-2.06165540032088756561279296875</LongitudeDegrees>
            </Position>
            <AltitudeMeters>233.600006103515625</AltitudeMeters>
            <DistanceMeters>NAN</DistanceMeters>
          </Trackpoint>
          <Trackpoint>
            <Time>2022-07-09T17:35:18.000Z</Time>
            <Position>
              <LatitudeDegrees>43.30488673411309719085693359375</LatitudeDegrees>
              <LongitudeDegrees>-2.06169730983674526214599609375</LongitudeDegrees>
            </Position>
            <AltitudeMeters>234.399993896484375</AltitudeMeters>
            <DistanceMeters>NAN</DistanceMeters>
          </Trackpoint>
          <Trackpoint>
            <Time>2022-07-09T17:35:19.000Z</Time>
            <Position>
              <LatitudeDegrees>43.3048769272863864898681640625</LatitudeDegrees>
              <LongitudeDegrees>-2.06170652993023395538330078125</LongitudeDegrees>
            </Position>
            <AltitudeMeters>234.600006103515625</AltitudeMeters>
            <DistanceMeters>NAN</DistanceMeters>
          </Trackpoint>
          <Trackpoint>
            <Time>2022-07-09T17:35:20.000Z</Time>
            <Position>
              <LatitudeDegrees>43.30487198196351528167724609375</LatitudeDegrees>
              <LongitudeDegrees>-2.0617196895182132720947265625</LongitudeDegrees>
            </Position>
            <AltitudeMeters>234.8000030517578125</AltitudeMeters>
            <DistanceMeters>NAN</DistanceMeters>
          </Trackpoint>
          <Trackpoint>
            <Time>2022-07-09T17:35:21.000Z</Time>
            <Position>
              <LatitudeDegrees>43.30486695282161235809326171875</LatitudeDegrees>
              <LongitudeDegrees>-2.06173360347747802734375</LongitudeDegrees>
            </Position>
            <AltitudeMeters>235</AltitudeMeters>
            <DistanceMeters>NAN</DistanceMeters>
          </Trackpoint>
          <Trackpoint>
            <Time>2022-07-09T17:35:22.000Z</Time>
            <Position>
              <LatitudeDegrees>43.30485521815717220306396484375</LatitudeDegrees>
              <LongitudeDegrees>-2.061750702559947967529296875</LongitudeDegrees>
            </Position>
            <AltitudeMeters>235.1999969482421875</AltitudeMeters>
            <DistanceMeters>NAN</DistanceMeters>
          </Trackpoint>
          <Trackpoint>
            <Time>2022-07-09T17:35:26.000Z</Time>
            <Position>
              <LatitudeDegrees>43.30482311546802520751953125</LatitudeDegrees>
              <LongitudeDegrees>-2.0617991499602794647216796875</LongitudeDegrees>
            </Position>
            <AltitudeMeters>236</AltitudeMeters>
            <DistanceMeters>NAN</DistanceMeters>
          </Trackpoint>
          <Trackpoint>
            <Time>2022-07-09T17:35:28.000Z</Time>
            <Position>
              <LatitudeDegrees>43.30479050986468791961669921875</LatitudeDegrees>
              <LongitudeDegrees>-2.061824798583984375</LongitudeDegrees>
            </Position>
            <AltitudeMeters>236.1999969482421875</AltitudeMeters>
            <DistanceMeters>NAN</DistanceMeters>
          </Trackpoint>
          <Trackpoint>
            <Time>2022-07-09T17:35:29.000Z</Time>
            <Position>
              <LatitudeDegrees>43.3047900907695293426513671875</LatitudeDegrees>
              <LongitudeDegrees>-2.06183862872421741485595703125</LongitudeDegrees>
            </Position>
            <AltitudeMeters>236.399993896484375</AltitudeMeters>
            <DistanceMeters>NAN</DistanceMeters>
          </Trackpoint>
          <Trackpoint>
            <Time>2022-07-09T17:35:32.000Z</Time>
            <Position>
              <LatitudeDegrees>43.3047763444483280181884765625</LatitudeDegrees>
              <LongitudeDegrees>-2.06187131814658641815185546875</LongitudeDegrees>
            </Position>
            <AltitudeMeters>237.1999969482421875</AltitudeMeters>
            <DistanceMeters>NAN</DistanceMeters>
          </Trackpoint>
          <Trackpoint>
            <Time>2022-07-09T17:35:36.000Z</Time>
            <Position>
              <LatitudeDegrees>43.304769806563854217529296875</LatitudeDegrees>
              <LongitudeDegrees>-2.06192831508815288543701171875</LongitudeDegrees>
            </Position>
            <AltitudeMeters>238.1999969482421875</AltitudeMeters>
            <DistanceMeters>NAN</DistanceMeters>
          </Trackpoint>
          <Trackpoint>
            <Time>2022-07-09T17:35:37.000Z</Time>
            <Position>
              <LatitudeDegrees>43.304769806563854217529296875</LatitudeDegrees>
              <LongitudeDegrees>-2.061944492161273956298828125</LongitudeDegrees>
            </Position>
            <AltitudeMeters>238.399993896484375</AltitudeMeters>
            <DistanceMeters>NAN</DistanceMeters>
          </Trackpoint>
          <Trackpoint>
            <Time>2022-07-09T17:35:38.000Z</Time>
            <Position>
              <LatitudeDegrees>43.3047659508883953094482421875</LatitudeDegrees>
              <LongitudeDegrees>-2.061957232654094696044921875</LongitudeDegrees>
            </Position>
            <AltitudeMeters>238.399993896484375</AltitudeMeters>
            <DistanceMeters>NAN</DistanceMeters>
          </Trackpoint>
          <Trackpoint>
            <Time>2022-07-09T17:35:40.000Z</Time>
            <Position>
              <LatitudeDegrees>43.304747007787227630615234375</LatitudeDegrees>
              <LongitudeDegrees>-2.0619848929345607757568359375</LongitudeDegrees>
            </Position>
            <AltitudeMeters>238.8000030517578125</AltitudeMeters>
            <DistanceMeters>NAN</DistanceMeters>
          </Trackpoint>
          <Trackpoint>
            <Time>2022-07-09T17:35:41.000Z</Time>
            <Position>
              <LatitudeDegrees>43.30473192036151885986328125</LatitudeDegrees>
              <LongitudeDegrees>-2.0619966275990009307861328125</LongitudeDegrees>
            </Position>
            <AltitudeMeters>239</AltitudeMeters>
            <DistanceMeters>NAN</DistanceMeters>
          </Trackpoint>
          <Trackpoint>
            <Time>2022-07-09T17:35:42.000Z</Time>
            <Position>
              <LatitudeDegrees>43.304720185697078704833984375</LatitudeDegrees>
              <LongitudeDegrees>-2.06201397813856601715087890625</LongitudeDegrees>
            </Position>
            <AltitudeMeters>239.1999969482421875</AltitudeMeters>
            <DistanceMeters>NAN</DistanceMeters>
          </Trackpoint>
          <Trackpoint>
            <Time>2022-07-09T17:35:44.000Z</Time>
            <Position>
              <LatitudeDegrees>43.30470509827136993408203125</LatitudeDegrees>
              <LongitudeDegrees>-2.062049768865108489990234375</LongitudeDegrees>
            </Position>
            <AltitudeMeters>239.399993896484375</AltitudeMeters>
            <DistanceMeters>NAN</DistanceMeters>
          </Trackpoint>
          <Trackpoint>
            <Time>2022-07-09T17:35:45.000Z</Time>
            <Position>
              <LatitudeDegrees>43.304697386920452117919921875</LatitudeDegrees>
              <LongitudeDegrees>-2.06206527538597583770751953125</LongitudeDegrees>
            </Position>
            <AltitudeMeters>239.600006103515625</AltitudeMeters>
            <DistanceMeters>NAN</DistanceMeters>
          </Trackpoint>
          <Trackpoint>
            <Time>2022-07-09T17:35:47.000Z</Time>
            <Position>
              <LatitudeDegrees>43.30468808300793170928955078125</LatitudeDegrees>
              <LongitudeDegrees>-2.06209913827478885650634765625</LongitudeDegrees>
            </Position>
            <AltitudeMeters>239.8000030517578125</AltitudeMeters>
            <DistanceMeters>NAN</DistanceMeters>
          </Trackpoint>
          <Trackpoint>
            <Time>2022-07-09T17:35:49.000Z</Time>
            <Position>
              <LatitudeDegrees>43.3046911843121051788330078125</LatitudeDegrees>
              <LongitudeDegrees>-2.0621407963335514068603515625</LongitudeDegrees>
            </Position>
            <AltitudeMeters>240.1999969482421875</AltitudeMeters>
            <DistanceMeters>NAN</DistanceMeters>
          </Trackpoint>
          <Trackpoint>
            <Time>2022-07-09T17:35:51.000Z</Time>
            <Position>
              <LatitudeDegrees>43.30469797365367412567138671875</LatitudeDegrees>
              <LongitudeDegrees>-2.062179856002330780029296875</LongitudeDegrees>
            </Position>
            <AltitudeMeters>240.399993896484375</AltitudeMeters>
            <DistanceMeters>NAN</DistanceMeters>
          </Trackpoint>
          <Trackpoint>
            <Time>2022-07-09T17:35:52.000Z</Time>
            <Position>
              <LatitudeDegrees>43.30470249988138675689697265625</LatitudeDegrees>
              <LongitudeDegrees>-2.06220173276960849761962890625</LongitudeDegrees>
            </Position>
            <AltitudeMeters>240.399993896484375</AltitudeMeters>
            <DistanceMeters>NAN</DistanceMeters>
          </Trackpoint>
          <Trackpoint>
            <Time>2022-07-09T17:35:55.000Z</Time>
            <Position>
              <LatitudeDegrees>43.3047119714319705963134765625</LatitudeDegrees>
              <LongitudeDegrees>-2.0622874796390533447265625</LongitudeDegrees>
            </Position>
            <AltitudeMeters>240.399993896484375</AltitudeMeters>
            <DistanceMeters>NAN</DistanceMeters>
          </Trackpoint>
          <Trackpoint>
            <Time>2022-07-09T17:35:57.000Z</Time>
            <Position>
              <LatitudeDegrees>43.30472244881093502044677734375</LatitudeDegrees>
              <LongitudeDegrees>-2.06234984099864959716796875</LongitudeDegrees>
            </Position>
            <AltitudeMeters>240.399993896484375</AltitudeMeters>
            <DistanceMeters>NAN</DistanceMeters>
          </Trackpoint>
          <Trackpoint>
            <Time>2022-07-09T17:36:04.000Z</Time>
            <Position>
              <LatitudeDegrees>43.30468573607504367828369140625</LatitudeDegrees>
              <LongitudeDegrees>-2.06254689954221248626708984375</LongitudeDegrees>
            </Position>
            <AltitudeMeters>240.1999969482421875</AltitudeMeters>
            <DistanceMeters>NAN</DistanceMeters>
          </Trackpoint>
          <Trackpoint>
            <Time>2022-07-09T17:36:05.000Z</Time>
            <Position>
              <LatitudeDegrees>43.30466754734516143798828125</LatitudeDegrees>
              <LongitudeDegrees>-2.062567770481109619140625</LongitudeDegrees>
            </Position>
            <AltitudeMeters>240.1999969482421875</AltitudeMeters>
            <DistanceMeters>NAN</DistanceMeters>
          </Trackpoint>
          <Trackpoint>
            <Time>2022-07-09T17:36:08.000Z</Time>
            <Position>
              <LatitudeDegrees>43.30462924204766750335693359375</LatitudeDegrees>
              <LongitudeDegrees>-2.0626715384423732757568359375</LongitudeDegrees>
            </Position>
            <AltitudeMeters>240.1999969482421875</AltitudeMeters>
            <DistanceMeters>NAN</DistanceMeters>
          </Trackpoint>
          <Trackpoint>
            <Time>2022-07-09T17:36:09.000Z</Time>
            <Position>
              <LatitudeDegrees>43.30461918376386165618896484375</LatitudeDegrees>
              <LongitudeDegrees>-2.06270783208310604095458984375</LongitudeDegrees>
            </Position>
            <AltitudeMeters>240.1999969482421875</AltitudeMeters>
            <DistanceMeters>NAN</DistanceMeters>
          </Trackpoint>
          <Trackpoint>
            <Time>2022-07-09T17:36:11.000Z</Time>
            <Position>
              <LatitudeDegrees>43.304608874022960662841796875</LatitudeDegrees>
              <LongitudeDegrees>-2.0627798326313495635986328125</LongitudeDegrees>
            </Position>
            <AltitudeMeters>240.399993896484375</AltitudeMeters>
            <DistanceMeters>NAN</DistanceMeters>
          </Trackpoint>
          <Trackpoint>
            <Time>2022-07-09T17:36:17.000Z</Time>
            <Position>
              <LatitudeDegrees>43.3045448362827301025390625</LatitudeDegrees>
              <LongitudeDegrees>-2.06301234662532806396484375</LongitudeDegrees>
            </Position>
            <AltitudeMeters>240.1999969482421875</AltitudeMeters>
            <DistanceMeters>NAN</DistanceMeters>
          </Trackpoint>
          <Trackpoint>
            <Time>2022-07-09T17:36:24.000Z</Time>
            <Position>
              <LatitudeDegrees>43.30449462868273258209228515625</LatitudeDegrees>
              <LongitudeDegrees>-2.0632780529558658599853515625</LongitudeDegrees>
            </Position>
            <AltitudeMeters>240.399993896484375</AltitudeMeters>
            <DistanceMeters>NAN</DistanceMeters>
          </Trackpoint>
          <Trackpoint>
            <Time>2022-07-09T17:36:32.000Z</Time>
            <Position>
              <LatitudeDegrees>43.30436973832547664642333984375</LatitudeDegrees>
              <LongitudeDegrees>-2.0635937154293060302734375</LongitudeDegrees>
            </Position>
            <AltitudeMeters>240.399993896484375</AltitudeMeters>
            <DistanceMeters>NAN</DistanceMeters>
          </Trackpoint>
          <Trackpoint>
            <Time>2022-07-09T17:36:39.000Z</Time>
            <Position>
              <LatitudeDegrees>43.3042331971228122711181640625</LatitudeDegrees>
              <LongitudeDegrees>-2.0638500340282917022705078125</LongitudeDegrees>
            </Position>
            <AltitudeMeters>240.399993896484375</AltitudeMeters>
            <DistanceMeters>NAN</DistanceMeters>
          </Trackpoint>
          <Trackpoint>
            <Time>2022-07-09T17:36:44.000Z</Time>
            <Position>
              <LatitudeDegrees>43.3041036128997802734375</LatitudeDegrees>
              <LongitudeDegrees>-2.0639968849718570709228515625</LongitudeDegrees>
            </Position>
            <AltitudeMeters>240.399993896484375</AltitudeMeters>
            <DistanceMeters>NAN</DistanceMeters>
          </Trackpoint>
          <Trackpoint>
            <Time>2022-07-09T17:36:49.000Z</Time>
            <Position>
              <LatitudeDegrees>43.30397377721965312957763671875</LatitudeDegrees>
              <LongitudeDegrees>-2.06416712142527103424072265625</LongitudeDegrees>
            </Position>
            <AltitudeMeters>240.1999969482421875</AltitudeMeters>
            <DistanceMeters>NAN</DistanceMeters>
          </Trackpoint>
          <Trackpoint>
            <Time>2022-07-09T17:36:54.000Z</Time>
            <Position>
              <LatitudeDegrees>43.303816951811313629150390625</LatitudeDegrees>
              <LongitudeDegrees>-2.064302824437618255615234375</LongitudeDegrees>
            </Position>
            <AltitudeMeters>239.600006103515625</AltitudeMeters>
            <DistanceMeters>NAN</DistanceMeters>
          </Trackpoint>
          <Trackpoint>
            <Time>2022-07-09T17:36:56.000Z</Time>
            <Position>
              <LatitudeDegrees>43.303749896585941314697265625</LatitudeDegrees>
              <LongitudeDegrees>-2.064328975975513458251953125</LongitudeDegrees>
            </Position>
            <AltitudeMeters>239.399993896484375</AltitudeMeters>
            <DistanceMeters>NAN</DistanceMeters>
          </Trackpoint>
          <Trackpoint>
            <Time>2022-07-09T17:37:01.000Z</Time>
            <Position>
              <LatitudeDegrees>43.30357613973319530487060546875</LatitudeDegrees>
              <LongitudeDegrees>-2.06440349109470844268798828125</LongitudeDegrees>
            </Position>
            <AltitudeMeters>238.8000030517578125</AltitudeMeters>
            <DistanceMeters>NAN</DistanceMeters>
          </Trackpoint>
          <Trackpoint>
            <Time>2022-07-09T17:37:03.000Z</Time>
            <Position>
              <LatitudeDegrees>43.30347136594355106353759765625</LatitudeDegrees>
              <LongitudeDegrees>-2.064471803605556488037109375</LongitudeDegrees>
            </Position>
            <AltitudeMeters>238.1999969482421875</AltitudeMeters>
            <DistanceMeters>NAN</DistanceMeters>
          </Trackpoint>
          <Trackpoint>
            <Time>2022-07-09T17:37:05.000Z</Time>
            <Position>
              <LatitudeDegrees>43.30337061546742916107177734375</LatitudeDegrees>
              <LongitudeDegrees>-2.06454732455313205718994140625</LongitudeDegrees>
            </Position>
            <AltitudeMeters>237</AltitudeMeters>
            <DistanceMeters>NAN</DistanceMeters>
          </Trackpoint>
          <Trackpoint>
            <Time>2022-07-09T17:37:07.000Z</Time>
            <Position>
              <LatitudeDegrees>43.30329299904406070709228515625</LatitudeDegrees>
              <LongitudeDegrees>-2.06461085937917232513427734375</LongitudeDegrees>
            </Position>
            <AltitudeMeters>236.399993896484375</AltitudeMeters>
            <DistanceMeters>NAN</DistanceMeters>
          </Trackpoint>
          <Trackpoint>
            <Time>2022-07-09T17:37:08.000Z</Time>
            <Position>
              <LatitudeDegrees>43.3032719604671001434326171875</LatitudeDegrees>
              <LongitudeDegrees>-2.0646505057811737060546875</LongitudeDegrees>
            </Position>
            <AltitudeMeters>236</AltitudeMeters>
            <DistanceMeters>NAN</DistanceMeters>
          </Trackpoint>
          <Trackpoint>
            <Time>2022-07-09T17:37:09.000Z</Time>
            <Position>
              <LatitudeDegrees>43.30326332710683345794677734375</LatitudeDegrees>
              <LongitudeDegrees>-2.06469182856380939483642578125</LongitudeDegrees>
            </Position>
            <AltitudeMeters>236</AltitudeMeters>
            <DistanceMeters>NAN</DistanceMeters>
          </Trackpoint>
          <Trackpoint>
            <Time>2022-07-09T17:37:11.000Z</Time>
            <Position>
              <LatitudeDegrees>43.30329383723437786102294921875</LatitudeDegrees>
              <LongitudeDegrees>-2.0647391863167285919189453125</LongitudeDegrees>
            </Position>
            <AltitudeMeters>235.8000030517578125</AltitudeMeters>
            <DistanceMeters>NAN</DistanceMeters>
          </Trackpoint>
          <Trackpoint>
            <Time>2022-07-09T17:37:12.000Z</Time>
            <Position>
              <LatitudeDegrees>43.3033115230500698089599609375</LatitudeDegrees>
              <LongitudeDegrees>-2.06475771032273769378662109375</LongitudeDegrees>
            </Position>
            <AltitudeMeters>235.8000030517578125</AltitudeMeters>
            <DistanceMeters>NAN</DistanceMeters>
          </Trackpoint>
          <Trackpoint>
            <Time>2022-07-09T17:37:15.000Z</Time>
            <Position>
              <LatitudeDegrees>43.30336960963904857635498046875</LatitudeDegrees>
              <LongitudeDegrees>-2.0648007094860076904296875</LongitudeDegrees>
            </Position>
            <AltitudeMeters>236.1999969482421875</AltitudeMeters>
            <DistanceMeters>NAN</DistanceMeters>
          </Trackpoint>
          <Trackpoint>
            <Time>2022-07-09T17:37:21.000Z</Time>
            <Position>
              <LatitudeDegrees>43.303500451147556304931640625</LatitudeDegrees>
              <LongitudeDegrees>-2.06490774638950824737548828125</LongitudeDegrees>
            </Position>
            <AltitudeMeters>236.1999969482421875</AltitudeMeters>
            <DistanceMeters>NAN</DistanceMeters>
          </Trackpoint>
          <Trackpoint>
            <Time>2022-07-09T17:37:30.000Z</Time>
            <Position>
              <LatitudeDegrees>43.303641267120838165283203125</LatitudeDegrees>
              <LongitudeDegrees>-2.06504303030669689178466796875</LongitudeDegrees>
            </Position>
            <AltitudeMeters>237</AltitudeMeters>
            <DistanceMeters>NAN</DistanceMeters>
          </Trackpoint>
          <Trackpoint>
            <Time>2022-07-09T17:37:31.000Z</Time>
            <Position>
              <LatitudeDegrees>43.30365979112684726715087890625</LatitudeDegrees>
              <LongitudeDegrees>-2.06504688598215579986572265625</LongitudeDegrees>
            </Position>
            <AltitudeMeters>237.1999969482421875</AltitudeMeters>
            <DistanceMeters>NAN</DistanceMeters>
          </Trackpoint>
          <Trackpoint>
            <Time>2022-07-09T17:37:32.000Z</Time>
            <Position>
              <LatitudeDegrees>43.30367521382868289947509765625</LatitudeDegrees>
              <LongitudeDegrees>-2.06505510024726390838623046875</LongitudeDegrees>
            </Position>
            <AltitudeMeters>237.399993896484375</AltitudeMeters>
            <DistanceMeters>NAN</DistanceMeters>
          </Trackpoint>
          <Trackpoint>
            <Time>2022-07-09T17:37:36.000Z</Time>
            <Position>
              <LatitudeDegrees>43.30366984941065311431884765625</LatitudeDegrees>
              <LongitudeDegrees>-2.06511410884559154510498046875</LongitudeDegrees>
            </Position>
            <AltitudeMeters>238</AltitudeMeters>
            <DistanceMeters>NAN</DistanceMeters>
          </Trackpoint>
          <Trackpoint>
            <Time>2022-07-09T17:37:37.000Z</Time>
            <Position>
              <LatitudeDegrees>43.30365560017526149749755859375</LatitudeDegrees>
              <LongitudeDegrees>-2.06511528231203556060791015625</LongitudeDegrees>
            </Position>
            <AltitudeMeters>238.1999969482421875</AltitudeMeters>
            <DistanceMeters>NAN</DistanceMeters>
          </Trackpoint>
          <Trackpoint>
            <Time>2022-07-09T17:37:40.000Z</Time>
            <Position>
              <LatitudeDegrees>43.3036431111395359039306640625</LatitudeDegrees>
              <LongitudeDegrees>-2.06514948047697544097900390625</LongitudeDegrees>
            </Position>
            <AltitudeMeters>238.399993896484375</AltitudeMeters>
            <DistanceMeters>NAN</DistanceMeters>
          </Trackpoint>
          <Trackpoint>
            <Time>2022-07-09T17:37:45.000Z</Time>
            <Position>
              <LatitudeDegrees>43.30366331152617931365966796875</LatitudeDegrees>
              <LongitudeDegrees>-2.06523413769900798797607421875</LongitudeDegrees>
            </Position>
            <AltitudeMeters>239</AltitudeMeters>
            <DistanceMeters>NAN</DistanceMeters>
          </Trackpoint>
          <Trackpoint>
            <Time>2022-07-09T17:37:47.000Z</Time>
            <Position>
              <LatitudeDegrees>43.30366984941065311431884765625</LatitudeDegrees>
              <LongitudeDegrees>-2.06527973525226116180419921875</LongitudeDegrees>
            </Position>
            <AltitudeMeters>239.1999969482421875</AltitudeMeters>
            <DistanceMeters>NAN</DistanceMeters>
          </Trackpoint>
          <Trackpoint>
            <Time>2022-07-09T17:37:48.000Z</Time>
            <Position>
              <LatitudeDegrees>43.30366515554487705230712890625</LatitudeDegrees>
              <LongitudeDegrees>-2.06530018709599971771240234375</LongitudeDegrees>
            </Position>
            <AltitudeMeters>239.399993896484375</AltitudeMeters>
            <DistanceMeters>NAN</DistanceMeters>
          </Trackpoint>
          <Trackpoint>
            <Time>2022-07-09T17:37:49.000Z</Time>
            <Position>
              <LatitudeDegrees>43.30365635454654693603515625</LatitudeDegrees>
              <LongitudeDegrees>-2.065315358340740203857421875</LongitudeDegrees>
            </Position>
            <AltitudeMeters>239.600006103515625</AltitudeMeters>
            <DistanceMeters>NAN</DistanceMeters>
          </Trackpoint>
          <Trackpoint>
            <Time>2022-07-09T17:37:53.000Z</Time>
            <Position>
              <LatitudeDegrees>43.30362911336123943328857421875</LatitudeDegrees>
              <LongitudeDegrees>-2.06537210382521152496337890625</LongitudeDegrees>
            </Position>
            <AltitudeMeters>240.1999969482421875</AltitudeMeters>
            <DistanceMeters>NAN</DistanceMeters>
          </Trackpoint>
          <Trackpoint>
            <Time>2022-07-09T17:37:54.000Z</Time>
            <Position>
              <LatitudeDegrees>43.303623497486114501953125</LatitudeDegrees>
              <LongitudeDegrees>-2.06538878381252288818359375</LongitudeDegrees>
            </Position>
            <AltitudeMeters>240.1999969482421875</AltitudeMeters>
            <DistanceMeters>NAN</DistanceMeters>
          </Trackpoint>
          <Trackpoint>
            <Time>2022-07-09T17:37:56.000Z</Time>
            <Position>
              <LatitudeDegrees>43.303612768650054931640625</LatitudeDegrees>
              <LongitudeDegrees>-2.06542239524424076080322265625</LongitudeDegrees>
            </Position>
            <AltitudeMeters>240.600006103515625</AltitudeMeters>
            <DistanceMeters>NAN</DistanceMeters>
          </Trackpoint>
          <Trackpoint>
            <Time>2022-07-09T17:37:59.000Z</Time>
            <Position>
              <LatitudeDegrees>43.30359189771115779876708984375</LatitudeDegrees>
              <LongitudeDegrees>-2.06546681933104991912841796875</LongitudeDegrees>
            </Position>
            <AltitudeMeters>241.399993896484375</AltitudeMeters>
            <DistanceMeters>NAN</DistanceMeters>
          </Trackpoint>
          <Trackpoint>
            <Time>2022-07-09T17:38:03.000Z</Time>
            <Position>
              <LatitudeDegrees>43.3035881258547306060791015625</LatitudeDegrees>
              <LongitudeDegrees>-2.065537981688976287841796875</LongitudeDegrees>
            </Position>
            <AltitudeMeters>242</AltitudeMeters>
            <DistanceMeters>NAN</DistanceMeters>
          </Trackpoint>
          <Trackpoint>
            <Time>2022-07-09T17:38:04.000Z</Time>
            <Position>
              <LatitudeDegrees>43.30358795821666717529296875</LatitudeDegrees>
              <LongitudeDegrees>-2.0655535720288753509521484375</LongitudeDegrees>
            </Position>
            <AltitudeMeters>242.399993896484375</AltitudeMeters>
            <DistanceMeters>NAN</DistanceMeters>
          </Trackpoint>
          <Trackpoint>
            <Time>2022-07-09T17:38:05.000Z</Time>
            <Position>
              <LatitudeDegrees>43.303584270179271697998046875</LatitudeDegrees>
              <LongitudeDegrees>-2.06557025201618671417236328125</LongitudeDegrees>
            </Position>
            <AltitudeMeters>242.8000030517578125</AltitudeMeters>
            <DistanceMeters>NAN</DistanceMeters>
          </Trackpoint>
          <Trackpoint>
            <Time>2022-07-09T17:38:08.000Z</Time>
            <Position>
              <LatitudeDegrees>43.30355585552752017974853515625</LatitudeDegrees>
              <LongitudeDegrees>-2.06562213599681854248046875</LongitudeDegrees>
            </Position>
            <AltitudeMeters>243.1999969482421875</AltitudeMeters>
            <DistanceMeters>NAN</DistanceMeters>
          </Trackpoint>
          <Trackpoint>
            <Time>2022-07-09T17:38:10.000Z</Time>
            <Position>
              <LatitudeDegrees>43.30354093573987483978271484375</LatitudeDegrees>
              <LongitudeDegrees>-2.0656508021056652069091796875</LongitudeDegrees>
            </Position>
            <AltitudeMeters>243.399993896484375</AltitudeMeters>
            <DistanceMeters>NAN</DistanceMeters>
          </Trackpoint>
          <Trackpoint>
            <Time>2022-07-09T17:38:16.000Z</Time>
            <Position>
              <LatitudeDegrees>43.30351553857326507568359375</LatitudeDegrees>
              <LongitudeDegrees>-2.06575063057243824005126953125</LongitudeDegrees>
            </Position>
            <AltitudeMeters>244.600006103515625</AltitudeMeters>
            <DistanceMeters>NAN</DistanceMeters>
          </Trackpoint>
          <Trackpoint>
            <Time>2022-07-09T17:38:18.000Z</Time>
            <Position>
              <LatitudeDegrees>43.3035041391849517822265625</LatitudeDegrees>
              <LongitudeDegrees>-2.06578767858445644378662109375</LongitudeDegrees>
            </Position>
            <AltitudeMeters>244.8000030517578125</AltitudeMeters>
            <DistanceMeters>NAN</DistanceMeters>
          </Trackpoint>
          <Trackpoint>
            <Time>2022-07-09T17:38:23.000Z</Time>
            <Position>
              <LatitudeDegrees>43.30349014140665531158447265625</LatitudeDegrees>
              <LongitudeDegrees>-2.065909467637538909912109375</LongitudeDegrees>
            </Position>
            <AltitudeMeters>245</AltitudeMeters>
            <DistanceMeters>NAN</DistanceMeters>
          </Trackpoint>
          <Trackpoint>
            <Time>2022-07-09T17:38:25.000Z</Time>
            <Position>
              <LatitudeDegrees>43.3034719526767730712890625</LatitudeDegrees>
              <LongitudeDegrees>-2.065953724086284637451171875</LongitudeDegrees>
            </Position>
            <AltitudeMeters>244.8000030517578125</AltitudeMeters>
            <DistanceMeters>NAN</DistanceMeters>
          </Trackpoint>
          <Trackpoint>
            <Time>2022-07-09T17:38:29.000Z</Time>
            <Position>
              <LatitudeDegrees>43.30341638065874576568603515625</LatitudeDegrees>
              <LongitudeDegrees>-2.0661165006458759307861328125</LongitudeDegrees>
            </Position>
            <AltitudeMeters>244.600006103515625</AltitudeMeters>
            <DistanceMeters>NAN</DistanceMeters>
          </Trackpoint>
          <Trackpoint>
            <Time>2022-07-09T17:38:33.000Z</Time>
            <Position>
              <LatitudeDegrees>43.3033458888530731201171875</LatitudeDegrees>
              <LongitudeDegrees>-2.0662288181483745574951171875</LongitudeDegrees>
            </Position>
            <AltitudeMeters>244.8000030517578125</AltitudeMeters>
            <DistanceMeters>NAN</DistanceMeters>
          </Trackpoint>
          <Trackpoint>
            <Time>2022-07-09T17:38:36.000Z</Time>
            <Position>
              <LatitudeDegrees>43.30333407036960124969482421875</LatitudeDegrees>
              <LongitudeDegrees>-2.0662737451493740081787109375</LongitudeDegrees>
            </Position>
            <AltitudeMeters>245.1999969482421875</AltitudeMeters>
            <DistanceMeters>NAN</DistanceMeters>
          </Trackpoint>
          <Trackpoint>
            <Time>2022-07-09T17:38:38.000Z</Time>
            <Position>
              <LatitudeDegrees>43.30332644283771514892578125</LatitudeDegrees>
              <LongitudeDegrees>-2.0663161575794219970703125</LongitudeDegrees>
            </Position>
            <AltitudeMeters>245.600006103515625</AltitudeMeters>
            <DistanceMeters>NAN</DistanceMeters>
          </Trackpoint>
          <Trackpoint>
            <Time>2022-07-09T17:38:39.000Z</Time>
            <Position>
              <LatitudeDegrees>43.30332082696259021759033203125</LatitudeDegrees>
              <LongitudeDegrees>-2.066332586109638214111328125</LongitudeDegrees>
            </Position>
            <AltitudeMeters>245.8000030517578125</AltitudeMeters>
            <DistanceMeters>NAN</DistanceMeters>
          </Trackpoint>
          <Trackpoint>
            <Time>2022-07-09T17:38:44.000Z</Time>
            <Position>
              <LatitudeDegrees>43.3032826893031597137451171875</LatitudeDegrees>
              <LongitudeDegrees>-2.06642721779644489288330078125</LongitudeDegrees>
            </Position>
            <AltitudeMeters>246.8000030517578125</AltitudeMeters>
            <DistanceMeters>NAN</DistanceMeters>
          </Trackpoint>
          <Trackpoint>
            <Time>2022-07-09T17:38:47.000Z</Time>
            <Position>
              <LatitudeDegrees>43.30325813032686710357666015625</LatitudeDegrees>
              <LongitudeDegrees>-2.0664836280047893524169921875</LongitudeDegrees>
            </Position>
            <AltitudeMeters>247.399993896484375</AltitudeMeters>
            <DistanceMeters>NAN</DistanceMeters>
          </Trackpoint>
          <Trackpoint>
            <Time>2022-07-09T17:38:49.000Z</Time>
            <Position>
              <LatitudeDegrees>43.30324673093855381011962890625</LatitudeDegrees>
              <LongitudeDegrees>-2.0665158145129680633544921875</LongitudeDegrees>
            </Position>
            <AltitudeMeters>247.8000030517578125</AltitudeMeters>
            <DistanceMeters>NAN</DistanceMeters>
          </Trackpoint>
          <Trackpoint>
            <Time>2022-07-09T17:38:53.000Z</Time>
            <Position>
              <LatitudeDegrees>43.30321152694523334503173828125</LatitudeDegrees>
              <LongitudeDegrees>-2.06657088361680507659912109375</LongitudeDegrees>
            </Position>
            <AltitudeMeters>249</AltitudeMeters>
            <DistanceMeters>NAN</DistanceMeters>
          </Trackpoint>
          <Trackpoint>
            <Time>2022-07-09T17:38:54.000Z</Time>
            <Position>
              <LatitudeDegrees>43.3032018877565860748291015625</LatitudeDegrees>
              <LongitudeDegrees>-2.06658840179443359375</LongitudeDegrees>
            </Position>
            <AltitudeMeters>249.1999969482421875</AltitudeMeters>
            <DistanceMeters>NAN</DistanceMeters>
          </Trackpoint>
          <Trackpoint>
            <Time>2022-07-09T17:38:56.000Z</Time>
            <Position>
              <LatitudeDegrees>43.3031945116817951202392578125</LatitudeDegrees>
              <LongitudeDegrees>-2.0666210912168025970458984375</LongitudeDegrees>
            </Position>
            <AltitudeMeters>249.600006103515625</AltitudeMeters>
            <DistanceMeters>NAN</DistanceMeters>
          </Trackpoint>
          <Trackpoint>
            <Time>2022-07-09T17:38:57.000Z</Time>
            <Position>
              <LatitudeDegrees>43.3031903207302093505859375</LatitudeDegrees>
              <LongitudeDegrees>-2.06664112396538257598876953125</LongitudeDegrees>
            </Position>
            <AltitudeMeters>250</AltitudeMeters>
            <DistanceMeters>NAN</DistanceMeters>
          </Trackpoint>
          <Trackpoint>
            <Time>2022-07-09T17:38:58.000Z</Time>
            <Position>
              <LatitudeDegrees>43.30318369902670383453369140625</LatitudeDegrees>
              <LongitudeDegrees>-2.066660486161708831787109375</LongitudeDegrees>
            </Position>
            <AltitudeMeters>250.1999969482421875</AltitudeMeters>
            <DistanceMeters>NAN</DistanceMeters>
          </Trackpoint>
          <Trackpoint>
            <Time>2022-07-09T17:39:07.000Z</Time>
            <Position>
              <LatitudeDegrees>43.30311865545809268951416015625</LatitudeDegrees>
              <LongitudeDegrees>-2.06685871817171573638916015625</LongitudeDegrees>
            </Position>
            <AltitudeMeters>250.8000030517578125</AltitudeMeters>
            <DistanceMeters>NAN</DistanceMeters>
          </Trackpoint>
          <Trackpoint>
            <Time>2022-07-09T17:39:13.000Z</Time>
            <Position>
              <LatitudeDegrees>43.30305662937462329864501953125</LatitudeDegrees>
              <LongitudeDegrees>-2.06704077310860157012939453125</LongitudeDegrees>
            </Position>
            <AltitudeMeters>250.8000030517578125</AltitudeMeters>
            <DistanceMeters>NAN</DistanceMeters>
          </Trackpoint>
          <Trackpoint>
            <Time>2022-07-09T17:39:16.000Z</Time>
            <Position>
              <LatitudeDegrees>43.3030292205512523651123046875</LatitudeDegrees>
              <LongitudeDegrees>-2.0671256817877292633056640625</LongitudeDegrees>
            </Position>
            <AltitudeMeters>251</AltitudeMeters>
            <DistanceMeters>NAN</DistanceMeters>
          </Trackpoint>
          <Trackpoint>
            <Time>2022-07-09T17:39:18.000Z</Time>
            <Position>
              <LatitudeDegrees>43.30300549976527690887451171875</LatitudeDegrees>
              <LongitudeDegrees>-2.0671766437590122222900390625</LongitudeDegrees>
            </Position>
            <AltitudeMeters>251</AltitudeMeters>
            <DistanceMeters>NAN</DistanceMeters>
          </Trackpoint>
          <Trackpoint>
            <Time>2022-07-09T17:39:20.000Z</Time>
            <Position>
              <LatitudeDegrees>43.30299024470150470733642578125</LatitudeDegrees>
              <LongitudeDegrees>-2.06724864430725574493408203125</LongitudeDegrees>
            </Position>
            <AltitudeMeters>251</AltitudeMeters>
            <DistanceMeters>NAN</DistanceMeters>
          </Trackpoint>
          <Trackpoint>
            <Time>2022-07-09T17:39:21.000Z</Time>
            <Position>
              <LatitudeDegrees>43.30299611203372478485107421875</LatitudeDegrees>
              <LongitudeDegrees>-2.06729449331760406494140625</LongitudeDegrees>
            </Position>
            <AltitudeMeters>251</AltitudeMeters>
            <DistanceMeters>NAN</DistanceMeters>
          </Trackpoint>
          <Trackpoint>
            <Time>2022-07-09T17:39:27.000Z</Time>
            <Position>
              <LatitudeDegrees>43.30293425358831882476806640625</LatitudeDegrees>
              <LongitudeDegrees>-2.067471183836460113525390625</LongitudeDegrees>
            </Position>
            <AltitudeMeters>251.600006103515625</AltitudeMeters>
            <DistanceMeters>NAN</DistanceMeters>
          </Trackpoint>
          <Trackpoint>
            <Time>2022-07-09T17:39:28.000Z</Time>
            <Position>
              <LatitudeDegrees>43.3029038272798061370849609375</LatitudeDegrees>
              <LongitudeDegrees>-2.0675025321543216705322265625</LongitudeDegrees>
            </Position>
            <AltitudeMeters>251.600006103515625</AltitudeMeters>
            <DistanceMeters>NAN</DistanceMeters>
          </Trackpoint>
          <Trackpoint>
            <Time>2022-07-09T17:39:29.000Z</Time>
            <Position>
              <LatitudeDegrees>43.3029006421566009521484375</LatitudeDegrees>
              <LongitudeDegrees>-2.06753748469054698944091796875</LongitudeDegrees>
            </Position>
            <AltitudeMeters>251.8000030517578125</AltitudeMeters>
            <DistanceMeters>NAN</DistanceMeters>
          </Trackpoint>
          <Trackpoint>
            <Time>2022-07-09T17:39:32.000Z</Time>
            <Position>
              <LatitudeDegrees>43.30287373624742031097412109375</LatitudeDegrees>
              <LongitudeDegrees>-2.06758995540440082550048828125</LongitudeDegrees>
            </Position>
            <AltitudeMeters>252</AltitudeMeters>
            <DistanceMeters>NAN</DistanceMeters>
          </Trackpoint>
          <Trackpoint>
            <Time>2022-07-09T17:39:33.000Z</Time>
            <Position>
              <LatitudeDegrees>43.30286334268748760223388671875</LatitudeDegrees>
              <LongitudeDegrees>-2.0676108263432979583740234375</LongitudeDegrees>
            </Position>
            <AltitudeMeters>252</AltitudeMeters>
            <DistanceMeters>NAN</DistanceMeters>
          </Trackpoint>
          <Trackpoint>
            <Time>2022-07-09T17:39:37.000Z</Time>
            <Position>
              <LatitudeDegrees>43.30281724222004413604736328125</LatitudeDegrees>
              <LongitudeDegrees>-2.06769556738436222076416015625</LongitudeDegrees>
            </Position>
            <AltitudeMeters>252.600006103515625</AltitudeMeters>
            <DistanceMeters>NAN</DistanceMeters>
          </Trackpoint>
          <Trackpoint>
            <Time>2022-07-09T17:39:38.000Z</Time>
            <Position>
              <LatitudeDegrees>43.30280064605176448822021484375</LatitudeDegrees>
              <LongitudeDegrees>-2.067712582647800445556640625</LongitudeDegrees>
            </Position>
            <AltitudeMeters>252.600006103515625</AltitudeMeters>
            <DistanceMeters>NAN</DistanceMeters>
          </Trackpoint>
          <Trackpoint>
            <Time>2022-07-09T17:39:42.000Z</Time>
            <Position>
              <LatitudeDegrees>43.30275605432689189910888671875</LatitudeDegrees>
              <LongitudeDegrees>-2.0678153447806835174560546875</LongitudeDegrees>
            </Position>
            <AltitudeMeters>252.8000030517578125</AltitudeMeters>
            <DistanceMeters>NAN</DistanceMeters>
          </Trackpoint>
          <Trackpoint>
            <Time>2022-07-09T17:39:44.000Z</Time>
            <Position>
              <LatitudeDegrees>43.30273677594959735870361328125</LatitudeDegrees>
              <LongitudeDegrees>-2.06784677691757678985595703125</LongitudeDegrees>
            </Position>
            <AltitudeMeters>253.1999969482421875</AltitudeMeters>
            <DistanceMeters>NAN</DistanceMeters>
          </Trackpoint>
          <Trackpoint>
            <Time>2022-07-09T17:39:45.000Z</Time>
            <Position>
              <LatitudeDegrees>43.302729986608028411865234375</LatitudeDegrees>
              <LongitudeDegrees>-2.0678636245429515838623046875</LongitudeDegrees>
            </Position>
            <AltitudeMeters>253.1999969482421875</AltitudeMeters>
            <DistanceMeters>NAN</DistanceMeters>
          </Trackpoint>
          <Trackpoint>
            <Time>2022-07-09T17:39:52.000Z</Time>
            <Position>
              <LatitudeDegrees>43.30269075930118560791015625</LatitudeDegrees>
              <LongitudeDegrees>-2.0680044405162334442138671875</LongitudeDegrees>
            </Position>
            <AltitudeMeters>253.399993896484375</AltitudeMeters>
            <DistanceMeters>NAN</DistanceMeters>
          </Trackpoint>
          <Trackpoint>
            <Time>2022-07-09T17:39:55.000Z</Time>
            <Position>
              <LatitudeDegrees>43.30266796052455902099609375</LatitudeDegrees>
              <LongitudeDegrees>-2.0680768601596355438232421875</LongitudeDegrees>
            </Position>
            <AltitudeMeters>253.399993896484375</AltitudeMeters>
            <DistanceMeters>NAN</DistanceMeters>
          </Trackpoint>
          <Trackpoint>
            <Time>2022-07-09T17:39:57.000Z</Time>
            <Position>
              <LatitudeDegrees>43.30268363468348979949951171875</LatitudeDegrees>
              <LongitudeDegrees>-2.0681311748921871185302734375</LongitudeDegrees>
            </Position>
            <AltitudeMeters>253.399993896484375</AltitudeMeters>
            <DistanceMeters>NAN</DistanceMeters>
          </Trackpoint>
          <Trackpoint>
            <Time>2022-07-09T17:39:58.000Z</Time>
            <Position>
              <LatitudeDegrees>43.3026926033198833465576171875</LatitudeDegrees>
              <LongitudeDegrees>-2.0681576617062091827392578125</LongitudeDegrees>
            </Position>
            <AltitudeMeters>253.399993896484375</AltitudeMeters>
            <DistanceMeters>NAN</DistanceMeters>
          </Trackpoint>
          <Trackpoint>
            <Time>2022-07-09T17:40:00.000Z</Time>
            <Position>
              <LatitudeDegrees>43.30270425416529178619384765625</LatitudeDegrees>
              <LongitudeDegrees>-2.06820602528750896453857421875</LongitudeDegrees>
            </Position>
            <AltitudeMeters>253.1999969482421875</AltitudeMeters>
            <DistanceMeters>NAN</DistanceMeters>
          </Trackpoint>
          <Trackpoint>
            <Time>2022-07-09T17:40:03.000Z</Time>
            <Position>
              <LatitudeDegrees>43.3027117140591144561767578125</LatitudeDegrees>
              <LongitudeDegrees>-2.068314068019390106201171875</LongitudeDegrees>
            </Position>
            <AltitudeMeters>252.600006103515625</AltitudeMeters>
            <DistanceMeters>NAN</DistanceMeters>
          </Trackpoint>
          <Trackpoint>
            <Time>2022-07-09T17:40:07.000Z</Time>
            <Position>
              <LatitudeDegrees>43.30267709679901599884033203125</LatitudeDegrees>
              <LongitudeDegrees>-2.068438790738582611083984375</LongitudeDegrees>
            </Position>
            <AltitudeMeters>252</AltitudeMeters>
            <DistanceMeters>NAN</DistanceMeters>
          </Trackpoint>
          <Trackpoint>
            <Time>2022-07-09T17:40:09.000Z</Time>
            <Position>
              <LatitudeDegrees>43.30266485922038555145263671875</LatitudeDegrees>
              <LongitudeDegrees>-2.06850023008882999420166015625</LongitudeDegrees>
            </Position>
            <AltitudeMeters>251.8000030517578125</AltitudeMeters>
            <DistanceMeters>NAN</DistanceMeters>
          </Trackpoint>
          <Trackpoint>
            <Time>2022-07-09T17:40:13.000Z</Time>
            <Position>
              <LatitudeDegrees>43.302625380456447601318359375</LatitudeDegrees>
              <LongitudeDegrees>-2.06861003302037715911865234375</LongitudeDegrees>
            </Position>
            <AltitudeMeters>251.1999969482421875</AltitudeMeters>
            <DistanceMeters>NAN</DistanceMeters>
          </Trackpoint>
          <Trackpoint>
            <Time>2022-07-09T17:40:15.000Z</Time>
            <Position>
              <LatitudeDegrees>43.30261071212589740753173828125</LatitudeDegrees>
              <LongitudeDegrees>-2.068681530654430389404296875</LongitudeDegrees>
            </Position>
            <AltitudeMeters>251</AltitudeMeters>
            <DistanceMeters>NAN</DistanceMeters>
          </Trackpoint>
          <Trackpoint>
            <Time>2022-07-09T17:40:16.000Z</Time>
            <Position>
              <LatitudeDegrees>43.3026020787656307220458984375</LatitudeDegrees>
              <LongitudeDegrees>-2.0687098614871501922607421875</LongitudeDegrees>
            </Position>
            <AltitudeMeters>250.8000030517578125</AltitudeMeters>
            <DistanceMeters>NAN</DistanceMeters>
          </Trackpoint>
          <Trackpoint>
            <Time>2022-07-09T17:40:19.000Z</Time>
            <Position>
              <LatitudeDegrees>43.30258875153958797454833984375</LatitudeDegrees>
              <LongitudeDegrees>-2.06880399025976657867431640625</LongitudeDegrees>
            </Position>
            <AltitudeMeters>250.8000030517578125</AltitudeMeters>
            <DistanceMeters>NAN</DistanceMeters>
          </Trackpoint>
          <Trackpoint>
            <Time>2022-07-09T17:40:20.000Z</Time>
            <Position>
              <LatitudeDegrees>43.3025755919516086578369140625</LatitudeDegrees>
              <LongitudeDegrees>-2.0688262023031711578369140625</LongitudeDegrees>
            </Position>
            <AltitudeMeters>250.8000030517578125</AltitudeMeters>
            <DistanceMeters>NAN</DistanceMeters>
          </Trackpoint>
          <Trackpoint>
            <Time>2022-07-09T17:40:26.000Z</Time>
            <Position>
              <LatitudeDegrees>43.30253611318767070770263671875</LatitudeDegrees>
              <LongitudeDegrees>-2.0689636655151844024658203125</LongitudeDegrees>
            </Position>
            <AltitudeMeters>251.1999969482421875</AltitudeMeters>
            <DistanceMeters>NAN</DistanceMeters>
          </Trackpoint>
          <Trackpoint>
            <Time>2022-07-09T17:40:27.000Z</Time>
            <Position>
              <LatitudeDegrees>43.302516750991344451904296875</LatitudeDegrees>
              <LongitudeDegrees>-2.0689908228814601898193359375</LongitudeDegrees>
            </Position>
            <AltitudeMeters>251.1999969482421875</AltitudeMeters>
            <DistanceMeters>NAN</DistanceMeters>
          </Trackpoint>
          <Trackpoint>
            <Time>2022-07-09T17:40:30.000Z</Time>
            <Position>
              <LatitudeDegrees>43.30250711180269718170166015625</LatitudeDegrees>
              <LongitudeDegrees>-2.0690692774951457977294921875</LongitudeDegrees>
            </Position>
            <AltitudeMeters>251.600006103515625</AltitudeMeters>
            <DistanceMeters>NAN</DistanceMeters>
          </Trackpoint>
          <Trackpoint>
            <Time>2022-07-09T17:40:32.000Z</Time>
            <Position>
              <LatitudeDegrees>43.3025229535996913909912109375</LatitudeDegrees>
              <LongitudeDegrees>-2.0691239275038242340087890625</LongitudeDegrees>
            </Position>
            <AltitudeMeters>251.8000030517578125</AltitudeMeters>
            <DistanceMeters>NAN</DistanceMeters>
          </Trackpoint>
          <Trackpoint>
            <Time>2022-07-09T17:40:34.000Z</Time>
            <Position>
              <LatitudeDegrees>43.3025108836591243743896484375</LatitudeDegrees>
              <LongitudeDegrees>-2.06916810013353824615478515625</LongitudeDegrees>
            </Position>
            <AltitudeMeters>252</AltitudeMeters>
            <DistanceMeters>NAN</DistanceMeters>
          </Trackpoint>
          <Trackpoint>
            <Time>2022-07-09T17:40:37.000Z</Time>
            <Position>
              <LatitudeDegrees>43.3024854026734828948974609375</LatitudeDegrees>
              <LongitudeDegrees>-2.0692416094243526458740234375</LongitudeDegrees>
            </Position>
            <AltitudeMeters>252.1999969482421875</AltitudeMeters>
            <DistanceMeters>NAN</DistanceMeters>
          </Trackpoint>
          <Trackpoint>
            <Time>2022-07-09T17:40:40.000Z</Time>
            <Position>
              <LatitudeDegrees>43.30249227583408355712890625</LatitudeDegrees>
              <LongitudeDegrees>-2.06930707208812236785888671875</LongitudeDegrees>
            </Position>
            <AltitudeMeters>252.1999969482421875</AltitudeMeters>
            <DistanceMeters>NAN</DistanceMeters>
          </Trackpoint>
          <Trackpoint>
            <Time>2022-07-09T17:40:42.000Z</Time>
            <Position>
              <LatitudeDegrees>43.30249688588082790374755859375</LatitudeDegrees>
              <LongitudeDegrees>-2.06935954280197620391845703125</LongitudeDegrees>
            </Position>
            <AltitudeMeters>252.1999969482421875</AltitudeMeters>
            <DistanceMeters>NAN</DistanceMeters>
          </Trackpoint>
          <Trackpoint>
            <Time>2022-07-09T17:40:43.000Z</Time>
            <Position>
              <LatitudeDegrees>43.30250945873558521270751953125</LatitudeDegrees>
              <LongitudeDegrees>-2.0693867839872837066650390625</LongitudeDegrees>
            </Position>
            <AltitudeMeters>252</AltitudeMeters>
            <DistanceMeters>NAN</DistanceMeters>
          </Trackpoint>
          <Trackpoint>
            <Time>2022-07-09T17:40:44.000Z</Time>
            <Position>
              <LatitudeDegrees>43.30252622254192829132080078125</LatitudeDegrees>
              <LongitudeDegrees>-2.069407403469085693359375</LongitudeDegrees>
            </Position>
            <AltitudeMeters>252</AltitudeMeters>
            <DistanceMeters>NAN</DistanceMeters>
          </Trackpoint>
          <Trackpoint>
            <Time>2022-07-09T17:40:47.000Z</Time>
            <Position>
              <LatitudeDegrees>43.3024981431663036346435546875</LatitudeDegrees>
              <LongitudeDegrees>-2.06944822333753108978271484375</LongitudeDegrees>
            </Position>
            <AltitudeMeters>252</AltitudeMeters>
            <DistanceMeters>NAN</DistanceMeters>
          </Trackpoint>
          <Trackpoint>
            <Time>2022-07-09T17:40:51.000Z</Time>
            <Position>
              <LatitudeDegrees>43.3024974726140499114990234375</LatitudeDegrees>
              <LongitudeDegrees>-2.069453336298465728759765625</LongitudeDegrees>
            </Position>
            <AltitudeMeters>252</AltitudeMeters>
            <DistanceMeters>NAN</DistanceMeters>
          </Trackpoint>
          <Trackpoint>
            <Time>2022-07-09T17:42:19.000Z</Time>
            <Position>
              <LatitudeDegrees>43.30240518786013126373291015625</LatitudeDegrees>
              <LongitudeDegrees>-2.0696670748293399810791015625</LongitudeDegrees>
            </Position>
            <AltitudeMeters>251.600006103515625</AltitudeMeters>
            <DistanceMeters>NAN</DistanceMeters>
          </Trackpoint>
          <Trackpoint>
            <Time>2022-07-09T17:42:20.000Z</Time>
            <Position>
              <LatitudeDegrees>43.3023963868618011474609375</LatitudeDegrees>
              <LongitudeDegrees>-2.06969632767140865325927734375</LongitudeDegrees>
            </Position>
            <AltitudeMeters>251.600006103515625</AltitudeMeters>
            <DistanceMeters>NAN</DistanceMeters>
          </Trackpoint>
          <Trackpoint>
            <Time>2022-07-09T17:42:22.000Z</Time>
            <Position>
              <LatitudeDegrees>43.30236897803843021392822265625</LatitudeDegrees>
              <LongitudeDegrees>-2.0697435177862644195556640625</LongitudeDegrees>
            </Position>
            <AltitudeMeters>250.399993896484375</AltitudeMeters>
            <DistanceMeters>NAN</DistanceMeters>
          </Trackpoint>
          <Trackpoint>
            <Time>2022-07-09T17:42:24.000Z</Time>
            <Position>
              <LatitudeDegrees>43.302361853420734405517578125</LatitudeDegrees>
              <LongitudeDegrees>-2.06977008841931819915771484375</LongitudeDegrees>
            </Position>
            <AltitudeMeters>249</AltitudeMeters>
            <DistanceMeters>NAN</DistanceMeters>
          </Trackpoint>
          <Trackpoint>
            <Time>2022-07-09T17:42:26.000Z</Time>
            <Position>
              <LatitudeDegrees>43.30234500579535961151123046875</LatitudeDegrees>
              <LongitudeDegrees>-2.06981451250612735748291015625</LongitudeDegrees>
            </Position>
            <AltitudeMeters>248.399993896484375</AltitudeMeters>
            <DistanceMeters>NAN</DistanceMeters>
          </Trackpoint>
          <Trackpoint>
            <Time>2022-07-09T17:42:27.000Z</Time>
            <Position>
              <LatitudeDegrees>43.30233260057866573333740234375</LatitudeDegrees>
              <LongitudeDegrees>-2.06983127631247043609619140625</LongitudeDegrees>
            </Position>
            <AltitudeMeters>248.1999969482421875</AltitudeMeters>
            <DistanceMeters>NAN</DistanceMeters>
          </Trackpoint>
          <Trackpoint>
            <Time>2022-07-09T17:42:28.000Z</Time>
            <Position>
              <LatitudeDegrees>43.30232505686581134796142578125</LatitudeDegrees>
              <LongitudeDegrees>-2.0698486268520355224609375</LongitudeDegrees>
            </Position>
            <AltitudeMeters>248</AltitudeMeters>
            <DistanceMeters>NAN</DistanceMeters>
          </Trackpoint>
          <Trackpoint>
            <Time>2022-07-09T17:42:29.000Z</Time>
            <Position>
              <LatitudeDegrees>43.30231684260070323944091796875</LatitudeDegrees>
              <LongitudeDegrees>-2.06987150944769382476806640625</LongitudeDegrees>
            </Position>
            <AltitudeMeters>247.8000030517578125</AltitudeMeters>
            <DistanceMeters>NAN</DistanceMeters>
          </Trackpoint>
          <Trackpoint>
            <Time>2022-07-09T17:42:32.000Z</Time>
            <Position>
              <LatitudeDegrees>43.30229287035763263702392578125</LatitudeDegrees>
              <LongitudeDegrees>-2.06993889994919300079345703125</LongitudeDegrees>
            </Position>
            <AltitudeMeters>247</AltitudeMeters>
            <DistanceMeters>NAN</DistanceMeters>
          </Trackpoint>
          <Trackpoint>
            <Time>2022-07-09T17:42:33.000Z</Time>
            <Position>
              <LatitudeDegrees>43.3022768609225749969482421875</LatitudeDegrees>
              <LongitudeDegrees>-2.0699594356119632720947265625</LongitudeDegrees>
            </Position>
            <AltitudeMeters>247</AltitudeMeters>
            <DistanceMeters>NAN</DistanceMeters>
          </Trackpoint>
          <Trackpoint>
            <Time>2022-07-09T17:42:37.000Z</Time>
            <Position>
              <LatitudeDegrees>43.302257917821407318115234375</LatitudeDegrees>
              <LongitudeDegrees>-2.07007954828441143035888671875</LongitudeDegrees>
            </Position>
            <AltitudeMeters>245.600006103515625</AltitudeMeters>
            <DistanceMeters>NAN</DistanceMeters>
          </Trackpoint>
          <Trackpoint>
            <Time>2022-07-09T17:42:38.000Z</Time>
            <Position>
              <LatitudeDegrees>43.302246518433094024658203125</LatitudeDegrees>
              <LongitudeDegrees>-2.070104442536830902099609375</LongitudeDegrees>
            </Position>
            <AltitudeMeters>245.1999969482421875</AltitudeMeters>
            <DistanceMeters>NAN</DistanceMeters>
          </Trackpoint>
          <Trackpoint>
            <Time>2022-07-09T17:42:41.000Z</Time>
            <Position>
              <LatitudeDegrees>43.30221743322908878326416015625</LatitudeDegrees>
              <LongitudeDegrees>-2.07017384469509124755859375</LongitudeDegrees>
            </Position>
            <AltitudeMeters>244.600006103515625</AltitudeMeters>
            <DistanceMeters>NAN</DistanceMeters>
          </Trackpoint>
          <Trackpoint>
            <Time>2022-07-09T17:42:43.000Z</Time>
            <Position>
              <LatitudeDegrees>43.3021883480250835418701171875</LatitudeDegrees>
              <LongitudeDegrees>-2.0702160894870758056640625</LongitudeDegrees>
            </Position>
            <AltitudeMeters>243.600006103515625</AltitudeMeters>
            <DistanceMeters>NAN</DistanceMeters>
          </Trackpoint>
          <Trackpoint>
            <Time>2022-07-09T17:42:44.000Z</Time>
            <Position>
              <LatitudeDegrees>43.30217418260872364044189453125</LatitudeDegrees>
              <LongitudeDegrees>-2.070238888263702392578125</LongitudeDegrees>
            </Position>
            <AltitudeMeters>243.1999969482421875</AltitudeMeters>
            <DistanceMeters>NAN</DistanceMeters>
          </Trackpoint>
          <Trackpoint>
            <Time>2022-07-09T17:42:48.000Z</Time>
            <Position>
              <LatitudeDegrees>43.30211819149553775787353515625</LatitudeDegrees>
              <LongitudeDegrees>-2.07030435092747211456298828125</LongitudeDegrees>
            </Position>
            <AltitudeMeters>242</AltitudeMeters>
            <DistanceMeters>NAN</DistanceMeters>
          </Trackpoint>
          <Trackpoint>
            <Time>2022-07-09T17:42:49.000Z</Time>
            <Position>
              <LatitudeDegrees>43.30210276879370212554931640625</LatitudeDegrees>
              <LongitudeDegrees>-2.0703181810677051544189453125</LongitudeDegrees>
            </Position>
            <AltitudeMeters>241.8000030517578125</AltitudeMeters>
            <DistanceMeters>NAN</DistanceMeters>
          </Trackpoint>
          <Trackpoint>
            <Time>2022-07-09T17:42:51.000Z</Time>
            <Position>
              <LatitudeDegrees>43.3020780421793460845947265625</LatitudeDegrees>
              <LongitudeDegrees>-2.07034693099558353424072265625</LongitudeDegrees>
            </Position>
            <AltitudeMeters>241.399993896484375</AltitudeMeters>
            <DistanceMeters>NAN</DistanceMeters>
          </Trackpoint>
          <Trackpoint>
            <Time>2022-07-09T17:42:53.000Z</Time>
            <Position>
              <LatitudeDegrees>43.3020503818988800048828125</LatitudeDegrees>
              <LongitudeDegrees>-2.070371322333812713623046875</LongitudeDegrees>
            </Position>
            <AltitudeMeters>241</AltitudeMeters>
            <DistanceMeters>NAN</DistanceMeters>
          </Trackpoint>
          <Trackpoint>
            <Time>2022-07-09T17:42:55.000Z</Time>
            <Position>
              <LatitudeDegrees>43.30202163197100162506103515625</LatitudeDegrees>
              <LongitudeDegrees>-2.07039621658623218536376953125</LongitudeDegrees>
            </Position>
            <AltitudeMeters>240.399993896484375</AltitudeMeters>
            <DistanceMeters>NAN</DistanceMeters>
          </Trackpoint>
          <Trackpoint>
            <Time>2022-07-09T17:42:56.000Z</Time>
            <Position>
              <LatitudeDegrees>43.30201878212392330169677734375</LatitudeDegrees>
              <LongitudeDegrees>-2.0704103820025920867919921875</LongitudeDegrees>
            </Position>
            <AltitudeMeters>240.1999969482421875</AltitudeMeters>
            <DistanceMeters>NAN</DistanceMeters>
          </Trackpoint>
          <Trackpoint>
            <Time>2022-07-09T17:42:58.000Z</Time>
            <Position>
              <LatitudeDegrees>43.3020197041332721710205078125</LatitudeDegrees>
              <LongitudeDegrees>-2.07041499204933643341064453125</LongitudeDegrees>
            </Position>
            <AltitudeMeters>239.8000030517578125</AltitudeMeters>
            <DistanceMeters>NAN</DistanceMeters>
          </Trackpoint>
          <Trackpoint>
            <Time>2022-07-09T17:42:59.000Z</Time>
            <Position>
              <LatitudeDegrees>43.3020197041332721710205078125</LatitudeDegrees>
              <LongitudeDegrees>-2.07041499204933643341064453125</LongitudeDegrees>
            </Position>
            <AltitudeMeters>239.600006103515625</AltitudeMeters>
            <DistanceMeters>NAN</DistanceMeters>
          </Trackpoint>
          <Trackpoint>
            <Time>2022-07-09T17:43:06.000Z</Time>
            <Position>
              <LatitudeDegrees>43.3020300976932048797607421875</LatitudeDegrees>
              <LongitudeDegrees>-2.0705039240419864654541015625</LongitudeDegrees>
            </Position>
            <AltitudeMeters>238.8000030517578125</AltitudeMeters>
            <DistanceMeters>NAN</DistanceMeters>
          </Trackpoint>
          <Trackpoint>
            <Time>2022-07-09T17:43:07.000Z</Time>
            <Position>
              <LatitudeDegrees>43.30204845406115055084228515625</LatitudeDegrees>
              <LongitudeDegrees>-2.07054189406335353851318359375</LongitudeDegrees>
            </Position>
            <AltitudeMeters>238.600006103515625</AltitudeMeters>
            <DistanceMeters>NAN</DistanceMeters>
          </Trackpoint>
          <Trackpoint>
            <Time>2022-07-09T17:43:12.000Z</Time>
            <Position>
              <LatitudeDegrees>43.3021201193332672119140625</LatitudeDegrees>
              <LongitudeDegrees>-2.07067432813346385955810546875</LongitudeDegrees>
            </Position>
            <AltitudeMeters>237.600006103515625</AltitudeMeters>
            <DistanceMeters>NAN</DistanceMeters>
          </Trackpoint>
          <Trackpoint>
            <Time>2022-07-09T17:43:13.000Z</Time>
            <Position>
              <LatitudeDegrees>43.30212305299937725067138671875</LatitudeDegrees>
              <LongitudeDegrees>-2.07068036310374736785888671875</LongitudeDegrees>
            </Position>
            <AltitudeMeters>237.399993896484375</AltitudeMeters>
            <DistanceMeters>NAN</DistanceMeters>
          </Trackpoint>
          <Trackpoint>
            <Time>2022-07-09T17:43:16.000Z</Time>
            <Position>
              <LatitudeDegrees>43.30212305299937725067138671875</LatitudeDegrees>
              <LongitudeDegrees>-2.07068036310374736785888671875</LongitudeDegrees>
            </Position>
            <AltitudeMeters>237.1999969482421875</AltitudeMeters>
            <DistanceMeters>NAN</DistanceMeters>
          </Trackpoint>
          <Trackpoint>
            <Time>2022-07-09T17:43:59.000Z</Time>
            <Position>
              <LatitudeDegrees>43.3025477640330791473388671875</LatitudeDegrees>
              <LongitudeDegrees>-2.071228958666324615478515625</LongitudeDegrees>
            </Position>
            <AltitudeMeters>234.399993896484375</AltitudeMeters>
            <DistanceMeters>NAN</DistanceMeters>
          </Trackpoint>
          <Trackpoint>
            <Time>2022-07-09T17:44:00.000Z</Time>
            <Position>
              <LatitudeDegrees>43.30256427638232707977294921875</LatitudeDegrees>
              <LongitudeDegrees>-2.07128620706498622894287109375</LongitudeDegrees>
            </Position>
            <AltitudeMeters>234.399993896484375</AltitudeMeters>
            <DistanceMeters>NAN</DistanceMeters>
          </Trackpoint>
          <Trackpoint>
            <Time>2022-07-09T17:44:04.000Z</Time>
            <Position>
              <LatitudeDegrees>43.30256511457264423370361328125</LatitudeDegrees>
              <LongitudeDegrees>-2.0713855326175689697265625</LongitudeDegrees>
            </Position>
            <AltitudeMeters>234.1999969482421875</AltitudeMeters>
            <DistanceMeters>NAN</DistanceMeters>
          </Trackpoint>
          <Trackpoint>
            <Time>2022-07-09T17:44:05.000Z</Time>
            <Position>
              <LatitudeDegrees>43.3025648631155490875244140625</LatitudeDegrees>
              <LongitudeDegrees>-2.0713917352259159088134765625</LongitudeDegrees>
            </Position>
            <AltitudeMeters>234.1999969482421875</AltitudeMeters>
            <DistanceMeters>NAN</DistanceMeters>
          </Trackpoint>
          <Trackpoint>
            <Time>2022-07-09T17:44:10.000Z</Time>
            <Position>
              <LatitudeDegrees>43.30259880982339382171630859375</LatitudeDegrees>
              <LongitudeDegrees>-2.0714597962796688079833984375</LongitudeDegrees>
            </Position>
            <AltitudeMeters>234.8000030517578125</AltitudeMeters>
            <DistanceMeters>NAN</DistanceMeters>
          </Trackpoint>
          <Trackpoint>
            <Time>2022-07-09T17:44:11.000Z</Time>
            <Position>
              <LatitudeDegrees>43.3025980554521083831787109375</LatitudeDegrees>
              <LongitudeDegrees>-2.071485780179500579833984375</LongitudeDegrees>
            </Position>
            <AltitudeMeters>234.8000030517578125</AltitudeMeters>
            <DistanceMeters>NAN</DistanceMeters>
          </Trackpoint>
          <Trackpoint>
            <Time>2022-07-09T17:44:17.000Z</Time>
            <Position>
              <LatitudeDegrees>43.302553631365299224853515625</LatitudeDegrees>
              <LongitudeDegrees>-2.07158644683659076690673828125</LongitudeDegrees>
            </Position>
            <AltitudeMeters>235.600006103515625</AltitudeMeters>
            <DistanceMeters>NAN</DistanceMeters>
          </Trackpoint>
          <Trackpoint>
            <Time>2022-07-09T17:44:19.000Z</Time>
            <Position>
              <LatitudeDegrees>43.3025484345853328704833984375</LatitudeDegrees>
              <LongitudeDegrees>-2.0716483891010284423828125</LongitudeDegrees>
            </Position>
            <AltitudeMeters>235.8000030517578125</AltitudeMeters>
            <DistanceMeters>NAN</DistanceMeters>
          </Trackpoint>
          <Trackpoint>
            <Time>2022-07-09T17:44:21.000Z</Time>
            <Position>
              <LatitudeDegrees>43.3025420643389225006103515625</LatitudeDegrees>
              <LongitudeDegrees>-2.0717055536806583404541015625</LongitudeDegrees>
            </Position>
            <AltitudeMeters>236</AltitudeMeters>
            <DistanceMeters>NAN</DistanceMeters>
          </Trackpoint>
          <Trackpoint>
            <Time>2022-07-09T17:44:24.000Z</Time>
            <Position>
              <LatitudeDegrees>43.3025370351970195770263671875</LatitudeDegrees>
              <LongitudeDegrees>-2.07178710959851741790771484375</LongitudeDegrees>
            </Position>
            <AltitudeMeters>236.600006103515625</AltitudeMeters>
            <DistanceMeters>NAN</DistanceMeters>
          </Trackpoint>
          <Trackpoint>
            <Time>2022-07-09T17:44:25.000Z</Time>
            <Position>
              <LatitudeDegrees>43.3025393821299076080322265625</LatitudeDegrees>
              <LongitudeDegrees>-2.07181267440319061279296875</LongitudeDegrees>
            </Position>
            <AltitudeMeters>236.8000030517578125</AltitudeMeters>
            <DistanceMeters>NAN</DistanceMeters>
          </Trackpoint>
          <Trackpoint>
            <Time>2022-07-09T17:44:26.000Z</Time>
            <Position>
              <LatitudeDegrees>43.30253292806446552276611328125</LatitudeDegrees>
              <LongitudeDegrees>-2.0718379877507686614990234375</LongitudeDegrees>
            </Position>
            <AltitudeMeters>237</AltitudeMeters>
            <DistanceMeters>NAN</DistanceMeters>
          </Trackpoint>
          <Trackpoint>
            <Time>2022-07-09T17:44:28.000Z</Time>
            <Position>
              <LatitudeDegrees>43.302516750991344451904296875</LatitudeDegrees>
              <LongitudeDegrees>-2.0718825794756412506103515625</LongitudeDegrees>
            </Position>
            <AltitudeMeters>237</AltitudeMeters>
            <DistanceMeters>NAN</DistanceMeters>
          </Trackpoint>
          <Trackpoint>
            <Time>2022-07-09T17:44:30.000Z</Time>
            <Position>
              <LatitudeDegrees>43.3025117218494415283203125</LatitudeDegrees>
              <LongitudeDegrees>-2.0719348825514316558837890625</LongitudeDegrees>
            </Position>
            <AltitudeMeters>237.1999969482421875</AltitudeMeters>
            <DistanceMeters>NAN</DistanceMeters>
          </Trackpoint>
          <Trackpoint>
            <Time>2022-07-09T17:44:31.000Z</Time>
            <Position>
              <LatitudeDegrees>43.3025105483829975128173828125</LatitudeDegrees>
              <LongitudeDegrees>-2.0719526521861553192138671875</LongitudeDegrees>
            </Position>
            <AltitudeMeters>237.399993896484375</AltitudeMeters>
            <DistanceMeters>NAN</DistanceMeters>
          </Trackpoint>
          <Trackpoint>
            <Time>2022-07-09T17:44:33.000Z</Time>
            <Position>
              <LatitudeDegrees>43.302507698535919189453125</LatitudeDegrees>
              <LongitudeDegrees>-2.07199699245393276214599609375</LongitudeDegrees>
            </Position>
            <AltitudeMeters>237.8000030517578125</AltitudeMeters>
            <DistanceMeters>NAN</DistanceMeters>
          </Trackpoint>
          <Trackpoint>
            <Time>2022-07-09T17:44:35.000Z</Time>
            <Position>
              <LatitudeDegrees>43.302508033812046051025390625</LatitudeDegrees>
              <LongitudeDegrees>-2.07203789614140987396240234375</LongitudeDegrees>
            </Position>
            <AltitudeMeters>238</AltitudeMeters>
            <DistanceMeters>NAN</DistanceMeters>
          </Trackpoint>
          <Trackpoint>
            <Time>2022-07-09T17:44:41.000Z</Time>
            <Position>
              <LatitudeDegrees>43.302479870617389678955078125</LatitudeDegrees>
              <LongitudeDegrees>-2.07215624861419200897216796875</LongitudeDegrees>
            </Position>
            <AltitudeMeters>238.8000030517578125</AltitudeMeters>
            <DistanceMeters>NAN</DistanceMeters>
          </Trackpoint>
          <Trackpoint>
            <Time>2022-07-09T17:44:43.000Z</Time>
            <Position>
              <LatitudeDegrees>43.3024659566581249237060546875</LatitudeDegrees>
              <LongitudeDegrees>-2.07218684256076812744140625</LongitudeDegrees>
            </Position>
            <AltitudeMeters>239</AltitudeMeters>
            <DistanceMeters>NAN</DistanceMeters>
          </Trackpoint>
          <Trackpoint>
            <Time>2022-07-09T17:44:50.000Z</Time>
            <Position>
              <LatitudeDegrees>43.3024473488330841064453125</LatitudeDegrees>
              <LongitudeDegrees>-2.072309218347072601318359375</LongitudeDegrees>
            </Position>
            <AltitudeMeters>239.399993896484375</AltitudeMeters>
            <DistanceMeters>NAN</DistanceMeters>
          </Trackpoint>
          <Trackpoint>
            <Time>2022-07-09T17:44:57.000Z</Time>
            <Position>
              <LatitudeDegrees>43.3023844845592975616455078125</LatitudeDegrees>
              <LongitudeDegrees>-2.0724760182201862335205078125</LongitudeDegrees>
            </Position>
            <AltitudeMeters>239</AltitudeMeters>
            <DistanceMeters>NAN</DistanceMeters>
          </Trackpoint>
          <Trackpoint>
            <Time>2022-07-09T17:44:59.000Z</Time>
            <Position>
              <LatitudeDegrees>43.302368223667144775390625</LatitudeDegrees>
              <LongitudeDegrees>-2.07252253778278827667236328125</LongitudeDegrees>
            </Position>
            <AltitudeMeters>238.8000030517578125</AltitudeMeters>
            <DistanceMeters>NAN</DistanceMeters>
          </Trackpoint>
          <Trackpoint>
            <Time>2022-07-09T17:45:00.000Z</Time>
            <Position>
              <LatitudeDegrees>43.3023593388497829437255859375</LatitudeDegrees>
              <LongitudeDegrees>-2.07253544591367244720458984375</LongitudeDegrees>
            </Position>
            <AltitudeMeters>238.8000030517578125</AltitudeMeters>
            <DistanceMeters>NAN</DistanceMeters>
          </Trackpoint>
          <Trackpoint>
            <Time>2022-07-09T17:45:01.000Z</Time>
            <Position>
              <LatitudeDegrees>43.30235548317432403564453125</LatitudeDegrees>
              <LongitudeDegrees>-2.07255388610064983367919921875</LongitudeDegrees>
            </Position>
            <AltitudeMeters>238.8000030517578125</AltitudeMeters>
            <DistanceMeters>NAN</DistanceMeters>
          </Trackpoint>
          <Trackpoint>
            <Time>2022-07-09T17:45:02.000Z</Time>
            <Position>
              <LatitudeDegrees>43.3023600094020366668701171875</LatitudeDegrees>
              <LongitudeDegrees>-2.07257517613470554351806640625</LongitudeDegrees>
            </Position>
            <AltitudeMeters>239</AltitudeMeters>
            <DistanceMeters>NAN</DistanceMeters>
          </Trackpoint>
          <Trackpoint>
            <Time>2022-07-09T17:45:04.000Z</Time>
            <Position>
              <LatitudeDegrees>43.30237719230353832244873046875</LatitudeDegrees>
              <LongitudeDegrees>-2.0726235397160053253173828125</LongitudeDegrees>
            </Position>
            <AltitudeMeters>239</AltitudeMeters>
            <DistanceMeters>NAN</DistanceMeters>
          </Trackpoint>
          <Trackpoint>
            <Time>2022-07-09T17:45:06.000Z</Time>
            <Position>
              <LatitudeDegrees>43.30238104797899723052978515625</LatitudeDegrees>
              <LongitudeDegrees>-2.07266771234571933746337890625</LongitudeDegrees>
            </Position>
            <AltitudeMeters>239</AltitudeMeters>
            <DistanceMeters>NAN</DistanceMeters>
          </Trackpoint>
          <Trackpoint>
            <Time>2022-07-09T17:45:10.000Z</Time>
            <Position>
              <LatitudeDegrees>43.30237853340804576873779296875</LatitudeDegrees>
              <LongitudeDegrees>-2.0727382041513919830322265625</LongitudeDegrees>
            </Position>
            <AltitudeMeters>239</AltitudeMeters>
            <DistanceMeters>NAN</DistanceMeters>
          </Trackpoint>
          <Trackpoint>
            <Time>2022-07-09T17:45:12.000Z</Time>
            <Position>
              <LatitudeDegrees>43.30238289199769496917724609375</LatitudeDegrees>
              <LongitudeDegrees>-2.07277902401983737945556640625</LongitudeDegrees>
            </Position>
            <AltitudeMeters>239</AltitudeMeters>
            <DistanceMeters>NAN</DistanceMeters>
          </Trackpoint>
          <Trackpoint>
            <Time>2022-07-09T17:45:15.000Z</Time>
            <Position>
              <LatitudeDegrees>43.30241256393492221832275390625</LatitudeDegrees>
              <LongitudeDegrees>-2.07284457050263881683349609375</LongitudeDegrees>
            </Position>
            <AltitudeMeters>239.1999969482421875</AltitudeMeters>
            <DistanceMeters>NAN</DistanceMeters>
          </Trackpoint>
          <Trackpoint>
            <Time>2022-07-09T17:45:17.000Z</Time>
            <Position>
              <LatitudeDegrees>43.30241256393492221832275390625</LatitudeDegrees>
              <LongitudeDegrees>-2.07284457050263881683349609375</LongitudeDegrees>
            </Position>
            <AltitudeMeters>239.1999969482421875</AltitudeMeters>
            <DistanceMeters>NAN</DistanceMeters>
          </Trackpoint>
          <Trackpoint>
            <Time>2022-07-09T17:45:50.000Z</Time>
            <Position>
              <LatitudeDegrees>43.30239563249051570892333984375</LatitudeDegrees>
              <LongitudeDegrees>-2.0730645954608917236328125</LongitudeDegrees>
            </Position>
            <AltitudeMeters>242.1999969482421875</AltitudeMeters>
            <DistanceMeters>NAN</DistanceMeters>
          </Trackpoint>
          <Trackpoint>
            <Time>2022-07-09T17:45:51.000Z</Time>
            <Position>
              <LatitudeDegrees>43.3023851551115512847900390625</LatitudeDegrees>
              <LongitudeDegrees>-2.0730741508305072784423828125</LongitudeDegrees>
            </Position>
            <AltitudeMeters>242.399993896484375</AltitudeMeters>
            <DistanceMeters>NAN</DistanceMeters>
          </Trackpoint>
          <Trackpoint>
            <Time>2022-07-09T17:45:59.000Z</Time>
            <Position>
              <LatitudeDegrees>43.30226789228618144989013671875</LatitudeDegrees>
              <LongitudeDegrees>-2.0731385238468647003173828125</LongitudeDegrees>
            </Position>
            <AltitudeMeters>242.8000030517578125</AltitudeMeters>
            <DistanceMeters>NAN</DistanceMeters>
          </Trackpoint>
          <Trackpoint>
            <Time>2022-07-09T17:46:07.000Z</Time>
            <Position>
              <LatitudeDegrees>43.30216211266815662384033203125</LatitudeDegrees>
              <LongitudeDegrees>-2.07320231013000011444091796875</LongitudeDegrees>
            </Position>
            <AltitudeMeters>243.1999969482421875</AltitudeMeters>
            <DistanceMeters>NAN</DistanceMeters>
          </Trackpoint>
          <Trackpoint>
            <Time>2022-07-09T17:46:08.000Z</Time>
            <Position>
              <LatitudeDegrees>43.30215306021273136138916015625</LatitudeDegrees>
              <LongitudeDegrees>-2.0732052437961101531982421875</LongitudeDegrees>
            </Position>
            <AltitudeMeters>243.1999969482421875</AltitudeMeters>
            <DistanceMeters>NAN</DistanceMeters>
          </Trackpoint>
          <Trackpoint>
            <Time>2022-07-09T17:46:15.000Z</Time>
            <Position>
              <LatitudeDegrees>43.30207259394228458404541015625</LatitudeDegrees>
              <LongitudeDegrees>-2.0732035674154758453369140625</LongitudeDegrees>
            </Position>
            <AltitudeMeters>244.399993896484375</AltitudeMeters>
            <DistanceMeters>NAN</DistanceMeters>
          </Trackpoint>
          <Trackpoint>
            <Time>2022-07-09T17:46:18.000Z</Time>
            <Position>
              <LatitudeDegrees>43.3020689897239208221435546875</LatitudeDegrees>
              <LongitudeDegrees>-2.0732040703296661376953125</LongitudeDegrees>
            </Position>
            <AltitudeMeters>244.8000030517578125</AltitudeMeters>
            <DistanceMeters>NAN</DistanceMeters>
          </Trackpoint>
          <Trackpoint>
            <Time>2022-07-09T17:46:58.000Z</Time>
            <Position>
              <LatitudeDegrees>43.30203705467283725738525390625</LatitudeDegrees>
              <LongitudeDegrees>-2.07318252883851528167724609375</LongitudeDegrees>
            </Position>
            <AltitudeMeters>245.1999969482421875</AltitudeMeters>
            <DistanceMeters>NAN</DistanceMeters>
          </Trackpoint>
          <Trackpoint>
            <Time>2022-07-09T17:46:59.000Z</Time>
            <Position>
              <LatitudeDegrees>43.30204275436699390411376953125</LatitudeDegrees>
              <LongitudeDegrees>-2.0731666870415210723876953125</LongitudeDegrees>
            </Position>
            <AltitudeMeters>245.1999969482421875</AltitudeMeters>
            <DistanceMeters>NAN</DistanceMeters>
          </Trackpoint>
          <Trackpoint>
            <Time>2022-07-09T17:47:02.000Z</Time>
            <Position>
              <LatitudeDegrees>43.302037976682186126708984375</LatitudeDegrees>
              <LongitudeDegrees>-2.073131315410137176513671875</LongitudeDegrees>
            </Position>
            <AltitudeMeters>245.1999969482421875</AltitudeMeters>
            <DistanceMeters>NAN</DistanceMeters>
          </Trackpoint>
          <Trackpoint>
            <Time>2022-07-09T17:47:04.000Z</Time>
            <Position>
              <LatitudeDegrees>43.3020337857306003570556640625</LatitudeDegrees>
              <LongitudeDegrees>-2.0731182396411895751953125</LongitudeDegrees>
            </Position>
            <AltitudeMeters>245.399993896484375</AltitudeMeters>
            <DistanceMeters>NAN</DistanceMeters>
          </Trackpoint>
          <Trackpoint>
            <Time>2022-07-09T17:47:05.000Z</Time>
            <Position>
              <LatitudeDegrees>43.3020337857306003570556640625</LatitudeDegrees>
              <LongitudeDegrees>-2.0731182396411895751953125</LongitudeDegrees>
            </Position>
            <AltitudeMeters>245.399993896484375</AltitudeMeters>
            <DistanceMeters>NAN</DistanceMeters>
          </Trackpoint>
          <Trackpoint>
            <Time>2022-07-09T17:47:06.000Z</Time>
            <Position>
              <LatitudeDegrees>43.3020337857306003570556640625</LatitudeDegrees>
              <LongitudeDegrees>-2.0731182396411895751953125</LongitudeDegrees>
            </Position>
            <AltitudeMeters>245.600006103515625</AltitudeMeters>
            <DistanceMeters>NAN</DistanceMeters>
          </Trackpoint>
          <Trackpoint>
            <Time>2022-07-09T17:48:09.000Z</Time>
            <Position>
              <LatitudeDegrees>43.3020696602761745452880859375</LatitudeDegrees>
              <LongitudeDegrees>-2.0721794664859771728515625</LongitudeDegrees>
            </Position>
            <AltitudeMeters>252.399993896484375</AltitudeMeters>
            <DistanceMeters>NAN</DistanceMeters>
          </Trackpoint>
          <Trackpoint>
            <Time>2022-07-09T17:48:11.000Z</Time>
            <Position>
              <LatitudeDegrees>43.3020649664103984832763671875</LatitudeDegrees>
              <LongitudeDegrees>-2.07215138711035251617431640625</LongitudeDegrees>
            </Position>
            <AltitudeMeters>252.600006103515625</AltitudeMeters>
            <DistanceMeters>NAN</DistanceMeters>
          </Trackpoint>
          <Trackpoint>
            <Time>2022-07-09T17:48:12.000Z</Time>
            <Position>
              <LatitudeDegrees>43.30207116901874542236328125</LatitudeDegrees>
              <LongitudeDegrees>-2.07214124500751495361328125</LongitudeDegrees>
            </Position>
            <AltitudeMeters>252.8000030517578125</AltitudeMeters>
            <DistanceMeters>NAN</DistanceMeters>
          </Trackpoint>
          <Trackpoint>
            <Time>2022-07-09T17:48:14.000Z</Time>
            <Position>
              <LatitudeDegrees>43.30206689424812793731689453125</LatitudeDegrees>
              <LongitudeDegrees>-2.07212112843990325927734375</LongitudeDegrees>
            </Position>
            <AltitudeMeters>253</AltitudeMeters>
            <DistanceMeters>NAN</DistanceMeters>
          </Trackpoint>
          <Trackpoint>
            <Time>2022-07-09T17:48:18.000Z</Time>
            <Position>
              <LatitudeDegrees>43.30207024700939655303955078125</LatitudeDegrees>
              <LongitudeDegrees>-2.07206304185092449188232421875</LongitudeDegrees>
            </Position>
            <AltitudeMeters>253.399993896484375</AltitudeMeters>
            <DistanceMeters>NAN</DistanceMeters>
          </Trackpoint>
          <Trackpoint>
            <Time>2022-07-09T17:48:19.000Z</Time>
            <Position>
              <LatitudeDegrees>43.3020689897239208221435546875</LatitudeDegrees>
              <LongitudeDegrees>-2.07204493694007396697998046875</LongitudeDegrees>
            </Position>
            <AltitudeMeters>253.399993896484375</AltitudeMeters>
            <DistanceMeters>NAN</DistanceMeters>
          </Trackpoint>
          <Trackpoint>
            <Time>2022-07-09T17:48:22.000Z</Time>
            <Position>
              <LatitudeDegrees>43.30207041464745998382568359375</LatitudeDegrees>
              <LongitudeDegrees>-2.07199883647263050079345703125</LongitudeDegrees>
            </Position>
            <AltitudeMeters>253.8000030517578125</AltitudeMeters>
            <DistanceMeters>NAN</DistanceMeters>
          </Trackpoint>
          <Trackpoint>
            <Time>2022-07-09T17:48:27.000Z</Time>
            <Position>
              <LatitudeDegrees>43.3020579256117343902587890625</LatitudeDegrees>
              <LongitudeDegrees>-2.07191459834575653076171875</LongitudeDegrees>
            </Position>
            <AltitudeMeters>254.399993896484375</AltitudeMeters>
            <DistanceMeters>NAN</DistanceMeters>
          </Trackpoint>
          <Trackpoint>
            <Time>2022-07-09T17:48:32.000Z</Time>
            <Position>
              <LatitudeDegrees>43.302054069936275482177734375</LatitudeDegrees>
              <LongitudeDegrees>-2.07183220423758029937744140625</LongitudeDegrees>
            </Position>
            <AltitudeMeters>255</AltitudeMeters>
            <DistanceMeters>NAN</DistanceMeters>
          </Trackpoint>
          <Trackpoint>
            <Time>2022-07-09T17:48:34.000Z</Time>
            <Position>
              <LatitudeDegrees>43.3020596019923686981201171875</LatitudeDegrees>
              <LongitudeDegrees>-2.07180957309901714324951171875</LongitudeDegrees>
            </Position>
            <AltitudeMeters>255.1999969482421875</AltitudeMeters>
            <DistanceMeters>NAN</DistanceMeters>
          </Trackpoint>
          <Trackpoint>
            <Time>2022-07-09T17:48:36.000Z</Time>
            <Position>
              <LatitudeDegrees>43.3020572550594806671142578125</LatitudeDegrees>
              <LongitudeDegrees>-2.07180504687130451202392578125</LongitudeDegrees>
            </Position>
            <AltitudeMeters>255.399993896484375</AltitudeMeters>
            <DistanceMeters>NAN</DistanceMeters>
          </Trackpoint>
          <Trackpoint>
            <Time>2022-07-09T17:48:38.000Z</Time>
            <Position>
              <LatitudeDegrees>43.3020572550594806671142578125</LatitudeDegrees>
              <LongitudeDegrees>-2.07180504687130451202392578125</LongitudeDegrees>
            </Position>
            <AltitudeMeters>255.600006103515625</AltitudeMeters>
            <DistanceMeters>NAN</DistanceMeters>
          </Trackpoint>
          <Trackpoint>
            <Time>2022-07-09T17:48:45.000Z</Time>
            <Position>
              <LatitudeDegrees>43.3020364679396152496337890625</LatitudeDegrees>
              <LongitudeDegrees>-2.071730531752109527587890625</LongitudeDegrees>
            </Position>
            <AltitudeMeters>256.20001220703125</AltitudeMeters>
            <DistanceMeters>NAN</DistanceMeters>
          </Trackpoint>
          <Trackpoint>
            <Time>2022-07-09T17:48:46.000Z</Time>
            <Position>
              <LatitudeDegrees>43.30203227698802947998046875</LatitudeDegrees>
              <LongitudeDegrees>-2.07171033136546611785888671875</LongitudeDegrees>
            </Position>
            <AltitudeMeters>256.399993896484375</AltitudeMeters>
            <DistanceMeters>NAN</DistanceMeters>
          </Trackpoint>
          <Trackpoint>
            <Time>2022-07-09T17:48:51.000Z</Time>
            <Position>
              <LatitudeDegrees>43.30201710574328899383544921875</LatitudeDegrees>
              <LongitudeDegrees>-2.07162148319184780120849609375</LongitudeDegrees>
            </Position>
            <AltitudeMeters>257</AltitudeMeters>
            <DistanceMeters>NAN</DistanceMeters>
          </Trackpoint>
          <Trackpoint>
            <Time>2022-07-09T17:48:53.000Z</Time>
            <Position>
              <LatitudeDegrees>43.301997072994709014892578125</LatitudeDegrees>
              <LongitudeDegrees>-2.0715878717601299285888671875</LongitudeDegrees>
            </Position>
            <AltitudeMeters>257.399993896484375</AltitudeMeters>
            <DistanceMeters>NAN</DistanceMeters>
          </Trackpoint>
          <Trackpoint>
            <Time>2022-07-09T17:48:55.000Z</Time>
            <Position>
              <LatitudeDegrees>43.30198089592158794403076171875</LatitudeDegrees>
              <LongitudeDegrees>-2.07153732888400554656982421875</LongitudeDegrees>
            </Position>
            <AltitudeMeters>257.600006103515625</AltitudeMeters>
            <DistanceMeters>NAN</DistanceMeters>
          </Trackpoint>
          <Trackpoint>
            <Time>2022-07-09T17:48:57.000Z</Time>
            <Position>
              <LatitudeDegrees>43.30197955481708049774169921875</LatitudeDegrees>
              <LongitudeDegrees>-2.0715094171464443206787109375</LongitudeDegrees>
            </Position>
            <AltitudeMeters>258</AltitudeMeters>
            <DistanceMeters>NAN</DistanceMeters>
          </Trackpoint>
          <Trackpoint>
            <Time>2022-07-09T17:48:59.000Z</Time>
            <Position>
              <LatitudeDegrees>43.3019645512104034423828125</LatitudeDegrees>
              <LongitudeDegrees>-2.07148033194243907928466796875</LongitudeDegrees>
            </Position>
            <AltitudeMeters>258.20001220703125</AltitudeMeters>
            <DistanceMeters>NAN</DistanceMeters>
          </Trackpoint>
          <Trackpoint>
            <Time>2022-07-09T17:49:02.000Z</Time>
            <Position>
              <LatitudeDegrees>43.301938064396381378173828125</LatitudeDegrees>
              <LongitudeDegrees>-2.07145862281322479248046875</LongitudeDegrees>
            </Position>
            <AltitudeMeters>258.79998779296875</AltitudeMeters>
            <DistanceMeters>NAN</DistanceMeters>
          </Trackpoint>
          <Trackpoint>
            <Time>2022-07-09T17:49:07.000Z</Time>
            <Position>
              <LatitudeDegrees>43.3019036985933780670166015625</LatitudeDegrees>
              <LongitudeDegrees>-2.07142618484795093536376953125</LongitudeDegrees>
            </Position>
            <AltitudeMeters>259.399993896484375</AltitudeMeters>
            <DistanceMeters>NAN</DistanceMeters>
          </Trackpoint>
          <Trackpoint>
            <Time>2022-07-09T17:49:08.000Z</Time>
            <Position>
              <LatitudeDegrees>43.30189791508018970489501953125</LatitudeDegrees>
              <LongitudeDegrees>-2.0714204013347625732421875</LongitudeDegrees>
            </Position>
            <AltitudeMeters>259.79998779296875</AltitudeMeters>
            <DistanceMeters>NAN</DistanceMeters>
          </Trackpoint>
          <Trackpoint>
            <Time>2022-07-09T17:49:13.000Z</Time>
            <Position>
              <LatitudeDegrees>43.301867656409740447998046875</LatitudeDegrees>
              <LongitudeDegrees>-2.0714105106890201568603515625</LongitudeDegrees>
            </Position>
            <AltitudeMeters>260.600006103515625</AltitudeMeters>
            <DistanceMeters>NAN</DistanceMeters>
          </Trackpoint>
          <Trackpoint>
            <Time>2022-07-09T17:49:14.000Z</Time>
            <Position>
              <LatitudeDegrees>43.3018564246594905853271484375</LatitudeDegrees>
              <LongitudeDegrees>-2.0714172162115573883056640625</LongitudeDegrees>
            </Position>
            <AltitudeMeters>261</AltitudeMeters>
            <DistanceMeters>NAN</DistanceMeters>
          </Trackpoint>
          <Trackpoint>
            <Time>2022-07-09T17:49:20.000Z</Time>
            <Position>
              <LatitudeDegrees>43.3018359728157520294189453125</LatitudeDegrees>
              <LongitudeDegrees>-2.07142911851406097412109375</LongitudeDegrees>
            </Position>
            <AltitudeMeters>262.20001220703125</AltitudeMeters>
            <DistanceMeters>NAN</DistanceMeters>
          </Trackpoint>
          <Trackpoint>
            <Time>2022-07-09T17:49:21.000Z</Time>
            <Position>
              <LatitudeDegrees>43.30182935111224651336669921875</LatitudeDegrees>
              <LongitudeDegrees>-2.07143657840788364410400390625</LongitudeDegrees>
            </Position>
            <AltitudeMeters>262.20001220703125</AltitudeMeters>
            <DistanceMeters>NAN</DistanceMeters>
          </Trackpoint>
          <Trackpoint>
            <Time>2022-07-09T17:49:24.000Z</Time>
            <Position>
              <LatitudeDegrees>43.3018064685165882110595703125</LatitudeDegrees>
              <LongitudeDegrees>-2.0714713633060455322265625</LongitudeDegrees>
            </Position>
            <AltitudeMeters>262.79998779296875</AltitudeMeters>
            <DistanceMeters>NAN</DistanceMeters>
          </Trackpoint>
          <Trackpoint>
            <Time>2022-07-09T17:49:25.000Z</Time>
            <Position>
              <LatitudeDegrees>43.3018089830875396728515625</LatitudeDegrees>
              <LongitudeDegrees>-2.07148351706564426422119140625</LongitudeDegrees>
            </Position>
            <AltitudeMeters>263</AltitudeMeters>
            <DistanceMeters>NAN</DistanceMeters>
          </Trackpoint>
          <Trackpoint>
            <Time>2022-07-09T17:49:27.000Z</Time>
            <Position>
              <LatitudeDegrees>43.30179984681308269500732421875</LatitudeDegrees>
              <LongitudeDegrees>-2.07150313071906566619873046875</LongitudeDegrees>
            </Position>
            <AltitudeMeters>263.20001220703125</AltitudeMeters>
            <DistanceMeters>NAN</DistanceMeters>
          </Trackpoint>
          <Trackpoint>
            <Time>2022-07-09T17:49:28.000Z</Time>
            <Position>
              <LatitudeDegrees>43.301804959774017333984375</LatitudeDegrees>
              <LongitudeDegrees>-2.07149676047265529632568359375</LongitudeDegrees>
            </Position>
            <AltitudeMeters>263.399993896484375</AltitudeMeters>
            <DistanceMeters>NAN</DistanceMeters>
          </Trackpoint>
          <Trackpoint>
            <Time>2022-07-09T17:49:29.000Z</Time>
            <Position>
              <LatitudeDegrees>43.30181141383945941925048828125</LatitudeDegrees>
              <LongitudeDegrees>-2.07147865556180477142333984375</LongitudeDegrees>
            </Position>
            <AltitudeMeters>263.399993896484375</AltitudeMeters>
            <DistanceMeters>NAN</DistanceMeters>
          </Trackpoint>
          <Trackpoint>
            <Time>2022-07-09T17:49:31.000Z</Time>
            <Position>
              <LatitudeDegrees>43.30183521844446659088134765625</LatitudeDegrees>
              <LongitudeDegrees>-2.07144479267299175262451171875</LongitudeDegrees>
            </Position>
            <AltitudeMeters>263.399993896484375</AltitudeMeters>
            <DistanceMeters>NAN</DistanceMeters>
          </Trackpoint>
          <Trackpoint>
            <Time>2022-07-09T17:49:34.000Z</Time>
            <Position>
              <LatitudeDegrees>43.30186589621007442474365234375</LatitudeDegrees>
              <LongitudeDegrees>-2.0714064873754978179931640625</LongitudeDegrees>
            </Position>
            <AltitudeMeters>263</AltitudeMeters>
            <DistanceMeters>NAN</DistanceMeters>
          </Trackpoint>
          <Trackpoint>
            <Time>2022-07-09T17:49:38.000Z</Time>
            <Position>
              <LatitudeDegrees>43.30190218985080718994140625</LatitudeDegrees>
              <LongitudeDegrees>-2.07139450125396251678466796875</LongitudeDegrees>
            </Position>
            <AltitudeMeters>262.20001220703125</AltitudeMeters>
            <DistanceMeters>NAN</DistanceMeters>
          </Trackpoint>
          <Trackpoint>
            <Time>2022-07-09T17:49:40.000Z</Time>
            <Position>
              <LatitudeDegrees>43.30190218985080718994140625</LatitudeDegrees>
              <LongitudeDegrees>-2.07139450125396251678466796875</LongitudeDegrees>
            </Position>
            <AltitudeMeters>261.600006103515625</AltitudeMeters>
            <DistanceMeters>NAN</DistanceMeters>
          </Trackpoint>
          <Trackpoint>
            <Time>2022-07-09T17:49:46.000Z</Time>
            <Position>
              <LatitudeDegrees>43.30197486095130443572998046875</LatitudeDegrees>
              <LongitudeDegrees>-2.07144445739686489105224609375</LongitudeDegrees>
            </Position>
            <AltitudeMeters>260.20001220703125</AltitudeMeters>
            <DistanceMeters>NAN</DistanceMeters>
          </Trackpoint>
          <Trackpoint>
            <Time>2022-07-09T17:49:49.000Z</Time>
            <Position>
              <LatitudeDegrees>43.3019886910915374755859375</LatitudeDegrees>
              <LongitudeDegrees>-2.07148569636046886444091796875</LongitudeDegrees>
            </Position>
            <AltitudeMeters>259.399993896484375</AltitudeMeters>
            <DistanceMeters>NAN</DistanceMeters>
          </Trackpoint>
          <Trackpoint>
            <Time>2022-07-09T17:49:50.000Z</Time>
            <Position>
              <LatitudeDegrees>43.30199698917567729949951171875</LatitudeDegrees>
              <LongitudeDegrees>-2.07149893976747989654541015625</LongitudeDegrees>
            </Position>
            <AltitudeMeters>259.20001220703125</AltitudeMeters>
            <DistanceMeters>NAN</DistanceMeters>
          </Trackpoint>
          <Trackpoint>
            <Time>2022-07-09T17:49:51.000Z</Time>
            <Position>
              <LatitudeDegrees>43.30200612545013427734375</LatitudeDegrees>
              <LongitudeDegrees>-2.0715070702135562896728515625</LongitudeDegrees>
            </Position>
            <AltitudeMeters>259.20001220703125</AltitudeMeters>
            <DistanceMeters>NAN</DistanceMeters>
          </Trackpoint>
          <Trackpoint>
            <Time>2022-07-09T17:49:52.000Z</Time>
            <Position>
              <LatitudeDegrees>43.30201040022075176239013671875</LatitudeDegrees>
              <LongitudeDegrees>-2.07152006216347217559814453125</LongitudeDegrees>
            </Position>
            <AltitudeMeters>259</AltitudeMeters>
            <DistanceMeters>NAN</DistanceMeters>
          </Trackpoint>
          <Trackpoint>
            <Time>2022-07-09T17:49:55.000Z</Time>
            <Position>
              <LatitudeDegrees>43.30201962031424045562744140625</LatitudeDegrees>
              <LongitudeDegrees>-2.071564905345439910888671875</LongitudeDegrees>
            </Position>
            <AltitudeMeters>258.399993896484375</AltitudeMeters>
            <DistanceMeters>NAN</DistanceMeters>
          </Trackpoint>
          <Trackpoint>
            <Time>2022-07-09T17:49:57.000Z</Time>
            <Position>
              <LatitudeDegrees>43.3020237274467945098876953125</LatitudeDegrees>
              <LongitudeDegrees>-2.07157798111438751220703125</LongitudeDegrees>
            </Position>
            <AltitudeMeters>258</AltitudeMeters>
            <DistanceMeters>NAN</DistanceMeters>
          </Trackpoint>
          <Trackpoint>
            <Time>2022-07-09T17:49:59.000Z</Time>
            <Position>
              <LatitudeDegrees>43.3020210452377796173095703125</LatitudeDegrees>
              <LongitudeDegrees>-2.07160488702356815338134765625</LongitudeDegrees>
            </Position>
            <AltitudeMeters>257.600006103515625</AltitudeMeters>
            <DistanceMeters>NAN</DistanceMeters>
          </Trackpoint>
          <Trackpoint>
            <Time>2022-07-09T17:50:00.000Z</Time>
            <Position>
              <LatitudeDegrees>43.30201962031424045562744140625</LatitudeDegrees>
              <LongitudeDegrees>-2.07161863334476947784423828125</LongitudeDegrees>
            </Position>
            <AltitudeMeters>257.399993896484375</AltitudeMeters>
            <DistanceMeters>NAN</DistanceMeters>
          </Trackpoint>
          <Trackpoint>
            <Time>2022-07-09T17:50:01.000Z</Time>
            <Position>
              <LatitudeDegrees>43.302025236189365386962890625</LatitudeDegrees>
              <LongitudeDegrees>-2.0716297812759876251220703125</LongitudeDegrees>
            </Position>
            <AltitudeMeters>257.399993896484375</AltitudeMeters>
            <DistanceMeters>NAN</DistanceMeters>
          </Trackpoint>
          <Trackpoint>
            <Time>2022-07-09T17:50:04.000Z</Time>
            <Position>
              <LatitudeDegrees>43.302035294473171234130859375</LatitudeDegrees>
              <LongitudeDegrees>-2.071662135422229766845703125</LongitudeDegrees>
            </Position>
            <AltitudeMeters>257</AltitudeMeters>
            <DistanceMeters>NAN</DistanceMeters>
          </Trackpoint>
          <Trackpoint>
            <Time>2022-07-09T17:50:05.000Z</Time>
            <Position>
              <LatitudeDegrees>43.302035294473171234130859375</LatitudeDegrees>
              <LongitudeDegrees>-2.0716770552098751068115234375</LongitudeDegrees>
            </Position>
            <AltitudeMeters>257</AltitudeMeters>
            <DistanceMeters>NAN</DistanceMeters>
          </Trackpoint>
          <Trackpoint>
            <Time>2022-07-09T17:50:06.000Z</Time>
            <Position>
              <LatitudeDegrees>43.30203537829220294952392578125</LatitudeDegrees>
              <LongitudeDegrees>-2.07169356755912303924560546875</LongitudeDegrees>
            </Position>
            <AltitudeMeters>256.79998779296875</AltitudeMeters>
            <DistanceMeters>NAN</DistanceMeters>
          </Trackpoint>
          <Trackpoint>
            <Time>2022-07-09T17:50:07.000Z</Time>
            <Position>
              <LatitudeDegrees>43.30204091034829616546630859375</LatitudeDegrees>
              <LongitudeDegrees>-2.0717105828225612640380859375</LongitudeDegrees>
            </Position>
            <AltitudeMeters>256.399993896484375</AltitudeMeters>
            <DistanceMeters>NAN</DistanceMeters>
          </Trackpoint>
          <Trackpoint>
            <Time>2022-07-09T17:50:09.000Z</Time>
            <Position>
              <LatitudeDegrees>43.30204862169921398162841796875</LatitudeDegrees>
              <LongitudeDegrees>-2.07173623144626617431640625</LongitudeDegrees>
            </Position>
            <AltitudeMeters>256.20001220703125</AltitudeMeters>
            <DistanceMeters>NAN</DistanceMeters>
          </Trackpoint>
          <Trackpoint>
            <Time>2022-07-09T17:50:10.000Z</Time>
            <Position>
              <LatitudeDegrees>43.30205331556499004364013671875</LatitudeDegrees>
              <LongitudeDegrees>-2.0717518217861652374267578125</LongitudeDegrees>
            </Position>
            <AltitudeMeters>256</AltitudeMeters>
            <DistanceMeters>NAN</DistanceMeters>
          </Trackpoint>
          <Trackpoint>
            <Time>2022-07-09T17:50:11.000Z</Time>
            <Position>
              <LatitudeDegrees>43.3020592667162418365478515625</LatitudeDegrees>
              <LongitudeDegrees>-2.07176305353641510009765625</LongitudeDegrees>
            </Position>
            <AltitudeMeters>256</AltitudeMeters>
            <DistanceMeters>NAN</DistanceMeters>
          </Trackpoint>
          <Trackpoint>
            <Time>2022-07-09T17:50:15.000Z</Time>
            <Position>
              <LatitudeDegrees>43.30206035636365413665771484375</LatitudeDegrees>
              <LongitudeDegrees>-2.0718081481754779815673828125</LongitudeDegrees>
            </Position>
            <AltitudeMeters>255.600006103515625</AltitudeMeters>
            <DistanceMeters>NAN</DistanceMeters>
          </Trackpoint>
          <Trackpoint>
            <Time>2022-07-09T17:50:16.000Z</Time>
            <Position>
              <LatitudeDegrees>43.3020589314401149749755859375</LatitudeDegrees>
              <LongitudeDegrees>-2.0718195475637912750244140625</LongitudeDegrees>
            </Position>
            <AltitudeMeters>255.600006103515625</AltitudeMeters>
            <DistanceMeters>NAN</DistanceMeters>
          </Trackpoint>
          <Trackpoint>
            <Time>2022-07-09T17:50:17.000Z</Time>
            <Position>
              <LatitudeDegrees>43.302054740488529205322265625</LatitudeDegrees>
              <LongitudeDegrees>-2.0718389935791492462158203125</LongitudeDegrees>
            </Position>
            <AltitudeMeters>255.399993896484375</AltitudeMeters>
            <DistanceMeters>NAN</DistanceMeters>
          </Trackpoint>
          <Trackpoint>
            <Time>2022-07-09T17:50:19.000Z</Time>
            <Position>
              <LatitudeDegrees>43.3020441792905330657958984375</LatitudeDegrees>
              <LongitudeDegrees>-2.07186757586896419525146484375</LongitudeDegrees>
            </Position>
            <AltitudeMeters>255</AltitudeMeters>
            <DistanceMeters>NAN</DistanceMeters>
          </Trackpoint>
          <Trackpoint>
            <Time>2022-07-09T17:50:21.000Z</Time>
            <Position>
              <LatitudeDegrees>43.302044011652469635009765625</LatitudeDegrees>
              <LongitudeDegrees>-2.07190118730068206787109375</LongitudeDegrees>
            </Position>
            <AltitudeMeters>254.8000030517578125</AltitudeMeters>
            <DistanceMeters>NAN</DistanceMeters>
          </Trackpoint>
          <Trackpoint>
            <Time>2022-07-09T17:50:23.000Z</Time>
            <Position>
              <LatitudeDegrees>43.3020448498427867889404296875</LatitudeDegrees>
              <LongitudeDegrees>-2.071931697428226470947265625</LongitudeDegrees>
            </Position>
            <AltitudeMeters>254.600006103515625</AltitudeMeters>
            <DistanceMeters>NAN</DistanceMeters>
          </Trackpoint>
          <Trackpoint>
            <Time>2022-07-09T17:50:26.000Z</Time>
            <Position>
              <LatitudeDegrees>43.3020455203950405120849609375</LatitudeDegrees>
              <LongitudeDegrees>-2.07197352312505245208740234375</LongitudeDegrees>
            </Position>
            <AltitudeMeters>254</AltitudeMeters>
            <DistanceMeters>NAN</DistanceMeters>
          </Trackpoint>
          <Trackpoint>
            <Time>2022-07-09T17:50:27.000Z</Time>
            <Position>
              <LatitudeDegrees>43.302040994167327880859375</LatitudeDegrees>
              <LongitudeDegrees>-2.0719898678362369537353515625</LongitudeDegrees>
            </Position>
            <AltitudeMeters>254</AltitudeMeters>
            <DistanceMeters>NAN</DistanceMeters>
          </Trackpoint>
          <Trackpoint>
            <Time>2022-07-09T17:50:30.000Z</Time>
            <Position>
              <LatitudeDegrees>43.3020476996898651123046875</LatitudeDegrees>
              <LongitudeDegrees>-2.07202582620084285736083984375</LongitudeDegrees>
            </Position>
            <AltitudeMeters>253.600006103515625</AltitudeMeters>
            <DistanceMeters>NAN</DistanceMeters>
          </Trackpoint>
          <Trackpoint>
            <Time>2022-07-09T17:50:31.000Z</Time>
            <Position>
              <LatitudeDegrees>43.30205147154629230499267578125</LatitudeDegrees>
              <LongitudeDegrees>-2.07203797996044158935546875</LongitudeDegrees>
            </Position>
            <AltitudeMeters>253.600006103515625</AltitudeMeters>
            <DistanceMeters>NAN</DistanceMeters>
          </Trackpoint>
          <Trackpoint>
            <Time>2022-07-09T17:50:32.000Z</Time>
            <Position>
              <LatitudeDegrees>43.302052058279514312744140625</LatitudeDegrees>
              <LongitudeDegrees>-2.07205264829099178314208984375</LongitudeDegrees>
            </Position>
            <AltitudeMeters>253.399993896484375</AltitudeMeters>
            <DistanceMeters>NAN</DistanceMeters>
          </Trackpoint>
          <Trackpoint>
            <Time>2022-07-09T17:50:33.000Z</Time>
            <Position>
              <LatitudeDegrees>43.30205197446048259735107421875</LatitudeDegrees>
              <LongitudeDegrees>-2.07206773571670055389404296875</LongitudeDegrees>
            </Position>
            <AltitudeMeters>253.399993896484375</AltitudeMeters>
            <DistanceMeters>NAN</DistanceMeters>
          </Trackpoint>
          <Trackpoint>
            <Time>2022-07-09T17:50:36.000Z</Time>
            <Position>
              <LatitudeDegrees>43.3020596019923686981201171875</LatitudeDegrees>
              <LongitudeDegrees>-2.0721166022121906280517578125</LongitudeDegrees>
            </Position>
            <AltitudeMeters>252.8000030517578125</AltitudeMeters>
            <DistanceMeters>NAN</DistanceMeters>
          </Trackpoint>
          <Trackpoint>
            <Time>2022-07-09T17:50:38.000Z</Time>
            <Position>
              <LatitudeDegrees>43.30206521786749362945556640625</LatitudeDegrees>
              <LongitudeDegrees>-2.072141580283641815185546875</LongitudeDegrees>
            </Position>
            <AltitudeMeters>252.399993896484375</AltitudeMeters>
            <DistanceMeters>NAN</DistanceMeters>
          </Trackpoint>
          <Trackpoint>
            <Time>2022-07-09T17:50:39.000Z</Time>
            <Position>
              <LatitudeDegrees>43.3020686544477939605712890625</LatitudeDegrees>
              <LongitudeDegrees>-2.07215557806193828582763671875</LongitudeDegrees>
            </Position>
            <AltitudeMeters>252.399993896484375</AltitudeMeters>
            <DistanceMeters>NAN</DistanceMeters>
          </Trackpoint>
          <Trackpoint>
            <Time>2022-07-09T17:50:44.000Z</Time>
            <Position>
              <LatitudeDegrees>43.30206572078168392181396484375</LatitudeDegrees>
              <LongitudeDegrees>-2.0722148381173610687255859375</LongitudeDegrees>
            </Position>
            <AltitudeMeters>251.8000030517578125</AltitudeMeters>
            <DistanceMeters>NAN</DistanceMeters>
          </Trackpoint>
          <Trackpoint>
            <Time>2022-07-09T17:50:46.000Z</Time>
            <Position>
              <LatitudeDegrees>43.3020569197833538055419921875</LatitudeDegrees>
              <LongitudeDegrees>-2.072224728763103485107421875</LongitudeDegrees>
            </Position>
            <AltitudeMeters>251.600006103515625</AltitudeMeters>
            <DistanceMeters>NAN</DistanceMeters>
          </Trackpoint>
          <Trackpoint>
            <Time>2022-07-09T17:50:47.000Z</Time>
            <Position>
              <LatitudeDegrees>43.30205532722175121307373046875</LatitudeDegrees>
              <LongitudeDegrees>-2.07222665660083293914794921875</LongitudeDegrees>
            </Position>
            <AltitudeMeters>251.399993896484375</AltitudeMeters>
            <DistanceMeters>NAN</DistanceMeters>
          </Trackpoint>
          <Trackpoint>
            <Time>2022-07-09T17:50:50.000Z</Time>
            <Position>
              <LatitudeDegrees>43.30205029807984828948974609375</LatitudeDegrees>
              <LongitudeDegrees>-2.072261273860931396484375</LongitudeDegrees>
            </Position>
            <AltitudeMeters>251</AltitudeMeters>
            <DistanceMeters>NAN</DistanceMeters>
          </Trackpoint>
          <Trackpoint>
            <Time>2022-07-09T17:50:52.000Z</Time>
            <Position>
              <LatitudeDegrees>43.30204308964312076568603515625</LatitudeDegrees>
              <LongitudeDegrees>-2.07228834740817546844482421875</LongitudeDegrees>
            </Position>
            <AltitudeMeters>250.8000030517578125</AltitudeMeters>
            <DistanceMeters>NAN</DistanceMeters>
          </Trackpoint>
          <Trackpoint>
            <Time>2022-07-09T17:50:55.000Z</Time>
            <Position>
              <LatitudeDegrees>43.30202766694128513336181640625</LatitudeDegrees>
              <LongitudeDegrees>-2.0723365433514118194580078125</LongitudeDegrees>
            </Position>
            <AltitudeMeters>250.600006103515625</AltitudeMeters>
            <DistanceMeters>NAN</DistanceMeters>
          </Trackpoint>
          <Trackpoint>
            <Time>2022-07-09T17:50:57.000Z</Time>
            <Position>
              <LatitudeDegrees>43.30202515237033367156982421875</LatitudeDegrees>
              <LongitudeDegrees>-2.0723710767924785614013671875</LongitudeDegrees>
            </Position>
            <AltitudeMeters>250.399993896484375</AltitudeMeters>
            <DistanceMeters>NAN</DistanceMeters>
          </Trackpoint>
          <Trackpoint>
            <Time>2022-07-09T17:50:58.000Z</Time>
            <Position>
              <LatitudeDegrees>43.30202498473227024078369140625</LatitudeDegrees>
              <LongitudeDegrees>-2.07238272763788700103759765625</LongitudeDegrees>
            </Position>
            <AltitudeMeters>250.1999969482421875</AltitudeMeters>
            <DistanceMeters>NAN</DistanceMeters>
          </Trackpoint>
          <Trackpoint>
            <Time>2022-07-09T17:51:06.000Z</Time>
            <Position>
              <LatitudeDegrees>43.3020129986107349395751953125</LatitudeDegrees>
              <LongitudeDegrees>-2.072494290769100189208984375</LongitudeDegrees>
            </Position>
            <AltitudeMeters>249.399993896484375</AltitudeMeters>
            <DistanceMeters>NAN</DistanceMeters>
          </Trackpoint>
          <Trackpoint>
            <Time>2022-07-09T17:51:08.000Z</Time>
            <Position>
              <LatitudeDegrees>43.30200143158435821533203125</LatitudeDegrees>
              <LongitudeDegrees>-2.0725281536579132080078125</LongitudeDegrees>
            </Position>
            <AltitudeMeters>249</AltitudeMeters>
            <DistanceMeters>NAN</DistanceMeters>
          </Trackpoint>
          <Trackpoint>
            <Time>2022-07-09T17:51:10.000Z</Time>
            <Position>
              <LatitudeDegrees>43.30199648626148700714111328125</LatitudeDegrees>
              <LongitudeDegrees>-2.0725522935390472412109375</LongitudeDegrees>
            </Position>
            <AltitudeMeters>248.8000030517578125</AltitudeMeters>
            <DistanceMeters>NAN</DistanceMeters>
          </Trackpoint>
          <Trackpoint>
            <Time>2022-07-09T17:51:12.000Z</Time>
            <Position>
              <LatitudeDegrees>43.30199212767183780670166015625</LatitudeDegrees>
              <LongitudeDegrees>-2.0725772716104984283447265625</LongitudeDegrees>
            </Position>
            <AltitudeMeters>248.600006103515625</AltitudeMeters>
            <DistanceMeters>NAN</DistanceMeters>
          </Trackpoint>
          <Trackpoint>
            <Time>2022-07-09T17:51:14.000Z</Time>
            <Position>
              <LatitudeDegrees>43.30198793672025203704833984375</LatitudeDegrees>
              <LongitudeDegrees>-2.0725990645587444305419921875</LongitudeDegrees>
            </Position>
            <AltitudeMeters>248.399993896484375</AltitudeMeters>
            <DistanceMeters>NAN</DistanceMeters>
          </Trackpoint>
          <Trackpoint>
            <Time>2022-07-09T17:51:19.000Z</Time>
            <Position>
              <LatitudeDegrees>43.3019865117967128753662109375</LatitudeDegrees>
              <LongitudeDegrees>-2.07267793826758861541748046875</LongitudeDegrees>
            </Position>
            <AltitudeMeters>248</AltitudeMeters>
            <DistanceMeters>NAN</DistanceMeters>
          </Trackpoint>
          <Trackpoint>
            <Time>2022-07-09T17:51:25.000Z</Time>
            <Position>
              <LatitudeDegrees>43.30197486095130443572998046875</LatitudeDegrees>
              <LongitudeDegrees>-2.07279377616941928863525390625</LongitudeDegrees>
            </Position>
            <AltitudeMeters>247.399993896484375</AltitudeMeters>
            <DistanceMeters>NAN</DistanceMeters>
          </Trackpoint>
          <Trackpoint>
            <Time>2022-07-09T17:51:26.000Z</Time>
            <Position>
              <LatitudeDegrees>43.30197989009320735931396484375</LatitudeDegrees>
              <LongitudeDegrees>-2.07281406037509441375732421875</LongitudeDegrees>
            </Position>
            <AltitudeMeters>247.1999969482421875</AltitudeMeters>
            <DistanceMeters>NAN</DistanceMeters>
          </Trackpoint>
          <Trackpoint>
            <Time>2022-07-09T17:51:29.000Z</Time>
            <Position>
              <LatitudeDegrees>43.30196027643978595733642578125</LatitudeDegrees>
              <LongitudeDegrees>-2.072867117822170257568359375</LongitudeDegrees>
            </Position>
            <AltitudeMeters>246.8000030517578125</AltitudeMeters>
            <DistanceMeters>NAN</DistanceMeters>
          </Trackpoint>
          <Trackpoint>
            <Time>2022-07-09T17:51:32.000Z</Time>
            <Position>
              <LatitudeDegrees>43.30194150097668170928955078125</LatitudeDegrees>
              <LongitudeDegrees>-2.07291833125054836273193359375</LongitudeDegrees>
            </Position>
            <AltitudeMeters>246.1999969482421875</AltitudeMeters>
            <DistanceMeters>NAN</DistanceMeters>
          </Trackpoint>
          <Trackpoint>
            <Time>2022-07-09T17:51:33.000Z</Time>
            <Position>
              <LatitudeDegrees>43.30193848349153995513916015625</LatitudeDegrees>
              <LongitudeDegrees>-2.072936855256557464599609375</LongitudeDegrees>
            </Position>
            <AltitudeMeters>246.1999969482421875</AltitudeMeters>
            <DistanceMeters>NAN</DistanceMeters>
          </Trackpoint>
          <Trackpoint>
            <Time>2022-07-09T17:51:36.000Z</Time>
            <Position>
              <LatitudeDegrees>43.301938734948635101318359375</LatitudeDegrees>
              <LongitudeDegrees>-2.0729906670749187469482421875</LongitudeDegrees>
            </Position>
            <AltitudeMeters>245.399993896484375</AltitudeMeters>
            <DistanceMeters>NAN</DistanceMeters>
          </Trackpoint>
          <Trackpoint>
            <Time>2022-07-09T17:51:38.000Z</Time>
            <Position>
              <LatitudeDegrees>43.30193529836833477020263671875</LatitudeDegrees>
              <LongitudeDegrees>-2.073017321527004241943359375</LongitudeDegrees>
            </Position>
            <AltitudeMeters>245</AltitudeMeters>
            <DistanceMeters>NAN</DistanceMeters>
          </Trackpoint>
          <Trackpoint>
            <Time>2022-07-09T17:51:45.000Z</Time>
            <Position>
              <LatitudeDegrees>43.30193412490189075469970703125</LatitudeDegrees>
              <LongitudeDegrees>-2.0730647630989551544189453125</LongitudeDegrees>
            </Position>
            <AltitudeMeters>244.399993896484375</AltitudeMeters>
            <DistanceMeters>NAN</DistanceMeters>
          </Trackpoint>
          <Trackpoint>
            <Time>2022-07-09T17:51:48.000Z</Time>
            <Position>
              <LatitudeDegrees>43.3019345439970493316650390625</LatitudeDegrees>
              <LongitudeDegrees>-2.07307943142950534820556640625</LongitudeDegrees>
            </Position>
            <AltitudeMeters>244</AltitudeMeters>
            <DistanceMeters>NAN</DistanceMeters>
          </Trackpoint>
          <Trackpoint>
            <Time>2022-07-09T17:51:53.000Z</Time>
            <Position>
              <LatitudeDegrees>43.30193680711090564727783203125</LatitudeDegrees>
              <LongitudeDegrees>-2.07311379723250865936279296875</LongitudeDegrees>
            </Position>
            <AltitudeMeters>243.8000030517578125</AltitudeMeters>
            <DistanceMeters>NAN</DistanceMeters>
          </Trackpoint>
          <Trackpoint>
            <Time>2022-07-09T17:51:57.000Z</Time>
            <Position>
              <LatitudeDegrees>43.30193680711090564727783203125</LatitudeDegrees>
              <LongitudeDegrees>-2.07311379723250865936279296875</LongitudeDegrees>
            </Position>
            <AltitudeMeters>243.399993896484375</AltitudeMeters>
            <DistanceMeters>NAN</DistanceMeters>
          </Trackpoint>
          <Trackpoint>
            <Time>2022-07-09T17:53:45.000Z</Time>
            <Position>
              <LatitudeDegrees>43.30196010880172252655029296875</LatitudeDegrees>
              <LongitudeDegrees>-2.07338319160044193267822265625</LongitudeDegrees>
            </Position>
            <AltitudeMeters>238.8000030517578125</AltitudeMeters>
            <DistanceMeters>NAN</DistanceMeters>
          </Trackpoint>
          <Trackpoint>
            <Time>2022-07-09T17:53:46.000Z</Time>
            <Position>
              <LatitudeDegrees>43.3019593544304370880126953125</LatitudeDegrees>
              <LongitudeDegrees>-2.073410265147686004638671875</LongitudeDegrees>
            </Position>
            <AltitudeMeters>238.8000030517578125</AltitudeMeters>
            <DistanceMeters>NAN</DistanceMeters>
          </Trackpoint>
          <Trackpoint>
            <Time>2022-07-09T17:53:49.000Z</Time>
            <Position>
              <LatitudeDegrees>43.30195876769721508026123046875</LatitudeDegrees>
              <LongitudeDegrees>-2.0735016278922557830810546875</LongitudeDegrees>
            </Position>
            <AltitudeMeters>238</AltitudeMeters>
            <DistanceMeters>NAN</DistanceMeters>
          </Trackpoint>
          <Trackpoint>
            <Time>2022-07-09T17:53:50.000Z</Time>
            <Position>
              <LatitudeDegrees>43.30196094699203968048095703125</LatitudeDegrees>
              <LongitudeDegrees>-2.07352124154567718505859375</LongitudeDegrees>
            </Position>
            <AltitudeMeters>237.8000030517578125</AltitudeMeters>
            <DistanceMeters>NAN</DistanceMeters>
          </Trackpoint>
          <Trackpoint>
            <Time>2022-07-09T17:53:51.000Z</Time>
            <Position>
              <LatitudeDegrees>43.30196010880172252655029296875</LatitudeDegrees>
              <LongitudeDegrees>-2.0735267736017704010009765625</LongitudeDegrees>
            </Position>
            <AltitudeMeters>237.399993896484375</AltitudeMeters>
            <DistanceMeters>NAN</DistanceMeters>
          </Trackpoint>
          <Trackpoint>
            <Time>2022-07-09T17:53:53.000Z</Time>
            <Position>
              <LatitudeDegrees>43.30196010880172252655029296875</LatitudeDegrees>
              <LongitudeDegrees>-2.0735267736017704010009765625</LongitudeDegrees>
            </Position>
            <AltitudeMeters>237.1999969482421875</AltitudeMeters>
            <DistanceMeters>NAN</DistanceMeters>
          </Trackpoint>
          <Trackpoint>
            <Time>2022-07-09T17:57:29.000Z</Time>
            <Position>
              <LatitudeDegrees>43.30112359486520290374755859375</LatitudeDegrees>
              <LongitudeDegrees>-2.074809037148952484130859375</LongitudeDegrees>
            </Position>
            <AltitudeMeters>214.600006103515625</AltitudeMeters>
            <DistanceMeters>NAN</DistanceMeters>
          </Trackpoint>
          <Trackpoint>
            <Time>2022-07-09T17:57:30.000Z</Time>
            <Position>
              <LatitudeDegrees>43.30110155045986175537109375</LatitudeDegrees>
              <LongitudeDegrees>-2.07482454366981983184814453125</LongitudeDegrees>
            </Position>
            <AltitudeMeters>214.399993896484375</AltitudeMeters>
            <DistanceMeters>NAN</DistanceMeters>
          </Trackpoint>
          <Trackpoint>
            <Time>2022-07-09T17:57:35.000Z</Time>
            <Position>
              <LatitudeDegrees>43.30101395957171916961669921875</LatitudeDegrees>
              <LongitudeDegrees>-2.07488254643976688385009765625</LongitudeDegrees>
            </Position>
            <AltitudeMeters>214</AltitudeMeters>
            <DistanceMeters>NAN</DistanceMeters>
          </Trackpoint>
          <Trackpoint>
            <Time>2022-07-09T17:57:37.000Z</Time>
            <Position>
              <LatitudeDegrees>43.30098110251128673553466796875</LatitudeDegrees>
              <LongitudeDegrees>-2.07489989697933197021484375</LongitudeDegrees>
            </Position>
            <AltitudeMeters>213.600006103515625</AltitudeMeters>
            <DistanceMeters>NAN</DistanceMeters>
          </Trackpoint>
          <Trackpoint>
            <Time>2022-07-09T17:57:38.000Z</Time>
            <Position>
              <LatitudeDegrees>43.30098110251128673553466796875</LatitudeDegrees>
              <LongitudeDegrees>-2.07489989697933197021484375</LongitudeDegrees>
            </Position>
            <AltitudeMeters>213.399993896484375</AltitudeMeters>
            <DistanceMeters>NAN</DistanceMeters>
          </Trackpoint>
          <Trackpoint>
            <Time>2022-07-09T17:57:40.000Z</Time>
            <Position>
              <LatitudeDegrees>43.30098110251128673553466796875</LatitudeDegrees>
              <LongitudeDegrees>-2.07489989697933197021484375</LongitudeDegrees>
            </Position>
            <AltitudeMeters>213.1999969482421875</AltitudeMeters>
            <DistanceMeters>NAN</DistanceMeters>
          </Trackpoint>
          <Trackpoint>
            <Time>2022-07-09T18:02:56.000Z</Time>
            <Position>
              <LatitudeDegrees>43.30100524239242076873779296875</LatitudeDegrees>
              <LongitudeDegrees>-2.07670846022665500640869140625</LongitudeDegrees>
            </Position>
            <AltitudeMeters>224.600006103515625</AltitudeMeters>
            <DistanceMeters>NAN</DistanceMeters>
          </Trackpoint>
          <Trackpoint>
            <Time>2022-07-09T18:02:57.000Z</Time>
            <Position>
              <LatitudeDegrees>43.30100809223949909210205078125</LatitudeDegrees>
              <LongitudeDegrees>-2.07672782242298126220703125</LongitudeDegrees>
            </Position>
            <AltitudeMeters>224.600006103515625</AltitudeMeters>
            <DistanceMeters>NAN</DistanceMeters>
          </Trackpoint>
          <Trackpoint>
            <Time>2022-07-09T18:03:03.000Z</Time>
            <Position>
              <LatitudeDegrees>43.3010018058121204376220703125</LatitudeDegrees>
              <LongitudeDegrees>-2.0768143236637115478515625</LongitudeDegrees>
            </Position>
            <AltitudeMeters>224.600006103515625</AltitudeMeters>
            <DistanceMeters>NAN</DistanceMeters>
          </Trackpoint>
          <Trackpoint>
            <Time>2022-07-09T18:03:07.000Z</Time>
            <Position>
              <LatitudeDegrees>43.30099535174667835235595703125</LatitudeDegrees>
              <LongitudeDegrees>-2.0768570713698863983154296875</LongitudeDegrees>
            </Position>
            <AltitudeMeters>224.8000030517578125</AltitudeMeters>
            <DistanceMeters>NAN</DistanceMeters>
          </Trackpoint>
          <Trackpoint>
            <Time>2022-07-09T18:03:09.000Z</Time>
            <Position>
              <LatitudeDegrees>43.30099116079509258270263671875</LatitudeDegrees>
              <LongitudeDegrees>-2.07687609829008579254150390625</LongitudeDegrees>
            </Position>
            <AltitudeMeters>224.8000030517578125</AltitudeMeters>
            <DistanceMeters>NAN</DistanceMeters>
          </Trackpoint>
          <Trackpoint>
            <Time>2022-07-09T18:03:12.000Z</Time>
            <Position>
              <LatitudeDegrees>43.300989232957363128662109375</LatitudeDegrees>
              <LongitudeDegrees>-2.076880037784576416015625</LongitudeDegrees>
            </Position>
            <AltitudeMeters>224.600006103515625</AltitudeMeters>
            <DistanceMeters>NAN</DistanceMeters>
          </Trackpoint>
          <Trackpoint>
            <Time>2022-07-09T18:06:32.000Z</Time>
            <Position>
              <LatitudeDegrees>43.30092142336070537567138671875</LatitudeDegrees>
              <LongitudeDegrees>-2.07707793451845645904541015625</LongitudeDegrees>
            </Position>
            <AltitudeMeters>223.8000030517578125</AltitudeMeters>
            <DistanceMeters>NAN</DistanceMeters>
          </Trackpoint>
          <Trackpoint>
            <Time>2022-07-09T18:06:33.000Z</Time>
            <Position>
              <LatitudeDegrees>43.3009159751236438751220703125</LatitudeDegrees>
              <LongitudeDegrees>-2.07710224203765392303466796875</LongitudeDegrees>
            </Position>
            <AltitudeMeters>223.8000030517578125</AltitudeMeters>
            <DistanceMeters>NAN</DistanceMeters>
          </Trackpoint>
          <Trackpoint>
            <Time>2022-07-09T18:06:38.000Z</Time>
            <Position>
              <LatitudeDegrees>43.3008871413767337799072265625</LatitudeDegrees>
              <LongitudeDegrees>-2.077214978635311126708984375</LongitudeDegrees>
            </Position>
            <AltitudeMeters>224.399993896484375</AltitudeMeters>
            <DistanceMeters>NAN</DistanceMeters>
          </Trackpoint>
          <Trackpoint>
            <Time>2022-07-09T18:06:39.000Z</Time>
            <Position>
              <LatitudeDegrees>43.3008836209774017333984375</LatitudeDegrees>
              <LongitudeDegrees>-2.07723383791744709014892578125</LongitudeDegrees>
            </Position>
            <AltitudeMeters>224.399993896484375</AltitudeMeters>
            <DistanceMeters>NAN</DistanceMeters>
          </Trackpoint>
          <Trackpoint>
            <Time>2022-07-09T18:06:47.000Z</Time>
            <Position>
              <LatitudeDegrees>43.3008304797112941741943359375</LatitudeDegrees>
              <LongitudeDegrees>-2.07740432582795619964599609375</LongitudeDegrees>
            </Position>
            <AltitudeMeters>224.600006103515625</AltitudeMeters>
            <DistanceMeters>NAN</DistanceMeters>
          </Trackpoint>
          <Trackpoint>
            <Time>2022-07-09T18:06:53.000Z</Time>
            <Position>
              <LatitudeDegrees>43.30076158046722412109375</LatitudeDegrees>
              <LongitudeDegrees>-2.07757263444364070892333984375</LongitudeDegrees>
            </Position>
            <AltitudeMeters>224.1999969482421875</AltitudeMeters>
            <DistanceMeters>NAN</DistanceMeters>
          </Trackpoint>
          <Trackpoint>
            <Time>2022-07-09T18:07:00.000Z</Time>
            <Position>
              <LatitudeDegrees>43.3006765879690647125244140625</LatitudeDegrees>
              <LongitudeDegrees>-2.0777961798012256622314453125</LongitudeDegrees>
            </Position>
            <AltitudeMeters>223.399993896484375</AltitudeMeters>
            <DistanceMeters>NAN</DistanceMeters>
          </Trackpoint>
          <Trackpoint>
            <Time>2022-07-09T18:07:03.000Z</Time>
            <Position>
              <LatitudeDegrees>43.30064834095537662506103515625</LatitudeDegrees>
              <LongitudeDegrees>-2.077853679656982421875</LongitudeDegrees>
            </Position>
            <AltitudeMeters>222.8000030517578125</AltitudeMeters>
            <DistanceMeters>NAN</DistanceMeters>
          </Trackpoint>
          <Trackpoint>
            <Time>2022-07-09T18:07:04.000Z</Time>
            <Position>
              <LatitudeDegrees>43.30064691603183746337890625</LatitudeDegrees>
              <LongitudeDegrees>-2.077876813709735870361328125</LongitudeDegrees>
            </Position>
            <AltitudeMeters>222.600006103515625</AltitudeMeters>
            <DistanceMeters>NAN</DistanceMeters>
          </Trackpoint>
          <Trackpoint>
            <Time>2022-07-09T18:07:05.000Z</Time>
            <Position>
              <LatitudeDegrees>43.30064146779477596282958984375</LatitudeDegrees>
              <LongitudeDegrees>-2.07790254615247249603271484375</LongitudeDegrees>
            </Position>
            <AltitudeMeters>222.1999969482421875</AltitudeMeters>
            <DistanceMeters>NAN</DistanceMeters>
          </Trackpoint>
          <Trackpoint>
            <Time>2022-07-09T18:07:06.000Z</Time>
            <Position>
              <LatitudeDegrees>43.30063258297741413116455078125</LatitudeDegrees>
              <LongitudeDegrees>-2.07792819477617740631103515625</LongitudeDegrees>
            </Position>
            <AltitudeMeters>222</AltitudeMeters>
            <DistanceMeters>NAN</DistanceMeters>
          </Trackpoint>
          <Trackpoint>
            <Time>2022-07-09T18:07:08.000Z</Time>
            <Position>
              <LatitudeDegrees>43.30061196349561214447021484375</LatitudeDegrees>
              <LongitudeDegrees>-2.07797613926231861114501953125</LongitudeDegrees>
            </Position>
            <AltitudeMeters>221.1999969482421875</AltitudeMeters>
            <DistanceMeters>NAN</DistanceMeters>
          </Trackpoint>
          <Trackpoint>
            <Time>2022-07-09T18:07:09.000Z</Time>
            <Position>
              <LatitudeDegrees>43.300603665411472320556640625</LatitudeDegrees>
              <LongitudeDegrees>-2.07799759693443775177001953125</LongitudeDegrees>
            </Position>
            <AltitudeMeters>221</AltitudeMeters>
            <DistanceMeters>NAN</DistanceMeters>
          </Trackpoint>
          <Trackpoint>
            <Time>2022-07-09T18:07:13.000Z</Time>
            <Position>
              <LatitudeDegrees>43.300559408962726593017578125</LatitudeDegrees>
              <LongitudeDegrees>-2.07806364633142948150634765625</LongitudeDegrees>
            </Position>
            <AltitudeMeters>220.1999969482421875</AltitudeMeters>
            <DistanceMeters>NAN</DistanceMeters>
          </Trackpoint>
          <Trackpoint>
            <Time>2022-07-09T18:07:15.000Z</Time>
            <Position>
              <LatitudeDegrees>43.30053049139678478240966796875</LatitudeDegrees>
              <LongitudeDegrees>-2.0781126804649829864501953125</LongitudeDegrees>
            </Position>
            <AltitudeMeters>219.8000030517578125</AltitudeMeters>
            <DistanceMeters>NAN</DistanceMeters>
          </Trackpoint>
          <Trackpoint>
            <Time>2022-07-09T18:07:18.000Z</Time>
            <Position>
              <LatitudeDegrees>43.30050752498209476470947265625</LatitudeDegrees>
              <LongitudeDegrees>-2.07818803377449512481689453125</LongitudeDegrees>
            </Position>
            <AltitudeMeters>219</AltitudeMeters>
            <DistanceMeters>NAN</DistanceMeters>
          </Trackpoint>
          <Trackpoint>
            <Time>2022-07-09T18:07:21.000Z</Time>
            <Position>
              <LatitudeDegrees>43.300501406192779541015625</LatitudeDegrees>
              <LongitudeDegrees>-2.07826430909335613250732421875</LongitudeDegrees>
            </Position>
            <AltitudeMeters>218.399993896484375</AltitudeMeters>
            <DistanceMeters>NAN</DistanceMeters>
          </Trackpoint>
          <Trackpoint>
            <Time>2022-07-09T18:07:25.000Z</Time>
            <Position>
              <LatitudeDegrees>43.3005376160144805908203125</LatitudeDegrees>
              <LongitudeDegrees>-2.078324072062969207763671875</LongitudeDegrees>
            </Position>
            <AltitudeMeters>217.8000030517578125</AltitudeMeters>
            <DistanceMeters>NAN</DistanceMeters>
          </Trackpoint>
          <Trackpoint>
            <Time>2022-07-09T18:07:26.000Z</Time>
            <Position>
              <LatitudeDegrees>43.3005465008318424224853515625</LatitudeDegrees>
              <LongitudeDegrees>-2.078326083719730377197265625</LongitudeDegrees>
            </Position>
            <AltitudeMeters>217.399993896484375</AltitudeMeters>
            <DistanceMeters>NAN</DistanceMeters>
          </Trackpoint>
          <Trackpoint>
            <Time>2022-07-09T18:07:28.000Z</Time>
            <Position>
              <LatitudeDegrees>43.30057047307491302490234375</LatitudeDegrees>
              <LongitudeDegrees>-2.07832214422523975372314453125</LongitudeDegrees>
            </Position>
            <AltitudeMeters>217</AltitudeMeters>
            <DistanceMeters>NAN</DistanceMeters>
          </Trackpoint>
          <Trackpoint>
            <Time>2022-07-09T18:07:29.000Z</Time>
            <Position>
              <LatitudeDegrees>43.30057877115905284881591796875</LatitudeDegrees>
              <LongitudeDegrees>-2.0783252455294132232666015625</LongitudeDegrees>
            </Position>
            <AltitudeMeters>216.600006103515625</AltitudeMeters>
            <DistanceMeters>NAN</DistanceMeters>
          </Trackpoint>
          <Trackpoint>
            <Time>2022-07-09T18:07:30.000Z</Time>
            <Position>
              <LatitudeDegrees>43.3005884103477001190185546875</LatitudeDegrees>
              <LongitudeDegrees>-2.07832910120487213134765625</LongitudeDegrees>
            </Position>
            <AltitudeMeters>216.399993896484375</AltitudeMeters>
            <DistanceMeters>NAN</DistanceMeters>
          </Trackpoint>
          <Trackpoint>
            <Time>2022-07-09T18:07:36.000Z</Time>
            <Position>
              <LatitudeDegrees>43.300633169710636138916015625</LatitudeDegrees>
              <LongitudeDegrees>-2.0783557556569576263427734375</LongitudeDegrees>
            </Position>
            <AltitudeMeters>216.1999969482421875</AltitudeMeters>
            <DistanceMeters>NAN</DistanceMeters>
          </Trackpoint>
          <Trackpoint>
            <Time>2022-07-09T18:07:47.000Z</Time>
            <Position>
              <LatitudeDegrees>43.3007423020899295806884765625</LatitudeDegrees>
              <LongitudeDegrees>-2.078471593558788299560546875</LongitudeDegrees>
            </Position>
            <AltitudeMeters>216</AltitudeMeters>
            <DistanceMeters>NAN</DistanceMeters>
          </Trackpoint>
          <Trackpoint>
            <Time>2022-07-09T18:07:48.000Z</Time>
            <Position>
              <LatitudeDegrees>43.30075546167790889739990234375</LatitudeDegrees>
              <LongitudeDegrees>-2.0784907042980194091796875</LongitudeDegrees>
            </Position>
            <AltitudeMeters>216</AltitudeMeters>
            <DistanceMeters>NAN</DistanceMeters>
          </Trackpoint>
          <Trackpoint>
            <Time>2022-07-09T18:07:50.000Z</Time>
            <Position>
              <LatitudeDegrees>43.30078639090061187744140625</LatitudeDegrees>
              <LongitudeDegrees>-2.078538648784160614013671875</LongitudeDegrees>
            </Position>
            <AltitudeMeters>216</AltitudeMeters>
            <DistanceMeters>NAN</DistanceMeters>
          </Trackpoint>
          <Trackpoint>
            <Time>2022-07-09T18:07:53.000Z</Time>
            <Position>
              <LatitudeDegrees>43.30083374865353107452392578125</LatitudeDegrees>
              <LongitudeDegrees>-2.07858365960419178009033203125</LongitudeDegrees>
            </Position>
            <AltitudeMeters>215.8000030517578125</AltitudeMeters>
            <DistanceMeters>NAN</DistanceMeters>
          </Trackpoint>
          <Trackpoint>
            <Time>2022-07-09T18:07:55.000Z</Time>
            <Position>
              <LatitudeDegrees>43.3008635044097900390625</LatitudeDegrees>
              <LongitudeDegrees>-2.07860880531370639801025390625</LongitudeDegrees>
            </Position>
            <AltitudeMeters>215.600006103515625</AltitudeMeters>
            <DistanceMeters>NAN</DistanceMeters>
          </Trackpoint>
          <Trackpoint>
            <Time>2022-07-09T18:07:56.000Z</Time>
            <Position>
              <LatitudeDegrees>43.30087381415069103240966796875</LatitudeDegrees>
              <LongitudeDegrees>-2.07862976007163524627685546875</LongitudeDegrees>
            </Position>
            <AltitudeMeters>215.1999969482421875</AltitudeMeters>
            <DistanceMeters>NAN</DistanceMeters>
          </Trackpoint>
          <Trackpoint>
            <Time>2022-07-09T18:07:59.000Z</Time>
            <Position>
              <LatitudeDegrees>43.30088890157639980316162109375</LatitudeDegrees>
              <LongitudeDegrees>-2.07870201207697391510009765625</LongitudeDegrees>
            </Position>
            <AltitudeMeters>214.8000030517578125</AltitudeMeters>
            <DistanceMeters>NAN</DistanceMeters>
          </Trackpoint>
          <Trackpoint>
            <Time>2022-07-09T18:08:01.000Z</Time>
            <Position>
              <LatitudeDegrees>43.30088772810995578765869140625</LatitudeDegrees>
              <LongitudeDegrees>-2.07873403094708919525146484375</LongitudeDegrees>
            </Position>
            <AltitudeMeters>214.8000030517578125</AltitudeMeters>
            <DistanceMeters>NAN</DistanceMeters>
          </Trackpoint>
          <Trackpoint>
            <Time>2022-07-09T18:08:03.000Z</Time>
            <Position>
              <LatitudeDegrees>43.30088772810995578765869140625</LatitudeDegrees>
              <LongitudeDegrees>-2.07873403094708919525146484375</LongitudeDegrees>
            </Position>
            <AltitudeMeters>214.8000030517578125</AltitudeMeters>
            <DistanceMeters>NAN</DistanceMeters>
          </Trackpoint>
          <Trackpoint>
            <Time>2022-07-09T18:08:28.000Z</Time>
            <Position>
              <LatitudeDegrees>43.30087565816938877105712890625</LatitudeDegrees>
              <LongitudeDegrees>-2.0787389762699604034423828125</LongitudeDegrees>
            </Position>
            <AltitudeMeters>215</AltitudeMeters>
            <DistanceMeters>NAN</DistanceMeters>
          </Trackpoint>
          <Trackpoint>
            <Time>2022-07-09T18:08:29.000Z</Time>
            <Position>
              <LatitudeDegrees>43.30086878500878810882568359375</LatitudeDegrees>
              <LongitudeDegrees>-2.07875247113406658172607421875</LongitudeDegrees>
            </Position>
            <AltitudeMeters>215</AltitudeMeters>
            <DistanceMeters>NAN</DistanceMeters>
          </Trackpoint>
          <Trackpoint>
            <Time>2022-07-09T18:08:35.000Z</Time>
            <Position>
              <LatitudeDegrees>43.30080005340278148651123046875</LatitudeDegrees>
              <LongitudeDegrees>-2.07882036454975605010986328125</LongitudeDegrees>
            </Position>
            <AltitudeMeters>216</AltitudeMeters>
            <DistanceMeters>NAN</DistanceMeters>
          </Trackpoint>
          <Trackpoint>
            <Time>2022-07-09T18:08:38.000Z</Time>
            <Position>
              <LatitudeDegrees>43.300788737833499908447265625</LatitudeDegrees>
              <LongitudeDegrees>-2.0788569934666156768798828125</LongitudeDegrees>
            </Position>
            <AltitudeMeters>216.600006103515625</AltitudeMeters>
            <DistanceMeters>NAN</DistanceMeters>
          </Trackpoint>
          <Trackpoint>
            <Time>2022-07-09T18:08:39.000Z</Time>
            <Position>
              <LatitudeDegrees>43.30077474005520343780517578125</LatitudeDegrees>
              <LongitudeDegrees>-2.07886244170367717742919921875</LongitudeDegrees>
            </Position>
            <AltitudeMeters>216.600006103515625</AltitudeMeters>
            <DistanceMeters>NAN</DistanceMeters>
          </Trackpoint>
          <Trackpoint>
            <Time>2022-07-09T18:08:40.000Z</Time>
            <Position>
              <LatitudeDegrees>43.3007575571537017822265625</LatitudeDegrees>
              <LongitudeDegrees>-2.07887065596878528594970703125</LongitudeDegrees>
            </Position>
            <AltitudeMeters>216.600006103515625</AltitudeMeters>
            <DistanceMeters>NAN</DistanceMeters>
          </Trackpoint>
          <Trackpoint>
            <Time>2022-07-09T18:08:44.000Z</Time>
            <Position>
              <LatitudeDegrees>43.30070181749761104583740234375</LatitudeDegrees>
              <LongitudeDegrees>-2.07888674922287464141845703125</LongitudeDegrees>
            </Position>
            <AltitudeMeters>217.8000030517578125</AltitudeMeters>
            <DistanceMeters>NAN</DistanceMeters>
          </Trackpoint>
          <Trackpoint>
            <Time>2022-07-09T18:08:49.000Z</Time>
            <Position>
              <LatitudeDegrees>43.30064783804118633270263671875</LatitudeDegrees>
              <LongitudeDegrees>-2.07892748527228832244873046875</LongitudeDegrees>
            </Position>
            <AltitudeMeters>219</AltitudeMeters>
            <DistanceMeters>NAN</DistanceMeters>
          </Trackpoint>
          <Trackpoint>
            <Time>2022-07-09T18:08:55.000Z</Time>
            <Position>
              <LatitudeDegrees>43.30057759769260883331298828125</LatitudeDegrees>
              <LongitudeDegrees>-2.0789438299834728240966796875</LongitudeDegrees>
            </Position>
            <AltitudeMeters>219.600006103515625</AltitudeMeters>
            <DistanceMeters>NAN</DistanceMeters>
          </Trackpoint>
          <Trackpoint>
            <Time>2022-07-09T18:08:56.000Z</Time>
            <Position>
              <LatitudeDegrees>43.30056779086589813232421875</LatitudeDegrees>
              <LongitudeDegrees>-2.078948356211185455322265625</LongitudeDegrees>
            </Position>
            <AltitudeMeters>219.8000030517578125</AltitudeMeters>
            <DistanceMeters>NAN</DistanceMeters>
          </Trackpoint>
          <Trackpoint>
            <Time>2022-07-09T18:08:57.000Z</Time>
            <Position>
              <LatitudeDegrees>43.3005562238395214080810546875</LatitudeDegrees>
              <LongitudeDegrees>-2.078956402838230133056640625</LongitudeDegrees>
            </Position>
            <AltitudeMeters>220</AltitudeMeters>
            <DistanceMeters>NAN</DistanceMeters>
          </Trackpoint>
          <Trackpoint>
            <Time>2022-07-09T18:08:58.000Z</Time>
            <Position>
              <LatitudeDegrees>43.3005441538989543914794921875</LatitudeDegrees>
              <LongitudeDegrees>-2.07896235398948192596435546875</LongitudeDegrees>
            </Position>
            <AltitudeMeters>220.1999969482421875</AltitudeMeters>
            <DistanceMeters>NAN</DistanceMeters>
          </Trackpoint>
          <Trackpoint>
            <Time>2022-07-09T18:08:59.000Z</Time>
            <Position>
              <LatitudeDegrees>43.30052898265421390533447265625</LatitudeDegrees>
              <LongitudeDegrees>-2.07896755076944828033447265625</LongitudeDegrees>
            </Position>
            <AltitudeMeters>220.399993896484375</AltitudeMeters>
            <DistanceMeters>NAN</DistanceMeters>
          </Trackpoint>
          <Trackpoint>
            <Time>2022-07-09T18:09:03.000Z</Time>
            <Position>
              <LatitudeDegrees>43.3004754222929477691650390625</LatitudeDegrees>
              <LongitudeDegrees>-2.0789921097457408905029296875</LongitudeDegrees>
            </Position>
            <AltitudeMeters>221</AltitudeMeters>
            <DistanceMeters>NAN</DistanceMeters>
          </Trackpoint>
          <Trackpoint>
            <Time>2022-07-09T18:09:08.000Z</Time>
            <Position>
              <LatitudeDegrees>43.30041834153234958648681640625</LatitudeDegrees>
              <LongitudeDegrees>-2.07903720438480377197265625</LongitudeDegrees>
            </Position>
            <AltitudeMeters>221.600006103515625</AltitudeMeters>
            <DistanceMeters>NAN</DistanceMeters>
          </Trackpoint>
          <Trackpoint>
            <Time>2022-07-09T18:09:11.000Z</Time>
            <Position>
              <LatitudeDegrees>43.30038540065288543701171875</LatitudeDegrees>
              <LongitudeDegrees>-2.079055644571781158447265625</LongitudeDegrees>
            </Position>
            <AltitudeMeters>222.1999969482421875</AltitudeMeters>
            <DistanceMeters>NAN</DistanceMeters>
          </Trackpoint>
          <Trackpoint>
            <Time>2022-07-09T18:09:14.000Z</Time>
            <Position>
              <LatitudeDegrees>43.3003543876111507415771484375</LatitudeDegrees>
              <LongitudeDegrees>-2.0790712349116802215576171875</LongitudeDegrees>
            </Position>
            <AltitudeMeters>222.600006103515625</AltitudeMeters>
            <DistanceMeters>NAN</DistanceMeters>
          </Trackpoint>
          <Trackpoint>
            <Time>2022-07-09T18:09:16.000Z</Time>
            <Position>
              <LatitudeDegrees>43.30033351667225360870361328125</LatitudeDegrees>
              <LongitudeDegrees>-2.07908573560416698455810546875</LongitudeDegrees>
            </Position>
            <AltitudeMeters>223</AltitudeMeters>
            <DistanceMeters>NAN</DistanceMeters>
          </Trackpoint>
          <Trackpoint>
            <Time>2022-07-09T18:09:18.000Z</Time>
            <Position>
              <LatitudeDegrees>43.30031432211399078369140625</LatitudeDegrees>
              <LongitudeDegrees>-2.07911004312336444854736328125</LongitudeDegrees>
            </Position>
            <AltitudeMeters>223.1999969482421875</AltitudeMeters>
            <DistanceMeters>NAN</DistanceMeters>
          </Trackpoint>
          <Trackpoint>
            <Time>2022-07-09T18:09:25.000Z</Time>
            <Position>
              <LatitudeDegrees>43.30025053583085536956787109375</LatitudeDegrees>
              <LongitudeDegrees>-2.0791798643767833709716796875</LongitudeDegrees>
            </Position>
            <AltitudeMeters>224</AltitudeMeters>
            <DistanceMeters>NAN</DistanceMeters>
          </Trackpoint>
          <Trackpoint>
            <Time>2022-07-09T18:09:27.000Z</Time>
            <Position>
              <LatitudeDegrees>43.30023159272968769073486328125</LatitudeDegrees>
              <LongitudeDegrees>-2.079197466373443603515625</LongitudeDegrees>
            </Position>
            <AltitudeMeters>224.1999969482421875</AltitudeMeters>
            <DistanceMeters>NAN</DistanceMeters>
          </Trackpoint>
          <Trackpoint>
            <Time>2022-07-09T18:09:32.000Z</Time>
            <Position>
              <LatitudeDegrees>43.30018716864287853240966796875</LatitudeDegrees>
              <LongitudeDegrees>-2.07924398593604564666748046875</LongitudeDegrees>
            </Position>
            <AltitudeMeters>225</AltitudeMeters>
            <DistanceMeters>NAN</DistanceMeters>
          </Trackpoint>
          <Trackpoint>
            <Time>2022-07-09T18:09:33.000Z</Time>
            <Position>
              <LatitudeDegrees>43.30017761327326297760009765625</LatitudeDegrees>
              <LongitudeDegrees>-2.07925320602953433990478515625</LongitudeDegrees>
            </Position>
            <AltitudeMeters>225.1999969482421875</AltitudeMeters>
            <DistanceMeters>NAN</DistanceMeters>
          </Trackpoint>
          <Trackpoint>
            <Time>2022-07-09T18:09:41.000Z</Time>
            <Position>
              <LatitudeDegrees>43.30009480006992816925048828125</LatitudeDegrees>
              <LongitudeDegrees>-2.079320847988128662109375</LongitudeDegrees>
            </Position>
            <AltitudeMeters>226.399993896484375</AltitudeMeters>
            <DistanceMeters>NAN</DistanceMeters>
          </Trackpoint>
          <Trackpoint>
            <Time>2022-07-09T18:09:42.000Z</Time>
            <Position>
              <LatitudeDegrees>43.30008356831967830657958984375</LatitudeDegrees>
              <LongitudeDegrees>-2.07932814024388790130615234375</LongitudeDegrees>
            </Position>
            <AltitudeMeters>226.600006103515625</AltitudeMeters>
            <DistanceMeters>NAN</DistanceMeters>
          </Trackpoint>
          <Trackpoint>
            <Time>2022-07-09T18:09:49.000Z</Time>
            <Position>
              <LatitudeDegrees>43.3000038564205169677734375</LatitudeDegrees>
              <LongitudeDegrees>-2.07935865037143230438232421875</LongitudeDegrees>
            </Position>
            <AltitudeMeters>227.399993896484375</AltitudeMeters>
            <DistanceMeters>NAN</DistanceMeters>
          </Trackpoint>
          <Trackpoint>
            <Time>2022-07-09T18:09:52.000Z</Time>
            <Position>
              <LatitudeDegrees>43.299969993531703948974609375</LatitudeDegrees>
              <LongitudeDegrees>-2.079374156892299652099609375</LongitudeDegrees>
            </Position>
            <AltitudeMeters>227.8000030517578125</AltitudeMeters>
            <DistanceMeters>NAN</DistanceMeters>
          </Trackpoint>
          <Trackpoint>
            <Time>2022-07-09T18:09:55.000Z</Time>
            <Position>
              <LatitudeDegrees>43.29992883838713169097900390625</LatitudeDegrees>
              <LongitudeDegrees>-2.0793803595006465911865234375</LongitudeDegrees>
            </Position>
            <AltitudeMeters>228.1999969482421875</AltitudeMeters>
            <DistanceMeters>NAN</DistanceMeters>
          </Trackpoint>
          <Trackpoint>
            <Time>2022-07-09T18:09:57.000Z</Time>
            <Position>
              <LatitudeDegrees>43.29990536905825138092041015625</LatitudeDegrees>
              <LongitudeDegrees>-2.079393602907657623291015625</LongitudeDegrees>
            </Position>
            <AltitudeMeters>228.399993896484375</AltitudeMeters>
            <DistanceMeters>NAN</DistanceMeters>
          </Trackpoint>
          <Trackpoint>
            <Time>2022-07-09T18:09:59.000Z</Time>
            <Position>
              <LatitudeDegrees>43.299881480634212493896484375</LatitudeDegrees>
              <LongitudeDegrees>-2.079400978982448577880859375</LongitudeDegrees>
            </Position>
            <AltitudeMeters>228.600006103515625</AltitudeMeters>
            <DistanceMeters>NAN</DistanceMeters>
          </Trackpoint>
          <Trackpoint>
            <Time>2022-07-09T18:10:10.000Z</Time>
            <Position>
              <LatitudeDegrees>43.29970906488597393035888671875</LatitudeDegrees>
              <LongitudeDegrees>-2.079398967325687408447265625</LongitudeDegrees>
            </Position>
            <AltitudeMeters>229</AltitudeMeters>
            <DistanceMeters>NAN</DistanceMeters>
          </Trackpoint>
          <Trackpoint>
            <Time>2022-07-09T18:10:15.000Z</Time>
            <Position>
              <LatitudeDegrees>43.29961267299950122833251953125</LatitudeDegrees>
              <LongitudeDegrees>-2.07937088795006275177001953125</LongitudeDegrees>
            </Position>
            <AltitudeMeters>229</AltitudeMeters>
            <DistanceMeters>NAN</DistanceMeters>
          </Trackpoint>
          <Trackpoint>
            <Time>2022-07-09T18:10:19.000Z</Time>
            <Position>
              <LatitudeDegrees>43.299533464014530181884765625</LatitudeDegrees>
              <LongitudeDegrees>-2.07935362122952938079833984375</LongitudeDegrees>
            </Position>
            <AltitudeMeters>229</AltitudeMeters>
            <DistanceMeters>NAN</DistanceMeters>
          </Trackpoint>
          <Trackpoint>
            <Time>2022-07-09T18:10:26.000Z</Time>
            <Position>
              <LatitudeDegrees>43.299371860921382904052734375</LatitudeDegrees>
              <LongitudeDegrees>-2.07940123043954372406005859375</LongitudeDegrees>
            </Position>
            <AltitudeMeters>229.1999969482421875</AltitudeMeters>
            <DistanceMeters>NAN</DistanceMeters>
          </Trackpoint>
          <Trackpoint>
            <Time>2022-07-09T18:10:28.000Z</Time>
            <Position>
              <LatitudeDegrees>43.299334980547428131103515625</LatitudeDegrees>
              <LongitudeDegrees>-2.0794065110385417938232421875</LongitudeDegrees>
            </Position>
            <AltitudeMeters>229.399993896484375</AltitudeMeters>
            <DistanceMeters>NAN</DistanceMeters>
          </Trackpoint>
          <Trackpoint>
            <Time>2022-07-09T18:10:30.000Z</Time>
            <Position>
              <LatitudeDegrees>43.29930312931537628173828125</LatitudeDegrees>
              <LongitudeDegrees>-2.0794262923300266265869140625</LongitudeDegrees>
            </Position>
            <AltitudeMeters>229.399993896484375</AltitudeMeters>
            <DistanceMeters>NAN</DistanceMeters>
          </Trackpoint>
          <Trackpoint>
            <Time>2022-07-09T18:10:31.000Z</Time>
            <Position>
              <LatitudeDegrees>43.29928862862288951873779296875</LatitudeDegrees>
              <LongitudeDegrees>-2.0794413797557353973388671875</LongitudeDegrees>
            </Position>
            <AltitudeMeters>229.399993896484375</AltitudeMeters>
            <DistanceMeters>NAN</DistanceMeters>
          </Trackpoint>
          <Trackpoint>
            <Time>2022-07-09T18:10:32.000Z</Time>
            <Position>
              <LatitudeDegrees>43.2992761395871639251708984375</LatitudeDegrees>
              <LongitudeDegrees>-2.07946040667593479156494140625</LongitudeDegrees>
            </Position>
            <AltitudeMeters>229.399993896484375</AltitudeMeters>
            <DistanceMeters>NAN</DistanceMeters>
          </Trackpoint>
          <Trackpoint>
            <Time>2022-07-09T18:10:37.000Z</Time>
            <Position>
              <LatitudeDegrees>43.2992436178028583526611328125</LatitudeDegrees>
              <LongitudeDegrees>-2.07954841665923595428466796875</LongitudeDegrees>
            </Position>
            <AltitudeMeters>230</AltitudeMeters>
            <DistanceMeters>NAN</DistanceMeters>
          </Trackpoint>
          <Trackpoint>
            <Time>2022-07-09T18:10:40.000Z</Time>
            <Position>
              <LatitudeDegrees>43.29922526143491268157958984375</LatitudeDegrees>
              <LongitudeDegrees>-2.0795919187366962432861328125</LongitudeDegrees>
            </Position>
            <AltitudeMeters>230</AltitudeMeters>
            <DistanceMeters>NAN</DistanceMeters>
          </Trackpoint>
          <Trackpoint>
            <Time>2022-07-09T18:10:43.000Z</Time>
            <Position>
              <LatitudeDegrees>43.299229703843593597412109375</LatitudeDegrees>
              <LongitudeDegrees>-2.0796593092381954193115234375</LongitudeDegrees>
            </Position>
            <AltitudeMeters>230.1999969482421875</AltitudeMeters>
            <DistanceMeters>NAN</DistanceMeters>
          </Trackpoint>
          <Trackpoint>
            <Time>2022-07-09T18:10:44.000Z</Time>
            <Position>
              <LatitudeDegrees>43.2992345653474330902099609375</LatitudeDegrees>
              <LongitudeDegrees>-2.07968805916607379913330078125</LongitudeDegrees>
            </Position>
            <AltitudeMeters>230.399993896484375</AltitudeMeters>
            <DistanceMeters>NAN</DistanceMeters>
          </Trackpoint>
          <Trackpoint>
            <Time>2022-07-09T18:10:45.000Z</Time>
            <Position>
              <LatitudeDegrees>43.29924034886062145233154296875</LatitudeDegrees>
              <LongitudeDegrees>-2.0797075890004634857177734375</LongitudeDegrees>
            </Position>
            <AltitudeMeters>230.600006103515625</AltitudeMeters>
            <DistanceMeters>NAN</DistanceMeters>
          </Trackpoint>
          <Trackpoint>
            <Time>2022-07-09T18:10:50.000Z</Time>
            <Position>
              <LatitudeDegrees>43.29927756451070308685302734375</LatitudeDegrees>
              <LongitudeDegrees>-2.07981077022850513458251953125</LongitudeDegrees>
            </Position>
            <AltitudeMeters>231.1999969482421875</AltitudeMeters>
            <DistanceMeters>NAN</DistanceMeters>
          </Trackpoint>
          <Trackpoint>
            <Time>2022-07-09T18:10:52.000Z</Time>
            <Position>
              <LatitudeDegrees>43.2993006147444248199462890625</LatitudeDegrees>
              <LongitudeDegrees>-2.07984320819377899169921875</LongitudeDegrees>
            </Position>
            <AltitudeMeters>231.8000030517578125</AltitudeMeters>
            <DistanceMeters>NAN</DistanceMeters>
          </Trackpoint>
          <Trackpoint>
            <Time>2022-07-09T18:10:58.000Z</Time>
            <Position>
              <LatitudeDegrees>43.29938418231904506683349609375</LatitudeDegrees>
              <LongitudeDegrees>-2.07992241717875003814697265625</LongitudeDegrees>
            </Position>
            <AltitudeMeters>233</AltitudeMeters>
            <DistanceMeters>NAN</DistanceMeters>
          </Trackpoint>
          <Trackpoint>
            <Time>2022-07-09T18:11:03.000Z</Time>
            <Position>
              <LatitudeDegrees>43.29944788478314876556396484375</LatitudeDegrees>
              <LongitudeDegrees>-2.07999383099377155303955078125</LongitudeDegrees>
            </Position>
            <AltitudeMeters>233.600006103515625</AltitudeMeters>
            <DistanceMeters>NAN</DistanceMeters>
          </Trackpoint>
          <Trackpoint>
            <Time>2022-07-09T18:11:05.000Z</Time>
            <Position>
              <LatitudeDegrees>43.299477808177471160888671875</LatitudeDegrees>
              <LongitudeDegrees>-2.0800321362912654876708984375</LongitudeDegrees>
            </Position>
            <AltitudeMeters>233.600006103515625</AltitudeMeters>
            <DistanceMeters>NAN</DistanceMeters>
          </Trackpoint>
          <Trackpoint>
            <Time>2022-07-09T18:11:07.000Z</Time>
            <Position>
              <LatitudeDegrees>43.299508988857269287109375</LatitudeDegrees>
              <LongitudeDegrees>-2.0800613053143024444580078125</LongitudeDegrees>
            </Position>
            <AltitudeMeters>234</AltitudeMeters>
            <DistanceMeters>NAN</DistanceMeters>
          </Trackpoint>
          <Trackpoint>
            <Time>2022-07-09T18:11:12.000Z</Time>
            <Position>
              <LatitudeDegrees>43.2995755411684513092041015625</LatitudeDegrees>
              <LongitudeDegrees>-2.08013162948191165924072265625</LongitudeDegrees>
            </Position>
            <AltitudeMeters>234.8000030517578125</AltitudeMeters>
            <DistanceMeters>NAN</DistanceMeters>
          </Trackpoint>
          <Trackpoint>
            <Time>2022-07-09T18:11:14.000Z</Time>
            <Position>
              <LatitudeDegrees>43.29960353672504425048828125</LatitudeDegrees>
              <LongitudeDegrees>-2.08016348071396350860595703125</LongitudeDegrees>
            </Position>
            <AltitudeMeters>235.1999969482421875</AltitudeMeters>
            <DistanceMeters>NAN</DistanceMeters>
          </Trackpoint>
          <Trackpoint>
            <Time>2022-07-09T18:11:15.000Z</Time>
            <Position>
              <LatitudeDegrees>43.29961837269365787506103515625</LatitudeDegrees>
              <LongitudeDegrees>-2.0801751315593719482421875</LongitudeDegrees>
            </Position>
            <AltitudeMeters>235.399993896484375</AltitudeMeters>
            <DistanceMeters>NAN</DistanceMeters>
          </Trackpoint>
          <Trackpoint>
            <Time>2022-07-09T18:11:20.000Z</Time>
            <Position>
              <LatitudeDegrees>43.2996841706335544586181640625</LatitudeDegrees>
              <LongitudeDegrees>-2.08023070357739925384521484375</LongitudeDegrees>
            </Position>
            <AltitudeMeters>236.1999969482421875</AltitudeMeters>
            <DistanceMeters>NAN</DistanceMeters>
          </Trackpoint>
          <Trackpoint>
            <Time>2022-07-09T18:11:24.000Z</Time>
            <Position>
              <LatitudeDegrees>43.29974167048931121826171875</LatitudeDegrees>
              <LongitudeDegrees>-2.0803151093423366546630859375</LongitudeDegrees>
            </Position>
            <AltitudeMeters>236.600006103515625</AltitudeMeters>
            <DistanceMeters>NAN</DistanceMeters>
          </Trackpoint>
          <Trackpoint>
            <Time>2022-07-09T18:11:32.000Z</Time>
            <Position>
              <LatitudeDegrees>43.29984351061284542083740234375</LatitudeDegrees>
              <LongitudeDegrees>-2.080462463200092315673828125</LongitudeDegrees>
            </Position>
            <AltitudeMeters>237.1999969482421875</AltitudeMeters>
            <DistanceMeters>NAN</DistanceMeters>
          </Trackpoint>
          <Trackpoint>
            <Time>2022-07-09T18:11:33.000Z</Time>
            <Position>
              <LatitudeDegrees>43.2998548261821269989013671875</LatitudeDegrees>
              <LongitudeDegrees>-2.08048299886286258697509765625</LongitudeDegrees>
            </Position>
            <AltitudeMeters>237.399993896484375</AltitudeMeters>
            <DistanceMeters>NAN</DistanceMeters>
          </Trackpoint>
          <Trackpoint>
            <Time>2022-07-09T18:11:40.000Z</Time>
            <Position>
              <LatitudeDegrees>43.29992850311100482940673828125</LatitudeDegrees>
              <LongitudeDegrees>-2.08058609627187252044677734375</LongitudeDegrees>
            </Position>
            <AltitudeMeters>237.8000030517578125</AltitudeMeters>
            <DistanceMeters>NAN</DistanceMeters>
          </Trackpoint>
          <Trackpoint>
            <Time>2022-07-09T18:11:46.000Z</Time>
            <Position>
              <LatitudeDegrees>43.30000075511634349822998046875</LatitudeDegrees>
              <LongitudeDegrees>-2.08062867633998394012451171875</LongitudeDegrees>
            </Position>
            <AltitudeMeters>238.399993896484375</AltitudeMeters>
            <DistanceMeters>NAN</DistanceMeters>
          </Trackpoint>
          <Trackpoint>
            <Time>2022-07-09T18:11:47.000Z</Time>
            <Position>
              <LatitudeDegrees>43.300015591084957122802734375</LatitudeDegrees>
              <LongitudeDegrees>-2.0806366391479969024658203125</LongitudeDegrees>
            </Position>
            <AltitudeMeters>238.399993896484375</AltitudeMeters>
            <DistanceMeters>NAN</DistanceMeters>
          </Trackpoint>
          <Trackpoint>
            <Time>2022-07-09T18:11:50.000Z</Time>
            <Position>
              <LatitudeDegrees>43.3000580035150051116943359375</LatitudeDegrees>
              <LongitudeDegrees>-2.08064661361277103424072265625</LongitudeDegrees>
            </Position>
            <AltitudeMeters>238.8000030517578125</AltitudeMeters>
            <DistanceMeters>NAN</DistanceMeters>
          </Trackpoint>
          <Trackpoint>
            <Time>2022-07-09T18:11:54.000Z</Time>
            <Position>
              <LatitudeDegrees>43.3001153357326984405517578125</LatitudeDegrees>
              <LongitudeDegrees>-2.080651223659515380859375</LongitudeDegrees>
            </Position>
            <AltitudeMeters>239.399993896484375</AltitudeMeters>
            <DistanceMeters>NAN</DistanceMeters>
          </Trackpoint>
          <Trackpoint>
            <Time>2022-07-09T18:12:00.000Z</Time>
            <Position>
              <LatitudeDegrees>43.30020426772534847259521484375</LatitudeDegrees>
              <LongitudeDegrees>-2.080715596675872802734375</LongitudeDegrees>
            </Position>
            <AltitudeMeters>240.600006103515625</AltitudeMeters>
            <DistanceMeters>NAN</DistanceMeters>
          </Trackpoint>
          <Trackpoint>
            <Time>2022-07-09T18:12:01.000Z</Time>
            <Position>
              <LatitudeDegrees>43.30022103153169155120849609375</LatitudeDegrees>
              <LongitudeDegrees>-2.080721296370029449462890625</LongitudeDegrees>
            </Position>
            <AltitudeMeters>240.8000030517578125</AltitudeMeters>
            <DistanceMeters>NAN</DistanceMeters>
          </Trackpoint>
          <Trackpoint>
            <Time>2022-07-09T18:12:06.000Z</Time>
            <Position>
              <LatitudeDegrees>43.30028473399579524993896484375</LatitudeDegrees>
              <LongitudeDegrees>-2.080789692699909210205078125</LongitudeDegrees>
            </Position>
            <AltitudeMeters>241.8000030517578125</AltitudeMeters>
            <DistanceMeters>NAN</DistanceMeters>
          </Trackpoint>
          <Trackpoint>
            <Time>2022-07-09T18:12:07.000Z</Time>
            <Position>
              <LatitudeDegrees>43.30029378645122051239013671875</LatitudeDegrees>
              <LongitudeDegrees>-2.0808046124875545501708984375</LongitudeDegrees>
            </Position>
            <AltitudeMeters>241.8000030517578125</AltitudeMeters>
            <DistanceMeters>NAN</DistanceMeters>
          </Trackpoint>
          <Trackpoint>
            <Time>2022-07-09T18:12:12.000Z</Time>
            <Position>
              <LatitudeDegrees>43.3003101311624050140380859375</LatitudeDegrees>
              <LongitudeDegrees>-2.08087761886417865753173828125</LongitudeDegrees>
            </Position>
            <AltitudeMeters>242.600006103515625</AltitudeMeters>
            <DistanceMeters>NAN</DistanceMeters>
          </Trackpoint>
          <Trackpoint>
            <Time>2022-07-09T18:12:14.000Z</Time>
            <Position>
              <LatitudeDegrees>43.30033586360514163970947265625</LatitudeDegrees>
              <LongitudeDegrees>-2.08090343512594699859619140625</LongitudeDegrees>
            </Position>
            <AltitudeMeters>242.600006103515625</AltitudeMeters>
            <DistanceMeters>NAN</DistanceMeters>
          </Trackpoint>
          <Trackpoint>
            <Time>2022-07-09T18:12:16.000Z</Time>
            <Position>
              <LatitudeDegrees>43.300366289913654327392578125</LatitudeDegrees>
              <LongitudeDegrees>-2.08093746565282344818115234375</LongitudeDegrees>
            </Position>
            <AltitudeMeters>242.600006103515625</AltitudeMeters>
            <DistanceMeters>NAN</DistanceMeters>
          </Trackpoint>
          <Trackpoint>
            <Time>2022-07-09T18:12:20.000Z</Time>
            <Position>
              <LatitudeDegrees>43.30042337067425251007080078125</LatitudeDegrees>
              <LongitudeDegrees>-2.08100955002009868621826171875</LongitudeDegrees>
            </Position>
            <AltitudeMeters>242.399993896484375</AltitudeMeters>
            <DistanceMeters>NAN</DistanceMeters>
          </Trackpoint>
          <Trackpoint>
            <Time>2022-07-09T18:12:26.000Z</Time>
            <Position>
              <LatitudeDegrees>43.30047232098877429962158203125</LatitudeDegrees>
              <LongitudeDegrees>-2.08113326691091060638427734375</LongitudeDegrees>
            </Position>
            <AltitudeMeters>242.1999969482421875</AltitudeMeters>
            <DistanceMeters>NAN</DistanceMeters>
          </Trackpoint>
          <Trackpoint>
            <Time>2022-07-09T18:12:28.000Z</Time>
            <Position>
              <LatitudeDegrees>43.30047852359712123870849609375</LatitudeDegrees>
              <LongitudeDegrees>-2.08116964437067508697509765625</LongitudeDegrees>
            </Position>
            <AltitudeMeters>242.1999969482421875</AltitudeMeters>
            <DistanceMeters>NAN</DistanceMeters>
          </Trackpoint>
          <Trackpoint>
            <Time>2022-07-09T18:12:31.000Z</Time>
            <Position>
              <LatitudeDegrees>43.30046586692333221435546875</LatitudeDegrees>
              <LongitudeDegrees>-2.08122588694095611572265625</LongitudeDegrees>
            </Position>
            <AltitudeMeters>242.600006103515625</AltitudeMeters>
            <DistanceMeters>NAN</DistanceMeters>
          </Trackpoint>
          <Trackpoint>
            <Time>2022-07-09T18:12:33.000Z</Time>
            <Position>
              <LatitudeDegrees>43.3004598319530487060546875</LatitudeDegrees>
              <LongitudeDegrees>-2.08125513978302478790283203125</LongitudeDegrees>
            </Position>
            <AltitudeMeters>242.8000030517578125</AltitudeMeters>
            <DistanceMeters>NAN</DistanceMeters>
          </Trackpoint>
          <Trackpoint>
            <Time>2022-07-09T18:12:37.000Z</Time>
            <Position>
              <LatitudeDegrees>43.30044482834637165069580078125</LatitudeDegrees>
              <LongitudeDegrees>-2.0813132263720035552978515625</LongitudeDegrees>
            </Position>
            <AltitudeMeters>243</AltitudeMeters>
            <DistanceMeters>NAN</DistanceMeters>
          </Trackpoint>
          <Trackpoint>
            <Time>2022-07-09T18:12:43.000Z</Time>
            <Position>
              <LatitudeDegrees>43.30045153386890888214111328125</LatitudeDegrees>
              <LongitudeDegrees>-2.08136242814362049102783203125</LongitudeDegrees>
            </Position>
            <AltitudeMeters>243</AltitudeMeters>
            <DistanceMeters>NAN</DistanceMeters>
          </Trackpoint>
          <Trackpoint>
            <Time>2022-07-09T18:14:46.000Z</Time>
            <Position>
              <LatitudeDegrees>43.30052110366523265838623046875</LatitudeDegrees>
              <LongitudeDegrees>-2.081163190305233001708984375</LongitudeDegrees>
            </Position>
            <AltitudeMeters>241.399993896484375</AltitudeMeters>
            <DistanceMeters>NAN</DistanceMeters>
          </Trackpoint>
          <Trackpoint>
            <Time>2022-07-09T18:14:47.000Z</Time>
            <Position>
              <LatitudeDegrees>43.30053317360579967498779296875</LatitudeDegrees>
              <LongitudeDegrees>-2.08116696216166019439697265625</LongitudeDegrees>
            </Position>
            <AltitudeMeters>241.1999969482421875</AltitudeMeters>
            <DistanceMeters>NAN</DistanceMeters>
          </Trackpoint>
          <Trackpoint>
            <Time>2022-07-09T18:14:49.000Z</Time>
            <Position>
              <LatitudeDegrees>43.300564102828502655029296875</LatitudeDegrees>
              <LongitudeDegrees>-2.08117492496967315673828125</LongitudeDegrees>
            </Position>
            <AltitudeMeters>241.1999969482421875</AltitudeMeters>
            <DistanceMeters>NAN</DistanceMeters>
          </Trackpoint>
          <Trackpoint>
            <Time>2022-07-09T18:14:51.000Z</Time>
            <Position>
              <LatitudeDegrees>43.30059654079377651214599609375</LatitudeDegrees>
              <LongitudeDegrees>-2.08117894828319549560546875</LongitudeDegrees>
            </Position>
            <AltitudeMeters>241.1999969482421875</AltitudeMeters>
            <DistanceMeters>NAN</DistanceMeters>
          </Trackpoint>
          <Trackpoint>
            <Time>2022-07-09T18:14:55.000Z</Time>
            <Position>
              <LatitudeDegrees>43.30065269954502582550048828125</LatitudeDegrees>
              <LongitudeDegrees>-2.08121272735297679901123046875</LongitudeDegrees>
            </Position>
            <AltitudeMeters>241.399993896484375</AltitudeMeters>
            <DistanceMeters>NAN</DistanceMeters>
          </Trackpoint>
          <Trackpoint>
            <Time>2022-07-09T18:14:59.000Z</Time>
            <Position>
              <LatitudeDegrees>43.30070064403116703033447265625</LatitudeDegrees>
              <LongitudeDegrees>-2.0812568999826908111572265625</LongitudeDegrees>
            </Position>
            <AltitudeMeters>241.600006103515625</AltitudeMeters>
            <DistanceMeters>NAN</DistanceMeters>
          </Trackpoint>
          <Trackpoint>
            <Time>2022-07-09T18:15:07.000Z</Time>
            <Position>
              <LatitudeDegrees>43.3008130453526973724365234375</LatitudeDegrees>
              <LongitudeDegrees>-2.08134801127016544342041015625</LongitudeDegrees>
            </Position>
            <AltitudeMeters>242.399993896484375</AltitudeMeters>
            <DistanceMeters>NAN</DistanceMeters>
          </Trackpoint>
          <Trackpoint>
            <Time>2022-07-09T18:15:12.000Z</Time>
            <Position>
              <LatitudeDegrees>43.30088588409125804901123046875</LatitudeDegrees>
              <LongitudeDegrees>-2.0813702233135700225830078125</LongitudeDegrees>
            </Position>
            <AltitudeMeters>243</AltitudeMeters>
            <DistanceMeters>NAN</DistanceMeters>
          </Trackpoint>
          <Trackpoint>
            <Time>2022-07-09T18:15:15.000Z</Time>
            <Position>
              <LatitudeDegrees>43.3009313978254795074462890625</LatitudeDegrees>
              <LongitudeDegrees>-2.08138287998735904693603515625</LongitudeDegrees>
            </Position>
            <AltitudeMeters>243.399993896484375</AltitudeMeters>
            <DistanceMeters>NAN</DistanceMeters>
          </Trackpoint>
          <Trackpoint>
            <Time>2022-07-09T18:15:16.000Z</Time>
            <Position>
              <LatitudeDegrees>43.30094673670828342437744140625</LatitudeDegrees>
              <LongitudeDegrees>-2.08138321526348590850830078125</LongitudeDegrees>
            </Position>
            <AltitudeMeters>243.600006103515625</AltitudeMeters>
            <DistanceMeters>NAN</DistanceMeters>
          </Trackpoint>
          <Trackpoint>
            <Time>2022-07-09T18:15:22.000Z</Time>
            <Position>
              <LatitudeDegrees>43.30102502368390560150146484375</LatitudeDegrees>
              <LongitudeDegrees>-2.081382460892200469970703125</LongitudeDegrees>
            </Position>
            <AltitudeMeters>244.600006103515625</AltitudeMeters>
            <DistanceMeters>NAN</DistanceMeters>
          </Trackpoint>
          <Trackpoint>
            <Time>2022-07-09T18:15:23.000Z</Time>
            <Position>
              <LatitudeDegrees>43.301036842167377471923828125</LatitudeDegrees>
              <LongitudeDegrees>-2.08138489164412021636962890625</LongitudeDegrees>
            </Position>
            <AltitudeMeters>244.8000030517578125</AltitudeMeters>
            <DistanceMeters>NAN</DistanceMeters>
          </Trackpoint>
          <Trackpoint>
            <Time>2022-07-09T18:15:26.000Z</Time>
            <Position>
              <LatitudeDegrees>43.30104145221412181854248046875</LatitudeDegrees>
              <LongitudeDegrees>-2.08138640038669109344482421875</LongitudeDegrees>
            </Position>
            <AltitudeMeters>245</AltitudeMeters>
            <DistanceMeters>NAN</DistanceMeters>
          </Trackpoint>
          <Trackpoint>
            <Time>2022-07-09T18:16:04.000Z</Time>
            <Position>
              <LatitudeDegrees>43.3013313822448253631591796875</LatitudeDegrees>
              <LongitudeDegrees>-2.08139620721340179443359375</LongitudeDegrees>
            </Position>
            <AltitudeMeters>248.8000030517578125</AltitudeMeters>
            <DistanceMeters>NAN</DistanceMeters>
          </Trackpoint>
          <Trackpoint>
            <Time>2022-07-09T18:16:05.000Z</Time>
            <Position>
              <LatitudeDegrees>43.3013431169092655181884765625</LatitudeDegrees>
              <LongitudeDegrees>-2.08139293827116489410400390625</LongitudeDegrees>
            </Position>
            <AltitudeMeters>248.8000030517578125</AltitudeMeters>
            <DistanceMeters>NAN</DistanceMeters>
          </Trackpoint>
          <Trackpoint>
            <Time>2022-07-09T18:16:07.000Z</Time>
            <Position>
              <LatitudeDegrees>43.3013508282601833343505859375</LatitudeDegrees>
              <LongitudeDegrees>-2.0813883282244205474853515625</LongitudeDegrees>
            </Position>
            <AltitudeMeters>249</AltitudeMeters>
            <DistanceMeters>NAN</DistanceMeters>
          </Trackpoint>
          <Trackpoint>
            <Time>2022-07-09T18:16:10.000Z</Time>
            <Position>
              <LatitudeDegrees>43.301375806331634521484375</LatitudeDegrees>
              <LongitudeDegrees>-2.08135287277400493621826171875</LongitudeDegrees>
            </Position>
            <AltitudeMeters>249</AltitudeMeters>
            <DistanceMeters>NAN</DistanceMeters>
          </Trackpoint>
          <Trackpoint>
            <Time>2022-07-09T18:16:11.000Z</Time>
            <Position>
              <LatitudeDegrees>43.3013722859323024749755859375</LatitudeDegrees>
              <LongitudeDegrees>-2.0813423953950405120849609375</LongitudeDegrees>
            </Position>
            <AltitudeMeters>249</AltitudeMeters>
            <DistanceMeters>NAN</DistanceMeters>
          </Trackpoint>
          <Trackpoint>
            <Time>2022-07-09T18:16:14.000Z</Time>
            <Position>
              <LatitudeDegrees>43.3013514988124370574951171875</LatitudeDegrees>
              <LongitudeDegrees>-2.08130459301173686981201171875</LongitudeDegrees>
            </Position>
            <AltitudeMeters>248.8000030517578125</AltitudeMeters>
            <DistanceMeters>NAN</DistanceMeters>
          </Trackpoint>
          <Trackpoint>
            <Time>2022-07-09T18:16:18.000Z</Time>
            <Position>
              <LatitudeDegrees>43.3013266883790493011474609375</LatitudeDegrees>
              <LongitudeDegrees>-2.08126938901841640472412109375</LongitudeDegrees>
            </Position>
            <AltitudeMeters>248.600006103515625</AltitudeMeters>
            <DistanceMeters>NAN</DistanceMeters>
          </Trackpoint>
          <Trackpoint>
            <Time>2022-07-09T18:16:24.000Z</Time>
            <Position>
              <LatitudeDegrees>43.30132408998906612396240234375</LatitudeDegrees>
              <LongitudeDegrees>-2.0812719874083995819091796875</LongitudeDegrees>
            </Position>
            <AltitudeMeters>248.399993896484375</AltitudeMeters>
            <DistanceMeters>NAN</DistanceMeters>
          </Trackpoint>
          <Trackpoint>
            <Time>2022-07-09T18:16:25.000Z</Time>
            <Position>
              <LatitudeDegrees>43.30133431591093540191650390625</LatitudeDegrees>
              <LongitudeDegrees>-2.08128330297768115997314453125</LongitudeDegrees>
            </Position>
            <AltitudeMeters>248.600006103515625</AltitudeMeters>
            <DistanceMeters>NAN</DistanceMeters>
          </Trackpoint>
          <Trackpoint>
            <Time>2022-07-09T18:16:30.000Z</Time>
            <Position>
              <LatitudeDegrees>43.30137471668422222137451171875</LatitudeDegrees>
              <LongitudeDegrees>-2.0813464187085628509521484375</LongitudeDegrees>
            </Position>
            <AltitudeMeters>248.8000030517578125</AltitudeMeters>
            <DistanceMeters>NAN</DistanceMeters>
          </Trackpoint>
          <Trackpoint>
            <Time>2022-07-09T18:16:35.000Z</Time>
            <Position>
              <LatitudeDegrees>43.3014017902314662933349609375</LatitudeDegrees>
              <LongitudeDegrees>-2.08135119639337062835693359375</LongitudeDegrees>
            </Position>
            <AltitudeMeters>249.1999969482421875</AltitudeMeters>
            <DistanceMeters>NAN</DistanceMeters>
          </Trackpoint>
          <Trackpoint>
            <Time>2022-07-09T18:19:26.000Z</Time>
            <Position>
              <LatitudeDegrees>43.30135560594499111175537109375</LatitudeDegrees>
              <LongitudeDegrees>-2.0813541300594806671142578125</LongitudeDegrees>
            </Position>
            <AltitudeMeters>247.1999969482421875</AltitudeMeters>
            <DistanceMeters>NAN</DistanceMeters>
          </Trackpoint>
          <Trackpoint>
            <Time>2022-07-09T18:19:27.000Z</Time>
            <Position>
              <LatitudeDegrees>43.301346637308597564697265625</LatitudeDegrees>
              <LongitudeDegrees>-2.08136226050555706024169921875</LongitudeDegrees>
            </Position>
            <AltitudeMeters>247.1999969482421875</AltitudeMeters>
            <DistanceMeters>NAN</DistanceMeters>
          </Trackpoint>
          <Trackpoint>
            <Time>2022-07-09T18:19:31.000Z</Time>
            <Position>
              <LatitudeDegrees>43.3012965135276317596435546875</LatitudeDegrees>
              <LongitudeDegrees>-2.08139109425246715545654296875</LongitudeDegrees>
            </Position>
            <AltitudeMeters>247.1999969482421875</AltitudeMeters>
            <DistanceMeters>NAN</DistanceMeters>
          </Trackpoint>
          <Trackpoint>
            <Time>2022-07-09T18:19:32.000Z</Time>
            <Position>
              <LatitudeDegrees>43.3012844435870647430419921875</LatitudeDegrees>
              <LongitudeDegrees>-2.08139025606215000152587890625</LongitudeDegrees>
            </Position>
            <AltitudeMeters>247.399993896484375</AltitudeMeters>
            <DistanceMeters>NAN</DistanceMeters>
          </Trackpoint>
          <Trackpoint>
            <Time>2022-07-10T07:17:41.000Z</Time>
            <Position>
              <LatitudeDegrees>43.30150916241109371185302734375</LatitudeDegrees>
              <LongitudeDegrees>-2.08135404624044895172119140625</LongitudeDegrees>
            </Position>
            <AltitudeMeters>259</AltitudeMeters>
            <DistanceMeters>NAN</DistanceMeters>
          </Trackpoint>
          <Trackpoint>
            <Time>2022-07-10T07:17:42.000Z</Time>
            <Position>
              <LatitudeDegrees>43.30150916241109371185302734375</LatitudeDegrees>
              <LongitudeDegrees>-2.08135404624044895172119140625</LongitudeDegrees>
            </Position>
            <AltitudeMeters>258.79998779296875</AltitudeMeters>
            <DistanceMeters>NAN</DistanceMeters>
          </Trackpoint>
          <Trackpoint>
            <Time>2022-07-10T07:19:03.000Z</Time>
            <Position>
              <LatitudeDegrees>43.300934247672557830810546875</LatitudeDegrees>
              <LongitudeDegrees>-2.0814781822264194488525390625</LongitudeDegrees>
            </Position>
            <AltitudeMeters>253.1999969482421875</AltitudeMeters>
            <DistanceMeters>NAN</DistanceMeters>
          </Trackpoint>
          <Trackpoint>
            <Time>2022-07-10T07:19:05.000Z</Time>
            <Position>
              <LatitudeDegrees>43.300881944596767425537109375</LatitudeDegrees>
              <LongitudeDegrees>-2.08146602846682071685791015625</LongitudeDegrees>
            </Position>
            <AltitudeMeters>252.600006103515625</AltitudeMeters>
            <DistanceMeters>NAN</DistanceMeters>
          </Trackpoint>
          <Trackpoint>
            <Time>2022-07-10T07:19:07.000Z</Time>
            <Position>
              <LatitudeDegrees>43.3008219301700592041015625</LatitudeDegrees>
              <LongitudeDegrees>-2.0814483426511287689208984375</LongitudeDegrees>
            </Position>
            <AltitudeMeters>252</AltitudeMeters>
            <DistanceMeters>NAN</DistanceMeters>
          </Trackpoint>
          <Trackpoint>
            <Time>2022-07-10T07:19:10.000Z</Time>
            <Position>
              <LatitudeDegrees>43.30070802010595798492431640625</LatitudeDegrees>
              <LongitudeDegrees>-2.08140366710722446441650390625</LongitudeDegrees>
            </Position>
            <AltitudeMeters>250.8000030517578125</AltitudeMeters>
            <DistanceMeters>NAN</DistanceMeters>
          </Trackpoint>
          <Trackpoint>
            <Time>2022-07-10T07:19:12.000Z</Time>
            <Position>
              <LatitudeDegrees>43.30065772868692874908447265625</LatitudeDegrees>
              <LongitudeDegrees>-2.08136376924812793731689453125</LongitudeDegrees>
            </Position>
            <AltitudeMeters>250</AltitudeMeters>
            <DistanceMeters>NAN</DistanceMeters>
          </Trackpoint>
          <Trackpoint>
            <Time>2022-07-10T07:19:14.000Z</Time>
            <Position>
              <LatitudeDegrees>43.3006256259977817535400390625</LatitudeDegrees>
              <LongitudeDegrees>-2.08132320083677768707275390625</LongitudeDegrees>
            </Position>
            <AltitudeMeters>249.600006103515625</AltitudeMeters>
            <DistanceMeters>NAN</DistanceMeters>
          </Trackpoint>
          <Trackpoint>
            <Time>2022-07-10T07:19:17.000Z</Time>
            <Position>
              <LatitudeDegrees>43.30058329738676548004150390625</LatitudeDegrees>
              <LongitudeDegrees>-2.08128414116799831390380859375</LongitudeDegrees>
            </Position>
            <AltitudeMeters>249.1999969482421875</AltitudeMeters>
            <DistanceMeters>NAN</DistanceMeters>
          </Trackpoint>
          <Trackpoint>
            <Time>2022-07-10T07:19:24.000Z</Time>
            <Position>
              <LatitudeDegrees>43.30046494491398334503173828125</LatitudeDegrees>
              <LongitudeDegrees>-2.081212140619754791259765625</LongitudeDegrees>
            </Position>
            <AltitudeMeters>248.8000030517578125</AltitudeMeters>
            <DistanceMeters>NAN</DistanceMeters>
          </Trackpoint>
          <Trackpoint>
            <Time>2022-07-10T07:19:31.000Z</Time>
            <Position>
              <LatitudeDegrees>43.30039403401315212249755859375</LatitudeDegrees>
              <LongitudeDegrees>-2.08115958608686923980712890625</LongitudeDegrees>
            </Position>
            <AltitudeMeters>249</AltitudeMeters>
            <DistanceMeters>NAN</DistanceMeters>
          </Trackpoint>
          <Trackpoint>
            <Time>2022-07-10T07:19:32.000Z</Time>
            <Position>
              <LatitudeDegrees>43.30039571039378643035888671875</LatitudeDegrees>
              <LongitudeDegrees>-2.08115723915398120880126953125</LongitudeDegrees>
            </Position>
            <AltitudeMeters>249</AltitudeMeters>
            <DistanceMeters>NAN</DistanceMeters>
          </Trackpoint>
          <Trackpoint>
            <Time>2022-07-10T07:19:42.000Z</Time>
            <Position>
              <LatitudeDegrees>43.30036955885589122772216796875</LatitudeDegrees>
              <LongitudeDegrees>-2.08108180202543735504150390625</LongitudeDegrees>
            </Position>
            <AltitudeMeters>248.8000030517578125</AltitudeMeters>
            <DistanceMeters>NAN</DistanceMeters>
          </Trackpoint>
          <Trackpoint>
            <Time>2022-07-10T07:19:44.000Z</Time>
            <Position>
              <LatitudeDegrees>43.30035631544888019561767578125</LatitudeDegrees>
              <LongitudeDegrees>-2.08104081451892852783203125</LongitudeDegrees>
            </Position>
            <AltitudeMeters>248.8000030517578125</AltitudeMeters>
            <DistanceMeters>NAN</DistanceMeters>
          </Trackpoint>
          <Trackpoint>
            <Time>2022-07-10T07:19:51.000Z</Time>
            <Position>
              <LatitudeDegrees>43.30026738345623016357421875</LatitudeDegrees>
              <LongitudeDegrees>-2.08095640875399112701416015625</LongitudeDegrees>
            </Position>
            <AltitudeMeters>249.399993896484375</AltitudeMeters>
            <DistanceMeters>NAN</DistanceMeters>
          </Trackpoint>
          <Trackpoint>
            <Time>2022-07-10T07:19:57.000Z</Time>
            <Position>
              <LatitudeDegrees>43.30016571097075939178466796875</LatitudeDegrees>
              <LongitudeDegrees>-2.0809583365917205810546875</LongitudeDegrees>
            </Position>
            <AltitudeMeters>249.600006103515625</AltitudeMeters>
            <DistanceMeters>NAN</DistanceMeters>
          </Trackpoint>
          <Trackpoint>
            <Time>2022-07-10T07:19:59.000Z</Time>
            <Position>
              <LatitudeDegrees>43.30013486556708812713623046875</LatitudeDegrees>
              <LongitudeDegrees>-2.08097216673195362091064453125</LongitudeDegrees>
            </Position>
            <AltitudeMeters>249.600006103515625</AltitudeMeters>
            <DistanceMeters>NAN</DistanceMeters>
          </Trackpoint>
          <Trackpoint>
            <Time>2022-07-10T07:20:01.000Z</Time>
            <Position>
              <LatitudeDegrees>43.30010787583887577056884765625</LatitudeDegrees>
              <LongitudeDegrees>-2.08097216673195362091064453125</LongitudeDegrees>
            </Position>
            <AltitudeMeters>250</AltitudeMeters>
            <DistanceMeters>NAN</DistanceMeters>
          </Trackpoint>
          <Trackpoint>
            <Time>2022-07-10T07:20:02.000Z</Time>
            <Position>
              <LatitudeDegrees>43.3000928722321987152099609375</LatitudeDegrees>
              <LongitudeDegrees>-2.0809672214090824127197265625</LongitudeDegrees>
            </Position>
            <AltitudeMeters>250.1999969482421875</AltitudeMeters>
            <DistanceMeters>NAN</DistanceMeters>
          </Trackpoint>
          <Trackpoint>
            <Time>2022-07-10T07:20:05.000Z</Time>
            <Position>
              <LatitudeDegrees>43.3000481128692626953125</LatitudeDegrees>
              <LongitudeDegrees>-2.0809668861329555511474609375</LongitudeDegrees>
            </Position>
            <AltitudeMeters>250.600006103515625</AltitudeMeters>
            <DistanceMeters>NAN</DistanceMeters>
          </Trackpoint>
          <Trackpoint>
            <Time>2022-07-10T07:20:10.000Z</Time>
            <Position>
              <LatitudeDegrees>43.29998700879514217376708984375</LatitudeDegrees>
              <LongitudeDegrees>-2.08097535185515880584716796875</LongitudeDegrees>
            </Position>
            <AltitudeMeters>251.399993896484375</AltitudeMeters>
            <DistanceMeters>NAN</DistanceMeters>
          </Trackpoint>
          <Trackpoint>
            <Time>2022-07-10T07:20:13.000Z</Time>
            <Position>
              <LatitudeDegrees>43.29995582811534404754638671875</LatitudeDegrees>
              <LongitudeDegrees>-2.0809846557676792144775390625</LongitudeDegrees>
            </Position>
            <AltitudeMeters>251.600006103515625</AltitudeMeters>
            <DistanceMeters>NAN</DistanceMeters>
          </Trackpoint>
          <Trackpoint>
            <Time>2022-07-10T07:20:14.000Z</Time>
            <Position>
              <LatitudeDegrees>43.299945853650569915771484375</LatitudeDegrees>
              <LongitudeDegrees>-2.08099253475666046142578125</LongitudeDegrees>
            </Position>
            <AltitudeMeters>251.8000030517578125</AltitudeMeters>
            <DistanceMeters>NAN</DistanceMeters>
          </Trackpoint>
          <Trackpoint>
            <Time>2022-07-10T07:20:16.000Z</Time>
            <Position>
              <LatitudeDegrees>43.2999198697507381439208984375</LatitudeDegrees>
              <LongitudeDegrees>-2.08100083284080028533935546875</LongitudeDegrees>
            </Position>
            <AltitudeMeters>252.1999969482421875</AltitudeMeters>
            <DistanceMeters>NAN</DistanceMeters>
          </Trackpoint>
          <Trackpoint>
            <Time>2022-07-10T07:20:19.000Z</Time>
            <Position>
              <LatitudeDegrees>43.29988910816609859466552734375</LatitudeDegrees>
              <LongitudeDegrees>-2.08103234879672527313232421875</LongitudeDegrees>
            </Position>
            <AltitudeMeters>252.600006103515625</AltitudeMeters>
            <DistanceMeters>NAN</DistanceMeters>
          </Trackpoint>
          <Trackpoint>
            <Time>2022-07-10T07:20:20.000Z</Time>
            <Position>
              <LatitudeDegrees>43.29988122917711734771728515625</LatitudeDegrees>
              <LongitudeDegrees>-2.08104475401341915130615234375</LongitudeDegrees>
            </Position>
            <AltitudeMeters>252.600006103515625</AltitudeMeters>
            <DistanceMeters>NAN</DistanceMeters>
          </Trackpoint>
          <Trackpoint>
            <Time>2022-07-10T07:20:22.000Z</Time>
            <Position>
              <LatitudeDegrees>43.29987133853137493133544921875</LatitudeDegrees>
              <LongitudeDegrees>-2.08106084726750850677490234375</LongitudeDegrees>
            </Position>
            <AltitudeMeters>253</AltitudeMeters>
            <DistanceMeters>NAN</DistanceMeters>
          </Trackpoint>
          <Trackpoint>
            <Time>2022-07-10T07:20:23.000Z</Time>
            <Position>
              <LatitudeDegrees>43.29986681230366230010986328125</LatitudeDegrees>
              <LongitudeDegrees>-2.08106973208487033843994140625</LongitudeDegrees>
            </Position>
            <AltitudeMeters>253.1999969482421875</AltitudeMeters>
            <DistanceMeters>NAN</DistanceMeters>
          </Trackpoint>
          <Trackpoint>
            <Time>2022-07-10T07:20:24.000Z</Time>
            <Position>
              <LatitudeDegrees>43.29986245371401309967041015625</LatitudeDegrees>
              <LongitudeDegrees>-2.08107677288353443145751953125</LongitudeDegrees>
            </Position>
            <AltitudeMeters>253.399993896484375</AltitudeMeters>
            <DistanceMeters>NAN</DistanceMeters>
          </Trackpoint>
          <Trackpoint>
            <Time>2022-07-10T07:20:26.000Z</Time>
            <Position>
              <LatitudeDegrees>43.29985474236309528350830078125</LatitudeDegrees>
              <LongitudeDegrees>-2.08109051920473575592041015625</LongitudeDegrees>
            </Position>
            <AltitudeMeters>253.600006103515625</AltitudeMeters>
            <DistanceMeters>NAN</DistanceMeters>
          </Trackpoint>
          <Trackpoint>
            <Time>2022-07-10T07:20:27.000Z</Time>
            <Position>
              <LatitudeDegrees>43.29984853975474834442138671875</LatitudeDegrees>
              <LongitudeDegrees>-2.08109915256500244140625</LongitudeDegrees>
            </Position>
            <AltitudeMeters>253.8000030517578125</AltitudeMeters>
            <DistanceMeters>NAN</DistanceMeters>
          </Trackpoint>
          <Trackpoint>
            <Time>2022-07-10T07:20:31.000Z</Time>
            <Position>
              <LatitudeDegrees>43.29982976429164409637451171875</LatitudeDegrees>
              <LongitudeDegrees>-2.08114944398403167724609375</LongitudeDegrees>
            </Position>
            <AltitudeMeters>254</AltitudeMeters>
            <DistanceMeters>NAN</DistanceMeters>
          </Trackpoint>
          <Trackpoint>
            <Time>2022-07-10T07:20:35.000Z</Time>
            <Position>
              <LatitudeDegrees>43.299823813140392303466796875</LatitudeDegrees>
              <LongitudeDegrees>-2.081214152276515960693359375</LongitudeDegrees>
            </Position>
            <AltitudeMeters>254.600006103515625</AltitudeMeters>
            <DistanceMeters>NAN</DistanceMeters>
          </Trackpoint>
          <Trackpoint>
            <Time>2022-07-10T07:20:37.000Z</Time>
            <Position>
              <LatitudeDegrees>43.29980528913438320159912109375</LatitudeDegrees>
              <LongitudeDegrees>-2.08123527467250823974609375</LongitudeDegrees>
            </Position>
            <AltitudeMeters>254.8000030517578125</AltitudeMeters>
            <DistanceMeters>NAN</DistanceMeters>
          </Trackpoint>
          <Trackpoint>
            <Time>2022-07-10T07:20:44.000Z</Time>
            <Position>
              <LatitudeDegrees>43.2997249066829681396484375</LatitudeDegrees>
              <LongitudeDegrees>-2.08130274899303913116455078125</LongitudeDegrees>
            </Position>
            <AltitudeMeters>256</AltitudeMeters>
            <DistanceMeters>NAN</DistanceMeters>
          </Trackpoint>
          <Trackpoint>
            <Time>2022-07-10T07:20:45.000Z</Time>
            <Position>
              <LatitudeDegrees>43.299715518951416015625</LatitudeDegrees>
              <LongitudeDegrees>-2.0813132263720035552978515625</LongitudeDegrees>
            </Position>
            <AltitudeMeters>256.20001220703125</AltitudeMeters>
            <DistanceMeters>NAN</DistanceMeters>
          </Trackpoint>
          <Trackpoint>
            <Time>2022-07-10T07:20:53.000Z</Time>
            <Position>
              <LatitudeDegrees>43.29963748343288898468017578125</LatitudeDegrees>
              <LongitudeDegrees>-2.0814369432628154754638671875</LongitudeDegrees>
            </Position>
            <AltitudeMeters>256.79998779296875</AltitudeMeters>
            <DistanceMeters>NAN</DistanceMeters>
          </Trackpoint>
          <Trackpoint>
            <Time>2022-07-10T07:21:01.000Z</Time>
            <Position>
              <LatitudeDegrees>43.29953916370868682861328125</LatitudeDegrees>
              <LongitudeDegrees>-2.0815951935946941375732421875</LongitudeDegrees>
            </Position>
            <AltitudeMeters>257</AltitudeMeters>
            <DistanceMeters>NAN</DistanceMeters>
          </Trackpoint>
          <Trackpoint>
            <Time>2022-07-10T07:21:07.000Z</Time>
            <Position>
              <LatitudeDegrees>43.29946112819015979766845703125</LatitudeDegrees>
              <LongitudeDegrees>-2.0817174017429351806640625</LongitudeDegrees>
            </Position>
            <AltitudeMeters>256.399993896484375</AltitudeMeters>
            <DistanceMeters>NAN</DistanceMeters>
          </Trackpoint>
          <Trackpoint>
            <Time>2022-07-10T07:21:10.000Z</Time>
            <Position>
              <LatitudeDegrees>43.29943967051804065704345703125</LatitudeDegrees>
              <LongitudeDegrees>-2.08177800290286540985107421875</LongitudeDegrees>
            </Position>
            <AltitudeMeters>256</AltitudeMeters>
            <DistanceMeters>NAN</DistanceMeters>
          </Trackpoint>
          <Trackpoint>
            <Time>2022-07-10T07:21:11.000Z</Time>
            <Position>
              <LatitudeDegrees>43.29942625947296619415283203125</LatitudeDegrees>
              <LongitudeDegrees>-2.08179543726146221160888671875</LongitudeDegrees>
            </Position>
            <AltitudeMeters>256</AltitudeMeters>
            <DistanceMeters>NAN</DistanceMeters>
          </Trackpoint>
          <Trackpoint>
            <Time>2022-07-10T07:21:12.000Z</Time>
            <Position>
              <LatitudeDegrees>43.29941712319850921630859375</LatitudeDegrees>
              <LongitudeDegrees>-2.08181488327682018280029296875</LongitudeDegrees>
            </Position>
            <AltitudeMeters>256</AltitudeMeters>
            <DistanceMeters>NAN</DistanceMeters>
          </Trackpoint>
          <Trackpoint>
            <Time>2022-07-10T07:21:14.000Z</Time>
            <Position>
              <LatitudeDegrees>43.29940161667764186859130859375</LatitudeDegrees>
              <LongitudeDegrees>-2.0818583853542804718017578125</LongitudeDegrees>
            </Position>
            <AltitudeMeters>255.8000030517578125</AltitudeMeters>
            <DistanceMeters>NAN</DistanceMeters>
          </Trackpoint>
          <Trackpoint>
            <Time>2022-07-10T07:21:19.000Z</Time>
            <Position>
              <LatitudeDegrees>43.2993787340819835662841796875</LatitudeDegrees>
              <LongitudeDegrees>-2.0819351635873317718505859375</LongitudeDegrees>
            </Position>
            <AltitudeMeters>254.8000030517578125</AltitudeMeters>
            <DistanceMeters>NAN</DistanceMeters>
          </Trackpoint>
          <Trackpoint>
            <Time>2022-07-10T07:21:21.000Z</Time>
            <Position>
              <LatitudeDegrees>43.299352414906024932861328125</LatitudeDegrees>
              <LongitudeDegrees>-2.0819673500955104827880859375</LongitudeDegrees>
            </Position>
            <AltitudeMeters>254.8000030517578125</AltitudeMeters>
            <DistanceMeters>NAN</DistanceMeters>
          </Trackpoint>
          <Trackpoint>
            <Time>2022-07-10T07:21:25.000Z</Time>
            <Position>
              <LatitudeDegrees>43.2992503233253955841064453125</LatitudeDegrees>
              <LongitudeDegrees>-2.08205762319266796112060546875</LongitudeDegrees>
            </Position>
            <AltitudeMeters>254</AltitudeMeters>
            <DistanceMeters>NAN</DistanceMeters>
          </Trackpoint>
          <Trackpoint>
            <Time>2022-07-10T07:21:26.000Z</Time>
            <Position>
              <LatitudeDegrees>43.29922559671103954315185546875</LatitudeDegrees>
              <LongitudeDegrees>-2.08208444528281688690185546875</LongitudeDegrees>
            </Position>
            <AltitudeMeters>253.8000030517578125</AltitudeMeters>
            <DistanceMeters>NAN</DistanceMeters>
          </Trackpoint>
          <Trackpoint>
            <Time>2022-07-10T07:21:29.000Z</Time>
            <Position>
              <LatitudeDegrees>43.299170024693012237548828125</LatitudeDegrees>
              <LongitudeDegrees>-2.08216105587780475616455078125</LongitudeDegrees>
            </Position>
            <AltitudeMeters>253.399993896484375</AltitudeMeters>
            <DistanceMeters>NAN</DistanceMeters>
          </Trackpoint>
          <Trackpoint>
            <Time>2022-07-10T07:21:33.000Z</Time>
            <Position>
              <LatitudeDegrees>43.29912417568266391754150390625</LatitudeDegrees>
              <LongitudeDegrees>-2.08223934285342693328857421875</LongitudeDegrees>
            </Position>
            <AltitudeMeters>253.600006103515625</AltitudeMeters>
            <DistanceMeters>NAN</DistanceMeters>
          </Trackpoint>
          <Trackpoint>
            <Time>2022-07-10T07:21:34.000Z</Time>
            <Position>
              <LatitudeDegrees>43.2991158775985240936279296875</LatitudeDegrees>
              <LongitudeDegrees>-2.0822633989155292510986328125</LongitudeDegrees>
            </Position>
            <AltitudeMeters>253.600006103515625</AltitudeMeters>
            <DistanceMeters>NAN</DistanceMeters>
          </Trackpoint>
          <Trackpoint>
            <Time>2022-07-10T07:21:40.000Z</Time>
            <Position>
              <LatitudeDegrees>43.29905368387699127197265625</LatitudeDegrees>
              <LongitudeDegrees>-2.08239055238664150238037109375</LongitudeDegrees>
            </Position>
            <AltitudeMeters>254.1999969482421875</AltitudeMeters>
            <DistanceMeters>NAN</DistanceMeters>
          </Trackpoint>
          <Trackpoint>
            <Time>2022-07-10T07:21:47.000Z</Time>
            <Position>
              <LatitudeDegrees>43.2989864610135555267333984375</LatitudeDegrees>
              <LongitudeDegrees>-2.082513011991977691650390625</LongitudeDegrees>
            </Position>
            <AltitudeMeters>254.8000030517578125</AltitudeMeters>
            <DistanceMeters>NAN</DistanceMeters>
          </Trackpoint>
          <Trackpoint>
            <Time>2022-07-10T07:21:48.000Z</Time>
            <Position>
              <LatitudeDegrees>43.2989800907671451568603515625</LatitudeDegrees>
              <LongitudeDegrees>-2.08252818323671817779541015625</LongitudeDegrees>
            </Position>
            <AltitudeMeters>254.8000030517578125</AltitudeMeters>
            <DistanceMeters>NAN</DistanceMeters>
          </Trackpoint>
          <Trackpoint>
            <Time>2022-07-10T07:21:50.000Z</Time>
            <Position>
              <LatitudeDegrees>43.298954777419567108154296875</LatitudeDegrees>
              <LongitudeDegrees>-2.08255265839397907257080078125</LongitudeDegrees>
            </Position>
            <AltitudeMeters>255</AltitudeMeters>
            <DistanceMeters>NAN</DistanceMeters>
          </Trackpoint>
          <Trackpoint>
            <Time>2022-07-10T07:21:54.000Z</Time>
            <Position>
              <LatitudeDegrees>43.29891622066497802734375</LatitudeDegrees>
              <LongitudeDegrees>-2.08260060288012027740478515625</LongitudeDegrees>
            </Position>
            <AltitudeMeters>255</AltitudeMeters>
            <DistanceMeters>NAN</DistanceMeters>
          </Trackpoint>
          <Trackpoint>
            <Time>2022-07-10T07:21:59.000Z</Time>
            <Position>
              <LatitudeDegrees>43.2988719642162322998046875</LatitudeDegrees>
              <LongitudeDegrees>-2.082734294235706329345703125</LongitudeDegrees>
            </Position>
            <AltitudeMeters>254.600006103515625</AltitudeMeters>
            <DistanceMeters>NAN</DistanceMeters>
          </Trackpoint>
          <Trackpoint>
            <Time>2022-07-10T07:22:04.000Z</Time>
            <Position>
              <LatitudeDegrees>43.298881687223911285400390625</LatitudeDegrees>
              <LongitudeDegrees>-2.0828487910330295562744140625</LongitudeDegrees>
            </Position>
            <AltitudeMeters>254.399993896484375</AltitudeMeters>
            <DistanceMeters>NAN</DistanceMeters>
          </Trackpoint>
          <Trackpoint>
            <Time>2022-07-10T07:22:09.000Z</Time>
            <Position>
              <LatitudeDegrees>43.298872299492359161376953125</LatitudeDegrees>
              <LongitudeDegrees>-2.08296932280063629150390625</LongitudeDegrees>
            </Position>
            <AltitudeMeters>255.1999969482421875</AltitudeMeters>
            <DistanceMeters>NAN</DistanceMeters>
          </Trackpoint>
          <Trackpoint>
            <Time>2022-07-10T07:22:10.000Z</Time>
            <Position>
              <LatitudeDegrees>43.2988694496452808380126953125</LatitudeDegrees>
              <LongitudeDegrees>-2.08299237303435802459716796875</LongitudeDegrees>
            </Position>
            <AltitudeMeters>255.399993896484375</AltitudeMeters>
            <DistanceMeters>NAN</DistanceMeters>
          </Trackpoint>
          <Trackpoint>
            <Time>2022-07-10T07:22:15.000Z</Time>
            <Position>
              <LatitudeDegrees>43.29886534251272678375244140625</LatitudeDegrees>
              <LongitudeDegrees>-2.08311273716390132904052734375</LongitudeDegrees>
            </Position>
            <AltitudeMeters>255.600006103515625</AltitudeMeters>
            <DistanceMeters>NAN</DistanceMeters>
          </Trackpoint>
          <Trackpoint>
            <Time>2022-07-10T07:22:18.000Z</Time>
            <Position>
              <LatitudeDegrees>43.29886584542691707611083984375</LatitudeDegrees>
              <LongitudeDegrees>-2.08317141048610210418701171875</LongitudeDegrees>
            </Position>
            <AltitudeMeters>256</AltitudeMeters>
            <DistanceMeters>NAN</DistanceMeters>
          </Trackpoint>
          <Trackpoint>
            <Time>2022-07-10T07:22:22.000Z</Time>
            <Position>
              <LatitudeDegrees>43.29885059036314487457275390625</LatitudeDegrees>
              <LongitudeDegrees>-2.08324450068175792694091796875</LongitudeDegrees>
            </Position>
            <AltitudeMeters>256.79998779296875</AltitudeMeters>
            <DistanceMeters>NAN</DistanceMeters>
          </Trackpoint>
          <Trackpoint>
            <Time>2022-07-10T07:22:23.000Z</Time>
            <Position>
              <LatitudeDegrees>43.2988453097641468048095703125</LatitudeDegrees>
              <LongitudeDegrees>-2.083255983889102935791015625</LongitudeDegrees>
            </Position>
            <AltitudeMeters>257</AltitudeMeters>
            <DistanceMeters>NAN</DistanceMeters>
          </Trackpoint>
          <Trackpoint>
            <Time>2022-07-10T07:22:26.000Z</Time>
            <Position>
              <LatitudeDegrees>43.29881404526531696319580078125</LatitudeDegrees>
              <LongitudeDegrees>-2.08329898305237293243408203125</LongitudeDegrees>
            </Position>
            <AltitudeMeters>257.399993896484375</AltitudeMeters>
            <DistanceMeters>NAN</DistanceMeters>
          </Trackpoint>
          <Trackpoint>
            <Time>2022-07-10T07:22:30.000Z</Time>
            <Position>
              <LatitudeDegrees>43.2987819425761699676513671875</LatitudeDegrees>
              <LongitudeDegrees>-2.08335019648075103759765625</LongitudeDegrees>
            </Position>
            <AltitudeMeters>258.20001220703125</AltitudeMeters>
            <DistanceMeters>NAN</DistanceMeters>
          </Trackpoint>
          <Trackpoint>
            <Time>2022-07-10T07:22:35.000Z</Time>
            <Position>
              <LatitudeDegrees>43.29873760230839252471923828125</LatitudeDegrees>
              <LongitudeDegrees>-2.08341700024902820587158203125</LongitudeDegrees>
            </Position>
            <AltitudeMeters>259</AltitudeMeters>
            <DistanceMeters>NAN</DistanceMeters>
          </Trackpoint>
          <Trackpoint>
            <Time>2022-07-10T07:22:36.000Z</Time>
            <Position>
              <LatitudeDegrees>43.29872913658618927001953125</LatitudeDegrees>
              <LongitudeDegrees>-2.083427645266056060791015625</LongitudeDegrees>
            </Position>
            <AltitudeMeters>259.20001220703125</AltitudeMeters>
            <DistanceMeters>NAN</DistanceMeters>
          </Trackpoint>
          <Trackpoint>
            <Time>2022-07-10T07:22:42.000Z</Time>
            <Position>
              <LatitudeDegrees>43.29865160398185253143310546875</LatitudeDegrees>
              <LongitudeDegrees>-2.08352319896221160888671875</LongitudeDegrees>
            </Position>
            <AltitudeMeters>260.20001220703125</AltitudeMeters>
            <DistanceMeters>NAN</DistanceMeters>
          </Trackpoint>
          <Trackpoint>
            <Time>2022-07-10T07:22:43.000Z</Time>
            <Position>
              <LatitudeDegrees>43.298644982278347015380859375</LatitudeDegrees>
              <LongitudeDegrees>-2.08353459835052490234375</LongitudeDegrees>
            </Position>
            <AltitudeMeters>260.399993896484375</AltitudeMeters>
            <DistanceMeters>NAN</DistanceMeters>
          </Trackpoint>
          <Trackpoint>
            <Time>2022-07-10T07:22:50.000Z</Time>
            <Position>
              <LatitudeDegrees>43.29857247881591320037841796875</LatitudeDegrees>
              <LongitudeDegrees>-2.08366879262030124664306640625</LongitudeDegrees>
            </Position>
            <AltitudeMeters>260.79998779296875</AltitudeMeters>
            <DistanceMeters>NAN</DistanceMeters>
          </Trackpoint>
          <Trackpoint>
            <Time>2022-07-10T07:22:57.000Z</Time>
            <Position>
              <LatitudeDegrees>43.2985016517341136932373046875</LatitudeDegrees>
              <LongitudeDegrees>-2.08385235629975795745849609375</LongitudeDegrees>
            </Position>
            <AltitudeMeters>260.79998779296875</AltitudeMeters>
            <DistanceMeters>NAN</DistanceMeters>
          </Trackpoint>
          <Trackpoint>
            <Time>2022-07-10T07:22:59.000Z</Time>
            <Position>
              <LatitudeDegrees>43.298480026423931121826171875</LatitudeDegrees>
              <LongitudeDegrees>-2.08389845676720142364501953125</LongitudeDegrees>
            </Position>
            <AltitudeMeters>260.79998779296875</AltitudeMeters>
            <DistanceMeters>NAN</DistanceMeters>
          </Trackpoint>
          <Trackpoint>
            <Time>2022-07-10T07:23:01.000Z</Time>
            <Position>
              <LatitudeDegrees>43.29845580272376537322998046875</LatitudeDegrees>
              <LongitudeDegrees>-2.08393567241728305816650390625</LongitudeDegrees>
            </Position>
            <AltitudeMeters>260.79998779296875</AltitudeMeters>
            <DistanceMeters>NAN</DistanceMeters>
          </Trackpoint>
          <Trackpoint>
            <Time>2022-07-10T07:23:02.000Z</Time>
            <Position>
              <LatitudeDegrees>43.29844792373478412628173828125</LatitudeDegrees>
              <LongitudeDegrees>-2.083958052098751068115234375</LongitudeDegrees>
            </Position>
            <AltitudeMeters>260.79998779296875</AltitudeMeters>
            <DistanceMeters>NAN</DistanceMeters>
          </Trackpoint>
          <Trackpoint>
            <Time>2022-07-10T07:23:05.000Z</Time>
            <Position>
              <LatitudeDegrees>43.298396877944469451904296875</LatitudeDegrees>
              <LongitudeDegrees>-2.08401798270642757415771484375</LongitudeDegrees>
            </Position>
            <AltitudeMeters>260.79998779296875</AltitudeMeters>
            <DistanceMeters>NAN</DistanceMeters>
          </Trackpoint>
          <Trackpoint>
            <Time>2022-07-10T07:23:08.000Z</Time>
            <Position>
              <LatitudeDegrees>43.29837081022560596466064453125</LatitudeDegrees>
              <LongitudeDegrees>-2.08408218808472156524658203125</LongitudeDegrees>
            </Position>
            <AltitudeMeters>260.79998779296875</AltitudeMeters>
            <DistanceMeters>NAN</DistanceMeters>
          </Trackpoint>
          <Trackpoint>
            <Time>2022-07-10T07:23:13.000Z</Time>
            <Position>
              <LatitudeDegrees>43.29829956404864788055419921875</LatitudeDegrees>
              <LongitudeDegrees>-2.084171287715435028076171875</LongitudeDegrees>
            </Position>
            <AltitudeMeters>261.600006103515625</AltitudeMeters>
            <DistanceMeters>NAN</DistanceMeters>
          </Trackpoint>
          <Trackpoint>
            <Time>2022-07-10T07:23:15.000Z</Time>
            <Position>
              <LatitudeDegrees>43.298268131911754608154296875</LatitudeDegrees>
              <LongitudeDegrees>-2.08420238457620143890380859375</LongitudeDegrees>
            </Position>
            <AltitudeMeters>261.79998779296875</AltitudeMeters>
            <DistanceMeters>NAN</DistanceMeters>
          </Trackpoint>
          <Trackpoint>
            <Time>2022-07-10T07:23:22.000Z</Time>
            <Position>
              <LatitudeDegrees>43.298178948462009429931640625</LatitudeDegrees>
              <LongitudeDegrees>-2.0843298733234405517578125</LongitudeDegrees>
            </Position>
            <AltitudeMeters>262.20001220703125</AltitudeMeters>
            <DistanceMeters>NAN</DistanceMeters>
          </Trackpoint>
          <Trackpoint>
            <Time>2022-07-10T07:23:23.000Z</Time>
            <Position>
              <LatitudeDegrees>43.29815941862761974334716796875</LatitudeDegrees>
              <LongitudeDegrees>-2.08435929380357265472412109375</LongitudeDegrees>
            </Position>
            <AltitudeMeters>262.20001220703125</AltitudeMeters>
            <DistanceMeters>NAN</DistanceMeters>
          </Trackpoint>
          <Trackpoint>
            <Time>2022-07-10T07:23:27.000Z</Time>
            <Position>
              <LatitudeDegrees>43.29808264039456844329833984375</LatitudeDegrees>
              <LongitudeDegrees>-2.08447781391441822052001953125</LongitudeDegrees>
            </Position>
            <AltitudeMeters>261.600006103515625</AltitudeMeters>
            <DistanceMeters>NAN</DistanceMeters>
          </Trackpoint>
          <Trackpoint>
            <Time>2022-07-10T07:23:33.000Z</Time>
            <Position>
              <LatitudeDegrees>43.2979400642216205596923828125</LatitudeDegrees>
              <LongitudeDegrees>-2.08463338203728199005126953125</LongitudeDegrees>
            </Position>
            <AltitudeMeters>260.399993896484375</AltitudeMeters>
            <DistanceMeters>NAN</DistanceMeters>
          </Trackpoint>
          <Trackpoint>
            <Time>2022-07-10T07:23:37.000Z</Time>
            <Position>
              <LatitudeDegrees>43.297875858843326568603515625</LatitudeDegrees>
              <LongitudeDegrees>-2.08467788994312286376953125</LongitudeDegrees>
            </Position>
            <AltitudeMeters>259.600006103515625</AltitudeMeters>
            <DistanceMeters>NAN</DistanceMeters>
          </Trackpoint>
          <Trackpoint>
            <Time>2022-07-10T07:23:39.000Z</Time>
            <Position>
              <LatitudeDegrees>43.29785381443798542022705078125</LatitudeDegrees>
              <LongitudeDegrees>-2.08468803204596042633056640625</LongitudeDegrees>
            </Position>
            <AltitudeMeters>259.399993896484375</AltitudeMeters>
            <DistanceMeters>NAN</DistanceMeters>
          </Trackpoint>
          <Trackpoint>
            <Time>2022-07-10T07:23:42.000Z</Time>
            <Position>
              <LatitudeDegrees>43.29784333705902099609375</LatitudeDegrees>
              <LongitudeDegrees>-2.08471477031707763671875</LongitudeDegrees>
            </Position>
            <AltitudeMeters>259.20001220703125</AltitudeMeters>
            <DistanceMeters>NAN</DistanceMeters>
          </Trackpoint>
          <Trackpoint>
            <Time>2022-07-10T07:23:45.000Z</Time>
            <Position>
              <LatitudeDegrees>43.29783738590776920318603515625</LatitudeDegrees>
              <LongitudeDegrees>-2.08477444946765899658203125</LongitudeDegrees>
            </Position>
            <AltitudeMeters>259</AltitudeMeters>
            <DistanceMeters>NAN</DistanceMeters>
          </Trackpoint>
          <Trackpoint>
            <Time>2022-07-10T07:23:47.000Z</Time>
            <Position>
              <LatitudeDegrees>43.29783872701227664947509765625</LatitudeDegrees>
              <LongitudeDegrees>-2.084792889654636383056640625</LongitudeDegrees>
            </Position>
            <AltitudeMeters>259</AltitudeMeters>
            <DistanceMeters>NAN</DistanceMeters>
          </Trackpoint>
          <Trackpoint>
            <Time>2022-07-10T07:23:50.000Z</Time>
            <Position>
              <LatitudeDegrees>43.29783470369875431060791015625</LatitudeDegrees>
              <LongitudeDegrees>-2.0848047919571399688720703125</LongitudeDegrees>
            </Position>
            <AltitudeMeters>259</AltitudeMeters>
            <DistanceMeters>NAN</DistanceMeters>
          </Trackpoint>
          <Trackpoint>
            <Time>2022-07-10T07:23:52.000Z</Time>
            <Position>
              <LatitudeDegrees>43.297855071723461151123046875</LatitudeDegrees>
              <LongitudeDegrees>-2.08482465706765651702880859375</LongitudeDegrees>
            </Position>
            <AltitudeMeters>259</AltitudeMeters>
            <DistanceMeters>NAN</DistanceMeters>
          </Trackpoint>
          <Trackpoint>
            <Time>2022-07-10T07:23:59.000Z</Time>
            <Position>
              <LatitudeDegrees>43.29789354465901851654052734375</LatitudeDegrees>
              <LongitudeDegrees>-2.08486757241189479827880859375</LongitudeDegrees>
            </Position>
            <AltitudeMeters>260</AltitudeMeters>
            <DistanceMeters>NAN</DistanceMeters>
          </Trackpoint>
          <Trackpoint>
            <Time>2022-07-10T07:24:00.000Z</Time>
            <Position>
              <LatitudeDegrees>43.2978958077728748321533203125</LatitudeDegrees>
              <LongitudeDegrees>-2.08487394265830516815185546875</LongitudeDegrees>
            </Position>
            <AltitudeMeters>260.399993896484375</AltitudeMeters>
            <DistanceMeters>NAN</DistanceMeters>
          </Trackpoint>
          <Trackpoint>
            <Time>2022-07-10T07:24:03.000Z</Time>
            <Position>
              <LatitudeDegrees>43.29789857380092144012451171875</LatitudeDegrees>
              <LongitudeDegrees>-2.0848770439624786376953125</LongitudeDegrees>
            </Position>
            <AltitudeMeters>260.79998779296875</AltitudeMeters>
            <DistanceMeters>NAN</DistanceMeters>
          </Trackpoint>
          <Trackpoint>
            <Time>2022-07-10T07:25:00.000Z</Time>
            <Position>
              <LatitudeDegrees>43.29800887964665889739990234375</LatitudeDegrees>
              <LongitudeDegrees>-2.0851293392479419708251953125</LongitudeDegrees>
            </Position>
            <AltitudeMeters>264.79998779296875</AltitudeMeters>
            <DistanceMeters>NAN</DistanceMeters>
          </Trackpoint>
          <Trackpoint>
            <Time>2022-07-10T07:25:01.000Z</Time>
            <Position>
              <LatitudeDegrees>43.29801172949373722076416015625</LatitudeDegrees>
              <LongitudeDegrees>-2.08515641279518604278564453125</LongitudeDegrees>
            </Position>
            <AltitudeMeters>264.79998779296875</AltitudeMeters>
            <DistanceMeters>NAN</DistanceMeters>
          </Trackpoint>
          <Trackpoint>
            <Time>2022-07-10T07:25:04.000Z</Time>
            <Position>
              <LatitudeDegrees>43.29802094958722591400146484375</LatitudeDegrees>
              <LongitudeDegrees>-2.08522078581154346466064453125</LongitudeDegrees>
            </Position>
            <AltitudeMeters>265</AltitudeMeters>
            <DistanceMeters>NAN</DistanceMeters>
          </Trackpoint>
          <Trackpoint>
            <Time>2022-07-10T07:25:08.000Z</Time>
            <Position>
              <LatitudeDegrees>43.298026062548160552978515625</LatitudeDegrees>
              <LongitudeDegrees>-2.08530477248132228851318359375</LongitudeDegrees>
            </Position>
            <AltitudeMeters>265.399993896484375</AltitudeMeters>
            <DistanceMeters>NAN</DistanceMeters>
          </Trackpoint>
          <Trackpoint>
            <Time>2022-07-10T07:25:13.000Z</Time>
            <Position>
              <LatitudeDegrees>43.2980238832533359527587890625</LatitudeDegrees>
              <LongitudeDegrees>-2.08538926206529140472412109375</LongitudeDegrees>
            </Position>
            <AltitudeMeters>265.79998779296875</AltitudeMeters>
            <DistanceMeters>NAN</DistanceMeters>
          </Trackpoint>
          <Trackpoint>
            <Time>2022-07-10T07:25:14.000Z</Time>
            <Position>
              <LatitudeDegrees>43.29802237451076507568359375</LatitudeDegrees>
              <LongitudeDegrees>-2.08540610969066619873046875</LongitudeDegrees>
            </Position>
            <AltitudeMeters>265.79998779296875</AltitudeMeters>
            <DistanceMeters>NAN</DistanceMeters>
          </Trackpoint>
          <Trackpoint>
            <Time>2022-07-10T07:25:17.000Z</Time>
            <Position>
              <LatitudeDegrees>43.29801407642662525177001953125</LatitudeDegrees>
              <LongitudeDegrees>-2.08545304834842681884765625</LongitudeDegrees>
            </Position>
            <AltitudeMeters>266</AltitudeMeters>
            <DistanceMeters>NAN</DistanceMeters>
          </Trackpoint>
          <Trackpoint>
            <Time>2022-07-10T07:25:24.000Z</Time>
            <Position>
              <LatitudeDegrees>43.29803603701293468475341796875</LatitudeDegrees>
              <LongitudeDegrees>-2.0856037549674510955810546875</LongitudeDegrees>
            </Position>
            <AltitudeMeters>266.79998779296875</AltitudeMeters>
            <DistanceMeters>NAN</DistanceMeters>
          </Trackpoint>
          <Trackpoint>
            <Time>2022-07-10T07:25:30.000Z</Time>
            <Position>
              <LatitudeDegrees>43.2980698160827159881591796875</LatitudeDegrees>
              <LongitudeDegrees>-2.0856892503798007965087890625</LongitudeDegrees>
            </Position>
            <AltitudeMeters>266.79998779296875</AltitudeMeters>
            <DistanceMeters>NAN</DistanceMeters>
          </Trackpoint>
          <Trackpoint>
            <Time>2022-07-10T07:25:33.000Z</Time>
            <Position>
              <LatitudeDegrees>43.2980758510529994964599609375</LatitudeDegrees>
              <LongitudeDegrees>-2.0856788568198680877685546875</LongitudeDegrees>
            </Position>
            <AltitudeMeters>266.600006103515625</AltitudeMeters>
            <DistanceMeters>NAN</DistanceMeters>
          </Trackpoint>
          <Trackpoint>
            <Time>2022-07-10T07:25:35.000Z</Time>
            <Position>
              <LatitudeDegrees>43.29807425849139690399169921875</LatitudeDegrees>
              <LongitudeDegrees>-2.0856922678649425506591796875</LongitudeDegrees>
            </Position>
            <AltitudeMeters>266.79998779296875</AltitudeMeters>
            <DistanceMeters>NAN</DistanceMeters>
          </Trackpoint>
          <Trackpoint>
            <Time>2022-07-10T07:25:36.000Z</Time>
            <Position>
              <LatitudeDegrees>43.2980753481388092041015625</LatitudeDegrees>
              <LongitudeDegrees>-2.0856922678649425506591796875</LongitudeDegrees>
            </Position>
            <AltitudeMeters>266.79998779296875</AltitudeMeters>
            <DistanceMeters>NAN</DistanceMeters>
          </Trackpoint>
          <Trackpoint>
            <Time>2022-07-10T07:25:44.000Z</Time>
            <Position>
              <LatitudeDegrees>43.29805816523730754852294921875</LatitudeDegrees>
              <LongitudeDegrees>-2.08575571887195110321044921875</LongitudeDegrees>
            </Position>
            <AltitudeMeters>267.399993896484375</AltitudeMeters>
            <DistanceMeters>NAN</DistanceMeters>
          </Trackpoint>
          <Trackpoint>
            <Time>2022-07-10T07:25:46.000Z</Time>
            <Position>
              <LatitudeDegrees>43.2980624400079250335693359375</LatitudeDegrees>
              <LongitudeDegrees>-2.08579368889331817626953125</LongitudeDegrees>
            </Position>
            <AltitudeMeters>267.79998779296875</AltitudeMeters>
            <DistanceMeters>NAN</DistanceMeters>
          </Trackpoint>
          <Trackpoint>
            <Time>2022-07-10T07:25:48.000Z</Time>
            <Position>
              <LatitudeDegrees>43.298049867153167724609375</LatitudeDegrees>
              <LongitudeDegrees>-2.0858082734048366546630859375</LongitudeDegrees>
            </Position>
            <AltitudeMeters>267.79998779296875</AltitudeMeters>
            <DistanceMeters>NAN</DistanceMeters>
          </Trackpoint>
          <Trackpoint>
            <Time>2022-07-10T07:25:49.000Z</Time>
            <Position>
              <LatitudeDegrees>43.29804106615483760833740234375</LatitudeDegrees>
              <LongitudeDegrees>-2.08581288345158100128173828125</LongitudeDegrees>
            </Position>
            <AltitudeMeters>268</AltitudeMeters>
            <DistanceMeters>NAN</DistanceMeters>
          </Trackpoint>
          <Trackpoint>
            <Time>2022-07-10T07:25:51.000Z</Time>
            <Position>
              <LatitudeDegrees>43.29803000204265117645263671875</LatitudeDegrees>
              <LongitudeDegrees>-2.085835933685302734375</LongitudeDegrees>
            </Position>
            <AltitudeMeters>268.399993896484375</AltitudeMeters>
            <DistanceMeters>NAN</DistanceMeters>
          </Trackpoint>
          <Trackpoint>
            <Time>2022-07-10T07:25:52.000Z</Time>
            <Position>
              <LatitudeDegrees>43.2980279065668582916259765625</LatitudeDegrees>
              <LongitudeDegrees>-2.08584909327328205108642578125</LongitudeDegrees>
            </Position>
            <AltitudeMeters>268.600006103515625</AltitudeMeters>
            <DistanceMeters>NAN</DistanceMeters>
          </Trackpoint>
          <Trackpoint>
            <Time>2022-07-10T07:25:55.000Z</Time>
            <Position>
              <LatitudeDegrees>43.2980198599398136138916015625</LatitudeDegrees>
              <LongitudeDegrees>-2.08589485846459865570068359375</LongitudeDegrees>
            </Position>
            <AltitudeMeters>269</AltitudeMeters>
            <DistanceMeters>NAN</DistanceMeters>
          </Trackpoint>
          <Trackpoint>
            <Time>2022-07-10T07:25:56.000Z</Time>
            <Position>
              <LatitudeDegrees>43.29801793210208415985107421875</LatitudeDegrees>
              <LongitudeDegrees>-2.0859051682054996490478515625</LongitudeDegrees>
            </Position>
            <AltitudeMeters>269.20001220703125</AltitudeMeters>
            <DistanceMeters>NAN</DistanceMeters>
          </Trackpoint>
          <Trackpoint>
            <Time>2022-07-10T07:25:58.000Z</Time>
            <Position>
              <LatitudeDegrees>43.29800686798989772796630859375</LatitudeDegrees>
              <LongitudeDegrees>-2.0859333314001560211181640625</LongitudeDegrees>
            </Position>
            <AltitudeMeters>269.399993896484375</AltitudeMeters>
            <DistanceMeters>NAN</DistanceMeters>
          </Trackpoint>
          <Trackpoint>
            <Time>2022-07-10T07:26:01.000Z</Time>
            <Position>
              <LatitudeDegrees>43.29800183884799480438232421875</LatitudeDegrees>
              <LongitudeDegrees>-2.08597750402987003326416015625</LongitudeDegrees>
            </Position>
            <AltitudeMeters>270.20001220703125</AltitudeMeters>
            <DistanceMeters>NAN</DistanceMeters>
          </Trackpoint>
          <Trackpoint>
            <Time>2022-07-10T07:26:03.000Z</Time>
            <Position>
              <LatitudeDegrees>43.29799178056418895721435546875</LatitudeDegrees>
              <LongitudeDegrees>-2.0859920047223567962646484375</LongitudeDegrees>
            </Position>
            <AltitudeMeters>270.79998779296875</AltitudeMeters>
            <DistanceMeters>NAN</DistanceMeters>
          </Trackpoint>
          <Trackpoint>
            <Time>2022-07-10T07:26:05.000Z</Time>
            <Position>
              <LatitudeDegrees>43.2979725860059261322021484375</LatitudeDegrees>
              <LongitudeDegrees>-2.0860027335584163665771484375</LongitudeDegrees>
            </Position>
            <AltitudeMeters>271.399993896484375</AltitudeMeters>
            <DistanceMeters>NAN</DistanceMeters>
          </Trackpoint>
          <Trackpoint>
            <Time>2022-07-10T07:26:06.000Z</Time>
            <Position>
              <LatitudeDegrees>43.29795925877988338470458984375</LatitudeDegrees>
              <LongitudeDegrees>-2.08601119928061962127685546875</LongitudeDegrees>
            </Position>
            <AltitudeMeters>271.79998779296875</AltitudeMeters>
            <DistanceMeters>NAN</DistanceMeters>
          </Trackpoint>
          <Trackpoint>
            <Time>2022-07-10T07:26:08.000Z</Time>
            <Position>
              <LatitudeDegrees>43.29794350080192089080810546875</LatitudeDegrees>
              <LongitudeDegrees>-2.0860231854021549224853515625</LongitudeDegrees>
            </Position>
            <AltitudeMeters>272.20001220703125</AltitudeMeters>
            <DistanceMeters>NAN</DistanceMeters>
          </Trackpoint>
          <Trackpoint>
            <Time>2022-07-10T07:26:10.000Z</Time>
            <Position>
              <LatitudeDegrees>43.2979283295571804046630859375</LatitudeDegrees>
              <LongitudeDegrees>-2.08603885956108570098876953125</LongitudeDegrees>
            </Position>
            <AltitudeMeters>272.600006103515625</AltitudeMeters>
            <DistanceMeters>NAN</DistanceMeters>
          </Trackpoint>
          <Trackpoint>
            <Time>2022-07-10T07:26:13.000Z</Time>
            <Position>
              <LatitudeDegrees>43.2978948019444942474365234375</LatitudeDegrees>
              <LongitudeDegrees>-2.08605059422552585601806640625</LongitudeDegrees>
            </Position>
            <AltitudeMeters>273.20001220703125</AltitudeMeters>
            <DistanceMeters>NAN</DistanceMeters>
          </Trackpoint>
          <Trackpoint>
            <Time>2022-07-10T07:26:14.000Z</Time>
            <Position>
              <LatitudeDegrees>43.29787594266235828399658203125</LatitudeDegrees>
              <LongitudeDegrees>-2.0860573835670948028564453125</LongitudeDegrees>
            </Position>
            <AltitudeMeters>273.600006103515625</AltitudeMeters>
            <DistanceMeters>NAN</DistanceMeters>
          </Trackpoint>
          <Trackpoint>
            <Time>2022-07-10T07:26:15.000Z</Time>
            <Position>
              <LatitudeDegrees>43.2978703267872333526611328125</LatitudeDegrees>
              <LongitudeDegrees>-2.0860728062689304351806640625</LongitudeDegrees>
            </Position>
            <AltitudeMeters>273.79998779296875</AltitudeMeters>
            <DistanceMeters>NAN</DistanceMeters>
          </Trackpoint>
          <Trackpoint>
            <Time>2022-07-10T07:26:18.000Z</Time>
            <Position>
              <LatitudeDegrees>43.29785331152379512786865234375</LatitudeDegrees>
              <LongitudeDegrees>-2.08610692061483860015869140625</LongitudeDegrees>
            </Position>
            <AltitudeMeters>274.600006103515625</AltitudeMeters>
            <DistanceMeters>NAN</DistanceMeters>
          </Trackpoint>
          <Trackpoint>
            <Time>2022-07-10T07:26:19.000Z</Time>
            <Position>
              <LatitudeDegrees>43.29784945584833621978759765625</LatitudeDegrees>
              <LongitudeDegrees>-2.0861135423183441162109375</LongitudeDegrees>
            </Position>
            <AltitudeMeters>274.79998779296875</AltitudeMeters>
            <DistanceMeters>NAN</DistanceMeters>
          </Trackpoint>
          <Trackpoint>
            <Time>2022-07-10T07:26:20.000Z</Time>
            <Position>
              <LatitudeDegrees>43.29784308560192584991455078125</LatitudeDegrees>
              <LongitudeDegrees>-2.0861173979938030242919921875</LongitudeDegrees>
            </Position>
            <AltitudeMeters>275</AltitudeMeters>
            <DistanceMeters>NAN</DistanceMeters>
          </Trackpoint>
          <Trackpoint>
            <Time>2022-07-10T07:26:25.000Z</Time>
            <Position>
              <LatitudeDegrees>43.29781760461628437042236328125</LatitudeDegrees>
              <LongitudeDegrees>-2.08617313764989376068115234375</LongitudeDegrees>
            </Position>
            <AltitudeMeters>275.79998779296875</AltitudeMeters>
            <DistanceMeters>NAN</DistanceMeters>
          </Trackpoint>
          <Trackpoint>
            <Time>2022-07-10T07:26:26.000Z</Time>
            <Position>
              <LatitudeDegrees>43.29779866151511669158935546875</LatitudeDegrees>
              <LongitudeDegrees>-2.0861884765326976776123046875</LongitudeDegrees>
            </Position>
            <AltitudeMeters>276</AltitudeMeters>
            <DistanceMeters>NAN</DistanceMeters>
          </Trackpoint>
          <Trackpoint>
            <Time>2022-07-10T07:26:30.000Z</Time>
            <Position>
              <LatitudeDegrees>43.29774820245802402496337890625</LatitudeDegrees>
              <LongitudeDegrees>-2.08628545515239238739013671875</LongitudeDegrees>
            </Position>
            <AltitudeMeters>276.79998779296875</AltitudeMeters>
            <DistanceMeters>NAN</DistanceMeters>
          </Trackpoint>
          <Trackpoint>
            <Time>2022-07-10T07:26:33.000Z</Time>
            <Position>
              <LatitudeDegrees>43.29771920107305049896240234375</LatitudeDegrees>
              <LongitudeDegrees>-2.08633323200047016143798828125</LongitudeDegrees>
            </Position>
            <AltitudeMeters>277</AltitudeMeters>
            <DistanceMeters>NAN</DistanceMeters>
          </Trackpoint>
          <Trackpoint>
            <Time>2022-07-10T07:26:37.000Z</Time>
            <Position>
              <LatitudeDegrees>43.29767905175685882568359375</LatitudeDegrees>
              <LongitudeDegrees>-2.08636709488928318023681640625</LongitudeDegrees>
            </Position>
            <AltitudeMeters>277.79998779296875</AltitudeMeters>
            <DistanceMeters>NAN</DistanceMeters>
          </Trackpoint>
          <Trackpoint>
            <Time>2022-07-10T07:26:38.000Z</Time>
            <Position>
              <LatitudeDegrees>43.29767167568206787109375</LatitudeDegrees>
              <LongitudeDegrees>-2.08637061528861522674560546875</LongitudeDegrees>
            </Position>
            <AltitudeMeters>277.79998779296875</AltitudeMeters>
            <DistanceMeters>NAN</DistanceMeters>
          </Trackpoint>
          <Trackpoint>
            <Time>2022-07-10T07:26:39.000Z</Time>
            <Position>
              <LatitudeDegrees>43.29766136594116687774658203125</LatitudeDegrees>
              <LongitudeDegrees>-2.0863705314695835113525390625</LongitudeDegrees>
            </Position>
            <AltitudeMeters>278</AltitudeMeters>
            <DistanceMeters>NAN</DistanceMeters>
          </Trackpoint>
          <Trackpoint>
            <Time>2022-07-10T07:26:41.000Z</Time>
            <Position>
              <LatitudeDegrees>43.297643847763538360595703125</LatitudeDegrees>
              <LongitudeDegrees>-2.0863705314695835113525390625</LongitudeDegrees>
            </Position>
            <AltitudeMeters>278.399993896484375</AltitudeMeters>
            <DistanceMeters>NAN</DistanceMeters>
          </Trackpoint>
          <Trackpoint>
            <Time>2022-07-10T07:26:43.000Z</Time>
            <Position>
              <LatitudeDegrees>43.29761610366404056549072265625</LatitudeDegrees>
              <LongitudeDegrees>-2.08638385869562625885009765625</LongitudeDegrees>
            </Position>
            <AltitudeMeters>278.79998779296875</AltitudeMeters>
            <DistanceMeters>NAN</DistanceMeters>
          </Trackpoint>
          <Trackpoint>
            <Time>2022-07-10T07:26:44.000Z</Time>
            <Position>
              <LatitudeDegrees>43.29760705120861530303955078125</LatitudeDegrees>
              <LongitudeDegrees>-2.0863859541714191436767578125</LongitudeDegrees>
            </Position>
            <AltitudeMeters>279</AltitudeMeters>
            <DistanceMeters>NAN</DistanceMeters>
          </Trackpoint>
          <Trackpoint>
            <Time>2022-07-10T07:26:45.000Z</Time>
            <Position>
              <LatitudeDegrees>43.29759590327739715576171875</LatitudeDegrees>
              <LongitudeDegrees>-2.08638603799045085906982421875</LongitudeDegrees>
            </Position>
            <AltitudeMeters>279.399993896484375</AltitudeMeters>
            <DistanceMeters>NAN</DistanceMeters>
          </Trackpoint>
          <Trackpoint>
            <Time>2022-07-10T07:26:48.000Z</Time>
            <Position>
              <LatitudeDegrees>43.297552652657032012939453125</LatitudeDegrees>
              <LongitudeDegrees>-2.0863809250295162200927734375</LongitudeDegrees>
            </Position>
            <AltitudeMeters>279.79998779296875</AltitudeMeters>
            <DistanceMeters>NAN</DistanceMeters>
          </Trackpoint>
          <Trackpoint>
            <Time>2022-07-10T07:26:50.000Z</Time>
            <Position>
              <LatitudeDegrees>43.29752557910978794097900390625</LatitudeDegrees>
              <LongitudeDegrees>-2.0863866247236728668212890625</LongitudeDegrees>
            </Position>
            <AltitudeMeters>280.20001220703125</AltitudeMeters>
            <DistanceMeters>NAN</DistanceMeters>
          </Trackpoint>
          <Trackpoint>
            <Time>2022-07-10T07:26:51.000Z</Time>
            <Position>
              <LatitudeDegrees>43.29751853831112384796142578125</LatitudeDegrees>
              <LongitudeDegrees>-2.0863871276378631591796875</LongitudeDegrees>
            </Position>
            <AltitudeMeters>280.399993896484375</AltitudeMeters>
            <DistanceMeters>NAN</DistanceMeters>
          </Trackpoint>
          <Trackpoint>
            <Time>2022-07-10T07:26:52.000Z</Time>
            <Position>
              <LatitudeDegrees>43.2975045405328273773193359375</LatitudeDegrees>
              <LongitudeDegrees>-2.086386792361736297607421875</LongitudeDegrees>
            </Position>
            <AltitudeMeters>280.600006103515625</AltitudeMeters>
            <DistanceMeters>NAN</DistanceMeters>
          </Trackpoint>
          <Trackpoint>
            <Time>2022-07-10T07:26:56.000Z</Time>
            <Position>
              <LatitudeDegrees>43.29743438400328159332275390625</LatitudeDegrees>
              <LongitudeDegrees>-2.0864110998809337615966796875</LongitudeDegrees>
            </Position>
            <AltitudeMeters>281.20001220703125</AltitudeMeters>
            <DistanceMeters>NAN</DistanceMeters>
          </Trackpoint>
          <Trackpoint>
            <Time>2022-07-10T07:26:59.000Z</Time>
            <Position>
              <LatitudeDegrees>43.297405801713466644287109375</LatitudeDegrees>
              <LongitudeDegrees>-2.08644680678844451904296875</LongitudeDegrees>
            </Position>
            <AltitudeMeters>281.79998779296875</AltitudeMeters>
            <DistanceMeters>NAN</DistanceMeters>
          </Trackpoint>
          <Trackpoint>
            <Time>2022-07-10T07:27:00.000Z</Time>
            <Position>
              <LatitudeDegrees>43.29739364795386791229248046875</LatitudeDegrees>
              <LongitudeDegrees>-2.08645594306290149688720703125</LongitudeDegrees>
            </Position>
            <AltitudeMeters>282</AltitudeMeters>
            <DistanceMeters>NAN</DistanceMeters>
          </Trackpoint>
          <Trackpoint>
            <Time>2022-07-10T07:27:03.000Z</Time>
            <Position>
              <LatitudeDegrees>43.2973523251712322235107421875</LatitudeDegrees>
              <LongitudeDegrees>-2.08646290004253387451171875</LongitudeDegrees>
            </Position>
            <AltitudeMeters>282.399993896484375</AltitudeMeters>
            <DistanceMeters>NAN</DistanceMeters>
          </Trackpoint>
          <Trackpoint>
            <Time>2022-07-10T07:27:04.000Z</Time>
            <Position>
              <LatitudeDegrees>43.29734419472515583038330078125</LatitudeDegrees>
              <LongitudeDegrees>-2.08646901883184909820556640625</LongitudeDegrees>
            </Position>
            <AltitudeMeters>282.399993896484375</AltitudeMeters>
            <DistanceMeters>NAN</DistanceMeters>
          </Trackpoint>
          <Trackpoint>
            <Time>2022-07-10T07:27:07.000Z</Time>
            <Position>
              <LatitudeDegrees>43.2973362319171428680419921875</LatitudeDegrees>
              <LongitudeDegrees>-2.086507491767406463623046875</LongitudeDegrees>
            </Position>
            <AltitudeMeters>282.79998779296875</AltitudeMeters>
            <DistanceMeters>NAN</DistanceMeters>
          </Trackpoint>
          <Trackpoint>
            <Time>2022-07-10T07:27:09.000Z</Time>
            <Position>
              <LatitudeDegrees>43.29732659272849559783935546875</LatitudeDegrees>
              <LongitudeDegrees>-2.08652752451598644256591796875</LongitudeDegrees>
            </Position>
            <AltitudeMeters>283.20001220703125</AltitudeMeters>
            <DistanceMeters>NAN</DistanceMeters>
          </Trackpoint>
          <Trackpoint>
            <Time>2022-07-10T07:27:11.000Z</Time>
            <Position>
              <LatitudeDegrees>43.2973073981702327728271484375</LatitudeDegrees>
              <LongitudeDegrees>-2.08655082620680332183837890625</LongitudeDegrees>
            </Position>
            <AltitudeMeters>283.399993896484375</AltitudeMeters>
            <DistanceMeters>NAN</DistanceMeters>
          </Trackpoint>
          <Trackpoint>
            <Time>2022-07-10T07:27:12.000Z</Time>
            <Position>
              <LatitudeDegrees>43.2972986809909343719482421875</LatitudeDegrees>
              <LongitudeDegrees>-2.0865686796605587005615234375</LongitudeDegrees>
            </Position>
            <AltitudeMeters>283.399993896484375</AltitudeMeters>
            <DistanceMeters>NAN</DistanceMeters>
          </Trackpoint>
          <Trackpoint>
            <Time>2022-07-10T07:27:15.000Z</Time>
            <Position>
              <LatitudeDegrees>43.29726942814886569976806640625</LatitudeDegrees>
              <LongitudeDegrees>-2.086622156202793121337890625</LongitudeDegrees>
            </Position>
            <AltitudeMeters>283.79998779296875</AltitudeMeters>
            <DistanceMeters>NAN</DistanceMeters>
          </Trackpoint>
          <Trackpoint>
            <Time>2022-07-10T07:27:21.000Z</Time>
            <Position>
              <LatitudeDegrees>43.29726775176823139190673828125</LatitudeDegrees>
              <LongitudeDegrees>-2.086636237800121307373046875</LongitudeDegrees>
            </Position>
            <AltitudeMeters>283.79998779296875</AltitudeMeters>
            <DistanceMeters>NAN</DistanceMeters>
          </Trackpoint>
          <Trackpoint>
            <Time>2022-07-10T07:29:12.000Z</Time>
            <Position>
              <LatitudeDegrees>43.2971347309648990631103515625</LatitudeDegrees>
              <LongitudeDegrees>-2.08681083284318447113037109375</LongitudeDegrees>
            </Position>
            <AltitudeMeters>284.600006103515625</AltitudeMeters>
            <DistanceMeters>NAN</DistanceMeters>
          </Trackpoint>
          <Trackpoint>
            <Time>2022-07-10T07:29:13.000Z</Time>
            <Position>
              <LatitudeDegrees>43.297130204737186431884765625</LatitudeDegrees>
              <LongitudeDegrees>-2.08682960830628871917724609375</LongitudeDegrees>
            </Position>
            <AltitudeMeters>284.79998779296875</AltitudeMeters>
            <DistanceMeters>NAN</DistanceMeters>
          </Trackpoint>
          <Trackpoint>
            <Time>2022-07-10T07:29:15.000Z</Time>
            <Position>
              <LatitudeDegrees>43.29711553640663623809814453125</LatitudeDegrees>
              <LongitudeDegrees>-2.0868600346148014068603515625</LongitudeDegrees>
            </Position>
            <AltitudeMeters>284.79998779296875</AltitudeMeters>
            <DistanceMeters>NAN</DistanceMeters>
          </Trackpoint>
          <Trackpoint>
            <Time>2022-07-10T07:29:21.000Z</Time>
            <Position>
              <LatitudeDegrees>43.2970445416867733001708984375</LatitudeDegrees>
              <LongitudeDegrees>-2.086925916373729705810546875</LongitudeDegrees>
            </Position>
            <AltitudeMeters>285</AltitudeMeters>
            <DistanceMeters>NAN</DistanceMeters>
          </Trackpoint>
          <Trackpoint>
            <Time>2022-07-10T07:29:23.000Z</Time>
            <Position>
              <LatitudeDegrees>43.29703138209879398345947265625</LatitudeDegrees>
              <LongitudeDegrees>-2.0869515649974346160888671875</LongitudeDegrees>
            </Position>
            <AltitudeMeters>285.399993896484375</AltitudeMeters>
            <DistanceMeters>NAN</DistanceMeters>
          </Trackpoint>
          <Trackpoint>
            <Time>2022-07-10T07:29:25.000Z</Time>
            <Position>
              <LatitudeDegrees>43.2970153726637363433837890625</LatitudeDegrees>
              <LongitudeDegrees>-2.0869864337146282196044921875</LongitudeDegrees>
            </Position>
            <AltitudeMeters>285.600006103515625</AltitudeMeters>
            <DistanceMeters>NAN</DistanceMeters>
          </Trackpoint>
          <Trackpoint>
            <Time>2022-07-10T07:29:26.000Z</Time>
            <Position>
              <LatitudeDegrees>43.29701378010213375091552734375</LatitudeDegrees>
              <LongitudeDegrees>-2.08700470626354217529296875</LongitudeDegrees>
            </Position>
            <AltitudeMeters>285.79998779296875</AltitudeMeters>
            <DistanceMeters>NAN</DistanceMeters>
          </Trackpoint>
          <Trackpoint>
            <Time>2022-07-10T07:29:27.000Z</Time>
            <Position>
              <LatitudeDegrees>43.297012187540531158447265625</LatitudeDegrees>
              <LongitudeDegrees>-2.087019793689250946044921875</LongitudeDegrees>
            </Position>
            <AltitudeMeters>285.79998779296875</AltitudeMeters>
            <DistanceMeters>NAN</DistanceMeters>
          </Trackpoint>
          <Trackpoint>
            <Time>2022-07-10T07:29:29.000Z</Time>
            <Position>
              <LatitudeDegrees>43.2969986088573932647705078125</LatitudeDegrees>
              <LongitudeDegrees>-2.08705038763582706451416015625</LongitudeDegrees>
            </Position>
            <AltitudeMeters>286</AltitudeMeters>
            <DistanceMeters>NAN</DistanceMeters>
          </Trackpoint>
          <Trackpoint>
            <Time>2022-07-10T07:29:32.000Z</Time>
            <Position>
              <LatitudeDegrees>43.29699299298226833343505859375</LatitudeDegrees>
              <LongitudeDegrees>-2.08710034377872943878173828125</LongitudeDegrees>
            </Position>
            <AltitudeMeters>286.399993896484375</AltitudeMeters>
            <DistanceMeters>NAN</DistanceMeters>
          </Trackpoint>
          <Trackpoint>
            <Time>2022-07-10T07:29:33.000Z</Time>
            <Position>
              <LatitudeDegrees>43.29695913009345531463623046875</LatitudeDegrees>
              <LongitudeDegrees>-2.08711442537605762481689453125</LongitudeDegrees>
            </Position>
            <AltitudeMeters>286.600006103515625</AltitudeMeters>
            <DistanceMeters>NAN</DistanceMeters>
          </Trackpoint>
          <Trackpoint>
            <Time>2022-07-10T07:29:36.000Z</Time>
            <Position>
              <LatitudeDegrees>43.2969178073108196258544921875</LatitudeDegrees>
              <LongitudeDegrees>-2.087135799229145050048828125</LongitudeDegrees>
            </Position>
            <AltitudeMeters>286.79998779296875</AltitudeMeters>
            <DistanceMeters>NAN</DistanceMeters>
          </Trackpoint>
          <Trackpoint>
            <Time>2022-07-10T07:29:39.000Z</Time>
            <Position>
              <LatitudeDegrees>43.2969070784747600555419921875</LatitudeDegrees>
              <LongitudeDegrees>-2.0871621184051036834716796875</LongitudeDegrees>
            </Position>
            <AltitudeMeters>287.20001220703125</AltitudeMeters>
            <DistanceMeters>NAN</DistanceMeters>
          </Trackpoint>
          <Trackpoint>
            <Time>2022-07-10T07:29:40.000Z</Time>
            <Position>
              <LatitudeDegrees>43.29690297134220600128173828125</LatitudeDegrees>
              <LongitudeDegrees>-2.0871718414127826690673828125</LongitudeDegrees>
            </Position>
            <AltitudeMeters>287.399993896484375</AltitudeMeters>
            <DistanceMeters>NAN</DistanceMeters>
          </Trackpoint>
          <Trackpoint>
            <Time>2022-07-10T07:29:42.000Z</Time>
            <Position>
              <LatitudeDegrees>43.29688855446875095367431640625</LatitudeDegrees>
              <LongitudeDegrees>-2.0872013457119464874267578125</LongitudeDegrees>
            </Position>
            <AltitudeMeters>287.79998779296875</AltitudeMeters>
            <DistanceMeters>NAN</DistanceMeters>
          </Trackpoint>
          <Trackpoint>
            <Time>2022-07-10T07:29:44.000Z</Time>
            <Position>
              <LatitudeDegrees>43.29686039127409458160400390625</LatitudeDegrees>
              <LongitudeDegrees>-2.08723428659141063690185546875</LongitudeDegrees>
            </Position>
            <AltitudeMeters>288</AltitudeMeters>
            <DistanceMeters>NAN</DistanceMeters>
          </Trackpoint>
          <Trackpoint>
            <Time>2022-07-10T07:29:46.000Z</Time>
            <Position>
              <LatitudeDegrees>43.29683591611683368682861328125</LatitudeDegrees>
              <LongitudeDegrees>-2.08727158606052398681640625</LongitudeDegrees>
            </Position>
            <AltitudeMeters>288.399993896484375</AltitudeMeters>
            <DistanceMeters>NAN</DistanceMeters>
          </Trackpoint>
          <Trackpoint>
            <Time>2022-07-10T07:29:50.000Z</Time>
            <Position>
              <LatitudeDegrees>43.2968064956367015838623046875</LatitudeDegrees>
              <LongitudeDegrees>-2.08730645477771759033203125</LongitudeDegrees>
            </Position>
            <AltitudeMeters>288.79998779296875</AltitudeMeters>
            <DistanceMeters>NAN</DistanceMeters>
          </Trackpoint>
          <Trackpoint>
            <Time>2022-07-10T07:29:52.000Z</Time>
            <Position>
              <LatitudeDegrees>43.29678880982100963592529296875</LatitudeDegrees>
              <LongitudeDegrees>-2.087327577173709869384765625</LongitudeDegrees>
            </Position>
            <AltitudeMeters>289.20001220703125</AltitudeMeters>
            <DistanceMeters>NAN</DistanceMeters>
          </Trackpoint>
          <Trackpoint>
            <Time>2022-07-10T07:29:55.000Z</Time>
            <Position>
              <LatitudeDegrees>43.2967850379645824432373046875</LatitudeDegrees>
              <LongitudeDegrees>-2.08738331682980060577392578125</LongitudeDegrees>
            </Position>
            <AltitudeMeters>289.600006103515625</AltitudeMeters>
            <DistanceMeters>NAN</DistanceMeters>
          </Trackpoint>
          <Trackpoint>
            <Time>2022-07-10T07:29:58.000Z</Time>
            <Position>
              <LatitudeDegrees>43.29672829248011112213134765625</LatitudeDegrees>
              <LongitudeDegrees>-2.0874400623142719268798828125</LongitudeDegrees>
            </Position>
            <AltitudeMeters>289.79998779296875</AltitudeMeters>
            <DistanceMeters>NAN</DistanceMeters>
          </Trackpoint>
          <Trackpoint>
            <Time>2022-07-10T07:30:02.000Z</Time>
            <Position>
              <LatitudeDegrees>43.2967101037502288818359375</LatitudeDegrees>
              <LongitudeDegrees>-2.08750384859740734100341796875</LongitudeDegrees>
            </Position>
            <AltitudeMeters>290</AltitudeMeters>
            <DistanceMeters>NAN</DistanceMeters>
          </Trackpoint>
          <Trackpoint>
            <Time>2022-07-10T07:30:05.000Z</Time>
            <Position>
              <LatitudeDegrees>43.2966780848801136016845703125</LatitudeDegrees>
              <LongitudeDegrees>-2.08757777698338031768798828125</LongitudeDegrees>
            </Position>
            <AltitudeMeters>290.20001220703125</AltitudeMeters>
            <DistanceMeters>NAN</DistanceMeters>
          </Trackpoint>
          <Trackpoint>
            <Time>2022-07-10T07:30:08.000Z</Time>
            <Position>
              <LatitudeDegrees>43.29666475765407085418701171875</LatitudeDegrees>
              <LongitudeDegrees>-2.08763259463012218475341796875</LongitudeDegrees>
            </Position>
            <AltitudeMeters>290.600006103515625</AltitudeMeters>
            <DistanceMeters>NAN</DistanceMeters>
          </Trackpoint>
          <Trackpoint>
            <Time>2022-07-10T07:30:09.000Z</Time>
            <Position>
              <LatitudeDegrees>43.29666517674922943115234375</LatitudeDegrees>
              <LongitudeDegrees>-2.087646089494228363037109375</LongitudeDegrees>
            </Position>
            <AltitudeMeters>290.600006103515625</AltitudeMeters>
            <DistanceMeters>NAN</DistanceMeters>
          </Trackpoint>
          <Trackpoint>
            <Time>2022-07-10T07:30:10.000Z</Time>
            <Position>
              <LatitudeDegrees>43.296656794846057891845703125</LatitudeDegrees>
              <LongitudeDegrees>-2.08766494877636432647705078125</LongitudeDegrees>
            </Position>
            <AltitudeMeters>290.600006103515625</AltitudeMeters>
            <DistanceMeters>NAN</DistanceMeters>
          </Trackpoint>
          <Trackpoint>
            <Time>2022-07-10T07:30:12.000Z</Time>
            <Position>
              <LatitudeDegrees>43.296650759875774383544921875</LatitudeDegrees>
              <LongitudeDegrees>-2.08771071396768093109130859375</LongitudeDegrees>
            </Position>
            <AltitudeMeters>290.79998779296875</AltitudeMeters>
            <DistanceMeters>NAN</DistanceMeters>
          </Trackpoint>
          <Trackpoint>
            <Time>2022-07-10T07:30:14.000Z</Time>
            <Position>
              <LatitudeDegrees>43.29664799384772777557373046875</LatitudeDegrees>
              <LongitudeDegrees>-2.08775480277836322784423828125</LongitudeDegrees>
            </Position>
            <AltitudeMeters>290.79998779296875</AltitudeMeters>
            <DistanceMeters>NAN</DistanceMeters>
          </Trackpoint>
          <Trackpoint>
            <Time>2022-07-10T07:30:16.000Z</Time>
            <Position>
              <LatitudeDegrees>43.29663097858428955078125</LatitudeDegrees>
              <LongitudeDegrees>-2.08777944557368755340576171875</LongitudeDegrees>
            </Position>
            <AltitudeMeters>291</AltitudeMeters>
            <DistanceMeters>NAN</DistanceMeters>
          </Trackpoint>
          <Trackpoint>
            <Time>2022-07-10T07:30:19.000Z</Time>
            <Position>
              <LatitudeDegrees>43.29652813263237476348876953125</LatitudeDegrees>
              <LongitudeDegrees>-2.08785354159772396087646484375</LongitudeDegrees>
            </Position>
            <AltitudeMeters>291.399993896484375</AltitudeMeters>
            <DistanceMeters>NAN</DistanceMeters>
          </Trackpoint>
          <Trackpoint>
            <Time>2022-07-10T07:30:22.000Z</Time>
            <Position>
              <LatitudeDegrees>43.2964527793228626251220703125</LatitudeDegrees>
              <LongitudeDegrees>-2.0879309065639972686767578125</LongitudeDegrees>
            </Position>
            <AltitudeMeters>291.600006103515625</AltitudeMeters>
            <DistanceMeters>NAN</DistanceMeters>
          </Trackpoint>
          <Trackpoint>
            <Time>2022-07-10T07:30:25.000Z</Time>
            <Position>
              <LatitudeDegrees>43.29643710516393184661865234375</LatitudeDegrees>
              <LongitudeDegrees>-2.08797030150890350341796875</LongitudeDegrees>
            </Position>
            <AltitudeMeters>291.79998779296875</AltitudeMeters>
            <DistanceMeters>NAN</DistanceMeters>
          </Trackpoint>
          <Trackpoint>
            <Time>2022-07-10T07:30:28.000Z</Time>
            <Position>
              <LatitudeDegrees>43.29644062556326389312744140625</LatitudeDegrees>
              <LongitudeDegrees>-2.08801397122442722320556640625</LongitudeDegrees>
            </Position>
            <AltitudeMeters>292</AltitudeMeters>
            <DistanceMeters>NAN</DistanceMeters>
          </Trackpoint>
          <Trackpoint>
            <Time>2022-07-10T07:30:30.000Z</Time>
            <Position>
              <LatitudeDegrees>43.29645470716059207916259765625</LatitudeDegrees>
              <LongitudeDegrees>-2.0880402065813541412353515625</LongitudeDegrees>
            </Position>
            <AltitudeMeters>292</AltitudeMeters>
            <DistanceMeters>NAN</DistanceMeters>
          </Trackpoint>
          <Trackpoint>
            <Time>2022-07-10T07:30:31.000Z</Time>
            <Position>
              <LatitudeDegrees>43.2964504323899745941162109375</LatitudeDegrees>
              <LongitudeDegrees>-2.08804833702743053436279296875</LongitudeDegrees>
            </Position>
            <AltitudeMeters>292</AltitudeMeters>
            <DistanceMeters>NAN</DistanceMeters>
          </Trackpoint>
          <Trackpoint>
            <Time>2022-07-10T07:30:34.000Z</Time>
            <Position>
              <LatitudeDegrees>43.29642000608146190643310546875</LatitudeDegrees>
              <LongitudeDegrees>-2.08806241862475872039794921875</LongitudeDegrees>
            </Position>
            <AltitudeMeters>292.20001220703125</AltitudeMeters>
            <DistanceMeters>NAN</DistanceMeters>
          </Trackpoint>
          <Trackpoint>
            <Time>2022-07-10T07:30:58.000Z</Time>
            <Position>
              <LatitudeDegrees>43.29618397168815135955810546875</LatitudeDegrees>
              <LongitudeDegrees>-2.08844128064811229705810546875</LongitudeDegrees>
            </Position>
            <AltitudeMeters>293.79998779296875</AltitudeMeters>
            <DistanceMeters>NAN</DistanceMeters>
          </Trackpoint>
          <Trackpoint>
            <Time>2022-07-10T07:30:59.000Z</Time>
            <Position>
              <LatitudeDegrees>43.29617843963205814361572265625</LatitudeDegrees>
              <LongitudeDegrees>-2.088463492691516876220703125</LongitudeDegrees>
            </Position>
            <AltitudeMeters>293.600006103515625</AltitudeMeters>
            <DistanceMeters>NAN</DistanceMeters>
          </Trackpoint>
          <Trackpoint>
            <Time>2022-07-10T07:31:01.000Z</Time>
            <Position>
              <LatitudeDegrees>43.2961822114884853363037109375</LatitudeDegrees>
              <LongitudeDegrees>-2.0885327272117137908935546875</LongitudeDegrees>
            </Position>
            <AltitudeMeters>293</AltitudeMeters>
            <DistanceMeters>NAN</DistanceMeters>
          </Trackpoint>
          <Trackpoint>
            <Time>2022-07-10T07:31:02.000Z</Time>
            <Position>
              <LatitudeDegrees>43.2961763441562652587890625</LatitudeDegrees>
              <LongitudeDegrees>-2.088581509888172149658203125</LongitudeDegrees>
            </Position>
            <AltitudeMeters>292.79998779296875</AltitudeMeters>
            <DistanceMeters>NAN</DistanceMeters>
          </Trackpoint>
          <Trackpoint>
            <Time>2022-07-10T07:31:04.000Z</Time>
            <Position>
              <LatitudeDegrees>43.296167962253093719482421875</LatitudeDegrees>
              <LongitudeDegrees>-2.08865049295127391815185546875</LongitudeDegrees>
            </Position>
            <AltitudeMeters>292.600006103515625</AltitudeMeters>
            <DistanceMeters>NAN</DistanceMeters>
          </Trackpoint>
          <Trackpoint>
            <Time>2022-07-10T07:31:09.000Z</Time>
            <Position>
              <LatitudeDegrees>43.2961413078010082244873046875</LatitudeDegrees>
              <LongitudeDegrees>-2.0888532511889934539794921875</LongitudeDegrees>
            </Position>
            <AltitudeMeters>292</AltitudeMeters>
            <DistanceMeters>NAN</DistanceMeters>
          </Trackpoint>
          <Trackpoint>
            <Time>2022-07-10T07:31:14.000Z</Time>
            <Position>
              <LatitudeDegrees>43.2961892522871494293212890625</LatitudeDegrees>
              <LongitudeDegrees>-2.08899783901870250701904296875</LongitudeDegrees>
            </Position>
            <AltitudeMeters>292.20001220703125</AltitudeMeters>
            <DistanceMeters>NAN</DistanceMeters>
          </Trackpoint>
          <Trackpoint>
            <Time>2022-07-10T07:31:17.000Z</Time>
            <Position>
              <LatitudeDegrees>43.29621230252087116241455078125</LatitudeDegrees>
              <LongitudeDegrees>-2.08905617706477642059326171875</LongitudeDegrees>
            </Position>
            <AltitudeMeters>292.399993896484375</AltitudeMeters>
            <DistanceMeters>NAN</DistanceMeters>
          </Trackpoint>
          <Trackpoint>
            <Time>2022-07-10T07:31:20.000Z</Time>
            <Position>
              <LatitudeDegrees>43.29622303135693073272705078125</LatitudeDegrees>
              <LongitudeDegrees>-2.08912205882370471954345703125</LongitudeDegrees>
            </Position>
            <AltitudeMeters>292.600006103515625</AltitudeMeters>
            <DistanceMeters>NAN</DistanceMeters>
          </Trackpoint>
          <Trackpoint>
            <Time>2022-07-10T07:31:21.000Z</Time>
            <Position>
              <LatitudeDegrees>43.296223618090152740478515625</LatitudeDegrees>
              <LongitudeDegrees>-2.08914670161902904510498046875</LongitudeDegrees>
            </Position>
            <AltitudeMeters>292.79998779296875</AltitudeMeters>
            <DistanceMeters>NAN</DistanceMeters>
          </Trackpoint>
          <Trackpoint>
            <Time>2022-07-10T07:31:23.000Z</Time>
            <Position>
              <LatitudeDegrees>43.29620559699833393096923828125</LatitudeDegrees>
              <LongitudeDegrees>-2.089170925319194793701171875</LongitudeDegrees>
            </Position>
            <AltitudeMeters>293</AltitudeMeters>
            <DistanceMeters>NAN</DistanceMeters>
          </Trackpoint>
          <Trackpoint>
            <Time>2022-07-10T07:31:25.000Z</Time>
            <Position>
              <LatitudeDegrees>43.2961641065776348114013671875</LatitudeDegrees>
              <LongitudeDegrees>-2.08920604549348354339599609375</LongitudeDegrees>
            </Position>
            <AltitudeMeters>293.20001220703125</AltitudeMeters>
            <DistanceMeters>NAN</DistanceMeters>
          </Trackpoint>
          <Trackpoint>
            <Time>2022-07-10T07:31:29.000Z</Time>
            <Position>
              <LatitudeDegrees>43.29612429253756999969482421875</LatitudeDegrees>
              <LongitudeDegrees>-2.089269161224365234375</LongitudeDegrees>
            </Position>
            <AltitudeMeters>293.79998779296875</AltitudeMeters>
            <DistanceMeters>NAN</DistanceMeters>
          </Trackpoint>
          <Trackpoint>
            <Time>2022-07-10T07:31:31.000Z</Time>
            <Position>
              <LatitudeDegrees>43.29609596170485019683837890625</LatitudeDegrees>
              <LongitudeDegrees>-2.08930470049381256103515625</LongitudeDegrees>
            </Position>
            <AltitudeMeters>294</AltitudeMeters>
            <DistanceMeters>NAN</DistanceMeters>
          </Trackpoint>
          <Trackpoint>
            <Time>2022-07-10T07:31:32.000Z</Time>
            <Position>
              <LatitudeDegrees>43.2960836403071880340576171875</LatitudeDegrees>
              <LongitudeDegrees>-2.08932439796626567840576171875</LongitudeDegrees>
            </Position>
            <AltitudeMeters>294</AltitudeMeters>
            <DistanceMeters>NAN</DistanceMeters>
          </Trackpoint>
          <Trackpoint>
            <Time>2022-07-10T07:31:33.000Z</Time>
            <Position>
              <LatitudeDegrees>43.296072743833065032958984375</LatitudeDegrees>
              <LongitudeDegrees>-2.08934082649648189544677734375</LongitudeDegrees>
            </Position>
            <AltitudeMeters>294.20001220703125</AltitudeMeters>
            <DistanceMeters>NAN</DistanceMeters>
          </Trackpoint>
          <Trackpoint>
            <Time>2022-07-10T07:31:38.000Z</Time>
            <Position>
              <LatitudeDegrees>43.29603829421103000640869140625</LatitudeDegrees>
              <LongitudeDegrees>-2.08943621255457401275634765625</LongitudeDegrees>
            </Position>
            <AltitudeMeters>294.600006103515625</AltitudeMeters>
            <DistanceMeters>NAN</DistanceMeters>
          </Trackpoint>
          <Trackpoint>
            <Time>2022-07-10T07:31:43.000Z</Time>
            <Position>
              <LatitudeDegrees>43.29610400833189487457275390625</LatitudeDegrees>
              <LongitudeDegrees>-2.08950829692184925079345703125</LongitudeDegrees>
            </Position>
            <AltitudeMeters>295</AltitudeMeters>
            <DistanceMeters>NAN</DistanceMeters>
          </Trackpoint>
          <Trackpoint>
            <Time>2022-07-10T07:31:44.000Z</Time>
            <Position>
              <LatitudeDegrees>43.2961154915392398834228515625</LatitudeDegrees>
              <LongitudeDegrees>-2.08953226916491985321044921875</LongitudeDegrees>
            </Position>
            <AltitudeMeters>295.20001220703125</AltitudeMeters>
            <DistanceMeters>NAN</DistanceMeters>
          </Trackpoint>
          <Trackpoint>
            <Time>2022-07-10T07:31:47.000Z</Time>
            <Position>
              <LatitudeDegrees>43.296126388013362884521484375</LatitudeDegrees>
              <LongitudeDegrees>-2.08955682814121246337890625</LongitudeDegrees>
            </Position>
            <AltitudeMeters>295.399993896484375</AltitudeMeters>
            <DistanceMeters>NAN</DistanceMeters>
          </Trackpoint>
          <Trackpoint>
            <Time>2022-07-10T07:31:49.000Z</Time>
            <Position>
              <LatitudeDegrees>43.29613485373556613922119140625</LatitudeDegrees>
              <LongitudeDegrees>-2.08956462331116199493408203125</LongitudeDegrees>
            </Position>
            <AltitudeMeters>295.79998779296875</AltitudeMeters>
            <DistanceMeters>NAN</DistanceMeters>
          </Trackpoint>
          <Trackpoint>
            <Time>2022-07-10T07:31:50.000Z</Time>
            <Position>
              <LatitudeDegrees>43.2961396314203739166259765625</LatitudeDegrees>
              <LongitudeDegrees>-2.0895747654139995574951171875</LongitudeDegrees>
            </Position>
            <AltitudeMeters>296.20001220703125</AltitudeMeters>
            <DistanceMeters>NAN</DistanceMeters>
          </Trackpoint>
          <Trackpoint>
            <Time>2022-07-10T07:31:52.000Z</Time>
            <Position>
              <LatitudeDegrees>43.2961486838757991790771484375</LatitudeDegrees>
              <LongitudeDegrees>-2.089598737657070159912109375</LongitudeDegrees>
            </Position>
            <AltitudeMeters>296.399993896484375</AltitudeMeters>
            <DistanceMeters>NAN</DistanceMeters>
          </Trackpoint>
          <Trackpoint>
            <Time>2022-07-10T07:31:54.000Z</Time>
            <Position>
              <LatitudeDegrees>43.29617491923272609710693359375</LatitudeDegrees>
              <LongitudeDegrees>-2.08959781564772129058837890625</LongitudeDegrees>
            </Position>
            <AltitudeMeters>296.600006103515625</AltitudeMeters>
            <DistanceMeters>NAN</DistanceMeters>
          </Trackpoint>
          <Trackpoint>
            <Time>2022-07-10T07:31:57.000Z</Time>
            <Position>
              <LatitudeDegrees>43.296177685260772705078125</LatitudeDegrees>
              <LongitudeDegrees>-2.0895546488463878631591796875</LongitudeDegrees>
            </Position>
            <AltitudeMeters>297</AltitudeMeters>
            <DistanceMeters>NAN</DistanceMeters>
          </Trackpoint>
          <Trackpoint>
            <Time>2022-07-10T07:31:58.000Z</Time>
            <Position>
              <LatitudeDegrees>43.2961857318878173828125</LatitudeDegrees>
              <LongitudeDegrees>-2.0895588397979736328125</LongitudeDegrees>
            </Position>
            <AltitudeMeters>297</AltitudeMeters>
            <DistanceMeters>NAN</DistanceMeters>
          </Trackpoint>
          <Trackpoint>
            <Time>2022-07-10T07:31:59.000Z</Time>
            <Position>
              <LatitudeDegrees>43.29619369469583034515380859375</LatitudeDegrees>
              <LongitudeDegrees>-2.0895663835108280181884765625</LongitudeDegrees>
            </Position>
            <AltitudeMeters>297.20001220703125</AltitudeMeters>
            <DistanceMeters>NAN</DistanceMeters>
          </Trackpoint>
          <Trackpoint>
            <Time>2022-07-10T07:32:03.000Z</Time>
            <Position>
              <LatitudeDegrees>43.29624465666711330413818359375</LatitudeDegrees>
              <LongitudeDegrees>-2.08961181342601776123046875</LongitudeDegrees>
            </Position>
            <AltitudeMeters>298.20001220703125</AltitudeMeters>
            <DistanceMeters>NAN</DistanceMeters>
          </Trackpoint>
          <Trackpoint>
            <Time>2022-07-10T07:32:04.000Z</Time>
            <Position>
              <LatitudeDegrees>43.2962573133409023284912109375</LatitudeDegrees>
              <LongitudeDegrees>-2.0896237157285213470458984375</LongitudeDegrees>
            </Position>
            <AltitudeMeters>298.399993896484375</AltitudeMeters>
            <DistanceMeters>NAN</DistanceMeters>
          </Trackpoint>
          <Trackpoint>
            <Time>2022-07-10T07:32:06.000Z</Time>
            <Position>
              <LatitudeDegrees>43.29628698527812957763671875</LatitudeDegrees>
              <LongitudeDegrees>-2.089652381837368011474609375</LongitudeDegrees>
            </Position>
            <AltitudeMeters>298.79998779296875</AltitudeMeters>
            <DistanceMeters>NAN</DistanceMeters>
          </Trackpoint>
          <Trackpoint>
            <Time>2022-07-10T07:32:09.000Z</Time>
            <Position>
              <LatitudeDegrees>43.29632344655692577362060546875</LatitudeDegrees>
              <LongitudeDegrees>-2.089699320495128631591796875</LongitudeDegrees>
            </Position>
            <AltitudeMeters>299</AltitudeMeters>
            <DistanceMeters>NAN</DistanceMeters>
          </Trackpoint>
          <Trackpoint>
            <Time>2022-07-10T07:33:52.000Z</Time>
            <Position>
              <LatitudeDegrees>43.29618447460234165191650390625</LatitudeDegrees>
              <LongitudeDegrees>-2.09037062712013721466064453125</LongitudeDegrees>
            </Position>
            <AltitudeMeters>310.79998779296875</AltitudeMeters>
            <DistanceMeters>NAN</DistanceMeters>
          </Trackpoint>
          <Trackpoint>
            <Time>2022-07-10T07:33:53.000Z</Time>
            <Position>
              <LatitudeDegrees>43.296180032193660736083984375</LatitudeDegrees>
              <LongitudeDegrees>-2.090360820293426513671875</LongitudeDegrees>
            </Position>
            <AltitudeMeters>310.79998779296875</AltitudeMeters>
            <DistanceMeters>NAN</DistanceMeters>
          </Trackpoint>
          <Trackpoint>
            <Time>2022-07-10T07:33:55.000Z</Time>
            <Position>
              <LatitudeDegrees>43.29616284929215908050537109375</LatitudeDegrees>
              <LongitudeDegrees>-2.090346403419971466064453125</LongitudeDegrees>
            </Position>
            <AltitudeMeters>311.20001220703125</AltitudeMeters>
            <DistanceMeters>NAN</DistanceMeters>
          </Trackpoint>
          <Trackpoint>
            <Time>2022-07-10T07:33:59.000Z</Time>
            <Position>
              <LatitudeDegrees>43.2961245439946651458740234375</LatitudeDegrees>
              <LongitudeDegrees>-2.09031161852180957794189453125</LongitudeDegrees>
            </Position>
            <AltitudeMeters>311.79998779296875</AltitudeMeters>
            <DistanceMeters>NAN</DistanceMeters>
          </Trackpoint>
          <Trackpoint>
            <Time>2022-07-10T07:34:03.000Z</Time>
            <Position>
              <LatitudeDegrees>43.2960776053369045257568359375</LatitudeDegrees>
              <LongitudeDegrees>-2.09030650556087493896484375</LongitudeDegrees>
            </Position>
            <AltitudeMeters>312.399993896484375</AltitudeMeters>
            <DistanceMeters>NAN</DistanceMeters>
          </Trackpoint>
          <Trackpoint>
            <Time>2022-07-10T07:34:08.000Z</Time>
            <Position>
              <LatitudeDegrees>43.29601599834859371185302734375</LatitudeDegrees>
              <LongitudeDegrees>-2.0903313159942626953125</LongitudeDegrees>
            </Position>
            <AltitudeMeters>313</AltitudeMeters>
            <DistanceMeters>NAN</DistanceMeters>
          </Trackpoint>
          <Trackpoint>
            <Time>2022-07-10T07:34:12.000Z</Time>
            <Position>
              <LatitudeDegrees>43.295978866517543792724609375</LatitudeDegrees>
              <LongitudeDegrees>-2.09038018248975276947021484375</LongitudeDegrees>
            </Position>
            <AltitudeMeters>313.399993896484375</AltitudeMeters>
            <DistanceMeters>NAN</DistanceMeters>
          </Trackpoint>
          <Trackpoint>
            <Time>2022-07-10T07:34:17.000Z</Time>
            <Position>
              <LatitudeDegrees>43.29593117348849773406982421875</LatitudeDegrees>
              <LongitudeDegrees>-2.09041823633015155792236328125</LongitudeDegrees>
            </Position>
            <AltitudeMeters>314.20001220703125</AltitudeMeters>
            <DistanceMeters>NAN</DistanceMeters>
          </Trackpoint>
          <Trackpoint>
            <Time>2022-07-10T07:34:18.000Z</Time>
            <Position>
              <LatitudeDegrees>43.29591818153858184814453125</LatitudeDegrees>
              <LongitudeDegrees>-2.09042477421462535858154296875</LongitudeDegrees>
            </Position>
            <AltitudeMeters>314.20001220703125</AltitudeMeters>
            <DistanceMeters>NAN</DistanceMeters>
          </Trackpoint>
          <Trackpoint>
            <Time>2022-07-10T07:34:20.000Z</Time>
            <Position>
              <LatitudeDegrees>43.2958965562283992767333984375</LatitudeDegrees>
              <LongitudeDegrees>-2.090440280735492706298828125</LongitudeDegrees>
            </Position>
            <AltitudeMeters>314.399993896484375</AltitudeMeters>
            <DistanceMeters>NAN</DistanceMeters>
          </Trackpoint>
          <Trackpoint>
            <Time>2022-07-10T07:34:26.000Z</Time>
            <Position>
              <LatitudeDegrees>43.29584182240068912506103515625</LatitudeDegrees>
              <LongitudeDegrees>-2.09051848389208316802978515625</LongitudeDegrees>
            </Position>
            <AltitudeMeters>315</AltitudeMeters>
            <DistanceMeters>NAN</DistanceMeters>
          </Trackpoint>
          <Trackpoint>
            <Time>2022-07-10T07:34:28.000Z</Time>
            <Position>
              <LatitudeDegrees>43.295825980603694915771484375</LatitudeDegrees>
              <LongitudeDegrees>-2.09055050276219844818115234375</LongitudeDegrees>
            </Position>
            <AltitudeMeters>315.20001220703125</AltitudeMeters>
            <DistanceMeters>NAN</DistanceMeters>
          </Trackpoint>
          <Trackpoint>
            <Time>2022-07-10T07:34:34.000Z</Time>
            <Position>
              <LatitudeDegrees>43.29576772637665271759033203125</LatitudeDegrees>
              <LongitudeDegrees>-2.09062141366302967071533203125</LongitudeDegrees>
            </Position>
            <AltitudeMeters>315.79998779296875</AltitudeMeters>
            <DistanceMeters>NAN</DistanceMeters>
          </Trackpoint>
          <Trackpoint>
            <Time>2022-07-10T07:34:36.000Z</Time>
            <Position>
              <LatitudeDegrees>43.29575113020837306976318359375</LatitudeDegrees>
              <LongitudeDegrees>-2.0906506665050983428955078125</LongitudeDegrees>
            </Position>
            <AltitudeMeters>316</AltitudeMeters>
            <DistanceMeters>NAN</DistanceMeters>
          </Trackpoint>
          <Trackpoint>
            <Time>2022-07-10T07:34:40.000Z</Time>
            <Position>
              <LatitudeDegrees>43.29572447575628757476806640625</LatitudeDegrees>
              <LongitudeDegrees>-2.09072099067270755767822265625</LongitudeDegrees>
            </Position>
            <AltitudeMeters>316.20001220703125</AltitudeMeters>
            <DistanceMeters>NAN</DistanceMeters>
          </Trackpoint>
          <Trackpoint>
            <Time>2022-07-10T07:34:45.000Z</Time>
            <Position>
              <LatitudeDegrees>43.2956886850297451019287109375</LatitudeDegrees>
              <LongitudeDegrees>-2.09080531261861324310302734375</LongitudeDegrees>
            </Position>
            <AltitudeMeters>316.399993896484375</AltitudeMeters>
            <DistanceMeters>NAN</DistanceMeters>
          </Trackpoint>
          <Trackpoint>
            <Time>2022-07-10T07:34:53.000Z</Time>
            <Position>
              <LatitudeDegrees>43.29560570418834686279296875</LatitudeDegrees>
              <LongitudeDegrees>-2.0909755490720272064208984375</LongitudeDegrees>
            </Position>
            <AltitudeMeters>317</AltitudeMeters>
            <DistanceMeters>NAN</DistanceMeters>
          </Trackpoint>
          <Trackpoint>
            <Time>2022-07-10T07:35:02.000Z</Time>
            <Position>
              <LatitudeDegrees>43.29552750103175640106201171875</LatitudeDegrees>
              <LongitudeDegrees>-2.09119029343128204345703125</LongitudeDegrees>
            </Position>
            <AltitudeMeters>317.20001220703125</AltitudeMeters>
            <DistanceMeters>NAN</DistanceMeters>
          </Trackpoint>
          <Trackpoint>
            <Time>2022-07-10T07:35:10.000Z</Time>
            <Position>
              <LatitudeDegrees>43.29543747939169406890869140625</LatitudeDegrees>
              <LongitudeDegrees>-2.09139388985931873321533203125</LongitudeDegrees>
            </Position>
            <AltitudeMeters>317</AltitudeMeters>
            <DistanceMeters>NAN</DistanceMeters>
          </Trackpoint>
          <Trackpoint>
            <Time>2022-07-10T07:35:16.000Z</Time>
            <Position>
              <LatitudeDegrees>43.2953698374330997467041015625</LatitudeDegrees>
              <LongitudeDegrees>-2.0915772020816802978515625</LongitudeDegrees>
            </Position>
            <AltitudeMeters>317.20001220703125</AltitudeMeters>
            <DistanceMeters>NAN</DistanceMeters>
          </Trackpoint>
          <Trackpoint>
            <Time>2022-07-10T07:35:18.000Z</Time>
            <Position>
              <LatitudeDegrees>43.29534628428518772125244140625</LatitudeDegrees>
              <LongitudeDegrees>-2.09162858314812183380126953125</LongitudeDegrees>
            </Position>
            <AltitudeMeters>317.20001220703125</AltitudeMeters>
            <DistanceMeters>NAN</DistanceMeters>
          </Trackpoint>
          <Trackpoint>
            <Time>2022-07-10T07:35:21.000Z</Time>
            <Position>
              <LatitudeDegrees>43.29530554823577404022216796875</LatitudeDegrees>
              <LongitudeDegrees>-2.09170066751539707183837890625</LongitudeDegrees>
            </Position>
            <AltitudeMeters>317.20001220703125</AltitudeMeters>
            <DistanceMeters>NAN</DistanceMeters>
          </Trackpoint>
          <Trackpoint>
            <Time>2022-07-10T07:35:26.000Z</Time>
            <Position>
              <LatitudeDegrees>43.2952538318932056427001953125</LatitudeDegrees>
              <LongitudeDegrees>-2.09182270802557468414306640625</LongitudeDegrees>
            </Position>
            <AltitudeMeters>317.79998779296875</AltitudeMeters>
            <DistanceMeters>NAN</DistanceMeters>
          </Trackpoint>
          <Trackpoint>
            <Time>2022-07-10T07:35:33.000Z</Time>
            <Position>
              <LatitudeDegrees>43.295170180499553680419921875</LatitudeDegrees>
              <LongitudeDegrees>-2.09198380820453166961669921875</LongitudeDegrees>
            </Position>
            <AltitudeMeters>318.20001220703125</AltitudeMeters>
            <DistanceMeters>NAN</DistanceMeters>
          </Trackpoint>
          <Trackpoint>
            <Time>2022-07-10T07:35:34.000Z</Time>
            <Position>
              <LatitudeDegrees>43.29516590572893619537353515625</LatitudeDegrees>
              <LongitudeDegrees>-2.09200442768633365631103515625</LongitudeDegrees>
            </Position>
            <AltitudeMeters>318.20001220703125</AltitudeMeters>
            <DistanceMeters>NAN</DistanceMeters>
          </Trackpoint>
          <Trackpoint>
            <Time>2022-07-10T07:35:40.000Z</Time>
            <Position>
              <LatitudeDegrees>43.2951128482818603515625</LatitudeDegrees>
              <LongitudeDegrees>-2.09212931804358959197998046875</LongitudeDegrees>
            </Position>
            <AltitudeMeters>319</AltitudeMeters>
            <DistanceMeters>NAN</DistanceMeters>
          </Trackpoint>
          <Trackpoint>
            <Time>2022-07-10T07:35:45.000Z</Time>
            <Position>
              <LatitudeDegrees>43.29508476890623569488525390625</LatitudeDegrees>
              <LongitudeDegrees>-2.09221615456044673919677734375</LongitudeDegrees>
            </Position>
            <AltitudeMeters>319.399993896484375</AltitudeMeters>
            <DistanceMeters>NAN</DistanceMeters>
          </Trackpoint>
          <Trackpoint>
            <Time>2022-07-10T07:35:48.000Z</Time>
            <Position>
              <LatitudeDegrees>43.295062221586704254150390625</LatitudeDegrees>
              <LongitudeDegrees>-2.0922692120075225830078125</LongitudeDegrees>
            </Position>
            <AltitudeMeters>319.600006103515625</AltitudeMeters>
            <DistanceMeters>NAN</DistanceMeters>
          </Trackpoint>
          <Trackpoint>
            <Time>2022-07-10T07:35:55.000Z</Time>
            <Position>
              <LatitudeDegrees>43.29499424435198307037353515625</LatitudeDegrees>
              <LongitudeDegrees>-2.092367447912693023681640625</LongitudeDegrees>
            </Position>
            <AltitudeMeters>320.399993896484375</AltitudeMeters>
            <DistanceMeters>NAN</DistanceMeters>
          </Trackpoint>
          <Trackpoint>
            <Time>2022-07-10T07:35:56.000Z</Time>
            <Position>
              <LatitudeDegrees>43.29498871229588985443115234375</LatitudeDegrees>
              <LongitudeDegrees>-2.092380858957767486572265625</LongitudeDegrees>
            </Position>
            <AltitudeMeters>320.399993896484375</AltitudeMeters>
            <DistanceMeters>NAN</DistanceMeters>
          </Trackpoint>
          <Trackpoint>
            <Time>2022-07-10T07:36:03.000Z</Time>
            <Position>
              <LatitudeDegrees>43.29494395293295383453369140625</LatitudeDegrees>
              <LongitudeDegrees>-2.09248873405158519744873046875</LongitudeDegrees>
            </Position>
            <AltitudeMeters>321.20001220703125</AltitudeMeters>
            <DistanceMeters>NAN</DistanceMeters>
          </Trackpoint>
          <Trackpoint>
            <Time>2022-07-10T07:36:05.000Z</Time>
            <Position>
              <LatitudeDegrees>43.294922076165676116943359375</LatitudeDegrees>
              <LongitudeDegrees>-2.09251974709331989288330078125</LongitudeDegrees>
            </Position>
            <AltitudeMeters>321.600006103515625</AltitudeMeters>
            <DistanceMeters>NAN</DistanceMeters>
          </Trackpoint>
          <Trackpoint>
            <Time>2022-07-10T07:36:08.000Z</Time>
            <Position>
              <LatitudeDegrees>43.29489584080874919891357421875</LatitudeDegrees>
              <LongitudeDegrees>-2.0925587229430675506591796875</LongitudeDegrees>
            </Position>
            <AltitudeMeters>322.20001220703125</AltitudeMeters>
            <DistanceMeters>NAN</DistanceMeters>
          </Trackpoint>
          <Trackpoint>
            <Time>2022-07-10T07:36:12.000Z</Time>
            <Position>
              <LatitudeDegrees>43.29485929571092128753662109375</LatitudeDegrees>
              <LongitudeDegrees>-2.09260943345725536346435546875</LongitudeDegrees>
            </Position>
            <AltitudeMeters>322.600006103515625</AltitudeMeters>
            <DistanceMeters>NAN</DistanceMeters>
          </Trackpoint>
          <Trackpoint>
            <Time>2022-07-10T07:36:15.000Z</Time>
            <Position>
              <LatitudeDegrees>43.29482409171760082244873046875</LatitudeDegrees>
              <LongitudeDegrees>-2.09263625554740428924560546875</LongitudeDegrees>
            </Position>
            <AltitudeMeters>323</AltitudeMeters>
            <DistanceMeters>NAN</DistanceMeters>
          </Trackpoint>
          <Trackpoint>
            <Time>2022-07-10T07:36:17.000Z</Time>
            <Position>
              <LatitudeDegrees>43.29479609616100788116455078125</LatitudeDegrees>
              <LongitudeDegrees>-2.09265301935374736785888671875</LongitudeDegrees>
            </Position>
            <AltitudeMeters>323.20001220703125</AltitudeMeters>
            <DistanceMeters>NAN</DistanceMeters>
          </Trackpoint>
          <Trackpoint>
            <Time>2022-07-10T07:36:20.000Z</Time>
            <Position>
              <LatitudeDegrees>43.2947609759867191314697265625</LatitudeDegrees>
              <LongitudeDegrees>-2.09273600019514560699462890625</LongitudeDegrees>
            </Position>
            <AltitudeMeters>323</AltitudeMeters>
            <DistanceMeters>NAN</DistanceMeters>
          </Trackpoint>
          <Trackpoint>
            <Time>2022-07-10T07:36:22.000Z</Time>
            <Position>
              <LatitudeDegrees>43.29474915750324726104736328125</LatitudeDegrees>
              <LongitudeDegrees>-2.0928004570305347442626953125</LongitudeDegrees>
            </Position>
            <AltitudeMeters>322.600006103515625</AltitudeMeters>
            <DistanceMeters>NAN</DistanceMeters>
          </Trackpoint>
          <Trackpoint>
            <Time>2022-07-10T07:36:26.000Z</Time>
            <Position>
              <LatitudeDegrees>43.2947314716875553131103515625</LatitudeDegrees>
              <LongitudeDegrees>-2.092862986028194427490234375</LongitudeDegrees>
            </Position>
            <AltitudeMeters>321.600006103515625</AltitudeMeters>
            <DistanceMeters>NAN</DistanceMeters>
          </Trackpoint>
          <Trackpoint>
            <Time>2022-07-10T07:36:30.000Z</Time>
            <Position>
              <LatitudeDegrees>43.29471915028989315032958984375</LatitudeDegrees>
              <LongitudeDegrees>-2.09284613840281963348388671875</LongitudeDegrees>
            </Position>
            <AltitudeMeters>321.20001220703125</AltitudeMeters>
            <DistanceMeters>NAN</DistanceMeters>
          </Trackpoint>
          <Trackpoint>
            <Time>2022-07-10T07:39:21.000Z</Time>
            <Position>
              <LatitudeDegrees>43.29474664293229579925537109375</LatitudeDegrees>
              <LongitudeDegrees>-2.092868350446224212646484375</LongitudeDegrees>
            </Position>
            <AltitudeMeters>321.600006103515625</AltitudeMeters>
            <DistanceMeters>NAN</DistanceMeters>
          </Trackpoint>
          <Trackpoint>
            <Time>2022-07-10T07:39:22.000Z</Time>
            <Position>
              <LatitudeDegrees>43.29473943449556827545166015625</LatitudeDegrees>
              <LongitudeDegrees>-2.09290833212435245513916015625</LongitudeDegrees>
            </Position>
            <AltitudeMeters>321.600006103515625</AltitudeMeters>
            <DistanceMeters>NAN</DistanceMeters>
          </Trackpoint>
          <Trackpoint>
            <Time>2022-07-10T07:39:27.000Z</Time>
            <Position>
              <LatitudeDegrees>43.2947187311947345733642578125</LatitudeDegrees>
              <LongitudeDegrees>-2.09302417002618312835693359375</LongitudeDegrees>
            </Position>
            <AltitudeMeters>321</AltitudeMeters>
            <DistanceMeters>NAN</DistanceMeters>
          </Trackpoint>
          <Trackpoint>
            <Time>2022-07-10T07:39:28.000Z</Time>
            <Position>
              <LatitudeDegrees>43.294712193310260772705078125</LatitudeDegrees>
              <LongitudeDegrees>-2.0930390059947967529296875</LongitudeDegrees>
            </Position>
            <AltitudeMeters>320.79998779296875</AltitudeMeters>
            <DistanceMeters>NAN</DistanceMeters>
          </Trackpoint>
          <Trackpoint>
            <Time>2022-07-10T07:39:31.000Z</Time>
            <Position>
              <LatitudeDegrees>43.29469450749456882476806640625</LatitudeDegrees>
              <LongitudeDegrees>-2.093063481152057647705078125</LongitudeDegrees>
            </Position>
            <AltitudeMeters>320.79998779296875</AltitudeMeters>
            <DistanceMeters>NAN</DistanceMeters>
          </Trackpoint>
          <Trackpoint>
            <Time>2022-07-10T07:39:33.000Z</Time>
            <Position>
              <LatitudeDegrees>43.2947083376348018646240234375</LatitudeDegrees>
              <LongitudeDegrees>-2.09307932294905185699462890625</LongitudeDegrees>
            </Position>
            <AltitudeMeters>321</AltitudeMeters>
            <DistanceMeters>NAN</DistanceMeters>
          </Trackpoint>
          <Trackpoint>
            <Time>2022-07-10T07:39:49.000Z</Time>
            <Position>
              <LatitudeDegrees>43.29467975534498691558837890625</LatitudeDegrees>
              <LongitudeDegrees>-2.09310245700180530548095703125</LongitudeDegrees>
            </Position>
            <AltitudeMeters>321.399993896484375</AltitudeMeters>
            <DistanceMeters>NAN</DistanceMeters>
          </Trackpoint>
          <Trackpoint>
            <Time>2022-07-10T07:39:50.000Z</Time>
            <Position>
              <LatitudeDegrees>43.294665254652500152587890625</LatitudeDegrees>
              <LongitudeDegrees>-2.0931045524775981903076171875</LongitudeDegrees>
            </Position>
            <AltitudeMeters>321.600006103515625</AltitudeMeters>
            <DistanceMeters>NAN</DistanceMeters>
          </Trackpoint>
          <Trackpoint>
            <Time>2022-07-10T07:39:55.000Z</Time>
            <Position>
              <LatitudeDegrees>43.29458068124949932098388671875</LatitudeDegrees>
              <LongitudeDegrees>-2.09312911145389080047607421875</LongitudeDegrees>
            </Position>
            <AltitudeMeters>322.600006103515625</AltitudeMeters>
            <DistanceMeters>NAN</DistanceMeters>
          </Trackpoint>
          <Trackpoint>
            <Time>2022-07-10T07:39:58.000Z</Time>
            <Position>
              <LatitudeDegrees>43.2945339940488338470458984375</LatitudeDegrees>
              <LongitudeDegrees>-2.0931518264114856719970703125</LongitudeDegrees>
            </Position>
            <AltitudeMeters>323.399993896484375</AltitudeMeters>
            <DistanceMeters>NAN</DistanceMeters>
          </Trackpoint>
          <Trackpoint>
            <Time>2022-07-10T07:40:00.000Z</Time>
            <Position>
              <LatitudeDegrees>43.2945135422050952911376953125</LatitudeDegrees>
              <LongitudeDegrees>-2.093174457550048828125</LongitudeDegrees>
            </Position>
            <AltitudeMeters>323.79998779296875</AltitudeMeters>
            <DistanceMeters>NAN</DistanceMeters>
          </Trackpoint>
          <Trackpoint>
            <Time>2022-07-10T07:40:03.000Z</Time>
            <Position>
              <LatitudeDegrees>43.2944905757904052734375</LatitudeDegrees>
              <LongitudeDegrees>-2.093203961849212646484375</LongitudeDegrees>
            </Position>
            <AltitudeMeters>324.399993896484375</AltitudeMeters>
            <DistanceMeters>NAN</DistanceMeters>
          </Trackpoint>
          <Trackpoint>
            <Time>2022-07-10T07:40:06.000Z</Time>
            <Position>
              <LatitudeDegrees>43.2944572158157825469970703125</LatitudeDegrees>
              <LongitudeDegrees>-2.093253917992115020751953125</LongitudeDegrees>
            </Position>
            <AltitudeMeters>324.79998779296875</AltitudeMeters>
            <DistanceMeters>NAN</DistanceMeters>
          </Trackpoint>
          <Trackpoint>
            <Time>2022-07-10T07:40:08.000Z</Time>
            <Position>
              <LatitudeDegrees>43.294427208602428436279296875</LatitudeDegrees>
              <LongitudeDegrees>-2.09328585304319858551025390625</LongitudeDegrees>
            </Position>
            <AltitudeMeters>325</AltitudeMeters>
            <DistanceMeters>NAN</DistanceMeters>
          </Trackpoint>
          <Trackpoint>
            <Time>2022-07-10T07:40:11.000Z</Time>
            <Position>
              <LatitudeDegrees>43.2943717204034328460693359375</LatitudeDegrees>
              <LongitudeDegrees>-2.09336380474269390106201171875</LongitudeDegrees>
            </Position>
            <AltitudeMeters>325</AltitudeMeters>
            <DistanceMeters>NAN</DistanceMeters>
          </Trackpoint>
          <Trackpoint>
            <Time>2022-07-10T07:40:17.000Z</Time>
            <Position>
              <LatitudeDegrees>43.29426183365285396575927734375</LatitudeDegrees>
              <LongitudeDegrees>-2.09356614388525485992431640625</LongitudeDegrees>
            </Position>
            <AltitudeMeters>325</AltitudeMeters>
            <DistanceMeters>NAN</DistanceMeters>
          </Trackpoint>
          <Trackpoint>
            <Time>2022-07-10T07:40:22.000Z</Time>
            <Position>
              <LatitudeDegrees>43.2942000590264797210693359375</LatitudeDegrees>
              <LongitudeDegrees>-2.09372774697840213775634765625</LongitudeDegrees>
            </Position>
            <AltitudeMeters>324.79998779296875</AltitudeMeters>
            <DistanceMeters>NAN</DistanceMeters>
          </Trackpoint>
          <Trackpoint>
            <Time>2022-07-10T07:40:27.000Z</Time>
            <Position>
              <LatitudeDegrees>43.29415990971028804779052734375</LatitudeDegrees>
              <LongitudeDegrees>-2.0938176847994327545166015625</LongitudeDegrees>
            </Position>
            <AltitudeMeters>324.20001220703125</AltitudeMeters>
            <DistanceMeters>NAN</DistanceMeters>
          </Trackpoint>
          <Trackpoint>
            <Time>2022-07-10T07:40:28.000Z</Time>
            <Position>
              <LatitudeDegrees>43.2941593229770660400390625</LatitudeDegrees>
              <LongitudeDegrees>-2.0938193611800670623779296875</LongitudeDegrees>
            </Position>
            <AltitudeMeters>324</AltitudeMeters>
            <DistanceMeters>NAN</DistanceMeters>
          </Trackpoint>
          <Trackpoint>
            <Time>2022-07-10T07:40:29.000Z</Time>
            <Position>
              <LatitudeDegrees>43.29415756277740001678466796875</LatitudeDegrees>
              <LongitudeDegrees>-2.09382682107388973236083984375</LongitudeDegrees>
            </Position>
            <AltitudeMeters>324</AltitudeMeters>
            <DistanceMeters>NAN</DistanceMeters>
          </Trackpoint>
          <Trackpoint>
            <Time>2022-07-10T07:40:37.000Z</Time>
            <Position>
              <LatitudeDegrees>43.2941323332488536834716796875</LatitudeDegrees>
              <LongitudeDegrees>-2.0939487777650356292724609375</LongitudeDegrees>
            </Position>
            <AltitudeMeters>324.20001220703125</AltitudeMeters>
            <DistanceMeters>NAN</DistanceMeters>
          </Trackpoint>
          <Trackpoint>
            <Time>2022-07-10T07:40:39.000Z</Time>
            <Position>
              <LatitudeDegrees>43.29411481507122516632080078125</LatitudeDegrees>
              <LongitudeDegrees>-2.09401390515267848968505859375</LongitudeDegrees>
            </Position>
            <AltitudeMeters>324.20001220703125</AltitudeMeters>
            <DistanceMeters>NAN</DistanceMeters>
          </Trackpoint>
          <Trackpoint>
            <Time>2022-07-10T07:40:45.000Z</Time>
            <Position>
              <LatitudeDegrees>43.29400568269193172454833984375</LatitudeDegrees>
              <LongitudeDegrees>-2.09421339444816112518310546875</LongitudeDegrees>
            </Position>
            <AltitudeMeters>324.399993896484375</AltitudeMeters>
            <DistanceMeters>NAN</DistanceMeters>
          </Trackpoint>
          <Trackpoint>
            <Time>2022-07-10T07:40:46.000Z</Time>
            <Position>
              <LatitudeDegrees>43.29399143345654010772705078125</LatitudeDegrees>
              <LongitudeDegrees>-2.09423887543380260467529296875</LongitudeDegrees>
            </Position>
            <AltitudeMeters>324.600006103515625</AltitudeMeters>
            <DistanceMeters>NAN</DistanceMeters>
          </Trackpoint>
          <Trackpoint>
            <Time>2022-07-10T07:40:49.000Z</Time>
            <Position>
              <LatitudeDegrees>43.293955810368061065673828125</LatitudeDegrees>
              <LongitudeDegrees>-2.09432420320808887481689453125</LongitudeDegrees>
            </Position>
            <AltitudeMeters>324.79998779296875</AltitudeMeters>
            <DistanceMeters>NAN</DistanceMeters>
          </Trackpoint>
          <Trackpoint>
            <Time>2022-07-10T07:40:53.000Z</Time>
            <Position>
              <LatitudeDegrees>43.2939125597476959228515625</LatitudeDegrees>
              <LongitudeDegrees>-2.0944382809102535247802734375</LongitudeDegrees>
            </Position>
            <AltitudeMeters>324.79998779296875</AltitudeMeters>
            <DistanceMeters>NAN</DistanceMeters>
          </Trackpoint>
          <Trackpoint>
            <Time>2022-07-10T07:40:54.000Z</Time>
            <Position>
              <LatitudeDegrees>43.2938959635794162750244140625</LatitudeDegrees>
              <LongitudeDegrees>-2.094471640884876251220703125</LongitudeDegrees>
            </Position>
            <AltitudeMeters>324.79998779296875</AltitudeMeters>
            <DistanceMeters>NAN</DistanceMeters>
          </Trackpoint>
          <Trackpoint>
            <Time>2022-07-10T07:41:01.000Z</Time>
            <Position>
              <LatitudeDegrees>43.29384223558008670806884765625</LatitudeDegrees>
              <LongitudeDegrees>-2.09467590786516666412353515625</LongitudeDegrees>
            </Position>
            <AltitudeMeters>325.399993896484375</AltitudeMeters>
            <DistanceMeters>NAN</DistanceMeters>
          </Trackpoint>
          <Trackpoint>
            <Time>2022-07-10T07:41:07.000Z</Time>
            <Position>
              <LatitudeDegrees>43.29379714094102382659912109375</LatitudeDegrees>
              <LongitudeDegrees>-2.09482443518936634063720703125</LongitudeDegrees>
            </Position>
            <AltitudeMeters>325.79998779296875</AltitudeMeters>
            <DistanceMeters>NAN</DistanceMeters>
          </Trackpoint>
          <Trackpoint>
            <Time>2022-07-10T07:41:09.000Z</Time>
            <Position>
              <LatitudeDegrees>43.29378121532499790191650390625</LatitudeDegrees>
              <LongitudeDegrees>-2.09486835636198520660400390625</LongitudeDegrees>
            </Position>
            <AltitudeMeters>326</AltitudeMeters>
            <DistanceMeters>NAN</DistanceMeters>
          </Trackpoint>
          <Trackpoint>
            <Time>2022-07-10T07:41:18.000Z</Time>
            <Position>
              <LatitudeDegrees>43.29370108433067798614501953125</LatitudeDegrees>
              <LongitudeDegrees>-2.0950934104621410369873046875</LongitudeDegrees>
            </Position>
            <AltitudeMeters>326.600006103515625</AltitudeMeters>
            <DistanceMeters>NAN</DistanceMeters>
          </Trackpoint>
          <Trackpoint>
            <Time>2022-07-10T07:41:20.000Z</Time>
            <Position>
              <LatitudeDegrees>43.29368633218109607696533203125</LatitudeDegrees>
              <LongitudeDegrees>-2.09513389505445957183837890625</LongitudeDegrees>
            </Position>
            <AltitudeMeters>327</AltitudeMeters>
            <DistanceMeters>NAN</DistanceMeters>
          </Trackpoint>
          <Trackpoint>
            <Time>2022-07-10T07:41:25.000Z</Time>
            <Position>
              <LatitudeDegrees>43.2936924509704113006591796875</LatitudeDegrees>
              <LongitudeDegrees>-2.09524705074727535247802734375</LongitudeDegrees>
            </Position>
            <AltitudeMeters>327.20001220703125</AltitudeMeters>
            <DistanceMeters>NAN</DistanceMeters>
          </Trackpoint>
          <Trackpoint>
            <Time>2022-07-10T07:41:32.000Z</Time>
            <Position>
              <LatitudeDegrees>43.29374886117875576019287109375</LatitudeDegrees>
              <LongitudeDegrees>-2.09543664939701557159423828125</LongitudeDegrees>
            </Position>
            <AltitudeMeters>327.79998779296875</AltitudeMeters>
            <DistanceMeters>NAN</DistanceMeters>
          </Trackpoint>
          <Trackpoint>
            <Time>2022-07-10T07:41:34.000Z</Time>
            <Position>
              <LatitudeDegrees>43.293757997453212738037109375</LatitudeDegrees>
              <LongitudeDegrees>-2.095486856997013092041015625</LongitudeDegrees>
            </Position>
            <AltitudeMeters>328</AltitudeMeters>
            <DistanceMeters>NAN</DistanceMeters>
          </Trackpoint>
          <Trackpoint>
            <Time>2022-07-10T07:41:39.000Z</Time>
            <Position>
              <LatitudeDegrees>43.29376034438610076904296875</LatitudeDegrees>
              <LongitudeDegrees>-2.09556740708649158477783203125</LongitudeDegrees>
            </Position>
            <AltitudeMeters>328.399993896484375</AltitudeMeters>
            <DistanceMeters>NAN</DistanceMeters>
          </Trackpoint>
          <Trackpoint>
            <Time>2022-07-10T07:41:42.000Z</Time>
            <Position>
              <LatitudeDegrees>43.2937585003674030303955078125</LatitudeDegrees>
              <LongitudeDegrees>-2.095621638000011444091796875</LongitudeDegrees>
            </Position>
            <AltitudeMeters>329</AltitudeMeters>
            <DistanceMeters>NAN</DistanceMeters>
          </Trackpoint>
          <Trackpoint>
            <Time>2022-07-10T07:41:45.000Z</Time>
            <Position>
              <LatitudeDegrees>43.29374182038009166717529296875</LatitudeDegrees>
              <LongitudeDegrees>-2.0956898666918277740478515625</LongitudeDegrees>
            </Position>
            <AltitudeMeters>329.20001220703125</AltitudeMeters>
            <DistanceMeters>NAN</DistanceMeters>
          </Trackpoint>
          <Trackpoint>
            <Time>2022-07-10T07:41:50.000Z</Time>
            <Position>
              <LatitudeDegrees>43.2937180995941162109375</LatitudeDegrees>
              <LongitudeDegrees>-2.09577645175158977508544921875</LongitudeDegrees>
            </Position>
            <AltitudeMeters>329.20001220703125</AltitudeMeters>
            <DistanceMeters>NAN</DistanceMeters>
          </Trackpoint>
          <Trackpoint>
            <Time>2022-07-10T07:41:51.000Z</Time>
            <Position>
              <LatitudeDegrees>43.29371667467057704925537109375</LatitudeDegrees>
              <LongitudeDegrees>-2.095791287720203399658203125</LongitudeDegrees>
            </Position>
            <AltitudeMeters>329.20001220703125</AltitudeMeters>
            <DistanceMeters>NAN</DistanceMeters>
          </Trackpoint>
          <Trackpoint>
            <Time>2022-07-10T07:41:54.000Z</Time>
            <Position>
              <LatitudeDegrees>43.29369622282683849334716796875</LatitudeDegrees>
              <LongitudeDegrees>-2.09586580283939838409423828125</LongitudeDegrees>
            </Position>
            <AltitudeMeters>329</AltitudeMeters>
            <DistanceMeters>NAN</DistanceMeters>
          </Trackpoint>
          <Trackpoint>
            <Time>2022-07-10T07:41:59.000Z</Time>
            <Position>
              <LatitudeDegrees>43.2936555705964565277099609375</LatitudeDegrees>
              <LongitudeDegrees>-2.095994465053081512451171875</LongitudeDegrees>
            </Position>
            <AltitudeMeters>328.79998779296875</AltitudeMeters>
            <DistanceMeters>NAN</DistanceMeters>
          </Trackpoint>
          <Trackpoint>
            <Time>2022-07-10T07:42:08.000Z</Time>
            <Position>
              <LatitudeDegrees>43.29355674795806407928466796875</LatitudeDegrees>
              <LongitudeDegrees>-2.0961877517402172088623046875</LongitudeDegrees>
            </Position>
            <AltitudeMeters>328.20001220703125</AltitudeMeters>
            <DistanceMeters>NAN</DistanceMeters>
          </Trackpoint>
          <Trackpoint>
            <Time>2022-07-10T07:42:12.000Z</Time>
            <Position>
              <LatitudeDegrees>43.29350008629262447357177734375</LatitudeDegrees>
              <LongitudeDegrees>-2.09627819247543811798095703125</LongitudeDegrees>
            </Position>
            <AltitudeMeters>328</AltitudeMeters>
            <DistanceMeters>NAN</DistanceMeters>
          </Trackpoint>
          <Trackpoint>
            <Time>2022-07-10T07:42:16.000Z</Time>
            <Position>
              <LatitudeDegrees>43.29344795085489749908447265625</LatitudeDegrees>
              <LongitudeDegrees>-2.09635497070848941802978515625</LongitudeDegrees>
            </Position>
            <AltitudeMeters>327.79998779296875</AltitudeMeters>
            <DistanceMeters>NAN</DistanceMeters>
          </Trackpoint>
          <Trackpoint>
            <Time>2022-07-10T07:42:22.000Z</Time>
            <Position>
              <LatitudeDegrees>43.29338341020047664642333984375</LatitudeDegrees>
              <LongitudeDegrees>-2.0964415557682514190673828125</LongitudeDegrees>
            </Position>
            <AltitudeMeters>328</AltitudeMeters>
            <DistanceMeters>NAN</DistanceMeters>
          </Trackpoint>
          <Trackpoint>
            <Time>2022-07-10T07:42:25.000Z</Time>
            <Position>
              <LatitudeDegrees>43.29337100498378276824951171875</LatitudeDegrees>
              <LongitudeDegrees>-2.09648170508444309234619140625</LongitudeDegrees>
            </Position>
            <AltitudeMeters>328</AltitudeMeters>
            <DistanceMeters>NAN</DistanceMeters>
          </Trackpoint>
          <Trackpoint>
            <Time>2022-07-10T07:42:28.000Z</Time>
            <Position>
              <LatitudeDegrees>43.29332021065056324005126953125</LatitudeDegrees>
              <LongitudeDegrees>-2.096538953483104705810546875</LongitudeDegrees>
            </Position>
            <AltitudeMeters>328.20001220703125</AltitudeMeters>
            <DistanceMeters>NAN</DistanceMeters>
          </Trackpoint>
          <Trackpoint>
            <Time>2022-07-10T07:42:30.000Z</Time>
            <Position>
              <LatitudeDegrees>43.29331568442285060882568359375</LatitudeDegrees>
              <LongitudeDegrees>-2.0965652726590633392333984375</LongitudeDegrees>
            </Position>
            <AltitudeMeters>328.20001220703125</AltitudeMeters>
            <DistanceMeters>NAN</DistanceMeters>
          </Trackpoint>
          <Trackpoint>
            <Time>2022-07-10T07:42:32.000Z</Time>
            <Position>
              <LatitudeDegrees>43.29330059699714183807373046875</LatitudeDegrees>
              <LongitudeDegrees>-2.09659134037792682647705078125</LongitudeDegrees>
            </Position>
            <AltitudeMeters>328.399993896484375</AltitudeMeters>
            <DistanceMeters>NAN</DistanceMeters>
          </Trackpoint>
          <Trackpoint>
            <Time>2022-07-10T07:42:33.000Z</Time>
            <Position>
              <LatitudeDegrees>43.2932991720736026763916015625</LatitudeDegrees>
              <LongitudeDegrees>-2.096603997051715850830078125</LongitudeDegrees>
            </Position>
            <AltitudeMeters>328.399993896484375</AltitudeMeters>
            <DistanceMeters>NAN</DistanceMeters>
          </Trackpoint>
          <Trackpoint>
            <Time>2022-07-10T07:42:38.000Z</Time>
            <Position>
              <LatitudeDegrees>43.29326706938445568084716796875</LatitudeDegrees>
              <LongitudeDegrees>-2.096702568233013153076171875</LongitudeDegrees>
            </Position>
            <AltitudeMeters>328.399993896484375</AltitudeMeters>
            <DistanceMeters>NAN</DistanceMeters>
          </Trackpoint>
          <Trackpoint>
            <Time>2022-07-10T07:42:41.000Z</Time>
            <Position>
              <LatitudeDegrees>43.2932619564235210418701171875</LatitudeDegrees>
              <LongitudeDegrees>-2.0967540331184864044189453125</LongitudeDegrees>
            </Position>
            <AltitudeMeters>328.399993896484375</AltitudeMeters>
            <DistanceMeters>NAN</DistanceMeters>
          </Trackpoint>
          <Trackpoint>
            <Time>2022-07-10T07:42:43.000Z</Time>
            <Position>
              <LatitudeDegrees>43.29326338134706020355224609375</LatitudeDegrees>
              <LongitudeDegrees>-2.09677691571414470672607421875</LongitudeDegrees>
            </Position>
            <AltitudeMeters>328.399993896484375</AltitudeMeters>
            <DistanceMeters>NAN</DistanceMeters>
          </Trackpoint>
          <Trackpoint>
            <Time>2022-07-10T07:42:45.000Z</Time>
            <Position>
              <LatitudeDegrees>43.29324267804622650146484375</LatitudeDegrees>
              <LongitudeDegrees>-2.09680952131748199462890625</LongitudeDegrees>
            </Position>
            <AltitudeMeters>328.600006103515625</AltitudeMeters>
            <DistanceMeters>NAN</DistanceMeters>
          </Trackpoint>
          <Trackpoint>
            <Time>2022-07-10T07:42:47.000Z</Time>
            <Position>
              <LatitudeDegrees>43.2932240702211856842041015625</LatitudeDegrees>
              <LongitudeDegrees>-2.0968477427959442138671875</LongitudeDegrees>
            </Position>
            <AltitudeMeters>328.600006103515625</AltitudeMeters>
            <DistanceMeters>NAN</DistanceMeters>
          </Trackpoint>
          <Trackpoint>
            <Time>2022-07-10T07:42:50.000Z</Time>
            <Position>
              <LatitudeDegrees>43.29317386262118816375732421875</LatitudeDegrees>
              <LongitudeDegrees>-2.09690767340362071990966796875</LongitudeDegrees>
            </Position>
            <AltitudeMeters>328.600006103515625</AltitudeMeters>
            <DistanceMeters>NAN</DistanceMeters>
          </Trackpoint>
          <Trackpoint>
            <Time>2022-07-10T07:42:53.000Z</Time>
            <Position>
              <LatitudeDegrees>43.29314284957945346832275390625</LatitudeDegrees>
              <LongitudeDegrees>-2.0969619043171405792236328125</LongitudeDegrees>
            </Position>
            <AltitudeMeters>328.600006103515625</AltitudeMeters>
            <DistanceMeters>NAN</DistanceMeters>
          </Trackpoint>
          <Trackpoint>
            <Time>2022-07-10T07:42:56.000Z</Time>
            <Position>
              <LatitudeDegrees>43.2931208051741123199462890625</LatitudeDegrees>
              <LongitudeDegrees>-2.09700071252882480621337890625</LongitudeDegrees>
            </Position>
            <AltitudeMeters>329</AltitudeMeters>
            <DistanceMeters>NAN</DistanceMeters>
          </Trackpoint>
          <Trackpoint>
            <Time>2022-07-10T07:42:57.000Z</Time>
            <Position>
              <LatitudeDegrees>43.2931181229650974273681640625</LatitudeDegrees>
              <LongitudeDegrees>-2.0970175601541996002197265625</LongitudeDegrees>
            </Position>
            <AltitudeMeters>329</AltitudeMeters>
            <DistanceMeters>NAN</DistanceMeters>
          </Trackpoint>
          <Trackpoint>
            <Time>2022-07-10T07:43:02.000Z</Time>
            <Position>
              <LatitudeDegrees>43.29310144297778606414794921875</LatitudeDegrees>
              <LongitudeDegrees>-2.09713666699826717376708984375</LongitudeDegrees>
            </Position>
            <AltitudeMeters>329.399993896484375</AltitudeMeters>
            <DistanceMeters>NAN</DistanceMeters>
          </Trackpoint>
          <Trackpoint>
            <Time>2022-07-10T07:43:05.000Z</Time>
            <Position>
              <LatitudeDegrees>43.29305634833872318267822265625</LatitudeDegrees>
              <LongitudeDegrees>-2.0971808396279811859130859375</LongitudeDegrees>
            </Position>
            <AltitudeMeters>329.399993896484375</AltitudeMeters>
            <DistanceMeters>NAN</DistanceMeters>
          </Trackpoint>
          <Trackpoint>
            <Time>2022-07-10T07:43:09.000Z</Time>
            <Position>
              <LatitudeDegrees>43.29304553568363189697265625</LatitudeDegrees>
              <LongitudeDegrees>-2.097192741930484771728515625</LongitudeDegrees>
            </Position>
            <AltitudeMeters>329.600006103515625</AltitudeMeters>
            <DistanceMeters>NAN</DistanceMeters>
          </Trackpoint>
          <Trackpoint>
            <Time>2022-07-10T07:43:37.000Z</Time>
            <Position>
              <LatitudeDegrees>43.2929494790732860565185546875</LatitudeDegrees>
              <LongitudeDegrees>-2.09738309495151042938232421875</LongitudeDegrees>
            </Position>
            <AltitudeMeters>330.399993896484375</AltitudeMeters>
            <DistanceMeters>NAN</DistanceMeters>
          </Trackpoint>
          <Trackpoint>
            <Time>2022-07-10T07:43:41.000Z</Time>
            <Position>
              <LatitudeDegrees>43.2929189689457416534423828125</LatitudeDegrees>
              <LongitudeDegrees>-2.097477726638317108154296875</LongitudeDegrees>
            </Position>
            <AltitudeMeters>330.600006103515625</AltitudeMeters>
            <DistanceMeters>NAN</DistanceMeters>
          </Trackpoint>
          <Trackpoint>
            <Time>2022-07-10T07:43:45.000Z</Time>
            <Position>
              <LatitudeDegrees>43.29289239831268787384033203125</LatitudeDegrees>
              <LongitudeDegrees>-2.097554504871368408203125</LongitudeDegrees>
            </Position>
            <AltitudeMeters>330.600006103515625</AltitudeMeters>
            <DistanceMeters>NAN</DistanceMeters>
          </Trackpoint>
          <Trackpoint>
            <Time>2022-07-10T07:43:46.000Z</Time>
            <Position>
              <LatitudeDegrees>43.2928814180195331573486328125</LatitudeDegrees>
              <LongitudeDegrees>-2.09757302887737751007080078125</LongitudeDegrees>
            </Position>
            <AltitudeMeters>330.600006103515625</AltitudeMeters>
            <DistanceMeters>NAN</DistanceMeters>
          </Trackpoint>
          <Trackpoint>
            <Time>2022-07-10T07:43:49.000Z</Time>
            <Position>
              <LatitudeDegrees>43.292858786880970001220703125</LatitudeDegrees>
              <LongitudeDegrees>-2.09763564169406890869140625</LongitudeDegrees>
            </Position>
            <AltitudeMeters>331</AltitudeMeters>
            <DistanceMeters>NAN</DistanceMeters>
          </Trackpoint>
          <Trackpoint>
            <Time>2022-07-10T07:43:55.000Z</Time>
            <Position>
              <LatitudeDegrees>43.2928343117237091064453125</LatitudeDegrees>
              <LongitudeDegrees>-2.09771879017353057861328125</LongitudeDegrees>
            </Position>
            <AltitudeMeters>331.20001220703125</AltitudeMeters>
            <DistanceMeters>NAN</DistanceMeters>
          </Trackpoint>
          <Trackpoint>
            <Time>2022-07-10T07:44:34.000Z</Time>
            <Position>
              <LatitudeDegrees>43.2928190566599369049072265625</LatitudeDegrees>
              <LongitudeDegrees>-2.09778492338955402374267578125</LongitudeDegrees>
            </Position>
            <AltitudeMeters>330.600006103515625</AltitudeMeters>
            <DistanceMeters>NAN</DistanceMeters>
          </Trackpoint>
          <Trackpoint>
            <Time>2022-07-10T07:44:35.000Z</Time>
            <Position>
              <LatitudeDegrees>43.29281327314674854278564453125</LatitudeDegrees>
              <LongitudeDegrees>-2.09780571050941944122314453125</LongitudeDegrees>
            </Position>
            <AltitudeMeters>330.600006103515625</AltitudeMeters>
            <DistanceMeters>NAN</DistanceMeters>
          </Trackpoint>
          <Trackpoint>
            <Time>2022-07-10T07:44:37.000Z</Time>
            <Position>
              <LatitudeDegrees>43.292789719998836517333984375</LatitudeDegrees>
              <LongitudeDegrees>-2.09784778766334056854248046875</LongitudeDegrees>
            </Position>
            <AltitudeMeters>330.600006103515625</AltitudeMeters>
            <DistanceMeters>NAN</DistanceMeters>
          </Trackpoint>
          <Trackpoint>
            <Time>2022-07-10T07:44:43.000Z</Time>
            <Position>
              <LatitudeDegrees>43.2927375845611095428466796875</LatitudeDegrees>
              <LongitudeDegrees>-2.097969911992549896240234375</LongitudeDegrees>
            </Position>
            <AltitudeMeters>331.399993896484375</AltitudeMeters>
            <DistanceMeters>NAN</DistanceMeters>
          </Trackpoint>
          <Trackpoint>
            <Time>2022-07-10T07:44:44.000Z</Time>
            <Position>
              <LatitudeDegrees>43.292724005877971649169921875</LatitudeDegrees>
              <LongitudeDegrees>-2.09798835217952728271484375</LongitudeDegrees>
            </Position>
            <AltitudeMeters>331.399993896484375</AltitudeMeters>
            <DistanceMeters>NAN</DistanceMeters>
          </Trackpoint>
          <Trackpoint>
            <Time>2022-07-10T07:44:47.000Z</Time>
            <Position>
              <LatitudeDegrees>43.2926960103213787078857421875</LatitudeDegrees>
              <LongitudeDegrees>-2.09803973324596881866455078125</LongitudeDegrees>
            </Position>
            <AltitudeMeters>331.399993896484375</AltitudeMeters>
            <DistanceMeters>NAN</DistanceMeters>
          </Trackpoint>
          <Trackpoint>
            <Time>2022-07-10T07:44:51.000Z</Time>
            <Position>
              <LatitudeDegrees>43.2926668412983417510986328125</LatitudeDegrees>
              <LongitudeDegrees>-2.0981165952980518341064453125</LongitudeDegrees>
            </Position>
            <AltitudeMeters>332</AltitudeMeters>
            <DistanceMeters>NAN</DistanceMeters>
          </Trackpoint>
          <Trackpoint>
            <Time>2022-07-10T07:44:56.000Z</Time>
            <Position>
              <LatitudeDegrees>43.2926383428275585174560546875</LatitudeDegrees>
              <LongitudeDegrees>-2.09823687560856342315673828125</LongitudeDegrees>
            </Position>
            <AltitudeMeters>332.20001220703125</AltitudeMeters>
            <DistanceMeters>NAN</DistanceMeters>
          </Trackpoint>
          <Trackpoint>
            <Time>2022-07-10T07:44:59.000Z</Time>
            <Position>
              <LatitudeDegrees>43.2926195673644542694091796875</LatitudeDegrees>
              <LongitudeDegrees>-2.09829320199787616729736328125</LongitudeDegrees>
            </Position>
            <AltitudeMeters>332.399993896484375</AltitudeMeters>
            <DistanceMeters>NAN</DistanceMeters>
          </Trackpoint>
          <Trackpoint>
            <Time>2022-07-10T07:45:00.000Z</Time>
            <Position>
              <LatitudeDegrees>43.29261344857513904571533203125</LatitudeDegrees>
              <LongitudeDegrees>-2.098309881985187530517578125</LongitudeDegrees>
            </Position>
            <AltitudeMeters>332.399993896484375</AltitudeMeters>
            <DistanceMeters>NAN</DistanceMeters>
          </Trackpoint>
          <Trackpoint>
            <Time>2022-07-10T07:45:02.000Z</Time>
            <Position>
              <LatitudeDegrees>43.29260657541453838348388671875</LatitudeDegrees>
              <LongitudeDegrees>-2.09834399633109569549560546875</LongitudeDegrees>
            </Position>
            <AltitudeMeters>332.600006103515625</AltitudeMeters>
            <DistanceMeters>NAN</DistanceMeters>
          </Trackpoint>
          <Trackpoint>
            <Time>2022-07-10T07:45:09.000Z</Time>
            <Position>
              <LatitudeDegrees>43.292527534067630767822265625</LatitudeDegrees>
              <LongitudeDegrees>-2.09842949174344539642333984375</LongitudeDegrees>
            </Position>
            <AltitudeMeters>333</AltitudeMeters>
            <DistanceMeters>NAN</DistanceMeters>
          </Trackpoint>
          <Trackpoint>
            <Time>2022-07-10T07:45:14.000Z</Time>
            <Position>
              <LatitudeDegrees>43.292506076395511627197265625</LatitudeDegrees>
              <LongitudeDegrees>-2.09860953502357006072998046875</LongitudeDegrees>
            </Position>
            <AltitudeMeters>332.600006103515625</AltitudeMeters>
            <DistanceMeters>NAN</DistanceMeters>
          </Trackpoint>
          <Trackpoint>
            <Time>2022-07-10T07:45:20.000Z</Time>
            <Position>
              <LatitudeDegrees>43.2924851216375827789306640625</LatitudeDegrees>
              <LongitudeDegrees>-2.09878488443791866302490234375</LongitudeDegrees>
            </Position>
            <AltitudeMeters>331.600006103515625</AltitudeMeters>
            <DistanceMeters>NAN</DistanceMeters>
          </Trackpoint>
          <Trackpoint>
            <Time>2022-07-10T07:45:21.000Z</Time>
            <Position>
              <LatitudeDegrees>43.29247900284826755523681640625</LatitudeDegrees>
              <LongitudeDegrees>-2.09882520139217376708984375</LongitudeDegrees>
            </Position>
            <AltitudeMeters>331.399993896484375</AltitudeMeters>
            <DistanceMeters>NAN</DistanceMeters>
          </Trackpoint>
          <Trackpoint>
            <Time>2022-07-10T07:45:25.000Z</Time>
            <Position>
              <LatitudeDegrees>43.29242854379117488861083984375</LatitudeDegrees>
              <LongitudeDegrees>-2.0990493334829807281494140625</LongitudeDegrees>
            </Position>
            <AltitudeMeters>331</AltitudeMeters>
            <DistanceMeters>NAN</DistanceMeters>
          </Trackpoint>
          <Trackpoint>
            <Time>2022-07-10T07:45:27.000Z</Time>
            <Position>
              <LatitudeDegrees>43.2923986203968524932861328125</LatitudeDegrees>
              <LongitudeDegrees>-2.09918537177145481109619140625</LongitudeDegrees>
            </Position>
            <AltitudeMeters>330.20001220703125</AltitudeMeters>
            <DistanceMeters>NAN</DistanceMeters>
          </Trackpoint>
          <Trackpoint>
            <Time>2022-07-10T07:45:30.000Z</Time>
            <Position>
              <LatitudeDegrees>43.29235109500586986541748046875</LatitudeDegrees>
              <LongitudeDegrees>-2.0993919856846332550048828125</LongitudeDegrees>
            </Position>
            <AltitudeMeters>329.20001220703125</AltitudeMeters>
            <DistanceMeters>NAN</DistanceMeters>
          </Trackpoint>
          <Trackpoint>
            <Time>2022-07-10T07:45:32.000Z</Time>
            <Position>
              <LatitudeDegrees>43.29231622628867626190185546875</LatitudeDegrees>
              <LongitudeDegrees>-2.0995487272739410400390625</LongitudeDegrees>
            </Position>
            <AltitudeMeters>328.600006103515625</AltitudeMeters>
            <DistanceMeters>NAN</DistanceMeters>
          </Trackpoint>
          <Trackpoint>
            <Time>2022-07-10T07:45:33.000Z</Time>
            <Position>
              <LatitudeDegrees>43.2922993786633014678955078125</LatitudeDegrees>
              <LongitudeDegrees>-2.09963254630565643310546875</LongitudeDegrees>
            </Position>
            <AltitudeMeters>328.20001220703125</AltitudeMeters>
            <DistanceMeters>NAN</DistanceMeters>
          </Trackpoint>
          <Trackpoint>
            <Time>2022-07-10T07:45:36.000Z</Time>
            <Position>
              <LatitudeDegrees>43.29225906170904636383056640625</LatitudeDegrees>
              <LongitudeDegrees>-2.09989070892333984375</LongitudeDegrees>
            </Position>
            <AltitudeMeters>327</AltitudeMeters>
            <DistanceMeters>NAN</DistanceMeters>
          </Trackpoint>
          <Trackpoint>
            <Time>2022-07-10T07:45:39.000Z</Time>
            <Position>
              <LatitudeDegrees>43.29221698455512523651123046875</LatitudeDegrees>
              <LongitudeDegrees>-2.10015557706356048583984375</LongitudeDegrees>
            </Position>
            <AltitudeMeters>325.20001220703125</AltitudeMeters>
            <DistanceMeters>NAN</DistanceMeters>
          </Trackpoint>
          <Trackpoint>
            <Time>2022-07-10T07:45:40.000Z</Time>
            <Position>
              <LatitudeDegrees>43.2922034896910190582275390625</LatitudeDegrees>
              <LongitudeDegrees>-2.10024065338075160980224609375</LongitudeDegrees>
            </Position>
            <AltitudeMeters>324.600006103515625</AltitudeMeters>
            <DistanceMeters>NAN</DistanceMeters>
          </Trackpoint>
          <Trackpoint>
            <Time>2022-07-10T07:45:41.000Z</Time>
            <Position>
              <LatitudeDegrees>43.29218697734177112579345703125</LatitudeDegrees>
              <LongitudeDegrees>-2.1003227122128009796142578125</LongitudeDegrees>
            </Position>
            <AltitudeMeters>324</AltitudeMeters>
            <DistanceMeters>NAN</DistanceMeters>
          </Trackpoint>
          <Trackpoint>
            <Time>2022-07-10T07:45:43.000Z</Time>
            <Position>
              <LatitudeDegrees>43.292148001492023468017578125</LatitudeDegrees>
              <LongitudeDegrees>-2.1004910208284854888916015625</LongitudeDegrees>
            </Position>
            <AltitudeMeters>322.79998779296875</AltitudeMeters>
            <DistanceMeters>NAN</DistanceMeters>
          </Trackpoint>
          <Trackpoint>
            <Time>2022-07-10T07:45:45.000Z</Time>
            <Position>
              <LatitudeDegrees>43.2921089418232440948486328125</LatitudeDegrees>
              <LongitudeDegrees>-2.1006418950855731964111328125</LongitudeDegrees>
            </Position>
            <AltitudeMeters>321.399993896484375</AltitudeMeters>
            <DistanceMeters>NAN</DistanceMeters>
          </Trackpoint>
          <Trackpoint>
            <Time>2022-07-10T07:45:46.000Z</Time>
            <Position>
              <LatitudeDegrees>43.2920938543975353240966796875</LatitudeDegrees>
              <LongitudeDegrees>-2.1007102914154529571533203125</LongitudeDegrees>
            </Position>
            <AltitudeMeters>320.399993896484375</AltitudeMeters>
            <DistanceMeters>NAN</DistanceMeters>
          </Trackpoint>
          <Trackpoint>
            <Time>2022-07-10T07:45:47.000Z</Time>
            <Position>
              <LatitudeDegrees>43.29207851551473140716552734375</LatitudeDegrees>
              <LongitudeDegrees>-2.1007743291556835174560546875</LongitudeDegrees>
            </Position>
            <AltitudeMeters>319.79998779296875</AltitudeMeters>
            <DistanceMeters>NAN</DistanceMeters>
          </Trackpoint>
          <Trackpoint>
            <Time>2022-07-10T07:45:49.000Z</Time>
            <Position>
              <LatitudeDegrees>43.29204482026398181915283203125</LatitudeDegrees>
              <LongitudeDegrees>-2.10090651176869869232177734375</LongitudeDegrees>
            </Position>
            <AltitudeMeters>318.600006103515625</AltitudeMeters>
            <DistanceMeters>NAN</DistanceMeters>
          </Trackpoint>
          <Trackpoint>
            <Time>2022-07-10T07:45:52.000Z</Time>
            <Position>
              <LatitudeDegrees>43.29196435399353504180908203125</LatitudeDegrees>
              <LongitudeDegrees>-2.1010982058942317962646484375</LongitudeDegrees>
            </Position>
            <AltitudeMeters>317.399993896484375</AltitudeMeters>
            <DistanceMeters>NAN</DistanceMeters>
          </Trackpoint>
          <Trackpoint>
            <Time>2022-07-10T07:45:54.000Z</Time>
            <Position>
              <LatitudeDegrees>43.291885145008563995361328125</LatitudeDegrees>
              <LongitudeDegrees>-2.101186551153659820556640625</LongitudeDegrees>
            </Position>
            <AltitudeMeters>316.79998779296875</AltitudeMeters>
            <DistanceMeters>NAN</DistanceMeters>
          </Trackpoint>
          <Trackpoint>
            <Time>2022-07-10T07:45:56.000Z</Time>
            <Position>
              <LatitudeDegrees>43.291791938245296478271484375</LatitudeDegrees>
              <LongitudeDegrees>-2.10125260055065155029296875</LongitudeDegrees>
            </Position>
            <AltitudeMeters>316.20001220703125</AltitudeMeters>
            <DistanceMeters>NAN</DistanceMeters>
          </Trackpoint>
          <Trackpoint>
            <Time>2022-07-10T07:45:57.000Z</Time>
            <Position>
              <LatitudeDegrees>43.29174458049237728118896484375</LatitudeDegrees>
              <LongitudeDegrees>-2.1012809313833713531494140625</LongitudeDegrees>
            </Position>
            <AltitudeMeters>315.79998779296875</AltitudeMeters>
            <DistanceMeters>NAN</DistanceMeters>
          </Trackpoint>
          <Trackpoint>
            <Time>2022-07-10T07:46:00.000Z</Time>
            <Position>
              <LatitudeDegrees>43.29157845117151737213134765625</LatitudeDegrees>
              <LongitudeDegrees>-2.10137539543211460113525390625</LongitudeDegrees>
            </Position>
            <AltitudeMeters>315.20001220703125</AltitudeMeters>
            <DistanceMeters>NAN</DistanceMeters>
          </Trackpoint>
          <Trackpoint>
            <Time>2022-07-10T07:46:01.000Z</Time>
            <Position>
              <LatitudeDegrees>43.291517682373523712158203125</LatitudeDegrees>
              <LongitudeDegrees>-2.1014110185205936431884765625</LongitudeDegrees>
            </Position>
            <AltitudeMeters>314.79998779296875</AltitudeMeters>
            <DistanceMeters>NAN</DistanceMeters>
          </Trackpoint>
          <Trackpoint>
            <Time>2022-07-10T07:46:04.000Z</Time>
            <Position>
              <LatitudeDegrees>43.29134476371109485626220703125</LatitudeDegrees>
              <LongitudeDegrees>-2.1015377528965473175048828125</LongitudeDegrees>
            </Position>
            <AltitudeMeters>314</AltitudeMeters>
            <DistanceMeters>NAN</DistanceMeters>
          </Trackpoint>
          <Trackpoint>
            <Time>2022-07-10T07:46:05.000Z</Time>
            <Position>
              <LatitudeDegrees>43.29129380173981189727783203125</LatitudeDegrees>
              <LongitudeDegrees>-2.10159634239971637725830078125</LongitudeDegrees>
            </Position>
            <AltitudeMeters>313.79998779296875</AltitudeMeters>
            <DistanceMeters>NAN</DistanceMeters>
          </Trackpoint>
          <Trackpoint>
            <Time>2022-07-10T07:46:06.000Z</Time>
            <Position>
              <LatitudeDegrees>43.29125239513814449310302734375</LatitudeDegrees>
              <LongitudeDegrees>-2.10166222415864467620849609375</LongitudeDegrees>
            </Position>
            <AltitudeMeters>313.600006103515625</AltitudeMeters>
            <DistanceMeters>NAN</DistanceMeters>
          </Trackpoint>
          <Trackpoint>
            <Time>2022-07-10T07:46:12.000Z</Time>
            <Position>
              <LatitudeDegrees>43.291049636900424957275390625</LatitudeDegrees>
              <LongitudeDegrees>-2.10208148695528507232666015625</LongitudeDegrees>
            </Position>
            <AltitudeMeters>313.399993896484375</AltitudeMeters>
            <DistanceMeters>NAN</DistanceMeters>
          </Trackpoint>
          <Trackpoint>
            <Time>2022-07-10T07:46:18.000Z</Time>
            <Position>
              <LatitudeDegrees>43.2909150235354900360107421875</LatitudeDegrees>
              <LongitudeDegrees>-2.1024832315742969512939453125</LongitudeDegrees>
            </Position>
            <AltitudeMeters>313.20001220703125</AltitudeMeters>
            <DistanceMeters>NAN</DistanceMeters>
          </Trackpoint>
          <Trackpoint>
            <Time>2022-07-10T07:46:24.000Z</Time>
            <Position>
              <LatitudeDegrees>43.29079759307205677032470703125</LatitudeDegrees>
              <LongitudeDegrees>-2.1028409712016582489013671875</LongitudeDegrees>
            </Position>
            <AltitudeMeters>313.20001220703125</AltitudeMeters>
            <DistanceMeters>NAN</DistanceMeters>
          </Trackpoint>
          <Trackpoint>
            <Time>2022-07-10T07:46:25.000Z</Time>
            <Position>
              <LatitudeDegrees>43.2907755486667156219482421875</LatitudeDegrees>
              <LongitudeDegrees>-2.10289855487644672393798828125</LongitudeDegrees>
            </Position>
            <AltitudeMeters>313.20001220703125</AltitudeMeters>
            <DistanceMeters>NAN</DistanceMeters>
          </Trackpoint>
          <Trackpoint>
            <Time>2022-07-10T07:46:28.000Z</Time>
            <Position>
              <LatitudeDegrees>43.29072500579059123992919921875</LatitudeDegrees>
              <LongitudeDegrees>-2.10306845605373382568359375</LongitudeDegrees>
            </Position>
            <AltitudeMeters>313.20001220703125</AltitudeMeters>
            <DistanceMeters>NAN</DistanceMeters>
          </Trackpoint>
          <Trackpoint>
            <Time>2022-07-10T07:46:31.000Z</Time>
            <Position>
              <LatitudeDegrees>43.29069592058658599853515625</LatitudeDegrees>
              <LongitudeDegrees>-2.10323416627943515777587890625</LongitudeDegrees>
            </Position>
            <AltitudeMeters>313</AltitudeMeters>
            <DistanceMeters>NAN</DistanceMeters>
          </Trackpoint>
          <Trackpoint>
            <Time>2022-07-10T07:46:33.000Z</Time>
            <Position>
              <LatitudeDegrees>43.29066817648708820343017578125</LatitudeDegrees>
              <LongitudeDegrees>-2.10334698669612407684326171875</LongitudeDegrees>
            </Position>
            <AltitudeMeters>312.79998779296875</AltitudeMeters>
            <DistanceMeters>NAN</DistanceMeters>
          </Trackpoint>
          <Trackpoint>
            <Time>2022-07-10T07:46:34.000Z</Time>
            <Position>
              <LatitudeDegrees>43.2906491495668888092041015625</LatitudeDegrees>
              <LongitudeDegrees>-2.10341387428343296051025390625</LongitudeDegrees>
            </Position>
            <AltitudeMeters>312.79998779296875</AltitudeMeters>
            <DistanceMeters>NAN</DistanceMeters>
          </Trackpoint>
          <Trackpoint>
            <Time>2022-07-10T07:46:36.000Z</Time>
            <Position>
              <LatitudeDegrees>43.2906246744096279144287109375</LatitudeDegrees>
              <LongitudeDegrees>-2.10355720482766628265380859375</LongitudeDegrees>
            </Position>
            <AltitudeMeters>312.600006103515625</AltitudeMeters>
            <DistanceMeters>NAN</DistanceMeters>
          </Trackpoint>
          <Trackpoint>
            <Time>2022-07-10T07:46:41.000Z</Time>
            <Position>
              <LatitudeDegrees>43.29049383290112018585205078125</LatitudeDegrees>
              <LongitudeDegrees>-2.1039034612476825714111328125</LongitudeDegrees>
            </Position>
            <AltitudeMeters>311.600006103515625</AltitudeMeters>
            <DistanceMeters>NAN</DistanceMeters>
          </Trackpoint>
          <Trackpoint>
            <Time>2022-07-10T07:46:42.000Z</Time>
            <Position>
              <LatitudeDegrees>43.2904640771448612213134765625</LatitudeDegrees>
              <LongitudeDegrees>-2.103965990245342254638671875</LongitudeDegrees>
            </Position>
            <AltitudeMeters>311.600006103515625</AltitudeMeters>
            <DistanceMeters>NAN</DistanceMeters>
          </Trackpoint>
          <Trackpoint>
            <Time>2022-07-10T07:46:49.000Z</Time>
            <Position>
              <LatitudeDegrees>43.29021454788744449615478515625</LatitudeDegrees>
              <LongitudeDegrees>-2.10433571599423885345458984375</LongitudeDegrees>
            </Position>
            <AltitudeMeters>311.399993896484375</AltitudeMeters>
            <DistanceMeters>NAN</DistanceMeters>
          </Trackpoint>
          <Trackpoint>
            <Time>2022-07-10T07:46:51.000Z</Time>
            <Position>
              <LatitudeDegrees>43.2901546172797679901123046875</LatitudeDegrees>
              <LongitudeDegrees>-2.10443646647036075592041015625</LongitudeDegrees>
            </Position>
            <AltitudeMeters>311</AltitudeMeters>
            <DistanceMeters>NAN</DistanceMeters>
          </Trackpoint>
          <Trackpoint>
            <Time>2022-07-10T07:46:54.000Z</Time>
            <Position>
              <LatitudeDegrees>43.2900635898113250732421875</LatitudeDegrees>
              <LongitudeDegrees>-2.1045820601284503936767578125</LongitudeDegrees>
            </Position>
            <AltitudeMeters>310.600006103515625</AltitudeMeters>
            <DistanceMeters>NAN</DistanceMeters>
          </Trackpoint>
          <Trackpoint>
            <Time>2022-07-10T07:46:55.000Z</Time>
            <Position>
              <LatitudeDegrees>43.2900355942547321319580078125</LatitudeDegrees>
              <LongitudeDegrees>-2.1046370454132556915283203125</LongitudeDegrees>
            </Position>
            <AltitudeMeters>310.20001220703125</AltitudeMeters>
            <DistanceMeters>NAN</DistanceMeters>
          </Trackpoint>
          <Trackpoint>
            <Time>2022-07-10T07:46:57.000Z</Time>
            <Position>
              <LatitudeDegrees>43.2899889908730983734130859375</LatitudeDegrees>
              <LongitudeDegrees>-2.104755230247974395751953125</LongitudeDegrees>
            </Position>
            <AltitudeMeters>309.399993896484375</AltitudeMeters>
            <DistanceMeters>NAN</DistanceMeters>
          </Trackpoint>
          <Trackpoint>
            <Time>2022-07-10T07:46:59.000Z</Time>
            <Position>
              <LatitudeDegrees>43.28995286487042903900146484375</LatitudeDegrees>
              <LongitudeDegrees>-2.10486947558820247650146484375</LongitudeDegrees>
            </Position>
            <AltitudeMeters>307.79998779296875</AltitudeMeters>
            <DistanceMeters>NAN</DistanceMeters>
          </Trackpoint>
          <Trackpoint>
            <Time>2022-07-10T07:47:00.000Z</Time>
            <Position>
              <LatitudeDegrees>43.2899323292076587677001953125</LatitudeDegrees>
              <LongitudeDegrees>-2.10491381585597991943359375</LongitudeDegrees>
            </Position>
            <AltitudeMeters>307</AltitudeMeters>
            <DistanceMeters>NAN</DistanceMeters>
          </Trackpoint>
          <Trackpoint>
            <Time>2022-07-10T07:47:01.000Z</Time>
            <Position>
              <LatitudeDegrees>43.289909027516841888427734375</LatitudeDegrees>
              <LongitudeDegrees>-2.10494524799287319183349609375</LongitudeDegrees>
            </Position>
            <AltitudeMeters>306.399993896484375</AltitudeMeters>
            <DistanceMeters>NAN</DistanceMeters>
          </Trackpoint>
          <Trackpoint>
            <Time>2022-07-10T07:47:02.000Z</Time>
            <Position>
              <LatitudeDegrees>43.28988178633153438568115234375</LatitudeDegrees>
              <LongitudeDegrees>-2.104959078133106231689453125</LongitudeDegrees>
            </Position>
            <AltitudeMeters>305.79998779296875</AltitudeMeters>
            <DistanceMeters>NAN</DistanceMeters>
          </Trackpoint>
          <Trackpoint>
            <Time>2022-07-10T07:47:03.000Z</Time>
            <Position>
              <LatitudeDegrees>43.28985177911818027496337890625</LatitudeDegrees>
              <LongitudeDegrees>-2.10496167652308940887451171875</LongitudeDegrees>
            </Position>
            <AltitudeMeters>305.20001220703125</AltitudeMeters>
            <DistanceMeters>NAN</DistanceMeters>
          </Trackpoint>
          <Trackpoint>
            <Time>2022-07-10T07:47:04.000Z</Time>
            <Position>
              <LatitudeDegrees>43.28982797451317310333251953125</LatitudeDegrees>
              <LongitudeDegrees>-2.10495782084763050079345703125</LongitudeDegrees>
            </Position>
            <AltitudeMeters>304.79998779296875</AltitudeMeters>
            <DistanceMeters>NAN</DistanceMeters>
          </Trackpoint>
          <Trackpoint>
            <Time>2022-07-10T07:47:06.000Z</Time>
            <Position>
              <LatitudeDegrees>43.28979461453855037689208984375</LatitudeDegrees>
              <LongitudeDegrees>-2.104953713715076446533203125</LongitudeDegrees>
            </Position>
            <AltitudeMeters>304</AltitudeMeters>
            <DistanceMeters>NAN</DistanceMeters>
          </Trackpoint>
          <Trackpoint>
            <Time>2022-07-10T07:47:09.000Z</Time>
            <Position>
              <LatitudeDegrees>43.28976611606776714324951171875</LatitudeDegrees>
              <LongitudeDegrees>-2.1049694716930389404296875</LongitudeDegrees>
            </Position>
            <AltitudeMeters>303.600006103515625</AltitudeMeters>
            <DistanceMeters>NAN</DistanceMeters>
          </Trackpoint>
          <Trackpoint>
            <Time>2022-07-10T07:47:13.000Z</Time>
            <Position>
              <LatitudeDegrees>43.28975538723170757293701171875</LatitudeDegrees>
              <LongitudeDegrees>-2.1049770154058933258056640625</LongitudeDegrees>
            </Position>
            <AltitudeMeters>303.399993896484375</AltitudeMeters>
            <DistanceMeters>NAN</DistanceMeters>
          </Trackpoint>
          <Trackpoint>
            <Time>2022-07-10T07:47:14.000Z</Time>
            <Position>
              <LatitudeDegrees>43.28975538723170757293701171875</LatitudeDegrees>
              <LongitudeDegrees>-2.1049770154058933258056640625</LongitudeDegrees>
            </Position>
            <AltitudeMeters>303.399993896484375</AltitudeMeters>
            <DistanceMeters>NAN</DistanceMeters>
          </Trackpoint>
          <Trackpoint>
            <Time>2022-07-10T07:48:35.000Z</Time>
            <Position>
              <LatitudeDegrees>43.289761506021022796630859375</LatitudeDegrees>
              <LongitudeDegrees>-2.1048529632389545440673828125</LongitudeDegrees>
            </Position>
            <AltitudeMeters>302.20001220703125</AltitudeMeters>
            <DistanceMeters>NAN</DistanceMeters>
          </Trackpoint>
          <Trackpoint>
            <Time>2022-07-10T07:48:38.000Z</Time>
            <Position>
              <LatitudeDegrees>43.2897549681365489959716796875</LatitudeDegrees>
              <LongitudeDegrees>-2.10467535071074962615966796875</LongitudeDegrees>
            </Position>
            <AltitudeMeters>301.20001220703125</AltitudeMeters>
            <DistanceMeters>NAN</DistanceMeters>
          </Trackpoint>
          <Trackpoint>
            <Time>2022-07-10T07:48:39.000Z</Time>
            <Position>
              <LatitudeDegrees>43.289758823812007904052734375</LatitudeDegrees>
              <LongitudeDegrees>-2.104603350162506103515625</LongitudeDegrees>
            </Position>
            <AltitudeMeters>300.399993896484375</AltitudeMeters>
            <DistanceMeters>NAN</DistanceMeters>
          </Trackpoint>
          <Trackpoint>
            <Time>2022-07-10T07:48:40.000Z</Time>
            <Position>
              <LatitudeDegrees>43.28976930119097232818603515625</LatitudeDegrees>
              <LongitudeDegrees>-2.1045253984630107879638671875</LongitudeDegrees>
            </Position>
            <AltitudeMeters>299.600006103515625</AltitudeMeters>
            <DistanceMeters>NAN</DistanceMeters>
          </Trackpoint>
          <Trackpoint>
            <Time>2022-07-10T07:48:42.000Z</Time>
            <Position>
              <LatitudeDegrees>43.28983903862535953521728515625</LatitudeDegrees>
              <LongitudeDegrees>-2.10430604405701160430908203125</LongitudeDegrees>
            </Position>
            <AltitudeMeters>298.600006103515625</AltitudeMeters>
            <DistanceMeters>NAN</DistanceMeters>
          </Trackpoint>
          <Trackpoint>
            <Time>2022-07-10T07:48:43.000Z</Time>
            <Position>
              <LatitudeDegrees>43.28983903862535953521728515625</LatitudeDegrees>
              <LongitudeDegrees>-2.10430604405701160430908203125</LongitudeDegrees>
            </Position>
            <AltitudeMeters>298</AltitudeMeters>
            <DistanceMeters>NAN</DistanceMeters>
          </Trackpoint>
          <Trackpoint>
            <Time>2022-07-10T07:48:44.000Z</Time>
            <Position>
              <LatitudeDegrees>43.28987742774188518524169921875</LatitudeDegrees>
              <LongitudeDegrees>-2.10423932410776615142822265625</LongitudeDegrees>
            </Position>
            <AltitudeMeters>297.20001220703125</AltitudeMeters>
            <DistanceMeters>NAN</DistanceMeters>
          </Trackpoint>
          <Trackpoint>
            <Time>2022-07-10T07:48:46.000Z</Time>
            <Position>
              <LatitudeDegrees>43.2899536192417144775390625</LatitudeDegrees>
              <LongitudeDegrees>-2.10412851534783840179443359375</LongitudeDegrees>
            </Position>
            <AltitudeMeters>296</AltitudeMeters>
            <DistanceMeters>NAN</DistanceMeters>
          </Trackpoint>
          <Trackpoint>
            <Time>2022-07-10T07:48:47.000Z</Time>
            <Position>
              <LatitudeDegrees>43.28999343328177928924560546875</LatitudeDegrees>
              <LongitudeDegrees>-2.10408291779458522796630859375</LongitudeDegrees>
            </Position>
            <AltitudeMeters>295.79998779296875</AltitudeMeters>
            <DistanceMeters>NAN</DistanceMeters>
          </Trackpoint>
          <Trackpoint>
            <Time>2022-07-10T07:48:49.000Z</Time>
            <Position>
              <LatitudeDegrees>43.29007356427609920501708984375</LatitudeDegrees>
              <LongitudeDegrees>-2.10398484952747821807861328125</LongitudeDegrees>
            </Position>
            <AltitudeMeters>295</AltitudeMeters>
            <DistanceMeters>NAN</DistanceMeters>
          </Trackpoint>
          <Trackpoint>
            <Time>2022-07-10T07:48:50.000Z</Time>
            <Position>
              <LatitudeDegrees>43.2901103608310222625732421875</LatitudeDegrees>
              <LongitudeDegrees>-2.1039316244423389434814453125</LongitudeDegrees>
            </Position>
            <AltitudeMeters>294.399993896484375</AltitudeMeters>
            <DistanceMeters>NAN</DistanceMeters>
          </Trackpoint>
          <Trackpoint>
            <Time>2022-07-10T07:48:51.000Z</Time>
            <Position>
              <LatitudeDegrees>43.2901448942720890045166015625</LatitudeDegrees>
              <LongitudeDegrees>-2.10388007573783397674560546875</LongitudeDegrees>
            </Position>
            <AltitudeMeters>294</AltitudeMeters>
            <DistanceMeters>NAN</DistanceMeters>
          </Trackpoint>
          <Trackpoint>
            <Time>2022-07-10T07:48:52.000Z</Time>
            <Position>
              <LatitudeDegrees>43.29017498530447483062744140625</LatitudeDegrees>
              <LongitudeDegrees>-2.10382911376655101776123046875</LongitudeDegrees>
            </Position>
            <AltitudeMeters>293.600006103515625</AltitudeMeters>
            <DistanceMeters>NAN</DistanceMeters>
          </Trackpoint>
          <Trackpoint>
            <Time>2022-07-10T07:48:54.000Z</Time>
            <Position>
              <LatitudeDegrees>43.29022921621799468994140625</LatitudeDegrees>
              <LongitudeDegrees>-2.103707157075405120849609375</LongitudeDegrees>
            </Position>
            <AltitudeMeters>292.79998779296875</AltitudeMeters>
            <DistanceMeters>NAN</DistanceMeters>
          </Trackpoint>
          <Trackpoint>
            <Time>2022-07-10T07:48:56.000Z</Time>
            <Position>
              <LatitudeDegrees>43.29027188010513782501220703125</LatitudeDegrees>
              <LongitudeDegrees>-2.10353608243167400360107421875</LongitudeDegrees>
            </Position>
            <AltitudeMeters>292</AltitudeMeters>
            <DistanceMeters>NAN</DistanceMeters>
          </Trackpoint>
          <Trackpoint>
            <Time>2022-07-10T07:48:57.000Z</Time>
            <Position>
              <LatitudeDegrees>43.2902793399989604949951171875</LatitudeDegrees>
              <LongitudeDegrees>-2.10344522260129451751708984375</LongitudeDegrees>
            </Position>
            <AltitudeMeters>291.399993896484375</AltitudeMeters>
            <DistanceMeters>NAN</DistanceMeters>
          </Trackpoint>
          <Trackpoint>
            <Time>2022-07-10T07:48:58.000Z</Time>
            <Position>
              <LatitudeDegrees>43.2902773283421993255615234375</LatitudeDegrees>
              <LongitudeDegrees>-2.1033519320189952850341796875</LongitudeDegrees>
            </Position>
            <AltitudeMeters>291.20001220703125</AltitudeMeters>
            <DistanceMeters>NAN</DistanceMeters>
          </Trackpoint>
          <Trackpoint>
            <Time>2022-07-10T07:49:00.000Z</Time>
            <Position>
              <LatitudeDegrees>43.29027774743735790252685546875</LatitudeDegrees>
              <LongitudeDegrees>-2.103158645331859588623046875</LongitudeDegrees>
            </Position>
            <AltitudeMeters>290.600006103515625</AltitudeMeters>
            <DistanceMeters>NAN</DistanceMeters>
          </Trackpoint>
          <Trackpoint>
            <Time>2022-07-10T07:49:01.000Z</Time>
            <Position>
              <LatitudeDegrees>43.29029266722500324249267578125</LatitudeDegrees>
              <LongitudeDegrees>-2.1030555479228496551513671875</LongitudeDegrees>
            </Position>
            <AltitudeMeters>290.399993896484375</AltitudeMeters>
            <DistanceMeters>NAN</DistanceMeters>
          </Trackpoint>
          <Trackpoint>
            <Time>2022-07-10T07:49:04.000Z</Time>
            <Position>
              <LatitudeDegrees>43.29037246294319629669189453125</LatitudeDegrees>
              <LongitudeDegrees>-2.10276377387344837188720703125</LongitudeDegrees>
            </Position>
            <AltitudeMeters>289</AltitudeMeters>
            <DistanceMeters>NAN</DistanceMeters>
          </Trackpoint>
          <Trackpoint>
            <Time>2022-07-10T07:49:07.000Z</Time>
            <Position>
              <LatitudeDegrees>43.29045997001230716705322265625</LatitudeDegrees>
              <LongitudeDegrees>-2.10245934315025806427001953125</LongitudeDegrees>
            </Position>
            <AltitudeMeters>287.79998779296875</AltitudeMeters>
            <DistanceMeters>NAN</DistanceMeters>
          </Trackpoint>
          <Trackpoint>
            <Time>2022-07-10T07:49:09.000Z</Time>
            <Position>
              <LatitudeDegrees>43.29049416817724704742431640625</LatitudeDegrees>
              <LongitudeDegrees>-2.102258764207363128662109375</LongitudeDegrees>
            </Position>
            <AltitudeMeters>287.399993896484375</AltitudeMeters>
            <DistanceMeters>NAN</DistanceMeters>
          </Trackpoint>
          <Trackpoint>
            <Time>2022-07-10T07:49:10.000Z</Time>
            <Position>
              <LatitudeDegrees>43.29050657339394092559814453125</LatitudeDegrees>
              <LongitudeDegrees>-2.1021466143429279327392578125</LongitudeDegrees>
            </Position>
            <AltitudeMeters>286.399993896484375</AltitudeMeters>
            <DistanceMeters>NAN</DistanceMeters>
          </Trackpoint>
          <Trackpoint>
            <Time>2022-07-10T07:49:11.000Z</Time>
            <Position>
              <LatitudeDegrees>43.29052031971514225006103515625</LatitudeDegrees>
              <LongitudeDegrees>-2.1020420081913471221923828125</LongitudeDegrees>
            </Position>
            <AltitudeMeters>285.79998779296875</AltitudeMeters>
            <DistanceMeters>NAN</DistanceMeters>
          </Trackpoint>
          <Trackpoint>
            <Time>2022-07-10T07:49:12.000Z</Time>
            <Position>
              <LatitudeDegrees>43.29054529778659343719482421875</LatitudeDegrees>
              <LongitudeDegrees>-2.10192910395562648773193359375</LongitudeDegrees>
            </Position>
            <AltitudeMeters>285.399993896484375</AltitudeMeters>
            <DistanceMeters>NAN</DistanceMeters>
          </Trackpoint>
          <Trackpoint>
            <Time>2022-07-10T07:49:14.000Z</Time>
            <Position>
              <LatitudeDegrees>43.29061545431613922119140625</LatitudeDegrees>
              <LongitudeDegrees>-2.10171720944344997406005859375</LongitudeDegrees>
            </Position>
            <AltitudeMeters>284.20001220703125</AltitudeMeters>
            <DistanceMeters>NAN</DistanceMeters>
          </Trackpoint>
          <Trackpoint>
            <Time>2022-07-10T07:49:17.000Z</Time>
            <Position>
              <LatitudeDegrees>43.29072148539125919342041015625</LatitudeDegrees>
              <LongitudeDegrees>-2.1014126949012279510498046875</LongitudeDegrees>
            </Position>
            <AltitudeMeters>282.600006103515625</AltitudeMeters>
            <DistanceMeters>NAN</DistanceMeters>
          </Trackpoint>
          <Trackpoint>
            <Time>2022-07-10T07:49:18.000Z</Time>
            <Position>
              <LatitudeDegrees>43.2907467149198055267333984375</LatitudeDegrees>
              <LongitudeDegrees>-2.1013221703469753265380859375</LongitudeDegrees>
            </Position>
            <AltitudeMeters>282</AltitudeMeters>
            <DistanceMeters>NAN</DistanceMeters>
          </Trackpoint>
          <Trackpoint>
            <Time>2022-07-10T07:49:19.000Z</Time>
            <Position>
              <LatitudeDegrees>43.290746547281742095947265625</LatitudeDegrees>
              <LongitudeDegrees>-2.10122217424213886260986328125</LongitudeDegrees>
            </Position>
            <AltitudeMeters>281</AltitudeMeters>
            <DistanceMeters>NAN</DistanceMeters>
          </Trackpoint>
          <Trackpoint>
            <Time>2022-07-10T07:49:20.000Z</Time>
            <Position>
              <LatitudeDegrees>43.2907333038747310638427734375</LatitudeDegrees>
              <LongitudeDegrees>-2.101134248077869415283203125</LongitudeDegrees>
            </Position>
            <AltitudeMeters>279.79998779296875</AltitudeMeters>
            <DistanceMeters>NAN</DistanceMeters>
          </Trackpoint>
          <Trackpoint>
            <Time>2022-07-10T07:49:21.000Z</Time>
            <Position>
              <LatitudeDegrees>43.29070270992815494537353515625</LatitudeDegrees>
              <LongitudeDegrees>-2.10106124170124530792236328125</LongitudeDegrees>
            </Position>
            <AltitudeMeters>278.79998779296875</AltitudeMeters>
            <DistanceMeters>NAN</DistanceMeters>
          </Trackpoint>
          <Trackpoint>
            <Time>2022-07-10T07:49:22.000Z</Time>
            <Position>
              <LatitudeDegrees>43.29066784121096134185791015625</LatitudeDegrees>
              <LongitudeDegrees>-2.100992091000080108642578125</LongitudeDegrees>
            </Position>
            <AltitudeMeters>278.20001220703125</AltitudeMeters>
            <DistanceMeters>NAN</DistanceMeters>
          </Trackpoint>
          <Trackpoint>
            <Time>2022-07-10T07:49:23.000Z</Time>
            <Position>
              <LatitudeDegrees>43.29062107019126415252685546875</LatitudeDegrees>
              <LongitudeDegrees>-2.100933082401752471923828125</LongitudeDegrees>
            </Position>
            <AltitudeMeters>277.600006103515625</AltitudeMeters>
            <DistanceMeters>NAN</DistanceMeters>
          </Trackpoint>
          <Trackpoint>
            <Time>2022-07-10T07:49:24.000Z</Time>
            <Position>
              <LatitudeDegrees>43.290564827620983123779296875</LatitudeDegrees>
              <LongitudeDegrees>-2.10088253952562808990478515625</LongitudeDegrees>
            </Position>
            <AltitudeMeters>277.399993896484375</AltitudeMeters>
            <DistanceMeters>NAN</DistanceMeters>
          </Trackpoint>
          <Trackpoint>
            <Time>2022-07-10T07:49:25.000Z</Time>
            <Position>
              <LatitudeDegrees>43.2905066572129726409912109375</LatitudeDegrees>
              <LongitudeDegrees>-2.1008333377540111541748046875</LongitudeDegrees>
            </Position>
            <AltitudeMeters>277.20001220703125</AltitudeMeters>
            <DistanceMeters>NAN</DistanceMeters>
          </Trackpoint>
          <Trackpoint>
            <Time>2022-07-10T07:49:26.000Z</Time>
            <Position>
              <LatitudeDegrees>43.29045644961297512054443359375</LatitudeDegrees>
              <LongitudeDegrees>-2.1007749997079372406005859375</LongitudeDegrees>
            </Position>
            <AltitudeMeters>277</AltitudeMeters>
            <DistanceMeters>NAN</DistanceMeters>
          </Trackpoint>
          <Trackpoint>
            <Time>2022-07-10T07:49:28.000Z</Time>
            <Position>
              <LatitudeDegrees>43.2903747260570526123046875</LatitudeDegrees>
              <LongitudeDegrees>-2.100644409656524658203125</LongitudeDegrees>
            </Position>
            <AltitudeMeters>276.20001220703125</AltitudeMeters>
            <DistanceMeters>NAN</DistanceMeters>
          </Trackpoint>
          <Trackpoint>
            <Time>2022-07-10T07:49:29.000Z</Time>
            <Position>
              <LatitudeDegrees>43.29031965695321559906005859375</LatitudeDegrees>
              <LongitudeDegrees>-2.1005518734455108642578125</LongitudeDegrees>
            </Position>
            <AltitudeMeters>276</AltitudeMeters>
            <DistanceMeters>NAN</DistanceMeters>
          </Trackpoint>
          <Trackpoint>
            <Time>2022-07-10T07:49:30.000Z</Time>
            <Position>
              <LatitudeDegrees>43.290263749659061431884765625</LatitudeDegrees>
              <LongitudeDegrees>-2.10048289038240909576416015625</LongitudeDegrees>
            </Position>
            <AltitudeMeters>275.399993896484375</AltitudeMeters>
            <DistanceMeters>NAN</DistanceMeters>
          </Trackpoint>
          <Trackpoint>
            <Time>2022-07-10T07:49:31.000Z</Time>
            <Position>
              <LatitudeDegrees>43.29019828699529170989990234375</LatitudeDegrees>
              <LongitudeDegrees>-2.1004284918308258056640625</LongitudeDegrees>
            </Position>
            <AltitudeMeters>274.79998779296875</AltitudeMeters>
            <DistanceMeters>NAN</DistanceMeters>
          </Trackpoint>
          <Trackpoint>
            <Time>2022-07-10T07:49:32.000Z</Time>
            <Position>
              <LatitudeDegrees>43.29012720845639705657958984375</LatitudeDegrees>
              <LongitudeDegrees>-2.1003958024084568023681640625</LongitudeDegrees>
            </Position>
            <AltitudeMeters>274</AltitudeMeters>
            <DistanceMeters>NAN</DistanceMeters>
          </Trackpoint>
          <Trackpoint>
            <Time>2022-07-10T07:49:33.000Z</Time>
            <Position>
              <LatitudeDegrees>43.290053866803646087646484375</LatitudeDegrees>
              <LongitudeDegrees>-2.1003867499530315399169921875</LongitudeDegrees>
            </Position>
            <AltitudeMeters>273.399993896484375</AltitudeMeters>
            <DistanceMeters>NAN</DistanceMeters>
          </Trackpoint>
          <Trackpoint>
            <Time>2022-07-10T07:49:34.000Z</Time>
            <Position>
              <LatitudeDegrees>43.289975412189960479736328125</LatitudeDegrees>
              <LongitudeDegrees>-2.10039823316037654876708984375</LongitudeDegrees>
            </Position>
            <AltitudeMeters>273</AltitudeMeters>
            <DistanceMeters>NAN</DistanceMeters>
          </Trackpoint>
          <Trackpoint>
            <Time>2022-07-10T07:49:35.000Z</Time>
            <Position>
              <LatitudeDegrees>43.28990374691784381866455078125</LatitudeDegrees>
              <LongitudeDegrees>-2.10040627978742122650146484375</LongitudeDegrees>
            </Position>
            <AltitudeMeters>272.399993896484375</AltitudeMeters>
            <DistanceMeters>NAN</DistanceMeters>
          </Trackpoint>
          <Trackpoint>
            <Time>2022-07-10T07:49:36.000Z</Time>
            <Position>
              <LatitudeDegrees>43.2898394577205181121826171875</LatitudeDegrees>
              <LongitudeDegrees>-2.10040141828358173370361328125</LongitudeDegrees>
            </Position>
            <AltitudeMeters>271.79998779296875</AltitudeMeters>
            <DistanceMeters>NAN</DistanceMeters>
          </Trackpoint>
          <Trackpoint>
            <Time>2022-07-10T07:49:37.000Z</Time>
            <Position>
              <LatitudeDegrees>43.2897750847041606903076171875</LatitudeDegrees>
              <LongitudeDegrees>-2.10038197226822376251220703125</LongitudeDegrees>
            </Position>
            <AltitudeMeters>271.399993896484375</AltitudeMeters>
            <DistanceMeters>NAN</DistanceMeters>
          </Trackpoint>
          <Trackpoint>
            <Time>2022-07-10T07:49:38.000Z</Time>
            <Position>
              <LatitudeDegrees>43.2897170819342136383056640625</LatitudeDegrees>
              <LongitudeDegrees>-2.10034693591296672821044921875</LongitudeDegrees>
            </Position>
            <AltitudeMeters>271</AltitudeMeters>
            <DistanceMeters>NAN</DistanceMeters>
          </Trackpoint>
          <Trackpoint>
            <Time>2022-07-10T07:49:41.000Z</Time>
            <Position>
              <LatitudeDegrees>43.28951750881969928741455078125</LatitudeDegrees>
              <LongitudeDegrees>-2.10021383129060268402099609375</LongitudeDegrees>
            </Position>
            <AltitudeMeters>270</AltitudeMeters>
            <DistanceMeters>NAN</DistanceMeters>
          </Trackpoint>
          <Trackpoint>
            <Time>2022-07-10T07:49:44.000Z</Time>
            <Position>
              <LatitudeDegrees>43.28928499482572078704833984375</LatitudeDegrees>
              <LongitudeDegrees>-2.1001017652451992034912109375</LongitudeDegrees>
            </Position>
            <AltitudeMeters>268.600006103515625</AltitudeMeters>
            <DistanceMeters>NAN</DistanceMeters>
          </Trackpoint>
          <Trackpoint>
            <Time>2022-07-10T07:49:46.000Z</Time>
            <Position>
              <LatitudeDegrees>43.2891397364437580108642578125</LatitudeDegrees>
              <LongitudeDegrees>-2.1000286750495433807373046875</LongitudeDegrees>
            </Position>
            <AltitudeMeters>267.20001220703125</AltitudeMeters>
            <DistanceMeters>NAN</DistanceMeters>
          </Trackpoint>
          <Trackpoint>
            <Time>2022-07-10T07:49:47.000Z</Time>
            <Position>
              <LatitudeDegrees>43.2890753634274005889892578125</LatitudeDegrees>
              <LongitudeDegrees>-2.0999912917613983154296875</LongitudeDegrees>
            </Position>
            <AltitudeMeters>266.399993896484375</AltitudeMeters>
            <DistanceMeters>NAN</DistanceMeters>
          </Trackpoint>
          <Trackpoint>
            <Time>2022-07-10T07:49:48.000Z</Time>
            <Position>
              <LatitudeDegrees>43.28902130015194416046142578125</LatitudeDegrees>
              <LongitudeDegrees>-2.0999381504952907562255859375</LongitudeDegrees>
            </Position>
            <AltitudeMeters>265.600006103515625</AltitudeMeters>
            <DistanceMeters>NAN</DistanceMeters>
          </Trackpoint>
          <Trackpoint>
            <Time>2022-07-10T07:49:49.000Z</Time>
            <Position>
              <LatitudeDegrees>43.28897352330386638641357421875</LatitudeDegrees>
              <LongitudeDegrees>-2.09987654350697994232177734375</LongitudeDegrees>
            </Position>
            <AltitudeMeters>264.79998779296875</AltitudeMeters>
            <DistanceMeters>NAN</DistanceMeters>
          </Trackpoint>
          <Trackpoint>
            <Time>2022-07-10T07:49:50.000Z</Time>
            <Position>
              <LatitudeDegrees>43.2889389060437679290771484375</LatitudeDegrees>
              <LongitudeDegrees>-2.0998030342161655426025390625</LongitudeDegrees>
            </Position>
            <AltitudeMeters>264.20001220703125</AltitudeMeters>
            <DistanceMeters>NAN</DistanceMeters>
          </Trackpoint>
          <Trackpoint>
            <Time>2022-07-10T07:49:52.000Z</Time>
            <Position>
              <LatitudeDegrees>43.28886874951422214508056640625</LatitudeDegrees>
              <LongitudeDegrees>-2.0996524952352046966552734375</LongitudeDegrees>
            </Position>
            <AltitudeMeters>263.20001220703125</AltitudeMeters>
            <DistanceMeters>NAN</DistanceMeters>
          </Trackpoint>
          <Trackpoint>
            <Time>2022-07-10T07:49:53.000Z</Time>
            <Position>
              <LatitudeDegrees>43.28883714973926544189453125</LatitudeDegrees>
              <LongitudeDegrees>-2.099564485251903533935546875</LongitudeDegrees>
            </Position>
            <AltitudeMeters>262.399993896484375</AltitudeMeters>
            <DistanceMeters>NAN</DistanceMeters>
          </Trackpoint>
          <Trackpoint>
            <Time>2022-07-10T07:49:54.000Z</Time>
            <Position>
              <LatitudeDegrees>43.28881259076297283172607421875</LatitudeDegrees>
              <LongitudeDegrees>-2.09947136230766773223876953125</LongitudeDegrees>
            </Position>
            <AltitudeMeters>262</AltitudeMeters>
            <DistanceMeters>NAN</DistanceMeters>
          </Trackpoint>
          <Trackpoint>
            <Time>2022-07-10T07:49:55.000Z</Time>
            <Position>
              <LatitudeDegrees>43.28879423439502716064453125</LatitudeDegrees>
              <LongitudeDegrees>-2.09935971535742282867431640625</LongitudeDegrees>
            </Position>
            <AltitudeMeters>261.600006103515625</AltitudeMeters>
            <DistanceMeters>NAN</DistanceMeters>
          </Trackpoint>
          <Trackpoint>
            <Time>2022-07-10T07:49:58.000Z</Time>
            <Position>
              <LatitudeDegrees>43.28875056467950344085693359375</LatitudeDegrees>
              <LongitudeDegrees>-2.09902142174541950225830078125</LongitudeDegrees>
            </Position>
            <AltitudeMeters>260.79998779296875</AltitudeMeters>
            <DistanceMeters>NAN</DistanceMeters>
          </Trackpoint>
          <Trackpoint>
            <Time>2022-07-10T07:49:59.000Z</Time>
            <Position>
              <LatitudeDegrees>43.28874737955629825592041015625</LatitudeDegrees>
              <LongitudeDegrees>-2.09889317862689495086669921875</LongitudeDegrees>
            </Position>
            <AltitudeMeters>260.20001220703125</AltitudeMeters>
            <DistanceMeters>NAN</DistanceMeters>
          </Trackpoint>
          <Trackpoint>
            <Time>2022-07-10T07:50:01.000Z</Time>
            <Position>
              <LatitudeDegrees>43.28875810839235782623291015625</LatitudeDegrees>
              <LongitudeDegrees>-2.09864708594977855682373046875</LongitudeDegrees>
            </Position>
            <AltitudeMeters>259.399993896484375</AltitudeMeters>
            <DistanceMeters>NAN</DistanceMeters>
          </Trackpoint>
          <Trackpoint>
            <Time>2022-07-10T07:50:04.000Z</Time>
            <Position>
              <LatitudeDegrees>43.28878845088183879852294921875</LatitudeDegrees>
              <LongitudeDegrees>-2.09826353006064891815185546875</LongitudeDegrees>
            </Position>
            <AltitudeMeters>257.79998779296875</AltitudeMeters>
            <DistanceMeters>NAN</DistanceMeters>
          </Trackpoint>
          <Trackpoint>
            <Time>2022-07-10T07:50:05.000Z</Time>
            <Position>
              <LatitudeDegrees>43.28879800625145435333251953125</LatitudeDegrees>
              <LongitudeDegrees>-2.09812841378152370452880859375</LongitudeDegrees>
            </Position>
            <AltitudeMeters>257.399993896484375</AltitudeMeters>
            <DistanceMeters>NAN</DistanceMeters>
          </Trackpoint>
          <Trackpoint>
            <Time>2022-07-10T07:50:06.000Z</Time>
            <Position>
              <LatitudeDegrees>43.28880571760237216949462890625</LatitudeDegrees>
              <LongitudeDegrees>-2.09798776544630527496337890625</LongitudeDegrees>
            </Position>
            <AltitudeMeters>256.399993896484375</AltitudeMeters>
            <DistanceMeters>NAN</DistanceMeters>
          </Trackpoint>
          <Trackpoint>
            <Time>2022-07-10T07:50:08.000Z</Time>
            <Position>
              <LatitudeDegrees>43.2888205535709857940673828125</LatitudeDegrees>
              <LongitudeDegrees>-2.09771015681326389312744140625</LongitudeDegrees>
            </Position>
            <AltitudeMeters>255.1999969482421875</AltitudeMeters>
            <DistanceMeters>NAN</DistanceMeters>
          </Trackpoint>
          <Trackpoint>
            <Time>2022-07-10T07:50:10.000Z</Time>
            <Position>
              <LatitudeDegrees>43.28883270733058452606201171875</LatitudeDegrees>
              <LongitudeDegrees>-2.09741544909775257110595703125</LongitudeDegrees>
            </Position>
            <AltitudeMeters>254</AltitudeMeters>
            <DistanceMeters>NAN</DistanceMeters>
          </Trackpoint>
          <Trackpoint>
            <Time>2022-07-10T07:50:11.000Z</Time>
            <Position>
              <LatitudeDegrees>43.28883438371121883392333984375</LatitudeDegrees>
              <LongitudeDegrees>-2.0972686819732189178466796875</LongitudeDegrees>
            </Position>
            <AltitudeMeters>253.1999969482421875</AltitudeMeters>
            <DistanceMeters>NAN</DistanceMeters>
          </Trackpoint>
          <Trackpoint>
            <Time>2022-07-10T07:50:12.000Z</Time>
            <Position>
              <LatitudeDegrees>43.2888405025005340576171875</LatitudeDegrees>
              <LongitudeDegrees>-2.097121663391590118408203125</LongitudeDegrees>
            </Position>
            <AltitudeMeters>252.399993896484375</AltitudeMeters>
            <DistanceMeters>NAN</DistanceMeters>
          </Trackpoint>
          <Trackpoint>
            <Time>2022-07-10T07:50:14.000Z</Time>
            <Position>
              <LatitudeDegrees>43.28884695656597614288330078125</LatitudeDegrees>
              <LongitudeDegrees>-2.0968504250049591064453125</LongitudeDegrees>
            </Position>
            <AltitudeMeters>250.399993896484375</AltitudeMeters>
            <DistanceMeters>NAN</DistanceMeters>
          </Trackpoint>
          <Trackpoint>
            <Time>2022-07-10T07:50:15.000Z</Time>
            <Position>
              <LatitudeDegrees>43.2888621278107166290283203125</LatitudeDegrees>
              <LongitudeDegrees>-2.09672142751514911651611328125</LongitudeDegrees>
            </Position>
            <AltitudeMeters>249.600006103515625</AltitudeMeters>
            <DistanceMeters>NAN</DistanceMeters>
          </Trackpoint>
          <Trackpoint>
            <Time>2022-07-10T07:50:16.000Z</Time>
            <Position>
              <LatitudeDegrees>43.2888855971395969390869140625</LatitudeDegrees>
              <LongitudeDegrees>-2.09660039283335208892822265625</LongitudeDegrees>
            </Position>
            <AltitudeMeters>248.399993896484375</AltitudeMeters>
            <DistanceMeters>NAN</DistanceMeters>
          </Trackpoint>
          <Trackpoint>
            <Time>2022-07-10T07:50:17.000Z</Time>
            <Position>
              <LatitudeDegrees>43.28891853801906108856201171875</LatitudeDegrees>
              <LongitudeDegrees>-2.096494697034358978271484375</LongitudeDegrees>
            </Position>
            <AltitudeMeters>247.1999969482421875</AltitudeMeters>
            <DistanceMeters>NAN</DistanceMeters>
          </Trackpoint>
          <Trackpoint>
            <Time>2022-07-10T07:50:19.000Z</Time>
            <Position>
              <LatitudeDegrees>43.2890173606574535369873046875</LatitudeDegrees>
              <LongitudeDegrees>-2.09629512391984462738037109375</LongitudeDegrees>
            </Position>
            <AltitudeMeters>245.399993896484375</AltitudeMeters>
            <DistanceMeters>NAN</DistanceMeters>
          </Trackpoint>
          <Trackpoint>
            <Time>2022-07-10T07:50:21.000Z</Time>
            <Position>
              <LatitudeDegrees>43.2891528122127056121826171875</LatitudeDegrees>
              <LongitudeDegrees>-2.0961128175258636474609375</LongitudeDegrees>
            </Position>
            <AltitudeMeters>244</AltitudeMeters>
            <DistanceMeters>NAN</DistanceMeters>
          </Trackpoint>
          <Trackpoint>
            <Time>2022-07-10T07:50:23.000Z</Time>
            <Position>
              <LatitudeDegrees>43.28930242918431758880615234375</LatitudeDegrees>
              <LongitudeDegrees>-2.0959357917308807373046875</LongitudeDegrees>
            </Position>
            <AltitudeMeters>242.8000030517578125</AltitudeMeters>
            <DistanceMeters>NAN</DistanceMeters>
          </Trackpoint>
          <Trackpoint>
            <Time>2022-07-10T07:50:24.000Z</Time>
            <Position>
              <LatitudeDegrees>43.2893690653145313262939453125</LatitudeDegrees>
              <LongitudeDegrees>-2.09585021249949932098388671875</LongitudeDegrees>
            </Position>
            <AltitudeMeters>242.399993896484375</AltitudeMeters>
            <DistanceMeters>NAN</DistanceMeters>
          </Trackpoint>
          <Trackpoint>
            <Time>2022-07-10T07:50:25.000Z</Time>
            <Position>
              <LatitudeDegrees>43.28942396678030490875244140625</LatitudeDegrees>
              <LongitudeDegrees>-2.0957575924694538116455078125</LongitudeDegrees>
            </Position>
            <AltitudeMeters>241.600006103515625</AltitudeMeters>
            <DistanceMeters>NAN</DistanceMeters>
          </Trackpoint>
          <Trackpoint>
            <Time>2022-07-10T07:50:26.000Z</Time>
            <Position>
              <LatitudeDegrees>43.28946755267679691314697265625</LatitudeDegrees>
              <LongitudeDegrees>-2.09565474651753902435302734375</LongitudeDegrees>
            </Position>
            <AltitudeMeters>240.8000030517578125</AltitudeMeters>
            <DistanceMeters>NAN</DistanceMeters>
          </Trackpoint>
          <Trackpoint>
            <Time>2022-07-10T07:50:27.000Z</Time>
            <Position>
              <LatitudeDegrees>43.28949286602437496185302734375</LatitudeDegrees>
              <LongitudeDegrees>-2.09554192610085010528564453125</LongitudeDegrees>
            </Position>
            <AltitudeMeters>240.1999969482421875</AltitudeMeters>
            <DistanceMeters>NAN</DistanceMeters>
          </Trackpoint>
          <Trackpoint>
            <Time>2022-07-10T07:50:28.000Z</Time>
            <Position>
              <LatitudeDegrees>43.28949655406177043914794921875</LatitudeDegrees>
              <LongitudeDegrees>-2.0954236574470996856689453125</LongitudeDegrees>
            </Position>
            <AltitudeMeters>239.8000030517578125</AltitudeMeters>
            <DistanceMeters>NAN</DistanceMeters>
          </Trackpoint>
          <Trackpoint>
            <Time>2022-07-10T07:50:29.000Z</Time>
            <Position>
              <LatitudeDegrees>43.28948548994958400726318359375</LatitudeDegrees>
              <LongitudeDegrees>-2.09529541432857513427734375</LongitudeDegrees>
            </Position>
            <AltitudeMeters>239</AltitudeMeters>
            <DistanceMeters>NAN</DistanceMeters>
          </Trackpoint>
          <Trackpoint>
            <Time>2022-07-10T07:50:31.000Z</Time>
            <Position>
              <LatitudeDegrees>43.28943603672087192535400390625</LatitudeDegrees>
              <LongitudeDegrees>-2.09504068829119205474853515625</LongitudeDegrees>
            </Position>
            <AltitudeMeters>237.600006103515625</AltitudeMeters>
            <DistanceMeters>NAN</DistanceMeters>
          </Trackpoint>
          <Trackpoint>
            <Time>2022-07-10T07:50:33.000Z</Time>
            <Position>
              <LatitudeDegrees>43.28940351493656635284423828125</LatitudeDegrees>
              <LongitudeDegrees>-2.094766013324260711669921875</LongitudeDegrees>
            </Position>
            <AltitudeMeters>236</AltitudeMeters>
            <DistanceMeters>NAN</DistanceMeters>
          </Trackpoint>
          <Trackpoint>
            <Time>2022-07-10T07:50:34.000Z</Time>
            <Position>
              <LatitudeDegrees>43.28939236700534820556640625</LatitudeDegrees>
              <LongitudeDegrees>-2.09464187733829021453857421875</LongitudeDegrees>
            </Position>
            <AltitudeMeters>235</AltitudeMeters>
            <DistanceMeters>NAN</DistanceMeters>
          </Trackpoint>
          <Trackpoint>
            <Time>2022-07-10T07:50:35.000Z</Time>
            <Position>
              <LatitudeDegrees>43.2893854938447475433349609375</LatitudeDegrees>
              <LongitudeDegrees>-2.09452821873128414154052734375</LongitudeDegrees>
            </Position>
            <AltitudeMeters>233.600006103515625</AltitudeMeters>
            <DistanceMeters>NAN</DistanceMeters>
          </Trackpoint>
          <Trackpoint>
            <Time>2022-07-10T07:50:36.000Z</Time>
            <Position>
              <LatitudeDegrees>43.28938004560768604278564453125</LatitudeDegrees>
              <LongitudeDegrees>-2.0944332517683506011962890625</LongitudeDegrees>
            </Position>
            <AltitudeMeters>232.399993896484375</AltitudeMeters>
            <DistanceMeters>NAN</DistanceMeters>
          </Trackpoint>
          <Trackpoint>
            <Time>2022-07-10T07:50:37.000Z</Time>
            <Position>
              <LatitudeDegrees>43.2893714122474193572998046875</LatitudeDegrees>
              <LongitudeDegrees>-2.09436275996267795562744140625</LongitudeDegrees>
            </Position>
            <AltitudeMeters>230.8000030517578125</AltitudeMeters>
            <DistanceMeters>NAN</DistanceMeters>
          </Trackpoint>
          <Trackpoint>
            <Time>2022-07-10T07:50:38.000Z</Time>
            <Position>
              <LatitudeDegrees>43.28935674391686916351318359375</LatitudeDegrees>
              <LongitudeDegrees>-2.094314061105251312255859375</LongitudeDegrees>
            </Position>
            <AltitudeMeters>229.600006103515625</AltitudeMeters>
            <DistanceMeters>NAN</DistanceMeters>
          </Trackpoint>
          <Trackpoint>
            <Time>2022-07-10T07:50:39.000Z</Time>
            <Position>
              <LatitudeDegrees>43.2893298380076885223388671875</LatitudeDegrees>
              <LongitudeDegrees>-2.09430324845016002655029296875</LongitudeDegrees>
            </Position>
            <AltitudeMeters>228.8000030517578125</AltitudeMeters>
            <DistanceMeters>NAN</DistanceMeters>
          </Trackpoint>
          <Trackpoint>
            <Time>2022-07-10T07:50:40.000Z</Time>
            <Position>
              <LatitudeDegrees>43.28929538838565349578857421875</LatitudeDegrees>
              <LongitudeDegrees>-2.09433384239673614501953125</LongitudeDegrees>
            </Position>
            <AltitudeMeters>228.1999969482421875</AltitudeMeters>
            <DistanceMeters>NAN</DistanceMeters>
          </Trackpoint>
          <Trackpoint>
            <Time>2022-07-10T07:50:42.000Z</Time>
            <Position>
              <LatitudeDegrees>43.28928641974925994873046875</LatitudeDegrees>
              <LongitudeDegrees>-2.0944718085229396820068359375</LongitudeDegrees>
            </Position>
            <AltitudeMeters>227.600006103515625</AltitudeMeters>
            <DistanceMeters>NAN</DistanceMeters>
          </Trackpoint>
          <Trackpoint>
            <Time>2022-07-10T07:50:44.000Z</Time>
            <Position>
              <LatitudeDegrees>43.28931466676294803619384765625</LatitudeDegrees>
              <LongitudeDegrees>-2.09465210326015949249267578125</LongitudeDegrees>
            </Position>
            <AltitudeMeters>227</AltitudeMeters>
            <DistanceMeters>NAN</DistanceMeters>
          </Trackpoint>
          <Trackpoint>
            <Time>2022-07-10T07:50:47.000Z</Time>
            <Position>
              <LatitudeDegrees>43.28934903256595134735107421875</LatitudeDegrees>
              <LongitudeDegrees>-2.09496558643877506256103515625</LongitudeDegrees>
            </Position>
            <AltitudeMeters>225.8000030517578125</AltitudeMeters>
            <DistanceMeters>NAN</DistanceMeters>
          </Trackpoint>
          <Trackpoint>
            <Time>2022-07-10T07:50:48.000Z</Time>
            <Position>
              <LatitudeDegrees>43.28934886492788791656494140625</LatitudeDegrees>
              <LongitudeDegrees>-2.09506164304912090301513671875</LongitudeDegrees>
            </Position>
            <AltitudeMeters>225.1999969482421875</AltitudeMeters>
            <DistanceMeters>NAN</DistanceMeters>
          </Trackpoint>
          <Trackpoint>
            <Time>2022-07-10T07:50:49.000Z</Time>
            <Position>
              <LatitudeDegrees>43.28933578915894031524658203125</LatitudeDegrees>
              <LongitudeDegrees>-2.0951577834784984588623046875</LongitudeDegrees>
            </Position>
            <AltitudeMeters>224.600006103515625</AltitudeMeters>
            <DistanceMeters>NAN</DistanceMeters>
          </Trackpoint>
          <Trackpoint>
            <Time>2022-07-10T07:50:50.000Z</Time>
            <Position>
              <LatitudeDegrees>43.28931584022939205169677734375</LatitudeDegrees>
              <LongitudeDegrees>-2.09525786340236663818359375</LongitudeDegrees>
            </Position>
            <AltitudeMeters>224</AltitudeMeters>
            <DistanceMeters>NAN</DistanceMeters>
          </Trackpoint>
          <Trackpoint>
            <Time>2022-07-10T07:50:51.000Z</Time>
            <Position>
              <LatitudeDegrees>43.28929337672889232635498046875</LatitudeDegrees>
              <LongitudeDegrees>-2.0953549258410930633544921875</LongitudeDegrees>
            </Position>
            <AltitudeMeters>223.399993896484375</AltitudeMeters>
            <DistanceMeters>NAN</DistanceMeters>
          </Trackpoint>
          <Trackpoint>
            <Time>2022-07-10T07:50:52.000Z</Time>
            <Position>
              <LatitudeDegrees>43.28925691545009613037109375</LatitudeDegrees>
              <LongitudeDegrees>-2.09544360637664794921875</LongitudeDegrees>
            </Position>
            <AltitudeMeters>223</AltitudeMeters>
            <DistanceMeters>NAN</DistanceMeters>
          </Trackpoint>
          <Trackpoint>
            <Time>2022-07-10T07:50:54.000Z</Time>
            <Position>
              <LatitudeDegrees>43.28915507532656192779541015625</LatitudeDegrees>
              <LongitudeDegrees>-2.0955674909055233001708984375</LongitudeDegrees>
            </Position>
            <AltitudeMeters>222</AltitudeMeters>
            <DistanceMeters>NAN</DistanceMeters>
          </Trackpoint>
          <Trackpoint>
            <Time>2022-07-10T07:50:56.000Z</Time>
            <Position>
              <LatitudeDegrees>43.2890119962394237518310546875</LatitudeDegrees>
              <LongitudeDegrees>-2.0956610329449176788330078125</LongitudeDegrees>
            </Position>
            <AltitudeMeters>221.1999969482421875</AltitudeMeters>
            <DistanceMeters>NAN</DistanceMeters>
          </Trackpoint>
          <Trackpoint>
            <Time>2022-07-10T07:50:57.000Z</Time>
            <Position>
              <LatitudeDegrees>43.28894753940403461456298828125</LatitudeDegrees>
              <LongitudeDegrees>-2.0956943929195404052734375</LongitudeDegrees>
            </Position>
            <AltitudeMeters>220.600006103515625</AltitudeMeters>
            <DistanceMeters>NAN</DistanceMeters>
          </Trackpoint>
          <Trackpoint>
            <Time>2022-07-10T07:50:58.000Z</Time>
            <Position>
              <LatitudeDegrees>43.28887604176998138427734375</LatitudeDegrees>
              <LongitudeDegrees>-2.09573940373957157135009765625</LongitudeDegrees>
            </Position>
            <AltitudeMeters>220.399993896484375</AltitudeMeters>
            <DistanceMeters>NAN</DistanceMeters>
          </Trackpoint>
          <Trackpoint>
            <Time>2022-07-10T07:51:01.000Z</Time>
            <Position>
              <LatitudeDegrees>43.28864847309887409210205078125</LatitudeDegrees>
              <LongitudeDegrees>-2.0958459377288818359375</LongitudeDegrees>
            </Position>
            <AltitudeMeters>219.399993896484375</AltitudeMeters>
            <DistanceMeters>NAN</DistanceMeters>
          </Trackpoint>
          <Trackpoint>
            <Time>2022-07-10T07:51:03.000Z</Time>
            <Position>
              <LatitudeDegrees>43.28851251862943172454833984375</LatitudeDegrees>
              <LongitudeDegrees>-2.09592045284807682037353515625</LongitudeDegrees>
            </Position>
            <AltitudeMeters>218.1999969482421875</AltitudeMeters>
            <DistanceMeters>NAN</DistanceMeters>
          </Trackpoint>
          <Trackpoint>
            <Time>2022-07-10T07:51:04.000Z</Time>
            <Position>
              <LatitudeDegrees>43.2884457148611545562744140625</LatitudeDegrees>
              <LongitudeDegrees>-2.0959637872874736785888671875</LongitudeDegrees>
            </Position>
            <AltitudeMeters>217.600006103515625</AltitudeMeters>
            <DistanceMeters>NAN</DistanceMeters>
          </Trackpoint>
          <Trackpoint>
            <Time>2022-07-10T07:51:05.000Z</Time>
            <Position>
              <LatitudeDegrees>43.2883786596357822418212890625</LatitudeDegrees>
              <LongitudeDegrees>-2.09600946865975856781005859375</LongitudeDegrees>
            </Position>
            <AltitudeMeters>217</AltitudeMeters>
            <DistanceMeters>NAN</DistanceMeters>
          </Trackpoint>
          <Trackpoint>
            <Time>2022-07-10T07:51:07.000Z</Time>
            <Position>
              <LatitudeDegrees>43.28824974596500396728515625</LatitudeDegrees>
              <LongitudeDegrees>-2.09615061990916728973388671875</LongitudeDegrees>
            </Position>
            <AltitudeMeters>215.600006103515625</AltitudeMeters>
            <DistanceMeters>NAN</DistanceMeters>
          </Trackpoint>
          <Trackpoint>
            <Time>2022-07-10T07:51:08.000Z</Time>
            <Position>
              <LatitudeDegrees>43.2882059924304485321044921875</LatitudeDegrees>
              <LongitudeDegrees>-2.09622555412352085113525390625</LongitudeDegrees>
            </Position>
            <AltitudeMeters>215</AltitudeMeters>
            <DistanceMeters>NAN</DistanceMeters>
          </Trackpoint>
          <Trackpoint>
            <Time>2022-07-10T07:51:09.000Z</Time>
            <Position>
              <LatitudeDegrees>43.28816232271492481231689453125</LatitudeDegrees>
              <LongitudeDegrees>-2.0963180065155029296875</LongitudeDegrees>
            </Position>
            <AltitudeMeters>214.600006103515625</AltitudeMeters>
            <DistanceMeters>NAN</DistanceMeters>
          </Trackpoint>
          <Trackpoint>
            <Time>2022-07-10T07:51:12.000Z</Time>
            <Position>
              <LatitudeDegrees>43.28809149563312530517578125</LatitudeDegrees>
              <LongitudeDegrees>-2.09663257934153079986572265625</LongitudeDegrees>
            </Position>
            <AltitudeMeters>213.1999969482421875</AltitudeMeters>
            <DistanceMeters>NAN</DistanceMeters>
          </Trackpoint>
          <Trackpoint>
            <Time>2022-07-10T07:51:13.000Z</Time>
            <Position>
              <LatitudeDegrees>43.2880839519202709197998046875</LatitudeDegrees>
              <LongitudeDegrees>-2.096736766397953033447265625</LongitudeDegrees>
            </Position>
            <AltitudeMeters>212.399993896484375</AltitudeMeters>
            <DistanceMeters>NAN</DistanceMeters>
          </Trackpoint>
          <Trackpoint>
            <Time>2022-07-10T07:51:14.000Z</Time>
            <Position>
              <LatitudeDegrees>43.288074396550655364990234375</LatitudeDegrees>
              <LongitudeDegrees>-2.09682435728609561920166015625</LongitudeDegrees>
            </Position>
            <AltitudeMeters>212</AltitudeMeters>
            <DistanceMeters>NAN</DistanceMeters>
          </Trackpoint>
          <Trackpoint>
            <Time>2022-07-10T07:51:16.000Z</Time>
            <Position>
              <LatitudeDegrees>43.2880068384110927581787109375</LatitudeDegrees>
              <LongitudeDegrees>-2.09698713384568691253662109375</LongitudeDegrees>
            </Position>
            <AltitudeMeters>210.8000030517578125</AltitudeMeters>
            <DistanceMeters>NAN</DistanceMeters>
          </Trackpoint>
          <Trackpoint>
            <Time>2022-07-10T07:51:18.000Z</Time>
            <Position>
              <LatitudeDegrees>43.2879813574254512786865234375</LatitudeDegrees>
              <LongitudeDegrees>-2.09721059538424015045166015625</LongitudeDegrees>
            </Position>
            <AltitudeMeters>209.399993896484375</AltitudeMeters>
            <DistanceMeters>NAN</DistanceMeters>
          </Trackpoint>
          <Trackpoint>
            <Time>2022-07-10T07:51:20.000Z</Time>
            <Position>
              <LatitudeDegrees>43.28795135021209716796875</LatitudeDegrees>
              <LongitudeDegrees>-2.09743841551244258880615234375</LongitudeDegrees>
            </Position>
            <AltitudeMeters>208.1999969482421875</AltitudeMeters>
            <DistanceMeters>NAN</DistanceMeters>
          </Trackpoint>
          <Trackpoint>
            <Time>2022-07-10T07:51:22.000Z</Time>
            <Position>
              <LatitudeDegrees>43.28790801577270030975341796875</LatitudeDegrees>
              <LongitudeDegrees>-2.0976616255939006805419921875</LongitudeDegrees>
            </Position>
            <AltitudeMeters>207</AltitudeMeters>
            <DistanceMeters>NAN</DistanceMeters>
          </Trackpoint>
          <Trackpoint>
            <Time>2022-07-10T07:51:24.000Z</Time>
            <Position>
              <LatitudeDegrees>43.2878539524972438812255859375</LatitudeDegrees>
              <LongitudeDegrees>-2.097877375781536102294921875</LongitudeDegrees>
            </Position>
            <AltitudeMeters>205.8000030517578125</AltitudeMeters>
            <DistanceMeters>NAN</DistanceMeters>
          </Trackpoint>
          <Trackpoint>
            <Time>2022-07-10T07:51:26.000Z</Time>
            <Position>
              <LatitudeDegrees>43.287798464298248291015625</LatitudeDegrees>
              <LongitudeDegrees>-2.098068483173847198486328125</LongitudeDegrees>
            </Position>
            <AltitudeMeters>204.399993896484375</AltitudeMeters>
            <DistanceMeters>NAN</DistanceMeters>
          </Trackpoint>
          <Trackpoint>
            <Time>2022-07-10T07:51:28.000Z</Time>
            <Position>
              <LatitudeDegrees>43.28769813291728496551513671875</LatitudeDegrees>
              <LongitudeDegrees>-2.09827266633510589599609375</LongitudeDegrees>
            </Position>
            <AltitudeMeters>203.399993896484375</AltitudeMeters>
            <DistanceMeters>NAN</DistanceMeters>
          </Trackpoint>
          <Trackpoint>
            <Time>2022-07-10T07:51:30.000Z</Time>
            <Position>
              <LatitudeDegrees>43.28760174103081226348876953125</LatitudeDegrees>
              <LongitudeDegrees>-2.0984455011785030364990234375</LongitudeDegrees>
            </Position>
            <AltitudeMeters>201.8000030517578125</AltitudeMeters>
            <DistanceMeters>NAN</DistanceMeters>
          </Trackpoint>
          <Trackpoint>
            <Time>2022-07-10T07:51:32.000Z</Time>
            <Position>
              <LatitudeDegrees>43.28751373104751110076904296875</LatitudeDegrees>
              <LongitudeDegrees>-2.09858103655278682708740234375</LongitudeDegrees>
            </Position>
            <AltitudeMeters>200.600006103515625</AltitudeMeters>
            <DistanceMeters>NAN</DistanceMeters>
          </Trackpoint>
          <Trackpoint>
            <Time>2022-07-10T07:51:34.000Z</Time>
            <Position>
              <LatitudeDegrees>43.28741490840911865234375</LatitudeDegrees>
              <LongitudeDegrees>-2.09875185973942279815673828125</LongitudeDegrees>
            </Position>
            <AltitudeMeters>199.1999969482421875</AltitudeMeters>
            <DistanceMeters>NAN</DistanceMeters>
          </Trackpoint>
          <Trackpoint>
            <Time>2022-07-10T07:51:36.000Z</Time>
            <Position>
              <LatitudeDegrees>43.28734877519309520721435546875</LatitudeDegrees>
              <LongitudeDegrees>-2.0989172346889972686767578125</LongitudeDegrees>
            </Position>
            <AltitudeMeters>198.1999969482421875</AltitudeMeters>
            <DistanceMeters>NAN</DistanceMeters>
          </Trackpoint>
          <Trackpoint>
            <Time>2022-07-10T07:51:37.000Z</Time>
            <Position>
              <LatitudeDegrees>43.28731809742748737335205078125</LatitudeDegrees>
              <LongitudeDegrees>-2.09901697933673858642578125</LongitudeDegrees>
            </Position>
            <AltitudeMeters>197.600006103515625</AltitudeMeters>
            <DistanceMeters>NAN</DistanceMeters>
          </Trackpoint>
          <Trackpoint>
            <Time>2022-07-10T07:51:40.000Z</Time>
            <Position>
              <LatitudeDegrees>43.2872397266328334808349609375</LatitudeDegrees>
              <LongitudeDegrees>-2.09932736121118068695068359375</LongitudeDegrees>
            </Position>
            <AltitudeMeters>195.8000030517578125</AltitudeMeters>
            <DistanceMeters>NAN</DistanceMeters>
          </Trackpoint>
          <Trackpoint>
            <Time>2022-07-10T07:51:42.000Z</Time>
            <Position>
              <LatitudeDegrees>43.28720326535403728485107421875</LatitudeDegrees>
              <LongitudeDegrees>-2.09952333010733127593994140625</LongitudeDegrees>
            </Position>
            <AltitudeMeters>194.8000030517578125</AltitudeMeters>
            <DistanceMeters>NAN</DistanceMeters>
          </Trackpoint>
          <Trackpoint>
            <Time>2022-07-10T07:51:43.000Z</Time>
            <Position>
              <LatitudeDegrees>43.28719027340412139892578125</LatitudeDegrees>
              <LongitudeDegrees>-2.09964151494204998016357421875</LongitudeDegrees>
            </Position>
            <AltitudeMeters>194</AltitudeMeters>
            <DistanceMeters>NAN</DistanceMeters>
          </Trackpoint>
          <Trackpoint>
            <Time>2022-07-10T07:51:44.000Z</Time>
            <Position>
              <LatitudeDegrees>43.28719018958508968353271484375</LatitudeDegrees>
              <LongitudeDegrees>-2.09972080774605274200439453125</LongitudeDegrees>
            </Position>
            <AltitudeMeters>193.399993896484375</AltitudeMeters>
            <DistanceMeters>NAN</DistanceMeters>
          </Trackpoint>
          <Trackpoint>
            <Time>2022-07-10T07:51:46.000Z</Time>
            <Position>
              <LatitudeDegrees>43.28720645047724246978759765625</LatitudeDegrees>
              <LongitudeDegrees>-2.09991124458611011505126953125</LongitudeDegrees>
            </Position>
            <AltitudeMeters>192.399993896484375</AltitudeMeters>
            <DistanceMeters>NAN</DistanceMeters>
          </Trackpoint>
          <Trackpoint>
            <Time>2022-07-10T07:51:47.000Z</Time>
            <Position>
              <LatitudeDegrees>43.28723142854869365692138671875</LatitudeDegrees>
              <LongitudeDegrees>-2.10001702420413494110107421875</LongitudeDegrees>
            </Position>
            <AltitudeMeters>191.8000030517578125</AltitudeMeters>
            <DistanceMeters>NAN</DistanceMeters>
          </Trackpoint>
          <Trackpoint>
            <Time>2022-07-10T07:51:50.000Z</Time>
            <Position>
              <LatitudeDegrees>43.2873232103884220123291015625</LatitudeDegrees>
              <LongitudeDegrees>-2.10025657899677753448486328125</LongitudeDegrees>
            </Position>
            <AltitudeMeters>190.600006103515625</AltitudeMeters>
            <DistanceMeters>NAN</DistanceMeters>
          </Trackpoint>
          <Trackpoint>
            <Time>2022-07-10T07:51:51.000Z</Time>
            <Position>
              <LatitudeDegrees>43.28736721538007259368896484375</LatitudeDegrees>
              <LongitudeDegrees>-2.10032732225954532623291015625</LongitudeDegrees>
            </Position>
            <AltitudeMeters>190.1999969482421875</AltitudeMeters>
            <DistanceMeters>NAN</DistanceMeters>
          </Trackpoint>
          <Trackpoint>
            <Time>2022-07-10T07:51:52.000Z</Time>
            <Position>
              <LatitudeDegrees>43.28741968609392642974853515625</LatitudeDegrees>
              <LongitudeDegrees>-2.10038046352565288543701171875</LongitudeDegrees>
            </Position>
            <AltitudeMeters>189.8000030517578125</AltitudeMeters>
            <DistanceMeters>NAN</DistanceMeters>
          </Trackpoint>
          <Trackpoint>
            <Time>2022-07-10T07:51:53.000Z</Time>
            <Position>
              <LatitudeDegrees>43.2874771021306514739990234375</LatitudeDegrees>
              <LongitudeDegrees>-2.10043855011463165283203125</LongitudeDegrees>
            </Position>
            <AltitudeMeters>189.399993896484375</AltitudeMeters>
            <DistanceMeters>NAN</DistanceMeters>
          </Trackpoint>
          <Trackpoint>
            <Time>2022-07-10T07:51:55.000Z</Time>
            <Position>
              <LatitudeDegrees>43.2875959575176239013671875</LatitudeDegrees>
              <LongitudeDegrees>-2.1005728282034397125244140625</LongitudeDegrees>
            </Position>
            <AltitudeMeters>189</AltitudeMeters>
            <DistanceMeters>NAN</DistanceMeters>
          </Trackpoint>
          <Trackpoint>
            <Time>2022-07-10T07:51:56.000Z</Time>
            <Position>
              <LatitudeDegrees>43.2876460812985897064208984375</LatitudeDegrees>
              <LongitudeDegrees>-2.1006496064364910125732421875</LongitudeDegrees>
            </Position>
            <AltitudeMeters>188.399993896484375</AltitudeMeters>
            <DistanceMeters>NAN</DistanceMeters>
          </Trackpoint>
          <Trackpoint>
            <Time>2022-07-10T07:51:57.000Z</Time>
            <Position>
              <LatitudeDegrees>43.28768069855868816375732421875</LatitudeDegrees>
              <LongitudeDegrees>-2.100733928382396697998046875</LongitudeDegrees>
            </Position>
            <AltitudeMeters>187.8000030517578125</AltitudeMeters>
            <DistanceMeters>NAN</DistanceMeters>
          </Trackpoint>
          <Trackpoint>
            <Time>2022-07-10T07:51:58.000Z</Time>
            <Position>
              <LatitudeDegrees>43.28770391643047332763671875</LatitudeDegrees>
              <LongitudeDegrees>-2.1008308231830596923828125</LongitudeDegrees>
            </Position>
            <AltitudeMeters>187.1999969482421875</AltitudeMeters>
            <DistanceMeters>NAN</DistanceMeters>
          </Trackpoint>
          <Trackpoint>
            <Time>2022-07-10T07:51:59.000Z</Time>
            <Position>
              <LatitudeDegrees>43.28771841712296009063720703125</LatitudeDegrees>
              <LongitudeDegrees>-2.10092947818338871002197265625</LongitudeDegrees>
            </Position>
            <AltitudeMeters>186.600006103515625</AltitudeMeters>
            <DistanceMeters>NAN</DistanceMeters>
          </Trackpoint>
          <Trackpoint>
            <Time>2022-07-10T07:52:00.000Z</Time>
            <Position>
              <LatitudeDegrees>43.28773342072963714599609375</LatitudeDegrees>
              <LongitudeDegrees>-2.101027965545654296875</LongitudeDegrees>
            </Position>
            <AltitudeMeters>186.1999969482421875</AltitudeMeters>
            <DistanceMeters>NAN</DistanceMeters>
          </Trackpoint>
          <Trackpoint>
            <Time>2022-07-10T07:52:01.000Z</Time>
            <Position>
              <LatitudeDegrees>43.28774926252663135528564453125</LatitudeDegrees>
              <LongitudeDegrees>-2.10112812928855419158935546875</LongitudeDegrees>
            </Position>
            <AltitudeMeters>185.399993896484375</AltitudeMeters>
            <DistanceMeters>NAN</DistanceMeters>
          </Trackpoint>
          <Trackpoint>
            <Time>2022-07-10T07:52:02.000Z</Time>
            <Position>
              <LatitudeDegrees>43.28778010793030261993408203125</LatitudeDegrees>
              <LongitudeDegrees>-2.101244889199733734130859375</LongitudeDegrees>
            </Position>
            <AltitudeMeters>185</AltitudeMeters>
            <DistanceMeters>NAN</DistanceMeters>
          </Trackpoint>
          <Trackpoint>
            <Time>2022-07-10T07:52:03.000Z</Time>
            <Position>
              <LatitudeDegrees>43.2878278009593486785888671875</LatitudeDegrees>
              <LongitudeDegrees>-2.1013567037880420684814453125</LongitudeDegrees>
            </Position>
            <AltitudeMeters>184.8000030517578125</AltitudeMeters>
            <DistanceMeters>NAN</DistanceMeters>
          </Trackpoint>
          <Trackpoint>
            <Time>2022-07-10T07:52:05.000Z</Time>
            <Position>
              <LatitudeDegrees>43.28793651424348354339599609375</LatitudeDegrees>
              <LongitudeDegrees>-2.10153934545814990997314453125</LongitudeDegrees>
            </Position>
            <AltitudeMeters>184.399993896484375</AltitudeMeters>
            <DistanceMeters>NAN</DistanceMeters>
          </Trackpoint>
          <Trackpoint>
            <Time>2022-07-10T07:52:06.000Z</Time>
            <Position>
              <LatitudeDegrees>43.28800356946885585784912109375</LatitudeDegrees>
              <LongitudeDegrees>-2.10161126218736171722412109375</LongitudeDegrees>
            </Position>
            <AltitudeMeters>183.600006103515625</AltitudeMeters>
            <DistanceMeters>NAN</DistanceMeters>
          </Trackpoint>
          <Trackpoint>
            <Time>2022-07-10T07:52:07.000Z</Time>
            <Position>
              <LatitudeDegrees>43.28807582147419452667236328125</LatitudeDegrees>
              <LongitudeDegrees>-2.10165803320705890655517578125</LongitudeDegrees>
            </Position>
            <AltitudeMeters>182.8000030517578125</AltitudeMeters>
            <DistanceMeters>NAN</DistanceMeters>
          </Trackpoint>
          <Trackpoint>
            <Time>2022-07-10T07:52:08.000Z</Time>
            <Position>
              <LatitudeDegrees>43.2881489954888820648193359375</LatitudeDegrees>
              <LongitudeDegrees>-2.1016661636531352996826171875</LongitudeDegrees>
            </Position>
            <AltitudeMeters>182.399993896484375</AltitudeMeters>
            <DistanceMeters>NAN</DistanceMeters>
          </Trackpoint>
          <Trackpoint>
            <Time>2022-07-10T07:52:10.000Z</Time>
            <Position>
              <LatitudeDegrees>43.2882881350815296173095703125</LatitudeDegrees>
              <LongitudeDegrees>-2.10166658274829387664794921875</LongitudeDegrees>
            </Position>
            <AltitudeMeters>180.8000030517578125</AltitudeMeters>
            <DistanceMeters>NAN</DistanceMeters>
          </Trackpoint>
          <Trackpoint>
            <Time>2022-07-10T07:52:12.000Z</Time>
            <Position>
              <LatitudeDegrees>43.2883898913860321044921875</LatitudeDegrees>
              <LongitudeDegrees>-2.10172039456665515899658203125</LongitudeDegrees>
            </Position>
            <AltitudeMeters>180.1999969482421875</AltitudeMeters>
            <DistanceMeters>NAN</DistanceMeters>
          </Trackpoint>
          <Trackpoint>
            <Time>2022-07-10T07:52:14.000Z</Time>
            <Position>
              <LatitudeDegrees>43.28848175704479217529296875</LatitudeDegrees>
              <LongitudeDegrees>-2.10183463990688323974609375</LongitudeDegrees>
            </Position>
            <AltitudeMeters>179.600006103515625</AltitudeMeters>
            <DistanceMeters>NAN</DistanceMeters>
          </Trackpoint>
          <Trackpoint>
            <Time>2022-07-10T07:52:16.000Z</Time>
            <Position>
              <LatitudeDegrees>43.2885868661105632781982421875</LatitudeDegrees>
              <LongitudeDegrees>-2.1019538305699825286865234375</LongitudeDegrees>
            </Position>
            <AltitudeMeters>179.399993896484375</AltitudeMeters>
            <DistanceMeters>NAN</DistanceMeters>
          </Trackpoint>
          <Trackpoint>
            <Time>2022-07-10T07:52:18.000Z</Time>
            <Position>
              <LatitudeDegrees>43.28870010562241077423095703125</LatitudeDegrees>
              <LongitudeDegrees>-2.10197872482240200042724609375</LongitudeDegrees>
            </Position>
            <AltitudeMeters>179.1999969482421875</AltitudeMeters>
            <DistanceMeters>NAN</DistanceMeters>
          </Trackpoint>
          <Trackpoint>
            <Time>2022-07-10T07:52:19.000Z</Time>
            <Position>
              <LatitudeDegrees>43.28875777311623096466064453125</LatitudeDegrees>
              <LongitudeDegrees>-2.10195777006447315216064453125</LongitudeDegrees>
            </Position>
            <AltitudeMeters>179</AltitudeMeters>
            <DistanceMeters>NAN</DistanceMeters>
          </Trackpoint>
          <Trackpoint>
            <Time>2022-07-10T07:52:21.000Z</Time>
            <Position>
              <LatitudeDegrees>43.28887176699936389923095703125</LatitudeDegrees>
              <LongitudeDegrees>-2.101942598819732666015625</LongitudeDegrees>
            </Position>
            <AltitudeMeters>178.8000030517578125</AltitudeMeters>
            <DistanceMeters>NAN</DistanceMeters>
          </Trackpoint>
          <Trackpoint>
            <Time>2022-07-10T07:52:22.000Z</Time>
            <Position>
              <LatitudeDegrees>43.28890210948884487152099609375</LatitudeDegrees>
              <LongitudeDegrees>-2.1019595302641391754150390625</LongitudeDegrees>
            </Position>
            <AltitudeMeters>178.600006103515625</AltitudeMeters>
            <DistanceMeters>NAN</DistanceMeters>
          </Trackpoint>
          <Trackpoint>
            <Time>2022-07-10T07:52:23.000Z</Time>
            <Position>
              <LatitudeDegrees>43.28892155550420284271240234375</LatitudeDegrees>
              <LongitudeDegrees>-2.1019933931529521942138671875</LongitudeDegrees>
            </Position>
            <AltitudeMeters>178.1999969482421875</AltitudeMeters>
            <DistanceMeters>NAN</DistanceMeters>
          </Trackpoint>
          <Trackpoint>
            <Time>2022-07-10T07:52:24.000Z</Time>
            <Position>
              <LatitudeDegrees>43.2889177836477756500244140625</LatitudeDegrees>
              <LongitudeDegrees>-2.10204510949552059173583984375</LongitudeDegrees>
            </Position>
            <AltitudeMeters>178</AltitudeMeters>
            <DistanceMeters>NAN</DistanceMeters>
          </Trackpoint>
          <Trackpoint>
            <Time>2022-07-10T07:52:25.000Z</Time>
            <Position>
              <LatitudeDegrees>43.28889322467148303985595703125</LatitudeDegrees>
              <LongitudeDegrees>-2.102117277681827545166015625</LongitudeDegrees>
            </Position>
            <AltitudeMeters>177.8000030517578125</AltitudeMeters>
            <DistanceMeters>NAN</DistanceMeters>
          </Trackpoint>
          <Trackpoint>
            <Time>2022-07-10T07:52:27.000Z</Time>
            <Position>
              <LatitudeDegrees>43.28879691660404205322265625</LatitudeDegrees>
              <LongitudeDegrees>-2.1022458560764789581298828125</LongitudeDegrees>
            </Position>
            <AltitudeMeters>177</AltitudeMeters>
            <DistanceMeters>NAN</DistanceMeters>
          </Trackpoint>
          <Trackpoint>
            <Time>2022-07-10T07:52:30.000Z</Time>
            <Position>
              <LatitudeDegrees>43.2886219024658203125</LatitudeDegrees>
              <LongitudeDegrees>-2.10240754298865795135498046875</LongitudeDegrees>
            </Position>
            <AltitudeMeters>176.1999969482421875</AltitudeMeters>
            <DistanceMeters>NAN</DistanceMeters>
          </Trackpoint>
          <Trackpoint>
            <Time>2022-07-10T07:52:32.000Z</Time>
            <Position>
              <LatitudeDegrees>43.28845937736332416534423828125</LatitudeDegrees>
              <LongitudeDegrees>-2.10247174836695194244384765625</LongitudeDegrees>
            </Position>
            <AltitudeMeters>175.600006103515625</AltitudeMeters>
            <DistanceMeters>NAN</DistanceMeters>
          </Trackpoint>
          <Trackpoint>
            <Time>2022-07-10T07:52:35.000Z</Time>
            <Position>
              <LatitudeDegrees>43.28821244649589061737060546875</LatitudeDegrees>
              <LongitudeDegrees>-2.10258976556360721588134765625</LongitudeDegrees>
            </Position>
            <AltitudeMeters>174.399993896484375</AltitudeMeters>
            <DistanceMeters>NAN</DistanceMeters>
          </Trackpoint>
          <Trackpoint>
            <Time>2022-07-10T07:52:36.000Z</Time>
            <Position>
              <LatitudeDegrees>43.2881332375109195709228515625</LatitudeDegrees>
              <LongitudeDegrees>-2.10264198482036590576171875</LongitudeDegrees>
            </Position>
            <AltitudeMeters>174</AltitudeMeters>
            <DistanceMeters>NAN</DistanceMeters>
          </Trackpoint>
          <Trackpoint>
            <Time>2022-07-10T07:52:38.000Z</Time>
            <Position>
              <LatitudeDegrees>43.28798010013997554779052734375</LatitudeDegrees>
              <LongitudeDegrees>-2.102769054472446441650390625</LongitudeDegrees>
            </Position>
            <AltitudeMeters>173.1999969482421875</AltitudeMeters>
            <DistanceMeters>NAN</DistanceMeters>
          </Trackpoint>
          <Trackpoint>
            <Time>2022-07-10T07:52:40.000Z</Time>
            <Position>
              <LatitudeDegrees>43.28781397081911563873291015625</LatitudeDegrees>
              <LongitudeDegrees>-2.1028922684490680694580078125</LongitudeDegrees>
            </Position>
            <AltitudeMeters>171.8000030517578125</AltitudeMeters>
            <DistanceMeters>NAN</DistanceMeters>
          </Trackpoint>
          <Trackpoint>
            <Time>2022-07-10T07:52:41.000Z</Time>
            <Position>
              <LatitudeDegrees>43.28770718537271022796630859375</LatitudeDegrees>
              <LongitudeDegrees>-2.10294163785874843597412109375</LongitudeDegrees>
            </Position>
            <AltitudeMeters>171</AltitudeMeters>
            <DistanceMeters>NAN</DistanceMeters>
          </Trackpoint>
          <Trackpoint>
            <Time>2022-07-10T07:52:42.000Z</Time>
            <Position>
              <LatitudeDegrees>43.287580870091915130615234375</LatitudeDegrees>
              <LongitudeDegrees>-2.1029723994433879852294921875</LongitudeDegrees>
            </Position>
            <AltitudeMeters>170.1999969482421875</AltitudeMeters>
            <DistanceMeters>NAN</DistanceMeters>
          </Trackpoint>
          <Trackpoint>
            <Time>2022-07-10T07:52:44.000Z</Time>
            <Position>
              <LatitudeDegrees>43.28737325035035610198974609375</LatitudeDegrees>
              <LongitudeDegrees>-2.10303719155490398406982421875</LongitudeDegrees>
            </Position>
            <AltitudeMeters>169.1999969482421875</AltitudeMeters>
            <DistanceMeters>NAN</DistanceMeters>
          </Trackpoint>
          <Trackpoint>
            <Time>2022-07-10T07:52:46.000Z</Time>
            <Position>
              <LatitudeDegrees>43.28716705553233623504638671875</LatitudeDegrees>
              <LongitudeDegrees>-2.1031065098941326141357421875</LongitudeDegrees>
            </Position>
            <AltitudeMeters>168</AltitudeMeters>
            <DistanceMeters>NAN</DistanceMeters>
          </Trackpoint>
          <Trackpoint>
            <Time>2022-07-10T07:52:48.000Z</Time>
            <Position>
              <LatitudeDegrees>43.28695381991565227508544921875</LatitudeDegrees>
              <LongitudeDegrees>-2.10317750461399555206298828125</LongitudeDegrees>
            </Position>
            <AltitudeMeters>166.8000030517578125</AltitudeMeters>
            <DistanceMeters>NAN</DistanceMeters>
          </Trackpoint>
          <Trackpoint>
            <Time>2022-07-10T07:52:50.000Z</Time>
            <Position>
              <LatitudeDegrees>43.28677712939679622650146484375</LatitudeDegrees>
              <LongitudeDegrees>-2.10324003361165523529052734375</LongitudeDegrees>
            </Position>
            <AltitudeMeters>165.600006103515625</AltitudeMeters>
            <DistanceMeters>NAN</DistanceMeters>
          </Trackpoint>
          <Trackpoint>
            <Time>2022-07-10T07:52:52.000Z</Time>
            <Position>
              <LatitudeDegrees>43.28660555183887481689453125</LatitudeDegrees>
              <LongitudeDegrees>-2.10332653485238552093505859375</LongitudeDegrees>
            </Position>
            <AltitudeMeters>163.8000030517578125</AltitudeMeters>
            <DistanceMeters>NAN</DistanceMeters>
          </Trackpoint>
          <Trackpoint>
            <Time>2022-07-10T07:52:53.000Z</Time>
            <Position>
              <LatitudeDegrees>43.28652776777744293212890625</LatitudeDegrees>
              <LongitudeDegrees>-2.10338587872684001922607421875</LongitudeDegrees>
            </Position>
            <AltitudeMeters>163</AltitudeMeters>
            <DistanceMeters>NAN</DistanceMeters>
          </Trackpoint>
          <Trackpoint>
            <Time>2022-07-10T07:52:54.000Z</Time>
            <Position>
              <LatitudeDegrees>43.28645409084856510162353515625</LatitudeDegrees>
              <LongitudeDegrees>-2.10346718318760395050048828125</LongitudeDegrees>
            </Position>
            <AltitudeMeters>162.399993896484375</AltitudeMeters>
            <DistanceMeters>NAN</DistanceMeters>
          </Trackpoint>
          <Trackpoint>
            <Time>2022-07-10T07:52:56.000Z</Time>
            <Position>
              <LatitudeDegrees>43.28630204312503337860107421875</LatitudeDegrees>
              <LongitudeDegrees>-2.10364722646772861480712890625</LongitudeDegrees>
            </Position>
            <AltitudeMeters>160.8000030517578125</AltitudeMeters>
            <DistanceMeters>NAN</DistanceMeters>
          </Trackpoint>
          <Trackpoint>
            <Time>2022-07-10T07:52:58.000Z</Time>
            <Position>
              <LatitudeDegrees>43.28616960905492305755615234375</LatitudeDegrees>
              <LongitudeDegrees>-2.1038456261157989501953125</LongitudeDegrees>
            </Position>
            <AltitudeMeters>159.600006103515625</AltitudeMeters>
            <DistanceMeters>NAN</DistanceMeters>
          </Trackpoint>
          <Trackpoint>
            <Time>2022-07-10T07:52:59.000Z</Time>
            <Position>
              <LatitudeDegrees>43.28610020689666271209716796875</LatitudeDegrees>
              <LongitudeDegrees>-2.1039524115622043609619140625</LongitudeDegrees>
            </Position>
            <AltitudeMeters>158.8000030517578125</AltitudeMeters>
            <DistanceMeters>NAN</DistanceMeters>
          </Trackpoint>
          <Trackpoint>
            <Time>2022-07-10T07:53:00.000Z</Time>
            <Position>
              <LatitudeDegrees>43.28603264875710010528564453125</LatitudeDegrees>
              <LongitudeDegrees>-2.10402457974851131439208984375</LongitudeDegrees>
            </Position>
            <AltitudeMeters>158</AltitudeMeters>
            <DistanceMeters>NAN</DistanceMeters>
          </Trackpoint>
          <Trackpoint>
            <Time>2022-07-10T07:53:01.000Z</Time>
            <Position>
              <LatitudeDegrees>43.2859569601714611053466796875</LatitudeDegrees>
              <LongitudeDegrees>-2.1040744520723819732666015625</LongitudeDegrees>
            </Position>
            <AltitudeMeters>157</AltitudeMeters>
            <DistanceMeters>NAN</DistanceMeters>
          </Trackpoint>
          <Trackpoint>
            <Time>2022-07-10T07:53:02.000Z</Time>
            <Position>
              <LatitudeDegrees>43.28588143922388553619384765625</LatitudeDegrees>
              <LongitudeDegrees>-2.10410521365702152252197265625</LongitudeDegrees>
            </Position>
            <AltitudeMeters>156.399993896484375</AltitudeMeters>
            <DistanceMeters>NAN</DistanceMeters>
          </Trackpoint>
          <Trackpoint>
            <Time>2022-07-10T07:53:04.000Z</Time>
            <Position>
              <LatitudeDegrees>43.2857611589133739471435546875</LatitudeDegrees>
              <LongitudeDegrees>-2.104166485369205474853515625</LongitudeDegrees>
            </Position>
            <AltitudeMeters>154.8000030517578125</AltitudeMeters>
            <DistanceMeters>NAN</DistanceMeters>
          </Trackpoint>
          <Trackpoint>
            <Time>2022-07-10T07:53:05.000Z</Time>
            <Position>
              <LatitudeDegrees>43.28569921664893627166748046875</LatitudeDegrees>
              <LongitudeDegrees>-2.10421979427337646484375</LongitudeDegrees>
            </Position>
            <AltitudeMeters>154.1999969482421875</AltitudeMeters>
            <DistanceMeters>NAN</DistanceMeters>
          </Trackpoint>
          <Trackpoint>
            <Time>2022-07-10T07:53:06.000Z</Time>
            <Position>
              <LatitudeDegrees>43.285610117018222808837890625</LatitudeDegrees>
              <LongitudeDegrees>-2.1043091453611850738525390625</LongitudeDegrees>
            </Position>
            <AltitudeMeters>153.600006103515625</AltitudeMeters>
            <DistanceMeters>NAN</DistanceMeters>
          </Trackpoint>
          <Trackpoint>
            <Time>2022-07-10T07:53:08.000Z</Time>
            <Position>
              <LatitudeDegrees>43.285504840314388275146484375</LatitudeDegrees>
              <LongitudeDegrees>-2.10451953113079071044921875</LongitudeDegrees>
            </Position>
            <AltitudeMeters>152.399993896484375</AltitudeMeters>
            <DistanceMeters>NAN</DistanceMeters>
          </Trackpoint>
          <Trackpoint>
            <Time>2022-07-10T07:53:10.000Z</Time>
            <Position>
              <LatitudeDegrees>43.28542395494878292083740234375</LatitudeDegrees>
              <LongitudeDegrees>-2.10475564934313297271728515625</LongitudeDegrees>
            </Position>
            <AltitudeMeters>151.1999969482421875</AltitudeMeters>
            <DistanceMeters>NAN</DistanceMeters>
          </Trackpoint>
          <Trackpoint>
            <Time>2022-07-10T07:53:12.000Z</Time>
            <Position>
              <LatitudeDegrees>43.2853750884532928466796875</LatitudeDegrees>
              <LongitudeDegrees>-2.10502336733043193817138671875</LongitudeDegrees>
            </Position>
            <AltitudeMeters>150.399993896484375</AltitudeMeters>
            <DistanceMeters>NAN</DistanceMeters>
          </Trackpoint>
          <Trackpoint>
            <Time>2022-07-10T07:53:13.000Z</Time>
            <Position>
              <LatitudeDegrees>43.285363353788852691650390625</LatitudeDegrees>
              <LongitudeDegrees>-2.10514985024929046630859375</LongitudeDegrees>
            </Position>
            <AltitudeMeters>149.399993896484375</AltitudeMeters>
            <DistanceMeters>NAN</DistanceMeters>
          </Trackpoint>
          <Trackpoint>
            <Time>2022-07-10T07:53:15.000Z</Time>
            <Position>
              <LatitudeDegrees>43.285335861146450042724609375</LatitudeDegrees>
              <LongitudeDegrees>-2.1053887344896793365478515625</LongitudeDegrees>
            </Position>
            <AltitudeMeters>148</AltitudeMeters>
            <DistanceMeters>NAN</DistanceMeters>
          </Trackpoint>
          <Trackpoint>
            <Time>2022-07-10T07:53:17.000Z</Time>
            <Position>
              <LatitudeDegrees>43.2852894254028797149658203125</LatitudeDegrees>
              <LongitudeDegrees>-2.1056415326893329620361328125</LongitudeDegrees>
            </Position>
            <AltitudeMeters>146.8000030517578125</AltitudeMeters>
            <DistanceMeters>NAN</DistanceMeters>
          </Trackpoint>
          <Trackpoint>
            <Time>2022-07-10T07:53:19.000Z</Time>
            <Position>
              <LatitudeDegrees>43.28523586504161357879638671875</LatitudeDegrees>
              <LongitudeDegrees>-2.105895839631557464599609375</LongitudeDegrees>
            </Position>
            <AltitudeMeters>145.1999969482421875</AltitudeMeters>
            <DistanceMeters>NAN</DistanceMeters>
          </Trackpoint>
          <Trackpoint>
            <Time>2022-07-10T07:53:20.000Z</Time>
            <Position>
              <LatitudeDegrees>43.28521423973143100738525390625</LatitudeDegrees>
              <LongitudeDegrees>-2.10601150989532470703125</LongitudeDegrees>
            </Position>
            <AltitudeMeters>144.1999969482421875</AltitudeMeters>
            <DistanceMeters>NAN</DistanceMeters>
          </Trackpoint>
          <Trackpoint>
            <Time>2022-07-10T07:53:21.000Z</Time>
            <Position>
              <LatitudeDegrees>43.28518808819353580474853515625</LatitudeDegrees>
              <LongitudeDegrees>-2.1061233244836330413818359375</LongitudeDegrees>
            </Position>
            <AltitudeMeters>143.8000030517578125</AltitudeMeters>
            <DistanceMeters>NAN</DistanceMeters>
          </Trackpoint>
          <Trackpoint>
            <Time>2022-07-10T07:53:23.000Z</Time>
            <Position>
              <LatitudeDegrees>43.28513729386031627655029296875</LatitudeDegrees>
              <LongitudeDegrees>-2.1063486300408840179443359375</LongitudeDegrees>
            </Position>
            <AltitudeMeters>142.1999969482421875</AltitudeMeters>
            <DistanceMeters>NAN</DistanceMeters>
          </Trackpoint>
          <Trackpoint>
            <Time>2022-07-10T07:53:25.000Z</Time>
            <Position>
              <LatitudeDegrees>43.28507962636649608612060546875</LatitudeDegrees>
              <LongitudeDegrees>-2.10654786787927150726318359375</LongitudeDegrees>
            </Position>
            <AltitudeMeters>140.8000030517578125</AltitudeMeters>
            <DistanceMeters>NAN</DistanceMeters>
          </Trackpoint>
          <Trackpoint>
            <Time>2022-07-10T07:53:27.000Z</Time>
            <Position>
              <LatitudeDegrees>43.284999914467334747314453125</LatitudeDegrees>
              <LongitudeDegrees>-2.106754146516323089599609375</LongitudeDegrees>
            </Position>
            <AltitudeMeters>139.1999969482421875</AltitudeMeters>
            <DistanceMeters>NAN</DistanceMeters>
          </Trackpoint>
          <Trackpoint>
            <Time>2022-07-10T07:53:28.000Z</Time>
            <Position>
              <LatitudeDegrees>43.28497233800590038299560546875</LatitudeDegrees>
              <LongitudeDegrees>-2.106861770153045654296875</LongitudeDegrees>
            </Position>
            <AltitudeMeters>138.1999969482421875</AltitudeMeters>
            <DistanceMeters>NAN</DistanceMeters>
          </Trackpoint>
          <Trackpoint>
            <Time>2022-07-10T07:53:29.000Z</Time>
            <Position>
              <LatitudeDegrees>43.28496077097952365875244140625</LatitudeDegrees>
              <LongitudeDegrees>-2.1069248020648956298828125</LongitudeDegrees>
            </Position>
            <AltitudeMeters>137.600006103515625</AltitudeMeters>
            <DistanceMeters>NAN</DistanceMeters>
          </Trackpoint>
          <Trackpoint>
            <Time>2022-07-10T07:53:30.000Z</Time>
            <Position>
              <LatitudeDegrees>43.28494794666767120361328125</LatitudeDegrees>
              <LongitudeDegrees>-2.1070025861263275146484375</LongitudeDegrees>
            </Position>
            <AltitudeMeters>136.600006103515625</AltitudeMeters>
            <DistanceMeters>NAN</DistanceMeters>
          </Trackpoint>
          <Trackpoint>
            <Time>2022-07-10T07:53:31.000Z</Time>
            <Position>
              <LatitudeDegrees>43.28492791391909122467041015625</LatitudeDegrees>
              <LongitudeDegrees>-2.10709151811897754669189453125</LongitudeDegrees>
            </Position>
            <AltitudeMeters>136.1999969482421875</AltitudeMeters>
            <DistanceMeters>NAN</DistanceMeters>
          </Trackpoint>
          <Trackpoint>
            <Time>2022-07-10T07:53:33.000Z</Time>
            <Position>
              <LatitudeDegrees>43.2848716713488101959228515625</LatitudeDegrees>
              <LongitudeDegrees>-2.10722453892230987548828125</LongitudeDegrees>
            </Position>
            <AltitudeMeters>134.8000030517578125</AltitudeMeters>
            <DistanceMeters>NAN</DistanceMeters>
          </Trackpoint>
          <Trackpoint>
            <Time>2022-07-10T07:53:34.000Z</Time>
            <Position>
              <LatitudeDegrees>43.28484191559255123138427734375</LatitudeDegrees>
              <LongitudeDegrees>-2.10727290250360965728759765625</LongitudeDegrees>
            </Position>
            <AltitudeMeters>134.1999969482421875</AltitudeMeters>
            <DistanceMeters>NAN</DistanceMeters>
          </Trackpoint>
          <Trackpoint>
            <Time>2022-07-10T07:53:35.000Z</Time>
            <Position>
              <LatitudeDegrees>43.2848005928099155426025390625</LatitudeDegrees>
              <LongitudeDegrees>-2.10735973902046680450439453125</LongitudeDegrees>
            </Position>
            <AltitudeMeters>133.1999969482421875</AltitudeMeters>
            <DistanceMeters>NAN</DistanceMeters>
          </Trackpoint>
          <Trackpoint>
            <Time>2022-07-10T07:53:36.000Z</Time>
            <Position>
              <LatitudeDegrees>43.2847653888165950775146484375</LatitudeDegrees>
              <LongitudeDegrees>-2.10744255222380161285400390625</LongitudeDegrees>
            </Position>
            <AltitudeMeters>132.1999969482421875</AltitudeMeters>
            <DistanceMeters>NAN</DistanceMeters>
          </Trackpoint>
          <Trackpoint>
            <Time>2022-07-10T07:53:37.000Z</Time>
            <Position>
              <LatitudeDegrees>43.28473663888871669769287109375</LatitudeDegrees>
              <LongitudeDegrees>-2.10752519778907299041748046875</LongitudeDegrees>
            </Position>
            <AltitudeMeters>131.399993896484375</AltitudeMeters>
            <DistanceMeters>NAN</DistanceMeters>
          </Trackpoint>
          <Trackpoint>
            <Time>2022-07-10T07:53:38.000Z</Time>
            <Position>
              <LatitudeDegrees>43.28471601940691471099853515625</LatitudeDegrees>
              <LongitudeDegrees>-2.1076112799346446990966796875</LongitudeDegrees>
            </Position>
            <AltitudeMeters>130.399993896484375</AltitudeMeters>
            <DistanceMeters>NAN</DistanceMeters>
          </Trackpoint>
          <Trackpoint>
            <Time>2022-07-10T07:53:39.000Z</Time>
            <Position>
              <LatitudeDegrees>43.28471082262694835662841796875</LatitudeDegrees>
              <LongitudeDegrees>-2.10770641453564167022705078125</LongitudeDegrees>
            </Position>
            <AltitudeMeters>129.600006103515625</AltitudeMeters>
            <DistanceMeters>NAN</DistanceMeters>
          </Trackpoint>
          <Trackpoint>
            <Time>2022-07-10T07:53:40.000Z</Time>
            <Position>
              <LatitudeDegrees>43.2847171090543270111083984375</LatitudeDegrees>
              <LongitudeDegrees>-2.10780297406017780303955078125</LongitudeDegrees>
            </Position>
            <AltitudeMeters>129</AltitudeMeters>
            <DistanceMeters>NAN</DistanceMeters>
          </Trackpoint>
          <Trackpoint>
            <Time>2022-07-10T07:53:41.000Z</Time>
            <Position>
              <LatitudeDegrees>43.2847271673381328582763671875</LatitudeDegrees>
              <LongitudeDegrees>-2.10790154524147510528564453125</LongitudeDegrees>
            </Position>
            <AltitudeMeters>128.1999969482421875</AltitudeMeters>
            <DistanceMeters>NAN</DistanceMeters>
          </Trackpoint>
          <Trackpoint>
            <Time>2022-07-10T07:53:43.000Z</Time>
            <Position>
              <LatitudeDegrees>43.28473797999322414398193359375</LatitudeDegrees>
              <LongitudeDegrees>-2.1081178821623325347900390625</LongitudeDegrees>
            </Position>
            <AltitudeMeters>127</AltitudeMeters>
            <DistanceMeters>NAN</DistanceMeters>
          </Trackpoint>
          <Trackpoint>
            <Time>2022-07-10T07:53:45.000Z</Time>
            <Position>
              <LatitudeDegrees>43.28473336994647979736328125</LatitudeDegrees>
              <LongitudeDegrees>-2.10834377445280551910400390625</LongitudeDegrees>
            </Position>
            <AltitudeMeters>125.40000152587890625</AltitudeMeters>
            <DistanceMeters>NAN</DistanceMeters>
          </Trackpoint>
          <Trackpoint>
            <Time>2022-07-10T07:53:46.000Z</Time>
            <Position>
              <LatitudeDegrees>43.2847187854349613189697265625</LatitudeDegrees>
              <LongitudeDegrees>-2.10845969617366790771484375</LongitudeDegrees>
            </Position>
            <AltitudeMeters>124.59999847412109375</AltitudeMeters>
            <DistanceMeters>NAN</DistanceMeters>
          </Trackpoint>
          <Trackpoint>
            <Time>2022-07-10T07:53:47.000Z</Time>
            <Position>
              <LatitudeDegrees>43.2846884429454803466796875</LatitudeDegrees>
              <LongitudeDegrees>-2.1085770428180694580078125</LongitudeDegrees>
            </Position>
            <AltitudeMeters>124</AltitudeMeters>
            <DistanceMeters>NAN</DistanceMeters>
          </Trackpoint>
          <Trackpoint>
            <Time>2022-07-10T07:53:50.000Z</Time>
            <Position>
              <LatitudeDegrees>43.2845682464540004730224609375</LatitudeDegrees>
              <LongitudeDegrees>-2.1089232154190540313720703125</LongitudeDegrees>
            </Position>
            <AltitudeMeters>122.1999969482421875</AltitudeMeters>
            <DistanceMeters>NAN</DistanceMeters>
          </Trackpoint>
          <Trackpoint>
            <Time>2022-07-10T07:53:52.000Z</Time>
            <Position>
              <LatitudeDegrees>43.28454452566802501678466796875</LatitudeDegrees>
              <LongitudeDegrees>-2.10915514267981052398681640625</LongitudeDegrees>
            </Position>
            <AltitudeMeters>121.40000152587890625</AltitudeMeters>
            <DistanceMeters>NAN</DistanceMeters>
          </Trackpoint>
          <Trackpoint>
            <Time>2022-07-10T07:53:53.000Z</Time>
            <Position>
              <LatitudeDegrees>43.28455827198922634124755859375</LatitudeDegrees>
              <LongitudeDegrees>-2.10925907827913761138916015625</LongitudeDegrees>
            </Position>
            <AltitudeMeters>121.1999969482421875</AltitudeMeters>
            <DistanceMeters>NAN</DistanceMeters>
          </Trackpoint>
          <Trackpoint>
            <Time>2022-07-10T07:53:54.000Z</Time>
            <Position>
              <LatitudeDegrees>43.28457872383296489715576171875</LatitudeDegrees>
              <LongitudeDegrees>-2.10935530252754688262939453125</LongitudeDegrees>
            </Position>
            <AltitudeMeters>121</AltitudeMeters>
            <DistanceMeters>NAN</DistanceMeters>
          </Trackpoint>
          <Trackpoint>
            <Time>2022-07-10T07:53:56.000Z</Time>
            <Position>
              <LatitudeDegrees>43.28464175574481487274169921875</LatitudeDegrees>
              <LongitudeDegrees>-2.10953232832252979278564453125</LongitudeDegrees>
            </Position>
            <AltitudeMeters>120.59999847412109375</AltitudeMeters>
            <DistanceMeters>NAN</DistanceMeters>
          </Trackpoint>
          <Trackpoint>
            <Time>2022-07-10T07:53:57.000Z</Time>
            <Position>
              <LatitudeDegrees>43.28468240797519683837890625</LatitudeDegrees>
              <LongitudeDegrees>-2.109608687460422515869140625</LongitudeDegrees>
            </Position>
            <AltitudeMeters>120.40000152587890625</AltitudeMeters>
            <DistanceMeters>NAN</DistanceMeters>
          </Trackpoint>
          <Trackpoint>
            <Time>2022-07-10T07:53:58.000Z</Time>
            <Position>
              <LatitudeDegrees>43.2847238145768642425537109375</LatitudeDegrees>
              <LongitudeDegrees>-2.109683118760585784912109375</LongitudeDegrees>
            </Position>
            <AltitudeMeters>120</AltitudeMeters>
            <DistanceMeters>NAN</DistanceMeters>
          </Trackpoint>
          <Trackpoint>
            <Time>2022-07-10T07:53:59.000Z</Time>
            <Position>
              <LatitudeDegrees>43.28475876711308956146240234375</LatitudeDegrees>
              <LongitudeDegrees>-2.10976685397326946258544921875</LongitudeDegrees>
            </Position>
            <AltitudeMeters>119.59999847412109375</AltitudeMeters>
            <DistanceMeters>NAN</DistanceMeters>
          </Trackpoint>
          <Trackpoint>
            <Time>2022-07-10T07:54:01.000Z</Time>
            <Position>
              <LatitudeDegrees>43.28479732386767864227294921875</LatitudeDegrees>
              <LongitudeDegrees>-2.10997288115322589874267578125</LongitudeDegrees>
            </Position>
            <AltitudeMeters>118.59999847412109375</AltitudeMeters>
            <DistanceMeters>NAN</DistanceMeters>
          </Trackpoint>
          <Trackpoint>
            <Time>2022-07-10T07:54:03.000Z</Time>
            <Position>
              <LatitudeDegrees>43.28478810377418994903564453125</LatitudeDegrees>
              <LongitudeDegrees>-2.11019382812082767486572265625</LongitudeDegrees>
            </Position>
            <AltitudeMeters>117.59999847412109375</AltitudeMeters>
            <DistanceMeters>NAN</DistanceMeters>
          </Trackpoint>
          <Trackpoint>
            <Time>2022-07-10T07:54:04.000Z</Time>
            <Position>
              <LatitudeDegrees>43.28476815484464168548583984375</LatitudeDegrees>
              <LongitudeDegrees>-2.11030329577624797821044921875</LongitudeDegrees>
            </Position>
            <AltitudeMeters>117.1999969482421875</AltitudeMeters>
            <DistanceMeters>NAN</DistanceMeters>
          </Trackpoint>
          <Trackpoint>
            <Time>2022-07-10T07:54:09.000Z</Time>
            <Position>
              <LatitudeDegrees>43.28460806049406528472900390625</LatitudeDegrees>
              <LongitudeDegrees>-2.11076932959258556365966796875</LongitudeDegrees>
            </Position>
            <AltitudeMeters>116.59999847412109375</AltitudeMeters>
            <DistanceMeters>NAN</DistanceMeters>
          </Trackpoint>
          <Trackpoint>
            <Time>2022-07-10T07:54:10.000Z</Time>
            <Position>
              <LatitudeDegrees>43.28455978073179721832275390625</LatitudeDegrees>
              <LongitudeDegrees>-2.11084761656820774078369140625</LongitudeDegrees>
            </Position>
            <AltitudeMeters>116.1999969482421875</AltitudeMeters>
            <DistanceMeters>NAN</DistanceMeters>
          </Trackpoint>
          <Trackpoint>
            <Time>2022-07-10T07:54:11.000Z</Time>
            <Position>
              <LatitudeDegrees>43.2845032028853893280029296875</LatitudeDegrees>
              <LongitudeDegrees>-2.11092305369675159454345703125</LongitudeDegrees>
            </Position>
            <AltitudeMeters>116</AltitudeMeters>
            <DistanceMeters>NAN</DistanceMeters>
          </Trackpoint>
          <Trackpoint>
            <Time>2022-07-10T07:54:13.000Z</Time>
            <Position>
              <LatitudeDegrees>43.2843798212707042694091796875</LatitudeDegrees>
              <LongitudeDegrees>-2.11104945279657840728759765625</LongitudeDegrees>
            </Position>
            <AltitudeMeters>115.40000152587890625</AltitudeMeters>
            <DistanceMeters>NAN</DistanceMeters>
          </Trackpoint>
          <Trackpoint>
            <Time>2022-07-10T07:54:14.000Z</Time>
            <Position>
              <LatitudeDegrees>43.28431469388306140899658203125</LatitudeDegrees>
              <LongitudeDegrees>-2.1110998280346393585205078125</LongitudeDegrees>
            </Position>
            <AltitudeMeters>115</AltitudeMeters>
            <DistanceMeters>NAN</DistanceMeters>
          </Trackpoint>
          <Trackpoint>
            <Time>2022-07-10T07:54:16.000Z</Time>
            <Position>
              <LatitudeDegrees>43.284202627837657928466796875</LatitudeDegrees>
              <LongitudeDegrees>-2.1111766062676906585693359375</LongitudeDegrees>
            </Position>
            <AltitudeMeters>113.8000030517578125</AltitudeMeters>
            <DistanceMeters>NAN</DistanceMeters>
          </Trackpoint>
          <Trackpoint>
            <Time>2022-07-10T07:54:17.000Z</Time>
            <Position>
              <LatitudeDegrees>43.28413699753582477569580078125</LatitudeDegrees>
              <LongitudeDegrees>-2.11121155880391597747802734375</LongitudeDegrees>
            </Position>
            <AltitudeMeters>113.1999969482421875</AltitudeMeters>
            <DistanceMeters>NAN</DistanceMeters>
          </Trackpoint>
          <Trackpoint>
            <Time>2022-07-10T07:54:18.000Z</Time>
            <Position>
              <LatitudeDegrees>43.284055106341838836669921875</LatitudeDegrees>
              <LongitudeDegrees>-2.111239470541477203369140625</LongitudeDegrees>
            </Position>
            <AltitudeMeters>112.8000030517578125</AltitudeMeters>
            <DistanceMeters>NAN</DistanceMeters>
          </Trackpoint>
          <Trackpoint>
            <Time>2022-07-10T07:54:20.000Z</Time>
            <Position>
              <LatitudeDegrees>43.28391085378825664520263671875</LatitudeDegrees>
              <LongitudeDegrees>-2.11126620881259441375732421875</LongitudeDegrees>
            </Position>
            <AltitudeMeters>111.59999847412109375</AltitudeMeters>
            <DistanceMeters>NAN</DistanceMeters>
          </Trackpoint>
          <Trackpoint>
            <Time>2022-07-10T07:54:22.000Z</Time>
            <Position>
              <LatitudeDegrees>43.2837572135031223297119140625</LatitudeDegrees>
              <LongitudeDegrees>-2.11126754991710186004638671875</LongitudeDegrees>
            </Position>
            <AltitudeMeters>110.40000152587890625</AltitudeMeters>
            <DistanceMeters>NAN</DistanceMeters>
          </Trackpoint>
          <Trackpoint>
            <Time>2022-07-10T07:54:23.000Z</Time>
            <Position>
              <LatitudeDegrees>43.283677585422992706298828125</LatitudeDegrees>
              <LongitudeDegrees>-2.11126453243196010589599609375</LongitudeDegrees>
            </Position>
            <AltitudeMeters>109.8000030517578125</AltitudeMeters>
            <DistanceMeters>NAN</DistanceMeters>
          </Trackpoint>
          <Trackpoint>
            <Time>2022-07-10T07:54:25.000Z</Time>
            <Position>
              <LatitudeDegrees>43.28350969590246677398681640625</LatitudeDegrees>
              <LongitudeDegrees>-2.11125933565199375152587890625</LongitudeDegrees>
            </Position>
            <AltitudeMeters>109</AltitudeMeters>
            <DistanceMeters>NAN</DistanceMeters>
          </Trackpoint>
          <Trackpoint>
            <Time>2022-07-10T07:54:27.000Z</Time>
            <Position>
              <LatitudeDegrees>43.28334440477192401885986328125</LatitudeDegrees>
              <LongitudeDegrees>-2.1112587489187717437744140625</LongitudeDegrees>
            </Position>
            <AltitudeMeters>107.40000152587890625</AltitudeMeters>
            <DistanceMeters>NAN</DistanceMeters>
          </Trackpoint>
          <Trackpoint>
            <Time>2022-07-10T07:54:29.000Z</Time>
            <Position>
              <LatitudeDegrees>43.283179365098476409912109375</LatitudeDegrees>
              <LongitudeDegrees>-2.1112728305160999298095703125</LongitudeDegrees>
            </Position>
            <AltitudeMeters>106.40000152587890625</AltitudeMeters>
            <DistanceMeters>NAN</DistanceMeters>
          </Trackpoint>
          <Trackpoint>
            <Time>2022-07-10T07:54:31.000Z</Time>
            <Position>
              <LatitudeDegrees>43.28301399014890193939208984375</LatitudeDegrees>
              <LongitudeDegrees>-2.1113080345094203948974609375</LongitudeDegrees>
            </Position>
            <AltitudeMeters>105.8000030517578125</AltitudeMeters>
            <DistanceMeters>NAN</DistanceMeters>
          </Trackpoint>
          <Trackpoint>
            <Time>2022-07-10T07:54:32.000Z</Time>
            <Position>
              <LatitudeDegrees>43.28292899765074253082275390625</LatitudeDegrees>
              <LongitudeDegrees>-2.11134131066501140594482421875</LongitudeDegrees>
            </Position>
            <AltitudeMeters>105.1999969482421875</AltitudeMeters>
            <DistanceMeters>NAN</DistanceMeters>
          </Trackpoint>
          <Trackpoint>
            <Time>2022-07-10T07:54:33.000Z</Time>
            <Position>
              <LatitudeDegrees>43.282852135598659515380859375</LatitudeDegrees>
              <LongitudeDegrees>-2.11139059625566005706787109375</LongitudeDegrees>
            </Position>
            <AltitudeMeters>104.40000152587890625</AltitudeMeters>
            <DistanceMeters>NAN</DistanceMeters>
          </Trackpoint>
          <Trackpoint>
            <Time>2022-07-10T07:54:34.000Z</Time>
            <Position>
              <LatitudeDegrees>43.28278080560266971588134765625</LatitudeDegrees>
              <LongitudeDegrees>-2.1114522032439708709716796875</LongitudeDegrees>
            </Position>
            <AltitudeMeters>103.8000030517578125</AltitudeMeters>
            <DistanceMeters>NAN</DistanceMeters>
          </Trackpoint>
          <Trackpoint>
            <Time>2022-07-10T07:54:36.000Z</Time>
            <Position>
              <LatitudeDegrees>43.28265859745442867279052734375</LatitudeDegrees>
              <LongitudeDegrees>-2.1115876547992229461669921875</LongitudeDegrees>
            </Position>
            <AltitudeMeters>102.40000152587890625</AltitudeMeters>
            <DistanceMeters>NAN</DistanceMeters>
          </Trackpoint>
          <Trackpoint>
            <Time>2022-07-10T07:54:37.000Z</Time>
            <Position>
              <LatitudeDegrees>43.28260260634124279022216796875</LatitudeDegrees>
              <LongitudeDegrees>-2.1116439811885356903076171875</LongitudeDegrees>
            </Position>
            <AltitudeMeters>101.59999847412109375</AltitudeMeters>
            <DistanceMeters>NAN</DistanceMeters>
          </Trackpoint>
          <Trackpoint>
            <Time>2022-07-10T07:54:38.000Z</Time>
            <Position>
              <LatitudeDegrees>43.28255080617964267730712890625</LatitudeDegrees>
              <LongitudeDegrees>-2.111690752208232879638671875</LongitudeDegrees>
            </Position>
            <AltitudeMeters>100.40000152587890625</AltitudeMeters>
            <DistanceMeters>NAN</DistanceMeters>
          </Trackpoint>
          <Trackpoint>
            <Time>2022-07-10T07:54:39.000Z</Time>
            <Position>
              <LatitudeDegrees>43.28250939957797527313232421875</LatitudeDegrees>
              <LongitudeDegrees>-2.111732326447963714599609375</LongitudeDegrees>
            </Position>
            <AltitudeMeters>99.1999969482421875</AltitudeMeters>
            <DistanceMeters>NAN</DistanceMeters>
          </Trackpoint>
          <Trackpoint>
            <Time>2022-07-10T07:54:40.000Z</Time>
            <Position>
              <LatitudeDegrees>43.28247805126011371612548828125</LatitudeDegrees>
              <LongitudeDegrees>-2.111772559583187103271484375</LongitudeDegrees>
            </Position>
            <AltitudeMeters>97.8000030517578125</AltitudeMeters>
            <DistanceMeters>NAN</DistanceMeters>
          </Trackpoint>
          <Trackpoint>
            <Time>2022-07-10T07:54:41.000Z</Time>
            <Position>
              <LatitudeDegrees>43.28245743177831172943115234375</LatitudeDegrees>
              <LongitudeDegrees>-2.111818157136440277099609375</LongitudeDegrees>
            </Position>
            <AltitudeMeters>97</AltitudeMeters>
            <DistanceMeters>NAN</DistanceMeters>
          </Trackpoint>
          <Trackpoint>
            <Time>2022-07-10T07:54:42.000Z</Time>
            <Position>
              <LatitudeDegrees>43.2824459485709667205810546875</LatitudeDegrees>
              <LongitudeDegrees>-2.11186744272708892822265625</LongitudeDegrees>
            </Position>
            <AltitudeMeters>96.40000152587890625</AltitudeMeters>
            <DistanceMeters>NAN</DistanceMeters>
          </Trackpoint>
          <Trackpoint>
            <Time>2022-07-10T07:54:43.000Z</Time>
            <Position>
              <LatitudeDegrees>43.28243915922939777374267578125</LatitudeDegrees>
              <LongitudeDegrees>-2.111919410526752471923828125</LongitudeDegrees>
            </Position>
            <AltitudeMeters>96</AltitudeMeters>
            <DistanceMeters>NAN</DistanceMeters>
          </Trackpoint>
          <Trackpoint>
            <Time>2022-07-10T07:54:44.000Z</Time>
            <Position>
              <LatitudeDegrees>43.282424323260784149169921875</LatitudeDegrees>
              <LongitudeDegrees>-2.1120255254209041595458984375</LongitudeDegrees>
            </Position>
            <AltitudeMeters>95.8000030517578125</AltitudeMeters>
            <DistanceMeters>NAN</DistanceMeters>
          </Trackpoint>
          <Trackpoint>
            <Time>2022-07-10T07:54:46.000Z</Time>
            <Position>
              <LatitudeDegrees>43.28240982256829738616943359375</LatitudeDegrees>
              <LongitudeDegrees>-2.112074978649616241455078125</LongitudeDegrees>
            </Position>
            <AltitudeMeters>95.8000030517578125</AltitudeMeters>
            <DistanceMeters>NAN</DistanceMeters>
          </Trackpoint>
          <Trackpoint>
            <Time>2022-07-10T07:54:49.000Z</Time>
            <Position>
              <LatitudeDegrees>43.2823306135833263397216796875</LatitudeDegrees>
              <LongitudeDegrees>-2.112184278666973114013671875</LongitudeDegrees>
            </Position>
            <AltitudeMeters>95.40000152587890625</AltitudeMeters>
            <DistanceMeters>NAN</DistanceMeters>
          </Trackpoint>
          <Trackpoint>
            <Time>2022-07-10T07:54:50.000Z</Time>
            <Position>
              <LatitudeDegrees>43.28230605460703372955322265625</LatitudeDegrees>
              <LongitudeDegrees>-2.11220380850136280059814453125</LongitudeDegrees>
            </Position>
            <AltitudeMeters>95.40000152587890625</AltitudeMeters>
            <DistanceMeters>NAN</DistanceMeters>
          </Trackpoint>
          <Trackpoint>
            <Time>2022-07-10T07:54:55.000Z</Time>
            <Position>
              <LatitudeDegrees>43.2820724509656429290771484375</LatitudeDegrees>
              <LongitudeDegrees>-2.112274803221225738525390625</LongitudeDegrees>
            </Position>
            <AltitudeMeters>94.59999847412109375</AltitudeMeters>
            <DistanceMeters>NAN</DistanceMeters>
          </Trackpoint>
          <Trackpoint>
            <Time>2022-07-10T07:54:57.000Z</Time>
            <Position>
              <LatitudeDegrees>43.28198586590588092803955078125</LatitudeDegrees>
              <LongitudeDegrees>-2.11233942769467830657958984375</LongitudeDegrees>
            </Position>
            <AltitudeMeters>94.59999847412109375</AltitudeMeters>
            <DistanceMeters>NAN</DistanceMeters>
          </Trackpoint>
          <Trackpoint>
            <Time>2022-07-10T07:54:59.000Z</Time>
            <Position>
              <LatitudeDegrees>43.281912021338939666748046875</LatitudeDegrees>
              <LongitudeDegrees>-2.11245291866362094879150390625</LongitudeDegrees>
            </Position>
            <AltitudeMeters>94.1999969482421875</AltitudeMeters>
            <DistanceMeters>NAN</DistanceMeters>
          </Trackpoint>
          <Trackpoint>
            <Time>2022-07-10T07:55:01.000Z</Time>
            <Position>
              <LatitudeDegrees>43.2818608917295932769775390625</LatitudeDegrees>
              <LongitudeDegrees>-2.11260044015944004058837890625</LongitudeDegrees>
            </Position>
            <AltitudeMeters>93.59999847412109375</AltitudeMeters>
            <DistanceMeters>NAN</DistanceMeters>
          </Trackpoint>
          <Trackpoint>
            <Time>2022-07-10T07:55:03.000Z</Time>
            <Position>
              <LatitudeDegrees>43.28181873075664043426513671875</LatitudeDegrees>
              <LongitudeDegrees>-2.112761624157428741455078125</LongitudeDegrees>
            </Position>
            <AltitudeMeters>93</AltitudeMeters>
            <DistanceMeters>NAN</DistanceMeters>
          </Trackpoint>
          <Trackpoint>
            <Time>2022-07-10T07:55:04.000Z</Time>
            <Position>
              <LatitudeDegrees>43.2817958481609821319580078125</LatitudeDegrees>
              <LongitudeDegrees>-2.11284351535141468048095703125</LongitudeDegrees>
            </Position>
            <AltitudeMeters>92.8000030517578125</AltitudeMeters>
            <DistanceMeters>NAN</DistanceMeters>
          </Trackpoint>
          <Trackpoint>
            <Time>2022-07-10T07:55:06.000Z</Time>
            <Position>
              <LatitudeDegrees>43.281753771007061004638671875</LatitudeDegrees>
              <LongitudeDegrees>-2.1130135841667652130126953125</LongitudeDegrees>
            </Position>
            <AltitudeMeters>92</AltitudeMeters>
            <DistanceMeters>NAN</DistanceMeters>
          </Trackpoint>
          <Trackpoint>
            <Time>2022-07-10T07:55:09.000Z</Time>
            <Position>
              <LatitudeDegrees>43.2816704548895359039306640625</LatitudeDegrees>
              <LongitudeDegrees>-2.1132804639637470245361328125</LongitudeDegrees>
            </Position>
            <AltitudeMeters>90.59999847412109375</AltitudeMeters>
            <DistanceMeters>NAN</DistanceMeters>
          </Trackpoint>
          <Trackpoint>
            <Time>2022-07-10T07:55:10.000Z</Time>
            <Position>
              <LatitudeDegrees>43.2816360890865325927734375</LatitudeDegrees>
              <LongitudeDegrees>-2.11337593384087085723876953125</LongitudeDegrees>
            </Position>
            <AltitudeMeters>90</AltitudeMeters>
            <DistanceMeters>NAN</DistanceMeters>
          </Trackpoint>
          <Trackpoint>
            <Time>2022-07-10T07:55:11.000Z</Time>
            <Position>
              <LatitudeDegrees>43.28160189092159271240234375</LatitudeDegrees>
              <LongitudeDegrees>-2.1134747564792633056640625</LongitudeDegrees>
            </Position>
            <AltitudeMeters>89.40000152587890625</AltitudeMeters>
            <DistanceMeters>NAN</DistanceMeters>
          </Trackpoint>
          <Trackpoint>
            <Time>2022-07-10T07:55:13.000Z</Time>
            <Position>
              <LatitudeDegrees>43.28153257258236408233642578125</LatitudeDegrees>
              <LongitudeDegrees>-2.11367717944085597991943359375</LongitudeDegrees>
            </Position>
            <AltitudeMeters>88</AltitudeMeters>
            <DistanceMeters>NAN</DistanceMeters>
          </Trackpoint>
          <Trackpoint>
            <Time>2022-07-10T07:55:15.000Z</Time>
            <Position>
              <LatitudeDegrees>43.2814495079219341278076171875</LatitudeDegrees>
              <LongitudeDegrees>-2.11388840340077877044677734375</LongitudeDegrees>
            </Position>
            <AltitudeMeters>86.59999847412109375</AltitudeMeters>
            <DistanceMeters>NAN</DistanceMeters>
          </Trackpoint>
          <Trackpoint>
            <Time>2022-07-10T07:55:16.000Z</Time>
            <Position>
              <LatitudeDegrees>43.28140248544514179229736328125</LatitudeDegrees>
              <LongitudeDegrees>-2.11398772895336151123046875</LongitudeDegrees>
            </Position>
            <AltitudeMeters>86.1999969482421875</AltitudeMeters>
            <DistanceMeters>NAN</DistanceMeters>
          </Trackpoint>
          <Trackpoint>
            <Time>2022-07-10T07:55:18.000Z</Time>
            <Position>
              <LatitudeDegrees>43.281300477683544158935546875</LatitudeDegrees>
              <LongitudeDegrees>-2.11417975835502147674560546875</LongitudeDegrees>
            </Position>
            <AltitudeMeters>85</AltitudeMeters>
            <DistanceMeters>NAN</DistanceMeters>
          </Trackpoint>
          <Trackpoint>
            <Time>2022-07-10T07:55:27.000Z</Time>
            <Position>
              <LatitudeDegrees>43.28094416297972202301025390625</LatitudeDegrees>
              <LongitudeDegrees>-2.11473145522177219390869140625</LongitudeDegrees>
            </Position>
            <AltitudeMeters>82.59999847412109375</AltitudeMeters>
            <DistanceMeters>NAN</DistanceMeters>
          </Trackpoint>
          <Trackpoint>
            <Time>2022-07-10T07:55:28.000Z</Time>
            <Position>
              <LatitudeDegrees>43.28088448382914066314697265625</LatitudeDegrees>
              <LongitudeDegrees>-2.1147687546908855438232421875</LongitudeDegrees>
            </Position>
            <AltitudeMeters>82.59999847412109375</AltitudeMeters>
            <DistanceMeters>NAN</DistanceMeters>
          </Trackpoint>
          <Trackpoint>
            <Time>2022-07-10T07:55:32.000Z</Time>
            <Position>
              <LatitudeDegrees>43.28082807362079620361328125</LatitudeDegrees>
              <LongitudeDegrees>-2.11477755568921566009521484375</LongitudeDegrees>
            </Position>
            <AltitudeMeters>83.8000030517578125</AltitudeMeters>
            <DistanceMeters>NAN</DistanceMeters>
          </Trackpoint>
          <Trackpoint>
            <Time>2022-07-10T07:55:33.000Z</Time>
            <Position>
              <LatitudeDegrees>43.28081332147121429443359375</LatitudeDegrees>
              <LongitudeDegrees>-2.11478074081242084503173828125</LongitudeDegrees>
            </Position>
            <AltitudeMeters>84</AltitudeMeters>
            <DistanceMeters>NAN</DistanceMeters>
          </Trackpoint>
          <Trackpoint>
            <Time>2022-07-10T07:55:34.000Z</Time>
            <Position>
              <LatitudeDegrees>43.2808030955493450164794921875</LatitudeDegrees>
              <LongitudeDegrees>-2.11479448713362216949462890625</LongitudeDegrees>
            </Position>
            <AltitudeMeters>84</AltitudeMeters>
            <DistanceMeters>NAN</DistanceMeters>
          </Trackpoint>
          <Trackpoint>
            <Time>2022-07-10T07:55:36.000Z</Time>
            <Position>
              <LatitudeDegrees>43.28079144470393657684326171875</LatitudeDegrees>
              <LongitudeDegrees>-2.1148190461099147796630859375</LongitudeDegrees>
            </Position>
            <AltitudeMeters>84.40000152587890625</AltitudeMeters>
            <DistanceMeters>NAN</DistanceMeters>
          </Trackpoint>
          <Trackpoint>
            <Time>2022-07-10T07:55:38.000Z</Time>
            <Position>
              <LatitudeDegrees>43.2807816378772258758544921875</LatitudeDegrees>
              <LongitudeDegrees>-2.114835642278194427490234375</LongitudeDegrees>
            </Position>
            <AltitudeMeters>85</AltitudeMeters>
            <DistanceMeters>NAN</DistanceMeters>
          </Trackpoint>
          <Trackpoint>
            <Time>2022-07-10T07:55:39.000Z</Time>
            <Position>
              <LatitudeDegrees>43.28077233396470546722412109375</LatitudeDegrees>
              <LongitudeDegrees>-2.1148565970361232757568359375</LongitudeDegrees>
            </Position>
            <AltitudeMeters>85.1999969482421875</AltitudeMeters>
            <DistanceMeters>NAN</DistanceMeters>
          </Trackpoint>
          <Trackpoint>
            <Time>2022-07-10T07:55:43.000Z</Time>
            <Position>
              <LatitudeDegrees>43.2807648740708827972412109375</LatitudeDegrees>
              <LongitudeDegrees>-2.1149216406047344207763671875</LongitudeDegrees>
            </Position>
            <AltitudeMeters>85.8000030517578125</AltitudeMeters>
            <DistanceMeters>NAN</DistanceMeters>
          </Trackpoint>
          <Trackpoint>
            <Time>2022-07-10T07:55:45.000Z</Time>
            <Position>
              <LatitudeDegrees>43.2807521335780620574951171875</LatitudeDegrees>
              <LongitudeDegrees>-2.11493262089788913726806640625</LongitudeDegrees>
            </Position>
            <AltitudeMeters>86.1999969482421875</AltitudeMeters>
            <DistanceMeters>NAN</DistanceMeters>
          </Trackpoint>
          <Trackpoint>
            <Time>2022-07-10T07:55:47.000Z</Time>
            <Position>
              <LatitudeDegrees>43.28074266202747821807861328125</LatitudeDegrees>
              <LongitudeDegrees>-2.114967070519924163818359375</LongitudeDegrees>
            </Position>
            <AltitudeMeters>86.59999847412109375</AltitudeMeters>
            <DistanceMeters>NAN</DistanceMeters>
          </Trackpoint>
          <Trackpoint>
            <Time>2022-07-10T07:55:50.000Z</Time>
            <Position>
              <LatitudeDegrees>43.28071969561278820037841796875</LatitudeDegrees>
              <LongitudeDegrees>-2.115008644759654998779296875</LongitudeDegrees>
            </Position>
            <AltitudeMeters>87.1999969482421875</AltitudeMeters>
            <DistanceMeters>NAN</DistanceMeters>
          </Trackpoint>
          <Trackpoint>
            <Time>2022-07-10T07:55:51.000Z</Time>
            <Position>
              <LatitudeDegrees>43.28070628456771373748779296875</LatitudeDegrees>
              <LongitudeDegrees>-2.11501526646316051483154296875</LongitudeDegrees>
            </Position>
            <AltitudeMeters>87.59999847412109375</AltitudeMeters>
            <DistanceMeters>NAN</DistanceMeters>
          </Trackpoint>
          <Trackpoint>
            <Time>2022-07-10T07:55:53.000Z</Time>
            <Position>
              <LatitudeDegrees>43.280678875744342803955078125</LatitudeDegrees>
              <LongitudeDegrees>-2.11503052152693271636962890625</LongitudeDegrees>
            </Position>
            <AltitudeMeters>87.8000030517578125</AltitudeMeters>
            <DistanceMeters>NAN</DistanceMeters>
          </Trackpoint>
          <Trackpoint>
            <Time>2022-07-10T07:55:55.000Z</Time>
            <Position>
              <LatitudeDegrees>43.28066789545118808746337890625</LatitudeDegrees>
              <LongitudeDegrees>-2.11505927145481109619140625</LongitudeDegrees>
            </Position>
            <AltitudeMeters>88.40000152587890625</AltitudeMeters>
            <DistanceMeters>NAN</DistanceMeters>
          </Trackpoint>
          <Trackpoint>
            <Time>2022-07-10T07:55:57.000Z</Time>
            <Position>
              <LatitudeDegrees>43.28064710833132266998291015625</LatitudeDegrees>
              <LongitudeDegrees>-2.1150852553546428680419921875</LongitudeDegrees>
            </Position>
            <AltitudeMeters>88.8000030517578125</AltitudeMeters>
            <DistanceMeters>NAN</DistanceMeters>
          </Trackpoint>
          <Trackpoint>
            <Time>2022-07-10T07:55:59.000Z</Time>
            <Position>
              <LatitudeDegrees>43.28062690794467926025390625</LatitudeDegrees>
              <LongitudeDegrees>-2.11509690620005130767822265625</LongitudeDegrees>
            </Position>
            <AltitudeMeters>89.1999969482421875</AltitudeMeters>
            <DistanceMeters>NAN</DistanceMeters>
          </Trackpoint>
          <Trackpoint>
            <Time>2022-07-10T07:56:00.000Z</Time>
            <Position>
              <LatitudeDegrees>43.28062145970761775970458984375</LatitudeDegrees>
              <LongitudeDegrees>-2.11510042659938335418701171875</LongitudeDegrees>
            </Position>
            <AltitudeMeters>89.40000152587890625</AltitudeMeters>
            <DistanceMeters>NAN</DistanceMeters>
          </Trackpoint>
          <Trackpoint>
            <Time>2022-07-10T07:56:02.000Z</Time>
            <Position>
              <LatitudeDegrees>43.28061425127089023590087890625</LatitudeDegrees>
              <LongitudeDegrees>-2.1151207946240901947021484375</LongitudeDegrees>
            </Position>
            <AltitudeMeters>90</AltitudeMeters>
            <DistanceMeters>NAN</DistanceMeters>
          </Trackpoint>
          <Trackpoint>
            <Time>2022-07-10T07:56:05.000Z</Time>
            <Position>
              <LatitudeDegrees>43.28059916384518146514892578125</LatitudeDegrees>
              <LongitudeDegrees>-2.11516127921640872955322265625</LongitudeDegrees>
            </Position>
            <AltitudeMeters>90.59999847412109375</AltitudeMeters>
            <DistanceMeters>NAN</DistanceMeters>
          </Trackpoint>
          <Trackpoint>
            <Time>2022-07-10T07:56:07.000Z</Time>
            <Position>
              <LatitudeDegrees>43.28058424405753612518310546875</LatitudeDegrees>
              <LongitudeDegrees>-2.1151922084391117095947265625</LongitudeDegrees>
            </Position>
            <AltitudeMeters>91</AltitudeMeters>
            <DistanceMeters>NAN</DistanceMeters>
          </Trackpoint>
          <Trackpoint>
            <Time>2022-07-10T07:56:09.000Z</Time>
            <Position>
              <LatitudeDegrees>43.28057594597339630126953125</LatitudeDegrees>
              <LongitudeDegrees>-2.11522422730922698974609375</LongitudeDegrees>
            </Position>
            <AltitudeMeters>91.59999847412109375</AltitudeMeters>
            <DistanceMeters>NAN</DistanceMeters>
          </Trackpoint>
          <Trackpoint>
            <Time>2022-07-10T07:56:13.000Z</Time>
            <Position>
              <LatitudeDegrees>43.280546776950359344482421875</LatitudeDegrees>
              <LongitudeDegrees>-2.1152797155082225799560546875</LongitudeDegrees>
            </Position>
            <AltitudeMeters>92.40000152587890625</AltitudeMeters>
            <DistanceMeters>NAN</DistanceMeters>
          </Trackpoint>
          <Trackpoint>
            <Time>2022-07-10T07:56:15.000Z</Time>
            <Position>
              <LatitudeDegrees>43.28052900731563568115234375</LatitudeDegrees>
              <LongitudeDegrees>-2.1153082139790058135986328125</LongitudeDegrees>
            </Position>
            <AltitudeMeters>92.8000030517578125</AltitudeMeters>
            <DistanceMeters>NAN</DistanceMeters>
          </Trackpoint>
          <Trackpoint>
            <Time>2022-07-10T07:56:16.000Z</Time>
            <Position>
              <LatitudeDegrees>43.280521295964717864990234375</LatitudeDegrees>
              <LongitudeDegrees>-2.11532304994761943817138671875</LongitudeDegrees>
            </Position>
            <AltitudeMeters>93</AltitudeMeters>
            <DistanceMeters>NAN</DistanceMeters>
          </Trackpoint>
          <Trackpoint>
            <Time>2022-07-10T07:56:21.000Z</Time>
            <Position>
              <LatitudeDegrees>43.28049338422715663909912109375</LatitudeDegrees>
              <LongitudeDegrees>-2.11539697833359241485595703125</LongitudeDegrees>
            </Position>
            <AltitudeMeters>94</AltitudeMeters>
            <DistanceMeters>NAN</DistanceMeters>
          </Trackpoint>
          <Trackpoint>
            <Time>2022-07-10T07:56:23.000Z</Time>
            <Position>
              <LatitudeDegrees>43.28048299066722393035888671875</LatitudeDegrees>
              <LongitudeDegrees>-2.11542597971856594085693359375</LongitudeDegrees>
            </Position>
            <AltitudeMeters>94.40000152587890625</AltitudeMeters>
            <DistanceMeters>NAN</DistanceMeters>
          </Trackpoint>
          <Trackpoint>
            <Time>2022-07-10T07:56:25.000Z</Time>
            <Position>
              <LatitudeDegrees>43.28047360293567180633544921875</LatitudeDegrees>
              <LongitudeDegrees>-2.1154486946761608123779296875</LongitudeDegrees>
            </Position>
            <AltitudeMeters>94.59999847412109375</AltitudeMeters>
            <DistanceMeters>NAN</DistanceMeters>
          </Trackpoint>
          <Trackpoint>
            <Time>2022-07-10T07:56:27.000Z</Time>
            <Position>
              <LatitudeDegrees>43.2804668135941028594970703125</LatitudeDegrees>
              <LongitudeDegrees>-2.1154785342514514923095703125</LongitudeDegrees>
            </Position>
            <AltitudeMeters>95</AltitudeMeters>
            <DistanceMeters>NAN</DistanceMeters>
          </Trackpoint>
          <Trackpoint>
            <Time>2022-07-10T07:56:31.000Z</Time>
            <Position>
              <LatitudeDegrees>43.280475027859210968017578125</LatitudeDegrees>
              <LongitudeDegrees>-2.115534357726573944091796875</LongitudeDegrees>
            </Position>
            <AltitudeMeters>95.59999847412109375</AltitudeMeters>
            <DistanceMeters>NAN</DistanceMeters>
          </Trackpoint>
          <Trackpoint>
            <Time>2022-07-10T07:56:32.000Z</Time>
            <Position>
              <LatitudeDegrees>43.28047544695436954498291015625</LatitudeDegrees>
              <LongitudeDegrees>-2.11554902605712413787841796875</LongitudeDegrees>
            </Position>
            <AltitudeMeters>95.59999847412109375</AltitudeMeters>
            <DistanceMeters>NAN</DistanceMeters>
          </Trackpoint>
          <Trackpoint>
            <Time>2022-07-10T07:56:34.000Z</Time>
            <Position>
              <LatitudeDegrees>43.28047712333500385284423828125</LatitudeDegrees>
              <LongitudeDegrees>-2.1155844815075397491455078125</LongitudeDegrees>
            </Position>
            <AltitudeMeters>96</AltitudeMeters>
            <DistanceMeters>NAN</DistanceMeters>
          </Trackpoint>
          <Trackpoint>
            <Time>2022-07-10T07:56:37.000Z</Time>
            <Position>
              <LatitudeDegrees>43.2804879359900951385498046875</LatitudeDegrees>
              <LongitudeDegrees>-2.11562278680503368377685546875</LongitudeDegrees>
            </Position>
            <AltitudeMeters>96.40000152587890625</AltitudeMeters>
            <DistanceMeters>NAN</DistanceMeters>
          </Trackpoint>
          <Trackpoint>
            <Time>2022-07-10T07:56:38.000Z</Time>
            <Position>
              <LatitudeDegrees>43.28049304895102977752685546875</LatitudeDegrees>
              <LongitudeDegrees>-2.11563267745077610015869140625</LongitudeDegrees>
            </Position>
            <AltitudeMeters>96.59999847412109375</AltitudeMeters>
            <DistanceMeters>NAN</DistanceMeters>
          </Trackpoint>
          <Trackpoint>
            <Time>2022-07-10T07:56:40.000Z</Time>
            <Position>
              <LatitudeDegrees>43.28050620853900909423828125</LatitudeDegrees>
              <LongitudeDegrees>-2.115648351609706878662109375</LongitudeDegrees>
            </Position>
            <AltitudeMeters>96.8000030517578125</AltitudeMeters>
            <DistanceMeters>NAN</DistanceMeters>
          </Trackpoint>
          <Trackpoint>
            <Time>2022-07-10T07:56:42.000Z</Time>
            <Position>
              <LatitudeDegrees>43.28051953576505184173583984375</LatitudeDegrees>
              <LongitudeDegrees>-2.11566838435828685760498046875</LongitudeDegrees>
            </Position>
            <AltitudeMeters>97</AltitudeMeters>
            <DistanceMeters>NAN</DistanceMeters>
          </Trackpoint>
          <Trackpoint>
            <Time>2022-07-10T07:56:44.000Z</Time>
            <Position>
              <LatitudeDegrees>43.2805241458117961883544921875</LatitudeDegrees>
              <LongitudeDegrees>-2.115695960819721221923828125</LongitudeDegrees>
            </Position>
            <AltitudeMeters>97.40000152587890625</AltitudeMeters>
            <DistanceMeters>NAN</DistanceMeters>
          </Trackpoint>
          <Trackpoint>
            <Time>2022-07-10T07:56:45.000Z</Time>
            <Position>
              <LatitudeDegrees>43.28052892349660396575927734375</LatitudeDegrees>
              <LongitudeDegrees>-2.11571197025477886199951171875</LongitudeDegrees>
            </Position>
            <AltitudeMeters>97.40000152587890625</AltitudeMeters>
            <DistanceMeters>NAN</DistanceMeters>
          </Trackpoint>
          <Trackpoint>
            <Time>2022-07-10T07:56:50.000Z</Time>
            <Position>
              <LatitudeDegrees>43.28054786659777164459228515625</LatitudeDegrees>
              <LongitudeDegrees>-2.1157655306160449981689453125</LongitudeDegrees>
            </Position>
            <AltitudeMeters>98</AltitudeMeters>
            <DistanceMeters>NAN</DistanceMeters>
          </Trackpoint>
          <Trackpoint>
            <Time>2022-07-10T07:56:51.000Z</Time>
            <Position>
              <LatitudeDegrees>43.28055046498775482177734375</LatitudeDegrees>
              <LongitudeDegrees>-2.11576930247247219085693359375</LongitudeDegrees>
            </Position>
            <AltitudeMeters>98.1999969482421875</AltitudeMeters>
            <DistanceMeters>NAN</DistanceMeters>
          </Trackpoint>
          <Trackpoint>
            <Time>2022-07-10T07:56:53.000Z</Time>
            <Position>
              <LatitudeDegrees>43.280562870204448699951171875</LatitudeDegrees>
              <LongitudeDegrees>-2.11578547954559326171875</LongitudeDegrees>
            </Position>
            <AltitudeMeters>98.40000152587890625</AltitudeMeters>
            <DistanceMeters>NAN</DistanceMeters>
          </Trackpoint>
          <Trackpoint>
            <Time>2022-07-10T07:56:54.000Z</Time>
            <Position>
              <LatitudeDegrees>43.28057058155536651611328125</LatitudeDegrees>
              <LongitudeDegrees>-2.115802578628063201904296875</LongitudeDegrees>
            </Position>
            <AltitudeMeters>98.59999847412109375</AltitudeMeters>
            <DistanceMeters>NAN</DistanceMeters>
          </Trackpoint>
          <Trackpoint>
            <Time>2022-07-10T07:56:56.000Z</Time>
            <Position>
              <LatitudeDegrees>43.2805764488875865936279296875</LatitudeDegrees>
              <LongitudeDegrees>-2.11584071628749370574951171875</LongitudeDegrees>
            </Position>
            <AltitudeMeters>98.8000030517578125</AltitudeMeters>
            <DistanceMeters>NAN</DistanceMeters>
          </Trackpoint>
          <Trackpoint>
            <Time>2022-07-10T07:56:58.000Z</Time>
            <Position>
              <LatitudeDegrees>43.280590362846851348876953125</LatitudeDegrees>
              <LongitudeDegrees>-2.1158600784838199615478515625</LongitudeDegrees>
            </Position>
            <AltitudeMeters>99</AltitudeMeters>
            <DistanceMeters>NAN</DistanceMeters>
          </Trackpoint>
          <Trackpoint>
            <Time>2022-07-10T07:57:01.000Z</Time>
            <Position>
              <LatitudeDegrees>43.28060754574835300445556640625</LatitudeDegrees>
              <LongitudeDegrees>-2.1158946119248867034912109375</LongitudeDegrees>
            </Position>
            <AltitudeMeters>99.40000152587890625</AltitudeMeters>
            <DistanceMeters>NAN</DistanceMeters>
          </Trackpoint>
          <Trackpoint>
            <Time>2022-07-10T07:57:04.000Z</Time>
            <Position>
              <LatitudeDegrees>43.280617184937000274658203125</LatitudeDegrees>
              <LongitudeDegrees>-2.11594012565910816192626953125</LongitudeDegrees>
            </Position>
            <AltitudeMeters>99.8000030517578125</AltitudeMeters>
            <DistanceMeters>NAN</DistanceMeters>
          </Trackpoint>
          <Trackpoint>
            <Time>2022-07-10T07:57:06.000Z</Time>
            <Position>
              <LatitudeDegrees>43.28062263317406177520751953125</LatitudeDegrees>
              <LongitudeDegrees>-2.11597281508147716522216796875</LongitudeDegrees>
            </Position>
            <AltitudeMeters>100</AltitudeMeters>
            <DistanceMeters>NAN</DistanceMeters>
          </Trackpoint>
          <Trackpoint>
            <Time>2022-07-10T07:57:07.000Z</Time>
            <Position>
              <LatitudeDegrees>43.28062531538307666778564453125</LatitudeDegrees>
              <LongitudeDegrees>-2.115985639393329620361328125</LongitudeDegrees>
            </Position>
            <AltitudeMeters>100.1999969482421875</AltitudeMeters>
            <DistanceMeters>NAN</DistanceMeters>
          </Trackpoint>
          <Trackpoint>
            <Time>2022-07-10T07:57:10.000Z</Time>
            <Position>
              <LatitudeDegrees>43.2806461863219738006591796875</LatitudeDegrees>
              <LongitudeDegrees>-2.1160347573459148406982421875</LongitudeDegrees>
            </Position>
            <AltitudeMeters>100.8000030517578125</AltitudeMeters>
            <DistanceMeters>NAN</DistanceMeters>
          </Trackpoint>
          <Trackpoint>
            <Time>2022-07-10T07:57:13.000Z</Time>
            <Position>
              <LatitudeDegrees>43.28066085465252399444580078125</LatitudeDegrees>
              <LongitudeDegrees>-2.11606132797896862030029296875</LongitudeDegrees>
            </Position>
            <AltitudeMeters>101</AltitudeMeters>
            <DistanceMeters>NAN</DistanceMeters>
          </Trackpoint>
          <Trackpoint>
            <Time>2022-07-10T07:57:14.000Z</Time>
            <Position>
              <LatitudeDegrees>43.28066370449960231781005859375</LatitudeDegrees>
              <LongitudeDegrees>-2.116074152290821075439453125</LongitudeDegrees>
            </Position>
            <AltitudeMeters>101</AltitudeMeters>
            <DistanceMeters>NAN</DistanceMeters>
          </Trackpoint>
          <Trackpoint>
            <Time>2022-07-10T07:57:16.000Z</Time>
            <Position>
              <LatitudeDegrees>43.2806676439940929412841796875</LatitudeDegrees>
              <LongitudeDegrees>-2.116102315485477447509765625</LongitudeDegrees>
            </Position>
            <AltitudeMeters>101.1999969482421875</AltitudeMeters>
            <DistanceMeters>NAN</DistanceMeters>
          </Trackpoint>
          <Trackpoint>
            <Time>2022-07-10T07:57:19.000Z</Time>
            <Position>
              <LatitudeDegrees>43.28068113885819911956787109375</LatitudeDegrees>
              <LongitudeDegrees>-2.11614430882036685943603515625</LongitudeDegrees>
            </Position>
            <AltitudeMeters>101.8000030517578125</AltitudeMeters>
            <DistanceMeters>NAN</DistanceMeters>
          </Trackpoint>
          <Trackpoint>
            <Time>2022-07-10T07:57:21.000Z</Time>
            <Position>
              <LatitudeDegrees>43.2806894369423389434814453125</LatitudeDegrees>
              <LongitudeDegrees>-2.1161650121212005615234375</LongitudeDegrees>
            </Position>
            <AltitudeMeters>102</AltitudeMeters>
            <DistanceMeters>NAN</DistanceMeters>
          </Trackpoint>
          <Trackpoint>
            <Time>2022-07-10T07:57:23.000Z</Time>
            <Position>
              <LatitudeDegrees>43.280701339244842529296875</LatitudeDegrees>
              <LongitudeDegrees>-2.1161913312971591949462890625</LongitudeDegrees>
            </Position>
            <AltitudeMeters>102.1999969482421875</AltitudeMeters>
            <DistanceMeters>NAN</DistanceMeters>
          </Trackpoint>
          <Trackpoint>
            <Time>2022-07-10T07:57:27.000Z</Time>
            <Position>
              <LatitudeDegrees>43.28071533702313899993896484375</LatitudeDegrees>
              <LongitudeDegrees>-2.11624355055391788482666015625</LongitudeDegrees>
            </Position>
            <AltitudeMeters>102.8000030517578125</AltitudeMeters>
            <DistanceMeters>NAN</DistanceMeters>
          </Trackpoint>
          <Trackpoint>
            <Time>2022-07-10T07:57:28.000Z</Time>
            <Position>
              <LatitudeDegrees>43.2807159237563610076904296875</LatitudeDegrees>
              <LongitudeDegrees>-2.11624975316226482391357421875</LongitudeDegrees>
            </Position>
            <AltitudeMeters>102.8000030517578125</AltitudeMeters>
            <DistanceMeters>NAN</DistanceMeters>
          </Trackpoint>
          <Trackpoint>
            <Time>2022-07-10T07:57:33.000Z</Time>
            <Position>
              <LatitudeDegrees>43.28072925098240375518798828125</LatitudeDegrees>
              <LongitudeDegrees>-2.11633474566042423248291015625</LongitudeDegrees>
            </Position>
            <AltitudeMeters>103.40000152587890625</AltitudeMeters>
            <DistanceMeters>NAN</DistanceMeters>
          </Trackpoint>
          <Trackpoint>
            <Time>2022-07-10T07:57:36.000Z</Time>
            <Position>
              <LatitudeDegrees>43.28074098564684391021728515625</LatitudeDegrees>
              <LongitudeDegrees>-2.1163777448236942291259765625</LongitudeDegrees>
            </Position>
            <AltitudeMeters>103.8000030517578125</AltitudeMeters>
            <DistanceMeters>NAN</DistanceMeters>
          </Trackpoint>
          <Trackpoint>
            <Time>2022-07-10T07:57:39.000Z</Time>
            <Position>
              <LatitudeDegrees>43.28075389377772808074951171875</LatitudeDegrees>
              <LongitudeDegrees>-2.116409428417682647705078125</LongitudeDegrees>
            </Position>
            <AltitudeMeters>104</AltitudeMeters>
            <DistanceMeters>NAN</DistanceMeters>
          </Trackpoint>
          <Trackpoint>
            <Time>2022-07-10T07:57:40.000Z</Time>
            <Position>
              <LatitudeDegrees>43.28075590543448925018310546875</LatitudeDegrees>
              <LongitudeDegrees>-2.1164278686046600341796875</LongitudeDegrees>
            </Position>
            <AltitudeMeters>104.1999969482421875</AltitudeMeters>
            <DistanceMeters>NAN</DistanceMeters>
          </Trackpoint>
          <Trackpoint>
            <Time>2022-07-10T07:57:42.000Z</Time>
            <Position>
              <LatitudeDegrees>43.28075699508190155029296875</LatitudeDegrees>
              <LongitudeDegrees>-2.11645846255123615264892578125</LongitudeDegrees>
            </Position>
            <AltitudeMeters>104.1999969482421875</AltitudeMeters>
            <DistanceMeters>NAN</DistanceMeters>
          </Trackpoint>
          <Trackpoint>
            <Time>2022-07-10T07:57:43.000Z</Time>
            <Position>
              <LatitudeDegrees>43.2807568274438381195068359375</LatitudeDegrees>
              <LongitudeDegrees>-2.116474807262420654296875</LongitudeDegrees>
            </Position>
            <AltitudeMeters>104.40000152587890625</AltitudeMeters>
            <DistanceMeters>NAN</DistanceMeters>
          </Trackpoint>
          <Trackpoint>
            <Time>2022-07-10T07:57:49.000Z</Time>
            <Position>
              <LatitudeDegrees>43.28075456432998180389404296875</LatitudeDegrees>
              <LongitudeDegrees>-2.1165819279849529266357421875</LongitudeDegrees>
            </Position>
            <AltitudeMeters>104.8000030517578125</AltitudeMeters>
            <DistanceMeters>NAN</DistanceMeters>
          </Trackpoint>
          <Trackpoint>
            <Time>2022-07-10T07:57:51.000Z</Time>
            <Position>
              <LatitudeDegrees>43.28077920712530612945556640625</LatitudeDegrees>
              <LongitudeDegrees>-2.1166127733886241912841796875</LongitudeDegrees>
            </Position>
            <AltitudeMeters>105.1999969482421875</AltitudeMeters>
            <DistanceMeters>NAN</DistanceMeters>
          </Trackpoint>
          <Trackpoint>
            <Time>2022-07-10T07:57:55.000Z</Time>
            <Position>
              <LatitudeDegrees>43.2808081246912479400634765625</LatitudeDegrees>
              <LongitudeDegrees>-2.1166647411882877349853515625</LongitudeDegrees>
            </Position>
            <AltitudeMeters>105.59999847412109375</AltitudeMeters>
            <DistanceMeters>NAN</DistanceMeters>
          </Trackpoint>
          <Trackpoint>
            <Time>2022-07-10T07:57:56.000Z</Time>
            <Position>
              <LatitudeDegrees>43.2808128185570240020751953125</LatitudeDegrees>
              <LongitudeDegrees>-2.11667790077626705169677734375</LongitudeDegrees>
            </Position>
            <AltitudeMeters>105.59999847412109375</AltitudeMeters>
            <DistanceMeters>NAN</DistanceMeters>
          </Trackpoint>
          <Trackpoint>
            <Time>2022-07-10T07:58:02.000Z</Time>
            <Position>
              <LatitudeDegrees>43.280834443867206573486328125</LatitudeDegrees>
              <LongitudeDegrees>-2.11675434373319149017333984375</LongitudeDegrees>
            </Position>
            <AltitudeMeters>106.1999969482421875</AltitudeMeters>
            <DistanceMeters>NAN</DistanceMeters>
          </Trackpoint>
          <Trackpoint>
            <Time>2022-07-10T07:58:03.000Z</Time>
            <Position>
              <LatitudeDegrees>43.28083083964884281158447265625</LatitudeDegrees>
              <LongitudeDegrees>-2.11676909588277339935302734375</LongitudeDegrees>
            </Position>
            <AltitudeMeters>106.1999969482421875</AltitudeMeters>
            <DistanceMeters>NAN</DistanceMeters>
          </Trackpoint>
          <Trackpoint>
            <Time>2022-07-10T07:58:05.000Z</Time>
            <Position>
              <LatitudeDegrees>43.2808314263820648193359375</LatitudeDegrees>
              <LongitudeDegrees>-2.1168062277138233184814453125</LongitudeDegrees>
            </Position>
            <AltitudeMeters>106.59999847412109375</AltitudeMeters>
            <DistanceMeters>NAN</DistanceMeters>
          </Trackpoint>
          <Trackpoint>
            <Time>2022-07-10T07:58:06.000Z</Time>
            <Position>
              <LatitudeDegrees>43.2808356173336505889892578125</LatitudeDegrees>
              <LongitudeDegrees>-2.116818465292453765869140625</LongitudeDegrees>
            </Position>
            <AltitudeMeters>106.59999847412109375</AltitudeMeters>
            <DistanceMeters>NAN</DistanceMeters>
          </Trackpoint>
          <Trackpoint>
            <Time>2022-07-10T07:58:08.000Z</Time>
            <Position>
              <LatitudeDegrees>43.28084123320877552032470703125</LatitudeDegrees>
              <LongitudeDegrees>-2.1168414317071437835693359375</LongitudeDegrees>
            </Position>
            <AltitudeMeters>106.8000030517578125</AltitudeMeters>
            <DistanceMeters>NAN</DistanceMeters>
          </Trackpoint>
          <Trackpoint>
            <Time>2022-07-10T07:58:09.000Z</Time>
            <Position>
              <LatitudeDegrees>43.28084441833198070526123046875</LatitudeDegrees>
              <LongitudeDegrees>-2.11685727350413799285888671875</LongitudeDegrees>
            </Position>
            <AltitudeMeters>106.8000030517578125</AltitudeMeters>
            <DistanceMeters>NAN</DistanceMeters>
          </Trackpoint>
          <Trackpoint>
            <Time>2022-07-10T07:58:11.000Z</Time>
            <Position>
              <LatitudeDegrees>43.280851542949676513671875</LatitudeDegrees>
              <LongitudeDegrees>-2.116894237697124481201171875</LongitudeDegrees>
            </Position>
            <AltitudeMeters>107</AltitudeMeters>
            <DistanceMeters>NAN</DistanceMeters>
          </Trackpoint>
          <Trackpoint>
            <Time>2022-07-10T07:58:14.000Z</Time>
            <Position>
              <LatitudeDegrees>43.28086319379508495330810546875</LatitudeDegrees>
              <LongitudeDegrees>-2.11694084107875823974609375</LongitudeDegrees>
            </Position>
            <AltitudeMeters>107.59999847412109375</AltitudeMeters>
            <DistanceMeters>NAN</DistanceMeters>
          </Trackpoint>
          <Trackpoint>
            <Time>2022-07-10T07:58:15.000Z</Time>
            <Position>
              <LatitudeDegrees>43.28087006695568561553955078125</LatitudeDegrees>
              <LongitudeDegrees>-2.11695735342800617218017578125</LongitudeDegrees>
            </Position>
            <AltitudeMeters>107.8000030517578125</AltitudeMeters>
            <DistanceMeters>NAN</DistanceMeters>
          </Trackpoint>
          <Trackpoint>
            <Time>2022-07-10T07:58:17.000Z</Time>
            <Position>
              <LatitudeDegrees>43.28087727539241313934326171875</LatitudeDegrees>
              <LongitudeDegrees>-2.11698585189878940582275390625</LongitudeDegrees>
            </Position>
            <AltitudeMeters>108</AltitudeMeters>
            <DistanceMeters>NAN</DistanceMeters>
          </Trackpoint>
          <Trackpoint>
            <Time>2022-07-10T07:58:20.000Z</Time>
            <Position>
              <LatitudeDegrees>43.28089890070259571075439453125</LatitudeDegrees>
              <LongitudeDegrees>-2.11702625267207622528076171875</LongitudeDegrees>
            </Position>
            <AltitudeMeters>108.40000152587890625</AltitudeMeters>
            <DistanceMeters>NAN</DistanceMeters>
          </Trackpoint>
          <Trackpoint>
            <Time>2022-07-10T07:58:22.000Z</Time>
            <Position>
              <LatitudeDegrees>43.2809097133576869964599609375</LatitudeDegrees>
              <LongitudeDegrees>-2.11705609224736690521240234375</LongitudeDegrees>
            </Position>
            <AltitudeMeters>108.8000030517578125</AltitudeMeters>
            <DistanceMeters>NAN</DistanceMeters>
          </Trackpoint>
          <Trackpoint>
            <Time>2022-07-10T07:58:23.000Z</Time>
            <Position>
              <LatitudeDegrees>43.28091532923281192779541015625</LatitudeDegrees>
              <LongitudeDegrees>-2.117073945701122283935546875</LongitudeDegrees>
            </Position>
            <AltitudeMeters>109</AltitudeMeters>
            <DistanceMeters>NAN</DistanceMeters>
          </Trackpoint>
          <Trackpoint>
            <Time>2022-07-10T07:58:29.000Z</Time>
            <Position>
              <LatitudeDegrees>43.28094743192195892333984375</LatitudeDegrees>
              <LongitudeDegrees>-2.1171649731695652008056640625</LongitudeDegrees>
            </Position>
            <AltitudeMeters>110</AltitudeMeters>
            <DistanceMeters>NAN</DistanceMeters>
          </Trackpoint>
          <Trackpoint>
            <Time>2022-07-10T07:58:34.000Z</Time>
            <Position>
              <LatitudeDegrees>43.28096562065184116363525390625</LatitudeDegrees>
              <LongitudeDegrees>-2.11724099703133106231689453125</LongitudeDegrees>
            </Position>
            <AltitudeMeters>110.59999847412109375</AltitudeMeters>
            <DistanceMeters>NAN</DistanceMeters>
          </Trackpoint>
          <Trackpoint>
            <Time>2022-07-10T07:58:39.000Z</Time>
            <Position>
              <LatitudeDegrees>43.28098121099174022674560546875</LatitudeDegrees>
              <LongitudeDegrees>-2.117300592362880706787109375</LongitudeDegrees>
            </Position>
            <AltitudeMeters>111</AltitudeMeters>
            <DistanceMeters>NAN</DistanceMeters>
          </Trackpoint>
          <Trackpoint>
            <Time>2022-07-10T07:58:40.000Z</Time>
            <Position>
              <LatitudeDegrees>43.280983306467533111572265625</LatitudeDegrees>
              <LongitudeDegrees>-2.11731542833149433135986328125</LongitudeDegrees>
            </Position>
            <AltitudeMeters>111.1999969482421875</AltitudeMeters>
            <DistanceMeters>NAN</DistanceMeters>
          </Trackpoint>
          <Trackpoint>
            <Time>2022-07-10T07:58:43.000Z</Time>
            <Position>
              <LatitudeDegrees>43.2809781096875667572021484375</LatitudeDegrees>
              <LongitudeDegrees>-2.11736337281763553619384765625</LongitudeDegrees>
            </Position>
            <AltitudeMeters>111.40000152587890625</AltitudeMeters>
            <DistanceMeters>NAN</DistanceMeters>
          </Trackpoint>
          <Trackpoint>
            <Time>2022-07-10T07:58:49.000Z</Time>
            <Position>
              <LatitudeDegrees>43.2809791155159473419189453125</LatitudeDegrees>
              <LongitudeDegrees>-2.11746378801763057708740234375</LongitudeDegrees>
            </Position>
            <AltitudeMeters>112</AltitudeMeters>
            <DistanceMeters>NAN</DistanceMeters>
          </Trackpoint>
          <Trackpoint>
            <Time>2022-07-10T07:58:51.000Z</Time>
            <Position>
              <LatitudeDegrees>43.2809828035533428192138671875</LatitudeDegrees>
              <LongitudeDegrees>-2.11749429814517498016357421875</LongitudeDegrees>
            </Position>
            <AltitudeMeters>112.1999969482421875</AltitudeMeters>
            <DistanceMeters>NAN</DistanceMeters>
          </Trackpoint>
          <Trackpoint>
            <Time>2022-07-10T07:58:58.000Z</Time>
            <Position>
              <LatitudeDegrees>43.2809871621429920196533203125</LatitudeDegrees>
              <LongitudeDegrees>-2.1176214516162872314453125</LongitudeDegrees>
            </Position>
            <AltitudeMeters>112.59999847412109375</AltitudeMeters>
            <DistanceMeters>NAN</DistanceMeters>
          </Trackpoint>
          <Trackpoint>
            <Time>2022-07-10T07:58:59.000Z</Time>
            <Position>
              <LatitudeDegrees>43.28098473139107227325439453125</LatitudeDegrees>
              <LongitudeDegrees>-2.1176444180309772491455078125</LongitudeDegrees>
            </Position>
            <AltitudeMeters>112.59999847412109375</AltitudeMeters>
            <DistanceMeters>NAN</DistanceMeters>
          </Trackpoint>
          <Trackpoint>
            <Time>2022-07-10T07:59:05.000Z</Time>
            <Position>
              <LatitudeDegrees>43.280963860452175140380859375</LatitudeDegrees>
              <LongitudeDegrees>-2.11778414435684680938720703125</LongitudeDegrees>
            </Position>
            <AltitudeMeters>113.1999969482421875</AltitudeMeters>
            <DistanceMeters>NAN</DistanceMeters>
          </Trackpoint>
          <Trackpoint>
            <Time>2022-07-10T07:59:06.000Z</Time>
            <Position>
              <LatitudeDegrees>43.28096176497638225555419921875</LatitudeDegrees>
              <LongitudeDegrees>-2.11780811659991741180419921875</LongitudeDegrees>
            </Position>
            <AltitudeMeters>113.1999969482421875</AltitudeMeters>
            <DistanceMeters>NAN</DistanceMeters>
          </Trackpoint>
          <Trackpoint>
            <Time>2022-07-10T07:59:14.000Z</Time>
            <Position>
              <LatitudeDegrees>43.2809325121343135833740234375</LatitudeDegrees>
              <LongitudeDegrees>-2.117989249527454376220703125</LongitudeDegrees>
            </Position>
            <AltitudeMeters>113.40000152587890625</AltitudeMeters>
            <DistanceMeters>NAN</DistanceMeters>
          </Trackpoint>
          <Trackpoint>
            <Time>2022-07-10T07:59:23.000Z</Time>
            <Position>
              <LatitudeDegrees>43.28086604364216327667236328125</LatitudeDegrees>
              <LongitudeDegrees>-2.11819770745933055877685546875</LongitudeDegrees>
            </Position>
            <AltitudeMeters>114</AltitudeMeters>
            <DistanceMeters>NAN</DistanceMeters>
          </Trackpoint>
          <Trackpoint>
            <Time>2022-07-10T07:59:27.000Z</Time>
            <Position>
              <LatitudeDegrees>43.2808138243854045867919921875</LatitudeDegrees>
              <LongitudeDegrees>-2.11826794780790805816650390625</LongitudeDegrees>
            </Position>
            <AltitudeMeters>114.1999969482421875</AltitudeMeters>
            <DistanceMeters>NAN</DistanceMeters>
          </Trackpoint>
          <Trackpoint>
            <Time>2022-07-10T07:59:33.000Z</Time>
            <Position>
              <LatitudeDegrees>43.28074081800878047943115234375</LatitudeDegrees>
              <LongitudeDegrees>-2.1183696202933788299560546875</LongitudeDegrees>
            </Position>
            <AltitudeMeters>114.8000030517578125</AltitudeMeters>
            <DistanceMeters>NAN</DistanceMeters>
          </Trackpoint>
          <Trackpoint>
            <Time>2022-07-10T07:59:37.000Z</Time>
            <Position>
              <LatitudeDegrees>43.280695639550685882568359375</LatitudeDegrees>
              <LongitudeDegrees>-2.11842083372175693511962890625</LongitudeDegrees>
            </Position>
            <AltitudeMeters>115.1999969482421875</AltitudeMeters>
            <DistanceMeters>NAN</DistanceMeters>
          </Trackpoint>
          <Trackpoint>
            <Time>2022-07-10T07:59:38.000Z</Time>
            <Position>
              <LatitudeDegrees>43.28068516217172145843505859375</LatitudeDegrees>
              <LongitudeDegrees>-2.11843240074813365936279296875</LongitudeDegrees>
            </Position>
            <AltitudeMeters>115.40000152587890625</AltitudeMeters>
            <DistanceMeters>NAN</DistanceMeters>
          </Trackpoint>
          <Trackpoint>
            <Time>2022-07-10T07:59:40.000Z</Time>
            <Position>
              <LatitudeDegrees>43.28066705726087093353271484375</LatitudeDegrees>
              <LongitudeDegrees>-2.1184614859521389007568359375</LongitudeDegrees>
            </Position>
            <AltitudeMeters>115.59999847412109375</AltitudeMeters>
            <DistanceMeters>NAN</DistanceMeters>
          </Trackpoint>
          <Trackpoint>
            <Time>2022-07-10T07:59:50.000Z</Time>
            <Position>
              <LatitudeDegrees>43.28055717051029205322265625</LatitudeDegrees>
              <LongitudeDegrees>-2.11861462332308292388916015625</LongitudeDegrees>
            </Position>
            <AltitudeMeters>116.1999969482421875</AltitudeMeters>
            <DistanceMeters>NAN</DistanceMeters>
          </Trackpoint>
          <Trackpoint>
            <Time>2022-07-10T07:59:54.000Z</Time>
            <Position>
              <LatitudeDegrees>43.28055239282548427581787109375</LatitudeDegrees>
              <LongitudeDegrees>-2.11863197386264801025390625</LongitudeDegrees>
            </Position>
            <AltitudeMeters>116</AltitudeMeters>
            <DistanceMeters>NAN</DistanceMeters>
          </Trackpoint>
          <Trackpoint>
            <Time>2022-07-10T08:00:35.000Z</Time>
            <Position>
              <LatitudeDegrees>43.2805015146732330322265625</LatitudeDegrees>
              <LongitudeDegrees>-2.118683271110057830810546875</LongitudeDegrees>
            </Position>
            <AltitudeMeters>115.40000152587890625</AltitudeMeters>
            <DistanceMeters>NAN</DistanceMeters>
          </Trackpoint>
          <Trackpoint>
            <Time>2022-07-10T08:00:36.000Z</Time>
            <Position>
              <LatitudeDegrees>43.280483074486255645751953125</LatitudeDegrees>
              <LongitudeDegrees>-2.11870581842958927154541015625</LongitudeDegrees>
            </Position>
            <AltitudeMeters>115.40000152587890625</AltitudeMeters>
            <DistanceMeters>NAN</DistanceMeters>
          </Trackpoint>
          <Trackpoint>
            <Time>2022-07-10T08:00:42.000Z</Time>
            <Position>
              <LatitudeDegrees>43.2803642190992832183837890625</LatitudeDegrees>
              <LongitudeDegrees>-2.1188825927674770355224609375</LongitudeDegrees>
            </Position>
            <AltitudeMeters>115</AltitudeMeters>
            <DistanceMeters>NAN</DistanceMeters>
          </Trackpoint>
          <Trackpoint>
            <Time>2022-07-10T08:00:49.000Z</Time>
            <Position>
              <LatitudeDegrees>43.2801640592515468597412109375</LatitudeDegrees>
              <LongitudeDegrees>-2.1191541664302349090576171875</LongitudeDegrees>
            </Position>
            <AltitudeMeters>114.1999969482421875</AltitudeMeters>
            <DistanceMeters>NAN</DistanceMeters>
          </Trackpoint>
          <Trackpoint>
            <Time>2022-07-10T08:00:56.000Z</Time>
            <Position>
              <LatitudeDegrees>43.27993380837142467498779296875</LatitudeDegrees>
              <LongitudeDegrees>-2.1195357106626033782958984375</LongitudeDegrees>
            </Position>
            <AltitudeMeters>113.40000152587890625</AltitudeMeters>
            <DistanceMeters>NAN</DistanceMeters>
          </Trackpoint>
          <Trackpoint>
            <Time>2022-07-10T08:00:58.000Z</Time>
            <Position>
              <LatitudeDegrees>43.27987530268728733062744140625</LatitudeDegrees>
              <LongitudeDegrees>-2.11965381167829036712646484375</LongitudeDegrees>
            </Position>
            <AltitudeMeters>113.1999969482421875</AltitudeMeters>
            <DistanceMeters>NAN</DistanceMeters>
          </Trackpoint>
          <Trackpoint>
            <Time>2022-07-10T08:01:03.000Z</Time>
            <Position>
              <LatitudeDegrees>43.279742784798145294189453125</LatitudeDegrees>
              <LongitudeDegrees>-2.1199174225330352783203125</LongitudeDegrees>
            </Position>
            <AltitudeMeters>113</AltitudeMeters>
            <DistanceMeters>NAN</DistanceMeters>
          </Trackpoint>
          <Trackpoint>
            <Time>2022-07-10T08:01:05.000Z</Time>
            <Position>
              <LatitudeDegrees>43.2797060720622539520263671875</LatitudeDegrees>
              <LongitudeDegrees>-2.12002462707459926605224609375</LongitudeDegrees>
            </Position>
            <AltitudeMeters>112.8000030517578125</AltitudeMeters>
            <DistanceMeters>NAN</DistanceMeters>
          </Trackpoint>
          <Trackpoint>
            <Time>2022-07-10T08:01:12.000Z</Time>
            <Position>
              <LatitudeDegrees>43.27959534712135791778564453125</LatitudeDegrees>
              <LongitudeDegrees>-2.12036442942917346954345703125</LongitudeDegrees>
            </Position>
            <AltitudeMeters>112.40000152587890625</AltitudeMeters>
            <DistanceMeters>NAN</DistanceMeters>
          </Trackpoint>
          <Trackpoint>
            <Time>2022-07-10T08:01:18.000Z</Time>
            <Position>
              <LatitudeDegrees>43.2795139588415622711181640625</LatitudeDegrees>
              <LongitudeDegrees>-2.12060683406889438629150390625</LongitudeDegrees>
            </Position>
            <AltitudeMeters>112.59999847412109375</AltitudeMeters>
            <DistanceMeters>NAN</DistanceMeters>
          </Trackpoint>
          <Trackpoint>
            <Time>2022-07-10T08:01:23.000Z</Time>
            <Position>
              <LatitudeDegrees>43.27942921780049800872802734375</LatitudeDegrees>
              <LongitudeDegrees>-2.12083465419709682464599609375</LongitudeDegrees>
            </Position>
            <AltitudeMeters>112.1999969482421875</AltitudeMeters>
            <DistanceMeters>NAN</DistanceMeters>
          </Trackpoint>
          <Trackpoint>
            <Time>2022-07-10T08:01:24.000Z</Time>
            <Position>
              <LatitudeDegrees>43.2794066704809665679931640625</LatitudeDegrees>
              <LongitudeDegrees>-2.12088863365352153778076171875</LongitudeDegrees>
            </Position>
            <AltitudeMeters>112.1999969482421875</AltitudeMeters>
            <DistanceMeters>NAN</DistanceMeters>
          </Trackpoint>
          <Trackpoint>
            <Time>2022-07-10T08:01:29.000Z</Time>
            <Position>
              <LatitudeDegrees>43.279292844235897064208984375</LatitudeDegrees>
              <LongitudeDegrees>-2.121213264763355255126953125</LongitudeDegrees>
            </Position>
            <AltitudeMeters>111</AltitudeMeters>
            <DistanceMeters>NAN</DistanceMeters>
          </Trackpoint>
          <Trackpoint>
            <Time>2022-07-10T08:01:30.000Z</Time>
            <Position>
              <LatitudeDegrees>43.2792631722986698150634765625</LatitudeDegrees>
              <LongitudeDegrees>-2.12129280902445316314697265625</LongitudeDegrees>
            </Position>
            <AltitudeMeters>110.40000152587890625</AltitudeMeters>
            <DistanceMeters>NAN</DistanceMeters>
          </Trackpoint>
          <Trackpoint>
            <Time>2022-07-10T08:01:32.000Z</Time>
            <Position>
              <LatitudeDegrees>43.27920273877680301666259765625</LatitudeDegrees>
              <LongitudeDegrees>-2.1214561723172664642333984375</LongitudeDegrees>
            </Position>
            <AltitudeMeters>109.8000030517578125</AltitudeMeters>
            <DistanceMeters>NAN</DistanceMeters>
          </Trackpoint>
          <Trackpoint>
            <Time>2022-07-10T08:01:35.000Z</Time>
            <Position>
              <LatitudeDegrees>43.2791116274893283843994140625</LatitudeDegrees>
              <LongitudeDegrees>-2.12170972488820552825927734375</LongitudeDegrees>
            </Position>
            <AltitudeMeters>107.59999847412109375</AltitudeMeters>
            <DistanceMeters>NAN</DistanceMeters>
          </Trackpoint>
          <Trackpoint>
            <Time>2022-07-10T08:01:36.000Z</Time>
            <Position>
              <LatitudeDegrees>43.2790826261043548583984375</LatitudeDegrees>
              <LongitudeDegrees>-2.1218005008995532989501953125</LongitudeDegrees>
            </Position>
            <AltitudeMeters>106.8000030517578125</AltitudeMeters>
            <DistanceMeters>NAN</DistanceMeters>
          </Trackpoint>
          <Trackpoint>
            <Time>2022-07-10T08:01:37.000Z</Time>
            <Position>
              <LatitudeDegrees>43.2790583185851573944091796875</LatitudeDegrees>
              <LongitudeDegrees>-2.1218896843492984771728515625</LongitudeDegrees>
            </Position>
            <AltitudeMeters>106.40000152587890625</AltitudeMeters>
            <DistanceMeters>NAN</DistanceMeters>
          </Trackpoint>
          <Trackpoint>
            <Time>2022-07-10T08:01:40.000Z</Time>
            <Position>
              <LatitudeDegrees>43.2789981365203857421875</LatitudeDegrees>
              <LongitudeDegrees>-2.122136615216732025146484375</LongitudeDegrees>
            </Position>
            <AltitudeMeters>104.8000030517578125</AltitudeMeters>
            <DistanceMeters>NAN</DistanceMeters>
          </Trackpoint>
          <Trackpoint>
            <Time>2022-07-10T08:01:42.000Z</Time>
            <Position>
              <LatitudeDegrees>43.278968967497348785400390625</LatitudeDegrees>
              <LongitudeDegrees>-2.12228782474994659423828125</LongitudeDegrees>
            </Position>
            <AltitudeMeters>103.59999847412109375</AltitudeMeters>
            <DistanceMeters>NAN</DistanceMeters>
          </Trackpoint>
          <Trackpoint>
            <Time>2022-07-10T08:01:43.000Z</Time>
            <Position>
              <LatitudeDegrees>43.27895547263324260711669921875</LatitudeDegrees>
              <LongitudeDegrees>-2.122356891632080078125</LongitudeDegrees>
            </Position>
            <AltitudeMeters>103</AltitudeMeters>
            <DistanceMeters>NAN</DistanceMeters>
          </Trackpoint>
          <Trackpoint>
            <Time>2022-07-10T08:01:44.000Z</Time>
            <Position>
              <LatitudeDegrees>43.27894113957881927490234375</LatitudeDegrees>
              <LongitudeDegrees>-2.12241564877331256866455078125</LongitudeDegrees>
            </Position>
            <AltitudeMeters>102.59999847412109375</AltitudeMeters>
            <DistanceMeters>NAN</DistanceMeters>
          </Trackpoint>
          <Trackpoint>
            <Time>2022-07-10T08:01:46.000Z</Time>
            <Position>
              <LatitudeDegrees>43.27892228029668331146240234375</LatitudeDegrees>
              <LongitudeDegrees>-2.122520506381988525390625</LongitudeDegrees>
            </Position>
            <AltitudeMeters>101.1999969482421875</AltitudeMeters>
            <DistanceMeters>NAN</DistanceMeters>
          </Trackpoint>
          <Trackpoint>
            <Time>2022-07-10T08:01:47.000Z</Time>
            <Position>
              <LatitudeDegrees>43.27891021035611629486083984375</LatitudeDegrees>
              <LongitudeDegrees>-2.1225763298571109771728515625</LongitudeDegrees>
            </Position>
            <AltitudeMeters>100.8000030517578125</AltitudeMeters>
            <DistanceMeters>NAN</DistanceMeters>
          </Trackpoint>
          <Trackpoint>
            <Time>2022-07-10T08:01:50.000Z</Time>
            <Position>
              <LatitudeDegrees>43.2788688875734806060791015625</LatitudeDegrees>
              <LongitudeDegrees>-2.1227739751338958740234375</LongitudeDegrees>
            </Position>
            <AltitudeMeters>100</AltitudeMeters>
            <DistanceMeters>NAN</DistanceMeters>
          </Trackpoint>
          <Trackpoint>
            <Time>2022-07-10T08:01:52.000Z</Time>
            <Position>
              <LatitudeDegrees>43.27883527614176273345947265625</LatitudeDegrees>
              <LongitudeDegrees>-2.122917473316192626953125</LongitudeDegrees>
            </Position>
            <AltitudeMeters>98.8000030517578125</AltitudeMeters>
            <DistanceMeters>NAN</DistanceMeters>
          </Trackpoint>
          <Trackpoint>
            <Time>2022-07-10T08:01:54.000Z</Time>
            <Position>
              <LatitudeDegrees>43.2787984795868396759033203125</LatitudeDegrees>
              <LongitudeDegrees>-2.1230609714984893798828125</LongitudeDegrees>
            </Position>
            <AltitudeMeters>97.8000030517578125</AltitudeMeters>
            <DistanceMeters>NAN</DistanceMeters>
          </Trackpoint>
          <Trackpoint>
            <Time>2022-07-10T08:01:56.000Z</Time>
            <Position>
              <LatitudeDegrees>43.278751708567142486572265625</LatitudeDegrees>
              <LongitudeDegrees>-2.12321779690682888031005859375</LongitudeDegrees>
            </Position>
            <AltitudeMeters>96.40000152587890625</AltitudeMeters>
            <DistanceMeters>NAN</DistanceMeters>
          </Trackpoint>
          <Trackpoint>
            <Time>2022-07-10T08:01:58.000Z</Time>
            <Position>
              <LatitudeDegrees>43.2786938734352588653564453125</LatitudeDegrees>
              <LongitudeDegrees>-2.12338241748511791229248046875</LongitudeDegrees>
            </Position>
            <AltitudeMeters>94.8000030517578125</AltitudeMeters>
            <DistanceMeters>NAN</DistanceMeters>
          </Trackpoint>
          <Trackpoint>
            <Time>2022-07-10T08:01:59.000Z</Time>
            <Position>
              <LatitudeDegrees>43.27866747044026851654052734375</LatitudeDegrees>
              <LongitudeDegrees>-2.12346489541232585906982421875</LongitudeDegrees>
            </Position>
            <AltitudeMeters>94.1999969482421875</AltitudeMeters>
            <DistanceMeters>NAN</DistanceMeters>
          </Trackpoint>
          <Trackpoint>
            <Time>2022-07-10T08:02:00.000Z</Time>
            <Position>
              <LatitudeDegrees>43.27863670885562896728515625</LatitudeDegrees>
              <LongitudeDegrees>-2.12354854680597782135009765625</LongitudeDegrees>
            </Position>
            <AltitudeMeters>93.1999969482421875</AltitudeMeters>
            <DistanceMeters>NAN</DistanceMeters>
          </Trackpoint>
          <Trackpoint>
            <Time>2022-07-10T08:02:02.000Z</Time>
            <Position>
              <LatitudeDegrees>43.278576694428920745849609375</LatitudeDegrees>
              <LongitudeDegrees>-2.12371652014553546905517578125</LongitudeDegrees>
            </Position>
            <AltitudeMeters>91.40000152587890625</AltitudeMeters>
            <DistanceMeters>NAN</DistanceMeters>
          </Trackpoint>
          <Trackpoint>
            <Time>2022-07-10T08:02:03.000Z</Time>
            <Position>
              <LatitudeDegrees>43.27854207716882228851318359375</LatitudeDegrees>
              <LongitudeDegrees>-2.12380419485270977020263671875</LongitudeDegrees>
            </Position>
            <AltitudeMeters>90.1999969482421875</AltitudeMeters>
            <DistanceMeters>NAN</DistanceMeters>
          </Trackpoint>
          <Trackpoint>
            <Time>2022-07-10T08:02:05.000Z</Time>
            <Position>
              <LatitudeDegrees>43.27847820706665515899658203125</LatitudeDegrees>
              <LongitudeDegrees>-2.12396630086004734039306640625</LongitudeDegrees>
            </Position>
            <AltitudeMeters>88.40000152587890625</AltitudeMeters>
            <DistanceMeters>NAN</DistanceMeters>
          </Trackpoint>
          <Trackpoint>
            <Time>2022-07-10T08:02:07.000Z</Time>
            <Position>
              <LatitudeDegrees>43.2784222997725009918212890625</LatitudeDegrees>
              <LongitudeDegrees>-2.12412379682064056396484375</LongitudeDegrees>
            </Position>
            <AltitudeMeters>86.8000030517578125</AltitudeMeters>
            <DistanceMeters>NAN</DistanceMeters>
          </Trackpoint>
          <Trackpoint>
            <Time>2022-07-10T08:02:08.000Z</Time>
            <Position>
              <LatitudeDegrees>43.278394639492034912109375</LatitudeDegrees>
              <LongitudeDegrees>-2.12420292198657989501953125</LongitudeDegrees>
            </Position>
            <AltitudeMeters>86</AltitudeMeters>
            <DistanceMeters>NAN</DistanceMeters>
          </Trackpoint>
          <Trackpoint>
            <Time>2022-07-10T08:02:09.000Z</Time>
            <Position>
              <LatitudeDegrees>43.27836253680288791656494140625</LatitudeDegrees>
              <LongitudeDegrees>-2.124277018010616302490234375</LongitudeDegrees>
            </Position>
            <AltitudeMeters>85</AltitudeMeters>
            <DistanceMeters>NAN</DistanceMeters>
          </Trackpoint>
          <Trackpoint>
            <Time>2022-07-10T08:02:11.000Z</Time>
            <Position>
              <LatitudeDegrees>43.2783029414713382720947265625</LatitudeDegrees>
              <LongitudeDegrees>-2.1244280599057674407958984375</LongitudeDegrees>
            </Position>
            <AltitudeMeters>83.40000152587890625</AltitudeMeters>
            <DistanceMeters>NAN</DistanceMeters>
          </Trackpoint>
          <Trackpoint>
            <Time>2022-07-10T08:02:13.000Z</Time>
            <Position>
              <LatitudeDegrees>43.27824502252042293548583984375</LatitudeDegrees>
              <LongitudeDegrees>-2.12457516230642795562744140625</LongitudeDegrees>
            </Position>
            <AltitudeMeters>81.59999847412109375</AltitudeMeters>
            <DistanceMeters>NAN</DistanceMeters>
          </Trackpoint>
          <Trackpoint>
            <Time>2022-07-10T08:02:15.000Z</Time>
            <Position>
              <LatitudeDegrees>43.27819012105464935302734375</LatitudeDegrees>
              <LongitudeDegrees>-2.1247204206883907318115234375</LongitudeDegrees>
            </Position>
            <AltitudeMeters>80.1999969482421875</AltitudeMeters>
            <DistanceMeters>NAN</DistanceMeters>
          </Trackpoint>
          <Trackpoint>
            <Time>2022-07-10T08:02:17.000Z</Time>
            <Position>
              <LatitudeDegrees>43.278132118284702301025390625</LatitudeDegrees>
              <LongitudeDegrees>-2.1248662658035755157470703125</LongitudeDegrees>
            </Position>
            <AltitudeMeters>78.8000030517578125</AltitudeMeters>
            <DistanceMeters>NAN</DistanceMeters>
          </Trackpoint>
          <Trackpoint>
            <Time>2022-07-10T08:02:19.000Z</Time>
            <Position>
              <LatitudeDegrees>43.278076462447643280029296875</LatitudeDegrees>
              <LongitudeDegrees>-2.1250094287097454071044921875</LongitudeDegrees>
            </Position>
            <AltitudeMeters>77.1999969482421875</AltitudeMeters>
            <DistanceMeters>NAN</DistanceMeters>
          </Trackpoint>
          <Trackpoint>
            <Time>2022-07-10T08:02:21.000Z</Time>
            <Position>
              <LatitudeDegrees>43.27802642248570919036865234375</LatitudeDegrees>
              <LongitudeDegrees>-2.1251183934509754180908203125</LongitudeDegrees>
            </Position>
            <AltitudeMeters>75.59999847412109375</AltitudeMeters>
            <DistanceMeters>NAN</DistanceMeters>
          </Trackpoint>
          <Trackpoint>
            <Time>2022-07-10T08:02:23.000Z</Time>
            <Position>
              <LatitudeDegrees>43.27798065729439258575439453125</LatitudeDegrees>
              <LongitudeDegrees>-2.125192992389202117919921875</LongitudeDegrees>
            </Position>
            <AltitudeMeters>74</AltitudeMeters>
            <DistanceMeters>NAN</DistanceMeters>
          </Trackpoint>
          <Trackpoint>
            <Time>2022-07-10T08:02:25.000Z</Time>
            <Position>
              <LatitudeDegrees>43.277935646474361419677734375</LatitudeDegrees>
              <LongitudeDegrees>-2.12524655275046825408935546875</LongitudeDegrees>
            </Position>
            <AltitudeMeters>73</AltitudeMeters>
            <DistanceMeters>NAN</DistanceMeters>
          </Trackpoint>
          <Trackpoint>
            <Time>2022-07-10T08:02:28.000Z</Time>
            <Position>
              <LatitudeDegrees>43.2778268493711948394775390625</LatitudeDegrees>
              <LongitudeDegrees>-2.125327102839946746826171875</LongitudeDegrees>
            </Position>
            <AltitudeMeters>72.1999969482421875</AltitudeMeters>
            <DistanceMeters>NAN</DistanceMeters>
          </Trackpoint>
          <Trackpoint>
            <Time>2022-07-10T08:02:29.000Z</Time>
            <Position>
              <LatitudeDegrees>43.27777915634214878082275390625</LatitudeDegrees>
              <LongitudeDegrees>-2.12534596212208271026611328125</LongitudeDegrees>
            </Position>
            <AltitudeMeters>72</AltitudeMeters>
            <DistanceMeters>NAN</DistanceMeters>
          </Trackpoint>
          <Trackpoint>
            <Time>2022-07-10T08:02:30.000Z</Time>
            <Position>
              <LatitudeDegrees>43.2777282781898975372314453125</LatitudeDegrees>
              <LongitudeDegrees>-2.1253520809113979339599609375</LongitudeDegrees>
            </Position>
            <AltitudeMeters>71.40000152587890625</AltitudeMeters>
            <DistanceMeters>NAN</DistanceMeters>
          </Trackpoint>
          <Trackpoint>
            <Time>2022-07-10T08:02:33.000Z</Time>
            <Position>
              <LatitudeDegrees>43.27758151106536388397216796875</LatitudeDegrees>
              <LongitudeDegrees>-2.1253540925681591033935546875</LongitudeDegrees>
            </Position>
            <AltitudeMeters>70</AltitudeMeters>
            <DistanceMeters>NAN</DistanceMeters>
          </Trackpoint>
          <Trackpoint>
            <Time>2022-07-10T08:02:35.000Z</Time>
            <Position>
              <LatitudeDegrees>43.27749668620526790618896484375</LatitudeDegrees>
              <LongitudeDegrees>-2.12540865875780582427978515625</LongitudeDegrees>
            </Position>
            <AltitudeMeters>69</AltitudeMeters>
            <DistanceMeters>NAN</DistanceMeters>
          </Trackpoint>
          <Trackpoint>
            <Time>2022-07-10T08:02:36.000Z</Time>
            <Position>
              <LatitudeDegrees>43.27746181748807430267333984375</LatitudeDegrees>
              <LongitudeDegrees>-2.1254535019397735595703125</LongitudeDegrees>
            </Position>
            <AltitudeMeters>68.59999847412109375</AltitudeMeters>
            <DistanceMeters>NAN</DistanceMeters>
          </Trackpoint>
          <Trackpoint>
            <Time>2022-07-10T08:02:37.000Z</Time>
            <Position>
              <LatitudeDegrees>43.27743281610310077667236328125</LatitudeDegrees>
              <LongitudeDegrees>-2.12550303898751735687255859375</LongitudeDegrees>
            </Position>
            <AltitudeMeters>68</AltitudeMeters>
            <DistanceMeters>NAN</DistanceMeters>
          </Trackpoint>
          <Trackpoint>
            <Time>2022-07-10T08:02:38.000Z</Time>
            <Position>
              <LatitudeDegrees>43.27741169370710849761962890625</LatitudeDegrees>
              <LongitudeDegrees>-2.1255576051771640777587890625</LongitudeDegrees>
            </Position>
            <AltitudeMeters>67.8000030517578125</AltitudeMeters>
            <DistanceMeters>NAN</DistanceMeters>
          </Trackpoint>
          <Trackpoint>
            <Time>2022-07-10T08:02:39.000Z</Time>
            <Position>
              <LatitudeDegrees>43.277391828596591949462890625</LatitudeDegrees>
              <LongitudeDegrees>-2.12561049498617649078369140625</LongitudeDegrees>
            </Position>
            <AltitudeMeters>67</AltitudeMeters>
            <DistanceMeters>NAN</DistanceMeters>
          </Trackpoint>
          <Trackpoint>
            <Time>2022-07-10T08:02:40.000Z</Time>
            <Position>
              <LatitudeDegrees>43.27736961655318737030029296875</LatitudeDegrees>
              <LongitudeDegrees>-2.125652991235256195068359375</LongitudeDegrees>
            </Position>
            <AltitudeMeters>66.59999847412109375</AltitudeMeters>
            <DistanceMeters>NAN</DistanceMeters>
          </Trackpoint>
          <Trackpoint>
            <Time>2022-07-10T08:02:43.000Z</Time>
            <Position>
              <LatitudeDegrees>43.27730574645102024078369140625</LatitudeDegrees>
              <LongitudeDegrees>-2.1257728524506092071533203125</LongitudeDegrees>
            </Position>
            <AltitudeMeters>65.59999847412109375</AltitudeMeters>
            <DistanceMeters>NAN</DistanceMeters>
          </Trackpoint>
          <Trackpoint>
            <Time>2022-07-10T08:02:44.000Z</Time>
            <Position>
              <LatitudeDegrees>43.27728847973048686981201171875</LatitudeDegrees>
              <LongitudeDegrees>-2.1258248202502727508544921875</LongitudeDegrees>
            </Position>
            <AltitudeMeters>65</AltitudeMeters>
            <DistanceMeters>NAN</DistanceMeters>
          </Trackpoint>
          <Trackpoint>
            <Time>2022-07-10T08:02:45.000Z</Time>
            <Position>
              <LatitudeDegrees>43.27727272175252437591552734375</LatitudeDegrees>
              <LongitudeDegrees>-2.12587125599384307861328125</LongitudeDegrees>
            </Position>
            <AltitudeMeters>64.59999847412109375</AltitudeMeters>
            <DistanceMeters>NAN</DistanceMeters>
          </Trackpoint>
          <Trackpoint>
            <Time>2022-07-10T08:02:46.000Z</Time>
            <Position>
              <LatitudeDegrees>43.2772548682987689971923828125</LatitudeDegrees>
              <LongitudeDegrees>-2.12592280469834804534912109375</LongitudeDegrees>
            </Position>
            <AltitudeMeters>64.40000152587890625</AltitudeMeters>
            <DistanceMeters>NAN</DistanceMeters>
          </Trackpoint>
          <Trackpoint>
            <Time>2022-07-10T08:02:47.000Z</Time>
            <Position>
              <LatitudeDegrees>43.27723651193082332611083984375</LatitudeDegrees>
              <LongitudeDegrees>-2.12596840225160121917724609375</LongitudeDegrees>
            </Position>
            <AltitudeMeters>63.59999847412109375</AltitudeMeters>
            <DistanceMeters>NAN</DistanceMeters>
          </Trackpoint>
          <Trackpoint>
            <Time>2022-07-10T08:02:49.000Z</Time>
            <Position>
              <LatitudeDegrees>43.2772122882306575775146484375</LatitudeDegrees>
              <LongitudeDegrees>-2.12603797204792499542236328125</LongitudeDegrees>
            </Position>
            <AltitudeMeters>62.59999847412109375</AltitudeMeters>
            <DistanceMeters>NAN</DistanceMeters>
          </Trackpoint>
          <Trackpoint>
            <Time>2022-07-10T08:02:51.000Z</Time>
            <Position>
              <LatitudeDegrees>43.27719175256788730621337890625</LatitudeDegrees>
              <LongitudeDegrees>-2.1260856650769710540771484375</LongitudeDegrees>
            </Position>
            <AltitudeMeters>61.59999847412109375</AltitudeMeters>
            <DistanceMeters>NAN</DistanceMeters>
          </Trackpoint>
          <Trackpoint>
            <Time>2022-07-10T08:02:52.000Z</Time>
            <Position>
              <LatitudeDegrees>43.27717750333249568939208984375</LatitudeDegrees>
              <LongitudeDegrees>-2.12611558847129344940185546875</LongitudeDegrees>
            </Position>
            <AltitudeMeters>61.40000152587890625</AltitudeMeters>
            <DistanceMeters>NAN</DistanceMeters>
          </Trackpoint>
          <Trackpoint>
            <Time>2022-07-10T08:02:55.000Z</Time>
            <Position>
              <LatitudeDegrees>43.2771422155201435089111328125</LatitudeDegrees>
              <LongitudeDegrees>-2.12623067200183868408203125</LongitudeDegrees>
            </Position>
            <AltitudeMeters>60</AltitudeMeters>
            <DistanceMeters>NAN</DistanceMeters>
          </Trackpoint>
          <Trackpoint>
            <Time>2022-07-10T08:02:56.000Z</Time>
            <Position>
              <LatitudeDegrees>43.27713374979794025421142578125</LatitudeDegrees>
              <LongitudeDegrees>-2.12627626955509185791015625</LongitudeDegrees>
            </Position>
            <AltitudeMeters>59.59999847412109375</AltitudeMeters>
            <DistanceMeters>NAN</DistanceMeters>
          </Trackpoint>
          <Trackpoint>
            <Time>2022-07-10T08:02:58.000Z</Time>
            <Position>
              <LatitudeDegrees>43.2771031558513641357421875</LatitudeDegrees>
              <LongitudeDegrees>-2.12635933421552181243896484375</LongitudeDegrees>
            </Position>
            <AltitudeMeters>58.59999847412109375</AltitudeMeters>
            <DistanceMeters>NAN</DistanceMeters>
          </Trackpoint>
          <Trackpoint>
            <Time>2022-07-10T08:03:01.000Z</Time>
            <Position>
              <LatitudeDegrees>43.277061246335506439208984375</LatitudeDegrees>
              <LongitudeDegrees>-2.12644818238914012908935546875</LongitudeDegrees>
            </Position>
            <AltitudeMeters>57.200000762939453125</AltitudeMeters>
            <DistanceMeters>NAN</DistanceMeters>
          </Trackpoint>
          <Trackpoint>
            <Time>2022-07-10T08:03:03.000Z</Time>
            <Position>
              <LatitudeDegrees>43.27704372815787792205810546875</LatitudeDegrees>
              <LongitudeDegrees>-2.1265074424445629119873046875</LongitudeDegrees>
            </Position>
            <AltitudeMeters>56</AltitudeMeters>
            <DistanceMeters>NAN</DistanceMeters>
          </Trackpoint>
          <Trackpoint>
            <Time>2022-07-10T08:03:06.000Z</Time>
            <Position>
              <LatitudeDegrees>43.27701774425804615020751953125</LatitudeDegrees>
              <LongitudeDegrees>-2.12660559453070163726806640625</LongitudeDegrees>
            </Position>
            <AltitudeMeters>54.799999237060546875</AltitudeMeters>
            <DistanceMeters>NAN</DistanceMeters>
          </Trackpoint>
          <Trackpoint>
            <Time>2022-07-10T08:03:09.000Z</Time>
            <Position>
              <LatitudeDegrees>43.27700592577457427978515625</LatitudeDegrees>
              <LongitudeDegrees>-2.1266700513660907745361328125</LongitudeDegrees>
            </Position>
            <AltitudeMeters>53.40000152587890625</AltitudeMeters>
            <DistanceMeters>NAN</DistanceMeters>
          </Trackpoint>
          <Trackpoint>
            <Time>2022-07-10T08:03:12.000Z</Time>
            <Position>
              <LatitudeDegrees>43.27696393243968486785888671875</LatitudeDegrees>
              <LongitudeDegrees>-2.12675445713102817535400390625</LongitudeDegrees>
            </Position>
            <AltitudeMeters>52.799999237060546875</AltitudeMeters>
            <DistanceMeters>NAN</DistanceMeters>
          </Trackpoint>
          <Trackpoint>
            <Time>2022-07-10T08:03:14.000Z</Time>
            <Position>
              <LatitudeDegrees>43.2769122160971164703369140625</LatitudeDegrees>
              <LongitudeDegrees>-2.1268551237881183624267578125</LongitudeDegrees>
            </Position>
            <AltitudeMeters>52.200000762939453125</AltitudeMeters>
            <DistanceMeters>NAN</DistanceMeters>
          </Trackpoint>
          <Trackpoint>
            <Time>2022-07-10T08:03:15.000Z</Time>
            <Position>
              <LatitudeDegrees>43.27687424607574939727783203125</LatitudeDegrees>
              <LongitudeDegrees>-2.12689544074237346649169921875</LongitudeDegrees>
            </Position>
            <AltitudeMeters>51.799999237060546875</AltitudeMeters>
            <DistanceMeters>NAN</DistanceMeters>
          </Trackpoint>
          <Trackpoint>
            <Time>2022-07-10T08:03:16.000Z</Time>
            <Position>
              <LatitudeDegrees>43.2768243737518787384033203125</LatitudeDegrees>
              <LongitudeDegrees>-2.126928381621837615966796875</LongitudeDegrees>
            </Position>
            <AltitudeMeters>51.40000152587890625</AltitudeMeters>
            <DistanceMeters>NAN</DistanceMeters>
          </Trackpoint>
          <Trackpoint>
            <Time>2022-07-10T08:03:17.000Z</Time>
            <Position>
              <LatitudeDegrees>43.2767898403108119964599609375</LatitudeDegrees>
              <LongitudeDegrees>-2.12694589979946613311767578125</LongitudeDegrees>
            </Position>
            <AltitudeMeters>50.59999847412109375</AltitudeMeters>
            <DistanceMeters>NAN</DistanceMeters>
          </Trackpoint>
          <Trackpoint>
            <Time>2022-07-10T08:03:19.000Z</Time>
            <Position>
              <LatitudeDegrees>43.27672152779996395111083984375</LatitudeDegrees>
              <LongitudeDegrees>-2.12699015624821186065673828125</LongitudeDegrees>
            </Position>
            <AltitudeMeters>49.59999847412109375</AltitudeMeters>
            <DistanceMeters>NAN</DistanceMeters>
          </Trackpoint>
          <Trackpoint>
            <Time>2022-07-10T08:03:20.000Z</Time>
            <Position>
              <LatitudeDegrees>43.2767040096223354339599609375</LatitudeDegrees>
              <LongitudeDegrees>-2.1270187385380268096923828125</LongitudeDegrees>
            </Position>
            <AltitudeMeters>49.200000762939453125</AltitudeMeters>
            <DistanceMeters>NAN</DistanceMeters>
          </Trackpoint>
          <Trackpoint>
            <Time>2022-07-10T08:03:22.000Z</Time>
            <Position>
              <LatitudeDegrees>43.276679031550884246826171875</LatitudeDegrees>
              <LongitudeDegrees>-2.127085626125335693359375</LongitudeDegrees>
            </Position>
            <AltitudeMeters>48.799999237060546875</AltitudeMeters>
            <DistanceMeters>NAN</DistanceMeters>
          </Trackpoint>
          <Trackpoint>
            <Time>2022-07-10T08:03:23.000Z</Time>
            <Position>
              <LatitudeDegrees>43.2766677998006343841552734375</LatitudeDegrees>
              <LongitudeDegrees>-2.1271253563463687896728515625</LongitudeDegrees>
            </Position>
            <AltitudeMeters>48.799999237060546875</AltitudeMeters>
            <DistanceMeters>NAN</DistanceMeters>
          </Trackpoint>
          <Trackpoint>
            <Time>2022-07-10T08:03:25.000Z</Time>
            <Position>
              <LatitudeDegrees>43.2766396366059780120849609375</LatitudeDegrees>
              <LongitudeDegrees>-2.12720439769327640533447265625</LongitudeDegrees>
            </Position>
            <AltitudeMeters>48.59999847412109375</AltitudeMeters>
            <DistanceMeters>NAN</DistanceMeters>
          </Trackpoint>
          <Trackpoint>
            <Time>2022-07-10T08:03:26.000Z</Time>
            <Position>
              <LatitudeDegrees>43.27661859802901744842529296875</LatitudeDegrees>
              <LongitudeDegrees>-2.1272427029907703399658203125</LongitudeDegrees>
            </Position>
            <AltitudeMeters>48.59999847412109375</AltitudeMeters>
            <DistanceMeters>NAN</DistanceMeters>
          </Trackpoint>
          <Trackpoint>
            <Time>2022-07-10T08:03:28.000Z</Time>
            <Position>
              <LatitudeDegrees>43.27657082118093967437744140625</LatitudeDegrees>
              <LongitudeDegrees>-2.12730565108358860015869140625</LongitudeDegrees>
            </Position>
            <AltitudeMeters>48.200000762939453125</AltitudeMeters>
            <DistanceMeters>NAN</DistanceMeters>
          </Trackpoint>
          <Trackpoint>
            <Time>2022-07-10T08:03:30.000Z</Time>
            <Position>
              <LatitudeDegrees>43.276517093181610107421875</LatitudeDegrees>
              <LongitudeDegrees>-2.127344794571399688720703125</LongitudeDegrees>
            </Position>
            <AltitudeMeters>47.799999237060546875</AltitudeMeters>
            <DistanceMeters>NAN</DistanceMeters>
          </Trackpoint>
          <Trackpoint>
            <Time>2022-07-10T08:03:33.000Z</Time>
            <Position>
              <LatitudeDegrees>43.27647057361900806427001953125</LatitudeDegrees>
              <LongitudeDegrees>-2.12744344957172870635986328125</LongitudeDegrees>
            </Position>
            <AltitudeMeters>47.200000762939453125</AltitudeMeters>
            <DistanceMeters>NAN</DistanceMeters>
          </Trackpoint>
          <Trackpoint>
            <Time>2022-07-10T08:03:35.000Z</Time>
            <Position>
              <LatitudeDegrees>43.27646889723837375640869140625</LatitudeDegrees>
              <LongitudeDegrees>-2.127453424036502838134765625</LongitudeDegrees>
            </Position>
            <AltitudeMeters>46.799999237060546875</AltitudeMeters>
            <DistanceMeters>NAN</DistanceMeters>
          </Trackpoint>
          <Trackpoint>
            <Time>2022-07-10T08:03:36.000Z</Time>
            <Position>
              <LatitudeDegrees>43.27646889723837375640869140625</LatitudeDegrees>
              <LongitudeDegrees>-2.127453424036502838134765625</LongitudeDegrees>
            </Position>
            <AltitudeMeters>46.799999237060546875</AltitudeMeters>
            <DistanceMeters>NAN</DistanceMeters>
          </Trackpoint>
          <Trackpoint>
            <Time>2022-07-10T08:03:45.000Z</Time>
            <Position>
              <LatitudeDegrees>43.27643754892051219940185546875</LatitudeDegrees>
              <LongitudeDegrees>-2.12746272794902324676513671875</LongitudeDegrees>
            </Position>
            <AltitudeMeters>46.59999847412109375</AltitudeMeters>
            <DistanceMeters>NAN</DistanceMeters>
          </Trackpoint>
          <Trackpoint>
            <Time>2022-07-10T08:03:47.000Z</Time>
            <Position>
              <LatitudeDegrees>43.2764056138694286346435546875</LatitudeDegrees>
              <LongitudeDegrees>-2.1274214051663875579833984375</LongitudeDegrees>
            </Position>
            <AltitudeMeters>46.799999237060546875</AltitudeMeters>
            <DistanceMeters>NAN</DistanceMeters>
          </Trackpoint>
          <Trackpoint>
            <Time>2022-07-10T08:03:51.000Z</Time>
            <Position>
              <LatitudeDegrees>43.27630829997360706329345703125</LatitudeDegrees>
              <LongitudeDegrees>-2.12733733467757701873779296875</LongitudeDegrees>
            </Position>
            <AltitudeMeters>46.59999847412109375</AltitudeMeters>
            <DistanceMeters>NAN</DistanceMeters>
          </Trackpoint>
          <Trackpoint>
            <Time>2022-07-10T08:03:52.000Z</Time>
            <Position>
              <LatitudeDegrees>43.2762865908443927764892578125</LatitudeDegrees>
              <LongitudeDegrees>-2.127301879227161407470703125</LongitudeDegrees>
            </Position>
            <AltitudeMeters>46.40000152587890625</AltitudeMeters>
            <DistanceMeters>NAN</DistanceMeters>
          </Trackpoint>
          <Trackpoint>
            <Time>2022-07-10T08:03:53.000Z</Time>
            <Position>
              <LatitudeDegrees>43.276276700198650360107421875</LatitudeDegrees>
              <LongitudeDegrees>-2.12730129249393939971923828125</LongitudeDegrees>
            </Position>
            <AltitudeMeters>46.40000152587890625</AltitudeMeters>
            <DistanceMeters>NAN</DistanceMeters>
          </Trackpoint>
          <Trackpoint>
            <Time>2022-07-10T08:03:54.000Z</Time>
            <Position>
              <LatitudeDegrees>43.2762664742767810821533203125</LatitudeDegrees>
              <LongitudeDegrees>-2.12731168605387210845947265625</LongitudeDegrees>
            </Position>
            <AltitudeMeters>46.200000762939453125</AltitudeMeters>
            <DistanceMeters>NAN</DistanceMeters>
          </Trackpoint>
          <Trackpoint>
            <Time>2022-07-10T08:03:55.000Z</Time>
            <Position>
              <LatitudeDegrees>43.27625448815524578094482421875</LatitudeDegrees>
              <LongitudeDegrees>-2.12732610292732715606689453125</LongitudeDegrees>
            </Position>
            <AltitudeMeters>46</AltitudeMeters>
            <DistanceMeters>NAN</DistanceMeters>
          </Trackpoint>
          <Trackpoint>
            <Time>2022-07-10T08:03:58.000Z</Time>
            <Position>
              <LatitudeDegrees>43.2761970721185207366943359375</LatitudeDegrees>
              <LongitudeDegrees>-2.1273872070014476776123046875</LongitudeDegrees>
            </Position>
            <AltitudeMeters>46</AltitudeMeters>
            <DistanceMeters>NAN</DistanceMeters>
          </Trackpoint>
          <Trackpoint>
            <Time>2022-07-10T08:04:00.000Z</Time>
            <Position>
              <LatitudeDegrees>43.276158683001995086669921875</LatitudeDegrees>
              <LongitudeDegrees>-2.127423919737339019775390625</LongitudeDegrees>
            </Position>
            <AltitudeMeters>46.40000152587890625</AltitudeMeters>
            <DistanceMeters>NAN</DistanceMeters>
          </Trackpoint>
          <Trackpoint>
            <Time>2022-07-10T08:04:02.000Z</Time>
            <Position>
              <LatitudeDegrees>43.2761434279382228851318359375</LatitudeDegrees>
              <LongitudeDegrees>-2.12745644152164459228515625</LongitudeDegrees>
            </Position>
            <AltitudeMeters>46.799999237060546875</AltitudeMeters>
            <DistanceMeters>NAN</DistanceMeters>
          </Trackpoint>
          <Trackpoint>
            <Time>2022-07-10T08:04:07.000Z</Time>
            <Position>
              <LatitudeDegrees>43.276092968881130218505859375</LatitudeDegrees>
              <LongitudeDegrees>-2.12753062136471271514892578125</LongitudeDegrees>
            </Position>
            <AltitudeMeters>47</AltitudeMeters>
            <DistanceMeters>NAN</DistanceMeters>
          </Trackpoint>
          <Trackpoint>
            <Time>2022-07-10T08:04:08.000Z</Time>
            <Position>
              <LatitudeDegrees>43.27608785592019557952880859375</LatitudeDegrees>
              <LongitudeDegrees>-2.127543278038501739501953125</LongitudeDegrees>
            </Position>
            <AltitudeMeters>47.200000762939453125</AltitudeMeters>
            <DistanceMeters>NAN</DistanceMeters>
          </Trackpoint>
          <Trackpoint>
            <Time>2022-07-10T08:04:11.000Z</Time>
            <Position>
              <LatitudeDegrees>43.27607461251318454742431640625</LatitudeDegrees>
              <LongitudeDegrees>-2.12759583257138729095458984375</LongitudeDegrees>
            </Position>
            <AltitudeMeters>47.200000762939453125</AltitudeMeters>
            <DistanceMeters>NAN</DistanceMeters>
          </Trackpoint>
          <Trackpoint>
            <Time>2022-07-10T08:04:12.000Z</Time>
            <Position>
              <LatitudeDegrees>43.2760706730186939239501953125</LatitudeDegrees>
              <LongitudeDegrees>-2.1275977604091167449951171875</LongitudeDegrees>
            </Position>
            <AltitudeMeters>47.200000762939453125</AltitudeMeters>
            <DistanceMeters>NAN</DistanceMeters>
          </Trackpoint>
          <Trackpoint>
            <Time>2022-07-10T08:04:14.000Z</Time>
            <Position>
              <LatitudeDegrees>43.27605332247912883758544921875</LatitudeDegrees>
              <LongitudeDegrees>-2.12761645205318927764892578125</LongitudeDegrees>
            </Position>
            <AltitudeMeters>47.200000762939453125</AltitudeMeters>
            <DistanceMeters>NAN</DistanceMeters>
          </Trackpoint>
          <Trackpoint>
            <Time>2022-07-10T08:04:15.000Z</Time>
            <Position>
              <LatitudeDegrees>43.2760498858988285064697265625</LatitudeDegrees>
              <LongitudeDegrees>-2.12762014009058475494384765625</LongitudeDegrees>
            </Position>
            <AltitudeMeters>47.40000152587890625</AltitudeMeters>
            <DistanceMeters>NAN</DistanceMeters>
          </Trackpoint>
          <Trackpoint>
            <Time>2022-07-10T08:04:17.000Z</Time>
            <Position>
              <LatitudeDegrees>43.276031948626041412353515625</LatitudeDegrees>
              <LongitudeDegrees>-2.12767504155635833740234375</LongitudeDegrees>
            </Position>
            <AltitudeMeters>47.40000152587890625</AltitudeMeters>
            <DistanceMeters>NAN</DistanceMeters>
          </Trackpoint>
          <Trackpoint>
            <Time>2022-07-10T08:04:18.000Z</Time>
            <Position>
              <LatitudeDegrees>43.276033289730548858642578125</LatitudeDegrees>
              <LongitudeDegrees>-2.12768199853599071502685546875</LongitudeDegrees>
            </Position>
            <AltitudeMeters>47.40000152587890625</AltitudeMeters>
            <DistanceMeters>NAN</DistanceMeters>
          </Trackpoint>
          <Trackpoint>
            <Time>2022-07-10T08:04:19.000Z</Time>
            <Position>
              <LatitudeDegrees>43.27603689394891262054443359375</LatitudeDegrees>
              <LongitudeDegrees>-2.1276850998401641845703125</LongitudeDegrees>
            </Position>
            <AltitudeMeters>47.40000152587890625</AltitudeMeters>
            <DistanceMeters>NAN</DistanceMeters>
          </Trackpoint>
          <Trackpoint>
            <Time>2022-07-10T08:04:23.000Z</Time>
            <Position>
              <LatitudeDegrees>43.2760606147348880767822265625</LatitudeDegrees>
              <LongitudeDegrees>-2.1277425996959209442138671875</LongitudeDegrees>
            </Position>
            <AltitudeMeters>47.40000152587890625</AltitudeMeters>
            <DistanceMeters>NAN</DistanceMeters>
          </Trackpoint>
          <Trackpoint>
            <Time>2022-07-10T08:04:26.000Z</Time>
            <Position>
              <LatitudeDegrees>43.27610545791685581207275390625</LatitudeDegrees>
              <LongitudeDegrees>-2.12783236987888813018798828125</LongitudeDegrees>
            </Position>
            <AltitudeMeters>47.40000152587890625</AltitudeMeters>
            <DistanceMeters>NAN</DistanceMeters>
          </Trackpoint>
          <Trackpoint>
            <Time>2022-07-10T08:04:28.000Z</Time>
            <Position>
              <LatitudeDegrees>43.27612238936126232147216796875</LatitudeDegrees>
              <LongitudeDegrees>-2.12785935960710048675537109375</LongitudeDegrees>
            </Position>
            <AltitudeMeters>47.40000152587890625</AltitudeMeters>
            <DistanceMeters>NAN</DistanceMeters>
          </Trackpoint>
          <Trackpoint>
            <Time>2022-07-10T08:04:31.000Z</Time>
            <Position>
              <LatitudeDegrees>43.27615155838429927825927734375</LatitudeDegrees>
              <LongitudeDegrees>-2.12790696881711483001708984375</LongitudeDegrees>
            </Position>
            <AltitudeMeters>47.40000152587890625</AltitudeMeters>
            <DistanceMeters>NAN</DistanceMeters>
          </Trackpoint>
          <Trackpoint>
            <Time>2022-07-10T08:04:32.000Z</Time>
            <Position>
              <LatitudeDegrees>43.27618843875825405120849609375</LatitudeDegrees>
              <LongitudeDegrees>-2.1279511414468288421630859375</LongitudeDegrees>
            </Position>
            <AltitudeMeters>47.40000152587890625</AltitudeMeters>
            <DistanceMeters>NAN</DistanceMeters>
          </Trackpoint>
          <Trackpoint>
            <Time>2022-07-10T08:04:33.000Z</Time>
            <Position>
              <LatitudeDegrees>43.27630586922168731689453125</LatitudeDegrees>
              <LongitudeDegrees>-2.12778769433498382568359375</LongitudeDegrees>
            </Position>
            <AltitudeMeters>47.40000152587890625</AltitudeMeters>
            <DistanceMeters>NAN</DistanceMeters>
          </Trackpoint>
          <Trackpoint>
            <Time>2022-07-10T08:04:36.000Z</Time>
            <Position>
              <LatitudeDegrees>43.27633830718696117401123046875</LatitudeDegrees>
              <LongitudeDegrees>-2.12778576649725437164306640625</LongitudeDegrees>
            </Position>
            <AltitudeMeters>47.40000152587890625</AltitudeMeters>
            <DistanceMeters>NAN</DistanceMeters>
          </Trackpoint>
          <Trackpoint>
            <Time>2022-07-10T08:04:41.000Z</Time>
            <Position>
              <LatitudeDegrees>43.27624107711017131805419921875</LatitudeDegrees>
              <LongitudeDegrees>-2.12775106541812419891357421875</LongitudeDegrees>
            </Position>
            <AltitudeMeters>47.40000152587890625</AltitudeMeters>
            <DistanceMeters>NAN</DistanceMeters>
          </Trackpoint>
          <Trackpoint>
            <Time>2022-07-10T08:04:43.000Z</Time>
            <Position>
              <LatitudeDegrees>43.27623789198696613311767578125</LatitudeDegrees>
              <LongitudeDegrees>-2.12775005958974361419677734375</LongitudeDegrees>
            </Position>
            <AltitudeMeters>47.40000152587890625</AltitudeMeters>
            <DistanceMeters>NAN</DistanceMeters>
          </Trackpoint>
          <Trackpoint>
            <Time>2022-07-10T08:04:44.000Z</Time>
            <Position>
              <LatitudeDegrees>43.2762436755001544952392578125</LatitudeDegrees>
              <LongitudeDegrees>-2.12774477899074554443359375</LongitudeDegrees>
            </Position>
            <AltitudeMeters>47.40000152587890625</AltitudeMeters>
            <DistanceMeters>NAN</DistanceMeters>
          </Trackpoint>
          <Trackpoint>
            <Time>2022-07-10T08:04:46.000Z</Time>
            <Position>
              <LatitudeDegrees>43.2762691564857959747314453125</LatitudeDegrees>
              <LongitudeDegrees>-2.12768300436437129974365234375</LongitudeDegrees>
            </Position>
            <AltitudeMeters>47.40000152587890625</AltitudeMeters>
            <DistanceMeters>NAN</DistanceMeters>
          </Trackpoint>
          <Trackpoint>
            <Time>2022-07-10T08:04:49.000Z</Time>
            <Position>
              <LatitudeDegrees>43.276310898363590240478515625</LatitudeDegrees>
              <LongitudeDegrees>-2.12756632827222347259521484375</LongitudeDegrees>
            </Position>
            <AltitudeMeters>47.200000762939453125</AltitudeMeters>
            <DistanceMeters>NAN</DistanceMeters>
          </Trackpoint>
          <Trackpoint>
            <Time>2022-07-10T08:04:51.000Z</Time>
            <Position>
              <LatitudeDegrees>43.27634635381400585174560546875</LatitudeDegrees>
              <LongitudeDegrees>-2.12750329636037349700927734375</LongitudeDegrees>
            </Position>
            <AltitudeMeters>47.200000762939453125</AltitudeMeters>
            <DistanceMeters>NAN</DistanceMeters>
          </Trackpoint>
          <Trackpoint>
            <Time>2022-07-10T08:04:54.000Z</Time>
            <Position>
              <LatitudeDegrees>43.27636328525841236114501953125</LatitudeDegrees>
              <LongitudeDegrees>-2.1274696849286556243896484375</LongitudeDegrees>
            </Position>
            <AltitudeMeters>47.40000152587890625</AltitudeMeters>
            <DistanceMeters>NAN</DistanceMeters>
          </Trackpoint>
          <Trackpoint>
            <Time>2022-07-10T08:04:55.000Z</Time>
            <Position>
              <LatitudeDegrees>43.27635825611650943756103515625</LatitudeDegrees>
              <LongitudeDegrees>-2.127472870051860809326171875</LongitudeDegrees>
            </Position>
            <AltitudeMeters>47.40000152587890625</AltitudeMeters>
            <DistanceMeters>NAN</DistanceMeters>
          </Trackpoint>
          <Trackpoint>
            <Time>2022-07-10T08:04:56.000Z</Time>
            <Position>
              <LatitudeDegrees>43.27636496163904666900634765625</LatitudeDegrees>
              <LongitudeDegrees>-2.12747831828892230987548828125</LongitudeDegrees>
            </Position>
            <AltitudeMeters>47.40000152587890625</AltitudeMeters>
            <DistanceMeters>NAN</DistanceMeters>
          </Trackpoint>
          <Trackpoint>
            <Time>2022-07-10T08:04:58.000Z</Time>
            <Position>
              <LatitudeDegrees>43.276365213096141815185546875</LatitudeDegrees>
              <LongitudeDegrees>-2.1274861134588718414306640625</LongitudeDegrees>
            </Position>
            <AltitudeMeters>47.40000152587890625</AltitudeMeters>
            <DistanceMeters>NAN</DistanceMeters>
          </Trackpoint>
          <Trackpoint>
            <Time>2022-07-10T08:05:02.000Z</Time>
            <Position>
              <LatitudeDegrees>43.2763549871742725372314453125</LatitudeDegrees>
              <LongitudeDegrees>-2.12750094942748546600341796875</LongitudeDegrees>
            </Position>
            <AltitudeMeters>47.40000152587890625</AltitudeMeters>
            <DistanceMeters>NAN</DistanceMeters>
          </Trackpoint>
          <Trackpoint>
            <Time>2022-07-10T08:05:33.000Z</Time>
            <Position>
              <LatitudeDegrees>43.27633394859731197357177734375</LatitudeDegrees>
              <LongitudeDegrees>-2.1275186352431774139404296875</LongitudeDegrees>
            </Position>
            <AltitudeMeters>47.40000152587890625</AltitudeMeters>
            <DistanceMeters>NAN</DistanceMeters>
          </Trackpoint>
          <Trackpoint>
            <Time>2022-07-10T08:05:38.000Z</Time>
            <Position>
              <LatitudeDegrees>43.27627896331250667572021484375</LatitudeDegrees>
              <LongitudeDegrees>-2.12765551172196865081787109375</LongitudeDegrees>
            </Position>
            <AltitudeMeters>47.59999847412109375</AltitudeMeters>
            <DistanceMeters>NAN</DistanceMeters>
          </Trackpoint>
          <Trackpoint>
            <Time>2022-07-10T08:05:40.000Z</Time>
            <Position>
              <LatitudeDegrees>43.27627292834222316741943359375</LatitudeDegrees>
              <LongitudeDegrees>-2.127680070698261260986328125</LongitudeDegrees>
            </Position>
            <AltitudeMeters>47.59999847412109375</AltitudeMeters>
            <DistanceMeters>NAN</DistanceMeters>
          </Trackpoint>
          <Trackpoint>
            <Time>2022-07-10T08:05:42.000Z</Time>
            <Position>
              <LatitudeDegrees>43.2762631215155124664306640625</LatitudeDegrees>
              <LongitudeDegrees>-2.12770295329391956329345703125</LongitudeDegrees>
            </Position>
            <AltitudeMeters>47.59999847412109375</AltitudeMeters>
            <DistanceMeters>NAN</DistanceMeters>
          </Trackpoint>
          <Trackpoint>
            <Time>2022-07-10T08:05:44.000Z</Time>
            <Position>
              <LatitudeDegrees>43.2762564159929752349853515625</LatitudeDegrees>
              <LongitudeDegrees>-2.12774033658206462860107421875</LongitudeDegrees>
            </Position>
            <AltitudeMeters>47.59999847412109375</AltitudeMeters>
            <DistanceMeters>NAN</DistanceMeters>
          </Trackpoint>
          <Trackpoint>
            <Time>2022-07-10T08:05:46.000Z</Time>
            <Position>
              <LatitudeDegrees>43.276212997734546661376953125</LatitudeDegrees>
              <LongitudeDegrees>-2.12776581756770610809326171875</LongitudeDegrees>
            </Position>
            <AltitudeMeters>47.799999237060546875</AltitudeMeters>
            <DistanceMeters>NAN</DistanceMeters>
          </Trackpoint>
          <Trackpoint>
            <Time>2022-07-10T08:05:50.000Z</Time>
            <Position>
              <LatitudeDegrees>43.27619916759431362152099609375</LatitudeDegrees>
              <LongitudeDegrees>-2.12777889333665370941162109375</LongitudeDegrees>
            </Position>
            <AltitudeMeters>48</AltitudeMeters>
            <DistanceMeters>NAN</DistanceMeters>
          </Trackpoint>
          <Trackpoint>
            <Time>2022-07-10T08:05:51.000Z</Time>
            <Position>
              <LatitudeDegrees>43.27625147067010402679443359375</LatitudeDegrees>
              <LongitudeDegrees>-2.1277898736298084259033203125</LongitudeDegrees>
            </Position>
            <AltitudeMeters>48</AltitudeMeters>
            <DistanceMeters>NAN</DistanceMeters>
          </Trackpoint>
          <Trackpoint>
            <Time>2022-07-10T08:05:53.000Z</Time>
            <Position>
              <LatitudeDegrees>43.27615759335458278656005859375</LatitudeDegrees>
              <LongitudeDegrees>-2.12789774872362613677978515625</LongitudeDegrees>
            </Position>
            <AltitudeMeters>47.799999237060546875</AltitudeMeters>
            <DistanceMeters>NAN</DistanceMeters>
          </Trackpoint>
          <Trackpoint>
            <Time>2022-07-10T08:05:58.000Z</Time>
            <Position>
              <LatitudeDegrees>43.2761705853044986724853515625</LatitudeDegrees>
              <LongitudeDegrees>-2.127932198345661163330078125</LongitudeDegrees>
            </Position>
            <AltitudeMeters>47.799999237060546875</AltitudeMeters>
            <DistanceMeters>NAN</DistanceMeters>
          </Trackpoint>
          <Trackpoint>
            <Time>2022-07-10T08:05:59.000Z</Time>
            <Position>
              <LatitudeDegrees>43.27616664581000804901123046875</LatitudeDegrees>
              <LongitudeDegrees>-2.12795005179941654205322265625</LongitudeDegrees>
            </Position>
            <AltitudeMeters>47.799999237060546875</AltitudeMeters>
            <DistanceMeters>NAN</DistanceMeters>
          </Trackpoint>
          <Trackpoint>
            <Time>2022-07-10T08:06:02.000Z</Time>
            <Position>
              <LatitudeDegrees>43.2761062122881412506103515625</LatitudeDegrees>
              <LongitudeDegrees>-2.12789942510426044464111328125</LongitudeDegrees>
            </Position>
            <AltitudeMeters>47.799999237060546875</AltitudeMeters>
            <DistanceMeters>NAN</DistanceMeters>
          </Trackpoint>
          <Trackpoint>
            <Time>2022-07-10T08:06:03.000Z</Time>
            <Position>
              <LatitudeDegrees>43.276092298328876495361328125</LatitudeDegrees>
              <LongitudeDegrees>-2.127891294658184051513671875</LongitudeDegrees>
            </Position>
            <AltitudeMeters>47.799999237060546875</AltitudeMeters>
            <DistanceMeters>NAN</DistanceMeters>
          </Trackpoint>
          <Trackpoint>
            <Time>2022-07-10T08:06:04.000Z</Time>
            <Position>
              <LatitudeDegrees>43.27608366496860980987548828125</LatitudeDegrees>
              <LongitudeDegrees>-2.12787964381277561187744140625</LongitudeDegrees>
            </Position>
            <AltitudeMeters>47.799999237060546875</AltitudeMeters>
            <DistanceMeters>NAN</DistanceMeters>
          </Trackpoint>
          <Trackpoint>
            <Time>2022-07-10T08:06:08.000Z</Time>
            <Position>
              <LatitudeDegrees>43.2760740257799625396728515625</LatitudeDegrees>
              <LongitudeDegrees>-2.127767242491245269775390625</LongitudeDegrees>
            </Position>
            <AltitudeMeters>47.799999237060546875</AltitudeMeters>
            <DistanceMeters>NAN</DistanceMeters>
          </Trackpoint>
          <Trackpoint>
            <Time>2022-07-10T08:06:13.000Z</Time>
            <Position>
              <LatitudeDegrees>43.27606924809515476226806640625</LatitudeDegrees>
              <LongitudeDegrees>-2.12766992859542369842529296875</LongitudeDegrees>
            </Position>
            <AltitudeMeters>47.59999847412109375</AltitudeMeters>
            <DistanceMeters>NAN</DistanceMeters>
          </Trackpoint>
          <Trackpoint>
            <Time>2022-07-10T08:06:17.000Z</Time>
            <Position>
              <LatitudeDegrees>43.27597863972187042236328125</LatitudeDegrees>
              <LongitudeDegrees>-2.12774922139942646026611328125</LongitudeDegrees>
            </Position>
            <AltitudeMeters>47.59999847412109375</AltitudeMeters>
            <DistanceMeters>NAN</DistanceMeters>
          </Trackpoint>
          <Trackpoint>
            <Time>2022-07-10T08:06:18.000Z</Time>
            <Position>
              <LatitudeDegrees>43.27597704716026782989501953125</LatitudeDegrees>
              <LongitudeDegrees>-2.127723656594753265380859375</LongitudeDegrees>
            </Position>
            <AltitudeMeters>47.59999847412109375</AltitudeMeters>
            <DistanceMeters>NAN</DistanceMeters>
          </Trackpoint>
          <Trackpoint>
            <Time>2022-07-10T08:06:20.000Z</Time>
            <Position>
              <LatitudeDegrees>43.27599632553756237030029296875</LatitudeDegrees>
              <LongitudeDegrees>-2.1276819147169589996337890625</LongitudeDegrees>
            </Position>
            <AltitudeMeters>47.59999847412109375</AltitudeMeters>
            <DistanceMeters>NAN</DistanceMeters>
          </Trackpoint>
          <Trackpoint>
            <Time>2022-07-10T08:06:21.000Z</Time>
            <Position>
              <LatitudeDegrees>43.27600814402103424072265625</LatitudeDegrees>
              <LongitudeDegrees>-2.12767504155635833740234375</LongitudeDegrees>
            </Position>
            <AltitudeMeters>47.799999237060546875</AltitudeMeters>
            <DistanceMeters>NAN</DistanceMeters>
          </Trackpoint>
          <Trackpoint>
            <Time>2022-07-10T08:06:24.000Z</Time>
            <Position>
              <LatitudeDegrees>43.2760455273091793060302734375</LatitudeDegrees>
              <LongitudeDegrees>-2.12762064300477504730224609375</LongitudeDegrees>
            </Position>
            <AltitudeMeters>48</AltitudeMeters>
            <DistanceMeters>NAN</DistanceMeters>
          </Trackpoint>
          <Trackpoint>
            <Time>2022-07-10T08:06:28.000Z</Time>
            <Position>
              <LatitudeDegrees>43.27616128139197826385498046875</LatitudeDegrees>
              <LongitudeDegrees>-2.12764427997171878814697265625</LongitudeDegrees>
            </Position>
            <AltitudeMeters>48</AltitudeMeters>
            <DistanceMeters>NAN</DistanceMeters>
          </Trackpoint>
          <Trackpoint>
            <Time>2022-07-10T08:06:31.000Z</Time>
            <Position>
              <LatitudeDegrees>43.27619229443371295928955078125</LatitudeDegrees>
              <LongitudeDegrees>-2.1275300346314907073974609375</LongitudeDegrees>
            </Position>
            <AltitudeMeters>47.799999237060546875</AltitudeMeters>
            <DistanceMeters>NAN</DistanceMeters>
          </Trackpoint>
          <Trackpoint>
            <Time>2022-07-10T08:06:34.000Z</Time>
            <Position>
              <LatitudeDegrees>43.27621207572519779205322265625</LatitudeDegrees>
              <LongitudeDegrees>-2.1274973452091217041015625</LongitudeDegrees>
            </Position>
            <AltitudeMeters>46.799999237060546875</AltitudeMeters>
            <DistanceMeters>NAN</DistanceMeters>
          </Trackpoint>
          <Trackpoint>
            <Time>2022-07-10T08:06:35.000Z</Time>
            <Position>
              <LatitudeDegrees>43.27621559612452983856201171875</LatitudeDegrees>
              <LongitudeDegrees>-2.12750136852264404296875</LongitudeDegrees>
            </Position>
            <AltitudeMeters>46.59999847412109375</AltitudeMeters>
            <DistanceMeters>NAN</DistanceMeters>
          </Trackpoint>
          <Trackpoint>
            <Time>2022-07-10T08:06:36.000Z</Time>
            <Position>
              <LatitudeDegrees>43.27621626667678356170654296875</LatitudeDegrees>
              <LongitudeDegrees>-2.12747194804251194000244140625</LongitudeDegrees>
            </Position>
            <AltitudeMeters>46.40000152587890625</AltitudeMeters>
            <DistanceMeters>NAN</DistanceMeters>
          </Trackpoint>
          <Trackpoint>
            <Time>2022-07-10T08:06:38.000Z</Time>
            <Position>
              <LatitudeDegrees>43.2761965692043304443359375</LatitudeDegrees>
              <LongitudeDegrees>-2.127458117902278900146484375</LongitudeDegrees>
            </Position>
            <AltitudeMeters>46.200000762939453125</AltitudeMeters>
            <DistanceMeters>NAN</DistanceMeters>
          </Trackpoint>
          <Trackpoint>
            <Time>2022-07-10T08:06:39.000Z</Time>
            <Position>
              <LatitudeDegrees>43.2761729322373867034912109375</LatitudeDegrees>
              <LongitudeDegrees>-2.1274582855403423309326171875</LongitudeDegrees>
            </Position>
            <AltitudeMeters>46</AltitudeMeters>
            <DistanceMeters>NAN</DistanceMeters>
          </Trackpoint>
          <Trackpoint>
            <Time>2022-07-10T08:06:42.000Z</Time>
            <Position>
              <LatitudeDegrees>43.276090957224369049072265625</LatitudeDegrees>
              <LongitudeDegrees>-2.127435989677906036376953125</LongitudeDegrees>
            </Position>
            <AltitudeMeters>44.59999847412109375</AltitudeMeters>
            <DistanceMeters>NAN</DistanceMeters>
          </Trackpoint>
          <Trackpoint>
            <Time>2022-07-10T08:06:43.000Z</Time>
            <Position>
              <LatitudeDegrees>43.27607452869415283203125</LatitudeDegrees>
              <LongitudeDegrees>-2.12744294665753841400146484375</LongitudeDegrees>
            </Position>
            <AltitudeMeters>44.200000762939453125</AltitudeMeters>
            <DistanceMeters>NAN</DistanceMeters>
          </Trackpoint>
          <Trackpoint>
            <Time>2022-07-10T08:06:44.000Z</Time>
            <Position>
              <LatitudeDegrees>43.2760723493993282318115234375</LatitudeDegrees>
              <LongitudeDegrees>-2.12745803408324718475341796875</LongitudeDegrees>
            </Position>
            <AltitudeMeters>43.799999237060546875</AltitudeMeters>
            <DistanceMeters>NAN</DistanceMeters>
          </Trackpoint>
          <Trackpoint>
            <Time>2022-07-10T08:06:45.000Z</Time>
            <Position>
              <LatitudeDegrees>43.276073522865772247314453125</LatitudeDegrees>
              <LongitudeDegrees>-2.127458117902278900146484375</LongitudeDegrees>
            </Position>
            <AltitudeMeters>43.40000152587890625</AltitudeMeters>
            <DistanceMeters>NAN</DistanceMeters>
          </Trackpoint>
          <Trackpoint>
            <Time>2022-07-10T08:06:49.000Z</Time>
            <Position>
              <LatitudeDegrees>43.27613999135792255401611328125</LatitudeDegrees>
              <LongitudeDegrees>-2.12740405462682247161865234375</LongitudeDegrees>
            </Position>
            <AltitudeMeters>42.59999847412109375</AltitudeMeters>
            <DistanceMeters>NAN</DistanceMeters>
          </Trackpoint>
          <Trackpoint>
            <Time>2022-07-10T08:06:50.000Z</Time>
            <Position>
              <LatitudeDegrees>43.27615172602236270904541015625</LatitudeDegrees>
              <LongitudeDegrees>-2.1273550204932689666748046875</LongitudeDegrees>
            </Position>
            <AltitudeMeters>42.40000152587890625</AltitudeMeters>
            <DistanceMeters>NAN</DistanceMeters>
          </Trackpoint>
          <Trackpoint>
            <Time>2022-07-10T08:06:52.000Z</Time>
            <Position>
              <LatitudeDegrees>43.27616111375391483306884765625</LatitudeDegrees>
              <LongitudeDegrees>-2.12731386534869670867919921875</LongitudeDegrees>
            </Position>
            <AltitudeMeters>41.59999847412109375</AltitudeMeters>
            <DistanceMeters>NAN</DistanceMeters>
          </Trackpoint>
          <Trackpoint>
            <Time>2022-07-10T08:06:53.000Z</Time>
            <Position>
              <LatitudeDegrees>43.27616111375391483306884765625</LatitudeDegrees>
              <LongitudeDegrees>-2.12731386534869670867919921875</LongitudeDegrees>
            </Position>
            <AltitudeMeters>41.40000152587890625</AltitudeMeters>
            <DistanceMeters>NAN</DistanceMeters>
          </Trackpoint>
          <Trackpoint>
            <Time>2022-07-10T08:06:54.000Z</Time>
            <Position>
              <LatitudeDegrees>43.276160024106502532958984375</LatitudeDegrees>
              <LongitudeDegrees>-2.127309925854206085205078125</LongitudeDegrees>
            </Position>
            <AltitudeMeters>40.799999237060546875</AltitudeMeters>
            <DistanceMeters>NAN</DistanceMeters>
          </Trackpoint>
          <Trackpoint>
            <Time>2022-07-10T08:06:55.000Z</Time>
            <Position>
              <LatitudeDegrees>43.27613018453121185302734375</LatitudeDegrees>
              <LongitudeDegrees>-2.1272758953273296356201171875</LongitudeDegrees>
            </Position>
            <AltitudeMeters>40.40000152587890625</AltitudeMeters>
            <DistanceMeters>NAN</DistanceMeters>
          </Trackpoint>
          <Trackpoint>
            <Time>2022-07-10T08:06:56.000Z</Time>
            <Position>
              <LatitudeDegrees>43.27609690837562084197998046875</LatitudeDegrees>
              <LongitudeDegrees>-2.12723608128726482391357421875</LongitudeDegrees>
            </Position>
            <AltitudeMeters>39.799999237060546875</AltitudeMeters>
            <DistanceMeters>NAN</DistanceMeters>
          </Trackpoint>
          <Trackpoint>
            <Time>2022-07-10T08:06:58.000Z</Time>
            <Position>
              <LatitudeDegrees>43.27603069134056568145751953125</LatitudeDegrees>
              <LongitudeDegrees>-2.1271900646388530731201171875</LongitudeDegrees>
            </Position>
            <AltitudeMeters>38.40000152587890625</AltitudeMeters>
            <DistanceMeters>NAN</DistanceMeters>
          </Trackpoint>
          <Trackpoint>
            <Time>2022-07-10T08:07:00.000Z</Time>
            <Position>
              <LatitudeDegrees>43.2759915478527545928955078125</LatitudeDegrees>
              <LongitudeDegrees>-2.12714723311364650726318359375</LongitudeDegrees>
            </Position>
            <AltitudeMeters>37.40000152587890625</AltitudeMeters>
            <DistanceMeters>NAN</DistanceMeters>
          </Trackpoint>
          <Trackpoint>
            <Time>2022-07-10T08:07:01.000Z</Time>
            <Position>
              <LatitudeDegrees>43.27598056755959987640380859375</LatitudeDegrees>
              <LongitudeDegrees>-2.12712510488927364349365234375</LongitudeDegrees>
            </Position>
            <AltitudeMeters>37.200000762939453125</AltitudeMeters>
            <DistanceMeters>NAN</DistanceMeters>
          </Trackpoint>
          <Trackpoint>
            <Time>2022-07-10T08:07:05.000Z</Time>
            <Position>
              <LatitudeDegrees>43.27594888396561145782470703125</LatitudeDegrees>
              <LongitudeDegrees>-2.12706073187291622161865234375</LongitudeDegrees>
            </Position>
            <AltitudeMeters>37</AltitudeMeters>
            <DistanceMeters>NAN</DistanceMeters>
          </Trackpoint>
          <Trackpoint>
            <Time>2022-07-10T08:07:06.000Z</Time>
            <Position>
              <LatitudeDegrees>43.27592499554157257080078125</LatitudeDegrees>
              <LongitudeDegrees>-2.1270522661507129669189453125</LongitudeDegrees>
            </Position>
            <AltitudeMeters>37</AltitudeMeters>
            <DistanceMeters>NAN</DistanceMeters>
          </Trackpoint>
          <Trackpoint>
            <Time>2022-07-10T08:07:10.000Z</Time>
            <Position>
              <LatitudeDegrees>43.27590915374457836151123046875</LatitudeDegrees>
              <LongitudeDegrees>-2.12702938355505466461181640625</LongitudeDegrees>
            </Position>
            <AltitudeMeters>37</AltitudeMeters>
            <DistanceMeters>NAN</DistanceMeters>
          </Trackpoint>
          <Trackpoint>
            <Time>2022-07-10T08:07:11.000Z</Time>
            <Position>
              <LatitudeDegrees>43.27591887675225734710693359375</LatitudeDegrees>
              <LongitudeDegrees>-2.12702586315572261810302734375</LongitudeDegrees>
            </Position>
            <AltitudeMeters>37</AltitudeMeters>
            <DistanceMeters>NAN</DistanceMeters>
          </Trackpoint>
          <Trackpoint>
            <Time>2022-07-10T08:07:16.000Z</Time>
            <Position>
              <LatitudeDegrees>43.27590278349816799163818359375</LatitudeDegrees>
              <LongitudeDegrees>-2.12705553509294986724853515625</LongitudeDegrees>
            </Position>
            <AltitudeMeters>36.799999237060546875</AltitudeMeters>
            <DistanceMeters>NAN</DistanceMeters>
          </Trackpoint>
          <Trackpoint>
            <Time>2022-07-10T08:07:22.000Z</Time>
            <Position>
              <LatitudeDegrees>43.27585601247847080230712890625</LatitudeDegrees>
              <LongitudeDegrees>-2.12709878571331501007080078125</LongitudeDegrees>
            </Position>
            <AltitudeMeters>37</AltitudeMeters>
            <DistanceMeters>NAN</DistanceMeters>
          </Trackpoint>
          <Trackpoint>
            <Time>2022-07-10T08:07:26.000Z</Time>
            <Position>
              <LatitudeDegrees>43.27583111822605133056640625</LatitudeDegrees>
              <LongitudeDegrees>-2.1271337382495403289794921875</LongitudeDegrees>
            </Position>
            <AltitudeMeters>37</AltitudeMeters>
            <DistanceMeters>NAN</DistanceMeters>
          </Trackpoint>
          <Trackpoint>
            <Time>2022-07-10T08:07:27.000Z</Time>
            <Position>
              <LatitudeDegrees>43.2758259214460849761962890625</LatitudeDegrees>
              <LongitudeDegrees>-2.12713952176272869110107421875</LongitudeDegrees>
            </Position>
            <AltitudeMeters>37</AltitudeMeters>
            <DistanceMeters>NAN</DistanceMeters>
          </Trackpoint>
          <Trackpoint>
            <Time>2022-07-10T08:07:30.000Z</Time>
            <Position>
              <LatitudeDegrees>43.2758022844791412353515625</LatitudeDegrees>
              <LongitudeDegrees>-2.12716952897608280181884765625</LongitudeDegrees>
            </Position>
            <AltitudeMeters>37</AltitudeMeters>
            <DistanceMeters>NAN</DistanceMeters>
          </Trackpoint>
          <Trackpoint>
            <Time>2022-07-10T08:07:32.000Z</Time>
            <Position>
              <LatitudeDegrees>43.2757769711315631866455078125</LatitudeDegrees>
              <LongitudeDegrees>-2.12716617621481418609619140625</LongitudeDegrees>
            </Position>
            <AltitudeMeters>37</AltitudeMeters>
            <DistanceMeters>NAN</DistanceMeters>
          </Trackpoint>
          <Trackpoint>
            <Time>2022-07-10T08:07:37.000Z</Time>
            <Position>
              <LatitudeDegrees>43.27569759450852870941162109375</LatitudeDegrees>
              <LongitudeDegrees>-2.1271625719964504241943359375</LongitudeDegrees>
            </Position>
            <AltitudeMeters>37</AltitudeMeters>
            <DistanceMeters>NAN</DistanceMeters>
          </Trackpoint>
          <Trackpoint>
            <Time>2022-07-10T08:07:39.000Z</Time>
            <Position>
              <LatitudeDegrees>43.27564713545143604278564453125</LatitudeDegrees>
              <LongitudeDegrees>-2.12727363221347332000732421875</LongitudeDegrees>
            </Position>
            <AltitudeMeters>37</AltitudeMeters>
            <DistanceMeters>NAN</DistanceMeters>
          </Trackpoint>
          <Trackpoint>
            <Time>2022-07-10T08:07:42.000Z</Time>
            <Position>
              <LatitudeDegrees>43.27566574327647686004638671875</LatitudeDegrees>
              <LongitudeDegrees>-2.12726022116839885711669921875</LongitudeDegrees>
            </Position>
            <AltitudeMeters>37</AltitudeMeters>
            <DistanceMeters>NAN</DistanceMeters>
          </Trackpoint>
          <Trackpoint>
            <Time>2022-07-10T08:17:45.000Z</Time>
            <Position>
              <LatitudeDegrees>43.27560388483107089996337890625</LatitudeDegrees>
              <LongitudeDegrees>-2.127310596406459808349609375</LongitudeDegrees>
            </Position>
            <AltitudeMeters>35.40000152587890625</AltitudeMeters>
            <DistanceMeters>NAN</DistanceMeters>
          </Trackpoint>
          <Trackpoint>
            <Time>2022-07-10T08:17:47.000Z</Time>
            <Position>
              <LatitudeDegrees>43.27560388483107089996337890625</LatitudeDegrees>
              <LongitudeDegrees>-2.127310596406459808349609375</LongitudeDegrees>
            </Position>
            <AltitudeMeters>35.40000152587890625</AltitudeMeters>
            <DistanceMeters>NAN</DistanceMeters>
          </Trackpoint>
          <Trackpoint>
            <Time>2022-07-10T08:23:08.000Z</Time>
            <Position>
              <LatitudeDegrees>43.27569206245243549346923828125</LatitudeDegrees>
              <LongitudeDegrees>-2.12727899663150310516357421875</LongitudeDegrees>
            </Position>
            <AltitudeMeters>35.799999237060546875</AltitudeMeters>
            <DistanceMeters>NAN</DistanceMeters>
          </Trackpoint>
          <Trackpoint>
            <Time>2022-07-10T08:23:09.000Z</Time>
            <Position>
              <LatitudeDegrees>43.2756949961185455322265625</LatitudeDegrees>
              <LongitudeDegrees>-2.12730397470295429229736328125</LongitudeDegrees>
            </Position>
            <AltitudeMeters>35.799999237060546875</AltitudeMeters>
            <DistanceMeters>NAN</DistanceMeters>
          </Trackpoint>
          <Trackpoint>
            <Time>2022-07-10T08:23:11.000Z</Time>
            <Position>
              <LatitudeDegrees>43.27569273300468921661376953125</LatitudeDegrees>
              <LongitudeDegrees>-2.12731721810996532440185546875</LongitudeDegrees>
            </Position>
            <AltitudeMeters>35.799999237060546875</AltitudeMeters>
            <DistanceMeters>NAN</DistanceMeters>
          </Trackpoint>
          <Trackpoint>
            <Time>2022-07-10T08:23:13.000Z</Time>
            <Position>
              <LatitudeDegrees>43.27569273300468921661376953125</LatitudeDegrees>
              <LongitudeDegrees>-2.12731721810996532440185546875</LongitudeDegrees>
            </Position>
            <AltitudeMeters>35.799999237060546875</AltitudeMeters>
            <DistanceMeters>NAN</DistanceMeters>
          </Trackpoint>
          <Trackpoint>
            <Time>2022-07-10T08:24:43.000Z</Time>
            <Position>
              <LatitudeDegrees>43.27561276964843273162841796875</LatitudeDegrees>
              <LongitudeDegrees>-2.12735326029360294342041015625</LongitudeDegrees>
            </Position>
            <AltitudeMeters>35.799999237060546875</AltitudeMeters>
            <DistanceMeters>NAN</DistanceMeters>
          </Trackpoint>
          <Trackpoint>
            <Time>2022-07-10T08:24:44.000Z</Time>
            <Position>
              <LatitudeDegrees>43.27560958452522754669189453125</LatitudeDegrees>
              <LongitudeDegrees>-2.12735393084585666656494140625</LongitudeDegrees>
            </Position>
            <AltitudeMeters>35.799999237060546875</AltitudeMeters>
            <DistanceMeters>NAN</DistanceMeters>
          </Trackpoint>
          <Trackpoint>
            <Time>2022-07-10T08:24:47.000Z</Time>
            <Position>
              <LatitudeDegrees>43.2756029628217220306396484375</LatitudeDegrees>
              <LongitudeDegrees>-2.12734336964786052703857421875</LongitudeDegrees>
            </Position>
            <AltitudeMeters>35.59999847412109375</AltitudeMeters>
            <DistanceMeters>NAN</DistanceMeters>
          </Trackpoint>
          <Trackpoint>
            <Time>2022-07-10T08:27:39.000Z</Time>
            <Position>
              <LatitudeDegrees>43.27564277686178684234619140625</LatitudeDegrees>
              <LongitudeDegrees>-2.12736348621547222137451171875</LongitudeDegrees>
            </Position>
            <AltitudeMeters>35.200000762939453125</AltitudeMeters>
            <DistanceMeters>NAN</DistanceMeters>
          </Trackpoint>
          <Trackpoint>
            <Time>2022-07-10T08:27:40.000Z</Time>
            <Position>
              <LatitudeDegrees>43.27566842548549175262451171875</LatitudeDegrees>
              <LongitudeDegrees>-2.1273694373667240142822265625</LongitudeDegrees>
            </Position>
            <AltitudeMeters>35.200000762939453125</AltitudeMeters>
            <DistanceMeters>NAN</DistanceMeters>
          </Trackpoint>
          <Trackpoint>
            <Time>2022-07-10T08:27:43.000Z</Time>
            <Position>
              <LatitudeDegrees>43.27568066306412220001220703125</LatitudeDegrees>
              <LongitudeDegrees>-2.12737438268959522247314453125</LongitudeDegrees>
            </Position>
            <AltitudeMeters>35.40000152587890625</AltitudeMeters>
            <DistanceMeters>NAN</DistanceMeters>
          </Trackpoint>
          <Trackpoint>
            <Time>2022-07-10T08:27:46.000Z</Time>
            <Position>
              <LatitudeDegrees>43.27566306106746196746826171875</LatitudeDegrees>
              <LongitudeDegrees>-2.12735560722649097442626953125</LongitudeDegrees>
            </Position>
            <AltitudeMeters>35.59999847412109375</AltitudeMeters>
            <DistanceMeters>NAN</DistanceMeters>
          </Trackpoint>
          <Trackpoint>
            <Time>2022-07-10T08:27:50.000Z</Time>
            <Position>
              <LatitudeDegrees>43.27565467916429042816162109375</LatitudeDegrees>
              <LongitudeDegrees>-2.1273463033139705657958984375</LongitudeDegrees>
            </Position>
            <AltitudeMeters>35.59999847412109375</AltitudeMeters>
            <DistanceMeters>NAN</DistanceMeters>
          </Trackpoint>
          <Trackpoint>
            <Time>2022-07-10T08:29:54.000Z</Time>
            <Position>
              <LatitudeDegrees>43.27576481737196445465087890625</LatitudeDegrees>
              <LongitudeDegrees>-2.1273811720311641693115234375</LongitudeDegrees>
            </Position>
            <AltitudeMeters>35.200000762939453125</AltitudeMeters>
            <DistanceMeters>NAN</DistanceMeters>
          </Trackpoint>
          <Trackpoint>
            <Time>2022-07-10T08:29:55.000Z</Time>
            <Position>
              <LatitudeDegrees>43.27576481737196445465087890625</LatitudeDegrees>
              <LongitudeDegrees>-2.1273811720311641693115234375</LongitudeDegrees>
            </Position>
            <AltitudeMeters>35.200000762939453125</AltitudeMeters>
            <DistanceMeters>NAN</DistanceMeters>
          </Trackpoint>
          <Trackpoint>
            <Time>2022-07-10T08:29:56.000Z</Time>
            <Position>
              <LatitudeDegrees>43.27576481737196445465087890625</LatitudeDegrees>
              <LongitudeDegrees>-2.1273811720311641693115234375</LongitudeDegrees>
            </Position>
            <AltitudeMeters>35.200000762939453125</AltitudeMeters>
            <DistanceMeters>NAN</DistanceMeters>
          </Trackpoint>
          <Trackpoint>
            <Time>2022-07-10T08:31:02.000Z</Time>
            <Position>
              <LatitudeDegrees>43.275763727724552154541015625</LatitudeDegrees>
              <LongitudeDegrees>-2.1273496560752391815185546875</LongitudeDegrees>
            </Position>
            <AltitudeMeters>35.200000762939453125</AltitudeMeters>
            <DistanceMeters>NAN</DistanceMeters>
          </Trackpoint>
          <Trackpoint>
            <Time>2022-07-10T08:31:03.000Z</Time>
            <Position>
              <LatitudeDegrees>43.275763727724552154541015625</LatitudeDegrees>
              <LongitudeDegrees>-2.1273496560752391815185546875</LongitudeDegrees>
            </Position>
            <AltitudeMeters>35.200000762939453125</AltitudeMeters>
            <DistanceMeters>NAN</DistanceMeters>
          </Trackpoint>
          <Trackpoint>
            <Time>2022-07-10T08:31:04.000Z</Time>
            <Position>
              <LatitudeDegrees>43.275763727724552154541015625</LatitudeDegrees>
              <LongitudeDegrees>-2.1273496560752391815185546875</LongitudeDegrees>
            </Position>
            <AltitudeMeters>35.200000762939453125</AltitudeMeters>
            <DistanceMeters>NAN</DistanceMeters>
          </Trackpoint>
          <Trackpoint>
            <Time>2022-07-10T08:35:23.000Z</Time>
            <Position>
              <LatitudeDegrees>43.27573497779667377471923828125</LatitudeDegrees>
              <LongitudeDegrees>-2.1273248456418514251708984375</LongitudeDegrees>
            </Position>
            <AltitudeMeters>34.59999847412109375</AltitudeMeters>
            <DistanceMeters>NAN</DistanceMeters>
          </Trackpoint>
          <Trackpoint>
            <Time>2022-07-10T08:35:24.000Z</Time>
            <Position>
              <LatitudeDegrees>43.2757434435188770294189453125</LatitudeDegrees>
              <LongitudeDegrees>-2.1273412741720676422119140625</LongitudeDegrees>
            </Position>
            <AltitudeMeters>35.200000762939453125</AltitudeMeters>
            <DistanceMeters>NAN</DistanceMeters>
          </Trackpoint>
          <Trackpoint>
            <Time>2022-07-10T08:35:26.000Z</Time>
            <Position>
              <LatitudeDegrees>43.27575677074491977691650390625</LatitudeDegrees>
              <LongitudeDegrees>-2.12736600078642368316650390625</LongitudeDegrees>
            </Position>
            <AltitudeMeters>35.200000762939453125</AltitudeMeters>
            <DistanceMeters>NAN</DistanceMeters>
          </Trackpoint>
          <Trackpoint>
            <Time>2022-07-10T08:35:29.000Z</Time>
            <Position>
              <LatitudeDegrees>43.27574755065143108367919921875</LatitudeDegrees>
              <LongitudeDegrees>-2.12737287394702434539794921875</LongitudeDegrees>
            </Position>
            <AltitudeMeters>35.40000152587890625</AltitudeMeters>
            <DistanceMeters>NAN</DistanceMeters>
          </Trackpoint>
          <Trackpoint>
            <Time>2022-07-10T08:35:37.000Z</Time>
            <Position>
              <LatitudeDegrees>43.27573648653924465179443359375</LatitudeDegrees>
              <LongitudeDegrees>-2.12737740017473697662353515625</LongitudeDegrees>
            </Position>
            <AltitudeMeters>35.59999847412109375</AltitudeMeters>
            <DistanceMeters>NAN</DistanceMeters>
          </Trackpoint>
          <Trackpoint>
            <Time>2022-07-10T08:35:39.000Z</Time>
            <Position>
              <LatitudeDegrees>43.27573648653924465179443359375</LatitudeDegrees>
              <LongitudeDegrees>-2.12737740017473697662353515625</LongitudeDegrees>
            </Position>
            <AltitudeMeters>35.59999847412109375</AltitudeMeters>
            <DistanceMeters>NAN</DistanceMeters>
          </Trackpoint>
          <Trackpoint>
            <Time>2022-07-10T08:49:27.000Z</Time>
            <Position>
              <LatitudeDegrees>43.2756542600691318511962890625</LatitudeDegrees>
              <LongitudeDegrees>-2.1269260346889495849609375</LongitudeDegrees>
            </Position>
            <AltitudeMeters>36.59999847412109375</AltitudeMeters>
            <DistanceMeters>NAN</DistanceMeters>
          </Trackpoint>
          <Trackpoint>
            <Time>2022-07-10T08:49:28.000Z</Time>
            <Position>
              <LatitudeDegrees>43.27566272579133510589599609375</LatitudeDegrees>
              <LongitudeDegrees>-2.12692377157509326934814453125</LongitudeDegrees>
            </Position>
            <AltitudeMeters>36.59999847412109375</AltitudeMeters>
            <DistanceMeters>NAN</DistanceMeters>
          </Trackpoint>
          <Trackpoint>
            <Time>2022-07-10T08:49:30.000Z</Time>
            <Position>
              <LatitudeDegrees>43.27566272579133510589599609375</LatitudeDegrees>
              <LongitudeDegrees>-2.12692377157509326934814453125</LongitudeDegrees>
            </Position>
            <AltitudeMeters>36.59999847412109375</AltitudeMeters>
            <DistanceMeters>NAN</DistanceMeters>
          </Trackpoint>
          <Trackpoint>
            <Time>2022-07-10T08:49:34.000Z</Time>
            <Position>
              <LatitudeDegrees>43.27567663975059986114501953125</LatitudeDegrees>
              <LongitudeDegrees>-2.126904912292957305908203125</LongitudeDegrees>
            </Position>
            <AltitudeMeters>36.59999847412109375</AltitudeMeters>
            <DistanceMeters>NAN</DistanceMeters>
          </Trackpoint>
          <Trackpoint>
            <Time>2022-07-10T08:49:37.000Z</Time>
            <Position>
              <LatitudeDegrees>43.27567999251186847686767578125</LatitudeDegrees>
              <LongitudeDegrees>-2.1269010566174983978271484375</LongitudeDegrees>
            </Position>
            <AltitudeMeters>36.59999847412109375</AltitudeMeters>
            <DistanceMeters>NAN</DistanceMeters>
          </Trackpoint>
          <Trackpoint>
            <Time>2022-07-10T08:51:49.000Z</Time>
            <Position>
              <LatitudeDegrees>43.2756237499415874481201171875</LatitudeDegrees>
              <LongitudeDegrees>-2.12716433219611644744873046875</LongitudeDegrees>
            </Position>
            <AltitudeMeters>37.40000152587890625</AltitudeMeters>
            <DistanceMeters>NAN</DistanceMeters>
          </Trackpoint>
          <Trackpoint>
            <Time>2022-07-10T08:51:50.000Z</Time>
            <Position>
              <LatitudeDegrees>43.27560690231621265411376953125</LatitudeDegrees>
              <LongitudeDegrees>-2.12717078626155853271484375</LongitudeDegrees>
            </Position>
            <AltitudeMeters>37.40000152587890625</AltitudeMeters>
            <DistanceMeters>NAN</DistanceMeters>
          </Trackpoint>
          <Trackpoint>
            <Time>2022-07-10T08:51:54.000Z</Time>
            <Position>
              <LatitudeDegrees>43.27560422010719776153564453125</LatitudeDegrees>
              <LongitudeDegrees>-2.12717950344085693359375</LongitudeDegrees>
            </Position>
            <AltitudeMeters>37.40000152587890625</AltitudeMeters>
            <DistanceMeters>NAN</DistanceMeters>
          </Trackpoint>
          <Trackpoint>
            <Time>2022-07-10T08:51:55.000Z</Time>
            <Position>
              <LatitudeDegrees>43.27560422010719776153564453125</LatitudeDegrees>
              <LongitudeDegrees>-2.12717950344085693359375</LongitudeDegrees>
            </Position>
            <AltitudeMeters>37.40000152587890625</AltitudeMeters>
            <DistanceMeters>NAN</DistanceMeters>
          </Trackpoint>
          <Trackpoint>
            <Time>2022-07-10T08:58:49.000Z</Time>
            <Position>
              <LatitudeDegrees>43.275651074945926666259765625</LatitudeDegrees>
              <LongitudeDegrees>-2.12719249539077281951904296875</LongitudeDegrees>
            </Position>
            <AltitudeMeters>37</AltitudeMeters>
            <DistanceMeters>NAN</DistanceMeters>
          </Trackpoint>
          <Trackpoint>
            <Time>2022-07-10T08:58:51.000Z</Time>
            <Position>
              <LatitudeDegrees>43.27566909603774547576904296875</LatitudeDegrees>
              <LongitudeDegrees>-2.12717103771865367889404296875</LongitudeDegrees>
            </Position>
            <AltitudeMeters>37</AltitudeMeters>
            <DistanceMeters>NAN</DistanceMeters>
          </Trackpoint>
          <Trackpoint>
            <Time>2022-07-10T08:58:52.000Z</Time>
            <Position>
              <LatitudeDegrees>43.2756975106894969940185546875</LatitudeDegrees>
              <LongitudeDegrees>-2.1271548606455326080322265625</LongitudeDegrees>
            </Position>
            <AltitudeMeters>37</AltitudeMeters>
            <DistanceMeters>NAN</DistanceMeters>
          </Trackpoint>
          <Trackpoint>
            <Time>2022-07-10T08:58:56.000Z</Time>
            <Position>
              <LatitudeDegrees>43.27572860755026340484619140625</LatitudeDegrees>
              <LongitudeDegrees>-2.127106748521327972412109375</LongitudeDegrees>
            </Position>
            <AltitudeMeters>37.200000762939453125</AltitudeMeters>
            <DistanceMeters>NAN</DistanceMeters>
          </Trackpoint>
          <Trackpoint>
            <Time>2022-07-10T08:59:00.000Z</Time>
            <Position>
              <LatitudeDegrees>43.275721482932567596435546875</LatitudeDegrees>
              <LongitudeDegrees>-2.1270103566348552703857421875</LongitudeDegrees>
            </Position>
            <AltitudeMeters>37.200000762939453125</AltitudeMeters>
            <DistanceMeters>NAN</DistanceMeters>
          </Trackpoint>
          <Trackpoint>
            <Time>2022-07-10T08:59:01.000Z</Time>
            <Position>
              <LatitudeDegrees>43.27571955509483814239501953125</LatitudeDegrees>
              <LongitudeDegrees>-2.126986049115657806396484375</LongitudeDegrees>
            </Position>
            <AltitudeMeters>37</AltitudeMeters>
            <DistanceMeters>NAN</DistanceMeters>
          </Trackpoint>
          <Trackpoint>
            <Time>2022-07-10T08:59:02.000Z</Time>
            <Position>
              <LatitudeDegrees>43.27572626061737537384033203125</LatitudeDegrees>
              <LongitudeDegrees>-2.126947827637195587158203125</LongitudeDegrees>
            </Position>
            <AltitudeMeters>37</AltitudeMeters>
            <DistanceMeters>NAN</DistanceMeters>
          </Trackpoint>
          <Trackpoint>
            <Time>2022-07-10T08:59:04.000Z</Time>
            <Position>
              <LatitudeDegrees>43.27573212794959545135498046875</LatitudeDegrees>
              <LongitudeDegrees>-2.12692360393702983856201171875</LongitudeDegrees>
            </Position>
            <AltitudeMeters>37</AltitudeMeters>
            <DistanceMeters>NAN</DistanceMeters>
          </Trackpoint>
          <Trackpoint>
            <Time>2022-07-10T08:59:05.000Z</Time>
            <Position>
              <LatitudeDegrees>43.27572626061737537384033203125</LatitudeDegrees>
              <LongitudeDegrees>-2.126918323338031768798828125</LongitudeDegrees>
            </Position>
            <AltitudeMeters>37</AltitudeMeters>
            <DistanceMeters>NAN</DistanceMeters>
          </Trackpoint>
          <Trackpoint>
            <Time>2022-07-10T08:59:07.000Z</Time>
            <Position>
              <LatitudeDegrees>43.27569792978465557098388671875</LatitudeDegrees>
              <LongitudeDegrees>-2.126906253397464752197265625</LongitudeDegrees>
            </Position>
            <AltitudeMeters>37</AltitudeMeters>
            <DistanceMeters>NAN</DistanceMeters>
          </Trackpoint>
          <Trackpoint>
            <Time>2022-07-10T08:59:09.000Z</Time>
            <Position>
              <LatitudeDegrees>43.27569834887981414794921875</LatitudeDegrees>
              <LongitudeDegrees>-2.12686275132000446319580078125</LongitudeDegrees>
            </Position>
            <AltitudeMeters>36.59999847412109375</AltitudeMeters>
            <DistanceMeters>NAN</DistanceMeters>
          </Trackpoint>
          <Trackpoint>
            <Time>2022-07-10T08:59:15.000Z</Time>
            <Position>
              <LatitudeDegrees>43.275738246738910675048828125</LatitudeDegrees>
              <LongitudeDegrees>-2.12665890343487262725830078125</LongitudeDegrees>
            </Position>
            <AltitudeMeters>36.200000762939453125</AltitudeMeters>
            <DistanceMeters>NAN</DistanceMeters>
          </Trackpoint>
          <Trackpoint>
            <Time>2022-07-10T08:59:22.000Z</Time>
            <Position>
              <LatitudeDegrees>43.2758014462888240814208984375</LatitudeDegrees>
              <LongitudeDegrees>-2.12642538361251354217529296875</LongitudeDegrees>
            </Position>
            <AltitudeMeters>36</AltitudeMeters>
            <DistanceMeters>NAN</DistanceMeters>
          </Trackpoint>
          <Trackpoint>
            <Time>2022-07-10T08:59:25.000Z</Time>
            <Position>
              <LatitudeDegrees>43.275828100740909576416015625</LatitudeDegrees>
              <LongitudeDegrees>-2.12634106166660785675048828125</LongitudeDegrees>
            </Position>
            <AltitudeMeters>35.799999237060546875</AltitudeMeters>
            <DistanceMeters>NAN</DistanceMeters>
          </Trackpoint>
          <Trackpoint>
            <Time>2022-07-10T08:59:27.000Z</Time>
            <Position>
              <LatitudeDegrees>43.2758560962975025177001953125</LatitudeDegrees>
              <LongitudeDegrees>-2.12633335031569004058837890625</LongitudeDegrees>
            </Position>
            <AltitudeMeters>35.59999847412109375</AltitudeMeters>
            <DistanceMeters>NAN</DistanceMeters>
          </Trackpoint>
          <Trackpoint>
            <Time>2022-07-10T08:59:30.000Z</Time>
            <Position>
              <LatitudeDegrees>43.27588551677763462066650390625</LatitudeDegrees>
              <LongitudeDegrees>-2.12633033283054828643798828125</LongitudeDegrees>
            </Position>
            <AltitudeMeters>35.40000152587890625</AltitudeMeters>
            <DistanceMeters>NAN</DistanceMeters>
          </Trackpoint>
          <Trackpoint>
            <Time>2022-07-10T08:59:31.000Z</Time>
            <Position>
              <LatitudeDegrees>43.27590043656527996063232421875</LatitudeDegrees>
              <LongitudeDegrees>-2.126339636743068695068359375</LongitudeDegrees>
            </Position>
            <AltitudeMeters>35.40000152587890625</AltitudeMeters>
            <DistanceMeters>NAN</DistanceMeters>
          </Trackpoint>
          <Trackpoint>
            <Time>2022-07-10T08:59:34.000Z</Time>
            <Position>
              <LatitudeDegrees>43.27595793642103672027587890625</LatitudeDegrees>
              <LongitudeDegrees>-2.12636570446193218231201171875</LongitudeDegrees>
            </Position>
            <AltitudeMeters>35.40000152587890625</AltitudeMeters>
            <DistanceMeters>NAN</DistanceMeters>
          </Trackpoint>
          <Trackpoint>
            <Time>2022-07-10T08:59:38.000Z</Time>
            <Position>
              <LatitudeDegrees>43.276028931140899658203125</LatitudeDegrees>
              <LongitudeDegrees>-2.1263783611357212066650390625</LongitudeDegrees>
            </Position>
            <AltitudeMeters>35.59999847412109375</AltitudeMeters>
            <DistanceMeters>NAN</DistanceMeters>
          </Trackpoint>
          <Trackpoint>
            <Time>2022-07-10T08:59:40.000Z</Time>
            <Position>
              <LatitudeDegrees>43.2760200463235378265380859375</LatitudeDegrees>
              <LongitudeDegrees>-2.12636939249932765960693359375</LongitudeDegrees>
            </Position>
            <AltitudeMeters>35.59999847412109375</AltitudeMeters>
            <DistanceMeters>NAN</DistanceMeters>
          </Trackpoint>
          <Trackpoint>
            <Time>2022-07-10T08:59:41.000Z</Time>
            <Position>
              <LatitudeDegrees>43.2760066352784633636474609375</LatitudeDegrees>
              <LongitudeDegrees>-2.1263679675757884979248046875</LongitudeDegrees>
            </Position>
            <AltitudeMeters>35.59999847412109375</AltitudeMeters>
            <DistanceMeters>NAN</DistanceMeters>
          </Trackpoint>
          <Trackpoint>
            <Time>2022-07-10T08:59:43.000Z</Time>
            <Position>
              <LatitudeDegrees>43.27598609961569309234619140625</LatitudeDegrees>
              <LongitudeDegrees>-2.1263632737100124359130859375</LongitudeDegrees>
            </Position>
            <AltitudeMeters>35.59999847412109375</AltitudeMeters>
            <DistanceMeters>NAN</DistanceMeters>
          </Trackpoint>
          <Trackpoint>
            <Time>2022-07-10T08:59:45.000Z</Time>
            <Position>
              <LatitudeDegrees>43.2760109938681125640869140625</LatitudeDegrees>
              <LongitudeDegrees>-2.126305103302001953125</LongitudeDegrees>
            </Position>
            <AltitudeMeters>35.40000152587890625</AltitudeMeters>
            <DistanceMeters>NAN</DistanceMeters>
          </Trackpoint>
          <Trackpoint>
            <Time>2022-07-10T08:59:53.000Z</Time>
            <Position>
              <LatitudeDegrees>43.276211321353912353515625</LatitudeDegrees>
              <LongitudeDegrees>-2.12593956850469112396240234375</LongitudeDegrees>
            </Position>
            <AltitudeMeters>36</AltitudeMeters>
            <DistanceMeters>NAN</DistanceMeters>
          </Trackpoint>
          <Trackpoint>
            <Time>2022-07-10T08:59:56.000Z</Time>
            <Position>
              <LatitudeDegrees>43.276208974421024322509765625</LatitudeDegrees>
              <LongitudeDegrees>-2.125873267650604248046875</LongitudeDegrees>
            </Position>
            <AltitudeMeters>36.40000152587890625</AltitudeMeters>
            <DistanceMeters>NAN</DistanceMeters>
          </Trackpoint>
          <Trackpoint>
            <Time>2022-07-10T08:59:57.000Z</Time>
            <Position>
              <LatitudeDegrees>43.27620168216526508331298828125</LatitudeDegrees>
              <LongitudeDegrees>-2.12586052715778350830078125</LongitudeDegrees>
            </Position>
            <AltitudeMeters>36.59999847412109375</AltitudeMeters>
            <DistanceMeters>NAN</DistanceMeters>
          </Trackpoint>
          <Trackpoint>
            <Time>2022-07-10T08:59:59.000Z</Time>
            <Position>
              <LatitudeDegrees>43.27614300884306430816650390625</LatitudeDegrees>
              <LongitudeDegrees>-2.1258263289928436279296875</LongitudeDegrees>
            </Position>
            <AltitudeMeters>37</AltitudeMeters>
            <DistanceMeters>NAN</DistanceMeters>
          </Trackpoint>
          <Trackpoint>
            <Time>2022-07-10T09:00:00.000Z</Time>
            <Position>
              <LatitudeDegrees>43.27612725086510181427001953125</LatitudeDegrees>
              <LongitudeDegrees>-2.12582029402256011962890625</LongitudeDegrees>
            </Position>
            <AltitudeMeters>37</AltitudeMeters>
            <DistanceMeters>NAN</DistanceMeters>
          </Trackpoint>
          <Trackpoint>
            <Time>2022-07-10T09:00:06.000Z</Time>
            <Position>
              <LatitudeDegrees>43.27602499164640903472900390625</LatitudeDegrees>
              <LongitudeDegrees>-2.12579087354242801666259765625</LongitudeDegrees>
            </Position>
            <AltitudeMeters>37.59999847412109375</AltitudeMeters>
            <DistanceMeters>NAN</DistanceMeters>
          </Trackpoint>
          <Trackpoint>
            <Time>2022-07-10T09:00:13.000Z</Time>
            <Position>
              <LatitudeDegrees>43.275929354131221771240234375</LatitudeDegrees>
              <LongitudeDegrees>-2.12576975114643573760986328125</LongitudeDegrees>
            </Position>
            <AltitudeMeters>38</AltitudeMeters>
            <DistanceMeters>NAN</DistanceMeters>
          </Trackpoint>
          <Trackpoint>
            <Time>2022-07-10T09:00:14.000Z</Time>
            <Position>
              <LatitudeDegrees>43.27591518871486186981201171875</LatitudeDegrees>
              <LongitudeDegrees>-2.12576807476580142974853515625</LongitudeDegrees>
            </Position>
            <AltitudeMeters>38</AltitudeMeters>
            <DistanceMeters>NAN</DistanceMeters>
          </Trackpoint>
          <Trackpoint>
            <Time>2022-07-10T09:00:20.000Z</Time>
            <Position>
              <LatitudeDegrees>43.27578610740602016448974609375</LatitudeDegrees>
              <LongitudeDegrees>-2.1257473714649677276611328125</LongitudeDegrees>
            </Position>
            <AltitudeMeters>37.799999237060546875</AltitudeMeters>
            <DistanceMeters>NAN</DistanceMeters>
          </Trackpoint>
          <Trackpoint>
            <Time>2022-07-10T09:00:27.000Z</Time>
            <Position>
              <LatitudeDegrees>43.27563188038766384124755859375</LatitudeDegrees>
              <LongitudeDegrees>-2.125723399221897125244140625</LongitudeDegrees>
            </Position>
            <AltitudeMeters>37.40000152587890625</AltitudeMeters>
            <DistanceMeters>NAN</DistanceMeters>
          </Trackpoint>
          <Trackpoint>
            <Time>2022-07-10T09:00:30.000Z</Time>
            <Position>
              <LatitudeDegrees>43.27554001472890377044677734375</LatitudeDegrees>
              <LongitudeDegrees>-2.12570772506296634674072265625</LongitudeDegrees>
            </Position>
            <AltitudeMeters>37.40000152587890625</AltitudeMeters>
            <DistanceMeters>NAN</DistanceMeters>
          </Trackpoint>
          <Trackpoint>
            <Time>2022-07-10T09:00:42.000Z</Time>
            <Position>
              <LatitudeDegrees>43.27515008859336376190185546875</LatitudeDegrees>
              <LongitudeDegrees>-2.1256461180746555328369140625</LongitudeDegrees>
            </Position>
            <AltitudeMeters>37.200000762939453125</AltitudeMeters>
            <DistanceMeters>NAN</DistanceMeters>
          </Trackpoint>
          <Trackpoint>
            <Time>2022-07-10T09:00:49.000Z</Time>
            <Position>
              <LatitudeDegrees>43.2749082706868648529052734375</LatitudeDegrees>
              <LongitudeDegrees>-2.125606723129749298095703125</LongitudeDegrees>
            </Position>
            <AltitudeMeters>37</AltitudeMeters>
            <DistanceMeters>NAN</DistanceMeters>
          </Trackpoint>
          <Trackpoint>
            <Time>2022-07-10T09:00:53.000Z</Time>
            <Position>
              <LatitudeDegrees>43.27475999481976032257080078125</LatitudeDegrees>
              <LongitudeDegrees>-2.1255954913794994354248046875</LongitudeDegrees>
            </Position>
            <AltitudeMeters>36.59999847412109375</AltitudeMeters>
            <DistanceMeters>NAN</DistanceMeters>
          </Trackpoint>
          <Trackpoint>
            <Time>2022-07-10T09:00:55.000Z</Time>
            <Position>
              <LatitudeDegrees>43.27470459043979644775390625</LatitudeDegrees>
              <LongitudeDegrees>-2.1255924738943576812744140625</LongitudeDegrees>
            </Position>
            <AltitudeMeters>36.59999847412109375</AltitudeMeters>
            <DistanceMeters>NAN</DistanceMeters>
          </Trackpoint>
          <Trackpoint>
            <Time>2022-07-10T09:00:56.000Z</Time>
            <Position>
              <LatitudeDegrees>43.2746846415102481842041015625</LatitudeDegrees>
              <LongitudeDegrees>-2.12558719329535961151123046875</LongitudeDegrees>
            </Position>
            <AltitudeMeters>36.59999847412109375</AltitudeMeters>
            <DistanceMeters>NAN</DistanceMeters>
          </Trackpoint>
          <Trackpoint>
            <Time>2022-07-10T09:01:01.000Z</Time>
            <Position>
              <LatitudeDegrees>43.2746028341352939605712890625</LatitudeDegrees>
              <LongitudeDegrees>-2.12559842504560947418212890625</LongitudeDegrees>
            </Position>
            <AltitudeMeters>36.40000152587890625</AltitudeMeters>
            <DistanceMeters>NAN</DistanceMeters>
          </Trackpoint>
          <Trackpoint>
            <Time>2022-07-10T09:01:09.000Z</Time>
            <Position>
              <LatitudeDegrees>43.2744211144745349884033203125</LatitudeDegrees>
              <LongitudeDegrees>-2.12570655159652233123779296875</LongitudeDegrees>
            </Position>
            <AltitudeMeters>36.200000762939453125</AltitudeMeters>
            <DistanceMeters>NAN</DistanceMeters>
          </Trackpoint>
          <Trackpoint>
            <Time>2022-07-10T09:01:13.000Z</Time>
            <Position>
              <LatitudeDegrees>43.27437107451260089874267578125</LatitudeDegrees>
              <LongitudeDegrees>-2.1258667297661304473876953125</LongitudeDegrees>
            </Position>
            <AltitudeMeters>35.799999237060546875</AltitudeMeters>
            <DistanceMeters>NAN</DistanceMeters>
          </Trackpoint>
          <Trackpoint>
            <Time>2022-07-10T09:01:16.000Z</Time>
            <Position>
              <LatitudeDegrees>43.27435866929590702056884765625</LatitudeDegrees>
              <LongitudeDegrees>-2.12597963400185108184814453125</LongitudeDegrees>
            </Position>
            <AltitudeMeters>35.40000152587890625</AltitudeMeters>
            <DistanceMeters>NAN</DistanceMeters>
          </Trackpoint>
          <Trackpoint>
            <Time>2022-07-10T09:01:19.000Z</Time>
            <Position>
              <LatitudeDegrees>43.27435313723981380462646484375</LatitudeDegrees>
              <LongitudeDegrees>-2.12610326707363128662109375</LongitudeDegrees>
            </Position>
            <AltitudeMeters>35.200000762939453125</AltitudeMeters>
            <DistanceMeters>NAN</DistanceMeters>
          </Trackpoint>
          <Trackpoint>
            <Time>2022-07-10T09:01:31.000Z</Time>
            <Position>
              <LatitudeDegrees>43.27438850887119770050048828125</LatitudeDegrees>
              <LongitudeDegrees>-2.1266227774322032928466796875</LongitudeDegrees>
            </Position>
            <AltitudeMeters>35.799999237060546875</AltitudeMeters>
            <DistanceMeters>NAN</DistanceMeters>
          </Trackpoint>
          <Trackpoint>
            <Time>2022-07-10T09:01:34.000Z</Time>
            <Position>
              <LatitudeDegrees>43.27439387328922748565673828125</LatitudeDegrees>
              <LongitudeDegrees>-2.12674540467560291290283203125</LongitudeDegrees>
            </Position>
            <AltitudeMeters>36</AltitudeMeters>
            <DistanceMeters>NAN</DistanceMeters>
          </Trackpoint>
          <Trackpoint>
            <Time>2022-07-10T09:01:42.000Z</Time>
            <Position>
              <LatitudeDegrees>43.2744134031236171722412109375</LatitudeDegrees>
              <LongitudeDegrees>-2.12708638049662113189697265625</LongitudeDegrees>
            </Position>
            <AltitudeMeters>36.59999847412109375</AltitudeMeters>
            <DistanceMeters>NAN</DistanceMeters>
          </Trackpoint>
          <Trackpoint>
            <Time>2022-07-10T09:01:44.000Z</Time>
            <Position>
              <LatitudeDegrees>43.27441415749490261077880859375</LatitudeDegrees>
              <LongitudeDegrees>-2.12715645320713520050048828125</LongitudeDegrees>
            </Position>
            <AltitudeMeters>36.59999847412109375</AltitudeMeters>
            <DistanceMeters>NAN</DistanceMeters>
          </Trackpoint>
          <Trackpoint>
            <Time>2022-07-10T09:01:45.000Z</Time>
            <Position>
              <LatitudeDegrees>43.2744180969893932342529296875</LatitudeDegrees>
              <LongitudeDegrees>-2.12719735689461231231689453125</LongitudeDegrees>
            </Position>
            <AltitudeMeters>36.59999847412109375</AltitudeMeters>
            <DistanceMeters>NAN</DistanceMeters>
          </Trackpoint>
          <Trackpoint>
            <Time>2022-07-10T09:01:52.000Z</Time>
            <Position>
              <LatitudeDegrees>43.2744308374822139739990234375</LatitudeDegrees>
              <LongitudeDegrees>-2.12754587642848491668701171875</LongitudeDegrees>
            </Position>
            <AltitudeMeters>36.59999847412109375</AltitudeMeters>
            <DistanceMeters>NAN</DistanceMeters>
          </Trackpoint>
          <Trackpoint>
            <Time>2022-07-10T09:01:59.000Z</Time>
            <Position>
              <LatitudeDegrees>43.274419941008090972900390625</LatitudeDegrees>
              <LongitudeDegrees>-2.127929516136646270751953125</LongitudeDegrees>
            </Position>
            <AltitudeMeters>36</AltitudeMeters>
            <DistanceMeters>NAN</DistanceMeters>
          </Trackpoint>
          <Trackpoint>
            <Time>2022-07-10T09:02:03.000Z</Time>
            <Position>
              <LatitudeDegrees>43.2744110561907291412353515625</LatitudeDegrees>
              <LongitudeDegrees>-2.12820000015199184417724609375</LongitudeDegrees>
            </Position>
            <AltitudeMeters>35.40000152587890625</AltitudeMeters>
            <DistanceMeters>NAN</DistanceMeters>
          </Trackpoint>
          <Trackpoint>
            <Time>2022-07-10T09:02:06.000Z</Time>
            <Position>
              <LatitudeDegrees>43.27440544031560420989990234375</LatitudeDegrees>
              <LongitudeDegrees>-2.1284020878374576568603515625</LongitudeDegrees>
            </Position>
            <AltitudeMeters>35.200000762939453125</AltitudeMeters>
            <DistanceMeters>NAN</DistanceMeters>
          </Trackpoint>
          <Trackpoint>
            <Time>2022-07-10T09:02:13.000Z</Time>
            <Position>
              <LatitudeDegrees>43.27442354522645473480224609375</LatitudeDegrees>
              <LongitudeDegrees>-2.12890340946614742279052734375</LongitudeDegrees>
            </Position>
            <AltitudeMeters>34.59999847412109375</AltitudeMeters>
            <DistanceMeters>NAN</DistanceMeters>
          </Trackpoint>
          <Trackpoint>
            <Time>2022-07-10T09:02:14.000Z</Time>
            <Position>
              <LatitudeDegrees>43.27442832291126251220703125</LatitudeDegrees>
              <LongitudeDegrees>-2.12897314690053462982177734375</LongitudeDegrees>
            </Position>
            <AltitudeMeters>34.40000152587890625</AltitudeMeters>
            <DistanceMeters>NAN</DistanceMeters>
          </Trackpoint>
          <Trackpoint>
            <Time>2022-07-10T09:02:15.000Z</Time>
            <Position>
              <LatitudeDegrees>43.27443209476768970489501953125</LatitudeDegrees>
              <LongitudeDegrees>-2.1290417946875095367431640625</LongitudeDegrees>
            </Position>
            <AltitudeMeters>34.40000152587890625</AltitudeMeters>
            <DistanceMeters>NAN</DistanceMeters>
          </Trackpoint>
          <Trackpoint>
            <Time>2022-07-10T09:02:23.000Z</Time>
            <Position>
              <LatitudeDegrees>43.27443662099540233612060546875</LatitudeDegrees>
              <LongitudeDegrees>-2.129588462412357330322265625</LongitudeDegrees>
            </Position>
            <AltitudeMeters>34</AltitudeMeters>
            <DistanceMeters>NAN</DistanceMeters>
          </Trackpoint>
          <Trackpoint>
            <Time>2022-07-10T09:02:26.000Z</Time>
            <Position>
              <LatitudeDegrees>43.27444248832762241363525390625</LatitudeDegrees>
              <LongitudeDegrees>-2.12979608215391635894775390625</LongitudeDegrees>
            </Position>
            <AltitudeMeters>34</AltitudeMeters>
            <DistanceMeters>NAN</DistanceMeters>
          </Trackpoint>
          <Trackpoint>
            <Time>2022-07-10T09:02:29.000Z</Time>
            <Position>
              <LatitudeDegrees>43.27446226961910724639892578125</LatitudeDegrees>
              <LongitudeDegrees>-2.130003534257411956787109375</LongitudeDegrees>
            </Position>
            <AltitudeMeters>34</AltitudeMeters>
            <DistanceMeters>NAN</DistanceMeters>
          </Trackpoint>
          <Trackpoint>
            <Time>2022-07-10T09:02:33.000Z</Time>
            <Position>
              <LatitudeDegrees>43.27450602315366268157958984375</LatitudeDegrees>
              <LongitudeDegrees>-2.13027468882501125335693359375</LongitudeDegrees>
            </Position>
            <AltitudeMeters>34</AltitudeMeters>
            <DistanceMeters>NAN</DistanceMeters>
          </Trackpoint>
          <Trackpoint>
            <Time>2022-07-10T09:02:38.000Z</Time>
            <Position>
              <LatitudeDegrees>43.2745706476271152496337890625</LatitudeDegrees>
              <LongitudeDegrees>-2.13050787337124347686767578125</LongitudeDegrees>
            </Position>
            <AltitudeMeters>34.40000152587890625</AltitudeMeters>
            <DistanceMeters>NAN</DistanceMeters>
          </Trackpoint>
          <Trackpoint>
            <Time>2022-07-10T09:02:44.000Z</Time>
            <Position>
              <LatitudeDegrees>43.27463158406317234039306640625</LatitudeDegrees>
              <LongitudeDegrees>-2.1306953765451908111572265625</LongitudeDegrees>
            </Position>
            <AltitudeMeters>35.200000762939453125</AltitudeMeters>
            <DistanceMeters>NAN</DistanceMeters>
          </Trackpoint>
          <Trackpoint>
            <Time>2022-07-10T09:02:46.000Z</Time>
            <Position>
              <LatitudeDegrees>43.274647258222103118896484375</LatitudeDegrees>
              <LongitudeDegrees>-2.13074080646038055419921875</LongitudeDegrees>
            </Position>
            <AltitudeMeters>35.40000152587890625</AltitudeMeters>
            <DistanceMeters>NAN</DistanceMeters>
          </Trackpoint>
          <Trackpoint>
            <Time>2022-07-10T09:02:52.000Z</Time>
            <Position>
              <LatitudeDegrees>43.2746950350701808929443359375</LatitudeDegrees>
              <LongitudeDegrees>-2.1308630146086215972900390625</LongitudeDegrees>
            </Position>
            <AltitudeMeters>36.200000762939453125</AltitudeMeters>
            <DistanceMeters>NAN</DistanceMeters>
          </Trackpoint>
          <Trackpoint>
            <Time>2022-07-10T09:02:54.000Z</Time>
            <Position>
              <LatitudeDegrees>43.274705596268177032470703125</LatitudeDegrees>
              <LongitudeDegrees>-2.1309066005051136016845703125</LongitudeDegrees>
            </Position>
            <AltitudeMeters>36.59999847412109375</AltitudeMeters>
            <DistanceMeters>NAN</DistanceMeters>
          </Trackpoint>
          <Trackpoint>
            <Time>2022-07-10T09:03:00.000Z</Time>
            <Position>
              <LatitudeDegrees>43.274740464985370635986328125</LatitudeDegrees>
              <LongitudeDegrees>-2.13102537207305431365966796875</LongitudeDegrees>
            </Position>
            <AltitudeMeters>37.40000152587890625</AltitudeMeters>
            <DistanceMeters>NAN</DistanceMeters>
          </Trackpoint>
          <Trackpoint>
            <Time>2022-07-10T09:03:01.000Z</Time>
            <Position>
              <LatitudeDegrees>43.27474792487919330596923828125</LatitudeDegrees>
              <LongitudeDegrees>-2.13104582391679286956787109375</LongitudeDegrees>
            </Position>
            <AltitudeMeters>37.59999847412109375</AltitudeMeters>
            <DistanceMeters>NAN</DistanceMeters>
          </Trackpoint>
          <Trackpoint>
            <Time>2022-07-10T09:03:02.000Z</Time>
            <Position>
              <LatitudeDegrees>43.2747506909072399139404296875</LatitudeDegrees>
              <LongitudeDegrees>-2.13106669485569000244140625</LongitudeDegrees>
            </Position>
            <AltitudeMeters>37.59999847412109375</AltitudeMeters>
            <DistanceMeters>NAN</DistanceMeters>
          </Trackpoint>
          <Trackpoint>
            <Time>2022-07-10T09:03:10.000Z</Time>
            <Position>
              <LatitudeDegrees>43.2747778482735157012939453125</LatitudeDegrees>
              <LongitudeDegrees>-2.13124548085033893585205078125</LongitudeDegrees>
            </Position>
            <AltitudeMeters>38.59999847412109375</AltitudeMeters>
            <DistanceMeters>NAN</DistanceMeters>
          </Trackpoint>
          <Trackpoint>
            <Time>2022-07-10T09:03:14.000Z</Time>
            <Position>
              <LatitudeDegrees>43.27479955740272998809814453125</LatitudeDegrees>
              <LongitudeDegrees>-2.1313329041004180908203125</LongitudeDegrees>
            </Position>
            <AltitudeMeters>39</AltitudeMeters>
            <DistanceMeters>NAN</DistanceMeters>
          </Trackpoint>
          <Trackpoint>
            <Time>2022-07-10T09:03:16.000Z</Time>
            <Position>
              <LatitudeDegrees>43.27481347136199474334716796875</LatitudeDegrees>
              <LongitudeDegrees>-2.13137255050241947174072265625</LongitudeDegrees>
            </Position>
            <AltitudeMeters>39.200000762939453125</AltitudeMeters>
            <DistanceMeters>NAN</DistanceMeters>
          </Trackpoint>
          <Trackpoint>
            <Time>2022-07-10T09:03:20.000Z</Time>
            <Position>
              <LatitudeDegrees>43.27485186047852039337158203125</LatitudeDegrees>
              <LongitudeDegrees>-2.1314510889351367950439453125</LongitudeDegrees>
            </Position>
            <AltitudeMeters>39.59999847412109375</AltitudeMeters>
            <DistanceMeters>NAN</DistanceMeters>
          </Trackpoint>
          <Trackpoint>
            <Time>2022-07-10T09:03:23.000Z</Time>
            <Position>
              <LatitudeDegrees>43.274892009794712066650390625</LatitudeDegrees>
              <LongitudeDegrees>-2.131496854126453399658203125</LongitudeDegrees>
            </Position>
            <AltitudeMeters>40</AltitudeMeters>
            <DistanceMeters>NAN</DistanceMeters>
          </Trackpoint>
          <Trackpoint>
            <Time>2022-07-10T09:03:27.000Z</Time>
            <Position>
              <LatitudeDegrees>43.27493266202509403228759765625</LatitudeDegrees>
              <LongitudeDegrees>-2.1315526776015758514404296875</LongitudeDegrees>
            </Position>
            <AltitudeMeters>40</AltitudeMeters>
            <DistanceMeters>NAN</DistanceMeters>
          </Trackpoint>
          <Trackpoint>
            <Time>2022-07-10T09:03:29.000Z</Time>
            <Position>
              <LatitudeDegrees>43.2749555446207523345947265625</LatitudeDegrees>
              <LongitudeDegrees>-2.13160808198153972625732421875</LongitudeDegrees>
            </Position>
            <AltitudeMeters>40.200000762939453125</AltitudeMeters>
            <DistanceMeters>NAN</DistanceMeters>
          </Trackpoint>
          <Trackpoint>
            <Time>2022-07-10T09:03:35.000Z</Time>
            <Position>
              <LatitudeDegrees>43.27496535144746303558349609375</LatitudeDegrees>
              <LongitudeDegrees>-2.13178041391074657440185546875</LongitudeDegrees>
            </Position>
            <AltitudeMeters>40.200000762939453125</AltitudeMeters>
            <DistanceMeters>NAN</DistanceMeters>
          </Trackpoint>
          <Trackpoint>
            <Time>2022-07-10T09:03:42.000Z</Time>
            <Position>
              <LatitudeDegrees>43.2749287225306034088134765625</LatitudeDegrees>
              <LongitudeDegrees>-2.13205165229737758636474609375</LongitudeDegrees>
            </Position>
            <AltitudeMeters>40.200000762939453125</AltitudeMeters>
            <DistanceMeters>NAN</DistanceMeters>
          </Trackpoint>
          <Trackpoint>
            <Time>2022-07-10T09:03:44.000Z</Time>
            <Position>
              <LatitudeDegrees>43.27495043165981769561767578125</LatitudeDegrees>
              <LongitudeDegrees>-2.13216899894177913665771484375</LongitudeDegrees>
            </Position>
            <AltitudeMeters>40</AltitudeMeters>
            <DistanceMeters>NAN</DistanceMeters>
          </Trackpoint>
          <Trackpoint>
            <Time>2022-07-10T09:03:45.000Z</Time>
            <Position>
              <LatitudeDegrees>43.27497775666415691375732421875</LatitudeDegrees>
              <LongitudeDegrees>-2.13222214020788669586181640625</LongitudeDegrees>
            </Position>
            <AltitudeMeters>39.799999237060546875</AltitudeMeters>
            <DistanceMeters>NAN</DistanceMeters>
          </Trackpoint>
          <Trackpoint>
            <Time>2022-07-10T09:03:48.000Z</Time>
            <Position>
              <LatitudeDegrees>43.2750896550714969635009765625</LatitudeDegrees>
              <LongitudeDegrees>-2.1323895268142223358154296875</LongitudeDegrees>
            </Position>
            <AltitudeMeters>38.59999847412109375</AltitudeMeters>
            <DistanceMeters>NAN</DistanceMeters>
          </Trackpoint>
          <Trackpoint>
            <Time>2022-07-10T09:03:50.000Z</Time>
            <Position>
              <LatitudeDegrees>43.27515377663075923919677734375</LatitudeDegrees>
              <LongitudeDegrees>-2.13252321816980838775634765625</LongitudeDegrees>
            </Position>
            <AltitudeMeters>37.59999847412109375</AltitudeMeters>
            <DistanceMeters>NAN</DistanceMeters>
          </Trackpoint>
          <Trackpoint>
            <Time>2022-07-10T09:03:51.000Z</Time>
            <Position>
              <LatitudeDegrees>43.27518478967249393463134765625</LatitudeDegrees>
              <LongitudeDegrees>-2.1325883455574512481689453125</LongitudeDegrees>
            </Position>
            <AltitudeMeters>37</AltitudeMeters>
            <DistanceMeters>NAN</DistanceMeters>
          </Trackpoint>
          <Trackpoint>
            <Time>2022-07-10T09:03:53.000Z</Time>
            <Position>
              <LatitudeDegrees>43.2752660103142261505126953125</LatitudeDegrees>
              <LongitudeDegrees>-2.1326808817684650421142578125</LongitudeDegrees>
            </Position>
            <AltitudeMeters>36.200000762939453125</AltitudeMeters>
            <DistanceMeters>NAN</DistanceMeters>
          </Trackpoint>
          <Trackpoint>
            <Time>2022-07-10T09:03:54.000Z</Time>
            <Position>
              <LatitudeDegrees>43.27531890012323856353759765625</LatitudeDegrees>
              <LongitudeDegrees>-2.1326902695000171661376953125</LongitudeDegrees>
            </Position>
            <AltitudeMeters>36</AltitudeMeters>
            <DistanceMeters>NAN</DistanceMeters>
          </Trackpoint>
          <Trackpoint>
            <Time>2022-07-10T09:03:55.000Z</Time>
            <Position>
              <LatitudeDegrees>43.275364078581333160400390625</LatitudeDegrees>
              <LongitudeDegrees>-2.13267308659851551055908203125</LongitudeDegrees>
            </Position>
            <AltitudeMeters>36</AltitudeMeters>
            <DistanceMeters>NAN</DistanceMeters>
          </Trackpoint>
          <Trackpoint>
            <Time>2022-07-10T09:03:57.000Z</Time>
            <Position>
              <LatitudeDegrees>43.275449238717555999755859375</LatitudeDegrees>
              <LongitudeDegrees>-2.13260217569768428802490234375</LongitudeDegrees>
            </Position>
            <AltitudeMeters>36</AltitudeMeters>
            <DistanceMeters>NAN</DistanceMeters>
          </Trackpoint>
          <Trackpoint>
            <Time>2022-07-10T09:03:59.000Z</Time>
            <Position>
              <LatitudeDegrees>43.27554051764309406280517578125</LatitudeDegrees>
              <LongitudeDegrees>-2.132542915642261505126953125</LongitudeDegrees>
            </Position>
            <AltitudeMeters>36.200000762939453125</AltitudeMeters>
            <DistanceMeters>NAN</DistanceMeters>
          </Trackpoint>
          <Trackpoint>
            <Time>2022-07-10T09:04:01.000Z</Time>
            <Position>
              <LatitudeDegrees>43.2756344787776470184326171875</LatitudeDegrees>
              <LongitudeDegrees>-2.1325209550559520721435546875</LongitudeDegrees>
            </Position>
            <AltitudeMeters>36.40000152587890625</AltitudeMeters>
            <DistanceMeters>NAN</DistanceMeters>
          </Trackpoint>
          <Trackpoint>
            <Time>2022-07-10T09:04:02.000Z</Time>
            <Position>
              <LatitudeDegrees>43.2756804116070270538330078125</LatitudeDegrees>
              <LongitudeDegrees>-2.132527492940425872802734375</LongitudeDegrees>
            </Position>
            <AltitudeMeters>36.40000152587890625</AltitudeMeters>
            <DistanceMeters>NAN</DistanceMeters>
          </Trackpoint>
          <Trackpoint>
            <Time>2022-07-10T09:04:07.000Z</Time>
            <Position>
              <LatitudeDegrees>43.2759042084217071533203125</LatitudeDegrees>
              <LongitudeDegrees>-2.13262212462723255157470703125</LongitudeDegrees>
            </Position>
            <AltitudeMeters>35.799999237060546875</AltitudeMeters>
            <DistanceMeters>NAN</DistanceMeters>
          </Trackpoint>
          <Trackpoint>
            <Time>2022-07-10T09:04:08.000Z</Time>
            <Position>
              <LatitudeDegrees>43.27594754286110401153564453125</LatitudeDegrees>
              <LongitudeDegrees>-2.13264257647097110748291015625</LongitudeDegrees>
            </Position>
            <AltitudeMeters>35.799999237060546875</AltitudeMeters>
            <DistanceMeters>NAN</DistanceMeters>
          </Trackpoint>
          <Trackpoint>
            <Time>2022-07-10T09:04:09.000Z</Time>
            <Position>
              <LatitudeDegrees>43.275989033281803131103515625</LatitudeDegrees>
              <LongitudeDegrees>-2.13266571052372455596923828125</LongitudeDegrees>
            </Position>
            <AltitudeMeters>35.59999847412109375</AltitudeMeters>
            <DistanceMeters>NAN</DistanceMeters>
          </Trackpoint>
          <Trackpoint>
            <Time>2022-07-10T09:04:13.000Z</Time>
            <Position>
              <LatitudeDegrees>43.2761442661285400390625</LatitudeDegrees>
              <LongitudeDegrees>-2.132778950035572052001953125</LongitudeDegrees>
            </Position>
            <AltitudeMeters>35.59999847412109375</AltitudeMeters>
            <DistanceMeters>NAN</DistanceMeters>
          </Trackpoint>
          <Trackpoint>
            <Time>2022-07-10T09:04:16.000Z</Time>
            <Position>
              <LatitudeDegrees>43.27624694444239139556884765625</LatitudeDegrees>
              <LongitudeDegrees>-2.1328617632389068603515625</LongitudeDegrees>
            </Position>
            <AltitudeMeters>36</AltitudeMeters>
            <DistanceMeters>NAN</DistanceMeters>
          </Trackpoint>
          <Trackpoint>
            <Time>2022-07-10T09:04:22.000Z</Time>
            <Position>
              <LatitudeDegrees>43.27642447315156459808349609375</LatitudeDegrees>
              <LongitudeDegrees>-2.13304214179515838623046875</LongitudeDegrees>
            </Position>
            <AltitudeMeters>36.200000762939453125</AltitudeMeters>
            <DistanceMeters>NAN</DistanceMeters>
          </Trackpoint>
          <Trackpoint>
            <Time>2022-07-10T09:04:28.000Z</Time>
            <Position>
              <LatitudeDegrees>43.27660887502133846282958984375</LatitudeDegrees>
              <LongitudeDegrees>-2.13322394527494907379150390625</LongitudeDegrees>
            </Position>
            <AltitudeMeters>36</AltitudeMeters>
            <DistanceMeters>NAN</DistanceMeters>
          </Trackpoint>
          <Trackpoint>
            <Time>2022-07-10T09:04:30.000Z</Time>
            <Position>
              <LatitudeDegrees>43.276680372655391693115234375</LatitudeDegrees>
              <LongitudeDegrees>-2.13327993638813495635986328125</LongitudeDegrees>
            </Position>
            <AltitudeMeters>36</AltitudeMeters>
            <DistanceMeters>NAN</DistanceMeters>
          </Trackpoint>
          <Trackpoint>
            <Time>2022-07-10T09:04:37.000Z</Time>
            <Position>
              <LatitudeDegrees>43.2769672013819217681884765625</LatitudeDegrees>
              <LongitudeDegrees>-2.13339996524155139923095703125</LongitudeDegrees>
            </Position>
            <AltitudeMeters>35.799999237060546875</AltitudeMeters>
            <DistanceMeters>NAN</DistanceMeters>
          </Trackpoint>
          <Trackpoint>
            <Time>2022-07-10T09:04:38.000Z</Time>
            <Position>
              <LatitudeDegrees>43.27700600959360599517822265625</LatitudeDegrees>
              <LongitudeDegrees>-2.1334062516689300537109375</LongitudeDegrees>
            </Position>
            <AltitudeMeters>35.59999847412109375</AltitudeMeters>
            <DistanceMeters>NAN</DistanceMeters>
          </Trackpoint>
          <Trackpoint>
            <Time>2022-07-10T09:04:43.000Z</Time>
            <Position>
              <LatitudeDegrees>43.27720533125102519989013671875</LatitudeDegrees>
              <LongitudeDegrees>-2.13345360942184925079345703125</LongitudeDegrees>
            </Position>
            <AltitudeMeters>35.40000152587890625</AltitudeMeters>
            <DistanceMeters>NAN</DistanceMeters>
          </Trackpoint>
          <Trackpoint>
            <Time>2022-07-10T09:04:48.000Z</Time>
            <Position>
              <LatitudeDegrees>43.27738948166370391845703125</LatitudeDegrees>
              <LongitudeDegrees>-2.1335618197917938232421875</LongitudeDegrees>
            </Position>
            <AltitudeMeters>35.799999237060546875</AltitudeMeters>
            <DistanceMeters>NAN</DistanceMeters>
          </Trackpoint>
          <Trackpoint>
            <Time>2022-07-10T09:04:53.000Z</Time>
            <Position>
              <LatitudeDegrees>43.27756516635417938232421875</LatitudeDegrees>
              <LongitudeDegrees>-2.13367044925689697265625</LongitudeDegrees>
            </Position>
            <AltitudeMeters>35.799999237060546875</AltitudeMeters>
            <DistanceMeters>NAN</DistanceMeters>
          </Trackpoint>
          <Trackpoint>
            <Time>2022-07-10T09:04:59.000Z</Time>
            <Position>
              <LatitudeDegrees>43.2777758873999118804931640625</LatitudeDegrees>
              <LongitudeDegrees>-2.13371193967759609222412109375</LongitudeDegrees>
            </Position>
            <AltitudeMeters>35.40000152587890625</AltitudeMeters>
            <DistanceMeters>NAN</DistanceMeters>
          </Trackpoint>
          <Trackpoint>
            <Time>2022-07-10T09:05:07.000Z</Time>
            <Position>
              <LatitudeDegrees>43.27805475331842899322509765625</LatitudeDegrees>
              <LongitudeDegrees>-2.13372987695038318634033203125</LongitudeDegrees>
            </Position>
            <AltitudeMeters>35.40000152587890625</AltitudeMeters>
            <DistanceMeters>NAN</DistanceMeters>
          </Trackpoint>
          <Trackpoint>
            <Time>2022-07-10T09:05:16.000Z</Time>
            <Position>
              <LatitudeDegrees>43.27835549600422382354736328125</LatitudeDegrees>
              <LongitudeDegrees>-2.1336625702679157257080078125</LongitudeDegrees>
            </Position>
            <AltitudeMeters>35.40000152587890625</AltitudeMeters>
            <DistanceMeters>NAN</DistanceMeters>
          </Trackpoint>
          <Trackpoint>
            <Time>2022-07-10T09:05:24.000Z</Time>
            <Position>
              <LatitudeDegrees>43.27862421981990337371826171875</LatitudeDegrees>
              <LongitudeDegrees>-2.1335591375827789306640625</LongitudeDegrees>
            </Position>
            <AltitudeMeters>35.59999847412109375</AltitudeMeters>
            <DistanceMeters>NAN</DistanceMeters>
          </Trackpoint>
          <Trackpoint>
            <Time>2022-07-10T09:05:32.000Z</Time>
            <Position>
              <LatitudeDegrees>43.2788853161036968231201171875</LatitudeDegrees>
              <LongitudeDegrees>-2.1335210837423801422119140625</LongitudeDegrees>
            </Position>
            <AltitudeMeters>35.799999237060546875</AltitudeMeters>
            <DistanceMeters>NAN</DistanceMeters>
          </Trackpoint>
          <Trackpoint>
            <Time>2022-07-10T09:05:36.000Z</Time>
            <Position>
              <LatitudeDegrees>43.279021270573139190673828125</LatitudeDegrees>
              <LongitudeDegrees>-2.13350708596408367156982421875</LongitudeDegrees>
            </Position>
            <AltitudeMeters>35.59999847412109375</AltitudeMeters>
            <DistanceMeters>NAN</DistanceMeters>
          </Trackpoint>
          <Trackpoint>
            <Time>2022-07-10T09:05:39.000Z</Time>
            <Position>
              <LatitudeDegrees>43.2791283912956714630126953125</LatitudeDegrees>
              <LongitudeDegrees>-2.13350255973637104034423828125</LongitudeDegrees>
            </Position>
            <AltitudeMeters>35.799999237060546875</AltitudeMeters>
            <DistanceMeters>NAN</DistanceMeters>
          </Trackpoint>
          <Trackpoint>
            <Time>2022-07-10T09:05:44.000Z</Time>
            <Position>
              <LatitudeDegrees>43.27929896302521228790283203125</LatitudeDegrees>
              <LongitudeDegrees>-2.13349116034805774688720703125</LongitudeDegrees>
            </Position>
            <AltitudeMeters>36</AltitudeMeters>
            <DistanceMeters>NAN</DistanceMeters>
          </Trackpoint>
          <Trackpoint>
            <Time>2022-07-10T09:05:50.000Z</Time>
            <Position>
              <LatitudeDegrees>43.27949979342520236968994140625</LatitudeDegrees>
              <LongitudeDegrees>-2.13347976095974445343017578125</LongitudeDegrees>
            </Position>
            <AltitudeMeters>36</AltitudeMeters>
            <DistanceMeters>NAN</DistanceMeters>
          </Trackpoint>
          <Trackpoint>
            <Time>2022-07-10T09:05:52.000Z</Time>
            <Position>
              <LatitudeDegrees>43.27956517226994037628173828125</LatitudeDegrees>
              <LongitudeDegrees>-2.13347741402685642242431640625</LongitudeDegrees>
            </Position>
            <AltitudeMeters>36</AltitudeMeters>
            <DistanceMeters>NAN</DistanceMeters>
          </Trackpoint>
          <Trackpoint>
            <Time>2022-07-10T09:05:54.000Z</Time>
            <Position>
              <LatitudeDegrees>43.27962954528629779815673828125</LatitudeDegrees>
              <LongitudeDegrees>-2.13347892276942729949951171875</LongitudeDegrees>
            </Position>
            <AltitudeMeters>35.799999237060546875</AltitudeMeters>
            <DistanceMeters>NAN</DistanceMeters>
          </Trackpoint>
          <Trackpoint>
            <Time>2022-07-10T09:05:59.000Z</Time>
            <Position>
              <LatitudeDegrees>43.27977354638278484344482421875</LatitudeDegrees>
              <LongitudeDegrees>-2.13341773487627506256103515625</LongitudeDegrees>
            </Position>
            <AltitudeMeters>35.799999237060546875</AltitudeMeters>
            <DistanceMeters>NAN</DistanceMeters>
          </Trackpoint>
          <Trackpoint>
            <Time>2022-07-10T09:06:04.000Z</Time>
            <Position>
              <LatitudeDegrees>43.27993598766624927520751953125</LatitudeDegrees>
              <LongitudeDegrees>-2.13333475403487682342529296875</LongitudeDegrees>
            </Position>
            <AltitudeMeters>35.799999237060546875</AltitudeMeters>
            <DistanceMeters>NAN</DistanceMeters>
          </Trackpoint>
          <Trackpoint>
            <Time>2022-07-10T09:06:06.000Z</Time>
            <Position>
              <LatitudeDegrees>43.2800014503300189971923828125</LatitudeDegrees>
              <LongitudeDegrees>-2.133314721286296844482421875</LongitudeDegrees>
            </Position>
            <AltitudeMeters>35.799999237060546875</AltitudeMeters>
            <DistanceMeters>NAN</DistanceMeters>
          </Trackpoint>
          <Trackpoint>
            <Time>2022-07-10T09:06:09.000Z</Time>
            <Position>
              <LatitudeDegrees>43.28010379336774349212646484375</LatitudeDegrees>
              <LongitudeDegrees>-2.13327608071267604827880859375</LongitudeDegrees>
            </Position>
            <AltitudeMeters>35.799999237060546875</AltitudeMeters>
            <DistanceMeters>NAN</DistanceMeters>
          </Trackpoint>
          <Trackpoint>
            <Time>2022-07-10T09:06:18.000Z</Time>
            <Position>
              <LatitudeDegrees>43.28041140921413898468017578125</LatitudeDegrees>
              <LongitudeDegrees>-2.13319293223321437835693359375</LongitudeDegrees>
            </Position>
            <AltitudeMeters>35.799999237060546875</AltitudeMeters>
            <DistanceMeters>NAN</DistanceMeters>
          </Trackpoint>
          <Trackpoint>
            <Time>2022-07-10T09:06:24.000Z</Time>
            <Position>
              <LatitudeDegrees>43.28060637228190898895263671875</LatitudeDegrees>
              <LongitudeDegrees>-2.1332109533250331878662109375</LongitudeDegrees>
            </Position>
            <AltitudeMeters>35.799999237060546875</AltitudeMeters>
            <DistanceMeters>NAN</DistanceMeters>
          </Trackpoint>
          <Trackpoint>
            <Time>2022-07-10T09:06:33.000Z</Time>
            <Position>
              <LatitudeDegrees>43.2808906026184558868408203125</LatitudeDegrees>
              <LongitudeDegrees>-2.1332458220422267913818359375</LongitudeDegrees>
            </Position>
            <AltitudeMeters>35.799999237060546875</AltitudeMeters>
            <DistanceMeters>NAN</DistanceMeters>
          </Trackpoint>
          <Trackpoint>
            <Time>2022-07-10T09:06:42.000Z</Time>
            <Position>
              <LatitudeDegrees>43.2811755873262882232666015625</LatitudeDegrees>
              <LongitudeDegrees>-2.1331536211073398590087890625</LongitudeDegrees>
            </Position>
            <AltitudeMeters>36</AltitudeMeters>
            <DistanceMeters>NAN</DistanceMeters>
          </Trackpoint>
          <Trackpoint>
            <Time>2022-07-10T09:06:49.000Z</Time>
            <Position>
              <LatitudeDegrees>43.2813837938010692596435546875</LatitudeDegrees>
              <LongitudeDegrees>-2.1330456621944904327392578125</LongitudeDegrees>
            </Position>
            <AltitudeMeters>36</AltitudeMeters>
            <DistanceMeters>NAN</DistanceMeters>
          </Trackpoint>
          <Trackpoint>
            <Time>2022-07-10T09:06:57.000Z</Time>
            <Position>
              <LatitudeDegrees>43.28162913210690021514892578125</LatitudeDegrees>
              <LongitudeDegrees>-2.1329742483794689178466796875</LongitudeDegrees>
            </Position>
            <AltitudeMeters>35.799999237060546875</AltitudeMeters>
            <DistanceMeters>NAN</DistanceMeters>
          </Trackpoint>
          <Trackpoint>
            <Time>2022-07-10T09:07:05.000Z</Time>
            <Position>
              <LatitudeDegrees>43.2818907313048839569091796875</LatitudeDegrees>
              <LongitudeDegrees>-2.1328518725931644439697265625</LongitudeDegrees>
            </Position>
            <AltitudeMeters>35.799999237060546875</AltitudeMeters>
            <DistanceMeters>NAN</DistanceMeters>
          </Trackpoint>
          <Trackpoint>
            <Time>2022-07-10T09:07:11.000Z</Time>
            <Position>
              <LatitudeDegrees>43.28208393417298793792724609375</LatitudeDegrees>
              <LongitudeDegrees>-2.1327643655240535736083984375</LongitudeDegrees>
            </Position>
            <AltitudeMeters>35.799999237060546875</AltitudeMeters>
            <DistanceMeters>NAN</DistanceMeters>
          </Trackpoint>
          <Trackpoint>
            <Time>2022-07-10T09:07:13.000Z</Time>
            <Position>
              <LatitudeDegrees>43.2821445353329181671142578125</LatitudeDegrees>
              <LongitudeDegrees>-2.13272287510335445404052734375</LongitudeDegrees>
            </Position>
            <AltitudeMeters>35.799999237060546875</AltitudeMeters>
            <DistanceMeters>NAN</DistanceMeters>
          </Trackpoint>
          <Trackpoint>
            <Time>2022-07-10T09:07:23.000Z</Time>
            <Position>
              <LatitudeDegrees>43.2824375666677951812744140625</LatitudeDegrees>
              <LongitudeDegrees>-2.132474519312381744384765625</LongitudeDegrees>
            </Position>
            <AltitudeMeters>35.799999237060546875</AltitudeMeters>
            <DistanceMeters>NAN</DistanceMeters>
          </Trackpoint>
          <Trackpoint>
            <Time>2022-07-10T09:07:27.000Z</Time>
            <Position>
              <LatitudeDegrees>43.2825327850878238677978515625</LatitudeDegrees>
              <LongitudeDegrees>-2.1323606930673122406005859375</LongitudeDegrees>
            </Position>
            <AltitudeMeters>36</AltitudeMeters>
            <DistanceMeters>NAN</DistanceMeters>
          </Trackpoint>
          <Trackpoint>
            <Time>2022-07-10T09:07:31.000Z</Time>
            <Position>
              <LatitudeDegrees>43.2826377265155315399169921875</LatitudeDegrees>
              <LongitudeDegrees>-2.132257930934429168701171875</LongitudeDegrees>
            </Position>
            <AltitudeMeters>36.200000762939453125</AltitudeMeters>
            <DistanceMeters>NAN</DistanceMeters>
          </Trackpoint>
          <Trackpoint>
            <Time>2022-07-10T09:07:32.000Z</Time>
            <Position>
              <LatitudeDegrees>43.28266312368214130401611328125</LatitudeDegrees>
              <LongitudeDegrees>-2.13223404251039028167724609375</LongitudeDegrees>
            </Position>
            <AltitudeMeters>36.200000762939453125</AltitudeMeters>
            <DistanceMeters>NAN</DistanceMeters>
          </Trackpoint>
          <Trackpoint>
            <Time>2022-07-10T09:07:41.000Z</Time>
            <Position>
              <LatitudeDegrees>43.28289178200066089630126953125</LatitudeDegrees>
              <LongitudeDegrees>-2.13200421072542667388916015625</LongitudeDegrees>
            </Position>
            <AltitudeMeters>35.799999237060546875</AltitudeMeters>
            <DistanceMeters>NAN</DistanceMeters>
          </Trackpoint>
          <Trackpoint>
            <Time>2022-07-10T09:07:46.000Z</Time>
            <Position>
              <LatitudeDegrees>43.283023126423358917236328125</LatitudeDegrees>
              <LongitudeDegrees>-2.13196431286633014678955078125</LongitudeDegrees>
            </Position>
            <AltitudeMeters>36</AltitudeMeters>
            <DistanceMeters>NAN</DistanceMeters>
          </Trackpoint>
          <Trackpoint>
            <Time>2022-07-10T09:07:47.000Z</Time>
            <Position>
              <LatitudeDegrees>43.283039219677448272705078125</LatitudeDegrees>
              <LongitudeDegrees>-2.13195391930639743804931640625</LongitudeDegrees>
            </Position>
            <AltitudeMeters>36</AltitudeMeters>
            <DistanceMeters>NAN</DistanceMeters>
          </Trackpoint>
          <Trackpoint>
            <Time>2022-07-10T09:07:49.000Z</Time>
            <Position>
              <LatitudeDegrees>43.28313049860298633575439453125</LatitudeDegrees>
              <LongitudeDegrees>-2.13196481578052043914794921875</LongitudeDegrees>
            </Position>
            <AltitudeMeters>36.200000762939453125</AltitudeMeters>
            <DistanceMeters>NAN</DistanceMeters>
          </Trackpoint>
          <Trackpoint>
            <Time>2022-07-10T09:07:55.000Z</Time>
            <Position>
              <LatitudeDegrees>43.283218927681446075439453125</LatitudeDegrees>
              <LongitudeDegrees>-2.131827436387538909912109375</LongitudeDegrees>
            </Position>
            <AltitudeMeters>36.40000152587890625</AltitudeMeters>
            <DistanceMeters>NAN</DistanceMeters>
          </Trackpoint>
          <Trackpoint>
            <Time>2022-07-10T09:08:01.000Z</Time>
            <Position>
              <LatitudeDegrees>43.28328355215489864349365234375</LatitudeDegrees>
              <LongitudeDegrees>-2.13176767341792583465576171875</LongitudeDegrees>
            </Position>
            <AltitudeMeters>37</AltitudeMeters>
            <DistanceMeters>NAN</DistanceMeters>
          </Trackpoint>
          <Trackpoint>
            <Time>2022-07-10T09:08:04.000Z</Time>
            <Position>
              <LatitudeDegrees>43.28332864679396152496337890625</LatitudeDegrees>
              <LongitudeDegrees>-2.13174051605165004730224609375</LongitudeDegrees>
            </Position>
            <AltitudeMeters>37.200000762939453125</AltitudeMeters>
            <DistanceMeters>NAN</DistanceMeters>
          </Trackpoint>
          <Trackpoint>
            <Time>2022-07-10T09:08:09.000Z</Time>
            <Position>
              <LatitudeDegrees>43.2833951152861118316650390625</LatitudeDegrees>
              <LongitudeDegrees>-2.1316981874406337738037109375</LongitudeDegrees>
            </Position>
            <AltitudeMeters>37.59999847412109375</AltitudeMeters>
            <DistanceMeters>NAN</DistanceMeters>
          </Trackpoint>
          <Trackpoint>
            <Time>2022-07-10T09:08:11.000Z</Time>
            <Position>
              <LatitudeDegrees>43.28342755325138568878173828125</LatitudeDegrees>
              <LongitudeDegrees>-2.1316802501678466796875</LongitudeDegrees>
            </Position>
            <AltitudeMeters>38</AltitudeMeters>
            <DistanceMeters>NAN</DistanceMeters>
          </Trackpoint>
          <Trackpoint>
            <Time>2022-07-10T09:08:12.000Z</Time>
            <Position>
              <LatitudeDegrees>43.2834387011826038360595703125</LatitudeDegrees>
              <LongitudeDegrees>-2.13167362846434116363525390625</LongitudeDegrees>
            </Position>
            <AltitudeMeters>38.200000762939453125</AltitudeMeters>
            <DistanceMeters>NAN</DistanceMeters>
          </Trackpoint>
          <Trackpoint>
            <Time>2022-07-10T09:08:18.000Z</Time>
            <Position>
              <LatitudeDegrees>43.283520005643367767333984375</LatitudeDegrees>
              <LongitudeDegrees>-2.131630294024944305419921875</LongitudeDegrees>
            </Position>
            <AltitudeMeters>38.40000152587890625</AltitudeMeters>
            <DistanceMeters>NAN</DistanceMeters>
          </Trackpoint>
          <Trackpoint>
            <Time>2022-07-10T09:08:20.000Z</Time>
            <Position>
              <LatitudeDegrees>43.28355026431381702423095703125</LatitudeDegrees>
              <LongitudeDegrees>-2.13161948136985301971435546875</LongitudeDegrees>
            </Position>
            <AltitudeMeters>38.799999237060546875</AltitudeMeters>
            <DistanceMeters>NAN</DistanceMeters>
          </Trackpoint>
          <Trackpoint>
            <Time>2022-07-10T09:08:21.000Z</Time>
            <Position>
              <LatitudeDegrees>43.2835627533495426177978515625</LatitudeDegrees>
              <LongitudeDegrees>-2.131625600159168243408203125</LongitudeDegrees>
            </Position>
            <AltitudeMeters>38.799999237060546875</AltitudeMeters>
            <DistanceMeters>NAN</DistanceMeters>
          </Trackpoint>
          <Trackpoint>
            <Time>2022-07-10T09:08:28.000Z</Time>
            <Position>
              <LatitudeDegrees>43.28371052630245685577392578125</LatitudeDegrees>
              <LongitudeDegrees>-2.1316743828356266021728515625</LongitudeDegrees>
            </Position>
            <AltitudeMeters>38.799999237060546875</AltitudeMeters>
            <DistanceMeters>NAN</DistanceMeters>
          </Trackpoint>
          <Trackpoint>
            <Time>2022-07-10T09:08:34.000Z</Time>
            <Position>
              <LatitudeDegrees>43.2838819362223148345947265625</LatitudeDegrees>
              <LongitudeDegrees>-2.1317612193524837493896484375</LongitudeDegrees>
            </Position>
            <AltitudeMeters>37.59999847412109375</AltitudeMeters>
            <DistanceMeters>NAN</DistanceMeters>
          </Trackpoint>
          <Trackpoint>
            <Time>2022-07-10T09:08:38.000Z</Time>
            <Position>
              <LatitudeDegrees>43.28401177190244197845458984375</LatitudeDegrees>
              <LongitudeDegrees>-2.13191016577184200286865234375</LongitudeDegrees>
            </Position>
            <AltitudeMeters>37</AltitudeMeters>
            <DistanceMeters>NAN</DistanceMeters>
          </Trackpoint>
          <Trackpoint>
            <Time>2022-07-10T09:08:39.000Z</Time>
            <Position>
              <LatitudeDegrees>43.28404404222965240478515625</LatitudeDegrees>
              <LongitudeDegrees>-2.13193832896649837493896484375</LongitudeDegrees>
            </Position>
            <AltitudeMeters>36.799999237060546875</AltitudeMeters>
            <DistanceMeters>NAN</DistanceMeters>
          </Trackpoint>
          <Trackpoint>
            <Time>2022-07-10T09:08:41.000Z</Time>
            <Position>
              <LatitudeDegrees>43.28413498587906360626220703125</LatitudeDegrees>
              <LongitudeDegrees>-2.131989710032939910888671875</LongitudeDegrees>
            </Position>
            <AltitudeMeters>36.40000152587890625</AltitudeMeters>
            <DistanceMeters>NAN</DistanceMeters>
          </Trackpoint>
          <Trackpoint>
            <Time>2022-07-10T09:08:43.000Z</Time>
            <Position>
              <LatitudeDegrees>43.284207321703433990478515625</LatitudeDegrees>
              <LongitudeDegrees>-2.13199432007968425750732421875</LongitudeDegrees>
            </Position>
            <AltitudeMeters>36</AltitudeMeters>
            <DistanceMeters>NAN</DistanceMeters>
          </Trackpoint>
          <Trackpoint>
            <Time>2022-07-10T09:08:44.000Z</Time>
            <Position>
              <LatitudeDegrees>43.28423808328807353973388671875</LatitudeDegrees>
              <LongitudeDegrees>-2.13199230842292308807373046875</LongitudeDegrees>
            </Position>
            <AltitudeMeters>35.799999237060546875</AltitudeMeters>
            <DistanceMeters>NAN</DistanceMeters>
          </Trackpoint>
          <Trackpoint>
            <Time>2022-07-10T09:08:48.000Z</Time>
            <Position>
              <LatitudeDegrees>43.2843422703444957733154296875</LatitudeDegrees>
              <LongitudeDegrees>-2.13200203143060207366943359375</LongitudeDegrees>
            </Position>
            <AltitudeMeters>35.59999847412109375</AltitudeMeters>
            <DistanceMeters>NAN</DistanceMeters>
          </Trackpoint>
          <Trackpoint>
            <Time>2022-07-10T09:08:55.000Z</Time>
            <Position>
              <LatitudeDegrees>43.28455525450408458709716796875</LatitudeDegrees>
              <LongitudeDegrees>-2.1320163644850254058837890625</LongitudeDegrees>
            </Position>
            <AltitudeMeters>35.40000152587890625</AltitudeMeters>
            <DistanceMeters>NAN</DistanceMeters>
          </Trackpoint>
          <Trackpoint>
            <Time>2022-07-10T09:08:56.000Z</Time>
            <Position>
              <LatitudeDegrees>43.28458526171743869781494140625</LatitudeDegrees>
              <LongitudeDegrees>-2.1320123411715030670166015625</LongitudeDegrees>
            </Position>
            <AltitudeMeters>35.59999847412109375</AltitudeMeters>
            <DistanceMeters>NAN</DistanceMeters>
          </Trackpoint>
          <Trackpoint>
            <Time>2022-07-10T09:09:07.000Z</Time>
            <Position>
              <LatitudeDegrees>43.2848958112299442291259765625</LatitudeDegrees>
              <LongitudeDegrees>-2.13195257820188999176025390625</LongitudeDegrees>
            </Position>
            <AltitudeMeters>36</AltitudeMeters>
            <DistanceMeters>NAN</DistanceMeters>
          </Trackpoint>
          <Trackpoint>
            <Time>2022-07-10T09:09:12.000Z</Time>
            <Position>
              <LatitudeDegrees>43.2850222103297710418701171875</LatitudeDegrees>
              <LongitudeDegrees>-2.13200412690639495849609375</LongitudeDegrees>
            </Position>
            <AltitudeMeters>35.59999847412109375</AltitudeMeters>
            <DistanceMeters>NAN</DistanceMeters>
          </Trackpoint>
          <Trackpoint>
            <Time>2022-07-10T09:09:14.000Z</Time>
            <Position>
              <LatitudeDegrees>43.28505297191441059112548828125</LatitudeDegrees>
              <LongitudeDegrees>-2.13206891901791095733642578125</LongitudeDegrees>
            </Position>
            <AltitudeMeters>35.59999847412109375</AltitudeMeters>
            <DistanceMeters>NAN</DistanceMeters>
          </Trackpoint>
          <Trackpoint>
            <Time>2022-07-10T09:09:16.000Z</Time>
            <Position>
              <LatitudeDegrees>43.28505213372409343719482421875</LatitudeDegrees>
              <LongitudeDegrees>-2.13216145522892475128173828125</LongitudeDegrees>
            </Position>
            <AltitudeMeters>35.40000152587890625</AltitudeMeters>
            <DistanceMeters>NAN</DistanceMeters>
          </Trackpoint>
          <Trackpoint>
            <Time>2022-07-10T09:09:23.000Z</Time>
            <Position>
              <LatitudeDegrees>43.28499547205865383148193359375</LatitudeDegrees>
              <LongitudeDegrees>-2.13247208856046199798583984375</LongitudeDegrees>
            </Position>
            <AltitudeMeters>35.40000152587890625</AltitudeMeters>
            <DistanceMeters>NAN</DistanceMeters>
          </Trackpoint>
          <Trackpoint>
            <Time>2022-07-10T09:09:30.000Z</Time>
            <Position>
              <LatitudeDegrees>43.28494249843060970306396484375</LatitudeDegrees>
              <LongitudeDegrees>-2.132744751870632171630859375</LongitudeDegrees>
            </Position>
            <AltitudeMeters>35.40000152587890625</AltitudeMeters>
            <DistanceMeters>NAN</DistanceMeters>
          </Trackpoint>
          <Trackpoint>
            <Time>2022-07-10T09:09:36.000Z</Time>
            <Position>
              <LatitudeDegrees>43.28489773906767368316650390625</LatitudeDegrees>
              <LongitudeDegrees>-2.13295874185860157012939453125</LongitudeDegrees>
            </Position>
            <AltitudeMeters>36</AltitudeMeters>
            <DistanceMeters>NAN</DistanceMeters>
          </Trackpoint>
          <Trackpoint>
            <Time>2022-07-10T09:09:37.000Z</Time>
            <Position>
              <LatitudeDegrees>43.284898661077022552490234375</LatitudeDegrees>
              <LongitudeDegrees>-2.1329851448535919189453125</LongitudeDegrees>
            </Position>
            <AltitudeMeters>36.200000762939453125</AltitudeMeters>
            <DistanceMeters>NAN</DistanceMeters>
          </Trackpoint>
          <Trackpoint>
            <Time>2022-07-10T09:09:41.000Z</Time>
            <Position>
              <LatitudeDegrees>43.2848813943564891815185546875</LatitudeDegrees>
              <LongitudeDegrees>-2.13305764831602573394775390625</LongitudeDegrees>
            </Position>
            <AltitudeMeters>36.40000152587890625</AltitudeMeters>
            <DistanceMeters>NAN</DistanceMeters>
          </Trackpoint>
          <Trackpoint>
            <Time>2022-07-10T09:09:44.000Z</Time>
            <Position>
              <LatitudeDegrees>43.28487175516784191131591796875</LatitudeDegrees>
              <LongitudeDegrees>-2.1331137232482433319091796875</LongitudeDegrees>
            </Position>
            <AltitudeMeters>37</AltitudeMeters>
            <DistanceMeters>NAN</DistanceMeters>
          </Trackpoint>
          <Trackpoint>
            <Time>2022-07-10T09:09:48.000Z</Time>
            <Position>
              <LatitudeDegrees>43.28486488200724124908447265625</LatitudeDegrees>
              <LongitudeDegrees>-2.13319947011768817901611328125</LongitudeDegrees>
            </Position>
            <AltitudeMeters>37.59999847412109375</AltitudeMeters>
            <DistanceMeters>NAN</DistanceMeters>
          </Trackpoint>
          <Trackpoint>
            <Time>2022-07-10T09:09:50.000Z</Time>
            <Position>
              <LatitudeDegrees>43.2848710007965564727783203125</LatitudeDegrees>
              <LongitudeDegrees>-2.133237607777118682861328125</LongitudeDegrees>
            </Position>
            <AltitudeMeters>37.799999237060546875</AltitudeMeters>
            <DistanceMeters>NAN</DistanceMeters>
          </Trackpoint>
          <Trackpoint>
            <Time>2022-07-10T09:09:53.000Z</Time>
            <Position>
              <LatitudeDegrees>43.28486655838787555694580078125</LatitudeDegrees>
              <LongitudeDegrees>-2.1332894079387187957763671875</LongitudeDegrees>
            </Position>
            <AltitudeMeters>38</AltitudeMeters>
            <DistanceMeters>NAN</DistanceMeters>
          </Trackpoint>
          <Trackpoint>
            <Time>2022-07-10T09:09:55.000Z</Time>
            <Position>
              <LatitudeDegrees>43.2848683185875415802001953125</LatitudeDegrees>
              <LongitudeDegrees>-2.13332000188529491424560546875</LongitudeDegrees>
            </Position>
            <AltitudeMeters>38.200000762939453125</AltitudeMeters>
            <DistanceMeters>NAN</DistanceMeters>
          </Trackpoint>
          <Trackpoint>
            <Time>2022-07-10T09:09:59.000Z</Time>
            <Position>
              <LatitudeDegrees>43.28485951758921146392822265625</LatitudeDegrees>
              <LongitudeDegrees>-2.13340130634605884552001953125</LongitudeDegrees>
            </Position>
            <AltitudeMeters>38.40000152587890625</AltitudeMeters>
            <DistanceMeters>NAN</DistanceMeters>
          </Trackpoint>
          <Trackpoint>
            <Time>2022-07-10T09:10:06.000Z</Time>
            <Position>
              <LatitudeDegrees>43.2848441787064075469970703125</LatitudeDegrees>
              <LongitudeDegrees>-2.133546061813831329345703125</LongitudeDegrees>
            </Position>
            <AltitudeMeters>38.799999237060546875</AltitudeMeters>
            <DistanceMeters>NAN</DistanceMeters>
          </Trackpoint>
          <Trackpoint>
            <Time>2022-07-10T09:10:16.000Z</Time>
            <Position>
              <LatitudeDegrees>43.28480034135282039642333984375</LatitudeDegrees>
              <LongitudeDegrees>-2.133858203887939453125</LongitudeDegrees>
            </Position>
            <AltitudeMeters>39</AltitudeMeters>
            <DistanceMeters>NAN</DistanceMeters>
          </Trackpoint>
          <Trackpoint>
            <Time>2022-07-10T09:10:22.000Z</Time>
            <Position>
              <LatitudeDegrees>43.28477787785232067108154296875</LatitudeDegrees>
              <LongitudeDegrees>-2.1340296976268291473388671875</LongitudeDegrees>
            </Position>
            <AltitudeMeters>39.200000762939453125</AltitudeMeters>
            <DistanceMeters>NAN</DistanceMeters>
          </Trackpoint>
          <Trackpoint>
            <Time>2022-07-10T09:10:24.000Z</Time>
            <Position>
              <LatitudeDegrees>43.28477418981492519378662109375</LatitudeDegrees>
              <LongitudeDegrees>-2.13408895768225193023681640625</LongitudeDegrees>
            </Position>
            <AltitudeMeters>39.40000152587890625</AltitudeMeters>
            <DistanceMeters>NAN</DistanceMeters>
          </Trackpoint>
          <Trackpoint>
            <Time>2022-07-10T09:10:29.000Z</Time>
            <Position>
              <LatitudeDegrees>43.28476631082594394683837890625</LatitudeDegrees>
              <LongitudeDegrees>-2.13421686552464962005615234375</LongitudeDegrees>
            </Position>
            <AltitudeMeters>39.799999237060546875</AltitudeMeters>
            <DistanceMeters>NAN</DistanceMeters>
          </Trackpoint>
          <Trackpoint>
            <Time>2022-07-10T09:10:30.000Z</Time>
            <Position>
              <LatitudeDegrees>43.28475927002727985382080078125</LatitudeDegrees>
              <LongitudeDegrees>-2.13424016721546649932861328125</LongitudeDegrees>
            </Position>
            <AltitudeMeters>39.799999237060546875</AltitudeMeters>
            <DistanceMeters>NAN</DistanceMeters>
          </Trackpoint>
          <Trackpoint>
            <Time>2022-07-10T09:10:31.000Z</Time>
            <Position>
              <LatitudeDegrees>43.28475809656083583831787109375</LatitudeDegrees>
              <LongitudeDegrees>-2.1342591941356658935546875</LongitudeDegrees>
            </Position>
            <AltitudeMeters>40</AltitudeMeters>
            <DistanceMeters>NAN</DistanceMeters>
          </Trackpoint>
          <Trackpoint>
            <Time>2022-07-10T09:10:33.000Z</Time>
            <Position>
              <LatitudeDegrees>43.28475608490407466888427734375</LatitudeDegrees>
              <LongitudeDegrees>-2.13429716415703296661376953125</LongitudeDegrees>
            </Position>
            <AltitudeMeters>40.200000762939453125</AltitudeMeters>
            <DistanceMeters>NAN</DistanceMeters>
          </Trackpoint>
          <Trackpoint>
            <Time>2022-07-10T09:10:34.000Z</Time>
            <Position>
              <LatitudeDegrees>43.2847553305327892303466796875</LatitudeDegrees>
              <LongitudeDegrees>-2.13431996293365955352783203125</LongitudeDegrees>
            </Position>
            <AltitudeMeters>40.40000152587890625</AltitudeMeters>
            <DistanceMeters>NAN</DistanceMeters>
          </Trackpoint>
          <Trackpoint>
            <Time>2022-07-10T09:10:39.000Z</Time>
            <Position>
              <LatitudeDegrees>43.284756839275360107421875</LatitudeDegrees>
              <LongitudeDegrees>-2.1344523131847381591796875</LongitudeDegrees>
            </Position>
            <AltitudeMeters>40.799999237060546875</AltitudeMeters>
            <DistanceMeters>NAN</DistanceMeters>
          </Trackpoint>
          <Trackpoint>
            <Time>2022-07-10T09:10:41.000Z</Time>
            <Position>
              <LatitudeDegrees>43.2847596891224384307861328125</LatitudeDegrees>
              <LongitudeDegrees>-2.13451123796403408050537109375</LongitudeDegrees>
            </Position>
            <AltitudeMeters>40.799999237060546875</AltitudeMeters>
            <DistanceMeters>NAN</DistanceMeters>
          </Trackpoint>
          <Trackpoint>
            <Time>2022-07-10T09:10:47.000Z</Time>
            <Position>
              <LatitudeDegrees>43.28475172631442546844482421875</LatitudeDegrees>
              <LongitudeDegrees>-2.13470636866986751556396484375</LongitudeDegrees>
            </Position>
            <AltitudeMeters>41.200000762939453125</AltitudeMeters>
            <DistanceMeters>NAN</DistanceMeters>
          </Trackpoint>
          <Trackpoint>
            <Time>2022-07-10T09:10:51.000Z</Time>
            <Position>
              <LatitudeDegrees>43.284731693565845489501953125</LatitudeDegrees>
              <LongitudeDegrees>-2.13487274944782257080078125</LongitudeDegrees>
            </Position>
            <AltitudeMeters>41</AltitudeMeters>
            <DistanceMeters>NAN</DistanceMeters>
          </Trackpoint>
          <Trackpoint>
            <Time>2022-07-10T09:10:53.000Z</Time>
            <Position>
              <LatitudeDegrees>43.28474342823028564453125</LatitudeDegrees>
              <LongitudeDegrees>-2.1350056864321231842041015625</LongitudeDegrees>
            </Position>
            <AltitudeMeters>40.799999237060546875</AltitudeMeters>
            <DistanceMeters>NAN</DistanceMeters>
          </Trackpoint>
          <Trackpoint>
            <Time>2022-07-10T09:10:55.000Z</Time>
            <Position>
              <LatitudeDegrees>43.2847818173468112945556640625</LatitudeDegrees>
              <LongitudeDegrees>-2.135134600102901458740234375</LongitudeDegrees>
            </Position>
            <AltitudeMeters>40.59999847412109375</AltitudeMeters>
            <DistanceMeters>NAN</DistanceMeters>
          </Trackpoint>
          <Trackpoint>
            <Time>2022-07-10T09:10:57.000Z</Time>
            <Position>
              <LatitudeDegrees>43.28480386175215244293212890625</LatitudeDegrees>
              <LongitudeDegrees>-2.135257311165332794189453125</LongitudeDegrees>
            </Position>
            <AltitudeMeters>40.200000762939453125</AltitudeMeters>
            <DistanceMeters>NAN</DistanceMeters>
          </Trackpoint>
          <Trackpoint>
            <Time>2022-07-10T09:11:00.000Z</Time>
            <Position>
              <LatitudeDegrees>43.28474418260157108306884765625</LatitudeDegrees>
              <LongitudeDegrees>-2.13544280268251895904541015625</LongitudeDegrees>
            </Position>
            <AltitudeMeters>39.40000152587890625</AltitudeMeters>
            <DistanceMeters>NAN</DistanceMeters>
          </Trackpoint>
          <Trackpoint>
            <Time>2022-07-10T09:11:01.000Z</Time>
            <Position>
              <LatitudeDegrees>43.2847194559872150421142578125</LatitudeDegrees>
              <LongitudeDegrees>-2.1354961954057216644287109375</LongitudeDegrees>
            </Position>
            <AltitudeMeters>39.200000762939453125</AltitudeMeters>
            <DistanceMeters>NAN</DistanceMeters>
          </Trackpoint>
          <Trackpoint>
            <Time>2022-07-10T09:11:03.000Z</Time>
            <Position>
              <LatitudeDegrees>43.28468936495482921600341796875</LatitudeDegrees>
              <LongitudeDegrees>-2.1355649270117282867431640625</LongitudeDegrees>
            </Position>
            <AltitudeMeters>39.799999237060546875</AltitudeMeters>
            <DistanceMeters>NAN</DistanceMeters>
          </Trackpoint>
          <Trackpoint>
            <Time>2022-07-10T09:11:06.000Z</Time>
            <Position>
              <LatitudeDegrees>43.28465784899890422821044921875</LatitudeDegrees>
              <LongitudeDegrees>-2.13564732111990451812744140625</LongitudeDegrees>
            </Position>
            <AltitudeMeters>40</AltitudeMeters>
            <DistanceMeters>NAN</DistanceMeters>
          </Trackpoint>
          <Trackpoint>
            <Time>2022-07-10T09:11:07.000Z</Time>
            <Position>
              <LatitudeDegrees>43.2846550829708576202392578125</LatitudeDegrees>
              <LongitudeDegrees>-2.1356688626110553741455078125</LongitudeDegrees>
            </Position>
            <AltitudeMeters>40.200000762939453125</AltitudeMeters>
            <DistanceMeters>NAN</DistanceMeters>
          </Trackpoint>
          <Trackpoint>
            <Time>2022-07-10T09:11:08.000Z</Time>
            <Position>
              <LatitudeDegrees>43.28465382568538188934326171875</LatitudeDegrees>
              <LongitudeDegrees>-2.13570046238601207733154296875</LongitudeDegrees>
            </Position>
            <AltitudeMeters>40.40000152587890625</AltitudeMeters>
            <DistanceMeters>NAN</DistanceMeters>
          </Trackpoint>
          <Trackpoint>
            <Time>2022-07-10T09:11:14.000Z</Time>
            <Position>
              <LatitudeDegrees>43.28464628197252750396728515625</LatitudeDegrees>
              <LongitudeDegrees>-2.13583725504577159881591796875</LongitudeDegrees>
            </Position>
            <AltitudeMeters>41</AltitudeMeters>
            <DistanceMeters>NAN</DistanceMeters>
          </Trackpoint>
          <Trackpoint>
            <Time>2022-07-10T09:11:17.000Z</Time>
            <Position>
              <LatitudeDegrees>43.2846455276012420654296875</LatitudeDegrees>
              <LongitudeDegrees>-2.13588888756930828094482421875</LongitudeDegrees>
            </Position>
            <AltitudeMeters>41.59999847412109375</AltitudeMeters>
            <DistanceMeters>NAN</DistanceMeters>
          </Trackpoint>
          <Trackpoint>
            <Time>2022-07-10T09:11:19.000Z</Time>
            <Position>
              <LatitudeDegrees>43.28464812599122524261474609375</LatitudeDegrees>
              <LongitudeDegrees>-2.135920822620391845703125</LongitudeDegrees>
            </Position>
            <AltitudeMeters>42.200000762939453125</AltitudeMeters>
            <DistanceMeters>NAN</DistanceMeters>
          </Trackpoint>
          <Trackpoint>
            <Time>2022-07-10T09:11:22.000Z</Time>
            <Position>
              <LatitudeDegrees>43.284639827907085418701171875</LatitudeDegrees>
              <LongitudeDegrees>-2.135975472629070281982421875</LongitudeDegrees>
            </Position>
            <AltitudeMeters>42.59999847412109375</AltitudeMeters>
            <DistanceMeters>NAN</DistanceMeters>
          </Trackpoint>
          <Trackpoint>
            <Time>2022-07-10T09:11:23.000Z</Time>
            <Position>
              <LatitudeDegrees>43.28464007936418056488037109375</LatitudeDegrees>
              <LongitudeDegrees>-2.13599382899701595306396484375</LongitudeDegrees>
            </Position>
            <AltitudeMeters>42.59999847412109375</AltitudeMeters>
            <DistanceMeters>NAN</DistanceMeters>
          </Trackpoint>
          <Trackpoint>
            <Time>2022-07-10T09:11:28.000Z</Time>
            <Position>
              <LatitudeDegrees>43.2846433483064174652099609375</LatitudeDegrees>
              <LongitudeDegrees>-2.1360728703439235687255859375</LongitudeDegrees>
            </Position>
            <AltitudeMeters>43.40000152587890625</AltitudeMeters>
            <DistanceMeters>NAN</DistanceMeters>
          </Trackpoint>
          <Trackpoint>
            <Time>2022-07-10T09:11:29.000Z</Time>
            <Position>
              <LatitudeDegrees>43.2846436835825443267822265625</LatitudeDegrees>
              <LongitudeDegrees>-2.13609038852155208587646484375</LongitudeDegrees>
            </Position>
            <AltitudeMeters>43.59999847412109375</AltitudeMeters>
            <DistanceMeters>NAN</DistanceMeters>
          </Trackpoint>
          <Trackpoint>
            <Time>2022-07-10T09:11:35.000Z</Time>
            <Position>
              <LatitudeDegrees>43.28464494086802005767822265625</LatitudeDegrees>
              <LongitudeDegrees>-2.13620706461369991302490234375</LongitudeDegrees>
            </Position>
            <AltitudeMeters>44.59999847412109375</AltitudeMeters>
            <DistanceMeters>NAN</DistanceMeters>
          </Trackpoint>
          <Trackpoint>
            <Time>2022-07-10T09:11:38.000Z</Time>
            <Position>
              <LatitudeDegrees>43.28463689424097537994384765625</LatitudeDegrees>
              <LongitudeDegrees>-2.13625903241336345672607421875</LongitudeDegrees>
            </Position>
            <AltitudeMeters>45.200000762939453125</AltitudeMeters>
            <DistanceMeters>NAN</DistanceMeters>
          </Trackpoint>
          <Trackpoint>
            <Time>2022-07-10T09:11:41.000Z</Time>
            <Position>
              <LatitudeDegrees>43.28463756479322910308837890625</LatitudeDegrees>
              <LongitudeDegrees>-2.136316113173961639404296875</LongitudeDegrees>
            </Position>
            <AltitudeMeters>45.799999237060546875</AltitudeMeters>
            <DistanceMeters>NAN</DistanceMeters>
          </Trackpoint>
          <Trackpoint>
            <Time>2022-07-10T09:11:46.000Z</Time>
            <Position>
              <LatitudeDegrees>43.284649886190891265869140625</LatitudeDegrees>
              <LongitudeDegrees>-2.13640588335692882537841796875</LongitudeDegrees>
            </Position>
            <AltitudeMeters>46.40000152587890625</AltitudeMeters>
            <DistanceMeters>NAN</DistanceMeters>
          </Trackpoint>
          <Trackpoint>
            <Time>2022-07-10T09:11:49.000Z</Time>
            <Position>
              <LatitudeDegrees>43.2846534065902233123779296875</LatitudeDegrees>
              <LongitudeDegrees>-2.136458270251750946044921875</LongitudeDegrees>
            </Position>
            <AltitudeMeters>46.799999237060546875</AltitudeMeters>
            <DistanceMeters>NAN</DistanceMeters>
          </Trackpoint>
          <Trackpoint>
            <Time>2022-07-10T09:11:55.000Z</Time>
            <Position>
              <LatitudeDegrees>43.284650556743144989013671875</LatitudeDegrees>
              <LongitudeDegrees>-2.13656430132687091827392578125</LongitudeDegrees>
            </Position>
            <AltitudeMeters>47.799999237060546875</AltitudeMeters>
            <DistanceMeters>NAN</DistanceMeters>
          </Trackpoint>
          <Trackpoint>
            <Time>2022-07-10T09:11:56.000Z</Time>
            <Position>
              <LatitudeDegrees>43.2846524007618427276611328125</LatitudeDegrees>
              <LongitudeDegrees>-2.13658173568546772003173828125</LongitudeDegrees>
            </Position>
            <AltitudeMeters>48</AltitudeMeters>
            <DistanceMeters>NAN</DistanceMeters>
          </Trackpoint>
          <Trackpoint>
            <Time>2022-07-10T09:12:01.000Z</Time>
            <Position>
              <LatitudeDegrees>43.284659944474697113037109375</LatitudeDegrees>
              <LongitudeDegrees>-2.13667678646743297576904296875</LongitudeDegrees>
            </Position>
            <AltitudeMeters>48.799999237060546875</AltitudeMeters>
            <DistanceMeters>NAN</DistanceMeters>
          </Trackpoint>
          <Trackpoint>
            <Time>2022-07-10T09:12:03.000Z</Time>
            <Position>
              <LatitudeDegrees>43.2846562564373016357421875</LatitudeDegrees>
              <LongitudeDegrees>-2.1367068774998188018798828125</LongitudeDegrees>
            </Position>
            <AltitudeMeters>49</AltitudeMeters>
            <DistanceMeters>NAN</DistanceMeters>
          </Trackpoint>
          <Trackpoint>
            <Time>2022-07-10T09:12:05.000Z</Time>
            <Position>
              <LatitudeDegrees>43.28465298749506473541259765625</LatitudeDegrees>
              <LongitudeDegrees>-2.1367430873215198516845703125</LongitudeDegrees>
            </Position>
            <AltitudeMeters>49.40000152587890625</AltitudeMeters>
            <DistanceMeters>NAN</DistanceMeters>
          </Trackpoint>
          <Trackpoint>
            <Time>2022-07-10T09:12:06.000Z</Time>
            <Position>
              <LatitudeDegrees>43.28465466387569904327392578125</LatitudeDegrees>
              <LongitudeDegrees>-2.1367585100233554840087890625</LongitudeDegrees>
            </Position>
            <AltitudeMeters>49.59999847412109375</AltitudeMeters>
            <DistanceMeters>NAN</DistanceMeters>
          </Trackpoint>
          <Trackpoint>
            <Time>2022-07-10T09:12:07.000Z</Time>
            <Position>
              <LatitudeDegrees>43.2846554182469844818115234375</LatitudeDegrees>
              <LongitudeDegrees>-2.136770747601985931396484375</LongitudeDegrees>
            </Position>
            <AltitudeMeters>49.799999237060546875</AltitudeMeters>
            <DistanceMeters>NAN</DistanceMeters>
          </Trackpoint>
          <Trackpoint>
            <Time>2022-07-10T09:12:08.000Z</Time>
            <Position>
              <LatitudeDegrees>43.28465634025633335113525390625</LatitudeDegrees>
              <LongitudeDegrees>-2.1367927081882953643798828125</LongitudeDegrees>
            </Position>
            <AltitudeMeters>50</AltitudeMeters>
            <DistanceMeters>NAN</DistanceMeters>
          </Trackpoint>
          <Trackpoint>
            <Time>2022-07-10T09:12:09.000Z</Time>
            <Position>
              <LatitudeDegrees>43.28465365804731845855712890625</LatitudeDegrees>
              <LongitudeDegrees>-2.1368118189275264739990234375</LongitudeDegrees>
            </Position>
            <AltitudeMeters>50</AltitudeMeters>
            <DistanceMeters>NAN</DistanceMeters>
          </Trackpoint>
          <Trackpoint>
            <Time>2022-07-10T09:12:13.000Z</Time>
            <Position>
              <LatitudeDegrees>43.284643851220607757568359375</LatitudeDegrees>
              <LongitudeDegrees>-2.13687694631516933441162109375</LongitudeDegrees>
            </Position>
            <AltitudeMeters>50.59999847412109375</AltitudeMeters>
            <DistanceMeters>NAN</DistanceMeters>
          </Trackpoint>
          <Trackpoint>
            <Time>2022-07-10T09:12:15.000Z</Time>
            <Position>
              <LatitudeDegrees>43.28465064056217670440673828125</LatitudeDegrees>
              <LongitudeDegrees>-2.13690913282334804534912109375</LongitudeDegrees>
            </Position>
            <AltitudeMeters>50.799999237060546875</AltitudeMeters>
            <DistanceMeters>NAN</DistanceMeters>
          </Trackpoint>
          <Trackpoint>
            <Time>2022-07-10T09:12:18.000Z</Time>
            <Position>
              <LatitudeDegrees>43.28465801663696765899658203125</LatitudeDegrees>
              <LongitudeDegrees>-2.13695975951850414276123046875</LongitudeDegrees>
            </Position>
            <AltitudeMeters>51</AltitudeMeters>
            <DistanceMeters>NAN</DistanceMeters>
          </Trackpoint>
          <Trackpoint>
            <Time>2022-07-10T09:12:22.000Z</Time>
            <Position>
              <LatitudeDegrees>43.284662626683712005615234375</LatitudeDegrees>
              <LongitudeDegrees>-2.13702790439128875732421875</LongitudeDegrees>
            </Position>
            <AltitudeMeters>51.40000152587890625</AltitudeMeters>
            <DistanceMeters>NAN</DistanceMeters>
          </Trackpoint>
          <Trackpoint>
            <Time>2022-07-10T09:12:25.000Z</Time>
            <Position>
              <LatitudeDegrees>43.28466656617820262908935546875</LatitudeDegrees>
              <LongitudeDegrees>-2.13708163239061832427978515625</LongitudeDegrees>
            </Position>
            <AltitudeMeters>51.799999237060546875</AltitudeMeters>
            <DistanceMeters>NAN</DistanceMeters>
          </Trackpoint>
          <Trackpoint>
            <Time>2022-07-10T09:12:28.000Z</Time>
            <Position>
              <LatitudeDegrees>43.2846547476947307586669921875</LatitudeDegrees>
              <LongitudeDegrees>-2.13714030571281909942626953125</LongitudeDegrees>
            </Position>
            <AltitudeMeters>52</AltitudeMeters>
            <DistanceMeters>NAN</DistanceMeters>
          </Trackpoint>
          <Trackpoint>
            <Time>2022-07-10T09:12:31.000Z</Time>
            <Position>
              <LatitudeDegrees>43.2846581004559993743896484375</LatitudeDegrees>
              <LongitudeDegrees>-2.1371839754283428192138671875</LongitudeDegrees>
            </Position>
            <AltitudeMeters>52.40000152587890625</AltitudeMeters>
            <DistanceMeters>NAN</DistanceMeters>
          </Trackpoint>
          <Trackpoint>
            <Time>2022-07-10T09:12:36.000Z</Time>
            <Position>
              <LatitudeDegrees>43.28467276878654956817626953125</LatitudeDegrees>
              <LongitudeDegrees>-2.1372590772807598114013671875</LongitudeDegrees>
            </Position>
            <AltitudeMeters>53.200000762939453125</AltitudeMeters>
            <DistanceMeters>NAN</DistanceMeters>
          </Trackpoint>
          <Trackpoint>
            <Time>2022-07-10T09:12:38.000Z</Time>
            <Position>
              <LatitudeDegrees>43.2846725173294544219970703125</LatitudeDegrees>
              <LongitudeDegrees>-2.1372949518263339996337890625</LongitudeDegrees>
            </Position>
            <AltitudeMeters>53.59999847412109375</AltitudeMeters>
            <DistanceMeters>NAN</DistanceMeters>
          </Trackpoint>
          <Trackpoint>
            <Time>2022-07-10T09:12:42.000Z</Time>
            <Position>
              <LatitudeDegrees>43.28467126004397869110107421875</LatitudeDegrees>
              <LongitudeDegrees>-2.13736477307975292205810546875</LongitudeDegrees>
            </Position>
            <AltitudeMeters>54.200000762939453125</AltitudeMeters>
            <DistanceMeters>NAN</DistanceMeters>
          </Trackpoint>
          <Trackpoint>
            <Time>2022-07-10T09:12:45.000Z</Time>
            <Position>
              <LatitudeDegrees>43.2846708409488201141357421875</LatitudeDegrees>
              <LongitudeDegrees>-2.13741037063300609588623046875</LongitudeDegrees>
            </Position>
            <AltitudeMeters>54.799999237060546875</AltitudeMeters>
            <DistanceMeters>NAN</DistanceMeters>
          </Trackpoint>
          <Trackpoint>
            <Time>2022-07-10T09:12:49.000Z</Time>
            <Position>
              <LatitudeDegrees>43.2846751995384693145751953125</LatitudeDegrees>
              <LongitudeDegrees>-2.13745781220495700836181640625</LongitudeDegrees>
            </Position>
            <AltitudeMeters>55.40000152587890625</AltitudeMeters>
            <DistanceMeters>NAN</DistanceMeters>
          </Trackpoint>
          <Trackpoint>
            <Time>2022-07-10T09:12:55.000Z</Time>
            <Position>
              <LatitudeDegrees>43.28467830084264278411865234375</LatitudeDegrees>
              <LongitudeDegrees>-2.1375591494143009185791015625</LongitudeDegrees>
            </Position>
            <AltitudeMeters>56.40000152587890625</AltitudeMeters>
            <DistanceMeters>NAN</DistanceMeters>
          </Trackpoint>
          <Trackpoint>
            <Time>2022-07-10T09:13:00.000Z</Time>
            <Position>
              <LatitudeDegrees>43.28466941602528095245361328125</LatitudeDegrees>
              <LongitudeDegrees>-2.13765730150043964385986328125</LongitudeDegrees>
            </Position>
            <AltitudeMeters>57.40000152587890625</AltitudeMeters>
            <DistanceMeters>NAN</DistanceMeters>
          </Trackpoint>
          <Trackpoint>
            <Time>2022-07-10T09:13:02.000Z</Time>
            <Position>
              <LatitudeDegrees>43.2846775464713573455810546875</LatitudeDegrees>
              <LongitudeDegrees>-2.137675993144512176513671875</LongitudeDegrees>
            </Position>
            <AltitudeMeters>57.799999237060546875</AltitudeMeters>
            <DistanceMeters>NAN</DistanceMeters>
          </Trackpoint>
          <Trackpoint>
            <Time>2022-07-10T09:13:08.000Z</Time>
            <Position>
              <LatitudeDegrees>43.284716941416263580322265625</LatitudeDegrees>
              <LongitudeDegrees>-2.13777096010744571685791015625</LongitudeDegrees>
            </Position>
            <AltitudeMeters>58.40000152587890625</AltitudeMeters>
            <DistanceMeters>NAN</DistanceMeters>
          </Trackpoint>
          <Trackpoint>
            <Time>2022-07-10T09:13:09.000Z</Time>
            <Position>
              <LatitudeDegrees>43.28472322784364223480224609375</LatitudeDegrees>
              <LongitudeDegrees>-2.13778219185769557952880859375</LongitudeDegrees>
            </Position>
            <AltitudeMeters>58.59999847412109375</AltitudeMeters>
            <DistanceMeters>NAN</DistanceMeters>
          </Trackpoint>
          <Trackpoint>
            <Time>2022-07-10T09:13:10.000Z</Time>
            <Position>
              <LatitudeDegrees>43.2847268320620059967041015625</LatitudeDegrees>
              <LongitudeDegrees>-2.13780432008206844329833984375</LongitudeDegrees>
            </Position>
            <AltitudeMeters>58.59999847412109375</AltitudeMeters>
            <DistanceMeters>NAN</DistanceMeters>
          </Trackpoint>
          <Trackpoint>
            <Time>2022-07-10T09:13:16.000Z</Time>
            <Position>
              <LatitudeDegrees>43.2847509719431400299072265625</LatitudeDegrees>
              <LongitudeDegrees>-2.13790942914783954620361328125</LongitudeDegrees>
            </Position>
            <AltitudeMeters>59.59999847412109375</AltitudeMeters>
            <DistanceMeters>NAN</DistanceMeters>
          </Trackpoint>
          <Trackpoint>
            <Time>2022-07-10T09:13:18.000Z</Time>
            <Position>
              <LatitudeDegrees>43.2847576774656772613525390625</LatitudeDegrees>
              <LongitudeDegrees>-2.13794312439858913421630859375</LongitudeDegrees>
            </Position>
            <AltitudeMeters>59.799999237060546875</AltitudeMeters>
            <DistanceMeters>NAN</DistanceMeters>
          </Trackpoint>
          <Trackpoint>
            <Time>2022-07-10T09:13:19.000Z</Time>
            <Position>
              <LatitudeDegrees>43.284755162894725799560546875</LatitudeDegrees>
              <LongitudeDegrees>-2.13796240277588367462158203125</LongitudeDegrees>
            </Position>
            <AltitudeMeters>59.799999237060546875</AltitudeMeters>
            <DistanceMeters>NAN</DistanceMeters>
          </Trackpoint>
          <Trackpoint>
            <Time>2022-07-10T09:13:26.000Z</Time>
            <Position>
              <LatitudeDegrees>43.284789361059665679931640625</LatitudeDegrees>
              <LongitudeDegrees>-2.13808293454349040985107421875</LongitudeDegrees>
            </Position>
            <AltitudeMeters>60.40000152587890625</AltitudeMeters>
            <DistanceMeters>NAN</DistanceMeters>
          </Trackpoint>
          <Trackpoint>
            <Time>2022-07-10T09:13:28.000Z</Time>
            <Position>
              <LatitudeDegrees>43.2848039455711841583251953125</LatitudeDegrees>
              <LongitudeDegrees>-2.13811822235584259033203125</LongitudeDegrees>
            </Position>
            <AltitudeMeters>60.799999237060546875</AltitudeMeters>
            <DistanceMeters>NAN</DistanceMeters>
          </Trackpoint>
          <Trackpoint>
            <Time>2022-07-10T09:13:36.000Z</Time>
            <Position>
              <LatitudeDegrees>43.28484627418220043182373046875</LatitudeDegrees>
              <LongitudeDegrees>-2.1382578648626804351806640625</LongitudeDegrees>
            </Position>
            <AltitudeMeters>61.40000152587890625</AltitudeMeters>
            <DistanceMeters>NAN</DistanceMeters>
          </Trackpoint>
          <Trackpoint>
            <Time>2022-07-10T09:13:38.000Z</Time>
            <Position>
              <LatitudeDegrees>43.28485943377017974853515625</LatitudeDegrees>
              <LongitudeDegrees>-2.1382932364940643310546875</LongitudeDegrees>
            </Position>
            <AltitudeMeters>61.799999237060546875</AltitudeMeters>
            <DistanceMeters>NAN</DistanceMeters>
          </Trackpoint>
          <Trackpoint>
            <Time>2022-07-10T09:13:44.000Z</Time>
            <Position>
              <LatitudeDegrees>43.28489656560122966766357421875</LatitudeDegrees>
              <LongitudeDegrees>-2.1384013630449771881103515625</LongitudeDegrees>
            </Position>
            <AltitudeMeters>62.200000762939453125</AltitudeMeters>
            <DistanceMeters>NAN</DistanceMeters>
          </Trackpoint>
          <Trackpoint>
            <Time>2022-07-10T09:13:45.000Z</Time>
            <Position>
              <LatitudeDegrees>43.284901678562164306640625</LatitudeDegrees>
              <LongitudeDegrees>-2.1384214796125888824462890625</LongitudeDegrees>
            </Position>
            <AltitudeMeters>62.40000152587890625</AltitudeMeters>
            <DistanceMeters>NAN</DistanceMeters>
          </Trackpoint>
          <Trackpoint>
            <Time>2022-07-10T09:13:50.000Z</Time>
            <Position>
              <LatitudeDegrees>43.28493176959455013275146484375</LatitudeDegrees>
              <LongitudeDegrees>-2.13851627893745899200439453125</LongitudeDegrees>
            </Position>
            <AltitudeMeters>62.799999237060546875</AltitudeMeters>
            <DistanceMeters>NAN</DistanceMeters>
          </Trackpoint>
          <Trackpoint>
            <Time>2022-07-10T09:13:53.000Z</Time>
            <Position>
              <LatitudeDegrees>43.28494685702025890350341796875</LatitudeDegrees>
              <LongitudeDegrees>-2.138570509850978851318359375</LongitudeDegrees>
            </Position>
            <AltitudeMeters>63.200000762939453125</AltitudeMeters>
            <DistanceMeters>NAN</DistanceMeters>
          </Trackpoint>
          <Trackpoint>
            <Time>2022-07-10T09:14:01.000Z</Time>
            <Position>
              <LatitudeDegrees>43.2849843241274356842041015625</LatitudeDegrees>
              <LongitudeDegrees>-2.138713337481021881103515625</LongitudeDegrees>
            </Position>
            <AltitudeMeters>64</AltitudeMeters>
            <DistanceMeters>NAN</DistanceMeters>
          </Trackpoint>
          <Trackpoint>
            <Time>2022-07-10T09:14:02.000Z</Time>
            <Position>
              <LatitudeDegrees>43.28499010764062404632568359375</LatitudeDegrees>
              <LongitudeDegrees>-2.1387289278209209442138671875</LongitudeDegrees>
            </Position>
            <AltitudeMeters>64.1999969482421875</AltitudeMeters>
            <DistanceMeters>NAN</DistanceMeters>
          </Trackpoint>
          <Trackpoint>
            <Time>2022-07-10T09:14:09.000Z</Time>
            <Position>
              <LatitudeDegrees>43.2850242219865322113037109375</LatitudeDegrees>
              <LongitudeDegrees>-2.13885993696749210357666015625</LongitudeDegrees>
            </Position>
            <AltitudeMeters>65</AltitudeMeters>
            <DistanceMeters>NAN</DistanceMeters>
          </Trackpoint>
          <Trackpoint>
            <Time>2022-07-10T09:14:11.000Z</Time>
            <Position>
              <LatitudeDegrees>43.28503486700356006622314453125</LatitudeDegrees>
              <LongitudeDegrees>-2.13889447040855884552001953125</LongitudeDegrees>
            </Position>
            <AltitudeMeters>65.1999969482421875</AltitudeMeters>
            <DistanceMeters>NAN</DistanceMeters>
          </Trackpoint>
          <Trackpoint>
            <Time>2022-07-10T09:14:14.000Z</Time>
            <Position>
              <LatitudeDegrees>43.2850505411624908447265625</LatitudeDegrees>
              <LongitudeDegrees>-2.13894073851406574249267578125</LongitudeDegrees>
            </Position>
            <AltitudeMeters>65.59999847412109375</AltitudeMeters>
            <DistanceMeters>NAN</DistanceMeters>
          </Trackpoint>
          <Trackpoint>
            <Time>2022-07-10T09:14:17.000Z</Time>
            <Position>
              <LatitudeDegrees>43.28505456447601318359375</LatitudeDegrees>
              <LongitudeDegrees>-2.1389973163604736328125</LongitudeDegrees>
            </Position>
            <AltitudeMeters>66</AltitudeMeters>
            <DistanceMeters>NAN</DistanceMeters>
          </Trackpoint>
          <Trackpoint>
            <Time>2022-07-10T09:14:19.000Z</Time>
            <Position>
              <LatitudeDegrees>43.28505523502826690673828125</LatitudeDegrees>
              <LongitudeDegrees>-2.139035873115062713623046875</LongitudeDegrees>
            </Position>
            <AltitudeMeters>66.40000152587890625</AltitudeMeters>
            <DistanceMeters>NAN</DistanceMeters>
          </Trackpoint>
          <Trackpoint>
            <Time>2022-07-10T09:14:23.000Z</Time>
            <Position>
              <LatitudeDegrees>43.2850693166255950927734375</LatitudeDegrees>
              <LongitudeDegrees>-2.13910502381622791290283203125</LongitudeDegrees>
            </Position>
            <AltitudeMeters>67</AltitudeMeters>
            <DistanceMeters>NAN</DistanceMeters>
          </Trackpoint>
          <Trackpoint>
            <Time>2022-07-10T09:14:26.000Z</Time>
            <Position>
              <LatitudeDegrees>43.2850728370249271392822265625</LatitudeDegrees>
              <LongitudeDegrees>-2.13915145955979824066162109375</LongitudeDegrees>
            </Position>
            <AltitudeMeters>67.59999847412109375</AltitudeMeters>
            <DistanceMeters>NAN</DistanceMeters>
          </Trackpoint>
          <Trackpoint>
            <Time>2022-07-10T09:14:29.000Z</Time>
            <Position>
              <LatitudeDegrees>43.28506839461624622344970703125</LatitudeDegrees>
              <LongitudeDegrees>-2.1392046846449375152587890625</LongitudeDegrees>
            </Position>
            <AltitudeMeters>68.1999969482421875</AltitudeMeters>
            <DistanceMeters>NAN</DistanceMeters>
          </Trackpoint>
          <Trackpoint>
            <Time>2022-07-10T09:14:35.000Z</Time>
            <Position>
              <LatitudeDegrees>43.2850741781294345855712890625</LatitudeDegrees>
              <LongitudeDegrees>-2.13930987752974033355712890625</LongitudeDegrees>
            </Position>
            <AltitudeMeters>69.1999969482421875</AltitudeMeters>
            <DistanceMeters>NAN</DistanceMeters>
          </Trackpoint>
          <Trackpoint>
            <Time>2022-07-10T09:14:42.000Z</Time>
            <Position>
              <LatitudeDegrees>43.28507107682526111602783203125</LatitudeDegrees>
              <LongitudeDegrees>-2.1394360251724720001220703125</LongitudeDegrees>
            </Position>
            <AltitudeMeters>70.1999969482421875</AltitudeMeters>
            <DistanceMeters>NAN</DistanceMeters>
          </Trackpoint>
          <Trackpoint>
            <Time>2022-07-10T09:14:45.000Z</Time>
            <Position>
              <LatitudeDegrees>43.28507535159587860107421875</LatitudeDegrees>
              <LongitudeDegrees>-2.13948489166796207427978515625</LongitudeDegrees>
            </Position>
            <AltitudeMeters>70.59999847412109375</AltitudeMeters>
            <DistanceMeters>NAN</DistanceMeters>
          </Trackpoint>
          <Trackpoint>
            <Time>2022-07-10T09:14:52.000Z</Time>
            <Position>
              <LatitudeDegrees>43.28506655059754848480224609375</LatitudeDegrees>
              <LongitudeDegrees>-2.139607854187488555908203125</LongitudeDegrees>
            </Position>
            <AltitudeMeters>71.1999969482421875</AltitudeMeters>
            <DistanceMeters>NAN</DistanceMeters>
          </Trackpoint>
          <Trackpoint>
            <Time>2022-07-10T09:14:54.000Z</Time>
            <Position>
              <LatitudeDegrees>43.28506621532142162322998046875</LatitudeDegrees>
              <LongitudeDegrees>-2.1396472491323947906494140625</LongitudeDegrees>
            </Position>
            <AltitudeMeters>71.40000152587890625</AltitudeMeters>
            <DistanceMeters>NAN</DistanceMeters>
          </Trackpoint>
          <Trackpoint>
            <Time>2022-07-10T09:15:03.000Z</Time>
            <Position>
              <LatitudeDegrees>43.2850969769060611724853515625</LatitudeDegrees>
              <LongitudeDegrees>-2.1398199163377285003662109375</LongitudeDegrees>
            </Position>
            <AltitudeMeters>72.40000152587890625</AltitudeMeters>
            <DistanceMeters>NAN</DistanceMeters>
          </Trackpoint>
          <Trackpoint>
            <Time>2022-07-10T09:15:12.000Z</Time>
            <Position>
              <LatitudeDegrees>43.285132013261318206787109375</LatitudeDegrees>
              <LongitudeDegrees>-2.13999132625758647918701171875</LongitudeDegrees>
            </Position>
            <AltitudeMeters>73.40000152587890625</AltitudeMeters>
            <DistanceMeters>NAN</DistanceMeters>
          </Trackpoint>
          <Trackpoint>
            <Time>2022-07-10T09:15:13.000Z</Time>
            <Position>
              <LatitudeDegrees>43.2851363718509674072265625</LatitudeDegrees>
              <LongitudeDegrees>-2.1400110237300395965576171875</LongitudeDegrees>
            </Position>
            <AltitudeMeters>73.59999847412109375</AltitudeMeters>
            <DistanceMeters>NAN</DistanceMeters>
          </Trackpoint>
          <Trackpoint>
            <Time>2022-07-10T09:15:17.000Z</Time>
            <Position>
              <LatitudeDegrees>43.28515179455280303955078125</LatitudeDegrees>
              <LongitudeDegrees>-2.14008637703955173492431640625</LongitudeDegrees>
            </Position>
            <AltitudeMeters>74</AltitudeMeters>
            <DistanceMeters>NAN</DistanceMeters>
          </Trackpoint>
          <Trackpoint>
            <Time>2022-07-10T09:15:22.000Z</Time>
            <Position>
              <LatitudeDegrees>43.28518406488001346588134765625</LatitudeDegrees>
              <LongitudeDegrees>-2.14021344669163227081298828125</LongitudeDegrees>
            </Position>
            <AltitudeMeters>74.1999969482421875</AltitudeMeters>
            <DistanceMeters>NAN</DistanceMeters>
          </Trackpoint>
          <Trackpoint>
            <Time>2022-07-10T09:15:27.000Z</Time>
            <Position>
              <LatitudeDegrees>43.285266458988189697265625</LatitudeDegrees>
              <LongitudeDegrees>-2.14043975807726383209228515625</LongitudeDegrees>
            </Position>
            <AltitudeMeters>73.8000030517578125</AltitudeMeters>
            <DistanceMeters>NAN</DistanceMeters>
          </Trackpoint>
          <Trackpoint>
            <Time>2022-07-10T09:15:32.000Z</Time>
            <Position>
              <LatitudeDegrees>43.2853739149868488311767578125</LatitudeDegrees>
              <LongitudeDegrees>-2.14070253074169158935546875</LongitudeDegrees>
            </Position>
            <AltitudeMeters>73.40000152587890625</AltitudeMeters>
            <DistanceMeters>NAN</DistanceMeters>
          </Trackpoint>
          <Trackpoint>
            <Time>2022-07-10T09:15:34.000Z</Time>
            <Position>
              <LatitudeDegrees>43.28540861606597900390625</LatitudeDegrees>
              <LongitudeDegrees>-2.140806801617145538330078125</LongitudeDegrees>
            </Position>
            <AltitudeMeters>73.1999969482421875</AltitudeMeters>
            <DistanceMeters>NAN</DistanceMeters>
          </Trackpoint>
          <Trackpoint>
            <Time>2022-07-10T09:15:39.000Z</Time>
            <Position>
              <LatitudeDegrees>43.28548665158450603485107421875</LatitudeDegrees>
              <LongitudeDegrees>-2.14101291261613368988037109375</LongitudeDegrees>
            </Position>
            <AltitudeMeters>73.40000152587890625</AltitudeMeters>
            <DistanceMeters>NAN</DistanceMeters>
          </Trackpoint>
          <Trackpoint>
            <Time>2022-07-10T09:15:46.000Z</Time>
            <Position>
              <LatitudeDegrees>43.2855908386409282684326171875</LatitudeDegrees>
              <LongitudeDegrees>-2.14123553596436977386474609375</LongitudeDegrees>
            </Position>
            <AltitudeMeters>73.59999847412109375</AltitudeMeters>
            <DistanceMeters>NAN</DistanceMeters>
          </Trackpoint>
          <Trackpoint>
            <Time>2022-07-10T09:15:51.000Z</Time>
            <Position>
              <LatitudeDegrees>43.2856575585901737213134765625</LatitudeDegrees>
              <LongitudeDegrees>-2.14135740883648395538330078125</LongitudeDegrees>
            </Position>
            <AltitudeMeters>74</AltitudeMeters>
            <DistanceMeters>NAN</DistanceMeters>
          </Trackpoint>
          <Trackpoint>
            <Time>2022-07-10T09:15:54.000Z</Time>
            <Position>
              <LatitudeDegrees>43.28568555414676666259765625</LatitudeDegrees>
              <LongitudeDegrees>-2.1414158307015895843505859375</LongitudeDegrees>
            </Position>
            <AltitudeMeters>74.1999969482421875</AltitudeMeters>
            <DistanceMeters>NAN</DistanceMeters>
          </Trackpoint>
          <Trackpoint>
            <Time>2022-07-10T09:15:56.000Z</Time>
            <Position>
              <LatitudeDegrees>43.28570810146629810333251953125</LatitudeDegrees>
              <LongitudeDegrees>-2.14145681820809841156005859375</LongitudeDegrees>
            </Position>
            <AltitudeMeters>74.59999847412109375</AltitudeMeters>
            <DistanceMeters>NAN</DistanceMeters>
          </Trackpoint>
          <Trackpoint>
            <Time>2022-07-10T09:16:02.000Z</Time>
            <Position>
              <LatitudeDegrees>43.285752274096012115478515625</LatitudeDegrees>
              <LongitudeDegrees>-2.14155958034098148345947265625</LongitudeDegrees>
            </Position>
            <AltitudeMeters>75.1999969482421875</AltitudeMeters>
            <DistanceMeters>NAN</DistanceMeters>
          </Trackpoint>
          <Trackpoint>
            <Time>2022-07-10T09:16:06.000Z</Time>
            <Position>
              <LatitudeDegrees>43.28576744534075260162353515625</LatitudeDegrees>
              <LongitudeDegrees>-2.1416213549673557281494140625</LongitudeDegrees>
            </Position>
            <AltitudeMeters>75.59999847412109375</AltitudeMeters>
            <DistanceMeters>NAN</DistanceMeters>
          </Trackpoint>
          <Trackpoint>
            <Time>2022-07-10T09:16:10.000Z</Time>
            <Position>
              <LatitudeDegrees>43.28577431850135326385498046875</LatitudeDegrees>
              <LongitudeDegrees>-2.14169419370591640472412109375</LongitudeDegrees>
            </Position>
            <AltitudeMeters>76.40000152587890625</AltitudeMeters>
            <DistanceMeters>NAN</DistanceMeters>
          </Trackpoint>
          <Trackpoint>
            <Time>2022-07-10T09:16:12.000Z</Time>
            <Position>
              <LatitudeDegrees>43.2857762463390827178955078125</LatitudeDegrees>
              <LongitudeDegrees>-2.14173023588955402374267578125</LongitudeDegrees>
            </Position>
            <AltitudeMeters>76.8000030517578125</AltitudeMeters>
            <DistanceMeters>NAN</DistanceMeters>
          </Trackpoint>
          <Trackpoint>
            <Time>2022-07-10T09:16:15.000Z</Time>
            <Position>
              <LatitudeDegrees>43.2857816107571125030517578125</LatitudeDegrees>
              <LongitudeDegrees>-2.1417881548404693603515625</LongitudeDegrees>
            </Position>
            <AltitudeMeters>77.40000152587890625</AltitudeMeters>
            <DistanceMeters>NAN</DistanceMeters>
          </Trackpoint>
          <Trackpoint>
            <Time>2022-07-10T09:16:17.000Z</Time>
            <Position>
              <LatitudeDegrees>43.28578555025160312652587890625</LatitudeDegrees>
              <LongitudeDegrees>-2.14182310737669467926025390625</LongitudeDegrees>
            </Position>
            <AltitudeMeters>78</AltitudeMeters>
            <DistanceMeters>NAN</DistanceMeters>
          </Trackpoint>
          <Trackpoint>
            <Time>2022-07-10T09:16:19.000Z</Time>
            <Position>
              <LatitudeDegrees>43.28579259105026721954345703125</LatitudeDegrees>
              <LongitudeDegrees>-2.1418560482561588287353515625</LongitudeDegrees>
            </Position>
            <AltitudeMeters>78.40000152587890625</AltitudeMeters>
            <DistanceMeters>NAN</DistanceMeters>
          </Trackpoint>
          <Trackpoint>
            <Time>2022-07-10T09:16:22.000Z</Time>
            <Position>
              <LatitudeDegrees>43.28579879365861415863037109375</LatitudeDegrees>
              <LongitudeDegrees>-2.14190072380006313323974609375</LongitudeDegrees>
            </Position>
            <AltitudeMeters>79</AltitudeMeters>
            <DistanceMeters>NAN</DistanceMeters>
          </Trackpoint>
          <Trackpoint>
            <Time>2022-07-10T09:16:27.000Z</Time>
            <Position>
              <LatitudeDegrees>43.28582729212939739227294921875</LatitudeDegrees>
              <LongitudeDegrees>-2.1419901587069034576416015625</LongitudeDegrees>
            </Position>
            <AltitudeMeters>80.1999969482421875</AltitudeMeters>
            <DistanceMeters>NAN</DistanceMeters>
          </Trackpoint>
          <Trackpoint>
            <Time>2022-07-10T09:16:31.000Z</Time>
            <Position>
              <LatitudeDegrees>43.28584740869700908660888671875</LatitudeDegrees>
              <LongitudeDegrees>-2.14204153977334499359130859375</LongitudeDegrees>
            </Position>
            <AltitudeMeters>81.1999969482421875</AltitudeMeters>
            <DistanceMeters>NAN</DistanceMeters>
          </Trackpoint>
          <Trackpoint>
            <Time>2022-07-10T09:16:35.000Z</Time>
            <Position>
              <LatitudeDegrees>43.2858811877667903900146484375</LatitudeDegrees>
              <LongitudeDegrees>-2.14208981953561305999755859375</LongitudeDegrees>
            </Position>
            <AltitudeMeters>82</AltitudeMeters>
            <DistanceMeters>NAN</DistanceMeters>
          </Trackpoint>
          <Trackpoint>
            <Time>2022-07-10T09:16:37.000Z</Time>
            <Position>
              <LatitudeDegrees>43.285900466144084930419921875</LatitudeDegrees>
              <LongitudeDegrees>-2.1421246044337749481201171875</LongitudeDegrees>
            </Position>
            <AltitudeMeters>82.40000152587890625</AltitudeMeters>
            <DistanceMeters>NAN</DistanceMeters>
          </Trackpoint>
          <Trackpoint>
            <Time>2022-07-10T09:16:42.000Z</Time>
            <Position>
              <LatitudeDegrees>43.2859368436038494110107421875</LatitudeDegrees>
              <LongitudeDegrees>-2.14220012538135051727294921875</LongitudeDegrees>
            </Position>
            <AltitudeMeters>83.1999969482421875</AltitudeMeters>
            <DistanceMeters>NAN</DistanceMeters>
          </Trackpoint>
          <Trackpoint>
            <Time>2022-07-10T09:16:43.000Z</Time>
            <Position>
              <LatitudeDegrees>43.2859469018876552581787109375</LatitudeDegrees>
              <LongitudeDegrees>-2.14221320115029811859130859375</LongitudeDegrees>
            </Position>
            <AltitudeMeters>83.40000152587890625</AltitudeMeters>
            <DistanceMeters>NAN</DistanceMeters>
          </Trackpoint>
          <Trackpoint>
            <Time>2022-07-10T09:16:48.000Z</Time>
            <Position>
              <LatitudeDegrees>43.28599023632705211639404296875</LatitudeDegrees>
              <LongitudeDegrees>-2.142276652157306671142578125</LongitudeDegrees>
            </Position>
            <AltitudeMeters>84.40000152587890625</AltitudeMeters>
            <DistanceMeters>NAN</DistanceMeters>
          </Trackpoint>
          <Trackpoint>
            <Time>2022-07-10T09:16:49.000Z</Time>
            <Position>
              <LatitudeDegrees>43.28599962405860424041748046875</LatitudeDegrees>
              <LongitudeDegrees>-2.14228637516498565673828125</LongitudeDegrees>
            </Position>
            <AltitudeMeters>84.59999847412109375</AltitudeMeters>
            <DistanceMeters>NAN</DistanceMeters>
          </Trackpoint>
          <Trackpoint>
            <Time>2022-07-10T09:16:55.000Z</Time>
            <Position>
              <LatitudeDegrees>43.286052681505680084228515625</LatitudeDegrees>
              <LongitudeDegrees>-2.1423747204244136810302734375</LongitudeDegrees>
            </Position>
            <AltitudeMeters>85.59999847412109375</AltitudeMeters>
            <DistanceMeters>NAN</DistanceMeters>
          </Trackpoint>
          <Trackpoint>
            <Time>2022-07-10T09:16:56.000Z</Time>
            <Position>
              <LatitudeDegrees>43.2860625721514225006103515625</LatitudeDegrees>
              <LongitudeDegrees>-2.14239274151623249053955078125</LongitudeDegrees>
            </Position>
            <AltitudeMeters>85.8000030517578125</AltitudeMeters>
            <DistanceMeters>NAN</DistanceMeters>
          </Trackpoint>
          <Trackpoint>
            <Time>2022-07-10T09:17:03.000Z</Time>
            <Position>
              <LatitudeDegrees>43.286118395626544952392578125</LatitudeDegrees>
              <LongitudeDegrees>-2.142498604953289031982421875</LongitudeDegrees>
            </Position>
            <AltitudeMeters>86.59999847412109375</AltitudeMeters>
            <DistanceMeters>NAN</DistanceMeters>
          </Trackpoint>
          <Trackpoint>
            <Time>2022-07-10T09:17:04.000Z</Time>
            <Position>
              <LatitudeDegrees>43.2861262746155261993408203125</LatitudeDegrees>
              <LongitudeDegrees>-2.14251444675028324127197265625</LongitudeDegrees>
            </Position>
            <AltitudeMeters>86.8000030517578125</AltitudeMeters>
            <DistanceMeters>NAN</DistanceMeters>
          </Trackpoint>
          <Trackpoint>
            <Time>2022-07-10T09:17:14.000Z</Time>
            <Position>
              <LatitudeDegrees>43.28622425906360149383544921875</LatitudeDegrees>
              <LongitudeDegrees>-2.14265895076096057891845703125</LongitudeDegrees>
            </Position>
            <AltitudeMeters>87.8000030517578125</AltitudeMeters>
            <DistanceMeters>NAN</DistanceMeters>
          </Trackpoint>
          <Trackpoint>
            <Time>2022-07-10T09:17:16.000Z</Time>
            <Position>
              <LatitudeDegrees>43.2862494885921478271484375</LatitudeDegrees>
              <LongitudeDegrees>-2.142681665718555450439453125</LongitudeDegrees>
            </Position>
            <AltitudeMeters>87.8000030517578125</AltitudeMeters>
            <DistanceMeters>NAN</DistanceMeters>
          </Trackpoint>
          <Trackpoint>
            <Time>2022-07-10T09:17:24.000Z</Time>
            <Position>
              <LatitudeDegrees>43.28632551245391368865966796875</LatitudeDegrees>
              <LongitudeDegrees>-2.142796330153942108154296875</LongitudeDegrees>
            </Position>
            <AltitudeMeters>88.8000030517578125</AltitudeMeters>
            <DistanceMeters>NAN</DistanceMeters>
          </Trackpoint>
          <Trackpoint>
            <Time>2022-07-10T09:17:25.000Z</Time>
            <Position>
              <LatitudeDegrees>43.28633389435708522796630859375</LatitudeDegrees>
              <LongitudeDegrees>-2.142811752855777740478515625</LongitudeDegrees>
            </Position>
            <AltitudeMeters>89</AltitudeMeters>
            <DistanceMeters>NAN</DistanceMeters>
          </Trackpoint>
          <Trackpoint>
            <Time>2022-07-10T09:17:31.000Z</Time>
            <Position>
              <LatitudeDegrees>43.28639826737344264984130859375</LatitudeDegrees>
              <LongitudeDegrees>-2.1428940631449222564697265625</LongitudeDegrees>
            </Position>
            <AltitudeMeters>89.8000030517578125</AltitudeMeters>
            <DistanceMeters>NAN</DistanceMeters>
          </Trackpoint>
          <Trackpoint>
            <Time>2022-07-10T09:17:32.000Z</Time>
            <Position>
              <LatitudeDegrees>43.28640949912369251251220703125</LatitudeDegrees>
              <LongitudeDegrees>-2.1429094858467578887939453125</LongitudeDegrees>
            </Position>
            <AltitudeMeters>89.8000030517578125</AltitudeMeters>
            <DistanceMeters>NAN</DistanceMeters>
          </Trackpoint>
          <Trackpoint>
            <Time>2022-07-10T09:17:38.000Z</Time>
            <Position>
              <LatitudeDegrees>43.28647546470165252685546875</LatitudeDegrees>
              <LongitudeDegrees>-2.14297461323440074920654296875</LongitudeDegrees>
            </Position>
            <AltitudeMeters>90.59999847412109375</AltitudeMeters>
            <DistanceMeters>NAN</DistanceMeters>
          </Trackpoint>
          <Trackpoint>
            <Time>2022-07-10T09:17:41.000Z</Time>
            <Position>
              <LatitudeDegrees>43.2865074835717678070068359375</LatitudeDegrees>
              <LongitudeDegrees>-2.143002189695835113525390625</LongitudeDegrees>
            </Position>
            <AltitudeMeters>91</AltitudeMeters>
            <DistanceMeters>NAN</DistanceMeters>
          </Trackpoint>
          <Trackpoint>
            <Time>2022-07-10T09:17:45.000Z</Time>
            <Position>
              <LatitudeDegrees>43.28654562123119831085205078125</LatitudeDegrees>
              <LongitudeDegrees>-2.14305742643773555755615234375</LongitudeDegrees>
            </Position>
            <AltitudeMeters>91.40000152587890625</AltitudeMeters>
            <DistanceMeters>NAN</DistanceMeters>
          </Trackpoint>
          <Trackpoint>
            <Time>2022-07-10T09:17:46.000Z</Time>
            <Position>
              <LatitudeDegrees>43.2865554280579090118408203125</LatitudeDegrees>
              <LongitudeDegrees>-2.143070586025714874267578125</LongitudeDegrees>
            </Position>
            <AltitudeMeters>91.59999847412109375</AltitudeMeters>
            <DistanceMeters>NAN</DistanceMeters>
          </Trackpoint>
          <Trackpoint>
            <Time>2022-07-10T09:17:48.000Z</Time>
            <Position>
              <LatitudeDegrees>43.286580741405487060546875</LatitudeDegrees>
              <LongitudeDegrees>-2.14309045113623142242431640625</LongitudeDegrees>
            </Position>
            <AltitudeMeters>91.8000030517578125</AltitudeMeters>
            <DistanceMeters>NAN</DistanceMeters>
          </Trackpoint>
          <Trackpoint>
            <Time>2022-07-10T09:17:49.000Z</Time>
            <Position>
              <LatitudeDegrees>43.28659222461283206939697265625</LatitudeDegrees>
              <LongitudeDegrees>-2.143102772533893585205078125</LongitudeDegrees>
            </Position>
            <AltitudeMeters>92</AltitudeMeters>
            <DistanceMeters>NAN</DistanceMeters>
          </Trackpoint>
          <Trackpoint>
            <Time>2022-07-10T09:17:58.000Z</Time>
            <Position>
              <LatitudeDegrees>43.2866999320685863494873046875</LatitudeDegrees>
              <LongitudeDegrees>-2.143226824700832366943359375</LongitudeDegrees>
            </Position>
            <AltitudeMeters>92.8000030517578125</AltitudeMeters>
            <DistanceMeters>NAN</DistanceMeters>
          </Trackpoint>
          <Trackpoint>
            <Time>2022-07-10T09:17:59.000Z</Time>
            <Position>
              <LatitudeDegrees>43.28671376220881938934326171875</LatitudeDegrees>
              <LongitudeDegrees>-2.14324283413589000701904296875</LongitudeDegrees>
            </Position>
            <AltitudeMeters>93</AltitudeMeters>
            <DistanceMeters>NAN</DistanceMeters>
          </Trackpoint>
          <Trackpoint>
            <Time>2022-07-10T09:18:07.000Z</Time>
            <Position>
              <LatitudeDegrees>43.28683580271899700164794921875</LatitudeDegrees>
              <LongitudeDegrees>-2.14334727264940738677978515625</LongitudeDegrees>
            </Position>
            <AltitudeMeters>93.8000030517578125</AltitudeMeters>
            <DistanceMeters>NAN</DistanceMeters>
          </Trackpoint>
          <Trackpoint>
            <Time>2022-07-10T09:18:11.000Z</Time>
            <Position>
              <LatitudeDegrees>43.28689279966056346893310546875</LatitudeDegrees>
              <LongitudeDegrees>-2.1433959715068340301513671875</LongitudeDegrees>
            </Position>
            <AltitudeMeters>94</AltitudeMeters>
            <DistanceMeters>NAN</DistanceMeters>
          </Trackpoint>
          <Trackpoint>
            <Time>2022-07-10T09:18:17.000Z</Time>
            <Position>
              <LatitudeDegrees>43.286979384720325469970703125</LatitudeDegrees>
              <LongitudeDegrees>-2.143461517989635467529296875</LongitudeDegrees>
            </Position>
            <AltitudeMeters>94.59999847412109375</AltitudeMeters>
            <DistanceMeters>NAN</DistanceMeters>
          </Trackpoint>
          <Trackpoint>
            <Time>2022-07-10T09:18:22.000Z</Time>
            <Position>
              <LatitudeDegrees>43.28705172054469585418701171875</LatitudeDegrees>
              <LongitudeDegrees>-2.1435146592557430267333984375</LongitudeDegrees>
            </Position>
            <AltitudeMeters>95</AltitudeMeters>
            <DistanceMeters>NAN</DistanceMeters>
          </Trackpoint>
          <Trackpoint>
            <Time>2022-07-10T09:18:25.000Z</Time>
            <Position>
              <LatitudeDegrees>43.28708742745220661163330078125</LatitudeDegrees>
              <LongitudeDegrees>-2.1435535512864589691162109375</LongitudeDegrees>
            </Position>
            <AltitudeMeters>95.40000152587890625</AltitudeMeters>
            <DistanceMeters>NAN</DistanceMeters>
          </Trackpoint>
          <Trackpoint>
            <Time>2022-07-10T09:18:31.000Z</Time>
            <Position>
              <LatitudeDegrees>43.28714442439377307891845703125</LatitudeDegrees>
              <LongitudeDegrees>-2.14363359846174716949462890625</LongitudeDegrees>
            </Position>
            <AltitudeMeters>96.1999969482421875</AltitudeMeters>
            <DistanceMeters>NAN</DistanceMeters>
          </Trackpoint>
          <Trackpoint>
            <Time>2022-07-10T09:18:33.000Z</Time>
            <Position>
              <LatitudeDegrees>43.287161774933338165283203125</LatitudeDegrees>
              <LongitudeDegrees>-2.14365891180932521820068359375</LongitudeDegrees>
            </Position>
            <AltitudeMeters>96.40000152587890625</AltitudeMeters>
            <DistanceMeters>NAN</DistanceMeters>
          </Trackpoint>
          <Trackpoint>
            <Time>2022-07-10T09:18:37.000Z</Time>
            <Position>
              <LatitudeDegrees>43.287188597023487091064453125</LatitudeDegrees>
              <LongitudeDegrees>-2.1437292359769344329833984375</LongitudeDegrees>
            </Position>
            <AltitudeMeters>96.8000030517578125</AltitudeMeters>
            <DistanceMeters>NAN</DistanceMeters>
          </Trackpoint>
          <Trackpoint>
            <Time>2022-07-10T09:18:40.000Z</Time>
            <Position>
              <LatitudeDegrees>43.28720795921981334686279296875</LatitudeDegrees>
              <LongitudeDegrees>-2.143784053623676300048828125</LongitudeDegrees>
            </Position>
            <AltitudeMeters>97.1999969482421875</AltitudeMeters>
            <DistanceMeters>NAN</DistanceMeters>
          </Trackpoint>
          <Trackpoint>
            <Time>2022-07-10T09:18:41.000Z</Time>
            <Position>
              <LatitudeDegrees>43.2872097194194793701171875</LatitudeDegrees>
              <LongitudeDegrees>-2.14380492456257343292236328125</LongitudeDegrees>
            </Position>
            <AltitudeMeters>97.1999969482421875</AltitudeMeters>
            <DistanceMeters>NAN</DistanceMeters>
          </Trackpoint>
          <Trackpoint>
            <Time>2022-07-10T09:18:42.000Z</Time>
            <Position>
              <LatitudeDegrees>43.2872129045426845550537109375</LatitudeDegrees>
              <LongitudeDegrees>-2.14382923208177089691162109375</LongitudeDegrees>
            </Position>
            <AltitudeMeters>97.40000152587890625</AltitudeMeters>
            <DistanceMeters>NAN</DistanceMeters>
          </Trackpoint>
          <Trackpoint>
            <Time>2022-07-10T09:18:44.000Z</Time>
            <Position>
              <LatitudeDegrees>43.28722137026488780975341796875</LatitudeDegrees>
              <LongitudeDegrees>-2.143873907625675201416015625</LongitudeDegrees>
            </Position>
            <AltitudeMeters>97.59999847412109375</AltitudeMeters>
            <DistanceMeters>NAN</DistanceMeters>
          </Trackpoint>
          <Trackpoint>
            <Time>2022-07-10T09:18:50.000Z</Time>
            <Position>
              <LatitudeDegrees>43.287251293659210205078125</LatitudeDegrees>
              <LongitudeDegrees>-2.14397708885371685028076171875</LongitudeDegrees>
            </Position>
            <AltitudeMeters>98.1999969482421875</AltitudeMeters>
            <DistanceMeters>NAN</DistanceMeters>
          </Trackpoint>
          <Trackpoint>
            <Time>2022-07-10T09:18:51.000Z</Time>
            <Position>
              <LatitudeDegrees>43.2872528024017810821533203125</LatitudeDegrees>
              <LongitudeDegrees>-2.14399452321231365203857421875</LongitudeDegrees>
            </Position>
            <AltitudeMeters>98.1999969482421875</AltitudeMeters>
            <DistanceMeters>NAN</DistanceMeters>
          </Trackpoint>
          <Trackpoint>
            <Time>2022-07-10T09:18:57.000Z</Time>
            <Position>
              <LatitudeDegrees>43.28725724481046199798583984375</LatitudeDegrees>
              <LongitudeDegrees>-2.14409996755421161651611328125</LongitudeDegrees>
            </Position>
            <AltitudeMeters>99</AltitudeMeters>
            <DistanceMeters>NAN</DistanceMeters>
          </Trackpoint>
          <Trackpoint>
            <Time>2022-07-10T09:18:59.000Z</Time>
            <Position>
              <LatitudeDegrees>43.28725422732532024383544921875</LatitudeDegrees>
              <LongitudeDegrees>-2.14413567446172237396240234375</LongitudeDegrees>
            </Position>
            <AltitudeMeters>99.1999969482421875</AltitudeMeters>
            <DistanceMeters>NAN</DistanceMeters>
          </Trackpoint>
          <Trackpoint>
            <Time>2022-07-10T09:19:01.000Z</Time>
            <Position>
              <LatitudeDegrees>43.28724349848926067352294921875</LatitudeDegrees>
              <LongitudeDegrees>-2.14416651986539363861083984375</LongitudeDegrees>
            </Position>
            <AltitudeMeters>99.40000152587890625</AltitudeMeters>
            <DistanceMeters>NAN</DistanceMeters>
          </Trackpoint>
          <Trackpoint>
            <Time>2022-07-10T09:19:03.000Z</Time>
            <Position>
              <LatitudeDegrees>43.28723075799643993377685546875</LatitudeDegrees>
              <LongitudeDegrees>-2.14419401250779628753662109375</LongitudeDegrees>
            </Position>
            <AltitudeMeters>99.59999847412109375</AltitudeMeters>
            <DistanceMeters>NAN</DistanceMeters>
          </Trackpoint>
          <Trackpoint>
            <Time>2022-07-10T09:19:10.000Z</Time>
            <Position>
              <LatitudeDegrees>43.28719974495470523834228515625</LatitudeDegrees>
              <LongitudeDegrees>-2.14431437663733959197998046875</LongitudeDegrees>
            </Position>
            <AltitudeMeters>100.40000152587890625</AltitudeMeters>
            <DistanceMeters>NAN</DistanceMeters>
          </Trackpoint>
          <Trackpoint>
            <Time>2022-07-10T09:19:11.000Z</Time>
            <Position>
              <LatitudeDegrees>43.28719337470829486846923828125</LatitudeDegrees>
              <LongitudeDegrees>-2.14433767832815647125244140625</LongitudeDegrees>
            </Position>
            <AltitudeMeters>100.59999847412109375</AltitudeMeters>
            <DistanceMeters>NAN</DistanceMeters>
          </Trackpoint>
          <Trackpoint>
            <Time>2022-07-10T09:19:17.000Z</Time>
            <Position>
              <LatitudeDegrees>43.287198655307292938232421875</LatitudeDegrees>
              <LongitudeDegrees>-2.1444470621645450592041015625</LongitudeDegrees>
            </Position>
            <AltitudeMeters>101.59999847412109375</AltitudeMeters>
            <DistanceMeters>NAN</DistanceMeters>
          </Trackpoint>
          <Trackpoint>
            <Time>2022-07-10T09:19:18.000Z</Time>
            <Position>
              <LatitudeDegrees>43.2872035168111324310302734375</LatitudeDegrees>
              <LongitudeDegrees>-2.14446558617055416107177734375</LongitudeDegrees>
            </Position>
            <AltitudeMeters>101.8000030517578125</AltitudeMeters>
            <DistanceMeters>NAN</DistanceMeters>
          </Trackpoint>
          <Trackpoint>
            <Time>2022-07-10T09:19:26.000Z</Time>
            <Position>
              <LatitudeDegrees>43.28725623898208141326904296875</LatitudeDegrees>
              <LongitudeDegrees>-2.14459349401295185089111328125</LongitudeDegrees>
            </Position>
            <AltitudeMeters>102.8000030517578125</AltitudeMeters>
            <DistanceMeters>NAN</DistanceMeters>
          </Trackpoint>
          <Trackpoint>
            <Time>2022-07-10T09:19:28.000Z</Time>
            <Position>
              <LatitudeDegrees>43.287279121577739715576171875</LatitudeDegrees>
              <LongitudeDegrees>-2.14462467469274997711181640625</LongitudeDegrees>
            </Position>
            <AltitudeMeters>103</AltitudeMeters>
            <DistanceMeters>NAN</DistanceMeters>
          </Trackpoint>
          <Trackpoint>
            <Time>2022-07-10T09:19:34.000Z</Time>
            <Position>
              <LatitudeDegrees>43.2873258925974369049072265625</LatitudeDegrees>
              <LongitudeDegrees>-2.14471754617989063262939453125</LongitudeDegrees>
            </Position>
            <AltitudeMeters>103.40000152587890625</AltitudeMeters>
            <DistanceMeters>NAN</DistanceMeters>
          </Trackpoint>
          <Trackpoint>
            <Time>2022-07-10T09:19:37.000Z</Time>
            <Position>
              <LatitudeDegrees>43.28734944574534893035888671875</LatitudeDegrees>
              <LongitudeDegrees>-2.144766747951507568359375</LongitudeDegrees>
            </Position>
            <AltitudeMeters>103.8000030517578125</AltitudeMeters>
            <DistanceMeters>NAN</DistanceMeters>
          </Trackpoint>
          <Trackpoint>
            <Time>2022-07-10T09:19:40.000Z</Time>
            <Position>
              <LatitudeDegrees>43.28737274743616580963134765625</LatitudeDegrees>
              <LongitudeDegrees>-2.14481326751410961151123046875</LongitudeDegrees>
            </Position>
            <AltitudeMeters>104.1999969482421875</AltitudeMeters>
            <DistanceMeters>NAN</DistanceMeters>
          </Trackpoint>
          <Trackpoint>
            <Time>2022-07-10T09:19:44.000Z</Time>
            <Position>
              <LatitudeDegrees>43.28740493394434452056884765625</LatitudeDegrees>
              <LongitudeDegrees>-2.144870348274707794189453125</LongitudeDegrees>
            </Position>
            <AltitudeMeters>104.40000152587890625</AltitudeMeters>
            <DistanceMeters>NAN</DistanceMeters>
          </Trackpoint>
          <Trackpoint>
            <Time>2022-07-10T09:19:51.000Z</Time>
            <Position>
              <LatitudeDegrees>43.28747785650193691253662109375</LatitudeDegrees>
              <LongitudeDegrees>-2.14497663080692291259765625</LongitudeDegrees>
            </Position>
            <AltitudeMeters>104.8000030517578125</AltitudeMeters>
            <DistanceMeters>NAN</DistanceMeters>
          </Trackpoint>
          <Trackpoint>
            <Time>2022-07-10T09:19:52.000Z</Time>
            <Position>
              <LatitudeDegrees>43.28748506493866443634033203125</LatitudeDegrees>
              <LongitudeDegrees>-2.1449881978332996368408203125</LongitudeDegrees>
            </Position>
            <AltitudeMeters>105</AltitudeMeters>
            <DistanceMeters>NAN</DistanceMeters>
          </Trackpoint>
          <Trackpoint>
            <Time>2022-07-10T09:19:55.000Z</Time>
            <Position>
              <LatitudeDegrees>43.2875169999897480010986328125</LatitudeDegrees>
              <LongitudeDegrees>-2.14502817951142787933349609375</LongitudeDegrees>
            </Position>
            <AltitudeMeters>105.1999969482421875</AltitudeMeters>
            <DistanceMeters>NAN</DistanceMeters>
          </Trackpoint>
          <Trackpoint>
            <Time>2022-07-10T09:19:59.000Z</Time>
            <Position>
              <LatitudeDegrees>43.2875558920204639434814453125</LatitudeDegrees>
              <LongitudeDegrees>-2.145075537264347076416015625</LongitudeDegrees>
            </Position>
            <AltitudeMeters>105.8000030517578125</AltitudeMeters>
            <DistanceMeters>NAN</DistanceMeters>
          </Trackpoint>
          <Trackpoint>
            <Time>2022-07-10T09:20:01.000Z</Time>
            <Position>
              <LatitudeDegrees>43.28757424838840961456298828125</LatitudeDegrees>
              <LongitudeDegrees>-2.145092301070690155029296875</LongitudeDegrees>
            </Position>
            <AltitudeMeters>106</AltitudeMeters>
            <DistanceMeters>NAN</DistanceMeters>
          </Trackpoint>
          <Trackpoint>
            <Time>2022-07-10T09:20:05.000Z</Time>
            <Position>
              <LatitudeDegrees>43.28761464916169643402099609375</LatitudeDegrees>
              <LongitudeDegrees>-2.1451275050640106201171875</LongitudeDegrees>
            </Position>
            <AltitudeMeters>106.59999847412109375</AltitudeMeters>
            <DistanceMeters>NAN</DistanceMeters>
          </Trackpoint>
          <Trackpoint>
            <Time>2022-07-10T09:20:09.000Z</Time>
            <Position>
              <LatitudeDegrees>43.28765806742012500762939453125</LatitudeDegrees>
              <LongitudeDegrees>-2.14514032937586307525634765625</LongitudeDegrees>
            </Position>
            <AltitudeMeters>107.1999969482421875</AltitudeMeters>
            <DistanceMeters>NAN</DistanceMeters>
          </Trackpoint>
          <Trackpoint>
            <Time>2022-07-10T09:20:12.000Z</Time>
            <Position>
              <LatitudeDegrees>43.28768706880509853363037109375</LatitudeDegrees>
              <LongitudeDegrees>-2.145145274698734283447265625</LongitudeDegrees>
            </Position>
            <AltitudeMeters>107.8000030517578125</AltitudeMeters>
            <DistanceMeters>NAN</DistanceMeters>
          </Trackpoint>
          <Trackpoint>
            <Time>2022-07-10T09:20:13.000Z</Time>
            <Position>
              <LatitudeDegrees>43.28769880346953868865966796875</LatitudeDegrees>
              <LongitudeDegrees>-2.14515038765966892242431640625</LongitudeDegrees>
            </Position>
            <AltitudeMeters>108</AltitudeMeters>
            <DistanceMeters>NAN</DistanceMeters>
          </Trackpoint>
          <Trackpoint>
            <Time>2022-07-10T09:20:15.000Z</Time>
            <Position>
              <LatitudeDegrees>43.2877191714942455291748046875</LatitudeDegrees>
              <LongitudeDegrees>-2.145158015191555023193359375</LongitudeDegrees>
            </Position>
            <AltitudeMeters>108.40000152587890625</AltitudeMeters>
            <DistanceMeters>NAN</DistanceMeters>
          </Trackpoint>
          <Trackpoint>
            <Time>2022-07-10T09:20:17.000Z</Time>
            <Position>
              <LatitudeDegrees>43.28773853369057178497314453125</LatitudeDegrees>
              <LongitudeDegrees>-2.14513781480491161346435546875</LongitudeDegrees>
            </Position>
            <AltitudeMeters>108.40000152587890625</AltitudeMeters>
            <DistanceMeters>NAN</DistanceMeters>
          </Trackpoint>
          <Trackpoint>
            <Time>2022-07-10T09:20:20.000Z</Time>
            <Position>
              <LatitudeDegrees>43.2877687923610210418701171875</LatitudeDegrees>
              <LongitudeDegrees>-2.145126163959503173828125</LongitudeDegrees>
            </Position>
            <AltitudeMeters>109</AltitudeMeters>
            <DistanceMeters>NAN</DistanceMeters>
          </Trackpoint>
          <Trackpoint>
            <Time>2022-07-10T09:20:21.000Z</Time>
            <Position>
              <LatitudeDegrees>43.28778211958706378936767578125</LatitudeDegrees>
              <LongitudeDegrees>-2.145126163959503173828125</LongitudeDegrees>
            </Position>
            <AltitudeMeters>109.1999969482421875</AltitudeMeters>
            <DistanceMeters>NAN</DistanceMeters>
          </Trackpoint>
          <Trackpoint>
            <Time>2022-07-10T09:20:22.000Z</Time>
            <Position>
              <LatitudeDegrees>43.2877971231937408447265625</LatitudeDegrees>
              <LongitudeDegrees>-2.1451259963214397430419921875</LongitudeDegrees>
            </Position>
            <AltitudeMeters>109.40000152587890625</AltitudeMeters>
            <DistanceMeters>NAN</DistanceMeters>
          </Trackpoint>
          <Trackpoint>
            <Time>2022-07-10T09:20:28.000Z</Time>
            <Position>
              <LatitudeDegrees>43.287858478724956512451171875</LatitudeDegrees>
              <LongitudeDegrees>-2.14517536573112010955810546875</LongitudeDegrees>
            </Position>
            <AltitudeMeters>110.1999969482421875</AltitudeMeters>
            <DistanceMeters>NAN</DistanceMeters>
          </Trackpoint>
          <Trackpoint>
            <Time>2022-07-10T09:20:31.000Z</Time>
            <Position>
              <LatitudeDegrees>43.287885971367359161376953125</LatitudeDegrees>
              <LongitudeDegrees>-2.14520738460123538970947265625</LongitudeDegrees>
            </Position>
            <AltitudeMeters>110.40000152587890625</AltitudeMeters>
            <DistanceMeters>NAN</DistanceMeters>
          </Trackpoint>
          <Trackpoint>
            <Time>2022-07-10T09:20:32.000Z</Time>
            <Position>
              <LatitudeDegrees>43.28789678402245044708251953125</LatitudeDegrees>
              <LongitudeDegrees>-2.1452215500175952911376953125</LongitudeDegrees>
            </Position>
            <AltitudeMeters>110.40000152587890625</AltitudeMeters>
            <DistanceMeters>NAN</DistanceMeters>
          </Trackpoint>
          <Trackpoint>
            <Time>2022-07-10T09:20:35.000Z</Time>
            <Position>
              <LatitudeDegrees>43.28793433494865894317626953125</LatitudeDegrees>
              <LongitudeDegrees>-2.14525029994547367095947265625</LongitudeDegrees>
            </Position>
            <AltitudeMeters>111</AltitudeMeters>
            <DistanceMeters>NAN</DistanceMeters>
          </Trackpoint>
          <Trackpoint>
            <Time>2022-07-10T09:20:38.000Z</Time>
            <Position>
              <LatitudeDegrees>43.2879753224551677703857421875</LatitudeDegrees>
              <LongitudeDegrees>-2.1452899463474750518798828125</LongitudeDegrees>
            </Position>
            <AltitudeMeters>111.40000152587890625</AltitudeMeters>
            <DistanceMeters>NAN</DistanceMeters>
          </Trackpoint>
          <Trackpoint>
            <Time>2022-07-10T09:20:39.000Z</Time>
            <Position>
              <LatitudeDegrees>43.287986218929290771484375</LatitudeDegrees>
              <LongitudeDegrees>-2.14530679397284984588623046875</LongitudeDegrees>
            </Position>
            <AltitudeMeters>111.40000152587890625</AltitudeMeters>
            <DistanceMeters>NAN</DistanceMeters>
          </Trackpoint>
          <Trackpoint>
            <Time>2022-07-10T09:20:40.000Z</Time>
            <Position>
              <LatitudeDegrees>43.287997283041477203369140625</LatitudeDegrees>
              <LongitudeDegrees>-2.14531718753278255462646484375</LongitudeDegrees>
            </Position>
            <AltitudeMeters>111.8000030517578125</AltitudeMeters>
            <DistanceMeters>NAN</DistanceMeters>
          </Trackpoint>
          <Trackpoint>
            <Time>2022-07-10T09:20:43.000Z</Time>
            <Position>
              <LatitudeDegrees>43.2880229316651821136474609375</LatitudeDegrees>
              <LongitudeDegrees>-2.14534535072743892669677734375</LongitudeDegrees>
            </Position>
            <AltitudeMeters>112</AltitudeMeters>
            <DistanceMeters>NAN</DistanceMeters>
          </Trackpoint>
          <Trackpoint>
            <Time>2022-07-10T09:20:46.000Z</Time>
            <Position>
              <LatitudeDegrees>43.28805168159306049346923828125</LatitudeDegrees>
              <LongitudeDegrees>-2.1453855000436305999755859375</LongitudeDegrees>
            </Position>
            <AltitudeMeters>112.59999847412109375</AltitudeMeters>
            <DistanceMeters>NAN</DistanceMeters>
          </Trackpoint>
          <Trackpoint>
            <Time>2022-07-10T09:20:51.000Z</Time>
            <Position>
              <LatitudeDegrees>43.2880792580544948577880859375</LatitudeDegrees>
              <LongitudeDegrees>-2.1454632841050624847412109375</LongitudeDegrees>
            </Position>
            <AltitudeMeters>113.1999969482421875</AltitudeMeters>
            <DistanceMeters>NAN</DistanceMeters>
          </Trackpoint>
          <Trackpoint>
            <Time>2022-07-10T09:20:55.000Z</Time>
            <Position>
              <LatitudeDegrees>43.288087137043476104736328125</LatitudeDegrees>
              <LongitudeDegrees>-2.14551432989537715911865234375</LongitudeDegrees>
            </Position>
            <AltitudeMeters>113.8000030517578125</AltitudeMeters>
            <DistanceMeters>NAN</DistanceMeters>
          </Trackpoint>
          <Trackpoint>
            <Time>2022-07-10T09:21:00.000Z</Time>
            <Position>
              <LatitudeDegrees>43.28808789141476154327392578125</LatitudeDegrees>
              <LongitudeDegrees>-2.1455893479287624359130859375</LongitudeDegrees>
            </Position>
            <AltitudeMeters>114.8000030517578125</AltitudeMeters>
            <DistanceMeters>NAN</DistanceMeters>
          </Trackpoint>
          <Trackpoint>
            <Time>2022-07-10T09:21:03.000Z</Time>
            <Position>
              <LatitudeDegrees>43.28806878067553043365478515625</LatitudeDegrees>
              <LongitudeDegrees>-2.145638130605220794677734375</LongitudeDegrees>
            </Position>
            <AltitudeMeters>115.1999969482421875</AltitudeMeters>
            <DistanceMeters>NAN</DistanceMeters>
          </Trackpoint>
          <Trackpoint>
            <Time>2022-07-10T09:21:06.000Z</Time>
            <Position>
              <LatitudeDegrees>43.2880366779863834381103515625</LatitudeDegrees>
              <LongitudeDegrees>-2.14567811228334903717041015625</LongitudeDegrees>
            </Position>
            <AltitudeMeters>115.8000030517578125</AltitudeMeters>
            <DistanceMeters>NAN</DistanceMeters>
          </Trackpoint>
          <Trackpoint>
            <Time>2022-07-10T09:21:07.000Z</Time>
            <Position>
              <LatitudeDegrees>43.28802888281643390655517578125</LatitudeDegrees>
              <LongitudeDegrees>-2.14569068513810634613037109375</LongitudeDegrees>
            </Position>
            <AltitudeMeters>116</AltitudeMeters>
            <DistanceMeters>NAN</DistanceMeters>
          </Trackpoint>
          <Trackpoint>
            <Time>2022-07-10T09:21:11.000Z</Time>
            <Position>
              <LatitudeDegrees>43.2879961095750331878662109375</LatitudeDegrees>
              <LongitudeDegrees>-2.1457363665103912353515625</LongitudeDegrees>
            </Position>
            <AltitudeMeters>117</AltitudeMeters>
            <DistanceMeters>NAN</DistanceMeters>
          </Trackpoint>
          <Trackpoint>
            <Time>2022-07-10T09:21:14.000Z</Time>
            <Position>
              <LatitudeDegrees>43.2879696227610111236572265625</LatitudeDegrees>
              <LongitudeDegrees>-2.14577986858785152435302734375</LongitudeDegrees>
            </Position>
            <AltitudeMeters>117.8000030517578125</AltitudeMeters>
            <DistanceMeters>NAN</DistanceMeters>
          </Trackpoint>
          <Trackpoint>
            <Time>2022-07-10T09:21:15.000Z</Time>
            <Position>
              <LatitudeDegrees>43.287958391010761260986328125</LatitudeDegrees>
              <LongitudeDegrees>-2.14579327963292598724365234375</LongitudeDegrees>
            </Position>
            <AltitudeMeters>117.8000030517578125</AltitudeMeters>
            <DistanceMeters>NAN</DistanceMeters>
          </Trackpoint>
          <Trackpoint>
            <Time>2022-07-10T09:21:16.000Z</Time>
            <Position>
              <LatitudeDegrees>43.28794556669890880584716796875</LatitudeDegrees>
              <LongitudeDegrees>-2.14580216445028781890869140625</LongitudeDegrees>
            </Position>
            <AltitudeMeters>118</AltitudeMeters>
            <DistanceMeters>NAN</DistanceMeters>
          </Trackpoint>
          <Trackpoint>
            <Time>2022-07-10T09:21:21.000Z</Time>
            <Position>
              <LatitudeDegrees>43.28789209015667438507080078125</LatitudeDegrees>
              <LongitudeDegrees>-2.14583694934844970703125</LongitudeDegrees>
            </Position>
            <AltitudeMeters>119.1999969482421875</AltitudeMeters>
            <DistanceMeters>NAN</DistanceMeters>
          </Trackpoint>
          <Trackpoint>
            <Time>2022-07-10T09:21:23.000Z</Time>
            <Position>
              <LatitudeDegrees>43.28787557780742645263671875</LatitudeDegrees>
              <LongitudeDegrees>-2.14585413224995136260986328125</LongitudeDegrees>
            </Position>
            <AltitudeMeters>119.40000152587890625</AltitudeMeters>
            <DistanceMeters>NAN</DistanceMeters>
          </Trackpoint>
          <Trackpoint>
            <Time>2022-07-10T09:21:26.000Z</Time>
            <Position>
              <LatitudeDegrees>43.28784682787954807281494140625</LatitudeDegrees>
              <LongitudeDegrees>-2.14589587412774562835693359375</LongitudeDegrees>
            </Position>
            <AltitudeMeters>120.1999969482421875</AltitudeMeters>
            <DistanceMeters>NAN</DistanceMeters>
          </Trackpoint>
          <Trackpoint>
            <Time>2022-07-10T09:21:31.000Z</Time>
            <Position>
              <LatitudeDegrees>43.28780089505016803741455078125</LatitudeDegrees>
              <LongitudeDegrees>-2.145933844149112701416015625</LongitudeDegrees>
            </Position>
            <AltitudeMeters>121</AltitudeMeters>
            <DistanceMeters>NAN</DistanceMeters>
          </Trackpoint>
          <Trackpoint>
            <Time>2022-07-10T09:21:33.000Z</Time>
            <Position>
              <LatitudeDegrees>43.287775330245494842529296875</LatitudeDegrees>
              <LongitudeDegrees>-2.14594423770904541015625</LongitudeDegrees>
            </Position>
            <AltitudeMeters>121.40000152587890625</AltitudeMeters>
            <DistanceMeters>NAN</DistanceMeters>
          </Trackpoint>
          <Trackpoint>
            <Time>2022-07-10T09:21:38.000Z</Time>
            <Position>
              <LatitudeDegrees>43.2877185009419918060302734375</LatitudeDegrees>
              <LongitudeDegrees>-2.1459983848035335540771484375</LongitudeDegrees>
            </Position>
            <AltitudeMeters>122.1999969482421875</AltitudeMeters>
            <DistanceMeters>NAN</DistanceMeters>
          </Trackpoint>
          <Trackpoint>
            <Time>2022-07-10T09:21:40.000Z</Time>
            <Position>
              <LatitudeDegrees>43.28770081512629985809326171875</LatitudeDegrees>
              <LongitudeDegrees>-2.14602001011371612548828125</LongitudeDegrees>
            </Position>
            <AltitudeMeters>122.59999847412109375</AltitudeMeters>
            <DistanceMeters>NAN</DistanceMeters>
          </Trackpoint>
          <Trackpoint>
            <Time>2022-07-10T09:21:44.000Z</Time>
            <Position>
              <LatitudeDegrees>43.28766745515167713165283203125</LatitudeDegrees>
              <LongitudeDegrees>-2.14608228765428066253662109375</LongitudeDegrees>
            </Position>
            <AltitudeMeters>123.1999969482421875</AltitudeMeters>
            <DistanceMeters>NAN</DistanceMeters>
          </Trackpoint>
          <Trackpoint>
            <Time>2022-07-10T09:21:48.000Z</Time>
            <Position>
              <LatitudeDegrees>43.287632167339324951171875</LatitudeDegrees>
              <LongitudeDegrees>-2.1461432240903377532958984375</LongitudeDegrees>
            </Position>
            <AltitudeMeters>123.59999847412109375</AltitudeMeters>
            <DistanceMeters>NAN</DistanceMeters>
          </Trackpoint>
          <Trackpoint>
            <Time>2022-07-10T09:21:50.000Z</Time>
            <Position>
              <LatitudeDegrees>43.2876239530742168426513671875</LatitudeDegrees>
              <LongitudeDegrees>-2.14617733843624591827392578125</LongitudeDegrees>
            </Position>
            <AltitudeMeters>124</AltitudeMeters>
            <DistanceMeters>NAN</DistanceMeters>
          </Trackpoint>
          <Trackpoint>
            <Time>2022-07-10T09:21:52.000Z</Time>
            <Position>
              <LatitudeDegrees>43.2876135595142841339111328125</LatitudeDegrees>
              <LongitudeDegrees>-2.14621338061988353729248046875</LongitudeDegrees>
            </Position>
            <AltitudeMeters>124.1999969482421875</AltitudeMeters>
            <DistanceMeters>NAN</DistanceMeters>
          </Trackpoint>
          <Trackpoint>
            <Time>2022-07-10T09:21:57.000Z</Time>
            <Position>
              <LatitudeDegrees>43.28758053481578826904296875</LatitudeDegrees>
              <LongitudeDegrees>-2.14630306698381900787353515625</LongitudeDegrees>
            </Position>
            <AltitudeMeters>125</AltitudeMeters>
            <DistanceMeters>NAN</DistanceMeters>
          </Trackpoint>
          <Trackpoint>
            <Time>2022-07-10T09:21:59.000Z</Time>
            <Position>
              <LatitudeDegrees>43.28756921924650669097900390625</LatitudeDegrees>
              <LongitudeDegrees>-2.14633575640618801116943359375</LongitudeDegrees>
            </Position>
            <AltitudeMeters>125.1999969482421875</AltitudeMeters>
            <DistanceMeters>NAN</DistanceMeters>
          </Trackpoint>
          <Trackpoint>
            <Time>2022-07-10T09:22:00.000Z</Time>
            <Position>
              <LatitudeDegrees>43.28756519593298435211181640625</LatitudeDegrees>
              <LongitudeDegrees>-2.14635000564157962799072265625</LongitudeDegrees>
            </Position>
            <AltitudeMeters>125.1999969482421875</AltitudeMeters>
            <DistanceMeters>NAN</DistanceMeters>
          </Trackpoint>
          <Trackpoint>
            <Time>2022-07-10T09:22:02.000Z</Time>
            <Position>
              <LatitudeDegrees>43.287553377449512481689453125</LatitudeDegrees>
              <LongitudeDegrees>-2.1463789232075214385986328125</LongitudeDegrees>
            </Position>
            <AltitudeMeters>125.1999969482421875</AltitudeMeters>
            <DistanceMeters>NAN</DistanceMeters>
          </Trackpoint>
          <Trackpoint>
            <Time>2022-07-10T09:22:04.000Z</Time>
            <Position>
              <LatitudeDegrees>43.287557065486907958984375</LatitudeDegrees>
              <LongitudeDegrees>-2.146426029503345489501953125</LongitudeDegrees>
            </Position>
            <AltitudeMeters>125.40000152587890625</AltitudeMeters>
            <DistanceMeters>NAN</DistanceMeters>
          </Trackpoint>
          <Trackpoint>
            <Time>2022-07-10T09:22:06.000Z</Time>
            <Position>
              <LatitudeDegrees>43.28756687231361865997314453125</LatitudeDegrees>
              <LongitudeDegrees>-2.14646534062922000885009765625</LongitudeDegrees>
            </Position>
            <AltitudeMeters>125.40000152587890625</AltitudeMeters>
            <DistanceMeters>NAN</DistanceMeters>
          </Trackpoint>
          <Trackpoint>
            <Time>2022-07-10T09:22:07.000Z</Time>
            <Position>
              <LatitudeDegrees>43.28757626004517078399658203125</LatitudeDegrees>
              <LongitudeDegrees>-2.14646928012371063232421875</LongitudeDegrees>
            </Position>
            <AltitudeMeters>125.40000152587890625</AltitudeMeters>
            <DistanceMeters>NAN</DistanceMeters>
          </Trackpoint>
          <Trackpoint>
            <Time>2022-07-10T09:22:10.000Z</Time>
            <Position>
              <LatitudeDegrees>43.28758749179542064666748046875</LatitudeDegrees>
              <LongitudeDegrees>-2.1464620716869831085205078125</LongitudeDegrees>
            </Position>
            <AltitudeMeters>125.40000152587890625</AltitudeMeters>
            <DistanceMeters>NAN</DistanceMeters>
          </Trackpoint>
          <Trackpoint>
            <Time>2022-07-10T09:22:11.000Z</Time>
            <Position>
              <LatitudeDegrees>43.28758749179542064666748046875</LatitudeDegrees>
              <LongitudeDegrees>-2.1464620716869831085205078125</LongitudeDegrees>
            </Position>
            <AltitudeMeters>125.40000152587890625</AltitudeMeters>
            <DistanceMeters>NAN</DistanceMeters>
          </Trackpoint>
          <Trackpoint>
            <Time>2022-07-10T09:25:20.000Z</Time>
            <Position>
              <LatitudeDegrees>43.28759050928056240081787109375</LatitudeDegrees>
              <LongitudeDegrees>-2.1465946733951568603515625</LongitudeDegrees>
            </Position>
            <AltitudeMeters>127.59999847412109375</AltitudeMeters>
            <DistanceMeters>NAN</DistanceMeters>
          </Trackpoint>
          <Trackpoint>
            <Time>2022-07-10T09:25:21.000Z</Time>
            <Position>
              <LatitudeDegrees>43.28758279792964458465576171875</LatitudeDegrees>
              <LongitudeDegrees>-2.146620489656925201416015625</LongitudeDegrees>
            </Position>
            <AltitudeMeters>127.8000030517578125</AltitudeMeters>
            <DistanceMeters>NAN</DistanceMeters>
          </Trackpoint>
          <Trackpoint>
            <Time>2022-07-10T09:25:22.000Z</Time>
            <Position>
              <LatitudeDegrees>43.28756905160844326019287109375</LatitudeDegrees>
              <LongitudeDegrees>-2.146647311747074127197265625</LongitudeDegrees>
            </Position>
            <AltitudeMeters>127.8000030517578125</AltitudeMeters>
            <DistanceMeters>NAN</DistanceMeters>
          </Trackpoint>
          <Trackpoint>
            <Time>2022-07-10T09:25:26.000Z</Time>
            <Position>
              <LatitudeDegrees>43.287458159029483795166015625</LatitudeDegrees>
              <LongitudeDegrees>-2.14672367088496685028076171875</LongitudeDegrees>
            </Position>
            <AltitudeMeters>127.40000152587890625</AltitudeMeters>
            <DistanceMeters>NAN</DistanceMeters>
          </Trackpoint>
          <Trackpoint>
            <Time>2022-07-10T09:25:31.000Z</Time>
            <Position>
              <LatitudeDegrees>43.28726814128458499908447265625</LatitudeDegrees>
              <LongitudeDegrees>-2.1468623913824558258056640625</LongitudeDegrees>
            </Position>
            <AltitudeMeters>126.8000030517578125</AltitudeMeters>
            <DistanceMeters>NAN</DistanceMeters>
          </Trackpoint>
          <Trackpoint>
            <Time>2022-07-10T09:25:32.000Z</Time>
            <Position>
              <LatitudeDegrees>43.287240900099277496337890625</LatitudeDegrees>
              <LongitudeDegrees>-2.14689667336642742156982421875</LongitudeDegrees>
            </Position>
            <AltitudeMeters>126.59999847412109375</AltitudeMeters>
            <DistanceMeters>NAN</DistanceMeters>
          </Trackpoint>
          <Trackpoint>
            <Time>2022-07-10T09:25:35.000Z</Time>
            <Position>
              <LatitudeDegrees>43.28715532086789608001708984375</LatitudeDegrees>
              <LongitudeDegrees>-2.14702726341784000396728515625</LongitudeDegrees>
            </Position>
            <AltitudeMeters>126</AltitudeMeters>
            <DistanceMeters>NAN</DistanceMeters>
          </Trackpoint>
          <Trackpoint>
            <Time>2022-07-10T09:25:36.000Z</Time>
            <Position>
              <LatitudeDegrees>43.2871361263096332550048828125</LatitudeDegrees>
              <LongitudeDegrees>-2.147088535130023956298828125</LongitudeDegrees>
            </Position>
            <AltitudeMeters>125.8000030517578125</AltitudeMeters>
            <DistanceMeters>NAN</DistanceMeters>
          </Trackpoint>
          <Trackpoint>
            <Time>2022-07-10T09:25:38.000Z</Time>
            <Position>
              <LatitudeDegrees>43.2871096394956111907958984375</LatitudeDegrees>
              <LongitudeDegrees>-2.1472362242639064788818359375</LongitudeDegrees>
            </Position>
            <AltitudeMeters>125.40000152587890625</AltitudeMeters>
            <DistanceMeters>NAN</DistanceMeters>
          </Trackpoint>
          <Trackpoint>
            <Time>2022-07-10T09:25:40.000Z</Time>
            <Position>
              <LatitudeDegrees>43.2871193625032901763916015625</LatitudeDegrees>
              <LongitudeDegrees>-2.1474005095660686492919921875</LongitudeDegrees>
            </Position>
            <AltitudeMeters>125</AltitudeMeters>
            <DistanceMeters>NAN</DistanceMeters>
          </Trackpoint>
          <Trackpoint>
            <Time>2022-07-10T09:25:44.000Z</Time>
            <Position>
              <LatitudeDegrees>43.28715029172599315643310546875</LatitudeDegrees>
              <LongitudeDegrees>-2.147762775421142578125</LongitudeDegrees>
            </Position>
            <AltitudeMeters>124.40000152587890625</AltitudeMeters>
            <DistanceMeters>NAN</DistanceMeters>
          </Trackpoint>
          <Trackpoint>
            <Time>2022-07-10T09:25:47.000Z</Time>
            <Position>
              <LatitudeDegrees>43.28714492730796337127685546875</LatitudeDegrees>
              <LongitudeDegrees>-2.14805186726152896881103515625</LongitudeDegrees>
            </Position>
            <AltitudeMeters>123.59999847412109375</AltitudeMeters>
            <DistanceMeters>NAN</DistanceMeters>
          </Trackpoint>
          <Trackpoint>
            <Time>2022-07-10T09:25:48.000Z</Time>
            <Position>
              <LatitudeDegrees>43.2871346175670623779296875</LatitudeDegrees>
              <LongitudeDegrees>-2.148152031004428863525390625</LongitudeDegrees>
            </Position>
            <AltitudeMeters>123</AltitudeMeters>
            <DistanceMeters>NAN</DistanceMeters>
          </Trackpoint>
          <Trackpoint>
            <Time>2022-07-10T09:25:52.000Z</Time>
            <Position>
              <LatitudeDegrees>43.28708776272833347320556640625</LatitudeDegrees>
              <LongitudeDegrees>-2.14857506565749645233154296875</LongitudeDegrees>
            </Position>
            <AltitudeMeters>121.8000030517578125</AltitudeMeters>
            <DistanceMeters>NAN</DistanceMeters>
          </Trackpoint>
          <Trackpoint>
            <Time>2022-07-10T09:25:53.000Z</Time>
            <Position>
              <LatitudeDegrees>43.28708700835704803466796875</LatitudeDegrees>
              <LongitudeDegrees>-2.14868034236133098602294921875</LongitudeDegrees>
            </Position>
            <AltitudeMeters>121.40000152587890625</AltitudeMeters>
            <DistanceMeters>NAN</DistanceMeters>
          </Trackpoint>
          <Trackpoint>
            <Time>2022-07-10T09:25:55.000Z</Time>
            <Position>
              <LatitudeDegrees>43.2871119864284992218017578125</LatitudeDegrees>
              <LongitudeDegrees>-2.14889072813093662261962890625</LongitudeDegrees>
            </Position>
            <AltitudeMeters>121</AltitudeMeters>
            <DistanceMeters>NAN</DistanceMeters>
          </Trackpoint>
          <Trackpoint>
            <Time>2022-07-10T09:25:56.000Z</Time>
            <Position>
              <LatitudeDegrees>43.28713394701480865478515625</LatitudeDegrees>
              <LongitudeDegrees>-2.14899248443543910980224609375</LongitudeDegrees>
            </Position>
            <AltitudeMeters>121</AltitudeMeters>
            <DistanceMeters>NAN</DistanceMeters>
          </Trackpoint>
          <Trackpoint>
            <Time>2022-07-10T09:25:57.000Z</Time>
            <Position>
              <LatitudeDegrees>43.2871663011610507965087890625</LatitudeDegrees>
              <LongitudeDegrees>-2.1490864455699920654296875</LongitudeDegrees>
            </Position>
            <AltitudeMeters>120.8000030517578125</AltitudeMeters>
            <DistanceMeters>NAN</DistanceMeters>
          </Trackpoint>
          <Trackpoint>
            <Time>2022-07-10T09:26:00.000Z</Time>
            <Position>
              <LatitudeDegrees>43.28729781322181224822998046875</LatitudeDegrees>
              <LongitudeDegrees>-2.14932717382907867431640625</LongitudeDegrees>
            </Position>
            <AltitudeMeters>119.8000030517578125</AltitudeMeters>
            <DistanceMeters>NAN</DistanceMeters>
          </Trackpoint>
          <Trackpoint>
            <Time>2022-07-10T09:26:04.000Z</Time>
            <Position>
              <LatitudeDegrees>43.287548683583736419677734375</LatitudeDegrees>
              <LongitudeDegrees>-2.1495853364467620849609375</LongitudeDegrees>
            </Position>
            <AltitudeMeters>118.59999847412109375</AltitudeMeters>
            <DistanceMeters>NAN</DistanceMeters>
          </Trackpoint>
          <Trackpoint>
            <Time>2022-07-10T09:26:06.000Z</Time>
            <Position>
              <LatitudeDegrees>43.28769176267087459564208984375</LatitudeDegrees>
              <LongitudeDegrees>-2.1497263200581073760986328125</LongitudeDegrees>
            </Position>
            <AltitudeMeters>117.59999847412109375</AltitudeMeters>
            <DistanceMeters>NAN</DistanceMeters>
          </Trackpoint>
          <Trackpoint>
            <Time>2022-07-10T09:26:07.000Z</Time>
            <Position>
              <LatitudeDegrees>43.2877550460398197174072265625</LatitudeDegrees>
              <LongitudeDegrees>-2.14981189928948879241943359375</LongitudeDegrees>
            </Position>
            <AltitudeMeters>117.1999969482421875</AltitudeMeters>
            <DistanceMeters>NAN</DistanceMeters>
          </Trackpoint>
          <Trackpoint>
            <Time>2022-07-10T09:26:08.000Z</Time>
            <Position>
              <LatitudeDegrees>43.2878096960484981536865234375</LatitudeDegrees>
              <LongitudeDegrees>-2.14990946464240550994873046875</LongitudeDegrees>
            </Position>
            <AltitudeMeters>116.8000030517578125</AltitudeMeters>
            <DistanceMeters>NAN</DistanceMeters>
          </Trackpoint>
          <Trackpoint>
            <Time>2022-07-10T09:26:09.000Z</Time>
            <Position>
              <LatitudeDegrees>43.2878556288778781890869140625</LatitudeDegrees>
              <LongitudeDegrees>-2.15001574717462062835693359375</LongitudeDegrees>
            </Position>
            <AltitudeMeters>116.1999969482421875</AltitudeMeters>
            <DistanceMeters>NAN</DistanceMeters>
          </Trackpoint>
          <Trackpoint>
            <Time>2022-07-10T09:26:11.000Z</Time>
            <Position>
              <LatitudeDegrees>43.28794062137603759765625</LatitudeDegrees>
              <LongitudeDegrees>-2.1502389572560787200927734375</LongitudeDegrees>
            </Position>
            <AltitudeMeters>114.8000030517578125</AltitudeMeters>
            <DistanceMeters>NAN</DistanceMeters>
          </Trackpoint>
          <Trackpoint>
            <Time>2022-07-10T09:26:13.000Z</Time>
            <Position>
              <LatitudeDegrees>43.28800323419272899627685546875</LatitudeDegrees>
              <LongitudeDegrees>-2.15046334080398082733154296875</LongitudeDegrees>
            </Position>
            <AltitudeMeters>113</AltitudeMeters>
            <DistanceMeters>NAN</DistanceMeters>
          </Trackpoint>
          <Trackpoint>
            <Time>2022-07-10T09:26:14.000Z</Time>
            <Position>
              <LatitudeDegrees>43.28801848925650119781494140625</LatitudeDegrees>
              <LongitudeDegrees>-2.150576077401638031005859375</LongitudeDegrees>
            </Position>
            <AltitudeMeters>111.8000030517578125</AltitudeMeters>
            <DistanceMeters>NAN</DistanceMeters>
          </Trackpoint>
          <Trackpoint>
            <Time>2022-07-10T09:26:15.000Z</Time>
            <Position>
              <LatitudeDegrees>43.28801496885716915130615234375</LatitudeDegrees>
              <LongitudeDegrees>-2.15068663470447063446044921875</LongitudeDegrees>
            </Position>
            <AltitudeMeters>111.1999969482421875</AltitudeMeters>
            <DistanceMeters>NAN</DistanceMeters>
          </Trackpoint>
          <Trackpoint>
            <Time>2022-07-10T09:26:16.000Z</Time>
            <Position>
              <LatitudeDegrees>43.287999294698238372802734375</LatitudeDegrees>
              <LongitudeDegrees>-2.15078889392316341400146484375</LongitudeDegrees>
            </Position>
            <AltitudeMeters>110.40000152587890625</AltitudeMeters>
            <DistanceMeters>NAN</DistanceMeters>
          </Trackpoint>
          <Trackpoint>
            <Time>2022-07-10T09:26:17.000Z</Time>
            <Position>
              <LatitudeDegrees>43.2879786752164363861083984375</LatitudeDegrees>
              <LongitudeDegrees>-2.15087874792516231536865234375</LongitudeDegrees>
            </Position>
            <AltitudeMeters>109.40000152587890625</AltitudeMeters>
            <DistanceMeters>NAN</DistanceMeters>
          </Trackpoint>
          <Trackpoint>
            <Time>2022-07-10T09:26:18.000Z</Time>
            <Position>
              <LatitudeDegrees>43.2879585586488246917724609375</LatitudeDegrees>
              <LongitudeDegrees>-2.15093892998993396759033203125</LongitudeDegrees>
            </Position>
            <AltitudeMeters>108.1999969482421875</AltitudeMeters>
            <DistanceMeters>NAN</DistanceMeters>
          </Trackpoint>
          <Trackpoint>
            <Time>2022-07-10T09:26:19.000Z</Time>
            <Position>
              <LatitudeDegrees>43.28792846761643886566162109375</LatitudeDegrees>
              <LongitudeDegrees>-2.151015289127826690673828125</LongitudeDegrees>
            </Position>
            <AltitudeMeters>107.1999969482421875</AltitudeMeters>
            <DistanceMeters>NAN</DistanceMeters>
          </Trackpoint>
          <Trackpoint>
            <Time>2022-07-10T09:26:20.000Z</Time>
            <Position>
              <LatitudeDegrees>43.28791178762912750244140625</LatitudeDegrees>
              <LongitudeDegrees>-2.15106029994785785675048828125</LongitudeDegrees>
            </Position>
            <AltitudeMeters>106.40000152587890625</AltitudeMeters>
            <DistanceMeters>NAN</DistanceMeters>
          </Trackpoint>
          <Trackpoint>
            <Time>2022-07-10T09:26:21.000Z</Time>
            <Position>
              <LatitudeDegrees>43.2879055850207805633544921875</LatitudeDegrees>
              <LongitudeDegrees>-2.151089049875736236572265625</LongitudeDegrees>
            </Position>
            <AltitudeMeters>105.8000030517578125</AltitudeMeters>
            <DistanceMeters>NAN</DistanceMeters>
          </Trackpoint>
          <Trackpoint>
            <Time>2022-07-10T09:26:23.000Z</Time>
            <Position>
              <LatitudeDegrees>43.287902064621448516845703125</LatitudeDegrees>
              <LongitudeDegrees>-2.151112519204616546630859375</LongitudeDegrees>
            </Position>
            <AltitudeMeters>105.1999969482421875</AltitudeMeters>
            <DistanceMeters>NAN</DistanceMeters>
          </Trackpoint>
          <Trackpoint>
            <Time>2022-07-10T09:26:24.000Z</Time>
            <Position>
              <LatitudeDegrees>43.287902064621448516845703125</LatitudeDegrees>
              <LongitudeDegrees>-2.151112519204616546630859375</LongitudeDegrees>
            </Position>
            <AltitudeMeters>105</AltitudeMeters>
            <DistanceMeters>NAN</DistanceMeters>
          </Trackpoint>
          <Trackpoint>
            <Time>2022-07-10T09:27:23.000Z</Time>
            <Position>
              <LatitudeDegrees>43.28788739629089832305908203125</LatitudeDegrees>
              <LongitudeDegrees>-2.151121906936168670654296875</LongitudeDegrees>
            </Position>
            <AltitudeMeters>104.1999969482421875</AltitudeMeters>
            <DistanceMeters>NAN</DistanceMeters>
          </Trackpoint>
          <Trackpoint>
            <Time>2022-07-10T09:27:24.000Z</Time>
            <Position>
              <LatitudeDegrees>43.2878733985126018524169921875</LatitudeDegrees>
              <LongitudeDegrees>-2.15113054029643535614013671875</LongitudeDegrees>
            </Position>
            <AltitudeMeters>104</AltitudeMeters>
            <DistanceMeters>NAN</DistanceMeters>
          </Trackpoint>
          <Trackpoint>
            <Time>2022-07-10T09:27:26.000Z</Time>
            <Position>
              <LatitudeDegrees>43.28783174045383930206298828125</LatitudeDegrees>
              <LongitudeDegrees>-2.151161134243011474609375</LongitudeDegrees>
            </Position>
            <AltitudeMeters>103.8000030517578125</AltitudeMeters>
            <DistanceMeters>NAN</DistanceMeters>
          </Trackpoint>
          <Trackpoint>
            <Time>2022-07-10T09:27:31.000Z</Time>
            <Position>
              <LatitudeDegrees>43.28763996250927448272705078125</LatitudeDegrees>
              <LongitudeDegrees>-2.1512394212186336517333984375</LongitudeDegrees>
            </Position>
            <AltitudeMeters>103</AltitudeMeters>
            <DistanceMeters>NAN</DistanceMeters>
          </Trackpoint>
          <Trackpoint>
            <Time>2022-07-10T09:27:35.000Z</Time>
            <Position>
              <LatitudeDegrees>43.28739303164184093475341796875</LatitudeDegrees>
              <LongitudeDegrees>-2.151284515857696533203125</LongitudeDegrees>
            </Position>
            <AltitudeMeters>101.59999847412109375</AltitudeMeters>
            <DistanceMeters>NAN</DistanceMeters>
          </Trackpoint>
          <Trackpoint>
            <Time>2022-07-10T09:27:36.000Z</Time>
            <Position>
              <LatitudeDegrees>43.28732010908424854278564453125</LatitudeDegrees>
              <LongitudeDegrees>-2.15130438096821308135986328125</LongitudeDegrees>
            </Position>
            <AltitudeMeters>101.40000152587890625</AltitudeMeters>
            <DistanceMeters>NAN</DistanceMeters>
          </Trackpoint>
          <Trackpoint>
            <Time>2022-07-10T09:27:37.000Z</Time>
            <Position>
              <LatitudeDegrees>43.28724098391830921173095703125</LatitudeDegrees>
              <LongitudeDegrees>-2.15133388526737689971923828125</LongitudeDegrees>
            </Position>
            <AltitudeMeters>101</AltitudeMeters>
            <DistanceMeters>NAN</DistanceMeters>
          </Trackpoint>
          <Trackpoint>
            <Time>2022-07-10T09:27:38.000Z</Time>
            <Position>
              <LatitudeDegrees>43.28716211020946502685546875</LatitudeDegrees>
              <LongitudeDegrees>-2.15137814171612262725830078125</LongitudeDegrees>
            </Position>
            <AltitudeMeters>100.40000152587890625</AltitudeMeters>
            <DistanceMeters>NAN</DistanceMeters>
          </Trackpoint>
          <Trackpoint>
            <Time>2022-07-10T09:27:39.000Z</Time>
            <Position>
              <LatitudeDegrees>43.2870881818234920501708984375</LatitudeDegrees>
              <LongitudeDegrees>-2.15143513865768909454345703125</LongitudeDegrees>
            </Position>
            <AltitudeMeters>100</AltitudeMeters>
            <DistanceMeters>NAN</DistanceMeters>
          </Trackpoint>
          <Trackpoint>
            <Time>2022-07-10T09:27:41.000Z</Time>
            <Position>
              <LatitudeDegrees>43.286944516003131866455078125</LatitudeDegrees>
              <LongitudeDegrees>-2.1515773795545101165771484375</LongitudeDegrees>
            </Position>
            <AltitudeMeters>98.59999847412109375</AltitudeMeters>
            <DistanceMeters>NAN</DistanceMeters>
          </Trackpoint>
          <Trackpoint>
            <Time>2022-07-10T09:27:43.000Z</Time>
            <Position>
              <LatitudeDegrees>43.286803700029850006103515625</LatitudeDegrees>
              <LongitudeDegrees>-2.151757590472698211669921875</LongitudeDegrees>
            </Position>
            <AltitudeMeters>97.1999969482421875</AltitudeMeters>
            <DistanceMeters>NAN</DistanceMeters>
          </Trackpoint>
          <Trackpoint>
            <Time>2022-07-10T09:27:45.000Z</Time>
            <Position>
              <LatitudeDegrees>43.28665651381015777587890625</LatitudeDegrees>
              <LongitudeDegrees>-2.15195305645465850830078125</LongitudeDegrees>
            </Position>
            <AltitudeMeters>96</AltitudeMeters>
            <DistanceMeters>NAN</DistanceMeters>
          </Trackpoint>
          <Trackpoint>
            <Time>2022-07-10T09:27:46.000Z</Time>
            <Position>
              <LatitudeDegrees>43.28657872974872589111328125</LatitudeDegrees>
              <LongitudeDegrees>-2.15205238200724124908447265625</LongitudeDegrees>
            </Position>
            <AltitudeMeters>95</AltitudeMeters>
            <DistanceMeters>NAN</DistanceMeters>
          </Trackpoint>
          <Trackpoint>
            <Time>2022-07-10T09:27:47.000Z</Time>
            <Position>
              <LatitudeDegrees>43.28649683855473995208740234375</LatitudeDegrees>
              <LongitudeDegrees>-2.15215179137885570526123046875</LongitudeDegrees>
            </Position>
            <AltitudeMeters>93.59999847412109375</AltitudeMeters>
            <DistanceMeters>NAN</DistanceMeters>
          </Trackpoint>
          <Trackpoint>
            <Time>2022-07-10T09:27:48.000Z</Time>
            <Position>
              <LatitudeDegrees>43.28641670756042003631591796875</LatitudeDegrees>
              <LongitudeDegrees>-2.152255810797214508056640625</LongitudeDegrees>
            </Position>
            <AltitudeMeters>92.40000152587890625</AltitudeMeters>
            <DistanceMeters>NAN</DistanceMeters>
          </Trackpoint>
          <Trackpoint>
            <Time>2022-07-10T09:27:49.000Z</Time>
            <Position>
              <LatitudeDegrees>43.28634294681251049041748046875</LatitudeDegrees>
              <LongitudeDegrees>-2.1523703075945377349853515625</LongitudeDegrees>
            </Position>
            <AltitudeMeters>91.40000152587890625</AltitudeMeters>
            <DistanceMeters>NAN</DistanceMeters>
          </Trackpoint>
          <Trackpoint>
            <Time>2022-07-10T09:27:50.000Z</Time>
            <Position>
              <LatitudeDegrees>43.28627740032970905303955078125</LatitudeDegrees>
              <LongitudeDegrees>-2.15249360539019107818603515625</LongitudeDegrees>
            </Position>
            <AltitudeMeters>90.8000030517578125</AltitudeMeters>
            <DistanceMeters>NAN</DistanceMeters>
          </Trackpoint>
          <Trackpoint>
            <Time>2022-07-10T09:27:52.000Z</Time>
            <Position>
              <LatitudeDegrees>43.2861638255417346954345703125</LatitudeDegrees>
              <LongitudeDegrees>-2.15274388901889324188232421875</LongitudeDegrees>
            </Position>
            <AltitudeMeters>89.59999847412109375</AltitudeMeters>
            <DistanceMeters>NAN</DistanceMeters>
          </Trackpoint>
          <Trackpoint>
            <Time>2022-07-10T09:27:53.000Z</Time>
            <Position>
              <LatitudeDegrees>43.28610599040985107421875</LatitudeDegrees>
              <LongitudeDegrees>-2.15285721234977245330810546875</LongitudeDegrees>
            </Position>
            <AltitudeMeters>88.59999847412109375</AltitudeMeters>
            <DistanceMeters>NAN</DistanceMeters>
          </Trackpoint>
          <Trackpoint>
            <Time>2022-07-10T09:27:55.000Z</Time>
            <Position>
              <LatitudeDegrees>43.28595922328531742095947265625</LatitudeDegrees>
              <LongitudeDegrees>-2.1530453860759735107421875</LongitudeDegrees>
            </Position>
            <AltitudeMeters>86.8000030517578125</AltitudeMeters>
            <DistanceMeters>NAN</DistanceMeters>
          </Trackpoint>
          <Trackpoint>
            <Time>2022-07-10T09:27:57.000Z</Time>
            <Position>
              <LatitudeDegrees>43.2857651822268962860107421875</LatitudeDegrees>
              <LongitudeDegrees>-2.15314806438982486724853515625</LongitudeDegrees>
            </Position>
            <AltitudeMeters>85.40000152587890625</AltitudeMeters>
            <DistanceMeters>NAN</DistanceMeters>
          </Trackpoint>
          <Trackpoint>
            <Time>2022-07-10T09:27:58.000Z</Time>
            <Position>
              <LatitudeDegrees>43.28565873205661773681640625</LatitudeDegrees>
              <LongitudeDegrees>-2.15316264890134334564208984375</LongitudeDegrees>
            </Position>
            <AltitudeMeters>84.1999969482421875</AltitudeMeters>
            <DistanceMeters>NAN</DistanceMeters>
          </Trackpoint>
          <Trackpoint>
            <Time>2022-07-10T09:27:59.000Z</Time>
            <Position>
              <LatitudeDegrees>43.285546414554119110107421875</LatitudeDegrees>
              <LongitudeDegrees>-2.15315309353172779083251953125</LongitudeDegrees>
            </Position>
            <AltitudeMeters>83.40000152587890625</AltitudeMeters>
            <DistanceMeters>NAN</DistanceMeters>
          </Trackpoint>
          <Trackpoint>
            <Time>2022-07-10T09:28:00.000Z</Time>
            <Position>
              <LatitudeDegrees>43.28542797826230525970458984375</LatitudeDegrees>
              <LongitudeDegrees>-2.15313130058348178863525390625</LongitudeDegrees>
            </Position>
            <AltitudeMeters>82.40000152587890625</AltitudeMeters>
            <DistanceMeters>NAN</DistanceMeters>
          </Trackpoint>
          <Trackpoint>
            <Time>2022-07-10T09:28:02.000Z</Time>
            <Position>
              <LatitudeDegrees>43.28519512899219989776611328125</LatitudeDegrees>
              <LongitudeDegrees>-2.1530837751924991607666015625</LongitudeDegrees>
            </Position>
            <AltitudeMeters>80.8000030517578125</AltitudeMeters>
            <DistanceMeters>NAN</DistanceMeters>
          </Trackpoint>
          <Trackpoint>
            <Time>2022-07-10T09:28:03.000Z</Time>
            <Position>
              <LatitudeDegrees>43.2850963063538074493408203125</LatitudeDegrees>
              <LongitudeDegrees>-2.15306877158582210540771484375</LongitudeDegrees>
            </Position>
            <AltitudeMeters>79.40000152587890625</AltitudeMeters>
            <DistanceMeters>NAN</DistanceMeters>
          </Trackpoint>
          <Trackpoint>
            <Time>2022-07-10T09:28:04.000Z</Time>
            <Position>
              <LatitudeDegrees>43.2850111462175846099853515625</LatitudeDegrees>
              <LongitudeDegrees>-2.1530559472739696502685546875</LongitudeDegrees>
            </Position>
            <AltitudeMeters>78.40000152587890625</AltitudeMeters>
            <DistanceMeters>NAN</DistanceMeters>
          </Trackpoint>
          <Trackpoint>
            <Time>2022-07-10T09:28:05.000Z</Time>
            <Position>
              <LatitudeDegrees>43.284930177032947540283203125</LatitudeDegrees>
              <LongitudeDegrees>-2.153044044971466064453125</LongitudeDegrees>
            </Position>
            <AltitudeMeters>77</AltitudeMeters>
            <DistanceMeters>NAN</DistanceMeters>
          </Trackpoint>
          <Trackpoint>
            <Time>2022-07-10T09:28:07.000Z</Time>
            <Position>
              <LatitudeDegrees>43.28476312570273876190185546875</LatitudeDegrees>
              <LongitudeDegrees>-2.15300691314041614532470703125</LongitudeDegrees>
            </Position>
            <AltitudeMeters>75.40000152587890625</AltitudeMeters>
            <DistanceMeters>NAN</DistanceMeters>
          </Trackpoint>
          <Trackpoint>
            <Time>2022-07-10T09:28:09.000Z</Time>
            <Position>
              <LatitudeDegrees>43.28458475880324840545654296875</LatitudeDegrees>
              <LongitudeDegrees>-2.15295209549367427825927734375</LongitudeDegrees>
            </Position>
            <AltitudeMeters>74.1999969482421875</AltitudeMeters>
            <DistanceMeters>NAN</DistanceMeters>
          </Trackpoint>
          <Trackpoint>
            <Time>2022-07-10T09:28:10.000Z</Time>
            <Position>
              <LatitudeDegrees>43.28449733555316925048828125</LatitudeDegrees>
              <LongitudeDegrees>-2.1529158018529415130615234375</LongitudeDegrees>
            </Position>
            <AltitudeMeters>73.59999847412109375</AltitudeMeters>
            <DistanceMeters>NAN</DistanceMeters>
          </Trackpoint>
          <Trackpoint>
            <Time>2022-07-10T09:28:12.000Z</Time>
            <Position>
              <LatitudeDegrees>43.2843141071498394012451171875</LatitudeDegrees>
              <LongitudeDegrees>-2.1528353355824947357177734375</LongitudeDegrees>
            </Position>
            <AltitudeMeters>72.40000152587890625</AltitudeMeters>
            <DistanceMeters>NAN</DistanceMeters>
          </Trackpoint>
          <Trackpoint>
            <Time>2022-07-10T09:28:15.000Z</Time>
            <Position>
              <LatitudeDegrees>43.28403465449810028076171875</LatitudeDegrees>
              <LongitudeDegrees>-2.15268194675445556640625</LongitudeDegrees>
            </Position>
            <AltitudeMeters>70.8000030517578125</AltitudeMeters>
            <DistanceMeters>NAN</DistanceMeters>
          </Trackpoint>
          <Trackpoint>
            <Time>2022-07-10T09:28:17.000Z</Time>
            <Position>
              <LatitudeDegrees>43.28384715132415294647216796875</LatitudeDegrees>
              <LongitudeDegrees>-2.152573652565479278564453125</LongitudeDegrees>
            </Position>
            <AltitudeMeters>69.8000030517578125</AltitudeMeters>
            <DistanceMeters>NAN</DistanceMeters>
          </Trackpoint>
          <Trackpoint>
            <Time>2022-07-10T09:28:19.000Z</Time>
            <Position>
              <LatitudeDegrees>43.28367582522332668304443359375</LatitudeDegrees>
              <LongitudeDegrees>-2.1524323336780071258544921875</LongitudeDegrees>
            </Position>
            <AltitudeMeters>68.8000030517578125</AltitudeMeters>
            <DistanceMeters>NAN</DistanceMeters>
          </Trackpoint>
          <Trackpoint>
            <Time>2022-07-10T09:28:20.000Z</Time>
            <Position>
              <LatitudeDegrees>43.283599801361560821533203125</LatitudeDegrees>
              <LongitudeDegrees>-2.15234273113310337066650390625</LongitudeDegrees>
            </Position>
            <AltitudeMeters>68.40000152587890625</AltitudeMeters>
            <DistanceMeters>NAN</DistanceMeters>
          </Trackpoint>
          <Trackpoint>
            <Time>2022-07-10T09:28:22.000Z</Time>
            <Position>
              <LatitudeDegrees>43.28346175141632556915283203125</LatitudeDegrees>
              <LongitudeDegrees>-2.15213544666767120361328125</LongitudeDegrees>
            </Position>
            <AltitudeMeters>67.1999969482421875</AltitudeMeters>
            <DistanceMeters>NAN</DistanceMeters>
          </Trackpoint>
          <Trackpoint>
            <Time>2022-07-10T09:28:24.000Z</Time>
            <Position>
              <LatitudeDegrees>43.28335496596992015838623046875</LatitudeDegrees>
              <LongitudeDegrees>-2.15191542170941829681396484375</LongitudeDegrees>
            </Position>
            <AltitudeMeters>66</AltitudeMeters>
            <DistanceMeters>NAN</DistanceMeters>
          </Trackpoint>
          <Trackpoint>
            <Time>2022-07-10T09:28:27.000Z</Time>
            <Position>
              <LatitudeDegrees>43.2832271419465541839599609375</LatitudeDegrees>
              <LongitudeDegrees>-2.15164435096085071563720703125</LongitudeDegrees>
            </Position>
            <AltitudeMeters>64.59999847412109375</AltitudeMeters>
            <DistanceMeters>NAN</DistanceMeters>
          </Trackpoint>
          <Trackpoint>
            <Time>2022-07-10T09:28:28.000Z</Time>
            <Position>
              <LatitudeDegrees>43.283186070621013641357421875</LatitudeDegrees>
              <LongitudeDegrees>-2.15157109312713146209716796875</LongitudeDegrees>
            </Position>
            <AltitudeMeters>64</AltitudeMeters>
            <DistanceMeters>NAN</DistanceMeters>
          </Trackpoint>
          <Trackpoint>
            <Time>2022-07-10T09:28:29.000Z</Time>
            <Position>
              <LatitudeDegrees>43.283137790858745574951171875</LatitudeDegrees>
              <LongitudeDegrees>-2.15151292271912097930908203125</LongitudeDegrees>
            </Position>
            <AltitudeMeters>63.40000152587890625</AltitudeMeters>
            <DistanceMeters>NAN</DistanceMeters>
          </Trackpoint>
          <Trackpoint>
            <Time>2022-07-10T09:28:30.000Z</Time>
            <Position>
              <LatitudeDegrees>43.2830809615552425384521484375</LatitudeDegrees>
              <LongitudeDegrees>-2.15147805400192737579345703125</LongitudeDegrees>
            </Position>
            <AltitudeMeters>63</AltitudeMeters>
            <DistanceMeters>NAN</DistanceMeters>
          </Trackpoint>
          <Trackpoint>
            <Time>2022-07-10T09:28:31.000Z</Time>
            <Position>
              <LatitudeDegrees>43.28302622772753238677978515625</LatitudeDegrees>
              <LongitudeDegrees>-2.15147319249808788299560546875</LongitudeDegrees>
            </Position>
            <AltitudeMeters>62.59999847412109375</AltitudeMeters>
            <DistanceMeters>NAN</DistanceMeters>
          </Trackpoint>
          <Trackpoint>
            <Time>2022-07-10T09:28:32.000Z</Time>
            <Position>
              <LatitudeDegrees>43.282979540526866912841796875</LatitudeDegrees>
              <LongitudeDegrees>-2.15150244534015655517578125</LongitudeDegrees>
            </Position>
            <AltitudeMeters>62.40000152587890625</AltitudeMeters>
            <DistanceMeters>NAN</DistanceMeters>
          </Trackpoint>
          <Trackpoint>
            <Time>2022-07-10T09:28:33.000Z</Time>
            <Position>
              <LatitudeDegrees>43.2829451747238636016845703125</LatitudeDegrees>
              <LongitudeDegrees>-2.151563465595245361328125</LongitudeDegrees>
            </Position>
            <AltitudeMeters>61.799999237060546875</AltitudeMeters>
            <DistanceMeters>NAN</DistanceMeters>
          </Trackpoint>
          <Trackpoint>
            <Time>2022-07-10T09:28:34.000Z</Time>
            <Position>
              <LatitudeDegrees>43.28293084166944026947021484375</LatitudeDegrees>
              <LongitudeDegrees>-2.1516487933695316314697265625</LongitudeDegrees>
            </Position>
            <AltitudeMeters>61.40000152587890625</AltitudeMeters>
            <DistanceMeters>NAN</DistanceMeters>
          </Trackpoint>
          <Trackpoint>
            <Time>2022-07-10T09:28:35.000Z</Time>
            <Position>
              <LatitudeDegrees>43.28293151222169399261474609375</LatitudeDegrees>
              <LongitudeDegrees>-2.15172833763062953948974609375</LongitudeDegrees>
            </Position>
            <AltitudeMeters>61.200000762939453125</AltitudeMeters>
            <DistanceMeters>NAN</DistanceMeters>
          </Trackpoint>
          <Trackpoint>
            <Time>2022-07-10T09:28:36.000Z</Time>
            <Position>
              <LatitudeDegrees>43.28294341452419757843017578125</LatitudeDegrees>
              <LongitudeDegrees>-2.15183596126735210418701171875</LongitudeDegrees>
            </Position>
            <AltitudeMeters>61</AltitudeMeters>
            <DistanceMeters>NAN</DistanceMeters>
          </Trackpoint>
          <Trackpoint>
            <Time>2022-07-10T09:28:40.000Z</Time>
            <Position>
              <LatitudeDegrees>43.2830977253615856170654296875</LatitudeDegrees>
              <LongitudeDegrees>-2.15216620825231075286865234375</LongitudeDegrees>
            </Position>
            <AltitudeMeters>60</AltitudeMeters>
            <DistanceMeters>NAN</DistanceMeters>
          </Trackpoint>
          <Trackpoint>
            <Time>2022-07-10T09:28:44.000Z</Time>
            <Position>
              <LatitudeDegrees>43.28327215276658535003662109375</LatitudeDegrees>
              <LongitudeDegrees>-2.1525067649781703948974609375</LongitudeDegrees>
            </Position>
            <AltitudeMeters>59</AltitudeMeters>
            <DistanceMeters>NAN</DistanceMeters>
          </Trackpoint>
          <Trackpoint>
            <Time>2022-07-10T09:28:47.000Z</Time>
            <Position>
              <LatitudeDegrees>43.28340961597859859466552734375</LatitudeDegrees>
              <LongitudeDegrees>-2.15276853181421756744384765625</LongitudeDegrees>
            </Position>
            <AltitudeMeters>58.40000152587890625</AltitudeMeters>
            <DistanceMeters>NAN</DistanceMeters>
          </Trackpoint>
          <Trackpoint>
            <Time>2022-07-10T09:28:49.000Z</Time>
            <Position>
              <LatitudeDegrees>43.28350349329411983489990234375</LatitudeDegrees>
              <LongitudeDegrees>-2.15293340384960174560546875</LongitudeDegrees>
            </Position>
            <AltitudeMeters>57.799999237060546875</AltitudeMeters>
            <DistanceMeters>NAN</DistanceMeters>
          </Trackpoint>
          <Trackpoint>
            <Time>2022-07-10T09:28:54.000Z</Time>
            <Position>
              <LatitudeDegrees>43.28369225375354290008544921875</LatitudeDegrees>
              <LongitudeDegrees>-2.1532782353460788726806640625</LongitudeDegrees>
            </Position>
            <AltitudeMeters>57</AltitudeMeters>
            <DistanceMeters>NAN</DistanceMeters>
          </Trackpoint>
          <Trackpoint>
            <Time>2022-07-10T09:28:59.000Z</Time>
            <Position>
              <LatitudeDegrees>43.283815719187259674072265625</LatitudeDegrees>
              <LongitudeDegrees>-2.15353966690599918365478515625</LongitudeDegrees>
            </Position>
            <AltitudeMeters>57.40000152587890625</AltitudeMeters>
            <DistanceMeters>NAN</DistanceMeters>
          </Trackpoint>
          <Trackpoint>
            <Time>2022-07-10T09:29:01.000Z</Time>
            <Position>
              <LatitudeDegrees>43.28385352157056331634521484375</LatitudeDegrees>
              <LongitudeDegrees>-2.153629101812839508056640625</LongitudeDegrees>
            </Position>
            <AltitudeMeters>57.40000152587890625</AltitudeMeters>
            <DistanceMeters>NAN</DistanceMeters>
          </Trackpoint>
          <Trackpoint>
            <Time>2022-07-10T09:29:07.000Z</Time>
            <Position>
              <LatitudeDegrees>43.2839588820934295654296875</LatitudeDegrees>
              <LongitudeDegrees>-2.15394820086658000946044921875</LongitudeDegrees>
            </Position>
            <AltitudeMeters>57</AltitudeMeters>
            <DistanceMeters>NAN</DistanceMeters>
          </Trackpoint>
          <Trackpoint>
            <Time>2022-07-10T09:29:09.000Z</Time>
            <Position>
              <LatitudeDegrees>43.28400724567472934722900390625</LatitudeDegrees>
              <LongitudeDegrees>-2.15408113785088062286376953125</LongitudeDegrees>
            </Position>
            <AltitudeMeters>56.59999847412109375</AltitudeMeters>
            <DistanceMeters>NAN</DistanceMeters>
          </Trackpoint>
          <Trackpoint>
            <Time>2022-07-10T09:29:10.000Z</Time>
            <Position>
              <LatitudeDegrees>43.28403222374618053436279296875</LatitudeDegrees>
              <LongitudeDegrees>-2.15415556915104389190673828125</LongitudeDegrees>
            </Position>
            <AltitudeMeters>56.200000762939453125</AltitudeMeters>
            <DistanceMeters>NAN</DistanceMeters>
          </Trackpoint>
          <Trackpoint>
            <Time>2022-07-10T09:29:12.000Z</Time>
            <Position>
              <LatitudeDegrees>43.2840851135551929473876953125</LatitudeDegrees>
              <LongitudeDegrees>-2.15431432239711284637451171875</LongitudeDegrees>
            </Position>
            <AltitudeMeters>55.40000152587890625</AltitudeMeters>
            <DistanceMeters>NAN</DistanceMeters>
          </Trackpoint>
          <Trackpoint>
            <Time>2022-07-10T09:29:13.000Z</Time>
            <Position>
              <LatitudeDegrees>43.28411285765469074249267578125</LatitudeDegrees>
              <LongitudeDegrees>-2.15439797379076480865478515625</LongitudeDegrees>
            </Position>
            <AltitudeMeters>54.799999237060546875</AltitudeMeters>
            <DistanceMeters>NAN</DistanceMeters>
          </Trackpoint>
          <Trackpoint>
            <Time>2022-07-10T09:29:14.000Z</Time>
            <Position>
              <LatitudeDegrees>43.28414152376353740692138671875</LatitudeDegrees>
              <LongitudeDegrees>-2.15448196046054363250732421875</LongitudeDegrees>
            </Position>
            <AltitudeMeters>54.200000762939453125</AltitudeMeters>
            <DistanceMeters>NAN</DistanceMeters>
          </Trackpoint>
          <Trackpoint>
            <Time>2022-07-10T09:29:15.000Z</Time>
            <Position>
              <LatitudeDegrees>43.2841761410236358642578125</LatitudeDegrees>
              <LongitudeDegrees>-2.154559157788753509521484375</LongitudeDegrees>
            </Position>
            <AltitudeMeters>53.59999847412109375</AltitudeMeters>
            <DistanceMeters>NAN</DistanceMeters>
          </Trackpoint>
          <Trackpoint>
            <Time>2022-07-10T09:29:16.000Z</Time>
            <Position>
              <LatitudeDegrees>43.28421276994049549102783203125</LatitudeDegrees>
              <LongitudeDegrees>-2.15463685803115367889404296875</LongitudeDegrees>
            </Position>
            <AltitudeMeters>52.799999237060546875</AltitudeMeters>
            <DistanceMeters>NAN</DistanceMeters>
          </Trackpoint>
          <Trackpoint>
            <Time>2022-07-10T09:29:17.000Z</Time>
            <Position>
              <LatitudeDegrees>43.28425065614283084869384765625</LatitudeDegrees>
              <LongitudeDegrees>-2.1547095291316509246826171875</LongitudeDegrees>
            </Position>
            <AltitudeMeters>52</AltitudeMeters>
            <DistanceMeters>NAN</DistanceMeters>
          </Trackpoint>
          <Trackpoint>
            <Time>2022-07-10T09:29:18.000Z</Time>
            <Position>
              <LatitudeDegrees>43.28428653068840503692626953125</LatitudeDegrees>
              <LongitudeDegrees>-2.1547727286815643310546875</LongitudeDegrees>
            </Position>
            <AltitudeMeters>51</AltitudeMeters>
            <DistanceMeters>NAN</DistanceMeters>
          </Trackpoint>
          <Trackpoint>
            <Time>2022-07-10T09:29:19.000Z</Time>
            <Position>
              <LatitudeDegrees>43.284322656691074371337890625</LatitudeDegrees>
              <LongitudeDegrees>-2.15482628904283046722412109375</LongitudeDegrees>
            </Position>
            <AltitudeMeters>50.59999847412109375</AltitudeMeters>
            <DistanceMeters>NAN</DistanceMeters>
          </Trackpoint>
          <Trackpoint>
            <Time>2022-07-10T09:29:20.000Z</Time>
            <Position>
              <LatitudeDegrees>43.2843531668186187744140625</LatitudeDegrees>
              <LongitudeDegrees>-2.15488395653665065765380859375</LongitudeDegrees>
            </Position>
            <AltitudeMeters>49.799999237060546875</AltitudeMeters>
            <DistanceMeters>NAN</DistanceMeters>
          </Trackpoint>
          <Trackpoint>
            <Time>2022-07-10T09:29:22.000Z</Time>
            <Position>
              <LatitudeDegrees>43.2843878678977489471435546875</LatitudeDegrees>
              <LongitudeDegrees>-2.1549604833126068115234375</LongitudeDegrees>
            </Position>
            <AltitudeMeters>48.200000762939453125</AltitudeMeters>
            <DistanceMeters>NAN</DistanceMeters>
          </Trackpoint>
          <Trackpoint>
            <Time>2022-07-10T09:29:24.000Z</Time>
            <Position>
              <LatitudeDegrees>43.28440211713314056396484375</LatitudeDegrees>
              <LongitudeDegrees>-2.15500264428555965423583984375</LongitudeDegrees>
            </Position>
            <AltitudeMeters>47.200000762939453125</AltitudeMeters>
            <DistanceMeters>NAN</DistanceMeters>
          </Trackpoint>
          <Trackpoint>
            <Time>2022-07-10T09:29:26.000Z</Time>
            <Position>
              <LatitudeDegrees>43.2844146899878978729248046875</LatitudeDegrees>
              <LongitudeDegrees>-2.155036590993404388427734375</LongitudeDegrees>
            </Position>
            <AltitudeMeters>46.59999847412109375</AltitudeMeters>
            <DistanceMeters>NAN</DistanceMeters>
          </Trackpoint>
          <Trackpoint>
            <Time>2022-07-10T09:29:27.000Z</Time>
            <Position>
              <LatitudeDegrees>43.284421227872371673583984375</LatitudeDegrees>
              <LongitudeDegrees>-2.15505100786685943603515625</LongitudeDegrees>
            </Position>
            <AltitudeMeters>46.40000152587890625</AltitudeMeters>
            <DistanceMeters>NAN</DistanceMeters>
          </Trackpoint>
          <Trackpoint>
            <Time>2022-07-10T09:29:29.000Z</Time>
            <Position>
              <LatitudeDegrees>43.28444830141961574554443359375</LatitudeDegrees>
              <LongitudeDegrees>-2.15506282635033130645751953125</LongitudeDegrees>
            </Position>
            <AltitudeMeters>46.200000762939453125</AltitudeMeters>
            <DistanceMeters>NAN</DistanceMeters>
          </Trackpoint>
          <Trackpoint>
            <Time>2022-07-10T09:29:30.000Z</Time>
            <Position>
              <LatitudeDegrees>43.28446112573146820068359375</LatitudeDegrees>
              <LongitudeDegrees>-2.15505369007587432861328125</LongitudeDegrees>
            </Position>
            <AltitudeMeters>46.200000762939453125</AltitudeMeters>
            <DistanceMeters>NAN</DistanceMeters>
          </Trackpoint>
          <Trackpoint>
            <Time>2022-07-10T09:29:34.000Z</Time>
            <Position>
              <LatitudeDegrees>43.28446380794048309326171875</LatitudeDegrees>
              <LongitudeDegrees>-2.1550436317920684814453125</LongitudeDegrees>
            </Position>
            <AltitudeMeters>46</AltitudeMeters>
            <DistanceMeters>NAN</DistanceMeters>
          </Trackpoint>
          <Trackpoint>
            <Time>2022-07-10T09:29:47.000Z</Time>
            <Position>
              <LatitudeDegrees>43.28445467166602611541748046875</LatitudeDegrees>
              <LongitudeDegrees>-2.15510155074298381805419921875</LongitudeDegrees>
            </Position>
            <AltitudeMeters>45.799999237060546875</AltitudeMeters>
            <DistanceMeters>NAN</DistanceMeters>
          </Trackpoint>
          <Trackpoint>
            <Time>2022-07-10T09:29:48.000Z</Time>
            <Position>
              <LatitudeDegrees>43.28446405939757823944091796875</LatitudeDegrees>
              <LongitudeDegrees>-2.1551390178501605987548828125</LongitudeDegrees>
            </Position>
            <AltitudeMeters>45.799999237060546875</AltitudeMeters>
            <DistanceMeters>NAN</DistanceMeters>
          </Trackpoint>
          <Trackpoint>
            <Time>2022-07-10T09:29:50.000Z</Time>
            <Position>
              <LatitudeDegrees>43.2844604551792144775390625</LatitudeDegrees>
              <LongitudeDegrees>-2.1552367508411407470703125</LongitudeDegrees>
            </Position>
            <AltitudeMeters>45.59999847412109375</AltitudeMeters>
            <DistanceMeters>NAN</DistanceMeters>
          </Trackpoint>
          <Trackpoint>
            <Time>2022-07-10T09:29:51.000Z</Time>
            <Position>
              <LatitudeDegrees>43.28445601277053356170654296875</LatitudeDegrees>
              <LongitudeDegrees>-2.1552959270775318145751953125</LongitudeDegrees>
            </Position>
            <AltitudeMeters>45.200000762939453125</AltitudeMeters>
            <DistanceMeters>NAN</DistanceMeters>
          </Trackpoint>
          <Trackpoint>
            <Time>2022-07-10T09:29:52.000Z</Time>
            <Position>
              <LatitudeDegrees>43.28445039689540863037109375</LatitudeDegrees>
              <LongitudeDegrees>-2.15536482632160186767578125</LongitudeDegrees>
            </Position>
            <AltitudeMeters>45</AltitudeMeters>
            <DistanceMeters>NAN</DistanceMeters>
          </Trackpoint>
          <Trackpoint>
            <Time>2022-07-10T09:29:56.000Z</Time>
            <Position>
              <LatitudeDegrees>43.284421227872371673583984375</LatitudeDegrees>
              <LongitudeDegrees>-2.15568928979337215423583984375</LongitudeDegrees>
            </Position>
            <AltitudeMeters>44.200000762939453125</AltitudeMeters>
            <DistanceMeters>NAN</DistanceMeters>
          </Trackpoint>
          <Trackpoint>
            <Time>2022-07-10T09:29:57.000Z</Time>
            <Position>
              <LatitudeDegrees>43.284401781857013702392578125</LatitudeDegrees>
              <LongitudeDegrees>-2.15579263865947723388671875</LongitudeDegrees>
            </Position>
            <AltitudeMeters>43.799999237060546875</AltitudeMeters>
            <DistanceMeters>NAN</DistanceMeters>
          </Trackpoint>
          <Trackpoint>
            <Time>2022-07-10T09:29:58.000Z</Time>
            <Position>
              <LatitudeDegrees>43.2843902148306369781494140625</LatitudeDegrees>
              <LongitudeDegrees>-2.1558444388210773468017578125</LongitudeDegrees>
            </Position>
            <AltitudeMeters>43.40000152587890625</AltitudeMeters>
            <DistanceMeters>NAN</DistanceMeters>
          </Trackpoint>
          <Trackpoint>
            <Time>2022-07-10T09:30:00.000Z</Time>
            <Position>
              <LatitudeDegrees>43.2843432761728763580322265625</LatitudeDegrees>
              <LongitudeDegrees>-2.15601735748350620269775390625</LongitudeDegrees>
            </Position>
            <AltitudeMeters>42.59999847412109375</AltitudeMeters>
            <DistanceMeters>NAN</DistanceMeters>
          </Trackpoint>
          <Trackpoint>
            <Time>2022-07-10T09:30:02.000Z</Time>
            <Position>
              <LatitudeDegrees>43.28429508022964000701904296875</LatitudeDegrees>
              <LongitudeDegrees>-2.1561636216938495635986328125</LongitudeDegrees>
            </Position>
            <AltitudeMeters>41.40000152587890625</AltitudeMeters>
            <DistanceMeters>NAN</DistanceMeters>
          </Trackpoint>
          <Trackpoint>
            <Time>2022-07-10T09:30:03.000Z</Time>
            <Position>
              <LatitudeDegrees>43.28427446074783802032470703125</LatitudeDegrees>
              <LongitudeDegrees>-2.15623511932790279388427734375</LongitudeDegrees>
            </Position>
            <AltitudeMeters>41.200000762939453125</AltitudeMeters>
            <DistanceMeters>NAN</DistanceMeters>
          </Trackpoint>
          <Trackpoint>
            <Time>2022-07-10T09:30:05.000Z</Time>
            <Position>
              <LatitudeDegrees>43.28426306135952472686767578125</LatitudeDegrees>
              <LongitudeDegrees>-2.156386077404022216796875</LongitudeDegrees>
            </Position>
            <AltitudeMeters>40.799999237060546875</AltitudeMeters>
            <DistanceMeters>NAN</DistanceMeters>
          </Trackpoint>
          <Trackpoint>
            <Time>2022-07-10T09:30:06.000Z</Time>
            <Position>
              <LatitudeDegrees>43.28427630476653575897216796875</LatitudeDegrees>
              <LongitudeDegrees>-2.156460843980312347412109375</LongitudeDegrees>
            </Position>
            <AltitudeMeters>40.799999237060546875</AltitudeMeters>
            <DistanceMeters>NAN</DistanceMeters>
          </Trackpoint>
          <Trackpoint>
            <Time>2022-07-10T09:30:09.000Z</Time>
            <Position>
              <LatitudeDegrees>43.28433237969875335693359375</LatitudeDegrees>
              <LongitudeDegrees>-2.1566735766828060150146484375</LongitudeDegrees>
            </Position>
            <AltitudeMeters>40.40000152587890625</AltitudeMeters>
            <DistanceMeters>NAN</DistanceMeters>
          </Trackpoint>
          <Trackpoint>
            <Time>2022-07-10T09:30:11.000Z</Time>
            <Position>
              <LatitudeDegrees>43.2843442820012569427490234375</LatitudeDegrees>
              <LongitudeDegrees>-2.15682034380733966827392578125</LongitudeDegrees>
            </Position>
            <AltitudeMeters>39.799999237060546875</AltitudeMeters>
            <DistanceMeters>NAN</DistanceMeters>
          </Trackpoint>
          <Trackpoint>
            <Time>2022-07-10T09:30:13.000Z</Time>
            <Position>
              <LatitudeDegrees>43.2843405939638614654541015625</LatitudeDegrees>
              <LongitudeDegrees>-2.156978510320186614990234375</LongitudeDegrees>
            </Position>
            <AltitudeMeters>39</AltitudeMeters>
            <DistanceMeters>NAN</DistanceMeters>
          </Trackpoint>
          <Trackpoint>
            <Time>2022-07-10T09:30:15.000Z</Time>
            <Position>
              <LatitudeDegrees>43.28434453345835208892822265625</LatitudeDegrees>
              <LongitudeDegrees>-2.15711454860866069793701171875</LongitudeDegrees>
            </Position>
            <AltitudeMeters>38.59999847412109375</AltitudeMeters>
            <DistanceMeters>NAN</DistanceMeters>
          </Trackpoint>
          <Trackpoint>
            <Time>2022-07-10T09:30:16.000Z</Time>
            <Position>
              <LatitudeDegrees>43.2843570224940776824951171875</LatitudeDegrees>
              <LongitudeDegrees>-2.1571744792163372039794921875</LongitudeDegrees>
            </Position>
            <AltitudeMeters>38.59999847412109375</AltitudeMeters>
            <DistanceMeters>NAN</DistanceMeters>
          </Trackpoint>
          <Trackpoint>
            <Time>2022-07-10T09:30:17.000Z</Time>
            <Position>
              <LatitudeDegrees>43.284371607005596160888671875</LatitudeDegrees>
              <LongitudeDegrees>-2.15723122470080852508544921875</LongitudeDegrees>
            </Position>
            <AltitudeMeters>38.40000152587890625</AltitudeMeters>
            <DistanceMeters>NAN</DistanceMeters>
          </Trackpoint>
          <Trackpoint>
            <Time>2022-07-10T09:30:21.000Z</Time>
            <Position>
              <LatitudeDegrees>43.28444763086736202239990234375</LatitudeDegrees>
              <LongitudeDegrees>-2.15741881169378757476806640625</LongitudeDegrees>
            </Position>
            <AltitudeMeters>38.200000762939453125</AltitudeMeters>
            <DistanceMeters>NAN</DistanceMeters>
          </Trackpoint>
          <Trackpoint>
            <Time>2022-07-10T09:30:25.000Z</Time>
            <Position>
              <LatitudeDegrees>43.2845060527324676513671875</LatitudeDegrees>
              <LongitudeDegrees>-2.157587707042694091796875</LongitudeDegrees>
            </Position>
            <AltitudeMeters>38</AltitudeMeters>
            <DistanceMeters>NAN</DistanceMeters>
          </Trackpoint>
          <Trackpoint>
            <Time>2022-07-10T09:30:27.000Z</Time>
            <Position>
              <LatitudeDegrees>43.28454972244799137115478515625</LatitudeDegrees>
              <LongitudeDegrees>-2.15765543282032012939453125</LongitudeDegrees>
            </Position>
            <AltitudeMeters>37.799999237060546875</AltitudeMeters>
            <DistanceMeters>NAN</DistanceMeters>
          </Trackpoint>
          <Trackpoint>
            <Time>2022-07-10T09:30:31.000Z</Time>
            <Position>
              <LatitudeDegrees>43.28463873825967311859130859375</LatitudeDegrees>
              <LongitudeDegrees>-2.1577498130500316619873046875</LongitudeDegrees>
            </Position>
            <AltitudeMeters>37.59999847412109375</AltitudeMeters>
            <DistanceMeters>NAN</DistanceMeters>
          </Trackpoint>
          <Trackpoint>
            <Time>2022-07-10T09:30:33.000Z</Time>
            <Position>
              <LatitudeDegrees>43.28471082262694835662841796875</LatitudeDegrees>
              <LongitudeDegrees>-2.15771687217056751251220703125</LongitudeDegrees>
            </Position>
            <AltitudeMeters>37.59999847412109375</AltitudeMeters>
            <DistanceMeters>NAN</DistanceMeters>
          </Trackpoint>
          <Trackpoint>
            <Time>2022-07-10T09:30:34.000Z</Time>
            <Position>
              <LatitudeDegrees>43.2847432605922222137451171875</LatitudeDegrees>
              <LongitudeDegrees>-2.157671190798282623291015625</LongitudeDegrees>
            </Position>
            <AltitudeMeters>37.59999847412109375</AltitudeMeters>
            <DistanceMeters>NAN</DistanceMeters>
          </Trackpoint>
          <Trackpoint>
            <Time>2022-07-10T09:30:36.000Z</Time>
            <Position>
              <LatitudeDegrees>43.284797407686710357666015625</LatitudeDegrees>
              <LongitudeDegrees>-2.1575675904750823974609375</LongitudeDegrees>
            </Position>
            <AltitudeMeters>36.799999237060546875</AltitudeMeters>
            <DistanceMeters>NAN</DistanceMeters>
          </Trackpoint>
          <Trackpoint>
            <Time>2022-07-10T09:30:38.000Z</Time>
            <Position>
              <LatitudeDegrees>43.2848341204226016998291015625</LatitudeDegrees>
              <LongitudeDegrees>-2.15744647197425365447998046875</LongitudeDegrees>
            </Position>
            <AltitudeMeters>36.59999847412109375</AltitudeMeters>
            <DistanceMeters>NAN</DistanceMeters>
          </Trackpoint>
          <Trackpoint>
            <Time>2022-07-10T09:30:39.000Z</Time>
            <Position>
              <LatitudeDegrees>43.28484426252543926239013671875</LatitudeDegrees>
              <LongitudeDegrees>-2.15738117694854736328125</LongitudeDegrees>
            </Position>
            <AltitudeMeters>36.40000152587890625</AltitudeMeters>
            <DistanceMeters>NAN</DistanceMeters>
          </Trackpoint>
          <Trackpoint>
            <Time>2022-07-10T09:30:40.000Z</Time>
            <Position>
              <LatitudeDegrees>43.2848458550870418548583984375</LatitudeDegrees>
              <LongitudeDegrees>-2.15732124634087085723876953125</LongitudeDegrees>
            </Position>
            <AltitudeMeters>36.40000152587890625</AltitudeMeters>
            <DistanceMeters>NAN</DistanceMeters>
          </Trackpoint>
          <Trackpoint>
            <Time>2022-07-10T09:30:45.000Z</Time>
            <Position>
              <LatitudeDegrees>43.284853398799896240234375</LatitudeDegrees>
              <LongitudeDegrees>-2.157050929963588714599609375</LongitudeDegrees>
            </Position>
            <AltitudeMeters>36.40000152587890625</AltitudeMeters>
            <DistanceMeters>NAN</DistanceMeters>
          </Trackpoint>
          <Trackpoint>
            <Time>2022-07-10T09:30:53.000Z</Time>
            <Position>
              <LatitudeDegrees>43.2848850823938846588134765625</LatitudeDegrees>
              <LongitudeDegrees>-2.156622447073459625244140625</LongitudeDegrees>
            </Position>
            <AltitudeMeters>36.59999847412109375</AltitudeMeters>
            <DistanceMeters>NAN</DistanceMeters>
          </Trackpoint>
          <Trackpoint>
            <Time>2022-07-10T09:30:59.000Z</Time>
            <Position>
              <LatitudeDegrees>43.284986503422260284423828125</LatitudeDegrees>
              <LongitudeDegrees>-2.1563326008617877960205078125</LongitudeDegrees>
            </Position>
            <AltitudeMeters>36.59999847412109375</AltitudeMeters>
            <DistanceMeters>NAN</DistanceMeters>
          </Trackpoint>
          <Trackpoint>
            <Time>2022-07-10T09:31:06.000Z</Time>
            <Position>
              <LatitudeDegrees>43.28520652838051319122314453125</LatitudeDegrees>
              <LongitudeDegrees>-2.15608458034694194793701171875</LongitudeDegrees>
            </Position>
            <AltitudeMeters>36.59999847412109375</AltitudeMeters>
            <DistanceMeters>NAN</DistanceMeters>
          </Trackpoint>
          <Trackpoint>
            <Time>2022-07-10T09:31:12.000Z</Time>
            <Position>
              <LatitudeDegrees>43.28543853946030139923095703125</LatitudeDegrees>
              <LongitudeDegrees>-2.1560429222881793975830078125</LongitudeDegrees>
            </Position>
            <AltitudeMeters>36.40000152587890625</AltitudeMeters>
            <DistanceMeters>NAN</DistanceMeters>
          </Trackpoint>
          <Trackpoint>
            <Time>2022-07-10T09:31:16.000Z</Time>
            <Position>
              <LatitudeDegrees>43.2856012322008609771728515625</LatitudeDegrees>
              <LongitudeDegrees>-2.1560777910053730010986328125</LongitudeDegrees>
            </Position>
            <AltitudeMeters>36.40000152587890625</AltitudeMeters>
            <DistanceMeters>NAN</DistanceMeters>
          </Trackpoint>
          <Trackpoint>
            <Time>2022-07-10T09:31:18.000Z</Time>
            <Position>
              <LatitudeDegrees>43.2856862246990203857421875</LatitudeDegrees>
              <LongitudeDegrees>-2.1560627035796642303466796875</LongitudeDegrees>
            </Position>
            <AltitudeMeters>36.40000152587890625</AltitudeMeters>
            <DistanceMeters>NAN</DistanceMeters>
          </Trackpoint>
          <Trackpoint>
            <Time>2022-07-10T09:31:19.000Z</Time>
            <Position>
              <LatitudeDegrees>43.2857239432632923126220703125</LatitudeDegrees>
              <LongitudeDegrees>-2.15604619123041629791259765625</LongitudeDegrees>
            </Position>
            <AltitudeMeters>36.40000152587890625</AltitudeMeters>
            <DistanceMeters>NAN</DistanceMeters>
          </Trackpoint>
          <Trackpoint>
            <Time>2022-07-10T09:31:20.000Z</Time>
            <Position>
              <LatitudeDegrees>43.285763002932071685791015625</LatitudeDegrees>
              <LongitudeDegrees>-2.15602330863475799560546875</LongitudeDegrees>
            </Position>
            <AltitudeMeters>36.40000152587890625</AltitudeMeters>
            <DistanceMeters>NAN</DistanceMeters>
          </Trackpoint>
          <Trackpoint>
            <Time>2022-07-10T09:31:25.000Z</Time>
            <Position>
              <LatitudeDegrees>43.2859405316412448883056640625</LatitudeDegrees>
              <LongitudeDegrees>-2.15591861866414546966552734375</LongitudeDegrees>
            </Position>
            <AltitudeMeters>36.200000762939453125</AltitudeMeters>
            <DistanceMeters>NAN</DistanceMeters>
          </Trackpoint>
          <Trackpoint>
            <Time>2022-07-10T09:31:30.000Z</Time>
            <Position>
              <LatitudeDegrees>43.286068774759769439697265625</LatitudeDegrees>
              <LongitudeDegrees>-2.15585692785680294036865234375</LongitudeDegrees>
            </Position>
            <AltitudeMeters>36.59999847412109375</AltitudeMeters>
            <DistanceMeters>NAN</DistanceMeters>
          </Trackpoint>
          <Trackpoint>
            <Time>2022-07-10T09:31:36.000Z</Time>
            <Position>
              <LatitudeDegrees>43.2862265221774578094482421875</LatitudeDegrees>
              <LongitudeDegrees>-2.15579540468752384185791015625</LongitudeDegrees>
            </Position>
            <AltitudeMeters>37.200000762939453125</AltitudeMeters>
            <DistanceMeters>NAN</DistanceMeters>
          </Trackpoint>
          <Trackpoint>
            <Time>2022-07-10T09:31:44.000Z</Time>
            <Position>
              <LatitudeDegrees>43.2864702679216861724853515625</LatitudeDegrees>
              <LongitudeDegrees>-2.15563782490789890289306640625</LongitudeDegrees>
            </Position>
            <AltitudeMeters>37.200000762939453125</AltitudeMeters>
            <DistanceMeters>NAN</DistanceMeters>
          </Trackpoint>
          <Trackpoint>
            <Time>2022-07-10T09:31:53.000Z</Time>
            <Position>
              <LatitudeDegrees>43.28672499395906925201416015625</LatitudeDegrees>
              <LongitudeDegrees>-2.1553515829145908355712890625</LongitudeDegrees>
            </Position>
            <AltitudeMeters>37.200000762939453125</AltitudeMeters>
            <DistanceMeters>NAN</DistanceMeters>
          </Trackpoint>
          <Trackpoint>
            <Time>2022-07-10T09:32:01.000Z</Time>
            <Position>
              <LatitudeDegrees>43.28691928647458553314208984375</LatitudeDegrees>
              <LongitudeDegrees>-2.15502812527120113372802734375</LongitudeDegrees>
            </Position>
            <AltitudeMeters>37.40000152587890625</AltitudeMeters>
            <DistanceMeters>NAN</DistanceMeters>
          </Trackpoint>
          <Trackpoint>
            <Time>2022-07-10T09:32:08.000Z</Time>
            <Position>
              <LatitudeDegrees>43.28709430061280727386474609375</LatitudeDegrees>
              <LongitudeDegrees>-2.15477214194834232330322265625</LongitudeDegrees>
            </Position>
            <AltitudeMeters>37.200000762939453125</AltitudeMeters>
            <DistanceMeters>NAN</DistanceMeters>
          </Trackpoint>
          <Trackpoint>
            <Time>2022-07-10T09:32:13.000Z</Time>
            <Position>
              <LatitudeDegrees>43.28720829449594020843505859375</LatitudeDegrees>
              <LongitudeDegrees>-2.15464406646788120269775390625</LongitudeDegrees>
            </Position>
            <AltitudeMeters>37.200000762939453125</AltitudeMeters>
            <DistanceMeters>NAN</DistanceMeters>
          </Trackpoint>
          <Trackpoint>
            <Time>2022-07-10T09:32:18.000Z</Time>
            <Position>
              <LatitudeDegrees>43.28734986484050750732421875</LatitudeDegrees>
              <LongitudeDegrees>-2.154497802257537841796875</LongitudeDegrees>
            </Position>
            <AltitudeMeters>37.40000152587890625</AltitudeMeters>
            <DistanceMeters>NAN</DistanceMeters>
          </Trackpoint>
          <Trackpoint>
            <Time>2022-07-10T09:32:19.000Z</Time>
            <Position>
              <LatitudeDegrees>43.28737668693065643310546875</LatitudeDegrees>
              <LongitudeDegrees>-2.154463939368724822998046875</LongitudeDegrees>
            </Position>
            <AltitudeMeters>37.40000152587890625</AltitudeMeters>
            <DistanceMeters>NAN</DistanceMeters>
          </Trackpoint>
          <Trackpoint>
            <Time>2022-07-10T09:32:31.000Z</Time>
            <Position>
              <LatitudeDegrees>43.28766896389424800872802734375</LatitudeDegrees>
              <LongitudeDegrees>-2.15403445065021514892578125</LongitudeDegrees>
            </Position>
            <AltitudeMeters>37.40000152587890625</AltitudeMeters>
            <DistanceMeters>NAN</DistanceMeters>
          </Trackpoint>
          <Trackpoint>
            <Time>2022-07-10T09:32:36.000Z</Time>
            <Position>
              <LatitudeDegrees>43.28773769550025463104248046875</LatitudeDegrees>
              <LongitudeDegrees>-2.1538674831390380859375</LongitudeDegrees>
            </Position>
            <AltitudeMeters>37.799999237060546875</AltitudeMeters>
            <DistanceMeters>NAN</DistanceMeters>
          </Trackpoint>
          <Trackpoint>
            <Time>2022-07-10T09:32:39.000Z</Time>
            <Position>
              <LatitudeDegrees>43.28778035938739776611328125</LatitudeDegrees>
              <LongitudeDegrees>-2.15377184562385082244873046875</LongitudeDegrees>
            </Position>
            <AltitudeMeters>38</AltitudeMeters>
            <DistanceMeters>NAN</DistanceMeters>
          </Trackpoint>
          <Trackpoint>
            <Time>2022-07-10T09:32:43.000Z</Time>
            <Position>
              <LatitudeDegrees>43.28785638324916362762451171875</LatitudeDegrees>
              <LongitudeDegrees>-2.15371049009263515472412109375</LongitudeDegrees>
            </Position>
            <AltitudeMeters>38.200000762939453125</AltitudeMeters>
            <DistanceMeters>NAN</DistanceMeters>
          </Trackpoint>
          <Trackpoint>
            <Time>2022-07-10T09:32:44.000Z</Time>
            <Position>
              <LatitudeDegrees>43.28786744736135005950927734375</LatitudeDegrees>
              <LongitudeDegrees>-2.15369858779013156890869140625</LongitudeDegrees>
            </Position>
            <AltitudeMeters>38.200000762939453125</AltitudeMeters>
            <DistanceMeters>NAN</DistanceMeters>
          </Trackpoint>
          <Trackpoint>
            <Time>2022-07-10T09:32:48.000Z</Time>
            <Position>
              <LatitudeDegrees>43.28787465579807758331298828125</LatitudeDegrees>
              <LongitudeDegrees>-2.1536902897059917449951171875</LongitudeDegrees>
            </Position>
            <AltitudeMeters>37.799999237060546875</AltitudeMeters>
            <DistanceMeters>NAN</DistanceMeters>
          </Trackpoint>
          <Trackpoint>
            <Time>2022-07-10T09:33:23.000Z</Time>
            <Position>
              <LatitudeDegrees>43.2879044115543365478515625</LatitudeDegrees>
              <LongitudeDegrees>-2.15360906906425952911376953125</LongitudeDegrees>
            </Position>
            <AltitudeMeters>37.799999237060546875</AltitudeMeters>
            <DistanceMeters>NAN</DistanceMeters>
          </Trackpoint>
          <Trackpoint>
            <Time>2022-07-10T09:33:26.000Z</Time>
            <Position>
              <LatitudeDegrees>43.28790918923914432525634765625</LatitudeDegrees>
              <LongitudeDegrees>-2.15360018424689769744873046875</LongitudeDegrees>
            </Position>
            <AltitudeMeters>37.799999237060546875</AltitudeMeters>
            <DistanceMeters>NAN</DistanceMeters>
          </Trackpoint>
          <Trackpoint>
            <Time>2022-07-10T09:42:23.000Z</Time>
            <Position>
              <LatitudeDegrees>43.287870548665523529052734375</LatitudeDegrees>
              <LongitudeDegrees>-2.15368802659213542938232421875</LongitudeDegrees>
            </Position>
            <AltitudeMeters>38.59999847412109375</AltitudeMeters>
            <DistanceMeters>NAN</DistanceMeters>
          </Trackpoint>
          <Trackpoint>
            <Time>2022-07-10T09:42:24.000Z</Time>
            <Position>
              <LatitudeDegrees>43.28787826001644134521484375</LatitudeDegrees>
              <LongitudeDegrees>-2.153672017157077789306640625</LongitudeDegrees>
            </Position>
            <AltitudeMeters>38.59999847412109375</AltitudeMeters>
            <DistanceMeters>NAN</DistanceMeters>
          </Trackpoint>
          <Trackpoint>
            <Time>2022-07-10T09:42:25.000Z</Time>
            <Position>
              <LatitudeDegrees>43.28788605518639087677001953125</LatitudeDegrees>
              <LongitudeDegrees>-2.15365835465490818023681640625</LongitudeDegrees>
            </Position>
            <AltitudeMeters>39</AltitudeMeters>
            <DistanceMeters>NAN</DistanceMeters>
          </Trackpoint>
          <Trackpoint>
            <Time>2022-07-10T09:42:26.000Z</Time>
            <Position>
              <LatitudeDegrees>43.28789175488054752349853515625</LatitudeDegrees>
              <LongitudeDegrees>-2.1536433510482311248779296875</LongitudeDegrees>
            </Position>
            <AltitudeMeters>39.200000762939453125</AltitudeMeters>
            <DistanceMeters>NAN</DistanceMeters>
          </Trackpoint>
          <Trackpoint>
            <Time>2022-07-10T09:42:31.000Z</Time>
            <Position>
              <LatitudeDegrees>43.28790969215333461761474609375</LatitudeDegrees>
              <LongitudeDegrees>-2.15360797941684722900390625</LongitudeDegrees>
            </Position>
            <AltitudeMeters>39.59999847412109375</AltitudeMeters>
            <DistanceMeters>NAN</DistanceMeters>
          </Trackpoint>
          <Trackpoint>
            <Time>2022-07-10T09:42:32.000Z</Time>
            <Position>
              <LatitudeDegrees>43.28790969215333461761474609375</LatitudeDegrees>
              <LongitudeDegrees>-2.15360797941684722900390625</LongitudeDegrees>
            </Position>
            <AltitudeMeters>39.40000152587890625</AltitudeMeters>
            <DistanceMeters>NAN</DistanceMeters>
          </Trackpoint>
          <Trackpoint>
            <Time>2022-07-10T09:47:32.000Z</Time>
            <Position>
              <LatitudeDegrees>43.28794933855533599853515625</LatitudeDegrees>
              <LongitudeDegrees>-2.1534542553126811981201171875</LongitudeDegrees>
            </Position>
            <AltitudeMeters>39.40000152587890625</AltitudeMeters>
            <DistanceMeters>NAN</DistanceMeters>
          </Trackpoint>
          <Trackpoint>
            <Time>2022-07-10T09:47:33.000Z</Time>
            <Position>
              <LatitudeDegrees>43.2879662699997425079345703125</LatitudeDegrees>
              <LongitudeDegrees>-2.1534160338342189788818359375</LongitudeDegrees>
            </Position>
            <AltitudeMeters>40.40000152587890625</AltitudeMeters>
            <DistanceMeters>NAN</DistanceMeters>
          </Trackpoint>
          <Trackpoint>
            <Time>2022-07-10T09:47:34.000Z</Time>
            <Position>
              <LatitudeDegrees>43.28798294998705387115478515625</LatitudeDegrees>
              <LongitudeDegrees>-2.1533754654228687286376953125</LongitudeDegrees>
            </Position>
            <AltitudeMeters>41</AltitudeMeters>
            <DistanceMeters>NAN</DistanceMeters>
          </Trackpoint>
          <Trackpoint>
            <Time>2022-07-10T09:47:36.000Z</Time>
            <Position>
              <LatitudeDegrees>43.288018405437469482421875</LatitudeDegrees>
              <LongitudeDegrees>-2.153301537036895751953125</LongitudeDegrees>
            </Position>
            <AltitudeMeters>41.40000152587890625</AltitudeMeters>
            <DistanceMeters>NAN</DistanceMeters>
          </Trackpoint>
          <Trackpoint>
            <Time>2022-07-10T09:47:41.000Z</Time>
            <Position>
              <LatitudeDegrees>43.28807808458805084228515625</LatitudeDegrees>
              <LongitudeDegrees>-2.1531424485146999359130859375</LongitudeDegrees>
            </Position>
            <AltitudeMeters>41.59999847412109375</AltitudeMeters>
            <DistanceMeters>NAN</DistanceMeters>
          </Trackpoint>
          <Trackpoint>
            <Time>2022-07-10T09:47:48.000Z</Time>
            <Position>
              <LatitudeDegrees>43.28817204572260379791259765625</LatitudeDegrees>
              <LongitudeDegrees>-2.15295544825494289398193359375</LongitudeDegrees>
            </Position>
            <AltitudeMeters>42</AltitudeMeters>
            <DistanceMeters>NAN</DistanceMeters>
          </Trackpoint>
          <Trackpoint>
            <Time>2022-07-10T09:47:49.000Z</Time>
            <Position>
              <LatitudeDegrees>43.28818663023412227630615234375</LatitudeDegrees>
              <LongitudeDegrees>-2.15293667279183864593505859375</LongitudeDegrees>
            </Position>
            <AltitudeMeters>42</AltitudeMeters>
            <DistanceMeters>NAN</DistanceMeters>
          </Trackpoint>
          <Trackpoint>
            <Time>2022-07-10T09:47:55.000Z</Time>
            <Position>
              <LatitudeDegrees>43.28828168101608753204345703125</LatitudeDegrees>
              <LongitudeDegrees>-2.15274833142757415771484375</LongitudeDegrees>
            </Position>
            <AltitudeMeters>42.40000152587890625</AltitudeMeters>
            <DistanceMeters>NAN</DistanceMeters>
          </Trackpoint>
          <Trackpoint>
            <Time>2022-07-10T09:47:56.000Z</Time>
            <Position>
              <LatitudeDegrees>43.28829492442309856414794921875</LatitudeDegrees>
              <LongitudeDegrees>-2.152727544307708740234375</LongitudeDegrees>
            </Position>
            <AltitudeMeters>42.40000152587890625</AltitudeMeters>
            <DistanceMeters>NAN</DistanceMeters>
          </Trackpoint>
          <Trackpoint>
            <Time>2022-07-10T09:48:01.000Z</Time>
            <Position>
              <LatitudeDegrees>43.28836080618202686309814453125</LatitudeDegrees>
              <LongitudeDegrees>-2.15261950157582759857177734375</LongitudeDegrees>
            </Position>
            <AltitudeMeters>43.200000762939453125</AltitudeMeters>
            <DistanceMeters>NAN</DistanceMeters>
          </Trackpoint>
          <Trackpoint>
            <Time>2022-07-10T09:48:05.000Z</Time>
            <Position>
              <LatitudeDegrees>43.288415037095546722412109375</LatitudeDegrees>
              <LongitudeDegrees>-2.15256099589169025421142578125</LongitudeDegrees>
            </Position>
            <AltitudeMeters>43.59999847412109375</AltitudeMeters>
            <DistanceMeters>NAN</DistanceMeters>
          </Trackpoint>
          <Trackpoint>
            <Time>2022-07-10T09:48:09.000Z</Time>
            <Position>
              <LatitudeDegrees>43.28845937736332416534423828125</LatitudeDegrees>
              <LongitudeDegrees>-2.15249159373342990875244140625</LongitudeDegrees>
            </Position>
            <AltitudeMeters>44</AltitudeMeters>
            <DistanceMeters>NAN</DistanceMeters>
          </Trackpoint>
          <Trackpoint>
            <Time>2022-07-10T09:48:13.000Z</Time>
            <Position>
              <LatitudeDegrees>43.28849374316632747650146484375</LatitudeDegrees>
              <LongitudeDegrees>-2.15244331397116184234619140625</LongitudeDegrees>
            </Position>
            <AltitudeMeters>44.59999847412109375</AltitudeMeters>
            <DistanceMeters>NAN</DistanceMeters>
          </Trackpoint>
          <Trackpoint>
            <Time>2022-07-10T09:48:17.000Z</Time>
            <Position>
              <LatitudeDegrees>43.288541100919246673583984375</LatitudeDegrees>
              <LongitudeDegrees>-2.1523907594382762908935546875</LongitudeDegrees>
            </Position>
            <AltitudeMeters>44.799999237060546875</AltitudeMeters>
            <DistanceMeters>NAN</DistanceMeters>
          </Trackpoint>
          <Trackpoint>
            <Time>2022-07-10T09:48:25.000Z</Time>
            <Position>
              <LatitudeDegrees>43.28869122080504894256591796875</LatitudeDegrees>
              <LongitudeDegrees>-2.1522060222923755645751953125</LongitudeDegrees>
            </Position>
            <AltitudeMeters>45.799999237060546875</AltitudeMeters>
            <DistanceMeters>NAN</DistanceMeters>
          </Trackpoint>
          <Trackpoint>
            <Time>2022-07-10T09:48:30.000Z</Time>
            <Position>
              <LatitudeDegrees>43.28875961713492870330810546875</LatitudeDegrees>
              <LongitudeDegrees>-2.1521294116973876953125</LongitudeDegrees>
            </Position>
            <AltitudeMeters>46</AltitudeMeters>
            <DistanceMeters>NAN</DistanceMeters>
          </Trackpoint>
          <Trackpoint>
            <Time>2022-07-10T09:48:32.000Z</Time>
            <Position>
              <LatitudeDegrees>43.28879423439502716064453125</LatitudeDegrees>
              <LongitudeDegrees>-2.15210284106433391571044921875</LongitudeDegrees>
            </Position>
            <AltitudeMeters>46.200000762939453125</AltitudeMeters>
            <DistanceMeters>NAN</DistanceMeters>
          </Trackpoint>
          <Trackpoint>
            <Time>2022-07-10T09:48:39.000Z</Time>
            <Position>
              <LatitudeDegrees>43.28891417942941188812255859375</LatitudeDegrees>
              <LongitudeDegrees>-2.15201474726200103759765625</LongitudeDegrees>
            </Position>
            <AltitudeMeters>46.40000152587890625</AltitudeMeters>
            <DistanceMeters>NAN</DistanceMeters>
          </Trackpoint>
          <Trackpoint>
            <Time>2022-07-10T09:48:48.000Z</Time>
            <Position>
              <LatitudeDegrees>43.28913277946412563323974609375</LatitudeDegrees>
              <LongitudeDegrees>-2.15194769203662872314453125</LongitudeDegrees>
            </Position>
            <AltitudeMeters>46.59999847412109375</AltitudeMeters>
            <DistanceMeters>NAN</DistanceMeters>
          </Trackpoint>
          <Trackpoint>
            <Time>2022-07-10T09:48:53.000Z</Time>
            <Position>
              <LatitudeDegrees>43.28927812166512012481689453125</LatitudeDegrees>
              <LongitudeDegrees>-2.15192313306033611297607421875</LongitudeDegrees>
            </Position>
            <AltitudeMeters>46.40000152587890625</AltitudeMeters>
            <DistanceMeters>NAN</DistanceMeters>
          </Trackpoint>
          <Trackpoint>
            <Time>2022-07-10T09:48:54.000Z</Time>
            <Position>
              <LatitudeDegrees>43.28930527903139591217041015625</LatitudeDegrees>
              <LongitudeDegrees>-2.15192749164998531341552734375</LongitudeDegrees>
            </Position>
            <AltitudeMeters>46.40000152587890625</AltitudeMeters>
            <DistanceMeters>NAN</DistanceMeters>
          </Trackpoint>
          <Trackpoint>
            <Time>2022-07-10T09:49:01.000Z</Time>
            <Position>
              <LatitudeDegrees>43.2895350269973278045654296875</LatitudeDegrees>
              <LongitudeDegrees>-2.1519914455711841583251953125</LongitudeDegrees>
            </Position>
            <AltitudeMeters>46</AltitudeMeters>
            <DistanceMeters>NAN</DistanceMeters>
          </Trackpoint>
          <Trackpoint>
            <Time>2022-07-10T09:49:06.000Z</Time>
            <Position>
              <LatitudeDegrees>43.2896942831575870513916015625</LatitudeDegrees>
              <LongitudeDegrees>-2.15202773921191692352294921875</LongitudeDegrees>
            </Position>
            <AltitudeMeters>45.799999237060546875</AltitudeMeters>
            <DistanceMeters>NAN</DistanceMeters>
          </Trackpoint>
          <Trackpoint>
            <Time>2022-07-10T09:49:08.000Z</Time>
            <Position>
              <LatitudeDegrees>43.28976008109748363494873046875</LatitudeDegrees>
              <LongitudeDegrees>-2.1520511247217655181884765625</LongitudeDegrees>
            </Position>
            <AltitudeMeters>45.799999237060546875</AltitudeMeters>
            <DistanceMeters>NAN</DistanceMeters>
          </Trackpoint>
          <Trackpoint>
            <Time>2022-07-10T09:49:12.000Z</Time>
            <Position>
              <LatitudeDegrees>43.28989754430949687957763671875</LatitudeDegrees>
              <LongitudeDegrees>-2.15207333676517009735107421875</LongitudeDegrees>
            </Position>
            <AltitudeMeters>45.799999237060546875</AltitudeMeters>
            <DistanceMeters>NAN</DistanceMeters>
          </Trackpoint>
          <Trackpoint>
            <Time>2022-07-10T09:49:14.000Z</Time>
            <Position>
              <LatitudeDegrees>43.2899670302867889404296875</LatitudeDegrees>
              <LongitudeDegrees>-2.15209177695214748382568359375</LongitudeDegrees>
            </Position>
            <AltitudeMeters>45.59999847412109375</AltitudeMeters>
            <DistanceMeters>NAN</DistanceMeters>
          </Trackpoint>
          <Trackpoint>
            <Time>2022-07-10T09:49:16.000Z</Time>
            <Position>
              <LatitudeDegrees>43.2900345884263515472412109375</LatitudeDegrees>
              <LongitudeDegrees>-2.15210552327334880828857421875</LongitudeDegrees>
            </Position>
            <AltitudeMeters>45.59999847412109375</AltitudeMeters>
            <DistanceMeters>NAN</DistanceMeters>
          </Trackpoint>
          <Trackpoint>
            <Time>2022-07-10T09:49:22.000Z</Time>
            <Position>
              <LatitudeDegrees>43.29021069221198558807373046875</LatitudeDegrees>
              <LongitudeDegrees>-2.15218917466700077056884765625</LongitudeDegrees>
            </Position>
            <AltitudeMeters>45.59999847412109375</AltitudeMeters>
            <DistanceMeters>NAN</DistanceMeters>
          </Trackpoint>
          <Trackpoint>
            <Time>2022-07-10T09:49:27.000Z</Time>
            <Position>
              <LatitudeDegrees>43.290357291698455810546875</LatitudeDegrees>
              <LongitudeDegrees>-2.15232345275580883026123046875</LongitudeDegrees>
            </Position>
            <AltitudeMeters>45.200000762939453125</AltitudeMeters>
            <DistanceMeters>NAN</DistanceMeters>
          </Trackpoint>
          <Trackpoint>
            <Time>2022-07-10T09:49:33.000Z</Time>
            <Position>
              <LatitudeDegrees>43.29057362861931324005126953125</LatitudeDegrees>
              <LongitudeDegrees>-2.15246661566197872161865234375</LongitudeDegrees>
            </Position>
            <AltitudeMeters>44.59999847412109375</AltitudeMeters>
            <DistanceMeters>NAN</DistanceMeters>
          </Trackpoint>
          <Trackpoint>
            <Time>2022-07-10T09:49:34.000Z</Time>
            <Position>
              <LatitudeDegrees>43.290611766278743743896484375</LatitudeDegrees>
              <LongitudeDegrees>-2.152491174638271331787109375</LongitudeDegrees>
            </Position>
            <AltitudeMeters>44.59999847412109375</AltitudeMeters>
            <DistanceMeters>NAN</DistanceMeters>
          </Trackpoint>
          <Trackpoint>
            <Time>2022-07-10T09:49:39.000Z</Time>
            <Position>
              <LatitudeDegrees>43.29073674045503139495849609375</LatitudeDegrees>
              <LongitudeDegrees>-2.15260273776948451995849609375</LongitudeDegrees>
            </Position>
            <AltitudeMeters>44.200000762939453125</AltitudeMeters>
            <DistanceMeters>NAN</DistanceMeters>
          </Trackpoint>
          <Trackpoint>
            <Time>2022-07-10T09:49:42.000Z</Time>
            <Position>
              <LatitudeDegrees>43.29077370464801788330078125</LatitudeDegrees>
              <LongitudeDegrees>-2.15267834253609180450439453125</LongitudeDegrees>
            </Position>
            <AltitudeMeters>43.59999847412109375</AltitudeMeters>
            <DistanceMeters>NAN</DistanceMeters>
          </Trackpoint>
          <Trackpoint>
            <Time>2022-07-10T09:49:45.000Z</Time>
            <Position>
              <LatitudeDegrees>43.29080681316554546356201171875</LatitudeDegrees>
              <LongitudeDegrees>-2.152763418853282928466796875</LongitudeDegrees>
            </Position>
            <AltitudeMeters>43.200000762939453125</AltitudeMeters>
            <DistanceMeters>NAN</DistanceMeters>
          </Trackpoint>
          <Trackpoint>
            <Time>2022-07-10T09:49:48.000Z</Time>
            <Position>
              <LatitudeDegrees>43.290818296372890472412109375</LatitudeDegrees>
              <LongitudeDegrees>-2.15283013880252838134765625</LongitudeDegrees>
            </Position>
            <AltitudeMeters>42.799999237060546875</AltitudeMeters>
            <DistanceMeters>NAN</DistanceMeters>
          </Trackpoint>
          <Trackpoint>
            <Time>2022-07-10T09:49:50.000Z</Time>
            <Position>
              <LatitudeDegrees>43.290801532566547393798828125</LatitudeDegrees>
              <LongitudeDegrees>-2.1528661809861660003662109375</LongitudeDegrees>
            </Position>
            <AltitudeMeters>42.59999847412109375</AltitudeMeters>
            <DistanceMeters>NAN</DistanceMeters>
          </Trackpoint>
          <Trackpoint>
            <Time>2022-07-10T09:49:52.000Z</Time>
            <Position>
              <LatitudeDegrees>43.29078443348407745361328125</LatitudeDegrees>
              <LongitudeDegrees>-2.152904905378818511962890625</LongitudeDegrees>
            </Position>
            <AltitudeMeters>42.59999847412109375</AltitudeMeters>
            <DistanceMeters>NAN</DistanceMeters>
          </Trackpoint>
          <Trackpoint>
            <Time>2022-07-10T09:49:58.000Z</Time>
            <Position>
              <LatitudeDegrees>43.29074176959693431854248046875</LatitudeDegrees>
              <LongitudeDegrees>-2.1529848687350749969482421875</LongitudeDegrees>
            </Position>
            <AltitudeMeters>42.59999847412109375</AltitudeMeters>
            <DistanceMeters>NAN</DistanceMeters>
          </Trackpoint>
          <Trackpoint>
            <Time>2022-07-10T09:50:00.000Z</Time>
            <Position>
              <LatitudeDegrees>43.29072617925703525543212890625</LatitudeDegrees>
              <LongitudeDegrees>-2.15301387012004852294921875</LongitudeDegrees>
            </Position>
            <AltitudeMeters>42.799999237060546875</AltitudeMeters>
            <DistanceMeters>NAN</DistanceMeters>
          </Trackpoint>
          <Trackpoint>
            <Time>2022-07-10T09:50:04.000Z</Time>
            <Position>
              <LatitudeDegrees>43.2907027937471866607666015625</LatitudeDegrees>
              <LongitudeDegrees>-2.1530666761100292205810546875</LongitudeDegrees>
            </Position>
            <AltitudeMeters>42.799999237060546875</AltitudeMeters>
            <DistanceMeters>NAN</DistanceMeters>
          </Trackpoint>
          <Trackpoint>
            <Time>2022-07-10T09:50:09.000Z</Time>
            <Position>
              <LatitudeDegrees>43.29067722894251346588134765625</LatitudeDegrees>
              <LongitudeDegrees>-2.15312241576611995697021484375</LongitudeDegrees>
            </Position>
            <AltitudeMeters>42.799999237060546875</AltitudeMeters>
            <DistanceMeters>NAN</DistanceMeters>
          </Trackpoint>
          <Trackpoint>
            <Time>2022-07-10T09:50:12.000Z</Time>
            <Position>
              <LatitudeDegrees>43.29065124504268169403076171875</LatitudeDegrees>
              <LongitudeDegrees>-2.1531538479030132293701171875</LongitudeDegrees>
            </Position>
            <AltitudeMeters>42.799999237060546875</AltitudeMeters>
            <DistanceMeters>NAN</DistanceMeters>
          </Trackpoint>
          <Trackpoint>
            <Time>2022-07-10T09:50:22.000Z</Time>
            <Position>
              <LatitudeDegrees>43.29057849012315273284912109375</LatitudeDegrees>
              <LongitudeDegrees>-2.15328720398247241973876953125</LongitudeDegrees>
            </Position>
            <AltitudeMeters>43.200000762939453125</AltitudeMeters>
            <DistanceMeters>NAN</DistanceMeters>
          </Trackpoint>
          <Trackpoint>
            <Time>2022-07-10T09:50:26.000Z</Time>
            <Position>
              <LatitudeDegrees>43.29052769578993320465087890625</LatitudeDegrees>
              <LongitudeDegrees>-2.15339533053338527679443359375</LongitudeDegrees>
            </Position>
            <AltitudeMeters>43.59999847412109375</AltitudeMeters>
            <DistanceMeters>NAN</DistanceMeters>
          </Trackpoint>
          <Trackpoint>
            <Time>2022-07-10T09:50:27.000Z</Time>
            <Position>
              <LatitudeDegrees>43.29051646403968334197998046875</LatitudeDegrees>
              <LongitudeDegrees>-2.153418548405170440673828125</LongitudeDegrees>
            </Position>
            <AltitudeMeters>43.799999237060546875</AltitudeMeters>
            <DistanceMeters>NAN</DistanceMeters>
          </Trackpoint>
          <Trackpoint>
            <Time>2022-07-10T09:50:34.000Z</Time>
            <Position>
              <LatitudeDegrees>43.290427364408969879150390625</LatitudeDegrees>
              <LongitudeDegrees>-2.1535845100879669189453125</LongitudeDegrees>
            </Position>
            <AltitudeMeters>44.200000762939453125</AltitudeMeters>
            <DistanceMeters>NAN</DistanceMeters>
          </Trackpoint>
          <Trackpoint>
            <Time>2022-07-10T09:50:38.000Z</Time>
            <Position>
              <LatitudeDegrees>43.2903758995234966278076171875</LatitudeDegrees>
              <LongitudeDegrees>-2.1536832489073276519775390625</LongitudeDegrees>
            </Position>
            <AltitudeMeters>44.200000762939453125</AltitudeMeters>
            <DistanceMeters>NAN</DistanceMeters>
          </Trackpoint>
          <Trackpoint>
            <Time>2022-07-10T09:50:42.000Z</Time>
            <Position>
              <LatitudeDegrees>43.29032569192349910736083984375</LatitudeDegrees>
              <LongitudeDegrees>-2.153777964413166046142578125</LongitudeDegrees>
            </Position>
            <AltitudeMeters>44.40000152587890625</AltitudeMeters>
            <DistanceMeters>NAN</DistanceMeters>
          </Trackpoint>
          <Trackpoint>
            <Time>2022-07-10T09:50:47.000Z</Time>
            <Position>
              <LatitudeDegrees>43.2902655936777591705322265625</LatitudeDegrees>
              <LongitudeDegrees>-2.15391584672033786773681640625</LongitudeDegrees>
            </Position>
            <AltitudeMeters>44.59999847412109375</AltitudeMeters>
            <DistanceMeters>NAN</DistanceMeters>
          </Trackpoint>
          <Trackpoint>
            <Time>2022-07-10T09:50:50.000Z</Time>
            <Position>
              <LatitudeDegrees>43.2902354188263416290283203125</LatitudeDegrees>
              <LongitudeDegrees>-2.1539886854588985443115234375</LongitudeDegrees>
            </Position>
            <AltitudeMeters>44.799999237060546875</AltitudeMeters>
            <DistanceMeters>NAN</DistanceMeters>
          </Trackpoint>
          <Trackpoint>
            <Time>2022-07-10T09:51:01.000Z</Time>
            <Position>
              <LatitudeDegrees>43.2901254482567310333251953125</LatitudeDegrees>
              <LongitudeDegrees>-2.15427945367991924285888671875</LongitudeDegrees>
            </Position>
            <AltitudeMeters>45.200000762939453125</AltitudeMeters>
            <DistanceMeters>NAN</DistanceMeters>
          </Trackpoint>
          <Trackpoint>
            <Time>2022-07-10T09:51:11.000Z</Time>
            <Position>
              <LatitudeDegrees>43.2900573872029781341552734375</LatitudeDegrees>
              <LongitudeDegrees>-2.1545274741947650909423828125</LongitudeDegrees>
            </Position>
            <AltitudeMeters>45.40000152587890625</AltitudeMeters>
            <DistanceMeters>NAN</DistanceMeters>
          </Trackpoint>
          <Trackpoint>
            <Time>2022-07-10T09:51:20.000Z</Time>
            <Position>
              <LatitudeDegrees>43.2900072634220123291015625</LatitudeDegrees>
              <LongitudeDegrees>-2.1548558771610260009765625</LongitudeDegrees>
            </Position>
            <AltitudeMeters>44.799999237060546875</AltitudeMeters>
            <DistanceMeters>NAN</DistanceMeters>
          </Trackpoint>
          <Trackpoint>
            <Time>2022-07-10T09:51:27.000Z</Time>
            <Position>
              <LatitudeDegrees>43.2899728976190090179443359375</LatitudeDegrees>
              <LongitudeDegrees>-2.15503768064081668853759765625</LongitudeDegrees>
            </Position>
            <AltitudeMeters>44.200000762939453125</AltitudeMeters>
            <DistanceMeters>NAN</DistanceMeters>
          </Trackpoint>
          <Trackpoint>
            <Time>2022-07-10T09:51:35.000Z</Time>
            <Position>
              <LatitudeDegrees>43.289941214025020599365234375</LatitudeDegrees>
              <LongitudeDegrees>-2.1552298776805400848388671875</LongitudeDegrees>
            </Position>
            <AltitudeMeters>44</AltitudeMeters>
            <DistanceMeters>NAN</DistanceMeters>
          </Trackpoint>
          <Trackpoint>
            <Time>2022-07-10T09:51:36.000Z</Time>
            <Position>
              <LatitudeDegrees>43.2899333350360393524169921875</LatitudeDegrees>
              <LongitudeDegrees>-2.15526198036968708038330078125</LongitudeDegrees>
            </Position>
            <AltitudeMeters>44</AltitudeMeters>
            <DistanceMeters>NAN</DistanceMeters>
          </Trackpoint>
          <Trackpoint>
            <Time>2022-07-10T09:51:40.000Z</Time>
            <Position>
              <LatitudeDegrees>43.28990056179463863372802734375</LatitudeDegrees>
              <LongitudeDegrees>-2.155410759150981903076171875</LongitudeDegrees>
            </Position>
            <AltitudeMeters>44.200000762939453125</AltitudeMeters>
            <DistanceMeters>NAN</DistanceMeters>
          </Trackpoint>
          <Trackpoint>
            <Time>2022-07-10T09:51:47.000Z</Time>
            <Position>
              <LatitudeDegrees>43.28984792344272136688232421875</LatitudeDegrees>
              <LongitudeDegrees>-2.1556700952351093292236328125</LongitudeDegrees>
            </Position>
            <AltitudeMeters>44.59999847412109375</AltitudeMeters>
            <DistanceMeters>NAN</DistanceMeters>
          </Trackpoint>
          <Trackpoint>
            <Time>2022-07-10T09:51:58.000Z</Time>
            <Position>
              <LatitudeDegrees>43.28977399505674839019775390625</LatitudeDegrees>
              <LongitudeDegrees>-2.156043089926242828369140625</LongitudeDegrees>
            </Position>
            <AltitudeMeters>44.59999847412109375</AltitudeMeters>
            <DistanceMeters>NAN</DistanceMeters>
          </Trackpoint>
          <Trackpoint>
            <Time>2022-07-10T09:52:02.000Z</Time>
            <Position>
              <LatitudeDegrees>43.28973292373120784759521484375</LatitudeDegrees>
              <LongitudeDegrees>-2.156202681362628936767578125</LongitudeDegrees>
            </Position>
            <AltitudeMeters>44.40000152587890625</AltitudeMeters>
            <DistanceMeters>NAN</DistanceMeters>
          </Trackpoint>
          <Trackpoint>
            <Time>2022-07-10T09:52:08.000Z</Time>
            <Position>
              <LatitudeDegrees>43.28966100700199604034423828125</LatitudeDegrees>
              <LongitudeDegrees>-2.15643762610852718353271484375</LongitudeDegrees>
            </Position>
            <AltitudeMeters>44</AltitudeMeters>
            <DistanceMeters>NAN</DistanceMeters>
          </Trackpoint>
          <Trackpoint>
            <Time>2022-07-10T09:52:16.000Z</Time>
            <Position>
              <LatitudeDegrees>43.28959948383271694183349609375</LatitudeDegrees>
              <LongitudeDegrees>-2.15675328858196735382080078125</LongitudeDegrees>
            </Position>
            <AltitudeMeters>44.40000152587890625</AltitudeMeters>
            <DistanceMeters>NAN</DistanceMeters>
          </Trackpoint>
          <Trackpoint>
            <Time>2022-07-10T09:52:22.000Z</Time>
            <Position>
              <LatitudeDegrees>43.2895628549158573150634765625</LatitudeDegrees>
              <LongitudeDegrees>-2.1570008061826229095458984375</LongitudeDegrees>
            </Position>
            <AltitudeMeters>44.59999847412109375</AltitudeMeters>
            <DistanceMeters>NAN</DistanceMeters>
          </Trackpoint>
          <Trackpoint>
            <Time>2022-07-10T09:52:25.000Z</Time>
            <Position>
              <LatitudeDegrees>43.2895561493933200836181640625</LatitudeDegrees>
              <LongitudeDegrees>-2.1571225114166736602783203125</LongitudeDegrees>
            </Position>
            <AltitudeMeters>44.200000762939453125</AltitudeMeters>
            <DistanceMeters>NAN</DistanceMeters>
          </Trackpoint>
          <Trackpoint>
            <Time>2022-07-10T09:52:26.000Z</Time>
            <Position>
              <LatitudeDegrees>43.2895534671843051910400390625</LatitudeDegrees>
              <LongitudeDegrees>-2.15715385973453521728515625</LongitudeDegrees>
            </Position>
            <AltitudeMeters>44.200000762939453125</AltitudeMeters>
            <DistanceMeters>NAN</DistanceMeters>
          </Trackpoint>
          <Trackpoint>
            <Time>2022-07-10T09:52:32.000Z</Time>
            <Position>
              <LatitudeDegrees>43.28952019102871417999267578125</LatitudeDegrees>
              <LongitudeDegrees>-2.15732577256858348846435546875</LongitudeDegrees>
            </Position>
            <AltitudeMeters>44</AltitudeMeters>
            <DistanceMeters>NAN</DistanceMeters>
          </Trackpoint>
          <Trackpoint>
            <Time>2022-07-10T09:52:41.000Z</Time>
            <Position>
              <LatitudeDegrees>43.289469815790653228759765625</LatitudeDegrees>
              <LongitudeDegrees>-2.15769222937524318695068359375</LongitudeDegrees>
            </Position>
            <AltitudeMeters>45</AltitudeMeters>
            <DistanceMeters>NAN</DistanceMeters>
          </Trackpoint>
          <Trackpoint>
            <Time>2022-07-10T09:52:51.000Z</Time>
            <Position>
              <LatitudeDegrees>43.2894076220691204071044921875</LatitudeDegrees>
              <LongitudeDegrees>-2.1580951474606990814208984375</LongitudeDegrees>
            </Position>
            <AltitudeMeters>45.200000762939453125</AltitudeMeters>
            <DistanceMeters>NAN</DistanceMeters>
          </Trackpoint>
          <Trackpoint>
            <Time>2022-07-10T09:52:59.000Z</Time>
            <Position>
              <LatitudeDegrees>43.28936043195426464080810546875</LatitudeDegrees>
              <LongitudeDegrees>-2.15837032534182071685791015625</LongitudeDegrees>
            </Position>
            <AltitudeMeters>45.200000762939453125</AltitudeMeters>
            <DistanceMeters>NAN</DistanceMeters>
          </Trackpoint>
          <Trackpoint>
            <Time>2022-07-10T09:53:07.000Z</Time>
            <Position>
              <LatitudeDegrees>43.2893023453652858734130859375</LatitudeDegrees>
              <LongitudeDegrees>-2.15870208106935024261474609375</LongitudeDegrees>
            </Position>
            <AltitudeMeters>44.59999847412109375</AltitudeMeters>
            <DistanceMeters>NAN</DistanceMeters>
          </Trackpoint>
          <Trackpoint>
            <Time>2022-07-10T09:53:13.000Z</Time>
            <Position>
              <LatitudeDegrees>43.28925062902271747589111328125</LatitudeDegrees>
              <LongitudeDegrees>-2.15891607105731964111328125</LongitudeDegrees>
            </Position>
            <AltitudeMeters>43.799999237060546875</AltitudeMeters>
            <DistanceMeters>NAN</DistanceMeters>
          </Trackpoint>
          <Trackpoint>
            <Time>2022-07-10T09:53:15.000Z</Time>
            <Position>
              <LatitudeDegrees>43.28923822380602359771728515625</LatitudeDegrees>
              <LongitudeDegrees>-2.15897633694112300872802734375</LongitudeDegrees>
            </Position>
            <AltitudeMeters>43.799999237060546875</AltitudeMeters>
            <DistanceMeters>NAN</DistanceMeters>
          </Trackpoint>
          <Trackpoint>
            <Time>2022-07-10T09:53:16.000Z</Time>
            <Position>
              <LatitudeDegrees>43.28923017717897891998291015625</LatitudeDegrees>
              <LongitudeDegrees>-2.15902143158018589019775390625</LongitudeDegrees>
            </Position>
            <AltitudeMeters>43.59999847412109375</AltitudeMeters>
            <DistanceMeters>NAN</DistanceMeters>
          </Trackpoint>
          <Trackpoint>
            <Time>2022-07-10T09:53:23.000Z</Time>
            <Position>
              <LatitudeDegrees>43.28916345722973346710205078125</LatitudeDegrees>
              <LongitudeDegrees>-2.15929032303392887115478515625</LongitudeDegrees>
            </Position>
            <AltitudeMeters>43.59999847412109375</AltitudeMeters>
            <DistanceMeters>NAN</DistanceMeters>
          </Trackpoint>
          <Trackpoint>
            <Time>2022-07-10T09:53:25.000Z</Time>
            <Position>
              <LatitudeDegrees>43.28914702869951725006103515625</LatitudeDegrees>
              <LongitudeDegrees>-2.159365005791187286376953125</LongitudeDegrees>
            </Position>
            <AltitudeMeters>43.59999847412109375</AltitudeMeters>
            <DistanceMeters>NAN</DistanceMeters>
          </Trackpoint>
          <Trackpoint>
            <Time>2022-07-10T09:53:34.000Z</Time>
            <Position>
              <LatitudeDegrees>43.2890777103602886199951171875</LatitudeDegrees>
              <LongitudeDegrees>-2.15963892638683319091796875</LongitudeDegrees>
            </Position>
            <AltitudeMeters>44.200000762939453125</AltitudeMeters>
            <DistanceMeters>NAN</DistanceMeters>
          </Trackpoint>
          <Trackpoint>
            <Time>2022-07-10T09:53:39.000Z</Time>
            <Position>
              <LatitudeDegrees>43.289042674005031585693359375</LatitudeDegrees>
              <LongitudeDegrees>-2.15978770516812801361083984375</LongitudeDegrees>
            </Position>
            <AltitudeMeters>44.59999847412109375</AltitudeMeters>
            <DistanceMeters>NAN</DistanceMeters>
          </Trackpoint>
          <Trackpoint>
            <Time>2022-07-10T09:53:41.000Z</Time>
            <Position>
              <LatitudeDegrees>43.28902465291321277618408203125</LatitudeDegrees>
              <LongitudeDegrees>-2.1598543412983417510986328125</LongitudeDegrees>
            </Position>
            <AltitudeMeters>44.59999847412109375</AltitudeMeters>
            <DistanceMeters>NAN</DistanceMeters>
          </Trackpoint>
          <Trackpoint>
            <Time>2022-07-10T09:53:44.000Z</Time>
            <Position>
              <LatitudeDegrees>43.28900034539401531219482421875</LatitudeDegrees>
              <LongitudeDegrees>-2.159944362938404083251953125</LongitudeDegrees>
            </Position>
            <AltitudeMeters>44.799999237060546875</AltitudeMeters>
            <DistanceMeters>NAN</DistanceMeters>
          </Trackpoint>
          <Trackpoint>
            <Time>2022-07-10T09:53:50.000Z</Time>
            <Position>
              <LatitudeDegrees>43.28895944170653820037841796875</LatitudeDegrees>
              <LongitudeDegrees>-2.16015399433672428131103515625</LongitudeDegrees>
            </Position>
            <AltitudeMeters>44.799999237060546875</AltitudeMeters>
            <DistanceMeters>NAN</DistanceMeters>
          </Trackpoint>
          <Trackpoint>
            <Time>2022-07-10T09:53:54.000Z</Time>
            <Position>
              <LatitudeDegrees>43.288956843316555023193359375</LatitudeDegrees>
              <LongitudeDegrees>-2.1602979116141796112060546875</LongitudeDegrees>
            </Position>
            <AltitudeMeters>44.59999847412109375</AltitudeMeters>
            <DistanceMeters>NAN</DistanceMeters>
          </Trackpoint>
          <Trackpoint>
            <Time>2022-07-10T09:54:01.000Z</Time>
            <Position>
              <LatitudeDegrees>43.2889482937753200531005859375</LatitudeDegrees>
              <LongitudeDegrees>-2.16051726602017879486083984375</LongitudeDegrees>
            </Position>
            <AltitudeMeters>43.59999847412109375</AltitudeMeters>
            <DistanceMeters>NAN</DistanceMeters>
          </Trackpoint>
          <Trackpoint>
            <Time>2022-07-10T09:54:07.000Z</Time>
            <Position>
              <LatitudeDegrees>43.28894770704209804534912109375</LatitudeDegrees>
              <LongitudeDegrees>-2.16061349026858806610107421875</LongitudeDegrees>
            </Position>
            <AltitudeMeters>43.200000762939453125</AltitudeMeters>
            <DistanceMeters>NAN</DistanceMeters>
          </Trackpoint>
          <Trackpoint>
            <Time>2022-07-10T09:54:12.000Z</Time>
            <Position>
              <LatitudeDegrees>43.2889362238347530364990234375</LatitudeDegrees>
              <LongitudeDegrees>-2.1607552282512187957763671875</LongitudeDegrees>
            </Position>
            <AltitudeMeters>42.799999237060546875</AltitudeMeters>
            <DistanceMeters>NAN</DistanceMeters>
          </Trackpoint>
          <Trackpoint>
            <Time>2022-07-10T09:54:14.000Z</Time>
            <Position>
              <LatitudeDegrees>43.28894921578466892242431640625</LatitudeDegrees>
              <LongitudeDegrees>-2.1608212776482105255126953125</LongitudeDegrees>
            </Position>
            <AltitudeMeters>42.59999847412109375</AltitudeMeters>
            <DistanceMeters>NAN</DistanceMeters>
          </Trackpoint>
          <Trackpoint>
            <Time>2022-07-10T09:54:17.000Z</Time>
            <Position>
              <LatitudeDegrees>43.28895910643041133880615234375</LatitudeDegrees>
              <LongitudeDegrees>-2.16092797927558422088623046875</LongitudeDegrees>
            </Position>
            <AltitudeMeters>42</AltitudeMeters>
            <DistanceMeters>NAN</DistanceMeters>
          </Trackpoint>
          <Trackpoint>
            <Time>2022-07-10T09:54:18.000Z</Time>
            <Position>
              <LatitudeDegrees>43.2889610342681407928466796875</LatitudeDegrees>
              <LongitudeDegrees>-2.16095278970897197723388671875</LongitudeDegrees>
            </Position>
            <AltitudeMeters>42</AltitudeMeters>
            <DistanceMeters>NAN</DistanceMeters>
          </Trackpoint>
          <Trackpoint>
            <Time>2022-07-10T09:54:21.000Z</Time>
            <Position>
              <LatitudeDegrees>43.28896715305745601654052734375</LatitudeDegrees>
              <LongitudeDegrees>-2.16105354018509387969970703125</LongitudeDegrees>
            </Position>
            <AltitudeMeters>41.40000152587890625</AltitudeMeters>
            <DistanceMeters>NAN</DistanceMeters>
          </Trackpoint>
          <Trackpoint>
            <Time>2022-07-10T09:54:24.000Z</Time>
            <Position>
              <LatitudeDegrees>43.28895491547882556915283203125</LatitudeDegrees>
              <LongitudeDegrees>-2.16115009970963001251220703125</LongitudeDegrees>
            </Position>
            <AltitudeMeters>41</AltitudeMeters>
            <DistanceMeters>NAN</DistanceMeters>
          </Trackpoint>
          <Trackpoint>
            <Time>2022-07-10T09:54:26.000Z</Time>
            <Position>
              <LatitudeDegrees>43.288929350674152374267578125</LatitudeDegrees>
              <LongitudeDegrees>-2.1612153947353363037109375</LongitudeDegrees>
            </Position>
            <AltitudeMeters>40.59999847412109375</AltitudeMeters>
            <DistanceMeters>NAN</DistanceMeters>
          </Trackpoint>
          <Trackpoint>
            <Time>2022-07-10T09:54:30.000Z</Time>
            <Position>
              <LatitudeDegrees>43.288896493613719940185546875</LatitudeDegrees>
              <LongitudeDegrees>-2.16136752627789974212646484375</LongitudeDegrees>
            </Position>
            <AltitudeMeters>40.200000762939453125</AltitudeMeters>
            <DistanceMeters>NAN</DistanceMeters>
          </Trackpoint>
          <Trackpoint>
            <Time>2022-07-10T09:54:31.000Z</Time>
            <Position>
              <LatitudeDegrees>43.28889020718634128570556640625</LatitudeDegrees>
              <LongitudeDegrees>-2.1614053286612033843994140625</LongitudeDegrees>
            </Position>
            <AltitudeMeters>40</AltitudeMeters>
            <DistanceMeters>NAN</DistanceMeters>
          </Trackpoint>
          <Trackpoint>
            <Time>2022-07-10T09:54:37.000Z</Time>
            <Position>
              <LatitudeDegrees>43.2888634689152240753173828125</LatitudeDegrees>
              <LongitudeDegrees>-2.16162585653364658355712890625</LongitudeDegrees>
            </Position>
            <AltitudeMeters>39.40000152587890625</AltitudeMeters>
            <DistanceMeters>NAN</DistanceMeters>
          </Trackpoint>
          <Trackpoint>
            <Time>2022-07-10T09:54:39.000Z</Time>
            <Position>
              <LatitudeDegrees>43.28884645365178585052490234375</LatitudeDegrees>
              <LongitudeDegrees>-2.16167262755334377288818359375</LongitudeDegrees>
            </Position>
            <AltitudeMeters>39.200000762939453125</AltitudeMeters>
            <DistanceMeters>NAN</DistanceMeters>
          </Trackpoint>
          <Trackpoint>
            <Time>2022-07-10T09:54:41.000Z</Time>
            <Position>
              <LatitudeDegrees>43.2888165302574634552001953125</LatitudeDegrees>
              <LongitudeDegrees>-2.1617043949663639068603515625</LongitudeDegrees>
            </Position>
            <AltitudeMeters>39.200000762939453125</AltitudeMeters>
            <DistanceMeters>NAN</DistanceMeters>
          </Trackpoint>
          <Trackpoint>
            <Time>2022-07-10T09:54:46.000Z</Time>
            <Position>
              <LatitudeDegrees>43.28873832710087299346923828125</LatitudeDegrees>
              <LongitudeDegrees>-2.16185619123280048370361328125</LongitudeDegrees>
            </Position>
            <AltitudeMeters>39</AltitudeMeters>
            <DistanceMeters>NAN</DistanceMeters>
          </Trackpoint>
          <Trackpoint>
            <Time>2022-07-10T09:54:48.000Z</Time>
            <Position>
              <LatitudeDegrees>43.28872391022741794586181640625</LatitudeDegrees>
              <LongitudeDegrees>-2.1619524993002414703369140625</LongitudeDegrees>
            </Position>
            <AltitudeMeters>38.799999237060546875</AltitudeMeters>
            <DistanceMeters>NAN</DistanceMeters>
          </Trackpoint>
          <Trackpoint>
            <Time>2022-07-10T09:54:51.000Z</Time>
            <Position>
              <LatitudeDegrees>43.28869591467082500457763671875</LatitudeDegrees>
              <LongitudeDegrees>-2.16211971826851367950439453125</LongitudeDegrees>
            </Position>
            <AltitudeMeters>38</AltitudeMeters>
            <DistanceMeters>NAN</DistanceMeters>
          </Trackpoint>
          <Trackpoint>
            <Time>2022-07-10T09:54:52.000Z</Time>
            <Position>
              <LatitudeDegrees>43.288693316280841827392578125</LatitudeDegrees>
              <LongitudeDegrees>-2.16215810738503932952880859375</LongitudeDegrees>
            </Position>
            <AltitudeMeters>37.799999237060546875</AltitudeMeters>
            <DistanceMeters>NAN</DistanceMeters>
          </Trackpoint>
          <Trackpoint>
            <Time>2022-07-10T09:54:56.000Z</Time>
            <Position>
              <LatitudeDegrees>43.288727514445781707763671875</LatitudeDegrees>
              <LongitudeDegrees>-2.16233965940773487091064453125</LongitudeDegrees>
            </Position>
            <AltitudeMeters>37.200000762939453125</AltitudeMeters>
            <DistanceMeters>NAN</DistanceMeters>
          </Trackpoint>
          <Trackpoint>
            <Time>2022-07-10T09:54:59.000Z</Time>
            <Position>
              <LatitudeDegrees>43.288746289908885955810546875</LatitudeDegrees>
              <LongitudeDegrees>-2.16243856586515903472900390625</LongitudeDegrees>
            </Position>
            <AltitudeMeters>37</AltitudeMeters>
            <DistanceMeters>NAN</DistanceMeters>
          </Trackpoint>
          <Trackpoint>
            <Time>2022-07-10T09:55:00.000Z</Time>
            <Position>
              <LatitudeDegrees>43.288739584386348724365234375</LatitudeDegrees>
              <LongitudeDegrees>-2.1624733507633209228515625</LongitudeDegrees>
            </Position>
            <AltitudeMeters>37</AltitudeMeters>
            <DistanceMeters>NAN</DistanceMeters>
          </Trackpoint>
          <Trackpoint>
            <Time>2022-07-10T09:55:01.000Z</Time>
            <Position>
              <LatitudeDegrees>43.2887286879122257232666015625</LatitudeDegrees>
              <LongitudeDegrees>-2.16251333244144916534423828125</LongitudeDegrees>
            </Position>
            <AltitudeMeters>37</AltitudeMeters>
            <DistanceMeters>NAN</DistanceMeters>
          </Trackpoint>
          <Trackpoint>
            <Time>2022-07-10T09:55:03.000Z</Time>
            <Position>
              <LatitudeDegrees>43.2887105830013751983642578125</LatitudeDegrees>
              <LongitudeDegrees>-2.16257284395396709442138671875</LongitudeDegrees>
            </Position>
            <AltitudeMeters>36.799999237060546875</AltitudeMeters>
            <DistanceMeters>NAN</DistanceMeters>
          </Trackpoint>
          <Trackpoint>
            <Time>2022-07-10T09:55:09.000Z</Time>
            <Position>
              <LatitudeDegrees>43.28865266405045986175537109375</LatitudeDegrees>
              <LongitudeDegrees>-2.16277233324944972991943359375</LongitudeDegrees>
            </Position>
            <AltitudeMeters>36.59999847412109375</AltitudeMeters>
            <DistanceMeters>NAN</DistanceMeters>
          </Trackpoint>
          <Trackpoint>
            <Time>2022-07-10T09:55:10.000Z</Time>
            <Position>
              <LatitudeDegrees>43.28863422386348247528076171875</LatitudeDegrees>
              <LongitudeDegrees>-2.16279597021639347076416015625</LongitudeDegrees>
            </Position>
            <AltitudeMeters>36.59999847412109375</AltitudeMeters>
            <DistanceMeters>NAN</DistanceMeters>
          </Trackpoint>
          <Trackpoint>
            <Time>2022-07-10T09:55:13.000Z</Time>
            <Position>
              <LatitudeDegrees>43.28857957385480403900146484375</LatitudeDegrees>
              <LongitudeDegrees>-2.16283218003809452056884765625</LongitudeDegrees>
            </Position>
            <AltitudeMeters>36.59999847412109375</AltitudeMeters>
            <DistanceMeters>NAN</DistanceMeters>
          </Trackpoint>
          <Trackpoint>
            <Time>2022-07-10T09:55:18.000Z</Time>
            <Position>
              <LatitudeDegrees>43.2884785719215869903564453125</LatitudeDegrees>
              <LongitudeDegrees>-2.162882052361965179443359375</LongitudeDegrees>
            </Position>
            <AltitudeMeters>36.59999847412109375</AltitudeMeters>
            <DistanceMeters>NAN</DistanceMeters>
          </Trackpoint>
          <Trackpoint>
            <Time>2022-07-10T09:55:24.000Z</Time>
            <Position>
              <LatitudeDegrees>43.288444541394710540771484375</LatitudeDegrees>
              <LongitudeDegrees>-2.16305245645344257354736328125</LongitudeDegrees>
            </Position>
            <AltitudeMeters>37</AltitudeMeters>
            <DistanceMeters>NAN</DistanceMeters>
          </Trackpoint>
          <Trackpoint>
            <Time>2022-07-10T09:55:31.000Z</Time>
            <Position>
              <LatitudeDegrees>43.28840170986950397491455078125</LatitudeDegrees>
              <LongitudeDegrees>-2.1632037498056888580322265625</LongitudeDegrees>
            </Position>
            <AltitudeMeters>37.59999847412109375</AltitudeMeters>
            <DistanceMeters>NAN</DistanceMeters>
          </Trackpoint>
          <Trackpoint>
            <Time>2022-07-10T09:55:35.000Z</Time>
            <Position>
              <LatitudeDegrees>43.2883464731276035308837890625</LatitudeDegrees>
              <LongitudeDegrees>-2.16323099099099636077880859375</LongitudeDegrees>
            </Position>
            <AltitudeMeters>37.799999237060546875</AltitudeMeters>
            <DistanceMeters>NAN</DistanceMeters>
          </Trackpoint>
          <Trackpoint>
            <Time>2022-07-10T09:55:36.000Z</Time>
            <Position>
              <LatitudeDegrees>43.28833079896867275238037109375</LatitudeDegrees>
              <LongitudeDegrees>-2.1632282249629497528076171875</LongitudeDegrees>
            </Position>
            <AltitudeMeters>38</AltitudeMeters>
            <DistanceMeters>NAN</DistanceMeters>
          </Trackpoint>
          <Trackpoint>
            <Time>2022-07-10T09:55:37.000Z</Time>
            <Position>
              <LatitudeDegrees>43.2883176393806934356689453125</LatitudeDegrees>
              <LongitudeDegrees>-2.16322780586779117584228515625</LongitudeDegrees>
            </Position>
            <AltitudeMeters>38</AltitudeMeters>
            <DistanceMeters>NAN</DistanceMeters>
          </Trackpoint>
          <Trackpoint>
            <Time>2022-07-10T09:55:40.000Z</Time>
            <Position>
              <LatitudeDegrees>43.28828000463545322418212890625</LatitudeDegrees>
              <LongitudeDegrees>-2.16323752887547016143798828125</LongitudeDegrees>
            </Position>
            <AltitudeMeters>38.40000152587890625</AltitudeMeters>
            <DistanceMeters>NAN</DistanceMeters>
          </Trackpoint>
          <Trackpoint>
            <Time>2022-07-10T09:55:42.000Z</Time>
            <Position>
              <LatitudeDegrees>43.28825703822076320648193359375</LatitudeDegrees>
              <LongitudeDegrees>-2.163234092295169830322265625</LongitudeDegrees>
            </Position>
            <AltitudeMeters>38.59999847412109375</AltitudeMeters>
            <DistanceMeters>NAN</DistanceMeters>
          </Trackpoint>
          <Trackpoint>
            <Time>2022-07-10T09:55:46.000Z</Time>
            <Position>
              <LatitudeDegrees>43.28819987364113330841064453125</LatitudeDegrees>
              <LongitudeDegrees>-2.16324524022638797760009765625</LongitudeDegrees>
            </Position>
            <AltitudeMeters>38.799999237060546875</AltitudeMeters>
            <DistanceMeters>NAN</DistanceMeters>
          </Trackpoint>
          <Trackpoint>
            <Time>2022-07-10T09:55:47.000Z</Time>
            <Position>
              <LatitudeDegrees>43.288185708224773406982421875</LatitudeDegrees>
              <LongitudeDegrees>-2.16324649751186370849609375</LongitudeDegrees>
            </Position>
            <AltitudeMeters>39</AltitudeMeters>
            <DistanceMeters>NAN</DistanceMeters>
          </Trackpoint>
          <Trackpoint>
            <Time>2022-07-10T09:55:48.000Z</Time>
            <Position>
              <LatitudeDegrees>43.2881704531610012054443359375</LatitudeDegrees>
              <LongitudeDegrees>-2.16324322856962680816650390625</LongitudeDegrees>
            </Position>
            <AltitudeMeters>39.200000762939453125</AltitudeMeters>
            <DistanceMeters>NAN</DistanceMeters>
          </Trackpoint>
          <Trackpoint>
            <Time>2022-07-10T09:55:54.000Z</Time>
            <Position>
              <LatitudeDegrees>43.28810968436300754547119140625</LatitudeDegrees>
              <LongitudeDegrees>-2.163262255489826202392578125</LongitudeDegrees>
            </Position>
            <AltitudeMeters>39.59999847412109375</AltitudeMeters>
            <DistanceMeters>NAN</DistanceMeters>
          </Trackpoint>
          <Trackpoint>
            <Time>2022-07-10T09:55:56.000Z</Time>
            <Position>
              <LatitudeDegrees>43.28808336518704891204833984375</LatitudeDegrees>
              <LongitudeDegrees>-2.16328145004808902740478515625</LongitudeDegrees>
            </Position>
            <AltitudeMeters>39.799999237060546875</AltitudeMeters>
            <DistanceMeters>NAN</DistanceMeters>
          </Trackpoint>
          <Trackpoint>
            <Time>2022-07-10T09:56:00.000Z</Time>
            <Position>
              <LatitudeDegrees>43.2880574651062488555908203125</LatitudeDegrees>
              <LongitudeDegrees>-2.1633381955325603485107421875</LongitudeDegrees>
            </Position>
            <AltitudeMeters>39.799999237060546875</AltitudeMeters>
            <DistanceMeters>NAN</DistanceMeters>
          </Trackpoint>
          <Trackpoint>
            <Time>2022-07-10T09:56:01.000Z</Time>
            <Position>
              <LatitudeDegrees>43.2880551181733608245849609375</LatitudeDegrees>
              <LongitudeDegrees>-2.16335001401603221893310546875</LongitudeDegrees>
            </Position>
            <AltitudeMeters>39.799999237060546875</AltitudeMeters>
            <DistanceMeters>NAN</DistanceMeters>
          </Trackpoint>
          <Trackpoint>
            <Time>2022-07-10T09:56:10.000Z</Time>
            <Position>
              <LatitudeDegrees>43.28801496885716915130615234375</LatitudeDegrees>
              <LongitudeDegrees>-2.163565345108509063720703125</LongitudeDegrees>
            </Position>
            <AltitudeMeters>39.59999847412109375</AltitudeMeters>
            <DistanceMeters>NAN</DistanceMeters>
          </Trackpoint>
          <Trackpoint>
            <Time>2022-07-10T09:56:16.000Z</Time>
            <Position>
              <LatitudeDegrees>43.28797540627419948577880859375</LatitudeDegrees>
              <LongitudeDegrees>-2.16372166760265827178955078125</LongitudeDegrees>
            </Position>
            <AltitudeMeters>39.40000152587890625</AltitudeMeters>
            <DistanceMeters>NAN</DistanceMeters>
          </Trackpoint>
          <Trackpoint>
            <Time>2022-07-10T09:56:22.000Z</Time>
            <Position>
              <LatitudeDegrees>43.28795612789690494537353515625</LatitudeDegrees>
              <LongitudeDegrees>-2.163836918771266937255859375</LongitudeDegrees>
            </Position>
            <AltitudeMeters>39.200000762939453125</AltitudeMeters>
            <DistanceMeters>NAN</DistanceMeters>
          </Trackpoint>
          <Trackpoint>
            <Time>2022-07-10T09:56:26.000Z</Time>
            <Position>
              <LatitudeDegrees>43.28793668188154697418212890625</LatitudeDegrees>
              <LongitudeDegrees>-2.16393372975289821624755859375</LongitudeDegrees>
            </Position>
            <AltitudeMeters>39.200000762939453125</AltitudeMeters>
            <DistanceMeters>NAN</DistanceMeters>
          </Trackpoint>
          <Trackpoint>
            <Time>2022-07-10T09:56:30.000Z</Time>
            <Position>
              <LatitudeDegrees>43.2879231870174407958984375</LatitudeDegrees>
              <LongitudeDegrees>-2.1640369109809398651123046875</LongitudeDegrees>
            </Position>
            <AltitudeMeters>39.200000762939453125</AltitudeMeters>
            <DistanceMeters>NAN</DistanceMeters>
          </Trackpoint>
          <Trackpoint>
            <Time>2022-07-10T09:56:33.000Z</Time>
            <Position>
              <LatitudeDegrees>43.28792209737002849578857421875</LatitudeDegrees>
              <LongitudeDegrees>-2.16411092318594455718994140625</LongitudeDegrees>
            </Position>
            <AltitudeMeters>39</AltitudeMeters>
            <DistanceMeters>NAN</DistanceMeters>
          </Trackpoint>
          <Trackpoint>
            <Time>2022-07-10T09:56:36.000Z</Time>
            <Position>
              <LatitudeDegrees>43.287900052964687347412109375</LatitudeDegrees>
              <LongitudeDegrees>-2.16419256292283535003662109375</LongitudeDegrees>
            </Position>
            <AltitudeMeters>39</AltitudeMeters>
            <DistanceMeters>NAN</DistanceMeters>
          </Trackpoint>
          <Trackpoint>
            <Time>2022-07-10T09:56:44.000Z</Time>
            <Position>
              <LatitudeDegrees>43.28782453201711177825927734375</LatitudeDegrees>
              <LongitudeDegrees>-2.164447121322154998779296875</LongitudeDegrees>
            </Position>
            <AltitudeMeters>39</AltitudeMeters>
            <DistanceMeters>NAN</DistanceMeters>
          </Trackpoint>
          <Trackpoint>
            <Time>2022-07-10T09:56:55.000Z</Time>
            <Position>
              <LatitudeDegrees>43.287772648036479949951171875</LatitudeDegrees>
              <LongitudeDegrees>-2.16485825367271900177001953125</LongitudeDegrees>
            </Position>
            <AltitudeMeters>38.799999237060546875</AltitudeMeters>
            <DistanceMeters>NAN</DistanceMeters>
          </Trackpoint>
          <Trackpoint>
            <Time>2022-07-10T09:57:02.000Z</Time>
            <Position>
              <LatitudeDegrees>43.2877278886735439300537109375</LatitudeDegrees>
              <LongitudeDegrees>-2.1651637740433216094970703125</LongitudeDegrees>
            </Position>
            <AltitudeMeters>38.59999847412109375</AltitudeMeters>
            <DistanceMeters>NAN</DistanceMeters>
          </Trackpoint>
          <Trackpoint>
            <Time>2022-07-10T09:57:10.000Z</Time>
            <Position>
              <LatitudeDegrees>43.28767516650259494781494140625</LatitudeDegrees>
              <LongitudeDegrees>-2.1654586493968963623046875</LongitudeDegrees>
            </Position>
            <AltitudeMeters>38.40000152587890625</AltitudeMeters>
            <DistanceMeters>NAN</DistanceMeters>
          </Trackpoint>
          <Trackpoint>
            <Time>2022-07-10T09:57:16.000Z</Time>
            <Position>
              <LatitudeDegrees>43.287637531757354736328125</LatitudeDegrees>
              <LongitudeDegrees>-2.16567230410873889923095703125</LongitudeDegrees>
            </Position>
            <AltitudeMeters>38.59999847412109375</AltitudeMeters>
            <DistanceMeters>NAN</DistanceMeters>
          </Trackpoint>
          <Trackpoint>
            <Time>2022-07-10T09:57:18.000Z</Time>
            <Position>
              <LatitudeDegrees>43.28761783428490161895751953125</LatitudeDegrees>
              <LongitudeDegrees>-2.1657293848693370819091796875</LongitudeDegrees>
            </Position>
            <AltitudeMeters>38.40000152587890625</AltitudeMeters>
            <DistanceMeters>NAN</DistanceMeters>
          </Trackpoint>
          <Trackpoint>
            <Time>2022-07-10T09:57:23.000Z</Time>
            <Position>
              <LatitudeDegrees>43.2875800319015979766845703125</LatitudeDegrees>
              <LongitudeDegrees>-2.16579333879053592681884765625</LongitudeDegrees>
            </Position>
            <AltitudeMeters>38.200000762939453125</AltitudeMeters>
            <DistanceMeters>NAN</DistanceMeters>
          </Trackpoint>
          <Trackpoint>
            <Time>2022-07-10T09:58:38.000Z</Time>
            <Position>
              <LatitudeDegrees>43.2875890843570232391357421875</LatitudeDegrees>
              <LongitudeDegrees>-2.165884114801883697509765625</LongitudeDegrees>
            </Position>
            <AltitudeMeters>38.799999237060546875</AltitudeMeters>
            <DistanceMeters>NAN</DistanceMeters>
          </Trackpoint>
          <Trackpoint>
            <Time>2022-07-10T09:58:39.000Z</Time>
            <Position>
              <LatitudeDegrees>43.2875880785286426544189453125</LatitudeDegrees>
              <LongitudeDegrees>-2.165919654071331024169921875</LongitudeDegrees>
            </Position>
            <AltitudeMeters>38.799999237060546875</AltitudeMeters>
            <DistanceMeters>NAN</DistanceMeters>
          </Trackpoint>
          <Trackpoint>
            <Time>2022-07-10T09:58:40.000Z</Time>
            <Position>
              <LatitudeDegrees>43.28758028335869312286376953125</LatitudeDegrees>
              <LongitudeDegrees>-2.1659548580646514892578125</LongitudeDegrees>
            </Position>
            <AltitudeMeters>38.799999237060546875</AltitudeMeters>
            <DistanceMeters>NAN</DistanceMeters>
          </Trackpoint>
          <Trackpoint>
            <Time>2022-07-10T09:58:47.000Z</Time>
            <Position>
              <LatitudeDegrees>43.2875220291316509246826171875</LatitudeDegrees>
              <LongitudeDegrees>-2.16625601984560489654541015625</LongitudeDegrees>
            </Position>
            <AltitudeMeters>39.200000762939453125</AltitudeMeters>
            <DistanceMeters>NAN</DistanceMeters>
          </Trackpoint>
          <Trackpoint>
            <Time>2022-07-10T09:58:50.000Z</Time>
            <Position>
              <LatitudeDegrees>43.287511132657527923583984375</LatitudeDegrees>
              <LongitudeDegrees>-2.1663737855851650238037109375</LongitudeDegrees>
            </Position>
            <AltitudeMeters>39.200000762939453125</AltitudeMeters>
            <DistanceMeters>NAN</DistanceMeters>
          </Trackpoint>
          <Trackpoint>
            <Time>2022-07-10T09:58:51.000Z</Time>
            <Position>
              <LatitudeDegrees>43.2875035889446735382080078125</LatitudeDegrees>
              <LongitudeDegrees>-2.16642265208065509796142578125</LongitudeDegrees>
            </Position>
            <AltitudeMeters>39.200000762939453125</AltitudeMeters>
            <DistanceMeters>NAN</DistanceMeters>
          </Trackpoint>
          <Trackpoint>
            <Time>2022-07-10T09:58:56.000Z</Time>
            <Position>
              <LatitudeDegrees>43.28747752122581005096435546875</LatitudeDegrees>
              <LongitudeDegrees>-2.166629098355770111083984375</LongitudeDegrees>
            </Position>
            <AltitudeMeters>39.200000762939453125</AltitudeMeters>
            <DistanceMeters>NAN</DistanceMeters>
          </Trackpoint>
          <Trackpoint>
            <Time>2022-07-10T09:59:04.000Z</Time>
            <Position>
              <LatitudeDegrees>43.28738414682447910308837890625</LatitudeDegrees>
              <LongitudeDegrees>-2.16694635339081287384033203125</LongitudeDegrees>
            </Position>
            <AltitudeMeters>38.799999237060546875</AltitudeMeters>
            <DistanceMeters>NAN</DistanceMeters>
          </Trackpoint>
          <Trackpoint>
            <Time>2022-07-10T09:59:05.000Z</Time>
            <Position>
              <LatitudeDegrees>43.28736319206655025482177734375</LatitudeDegrees>
              <LongitudeDegrees>-2.16696144081652164459228515625</LongitudeDegrees>
            </Position>
            <AltitudeMeters>38.799999237060546875</AltitudeMeters>
            <DistanceMeters>NAN</DistanceMeters>
          </Trackpoint>
          <Trackpoint>
            <Time>2022-07-10T09:59:08.000Z</Time>
            <Position>
              <LatitudeDegrees>43.2872668839991092681884765625</LatitudeDegrees>
              <LongitudeDegrees>-2.1670061163604259490966796875</LongitudeDegrees>
            </Position>
            <AltitudeMeters>38.59999847412109375</AltitudeMeters>
            <DistanceMeters>NAN</DistanceMeters>
          </Trackpoint>
          <Trackpoint>
            <Time>2022-07-10T09:59:14.000Z</Time>
            <Position>
              <LatitudeDegrees>43.287096731364727020263671875</LatitudeDegrees>
              <LongitudeDegrees>-2.16699614189565181732177734375</LongitudeDegrees>
            </Position>
            <AltitudeMeters>38.40000152587890625</AltitudeMeters>
            <DistanceMeters>NAN</DistanceMeters>
          </Trackpoint>
          <Trackpoint>
            <Time>2022-07-10T09:59:16.000Z</Time>
            <Position>
              <LatitudeDegrees>43.287001512944698333740234375</LatitudeDegrees>
              <LongitudeDegrees>-2.16701994650065898895263671875</LongitudeDegrees>
            </Position>
            <AltitudeMeters>38.40000152587890625</AltitudeMeters>
            <DistanceMeters>NAN</DistanceMeters>
          </Trackpoint>
          <Trackpoint>
            <Time>2022-07-10T09:59:23.000Z</Time>
            <Position>
              <LatitudeDegrees>43.28676204197108745574951171875</LatitudeDegrees>
              <LongitudeDegrees>-2.16703251935541629791259765625</LongitudeDegrees>
            </Position>
            <AltitudeMeters>38.40000152587890625</AltitudeMeters>
            <DistanceMeters>NAN</DistanceMeters>
          </Trackpoint>
          <Trackpoint>
            <Time>2022-07-10T09:59:32.000Z</Time>
            <Position>
              <LatitudeDegrees>43.28645761124789714813232421875</LatitudeDegrees>
              <LongitudeDegrees>-2.167112566530704498291015625</LongitudeDegrees>
            </Position>
            <AltitudeMeters>38.200000762939453125</AltitudeMeters>
            <DistanceMeters>NAN</DistanceMeters>
          </Trackpoint>
          <Trackpoint>
            <Time>2022-07-10T09:59:37.000Z</Time>
            <Position>
              <LatitudeDegrees>43.28629600815474987030029296875</LatitudeDegrees>
              <LongitudeDegrees>-2.16715791262686252593994140625</LongitudeDegrees>
            </Position>
            <AltitudeMeters>38.200000762939453125</AltitudeMeters>
            <DistanceMeters>NAN</DistanceMeters>
          </Trackpoint>
          <Trackpoint>
            <Time>2022-07-10T09:59:41.000Z</Time>
            <Position>
              <LatitudeDegrees>43.2861668430268764495849609375</LatitudeDegrees>
              <LongitudeDegrees>-2.167184986174106597900390625</LongitudeDegrees>
            </Position>
            <AltitudeMeters>38.200000762939453125</AltitudeMeters>
            <DistanceMeters>NAN</DistanceMeters>
          </Trackpoint>
          <Trackpoint>
            <Time>2022-07-10T09:59:48.000Z</Time>
            <Position>
              <LatitudeDegrees>43.285967521369457244873046875</LatitudeDegrees>
              <LongitudeDegrees>-2.16726981103420257568359375</LongitudeDegrees>
            </Position>
            <AltitudeMeters>38.40000152587890625</AltitudeMeters>
            <DistanceMeters>NAN</DistanceMeters>
          </Trackpoint>
          <Trackpoint>
            <Time>2022-07-10T09:59:49.000Z</Time>
            <Position>
              <LatitudeDegrees>43.285944052040576934814453125</LatitudeDegrees>
              <LongitudeDegrees>-2.1673145703971385955810546875</LongitudeDegrees>
            </Position>
            <AltitudeMeters>38.40000152587890625</AltitudeMeters>
            <DistanceMeters>NAN</DistanceMeters>
          </Trackpoint>
          <Trackpoint>
            <Time>2022-07-10T09:59:52.000Z</Time>
            <Position>
              <LatitudeDegrees>43.28593022190034389495849609375</LatitudeDegrees>
              <LongitudeDegrees>-2.167467959225177764892578125</LongitudeDegrees>
            </Position>
            <AltitudeMeters>38.200000762939453125</AltitudeMeters>
            <DistanceMeters>NAN</DistanceMeters>
          </Trackpoint>
          <Trackpoint>
            <Time>2022-07-10T09:59:55.000Z</Time>
            <Position>
              <LatitudeDegrees>43.2859241031110286712646484375</LatitudeDegrees>
              <LongitudeDegrees>-2.167615480720996856689453125</LongitudeDegrees>
            </Position>
            <AltitudeMeters>38</AltitudeMeters>
            <DistanceMeters>NAN</DistanceMeters>
          </Trackpoint>
          <Trackpoint>
            <Time>2022-07-10T09:59:57.000Z</Time>
            <Position>
              <LatitudeDegrees>43.28593189828097820281982421875</LatitudeDegrees>
              <LongitudeDegrees>-2.16770290397107601165771484375</LongitudeDegrees>
            </Position>
            <AltitudeMeters>38</AltitudeMeters>
            <DistanceMeters>NAN</DistanceMeters>
          </Trackpoint>
          <Trackpoint>
            <Time>2022-07-10T09:59:59.000Z</Time>
            <Position>
              <LatitudeDegrees>43.28594313003122806549072265625</LatitudeDegrees>
              <LongitudeDegrees>-2.16779728420078754425048828125</LongitudeDegrees>
            </Position>
            <AltitudeMeters>38</AltitudeMeters>
            <DistanceMeters>NAN</DistanceMeters>
          </Trackpoint>
          <Trackpoint>
            <Time>2022-07-10T10:00:04.000Z</Time>
            <Position>
              <LatitudeDegrees>43.28595419414341449737548828125</LatitudeDegrees>
              <LongitudeDegrees>-2.16805745847523212432861328125</LongitudeDegrees>
            </Position>
            <AltitudeMeters>38</AltitudeMeters>
            <DistanceMeters>NAN</DistanceMeters>
          </Trackpoint>
          <Trackpoint>
            <Time>2022-07-10T10:00:12.000Z</Time>
            <Position>
              <LatitudeDegrees>43.2859583012759685516357421875</LatitudeDegrees>
              <LongitudeDegrees>-2.168409414589405059814453125</LongitudeDegrees>
            </Position>
            <AltitudeMeters>38.200000762939453125</AltitudeMeters>
            <DistanceMeters>NAN</DistanceMeters>
          </Trackpoint>
          <Trackpoint>
            <Time>2022-07-10T10:00:17.000Z</Time>
            <Position>
              <LatitudeDegrees>43.28595779836177825927734375</LatitudeDegrees>
              <LongitudeDegrees>-2.16861736960709095001220703125</LongitudeDegrees>
            </Position>
            <AltitudeMeters>38.40000152587890625</AltitudeMeters>
            <DistanceMeters>NAN</DistanceMeters>
          </Trackpoint>
          <Trackpoint>
            <Time>2022-07-10T10:00:23.000Z</Time>
            <Position>
              <LatitudeDegrees>43.28599593602120876312255859375</LatitudeDegrees>
              <LongitudeDegrees>-2.1689289249479770660400390625</LongitudeDegrees>
            </Position>
            <AltitudeMeters>38.59999847412109375</AltitudeMeters>
            <DistanceMeters>NAN</DistanceMeters>
          </Trackpoint>
          <Trackpoint>
            <Time>2022-07-10T10:00:28.000Z</Time>
            <Position>
              <LatitudeDegrees>43.28604002483189105987548828125</LatitudeDegrees>
              <LongitudeDegrees>-2.169114165008068084716796875</LongitudeDegrees>
            </Position>
            <AltitudeMeters>38.40000152587890625</AltitudeMeters>
            <DistanceMeters>NAN</DistanceMeters>
          </Trackpoint>
          <Trackpoint>
            <Time>2022-07-10T10:00:29.000Z</Time>
            <Position>
              <LatitudeDegrees>43.28604094684123992919921875</LatitudeDegrees>
              <LongitudeDegrees>-2.16911944560706615447998046875</LongitudeDegrees>
            </Position>
            <AltitudeMeters>38.200000762939453125</AltitudeMeters>
            <DistanceMeters>NAN</DistanceMeters>
          </Trackpoint>
          <Trackpoint>
            <Time>2022-07-10T10:00:30.000Z</Time>
            <Position>
              <LatitudeDegrees>43.28604094684123992919921875</LatitudeDegrees>
              <LongitudeDegrees>-2.16911944560706615447998046875</LongitudeDegrees>
            </Position>
            <AltitudeMeters>38.200000762939453125</AltitudeMeters>
            <DistanceMeters>NAN</DistanceMeters>
          </Trackpoint>
          <Trackpoint>
            <Time>2022-07-10T10:00:31.000Z</Time>
            <Position>
              <LatitudeDegrees>43.28604094684123992919921875</LatitudeDegrees>
              <LongitudeDegrees>-2.16911944560706615447998046875</LongitudeDegrees>
            </Position>
            <AltitudeMeters>38.200000762939453125</AltitudeMeters>
            <DistanceMeters>NAN</DistanceMeters>
          </Trackpoint>
          <Trackpoint>
            <Time>2022-07-10T10:01:26.000Z</Time>
            <Position>
              <LatitudeDegrees>43.2860391028225421905517578125</LatitudeDegrees>
              <LongitudeDegrees>-2.16917686164379119873046875</LongitudeDegrees>
            </Position>
            <AltitudeMeters>38.200000762939453125</AltitudeMeters>
            <DistanceMeters>NAN</DistanceMeters>
          </Trackpoint>
          <Trackpoint>
            <Time>2022-07-10T10:01:27.000Z</Time>
            <Position>
              <LatitudeDegrees>43.28604119829833507537841796875</LatitudeDegrees>
              <LongitudeDegrees>-2.16920997016131877899169921875</LongitudeDegrees>
            </Position>
            <AltitudeMeters>38.200000762939453125</AltitudeMeters>
            <DistanceMeters>NAN</DistanceMeters>
          </Trackpoint>
          <Trackpoint>
            <Time>2022-07-10T10:01:31.000Z</Time>
            <Position>
              <LatitudeDegrees>43.28605159185826778411865234375</LatitudeDegrees>
              <LongitudeDegrees>-2.169369645416736602783203125</LongitudeDegrees>
            </Position>
            <AltitudeMeters>38.59999847412109375</AltitudeMeters>
            <DistanceMeters>NAN</DistanceMeters>
          </Trackpoint>
          <Trackpoint>
            <Time>2022-07-10T10:01:37.000Z</Time>
            <Position>
              <LatitudeDegrees>43.2860810123383998870849609375</LatitudeDegrees>
              <LongitudeDegrees>-2.16964901424944400787353515625</LongitudeDegrees>
            </Position>
            <AltitudeMeters>38.799999237060546875</AltitudeMeters>
            <DistanceMeters>NAN</DistanceMeters>
          </Trackpoint>
          <Trackpoint>
            <Time>2022-07-10T10:01:41.000Z</Time>
            <Position>
              <LatitudeDegrees>43.286090902984142303466796875</LatitudeDegrees>
              <LongitudeDegrees>-2.16984498314559459686279296875</LongitudeDegrees>
            </Position>
            <AltitudeMeters>39</AltitudeMeters>
            <DistanceMeters>NAN</DistanceMeters>
          </Trackpoint>
          <Trackpoint>
            <Time>2022-07-10T10:01:42.000Z</Time>
            <Position>
              <LatitudeDegrees>43.28609936870634555816650390625</LatitudeDegrees>
              <LongitudeDegrees>-2.16989661566913127899169921875</LongitudeDegrees>
            </Position>
            <AltitudeMeters>39</AltitudeMeters>
            <DistanceMeters>NAN</DistanceMeters>
          </Trackpoint>
          <Trackpoint>
            <Time>2022-07-10T10:01:43.000Z</Time>
            <Position>
              <LatitudeDegrees>43.28610599040985107421875</LatitudeDegrees>
              <LongitudeDegrees>-2.16993860900402069091796875</LongitudeDegrees>
            </Position>
            <AltitudeMeters>39</AltitudeMeters>
            <DistanceMeters>NAN</DistanceMeters>
          </Trackpoint>
          <Trackpoint>
            <Time>2022-07-10T10:01:48.000Z</Time>
            <Position>
              <LatitudeDegrees>43.2861349917948246002197265625</LatitudeDegrees>
              <LongitudeDegrees>-2.17017942108213901519775390625</LongitudeDegrees>
            </Position>
            <AltitudeMeters>39.200000762939453125</AltitudeMeters>
            <DistanceMeters>NAN</DistanceMeters>
          </Trackpoint>
          <Trackpoint>
            <Time>2022-07-10T10:01:50.000Z</Time>
            <Position>
              <LatitudeDegrees>43.28614379279315471649169921875</LatitudeDegrees>
              <LongitudeDegrees>-2.17028067447245121002197265625</LongitudeDegrees>
            </Position>
            <AltitudeMeters>39.200000762939453125</AltitudeMeters>
            <DistanceMeters>NAN</DistanceMeters>
          </Trackpoint>
          <Trackpoint>
            <Time>2022-07-10T10:01:54.000Z</Time>
            <Position>
              <LatitudeDegrees>43.286154605448246002197265625</LatitudeDegrees>
              <LongitudeDegrees>-2.17045015655457973480224609375</LongitudeDegrees>
            </Position>
            <AltitudeMeters>39.200000762939453125</AltitudeMeters>
            <DistanceMeters>NAN</DistanceMeters>
          </Trackpoint>
          <Trackpoint>
            <Time>2022-07-10T10:01:59.000Z</Time>
            <Position>
              <LatitudeDegrees>43.2861785776913166046142578125</LatitudeDegrees>
              <LongitudeDegrees>-2.17065417207777500152587890625</LongitudeDegrees>
            </Position>
            <AltitudeMeters>39.200000762939453125</AltitudeMeters>
            <DistanceMeters>NAN</DistanceMeters>
          </Trackpoint>
          <Trackpoint>
            <Time>2022-07-10T10:02:01.000Z</Time>
            <Position>
              <LatitudeDegrees>43.2861822657287120819091796875</LatitudeDegrees>
              <LongitudeDegrees>-2.170740254223346710205078125</LongitudeDegrees>
            </Position>
            <AltitudeMeters>39.200000762939453125</AltitudeMeters>
            <DistanceMeters>NAN</DistanceMeters>
          </Trackpoint>
          <Trackpoint>
            <Time>2022-07-10T10:02:08.000Z</Time>
            <Position>
              <LatitudeDegrees>43.286192156374454498291015625</LatitudeDegrees>
              <LongitudeDegrees>-2.1710864268243312835693359375</LongitudeDegrees>
            </Position>
            <AltitudeMeters>39.200000762939453125</AltitudeMeters>
            <DistanceMeters>NAN</DistanceMeters>
          </Trackpoint>
          <Trackpoint>
            <Time>2022-07-10T10:02:12.000Z</Time>
            <Position>
              <LatitudeDegrees>43.2862017117440700531005859375</LatitudeDegrees>
              <LongitudeDegrees>-2.17129203490912914276123046875</LongitudeDegrees>
            </Position>
            <AltitudeMeters>39.200000762939453125</AltitudeMeters>
            <DistanceMeters>NAN</DistanceMeters>
          </Trackpoint>
          <Trackpoint>
            <Time>2022-07-10T10:02:14.000Z</Time>
            <Position>
              <LatitudeDegrees>43.28621319495141506195068359375</LatitudeDegrees>
              <LongitudeDegrees>-2.1713875047862529754638671875</LongitudeDegrees>
            </Position>
            <AltitudeMeters>39.200000762939453125</AltitudeMeters>
            <DistanceMeters>NAN</DistanceMeters>
          </Trackpoint>
          <Trackpoint>
            <Time>2022-07-10T10:02:20.000Z</Time>
            <Position>
              <LatitudeDegrees>43.28624320216476917266845703125</LatitudeDegrees>
              <LongitudeDegrees>-2.17166452668607234954833984375</LongitudeDegrees>
            </Position>
            <AltitudeMeters>39.200000762939453125</AltitudeMeters>
            <DistanceMeters>NAN</DistanceMeters>
          </Trackpoint>
          <Trackpoint>
            <Time>2022-07-10T10:02:22.000Z</Time>
            <Position>
              <LatitudeDegrees>43.2862566970288753509521484375</LatitudeDegrees>
              <LongitudeDegrees>-2.17177852056920528411865234375</LongitudeDegrees>
            </Position>
            <AltitudeMeters>39</AltitudeMeters>
            <DistanceMeters>NAN</DistanceMeters>
          </Trackpoint>
          <Trackpoint>
            <Time>2022-07-10T10:02:27.000Z</Time>
            <Position>
              <LatitudeDegrees>43.28629097901284694671630859375</LatitudeDegrees>
              <LongitudeDegrees>-2.17203919775784015655517578125</LongitudeDegrees>
            </Position>
            <AltitudeMeters>38.799999237060546875</AltitudeMeters>
            <DistanceMeters>NAN</DistanceMeters>
          </Trackpoint>
          <Trackpoint>
            <Time>2022-07-10T10:02:31.000Z</Time>
            <Position>
              <LatitudeDegrees>43.28633054159581661224365234375</LatitudeDegrees>
              <LongitudeDegrees>-2.17228461988270282745361328125</LongitudeDegrees>
            </Position>
            <AltitudeMeters>38.59999847412109375</AltitudeMeters>
            <DistanceMeters>NAN</DistanceMeters>
          </Trackpoint>
          <Trackpoint>
            <Time>2022-07-10T10:02:33.000Z</Time>
            <Position>
              <LatitudeDegrees>43.286299444735050201416015625</LatitudeDegrees>
              <LongitudeDegrees>-2.1723430417478084564208984375</LongitudeDegrees>
            </Position>
            <AltitudeMeters>38.799999237060546875</AltitudeMeters>
            <DistanceMeters>NAN</DistanceMeters>
          </Trackpoint>
          <Trackpoint>
            <Time>2022-07-10T10:02:36.000Z</Time>
            <Position>
              <LatitudeDegrees>43.286250494420528411865234375</LatitudeDegrees>
              <LongitudeDegrees>-2.1723787486553192138671875</LongitudeDegrees>
            </Position>
            <AltitudeMeters>38.59999847412109375</AltitudeMeters>
            <DistanceMeters>NAN</DistanceMeters>
          </Trackpoint>
          <Trackpoint>
            <Time>2022-07-10T10:02:37.000Z</Time>
            <Position>
              <LatitudeDegrees>43.2862439565360546112060546875</LatitudeDegrees>
              <LongitudeDegrees>-2.1724043972790241241455078125</LongitudeDegrees>
            </Position>
            <AltitudeMeters>38.59999847412109375</AltitudeMeters>
            <DistanceMeters>NAN</DistanceMeters>
          </Trackpoint>
          <Trackpoint>
            <Time>2022-07-10T10:02:40.000Z</Time>
            <Position>
              <LatitudeDegrees>43.28626465983688831329345703125</LatitudeDegrees>
              <LongitudeDegrees>-2.1724235080182552337646484375</LongitudeDegrees>
            </Position>
            <AltitudeMeters>38.40000152587890625</AltitudeMeters>
            <DistanceMeters>NAN</DistanceMeters>
          </Trackpoint>
          <Trackpoint>
            <Time>2022-07-10T10:02:42.000Z</Time>
            <Position>
              <LatitudeDegrees>43.28629173338413238525390625</LatitudeDegrees>
              <LongitudeDegrees>-2.1724553592503070831298828125</LongitudeDegrees>
            </Position>
            <AltitudeMeters>38.40000152587890625</AltitudeMeters>
            <DistanceMeters>NAN</DistanceMeters>
          </Trackpoint>
          <Trackpoint>
            <Time>2022-07-10T10:02:45.000Z</Time>
            <Position>
              <LatitudeDegrees>43.286330960690975189208984375</LatitudeDegrees>
              <LongitudeDegrees>-2.17256474308669567108154296875</LongitudeDegrees>
            </Position>
            <AltitudeMeters>38.59999847412109375</AltitudeMeters>
            <DistanceMeters>NAN</DistanceMeters>
          </Trackpoint>
          <Trackpoint>
            <Time>2022-07-10T10:02:50.000Z</Time>
            <Position>
              <LatitudeDegrees>43.28636071644723415374755859375</LatitudeDegrees>
              <LongitudeDegrees>-2.17279340140521526336669921875</LongitudeDegrees>
            </Position>
            <AltitudeMeters>39</AltitudeMeters>
            <DistanceMeters>NAN</DistanceMeters>
          </Trackpoint>
          <Trackpoint>
            <Time>2022-07-10T10:02:56.000Z</Time>
            <Position>
              <LatitudeDegrees>43.28639240004122257232666015625</LatitudeDegrees>
              <LongitudeDegrees>-2.17303278855979442596435546875</LongitudeDegrees>
            </Position>
            <AltitudeMeters>38.59999847412109375</AltitudeMeters>
            <DistanceMeters>NAN</DistanceMeters>
          </Trackpoint>
          <Trackpoint>
            <Time>2022-07-10T10:03:01.000Z</Time>
            <Position>
              <LatitudeDegrees>43.2864283584058284759521484375</LatitudeDegrees>
              <LongitudeDegrees>-2.17325021512806415557861328125</LongitudeDegrees>
            </Position>
            <AltitudeMeters>38</AltitudeMeters>
            <DistanceMeters>NAN</DistanceMeters>
          </Trackpoint>
          <Trackpoint>
            <Time>2022-07-10T10:03:02.000Z</Time>
            <Position>
              <LatitudeDegrees>43.28643598593771457672119140625</LatitudeDegrees>
              <LongitudeDegrees>-2.17329547740519046783447265625</LongitudeDegrees>
            </Position>
            <AltitudeMeters>37.799999237060546875</AltitudeMeters>
            <DistanceMeters>NAN</DistanceMeters>
          </Trackpoint>
          <Trackpoint>
            <Time>2022-07-10T10:03:06.000Z</Time>
            <Position>
              <LatitudeDegrees>43.28646607697010040283203125</LatitudeDegrees>
              <LongitudeDegrees>-2.17339823953807353973388671875</LongitudeDegrees>
            </Position>
            <AltitudeMeters>37.799999237060546875</AltitudeMeters>
            <DistanceMeters>NAN</DistanceMeters>
          </Trackpoint>
          <Trackpoint>
            <Time>2022-07-10T10:03:12.000Z</Time>
            <Position>
              <LatitudeDegrees>43.286509998142719268798828125</LatitudeDegrees>
              <LongitudeDegrees>-2.173508964478969573974609375</LongitudeDegrees>
            </Position>
            <AltitudeMeters>37.799999237060546875</AltitudeMeters>
            <DistanceMeters>NAN</DistanceMeters>
          </Trackpoint>
          <Trackpoint>
            <Time>2022-07-10T10:03:16.000Z</Time>
            <Position>
              <LatitudeDegrees>43.2864159531891345977783203125</LatitudeDegrees>
              <LongitudeDegrees>-2.173605524003505706787109375</LongitudeDegrees>
            </Position>
            <AltitudeMeters>37.59999847412109375</AltitudeMeters>
            <DistanceMeters>NAN</DistanceMeters>
          </Trackpoint>
          <Trackpoint>
            <Time>2022-07-10T10:03:20.000Z</Time>
            <Position>
              <LatitudeDegrees>43.2863103412091732025146484375</LatitudeDegrees>
              <LongitudeDegrees>-2.17370702885091304779052734375</LongitudeDegrees>
            </Position>
            <AltitudeMeters>37.40000152587890625</AltitudeMeters>
            <DistanceMeters>NAN</DistanceMeters>
          </Trackpoint>
          <Trackpoint>
            <Time>2022-07-10T10:03:24.000Z</Time>
            <Position>
              <LatitudeDegrees>43.28619441948831081390380859375</LatitudeDegrees>
              <LongitudeDegrees>-2.17373535968363285064697265625</LongitudeDegrees>
            </Position>
            <AltitudeMeters>37.200000762939453125</AltitudeMeters>
            <DistanceMeters>NAN</DistanceMeters>
          </Trackpoint>
          <Trackpoint>
            <Time>2022-07-10T10:03:25.000Z</Time>
            <Position>
              <LatitudeDegrees>43.28617748804390430450439453125</LatitudeDegrees>
              <LongitudeDegrees>-2.17376402579247951507568359375</LongitudeDegrees>
            </Position>
            <AltitudeMeters>37</AltitudeMeters>
            <DistanceMeters>NAN</DistanceMeters>
          </Trackpoint>
          <Trackpoint>
            <Time>2022-07-10T10:03:26.000Z</Time>
            <Position>
              <LatitudeDegrees>43.28616566956043243408203125</LatitudeDegrees>
              <LongitudeDegrees>-2.1737803705036640167236328125</LongitudeDegrees>
            </Position>
            <AltitudeMeters>37</AltitudeMeters>
            <DistanceMeters>NAN</DistanceMeters>
          </Trackpoint>
          <Trackpoint>
            <Time>2022-07-10T10:03:29.000Z</Time>
            <Position>
              <LatitudeDegrees>43.2861309684813022613525390625</LatitudeDegrees>
              <LongitudeDegrees>-2.17381632886826992034912109375</LongitudeDegrees>
            </Position>
            <AltitudeMeters>36.799999237060546875</AltitudeMeters>
            <DistanceMeters>NAN</DistanceMeters>
          </Trackpoint>
          <Trackpoint>
            <Time>2022-07-10T10:03:30.000Z</Time>
            <Position>
              <LatitudeDegrees>43.286123089492321014404296875</LatitudeDegrees>
              <LongitudeDegrees>-2.17381766997277736663818359375</LongitudeDegrees>
            </Position>
            <AltitudeMeters>36.799999237060546875</AltitudeMeters>
            <DistanceMeters>NAN</DistanceMeters>
          </Trackpoint>
          <Trackpoint>
            <Time>2022-07-10T10:03:36.000Z</Time>
            <Position>
              <LatitudeDegrees>43.28602259047329425811767578125</LatitudeDegrees>
              <LongitudeDegrees>-2.173921354115009307861328125</LongitudeDegrees>
            </Position>
            <AltitudeMeters>36.59999847412109375</AltitudeMeters>
            <DistanceMeters>NAN</DistanceMeters>
          </Trackpoint>
          <Trackpoint>
            <Time>2022-07-10T10:03:41.000Z</Time>
            <Position>
              <LatitudeDegrees>43.28591982834041118621826171875</LatitudeDegrees>
              <LongitudeDegrees>-2.1739597432315349578857421875</LongitudeDegrees>
            </Position>
            <AltitudeMeters>36.40000152587890625</AltitudeMeters>
            <DistanceMeters>NAN</DistanceMeters>
          </Trackpoint>
          <Trackpoint>
            <Time>2022-07-10T10:03:47.000Z</Time>
            <Position>
              <LatitudeDegrees>43.28575336374342441558837890625</LatitudeDegrees>
              <LongitudeDegrees>-2.17402386479079723358154296875</LongitudeDegrees>
            </Position>
            <AltitudeMeters>36.200000762939453125</AltitudeMeters>
            <DistanceMeters>NAN</DistanceMeters>
          </Trackpoint>
          <Trackpoint>
            <Time>2022-07-10T10:03:50.000Z</Time>
            <Position>
              <LatitudeDegrees>43.2856863923370838165283203125</LatitudeDegrees>
              <LongitudeDegrees>-2.17401380650699138641357421875</LongitudeDegrees>
            </Position>
            <AltitudeMeters>36</AltitudeMeters>
            <DistanceMeters>NAN</DistanceMeters>
          </Trackpoint>
          <Trackpoint>
            <Time>2022-07-10T10:03:51.000Z</Time>
            <Position>
              <LatitudeDegrees>43.2856770046055316925048828125</LatitudeDegrees>
              <LongitudeDegrees>-2.17400617897510528564453125</LongitudeDegrees>
            </Position>
            <AltitudeMeters>35.799999237060546875</AltitudeMeters>
            <DistanceMeters>NAN</DistanceMeters>
          </Trackpoint>
          <Trackpoint>
            <Time>2022-07-10T10:03:56.000Z</Time>
            <Position>
              <LatitudeDegrees>43.285572566092014312744140625</LatitudeDegrees>
              <LongitudeDegrees>-2.17402503825724124908447265625</LongitudeDegrees>
            </Position>
            <AltitudeMeters>35.799999237060546875</AltitudeMeters>
            <DistanceMeters>NAN</DistanceMeters>
          </Trackpoint>
          <Trackpoint>
            <Time>2022-07-10T10:04:02.000Z</Time>
            <Position>
              <LatitudeDegrees>43.28542227856814861297607421875</LatitudeDegrees>
              <LongitudeDegrees>-2.1740519441664218902587890625</LongitudeDegrees>
            </Position>
            <AltitudeMeters>35.59999847412109375</AltitudeMeters>
            <DistanceMeters>NAN</DistanceMeters>
          </Trackpoint>
          <Trackpoint>
            <Time>2022-07-10T10:04:07.000Z</Time>
            <Position>
              <LatitudeDegrees>43.28539830632507801055908203125</LatitudeDegrees>
              <LongitudeDegrees>-2.1740497648715972900390625</LongitudeDegrees>
            </Position>
            <AltitudeMeters>35.40000152587890625</AltitudeMeters>
            <DistanceMeters>NAN</DistanceMeters>
          </Trackpoint>
          <Trackpoint>
            <Time>2022-07-10T10:04:23.000Z</Time>
            <Position>
              <LatitudeDegrees>43.28534047119319438934326171875</LatitudeDegrees>
              <LongitudeDegrees>-2.174058146774768829345703125</LongitudeDegrees>
            </Position>
            <AltitudeMeters>35.40000152587890625</AltitudeMeters>
            <DistanceMeters>NAN</DistanceMeters>
          </Trackpoint>
          <Trackpoint>
            <Time>2022-07-10T10:04:29.000Z</Time>
            <Position>
              <LatitudeDegrees>43.2851886749267578125</LatitudeDegrees>
              <LongitudeDegrees>-2.1740884892642498016357421875</LongitudeDegrees>
            </Position>
            <AltitudeMeters>35.40000152587890625</AltitudeMeters>
            <DistanceMeters>NAN</DistanceMeters>
          </Trackpoint>
          <Trackpoint>
            <Time>2022-07-10T10:04:33.000Z</Time>
            <Position>
              <LatitudeDegrees>43.285093791782855987548828125</LatitudeDegrees>
              <LongitudeDegrees>-2.174103073775768280029296875</LongitudeDegrees>
            </Position>
            <AltitudeMeters>35.40000152587890625</AltitudeMeters>
            <DistanceMeters>NAN</DistanceMeters>
          </Trackpoint>
          <Trackpoint>
            <Time>2022-07-10T10:04:34.000Z</Time>
            <Position>
              <LatitudeDegrees>43.28508130274713039398193359375</LatitudeDegrees>
              <LongitudeDegrees>-2.1740899980068206787109375</LongitudeDegrees>
            </Position>
            <AltitudeMeters>35.40000152587890625</AltitudeMeters>
            <DistanceMeters>NAN</DistanceMeters>
          </Trackpoint>
          <Trackpoint>
            <Time>2022-07-10T10:04:37.000Z</Time>
            <Position>
              <LatitudeDegrees>43.285059593617916107177734375</LatitudeDegrees>
              <LongitudeDegrees>-2.1740522794425487518310546875</LongitudeDegrees>
            </Position>
            <AltitudeMeters>35.40000152587890625</AltitudeMeters>
            <DistanceMeters>NAN</DistanceMeters>
          </Trackpoint>
          <Trackpoint>
            <Time>2022-07-10T10:04:40.000Z</Time>
            <Position>
              <LatitudeDegrees>43.285042159259319305419921875</LatitudeDegrees>
              <LongitudeDegrees>-2.1739812009036540985107421875</LongitudeDegrees>
            </Position>
            <AltitudeMeters>35.40000152587890625</AltitudeMeters>
            <DistanceMeters>NAN</DistanceMeters>
          </Trackpoint>
          <Trackpoint>
            <Time>2022-07-10T10:04:42.000Z</Time>
            <Position>
              <LatitudeDegrees>43.2850319333374500274658203125</LatitudeDegrees>
              <LongitudeDegrees>-2.17393501661717891693115234375</LongitudeDegrees>
            </Position>
            <AltitudeMeters>35.40000152587890625</AltitudeMeters>
            <DistanceMeters>NAN</DistanceMeters>
          </Trackpoint>
          <Trackpoint>
            <Time>2022-07-10T10:04:45.000Z</Time>
            <Position>
              <LatitudeDegrees>43.28501977957785129547119140625</LatitudeDegrees>
              <LongitudeDegrees>-2.17385136522352695465087890625</LongitudeDegrees>
            </Position>
            <AltitudeMeters>35.200000762939453125</AltitudeMeters>
            <DistanceMeters>NAN</DistanceMeters>
          </Trackpoint>
          <Trackpoint>
            <Time>2022-07-10T10:04:46.000Z</Time>
            <Position>
              <LatitudeDegrees>43.28501877374947071075439453125</LatitudeDegrees>
              <LongitudeDegrees>-2.173809707164764404296875</LongitudeDegrees>
            </Position>
            <AltitudeMeters>35.200000762939453125</AltitudeMeters>
            <DistanceMeters>NAN</DistanceMeters>
          </Trackpoint>
          <Trackpoint>
            <Time>2022-07-10T10:04:51.000Z</Time>
            <Position>
              <LatitudeDegrees>43.28499698080122470855712890625</LatitudeDegrees>
              <LongitudeDegrees>-2.17358641326427459716796875</LongitudeDegrees>
            </Position>
            <AltitudeMeters>35.200000762939453125</AltitudeMeters>
            <DistanceMeters>NAN</DistanceMeters>
          </Trackpoint>
          <Trackpoint>
            <Time>2022-07-10T10:04:54.000Z</Time>
            <Position>
              <LatitudeDegrees>43.28503922559320926666259765625</LatitudeDegrees>
              <LongitudeDegrees>-2.173439897596836090087890625</LongitudeDegrees>
            </Position>
            <AltitudeMeters>35.200000762939453125</AltitudeMeters>
            <DistanceMeters>NAN</DistanceMeters>
          </Trackpoint>
          <Trackpoint>
            <Time>2022-07-10T10:04:58.000Z</Time>
            <Position>
              <LatitudeDegrees>43.284973092377185821533203125</LatitudeDegrees>
              <LongitudeDegrees>-2.1732580102980136871337890625</LongitudeDegrees>
            </Position>
            <AltitudeMeters>35.200000762939453125</AltitudeMeters>
            <DistanceMeters>NAN</DistanceMeters>
          </Trackpoint>
          <Trackpoint>
            <Time>2022-07-10T10:05:01.000Z</Time>
            <Position>
              <LatitudeDegrees>43.2849461026489734649658203125</LatitudeDegrees>
              <LongitudeDegrees>-2.17314762063324451446533203125</LongitudeDegrees>
            </Position>
            <AltitudeMeters>35.40000152587890625</AltitudeMeters>
            <DistanceMeters>NAN</DistanceMeters>
          </Trackpoint>
          <Trackpoint>
            <Time>2022-07-10T10:05:03.000Z</Time>
            <Position>
              <LatitudeDegrees>43.28495775349438190460205078125</LatitudeDegrees>
              <LongitudeDegrees>-2.173069752752780914306640625</LongitudeDegrees>
            </Position>
            <AltitudeMeters>35.40000152587890625</AltitudeMeters>
            <DistanceMeters>NAN</DistanceMeters>
          </Trackpoint>
          <Trackpoint>
            <Time>2022-07-10T10:05:08.000Z</Time>
            <Position>
              <LatitudeDegrees>43.284948952496051788330078125</LatitudeDegrees>
              <LongitudeDegrees>-2.1729096584022045135498046875</LongitudeDegrees>
            </Position>
            <AltitudeMeters>35.40000152587890625</AltitudeMeters>
            <DistanceMeters>NAN</DistanceMeters>
          </Trackpoint>
          <Trackpoint>
            <Time>2022-07-10T10:05:10.000Z</Time>
            <Position>
              <LatitudeDegrees>43.28493855893611907958984375</LatitudeDegrees>
              <LongitudeDegrees>-2.1728415973484516143798828125</LongitudeDegrees>
            </Position>
            <AltitudeMeters>35.40000152587890625</AltitudeMeters>
            <DistanceMeters>NAN</DistanceMeters>
          </Trackpoint>
          <Trackpoint>
            <Time>2022-07-10T10:05:11.000Z</Time>
            <Position>
              <LatitudeDegrees>43.284926824271678924560546875</LatitudeDegrees>
              <LongitudeDegrees>-2.17281930148601531982421875</LongitudeDegrees>
            </Position>
            <AltitudeMeters>35.40000152587890625</AltitudeMeters>
            <DistanceMeters>NAN</DistanceMeters>
          </Trackpoint>
          <Trackpoint>
            <Time>2022-07-10T10:05:16.000Z</Time>
            <Position>
              <LatitudeDegrees>43.2848601043224334716796875</LatitudeDegrees>
              <LongitudeDegrees>-2.172676809132099151611328125</LongitudeDegrees>
            </Position>
            <AltitudeMeters>35.59999847412109375</AltitudeMeters>
            <DistanceMeters>NAN</DistanceMeters>
          </Trackpoint>
          <Trackpoint>
            <Time>2022-07-10T10:05:22.000Z</Time>
            <Position>
              <LatitudeDegrees>43.28482464887201786041259765625</LatitudeDegrees>
              <LongitudeDegrees>-2.17244085855782032012939453125</LongitudeDegrees>
            </Position>
            <AltitudeMeters>35.59999847412109375</AltitudeMeters>
            <DistanceMeters>NAN</DistanceMeters>
          </Trackpoint>
          <Trackpoint>
            <Time>2022-07-10T10:05:23.000Z</Time>
            <Position>
              <LatitudeDegrees>43.284828253090381622314453125</LatitudeDegrees>
              <LongitudeDegrees>-2.17240280471742153167724609375</LongitudeDegrees>
            </Position>
            <AltitudeMeters>35.40000152587890625</AltitudeMeters>
            <DistanceMeters>NAN</DistanceMeters>
          </Trackpoint>
          <Trackpoint>
            <Time>2022-07-10T10:05:25.000Z</Time>
            <Position>
              <LatitudeDegrees>43.2848037779331207275390625</LatitudeDegrees>
              <LongitudeDegrees>-2.1723742224276065826416015625</LongitudeDegrees>
            </Position>
            <AltitudeMeters>35.40000152587890625</AltitudeMeters>
            <DistanceMeters>NAN</DistanceMeters>
          </Trackpoint>
          <Trackpoint>
            <Time>2022-07-10T10:05:27.000Z</Time>
            <Position>
              <LatitudeDegrees>43.28478391282260417938232421875</LatitudeDegrees>
              <LongitudeDegrees>-2.1723336540162563323974609375</LongitudeDegrees>
            </Position>
            <AltitudeMeters>35.40000152587890625</AltitudeMeters>
            <DistanceMeters>NAN</DistanceMeters>
          </Trackpoint>
          <Trackpoint>
            <Time>2022-07-10T10:05:33.000Z</Time>
            <Position>
              <LatitudeDegrees>43.2847218029201030731201171875</LatitudeDegrees>
              <LongitudeDegrees>-2.1721965260803699493408203125</LongitudeDegrees>
            </Position>
            <AltitudeMeters>35.40000152587890625</AltitudeMeters>
            <DistanceMeters>NAN</DistanceMeters>
          </Trackpoint>
          <Trackpoint>
            <Time>2022-07-10T10:05:34.000Z</Time>
            <Position>
              <LatitudeDegrees>43.2847211323678493499755859375</LatitudeDegrees>
              <LongitudeDegrees>-2.17219225130975246429443359375</LongitudeDegrees>
            </Position>
            <AltitudeMeters>35.40000152587890625</AltitudeMeters>
            <DistanceMeters>NAN</DistanceMeters>
          </Trackpoint>
          <Trackpoint>
            <Time>2022-07-10T10:05:37.000Z</Time>
            <Position>
              <LatitudeDegrees>43.2847211323678493499755859375</LatitudeDegrees>
              <LongitudeDegrees>-2.17219225130975246429443359375</LongitudeDegrees>
            </Position>
            <AltitudeMeters>35.40000152587890625</AltitudeMeters>
            <DistanceMeters>NAN</DistanceMeters>
          </Trackpoint>
          <Trackpoint>
            <Time>2022-07-10T10:19:51.000Z</Time>
            <Position>
              <LatitudeDegrees>43.28485365025699138641357421875</LatitudeDegrees>
              <LongitudeDegrees>-2.1720741502940654754638671875</LongitudeDegrees>
            </Position>
            <AltitudeMeters>42.40000152587890625</AltitudeMeters>
            <DistanceMeters>NAN</DistanceMeters>
          </Trackpoint>
          <Trackpoint>
            <Time>2022-07-10T10:19:52.000Z</Time>
            <Position>
              <LatitudeDegrees>43.2848552428185939788818359375</LatitudeDegrees>
              <LongitudeDegrees>-2.1720810234546661376953125</LongitudeDegrees>
            </Position>
            <AltitudeMeters>42.40000152587890625</AltitudeMeters>
            <DistanceMeters>NAN</DistanceMeters>
          </Trackpoint>
          <Trackpoint>
            <Time>2022-07-10T10:19:53.000Z</Time>
            <Position>
              <LatitudeDegrees>43.284856416285037994384765625</LatitudeDegrees>
              <LongitudeDegrees>-2.17207968235015869140625</LongitudeDegrees>
            </Position>
            <AltitudeMeters>42.40000152587890625</AltitudeMeters>
            <DistanceMeters>NAN</DistanceMeters>
          </Trackpoint>
          <Trackpoint>
            <Time>2022-07-10T10:19:57.000Z</Time>
            <Position>
              <LatitudeDegrees>43.28484074212610721588134765625</LatitudeDegrees>
              <LongitudeDegrees>-2.172057218849658966064453125</LongitudeDegrees>
            </Position>
            <AltitudeMeters>42</AltitudeMeters>
            <DistanceMeters>NAN</DistanceMeters>
          </Trackpoint>
          <Trackpoint>
            <Time>2022-07-10T10:19:59.000Z</Time>
            <Position>
              <LatitudeDegrees>43.2848307676613330841064453125</LatitudeDegrees>
              <LongitudeDegrees>-2.17205881141126155853271484375</LongitudeDegrees>
            </Position>
            <AltitudeMeters>42</AltitudeMeters>
            <DistanceMeters>NAN</DistanceMeters>
          </Trackpoint>
          <Trackpoint>
            <Time>2022-07-10T10:20:05.000Z</Time>
            <Position>
              <LatitudeDegrees>43.28483537770807743072509765625</LatitudeDegrees>
              <LongitudeDegrees>-2.17209770344197750091552734375</LongitudeDegrees>
            </Position>
            <AltitudeMeters>41.59999847412109375</AltitudeMeters>
            <DistanceMeters>NAN</DistanceMeters>
          </Trackpoint>
          <Trackpoint>
            <Time>2022-07-10T10:20:06.000Z</Time>
            <Position>
              <LatitudeDegrees>43.28484493307769298553466796875</LatitudeDegrees>
              <LongitudeDegrees>-2.17210558243095874786376953125</LongitudeDegrees>
            </Position>
            <AltitudeMeters>41.59999847412109375</AltitudeMeters>
            <DistanceMeters>NAN</DistanceMeters>
          </Trackpoint>
          <Trackpoint>
            <Time>2022-07-10T10:20:10.000Z</Time>
            <Position>
              <LatitudeDegrees>43.28483101911842823028564453125</LatitudeDegrees>
              <LongitudeDegrees>-2.17210424132645130157470703125</LongitudeDegrees>
            </Position>
            <AltitudeMeters>41.40000152587890625</AltitudeMeters>
            <DistanceMeters>NAN</DistanceMeters>
          </Trackpoint>
          <Trackpoint>
            <Time>2022-07-10T10:22:02.000Z</Time>
            <Position>
              <LatitudeDegrees>43.284758515655994415283203125</LatitudeDegrees>
              <LongitudeDegrees>-2.1720329113304615020751953125</LongitudeDegrees>
            </Position>
            <AltitudeMeters>40.200000762939453125</AltitudeMeters>
            <DistanceMeters>NAN</DistanceMeters>
          </Trackpoint>
          <Trackpoint>
            <Time>2022-07-10T10:22:03.000Z</Time>
            <Position>
              <LatitudeDegrees>43.2847606949508190155029296875</LatitudeDegrees>
              <LongitudeDegrees>-2.1720483340322971343994140625</LongitudeDegrees>
            </Position>
            <AltitudeMeters>40.200000762939453125</AltitudeMeters>
            <DistanceMeters>NAN</DistanceMeters>
          </Trackpoint>
          <Trackpoint>
            <Time>2022-07-10T10:22:04.000Z</Time>
            <Position>
              <LatitudeDegrees>43.28476513735949993133544921875</LatitudeDegrees>
              <LongitudeDegrees>-2.1720568835735321044921875</LongitudeDegrees>
            </Position>
            <AltitudeMeters>40.200000762939453125</AltitudeMeters>
            <DistanceMeters>NAN</DistanceMeters>
          </Trackpoint>
          <Trackpoint>
            <Time>2022-07-10T10:22:07.000Z</Time>
            <Position>
              <LatitudeDegrees>43.28477972187101840972900390625</LatitudeDegrees>
              <LongitudeDegrees>-2.17205378226935863494873046875</LongitudeDegrees>
            </Position>
            <AltitudeMeters>40.200000762939453125</AltitudeMeters>
            <DistanceMeters>NAN</DistanceMeters>
          </Trackpoint>
          <Trackpoint>
            <Time>2022-07-10T10:22:32.000Z</Time>
            <Position>
              <LatitudeDegrees>43.28483889810740947723388671875</LatitudeDegrees>
              <LongitudeDegrees>-2.1720654331147670745849609375</LongitudeDegrees>
            </Position>
            <AltitudeMeters>40.59999847412109375</AltitudeMeters>
            <DistanceMeters>NAN</DistanceMeters>
          </Trackpoint>
          <Trackpoint>
            <Time>2022-07-10T10:22:33.000Z</Time>
            <Position>
              <LatitudeDegrees>43.28485096804797649383544921875</LatitudeDegrees>
              <LongitudeDegrees>-2.172081358730792999267578125</LongitudeDegrees>
            </Position>
            <AltitudeMeters>42.200000762939453125</AltitudeMeters>
            <DistanceMeters>NAN</DistanceMeters>
          </Trackpoint>
          <Trackpoint>
            <Time>2022-07-10T10:22:34.000Z</Time>
            <Position>
              <LatitudeDegrees>43.284859769046306610107421875</LatitudeDegrees>
              <LongitudeDegrees>-2.17210440896451473236083984375</LongitudeDegrees>
            </Position>
            <AltitudeMeters>42.200000762939453125</AltitudeMeters>
            <DistanceMeters>NAN</DistanceMeters>
          </Trackpoint>
          <Trackpoint>
            <Time>2022-07-10T10:22:36.000Z</Time>
            <Position>
              <LatitudeDegrees>43.2848793826997280120849609375</LatitudeDegrees>
              <LongitudeDegrees>-2.172146402299404144287109375</LongitudeDegrees>
            </Position>
            <AltitudeMeters>42.200000762939453125</AltitudeMeters>
            <DistanceMeters>NAN</DistanceMeters>
          </Trackpoint>
          <Trackpoint>
            <Time>2022-07-10T10:22:37.000Z</Time>
            <Position>
              <LatitudeDegrees>43.284881226718425750732421875</LatitudeDegrees>
              <LongitudeDegrees>-2.17217154800891876220703125</LongitudeDegrees>
            </Position>
            <AltitudeMeters>42.40000152587890625</AltitudeMeters>
            <DistanceMeters>NAN</DistanceMeters>
          </Trackpoint>
          <Trackpoint>
            <Time>2022-07-10T10:22:39.000Z</Time>
            <Position>
              <LatitudeDegrees>43.28488491475582122802734375</LatitudeDegrees>
              <LongitudeDegrees>-2.17222292907536029815673828125</LongitudeDegrees>
            </Position>
            <AltitudeMeters>42.40000152587890625</AltitudeMeters>
            <DistanceMeters>NAN</DistanceMeters>
          </Trackpoint>
          <Trackpoint>
            <Time>2022-07-10T10:22:41.000Z</Time>
            <Position>
              <LatitudeDegrees>43.28490092419087886810302734375</LatitudeDegrees>
              <LongitudeDegrees>-2.17227556742727756500244140625</LongitudeDegrees>
            </Position>
            <AltitudeMeters>42.59999847412109375</AltitudeMeters>
            <DistanceMeters>NAN</DistanceMeters>
          </Trackpoint>
          <Trackpoint>
            <Time>2022-07-10T10:22:43.000Z</Time>
            <Position>
              <LatitudeDegrees>43.28490477986633777618408203125</LatitudeDegrees>
              <LongitudeDegrees>-2.1723331511020660400390625</LongitudeDegrees>
            </Position>
            <AltitudeMeters>42.59999847412109375</AltitudeMeters>
            <DistanceMeters>NAN</DistanceMeters>
          </Trackpoint>
          <Trackpoint>
            <Time>2022-07-10T10:22:47.000Z</Time>
            <Position>
              <LatitudeDegrees>43.28488231636583805084228515625</LatitudeDegrees>
              <LongitudeDegrees>-2.1724466420710086822509765625</LongitudeDegrees>
            </Position>
            <AltitudeMeters>42.59999847412109375</AltitudeMeters>
            <DistanceMeters>NAN</DistanceMeters>
          </Trackpoint>
          <Trackpoint>
            <Time>2022-07-10T10:22:49.000Z</Time>
            <Position>
              <LatitudeDegrees>43.2848793826997280120849609375</LatitudeDegrees>
              <LongitudeDegrees>-2.1725130267441272735595703125</LongitudeDegrees>
            </Position>
            <AltitudeMeters>42.59999847412109375</AltitudeMeters>
            <DistanceMeters>NAN</DistanceMeters>
          </Trackpoint>
          <Trackpoint>
            <Time>2022-07-10T10:22:52.000Z</Time>
            <Position>
              <LatitudeDegrees>43.2849269919097423553466796875</LatitudeDegrees>
              <LongitudeDegrees>-2.17258921824395656585693359375</LongitudeDegrees>
            </Position>
            <AltitudeMeters>42.59999847412109375</AltitudeMeters>
            <DistanceMeters>NAN</DistanceMeters>
          </Trackpoint>
          <Trackpoint>
            <Time>2022-07-10T10:22:54.000Z</Time>
            <Position>
              <LatitudeDegrees>43.28498591668903827667236328125</LatitudeDegrees>
              <LongitudeDegrees>-2.17264504171907901763916015625</LongitudeDegrees>
            </Position>
            <AltitudeMeters>42.59999847412109375</AltitudeMeters>
            <DistanceMeters>NAN</DistanceMeters>
          </Trackpoint>
          <Trackpoint>
            <Time>2022-07-10T10:22:55.000Z</Time>
            <Position>
              <LatitudeDegrees>43.28502145595848560333251953125</LatitudeDegrees>
              <LongitudeDegrees>-2.17266918160021305084228515625</LongitudeDegrees>
            </Position>
            <AltitudeMeters>42.59999847412109375</AltitudeMeters>
            <DistanceMeters>NAN</DistanceMeters>
          </Trackpoint>
          <Trackpoint>
            <Time>2022-07-10T10:22:57.000Z</Time>
            <Position>
              <LatitudeDegrees>43.2850885950028896331787109375</LatitudeDegrees>
              <LongitudeDegrees>-2.172721065580844879150390625</LongitudeDegrees>
            </Position>
            <AltitudeMeters>42.59999847412109375</AltitudeMeters>
            <DistanceMeters>NAN</DistanceMeters>
          </Trackpoint>
          <Trackpoint>
            <Time>2022-07-10T10:22:59.000Z</Time>
            <Position>
              <LatitudeDegrees>43.28512488864362239837646484375</LatitudeDegrees>
              <LongitudeDegrees>-2.17276758514344692230224609375</LongitudeDegrees>
            </Position>
            <AltitudeMeters>42.59999847412109375</AltitudeMeters>
            <DistanceMeters>NAN</DistanceMeters>
          </Trackpoint>
          <Trackpoint>
            <Time>2022-07-10T10:23:01.000Z</Time>
            <Position>
              <LatitudeDegrees>43.28512388281524181365966796875</LatitudeDegrees>
              <LongitudeDegrees>-2.17283246107399463653564453125</LongitudeDegrees>
            </Position>
            <AltitudeMeters>42.59999847412109375</AltitudeMeters>
            <DistanceMeters>NAN</DistanceMeters>
          </Trackpoint>
          <Trackpoint>
            <Time>2022-07-10T10:23:05.000Z</Time>
            <Position>
              <LatitudeDegrees>43.2850175164639949798583984375</LatitudeDegrees>
              <LongitudeDegrees>-2.17298199422657489776611328125</LongitudeDegrees>
            </Position>
            <AltitudeMeters>42.40000152587890625</AltitudeMeters>
            <DistanceMeters>NAN</DistanceMeters>
          </Trackpoint>
          <Trackpoint>
            <Time>2022-07-10T10:23:10.000Z</Time>
            <Position>
              <LatitudeDegrees>43.2850527204573154449462890625</LatitudeDegrees>
              <LongitudeDegrees>-2.1732888557016849517822265625</LongitudeDegrees>
            </Position>
            <AltitudeMeters>42.40000152587890625</AltitudeMeters>
            <DistanceMeters>NAN</DistanceMeters>
          </Trackpoint>
          <Trackpoint>
            <Time>2022-07-10T10:23:12.000Z</Time>
            <Position>
              <LatitudeDegrees>43.28507157973945140838623046875</LatitudeDegrees>
              <LongitudeDegrees>-2.17340963892638683319091796875</LongitudeDegrees>
            </Position>
            <AltitudeMeters>42.59999847412109375</AltitudeMeters>
            <DistanceMeters>NAN</DistanceMeters>
          </Trackpoint>
          <Trackpoint>
            <Time>2022-07-10T10:23:13.000Z</Time>
            <Position>
              <LatitudeDegrees>43.28505414538085460662841796875</LatitudeDegrees>
              <LongitudeDegrees>-2.1734799630939960479736328125</LongitudeDegrees>
            </Position>
            <AltitudeMeters>42.40000152587890625</AltitudeMeters>
            <DistanceMeters>NAN</DistanceMeters>
          </Trackpoint>
          <Trackpoint>
            <Time>2022-07-10T10:23:15.000Z</Time>
            <Position>
              <LatitudeDegrees>43.28504542820155620574951171875</LatitudeDegrees>
              <LongitudeDegrees>-2.17356897890567779541015625</LongitudeDegrees>
            </Position>
            <AltitudeMeters>42.40000152587890625</AltitudeMeters>
            <DistanceMeters>NAN</DistanceMeters>
          </Trackpoint>
          <Trackpoint>
            <Time>2022-07-10T10:23:16.000Z</Time>
            <Position>
              <LatitudeDegrees>43.28508247621357440948486328125</LatitudeDegrees>
              <LongitudeDegrees>-2.17360527254641056060791015625</LongitudeDegrees>
            </Position>
            <AltitudeMeters>42.200000762939453125</AltitudeMeters>
            <DistanceMeters>NAN</DistanceMeters>
          </Trackpoint>
          <Trackpoint>
            <Time>2022-07-10T10:23:17.000Z</Time>
            <Position>
              <LatitudeDegrees>43.28510284423828125</LatitudeDegrees>
              <LongitudeDegrees>-2.173637039959430694580078125</LongitudeDegrees>
            </Position>
            <AltitudeMeters>42.200000762939453125</AltitudeMeters>
            <DistanceMeters>NAN</DistanceMeters>
          </Trackpoint>
          <Trackpoint>
            <Time>2022-07-10T10:23:18.000Z</Time>
            <Position>
              <LatitudeDegrees>43.28510007821023464202880859375</LatitudeDegrees>
              <LongitudeDegrees>-2.17368741519749164581298828125</LongitudeDegrees>
            </Position>
            <AltitudeMeters>42.200000762939453125</AltitudeMeters>
            <DistanceMeters>NAN</DistanceMeters>
          </Trackpoint>
          <Trackpoint>
            <Time>2022-07-10T10:23:23.000Z</Time>
            <Position>
              <LatitudeDegrees>43.28510946594178676605224609375</LatitudeDegrees>
              <LongitudeDegrees>-2.17388556338846683502197265625</LongitudeDegrees>
            </Position>
            <AltitudeMeters>42</AltitudeMeters>
            <DistanceMeters>NAN</DistanceMeters>
          </Trackpoint>
          <Trackpoint>
            <Time>2022-07-10T10:23:26.000Z</Time>
            <Position>
              <LatitudeDegrees>43.28512229025363922119140625</LatitudeDegrees>
              <LongitudeDegrees>-2.17398430220782756805419921875</LongitudeDegrees>
            </Position>
            <AltitudeMeters>42</AltitudeMeters>
            <DistanceMeters>NAN</DistanceMeters>
          </Trackpoint>
          <Trackpoint>
            <Time>2022-07-10T10:23:28.000Z</Time>
            <Position>
              <LatitudeDegrees>43.28507266938686370849609375</LatitudeDegrees>
              <LongitudeDegrees>-2.17407315038144588470458984375</LongitudeDegrees>
            </Position>
            <AltitudeMeters>41.799999237060546875</AltitudeMeters>
            <DistanceMeters>NAN</DistanceMeters>
          </Trackpoint>
          <Trackpoint>
            <Time>2022-07-10T10:23:33.000Z</Time>
            <Position>
              <LatitudeDegrees>43.2850419916212558746337890625</LatitudeDegrees>
              <LongitudeDegrees>-2.17418580316007137298583984375</LongitudeDegrees>
            </Position>
            <AltitudeMeters>41.799999237060546875</AltitudeMeters>
            <DistanceMeters>NAN</DistanceMeters>
          </Trackpoint>
          <Trackpoint>
            <Time>2022-07-10T10:23:34.000Z</Time>
            <Position>
              <LatitudeDegrees>43.2850433327257633209228515625</LatitudeDegrees>
              <LongitudeDegrees>-2.17420675791800022125244140625</LongitudeDegrees>
            </Position>
            <AltitudeMeters>41.799999237060546875</AltitudeMeters>
            <DistanceMeters>NAN</DistanceMeters>
          </Trackpoint>
          <Trackpoint>
            <Time>2022-07-10T10:23:38.000Z</Time>
            <Position>
              <LatitudeDegrees>43.28505925834178924560546875</LatitudeDegrees>
              <LongitudeDegrees>-2.1743047423660755157470703125</LongitudeDegrees>
            </Position>
            <AltitudeMeters>41.799999237060546875</AltitudeMeters>
            <DistanceMeters>NAN</DistanceMeters>
          </Trackpoint>
          <Trackpoint>
            <Time>2022-07-10T10:23:42.000Z</Time>
            <Position>
              <LatitudeDegrees>43.28508046455681324005126953125</LatitudeDegrees>
              <LongitudeDegrees>-2.1744130365550518035888671875</LongitudeDegrees>
            </Position>
            <AltitudeMeters>42</AltitudeMeters>
            <DistanceMeters>NAN</DistanceMeters>
          </Trackpoint>
          <Trackpoint>
            <Time>2022-07-10T10:23:43.000Z</Time>
            <Position>
              <LatitudeDegrees>43.2850907742977142333984375</LatitudeDegrees>
              <LongitudeDegrees>-2.1744200773537158966064453125</LongitudeDegrees>
            </Position>
            <AltitudeMeters>42</AltitudeMeters>
            <DistanceMeters>NAN</DistanceMeters>
          </Trackpoint>
          <Trackpoint>
            <Time>2022-07-10T10:23:44.000Z</Time>
            <Position>
              <LatitudeDegrees>43.285093121230602264404296875</LatitudeDegrees>
              <LongitudeDegrees>-2.17442871071398258209228515625</LongitudeDegrees>
            </Position>
            <AltitudeMeters>42</AltitudeMeters>
            <DistanceMeters>NAN</DistanceMeters>
          </Trackpoint>
          <Trackpoint>
            <Time>2022-07-10T10:23:47.000Z</Time>
            <Position>
              <LatitudeDegrees>43.28508566133677959442138671875</LatitudeDegrees>
              <LongitudeDegrees>-2.17449777759611606597900390625</LongitudeDegrees>
            </Position>
            <AltitudeMeters>41.799999237060546875</AltitudeMeters>
            <DistanceMeters>NAN</DistanceMeters>
          </Trackpoint>
          <Trackpoint>
            <Time>2022-07-10T10:23:50.000Z</Time>
            <Position>
              <LatitudeDegrees>43.2851271517574787139892578125</LatitudeDegrees>
              <LongitudeDegrees>-2.174579165875911712646484375</LongitudeDegrees>
            </Position>
            <AltitudeMeters>41.799999237060546875</AltitudeMeters>
            <DistanceMeters>NAN</DistanceMeters>
          </Trackpoint>
          <Trackpoint>
            <Time>2022-07-10T10:23:55.000Z</Time>
            <Position>
              <LatitudeDegrees>43.2851875014603137969970703125</LatitudeDegrees>
              <LongitudeDegrees>-2.1747892163693904876708984375</LongitudeDegrees>
            </Position>
            <AltitudeMeters>41.799999237060546875</AltitudeMeters>
            <DistanceMeters>NAN</DistanceMeters>
          </Trackpoint>
          <Trackpoint>
            <Time>2022-07-10T10:23:57.000Z</Time>
            <Position>
              <LatitudeDegrees>43.285174258053302764892578125</LatitudeDegrees>
              <LongitudeDegrees>-2.174862138926982879638671875</LongitudeDegrees>
            </Position>
            <AltitudeMeters>41.799999237060546875</AltitudeMeters>
            <DistanceMeters>NAN</DistanceMeters>
          </Trackpoint>
          <Trackpoint>
            <Time>2022-07-10T10:23:58.000Z</Time>
            <Position>
              <LatitudeDegrees>43.28515472821891307830810546875</LatitudeDegrees>
              <LongitudeDegrees>-2.17488016001880168914794921875</LongitudeDegrees>
            </Position>
            <AltitudeMeters>41.799999237060546875</AltitudeMeters>
            <DistanceMeters>NAN</DistanceMeters>
          </Trackpoint>
          <Trackpoint>
            <Time>2022-07-10T10:24:03.000Z</Time>
            <Position>
              <LatitudeDegrees>43.2850869186222553253173828125</LatitudeDegrees>
              <LongitudeDegrees>-2.17496045865118503570556640625</LongitudeDegrees>
            </Position>
            <AltitudeMeters>41.799999237060546875</AltitudeMeters>
            <DistanceMeters>NAN</DistanceMeters>
          </Trackpoint>
          <Trackpoint>
            <Time>2022-07-10T10:24:04.000Z</Time>
            <Position>
              <LatitudeDegrees>43.28508205711841583251953125</LatitudeDegrees>
              <LongitudeDegrees>-2.17498577199876308441162109375</LongitudeDegrees>
            </Position>
            <AltitudeMeters>41.799999237060546875</AltitudeMeters>
            <DistanceMeters>NAN</DistanceMeters>
          </Trackpoint>
          <Trackpoint>
            <Time>2022-07-10T10:24:06.000Z</Time>
            <Position>
              <LatitudeDegrees>43.2850543968379497528076171875</LatitudeDegrees>
              <LongitudeDegrees>-2.17502449639141559600830078125</LongitudeDegrees>
            </Position>
            <AltitudeMeters>41.799999237060546875</AltitudeMeters>
            <DistanceMeters>NAN</DistanceMeters>
          </Trackpoint>
          <Trackpoint>
            <Time>2022-07-10T10:24:08.000Z</Time>
            <Position>
              <LatitudeDegrees>43.28508147038519382476806640625</LatitudeDegrees>
              <LongitudeDegrees>-2.17505265958607196807861328125</LongitudeDegrees>
            </Position>
            <AltitudeMeters>41.799999237060546875</AltitudeMeters>
            <DistanceMeters>NAN</DistanceMeters>
          </Trackpoint>
          <Trackpoint>
            <Time>2022-07-10T10:24:12.000Z</Time>
            <Position>
              <LatitudeDegrees>43.28514684922993183135986328125</LatitudeDegrees>
              <LongitudeDegrees>-2.175083421170711517333984375</LongitudeDegrees>
            </Position>
            <AltitudeMeters>41.59999847412109375</AltitudeMeters>
            <DistanceMeters>NAN</DistanceMeters>
          </Trackpoint>
          <Trackpoint>
            <Time>2022-07-10T10:24:19.000Z</Time>
            <Position>
              <LatitudeDegrees>43.285196386277675628662109375</LatitudeDegrees>
              <LongitudeDegrees>-2.17525608837604522705078125</LongitudeDegrees>
            </Position>
            <AltitudeMeters>41.799999237060546875</AltitudeMeters>
            <DistanceMeters>NAN</DistanceMeters>
          </Trackpoint>
          <Trackpoint>
            <Time>2022-07-10T10:24:21.000Z</Time>
            <Position>
              <LatitudeDegrees>43.2851305045187473297119140625</LatitudeDegrees>
              <LongitudeDegrees>-2.17528131790459156036376953125</LongitudeDegrees>
            </Position>
            <AltitudeMeters>41.799999237060546875</AltitudeMeters>
            <DistanceMeters>NAN</DistanceMeters>
          </Trackpoint>
          <Trackpoint>
            <Time>2022-07-10T10:29:01.000Z</Time>
            <Position>
              <LatitudeDegrees>43.28523368574678897857666015625</LatitudeDegrees>
              <LongitudeDegrees>-2.175401262938976287841796875</LongitudeDegrees>
            </Position>
            <AltitudeMeters>42.59999847412109375</AltitudeMeters>
            <DistanceMeters>NAN</DistanceMeters>
          </Trackpoint>
          <Trackpoint>
            <Time>2022-07-10T10:29:02.000Z</Time>
            <Position>
              <LatitudeDegrees>43.28523670323193073272705078125</LatitudeDegrees>
              <LongitudeDegrees>-2.17540235258638858795166015625</LongitudeDegrees>
            </Position>
            <AltitudeMeters>42.40000152587890625</AltitudeMeters>
            <DistanceMeters>NAN</DistanceMeters>
          </Trackpoint>
          <Trackpoint>
            <Time>2022-07-10T10:29:04.000Z</Time>
            <Position>
              <LatitudeDegrees>43.2852096296846866607666015625</LatitudeDegrees>
              <LongitudeDegrees>-2.1754175238311290740966796875</LongitudeDegrees>
            </Position>
            <AltitudeMeters>42.40000152587890625</AltitudeMeters>
            <DistanceMeters>NAN</DistanceMeters>
          </Trackpoint>
          <Trackpoint>
            <Time>2022-07-10T10:29:08.000Z</Time>
            <Position>
              <LatitudeDegrees>43.28523804433643817901611328125</LatitudeDegrees>
              <LongitudeDegrees>-2.17537821270525455474853515625</LongitudeDegrees>
            </Position>
            <AltitudeMeters>42.40000152587890625</AltitudeMeters>
            <DistanceMeters>NAN</DistanceMeters>
          </Trackpoint>
          <Trackpoint>
            <Time>2022-07-10T10:29:09.000Z</Time>
            <Position>
              <LatitudeDegrees>43.28523762524127960205078125</LatitudeDegrees>
              <LongitudeDegrees>-2.17537519522011280059814453125</LongitudeDegrees>
            </Position>
            <AltitudeMeters>42.40000152587890625</AltitudeMeters>
            <DistanceMeters>NAN</DistanceMeters>
          </Trackpoint>
          <Trackpoint>
            <Time>2022-07-10T10:29:10.000Z</Time>
            <Position>
              <LatitudeDegrees>43.28522983007133007049560546875</LatitudeDegrees>
              <LongitudeDegrees>-2.17538977973163127899169921875</LongitudeDegrees>
            </Position>
            <AltitudeMeters>42.40000152587890625</AltitudeMeters>
            <DistanceMeters>NAN</DistanceMeters>
          </Trackpoint>
          <Trackpoint>
            <Time>2022-07-10T10:29:12.000Z</Time>
            <Position>
              <LatitudeDegrees>43.285240642726421356201171875</LatitudeDegrees>
              <LongitudeDegrees>-2.175403945147991180419921875</LongitudeDegrees>
            </Position>
            <AltitudeMeters>42.40000152587890625</AltitudeMeters>
            <DistanceMeters>NAN</DistanceMeters>
          </Trackpoint>
          <Trackpoint>
            <Time>2022-07-10T10:29:14.000Z</Time>
            <Position>
              <LatitudeDegrees>43.28522144816815853118896484375</LatitudeDegrees>
              <LongitudeDegrees>-2.17537678778171539306640625</LongitudeDegrees>
            </Position>
            <AltitudeMeters>42.40000152587890625</AltitudeMeters>
            <DistanceMeters>NAN</DistanceMeters>
          </Trackpoint>
          <Trackpoint>
            <Time>2022-07-10T10:29:16.000Z</Time>
            <Position>
              <LatitudeDegrees>43.28518205322325229644775390625</LatitudeDegrees>
              <LongitudeDegrees>-2.1753836609423160552978515625</LongitudeDegrees>
            </Position>
            <AltitudeMeters>42.40000152587890625</AltitudeMeters>
            <DistanceMeters>NAN</DistanceMeters>
          </Trackpoint>
          <Trackpoint>
            <Time>2022-07-10T10:29:26.000Z</Time>
            <Position>
              <LatitudeDegrees>43.28519470989704132080078125</LatitudeDegrees>
              <LongitudeDegrees>-2.17534485273063182830810546875</LongitudeDegrees>
            </Position>
            <AltitudeMeters>42.40000152587890625</AltitudeMeters>
            <DistanceMeters>NAN</DistanceMeters>
          </Trackpoint>
          <Trackpoint>
            <Time>2022-07-10T10:29:31.000Z</Time>
            <Position>
              <LatitudeDegrees>43.28517216257750988006591796875</LatitudeDegrees>
              <LongitudeDegrees>-2.175521291792392730712890625</LongitudeDegrees>
            </Position>
            <AltitudeMeters>42.200000762939453125</AltitudeMeters>
            <DistanceMeters>NAN</DistanceMeters>
          </Trackpoint>
          <Trackpoint>
            <Time>2022-07-10T10:29:39.000Z</Time>
            <Position>
              <LatitudeDegrees>43.2852790318429470062255859375</LatitudeDegrees>
              <LongitudeDegrees>-2.17563050799071788787841796875</LongitudeDegrees>
            </Position>
            <AltitudeMeters>42.40000152587890625</AltitudeMeters>
            <DistanceMeters>NAN</DistanceMeters>
          </Trackpoint>
          <Trackpoint>
            <Time>2022-07-10T10:29:44.000Z</Time>
            <Position>
              <LatitudeDegrees>43.28532337211072444915771484375</LatitudeDegrees>
              <LongitudeDegrees>-2.1756287477910518646240234375</LongitudeDegrees>
            </Position>
            <AltitudeMeters>42.40000152587890625</AltitudeMeters>
            <DistanceMeters>NAN</DistanceMeters>
          </Trackpoint>
          <Trackpoint>
            <Time>2022-07-10T10:29:47.000Z</Time>
            <Position>
              <LatitudeDegrees>43.28536427579820156097412109375</LatitudeDegrees>
              <LongitudeDegrees>-2.1756103076040744781494140625</LongitudeDegrees>
            </Position>
            <AltitudeMeters>42.40000152587890625</AltitudeMeters>
            <DistanceMeters>NAN</DistanceMeters>
          </Trackpoint>
          <Trackpoint>
            <Time>2022-07-10T10:29:48.000Z</Time>
            <Position>
              <LatitudeDegrees>43.2853618450462818145751953125</LatitudeDegrees>
              <LongitudeDegrees>-2.17561106197535991668701171875</LongitudeDegrees>
            </Position>
            <AltitudeMeters>42.40000152587890625</AltitudeMeters>
            <DistanceMeters>NAN</DistanceMeters>
          </Trackpoint>
          <Trackpoint>
            <Time>2022-07-10T10:29:51.000Z</Time>
            <Position>
              <LatitudeDegrees>43.285349942743778228759765625</LatitudeDegrees>
              <LongitudeDegrees>-2.17561391182243824005126953125</LongitudeDegrees>
            </Position>
            <AltitudeMeters>42.40000152587890625</AltitudeMeters>
            <DistanceMeters>NAN</DistanceMeters>
          </Trackpoint>
          <Trackpoint>
            <Time>2022-07-10T10:29:55.000Z</Time>
            <Position>
              <LatitudeDegrees>43.28532571904361248016357421875</LatitudeDegrees>
              <LongitudeDegrees>-2.1755556575953960418701171875</LongitudeDegrees>
            </Position>
            <AltitudeMeters>42.40000152587890625</AltitudeMeters>
            <DistanceMeters>NAN</DistanceMeters>
          </Trackpoint>
          <Trackpoint>
            <Time>2022-07-10T10:30:13.000Z</Time>
            <Position>
              <LatitudeDegrees>43.28517283312976360321044921875</LatitudeDegrees>
              <LongitudeDegrees>-2.1753340400755405426025390625</LongitudeDegrees>
            </Position>
            <AltitudeMeters>42.40000152587890625</AltitudeMeters>
            <DistanceMeters>NAN</DistanceMeters>
          </Trackpoint>
          <Trackpoint>
            <Time>2022-07-10T10:30:20.000Z</Time>
            <Position>
              <LatitudeDegrees>43.2852173410356044769287109375</LatitudeDegrees>
              <LongitudeDegrees>-2.17550964094698429107666015625</LongitudeDegrees>
            </Position>
            <AltitudeMeters>42.40000152587890625</AltitudeMeters>
            <DistanceMeters>NAN</DistanceMeters>
          </Trackpoint>
          <Trackpoint>
            <Time>2022-07-10T10:30:25.000Z</Time>
            <Position>
              <LatitudeDegrees>43.28510259278118610382080078125</LatitudeDegrees>
              <LongitudeDegrees>-2.17532448470592498779296875</LongitudeDegrees>
            </Position>
            <AltitudeMeters>42.59999847412109375</AltitudeMeters>
            <DistanceMeters>NAN</DistanceMeters>
          </Trackpoint>
          <Trackpoint>
            <Time>2022-07-10T10:30:27.000Z</Time>
            <Position>
              <LatitudeDegrees>43.28508415259420871734619140625</LatitudeDegrees>
              <LongitudeDegrees>-2.17528483830392360687255859375</LongitudeDegrees>
            </Position>
            <AltitudeMeters>42.59999847412109375</AltitudeMeters>
            <DistanceMeters>NAN</DistanceMeters>
          </Trackpoint>
          <Trackpoint>
            <Time>2022-07-10T10:30:31.000Z</Time>
            <Position>
              <LatitudeDegrees>43.2850862480700016021728515625</LatitudeDegrees>
              <LongitudeDegrees>-2.1752943098545074462890625</LongitudeDegrees>
            </Position>
            <AltitudeMeters>42.59999847412109375</AltitudeMeters>
            <DistanceMeters>NAN</DistanceMeters>
          </Trackpoint>
          <Trackpoint>
            <Time>2022-07-10T10:30:32.000Z</Time>
            <Position>
              <LatitudeDegrees>43.28508398495614528656005859375</LatitudeDegrees>
              <LongitudeDegrees>-2.17530864290893077850341796875</LongitudeDegrees>
            </Position>
            <AltitudeMeters>42.59999847412109375</AltitudeMeters>
            <DistanceMeters>NAN</DistanceMeters>
          </Trackpoint>
          <Trackpoint>
            <Time>2022-07-10T10:30:43.000Z</Time>
            <Position>
              <LatitudeDegrees>43.28509890474379062652587890625</LatitudeDegrees>
              <LongitudeDegrees>-2.17535440810024738311767578125</LongitudeDegrees>
            </Position>
            <AltitudeMeters>42.59999847412109375</AltitudeMeters>
            <DistanceMeters>NAN</DistanceMeters>
          </Trackpoint>
          <Trackpoint>
            <Time>2022-07-10T10:30:47.000Z</Time>
            <Position>
              <LatitudeDegrees>43.2850926183164119720458984375</LatitudeDegrees>
              <LongitudeDegrees>-2.175322808325290679931640625</LongitudeDegrees>
            </Position>
            <AltitudeMeters>42.59999847412109375</AltitudeMeters>
            <DistanceMeters>NAN</DistanceMeters>
          </Trackpoint>
          <Trackpoint>
            <Time>2022-07-10T10:30:48.000Z</Time>
            <Position>
              <LatitudeDegrees>43.28509555198252201080322265625</LatitudeDegrees>
              <LongitudeDegrees>-2.175327502191066741943359375</LongitudeDegrees>
            </Position>
            <AltitudeMeters>42.59999847412109375</AltitudeMeters>
            <DistanceMeters>NAN</DistanceMeters>
          </Trackpoint>
          <Trackpoint>
            <Time>2022-07-10T10:32:34.000Z</Time>
            <Position>
              <LatitudeDegrees>43.2852391339838504791259765625</LatitudeDegrees>
              <LongitudeDegrees>-2.17516028322279453277587890625</LongitudeDegrees>
            </Position>
            <AltitudeMeters>42.799999237060546875</AltitudeMeters>
            <DistanceMeters>NAN</DistanceMeters>
          </Trackpoint>
          <Trackpoint>
            <Time>2022-07-10T10:32:35.000Z</Time>
            <Position>
              <LatitudeDegrees>43.285311721265316009521484375</LatitudeDegrees>
              <LongitudeDegrees>-2.175181321799755096435546875</LongitudeDegrees>
            </Position>
            <AltitudeMeters>42.799999237060546875</AltitudeMeters>
            <DistanceMeters>NAN</DistanceMeters>
          </Trackpoint>
          <Trackpoint>
            <Time>2022-07-10T10:32:36.000Z</Time>
            <Position>
              <LatitudeDegrees>43.285325467586517333984375</LatitudeDegrees>
              <LongitudeDegrees>-2.17515684664249420166015625</LongitudeDegrees>
            </Position>
            <AltitudeMeters>42.799999237060546875</AltitudeMeters>
            <DistanceMeters>NAN</DistanceMeters>
          </Trackpoint>
          <Trackpoint>
            <Time>2022-07-10T10:32:41.000Z</Time>
            <Position>
              <LatitudeDegrees>43.2853293232619762420654296875</LatitudeDegrees>
              <LongitudeDegrees>-2.1751345507800579071044921875</LongitudeDegrees>
            </Position>
            <AltitudeMeters>42.799999237060546875</AltitudeMeters>
            <DistanceMeters>NAN</DistanceMeters>
          </Trackpoint>
          <Trackpoint>
            <Time>2022-07-10T10:32:42.000Z</Time>
            <Position>
              <LatitudeDegrees>43.2853256352245807647705078125</LatitudeDegrees>
              <LongitudeDegrees>-2.17514335177838802337646484375</LongitudeDegrees>
            </Position>
            <AltitudeMeters>43</AltitudeMeters>
            <DistanceMeters>NAN</DistanceMeters>
          </Trackpoint>
          <Trackpoint>
            <Time>2022-07-10T10:32:43.000Z</Time>
            <Position>
              <LatitudeDegrees>43.285317756235599517822265625</LatitudeDegrees>
              <LongitudeDegrees>-2.17513698153197765350341796875</LongitudeDegrees>
            </Position>
            <AltitudeMeters>43</AltitudeMeters>
            <DistanceMeters>NAN</DistanceMeters>
          </Trackpoint>
          <Trackpoint>
            <Time>2022-07-10T10:32:45.000Z</Time>
            <Position>
              <LatitudeDegrees>43.2853169180452823638916015625</LatitudeDegrees>
              <LongitudeDegrees>-2.17508979141712188720703125</LongitudeDegrees>
            </Position>
            <AltitudeMeters>43</AltitudeMeters>
            <DistanceMeters>NAN</DistanceMeters>
          </Trackpoint>
          <Trackpoint>
            <Time>2022-07-10T10:32:46.000Z</Time>
            <Position>
              <LatitudeDegrees>43.2852864079177379608154296875</LatitudeDegrees>
              <LongitudeDegrees>-2.1750936470925807952880859375</LongitudeDegrees>
            </Position>
            <AltitudeMeters>42.799999237060546875</AltitudeMeters>
            <DistanceMeters>NAN</DistanceMeters>
          </Trackpoint>
          <Trackpoint>
            <Time>2022-07-10T10:32:49.000Z</Time>
            <Position>
              <LatitudeDegrees>43.2852394692599773406982421875</LatitudeDegrees>
              <LongitudeDegrees>-2.17518995516002178192138671875</LongitudeDegrees>
            </Position>
            <AltitudeMeters>42.59999847412109375</AltitudeMeters>
            <DistanceMeters>NAN</DistanceMeters>
          </Trackpoint>
          <Trackpoint>
            <Time>2022-07-10T10:32:53.000Z</Time>
            <Position>
              <LatitudeDegrees>43.285276852548122406005859375</LatitudeDegrees>
              <LongitudeDegrees>-2.17529020272195339202880859375</LongitudeDegrees>
            </Position>
            <AltitudeMeters>42.59999847412109375</AltitudeMeters>
            <DistanceMeters>NAN</DistanceMeters>
          </Trackpoint>
          <Trackpoint>
            <Time>2022-07-10T10:32:54.000Z</Time>
            <Position>
              <LatitudeDegrees>43.2852994836866855621337890625</LatitudeDegrees>
              <LongitudeDegrees>-2.17530445195734500885009765625</LongitudeDegrees>
            </Position>
            <AltitudeMeters>42.40000152587890625</AltitudeMeters>
            <DistanceMeters>NAN</DistanceMeters>
          </Trackpoint>
          <Trackpoint>
            <Time>2022-07-10T10:32:57.000Z</Time>
            <Position>
              <LatitudeDegrees>43.2854074425995349884033203125</LatitudeDegrees>
              <LongitudeDegrees>-2.17533881776034832000732421875</LongitudeDegrees>
            </Position>
            <AltitudeMeters>42.40000152587890625</AltitudeMeters>
            <DistanceMeters>NAN</DistanceMeters>
          </Trackpoint>
          <Trackpoint>
            <Time>2022-07-10T10:33:00.000Z</Time>
            <Position>
              <LatitudeDegrees>43.28533996827900409698486328125</LatitudeDegrees>
              <LongitudeDegrees>-2.1753747761249542236328125</LongitudeDegrees>
            </Position>
            <AltitudeMeters>42.40000152587890625</AltitudeMeters>
            <DistanceMeters>NAN</DistanceMeters>
          </Trackpoint>
          <Trackpoint>
            <Time>2022-07-10T10:33:02.000Z</Time>
            <Position>
              <LatitudeDegrees>43.285346589982509613037109375</LatitudeDegrees>
              <LongitudeDegrees>-2.17539480887353420257568359375</LongitudeDegrees>
            </Position>
            <AltitudeMeters>42.40000152587890625</AltitudeMeters>
            <DistanceMeters>NAN</DistanceMeters>
          </Trackpoint>
          <Trackpoint>
            <Time>2022-07-10T10:33:03.000Z</Time>
            <Position>
              <LatitudeDegrees>43.285351283848285675048828125</LatitudeDegrees>
              <LongitudeDegrees>-2.17538542114198207855224609375</LongitudeDegrees>
            </Position>
            <AltitudeMeters>42.40000152587890625</AltitudeMeters>
            <DistanceMeters>NAN</DistanceMeters>
          </Trackpoint>
          <Trackpoint>
            <Time>2022-07-10T10:33:04.000Z</Time>
            <Position>
              <LatitudeDegrees>43.2853643596172332763671875</LatitudeDegrees>
              <LongitudeDegrees>-2.17540704645216464996337890625</LongitudeDegrees>
            </Position>
            <AltitudeMeters>42.40000152587890625</AltitudeMeters>
            <DistanceMeters>NAN</DistanceMeters>
          </Trackpoint>
          <Trackpoint>
            <Time>2022-07-10T10:33:06.000Z</Time>
            <Position>
              <LatitudeDegrees>43.28539512120187282562255859375</LatitudeDegrees>
              <LongitudeDegrees>-2.1754664741456508636474609375</LongitudeDegrees>
            </Position>
            <AltitudeMeters>42.59999847412109375</AltitudeMeters>
            <DistanceMeters>NAN</DistanceMeters>
          </Trackpoint>
          <Trackpoint>
            <Time>2022-07-10T10:33:09.000Z</Time>
            <Position>
              <LatitudeDegrees>43.2854530401527881622314453125</LatitudeDegrees>
              <LongitudeDegrees>-2.17557636089622974395751953125</LongitudeDegrees>
            </Position>
            <AltitudeMeters>42.59999847412109375</AltitudeMeters>
            <DistanceMeters>NAN</DistanceMeters>
          </Trackpoint>
          <Trackpoint>
            <Time>2022-07-10T10:33:11.000Z</Time>
            <Position>
              <LatitudeDegrees>43.28545890748500823974609375</LatitudeDegrees>
              <LongitudeDegrees>-2.17561525292694568634033203125</LongitudeDegrees>
            </Position>
            <AltitudeMeters>42.59999847412109375</AltitudeMeters>
            <DistanceMeters>NAN</DistanceMeters>
          </Trackpoint>
          <Trackpoint>
            <Time>2022-07-10T10:33:13.000Z</Time>
            <Position>
              <LatitudeDegrees>43.28546754084527492523193359375</LatitudeDegrees>
              <LongitudeDegrees>-2.17564324848353862762451171875</LongitudeDegrees>
            </Position>
            <AltitudeMeters>42.59999847412109375</AltitudeMeters>
            <DistanceMeters>NAN</DistanceMeters>
          </Trackpoint>
          <Trackpoint>
            <Time>2022-07-10T10:33:14.000Z</Time>
            <Position>
              <LatitudeDegrees>43.28548396937549114227294921875</LatitudeDegrees>
              <LongitudeDegrees>-2.17566571198403835296630859375</LongitudeDegrees>
            </Position>
            <AltitudeMeters>42.59999847412109375</AltitudeMeters>
            <DistanceMeters>NAN</DistanceMeters>
          </Trackpoint>
          <Trackpoint>
            <Time>2022-07-10T10:33:17.000Z</Time>
            <Position>
              <LatitudeDegrees>43.2855006493628025054931640625</LatitudeDegrees>
              <LongitudeDegrees>-2.17579244635999202728271484375</LongitudeDegrees>
            </Position>
            <AltitudeMeters>42.200000762939453125</AltitudeMeters>
            <DistanceMeters>NAN</DistanceMeters>
          </Trackpoint>
          <Trackpoint>
            <Time>2022-07-10T10:33:19.000Z</Time>
            <Position>
              <LatitudeDegrees>43.28550039790570735931396484375</LatitudeDegrees>
              <LongitudeDegrees>-2.17580619268119335174560546875</LongitudeDegrees>
            </Position>
            <AltitudeMeters>42</AltitudeMeters>
            <DistanceMeters>NAN</DistanceMeters>
          </Trackpoint>
          <Trackpoint>
            <Time>2022-07-10T10:33:20.000Z</Time>
            <Position>
              <LatitudeDegrees>43.28551045618951320648193359375</LatitudeDegrees>
              <LongitudeDegrees>-2.1758245490491390228271484375</LongitudeDegrees>
            </Position>
            <AltitudeMeters>42</AltitudeMeters>
            <DistanceMeters>NAN</DistanceMeters>
          </Trackpoint>
          <Trackpoint>
            <Time>2022-07-10T10:33:22.000Z</Time>
            <Position>
              <LatitudeDegrees>43.28556544147431850433349609375</LatitudeDegrees>
              <LongitudeDegrees>-2.175864614546298980712890625</LongitudeDegrees>
            </Position>
            <AltitudeMeters>42</AltitudeMeters>
            <DistanceMeters>NAN</DistanceMeters>
          </Trackpoint>
          <Trackpoint>
            <Time>2022-07-10T10:33:23.000Z</Time>
            <Position>
              <LatitudeDegrees>43.285582624375820159912109375</LatitudeDegrees>
              <LongitudeDegrees>-2.17588640749454498291015625</LongitudeDegrees>
            </Position>
            <AltitudeMeters>42</AltitudeMeters>
            <DistanceMeters>NAN</DistanceMeters>
          </Trackpoint>
          <Trackpoint>
            <Time>2022-07-10T10:33:25.000Z</Time>
            <Position>
              <LatitudeDegrees>43.28562386333942413330078125</LatitudeDegrees>
              <LongitudeDegrees>-2.1759247966110706329345703125</LongitudeDegrees>
            </Position>
            <AltitudeMeters>42</AltitudeMeters>
            <DistanceMeters>NAN</DistanceMeters>
          </Trackpoint>
          <Trackpoint>
            <Time>2022-07-10T10:33:28.000Z</Time>
            <Position>
              <LatitudeDegrees>43.2855977118015289306640625</LatitudeDegrees>
              <LongitudeDegrees>-2.175997383892536163330078125</LongitudeDegrees>
            </Position>
            <AltitudeMeters>42.200000762939453125</AltitudeMeters>
            <DistanceMeters>NAN</DistanceMeters>
          </Trackpoint>
          <Trackpoint>
            <Time>2022-07-10T10:33:29.000Z</Time>
            <Position>
              <LatitudeDegrees>43.28560240566730499267578125</LatitudeDegrees>
              <LongitudeDegrees>-2.1760766766965389251708984375</LongitudeDegrees>
            </Position>
            <AltitudeMeters>42.40000152587890625</AltitudeMeters>
            <DistanceMeters>NAN</DistanceMeters>
          </Trackpoint>
          <Trackpoint>
            <Time>2022-07-10T10:33:33.000Z</Time>
            <Position>
              <LatitudeDegrees>43.28568262048065662384033203125</LatitudeDegrees>
              <LongitudeDegrees>-2.1761856414377689361572265625</LongitudeDegrees>
            </Position>
            <AltitudeMeters>42.59999847412109375</AltitudeMeters>
            <DistanceMeters>NAN</DistanceMeters>
          </Trackpoint>
          <Trackpoint>
            <Time>2022-07-10T10:33:37.000Z</Time>
            <Position>
              <LatitudeDegrees>43.2856830395758152008056640625</LatitudeDegrees>
              <LongitudeDegrees>-2.17620148323476314544677734375</LongitudeDegrees>
            </Position>
            <AltitudeMeters>42.799999237060546875</AltitudeMeters>
            <DistanceMeters>NAN</DistanceMeters>
          </Trackpoint>
          <Trackpoint>
            <Time>2022-07-10T10:33:39.000Z</Time>
            <Position>
              <LatitudeDegrees>43.28567977063357830047607421875</LatitudeDegrees>
              <LongitudeDegrees>-2.1761896647512912750244140625</LongitudeDegrees>
            </Position>
            <AltitudeMeters>42.799999237060546875</AltitudeMeters>
            <DistanceMeters>NAN</DistanceMeters>
          </Trackpoint>
          <Trackpoint>
            <Time>2022-07-10T10:33:42.000Z</Time>
            <Position>
              <LatitudeDegrees>43.2857229374349117279052734375</LatitudeDegrees>
              <LongitudeDegrees>-2.1761806122958660125732421875</LongitudeDegrees>
            </Position>
            <AltitudeMeters>42.59999847412109375</AltitudeMeters>
            <DistanceMeters>NAN</DistanceMeters>
          </Trackpoint>
          <Trackpoint>
            <Time>2022-07-10T10:33:47.000Z</Time>
            <Position>
              <LatitudeDegrees>43.28576794825494289398193359375</LatitudeDegrees>
              <LongitudeDegrees>-2.17617399059236049652099609375</LongitudeDegrees>
            </Position>
            <AltitudeMeters>42.59999847412109375</AltitudeMeters>
            <DistanceMeters>NAN</DistanceMeters>
          </Trackpoint>
          <Trackpoint>
            <Time>2022-07-10T10:33:48.000Z</Time>
            <Position>
              <LatitudeDegrees>43.285776413977146148681640625</LatitudeDegrees>
              <LongitudeDegrees>-2.17620265670120716094970703125</LongitudeDegrees>
            </Position>
            <AltitudeMeters>42.59999847412109375</AltitudeMeters>
            <DistanceMeters>NAN</DistanceMeters>
          </Trackpoint>
          <Trackpoint>
            <Time>2022-07-10T10:33:52.000Z</Time>
            <Position>
              <LatitudeDegrees>43.28575520776212215423583984375</LatitudeDegrees>
              <LongitudeDegrees>-2.17626233585178852081298828125</LongitudeDegrees>
            </Position>
            <AltitudeMeters>42.59999847412109375</AltitudeMeters>
            <DistanceMeters>NAN</DistanceMeters>
          </Trackpoint>
          <Trackpoint>
            <Time>2022-07-10T10:33:53.000Z</Time>
            <Position>
              <LatitudeDegrees>43.28576727770268917083740234375</LatitudeDegrees>
              <LongitudeDegrees>-2.1762912534177303314208984375</LongitudeDegrees>
            </Position>
            <AltitudeMeters>42.59999847412109375</AltitudeMeters>
            <DistanceMeters>NAN</DistanceMeters>
          </Trackpoint>
          <Trackpoint>
            <Time>2022-07-10T10:33:55.000Z</Time>
            <Position>
              <LatitudeDegrees>43.28578873537480831146240234375</LatitudeDegrees>
              <LongitudeDegrees>-2.1763247810304164886474609375</LongitudeDegrees>
            </Position>
            <AltitudeMeters>42.59999847412109375</AltitudeMeters>
            <DistanceMeters>NAN</DistanceMeters>
          </Trackpoint>
          <Trackpoint>
            <Time>2022-07-10T10:33:58.000Z</Time>
            <Position>
              <LatitudeDegrees>43.28582863323390483856201171875</LatitudeDegrees>
              <LongitudeDegrees>-2.17634581960737705230712890625</LongitudeDegrees>
            </Position>
            <AltitudeMeters>42.40000152587890625</AltitudeMeters>
            <DistanceMeters>NAN</DistanceMeters>
          </Trackpoint>
          <Trackpoint>
            <Time>2022-07-10T10:34:05.000Z</Time>
            <Position>
              <LatitudeDegrees>43.2859636656939983367919921875</LatitudeDegrees>
              <LongitudeDegrees>-2.176387645304203033447265625</LongitudeDegrees>
            </Position>
            <AltitudeMeters>42.40000152587890625</AltitudeMeters>
            <DistanceMeters>NAN</DistanceMeters>
          </Trackpoint>
          <Trackpoint>
            <Time>2022-07-10T10:34:07.000Z</Time>
            <Position>
              <LatitudeDegrees>43.28598436899483203887939453125</LatitudeDegrees>
              <LongitudeDegrees>-2.17637783847749233245849609375</LongitudeDegrees>
            </Position>
            <AltitudeMeters>42.59999847412109375</AltitudeMeters>
            <DistanceMeters>NAN</DistanceMeters>
          </Trackpoint>
          <Trackpoint>
            <Time>2022-07-10T10:34:10.000Z</Time>
            <Position>
              <LatitudeDegrees>43.28600867651402950286865234375</LatitudeDegrees>
              <LongitudeDegrees>-2.17633810825645923614501953125</LongitudeDegrees>
            </Position>
            <AltitudeMeters>42.59999847412109375</AltitudeMeters>
            <DistanceMeters>NAN</DistanceMeters>
          </Trackpoint>
          <Trackpoint>
            <Time>2022-07-10T10:34:14.000Z</Time>
            <Position>
              <LatitudeDegrees>43.28600741922855377197265625</LatitudeDegrees>
              <LongitudeDegrees>-2.176350094377994537353515625</LongitudeDegrees>
            </Position>
            <AltitudeMeters>42.40000152587890625</AltitudeMeters>
            <DistanceMeters>NAN</DistanceMeters>
          </Trackpoint>
          <Trackpoint>
            <Time>2022-07-10T10:34:17.000Z</Time>
            <Position>
              <LatitudeDegrees>43.28599778003990650177001953125</LatitudeDegrees>
              <LongitudeDegrees>-2.17635336332023143768310546875</LongitudeDegrees>
            </Position>
            <AltitudeMeters>42.200000762939453125</AltitudeMeters>
            <DistanceMeters>NAN</DistanceMeters>
          </Trackpoint>
          <Trackpoint>
            <Time>2022-07-10T10:34:58.000Z</Time>
            <Position>
              <LatitudeDegrees>43.28601278364658355712890625</LatitudeDegrees>
              <LongitudeDegrees>-2.1765185706317424774169921875</LongitudeDegrees>
            </Position>
            <AltitudeMeters>42.40000152587890625</AltitudeMeters>
            <DistanceMeters>NAN</DistanceMeters>
          </Trackpoint>
          <Trackpoint>
            <Time>2022-07-10T10:34:59.000Z</Time>
            <Position>
              <LatitudeDegrees>43.28601278364658355712890625</LatitudeDegrees>
              <LongitudeDegrees>-2.1765185706317424774169921875</LongitudeDegrees>
            </Position>
            <AltitudeMeters>42.40000152587890625</AltitudeMeters>
            <DistanceMeters>NAN</DistanceMeters>
          </Trackpoint>
          <Trackpoint>
            <Time>2022-07-10T10:35:00.000Z</Time>
            <Position>
              <LatitudeDegrees>43.28603331930935382843017578125</LatitudeDegrees>
              <LongitudeDegrees>-2.17656173743307590484619140625</LongitudeDegrees>
            </Position>
            <AltitudeMeters>42.40000152587890625</AltitudeMeters>
            <DistanceMeters>NAN</DistanceMeters>
          </Trackpoint>
          <Trackpoint>
            <Time>2022-07-10T10:35:03.000Z</Time>
            <Position>
              <LatitudeDegrees>43.28606332652270793914794921875</LatitudeDegrees>
              <LongitudeDegrees>-2.17662225477397441864013671875</LongitudeDegrees>
            </Position>
            <AltitudeMeters>41.59999847412109375</AltitudeMeters>
            <DistanceMeters>NAN</DistanceMeters>
          </Trackpoint>
          <Trackpoint>
            <Time>2022-07-10T10:35:05.000Z</Time>
            <Position>
              <LatitudeDegrees>43.2860635779798030853271484375</LatitudeDegrees>
              <LongitudeDegrees>-2.17666693031787872314453125</LongitudeDegrees>
            </Position>
            <AltitudeMeters>41.200000762939453125</AltitudeMeters>
            <DistanceMeters>NAN</DistanceMeters>
          </Trackpoint>
          <Trackpoint>
            <Time>2022-07-10T10:35:06.000Z</Time>
            <Position>
              <LatitudeDegrees>43.28606097958981990814208984375</LatitudeDegrees>
              <LongitudeDegrees>-2.176692076027393341064453125</LongitudeDegrees>
            </Position>
            <AltitudeMeters>41.200000762939453125</AltitudeMeters>
            <DistanceMeters>NAN</DistanceMeters>
          </Trackpoint>
          <Trackpoint>
            <Time>2022-07-10T10:35:08.000Z</Time>
            <Position>
              <LatitudeDegrees>43.286056704819202423095703125</LatitudeDegrees>
              <LongitudeDegrees>-2.17674194835126399993896484375</LongitudeDegrees>
            </Position>
            <AltitudeMeters>41.200000762939453125</AltitudeMeters>
            <DistanceMeters>NAN</DistanceMeters>
          </Trackpoint>
          <Trackpoint>
            <Time>2022-07-10T10:35:11.000Z</Time>
            <Position>
              <LatitudeDegrees>43.286044299602508544921875</LatitudeDegrees>
              <LongitudeDegrees>-2.17680464498698711395263671875</LongitudeDegrees>
            </Position>
            <AltitudeMeters>41.200000762939453125</AltitudeMeters>
            <DistanceMeters>NAN</DistanceMeters>
          </Trackpoint>
          <Trackpoint>
            <Time>2022-07-10T10:35:15.000Z</Time>
            <Position>
              <LatitudeDegrees>43.2860863767564296722412109375</LatitudeDegrees>
              <LongitudeDegrees>-2.17691511847078800201416015625</LongitudeDegrees>
            </Position>
            <AltitudeMeters>41.200000762939453125</AltitudeMeters>
            <DistanceMeters>NAN</DistanceMeters>
          </Trackpoint>
          <Trackpoint>
            <Time>2022-07-10T10:35:17.000Z</Time>
            <Position>
              <LatitudeDegrees>43.286104314029216766357421875</LatitudeDegrees>
              <LongitudeDegrees>-2.1769611351191997528076171875</LongitudeDegrees>
            </Position>
            <AltitudeMeters>41.40000152587890625</AltitudeMeters>
            <DistanceMeters>NAN</DistanceMeters>
          </Trackpoint>
          <Trackpoint>
            <Time>2022-07-10T10:35:18.000Z</Time>
            <Position>
              <LatitudeDegrees>43.28614999540150165557861328125</LatitudeDegrees>
              <LongitudeDegrees>-2.1769923157989978790283203125</LongitudeDegrees>
            </Position>
            <AltitudeMeters>41.40000152587890625</AltitudeMeters>
            <DistanceMeters>NAN</DistanceMeters>
          </Trackpoint>
          <Trackpoint>
            <Time>2022-07-10T10:35:21.000Z</Time>
            <Position>
              <LatitudeDegrees>43.28623163513839244842529296875</LatitudeDegrees>
              <LongitudeDegrees>-2.177076973021030426025390625</LongitudeDegrees>
            </Position>
            <AltitudeMeters>41.40000152587890625</AltitudeMeters>
            <DistanceMeters>NAN</DistanceMeters>
          </Trackpoint>
          <Trackpoint>
            <Time>2022-07-10T10:35:23.000Z</Time>
            <Position>
              <LatitudeDegrees>43.2862778194248676300048828125</LatitudeDegrees>
              <LongitudeDegrees>-2.17711997218430042266845703125</LongitudeDegrees>
            </Position>
            <AltitudeMeters>41.40000152587890625</AltitudeMeters>
            <DistanceMeters>NAN</DistanceMeters>
          </Trackpoint>
          <Trackpoint>
            <Time>2022-07-10T10:35:27.000Z</Time>
            <Position>
              <LatitudeDegrees>43.2863152027130126953125</LatitudeDegrees>
              <LongitudeDegrees>-2.17725961469113826751708984375</LongitudeDegrees>
            </Position>
            <AltitudeMeters>41.200000762939453125</AltitudeMeters>
            <DistanceMeters>NAN</DistanceMeters>
          </Trackpoint>
          <Trackpoint>
            <Time>2022-07-10T10:35:32.000Z</Time>
            <Position>
              <LatitudeDegrees>43.2862727902829647064208984375</LatitudeDegrees>
              <LongitudeDegrees>-2.1773389913141727447509765625</LongitudeDegrees>
            </Position>
            <AltitudeMeters>41.40000152587890625</AltitudeMeters>
            <DistanceMeters>NAN</DistanceMeters>
          </Trackpoint>
          <Trackpoint>
            <Time>2022-07-10T10:35:33.000Z</Time>
            <Position>
              <LatitudeDegrees>43.2862372510135173797607421875</LatitudeDegrees>
              <LongitudeDegrees>-2.17733320780098438262939453125</LongitudeDegrees>
            </Position>
            <AltitudeMeters>41.40000152587890625</AltitudeMeters>
            <DistanceMeters>NAN</DistanceMeters>
          </Trackpoint>
          <Trackpoint>
            <Time>2022-07-10T10:35:38.000Z</Time>
            <Position>
              <LatitudeDegrees>43.286249823868274688720703125</LatitudeDegrees>
              <LongitudeDegrees>-2.177350223064422607421875</LongitudeDegrees>
            </Position>
            <AltitudeMeters>41.40000152587890625</AltitudeMeters>
            <DistanceMeters>NAN</DistanceMeters>
          </Trackpoint>
          <Trackpoint>
            <Time>2022-07-10T10:35:43.000Z</Time>
            <Position>
              <LatitudeDegrees>43.28629416413605213165283203125</LatitudeDegrees>
              <LongitudeDegrees>-2.1773423440754413604736328125</LongitudeDegrees>
            </Position>
            <AltitudeMeters>41.40000152587890625</AltitudeMeters>
            <DistanceMeters>NAN</DistanceMeters>
          </Trackpoint>
          <Trackpoint>
            <Time>2022-07-10T10:35:48.000Z</Time>
            <Position>
              <LatitudeDegrees>43.2864119298756122589111328125</LatitudeDegrees>
              <LongitudeDegrees>-2.177441418170928955078125</LongitudeDegrees>
            </Position>
            <AltitudeMeters>41.59999847412109375</AltitudeMeters>
            <DistanceMeters>NAN</DistanceMeters>
          </Trackpoint>
          <Trackpoint>
            <Time>2022-07-10T10:35:49.000Z</Time>
            <Position>
              <LatitudeDegrees>43.2864142768085002899169921875</LatitudeDegrees>
              <LongitudeDegrees>-2.1774187870323657989501953125</LongitudeDegrees>
            </Position>
            <AltitudeMeters>41.59999847412109375</AltitudeMeters>
            <DistanceMeters>NAN</DistanceMeters>
          </Trackpoint>
          <Trackpoint>
            <Time>2022-07-10T10:35:50.000Z</Time>
            <Position>
              <LatitudeDegrees>43.28640840947628021240234375</LatitudeDegrees>
              <LongitudeDegrees>-2.1774224750697612762451171875</LongitudeDegrees>
            </Position>
            <AltitudeMeters>41.59999847412109375</AltitudeMeters>
            <DistanceMeters>NAN</DistanceMeters>
          </Trackpoint>
          <Trackpoint>
            <Time>2022-07-10T10:35:54.000Z</Time>
            <Position>
              <LatitudeDegrees>43.28633238561451435089111328125</LatitudeDegrees>
              <LongitudeDegrees>-2.17753755860030651092529296875</LongitudeDegrees>
            </Position>
            <AltitudeMeters>41.59999847412109375</AltitudeMeters>
            <DistanceMeters>NAN</DistanceMeters>
          </Trackpoint>
          <Trackpoint>
            <Time>2022-07-10T10:35:55.000Z</Time>
            <Position>
              <LatitudeDegrees>43.28631763346493244171142578125</LatitudeDegrees>
              <LongitudeDegrees>-2.1775371395051479339599609375</LongitudeDegrees>
            </Position>
            <AltitudeMeters>41.59999847412109375</AltitudeMeters>
            <DistanceMeters>NAN</DistanceMeters>
          </Trackpoint>
          <Trackpoint>
            <Time>2022-07-10T10:35:59.000Z</Time>
            <Position>
              <LatitudeDegrees>43.2862288691103458404541015625</LatitudeDegrees>
              <LongitudeDegrees>-2.17758466489613056182861328125</LongitudeDegrees>
            </Position>
            <AltitudeMeters>41.799999237060546875</AltitudeMeters>
            <DistanceMeters>NAN</DistanceMeters>
          </Trackpoint>
          <Trackpoint>
            <Time>2022-07-10T10:36:02.000Z</Time>
            <Position>
              <LatitudeDegrees>43.2861869595944881439208984375</LatitudeDegrees>
              <LongitudeDegrees>-2.177652977406978607177734375</LongitudeDegrees>
            </Position>
            <AltitudeMeters>41.799999237060546875</AltitudeMeters>
            <DistanceMeters>NAN</DistanceMeters>
          </Trackpoint>
          <Trackpoint>
            <Time>2022-07-10T10:36:07.000Z</Time>
            <Position>
              <LatitudeDegrees>43.2861443795263767242431640625</LatitudeDegrees>
              <LongitudeDegrees>-2.17776705510914325714111328125</LongitudeDegrees>
            </Position>
            <AltitudeMeters>41.59999847412109375</AltitudeMeters>
            <DistanceMeters>NAN</DistanceMeters>
          </Trackpoint>
          <Trackpoint>
            <Time>2022-07-10T10:36:09.000Z</Time>
            <Position>
              <LatitudeDegrees>43.28614563681185245513916015625</LatitudeDegrees>
              <LongitudeDegrees>-2.17777342535555362701416015625</LongitudeDegrees>
            </Position>
            <AltitudeMeters>41.59999847412109375</AltitudeMeters>
            <DistanceMeters>NAN</DistanceMeters>
          </Trackpoint>
          <Trackpoint>
            <Time>2022-07-10T10:36:11.000Z</Time>
            <Position>
              <LatitudeDegrees>43.28616424463689327239990234375</LatitudeDegrees>
              <LongitudeDegrees>-2.1777493692934513092041015625</LongitudeDegrees>
            </Position>
            <AltitudeMeters>41.59999847412109375</AltitudeMeters>
            <DistanceMeters>NAN</DistanceMeters>
          </Trackpoint>
          <Trackpoint>
            <Time>2022-07-10T10:36:13.000Z</Time>
            <Position>
              <LatitudeDegrees>43.286174722015857696533203125</LatitudeDegrees>
              <LongitudeDegrees>-2.17777912504971027374267578125</LongitudeDegrees>
            </Position>
            <AltitudeMeters>41.59999847412109375</AltitudeMeters>
            <DistanceMeters>NAN</DistanceMeters>
          </Trackpoint>
          <Trackpoint>
            <Time>2022-07-10T10:36:15.000Z</Time>
            <Position>
              <LatitudeDegrees>43.28631327487528324127197265625</LatitudeDegrees>
              <LongitudeDegrees>-2.1775797195732593536376953125</LongitudeDegrees>
            </Position>
            <AltitudeMeters>41.40000152587890625</AltitudeMeters>
            <DistanceMeters>NAN</DistanceMeters>
          </Trackpoint>
          <Trackpoint>
            <Time>2022-07-10T10:36:17.000Z</Time>
            <Position>
              <LatitudeDegrees>43.28619190491735935211181640625</LatitudeDegrees>
              <LongitudeDegrees>-2.177624814212322235107421875</LongitudeDegrees>
            </Position>
            <AltitudeMeters>41.40000152587890625</AltitudeMeters>
            <DistanceMeters>NAN</DistanceMeters>
          </Trackpoint>
          <Trackpoint>
            <Time>2022-07-10T10:36:18.000Z</Time>
            <Position>
              <LatitudeDegrees>43.2861416973173618316650390625</LatitudeDegrees>
              <LongitudeDegrees>-2.177580893039703369140625</LongitudeDegrees>
            </Position>
            <AltitudeMeters>41.59999847412109375</AltitudeMeters>
            <DistanceMeters>NAN</DistanceMeters>
          </Trackpoint>
          <Trackpoint>
            <Time>2022-07-10T10:36:23.000Z</Time>
            <Position>
              <LatitudeDegrees>43.28607623465359210968017578125</LatitudeDegrees>
              <LongitudeDegrees>-2.1776813082396984100341796875</LongitudeDegrees>
            </Position>
            <AltitudeMeters>41.59999847412109375</AltitudeMeters>
            <DistanceMeters>NAN</DistanceMeters>
          </Trackpoint>
          <Trackpoint>
            <Time>2022-07-10T10:36:25.000Z</Time>
            <Position>
              <LatitudeDegrees>43.286051340401172637939453125</LatitudeDegrees>
              <LongitudeDegrees>-2.17777309007942676544189453125</LongitudeDegrees>
            </Position>
            <AltitudeMeters>41.59999847412109375</AltitudeMeters>
            <DistanceMeters>NAN</DistanceMeters>
          </Trackpoint>
          <Trackpoint>
            <Time>2022-07-10T10:37:50.000Z</Time>
            <Position>
              <LatitudeDegrees>43.286068774759769439697265625</LatitudeDegrees>
              <LongitudeDegrees>-2.17748743481934070587158203125</LongitudeDegrees>
            </Position>
            <AltitudeMeters>41.200000762939453125</AltitudeMeters>
            <DistanceMeters>NAN</DistanceMeters>
          </Trackpoint>
          <Trackpoint>
            <Time>2022-07-10T10:38:46.000Z</Time>
            <Position>
              <LatitudeDegrees>43.286829181015491485595703125</LatitudeDegrees>
              <LongitudeDegrees>-2.17777174897491931915283203125</LongitudeDegrees>
            </Position>
            <AltitudeMeters>42.59999847412109375</AltitudeMeters>
            <DistanceMeters>NAN</DistanceMeters>
          </Trackpoint>
          <Trackpoint>
            <Time>2022-07-10T10:38:47.000Z</Time>
            <Position>
              <LatitudeDegrees>43.28686245717108249664306640625</LatitudeDegrees>
              <LongitudeDegrees>-2.1778026781976222991943359375</LongitudeDegrees>
            </Position>
            <AltitudeMeters>42.59999847412109375</AltitudeMeters>
            <DistanceMeters>NAN</DistanceMeters>
          </Trackpoint>
          <Trackpoint>
            <Time>2022-07-10T10:38:50.000Z</Time>
            <Position>
              <LatitudeDegrees>43.2869356311857700347900390625</LatitudeDegrees>
              <LongitudeDegrees>-2.17783260159194469451904296875</LongitudeDegrees>
            </Position>
            <AltitudeMeters>42.799999237060546875</AltitudeMeters>
            <DistanceMeters>NAN</DistanceMeters>
          </Trackpoint>
          <Trackpoint>
            <Time>2022-07-10T10:38:58.000Z</Time>
            <Position>
              <LatitudeDegrees>43.28717359341681003570556640625</LatitudeDegrees>
              <LongitudeDegrees>-2.17791893519461154937744140625</LongitudeDegrees>
            </Position>
            <AltitudeMeters>43</AltitudeMeters>
            <DistanceMeters>NAN</DistanceMeters>
          </Trackpoint>
          <Trackpoint>
            <Time>2022-07-10T10:38:59.000Z</Time>
            <Position>
              <LatitudeDegrees>43.28717359341681003570556640625</LatitudeDegrees>
              <LongitudeDegrees>-2.17791893519461154937744140625</LongitudeDegrees>
            </Position>
            <AltitudeMeters>43</AltitudeMeters>
            <DistanceMeters>NAN</DistanceMeters>
          </Trackpoint>
          <Trackpoint>
            <Time>2022-07-10T10:39:06.000Z</Time>
            <Position>
              <LatitudeDegrees>43.28741960227489471435546875</LatitudeDegrees>
              <LongitudeDegrees>-2.17805975116789340972900390625</LongitudeDegrees>
            </Position>
            <AltitudeMeters>42.40000152587890625</AltitudeMeters>
            <DistanceMeters>NAN</DistanceMeters>
          </Trackpoint>
          <Trackpoint>
            <Time>2022-07-10T10:39:14.000Z</Time>
            <Position>
              <LatitudeDegrees>43.28766225837171077728271484375</LatitudeDegrees>
              <LongitudeDegrees>-2.178357057273387908935546875</LongitudeDegrees>
            </Position>
            <AltitudeMeters>42.200000762939453125</AltitudeMeters>
            <DistanceMeters>NAN</DistanceMeters>
          </Trackpoint>
          <Trackpoint>
            <Time>2022-07-10T10:39:21.000Z</Time>
            <Position>
              <LatitudeDegrees>43.28787968493998050689697265625</LatitudeDegrees>
              <LongitudeDegrees>-2.1785746514797210693359375</LongitudeDegrees>
            </Position>
            <AltitudeMeters>41.59999847412109375</AltitudeMeters>
            <DistanceMeters>NAN</DistanceMeters>
          </Trackpoint>
          <Trackpoint>
            <Time>2022-07-10T10:39:23.000Z</Time>
            <Position>
              <LatitudeDegrees>43.28795780427753925323486328125</LatitudeDegrees>
              <LongitudeDegrees>-2.17863542027771472930908203125</LongitudeDegrees>
            </Position>
            <AltitudeMeters>41.40000152587890625</AltitudeMeters>
            <DistanceMeters>NAN</DistanceMeters>
          </Trackpoint>
          <Trackpoint>
            <Time>2022-07-10T10:39:27.000Z</Time>
            <Position>
              <LatitudeDegrees>43.28816416673362255096435546875</LatitudeDegrees>
              <LongitudeDegrees>-2.1787404455244541168212890625</LongitudeDegrees>
            </Position>
            <AltitudeMeters>41</AltitudeMeters>
            <DistanceMeters>NAN</DistanceMeters>
          </Trackpoint>
          <Trackpoint>
            <Time>2022-07-10T10:39:29.000Z</Time>
            <Position>
              <LatitudeDegrees>43.2882504165172576904296875</LatitudeDegrees>
              <LongitudeDegrees>-2.17876416631042957305908203125</LongitudeDegrees>
            </Position>
            <AltitudeMeters>41</AltitudeMeters>
            <DistanceMeters>NAN</DistanceMeters>
          </Trackpoint>
          <Trackpoint>
            <Time>2022-07-10T10:39:30.000Z</Time>
            <Position>
              <LatitudeDegrees>43.28829375095665454864501953125</LatitudeDegrees>
              <LongitudeDegrees>-2.17876919545233249664306640625</LongitudeDegrees>
            </Position>
            <AltitudeMeters>40.799999237060546875</AltitudeMeters>
            <DistanceMeters>NAN</DistanceMeters>
          </Trackpoint>
          <Trackpoint>
            <Time>2022-07-10T10:39:35.000Z</Time>
            <Position>
              <LatitudeDegrees>43.288512267172336578369140625</LatitudeDegrees>
              <LongitudeDegrees>-2.17879517935216426849365234375</LongitudeDegrees>
            </Position>
            <AltitudeMeters>40.59999847412109375</AltitudeMeters>
            <DistanceMeters>NAN</DistanceMeters>
          </Trackpoint>
          <Trackpoint>
            <Time>2022-07-10T10:39:37.000Z</Time>
            <Position>
              <LatitudeDegrees>43.288596086204051971435546875</LatitudeDegrees>
              <LongitudeDegrees>-2.17879937030375003814697265625</LongitudeDegrees>
            </Position>
            <AltitudeMeters>40.59999847412109375</AltitudeMeters>
            <DistanceMeters>NAN</DistanceMeters>
          </Trackpoint>
          <Trackpoint>
            <Time>2022-07-10T10:39:41.000Z</Time>
            <Position>
              <LatitudeDegrees>43.28873162157833576202392578125</LatitudeDegrees>
              <LongitudeDegrees>-2.1788121946156024932861328125</LongitudeDegrees>
            </Position>
            <AltitudeMeters>40.799999237060546875</AltitudeMeters>
            <DistanceMeters>NAN</DistanceMeters>
          </Trackpoint>
          <Trackpoint>
            <Time>2022-07-10T10:39:42.000Z</Time>
            <Position>
              <LatitudeDegrees>43.28878073953092098236083984375</LatitudeDegrees>
              <LongitudeDegrees>-2.17881864868104457855224609375</LongitudeDegrees>
            </Position>
            <AltitudeMeters>40.799999237060546875</AltitudeMeters>
            <DistanceMeters>NAN</DistanceMeters>
          </Trackpoint>
          <Trackpoint>
            <Time>2022-07-10T10:39:49.000Z</Time>
            <Position>
              <LatitudeDegrees>43.28908265568315982818603515625</LatitudeDegrees>
              <LongitudeDegrees>-2.1788661740720272064208984375</LongitudeDegrees>
            </Position>
            <AltitudeMeters>41.200000762939453125</AltitudeMeters>
            <DistanceMeters>NAN</DistanceMeters>
          </Trackpoint>
          <Trackpoint>
            <Time>2022-07-10T10:39:57.000Z</Time>
            <Position>
              <LatitudeDegrees>43.2893160916864871978759765625</LatitudeDegrees>
              <LongitudeDegrees>-2.17889224179089069366455078125</LongitudeDegrees>
            </Position>
            <AltitudeMeters>41.40000152587890625</AltitudeMeters>
            <DistanceMeters>NAN</DistanceMeters>
          </Trackpoint>
          <Trackpoint>
            <Time>2022-07-10T10:40:05.000Z</Time>
            <Position>
              <LatitudeDegrees>43.28955472446978092193603515625</LatitudeDegrees>
              <LongitudeDegrees>-2.17892132699489593505859375</LongitudeDegrees>
            </Position>
            <AltitudeMeters>41.40000152587890625</AltitudeMeters>
            <DistanceMeters>NAN</DistanceMeters>
          </Trackpoint>
          <Trackpoint>
            <Time>2022-07-10T10:40:07.000Z</Time>
            <Position>
              <LatitudeDegrees>43.28957953490316867828369140625</LatitudeDegrees>
              <LongitudeDegrees>-2.178919315338134765625</LongitudeDegrees>
            </Position>
            <AltitudeMeters>41.59999847412109375</AltitudeMeters>
            <DistanceMeters>NAN</DistanceMeters>
          </Trackpoint>
          <Trackpoint>
            <Time>2022-07-10T10:40:11.000Z</Time>
            <Position>
              <LatitudeDegrees>43.2896842248737812042236328125</LatitudeDegrees>
              <LongitudeDegrees>-2.17891654931008815765380859375</LongitudeDegrees>
            </Position>
            <AltitudeMeters>41.40000152587890625</AltitudeMeters>
            <DistanceMeters>NAN</DistanceMeters>
          </Trackpoint>
          <Trackpoint>
            <Time>2022-07-10T10:40:15.000Z</Time>
            <Position>
              <LatitudeDegrees>43.28981657512485980987548828125</LatitudeDegrees>
              <LongitudeDegrees>-2.17895619571208953857421875</LongitudeDegrees>
            </Position>
            <AltitudeMeters>41.40000152587890625</AltitudeMeters>
            <DistanceMeters>NAN</DistanceMeters>
          </Trackpoint>
          <Trackpoint>
            <Time>2022-07-10T10:40:16.000Z</Time>
            <Position>
              <LatitudeDegrees>43.28981657512485980987548828125</LatitudeDegrees>
              <LongitudeDegrees>-2.17895619571208953857421875</LongitudeDegrees>
            </Position>
            <AltitudeMeters>41.40000152587890625</AltitudeMeters>
            <DistanceMeters>NAN</DistanceMeters>
          </Trackpoint>
          <Trackpoint>
            <Time>2022-07-10T10:40:21.000Z</Time>
            <Position>
              <LatitudeDegrees>43.28994247131049633026123046875</LatitudeDegrees>
              <LongitudeDegrees>-2.17895527370274066925048828125</LongitudeDegrees>
            </Position>
            <AltitudeMeters>41.59999847412109375</AltitudeMeters>
            <DistanceMeters>NAN</DistanceMeters>
          </Trackpoint>
          <Trackpoint>
            <Time>2022-07-10T10:40:24.000Z</Time>
            <Position>
              <LatitudeDegrees>43.28997574746608734130859375</LatitudeDegrees>
              <LongitudeDegrees>-2.1789442934095859527587890625</LongitudeDegrees>
            </Position>
            <AltitudeMeters>41.40000152587890625</AltitudeMeters>
            <DistanceMeters>NAN</DistanceMeters>
          </Trackpoint>
          <Trackpoint>
            <Time>2022-07-10T10:40:30.000Z</Time>
            <Position>
              <LatitudeDegrees>43.28999946825206279754638671875</LatitudeDegrees>
              <LongitudeDegrees>-2.1789540164172649383544921875</LongitudeDegrees>
            </Position>
            <AltitudeMeters>41.59999847412109375</AltitudeMeters>
            <DistanceMeters>NAN</DistanceMeters>
          </Trackpoint>
          <Trackpoint>
            <Time>2022-07-10T10:41:45.000Z</Time>
            <Position>
              <LatitudeDegrees>43.29005780629813671112060546875</LatitudeDegrees>
              <LongitudeDegrees>-2.1790090017020702362060546875</LongitudeDegrees>
            </Position>
            <AltitudeMeters>41.59999847412109375</AltitudeMeters>
            <DistanceMeters>NAN</DistanceMeters>
          </Trackpoint>
          <Trackpoint>
            <Time>2022-07-10T10:41:46.000Z</Time>
            <Position>
              <LatitudeDegrees>43.29009166918694972991943359375</LatitudeDegrees>
              <LongitudeDegrees>-2.17901545576751232147216796875</LongitudeDegrees>
            </Position>
            <AltitudeMeters>41.59999847412109375</AltitudeMeters>
            <DistanceMeters>NAN</DistanceMeters>
          </Trackpoint>
          <Trackpoint>
            <Time>2022-07-10T10:41:50.000Z</Time>
            <Position>
              <LatitudeDegrees>43.2901938445866107940673828125</LatitudeDegrees>
              <LongitudeDegrees>-2.1790147013962268829345703125</LongitudeDegrees>
            </Position>
            <AltitudeMeters>41.59999847412109375</AltitudeMeters>
            <DistanceMeters>NAN</DistanceMeters>
          </Trackpoint>
          <Trackpoint>
            <Time>2022-07-10T10:41:56.000Z</Time>
            <Position>
              <LatitudeDegrees>43.29035854898393154144287109375</LatitudeDegrees>
              <LongitudeDegrees>-2.17904470860958099365234375</LongitudeDegrees>
            </Position>
            <AltitudeMeters>42</AltitudeMeters>
            <DistanceMeters>NAN</DistanceMeters>
          </Trackpoint>
          <Trackpoint>
            <Time>2022-07-10T10:41:58.000Z</Time>
            <Position>
              <LatitudeDegrees>43.29041831195354461669921875</LatitudeDegrees>
              <LongitudeDegrees>-2.17904361896216869354248046875</LongitudeDegrees>
            </Position>
            <AltitudeMeters>42.200000762939453125</AltitudeMeters>
            <DistanceMeters>NAN</DistanceMeters>
          </Trackpoint>
          <Trackpoint>
            <Time>2022-07-10T10:42:00.000Z</Time>
            <Position>
              <LatitudeDegrees>43.29045997001230716705322265625</LatitudeDegrees>
              <LongitudeDegrees>-2.1790307946503162384033203125</LongitudeDegrees>
            </Position>
            <AltitudeMeters>42.200000762939453125</AltitudeMeters>
            <DistanceMeters>NAN</DistanceMeters>
          </Trackpoint>
          <Trackpoint>
            <Time>2022-07-10T10:42:03.000Z</Time>
            <Position>
              <LatitudeDegrees>43.29047556035220623016357421875</LatitudeDegrees>
              <LongitudeDegrees>-2.1790123544633388519287109375</LongitudeDegrees>
            </Position>
            <AltitudeMeters>42</AltitudeMeters>
            <DistanceMeters>NAN</DistanceMeters>
          </Trackpoint>
          <Trackpoint>
            <Time>2022-07-10T10:42:06.000Z</Time>
            <Position>
              <LatitudeDegrees>43.29050020314753055572509765625</LatitudeDegrees>
              <LongitudeDegrees>-2.17898846603929996490478515625</LongitudeDegrees>
            </Position>
            <AltitudeMeters>42</AltitudeMeters>
            <DistanceMeters>NAN</DistanceMeters>
          </Trackpoint>
          <Trackpoint>
            <Time>2022-07-10T10:42:08.000Z</Time>
            <Position>
              <LatitudeDegrees>43.290521912276744842529296875</LatitudeDegrees>
              <LongitudeDegrees>-2.178980000317096710205078125</LongitudeDegrees>
            </Position>
            <AltitudeMeters>41.799999237060546875</AltitudeMeters>
            <DistanceMeters>NAN</DistanceMeters>
          </Trackpoint>
          <Trackpoint>
            <Time>2022-07-10T10:42:16.000Z</Time>
            <Position>
              <LatitudeDegrees>43.29071201384067535400390625</LatitudeDegrees>
              <LongitudeDegrees>-2.17891554348170757293701171875</LongitudeDegrees>
            </Position>
            <AltitudeMeters>42.40000152587890625</AltitudeMeters>
            <DistanceMeters>NAN</DistanceMeters>
          </Trackpoint>
          <Trackpoint>
            <Time>2022-07-10T10:42:18.000Z</Time>
            <Position>
              <LatitudeDegrees>43.29073221422731876373291015625</LatitudeDegrees>
              <LongitudeDegrees>-2.1789097599685192108154296875</LongitudeDegrees>
            </Position>
            <AltitudeMeters>42.59999847412109375</AltitudeMeters>
            <DistanceMeters>NAN</DistanceMeters>
          </Trackpoint>
          <Trackpoint>
            <Time>2022-07-10T10:42:23.000Z</Time>
            <Position>
              <LatitudeDegrees>43.29085090197622776031494140625</LatitudeDegrees>
              <LongitudeDegrees>-2.17888511717319488525390625</LongitudeDegrees>
            </Position>
            <AltitudeMeters>43</AltitudeMeters>
            <DistanceMeters>NAN</DistanceMeters>
          </Trackpoint>
          <Trackpoint>
            <Time>2022-07-10T10:42:25.000Z</Time>
            <Position>
              <LatitudeDegrees>43.29089398495852947235107421875</LatitudeDegrees>
              <LongitudeDegrees>-2.17886726371943950653076171875</LongitudeDegrees>
            </Position>
            <AltitudeMeters>43.200000762939453125</AltitudeMeters>
            <DistanceMeters>NAN</DistanceMeters>
          </Trackpoint>
          <Trackpoint>
            <Time>2022-07-10T10:42:29.000Z</Time>
            <Position>
              <LatitudeDegrees>43.290939666330814361572265625</LatitudeDegrees>
              <LongitudeDegrees>-2.1788333170115947723388671875</LongitudeDegrees>
            </Position>
            <AltitudeMeters>43.40000152587890625</AltitudeMeters>
            <DistanceMeters>NAN</DistanceMeters>
          </Trackpoint>
          <Trackpoint>
            <Time>2022-07-10T10:42:31.000Z</Time>
            <Position>
              <LatitudeDegrees>43.29097093082964420318603515625</LatitudeDegrees>
              <LongitudeDegrees>-2.1788168884813785552978515625</LongitudeDegrees>
            </Position>
            <AltitudeMeters>43.59999847412109375</AltitudeMeters>
            <DistanceMeters>NAN</DistanceMeters>
          </Trackpoint>
          <Trackpoint>
            <Time>2022-07-10T10:42:32.000Z</Time>
            <Position>
              <LatitudeDegrees>43.29097830690443515777587890625</LatitudeDegrees>
              <LongitudeDegrees>-2.17880272306501865386962890625</LongitudeDegrees>
            </Position>
            <AltitudeMeters>43.799999237060546875</AltitudeMeters>
            <DistanceMeters>NAN</DistanceMeters>
          </Trackpoint>
          <Trackpoint>
            <Time>2022-07-10T10:42:33.000Z</Time>
            <Position>
              <LatitudeDegrees>43.29101116396486759185791015625</LatitudeDegrees>
              <LongitudeDegrees>-2.17880238778889179229736328125</LongitudeDegrees>
            </Position>
            <AltitudeMeters>43.799999237060546875</AltitudeMeters>
            <DistanceMeters>NAN</DistanceMeters>
          </Trackpoint>
          <Trackpoint>
            <Time>2022-07-10T10:42:35.000Z</Time>
            <Position>
              <LatitudeDegrees>43.2910410873591899871826171875</LatitudeDegrees>
              <LongitudeDegrees>-2.17882283963263034820556640625</LongitudeDegrees>
            </Position>
            <AltitudeMeters>44.200000762939453125</AltitudeMeters>
            <DistanceMeters>NAN</DistanceMeters>
          </Trackpoint>
          <Trackpoint>
            <Time>2022-07-10T10:42:37.000Z</Time>
            <Position>
              <LatitudeDegrees>43.29108173958957195281982421875</LatitudeDegrees>
              <LongitudeDegrees>-2.1788401901721954345703125</LongitudeDegrees>
            </Position>
            <AltitudeMeters>44.40000152587890625</AltitudeMeters>
            <DistanceMeters>NAN</DistanceMeters>
          </Trackpoint>
          <Trackpoint>
            <Time>2022-07-10T10:42:42.000Z</Time>
            <Position>
              <LatitudeDegrees>43.29114854335784912109375</LatitudeDegrees>
              <LongitudeDegrees>-2.178910933434963226318359375</LongitudeDegrees>
            </Position>
            <AltitudeMeters>44.59999847412109375</AltitudeMeters>
            <DistanceMeters>NAN</DistanceMeters>
          </Trackpoint>
          <Trackpoint>
            <Time>2022-07-10T10:42:44.000Z</Time>
            <Position>
              <LatitudeDegrees>43.2911820709705352783203125</LatitudeDegrees>
              <LongitudeDegrees>-2.1789271943271160125732421875</LongitudeDegrees>
            </Position>
            <AltitudeMeters>44.799999237060546875</AltitudeMeters>
            <DistanceMeters>NAN</DistanceMeters>
          </Trackpoint>
          <Trackpoint>
            <Time>2022-07-10T10:42:45.000Z</Time>
            <Position>
              <LatitudeDegrees>43.29119405709207057952880859375</LatitudeDegrees>
              <LongitudeDegrees>-2.17893348075449466705322265625</LongitudeDegrees>
            </Position>
            <AltitudeMeters>44.799999237060546875</AltitudeMeters>
            <DistanceMeters>NAN</DistanceMeters>
          </Trackpoint>
          <Trackpoint>
            <Time>2022-07-10T10:42:46.000Z</Time>
            <Position>
              <LatitudeDegrees>43.29120947979390621185302734375</LatitudeDegrees>
              <LongitudeDegrees>-2.17894689179956912994384765625</LongitudeDegrees>
            </Position>
            <AltitudeMeters>44.799999237060546875</AltitudeMeters>
            <DistanceMeters>NAN</DistanceMeters>
          </Trackpoint>
          <Trackpoint>
            <Time>2022-07-10T10:42:51.000Z</Time>
            <Position>
              <LatitudeDegrees>43.29125289805233478546142578125</LatitudeDegrees>
              <LongitudeDegrees>-2.17903858982026576995849609375</LongitudeDegrees>
            </Position>
            <AltitudeMeters>44.799999237060546875</AltitudeMeters>
            <DistanceMeters>NAN</DistanceMeters>
          </Trackpoint>
          <Trackpoint>
            <Time>2022-07-10T10:42:53.000Z</Time>
            <Position>
              <LatitudeDegrees>43.29128508456051349639892578125</LatitudeDegrees>
              <LongitudeDegrees>-2.1791528351604938507080078125</LongitudeDegrees>
            </Position>
            <AltitudeMeters>45</AltitudeMeters>
            <DistanceMeters>NAN</DistanceMeters>
          </Trackpoint>
          <Trackpoint>
            <Time>2022-07-10T10:42:57.000Z</Time>
            <Position>
              <LatitudeDegrees>43.291295729577541351318359375</LatitudeDegrees>
              <LongitudeDegrees>-2.1792567707598209381103515625</LongitudeDegrees>
            </Position>
            <AltitudeMeters>45</AltitudeMeters>
            <DistanceMeters>NAN</DistanceMeters>
          </Trackpoint>
          <Trackpoint>
            <Time>2022-07-10T10:42:58.000Z</Time>
            <Position>
              <LatitudeDegrees>43.291312158107757568359375</LatitudeDegrees>
              <LongitudeDegrees>-2.1792772226035594940185546875</LongitudeDegrees>
            </Position>
            <AltitudeMeters>45.200000762939453125</AltitudeMeters>
            <DistanceMeters>NAN</DistanceMeters>
          </Trackpoint>
          <Trackpoint>
            <Time>2022-07-10T10:43:03.000Z</Time>
            <Position>
              <LatitudeDegrees>43.29139187000691890716552734375</LatitudeDegrees>
              <LongitudeDegrees>-2.1794351376593112945556640625</LongitudeDegrees>
            </Position>
            <AltitudeMeters>45.200000762939453125</AltitudeMeters>
            <DistanceMeters>NAN</DistanceMeters>
          </Trackpoint>
          <Trackpoint>
            <Time>2022-07-10T10:43:12.000Z</Time>
            <Position>
              <LatitudeDegrees>43.29154752194881439208984375</LatitudeDegrees>
              <LongitudeDegrees>-2.17976219952106475830078125</LongitudeDegrees>
            </Position>
            <AltitudeMeters>44.799999237060546875</AltitudeMeters>
            <DistanceMeters>NAN</DistanceMeters>
          </Trackpoint>
          <Trackpoint>
            <Time>2022-07-10T10:43:17.000Z</Time>
            <Position>
              <LatitudeDegrees>43.2916248030960559844970703125</LatitudeDegrees>
              <LongitudeDegrees>-2.1798817254602909088134765625</LongitudeDegrees>
            </Position>
            <AltitudeMeters>45</AltitudeMeters>
            <DistanceMeters>NAN</DistanceMeters>
          </Trackpoint>
          <Trackpoint>
            <Time>2022-07-10T10:43:23.000Z</Time>
            <Position>
              <LatitudeDegrees>43.2916905172169208526611328125</LatitudeDegrees>
              <LongitudeDegrees>-2.18015288002789020538330078125</LongitudeDegrees>
            </Position>
            <AltitudeMeters>45</AltitudeMeters>
            <DistanceMeters>NAN</DistanceMeters>
          </Trackpoint>
          <Trackpoint>
            <Time>2022-07-10T10:43:29.000Z</Time>
            <Position>
              <LatitudeDegrees>43.2917082868516445159912109375</LatitudeDegrees>
              <LongitudeDegrees>-2.18031607568264007568359375</LongitudeDegrees>
            </Position>
            <AltitudeMeters>44.799999237060546875</AltitudeMeters>
            <DistanceMeters>NAN</DistanceMeters>
          </Trackpoint>
          <Trackpoint>
            <Time>2022-07-10T10:43:35.000Z</Time>
            <Position>
              <LatitudeDegrees>43.29175581224262714385986328125</LatitudeDegrees>
              <LongitudeDegrees>-2.18053425662219524383544921875</LongitudeDegrees>
            </Position>
            <AltitudeMeters>44.59999847412109375</AltitudeMeters>
            <DistanceMeters>NAN</DistanceMeters>
          </Trackpoint>
          <Trackpoint>
            <Time>2022-07-10T10:43:41.000Z</Time>
            <Position>
              <LatitudeDegrees>43.2918259687721729278564453125</LatitudeDegrees>
              <LongitudeDegrees>-2.1807980351150035858154296875</LongitudeDegrees>
            </Position>
            <AltitudeMeters>44.40000152587890625</AltitudeMeters>
            <DistanceMeters>NAN</DistanceMeters>
          </Trackpoint>
          <Trackpoint>
            <Time>2022-07-10T10:43:48.000Z</Time>
            <Position>
              <LatitudeDegrees>43.29197139479219913482666015625</LatitudeDegrees>
              <LongitudeDegrees>-2.18105242587625980377197265625</LongitudeDegrees>
            </Position>
            <AltitudeMeters>44.200000762939453125</AltitudeMeters>
            <DistanceMeters>NAN</DistanceMeters>
          </Trackpoint>
          <Trackpoint>
            <Time>2022-07-10T10:43:55.000Z</Time>
            <Position>
              <LatitudeDegrees>43.29212713055312633514404296875</LatitudeDegrees>
              <LongitudeDegrees>-2.18119977973401546478271484375</LongitudeDegrees>
            </Position>
            <AltitudeMeters>44</AltitudeMeters>
            <DistanceMeters>NAN</DistanceMeters>
          </Trackpoint>
          <Trackpoint>
            <Time>2022-07-10T10:43:56.000Z</Time>
            <Position>
              <LatitudeDegrees>43.2921545393764972686767578125</LatitudeDegrees>
              <LongitudeDegrees>-2.181213609874248504638671875</LongitudeDegrees>
            </Position>
            <AltitudeMeters>43.799999237060546875</AltitudeMeters>
            <DistanceMeters>NAN</DistanceMeters>
          </Trackpoint>
          <Trackpoint>
            <Time>2022-07-10T10:43:57.000Z</Time>
            <Position>
              <LatitudeDegrees>43.2921545393764972686767578125</LatitudeDegrees>
              <LongitudeDegrees>-2.181213609874248504638671875</LongitudeDegrees>
            </Position>
            <AltitudeMeters>43.799999237060546875</AltitudeMeters>
            <DistanceMeters>NAN</DistanceMeters>
          </Trackpoint>
          <Trackpoint>
            <Time>2022-07-10T10:43:59.000Z</Time>
            <Position>
              <LatitudeDegrees>43.29217784106731414794921875</LatitudeDegrees>
              <LongitudeDegrees>-2.18120950274169445037841796875</LongitudeDegrees>
            </Position>
            <AltitudeMeters>43.799999237060546875</AltitudeMeters>
            <DistanceMeters>NAN</DistanceMeters>
          </Trackpoint>
          <Trackpoint>
            <Time>2022-07-10T10:44:00.000Z</Time>
            <Position>
              <LatitudeDegrees>43.29219116829335689544677734375</LatitudeDegrees>
              <LongitudeDegrees>-2.18120212666690349578857421875</LongitudeDegrees>
            </Position>
            <AltitudeMeters>43.799999237060546875</AltitudeMeters>
            <DistanceMeters>NAN</DistanceMeters>
          </Trackpoint>
          <Trackpoint>
            <Time>2022-07-10T10:44:01.000Z</Time>
            <Position>
              <LatitudeDegrees>43.29219116829335689544677734375</LatitudeDegrees>
              <LongitudeDegrees>-2.18120212666690349578857421875</LongitudeDegrees>
            </Position>
            <AltitudeMeters>43.799999237060546875</AltitudeMeters>
            <DistanceMeters>NAN</DistanceMeters>
          </Trackpoint>
          <Trackpoint>
            <Time>2022-07-10T10:44:02.000Z</Time>
            <Position>
              <LatitudeDegrees>43.2921986281871795654296875</LatitudeDegrees>
              <LongitudeDegrees>-2.18120531179010868072509765625</LongitudeDegrees>
            </Position>
            <AltitudeMeters>43.59999847412109375</AltitudeMeters>
            <DistanceMeters>NAN</DistanceMeters>
          </Trackpoint>
          <Trackpoint>
            <Time>2022-07-10T10:44:06.000Z</Time>
            <Position>
              <LatitudeDegrees>43.2922407053411006927490234375</LatitudeDegrees>
              <LongitudeDegrees>-2.18121453188359737396240234375</LongitudeDegrees>
            </Position>
            <AltitudeMeters>43.59999847412109375</AltitudeMeters>
            <DistanceMeters>NAN</DistanceMeters>
          </Trackpoint>
          <Trackpoint>
            <Time>2022-07-10T10:44:08.000Z</Time>
            <Position>
              <LatitudeDegrees>43.292262665927410125732421875</LatitudeDegrees>
              <LongitudeDegrees>-2.1812100894749164581298828125</LongitudeDegrees>
            </Position>
            <AltitudeMeters>43.59999847412109375</AltitudeMeters>
            <DistanceMeters>NAN</DistanceMeters>
          </Trackpoint>
          <Trackpoint>
            <Time>2022-07-10T10:44:10.000Z</Time>
            <Position>
              <LatitudeDegrees>43.29234053380787372589111328125</LatitudeDegrees>
              <LongitudeDegrees>-2.18121252022683620452880859375</LongitudeDegrees>
            </Position>
            <AltitudeMeters>43.799999237060546875</AltitudeMeters>
            <DistanceMeters>NAN</DistanceMeters>
          </Trackpoint>
          <Trackpoint>
            <Time>2022-07-10T10:44:13.000Z</Time>
            <Position>
              <LatitudeDegrees>43.29243239946663379669189453125</LatitudeDegrees>
              <LongitudeDegrees>-2.1812603808939456939697265625</LongitudeDegrees>
            </Position>
            <AltitudeMeters>43.799999237060546875</AltitudeMeters>
            <DistanceMeters>NAN</DistanceMeters>
          </Trackpoint>
          <Trackpoint>
            <Time>2022-07-10T10:44:19.000Z</Time>
            <Position>
              <LatitudeDegrees>43.29256500117480754852294921875</LatitudeDegrees>
              <LongitudeDegrees>-2.181342355906963348388671875</LongitudeDegrees>
            </Position>
            <AltitudeMeters>44.200000762939453125</AltitudeMeters>
            <DistanceMeters>NAN</DistanceMeters>
          </Trackpoint>
          <Trackpoint>
            <Time>2022-07-10T10:44:26.000Z</Time>
            <Position>
              <LatitudeDegrees>43.2926742173731327056884765625</LatitudeDegrees>
              <LongitudeDegrees>-2.181551568210124969482421875</LongitudeDegrees>
            </Position>
            <AltitudeMeters>44.59999847412109375</AltitudeMeters>
            <DistanceMeters>NAN</DistanceMeters>
          </Trackpoint>
          <Trackpoint>
            <Time>2022-07-10T10:44:32.000Z</Time>
            <Position>
              <LatitudeDegrees>43.29280455596745014190673828125</LatitudeDegrees>
              <LongitudeDegrees>-2.18177922070026397705078125</LongitudeDegrees>
            </Position>
            <AltitudeMeters>44.40000152587890625</AltitudeMeters>
            <DistanceMeters>NAN</DistanceMeters>
          </Trackpoint>
          <Trackpoint>
            <Time>2022-07-10T10:44:34.000Z</Time>
            <Position>
              <LatitudeDegrees>43.29286222346127033233642578125</LatitudeDegrees>
              <LongitudeDegrees>-2.18185189180076122283935546875</LongitudeDegrees>
            </Position>
            <AltitudeMeters>44.200000762939453125</AltitudeMeters>
            <DistanceMeters>NAN</DistanceMeters>
          </Trackpoint>
          <Trackpoint>
            <Time>2022-07-10T10:44:37.000Z</Time>
            <Position>
              <LatitudeDegrees>43.292971439659595489501953125</LatitudeDegrees>
              <LongitudeDegrees>-2.182013578712940216064453125</LongitudeDegrees>
            </Position>
            <AltitudeMeters>44.200000762939453125</AltitudeMeters>
            <DistanceMeters>NAN</DistanceMeters>
          </Trackpoint>
          <Trackpoint>
            <Time>2022-07-10T10:44:39.000Z</Time>
            <Position>
              <LatitudeDegrees>43.29301930032670497894287109375</LatitudeDegrees>
              <LongitudeDegrees>-2.18208440579473972320556640625</LongitudeDegrees>
            </Position>
            <AltitudeMeters>44.200000762939453125</AltitudeMeters>
            <DistanceMeters>NAN</DistanceMeters>
          </Trackpoint>
          <Trackpoint>
            <Time>2022-07-10T10:44:46.000Z</Time>
            <Position>
              <LatitudeDegrees>43.29318559728562831878662109375</LatitudeDegrees>
              <LongitudeDegrees>-2.1823299117386341094970703125</LongitudeDegrees>
            </Position>
            <AltitudeMeters>44</AltitudeMeters>
            <DistanceMeters>NAN</DistanceMeters>
          </Trackpoint>
          <Trackpoint>
            <Time>2022-07-10T10:44:47.000Z</Time>
            <Position>
              <LatitudeDegrees>43.29321258701384067535400390625</LatitudeDegrees>
              <LongitudeDegrees>-2.1823701448738574981689453125</LongitudeDegrees>
            </Position>
            <AltitudeMeters>44</AltitudeMeters>
            <DistanceMeters>NAN</DistanceMeters>
          </Trackpoint>
          <Trackpoint>
            <Time>2022-07-10T10:44:52.000Z</Time>
            <Position>
              <LatitudeDegrees>43.2933467812836170196533203125</LatitudeDegrees>
              <LongitudeDegrees>-2.18256871215999126434326171875</LongitudeDegrees>
            </Position>
            <AltitudeMeters>43.799999237060546875</AltitudeMeters>
            <DistanceMeters>NAN</DistanceMeters>
          </Trackpoint>
          <Trackpoint>
            <Time>2022-07-10T10:44:56.000Z</Time>
            <Position>
              <LatitudeDegrees>43.293425403535366058349609375</LatitudeDegrees>
              <LongitudeDegrees>-2.1826789341866970062255859375</LongitudeDegrees>
            </Position>
            <AltitudeMeters>44</AltitudeMeters>
            <DistanceMeters>NAN</DistanceMeters>
          </Trackpoint>
          <Trackpoint>
            <Time>2022-07-10T10:45:01.000Z</Time>
            <Position>
              <LatitudeDegrees>43.293562196195125579833984375</LatitudeDegrees>
              <LongitudeDegrees>-2.18289242126047611236572265625</LongitudeDegrees>
            </Position>
            <AltitudeMeters>44.200000762939453125</AltitudeMeters>
            <DistanceMeters>NAN</DistanceMeters>
          </Trackpoint>
          <Trackpoint>
            <Time>2022-07-10T10:45:05.000Z</Time>
            <Position>
              <LatitudeDegrees>43.2936389744281768798828125</LatitudeDegrees>
              <LongitudeDegrees>-2.18300499022006988525390625</LongitudeDegrees>
            </Position>
            <AltitudeMeters>44.200000762939453125</AltitudeMeters>
            <DistanceMeters>NAN</DistanceMeters>
          </Trackpoint>
          <Trackpoint>
            <Time>2022-07-10T10:45:10.000Z</Time>
            <Position>
              <LatitudeDegrees>43.29377937130630016326904296875</LatitudeDegrees>
              <LongitudeDegrees>-2.18321260996162891387939453125</LongitudeDegrees>
            </Position>
            <AltitudeMeters>44.200000762939453125</AltitudeMeters>
            <DistanceMeters>NAN</DistanceMeters>
          </Trackpoint>
          <Trackpoint>
            <Time>2022-07-10T10:45:15.000Z</Time>
            <Position>
              <LatitudeDegrees>43.2938996516168117523193359375</LatitudeDegrees>
              <LongitudeDegrees>-2.1833945810794830322265625</LongitudeDegrees>
            </Position>
            <AltitudeMeters>44.59999847412109375</AltitudeMeters>
            <DistanceMeters>NAN</DistanceMeters>
          </Trackpoint>
          <Trackpoint>
            <Time>2022-07-10T10:45:25.000Z</Time>
            <Position>
              <LatitudeDegrees>43.2941001467406749725341796875</LatitudeDegrees>
              <LongitudeDegrees>-2.18371619470417499542236328125</LongitudeDegrees>
            </Position>
            <AltitudeMeters>44.799999237060546875</AltitudeMeters>
            <DistanceMeters>NAN</DistanceMeters>
          </Trackpoint>
          <Trackpoint>
            <Time>2022-07-10T10:45:28.000Z</Time>
            <Position>
              <LatitudeDegrees>43.29414214007556438446044921875</LatitudeDegrees>
              <LongitudeDegrees>-2.18381308950483798980712890625</LongitudeDegrees>
            </Position>
            <AltitudeMeters>44.799999237060546875</AltitudeMeters>
            <DistanceMeters>NAN</DistanceMeters>
          </Trackpoint>
          <Trackpoint>
            <Time>2022-07-10T10:45:32.000Z</Time>
            <Position>
              <LatitudeDegrees>43.294179104268550872802734375</LatitudeDegrees>
              <LongitudeDegrees>-2.18390445224940776824951171875</LongitudeDegrees>
            </Position>
            <AltitudeMeters>45</AltitudeMeters>
            <DistanceMeters>NAN</DistanceMeters>
          </Trackpoint>
          <Trackpoint>
            <Time>2022-07-10T10:45:36.000Z</Time>
            <Position>
              <LatitudeDegrees>43.29421472735702991485595703125</LatitudeDegrees>
              <LongitudeDegrees>-2.1840706653892993927001953125</LongitudeDegrees>
            </Position>
            <AltitudeMeters>44.799999237060546875</AltitudeMeters>
            <DistanceMeters>NAN</DistanceMeters>
          </Trackpoint>
          <Trackpoint>
            <Time>2022-07-10T10:45:38.000Z</Time>
            <Position>
              <LatitudeDegrees>43.29419796355068683624267578125</LatitudeDegrees>
              <LongitudeDegrees>-2.18416982330381870269775390625</LongitudeDegrees>
            </Position>
            <AltitudeMeters>44.799999237060546875</AltitudeMeters>
            <DistanceMeters>NAN</DistanceMeters>
          </Trackpoint>
          <Trackpoint>
            <Time>2022-07-10T10:45:44.000Z</Time>
            <Position>
              <LatitudeDegrees>43.294091932475566864013671875</LatitudeDegrees>
              <LongitudeDegrees>-2.18439973890781402587890625</LongitudeDegrees>
            </Position>
            <AltitudeMeters>44.200000762939453125</AltitudeMeters>
            <DistanceMeters>NAN</DistanceMeters>
          </Trackpoint>
          <Trackpoint>
            <Time>2022-07-10T10:45:49.000Z</Time>
            <Position>
              <LatitudeDegrees>43.2939291559159755706787109375</LatitudeDegrees>
              <LongitudeDegrees>-2.18456603586673736572265625</LongitudeDegrees>
            </Position>
            <AltitudeMeters>44</AltitudeMeters>
            <DistanceMeters>NAN</DistanceMeters>
          </Trackpoint>
          <Trackpoint>
            <Time>2022-07-10T10:45:51.000Z</Time>
            <Position>
              <LatitudeDegrees>43.2938882522284984588623046875</LatitudeDegrees>
              <LongitudeDegrees>-2.18459780327975749969482421875</LongitudeDegrees>
            </Position>
            <AltitudeMeters>44</AltitudeMeters>
            <DistanceMeters>NAN</DistanceMeters>
          </Trackpoint>
          <Trackpoint>
            <Time>2022-07-10T10:45:52.000Z</Time>
            <Position>
              <LatitudeDegrees>43.293851874768733978271484375</LatitudeDegrees>
              <LongitudeDegrees>-2.18463149853050708770751953125</LongitudeDegrees>
            </Position>
            <AltitudeMeters>43.799999237060546875</AltitudeMeters>
            <DistanceMeters>NAN</DistanceMeters>
          </Trackpoint>
          <Trackpoint>
            <Time>2022-07-10T10:45:59.000Z</Time>
            <Position>
              <LatitudeDegrees>43.2936089672148227691650390625</LatitudeDegrees>
              <LongitudeDegrees>-2.1848542056977748870849609375</LongitudeDegrees>
            </Position>
            <AltitudeMeters>43.200000762939453125</AltitudeMeters>
            <DistanceMeters>NAN</DistanceMeters>
          </Trackpoint>
          <Trackpoint>
            <Time>2022-07-10T10:46:05.000Z</Time>
            <Position>
              <LatitudeDegrees>43.293452896177768707275390625</LatitudeDegrees>
              <LongitudeDegrees>-2.1850295551121234893798828125</LongitudeDegrees>
            </Position>
            <AltitudeMeters>42.799999237060546875</AltitudeMeters>
            <DistanceMeters>NAN</DistanceMeters>
          </Trackpoint>
          <Trackpoint>
            <Time>2022-07-10T10:46:07.000Z</Time>
            <Position>
              <LatitudeDegrees>43.29339581541717052459716796875</LatitudeDegrees>
              <LongitudeDegrees>-2.18506584875285625457763671875</LongitudeDegrees>
            </Position>
            <AltitudeMeters>42.59999847412109375</AltitudeMeters>
            <DistanceMeters>NAN</DistanceMeters>
          </Trackpoint>
          <Trackpoint>
            <Time>2022-07-10T10:46:11.000Z</Time>
            <Position>
              <LatitudeDegrees>43.293359018862247467041015625</LatitudeDegrees>
              <LongitudeDegrees>-2.1851039864122867584228515625</LongitudeDegrees>
            </Position>
            <AltitudeMeters>42.200000762939453125</AltitudeMeters>
            <DistanceMeters>NAN</DistanceMeters>
          </Trackpoint>
          <Trackpoint>
            <Time>2022-07-10T10:46:13.000Z</Time>
            <Position>
              <LatitudeDegrees>43.29334451816976070404052734375</LatitudeDegrees>
              <LongitudeDegrees>-2.18512100167572498321533203125</LongitudeDegrees>
            </Position>
            <AltitudeMeters>42.200000762939453125</AltitudeMeters>
            <DistanceMeters>NAN</DistanceMeters>
          </Trackpoint>
          <Trackpoint>
            <Time>2022-07-10T10:46:19.000Z</Time>
            <Position>
              <LatitudeDegrees>43.2932512275874614715576171875</LatitudeDegrees>
              <LongitudeDegrees>-2.1852441318333148956298828125</LongitudeDegrees>
            </Position>
            <AltitudeMeters>42</AltitudeMeters>
            <DistanceMeters>NAN</DistanceMeters>
          </Trackpoint>
          <Trackpoint>
            <Time>2022-07-10T10:46:25.000Z</Time>
            <Position>
              <LatitudeDegrees>43.29315827228128910064697265625</LatitudeDegrees>
              <LongitudeDegrees>-2.185343541204929351806640625</LongitudeDegrees>
            </Position>
            <AltitudeMeters>41.799999237060546875</AltitudeMeters>
            <DistanceMeters>NAN</DistanceMeters>
          </Trackpoint>
          <Trackpoint>
            <Time>2022-07-10T10:46:29.000Z</Time>
            <Position>
              <LatitudeDegrees>43.29312290064990520477294921875</LatitudeDegrees>
              <LongitudeDegrees>-2.1853899769484996795654296875</LongitudeDegrees>
            </Position>
            <AltitudeMeters>41.799999237060546875</AltitudeMeters>
            <DistanceMeters>NAN</DistanceMeters>
          </Trackpoint>
          <Trackpoint>
            <Time>2022-07-10T10:46:31.000Z</Time>
            <Position>
              <LatitudeDegrees>43.29311250708997249603271484375</LatitudeDegrees>
              <LongitudeDegrees>-2.18541621230542659759521484375</LongitudeDegrees>
            </Position>
            <AltitudeMeters>41.59999847412109375</AltitudeMeters>
            <DistanceMeters>NAN</DistanceMeters>
          </Trackpoint>
          <Trackpoint>
            <Time>2022-07-10T10:46:36.000Z</Time>
            <Position>
              <LatitudeDegrees>43.29307462088763713836669921875</LatitudeDegrees>
              <LongitudeDegrees>-2.18545376323163509368896484375</LongitudeDegrees>
            </Position>
            <AltitudeMeters>41.40000152587890625</AltitudeMeters>
            <DistanceMeters>NAN</DistanceMeters>
          </Trackpoint>
          <Trackpoint>
            <Time>2022-07-10T10:46:39.000Z</Time>
            <Position>
              <LatitudeDegrees>43.29304092563688755035400390625</LatitudeDegrees>
              <LongitudeDegrees>-2.18547320924699306488037109375</LongitudeDegrees>
            </Position>
            <AltitudeMeters>41.40000152587890625</AltitudeMeters>
            <DistanceMeters>NAN</DistanceMeters>
          </Trackpoint>
          <Trackpoint>
            <Time>2022-07-10T10:46:45.000Z</Time>
            <Position>
              <LatitudeDegrees>43.29292559064924716949462890625</LatitudeDegrees>
              <LongitudeDegrees>-2.18564160168170928955078125</LongitudeDegrees>
            </Position>
            <AltitudeMeters>41.40000152587890625</AltitudeMeters>
            <DistanceMeters>NAN</DistanceMeters>
          </Trackpoint>
          <Trackpoint>
            <Time>2022-07-10T10:46:53.000Z</Time>
            <Position>
              <LatitudeDegrees>43.2928130216896533966064453125</LatitudeDegrees>
              <LongitudeDegrees>-2.18591225333511829376220703125</LongitudeDegrees>
            </Position>
            <AltitudeMeters>41.200000762939453125</AltitudeMeters>
            <DistanceMeters>NAN</DistanceMeters>
          </Trackpoint>
          <Trackpoint>
            <Time>2022-07-10T10:46:58.000Z</Time>
            <Position>
              <LatitudeDegrees>43.29271252267062664031982421875</LatitudeDegrees>
              <LongitudeDegrees>-2.18618935905396938323974609375</LongitudeDegrees>
            </Position>
            <AltitudeMeters>40.59999847412109375</AltitudeMeters>
            <DistanceMeters>NAN</DistanceMeters>
          </Trackpoint>
          <Trackpoint>
            <Time>2022-07-10T10:47:00.000Z</Time>
            <Position>
              <LatitudeDegrees>43.2926956750452518463134765625</LatitudeDegrees>
              <LongitudeDegrees>-2.1862348727881908416748046875</LongitudeDegrees>
            </Position>
            <AltitudeMeters>40.40000152587890625</AltitudeMeters>
            <DistanceMeters>NAN</DistanceMeters>
          </Trackpoint>
          <Trackpoint>
            <Time>2022-07-10T10:47:05.000Z</Time>
            <Position>
              <LatitudeDegrees>43.2926477305591106414794921875</LatitudeDegrees>
              <LongitudeDegrees>-2.18639387749135494232177734375</LongitudeDegrees>
            </Position>
            <AltitudeMeters>40.40000152587890625</AltitudeMeters>
            <DistanceMeters>NAN</DistanceMeters>
          </Trackpoint>
          <Trackpoint>
            <Time>2022-07-10T10:47:10.000Z</Time>
            <Position>
              <LatitudeDegrees>43.29258813522756099700927734375</LatitudeDegrees>
              <LongitudeDegrees>-2.1866693906486034393310546875</LongitudeDegrees>
            </Position>
            <AltitudeMeters>40.40000152587890625</AltitudeMeters>
            <DistanceMeters>NAN</DistanceMeters>
          </Trackpoint>
          <Trackpoint>
            <Time>2022-07-10T10:47:16.000Z</Time>
            <Position>
              <LatitudeDegrees>43.29253767617046833038330078125</LatitudeDegrees>
              <LongitudeDegrees>-2.186941802501678466796875</LongitudeDegrees>
            </Position>
            <AltitudeMeters>40.200000762939453125</AltitudeMeters>
            <DistanceMeters>NAN</DistanceMeters>
          </Trackpoint>
          <Trackpoint>
            <Time>2022-07-10T10:47:24.000Z</Time>
            <Position>
              <LatitudeDegrees>43.29254128038883209228515625</LatitudeDegrees>
              <LongitudeDegrees>-2.187296189367771148681640625</LongitudeDegrees>
            </Position>
            <AltitudeMeters>40.40000152587890625</AltitudeMeters>
            <DistanceMeters>NAN</DistanceMeters>
          </Trackpoint>
          <Trackpoint>
            <Time>2022-07-10T10:47:27.000Z</Time>
            <Position>
              <LatitudeDegrees>43.2925525121390819549560546875</LatitudeDegrees>
              <LongitudeDegrees>-2.18737657181918621063232421875</LongitudeDegrees>
            </Position>
            <AltitudeMeters>40.40000152587890625</AltitudeMeters>
            <DistanceMeters>NAN</DistanceMeters>
          </Trackpoint>
          <Trackpoint>
            <Time>2022-07-10T10:47:30.000Z</Time>
            <Position>
              <LatitudeDegrees>43.2925645820796489715576171875</LatitudeDegrees>
              <LongitudeDegrees>-2.1875357441604137420654296875</LongitudeDegrees>
            </Position>
            <AltitudeMeters>40.40000152587890625</AltitudeMeters>
            <DistanceMeters>NAN</DistanceMeters>
          </Trackpoint>
          <Trackpoint>
            <Time>2022-07-10T10:47:35.000Z</Time>
            <Position>
              <LatitudeDegrees>43.29258578829467296600341796875</LatitudeDegrees>
              <LongitudeDegrees>-2.187726013362407684326171875</LongitudeDegrees>
            </Position>
            <AltitudeMeters>40.59999847412109375</AltitudeMeters>
            <DistanceMeters>NAN</DistanceMeters>
          </Trackpoint>
          <Trackpoint>
            <Time>2022-07-10T10:47:41.000Z</Time>
            <Position>
              <LatitudeDegrees>43.29260473139584064483642578125</LatitudeDegrees>
              <LongitudeDegrees>-2.18790077604353427886962890625</LongitudeDegrees>
            </Position>
            <AltitudeMeters>40.799999237060546875</AltitudeMeters>
            <DistanceMeters>NAN</DistanceMeters>
          </Trackpoint>
          <Trackpoint>
            <Time>2022-07-10T10:47:47.000Z</Time>
            <Position>
              <LatitudeDegrees>43.292573131620883941650390625</LatitudeDegrees>
              <LongitudeDegrees>-2.18817452900111675262451171875</LongitudeDegrees>
            </Position>
            <AltitudeMeters>40.799999237060546875</AltitudeMeters>
            <DistanceMeters>NAN</DistanceMeters>
          </Trackpoint>
          <Trackpoint>
            <Time>2022-07-10T10:47:52.000Z</Time>
            <Position>
              <LatitudeDegrees>43.29250632785260677337646484375</LatitudeDegrees>
              <LongitudeDegrees>-2.1883531473577022552490234375</LongitudeDegrees>
            </Position>
            <AltitudeMeters>41</AltitudeMeters>
            <DistanceMeters>NAN</DistanceMeters>
          </Trackpoint>
          <Trackpoint>
            <Time>2022-07-10T10:47:58.000Z</Time>
            <Position>
              <LatitudeDegrees>43.29234120436012744903564453125</LatitudeDegrees>
              <LongitudeDegrees>-2.1886517107486724853515625</LongitudeDegrees>
            </Position>
            <AltitudeMeters>40.799999237060546875</AltitudeMeters>
            <DistanceMeters>NAN</DistanceMeters>
          </Trackpoint>
          <Trackpoint>
            <Time>2022-07-10T10:48:05.000Z</Time>
            <Position>
              <LatitudeDegrees>43.29212813638150691986083984375</LatitudeDegrees>
              <LongitudeDegrees>-2.18898422084748744964599609375</LongitudeDegrees>
            </Position>
            <AltitudeMeters>40.40000152587890625</AltitudeMeters>
            <DistanceMeters>NAN</DistanceMeters>
          </Trackpoint>
          <Trackpoint>
            <Time>2022-07-10T10:48:06.000Z</Time>
            <Position>
              <LatitudeDegrees>43.29212813638150691986083984375</LatitudeDegrees>
              <LongitudeDegrees>-2.18898422084748744964599609375</LongitudeDegrees>
            </Position>
            <AltitudeMeters>40.40000152587890625</AltitudeMeters>
            <DistanceMeters>NAN</DistanceMeters>
          </Trackpoint>
          <Trackpoint>
            <Time>2022-07-10T10:48:07.000Z</Time>
            <Position>
              <LatitudeDegrees>43.29211480915546417236328125</LatitudeDegrees>
              <LongitudeDegrees>-2.189022190868854522705078125</LongitudeDegrees>
            </Position>
            <AltitudeMeters>40.40000152587890625</AltitudeMeters>
            <DistanceMeters>NAN</DistanceMeters>
          </Trackpoint>
          <Trackpoint>
            <Time>2022-07-10T10:48:10.000Z</Time>
            <Position>
              <LatitudeDegrees>43.2920727320015430450439453125</LatitudeDegrees>
              <LongitudeDegrees>-2.18917884863913059234619140625</LongitudeDegrees>
            </Position>
            <AltitudeMeters>40.40000152587890625</AltitudeMeters>
            <DistanceMeters>NAN</DistanceMeters>
          </Trackpoint>
          <Trackpoint>
            <Time>2022-07-10T10:48:17.000Z</Time>
            <Position>
              <LatitudeDegrees>43.29202570952475070953369140625</LatitudeDegrees>
              <LongitudeDegrees>-2.18958520330488681793212890625</LongitudeDegrees>
            </Position>
            <AltitudeMeters>40.200000762939453125</AltitudeMeters>
            <DistanceMeters>NAN</DistanceMeters>
          </Trackpoint>
          <Trackpoint>
            <Time>2022-07-10T10:48:25.000Z</Time>
            <Position>
              <LatitudeDegrees>43.2920754142105579376220703125</LatitudeDegrees>
              <LongitudeDegrees>-2.18992617912590503692626953125</LongitudeDegrees>
            </Position>
            <AltitudeMeters>40.200000762939453125</AltitudeMeters>
            <DistanceMeters>NAN</DistanceMeters>
          </Trackpoint>
          <Trackpoint>
            <Time>2022-07-10T10:48:30.000Z</Time>
            <Position>
              <LatitudeDegrees>43.29217515885829925537109375</LatitudeDegrees>
              <LongitudeDegrees>-2.190101779997348785400390625</LongitudeDegrees>
            </Position>
            <AltitudeMeters>40.40000152587890625</AltitudeMeters>
            <DistanceMeters>NAN</DistanceMeters>
          </Trackpoint>
          <Trackpoint>
            <Time>2022-07-10T10:48:36.000Z</Time>
            <Position>
              <LatitudeDegrees>43.29240557737648487091064453125</LatitudeDegrees>
              <LongitudeDegrees>-2.190315686166286468505859375</LongitudeDegrees>
            </Position>
            <AltitudeMeters>40.59999847412109375</AltitudeMeters>
            <DistanceMeters>NAN</DistanceMeters>
          </Trackpoint>
          <Trackpoint>
            <Time>2022-07-10T10:48:43.000Z</Time>
            <Position>
              <LatitudeDegrees>43.29266256652772426605224609375</LatitudeDegrees>
              <LongitudeDegrees>-2.19048826955258846282958984375</LongitudeDegrees>
            </Position>
            <AltitudeMeters>40.40000152587890625</AltitudeMeters>
            <DistanceMeters>NAN</DistanceMeters>
          </Trackpoint>
          <Trackpoint>
            <Time>2022-07-10T10:48:50.000Z</Time>
            <Position>
              <LatitudeDegrees>43.292826600372791290283203125</LatitudeDegrees>
              <LongitudeDegrees>-2.19060913659632205963134765625</LongitudeDegrees>
            </Position>
            <AltitudeMeters>40.200000762939453125</AltitudeMeters>
            <DistanceMeters>NAN</DistanceMeters>
          </Trackpoint>
          <Trackpoint>
            <Time>2022-07-10T10:48:56.000Z</Time>
            <Position>
              <LatitudeDegrees>43.2929702661931514739990234375</LatitudeDegrees>
              <LongitudeDegrees>-2.1907289139926433563232421875</LongitudeDegrees>
            </Position>
            <AltitudeMeters>40</AltitudeMeters>
            <DistanceMeters>NAN</DistanceMeters>
          </Trackpoint>
          <Trackpoint>
            <Time>2022-07-10T10:49:01.000Z</Time>
            <Position>
              <LatitudeDegrees>43.29314502887427806854248046875</LatitudeDegrees>
              <LongitudeDegrees>-2.19086294062435626983642578125</LongitudeDegrees>
            </Position>
            <AltitudeMeters>40.40000152587890625</AltitudeMeters>
            <DistanceMeters>NAN</DistanceMeters>
          </Trackpoint>
          <Trackpoint>
            <Time>2022-07-10T10:49:06.000Z</Time>
            <Position>
              <LatitudeDegrees>43.293328173458576202392578125</LatitudeDegrees>
              <LongitudeDegrees>-2.190994955599308013916015625</LongitudeDegrees>
            </Position>
            <AltitudeMeters>40.40000152587890625</AltitudeMeters>
            <DistanceMeters>NAN</DistanceMeters>
          </Trackpoint>
          <Trackpoint>
            <Time>2022-07-10T10:49:09.000Z</Time>
            <Position>
              <LatitudeDegrees>43.29340067692101001739501953125</LatitudeDegrees>
              <LongitudeDegrees>-2.19106796197593212127685546875</LongitudeDegrees>
            </Position>
            <AltitudeMeters>40.59999847412109375</AltitudeMeters>
            <DistanceMeters>NAN</DistanceMeters>
          </Trackpoint>
          <Trackpoint>
            <Time>2022-07-10T10:49:13.000Z</Time>
            <Position>
              <LatitudeDegrees>43.2935244776308536529541015625</LatitudeDegrees>
              <LongitudeDegrees>-2.191167287528514862060546875</LongitudeDegrees>
            </Position>
            <AltitudeMeters>40.40000152587890625</AltitudeMeters>
            <DistanceMeters>NAN</DistanceMeters>
          </Trackpoint>
          <Trackpoint>
            <Time>2022-07-10T10:49:17.000Z</Time>
            <Position>
              <LatitudeDegrees>43.2936652936041355133056640625</LatitudeDegrees>
              <LongitudeDegrees>-2.19120760448276996612548828125</LongitudeDegrees>
            </Position>
            <AltitudeMeters>40.40000152587890625</AltitudeMeters>
            <DistanceMeters>NAN</DistanceMeters>
          </Trackpoint>
          <Trackpoint>
            <Time>2022-07-10T10:49:21.000Z</Time>
            <Position>
              <LatitudeDegrees>43.29376730136573314666748046875</LatitudeDegrees>
              <LongitudeDegrees>-2.1911863982677459716796875</LongitudeDegrees>
            </Position>
            <AltitudeMeters>40.40000152587890625</AltitudeMeters>
            <DistanceMeters>NAN</DistanceMeters>
          </Trackpoint>
          <Trackpoint>
            <Time>2022-07-10T10:49:24.000Z</Time>
            <Position>
              <LatitudeDegrees>43.2938959635794162750244140625</LatitudeDegrees>
              <LongitudeDegrees>-2.19120358116924762725830078125</LongitudeDegrees>
            </Position>
            <AltitudeMeters>40.40000152587890625</AltitudeMeters>
            <DistanceMeters>NAN</DistanceMeters>
          </Trackpoint>
          <Trackpoint>
            <Time>2022-07-10T10:49:30.000Z</Time>
            <Position>
              <LatitudeDegrees>43.294166363775730133056640625</LatitudeDegrees>
              <LongitudeDegrees>-2.1912348456680774688720703125</LongitudeDegrees>
            </Position>
            <AltitudeMeters>40.59999847412109375</AltitudeMeters>
            <DistanceMeters>NAN</DistanceMeters>
          </Trackpoint>
          <Trackpoint>
            <Time>2022-07-10T10:49:40.000Z</Time>
            <Position>
              <LatitudeDegrees>43.29447892494499683380126953125</LatitudeDegrees>
              <LongitudeDegrees>-2.191264517605304718017578125</LongitudeDegrees>
            </Position>
            <AltitudeMeters>40.59999847412109375</AltitudeMeters>
            <DistanceMeters>NAN</DistanceMeters>
          </Trackpoint>
          <Trackpoint>
            <Time>2022-07-10T10:49:45.000Z</Time>
            <Position>
              <LatitudeDegrees>43.2945413701236248016357421875</LatitudeDegrees>
              <LongitudeDegrees>-2.19124297611415386199951171875</LongitudeDegrees>
            </Position>
            <AltitudeMeters>40.40000152587890625</AltitudeMeters>
            <DistanceMeters>NAN</DistanceMeters>
          </Trackpoint>
          <Trackpoint>
            <Time>2022-07-10T10:49:46.000Z</Time>
            <Position>
              <LatitudeDegrees>43.2945413701236248016357421875</LatitudeDegrees>
              <LongitudeDegrees>-2.19124297611415386199951171875</LongitudeDegrees>
            </Position>
            <AltitudeMeters>40.40000152587890625</AltitudeMeters>
            <DistanceMeters>NAN</DistanceMeters>
          </Trackpoint>
          <Trackpoint>
            <Time>2022-07-10T10:49:47.000Z</Time>
            <Position>
              <LatitudeDegrees>43.29456442035734653472900390625</LatitudeDegrees>
              <LongitudeDegrees>-2.1912428922951221466064453125</LongitudeDegrees>
            </Position>
            <AltitudeMeters>40.40000152587890625</AltitudeMeters>
            <DistanceMeters>NAN</DistanceMeters>
          </Trackpoint>
          <Trackpoint>
            <Time>2022-07-10T10:49:50.000Z</Time>
            <Position>
              <LatitudeDegrees>43.29459182918071746826171875</LatitudeDegrees>
              <LongitudeDegrees>-2.19124800525605678558349609375</LongitudeDegrees>
            </Position>
            <AltitudeMeters>40.59999847412109375</AltitudeMeters>
            <DistanceMeters>NAN</DistanceMeters>
          </Trackpoint>
          <Trackpoint>
            <Time>2022-07-10T10:49:52.000Z</Time>
            <Position>
              <LatitudeDegrees>43.294604904949665069580078125</LatitudeDegrees>
              <LongitudeDegrees>-2.191257141530513763427734375</LongitudeDegrees>
            </Position>
            <AltitudeMeters>40.59999847412109375</AltitudeMeters>
            <DistanceMeters>NAN</DistanceMeters>
          </Trackpoint>
          <Trackpoint>
            <Time>2022-07-10T10:49:54.000Z</Time>
            <Position>
              <LatitudeDegrees>43.29462208785116672515869140625</LatitudeDegrees>
              <LongitudeDegrees>-2.1912509389221668243408203125</LongitudeDegrees>
            </Position>
            <AltitudeMeters>40.59999847412109375</AltitudeMeters>
            <DistanceMeters>NAN</DistanceMeters>
          </Trackpoint>
          <Trackpoint>
            <Time>2022-07-10T10:49:58.000Z</Time>
            <Position>
              <LatitudeDegrees>43.29467833042144775390625</LatitudeDegrees>
              <LongitudeDegrees>-2.19125722534954547882080078125</LongitudeDegrees>
            </Position>
            <AltitudeMeters>40.59999847412109375</AltitudeMeters>
            <DistanceMeters>NAN</DistanceMeters>
          </Trackpoint>
          <Trackpoint>
            <Time>2022-07-10T10:50:02.000Z</Time>
            <Position>
              <LatitudeDegrees>43.2947763986885547637939453125</LatitudeDegrees>
              <LongitudeDegrees>-2.1912522800266742706298828125</LongitudeDegrees>
            </Position>
            <AltitudeMeters>40.799999237060546875</AltitudeMeters>
            <DistanceMeters>NAN</DistanceMeters>
          </Trackpoint>
          <Trackpoint>
            <Time>2022-07-10T10:50:09.000Z</Time>
            <Position>
              <LatitudeDegrees>43.2949540950357913970947265625</LatitudeDegrees>
              <LongitudeDegrees>-2.19135713763535022735595703125</LongitudeDegrees>
            </Position>
            <AltitudeMeters>41</AltitudeMeters>
            <DistanceMeters>NAN</DistanceMeters>
          </Trackpoint>
          <Trackpoint>
            <Time>2022-07-10T10:50:15.000Z</Time>
            <Position>
              <LatitudeDegrees>43.295062221586704254150390625</LatitudeDegrees>
              <LongitudeDegrees>-2.191453278064727783203125</LongitudeDegrees>
            </Position>
            <AltitudeMeters>41</AltitudeMeters>
            <DistanceMeters>NAN</DistanceMeters>
          </Trackpoint>
          <Trackpoint>
            <Time>2022-07-10T10:50:20.000Z</Time>
            <Position>
              <LatitudeDegrees>43.29520747996866703033447265625</LatitudeDegrees>
              <LongitudeDegrees>-2.19166123308241367340087890625</LongitudeDegrees>
            </Position>
            <AltitudeMeters>41</AltitudeMeters>
            <DistanceMeters>NAN</DistanceMeters>
          </Trackpoint>
          <Trackpoint>
            <Time>2022-07-10T10:50:22.000Z</Time>
            <Position>
              <LatitudeDegrees>43.29526598565280437469482421875</LatitudeDegrees>
              <LongitudeDegrees>-2.191748321056365966796875</LongitudeDegrees>
            </Position>
            <AltitudeMeters>41</AltitudeMeters>
            <DistanceMeters>NAN</DistanceMeters>
          </Trackpoint>
          <Trackpoint>
            <Time>2022-07-10T10:50:25.000Z</Time>
            <Position>
              <LatitudeDegrees>43.29536405391991138458251953125</LatitudeDegrees>
              <LongitudeDegrees>-2.1919003687798976898193359375</LongitudeDegrees>
            </Position>
            <AltitudeMeters>41</AltitudeMeters>
            <DistanceMeters>NAN</DistanceMeters>
          </Trackpoint>
          <Trackpoint>
            <Time>2022-07-10T10:50:27.000Z</Time>
            <Position>
              <LatitudeDegrees>43.29543806612491607666015625</LatitudeDegrees>
              <LongitudeDegrees>-2.19197832047939300537109375</LongitudeDegrees>
            </Position>
            <AltitudeMeters>41</AltitudeMeters>
            <DistanceMeters>NAN</DistanceMeters>
          </Trackpoint>
          <Trackpoint>
            <Time>2022-07-10T10:50:30.000Z</Time>
            <Position>
              <LatitudeDegrees>43.29557226039469242095947265625</LatitudeDegrees>
              <LongitudeDegrees>-2.19208653084933757781982421875</LongitudeDegrees>
            </Position>
            <AltitudeMeters>41.200000762939453125</AltitudeMeters>
            <DistanceMeters>NAN</DistanceMeters>
          </Trackpoint>
          <Trackpoint>
            <Time>2022-07-10T10:50:31.000Z</Time>
            <Position>
              <LatitudeDegrees>43.29557226039469242095947265625</LatitudeDegrees>
              <LongitudeDegrees>-2.19208653084933757781982421875</LongitudeDegrees>
            </Position>
            <AltitudeMeters>41.200000762939453125</AltitudeMeters>
            <DistanceMeters>NAN</DistanceMeters>
          </Trackpoint>
          <Trackpoint>
            <Time>2022-07-10T10:50:39.000Z</Time>
            <Position>
              <LatitudeDegrees>43.29593435861170291900634765625</LatitudeDegrees>
              <LongitudeDegrees>-2.19221930019557476043701171875</LongitudeDegrees>
            </Position>
            <AltitudeMeters>41</AltitudeMeters>
            <DistanceMeters>NAN</DistanceMeters>
          </Trackpoint>
          <Trackpoint>
            <Time>2022-07-10T10:50:49.000Z</Time>
            <Position>
              <LatitudeDegrees>43.2963265478610992431640625</LatitudeDegrees>
              <LongitudeDegrees>-2.19234972260892391204833984375</LongitudeDegrees>
            </Position>
            <AltitudeMeters>41.200000762939453125</AltitudeMeters>
            <DistanceMeters>NAN</DistanceMeters>
          </Trackpoint>
          <Trackpoint>
            <Time>2022-07-10T10:50:55.000Z</Time>
            <Position>
              <LatitudeDegrees>43.2965121231973171234130859375</LatitudeDegrees>
              <LongitudeDegrees>-2.192364893853664398193359375</LongitudeDegrees>
            </Position>
            <AltitudeMeters>41</AltitudeMeters>
            <DistanceMeters>NAN</DistanceMeters>
          </Trackpoint>
          <Trackpoint>
            <Time>2022-07-10T10:51:02.000Z</Time>
            <Position>
              <LatitudeDegrees>43.29680708236992359161376953125</LatitudeDegrees>
              <LongitudeDegrees>-2.19233865849673748016357421875</LongitudeDegrees>
            </Position>
            <AltitudeMeters>41.200000762939453125</AltitudeMeters>
            <DistanceMeters>NAN</DistanceMeters>
          </Trackpoint>
          <Trackpoint>
            <Time>2022-07-10T10:51:09.000Z</Time>
            <Position>
              <LatitudeDegrees>43.29703724943101406097412109375</LatitudeDegrees>
              <LongitudeDegrees>-2.1922845952212810516357421875</LongitudeDegrees>
            </Position>
            <AltitudeMeters>41.200000762939453125</AltitudeMeters>
            <DistanceMeters>NAN</DistanceMeters>
          </Trackpoint>
          <Trackpoint>
            <Time>2022-07-10T10:51:13.000Z</Time>
            <Position>
              <LatitudeDegrees>43.29713984392583370208740234375</LatitudeDegrees>
              <LongitudeDegrees>-2.19227260909974575042724609375</LongitudeDegrees>
            </Position>
            <AltitudeMeters>41.200000762939453125</AltitudeMeters>
            <DistanceMeters>NAN</DistanceMeters>
          </Trackpoint>
          <Trackpoint>
            <Time>2022-07-10T10:51:14.000Z</Time>
            <Position>
              <LatitudeDegrees>43.2971638999879360198974609375</LatitudeDegrees>
              <LongitudeDegrees>-2.1922638081014156341552734375</LongitudeDegrees>
            </Position>
            <AltitudeMeters>41.200000762939453125</AltitudeMeters>
            <DistanceMeters>NAN</DistanceMeters>
          </Trackpoint>
          <Trackpoint>
            <Time>2022-07-10T10:51:16.000Z</Time>
            <Position>
              <LatitudeDegrees>43.2971846871078014373779296875</LatitudeDegrees>
              <LongitudeDegrees>-2.19225835986435413360595703125</LongitudeDegrees>
            </Position>
            <AltitudeMeters>41.200000762939453125</AltitudeMeters>
            <DistanceMeters>NAN</DistanceMeters>
          </Trackpoint>
          <Trackpoint>
            <Time>2022-07-10T10:51:22.000Z</Time>
            <Position>
              <LatitudeDegrees>43.2972671650350093841552734375</LatitudeDegrees>
              <LongitudeDegrees>-2.1922527439892292022705078125</LongitudeDegrees>
            </Position>
            <AltitudeMeters>41.40000152587890625</AltitudeMeters>
            <DistanceMeters>NAN</DistanceMeters>
          </Trackpoint>
          <Trackpoint>
            <Time>2022-07-10T10:51:29.000Z</Time>
            <Position>
              <LatitudeDegrees>43.29742650501430034637451171875</LatitudeDegrees>
              <LongitudeDegrees>-2.1922332979738712310791015625</LongitudeDegrees>
            </Position>
            <AltitudeMeters>41.40000152587890625</AltitudeMeters>
            <DistanceMeters>NAN</DistanceMeters>
          </Trackpoint>
          <Trackpoint>
            <Time>2022-07-10T10:51:34.000Z</Time>
            <Position>
              <LatitudeDegrees>43.2975950650870800018310546875</LatitudeDegrees>
              <LongitudeDegrees>-2.19219423830509185791015625</LongitudeDegrees>
            </Position>
            <AltitudeMeters>41.799999237060546875</AltitudeMeters>
            <DistanceMeters>NAN</DistanceMeters>
          </Trackpoint>
          <Trackpoint>
            <Time>2022-07-10T10:51:38.000Z</Time>
            <Position>
              <LatitudeDegrees>43.29772339202463626861572265625</LatitudeDegrees>
              <LongitudeDegrees>-2.1921776421368122100830078125</LongitudeDegrees>
            </Position>
            <AltitudeMeters>42</AltitudeMeters>
            <DistanceMeters>NAN</DistanceMeters>
          </Trackpoint>
          <Trackpoint>
            <Time>2022-07-10T10:51:40.000Z</Time>
            <Position>
              <LatitudeDegrees>43.29778231680393218994140625</LatitudeDegrees>
              <LongitudeDegrees>-2.1921659074723720550537109375</LongitudeDegrees>
            </Position>
            <AltitudeMeters>42.200000762939453125</AltitudeMeters>
            <DistanceMeters>NAN</DistanceMeters>
          </Trackpoint>
          <Trackpoint>
            <Time>2022-07-10T10:51:45.000Z</Time>
            <Position>
              <LatitudeDegrees>43.297866471111774444580078125</LatitudeDegrees>
              <LongitudeDegrees>-2.192148976027965545654296875</LongitudeDegrees>
            </Position>
            <AltitudeMeters>42.200000762939453125</AltitudeMeters>
            <DistanceMeters>NAN</DistanceMeters>
          </Trackpoint>
          <Trackpoint>
            <Time>2022-07-10T10:51:51.000Z</Time>
            <Position>
              <LatitudeDegrees>43.29800225794315338134765625</LatitudeDegrees>
              <LongitudeDegrees>-2.19213598407804965972900390625</LongitudeDegrees>
            </Position>
            <AltitudeMeters>42.59999847412109375</AltitudeMeters>
            <DistanceMeters>NAN</DistanceMeters>
          </Trackpoint>
          <Trackpoint>
            <Time>2022-07-10T10:51:52.000Z</Time>
            <Position>
              <LatitudeDegrees>43.29803151078522205352783203125</LatitudeDegrees>
              <LongitudeDegrees>-2.19213983975350856781005859375</LongitudeDegrees>
            </Position>
            <AltitudeMeters>42.799999237060546875</AltitudeMeters>
            <DistanceMeters>NAN</DistanceMeters>
          </Trackpoint>
          <Trackpoint>
            <Time>2022-07-10T10:52:00.000Z</Time>
            <Position>
              <LatitudeDegrees>43.29823552630841732025146484375</LatitudeDegrees>
              <LongitudeDegrees>-2.19213615171611309051513671875</LongitudeDegrees>
            </Position>
            <AltitudeMeters>43.40000152587890625</AltitudeMeters>
            <DistanceMeters>NAN</DistanceMeters>
          </Trackpoint>
          <Trackpoint>
            <Time>2022-07-10T10:52:05.000Z</Time>
            <Position>
              <LatitudeDegrees>43.298392854630947113037109375</LatitudeDegrees>
              <LongitudeDegrees>-2.19220622442662715911865234375</LongitudeDegrees>
            </Position>
            <AltitudeMeters>43.799999237060546875</AltitudeMeters>
            <DistanceMeters>NAN</DistanceMeters>
          </Trackpoint>
          <Trackpoint>
            <Time>2022-07-10T10:52:11.000Z</Time>
            <Position>
              <LatitudeDegrees>43.2984915934503078460693359375</LatitudeDegrees>
              <LongitudeDegrees>-2.19234041869640350341796875</LongitudeDegrees>
            </Position>
            <AltitudeMeters>44</AltitudeMeters>
            <DistanceMeters>NAN</DistanceMeters>
          </Trackpoint>
          <Trackpoint>
            <Time>2022-07-10T10:52:18.000Z</Time>
            <Position>
              <LatitudeDegrees>43.2985854707658290863037109375</LatitudeDegrees>
              <LongitudeDegrees>-2.19249674119055271148681640625</LongitudeDegrees>
            </Position>
            <AltitudeMeters>44.200000762939453125</AltitudeMeters>
            <DistanceMeters>NAN</DistanceMeters>
          </Trackpoint>
          <Trackpoint>
            <Time>2022-07-10T10:52:26.000Z</Time>
            <Position>
              <LatitudeDegrees>43.2987440563738346099853515625</LatitudeDegrees>
              <LongitudeDegrees>-2.19282128848135471343994140625</LongitudeDegrees>
            </Position>
            <AltitudeMeters>44.200000762939453125</AltitudeMeters>
            <DistanceMeters>NAN</DistanceMeters>
          </Trackpoint>
          <Trackpoint>
            <Time>2022-07-10T10:52:38.000Z</Time>
            <Position>
              <LatitudeDegrees>43.29891898669302463531494140625</LatitudeDegrees>
              <LongitudeDegrees>-2.19325798563659191131591796875</LongitudeDegrees>
            </Position>
            <AltitudeMeters>44.40000152587890625</AltitudeMeters>
            <DistanceMeters>NAN</DistanceMeters>
          </Trackpoint>
          <Trackpoint>
            <Time>2022-07-10T10:52:43.000Z</Time>
            <Position>
              <LatitudeDegrees>43.2989505864679813385009765625</LatitudeDegrees>
              <LongitudeDegrees>-2.19333954155445098876953125</LongitudeDegrees>
            </Position>
            <AltitudeMeters>44.59999847412109375</AltitudeMeters>
            <DistanceMeters>NAN</DistanceMeters>
          </Trackpoint>
          <Trackpoint>
            <Time>2022-07-10T10:52:48.000Z</Time>
            <Position>
              <LatitudeDegrees>43.2990173064172267913818359375</LatitudeDegrees>
              <LongitudeDegrees>-2.1935065090656280517578125</LongitudeDegrees>
            </Position>
            <AltitudeMeters>44.799999237060546875</AltitudeMeters>
            <DistanceMeters>NAN</DistanceMeters>
          </Trackpoint>
          <Trackpoint>
            <Time>2022-07-10T10:52:49.000Z</Time>
            <Position>
              <LatitudeDegrees>43.29904873855412006378173828125</LatitudeDegrees>
              <LongitudeDegrees>-2.19359594397246837615966796875</LongitudeDegrees>
            </Position>
            <AltitudeMeters>44.799999237060546875</AltitudeMeters>
            <DistanceMeters>NAN</DistanceMeters>
          </Trackpoint>
          <Trackpoint>
            <Time>2022-07-10T10:52:57.000Z</Time>
            <Position>
              <LatitudeDegrees>43.2991359941661357879638671875</LatitudeDegrees>
              <LongitudeDegrees>-2.19381907023489475250244140625</LongitudeDegrees>
            </Position>
            <AltitudeMeters>45.40000152587890625</AltitudeMeters>
            <DistanceMeters>NAN</DistanceMeters>
          </Trackpoint>
          <Trackpoint>
            <Time>2022-07-10T10:53:02.000Z</Time>
            <Position>
              <LatitudeDegrees>43.29921972937881946563720703125</LatitudeDegrees>
              <LongitudeDegrees>-2.19404169358313083648681640625</LongitudeDegrees>
            </Position>
            <AltitudeMeters>45.59999847412109375</AltitudeMeters>
            <DistanceMeters>NAN</DistanceMeters>
          </Trackpoint>
          <Trackpoint>
            <Time>2022-07-10T10:53:03.000Z</Time>
            <Position>
              <LatitudeDegrees>43.29922844655811786651611328125</LatitudeDegrees>
              <LongitudeDegrees>-2.1940669231116771697998046875</LongitudeDegrees>
            </Position>
            <AltitudeMeters>45.799999237060546875</AltitudeMeters>
            <DistanceMeters>NAN</DistanceMeters>
          </Trackpoint>
          <Trackpoint>
            <Time>2022-07-10T10:53:09.000Z</Time>
            <Position>
              <LatitudeDegrees>43.29924386925995349884033203125</LatitudeDegrees>
              <LongitudeDegrees>-2.1942355670034885406494140625</LongitudeDegrees>
            </Position>
            <AltitudeMeters>46.40000152587890625</AltitudeMeters>
            <DistanceMeters>NAN</DistanceMeters>
          </Trackpoint>
          <Trackpoint>
            <Time>2022-07-10T10:53:10.000Z</Time>
            <Position>
              <LatitudeDegrees>43.2992421090602874755859375</LatitudeDegrees>
              <LongitudeDegrees>-2.19426850788295269012451171875</LongitudeDegrees>
            </Position>
            <AltitudeMeters>46.40000152587890625</AltitudeMeters>
            <DistanceMeters>NAN</DistanceMeters>
          </Trackpoint>
          <Trackpoint>
            <Time>2022-07-10T10:53:14.000Z</Time>
            <Position>
              <LatitudeDegrees>43.29921335913240909576416015625</LatitudeDegrees>
              <LongitudeDegrees>-2.19441535882651805877685546875</LongitudeDegrees>
            </Position>
            <AltitudeMeters>46.59999847412109375</AltitudeMeters>
            <DistanceMeters>NAN</DistanceMeters>
          </Trackpoint>
          <Trackpoint>
            <Time>2022-07-10T10:53:17.000Z</Time>
            <Position>
              <LatitudeDegrees>43.29918444156646728515625</LatitudeDegrees>
              <LongitudeDegrees>-2.194533459842205047607421875</LongitudeDegrees>
            </Position>
            <AltitudeMeters>47</AltitudeMeters>
            <DistanceMeters>NAN</DistanceMeters>
          </Trackpoint>
          <Trackpoint>
            <Time>2022-07-10T10:53:18.000Z</Time>
            <Position>
              <LatitudeDegrees>43.29918444156646728515625</LatitudeDegrees>
              <LongitudeDegrees>-2.194533459842205047607421875</LongitudeDegrees>
            </Position>
            <AltitudeMeters>47</AltitudeMeters>
            <DistanceMeters>NAN</DistanceMeters>
          </Trackpoint>
          <Trackpoint>
            <Time>2022-07-10T10:53:21.000Z</Time>
            <Position>
              <LatitudeDegrees>43.29914110712707042694091796875</LatitudeDegrees>
              <LongitudeDegrees>-2.19467469491064548492431640625</LongitudeDegrees>
            </Position>
            <AltitudeMeters>47.200000762939453125</AltitudeMeters>
            <DistanceMeters>NAN</DistanceMeters>
          </Trackpoint>
          <Trackpoint>
            <Time>2022-07-10T10:53:24.000Z</Time>
            <Position>
              <LatitudeDegrees>43.29911512322723865509033203125</LatitudeDegrees>
              <LongitudeDegrees>-2.1947884373366832733154296875</LongitudeDegrees>
            </Position>
            <AltitudeMeters>47.200000762939453125</AltitudeMeters>
            <DistanceMeters>NAN</DistanceMeters>
          </Trackpoint>
          <Trackpoint>
            <Time>2022-07-10T10:53:31.000Z</Time>
            <Position>
              <LatitudeDegrees>43.2990541867911815643310546875</LatitudeDegrees>
              <LongitudeDegrees>-2.195024974644184112548828125</LongitudeDegrees>
            </Position>
            <AltitudeMeters>47.200000762939453125</AltitudeMeters>
            <DistanceMeters>NAN</DistanceMeters>
          </Trackpoint>
          <Trackpoint>
            <Time>2022-07-10T10:53:36.000Z</Time>
            <Position>
              <LatitudeDegrees>43.29899744130671024322509765625</LatitudeDegrees>
              <LongitudeDegrees>-2.195226140320301055908203125</LongitudeDegrees>
            </Position>
            <AltitudeMeters>47.40000152587890625</AltitudeMeters>
            <DistanceMeters>NAN</DistanceMeters>
          </Trackpoint>
          <Trackpoint>
            <Time>2022-07-10T10:53:38.000Z</Time>
            <Position>
              <LatitudeDegrees>43.29897346906363964080810546875</LatitudeDegrees>
              <LongitudeDegrees>-2.19533720053732395172119140625</LongitudeDegrees>
            </Position>
            <AltitudeMeters>47.40000152587890625</AltitudeMeters>
            <DistanceMeters>NAN</DistanceMeters>
          </Trackpoint>
          <Trackpoint>
            <Time>2022-07-10T10:53:46.000Z</Time>
            <Position>
              <LatitudeDegrees>43.29888847656548023223876953125</LatitudeDegrees>
              <LongitudeDegrees>-2.1956361830234527587890625</LongitudeDegrees>
            </Position>
            <AltitudeMeters>47.799999237060546875</AltitudeMeters>
            <DistanceMeters>NAN</DistanceMeters>
          </Trackpoint>
          <Trackpoint>
            <Time>2022-07-10T10:53:55.000Z</Time>
            <Position>
              <LatitudeDegrees>43.298828043043613433837890625</LatitudeDegrees>
              <LongitudeDegrees>-2.195943295955657958984375</LongitudeDegrees>
            </Position>
            <AltitudeMeters>47.799999237060546875</AltitudeMeters>
            <DistanceMeters>NAN</DistanceMeters>
          </Trackpoint>
          <Trackpoint>
            <Time>2022-07-10T10:53:57.000Z</Time>
            <Position>
              <LatitudeDegrees>43.29879275523126125335693359375</LatitudeDegrees>
              <LongitudeDegrees>-2.19605821184813976287841796875</LongitudeDegrees>
            </Position>
            <AltitudeMeters>47.799999237060546875</AltitudeMeters>
            <DistanceMeters>NAN</DistanceMeters>
          </Trackpoint>
          <Trackpoint>
            <Time>2022-07-10T10:53:58.000Z</Time>
            <Position>
              <LatitudeDegrees>43.29878370277583599090576171875</LatitudeDegrees>
              <LongitudeDegrees>-2.19609525986015796661376953125</LongitudeDegrees>
            </Position>
            <AltitudeMeters>47.799999237060546875</AltitudeMeters>
            <DistanceMeters>NAN</DistanceMeters>
          </Trackpoint>
          <Trackpoint>
            <Time>2022-07-10T10:54:02.000Z</Time>
            <Position>
              <LatitudeDegrees>43.2987551204860210418701171875</LatitudeDegrees>
              <LongitudeDegrees>-2.19620816409587860107421875</LongitudeDegrees>
            </Position>
            <AltitudeMeters>48</AltitudeMeters>
            <DistanceMeters>NAN</DistanceMeters>
          </Trackpoint>
          <Trackpoint>
            <Time>2022-07-10T10:54:06.000Z</Time>
            <Position>
              <LatitudeDegrees>43.298725448548793792724609375</LatitudeDegrees>
              <LongitudeDegrees>-2.1963662467896938323974609375</LongitudeDegrees>
            </Position>
            <AltitudeMeters>48</AltitudeMeters>
            <DistanceMeters>NAN</DistanceMeters>
          </Trackpoint>
          <Trackpoint>
            <Time>2022-07-10T10:54:13.000Z</Time>
            <Position>
              <LatitudeDegrees>43.298696614801883697509765625</LatitudeDegrees>
              <LongitudeDegrees>-2.19666774384677410125732421875</LongitudeDegrees>
            </Position>
            <AltitudeMeters>48.40000152587890625</AltitudeMeters>
            <DistanceMeters>NAN</DistanceMeters>
          </Trackpoint>
          <Trackpoint>
            <Time>2022-07-10T10:54:14.000Z</Time>
            <Position>
              <LatitudeDegrees>43.298696614801883697509765625</LatitudeDegrees>
              <LongitudeDegrees>-2.19666774384677410125732421875</LongitudeDegrees>
            </Position>
            <AltitudeMeters>48.40000152587890625</AltitudeMeters>
            <DistanceMeters>NAN</DistanceMeters>
          </Trackpoint>
          <Trackpoint>
            <Time>2022-07-10T10:54:18.000Z</Time>
            <Position>
              <LatitudeDegrees>43.29869451932609081268310546875</LatitudeDegrees>
              <LongitudeDegrees>-2.196789197623729705810546875</LongitudeDegrees>
            </Position>
            <AltitudeMeters>48.40000152587890625</AltitudeMeters>
            <DistanceMeters>NAN</DistanceMeters>
          </Trackpoint>
          <Trackpoint>
            <Time>2022-07-10T10:54:19.000Z</Time>
            <Position>
              <LatitudeDegrees>43.2986927591264247894287109375</LatitudeDegrees>
              <LongitudeDegrees>-2.19680520705878734588623046875</LongitudeDegrees>
            </Position>
            <AltitudeMeters>48.40000152587890625</AltitudeMeters>
            <DistanceMeters>NAN</DistanceMeters>
          </Trackpoint>
          <Trackpoint>
            <Time>2022-07-10T10:54:24.000Z</Time>
            <Position>
              <LatitudeDegrees>43.2986699603497982025146484375</LatitudeDegrees>
              <LongitudeDegrees>-2.196938060224056243896484375</LongitudeDegrees>
            </Position>
            <AltitudeMeters>48.40000152587890625</AltitudeMeters>
            <DistanceMeters>NAN</DistanceMeters>
          </Trackpoint>
          <Trackpoint>
            <Time>2022-07-10T10:54:25.000Z</Time>
            <Position>
              <LatitudeDegrees>43.29866987653076648712158203125</LatitudeDegrees>
              <LongitudeDegrees>-2.196972928941249847412109375</LongitudeDegrees>
            </Position>
            <AltitudeMeters>48.40000152587890625</AltitudeMeters>
            <DistanceMeters>NAN</DistanceMeters>
          </Trackpoint>
          <Trackpoint>
            <Time>2022-07-10T10:54:31.000Z</Time>
            <Position>
              <LatitudeDegrees>43.29866652376949787139892578125</LatitudeDegrees>
              <LongitudeDegrees>-2.1971880085766315460205078125</LongitudeDegrees>
            </Position>
            <AltitudeMeters>48.799999237060546875</AltitudeMeters>
            <DistanceMeters>NAN</DistanceMeters>
          </Trackpoint>
          <Trackpoint>
            <Time>2022-07-10T10:54:36.000Z</Time>
            <Position>
              <LatitudeDegrees>43.2986706309020519256591796875</LatitudeDegrees>
              <LongitudeDegrees>-2.19739194028079509735107421875</LongitudeDegrees>
            </Position>
            <AltitudeMeters>49</AltitudeMeters>
            <DistanceMeters>NAN</DistanceMeters>
          </Trackpoint>
          <Trackpoint>
            <Time>2022-07-10T10:54:39.000Z</Time>
            <Position>
              <LatitudeDegrees>43.29867926426231861114501953125</LatitudeDegrees>
              <LongitudeDegrees>-2.19750023446977138519287109375</LongitudeDegrees>
            </Position>
            <AltitudeMeters>49.200000762939453125</AltitudeMeters>
            <DistanceMeters>NAN</DistanceMeters>
          </Trackpoint>
          <Trackpoint>
            <Time>2022-07-10T10:54:43.000Z</Time>
            <Position>
              <LatitudeDegrees>43.298681862652301788330078125</LatitudeDegrees>
              <LongitudeDegrees>-2.19764046370983123779296875</LongitudeDegrees>
            </Position>
            <AltitudeMeters>49.200000762939453125</AltitudeMeters>
            <DistanceMeters>NAN</DistanceMeters>
          </Trackpoint>
          <Trackpoint>
            <Time>2022-07-10T10:54:50.000Z</Time>
            <Position>
              <LatitudeDegrees>43.29872536472976207733154296875</LatitudeDegrees>
              <LongitudeDegrees>-2.19792268238961696624755859375</LongitudeDegrees>
            </Position>
            <AltitudeMeters>49.59999847412109375</AltitudeMeters>
            <DistanceMeters>NAN</DistanceMeters>
          </Trackpoint>
          <Trackpoint>
            <Time>2022-07-10T10:54:57.000Z</Time>
            <Position>
              <LatitudeDegrees>43.29876341857016086578369140625</LatitudeDegrees>
              <LongitudeDegrees>-2.19811446033418178558349609375</LongitudeDegrees>
            </Position>
            <AltitudeMeters>49.59999847412109375</AltitudeMeters>
            <DistanceMeters>NAN</DistanceMeters>
          </Trackpoint>
          <Trackpoint>
            <Time>2022-07-10T10:54:58.000Z</Time>
            <Position>
              <LatitudeDegrees>43.29878420569002628326416015625</LatitudeDegrees>
              <LongitudeDegrees>-2.198171205818653106689453125</LongitudeDegrees>
            </Position>
            <AltitudeMeters>49.59999847412109375</AltitudeMeters>
            <DistanceMeters>NAN</DistanceMeters>
          </Trackpoint>
          <Trackpoint>
            <Time>2022-07-10T10:55:00.000Z</Time>
            <Position>
              <LatitudeDegrees>43.29878772608935832977294921875</LatitudeDegrees>
              <LongitudeDegrees>-2.19821051694452762603759765625</LongitudeDegrees>
            </Position>
            <AltitudeMeters>49.799999237060546875</AltitudeMeters>
            <DistanceMeters>NAN</DistanceMeters>
          </Trackpoint>
          <Trackpoint>
            <Time>2022-07-10T10:55:02.000Z</Time>
            <Position>
              <LatitudeDegrees>43.298815973103046417236328125</LatitudeDegrees>
              <LongitudeDegrees>-2.1983323059976100921630859375</LongitudeDegrees>
            </Position>
            <AltitudeMeters>50</AltitudeMeters>
            <DistanceMeters>NAN</DistanceMeters>
          </Trackpoint>
          <Trackpoint>
            <Time>2022-07-10T10:55:06.000Z</Time>
            <Position>
              <LatitudeDegrees>43.298864923417568206787109375</LatitudeDegrees>
              <LongitudeDegrees>-2.1984969265758991241455078125</LongitudeDegrees>
            </Position>
            <AltitudeMeters>50.200000762939453125</AltitudeMeters>
            <DistanceMeters>NAN</DistanceMeters>
          </Trackpoint>
          <Trackpoint>
            <Time>2022-07-10T10:55:12.000Z</Time>
            <Position>
              <LatitudeDegrees>43.29891362227499485015869140625</LatitudeDegrees>
              <LongitudeDegrees>-2.1987004391849040985107421875</LongitudeDegrees>
            </Position>
            <AltitudeMeters>50.799999237060546875</AltitudeMeters>
            <DistanceMeters>NAN</DistanceMeters>
          </Trackpoint>
          <Trackpoint>
            <Time>2022-07-10T10:55:15.000Z</Time>
            <Position>
              <LatitudeDegrees>43.29893432557582855224609375</LatitudeDegrees>
              <LongitudeDegrees>-2.19881451688706874847412109375</LongitudeDegrees>
            </Position>
            <AltitudeMeters>50.799999237060546875</AltitudeMeters>
            <DistanceMeters>NAN</DistanceMeters>
          </Trackpoint>
          <Trackpoint>
            <Time>2022-07-10T10:55:18.000Z</Time>
            <Position>
              <LatitudeDegrees>43.29897724092006683349609375</LatitudeDegrees>
              <LongitudeDegrees>-2.198909819126129150390625</LongitudeDegrees>
            </Position>
            <AltitudeMeters>51</AltitudeMeters>
            <DistanceMeters>NAN</DistanceMeters>
          </Trackpoint>
          <Trackpoint>
            <Time>2022-07-10T10:55:21.000Z</Time>
            <Position>
              <LatitudeDegrees>43.29900540411472320556640625</LatitudeDegrees>
              <LongitudeDegrees>-2.1990072168409824371337890625</LongitudeDegrees>
            </Position>
            <AltitudeMeters>51.200000762939453125</AltitudeMeters>
            <DistanceMeters>NAN</DistanceMeters>
          </Trackpoint>
          <Trackpoint>
            <Time>2022-07-10T10:55:27.000Z</Time>
            <Position>
              <LatitudeDegrees>43.29905611462891101837158203125</LatitudeDegrees>
              <LongitudeDegrees>-2.1992073766887187957763671875</LongitudeDegrees>
            </Position>
            <AltitudeMeters>51.200000762939453125</AltitudeMeters>
            <DistanceMeters>NAN</DistanceMeters>
          </Trackpoint>
          <Trackpoint>
            <Time>2022-07-10T10:55:32.000Z</Time>
            <Position>
              <LatitudeDegrees>43.29911445267498493194580078125</LatitudeDegrees>
              <LongitudeDegrees>-2.19944693148136138916015625</LongitudeDegrees>
            </Position>
            <AltitudeMeters>51.59999847412109375</AltitudeMeters>
            <DistanceMeters>NAN</DistanceMeters>
          </Trackpoint>
          <Trackpoint>
            <Time>2022-07-10T10:55:33.000Z</Time>
            <Position>
              <LatitudeDegrees>43.29911445267498493194580078125</LatitudeDegrees>
              <LongitudeDegrees>-2.19944693148136138916015625</LongitudeDegrees>
            </Position>
            <AltitudeMeters>51.59999847412109375</AltitudeMeters>
            <DistanceMeters>NAN</DistanceMeters>
          </Trackpoint>
          <Trackpoint>
            <Time>2022-07-10T10:55:36.000Z</Time>
            <Position>
              <LatitudeDegrees>43.2991138659417629241943359375</LatitudeDegrees>
              <LongitudeDegrees>-2.19957324676215648651123046875</LongitudeDegrees>
            </Position>
            <AltitudeMeters>51.59999847412109375</AltitudeMeters>
            <DistanceMeters>NAN</DistanceMeters>
          </Trackpoint>
          <Trackpoint>
            <Time>2022-07-10T10:55:37.000Z</Time>
            <Position>
              <LatitudeDegrees>43.2991138659417629241943359375</LatitudeDegrees>
              <LongitudeDegrees>-2.19957324676215648651123046875</LongitudeDegrees>
            </Position>
            <AltitudeMeters>51.59999847412109375</AltitudeMeters>
            <DistanceMeters>NAN</DistanceMeters>
          </Trackpoint>
          <Trackpoint>
            <Time>2022-07-10T10:55:40.000Z</Time>
            <Position>
              <LatitudeDegrees>43.29921998083591461181640625</LatitudeDegrees>
              <LongitudeDegrees>-2.1997149847447872161865234375</LongitudeDegrees>
            </Position>
            <AltitudeMeters>51.799999237060546875</AltitudeMeters>
            <DistanceMeters>NAN</DistanceMeters>
          </Trackpoint>
          <Trackpoint>
            <Time>2022-07-10T10:55:42.000Z</Time>
            <Position>
              <LatitudeDegrees>43.29923875629901885986328125</LatitudeDegrees>
              <LongitudeDegrees>-2.1997451595962047576904296875</LongitudeDegrees>
            </Position>
            <AltitudeMeters>52</AltitudeMeters>
            <DistanceMeters>NAN</DistanceMeters>
          </Trackpoint>
          <Trackpoint>
            <Time>2022-07-10T10:55:43.000Z</Time>
            <Position>
              <LatitudeDegrees>43.299272619187831878662109375</LatitudeDegrees>
              <LongitudeDegrees>-2.19980978406965732574462890625</LongitudeDegrees>
            </Position>
            <AltitudeMeters>52</AltitudeMeters>
            <DistanceMeters>NAN</DistanceMeters>
          </Trackpoint>
          <Trackpoint>
            <Time>2022-07-10T10:55:49.000Z</Time>
            <Position>
              <LatitudeDegrees>43.2993914745748043060302734375</LatitudeDegrees>
              <LongitudeDegrees>-2.19999837689101696014404296875</LongitudeDegrees>
            </Position>
            <AltitudeMeters>52.200000762939453125</AltitudeMeters>
            <DistanceMeters>NAN</DistanceMeters>
          </Trackpoint>
          <Trackpoint>
            <Time>2022-07-10T10:55:51.000Z</Time>
            <Position>
              <LatitudeDegrees>43.2994464598596096038818359375</LatitudeDegrees>
              <LongitudeDegrees>-2.20005889423191547393798828125</LongitudeDegrees>
            </Position>
            <AltitudeMeters>52.40000152587890625</AltitudeMeters>
            <DistanceMeters>NAN</DistanceMeters>
          </Trackpoint>
          <Trackpoint>
            <Time>2022-07-10T10:55:54.000Z</Time>
            <Position>
              <LatitudeDegrees>43.29952181316912174224853515625</LatitudeDegrees>
              <LongitudeDegrees>-2.2001112811267375946044921875</LongitudeDegrees>
            </Position>
            <AltitudeMeters>52.59999847412109375</AltitudeMeters>
            <DistanceMeters>NAN</DistanceMeters>
          </Trackpoint>
          <Trackpoint>
            <Time>2022-07-10T10:56:00.000Z</Time>
            <Position>
              <LatitudeDegrees>43.299593813717365264892578125</LatitudeDegrees>
              <LongitudeDegrees>-2.20022737048566341400146484375</LongitudeDegrees>
            </Position>
            <AltitudeMeters>53</AltitudeMeters>
            <DistanceMeters>NAN</DistanceMeters>
          </Trackpoint>
          <Trackpoint>
            <Time>2022-07-10T10:56:01.000Z</Time>
            <Position>
              <LatitudeDegrees>43.29961233772337436676025390625</LatitudeDegrees>
              <LongitudeDegrees>-2.200251929461956024169921875</LongitudeDegrees>
            </Position>
            <AltitudeMeters>53</AltitudeMeters>
            <DistanceMeters>NAN</DistanceMeters>
          </Trackpoint>
          <Trackpoint>
            <Time>2022-07-10T10:56:06.000Z</Time>
            <Position>
              <LatitudeDegrees>43.29967369325459003448486328125</LatitudeDegrees>
              <LongitudeDegrees>-2.20035477541387081146240234375</LongitudeDegrees>
            </Position>
            <AltitudeMeters>53.40000152587890625</AltitudeMeters>
            <DistanceMeters>NAN</DistanceMeters>
          </Trackpoint>
          <Trackpoint>
            <Time>2022-07-10T10:56:13.000Z</Time>
            <Position>
              <LatitudeDegrees>43.29981677234172821044921875</LatitudeDegrees>
              <LongitudeDegrees>-2.20054789446294307708740234375</LongitudeDegrees>
            </Position>
            <AltitudeMeters>53.59999847412109375</AltitudeMeters>
            <DistanceMeters>NAN</DistanceMeters>
          </Trackpoint>
          <Trackpoint>
            <Time>2022-07-10T10:56:20.000Z</Time>
            <Position>
              <LatitudeDegrees>43.29990260303020477294921875</LatitudeDegrees>
              <LongitudeDegrees>-2.20066473819315433502197265625</LongitudeDegrees>
            </Position>
            <AltitudeMeters>53.799999237060546875</AltitudeMeters>
            <DistanceMeters>NAN</DistanceMeters>
          </Trackpoint>
          <Trackpoint>
            <Time>2022-07-10T10:56:21.000Z</Time>
            <Position>
              <LatitudeDegrees>43.2999332807958126068115234375</LatitudeDegrees>
              <LongitudeDegrees>-2.20071234740316867828369140625</LongitudeDegrees>
            </Position>
            <AltitudeMeters>53.799999237060546875</AltitudeMeters>
            <DistanceMeters>NAN</DistanceMeters>
          </Trackpoint>
          <Trackpoint>
            <Time>2022-07-10T10:56:27.000Z</Time>
            <Position>
              <LatitudeDegrees>43.3000187762081623077392578125</LatitudeDegrees>
              <LongitudeDegrees>-2.20081083476543426513671875</LongitudeDegrees>
            </Position>
            <AltitudeMeters>54.200000762939453125</AltitudeMeters>
            <DistanceMeters>NAN</DistanceMeters>
          </Trackpoint>
          <Trackpoint>
            <Time>2022-07-10T10:56:29.000Z</Time>
            <Position>
              <LatitudeDegrees>43.3000308461487293243408203125</LatitudeDegrees>
              <LongitudeDegrees>-2.20082801766693592071533203125</LongitudeDegrees>
            </Position>
            <AltitudeMeters>54.200000762939453125</AltitudeMeters>
            <DistanceMeters>NAN</DistanceMeters>
          </Trackpoint>
          <Trackpoint>
            <Time>2022-07-10T10:56:35.000Z</Time>
            <Position>
              <LatitudeDegrees>43.300122879445552825927734375</LatitudeDegrees>
              <LongitudeDegrees>-2.20094016753137111663818359375</LongitudeDegrees>
            </Position>
            <AltitudeMeters>54.59999847412109375</AltitudeMeters>
            <DistanceMeters>NAN</DistanceMeters>
          </Trackpoint>
          <Trackpoint>
            <Time>2022-07-10T10:56:36.000Z</Time>
            <Position>
              <LatitudeDegrees>43.30014157108962535858154296875</LatitudeDegrees>
              <LongitudeDegrees>-2.2009658999741077423095703125</LongitudeDegrees>
            </Position>
            <AltitudeMeters>54.59999847412109375</AltitudeMeters>
            <DistanceMeters>NAN</DistanceMeters>
          </Trackpoint>
          <Trackpoint>
            <Time>2022-07-10T10:56:44.000Z</Time>
            <Position>
              <LatitudeDegrees>43.30026629380881786346435546875</LatitudeDegrees>
              <LongitudeDegrees>-2.20114451833069324493408203125</LongitudeDegrees>
            </Position>
            <AltitudeMeters>55</AltitudeMeters>
            <DistanceMeters>NAN</DistanceMeters>
          </Trackpoint>
          <Trackpoint>
            <Time>2022-07-10T10:56:45.000Z</Time>
            <Position>
              <LatitudeDegrees>43.30030535347759723663330078125</LatitudeDegrees>
              <LongitudeDegrees>-2.2011922113597393035888671875</LongitudeDegrees>
            </Position>
            <AltitudeMeters>55.200000762939453125</AltitudeMeters>
            <DistanceMeters>NAN</DistanceMeters>
          </Trackpoint>
          <Trackpoint>
            <Time>2022-07-10T10:56:54.000Z</Time>
            <Position>
              <LatitudeDegrees>43.300460167229175567626953125</LatitudeDegrees>
              <LongitudeDegrees>-2.20133847557008266448974609375</LongitudeDegrees>
            </Position>
            <AltitudeMeters>55.200000762939453125</AltitudeMeters>
            <DistanceMeters>NAN</DistanceMeters>
          </Trackpoint>
          <Trackpoint>
            <Time>2022-07-10T10:56:59.000Z</Time>
            <Position>
              <LatitudeDegrees>43.30055295489728450775146484375</LatitudeDegrees>
              <LongitudeDegrees>-2.2014324367046356201171875</LongitudeDegrees>
            </Position>
            <AltitudeMeters>55.200000762939453125</AltitudeMeters>
            <DistanceMeters>NAN</DistanceMeters>
          </Trackpoint>
          <Trackpoint>
            <Time>2022-07-10T10:57:02.000Z</Time>
            <Position>
              <LatitudeDegrees>43.30057181417942047119140625</LatitudeDegrees>
              <LongitudeDegrees>-2.201452217996120452880859375</LongitudeDegrees>
            </Position>
            <AltitudeMeters>55.200000762939453125</AltitudeMeters>
            <DistanceMeters>NAN</DistanceMeters>
          </Trackpoint>
          <Trackpoint>
            <Time>2022-07-10T10:57:04.000Z</Time>
            <Position>
              <LatitudeDegrees>43.30057240091264247894287109375</LatitudeDegrees>
              <LongitudeDegrees>-2.2014520503580570220947265625</LongitudeDegrees>
            </Position>
            <AltitudeMeters>55.200000762939453125</AltitudeMeters>
            <DistanceMeters>NAN</DistanceMeters>
          </Trackpoint>
          <Trackpoint>
            <Time>2022-07-10T10:57:05.000Z</Time>
            <Position>
              <LatitudeDegrees>43.300574161112308502197265625</LatitudeDegrees>
              <LongitudeDegrees>-2.20146336592733860015869140625</LongitudeDegrees>
            </Position>
            <AltitudeMeters>55.200000762939453125</AltitudeMeters>
            <DistanceMeters>NAN</DistanceMeters>
          </Trackpoint>
          <Trackpoint>
            <Time>2022-07-10T10:58:03.000Z</Time>
            <Position>
              <LatitudeDegrees>43.3005354367196559906005859375</LatitudeDegrees>
              <LongitudeDegrees>-2.2015155851840972900390625</LongitudeDegrees>
            </Position>
            <AltitudeMeters>54.59999847412109375</AltitudeMeters>
            <DistanceMeters>NAN</DistanceMeters>
          </Trackpoint>
          <Trackpoint>
            <Time>2022-07-10T10:58:05.000Z</Time>
            <Position>
              <LatitudeDegrees>43.3004920184612274169921875</LatitudeDegrees>
              <LongitudeDegrees>-2.2015563212335109710693359375</LongitudeDegrees>
            </Position>
            <AltitudeMeters>54.799999237060546875</AltitudeMeters>
            <DistanceMeters>NAN</DistanceMeters>
          </Trackpoint>
          <Trackpoint>
            <Time>2022-07-10T10:58:07.000Z</Time>
            <Position>
              <LatitudeDegrees>43.3004786074161529541015625</LatitudeDegrees>
              <LongitudeDegrees>-2.20160485245287418365478515625</LongitudeDegrees>
            </Position>
            <AltitudeMeters>55</AltitudeMeters>
            <DistanceMeters>NAN</DistanceMeters>
          </Trackpoint>
          <Trackpoint>
            <Time>2022-07-10T10:58:09.000Z</Time>
            <Position>
              <LatitudeDegrees>43.3004948683083057403564453125</LatitudeDegrees>
              <LongitudeDegrees>-2.20165782608091831207275390625</LongitudeDegrees>
            </Position>
            <AltitudeMeters>55</AltitudeMeters>
            <DistanceMeters>NAN</DistanceMeters>
          </Trackpoint>
          <Trackpoint>
            <Time>2022-07-10T10:58:13.000Z</Time>
            <Position>
              <LatitudeDegrees>43.3005337603390216827392578125</LatitudeDegrees>
              <LongitudeDegrees>-2.20174583606421947479248046875</LongitudeDegrees>
            </Position>
            <AltitudeMeters>55</AltitudeMeters>
            <DistanceMeters>NAN</DistanceMeters>
          </Trackpoint>
          <Trackpoint>
            <Time>2022-07-10T10:58:16.000Z</Time>
            <Position>
              <LatitudeDegrees>43.30058011226356029510498046875</LatitudeDegrees>
              <LongitudeDegrees>-2.201830409467220306396484375</LongitudeDegrees>
            </Position>
            <AltitudeMeters>55.200000762939453125</AltitudeMeters>
            <DistanceMeters>NAN</DistanceMeters>
          </Trackpoint>
          <Trackpoint>
            <Time>2022-07-10T10:58:19.000Z</Time>
            <Position>
              <LatitudeDegrees>43.30062956549227237701416015625</LatitudeDegrees>
              <LongitudeDegrees>-2.201920263469219207763671875</LongitudeDegrees>
            </Position>
            <AltitudeMeters>55.200000762939453125</AltitudeMeters>
            <DistanceMeters>NAN</DistanceMeters>
          </Trackpoint>
          <Trackpoint>
            <Time>2022-07-10T10:58:26.000Z</Time>
            <Position>
              <LatitudeDegrees>43.3007188327610492706298828125</LatitudeDegrees>
              <LongitudeDegrees>-2.2021189145743846893310546875</LongitudeDegrees>
            </Position>
            <AltitudeMeters>55.40000152587890625</AltitudeMeters>
            <DistanceMeters>NAN</DistanceMeters>
          </Trackpoint>
          <Trackpoint>
            <Time>2022-07-10T10:58:30.000Z</Time>
            <Position>
              <LatitudeDegrees>43.3007587306201457977294921875</LatitudeDegrees>
              <LongitudeDegrees>-2.202205248177051544189453125</LongitudeDegrees>
            </Position>
            <AltitudeMeters>55.59999847412109375</AltitudeMeters>
            <DistanceMeters>NAN</DistanceMeters>
          </Trackpoint>
          <Trackpoint>
            <Time>2022-07-10T10:58:31.000Z</Time>
            <Position>
              <LatitudeDegrees>43.30077423714101314544677734375</LatitudeDegrees>
              <LongitudeDegrees>-2.20221740193665027618408203125</LongitudeDegrees>
            </Position>
            <AltitudeMeters>55.59999847412109375</AltitudeMeters>
            <DistanceMeters>NAN</DistanceMeters>
          </Trackpoint>
          <Trackpoint>
            <Time>2022-07-10T10:58:32.000Z</Time>
            <Position>
              <LatitudeDegrees>43.30077423714101314544677734375</LatitudeDegrees>
              <LongitudeDegrees>-2.20221740193665027618408203125</LongitudeDegrees>
            </Position>
            <AltitudeMeters>55.59999847412109375</AltitudeMeters>
            <DistanceMeters>NAN</DistanceMeters>
          </Trackpoint>
          <Trackpoint>
            <Time>2022-07-10T10:58:34.000Z</Time>
            <Position>
              <LatitudeDegrees>43.3007808588445186614990234375</LatitudeDegrees>
              <LongitudeDegrees>-2.2022245265543460845947265625</LongitudeDegrees>
            </Position>
            <AltitudeMeters>55.59999847412109375</AltitudeMeters>
            <DistanceMeters>NAN</DistanceMeters>
          </Trackpoint>
          <Trackpoint>
            <Time>2022-07-10T10:58:56.000Z</Time>
            <Position>
              <LatitudeDegrees>43.30083961598575115203857421875</LatitudeDegrees>
              <LongitudeDegrees>-2.202362827956676483154296875</LongitudeDegrees>
            </Position>
            <AltitudeMeters>55.40000152587890625</AltitudeMeters>
            <DistanceMeters>NAN</DistanceMeters>
          </Trackpoint>
          <Trackpoint>
            <Time>2022-07-10T10:58:57.000Z</Time>
            <Position>
              <LatitudeDegrees>43.30086878500878810882568359375</LatitudeDegrees>
              <LongitudeDegrees>-2.20242074690759181976318359375</LongitudeDegrees>
            </Position>
            <AltitudeMeters>55.40000152587890625</AltitudeMeters>
            <DistanceMeters>NAN</DistanceMeters>
          </Trackpoint>
          <Trackpoint>
            <Time>2022-07-10T10:59:00.000Z</Time>
            <Position>
              <LatitudeDegrees>43.3009183220565319061279296875</LatitudeDegrees>
              <LongitudeDegrees>-2.2025225870311260223388671875</LongitudeDegrees>
            </Position>
            <AltitudeMeters>55.59999847412109375</AltitudeMeters>
            <DistanceMeters>NAN</DistanceMeters>
          </Trackpoint>
          <Trackpoint>
            <Time>2022-07-10T10:59:03.000Z</Time>
            <Position>
              <LatitudeDegrees>43.30094086937606334686279296875</LatitudeDegrees>
              <LongitudeDegrees>-2.20258737914264202117919921875</LongitudeDegrees>
            </Position>
            <AltitudeMeters>55.799999237060546875</AltitudeMeters>
            <DistanceMeters>NAN</DistanceMeters>
          </Trackpoint>
          <Trackpoint>
            <Time>2022-07-10T10:59:09.000Z</Time>
            <Position>
              <LatitudeDegrees>43.30104120075702667236328125</LatitudeDegrees>
              <LongitudeDegrees>-2.20279969274997711181640625</LongitudeDegrees>
            </Position>
            <AltitudeMeters>56.200000762939453125</AltitudeMeters>
            <DistanceMeters>NAN</DistanceMeters>
          </Trackpoint>
          <Trackpoint>
            <Time>2022-07-10T10:59:10.000Z</Time>
            <Position>
              <LatitudeDegrees>43.30105670727789402008056640625</LatitudeDegrees>
              <LongitudeDegrees>-2.20282408408820629119873046875</LongitudeDegrees>
            </Position>
            <AltitudeMeters>56.200000762939453125</AltitudeMeters>
            <DistanceMeters>NAN</DistanceMeters>
          </Trackpoint>
          <Trackpoint>
            <Time>2022-07-10T10:59:15.000Z</Time>
            <Position>
              <LatitudeDegrees>43.30112929455935955047607421875</LatitudeDegrees>
              <LongitudeDegrees>-2.20290237106382846832275390625</LongitudeDegrees>
            </Position>
            <AltitudeMeters>56.59999847412109375</AltitudeMeters>
            <DistanceMeters>NAN</DistanceMeters>
          </Trackpoint>
          <Trackpoint>
            <Time>2022-07-10T10:59:18.000Z</Time>
            <Position>
              <LatitudeDegrees>43.301172964274883270263671875</LatitudeDegrees>
              <LongitudeDegrees>-2.20295660197734832763671875</LongitudeDegrees>
            </Position>
            <AltitudeMeters>56.59999847412109375</AltitudeMeters>
            <DistanceMeters>NAN</DistanceMeters>
          </Trackpoint>
          <Trackpoint>
            <Time>2022-07-10T10:59:24.000Z</Time>
            <Position>
              <LatitudeDegrees>43.3013032190501689910888671875</LatitudeDegrees>
              <LongitudeDegrees>-2.20305810682475566864013671875</LongitudeDegrees>
            </Position>
            <AltitudeMeters>57.200000762939453125</AltitudeMeters>
            <DistanceMeters>NAN</DistanceMeters>
          </Trackpoint>
          <Trackpoint>
            <Time>2022-07-10T10:59:25.000Z</Time>
            <Position>
              <LatitudeDegrees>43.301329873502254486083984375</LatitudeDegrees>
              <LongitudeDegrees>-2.20308174379169940948486328125</LongitudeDegrees>
            </Position>
            <AltitudeMeters>57.200000762939453125</AltitudeMeters>
            <DistanceMeters>NAN</DistanceMeters>
          </Trackpoint>
          <Trackpoint>
            <Time>2022-07-10T10:59:26.000Z</Time>
            <Position>
              <LatitudeDegrees>43.3013810031116008758544921875</LatitudeDegrees>
              <LongitudeDegrees>-2.20312700606882572174072265625</LongitudeDegrees>
            </Position>
            <AltitudeMeters>57.40000152587890625</AltitudeMeters>
            <DistanceMeters>NAN</DistanceMeters>
          </Trackpoint>
          <Trackpoint>
            <Time>2022-07-10T10:59:34.000Z</Time>
            <Position>
              <LatitudeDegrees>43.30155576579272747039794921875</LatitudeDegrees>
              <LongitudeDegrees>-2.203212082386016845703125</LongitudeDegrees>
            </Position>
            <AltitudeMeters>57.59999847412109375</AltitudeMeters>
            <DistanceMeters>NAN</DistanceMeters>
          </Trackpoint>
          <Trackpoint>
            <Time>2022-07-10T10:59:37.000Z</Time>
            <Position>
              <LatitudeDegrees>43.3016462065279483795166015625</LatitudeDegrees>
              <LongitudeDegrees>-2.2032652236521244049072265625</LongitudeDegrees>
            </Position>
            <AltitudeMeters>57.799999237060546875</AltitudeMeters>
            <DistanceMeters>NAN</DistanceMeters>
          </Trackpoint>
          <Trackpoint>
            <Time>2022-07-10T10:59:43.000Z</Time>
            <Position>
              <LatitudeDegrees>43.30184862948954105377197265625</LatitudeDegrees>
              <LongitudeDegrees>-2.20339338295161724090576171875</LongitudeDegrees>
            </Position>
            <AltitudeMeters>58</AltitudeMeters>
            <DistanceMeters>NAN</DistanceMeters>
          </Trackpoint>
          <Trackpoint>
            <Time>2022-07-10T10:59:45.000Z</Time>
            <Position>
              <LatitudeDegrees>43.301879726350307464599609375</LatitudeDegrees>
              <LongitudeDegrees>-2.20340595580637454986572265625</LongitudeDegrees>
            </Position>
            <AltitudeMeters>58.40000152587890625</AltitudeMeters>
            <DistanceMeters>NAN</DistanceMeters>
          </Trackpoint>
          <Trackpoint>
            <Time>2022-07-10T10:59:54.000Z</Time>
            <Position>
              <LatitudeDegrees>43.3021518029272556304931640625</LatitudeDegrees>
              <LongitudeDegrees>-2.20354878343641757965087890625</LongitudeDegrees>
            </Position>
            <AltitudeMeters>58.59999847412109375</AltitudeMeters>
            <DistanceMeters>NAN</DistanceMeters>
          </Trackpoint>
          <Trackpoint>
            <Time>2022-07-10T11:00:03.000Z</Time>
            <Position>
              <LatitudeDegrees>43.30238188616931438446044921875</LatitudeDegrees>
              <LongitudeDegrees>-2.20366378314793109893798828125</LongitudeDegrees>
            </Position>
            <AltitudeMeters>58.799999237060546875</AltitudeMeters>
            <DistanceMeters>NAN</DistanceMeters>
          </Trackpoint>
          <Trackpoint>
            <Time>2022-07-10T11:00:11.000Z</Time>
            <Position>
              <LatitudeDegrees>43.30255019478499889373779296875</LatitudeDegrees>
              <LongitudeDegrees>-2.20374341122806072235107421875</LongitudeDegrees>
            </Position>
            <AltitudeMeters>58.799999237060546875</AltitudeMeters>
            <DistanceMeters>NAN</DistanceMeters>
          </Trackpoint>
          <Trackpoint>
            <Time>2022-07-10T11:00:18.000Z</Time>
            <Position>
              <LatitudeDegrees>43.30268715508282184600830078125</LatitudeDegrees>
              <LongitudeDegrees>-2.20385572873055934906005859375</LongitudeDegrees>
            </Position>
            <AltitudeMeters>58.59999847412109375</AltitudeMeters>
            <DistanceMeters>NAN</DistanceMeters>
          </Trackpoint>
          <Trackpoint>
            <Time>2022-07-10T11:00:25.000Z</Time>
            <Position>
              <LatitudeDegrees>43.3028153143823146820068359375</LatitudeDegrees>
              <LongitudeDegrees>-2.20404465682804584503173828125</LongitudeDegrees>
            </Position>
            <AltitudeMeters>58.200000762939453125</AltitudeMeters>
            <DistanceMeters>NAN</DistanceMeters>
          </Trackpoint>
          <Trackpoint>
            <Time>2022-07-10T11:00:26.000Z</Time>
            <Position>
              <LatitudeDegrees>43.3028153143823146820068359375</LatitudeDegrees>
              <LongitudeDegrees>-2.20404465682804584503173828125</LongitudeDegrees>
            </Position>
            <AltitudeMeters>58.200000762939453125</AltitudeMeters>
            <DistanceMeters>NAN</DistanceMeters>
          </Trackpoint>
          <Trackpoint>
            <Time>2022-07-10T11:00:33.000Z</Time>
            <Position>
              <LatitudeDegrees>43.30290793441236019134521484375</LatitudeDegrees>
              <LongitudeDegrees>-2.204211540520191192626953125</LongitudeDegrees>
            </Position>
            <AltitudeMeters>58</AltitudeMeters>
            <DistanceMeters>NAN</DistanceMeters>
          </Trackpoint>
          <Trackpoint>
            <Time>2022-07-10T11:00:40.000Z</Time>
            <Position>
              <LatitudeDegrees>43.30299577675759792327880859375</LatitudeDegrees>
              <LongitudeDegrees>-2.2043625824153423309326171875</LongitudeDegrees>
            </Position>
            <AltitudeMeters>57.799999237060546875</AltitudeMeters>
            <DistanceMeters>NAN</DistanceMeters>
          </Trackpoint>
          <Trackpoint>
            <Time>2022-07-10T11:00:42.000Z</Time>
            <Position>
              <LatitudeDegrees>43.3030521869659423828125</LatitudeDegrees>
              <LongitudeDegrees>-2.20432796515524387359619140625</LongitudeDegrees>
            </Position>
            <AltitudeMeters>57.200000762939453125</AltitudeMeters>
            <DistanceMeters>NAN</DistanceMeters>
          </Trackpoint>
          <Trackpoint>
            <Time>2022-07-10T11:00:45.000Z</Time>
            <Position>
              <LatitudeDegrees>43.303088061511516571044921875</LatitudeDegrees>
              <LongitudeDegrees>-2.20430181361734867095947265625</LongitudeDegrees>
            </Position>
            <AltitudeMeters>56.59999847412109375</AltitudeMeters>
            <DistanceMeters>NAN</DistanceMeters>
          </Trackpoint>
          <Trackpoint>
            <Time>2022-07-10T11:00:47.000Z</Time>
            <Position>
              <LatitudeDegrees>43.30312787555158138275146484375</LatitudeDegrees>
              <LongitudeDegrees>-2.20428203232586383819580078125</LongitudeDegrees>
            </Position>
            <AltitudeMeters>56.200000762939453125</AltitudeMeters>
            <DistanceMeters>NAN</DistanceMeters>
          </Trackpoint>
          <Trackpoint>
            <Time>2022-07-10T11:00:51.000Z</Time>
            <Position>
              <LatitudeDegrees>43.30320666544139385223388671875</LatitudeDegrees>
              <LongitudeDegrees>-2.20422570593655109405517578125</LongitudeDegrees>
            </Position>
            <AltitudeMeters>55.200000762939453125</AltitudeMeters>
            <DistanceMeters>NAN</DistanceMeters>
          </Trackpoint>
          <Trackpoint>
            <Time>2022-07-10T11:00:54.000Z</Time>
            <Position>
              <LatitudeDegrees>43.30326450057327747344970703125</LatitudeDegrees>
              <LongitudeDegrees>-2.20419368706643581390380859375</LongitudeDegrees>
            </Position>
            <AltitudeMeters>54.59999847412109375</AltitudeMeters>
            <DistanceMeters>NAN</DistanceMeters>
          </Trackpoint>
          <Trackpoint>
            <Time>2022-07-10T11:00:56.000Z</Time>
            <Position>
              <LatitudeDegrees>43.303290568292140960693359375</LatitudeDegrees>
              <LongitudeDegrees>-2.20418027602136135101318359375</LongitudeDegrees>
            </Position>
            <AltitudeMeters>53.799999237060546875</AltitudeMeters>
            <DistanceMeters>NAN</DistanceMeters>
          </Trackpoint>
          <Trackpoint>
            <Time>2022-07-10T11:01:00.000Z</Time>
            <Position>
              <LatitudeDegrees>43.3033893071115016937255859375</LatitudeDegrees>
              <LongitudeDegrees>-2.20414373092353343963623046875</LongitudeDegrees>
            </Position>
            <AltitudeMeters>53.200000762939453125</AltitudeMeters>
            <DistanceMeters>NAN</DistanceMeters>
          </Trackpoint>
          <Trackpoint>
            <Time>2022-07-10T11:01:02.000Z</Time>
            <Position>
              <LatitudeDegrees>43.3034399338066577911376953125</LatitudeDegrees>
              <LongitudeDegrees>-2.204118669033050537109375</LongitudeDegrees>
            </Position>
            <AltitudeMeters>53</AltitudeMeters>
            <DistanceMeters>NAN</DistanceMeters>
          </Trackpoint>
          <Trackpoint>
            <Time>2022-07-10T11:01:04.000Z</Time>
            <Position>
              <LatitudeDegrees>43.30347262322902679443359375</LatitudeDegrees>
              <LongitudeDegrees>-2.204116322100162506103515625</LongitudeDegrees>
            </Position>
            <AltitudeMeters>53</AltitudeMeters>
            <DistanceMeters>NAN</DistanceMeters>
          </Trackpoint>
          <Trackpoint>
            <Time>2022-07-10T11:01:05.000Z</Time>
            <Position>
              <LatitudeDegrees>43.30347262322902679443359375</LatitudeDegrees>
              <LongitudeDegrees>-2.204116322100162506103515625</LongitudeDegrees>
            </Position>
            <AltitudeMeters>52.799999237060546875</AltitudeMeters>
            <DistanceMeters>NAN</DistanceMeters>
          </Trackpoint>
          <Trackpoint>
            <Time>2022-07-10T11:01:08.000Z</Time>
            <Position>
              <LatitudeDegrees>43.303525261580944061279296875</LatitudeDegrees>
              <LongitudeDegrees>-2.20414876006543636322021484375</LongitudeDegrees>
            </Position>
            <AltitudeMeters>52.59999847412109375</AltitudeMeters>
            <DistanceMeters>NAN</DistanceMeters>
          </Trackpoint>
          <Trackpoint>
            <Time>2022-07-10T11:01:09.000Z</Time>
            <Position>
              <LatitudeDegrees>43.30357328988611698150634765625</LatitudeDegrees>
              <LongitudeDegrees>-2.20414356328547000885009765625</LongitudeDegrees>
            </Position>
            <AltitudeMeters>52.59999847412109375</AltitudeMeters>
            <DistanceMeters>NAN</DistanceMeters>
          </Trackpoint>
          <Trackpoint>
            <Time>2022-07-10T11:01:12.000Z</Time>
            <Position>
              <LatitudeDegrees>43.30360363237559795379638671875</LatitudeDegrees>
              <LongitudeDegrees>-2.2041097842156887054443359375</LongitudeDegrees>
            </Position>
            <AltitudeMeters>52.40000152587890625</AltitudeMeters>
            <DistanceMeters>NAN</DistanceMeters>
          </Trackpoint>
          <Trackpoint>
            <Time>2022-07-10T11:01:14.000Z</Time>
            <Position>
              <LatitudeDegrees>43.30366306006908416748046875</LatitudeDegrees>
              <LongitudeDegrees>-2.20408522523939609527587890625</LongitudeDegrees>
            </Position>
            <AltitudeMeters>52.200000762939453125</AltitudeMeters>
            <DistanceMeters>NAN</DistanceMeters>
          </Trackpoint>
          <Trackpoint>
            <Time>2022-07-10T11:01:16.000Z</Time>
            <Position>
              <LatitudeDegrees>43.303671441972255706787109375</LatitudeDegrees>
              <LongitudeDegrees>-2.20408053137362003326416015625</LongitudeDegrees>
            </Position>
            <AltitudeMeters>52</AltitudeMeters>
            <DistanceMeters>NAN</DistanceMeters>
          </Trackpoint>
          <Trackpoint>
            <Time>2022-07-10T11:01:18.000Z</Time>
            <Position>
              <LatitudeDegrees>43.3036766387522220611572265625</LatitudeDegrees>
              <LongitudeDegrees>-2.2039937786757946014404296875</LongitudeDegrees>
            </Position>
            <AltitudeMeters>52</AltitudeMeters>
            <DistanceMeters>NAN</DistanceMeters>
          </Trackpoint>
          <Trackpoint>
            <Time>2022-07-10T11:01:20.000Z</Time>
            <Position>
              <LatitudeDegrees>43.3036488108336925506591796875</LatitudeDegrees>
              <LongitudeDegrees>-2.20399553887546062469482421875</LongitudeDegrees>
            </Position>
            <AltitudeMeters>51.799999237060546875</AltitudeMeters>
            <DistanceMeters>NAN</DistanceMeters>
          </Trackpoint>
          <Trackpoint>
            <Time>2022-07-10T11:01:23.000Z</Time>
            <Position>
              <LatitudeDegrees>43.30366171896457672119140625</LatitudeDegrees>
              <LongitudeDegrees>-2.2040207684040069580078125</LongitudeDegrees>
            </Position>
            <AltitudeMeters>51.799999237060546875</AltitudeMeters>
            <DistanceMeters>NAN</DistanceMeters>
          </Trackpoint>
          <Trackpoint>
            <Time>2022-07-10T11:01:27.000Z</Time>
            <Position>
              <LatitudeDegrees>43.3036903850734233856201171875</LatitudeDegrees>
              <LongitudeDegrees>-2.20399537123739719390869140625</LongitudeDegrees>
            </Position>
            <AltitudeMeters>51.59999847412109375</AltitudeMeters>
            <DistanceMeters>NAN</DistanceMeters>
          </Trackpoint>
          <Trackpoint>
            <Time>2022-07-10T11:01:29.000Z</Time>
            <Position>
              <LatitudeDegrees>43.30368854105472564697265625</LatitudeDegrees>
              <LongitudeDegrees>-2.20396737568080425262451171875</LongitudeDegrees>
            </Position>
            <AltitudeMeters>51.59999847412109375</AltitudeMeters>
            <DistanceMeters>NAN</DistanceMeters>
          </Trackpoint>
          <Trackpoint>
            <Time>2022-07-10T11:01:31.000Z</Time>
            <Position>
              <LatitudeDegrees>43.30371645279228687286376953125</LatitudeDegrees>
              <LongitudeDegrees>-2.20390786416828632354736328125</LongitudeDegrees>
            </Position>
            <AltitudeMeters>51.59999847412109375</AltitudeMeters>
            <DistanceMeters>NAN</DistanceMeters>
          </Trackpoint>
          <Trackpoint>
            <Time>2022-07-10T11:01:36.000Z</Time>
            <Position>
              <LatitudeDegrees>43.3040162734687328338623046875</LatitudeDegrees>
              <LongitudeDegrees>-2.20387064851820468902587890625</LongitudeDegrees>
            </Position>
            <AltitudeMeters>51</AltitudeMeters>
            <DistanceMeters>NAN</DistanceMeters>
          </Trackpoint>
          <Trackpoint>
            <Time>2022-07-10T11:01:37.000Z</Time>
            <Position>
              <LatitudeDegrees>43.30402591265738010406494140625</LatitudeDegrees>
              <LongitudeDegrees>-2.2038690559566020965576171875</LongitudeDegrees>
            </Position>
            <AltitudeMeters>51</AltitudeMeters>
            <DistanceMeters>NAN</DistanceMeters>
          </Trackpoint>
          <Trackpoint>
            <Time>2022-07-10T11:01:38.000Z</Time>
            <Position>
              <LatitudeDegrees>43.303993977606296539306640625</LatitudeDegrees>
              <LongitudeDegrees>-2.20386050641536712646484375</LongitudeDegrees>
            </Position>
            <AltitudeMeters>51</AltitudeMeters>
            <DistanceMeters>NAN</DistanceMeters>
          </Trackpoint>
          <Trackpoint>
            <Time>2022-07-10T11:01:39.000Z</Time>
            <Position>
              <LatitudeDegrees>43.304002024233341217041015625</LatitudeDegrees>
              <LongitudeDegrees>-2.20385824330151081085205078125</LongitudeDegrees>
            </Position>
            <AltitudeMeters>51</AltitudeMeters>
            <DistanceMeters>NAN</DistanceMeters>
          </Trackpoint>
          <Trackpoint>
            <Time>2022-07-10T11:01:41.000Z</Time>
            <Position>
              <LatitudeDegrees>43.304026164114475250244140625</LatitudeDegrees>
              <LongitudeDegrees>-2.2038304992020130157470703125</LongitudeDegrees>
            </Position>
            <AltitudeMeters>50.799999237060546875</AltitudeMeters>
            <DistanceMeters>NAN</DistanceMeters>
          </Trackpoint>
          <Trackpoint>
            <Time>2022-07-10T11:01:42.000Z</Time>
            <Position>
              <LatitudeDegrees>43.304026164114475250244140625</LatitudeDegrees>
              <LongitudeDegrees>-2.2038304992020130157470703125</LongitudeDegrees>
            </Position>
            <AltitudeMeters>50.59999847412109375</AltitudeMeters>
            <DistanceMeters>NAN</DistanceMeters>
          </Trackpoint>
          <Trackpoint>
            <Time>2022-07-10T11:01:43.000Z</Time>
            <Position>
              <LatitudeDegrees>43.30407050438225269317626953125</LatitudeDegrees>
              <LongitudeDegrees>-2.20378800295293331146240234375</LongitudeDegrees>
            </Position>
            <AltitudeMeters>50.59999847412109375</AltitudeMeters>
            <DistanceMeters>NAN</DistanceMeters>
          </Trackpoint>
          <Trackpoint>
            <Time>2022-07-10T11:01:45.000Z</Time>
            <Position>
              <LatitudeDegrees>43.304120041429996490478515625</LatitudeDegrees>
              <LongitudeDegrees>-2.2037838958203792572021484375</LongitudeDegrees>
            </Position>
            <AltitudeMeters>50.40000152587890625</AltitudeMeters>
            <DistanceMeters>NAN</DistanceMeters>
          </Trackpoint>
          <Trackpoint>
            <Time>2022-07-10T11:01:46.000Z</Time>
            <Position>
              <LatitudeDegrees>43.304120041429996490478515625</LatitudeDegrees>
              <LongitudeDegrees>-2.2037838958203792572021484375</LongitudeDegrees>
            </Position>
            <AltitudeMeters>50.200000762939453125</AltitudeMeters>
            <DistanceMeters>NAN</DistanceMeters>
          </Trackpoint>
          <Trackpoint>
            <Time>2022-07-10T11:01:47.000Z</Time>
            <Position>
              <LatitudeDegrees>43.30413102172315120697021484375</LatitudeDegrees>
              <LongitudeDegrees>-2.20379990525543689727783203125</LongitudeDegrees>
            </Position>
            <AltitudeMeters>50.200000762939453125</AltitudeMeters>
            <DistanceMeters>NAN</DistanceMeters>
          </Trackpoint>
          <Trackpoint>
            <Time>2022-07-10T11:01:49.000Z</Time>
            <Position>
              <LatitudeDegrees>43.3041483722627162933349609375</LatitudeDegrees>
              <LongitudeDegrees>-2.20378096215426921844482421875</LongitudeDegrees>
            </Position>
            <AltitudeMeters>50.200000762939453125</AltitudeMeters>
            <DistanceMeters>NAN</DistanceMeters>
          </Trackpoint>
          <Trackpoint>
            <Time>2022-07-10T11:01:51.000Z</Time>
            <Position>
              <LatitudeDegrees>43.30419355072081089019775390625</LatitudeDegrees>
              <LongitudeDegrees>-2.20375246368348598480224609375</LongitudeDegrees>
            </Position>
            <AltitudeMeters>50</AltitudeMeters>
            <DistanceMeters>NAN</DistanceMeters>
          </Trackpoint>
          <Trackpoint>
            <Time>2022-07-10T11:01:56.000Z</Time>
            <Position>
              <LatitudeDegrees>43.30429446883499622344970703125</LatitudeDegrees>
              <LongitudeDegrees>-2.2035889327526092529296875</LongitudeDegrees>
            </Position>
            <AltitudeMeters>49.59999847412109375</AltitudeMeters>
            <DistanceMeters>NAN</DistanceMeters>
          </Trackpoint>
          <Trackpoint>
            <Time>2022-07-10T11:01:58.000Z</Time>
            <Position>
              <LatitudeDegrees>43.3042838238179683685302734375</LatitudeDegrees>
              <LongitudeDegrees>-2.20359320752322673797607421875</LongitudeDegrees>
            </Position>
            <AltitudeMeters>49.40000152587890625</AltitudeMeters>
            <DistanceMeters>NAN</DistanceMeters>
          </Trackpoint>
          <Trackpoint>
            <Time>2022-07-10T11:02:01.000Z</Time>
            <Position>
              <LatitudeDegrees>43.304263539612293243408203125</LatitudeDegrees>
              <LongitudeDegrees>-2.203565128147602081298828125</LongitudeDegrees>
            </Position>
            <AltitudeMeters>49.200000762939453125</AltitudeMeters>
            <DistanceMeters>NAN</DistanceMeters>
          </Trackpoint>
          <Trackpoint>
            <Time>2022-07-10T11:02:03.000Z</Time>
            <Position>
              <LatitudeDegrees>43.3042471110820770263671875</LatitudeDegrees>
              <LongitudeDegrees>-2.203542329370975494384765625</LongitudeDegrees>
            </Position>
            <AltitudeMeters>49</AltitudeMeters>
            <DistanceMeters>NAN</DistanceMeters>
          </Trackpoint>
          <Trackpoint>
            <Time>2022-07-10T11:02:04.000Z</Time>
            <Position>
              <LatitudeDegrees>43.3042549900710582733154296875</LatitudeDegrees>
              <LongitudeDegrees>-2.20355364494025707244873046875</LongitudeDegrees>
            </Position>
            <AltitudeMeters>49</AltitudeMeters>
            <DistanceMeters>NAN</DistanceMeters>
          </Trackpoint>
          <Trackpoint>
            <Time>2022-07-10T11:02:06.000Z</Time>
            <Position>
              <LatitudeDegrees>43.30426253378391265869140625</LatitudeDegrees>
              <LongitudeDegrees>-2.20354878343641757965087890625</LongitudeDegrees>
            </Position>
            <AltitudeMeters>48.59999847412109375</AltitudeMeters>
            <DistanceMeters>NAN</DistanceMeters>
          </Trackpoint>
          <Trackpoint>
            <Time>2022-07-10T11:02:08.000Z</Time>
            <Position>
              <LatitudeDegrees>43.30426798202097415924072265625</LatitudeDegrees>
              <LongitudeDegrees>-2.2035646252334117889404296875</LongitudeDegrees>
            </Position>
            <AltitudeMeters>48.59999847412109375</AltitudeMeters>
            <DistanceMeters>NAN</DistanceMeters>
          </Trackpoint>
          <Trackpoint>
            <Time>2022-07-10T11:02:12.000Z</Time>
            <Position>
              <LatitudeDegrees>43.30430368892848491668701171875</LatitudeDegrees>
              <LongitudeDegrees>-2.20356387086212635040283203125</LongitudeDegrees>
            </Position>
            <AltitudeMeters>48.200000762939453125</AltitudeMeters>
            <DistanceMeters>NAN</DistanceMeters>
          </Trackpoint>
          <Trackpoint>
            <Time>2022-07-10T11:02:13.000Z</Time>
            <Position>
              <LatitudeDegrees>43.304308466613292694091796875</LatitudeDegrees>
              <LongitudeDegrees>-2.20355900935828685760498046875</LongitudeDegrees>
            </Position>
            <AltitudeMeters>48.200000762939453125</AltitudeMeters>
            <DistanceMeters>NAN</DistanceMeters>
          </Trackpoint>
          <Trackpoint>
            <Time>2022-07-10T11:02:15.000Z</Time>
            <Position>
              <LatitudeDegrees>43.30430318601429462432861328125</LatitudeDegrees>
              <LongitudeDegrees>-2.20354978926479816436767578125</LongitudeDegrees>
            </Position>
            <AltitudeMeters>48.200000762939453125</AltitudeMeters>
            <DistanceMeters>NAN</DistanceMeters>
          </Trackpoint>
          <Trackpoint>
            <Time>2022-07-10T11:02:17.000Z</Time>
            <Position>
              <LatitudeDegrees>43.30435431562364101409912109375</LatitudeDegrees>
              <LongitudeDegrees>-2.203540988266468048095703125</LongitudeDegrees>
            </Position>
            <AltitudeMeters>48.200000762939453125</AltitudeMeters>
            <DistanceMeters>NAN</DistanceMeters>
          </Trackpoint>
          <Trackpoint>
            <Time>2022-07-10T11:02:18.000Z</Time>
            <Position>
              <LatitudeDegrees>43.30435431562364101409912109375</LatitudeDegrees>
              <LongitudeDegrees>-2.203540988266468048095703125</LongitudeDegrees>
            </Position>
            <AltitudeMeters>48.200000762939453125</AltitudeMeters>
            <DistanceMeters>NAN</DistanceMeters>
          </Trackpoint>
          <Trackpoint>
            <Time>2022-07-10T11:02:20.000Z</Time>
            <Position>
              <LatitudeDegrees>43.30439991317689418792724609375</LatitudeDegrees>
              <LongitudeDegrees>-2.203533612191677093505859375</LongitudeDegrees>
            </Position>
            <AltitudeMeters>48.200000762939453125</AltitudeMeters>
            <DistanceMeters>NAN</DistanceMeters>
          </Trackpoint>
          <Trackpoint>
            <Time>2022-07-10T11:02:32.000Z</Time>
            <Position>
              <LatitudeDegrees>43.30478061921894550323486328125</LatitudeDegrees>
              <LongitudeDegrees>-2.20327955670654773712158203125</LongitudeDegrees>
            </Position>
            <AltitudeMeters>46.799999237060546875</AltitudeMeters>
            <DistanceMeters>NAN</DistanceMeters>
          </Trackpoint>
          <Trackpoint>
            <Time>2022-07-10T11:02:35.000Z</Time>
            <Position>
              <LatitudeDegrees>43.30474876798689365386962890625</LatitudeDegrees>
              <LongitudeDegrees>-2.20316153950989246368408203125</LongitudeDegrees>
            </Position>
            <AltitudeMeters>46.799999237060546875</AltitudeMeters>
            <DistanceMeters>NAN</DistanceMeters>
          </Trackpoint>
          <Trackpoint>
            <Time>2022-07-10T11:02:42.000Z</Time>
            <Position>
              <LatitudeDegrees>43.3047755062580108642578125</LatitudeDegrees>
              <LongitudeDegrees>-2.203048132359981536865234375</LongitudeDegrees>
            </Position>
            <AltitudeMeters>46.40000152587890625</AltitudeMeters>
            <DistanceMeters>NAN</DistanceMeters>
          </Trackpoint>
          <Trackpoint>
            <Time>2022-07-10T11:02:43.000Z</Time>
            <Position>
              <LatitudeDegrees>43.30479972995817661285400390625</LatitudeDegrees>
              <LongitudeDegrees>-2.20305408351123332977294921875</LongitudeDegrees>
            </Position>
            <AltitudeMeters>46.200000762939453125</AltitudeMeters>
            <DistanceMeters>NAN</DistanceMeters>
          </Trackpoint>
          <Trackpoint>
            <Time>2022-07-10T11:02:46.000Z</Time>
            <Position>
              <LatitudeDegrees>43.3048206008970737457275390625</LatitudeDegrees>
              <LongitudeDegrees>-2.203071601688861846923828125</LongitudeDegrees>
            </Position>
            <AltitudeMeters>46.40000152587890625</AltitudeMeters>
            <DistanceMeters>NAN</DistanceMeters>
          </Trackpoint>
          <Trackpoint>
            <Time>2022-07-10T11:02:48.000Z</Time>
            <Position>
              <LatitudeDegrees>43.30486276187002658843994140625</LatitudeDegrees>
              <LongitudeDegrees>-2.20310906879603862762451171875</LongitudeDegrees>
            </Position>
            <AltitudeMeters>46.799999237060546875</AltitudeMeters>
            <DistanceMeters>NAN</DistanceMeters>
          </Trackpoint>
          <Trackpoint>
            <Time>2022-07-10T11:02:51.000Z</Time>
            <Position>
              <LatitudeDegrees>43.304907269775867462158203125</LatitudeDegrees>
              <LongitudeDegrees>-2.20309381373226642608642578125</LongitudeDegrees>
            </Position>
            <AltitudeMeters>47.40000152587890625</AltitudeMeters>
            <DistanceMeters>NAN</DistanceMeters>
          </Trackpoint>
          <Trackpoint>
            <Time>2022-07-10T11:02:53.000Z</Time>
            <Position>
              <LatitudeDegrees>43.3049040846526622772216796875</LatitudeDegrees>
              <LongitudeDegrees>-2.20307403244078159332275390625</LongitudeDegrees>
            </Position>
            <AltitudeMeters>47.40000152587890625</AltitudeMeters>
            <DistanceMeters>NAN</DistanceMeters>
          </Trackpoint>
          <Trackpoint>
            <Time>2022-07-10T11:02:56.000Z</Time>
            <Position>
              <LatitudeDegrees>43.304944820702075958251953125</LatitudeDegrees>
              <LongitudeDegrees>-2.20310722477734088897705078125</LongitudeDegrees>
            </Position>
            <AltitudeMeters>47.799999237060546875</AltitudeMeters>
            <DistanceMeters>NAN</DistanceMeters>
          </Trackpoint>
          <Trackpoint>
            <Time>2022-07-10T11:02:59.000Z</Time>
            <Position>
              <LatitudeDegrees>43.3049724809825420379638671875</LatitudeDegrees>
              <LongitudeDegrees>-2.20311292447149753570556640625</LongitudeDegrees>
            </Position>
            <AltitudeMeters>48.200000762939453125</AltitudeMeters>
            <DistanceMeters>NAN</DistanceMeters>
          </Trackpoint>
          <Trackpoint>
            <Time>2022-07-10T11:03:01.000Z</Time>
            <Position>
              <LatitudeDegrees>43.3050016500055789947509765625</LatitudeDegrees>
              <LongitudeDegrees>-2.20313589088618755340576171875</LongitudeDegrees>
            </Position>
            <AltitudeMeters>48.40000152587890625</AltitudeMeters>
            <DistanceMeters>NAN</DistanceMeters>
          </Trackpoint>
          <Trackpoint>
            <Time>2022-07-10T11:03:03.000Z</Time>
            <Position>
              <LatitudeDegrees>43.3050204254686832427978515625</LatitudeDegrees>
              <LongitudeDegrees>-2.20315919257700443267822265625</LongitudeDegrees>
            </Position>
            <AltitudeMeters>48.59999847412109375</AltitudeMeters>
            <DistanceMeters>NAN</DistanceMeters>
          </Trackpoint>
          <Trackpoint>
            <Time>2022-07-10T11:03:08.000Z</Time>
            <Position>
              <LatitudeDegrees>43.30502620898187160491943359375</LatitudeDegrees>
              <LongitudeDegrees>-2.2031824104487895965576171875</LongitudeDegrees>
            </Position>
            <AltitudeMeters>49</AltitudeMeters>
            <DistanceMeters>NAN</DistanceMeters>
          </Trackpoint>
          <Trackpoint>
            <Time>2022-07-10T11:03:40.000Z</Time>
            <Position>
              <LatitudeDegrees>43.30508194863796234130859375</LatitudeDegrees>
              <LongitudeDegrees>-2.20317813567817211151123046875</LongitudeDegrees>
            </Position>
            <AltitudeMeters>49.200000762939453125</AltitudeMeters>
            <DistanceMeters>NAN</DistanceMeters>
          </Trackpoint>
          <Trackpoint>
            <Time>2022-07-10T11:03:41.000Z</Time>
            <Position>
              <LatitudeDegrees>43.30508194863796234130859375</LatitudeDegrees>
              <LongitudeDegrees>-2.20317813567817211151123046875</LongitudeDegrees>
            </Position>
            <AltitudeMeters>49.200000762939453125</AltitudeMeters>
            <DistanceMeters>NAN</DistanceMeters>
          </Trackpoint>
          <Trackpoint>
            <Time>2022-07-10T11:03:54.000Z</Time>
            <Position>
              <LatitudeDegrees>43.305621407926082611083984375</LatitudeDegrees>
              <LongitudeDegrees>-2.20293053425848484039306640625</LongitudeDegrees>
            </Position>
            <AltitudeMeters>41.200000762939453125</AltitudeMeters>
            <DistanceMeters>NAN</DistanceMeters>
          </Trackpoint>
          <Trackpoint>
            <Time>2022-07-10T11:03:56.000Z</Time>
            <Position>
              <LatitudeDegrees>43.30567010678350925445556640625</LatitudeDegrees>
              <LongitudeDegrees>-2.20300915651023387908935546875</LongitudeDegrees>
            </Position>
            <AltitudeMeters>40.40000152587890625</AltitudeMeters>
            <DistanceMeters>NAN</DistanceMeters>
          </Trackpoint>
          <Trackpoint>
            <Time>2022-07-10T11:03:57.000Z</Time>
            <Position>
              <LatitudeDegrees>43.30571603961288928985595703125</LatitudeDegrees>
              <LongitudeDegrees>-2.20301502384245395660400390625</LongitudeDegrees>
            </Position>
            <AltitudeMeters>40.200000762939453125</AltitudeMeters>
            <DistanceMeters>NAN</DistanceMeters>
          </Trackpoint>
          <Trackpoint>
            <Time>2022-07-10T11:04:00.000Z</Time>
            <Position>
              <LatitudeDegrees>43.30578393302857875823974609375</LatitudeDegrees>
              <LongitudeDegrees>-2.20311359502375125885009765625</LongitudeDegrees>
            </Position>
            <AltitudeMeters>39.799999237060546875</AltitudeMeters>
            <DistanceMeters>NAN</DistanceMeters>
          </Trackpoint>
          <Trackpoint>
            <Time>2022-07-10T11:04:04.000Z</Time>
            <Position>
              <LatitudeDegrees>43.3058100007474422454833984375</LatitudeDegrees>
              <LongitudeDegrees>-2.20325843431055545806884765625</LongitudeDegrees>
            </Position>
            <AltitudeMeters>39.40000152587890625</AltitudeMeters>
            <DistanceMeters>NAN</DistanceMeters>
          </Trackpoint>
          <Trackpoint>
            <Time>2022-07-10T11:04:06.000Z</Time>
            <Position>
              <LatitudeDegrees>43.30579541623592376708984375</LatitudeDegrees>
              <LongitudeDegrees>-2.20336496829986572265625</LongitudeDegrees>
            </Position>
            <AltitudeMeters>39.40000152587890625</AltitudeMeters>
            <DistanceMeters>NAN</DistanceMeters>
          </Trackpoint>
          <Trackpoint>
            <Time>2022-07-10T11:04:10.000Z</Time>
            <Position>
              <LatitudeDegrees>43.30573112703859806060791015625</LatitudeDegrees>
              <LongitudeDegrees>-2.20351307652890682220458984375</LongitudeDegrees>
            </Position>
            <AltitudeMeters>39.200000762939453125</AltitudeMeters>
            <DistanceMeters>NAN</DistanceMeters>
          </Trackpoint>
          <Trackpoint>
            <Time>2022-07-10T11:04:15.000Z</Time>
            <Position>
              <LatitudeDegrees>43.3056591264903545379638671875</LatitudeDegrees>
              <LongitudeDegrees>-2.2036967240273952484130859375</LongitudeDegrees>
            </Position>
            <AltitudeMeters>39.200000762939453125</AltitudeMeters>
            <DistanceMeters>NAN</DistanceMeters>
          </Trackpoint>
          <Trackpoint>
            <Time>2022-07-10T11:04:17.000Z</Time>
            <Position>
              <LatitudeDegrees>43.30564898438751697540283203125</LatitudeDegrees>
              <LongitudeDegrees>-2.2037969715893268585205078125</LongitudeDegrees>
            </Position>
            <AltitudeMeters>39</AltitudeMeters>
            <DistanceMeters>NAN</DistanceMeters>
          </Trackpoint>
          <Trackpoint>
            <Time>2022-07-10T11:04:18.000Z</Time>
            <Position>
              <LatitudeDegrees>43.30564898438751697540283203125</LatitudeDegrees>
              <LongitudeDegrees>-2.2037969715893268585205078125</LongitudeDegrees>
            </Position>
            <AltitudeMeters>39</AltitudeMeters>
            <DistanceMeters>NAN</DistanceMeters>
          </Trackpoint>
          <Trackpoint>
            <Time>2022-07-10T11:04:19.000Z</Time>
            <Position>
              <LatitudeDegrees>43.30566172488033771514892578125</LatitudeDegrees>
              <LongitudeDegrees>-2.2038303315639495849609375</LongitudeDegrees>
            </Position>
            <AltitudeMeters>39</AltitudeMeters>
            <DistanceMeters>NAN</DistanceMeters>
          </Trackpoint>
          <Trackpoint>
            <Time>2022-07-10T11:04:24.000Z</Time>
            <Position>
              <LatitudeDegrees>43.3057023771107196807861328125</LatitudeDegrees>
              <LongitudeDegrees>-2.204007022082805633544921875</LongitudeDegrees>
            </Position>
            <AltitudeMeters>39.200000762939453125</AltitudeMeters>
            <DistanceMeters>NAN</DistanceMeters>
          </Trackpoint>
          <Trackpoint>
            <Time>2022-07-10T11:04:28.000Z</Time>
            <Position>
              <LatitudeDegrees>43.30563724972307682037353515625</LatitudeDegrees>
              <LongitudeDegrees>-2.20414482057094573974609375</LongitudeDegrees>
            </Position>
            <AltitudeMeters>39.40000152587890625</AltitudeMeters>
            <DistanceMeters>NAN</DistanceMeters>
          </Trackpoint>
          <Trackpoint>
            <Time>2022-07-10T11:04:34.000Z</Time>
            <Position>
              <LatitudeDegrees>43.30548335798084735870361328125</LatitudeDegrees>
              <LongitudeDegrees>-2.2042874805629253387451171875</LongitudeDegrees>
            </Position>
            <AltitudeMeters>40</AltitudeMeters>
            <DistanceMeters>NAN</DistanceMeters>
          </Trackpoint>
          <Trackpoint>
            <Time>2022-07-10T11:04:35.000Z</Time>
            <Position>
              <LatitudeDegrees>43.305454440414905548095703125</LatitudeDegrees>
              <LongitudeDegrees>-2.20430918969213962554931640625</LongitudeDegrees>
            </Position>
            <AltitudeMeters>40.200000762939453125</AltitudeMeters>
            <DistanceMeters>NAN</DistanceMeters>
          </Trackpoint>
          <Trackpoint>
            <Time>2022-07-10T11:04:38.000Z</Time>
            <Position>
              <LatitudeDegrees>43.30537070520222187042236328125</LatitudeDegrees>
              <LongitudeDegrees>-2.20436937175691127777099609375</LongitudeDegrees>
            </Position>
            <AltitudeMeters>40.200000762939453125</AltitudeMeters>
            <DistanceMeters>NAN</DistanceMeters>
          </Trackpoint>
          <Trackpoint>
            <Time>2022-07-10T11:04:43.000Z</Time>
            <Position>
              <LatitudeDegrees>43.3052323199808597564697265625</LatitudeDegrees>
              <LongitudeDegrees>-2.20451102592051029205322265625</LongitudeDegrees>
            </Position>
            <AltitudeMeters>40.200000762939453125</AltitudeMeters>
            <DistanceMeters>NAN</DistanceMeters>
          </Trackpoint>
          <Trackpoint>
            <Time>2022-07-10T11:04:50.000Z</Time>
            <Position>
              <LatitudeDegrees>43.30507951788604259490966796875</LatitudeDegrees>
              <LongitudeDegrees>-2.2046411968767642974853515625</LongitudeDegrees>
            </Position>
            <AltitudeMeters>40.200000762939453125</AltitudeMeters>
            <DistanceMeters>NAN</DistanceMeters>
          </Trackpoint>
          <Trackpoint>
            <Time>2022-07-10T11:04:56.000Z</Time>
            <Position>
              <LatitudeDegrees>43.304944150149822235107421875</LatitudeDegrees>
              <LongitudeDegrees>-2.20477170310914516448974609375</LongitudeDegrees>
            </Position>
            <AltitudeMeters>40.40000152587890625</AltitudeMeters>
            <DistanceMeters>NAN</DistanceMeters>
          </Trackpoint>
          <Trackpoint>
            <Time>2022-07-10T11:04:59.000Z</Time>
            <Position>
              <LatitudeDegrees>43.3048420585691928863525390625</LatitudeDegrees>
              <LongitudeDegrees>-2.20485049299895763397216796875</LongitudeDegrees>
            </Position>
            <AltitudeMeters>40.40000152587890625</AltitudeMeters>
            <DistanceMeters>NAN</DistanceMeters>
          </Trackpoint>
          <Trackpoint>
            <Time>2022-07-10T11:05:00.000Z</Time>
            <Position>
              <LatitudeDegrees>43.3048420585691928863525390625</LatitudeDegrees>
              <LongitudeDegrees>-2.20485049299895763397216796875</LongitudeDegrees>
            </Position>
            <AltitudeMeters>40.40000152587890625</AltitudeMeters>
            <DistanceMeters>NAN</DistanceMeters>
          </Trackpoint>
          <Trackpoint>
            <Time>2022-07-10T11:05:06.000Z</Time>
            <Position>
              <LatitudeDegrees>43.3047035895287990570068359375</LatitudeDegrees>
              <LongitudeDegrees>-2.20494654960930347442626953125</LongitudeDegrees>
            </Position>
            <AltitudeMeters>40.59999847412109375</AltitudeMeters>
            <DistanceMeters>NAN</DistanceMeters>
          </Trackpoint>
          <Trackpoint>
            <Time>2022-07-10T11:05:08.000Z</Time>
            <Position>
              <LatitudeDegrees>43.30463192425668239593505859375</LatitudeDegrees>
              <LongitudeDegrees>-2.20496599562466144561767578125</LongitudeDegrees>
            </Position>
            <AltitudeMeters>40.59999847412109375</AltitudeMeters>
            <DistanceMeters>NAN</DistanceMeters>
          </Trackpoint>
          <Trackpoint>
            <Time>2022-07-10T11:05:17.000Z</Time>
            <Position>
              <LatitudeDegrees>43.30442036502063274383544921875</LatitudeDegrees>
              <LongitudeDegrees>-2.204947136342525482177734375</LongitudeDegrees>
            </Position>
            <AltitudeMeters>41.200000762939453125</AltitudeMeters>
            <DistanceMeters>NAN</DistanceMeters>
          </Trackpoint>
          <Trackpoint>
            <Time>2022-07-10T11:05:20.000Z</Time>
            <Position>
              <LatitudeDegrees>43.3043508790433406829833984375</LatitudeDegrees>
              <LongitudeDegrees>-2.20493397675454616546630859375</LongitudeDegrees>
            </Position>
            <AltitudeMeters>41.40000152587890625</AltitudeMeters>
            <DistanceMeters>NAN</DistanceMeters>
          </Trackpoint>
          <Trackpoint>
            <Time>2022-07-10T11:05:27.000Z</Time>
            <Position>
              <LatitudeDegrees>43.30418868921697139739990234375</LatitudeDegrees>
              <LongitudeDegrees>-2.20488318242132663726806640625</LongitudeDegrees>
            </Position>
            <AltitudeMeters>41.799999237060546875</AltitudeMeters>
            <DistanceMeters>NAN</DistanceMeters>
          </Trackpoint>
          <Trackpoint>
            <Time>2022-07-10T11:05:31.000Z</Time>
            <Position>
              <LatitudeDegrees>43.30413219518959522247314453125</LatitudeDegrees>
              <LongitudeDegrees>-2.2048846073448657989501953125</LongitudeDegrees>
            </Position>
            <AltitudeMeters>42</AltitudeMeters>
            <DistanceMeters>NAN</DistanceMeters>
          </Trackpoint>
          <Trackpoint>
            <Time>2022-07-10T11:05:34.000Z</Time>
            <Position>
              <LatitudeDegrees>43.3040756173431873321533203125</LatitudeDegrees>
              <LongitudeDegrees>-2.20490111969411373138427734375</LongitudeDegrees>
            </Position>
            <AltitudeMeters>42.200000762939453125</AltitudeMeters>
            <DistanceMeters>NAN</DistanceMeters>
          </Trackpoint>
          <Trackpoint>
            <Time>2022-07-10T11:05:42.000Z</Time>
            <Position>
              <LatitudeDegrees>43.30390169285237789154052734375</LatitudeDegrees>
              <LongitudeDegrees>-2.20496934838593006134033203125</LongitudeDegrees>
            </Position>
            <AltitudeMeters>42.799999237060546875</AltitudeMeters>
            <DistanceMeters>NAN</DistanceMeters>
          </Trackpoint>
          <Trackpoint>
            <Time>2022-07-10T11:05:49.000Z</Time>
            <Position>
              <LatitudeDegrees>43.30379784107208251953125</LatitudeDegrees>
              <LongitudeDegrees>-2.2050539217889308929443359375</LongitudeDegrees>
            </Position>
            <AltitudeMeters>43.200000762939453125</AltitudeMeters>
            <DistanceMeters>NAN</DistanceMeters>
          </Trackpoint>
          <Trackpoint>
            <Time>2022-07-10T11:05:54.000Z</Time>
            <Position>
              <LatitudeDegrees>43.30368158407509326934814453125</LatitudeDegrees>
              <LongitudeDegrees>-2.20516431145370006561279296875</LongitudeDegrees>
            </Position>
            <AltitudeMeters>43.40000152587890625</AltitudeMeters>
            <DistanceMeters>NAN</DistanceMeters>
          </Trackpoint>
          <Trackpoint>
            <Time>2022-07-10T11:06:02.000Z</Time>
            <Position>
              <LatitudeDegrees>43.30357211641967296600341796875</LatitudeDegrees>
              <LongitudeDegrees>-2.20533580519258975982666015625</LongitudeDegrees>
            </Position>
            <AltitudeMeters>43.799999237060546875</AltitudeMeters>
            <DistanceMeters>NAN</DistanceMeters>
          </Trackpoint>
          <Trackpoint>
            <Time>2022-07-10T11:06:11.000Z</Time>
            <Position>
              <LatitudeDegrees>43.303470276296138763427734375</LatitudeDegrees>
              <LongitudeDegrees>-2.2055642120540142059326171875</LongitudeDegrees>
            </Position>
            <AltitudeMeters>44</AltitudeMeters>
            <DistanceMeters>NAN</DistanceMeters>
          </Trackpoint>
          <Trackpoint>
            <Time>2022-07-10T11:06:14.000Z</Time>
            <Position>
              <LatitudeDegrees>43.303443454205989837646484375</LatitudeDegrees>
              <LongitudeDegrees>-2.205623723566532135009765625</LongitudeDegrees>
            </Position>
            <AltitudeMeters>44</AltitudeMeters>
            <DistanceMeters>NAN</DistanceMeters>
          </Trackpoint>
          <Trackpoint>
            <Time>2022-07-10T11:06:18.000Z</Time>
            <Position>
              <LatitudeDegrees>43.303394503891468048095703125</LatitudeDegrees>
              <LongitudeDegrees>-2.2057459317147731781005859375</LongitudeDegrees>
            </Position>
            <AltitudeMeters>44.200000762939453125</AltitudeMeters>
            <DistanceMeters>NAN</DistanceMeters>
          </Trackpoint>
          <Trackpoint>
            <Time>2022-07-10T11:06:19.000Z</Time>
            <Position>
              <LatitudeDegrees>43.30339157022535800933837890625</LatitudeDegrees>
              <LongitudeDegrees>-2.205784656107425689697265625</LongitudeDegrees>
            </Position>
            <AltitudeMeters>44.200000762939453125</AltitudeMeters>
            <DistanceMeters>NAN</DistanceMeters>
          </Trackpoint>
          <Trackpoint>
            <Time>2022-07-10T11:06:27.000Z</Time>
            <Position>
              <LatitudeDegrees>43.30332200042903423309326171875</LatitudeDegrees>
              <LongitudeDegrees>-2.20602504909038543701171875</LongitudeDegrees>
            </Position>
            <AltitudeMeters>44.59999847412109375</AltitudeMeters>
            <DistanceMeters>NAN</DistanceMeters>
          </Trackpoint>
          <Trackpoint>
            <Time>2022-07-10T11:06:33.000Z</Time>
            <Position>
              <LatitudeDegrees>43.303277157247066497802734375</LatitudeDegrees>
              <LongitudeDegrees>-2.206235937774181365966796875</LongitudeDegrees>
            </Position>
            <AltitudeMeters>44.799999237060546875</AltitudeMeters>
            <DistanceMeters>NAN</DistanceMeters>
          </Trackpoint>
          <Trackpoint>
            <Time>2022-07-10T11:06:35.000Z</Time>
            <Position>
              <LatitudeDegrees>43.30326081253588199615478515625</LatitudeDegrees>
              <LongitudeDegrees>-2.2063088603317737579345703125</LongitudeDegrees>
            </Position>
            <AltitudeMeters>44.799999237060546875</AltitudeMeters>
            <DistanceMeters>NAN</DistanceMeters>
          </Trackpoint>
          <Trackpoint>
            <Time>2022-07-10T11:06:41.000Z</Time>
            <Position>
              <LatitudeDegrees>43.30325536429882049560546875</LatitudeDegrees>
              <LongitudeDegrees>-2.20650223083794116973876953125</LongitudeDegrees>
            </Position>
            <AltitudeMeters>44.799999237060546875</AltitudeMeters>
            <DistanceMeters>NAN</DistanceMeters>
          </Trackpoint>
          <Trackpoint>
            <Time>2022-07-10T11:06:47.000Z</Time>
            <Position>
              <LatitudeDegrees>43.303290903568267822265625</LatitudeDegrees>
              <LongitudeDegrees>-2.20665461383759975433349609375</LongitudeDegrees>
            </Position>
            <AltitudeMeters>44.799999237060546875</AltitudeMeters>
            <DistanceMeters>NAN</DistanceMeters>
          </Trackpoint>
          <Trackpoint>
            <Time>2022-07-10T11:06:56.000Z</Time>
            <Position>
              <LatitudeDegrees>43.3033581264317035675048828125</LatitudeDegrees>
              <LongitudeDegrees>-2.20693306066095829010009765625</LongitudeDegrees>
            </Position>
            <AltitudeMeters>45</AltitudeMeters>
            <DistanceMeters>NAN</DistanceMeters>
          </Trackpoint>
          <Trackpoint>
            <Time>2022-07-10T11:07:02.000Z</Time>
            <Position>
              <LatitudeDegrees>43.30346566624939441680908203125</LatitudeDegrees>
              <LongitudeDegrees>-2.20710606314241886138916015625</LongitudeDegrees>
            </Position>
            <AltitudeMeters>45.200000762939453125</AltitudeMeters>
            <DistanceMeters>NAN</DistanceMeters>
          </Trackpoint>
          <Trackpoint>
            <Time>2022-07-10T11:07:07.000Z</Time>
            <Position>
              <LatitudeDegrees>43.30358552746474742889404296875</LatitudeDegrees>
              <LongitudeDegrees>-2.2071886248886585235595703125</LongitudeDegrees>
            </Position>
            <AltitudeMeters>45.200000762939453125</AltitudeMeters>
            <DistanceMeters>NAN</DistanceMeters>
          </Trackpoint>
          <Trackpoint>
            <Time>2022-07-10T11:07:08.000Z</Time>
            <Position>
              <LatitudeDegrees>43.30360279418528079986572265625</LatitudeDegrees>
              <LongitudeDegrees>-2.20721150748431682586669921875</LongitudeDegrees>
            </Position>
            <AltitudeMeters>45.200000762939453125</AltitudeMeters>
            <DistanceMeters>NAN</DistanceMeters>
          </Trackpoint>
          <Trackpoint>
            <Time>2022-07-10T11:07:09.000Z</Time>
            <Position>
              <LatitudeDegrees>43.3036169596016407012939453125</LatitudeDegrees>
              <LongitudeDegrees>-2.2072372399270534515380859375</LongitudeDegrees>
            </Position>
            <AltitudeMeters>45.200000762939453125</AltitudeMeters>
            <DistanceMeters>NAN</DistanceMeters>
          </Trackpoint>
          <Trackpoint>
            <Time>2022-07-10T11:07:12.000Z</Time>
            <Position>
              <LatitudeDegrees>43.3036846853792667388916015625</LatitudeDegrees>
              <LongitudeDegrees>-2.207304798066616058349609375</LongitudeDegrees>
            </Position>
            <AltitudeMeters>45.40000152587890625</AltitudeMeters>
            <DistanceMeters>NAN</DistanceMeters>
          </Trackpoint>
          <Trackpoint>
            <Time>2022-07-10T11:07:17.000Z</Time>
            <Position>
              <LatitudeDegrees>43.30382265150547027587890625</LatitudeDegrees>
              <LongitudeDegrees>-2.20738937146961688995361328125</LongitudeDegrees>
            </Position>
            <AltitudeMeters>45.59999847412109375</AltitudeMeters>
            <DistanceMeters>NAN</DistanceMeters>
          </Trackpoint>
          <Trackpoint>
            <Time>2022-07-10T11:07:24.000Z</Time>
            <Position>
              <LatitudeDegrees>43.30399825237691402435302734375</LatitudeDegrees>
              <LongitudeDegrees>-2.2074766270816326141357421875</LongitudeDegrees>
            </Position>
            <AltitudeMeters>45.799999237060546875</AltitudeMeters>
            <DistanceMeters>NAN</DistanceMeters>
          </Trackpoint>
          <Trackpoint>
            <Time>2022-07-10T11:07:29.000Z</Time>
            <Position>
              <LatitudeDegrees>43.3041567541658878326416015625</LatitudeDegrees>
              <LongitudeDegrees>-2.2075188718736171722412109375</LongitudeDegrees>
            </Position>
            <AltitudeMeters>46</AltitudeMeters>
            <DistanceMeters>NAN</DistanceMeters>
          </Trackpoint>
          <Trackpoint>
            <Time>2022-07-10T11:07:31.000Z</Time>
            <Position>
              <LatitudeDegrees>43.304240070283412933349609375</LatitudeDegrees>
              <LongitudeDegrees>-2.2075443528592586517333984375</LongitudeDegrees>
            </Position>
            <AltitudeMeters>45.799999237060546875</AltitudeMeters>
            <DistanceMeters>NAN</DistanceMeters>
          </Trackpoint>
          <Trackpoint>
            <Time>2022-07-10T11:07:37.000Z</Time>
            <Position>
              <LatitudeDegrees>43.30436722375452518463134765625</LatitudeDegrees>
              <LongitudeDegrees>-2.2076888568699359893798828125</LongitudeDegrees>
            </Position>
            <AltitudeMeters>45.59999847412109375</AltitudeMeters>
            <DistanceMeters>NAN</DistanceMeters>
          </Trackpoint>
          <Trackpoint>
            <Time>2022-07-10T11:07:38.000Z</Time>
            <Position>
              <LatitudeDegrees>43.30436722375452518463134765625</LatitudeDegrees>
              <LongitudeDegrees>-2.2076888568699359893798828125</LongitudeDegrees>
            </Position>
            <AltitudeMeters>45.40000152587890625</AltitudeMeters>
            <DistanceMeters>NAN</DistanceMeters>
          </Trackpoint>
          <Trackpoint>
            <Time>2022-07-10T11:07:44.000Z</Time>
            <Position>
              <LatitudeDegrees>43.304415754973888397216796875</LatitudeDegrees>
              <LongitudeDegrees>-2.20792313106358051300048828125</LongitudeDegrees>
            </Position>
            <AltitudeMeters>45.40000152587890625</AltitudeMeters>
            <DistanceMeters>NAN</DistanceMeters>
          </Trackpoint>
          <Trackpoint>
            <Time>2022-07-10T11:07:49.000Z</Time>
            <Position>
              <LatitudeDegrees>43.3044605143368244171142578125</LatitudeDegrees>
              <LongitudeDegrees>-2.20808230340480804443359375</LongitudeDegrees>
            </Position>
            <AltitudeMeters>45.200000762939453125</AltitudeMeters>
            <DistanceMeters>NAN</DistanceMeters>
          </Trackpoint>
          <Trackpoint>
            <Time>2022-07-10T11:07:50.000Z</Time>
            <Position>
              <LatitudeDegrees>43.3045124821364879608154296875</LatitudeDegrees>
              <LongitudeDegrees>-2.208124212920665740966796875</LongitudeDegrees>
            </Position>
            <AltitudeMeters>45.200000762939453125</AltitudeMeters>
            <DistanceMeters>NAN</DistanceMeters>
          </Trackpoint>
          <Trackpoint>
            <Time>2022-07-10T11:07:58.000Z</Time>
            <Position>
              <LatitudeDegrees>43.30475631169974803924560546875</LatitudeDegrees>
              <LongitudeDegrees>-2.20821599476039409637451171875</LongitudeDegrees>
            </Position>
            <AltitudeMeters>44.799999237060546875</AltitudeMeters>
            <DistanceMeters>NAN</DistanceMeters>
          </Trackpoint>
          <Trackpoint>
            <Time>2022-07-10T11:08:06.000Z</Time>
            <Position>
              <LatitudeDegrees>43.3050901629030704498291015625</LatitudeDegrees>
              <LongitudeDegrees>-2.20836033113300800323486328125</LongitudeDegrees>
            </Position>
            <AltitudeMeters>44.799999237060546875</AltitudeMeters>
            <DistanceMeters>NAN</DistanceMeters>
          </Trackpoint>
          <Trackpoint>
            <Time>2022-07-10T11:08:15.000Z</Time>
            <Position>
              <LatitudeDegrees>43.30536735244095325469970703125</LatitudeDegrees>
              <LongitudeDegrees>-2.20852042548358440399169921875</LongitudeDegrees>
            </Position>
            <AltitudeMeters>45.40000152587890625</AltitudeMeters>
            <DistanceMeters>NAN</DistanceMeters>
          </Trackpoint>
          <Trackpoint>
            <Time>2022-07-10T11:08:19.000Z</Time>
            <Position>
              <LatitudeDegrees>43.305489309132099151611328125</LatitudeDegrees>
              <LongitudeDegrees>-2.2086018137633800506591796875</LongitudeDegrees>
            </Position>
            <AltitudeMeters>45.59999847412109375</AltitudeMeters>
            <DistanceMeters>NAN</DistanceMeters>
          </Trackpoint>
          <Trackpoint>
            <Time>2022-07-10T11:08:22.000Z</Time>
            <Position>
              <LatitudeDegrees>43.3055238425731658935546875</LatitudeDegrees>
              <LongitudeDegrees>-2.20864556729793548583984375</LongitudeDegrees>
            </Position>
            <AltitudeMeters>45.799999237060546875</AltitudeMeters>
            <DistanceMeters>NAN</DistanceMeters>
          </Trackpoint>
          <Trackpoint>
            <Time>2022-07-10T11:08:23.000Z</Time>
            <Position>
              <LatitudeDegrees>43.3055629022419452667236328125</LatitudeDegrees>
              <LongitudeDegrees>-2.208699546754360198974609375</LongitudeDegrees>
            </Position>
            <AltitudeMeters>46</AltitudeMeters>
            <DistanceMeters>NAN</DistanceMeters>
          </Trackpoint>
          <Trackpoint>
            <Time>2022-07-10T11:08:29.000Z</Time>
            <Position>
              <LatitudeDegrees>43.3056584559381008148193359375</LatitudeDegrees>
              <LongitudeDegrees>-2.20889057032763957977294921875</LongitudeDegrees>
            </Position>
            <AltitudeMeters>46.200000762939453125</AltitudeMeters>
            <DistanceMeters>NAN</DistanceMeters>
          </Trackpoint>
          <Trackpoint>
            <Time>2022-07-10T11:08:32.000Z</Time>
            <Position>
              <LatitudeDegrees>43.305699191987514495849609375</LatitudeDegrees>
              <LongitudeDegrees>-2.209001965820789337158203125</LongitudeDegrees>
            </Position>
            <AltitudeMeters>46.59999847412109375</AltitudeMeters>
            <DistanceMeters>NAN</DistanceMeters>
          </Trackpoint>
          <Trackpoint>
            <Time>2022-07-10T11:08:34.000Z</Time>
            <Position>
              <LatitudeDegrees>43.30572308041155338287353515625</LatitudeDegrees>
              <LongitudeDegrees>-2.20907597802579402923583984375</LongitudeDegrees>
            </Position>
            <AltitudeMeters>46.59999847412109375</AltitudeMeters>
            <DistanceMeters>NAN</DistanceMeters>
          </Trackpoint>
          <Trackpoint>
            <Time>2022-07-10T11:08:41.000Z</Time>
            <Position>
              <LatitudeDegrees>43.305797092616558074951171875</LatitudeDegrees>
              <LongitudeDegrees>-2.20931100659072399139404296875</LongitudeDegrees>
            </Position>
            <AltitudeMeters>47</AltitudeMeters>
            <DistanceMeters>NAN</DistanceMeters>
          </Trackpoint>
          <Trackpoint>
            <Time>2022-07-10T11:08:43.000Z</Time>
            <Position>
              <LatitudeDegrees>43.3058054745197296142578125</LatitudeDegrees>
              <LongitudeDegrees>-2.20939516089856624603271484375</LongitudeDegrees>
            </Position>
            <AltitudeMeters>47</AltitudeMeters>
            <DistanceMeters>NAN</DistanceMeters>
          </Trackpoint>
          <Trackpoint>
            <Time>2022-07-10T11:08:50.000Z</Time>
            <Position>
              <LatitudeDegrees>43.30578560940921306610107421875</LatitudeDegrees>
              <LongitudeDegrees>-2.20968400128185749053955078125</LongitudeDegrees>
            </Position>
            <AltitudeMeters>46.799999237060546875</AltitudeMeters>
            <DistanceMeters>NAN</DistanceMeters>
          </Trackpoint>
          <Trackpoint>
            <Time>2022-07-10T11:08:54.000Z</Time>
            <Position>
              <LatitudeDegrees>43.30576591193675994873046875</LatitudeDegrees>
              <LongitudeDegrees>-2.209956832230091094970703125</LongitudeDegrees>
            </Position>
            <AltitudeMeters>46.59999847412109375</AltitudeMeters>
            <DistanceMeters>NAN</DistanceMeters>
          </Trackpoint>
          <Trackpoint>
            <Time>2022-07-10T11:08:56.000Z</Time>
            <Position>
              <LatitudeDegrees>43.30575291998684406280517578125</LatitudeDegrees>
              <LongitudeDegrees>-2.21005749888718128204345703125</LongitudeDegrees>
            </Position>
            <AltitudeMeters>46.59999847412109375</AltitudeMeters>
            <DistanceMeters>NAN</DistanceMeters>
          </Trackpoint>
          <Trackpoint>
            <Time>2022-07-10T11:09:02.000Z</Time>
            <Position>
              <LatitudeDegrees>43.3057405985891819000244140625</LatitudeDegrees>
              <LongitudeDegrees>-2.21037014387547969818115234375</LongitudeDegrees>
            </Position>
            <AltitudeMeters>46.59999847412109375</AltitudeMeters>
            <DistanceMeters>NAN</DistanceMeters>
          </Trackpoint>
          <Trackpoint>
            <Time>2022-07-10T11:09:04.000Z</Time>
            <Position>
              <LatitudeDegrees>43.3057590387761592864990234375</LatitudeDegrees>
              <LongitudeDegrees>-2.21046150662004947662353515625</LongitudeDegrees>
            </Position>
            <AltitudeMeters>46.59999847412109375</AltitudeMeters>
            <DistanceMeters>NAN</DistanceMeters>
          </Trackpoint>
          <Trackpoint>
            <Time>2022-07-10T11:09:11.000Z</Time>
            <Position>
              <LatitudeDegrees>43.305822908878326416015625</LatitudeDegrees>
              <LongitudeDegrees>-2.2108143009245395660400390625</LongitudeDegrees>
            </Position>
            <AltitudeMeters>46.799999237060546875</AltitudeMeters>
            <DistanceMeters>NAN</DistanceMeters>
          </Trackpoint>
          <Trackpoint>
            <Time>2022-07-10T11:09:19.000Z</Time>
            <Position>
              <LatitudeDegrees>43.30594670958817005157470703125</LatitudeDegrees>
              <LongitudeDegrees>-2.211126275360584259033203125</LongitudeDegrees>
            </Position>
            <AltitudeMeters>47</AltitudeMeters>
            <DistanceMeters>NAN</DistanceMeters>
          </Trackpoint>
          <Trackpoint>
            <Time>2022-07-10T11:09:25.000Z</Time>
            <Position>
              <LatitudeDegrees>43.30600865185260772705078125</LatitudeDegrees>
              <LongitudeDegrees>-2.2113378345966339111328125</LongitudeDegrees>
            </Position>
            <AltitudeMeters>47.200000762939453125</AltitudeMeters>
            <DistanceMeters>NAN</DistanceMeters>
          </Trackpoint>
          <Trackpoint>
            <Time>2022-07-10T11:09:27.000Z</Time>
            <Position>
              <LatitudeDegrees>43.30604108981788158416748046875</LatitudeDegrees>
              <LongitudeDegrees>-2.21141469664871692657470703125</LongitudeDegrees>
            </Position>
            <AltitudeMeters>47.200000762939453125</AltitudeMeters>
            <DistanceMeters>NAN</DistanceMeters>
          </Trackpoint>
          <Trackpoint>
            <Time>2022-07-10T11:09:28.000Z</Time>
            <Position>
              <LatitudeDegrees>43.30610227771103382110595703125</LatitudeDegrees>
              <LongitudeDegrees>-2.2114754654467105865478515625</LongitudeDegrees>
            </Position>
            <AltitudeMeters>47.200000762939453125</AltitudeMeters>
            <DistanceMeters>NAN</DistanceMeters>
          </Trackpoint>
          <Trackpoint>
            <Time>2022-07-10T11:09:29.000Z</Time>
            <Position>
              <LatitudeDegrees>43.30615290440618991851806640625</LatitudeDegrees>
              <LongitudeDegrees>-2.21149113960564136505126953125</LongitudeDegrees>
            </Position>
            <AltitudeMeters>47.40000152587890625</AltitudeMeters>
            <DistanceMeters>NAN</DistanceMeters>
          </Trackpoint>
          <Trackpoint>
            <Time>2022-07-10T11:09:33.000Z</Time>
            <Position>
              <LatitudeDegrees>43.30624996684491634368896484375</LatitudeDegrees>
              <LongitudeDegrees>-2.21166229806840419769287109375</LongitudeDegrees>
            </Position>
            <AltitudeMeters>47.40000152587890625</AltitudeMeters>
            <DistanceMeters>NAN</DistanceMeters>
          </Trackpoint>
          <Trackpoint>
            <Time>2022-07-10T11:09:41.000Z</Time>
            <Position>
              <LatitudeDegrees>43.3064492046833038330078125</LatitudeDegrees>
              <LongitudeDegrees>-2.21198399551212787628173828125</LongitudeDegrees>
            </Position>
            <AltitudeMeters>47.59999847412109375</AltitudeMeters>
            <DistanceMeters>NAN</DistanceMeters>
          </Trackpoint>
          <Trackpoint>
            <Time>2022-07-10T11:09:42.000Z</Time>
            <Position>
              <LatitudeDegrees>43.306481055915355682373046875</LatitudeDegrees>
              <LongitudeDegrees>-2.21202355809509754180908203125</LongitudeDegrees>
            </Position>
            <AltitudeMeters>47.59999847412109375</AltitudeMeters>
            <DistanceMeters>NAN</DistanceMeters>
          </Trackpoint>
          <Trackpoint>
            <Time>2022-07-10T11:09:50.000Z</Time>
            <Position>
              <LatitudeDegrees>43.3066652901470661163330078125</LatitudeDegrees>
              <LongitudeDegrees>-2.212316505610942840576171875</LongitudeDegrees>
            </Position>
            <AltitudeMeters>47.59999847412109375</AltitudeMeters>
            <DistanceMeters>NAN</DistanceMeters>
          </Trackpoint>
          <Trackpoint>
            <Time>2022-07-10T11:09:52.000Z</Time>
            <Position>
              <LatitudeDegrees>43.30672455020248889923095703125</LatitudeDegrees>
              <LongitudeDegrees>-2.21240694634616374969482421875</LongitudeDegrees>
            </Position>
            <AltitudeMeters>47.59999847412109375</AltitudeMeters>
            <DistanceMeters>NAN</DistanceMeters>
          </Trackpoint>
          <Trackpoint>
            <Time>2022-07-10T11:09:56.000Z</Time>
            <Position>
              <LatitudeDegrees>43.3068268932402133941650390625</LatitudeDegrees>
              <LongitudeDegrees>-2.212567292153835296630859375</LongitudeDegrees>
            </Position>
            <AltitudeMeters>47.59999847412109375</AltitudeMeters>
            <DistanceMeters>NAN</DistanceMeters>
          </Trackpoint>
          <Trackpoint>
            <Time>2022-07-10T11:09:58.000Z</Time>
            <Position>
              <LatitudeDegrees>43.3068530447781085968017578125</LatitudeDegrees>
              <LongitudeDegrees>-2.21264205873012542724609375</LongitudeDegrees>
            </Position>
            <AltitudeMeters>47.59999847412109375</AltitudeMeters>
            <DistanceMeters>NAN</DistanceMeters>
          </Trackpoint>
          <Trackpoint>
            <Time>2022-07-10T11:10:07.000Z</Time>
            <Position>
              <LatitudeDegrees>43.30691649578511714935302734375</LatitudeDegrees>
              <LongitudeDegrees>-2.213024608790874481201171875</LongitudeDegrees>
            </Position>
            <AltitudeMeters>47.59999847412109375</AltitudeMeters>
            <DistanceMeters>NAN</DistanceMeters>
          </Trackpoint>
          <Trackpoint>
            <Time>2022-07-10T11:10:11.000Z</Time>
            <Position>
              <LatitudeDegrees>43.3068902604281902313232421875</LatitudeDegrees>
              <LongitudeDegrees>-2.2133168019354343414306640625</LongitudeDegrees>
            </Position>
            <AltitudeMeters>47.40000152587890625</AltitudeMeters>
            <DistanceMeters>NAN</DistanceMeters>
          </Trackpoint>
          <Trackpoint>
            <Time>2022-07-10T11:10:13.000Z</Time>
            <Position>
              <LatitudeDegrees>43.30687827430665493011474609375</LatitudeDegrees>
              <LongitudeDegrees>-2.21341461874544620513916015625</LongitudeDegrees>
            </Position>
            <AltitudeMeters>47.200000762939453125</AltitudeMeters>
            <DistanceMeters>NAN</DistanceMeters>
          </Trackpoint>
          <Trackpoint>
            <Time>2022-07-10T11:10:22.000Z</Time>
            <Position>
              <LatitudeDegrees>43.30679663456976413726806640625</LatitudeDegrees>
              <LongitudeDegrees>-2.2138800658285617828369140625</LongitudeDegrees>
            </Position>
            <AltitudeMeters>47</AltitudeMeters>
            <DistanceMeters>NAN</DistanceMeters>
          </Trackpoint>
          <Trackpoint>
            <Time>2022-07-10T11:10:29.000Z</Time>
            <Position>
              <LatitudeDegrees>43.30682463012635707855224609375</LatitudeDegrees>
              <LongitudeDegrees>-2.2142319381237030029296875</LongitudeDegrees>
            </Position>
            <AltitudeMeters>47.200000762939453125</AltitudeMeters>
            <DistanceMeters>NAN</DistanceMeters>
          </Trackpoint>
          <Trackpoint>
            <Time>2022-07-10T11:10:37.000Z</Time>
            <Position>
              <LatitudeDegrees>43.30692462623119354248046875</LatitudeDegrees>
              <LongitudeDegrees>-2.21454768441617488861083984375</LongitudeDegrees>
            </Position>
            <AltitudeMeters>47.59999847412109375</AltitudeMeters>
            <DistanceMeters>NAN</DistanceMeters>
          </Trackpoint>
          <Trackpoint>
            <Time>2022-07-10T11:10:44.000Z</Time>
            <Position>
              <LatitudeDegrees>43.30709955655038356781005859375</LatitudeDegrees>
              <LongitudeDegrees>-2.21486024558544158935546875</LongitudeDegrees>
            </Position>
            <AltitudeMeters>47.799999237060546875</AltitudeMeters>
            <DistanceMeters>NAN</DistanceMeters>
          </Trackpoint>
          <Trackpoint>
            <Time>2022-07-10T11:10:53.000Z</Time>
            <Position>
              <LatitudeDegrees>43.3073562942445278167724609375</LatitudeDegrees>
              <LongitudeDegrees>-2.21509183757007122039794921875</LongitudeDegrees>
            </Position>
            <AltitudeMeters>48</AltitudeMeters>
            <DistanceMeters>NAN</DistanceMeters>
          </Trackpoint>
          <Trackpoint>
            <Time>2022-07-10T11:11:00.000Z</Time>
            <Position>
              <LatitudeDegrees>43.3075665123760700225830078125</LatitudeDegrees>
              <LongitudeDegrees>-2.21521019004285335540771484375</LongitudeDegrees>
            </Position>
            <AltitudeMeters>48.40000152587890625</AltitudeMeters>
            <DistanceMeters>NAN</DistanceMeters>
          </Trackpoint>
          <Trackpoint>
            <Time>2022-07-10T11:11:04.000Z</Time>
            <Position>
              <LatitudeDegrees>43.30768360756337642669677734375</LatitudeDegrees>
              <LongitudeDegrees>-2.215295769274234771728515625</LongitudeDegrees>
            </Position>
            <AltitudeMeters>48.59999847412109375</AltitudeMeters>
            <DistanceMeters>NAN</DistanceMeters>
          </Trackpoint>
          <Trackpoint>
            <Time>2022-07-10T11:11:17.000Z</Time>
            <Position>
              <LatitudeDegrees>43.30806833691895008087158203125</LatitudeDegrees>
              <LongitudeDegrees>-2.2155852802097797393798828125</LongitudeDegrees>
            </Position>
            <AltitudeMeters>48.799999237060546875</AltitudeMeters>
            <DistanceMeters>NAN</DistanceMeters>
          </Trackpoint>
          <Trackpoint>
            <Time>2022-07-10T11:11:28.000Z</Time>
            <Position>
              <LatitudeDegrees>43.30837695859372615814208984375</LatitudeDegrees>
              <LongitudeDegrees>-2.215846963226795196533203125</LongitudeDegrees>
            </Position>
            <AltitudeMeters>49.200000762939453125</AltitudeMeters>
            <DistanceMeters>NAN</DistanceMeters>
          </Trackpoint>
          <Trackpoint>
            <Time>2022-07-10T11:11:37.000Z</Time>
            <Position>
              <LatitudeDegrees>43.308568485081195831298828125</LatitudeDegrees>
              <LongitudeDegrees>-2.2162383981049060821533203125</LongitudeDegrees>
            </Position>
            <AltitudeMeters>49.200000762939453125</AltitudeMeters>
            <DistanceMeters>NAN</DistanceMeters>
          </Trackpoint>
          <Trackpoint>
            <Time>2022-07-10T11:11:39.000Z</Time>
            <Position>
              <LatitudeDegrees>43.3086038567125797271728515625</LatitudeDegrees>
              <LongitudeDegrees>-2.21633789129555225372314453125</LongitudeDegrees>
            </Position>
            <AltitudeMeters>49.200000762939453125</AltitudeMeters>
            <DistanceMeters>NAN</DistanceMeters>
          </Trackpoint>
          <Trackpoint>
            <Time>2022-07-10T11:11:52.000Z</Time>
            <Position>
              <LatitudeDegrees>43.3087550662457942962646484375</LatitudeDegrees>
              <LongitudeDegrees>-2.2169632650911808013916015625</LongitudeDegrees>
            </Position>
            <AltitudeMeters>49</AltitudeMeters>
            <DistanceMeters>NAN</DistanceMeters>
          </Trackpoint>
          <Trackpoint>
            <Time>2022-07-10T11:11:53.000Z</Time>
            <Position>
              <LatitudeDegrees>43.30877627246081829071044921875</LatitudeDegrees>
              <LongitudeDegrees>-2.2170853056013584136962890625</LongitudeDegrees>
            </Position>
            <AltitudeMeters>49</AltitudeMeters>
            <DistanceMeters>NAN</DistanceMeters>
          </Trackpoint>
          <Trackpoint>
            <Time>2022-07-10T11:11:59.000Z</Time>
            <Position>
              <LatitudeDegrees>43.30883041955530643463134765625</LatitudeDegrees>
              <LongitudeDegrees>-2.21744212321937084197998046875</LongitudeDegrees>
            </Position>
            <AltitudeMeters>48.799999237060546875</AltitudeMeters>
            <DistanceMeters>NAN</DistanceMeters>
          </Trackpoint>
          <Trackpoint>
            <Time>2022-07-10T11:12:04.000Z</Time>
            <Position>
              <LatitudeDegrees>43.3088647015392780303955078125</LatitudeDegrees>
              <LongitudeDegrees>-2.21773599274456501007080078125</LongitudeDegrees>
            </Position>
            <AltitudeMeters>48.799999237060546875</AltitudeMeters>
            <DistanceMeters>NAN</DistanceMeters>
          </Trackpoint>
          <Trackpoint>
            <Time>2022-07-10T11:12:08.000Z</Time>
            <Position>
              <LatitudeDegrees>43.30887299962341785430908203125</LatitudeDegrees>
              <LongitudeDegrees>-2.217986024916172027587890625</LongitudeDegrees>
            </Position>
            <AltitudeMeters>48.799999237060546875</AltitudeMeters>
            <DistanceMeters>NAN</DistanceMeters>
          </Trackpoint>
          <Trackpoint>
            <Time>2022-07-10T11:12:11.000Z</Time>
            <Position>
              <LatitudeDegrees>43.30887727439403533935546875</LatitudeDegrees>
              <LongitudeDegrees>-2.218113429844379425048828125</LongitudeDegrees>
            </Position>
            <AltitudeMeters>48.59999847412109375</AltitudeMeters>
            <DistanceMeters>NAN</DistanceMeters>
          </Trackpoint>
          <Trackpoint>
            <Time>2022-07-10T11:12:13.000Z</Time>
            <Position>
              <LatitudeDegrees>43.30880309455096721649169921875</LatitudeDegrees>
              <LongitudeDegrees>-2.2182554192841053009033203125</LongitudeDegrees>
            </Position>
            <AltitudeMeters>48.59999847412109375</AltitudeMeters>
            <DistanceMeters>NAN</DistanceMeters>
          </Trackpoint>
          <Trackpoint>
            <Time>2022-07-10T11:12:14.000Z</Time>
            <Position>
              <LatitudeDegrees>43.30880158580839633941650390625</LatitudeDegrees>
              <LongitudeDegrees>-2.2183006815612316131591796875</LongitudeDegrees>
            </Position>
            <AltitudeMeters>48.59999847412109375</AltitudeMeters>
            <DistanceMeters>NAN</DistanceMeters>
          </Trackpoint>
          <Trackpoint>
            <Time>2022-07-10T11:12:16.000Z</Time>
            <Position>
              <LatitudeDegrees>43.30881030298769474029541015625</LatitudeDegrees>
              <LongitudeDegrees>-2.2184186987578868865966796875</LongitudeDegrees>
            </Position>
            <AltitudeMeters>48.799999237060546875</AltitudeMeters>
            <DistanceMeters>NAN</DistanceMeters>
          </Trackpoint>
          <Trackpoint>
            <Time>2022-07-10T11:12:18.000Z</Time>
            <Position>
              <LatitudeDegrees>43.3088197745382785797119140625</LatitudeDegrees>
              <LongitudeDegrees>-2.21857644617557525634765625</LongitudeDegrees>
            </Position>
            <AltitudeMeters>48.799999237060546875</AltitudeMeters>
            <DistanceMeters>NAN</DistanceMeters>
          </Trackpoint>
          <Trackpoint>
            <Time>2022-07-10T11:12:20.000Z</Time>
            <Position>
              <LatitudeDegrees>43.3088422380387783050537109375</LatitudeDegrees>
              <LongitudeDegrees>-2.21868038177490234375</LongitudeDegrees>
            </Position>
            <AltitudeMeters>49</AltitudeMeters>
            <DistanceMeters>NAN</DistanceMeters>
          </Trackpoint>
          <Trackpoint>
            <Time>2022-07-10T11:12:22.000Z</Time>
            <Position>
              <LatitudeDegrees>43.3088519610464572906494140625</LatitudeDegrees>
              <LongitudeDegrees>-2.218739055097103118896484375</LongitudeDegrees>
            </Position>
            <AltitudeMeters>49</AltitudeMeters>
            <DistanceMeters>NAN</DistanceMeters>
          </Trackpoint>
          <Trackpoint>
            <Time>2022-07-10T11:12:25.000Z</Time>
            <Position>
              <LatitudeDegrees>43.30886629410088062286376953125</LatitudeDegrees>
              <LongitudeDegrees>-2.21893929876387119293212890625</LongitudeDegrees>
            </Position>
            <AltitudeMeters>49.40000152587890625</AltitudeMeters>
            <DistanceMeters>NAN</DistanceMeters>
          </Trackpoint>
          <Trackpoint>
            <Time>2022-07-10T11:12:30.000Z</Time>
            <Position>
              <LatitudeDegrees>43.30886914394795894622802734375</LatitudeDegrees>
              <LongitudeDegrees>-2.21915982663631439208984375</LongitudeDegrees>
            </Position>
            <AltitudeMeters>49.799999237060546875</AltitudeMeters>
            <DistanceMeters>NAN</DistanceMeters>
          </Trackpoint>
          <Trackpoint>
            <Time>2022-07-10T11:12:36.000Z</Time>
            <Position>
              <LatitudeDegrees>43.308875598013401031494140625</LatitudeDegrees>
              <LongitudeDegrees>-2.21932947635650634765625</LongitudeDegrees>
            </Position>
            <AltitudeMeters>50.40000152587890625</AltitudeMeters>
            <DistanceMeters>NAN</DistanceMeters>
          </Trackpoint>
          <Trackpoint>
            <Time>2022-07-10T11:12:37.000Z</Time>
            <Position>
              <LatitudeDegrees>43.308884315192699432373046875</LatitudeDegrees>
              <LongitudeDegrees>-2.2193826176226139068603515625</LongitudeDegrees>
            </Position>
            <AltitudeMeters>50.40000152587890625</AltitudeMeters>
            <DistanceMeters>NAN</DistanceMeters>
          </Trackpoint>
          <Trackpoint>
            <Time>2022-07-10T11:12:39.000Z</Time>
            <Position>
              <LatitudeDegrees>43.3089076168835163116455078125</LatitudeDegrees>
              <LongitudeDegrees>-2.219425700604915618896484375</LongitudeDegrees>
            </Position>
            <AltitudeMeters>50.799999237060546875</AltitudeMeters>
            <DistanceMeters>NAN</DistanceMeters>
          </Trackpoint>
          <Trackpoint>
            <Time>2022-07-10T11:13:40.000Z</Time>
            <Position>
              <LatitudeDegrees>43.3090662024915218353271484375</LatitudeDegrees>
              <LongitudeDegrees>-2.221142984926700592041015625</LongitudeDegrees>
            </Position>
            <AltitudeMeters>56.40000152587890625</AltitudeMeters>
            <DistanceMeters>NAN</DistanceMeters>
          </Trackpoint>
          <Trackpoint>
            <Time>2022-07-10T11:13:42.000Z</Time>
            <Position>
              <LatitudeDegrees>43.30901666544377803802490234375</LatitudeDegrees>
              <LongitudeDegrees>-2.22117994911968708038330078125</LongitudeDegrees>
            </Position>
            <AltitudeMeters>56.59999847412109375</AltitudeMeters>
            <DistanceMeters>NAN</DistanceMeters>
          </Trackpoint>
          <Trackpoint>
            <Time>2022-07-10T11:13:44.000Z</Time>
            <Position>
              <LatitudeDegrees>43.30897659994661808013916015625</LatitudeDegrees>
              <LongitudeDegrees>-2.22122638486325740814208984375</LongitudeDegrees>
            </Position>
            <AltitudeMeters>56.799999237060546875</AltitudeMeters>
            <DistanceMeters>NAN</DistanceMeters>
          </Trackpoint>
          <Trackpoint>
            <Time>2022-07-10T11:13:51.000Z</Time>
            <Position>
              <LatitudeDegrees>43.309018425643444061279296875</LatitudeDegrees>
              <LongitudeDegrees>-2.22142235375940799713134765625</LongitudeDegrees>
            </Position>
            <AltitudeMeters>57.200000762939453125</AltitudeMeters>
            <DistanceMeters>NAN</DistanceMeters>
          </Trackpoint>
          <Trackpoint>
            <Time>2022-07-10T11:13:58.000Z</Time>
            <Position>
              <LatitudeDegrees>43.30905689857900142669677734375</LatitudeDegrees>
              <LongitudeDegrees>-2.2215977869927883148193359375</LongitudeDegrees>
            </Position>
            <AltitudeMeters>58</AltitudeMeters>
            <DistanceMeters>NAN</DistanceMeters>
          </Trackpoint>
          <Trackpoint>
            <Time>2022-07-10T11:14:02.000Z</Time>
            <Position>
              <LatitudeDegrees>43.30908020026981830596923828125</LatitudeDegrees>
              <LongitudeDegrees>-2.22171789966523647308349609375</LongitudeDegrees>
            </Position>
            <AltitudeMeters>58.200000762939453125</AltitudeMeters>
            <DistanceMeters>NAN</DistanceMeters>
          </Trackpoint>
          <Trackpoint>
            <Time>2022-07-10T11:14:09.000Z</Time>
            <Position>
              <LatitudeDegrees>43.3091402985155582427978515625</LatitudeDegrees>
              <LongitudeDegrees>-2.22190506756305694580078125</LongitudeDegrees>
            </Position>
            <AltitudeMeters>58.59999847412109375</AltitudeMeters>
            <DistanceMeters>NAN</DistanceMeters>
          </Trackpoint>
          <Trackpoint>
            <Time>2022-07-10T11:14:10.000Z</Time>
            <Position>
              <LatitudeDegrees>43.3091402985155582427978515625</LatitudeDegrees>
              <LongitudeDegrees>-2.22190506756305694580078125</LongitudeDegrees>
            </Position>
            <AltitudeMeters>58.59999847412109375</AltitudeMeters>
            <DistanceMeters>NAN</DistanceMeters>
          </Trackpoint>
          <Trackpoint>
            <Time>2022-07-10T11:14:14.000Z</Time>
            <Position>
              <LatitudeDegrees>43.30916318111121654510498046875</LatitudeDegrees>
              <LongitudeDegrees>-2.2220004536211490631103515625</LongitudeDegrees>
            </Position>
            <AltitudeMeters>59.200000762939453125</AltitudeMeters>
            <DistanceMeters>NAN</DistanceMeters>
          </Trackpoint>
          <Trackpoint>
            <Time>2022-07-10T11:14:19.000Z</Time>
            <Position>
              <LatitudeDegrees>43.30917659215629100799560546875</LatitudeDegrees>
              <LongitudeDegrees>-2.22209894098341464996337890625</LongitudeDegrees>
            </Position>
            <AltitudeMeters>59.40000152587890625</AltitudeMeters>
            <DistanceMeters>NAN</DistanceMeters>
          </Trackpoint>
          <Trackpoint>
            <Time>2022-07-10T11:14:28.000Z</Time>
            <Position>
              <LatitudeDegrees>43.30934355966746807098388671875</LatitudeDegrees>
              <LongitudeDegrees>-2.2222586162388324737548828125</LongitudeDegrees>
            </Position>
            <AltitudeMeters>60.200000762939453125</AltitudeMeters>
            <DistanceMeters>NAN</DistanceMeters>
          </Trackpoint>
          <Trackpoint>
            <Time>2022-07-10T11:14:29.000Z</Time>
            <Position>
              <LatitudeDegrees>43.30935931764543056488037109375</LatitudeDegrees>
              <LongitudeDegrees>-2.22227110527455806732177734375</LongitudeDegrees>
            </Position>
            <AltitudeMeters>60.200000762939453125</AltitudeMeters>
            <DistanceMeters>NAN</DistanceMeters>
          </Trackpoint>
          <Trackpoint>
            <Time>2022-07-10T11:14:34.000Z</Time>
            <Position>
              <LatitudeDegrees>43.30945202149450778961181640625</LatitudeDegrees>
              <LongitudeDegrees>-2.222374118864536285400390625</LongitudeDegrees>
            </Position>
            <AltitudeMeters>60.59999847412109375</AltitudeMeters>
            <DistanceMeters>NAN</DistanceMeters>
          </Trackpoint>
          <Trackpoint>
            <Time>2022-07-10T11:14:38.000Z</Time>
            <Position>
              <LatitudeDegrees>43.30950633622705936431884765625</LatitudeDegrees>
              <LongitudeDegrees>-2.22246254794299602508544921875</LongitudeDegrees>
            </Position>
            <AltitudeMeters>61</AltitudeMeters>
            <DistanceMeters>NAN</DistanceMeters>
          </Trackpoint>
          <Trackpoint>
            <Time>2022-07-10T11:14:42.000Z</Time>
            <Position>
              <LatitudeDegrees>43.3095536939799785614013671875</LatitudeDegrees>
              <LongitudeDegrees>-2.222517617046833038330078125</LongitudeDegrees>
            </Position>
            <AltitudeMeters>61.200000762939453125</AltitudeMeters>
            <DistanceMeters>NAN</DistanceMeters>
          </Trackpoint>
          <Trackpoint>
            <Time>2022-07-10T11:14:45.000Z</Time>
            <Position>
              <LatitudeDegrees>43.30958261154592037200927734375</LatitudeDegrees>
              <LongitudeDegrees>-2.222593389451503753662109375</LongitudeDegrees>
            </Position>
            <AltitudeMeters>61.40000152587890625</AltitudeMeters>
            <DistanceMeters>NAN</DistanceMeters>
          </Trackpoint>
          <Trackpoint>
            <Time>2022-07-10T11:14:55.000Z</Time>
            <Position>
              <LatitudeDegrees>43.30966584384441375732421875</LatitudeDegrees>
              <LongitudeDegrees>-2.2228299267590045928955078125</LongitudeDegrees>
            </Position>
            <AltitudeMeters>62</AltitudeMeters>
            <DistanceMeters>NAN</DistanceMeters>
          </Trackpoint>
          <Trackpoint>
            <Time>2022-07-10T11:14:57.000Z</Time>
            <Position>
              <LatitudeDegrees>43.309693001210689544677734375</LatitudeDegrees>
              <LongitudeDegrees>-2.2229130752384662628173828125</LongitudeDegrees>
            </Position>
            <AltitudeMeters>62.200000762939453125</AltitudeMeters>
            <DistanceMeters>NAN</DistanceMeters>
          </Trackpoint>
          <Trackpoint>
            <Time>2022-07-10T11:15:04.000Z</Time>
            <Position>
              <LatitudeDegrees>43.30975192598998546600341796875</LatitudeDegrees>
              <LongitudeDegrees>-2.2230998240411281585693359375</LongitudeDegrees>
            </Position>
            <AltitudeMeters>62.799999237060546875</AltitudeMeters>
            <DistanceMeters>NAN</DistanceMeters>
          </Trackpoint>
          <Trackpoint>
            <Time>2022-07-10T11:15:12.000Z</Time>
            <Position>
              <LatitudeDegrees>43.30977891571819782257080078125</LatitudeDegrees>
              <LongitudeDegrees>-2.22329051233828067779541015625</LongitudeDegrees>
            </Position>
            <AltitudeMeters>63.200000762939453125</AltitudeMeters>
            <DistanceMeters>NAN</DistanceMeters>
          </Trackpoint>
          <Trackpoint>
            <Time>2022-07-10T11:15:14.000Z</Time>
            <Position>
              <LatitudeDegrees>43.3097873814404010772705078125</LatitudeDegrees>
              <LongitudeDegrees>-2.22337424755096435546875</LongitudeDegrees>
            </Position>
            <AltitudeMeters>63.40000152587890625</AltitudeMeters>
            <DistanceMeters>NAN</DistanceMeters>
          </Trackpoint>
          <Trackpoint>
            <Time>2022-07-10T11:15:22.000Z</Time>
            <Position>
              <LatitudeDegrees>43.3097670972347259521484375</LatitudeDegrees>
              <LongitudeDegrees>-2.2235836274921894073486328125</LongitudeDegrees>
            </Position>
            <AltitudeMeters>63.59999847412109375</AltitudeMeters>
            <DistanceMeters>NAN</DistanceMeters>
          </Trackpoint>
          <Trackpoint>
            <Time>2022-07-10T11:15:23.000Z</Time>
            <Position>
              <LatitudeDegrees>43.30976315774023532867431640625</LatitudeDegrees>
              <LongitudeDegrees>-2.22364045679569244384765625</LongitudeDegrees>
            </Position>
            <AltitudeMeters>63.59999847412109375</AltitudeMeters>
            <DistanceMeters>NAN</DistanceMeters>
          </Trackpoint>
          <Trackpoint>
            <Time>2022-07-10T11:15:29.000Z</Time>
            <Position>
              <LatitudeDegrees>43.30974170006811618804931640625</LatitudeDegrees>
              <LongitudeDegrees>-2.22382242791354656219482421875</LongitudeDegrees>
            </Position>
            <AltitudeMeters>63.59999847412109375</AltitudeMeters>
            <DistanceMeters>NAN</DistanceMeters>
          </Trackpoint>
          <Trackpoint>
            <Time>2022-07-10T11:15:38.000Z</Time>
            <Position>
              <LatitudeDegrees>43.30972007475793361663818359375</LatitudeDegrees>
              <LongitudeDegrees>-2.224104143679141998291015625</LongitudeDegrees>
            </Position>
            <AltitudeMeters>64</AltitudeMeters>
            <DistanceMeters>NAN</DistanceMeters>
          </Trackpoint>
          <Trackpoint>
            <Time>2022-07-10T11:15:41.000Z</Time>
            <Position>
              <LatitudeDegrees>43.3097159676253795623779296875</LatitudeDegrees>
              <LongitudeDegrees>-2.22419056110084056854248046875</LongitudeDegrees>
            </Position>
            <AltitudeMeters>64.1999969482421875</AltitudeMeters>
            <DistanceMeters>NAN</DistanceMeters>
          </Trackpoint>
          <Trackpoint>
            <Time>2022-07-10T11:15:47.000Z</Time>
            <Position>
              <LatitudeDegrees>43.3097253553569316864013671875</LatitudeDegrees>
              <LongitudeDegrees>-2.224357612431049346923828125</LongitudeDegrees>
            </Position>
            <AltitudeMeters>64.59999847412109375</AltitudeMeters>
            <DistanceMeters>NAN</DistanceMeters>
          </Trackpoint>
          <Trackpoint>
            <Time>2022-07-10T11:15:57.000Z</Time>
            <Position>
              <LatitudeDegrees>43.30973817966878414154052734375</LatitudeDegrees>
              <LongitudeDegrees>-2.2246348857879638671875</LongitudeDegrees>
            </Position>
            <AltitudeMeters>65.1999969482421875</AltitudeMeters>
            <DistanceMeters>NAN</DistanceMeters>
          </Trackpoint>
          <Trackpoint>
            <Time>2022-07-10T11:16:01.000Z</Time>
            <Position>
              <LatitudeDegrees>43.30974991433322429656982421875</LatitudeDegrees>
              <LongitudeDegrees>-2.224714346230030059814453125</LongitudeDegrees>
            </Position>
            <AltitudeMeters>65.40000152587890625</AltitudeMeters>
            <DistanceMeters>NAN</DistanceMeters>
          </Trackpoint>
          <Trackpoint>
            <Time>2022-07-10T11:16:03.000Z</Time>
            <Position>
              <LatitudeDegrees>43.309772126376628875732421875</LatitudeDegrees>
              <LongitudeDegrees>-2.22479422576725482940673828125</LongitudeDegrees>
            </Position>
            <AltitudeMeters>65.8000030517578125</AltitudeMeters>
            <DistanceMeters>NAN</DistanceMeters>
          </Trackpoint>
          <Trackpoint>
            <Time>2022-07-10T11:16:05.000Z</Time>
            <Position>
              <LatitudeDegrees>43.30978495068848133087158203125</LatitudeDegrees>
              <LongitudeDegrees>-2.22484149970114231109619140625</LongitudeDegrees>
            </Position>
            <AltitudeMeters>65.8000030517578125</AltitudeMeters>
            <DistanceMeters>NAN</DistanceMeters>
          </Trackpoint>
          <Trackpoint>
            <Time>2022-07-10T11:16:11.000Z</Time>
            <Position>
              <LatitudeDegrees>43.3098205737769603729248046875</LatitudeDegrees>
              <LongitudeDegrees>-2.22499052993953227996826171875</LongitudeDegrees>
            </Position>
            <AltitudeMeters>66.40000152587890625</AltitudeMeters>
            <DistanceMeters>NAN</DistanceMeters>
          </Trackpoint>
          <Trackpoint>
            <Time>2022-07-10T11:16:15.000Z</Time>
            <Position>
              <LatitudeDegrees>43.309849239885807037353515625</LatitudeDegrees>
              <LongitudeDegrees>-2.2251091338694095611572265625</LongitudeDegrees>
            </Position>
            <AltitudeMeters>66.59999847412109375</AltitudeMeters>
            <DistanceMeters>NAN</DistanceMeters>
          </Trackpoint>
          <Trackpoint>
            <Time>2022-07-10T11:16:22.000Z</Time>
            <Position>
              <LatitudeDegrees>43.30993079580366611480712890625</LatitudeDegrees>
              <LongitudeDegrees>-2.22537626512348651885986328125</LongitudeDegrees>
            </Position>
            <AltitudeMeters>66.40000152587890625</AltitudeMeters>
            <DistanceMeters>NAN</DistanceMeters>
          </Trackpoint>
          <Trackpoint>
            <Time>2022-07-10T11:16:23.000Z</Time>
            <Position>
              <LatitudeDegrees>43.30993079580366611480712890625</LatitudeDegrees>
              <LongitudeDegrees>-2.22537626512348651885986328125</LongitudeDegrees>
            </Position>
            <AltitudeMeters>66.40000152587890625</AltitudeMeters>
            <DistanceMeters>NAN</DistanceMeters>
          </Trackpoint>
          <Trackpoint>
            <Time>2022-07-10T11:16:29.000Z</Time>
            <Position>
              <LatitudeDegrees>43.31005568616092205047607421875</LatitudeDegrees>
              <LongitudeDegrees>-2.22580458037555217742919921875</LongitudeDegrees>
            </Position>
            <AltitudeMeters>65.8000030517578125</AltitudeMeters>
            <DistanceMeters>NAN</DistanceMeters>
          </Trackpoint>
          <Trackpoint>
            <Time>2022-07-10T11:16:34.000Z</Time>
            <Position>
              <LatitudeDegrees>43.310165740549564361572265625</LatitudeDegrees>
              <LongitudeDegrees>-2.22618830390274524688720703125</LongitudeDegrees>
            </Position>
            <AltitudeMeters>65.1999969482421875</AltitudeMeters>
            <DistanceMeters>NAN</DistanceMeters>
          </Trackpoint>
          <Trackpoint>
            <Time>2022-07-10T11:16:36.000Z</Time>
            <Position>
              <LatitudeDegrees>43.31020991317927837371826171875</LatitudeDegrees>
              <LongitudeDegrees>-2.226359210908412933349609375</LongitudeDegrees>
            </Position>
            <AltitudeMeters>64.8000030517578125</AltitudeMeters>
            <DistanceMeters>NAN</DistanceMeters>
          </Trackpoint>
          <Trackpoint>
            <Time>2022-07-10T11:16:38.000Z</Time>
            <Position>
              <LatitudeDegrees>43.3102269284427165985107421875</LatitudeDegrees>
              <LongitudeDegrees>-2.2264519147574901580810546875</LongitudeDegrees>
            </Position>
            <AltitudeMeters>64.1999969482421875</AltitudeMeters>
            <DistanceMeters>NAN</DistanceMeters>
          </Trackpoint>
          <Trackpoint>
            <Time>2022-07-10T11:16:39.000Z</Time>
            <Position>
              <LatitudeDegrees>43.31025592982769012451171875</LatitudeDegrees>
              <LongitudeDegrees>-2.22664059139788150787353515625</LongitudeDegrees>
            </Position>
            <AltitudeMeters>63.799999237060546875</AltitudeMeters>
            <DistanceMeters>NAN</DistanceMeters>
          </Trackpoint>
          <Trackpoint>
            <Time>2022-07-10T11:16:42.000Z</Time>
            <Position>
              <LatitudeDegrees>43.31027361564338207244873046875</LatitudeDegrees>
              <LongitudeDegrees>-2.22692876122891902923583984375</LongitudeDegrees>
            </Position>
            <AltitudeMeters>63</AltitudeMeters>
            <DistanceMeters>NAN</DistanceMeters>
          </Trackpoint>
          <Trackpoint>
            <Time>2022-07-10T11:16:45.000Z</Time>
            <Position>
              <LatitudeDegrees>43.31030395813286304473876953125</LatitudeDegrees>
              <LongitudeDegrees>-2.2272406518459320068359375</LongitudeDegrees>
            </Position>
            <AltitudeMeters>62</AltitudeMeters>
            <DistanceMeters>NAN</DistanceMeters>
          </Trackpoint>
          <Trackpoint>
            <Time>2022-07-10T11:16:50.000Z</Time>
            <Position>
              <LatitudeDegrees>43.31033647991716861724853515625</LatitudeDegrees>
              <LongitudeDegrees>-2.2277249582111835479736328125</LongitudeDegrees>
            </Position>
            <AltitudeMeters>61</AltitudeMeters>
            <DistanceMeters>NAN</DistanceMeters>
          </Trackpoint>
          <Trackpoint>
            <Time>2022-07-10T11:16:51.000Z</Time>
            <Position>
              <LatitudeDegrees>43.31034553237259387969970703125</LatitudeDegrees>
              <LongitudeDegrees>-2.22781891934573650360107421875</LongitudeDegrees>
            </Position>
            <AltitudeMeters>61</AltitudeMeters>
            <DistanceMeters>NAN</DistanceMeters>
          </Trackpoint>
          <Trackpoint>
            <Time>2022-07-10T11:16:52.000Z</Time>
            <Position>
              <LatitudeDegrees>43.31035626120865345001220703125</LatitudeDegrees>
              <LongitudeDegrees>-2.22791078500449657440185546875</LongitudeDegrees>
            </Position>
            <AltitudeMeters>60.59999847412109375</AltitudeMeters>
            <DistanceMeters>NAN</DistanceMeters>
          </Trackpoint>
          <Trackpoint>
            <Time>2022-07-10T11:16:54.000Z</Time>
            <Position>
              <LatitudeDegrees>43.31036464311182498931884765625</LatitudeDegrees>
              <LongitudeDegrees>-2.228099294006824493408203125</LongitudeDegrees>
            </Position>
            <AltitudeMeters>60</AltitudeMeters>
            <DistanceMeters>NAN</DistanceMeters>
          </Trackpoint>
          <Trackpoint>
            <Time>2022-07-10T11:16:56.000Z</Time>
            <Position>
              <LatitudeDegrees>43.31035651266574859619140625</LatitudeDegrees>
              <LongitudeDegrees>-2.2282171435654163360595703125</LongitudeDegrees>
            </Position>
            <AltitudeMeters>59.59999847412109375</AltitudeMeters>
            <DistanceMeters>NAN</DistanceMeters>
          </Trackpoint>
          <Trackpoint>
            <Time>2022-07-10T11:16:57.000Z</Time>
            <Position>
              <LatitudeDegrees>43.31034444272518157958984375</LatitudeDegrees>
              <LongitudeDegrees>-2.22829299978911876678466796875</LongitudeDegrees>
            </Position>
            <AltitudeMeters>59.40000152587890625</AltitudeMeters>
            <DistanceMeters>NAN</DistanceMeters>
          </Trackpoint>
          <Trackpoint>
            <Time>2022-07-10T11:16:58.000Z</Time>
            <Position>
              <LatitudeDegrees>43.3102983422577381134033203125</LatitudeDegrees>
              <LongitudeDegrees>-2.22850925289094448089599609375</LongitudeDegrees>
            </Position>
            <AltitudeMeters>59</AltitudeMeters>
            <DistanceMeters>NAN</DistanceMeters>
          </Trackpoint>
          <Trackpoint>
            <Time>2022-07-10T11:17:00.000Z</Time>
            <Position>
              <LatitudeDegrees>43.31027059815824031829833984375</LatitudeDegrees>
              <LongitudeDegrees>-2.22859047353267669677734375</LongitudeDegrees>
            </Position>
            <AltitudeMeters>58.40000152587890625</AltitudeMeters>
            <DistanceMeters>NAN</DistanceMeters>
          </Trackpoint>
          <Trackpoint>
            <Time>2022-07-10T11:17:01.000Z</Time>
            <Position>
              <LatitudeDegrees>43.31023623235523700714111328125</LatitudeDegrees>
              <LongitudeDegrees>-2.22868812270462512969970703125</LongitudeDegrees>
            </Position>
            <AltitudeMeters>58</AltitudeMeters>
            <DistanceMeters>NAN</DistanceMeters>
          </Trackpoint>
          <Trackpoint>
            <Time>2022-07-10T11:17:02.000Z</Time>
            <Position>
              <LatitudeDegrees>43.31015727482736110687255859375</LatitudeDegrees>
              <LongitudeDegrees>-2.22887554205954074859619140625</LongitudeDegrees>
            </Position>
            <AltitudeMeters>57.59999847412109375</AltitudeMeters>
            <DistanceMeters>NAN</DistanceMeters>
          </Trackpoint>
          <Trackpoint>
            <Time>2022-07-10T11:17:03.000Z</Time>
            <Position>
              <LatitudeDegrees>43.31015727482736110687255859375</LatitudeDegrees>
              <LongitudeDegrees>-2.22887554205954074859619140625</LongitudeDegrees>
            </Position>
            <AltitudeMeters>57.40000152587890625</AltitudeMeters>
            <DistanceMeters>NAN</DistanceMeters>
          </Trackpoint>
          <Trackpoint>
            <Time>2022-07-10T11:17:05.000Z</Time>
            <Position>
              <LatitudeDegrees>43.31002819351851940155029296875</LatitudeDegrees>
              <LongitudeDegrees>-2.2291569225490093231201171875</LongitudeDegrees>
            </Position>
            <AltitudeMeters>56.799999237060546875</AltitudeMeters>
            <DistanceMeters>NAN</DistanceMeters>
          </Trackpoint>
          <Trackpoint>
            <Time>2022-07-10T11:17:06.000Z</Time>
            <Position>
              <LatitudeDegrees>43.30999282188713550567626953125</LatitudeDegrees>
              <LongitudeDegrees>-2.22925574518740177154541015625</LongitudeDegrees>
            </Position>
            <AltitudeMeters>56.200000762939453125</AltitudeMeters>
            <DistanceMeters>NAN</DistanceMeters>
          </Trackpoint>
          <Trackpoint>
            <Time>2022-07-10T11:17:09.000Z</Time>
            <Position>
              <LatitudeDegrees>43.3099181391298770904541015625</LatitudeDegrees>
              <LongitudeDegrees>-2.22956738434731960296630859375</LongitudeDegrees>
            </Position>
            <AltitudeMeters>55.40000152587890625</AltitudeMeters>
            <DistanceMeters>NAN</DistanceMeters>
          </Trackpoint>
          <Trackpoint>
            <Time>2022-07-10T11:17:10.000Z</Time>
            <Position>
              <LatitudeDegrees>43.30990053713321685791015625</LatitudeDegrees>
              <LongitudeDegrees>-2.2296715714037418365478515625</LongitudeDegrees>
            </Position>
            <AltitudeMeters>55</AltitudeMeters>
            <DistanceMeters>NAN</DistanceMeters>
          </Trackpoint>
          <Trackpoint>
            <Time>2022-07-10T11:17:16.000Z</Time>
            <Position>
              <LatitudeDegrees>43.30978997983038425445556640625</LatitudeDegrees>
              <LongitudeDegrees>-2.2302717156708240509033203125</LongitudeDegrees>
            </Position>
            <AltitudeMeters>54.40000152587890625</AltitudeMeters>
            <DistanceMeters>NAN</DistanceMeters>
          </Trackpoint>
          <Trackpoint>
            <Time>2022-07-10T11:17:18.000Z</Time>
            <Position>
              <LatitudeDegrees>43.30977824516594409942626953125</LatitudeDegrees>
              <LongitudeDegrees>-2.23034388385713100433349609375</LongitudeDegrees>
            </Position>
            <AltitudeMeters>54</AltitudeMeters>
            <DistanceMeters>NAN</DistanceMeters>
          </Trackpoint>
          <Trackpoint>
            <Time>2022-07-10T11:17:24.000Z</Time>
            <Position>
              <LatitudeDegrees>43.3096150495111942291259765625</LatitudeDegrees>
              <LongitudeDegrees>-2.23093338310718536376953125</LongitudeDegrees>
            </Position>
            <AltitudeMeters>53.799999237060546875</AltitudeMeters>
            <DistanceMeters>NAN</DistanceMeters>
          </Trackpoint>
          <Trackpoint>
            <Time>2022-07-10T11:17:29.000Z</Time>
            <Position>
              <LatitudeDegrees>43.309494517743587493896484375</LatitudeDegrees>
              <LongitudeDegrees>-2.23123605363070964813232421875</LongitudeDegrees>
            </Position>
            <AltitudeMeters>53.40000152587890625</AltitudeMeters>
            <DistanceMeters>NAN</DistanceMeters>
          </Trackpoint>
          <Trackpoint>
            <Time>2022-07-10T11:17:30.000Z</Time>
            <Position>
              <LatitudeDegrees>43.30942201428115367889404296875</LatitudeDegrees>
              <LongitudeDegrees>-2.23139212466776371002197265625</LongitudeDegrees>
            </Position>
            <AltitudeMeters>53.200000762939453125</AltitudeMeters>
            <DistanceMeters>NAN</DistanceMeters>
          </Trackpoint>
          <Trackpoint>
            <Time>2022-07-10T11:17:32.000Z</Time>
            <Position>
              <LatitudeDegrees>43.3093538694083690643310546875</LatitudeDegrees>
              <LongitudeDegrees>-2.2315330244600772857666015625</LongitudeDegrees>
            </Position>
            <AltitudeMeters>53</AltitudeMeters>
            <DistanceMeters>NAN</DistanceMeters>
          </Trackpoint>
          <Trackpoint>
            <Time>2022-07-10T11:17:33.000Z</Time>
            <Position>
              <LatitudeDegrees>43.30931925214827060699462890625</LatitudeDegrees>
              <LongitudeDegrees>-2.231604941189289093017578125</LongitudeDegrees>
            </Position>
            <AltitudeMeters>52.799999237060546875</AltitudeMeters>
            <DistanceMeters>NAN</DistanceMeters>
          </Trackpoint>
          <Trackpoint>
            <Time>2022-07-10T11:17:40.000Z</Time>
            <Position>
              <LatitudeDegrees>43.309112973511219024658203125</LatitudeDegrees>
              <LongitudeDegrees>-2.23203518427908420562744140625</LongitudeDegrees>
            </Position>
            <AltitudeMeters>51.799999237060546875</AltitudeMeters>
            <DistanceMeters>NAN</DistanceMeters>
          </Trackpoint>
          <Trackpoint>
            <Time>2022-07-10T11:17:45.000Z</Time>
            <Position>
              <LatitudeDegrees>43.30891842953860759735107421875</LatitudeDegrees>
              <LongitudeDegrees>-2.23248311318457126617431640625</LongitudeDegrees>
            </Position>
            <AltitudeMeters>51.40000152587890625</AltitudeMeters>
            <DistanceMeters>NAN</DistanceMeters>
          </Trackpoint>
          <Trackpoint>
            <Time>2022-07-10T11:17:54.000Z</Time>
            <Position>
              <LatitudeDegrees>43.30869563855230808258056640625</LatitudeDegrees>
              <LongitudeDegrees>-2.233093567192554473876953125</LongitudeDegrees>
            </Position>
            <AltitudeMeters>51.200000762939453125</AltitudeMeters>
            <DistanceMeters>NAN</DistanceMeters>
          </Trackpoint>
          <Trackpoint>
            <Time>2022-07-10T11:17:59.000Z</Time>
            <Position>
              <LatitudeDegrees>43.30855431966483592987060546875</LatitudeDegrees>
              <LongitudeDegrees>-2.2335612773895263671875</LongitudeDegrees>
            </Position>
            <AltitudeMeters>50.799999237060546875</AltitudeMeters>
            <DistanceMeters>NAN</DistanceMeters>
          </Trackpoint>
          <Trackpoint>
            <Time>2022-07-10T11:18:03.000Z</Time>
            <Position>
              <LatitudeDegrees>43.3084858395159244537353515625</LatitudeDegrees>
              <LongitudeDegrees>-2.23387685604393482208251953125</LongitudeDegrees>
            </Position>
            <AltitudeMeters>50.799999237060546875</AltitudeMeters>
            <DistanceMeters>NAN</DistanceMeters>
          </Trackpoint>
          <Trackpoint>
            <Time>2022-07-10T11:18:06.000Z</Time>
            <Position>
              <LatitudeDegrees>43.30845214426517486572265625</LatitudeDegrees>
              <LongitudeDegrees>-2.23402957431972026824951171875</LongitudeDegrees>
            </Position>
            <AltitudeMeters>50.799999237060546875</AltitudeMeters>
            <DistanceMeters>NAN</DistanceMeters>
          </Trackpoint>
          <Trackpoint>
            <Time>2022-07-10T11:18:12.000Z</Time>
            <Position>
              <LatitudeDegrees>43.3083654753863811492919921875</LatitudeDegrees>
              <LongitudeDegrees>-2.23458076827228069305419921875</LongitudeDegrees>
            </Position>
            <AltitudeMeters>50.59999847412109375</AltitudeMeters>
            <DistanceMeters>NAN</DistanceMeters>
          </Trackpoint>
          <Trackpoint>
            <Time>2022-07-10T11:18:19.000Z</Time>
            <Position>
              <LatitudeDegrees>43.308327086269855499267578125</LatitudeDegrees>
              <LongitudeDegrees>-2.23503389395773410797119140625</LongitudeDegrees>
            </Position>
            <AltitudeMeters>50.40000152587890625</AltitudeMeters>
            <DistanceMeters>NAN</DistanceMeters>
          </Trackpoint>
          <Trackpoint>
            <Time>2022-07-10T11:18:21.000Z</Time>
            <Position>
              <LatitudeDegrees>43.308308981359004974365234375</LatitudeDegrees>
              <LongitudeDegrees>-2.23525031469762325286865234375</LongitudeDegrees>
            </Position>
            <AltitudeMeters>50.40000152587890625</AltitudeMeters>
            <DistanceMeters>NAN</DistanceMeters>
          </Trackpoint>
          <Trackpoint>
            <Time>2022-07-10T11:18:22.000Z</Time>
            <Position>
              <LatitudeDegrees>43.30830068327486515045166015625</LatitudeDegrees>
              <LongitudeDegrees>-2.23531854338943958282470703125</LongitudeDegrees>
            </Position>
            <AltitudeMeters>50.40000152587890625</AltitudeMeters>
            <DistanceMeters>NAN</DistanceMeters>
          </Trackpoint>
          <Trackpoint>
            <Time>2022-07-10T11:18:29.000Z</Time>
            <Position>
              <LatitudeDegrees>43.308258689939975738525390625</LatitudeDegrees>
              <LongitudeDegrees>-2.23573612980544567108154296875</LongitudeDegrees>
            </Position>
            <AltitudeMeters>50.200000762939453125</AltitudeMeters>
            <DistanceMeters>NAN</DistanceMeters>
          </Trackpoint>
          <Trackpoint>
            <Time>2022-07-10T11:18:31.000Z</Time>
            <Position>
              <LatitudeDegrees>43.308232538402080535888671875</LatitudeDegrees>
              <LongitudeDegrees>-2.235975600779056549072265625</LongitudeDegrees>
            </Position>
            <AltitudeMeters>50</AltitudeMeters>
            <DistanceMeters>NAN</DistanceMeters>
          </Trackpoint>
          <Trackpoint>
            <Time>2022-07-10T11:18:39.000Z</Time>
            <Position>
              <LatitudeDegrees>43.30827235244214534759521484375</LatitudeDegrees>
              <LongitudeDegrees>-2.23656468093395233154296875</LongitudeDegrees>
            </Position>
            <AltitudeMeters>50</AltitudeMeters>
            <DistanceMeters>NAN</DistanceMeters>
          </Trackpoint>
          <Trackpoint>
            <Time>2022-07-10T11:18:40.000Z</Time>
            <Position>
              <LatitudeDegrees>43.3082843385636806488037109375</LatitudeDegrees>
              <LongitudeDegrees>-2.23663098178803920745849609375</LongitudeDegrees>
            </Position>
            <AltitudeMeters>49.799999237060546875</AltitudeMeters>
            <DistanceMeters>NAN</DistanceMeters>
          </Trackpoint>
          <Trackpoint>
            <Time>2022-07-10T11:18:45.000Z</Time>
            <Position>
              <LatitudeDegrees>43.30831510014832019805908203125</LatitudeDegrees>
              <LongitudeDegrees>-2.23690356127917766571044921875</LongitudeDegrees>
            </Position>
            <AltitudeMeters>49.59999847412109375</AltitudeMeters>
            <DistanceMeters>NAN</DistanceMeters>
          </Trackpoint>
          <Trackpoint>
            <Time>2022-07-10T11:18:46.000Z</Time>
            <Position>
              <LatitudeDegrees>43.3083212189376354217529296875</LatitudeDegrees>
              <LongitudeDegrees>-2.23704571835696697235107421875</LongitudeDegrees>
            </Position>
            <AltitudeMeters>49.59999847412109375</AltitudeMeters>
            <DistanceMeters>NAN</DistanceMeters>
          </Trackpoint>
          <Trackpoint>
            <Time>2022-07-10T11:18:47.000Z</Time>
            <Position>
              <LatitudeDegrees>43.3083212189376354217529296875</LatitudeDegrees>
              <LongitudeDegrees>-2.237120568752288818359375</LongitudeDegrees>
            </Position>
            <AltitudeMeters>49.59999847412109375</AltitudeMeters>
            <DistanceMeters>NAN</DistanceMeters>
          </Trackpoint>
          <Trackpoint>
            <Time>2022-07-10T11:18:48.000Z</Time>
            <Position>
              <LatitudeDegrees>43.30831937491893768310546875</LatitudeDegrees>
              <LongitudeDegrees>-2.23718888126313686370849609375</LongitudeDegrees>
            </Position>
            <AltitudeMeters>49.59999847412109375</AltitudeMeters>
            <DistanceMeters>NAN</DistanceMeters>
          </Trackpoint>
          <Trackpoint>
            <Time>2022-07-10T11:18:50.000Z</Time>
            <Position>
              <LatitudeDegrees>43.3083081431686878204345703125</LatitudeDegrees>
              <LongitudeDegrees>-2.237313687801361083984375</LongitudeDegrees>
            </Position>
            <AltitudeMeters>49.59999847412109375</AltitudeMeters>
            <DistanceMeters>NAN</DistanceMeters>
          </Trackpoint>
          <Trackpoint>
            <Time>2022-07-10T11:18:55.000Z</Time>
            <Position>
              <LatitudeDegrees>43.30825944431126117706298828125</LatitudeDegrees>
              <LongitudeDegrees>-2.237661369144916534423828125</LongitudeDegrees>
            </Position>
            <AltitudeMeters>49.200000762939453125</AltitudeMeters>
            <DistanceMeters>NAN</DistanceMeters>
          </Trackpoint>
          <Trackpoint>
            <Time>2022-07-10T11:19:00.000Z</Time>
            <Position>
              <LatitudeDegrees>43.3081631362438201904296875</LatitudeDegrees>
              <LongitudeDegrees>-2.2379461862146854400634765625</LongitudeDegrees>
            </Position>
            <AltitudeMeters>48.799999237060546875</AltitudeMeters>
            <DistanceMeters>NAN</DistanceMeters>
          </Trackpoint>
          <Trackpoint>
            <Time>2022-07-10T11:19:02.000Z</Time>
            <Position>
              <LatitudeDegrees>43.30811963416635990142822265625</LatitudeDegrees>
              <LongitudeDegrees>-2.23805171437561511993408203125</LongitudeDegrees>
            </Position>
            <AltitudeMeters>48.799999237060546875</AltitudeMeters>
            <DistanceMeters>NAN</DistanceMeters>
          </Trackpoint>
          <Trackpoint>
            <Time>2022-07-10T11:19:03.000Z</Time>
            <Position>
              <LatitudeDegrees>43.30811963416635990142822265625</LatitudeDegrees>
              <LongitudeDegrees>-2.23805171437561511993408203125</LongitudeDegrees>
            </Position>
            <AltitudeMeters>48.59999847412109375</AltitudeMeters>
            <DistanceMeters>NAN</DistanceMeters>
          </Trackpoint>
          <Trackpoint>
            <Time>2022-07-10T11:19:12.000Z</Time>
            <Position>
              <LatitudeDegrees>43.30784185789525508880615234375</LatitudeDegrees>
              <LongitudeDegrees>-2.2385899163782596588134765625</LongitudeDegrees>
            </Position>
            <AltitudeMeters>48</AltitudeMeters>
            <DistanceMeters>NAN</DistanceMeters>
          </Trackpoint>
          <Trackpoint>
            <Time>2022-07-10T11:19:16.000Z</Time>
            <Position>
              <LatitudeDegrees>43.307767845690250396728515625</LatitudeDegrees>
              <LongitudeDegrees>-2.2387595660984516143798828125</LongitudeDegrees>
            </Position>
            <AltitudeMeters>47.799999237060546875</AltitudeMeters>
            <DistanceMeters>NAN</DistanceMeters>
          </Trackpoint>
          <Trackpoint>
            <Time>2022-07-10T11:19:19.000Z</Time>
            <Position>
              <LatitudeDegrees>43.30764538608491420745849609375</LatitudeDegrees>
              <LongitudeDegrees>-2.2389520145952701568603515625</LongitudeDegrees>
            </Position>
            <AltitudeMeters>47.59999847412109375</AltitudeMeters>
            <DistanceMeters>NAN</DistanceMeters>
          </Trackpoint>
          <Trackpoint>
            <Time>2022-07-10T11:19:22.000Z</Time>
            <Position>
              <LatitudeDegrees>43.3075567893683910369873046875</LatitudeDegrees>
              <LongitudeDegrees>-2.239078581333160400390625</LongitudeDegrees>
            </Position>
            <AltitudeMeters>47.59999847412109375</AltitudeMeters>
            <DistanceMeters>NAN</DistanceMeters>
          </Trackpoint>
          <Trackpoint>
            <Time>2022-07-10T11:19:24.000Z</Time>
            <Position>
              <LatitudeDegrees>43.307478837668895721435546875</LatitudeDegrees>
              <LongitudeDegrees>-2.23915007896721363067626953125</LongitudeDegrees>
            </Position>
            <AltitudeMeters>47.59999847412109375</AltitudeMeters>
            <DistanceMeters>NAN</DistanceMeters>
          </Trackpoint>
          <Trackpoint>
            <Time>2022-07-10T11:19:26.000Z</Time>
            <Position>
              <LatitudeDegrees>43.30738118849694728851318359375</LatitudeDegrees>
              <LongitudeDegrees>-2.2392061538994312286376953125</LongitudeDegrees>
            </Position>
            <AltitudeMeters>47.59999847412109375</AltitudeMeters>
            <DistanceMeters>NAN</DistanceMeters>
          </Trackpoint>
          <Trackpoint>
            <Time>2022-07-10T11:19:27.000Z</Time>
            <Position>
              <LatitudeDegrees>43.30733374692499637603759765625</LatitudeDegrees>
              <LongitudeDegrees>-2.23922350443899631500244140625</LongitudeDegrees>
            </Position>
            <AltitudeMeters>47.40000152587890625</AltitudeMeters>
            <DistanceMeters>NAN</DistanceMeters>
          </Trackpoint>
          <Trackpoint>
            <Time>2022-07-10T11:19:34.000Z</Time>
            <Position>
              <LatitudeDegrees>43.30702344886958599090576171875</LatitudeDegrees>
              <LongitudeDegrees>-2.2392467223107814788818359375</LongitudeDegrees>
            </Position>
            <AltitudeMeters>47</AltitudeMeters>
            <DistanceMeters>NAN</DistanceMeters>
          </Trackpoint>
          <Trackpoint>
            <Time>2022-07-10T11:19:41.000Z</Time>
            <Position>
              <LatitudeDegrees>43.306633941829204559326171875</LatitudeDegrees>
              <LongitudeDegrees>-2.23914605565369129180908203125</LongitudeDegrees>
            </Position>
            <AltitudeMeters>46.59999847412109375</AltitudeMeters>
            <DistanceMeters>NAN</DistanceMeters>
          </Trackpoint>
          <Trackpoint>
            <Time>2022-07-10T11:19:48.000Z</Time>
            <Position>
              <LatitudeDegrees>43.30623420886695384979248046875</LatitudeDegrees>
              <LongitudeDegrees>-2.23906181752681732177734375</LongitudeDegrees>
            </Position>
            <AltitudeMeters>46.200000762939453125</AltitudeMeters>
            <DistanceMeters>NAN</DistanceMeters>
          </Trackpoint>
          <Trackpoint>
            <Time>2022-07-10T11:19:51.000Z</Time>
            <Position>
              <LatitudeDegrees>43.306084759533405303955078125</LatitudeDegrees>
              <LongitudeDegrees>-2.2390405274927616119384765625</LongitudeDegrees>
            </Position>
            <AltitudeMeters>46</AltitudeMeters>
            <DistanceMeters>NAN</DistanceMeters>
          </Trackpoint>
          <Trackpoint>
            <Time>2022-07-10T11:20:02.000Z</Time>
            <Position>
              <LatitudeDegrees>43.3055390976369380950927734375</LatitudeDegrees>
              <LongitudeDegrees>-2.238933742046356201171875</LongitudeDegrees>
            </Position>
            <AltitudeMeters>46.200000762939453125</AltitudeMeters>
            <DistanceMeters>NAN</DistanceMeters>
          </Trackpoint>
          <Trackpoint>
            <Time>2022-07-10T11:20:08.000Z</Time>
            <Position>
              <LatitudeDegrees>43.3051639236509799957275390625</LatitudeDegrees>
              <LongitudeDegrees>-2.23887414671480655670166015625</LongitudeDegrees>
            </Position>
            <AltitudeMeters>45.59999847412109375</AltitudeMeters>
            <DistanceMeters>NAN</DistanceMeters>
          </Trackpoint>
          <Trackpoint>
            <Time>2022-07-10T11:20:11.000Z</Time>
            <Position>
              <LatitudeDegrees>43.30501330085098743438720703125</LatitudeDegrees>
              <LongitudeDegrees>-2.23883827216923236846923828125</LongitudeDegrees>
            </Position>
            <AltitudeMeters>45.40000152587890625</AltitudeMeters>
            <DistanceMeters>NAN</DistanceMeters>
          </Trackpoint>
          <Trackpoint>
            <Time>2022-07-10T11:20:13.000Z</Time>
            <Position>
              <LatitudeDegrees>43.30490819178521633148193359375</LatitudeDegrees>
              <LongitudeDegrees>-2.2388319857418537139892578125</LongitudeDegrees>
            </Position>
            <AltitudeMeters>45.40000152587890625</AltitudeMeters>
            <DistanceMeters>NAN</DistanceMeters>
          </Trackpoint>
          <Trackpoint>
            <Time>2022-07-10T11:20:14.000Z</Time>
            <Position>
              <LatitudeDegrees>43.3048521168529987335205078125</LatitudeDegrees>
              <LongitudeDegrees>-2.2388363443315029144287109375</LongitudeDegrees>
            </Position>
            <AltitudeMeters>45.200000762939453125</AltitudeMeters>
            <DistanceMeters>NAN</DistanceMeters>
          </Trackpoint>
          <Trackpoint>
            <Time>2022-07-10T11:20:17.000Z</Time>
            <Position>
              <LatitudeDegrees>43.3047408051788806915283203125</LatitudeDegrees>
              <LongitudeDegrees>-2.23885604180395603179931640625</LongitudeDegrees>
            </Position>
            <AltitudeMeters>45.200000762939453125</AltitudeMeters>
            <DistanceMeters>NAN</DistanceMeters>
          </Trackpoint>
          <Trackpoint>
            <Time>2022-07-10T11:20:19.000Z</Time>
            <Position>
              <LatitudeDegrees>43.30459001474082469940185546875</LatitudeDegrees>
              <LongitudeDegrees>-2.238901555538177490234375</LongitudeDegrees>
            </Position>
            <AltitudeMeters>45.200000762939453125</AltitudeMeters>
            <DistanceMeters>NAN</DistanceMeters>
          </Trackpoint>
          <Trackpoint>
            <Time>2022-07-10T11:20:23.000Z</Time>
            <Position>
              <LatitudeDegrees>43.3043914474546909332275390625</LatitudeDegrees>
              <LongitudeDegrees>-2.23900993354618549346923828125</LongitudeDegrees>
            </Position>
            <AltitudeMeters>45</AltitudeMeters>
            <DistanceMeters>NAN</DistanceMeters>
          </Trackpoint>
          <Trackpoint>
            <Time>2022-07-10T11:20:32.000Z</Time>
            <Position>
              <LatitudeDegrees>43.3040528185665607452392578125</LatitudeDegrees>
              <LongitudeDegrees>-2.239352166652679443359375</LongitudeDegrees>
            </Position>
            <AltitudeMeters>44.799999237060546875</AltitudeMeters>
            <DistanceMeters>NAN</DistanceMeters>
          </Trackpoint>
          <Trackpoint>
            <Time>2022-07-10T11:20:33.000Z</Time>
            <Position>
              <LatitudeDegrees>43.30398517660796642303466796875</LatitudeDegrees>
              <LongitudeDegrees>-2.23946087993681430816650390625</LongitudeDegrees>
            </Position>
            <AltitudeMeters>44.799999237060546875</AltitudeMeters>
            <DistanceMeters>NAN</DistanceMeters>
          </Trackpoint>
          <Trackpoint>
            <Time>2022-07-10T11:20:38.000Z</Time>
            <Position>
              <LatitudeDegrees>43.303869254887104034423828125</LatitudeDegrees>
              <LongitudeDegrees>-2.23968719132244586944580078125</LongitudeDegrees>
            </Position>
            <AltitudeMeters>44.799999237060546875</AltitudeMeters>
            <DistanceMeters>NAN</DistanceMeters>
          </Trackpoint>
          <Trackpoint>
            <Time>2022-07-10T11:20:45.000Z</Time>
            <Position>
              <LatitudeDegrees>43.3037115074694156646728515625</LatitudeDegrees>
              <LongitudeDegrees>-2.24008650518953800201416015625</LongitudeDegrees>
            </Position>
            <AltitudeMeters>44.59999847412109375</AltitudeMeters>
            <DistanceMeters>NAN</DistanceMeters>
          </Trackpoint>
          <Trackpoint>
            <Time>2022-07-10T11:20:46.000Z</Time>
            <Position>
              <LatitudeDegrees>43.30366448499262332916259765625</LatitudeDegrees>
              <LongitudeDegrees>-2.240192033350467681884765625</LongitudeDegrees>
            </Position>
            <AltitudeMeters>44.59999847412109375</AltitudeMeters>
            <DistanceMeters>NAN</DistanceMeters>
          </Trackpoint>
          <Trackpoint>
            <Time>2022-07-10T11:20:50.000Z</Time>
            <Position>
              <LatitudeDegrees>43.303597010672092437744140625</LatitudeDegrees>
              <LongitudeDegrees>-2.24034869112074375152587890625</LongitudeDegrees>
            </Position>
            <AltitudeMeters>44.59999847412109375</AltitudeMeters>
            <DistanceMeters>NAN</DistanceMeters>
          </Trackpoint>
          <Trackpoint>
            <Time>2022-07-10T11:20:52.000Z</Time>
            <Position>
              <LatitudeDegrees>43.30354898236691951751708984375</LatitudeDegrees>
              <LongitudeDegrees>-2.24045447073876857757568359375</LongitudeDegrees>
            </Position>
            <AltitudeMeters>44.59999847412109375</AltitudeMeters>
            <DistanceMeters>NAN</DistanceMeters>
          </Trackpoint>
          <Trackpoint>
            <Time>2022-07-10T11:20:53.000Z</Time>
            <Position>
              <LatitudeDegrees>43.3035083301365375518798828125</LatitudeDegrees>
              <LongitudeDegrees>-2.24055714905261993408203125</LongitudeDegrees>
            </Position>
            <AltitudeMeters>44.59999847412109375</AltitudeMeters>
            <DistanceMeters>NAN</DistanceMeters>
          </Trackpoint>
          <Trackpoint>
            <Time>2022-07-10T11:20:59.000Z</Time>
            <Position>
              <LatitudeDegrees>43.30337648279964923858642578125</LatitudeDegrees>
              <LongitudeDegrees>-2.24087038077414035797119140625</LongitudeDegrees>
            </Position>
            <AltitudeMeters>44.40000152587890625</AltitudeMeters>
            <DistanceMeters>NAN</DistanceMeters>
          </Trackpoint>
          <Trackpoint>
            <Time>2022-07-10T11:21:00.000Z</Time>
            <Position>
              <LatitudeDegrees>43.3033619821071624755859375</LatitudeDegrees>
              <LongitudeDegrees>-2.2409254498779773712158203125</LongitudeDegrees>
            </Position>
            <AltitudeMeters>44.200000762939453125</AltitudeMeters>
            <DistanceMeters>NAN</DistanceMeters>
          </Trackpoint>
          <Trackpoint>
            <Time>2022-07-10T11:21:03.000Z</Time>
            <Position>
              <LatitudeDegrees>43.3033138699829578399658203125</LatitudeDegrees>
              <LongitudeDegrees>-2.24109082482755184173583984375</LongitudeDegrees>
            </Position>
            <AltitudeMeters>44.200000762939453125</AltitudeMeters>
            <DistanceMeters>NAN</DistanceMeters>
          </Trackpoint>
          <Trackpoint>
            <Time>2022-07-10T11:21:05.000Z</Time>
            <Position>
              <LatitudeDegrees>43.303285874426364898681640625</LatitudeDegrees>
              <LongitudeDegrees>-2.24120096303522586822509765625</LongitudeDegrees>
            </Position>
            <AltitudeMeters>44.40000152587890625</AltitudeMeters>
            <DistanceMeters>NAN</DistanceMeters>
          </Trackpoint>
          <Trackpoint>
            <Time>2022-07-10T11:21:09.000Z</Time>
            <Position>
              <LatitudeDegrees>43.30326232127845287322998046875</LatitudeDegrees>
              <LongitudeDegrees>-2.2414411045610904693603515625</LongitudeDegrees>
            </Position>
            <AltitudeMeters>44.40000152587890625</AltitudeMeters>
            <DistanceMeters>NAN</DistanceMeters>
          </Trackpoint>
          <Trackpoint>
            <Time>2022-07-10T11:21:11.000Z</Time>
            <Position>
              <LatitudeDegrees>43.30326299183070659637451171875</LatitudeDegrees>
              <LongitudeDegrees>-2.24149717949330806732177734375</LongitudeDegrees>
            </Position>
            <AltitudeMeters>44.40000152587890625</AltitudeMeters>
            <DistanceMeters>NAN</DistanceMeters>
          </Trackpoint>
          <Trackpoint>
            <Time>2022-07-10T11:21:18.000Z</Time>
            <Position>
              <LatitudeDegrees>43.30329014919698238372802734375</LatitudeDegrees>
              <LongitudeDegrees>-2.24193857051432132720947265625</LongitudeDegrees>
            </Position>
            <AltitudeMeters>44.40000152587890625</AltitudeMeters>
            <DistanceMeters>NAN</DistanceMeters>
          </Trackpoint>
          <Trackpoint>
            <Time>2022-07-10T11:21:19.000Z</Time>
            <Position>
              <LatitudeDegrees>43.30329014919698238372802734375</LatitudeDegrees>
              <LongitudeDegrees>-2.24193857051432132720947265625</LongitudeDegrees>
            </Position>
            <AltitudeMeters>44.40000152587890625</AltitudeMeters>
            <DistanceMeters>NAN</DistanceMeters>
          </Trackpoint>
          <Trackpoint>
            <Time>2022-07-10T11:21:22.000Z</Time>
            <Position>
              <LatitudeDegrees>43.30328889191150665283203125</LatitudeDegrees>
              <LongitudeDegrees>-2.24214694462716579437255859375</LongitudeDegrees>
            </Position>
            <AltitudeMeters>44.59999847412109375</AltitudeMeters>
            <DistanceMeters>NAN</DistanceMeters>
          </Trackpoint>
          <Trackpoint>
            <Time>2022-07-10T11:21:26.000Z</Time>
            <Position>
              <LatitudeDegrees>43.30329065211117267608642578125</LatitudeDegrees>
              <LongitudeDegrees>-2.2423587553203105926513671875</LongitudeDegrees>
            </Position>
            <AltitudeMeters>44.59999847412109375</AltitudeMeters>
            <DistanceMeters>NAN</DistanceMeters>
          </Trackpoint>
          <Trackpoint>
            <Time>2022-07-10T11:21:33.000Z</Time>
            <Position>
              <LatitudeDegrees>43.30329517833888530731201171875</LatitudeDegrees>
              <LongitudeDegrees>-2.24273686297237873077392578125</LongitudeDegrees>
            </Position>
            <AltitudeMeters>44.799999237060546875</AltitudeMeters>
            <DistanceMeters>NAN</DistanceMeters>
          </Trackpoint>
          <Trackpoint>
            <Time>2022-07-10T11:21:41.000Z</Time>
            <Position>
              <LatitudeDegrees>43.30331428907811641693115234375</LatitudeDegrees>
              <LongitudeDegrees>-2.24317003972828388214111328125</LongitudeDegrees>
            </Position>
            <AltitudeMeters>44.59999847412109375</AltitudeMeters>
            <DistanceMeters>NAN</DistanceMeters>
          </Trackpoint>
          <Trackpoint>
            <Time>2022-07-10T11:21:47.000Z</Time>
            <Position>
              <LatitudeDegrees>43.30330766737461090087890625</LatitudeDegrees>
              <LongitudeDegrees>-2.24342920817434787750244140625</LongitudeDegrees>
            </Position>
            <AltitudeMeters>44.799999237060546875</AltitudeMeters>
            <DistanceMeters>NAN</DistanceMeters>
          </Trackpoint>
          <Trackpoint>
            <Time>2022-07-10T11:21:56.000Z</Time>
            <Position>
              <LatitudeDegrees>43.3032882213592529296875</LatitudeDegrees>
              <LongitudeDegrees>-2.24384830333292484283447265625</LongitudeDegrees>
            </Position>
            <AltitudeMeters>45.40000152587890625</AltitudeMeters>
            <DistanceMeters>NAN</DistanceMeters>
          </Trackpoint>
          <Trackpoint>
            <Time>2022-07-10T11:21:57.000Z</Time>
            <Position>
              <LatitudeDegrees>43.30326450057327747344970703125</LatitudeDegrees>
              <LongitudeDegrees>-2.2439347207546234130859375</LongitudeDegrees>
            </Position>
            <AltitudeMeters>45.40000152587890625</AltitudeMeters>
            <DistanceMeters>NAN</DistanceMeters>
          </Trackpoint>
          <Trackpoint>
            <Time>2022-07-10T11:21:59.000Z</Time>
            <Position>
              <LatitudeDegrees>43.30323751084506511688232421875</LatitudeDegrees>
              <LongitudeDegrees>-2.2440280951559543609619140625</LongitudeDegrees>
            </Position>
            <AltitudeMeters>45.59999847412109375</AltitudeMeters>
            <DistanceMeters>NAN</DistanceMeters>
          </Trackpoint>
          <Trackpoint>
            <Time>2022-07-10T11:22:03.000Z</Time>
            <Position>
              <LatitudeDegrees>43.30317950807511806488037109375</LatitudeDegrees>
              <LongitudeDegrees>-2.24415072239935398101806640625</LongitudeDegrees>
            </Position>
            <AltitudeMeters>45.59999847412109375</AltitudeMeters>
            <DistanceMeters>NAN</DistanceMeters>
          </Trackpoint>
          <Trackpoint>
            <Time>2022-07-10T11:22:10.000Z</Time>
            <Position>
              <LatitudeDegrees>43.30295822583138942718505859375</LatitudeDegrees>
              <LongitudeDegrees>-2.2444361262023448944091796875</LongitudeDegrees>
            </Position>
            <AltitudeMeters>45.40000152587890625</AltitudeMeters>
            <DistanceMeters>NAN</DistanceMeters>
          </Trackpoint>
          <Trackpoint>
            <Time>2022-07-10T11:22:18.000Z</Time>
            <Position>
              <LatitudeDegrees>43.302695117890834808349609375</LatitudeDegrees>
              <LongitudeDegrees>-2.24468280561268329620361328125</LongitudeDegrees>
            </Position>
            <AltitudeMeters>44.59999847412109375</AltitudeMeters>
            <DistanceMeters>NAN</DistanceMeters>
          </Trackpoint>
          <Trackpoint>
            <Time>2022-07-10T11:22:19.000Z</Time>
            <Position>
              <LatitudeDegrees>43.3026034198701381683349609375</LatitudeDegrees>
              <LongitudeDegrees>-2.24476511590182781219482421875</LongitudeDegrees>
            </Position>
            <AltitudeMeters>44.59999847412109375</AltitudeMeters>
            <DistanceMeters>NAN</DistanceMeters>
          </Trackpoint>
          <Trackpoint>
            <Time>2022-07-10T11:22:26.000Z</Time>
            <Position>
              <LatitudeDegrees>43.3023398928344249725341796875</LatitudeDegrees>
              <LongitudeDegrees>-2.24499846808612346649169921875</LongitudeDegrees>
            </Position>
            <AltitudeMeters>44.200000762939453125</AltitudeMeters>
            <DistanceMeters>NAN</DistanceMeters>
          </Trackpoint>
          <Trackpoint>
            <Time>2022-07-10T11:22:28.000Z</Time>
            <Position>
              <LatitudeDegrees>43.30225531943142414093017578125</LatitudeDegrees>
              <LongitudeDegrees>-2.2450765036046504974365234375</LongitudeDegrees>
            </Position>
            <AltitudeMeters>44</AltitudeMeters>
            <DistanceMeters>NAN</DistanceMeters>
          </Trackpoint>
          <Trackpoint>
            <Time>2022-07-10T11:22:36.000Z</Time>
            <Position>
              <LatitudeDegrees>43.3019596897065639495849609375</LatitudeDegrees>
              <LongitudeDegrees>-2.245314382016658782958984375</LongitudeDegrees>
            </Position>
            <AltitudeMeters>43.59999847412109375</AltitudeMeters>
            <DistanceMeters>NAN</DistanceMeters>
          </Trackpoint>
          <Trackpoint>
            <Time>2022-07-10T11:22:37.000Z</Time>
            <Position>
              <LatitudeDegrees>43.3019270002841949462890625</LatitudeDegrees>
              <LongitudeDegrees>-2.24533558823168277740478515625</LongitudeDegrees>
            </Position>
            <AltitudeMeters>43.40000152587890625</AltitudeMeters>
            <DistanceMeters>NAN</DistanceMeters>
          </Trackpoint>
          <Trackpoint>
            <Time>2022-07-10T11:22:47.000Z</Time>
            <Position>
              <LatitudeDegrees>43.30166540108621120452880859375</LatitudeDegrees>
              <LongitudeDegrees>-2.245704643428325653076171875</LongitudeDegrees>
            </Position>
            <AltitudeMeters>43.40000152587890625</AltitudeMeters>
            <DistanceMeters>NAN</DistanceMeters>
          </Trackpoint>
          <Trackpoint>
            <Time>2022-07-10T11:22:48.000Z</Time>
            <Position>
              <LatitudeDegrees>43.3016790635883808135986328125</LatitudeDegrees>
              <LongitudeDegrees>-2.24566139280796051025390625</LongitudeDegrees>
            </Position>
            <AltitudeMeters>43.40000152587890625</AltitudeMeters>
            <DistanceMeters>NAN</DistanceMeters>
          </Trackpoint>
          <Trackpoint>
            <Time>2022-07-10T11:22:49.000Z</Time>
            <Position>
              <LatitudeDegrees>43.3016733638942241668701171875</LatitudeDegrees>
              <LongitudeDegrees>-2.2456508316099643707275390625</LongitudeDegrees>
            </Position>
            <AltitudeMeters>43.40000152587890625</AltitudeMeters>
            <DistanceMeters>NAN</DistanceMeters>
          </Trackpoint>
          <Trackpoint>
            <Time>2022-07-10T11:22:52.000Z</Time>
            <Position>
              <LatitudeDegrees>43.30176179297268390655517578125</LatitudeDegrees>
              <LongitudeDegrees>-2.2456565313041210174560546875</LongitudeDegrees>
            </Position>
            <AltitudeMeters>43.40000152587890625</AltitudeMeters>
            <DistanceMeters>NAN</DistanceMeters>
          </Trackpoint>
          <Trackpoint>
            <Time>2022-07-10T11:22:54.000Z</Time>
            <Position>
              <LatitudeDegrees>43.30179213546216487884521484375</LatitudeDegrees>
              <LongitudeDegrees>-2.24564454518258571624755859375</LongitudeDegrees>
            </Position>
            <AltitudeMeters>43.40000152587890625</AltitudeMeters>
            <DistanceMeters>NAN</DistanceMeters>
          </Trackpoint>
          <Trackpoint>
            <Time>2022-07-10T11:22:59.000Z</Time>
            <Position>
              <LatitudeDegrees>43.3018071390688419342041015625</LatitudeDegrees>
              <LongitudeDegrees>-2.24562861956655979156494140625</LongitudeDegrees>
            </Position>
            <AltitudeMeters>43.59999847412109375</AltitudeMeters>
            <DistanceMeters>NAN</DistanceMeters>
          </Trackpoint>
          <Trackpoint>
            <Time>2022-07-10T11:25:54.000Z</Time>
            <Position>
              <LatitudeDegrees>43.30173463560640811920166015625</LatitudeDegrees>
              <LongitudeDegrees>-2.24569299258291721343994140625</LongitudeDegrees>
            </Position>
            <AltitudeMeters>43.59999847412109375</AltitudeMeters>
            <DistanceMeters>NAN</DistanceMeters>
          </Trackpoint>
          <Trackpoint>
            <Time>2022-07-10T11:25:55.000Z</Time>
            <Position>
              <LatitudeDegrees>43.301666490733623504638671875</LatitudeDegrees>
              <LongitudeDegrees>-2.245698608458042144775390625</LongitudeDegrees>
            </Position>
            <AltitudeMeters>43.59999847412109375</AltitudeMeters>
            <DistanceMeters>NAN</DistanceMeters>
          </Trackpoint>
          <Trackpoint>
            <Time>2022-07-10T11:26:00.000Z</Time>
            <Position>
              <LatitudeDegrees>43.301500864326953887939453125</LatitudeDegrees>
              <LongitudeDegrees>-2.24576943553984165191650390625</LongitudeDegrees>
            </Position>
            <AltitudeMeters>43.59999847412109375</AltitudeMeters>
            <DistanceMeters>NAN</DistanceMeters>
          </Trackpoint>
          <Trackpoint>
            <Time>2022-07-10T11:26:10.000Z</Time>
            <Position>
              <LatitudeDegrees>43.3012596331536769866943359375</LatitudeDegrees>
              <LongitudeDegrees>-2.2459857724606990814208984375</LongitudeDegrees>
            </Position>
            <AltitudeMeters>43.40000152587890625</AltitudeMeters>
            <DistanceMeters>NAN</DistanceMeters>
          </Trackpoint>
          <Trackpoint>
            <Time>2022-07-10T11:26:14.000Z</Time>
            <Position>
              <LatitudeDegrees>43.3011639118194580078125</LatitudeDegrees>
              <LongitudeDegrees>-2.24607487209141254425048828125</LongitudeDegrees>
            </Position>
            <AltitudeMeters>43.40000152587890625</AltitudeMeters>
            <DistanceMeters>NAN</DistanceMeters>
          </Trackpoint>
          <Trackpoint>
            <Time>2022-07-10T11:26:17.000Z</Time>
            <Position>
              <LatitudeDegrees>43.30107129178941249847412109375</LatitudeDegrees>
              <LongitudeDegrees>-2.24616757594048976898193359375</LongitudeDegrees>
            </Position>
            <AltitudeMeters>43.59999847412109375</AltitudeMeters>
            <DistanceMeters>NAN</DistanceMeters>
          </Trackpoint>
          <Trackpoint>
            <Time>2022-07-10T11:26:18.000Z</Time>
            <Position>
              <LatitudeDegrees>43.30104715190827846527099609375</LatitudeDegrees>
              <LongitudeDegrees>-2.2461839206516742706298828125</LongitudeDegrees>
            </Position>
            <AltitudeMeters>43.59999847412109375</AltitudeMeters>
            <DistanceMeters>NAN</DistanceMeters>
          </Trackpoint>
          <Trackpoint>
            <Time>2022-07-10T11:26:28.000Z</Time>
            <Position>
              <LatitudeDegrees>43.3008093573153018951416015625</LatitudeDegrees>
              <LongitudeDegrees>-2.24633253179490566253662109375</LongitudeDegrees>
            </Position>
            <AltitudeMeters>44</AltitudeMeters>
            <DistanceMeters>NAN</DistanceMeters>
          </Trackpoint>
          <Trackpoint>
            <Time>2022-07-10T11:26:34.000Z</Time>
            <Position>
              <LatitudeDegrees>43.30065429210662841796875</LatitudeDegrees>
              <LongitudeDegrees>-2.24638533778488636016845703125</LongitudeDegrees>
            </Position>
            <AltitudeMeters>44.200000762939453125</AltitudeMeters>
            <DistanceMeters>NAN</DistanceMeters>
          </Trackpoint>
          <Trackpoint>
            <Time>2022-07-10T11:26:35.000Z</Time>
            <Position>
              <LatitudeDegrees>43.30062068067491054534912109375</LatitudeDegrees>
              <LongitudeDegrees>-2.24638533778488636016845703125</LongitudeDegrees>
            </Position>
            <AltitudeMeters>44.200000762939453125</AltitudeMeters>
            <DistanceMeters>NAN</DistanceMeters>
          </Trackpoint>
          <Trackpoint>
            <Time>2022-07-10T11:26:45.000Z</Time>
            <Position>
              <LatitudeDegrees>43.30033871345221996307373046875</LatitudeDegrees>
              <LongitudeDegrees>-2.246370501816272735595703125</LongitudeDegrees>
            </Position>
            <AltitudeMeters>43.40000152587890625</AltitudeMeters>
            <DistanceMeters>NAN</DistanceMeters>
          </Trackpoint>
          <Trackpoint>
            <Time>2022-07-10T11:26:49.000Z</Time>
            <Position>
              <LatitudeDegrees>43.30021885223686695098876953125</LatitudeDegrees>
              <LongitudeDegrees>-2.24634845741093158721923828125</LongitudeDegrees>
            </Position>
            <AltitudeMeters>43</AltitudeMeters>
            <DistanceMeters>NAN</DistanceMeters>
          </Trackpoint>
          <Trackpoint>
            <Time>2022-07-10T11:26:50.000Z</Time>
            <Position>
              <LatitudeDegrees>43.3001894317567348480224609375</LatitudeDegrees>
              <LongitudeDegrees>-2.24634191952645778656005859375</LongitudeDegrees>
            </Position>
            <AltitudeMeters>43</AltitudeMeters>
            <DistanceMeters>NAN</DistanceMeters>
          </Trackpoint>
          <Trackpoint>
            <Time>2022-07-10T11:26:54.000Z</Time>
            <Position>
              <LatitudeDegrees>43.300069905817508697509765625</LatitudeDegrees>
              <LongitudeDegrees>-2.24631358869373798370361328125</LongitudeDegrees>
            </Position>
            <AltitudeMeters>42.59999847412109375</AltitudeMeters>
            <DistanceMeters>NAN</DistanceMeters>
          </Trackpoint>
          <Trackpoint>
            <Time>2022-07-10T11:26:55.000Z</Time>
            <Position>
              <LatitudeDegrees>43.30004266463220119476318359375</LatitudeDegrees>
              <LongitudeDegrees>-2.24630646407604217529296875</LongitudeDegrees>
            </Position>
            <AltitudeMeters>42.40000152587890625</AltitudeMeters>
            <DistanceMeters>NAN</DistanceMeters>
          </Trackpoint>
          <Trackpoint>
            <Time>2022-07-10T11:26:59.000Z</Time>
            <Position>
              <LatitudeDegrees>43.2999788783490657806396484375</LatitudeDegrees>
              <LongitudeDegrees>-2.2462945617735385894775390625</LongitudeDegrees>
            </Position>
            <AltitudeMeters>42</AltitudeMeters>
            <DistanceMeters>NAN</DistanceMeters>
          </Trackpoint>
          <Trackpoint>
            <Time>2022-07-10T11:27:07.000Z</Time>
            <Position>
              <LatitudeDegrees>43.29979321919381618499755859375</LatitudeDegrees>
              <LongitudeDegrees>-2.2462905384600162506103515625</LongitudeDegrees>
            </Position>
            <AltitudeMeters>41.799999237060546875</AltitudeMeters>
            <DistanceMeters>NAN</DistanceMeters>
          </Trackpoint>
          <Trackpoint>
            <Time>2022-07-10T11:27:12.000Z</Time>
            <Position>
              <LatitudeDegrees>43.29964368604123592376708984375</LatitudeDegrees>
              <LongitudeDegrees>-2.24626329727470874786376953125</LongitudeDegrees>
            </Position>
            <AltitudeMeters>41.40000152587890625</AltitudeMeters>
            <DistanceMeters>NAN</DistanceMeters>
          </Trackpoint>
          <Trackpoint>
            <Time>2022-07-10T11:27:13.000Z</Time>
            <Position>
              <LatitudeDegrees>43.299608565866947174072265625</LatitudeDegrees>
              <LongitudeDegrees>-2.246261537075042724609375</LongitudeDegrees>
            </Position>
            <AltitudeMeters>41.40000152587890625</AltitudeMeters>
            <DistanceMeters>NAN</DistanceMeters>
          </Trackpoint>
          <Trackpoint>
            <Time>2022-07-10T11:27:14.000Z</Time>
            <Position>
              <LatitudeDegrees>43.2995735295116901397705078125</LatitudeDegrees>
              <LongitudeDegrees>-2.24625910632312297821044921875</LongitudeDegrees>
            </Position>
            <AltitudeMeters>41.40000152587890625</AltitudeMeters>
            <DistanceMeters>NAN</DistanceMeters>
          </Trackpoint>
          <Trackpoint>
            <Time>2022-07-10T11:27:21.000Z</Time>
            <Position>
              <LatitudeDegrees>43.29940371215343475341796875</LatitudeDegrees>
              <LongitudeDegrees>-2.2462761215865612030029296875</LongitudeDegrees>
            </Position>
            <AltitudeMeters>41</AltitudeMeters>
            <DistanceMeters>NAN</DistanceMeters>
          </Trackpoint>
          <Trackpoint>
            <Time>2022-07-10T11:27:23.000Z</Time>
            <Position>
              <LatitudeDegrees>43.29932869412004947662353515625</LatitudeDegrees>
              <LongitudeDegrees>-2.2462855093181133270263671875</LongitudeDegrees>
            </Position>
            <AltitudeMeters>40.799999237060546875</AltitudeMeters>
            <DistanceMeters>NAN</DistanceMeters>
          </Trackpoint>
          <Trackpoint>
            <Time>2022-07-10T11:27:29.000Z</Time>
            <Position>
              <LatitudeDegrees>43.2992473058402538299560546875</LatitudeDegrees>
              <LongitudeDegrees>-2.246304117143154144287109375</LongitudeDegrees>
            </Position>
            <AltitudeMeters>40.40000152587890625</AltitudeMeters>
            <DistanceMeters>NAN</DistanceMeters>
          </Trackpoint>
          <Trackpoint>
            <Time>2022-07-10T11:27:34.000Z</Time>
            <Position>
              <LatitudeDegrees>43.29912568442523479461669921875</LatitudeDegrees>
              <LongitudeDegrees>-2.2464105673134326934814453125</LongitudeDegrees>
            </Position>
            <AltitudeMeters>40.40000152587890625</AltitudeMeters>
            <DistanceMeters>NAN</DistanceMeters>
          </Trackpoint>
          <Trackpoint>
            <Time>2022-07-10T11:27:38.000Z</Time>
            <Position>
              <LatitudeDegrees>43.29905024729669094085693359375</LatitudeDegrees>
              <LongitudeDegrees>-2.24647787399590015411376953125</LongitudeDegrees>
            </Position>
            <AltitudeMeters>40.40000152587890625</AltitudeMeters>
            <DistanceMeters>NAN</DistanceMeters>
          </Trackpoint>
          <Trackpoint>
            <Time>2022-07-10T11:27:42.000Z</Time>
            <Position>
              <LatitudeDegrees>43.29894782043993473052978515625</LatitudeDegrees>
              <LongitudeDegrees>-2.24657745100557804107666015625</LongitudeDegrees>
            </Position>
            <AltitudeMeters>40.200000762939453125</AltitudeMeters>
            <DistanceMeters>NAN</DistanceMeters>
          </Trackpoint>
          <Trackpoint>
            <Time>2022-07-10T11:27:47.000Z</Time>
            <Position>
              <LatitudeDegrees>43.29881370998919010162353515625</LatitudeDegrees>
              <LongitudeDegrees>-2.246693037450313568115234375</LongitudeDegrees>
            </Position>
            <AltitudeMeters>40</AltitudeMeters>
            <DistanceMeters>NAN</DistanceMeters>
          </Trackpoint>
          <Trackpoint>
            <Time>2022-07-10T11:27:50.000Z</Time>
            <Position>
              <LatitudeDegrees>43.29871966503560543060302734375</LatitudeDegrees>
              <LongitudeDegrees>-2.2467247210443019866943359375</LongitudeDegrees>
            </Position>
            <AltitudeMeters>39.799999237060546875</AltitudeMeters>
            <DistanceMeters>NAN</DistanceMeters>
          </Trackpoint>
          <Trackpoint>
            <Time>2022-07-10T11:27:51.000Z</Time>
            <Position>
              <LatitudeDegrees>43.29871966503560543060302734375</LatitudeDegrees>
              <LongitudeDegrees>-2.2467247210443019866943359375</LongitudeDegrees>
            </Position>
            <AltitudeMeters>39.59999847412109375</AltitudeMeters>
            <DistanceMeters>NAN</DistanceMeters>
          </Trackpoint>
          <Trackpoint>
            <Time>2022-07-10T11:27:56.000Z</Time>
            <Position>
              <LatitudeDegrees>43.2985894940793514251708984375</LatitudeDegrees>
              <LongitudeDegrees>-2.24687987007200717926025390625</LongitudeDegrees>
            </Position>
            <AltitudeMeters>39.59999847412109375</AltitudeMeters>
            <DistanceMeters>NAN</DistanceMeters>
          </Trackpoint>
          <Trackpoint>
            <Time>2022-07-10T11:27:59.000Z</Time>
            <Position>
              <LatitudeDegrees>43.29845664091408252716064453125</LatitudeDegrees>
              <LongitudeDegrees>-2.247004844248294830322265625</LongitudeDegrees>
            </Position>
            <AltitudeMeters>39.40000152587890625</AltitudeMeters>
            <DistanceMeters>NAN</DistanceMeters>
          </Trackpoint>
          <Trackpoint>
            <Time>2022-07-10T11:28:03.000Z</Time>
            <Position>
              <LatitudeDegrees>43.29834197647869586944580078125</LatitudeDegrees>
              <LongitudeDegrees>-2.24714876152575016021728515625</LongitudeDegrees>
            </Position>
            <AltitudeMeters>39</AltitudeMeters>
            <DistanceMeters>NAN</DistanceMeters>
          </Trackpoint>
          <Trackpoint>
            <Time>2022-07-10T11:28:10.000Z</Time>
            <Position>
              <LatitudeDegrees>43.298132009804248809814453125</LatitudeDegrees>
              <LongitudeDegrees>-2.24743835628032684326171875</LongitudeDegrees>
            </Position>
            <AltitudeMeters>38.799999237060546875</AltitudeMeters>
            <DistanceMeters>NAN</DistanceMeters>
          </Trackpoint>
          <Trackpoint>
            <Time>2022-07-10T11:28:15.000Z</Time>
            <Position>
              <LatitudeDegrees>43.298006951808929443359375</LatitudeDegrees>
              <LongitudeDegrees>-2.24761077202856540679931640625</LongitudeDegrees>
            </Position>
            <AltitudeMeters>38.59999847412109375</AltitudeMeters>
            <DistanceMeters>NAN</DistanceMeters>
          </Trackpoint>
          <Trackpoint>
            <Time>2022-07-10T11:28:21.000Z</Time>
            <Position>
              <LatitudeDegrees>43.29781827516853809356689453125</LatitudeDegrees>
              <LongitudeDegrees>-2.24788418971002101898193359375</LongitudeDegrees>
            </Position>
            <AltitudeMeters>38.200000762939453125</AltitudeMeters>
            <DistanceMeters>NAN</DistanceMeters>
          </Trackpoint>
          <Trackpoint>
            <Time>2022-07-10T11:28:23.000Z</Time>
            <Position>
              <LatitudeDegrees>43.2977543212473392486572265625</LatitudeDegrees>
              <LongitudeDegrees>-2.24794889800250530242919921875</LongitudeDegrees>
            </Position>
            <AltitudeMeters>38.200000762939453125</AltitudeMeters>
            <DistanceMeters>NAN</DistanceMeters>
          </Trackpoint>
          <Trackpoint>
            <Time>2022-07-10T11:28:25.000Z</Time>
            <Position>
              <LatitudeDegrees>43.2976916246116161346435546875</LatitudeDegrees>
              <LongitudeDegrees>-2.248031459748744964599609375</LongitudeDegrees>
            </Position>
            <AltitudeMeters>38.200000762939453125</AltitudeMeters>
            <DistanceMeters>NAN</DistanceMeters>
          </Trackpoint>
          <Trackpoint>
            <Time>2022-07-10T11:28:31.000Z</Time>
            <Position>
              <LatitudeDegrees>43.2975001819431781768798828125</LatitudeDegrees>
              <LongitudeDegrees>-2.24830931983888149261474609375</LongitudeDegrees>
            </Position>
            <AltitudeMeters>37.799999237060546875</AltitudeMeters>
            <DistanceMeters>NAN</DistanceMeters>
          </Trackpoint>
          <Trackpoint>
            <Time>2022-07-10T11:28:35.000Z</Time>
            <Position>
              <LatitudeDegrees>43.29742415808141231536865234375</LatitudeDegrees>
              <LongitudeDegrees>-2.24843001924455165863037109375</LongitudeDegrees>
            </Position>
            <AltitudeMeters>37.200000762939453125</AltitudeMeters>
            <DistanceMeters>NAN</DistanceMeters>
          </Trackpoint>
          <Trackpoint>
            <Time>2022-07-10T11:28:37.000Z</Time>
            <Position>
              <LatitudeDegrees>43.2973788119852542877197265625</LatitudeDegrees>
              <LongitudeDegrees>-2.24850947968661785125732421875</LongitudeDegrees>
            </Position>
            <AltitudeMeters>36.799999237060546875</AltitudeMeters>
            <DistanceMeters>NAN</DistanceMeters>
          </Trackpoint>
          <Trackpoint>
            <Time>2022-07-10T11:28:41.000Z</Time>
            <Position>
              <LatitudeDegrees>43.2973754592239856719970703125</LatitudeDegrees>
              <LongitudeDegrees>-2.24851165898144245147705078125</LongitudeDegrees>
            </Position>
            <AltitudeMeters>36.40000152587890625</AltitudeMeters>
            <DistanceMeters>NAN</DistanceMeters>
          </Trackpoint>
          <Trackpoint>
            <Time>2022-07-10T11:28:42.000Z</Time>
            <Position>
              <LatitudeDegrees>43.2973754592239856719970703125</LatitudeDegrees>
              <LongitudeDegrees>-2.24851165898144245147705078125</LongitudeDegrees>
            </Position>
            <AltitudeMeters>36.40000152587890625</AltitudeMeters>
            <DistanceMeters>NAN</DistanceMeters>
          </Trackpoint>
          <Trackpoint>
            <Time>2022-07-10T11:28:56.000Z</Time>
            <Position>
              <LatitudeDegrees>43.29738132655620574951171875</LatitudeDegrees>
              <LongitudeDegrees>-2.24853596650063991546630859375</LongitudeDegrees>
            </Position>
            <AltitudeMeters>36.200000762939453125</AltitudeMeters>
            <DistanceMeters>NAN</DistanceMeters>
          </Trackpoint>
          <Trackpoint>
            <Time>2022-07-10T11:28:58.000Z</Time>
            <Position>
              <LatitudeDegrees>43.2973322086036205291748046875</LatitudeDegrees>
              <LongitudeDegrees>-2.24862414412200450897216796875</LongitudeDegrees>
            </Position>
            <AltitudeMeters>36.200000762939453125</AltitudeMeters>
            <DistanceMeters>NAN</DistanceMeters>
          </Trackpoint>
          <Trackpoint>
            <Time>2022-07-10T11:29:04.000Z</Time>
            <Position>
              <LatitudeDegrees>43.29720170237123966217041015625</LatitudeDegrees>
              <LongitudeDegrees>-2.24883712828159332275390625</LongitudeDegrees>
            </Position>
            <AltitudeMeters>36.59999847412109375</AltitudeMeters>
            <DistanceMeters>NAN</DistanceMeters>
          </Trackpoint>
          <Trackpoint>
            <Time>2022-07-10T11:29:08.000Z</Time>
            <Position>
              <LatitudeDegrees>43.29713749699294567108154296875</LatitudeDegrees>
              <LongitudeDegrees>-2.248911894857883453369140625</LongitudeDegrees>
            </Position>
            <AltitudeMeters>36.59999847412109375</AltitudeMeters>
            <DistanceMeters>NAN</DistanceMeters>
          </Trackpoint>
          <Trackpoint>
            <Time>2022-07-10T11:29:12.000Z</Time>
            <Position>
              <LatitudeDegrees>43.29703439958393573760986328125</LatitudeDegrees>
              <LongitudeDegrees>-2.2490537166595458984375</LongitudeDegrees>
            </Position>
            <AltitudeMeters>36.59999847412109375</AltitudeMeters>
            <DistanceMeters>NAN</DistanceMeters>
          </Trackpoint>
          <Trackpoint>
            <Time>2022-07-10T11:29:15.000Z</Time>
            <Position>
              <LatitudeDegrees>43.29700808040797710418701171875</LatitudeDegrees>
              <LongitudeDegrees>-2.24910710938274860382080078125</LongitudeDegrees>
            </Position>
            <AltitudeMeters>36.59999847412109375</AltitudeMeters>
            <DistanceMeters>NAN</DistanceMeters>
          </Trackpoint>
          <Trackpoint>
            <Time>2022-07-10T11:29:24.000Z</Time>
            <Position>
              <LatitudeDegrees>43.2968470640480518341064453125</LatitudeDegrees>
              <LongitudeDegrees>-2.24932420067489147186279296875</LongitudeDegrees>
            </Position>
            <AltitudeMeters>36.40000152587890625</AltitudeMeters>
            <DistanceMeters>NAN</DistanceMeters>
          </Trackpoint>
          <Trackpoint>
            <Time>2022-07-10T11:29:32.000Z</Time>
            <Position>
              <LatitudeDegrees>43.2966837845742702484130859375</LatitudeDegrees>
              <LongitudeDegrees>-2.2495447285473346710205078125</LongitudeDegrees>
            </Position>
            <AltitudeMeters>36.59999847412109375</AltitudeMeters>
            <DistanceMeters>NAN</DistanceMeters>
          </Trackpoint>
          <Trackpoint>
            <Time>2022-07-10T11:29:39.000Z</Time>
            <Position>
              <LatitudeDegrees>43.2965899072587490081787109375</LatitudeDegrees>
              <LongitudeDegrees>-2.24967473186552524566650390625</LongitudeDegrees>
            </Position>
            <AltitudeMeters>36.799999237060546875</AltitudeMeters>
            <DistanceMeters>NAN</DistanceMeters>
          </Trackpoint>
          <Trackpoint>
            <Time>2022-07-10T11:29:44.000Z</Time>
            <Position>
              <LatitudeDegrees>43.296562917530536651611328125</LatitudeDegrees>
              <LongitudeDegrees>-2.2497274540364742279052734375</LongitudeDegrees>
            </Position>
            <AltitudeMeters>36.799999237060546875</AltitudeMeters>
            <DistanceMeters>NAN</DistanceMeters>
          </Trackpoint>
          <Trackpoint>
            <Time>2022-07-10T11:29:51.000Z</Time>
            <Position>
              <LatitudeDegrees>43.29640810377895832061767578125</LatitudeDegrees>
              <LongitudeDegrees>-2.2499115206301212310791015625</LongitudeDegrees>
            </Position>
            <AltitudeMeters>37</AltitudeMeters>
            <DistanceMeters>NAN</DistanceMeters>
          </Trackpoint>
          <Trackpoint>
            <Time>2022-07-10T11:29:54.000Z</Time>
            <Position>
              <LatitudeDegrees>43.29635269939899444580078125</LatitudeDegrees>
              <LongitudeDegrees>-2.2500097565352916717529296875</LongitudeDegrees>
            </Position>
            <AltitudeMeters>37</AltitudeMeters>
            <DistanceMeters>NAN</DistanceMeters>
          </Trackpoint>
          <Trackpoint>
            <Time>2022-07-10T11:29:58.000Z</Time>
            <Position>
              <LatitudeDegrees>43.29626695252954959869384765625</LatitudeDegrees>
              <LongitudeDegrees>-2.25013037212193012237548828125</LongitudeDegrees>
            </Position>
            <AltitudeMeters>37.200000762939453125</AltitudeMeters>
            <DistanceMeters>NAN</DistanceMeters>
          </Trackpoint>
          <Trackpoint>
            <Time>2022-07-10T11:29:59.000Z</Time>
            <Position>
              <LatitudeDegrees>43.29626695252954959869384765625</LatitudeDegrees>
              <LongitudeDegrees>-2.25013037212193012237548828125</LongitudeDegrees>
            </Position>
            <AltitudeMeters>37.200000762939453125</AltitudeMeters>
            <DistanceMeters>NAN</DistanceMeters>
          </Trackpoint>
          <Trackpoint>
            <Time>2022-07-10T11:30:04.000Z</Time>
            <Position>
              <LatitudeDegrees>43.29614507965743541717529296875</LatitudeDegrees>
              <LongitudeDegrees>-2.25028057582676410675048828125</LongitudeDegrees>
            </Position>
            <AltitudeMeters>37.40000152587890625</AltitudeMeters>
            <DistanceMeters>NAN</DistanceMeters>
          </Trackpoint>
          <Trackpoint>
            <Time>2022-07-10T11:30:06.000Z</Time>
            <Position>
              <LatitudeDegrees>43.29610384069383144378662109375</LatitudeDegrees>
              <LongitudeDegrees>-2.2503329627215862274169921875</LongitudeDegrees>
            </Position>
            <AltitudeMeters>37.40000152587890625</AltitudeMeters>
            <DistanceMeters>NAN</DistanceMeters>
          </Trackpoint>
          <Trackpoint>
            <Time>2022-07-10T11:30:07.000Z</Time>
            <Position>
              <LatitudeDegrees>43.29610384069383144378662109375</LatitudeDegrees>
              <LongitudeDegrees>-2.2503329627215862274169921875</LongitudeDegrees>
            </Position>
            <AltitudeMeters>37.40000152587890625</AltitudeMeters>
            <DistanceMeters>NAN</DistanceMeters>
          </Trackpoint>
          <Trackpoint>
            <Time>2022-07-10T11:30:10.000Z</Time>
            <Position>
              <LatitudeDegrees>43.29603041522204875946044921875</LatitudeDegrees>
              <LongitudeDegrees>-2.25042633712291717529296875</LongitudeDegrees>
            </Position>
            <AltitudeMeters>37.40000152587890625</AltitudeMeters>
            <DistanceMeters>NAN</DistanceMeters>
          </Trackpoint>
          <Trackpoint>
            <Time>2022-07-10T11:30:15.000Z</Time>
            <Position>
              <LatitudeDegrees>43.2959240488708019256591796875</LatitudeDegrees>
              <LongitudeDegrees>-2.250561453402042388916015625</LongitudeDegrees>
            </Position>
            <AltitudeMeters>37.59999847412109375</AltitudeMeters>
            <DistanceMeters>NAN</DistanceMeters>
          </Trackpoint>
          <Trackpoint>
            <Time>2022-07-10T11:30:16.000Z</Time>
            <Position>
              <LatitudeDegrees>43.29590586014091968536376953125</LatitudeDegrees>
              <LongitudeDegrees>-2.2505938075482845306396484375</LongitudeDegrees>
            </Position>
            <AltitudeMeters>37.59999847412109375</AltitudeMeters>
            <DistanceMeters>NAN</DistanceMeters>
          </Trackpoint>
          <Trackpoint>
            <Time>2022-07-10T11:30:22.000Z</Time>
            <Position>
              <LatitudeDegrees>43.29579236917197704315185546875</LatitudeDegrees>
              <LongitudeDegrees>-2.250758595764636993408203125</LongitudeDegrees>
            </Position>
            <AltitudeMeters>38</AltitudeMeters>
            <DistanceMeters>NAN</DistanceMeters>
          </Trackpoint>
          <Trackpoint>
            <Time>2022-07-10T11:30:24.000Z</Time>
            <Position>
              <LatitudeDegrees>43.29580427147448062896728515625</LatitudeDegrees>
              <LongitudeDegrees>-2.2508392296731472015380859375</LongitudeDegrees>
            </Position>
            <AltitudeMeters>38</AltitudeMeters>
            <DistanceMeters>NAN</DistanceMeters>
          </Trackpoint>
          <Trackpoint>
            <Time>2022-07-10T11:30:26.000Z</Time>
            <Position>
              <LatitudeDegrees>43.295820616185665130615234375</LatitudeDegrees>
              <LongitudeDegrees>-2.250867225229740142822265625</LongitudeDegrees>
            </Position>
            <AltitudeMeters>38</AltitudeMeters>
            <DistanceMeters>NAN</DistanceMeters>
          </Trackpoint>
          <Trackpoint>
            <Time>2022-07-10T11:30:31.000Z</Time>
            <Position>
              <LatitudeDegrees>43.2959116436541080474853515625</LatitudeDegrees>
              <LongitudeDegrees>-2.25096370093524456024169921875</LongitudeDegrees>
            </Position>
            <AltitudeMeters>38.200000762939453125</AltitudeMeters>
            <DistanceMeters>NAN</DistanceMeters>
          </Trackpoint>
          <Trackpoint>
            <Time>2022-07-10T11:30:32.000Z</Time>
            <Position>
              <LatitudeDegrees>43.29593620263040065765380859375</LatitudeDegrees>
              <LongitudeDegrees>-2.25097577087581157684326171875</LongitudeDegrees>
            </Position>
            <AltitudeMeters>38.200000762939453125</AltitudeMeters>
            <DistanceMeters>NAN</DistanceMeters>
          </Trackpoint>
          <Trackpoint>
            <Time>2022-07-10T11:30:33.000Z</Time>
            <Position>
              <LatitudeDegrees>43.29593620263040065765380859375</LatitudeDegrees>
              <LongitudeDegrees>-2.25097577087581157684326171875</LongitudeDegrees>
            </Position>
            <AltitudeMeters>38.200000762939453125</AltitudeMeters>
            <DistanceMeters>NAN</DistanceMeters>
          </Trackpoint>
          <Trackpoint>
            <Time>2022-07-10T11:30:34.000Z</Time>
            <Position>
              <LatitudeDegrees>43.29596168361604213714599609375</LatitudeDegrees>
              <LongitudeDegrees>-2.25096772424876689910888671875</LongitudeDegrees>
            </Position>
            <AltitudeMeters>38.200000762939453125</AltitudeMeters>
            <DistanceMeters>NAN</DistanceMeters>
          </Trackpoint>
          <Trackpoint>
            <Time>2022-07-10T11:30:38.000Z</Time>
            <Position>
              <LatitudeDegrees>43.296021781861782073974609375</LatitudeDegrees>
              <LongitudeDegrees>-2.2508965618908405303955078125</LongitudeDegrees>
            </Position>
            <AltitudeMeters>38.200000762939453125</AltitudeMeters>
            <DistanceMeters>NAN</DistanceMeters>
          </Trackpoint>
          <Trackpoint>
            <Time>2022-07-10T11:30:39.000Z</Time>
            <Position>
              <LatitudeDegrees>43.29606511630117893218994140625</LatitudeDegrees>
              <LongitudeDegrees>-2.25083394907414913177490234375</LongitudeDegrees>
            </Position>
            <AltitudeMeters>38.200000762939453125</AltitudeMeters>
            <DistanceMeters>NAN</DistanceMeters>
          </Trackpoint>
          <Trackpoint>
            <Time>2022-07-10T11:30:45.000Z</Time>
            <Position>
              <LatitudeDegrees>43.29621029086410999298095703125</LatitudeDegrees>
              <LongitudeDegrees>-2.250658683478832244873046875</LongitudeDegrees>
            </Position>
            <AltitudeMeters>38.40000152587890625</AltitudeMeters>
            <DistanceMeters>NAN</DistanceMeters>
          </Trackpoint>
          <Trackpoint>
            <Time>2022-07-10T11:30:52.000Z</Time>
            <Position>
              <LatitudeDegrees>43.29638077877461910247802734375</LatitudeDegrees>
              <LongitudeDegrees>-2.25043849088251590728759765625</LongitudeDegrees>
            </Position>
            <AltitudeMeters>38.799999237060546875</AltitudeMeters>
            <DistanceMeters>NAN</DistanceMeters>
          </Trackpoint>
          <Trackpoint>
            <Time>2022-07-10T11:30:55.000Z</Time>
            <Position>
              <LatitudeDegrees>43.296424448490142822265625</LatitudeDegrees>
              <LongitudeDegrees>-2.25037981756031513214111328125</LongitudeDegrees>
            </Position>
            <AltitudeMeters>38.799999237060546875</AltitudeMeters>
            <DistanceMeters>NAN</DistanceMeters>
          </Trackpoint>
          <Trackpoint>
            <Time>2022-07-10T11:31:03.000Z</Time>
            <Position>
              <LatitudeDegrees>43.296606503427028656005859375</LatitudeDegrees>
              <LongitudeDegrees>-2.25012735463678836822509765625</LongitudeDegrees>
            </Position>
            <AltitudeMeters>38.40000152587890625</AltitudeMeters>
            <DistanceMeters>NAN</DistanceMeters>
          </Trackpoint>
          <Trackpoint>
            <Time>2022-07-10T11:31:08.000Z</Time>
            <Position>
              <LatitudeDegrees>43.29668001271784305572509765625</LatitudeDegrees>
              <LongitudeDegrees>-2.25005694665014743804931640625</LongitudeDegrees>
            </Position>
            <AltitudeMeters>38.40000152587890625</AltitudeMeters>
            <DistanceMeters>NAN</DistanceMeters>
          </Trackpoint>
          <Trackpoint>
            <Time>2022-07-10T11:31:09.000Z</Time>
            <Position>
              <LatitudeDegrees>43.2966931723058223724365234375</LatitudeDegrees>
              <LongitudeDegrees>-2.25005594082176685333251953125</LongitudeDegrees>
            </Position>
            <AltitudeMeters>38.40000152587890625</AltitudeMeters>
            <DistanceMeters>NAN</DistanceMeters>
          </Trackpoint>
          <Trackpoint>
            <Time>2022-07-10T11:31:10.000Z</Time>
            <Position>
              <LatitudeDegrees>43.29672150313854217529296875</LatitudeDegrees>
              <LongitudeDegrees>-2.25006499327719211578369140625</LongitudeDegrees>
            </Position>
            <AltitudeMeters>38.59999847412109375</AltitudeMeters>
            <DistanceMeters>NAN</DistanceMeters>
          </Trackpoint>
          <Trackpoint>
            <Time>2022-07-10T11:31:13.000Z</Time>
            <Position>
              <LatitudeDegrees>43.296752013266086578369140625</LatitudeDegrees>
              <LongitudeDegrees>-2.25006968714296817779541015625</LongitudeDegrees>
            </Position>
            <AltitudeMeters>38.799999237060546875</AltitudeMeters>
            <DistanceMeters>NAN</DistanceMeters>
          </Trackpoint>
          <Trackpoint>
            <Time>2022-07-10T11:31:15.000Z</Time>
            <Position>
              <LatitudeDegrees>43.29675612039864063262939453125</LatitudeDegrees>
              <LongitudeDegrees>-2.250065915286540985107421875</LongitudeDegrees>
            </Position>
            <AltitudeMeters>38.799999237060546875</AltitudeMeters>
            <DistanceMeters>NAN</DistanceMeters>
          </Trackpoint>
          <Trackpoint>
            <Time>2022-07-10T11:31:18.000Z</Time>
            <Position>
              <LatitudeDegrees>43.29677120782434940338134765625</LatitudeDegrees>
              <LongitudeDegrees>-2.25005242042243480682373046875</LongitudeDegrees>
            </Position>
            <AltitudeMeters>39</AltitudeMeters>
            <DistanceMeters>NAN</DistanceMeters>
          </Trackpoint>
          <Trackpoint>
            <Time>2022-07-10T11:31:21.000Z</Time>
            <Position>
              <LatitudeDegrees>43.2967676036059856414794921875</LatitudeDegrees>
              <LongitudeDegrees>-2.25003540515899658203125</LongitudeDegrees>
            </Position>
            <AltitudeMeters>39.200000762939453125</AltitudeMeters>
            <DistanceMeters>NAN</DistanceMeters>
          </Trackpoint>
          <Trackpoint>
            <Time>2022-07-10T11:31:22.000Z</Time>
            <Position>
              <LatitudeDegrees>43.29675192944705486297607421875</LatitudeDegrees>
              <LongitudeDegrees>-2.250034399330615997314453125</LongitudeDegrees>
            </Position>
            <AltitudeMeters>39.200000762939453125</AltitudeMeters>
            <DistanceMeters>NAN</DistanceMeters>
          </Trackpoint>
          <Trackpoint>
            <Time>2022-07-10T11:31:23.000Z</Time>
            <Position>
              <LatitudeDegrees>43.29675192944705486297607421875</LatitudeDegrees>
              <LongitudeDegrees>-2.250034399330615997314453125</LongitudeDegrees>
            </Position>
            <AltitudeMeters>39.200000762939453125</AltitudeMeters>
            <DistanceMeters>NAN</DistanceMeters>
          </Trackpoint>
          <Trackpoint>
            <Time>2022-07-10T11:31:25.000Z</Time>
            <Position>
              <LatitudeDegrees>43.29672762192785739898681640625</LatitudeDegrees>
              <LongitudeDegrees>-2.25008837878704071044921875</LongitudeDegrees>
            </Position>
            <AltitudeMeters>39.200000762939453125</AltitudeMeters>
            <DistanceMeters>NAN</DistanceMeters>
          </Trackpoint>
          <Trackpoint>
            <Time>2022-07-10T11:31:28.000Z</Time>
            <Position>
              <LatitudeDegrees>43.29668453894555568695068359375</LatitudeDegrees>
              <LongitudeDegrees>-2.2501706890761852264404296875</LongitudeDegrees>
            </Position>
            <AltitudeMeters>39.40000152587890625</AltitudeMeters>
            <DistanceMeters>NAN</DistanceMeters>
          </Trackpoint>
          <Trackpoint>
            <Time>2022-07-10T11:31:35.000Z</Time>
            <Position>
              <LatitudeDegrees>43.29652838408946990966796875</LatitudeDegrees>
              <LongitudeDegrees>-2.2504140995442867279052734375</LongitudeDegrees>
            </Position>
            <AltitudeMeters>40</AltitudeMeters>
            <DistanceMeters>NAN</DistanceMeters>
          </Trackpoint>
          <Trackpoint>
            <Time>2022-07-10T11:31:42.000Z</Time>
            <Position>
              <LatitudeDegrees>43.29639025032520294189453125</LatitudeDegrees>
              <LongitudeDegrees>-2.25059975869953632354736328125</LongitudeDegrees>
            </Position>
            <AltitudeMeters>39.799999237060546875</AltitudeMeters>
            <DistanceMeters>NAN</DistanceMeters>
          </Trackpoint>
          <Trackpoint>
            <Time>2022-07-10T11:31:45.000Z</Time>
            <Position>
              <LatitudeDegrees>43.296302743256092071533203125</LatitudeDegrees>
              <LongitudeDegrees>-2.2506992518901824951171875</LongitudeDegrees>
            </Position>
            <AltitudeMeters>39.799999237060546875</AltitudeMeters>
            <DistanceMeters>NAN</DistanceMeters>
          </Trackpoint>
          <Trackpoint>
            <Time>2022-07-10T11:31:48.000Z</Time>
            <Position>
              <LatitudeDegrees>43.296248428523540496826171875</LatitudeDegrees>
              <LongitudeDegrees>-2.2507745213806629180908203125</LongitudeDegrees>
            </Position>
            <AltitudeMeters>39.799999237060546875</AltitudeMeters>
            <DistanceMeters>NAN</DistanceMeters>
          </Trackpoint>
          <Trackpoint>
            <Time>2022-07-10T11:31:51.000Z</Time>
            <Position>
              <LatitudeDegrees>43.29619319178164005279541015625</LatitudeDegrees>
              <LongitudeDegrees>-2.250861190259456634521484375</LongitudeDegrees>
            </Position>
            <AltitudeMeters>40</AltitudeMeters>
            <DistanceMeters>NAN</DistanceMeters>
          </Trackpoint>
          <Trackpoint>
            <Time>2022-07-10T11:31:59.000Z</Time>
            <Position>
              <LatitudeDegrees>43.2960561476647853851318359375</LatitudeDegrees>
              <LongitudeDegrees>-2.25101231597363948822021484375</LongitudeDegrees>
            </Position>
            <AltitudeMeters>39.799999237060546875</AltitudeMeters>
            <DistanceMeters>NAN</DistanceMeters>
          </Trackpoint>
          <Trackpoint>
            <Time>2022-07-10T11:32:04.000Z</Time>
            <Position>
              <LatitudeDegrees>43.29600526951253414154052734375</LatitudeDegrees>
              <LongitudeDegrees>-2.25108792074024677276611328125</LongitudeDegrees>
            </Position>
            <AltitudeMeters>39.59999847412109375</AltitudeMeters>
            <DistanceMeters>NAN</DistanceMeters>
          </Trackpoint>
          <Trackpoint>
            <Time>2022-07-10T11:32:05.000Z</Time>
            <Position>
              <LatitudeDegrees>43.296005688607692718505859375</LatitudeDegrees>
              <LongitudeDegrees>-2.2511168383061885833740234375</LongitudeDegrees>
            </Position>
            <AltitudeMeters>39.59999847412109375</AltitudeMeters>
            <DistanceMeters>NAN</DistanceMeters>
          </Trackpoint>
          <Trackpoint>
            <Time>2022-07-10T11:32:08.000Z</Time>
            <Position>
              <LatitudeDegrees>43.296047262847423553466796875</LatitudeDegrees>
              <LongitudeDegrees>-2.25121180526912212371826171875</LongitudeDegrees>
            </Position>
            <AltitudeMeters>40</AltitudeMeters>
            <DistanceMeters>NAN</DistanceMeters>
          </Trackpoint>
          <Trackpoint>
            <Time>2022-07-10T11:32:09.000Z</Time>
            <Position>
              <LatitudeDegrees>43.29607182182371616363525390625</LatitudeDegrees>
              <LongitudeDegrees>-2.2512462548911571502685546875</LongitudeDegrees>
            </Position>
            <AltitudeMeters>40.200000762939453125</AltitudeMeters>
            <DistanceMeters>NAN</DistanceMeters>
          </Trackpoint>
          <Trackpoint>
            <Time>2022-07-10T11:32:14.000Z</Time>
            <Position>
              <LatitudeDegrees>43.2962147332727909088134765625</LatitudeDegrees>
              <LongitudeDegrees>-2.25146477110683917999267578125</LongitudeDegrees>
            </Position>
            <AltitudeMeters>39.200000762939453125</AltitudeMeters>
            <DistanceMeters>NAN</DistanceMeters>
          </Trackpoint>
          <Trackpoint>
            <Time>2022-07-10T11:32:17.000Z</Time>
            <Position>
              <LatitudeDegrees>43.2962827943265438079833984375</LatitudeDegrees>
              <LongitudeDegrees>-2.2515895776450634002685546875</LongitudeDegrees>
            </Position>
            <AltitudeMeters>38.200000762939453125</AltitudeMeters>
            <DistanceMeters>NAN</DistanceMeters>
          </Trackpoint>
          <Trackpoint>
            <Time>2022-07-10T11:32:19.000Z</Time>
            <Position>
              <LatitudeDegrees>43.29631154425442218780517578125</LatitudeDegrees>
              <LongitudeDegrees>-2.25159175693988800048828125</LongitudeDegrees>
            </Position>
            <AltitudeMeters>37.40000152587890625</AltitudeMeters>
            <DistanceMeters>NAN</DistanceMeters>
          </Trackpoint>
          <Trackpoint>
            <Time>2022-07-10T11:32:20.000Z</Time>
            <Position>
              <LatitudeDegrees>43.29630710184574127197265625</LatitudeDegrees>
              <LongitudeDegrees>-2.25156535394489765167236328125</LongitudeDegrees>
            </Position>
            <AltitudeMeters>37</AltitudeMeters>
            <DistanceMeters>NAN</DistanceMeters>
          </Trackpoint>
          <Trackpoint>
            <Time>2022-07-10T11:32:22.000Z</Time>
            <Position>
              <LatitudeDegrees>43.29629880376160144805908203125</LatitudeDegrees>
              <LongitudeDegrees>-2.25153668783605098724365234375</LongitudeDegrees>
            </Position>
            <AltitudeMeters>36.799999237060546875</AltitudeMeters>
            <DistanceMeters>NAN</DistanceMeters>
          </Trackpoint>
          <Trackpoint>
            <Time>2022-07-10T11:32:23.000Z</Time>
            <Position>
              <LatitudeDegrees>43.29626510851085186004638671875</LatitudeDegrees>
              <LongitudeDegrees>-2.2514829598367214202880859375</LongitudeDegrees>
            </Position>
            <AltitudeMeters>36.59999847412109375</AltitudeMeters>
            <DistanceMeters>NAN</DistanceMeters>
          </Trackpoint>
          <Trackpoint>
            <Time>2022-07-10T11:32:25.000Z</Time>
            <Position>
              <LatitudeDegrees>43.2962380349636077880859375</LatitudeDegrees>
              <LongitudeDegrees>-2.25139637477695941925048828125</LongitudeDegrees>
            </Position>
            <AltitudeMeters>36.40000152587890625</AltitudeMeters>
            <DistanceMeters>NAN</DistanceMeters>
          </Trackpoint>
          <Trackpoint>
            <Time>2022-07-10T11:32:28.000Z</Time>
            <Position>
              <LatitudeDegrees>43.29625404439866542816162109375</LatitudeDegrees>
              <LongitudeDegrees>-2.25128070451319217681884765625</LongitudeDegrees>
            </Position>
            <AltitudeMeters>36.200000762939453125</AltitudeMeters>
            <DistanceMeters>NAN</DistanceMeters>
          </Trackpoint>
          <Trackpoint>
            <Time>2022-07-10T11:32:35.000Z</Time>
            <Position>
              <LatitudeDegrees>43.2963981293141841888427734375</LatitudeDegrees>
              <LongitudeDegrees>-2.25101642310619354248046875</LongitudeDegrees>
            </Position>
            <AltitudeMeters>36.799999237060546875</AltitudeMeters>
            <DistanceMeters>NAN</DistanceMeters>
          </Trackpoint>
          <Trackpoint>
            <Time>2022-07-10T11:32:44.000Z</Time>
            <Position>
              <LatitudeDegrees>43.2966284640133380889892578125</LatitudeDegrees>
              <LongitudeDegrees>-2.250720374286174774169921875</LongitudeDegrees>
            </Position>
            <AltitudeMeters>37.40000152587890625</AltitudeMeters>
            <DistanceMeters>NAN</DistanceMeters>
          </Trackpoint>
          <Trackpoint>
            <Time>2022-07-10T11:32:48.000Z</Time>
            <Position>
              <LatitudeDegrees>43.2967327348887920379638671875</LatitudeDegrees>
              <LongitudeDegrees>-2.2506276704370975494384765625</LongitudeDegrees>
            </Position>
            <AltitudeMeters>37.40000152587890625</AltitudeMeters>
            <DistanceMeters>NAN</DistanceMeters>
          </Trackpoint>
          <Trackpoint>
            <Time>2022-07-10T11:32:56.000Z</Time>
            <Position>
              <LatitudeDegrees>43.29689727164804935455322265625</LatitudeDegrees>
              <LongitudeDegrees>-2.2504516504704952239990234375</LongitudeDegrees>
            </Position>
            <AltitudeMeters>37</AltitudeMeters>
            <DistanceMeters>NAN</DistanceMeters>
          </Trackpoint>
          <Trackpoint>
            <Time>2022-07-10T11:33:00.000Z</Time>
            <Position>
              <LatitudeDegrees>43.2970328070223331451416015625</LatitudeDegrees>
              <LongitudeDegrees>-2.25039817392826080322265625</LongitudeDegrees>
            </Position>
            <AltitudeMeters>37</AltitudeMeters>
            <DistanceMeters>NAN</DistanceMeters>
          </Trackpoint>
          <Trackpoint>
            <Time>2022-07-10T11:33:02.000Z</Time>
            <Position>
              <LatitudeDegrees>43.2970626465976238250732421875</LatitudeDegrees>
              <LongitudeDegrees>-2.25037612952291965484619140625</LongitudeDegrees>
            </Position>
            <AltitudeMeters>37</AltitudeMeters>
            <DistanceMeters>NAN</DistanceMeters>
          </Trackpoint>
          <Trackpoint>
            <Time>2022-07-10T11:33:04.000Z</Time>
            <Position>
              <LatitudeDegrees>43.2971052266657352447509765625</LatitudeDegrees>
              <LongitudeDegrees>-2.25034813396632671356201171875</LongitudeDegrees>
            </Position>
            <AltitudeMeters>37</AltitudeMeters>
            <DistanceMeters>NAN</DistanceMeters>
          </Trackpoint>
          <Trackpoint>
            <Time>2022-07-10T11:33:05.000Z</Time>
            <Position>
              <LatitudeDegrees>43.297126851975917816162109375</LatitudeDegrees>
              <LongitudeDegrees>-2.25032349117100238800048828125</LongitudeDegrees>
            </Position>
            <AltitudeMeters>37</AltitudeMeters>
            <DistanceMeters>NAN</DistanceMeters>
          </Trackpoint>
          <Trackpoint>
            <Time>2022-07-10T11:33:06.000Z</Time>
            <Position>
              <LatitudeDegrees>43.29714017920196056365966796875</LatitudeDegrees>
              <LongitudeDegrees>-2.250297255814075469970703125</LongitudeDegrees>
            </Position>
            <AltitudeMeters>37</AltitudeMeters>
            <DistanceMeters>NAN</DistanceMeters>
          </Trackpoint>
          <Trackpoint>
            <Time>2022-07-10T11:33:08.000Z</Time>
            <Position>
              <LatitudeDegrees>43.2971414364874362945556640625</LatitudeDegrees>
              <LongitudeDegrees>-2.250271104276180267333984375</LongitudeDegrees>
            </Position>
            <AltitudeMeters>36.59999847412109375</AltitudeMeters>
            <DistanceMeters>NAN</DistanceMeters>
          </Trackpoint>
          <Trackpoint>
            <Time>2022-07-10T11:33:12.000Z</Time>
            <Position>
              <LatitudeDegrees>43.29713162966072559356689453125</LatitudeDegrees>
              <LongitudeDegrees>-2.25024017505347728729248046875</LongitudeDegrees>
            </Position>
            <AltitudeMeters>36.200000762939453125</AltitudeMeters>
            <DistanceMeters>NAN</DistanceMeters>
          </Trackpoint>
          <Trackpoint>
            <Time>2022-07-10T11:33:14.000Z</Time>
            <Position>
              <LatitudeDegrees>43.2971179671585559844970703125</LatitudeDegrees>
              <LongitudeDegrees>-2.2502199746668338775634765625</LongitudeDegrees>
            </Position>
            <AltitudeMeters>36.200000762939453125</AltitudeMeters>
            <DistanceMeters>NAN</DistanceMeters>
          </Trackpoint>
          <Trackpoint>
            <Time>2022-07-10T11:33:16.000Z</Time>
            <Position>
              <LatitudeDegrees>43.29706826247274875640869140625</LatitudeDegrees>
              <LongitudeDegrees>-2.2501609660685062408447265625</LongitudeDegrees>
            </Position>
            <AltitudeMeters>36.200000762939453125</AltitudeMeters>
            <DistanceMeters>NAN</DistanceMeters>
          </Trackpoint>
          <Trackpoint>
            <Time>2022-07-10T11:33:20.000Z</Time>
            <Position>
              <LatitudeDegrees>43.29700447618961334228515625</LatitudeDegrees>
              <LongitudeDegrees>-2.25010036490857601165771484375</LongitudeDegrees>
            </Position>
            <AltitudeMeters>36.59999847412109375</AltitudeMeters>
            <DistanceMeters>NAN</DistanceMeters>
          </Trackpoint>
          <Trackpoint>
            <Time>2022-07-10T11:33:21.000Z</Time>
            <Position>
              <LatitudeDegrees>43.29700204543769359588623046875</LatitudeDegrees>
              <LongitudeDegrees>-2.25009684450924396514892578125</LongitudeDegrees>
            </Position>
            <AltitudeMeters>36.59999847412109375</AltitudeMeters>
            <DistanceMeters>NAN</DistanceMeters>
          </Trackpoint>
          <Trackpoint>
            <Time>2022-07-10T11:33:25.000Z</Time>
            <Position>
              <LatitudeDegrees>43.29699777066707611083984375</LatitudeDegrees>
              <LongitudeDegrees>-2.25009080953896045684814453125</LongitudeDegrees>
            </Position>
            <AltitudeMeters>36.59999847412109375</AltitudeMeters>
            <DistanceMeters>NAN</DistanceMeters>
          </Trackpoint>
          <Trackpoint>
            <Time>2022-07-10T11:33:27.000Z</Time>
            <Position>
              <LatitudeDegrees>43.29699416644871234893798828125</LatitudeDegrees>
              <LongitudeDegrees>-2.2500835172832012176513671875</LongitudeDegrees>
            </Position>
            <AltitudeMeters>36.59999847412109375</AltitudeMeters>
            <DistanceMeters>NAN</DistanceMeters>
          </Trackpoint>
          <Trackpoint>
            <Time>2022-07-10T11:33:32.000Z</Time>
            <Position>
              <LatitudeDegrees>43.2969935797154903411865234375</LatitudeDegrees>
              <LongitudeDegrees>-2.250072620809078216552734375</LongitudeDegrees>
            </Position>
            <AltitudeMeters>36.59999847412109375</AltitudeMeters>
            <DistanceMeters>NAN</DistanceMeters>
          </Trackpoint>
          <Trackpoint>
            <Time>2022-07-10T11:33:36.000Z</Time>
            <Position>
              <LatitudeDegrees>43.2969935797154903411865234375</LatitudeDegrees>
              <LongitudeDegrees>-2.250072620809078216552734375</LongitudeDegrees>
            </Position>
            <AltitudeMeters>36.40000152587890625</AltitudeMeters>
            <DistanceMeters>NAN</DistanceMeters>
          </Trackpoint>
          <Trackpoint>
            <Time>2022-07-10T13:53:07.000Z</Time>
            <Position>
              <LatitudeDegrees>43.29703356139361858367919921875</LatitudeDegrees>
              <LongitudeDegrees>-2.25006851367652416229248046875</LongitudeDegrees>
            </Position>
            <AltitudeMeters>46.40000152587890625</AltitudeMeters>
            <DistanceMeters>NAN</DistanceMeters>
          </Trackpoint>
          <Trackpoint>
            <Time>2022-07-10T13:53:08.000Z</Time>
            <Position>
              <LatitudeDegrees>43.29703398048877716064453125</LatitudeDegrees>
              <LongitudeDegrees>-2.2500597126781940460205078125</LongitudeDegrees>
            </Position>
            <AltitudeMeters>46.40000152587890625</AltitudeMeters>
            <DistanceMeters>NAN</DistanceMeters>
          </Trackpoint>
          <Trackpoint>
            <Time>2022-07-10T13:53:10.000Z</Time>
            <Position>
              <LatitudeDegrees>43.29703372903168201446533203125</LatitudeDegrees>
              <LongitudeDegrees>-2.25005753338336944580078125</LongitudeDegrees>
            </Position>
            <AltitudeMeters>46.40000152587890625</AltitudeMeters>
            <DistanceMeters>NAN</DistanceMeters>
          </Trackpoint>
          <Trackpoint>
            <Time>2022-07-10T13:53:11.000Z</Time>
            <Position>
              <LatitudeDegrees>43.2970341481268405914306640625</LatitudeDegrees>
              <LongitudeDegrees>-2.2500474750995635986328125</LongitudeDegrees>
            </Position>
            <AltitudeMeters>46.40000152587890625</AltitudeMeters>
            <DistanceMeters>NAN</DistanceMeters>
          </Trackpoint>
          <Trackpoint>
            <Time>2022-07-10T13:53:12.000Z</Time>
            <Position>
              <LatitudeDegrees>43.2970341481268405914306640625</LatitudeDegrees>
              <LongitudeDegrees>-2.2500474750995635986328125</LongitudeDegrees>
            </Position>
            <AltitudeMeters>48.40000152587890625</AltitudeMeters>
            <DistanceMeters>NAN</DistanceMeters>
          </Trackpoint>
          <Trackpoint>
            <Time>2022-07-10T13:53:13.000Z</Time>
            <Position>
              <LatitudeDegrees>43.2970341481268405914306640625</LatitudeDegrees>
              <LongitudeDegrees>-2.2500474750995635986328125</LongitudeDegrees>
            </Position>
            <AltitudeMeters>49.40000152587890625</AltitudeMeters>
            <DistanceMeters>NAN</DistanceMeters>
          </Trackpoint>
          <Trackpoint>
            <Time>2022-07-10T14:04:50.000Z</Time>
            <Position>
              <LatitudeDegrees>43.29673985950648784637451171875</LatitudeDegrees>
              <LongitudeDegrees>-2.2504352219402790069580078125</LongitudeDegrees>
            </Position>
            <AltitudeMeters>45.799999237060546875</AltitudeMeters>
            <DistanceMeters>NAN</DistanceMeters>
          </Trackpoint>
          <Trackpoint>
            <Time>2022-07-10T14:04:51.000Z</Time>
            <Position>
              <LatitudeDegrees>43.29671370796859264373779296875</LatitudeDegrees>
              <LongitudeDegrees>-2.2504080645740032196044921875</LongitudeDegrees>
            </Position>
            <AltitudeMeters>46</AltitudeMeters>
            <DistanceMeters>NAN</DistanceMeters>
          </Trackpoint>
          <Trackpoint>
            <Time>2022-07-10T14:10:26.000Z</Time>
            <Position>
              <LatitudeDegrees>43.29726657830178737640380859375</LatitudeDegrees>
              <LongitudeDegrees>-2.25016004405915737152099609375</LongitudeDegrees>
            </Position>
            <AltitudeMeters>46.200000762939453125</AltitudeMeters>
            <DistanceMeters>NAN</DistanceMeters>
          </Trackpoint>
          <Trackpoint>
            <Time>2022-07-10T14:10:30.000Z</Time>
            <Position>
              <LatitudeDegrees>43.29688511788845062255859375</LatitudeDegrees>
              <LongitudeDegrees>-2.2504560090601444244384765625</LongitudeDegrees>
            </Position>
            <AltitudeMeters>46.200000762939453125</AltitudeMeters>
            <DistanceMeters>NAN</DistanceMeters>
          </Trackpoint>
          <Trackpoint>
            <Time>2022-07-10T14:10:33.000Z</Time>
            <Position>
              <LatitudeDegrees>43.29671211540699005126953125</LatitudeDegrees>
              <LongitudeDegrees>-2.250513844192028045654296875</LongitudeDegrees>
            </Position>
            <AltitudeMeters>46.200000762939453125</AltitudeMeters>
            <DistanceMeters>NAN</DistanceMeters>
          </Trackpoint>
          <Trackpoint>
            <Time>2022-07-10T14:10:35.000Z</Time>
            <Position>
              <LatitudeDegrees>43.296791575849056243896484375</LatitudeDegrees>
              <LongitudeDegrees>-2.250556759536266326904296875</LongitudeDegrees>
            </Position>
            <AltitudeMeters>44.799999237060546875</AltitudeMeters>
            <DistanceMeters>NAN</DistanceMeters>
          </Trackpoint>
          <Trackpoint>
            <Time>2022-07-10T14:10:36.000Z</Time>
            <Position>
              <LatitudeDegrees>43.29678009264171123504638671875</LatitudeDegrees>
              <LongitudeDegrees>-2.25057276897132396697998046875</LongitudeDegrees>
            </Position>
            <AltitudeMeters>44.40000152587890625</AltitudeMeters>
            <DistanceMeters>NAN</DistanceMeters>
          </Trackpoint>
          <Trackpoint>
            <Time>2022-07-10T14:10:37.000Z</Time>
            <Position>
              <LatitudeDegrees>43.29677221365272998809814453125</LatitudeDegrees>
              <LongitudeDegrees>-2.250574529170989990234375</LongitudeDegrees>
            </Position>
            <AltitudeMeters>44.40000152587890625</AltitudeMeters>
            <DistanceMeters>NAN</DistanceMeters>
          </Trackpoint>
          <Trackpoint>
            <Time>2022-07-10T14:10:39.000Z</Time>
            <Position>
              <LatitudeDegrees>43.29679752700030803680419921875</LatitudeDegrees>
              <LongitudeDegrees>-2.250574864447116851806640625</LongitudeDegrees>
            </Position>
            <AltitudeMeters>44.200000762939453125</AltitudeMeters>
            <DistanceMeters>NAN</DistanceMeters>
          </Trackpoint>
          <Trackpoint>
            <Time>2022-07-10T14:10:40.000Z</Time>
            <Position>
              <LatitudeDegrees>43.296791575849056243896484375</LatitudeDegrees>
              <LongitudeDegrees>-2.2505636326968669891357421875</LongitudeDegrees>
            </Position>
            <AltitudeMeters>44.200000762939453125</AltitudeMeters>
            <DistanceMeters>NAN</DistanceMeters>
          </Trackpoint>
          <Trackpoint>
            <Time>2022-07-10T14:10:42.000Z</Time>
            <Position>
              <LatitudeDegrees>43.2967250235378742218017578125</LatitudeDegrees>
              <LongitudeDegrees>-2.2505736909806728363037109375</LongitudeDegrees>
            </Position>
            <AltitudeMeters>44.200000762939453125</AltitudeMeters>
            <DistanceMeters>NAN</DistanceMeters>
          </Trackpoint>
          <Trackpoint>
            <Time>2022-07-10T14:10:43.000Z</Time>
            <Position>
              <LatitudeDegrees>43.29672745428979396820068359375</LatitudeDegrees>
              <LongitudeDegrees>-2.2505676560103893280029296875</LongitudeDegrees>
            </Position>
            <AltitudeMeters>44</AltitudeMeters>
            <DistanceMeters>NAN</DistanceMeters>
          </Trackpoint>
          <Trackpoint>
            <Time>2022-07-10T14:10:45.000Z</Time>
            <Position>
              <LatitudeDegrees>43.2967384345829486846923828125</LatitudeDegrees>
              <LongitudeDegrees>-2.250565476715564727783203125</LongitudeDegrees>
            </Position>
            <AltitudeMeters>44</AltitudeMeters>
            <DistanceMeters>NAN</DistanceMeters>
          </Trackpoint>
          <Trackpoint>
            <Time>2022-07-10T14:10:46.000Z</Time>
            <Position>
              <LatitudeDegrees>43.2968212477862834930419921875</LatitudeDegrees>
              <LongitudeDegrees>-2.25054997019469738006591796875</LongitudeDegrees>
            </Position>
            <AltitudeMeters>44.200000762939453125</AltitudeMeters>
            <DistanceMeters>NAN</DistanceMeters>
          </Trackpoint>
          <Trackpoint>
            <Time>2022-07-10T14:10:48.000Z</Time>
            <Position>
              <LatitudeDegrees>43.29680859111249446868896484375</LatitudeDegrees>
              <LongitudeDegrees>-2.25048224441707134246826171875</LongitudeDegrees>
            </Position>
            <AltitudeMeters>44.200000762939453125</AltitudeMeters>
            <DistanceMeters>NAN</DistanceMeters>
          </Trackpoint>
          <Trackpoint>
            <Time>2022-07-10T14:10:49.000Z</Time>
            <Position>
              <LatitudeDegrees>43.29680708236992359161376953125</LatitudeDegrees>
              <LongitudeDegrees>-2.25046095438301563262939453125</LongitudeDegrees>
            </Position>
            <AltitudeMeters>44.200000762939453125</AltitudeMeters>
            <DistanceMeters>NAN</DistanceMeters>
          </Trackpoint>
          <Trackpoint>
            <Time>2022-07-10T14:10:53.000Z</Time>
            <Position>
              <LatitudeDegrees>43.2967924140393733978271484375</LatitudeDegrees>
              <LongitudeDegrees>-2.250398509204387664794921875</LongitudeDegrees>
            </Position>
            <AltitudeMeters>44</AltitudeMeters>
            <DistanceMeters>NAN</DistanceMeters>
          </Trackpoint>
          <Trackpoint>
            <Time>2022-07-10T14:10:54.000Z</Time>
            <Position>
              <LatitudeDegrees>43.2967843674123287200927734375</LatitudeDegrees>
              <LongitudeDegrees>-2.25038887001574039459228515625</LongitudeDegrees>
            </Position>
            <AltitudeMeters>44</AltitudeMeters>
            <DistanceMeters>NAN</DistanceMeters>
          </Trackpoint>
          <Trackpoint>
            <Time>2022-07-10T14:10:56.000Z</Time>
            <Position>
              <LatitudeDegrees>43.29675863496959209442138671875</LatitudeDegrees>
              <LongitudeDegrees>-2.2503966651856899261474609375</LongitudeDegrees>
            </Position>
            <AltitudeMeters>44</AltitudeMeters>
            <DistanceMeters>NAN</DistanceMeters>
          </Trackpoint>
          <Trackpoint>
            <Time>2022-07-10T14:16:13.000Z</Time>
            <Position>
              <LatitudeDegrees>43.29674958251416683197021484375</LatitudeDegrees>
              <LongitudeDegrees>-2.25057561881840229034423828125</LongitudeDegrees>
            </Position>
            <AltitudeMeters>41.799999237060546875</AltitudeMeters>
            <DistanceMeters>NAN</DistanceMeters>
          </Trackpoint>
          <Trackpoint>
            <Time>2022-07-10T14:16:14.000Z</Time>
            <Position>
              <LatitudeDegrees>43.29674757085740566253662109375</LatitudeDegrees>
              <LongitudeDegrees>-2.2505871020257472991943359375</LongitudeDegrees>
            </Position>
            <AltitudeMeters>41.799999237060546875</AltitudeMeters>
            <DistanceMeters>NAN</DistanceMeters>
          </Trackpoint>
          <Trackpoint>
            <Time>2022-07-10T14:16:15.000Z</Time>
            <Position>
              <LatitudeDegrees>43.296751677989959716796875</LatitudeDegrees>
              <LongitudeDegrees>-2.25059506483376026153564453125</LongitudeDegrees>
            </Position>
            <AltitudeMeters>41.799999237060546875</AltitudeMeters>
            <DistanceMeters>NAN</DistanceMeters>
          </Trackpoint>
          <Trackpoint>
            <Time>2022-07-10T14:16:17.000Z</Time>
            <Position>
              <LatitudeDegrees>43.29676844179630279541015625</LatitudeDegrees>
              <LongitudeDegrees>-2.2506025247275829315185546875</LongitudeDegrees>
            </Position>
            <AltitudeMeters>41.59999847412109375</AltitudeMeters>
            <DistanceMeters>NAN</DistanceMeters>
          </Trackpoint>
          <Trackpoint>
            <Time>2022-07-10T14:16:19.000Z</Time>
            <Position>
              <LatitudeDegrees>43.29678042791783809661865234375</LatitudeDegrees>
              <LongitudeDegrees>-2.2506125830113887786865234375</LongitudeDegrees>
            </Position>
            <AltitudeMeters>41.200000762939453125</AltitudeMeters>
            <DistanceMeters>NAN</DistanceMeters>
          </Trackpoint>
          <Trackpoint>
            <Time>2022-07-10T14:16:21.000Z</Time>
            <Position>
              <LatitudeDegrees>43.2967853732407093048095703125</LatitudeDegrees>
              <LongitudeDegrees>-2.250617779791355133056640625</LongitudeDegrees>
            </Position>
            <AltitudeMeters>41</AltitudeMeters>
            <DistanceMeters>NAN</DistanceMeters>
          </Trackpoint>
          <Trackpoint>
            <Time>2022-07-10T14:16:24.000Z</Time>
            <Position>
              <LatitudeDegrees>43.296783529222011566162109375</LatitudeDegrees>
              <LongitudeDegrees>-2.2506571747362613677978515625</LongitudeDegrees>
            </Position>
            <AltitudeMeters>40.799999237060546875</AltitudeMeters>
            <DistanceMeters>NAN</DistanceMeters>
          </Trackpoint>
          <Trackpoint>
            <Time>2022-07-10T14:16:26.000Z</Time>
            <Position>
              <LatitudeDegrees>43.29677506349980831146240234375</LatitudeDegrees>
              <LongitudeDegrees>-2.25069816224277019500732421875</LongitudeDegrees>
            </Position>
            <AltitudeMeters>40.799999237060546875</AltitudeMeters>
            <DistanceMeters>NAN</DistanceMeters>
          </Trackpoint>
          <Trackpoint>
            <Time>2022-07-10T14:16:29.000Z</Time>
            <Position>
              <LatitudeDegrees>43.29675595276057720184326171875</LatitudeDegrees>
              <LongitudeDegrees>-2.25077100098133087158203125</LongitudeDegrees>
            </Position>
            <AltitudeMeters>40.799999237060546875</AltitudeMeters>
            <DistanceMeters>NAN</DistanceMeters>
          </Trackpoint>
          <Trackpoint>
            <Time>2022-07-10T14:16:32.000Z</Time>
            <Position>
              <LatitudeDegrees>43.29674002714455127716064453125</LatitudeDegrees>
              <LongitudeDegrees>-2.2508479468524456024169921875</LongitudeDegrees>
            </Position>
            <AltitudeMeters>40.59999847412109375</AltitudeMeters>
            <DistanceMeters>NAN</DistanceMeters>
          </Trackpoint>
          <Trackpoint>
            <Time>2022-07-10T14:16:34.000Z</Time>
            <Position>
              <LatitudeDegrees>43.2967313937842845916748046875</LatitudeDegrees>
              <LongitudeDegrees>-2.2508828155696392059326171875</LongitudeDegrees>
            </Position>
            <AltitudeMeters>40.40000152587890625</AltitudeMeters>
            <DistanceMeters>NAN</DistanceMeters>
          </Trackpoint>
          <Trackpoint>
            <Time>2022-07-10T14:16:36.000Z</Time>
            <Position>
              <LatitudeDegrees>43.29672954976558685302734375</LatitudeDegrees>
              <LongitudeDegrees>-2.250886000692844390869140625</LongitudeDegrees>
            </Position>
            <AltitudeMeters>40.40000152587890625</AltitudeMeters>
            <DistanceMeters>NAN</DistanceMeters>
          </Trackpoint>
          <Trackpoint>
            <Time>2022-07-10T14:17:01.000Z</Time>
            <Position>
              <LatitudeDegrees>43.29666995443403720855712890625</LatitudeDegrees>
              <LongitudeDegrees>-2.25097962655127048492431640625</LongitudeDegrees>
            </Position>
            <AltitudeMeters>39.59999847412109375</AltitudeMeters>
            <DistanceMeters>NAN</DistanceMeters>
          </Trackpoint>
          <Trackpoint>
            <Time>2022-07-10T14:17:08.000Z</Time>
            <Position>
              <LatitudeDegrees>43.296512626111507415771484375</LatitudeDegrees>
              <LongitudeDegrees>-2.251183725893497467041015625</LongitudeDegrees>
            </Position>
            <AltitudeMeters>39.59999847412109375</AltitudeMeters>
            <DistanceMeters>NAN</DistanceMeters>
          </Trackpoint>
          <Trackpoint>
            <Time>2022-07-10T14:17:10.000Z</Time>
            <Position>
              <LatitudeDegrees>43.29647264443337917327880859375</LatitudeDegrees>
              <LongitudeDegrees>-2.2512278147041797637939453125</LongitudeDegrees>
            </Position>
            <AltitudeMeters>39.40000152587890625</AltitudeMeters>
            <DistanceMeters>NAN</DistanceMeters>
          </Trackpoint>
          <Trackpoint>
            <Time>2022-07-10T14:17:17.000Z</Time>
            <Position>
              <LatitudeDegrees>43.2963263802230358123779296875</LatitudeDegrees>
              <LongitudeDegrees>-2.25137324072420597076416015625</LongitudeDegrees>
            </Position>
            <AltitudeMeters>39.40000152587890625</AltitudeMeters>
            <DistanceMeters>NAN</DistanceMeters>
          </Trackpoint>
          <Trackpoint>
            <Time>2022-07-10T14:17:20.000Z</Time>
            <Position>
              <LatitudeDegrees>43.296266533434391021728515625</LatitudeDegrees>
              <LongitudeDegrees>-2.25143593735992908477783203125</LongitudeDegrees>
            </Position>
            <AltitudeMeters>39.200000762939453125</AltitudeMeters>
            <DistanceMeters>NAN</DistanceMeters>
          </Trackpoint>
          <Trackpoint>
            <Time>2022-07-10T14:17:22.000Z</Time>
            <Position>
              <LatitudeDegrees>43.29625924117863178253173828125</LatitudeDegrees>
              <LongitudeDegrees>-2.2514853067696094512939453125</LongitudeDegrees>
            </Position>
            <AltitudeMeters>39.40000152587890625</AltitudeMeters>
            <DistanceMeters>NAN</DistanceMeters>
          </Trackpoint>
          <Trackpoint>
            <Time>2022-07-10T14:17:25.000Z</Time>
            <Position>
              <LatitudeDegrees>43.2962916791439056396484375</LatitudeDegrees>
              <LongitudeDegrees>-2.2515396215021610260009765625</LongitudeDegrees>
            </Position>
            <AltitudeMeters>39.59999847412109375</AltitudeMeters>
            <DistanceMeters>NAN</DistanceMeters>
          </Trackpoint>
          <Trackpoint>
            <Time>2022-07-10T14:17:27.000Z</Time>
            <Position>
              <LatitudeDegrees>43.296314142644405364990234375</LatitudeDegrees>
              <LongitudeDegrees>-2.2515754960477352142333984375</LongitudeDegrees>
            </Position>
            <AltitudeMeters>39.799999237060546875</AltitudeMeters>
            <DistanceMeters>NAN</DistanceMeters>
          </Trackpoint>
          <Trackpoint>
            <Time>2022-07-10T14:17:29.000Z</Time>
            <Position>
              <LatitudeDegrees>43.2963265478610992431640625</LatitudeDegrees>
              <LongitudeDegrees>-2.25159469060599803924560546875</LongitudeDegrees>
            </Position>
            <AltitudeMeters>39.59999847412109375</AltitudeMeters>
            <DistanceMeters>NAN</DistanceMeters>
          </Trackpoint>
          <Trackpoint>
            <Time>2022-07-10T14:17:31.000Z</Time>
            <Position>
              <LatitudeDegrees>43.29630710184574127197265625</LatitudeDegrees>
              <LongitudeDegrees>-2.25158530287444591522216796875</LongitudeDegrees>
            </Position>
            <AltitudeMeters>39.59999847412109375</AltitudeMeters>
            <DistanceMeters>NAN</DistanceMeters>
          </Trackpoint>
          <Trackpoint>
            <Time>2022-07-10T14:17:37.000Z</Time>
            <Position>
              <LatitudeDegrees>43.296192772686481475830078125</LatitudeDegrees>
              <LongitudeDegrees>-2.251466028392314910888671875</LongitudeDegrees>
            </Position>
            <AltitudeMeters>39.799999237060546875</AltitudeMeters>
            <DistanceMeters>NAN</DistanceMeters>
          </Trackpoint>
          <Trackpoint>
            <Time>2022-07-10T14:17:44.000Z</Time>
            <Position>
              <LatitudeDegrees>43.2960819639265537261962890625</LatitudeDegrees>
              <LongitudeDegrees>-2.25132831372320652008056640625</LongitudeDegrees>
            </Position>
            <AltitudeMeters>40.40000152587890625</AltitudeMeters>
            <DistanceMeters>NAN</DistanceMeters>
          </Trackpoint>
          <Trackpoint>
            <Time>2022-07-10T14:17:45.000Z</Time>
            <Position>
              <LatitudeDegrees>43.29606595449149608612060546875</LatitudeDegrees>
              <LongitudeDegrees>-2.25130836479365825653076171875</LongitudeDegrees>
            </Position>
            <AltitudeMeters>40.59999847412109375</AltitudeMeters>
            <DistanceMeters>NAN</DistanceMeters>
          </Trackpoint>
          <Trackpoint>
            <Time>2022-07-10T14:17:47.000Z</Time>
            <Position>
              <LatitudeDegrees>43.29604382626712322235107421875</LatitudeDegrees>
              <LongitudeDegrees>-2.25126184523105621337890625</LongitudeDegrees>
            </Position>
            <AltitudeMeters>40.799999237060546875</AltitudeMeters>
            <DistanceMeters>NAN</DistanceMeters>
          </Trackpoint>
          <Trackpoint>
            <Time>2022-07-10T14:17:50.000Z</Time>
            <Position>
              <LatitudeDegrees>43.29599454067647457122802734375</LatitudeDegrees>
              <LongitudeDegrees>-2.25119017995893955230712890625</LongitudeDegrees>
            </Position>
            <AltitudeMeters>41.200000762939453125</AltitudeMeters>
            <DistanceMeters>NAN</DistanceMeters>
          </Trackpoint>
          <Trackpoint>
            <Time>2022-07-10T14:17:53.000Z</Time>
            <Position>
              <LatitudeDegrees>43.29595196060836315155029296875</LatitudeDegrees>
              <LongitudeDegrees>-2.25111742503941059112548828125</LongitudeDegrees>
            </Position>
            <AltitudeMeters>41.59999847412109375</AltitudeMeters>
            <DistanceMeters>NAN</DistanceMeters>
          </Trackpoint>
          <Trackpoint>
            <Time>2022-07-10T14:17:55.000Z</Time>
            <Position>
              <LatitudeDegrees>43.29591952264308929443359375</LatitudeDegrees>
              <LongitudeDegrees>-2.251074425876140594482421875</LongitudeDegrees>
            </Position>
            <AltitudeMeters>41.799999237060546875</AltitudeMeters>
            <DistanceMeters>NAN</DistanceMeters>
          </Trackpoint>
          <Trackpoint>
            <Time>2022-07-10T14:17:57.000Z</Time>
            <Position>
              <LatitudeDegrees>43.29588926397264003753662109375</LatitudeDegrees>
              <LongitudeDegrees>-2.2510370425879955291748046875</LongitudeDegrees>
            </Position>
            <AltitudeMeters>42</AltitudeMeters>
            <DistanceMeters>NAN</DistanceMeters>
          </Trackpoint>
          <Trackpoint>
            <Time>2022-07-10T14:17:58.000Z</Time>
            <Position>
              <LatitudeDegrees>43.295871913433074951171875</LatitudeDegrees>
              <LongitudeDegrees>-2.2510172612965106964111328125</LongitudeDegrees>
            </Position>
            <AltitudeMeters>42</AltitudeMeters>
            <DistanceMeters>NAN</DistanceMeters>
          </Trackpoint>
          <Trackpoint>
            <Time>2022-07-10T14:17:59.000Z</Time>
            <Position>
              <LatitudeDegrees>43.29585355706512928009033203125</LatitudeDegrees>
              <LongitudeDegrees>-2.25100594572722911834716796875</LongitudeDegrees>
            </Position>
            <AltitudeMeters>42</AltitudeMeters>
            <DistanceMeters>NAN</DistanceMeters>
          </Trackpoint>
          <Trackpoint>
            <Time>2022-07-10T14:18:00.000Z</Time>
            <Position>
              <LatitudeDegrees>43.29583260230720043182373046875</LatitudeDegrees>
              <LongitudeDegrees>-2.2509968094527721405029296875</LongitudeDegrees>
            </Position>
            <AltitudeMeters>42</AltitudeMeters>
            <DistanceMeters>NAN</DistanceMeters>
          </Trackpoint>
          <Trackpoint>
            <Time>2022-07-10T14:18:01.000Z</Time>
            <Position>
              <LatitudeDegrees>43.29581500031054019927978515625</LatitudeDegrees>
              <LongitudeDegrees>-2.250989936292171478271484375</LongitudeDegrees>
            </Position>
            <AltitudeMeters>42</AltitudeMeters>
            <DistanceMeters>NAN</DistanceMeters>
          </Trackpoint>
          <Trackpoint>
            <Time>2022-07-10T14:18:02.000Z</Time>
            <Position>
              <LatitudeDegrees>43.29579404555261135101318359375</LatitudeDegrees>
              <LongitudeDegrees>-2.250991947948932647705078125</LongitudeDegrees>
            </Position>
            <AltitudeMeters>42</AltitudeMeters>
            <DistanceMeters>NAN</DistanceMeters>
          </Trackpoint>
          <Trackpoint>
            <Time>2022-07-10T14:18:04.000Z</Time>
            <Position>
              <LatitudeDegrees>43.29575280658900737762451171875</LatitudeDegrees>
              <LongitudeDegrees>-2.250993289053440093994140625</LongitudeDegrees>
            </Position>
            <AltitudeMeters>42</AltitudeMeters>
            <DistanceMeters>NAN</DistanceMeters>
          </Trackpoint>
          <Trackpoint>
            <Time>2022-07-10T14:18:13.000Z</Time>
            <Position>
              <LatitudeDegrees>43.29555784352123737335205078125</LatitudeDegrees>
              <LongitudeDegrees>-2.25103427655994892120361328125</LongitudeDegrees>
            </Position>
            <AltitudeMeters>41.799999237060546875</AltitudeMeters>
            <DistanceMeters>NAN</DistanceMeters>
          </Trackpoint>
          <Trackpoint>
            <Time>2022-07-10T14:18:16.000Z</Time>
            <Position>
              <LatitudeDegrees>43.29548642970621585845947265625</LatitudeDegrees>
              <LongitudeDegrees>-2.25105741061270236968994140625</LongitudeDegrees>
            </Position>
            <AltitudeMeters>42</AltitudeMeters>
            <DistanceMeters>NAN</DistanceMeters>
          </Trackpoint>
          <Trackpoint>
            <Time>2022-07-10T14:18:18.000Z</Time>
            <Position>
              <LatitudeDegrees>43.29546346329152584075927734375</LatitudeDegrees>
              <LongitudeDegrees>-2.2510729171335697174072265625</LongitudeDegrees>
            </Position>
            <AltitudeMeters>42</AltitudeMeters>
            <DistanceMeters>NAN</DistanceMeters>
          </Trackpoint>
          <Trackpoint>
            <Time>2022-07-10T14:18:19.000Z</Time>
            <Position>
              <LatitudeDegrees>43.295415937900543212890625</LatitudeDegrees>
              <LongitudeDegrees>-2.25110828876495361328125</LongitudeDegrees>
            </Position>
            <AltitudeMeters>42.200000762939453125</AltitudeMeters>
            <DistanceMeters>NAN</DistanceMeters>
          </Trackpoint>
          <Trackpoint>
            <Time>2022-07-10T14:18:21.000Z</Time>
            <Position>
              <LatitudeDegrees>43.29537193290889263153076171875</LatitudeDegrees>
              <LongitudeDegrees>-2.25114374421536922454833984375</LongitudeDegrees>
            </Position>
            <AltitudeMeters>42.200000762939453125</AltitudeMeters>
            <DistanceMeters>NAN</DistanceMeters>
          </Trackpoint>
          <Trackpoint>
            <Time>2022-07-10T14:18:25.000Z</Time>
            <Position>
              <LatitudeDegrees>43.29528207890689373016357421875</LatitudeDegrees>
              <LongitudeDegrees>-2.2512469254434108734130859375</LongitudeDegrees>
            </Position>
            <AltitudeMeters>42.200000762939453125</AltitudeMeters>
            <DistanceMeters>NAN</DistanceMeters>
          </Trackpoint>
          <Trackpoint>
            <Time>2022-07-10T14:18:28.000Z</Time>
            <Position>
              <LatitudeDegrees>43.295222483575344085693359375</LatitudeDegrees>
              <LongitudeDegrees>-2.251363433897495269775390625</LongitudeDegrees>
            </Position>
            <AltitudeMeters>42.200000762939453125</AltitudeMeters>
            <DistanceMeters>NAN</DistanceMeters>
          </Trackpoint>
          <Trackpoint>
            <Time>2022-07-10T14:18:30.000Z</Time>
            <Position>
              <LatitudeDegrees>43.29518116079270839691162109375</LatitudeDegrees>
              <LongitudeDegrees>-2.25144331343472003936767578125</LongitudeDegrees>
            </Position>
            <AltitudeMeters>42</AltitudeMeters>
            <DistanceMeters>NAN</DistanceMeters>
          </Trackpoint>
          <Trackpoint>
            <Time>2022-07-10T14:18:37.000Z</Time>
            <Position>
              <LatitudeDegrees>43.29502098262310028076171875</LatitudeDegrees>
              <LongitudeDegrees>-2.2516780905425548553466796875</LongitudeDegrees>
            </Position>
            <AltitudeMeters>42.200000762939453125</AltitudeMeters>
            <DistanceMeters>NAN</DistanceMeters>
          </Trackpoint>
          <Trackpoint>
            <Time>2022-07-10T14:18:44.000Z</Time>
            <Position>
              <LatitudeDegrees>43.29489835537970066070556640625</LatitudeDegrees>
              <LongitudeDegrees>-2.2518406994640827178955078125</LongitudeDegrees>
            </Position>
            <AltitudeMeters>41.799999237060546875</AltitudeMeters>
            <DistanceMeters>NAN</DistanceMeters>
          </Trackpoint>
          <Trackpoint>
            <Time>2022-07-10T14:18:46.000Z</Time>
            <Position>
              <LatitudeDegrees>43.29489600844681262969970703125</LatitudeDegrees>
              <LongitudeDegrees>-2.25184061564505100250244140625</LongitudeDegrees>
            </Position>
            <AltitudeMeters>41.799999237060546875</AltitudeMeters>
            <DistanceMeters>NAN</DistanceMeters>
          </Trackpoint>
          <Trackpoint>
            <Time>2022-07-10T14:21:09.000Z</Time>
            <Position>
              <LatitudeDegrees>43.2948484830558300018310546875</LatitudeDegrees>
              <LongitudeDegrees>-2.25190666504204273223876953125</LongitudeDegrees>
            </Position>
            <AltitudeMeters>41.40000152587890625</AltitudeMeters>
            <DistanceMeters>NAN</DistanceMeters>
          </Trackpoint>
          <Trackpoint>
            <Time>2022-07-10T14:21:10.000Z</Time>
            <Position>
              <LatitudeDegrees>43.29483800567686557769775390625</LatitudeDegrees>
              <LongitudeDegrees>-2.25193239748477935791015625</LongitudeDegrees>
            </Position>
            <AltitudeMeters>41</AltitudeMeters>
            <DistanceMeters>NAN</DistanceMeters>
          </Trackpoint>
          <Trackpoint>
            <Time>2022-07-10T14:21:12.000Z</Time>
            <Position>
              <LatitudeDegrees>43.29481042921543121337890625</LatitudeDegrees>
              <LongitudeDegrees>-2.2519801743328571319580078125</LongitudeDegrees>
            </Position>
            <AltitudeMeters>40.799999237060546875</AltitudeMeters>
            <DistanceMeters>NAN</DistanceMeters>
          </Trackpoint>
          <Trackpoint>
            <Time>2022-07-10T14:21:19.000Z</Time>
            <Position>
              <LatitudeDegrees>43.294694758951663970947265625</LatitudeDegrees>
              <LongitudeDegrees>-2.25214353762567043304443359375</LongitudeDegrees>
            </Position>
            <AltitudeMeters>40.59999847412109375</AltitudeMeters>
            <DistanceMeters>NAN</DistanceMeters>
          </Trackpoint>
          <Trackpoint>
            <Time>2022-07-10T14:21:24.000Z</Time>
            <Position>
              <LatitudeDegrees>43.2946087606251239776611328125</LatitudeDegrees>
              <LongitudeDegrees>-2.25224948488175868988037109375</LongitudeDegrees>
            </Position>
            <AltitudeMeters>40.40000152587890625</AltitudeMeters>
            <DistanceMeters>NAN</DistanceMeters>
          </Trackpoint>
          <Trackpoint>
            <Time>2022-07-10T14:21:27.000Z</Time>
            <Position>
              <LatitudeDegrees>43.2945589721202850341796875</LatitudeDegrees>
              <LongitudeDegrees>-2.252327017486095428466796875</LongitudeDegrees>
            </Position>
            <AltitudeMeters>40.799999237060546875</AltitudeMeters>
            <DistanceMeters>NAN</DistanceMeters>
          </Trackpoint>
          <Trackpoint>
            <Time>2022-07-10T14:21:31.000Z</Time>
            <Position>
              <LatitudeDegrees>43.2944677770137786865234375</LatitudeDegrees>
              <LongitudeDegrees>-2.252461798489093780517578125</LongitudeDegrees>
            </Position>
            <AltitudeMeters>41</AltitudeMeters>
            <DistanceMeters>NAN</DistanceMeters>
          </Trackpoint>
          <Trackpoint>
            <Time>2022-07-10T14:21:34.000Z</Time>
            <Position>
              <LatitudeDegrees>43.2943918369710445404052734375</LatitudeDegrees>
              <LongitudeDegrees>-2.252555675804615020751953125</LongitudeDegrees>
            </Position>
            <AltitudeMeters>41</AltitudeMeters>
            <DistanceMeters>NAN</DistanceMeters>
          </Trackpoint>
          <Trackpoint>
            <Time>2022-07-10T14:21:43.000Z</Time>
            <Position>
              <LatitudeDegrees>43.2942124642431735992431640625</LatitudeDegrees>
              <LongitudeDegrees>-2.252794392406940460205078125</LongitudeDegrees>
            </Position>
            <AltitudeMeters>41.200000762939453125</AltitudeMeters>
            <DistanceMeters>NAN</DistanceMeters>
          </Trackpoint>
          <Trackpoint>
            <Time>2022-07-10T14:21:44.000Z</Time>
            <Position>
              <LatitudeDegrees>43.29419377259910106658935546875</LatitudeDegrees>
              <LongitudeDegrees>-2.25281886756420135498046875</LongitudeDegrees>
            </Position>
            <AltitudeMeters>41.200000762939453125</AltitudeMeters>
            <DistanceMeters>NAN</DistanceMeters>
          </Trackpoint>
          <Trackpoint>
            <Time>2022-07-10T14:21:52.000Z</Time>
            <Position>
              <LatitudeDegrees>43.29405714757740497589111328125</LatitudeDegrees>
              <LongitudeDegrees>-2.25302548147737979888916015625</LongitudeDegrees>
            </Position>
            <AltitudeMeters>40.59999847412109375</AltitudeMeters>
            <DistanceMeters>NAN</DistanceMeters>
          </Trackpoint>
          <Trackpoint>
            <Time>2022-07-10T14:21:59.000Z</Time>
            <Position>
              <LatitudeDegrees>43.29391985200345516204833984375</LatitudeDegrees>
              <LongitudeDegrees>-2.25328364409506320953369140625</LongitudeDegrees>
            </Position>
            <AltitudeMeters>40.40000152587890625</AltitudeMeters>
            <DistanceMeters>NAN</DistanceMeters>
          </Trackpoint>
          <Trackpoint>
            <Time>2022-07-10T14:22:03.000Z</Time>
            <Position>
              <LatitudeDegrees>43.29388431273400783538818359375</LatitudeDegrees>
              <LongitudeDegrees>-2.25345245562493801116943359375</LongitudeDegrees>
            </Position>
            <AltitudeMeters>40</AltitudeMeters>
            <DistanceMeters>NAN</DistanceMeters>
          </Trackpoint>
          <Trackpoint>
            <Time>2022-07-10T14:22:05.000Z</Time>
            <Position>
              <LatitudeDegrees>43.2938812114298343658447265625</LatitudeDegrees>
              <LongitudeDegrees>-2.25359545089304447174072265625</LongitudeDegrees>
            </Position>
            <AltitudeMeters>39.799999237060546875</AltitudeMeters>
            <DistanceMeters>NAN</DistanceMeters>
          </Trackpoint>
          <Trackpoint>
            <Time>2022-07-10T14:22:06.000Z</Time>
            <Position>
              <LatitudeDegrees>43.2938996516168117523193359375</LatitudeDegrees>
              <LongitudeDegrees>-2.25362579338252544403076171875</LongitudeDegrees>
            </Position>
            <AltitudeMeters>39.799999237060546875</AltitudeMeters>
            <DistanceMeters>NAN</DistanceMeters>
          </Trackpoint>
          <Trackpoint>
            <Time>2022-07-10T14:22:07.000Z</Time>
            <Position>
              <LatitudeDegrees>43.29391214065253734588623046875</LatitudeDegrees>
              <LongitudeDegrees>-2.25365395657718181610107421875</LongitudeDegrees>
            </Position>
            <AltitudeMeters>39.59999847412109375</AltitudeMeters>
            <DistanceMeters>NAN</DistanceMeters>
          </Trackpoint>
          <Trackpoint>
            <Time>2022-07-10T14:22:08.000Z</Time>
            <Position>
              <LatitudeDegrees>43.29392940737307071685791015625</LatitudeDegrees>
              <LongitudeDegrees>-2.253673486411571502685546875</LongitudeDegrees>
            </Position>
            <AltitudeMeters>39.59999847412109375</AltitudeMeters>
            <DistanceMeters>NAN</DistanceMeters>
          </Trackpoint>
          <Trackpoint>
            <Time>2022-07-10T14:22:11.000Z</Time>
            <Position>
              <LatitudeDegrees>43.29402697272598743438720703125</LatitudeDegrees>
              <LongitudeDegrees>-2.25369469262659549713134765625</LongitudeDegrees>
            </Position>
            <AltitudeMeters>39.200000762939453125</AltitudeMeters>
            <DistanceMeters>NAN</DistanceMeters>
          </Trackpoint>
          <Trackpoint>
            <Time>2022-07-10T14:22:13.000Z</Time>
            <Position>
              <LatitudeDegrees>43.29409738071262836456298828125</LatitudeDegrees>
              <LongitudeDegrees>-2.253736518323421478271484375</LongitudeDegrees>
            </Position>
            <AltitudeMeters>38.799999237060546875</AltitudeMeters>
            <DistanceMeters>NAN</DistanceMeters>
          </Trackpoint>
          <Trackpoint>
            <Time>2022-07-10T14:22:15.000Z</Time>
            <Position>
              <LatitudeDegrees>43.29419394023716449737548828125</LatitudeDegrees>
              <LongitudeDegrees>-2.2537998855113983154296875</LongitudeDegrees>
            </Position>
            <AltitudeMeters>38.59999847412109375</AltitudeMeters>
            <DistanceMeters>NAN</DistanceMeters>
          </Trackpoint>
          <Trackpoint>
            <Time>2022-07-10T14:22:16.000Z</Time>
            <Position>
              <LatitudeDegrees>43.29424004070460796356201171875</LatitudeDegrees>
              <LongitudeDegrees>-2.25382964126765727996826171875</LongitudeDegrees>
            </Position>
            <AltitudeMeters>38.40000152587890625</AltitudeMeters>
            <DistanceMeters>NAN</DistanceMeters>
          </Trackpoint>
          <Trackpoint>
            <Time>2022-07-10T14:22:17.000Z</Time>
            <Position>
              <LatitudeDegrees>43.2942684553563594818115234375</LatitudeDegrees>
              <LongitudeDegrees>-2.253878004848957061767578125</LongitudeDegrees>
            </Position>
            <AltitudeMeters>38.200000762939453125</AltitudeMeters>
            <DistanceMeters>NAN</DistanceMeters>
          </Trackpoint>
          <Trackpoint>
            <Time>2022-07-10T14:22:18.000Z</Time>
            <Position>
              <LatitudeDegrees>43.294287733733654022216796875</LatitudeDegrees>
              <LongitudeDegrees>-2.25393726490437984466552734375</LongitudeDegrees>
            </Position>
            <AltitudeMeters>38.200000762939453125</AltitudeMeters>
            <DistanceMeters>NAN</DistanceMeters>
          </Trackpoint>
          <Trackpoint>
            <Time>2022-07-10T14:22:21.000Z</Time>
            <Position>
              <LatitudeDegrees>43.294335342943668365478515625</LatitudeDegrees>
              <LongitudeDegrees>-2.25411144085228443145751953125</LongitudeDegrees>
            </Position>
            <AltitudeMeters>38.200000762939453125</AltitudeMeters>
            <DistanceMeters>NAN</DistanceMeters>
          </Trackpoint>
          <Trackpoint>
            <Time>2022-07-10T14:22:22.000Z</Time>
            <Position>
              <LatitudeDegrees>43.2943497598171234130859375</LatitudeDegrees>
              <LongitudeDegrees>-2.25416667759418487548828125</LongitudeDegrees>
            </Position>
            <AltitudeMeters>38.200000762939453125</AltitudeMeters>
            <DistanceMeters>NAN</DistanceMeters>
          </Trackpoint>
          <Trackpoint>
            <Time>2022-07-10T14:22:28.000Z</Time>
            <Position>
              <LatitudeDegrees>43.29442980699241161346435546875</LatitudeDegrees>
              <LongitudeDegrees>-2.25444336421787738800048828125</LongitudeDegrees>
            </Position>
            <AltitudeMeters>38</AltitudeMeters>
            <DistanceMeters>NAN</DistanceMeters>
          </Trackpoint>
          <Trackpoint>
            <Time>2022-07-10T14:22:32.000Z</Time>
            <Position>
              <LatitudeDegrees>43.29448043368756771087646484375</LatitudeDegrees>
              <LongitudeDegrees>-2.25460915826261043548583984375</LongitudeDegrees>
            </Position>
            <AltitudeMeters>37.59999847412109375</AltitudeMeters>
            <DistanceMeters>NAN</DistanceMeters>
          </Trackpoint>
          <Trackpoint>
            <Time>2022-07-10T14:22:33.000Z</Time>
            <Position>
              <LatitudeDegrees>43.29448998905718326568603515625</LatitudeDegrees>
              <LongitudeDegrees>-2.2546540014445781707763671875</LongitudeDegrees>
            </Position>
            <AltitudeMeters>37.59999847412109375</AltitudeMeters>
            <DistanceMeters>NAN</DistanceMeters>
          </Trackpoint>
          <Trackpoint>
            <Time>2022-07-10T14:22:34.000Z</Time>
            <Position>
              <LatitudeDegrees>43.29450457356870174407958984375</LatitudeDegrees>
              <LongitudeDegrees>-2.254696749150753021240234375</LongitudeDegrees>
            </Position>
            <AltitudeMeters>37.59999847412109375</AltitudeMeters>
            <DistanceMeters>NAN</DistanceMeters>
          </Trackpoint>
          <Trackpoint>
            <Time>2022-07-10T14:22:43.000Z</Time>
            <Position>
              <LatitudeDegrees>43.2946486584842205047607421875</LatitudeDegrees>
              <LongitudeDegrees>-2.25506714545190334320068359375</LongitudeDegrees>
            </Position>
            <AltitudeMeters>37.799999237060546875</AltitudeMeters>
            <DistanceMeters>NAN</DistanceMeters>
          </Trackpoint>
          <Trackpoint>
            <Time>2022-07-10T14:22:51.000Z</Time>
            <Position>
              <LatitudeDegrees>43.29480280168354511260986328125</LatitudeDegrees>
              <LongitudeDegrees>-2.25536654703319072723388671875</LongitudeDegrees>
            </Position>
            <AltitudeMeters>38.200000762939453125</AltitudeMeters>
            <DistanceMeters>NAN</DistanceMeters>
          </Trackpoint>
          <Trackpoint>
            <Time>2022-07-10T14:22:59.000Z</Time>
            <Position>
              <LatitudeDegrees>43.29498552717268466949462890625</LatitudeDegrees>
              <LongitudeDegrees>-2.25555463694036006927490234375</LongitudeDegrees>
            </Position>
            <AltitudeMeters>38.40000152587890625</AltitudeMeters>
            <DistanceMeters>NAN</DistanceMeters>
          </Trackpoint>
          <Trackpoint>
            <Time>2022-07-10T14:23:05.000Z</Time>
            <Position>
              <LatitudeDegrees>43.29511997289955615997314453125</LatitudeDegrees>
              <LongitudeDegrees>-2.255667038261890411376953125</LongitudeDegrees>
            </Position>
            <AltitudeMeters>38.200000762939453125</AltitudeMeters>
            <DistanceMeters>NAN</DistanceMeters>
          </Trackpoint>
          <Trackpoint>
            <Time>2022-07-10T14:23:11.000Z</Time>
            <Position>
              <LatitudeDegrees>43.29526129178702831268310546875</LatitudeDegrees>
              <LongitudeDegrees>-2.25580357946455478668212890625</LongitudeDegrees>
            </Position>
            <AltitudeMeters>38.200000762939453125</AltitudeMeters>
            <DistanceMeters>NAN</DistanceMeters>
          </Trackpoint>
          <Trackpoint>
            <Time>2022-07-10T14:23:13.000Z</Time>
            <Position>
              <LatitudeDegrees>43.29529347829520702362060546875</LatitudeDegrees>
              <LongitudeDegrees>-2.255842722952365875244140625</LongitudeDegrees>
            </Position>
            <AltitudeMeters>38.200000762939453125</AltitudeMeters>
            <DistanceMeters>NAN</DistanceMeters>
          </Trackpoint>
          <Trackpoint>
            <Time>2022-07-10T14:23:15.000Z</Time>
            <Position>
              <LatitudeDegrees>43.2953225634992122650146484375</LatitudeDegrees>
              <LongitudeDegrees>-2.255851440131664276123046875</LongitudeDegrees>
            </Position>
            <AltitudeMeters>38.200000762939453125</AltitudeMeters>
            <DistanceMeters>NAN</DistanceMeters>
          </Trackpoint>
          <Trackpoint>
            <Time>2022-07-10T14:23:17.000Z</Time>
            <Position>
              <LatitudeDegrees>43.2953460328280925750732421875</LatitudeDegrees>
              <LongitudeDegrees>-2.25587583146989345550537109375</LongitudeDegrees>
            </Position>
            <AltitudeMeters>38.200000762939453125</AltitudeMeters>
            <DistanceMeters>NAN</DistanceMeters>
          </Trackpoint>
          <Trackpoint>
            <Time>2022-07-10T14:23:21.000Z</Time>
            <Position>
              <LatitudeDegrees>43.29538065008819103240966796875</LatitudeDegrees>
              <LongitudeDegrees>-2.2559371031820774078369140625</LongitudeDegrees>
            </Position>
            <AltitudeMeters>38.200000762939453125</AltitudeMeters>
            <DistanceMeters>NAN</DistanceMeters>
          </Trackpoint>
          <Trackpoint>
            <Time>2022-07-10T14:23:23.000Z</Time>
            <Position>
              <LatitudeDegrees>43.29538215883076190948486328125</LatitudeDegrees>
              <LongitudeDegrees>-2.2559417970478534698486328125</LongitudeDegrees>
            </Position>
            <AltitudeMeters>38.200000762939453125</AltitudeMeters>
            <DistanceMeters>NAN</DistanceMeters>
          </Trackpoint>
          <Trackpoint>
            <Time>2022-07-10T14:23:50.000Z</Time>
            <Position>
              <LatitudeDegrees>43.2953282631933689117431640625</LatitudeDegrees>
              <LongitudeDegrees>-2.25590919144451618194580078125</LongitudeDegrees>
            </Position>
            <AltitudeMeters>38.200000762939453125</AltitudeMeters>
            <DistanceMeters>NAN</DistanceMeters>
          </Trackpoint>
          <Trackpoint>
            <Time>2022-07-10T14:23:51.000Z</Time>
            <Position>
              <LatitudeDegrees>43.2953027822077274322509765625</LatitudeDegrees>
              <LongitudeDegrees>-2.25590265356004238128662109375</LongitudeDegrees>
            </Position>
            <AltitudeMeters>38.200000762939453125</AltitudeMeters>
            <DistanceMeters>NAN</DistanceMeters>
          </Trackpoint>
          <Trackpoint>
            <Time>2022-07-10T14:23:56.000Z</Time>
            <Position>
              <LatitudeDegrees>43.295183591544628143310546875</LatitudeDegrees>
              <LongitudeDegrees>-2.25593961775302886962890625</LongitudeDegrees>
            </Position>
            <AltitudeMeters>38.59999847412109375</AltitudeMeters>
            <DistanceMeters>NAN</DistanceMeters>
          </Trackpoint>
          <Trackpoint>
            <Time>2022-07-10T14:23:57.000Z</Time>
            <Position>
              <LatitudeDegrees>43.29515366815030574798583984375</LatitudeDegrees>
              <LongitudeDegrees>-2.25596451200544834136962890625</LongitudeDegrees>
            </Position>
            <AltitudeMeters>38.59999847412109375</AltitudeMeters>
            <DistanceMeters>NAN</DistanceMeters>
          </Trackpoint>
          <Trackpoint>
            <Time>2022-07-10T14:24:01.000Z</Time>
            <Position>
              <LatitudeDegrees>43.29504386521875858306884765625</LatitudeDegrees>
              <LongitudeDegrees>-2.25602972321212291717529296875</LongitudeDegrees>
            </Position>
            <AltitudeMeters>38.799999237060546875</AltitudeMeters>
            <DistanceMeters>NAN</DistanceMeters>
          </Trackpoint>
          <Trackpoint>
            <Time>2022-07-10T14:24:02.000Z</Time>
            <Position>
              <LatitudeDegrees>43.29502358101308345794677734375</LatitudeDegrees>
              <LongitudeDegrees>-2.25603349506855010986328125</LongitudeDegrees>
            </Position>
            <AltitudeMeters>38.799999237060546875</AltitudeMeters>
            <DistanceMeters>NAN</DistanceMeters>
          </Trackpoint>
          <Trackpoint>
            <Time>2022-07-10T14:24:03.000Z</Time>
            <Position>
              <LatitudeDegrees>43.2950040511786937713623046875</LatitudeDegrees>
              <LongitudeDegrees>-2.2560261189937591552734375</LongitudeDegrees>
            </Position>
            <AltitudeMeters>38.799999237060546875</AltitudeMeters>
            <DistanceMeters>NAN</DistanceMeters>
          </Trackpoint>
          <Trackpoint>
            <Time>2022-07-10T14:24:09.000Z</Time>
            <Position>
              <LatitudeDegrees>43.2948736287653446197509765625</LatitudeDegrees>
              <LongitudeDegrees>-2.2559025697410106658935546875</LongitudeDegrees>
            </Position>
            <AltitudeMeters>38.799999237060546875</AltitudeMeters>
            <DistanceMeters>NAN</DistanceMeters>
          </Trackpoint>
          <Trackpoint>
            <Time>2022-07-10T14:24:12.000Z</Time>
            <Position>
              <LatitudeDegrees>43.2948099263012409210205078125</LatitudeDegrees>
              <LongitudeDegrees>-2.25583174265921115875244140625</LongitudeDegrees>
            </Position>
            <AltitudeMeters>39</AltitudeMeters>
            <DistanceMeters>NAN</DistanceMeters>
          </Trackpoint>
          <Trackpoint>
            <Time>2022-07-10T14:24:14.000Z</Time>
            <Position>
              <LatitudeDegrees>43.29476458020508289337158203125</LatitudeDegrees>
              <LongitudeDegrees>-2.25581749342381954193115234375</LongitudeDegrees>
            </Position>
            <AltitudeMeters>38.799999237060546875</AltitudeMeters>
            <DistanceMeters>NAN</DistanceMeters>
          </Trackpoint>
          <Trackpoint>
            <Time>2022-07-10T14:24:16.000Z</Time>
            <Position>
              <LatitudeDegrees>43.29472149722278118133544921875</LatitudeDegrees>
              <LongitudeDegrees>-2.25584163330495357513427734375</LongitudeDegrees>
            </Position>
            <AltitudeMeters>39</AltitudeMeters>
            <DistanceMeters>NAN</DistanceMeters>
          </Trackpoint>
          <Trackpoint>
            <Time>2022-07-10T14:24:18.000Z</Time>
            <Position>
              <LatitudeDegrees>43.29470741562545299530029296875</LatitudeDegrees>
              <LongitudeDegrees>-2.25588840432465076446533203125</LongitudeDegrees>
            </Position>
            <AltitudeMeters>39</AltitudeMeters>
            <DistanceMeters>NAN</DistanceMeters>
          </Trackpoint>
          <Trackpoint>
            <Time>2022-07-10T14:24:23.000Z</Time>
            <Position>
              <LatitudeDegrees>43.29471655189990997314453125</LatitudeDegrees>
              <LongitudeDegrees>-2.25591757334768772125244140625</LongitudeDegrees>
            </Position>
            <AltitudeMeters>39.200000762939453125</AltitudeMeters>
            <DistanceMeters>NAN</DistanceMeters>
          </Trackpoint>
          <Trackpoint>
            <Time>2022-07-10T14:24:25.000Z</Time>
            <Position>
              <LatitudeDegrees>43.294729292392730712890625</LatitudeDegrees>
              <LongitudeDegrees>-2.25593685172498226165771484375</LongitudeDegrees>
            </Position>
            <AltitudeMeters>39.40000152587890625</AltitudeMeters>
            <DistanceMeters>NAN</DistanceMeters>
          </Trackpoint>
          <Trackpoint>
            <Time>2022-07-10T14:24:27.000Z</Time>
            <Position>
              <LatitudeDegrees>43.29473909921944141387939453125</LatitudeDegrees>
              <LongitudeDegrees>-2.255939282476902008056640625</LongitudeDegrees>
            </Position>
            <AltitudeMeters>39.40000152587890625</AltitudeMeters>
            <DistanceMeters>NAN</DistanceMeters>
          </Trackpoint>
          <Trackpoint>
            <Time>2022-07-10T14:24:29.000Z</Time>
            <Position>
              <LatitudeDegrees>43.294756114482879638671875</LatitudeDegrees>
              <LongitudeDegrees>-2.25595646537840366363525390625</LongitudeDegrees>
            </Position>
            <AltitudeMeters>39.40000152587890625</AltitudeMeters>
            <DistanceMeters>NAN</DistanceMeters>
          </Trackpoint>
          <Trackpoint>
            <Time>2022-07-10T14:24:32.000Z</Time>
            <Position>
              <LatitudeDegrees>43.2947596348822116851806640625</LatitudeDegrees>
              <LongitudeDegrees>-2.2559642605483531951904296875</LongitudeDegrees>
            </Position>
            <AltitudeMeters>39.200000762939453125</AltitudeMeters>
            <DistanceMeters>NAN</DistanceMeters>
          </Trackpoint>
          <Trackpoint>
            <Time>2022-07-10T14:24:34.000Z</Time>
            <Position>
              <LatitudeDegrees>43.29476357437670230865478515625</LatitudeDegrees>
              <LongitudeDegrees>-2.255969457328319549560546875</LongitudeDegrees>
            </Position>
            <AltitudeMeters>39</AltitudeMeters>
            <DistanceMeters>NAN</DistanceMeters>
          </Trackpoint>
          <Trackpoint>
            <Time>2022-07-10T14:26:45.000Z</Time>
            <Position>
              <LatitudeDegrees>43.2949772290885448455810546875</LatitudeDegrees>
              <LongitudeDegrees>-2.25601128302514553070068359375</LongitudeDegrees>
            </Position>
            <AltitudeMeters>41.59999847412109375</AltitudeMeters>
            <DistanceMeters>NAN</DistanceMeters>
          </Trackpoint>
          <Trackpoint>
            <Time>2022-07-10T14:26:47.000Z</Time>
            <Position>
              <LatitudeDegrees>43.29492484219372272491455078125</LatitudeDegrees>
              <LongitudeDegrees>-2.25594104267656803131103515625</LongitudeDegrees>
            </Position>
            <AltitudeMeters>41.40000152587890625</AltitudeMeters>
            <DistanceMeters>NAN</DistanceMeters>
          </Trackpoint>
          <Trackpoint>
            <Time>2022-07-10T14:26:54.000Z</Time>
            <Position>
              <LatitudeDegrees>43.2948873750865459442138671875</LatitudeDegrees>
              <LongitudeDegrees>-2.2558777593076229095458984375</LongitudeDegrees>
            </Position>
            <AltitudeMeters>41.59999847412109375</AltitudeMeters>
            <DistanceMeters>NAN</DistanceMeters>
          </Trackpoint>
          <Trackpoint>
            <Time>2022-07-10T14:27:30.000Z</Time>
            <Position>
              <LatitudeDegrees>43.29492718912661075592041015625</LatitudeDegrees>
              <LongitudeDegrees>-2.25603994913399219512939453125</LongitudeDegrees>
            </Position>
            <AltitudeMeters>42.40000152587890625</AltitudeMeters>
            <DistanceMeters>NAN</DistanceMeters>
          </Trackpoint>
          <Trackpoint>
            <Time>2022-07-10T14:27:31.000Z</Time>
            <Position>
              <LatitudeDegrees>43.29494043253362178802490234375</LatitudeDegrees>
              <LongitudeDegrees>-2.25605034269392490386962890625</LongitudeDegrees>
            </Position>
            <AltitudeMeters>42.40000152587890625</AltitudeMeters>
            <DistanceMeters>NAN</DistanceMeters>
          </Trackpoint>
          <Trackpoint>
            <Time>2022-07-10T14:27:34.000Z</Time>
            <Position>
              <LatitudeDegrees>43.29499390907585620880126953125</LatitudeDegrees>
              <LongitudeDegrees>-2.25609811954200267791748046875</LongitudeDegrees>
            </Position>
            <AltitudeMeters>42.59999847412109375</AltitudeMeters>
            <DistanceMeters>NAN</DistanceMeters>
          </Trackpoint>
          <Trackpoint>
            <Time>2022-07-10T14:27:36.000Z</Time>
            <Position>
              <LatitudeDegrees>43.29504352994263172149658203125</LatitudeDegrees>
              <LongitudeDegrees>-2.2561315633356571197509765625</LongitudeDegrees>
            </Position>
            <AltitudeMeters>42.799999237060546875</AltitudeMeters>
            <DistanceMeters>NAN</DistanceMeters>
          </Trackpoint>
          <Trackpoint>
            <Time>2022-07-10T14:27:38.000Z</Time>
            <Position>
              <LatitudeDegrees>43.29507605172693729400634765625</LatitudeDegrees>
              <LongitudeDegrees>-2.25615913979709148406982421875</LongitudeDegrees>
            </Position>
            <AltitudeMeters>42.799999237060546875</AltitudeMeters>
            <DistanceMeters>NAN</DistanceMeters>
          </Trackpoint>
          <Trackpoint>
            <Time>2022-07-10T14:27:41.000Z</Time>
            <Position>
              <LatitudeDegrees>43.29512416385114192962646484375</LatitudeDegrees>
              <LongitudeDegrees>-2.2562634944915771484375</LongitudeDegrees>
            </Position>
            <AltitudeMeters>42.799999237060546875</AltitudeMeters>
            <DistanceMeters>NAN</DistanceMeters>
          </Trackpoint>
          <Trackpoint>
            <Time>2022-07-10T14:27:44.000Z</Time>
            <Position>
              <LatitudeDegrees>43.29518132843077182769775390625</LatitudeDegrees>
              <LongitudeDegrees>-2.25636516697704792022705078125</LongitudeDegrees>
            </Position>
            <AltitudeMeters>43</AltitudeMeters>
            <DistanceMeters>NAN</DistanceMeters>
          </Trackpoint>
          <Trackpoint>
            <Time>2022-07-10T14:27:46.000Z</Time>
            <Position>
              <LatitudeDegrees>43.295227847993373870849609375</LatitudeDegrees>
              <LongitudeDegrees>-2.256381176412105560302734375</LongitudeDegrees>
            </Position>
            <AltitudeMeters>43</AltitudeMeters>
            <DistanceMeters>NAN</DistanceMeters>
          </Trackpoint>
          <Trackpoint>
            <Time>2022-07-10T14:27:49.000Z</Time>
            <Position>
              <LatitudeDegrees>43.295281827449798583984375</LatitudeDegrees>
              <LongitudeDegrees>-2.2563743032515048980712890625</LongitudeDegrees>
            </Position>
            <AltitudeMeters>43.200000762939453125</AltitudeMeters>
            <DistanceMeters>NAN</DistanceMeters>
          </Trackpoint>
          <Trackpoint>
            <Time>2022-07-10T14:27:51.000Z</Time>
            <Position>
              <LatitudeDegrees>43.29532549716532230377197265625</LatitudeDegrees>
              <LongitudeDegrees>-2.2563803382217884063720703125</LongitudeDegrees>
            </Position>
            <AltitudeMeters>43.40000152587890625</AltitudeMeters>
            <DistanceMeters>NAN</DistanceMeters>
          </Trackpoint>
          <Trackpoint>
            <Time>2022-07-10T14:27:57.000Z</Time>
            <Position>
              <LatitudeDegrees>43.29543245024979114532470703125</LatitudeDegrees>
              <LongitudeDegrees>-2.256506569683551788330078125</LongitudeDegrees>
            </Position>
            <AltitudeMeters>43.40000152587890625</AltitudeMeters>
            <DistanceMeters>NAN</DistanceMeters>
          </Trackpoint>
          <Trackpoint>
            <Time>2022-07-10T14:28:03.000Z</Time>
            <Position>
              <LatitudeDegrees>43.29554937779903411865234375</LatitudeDegrees>
              <LongitudeDegrees>-2.25654554553329944610595703125</LongitudeDegrees>
            </Position>
            <AltitudeMeters>43.59999847412109375</AltitudeMeters>
            <DistanceMeters>NAN</DistanceMeters>
          </Trackpoint>
          <Trackpoint>
            <Time>2022-07-10T14:28:04.000Z</Time>
            <Position>
              <LatitudeDegrees>43.29556656070053577423095703125</LatitudeDegrees>
              <LongitudeDegrees>-2.256546132266521453857421875</LongitudeDegrees>
            </Position>
            <AltitudeMeters>43.59999847412109375</AltitudeMeters>
            <DistanceMeters>NAN</DistanceMeters>
          </Trackpoint>
          <Trackpoint>
            <Time>2022-07-10T14:28:07.000Z</Time>
            <Position>
              <LatitudeDegrees>43.29560562036931514739990234375</LatitudeDegrees>
              <LongitudeDegrees>-2.25659407675266265869140625</LongitudeDegrees>
            </Position>
            <AltitudeMeters>43.59999847412109375</AltitudeMeters>
            <DistanceMeters>NAN</DistanceMeters>
          </Trackpoint>
          <Trackpoint>
            <Time>2022-07-10T14:28:10.000Z</Time>
            <Position>
              <LatitudeDegrees>43.295634202659130096435546875</LatitudeDegrees>
              <LongitudeDegrees>-2.25665635429322719573974609375</LongitudeDegrees>
            </Position>
            <AltitudeMeters>43.799999237060546875</AltitudeMeters>
            <DistanceMeters>NAN</DistanceMeters>
          </Trackpoint>
          <Trackpoint>
            <Time>2022-07-10T14:28:12.000Z</Time>
            <Position>
              <LatitudeDegrees>43.2956803031265735626220703125</LatitudeDegrees>
              <LongitudeDegrees>-2.25668049417436122894287109375</LongitudeDegrees>
            </Position>
            <AltitudeMeters>43.799999237060546875</AltitudeMeters>
            <DistanceMeters>NAN</DistanceMeters>
          </Trackpoint>
          <Trackpoint>
            <Time>2022-07-10T14:28:17.000Z</Time>
            <Position>
              <LatitudeDegrees>43.29582354985177516937255859375</LatitudeDegrees>
              <LongitudeDegrees>-2.256621904671192169189453125</LongitudeDegrees>
            </Position>
            <AltitudeMeters>43.40000152587890625</AltitudeMeters>
            <DistanceMeters>NAN</DistanceMeters>
          </Trackpoint>
          <Trackpoint>
            <Time>2022-07-10T14:28:24.000Z</Time>
            <Position>
              <LatitudeDegrees>43.295973502099514007568359375</LatitudeDegrees>
              <LongitudeDegrees>-2.25636474788188934326171875</LongitudeDegrees>
            </Position>
            <AltitudeMeters>43.40000152587890625</AltitudeMeters>
            <DistanceMeters>NAN</DistanceMeters>
          </Trackpoint>
          <Trackpoint>
            <Time>2022-07-10T14:28:28.000Z</Time>
            <Position>
              <LatitudeDegrees>43.2960501126945018768310546875</LatitudeDegrees>
              <LongitudeDegrees>-2.2562849521636962890625</LongitudeDegrees>
            </Position>
            <AltitudeMeters>43.799999237060546875</AltitudeMeters>
            <DistanceMeters>NAN</DistanceMeters>
          </Trackpoint>
          <Trackpoint>
            <Time>2022-07-10T14:28:29.000Z</Time>
            <Position>
              <LatitudeDegrees>43.2960638590157032012939453125</LatitudeDegrees>
              <LongitudeDegrees>-2.2562874667346477508544921875</LongitudeDegrees>
            </Position>
            <AltitudeMeters>44</AltitudeMeters>
            <DistanceMeters>NAN</DistanceMeters>
          </Trackpoint>
          <Trackpoint>
            <Time>2022-07-10T14:28:34.000Z</Time>
            <Position>
              <LatitudeDegrees>43.29613745212554931640625</LatitudeDegrees>
              <LongitudeDegrees>-2.25634622387588024139404296875</LongitudeDegrees>
            </Position>
            <AltitudeMeters>44.59999847412109375</AltitudeMeters>
            <DistanceMeters>NAN</DistanceMeters>
          </Trackpoint>
          <Trackpoint>
            <Time>2022-07-10T14:28:35.000Z</Time>
            <Position>
              <LatitudeDegrees>43.29615413211286067962646484375</LatitudeDegrees>
              <LongitudeDegrees>-2.25636206567287445068359375</LongitudeDegrees>
            </Position>
            <AltitudeMeters>44.799999237060546875</AltitudeMeters>
            <DistanceMeters>NAN</DistanceMeters>
          </Trackpoint>
          <Trackpoint>
            <Time>2022-07-10T14:28:39.000Z</Time>
            <Position>
              <LatitudeDegrees>43.2962085306644439697265625</LatitudeDegrees>
              <LongitudeDegrees>-2.256414704024791717529296875</LongitudeDegrees>
            </Position>
            <AltitudeMeters>45.40000152587890625</AltitudeMeters>
            <DistanceMeters>NAN</DistanceMeters>
          </Trackpoint>
          <Trackpoint>
            <Time>2022-07-10T14:28:40.000Z</Time>
            <Position>
              <LatitudeDegrees>43.29620978794991970062255859375</LatitudeDegrees>
              <LongitudeDegrees>-2.2564232535660266876220703125</LongitudeDegrees>
            </Position>
            <AltitudeMeters>45.40000152587890625</AltitudeMeters>
            <DistanceMeters>NAN</DistanceMeters>
          </Trackpoint>
          <Trackpoint>
            <Time>2022-07-10T14:28:42.000Z</Time>
            <Position>
              <LatitudeDegrees>43.29620693810284137725830078125</LatitudeDegrees>
              <LongitudeDegrees>-2.25642870180308818817138671875</LongitudeDegrees>
            </Position>
            <AltitudeMeters>45.59999847412109375</AltitudeMeters>
            <DistanceMeters>NAN</DistanceMeters>
          </Trackpoint>
          <Trackpoint>
            <Time>2022-07-10T14:29:04.000Z</Time>
            <Position>
              <LatitudeDegrees>43.29617567360401153564453125</LatitudeDegrees>
              <LongitudeDegrees>-2.25645837374031543731689453125</LongitudeDegrees>
            </Position>
            <AltitudeMeters>45.40000152587890625</AltitudeMeters>
            <DistanceMeters>NAN</DistanceMeters>
          </Trackpoint>
          <Trackpoint>
            <Time>2022-07-10T14:29:06.000Z</Time>
            <Position>
              <LatitudeDegrees>43.2962194271385669708251953125</LatitudeDegrees>
              <LongitudeDegrees>-2.2564973495900630950927734375</LongitudeDegrees>
            </Position>
            <AltitudeMeters>45.200000762939453125</AltitudeMeters>
            <DistanceMeters>NAN</DistanceMeters>
          </Trackpoint>
          <Trackpoint>
            <Time>2022-07-10T14:29:10.000Z</Time>
            <Position>
              <LatitudeDegrees>43.2963104546070098876953125</LatitudeDegrees>
              <LongitudeDegrees>-2.25654152221977710723876953125</LongitudeDegrees>
            </Position>
            <AltitudeMeters>44.799999237060546875</AltitudeMeters>
            <DistanceMeters>NAN</DistanceMeters>
          </Trackpoint>
          <Trackpoint>
            <Time>2022-07-10T14:29:11.000Z</Time>
            <Position>
              <LatitudeDegrees>43.29631858505308628082275390625</LatitudeDegrees>
              <LongitudeDegrees>-2.25652702152729034423828125</LongitudeDegrees>
            </Position>
            <AltitudeMeters>44.799999237060546875</AltitudeMeters>
            <DistanceMeters>NAN</DistanceMeters>
          </Trackpoint>
          <Trackpoint>
            <Time>2022-07-10T14:29:14.000Z</Time>
            <Position>
              <LatitudeDegrees>43.2962972111999988555908203125</LatitudeDegrees>
              <LongitudeDegrees>-2.25652861408889293670654296875</LongitudeDegrees>
            </Position>
            <AltitudeMeters>44.200000762939453125</AltitudeMeters>
            <DistanceMeters>NAN</DistanceMeters>
          </Trackpoint>
          <Trackpoint>
            <Time>2022-07-10T14:29:16.000Z</Time>
            <Position>
              <LatitudeDegrees>43.29628388397395610809326171875</LatitudeDegrees>
              <LongitudeDegrees>-2.25655107758939266204833984375</LongitudeDegrees>
            </Position>
            <AltitudeMeters>44</AltitudeMeters>
            <DistanceMeters>NAN</DistanceMeters>
          </Trackpoint>
          <Trackpoint>
            <Time>2022-07-10T14:29:19.000Z</Time>
            <Position>
              <LatitudeDegrees>43.2962874881923198699951171875</LatitudeDegrees>
              <LongitudeDegrees>-2.2565593756735324859619140625</LongitudeDegrees>
            </Position>
            <AltitudeMeters>44</AltitudeMeters>
            <DistanceMeters>NAN</DistanceMeters>
          </Trackpoint>
          <Trackpoint>
            <Time>2022-07-10T14:29:23.000Z</Time>
            <Position>
              <LatitudeDegrees>43.296259827911853790283203125</LatitudeDegrees>
              <LongitudeDegrees>-2.25662869401276111602783203125</LongitudeDegrees>
            </Position>
            <AltitudeMeters>43.59999847412109375</AltitudeMeters>
            <DistanceMeters>NAN</DistanceMeters>
          </Trackpoint>
          <Trackpoint>
            <Time>2022-07-10T14:29:28.000Z</Time>
            <Position>
              <LatitudeDegrees>43.29616955481469631195068359375</LatitudeDegrees>
              <LongitudeDegrees>-2.25680530071258544921875</LongitudeDegrees>
            </Position>
            <AltitudeMeters>42.799999237060546875</AltitudeMeters>
            <DistanceMeters>NAN</DistanceMeters>
          </Trackpoint>
          <Trackpoint>
            <Time>2022-07-10T14:29:31.000Z</Time>
            <Position>
              <LatitudeDegrees>43.2962160743772983551025390625</LatitudeDegrees>
              <LongitudeDegrees>-2.2568376548588275909423828125</LongitudeDegrees>
            </Position>
            <AltitudeMeters>42.59999847412109375</AltitudeMeters>
            <DistanceMeters>NAN</DistanceMeters>
          </Trackpoint>
          <Trackpoint>
            <Time>2022-07-10T14:29:37.000Z</Time>
            <Position>
              <LatitudeDegrees>43.296370804309844970703125</LatitudeDegrees>
              <LongitudeDegrees>-2.256698347628116607666015625</LongitudeDegrees>
            </Position>
            <AltitudeMeters>42.40000152587890625</AltitudeMeters>
            <DistanceMeters>NAN</DistanceMeters>
          </Trackpoint>
          <Trackpoint>
            <Time>2022-07-10T14:29:42.000Z</Time>
            <Position>
              <LatitudeDegrees>43.29651304520666599273681640625</LatitudeDegrees>
              <LongitudeDegrees>-2.2566837631165981292724609375</LongitudeDegrees>
            </Position>
            <AltitudeMeters>42.200000762939453125</AltitudeMeters>
            <DistanceMeters>NAN</DistanceMeters>
          </Trackpoint>
          <Trackpoint>
            <Time>2022-07-10T14:29:43.000Z</Time>
            <Position>
              <LatitudeDegrees>43.2965396158397197723388671875</LatitudeDegrees>
              <LongitudeDegrees>-2.2566904686391353607177734375</LongitudeDegrees>
            </Position>
            <AltitudeMeters>42.200000762939453125</AltitudeMeters>
            <DistanceMeters>NAN</DistanceMeters>
          </Trackpoint>
          <Trackpoint>
            <Time>2022-07-10T14:29:45.000Z</Time>
            <Position>
              <LatitudeDegrees>43.2965620793402194976806640625</LatitudeDegrees>
              <LongitudeDegrees>-2.25668661296367645263671875</LongitudeDegrees>
            </Position>
            <AltitudeMeters>42</AltitudeMeters>
            <DistanceMeters>NAN</DistanceMeters>
          </Trackpoint>
          <Trackpoint>
            <Time>2022-07-10T14:29:46.000Z</Time>
            <Position>
              <LatitudeDegrees>43.29655562527477741241455078125</LatitudeDegrees>
              <LongitudeDegrees>-2.2566740401089191436767578125</LongitudeDegrees>
            </Position>
            <AltitudeMeters>42</AltitudeMeters>
            <DistanceMeters>NAN</DistanceMeters>
          </Trackpoint>
          <Trackpoint>
            <Time>2022-07-10T14:29:49.000Z</Time>
            <Position>
              <LatitudeDegrees>43.29662821255624294281005859375</LatitudeDegrees>
              <LongitudeDegrees>-2.25662299431860446929931640625</LongitudeDegrees>
            </Position>
            <AltitudeMeters>42</AltitudeMeters>
            <DistanceMeters>NAN</DistanceMeters>
          </Trackpoint>
          <Trackpoint>
            <Time>2022-07-10T14:29:52.000Z</Time>
            <Position>
              <LatitudeDegrees>43.2967049069702625274658203125</LatitudeDegrees>
              <LongitudeDegrees>-2.25656046532094478607177734375</LongitudeDegrees>
            </Position>
            <AltitudeMeters>42.200000762939453125</AltitudeMeters>
            <DistanceMeters>NAN</DistanceMeters>
          </Trackpoint>
          <Trackpoint>
            <Time>2022-07-10T14:29:56.000Z</Time>
            <Position>
              <LatitudeDegrees>43.29678948037326335906982421875</LatitudeDegrees>
              <LongitudeDegrees>-2.25646893493831157684326171875</LongitudeDegrees>
            </Position>
            <AltitudeMeters>42</AltitudeMeters>
            <DistanceMeters>NAN</DistanceMeters>
          </Trackpoint>
          <Trackpoint>
            <Time>2022-07-10T14:29:58.000Z</Time>
            <Position>
              <LatitudeDegrees>43.29682854004204273223876953125</LatitudeDegrees>
              <LongitudeDegrees>-2.256454266607761383056640625</LongitudeDegrees>
            </Position>
            <AltitudeMeters>42</AltitudeMeters>
            <DistanceMeters>NAN</DistanceMeters>
          </Trackpoint>
          <Trackpoint>
            <Time>2022-07-10T14:30:03.000Z</Time>
            <Position>
              <LatitudeDegrees>43.29693633131682872772216796875</LatitudeDegrees>
              <LongitudeDegrees>-2.25632392801344394683837890625</LongitudeDegrees>
            </Position>
            <AltitudeMeters>42</AltitudeMeters>
            <DistanceMeters>NAN</DistanceMeters>
          </Trackpoint>
          <Trackpoint>
            <Time>2022-07-10T14:30:08.000Z</Time>
            <Position>
              <LatitudeDegrees>43.29702585004270076751708984375</LatitudeDegrees>
              <LongitudeDegrees>-2.2562264464795589447021484375</LongitudeDegrees>
            </Position>
            <AltitudeMeters>42</AltitudeMeters>
            <DistanceMeters>NAN</DistanceMeters>
          </Trackpoint>
          <Trackpoint>
            <Time>2022-07-10T14:30:10.000Z</Time>
            <Position>
              <LatitudeDegrees>43.29704563133418560028076171875</LatitudeDegrees>
              <LongitudeDegrees>-2.256167940795421600341796875</LongitudeDegrees>
            </Position>
            <AltitudeMeters>42</AltitudeMeters>
            <DistanceMeters>NAN</DistanceMeters>
          </Trackpoint>
          <Trackpoint>
            <Time>2022-07-10T14:30:16.000Z</Time>
            <Position>
              <LatitudeDegrees>43.2970981858670711517333984375</LatitudeDegrees>
              <LongitudeDegrees>-2.25600139237940311431884765625</LongitudeDegrees>
            </Position>
            <AltitudeMeters>42</AltitudeMeters>
            <DistanceMeters>NAN</DistanceMeters>
          </Trackpoint>
          <Trackpoint>
            <Time>2022-07-10T14:30:18.000Z</Time>
            <Position>
              <LatitudeDegrees>43.297115452587604522705078125</LatitudeDegrees>
              <LongitudeDegrees>-2.2559572197496891021728515625</LongitudeDegrees>
            </Position>
            <AltitudeMeters>42</AltitudeMeters>
            <DistanceMeters>NAN</DistanceMeters>
          </Trackpoint>
          <Trackpoint>
            <Time>2022-07-10T14:30:21.000Z</Time>
            <Position>
              <LatitudeDegrees>43.297161050140857696533203125</LatitudeDegrees>
              <LongitudeDegrees>-2.2559505142271518707275390625</LongitudeDegrees>
            </Position>
            <AltitudeMeters>41.799999237060546875</AltitudeMeters>
            <DistanceMeters>NAN</DistanceMeters>
          </Trackpoint>
          <Trackpoint>
            <Time>2022-07-10T14:30:23.000Z</Time>
            <Position>
              <LatitudeDegrees>43.2972011156380176544189453125</LatitudeDegrees>
              <LongitudeDegrees>-2.25594104267656803131103515625</LongitudeDegrees>
            </Position>
            <AltitudeMeters>41.799999237060546875</AltitudeMeters>
            <DistanceMeters>NAN</DistanceMeters>
          </Trackpoint>
          <Trackpoint>
            <Time>2022-07-10T14:30:26.000Z</Time>
            <Position>
              <LatitudeDegrees>43.29724109731614589691162109375</LatitudeDegrees>
              <LongitudeDegrees>-2.25586946122348308563232421875</LongitudeDegrees>
            </Position>
            <AltitudeMeters>41.799999237060546875</AltitudeMeters>
            <DistanceMeters>NAN</DistanceMeters>
          </Trackpoint>
          <Trackpoint>
            <Time>2022-07-10T14:30:31.000Z</Time>
            <Position>
              <LatitudeDegrees>43.2973328791558742523193359375</LatitudeDegrees>
              <LongitudeDegrees>-2.2557874023914337158203125</LongitudeDegrees>
            </Position>
            <AltitudeMeters>42</AltitudeMeters>
            <DistanceMeters>NAN</DistanceMeters>
          </Trackpoint>
          <Trackpoint>
            <Time>2022-07-10T14:30:33.000Z</Time>
            <Position>
              <LatitudeDegrees>43.29736917279660701751708984375</LatitudeDegrees>
              <LongitudeDegrees>-2.25578715093433856964111328125</LongitudeDegrees>
            </Position>
            <AltitudeMeters>42</AltitudeMeters>
            <DistanceMeters>NAN</DistanceMeters>
          </Trackpoint>
          <Trackpoint>
            <Time>2022-07-10T14:30:37.000Z</Time>
            <Position>
              <LatitudeDegrees>43.29741493798792362213134765625</LatitudeDegrees>
              <LongitudeDegrees>-2.2557751648128032684326171875</LongitudeDegrees>
            </Position>
            <AltitudeMeters>41.799999237060546875</AltitudeMeters>
            <DistanceMeters>NAN</DistanceMeters>
          </Trackpoint>
          <Trackpoint>
            <Time>2022-07-10T14:30:39.000Z</Time>
            <Position>
              <LatitudeDegrees>43.29744880087673664093017578125</LatitudeDegrees>
              <LongitudeDegrees>-2.255783714354038238525390625</LongitudeDegrees>
            </Position>
            <AltitudeMeters>41.799999237060546875</AltitudeMeters>
            <DistanceMeters>NAN</DistanceMeters>
          </Trackpoint>
          <Trackpoint>
            <Time>2022-07-10T14:30:43.000Z</Time>
            <Position>
              <LatitudeDegrees>43.297513425350189208984375</LatitudeDegrees>
              <LongitudeDegrees>-2.25580844096839427947998046875</LongitudeDegrees>
            </Position>
            <AltitudeMeters>41.59999847412109375</AltitudeMeters>
            <DistanceMeters>NAN</DistanceMeters>
          </Trackpoint>
          <Trackpoint>
            <Time>2022-07-10T14:30:45.000Z</Time>
            <Position>
              <LatitudeDegrees>43.2975347153842449188232421875</LatitudeDegrees>
              <LongitudeDegrees>-2.25580207072198390960693359375</LongitudeDegrees>
            </Position>
            <AltitudeMeters>41.59999847412109375</AltitudeMeters>
            <DistanceMeters>NAN</DistanceMeters>
          </Trackpoint>
          <Trackpoint>
            <Time>2022-07-10T14:30:46.000Z</Time>
            <Position>
              <LatitudeDegrees>43.29754653386771678924560546875</LatitudeDegrees>
              <LongitudeDegrees>-2.2558100335299968719482421875</LongitudeDegrees>
            </Position>
            <AltitudeMeters>41.40000152587890625</AltitudeMeters>
            <DistanceMeters>NAN</DistanceMeters>
          </Trackpoint>
          <Trackpoint>
            <Time>2022-07-10T14:30:51.000Z</Time>
            <Position>
              <LatitudeDegrees>43.2975816540420055389404296875</LatitudeDegrees>
              <LongitudeDegrees>-2.25594221614301204681396484375</LongitudeDegrees>
            </Position>
            <AltitudeMeters>41.799999237060546875</AltitudeMeters>
            <DistanceMeters>NAN</DistanceMeters>
          </Trackpoint>
          <Trackpoint>
            <Time>2022-07-10T14:30:57.000Z</Time>
            <Position>
              <LatitudeDegrees>43.2976019382476806640625</LatitudeDegrees>
              <LongitudeDegrees>-2.2561392746865749359130859375</LongitudeDegrees>
            </Position>
            <AltitudeMeters>42.200000762939453125</AltitudeMeters>
            <DistanceMeters>NAN</DistanceMeters>
          </Trackpoint>
          <Trackpoint>
            <Time>2022-07-10T14:30:58.000Z</Time>
            <Position>
              <LatitudeDegrees>43.29760202206671237945556640625</LatitudeDegrees>
              <LongitudeDegrees>-2.25616869516670703887939453125</LongitudeDegrees>
            </Position>
            <AltitudeMeters>42.200000762939453125</AltitudeMeters>
            <DistanceMeters>NAN</DistanceMeters>
          </Trackpoint>
          <Trackpoint>
            <Time>2022-07-10T14:31:03.000Z</Time>
            <Position>
              <LatitudeDegrees>43.2976175285875797271728515625</LatitudeDegrees>
              <LongitudeDegrees>-2.2563152946531772613525390625</LongitudeDegrees>
            </Position>
            <AltitudeMeters>42.200000762939453125</AltitudeMeters>
            <DistanceMeters>NAN</DistanceMeters>
          </Trackpoint>
          <Trackpoint>
            <Time>2022-07-10T14:31:05.000Z</Time>
            <Position>
              <LatitudeDegrees>43.297625742852687835693359375</LatitudeDegrees>
              <LongitudeDegrees>-2.256372459232807159423828125</LongitudeDegrees>
            </Position>
            <AltitudeMeters>42.40000152587890625</AltitudeMeters>
            <DistanceMeters>NAN</DistanceMeters>
          </Trackpoint>
          <Trackpoint>
            <Time>2022-07-10T14:31:09.000Z</Time>
            <Position>
              <LatitudeDegrees>43.297646529972553253173828125</LatitudeDegrees>
              <LongitudeDegrees>-2.2565080784261226654052734375</LongitudeDegrees>
            </Position>
            <AltitudeMeters>42.200000762939453125</AltitudeMeters>
            <DistanceMeters>NAN</DistanceMeters>
          </Trackpoint>
          <Trackpoint>
            <Time>2022-07-10T14:31:13.000Z</Time>
            <Position>
              <LatitudeDegrees>43.29767636954784393310546875</LatitudeDegrees>
              <LongitudeDegrees>-2.25665417499840259552001953125</LongitudeDegrees>
            </Position>
            <AltitudeMeters>42.200000762939453125</AltitudeMeters>
            <DistanceMeters>NAN</DistanceMeters>
          </Trackpoint>
          <Trackpoint>
            <Time>2022-07-10T14:31:17.000Z</Time>
            <Position>
              <LatitudeDegrees>43.29768240451812744140625</LatitudeDegrees>
              <LongitudeDegrees>-2.25680907256901264190673828125</LongitudeDegrees>
            </Position>
            <AltitudeMeters>42.200000762939453125</AltitudeMeters>
            <DistanceMeters>NAN</DistanceMeters>
          </Trackpoint>
          <Trackpoint>
            <Time>2022-07-10T14:31:20.000Z</Time>
            <Position>
              <LatitudeDegrees>43.29767368733882904052734375</LatitudeDegrees>
              <LongitudeDegrees>-2.25689657963812351226806640625</LongitudeDegrees>
            </Position>
            <AltitudeMeters>42.200000762939453125</AltitudeMeters>
            <DistanceMeters>NAN</DistanceMeters>
          </Trackpoint>
          <Trackpoint>
            <Time>2022-07-10T14:31:21.000Z</Time>
            <Position>
              <LatitudeDegrees>43.29766036011278629302978515625</LatitudeDegrees>
              <LongitudeDegrees>-2.2569241560995578765869140625</LongitudeDegrees>
            </Position>
            <AltitudeMeters>42.200000762939453125</AltitudeMeters>
            <DistanceMeters>NAN</DistanceMeters>
          </Trackpoint>
          <Trackpoint>
            <Time>2022-07-10T14:31:24.000Z</Time>
            <Position>
              <LatitudeDegrees>43.29760721884667873382568359375</LatitudeDegrees>
              <LongitudeDegrees>-2.25701711140573024749755859375</LongitudeDegrees>
            </Position>
            <AltitudeMeters>42.200000762939453125</AltitudeMeters>
            <DistanceMeters>NAN</DistanceMeters>
          </Trackpoint>
          <Trackpoint>
            <Time>2022-07-10T14:31:26.000Z</Time>
            <Position>
              <LatitudeDegrees>43.2975729368627071380615234375</LatitudeDegrees>
              <LongitudeDegrees>-2.257070839405059814453125</LongitudeDegrees>
            </Position>
            <AltitudeMeters>42</AltitudeMeters>
            <DistanceMeters>NAN</DistanceMeters>
          </Trackpoint>
          <Trackpoint>
            <Time>2022-07-10T14:31:28.000Z</Time>
            <Position>
              <LatitudeDegrees>43.297534547746181488037109375</LatitudeDegrees>
              <LongitudeDegrees>-2.257112078368663787841796875</LongitudeDegrees>
            </Position>
            <AltitudeMeters>42</AltitudeMeters>
            <DistanceMeters>NAN</DistanceMeters>
          </Trackpoint>
          <Trackpoint>
            <Time>2022-07-10T14:31:32.000Z</Time>
            <Position>
              <LatitudeDegrees>43.29744678921997547149658203125</LatitudeDegrees>
              <LongitudeDegrees>-2.25720017217099666595458984375</LongitudeDegrees>
            </Position>
            <AltitudeMeters>41.799999237060546875</AltitudeMeters>
            <DistanceMeters>NAN</DistanceMeters>
          </Trackpoint>
          <Trackpoint>
            <Time>2022-07-10T14:31:39.000Z</Time>
            <Position>
              <LatitudeDegrees>43.29737998545169830322265625</LatitudeDegrees>
              <LongitudeDegrees>-2.2573073767125606536865234375</LongitudeDegrees>
            </Position>
            <AltitudeMeters>41.59999847412109375</AltitudeMeters>
            <DistanceMeters>NAN</DistanceMeters>
          </Trackpoint>
          <Trackpoint>
            <Time>2022-07-10T14:31:40.000Z</Time>
            <Position>
              <LatitudeDegrees>43.2973754592239856719970703125</LatitudeDegrees>
              <LongitudeDegrees>-2.25731651298701763153076171875</LongitudeDegrees>
            </Position>
            <AltitudeMeters>41.59999847412109375</AltitudeMeters>
            <DistanceMeters>NAN</DistanceMeters>
          </Trackpoint>
          <Trackpoint>
            <Time>2022-07-10T14:31:46.000Z</Time>
            <Position>
              <LatitudeDegrees>43.29734821803867816925048828125</LatitudeDegrees>
              <LongitudeDegrees>-2.2574032656848430633544921875</LongitudeDegrees>
            </Position>
            <AltitudeMeters>41.40000152587890625</AltitudeMeters>
            <DistanceMeters>NAN</DistanceMeters>
          </Trackpoint>
          <Trackpoint>
            <Time>2022-07-10T14:31:47.000Z</Time>
            <Position>
              <LatitudeDegrees>43.2973442785441875457763671875</LatitudeDegrees>
              <LongitudeDegrees>-2.25741877220571041107177734375</LongitudeDegrees>
            </Position>
            <AltitudeMeters>41.40000152587890625</AltitudeMeters>
            <DistanceMeters>NAN</DistanceMeters>
          </Trackpoint>
          <Trackpoint>
            <Time>2022-07-10T14:31:48.000Z</Time>
            <Position>
              <LatitudeDegrees>43.29734385944902896881103515625</LatitudeDegrees>
              <LongitudeDegrees>-2.257433943450450897216796875</LongitudeDegrees>
            </Position>
            <AltitudeMeters>41.40000152587890625</AltitudeMeters>
            <DistanceMeters>NAN</DistanceMeters>
          </Trackpoint>
          <Trackpoint>
            <Time>2022-07-10T14:31:51.000Z</Time>
            <Position>
              <LatitudeDegrees>43.29734955914318561553955078125</LatitudeDegrees>
              <LongitudeDegrees>-2.2574542276561260223388671875</LongitudeDegrees>
            </Position>
            <AltitudeMeters>41.40000152587890625</AltitudeMeters>
            <DistanceMeters>NAN</DistanceMeters>
          </Trackpoint>
          <Trackpoint>
            <Time>2022-07-10T14:31:55.000Z</Time>
            <Position>
              <LatitudeDegrees>43.297368250787258148193359375</LatitudeDegrees>
              <LongitudeDegrees>-2.2573757730424404144287109375</LongitudeDegrees>
            </Position>
            <AltitudeMeters>41.59999847412109375</AltitudeMeters>
            <DistanceMeters>NAN</DistanceMeters>
          </Trackpoint>
          <Trackpoint>
            <Time>2022-07-10T14:31:56.000Z</Time>
            <Position>
              <LatitudeDegrees>43.2973717711865901947021484375</LatitudeDegrees>
              <LongitudeDegrees>-2.257345430552959442138671875</LongitudeDegrees>
            </Position>
            <AltitudeMeters>41.59999847412109375</AltitudeMeters>
            <DistanceMeters>NAN</DistanceMeters>
          </Trackpoint>
          <Trackpoint>
            <Time>2022-07-10T14:32:00.000Z</Time>
            <Position>
              <LatitudeDegrees>43.2973654009401798248291015625</LatitudeDegrees>
              <LongitudeDegrees>-2.25722950883209705352783203125</LongitudeDegrees>
            </Position>
            <AltitudeMeters>41.59999847412109375</AltitudeMeters>
            <DistanceMeters>NAN</DistanceMeters>
          </Trackpoint>
          <Trackpoint>
            <Time>2022-07-10T14:32:01.000Z</Time>
            <Position>
              <LatitudeDegrees>43.29736481420695781707763671875</LatitudeDegrees>
              <LongitudeDegrees>-2.25720369257032871246337890625</LongitudeDegrees>
            </Position>
            <AltitudeMeters>41.59999847412109375</AltitudeMeters>
            <DistanceMeters>NAN</DistanceMeters>
          </Trackpoint>
          <Trackpoint>
            <Time>2022-07-10T14:32:02.000Z</Time>
            <Position>
              <LatitudeDegrees>43.29736514948308467864990234375</LatitudeDegrees>
              <LongitudeDegrees>-2.25718173198401927947998046875</LongitudeDegrees>
            </Position>
            <AltitudeMeters>41.799999237060546875</AltitudeMeters>
            <DistanceMeters>NAN</DistanceMeters>
          </Trackpoint>
          <Trackpoint>
            <Time>2022-07-10T14:32:05.000Z</Time>
            <Position>
              <LatitudeDegrees>43.29741711728274822235107421875</LatitudeDegrees>
              <LongitudeDegrees>-2.25711802951991558074951171875</LongitudeDegrees>
            </Position>
            <AltitudeMeters>41.799999237060546875</AltitudeMeters>
            <DistanceMeters>NAN</DistanceMeters>
          </Trackpoint>
          <Trackpoint>
            <Time>2022-07-10T14:32:09.000Z</Time>
            <Position>
              <LatitudeDegrees>43.29751753248274326324462890625</LatitudeDegrees>
              <LongitudeDegrees>-2.257036305963993072509765625</LongitudeDegrees>
            </Position>
            <AltitudeMeters>42</AltitudeMeters>
            <DistanceMeters>NAN</DistanceMeters>
          </Trackpoint>
          <Trackpoint>
            <Time>2022-07-10T14:32:10.000Z</Time>
            <Position>
              <LatitudeDegrees>43.29754569567739963531494140625</LatitudeDegrees>
              <LongitudeDegrees>-2.25701677612960338592529296875</LongitudeDegrees>
            </Position>
            <AltitudeMeters>42</AltitudeMeters>
            <DistanceMeters>NAN</DistanceMeters>
          </Trackpoint>
          <Trackpoint>
            <Time>2022-07-10T14:32:14.000Z</Time>
            <Position>
              <LatitudeDegrees>43.29767678864300251007080078125</LatitudeDegrees>
              <LongitudeDegrees>-2.2569067217409610748291015625</LongitudeDegrees>
            </Position>
            <AltitudeMeters>42.200000762939453125</AltitudeMeters>
            <DistanceMeters>NAN</DistanceMeters>
          </Trackpoint>
          <Trackpoint>
            <Time>2022-07-10T14:32:16.000Z</Time>
            <Position>
              <LatitudeDegrees>43.297728002071380615234375</LatitudeDegrees>
              <LongitudeDegrees>-2.25682164542376995086669921875</LongitudeDegrees>
            </Position>
            <AltitudeMeters>42.40000152587890625</AltitudeMeters>
            <DistanceMeters>NAN</DistanceMeters>
          </Trackpoint>
          <Trackpoint>
            <Time>2022-07-10T14:32:21.000Z</Time>
            <Position>
              <LatitudeDegrees>43.29772791825234889984130859375</LatitudeDegrees>
              <LongitudeDegrees>-2.2565925680100917816162109375</LongitudeDegrees>
            </Position>
            <AltitudeMeters>42.59999847412109375</AltitudeMeters>
            <DistanceMeters>NAN</DistanceMeters>
          </Trackpoint>
          <Trackpoint>
            <Time>2022-07-10T14:32:22.000Z</Time>
            <Position>
              <LatitudeDegrees>43.2977030239999294281005859375</LatitudeDegrees>
              <LongitudeDegrees>-2.25655786693096160888671875</LongitudeDegrees>
            </Position>
            <AltitudeMeters>42.59999847412109375</AltitudeMeters>
            <DistanceMeters>NAN</DistanceMeters>
          </Trackpoint>
          <Trackpoint>
            <Time>2022-07-10T14:32:24.000Z</Time>
            <Position>
              <LatitudeDegrees>43.2976192049682140350341796875</LatitudeDegrees>
              <LongitudeDegrees>-2.256502546370029449462890625</LongitudeDegrees>
            </Position>
            <AltitudeMeters>42.59999847412109375</AltitudeMeters>
            <DistanceMeters>NAN</DistanceMeters>
          </Trackpoint>
          <Trackpoint>
            <Time>2022-07-10T14:32:25.000Z</Time>
            <Position>
              <LatitudeDegrees>43.297597579658031463623046875</LatitudeDegrees>
              <LongitudeDegrees>-2.25647212006151676177978515625</LongitudeDegrees>
            </Position>
            <AltitudeMeters>42.59999847412109375</AltitudeMeters>
            <DistanceMeters>NAN</DistanceMeters>
          </Trackpoint>
          <Trackpoint>
            <Time>2022-07-10T14:32:28.000Z</Time>
            <Position>
              <LatitudeDegrees>43.29760252498090267181396484375</LatitudeDegrees>
              <LongitudeDegrees>-2.256331555545330047607421875</LongitudeDegrees>
            </Position>
            <AltitudeMeters>42.59999847412109375</AltitudeMeters>
            <DistanceMeters>NAN</DistanceMeters>
          </Trackpoint>
          <Trackpoint>
            <Time>2022-07-10T14:32:33.000Z</Time>
            <Position>
              <LatitudeDegrees>43.2976088114082813262939453125</LatitudeDegrees>
              <LongitudeDegrees>-2.2560531087219715118408203125</LongitudeDegrees>
            </Position>
            <AltitudeMeters>42.40000152587890625</AltitudeMeters>
            <DistanceMeters>NAN</DistanceMeters>
          </Trackpoint>
          <Trackpoint>
            <Time>2022-07-10T14:32:37.000Z</Time>
            <Position>
              <LatitudeDegrees>43.29756715334951877593994140625</LatitudeDegrees>
              <LongitudeDegrees>-2.25592620670795440673828125</LongitudeDegrees>
            </Position>
            <AltitudeMeters>42.40000152587890625</AltitudeMeters>
            <DistanceMeters>NAN</DistanceMeters>
          </Trackpoint>
          <Trackpoint>
            <Time>2022-07-10T14:32:42.000Z</Time>
            <Position>
              <LatitudeDegrees>43.297490291297435760498046875</LatitudeDegrees>
              <LongitudeDegrees>-2.255647592246532440185546875</LongitudeDegrees>
            </Position>
            <AltitudeMeters>42.40000152587890625</AltitudeMeters>
            <DistanceMeters>NAN</DistanceMeters>
          </Trackpoint>
          <Trackpoint>
            <Time>2022-07-10T14:32:45.000Z</Time>
            <Position>
              <LatitudeDegrees>43.29738828353583812713623046875</LatitudeDegrees>
              <LongitudeDegrees>-2.25563384592533111572265625</LongitudeDegrees>
            </Position>
            <AltitudeMeters>42.40000152587890625</AltitudeMeters>
            <DistanceMeters>NAN</DistanceMeters>
          </Trackpoint>
          <Trackpoint>
            <Time>2022-07-10T14:32:50.000Z</Time>
            <Position>
              <LatitudeDegrees>43.29723120667040348052978515625</LatitudeDegrees>
              <LongitudeDegrees>-2.25574188865721225738525390625</LongitudeDegrees>
            </Position>
            <AltitudeMeters>42.40000152587890625</AltitudeMeters>
            <DistanceMeters>NAN</DistanceMeters>
          </Trackpoint>
          <Trackpoint>
            <Time>2022-07-10T14:32:57.000Z</Time>
            <Position>
              <LatitudeDegrees>43.2970542646944522857666015625</LatitudeDegrees>
              <LongitudeDegrees>-2.2559106163680553436279296875</LongitudeDegrees>
            </Position>
            <AltitudeMeters>42.40000152587890625</AltitudeMeters>
            <DistanceMeters>NAN</DistanceMeters>
          </Trackpoint>
          <Trackpoint>
            <Time>2022-07-10T14:33:02.000Z</Time>
            <Position>
              <LatitudeDegrees>43.29692325554788112640380859375</LatitudeDegrees>
              <LongitudeDegrees>-2.25607515312731266021728515625</LongitudeDegrees>
            </Position>
            <AltitudeMeters>42.59999847412109375</AltitudeMeters>
            <DistanceMeters>NAN</DistanceMeters>
          </Trackpoint>
          <Trackpoint>
            <Time>2022-07-10T14:33:05.000Z</Time>
            <Position>
              <LatitudeDegrees>43.29683776013553142547607421875</LatitudeDegrees>
              <LongitudeDegrees>-2.25617154501378536224365234375</LongitudeDegrees>
            </Position>
            <AltitudeMeters>42.59999847412109375</AltitudeMeters>
            <DistanceMeters>NAN</DistanceMeters>
          </Trackpoint>
          <Trackpoint>
            <Time>2022-07-10T14:33:16.000Z</Time>
            <Position>
              <LatitudeDegrees>43.29653852619230747222900390625</LatitudeDegrees>
              <LongitudeDegrees>-2.2565679252147674560546875</LongitudeDegrees>
            </Position>
            <AltitudeMeters>43</AltitudeMeters>
            <DistanceMeters>NAN</DistanceMeters>
          </Trackpoint>
          <Trackpoint>
            <Time>2022-07-10T14:33:22.000Z</Time>
            <Position>
              <LatitudeDegrees>43.29636502079665660858154296875</LatitudeDegrees>
              <LongitudeDegrees>-2.25677051581442356109619140625</LongitudeDegrees>
            </Position>
            <AltitudeMeters>43.200000762939453125</AltitudeMeters>
            <DistanceMeters>NAN</DistanceMeters>
          </Trackpoint>
          <Trackpoint>
            <Time>2022-07-10T14:33:27.000Z</Time>
            <Position>
              <LatitudeDegrees>43.29621448181569576263427734375</LatitudeDegrees>
              <LongitudeDegrees>-2.2569204680621623992919921875</LongitudeDegrees>
            </Position>
            <AltitudeMeters>43.200000762939453125</AltitudeMeters>
            <DistanceMeters>NAN</DistanceMeters>
          </Trackpoint>
          <Trackpoint>
            <Time>2022-07-10T14:33:29.000Z</Time>
            <Position>
              <LatitudeDegrees>43.296159245073795318603515625</LatitudeDegrees>
              <LongitudeDegrees>-2.256984002888202667236328125</LongitudeDegrees>
            </Position>
            <AltitudeMeters>43.200000762939453125</AltitudeMeters>
            <DistanceMeters>NAN</DistanceMeters>
          </Trackpoint>
          <Trackpoint>
            <Time>2022-07-10T14:33:34.000Z</Time>
            <Position>
              <LatitudeDegrees>43.2960180938243865966796875</LatitudeDegrees>
              <LongitudeDegrees>-2.2571635432541370391845703125</LongitudeDegrees>
            </Position>
            <AltitudeMeters>43.200000762939453125</AltitudeMeters>
            <DistanceMeters>NAN</DistanceMeters>
          </Trackpoint>
          <Trackpoint>
            <Time>2022-07-10T14:33:38.000Z</Time>
            <Position>
              <LatitudeDegrees>43.2958928681910037994384765625</LatitudeDegrees>
              <LongitudeDegrees>-2.25730410777032375335693359375</LongitudeDegrees>
            </Position>
            <AltitudeMeters>43.200000762939453125</AltitudeMeters>
            <DistanceMeters>NAN</DistanceMeters>
          </Trackpoint>
          <Trackpoint>
            <Time>2022-07-10T14:33:41.000Z</Time>
            <Position>
              <LatitudeDegrees>43.295798487961292266845703125</LatitudeDegrees>
              <LongitudeDegrees>-2.25740686990320682525634765625</LongitudeDegrees>
            </Position>
            <AltitudeMeters>43.200000762939453125</AltitudeMeters>
            <DistanceMeters>NAN</DistanceMeters>
          </Trackpoint>
          <Trackpoint>
            <Time>2022-07-10T14:33:44.000Z</Time>
            <Position>
              <LatitudeDegrees>43.29569681547582149505615234375</LatitudeDegrees>
              <LongitudeDegrees>-2.25751541554927825927734375</LongitudeDegrees>
            </Position>
            <AltitudeMeters>43.40000152587890625</AltitudeMeters>
            <DistanceMeters>NAN</DistanceMeters>
          </Trackpoint>
          <Trackpoint>
            <Time>2022-07-10T14:33:45.000Z</Time>
            <Position>
              <LatitudeDegrees>43.2956756092607975006103515625</LatitudeDegrees>
              <LongitudeDegrees>-2.25754357874393463134765625</LongitudeDegrees>
            </Position>
            <AltitudeMeters>43.40000152587890625</AltitudeMeters>
            <DistanceMeters>NAN</DistanceMeters>
          </Trackpoint>
          <Trackpoint>
            <Time>2022-07-10T14:33:50.000Z</Time>
            <Position>
              <LatitudeDegrees>43.29552079550921916961669921875</LatitudeDegrees>
              <LongitudeDegrees>-2.25772655569016933441162109375</LongitudeDegrees>
            </Position>
            <AltitudeMeters>42.799999237060546875</AltitudeMeters>
            <DistanceMeters>NAN</DistanceMeters>
          </Trackpoint>
          <Trackpoint>
            <Time>2022-07-10T14:33:51.000Z</Time>
            <Position>
              <LatitudeDegrees>43.29549380578100681304931640625</LatitudeDegrees>
              <LongitudeDegrees>-2.25776528008282184600830078125</LongitudeDegrees>
            </Position>
            <AltitudeMeters>43</AltitudeMeters>
            <DistanceMeters>NAN</DistanceMeters>
          </Trackpoint>
          <Trackpoint>
            <Time>2022-07-10T14:33:55.000Z</Time>
            <Position>
              <LatitudeDegrees>43.29538718797266483306884765625</LatitudeDegrees>
              <LongitudeDegrees>-2.25789218209683895111083984375</LongitudeDegrees>
            </Position>
            <AltitudeMeters>43</AltitudeMeters>
            <DistanceMeters>NAN</DistanceMeters>
          </Trackpoint>
          <Trackpoint>
            <Time>2022-07-10T14:33:58.000Z</Time>
            <Position>
              <LatitudeDegrees>43.29531108029186725616455078125</LatitudeDegrees>
              <LongitudeDegrees>-2.2579930163919925689697265625</LongitudeDegrees>
            </Position>
            <AltitudeMeters>42.799999237060546875</AltitudeMeters>
            <DistanceMeters>NAN</DistanceMeters>
          </Trackpoint>
          <Trackpoint>
            <Time>2022-07-10T14:34:09.000Z</Time>
            <Position>
              <LatitudeDegrees>43.2950439490377902984619140625</LatitudeDegrees>
              <LongitudeDegrees>-2.25828931666910648345947265625</LongitudeDegrees>
            </Position>
            <AltitudeMeters>43</AltitudeMeters>
            <DistanceMeters>NAN</DistanceMeters>
          </Trackpoint>
          <Trackpoint>
            <Time>2022-07-10T14:34:11.000Z</Time>
            <Position>
              <LatitudeDegrees>43.29497882165014743804931640625</LatitudeDegrees>
              <LongitudeDegrees>-2.25831471383571624755859375</LongitudeDegrees>
            </Position>
            <AltitudeMeters>43</AltitudeMeters>
            <DistanceMeters>NAN</DistanceMeters>
          </Trackpoint>
          <Trackpoint>
            <Time>2022-07-10T14:34:14.000Z</Time>
            <Position>
              <LatitudeDegrees>43.29488108865916728973388671875</LatitudeDegrees>
              <LongitudeDegrees>-2.25833156146109104156494140625</LongitudeDegrees>
            </Position>
            <AltitudeMeters>43</AltitudeMeters>
            <DistanceMeters>NAN</DistanceMeters>
          </Trackpoint>
          <Trackpoint>
            <Time>2022-07-10T14:34:23.000Z</Time>
            <Position>
              <LatitudeDegrees>43.29463684000074863433837890625</LatitudeDegrees>
              <LongitudeDegrees>-2.25835134275257587432861328125</LongitudeDegrees>
            </Position>
            <AltitudeMeters>43.40000152587890625</AltitudeMeters>
            <DistanceMeters>NAN</DistanceMeters>
          </Trackpoint>
          <Trackpoint>
            <Time>2022-07-10T14:34:25.000Z</Time>
            <Position>
              <LatitudeDegrees>43.2946064136922359466552734375</LatitudeDegrees>
              <LongitudeDegrees>-2.2583567909896373748779296875</LongitudeDegrees>
            </Position>
            <AltitudeMeters>43.59999847412109375</AltitudeMeters>
            <DistanceMeters>NAN</DistanceMeters>
          </Trackpoint>
          <Trackpoint>
            <Time>2022-07-10T14:34:32.000Z</Time>
            <Position>
              <LatitudeDegrees>43.29432302154600620269775390625</LatitudeDegrees>
              <LongitudeDegrees>-2.25838671438395977020263671875</LongitudeDegrees>
            </Position>
            <AltitudeMeters>43.40000152587890625</AltitudeMeters>
            <DistanceMeters>NAN</DistanceMeters>
          </Trackpoint>
          <Trackpoint>
            <Time>2022-07-10T14:34:41.000Z</Time>
            <Position>
              <LatitudeDegrees>43.293985314667224884033203125</LatitudeDegrees>
              <LongitudeDegrees>-2.25839249789714813232421875</LongitudeDegrees>
            </Position>
            <AltitudeMeters>43</AltitudeMeters>
            <DistanceMeters>NAN</DistanceMeters>
          </Trackpoint>
          <Trackpoint>
            <Time>2022-07-10T14:34:45.000Z</Time>
            <Position>
              <LatitudeDegrees>43.29382195137441158294677734375</LatitudeDegrees>
              <LongitudeDegrees>-2.2583913244307041168212890625</LongitudeDegrees>
            </Position>
            <AltitudeMeters>42.59999847412109375</AltitudeMeters>
            <DistanceMeters>NAN</DistanceMeters>
          </Trackpoint>
          <Trackpoint>
            <Time>2022-07-10T14:34:51.000Z</Time>
            <Position>
              <LatitudeDegrees>43.2935844920575618743896484375</LatitudeDegrees>
              <LongitudeDegrees>-2.2583971917629241943359375</LongitudeDegrees>
            </Position>
            <AltitudeMeters>42.59999847412109375</AltitudeMeters>
            <DistanceMeters>NAN</DistanceMeters>
          </Trackpoint>
          <Trackpoint>
            <Time>2022-07-10T14:34:53.000Z</Time>
            <Position>
              <LatitudeDegrees>43.2935155928134918212890625</LatitudeDegrees>
              <LongitudeDegrees>-2.25840113125741481781005859375</LongitudeDegrees>
            </Position>
            <AltitudeMeters>42.59999847412109375</AltitudeMeters>
            <DistanceMeters>NAN</DistanceMeters>
          </Trackpoint>
          <Trackpoint>
            <Time>2022-07-10T14:34:57.000Z</Time>
            <Position>
              <LatitudeDegrees>43.2933611981570720672607421875</LatitudeDegrees>
              <LongitudeDegrees>-2.25841797888278961181640625</LongitudeDegrees>
            </Position>
            <AltitudeMeters>42.40000152587890625</AltitudeMeters>
            <DistanceMeters>NAN</DistanceMeters>
          </Trackpoint>
          <Trackpoint>
            <Time>2022-07-10T14:35:03.000Z</Time>
            <Position>
              <LatitudeDegrees>43.2931134290993213653564453125</LatitudeDegrees>
              <LongitudeDegrees>-2.25844756700098514556884765625</LongitudeDegrees>
            </Position>
            <AltitudeMeters>42.59999847412109375</AltitudeMeters>
            <DistanceMeters>NAN</DistanceMeters>
          </Trackpoint>
          <Trackpoint>
            <Time>2022-07-10T14:35:12.000Z</Time>
            <Position>
              <LatitudeDegrees>43.292755186557769775390625</LatitudeDegrees>
              <LongitudeDegrees>-2.25848847068846225738525390625</LongitudeDegrees>
            </Position>
            <AltitudeMeters>42.59999847412109375</AltitudeMeters>
            <DistanceMeters>NAN</DistanceMeters>
          </Trackpoint>
          <Trackpoint>
            <Time>2022-07-10T14:35:20.000Z</Time>
            <Position>
              <LatitudeDegrees>43.29236693680286407470703125</LatitudeDegrees>
              <LongitudeDegrees>-2.2585043124854564666748046875</LongitudeDegrees>
            </Position>
            <AltitudeMeters>43</AltitudeMeters>
            <DistanceMeters>NAN</DistanceMeters>
          </Trackpoint>
          <Trackpoint>
            <Time>2022-07-10T14:35:21.000Z</Time>
            <Position>
              <LatitudeDegrees>43.292325027287006378173828125</LatitudeDegrees>
              <LongitudeDegrees>-2.25850573740899562835693359375</LongitudeDegrees>
            </Position>
            <AltitudeMeters>43</AltitudeMeters>
            <DistanceMeters>NAN</DistanceMeters>
          </Trackpoint>
          <Trackpoint>
            <Time>2022-07-10T14:35:28.000Z</Time>
            <Position>
              <LatitudeDegrees>43.29201347194612026214599609375</LatitudeDegrees>
              <LongitudeDegrees>-2.25851462222635746002197265625</LongitudeDegrees>
            </Position>
            <AltitudeMeters>43.200000762939453125</AltitudeMeters>
            <DistanceMeters>NAN</DistanceMeters>
          </Trackpoint>
          <Trackpoint>
            <Time>2022-07-10T14:35:30.000Z</Time>
            <Position>
              <LatitudeDegrees>43.29191205091774463653564453125</LatitudeDegrees>
              <LongitudeDegrees>-2.25851831026375293731689453125</LongitudeDegrees>
            </Position>
            <AltitudeMeters>43.40000152587890625</AltitudeMeters>
            <DistanceMeters>NAN</DistanceMeters>
          </Trackpoint>
          <Trackpoint>
            <Time>2022-07-10T14:35:37.000Z</Time>
            <Position>
              <LatitudeDegrees>43.2915771938860416412353515625</LatitudeDegrees>
              <LongitudeDegrees>-2.25853390060365200042724609375</LongitudeDegrees>
            </Position>
            <AltitudeMeters>43.40000152587890625</AltitudeMeters>
            <DistanceMeters>NAN</DistanceMeters>
          </Trackpoint>
          <Trackpoint>
            <Time>2022-07-10T14:35:40.000Z</Time>
            <Position>
              <LatitudeDegrees>43.29142623580992221832275390625</LatitudeDegrees>
              <LongitudeDegrees>-2.2585348226130008697509765625</LongitudeDegrees>
            </Position>
            <AltitudeMeters>43.40000152587890625</AltitudeMeters>
            <DistanceMeters>NAN</DistanceMeters>
          </Trackpoint>
          <Trackpoint>
            <Time>2022-07-10T14:35:51.000Z</Time>
            <Position>
              <LatitudeDegrees>43.290871270000934600830078125</LatitudeDegrees>
              <LongitudeDegrees>-2.2585586272180080413818359375</LongitudeDegrees>
            </Position>
            <AltitudeMeters>43.200000762939453125</AltitudeMeters>
            <DistanceMeters>NAN</DistanceMeters>
          </Trackpoint>
          <Trackpoint>
            <Time>2022-07-10T14:35:57.000Z</Time>
            <Position>
              <LatitudeDegrees>43.29058670438826084136962890625</LatitudeDegrees>
              <LongitudeDegrees>-2.25856558419764041900634765625</LongitudeDegrees>
            </Position>
            <AltitudeMeters>43.40000152587890625</AltitudeMeters>
            <DistanceMeters>NAN</DistanceMeters>
          </Trackpoint>
          <Trackpoint>
            <Time>2022-07-10T14:36:01.000Z</Time>
            <Position>
              <LatitudeDegrees>43.29038746654987335205078125</LatitudeDegrees>
              <LongitudeDegrees>-2.25857220590114593505859375</LongitudeDegrees>
            </Position>
            <AltitudeMeters>43.40000152587890625</AltitudeMeters>
            <DistanceMeters>NAN</DistanceMeters>
          </Trackpoint>
          <Trackpoint>
            <Time>2022-07-10T14:36:07.000Z</Time>
            <Position>
              <LatitudeDegrees>43.2900734804570674896240234375</LatitudeDegrees>
              <LongitudeDegrees>-2.25859793834388256072998046875</LongitudeDegrees>
            </Position>
            <AltitudeMeters>43.40000152587890625</AltitudeMeters>
            <DistanceMeters>NAN</DistanceMeters>
          </Trackpoint>
          <Trackpoint>
            <Time>2022-07-10T14:36:09.000Z</Time>
            <Position>
              <LatitudeDegrees>43.2899718917906284332275390625</LatitudeDegrees>
              <LongitudeDegrees>-2.258605062961578369140625</LongitudeDegrees>
            </Position>
            <AltitudeMeters>43.40000152587890625</AltitudeMeters>
            <DistanceMeters>NAN</DistanceMeters>
          </Trackpoint>
          <Trackpoint>
            <Time>2022-07-10T14:36:10.000Z</Time>
            <Position>
              <LatitudeDegrees>43.28993291594088077545166015625</LatitudeDegrees>
              <LongitudeDegrees>-2.2586048953235149383544921875</LongitudeDegrees>
            </Position>
            <AltitudeMeters>43.40000152587890625</AltitudeMeters>
            <DistanceMeters>NAN</DistanceMeters>
          </Trackpoint>
          <Trackpoint>
            <Time>2022-07-10T14:36:12.000Z</Time>
            <Position>
              <LatitudeDegrees>43.28982261009514331817626953125</LatitudeDegrees>
              <LongitudeDegrees>-2.25860699079930782318115234375</LongitudeDegrees>
            </Position>
            <AltitudeMeters>43.40000152587890625</AltitudeMeters>
            <DistanceMeters>NAN</DistanceMeters>
          </Trackpoint>
          <Trackpoint>
            <Time>2022-07-10T14:36:19.000Z</Time>
            <Position>
              <LatitudeDegrees>43.28947995789349079132080078125</LatitudeDegrees>
              <LongitudeDegrees>-2.258648984134197235107421875</LongitudeDegrees>
            </Position>
            <AltitudeMeters>43.59999847412109375</AltitudeMeters>
            <DistanceMeters>NAN</DistanceMeters>
          </Trackpoint>
          <Trackpoint>
            <Time>2022-07-10T14:36:21.000Z</Time>
            <Position>
              <LatitudeDegrees>43.28937853686511516571044921875</LatitudeDegrees>
              <LongitudeDegrees>-2.2586799971759319305419921875</LongitudeDegrees>
            </Position>
            <AltitudeMeters>43.59999847412109375</AltitudeMeters>
            <DistanceMeters>NAN</DistanceMeters>
          </Trackpoint>
          <Trackpoint>
            <Time>2022-07-10T14:36:25.000Z</Time>
            <Position>
              <LatitudeDegrees>43.28917980194091796875</LatitudeDegrees>
              <LongitudeDegrees>-2.25876876153051853179931640625</LongitudeDegrees>
            </Position>
            <AltitudeMeters>43.59999847412109375</AltitudeMeters>
            <DistanceMeters>NAN</DistanceMeters>
          </Trackpoint>
          <Trackpoint>
            <Time>2022-07-10T14:36:35.000Z</Time>
            <Position>
              <LatitudeDegrees>43.2886730320751667022705078125</LatitudeDegrees>
              <LongitudeDegrees>-2.2590139321982860565185546875</LongitudeDegrees>
            </Position>
            <AltitudeMeters>43.799999237060546875</AltitudeMeters>
            <DistanceMeters>NAN</DistanceMeters>
          </Trackpoint>
          <Trackpoint>
            <Time>2022-07-10T14:36:43.000Z</Time>
            <Position>
              <LatitudeDegrees>43.288286961615085601806640625</LatitudeDegrees>
              <LongitudeDegrees>-2.25918249227106571197509765625</LongitudeDegrees>
            </Position>
            <AltitudeMeters>43.799999237060546875</AltitudeMeters>
            <DistanceMeters>NAN</DistanceMeters>
          </Trackpoint>
          <Trackpoint>
            <Time>2022-07-10T14:36:52.000Z</Time>
            <Position>
              <LatitudeDegrees>43.2878606580197811126708984375</LatitudeDegrees>
              <LongitudeDegrees>-2.25937896408140659332275390625</LongitudeDegrees>
            </Position>
            <AltitudeMeters>44</AltitudeMeters>
            <DistanceMeters>NAN</DistanceMeters>
          </Trackpoint>
          <Trackpoint>
            <Time>2022-07-10T14:36:59.000Z</Time>
            <Position>
              <LatitudeDegrees>43.287530578672885894775390625</LatitudeDegrees>
              <LongitudeDegrees>-2.25951089523732662200927734375</LongitudeDegrees>
            </Position>
            <AltitudeMeters>44.200000762939453125</AltitudeMeters>
            <DistanceMeters>NAN</DistanceMeters>
          </Trackpoint>
          <Trackpoint>
            <Time>2022-07-10T14:37:01.000Z</Time>
            <Position>
              <LatitudeDegrees>43.287484981119632720947265625</LatitudeDegrees>
              <LongitudeDegrees>-2.259534113109111785888671875</LongitudeDegrees>
            </Position>
            <AltitudeMeters>44.40000152587890625</AltitudeMeters>
            <DistanceMeters>NAN</DistanceMeters>
          </Trackpoint>
          <Trackpoint>
            <Time>2022-07-10T14:37:02.000Z</Time>
            <Position>
              <LatitudeDegrees>43.2874784432351589202880859375</LatitudeDegrees>
              <LongitudeDegrees>-2.25954744033515453338623046875</LongitudeDegrees>
            </Position>
            <AltitudeMeters>44.59999847412109375</AltitudeMeters>
            <DistanceMeters>NAN</DistanceMeters>
          </Trackpoint>
          <Trackpoint>
            <Time>2022-07-10T14:37:03.000Z</Time>
            <Position>
              <LatitudeDegrees>43.287471570074558258056640625</LatitudeDegrees>
              <LongitudeDegrees>-2.25955850444734096527099609375</LongitudeDegrees>
            </Position>
            <AltitudeMeters>44.59999847412109375</AltitudeMeters>
            <DistanceMeters>NAN</DistanceMeters>
          </Trackpoint>
          <Trackpoint>
            <Time>2022-07-10T14:37:05.000Z</Time>
            <Position>
              <LatitudeDegrees>43.28745857812464237213134765625</LatitudeDegrees>
              <LongitudeDegrees>-2.25956638343632221221923828125</LongitudeDegrees>
            </Position>
            <AltitudeMeters>44.799999237060546875</AltitudeMeters>
            <DistanceMeters>NAN</DistanceMeters>
          </Trackpoint>
          <Trackpoint>
            <Time>2022-07-10T14:37:07.000Z</Time>
            <Position>
              <LatitudeDegrees>43.28743192367255687713623046875</LatitudeDegrees>
              <LongitudeDegrees>-2.25956135429441928863525390625</LongitudeDegrees>
            </Position>
            <AltitudeMeters>45</AltitudeMeters>
            <DistanceMeters>NAN</DistanceMeters>
          </Trackpoint>
          <Trackpoint>
            <Time>2022-07-10T14:37:12.000Z</Time>
            <Position>
              <LatitudeDegrees>43.28729563392698764801025390625</LatitudeDegrees>
              <LongitudeDegrees>-2.25957266986370086669921875</LongitudeDegrees>
            </Position>
            <AltitudeMeters>45.799999237060546875</AltitudeMeters>
            <DistanceMeters>NAN</DistanceMeters>
          </Trackpoint>
          <Trackpoint>
            <Time>2022-07-10T14:37:18.000Z</Time>
            <Position>
              <LatitudeDegrees>43.287132941186428070068359375</LatitudeDegrees>
              <LongitudeDegrees>-2.25961692631244659423828125</LongitudeDegrees>
            </Position>
            <AltitudeMeters>46.799999237060546875</AltitudeMeters>
            <DistanceMeters>NAN</DistanceMeters>
          </Trackpoint>
          <Trackpoint>
            <Time>2022-07-10T14:37:20.000Z</Time>
            <Position>
              <LatitudeDegrees>43.2870717532932758331298828125</LatitudeDegrees>
              <LongitudeDegrees>-2.25961047224700450897216796875</LongitudeDegrees>
            </Position>
            <AltitudeMeters>47</AltitudeMeters>
            <DistanceMeters>NAN</DistanceMeters>
          </Trackpoint>
          <Trackpoint>
            <Time>2022-07-10T14:37:23.000Z</Time>
            <Position>
              <LatitudeDegrees>43.2869845815002918243408203125</LatitudeDegrees>
              <LongitudeDegrees>-2.25958482362329959869384765625</LongitudeDegrees>
            </Position>
            <AltitudeMeters>47.59999847412109375</AltitudeMeters>
            <DistanceMeters>NAN</DistanceMeters>
          </Trackpoint>
          <Trackpoint>
            <Time>2022-07-10T14:37:24.000Z</Time>
            <Position>
              <LatitudeDegrees>43.28695767559111118316650390625</LatitudeDegrees>
              <LongitudeDegrees>-2.25957308895885944366455078125</LongitudeDegrees>
            </Position>
            <AltitudeMeters>47.799999237060546875</AltitudeMeters>
            <DistanceMeters>NAN</DistanceMeters>
          </Trackpoint>
          <Trackpoint>
            <Time>2022-07-10T14:37:26.000Z</Time>
            <Position>
              <LatitudeDegrees>43.2869044505059719085693359375</LatitudeDegrees>
              <LongitudeDegrees>-2.25954274646937847137451171875</LongitudeDegrees>
            </Position>
            <AltitudeMeters>47.799999237060546875</AltitudeMeters>
            <DistanceMeters>NAN</DistanceMeters>
          </Trackpoint>
          <Trackpoint>
            <Time>2022-07-10T14:37:27.000Z</Time>
            <Position>
              <LatitudeDegrees>43.28687737695872783660888671875</LatitudeDegrees>
              <LongitudeDegrees>-2.259523384273052215576171875</LongitudeDegrees>
            </Position>
            <AltitudeMeters>47.799999237060546875</AltitudeMeters>
            <DistanceMeters>NAN</DistanceMeters>
          </Trackpoint>
          <Trackpoint>
            <Time>2022-07-10T14:37:34.000Z</Time>
            <Position>
              <LatitudeDegrees>43.28666053712368011474609375</LatitudeDegrees>
              <LongitudeDegrees>-2.25934778340160846710205078125</LongitudeDegrees>
            </Position>
            <AltitudeMeters>48</AltitudeMeters>
            <DistanceMeters>NAN</DistanceMeters>
          </Trackpoint>
          <Trackpoint>
            <Time>2022-07-10T14:37:37.000Z</Time>
            <Position>
              <LatitudeDegrees>43.28655282966792583465576171875</LatitudeDegrees>
              <LongitudeDegrees>-2.25926010869443416595458984375</LongitudeDegrees>
            </Position>
            <AltitudeMeters>48.200000762939453125</AltitudeMeters>
            <DistanceMeters>NAN</DistanceMeters>
          </Trackpoint>
          <Trackpoint>
            <Time>2022-07-10T14:37:39.000Z</Time>
            <Position>
              <LatitudeDegrees>43.286484181880950927734375</LatitudeDegrees>
              <LongitudeDegrees>-2.25918064825236797332763671875</LongitudeDegrees>
            </Position>
            <AltitudeMeters>48.40000152587890625</AltitudeMeters>
            <DistanceMeters>NAN</DistanceMeters>
          </Trackpoint>
          <Trackpoint>
            <Time>2022-07-10T14:37:40.000Z</Time>
            <Position>
              <LatitudeDegrees>43.2864524982869625091552734375</LatitudeDegrees>
              <LongitudeDegrees>-2.25913454778492450714111328125</LongitudeDegrees>
            </Position>
            <AltitudeMeters>48.40000152587890625</AltitudeMeters>
            <DistanceMeters>NAN</DistanceMeters>
          </Trackpoint>
          <Trackpoint>
            <Time>2022-07-10T14:37:42.000Z</Time>
            <Position>
              <LatitudeDegrees>43.28638494014739990234375</LatitudeDegrees>
              <LongitudeDegrees>-2.25904787890613079071044921875</LongitudeDegrees>
            </Position>
            <AltitudeMeters>48.200000762939453125</AltitudeMeters>
            <DistanceMeters>NAN</DistanceMeters>
          </Trackpoint>
          <Trackpoint>
            <Time>2022-07-10T14:37:47.000Z</Time>
            <Position>
              <LatitudeDegrees>43.2862342335283756256103515625</LatitudeDegrees>
              <LongitudeDegrees>-2.25883296690881252288818359375</LongitudeDegrees>
            </Position>
            <AltitudeMeters>48.200000762939453125</AltitudeMeters>
            <DistanceMeters>NAN</DistanceMeters>
          </Trackpoint>
          <Trackpoint>
            <Time>2022-07-10T14:37:49.000Z</Time>
            <Position>
              <LatitudeDegrees>43.28616701066493988037109375</LatitudeDegrees>
              <LongitudeDegrees>-2.25875602103769779205322265625</LongitudeDegrees>
            </Position>
            <AltitudeMeters>48.200000762939453125</AltitudeMeters>
            <DistanceMeters>NAN</DistanceMeters>
          </Trackpoint>
          <Trackpoint>
            <Time>2022-07-10T14:37:50.000Z</Time>
            <Position>
              <LatitudeDegrees>43.28613457269966602325439453125</LatitudeDegrees>
              <LongitudeDegrees>-2.258716709911823272705078125</LongitudeDegrees>
            </Position>
            <AltitudeMeters>48.40000152587890625</AltitudeMeters>
            <DistanceMeters>NAN</DistanceMeters>
          </Trackpoint>
          <Trackpoint>
            <Time>2022-07-10T14:37:54.000Z</Time>
            <Position>
              <LatitudeDegrees>43.28600599430501461029052734375</LatitudeDegrees>
              <LongitudeDegrees>-2.2585554420948028564453125</LongitudeDegrees>
            </Position>
            <AltitudeMeters>48.40000152587890625</AltitudeMeters>
            <DistanceMeters>NAN</DistanceMeters>
          </Trackpoint>
          <Trackpoint>
            <Time>2022-07-10T14:37:56.000Z</Time>
            <Position>
              <LatitudeDegrees>43.285935334861278533935546875</LatitudeDegrees>
              <LongitudeDegrees>-2.25847790949046611785888671875</LongitudeDegrees>
            </Position>
            <AltitudeMeters>48.40000152587890625</AltitudeMeters>
            <DistanceMeters>NAN</DistanceMeters>
          </Trackpoint>
          <Trackpoint>
            <Time>2022-07-10T14:37:58.000Z</Time>
            <Position>
              <LatitudeDegrees>43.28585864044725894927978515625</LatitudeDegrees>
              <LongitudeDegrees>-2.25844169966876506805419921875</LongitudeDegrees>
            </Position>
            <AltitudeMeters>48.59999847412109375</AltitudeMeters>
            <DistanceMeters>NAN</DistanceMeters>
          </Trackpoint>
          <Trackpoint>
            <Time>2022-07-10T14:38:00.000Z</Time>
            <Position>
              <LatitudeDegrees>43.2857829518616199493408203125</LatitudeDegrees>
              <LongitudeDegrees>-2.25842208601534366607666015625</LongitudeDegrees>
            </Position>
            <AltitudeMeters>48.799999237060546875</AltitudeMeters>
            <DistanceMeters>NAN</DistanceMeters>
          </Trackpoint>
          <Trackpoint>
            <Time>2022-07-10T14:38:01.000Z</Time>
            <Position>
              <LatitudeDegrees>43.285742886364459991455078125</LatitudeDegrees>
              <LongitudeDegrees>-2.25842200219631195068359375</LongitudeDegrees>
            </Position>
            <AltitudeMeters>49</AltitudeMeters>
            <DistanceMeters>NAN</DistanceMeters>
          </Trackpoint>
          <Trackpoint>
            <Time>2022-07-10T14:38:07.000Z</Time>
            <Position>
              <LatitudeDegrees>43.28552403487265110015869140625</LatitudeDegrees>
              <LongitudeDegrees>-2.2585043124854564666748046875</LongitudeDegrees>
            </Position>
            <AltitudeMeters>49.200000762939453125</AltitudeMeters>
            <DistanceMeters>NAN</DistanceMeters>
          </Trackpoint>
          <Trackpoint>
            <Time>2022-07-10T14:38:09.000Z</Time>
            <Position>
              <LatitudeDegrees>43.2854416407644748687744140625</LatitudeDegrees>
              <LongitudeDegrees>-2.25858368910849094390869140625</LongitudeDegrees>
            </Position>
            <AltitudeMeters>49.200000762939453125</AltitudeMeters>
            <DistanceMeters>NAN</DistanceMeters>
          </Trackpoint>
          <Trackpoint>
            <Time>2022-07-10T14:38:13.000Z</Time>
            <Position>
              <LatitudeDegrees>43.2853455841541290283203125</LatitudeDegrees>
              <LongitudeDegrees>-2.258756943047046661376953125</LongitudeDegrees>
            </Position>
            <AltitudeMeters>48.799999237060546875</AltitudeMeters>
            <DistanceMeters>NAN</DistanceMeters>
          </Trackpoint>
          <Trackpoint>
            <Time>2022-07-10T14:38:15.000Z</Time>
            <Position>
              <LatitudeDegrees>43.28532353974878787994384765625</LatitudeDegrees>
              <LongitudeDegrees>-2.25882994942367076873779296875</LongitudeDegrees>
            </Position>
            <AltitudeMeters>48.59999847412109375</AltitudeMeters>
            <DistanceMeters>NAN</DistanceMeters>
          </Trackpoint>
          <Trackpoint>
            <Time>2022-07-10T14:38:16.000Z</Time>
            <Position>
              <LatitudeDegrees>43.28531851060688495635986328125</LatitudeDegrees>
              <LongitudeDegrees>-2.25884310901165008544921875</LongitudeDegrees>
            </Position>
            <AltitudeMeters>48.40000152587890625</AltitudeMeters>
            <DistanceMeters>NAN</DistanceMeters>
          </Trackpoint>
          <Trackpoint>
            <Time>2022-07-10T14:38:17.000Z</Time>
            <Position>
              <LatitudeDegrees>43.28531700186431407928466796875</LatitudeDegrees>
              <LongitudeDegrees>-2.25885040126740932464599609375</LongitudeDegrees>
            </Position>
            <AltitudeMeters>48.40000152587890625</AltitudeMeters>
            <DistanceMeters>NAN</DistanceMeters>
          </Trackpoint>
          <Trackpoint>
            <Time>2022-07-10T14:38:18.000Z</Time>
            <Position>
              <LatitudeDegrees>43.28531700186431407928466796875</LatitudeDegrees>
              <LongitudeDegrees>-2.25885040126740932464599609375</LongitudeDegrees>
            </Position>
            <AltitudeMeters>48.59999847412109375</AltitudeMeters>
            <DistanceMeters>NAN</DistanceMeters>
          </Trackpoint>
          <Trackpoint>
            <Time>2022-07-10T14:38:21.000Z</Time>
            <Position>
              <LatitudeDegrees>43.28528950922191143035888671875</LatitudeDegrees>
              <LongitudeDegrees>-2.25886062718927860260009765625</LongitudeDegrees>
            </Position>
            <AltitudeMeters>48.59999847412109375</AltitudeMeters>
            <DistanceMeters>NAN</DistanceMeters>
          </Trackpoint>
          <Trackpoint>
            <Time>2022-07-10T14:38:22.000Z</Time>
            <Position>
              <LatitudeDegrees>43.28528732992708683013916015625</LatitudeDegrees>
              <LongitudeDegrees>-2.25886984728276729583740234375</LongitudeDegrees>
            </Position>
            <AltitudeMeters>48.59999847412109375</AltitudeMeters>
            <DistanceMeters>NAN</DistanceMeters>
          </Trackpoint>
          <Trackpoint>
            <Time>2022-07-10T14:38:26.000Z</Time>
            <Position>
              <LatitudeDegrees>43.285250701010227203369140625</LatitudeDegrees>
              <LongitudeDegrees>-2.25899909622967243194580078125</LongitudeDegrees>
            </Position>
            <AltitudeMeters>48.799999237060546875</AltitudeMeters>
            <DistanceMeters>NAN</DistanceMeters>
          </Trackpoint>
          <Trackpoint>
            <Time>2022-07-10T14:38:28.000Z</Time>
            <Position>
              <LatitudeDegrees>43.28522622585296630859375</LatitudeDegrees>
              <LongitudeDegrees>-2.2590866871178150177001953125</LongitudeDegrees>
            </Position>
            <AltitudeMeters>48.799999237060546875</AltitudeMeters>
            <DistanceMeters>NAN</DistanceMeters>
          </Trackpoint>
          <Trackpoint>
            <Time>2022-07-10T14:38:31.000Z</Time>
            <Position>
              <LatitudeDegrees>43.2851747609674930572509765625</LatitudeDegrees>
              <LongitudeDegrees>-2.2592399083077907562255859375</LongitudeDegrees>
            </Position>
            <AltitudeMeters>48.799999237060546875</AltitudeMeters>
            <DistanceMeters>NAN</DistanceMeters>
          </Trackpoint>
          <Trackpoint>
            <Time>2022-07-10T14:38:32.000Z</Time>
            <Position>
              <LatitudeDegrees>43.28515573404729366302490234375</LatitudeDegrees>
              <LongitudeDegrees>-2.259293384850025177001953125</LongitudeDegrees>
            </Position>
            <AltitudeMeters>48.799999237060546875</AltitudeMeters>
            <DistanceMeters>NAN</DistanceMeters>
          </Trackpoint>
          <Trackpoint>
            <Time>2022-07-10T14:38:36.000Z</Time>
            <Position>
              <LatitudeDegrees>43.28510485589504241943359375</LatitudeDegrees>
              <LongitudeDegrees>-2.25948507897555828094482421875</LongitudeDegrees>
            </Position>
            <AltitudeMeters>48.799999237060546875</AltitudeMeters>
            <DistanceMeters>NAN</DistanceMeters>
          </Trackpoint>
          <Trackpoint>
            <Time>2022-07-10T14:38:38.000Z</Time>
            <Position>
              <LatitudeDegrees>43.28508297912776470184326171875</LatitudeDegrees>
              <LongitudeDegrees>-2.25967031903564929962158203125</LongitudeDegrees>
            </Position>
            <AltitudeMeters>48.799999237060546875</AltitudeMeters>
            <DistanceMeters>NAN</DistanceMeters>
          </Trackpoint>
          <Trackpoint>
            <Time>2022-07-10T14:38:39.000Z</Time>
            <Position>
              <LatitudeDegrees>43.28506940044462680816650390625</LatitudeDegrees>
              <LongitudeDegrees>-2.25973469205200672149658203125</LongitudeDegrees>
            </Position>
            <AltitudeMeters>48.799999237060546875</AltitudeMeters>
            <DistanceMeters>NAN</DistanceMeters>
          </Trackpoint>
          <Trackpoint>
            <Time>2022-07-10T14:38:43.000Z</Time>
            <Position>
              <LatitudeDegrees>43.28496127389371395111083984375</LatitudeDegrees>
              <LongitudeDegrees>-2.2599654458463191986083984375</LongitudeDegrees>
            </Position>
            <AltitudeMeters>48.799999237060546875</AltitudeMeters>
            <DistanceMeters>NAN</DistanceMeters>
          </Trackpoint>
          <Trackpoint>
            <Time>2022-07-10T14:38:46.000Z</Time>
            <Position>
              <LatitudeDegrees>43.2849110662937164306640625</LatitudeDegrees>
              <LongitudeDegrees>-2.260173149406909942626953125</LongitudeDegrees>
            </Position>
            <AltitudeMeters>48.59999847412109375</AltitudeMeters>
            <DistanceMeters>NAN</DistanceMeters>
          </Trackpoint>
          <Trackpoint>
            <Time>2022-07-10T14:38:48.000Z</Time>
            <Position>
              <LatitudeDegrees>43.284907042980194091796875</LatitudeDegrees>
              <LongitudeDegrees>-2.2603007219731807708740234375</LongitudeDegrees>
            </Position>
            <AltitudeMeters>48.40000152587890625</AltitudeMeters>
            <DistanceMeters>NAN</DistanceMeters>
          </Trackpoint>
          <Trackpoint>
            <Time>2022-07-10T14:38:50.000Z</Time>
            <Position>
              <LatitudeDegrees>43.2849316857755184173583984375</LatitudeDegrees>
              <LongitudeDegrees>-2.260444052517414093017578125</LongitudeDegrees>
            </Position>
            <AltitudeMeters>48.200000762939453125</AltitudeMeters>
            <DistanceMeters>NAN</DistanceMeters>
          </Trackpoint>
          <Trackpoint>
            <Time>2022-07-10T14:38:52.000Z</Time>
            <Position>
              <LatitudeDegrees>43.2849833182990550994873046875</LatitudeDegrees>
              <LongitudeDegrees>-2.2605900652706623077392578125</LongitudeDegrees>
            </Position>
            <AltitudeMeters>48</AltitudeMeters>
            <DistanceMeters>NAN</DistanceMeters>
          </Trackpoint>
          <Trackpoint>
            <Time>2022-07-10T14:38:55.000Z</Time>
            <Position>
              <LatitudeDegrees>43.285086415708065032958984375</LatitudeDegrees>
              <LongitudeDegrees>-2.2607935778796672821044921875</LongitudeDegrees>
            </Position>
            <AltitudeMeters>47.799999237060546875</AltitudeMeters>
            <DistanceMeters>NAN</DistanceMeters>
          </Trackpoint>
          <Trackpoint>
            <Time>2022-07-10T14:38:59.000Z</Time>
            <Position>
              <LatitudeDegrees>43.28524055890738964080810546875</LatitudeDegrees>
              <LongitudeDegrees>-2.2610309533774852752685546875</LongitudeDegrees>
            </Position>
            <AltitudeMeters>47.40000152587890625</AltitudeMeters>
            <DistanceMeters>NAN</DistanceMeters>
          </Trackpoint>
          <Trackpoint>
            <Time>2022-07-10T14:39:05.000Z</Time>
            <Position>
              <LatitudeDegrees>43.2854641042649745941162109375</LatitudeDegrees>
              <LongitudeDegrees>-2.261399924755096435546875</LongitudeDegrees>
            </Position>
            <AltitudeMeters>47</AltitudeMeters>
            <DistanceMeters>NAN</DistanceMeters>
          </Trackpoint>
          <Trackpoint>
            <Time>2022-07-10T14:39:08.000Z</Time>
            <Position>
              <LatitudeDegrees>43.2855358533561229705810546875</LatitudeDegrees>
              <LongitudeDegrees>-2.2615958936512470245361328125</LongitudeDegrees>
            </Position>
            <AltitudeMeters>47</AltitudeMeters>
            <DistanceMeters>NAN</DistanceMeters>
          </Trackpoint>
          <Trackpoint>
            <Time>2022-07-10T14:39:10.000Z</Time>
            <Position>
              <LatitudeDegrees>43.285548426210880279541015625</LatitudeDegrees>
              <LongitudeDegrees>-2.26170158945024013519287109375</LongitudeDegrees>
            </Position>
            <AltitudeMeters>47.200000762939453125</AltitudeMeters>
            <DistanceMeters>NAN</DistanceMeters>
          </Trackpoint>
          <Trackpoint>
            <Time>2022-07-10T14:39:12.000Z</Time>
            <Position>
              <LatitudeDegrees>43.285559155046939849853515625</LatitudeDegrees>
              <LongitudeDegrees>-2.26182379759848117828369140625</LongitudeDegrees>
            </Position>
            <AltitudeMeters>47.200000762939453125</AltitudeMeters>
            <DistanceMeters>NAN</DistanceMeters>
          </Trackpoint>
          <Trackpoint>
            <Time>2022-07-10T14:39:16.000Z</Time>
            <Position>
              <LatitudeDegrees>43.28555337153375148773193359375</LatitudeDegrees>
              <LongitudeDegrees>-2.26202378980815410614013671875</LongitudeDegrees>
            </Position>
            <AltitudeMeters>47.40000152587890625</AltitudeMeters>
            <DistanceMeters>NAN</DistanceMeters>
          </Trackpoint>
          <Trackpoint>
            <Time>2022-07-10T14:39:20.000Z</Time>
            <Position>
              <LatitudeDegrees>43.28552596271038055419921875</LatitudeDegrees>
              <LongitudeDegrees>-2.26217952556908130645751953125</LongitudeDegrees>
            </Position>
            <AltitudeMeters>47.59999847412109375</AltitudeMeters>
            <DistanceMeters>NAN</DistanceMeters>
          </Trackpoint>
          <Trackpoint>
            <Time>2022-07-10T14:39:21.000Z</Time>
            <Position>
              <LatitudeDegrees>43.28551523387432098388671875</LatitudeDegrees>
              <LongitudeDegrees>-2.26222378201782703399658203125</LongitudeDegrees>
            </Position>
            <AltitudeMeters>47.59999847412109375</AltitudeMeters>
            <DistanceMeters>NAN</DistanceMeters>
          </Trackpoint>
          <Trackpoint>
            <Time>2022-07-10T14:39:26.000Z</Time>
            <Position>
              <LatitudeDegrees>43.2854248769581317901611328125</LatitudeDegrees>
              <LongitudeDegrees>-2.26244187913835048675537109375</LongitudeDegrees>
            </Position>
            <AltitudeMeters>48</AltitudeMeters>
            <DistanceMeters>NAN</DistanceMeters>
          </Trackpoint>
          <Trackpoint>
            <Time>2022-07-10T14:39:27.000Z</Time>
            <Position>
              <LatitudeDegrees>43.285402245819568634033203125</LatitudeDegrees>
              <LongitudeDegrees>-2.262484543025493621826171875</LongitudeDegrees>
            </Position>
            <AltitudeMeters>48</AltitudeMeters>
            <DistanceMeters>NAN</DistanceMeters>
          </Trackpoint>
          <Trackpoint>
            <Time>2022-07-10T14:39:32.000Z</Time>
            <Position>
              <LatitudeDegrees>43.28526553697884082794189453125</LatitudeDegrees>
              <LongitudeDegrees>-2.26262426935136318206787109375</LongitudeDegrees>
            </Position>
            <AltitudeMeters>47.799999237060546875</AltitudeMeters>
            <DistanceMeters>NAN</DistanceMeters>
          </Trackpoint>
          <Trackpoint>
            <Time>2022-07-10T14:39:40.000Z</Time>
            <Position>
              <LatitudeDegrees>43.28502346761524677276611328125</LatitudeDegrees>
              <LongitudeDegrees>-2.26286600343883037567138671875</LongitudeDegrees>
            </Position>
            <AltitudeMeters>47.799999237060546875</AltitudeMeters>
            <DistanceMeters>NAN</DistanceMeters>
          </Trackpoint>
          <Trackpoint>
            <Time>2022-07-10T14:39:49.000Z</Time>
            <Position>
              <LatitudeDegrees>43.284755162894725799560546875</LatitudeDegrees>
              <LongitudeDegrees>-2.26316842250525951385498046875</LongitudeDegrees>
            </Position>
            <AltitudeMeters>48.200000762939453125</AltitudeMeters>
            <DistanceMeters>NAN</DistanceMeters>
          </Trackpoint>
          <Trackpoint>
            <Time>2022-07-10T14:39:56.000Z</Time>
            <Position>
              <LatitudeDegrees>43.2846114970743656158447265625</LatitudeDegrees>
              <LongitudeDegrees>-2.26338517852127552032470703125</LongitudeDegrees>
            </Position>
            <AltitudeMeters>48.40000152587890625</AltitudeMeters>
            <DistanceMeters>NAN</DistanceMeters>
          </Trackpoint>
          <Trackpoint>
            <Time>2022-07-10T14:40:00.000Z</Time>
            <Position>
              <LatitudeDegrees>43.28455022536218166351318359375</LatitudeDegrees>
              <LongitudeDegrees>-2.263544015586376190185546875</LongitudeDegrees>
            </Position>
            <AltitudeMeters>48.59999847412109375</AltitudeMeters>
            <DistanceMeters>NAN</DistanceMeters>
          </Trackpoint>
          <Trackpoint>
            <Time>2022-07-10T14:40:04.000Z</Time>
            <Position>
              <LatitudeDegrees>43.2844663225114345550537109375</LatitudeDegrees>
              <LongitudeDegrees>-2.263666056096553802490234375</LongitudeDegrees>
            </Position>
            <AltitudeMeters>48.40000152587890625</AltitudeMeters>
            <DistanceMeters>NAN</DistanceMeters>
          </Trackpoint>
          <Trackpoint>
            <Time>2022-07-10T14:40:07.000Z</Time>
            <Position>
              <LatitudeDegrees>43.28437663614749908447265625</LatitudeDegrees>
              <LongitudeDegrees>-2.26378952153027057647705078125</LongitudeDegrees>
            </Position>
            <AltitudeMeters>48.200000762939453125</AltitudeMeters>
            <DistanceMeters>NAN</DistanceMeters>
          </Trackpoint>
          <Trackpoint>
            <Time>2022-07-10T14:40:09.000Z</Time>
            <Position>
              <LatitudeDegrees>43.28432709909975528717041015625</LatitudeDegrees>
              <LongitudeDegrees>-2.2638908587396144866943359375</LongitudeDegrees>
            </Position>
            <AltitudeMeters>48</AltitudeMeters>
            <DistanceMeters>NAN</DistanceMeters>
          </Trackpoint>
          <Trackpoint>
            <Time>2022-07-10T14:40:10.000Z</Time>
            <Position>
              <LatitudeDegrees>43.28430161811411380767822265625</LatitudeDegrees>
              <LongitudeDegrees>-2.263945005834102630615234375</LongitudeDegrees>
            </Position>
            <AltitudeMeters>48</AltitudeMeters>
            <DistanceMeters>NAN</DistanceMeters>
          </Trackpoint>
          <Trackpoint>
            <Time>2022-07-10T14:40:12.000Z</Time>
            <Position>
              <LatitudeDegrees>43.28425719402730464935302734375</LatitudeDegrees>
              <LongitudeDegrees>-2.264069058001041412353515625</LongitudeDegrees>
            </Position>
            <AltitudeMeters>48</AltitudeMeters>
            <DistanceMeters>NAN</DistanceMeters>
          </Trackpoint>
          <Trackpoint>
            <Time>2022-07-10T14:40:14.000Z</Time>
            <Position>
              <LatitudeDegrees>43.28422844409942626953125</LatitudeDegrees>
              <LongitudeDegrees>-2.2641919367015361785888671875</LongitudeDegrees>
            </Position>
            <AltitudeMeters>48.200000762939453125</AltitudeMeters>
            <DistanceMeters>NAN</DistanceMeters>
          </Trackpoint>
          <Trackpoint>
            <Time>2022-07-10T14:40:17.000Z</Time>
            <Position>
              <LatitudeDegrees>43.28422718681395053863525390625</LatitudeDegrees>
              <LongitudeDegrees>-2.26437340490520000457763671875</LongitudeDegrees>
            </Position>
            <AltitudeMeters>48</AltitudeMeters>
            <DistanceMeters>NAN</DistanceMeters>
          </Trackpoint>
          <Trackpoint>
            <Time>2022-07-10T14:40:19.000Z</Time>
            <Position>
              <LatitudeDegrees>43.28424210660159587860107421875</LatitudeDegrees>
              <LongitudeDegrees>-2.26447968743741512298583984375</LongitudeDegrees>
            </Position>
            <AltitudeMeters>47.799999237060546875</AltitudeMeters>
            <DistanceMeters>NAN</DistanceMeters>
          </Trackpoint>
          <Trackpoint>
            <Time>2022-07-10T14:40:22.000Z</Time>
            <Position>
              <LatitudeDegrees>43.28424579463899135589599609375</LatitudeDegrees>
              <LongitudeDegrees>-2.26466258056461811065673828125</LongitudeDegrees>
            </Position>
            <AltitudeMeters>47.59999847412109375</AltitudeMeters>
            <DistanceMeters>NAN</DistanceMeters>
          </Trackpoint>
          <Trackpoint>
            <Time>2022-07-10T14:40:23.000Z</Time>
            <Position>
              <LatitudeDegrees>43.28424118459224700927734375</LatitudeDegrees>
              <LongitudeDegrees>-2.264736928045749664306640625</LongitudeDegrees>
            </Position>
            <AltitudeMeters>47.40000152587890625</AltitudeMeters>
            <DistanceMeters>NAN</DistanceMeters>
          </Trackpoint>
          <Trackpoint>
            <Time>2022-07-10T14:40:26.000Z</Time>
            <Position>
              <LatitudeDegrees>43.28421293757855892181396484375</LatitudeDegrees>
              <LongitudeDegrees>-2.26495829410851001739501953125</LongitudeDegrees>
            </Position>
            <AltitudeMeters>46.799999237060546875</AltitudeMeters>
            <DistanceMeters>NAN</DistanceMeters>
          </Trackpoint>
          <Trackpoint>
            <Time>2022-07-10T14:40:27.000Z</Time>
            <Position>
              <LatitudeDegrees>43.2842110097408294677734375</LatitudeDegrees>
              <LongitudeDegrees>-2.26502618752419948577880859375</LongitudeDegrees>
            </Position>
            <AltitudeMeters>46.59999847412109375</AltitudeMeters>
            <DistanceMeters>NAN</DistanceMeters>
          </Trackpoint>
          <Trackpoint>
            <Time>2022-07-10T14:40:28.000Z</Time>
            <Position>
              <LatitudeDegrees>43.28421897254884243011474609375</LatitudeDegrees>
              <LongitudeDegrees>-2.26508402265608310699462890625</LongitudeDegrees>
            </Position>
            <AltitudeMeters>46.40000152587890625</AltitudeMeters>
            <DistanceMeters>NAN</DistanceMeters>
          </Trackpoint>
          <Trackpoint>
            <Time>2022-07-10T14:40:29.000Z</Time>
            <Position>
              <LatitudeDegrees>43.2842433638870716094970703125</LatitudeDegrees>
              <LongitudeDegrees>-2.26512358523905277252197265625</LongitudeDegrees>
            </Position>
            <AltitudeMeters>46</AltitudeMeters>
            <DistanceMeters>NAN</DistanceMeters>
          </Trackpoint>
          <Trackpoint>
            <Time>2022-07-10T14:40:31.000Z</Time>
            <Position>
              <LatitudeDegrees>43.2843090780079364776611328125</LatitudeDegrees>
              <LongitudeDegrees>-2.26517136208713054656982421875</LongitudeDegrees>
            </Position>
            <AltitudeMeters>45.799999237060546875</AltitudeMeters>
            <DistanceMeters>NAN</DistanceMeters>
          </Trackpoint>
          <Trackpoint>
            <Time>2022-07-10T14:40:33.000Z</Time>
            <Position>
              <LatitudeDegrees>43.28437353484332561492919921875</LatitudeDegrees>
              <LongitudeDegrees>-2.265182174742221832275390625</LongitudeDegrees>
            </Position>
            <AltitudeMeters>45.799999237060546875</AltitudeMeters>
            <DistanceMeters>NAN</DistanceMeters>
          </Trackpoint>
          <Trackpoint>
            <Time>2022-07-10T14:40:36.000Z</Time>
            <Position>
              <LatitudeDegrees>43.28446841798722743988037109375</LatitudeDegrees>
              <LongitudeDegrees>-2.26519919000566005706787109375</LongitudeDegrees>
            </Position>
            <AltitudeMeters>45.799999237060546875</AltitudeMeters>
            <DistanceMeters>NAN</DistanceMeters>
          </Trackpoint>
          <Trackpoint>
            <Time>2022-07-10T14:40:40.000Z</Time>
            <Position>
              <LatitudeDegrees>43.28458710573613643646240234375</LatitudeDegrees>
              <LongitudeDegrees>-2.2651913948357105255126953125</LongitudeDegrees>
            </Position>
            <AltitudeMeters>46.200000762939453125</AltitudeMeters>
            <DistanceMeters>NAN</DistanceMeters>
          </Trackpoint>
          <Trackpoint>
            <Time>2022-07-10T14:40:45.000Z</Time>
            <Position>
              <LatitudeDegrees>43.2847204618155956268310546875</LatitudeDegrees>
              <LongitudeDegrees>-2.2652019560337066650390625</LongitudeDegrees>
            </Position>
            <AltitudeMeters>46.799999237060546875</AltitudeMeters>
            <DistanceMeters>NAN</DistanceMeters>
          </Trackpoint>
          <Trackpoint>
            <Time>2022-07-10T14:40:48.000Z</Time>
            <Position>
              <LatitudeDegrees>43.28479162417352199554443359375</LatitudeDegrees>
              <LongitudeDegrees>-2.2652245871722698211669921875</LongitudeDegrees>
            </Position>
            <AltitudeMeters>47.200000762939453125</AltitudeMeters>
            <DistanceMeters>NAN</DistanceMeters>
          </Trackpoint>
          <Trackpoint>
            <Time>2022-07-10T14:40:51.000Z</Time>
            <Position>
              <LatitudeDegrees>43.284842669963836669921875</LatitudeDegrees>
              <LongitudeDegrees>-2.2652651555836200714111328125</LongitudeDegrees>
            </Position>
            <AltitudeMeters>47.59999847412109375</AltitudeMeters>
            <DistanceMeters>NAN</DistanceMeters>
          </Trackpoint>
          <Trackpoint>
            <Time>2022-07-10T14:40:53.000Z</Time>
            <Position>
              <LatitudeDegrees>43.2848669774830341339111328125</LatitudeDegrees>
              <LongitudeDegrees>-2.2653110884130001068115234375</LongitudeDegrees>
            </Position>
            <AltitudeMeters>47.799999237060546875</AltitudeMeters>
            <DistanceMeters>NAN</DistanceMeters>
          </Trackpoint>
          <Trackpoint>
            <Time>2022-07-10T14:40:54.000Z</Time>
            <Position>
              <LatitudeDegrees>43.284875191748142242431640625</LatitudeDegrees>
              <LongitudeDegrees>-2.2653372399508953094482421875</LongitudeDegrees>
            </Position>
            <AltitudeMeters>48</AltitudeMeters>
            <DistanceMeters>NAN</DistanceMeters>
          </Trackpoint>
          <Trackpoint>
            <Time>2022-07-10T14:40:55.000Z</Time>
            <Position>
              <LatitudeDegrees>43.2848787121474742889404296875</LatitudeDegrees>
              <LongitudeDegrees>-2.26536531932651996612548828125</LongitudeDegrees>
            </Position>
            <AltitudeMeters>48</AltitudeMeters>
            <DistanceMeters>NAN</DistanceMeters>
          </Trackpoint>
          <Trackpoint>
            <Time>2022-07-10T14:40:57.000Z</Time>
            <Position>
              <LatitudeDegrees>43.28487913124263286590576171875</LatitudeDegrees>
              <LongitudeDegrees>-2.265436984598636627197265625</LongitudeDegrees>
            </Position>
            <AltitudeMeters>48.40000152587890625</AltitudeMeters>
            <DistanceMeters>NAN</DistanceMeters>
          </Trackpoint>
          <Trackpoint>
            <Time>2022-07-10T14:41:00.000Z</Time>
            <Position>
              <LatitudeDegrees>43.284900672733783721923828125</LatitudeDegrees>
              <LongitudeDegrees>-2.2655372321605682373046875</LongitudeDegrees>
            </Position>
            <AltitudeMeters>48.59999847412109375</AltitudeMeters>
            <DistanceMeters>NAN</DistanceMeters>
          </Trackpoint>
          <Trackpoint>
            <Time>2022-07-10T14:41:02.000Z</Time>
            <Position>
              <LatitudeDegrees>43.2849119044840335845947265625</LatitudeDegrees>
              <LongitudeDegrees>-2.26561174727976322174072265625</LongitudeDegrees>
            </Position>
            <AltitudeMeters>48.799999237060546875</AltitudeMeters>
            <DistanceMeters>NAN</DistanceMeters>
          </Trackpoint>
          <Trackpoint>
            <Time>2022-07-10T14:41:05.000Z</Time>
            <Position>
              <LatitudeDegrees>43.28489136882126331329345703125</LatitudeDegrees>
              <LongitudeDegrees>-2.2657228074967861175537109375</LongitudeDegrees>
            </Position>
            <AltitudeMeters>49</AltitudeMeters>
            <DistanceMeters>NAN</DistanceMeters>
          </Trackpoint>
          <Trackpoint>
            <Time>2022-07-10T14:41:07.000Z</Time>
            <Position>
              <LatitudeDegrees>43.28485448844730854034423828125</LatitudeDegrees>
              <LongitudeDegrees>-2.2657881863415241241455078125</LongitudeDegrees>
            </Position>
            <AltitudeMeters>49.200000762939453125</AltitudeMeters>
            <DistanceMeters>NAN</DistanceMeters>
          </Trackpoint>
          <Trackpoint>
            <Time>2022-07-10T14:41:09.000Z</Time>
            <Position>
              <LatitudeDegrees>43.28482062555849552154541015625</LatitudeDegrees>
              <LongitudeDegrees>-2.26583956740796566009521484375</LongitudeDegrees>
            </Position>
            <AltitudeMeters>49.200000762939453125</AltitudeMeters>
            <DistanceMeters>NAN</DistanceMeters>
          </Trackpoint>
          <Trackpoint>
            <Time>2022-07-10T14:41:11.000Z</Time>
            <Position>
              <LatitudeDegrees>43.28477385453879833221435546875</LatitudeDegrees>
              <LongitudeDegrees>-2.26589421741664409637451171875</LongitudeDegrees>
            </Position>
            <AltitudeMeters>49.200000762939453125</AltitudeMeters>
            <DistanceMeters>NAN</DistanceMeters>
          </Trackpoint>
          <Trackpoint>
            <Time>2022-07-10T14:41:12.000Z</Time>
            <Position>
              <LatitudeDegrees>43.2847442664206027984619140625</LatitudeDegrees>
              <LongitudeDegrees>-2.26592414081096649169921875</LongitudeDegrees>
            </Position>
            <AltitudeMeters>49.200000762939453125</AltitudeMeters>
            <DistanceMeters>NAN</DistanceMeters>
          </Trackpoint>
          <Trackpoint>
            <Time>2022-07-10T14:41:14.000Z</Time>
            <Position>
              <LatitudeDegrees>43.2846906222403049468994140625</LatitudeDegrees>
              <LongitudeDegrees>-2.26596705615520477294921875</LongitudeDegrees>
            </Position>
            <AltitudeMeters>49.200000762939453125</AltitudeMeters>
            <DistanceMeters>NAN</DistanceMeters>
          </Trackpoint>
          <Trackpoint>
            <Time>2022-07-10T14:41:15.000Z</Time>
            <Position>
              <LatitudeDegrees>43.2846669852733612060546875</LatitudeDegrees>
              <LongitudeDegrees>-2.2659813053905963897705078125</LongitudeDegrees>
            </Position>
            <AltitudeMeters>49.200000762939453125</AltitudeMeters>
            <DistanceMeters>NAN</DistanceMeters>
          </Trackpoint>
          <Trackpoint>
            <Time>2022-07-10T14:41:19.000Z</Time>
            <Position>
              <LatitudeDegrees>43.2845273427665233612060546875</LatitudeDegrees>
              <LongitudeDegrees>-2.26605129428207874298095703125</LongitudeDegrees>
            </Position>
            <AltitudeMeters>49</AltitudeMeters>
            <DistanceMeters>NAN</DistanceMeters>
          </Trackpoint>
          <Trackpoint>
            <Time>2022-07-10T14:41:25.000Z</Time>
            <Position>
              <LatitudeDegrees>43.284315951168537139892578125</LatitudeDegrees>
              <LongitudeDegrees>-2.26616025902330875396728515625</LongitudeDegrees>
            </Position>
            <AltitudeMeters>49</AltitudeMeters>
            <DistanceMeters>NAN</DistanceMeters>
          </Trackpoint>
          <Trackpoint>
            <Time>2022-07-10T14:41:27.000Z</Time>
            <Position>
              <LatitudeDegrees>43.28427873551845550537109375</LatitudeDegrees>
              <LongitudeDegrees>-2.2661750949919223785400390625</LongitudeDegrees>
            </Position>
            <AltitudeMeters>49</AltitudeMeters>
            <DistanceMeters>NAN</DistanceMeters>
          </Trackpoint>
          <Trackpoint>
            <Time>2022-07-10T14:41:28.000Z</Time>
            <Position>
              <LatitudeDegrees>43.28420455567538738250732421875</LatitudeDegrees>
              <LongitudeDegrees>-2.26620267145335674285888671875</LongitudeDegrees>
            </Position>
            <AltitudeMeters>49</AltitudeMeters>
            <DistanceMeters>NAN</DistanceMeters>
          </Trackpoint>
          <Trackpoint>
            <Time>2022-07-10T14:41:37.000Z</Time>
            <Position>
              <LatitudeDegrees>43.28388855792582035064697265625</LatitudeDegrees>
              <LongitudeDegrees>-2.26635329425334930419921875</LongitudeDegrees>
            </Position>
            <AltitudeMeters>49.799999237060546875</AltitudeMeters>
            <DistanceMeters>NAN</DistanceMeters>
          </Trackpoint>
          <Trackpoint>
            <Time>2022-07-10T14:41:39.000Z</Time>
            <Position>
              <LatitudeDegrees>43.2838252745568752288818359375</LatitudeDegrees>
              <LongitudeDegrees>-2.26638003252446651458740234375</LongitudeDegrees>
            </Position>
            <AltitudeMeters>49.799999237060546875</AltitudeMeters>
            <DistanceMeters>NAN</DistanceMeters>
          </Trackpoint>
          <Trackpoint>
            <Time>2022-07-10T14:41:40.000Z</Time>
            <Position>
              <LatitudeDegrees>43.28379283659160137176513671875</LatitudeDegrees>
              <LongitudeDegrees>-2.26640023291110992431640625</LongitudeDegrees>
            </Position>
            <AltitudeMeters>50</AltitudeMeters>
            <DistanceMeters>NAN</DistanceMeters>
          </Trackpoint>
          <Trackpoint>
            <Time>2022-07-10T14:41:44.000Z</Time>
            <Position>
              <LatitudeDegrees>43.28365906141698360443115234375</LatitudeDegrees>
              <LongitudeDegrees>-2.26645479910075664520263671875</LongitudeDegrees>
            </Position>
            <AltitudeMeters>50.200000762939453125</AltitudeMeters>
            <DistanceMeters>NAN</DistanceMeters>
          </Trackpoint>
          <Trackpoint>
            <Time>2022-07-10T14:41:45.000Z</Time>
            <Position>
              <LatitudeDegrees>43.28362561762332916259765625</LatitudeDegrees>
              <LongitudeDegrees>-2.266466282308101654052734375</LongitudeDegrees>
            </Position>
            <AltitudeMeters>50.200000762939453125</AltitudeMeters>
            <DistanceMeters>NAN</DistanceMeters>
          </Trackpoint>
          <Trackpoint>
            <Time>2022-07-10T14:41:51.000Z</Time>
            <Position>
              <LatitudeDegrees>43.28342788852751255035400390625</LatitudeDegrees>
              <LongitudeDegrees>-2.266503833234310150146484375</LongitudeDegrees>
            </Position>
            <AltitudeMeters>50.59999847412109375</AltitudeMeters>
            <DistanceMeters>NAN</DistanceMeters>
          </Trackpoint>
          <Trackpoint>
            <Time>2022-07-10T14:41:55.000Z</Time>
            <Position>
              <LatitudeDegrees>43.28329126350581645965576171875</LatitudeDegrees>
              <LongitudeDegrees>-2.266525290906429290771484375</LongitudeDegrees>
            </Position>
            <AltitudeMeters>50.799999237060546875</AltitudeMeters>
            <DistanceMeters>NAN</DistanceMeters>
          </Trackpoint>
          <Trackpoint>
            <Time>2022-07-10T14:41:59.000Z</Time>
            <Position>
              <LatitudeDegrees>43.28316503204405307769775390625</LatitudeDegrees>
              <LongitudeDegrees>-2.2665242850780487060546875</LongitudeDegrees>
            </Position>
            <AltitudeMeters>51</AltitudeMeters>
            <DistanceMeters>NAN</DistanceMeters>
          </Trackpoint>
          <Trackpoint>
            <Time>2022-07-10T14:42:01.000Z</Time>
            <Position>
              <LatitudeDegrees>43.2830963842570781707763671875</LatitudeDegrees>
              <LongitudeDegrees>-2.26651581935584545135498046875</LongitudeDegrees>
            </Position>
            <AltitudeMeters>51.200000762939453125</AltitudeMeters>
            <DistanceMeters>NAN</DistanceMeters>
          </Trackpoint>
          <Trackpoint>
            <Time>2022-07-10T14:42:08.000Z</Time>
            <Position>
              <LatitudeDegrees>43.28283495269715785980224609375</LatitudeDegrees>
              <LongitudeDegrees>-2.26646653376519680023193359375</LongitudeDegrees>
            </Position>
            <AltitudeMeters>51.799999237060546875</AltitudeMeters>
            <DistanceMeters>NAN</DistanceMeters>
          </Trackpoint>
          <Trackpoint>
            <Time>2022-07-10T14:42:10.000Z</Time>
            <Position>
              <LatitudeDegrees>43.28276471234858036041259765625</LatitudeDegrees>
              <LongitudeDegrees>-2.2664490155875682830810546875</LongitudeDegrees>
            </Position>
            <AltitudeMeters>51.799999237060546875</AltitudeMeters>
            <DistanceMeters>NAN</DistanceMeters>
          </Trackpoint>
          <Trackpoint>
            <Time>2022-07-10T14:42:12.000Z</Time>
            <Position>
              <LatitudeDegrees>43.28269078396260738372802734375</LatitudeDegrees>
              <LongitudeDegrees>-2.2664305754005908966064453125</LongitudeDegrees>
            </Position>
            <AltitudeMeters>52</AltitudeMeters>
            <DistanceMeters>NAN</DistanceMeters>
          </Trackpoint>
          <Trackpoint>
            <Time>2022-07-10T14:42:14.000Z</Time>
            <Position>
              <LatitudeDegrees>43.28262423165142536163330078125</LatitudeDegrees>
              <LongitudeDegrees>-2.2664258815348148345947265625</LongitudeDegrees>
            </Position>
            <AltitudeMeters>52</AltitudeMeters>
            <DistanceMeters>NAN</DistanceMeters>
          </Trackpoint>
          <Trackpoint>
            <Time>2022-07-10T14:42:19.000Z</Time>
            <Position>
              <LatitudeDegrees>43.282478637993335723876953125</LatitudeDegrees>
              <LongitudeDegrees>-2.26638673804700374603271484375</LongitudeDegrees>
            </Position>
            <AltitudeMeters>52.40000152587890625</AltitudeMeters>
            <DistanceMeters>NAN</DistanceMeters>
          </Trackpoint>
          <Trackpoint>
            <Time>2022-07-10T14:42:22.000Z</Time>
            <Position>
              <LatitudeDegrees>43.2824261672794818878173828125</LatitudeDegrees>
              <LongitudeDegrees>-2.2663601674139499664306640625</LongitudeDegrees>
            </Position>
            <AltitudeMeters>52.59999847412109375</AltitudeMeters>
            <DistanceMeters>NAN</DistanceMeters>
          </Trackpoint>
          <Trackpoint>
            <Time>2022-07-10T14:42:24.000Z</Time>
            <Position>
              <LatitudeDegrees>43.2823185436427593231201171875</LatitudeDegrees>
              <LongitudeDegrees>-2.2663081996142864227294921875</LongitudeDegrees>
            </Position>
            <AltitudeMeters>53</AltitudeMeters>
            <DistanceMeters>NAN</DistanceMeters>
          </Trackpoint>
          <Trackpoint>
            <Time>2022-07-10T14:42:28.000Z</Time>
            <Position>
              <LatitudeDegrees>43.28219306655228137969970703125</LatitudeDegrees>
              <LongitudeDegrees>-2.2662689723074436187744140625</LongitudeDegrees>
            </Position>
            <AltitudeMeters>53.59999847412109375</AltitudeMeters>
            <DistanceMeters>NAN</DistanceMeters>
          </Trackpoint>
          <Trackpoint>
            <Time>2022-07-10T14:42:31.000Z</Time>
            <Position>
              <LatitudeDegrees>43.282095082104206085205078125</LatitudeDegrees>
              <LongitudeDegrees>-2.2662220336496829986572265625</LongitudeDegrees>
            </Position>
            <AltitudeMeters>54</AltitudeMeters>
            <DistanceMeters>NAN</DistanceMeters>
          </Trackpoint>
          <Trackpoint>
            <Time>2022-07-10T14:42:33.000Z</Time>
            <Position>
              <LatitudeDegrees>43.28203213401138782501220703125</LatitudeDegrees>
              <LongitudeDegrees>-2.2661942057311534881591796875</LongitudeDegrees>
            </Position>
            <AltitudeMeters>54.200000762939453125</AltitudeMeters>
            <DistanceMeters>NAN</DistanceMeters>
          </Trackpoint>
          <Trackpoint>
            <Time>2022-07-10T14:42:34.000Z</Time>
            <Position>
              <LatitudeDegrees>43.28200715593993663787841796875</LatitudeDegrees>
              <LongitudeDegrees>-2.26618372835218906402587890625</LongitudeDegrees>
            </Position>
            <AltitudeMeters>54.200000762939453125</AltitudeMeters>
            <DistanceMeters>NAN</DistanceMeters>
          </Trackpoint>
          <Trackpoint>
            <Time>2022-07-10T14:42:41.000Z</Time>
            <Position>
              <LatitudeDegrees>43.281784951686859130859375</LatitudeDegrees>
              <LongitudeDegrees>-2.26611885242164134979248046875</LongitudeDegrees>
            </Position>
            <AltitudeMeters>54.799999237060546875</AltitudeMeters>
            <DistanceMeters>NAN</DistanceMeters>
          </Trackpoint>
          <Trackpoint>
            <Time>2022-07-10T14:42:45.000Z</Time>
            <Position>
              <LatitudeDegrees>43.28163751401007175445556640625</LatitudeDegrees>
              <LongitudeDegrees>-2.26607157848775386810302734375</LongitudeDegrees>
            </Position>
            <AltitudeMeters>55</AltitudeMeters>
            <DistanceMeters>NAN</DistanceMeters>
          </Trackpoint>
          <Trackpoint>
            <Time>2022-07-10T14:42:47.000Z</Time>
            <Position>
              <LatitudeDegrees>43.28156459145247936248779296875</LatitudeDegrees>
              <LongitudeDegrees>-2.26607074029743671417236328125</LongitudeDegrees>
            </Position>
            <AltitudeMeters>55.200000762939453125</AltitudeMeters>
            <DistanceMeters>NAN</DistanceMeters>
          </Trackpoint>
          <Trackpoint>
            <Time>2022-07-10T14:42:53.000Z</Time>
            <Position>
              <LatitudeDegrees>43.2813060097396373748779296875</LatitudeDegrees>
              <LongitudeDegrees>-2.2660822235047817230224609375</LongitudeDegrees>
            </Position>
            <AltitudeMeters>55.59999847412109375</AltitudeMeters>
            <DistanceMeters>NAN</DistanceMeters>
          </Trackpoint>
          <Trackpoint>
            <Time>2022-07-10T14:42:55.000Z</Time>
            <Position>
              <LatitudeDegrees>43.28123250044882297515869140625</LatitudeDegrees>
              <LongitudeDegrees>-2.2660817205905914306640625</LongitudeDegrees>
            </Position>
            <AltitudeMeters>55.799999237060546875</AltitudeMeters>
            <DistanceMeters>NAN</DistanceMeters>
          </Trackpoint>
          <Trackpoint>
            <Time>2022-07-10T14:42:57.000Z</Time>
            <Position>
              <LatitudeDegrees>43.281167037785053253173828125</LatitudeDegrees>
              <LongitudeDegrees>-2.2660906054079532623291015625</LongitudeDegrees>
            </Position>
            <AltitudeMeters>56.200000762939453125</AltitudeMeters>
            <DistanceMeters>NAN</DistanceMeters>
          </Trackpoint>
          <Trackpoint>
            <Time>2022-07-10T14:43:01.000Z</Time>
            <Position>
              <LatitudeDegrees>43.2810287363827228546142578125</LatitudeDegrees>
              <LongitudeDegrees>-2.26610996760427951812744140625</LongitudeDegrees>
            </Position>
            <AltitudeMeters>56.40000152587890625</AltitudeMeters>
            <DistanceMeters>NAN</DistanceMeters>
          </Trackpoint>
          <Trackpoint>
            <Time>2022-07-10T14:43:08.000Z</Time>
            <Position>
              <LatitudeDegrees>43.28083880245685577392578125</LatitudeDegrees>
              <LongitudeDegrees>-2.266277857124805450439453125</LongitudeDegrees>
            </Position>
            <AltitudeMeters>57.200000762939453125</AltitudeMeters>
            <DistanceMeters>NAN</DistanceMeters>
          </Trackpoint>
          <Trackpoint>
            <Time>2022-07-10T14:43:11.000Z</Time>
            <Position>
              <LatitudeDegrees>43.28076227568089962005615234375</LatitudeDegrees>
              <LongitudeDegrees>-2.26637517102062702178955078125</LongitudeDegrees>
            </Position>
            <AltitudeMeters>57.40000152587890625</AltitudeMeters>
            <DistanceMeters>NAN</DistanceMeters>
          </Trackpoint>
          <Trackpoint>
            <Time>2022-07-10T14:43:20.000Z</Time>
            <Position>
              <LatitudeDegrees>43.28056253492832183837890625</LatitudeDegrees>
              <LongitudeDegrees>-2.2666944377124309539794921875</LongitudeDegrees>
            </Position>
            <AltitudeMeters>57.59999847412109375</AltitudeMeters>
            <DistanceMeters>NAN</DistanceMeters>
          </Trackpoint>
          <Trackpoint>
            <Time>2022-07-10T14:43:27.000Z</Time>
            <Position>
              <LatitudeDegrees>43.2804074697196483612060546875</LatitudeDegrees>
              <LongitudeDegrees>-2.26689803414046764373779296875</LongitudeDegrees>
            </Position>
            <AltitudeMeters>58.200000762939453125</AltitudeMeters>
            <DistanceMeters>NAN</DistanceMeters>
          </Trackpoint>
          <Trackpoint>
            <Time>2022-07-10T14:43:29.000Z</Time>
            <Position>
              <LatitudeDegrees>43.28036681748926639556884765625</LatitudeDegrees>
              <LongitudeDegrees>-2.26694866083562374114990234375</LongitudeDegrees>
            </Position>
            <AltitudeMeters>58.40000152587890625</AltitudeMeters>
            <DistanceMeters>NAN</DistanceMeters>
          </Trackpoint>
          <Trackpoint>
            <Time>2022-07-10T14:43:35.000Z</Time>
            <Position>
              <LatitudeDegrees>43.2802586071193218231201171875</LatitudeDegrees>
              <LongitudeDegrees>-2.26714882068336009979248046875</LongitudeDegrees>
            </Position>
            <AltitudeMeters>58.59999847412109375</AltitudeMeters>
            <DistanceMeters>NAN</DistanceMeters>
          </Trackpoint>
          <Trackpoint>
            <Time>2022-07-10T14:43:38.000Z</Time>
            <Position>
              <LatitudeDegrees>43.28021829016506671905517578125</LatitudeDegrees>
              <LongitudeDegrees>-2.26725996471941471099853515625</LongitudeDegrees>
            </Position>
            <AltitudeMeters>58.799999237060546875</AltitudeMeters>
            <DistanceMeters>NAN</DistanceMeters>
          </Trackpoint>
          <Trackpoint>
            <Time>2022-07-10T14:43:41.000Z</Time>
            <Position>
              <LatitudeDegrees>43.28020135872066020965576171875</LatitudeDegrees>
              <LongitudeDegrees>-2.26737228222191333770751953125</LongitudeDegrees>
            </Position>
            <AltitudeMeters>59</AltitudeMeters>
            <DistanceMeters>NAN</DistanceMeters>
          </Trackpoint>
          <Trackpoint>
            <Time>2022-07-10T14:43:43.000Z</Time>
            <Position>
              <LatitudeDegrees>43.28017571009695529937744140625</LatitudeDegrees>
              <LongitudeDegrees>-2.26746096275746822357177734375</LongitudeDegrees>
            </Position>
            <AltitudeMeters>59</AltitudeMeters>
            <DistanceMeters>NAN</DistanceMeters>
          </Trackpoint>
          <Trackpoint>
            <Time>2022-07-10T14:43:46.000Z</Time>
            <Position>
              <LatitudeDegrees>43.280143775045871734619140625</LatitudeDegrees>
              <LongitudeDegrees>-2.267522402107715606689453125</LongitudeDegrees>
            </Position>
            <AltitudeMeters>59</AltitudeMeters>
            <DistanceMeters>NAN</DistanceMeters>
          </Trackpoint>
          <Trackpoint>
            <Time>2022-07-10T14:43:52.000Z</Time>
            <Position>
              <LatitudeDegrees>43.2800561003386974334716796875</LatitudeDegrees>
              <LongitudeDegrees>-2.26778198964893817901611328125</LongitudeDegrees>
            </Position>
            <AltitudeMeters>59.200000762939453125</AltitudeMeters>
            <DistanceMeters>NAN</DistanceMeters>
          </Trackpoint>
          <Trackpoint>
            <Time>2022-07-10T14:43:53.000Z</Time>
            <Position>
              <LatitudeDegrees>43.28004352748394012451171875</LatitudeDegrees>
              <LongitudeDegrees>-2.26781367324292659759521484375</LongitudeDegrees>
            </Position>
            <AltitudeMeters>59.200000762939453125</AltitudeMeters>
            <DistanceMeters>NAN</DistanceMeters>
          </Trackpoint>
          <Trackpoint>
            <Time>2022-07-10T14:43:55.000Z</Time>
            <Position>
              <LatitudeDegrees>43.2800160348415374755859375</LatitudeDegrees>
              <LongitudeDegrees>-2.26788139902055263519287109375</LongitudeDegrees>
            </Position>
            <AltitudeMeters>59.40000152587890625</AltitudeMeters>
            <DistanceMeters>NAN</DistanceMeters>
          </Trackpoint>
          <Trackpoint>
            <Time>2022-07-10T14:44:00.000Z</Time>
            <Position>
              <LatitudeDegrees>43.27995794825255870819091796875</LatitudeDegrees>
              <LongitudeDegrees>-2.268054820597171783447265625</LongitudeDegrees>
            </Position>
            <AltitudeMeters>59.799999237060546875</AltitudeMeters>
            <DistanceMeters>NAN</DistanceMeters>
          </Trackpoint>
          <Trackpoint>
            <Time>2022-07-10T14:44:06.000Z</Time>
            <Position>
              <LatitudeDegrees>43.27986641786992549896240234375</LatitudeDegrees>
              <LongitudeDegrees>-2.26824819110333919525146484375</LongitudeDegrees>
            </Position>
            <AltitudeMeters>60.200000762939453125</AltitudeMeters>
            <DistanceMeters>NAN</DistanceMeters>
          </Trackpoint>
          <Trackpoint>
            <Time>2022-07-10T14:44:07.000Z</Time>
            <Position>
              <LatitudeDegrees>43.27984730713069438934326171875</LatitudeDegrees>
              <LongitudeDegrees>-2.2682776115834712982177734375</LongitudeDegrees>
            </Position>
            <AltitudeMeters>60.40000152587890625</AltitudeMeters>
            <DistanceMeters>NAN</DistanceMeters>
          </Trackpoint>
          <Trackpoint>
            <Time>2022-07-10T14:44:12.000Z</Time>
            <Position>
              <LatitudeDegrees>43.2797491550445556640625</LatitudeDegrees>
              <LongitudeDegrees>-2.26840593852102756500244140625</LongitudeDegrees>
            </Position>
            <AltitudeMeters>61</AltitudeMeters>
            <DistanceMeters>NAN</DistanceMeters>
          </Trackpoint>
          <Trackpoint>
            <Time>2022-07-10T14:44:13.000Z</Time>
            <Position>
              <LatitudeDegrees>43.27972962521016597747802734375</LatitudeDegrees>
              <LongitudeDegrees>-2.2684315033257007598876953125</LongitudeDegrees>
            </Position>
            <AltitudeMeters>61</AltitudeMeters>
            <DistanceMeters>NAN</DistanceMeters>
          </Trackpoint>
          <Trackpoint>
            <Time>2022-07-10T14:44:19.000Z</Time>
            <Position>
              <LatitudeDegrees>43.27963574789464473724365234375</LatitudeDegrees>
              <LongitudeDegrees>-2.2685729898512363433837890625</LongitudeDegrees>
            </Position>
            <AltitudeMeters>61.40000152587890625</AltitudeMeters>
            <DistanceMeters>NAN</DistanceMeters>
          </Trackpoint>
          <Trackpoint>
            <Time>2022-07-10T14:44:25.000Z</Time>
            <Position>
              <LatitudeDegrees>43.279545307159423828125</LatitudeDegrees>
              <LongitudeDegrees>-2.2687057591974735260009765625</LongitudeDegrees>
            </Position>
            <AltitudeMeters>62.40000152587890625</AltitudeMeters>
            <DistanceMeters>NAN</DistanceMeters>
          </Trackpoint>
          <Trackpoint>
            <Time>2022-07-10T14:44:26.000Z</Time>
            <Position>
              <LatitudeDegrees>43.27952879481017589569091796875</LatitudeDegrees>
              <LongitudeDegrees>-2.26871363818645477294921875</LongitudeDegrees>
            </Position>
            <AltitudeMeters>62.59999847412109375</AltitudeMeters>
            <DistanceMeters>NAN</DistanceMeters>
          </Trackpoint>
          <Trackpoint>
            <Time>2022-07-10T14:44:29.000Z</Time>
            <Position>
              <LatitudeDegrees>43.27946458943188190460205078125</LatitudeDegrees>
              <LongitudeDegrees>-2.26876594126224517822265625</LongitudeDegrees>
            </Position>
            <AltitudeMeters>62.799999237060546875</AltitudeMeters>
            <DistanceMeters>NAN</DistanceMeters>
          </Trackpoint>
          <Trackpoint>
            <Time>2022-07-10T14:44:31.000Z</Time>
            <Position>
              <LatitudeDegrees>43.2794224284589290618896484375</LatitudeDegrees>
              <LongitudeDegrees>-2.26879821158945560455322265625</LongitudeDegrees>
            </Position>
            <AltitudeMeters>63</AltitudeMeters>
            <DistanceMeters>NAN</DistanceMeters>
          </Trackpoint>
          <Trackpoint>
            <Time>2022-07-10T14:44:38.000Z</Time>
            <Position>
              <LatitudeDegrees>43.279290832579135894775390625</LatitudeDegrees>
              <LongitudeDegrees>-2.26897641085088253021240234375</LongitudeDegrees>
            </Position>
            <AltitudeMeters>63.59999847412109375</AltitudeMeters>
            <DistanceMeters>NAN</DistanceMeters>
          </Trackpoint>
          <Trackpoint>
            <Time>2022-07-10T14:44:41.000Z</Time>
            <Position>
              <LatitudeDegrees>43.27923056669533252716064453125</LatitudeDegrees>
              <LongitudeDegrees>-2.2690470702946186065673828125</LongitudeDegrees>
            </Position>
            <AltitudeMeters>64</AltitudeMeters>
            <DistanceMeters>NAN</DistanceMeters>
          </Trackpoint>
          <Trackpoint>
            <Time>2022-07-10T14:44:43.000Z</Time>
            <Position>
              <LatitudeDegrees>43.279193937778472900390625</LatitudeDegrees>
              <LongitudeDegrees>-2.26909258402884006500244140625</LongitudeDegrees>
            </Position>
            <AltitudeMeters>64.1999969482421875</AltitudeMeters>
            <DistanceMeters>NAN</DistanceMeters>
          </Trackpoint>
          <Trackpoint>
            <Time>2022-07-10T14:44:46.000Z</Time>
            <Position>
              <LatitudeDegrees>43.279148675501346588134765625</LatitudeDegrees>
              <LongitudeDegrees>-2.26914807222783565521240234375</LongitudeDegrees>
            </Position>
            <AltitudeMeters>64.59999847412109375</AltitudeMeters>
            <DistanceMeters>NAN</DistanceMeters>
          </Trackpoint>
          <Trackpoint>
            <Time>2022-07-10T14:44:48.000Z</Time>
            <Position>
              <LatitudeDegrees>43.27911238186061382293701171875</LatitudeDegrees>
              <LongitudeDegrees>-2.26920004002749919891357421875</LongitudeDegrees>
            </Position>
            <AltitudeMeters>64.8000030517578125</AltitudeMeters>
            <DistanceMeters>NAN</DistanceMeters>
          </Trackpoint>
          <Trackpoint>
            <Time>2022-07-10T14:44:55.000Z</Time>
            <Position>
              <LatitudeDegrees>43.27899235300719738006591796875</LatitudeDegrees>
              <LongitudeDegrees>-2.26935862563550472259521484375</LongitudeDegrees>
            </Position>
            <AltitudeMeters>65.59999847412109375</AltitudeMeters>
            <DistanceMeters>NAN</DistanceMeters>
          </Trackpoint>
          <Trackpoint>
            <Time>2022-07-10T14:44:56.000Z</Time>
            <Position>
              <LatitudeDegrees>43.2789771817624568939208984375</LatitudeDegrees>
              <LongitudeDegrees>-2.26937522180378437042236328125</LongitudeDegrees>
            </Position>
            <AltitudeMeters>65.59999847412109375</AltitudeMeters>
            <DistanceMeters>NAN</DistanceMeters>
          </Trackpoint>
          <Trackpoint>
            <Time>2022-07-10T14:44:58.000Z</Time>
            <Position>
              <LatitudeDegrees>43.2789406366646289825439453125</LatitudeDegrees>
              <LongitudeDegrees>-2.269416041672229766845703125</LongitudeDegrees>
            </Position>
            <AltitudeMeters>65.8000030517578125</AltitudeMeters>
            <DistanceMeters>NAN</DistanceMeters>
          </Trackpoint>
          <Trackpoint>
            <Time>2022-07-10T14:45:06.000Z</Time>
            <Position>
              <LatitudeDegrees>43.27879118733108043670654296875</LatitudeDegrees>
              <LongitudeDegrees>-2.269594408571720123291015625</LongitudeDegrees>
            </Position>
            <AltitudeMeters>66.8000030517578125</AltitudeMeters>
            <DistanceMeters>NAN</DistanceMeters>
          </Trackpoint>
          <Trackpoint>
            <Time>2022-07-10T14:45:10.000Z</Time>
            <Position>
              <LatitudeDegrees>43.2786985673010349273681640625</LatitudeDegrees>
              <LongitudeDegrees>-2.26968786679208278656005859375</LongitudeDegrees>
            </Position>
            <AltitudeMeters>67</AltitudeMeters>
            <DistanceMeters>NAN</DistanceMeters>
          </Trackpoint>
          <Trackpoint>
            <Time>2022-07-10T14:45:13.000Z</Time>
            <Position>
              <LatitudeDegrees>43.2786315120756626129150390625</LatitudeDegrees>
              <LongitudeDegrees>-2.26976095698773860931396484375</LongitudeDegrees>
            </Position>
            <AltitudeMeters>67.40000152587890625</AltitudeMeters>
            <DistanceMeters>NAN</DistanceMeters>
          </Trackpoint>
          <Trackpoint>
            <Time>2022-07-10T14:45:18.000Z</Time>
            <Position>
              <LatitudeDegrees>43.27853143215179443359375</LatitudeDegrees>
              <LongitudeDegrees>-2.26986489258706569671630859375</LongitudeDegrees>
            </Position>
            <AltitudeMeters>67.59999847412109375</AltitudeMeters>
            <DistanceMeters>NAN</DistanceMeters>
          </Trackpoint>
          <Trackpoint>
            <Time>2022-07-10T14:45:21.000Z</Time>
            <Position>
              <LatitudeDegrees>43.278470747172832489013671875</LatitudeDegrees>
              <LongitudeDegrees>-2.269936390221118927001953125</LongitudeDegrees>
            </Position>
            <AltitudeMeters>67.8000030517578125</AltitudeMeters>
            <DistanceMeters>NAN</DistanceMeters>
          </Trackpoint>
          <Trackpoint>
            <Time>2022-07-10T14:45:27.000Z</Time>
            <Position>
              <LatitudeDegrees>43.278363458812236785888671875</LatitudeDegrees>
              <LongitudeDegrees>-2.27005566470324993133544921875</LongitudeDegrees>
            </Position>
            <AltitudeMeters>68.40000152587890625</AltitudeMeters>
            <DistanceMeters>NAN</DistanceMeters>
          </Trackpoint>
          <Trackpoint>
            <Time>2022-07-10T14:45:34.000Z</Time>
            <Position>
              <LatitudeDegrees>43.2782590202987194061279296875</LatitudeDegrees>
              <LongitudeDegrees>-2.270148284733295440673828125</LongitudeDegrees>
            </Position>
            <AltitudeMeters>68.8000030517578125</AltitudeMeters>
            <DistanceMeters>NAN</DistanceMeters>
          </Trackpoint>
          <Trackpoint>
            <Time>2022-07-10T14:45:35.000Z</Time>
            <Position>
              <LatitudeDegrees>43.27822029590606689453125</LatitudeDegrees>
              <LongitudeDegrees>-2.27016949094831943511962890625</LongitudeDegrees>
            </Position>
            <AltitudeMeters>68.8000030517578125</AltitudeMeters>
            <DistanceMeters>NAN</DistanceMeters>
          </Trackpoint>
          <Trackpoint>
            <Time>2022-07-10T14:45:42.000Z</Time>
            <Position>
              <LatitudeDegrees>43.278064727783203125</LatitudeDegrees>
              <LongitudeDegrees>-2.27033612318336963653564453125</LongitudeDegrees>
            </Position>
            <AltitudeMeters>69.1999969482421875</AltitudeMeters>
            <DistanceMeters>NAN</DistanceMeters>
          </Trackpoint>
          <Trackpoint>
            <Time>2022-07-10T14:45:51.000Z</Time>
            <Position>
              <LatitudeDegrees>43.27780966646969318389892578125</LatitudeDegrees>
              <LongitudeDegrees>-2.27058204822242259979248046875</LongitudeDegrees>
            </Position>
            <AltitudeMeters>69.40000152587890625</AltitudeMeters>
            <DistanceMeters>NAN</DistanceMeters>
          </Trackpoint>
          <Trackpoint>
            <Time>2022-07-10T14:45:56.000Z</Time>
            <Position>
              <LatitudeDegrees>43.27768712304532527923583984375</LatitudeDegrees>
              <LongitudeDegrees>-2.2707167454063892364501953125</LongitudeDegrees>
            </Position>
            <AltitudeMeters>69.59999847412109375</AltitudeMeters>
            <DistanceMeters>NAN</DistanceMeters>
          </Trackpoint>
          <Trackpoint>
            <Time>2022-07-10T14:45:58.000Z</Time>
            <Position>
              <LatitudeDegrees>43.2776327244937419891357421875</LatitudeDegrees>
              <LongitudeDegrees>-2.27077751420438289642333984375</LongitudeDegrees>
            </Position>
            <AltitudeMeters>69.8000030517578125</AltitudeMeters>
            <DistanceMeters>NAN</DistanceMeters>
          </Trackpoint>
          <Trackpoint>
            <Time>2022-07-10T14:46:01.000Z</Time>
            <Position>
              <LatitudeDegrees>43.27756441198289394378662109375</LatitudeDegrees>
              <LongitudeDegrees>-2.27085110731422901153564453125</LongitudeDegrees>
            </Position>
            <AltitudeMeters>70</AltitudeMeters>
            <DistanceMeters>NAN</DistanceMeters>
          </Trackpoint>
          <Trackpoint>
            <Time>2022-07-10T14:46:09.000Z</Time>
            <Position>
              <LatitudeDegrees>43.27736400067806243896484375</LatitudeDegrees>
              <LongitudeDegrees>-2.271056212484836578369140625</LongitudeDegrees>
            </Position>
            <AltitudeMeters>70.40000152587890625</AltitudeMeters>
            <DistanceMeters>NAN</DistanceMeters>
          </Trackpoint>
          <Trackpoint>
            <Time>2022-07-10T14:46:12.000Z</Time>
            <Position>
              <LatitudeDegrees>43.27729158103466033935546875</LatitudeDegrees>
              <LongitudeDegrees>-2.27114799432456493377685546875</LongitudeDegrees>
            </Position>
            <AltitudeMeters>70.59999847412109375</AltitudeMeters>
            <DistanceMeters>NAN</DistanceMeters>
          </Trackpoint>
          <Trackpoint>
            <Time>2022-07-10T14:46:13.000Z</Time>
            <Position>
              <LatitudeDegrees>43.2772689498960971832275390625</LatitudeDegrees>
              <LongitudeDegrees>-2.271176241338253021240234375</LongitudeDegrees>
            </Position>
            <AltitudeMeters>70.59999847412109375</AltitudeMeters>
            <DistanceMeters>NAN</DistanceMeters>
          </Trackpoint>
          <Trackpoint>
            <Time>2022-07-10T14:46:16.000Z</Time>
            <Position>
              <LatitudeDegrees>43.2772210054099559783935546875</LatitudeDegrees>
              <LongitudeDegrees>-2.27122946642339229583740234375</LongitudeDegrees>
            </Position>
            <AltitudeMeters>70.8000030517578125</AltitudeMeters>
            <DistanceMeters>NAN</DistanceMeters>
          </Trackpoint>
          <Trackpoint>
            <Time>2022-07-10T14:46:18.000Z</Time>
            <Position>
              <LatitudeDegrees>43.2771626673638820648193359375</LatitudeDegrees>
              <LongitudeDegrees>-2.2713242657482624053955078125</LongitudeDegrees>
            </Position>
            <AltitudeMeters>71</AltitudeMeters>
            <DistanceMeters>NAN</DistanceMeters>
          </Trackpoint>
          <Trackpoint>
            <Time>2022-07-10T14:46:19.000Z</Time>
            <Position>
              <LatitudeDegrees>43.27714632265269756317138671875</LatitudeDegrees>
              <LongitudeDegrees>-2.27135561406612396240234375</LongitudeDegrees>
            </Position>
            <AltitudeMeters>71</AltitudeMeters>
            <DistanceMeters>NAN</DistanceMeters>
          </Trackpoint>
          <Trackpoint>
            <Time>2022-07-10T14:46:27.000Z</Time>
            <Position>
              <LatitudeDegrees>43.27696812339127063751220703125</LatitudeDegrees>
              <LongitudeDegrees>-2.27157966233789920806884765625</LongitudeDegrees>
            </Position>
            <AltitudeMeters>71</AltitudeMeters>
            <DistanceMeters>NAN</DistanceMeters>
          </Trackpoint>
          <Trackpoint>
            <Time>2022-07-10T14:46:28.000Z</Time>
            <Position>
              <LatitudeDegrees>43.2769422233104705810546875</LatitudeDegrees>
              <LongitudeDegrees>-2.27160832844674587249755859375</LongitudeDegrees>
            </Position>
            <AltitudeMeters>71</AltitudeMeters>
            <DistanceMeters>NAN</DistanceMeters>
          </Trackpoint>
          <Trackpoint>
            <Time>2022-07-10T14:46:32.000Z</Time>
            <Position>
              <LatitudeDegrees>43.2768149860203266143798828125</LatitudeDegrees>
              <LongitudeDegrees>-2.2717353142797946929931640625</LongitudeDegrees>
            </Position>
            <AltitudeMeters>71</AltitudeMeters>
            <DistanceMeters>NAN</DistanceMeters>
          </Trackpoint>
          <Trackpoint>
            <Time>2022-07-10T14:46:35.000Z</Time>
            <Position>
              <LatitudeDegrees>43.27671264298260211944580078125</LatitudeDegrees>
              <LongitudeDegrees>-2.2718271799385547637939453125</LongitudeDegrees>
            </Position>
            <AltitudeMeters>71</AltitudeMeters>
            <DistanceMeters>NAN</DistanceMeters>
          </Trackpoint>
          <Trackpoint>
            <Time>2022-07-10T14:46:42.000Z</Time>
            <Position>
              <LatitudeDegrees>43.27651265077292919158935546875</LatitudeDegrees>
              <LongitudeDegrees>-2.272101938724517822265625</LongitudeDegrees>
            </Position>
            <AltitudeMeters>71</AltitudeMeters>
            <DistanceMeters>NAN</DistanceMeters>
          </Trackpoint>
          <Trackpoint>
            <Time>2022-07-10T14:46:43.000Z</Time>
            <Position>
              <LatitudeDegrees>43.27648415230214595794677734375</LatitudeDegrees>
              <LongitudeDegrees>-2.27213940583169460296630859375</LongitudeDegrees>
            </Position>
            <AltitudeMeters>71</AltitudeMeters>
            <DistanceMeters>NAN</DistanceMeters>
          </Trackpoint>
          <Trackpoint>
            <Time>2022-07-10T14:46:52.000Z</Time>
            <Position>
              <LatitudeDegrees>43.27626035548746585845947265625</LatitudeDegrees>
              <LongitudeDegrees>-2.2724444232881069183349609375</LongitudeDegrees>
            </Position>
            <AltitudeMeters>70.8000030517578125</AltitudeMeters>
            <DistanceMeters>NAN</DistanceMeters>
          </Trackpoint>
          <Trackpoint>
            <Time>2022-07-10T14:46:58.000Z</Time>
            <Position>
              <LatitudeDegrees>43.27610277570784091949462890625</LatitudeDegrees>
              <LongitudeDegrees>-2.27273385040462017059326171875</LongitudeDegrees>
            </Position>
            <AltitudeMeters>70.8000030517578125</AltitudeMeters>
            <DistanceMeters>NAN</DistanceMeters>
          </Trackpoint>
          <Trackpoint>
            <Time>2022-07-10T14:47:02.000Z</Time>
            <Position>
              <LatitudeDegrees>43.27600135467946529388427734375</LatitudeDegrees>
              <LongitudeDegrees>-2.27288405410945415496826171875</LongitudeDegrees>
            </Position>
            <AltitudeMeters>71</AltitudeMeters>
            <DistanceMeters>NAN</DistanceMeters>
          </Trackpoint>
          <Trackpoint>
            <Time>2022-07-10T14:47:07.000Z</Time>
            <Position>
              <LatitudeDegrees>43.27589557506144046783447265625</LatitudeDegrees>
              <LongitudeDegrees>-2.27305990643799304962158203125</LongitudeDegrees>
            </Position>
            <AltitudeMeters>71.1999969482421875</AltitudeMeters>
            <DistanceMeters>NAN</DistanceMeters>
          </Trackpoint>
          <Trackpoint>
            <Time>2022-07-10T14:47:14.000Z</Time>
            <Position>
              <LatitudeDegrees>43.27573933638632297515869140625</LatitudeDegrees>
              <LongitudeDegrees>-2.2733104415237903594970703125</LongitudeDegrees>
            </Position>
            <AltitudeMeters>71.59999847412109375</AltitudeMeters>
            <DistanceMeters>NAN</DistanceMeters>
          </Trackpoint>
          <Trackpoint>
            <Time>2022-07-10T14:47:22.000Z</Time>
            <Position>
              <LatitudeDegrees>43.27559902332723140716552734375</LatitudeDegrees>
              <LongitudeDegrees>-2.27364093996584415435791015625</LongitudeDegrees>
            </Position>
            <AltitudeMeters>71.8000030517578125</AltitudeMeters>
            <DistanceMeters>NAN</DistanceMeters>
          </Trackpoint>
          <Trackpoint>
            <Time>2022-07-10T14:47:23.000Z</Time>
            <Position>
              <LatitudeDegrees>43.27557706274092197418212890625</LatitudeDegrees>
              <LongitudeDegrees>-2.27368653751909732818603515625</LongitudeDegrees>
            </Position>
            <AltitudeMeters>71.8000030517578125</AltitudeMeters>
            <DistanceMeters>NAN</DistanceMeters>
          </Trackpoint>
          <Trackpoint>
            <Time>2022-07-10T14:47:31.000Z</Time>
            <Position>
              <LatitudeDegrees>43.275433816015720367431640625</LatitudeDegrees>
              <LongitudeDegrees>-2.27409792132675647735595703125</LongitudeDegrees>
            </Position>
            <AltitudeMeters>71.8000030517578125</AltitudeMeters>
            <DistanceMeters>NAN</DistanceMeters>
          </Trackpoint>
          <Trackpoint>
            <Time>2022-07-10T14:47:34.000Z</Time>
            <Position>
              <LatitudeDegrees>43.27540062367916107177734375</LatitudeDegrees>
              <LongitudeDegrees>-2.27426874451339244842529296875</LongitudeDegrees>
            </Position>
            <AltitudeMeters>72</AltitudeMeters>
            <DistanceMeters>NAN</DistanceMeters>
          </Trackpoint>
          <Trackpoint>
            <Time>2022-07-10T14:47:37.000Z</Time>
            <Position>
              <LatitudeDegrees>43.275428116321563720703125</LatitudeDegrees>
              <LongitudeDegrees>-2.2744440101087093353271484375</LongitudeDegrees>
            </Position>
            <AltitudeMeters>72</AltitudeMeters>
            <DistanceMeters>NAN</DistanceMeters>
          </Trackpoint>
          <Trackpoint>
            <Time>2022-07-10T14:47:38.000Z</Time>
            <Position>
              <LatitudeDegrees>43.2754396833479404449462890625</LatitudeDegrees>
              <LongitudeDegrees>-2.27450050413608551025390625</LongitudeDegrees>
            </Position>
            <AltitudeMeters>72</AltitudeMeters>
            <DistanceMeters>NAN</DistanceMeters>
          </Trackpoint>
          <Trackpoint>
            <Time>2022-07-10T14:47:43.000Z</Time>
            <Position>
              <LatitudeDegrees>43.27550078742206096649169921875</LatitudeDegrees>
              <LongitudeDegrees>-2.27478079497814178466796875</LongitudeDegrees>
            </Position>
            <AltitudeMeters>72.40000152587890625</AltitudeMeters>
            <DistanceMeters>NAN</DistanceMeters>
          </Trackpoint>
          <Trackpoint>
            <Time>2022-07-10T14:47:53.000Z</Time>
            <Position>
              <LatitudeDegrees>43.2756706885993480682373046875</LatitudeDegrees>
              <LongitudeDegrees>-2.27532385848462581634521484375</LongitudeDegrees>
            </Position>
            <AltitudeMeters>72.8000030517578125</AltitudeMeters>
            <DistanceMeters>NAN</DistanceMeters>
          </Trackpoint>
          <Trackpoint>
            <Time>2022-07-10T14:47:54.000Z</Time>
            <Position>
              <LatitudeDegrees>43.2756874524056911468505859375</LatitudeDegrees>
              <LongitudeDegrees>-2.27537699975073337554931640625</LongitudeDegrees>
            </Position>
            <AltitudeMeters>73</AltitudeMeters>
            <DistanceMeters>NAN</DistanceMeters>
          </Trackpoint>
          <Trackpoint>
            <Time>2022-07-10T14:47:55.000Z</Time>
            <Position>
              <LatitudeDegrees>43.27570262365043163299560546875</LatitudeDegrees>
              <LongitudeDegrees>-2.27543114684522151947021484375</LongitudeDegrees>
            </Position>
            <AltitudeMeters>73</AltitudeMeters>
            <DistanceMeters>NAN</DistanceMeters>
          </Trackpoint>
          <Trackpoint>
            <Time>2022-07-10T14:47:59.000Z</Time>
            <Position>
              <LatitudeDegrees>43.275769092142581939697265625</LatitudeDegrees>
              <LongitudeDegrees>-2.275655530393123626708984375</LongitudeDegrees>
            </Position>
            <AltitudeMeters>73.1999969482421875</AltitudeMeters>
            <DistanceMeters>NAN</DistanceMeters>
          </Trackpoint>
          <Trackpoint>
            <Time>2022-07-10T14:48:02.000Z</Time>
            <Position>
              <LatitudeDegrees>43.27582575380802154541015625</LatitudeDegrees>
              <LongitudeDegrees>-2.27581269107758998870849609375</LongitudeDegrees>
            </Position>
            <AltitudeMeters>73.1999969482421875</AltitudeMeters>
            <DistanceMeters>NAN</DistanceMeters>
          </Trackpoint>
          <Trackpoint>
            <Time>2022-07-10T14:48:09.000Z</Time>
            <Position>
              <LatitudeDegrees>43.2759295217692852020263671875</LatitudeDegrees>
              <LongitudeDegrees>-2.27614260278642177581787109375</LongitudeDegrees>
            </Position>
            <AltitudeMeters>73.1999969482421875</AltitudeMeters>
            <DistanceMeters>NAN</DistanceMeters>
          </Trackpoint>
          <Trackpoint>
            <Time>2022-07-10T14:48:16.000Z</Time>
            <Position>
              <LatitudeDegrees>43.276003114879131317138671875</LatitudeDegrees>
              <LongitudeDegrees>-2.27639338932931423187255859375</LongitudeDegrees>
            </Position>
            <AltitudeMeters>73.59999847412109375</AltitudeMeters>
            <DistanceMeters>NAN</DistanceMeters>
          </Trackpoint>
          <Trackpoint>
            <Time>2022-07-10T14:48:21.000Z</Time>
            <Position>
              <LatitudeDegrees>43.27602381817996501922607421875</LatitudeDegrees>
              <LongitudeDegrees>-2.2765619494020938873291015625</LongitudeDegrees>
            </Position>
            <AltitudeMeters>73.59999847412109375</AltitudeMeters>
            <DistanceMeters>NAN</DistanceMeters>
          </Trackpoint>
          <Trackpoint>
            <Time>2022-07-10T14:48:28.000Z</Time>
            <Position>
              <LatitudeDegrees>43.2760914601385593414306640625</LatitudeDegrees>
              <LongitudeDegrees>-2.2768159210681915283203125</LongitudeDegrees>
            </Position>
            <AltitudeMeters>74.1999969482421875</AltitudeMeters>
            <DistanceMeters>NAN</DistanceMeters>
          </Trackpoint>
          <Trackpoint>
            <Time>2022-07-10T14:48:29.000Z</Time>
            <Position>
              <LatitudeDegrees>43.27610202133655548095703125</LatitudeDegrees>
              <LongitudeDegrees>-2.27684802375733852386474609375</LongitudeDegrees>
            </Position>
            <AltitudeMeters>74.40000152587890625</AltitudeMeters>
            <DistanceMeters>NAN</DistanceMeters>
          </Trackpoint>
          <Trackpoint>
            <Time>2022-07-10T14:48:33.000Z</Time>
            <Position>
              <LatitudeDegrees>43.27613580040633678436279296875</LatitudeDegrees>
              <LongitudeDegrees>-2.2769646160304546356201171875</LongitudeDegrees>
            </Position>
            <AltitudeMeters>74.59999847412109375</AltitudeMeters>
            <DistanceMeters>NAN</DistanceMeters>
          </Trackpoint>
          <Trackpoint>
            <Time>2022-07-10T14:48:34.000Z</Time>
            <Position>
              <LatitudeDegrees>43.276144601404666900634765625</LatitudeDegrees>
              <LongitudeDegrees>-2.276996634900569915771484375</LongitudeDegrees>
            </Position>
            <AltitudeMeters>74.59999847412109375</AltitudeMeters>
            <DistanceMeters>NAN</DistanceMeters>
          </Trackpoint>
          <Trackpoint>
            <Time>2022-07-10T14:48:36.000Z</Time>
            <Position>
              <LatitudeDegrees>43.276164047420024871826171875</LatitudeDegrees>
              <LongitudeDegrees>-2.27706067264080047607421875</LongitudeDegrees>
            </Position>
            <AltitudeMeters>74.59999847412109375</AltitudeMeters>
            <DistanceMeters>NAN</DistanceMeters>
          </Trackpoint>
          <Trackpoint>
            <Time>2022-07-10T14:48:38.000Z</Time>
            <Position>
              <LatitudeDegrees>43.27618810348212718963623046875</LatitudeDegrees>
              <LongitudeDegrees>-2.27710895240306854248046875</LongitudeDegrees>
            </Position>
            <AltitudeMeters>74.8000030517578125</AltitudeMeters>
            <DistanceMeters>NAN</DistanceMeters>
          </Trackpoint>
          <Trackpoint>
            <Time>2022-07-10T14:48:39.000Z</Time>
            <Position>
              <LatitudeDegrees>43.27619866468012332916259765625</LatitudeDegrees>
              <LongitudeDegrees>-2.2771379537880420684814453125</LongitudeDegrees>
            </Position>
            <AltitudeMeters>74.8000030517578125</AltitudeMeters>
            <DistanceMeters>NAN</DistanceMeters>
          </Trackpoint>
          <Trackpoint>
            <Time>2022-07-10T14:48:45.000Z</Time>
            <Position>
              <LatitudeDegrees>43.2762758620083332061767578125</LatitudeDegrees>
              <LongitudeDegrees>-2.27741899900138378143310546875</LongitudeDegrees>
            </Position>
            <AltitudeMeters>75.1999969482421875</AltitudeMeters>
            <DistanceMeters>NAN</DistanceMeters>
          </Trackpoint>
          <Trackpoint>
            <Time>2022-07-10T14:48:46.000Z</Time>
            <Position>
              <LatitudeDegrees>43.2762758620083332061767578125</LatitudeDegrees>
              <LongitudeDegrees>-2.27741899900138378143310546875</LongitudeDegrees>
            </Position>
            <AltitudeMeters>75.1999969482421875</AltitudeMeters>
            <DistanceMeters>NAN</DistanceMeters>
          </Trackpoint>
          <Trackpoint>
            <Time>2022-07-10T14:48:50.000Z</Time>
            <Position>
              <LatitudeDegrees>43.2763482816517353057861328125</LatitudeDegrees>
              <LongitudeDegrees>-2.27771219797432422637939453125</LongitudeDegrees>
            </Position>
            <AltitudeMeters>75.59999847412109375</AltitudeMeters>
            <DistanceMeters>NAN</DistanceMeters>
          </Trackpoint>
          <Trackpoint>
            <Time>2022-07-10T14:48:54.000Z</Time>
            <Position>
              <LatitudeDegrees>43.2764139957726001739501953125</LatitudeDegrees>
              <LongitudeDegrees>-2.27790665812790393829345703125</LongitudeDegrees>
            </Position>
            <AltitudeMeters>76.1999969482421875</AltitudeMeters>
            <DistanceMeters>NAN</DistanceMeters>
          </Trackpoint>
          <Trackpoint>
            <Time>2022-07-10T14:48:58.000Z</Time>
            <Position>
              <LatitudeDegrees>43.27648398466408252716064453125</LatitudeDegrees>
              <LongitudeDegrees>-2.278094328939914703369140625</LongitudeDegrees>
            </Position>
            <AltitudeMeters>76.40000152587890625</AltitudeMeters>
            <DistanceMeters>NAN</DistanceMeters>
          </Trackpoint>
          <Trackpoint>
            <Time>2022-07-10T14:49:04.000Z</Time>
            <Position>
              <LatitudeDegrees>43.27653729356825351715087890625</LatitudeDegrees>
              <LongitudeDegrees>-2.27835081517696380615234375</LongitudeDegrees>
            </Position>
            <AltitudeMeters>76.8000030517578125</AltitudeMeters>
            <DistanceMeters>NAN</DistanceMeters>
          </Trackpoint>
          <Trackpoint>
            <Time>2022-07-10T14:49:11.000Z</Time>
            <Position>
              <LatitudeDegrees>43.2766051031649112701416015625</LatitudeDegrees>
              <LongitudeDegrees>-2.27863353677093982696533203125</LongitudeDegrees>
            </Position>
            <AltitudeMeters>77</AltitudeMeters>
            <DistanceMeters>NAN</DistanceMeters>
          </Trackpoint>
          <Trackpoint>
            <Time>2022-07-10T14:49:17.000Z</Time>
            <Position>
              <LatitudeDegrees>43.27665388584136962890625</LatitudeDegrees>
              <LongitudeDegrees>-2.27889153175055980682373046875</LongitudeDegrees>
            </Position>
            <AltitudeMeters>77.1999969482421875</AltitudeMeters>
            <DistanceMeters>NAN</DistanceMeters>
          </Trackpoint>
          <Trackpoint>
            <Time>2022-07-10T14:49:19.000Z</Time>
            <Position>
              <LatitudeDegrees>43.2766755111515522003173828125</LatitudeDegrees>
              <LongitudeDegrees>-2.27897987700998783111572265625</LongitudeDegrees>
            </Position>
            <AltitudeMeters>77.40000152587890625</AltitudeMeters>
            <DistanceMeters>NAN</DistanceMeters>
          </Trackpoint>
          <Trackpoint>
            <Time>2022-07-10T14:49:26.000Z</Time>
            <Position>
              <LatitudeDegrees>43.27674482949078083038330078125</LatitudeDegrees>
              <LongitudeDegrees>-2.27929235436022281646728515625</LongitudeDegrees>
            </Position>
            <AltitudeMeters>77.8000030517578125</AltitudeMeters>
            <DistanceMeters>NAN</DistanceMeters>
          </Trackpoint>
          <Trackpoint>
            <Time>2022-07-10T14:49:33.000Z</Time>
            <Position>
              <LatitudeDegrees>43.27679880894720554351806640625</LatitudeDegrees>
              <LongitudeDegrees>-2.27958069182932376861572265625</LongitudeDegrees>
            </Position>
            <AltitudeMeters>78</AltitudeMeters>
            <DistanceMeters>NAN</DistanceMeters>
          </Trackpoint>
          <Trackpoint>
            <Time>2022-07-10T14:49:37.000Z</Time>
            <Position>
              <LatitudeDegrees>43.27681506983935832977294921875</LatitudeDegrees>
              <LongitudeDegrees>-2.2797100245952606201171875</LongitudeDegrees>
            </Position>
            <AltitudeMeters>78.1999969482421875</AltitudeMeters>
            <DistanceMeters>NAN</DistanceMeters>
          </Trackpoint>
          <Trackpoint>
            <Time>2022-07-10T14:49:42.000Z</Time>
            <Position>
              <LatitudeDegrees>43.27684524469077587127685546875</LatitudeDegrees>
              <LongitudeDegrees>-2.27996475063264369964599609375</LongitudeDegrees>
            </Position>
            <AltitudeMeters>78.59999847412109375</AltitudeMeters>
            <DistanceMeters>NAN</DistanceMeters>
          </Trackpoint>
          <Trackpoint>
            <Time>2022-07-10T14:49:50.000Z</Time>
            <Position>
              <LatitudeDegrees>43.276904337108135223388671875</LatitudeDegrees>
              <LongitudeDegrees>-2.28032357990741729736328125</LongitudeDegrees>
            </Position>
            <AltitudeMeters>78.8000030517578125</AltitudeMeters>
            <DistanceMeters>NAN</DistanceMeters>
          </Trackpoint>
          <Trackpoint>
            <Time>2022-07-10T14:49:56.000Z</Time>
            <Position>
              <LatitudeDegrees>43.2769474200904369354248046875</LatitudeDegrees>
              <LongitudeDegrees>-2.2805845923721790313720703125</LongitudeDegrees>
            </Position>
            <AltitudeMeters>79.40000152587890625</AltitudeMeters>
            <DistanceMeters>NAN</DistanceMeters>
          </Trackpoint>
          <Trackpoint>
            <Time>2022-07-10T14:49:59.000Z</Time>
            <Position>
              <LatitudeDegrees>43.2769745774567127227783203125</LatitudeDegrees>
              <LongitudeDegrees>-2.28069104254245758056640625</LongitudeDegrees>
            </Position>
            <AltitudeMeters>79.59999847412109375</AltitudeMeters>
            <DistanceMeters>NAN</DistanceMeters>
          </Trackpoint>
          <Trackpoint>
            <Time>2022-07-10T14:50:04.000Z</Time>
            <Position>
              <LatitudeDegrees>43.27701288275420665740966796875</LatitudeDegrees>
              <LongitudeDegrees>-2.28088709525763988494873046875</LongitudeDegrees>
            </Position>
            <AltitudeMeters>80.1999969482421875</AltitudeMeters>
            <DistanceMeters>NAN</DistanceMeters>
          </Trackpoint>
          <Trackpoint>
            <Time>2022-07-10T14:50:07.000Z</Time>
            <Position>
              <LatitudeDegrees>43.27703249640762805938720703125</LatitudeDegrees>
              <LongitudeDegrees>-2.2810070402920246124267578125</LongitudeDegrees>
            </Position>
            <AltitudeMeters>80.40000152587890625</AltitudeMeters>
            <DistanceMeters>NAN</DistanceMeters>
          </Trackpoint>
          <Trackpoint>
            <Time>2022-07-10T14:50:10.000Z</Time>
            <Position>
              <LatitudeDegrees>43.27705697156488895416259765625</LatitudeDegrees>
              <LongitudeDegrees>-2.2811133228242397308349609375</LongitudeDegrees>
            </Position>
            <AltitudeMeters>80.59999847412109375</AltitudeMeters>
            <DistanceMeters>NAN</DistanceMeters>
          </Trackpoint>
          <Trackpoint>
            <Time>2022-07-10T14:50:13.000Z</Time>
            <Position>
              <LatitudeDegrees>43.27707055024802684783935546875</LatitudeDegrees>
              <LongitudeDegrees>-2.281223125755786895751953125</LongitudeDegrees>
            </Position>
            <AltitudeMeters>80.8000030517578125</AltitudeMeters>
            <DistanceMeters>NAN</DistanceMeters>
          </Trackpoint>
          <Trackpoint>
            <Time>2022-07-10T14:50:14.000Z</Time>
            <Position>
              <LatitudeDegrees>43.27707440592348575592041015625</LatitudeDegrees>
              <LongitudeDegrees>-2.2812709026038646697998046875</LongitudeDegrees>
            </Position>
            <AltitudeMeters>81</AltitudeMeters>
            <DistanceMeters>NAN</DistanceMeters>
          </Trackpoint>
          <Trackpoint>
            <Time>2022-07-10T14:50:19.000Z</Time>
            <Position>
              <LatitudeDegrees>43.2770972885191440582275390625</LatitudeDegrees>
              <LongitudeDegrees>-2.2814455814659595489501953125</LongitudeDegrees>
            </Position>
            <AltitudeMeters>81.40000152587890625</AltitudeMeters>
            <DistanceMeters>NAN</DistanceMeters>
          </Trackpoint>
          <Trackpoint>
            <Time>2022-07-10T14:50:20.000Z</Time>
            <Position>
              <LatitudeDegrees>43.27710893936455249786376953125</LatitudeDegrees>
              <LongitudeDegrees>-2.28152680210769176483154296875</LongitudeDegrees>
            </Position>
            <AltitudeMeters>81.40000152587890625</AltitudeMeters>
            <DistanceMeters>NAN</DistanceMeters>
          </Trackpoint>
          <Trackpoint>
            <Time>2022-07-10T14:50:27.000Z</Time>
            <Position>
              <LatitudeDegrees>43.27715621329843997955322265625</LatitudeDegrees>
              <LongitudeDegrees>-2.2818370163440704345703125</LongitudeDegrees>
            </Position>
            <AltitudeMeters>82.1999969482421875</AltitudeMeters>
            <DistanceMeters>NAN</DistanceMeters>
          </Trackpoint>
          <Trackpoint>
            <Time>2022-07-10T14:50:30.000Z</Time>
            <Position>
              <LatitudeDegrees>43.277177922427654266357421875</LatitudeDegrees>
              <LongitudeDegrees>-2.28197976015508174896240234375</LongitudeDegrees>
            </Position>
            <AltitudeMeters>82.40000152587890625</AltitudeMeters>
            <DistanceMeters>NAN</DistanceMeters>
          </Trackpoint>
          <Trackpoint>
            <Time>2022-07-10T14:50:36.000Z</Time>
            <Position>
              <LatitudeDegrees>43.27725260518491268157958984375</LatitudeDegrees>
              <LongitudeDegrees>-2.282186709344387054443359375</LongitudeDegrees>
            </Position>
            <AltitudeMeters>83</AltitudeMeters>
            <DistanceMeters>NAN</DistanceMeters>
          </Trackpoint>
          <Trackpoint>
            <Time>2022-07-10T14:50:41.000Z</Time>
            <Position>
              <LatitudeDegrees>43.27730507589876651763916015625</LatitudeDegrees>
              <LongitudeDegrees>-2.2824121825397014617919921875</LongitudeDegrees>
            </Position>
            <AltitudeMeters>83.59999847412109375</AltitudeMeters>
            <DistanceMeters>NAN</DistanceMeters>
          </Trackpoint>
          <Trackpoint>
            <Time>2022-07-10T14:50:44.000Z</Time>
            <Position>
              <LatitudeDegrees>43.277350924909114837646484375</LatitudeDegrees>
              <LongitudeDegrees>-2.2824886254966259002685546875</LongitudeDegrees>
            </Position>
            <AltitudeMeters>84</AltitudeMeters>
            <DistanceMeters>NAN</DistanceMeters>
          </Trackpoint>
          <Trackpoint>
            <Time>2022-07-10T14:50:49.000Z</Time>
            <Position>
              <LatitudeDegrees>43.277413286268711090087890625</LatitudeDegrees>
              <LongitudeDegrees>-2.28262893855571746826171875</LongitudeDegrees>
            </Position>
            <AltitudeMeters>84.59999847412109375</AltitudeMeters>
            <DistanceMeters>NAN</DistanceMeters>
          </Trackpoint>
          <Trackpoint>
            <Time>2022-07-10T14:50:55.000Z</Time>
            <Position>
              <LatitudeDegrees>43.27748897485435009002685546875</LatitudeDegrees>
              <LongitudeDegrees>-2.282794900238513946533203125</LongitudeDegrees>
            </Position>
            <AltitudeMeters>85.59999847412109375</AltitudeMeters>
            <DistanceMeters>NAN</DistanceMeters>
          </Trackpoint>
          <Trackpoint>
            <Time>2022-07-10T14:50:57.000Z</Time>
            <Position>
              <LatitudeDegrees>43.27751864679157733917236328125</LatitudeDegrees>
              <LongitudeDegrees>-2.28284527547657489776611328125</LongitudeDegrees>
            </Position>
            <AltitudeMeters>85.8000030517578125</AltitudeMeters>
            <DistanceMeters>NAN</DistanceMeters>
          </Trackpoint>
          <Trackpoint>
            <Time>2022-07-10T14:51:03.000Z</Time>
            <Position>
              <LatitudeDegrees>43.2775988616049289703369140625</LatitudeDegrees>
              <LongitudeDegrees>-2.2829992510378360748291015625</LongitudeDegrees>
            </Position>
            <AltitudeMeters>86.40000152587890625</AltitudeMeters>
            <DistanceMeters>NAN</DistanceMeters>
          </Trackpoint>
          <Trackpoint>
            <Time>2022-07-10T14:51:04.000Z</Time>
            <Position>
              <LatitudeDegrees>43.27761051245033740997314453125</LatitudeDegrees>
              <LongitudeDegrees>-2.28302515111863613128662109375</LongitudeDegrees>
            </Position>
            <AltitudeMeters>86.59999847412109375</AltitudeMeters>
            <DistanceMeters>NAN</DistanceMeters>
          </Trackpoint>
          <Trackpoint>
            <Time>2022-07-10T14:51:07.000Z</Time>
            <Position>
              <LatitudeDegrees>43.27764873392879962921142578125</LatitudeDegrees>
              <LongitudeDegrees>-2.2831018455326557159423828125</LongitudeDegrees>
            </Position>
            <AltitudeMeters>87</AltitudeMeters>
            <DistanceMeters>NAN</DistanceMeters>
          </Trackpoint>
          <Trackpoint>
            <Time>2022-07-10T14:51:12.000Z</Time>
            <Position>
              <LatitudeDegrees>43.27771537005901336669921875</LatitudeDegrees>
              <LongitudeDegrees>-2.28322849608957767486572265625</LongitudeDegrees>
            </Position>
            <AltitudeMeters>88</AltitudeMeters>
            <DistanceMeters>NAN</DistanceMeters>
          </Trackpoint>
          <Trackpoint>
            <Time>2022-07-10T14:51:13.000Z</Time>
            <Position>
              <LatitudeDegrees>43.277726434171199798583984375</LatitudeDegrees>
              <LongitudeDegrees>-2.28325414471328258514404296875</LongitudeDegrees>
            </Position>
            <AltitudeMeters>88</AltitudeMeters>
            <DistanceMeters>NAN</DistanceMeters>
          </Trackpoint>
          <Trackpoint>
            <Time>2022-07-10T14:51:21.000Z</Time>
            <Position>
              <LatitudeDegrees>43.27782575972378253936767578125</LatitudeDegrees>
              <LongitudeDegrees>-2.2834408096969127655029296875</LongitudeDegrees>
            </Position>
            <AltitudeMeters>88.8000030517578125</AltitudeMeters>
            <DistanceMeters>NAN</DistanceMeters>
          </Trackpoint>
          <Trackpoint>
            <Time>2022-07-10T14:51:25.000Z</Time>
            <Position>
              <LatitudeDegrees>43.2778791524469852447509765625</LatitudeDegrees>
              <LongitudeDegrees>-2.283532507717609405517578125</LongitudeDegrees>
            </Position>
            <AltitudeMeters>89.1999969482421875</AltitudeMeters>
            <DistanceMeters>NAN</DistanceMeters>
          </Trackpoint>
          <Trackpoint>
            <Time>2022-07-10T14:51:29.000Z</Time>
            <Position>
              <LatitudeDegrees>43.27793204225599765777587890625</LatitudeDegrees>
              <LongitudeDegrees>-2.2836205177009105682373046875</LongitudeDegrees>
            </Position>
            <AltitudeMeters>89.59999847412109375</AltitudeMeters>
            <DistanceMeters>NAN</DistanceMeters>
          </Trackpoint>
          <Trackpoint>
            <Time>2022-07-10T14:51:36.000Z</Time>
            <Position>
              <LatitudeDegrees>43.27802223153412342071533203125</LatitudeDegrees>
              <LongitudeDegrees>-2.2837764210999011993408203125</LongitudeDegrees>
            </Position>
            <AltitudeMeters>90.1999969482421875</AltitudeMeters>
            <DistanceMeters>NAN</DistanceMeters>
          </Trackpoint>
          <Trackpoint>
            <Time>2022-07-10T14:51:41.000Z</Time>
            <Position>
              <LatitudeDegrees>43.278095237910747528076171875</LatitudeDegrees>
              <LongitudeDegrees>-2.2838800214231014251708984375</LongitudeDegrees>
            </Position>
            <AltitudeMeters>90.40000152587890625</AltitudeMeters>
            <DistanceMeters>NAN</DistanceMeters>
          </Trackpoint>
          <Trackpoint>
            <Time>2022-07-10T14:51:49.000Z</Time>
            <Position>
              <LatitudeDegrees>43.278190791606903076171875</LatitudeDegrees>
              <LongitudeDegrees>-2.2840272076427936553955078125</LongitudeDegrees>
            </Position>
            <AltitudeMeters>91.1999969482421875</AltitudeMeters>
            <DistanceMeters>NAN</DistanceMeters>
          </Trackpoint>
          <Trackpoint>
            <Time>2022-07-10T14:51:52.000Z</Time>
            <Position>
              <LatitudeDegrees>43.2782452739775180816650390625</LatitudeDegrees>
              <LongitudeDegrees>-2.28411362506449222564697265625</LongitudeDegrees>
            </Position>
            <AltitudeMeters>91.40000152587890625</AltitudeMeters>
            <DistanceMeters>NAN</DistanceMeters>
          </Trackpoint>
          <Trackpoint>
            <Time>2022-07-10T14:52:00.000Z</Time>
            <Position>
              <LatitudeDegrees>43.2783451862633228302001953125</LatitudeDegrees>
              <LongitudeDegrees>-2.28429727256298065185546875</LongitudeDegrees>
            </Position>
            <AltitudeMeters>92.1999969482421875</AltitudeMeters>
            <DistanceMeters>NAN</DistanceMeters>
          </Trackpoint>
          <Trackpoint>
            <Time>2022-07-10T14:52:01.000Z</Time>
            <Position>
              <LatitudeDegrees>43.2783562503755092620849609375</LatitudeDegrees>
              <LongitudeDegrees>-2.28432753123342990875244140625</LongitudeDegrees>
            </Position>
            <AltitudeMeters>92.40000152587890625</AltitudeMeters>
            <DistanceMeters>NAN</DistanceMeters>
          </Trackpoint>
          <Trackpoint>
            <Time>2022-07-10T14:52:09.000Z</Time>
            <Position>
              <LatitudeDegrees>43.278467394411563873291015625</LatitudeDegrees>
              <LongitudeDegrees>-2.28451126255095005035400390625</LongitudeDegrees>
            </Position>
            <AltitudeMeters>93</AltitudeMeters>
            <DistanceMeters>NAN</DistanceMeters>
          </Trackpoint>
          <Trackpoint>
            <Time>2022-07-10T14:52:12.000Z</Time>
            <Position>
              <LatitudeDegrees>43.27850854955613613128662109375</LatitudeDegrees>
              <LongitudeDegrees>-2.28457345627248287200927734375</LongitudeDegrees>
            </Position>
            <AltitudeMeters>93.40000152587890625</AltitudeMeters>
            <DistanceMeters>NAN</DistanceMeters>
          </Trackpoint>
          <Trackpoint>
            <Time>2022-07-10T14:52:18.000Z</Time>
            <Position>
              <LatitudeDegrees>43.278581388294696807861328125</LatitudeDegrees>
              <LongitudeDegrees>-2.284687869250774383544921875</LongitudeDegrees>
            </Position>
            <AltitudeMeters>94</AltitudeMeters>
            <DistanceMeters>NAN</DistanceMeters>
          </Trackpoint>
          <Trackpoint>
            <Time>2022-07-10T14:52:23.000Z</Time>
            <Position>
              <LatitudeDegrees>43.278644084930419921875</LatitudeDegrees>
              <LongitudeDegrees>-2.284794487059116363525390625</LongitudeDegrees>
            </Position>
            <AltitudeMeters>94.40000152587890625</AltitudeMeters>
            <DistanceMeters>NAN</DistanceMeters>
          </Trackpoint>
          <Trackpoint>
            <Time>2022-07-10T14:52:27.000Z</Time>
            <Position>
              <LatitudeDegrees>43.27869228087365627288818359375</LatitudeDegrees>
              <LongitudeDegrees>-2.28488526307046413421630859375</LongitudeDegrees>
            </Position>
            <AltitudeMeters>95</AltitudeMeters>
            <DistanceMeters>NAN</DistanceMeters>
          </Trackpoint>
          <Trackpoint>
            <Time>2022-07-10T14:52:32.000Z</Time>
            <Position>
              <LatitudeDegrees>43.27875531278550624847412109375</LatitudeDegrees>
              <LongitudeDegrees>-2.2849912941455841064453125</LongitudeDegrees>
            </Position>
            <AltitudeMeters>95.40000152587890625</AltitudeMeters>
            <DistanceMeters>NAN</DistanceMeters>
          </Trackpoint>
          <Trackpoint>
            <Time>2022-07-10T14:52:35.000Z</Time>
            <Position>
              <LatitudeDegrees>43.27879470773041248321533203125</LatitudeDegrees>
              <LongitudeDegrees>-2.28505767881870269775390625</LongitudeDegrees>
            </Position>
            <AltitudeMeters>95.8000030517578125</AltitudeMeters>
            <DistanceMeters>NAN</DistanceMeters>
          </Trackpoint>
          <Trackpoint>
            <Time>2022-07-10T14:52:41.000Z</Time>
            <Position>
              <LatitudeDegrees>43.2788742519915103912353515625</LatitudeDegrees>
              <LongitudeDegrees>-2.2851882688701152801513671875</LongitudeDegrees>
            </Position>
            <AltitudeMeters>96.59999847412109375</AltitudeMeters>
            <DistanceMeters>NAN</DistanceMeters>
          </Trackpoint>
          <Trackpoint>
            <Time>2022-07-10T14:52:44.000Z</Time>
            <Position>
              <LatitudeDegrees>43.27891071327030658721923828125</LatitudeDegrees>
              <LongitudeDegrees>-2.28526018559932708740234375</LongitudeDegrees>
            </Position>
            <AltitudeMeters>96.8000030517578125</AltitudeMeters>
            <DistanceMeters>NAN</DistanceMeters>
          </Trackpoint>
          <Trackpoint>
            <Time>2022-07-10T14:52:50.000Z</Time>
            <Position>
              <LatitudeDegrees>43.278964273631572723388671875</LatitudeDegrees>
              <LongitudeDegrees>-2.285395972430706024169921875</LongitudeDegrees>
            </Position>
            <AltitudeMeters>97.59999847412109375</AltitudeMeters>
            <DistanceMeters>NAN</DistanceMeters>
          </Trackpoint>
          <Trackpoint>
            <Time>2022-07-10T14:52:53.000Z</Time>
            <Position>
              <LatitudeDegrees>43.278995119035243988037109375</LatitudeDegrees>
              <LongitudeDegrees>-2.28546562604606151580810546875</LongitudeDegrees>
            </Position>
            <AltitudeMeters>98</AltitudeMeters>
            <DistanceMeters>NAN</DistanceMeters>
          </Trackpoint>
          <Trackpoint>
            <Time>2022-07-10T14:52:59.000Z</Time>
            <Position>
              <LatitudeDegrees>43.2790663652122020721435546875</LatitudeDegrees>
              <LongitudeDegrees>-2.2856224514544010162353515625</LongitudeDegrees>
            </Position>
            <AltitudeMeters>98.8000030517578125</AltitudeMeters>
            <DistanceMeters>NAN</DistanceMeters>
          </Trackpoint>
          <Trackpoint>
            <Time>2022-07-10T14:53:03.000Z</Time>
            <Position>
              <LatitudeDegrees>43.2791116274893283843994140625</LatitudeDegrees>
              <LongitudeDegrees>-2.2857257165014743804931640625</LongitudeDegrees>
            </Position>
            <AltitudeMeters>99</AltitudeMeters>
            <DistanceMeters>NAN</DistanceMeters>
          </Trackpoint>
          <Trackpoint>
            <Time>2022-07-10T14:53:13.000Z</Time>
            <Position>
              <LatitudeDegrees>43.279178850352764129638671875</LatitudeDegrees>
              <LongitudeDegrees>-2.2859838791191577911376953125</LongitudeDegrees>
            </Position>
            <AltitudeMeters>99.59999847412109375</AltitudeMeters>
            <DistanceMeters>NAN</DistanceMeters>
          </Trackpoint>
          <Trackpoint>
            <Time>2022-07-10T14:53:16.000Z</Time>
            <Position>
              <LatitudeDegrees>43.27918748371303081512451171875</LatitudeDegrees>
              <LongitudeDegrees>-2.28607012890279293060302734375</LongitudeDegrees>
            </Position>
            <AltitudeMeters>99.8000030517578125</AltitudeMeters>
            <DistanceMeters>NAN</DistanceMeters>
          </Trackpoint>
          <Trackpoint>
            <Time>2022-07-10T14:53:21.000Z</Time>
            <Position>
              <LatitudeDegrees>43.27919955365359783172607421875</LatitudeDegrees>
              <LongitudeDegrees>-2.28621647693216800689697265625</LongitudeDegrees>
            </Position>
            <AltitudeMeters>100.1999969482421875</AltitudeMeters>
            <DistanceMeters>NAN</DistanceMeters>
          </Trackpoint>
          <Trackpoint>
            <Time>2022-07-10T14:53:26.000Z</Time>
            <Position>
              <LatitudeDegrees>43.2791924290359020233154296875</LatitudeDegrees>
              <LongitudeDegrees>-2.2863681055605411529541015625</LongitudeDegrees>
            </Position>
            <AltitudeMeters>100.40000152587890625</AltitudeMeters>
            <DistanceMeters>NAN</DistanceMeters>
          </Trackpoint>
          <Trackpoint>
            <Time>2022-07-10T14:53:29.000Z</Time>
            <Position>
              <LatitudeDegrees>43.2791952788829803466796875</LatitudeDegrees>
              <LongitudeDegrees>-2.2864482365548610687255859375</LongitudeDegrees>
            </Position>
            <AltitudeMeters>100.59999847412109375</AltitudeMeters>
            <DistanceMeters>NAN</DistanceMeters>
          </Trackpoint>
          <Trackpoint>
            <Time>2022-07-10T14:53:34.000Z</Time>
            <Position>
              <LatitudeDegrees>43.27919787727296352386474609375</LatitudeDegrees>
              <LongitudeDegrees>-2.28658653795719146728515625</LongitudeDegrees>
            </Position>
            <AltitudeMeters>100.8000030517578125</AltitudeMeters>
            <DistanceMeters>NAN</DistanceMeters>
          </Trackpoint>
          <Trackpoint>
            <Time>2022-07-10T14:53:36.000Z</Time>
            <Position>
              <LatitudeDegrees>43.2792034931480884552001953125</LatitudeDegrees>
              <LongitudeDegrees>-2.286639511585235595703125</LongitudeDegrees>
            </Position>
            <AltitudeMeters>101</AltitudeMeters>
            <DistanceMeters>NAN</DistanceMeters>
          </Trackpoint>
          <Trackpoint>
            <Time>2022-07-10T14:53:44.000Z</Time>
            <Position>
              <LatitudeDegrees>43.27918044291436672210693359375</LatitudeDegrees>
              <LongitudeDegrees>-2.28684277273714542388916015625</LongitudeDegrees>
            </Position>
            <AltitudeMeters>101.8000030517578125</AltitudeMeters>
            <DistanceMeters>NAN</DistanceMeters>
          </Trackpoint>
          <Trackpoint>
            <Time>2022-07-10T14:53:45.000Z</Time>
            <Position>
              <LatitudeDegrees>43.27917876653373241424560546875</LatitudeDegrees>
              <LongitudeDegrees>-2.28686892427504062652587890625</LongitudeDegrees>
            </Position>
            <AltitudeMeters>101.8000030517578125</AltitudeMeters>
            <DistanceMeters>NAN</DistanceMeters>
          </Trackpoint>
          <Trackpoint>
            <Time>2022-07-10T14:53:54.000Z</Time>
            <Position>
              <LatitudeDegrees>43.279168792068958282470703125</LatitudeDegrees>
              <LongitudeDegrees>-2.287057936191558837890625</LongitudeDegrees>
            </Position>
            <AltitudeMeters>102.59999847412109375</AltitudeMeters>
            <DistanceMeters>NAN</DistanceMeters>
          </Trackpoint>
          <Trackpoint>
            <Time>2022-07-10T14:53:56.000Z</Time>
            <Position>
              <LatitudeDegrees>43.27917122282087802886962890625</LatitudeDegrees>
              <LongitudeDegrees>-2.2870995104312896728515625</LongitudeDegrees>
            </Position>
            <AltitudeMeters>102.8000030517578125</AltitudeMeters>
            <DistanceMeters>NAN</DistanceMeters>
          </Trackpoint>
          <Trackpoint>
            <Time>2022-07-10T14:54:01.000Z</Time>
            <Position>
              <LatitudeDegrees>43.27917717397212982177734375</LatitudeDegrees>
              <LongitudeDegrees>-2.287207804620265960693359375</LongitudeDegrees>
            </Position>
            <AltitudeMeters>103.1999969482421875</AltitudeMeters>
            <DistanceMeters>NAN</DistanceMeters>
          </Trackpoint>
          <Trackpoint>
            <Time>2022-07-10T14:54:10.000Z</Time>
            <Position>
              <LatitudeDegrees>43.279176838696002960205078125</LatitudeDegrees>
              <LongitudeDegrees>-2.287400923669338226318359375</LongitudeDegrees>
            </Position>
            <AltitudeMeters>103.8000030517578125</AltitudeMeters>
            <DistanceMeters>NAN</DistanceMeters>
          </Trackpoint>
          <Trackpoint>
            <Time>2022-07-10T14:54:11.000Z</Time>
            <Position>
              <LatitudeDegrees>43.27917926944792270660400390625</LatitudeDegrees>
              <LongitudeDegrees>-2.28741860948503017425537109375</LongitudeDegrees>
            </Position>
            <AltitudeMeters>104</AltitudeMeters>
            <DistanceMeters>NAN</DistanceMeters>
          </Trackpoint>
          <Trackpoint>
            <Time>2022-07-10T14:54:19.000Z</Time>
            <Position>
              <LatitudeDegrees>43.27918262220919132232666015625</LatitudeDegrees>
              <LongitudeDegrees>-2.2875848226249217987060546875</LongitudeDegrees>
            </Position>
            <AltitudeMeters>104.59999847412109375</AltitudeMeters>
            <DistanceMeters>NAN</DistanceMeters>
          </Trackpoint>
          <Trackpoint>
            <Time>2022-07-10T14:54:23.000Z</Time>
            <Position>
              <LatitudeDegrees>43.279190920293331146240234375</LatitudeDegrees>
              <LongitudeDegrees>-2.28766369633376598358154296875</LongitudeDegrees>
            </Position>
            <AltitudeMeters>105</AltitudeMeters>
            <DistanceMeters>NAN</DistanceMeters>
          </Trackpoint>
          <Trackpoint>
            <Time>2022-07-10T14:54:28.000Z</Time>
            <Position>
              <LatitudeDegrees>43.2791897468268871307373046875</LatitudeDegrees>
              <LongitudeDegrees>-2.287758998572826385498046875</LongitudeDegrees>
            </Position>
            <AltitudeMeters>105.59999847412109375</AltitudeMeters>
            <DistanceMeters>NAN</DistanceMeters>
          </Trackpoint>
          <Trackpoint>
            <Time>2022-07-10T14:54:34.000Z</Time>
            <Position>
              <LatitudeDegrees>43.2791925966739654541015625</LatitudeDegrees>
              <LongitudeDegrees>-2.28788045234978199005126953125</LongitudeDegrees>
            </Position>
            <AltitudeMeters>106</AltitudeMeters>
            <DistanceMeters>NAN</DistanceMeters>
          </Trackpoint>
          <Trackpoint>
            <Time>2022-07-10T14:54:37.000Z</Time>
            <Position>
              <LatitudeDegrees>43.27918698079884052276611328125</LatitudeDegrees>
              <LongitudeDegrees>-2.28794641792774200439453125</LongitudeDegrees>
            </Position>
            <AltitudeMeters>106.1999969482421875</AltitudeMeters>
            <DistanceMeters>NAN</DistanceMeters>
          </Trackpoint>
          <Trackpoint>
            <Time>2022-07-10T14:54:46.000Z</Time>
            <Position>
              <LatitudeDegrees>43.27918362803757190704345703125</LatitudeDegrees>
              <LongitudeDegrees>-2.28813685476779937744140625</LongitudeDegrees>
            </Position>
            <AltitudeMeters>107</AltitudeMeters>
            <DistanceMeters>NAN</DistanceMeters>
          </Trackpoint>
          <Trackpoint>
            <Time>2022-07-10T14:54:55.000Z</Time>
            <Position>
              <LatitudeDegrees>43.27922252006828784942626953125</LatitudeDegrees>
              <LongitudeDegrees>-2.2883190773427486419677734375</LongitudeDegrees>
            </Position>
            <AltitudeMeters>107.8000030517578125</AltitudeMeters>
            <DistanceMeters>NAN</DistanceMeters>
          </Trackpoint>
          <Trackpoint>
            <Time>2022-07-10T14:54:56.000Z</Time>
            <Position>
              <LatitudeDegrees>43.27922738157212734222412109375</LatitudeDegrees>
              <LongitudeDegrees>-2.2883408702909946441650390625</LongitudeDegrees>
            </Position>
            <AltitudeMeters>108</AltitudeMeters>
            <DistanceMeters>NAN</DistanceMeters>
          </Trackpoint>
          <Trackpoint>
            <Time>2022-07-10T14:54:59.000Z</Time>
            <Position>
              <LatitudeDegrees>43.27925755642354488372802734375</LatitudeDegrees>
              <LongitudeDegrees>-2.28840314783155918121337890625</LongitudeDegrees>
            </Position>
            <AltitudeMeters>108</AltitudeMeters>
            <DistanceMeters>NAN</DistanceMeters>
          </Trackpoint>
          <Trackpoint>
            <Time>2022-07-10T14:55:01.000Z</Time>
            <Position>
              <LatitudeDegrees>43.27927649952471256256103515625</LatitudeDegrees>
              <LongitudeDegrees>-2.2884484939277172088623046875</LongitudeDegrees>
            </Position>
            <AltitudeMeters>108</AltitudeMeters>
            <DistanceMeters>NAN</DistanceMeters>
          </Trackpoint>
          <Trackpoint>
            <Time>2022-07-10T14:55:12.000Z</Time>
            <Position>
              <LatitudeDegrees>43.27938864938914775848388671875</LatitudeDegrees>
              <LongitudeDegrees>-2.288725934922695159912109375</LongitudeDegrees>
            </Position>
            <AltitudeMeters>108.40000152587890625</AltitudeMeters>
            <DistanceMeters>NAN</DistanceMeters>
          </Trackpoint>
          <Trackpoint>
            <Time>2022-07-10T14:55:22.000Z</Time>
            <Position>
              <LatitudeDegrees>43.2794948481023311614990234375</LatitudeDegrees>
              <LongitudeDegrees>-2.2889862768352031707763671875</LongitudeDegrees>
            </Position>
            <AltitudeMeters>108.59999847412109375</AltitudeMeters>
            <DistanceMeters>NAN</DistanceMeters>
          </Trackpoint>
          <Trackpoint>
            <Time>2022-07-10T14:55:24.000Z</Time>
            <Position>
              <LatitudeDegrees>43.2795139588415622711181640625</LatitudeDegrees>
              <LongitudeDegrees>-2.28903514333069324493408203125</LongitudeDegrees>
            </Position>
            <AltitudeMeters>108.8000030517578125</AltitudeMeters>
            <DistanceMeters>NAN</DistanceMeters>
          </Trackpoint>
          <Trackpoint>
            <Time>2022-07-10T14:55:28.000Z</Time>
            <Position>
              <LatitudeDegrees>43.27954924665391445159912109375</LatitudeDegrees>
              <LongitudeDegrees>-2.289139330387115478515625</LongitudeDegrees>
            </Position>
            <AltitudeMeters>109</AltitudeMeters>
            <DistanceMeters>NAN</DistanceMeters>
          </Trackpoint>
          <Trackpoint>
            <Time>2022-07-10T14:55:35.000Z</Time>
            <Position>
              <LatitudeDegrees>43.27961177565157413482666015625</LatitudeDegrees>
              <LongitudeDegrees>-2.28929079137742519378662109375</LongitudeDegrees>
            </Position>
            <AltitudeMeters>109.59999847412109375</AltitudeMeters>
            <DistanceMeters>NAN</DistanceMeters>
          </Trackpoint>
          <Trackpoint>
            <Time>2022-07-10T14:55:42.000Z</Time>
            <Position>
              <LatitudeDegrees>43.2796566188335418701171875</LatitudeDegrees>
              <LongitudeDegrees>-2.2894167713820934295654296875</LongitudeDegrees>
            </Position>
            <AltitudeMeters>110.1999969482421875</AltitudeMeters>
            <DistanceMeters>NAN</DistanceMeters>
          </Trackpoint>
          <Trackpoint>
            <Time>2022-07-10T14:55:48.000Z</Time>
            <Position>
              <LatitudeDegrees>43.27971286140382289886474609375</LatitudeDegrees>
              <LongitudeDegrees>-2.2895726747810840606689453125</LongitudeDegrees>
            </Position>
            <AltitudeMeters>110.8000030517578125</AltitudeMeters>
            <DistanceMeters>NAN</DistanceMeters>
          </Trackpoint>
          <Trackpoint>
            <Time>2022-07-10T14:55:50.000Z</Time>
            <Position>
              <LatitudeDegrees>43.2797295413911342620849609375</LatitudeDegrees>
              <LongitudeDegrees>-2.28961483575403690338134765625</LongitudeDegrees>
            </Position>
            <AltitudeMeters>111</AltitudeMeters>
            <DistanceMeters>NAN</DistanceMeters>
          </Trackpoint>
          <Trackpoint>
            <Time>2022-07-10T14:55:54.000Z</Time>
            <Position>
              <LatitudeDegrees>43.27976516447961330413818359375</LatitudeDegrees>
              <LongitudeDegrees>-2.289692200720310211181640625</LongitudeDegrees>
            </Position>
            <AltitudeMeters>111.1999969482421875</AltitudeMeters>
            <DistanceMeters>NAN</DistanceMeters>
          </Trackpoint>
          <Trackpoint>
            <Time>2022-07-10T14:55:59.000Z</Time>
            <Position>
              <LatitudeDegrees>43.27980992384254932403564453125</LatitudeDegrees>
              <LongitudeDegrees>-2.2897979803383350372314453125</LongitudeDegrees>
            </Position>
            <AltitudeMeters>111.8000030517578125</AltitudeMeters>
            <DistanceMeters>NAN</DistanceMeters>
          </Trackpoint>
          <Trackpoint>
            <Time>2022-07-10T14:56:04.000Z</Time>
            <Position>
              <LatitudeDegrees>43.27985099516808986663818359375</LatitudeDegrees>
              <LongitudeDegrees>-2.2899024188518524169921875</LongitudeDegrees>
            </Position>
            <AltitudeMeters>112.40000152587890625</AltitudeMeters>
            <DistanceMeters>NAN</DistanceMeters>
          </Trackpoint>
          <Trackpoint>
            <Time>2022-07-10T14:56:09.000Z</Time>
            <Position>
              <LatitudeDegrees>43.27989290468394756317138671875</LatitudeDegrees>
              <LongitudeDegrees>-2.29000367224216461181640625</LongitudeDegrees>
            </Position>
            <AltitudeMeters>113</AltitudeMeters>
            <DistanceMeters>NAN</DistanceMeters>
          </Trackpoint>
          <Trackpoint>
            <Time>2022-07-10T14:56:12.000Z</Time>
            <Position>
              <LatitudeDegrees>43.279909752309322357177734375</LatitudeDegrees>
              <LongitudeDegrees>-2.2900745831429958343505859375</LongitudeDegrees>
            </Position>
            <AltitudeMeters>113.40000152587890625</AltitudeMeters>
            <DistanceMeters>NAN</DistanceMeters>
          </Trackpoint>
          <Trackpoint>
            <Time>2022-07-10T14:56:17.000Z</Time>
            <Position>
              <LatitudeDegrees>43.27994068153202533721923828125</LatitudeDegrees>
              <LongitudeDegrees>-2.29017491452395915985107421875</LongitudeDegrees>
            </Position>
            <AltitudeMeters>113.8000030517578125</AltitudeMeters>
            <DistanceMeters>NAN</DistanceMeters>
          </Trackpoint>
          <Trackpoint>
            <Time>2022-07-10T14:56:23.000Z</Time>
            <Position>
              <LatitudeDegrees>43.2799632288515567779541015625</LatitudeDegrees>
              <LongitudeDegrees>-2.2903074324131011962890625</LongitudeDegrees>
            </Position>
            <AltitudeMeters>114.40000152587890625</AltitudeMeters>
            <DistanceMeters>NAN</DistanceMeters>
          </Trackpoint>
          <Trackpoint>
            <Time>2022-07-10T14:56:24.000Z</Time>
            <Position>
              <LatitudeDegrees>43.2799655757844448089599609375</LatitudeDegrees>
              <LongitudeDegrees>-2.29032679460942745208740234375</LongitudeDegrees>
            </Position>
            <AltitudeMeters>114.40000152587890625</AltitudeMeters>
            <DistanceMeters>NAN</DistanceMeters>
          </Trackpoint>
          <Trackpoint>
            <Time>2022-07-10T14:56:32.000Z</Time>
            <Position>
              <LatitudeDegrees>43.27998845838010311126708984375</LatitudeDegrees>
              <LongitudeDegrees>-2.290512286126613616943359375</LongitudeDegrees>
            </Position>
            <AltitudeMeters>115.1999969482421875</AltitudeMeters>
            <DistanceMeters>NAN</DistanceMeters>
          </Trackpoint>
          <Trackpoint>
            <Time>2022-07-10T14:56:36.000Z</Time>
            <Position>
              <LatitudeDegrees>43.27999181114137172698974609375</LatitudeDegrees>
              <LongitudeDegrees>-2.2905805148184299468994140625</LongitudeDegrees>
            </Position>
            <AltitudeMeters>115.40000152587890625</AltitudeMeters>
            <DistanceMeters>NAN</DistanceMeters>
          </Trackpoint>
          <Trackpoint>
            <Time>2022-07-10T14:56:43.000Z</Time>
            <Position>
              <LatitudeDegrees>43.27998208813369274139404296875</LatitudeDegrees>
              <LongitudeDegrees>-2.2907867096364498138427734375</LongitudeDegrees>
            </Position>
            <AltitudeMeters>116</AltitudeMeters>
            <DistanceMeters>NAN</DistanceMeters>
          </Trackpoint>
          <Trackpoint>
            <Time>2022-07-10T14:56:49.000Z</Time>
            <Position>
              <LatitudeDegrees>43.27996633015573024749755859375</LatitudeDegrees>
              <LongitudeDegrees>-2.29093498550355434417724609375</LongitudeDegrees>
            </Position>
            <AltitudeMeters>116.1999969482421875</AltitudeMeters>
            <DistanceMeters>NAN</DistanceMeters>
          </Trackpoint>
          <Trackpoint>
            <Time>2022-07-10T14:56:54.000Z</Time>
            <Position>
              <LatitudeDegrees>43.27994889579713344573974609375</LatitudeDegrees>
              <LongitudeDegrees>-2.2910301201045513153076171875</LongitudeDegrees>
            </Position>
            <AltitudeMeters>116.59999847412109375</AltitudeMeters>
            <DistanceMeters>NAN</DistanceMeters>
          </Trackpoint>
          <Trackpoint>
            <Time>2022-07-10T14:57:00.000Z</Time>
            <Position>
              <LatitudeDegrees>43.27992458827793598175048828125</LatitudeDegrees>
              <LongitudeDegrees>-2.29117454029619693756103515625</LongitudeDegrees>
            </Position>
            <AltitudeMeters>117.1999969482421875</AltitudeMeters>
            <DistanceMeters>NAN</DistanceMeters>
          </Trackpoint>
          <Trackpoint>
            <Time>2022-07-10T14:57:03.000Z</Time>
            <Position>
              <LatitudeDegrees>43.2799062319099903106689453125</LatitudeDegrees>
              <LongitudeDegrees>-2.29124746285378932952880859375</LongitudeDegrees>
            </Position>
            <AltitudeMeters>117.59999847412109375</AltitudeMeters>
            <DistanceMeters>NAN</DistanceMeters>
          </Trackpoint>
          <Trackpoint>
            <Time>2022-07-10T14:57:08.000Z</Time>
            <Position>
              <LatitudeDegrees>43.279870860278606414794921875</LatitudeDegrees>
              <LongitudeDegrees>-2.29137067683041095733642578125</LongitudeDegrees>
            </Position>
            <AltitudeMeters>117.59999847412109375</AltitudeMeters>
            <DistanceMeters>NAN</DistanceMeters>
          </Trackpoint>
          <Trackpoint>
            <Time>2022-07-10T14:57:17.000Z</Time>
            <Position>
              <LatitudeDegrees>43.2798604667186737060546875</LatitudeDegrees>
              <LongitudeDegrees>-2.2915836609899997711181640625</LongitudeDegrees>
            </Position>
            <AltitudeMeters>118.59999847412109375</AltitudeMeters>
            <DistanceMeters>NAN</DistanceMeters>
          </Trackpoint>
          <Trackpoint>
            <Time>2022-07-10T14:57:18.000Z</Time>
            <Position>
              <LatitudeDegrees>43.27986876480281352996826171875</LatitudeDegrees>
              <LongitudeDegrees>-2.2916339524090290069580078125</LongitudeDegrees>
            </Position>
            <AltitudeMeters>118.59999847412109375</AltitudeMeters>
            <DistanceMeters>NAN</DistanceMeters>
          </Trackpoint>
          <Trackpoint>
            <Time>2022-07-10T14:57:26.000Z</Time>
            <Position>
              <LatitudeDegrees>43.27994286082684993743896484375</LatitudeDegrees>
              <LongitudeDegrees>-2.2918233834207057952880859375</LongitudeDegrees>
            </Position>
            <AltitudeMeters>119.59999847412109375</AltitudeMeters>
            <DistanceMeters>NAN</DistanceMeters>
          </Trackpoint>
          <Trackpoint>
            <Time>2022-07-10T14:57:27.000Z</Time>
            <Position>
              <LatitudeDegrees>43.279956020414829254150390625</LatitudeDegrees>
              <LongitudeDegrees>-2.291846014559268951416015625</LongitudeDegrees>
            </Position>
            <AltitudeMeters>119.8000030517578125</AltitudeMeters>
            <DistanceMeters>NAN</DistanceMeters>
          </Trackpoint>
          <Trackpoint>
            <Time>2022-07-10T14:57:33.000Z</Time>
            <Position>
              <LatitudeDegrees>43.2800359837710857391357421875</LatitudeDegrees>
              <LongitudeDegrees>-2.29196897707879543304443359375</LongitudeDegrees>
            </Position>
            <AltitudeMeters>120.40000152587890625</AltitudeMeters>
            <DistanceMeters>NAN</DistanceMeters>
          </Trackpoint>
          <Trackpoint>
            <Time>2022-07-10T14:57:37.000Z</Time>
            <Position>
              <LatitudeDegrees>43.28010563738644123077392578125</LatitudeDegrees>
              <LongitudeDegrees>-2.29203821159899234771728515625</LongitudeDegrees>
            </Position>
            <AltitudeMeters>120.8000030517578125</AltitudeMeters>
            <DistanceMeters>NAN</DistanceMeters>
          </Trackpoint>
          <Trackpoint>
            <Time>2022-07-10T14:57:41.000Z</Time>
            <Position>
              <LatitudeDegrees>43.28017051331698894500732421875</LatitudeDegrees>
              <LongitudeDegrees>-2.292094118893146514892578125</LongitudeDegrees>
            </Position>
            <AltitudeMeters>121.1999969482421875</AltitudeMeters>
            <DistanceMeters>NAN</DistanceMeters>
          </Trackpoint>
          <Trackpoint>
            <Time>2022-07-10T14:57:47.000Z</Time>
            <Position>
              <LatitudeDegrees>43.28027696348726749420166015625</LatitudeDegrees>
              <LongitudeDegrees>-2.29214516468346118927001953125</LongitudeDegrees>
            </Position>
            <AltitudeMeters>121.8000030517578125</AltitudeMeters>
            <DistanceMeters>NAN</DistanceMeters>
          </Trackpoint>
          <Trackpoint>
            <Time>2022-07-10T14:57:50.000Z</Time>
            <Position>
              <LatitudeDegrees>43.2803218066692352294921875</LatitudeDegrees>
              <LongitudeDegrees>-2.29217466898262500762939453125</LongitudeDegrees>
            </Position>
            <AltitudeMeters>122</AltitudeMeters>
            <DistanceMeters>NAN</DistanceMeters>
          </Trackpoint>
          <Trackpoint>
            <Time>2022-07-10T14:57:58.000Z</Time>
            <Position>
              <LatitudeDegrees>43.2804523967206478118896484375</LatitudeDegrees>
              <LongitudeDegrees>-2.2922706417739391326904296875</LongitudeDegrees>
            </Position>
            <AltitudeMeters>122.40000152587890625</AltitudeMeters>
            <DistanceMeters>NAN</DistanceMeters>
          </Trackpoint>
          <Trackpoint>
            <Time>2022-07-10T14:58:00.000Z</Time>
            <Position>
              <LatitudeDegrees>43.28048952855169773101806640625</LatitudeDegrees>
              <LongitudeDegrees>-2.2922884114086627960205078125</LongitudeDegrees>
            </Position>
            <AltitudeMeters>122.59999847412109375</AltitudeMeters>
            <DistanceMeters>NAN</DistanceMeters>
          </Trackpoint>
          <Trackpoint>
            <Time>2022-07-10T14:58:02.000Z</Time>
            <Position>
              <LatitudeDegrees>43.2805177755653858184814453125</LatitudeDegrees>
              <LongitudeDegrees>-2.29229696094989776611328125</LongitudeDegrees>
            </Position>
            <AltitudeMeters>122.8000030517578125</AltitudeMeters>
            <DistanceMeters>NAN</DistanceMeters>
          </Trackpoint>
          <Trackpoint>
            <Time>2022-07-10T14:58:07.000Z</Time>
            <Position>
              <LatitudeDegrees>43.280599415302276611328125</LatitudeDegrees>
              <LongitudeDegrees>-2.29234255850315093994140625</LongitudeDegrees>
            </Position>
            <AltitudeMeters>123.40000152587890625</AltitudeMeters>
            <DistanceMeters>NAN</DistanceMeters>
          </Trackpoint>
          <Trackpoint>
            <Time>2022-07-10T14:58:11.000Z</Time>
            <Position>
              <LatitudeDegrees>43.28065498732030391693115234375</LatitudeDegrees>
              <LongitudeDegrees>-2.29239326901733875274658203125</LongitudeDegrees>
            </Position>
            <AltitudeMeters>124</AltitudeMeters>
            <DistanceMeters>NAN</DistanceMeters>
          </Trackpoint>
          <Trackpoint>
            <Time>2022-07-10T14:58:18.000Z</Time>
            <Position>
              <LatitudeDegrees>43.28076906502246856689453125</LatitudeDegrees>
              <LongitudeDegrees>-2.2924585640430450439453125</LongitudeDegrees>
            </Position>
            <AltitudeMeters>124.40000152587890625</AltitudeMeters>
            <DistanceMeters>NAN</DistanceMeters>
          </Trackpoint>
          <Trackpoint>
            <Time>2022-07-10T14:58:23.000Z</Time>
            <Position>
              <LatitudeDegrees>43.2808580808341503143310546875</LatitudeDegrees>
              <LongitudeDegrees>-2.29249519295990467071533203125</LongitudeDegrees>
            </Position>
            <AltitudeMeters>125</AltitudeMeters>
            <DistanceMeters>NAN</DistanceMeters>
          </Trackpoint>
          <Trackpoint>
            <Time>2022-07-10T14:58:29.000Z</Time>
            <Position>
              <LatitudeDegrees>43.28095170669257640838623046875</LatitudeDegrees>
              <LongitudeDegrees>-2.29255638085305690765380859375</LongitudeDegrees>
            </Position>
            <AltitudeMeters>125.59999847412109375</AltitudeMeters>
            <DistanceMeters>NAN</DistanceMeters>
          </Trackpoint>
          <Trackpoint>
            <Time>2022-07-10T14:58:33.000Z</Time>
            <Position>
              <LatitudeDegrees>43.28101339749991893768310546875</LatitudeDegrees>
              <LongitudeDegrees>-2.29260667227208614349365234375</LongitudeDegrees>
            </Position>
            <AltitudeMeters>126</AltitudeMeters>
            <DistanceMeters>NAN</DistanceMeters>
          </Trackpoint>
          <Trackpoint>
            <Time>2022-07-10T14:58:34.000Z</Time>
            <Position>
              <LatitudeDegrees>43.28103250823915004730224609375</LatitudeDegrees>
              <LongitudeDegrees>-2.29262108914554119110107421875</LongitudeDegrees>
            </Position>
            <AltitudeMeters>126</AltitudeMeters>
            <DistanceMeters>NAN</DistanceMeters>
          </Trackpoint>
          <Trackpoint>
            <Time>2022-07-10T14:58:36.000Z</Time>
            <Position>
              <LatitudeDegrees>43.281065113842487335205078125</LatitudeDegrees>
              <LongitudeDegrees>-2.29265159927308559417724609375</LongitudeDegrees>
            </Position>
            <AltitudeMeters>126.1999969482421875</AltitudeMeters>
            <DistanceMeters>NAN</DistanceMeters>
          </Trackpoint>
          <Trackpoint>
            <Time>2022-07-10T14:58:42.000Z</Time>
            <Position>
              <LatitudeDegrees>43.28117810189723968505859375</LatitudeDegrees>
              <LongitudeDegrees>-2.29270289652049541473388671875</LongitudeDegrees>
            </Position>
            <AltitudeMeters>127</AltitudeMeters>
            <DistanceMeters>NAN</DistanceMeters>
          </Trackpoint>
          <Trackpoint>
            <Time>2022-07-10T14:58:46.000Z</Time>
            <Position>
              <LatitudeDegrees>43.2812423072755336761474609375</LatitudeDegrees>
              <LongitudeDegrees>-2.29275369085371494293212890625</LongitudeDegrees>
            </Position>
            <AltitudeMeters>127.59999847412109375</AltitudeMeters>
            <DistanceMeters>NAN</DistanceMeters>
          </Trackpoint>
          <Trackpoint>
            <Time>2022-07-10T14:58:51.000Z</Time>
            <Position>
              <LatitudeDegrees>43.2813210971653461456298828125</LatitudeDegrees>
              <LongitudeDegrees>-2.292806245386600494384765625</LongitudeDegrees>
            </Position>
            <AltitudeMeters>128</AltitudeMeters>
            <DistanceMeters>NAN</DistanceMeters>
          </Trackpoint>
          <Trackpoint>
            <Time>2022-07-10T14:58:54.000Z</Time>
            <Position>
              <LatitudeDegrees>43.28137096948921680450439453125</LatitudeDegrees>
              <LongitudeDegrees>-2.29283248074352741241455078125</LongitudeDegrees>
            </Position>
            <AltitudeMeters>128.399993896484375</AltitudeMeters>
            <DistanceMeters>NAN</DistanceMeters>
          </Trackpoint>
          <Trackpoint>
            <Time>2022-07-10T14:58:58.000Z</Time>
            <Position>
              <LatitudeDegrees>43.28144892118871212005615234375</LatitudeDegrees>
              <LongitudeDegrees>-2.29286667890846729278564453125</LongitudeDegrees>
            </Position>
            <AltitudeMeters>128.600006103515625</AltitudeMeters>
            <DistanceMeters>NAN</DistanceMeters>
          </Trackpoint>
          <Trackpoint>
            <Time>2022-07-10T14:59:01.000Z</Time>
            <Position>
              <LatitudeDegrees>43.28149736858904361724853515625</LatitudeDegrees>
              <LongitudeDegrees>-2.292906828224658966064453125</LongitudeDegrees>
            </Position>
            <AltitudeMeters>129.1999969482421875</AltitudeMeters>
            <DistanceMeters>NAN</DistanceMeters>
          </Trackpoint>
          <Trackpoint>
            <Time>2022-07-10T14:59:03.000Z</Time>
            <Position>
              <LatitudeDegrees>43.28153089620172977447509765625</LatitudeDegrees>
              <LongitudeDegrees>-2.29294060729444026947021484375</LongitudeDegrees>
            </Position>
            <AltitudeMeters>129.399993896484375</AltitudeMeters>
            <DistanceMeters>NAN</DistanceMeters>
          </Trackpoint>
          <Trackpoint>
            <Time>2022-07-10T14:59:10.000Z</Time>
            <Position>
              <LatitudeDegrees>43.28162477351725101470947265625</LatitudeDegrees>
              <LongitudeDegrees>-2.29299659840762615203857421875</LongitudeDegrees>
            </Position>
            <AltitudeMeters>130</AltitudeMeters>
            <DistanceMeters>NAN</DistanceMeters>
          </Trackpoint>
          <Trackpoint>
            <Time>2022-07-10T14:59:12.000Z</Time>
            <Position>
              <LatitudeDegrees>43.28167439438402652740478515625</LatitudeDegrees>
              <LongitudeDegrees>-2.2930075787007808685302734375</LongitudeDegrees>
            </Position>
            <AltitudeMeters>130.399993896484375</AltitudeMeters>
            <DistanceMeters>NAN</DistanceMeters>
          </Trackpoint>
          <Trackpoint>
            <Time>2022-07-10T14:59:18.000Z</Time>
            <Position>
              <LatitudeDegrees>43.2817782461643218994140625</LatitudeDegrees>
              <LongitudeDegrees>-2.29307136498391628265380859375</LongitudeDegrees>
            </Position>
            <AltitudeMeters>131.399993896484375</AltitudeMeters>
            <DistanceMeters>NAN</DistanceMeters>
          </Trackpoint>
          <Trackpoint>
            <Time>2022-07-10T14:59:24.000Z</Time>
            <Position>
              <LatitudeDegrees>43.28187975101172924041748046875</LatitudeDegrees>
              <LongitudeDegrees>-2.29313515126705169677734375</LongitudeDegrees>
            </Position>
            <AltitudeMeters>132</AltitudeMeters>
            <DistanceMeters>NAN</DistanceMeters>
          </Trackpoint>
          <Trackpoint>
            <Time>2022-07-10T14:59:26.000Z</Time>
            <Position>
              <LatitudeDegrees>43.28190875239670276641845703125</LatitudeDegrees>
              <LongitudeDegrees>-2.29316323064267635345458984375</LongitudeDegrees>
            </Position>
            <AltitudeMeters>132.399993896484375</AltitudeMeters>
            <DistanceMeters>NAN</DistanceMeters>
          </Trackpoint>
          <Trackpoint>
            <Time>2022-07-10T14:59:31.000Z</Time>
            <Position>
              <LatitudeDegrees>43.28196256421506404876708984375</LatitudeDegrees>
              <LongitudeDegrees>-2.293266244232654571533203125</LongitudeDegrees>
            </Position>
            <AltitudeMeters>133</AltitudeMeters>
            <DistanceMeters>NAN</DistanceMeters>
          </Trackpoint>
          <Trackpoint>
            <Time>2022-07-10T14:59:34.000Z</Time>
            <Position>
              <LatitudeDegrees>43.28198502771556377410888671875</LatitudeDegrees>
              <LongitudeDegrees>-2.293339669704437255859375</LongitudeDegrees>
            </Position>
            <AltitudeMeters>133.399993896484375</AltitudeMeters>
            <DistanceMeters>NAN</DistanceMeters>
          </Trackpoint>
          <Trackpoint>
            <Time>2022-07-10T14:59:39.000Z</Time>
            <Position>
              <LatitudeDegrees>43.282018639147281646728515625</LatitudeDegrees>
              <LongitudeDegrees>-2.2934692539274692535400390625</LongitudeDegrees>
            </Position>
            <AltitudeMeters>134.1999969482421875</AltitudeMeters>
            <DistanceMeters>NAN</DistanceMeters>
          </Trackpoint>
          <Trackpoint>
            <Time>2022-07-10T14:59:43.000Z</Time>
            <Position>
              <LatitudeDegrees>43.28203196637332439422607421875</LatitudeDegrees>
              <LongitudeDegrees>-2.2935641370713710784912109375</LongitudeDegrees>
            </Position>
            <AltitudeMeters>134.600006103515625</AltitudeMeters>
            <DistanceMeters>NAN</DistanceMeters>
          </Trackpoint>
          <Trackpoint>
            <Time>2022-07-10T14:59:48.000Z</Time>
            <Position>
              <LatitudeDegrees>43.2820271886885166168212890625</LatitudeDegrees>
              <LongitudeDegrees>-2.29369279928505420684814453125</LongitudeDegrees>
            </Position>
            <AltitudeMeters>135</AltitudeMeters>
            <DistanceMeters>NAN</DistanceMeters>
          </Trackpoint>
          <Trackpoint>
            <Time>2022-07-10T14:59:54.000Z</Time>
            <Position>
              <LatitudeDegrees>43.28201419673860073089599609375</LatitudeDegrees>
              <LongitudeDegrees>-2.2938300110399723052978515625</LongitudeDegrees>
            </Position>
            <AltitudeMeters>135.399993896484375</AltitudeMeters>
            <DistanceMeters>NAN</DistanceMeters>
          </Trackpoint>
          <Trackpoint>
            <Time>2022-07-10T14:59:58.000Z</Time>
            <Position>
              <LatitudeDegrees>43.2819903083145618438720703125</LatitudeDegrees>
              <LongitudeDegrees>-2.29392564855515956878662109375</LongitudeDegrees>
            </Position>
            <AltitudeMeters>135.600006103515625</AltitudeMeters>
            <DistanceMeters>NAN</DistanceMeters>
          </Trackpoint>
          <Trackpoint>
            <Time>2022-07-10T15:00:01.000Z</Time>
            <Position>
              <LatitudeDegrees>43.28197446651756763458251953125</LatitudeDegrees>
              <LongitudeDegrees>-2.29398130439221858978271484375</LongitudeDegrees>
            </Position>
            <AltitudeMeters>135.8000030517578125</AltitudeMeters>
            <DistanceMeters>NAN</DistanceMeters>
          </Trackpoint>
          <Trackpoint>
            <Time>2022-07-10T15:00:05.000Z</Time>
            <Position>
              <LatitudeDegrees>43.281942196190357208251953125</LatitudeDegrees>
              <LongitudeDegrees>-2.2940549813210964202880859375</LongitudeDegrees>
            </Position>
            <AltitudeMeters>136.399993896484375</AltitudeMeters>
            <DistanceMeters>NAN</DistanceMeters>
          </Trackpoint>
          <Trackpoint>
            <Time>2022-07-10T15:00:07.000Z</Time>
            <Position>
              <LatitudeDegrees>43.2819178886711597442626953125</LatitudeDegrees>
              <LongitudeDegrees>-2.29408725164830684661865234375</LongitudeDegrees>
            </Position>
            <AltitudeMeters>136.600006103515625</AltitudeMeters>
            <DistanceMeters>NAN</DistanceMeters>
          </Trackpoint>
          <Trackpoint>
            <Time>2022-07-10T15:00:11.000Z</Time>
            <Position>
              <LatitudeDegrees>43.28184873796999454498291015625</LatitudeDegrees>
              <LongitudeDegrees>-2.294147349894046783447265625</LongitudeDegrees>
            </Position>
            <AltitudeMeters>137.1999969482421875</AltitudeMeters>
            <DistanceMeters>NAN</DistanceMeters>
          </Trackpoint>
          <Trackpoint>
            <Time>2022-07-10T15:00:18.000Z</Time>
            <Position>
              <LatitudeDegrees>43.2817348279058933258056640625</LatitudeDegrees>
              <LongitudeDegrees>-2.2942574881017208099365234375</LongitudeDegrees>
            </Position>
            <AltitudeMeters>137.600006103515625</AltitudeMeters>
            <DistanceMeters>NAN</DistanceMeters>
          </Trackpoint>
          <Trackpoint>
            <Time>2022-07-10T15:00:19.000Z</Time>
            <Position>
              <LatitudeDegrees>43.28172267414629459381103515625</LatitudeDegrees>
              <LongitudeDegrees>-2.2942690551280975341796875</LongitudeDegrees>
            </Position>
            <AltitudeMeters>137.8000030517578125</AltitudeMeters>
            <DistanceMeters>NAN</DistanceMeters>
          </Trackpoint>
          <Trackpoint>
            <Time>2022-07-10T15:00:31.000Z</Time>
            <Position>
              <LatitudeDegrees>43.281532488763332366943359375</LatitudeDegrees>
              <LongitudeDegrees>-2.29446644894778728485107421875</LongitudeDegrees>
            </Position>
            <AltitudeMeters>138.600006103515625</AltitudeMeters>
            <DistanceMeters>NAN</DistanceMeters>
          </Trackpoint>
          <Trackpoint>
            <Time>2022-07-10T15:00:32.000Z</Time>
            <Position>
              <LatitudeDegrees>43.28151714988052845001220703125</LatitudeDegrees>
              <LongitudeDegrees>-2.2944791056215763092041015625</LongitudeDegrees>
            </Position>
            <AltitudeMeters>138.600006103515625</AltitudeMeters>
            <DistanceMeters>NAN</DistanceMeters>
          </Trackpoint>
          <Trackpoint>
            <Time>2022-07-10T15:00:40.000Z</Time>
            <Position>
              <LatitudeDegrees>43.28141748905181884765625</LatitudeDegrees>
              <LongitudeDegrees>-2.29460206814110279083251953125</LongitudeDegrees>
            </Position>
            <AltitudeMeters>139.399993896484375</AltitudeMeters>
            <DistanceMeters>NAN</DistanceMeters>
          </Trackpoint>
          <Trackpoint>
            <Time>2022-07-10T15:00:44.000Z</Time>
            <Position>
              <LatitudeDegrees>43.28137448988854885101318359375</LatitudeDegrees>
              <LongitudeDegrees>-2.29468203149735927581787109375</LongitudeDegrees>
            </Position>
            <AltitudeMeters>139.8000030517578125</AltitudeMeters>
            <DistanceMeters>NAN</DistanceMeters>
          </Trackpoint>
          <Trackpoint>
            <Time>2022-07-10T15:00:49.000Z</Time>
            <Position>
              <LatitudeDegrees>43.281329981982707977294921875</LatitudeDegrees>
              <LongitudeDegrees>-2.29478881694376468658447265625</LongitudeDegrees>
            </Position>
            <AltitudeMeters>140.1999969482421875</AltitudeMeters>
            <DistanceMeters>NAN</DistanceMeters>
          </Trackpoint>
          <Trackpoint>
            <Time>2022-07-10T15:00:54.000Z</Time>
            <Position>
              <LatitudeDegrees>43.2812912575900554656982421875</LatitudeDegrees>
              <LongitudeDegrees>-2.29490004479885101318359375</LongitudeDegrees>
            </Position>
            <AltitudeMeters>140.8000030517578125</AltitudeMeters>
            <DistanceMeters>NAN</DistanceMeters>
          </Trackpoint>
          <Trackpoint>
            <Time>2022-07-10T15:00:57.000Z</Time>
            <Position>
              <LatitudeDegrees>43.28127172775566577911376953125</LatitudeDegrees>
              <LongitudeDegrees>-2.2949800081551074981689453125</LongitudeDegrees>
            </Position>
            <AltitudeMeters>141</AltitudeMeters>
            <DistanceMeters>NAN</DistanceMeters>
          </Trackpoint>
          <Trackpoint>
            <Time>2022-07-10T15:01:04.000Z</Time>
            <Position>
              <LatitudeDegrees>43.28122613020241260528564453125</LatitudeDegrees>
              <LongitudeDegrees>-2.2951662540435791015625</LongitudeDegrees>
            </Position>
            <AltitudeMeters>141.8000030517578125</AltitudeMeters>
            <DistanceMeters>NAN</DistanceMeters>
          </Trackpoint>
          <Trackpoint>
            <Time>2022-07-10T15:01:05.000Z</Time>
            <Position>
              <LatitudeDegrees>43.281224705278873443603515625</LatitudeDegrees>
              <LongitudeDegrees>-2.295190058648586273193359375</LongitudeDegrees>
            </Position>
            <AltitudeMeters>142</AltitudeMeters>
            <DistanceMeters>NAN</DistanceMeters>
          </Trackpoint>
          <Trackpoint>
            <Time>2022-07-10T15:01:15.000Z</Time>
            <Position>
              <LatitudeDegrees>43.28118422068655490875244140625</LatitudeDegrees>
              <LongitudeDegrees>-2.29541175998747348785400390625</LongitudeDegrees>
            </Position>
            <AltitudeMeters>142.8000030517578125</AltitudeMeters>
            <DistanceMeters>NAN</DistanceMeters>
          </Trackpoint>
          <Trackpoint>
            <Time>2022-07-10T15:01:16.000Z</Time>
            <Position>
              <LatitudeDegrees>43.2811774313449859619140625</LatitudeDegrees>
              <LongitudeDegrees>-2.2954591177403926849365234375</LongitudeDegrees>
            </Position>
            <AltitudeMeters>143</AltitudeMeters>
            <DistanceMeters>NAN</DistanceMeters>
          </Trackpoint>
          <Trackpoint>
            <Time>2022-07-10T15:01:25.000Z</Time>
            <Position>
              <LatitudeDegrees>43.2811172492802143096923828125</LatitudeDegrees>
              <LongitudeDegrees>-2.2956747002899646759033203125</LongitudeDegrees>
            </Position>
            <AltitudeMeters>143.8000030517578125</AltitudeMeters>
            <DistanceMeters>NAN</DistanceMeters>
          </Trackpoint>
          <Trackpoint>
            <Time>2022-07-10T15:01:27.000Z</Time>
            <Position>
              <LatitudeDegrees>43.281101323664188385009765625</LatitudeDegrees>
              <LongitudeDegrees>-2.29572440497577190399169921875</LongitudeDegrees>
            </Position>
            <AltitudeMeters>144</AltitudeMeters>
            <DistanceMeters>NAN</DistanceMeters>
          </Trackpoint>
          <Trackpoint>
            <Time>2022-07-10T15:01:33.000Z</Time>
            <Position>
              <LatitudeDegrees>43.28105270862579345703125</LatitudeDegrees>
              <LongitudeDegrees>-2.2958785481750965118408203125</LongitudeDegrees>
            </Position>
            <AltitudeMeters>144.1999969482421875</AltitudeMeters>
            <DistanceMeters>NAN</DistanceMeters>
          </Trackpoint>
          <Trackpoint>
            <Time>2022-07-10T15:01:43.000Z</Time>
            <Position>
              <LatitudeDegrees>43.28099462203681468963623046875</LatitudeDegrees>
              <LongitudeDegrees>-2.29609823785722255706787109375</LongitudeDegrees>
            </Position>
            <AltitudeMeters>145</AltitudeMeters>
            <DistanceMeters>NAN</DistanceMeters>
          </Trackpoint>
          <Trackpoint>
            <Time>2022-07-10T15:01:50.000Z</Time>
            <Position>
              <LatitudeDegrees>43.28094667755067348480224609375</LatitudeDegrees>
              <LongitudeDegrees>-2.29624374769628047943115234375</LongitudeDegrees>
            </Position>
            <AltitudeMeters>145.600006103515625</AltitudeMeters>
            <DistanceMeters>NAN</DistanceMeters>
          </Trackpoint>
          <Trackpoint>
            <Time>2022-07-10T15:01:56.000Z</Time>
            <Position>
              <LatitudeDegrees>43.28091197647154331207275390625</LatitudeDegrees>
              <LongitudeDegrees>-2.29635908268392086029052734375</LongitudeDegrees>
            </Position>
            <AltitudeMeters>146</AltitudeMeters>
            <DistanceMeters>NAN</DistanceMeters>
          </Trackpoint>
          <Trackpoint>
            <Time>2022-07-10T15:01:57.000Z</Time>
            <Position>
              <LatitudeDegrees>43.28090317547321319580078125</LatitudeDegrees>
              <LongitudeDegrees>-2.29638003744184970855712890625</LongitudeDegrees>
            </Position>
            <AltitudeMeters>146.399993896484375</AltitudeMeters>
            <DistanceMeters>NAN</DistanceMeters>
          </Trackpoint>
          <Trackpoint>
            <Time>2022-07-10T15:02:02.000Z</Time>
            <Position>
              <LatitudeDegrees>43.28087241388857364654541015625</LatitudeDegrees>
              <LongitudeDegrees>-2.296489588916301727294921875</LongitudeDegrees>
            </Position>
            <AltitudeMeters>147</AltitudeMeters>
            <DistanceMeters>NAN</DistanceMeters>
          </Trackpoint>
          <Trackpoint>
            <Time>2022-07-10T15:02:03.000Z</Time>
            <Position>
              <LatitudeDegrees>43.28086269088089466094970703125</LatitudeDegrees>
              <LongitudeDegrees>-2.29651967994868755340576171875</LongitudeDegrees>
            </Position>
            <AltitudeMeters>147.1999969482421875</AltitudeMeters>
            <DistanceMeters>NAN</DistanceMeters>
          </Trackpoint>
          <Trackpoint>
            <Time>2022-07-10T15:02:05.000Z</Time>
            <Position>
              <LatitudeDegrees>43.28084886074066162109375</LatitudeDegrees>
              <LongitudeDegrees>-2.2965698875486850738525390625</LongitudeDegrees>
            </Position>
            <AltitudeMeters>147.399993896484375</AltitudeMeters>
            <DistanceMeters>NAN</DistanceMeters>
          </Trackpoint>
          <Trackpoint>
            <Time>2022-07-10T15:02:11.000Z</Time>
            <Position>
              <LatitudeDegrees>43.28075607307255268096923828125</LatitudeDegrees>
              <LongitudeDegrees>-2.2967120446264743804931640625</LongitudeDegrees>
            </Position>
            <AltitudeMeters>148</AltitudeMeters>
            <DistanceMeters>NAN</DistanceMeters>
          </Trackpoint>
          <Trackpoint>
            <Time>2022-07-10T15:02:17.000Z</Time>
            <Position>
              <LatitudeDegrees>43.28071005642414093017578125</LatitudeDegrees>
              <LongitudeDegrees>-2.29682293720543384552001953125</LongitudeDegrees>
            </Position>
            <AltitudeMeters>148.399993896484375</AltitudeMeters>
            <DistanceMeters>NAN</DistanceMeters>
          </Trackpoint>
          <Trackpoint>
            <Time>2022-07-10T15:02:18.000Z</Time>
            <Position>
              <LatitudeDegrees>43.28069907613098621368408203125</LatitudeDegrees>
              <LongitudeDegrees>-2.296843640506267547607421875</LongitudeDegrees>
            </Position>
            <AltitudeMeters>148.600006103515625</AltitudeMeters>
            <DistanceMeters>NAN</DistanceMeters>
          </Trackpoint>
          <Trackpoint>
            <Time>2022-07-10T15:02:26.000Z</Time>
            <Position>
              <LatitudeDegrees>43.2806116528809070587158203125</LatitudeDegrees>
              <LongitudeDegrees>-2.29698571376502513885498046875</LongitudeDegrees>
            </Position>
            <AltitudeMeters>149.399993896484375</AltitudeMeters>
            <DistanceMeters>NAN</DistanceMeters>
          </Trackpoint>
          <Trackpoint>
            <Time>2022-07-10T15:02:27.000Z</Time>
            <Position>
              <LatitudeDegrees>43.28060050494968891143798828125</LatitudeDegrees>
              <LongitudeDegrees>-2.29699929244816303253173828125</LongitudeDegrees>
            </Position>
            <AltitudeMeters>149.399993896484375</AltitudeMeters>
            <DistanceMeters>NAN</DistanceMeters>
          </Trackpoint>
          <Trackpoint>
            <Time>2022-07-10T15:02:29.000Z</Time>
            <Position>
              <LatitudeDegrees>43.28057301230728626251220703125</LatitudeDegrees>
              <LongitudeDegrees>-2.2970265336334705352783203125</LongitudeDegrees>
            </Position>
            <AltitudeMeters>149.600006103515625</AltitudeMeters>
            <DistanceMeters>NAN</DistanceMeters>
          </Trackpoint>
          <Trackpoint>
            <Time>2022-07-10T15:02:36.000Z</Time>
            <Position>
              <LatitudeDegrees>43.280471675097942352294921875</LatitudeDegrees>
              <LongitudeDegrees>-2.297116555273532867431640625</LongitudeDegrees>
            </Position>
            <AltitudeMeters>150.1999969482421875</AltitudeMeters>
            <DistanceMeters>NAN</DistanceMeters>
          </Trackpoint>
          <Trackpoint>
            <Time>2022-07-10T15:02:39.000Z</Time>
            <Position>
              <LatitudeDegrees>43.280421383678913116455078125</LatitudeDegrees>
              <LongitudeDegrees>-2.29714664630591869354248046875</LongitudeDegrees>
            </Position>
            <AltitudeMeters>150.600006103515625</AltitudeMeters>
            <DistanceMeters>NAN</DistanceMeters>
          </Trackpoint>
          <Trackpoint>
            <Time>2022-07-10T15:02:46.000Z</Time>
            <Position>
              <LatitudeDegrees>43.28029825352132320404052734375</LatitudeDegrees>
              <LongitudeDegrees>-2.29719878174364566802978515625</LongitudeDegrees>
            </Position>
            <AltitudeMeters>150.8000030517578125</AltitudeMeters>
            <DistanceMeters>NAN</DistanceMeters>
          </Trackpoint>
          <Trackpoint>
            <Time>2022-07-10T15:02:54.000Z</Time>
            <Position>
              <LatitudeDegrees>43.28012977726757526397705078125</LatitudeDegrees>
              <LongitudeDegrees>-2.29722845368087291717529296875</LongitudeDegrees>
            </Position>
            <AltitudeMeters>151.399993896484375</AltitudeMeters>
            <DistanceMeters>NAN</DistanceMeters>
          </Trackpoint>
          <Trackpoint>
            <Time>2022-07-10T15:02:57.000Z</Time>
            <Position>
              <LatitudeDegrees>43.28007462434470653533935546875</LatitudeDegrees>
              <LongitudeDegrees>-2.29725410230457782745361328125</LongitudeDegrees>
            </Position>
            <AltitudeMeters>151.600006103515625</AltitudeMeters>
            <DistanceMeters>NAN</DistanceMeters>
          </Trackpoint>
          <Trackpoint>
            <Time>2022-07-10T15:03:04.000Z</Time>
            <Position>
              <LatitudeDegrees>43.2799588702619075775146484375</LatitudeDegrees>
              <LongitudeDegrees>-2.29730472899973392486572265625</LongitudeDegrees>
            </Position>
            <AltitudeMeters>152.399993896484375</AltitudeMeters>
            <DistanceMeters>NAN</DistanceMeters>
          </Trackpoint>
          <Trackpoint>
            <Time>2022-07-10T15:03:10.000Z</Time>
            <Position>
              <LatitudeDegrees>43.27986692078411579132080078125</LatitudeDegrees>
              <LongitudeDegrees>-2.2973670065402984619140625</LongitudeDegrees>
            </Position>
            <AltitudeMeters>152.8000030517578125</AltitudeMeters>
            <DistanceMeters>NAN</DistanceMeters>
          </Trackpoint>
          <Trackpoint>
            <Time>2022-07-10T15:03:18.000Z</Time>
            <Position>
              <LatitudeDegrees>43.27974152751266956329345703125</LatitudeDegrees>
              <LongitudeDegrees>-2.29748426936566829681396484375</LongitudeDegrees>
            </Position>
            <AltitudeMeters>153.600006103515625</AltitudeMeters>
            <DistanceMeters>NAN</DistanceMeters>
          </Trackpoint>
          <Trackpoint>
            <Time>2022-07-10T15:03:19.000Z</Time>
            <Position>
              <LatitudeDegrees>43.27972744591534137725830078125</LatitudeDegrees>
              <LongitudeDegrees>-2.29749734513461589813232421875</LongitudeDegrees>
            </Position>
            <AltitudeMeters>153.8000030517578125</AltitudeMeters>
            <DistanceMeters>NAN</DistanceMeters>
          </Trackpoint>
          <Trackpoint>
            <Time>2022-07-10T15:03:27.000Z</Time>
            <Position>
              <LatitudeDegrees>43.279632814228534698486328125</LatitudeDegrees>
              <LongitudeDegrees>-2.2976478002965450286865234375</LongitudeDegrees>
            </Position>
            <AltitudeMeters>155</AltitudeMeters>
            <DistanceMeters>NAN</DistanceMeters>
          </Trackpoint>
          <Trackpoint>
            <Time>2022-07-10T15:03:36.000Z</Time>
            <Position>
              <LatitudeDegrees>43.2795505039393901824951171875</LatitudeDegrees>
              <LongitudeDegrees>-2.29784117080271244049072265625</LongitudeDegrees>
            </Position>
            <AltitudeMeters>156</AltitudeMeters>
            <DistanceMeters>NAN</DistanceMeters>
          </Trackpoint>
          <Trackpoint>
            <Time>2022-07-10T15:03:37.000Z</Time>
            <Position>
              <LatitudeDegrees>43.2795434631407260894775390625</LatitudeDegrees>
              <LongitudeDegrees>-2.297859527170658111572265625</LongitudeDegrees>
            </Position>
            <AltitudeMeters>156.1999969482421875</AltitudeMeters>
            <DistanceMeters>NAN</DistanceMeters>
          </Trackpoint>
          <Trackpoint>
            <Time>2022-07-10T15:03:44.000Z</Time>
            <Position>
              <LatitudeDegrees>43.27946282923221588134765625</LatitudeDegrees>
              <LongitudeDegrees>-2.29799472726881504058837890625</LongitudeDegrees>
            </Position>
            <AltitudeMeters>157</AltitudeMeters>
            <DistanceMeters>NAN</DistanceMeters>
          </Trackpoint>
          <Trackpoint>
            <Time>2022-07-10T15:03:46.000Z</Time>
            <Position>
              <LatitudeDegrees>43.27943391166627407073974609375</LatitudeDegrees>
              <LongitudeDegrees>-2.29803286492824554443359375</LongitudeDegrees>
            </Position>
            <AltitudeMeters>157.399993896484375</AltitudeMeters>
            <DistanceMeters>NAN</DistanceMeters>
          </Trackpoint>
          <Trackpoint>
            <Time>2022-07-10T15:03:53.000Z</Time>
            <Position>
              <LatitudeDegrees>43.2793583907186985015869140625</LatitudeDegrees>
              <LongitudeDegrees>-2.29816990904510021209716796875</LongitudeDegrees>
            </Position>
            <AltitudeMeters>158.1999969482421875</AltitudeMeters>
            <DistanceMeters>NAN</DistanceMeters>
          </Trackpoint>
          <Trackpoint>
            <Time>2022-07-10T15:03:55.000Z</Time>
            <Position>
              <LatitudeDegrees>43.27933332882821559906005859375</LatitudeDegrees>
              <LongitudeDegrees>-2.29821483604609966278076171875</LongitudeDegrees>
            </Position>
            <AltitudeMeters>158.399993896484375</AltitudeMeters>
            <DistanceMeters>NAN</DistanceMeters>
          </Trackpoint>
          <Trackpoint>
            <Time>2022-07-10T15:04:01.000Z</Time>
            <Position>
              <LatitudeDegrees>43.279301561415195465087890625</LatitudeDegrees>
              <LongitudeDegrees>-2.29836436919867992401123046875</LongitudeDegrees>
            </Position>
            <AltitudeMeters>158.600006103515625</AltitudeMeters>
            <DistanceMeters>NAN</DistanceMeters>
          </Trackpoint>
          <Trackpoint>
            <Time>2022-07-10T15:04:07.000Z</Time>
            <Position>
              <LatitudeDegrees>43.2792839594185352325439453125</LatitudeDegrees>
              <LongitudeDegrees>-2.298491857945919036865234375</LongitudeDegrees>
            </Position>
            <AltitudeMeters>159.1999969482421875</AltitudeMeters>
            <DistanceMeters>NAN</DistanceMeters>
          </Trackpoint>
          <Trackpoint>
            <Time>2022-07-10T15:04:12.000Z</Time>
            <Position>
              <LatitudeDegrees>43.2792641781270503997802734375</LatitudeDegrees>
              <LongitudeDegrees>-2.29854919016361236572265625</LongitudeDegrees>
            </Position>
            <AltitudeMeters>159.399993896484375</AltitudeMeters>
            <DistanceMeters>NAN</DistanceMeters>
          </Trackpoint>
          <Trackpoint>
            <Time>2022-07-10T15:04:13.000Z</Time>
            <Position>
              <LatitudeDegrees>43.2792641781270503997802734375</LatitudeDegrees>
              <LongitudeDegrees>-2.29854919016361236572265625</LongitudeDegrees>
            </Position>
            <AltitudeMeters>159.399993896484375</AltitudeMeters>
            <DistanceMeters>NAN</DistanceMeters>
          </Trackpoint>
          <Trackpoint>
            <Time>2022-07-10T15:08:02.000Z</Time>
            <Position>
              <LatitudeDegrees>43.27923576347529888153076171875</LatitudeDegrees>
              <LongitudeDegrees>-2.29858045466244220733642578125</LongitudeDegrees>
            </Position>
            <AltitudeMeters>159.600006103515625</AltitudeMeters>
            <DistanceMeters>NAN</DistanceMeters>
          </Trackpoint>
          <Trackpoint>
            <Time>2022-07-10T15:08:03.000Z</Time>
            <Position>
              <LatitudeDegrees>43.27922252006828784942626953125</LatitudeDegrees>
              <LongitudeDegrees>-2.29859654791653156280517578125</LongitudeDegrees>
            </Position>
            <AltitudeMeters>159.600006103515625</AltitudeMeters>
            <DistanceMeters>NAN</DistanceMeters>
          </Trackpoint>
          <Trackpoint>
            <Time>2022-07-10T15:08:04.000Z</Time>
            <Position>
              <LatitudeDegrees>43.2792065106332302093505859375</LatitudeDegrees>
              <LongitudeDegrees>-2.29861347936093807220458984375</LongitudeDegrees>
            </Position>
            <AltitudeMeters>159.600006103515625</AltitudeMeters>
            <DistanceMeters>NAN</DistanceMeters>
          </Trackpoint>
          <Trackpoint>
            <Time>2022-07-10T15:08:06.000Z</Time>
            <Position>
              <LatitudeDegrees>43.27917289920151233673095703125</LatitudeDegrees>
              <LongitudeDegrees>-2.298644743859767913818359375</LongitudeDegrees>
            </Position>
            <AltitudeMeters>160.399993896484375</AltitudeMeters>
            <DistanceMeters>NAN</DistanceMeters>
          </Trackpoint>
          <Trackpoint>
            <Time>2022-07-10T15:08:11.000Z</Time>
            <Position>
              <LatitudeDegrees>43.279112465679645538330078125</LatitudeDegrees>
              <LongitudeDegrees>-2.29875706136226654052734375</LongitudeDegrees>
            </Position>
            <AltitudeMeters>161.1999969482421875</AltitudeMeters>
            <DistanceMeters>NAN</DistanceMeters>
          </Trackpoint>
          <Trackpoint>
            <Time>2022-07-10T15:08:12.000Z</Time>
            <Position>
              <LatitudeDegrees>43.279107771813869476318359375</LatitudeDegrees>
              <LongitudeDegrees>-2.29878178797662258148193359375</LongitudeDegrees>
            </Position>
            <AltitudeMeters>161.399993896484375</AltitudeMeters>
            <DistanceMeters>NAN</DistanceMeters>
          </Trackpoint>
          <Trackpoint>
            <Time>2022-07-10T15:08:19.000Z</Time>
            <Position>
              <LatitudeDegrees>43.27909578569233417510986328125</LatitudeDegrees>
              <LongitudeDegrees>-2.2989795170724391937255859375</LongitudeDegrees>
            </Position>
            <AltitudeMeters>162</AltitudeMeters>
            <DistanceMeters>NAN</DistanceMeters>
          </Trackpoint>
          <Trackpoint>
            <Time>2022-07-10T15:08:22.000Z</Time>
            <Position>
              <LatitudeDegrees>43.27908086590468883514404296875</LatitudeDegrees>
              <LongitudeDegrees>-2.2990868054330348968505859375</LongitudeDegrees>
            </Position>
            <AltitudeMeters>162.1999969482421875</AltitudeMeters>
            <DistanceMeters>NAN</DistanceMeters>
          </Trackpoint>
          <Trackpoint>
            <Time>2022-07-10T15:08:26.000Z</Time>
            <Position>
              <LatitudeDegrees>43.2790724001824855804443359375</LatitudeDegrees>
              <LongitudeDegrees>-2.29921706020832061767578125</LongitudeDegrees>
            </Position>
            <AltitudeMeters>162.399993896484375</AltitudeMeters>
            <DistanceMeters>NAN</DistanceMeters>
          </Trackpoint>
          <Trackpoint>
            <Time>2022-07-10T15:08:27.000Z</Time>
            <Position>
              <LatitudeDegrees>43.2790724001824855804443359375</LatitudeDegrees>
              <LongitudeDegrees>-2.29921706020832061767578125</LongitudeDegrees>
            </Position>
            <AltitudeMeters>162.600006103515625</AltitudeMeters>
            <DistanceMeters>NAN</DistanceMeters>
          </Trackpoint>
          <Trackpoint>
            <Time>2022-07-10T15:08:34.000Z</Time>
            <Position>
              <LatitudeDegrees>43.27908773906528949737548828125</LatitudeDegrees>
              <LongitudeDegrees>-2.29950732551515102386474609375</LongitudeDegrees>
            </Position>
            <AltitudeMeters>163</AltitudeMeters>
            <DistanceMeters>NAN</DistanceMeters>
          </Trackpoint>
          <Trackpoint>
            <Time>2022-07-10T15:08:43.000Z</Time>
            <Position>
              <LatitudeDegrees>43.27916602604091167449951171875</LatitudeDegrees>
              <LongitudeDegrees>-2.2998150251805782318115234375</LongitudeDegrees>
            </Position>
            <AltitudeMeters>163.399993896484375</AltitudeMeters>
            <DistanceMeters>NAN</DistanceMeters>
          </Trackpoint>
          <Trackpoint>
            <Time>2022-07-10T15:08:45.000Z</Time>
            <Position>
              <LatitudeDegrees>43.2791845500469207763671875</LatitudeDegrees>
              <LongitudeDegrees>-2.29988836683332920074462890625</LongitudeDegrees>
            </Position>
            <AltitudeMeters>163.600006103515625</AltitudeMeters>
            <DistanceMeters>NAN</DistanceMeters>
          </Trackpoint>
          <Trackpoint>
            <Time>2022-07-10T15:08:47.000Z</Time>
            <Position>
              <LatitudeDegrees>43.2791900821030139923095703125</LatitudeDegrees>
              <LongitudeDegrees>-2.29996028356254100799560546875</LongitudeDegrees>
            </Position>
            <AltitudeMeters>163.600006103515625</AltitudeMeters>
            <DistanceMeters>NAN</DistanceMeters>
          </Trackpoint>
          <Trackpoint>
            <Time>2022-07-10T15:08:48.000Z</Time>
            <Position>
              <LatitudeDegrees>43.27919603325426578521728515625</LatitudeDegrees>
              <LongitudeDegrees>-2.2999943979084491729736328125</LongitudeDegrees>
            </Position>
            <AltitudeMeters>163.600006103515625</AltitudeMeters>
            <DistanceMeters>NAN</DistanceMeters>
          </Trackpoint>
          <Trackpoint>
            <Time>2022-07-10T15:08:50.000Z</Time>
            <Position>
              <LatitudeDegrees>43.27921749092638492584228515625</LatitudeDegrees>
              <LongitudeDegrees>-2.3000480420887470245361328125</LongitudeDegrees>
            </Position>
            <AltitudeMeters>163.8000030517578125</AltitudeMeters>
            <DistanceMeters>NAN</DistanceMeters>
          </Trackpoint>
          <Trackpoint>
            <Time>2022-07-10T15:08:52.000Z</Time>
            <Position>
              <LatitudeDegrees>43.27923827804625034332275390625</LatitudeDegrees>
              <LongitudeDegrees>-2.3001003451645374298095703125</LongitudeDegrees>
            </Position>
            <AltitudeMeters>164.1999969482421875</AltitudeMeters>
            <DistanceMeters>NAN</DistanceMeters>
          </Trackpoint>
          <Trackpoint>
            <Time>2022-07-10T15:08:59.000Z</Time>
            <Position>
              <LatitudeDegrees>43.279311954975128173828125</LatitudeDegrees>
              <LongitudeDegrees>-2.3003236390650272369384765625</LongitudeDegrees>
            </Position>
            <AltitudeMeters>164.600006103515625</AltitudeMeters>
            <DistanceMeters>NAN</DistanceMeters>
          </Trackpoint>
          <Trackpoint>
            <Time>2022-07-10T15:09:06.000Z</Time>
            <Position>
              <LatitudeDegrees>43.2793889008462429046630859375</LatitudeDegrees>
              <LongitudeDegrees>-2.3005301691591739654541015625</LongitudeDegrees>
            </Position>
            <AltitudeMeters>165.600006103515625</AltitudeMeters>
            <DistanceMeters>NAN</DistanceMeters>
          </Trackpoint>
          <Trackpoint>
            <Time>2022-07-10T15:09:09.000Z</Time>
            <Position>
              <LatitudeDegrees>43.27942033298313617706298828125</LatitudeDegrees>
              <LongitudeDegrees>-2.30062580667436122894287109375</LongitudeDegrees>
            </Position>
            <AltitudeMeters>165.8000030517578125</AltitudeMeters>
            <DistanceMeters>NAN</DistanceMeters>
          </Trackpoint>
          <Trackpoint>
            <Time>2022-07-10T15:09:13.000Z</Time>
            <Position>
              <LatitudeDegrees>43.279451765120029449462890625</LatitudeDegrees>
              <LongitudeDegrees>-2.30075396597385406494140625</LongitudeDegrees>
            </Position>
            <AltitudeMeters>165.8000030517578125</AltitudeMeters>
            <DistanceMeters>NAN</DistanceMeters>
          </Trackpoint>
          <Trackpoint>
            <Time>2022-07-10T15:09:22.000Z</Time>
            <Position>
              <LatitudeDegrees>43.27953550033271312713623046875</LatitudeDegrees>
              <LongitudeDegrees>-2.3010330833494663238525390625</LongitudeDegrees>
            </Position>
            <AltitudeMeters>166.399993896484375</AltitudeMeters>
            <DistanceMeters>NAN</DistanceMeters>
          </Trackpoint>
          <Trackpoint>
            <Time>2022-07-10T15:09:25.000Z</Time>
            <Position>
              <LatitudeDegrees>43.2795635797083377838134765625</LatitudeDegrees>
              <LongitudeDegrees>-2.301119752228260040283203125</LongitudeDegrees>
            </Position>
            <AltitudeMeters>166.399993896484375</AltitudeMeters>
            <DistanceMeters>NAN</DistanceMeters>
          </Trackpoint>
          <Trackpoint>
            <Time>2022-07-10T15:09:26.000Z</Time>
            <Position>
              <LatitudeDegrees>43.27957556582987308502197265625</LatitudeDegrees>
              <LongitudeDegrees>-2.30115118436515331268310546875</LongitudeDegrees>
            </Position>
            <AltitudeMeters>166.600006103515625</AltitudeMeters>
            <DistanceMeters>NAN</DistanceMeters>
          </Trackpoint>
          <Trackpoint>
            <Time>2022-07-10T15:09:29.000Z</Time>
            <Position>
              <LatitudeDegrees>43.27959358692169189453125</LatitudeDegrees>
              <LongitudeDegrees>-2.3012570478022098541259765625</LongitudeDegrees>
            </Position>
            <AltitudeMeters>166.8000030517578125</AltitudeMeters>
            <DistanceMeters>NAN</DistanceMeters>
          </Trackpoint>
          <Trackpoint>
            <Time>2022-07-10T15:09:32.000Z</Time>
            <Position>
              <LatitudeDegrees>43.2796054892241954803466796875</LatitudeDegrees>
              <LongitudeDegrees>-2.30135218240320682525634765625</LongitudeDegrees>
            </Position>
            <AltitudeMeters>167</AltitudeMeters>
            <DistanceMeters>NAN</DistanceMeters>
          </Trackpoint>
          <Trackpoint>
            <Time>2022-07-10T15:09:35.000Z</Time>
            <Position>
              <LatitudeDegrees>43.27961705625057220458984375</LatitudeDegrees>
              <LongitudeDegrees>-2.30141219682991504669189453125</LongitudeDegrees>
            </Position>
            <AltitudeMeters>167.1999969482421875</AltitudeMeters>
            <DistanceMeters>NAN</DistanceMeters>
          </Trackpoint>
          <Trackpoint>
            <Time>2022-07-10T15:09:37.000Z</Time>
            <Position>
              <LatitudeDegrees>43.2796244323253631591796875</LatitudeDegrees>
              <LongitudeDegrees>-2.3015108518302440643310546875</LongitudeDegrees>
            </Position>
            <AltitudeMeters>167.399993896484375</AltitudeMeters>
            <DistanceMeters>NAN</DistanceMeters>
          </Trackpoint>
          <Trackpoint>
            <Time>2022-07-10T15:09:38.000Z</Time>
            <Position>
              <LatitudeDegrees>43.27962971292436122894287109375</LatitudeDegrees>
              <LongitudeDegrees>-2.30154060758650302886962890625</LongitudeDegrees>
            </Position>
            <AltitudeMeters>167.399993896484375</AltitudeMeters>
            <DistanceMeters>NAN</DistanceMeters>
          </Trackpoint>
          <Trackpoint>
            <Time>2022-07-10T15:09:39.000Z</Time>
            <Position>
              <LatitudeDegrees>43.2796359993517398834228515625</LatitudeDegrees>
              <LongitudeDegrees>-2.3015715368092060089111328125</LongitudeDegrees>
            </Position>
            <AltitudeMeters>167.399993896484375</AltitudeMeters>
            <DistanceMeters>NAN</DistanceMeters>
          </Trackpoint>
          <Trackpoint>
            <Time>2022-07-10T15:09:40.000Z</Time>
            <Position>
              <LatitudeDegrees>43.27963717281818389892578125</LatitudeDegrees>
              <LongitudeDegrees>-2.3016048967838287353515625</LongitudeDegrees>
            </Position>
            <AltitudeMeters>167.399993896484375</AltitudeMeters>
            <DistanceMeters>NAN</DistanceMeters>
          </Trackpoint>
          <Trackpoint>
            <Time>2022-07-10T15:09:42.000Z</Time>
            <Position>
              <LatitudeDegrees>43.27965066768229007720947265625</LatitudeDegrees>
              <LongitudeDegrees>-2.30166382156312465667724609375</LongitudeDegrees>
            </Position>
            <AltitudeMeters>167.600006103515625</AltitudeMeters>
            <DistanceMeters>NAN</DistanceMeters>
          </Trackpoint>
          <Trackpoint>
            <Time>2022-07-10T15:09:46.000Z</Time>
            <Position>
              <LatitudeDegrees>43.27966793440282344818115234375</LatitudeDegrees>
              <LongitudeDegrees>-2.30179038830101490020751953125</LongitudeDegrees>
            </Position>
            <AltitudeMeters>167.8000030517578125</AltitudeMeters>
            <DistanceMeters>NAN</DistanceMeters>
          </Trackpoint>
          <Trackpoint>
            <Time>2022-07-10T15:09:47.000Z</Time>
            <Position>
              <LatitudeDegrees>43.27966910786926746368408203125</LatitudeDegrees>
              <LongitudeDegrees>-2.30182643048465251922607421875</LongitudeDegrees>
            </Position>
            <AltitudeMeters>167.8000030517578125</AltitudeMeters>
            <DistanceMeters>NAN</DistanceMeters>
          </Trackpoint>
          <Trackpoint>
            <Time>2022-07-10T15:09:52.000Z</Time>
            <Position>
              <LatitudeDegrees>43.2797043956816196441650390625</LatitudeDegrees>
              <LongitudeDegrees>-2.30198451317846775054931640625</LongitudeDegrees>
            </Position>
            <AltitudeMeters>168.1999969482421875</AltitudeMeters>
            <DistanceMeters>NAN</DistanceMeters>
          </Trackpoint>
          <Trackpoint>
            <Time>2022-07-10T15:10:02.000Z</Time>
            <Position>
              <LatitudeDegrees>43.279775641858577728271484375</LatitudeDegrees>
              <LongitudeDegrees>-2.3023171909153461456298828125</LongitudeDegrees>
            </Position>
            <AltitudeMeters>168.8000030517578125</AltitudeMeters>
            <DistanceMeters>NAN</DistanceMeters>
          </Trackpoint>
          <Trackpoint>
            <Time>2022-07-10T15:10:03.000Z</Time>
            <Position>
              <LatitudeDegrees>43.279785700142383575439453125</LatitudeDegrees>
              <LongitudeDegrees>-2.30234988033771514892578125</LongitudeDegrees>
            </Position>
            <AltitudeMeters>168.8000030517578125</AltitudeMeters>
            <DistanceMeters>NAN</DistanceMeters>
          </Trackpoint>
          <Trackpoint>
            <Time>2022-07-10T15:10:11.000Z</Time>
            <Position>
              <LatitudeDegrees>43.279876224696636199951171875</LatitudeDegrees>
              <LongitudeDegrees>-2.3025790415704250335693359375</LongitudeDegrees>
            </Position>
            <AltitudeMeters>169.1999969482421875</AltitudeMeters>
            <DistanceMeters>NAN</DistanceMeters>
          </Trackpoint>
          <Trackpoint>
            <Time>2022-07-10T15:10:17.000Z</Time>
            <Position>
              <LatitudeDegrees>43.279933892190456390380859375</LatitudeDegrees>
              <LongitudeDegrees>-2.30274676345288753509521484375</LongitudeDegrees>
            </Position>
            <AltitudeMeters>169.8000030517578125</AltitudeMeters>
            <DistanceMeters>NAN</DistanceMeters>
          </Trackpoint>
          <Trackpoint>
            <Time>2022-07-10T15:10:18.000Z</Time>
            <Position>
              <LatitudeDegrees>43.27994286082684993743896484375</LatitudeDegrees>
              <LongitudeDegrees>-2.302774675190448760986328125</LongitudeDegrees>
            </Position>
            <AltitudeMeters>170</AltitudeMeters>
            <DistanceMeters>NAN</DistanceMeters>
          </Trackpoint>
          <Trackpoint>
            <Time>2022-07-10T15:10:21.000Z</Time>
            <Position>
              <LatitudeDegrees>43.27997487969696521759033203125</LatitudeDegrees>
              <LongitudeDegrees>-2.30285287834703922271728515625</LongitudeDegrees>
            </Position>
            <AltitudeMeters>170.1999969482421875</AltitudeMeters>
            <DistanceMeters>NAN</DistanceMeters>
          </Trackpoint>
          <Trackpoint>
            <Time>2022-07-10T15:10:27.000Z</Time>
            <Position>
              <LatitudeDegrees>43.2800299488008022308349609375</LatitudeDegrees>
              <LongitudeDegrees>-2.30301230214536190032958984375</LongitudeDegrees>
            </Position>
            <AltitudeMeters>170.600006103515625</AltitudeMeters>
            <DistanceMeters>NAN</DistanceMeters>
          </Trackpoint>
          <Trackpoint>
            <Time>2022-07-10T15:10:31.000Z</Time>
            <Position>
              <LatitudeDegrees>43.28005836345255374908447265625</LatitudeDegrees>
              <LongitudeDegrees>-2.303128726780414581298828125</LongitudeDegrees>
            </Position>
            <AltitudeMeters>170.8000030517578125</AltitudeMeters>
            <DistanceMeters>NAN</DistanceMeters>
          </Trackpoint>
          <Trackpoint>
            <Time>2022-07-10T15:10:35.000Z</Time>
            <Position>
              <LatitudeDegrees>43.28009675256907939910888671875</LatitudeDegrees>
              <LongitudeDegrees>-2.3032388649880886077880859375</LongitudeDegrees>
            </Position>
            <AltitudeMeters>171.1999969482421875</AltitudeMeters>
            <DistanceMeters>NAN</DistanceMeters>
          </Trackpoint>
          <Trackpoint>
            <Time>2022-07-10T15:10:45.000Z</Time>
            <Position>
              <LatitudeDegrees>43.2802063040435314178466796875</LatitudeDegrees>
              <LongitudeDegrees>-2.30349878780543804168701171875</LongitudeDegrees>
            </Position>
            <AltitudeMeters>171.8000030517578125</AltitudeMeters>
            <DistanceMeters>NAN</DistanceMeters>
          </Trackpoint>
          <Trackpoint>
            <Time>2022-07-10T15:10:53.000Z</Time>
            <Position>
              <LatitudeDegrees>43.28028031624853610992431640625</LatitudeDegrees>
              <LongitudeDegrees>-2.30371906422078609466552734375</LongitudeDegrees>
            </Position>
            <AltitudeMeters>172.399993896484375</AltitudeMeters>
            <DistanceMeters>NAN</DistanceMeters>
          </Trackpoint>
          <Trackpoint>
            <Time>2022-07-10T15:11:00.000Z</Time>
            <Position>
              <LatitudeDegrees>43.2803357206284999847412109375</LatitudeDegrees>
              <LongitudeDegrees>-2.3039008677005767822265625</LongitudeDegrees>
            </Position>
            <AltitudeMeters>173</AltitudeMeters>
            <DistanceMeters>NAN</DistanceMeters>
          </Trackpoint>
          <Trackpoint>
            <Time>2022-07-10T15:11:01.000Z</Time>
            <Position>
              <LatitudeDegrees>43.2803432643413543701171875</LatitudeDegrees>
              <LongitudeDegrees>-2.3039275221526622772216796875</LongitudeDegrees>
            </Position>
            <AltitudeMeters>173</AltitudeMeters>
            <DistanceMeters>NAN</DistanceMeters>
          </Trackpoint>
          <Trackpoint>
            <Time>2022-07-10T15:11:10.000Z</Time>
            <Position>
              <LatitudeDegrees>43.2804242335259914398193359375</LatitudeDegrees>
              <LongitudeDegrees>-2.304138243198394775390625</LongitudeDegrees>
            </Position>
            <AltitudeMeters>173.399993896484375</AltitudeMeters>
            <DistanceMeters>NAN</DistanceMeters>
          </Trackpoint>
          <Trackpoint>
            <Time>2022-07-10T15:11:19.000Z</Time>
            <Position>
              <LatitudeDegrees>43.280488438904285430908203125</LatitudeDegrees>
              <LongitudeDegrees>-2.30439129285514354705810546875</LongitudeDegrees>
            </Position>
            <AltitudeMeters>173.8000030517578125</AltitudeMeters>
            <DistanceMeters>NAN</DistanceMeters>
          </Trackpoint>
          <Trackpoint>
            <Time>2022-07-10T15:11:22.000Z</Time>
            <Position>
              <LatitudeDegrees>43.28051517717540264129638671875</LatitudeDegrees>
              <LongitudeDegrees>-2.304469831287860870361328125</LongitudeDegrees>
            </Position>
            <AltitudeMeters>174</AltitudeMeters>
            <DistanceMeters>NAN</DistanceMeters>
          </Trackpoint>
          <Trackpoint>
            <Time>2022-07-10T15:11:26.000Z</Time>
            <Position>
              <LatitudeDegrees>43.2805466093122959136962890625</LatitudeDegrees>
              <LongitudeDegrees>-2.30456982739269733428955078125</LongitudeDegrees>
            </Position>
            <AltitudeMeters>174.1999969482421875</AltitudeMeters>
            <DistanceMeters>NAN</DistanceMeters>
          </Trackpoint>
          <Trackpoint>
            <Time>2022-07-10T15:11:29.000Z</Time>
            <Position>
              <LatitudeDegrees>43.28057460486888885498046875</LatitudeDegrees>
              <LongitudeDegrees>-2.30464492924511432647705078125</LongitudeDegrees>
            </Position>
            <AltitudeMeters>174.399993896484375</AltitudeMeters>
            <DistanceMeters>NAN</DistanceMeters>
          </Trackpoint>
          <Trackpoint>
            <Time>2022-07-10T15:11:36.000Z</Time>
            <Position>
              <LatitudeDegrees>43.28063361346721649169921875</LatitudeDegrees>
              <LongitudeDegrees>-2.30482765473425388336181640625</LongitudeDegrees>
            </Position>
            <AltitudeMeters>175</AltitudeMeters>
            <DistanceMeters>NAN</DistanceMeters>
          </Trackpoint>
          <Trackpoint>
            <Time>2022-07-10T15:11:37.000Z</Time>
            <Position>
              <LatitudeDegrees>43.28064107336103916168212890625</LatitudeDegrees>
              <LongitudeDegrees>-2.304856739938259124755859375</LongitudeDegrees>
            </Position>
            <AltitudeMeters>175.1999969482421875</AltitudeMeters>
            <DistanceMeters>NAN</DistanceMeters>
          </Trackpoint>
          <Trackpoint>
            <Time>2022-07-10T15:11:42.000Z</Time>
            <Position>
              <LatitudeDegrees>43.28067719936370849609375</LatitudeDegrees>
              <LongitudeDegrees>-2.30499546043574810028076171875</LongitudeDegrees>
            </Position>
            <AltitudeMeters>175.399993896484375</AltitudeMeters>
            <DistanceMeters>NAN</DistanceMeters>
          </Trackpoint>
          <Trackpoint>
            <Time>2022-07-10T15:11:45.000Z</Time>
            <Position>
              <LatitudeDegrees>43.280708380043506622314453125</LatitudeDegrees>
              <LongitudeDegrees>-2.305071316659450531005859375</LongitudeDegrees>
            </Position>
            <AltitudeMeters>175.600006103515625</AltitudeMeters>
            <DistanceMeters>NAN</DistanceMeters>
          </Trackpoint>
          <Trackpoint>
            <Time>2022-07-10T15:11:49.000Z</Time>
            <Position>
              <LatitudeDegrees>43.280754983425140380859375</LatitudeDegrees>
              <LongitudeDegrees>-2.30516309849917888641357421875</LongitudeDegrees>
            </Position>
            <AltitudeMeters>175.8000030517578125</AltitudeMeters>
            <DistanceMeters>NAN</DistanceMeters>
          </Trackpoint>
          <Trackpoint>
            <Time>2022-07-10T15:11:52.000Z</Time>
            <Position>
              <LatitudeDegrees>43.2807990722358226776123046875</LatitudeDegrees>
              <LongitudeDegrees>-2.305254042148590087890625</LongitudeDegrees>
            </Position>
            <AltitudeMeters>176</AltitudeMeters>
            <DistanceMeters>NAN</DistanceMeters>
          </Trackpoint>
          <Trackpoint>
            <Time>2022-07-10T15:11:54.000Z</Time>
            <Position>
              <LatitudeDegrees>43.28081893734633922576904296875</LatitudeDegrees>
              <LongitudeDegrees>-2.30530777014791965484619140625</LongitudeDegrees>
            </Position>
            <AltitudeMeters>176.1999969482421875</AltitudeMeters>
            <DistanceMeters>NAN</DistanceMeters>
          </Trackpoint>
          <Trackpoint>
            <Time>2022-07-10T15:12:00.000Z</Time>
            <Position>
              <LatitudeDegrees>43.28088750131428241729736328125</LatitudeDegrees>
              <LongitudeDegrees>-2.30544707737863063812255859375</LongitudeDegrees>
            </Position>
            <AltitudeMeters>176.600006103515625</AltitudeMeters>
            <DistanceMeters>NAN</DistanceMeters>
          </Trackpoint>
          <Trackpoint>
            <Time>2022-07-10T15:12:07.000Z</Time>
            <Position>
              <LatitudeDegrees>43.28092597424983978271484375</LatitudeDegrees>
              <LongitudeDegrees>-2.30564103461802005767822265625</LongitudeDegrees>
            </Position>
            <AltitudeMeters>177</AltitudeMeters>
            <DistanceMeters>NAN</DistanceMeters>
          </Trackpoint>
          <Trackpoint>
            <Time>2022-07-10T15:12:08.000Z</Time>
            <Position>
              <LatitudeDegrees>43.28093410469591617584228515625</LatitudeDegrees>
              <LongitudeDegrees>-2.3056679405272006988525390625</LongitudeDegrees>
            </Position>
            <AltitudeMeters>177</AltitudeMeters>
            <DistanceMeters>NAN</DistanceMeters>
          </Trackpoint>
          <Trackpoint>
            <Time>2022-07-10T15:12:15.000Z</Time>
            <Position>
              <LatitudeDegrees>43.28099864535033702850341796875</LatitudeDegrees>
              <LongitudeDegrees>-2.3058526776731014251708984375</LongitudeDegrees>
            </Position>
            <AltitudeMeters>177.600006103515625</AltitudeMeters>
            <DistanceMeters>NAN</DistanceMeters>
          </Trackpoint>
          <Trackpoint>
            <Time>2022-07-10T15:12:23.000Z</Time>
            <Position>
              <LatitudeDegrees>43.2810688018798828125</LatitudeDegrees>
              <LongitudeDegrees>-2.306094579398632049560546875</LongitudeDegrees>
            </Position>
            <AltitudeMeters>177.8000030517578125</AltitudeMeters>
            <DistanceMeters>NAN</DistanceMeters>
          </Trackpoint>
          <Trackpoint>
            <Time>2022-07-10T15:12:29.000Z</Time>
            <Position>
              <LatitudeDegrees>43.28111968003213405609130859375</LatitudeDegrees>
              <LongitudeDegrees>-2.30624377727508544921875</LongitudeDegrees>
            </Position>
            <AltitudeMeters>178</AltitudeMeters>
            <DistanceMeters>NAN</DistanceMeters>
          </Trackpoint>
          <Trackpoint>
            <Time>2022-07-10T15:12:30.000Z</Time>
            <Position>
              <LatitudeDegrees>43.28113074414432048797607421875</LatitudeDegrees>
              <LongitudeDegrees>-2.30626246891915798187255859375</LongitudeDegrees>
            </Position>
            <AltitudeMeters>178.1999969482421875</AltitudeMeters>
            <DistanceMeters>NAN</DistanceMeters>
          </Trackpoint>
          <Trackpoint>
            <Time>2022-07-10T15:12:34.000Z</Time>
            <Position>
              <LatitudeDegrees>43.28116863034665584564208984375</LatitudeDegrees>
              <LongitudeDegrees>-2.30635668151080608367919921875</LongitudeDegrees>
            </Position>
            <AltitudeMeters>178.399993896484375</AltitudeMeters>
            <DistanceMeters>NAN</DistanceMeters>
          </Trackpoint>
          <Trackpoint>
            <Time>2022-07-10T15:12:41.000Z</Time>
            <Position>
              <LatitudeDegrees>43.28122730366885662078857421875</LatitudeDegrees>
              <LongitudeDegrees>-2.306567318737506866455078125</LongitudeDegrees>
            </Position>
            <AltitudeMeters>178.8000030517578125</AltitudeMeters>
            <DistanceMeters>NAN</DistanceMeters>
          </Trackpoint>
          <Trackpoint>
            <Time>2022-07-10T15:12:46.000Z</Time>
            <Position>
              <LatitudeDegrees>43.28128631226718425750732421875</LatitudeDegrees>
              <LongitudeDegrees>-2.30671173892915248870849609375</LongitudeDegrees>
            </Position>
            <AltitudeMeters>178.8000030517578125</AltitudeMeters>
            <DistanceMeters>NAN</DistanceMeters>
          </Trackpoint>
          <Trackpoint>
            <Time>2022-07-10T15:12:49.000Z</Time>
            <Position>
              <LatitudeDegrees>43.2813150621950626373291015625</LatitudeDegrees>
              <LongitudeDegrees>-2.30679740197956562042236328125</LongitudeDegrees>
            </Position>
            <AltitudeMeters>179</AltitudeMeters>
            <DistanceMeters>NAN</DistanceMeters>
          </Trackpoint>
          <Trackpoint>
            <Time>2022-07-10T15:12:54.000Z</Time>
            <Position>
              <LatitudeDegrees>43.2813556306064128875732421875</LatitudeDegrees>
              <LongitudeDegrees>-2.306920699775218963623046875</LongitudeDegrees>
            </Position>
            <AltitudeMeters>179.1999969482421875</AltitudeMeters>
            <DistanceMeters>NAN</DistanceMeters>
          </Trackpoint>
          <Trackpoint>
            <Time>2022-07-10T15:12:56.000Z</Time>
            <Position>
              <LatitudeDegrees>43.28137197531759738922119140625</LatitudeDegrees>
              <LongitudeDegrees>-2.3069694824516773223876953125</LongitudeDegrees>
            </Position>
            <AltitudeMeters>179.399993896484375</AltitudeMeters>
            <DistanceMeters>NAN</DistanceMeters>
          </Trackpoint>
          <Trackpoint>
            <Time>2022-07-10T15:13:04.000Z</Time>
            <Position>
              <LatitudeDegrees>43.2814615778625011444091796875</LatitudeDegrees>
              <LongitudeDegrees>-2.3071704804897308349609375</LongitudeDegrees>
            </Position>
            <AltitudeMeters>179.8000030517578125</AltitudeMeters>
            <DistanceMeters>NAN</DistanceMeters>
          </Trackpoint>
          <Trackpoint>
            <Time>2022-07-10T15:13:12.000Z</Time>
            <Position>
              <LatitudeDegrees>43.28157314099371433258056640625</LatitudeDegrees>
              <LongitudeDegrees>-2.30739536695182323455810546875</LongitudeDegrees>
            </Position>
            <AltitudeMeters>180.1999969482421875</AltitudeMeters>
            <DistanceMeters>NAN</DistanceMeters>
          </Trackpoint>
          <Trackpoint>
            <Time>2022-07-10T15:13:15.000Z</Time>
            <Position>
              <LatitudeDegrees>43.28161932528018951416015625</LatitudeDegrees>
              <LongitudeDegrees>-2.30746778659522533416748046875</LongitudeDegrees>
            </Position>
            <AltitudeMeters>180.1999969482421875</AltitudeMeters>
            <DistanceMeters>NAN</DistanceMeters>
          </Trackpoint>
          <Trackpoint>
            <Time>2022-07-10T15:13:21.000Z</Time>
            <Position>
              <LatitudeDegrees>43.281715214252471923828125</LatitudeDegrees>
              <LongitudeDegrees>-2.3076085187494754791259765625</LongitudeDegrees>
            </Position>
            <AltitudeMeters>180.600006103515625</AltitudeMeters>
            <DistanceMeters>NAN</DistanceMeters>
          </Trackpoint>
          <Trackpoint>
            <Time>2022-07-10T15:13:29.000Z</Time>
            <Position>
              <LatitudeDegrees>43.28188058920204639434814453125</LatitudeDegrees>
              <LongitudeDegrees>-2.30776148848235607147216796875</LongitudeDegrees>
            </Position>
            <AltitudeMeters>181</AltitudeMeters>
            <DistanceMeters>NAN</DistanceMeters>
          </Trackpoint>
          <Trackpoint>
            <Time>2022-07-10T15:13:39.000Z</Time>
            <Position>
              <LatitudeDegrees>43.28205920755863189697265625</LatitudeDegrees>
              <LongitudeDegrees>-2.3079629056155681610107421875</LongitudeDegrees>
            </Position>
            <AltitudeMeters>181.1999969482421875</AltitudeMeters>
            <DistanceMeters>NAN</DistanceMeters>
          </Trackpoint>
          <Trackpoint>
            <Time>2022-07-10T15:13:43.000Z</Time>
            <Position>
              <LatitudeDegrees>43.28212835825979709625244140625</LatitudeDegrees>
              <LongitudeDegrees>-2.30803792364895343780517578125</LongitudeDegrees>
            </Position>
            <AltitudeMeters>181.1999969482421875</AltitudeMeters>
            <DistanceMeters>NAN</DistanceMeters>
          </Trackpoint>
          <Trackpoint>
            <Time>2022-07-10T15:13:46.000Z</Time>
            <Position>
              <LatitudeDegrees>43.28218770213425159454345703125</LatitudeDegrees>
              <LongitudeDegrees>-2.3080832697451114654541015625</LongitudeDegrees>
            </Position>
            <AltitudeMeters>181.399993896484375</AltitudeMeters>
            <DistanceMeters>NAN</DistanceMeters>
          </Trackpoint>
          <Trackpoint>
            <Time>2022-07-10T15:13:48.000Z</Time>
            <Position>
              <LatitudeDegrees>43.2822353951632976531982421875</LatitudeDegrees>
              <LongitudeDegrees>-2.308113612234592437744140625</LongitudeDegrees>
            </Position>
            <AltitudeMeters>181.600006103515625</AltitudeMeters>
            <DistanceMeters>NAN</DistanceMeters>
          </Trackpoint>
          <Trackpoint>
            <Time>2022-07-10T15:13:58.000Z</Time>
            <Position>
              <LatitudeDegrees>43.28244117088615894317626953125</LatitudeDegrees>
              <LongitudeDegrees>-2.308265827596187591552734375</LongitudeDegrees>
            </Position>
            <AltitudeMeters>181.8000030517578125</AltitudeMeters>
            <DistanceMeters>NAN</DistanceMeters>
          </Trackpoint>
          <Trackpoint>
            <Time>2022-07-10T15:14:07.000Z</Time>
            <Position>
              <LatitudeDegrees>43.2826125808060169219970703125</LatitudeDegrees>
              <LongitudeDegrees>-2.30842298828065395355224609375</LongitudeDegrees>
            </Position>
            <AltitudeMeters>182.1999969482421875</AltitudeMeters>
            <DistanceMeters>NAN</DistanceMeters>
          </Trackpoint>
          <Trackpoint>
            <Time>2022-07-10T15:14:14.000Z</Time>
            <Position>
              <LatitudeDegrees>43.2827550731599330902099609375</LatitudeDegrees>
              <LongitudeDegrees>-2.3085345514118671417236328125</LongitudeDegrees>
            </Position>
            <AltitudeMeters>182.1999969482421875</AltitudeMeters>
            <DistanceMeters>NAN</DistanceMeters>
          </Trackpoint>
          <Trackpoint>
            <Time>2022-07-10T15:14:18.000Z</Time>
            <Position>
              <LatitudeDegrees>43.28282992355525493621826171875</LatitudeDegrees>
              <LongitudeDegrees>-2.3085947334766387939453125</LongitudeDegrees>
            </Position>
            <AltitudeMeters>182.600006103515625</AltitudeMeters>
            <DistanceMeters>NAN</DistanceMeters>
          </Trackpoint>
          <Trackpoint>
            <Time>2022-07-10T15:14:28.000Z</Time>
            <Position>
              <LatitudeDegrees>43.283019103109836578369140625</LatitudeDegrees>
              <LongitudeDegrees>-2.30877301655709743499755859375</LongitudeDegrees>
            </Position>
            <AltitudeMeters>182.8000030517578125</AltitudeMeters>
            <DistanceMeters>NAN</DistanceMeters>
          </Trackpoint>
          <Trackpoint>
            <Time>2022-07-10T15:14:36.000Z</Time>
            <Position>
              <LatitudeDegrees>43.283177353441715240478515625</LatitudeDegrees>
              <LongitudeDegrees>-2.30893713422119617462158203125</LongitudeDegrees>
            </Position>
            <AltitudeMeters>183</AltitudeMeters>
            <DistanceMeters>NAN</DistanceMeters>
          </Trackpoint>
          <Trackpoint>
            <Time>2022-07-10T15:14:40.000Z</Time>
            <Position>
              <LatitudeDegrees>43.28323879279196262359619140625</LatitudeDegrees>
              <LongitudeDegrees>-2.30901055969297885894775390625</LongitudeDegrees>
            </Position>
            <AltitudeMeters>183.399993896484375</AltitudeMeters>
            <DistanceMeters>NAN</DistanceMeters>
          </Trackpoint>
          <Trackpoint>
            <Time>2022-07-10T15:14:44.000Z</Time>
            <Position>
              <LatitudeDegrees>43.28333728015422821044921875</LatitudeDegrees>
              <LongitudeDegrees>-2.30907593853771686553955078125</LongitudeDegrees>
            </Position>
            <AltitudeMeters>183.399993896484375</AltitudeMeters>
            <DistanceMeters>NAN</DistanceMeters>
          </Trackpoint>
          <Trackpoint>
            <Time>2022-07-10T15:14:50.000Z</Time>
            <Position>
              <LatitudeDegrees>43.28346627764403820037841796875</LatitudeDegrees>
              <LongitudeDegrees>-2.30918104760348796844482421875</LongitudeDegrees>
            </Position>
            <AltitudeMeters>183.8000030517578125</AltitudeMeters>
            <DistanceMeters>NAN</DistanceMeters>
          </Trackpoint>
          <Trackpoint>
            <Time>2022-07-10T15:14:59.000Z</Time>
            <Position>
              <LatitudeDegrees>43.28368722461163997650146484375</LatitudeDegrees>
              <LongitudeDegrees>-2.30938456021249294281005859375</LongitudeDegrees>
            </Position>
            <AltitudeMeters>184</AltitudeMeters>
            <DistanceMeters>NAN</DistanceMeters>
          </Trackpoint>
          <Trackpoint>
            <Time>2022-07-10T15:15:06.000Z</Time>
            <Position>
              <LatitudeDegrees>43.2838718779385089874267578125</LatitudeDegrees>
              <LongitudeDegrees>-2.3096238635480403900146484375</LongitudeDegrees>
            </Position>
            <AltitudeMeters>184.1999969482421875</AltitudeMeters>
            <DistanceMeters>NAN</DistanceMeters>
          </Trackpoint>
          <Trackpoint>
            <Time>2022-07-10T15:15:11.000Z</Time>
            <Position>
              <LatitudeDegrees>43.2840205729007720947265625</LatitudeDegrees>
              <LongitudeDegrees>-2.3098622448742389678955078125</LongitudeDegrees>
            </Position>
            <AltitudeMeters>183.600006103515625</AltitudeMeters>
            <DistanceMeters>NAN</DistanceMeters>
          </Trackpoint>
          <Trackpoint>
            <Time>2022-07-10T15:15:15.000Z</Time>
            <Position>
              <LatitudeDegrees>43.28411034308373928070068359375</LatitudeDegrees>
              <LongitudeDegrees>-2.31011747382581233978271484375</LongitudeDegrees>
            </Position>
            <AltitudeMeters>183.1999969482421875</AltitudeMeters>
            <DistanceMeters>NAN</DistanceMeters>
          </Trackpoint>
          <Trackpoint>
            <Time>2022-07-10T15:15:17.000Z</Time>
            <Position>
              <LatitudeDegrees>43.28415879048407077789306640625</LatitudeDegrees>
              <LongitudeDegrees>-2.31025745160877704620361328125</LongitudeDegrees>
            </Position>
            <AltitudeMeters>182.8000030517578125</AltitudeMeters>
            <DistanceMeters>NAN</DistanceMeters>
          </Trackpoint>
          <Trackpoint>
            <Time>2022-07-10T15:15:21.000Z</Time>
            <Position>
              <LatitudeDegrees>43.28424277715384960174560546875</LatitudeDegrees>
              <LongitudeDegrees>-2.310565821826457977294921875</LongitudeDegrees>
            </Position>
            <AltitudeMeters>182</AltitudeMeters>
            <DistanceMeters>NAN</DistanceMeters>
          </Trackpoint>
          <Trackpoint>
            <Time>2022-07-10T15:15:24.000Z</Time>
            <Position>
              <LatitudeDegrees>43.2843060605227947235107421875</LatitudeDegrees>
              <LongitudeDegrees>-2.31080244295299053192138671875</LongitudeDegrees>
            </Position>
            <AltitudeMeters>181.600006103515625</AltitudeMeters>
            <DistanceMeters>NAN</DistanceMeters>
          </Trackpoint>
          <Trackpoint>
            <Time>2022-07-10T15:15:26.000Z</Time>
            <Position>
              <LatitudeDegrees>43.28433413989841938018798828125</LatitudeDegrees>
              <LongitudeDegrees>-2.31096035800874233245849609375</LongitudeDegrees>
            </Position>
            <AltitudeMeters>181.399993896484375</AltitudeMeters>
            <DistanceMeters>NAN</DistanceMeters>
          </Trackpoint>
          <Trackpoint>
            <Time>2022-07-10T15:15:29.000Z</Time>
            <Position>
              <LatitudeDegrees>43.28434101305902004241943359375</LatitudeDegrees>
              <LongitudeDegrees>-2.31118750758469104766845703125</LongitudeDegrees>
            </Position>
            <AltitudeMeters>181.1999969482421875</AltitudeMeters>
            <DistanceMeters>NAN</DistanceMeters>
          </Trackpoint>
          <Trackpoint>
            <Time>2022-07-10T15:15:30.000Z</Time>
            <Position>
              <LatitudeDegrees>43.28433732502162456512451171875</LatitudeDegrees>
              <LongitudeDegrees>-2.31125422753393650054931640625</LongitudeDegrees>
            </Position>
            <AltitudeMeters>181</AltitudeMeters>
            <DistanceMeters>NAN</DistanceMeters>
          </Trackpoint>
          <Trackpoint>
            <Time>2022-07-10T15:15:32.000Z</Time>
            <Position>
              <LatitudeDegrees>43.2843104191124439239501953125</LatitudeDegrees>
              <LongitudeDegrees>-2.31138666160404682159423828125</LongitudeDegrees>
            </Position>
            <AltitudeMeters>181</AltitudeMeters>
            <DistanceMeters>NAN</DistanceMeters>
          </Trackpoint>
          <Trackpoint>
            <Time>2022-07-10T15:15:34.000Z</Time>
            <Position>
              <LatitudeDegrees>43.2842753827571868896484375</LatitudeDegrees>
              <LongitudeDegrees>-2.3115094564855098724365234375</LongitudeDegrees>
            </Position>
            <AltitudeMeters>181</AltitudeMeters>
            <DistanceMeters>NAN</DistanceMeters>
          </Trackpoint>
          <Trackpoint>
            <Time>2022-07-10T15:15:38.000Z</Time>
            <Position>
              <LatitudeDegrees>43.2841692678630352020263671875</LatitudeDegrees>
              <LongitudeDegrees>-2.31172227300703525543212890625</LongitudeDegrees>
            </Position>
            <AltitudeMeters>181</AltitudeMeters>
            <DistanceMeters>NAN</DistanceMeters>
          </Trackpoint>
          <Trackpoint>
            <Time>2022-07-10T15:15:39.000Z</Time>
            <Position>
              <LatitudeDegrees>43.2841327227652072906494140625</LatitudeDegrees>
              <LongitudeDegrees>-2.3117679543793201446533203125</LongitudeDegrees>
            </Position>
            <AltitudeMeters>181.1999969482421875</AltitudeMeters>
            <DistanceMeters>NAN</DistanceMeters>
          </Trackpoint>
          <Trackpoint>
            <Time>2022-07-10T15:15:43.000Z</Time>
            <Position>
              <LatitudeDegrees>43.28397908248007297515869140625</LatitudeDegrees>
              <LongitudeDegrees>-2.311919666826725006103515625</LongitudeDegrees>
            </Position>
            <AltitudeMeters>181</AltitudeMeters>
            <DistanceMeters>NAN</DistanceMeters>
          </Trackpoint>
          <Trackpoint>
            <Time>2022-07-10T15:15:45.000Z</Time>
            <Position>
              <LatitudeDegrees>43.28389383852481842041015625</LatitudeDegrees>
              <LongitudeDegrees>-2.311974652111530303955078125</LongitudeDegrees>
            </Position>
            <AltitudeMeters>181</AltitudeMeters>
            <DistanceMeters>NAN</DistanceMeters>
          </Trackpoint>
          <Trackpoint>
            <Time>2022-07-10T15:15:48.000Z</Time>
            <Position>
              <LatitudeDegrees>43.283760063350200653076171875</LatitudeDegrees>
              <LongitudeDegrees>-2.312028966844081878662109375</LongitudeDegrees>
            </Position>
            <AltitudeMeters>180.8000030517578125</AltitudeMeters>
            <DistanceMeters>NAN</DistanceMeters>
          </Trackpoint>
          <Trackpoint>
            <Time>2022-07-10T15:15:51.000Z</Time>
            <Position>
              <LatitudeDegrees>43.2836197502911090850830078125</LatitudeDegrees>
              <LongitudeDegrees>-2.3120472393929958343505859375</LongitudeDegrees>
            </Position>
            <AltitudeMeters>180.8000030517578125</AltitudeMeters>
            <DistanceMeters>NAN</DistanceMeters>
          </Trackpoint>
          <Trackpoint>
            <Time>2022-07-10T15:15:56.000Z</Time>
            <Position>
              <LatitudeDegrees>43.2833696343004703521728515625</LatitudeDegrees>
              <LongitudeDegrees>-2.31197758577764034271240234375</LongitudeDegrees>
            </Position>
            <AltitudeMeters>180.399993896484375</AltitudeMeters>
            <DistanceMeters>NAN</DistanceMeters>
          </Trackpoint>
          <Trackpoint>
            <Time>2022-07-10T15:15:57.000Z</Time>
            <Position>
              <LatitudeDegrees>43.28331892378628253936767578125</LatitudeDegrees>
              <LongitudeDegrees>-2.31195495463907718658447265625</LongitudeDegrees>
            </Position>
            <AltitudeMeters>180.399993896484375</AltitudeMeters>
            <DistanceMeters>NAN</DistanceMeters>
          </Trackpoint>
          <Trackpoint>
            <Time>2022-07-10T15:16:00.000Z</Time>
            <Position>
              <LatitudeDegrees>43.2831503637135028839111328125</LatitudeDegrees>
              <LongitudeDegrees>-2.31189250946044921875</LongitudeDegrees>
            </Position>
            <AltitudeMeters>180.399993896484375</AltitudeMeters>
            <DistanceMeters>NAN</DistanceMeters>
          </Trackpoint>
          <Trackpoint>
            <Time>2022-07-10T15:16:03.000Z</Time>
            <Position>
              <LatitudeDegrees>43.282983563840389251708984375</LatitudeDegrees>
              <LongitudeDegrees>-2.31182704679667949676513671875</LongitudeDegrees>
            </Position>
            <AltitudeMeters>180.399993896484375</AltitudeMeters>
            <DistanceMeters>NAN</DistanceMeters>
          </Trackpoint>
          <Trackpoint>
            <Time>2022-07-10T15:16:06.000Z</Time>
            <Position>
              <LatitudeDegrees>43.2828177697956562042236328125</LatitudeDegrees>
              <LongitudeDegrees>-2.311742641031742095947265625</LongitudeDegrees>
            </Position>
            <AltitudeMeters>180.1999969482421875</AltitudeMeters>
            <DistanceMeters>NAN</DistanceMeters>
          </Trackpoint>
          <Trackpoint>
            <Time>2022-07-10T15:16:08.000Z</Time>
            <Position>
              <LatitudeDegrees>43.28271358273923397064208984375</LatitudeDegrees>
              <LongitudeDegrees>-2.3116739094257354736328125</LongitudeDegrees>
            </Position>
            <AltitudeMeters>180</AltitudeMeters>
            <DistanceMeters>NAN</DistanceMeters>
          </Trackpoint>
          <Trackpoint>
            <Time>2022-07-10T15:16:09.000Z</Time>
            <Position>
              <LatitudeDegrees>43.2826648838818073272705078125</LatitudeDegrees>
              <LongitudeDegrees>-2.311639375984668731689453125</LongitudeDegrees>
            </Position>
            <AltitudeMeters>179.8000030517578125</AltitudeMeters>
            <DistanceMeters>NAN</DistanceMeters>
          </Trackpoint>
          <Trackpoint>
            <Time>2022-07-10T15:16:16.000Z</Time>
            <Position>
              <LatitudeDegrees>43.28230169601738452911376953125</LatitudeDegrees>
              <LongitudeDegrees>-2.31139361858367919921875</LongitudeDegrees>
            </Position>
            <AltitudeMeters>179.8000030517578125</AltitudeMeters>
            <DistanceMeters>NAN</DistanceMeters>
          </Trackpoint>
          <Trackpoint>
            <Time>2022-07-10T15:16:21.000Z</Time>
            <Position>
              <LatitudeDegrees>43.28207152895629405975341796875</LatitudeDegrees>
              <LongitudeDegrees>-2.31122933328151702880859375</LongitudeDegrees>
            </Position>
            <AltitudeMeters>179.8000030517578125</AltitudeMeters>
            <DistanceMeters>NAN</DistanceMeters>
          </Trackpoint>
          <Trackpoint>
            <Time>2022-07-10T15:16:25.000Z</Time>
            <Position>
              <LatitudeDegrees>43.28189383260905742645263671875</LatitudeDegrees>
              <LongitudeDegrees>-2.31113771907985210418701171875</LongitudeDegrees>
            </Position>
            <AltitudeMeters>180</AltitudeMeters>
            <DistanceMeters>NAN</DistanceMeters>
          </Trackpoint>
          <Trackpoint>
            <Time>2022-07-10T15:16:27.000Z</Time>
            <Position>
              <LatitudeDegrees>43.2818173058331012725830078125</LatitudeDegrees>
              <LongitudeDegrees>-2.3110792972147464752197265625</LongitudeDegrees>
            </Position>
            <AltitudeMeters>180</AltitudeMeters>
            <DistanceMeters>NAN</DistanceMeters>
          </Trackpoint>
          <Trackpoint>
            <Time>2022-07-10T15:16:32.000Z</Time>
            <Position>
              <LatitudeDegrees>43.28158588148653507232666015625</LatitudeDegrees>
              <LongitudeDegrees>-2.31091526336967945098876953125</LongitudeDegrees>
            </Position>
            <AltitudeMeters>180</AltitudeMeters>
            <DistanceMeters>NAN</DistanceMeters>
          </Trackpoint>
          <Trackpoint>
            <Time>2022-07-10T15:16:33.000Z</Time>
            <Position>
              <LatitudeDegrees>43.2815299741923809051513671875</LatitudeDegrees>
              <LongitudeDegrees>-2.31088089756667613983154296875</LongitudeDegrees>
            </Position>
            <AltitudeMeters>180</AltitudeMeters>
            <DistanceMeters>NAN</DistanceMeters>
          </Trackpoint>
          <Trackpoint>
            <Time>2022-07-10T15:16:39.000Z</Time>
            <Position>
              <LatitudeDegrees>43.28125781379640102386474609375</LatitudeDegrees>
              <LongitudeDegrees>-2.31071040965616703033447265625</LongitudeDegrees>
            </Position>
            <AltitudeMeters>179.8000030517578125</AltitudeMeters>
            <DistanceMeters>NAN</DistanceMeters>
          </Trackpoint>
          <Trackpoint>
            <Time>2022-07-10T15:16:40.000Z</Time>
            <Position>
              <LatitudeDegrees>43.2812141440808773040771484375</LatitudeDegrees>
              <LongitudeDegrees>-2.31067989952862262725830078125</LongitudeDegrees>
            </Position>
            <AltitudeMeters>179.8000030517578125</AltitudeMeters>
            <DistanceMeters>NAN</DistanceMeters>
          </Trackpoint>
          <Trackpoint>
            <Time>2022-07-10T15:16:45.000Z</Time>
            <Position>
              <LatitudeDegrees>43.28096997924149036407470703125</LatitudeDegrees>
              <LongitudeDegrees>-2.3105532489717006683349609375</LongitudeDegrees>
            </Position>
            <AltitudeMeters>179.600006103515625</AltitudeMeters>
            <DistanceMeters>NAN</DistanceMeters>
          </Trackpoint>
          <Trackpoint>
            <Time>2022-07-10T15:16:49.000Z</Time>
            <Position>
              <LatitudeDegrees>43.28079261817038059234619140625</LatitudeDegrees>
              <LongitudeDegrees>-2.31043917126953601837158203125</LongitudeDegrees>
            </Position>
            <AltitudeMeters>179.399993896484375</AltitudeMeters>
            <DistanceMeters>NAN</DistanceMeters>
          </Trackpoint>
          <Trackpoint>
            <Time>2022-07-10T15:16:52.000Z</Time>
            <Position>
              <LatitudeDegrees>43.28065297566354274749755859375</LatitudeDegrees>
              <LongitudeDegrees>-2.31036675162613391876220703125</LongitudeDegrees>
            </Position>
            <AltitudeMeters>179.1999969482421875</AltitudeMeters>
            <DistanceMeters>NAN</DistanceMeters>
          </Trackpoint>
          <Trackpoint>
            <Time>2022-07-10T15:17:00.000Z</Time>
            <Position>
              <LatitudeDegrees>43.28026187606155872344970703125</LatitudeDegrees>
              <LongitudeDegrees>-2.31013474054634571075439453125</LongitudeDegrees>
            </Position>
            <AltitudeMeters>179.399993896484375</AltitudeMeters>
            <DistanceMeters>NAN</DistanceMeters>
          </Trackpoint>
          <Trackpoint>
            <Time>2022-07-10T15:17:02.000Z</Time>
            <Position>
              <LatitudeDegrees>43.280156515538692474365234375</LatitudeDegrees>
              <LongitudeDegrees>-2.3100972734391689300537109375</LongitudeDegrees>
            </Position>
            <AltitudeMeters>179.1999969482421875</AltitudeMeters>
            <DistanceMeters>NAN</DistanceMeters>
          </Trackpoint>
          <Trackpoint>
            <Time>2022-07-10T15:17:05.000Z</Time>
            <Position>
              <LatitudeDegrees>43.2799883745610713958740234375</LatitudeDegrees>
              <LongitudeDegrees>-2.310067601501941680908203125</LongitudeDegrees>
            </Position>
            <AltitudeMeters>179</AltitudeMeters>
            <DistanceMeters>NAN</DistanceMeters>
          </Trackpoint>
          <Trackpoint>
            <Time>2022-07-10T15:17:06.000Z</Time>
            <Position>
              <LatitudeDegrees>43.279935903847217559814453125</LatitudeDegrees>
              <LongitudeDegrees>-2.31006718240678310394287109375</LongitudeDegrees>
            </Position>
            <AltitudeMeters>179</AltitudeMeters>
            <DistanceMeters>NAN</DistanceMeters>
          </Trackpoint>
          <Trackpoint>
            <Time>2022-07-10T15:17:07.000Z</Time>
            <Position>
              <LatitudeDegrees>43.27987798489630222320556640625</LatitudeDegrees>
              <LongitudeDegrees>-2.310068607330322265625</LongitudeDegrees>
            </Position>
            <AltitudeMeters>178.8000030517578125</AltitudeMeters>
            <DistanceMeters>NAN</DistanceMeters>
          </Trackpoint>
          <Trackpoint>
            <Time>2022-07-10T15:17:11.000Z</Time>
            <Position>
              <LatitudeDegrees>43.2796665094792842864990234375</LatitudeDegrees>
              <LongitudeDegrees>-2.31010037474334239959716796875</LongitudeDegrees>
            </Position>
            <AltitudeMeters>178.8000030517578125</AltitudeMeters>
            <DistanceMeters>NAN</DistanceMeters>
          </Trackpoint>
          <Trackpoint>
            <Time>2022-07-10T15:17:13.000Z</Time>
            <Position>
              <LatitudeDegrees>43.27957757748663425445556640625</LatitudeDegrees>
              <LongitudeDegrees>-2.31011596508324146270751953125</LongitudeDegrees>
            </Position>
            <AltitudeMeters>178.600006103515625</AltitudeMeters>
            <DistanceMeters>NAN</DistanceMeters>
          </Trackpoint>
          <Trackpoint>
            <Time>2022-07-10T15:17:15.000Z</Time>
            <Position>
              <LatitudeDegrees>43.27950834296643733978271484375</LatitudeDegrees>
              <LongitudeDegrees>-2.3101012967526912689208984375</LongitudeDegrees>
            </Position>
            <AltitudeMeters>178.600006103515625</AltitudeMeters>
            <DistanceMeters>NAN</DistanceMeters>
          </Trackpoint>
          <Trackpoint>
            <Time>2022-07-10T15:17:19.000Z</Time>
            <Position>
              <LatitudeDegrees>43.27942083589732646942138671875</LatitudeDegrees>
              <LongitudeDegrees>-2.3100117780268192291259765625</LongitudeDegrees>
            </Position>
            <AltitudeMeters>178.600006103515625</AltitudeMeters>
            <DistanceMeters>NAN</DistanceMeters>
          </Trackpoint>
          <Trackpoint>
            <Time>2022-07-10T15:17:21.000Z</Time>
            <Position>
              <LatitudeDegrees>43.2794071733951568603515625</LatitudeDegrees>
              <LongitudeDegrees>-2.3099829442799091339111328125</LongitudeDegrees>
            </Position>
            <AltitudeMeters>178.8000030517578125</AltitudeMeters>
            <DistanceMeters>NAN</DistanceMeters>
          </Trackpoint>
          <Trackpoint>
            <Time>2022-07-10T15:17:22.000Z</Time>
            <Position>
              <LatitudeDegrees>43.27940742485225200653076171875</LatitudeDegrees>
              <LongitudeDegrees>-2.30997942388057708740234375</LongitudeDegrees>
            </Position>
            <AltitudeMeters>178.8000030517578125</AltitudeMeters>
            <DistanceMeters>NAN</DistanceMeters>
          </Trackpoint>
          <Trackpoint>
            <Time>2022-07-10T15:17:26.000Z</Time>
            <Position>
              <LatitudeDegrees>43.27940725721418857574462890625</LatitudeDegrees>
              <LongitudeDegrees>-2.30999291874468326568603515625</LongitudeDegrees>
            </Position>
            <AltitudeMeters>179</AltitudeMeters>
            <DistanceMeters>NAN</DistanceMeters>
          </Trackpoint>
          <Trackpoint>
            <Time>2022-07-10T15:21:58.000Z</Time>
            <Position>
              <LatitudeDegrees>43.2794435508549213409423828125</LatitudeDegrees>
              <LongitudeDegrees>-2.31008327566087245941162109375</LongitudeDegrees>
            </Position>
            <AltitudeMeters>179</AltitudeMeters>
            <DistanceMeters>NAN</DistanceMeters>
          </Trackpoint>
          <Trackpoint>
            <Time>2022-07-10T15:21:59.000Z</Time>
            <Position>
              <LatitudeDegrees>43.27944681979715824127197265625</LatitudeDegrees>
              <LongitudeDegrees>-2.3100996203720569610595703125</LongitudeDegrees>
            </Position>
            <AltitudeMeters>179.8000030517578125</AltitudeMeters>
            <DistanceMeters>NAN</DistanceMeters>
          </Trackpoint>
          <Trackpoint>
            <Time>2022-07-10T15:22:03.000Z</Time>
            <Position>
              <LatitudeDegrees>43.27943324111402034759521484375</LatitudeDegrees>
              <LongitudeDegrees>-2.3102350719273090362548828125</LongitudeDegrees>
            </Position>
            <AltitudeMeters>180.8000030517578125</AltitudeMeters>
            <DistanceMeters>NAN</DistanceMeters>
          </Trackpoint>
          <Trackpoint>
            <Time>2022-07-10T15:22:04.000Z</Time>
            <Position>
              <LatitudeDegrees>43.2794200815260410308837890625</LatitudeDegrees>
              <LongitudeDegrees>-2.31027622707188129425048828125</LongitudeDegrees>
            </Position>
            <AltitudeMeters>180.8000030517578125</AltitudeMeters>
            <DistanceMeters>NAN</DistanceMeters>
          </Trackpoint>
          <Trackpoint>
            <Time>2022-07-10T15:22:09.000Z</Time>
            <Position>
              <LatitudeDegrees>43.2793003879487514495849609375</LatitudeDegrees>
              <LongitudeDegrees>-2.31047429144382476806640625</LongitudeDegrees>
            </Position>
            <AltitudeMeters>180.600006103515625</AltitudeMeters>
            <DistanceMeters>NAN</DistanceMeters>
          </Trackpoint>
          <Trackpoint>
            <Time>2022-07-10T15:22:14.000Z</Time>
            <Position>
              <LatitudeDegrees>43.27919972129166126251220703125</LatitudeDegrees>
              <LongitudeDegrees>-2.3106863535940647125244140625</LongitudeDegrees>
            </Position>
            <AltitudeMeters>180.399993896484375</AltitudeMeters>
            <DistanceMeters>NAN</DistanceMeters>
          </Trackpoint>
          <Trackpoint>
            <Time>2022-07-10T15:22:17.000Z</Time>
            <Position>
              <LatitudeDegrees>43.279155381023883819580078125</LatitudeDegrees>
              <LongitudeDegrees>-2.31081501580774784088134765625</LongitudeDegrees>
            </Position>
            <AltitudeMeters>180.399993896484375</AltitudeMeters>
            <DistanceMeters>NAN</DistanceMeters>
          </Trackpoint>
          <Trackpoint>
            <Time>2022-07-10T15:22:26.000Z</Time>
            <Position>
              <LatitudeDegrees>43.27904985286295413970947265625</LatitudeDegrees>
              <LongitudeDegrees>-2.3112392239272594451904296875</LongitudeDegrees>
            </Position>
            <AltitudeMeters>181</AltitudeMeters>
            <DistanceMeters>NAN</DistanceMeters>
          </Trackpoint>
          <Trackpoint>
            <Time>2022-07-10T15:22:30.000Z</Time>
            <Position>
              <LatitudeDegrees>43.2790184207260608673095703125</LatitudeDegrees>
              <LongitudeDegrees>-2.311412394046783447265625</LongitudeDegrees>
            </Position>
            <AltitudeMeters>181.1999969482421875</AltitudeMeters>
            <DistanceMeters>NAN</DistanceMeters>
          </Trackpoint>
          <Trackpoint>
            <Time>2022-07-10T15:22:34.000Z</Time>
            <Position>
              <LatitudeDegrees>43.2789983041584491729736328125</LatitudeDegrees>
              <LongitudeDegrees>-2.31156201101839542388916015625</LongitudeDegrees>
            </Position>
            <AltitudeMeters>181</AltitudeMeters>
            <DistanceMeters>NAN</DistanceMeters>
          </Trackpoint>
          <Trackpoint>
            <Time>2022-07-10T15:22:36.000Z</Time>
            <Position>
              <LatitudeDegrees>43.2789865694940090179443359375</LatitudeDegrees>
              <LongitudeDegrees>-2.3116417229175567626953125</LongitudeDegrees>
            </Position>
            <AltitudeMeters>181.399993896484375</AltitudeMeters>
            <DistanceMeters>NAN</DistanceMeters>
          </Trackpoint>
          <Trackpoint>
            <Time>2022-07-10T15:22:42.000Z</Time>
            <Position>
              <LatitudeDegrees>43.27896033413708209991455078125</LatitudeDegrees>
              <LongitudeDegrees>-2.31187968514859676361083984375</LongitudeDegrees>
            </Position>
            <AltitudeMeters>181.399993896484375</AltitudeMeters>
            <DistanceMeters>NAN</DistanceMeters>
          </Trackpoint>
          <Trackpoint>
            <Time>2022-07-10T15:22:46.000Z</Time>
            <Position>
              <LatitudeDegrees>43.278951533138751983642578125</LatitudeDegrees>
              <LongitudeDegrees>-2.31199510395526885986328125</LongitudeDegrees>
            </Position>
            <AltitudeMeters>181.399993896484375</AltitudeMeters>
            <DistanceMeters>NAN</DistanceMeters>
          </Trackpoint>
          <Trackpoint>
            <Time>2022-07-10T15:22:47.000Z</Time>
            <Position>
              <LatitudeDegrees>43.27895027585327625274658203125</LatitudeDegrees>
              <LongitudeDegrees>-2.312066853046417236328125</LongitudeDegrees>
            </Position>
            <AltitudeMeters>181.399993896484375</AltitudeMeters>
            <DistanceMeters>NAN</DistanceMeters>
          </Trackpoint>
          <Trackpoint>
            <Time>2022-07-10T15:22:55.000Z</Time>
            <Position>
              <LatitudeDegrees>43.278981707990169525146484375</LatitudeDegrees>
              <LongitudeDegrees>-2.3123553581535816192626953125</LongitudeDegrees>
            </Position>
            <AltitudeMeters>181.600006103515625</AltitudeMeters>
            <DistanceMeters>NAN</DistanceMeters>
          </Trackpoint>
          <Trackpoint>
            <Time>2022-07-10T15:22:58.000Z</Time>
            <Position>
              <LatitudeDegrees>43.2790023274719715118408203125</LatitudeDegrees>
              <LongitudeDegrees>-2.312463484704494476318359375</LongitudeDegrees>
            </Position>
            <AltitudeMeters>182</AltitudeMeters>
            <DistanceMeters>NAN</DistanceMeters>
          </Trackpoint>
          <Trackpoint>
            <Time>2022-07-10T15:23:03.000Z</Time>
            <Position>
              <LatitudeDegrees>43.279054127633571624755859375</LatitudeDegrees>
              <LongitudeDegrees>-2.312621735036373138427734375</LongitudeDegrees>
            </Position>
            <AltitudeMeters>182.1999969482421875</AltitudeMeters>
            <DistanceMeters>NAN</DistanceMeters>
          </Trackpoint>
          <Trackpoint>
            <Time>2022-07-10T15:23:12.000Z</Time>
            <Position>
              <LatitudeDegrees>43.279182203114032745361328125</LatitudeDegrees>
              <LongitudeDegrees>-2.3128777183592319488525390625</LongitudeDegrees>
            </Position>
            <AltitudeMeters>182.399993896484375</AltitudeMeters>
            <DistanceMeters>NAN</DistanceMeters>
          </Trackpoint>
          <Trackpoint>
            <Time>2022-07-10T15:23:22.000Z</Time>
            <Position>
              <LatitudeDegrees>43.27935579232871532440185546875</LatitudeDegrees>
              <LongitudeDegrees>-2.31313294731080532073974609375</LongitudeDegrees>
            </Position>
            <AltitudeMeters>182.399993896484375</AltitudeMeters>
            <DistanceMeters>NAN</DistanceMeters>
          </Trackpoint>
          <Trackpoint>
            <Time>2022-07-10T15:23:31.000Z</Time>
            <Position>
              <LatitudeDegrees>43.27951052226126194000244140625</LatitudeDegrees>
              <LongitudeDegrees>-2.3133859969675540924072265625</LongitudeDegrees>
            </Position>
            <AltitudeMeters>182.8000030517578125</AltitudeMeters>
            <DistanceMeters>NAN</DistanceMeters>
          </Trackpoint>
          <Trackpoint>
            <Time>2022-07-10T15:23:33.000Z</Time>
            <Position>
              <LatitudeDegrees>43.27953801490366458892822265625</LatitudeDegrees>
              <LongitudeDegrees>-2.31342874467372894287109375</LongitudeDegrees>
            </Position>
            <AltitudeMeters>183</AltitudeMeters>
            <DistanceMeters>NAN</DistanceMeters>
          </Trackpoint>
          <Trackpoint>
            <Time>2022-07-10T15:23:40.000Z</Time>
            <Position>
              <LatitudeDegrees>43.27966039068996906280517578125</LatitudeDegrees>
              <LongitudeDegrees>-2.31360442936420440673828125</LongitudeDegrees>
            </Position>
            <AltitudeMeters>183.1999969482421875</AltitudeMeters>
            <DistanceMeters>NAN</DistanceMeters>
          </Trackpoint>
          <Trackpoint>
            <Time>2022-07-10T15:23:49.000Z</Time>
            <Position>
              <LatitudeDegrees>43.27980958856642246246337890625</LatitudeDegrees>
              <LongitudeDegrees>-2.3138523660600185394287109375</LongitudeDegrees>
            </Position>
            <AltitudeMeters>183.399993896484375</AltitudeMeters>
            <DistanceMeters>NAN</DistanceMeters>
          </Trackpoint>
          <Trackpoint>
            <Time>2022-07-10T15:23:57.000Z</Time>
            <Position>
              <LatitudeDegrees>43.2799421064555644989013671875</LatitudeDegrees>
              <LongitudeDegrees>-2.314052022993564605712890625</LongitudeDegrees>
            </Position>
            <AltitudeMeters>183.600006103515625</AltitudeMeters>
            <DistanceMeters>NAN</DistanceMeters>
          </Trackpoint>
          <Trackpoint>
            <Time>2022-07-10T15:24:01.000Z</Time>
            <Position>
              <LatitudeDegrees>43.28000069595873355865478515625</LatitudeDegrees>
              <LongitudeDegrees>-2.31415587477385997772216796875</LongitudeDegrees>
            </Position>
            <AltitudeMeters>184</AltitudeMeters>
            <DistanceMeters>NAN</DistanceMeters>
          </Trackpoint>
          <Trackpoint>
            <Time>2022-07-10T15:24:08.000Z</Time>
            <Position>
              <LatitudeDegrees>43.28011066652834415435791015625</LatitudeDegrees>
              <LongitudeDegrees>-2.31434346176683902740478515625</LongitudeDegrees>
            </Position>
            <AltitudeMeters>184.399993896484375</AltitudeMeters>
            <DistanceMeters>NAN</DistanceMeters>
          </Trackpoint>
          <Trackpoint>
            <Time>2022-07-10T15:24:13.000Z</Time>
            <Position>
              <LatitudeDegrees>43.2802037894725799560546875</LatitudeDegrees>
              <LongitudeDegrees>-2.314460389316082000732421875</LongitudeDegrees>
            </Position>
            <AltitudeMeters>184.600006103515625</AltitudeMeters>
            <DistanceMeters>NAN</DistanceMeters>
          </Trackpoint>
          <Trackpoint>
            <Time>2022-07-10T15:24:19.000Z</Time>
            <Position>
              <LatitudeDegrees>43.2802978344261646270751953125</LatitudeDegrees>
              <LongitudeDegrees>-2.314630039036273956298828125</LongitudeDegrees>
            </Position>
            <AltitudeMeters>185</AltitudeMeters>
            <DistanceMeters>NAN</DistanceMeters>
          </Trackpoint>
          <Trackpoint>
            <Time>2022-07-10T15:24:21.000Z</Time>
            <Position>
              <LatitudeDegrees>43.2803327031433582305908203125</LatitudeDegrees>
              <LongitudeDegrees>-2.31469751335680484771728515625</LongitudeDegrees>
            </Position>
            <AltitudeMeters>185.1999969482421875</AltitudeMeters>
            <DistanceMeters>NAN</DistanceMeters>
          </Trackpoint>
          <Trackpoint>
            <Time>2022-07-10T15:24:25.000Z</Time>
            <Position>
              <LatitudeDegrees>43.28040537424385547637939453125</LatitudeDegrees>
              <LongitudeDegrees>-2.31481838040053844451904296875</LongitudeDegrees>
            </Position>
            <AltitudeMeters>185.399993896484375</AltitudeMeters>
            <DistanceMeters>NAN</DistanceMeters>
          </Trackpoint>
          <Trackpoint>
            <Time>2022-07-10T15:24:30.000Z</Time>
            <Position>
              <LatitudeDegrees>43.28048340976238250732421875</LatitudeDegrees>
              <LongitudeDegrees>-2.314948551356792449951171875</LongitudeDegrees>
            </Position>
            <AltitudeMeters>185.8000030517578125</AltitudeMeters>
            <DistanceMeters>NAN</DistanceMeters>
          </Trackpoint>
          <Trackpoint>
            <Time>2022-07-10T15:24:36.000Z</Time>
            <Position>
              <LatitudeDegrees>43.280583322048187255859375</LatitudeDegrees>
              <LongitudeDegrees>-2.3151029460132122039794921875</LongitudeDegrees>
            </Position>
            <AltitudeMeters>186.1999969482421875</AltitudeMeters>
            <DistanceMeters>NAN</DistanceMeters>
          </Trackpoint>
          <Trackpoint>
            <Time>2022-07-10T15:24:37.000Z</Time>
            <Position>
              <LatitudeDegrees>43.28059874475002288818359375</LatitudeDegrees>
              <LongitudeDegrees>-2.31512985192239284515380859375</LongitudeDegrees>
            </Position>
            <AltitudeMeters>186.1999969482421875</AltitudeMeters>
            <DistanceMeters>NAN</DistanceMeters>
          </Trackpoint>
          <Trackpoint>
            <Time>2022-07-10T15:24:45.000Z</Time>
            <Position>
              <LatitudeDegrees>43.28070410527288913726806640625</LatitudeDegrees>
              <LongitudeDegrees>-2.31531861238181591033935546875</LongitudeDegrees>
            </Position>
            <AltitudeMeters>187</AltitudeMeters>
            <DistanceMeters>NAN</DistanceMeters>
          </Trackpoint>
          <Trackpoint>
            <Time>2022-07-10T15:24:47.000Z</Time>
            <Position>
              <LatitudeDegrees>43.2807303406298160552978515625</LatitudeDegrees>
              <LongitudeDegrees>-2.31536068953573703765869140625</LongitudeDegrees>
            </Position>
            <AltitudeMeters>187.1999969482421875</AltitudeMeters>
            <DistanceMeters>NAN</DistanceMeters>
          </Trackpoint>
          <Trackpoint>
            <Time>2022-07-10T15:24:51.000Z</Time>
            <Position>
              <LatitudeDegrees>43.280781805515289306640625</LatitudeDegrees>
              <LongitudeDegrees>-2.3154556564986705780029296875</LongitudeDegrees>
            </Position>
            <AltitudeMeters>187.600006103515625</AltitudeMeters>
            <DistanceMeters>NAN</DistanceMeters>
          </Trackpoint>
          <Trackpoint>
            <Time>2022-07-10T15:24:54.000Z</Time>
            <Position>
              <LatitudeDegrees>43.28081072308123111724853515625</LatitudeDegrees>
              <LongitudeDegrees>-2.31552430428564548492431640625</LongitudeDegrees>
            </Position>
            <AltitudeMeters>187.8000030517578125</AltitudeMeters>
            <DistanceMeters>NAN</DistanceMeters>
          </Trackpoint>
          <Trackpoint>
            <Time>2022-07-10T15:24:57.000Z</Time>
            <Position>
              <LatitudeDegrees>43.28084140084683895111083984375</LatitudeDegrees>
              <LongitudeDegrees>-2.3156008310616016387939453125</LongitudeDegrees>
            </Position>
            <AltitudeMeters>188.1999969482421875</AltitudeMeters>
            <DistanceMeters>NAN</DistanceMeters>
          </Trackpoint>
          <Trackpoint>
            <Time>2022-07-10T15:24:59.000Z</Time>
            <Position>
              <LatitudeDegrees>43.280861936509609222412109375</LatitudeDegrees>
              <LongitudeDegrees>-2.31564936228096485137939453125</LongitudeDegrees>
            </Position>
            <AltitudeMeters>188.1999969482421875</AltitudeMeters>
            <DistanceMeters>NAN</DistanceMeters>
          </Trackpoint>
          <Trackpoint>
            <Time>2022-07-10T15:25:05.000Z</Time>
            <Position>
              <LatitudeDegrees>43.2809345237910747528076171875</LatitudeDegrees>
              <LongitudeDegrees>-2.31577509082853794097900390625</LongitudeDegrees>
            </Position>
            <AltitudeMeters>189</AltitudeMeters>
            <DistanceMeters>NAN</DistanceMeters>
          </Trackpoint>
          <Trackpoint>
            <Time>2022-07-10T15:25:07.000Z</Time>
            <Position>
              <LatitudeDegrees>43.28096109442412853240966796875</LatitudeDegrees>
              <LongitudeDegrees>-2.315822951495647430419921875</LongitudeDegrees>
            </Position>
            <AltitudeMeters>189.1999969482421875</AltitudeMeters>
            <DistanceMeters>NAN</DistanceMeters>
          </Trackpoint>
          <Trackpoint>
            <Time>2022-07-10T15:25:09.000Z</Time>
            <Position>
              <LatitudeDegrees>43.28097752295434474945068359375</LatitudeDegrees>
              <LongitudeDegrees>-2.3158687166869640350341796875</LongitudeDegrees>
            </Position>
            <AltitudeMeters>189.399993896484375</AltitudeMeters>
            <DistanceMeters>NAN</DistanceMeters>
          </Trackpoint>
          <Trackpoint>
            <Time>2022-07-10T15:25:13.000Z</Time>
            <Position>
              <LatitudeDegrees>43.28100920654833316802978515625</LatitudeDegrees>
              <LongitudeDegrees>-2.3159572295844554901123046875</LongitudeDegrees>
            </Position>
            <AltitudeMeters>189.600006103515625</AltitudeMeters>
            <DistanceMeters>NAN</DistanceMeters>
          </Trackpoint>
          <Trackpoint>
            <Time>2022-07-10T15:25:18.000Z</Time>
            <Position>
              <LatitudeDegrees>43.28101792372763156890869140625</LatitudeDegrees>
              <LongitudeDegrees>-2.3160906694829463958740234375</LongitudeDegrees>
            </Position>
            <AltitudeMeters>190</AltitudeMeters>
            <DistanceMeters>NAN</DistanceMeters>
          </Trackpoint>
          <Trackpoint>
            <Time>2022-07-10T15:25:19.000Z</Time>
            <Position>
              <LatitudeDegrees>43.28102412633597850799560546875</LatitudeDegrees>
              <LongitudeDegrees>-2.31612377800047397613525390625</LongitudeDegrees>
            </Position>
            <AltitudeMeters>190</AltitudeMeters>
            <DistanceMeters>NAN</DistanceMeters>
          </Trackpoint>
          <Trackpoint>
            <Time>2022-07-10T15:25:26.000Z</Time>
            <Position>
              <LatitudeDegrees>43.2810491882264614105224609375</LatitudeDegrees>
              <LongitudeDegrees>-2.31633584015071392059326171875</LongitudeDegrees>
            </Position>
            <AltitudeMeters>190.399993896484375</AltitudeMeters>
            <DistanceMeters>NAN</DistanceMeters>
          </Trackpoint>
          <Trackpoint>
            <Time>2022-07-10T15:25:27.000Z</Time>
            <Position>
              <LatitudeDegrees>43.2810575701296329498291015625</LatitudeDegrees>
              <LongitudeDegrees>-2.3163597285747528076171875</LongitudeDegrees>
            </Position>
            <AltitudeMeters>190.399993896484375</AltitudeMeters>
            <DistanceMeters>NAN</DistanceMeters>
          </Trackpoint>
          <Trackpoint>
            <Time>2022-07-10T15:25:30.000Z</Time>
            <Position>
              <LatitudeDegrees>43.281066454946994781494140625</LatitudeDegrees>
              <LongitudeDegrees>-2.31643742881715297698974609375</LongitudeDegrees>
            </Position>
            <AltitudeMeters>190.8000030517578125</AltitudeMeters>
            <DistanceMeters>NAN</DistanceMeters>
          </Trackpoint>
          <Trackpoint>
            <Time>2022-07-10T15:25:31.000Z</Time>
            <Position>
              <LatitudeDegrees>43.28106813132762908935546875</LatitudeDegrees>
              <LongitudeDegrees>-2.3164681904017925262451171875</LongitudeDegrees>
            </Position>
            <AltitudeMeters>190.8000030517578125</AltitudeMeters>
            <DistanceMeters>NAN</DistanceMeters>
          </Trackpoint>
          <Trackpoint>
            <Time>2022-07-10T15:25:38.000Z</Time>
            <Position>
              <LatitudeDegrees>43.2810803689062595367431640625</LatitudeDegrees>
              <LongitudeDegrees>-2.316688634455204010009765625</LongitudeDegrees>
            </Position>
            <AltitudeMeters>191</AltitudeMeters>
            <DistanceMeters>NAN</DistanceMeters>
          </Trackpoint>
          <Trackpoint>
            <Time>2022-07-10T15:25:43.000Z</Time>
            <Position>
              <LatitudeDegrees>43.2810969650745391845703125</LatitudeDegrees>
              <LongitudeDegrees>-2.31684529222548007965087890625</LongitudeDegrees>
            </Position>
            <AltitudeMeters>191.399993896484375</AltitudeMeters>
            <DistanceMeters>NAN</DistanceMeters>
          </Trackpoint>
          <Trackpoint>
            <Time>2022-07-10T15:25:45.000Z</Time>
            <Position>
              <LatitudeDegrees>43.2810957916080951690673828125</LatitudeDegrees>
              <LongitudeDegrees>-2.31691285036504268646240234375</LongitudeDegrees>
            </Position>
            <AltitudeMeters>191.600006103515625</AltitudeMeters>
            <DistanceMeters>NAN</DistanceMeters>
          </Trackpoint>
          <Trackpoint>
            <Time>2022-07-10T15:25:48.000Z</Time>
            <Position>
              <LatitudeDegrees>43.28109604306519031524658203125</LatitudeDegrees>
              <LongitudeDegrees>-2.3170146904885768890380859375</LongitudeDegrees>
            </Position>
            <AltitudeMeters>192</AltitudeMeters>
            <DistanceMeters>NAN</DistanceMeters>
          </Trackpoint>
          <Trackpoint>
            <Time>2022-07-10T15:25:50.000Z</Time>
            <Position>
              <LatitudeDegrees>43.28110434114933013916015625</LatitudeDegrees>
              <LongitudeDegrees>-2.3170773871243000030517578125</LongitudeDegrees>
            </Position>
            <AltitudeMeters>192.1999969482421875</AltitudeMeters>
            <DistanceMeters>NAN</DistanceMeters>
          </Trackpoint>
          <Trackpoint>
            <Time>2022-07-10T15:25:56.000Z</Time>
            <Position>
              <LatitudeDegrees>43.28110442496836185455322265625</LatitudeDegrees>
              <LongitudeDegrees>-2.31724041514098644256591796875</LongitudeDegrees>
            </Position>
            <AltitudeMeters>192.399993896484375</AltitudeMeters>
            <DistanceMeters>NAN</DistanceMeters>
          </Trackpoint>
          <Trackpoint>
            <Time>2022-07-10T15:26:02.000Z</Time>
            <Position>
              <LatitudeDegrees>43.2810696400701999664306640625</LatitudeDegrees>
              <LongitudeDegrees>-2.31747485697269439697265625</LongitudeDegrees>
            </Position>
            <AltitudeMeters>192.600006103515625</AltitudeMeters>
            <DistanceMeters>NAN</DistanceMeters>
          </Trackpoint>
          <Trackpoint>
            <Time>2022-07-10T15:26:05.000Z</Time>
            <Position>
              <LatitudeDegrees>43.28103586100041866302490234375</LatitudeDegrees>
              <LongitudeDegrees>-2.3175732605159282684326171875</LongitudeDegrees>
            </Position>
            <AltitudeMeters>192.8000030517578125</AltitudeMeters>
            <DistanceMeters>NAN</DistanceMeters>
          </Trackpoint>
          <Trackpoint>
            <Time>2022-07-10T15:26:14.000Z</Time>
            <Position>
              <LatitudeDegrees>43.280916921794414520263671875</LatitudeDegrees>
              <LongitudeDegrees>-2.3178441636264324188232421875</LongitudeDegrees>
            </Position>
            <AltitudeMeters>193.399993896484375</AltitudeMeters>
            <DistanceMeters>NAN</DistanceMeters>
          </Trackpoint>
          <Trackpoint>
            <Time>2022-07-10T15:26:20.000Z</Time>
            <Position>
              <LatitudeDegrees>43.2808282412588596343994140625</LatitudeDegrees>
              <LongitudeDegrees>-2.317991517484188079833984375</LongitudeDegrees>
            </Position>
            <AltitudeMeters>193.600006103515625</AltitudeMeters>
            <DistanceMeters>NAN</DistanceMeters>
          </Trackpoint>
          <Trackpoint>
            <Time>2022-07-10T15:26:22.000Z</Time>
            <Position>
              <LatitudeDegrees>43.28079882077872753143310546875</LatitudeDegrees>
              <LongitudeDegrees>-2.3180414736270904541015625</LongitudeDegrees>
            </Position>
            <AltitudeMeters>193.8000030517578125</AltitudeMeters>
            <DistanceMeters>NAN</DistanceMeters>
          </Trackpoint>
          <Trackpoint>
            <Time>2022-07-10T15:26:26.000Z</Time>
            <Position>
              <LatitudeDegrees>43.2807417400181293487548828125</LatitudeDegrees>
              <LongitudeDegrees>-2.318149097263813018798828125</LongitudeDegrees>
            </Position>
            <AltitudeMeters>193.8000030517578125</AltitudeMeters>
            <DistanceMeters>NAN</DistanceMeters>
          </Trackpoint>
          <Trackpoint>
            <Time>2022-07-10T15:26:29.000Z</Time>
            <Position>
              <LatitudeDegrees>43.28069605864584445953369140625</LatitudeDegrees>
              <LongitudeDegrees>-2.31822009198367595672607421875</LongitudeDegrees>
            </Position>
            <AltitudeMeters>193.8000030517578125</AltitudeMeters>
            <DistanceMeters>NAN</DistanceMeters>
          </Trackpoint>
          <Trackpoint>
            <Time>2022-07-10T15:26:39.000Z</Time>
            <Position>
              <LatitudeDegrees>43.2805308513343334197998046875</LatitudeDegrees>
              <LongitudeDegrees>-2.31846459209918975830078125</LongitudeDegrees>
            </Position>
            <AltitudeMeters>194.600006103515625</AltitudeMeters>
            <DistanceMeters>NAN</DistanceMeters>
          </Trackpoint>
          <Trackpoint>
            <Time>2022-07-10T15:26:48.000Z</Time>
            <Position>
              <LatitudeDegrees>43.280399926006793975830078125</LatitudeDegrees>
              <LongitudeDegrees>-2.31867271475493907928466796875</LongitudeDegrees>
            </Position>
            <AltitudeMeters>195.1999969482421875</AltitudeMeters>
            <DistanceMeters>NAN</DistanceMeters>
          </Trackpoint>
          <Trackpoint>
            <Time>2022-07-10T15:26:57.000Z</Time>
            <Position>
              <LatitudeDegrees>43.280282914638519287109375</LatitudeDegrees>
              <LongitudeDegrees>-2.31890573166310787200927734375</LongitudeDegrees>
            </Position>
            <AltitudeMeters>195.8000030517578125</AltitudeMeters>
            <DistanceMeters>NAN</DistanceMeters>
          </Trackpoint>
          <Trackpoint>
            <Time>2022-07-10T15:26:58.000Z</Time>
            <Position>
              <LatitudeDegrees>43.28027327544987201690673828125</LatitudeDegrees>
              <LongitudeDegrees>-2.31893389485776424407958984375</LongitudeDegrees>
            </Position>
            <AltitudeMeters>195.8000030517578125</AltitudeMeters>
            <DistanceMeters>NAN</DistanceMeters>
          </Trackpoint>
          <Trackpoint>
            <Time>2022-07-10T15:27:08.000Z</Time>
            <Position>
              <LatitudeDegrees>43.28021921217441558837890625</LatitudeDegrees>
              <LongitudeDegrees>-2.31919876299798488616943359375</LongitudeDegrees>
            </Position>
            <AltitudeMeters>196.600006103515625</AltitudeMeters>
            <DistanceMeters>NAN</DistanceMeters>
          </Trackpoint>
          <Trackpoint>
            <Time>2022-07-10T15:27:09.000Z</Time>
            <Position>
              <LatitudeDegrees>43.2802166976034641265869140625</LatitudeDegrees>
              <LongitudeDegrees>-2.31922223232686519622802734375</LongitudeDegrees>
            </Position>
            <AltitudeMeters>196.8000030517578125</AltitudeMeters>
            <DistanceMeters>NAN</DistanceMeters>
          </Trackpoint>
          <Trackpoint>
            <Time>2022-07-10T15:27:16.000Z</Time>
            <Position>
              <LatitudeDegrees>43.28018300235271453857421875</LatitudeDegrees>
              <LongitudeDegrees>-2.31941920705139636993408203125</LongitudeDegrees>
            </Position>
            <AltitudeMeters>197.1999969482421875</AltitudeMeters>
            <DistanceMeters>NAN</DistanceMeters>
          </Trackpoint>
          <Trackpoint>
            <Time>2022-07-10T15:27:18.000Z</Time>
            <Position>
              <LatitudeDegrees>43.280179314315319061279296875</LatitudeDegrees>
              <LongitudeDegrees>-2.3194665648043155670166015625</LongitudeDegrees>
            </Position>
            <AltitudeMeters>197.1999969482421875</AltitudeMeters>
            <DistanceMeters>NAN</DistanceMeters>
          </Trackpoint>
          <Trackpoint>
            <Time>2022-07-10T15:27:21.000Z</Time>
            <Position>
              <LatitudeDegrees>43.28017135150730609893798828125</LatitudeDegrees>
              <LongitudeDegrees>-2.319544851779937744140625</LongitudeDegrees>
            </Position>
            <AltitudeMeters>197.399993896484375</AltitudeMeters>
            <DistanceMeters>NAN</DistanceMeters>
          </Trackpoint>
          <Trackpoint>
            <Time>2022-07-10T15:27:26.000Z</Time>
            <Position>
              <LatitudeDegrees>43.28014218248426914215087890625</LatitudeDegrees>
              <LongitudeDegrees>-2.31968441046774387359619140625</LongitudeDegrees>
            </Position>
            <AltitudeMeters>197.8000030517578125</AltitudeMeters>
            <DistanceMeters>NAN</DistanceMeters>
          </Trackpoint>
          <Trackpoint>
            <Time>2022-07-10T15:27:27.000Z</Time>
            <Position>
              <LatitudeDegrees>43.28013480640947818756103515625</LatitudeDegrees>
              <LongitudeDegrees>-2.3197138309478759765625</LongitudeDegrees>
            </Position>
            <AltitudeMeters>197.8000030517578125</AltitudeMeters>
            <DistanceMeters>NAN</DistanceMeters>
          </Trackpoint>
          <Trackpoint>
            <Time>2022-07-10T15:27:37.000Z</Time>
            <Position>
              <LatitudeDegrees>43.28003321774303913116455078125</LatitudeDegrees>
              <LongitudeDegrees>-2.31996067799627780914306640625</LongitudeDegrees>
            </Position>
            <AltitudeMeters>198.399993896484375</AltitudeMeters>
            <DistanceMeters>NAN</DistanceMeters>
          </Trackpoint>
          <Trackpoint>
            <Time>2022-07-10T15:27:43.000Z</Time>
            <Position>
              <LatitudeDegrees>43.27996909618377685546875</LatitudeDegrees>
              <LongitudeDegrees>-2.3201133124530315399169921875</LongitudeDegrees>
            </Position>
            <AltitudeMeters>198.8000030517578125</AltitudeMeters>
            <DistanceMeters>NAN</DistanceMeters>
          </Trackpoint>
          <Trackpoint>
            <Time>2022-07-10T15:27:45.000Z</Time>
            <Position>
              <LatitudeDegrees>43.2799451239407062530517578125</LatitudeDegrees>
              <LongitudeDegrees>-2.3201585747301578521728515625</LongitudeDegrees>
            </Position>
            <AltitudeMeters>199</AltitudeMeters>
            <DistanceMeters>NAN</DistanceMeters>
          </Trackpoint>
          <Trackpoint>
            <Time>2022-07-10T15:27:54.000Z</Time>
            <Position>
              <LatitudeDegrees>43.27982232905924320220947265625</LatitudeDegrees>
              <LongitudeDegrees>-2.32035513035953044891357421875</LongitudeDegrees>
            </Position>
            <AltitudeMeters>199.399993896484375</AltitudeMeters>
            <DistanceMeters>NAN</DistanceMeters>
          </Trackpoint>
          <Trackpoint>
            <Time>2022-07-10T15:28:01.000Z</Time>
            <Position>
              <LatitudeDegrees>43.279724679887294769287109375</LatitudeDegrees>
              <LongitudeDegrees>-2.3204680345952510833740234375</LongitudeDegrees>
            </Position>
            <AltitudeMeters>199.8000030517578125</AltitudeMeters>
            <DistanceMeters>NAN</DistanceMeters>
          </Trackpoint>
          <Trackpoint>
            <Time>2022-07-10T15:28:10.000Z</Time>
            <Position>
              <LatitudeDegrees>43.27958713285624980926513671875</LatitudeDegrees>
              <LongitudeDegrees>-2.320632822811603546142578125</LongitudeDegrees>
            </Position>
            <AltitudeMeters>200.600006103515625</AltitudeMeters>
            <DistanceMeters>NAN</DistanceMeters>
          </Trackpoint>
          <Trackpoint>
            <Time>2022-07-10T15:28:15.000Z</Time>
            <Position>
              <LatitudeDegrees>43.2794961892068386077880859375</LatitudeDegrees>
              <LongitudeDegrees>-2.3207251913845539093017578125</LongitudeDegrees>
            </Position>
            <AltitudeMeters>201</AltitudeMeters>
            <DistanceMeters>NAN</DistanceMeters>
          </Trackpoint>
          <Trackpoint>
            <Time>2022-07-10T15:28:18.000Z</Time>
            <Position>
              <LatitudeDegrees>43.2794581353664398193359375</LatitudeDegrees>
              <LongitudeDegrees>-2.32078067958354949951171875</LongitudeDegrees>
            </Position>
            <AltitudeMeters>201.399993896484375</AltitudeMeters>
            <DistanceMeters>NAN</DistanceMeters>
          </Trackpoint>
          <Trackpoint>
            <Time>2022-07-10T15:28:25.000Z</Time>
            <Position>
              <LatitudeDegrees>43.27935059554874897003173828125</LatitudeDegrees>
              <LongitudeDegrees>-2.32089241035282611846923828125</LongitudeDegrees>
            </Position>
            <AltitudeMeters>201.8000030517578125</AltitudeMeters>
            <DistanceMeters>NAN</DistanceMeters>
          </Trackpoint>
          <Trackpoint>
            <Time>2022-07-10T15:28:27.000Z</Time>
            <Position>
              <LatitudeDegrees>43.27932695858180522918701171875</LatitudeDegrees>
              <LongitudeDegrees>-2.32092895545065402984619140625</LongitudeDegrees>
            </Position>
            <AltitudeMeters>202</AltitudeMeters>
            <DistanceMeters>NAN</DistanceMeters>
          </Trackpoint>
          <Trackpoint>
            <Time>2022-07-10T15:28:30.000Z</Time>
            <Position>
              <LatitudeDegrees>43.27927968464791774749755859375</LatitudeDegrees>
              <LongitudeDegrees>-2.3209883831441402435302734375</LongitudeDegrees>
            </Position>
            <AltitudeMeters>202.1999969482421875</AltitudeMeters>
            <DistanceMeters>NAN</DistanceMeters>
          </Trackpoint>
          <Trackpoint>
            <Time>2022-07-10T15:28:32.000Z</Time>
            <Position>
              <LatitudeDegrees>43.27925386838614940643310546875</LatitudeDegrees>
              <LongitudeDegrees>-2.32102534733712673187255859375</LongitudeDegrees>
            </Position>
            <AltitudeMeters>202.600006103515625</AltitudeMeters>
            <DistanceMeters>NAN</DistanceMeters>
          </Trackpoint>
          <Trackpoint>
            <Time>2022-07-10T15:28:37.000Z</Time>
            <Position>
              <LatitudeDegrees>43.279174827039241790771484375</LatitudeDegrees>
              <LongitudeDegrees>-2.32111335732042789459228515625</LongitudeDegrees>
            </Position>
            <AltitudeMeters>203</AltitudeMeters>
            <DistanceMeters>NAN</DistanceMeters>
          </Trackpoint>
          <Trackpoint>
            <Time>2022-07-10T15:28:38.000Z</Time>
            <Position>
              <LatitudeDegrees>43.27916569076478481292724609375</LatitudeDegrees>
              <LongitudeDegrees>-2.321135737001895904541015625</LongitudeDegrees>
            </Position>
            <AltitudeMeters>203</AltitudeMeters>
            <DistanceMeters>NAN</DistanceMeters>
          </Trackpoint>
          <Trackpoint>
            <Time>2022-07-10T15:28:43.000Z</Time>
            <Position>
              <LatitudeDegrees>43.27914054505527019500732421875</LatitudeDegrees>
              <LongitudeDegrees>-2.3212599568068981170654296875</LongitudeDegrees>
            </Position>
            <AltitudeMeters>203.600006103515625</AltitudeMeters>
            <DistanceMeters>NAN</DistanceMeters>
          </Trackpoint>
          <Trackpoint>
            <Time>2022-07-10T15:28:46.000Z</Time>
            <Position>
              <LatitudeDegrees>43.27912512235343456268310546875</LatitudeDegrees>
              <LongitudeDegrees>-2.32132256962358951568603515625</LongitudeDegrees>
            </Position>
            <AltitudeMeters>203.600006103515625</AltitudeMeters>
            <DistanceMeters>NAN</DistanceMeters>
          </Trackpoint>
          <Trackpoint>
            <Time>2022-07-10T15:28:49.000Z</Time>
            <Position>
              <LatitudeDegrees>43.27910282649099826812744140625</LatitudeDegrees>
              <LongitudeDegrees>-2.32139079831540584564208984375</LongitudeDegrees>
            </Position>
            <AltitudeMeters>204</AltitudeMeters>
            <DistanceMeters>NAN</DistanceMeters>
          </Trackpoint>
          <Trackpoint>
            <Time>2022-07-10T15:28:50.000Z</Time>
            <Position>
              <LatitudeDegrees>43.27908958308398723602294921875</LatitudeDegrees>
              <LongitudeDegrees>-2.32141443528234958648681640625</LongitudeDegrees>
            </Position>
            <AltitudeMeters>204.1999969482421875</AltitudeMeters>
            <DistanceMeters>NAN</DistanceMeters>
          </Trackpoint>
          <Trackpoint>
            <Time>2022-07-10T15:28:56.000Z</Time>
            <Position>
              <LatitudeDegrees>43.2790335081517696380615234375</LatitudeDegrees>
              <LongitudeDegrees>-2.32154779136180877685546875</LongitudeDegrees>
            </Position>
            <AltitudeMeters>204.8000030517578125</AltitudeMeters>
            <DistanceMeters>NAN</DistanceMeters>
          </Trackpoint>
          <Trackpoint>
            <Time>2022-07-10T15:29:01.000Z</Time>
            <Position>
              <LatitudeDegrees>43.27899721451103687286376953125</LatitudeDegrees>
              <LongitudeDegrees>-2.32164594344794750213623046875</LongitudeDegrees>
            </Position>
            <AltitudeMeters>205.1999969482421875</AltitudeMeters>
            <DistanceMeters>NAN</DistanceMeters>
          </Trackpoint>
          <Trackpoint>
            <Time>2022-07-10T15:29:03.000Z</Time>
            <Position>
              <LatitudeDegrees>43.2789812050759792327880859375</LatitudeDegrees>
              <LongitudeDegrees>-2.3216897808015346527099609375</LongitudeDegrees>
            </Position>
            <AltitudeMeters>205.399993896484375</AltitudeMeters>
            <DistanceMeters>NAN</DistanceMeters>
          </Trackpoint>
          <Trackpoint>
            <Time>2022-07-10T15:29:09.000Z</Time>
            <Position>
              <LatitudeDegrees>43.2789285667240619659423828125</LatitudeDegrees>
              <LongitudeDegrees>-2.32182196341454982757568359375</LongitudeDegrees>
            </Position>
            <AltitudeMeters>205.8000030517578125</AltitudeMeters>
            <DistanceMeters>NAN</DistanceMeters>
          </Trackpoint>
          <Trackpoint>
            <Time>2022-07-10T15:29:14.000Z</Time>
            <Position>
              <LatitudeDegrees>43.2788983918726444244384765625</LatitudeDegrees>
              <LongitudeDegrees>-2.3219360411167144775390625</LongitudeDegrees>
            </Position>
            <AltitudeMeters>206.399993896484375</AltitudeMeters>
            <DistanceMeters>NAN</DistanceMeters>
          </Trackpoint>
          <Trackpoint>
            <Time>2022-07-10T15:29:17.000Z</Time>
            <Position>
              <LatitudeDegrees>43.278866708278656005859375</LatitudeDegrees>
              <LongitudeDegrees>-2.3220046050846576690673828125</LongitudeDegrees>
            </Position>
            <AltitudeMeters>206.600006103515625</AltitudeMeters>
            <DistanceMeters>NAN</DistanceMeters>
          </Trackpoint>
          <Trackpoint>
            <Time>2022-07-10T15:29:26.000Z</Time>
            <Position>
              <LatitudeDegrees>43.27879873104393482208251953125</LatitudeDegrees>
              <LongitudeDegrees>-2.32219018042087554931640625</LongitudeDegrees>
            </Position>
            <AltitudeMeters>207.399993896484375</AltitudeMeters>
            <DistanceMeters>NAN</DistanceMeters>
          </Trackpoint>
          <Trackpoint>
            <Time>2022-07-10T15:29:27.000Z</Time>
            <Position>
              <LatitudeDegrees>43.278791606426239013671875</LatitudeDegrees>
              <LongitudeDegrees>-2.322210967540740966796875</LongitudeDegrees>
            </Position>
            <AltitudeMeters>207.399993896484375</AltitudeMeters>
            <DistanceMeters>NAN</DistanceMeters>
          </Trackpoint>
          <Trackpoint>
            <Time>2022-07-10T15:29:38.000Z</Time>
            <Position>
              <LatitudeDegrees>43.27870770357549190521240234375</LatitudeDegrees>
              <LongitudeDegrees>-2.32241707853972911834716796875</LongitudeDegrees>
            </Position>
            <AltitudeMeters>208.399993896484375</AltitudeMeters>
            <DistanceMeters>NAN</DistanceMeters>
          </Trackpoint>
          <Trackpoint>
            <Time>2022-07-10T15:29:46.000Z</Time>
            <Position>
              <LatitudeDegrees>43.278651796281337738037109375</LatitudeDegrees>
              <LongitudeDegrees>-2.32255672104656696319580078125</LongitudeDegrees>
            </Position>
            <AltitudeMeters>209.399993896484375</AltitudeMeters>
            <DistanceMeters>NAN</DistanceMeters>
          </Trackpoint>
          <Trackpoint>
            <Time>2022-07-10T15:29:48.000Z</Time>
            <Position>
              <LatitudeDegrees>43.27862572856247425079345703125</LatitudeDegrees>
              <LongitudeDegrees>-2.32258773408830165863037109375</LongitudeDegrees>
            </Position>
            <AltitudeMeters>209.399993896484375</AltitudeMeters>
            <DistanceMeters>NAN</DistanceMeters>
          </Trackpoint>
          <Trackpoint>
            <Time>2022-07-10T15:29:53.000Z</Time>
            <Position>
              <LatitudeDegrees>43.278571665287017822265625</LatitudeDegrees>
              <LongitudeDegrees>-2.322672307491302490234375</LongitudeDegrees>
            </Position>
            <AltitudeMeters>209.600006103515625</AltitudeMeters>
            <DistanceMeters>NAN</DistanceMeters>
          </Trackpoint>
          <Trackpoint>
            <Time>2022-07-10T15:29:57.000Z</Time>
            <Position>
              <LatitudeDegrees>43.27853520400822162628173828125</LatitudeDegrees>
              <LongitudeDegrees>-2.32274732552468776702880859375</LongitudeDegrees>
            </Position>
            <AltitudeMeters>210</AltitudeMeters>
            <DistanceMeters>NAN</DistanceMeters>
          </Trackpoint>
          <Trackpoint>
            <Time>2022-07-10T15:30:00.000Z</Time>
            <Position>
              <LatitudeDegrees>43.27849723398685455322265625</LatitudeDegrees>
              <LongitudeDegrees>-2.32279367744922637939453125</LongitudeDegrees>
            </Position>
            <AltitudeMeters>210.399993896484375</AltitudeMeters>
            <DistanceMeters>NAN</DistanceMeters>
          </Trackpoint>
          <Trackpoint>
            <Time>2022-07-10T15:30:01.000Z</Time>
            <Position>
              <LatitudeDegrees>43.27848524786531925201416015625</LatitudeDegrees>
              <LongitudeDegrees>-2.32281102798879146575927734375</LongitudeDegrees>
            </Position>
            <AltitudeMeters>210.399993896484375</AltitudeMeters>
            <DistanceMeters>NAN</DistanceMeters>
          </Trackpoint>
          <Trackpoint>
            <Time>2022-07-10T15:30:02.000Z</Time>
            <Position>
              <LatitudeDegrees>43.27847384847700595855712890625</LatitudeDegrees>
              <LongitudeDegrees>-2.32282510958611965179443359375</LongitudeDegrees>
            </Position>
            <AltitudeMeters>210.600006103515625</AltitudeMeters>
            <DistanceMeters>NAN</DistanceMeters>
          </Trackpoint>
          <Trackpoint>
            <Time>2022-07-10T15:30:05.000Z</Time>
            <Position>
              <LatitudeDegrees>43.27843344770371913909912109375</LatitudeDegrees>
              <LongitudeDegrees>-2.32285059057176113128662109375</LongitudeDegrees>
            </Position>
            <AltitudeMeters>210.8000030517578125</AltitudeMeters>
            <DistanceMeters>NAN</DistanceMeters>
          </Trackpoint>
          <Trackpoint>
            <Time>2022-07-10T15:30:09.000Z</Time>
            <Position>
              <LatitudeDegrees>43.2783800549805164337158203125</LatitudeDegrees>
              <LongitudeDegrees>-2.3229158855974674224853515625</LongitudeDegrees>
            </Position>
            <AltitudeMeters>211.1999969482421875</AltitudeMeters>
            <DistanceMeters>NAN</DistanceMeters>
          </Trackpoint>
          <Trackpoint>
            <Time>2022-07-10T15:30:12.000Z</Time>
            <Position>
              <LatitudeDegrees>43.27834124676883220672607421875</LatitudeDegrees>
              <LongitudeDegrees>-2.322961986064910888671875</LongitudeDegrees>
            </Position>
            <AltitudeMeters>211.1999969482421875</AltitudeMeters>
            <DistanceMeters>NAN</DistanceMeters>
          </Trackpoint>
          <Trackpoint>
            <Time>2022-07-10T15:30:15.000Z</Time>
            <Position>
              <LatitudeDegrees>43.2783103175461292266845703125</LatitudeDegrees>
              <LongitudeDegrees>-2.32302024029195308685302734375</LongitudeDegrees>
            </Position>
            <AltitudeMeters>211.600006103515625</AltitudeMeters>
            <DistanceMeters>NAN</DistanceMeters>
          </Trackpoint>
          <Trackpoint>
            <Time>2022-07-10T15:30:17.000Z</Time>
            <Position>
              <LatitudeDegrees>43.27828492037951946258544921875</LatitudeDegrees>
              <LongitudeDegrees>-2.3230520077049732208251953125</LongitudeDegrees>
            </Position>
            <AltitudeMeters>211.600006103515625</AltitudeMeters>
            <DistanceMeters>NAN</DistanceMeters>
          </Trackpoint>
          <Trackpoint>
            <Time>2022-07-10T15:30:24.000Z</Time>
            <Position>
              <LatitudeDegrees>43.27820219099521636962890625</LatitudeDegrees>
              <LongitudeDegrees>-2.32317279092967510223388671875</LongitudeDegrees>
            </Position>
            <AltitudeMeters>212.1999969482421875</AltitudeMeters>
            <DistanceMeters>NAN</DistanceMeters>
          </Trackpoint>
          <Trackpoint>
            <Time>2022-07-10T15:30:28.000Z</Time>
            <Position>
              <LatitudeDegrees>43.2781711779534816741943359375</LatitudeDegrees>
              <LongitudeDegrees>-2.3232357390224933624267578125</LongitudeDegrees>
            </Position>
            <AltitudeMeters>212.600006103515625</AltitudeMeters>
            <DistanceMeters>NAN</DistanceMeters>
          </Trackpoint>
          <Trackpoint>
            <Time>2022-07-10T15:30:31.000Z</Time>
            <Position>
              <LatitudeDegrees>43.27813572250306606292724609375</LatitudeDegrees>
              <LongitudeDegrees>-2.3232924006879329681396484375</LongitudeDegrees>
            </Position>
            <AltitudeMeters>212.8000030517578125</AltitudeMeters>
            <DistanceMeters>NAN</DistanceMeters>
          </Trackpoint>
          <Trackpoint>
            <Time>2022-07-10T15:30:38.000Z</Time>
            <Position>
              <LatitudeDegrees>43.278061039745807647705078125</LatitudeDegrees>
              <LongitudeDegrees>-2.323431707918643951416015625</LongitudeDegrees>
            </Position>
            <AltitudeMeters>213.399993896484375</AltitudeMeters>
            <DistanceMeters>NAN</DistanceMeters>
          </Trackpoint>
          <Trackpoint>
            <Time>2022-07-10T15:30:40.000Z</Time>
            <Position>
              <LatitudeDegrees>43.2780365645885467529296875</LatitudeDegrees>
              <LongitudeDegrees>-2.32346699573099613189697265625</LongitudeDegrees>
            </Position>
            <AltitudeMeters>213.399993896484375</AltitudeMeters>
            <DistanceMeters>NAN</DistanceMeters>
          </Trackpoint>
          <Trackpoint>
            <Time>2022-07-10T15:30:42.000Z</Time>
            <Position>
              <LatitudeDegrees>43.2780112512409687042236328125</LatitudeDegrees>
              <LongitudeDegrees>-2.3235012777149677276611328125</LongitudeDegrees>
            </Position>
            <AltitudeMeters>213.600006103515625</AltitudeMeters>
            <DistanceMeters>NAN</DistanceMeters>
          </Trackpoint>
          <Trackpoint>
            <Time>2022-07-10T15:30:46.000Z</Time>
            <Position>
              <LatitudeDegrees>43.27796079218387603759765625</LatitudeDegrees>
              <LongitudeDegrees>-2.32357076369225978851318359375</LongitudeDegrees>
            </Position>
            <AltitudeMeters>214.1999969482421875</AltitudeMeters>
            <DistanceMeters>NAN</DistanceMeters>
          </Trackpoint>
          <Trackpoint>
            <Time>2022-07-10T15:30:50.000Z</Time>
            <Position>
              <LatitudeDegrees>43.2779126800596714019775390625</LatitudeDegrees>
              <LongitudeDegrees>-2.3236303590238094329833984375</LongitudeDegrees>
            </Position>
            <AltitudeMeters>214.600006103515625</AltitudeMeters>
            <DistanceMeters>NAN</DistanceMeters>
          </Trackpoint>
          <Trackpoint>
            <Time>2022-07-10T15:30:56.000Z</Time>
            <Position>
              <LatitudeDegrees>43.277834393084049224853515625</LatitudeDegrees>
              <LongitudeDegrees>-2.323714010417461395263671875</LongitudeDegrees>
            </Position>
            <AltitudeMeters>215.1999969482421875</AltitudeMeters>
            <DistanceMeters>NAN</DistanceMeters>
          </Trackpoint>
          <Trackpoint>
            <Time>2022-07-10T15:31:02.000Z</Time>
            <Position>
              <LatitudeDegrees>43.277746550738811492919921875</LatitudeDegrees>
              <LongitudeDegrees>-2.32379548251628875732421875</LongitudeDegrees>
            </Position>
            <AltitudeMeters>215.600006103515625</AltitudeMeters>
            <DistanceMeters>NAN</DistanceMeters>
          </Trackpoint>
          <Trackpoint>
            <Time>2022-07-10T15:31:03.000Z</Time>
            <Position>
              <LatitudeDegrees>43.27773414552211761474609375</LatitudeDegrees>
              <LongitudeDegrees>-2.3238127492368221282958984375</LongitudeDegrees>
            </Position>
            <AltitudeMeters>215.600006103515625</AltitudeMeters>
            <DistanceMeters>NAN</DistanceMeters>
          </Trackpoint>
          <Trackpoint>
            <Time>2022-07-10T15:31:09.000Z</Time>
            <Position>
              <LatitudeDegrees>43.27764353714883327484130859375</LatitudeDegrees>
              <LongitudeDegrees>-2.3238967359066009521484375</LongitudeDegrees>
            </Position>
            <AltitudeMeters>216.399993896484375</AltitudeMeters>
            <DistanceMeters>NAN</DistanceMeters>
          </Trackpoint>
          <Trackpoint>
            <Time>2022-07-10T15:31:12.000Z</Time>
            <Position>
              <LatitudeDegrees>43.277599699795246124267578125</LatitudeDegrees>
              <LongitudeDegrees>-2.3239404894411563873291015625</LongitudeDegrees>
            </Position>
            <AltitudeMeters>216.8000030517578125</AltitudeMeters>
            <DistanceMeters>NAN</DistanceMeters>
          </Trackpoint>
          <Trackpoint>
            <Time>2022-07-10T15:31:18.000Z</Time>
            <Position>
              <LatitudeDegrees>43.2775090076029300689697265625</LatitudeDegrees>
              <LongitudeDegrees>-2.324029505252838134765625</LongitudeDegrees>
            </Position>
            <AltitudeMeters>217.1999969482421875</AltitudeMeters>
            <DistanceMeters>NAN</DistanceMeters>
          </Trackpoint>
          <Trackpoint>
            <Time>2022-07-10T15:31:19.000Z</Time>
            <Position>
              <LatitudeDegrees>43.27749283052980899810791015625</LatitudeDegrees>
              <LongitudeDegrees>-2.32404383830726146697998046875</LongitudeDegrees>
            </Position>
            <AltitudeMeters>217.1999969482421875</AltitudeMeters>
            <DistanceMeters>NAN</DistanceMeters>
          </Trackpoint>
          <Trackpoint>
            <Time>2022-07-10T15:31:25.000Z</Time>
            <Position>
              <LatitudeDegrees>43.27739660628139972686767578125</LatitudeDegrees>
              <LongitudeDegrees>-2.32410485856235027313232421875</LongitudeDegrees>
            </Position>
            <AltitudeMeters>217.8000030517578125</AltitudeMeters>
            <DistanceMeters>NAN</DistanceMeters>
          </Trackpoint>
          <Trackpoint>
            <Time>2022-07-10T15:31:30.000Z</Time>
            <Position>
              <LatitudeDegrees>43.27732871286571025848388671875</LatitudeDegrees>
              <LongitudeDegrees>-2.32416721992194652557373046875</LongitudeDegrees>
            </Position>
            <AltitudeMeters>218.1999969482421875</AltitudeMeters>
            <DistanceMeters>NAN</DistanceMeters>
          </Trackpoint>
          <Trackpoint>
            <Time>2022-07-10T15:31:36.000Z</Time>
            <Position>
              <LatitudeDegrees>43.2772397808730602264404296875</LatitudeDegrees>
              <LongitudeDegrees>-2.32423444278538227081298828125</LongitudeDegrees>
            </Position>
            <AltitudeMeters>218.8000030517578125</AltitudeMeters>
            <DistanceMeters>NAN</DistanceMeters>
          </Trackpoint>
          <Trackpoint>
            <Time>2022-07-10T15:31:38.000Z</Time>
            <Position>
              <LatitudeDegrees>43.27721203677356243133544921875</LatitudeDegrees>
              <LongitudeDegrees>-2.3242566548287868499755859375</LongitudeDegrees>
            </Position>
            <AltitudeMeters>219</AltitudeMeters>
            <DistanceMeters>NAN</DistanceMeters>
          </Trackpoint>
          <Trackpoint>
            <Time>2022-07-10T15:31:45.000Z</Time>
            <Position>
              <LatitudeDegrees>43.2771120406687259674072265625</LatitudeDegrees>
              <LongitudeDegrees>-2.324332259595394134521484375</LongitudeDegrees>
            </Position>
            <AltitudeMeters>219.8000030517578125</AltitudeMeters>
            <DistanceMeters>NAN</DistanceMeters>
          </Trackpoint>
          <Trackpoint>
            <Time>2022-07-10T15:31:46.000Z</Time>
            <Position>
              <LatitudeDegrees>43.2770951092243194580078125</LatitudeDegrees>
              <LongitudeDegrees>-2.324342988431453704833984375</LongitudeDegrees>
            </Position>
            <AltitudeMeters>220</AltitudeMeters>
            <DistanceMeters>NAN</DistanceMeters>
          </Trackpoint>
          <Trackpoint>
            <Time>2022-07-10T15:31:54.000Z</Time>
            <Position>
              <LatitudeDegrees>43.2769601605832576751708984375</LatitudeDegrees>
              <LongitudeDegrees>-2.32439721934497356414794921875</LongitudeDegrees>
            </Position>
            <AltitudeMeters>220.8000030517578125</AltitudeMeters>
            <DistanceMeters>NAN</DistanceMeters>
          </Trackpoint>
          <Trackpoint>
            <Time>2022-07-10T15:31:57.000Z</Time>
            <Position>
              <LatitudeDegrees>43.27691338956356048583984375</LatitudeDegrees>
              <LongitudeDegrees>-2.32441507279872894287109375</LongitudeDegrees>
            </Position>
            <AltitudeMeters>221.1999969482421875</AltitudeMeters>
            <DistanceMeters>NAN</DistanceMeters>
          </Trackpoint>
          <Trackpoint>
            <Time>2022-07-10T15:32:06.000Z</Time>
            <Position>
              <LatitudeDegrees>43.276758491992950439453125</LatitudeDegrees>
              <LongitudeDegrees>-2.3244517855346202850341796875</LongitudeDegrees>
            </Position>
            <AltitudeMeters>221.8000030517578125</AltitudeMeters>
            <DistanceMeters>NAN</DistanceMeters>
          </Trackpoint>
          <Trackpoint>
            <Time>2022-07-10T15:32:07.000Z</Time>
            <Position>
              <LatitudeDegrees>43.27673971652984619140625</LatitudeDegrees>
              <LongitudeDegrees>-2.32445186935365200042724609375</LongitudeDegrees>
            </Position>
            <AltitudeMeters>222</AltitudeMeters>
            <DistanceMeters>NAN</DistanceMeters>
          </Trackpoint>
          <Trackpoint>
            <Time>2022-07-10T15:32:17.000Z</Time>
            <Position>
              <LatitudeDegrees>43.2765613496303558349609375</LatitudeDegrees>
              <LongitudeDegrees>-2.32448137365281581878662109375</LongitudeDegrees>
            </Position>
            <AltitudeMeters>222.8000030517578125</AltitudeMeters>
            <DistanceMeters>NAN</DistanceMeters>
          </Trackpoint>
          <Trackpoint>
            <Time>2022-07-10T15:32:18.000Z</Time>
            <Position>
              <LatitudeDegrees>43.2765447534620761871337890625</LatitudeDegrees>
              <LongitudeDegrees>-2.32449017465114593505859375</LongitudeDegrees>
            </Position>
            <AltitudeMeters>223</AltitudeMeters>
            <DistanceMeters>NAN</DistanceMeters>
          </Trackpoint>
          <Trackpoint>
            <Time>2022-07-10T15:32:27.000Z</Time>
            <Position>
              <LatitudeDegrees>43.27637988142669200897216796875</LatitudeDegrees>
              <LongitudeDegrees>-2.3245171643793582916259765625</LongitudeDegrees>
            </Position>
            <AltitudeMeters>224</AltitudeMeters>
            <DistanceMeters>NAN</DistanceMeters>
          </Trackpoint>
          <Trackpoint>
            <Time>2022-07-10T15:32:29.000Z</Time>
            <Position>
              <LatitudeDegrees>43.2763482816517353057861328125</LatitudeDegrees>
              <LongitudeDegrees>-2.32451573945581912994384765625</LongitudeDegrees>
            </Position>
            <AltitudeMeters>224.1999969482421875</AltitudeMeters>
            <DistanceMeters>NAN</DistanceMeters>
          </Trackpoint>
          <Trackpoint>
            <Time>2022-07-10T15:32:32.000Z</Time>
            <Position>
              <LatitudeDegrees>43.2763020135462284088134765625</LatitudeDegrees>
              <LongitudeDegrees>-2.32452713884413242340087890625</LongitudeDegrees>
            </Position>
            <AltitudeMeters>224.600006103515625</AltitudeMeters>
            <DistanceMeters>NAN</DistanceMeters>
          </Trackpoint>
          <Trackpoint>
            <Time>2022-07-10T15:32:36.000Z</Time>
            <Position>
              <LatitudeDegrees>43.27622582204639911651611328125</LatitudeDegrees>
              <LongitudeDegrees>-2.3245372809469699859619140625</LongitudeDegrees>
            </Position>
            <AltitudeMeters>225</AltitudeMeters>
            <DistanceMeters>NAN</DistanceMeters>
          </Trackpoint>
          <Trackpoint>
            <Time>2022-07-10T15:32:37.000Z</Time>
            <Position>
              <LatitudeDegrees>43.276206292212009429931640625</LatitudeDegrees>
              <LongitudeDegrees>-2.32454021461308002471923828125</LongitudeDegrees>
            </Position>
            <AltitudeMeters>225</AltitudeMeters>
            <DistanceMeters>NAN</DistanceMeters>
          </Trackpoint>
          <Trackpoint>
            <Time>2022-07-10T15:32:43.000Z</Time>
            <Position>
              <LatitudeDegrees>43.2761149294674396514892578125</LatitudeDegrees>
              <LongitudeDegrees>-2.32456888072192668914794921875</LongitudeDegrees>
            </Position>
            <AltitudeMeters>225.600006103515625</AltitudeMeters>
            <DistanceMeters>NAN</DistanceMeters>
          </Trackpoint>
          <Trackpoint>
            <Time>2022-07-10T15:32:47.000Z</Time>
            <Position>
              <LatitudeDegrees>43.2760410010814666748046875</LatitudeDegrees>
              <LongitudeDegrees>-2.3245795257389545440673828125</LongitudeDegrees>
            </Position>
            <AltitudeMeters>226</AltitudeMeters>
            <DistanceMeters>NAN</DistanceMeters>
          </Trackpoint>
          <Trackpoint>
            <Time>2022-07-10T15:32:51.000Z</Time>
            <Position>
              <LatitudeDegrees>43.2759764604270458221435546875</LatitudeDegrees>
              <LongitudeDegrees>-2.32459008693695068359375</LongitudeDegrees>
            </Position>
            <AltitudeMeters>226.600006103515625</AltitudeMeters>
            <DistanceMeters>NAN</DistanceMeters>
          </Trackpoint>
          <Trackpoint>
            <Time>2022-07-10T15:32:52.000Z</Time>
            <Position>
              <LatitudeDegrees>43.27596380375325679779052734375</LatitudeDegrees>
              <LongitudeDegrees>-2.3245922662317752838134765625</LongitudeDegrees>
            </Position>
            <AltitudeMeters>226.600006103515625</AltitudeMeters>
            <DistanceMeters>NAN</DistanceMeters>
          </Trackpoint>
          <Trackpoint>
            <Time>2022-07-10T15:32:55.000Z</Time>
            <Position>
              <LatitudeDegrees>43.27591267414391040802001953125</LatitudeDegrees>
              <LongitudeDegrees>-2.3246083594858646392822265625</LongitudeDegrees>
            </Position>
            <AltitudeMeters>227</AltitudeMeters>
            <DistanceMeters>NAN</DistanceMeters>
          </Trackpoint>
          <Trackpoint>
            <Time>2022-07-10T15:32:56.000Z</Time>
            <Position>
              <LatitudeDegrees>43.27589255757629871368408203125</LatitudeDegrees>
              <LongitudeDegrees>-2.3246117122471332550048828125</LongitudeDegrees>
            </Position>
            <AltitudeMeters>227.1999969482421875</AltitudeMeters>
            <DistanceMeters>NAN</DistanceMeters>
          </Trackpoint>
          <Trackpoint>
            <Time>2022-07-10T15:33:02.000Z</Time>
            <Position>
              <LatitudeDegrees>43.27578409574925899505615234375</LatitudeDegrees>
              <LongitudeDegrees>-2.32461531646549701690673828125</LongitudeDegrees>
            </Position>
            <AltitudeMeters>227.600006103515625</AltitudeMeters>
            <DistanceMeters>NAN</DistanceMeters>
          </Trackpoint>
          <Trackpoint>
            <Time>2022-07-10T15:33:06.000Z</Time>
            <Position>
              <LatitudeDegrees>43.27570974826812744140625</LatitudeDegrees>
              <LongitudeDegrees>-2.324628643691539764404296875</LongitudeDegrees>
            </Position>
            <AltitudeMeters>228.1999969482421875</AltitudeMeters>
            <DistanceMeters>NAN</DistanceMeters>
          </Trackpoint>
          <Trackpoint>
            <Time>2022-07-10T15:33:10.000Z</Time>
            <Position>
              <LatitudeDegrees>43.27564562670886516571044921875</LatitudeDegrees>
              <LongitudeDegrees>-2.32464037835597991943359375</LongitudeDegrees>
            </Position>
            <AltitudeMeters>228.600006103515625</AltitudeMeters>
            <DistanceMeters>NAN</DistanceMeters>
          </Trackpoint>
          <Trackpoint>
            <Time>2022-07-10T15:33:16.000Z</Time>
            <Position>
              <LatitudeDegrees>43.27554487623274326324462890625</LatitudeDegrees>
              <LongitudeDegrees>-2.324660830199718475341796875</LongitudeDegrees>
            </Position>
            <AltitudeMeters>229.1999969482421875</AltitudeMeters>
            <DistanceMeters>NAN</DistanceMeters>
          </Trackpoint>
          <Trackpoint>
            <Time>2022-07-10T15:33:18.000Z</Time>
            <Position>
              <LatitudeDegrees>43.27551101334393024444580078125</LatitudeDegrees>
              <LongitudeDegrees>-2.3246730677783489227294921875</LongitudeDegrees>
            </Position>
            <AltitudeMeters>229.399993896484375</AltitudeMeters>
            <DistanceMeters>NAN</DistanceMeters>
          </Trackpoint>
          <Trackpoint>
            <Time>2022-07-10T15:33:25.000Z</Time>
            <Position>
              <LatitudeDegrees>43.2753883861005306243896484375</LatitudeDegrees>
              <LongitudeDegrees>-2.324698381125926971435546875</LongitudeDegrees>
            </Position>
            <AltitudeMeters>230.1999969482421875</AltitudeMeters>
            <DistanceMeters>NAN</DistanceMeters>
          </Trackpoint>
          <Trackpoint>
            <Time>2022-07-10T15:33:26.000Z</Time>
            <Position>
              <LatitudeDegrees>43.27537137083709239959716796875</LatitudeDegrees>
              <LongitudeDegrees>-2.3247035779058933258056640625</LongitudeDegrees>
            </Position>
            <AltitudeMeters>230.1999969482421875</AltitudeMeters>
            <DistanceMeters>NAN</DistanceMeters>
          </Trackpoint>
          <Trackpoint>
            <Time>2022-07-10T15:33:30.000Z</Time>
            <Position>
              <LatitudeDegrees>43.27532543800771236419677734375</LatitudeDegrees>
              <LongitudeDegrees>-2.324734590947628021240234375</LongitudeDegrees>
            </Position>
            <AltitudeMeters>230.600006103515625</AltitudeMeters>
            <DistanceMeters>NAN</DistanceMeters>
          </Trackpoint>
          <Trackpoint>
            <Time>2022-07-10T15:33:31.000Z</Time>
            <Position>
              <LatitudeDegrees>43.2753122784197330474853515625</LatitudeDegrees>
              <LongitudeDegrees>-2.32474288903176784515380859375</LongitudeDegrees>
            </Position>
            <AltitudeMeters>230.8000030517578125</AltitudeMeters>
            <DistanceMeters>NAN</DistanceMeters>
          </Trackpoint>
          <Trackpoint>
            <Time>2022-07-10T15:33:37.000Z</Time>
            <Position>
              <LatitudeDegrees>43.27521622180938720703125</LatitudeDegrees>
              <LongitudeDegrees>-2.324762083590030670166015625</LongitudeDegrees>
            </Position>
            <AltitudeMeters>231.399993896484375</AltitudeMeters>
            <DistanceMeters>NAN</DistanceMeters>
          </Trackpoint>
          <Trackpoint>
            <Time>2022-07-10T15:33:39.000Z</Time>
            <Position>
              <LatitudeDegrees>43.27517330646514892578125</LatitudeDegrees>
              <LongitudeDegrees>-2.324762083590030670166015625</LongitudeDegrees>
            </Position>
            <AltitudeMeters>231.600006103515625</AltitudeMeters>
            <DistanceMeters>NAN</DistanceMeters>
          </Trackpoint>
          <Trackpoint>
            <Time>2022-07-10T15:33:40.000Z</Time>
            <Position>
              <LatitudeDegrees>43.27515645883977413177490234375</LatitudeDegrees>
              <LongitudeDegrees>-2.32476912438869476318359375</LongitudeDegrees>
            </Position>
            <AltitudeMeters>231.600006103515625</AltitudeMeters>
            <DistanceMeters>NAN</DistanceMeters>
          </Trackpoint>
          <Trackpoint>
            <Time>2022-07-10T15:33:47.000Z</Time>
            <Position>
              <LatitudeDegrees>43.27503341250121593475341796875</LatitudeDegrees>
              <LongitudeDegrees>-2.32479016296565532684326171875</LongitudeDegrees>
            </Position>
            <AltitudeMeters>232.399993896484375</AltitudeMeters>
            <DistanceMeters>NAN</DistanceMeters>
          </Trackpoint>
          <Trackpoint>
            <Time>2022-07-10T15:33:48.000Z</Time>
            <Position>
              <LatitudeDegrees>43.27501237392425537109375</LatitudeDegrees>
              <LongitudeDegrees>-2.32479971833527088165283203125</LongitudeDegrees>
            </Position>
            <AltitudeMeters>232.600006103515625</AltitudeMeters>
            <DistanceMeters>NAN</DistanceMeters>
          </Trackpoint>
          <Trackpoint>
            <Time>2022-07-10T15:33:58.000Z</Time>
            <Position>
              <LatitudeDegrees>43.274886310100555419921875</LatitudeDegrees>
              <LongitudeDegrees>-2.32490868307650089263916015625</LongitudeDegrees>
            </Position>
            <AltitudeMeters>233.399993896484375</AltitudeMeters>
            <DistanceMeters>NAN</DistanceMeters>
          </Trackpoint>
          <Trackpoint>
            <Time>2022-07-10T15:34:00.000Z</Time>
            <Position>
              <LatitudeDegrees>43.27486694790422916412353515625</LatitudeDegrees>
              <LongitudeDegrees>-2.3249382711946964263916015625</LongitudeDegrees>
            </Position>
            <AltitudeMeters>233.600006103515625</AltitudeMeters>
            <DistanceMeters>NAN</DistanceMeters>
          </Trackpoint>
          <Trackpoint>
            <Time>2022-07-10T15:34:06.000Z</Time>
            <Position>
              <LatitudeDegrees>43.274800479412078857421875</LatitudeDegrees>
              <LongitudeDegrees>-2.325025610625743865966796875</LongitudeDegrees>
            </Position>
            <AltitudeMeters>234.1999969482421875</AltitudeMeters>
            <DistanceMeters>NAN</DistanceMeters>
          </Trackpoint>
          <Trackpoint>
            <Time>2022-07-10T15:34:09.000Z</Time>
            <Position>
              <LatitudeDegrees>43.27477566897869110107421875</LatitudeDegrees>
              <LongitudeDegrees>-2.32507757842540740966796875</LongitudeDegrees>
            </Position>
            <AltitudeMeters>234.8000030517578125</AltitudeMeters>
            <DistanceMeters>NAN</DistanceMeters>
          </Trackpoint>
          <Trackpoint>
            <Time>2022-07-10T15:34:16.000Z</Time>
            <Position>
              <LatitudeDegrees>43.27472462318837642669677734375</LatitudeDegrees>
              <LongitudeDegrees>-2.32521076686680316925048828125</LongitudeDegrees>
            </Position>
            <AltitudeMeters>235.8000030517578125</AltitudeMeters>
            <DistanceMeters>NAN</DistanceMeters>
          </Trackpoint>
          <Trackpoint>
            <Time>2022-07-10T15:34:25.000Z</Time>
            <Position>
              <LatitudeDegrees>43.2747057639062404632568359375</LatitudeDegrees>
              <LongitudeDegrees>-2.3254073224961757659912109375</LongitudeDegrees>
            </Position>
            <AltitudeMeters>236.399993896484375</AltitudeMeters>
            <DistanceMeters>NAN</DistanceMeters>
          </Trackpoint>
          <Trackpoint>
            <Time>2022-07-10T15:34:30.000Z</Time>
            <Position>
              <LatitudeDegrees>43.27471531927585601806640625</LatitudeDegrees>
              <LongitudeDegrees>-2.3255167901515960693359375</LongitudeDegrees>
            </Position>
            <AltitudeMeters>236.8000030517578125</AltitudeMeters>
            <DistanceMeters>NAN</DistanceMeters>
          </Trackpoint>
          <Trackpoint>
            <Time>2022-07-10T15:34:32.000Z</Time>
            <Position>
              <LatitudeDegrees>43.27471707947552204132080078125</LatitudeDegrees>
              <LongitudeDegrees>-2.32555995695292949676513671875</LongitudeDegrees>
            </Position>
            <AltitudeMeters>237.1999969482421875</AltitudeMeters>
            <DistanceMeters>NAN</DistanceMeters>
          </Trackpoint>
          <Trackpoint>
            <Time>2022-07-10T15:34:37.000Z</Time>
            <Position>
              <LatitudeDegrees>43.27472898177802562713623046875</LatitudeDegrees>
              <LongitudeDegrees>-2.3256832547485828399658203125</LongitudeDegrees>
            </Position>
            <AltitudeMeters>237.8000030517578125</AltitudeMeters>
            <DistanceMeters>NAN</DistanceMeters>
          </Trackpoint>
          <Trackpoint>
            <Time>2022-07-10T15:34:39.000Z</Time>
            <Position>
              <LatitudeDegrees>43.2747386209666728973388671875</LatitudeDegrees>
              <LongitudeDegrees>-2.32572642154991626739501953125</LongitudeDegrees>
            </Position>
            <AltitudeMeters>238</AltitudeMeters>
            <DistanceMeters>NAN</DistanceMeters>
          </Trackpoint>
          <Trackpoint>
            <Time>2022-07-10T15:34:48.000Z</Time>
            <Position>
              <LatitudeDegrees>43.2748392038047313690185546875</LatitudeDegrees>
              <LongitudeDegrees>-2.3259057104587554931640625</LongitudeDegrees>
            </Position>
            <AltitudeMeters>238.8000030517578125</AltitudeMeters>
            <DistanceMeters>NAN</DistanceMeters>
          </Trackpoint>
          <Trackpoint>
            <Time>2022-07-10T15:34:55.000Z</Time>
            <Position>
              <LatitudeDegrees>43.2749334163963794708251953125</LatitudeDegrees>
              <LongitudeDegrees>-2.32602817006409168243408203125</LongitudeDegrees>
            </Position>
            <AltitudeMeters>239.399993896484375</AltitudeMeters>
            <DistanceMeters>NAN</DistanceMeters>
          </Trackpoint>
          <Trackpoint>
            <Time>2022-07-10T15:35:02.000Z</Time>
            <Position>
              <LatitudeDegrees>43.27504933811724185943603515625</LatitudeDegrees>
              <LongitudeDegrees>-2.32612120918929576873779296875</LongitudeDegrees>
            </Position>
            <AltitudeMeters>239.8000030517578125</AltitudeMeters>
            <DistanceMeters>NAN</DistanceMeters>
          </Trackpoint>
          <Trackpoint>
            <Time>2022-07-10T15:35:03.000Z</Time>
            <Position>
              <LatitudeDegrees>43.27506534755229949951171875</LatitudeDegrees>
              <LongitudeDegrees>-2.32613277621567249298095703125</LongitudeDegrees>
            </Position>
            <AltitudeMeters>239.8000030517578125</AltitudeMeters>
            <DistanceMeters>NAN</DistanceMeters>
          </Trackpoint>
          <Trackpoint>
            <Time>2022-07-10T15:35:08.000Z</Time>
            <Position>
              <LatitudeDegrees>43.27516098506748676300048828125</LatitudeDegrees>
              <LongitudeDegrees>-2.326164208352565765380859375</LongitudeDegrees>
            </Position>
            <AltitudeMeters>240.1999969482421875</AltitudeMeters>
            <DistanceMeters>NAN</DistanceMeters>
          </Trackpoint>
          <Trackpoint>
            <Time>2022-07-10T15:35:10.000Z</Time>
            <Position>
              <LatitudeDegrees>43.27520406804978847503662109375</LatitudeDegrees>
              <LongitudeDegrees>-2.32616093941032886505126953125</LongitudeDegrees>
            </Position>
            <AltitudeMeters>240.399993896484375</AltitudeMeters>
            <DistanceMeters>NAN</DistanceMeters>
          </Trackpoint>
          <Trackpoint>
            <Time>2022-07-10T15:35:14.000Z</Time>
            <Position>
              <LatitudeDegrees>43.2752770744264125823974609375</LatitudeDegrees>
              <LongitudeDegrees>-2.326148450374603271484375</LongitudeDegrees>
            </Position>
            <AltitudeMeters>240.8000030517578125</AltitudeMeters>
            <DistanceMeters>NAN</DistanceMeters>
          </Trackpoint>
          <Trackpoint>
            <Time>2022-07-10T15:35:18.000Z</Time>
            <Position>
              <LatitudeDegrees>43.27533868141472339630126953125</LatitudeDegrees>
              <LongitudeDegrees>-2.32612992636859416961669921875</LongitudeDegrees>
            </Position>
            <AltitudeMeters>241.1999969482421875</AltitudeMeters>
            <DistanceMeters>NAN</DistanceMeters>
          </Trackpoint>
          <Trackpoint>
            <Time>2022-07-10T15:35:25.000Z</Time>
            <Position>
              <LatitudeDegrees>43.27546474523842334747314453125</LatitudeDegrees>
              <LongitudeDegrees>-2.32612037099897861480712890625</LongitudeDegrees>
            </Position>
            <AltitudeMeters>242</AltitudeMeters>
            <DistanceMeters>NAN</DistanceMeters>
          </Trackpoint>
          <Trackpoint>
            <Time>2022-07-10T15:35:26.000Z</Time>
            <Position>
              <LatitudeDegrees>43.27548050321638584136962890625</LatitudeDegrees>
              <LongitudeDegrees>-2.3261160962283611297607421875</LongitudeDegrees>
            </Position>
            <AltitudeMeters>242</AltitudeMeters>
            <DistanceMeters>NAN</DistanceMeters>
          </Trackpoint>
          <Trackpoint>
            <Time>2022-07-10T15:35:33.000Z</Time>
            <Position>
              <LatitudeDegrees>43.275593407452106475830078125</LatitudeDegrees>
              <LongitudeDegrees>-2.32611433602869510650634765625</LongitudeDegrees>
            </Position>
            <AltitudeMeters>242.8000030517578125</AltitudeMeters>
            <DistanceMeters>NAN</DistanceMeters>
          </Trackpoint>
          <Trackpoint>
            <Time>2022-07-10T15:35:36.000Z</Time>
            <Position>
              <LatitudeDegrees>43.2756428606808185577392578125</LatitudeDegrees>
              <LongitudeDegrees>-2.326114587485790252685546875</LongitudeDegrees>
            </Position>
            <AltitudeMeters>243</AltitudeMeters>
            <DistanceMeters>NAN</DistanceMeters>
          </Trackpoint>
          <Trackpoint>
            <Time>2022-07-10T15:35:38.000Z</Time>
            <Position>
              <LatitudeDegrees>43.27568150125443935394287109375</LatitudeDegrees>
              <LongitudeDegrees>-2.32610176317393779754638671875</LongitudeDegrees>
            </Position>
            <AltitudeMeters>243.1999969482421875</AltitudeMeters>
            <DistanceMeters>NAN</DistanceMeters>
          </Trackpoint>
          <Trackpoint>
            <Time>2022-07-10T15:35:42.000Z</Time>
            <Position>
              <LatitudeDegrees>43.27576272189617156982421875</LatitudeDegrees>
              <LongitudeDegrees>-2.32608483172953128814697265625</LongitudeDegrees>
            </Position>
            <AltitudeMeters>243.600006103515625</AltitudeMeters>
            <DistanceMeters>NAN</DistanceMeters>
          </Trackpoint>
          <Trackpoint>
            <Time>2022-07-10T15:35:49.000Z</Time>
            <Position>
              <LatitudeDegrees>43.2759234867990016937255859375</LatitudeDegrees>
              <LongitudeDegrees>-2.32611852698028087615966796875</LongitudeDegrees>
            </Position>
            <AltitudeMeters>244</AltitudeMeters>
            <DistanceMeters>NAN</DistanceMeters>
          </Trackpoint>
          <Trackpoint>
            <Time>2022-07-10T15:35:51.000Z</Time>
            <Position>
              <LatitudeDegrees>43.27597067691385746002197265625</LatitudeDegrees>
              <LongitudeDegrees>-2.32614551670849323272705078125</LongitudeDegrees>
            </Position>
            <AltitudeMeters>244.1999969482421875</AltitudeMeters>
            <DistanceMeters>NAN</DistanceMeters>
          </Trackpoint>
          <Trackpoint>
            <Time>2022-07-10T15:36:00.000Z</Time>
            <Position>
              <LatitudeDegrees>43.2761618681252002716064453125</LatitudeDegrees>
              <LongitudeDegrees>-2.3262329399585723876953125</LongitudeDegrees>
            </Position>
            <AltitudeMeters>244.8000030517578125</AltitudeMeters>
            <DistanceMeters>NAN</DistanceMeters>
          </Trackpoint>
          <Trackpoint>
            <Time>2022-07-10T15:36:06.000Z</Time>
            <Position>
              <LatitudeDegrees>43.27629388310015201568603515625</LatitudeDegrees>
              <LongitudeDegrees>-2.32632170431315898895263671875</LongitudeDegrees>
            </Position>
            <AltitudeMeters>245.1999969482421875</AltitudeMeters>
            <DistanceMeters>NAN</DistanceMeters>
          </Trackpoint>
          <Trackpoint>
            <Time>2022-07-10T15:36:12.000Z</Time>
            <Position>
              <LatitudeDegrees>43.2764217071235179901123046875</LatitudeDegrees>
              <LongitudeDegrees>-2.3264000751078128814697265625</LongitudeDegrees>
            </Position>
            <AltitudeMeters>245.399993896484375</AltitudeMeters>
            <DistanceMeters>NAN</DistanceMeters>
          </Trackpoint>
          <Trackpoint>
            <Time>2022-07-10T15:36:19.000Z</Time>
            <Position>
              <LatitudeDegrees>43.2765628583729267120361328125</LatitudeDegrees>
              <LongitudeDegrees>-2.32650241814553737640380859375</LongitudeDegrees>
            </Position>
            <AltitudeMeters>245.600006103515625</AltitudeMeters>
            <DistanceMeters>NAN</DistanceMeters>
          </Trackpoint>
          <Trackpoint>
            <Time>2022-07-10T15:36:22.000Z</Time>
            <Position>
              <LatitudeDegrees>43.27662228606641292572021484375</LatitudeDegrees>
              <LongitudeDegrees>-2.32654516585171222686767578125</LongitudeDegrees>
            </Position>
            <AltitudeMeters>245.8000030517578125</AltitudeMeters>
            <DistanceMeters>NAN</DistanceMeters>
          </Trackpoint>
          <Trackpoint>
            <Time>2022-07-10T15:36:29.000Z</Time>
            <Position>
              <LatitudeDegrees>43.27675723470747470855712890625</LatitudeDegrees>
              <LongitudeDegrees>-2.32663418166339397430419921875</LongitudeDegrees>
            </Position>
            <AltitudeMeters>246.1999969482421875</AltitudeMeters>
            <DistanceMeters>NAN</DistanceMeters>
          </Trackpoint>
          <Trackpoint>
            <Time>2022-07-10T15:36:31.000Z</Time>
            <Position>
              <LatitudeDegrees>43.276797048747539520263671875</LatitudeDegrees>
              <LongitudeDegrees>-2.32665983028709888458251953125</LongitudeDegrees>
            </Position>
            <AltitudeMeters>246.1999969482421875</AltitudeMeters>
            <DistanceMeters>NAN</DistanceMeters>
          </Trackpoint>
          <Trackpoint>
            <Time>2022-07-10T15:36:39.000Z</Time>
            <Position>
              <LatitudeDegrees>43.27694146893918514251708984375</LatitudeDegrees>
              <LongitudeDegrees>-2.3267511092126369476318359375</LongitudeDegrees>
            </Position>
            <AltitudeMeters>246.600006103515625</AltitudeMeters>
            <DistanceMeters>NAN</DistanceMeters>
          </Trackpoint>
          <Trackpoint>
            <Time>2022-07-10T15:36:47.000Z</Time>
            <Position>
              <LatitudeDegrees>43.27707809396088123321533203125</LatitudeDegrees>
              <LongitudeDegrees>-2.32688278891146183013916015625</LongitudeDegrees>
            </Position>
            <AltitudeMeters>247</AltitudeMeters>
            <DistanceMeters>NAN</DistanceMeters>
          </Trackpoint>
          <Trackpoint>
            <Time>2022-07-10T15:36:50.000Z</Time>
            <Position>
              <LatitudeDegrees>43.2771385274827480316162109375</LatitudeDegrees>
              <LongitudeDegrees>-2.32692159712314605712890625</LongitudeDegrees>
            </Position>
            <AltitudeMeters>247.1999969482421875</AltitudeMeters>
            <DistanceMeters>NAN</DistanceMeters>
          </Trackpoint>
          <Trackpoint>
            <Time>2022-07-10T15:36:57.000Z</Time>
            <Position>
              <LatitudeDegrees>43.2772774994373321533203125</LatitudeDegrees>
              <LongitudeDegrees>-2.3270161449909210205078125</LongitudeDegrees>
            </Position>
            <AltitudeMeters>247.399993896484375</AltitudeMeters>
            <DistanceMeters>NAN</DistanceMeters>
          </Trackpoint>
          <Trackpoint>
            <Time>2022-07-10T15:37:05.000Z</Time>
            <Position>
              <LatitudeDegrees>43.27743868343532085418701171875</LatitudeDegrees>
              <LongitudeDegrees>-2.32712284661829471588134765625</LongitudeDegrees>
            </Position>
            <AltitudeMeters>248.1999969482421875</AltitudeMeters>
            <DistanceMeters>NAN</DistanceMeters>
          </Trackpoint>
          <Trackpoint>
            <Time>2022-07-10T15:37:07.000Z</Time>
            <Position>
              <LatitudeDegrees>43.277479670941829681396484375</LatitudeDegrees>
              <LongitudeDegrees>-2.327144555747509002685546875</LongitudeDegrees>
            </Position>
            <AltitudeMeters>248.399993896484375</AltitudeMeters>
            <DistanceMeters>NAN</DistanceMeters>
          </Trackpoint>
          <Trackpoint>
            <Time>2022-07-10T15:37:16.000Z</Time>
            <Position>
              <LatitudeDegrees>43.27764320187270641326904296875</LatitudeDegrees>
              <LongitudeDegrees>-2.32723684050142765045166015625</LongitudeDegrees>
            </Position>
            <AltitudeMeters>249.1999969482421875</AltitudeMeters>
            <DistanceMeters>NAN</DistanceMeters>
          </Trackpoint>
          <Trackpoint>
            <Time>2022-07-10T15:37:17.000Z</Time>
            <Position>
              <LatitudeDegrees>43.2776610553264617919921875</LatitudeDegrees>
              <LongitudeDegrees>-2.3272436298429965972900390625</LongitudeDegrees>
            </Position>
            <AltitudeMeters>249.399993896484375</AltitudeMeters>
            <DistanceMeters>NAN</DistanceMeters>
          </Trackpoint>
          <Trackpoint>
            <Time>2022-07-10T15:37:25.000Z</Time>
            <Position>
              <LatitudeDegrees>43.27778586186468601226806640625</LatitudeDegrees>
              <LongitudeDegrees>-2.3273291252553462982177734375</LongitudeDegrees>
            </Position>
            <AltitudeMeters>250.399993896484375</AltitudeMeters>
            <DistanceMeters>NAN</DistanceMeters>
          </Trackpoint>
          <Trackpoint>
            <Time>2022-07-10T15:37:27.000Z</Time>
            <Position>
              <LatitudeDegrees>43.277818970382213592529296875</LatitudeDegrees>
              <LongitudeDegrees>-2.32734681107103824615478515625</LongitudeDegrees>
            </Position>
            <AltitudeMeters>250.600006103515625</AltitudeMeters>
            <DistanceMeters>NAN</DistanceMeters>
          </Trackpoint>
          <Trackpoint>
            <Time>2022-07-10T15:37:34.000Z</Time>
            <Position>
              <LatitudeDegrees>43.2779371552169322967529296875</LatitudeDegrees>
              <LongitudeDegrees>-2.32744236476719379425048828125</LongitudeDegrees>
            </Position>
            <AltitudeMeters>251.399993896484375</AltitudeMeters>
            <DistanceMeters>NAN</DistanceMeters>
          </Trackpoint>
          <Trackpoint>
            <Time>2022-07-10T15:37:35.000Z</Time>
            <Position>
              <LatitudeDegrees>43.27795006334781646728515625</LatitudeDegrees>
              <LongitudeDegrees>-2.32745979912579059600830078125</LongitudeDegrees>
            </Position>
            <AltitudeMeters>251.399993896484375</AltitudeMeters>
            <DistanceMeters>NAN</DistanceMeters>
          </Trackpoint>
          <Trackpoint>
            <Time>2022-07-10T15:37:45.000Z</Time>
            <Position>
              <LatitudeDegrees>43.27808995731174945831298828125</LatitudeDegrees>
              <LongitudeDegrees>-2.3276167921721935272216796875</LongitudeDegrees>
            </Position>
            <AltitudeMeters>252.600006103515625</AltitudeMeters>
            <DistanceMeters>NAN</DistanceMeters>
          </Trackpoint>
          <Trackpoint>
            <Time>2022-07-10T15:37:47.000Z</Time>
            <Position>
              <LatitudeDegrees>43.2781158573925495147705078125</LatitudeDegrees>
              <LongitudeDegrees>-2.32765853404998779296875</LongitudeDegrees>
            </Position>
            <AltitudeMeters>252.8000030517578125</AltitudeMeters>
            <DistanceMeters>NAN</DistanceMeters>
          </Trackpoint>
          <Trackpoint>
            <Time>2022-07-10T15:37:52.000Z</Time>
            <Position>
              <LatitudeDegrees>43.27817612327635288238525390625</LatitudeDegrees>
              <LongitudeDegrees>-2.32775048352777957916259765625</LongitudeDegrees>
            </Position>
            <AltitudeMeters>253.600006103515625</AltitudeMeters>
            <DistanceMeters>NAN</DistanceMeters>
          </Trackpoint>
          <Trackpoint>
            <Time>2022-07-10T15:37:57.000Z</Time>
            <Position>
              <LatitudeDegrees>43.27824032865464687347412109375</LatitudeDegrees>
              <LongitudeDegrees>-2.32785098254680633544921875</LongitudeDegrees>
            </Position>
            <AltitudeMeters>254</AltitudeMeters>
            <DistanceMeters>NAN</DistanceMeters>
          </Trackpoint>
          <Trackpoint>
            <Time>2022-07-10T15:38:00.000Z</Time>
            <Position>
              <LatitudeDegrees>43.278276287019252777099609375</LatitudeDegrees>
              <LongitudeDegrees>-2.327913343906402587890625</LongitudeDegrees>
            </Position>
            <AltitudeMeters>254.1999969482421875</AltitudeMeters>
            <DistanceMeters>NAN</DistanceMeters>
          </Trackpoint>
          <Trackpoint>
            <Time>2022-07-10T15:38:08.000Z</Time>
            <Position>
              <LatitudeDegrees>43.27835432253777980804443359375</LatitudeDegrees>
              <LongitudeDegrees>-2.3280917108058929443359375</LongitudeDegrees>
            </Position>
            <AltitudeMeters>254.600006103515625</AltitudeMeters>
            <DistanceMeters>NAN</DistanceMeters>
          </Trackpoint>
          <Trackpoint>
            <Time>2022-07-10T15:38:09.000Z</Time>
            <Position>
              <LatitudeDegrees>43.27836002223193645477294921875</LatitudeDegrees>
              <LongitudeDegrees>-2.328113503754138946533203125</LongitudeDegrees>
            </Position>
            <AltitudeMeters>254.600006103515625</AltitudeMeters>
            <DistanceMeters>NAN</DistanceMeters>
          </Trackpoint>
          <Trackpoint>
            <Time>2022-07-10T15:38:16.000Z</Time>
            <Position>
              <LatitudeDegrees>43.27840276993811130523681640625</LatitudeDegrees>
              <LongitudeDegrees>-2.32827217318117618560791015625</LongitudeDegrees>
            </Position>
            <AltitudeMeters>255</AltitudeMeters>
            <DistanceMeters>NAN</DistanceMeters>
          </Trackpoint>
          <Trackpoint>
            <Time>2022-07-10T15:38:24.000Z</Time>
            <Position>
              <LatitudeDegrees>43.27845222316682338714599609375</LatitudeDegrees>
              <LongitudeDegrees>-2.32845372520387172698974609375</LongitudeDegrees>
            </Position>
            <AltitudeMeters>255.1999969482421875</AltitudeMeters>
            <DistanceMeters>NAN</DistanceMeters>
          </Trackpoint>
          <Trackpoint>
            <Time>2022-07-10T15:38:29.000Z</Time>
            <Position>
              <LatitudeDegrees>43.278483487665653228759765625</LatitudeDegrees>
              <LongitudeDegrees>-2.328578867018222808837890625</LongitudeDegrees>
            </Position>
            <AltitudeMeters>255.600006103515625</AltitudeMeters>
            <DistanceMeters>NAN</DistanceMeters>
          </Trackpoint>
          <Trackpoint>
            <Time>2022-07-10T15:38:31.000Z</Time>
            <Position>
              <LatitudeDegrees>43.27849463559687137603759765625</LatitudeDegrees>
              <LongitudeDegrees>-2.3286229558289051055908203125</LongitudeDegrees>
            </Position>
            <AltitudeMeters>255.600006103515625</AltitudeMeters>
            <DistanceMeters>NAN</DistanceMeters>
          </Trackpoint>
          <Trackpoint>
            <Time>2022-07-10T15:38:32.000Z</Time>
            <Position>
              <LatitudeDegrees>43.27849882654845714569091796875</LatitudeDegrees>
              <LongitudeDegrees>-2.32864634133875370025634765625</LongitudeDegrees>
            </Position>
            <AltitudeMeters>255.600006103515625</AltitudeMeters>
            <DistanceMeters>NAN</DistanceMeters>
          </Trackpoint>
          <Trackpoint>
            <Time>2022-07-10T15:38:39.000Z</Time>
            <Position>
              <LatitudeDegrees>43.27854283154010772705078125</LatitudeDegrees>
              <LongitudeDegrees>-2.32880040071904659271240234375</LongitudeDegrees>
            </Position>
            <AltitudeMeters>256.20001220703125</AltitudeMeters>
            <DistanceMeters>NAN</DistanceMeters>
          </Trackpoint>
          <Trackpoint>
            <Time>2022-07-10T15:38:46.000Z</Time>
            <Position>
              <LatitudeDegrees>43.2785896025598049163818359375</LatitudeDegrees>
              <LongitudeDegrees>-2.32896300964057445526123046875</LongitudeDegrees>
            </Position>
            <AltitudeMeters>256.600006103515625</AltitudeMeters>
            <DistanceMeters>NAN</DistanceMeters>
          </Trackpoint>
          <Trackpoint>
            <Time>2022-07-10T15:38:48.000Z</Time>
            <Position>
              <LatitudeDegrees>43.2786134071648120880126953125</LatitudeDegrees>
              <LongitudeDegrees>-2.3290018178522586822509765625</LongitudeDegrees>
            </Position>
            <AltitudeMeters>257</AltitudeMeters>
            <DistanceMeters>NAN</DistanceMeters>
          </Trackpoint>
          <Trackpoint>
            <Time>2022-07-10T15:38:56.000Z</Time>
            <Position>
              <LatitudeDegrees>43.278730921447277069091796875</LatitudeDegrees>
              <LongitudeDegrees>-2.329102568328380584716796875</LongitudeDegrees>
            </Position>
            <AltitudeMeters>257.399993896484375</AltitudeMeters>
            <DistanceMeters>NAN</DistanceMeters>
          </Trackpoint>
          <Trackpoint>
            <Time>2022-07-10T15:39:03.000Z</Time>
            <Position>
              <LatitudeDegrees>43.2788484357297420501708984375</LatitudeDegrees>
              <LongitudeDegrees>-2.32920139096677303314208984375</LongitudeDegrees>
            </Position>
            <AltitudeMeters>257.20001220703125</AltitudeMeters>
            <DistanceMeters>NAN</DistanceMeters>
          </Trackpoint>
          <Trackpoint>
            <Time>2022-07-10T15:39:04.000Z</Time>
            <Position>
              <LatitudeDegrees>43.27885807491838932037353515625</LatitudeDegrees>
              <LongitudeDegrees>-2.32922452501952648162841796875</LongitudeDegrees>
            </Position>
            <AltitudeMeters>257</AltitudeMeters>
            <DistanceMeters>NAN</DistanceMeters>
          </Trackpoint>
          <Trackpoint>
            <Time>2022-07-10T15:39:09.000Z</Time>
            <Position>
              <LatitudeDegrees>43.2788648642599582672119140625</LatitudeDegrees>
              <LongitudeDegrees>-2.32933952473104000091552734375</LongitudeDegrees>
            </Position>
            <AltitudeMeters>257</AltitudeMeters>
            <DistanceMeters>NAN</DistanceMeters>
          </Trackpoint>
          <Trackpoint>
            <Time>2022-07-10T15:39:12.000Z</Time>
            <Position>
              <LatitudeDegrees>43.27886469662189483642578125</LatitudeDegrees>
              <LongitudeDegrees>-2.32934421859681606292724609375</LongitudeDegrees>
            </Position>
            <AltitudeMeters>257</AltitudeMeters>
            <DistanceMeters>NAN</DistanceMeters>
          </Trackpoint>
          <Trackpoint>
            <Time>2022-07-10T15:40:32.000Z</Time>
            <Position>
              <LatitudeDegrees>43.2788501121103763580322265625</LatitudeDegrees>
              <LongitudeDegrees>-2.32940004207193851470947265625</LongitudeDegrees>
            </Position>
            <AltitudeMeters>257</AltitudeMeters>
            <DistanceMeters>NAN</DistanceMeters>
          </Trackpoint>
          <Trackpoint>
            <Time>2022-07-10T15:40:33.000Z</Time>
            <Position>
              <LatitudeDegrees>43.2788393832743167877197265625</LatitudeDegrees>
              <LongitudeDegrees>-2.329425774514675140380859375</LongitudeDegrees>
            </Position>
            <AltitudeMeters>257</AltitudeMeters>
            <DistanceMeters>NAN</DistanceMeters>
          </Trackpoint>
          <Trackpoint>
            <Time>2022-07-10T15:40:40.000Z</Time>
            <Position>
              <LatitudeDegrees>43.2787857390940189361572265625</LatitudeDegrees>
              <LongitudeDegrees>-2.329629957675933837890625</LongitudeDegrees>
            </Position>
            <AltitudeMeters>257.600006103515625</AltitudeMeters>
            <DistanceMeters>NAN</DistanceMeters>
          </Trackpoint>
          <Trackpoint>
            <Time>2022-07-10T15:40:48.000Z</Time>
            <Position>
              <LatitudeDegrees>43.27879772521555423736572265625</LatitudeDegrees>
              <LongitudeDegrees>-2.32993505895137786865234375</LongitudeDegrees>
            </Position>
            <AltitudeMeters>257.399993896484375</AltitudeMeters>
            <DistanceMeters>NAN</DistanceMeters>
          </Trackpoint>
          <Trackpoint>
            <Time>2022-07-10T15:40:52.000Z</Time>
            <Position>
              <LatitudeDegrees>43.278781883418560028076171875</LatitudeDegrees>
              <LongitudeDegrees>-2.33016363345086574554443359375</LongitudeDegrees>
            </Position>
            <AltitudeMeters>257</AltitudeMeters>
            <DistanceMeters>NAN</DistanceMeters>
          </Trackpoint>
          <Trackpoint>
            <Time>2022-07-10T15:40:54.000Z</Time>
            <Position>
              <LatitudeDegrees>43.27875765971839427947998046875</LatitudeDegrees>
              <LongitudeDegrees>-2.33029355295002460479736328125</LongitudeDegrees>
            </Position>
            <AltitudeMeters>256.79998779296875</AltitudeMeters>
            <DistanceMeters>NAN</DistanceMeters>
          </Trackpoint>
          <Trackpoint>
            <Time>2022-07-10T15:41:01.000Z</Time>
            <Position>
              <LatitudeDegrees>43.2786321826279163360595703125</LatitudeDegrees>
              <LongitudeDegrees>-2.33077635057270526885986328125</LongitudeDegrees>
            </Position>
            <AltitudeMeters>255.8000030517578125</AltitudeMeters>
            <DistanceMeters>NAN</DistanceMeters>
          </Trackpoint>
          <Trackpoint>
            <Time>2022-07-10T15:41:02.000Z</Time>
            <Position>
              <LatitudeDegrees>43.27861516736447811126708984375</LatitudeDegrees>
              <LongitudeDegrees>-2.3308491893112659454345703125</LongitudeDegrees>
            </Position>
            <AltitudeMeters>255.600006103515625</AltitudeMeters>
            <DistanceMeters>NAN</DistanceMeters>
          </Trackpoint>
          <Trackpoint>
            <Time>2022-07-10T15:41:08.000Z</Time>
            <Position>
              <LatitudeDegrees>43.27850251458585262298583984375</LatitudeDegrees>
              <LongitudeDegrees>-2.3312706314027309417724609375</LongitudeDegrees>
            </Position>
            <AltitudeMeters>254.600006103515625</AltitudeMeters>
            <DistanceMeters>NAN</DistanceMeters>
          </Trackpoint>
          <Trackpoint>
            <Time>2022-07-10T15:41:09.000Z</Time>
            <Position>
              <LatitudeDegrees>43.2784769497811794281005859375</LatitudeDegrees>
              <LongitudeDegrees>-2.33133676461875438690185546875</LongitudeDegrees>
            </Position>
            <AltitudeMeters>254.1999969482421875</AltitudeMeters>
            <DistanceMeters>NAN</DistanceMeters>
          </Trackpoint>
          <Trackpoint>
            <Time>2022-07-10T15:41:11.000Z</Time>
            <Position>
              <LatitudeDegrees>43.27841919846832752227783203125</LatitudeDegrees>
              <LongitudeDegrees>-2.33147271908819675445556640625</LongitudeDegrees>
            </Position>
            <AltitudeMeters>254</AltitudeMeters>
            <DistanceMeters>NAN</DistanceMeters>
          </Trackpoint>
          <Trackpoint>
            <Time>2022-07-10T15:41:12.000Z</Time>
            <Position>
              <LatitudeDegrees>43.2784015126526355743408203125</LatitudeDegrees>
              <LongitudeDegrees>-2.3315437138080596923828125</LongitudeDegrees>
            </Position>
            <AltitudeMeters>254</AltitudeMeters>
            <DistanceMeters>NAN</DistanceMeters>
          </Trackpoint>
          <Trackpoint>
            <Time>2022-07-10T15:41:13.000Z</Time>
            <Position>
              <LatitudeDegrees>43.27839489094913005828857421875</LatitudeDegrees>
              <LongitudeDegrees>-2.33162342570722103118896484375</LongitudeDegrees>
            </Position>
            <AltitudeMeters>254</AltitudeMeters>
            <DistanceMeters>NAN</DistanceMeters>
          </Trackpoint>
          <Trackpoint>
            <Time>2022-07-10T15:41:14.000Z</Time>
            <Position>
              <LatitudeDegrees>43.278405368328094482421875</LatitudeDegrees>
              <LongitudeDegrees>-2.331719733774662017822265625</LongitudeDegrees>
            </Position>
            <AltitudeMeters>254</AltitudeMeters>
            <DistanceMeters>NAN</DistanceMeters>
          </Trackpoint>
          <Trackpoint>
            <Time>2022-07-10T15:41:15.000Z</Time>
            <Position>
              <LatitudeDegrees>43.278429843485355377197265625</LatitudeDegrees>
              <LongitudeDegrees>-2.33177698217332363128662109375</LongitudeDegrees>
            </Position>
            <AltitudeMeters>253.8000030517578125</AltitudeMeters>
            <DistanceMeters>NAN</DistanceMeters>
          </Trackpoint>
          <Trackpoint>
            <Time>2022-07-10T15:41:17.000Z</Time>
            <Position>
              <LatitudeDegrees>43.27851709909737110137939453125</LatitudeDegrees>
              <LongitudeDegrees>-2.33189650811254978179931640625</LongitudeDegrees>
            </Position>
            <AltitudeMeters>253.600006103515625</AltitudeMeters>
            <DistanceMeters>NAN</DistanceMeters>
          </Trackpoint>
          <Trackpoint>
            <Time>2022-07-10T15:41:18.000Z</Time>
            <Position>
              <LatitudeDegrees>43.2785497047007083892822265625</LatitudeDegrees>
              <LongitudeDegrees>-2.33196205459535121917724609375</LongitudeDegrees>
            </Position>
            <AltitudeMeters>253.399993896484375</AltitudeMeters>
            <DistanceMeters>NAN</DistanceMeters>
          </Trackpoint>
          <Trackpoint>
            <Time>2022-07-10T15:41:19.000Z</Time>
            <Position>
              <LatitudeDegrees>43.27857099473476409912109375</LatitudeDegrees>
              <LongitudeDegrees>-2.33203145675361156463623046875</LongitudeDegrees>
            </Position>
            <AltitudeMeters>253.1999969482421875</AltitudeMeters>
            <DistanceMeters>NAN</DistanceMeters>
          </Trackpoint>
          <Trackpoint>
            <Time>2022-07-10T15:41:21.000Z</Time>
            <Position>
              <LatitudeDegrees>43.27858583070337772369384765625</LatitudeDegrees>
              <LongitudeDegrees>-2.33216187916696071624755859375</LongitudeDegrees>
            </Position>
            <AltitudeMeters>253</AltitudeMeters>
            <DistanceMeters>NAN</DistanceMeters>
          </Trackpoint>
          <Trackpoint>
            <Time>2022-07-10T15:41:23.000Z</Time>
            <Position>
              <LatitudeDegrees>43.27858868055045604705810546875</LatitudeDegrees>
              <LongitudeDegrees>-2.3322851769626140594482421875</LongitudeDegrees>
            </Position>
            <AltitudeMeters>253</AltitudeMeters>
            <DistanceMeters>NAN</DistanceMeters>
          </Trackpoint>
          <Trackpoint>
            <Time>2022-07-10T15:41:25.000Z</Time>
            <Position>
              <LatitudeDegrees>43.27861315570771694183349609375</LatitudeDegrees>
              <LongitudeDegrees>-2.332407720386981964111328125</LongitudeDegrees>
            </Position>
            <AltitudeMeters>253</AltitudeMeters>
            <DistanceMeters>NAN</DistanceMeters>
          </Trackpoint>
          <Trackpoint>
            <Time>2022-07-10T15:41:26.000Z</Time>
            <Position>
              <LatitudeDegrees>43.278641067445278167724609375</LatitudeDegrees>
              <LongitudeDegrees>-2.332457341253757476806640625</LongitudeDegrees>
            </Position>
            <AltitudeMeters>253</AltitudeMeters>
            <DistanceMeters>NAN</DistanceMeters>
          </Trackpoint>
          <Trackpoint>
            <Time>2022-07-10T15:41:28.000Z</Time>
            <Position>
              <LatitudeDegrees>43.27871046960353851318359375</LatitudeDegrees>
              <LongitudeDegrees>-2.3325487039983272552490234375</LongitudeDegrees>
            </Position>
            <AltitudeMeters>252.8000030517578125</AltitudeMeters>
            <DistanceMeters>NAN</DistanceMeters>
          </Trackpoint>
          <Trackpoint>
            <Time>2022-07-10T15:41:31.000Z</Time>
            <Position>
              <LatitudeDegrees>43.27884835191071033477783203125</LatitudeDegrees>
              <LongitudeDegrees>-2.332669906318187713623046875</LongitudeDegrees>
            </Position>
            <AltitudeMeters>252.600006103515625</AltitudeMeters>
            <DistanceMeters>NAN</DistanceMeters>
          </Trackpoint>
          <Trackpoint>
            <Time>2022-07-10T15:41:33.000Z</Time>
            <Position>
              <LatitudeDegrees>43.27896066941320896148681640625</LatitudeDegrees>
              <LongitudeDegrees>-2.33276554383337497711181640625</LongitudeDegrees>
            </Position>
            <AltitudeMeters>252.1999969482421875</AltitudeMeters>
            <DistanceMeters>NAN</DistanceMeters>
          </Trackpoint>
          <Trackpoint>
            <Time>2022-07-10T15:41:38.000Z</Time>
            <Position>
              <LatitudeDegrees>43.279183544218540191650390625</LatitudeDegrees>
              <LongitudeDegrees>-2.3329631052911281585693359375</LongitudeDegrees>
            </Position>
            <AltitudeMeters>251.1999969482421875</AltitudeMeters>
            <DistanceMeters>NAN</DistanceMeters>
          </Trackpoint>
          <Trackpoint>
            <Time>2022-07-10T15:41:41.000Z</Time>
            <Position>
              <LatitudeDegrees>43.27931262552738189697265625</LatitudeDegrees>
              <LongitudeDegrees>-2.3330868221819400787353515625</LongitudeDegrees>
            </Position>
            <AltitudeMeters>250.399993896484375</AltitudeMeters>
            <DistanceMeters>NAN</DistanceMeters>
          </Trackpoint>
          <Trackpoint>
            <Time>2022-07-10T15:41:45.000Z</Time>
            <Position>
              <LatitudeDegrees>43.27948973514139652252197265625</LatitudeDegrees>
              <LongitudeDegrees>-2.33324264176189899444580078125</LongitudeDegrees>
            </Position>
            <AltitudeMeters>250</AltitudeMeters>
            <DistanceMeters>NAN</DistanceMeters>
          </Trackpoint>
          <Trackpoint>
            <Time>2022-07-10T15:41:50.000Z</Time>
            <Position>
              <LatitudeDegrees>43.2796520926058292388916015625</LatitudeDegrees>
              <LongitudeDegrees>-2.3334105312824249267578125</LongitudeDegrees>
            </Position>
            <AltitudeMeters>249.600006103515625</AltitudeMeters>
            <DistanceMeters>NAN</DistanceMeters>
          </Trackpoint>
          <Trackpoint>
            <Time>2022-07-10T15:41:51.000Z</Time>
            <Position>
              <LatitudeDegrees>43.2797208242118358612060546875</LatitudeDegrees>
              <LongitudeDegrees>-2.3335085995495319366455078125</LongitudeDegrees>
            </Position>
            <AltitudeMeters>249.399993896484375</AltitudeMeters>
            <DistanceMeters>NAN</DistanceMeters>
          </Trackpoint>
          <Trackpoint>
            <Time>2022-07-10T15:41:55.000Z</Time>
            <Position>
              <LatitudeDegrees>43.2798519171774387359619140625</LatitudeDegrees>
              <LongitudeDegrees>-2.333728708326816558837890625</LongitudeDegrees>
            </Position>
            <AltitudeMeters>249</AltitudeMeters>
            <DistanceMeters>NAN</DistanceMeters>
          </Trackpoint>
          <Trackpoint>
            <Time>2022-07-10T15:41:56.000Z</Time>
            <Position>
              <LatitudeDegrees>43.279878236353397369384765625</LatitudeDegrees>
              <LongitudeDegrees>-2.3337895609438419342041015625</LongitudeDegrees>
            </Position>
            <AltitudeMeters>248.8000030517578125</AltitudeMeters>
            <DistanceMeters>NAN</DistanceMeters>
          </Trackpoint>
          <Trackpoint>
            <Time>2022-07-10T15:42:01.000Z</Time>
            <Position>
              <LatitudeDegrees>43.2799597084522247314453125</LatitudeDegrees>
              <LongitudeDegrees>-2.3341120965778827667236328125</LongitudeDegrees>
            </Position>
            <AltitudeMeters>248.1999969482421875</AltitudeMeters>
            <DistanceMeters>NAN</DistanceMeters>
          </Trackpoint>
          <Trackpoint>
            <Time>2022-07-10T15:42:02.000Z</Time>
            <Position>
              <LatitudeDegrees>43.27997370623052120208740234375</LatitudeDegrees>
              <LongitudeDegrees>-2.33418325893580913543701171875</LongitudeDegrees>
            </Position>
            <AltitudeMeters>248</AltitudeMeters>
            <DistanceMeters>NAN</DistanceMeters>
          </Trackpoint>
          <Trackpoint>
            <Time>2022-07-10T15:42:03.000Z</Time>
            <Position>
              <LatitudeDegrees>43.2799853570759296417236328125</LatitudeDegrees>
              <LongitudeDegrees>-2.33425601385533809661865234375</LongitudeDegrees>
            </Position>
            <AltitudeMeters>248</AltitudeMeters>
            <DistanceMeters>NAN</DistanceMeters>
          </Trackpoint>
          <Trackpoint>
            <Time>2022-07-10T15:42:10.000Z</Time>
            <Position>
              <LatitudeDegrees>43.28006624244153499603271484375</LatitudeDegrees>
              <LongitudeDegrees>-2.33473755419254302978515625</LongitudeDegrees>
            </Position>
            <AltitudeMeters>247</AltitudeMeters>
            <DistanceMeters>NAN</DistanceMeters>
          </Trackpoint>
          <Trackpoint>
            <Time>2022-07-10T15:42:11.000Z</Time>
            <Position>
              <LatitudeDegrees>43.2800809107720851898193359375</LatitudeDegrees>
              <LongitudeDegrees>-2.33481156639754772186279296875</LongitudeDegrees>
            </Position>
            <AltitudeMeters>246.8000030517578125</AltitudeMeters>
            <DistanceMeters>NAN</DistanceMeters>
          </Trackpoint>
          <Trackpoint>
            <Time>2022-07-10T15:42:12.000Z</Time>
            <Position>
              <LatitudeDegrees>43.2800966687500476837158203125</LatitudeDegrees>
              <LongitudeDegrees>-2.33488507568836212158203125</LongitudeDegrees>
            </Position>
            <AltitudeMeters>246.8000030517578125</AltitudeMeters>
            <DistanceMeters>NAN</DistanceMeters>
          </Trackpoint>
          <Trackpoint>
            <Time>2022-07-10T15:42:15.000Z</Time>
            <Position>
              <LatitudeDegrees>43.28014050610363483428955078125</LatitudeDegrees>
              <LongitudeDegrees>-2.33509856276214122772216796875</LongitudeDegrees>
            </Position>
            <AltitudeMeters>246.399993896484375</AltitudeMeters>
            <DistanceMeters>NAN</DistanceMeters>
          </Trackpoint>
          <Trackpoint>
            <Time>2022-07-10T15:42:18.000Z</Time>
            <Position>
              <LatitudeDegrees>43.28017218969762325286865234375</LatitudeDegrees>
              <LongitudeDegrees>-2.335291095077991485595703125</LongitudeDegrees>
            </Position>
            <AltitudeMeters>245.600006103515625</AltitudeMeters>
            <DistanceMeters>NAN</DistanceMeters>
          </Trackpoint>
          <Trackpoint>
            <Time>2022-07-10T15:42:19.000Z</Time>
            <Position>
              <LatitudeDegrees>43.28018727712333202362060546875</LatitudeDegrees>
              <LongitudeDegrees>-2.33535320498049259185791015625</LongitudeDegrees>
            </Position>
            <AltitudeMeters>245.600006103515625</AltitudeMeters>
            <DistanceMeters>NAN</DistanceMeters>
          </Trackpoint>
          <Trackpoint>
            <Time>2022-07-10T15:42:22.000Z</Time>
            <Position>
              <LatitudeDegrees>43.280231617391109466552734375</LatitudeDegrees>
              <LongitudeDegrees>-2.33555219136178493499755859375</LongitudeDegrees>
            </Position>
            <AltitudeMeters>245.1999969482421875</AltitudeMeters>
            <DistanceMeters>NAN</DistanceMeters>
          </Trackpoint>
          <Trackpoint>
            <Time>2022-07-10T15:42:24.000Z</Time>
            <Position>
              <LatitudeDegrees>43.28028501011431217193603515625</LatitudeDegrees>
              <LongitudeDegrees>-2.3356671072542667388916015625</LongitudeDegrees>
            </Position>
            <AltitudeMeters>244.8000030517578125</AltitudeMeters>
            <DistanceMeters>NAN</DistanceMeters>
          </Trackpoint>
          <Trackpoint>
            <Time>2022-07-10T15:42:26.000Z</Time>
            <Position>
              <LatitudeDegrees>43.280350975692272186279296875</LatitudeDegrees>
              <LongitudeDegrees>-2.33577447943389415740966796875</LongitudeDegrees>
            </Position>
            <AltitudeMeters>244.600006103515625</AltitudeMeters>
            <DistanceMeters>NAN</DistanceMeters>
          </Trackpoint>
          <Trackpoint>
            <Time>2022-07-10T15:42:27.000Z</Time>
            <Position>
              <LatitudeDegrees>43.2803893648087978363037109375</LatitudeDegrees>
              <LongitudeDegrees>-2.33582175336778163909912109375</LongitudeDegrees>
            </Position>
            <AltitudeMeters>244.399993896484375</AltitudeMeters>
            <DistanceMeters>NAN</DistanceMeters>
          </Trackpoint>
          <Trackpoint>
            <Time>2022-07-10T15:42:29.000Z</Time>
            <Position>
              <LatitudeDegrees>43.2804808951914310455322265625</LatitudeDegrees>
              <LongitudeDegrees>-2.335903644561767578125</LongitudeDegrees>
            </Position>
            <AltitudeMeters>244.1999969482421875</AltitudeMeters>
            <DistanceMeters>NAN</DistanceMeters>
          </Trackpoint>
          <Trackpoint>
            <Time>2022-07-10T15:42:30.000Z</Time>
            <Position>
              <LatitudeDegrees>43.28053009696304798126220703125</LatitudeDegrees>
              <LongitudeDegrees>-2.3359356634318828582763671875</LongitudeDegrees>
            </Position>
            <AltitudeMeters>244</AltitudeMeters>
            <DistanceMeters>NAN</DistanceMeters>
          </Trackpoint>
          <Trackpoint>
            <Time>2022-07-10T15:42:32.000Z</Time>
            <Position>
              <LatitudeDegrees>43.28064844943583011627197265625</LatitudeDegrees>
              <LongitudeDegrees>-2.33598411083221435546875</LongitudeDegrees>
            </Position>
            <AltitudeMeters>243.600006103515625</AltitudeMeters>
            <DistanceMeters>NAN</DistanceMeters>
          </Trackpoint>
          <Trackpoint>
            <Time>2022-07-10T15:42:33.000Z</Time>
            <Position>
              <LatitudeDegrees>43.28068113885819911956787109375</LatitudeDegrees>
              <LongitudeDegrees>-2.33598587103188037872314453125</LongitudeDegrees>
            </Position>
            <AltitudeMeters>243.600006103515625</AltitudeMeters>
            <DistanceMeters>NAN</DistanceMeters>
          </Trackpoint>
          <Trackpoint>
            <Time>2022-07-10T15:42:41.000Z</Time>
            <Position>
              <LatitudeDegrees>43.28112822957336902618408203125</LatitudeDegrees>
              <LongitudeDegrees>-2.336055524647235870361328125</LongitudeDegrees>
            </Position>
            <AltitudeMeters>243</AltitudeMeters>
            <DistanceMeters>NAN</DistanceMeters>
          </Trackpoint>
          <Trackpoint>
            <Time>2022-07-10T15:42:42.000Z</Time>
            <Position>
              <LatitudeDegrees>43.28118019737303256988525390625</LatitudeDegrees>
              <LongitudeDegrees>-2.33608041889965534210205078125</LongitudeDegrees>
            </Position>
            <AltitudeMeters>243</AltitudeMeters>
            <DistanceMeters>NAN</DistanceMeters>
          </Trackpoint>
          <Trackpoint>
            <Time>2022-07-10T15:42:45.000Z</Time>
            <Position>
              <LatitudeDegrees>43.28132696449756622314453125</LatitudeDegrees>
              <LongitudeDegrees>-2.3361780680716037750244140625</LongitudeDegrees>
            </Position>
            <AltitudeMeters>242.600006103515625</AltitudeMeters>
            <DistanceMeters>NAN</DistanceMeters>
          </Trackpoint>
          <Trackpoint>
            <Time>2022-07-10T15:42:46.000Z</Time>
            <Position>
              <LatitudeDegrees>43.281374238431453704833984375</LatitudeDegrees>
              <LongitudeDegrees>-2.336221151053905487060546875</LongitudeDegrees>
            </Position>
            <AltitudeMeters>242.399993896484375</AltitudeMeters>
            <DistanceMeters>NAN</DistanceMeters>
          </Trackpoint>
          <Trackpoint>
            <Time>2022-07-10T15:42:47.000Z</Time>
            <Position>
              <LatitudeDegrees>43.28142059035599231719970703125</LatitudeDegrees>
              <LongitudeDegrees>-2.3362649045884609222412109375</LongitudeDegrees>
            </Position>
            <AltitudeMeters>242.1999969482421875</AltitudeMeters>
            <DistanceMeters>NAN</DistanceMeters>
          </Trackpoint>
          <Trackpoint>
            <Time>2022-07-10T15:42:48.000Z</Time>
            <Position>
              <LatitudeDegrees>43.2814662717282772064208984375</LatitudeDegrees>
              <LongitudeDegrees>-2.33631335198879241943359375</LongitudeDegrees>
            </Position>
            <AltitudeMeters>242</AltitudeMeters>
            <DistanceMeters>NAN</DistanceMeters>
          </Trackpoint>
          <Trackpoint>
            <Time>2022-07-10T15:42:51.000Z</Time>
            <Position>
              <LatitudeDegrees>43.2815958559513092041015625</LatitudeDegrees>
              <LongitudeDegrees>-2.33648543246090412139892578125</LongitudeDegrees>
            </Position>
            <AltitudeMeters>241.399993896484375</AltitudeMeters>
            <DistanceMeters>NAN</DistanceMeters>
          </Trackpoint>
          <Trackpoint>
            <Time>2022-07-10T15:42:54.000Z</Time>
            <Position>
              <LatitudeDegrees>43.28171253204345703125</LatitudeDegrees>
              <LongitudeDegrees>-2.33667922206223011016845703125</LongitudeDegrees>
            </Position>
            <AltitudeMeters>240.8000030517578125</AltitudeMeters>
            <DistanceMeters>NAN</DistanceMeters>
          </Trackpoint>
          <Trackpoint>
            <Time>2022-07-10T15:42:55.000Z</Time>
            <Position>
              <LatitudeDegrees>43.28174128197133541107177734375</LatitudeDegrees>
              <LongitudeDegrees>-2.336748540401458740234375</LongitudeDegrees>
            </Position>
            <AltitudeMeters>240.8000030517578125</AltitudeMeters>
            <DistanceMeters>NAN</DistanceMeters>
          </Trackpoint>
          <Trackpoint>
            <Time>2022-07-10T15:42:58.000Z</Time>
            <Position>
              <LatitudeDegrees>43.281818144023418426513671875</LatitudeDegrees>
              <LongitudeDegrees>-2.33695699833333492279052734375</LongitudeDegrees>
            </Position>
            <AltitudeMeters>240.399993896484375</AltitudeMeters>
            <DistanceMeters>NAN</DistanceMeters>
          </Trackpoint>
          <Trackpoint>
            <Time>2022-07-10T15:43:02.000Z</Time>
            <Position>
              <LatitudeDegrees>43.28190892003476619720458984375</LatitudeDegrees>
              <LongitudeDegrees>-2.33720795251429080963134765625</LongitudeDegrees>
            </Position>
            <AltitudeMeters>239.600006103515625</AltitudeMeters>
            <DistanceMeters>NAN</DistanceMeters>
          </Trackpoint>
          <Trackpoint>
            <Time>2022-07-10T15:43:04.000Z</Time>
            <Position>
              <LatitudeDegrees>43.2819675095379352569580078125</LatitudeDegrees>
              <LongitudeDegrees>-2.337334267795085906982421875</LongitudeDegrees>
            </Position>
            <AltitudeMeters>239.399993896484375</AltitudeMeters>
            <DistanceMeters>NAN</DistanceMeters>
          </Trackpoint>
          <Trackpoint>
            <Time>2022-07-10T15:43:06.000Z</Time>
            <Position>
              <LatitudeDegrees>43.282068260014057159423828125</LatitudeDegrees>
              <LongitudeDegrees>-2.33742051757872104644775390625</LongitudeDegrees>
            </Position>
            <AltitudeMeters>239.1999969482421875</AltitudeMeters>
            <DistanceMeters>NAN</DistanceMeters>
          </Trackpoint>
          <Trackpoint>
            <Time>2022-07-10T15:43:08.000Z</Time>
            <Position>
              <LatitudeDegrees>43.28217362053692340850830078125</LatitudeDegrees>
              <LongitudeDegrees>-2.33747265301644802093505859375</LongitudeDegrees>
            </Position>
            <AltitudeMeters>238.8000030517578125</AltitudeMeters>
            <DistanceMeters>NAN</DistanceMeters>
          </Trackpoint>
          <Trackpoint>
            <Time>2022-07-10T15:43:10.000Z</Time>
            <Position>
              <LatitudeDegrees>43.28228895552456378936767578125</LatitudeDegrees>
              <LongitudeDegrees>-2.3374874889850616455078125</LongitudeDegrees>
            </Position>
            <AltitudeMeters>238.600006103515625</AltitudeMeters>
            <DistanceMeters>NAN</DistanceMeters>
          </Trackpoint>
          <Trackpoint>
            <Time>2022-07-10T15:43:11.000Z</Time>
            <Position>
              <LatitudeDegrees>43.28235022723674774169921875</LatitudeDegrees>
              <LongitudeDegrees>-2.3374836333096027374267578125</LongitudeDegrees>
            </Position>
            <AltitudeMeters>238.600006103515625</AltitudeMeters>
            <DistanceMeters>NAN</DistanceMeters>
          </Trackpoint>
          <Trackpoint>
            <Time>2022-07-10T15:43:14.000Z</Time>
            <Position>
              <LatitudeDegrees>43.28254376538097858428955078125</LatitudeDegrees>
              <LongitudeDegrees>-2.3374266363680362701416015625</LongitudeDegrees>
            </Position>
            <AltitudeMeters>238.1999969482421875</AltitudeMeters>
            <DistanceMeters>NAN</DistanceMeters>
          </Trackpoint>
          <Trackpoint>
            <Time>2022-07-10T15:43:19.000Z</Time>
            <Position>
              <LatitudeDegrees>43.2828378863632678985595703125</LatitudeDegrees>
              <LongitudeDegrees>-2.3373729921877384185791015625</LongitudeDegrees>
            </Position>
            <AltitudeMeters>237.8000030517578125</AltitudeMeters>
            <DistanceMeters>NAN</DistanceMeters>
          </Trackpoint>
          <Trackpoint>
            <Time>2022-07-10T15:43:20.000Z</Time>
            <Position>
              <LatitudeDegrees>43.2829076237976551055908203125</LatitudeDegrees>
              <LongitudeDegrees>-2.33737877570092678070068359375</LongitudeDegrees>
            </Position>
            <AltitudeMeters>237.600006103515625</AltitudeMeters>
            <DistanceMeters>NAN</DistanceMeters>
          </Trackpoint>
          <Trackpoint>
            <Time>2022-07-10T15:43:22.000Z</Time>
            <Position>
              <LatitudeDegrees>43.2830491103231906890869140625</LatitudeDegrees>
              <LongitudeDegrees>-2.337415404617786407470703125</LongitudeDegrees>
            </Position>
            <AltitudeMeters>237.1999969482421875</AltitudeMeters>
            <DistanceMeters>NAN</DistanceMeters>
          </Trackpoint>
          <Trackpoint>
            <Time>2022-07-10T15:43:23.000Z</Time>
            <Position>
              <LatitudeDegrees>43.28311541117727756500244140625</LatitudeDegrees>
              <LongitudeDegrees>-2.33744884841144084930419921875</LongitudeDegrees>
            </Position>
            <AltitudeMeters>236.8000030517578125</AltitudeMeters>
            <DistanceMeters>NAN</DistanceMeters>
          </Trackpoint>
          <Trackpoint>
            <Time>2022-07-10T15:43:24.000Z</Time>
            <Position>
              <LatitudeDegrees>43.28318129293620586395263671875</LatitudeDegrees>
              <LongitudeDegrees>-2.33749226666986942291259765625</LongitudeDegrees>
            </Position>
            <AltitudeMeters>236.600006103515625</AltitudeMeters>
            <DistanceMeters>NAN</DistanceMeters>
          </Trackpoint>
          <Trackpoint>
            <Time>2022-07-10T15:43:26.000Z</Time>
            <Position>
              <LatitudeDegrees>43.28330433927476406097412109375</LatitudeDegrees>
              <LongitudeDegrees>-2.33760005794465541839599609375</LongitudeDegrees>
            </Position>
            <AltitudeMeters>236</AltitudeMeters>
            <DistanceMeters>NAN</DistanceMeters>
          </Trackpoint>
          <Trackpoint>
            <Time>2022-07-10T15:43:28.000Z</Time>
            <Position>
              <LatitudeDegrees>43.28342503868043422698974609375</LatitudeDegrees>
              <LongitudeDegrees>-2.33772695995867252349853515625</LongitudeDegrees>
            </Position>
            <AltitudeMeters>235.8000030517578125</AltitudeMeters>
            <DistanceMeters>NAN</DistanceMeters>
          </Trackpoint>
          <Trackpoint>
            <Time>2022-07-10T15:43:30.000Z</Time>
            <Position>
              <LatitudeDegrees>43.2835496775805950164794921875</LatitudeDegrees>
              <LongitudeDegrees>-2.33784967102110385894775390625</LongitudeDegrees>
            </Position>
            <AltitudeMeters>235</AltitudeMeters>
            <DistanceMeters>NAN</DistanceMeters>
          </Trackpoint>
          <Trackpoint>
            <Time>2022-07-10T15:43:32.000Z</Time>
            <Position>
              <LatitudeDegrees>43.28369535505771636962890625</LatitudeDegrees>
              <LongitudeDegrees>-2.3379362560808658599853515625</LongitudeDegrees>
            </Position>
            <AltitudeMeters>234.600006103515625</AltitudeMeters>
            <DistanceMeters>NAN</DistanceMeters>
          </Trackpoint>
          <Trackpoint>
            <Time>2022-07-10T15:43:34.000Z</Time>
            <Position>
              <LatitudeDegrees>43.283863328397274017333984375</LatitudeDegrees>
              <LongitudeDegrees>-2.3379810154438018798828125</LongitudeDegrees>
            </Position>
            <AltitudeMeters>233.8000030517578125</AltitudeMeters>
            <DistanceMeters>NAN</DistanceMeters>
          </Trackpoint>
          <Trackpoint>
            <Time>2022-07-10T15:43:37.000Z</Time>
            <Position>
              <LatitudeDegrees>43.28412358649075031280517578125</LatitudeDegrees>
              <LongitudeDegrees>-2.33804312534630298614501953125</LongitudeDegrees>
            </Position>
            <AltitudeMeters>232.600006103515625</AltitudeMeters>
            <DistanceMeters>NAN</DistanceMeters>
          </Trackpoint>
          <Trackpoint>
            <Time>2022-07-10T15:43:39.000Z</Time>
            <Position>
              <LatitudeDegrees>43.284294493496417999267578125</LatitudeDegrees>
              <LongitudeDegrees>-2.3381178081035614013671875</LongitudeDegrees>
            </Position>
            <AltitudeMeters>231.399993896484375</AltitudeMeters>
            <DistanceMeters>NAN</DistanceMeters>
          </Trackpoint>
          <Trackpoint>
            <Time>2022-07-10T15:43:42.000Z</Time>
            <Position>
              <LatitudeDegrees>43.2845514826476573944091796875</LatitudeDegrees>
              <LongitudeDegrees>-2.33825652860105037689208984375</LongitudeDegrees>
            </Position>
            <AltitudeMeters>230</AltitudeMeters>
            <DistanceMeters>NAN</DistanceMeters>
          </Trackpoint>
          <Trackpoint>
            <Time>2022-07-10T15:43:45.000Z</Time>
            <Position>
              <LatitudeDegrees>43.2848193682730197906494140625</LatitudeDegrees>
              <LongitudeDegrees>-2.33840639702975749969482421875</LongitudeDegrees>
            </Position>
            <AltitudeMeters>229</AltitudeMeters>
            <DistanceMeters>NAN</DistanceMeters>
          </Trackpoint>
          <Trackpoint>
            <Time>2022-07-10T15:43:46.000Z</Time>
            <Position>
              <LatitudeDegrees>43.28490897081792354583740234375</LatitudeDegrees>
              <LongitudeDegrees>-2.3384586162865161895751953125</LongitudeDegrees>
            </Position>
            <AltitudeMeters>227.8000030517578125</AltitudeMeters>
            <DistanceMeters>NAN</DistanceMeters>
          </Trackpoint>
          <Trackpoint>
            <Time>2022-07-10T15:43:48.000Z</Time>
            <Position>
              <LatitudeDegrees>43.28510024584829807281494140625</LatitudeDegrees>
              <LongitudeDegrees>-2.33855810947716236114501953125</LongitudeDegrees>
            </Position>
            <AltitudeMeters>226.8000030517578125</AltitudeMeters>
            <DistanceMeters>NAN</DistanceMeters>
          </Trackpoint>
          <Trackpoint>
            <Time>2022-07-10T15:43:52.000Z</Time>
            <Position>
              <LatitudeDegrees>43.285489417612552642822265625</LatitudeDegrees>
              <LongitudeDegrees>-2.33868920244276523590087890625</LongitudeDegrees>
            </Position>
            <AltitudeMeters>225.1999969482421875</AltitudeMeters>
            <DistanceMeters>NAN</DistanceMeters>
          </Trackpoint>
          <Trackpoint>
            <Time>2022-07-10T15:43:56.000Z</Time>
            <Position>
              <LatitudeDegrees>43.2858664356172084808349609375</LatitudeDegrees>
              <LongitudeDegrees>-2.33877972699701786041259765625</LongitudeDegrees>
            </Position>
            <AltitudeMeters>223.8000030517578125</AltitudeMeters>
            <DistanceMeters>NAN</DistanceMeters>
          </Trackpoint>
          <Trackpoint>
            <Time>2022-07-10T15:44:00.000Z</Time>
            <Position>
              <LatitudeDegrees>43.28622794710099697113037109375</LatitudeDegrees>
              <LongitudeDegrees>-2.33885868452489376068115234375</LongitudeDegrees>
            </Position>
            <AltitudeMeters>223</AltitudeMeters>
            <DistanceMeters>NAN</DistanceMeters>
          </Trackpoint>
          <Trackpoint>
            <Time>2022-07-10T15:44:01.000Z</Time>
            <Position>
              <LatitudeDegrees>43.28631243668496608734130859375</LatitudeDegrees>
              <LongitudeDegrees>-2.338878549635410308837890625</LongitudeDegrees>
            </Position>
            <AltitudeMeters>222.600006103515625</AltitudeMeters>
            <DistanceMeters>NAN</DistanceMeters>
          </Trackpoint>
          <Trackpoint>
            <Time>2022-07-10T15:44:06.000Z</Time>
            <Position>
              <LatitudeDegrees>43.28671711497008800506591796875</LatitudeDegrees>
              <LongitudeDegrees>-2.3389900289475917816162109375</LongitudeDegrees>
            </Position>
            <AltitudeMeters>221.8000030517578125</AltitudeMeters>
            <DistanceMeters>NAN</DistanceMeters>
          </Trackpoint>
          <Trackpoint>
            <Time>2022-07-10T15:44:07.000Z</Time>
            <Position>
              <LatitudeDegrees>43.2867928035557270050048828125</LatitudeDegrees>
              <LongitudeDegrees>-2.33902129344642162322998046875</LongitudeDegrees>
            </Position>
            <AltitudeMeters>221.600006103515625</AltitudeMeters>
            <DistanceMeters>NAN</DistanceMeters>
          </Trackpoint>
          <Trackpoint>
            <Time>2022-07-10T15:44:11.000Z</Time>
            <Position>
              <LatitudeDegrees>43.287098407745361328125</LatitudeDegrees>
              <LongitudeDegrees>-2.33920100145041942596435546875</LongitudeDegrees>
            </Position>
            <AltitudeMeters>221</AltitudeMeters>
            <DistanceMeters>NAN</DistanceMeters>
          </Trackpoint>
          <Trackpoint>
            <Time>2022-07-10T15:44:15.000Z</Time>
            <Position>
              <LatitudeDegrees>43.28741130419075489044189453125</LatitudeDegrees>
              <LongitudeDegrees>-2.33938372693955898284912109375</LongitudeDegrees>
            </Position>
            <AltitudeMeters>220.399993896484375</AltitudeMeters>
            <DistanceMeters>NAN</DistanceMeters>
          </Trackpoint>
          <Trackpoint>
            <Time>2022-07-10T15:44:17.000Z</Time>
            <Position>
              <LatitudeDegrees>43.28756988979876041412353515625</LatitudeDegrees>
              <LongitudeDegrees>-2.3394480161368846893310546875</LongitudeDegrees>
            </Position>
            <AltitudeMeters>220</AltitudeMeters>
            <DistanceMeters>NAN</DistanceMeters>
          </Trackpoint>
          <Trackpoint>
            <Time>2022-07-10T15:44:18.000Z</Time>
            <Position>
              <LatitudeDegrees>43.28765236772596836090087890625</LatitudeDegrees>
              <LongitudeDegrees>-2.339463271200656890869140625</LongitudeDegrees>
            </Position>
            <AltitudeMeters>219.8000030517578125</AltitudeMeters>
            <DistanceMeters>NAN</DistanceMeters>
          </Trackpoint>
          <Trackpoint>
            <Time>2022-07-10T15:44:20.000Z</Time>
            <Position>
              <LatitudeDegrees>43.28782000578939914703369140625</LatitudeDegrees>
              <LongitudeDegrees>-2.3394669592380523681640625</LongitudeDegrees>
            </Position>
            <AltitudeMeters>219.1999969482421875</AltitudeMeters>
            <DistanceMeters>NAN</DistanceMeters>
          </Trackpoint>
          <Trackpoint>
            <Time>2022-07-10T15:44:21.000Z</Time>
            <Position>
              <LatitudeDegrees>43.28790617175400257110595703125</LatitudeDegrees>
              <LongitudeDegrees>-2.33944877050817012786865234375</LongitudeDegrees>
            </Position>
            <AltitudeMeters>218.8000030517578125</AltitudeMeters>
            <DistanceMeters>NAN</DistanceMeters>
          </Trackpoint>
          <Trackpoint>
            <Time>2022-07-10T15:44:22.000Z</Time>
            <Position>
              <LatitudeDegrees>43.28798932023346424102783203125</LatitudeDegrees>
              <LongitudeDegrees>-2.33941708691418170928955078125</LongitudeDegrees>
            </Position>
            <AltitudeMeters>218.1999969482421875</AltitudeMeters>
            <DistanceMeters>NAN</DistanceMeters>
          </Trackpoint>
          <Trackpoint>
            <Time>2022-07-10T15:44:23.000Z</Time>
            <Position>
              <LatitudeDegrees>43.28807179816067218780517578125</LatitudeDegrees>
              <LongitudeDegrees>-2.339377440512180328369140625</LongitudeDegrees>
            </Position>
            <AltitudeMeters>218</AltitudeMeters>
            <DistanceMeters>NAN</DistanceMeters>
          </Trackpoint>
          <Trackpoint>
            <Time>2022-07-10T15:44:26.000Z</Time>
            <Position>
              <LatitudeDegrees>43.288320489227771759033203125</LatitudeDegrees>
              <LongitudeDegrees>-2.3392792046070098876953125</LongitudeDegrees>
            </Position>
            <AltitudeMeters>216.399993896484375</AltitudeMeters>
            <DistanceMeters>NAN</DistanceMeters>
          </Trackpoint>
          <Trackpoint>
            <Time>2022-07-10T15:44:27.000Z</Time>
            <Position>
              <LatitudeDegrees>43.2884048111736774444580078125</LatitudeDegrees>
              <LongitudeDegrees>-2.3392605967819690704345703125</LongitudeDegrees>
            </Position>
            <AltitudeMeters>216.1999969482421875</AltitudeMeters>
            <DistanceMeters>NAN</DistanceMeters>
          </Trackpoint>
          <Trackpoint>
            <Time>2022-07-10T15:44:30.000Z</Time>
            <Position>
              <LatitudeDegrees>43.28865635208785533905029296875</LatitudeDegrees>
              <LongitudeDegrees>-2.3392374627292156219482421875</LongitudeDegrees>
            </Position>
            <AltitudeMeters>215.1999969482421875</AltitudeMeters>
            <DistanceMeters>NAN</DistanceMeters>
          </Trackpoint>
          <Trackpoint>
            <Time>2022-07-10T15:44:33.000Z</Time>
            <Position>
              <LatitudeDegrees>43.2889083959162235260009765625</LatitudeDegrees>
              <LongitudeDegrees>-2.33922396786510944366455078125</LongitudeDegrees>
            </Position>
            <AltitudeMeters>214</AltitudeMeters>
            <DistanceMeters>NAN</DistanceMeters>
          </Trackpoint>
          <Trackpoint>
            <Time>2022-07-10T15:44:35.000Z</Time>
            <Position>
              <LatitudeDegrees>43.28908391296863555908203125</LatitudeDegrees>
              <LongitudeDegrees>-2.3392121493816375732421875</LongitudeDegrees>
            </Position>
            <AltitudeMeters>213.1999969482421875</AltitudeMeters>
            <DistanceMeters>NAN</DistanceMeters>
          </Trackpoint>
          <Trackpoint>
            <Time>2022-07-10T15:44:37.000Z</Time>
            <Position>
              <LatitudeDegrees>43.28925549052655696868896484375</LatitudeDegrees>
              <LongitudeDegrees>-2.3391382209956645965576171875</LongitudeDegrees>
            </Position>
            <AltitudeMeters>212.600006103515625</AltitudeMeters>
            <DistanceMeters>NAN</DistanceMeters>
          </Trackpoint>
          <Trackpoint>
            <Time>2022-07-10T15:44:39.000Z</Time>
            <Position>
              <LatitudeDegrees>43.28938658349215984344482421875</LatitudeDegrees>
              <LongitudeDegrees>-2.3389635421335697174072265625</LongitudeDegrees>
            </Position>
            <AltitudeMeters>212.1999969482421875</AltitudeMeters>
            <DistanceMeters>NAN</DistanceMeters>
          </Trackpoint>
          <Trackpoint>
            <Time>2022-07-10T15:44:40.000Z</Time>
            <Position>
              <LatitudeDegrees>43.28944198787212371826171875</LatitudeDegrees>
              <LongitudeDegrees>-2.33886371366679668426513671875</LongitudeDegrees>
            </Position>
            <AltitudeMeters>212</AltitudeMeters>
            <DistanceMeters>NAN</DistanceMeters>
          </Trackpoint>
          <Trackpoint>
            <Time>2022-07-10T15:44:42.000Z</Time>
            <Position>
              <LatitudeDegrees>43.28955195844173431396484375</LatitudeDegrees>
              <LongitudeDegrees>-2.33868501149117946624755859375</LongitudeDegrees>
            </Position>
            <AltitudeMeters>211.600006103515625</AltitudeMeters>
            <DistanceMeters>NAN</DistanceMeters>
          </Trackpoint>
          <Trackpoint>
            <Time>2022-07-10T15:44:43.000Z</Time>
            <Position>
              <LatitudeDegrees>43.28962228260934352874755859375</LatitudeDegrees>
              <LongitudeDegrees>-2.33861762098968029022216796875</LongitudeDegrees>
            </Position>
            <AltitudeMeters>211.399993896484375</AltitudeMeters>
            <DistanceMeters>NAN</DistanceMeters>
          </Trackpoint>
          <Trackpoint>
            <Time>2022-07-10T15:44:44.000Z</Time>
            <Position>
              <LatitudeDegrees>43.28970073722302913665771484375</LatitudeDegrees>
              <LongitudeDegrees>-2.33857722021639347076416015625</LongitudeDegrees>
            </Position>
            <AltitudeMeters>211.1999969482421875</AltitudeMeters>
            <DistanceMeters>NAN</DistanceMeters>
          </Trackpoint>
          <Trackpoint>
            <Time>2022-07-10T15:44:46.000Z</Time>
            <Position>
              <LatitudeDegrees>43.28986334614455699920654296875</LatitudeDegrees>
              <LongitudeDegrees>-2.33856028877198696136474609375</LongitudeDegrees>
            </Position>
            <AltitudeMeters>210.8000030517578125</AltitudeMeters>
            <DistanceMeters>NAN</DistanceMeters>
          </Trackpoint>
          <Trackpoint>
            <Time>2022-07-10T15:44:48.000Z</Time>
            <Position>
              <LatitudeDegrees>43.29002243466675281524658203125</LatitudeDegrees>
              <LongitudeDegrees>-2.33857235871255397796630859375</LongitudeDegrees>
            </Position>
            <AltitudeMeters>210.399993896484375</AltitudeMeters>
            <DistanceMeters>NAN</DistanceMeters>
          </Trackpoint>
          <Trackpoint>
            <Time>2022-07-10T15:44:50.000Z</Time>
            <Position>
              <LatitudeDegrees>43.290184624493122100830078125</LatitudeDegrees>
              <LongitudeDegrees>-2.33856330625712871551513671875</LongitudeDegrees>
            </Position>
            <AltitudeMeters>209.600006103515625</AltitudeMeters>
            <DistanceMeters>NAN</DistanceMeters>
          </Trackpoint>
          <Trackpoint>
            <Time>2022-07-10T15:44:51.000Z</Time>
            <Position>
              <LatitudeDegrees>43.2902749814093112945556640625</LatitudeDegrees>
              <LongitudeDegrees>-2.338531874120235443115234375</LongitudeDegrees>
            </Position>
            <AltitudeMeters>209.1999969482421875</AltitudeMeters>
            <DistanceMeters>NAN</DistanceMeters>
          </Trackpoint>
          <Trackpoint>
            <Time>2022-07-10T15:44:52.000Z</Time>
            <Position>
              <LatitudeDegrees>43.2903507538139820098876953125</LatitudeDegrees>
              <LongitudeDegrees>-2.33847177587449550628662109375</LongitudeDegrees>
            </Position>
            <AltitudeMeters>208.399993896484375</AltitudeMeters>
            <DistanceMeters>NAN</DistanceMeters>
          </Trackpoint>
          <Trackpoint>
            <Time>2022-07-10T15:44:53.000Z</Time>
            <Position>
              <LatitudeDegrees>43.2904111035168170928955078125</LatitudeDegrees>
              <LongitudeDegrees>-2.33837856911122798919677734375</LongitudeDegrees>
            </Position>
            <AltitudeMeters>208</AltitudeMeters>
            <DistanceMeters>NAN</DistanceMeters>
          </Trackpoint>
          <Trackpoint>
            <Time>2022-07-10T15:44:54.000Z</Time>
            <Position>
              <LatitudeDegrees>43.29046281985938549041748046875</LatitudeDegrees>
              <LongitudeDegrees>-2.33827144838869571685791015625</LongitudeDegrees>
            </Position>
            <AltitudeMeters>207.600006103515625</AltitudeMeters>
            <DistanceMeters>NAN</DistanceMeters>
          </Trackpoint>
          <Trackpoint>
            <Time>2022-07-10T15:44:56.000Z</Time>
            <Position>
              <LatitudeDegrees>43.29053632915019989013671875</LatitudeDegrees>
              <LongitudeDegrees>-2.3380311392247676849365234375</LongitudeDegrees>
            </Position>
            <AltitudeMeters>206.8000030517578125</AltitudeMeters>
            <DistanceMeters>NAN</DistanceMeters>
          </Trackpoint>
          <Trackpoint>
            <Time>2022-07-10T15:45:00.000Z</Time>
            <Position>
              <LatitudeDegrees>43.2906456291675567626953125</LatitudeDegrees>
              <LongitudeDegrees>-2.3375594057142734527587890625</LongitudeDegrees>
            </Position>
            <AltitudeMeters>205.399993896484375</AltitudeMeters>
            <DistanceMeters>NAN</DistanceMeters>
          </Trackpoint>
          <Trackpoint>
            <Time>2022-07-10T15:45:04.000Z</Time>
            <Position>
              <LatitudeDegrees>43.29075987450778484344482421875</LatitudeDegrees>
              <LongitudeDegrees>-2.3371238820254802703857421875</LongitudeDegrees>
            </Position>
            <AltitudeMeters>204.1999969482421875</AltitudeMeters>
            <DistanceMeters>NAN</DistanceMeters>
          </Trackpoint>
          <Trackpoint>
            <Time>2022-07-10T15:45:06.000Z</Time>
            <Position>
              <LatitudeDegrees>43.29082600772380828857421875</LatitudeDegrees>
              <LongitudeDegrees>-2.33691550791263580322265625</LongitudeDegrees>
            </Position>
            <AltitudeMeters>203.8000030517578125</AltitudeMeters>
            <DistanceMeters>NAN</DistanceMeters>
          </Trackpoint>
          <Trackpoint>
            <Time>2022-07-10T15:45:07.000Z</Time>
            <Position>
              <LatitudeDegrees>43.29086984507739543914794921875</LatitudeDegrees>
              <LongitudeDegrees>-2.336819283664226531982421875</LongitudeDegrees>
            </Position>
            <AltitudeMeters>203.600006103515625</AltitudeMeters>
            <DistanceMeters>NAN</DistanceMeters>
          </Trackpoint>
          <Trackpoint>
            <Time>2022-07-10T15:45:08.000Z</Time>
            <Position>
              <LatitudeDegrees>43.2909218966960906982421875</LatitudeDegrees>
              <LongitudeDegrees>-2.33673621900379657745361328125</LongitudeDegrees>
            </Position>
            <AltitudeMeters>203</AltitudeMeters>
            <DistanceMeters>NAN</DistanceMeters>
          </Trackpoint>
          <Trackpoint>
            <Time>2022-07-10T15:45:09.000Z</Time>
            <Position>
              <LatitudeDegrees>43.29097076319158077239990234375</LatitudeDegrees>
              <LongitudeDegrees>-2.33667771331965923309326171875</LongitudeDegrees>
            </Position>
            <AltitudeMeters>202.600006103515625</AltitudeMeters>
            <DistanceMeters>NAN</DistanceMeters>
          </Trackpoint>
          <Trackpoint>
            <Time>2022-07-10T15:45:11.000Z</Time>
            <Position>
              <LatitudeDegrees>43.29108945094048976898193359375</LatitudeDegrees>
              <LongitudeDegrees>-2.3365690000355243682861328125</LongitudeDegrees>
            </Position>
            <AltitudeMeters>202</AltitudeMeters>
            <DistanceMeters>NAN</DistanceMeters>
          </Trackpoint>
          <Trackpoint>
            <Time>2022-07-10T15:45:12.000Z</Time>
            <Position>
              <LatitudeDegrees>43.29115818254649639129638671875</LatitudeDegrees>
              <LongitudeDegrees>-2.33653186820447444915771484375</LongitudeDegrees>
            </Position>
            <AltitudeMeters>201.8000030517578125</AltitudeMeters>
            <DistanceMeters>NAN</DistanceMeters>
          </Trackpoint>
          <Trackpoint>
            <Time>2022-07-10T15:45:13.000Z</Time>
            <Position>
              <LatitudeDegrees>43.291230015456676483154296875</LatitudeDegrees>
              <LongitudeDegrees>-2.33650621958076953887939453125</LongitudeDegrees>
            </Position>
            <AltitudeMeters>201.399993896484375</AltitudeMeters>
            <DistanceMeters>NAN</DistanceMeters>
          </Trackpoint>
          <Trackpoint>
            <Time>2022-07-10T15:45:16.000Z</Time>
            <Position>
              <LatitudeDegrees>43.291456662118434906005859375</LatitudeDegrees>
              <LongitudeDegrees>-2.33645341359078884124755859375</LongitudeDegrees>
            </Position>
            <AltitudeMeters>201</AltitudeMeters>
            <DistanceMeters>NAN</DistanceMeters>
          </Trackpoint>
          <Trackpoint>
            <Time>2022-07-10T15:45:17.000Z</Time>
            <Position>
              <LatitudeDegrees>43.2915326021611690521240234375</LatitudeDegrees>
              <LongitudeDegrees>-2.336442768573760986328125</LongitudeDegrees>
            </Position>
            <AltitudeMeters>200.600006103515625</AltitudeMeters>
            <DistanceMeters>NAN</DistanceMeters>
          </Trackpoint>
          <Trackpoint>
            <Time>2022-07-10T15:45:20.000Z</Time>
            <Position>
              <LatitudeDegrees>43.2917672954499721527099609375</LatitudeDegrees>
              <LongitudeDegrees>-2.33645123429596424102783203125</LongitudeDegrees>
            </Position>
            <AltitudeMeters>199.8000030517578125</AltitudeMeters>
            <DistanceMeters>NAN</DistanceMeters>
          </Trackpoint>
          <Trackpoint>
            <Time>2022-07-10T15:45:21.000Z</Time>
            <Position>
              <LatitudeDegrees>43.2918511144816875457763671875</LatitudeDegrees>
              <LongitudeDegrees>-2.33646221458911895751953125</LongitudeDegrees>
            </Position>
            <AltitudeMeters>199.399993896484375</AltitudeMeters>
            <DistanceMeters>NAN</DistanceMeters>
          </Trackpoint>
          <Trackpoint>
            <Time>2022-07-10T15:45:24.000Z</Time>
            <Position>
              <LatitudeDegrees>43.292101062834262847900390625</LatitudeDegrees>
              <LongitudeDegrees>-2.33650219626724720001220703125</LongitudeDegrees>
            </Position>
            <AltitudeMeters>198.1999969482421875</AltitudeMeters>
            <DistanceMeters>NAN</DistanceMeters>
          </Trackpoint>
          <Trackpoint>
            <Time>2022-07-10T15:45:28.000Z</Time>
            <Position>
              <LatitudeDegrees>43.292420245707035064697265625</LatitudeDegrees>
              <LongitudeDegrees>-2.33656103722751140594482421875</LongitudeDegrees>
            </Position>
            <AltitudeMeters>197</AltitudeMeters>
            <DistanceMeters>NAN</DistanceMeters>
          </Trackpoint>
          <Trackpoint>
            <Time>2022-07-10T15:45:29.000Z</Time>
            <Position>
              <LatitudeDegrees>43.292502053081989288330078125</LatitudeDegrees>
              <LongitudeDegrees>-2.33657645992934703826904296875</LongitudeDegrees>
            </Position>
            <AltitudeMeters>196.600006103515625</AltitudeMeters>
            <DistanceMeters>NAN</DistanceMeters>
          </Trackpoint>
          <Trackpoint>
            <Time>2022-07-10T15:45:32.000Z</Time>
            <Position>
              <LatitudeDegrees>43.292779661715030670166015625</LatitudeDegrees>
              <LongitudeDegrees>-2.33664066530764102935791015625</LongitudeDegrees>
            </Position>
            <AltitudeMeters>195.8000030517578125</AltitudeMeters>
            <DistanceMeters>NAN</DistanceMeters>
          </Trackpoint>
          <Trackpoint>
            <Time>2022-07-10T15:45:34.000Z</Time>
            <Position>
              <LatitudeDegrees>43.29293145798146724700927734375</LatitudeDegrees>
              <LongitudeDegrees>-2.33668123371899127960205078125</LongitudeDegrees>
            </Position>
            <AltitudeMeters>194.600006103515625</AltitudeMeters>
            <DistanceMeters>NAN</DistanceMeters>
          </Trackpoint>
          <Trackpoint>
            <Time>2022-07-10T15:45:35.000Z</Time>
            <Position>
              <LatitudeDegrees>43.29303371720016002655029296875</LatitudeDegrees>
              <LongitudeDegrees>-2.33670319430530071258544921875</LongitudeDegrees>
            </Position>
            <AltitudeMeters>194.1999969482421875</AltitudeMeters>
            <DistanceMeters>NAN</DistanceMeters>
          </Trackpoint>
          <Trackpoint>
            <Time>2022-07-10T15:45:36.000Z</Time>
            <Position>
              <LatitudeDegrees>43.2931204698979854583740234375</LatitudeDegrees>
              <LongitudeDegrees>-2.33672481961548328399658203125</LongitudeDegrees>
            </Position>
            <AltitudeMeters>193.600006103515625</AltitudeMeters>
            <DistanceMeters>NAN</DistanceMeters>
          </Trackpoint>
          <Trackpoint>
            <Time>2022-07-10T15:45:39.000Z</Time>
            <Position>
              <LatitudeDegrees>43.29336413182318210601806640625</LatitudeDegrees>
              <LongitudeDegrees>-2.336778379976749420166015625</LongitudeDegrees>
            </Position>
            <AltitudeMeters>192.399993896484375</AltitudeMeters>
            <DistanceMeters>NAN</DistanceMeters>
          </Trackpoint>
          <Trackpoint>
            <Time>2022-07-10T15:45:43.000Z</Time>
            <Position>
              <LatitudeDegrees>43.293711729347705841064453125</LatitudeDegrees>
              <LongitudeDegrees>-2.33685423620045185089111328125</LongitudeDegrees>
            </Position>
            <AltitudeMeters>191.399993896484375</AltitudeMeters>
            <DistanceMeters>NAN</DistanceMeters>
          </Trackpoint>
          <Trackpoint>
            <Time>2022-07-10T15:45:46.000Z</Time>
            <Position>
              <LatitudeDegrees>43.2939831353724002838134765625</LatitudeDegrees>
              <LongitudeDegrees>-2.3369250632822513580322265625</LongitudeDegrees>
            </Position>
            <AltitudeMeters>190.399993896484375</AltitudeMeters>
            <DistanceMeters>NAN</DistanceMeters>
          </Trackpoint>
          <Trackpoint>
            <Time>2022-07-10T15:45:47.000Z</Time>
            <Position>
              <LatitudeDegrees>43.29403786920011043548583984375</LatitudeDegrees>
              <LongitudeDegrees>-2.33696043491363525390625</LongitudeDegrees>
            </Position>
            <AltitudeMeters>190.1999969482421875</AltitudeMeters>
            <DistanceMeters>NAN</DistanceMeters>
          </Trackpoint>
          <Trackpoint>
            <Time>2022-07-10T15:45:48.000Z</Time>
            <Position>
              <LatitudeDegrees>43.29410609789192676544189453125</LatitudeDegrees>
              <LongitudeDegrees>-2.33701919205486774444580078125</LongitudeDegrees>
            </Position>
            <AltitudeMeters>189.8000030517578125</AltitudeMeters>
            <DistanceMeters>NAN</DistanceMeters>
          </Trackpoint>
          <Trackpoint>
            <Time>2022-07-10T15:45:50.000Z</Time>
            <Position>
              <LatitudeDegrees>43.29422847367823123931884765625</LatitudeDegrees>
              <LongitudeDegrees>-2.33718213625252246856689453125</LongitudeDegrees>
            </Position>
            <AltitudeMeters>189</AltitudeMeters>
            <DistanceMeters>NAN</DistanceMeters>
          </Trackpoint>
          <Trackpoint>
            <Time>2022-07-10T15:45:51.000Z</Time>
            <Position>
              <LatitudeDegrees>43.2942714728415012359619140625</LatitudeDegrees>
              <LongitudeDegrees>-2.33729043044149875640869140625</LongitudeDegrees>
            </Position>
            <AltitudeMeters>188.1999969482421875</AltitudeMeters>
            <DistanceMeters>NAN</DistanceMeters>
          </Trackpoint>
          <Trackpoint>
            <Time>2022-07-10T15:45:52.000Z</Time>
            <Position>
              <LatitudeDegrees>43.2942993007600307464599609375</LatitudeDegrees>
              <LongitudeDegrees>-2.3374115489423274993896484375</LongitudeDegrees>
            </Position>
            <AltitudeMeters>187.600006103515625</AltitudeMeters>
            <DistanceMeters>NAN</DistanceMeters>
          </Trackpoint>
          <Trackpoint>
            <Time>2022-07-10T15:45:54.000Z</Time>
            <Position>
              <LatitudeDegrees>43.29429284669458866119384765625</LatitudeDegrees>
              <LongitudeDegrees>-2.3376859724521636962890625</LongitudeDegrees>
            </Position>
            <AltitudeMeters>186.1999969482421875</AltitudeMeters>
            <DistanceMeters>NAN</DistanceMeters>
          </Trackpoint>
          <Trackpoint>
            <Time>2022-07-10T15:45:56.000Z</Time>
            <Position>
              <LatitudeDegrees>43.2942084409296512603759765625</LatitudeDegrees>
              <LongitudeDegrees>-2.33790163882076740264892578125</LongitudeDegrees>
            </Position>
            <AltitudeMeters>185.600006103515625</AltitudeMeters>
            <DistanceMeters>NAN</DistanceMeters>
          </Trackpoint>
          <Trackpoint>
            <Time>2022-07-10T15:45:57.000Z</Time>
            <Position>
              <LatitudeDegrees>43.2941474206745624542236328125</LatitudeDegrees>
              <LongitudeDegrees>-2.338004820048809051513671875</LongitudeDegrees>
            </Position>
            <AltitudeMeters>185.1999969482421875</AltitudeMeters>
            <DistanceMeters>NAN</DistanceMeters>
          </Trackpoint>
          <Trackpoint>
            <Time>2022-07-10T15:46:00.000Z</Time>
            <Position>
              <LatitudeDegrees>43.293935023248195648193359375</LatitudeDegrees>
              <LongitudeDegrees>-2.3383216559886932373046875</LongitudeDegrees>
            </Position>
            <AltitudeMeters>184</AltitudeMeters>
            <DistanceMeters>NAN</DistanceMeters>
          </Trackpoint>
          <Trackpoint>
            <Time>2022-07-10T15:46:03.000Z</Time>
            <Position>
              <LatitudeDegrees>43.2937601767480373382568359375</LatitudeDegrees>
              <LongitudeDegrees>-2.3386138491332530975341796875</LongitudeDegrees>
            </Position>
            <AltitudeMeters>183.1999969482421875</AltitudeMeters>
            <DistanceMeters>NAN</DistanceMeters>
          </Trackpoint>
          <Trackpoint>
            <Time>2022-07-10T15:46:05.000Z</Time>
            <Position>
              <LatitudeDegrees>43.2936984859406948089599609375</LatitudeDegrees>
              <LongitudeDegrees>-2.3388233967125415802001953125</LongitudeDegrees>
            </Position>
            <AltitudeMeters>182.8000030517578125</AltitudeMeters>
            <DistanceMeters>NAN</DistanceMeters>
          </Trackpoint>
          <Trackpoint>
            <Time>2022-07-10T15:46:06.000Z</Time>
            <Position>
              <LatitudeDegrees>43.29368390142917633056640625</LatitudeDegrees>
              <LongitudeDegrees>-2.33895205892622470855712890625</LongitudeDegrees>
            </Position>
            <AltitudeMeters>182.399993896484375</AltitudeMeters>
            <DistanceMeters>NAN</DistanceMeters>
          </Trackpoint>
          <Trackpoint>
            <Time>2022-07-10T15:46:08.000Z</Time>
            <Position>
              <LatitudeDegrees>43.2937041856348514556884765625</LatitudeDegrees>
              <LongitudeDegrees>-2.3392267338931560516357421875</LongitudeDegrees>
            </Position>
            <AltitudeMeters>181.399993896484375</AltitudeMeters>
            <DistanceMeters>NAN</DistanceMeters>
          </Trackpoint>
          <Trackpoint>
            <Time>2022-07-10T15:46:09.000Z</Time>
            <Position>
              <LatitudeDegrees>43.29376378096640110015869140625</LatitudeDegrees>
              <LongitudeDegrees>-2.33936830423772335052490234375</LongitudeDegrees>
            </Position>
            <AltitudeMeters>181</AltitudeMeters>
            <DistanceMeters>NAN</DistanceMeters>
          </Trackpoint>
          <Trackpoint>
            <Time>2022-07-10T15:46:10.000Z</Time>
            <Position>
              <LatitudeDegrees>43.2938111387193202972412109375</LatitudeDegrees>
              <LongitudeDegrees>-2.3394533805549144744873046875</LongitudeDegrees>
            </Position>
            <AltitudeMeters>180.399993896484375</AltitudeMeters>
            <DistanceMeters>NAN</DistanceMeters>
          </Trackpoint>
          <Trackpoint>
            <Time>2022-07-10T15:46:13.000Z</Time>
            <Position>
              <LatitudeDegrees>43.29399629496037960052490234375</LatitudeDegrees>
              <LongitudeDegrees>-2.3397514410316944122314453125</LongitudeDegrees>
            </Position>
            <AltitudeMeters>179.1999969482421875</AltitudeMeters>
            <DistanceMeters>NAN</DistanceMeters>
          </Trackpoint>
          <Trackpoint>
            <Time>2022-07-10T15:46:14.000Z</Time>
            <Position>
              <LatitudeDegrees>43.29404775984585285186767578125</LatitudeDegrees>
              <LongitudeDegrees>-2.33985831029713153839111328125</LongitudeDegrees>
            </Position>
            <AltitudeMeters>179</AltitudeMeters>
            <DistanceMeters>NAN</DistanceMeters>
          </Trackpoint>
          <Trackpoint>
            <Time>2022-07-10T15:46:16.000Z</Time>
            <Position>
              <LatitudeDegrees>43.2941091991961002349853515625</LatitudeDegrees>
              <LongitudeDegrees>-2.34009769745171070098876953125</LongitudeDegrees>
            </Position>
            <AltitudeMeters>178.399993896484375</AltitudeMeters>
            <DistanceMeters>NAN</DistanceMeters>
          </Trackpoint>
          <Trackpoint>
            <Time>2022-07-10T15:46:17.000Z</Time>
            <Position>
              <LatitudeDegrees>43.29412537626922130584716796875</LatitudeDegrees>
              <LongitudeDegrees>-2.3402546904981136322021484375</LongitudeDegrees>
            </Position>
            <AltitudeMeters>177.8000030517578125</AltitudeMeters>
            <DistanceMeters>NAN</DistanceMeters>
          </Trackpoint>
          <Trackpoint>
            <Time>2022-07-10T15:46:19.000Z</Time>
            <Position>
              <LatitudeDegrees>43.29412520863115787506103515625</LatitudeDegrees>
              <LongitudeDegrees>-2.3405379988253116607666015625</LongitudeDegrees>
            </Position>
            <AltitudeMeters>176.399993896484375</AltitudeMeters>
            <DistanceMeters>NAN</DistanceMeters>
          </Trackpoint>
          <Trackpoint>
            <Time>2022-07-10T15:46:21.000Z</Time>
            <Position>
              <LatitudeDegrees>43.2941252924501895904541015625</LatitudeDegrees>
              <LongitudeDegrees>-2.34081099741160869598388671875</LongitudeDegrees>
            </Position>
            <AltitudeMeters>174.8000030517578125</AltitudeMeters>
            <DistanceMeters>NAN</DistanceMeters>
          </Trackpoint>
          <Trackpoint>
            <Time>2022-07-10T15:46:23.000Z</Time>
            <Position>
              <LatitudeDegrees>43.2941564731299877166748046875</LatitudeDegrees>
              <LongitudeDegrees>-2.3411594331264495849609375</LongitudeDegrees>
            </Position>
            <AltitudeMeters>173.600006103515625</AltitudeMeters>
            <DistanceMeters>NAN</DistanceMeters>
          </Trackpoint>
          <Trackpoint>
            <Time>2022-07-10T15:46:24.000Z</Time>
            <Position>
              <LatitudeDegrees>43.294189162552356719970703125</LatitudeDegrees>
              <LongitudeDegrees>-2.3412828147411346435546875</LongitudeDegrees>
            </Position>
            <AltitudeMeters>173</AltitudeMeters>
            <DistanceMeters>NAN</DistanceMeters>
          </Trackpoint>
          <Trackpoint>
            <Time>2022-07-10T15:46:25.000Z</Time>
            <Position>
              <LatitudeDegrees>43.29424356110394001007080078125</LatitudeDegrees>
              <LongitudeDegrees>-2.34141583554446697235107421875</LongitudeDegrees>
            </Position>
            <AltitudeMeters>171.8000030517578125</AltitudeMeters>
            <DistanceMeters>NAN</DistanceMeters>
          </Trackpoint>
          <Trackpoint>
            <Time>2022-07-10T15:46:26.000Z</Time>
            <Position>
              <LatitudeDegrees>43.2943194173276424407958984375</LatitudeDegrees>
              <LongitudeDegrees>-2.34151591546833515167236328125</LongitudeDegrees>
            </Position>
            <AltitudeMeters>171.1999969482421875</AltitudeMeters>
            <DistanceMeters>NAN</DistanceMeters>
          </Trackpoint>
          <Trackpoint>
            <Time>2022-07-10T15:46:27.000Z</Time>
            <Position>
              <LatitudeDegrees>43.2944060862064361572265625</LatitudeDegrees>
              <LongitudeDegrees>-2.34158112667500972747802734375</LongitudeDegrees>
            </Position>
            <AltitudeMeters>170.8000030517578125</AltitudeMeters>
            <DistanceMeters>NAN</DistanceMeters>
          </Trackpoint>
          <Trackpoint>
            <Time>2022-07-10T15:46:28.000Z</Time>
            <Position>
              <LatitudeDegrees>43.294521085917949676513671875</LatitudeDegrees>
              <LongitudeDegrees>-2.3416199348866939544677734375</LongitudeDegrees>
            </Position>
            <AltitudeMeters>170</AltitudeMeters>
            <DistanceMeters>NAN</DistanceMeters>
          </Trackpoint>
          <Trackpoint>
            <Time>2022-07-10T15:46:29.000Z</Time>
            <Position>
              <LatitudeDegrees>43.2946198247373104095458984375</LatitudeDegrees>
              <LongitudeDegrees>-2.3416202701628208160400390625</LongitudeDegrees>
            </Position>
            <AltitudeMeters>169.600006103515625</AltitudeMeters>
            <DistanceMeters>NAN</DistanceMeters>
          </Trackpoint>
          <Trackpoint>
            <Time>2022-07-10T15:46:31.000Z</Time>
            <Position>
              <LatitudeDegrees>43.294789977371692657470703125</LatitudeDegrees>
              <LongitudeDegrees>-2.34157257713377475738525390625</LongitudeDegrees>
            </Position>
            <AltitudeMeters>168.600006103515625</AltitudeMeters>
            <DistanceMeters>NAN</DistanceMeters>
          </Trackpoint>
          <Trackpoint>
            <Time>2022-07-10T15:46:32.000Z</Time>
            <Position>
              <LatitudeDegrees>43.29488477669656276702880859375</LatitudeDegrees>
              <LongitudeDegrees>-2.34152446500957012176513671875</LongitudeDegrees>
            </Position>
            <AltitudeMeters>168</AltitudeMeters>
            <DistanceMeters>NAN</DistanceMeters>
          </Trackpoint>
          <Trackpoint>
            <Time>2022-07-10T15:46:33.000Z</Time>
            <Position>
              <LatitudeDegrees>43.29497513361275196075439453125</LatitudeDegrees>
              <LongitudeDegrees>-2.34145824797451496124267578125</LongitudeDegrees>
            </Position>
            <AltitudeMeters>167.600006103515625</AltitudeMeters>
            <DistanceMeters>NAN</DistanceMeters>
          </Trackpoint>
          <Trackpoint>
            <Time>2022-07-10T15:46:34.000Z</Time>
            <Position>
              <LatitudeDegrees>43.2950524985790252685546875</LatitudeDegrees>
              <LongitudeDegrees>-2.34136722050607204437255859375</LongitudeDegrees>
            </Position>
            <AltitudeMeters>166.8000030517578125</AltitudeMeters>
            <DistanceMeters>NAN</DistanceMeters>
          </Trackpoint>
          <Trackpoint>
            <Time>2022-07-10T15:46:36.000Z</Time>
            <Position>
              <LatitudeDegrees>43.2951892912387847900390625</LatitudeDegrees>
              <LongitudeDegrees>-2.3411808907985687255859375</LongitudeDegrees>
            </Position>
            <AltitudeMeters>165.399993896484375</AltitudeMeters>
            <DistanceMeters>NAN</DistanceMeters>
          </Trackpoint>
          <Trackpoint>
            <Time>2022-07-10T15:46:37.000Z</Time>
            <Position>
              <LatitudeDegrees>43.29525609500706195831298828125</LatitudeDegrees>
              <LongitudeDegrees>-2.34108625911176204681396484375</LongitudeDegrees>
            </Position>
            <AltitudeMeters>165</AltitudeMeters>
            <DistanceMeters>NAN</DistanceMeters>
          </Trackpoint>
          <Trackpoint>
            <Time>2022-07-10T15:46:38.000Z</Time>
            <Position>
              <LatitudeDegrees>43.2953279279172420501708984375</LatitudeDegrees>
              <LongitudeDegrees>-2.340998835861682891845703125</LongitudeDegrees>
            </Position>
            <AltitudeMeters>164.8000030517578125</AltitudeMeters>
            <DistanceMeters>NAN</DistanceMeters>
          </Trackpoint>
          <Trackpoint>
            <Time>2022-07-10T15:46:42.000Z</Time>
            <Position>
              <LatitudeDegrees>43.29565356485545635223388671875</LatitudeDegrees>
              <LongitudeDegrees>-2.34071142040193080902099609375</LongitudeDegrees>
            </Position>
            <AltitudeMeters>164</AltitudeMeters>
            <DistanceMeters>NAN</DistanceMeters>
          </Trackpoint>
          <Trackpoint>
            <Time>2022-07-10T15:46:43.000Z</Time>
            <Position>
              <LatitudeDegrees>43.295754902064800262451171875</LatitudeDegrees>
              <LongitudeDegrees>-2.3406322114169597625732421875</LongitudeDegrees>
            </Position>
            <AltitudeMeters>163.399993896484375</AltitudeMeters>
            <DistanceMeters>NAN</DistanceMeters>
          </Trackpoint>
          <Trackpoint>
            <Time>2022-07-10T15:46:44.000Z</Time>
            <Position>
              <LatitudeDegrees>43.295823633670806884765625</LatitudeDegrees>
              <LongitudeDegrees>-2.34057948924601078033447265625</LongitudeDegrees>
            </Position>
            <AltitudeMeters>162.399993896484375</AltitudeMeters>
            <DistanceMeters>NAN</DistanceMeters>
          </Trackpoint>
          <Trackpoint>
            <Time>2022-07-10T15:46:45.000Z</Time>
            <Position>
              <LatitudeDegrees>43.29590879380702972412109375</LatitudeDegrees>
              <LongitudeDegrees>-2.34051209874451160430908203125</LongitudeDegrees>
            </Position>
            <AltitudeMeters>160.600006103515625</AltitudeMeters>
            <DistanceMeters>NAN</DistanceMeters>
          </Trackpoint>
          <Trackpoint>
            <Time>2022-07-10T15:46:47.000Z</Time>
            <Position>
              <LatitudeDegrees>43.29609763808548450469970703125</LatitudeDegrees>
              <LongitudeDegrees>-2.34037421643733978271484375</LongitudeDegrees>
            </Position>
            <AltitudeMeters>159.1999969482421875</AltitudeMeters>
            <DistanceMeters>NAN</DistanceMeters>
          </Trackpoint>
          <Trackpoint>
            <Time>2022-07-10T15:46:51.000Z</Time>
            <Position>
              <LatitudeDegrees>43.29642889089882373809814453125</LatitudeDegrees>
              <LongitudeDegrees>-2.34011270105838775634765625</LongitudeDegrees>
            </Position>
            <AltitudeMeters>157.600006103515625</AltitudeMeters>
            <DistanceMeters>NAN</DistanceMeters>
          </Trackpoint>
          <Trackpoint>
            <Time>2022-07-10T15:46:52.000Z</Time>
            <Position>
              <LatitudeDegrees>43.2965107820928096771240234375</LatitudeDegrees>
              <LongitudeDegrees>-2.34005679376423358917236328125</LongitudeDegrees>
            </Position>
            <AltitudeMeters>157.1999969482421875</AltitudeMeters>
            <DistanceMeters>NAN</DistanceMeters>
          </Trackpoint>
          <Trackpoint>
            <Time>2022-07-10T15:46:54.000Z</Time>
            <Position>
              <LatitudeDegrees>43.29667967744171619415283203125</LatitudeDegrees>
              <LongitudeDegrees>-2.3399470746517181396484375</LongitudeDegrees>
            </Position>
            <AltitudeMeters>156.399993896484375</AltitudeMeters>
            <DistanceMeters>NAN</DistanceMeters>
          </Trackpoint>
          <Trackpoint>
            <Time>2022-07-10T15:46:56.000Z</Time>
            <Position>
              <LatitudeDegrees>43.296863995492458343505859375</LatitudeDegrees>
              <LongitudeDegrees>-2.33982503414154052734375</LongitudeDegrees>
            </Position>
            <AltitudeMeters>155.8000030517578125</AltitudeMeters>
            <DistanceMeters>NAN</DistanceMeters>
          </Trackpoint>
          <Trackpoint>
            <Time>2022-07-10T15:46:57.000Z</Time>
            <Position>
              <LatitudeDegrees>43.29693146981298923492431640625</LatitudeDegrees>
              <LongitudeDegrees>-2.33977734111249446868896484375</LongitudeDegrees>
            </Position>
            <AltitudeMeters>155</AltitudeMeters>
            <DistanceMeters>NAN</DistanceMeters>
          </Trackpoint>
          <Trackpoint>
            <Time>2022-07-10T15:47:00.000Z</Time>
            <Position>
              <LatitudeDegrees>43.29718686640262603759765625</LatitudeDegrees>
              <LongitudeDegrees>-2.339602746069431304931640625</LongitudeDegrees>
            </Position>
            <AltitudeMeters>153.8000030517578125</AltitudeMeters>
            <DistanceMeters>NAN</DistanceMeters>
          </Trackpoint>
          <Trackpoint>
            <Time>2022-07-10T15:47:01.000Z</Time>
            <Position>
              <LatitudeDegrees>43.29727345146238803863525390625</LatitudeDegrees>
              <LongitudeDegrees>-2.33954801224172115325927734375</LongitudeDegrees>
            </Position>
            <AltitudeMeters>153.600006103515625</AltitudeMeters>
            <DistanceMeters>NAN</DistanceMeters>
          </Trackpoint>
          <Trackpoint>
            <Time>2022-07-10T15:47:03.000Z</Time>
            <Position>
              <LatitudeDegrees>43.297452069818973541259765625</LatitudeDegrees>
              <LongitudeDegrees>-2.33944483101367950439453125</LongitudeDegrees>
            </Position>
            <AltitudeMeters>152.600006103515625</AltitudeMeters>
            <DistanceMeters>NAN</DistanceMeters>
          </Trackpoint>
          <Trackpoint>
            <Time>2022-07-10T15:47:06.000Z</Time>
            <Position>
              <LatitudeDegrees>43.2977238111197948455810546875</LatitudeDegrees>
              <LongitudeDegrees>-2.33931432478129863739013671875</LongitudeDegrees>
            </Position>
            <AltitudeMeters>151.1999969482421875</AltitudeMeters>
            <DistanceMeters>NAN</DistanceMeters>
          </Trackpoint>
          <Trackpoint>
            <Time>2022-07-10T15:47:07.000Z</Time>
            <Position>
              <LatitudeDegrees>43.29783101566135883331298828125</LatitudeDegrees>
              <LongitudeDegrees>-2.3392579145729541778564453125</LongitudeDegrees>
            </Position>
            <AltitudeMeters>150.8000030517578125</AltitudeMeters>
            <DistanceMeters>NAN</DistanceMeters>
          </Trackpoint>
          <Trackpoint>
            <Time>2022-07-10T15:47:08.000Z</Time>
            <Position>
              <LatitudeDegrees>43.29790142364799976348876953125</LatitudeDegrees>
              <LongitudeDegrees>-2.3392173461616039276123046875</LongitudeDegrees>
            </Position>
            <AltitudeMeters>150.1999969482421875</AltitudeMeters>
            <DistanceMeters>NAN</DistanceMeters>
          </Trackpoint>
          <Trackpoint>
            <Time>2022-07-10T15:47:10.000Z</Time>
            <Position>
              <LatitudeDegrees>43.2980849035084247589111328125</LatitudeDegrees>
              <LongitudeDegrees>-2.33910997398197650909423828125</LongitudeDegrees>
            </Position>
            <AltitudeMeters>149.1999969482421875</AltitudeMeters>
            <DistanceMeters>NAN</DistanceMeters>
          </Trackpoint>
          <Trackpoint>
            <Time>2022-07-10T15:47:11.000Z</Time>
            <Position>
              <LatitudeDegrees>43.29817433841526508331298828125</LatitudeDegrees>
              <LongitudeDegrees>-2.3390359617769718170166015625</LongitudeDegrees>
            </Position>
            <AltitudeMeters>149</AltitudeMeters>
            <DistanceMeters>NAN</DistanceMeters>
          </Trackpoint>
          <Trackpoint>
            <Time>2022-07-10T15:47:12.000Z</Time>
            <Position>
              <LatitudeDegrees>43.29824759624898433685302734375</LatitudeDegrees>
              <LongitudeDegrees>-2.33894099481403827667236328125</LongitudeDegrees>
            </Position>
            <AltitudeMeters>148.600006103515625</AltitudeMeters>
            <DistanceMeters>NAN</DistanceMeters>
          </Trackpoint>
          <Trackpoint>
            <Time>2022-07-10T15:47:13.000Z</Time>
            <Position>
              <LatitudeDegrees>43.29830442555248737335205078125</LatitudeDegrees>
              <LongitudeDegrees>-2.33882524073123931884765625</LongitudeDegrees>
            </Position>
            <AltitudeMeters>148</AltitudeMeters>
            <DistanceMeters>NAN</DistanceMeters>
          </Trackpoint>
          <Trackpoint>
            <Time>2022-07-10T15:47:14.000Z</Time>
            <Position>
              <LatitudeDegrees>43.2983554713428020477294921875</LatitudeDegrees>
              <LongitudeDegrees>-2.3386778868734836578369140625</LongitudeDegrees>
            </Position>
            <AltitudeMeters>147.399993896484375</AltitudeMeters>
            <DistanceMeters>NAN</DistanceMeters>
          </Trackpoint>
          <Trackpoint>
            <Time>2022-07-10T15:47:15.000Z</Time>
            <Position>
              <LatitudeDegrees>43.29837776720523834228515625</LatitudeDegrees>
              <LongitudeDegrees>-2.33856766484677791595458984375</LongitudeDegrees>
            </Position>
            <AltitudeMeters>147.1999969482421875</AltitudeMeters>
            <DistanceMeters>NAN</DistanceMeters>
          </Trackpoint>
          <Trackpoint>
            <Time>2022-07-10T15:47:17.000Z</Time>
            <Position>
              <LatitudeDegrees>43.29841422848403453826904296875</LatitudeDegrees>
              <LongitudeDegrees>-2.3382812552154064178466796875</LongitudeDegrees>
            </Position>
            <AltitudeMeters>146.1999969482421875</AltitudeMeters>
            <DistanceMeters>NAN</DistanceMeters>
          </Trackpoint>
          <Trackpoint>
            <Time>2022-07-10T15:47:19.000Z</Time>
            <Position>
              <LatitudeDegrees>43.2984332554042339324951171875</LatitudeDegrees>
              <LongitudeDegrees>-2.33798914588987827301025390625</LongitudeDegrees>
            </Position>
            <AltitudeMeters>145</AltitudeMeters>
            <DistanceMeters>NAN</DistanceMeters>
          </Trackpoint>
          <Trackpoint>
            <Time>2022-07-10T15:47:20.000Z</Time>
            <Position>
              <LatitudeDegrees>43.29844876192510128021240234375</LatitudeDegrees>
              <LongitudeDegrees>-2.3378437198698520660400390625</LongitudeDegrees>
            </Position>
            <AltitudeMeters>144.600006103515625</AltitudeMeters>
            <DistanceMeters>NAN</DistanceMeters>
          </Trackpoint>
          <Trackpoint>
            <Time>2022-07-10T15:47:21.000Z</Time>
            <Position>
              <LatitudeDegrees>43.29848228953778743743896484375</LatitudeDegrees>
              <LongitudeDegrees>-2.3377005569636821746826171875</LongitudeDegrees>
            </Position>
            <AltitudeMeters>143.600006103515625</AltitudeMeters>
            <DistanceMeters>NAN</DistanceMeters>
          </Trackpoint>
          <Trackpoint>
            <Time>2022-07-10T15:47:22.000Z</Time>
            <Position>
              <LatitudeDegrees>43.298530317842960357666015625</LatitudeDegrees>
              <LongitudeDegrees>-2.33756502158939838409423828125</LongitudeDegrees>
            </Position>
            <AltitudeMeters>143</AltitudeMeters>
            <DistanceMeters>NAN</DistanceMeters>
          </Trackpoint>
          <Trackpoint>
            <Time>2022-07-10T15:47:23.000Z</Time>
            <Position>
              <LatitudeDegrees>43.29858739860355854034423828125</LatitudeDegrees>
              <LongitudeDegrees>-2.33744264580309391021728515625</LongitudeDegrees>
            </Position>
            <AltitudeMeters>142.1999969482421875</AltitudeMeters>
            <DistanceMeters>NAN</DistanceMeters>
          </Trackpoint>
          <Trackpoint>
            <Time>2022-07-10T15:47:24.000Z</Time>
            <Position>
              <LatitudeDegrees>43.298670463263988494873046875</LatitudeDegrees>
              <LongitudeDegrees>-2.33732144348323345184326171875</LongitudeDegrees>
            </Position>
            <AltitudeMeters>141.399993896484375</AltitudeMeters>
            <DistanceMeters>NAN</DistanceMeters>
          </Trackpoint>
          <Trackpoint>
            <Time>2022-07-10T15:47:25.000Z</Time>
            <Position>
              <LatitudeDegrees>43.2987339980900287628173828125</LatitudeDegrees>
              <LongitudeDegrees>-2.33725480735301971435546875</LongitudeDegrees>
            </Position>
            <AltitudeMeters>140.8000030517578125</AltitudeMeters>
            <DistanceMeters>NAN</DistanceMeters>
          </Trackpoint>
          <Trackpoint>
            <Time>2022-07-10T15:47:26.000Z</Time>
            <Position>
              <LatitudeDegrees>43.29883097670972347259521484375</LatitudeDegrees>
              <LongitudeDegrees>-2.337172329425811767578125</LongitudeDegrees>
            </Position>
            <AltitudeMeters>140.399993896484375</AltitudeMeters>
            <DistanceMeters>NAN</DistanceMeters>
          </Trackpoint>
          <Trackpoint>
            <Time>2022-07-10T15:47:27.000Z</Time>
            <Position>
              <LatitudeDegrees>43.29889819957315921783447265625</LatitudeDegrees>
              <LongitudeDegrees>-2.33713620342314243316650390625</LongitudeDegrees>
            </Position>
            <AltitudeMeters>139.8000030517578125</AltitudeMeters>
            <DistanceMeters>NAN</DistanceMeters>
          </Trackpoint>
          <Trackpoint>
            <Time>2022-07-10T15:47:28.000Z</Time>
            <Position>
              <LatitudeDegrees>43.29898394644260406494140625</LatitudeDegrees>
              <LongitudeDegrees>-2.33710460364818572998046875</LongitudeDegrees>
            </Position>
            <AltitudeMeters>139</AltitudeMeters>
            <DistanceMeters>NAN</DistanceMeters>
          </Trackpoint>
          <Trackpoint>
            <Time>2022-07-10T15:47:29.000Z</Time>
            <Position>
              <LatitudeDegrees>43.29909165389835834503173828125</LatitudeDegrees>
              <LongitudeDegrees>-2.337081134319305419921875</LongitudeDegrees>
            </Position>
            <AltitudeMeters>138.600006103515625</AltitudeMeters>
            <DistanceMeters>NAN</DistanceMeters>
          </Trackpoint>
          <Trackpoint>
            <Time>2022-07-10T15:47:30.000Z</Time>
            <Position>
              <LatitudeDegrees>43.2991611398756504058837890625</LatitudeDegrees>
              <LongitudeDegrees>-2.33707501552999019622802734375</LongitudeDegrees>
            </Position>
            <AltitudeMeters>138</AltitudeMeters>
            <DistanceMeters>NAN</DistanceMeters>
          </Trackpoint>
          <Trackpoint>
            <Time>2022-07-10T15:47:31.000Z</Time>
            <Position>
              <LatitudeDegrees>43.2992516644299030303955078125</LatitudeDegrees>
              <LongitudeDegrees>-2.3370846547186374664306640625</LongitudeDegrees>
            </Position>
            <AltitudeMeters>137.1999969482421875</AltitudeMeters>
            <DistanceMeters>NAN</DistanceMeters>
          </Trackpoint>
          <Trackpoint>
            <Time>2022-07-10T15:47:32.000Z</Time>
            <Position>
              <LatitudeDegrees>43.2993472181260585784912109375</LatitudeDegrees>
              <LongitudeDegrees>-2.337107956409454345703125</LongitudeDegrees>
            </Position>
            <AltitudeMeters>136.8000030517578125</AltitudeMeters>
            <DistanceMeters>NAN</DistanceMeters>
          </Trackpoint>
          <Trackpoint>
            <Time>2022-07-10T15:47:33.000Z</Time>
            <Position>
              <LatitudeDegrees>43.29943682067096233367919921875</LatitudeDegrees>
              <LongitudeDegrees>-2.33712748624384403228759765625</LongitudeDegrees>
            </Position>
            <AltitudeMeters>136.1999969482421875</AltitudeMeters>
            <DistanceMeters>NAN</DistanceMeters>
          </Trackpoint>
          <Trackpoint>
            <Time>2022-07-10T15:47:35.000Z</Time>
            <Position>
              <LatitudeDegrees>43.29959875904023647308349609375</LatitudeDegrees>
              <LongitudeDegrees>-2.3371550627052783966064453125</LongitudeDegrees>
            </Position>
            <AltitudeMeters>135</AltitudeMeters>
            <DistanceMeters>NAN</DistanceMeters>
          </Trackpoint>
          <Trackpoint>
            <Time>2022-07-10T15:47:37.000Z</Time>
            <Position>
              <LatitudeDegrees>43.29974510706961154937744140625</LatitudeDegrees>
              <LongitudeDegrees>-2.337175346910953521728515625</LongitudeDegrees>
            </Position>
            <AltitudeMeters>134.1999969482421875</AltitudeMeters>
            <DistanceMeters>NAN</DistanceMeters>
          </Trackpoint>
          <Trackpoint>
            <Time>2022-07-10T15:47:38.000Z</Time>
            <Position>
              <LatitudeDegrees>43.29980277456343173980712890625</LatitudeDegrees>
              <LongitudeDegrees>-2.33717006631195545196533203125</LongitudeDegrees>
            </Position>
            <AltitudeMeters>133.8000030517578125</AltitudeMeters>
            <DistanceMeters>NAN</DistanceMeters>
          </Trackpoint>
          <Trackpoint>
            <Time>2022-07-10T15:47:39.000Z</Time>
            <Position>
              <LatitudeDegrees>43.29985256306827068328857421875</LatitudeDegrees>
              <LongitudeDegrees>-2.3371584154665470123291015625</LongitudeDegrees>
            </Position>
            <AltitudeMeters>133.1999969482421875</AltitudeMeters>
            <DistanceMeters>NAN</DistanceMeters>
          </Trackpoint>
          <Trackpoint>
            <Time>2022-07-10T15:47:40.000Z</Time>
            <Position>
              <LatitudeDegrees>43.29988994635641574859619140625</LatitudeDegrees>
              <LongitudeDegrees>-2.33713938854634761810302734375</LongitudeDegrees>
            </Position>
            <AltitudeMeters>132.600006103515625</AltitudeMeters>
            <DistanceMeters>NAN</DistanceMeters>
          </Trackpoint>
          <Trackpoint>
            <Time>2022-07-10T15:47:41.000Z</Time>
            <Position>
              <LatitudeDegrees>43.2999207079410552978515625</LatitudeDegrees>
              <LongitudeDegrees>-2.33712614513933658599853515625</LongitudeDegrees>
            </Position>
            <AltitudeMeters>132.1999969482421875</AltitudeMeters>
            <DistanceMeters>NAN</DistanceMeters>
          </Trackpoint>
          <Trackpoint>
            <Time>2022-07-10T15:47:42.000Z</Time>
            <Position>
              <LatitudeDegrees>43.29995264299213886260986328125</LatitudeDegrees>
              <LongitudeDegrees>-2.3371195234358310699462890625</LongitudeDegrees>
            </Position>
            <AltitudeMeters>131.600006103515625</AltitudeMeters>
            <DistanceMeters>NAN</DistanceMeters>
          </Trackpoint>
          <Trackpoint>
            <Time>2022-07-10T15:47:46.000Z</Time>
            <Position>
              <LatitudeDegrees>43.3000536449253559112548828125</LatitudeDegrees>
              <LongitudeDegrees>-2.337093539535999298095703125</LongitudeDegrees>
            </Position>
            <AltitudeMeters>130.399993896484375</AltitudeMeters>
            <DistanceMeters>NAN</DistanceMeters>
          </Trackpoint>
          <Trackpoint>
            <Time>2022-07-10T15:47:47.000Z</Time>
            <Position>
              <LatitudeDegrees>43.3000593446195125579833984375</LatitudeDegrees>
              <LongitudeDegrees>-2.33707954175770282745361328125</LongitudeDegrees>
            </Position>
            <AltitudeMeters>130.1999969482421875</AltitudeMeters>
            <DistanceMeters>NAN</DistanceMeters>
          </Trackpoint>
          <Trackpoint>
            <Time>2022-07-10T15:47:50.000Z</Time>
            <Position>
              <LatitudeDegrees>43.3000402338802814483642578125</LatitudeDegrees>
              <LongitudeDegrees>-2.33704316429793834686279296875</LongitudeDegrees>
            </Position>
            <AltitudeMeters>130</AltitudeMeters>
            <DistanceMeters>NAN</DistanceMeters>
          </Trackpoint>
          <Trackpoint>
            <Time>2022-07-10T15:47:52.000Z</Time>
            <Position>
              <LatitudeDegrees>43.300024308264255523681640625</LatitudeDegrees>
              <LongitudeDegrees>-2.33702816069126129150390625</LongitudeDegrees>
            </Position>
            <AltitudeMeters>130</AltitudeMeters>
            <DistanceMeters>NAN</DistanceMeters>
          </Trackpoint>
          <Trackpoint>
            <Time>2022-07-10T15:47:55.000Z</Time>
            <Position>
              <LatitudeDegrees>43.30002321861684322357177734375</LatitudeDegrees>
              <LongitudeDegrees>-2.33702321536839008331298828125</LongitudeDegrees>
            </Position>
            <AltitudeMeters>130</AltitudeMeters>
            <DistanceMeters>NAN</DistanceMeters>
          </Trackpoint>
          <Trackpoint>
            <Time>2022-07-10T15:48:43.000Z</Time>
            <Position>
              <LatitudeDegrees>43.30005004070699214935302734375</LatitudeDegrees>
              <LongitudeDegrees>-2.3370756022632122039794921875</LongitudeDegrees>
            </Position>
            <AltitudeMeters>129.600006103515625</AltitudeMeters>
            <DistanceMeters>NAN</DistanceMeters>
          </Trackpoint>
          <Trackpoint>
            <Time>2022-07-10T15:48:44.000Z</Time>
            <Position>
              <LatitudeDegrees>43.3000613562762737274169921875</LatitudeDegrees>
              <LongitudeDegrees>-2.3371004126965999603271484375</LongitudeDegrees>
            </Position>
            <AltitudeMeters>129.600006103515625</AltitudeMeters>
            <DistanceMeters>NAN</DistanceMeters>
          </Trackpoint>
          <Trackpoint>
            <Time>2022-07-10T15:48:48.000Z</Time>
            <Position>
              <LatitudeDegrees>43.3000896871089935302734375</LatitudeDegrees>
              <LongitudeDegrees>-2.3371999897062778472900390625</LongitudeDegrees>
            </Position>
            <AltitudeMeters>129.399993896484375</AltitudeMeters>
            <DistanceMeters>NAN</DistanceMeters>
          </Trackpoint>
          <Trackpoint>
            <Time>2022-07-10T15:48:49.000Z</Time>
            <Position>
              <LatitudeDegrees>43.3000925369560718536376953125</LatitudeDegrees>
              <LongitudeDegrees>-2.33720812015235424041748046875</LongitudeDegrees>
            </Position>
            <AltitudeMeters>129.1999969482421875</AltitudeMeters>
            <DistanceMeters>NAN</DistanceMeters>
          </Trackpoint>
          <Trackpoint>
            <Time>2022-07-10T15:48:51.000Z</Time>
            <Position>
              <LatitudeDegrees>43.3000925369560718536376953125</LatitudeDegrees>
              <LongitudeDegrees>-2.33720812015235424041748046875</LongitudeDegrees>
            </Position>
            <AltitudeMeters>129</AltitudeMeters>
            <DistanceMeters>NAN</DistanceMeters>
          </Trackpoint>
          <Trackpoint>
            <Time>2022-07-10T15:50:55.000Z</Time>
            <Position>
              <LatitudeDegrees>43.3001475222408771514892578125</LatitudeDegrees>
              <LongitudeDegrees>-2.3372975550591945648193359375</LongitudeDegrees>
            </Position>
            <AltitudeMeters>127.1999969482421875</AltitudeMeters>
            <DistanceMeters>NAN</DistanceMeters>
          </Trackpoint>
          <Trackpoint>
            <Time>2022-07-10T15:50:56.000Z</Time>
            <Position>
              <LatitudeDegrees>43.3001595921814441680908203125</LatitudeDegrees>
              <LongitudeDegrees>-2.33732848428189754486083984375</LongitudeDegrees>
            </Position>
            <AltitudeMeters>127.1999969482421875</AltitudeMeters>
            <DistanceMeters>NAN</DistanceMeters>
          </Trackpoint>
          <Trackpoint>
            <Time>2022-07-10T15:51:04.000Z</Time>
            <Position>
              <LatitudeDegrees>43.3002132363617420196533203125</LatitudeDegrees>
              <LongitudeDegrees>-2.33757533133029937744140625</LongitudeDegrees>
            </Position>
            <AltitudeMeters>126.8000030517578125</AltitudeMeters>
            <DistanceMeters>NAN</DistanceMeters>
          </Trackpoint>
          <Trackpoint>
            <Time>2022-07-10T15:51:06.000Z</Time>
            <Position>
              <LatitudeDegrees>43.3002175949513912200927734375</LatitudeDegrees>
              <LongitudeDegrees>-2.33765873126685619354248046875</LongitudeDegrees>
            </Position>
            <AltitudeMeters>126.59999847412109375</AltitudeMeters>
            <DistanceMeters>NAN</DistanceMeters>
          </Trackpoint>
          <Trackpoint>
            <Time>2022-07-10T15:51:07.000Z</Time>
            <Position>
              <LatitudeDegrees>43.300218097865581512451171875</LatitudeDegrees>
              <LongitudeDegrees>-2.33770969323813915252685546875</LongitudeDegrees>
            </Position>
            <AltitudeMeters>126</AltitudeMeters>
            <DistanceMeters>NAN</DistanceMeters>
          </Trackpoint>
          <Trackpoint>
            <Time>2022-07-10T15:51:09.000Z</Time>
            <Position>
              <LatitudeDegrees>43.30022446811199188232421875</LatitudeDegrees>
              <LongitudeDegrees>-2.337819747626781463623046875</LongitudeDegrees>
            </Position>
            <AltitudeMeters>125.59999847412109375</AltitudeMeters>
            <DistanceMeters>NAN</DistanceMeters>
          </Trackpoint>
          <Trackpoint>
            <Time>2022-07-10T15:51:10.000Z</Time>
            <Position>
              <LatitudeDegrees>43.300230167806148529052734375</LatitudeDegrees>
              <LongitudeDegrees>-2.33788152225315570831298828125</LongitudeDegrees>
            </Position>
            <AltitudeMeters>125.1999969482421875</AltitudeMeters>
            <DistanceMeters>NAN</DistanceMeters>
          </Trackpoint>
          <Trackpoint>
            <Time>2022-07-10T15:51:14.000Z</Time>
            <Position>
              <LatitudeDegrees>43.30024869181215763092041015625</LatitudeDegrees>
              <LongitudeDegrees>-2.338160388171672821044921875</LongitudeDegrees>
            </Position>
            <AltitudeMeters>125.1999969482421875</AltitudeMeters>
            <DistanceMeters>NAN</DistanceMeters>
          </Trackpoint>
          <Trackpoint>
            <Time>2022-07-10T15:51:16.000Z</Time>
            <Position>
              <LatitudeDegrees>43.30026294104754924774169921875</LatitudeDegrees>
              <LongitudeDegrees>-2.338309586048126220703125</LongitudeDegrees>
            </Position>
            <AltitudeMeters>125</AltitudeMeters>
            <DistanceMeters>NAN</DistanceMeters>
          </Trackpoint>
          <Trackpoint>
            <Time>2022-07-10T15:51:20.000Z</Time>
            <Position>
              <LatitudeDegrees>43.30027945339679718017578125</LatitudeDegrees>
              <LongitudeDegrees>-2.3386554233729839324951171875</LongitudeDegrees>
            </Position>
            <AltitudeMeters>124</AltitudeMeters>
            <DistanceMeters>NAN</DistanceMeters>
          </Trackpoint>
          <Trackpoint>
            <Time>2022-07-10T15:51:22.000Z</Time>
            <Position>
              <LatitudeDegrees>43.30029018223285675048828125</LatitudeDegrees>
              <LongitudeDegrees>-2.33884359709918498992919921875</LongitudeDegrees>
            </Position>
            <AltitudeMeters>123.40000152587890625</AltitudeMeters>
            <DistanceMeters>NAN</DistanceMeters>
          </Trackpoint>
          <Trackpoint>
            <Time>2022-07-10T15:51:24.000Z</Time>
            <Position>
              <LatitudeDegrees>43.30030233599245548248291015625</LatitudeDegrees>
              <LongitudeDegrees>-2.33902900479733943939208984375</LongitudeDegrees>
            </Position>
            <AltitudeMeters>123</AltitudeMeters>
            <DistanceMeters>NAN</DistanceMeters>
          </Trackpoint>
          <Trackpoint>
            <Time>2022-07-10T15:51:25.000Z</Time>
            <Position>
              <LatitudeDegrees>43.30031222663819789886474609375</LatitudeDegrees>
              <LongitudeDegrees>-2.339123301208019256591796875</LongitudeDegrees>
            </Position>
            <AltitudeMeters>122.59999847412109375</AltitudeMeters>
            <DistanceMeters>NAN</DistanceMeters>
          </Trackpoint>
          <Trackpoint>
            <Time>2022-07-10T15:51:28.000Z</Time>
            <Position>
              <LatitudeDegrees>43.30033779144287109375</LatitudeDegrees>
              <LongitudeDegrees>-2.339404262602329254150390625</LongitudeDegrees>
            </Position>
            <AltitudeMeters>122</AltitudeMeters>
            <DistanceMeters>NAN</DistanceMeters>
          </Trackpoint>
          <Trackpoint>
            <Time>2022-07-10T15:51:30.000Z</Time>
            <Position>
              <LatitudeDegrees>43.3003604225814342498779296875</LatitudeDegrees>
              <LongitudeDegrees>-2.33958975411951541900634765625</LongitudeDegrees>
            </Position>
            <AltitudeMeters>121.40000152587890625</AltitudeMeters>
            <DistanceMeters>NAN</DistanceMeters>
          </Trackpoint>
          <Trackpoint>
            <Time>2022-07-10T15:51:31.000Z</Time>
            <Position>
              <LatitudeDegrees>43.300378024578094482421875</LatitudeDegrees>
              <LongitudeDegrees>-2.33968078158795833587646484375</LongitudeDegrees>
            </Position>
            <AltitudeMeters>121.1999969482421875</AltitudeMeters>
            <DistanceMeters>NAN</DistanceMeters>
          </Trackpoint>
          <Trackpoint>
            <Time>2022-07-10T15:51:33.000Z</Time>
            <Position>
              <LatitudeDegrees>43.30045111477375030517578125</LatitudeDegrees>
              <LongitudeDegrees>-2.33984255231916904449462890625</LongitudeDegrees>
            </Position>
            <AltitudeMeters>120.59999847412109375</AltitudeMeters>
            <DistanceMeters>NAN</DistanceMeters>
          </Trackpoint>
          <Trackpoint>
            <Time>2022-07-10T15:51:34.000Z</Time>
            <Position>
              <LatitudeDegrees>43.30050165764987468719482421875</LatitudeDegrees>
              <LongitudeDegrees>-2.339913882315158843994140625</LongitudeDegrees>
            </Position>
            <AltitudeMeters>120.1999969482421875</AltitudeMeters>
            <DistanceMeters>NAN</DistanceMeters>
          </Trackpoint>
          <Trackpoint>
            <Time>2022-07-10T15:51:37.000Z</Time>
            <Position>
              <LatitudeDegrees>43.300680778920650482177734375</LatitudeDegrees>
              <LongitudeDegrees>-2.34010272659361362457275390625</LongitudeDegrees>
            </Position>
            <AltitudeMeters>119.1999969482421875</AltitudeMeters>
            <DistanceMeters>NAN</DistanceMeters>
          </Trackpoint>
          <Trackpoint>
            <Time>2022-07-10T15:51:38.000Z</Time>
            <Position>
              <LatitudeDegrees>43.300749175250530242919921875</LatitudeDegrees>
              <LongitudeDegrees>-2.34015217982232570648193359375</LongitudeDegrees>
            </Position>
            <AltitudeMeters>118.8000030517578125</AltitudeMeters>
            <DistanceMeters>NAN</DistanceMeters>
          </Trackpoint>
          <Trackpoint>
            <Time>2022-07-10T15:51:40.000Z</Time>
            <Position>
              <LatitudeDegrees>43.3008891530334949493408203125</LatitudeDegrees>
              <LongitudeDegrees>-2.3402359150350093841552734375</LongitudeDegrees>
            </Position>
            <AltitudeMeters>117.8000030517578125</AltitudeMeters>
            <DistanceMeters>NAN</DistanceMeters>
          </Trackpoint>
          <Trackpoint>
            <Time>2022-07-10T15:51:41.000Z</Time>
            <Position>
              <LatitudeDegrees>43.3009723015129566192626953125</LatitudeDegrees>
              <LongitudeDegrees>-2.3402915708720684051513671875</LongitudeDegrees>
            </Position>
            <AltitudeMeters>117.40000152587890625</AltitudeMeters>
            <DistanceMeters>NAN</DistanceMeters>
          </Trackpoint>
          <Trackpoint>
            <Time>2022-07-10T15:51:42.000Z</Time>
            <Position>
              <LatitudeDegrees>43.3010252751410007476806640625</LatitudeDegrees>
              <LongitudeDegrees>-2.34034094028174877166748046875</LongitudeDegrees>
            </Position>
            <AltitudeMeters>116.8000030517578125</AltitudeMeters>
            <DistanceMeters>NAN</DistanceMeters>
          </Trackpoint>
          <Trackpoint>
            <Time>2022-07-10T15:51:43.000Z</Time>
            <Position>
              <LatitudeDegrees>43.301080763339996337890625</LatitudeDegrees>
              <LongitudeDegrees>-2.34041051007807254791259765625</LongitudeDegrees>
            </Position>
            <AltitudeMeters>116</AltitudeMeters>
            <DistanceMeters>NAN</DistanceMeters>
          </Trackpoint>
          <Trackpoint>
            <Time>2022-07-10T15:51:44.000Z</Time>
            <Position>
              <LatitudeDegrees>43.30112359486520290374755859375</LatitudeDegrees>
              <LongitudeDegrees>-2.340491898357868194580078125</LongitudeDegrees>
            </Position>
            <AltitudeMeters>115.40000152587890625</AltitudeMeters>
            <DistanceMeters>NAN</DistanceMeters>
          </Trackpoint>
          <Trackpoint>
            <Time>2022-07-10T15:51:45.000Z</Time>
            <Position>
              <LatitudeDegrees>43.301156200468540191650390625</LatitudeDegrees>
              <LongitudeDegrees>-2.34057630412280559539794921875</LongitudeDegrees>
            </Position>
            <AltitudeMeters>114.59999847412109375</AltitudeMeters>
            <DistanceMeters>NAN</DistanceMeters>
          </Trackpoint>
          <Trackpoint>
            <Time>2022-07-10T15:51:46.000Z</Time>
            <Position>
              <LatitudeDegrees>43.3011858724057674407958984375</LatitudeDegrees>
              <LongitudeDegrees>-2.34068744815886020660400390625</LongitudeDegrees>
            </Position>
            <AltitudeMeters>114</AltitudeMeters>
            <DistanceMeters>NAN</DistanceMeters>
          </Trackpoint>
          <Trackpoint>
            <Time>2022-07-10T15:51:48.000Z</Time>
            <Position>
              <LatitudeDegrees>43.30121965147554874420166015625</LatitudeDegrees>
              <LongitudeDegrees>-2.34086950309574604034423828125</LongitudeDegrees>
            </Position>
            <AltitudeMeters>112.59999847412109375</AltitudeMeters>
            <DistanceMeters>NAN</DistanceMeters>
          </Trackpoint>
          <Trackpoint>
            <Time>2022-07-10T15:51:49.000Z</Time>
            <Position>
              <LatitudeDegrees>43.30123658291995525360107421875</LatitudeDegrees>
              <LongitudeDegrees>-2.34097729437053203582763671875</LongitudeDegrees>
            </Position>
            <AltitudeMeters>112.40000152587890625</AltitudeMeters>
            <DistanceMeters>NAN</DistanceMeters>
          </Trackpoint>
          <Trackpoint>
            <Time>2022-07-10T15:51:51.000Z</Time>
            <Position>
              <LatitudeDegrees>43.30128100700676441192626953125</LatitudeDegrees>
              <LongitudeDegrees>-2.34119555912911891937255859375</LongitudeDegrees>
            </Position>
            <AltitudeMeters>111.40000152587890625</AltitudeMeters>
            <DistanceMeters>NAN</DistanceMeters>
          </Trackpoint>
          <Trackpoint>
            <Time>2022-07-10T15:51:52.000Z</Time>
            <Position>
              <LatitudeDegrees>43.30131604336202144622802734375</LatitudeDegrees>
              <LongitudeDegrees>-2.34130368568003177642822265625</LongitudeDegrees>
            </Position>
            <AltitudeMeters>111.1999969482421875</AltitudeMeters>
            <DistanceMeters>NAN</DistanceMeters>
          </Trackpoint>
          <Trackpoint>
            <Time>2022-07-10T15:51:54.000Z</Time>
            <Position>
              <LatitudeDegrees>43.3013940788805484771728515625</LatitudeDegrees>
              <LongitudeDegrees>-2.34149881638586521148681640625</LongitudeDegrees>
            </Position>
            <AltitudeMeters>110.1999969482421875</AltitudeMeters>
            <DistanceMeters>NAN</DistanceMeters>
          </Trackpoint>
          <Trackpoint>
            <Time>2022-07-10T15:51:57.000Z</Time>
            <Position>
              <LatitudeDegrees>43.30152978189289569854736328125</LatitudeDegrees>
              <LongitudeDegrees>-2.34179486520588397979736328125</LongitudeDegrees>
            </Position>
            <AltitudeMeters>108.59999847412109375</AltitudeMeters>
            <DistanceMeters>NAN</DistanceMeters>
          </Trackpoint>
          <Trackpoint>
            <Time>2022-07-10T15:51:59.000Z</Time>
            <Position>
              <LatitudeDegrees>43.3016344718635082244873046875</LatitudeDegrees>
              <LongitudeDegrees>-2.342008017003536224365234375</LongitudeDegrees>
            </Position>
            <AltitudeMeters>107.8000030517578125</AltitudeMeters>
            <DistanceMeters>NAN</DistanceMeters>
          </Trackpoint>
          <Trackpoint>
            <Time>2022-07-10T15:52:00.000Z</Time>
            <Position>
              <LatitudeDegrees>43.3016881160438060760498046875</LatitudeDegrees>
              <LongitudeDegrees>-2.3421117849647998809814453125</LongitudeDegrees>
            </Position>
            <AltitudeMeters>107.1999969482421875</AltitudeMeters>
            <DistanceMeters>NAN</DistanceMeters>
          </Trackpoint>
          <Trackpoint>
            <Time>2022-07-10T15:52:02.000Z</Time>
            <Position>
              <LatitudeDegrees>43.30178375355899333953857421875</LatitudeDegrees>
              <LongitudeDegrees>-2.34233315102756023406982421875</LongitudeDegrees>
            </Position>
            <AltitudeMeters>105.8000030517578125</AltitudeMeters>
            <DistanceMeters>NAN</DistanceMeters>
          </Trackpoint>
          <Trackpoint>
            <Time>2022-07-10T15:52:04.000Z</Time>
            <Position>
              <LatitudeDegrees>43.3018855936825275421142578125</LatitudeDegrees>
              <LongitudeDegrees>-2.34255208633840084075927734375</LongitudeDegrees>
            </Position>
            <AltitudeMeters>104.8000030517578125</AltitudeMeters>
            <DistanceMeters>NAN</DistanceMeters>
          </Trackpoint>
          <Trackpoint>
            <Time>2022-07-10T15:52:06.000Z</Time>
            <Position>
              <LatitudeDegrees>43.301999084651470184326171875</LatitudeDegrees>
              <LongitudeDegrees>-2.342768423259258270263671875</LongitudeDegrees>
            </Position>
            <AltitudeMeters>103.8000030517578125</AltitudeMeters>
            <DistanceMeters>NAN</DistanceMeters>
          </Trackpoint>
          <Trackpoint>
            <Time>2022-07-10T15:52:07.000Z</Time>
            <Position>
              <LatitudeDegrees>43.30205507576465606689453125</LatitudeDegrees>
              <LongitudeDegrees>-2.34287395142018795013427734375</LongitudeDegrees>
            </Position>
            <AltitudeMeters>103.40000152587890625</AltitudeMeters>
            <DistanceMeters>NAN</DistanceMeters>
          </Trackpoint>
          <Trackpoint>
            <Time>2022-07-10T15:52:09.000Z</Time>
            <Position>
              <LatitudeDegrees>43.30215708352625370025634765625</LatitudeDegrees>
              <LongitudeDegrees>-2.34309121035039424896240234375</LongitudeDegrees>
            </Position>
            <AltitudeMeters>101.8000030517578125</AltitudeMeters>
            <DistanceMeters>NAN</DistanceMeters>
          </Trackpoint>
          <Trackpoint>
            <Time>2022-07-10T15:52:10.000Z</Time>
            <Position>
              <LatitudeDegrees>43.30219496972858905792236328125</LatitudeDegrees>
              <LongitudeDegrees>-2.343207299709320068359375</LongitudeDegrees>
            </Position>
            <AltitudeMeters>101.40000152587890625</AltitudeMeters>
            <DistanceMeters>NAN</DistanceMeters>
          </Trackpoint>
          <Trackpoint>
            <Time>2022-07-10T15:52:11.000Z</Time>
            <Position>
              <LatitudeDegrees>43.30221927724778652191162109375</LatitudeDegrees>
              <LongitudeDegrees>-2.343330346047878265380859375</LongitudeDegrees>
            </Position>
            <AltitudeMeters>100.8000030517578125</AltitudeMeters>
            <DistanceMeters>NAN</DistanceMeters>
          </Trackpoint>
          <Trackpoint>
            <Time>2022-07-10T15:52:12.000Z</Time>
            <Position>
              <LatitudeDegrees>43.3022258989512920379638671875</LatitudeDegrees>
              <LongitudeDegrees>-2.34345431439578533172607421875</LongitudeDegrees>
            </Position>
            <AltitudeMeters>100.1999969482421875</AltitudeMeters>
            <DistanceMeters>NAN</DistanceMeters>
          </Trackpoint>
          <Trackpoint>
            <Time>2022-07-10T15:52:13.000Z</Time>
            <Position>
              <LatitudeDegrees>43.3022067882120609283447265625</LatitudeDegrees>
              <LongitudeDegrees>-2.343572415411472320556640625</LongitudeDegrees>
            </Position>
            <AltitudeMeters>99.40000152587890625</AltitudeMeters>
            <DistanceMeters>NAN</DistanceMeters>
          </Trackpoint>
          <Trackpoint>
            <Time>2022-07-10T15:52:14.000Z</Time>
            <Position>
              <LatitudeDegrees>43.3021642081439495086669921875</LatitudeDegrees>
              <LongitudeDegrees>-2.3436865769326686859130859375</LongitudeDegrees>
            </Position>
            <AltitudeMeters>98.40000152587890625</AltitudeMeters>
            <DistanceMeters>NAN</DistanceMeters>
          </Trackpoint>
          <Trackpoint>
            <Time>2022-07-10T15:52:16.000Z</Time>
            <Position>
              <LatitudeDegrees>43.30202783457934856414794921875</LatitudeDegrees>
              <LongitudeDegrees>-2.3438659496605396270751953125</LongitudeDegrees>
            </Position>
            <AltitudeMeters>97.40000152587890625</AltitudeMeters>
            <DistanceMeters>NAN</DistanceMeters>
          </Trackpoint>
          <Trackpoint>
            <Time>2022-07-10T15:52:17.000Z</Time>
            <Position>
              <LatitudeDegrees>43.30194166861474514007568359375</LatitudeDegrees>
              <LongitudeDegrees>-2.3439301550388336181640625</LongitudeDegrees>
            </Position>
            <AltitudeMeters>97.1999969482421875</AltitudeMeters>
            <DistanceMeters>NAN</DistanceMeters>
          </Trackpoint>
          <Trackpoint>
            <Time>2022-07-10T15:52:20.000Z</Time>
            <Position>
              <LatitudeDegrees>43.30167260952293872833251953125</LatitudeDegrees>
              <LongitudeDegrees>-2.34409636817872524261474609375</LongitudeDegrees>
            </Position>
            <AltitudeMeters>96</AltitudeMeters>
            <DistanceMeters>NAN</DistanceMeters>
          </Trackpoint>
          <Trackpoint>
            <Time>2022-07-10T15:52:21.000Z</Time>
            <Position>
              <LatitudeDegrees>43.3015892095863819122314453125</LatitudeDegrees>
              <LongitudeDegrees>-2.3441710509359836578369140625</LongitudeDegrees>
            </Position>
            <AltitudeMeters>95.8000030517578125</AltitudeMeters>
            <DistanceMeters>NAN</DistanceMeters>
          </Trackpoint>
          <Trackpoint>
            <Time>2022-07-10T15:52:23.000Z</Time>
            <Position>
              <LatitudeDegrees>43.3014577813446521759033203125</LatitudeDegrees>
              <LongitudeDegrees>-2.344358973205089569091796875</LongitudeDegrees>
            </Position>
            <AltitudeMeters>95</AltitudeMeters>
            <DistanceMeters>NAN</DistanceMeters>
          </Trackpoint>
          <Trackpoint>
            <Time>2022-07-10T15:52:25.000Z</Time>
            <Position>
              <LatitudeDegrees>43.30135309137403964996337890625</LatitudeDegrees>
              <LongitudeDegrees>-2.34456785023212432861328125</LongitudeDegrees>
            </Position>
            <AltitudeMeters>93.8000030517578125</AltitudeMeters>
            <DistanceMeters>NAN</DistanceMeters>
          </Trackpoint>
          <Trackpoint>
            <Time>2022-07-10T15:52:26.000Z</Time>
            <Position>
              <LatitudeDegrees>43.30129542388021945953369140625</LatitudeDegrees>
              <LongitudeDegrees>-2.34467119909822940826416015625</LongitudeDegrees>
            </Position>
            <AltitudeMeters>93.1999969482421875</AltitudeMeters>
            <DistanceMeters>NAN</DistanceMeters>
          </Trackpoint>
          <Trackpoint>
            <Time>2022-07-10T15:52:27.000Z</Time>
            <Position>
              <LatitudeDegrees>43.3012307994067668914794921875</LatitudeDegrees>
              <LongitudeDegrees>-2.34477027319371700286865234375</LongitudeDegrees>
            </Position>
            <AltitudeMeters>92.8000030517578125</AltitudeMeters>
            <DistanceMeters>NAN</DistanceMeters>
          </Trackpoint>
          <Trackpoint>
            <Time>2022-07-10T15:52:28.000Z</Time>
            <Position>
              <LatitudeDegrees>43.3011550270020961761474609375</LatitudeDegrees>
              <LongitudeDegrees>-2.344847805798053741455078125</LongitudeDegrees>
            </Position>
            <AltitudeMeters>92</AltitudeMeters>
            <DistanceMeters>NAN</DistanceMeters>
          </Trackpoint>
          <Trackpoint>
            <Time>2022-07-10T15:52:29.000Z</Time>
            <Position>
              <LatitudeDegrees>43.30106559209525585174560546875</LatitudeDegrees>
              <LongitudeDegrees>-2.3449026234447956085205078125</LongitudeDegrees>
            </Position>
            <AltitudeMeters>91.40000152587890625</AltitudeMeters>
            <DistanceMeters>NAN</DistanceMeters>
          </Trackpoint>
          <Trackpoint>
            <Time>2022-07-10T15:52:30.000Z</Time>
            <Position>
              <LatitudeDegrees>43.3009739778935909271240234375</LatitudeDegrees>
              <LongitudeDegrees>-2.3449267633259296417236328125</LongitudeDegrees>
            </Position>
            <AltitudeMeters>91</AltitudeMeters>
            <DistanceMeters>NAN</DistanceMeters>
          </Trackpoint>
          <Trackpoint>
            <Time>2022-07-10T15:52:31.000Z</Time>
            <Position>
              <LatitudeDegrees>43.300878591835498809814453125</LatitudeDegrees>
              <LongitudeDegrees>-2.34492466785013675689697265625</LongitudeDegrees>
            </Position>
            <AltitudeMeters>90.1999969482421875</AltitudeMeters>
            <DistanceMeters>NAN</DistanceMeters>
          </Trackpoint>
          <Trackpoint>
            <Time>2022-07-10T15:52:33.000Z</Time>
            <Position>
              <LatitudeDegrees>43.3006799407303333282470703125</LatitudeDegrees>
              <LongitudeDegrees>-2.344888038933277130126953125</LongitudeDegrees>
            </Position>
            <AltitudeMeters>89.59999847412109375</AltitudeMeters>
            <DistanceMeters>NAN</DistanceMeters>
          </Trackpoint>
          <Trackpoint>
            <Time>2022-07-10T15:52:35.000Z</Time>
            <Position>
              <LatitudeDegrees>43.30048036761581897735595703125</LatitudeDegrees>
              <LongitudeDegrees>-2.34488644637167453765869140625</LongitudeDegrees>
            </Position>
            <AltitudeMeters>89.1999969482421875</AltitudeMeters>
            <DistanceMeters>NAN</DistanceMeters>
          </Trackpoint>
          <Trackpoint>
            <Time>2022-07-10T15:52:36.000Z</Time>
            <Position>
              <LatitudeDegrees>43.3003815449774265289306640625</LatitudeDegrees>
              <LongitudeDegrees>-2.3449113406240940093994140625</LongitudeDegrees>
            </Position>
            <AltitudeMeters>88.8000030517578125</AltitudeMeters>
            <DistanceMeters>NAN</DistanceMeters>
          </Trackpoint>
          <Trackpoint>
            <Time>2022-07-10T15:52:37.000Z</Time>
            <Position>
              <LatitudeDegrees>43.30028490163385868072509765625</LatitudeDegrees>
              <LongitudeDegrees>-2.344953753054141998291015625</LongitudeDegrees>
            </Position>
            <AltitudeMeters>88.59999847412109375</AltitudeMeters>
            <DistanceMeters>NAN</DistanceMeters>
          </Trackpoint>
          <Trackpoint>
            <Time>2022-07-10T15:52:39.000Z</Time>
            <Position>
              <LatitudeDegrees>43.3001153357326984405517578125</LatitudeDegrees>
              <LongitudeDegrees>-2.34508241526782512664794921875</LongitudeDegrees>
            </Position>
            <AltitudeMeters>87.59999847412109375</AltitudeMeters>
            <DistanceMeters>NAN</DistanceMeters>
          </Trackpoint>
          <Trackpoint>
            <Time>2022-07-10T15:52:41.000Z</Time>
            <Position>
              <LatitudeDegrees>43.299957253038883209228515625</LatitudeDegrees>
              <LongitudeDegrees>-2.34525759704411029815673828125</LongitudeDegrees>
            </Position>
            <AltitudeMeters>86.40000152587890625</AltitudeMeters>
            <DistanceMeters>NAN</DistanceMeters>
          </Trackpoint>
          <Trackpoint>
            <Time>2022-07-10T15:52:42.000Z</Time>
            <Position>
              <LatitudeDegrees>43.29989832825958728790283203125</LatitudeDegrees>
              <LongitudeDegrees>-2.34535801224410533905029296875</LongitudeDegrees>
            </Position>
            <AltitudeMeters>86.1999969482421875</AltitudeMeters>
            <DistanceMeters>NAN</DistanceMeters>
          </Trackpoint>
          <Trackpoint>
            <Time>2022-07-10T15:52:44.000Z</Time>
            <Position>
              <LatitudeDegrees>43.29979288391768932342529296875</LatitudeDegrees>
              <LongitudeDegrees>-2.34554610215127468109130859375</LongitudeDegrees>
            </Position>
            <AltitudeMeters>85.1999969482421875</AltitudeMeters>
            <DistanceMeters>NAN</DistanceMeters>
          </Trackpoint>
          <Trackpoint>
            <Time>2022-07-10T15:52:46.000Z</Time>
            <Position>
              <LatitudeDegrees>43.29970621503889560699462890625</LatitudeDegrees>
              <LongitudeDegrees>-2.3456864990293979644775390625</LongitudeDegrees>
            </Position>
            <AltitudeMeters>83.59999847412109375</AltitudeMeters>
            <DistanceMeters>NAN</DistanceMeters>
          </Trackpoint>
          <Trackpoint>
            <Time>2022-07-10T15:52:47.000Z</Time>
            <Position>
              <LatitudeDegrees>43.29967620782554149627685546875</LatitudeDegrees>
              <LongitudeDegrees>-2.34574324451386928558349609375</LongitudeDegrees>
            </Position>
            <AltitudeMeters>82.59999847412109375</AltitudeMeters>
            <DistanceMeters>NAN</DistanceMeters>
          </Trackpoint>
          <Trackpoint>
            <Time>2022-07-10T15:52:49.000Z</Time>
            <Position>
              <LatitudeDegrees>43.29966883175075054168701171875</LatitudeDegrees>
              <LongitudeDegrees>-2.34575984068214893341064453125</LongitudeDegrees>
            </Position>
            <AltitudeMeters>81.1999969482421875</AltitudeMeters>
            <DistanceMeters>NAN</DistanceMeters>
          </Trackpoint>
          <Trackpoint>
            <Time>2022-07-10T15:52:50.000Z</Time>
            <Position>
              <LatitudeDegrees>43.29967117868363857269287109375</LatitudeDegrees>
              <LongitudeDegrees>-2.34576235525310039520263671875</LongitudeDegrees>
            </Position>
            <AltitudeMeters>80.40000152587890625</AltitudeMeters>
            <DistanceMeters>NAN</DistanceMeters>
          </Trackpoint>
          <Trackpoint>
            <Time>2022-07-10T15:53:58.000Z</Time>
            <Position>
              <LatitudeDegrees>43.29962055198848247528076171875</LatitudeDegrees>
              <LongitudeDegrees>-2.3458004929125308990478515625</LongitudeDegrees>
            </Position>
            <AltitudeMeters>77.1999969482421875</AltitudeMeters>
            <DistanceMeters>NAN</DistanceMeters>
          </Trackpoint>
          <Trackpoint>
            <Time>2022-07-10T15:53:59.000Z</Time>
            <Position>
              <LatitudeDegrees>43.29960579983890056610107421875</LatitudeDegrees>
              <LongitudeDegrees>-2.34582220204174518585205078125</LongitudeDegrees>
            </Position>
            <AltitudeMeters>77.1999969482421875</AltitudeMeters>
            <DistanceMeters>NAN</DistanceMeters>
          </Trackpoint>
          <Trackpoint>
            <Time>2022-07-10T15:54:00.000Z</Time>
            <Position>
              <LatitudeDegrees>43.2995859347283840179443359375</LatitudeDegrees>
              <LongitudeDegrees>-2.34584399498999118804931640625</LongitudeDegrees>
            </Position>
            <AltitudeMeters>77.1999969482421875</AltitudeMeters>
            <DistanceMeters>NAN</DistanceMeters>
          </Trackpoint>
          <Trackpoint>
            <Time>2022-07-10T15:54:03.000Z</Time>
            <Position>
              <LatitudeDegrees>43.2994913868606090545654296875</LatitudeDegrees>
              <LongitudeDegrees>-2.3459245450794696807861328125</LongitudeDegrees>
            </Position>
            <AltitudeMeters>76.1999969482421875</AltitudeMeters>
            <DistanceMeters>NAN</DistanceMeters>
          </Trackpoint>
          <Trackpoint>
            <Time>2022-07-10T15:54:05.000Z</Time>
            <Position>
              <LatitudeDegrees>43.299425505101680755615234375</LatitudeDegrees>
              <LongitudeDegrees>-2.34599168412387371063232421875</LongitudeDegrees>
            </Position>
            <AltitudeMeters>75.59999847412109375</AltitudeMeters>
            <DistanceMeters>NAN</DistanceMeters>
          </Trackpoint>
          <Trackpoint>
            <Time>2022-07-10T15:54:08.000Z</Time>
            <Position>
              <LatitudeDegrees>43.29928846098482608795166015625</LatitudeDegrees>
              <LongitudeDegrees>-2.34617122448980808258056640625</LongitudeDegrees>
            </Position>
            <AltitudeMeters>75.40000152587890625</AltitudeMeters>
            <DistanceMeters>NAN</DistanceMeters>
          </Trackpoint>
          <Trackpoint>
            <Time>2022-07-10T15:54:09.000Z</Time>
            <Position>
              <LatitudeDegrees>43.29926046542823314666748046875</LatitudeDegrees>
              <LongitudeDegrees>-2.34622419811785221099853515625</LongitudeDegrees>
            </Position>
            <AltitudeMeters>75.40000152587890625</AltitudeMeters>
            <DistanceMeters>NAN</DistanceMeters>
          </Trackpoint>
          <Trackpoint>
            <Time>2022-07-10T15:54:11.000Z</Time>
            <Position>
              <LatitudeDegrees>43.2991983555257320404052734375</LatitudeDegrees>
              <LongitudeDegrees>-2.34638026915490627288818359375</LongitudeDegrees>
            </Position>
            <AltitudeMeters>75</AltitudeMeters>
            <DistanceMeters>NAN</DistanceMeters>
          </Trackpoint>
          <Trackpoint>
            <Time>2022-07-10T15:54:14.000Z</Time>
            <Position>
              <LatitudeDegrees>43.299138508737087249755859375</LatitudeDegrees>
              <LongitudeDegrees>-2.34661529771983623504638671875</LongitudeDegrees>
            </Position>
            <AltitudeMeters>73.40000152587890625</AltitudeMeters>
            <DistanceMeters>NAN</DistanceMeters>
          </Trackpoint>
          <Trackpoint>
            <Time>2022-07-10T15:54:16.000Z</Time>
            <Position>
              <LatitudeDegrees>43.2990999519824981689453125</LatitudeDegrees>
              <LongitudeDegrees>-2.34675477258861064910888671875</LongitudeDegrees>
            </Position>
            <AltitudeMeters>72.40000152587890625</AltitudeMeters>
            <DistanceMeters>NAN</DistanceMeters>
          </Trackpoint>
          <Trackpoint>
            <Time>2022-07-10T15:54:18.000Z</Time>
            <Position>
              <LatitudeDegrees>43.29906768165528774261474609375</LatitudeDegrees>
              <LongitudeDegrees>-2.34685552306473255157470703125</LongitudeDegrees>
            </Position>
            <AltitudeMeters>71.59999847412109375</AltitudeMeters>
            <DistanceMeters>NAN</DistanceMeters>
          </Trackpoint>
          <Trackpoint>
            <Time>2022-07-10T15:54:19.000Z</Time>
            <Position>
              <LatitudeDegrees>43.29906147904694080352783203125</LatitudeDegrees>
              <LongitudeDegrees>-2.346878238022327423095703125</LongitudeDegrees>
            </Position>
            <AltitudeMeters>71.1999969482421875</AltitudeMeters>
            <DistanceMeters>NAN</DistanceMeters>
          </Trackpoint>
          <Trackpoint>
            <Time>2022-07-10T15:54:20.000Z</Time>
            <Position>
              <LatitudeDegrees>43.29905997030436992645263671875</LatitudeDegrees>
              <LongitudeDegrees>-2.3468955047428607940673828125</LongitudeDegrees>
            </Position>
            <AltitudeMeters>70.59999847412109375</AltitudeMeters>
            <DistanceMeters>NAN</DistanceMeters>
          </Trackpoint>
          <Trackpoint>
            <Time>2022-07-10T15:54:22.000Z</Time>
            <Position>
              <LatitudeDegrees>43.299062065780162811279296875</LatitudeDegrees>
              <LongitudeDegrees>-2.34690715558826923370361328125</LongitudeDegrees>
            </Position>
            <AltitudeMeters>69.8000030517578125</AltitudeMeters>
            <DistanceMeters>NAN</DistanceMeters>
          </Trackpoint>
          <Trackpoint>
            <Time>2022-07-10T15:54:28.000Z</Time>
            <Position>
              <LatitudeDegrees>43.29903113655745983123779296875</LatitudeDegrees>
              <LongitudeDegrees>-2.34702886082231998443603515625</LongitudeDegrees>
            </Position>
            <AltitudeMeters>69</AltitudeMeters>
            <DistanceMeters>NAN</DistanceMeters>
          </Trackpoint>
          <Trackpoint>
            <Time>2022-07-10T15:54:31.000Z</Time>
            <Position>
              <LatitudeDegrees>43.29898587428033351898193359375</LatitudeDegrees>
              <LongitudeDegrees>-2.347102873027324676513671875</LongitudeDegrees>
            </Position>
            <AltitudeMeters>68.8000030517578125</AltitudeMeters>
            <DistanceMeters>NAN</DistanceMeters>
          </Trackpoint>
          <Trackpoint>
            <Time>2022-07-10T15:54:36.000Z</Time>
            <Position>
              <LatitudeDegrees>43.29890725202858448028564453125</LatitudeDegrees>
              <LongitudeDegrees>-2.347222901880741119384765625</LongitudeDegrees>
            </Position>
            <AltitudeMeters>68.1999969482421875</AltitudeMeters>
            <DistanceMeters>NAN</DistanceMeters>
          </Trackpoint>
          <Trackpoint>
            <Time>2022-07-10T15:54:39.000Z</Time>
            <Position>
              <LatitudeDegrees>43.29886433668434619903564453125</LatitudeDegrees>
              <LongitudeDegrees>-2.34731032513082027435302734375</LongitudeDegrees>
            </Position>
            <AltitudeMeters>67.59999847412109375</AltitudeMeters>
            <DistanceMeters>NAN</DistanceMeters>
          </Trackpoint>
          <Trackpoint>
            <Time>2022-07-10T15:54:42.000Z</Time>
            <Position>
              <LatitudeDegrees>43.29881840385496616363525390625</LatitudeDegrees>
              <LongitudeDegrees>-2.34742582775652408599853515625</LongitudeDegrees>
            </Position>
            <AltitudeMeters>67.1999969482421875</AltitudeMeters>
            <DistanceMeters>NAN</DistanceMeters>
          </Trackpoint>
          <Trackpoint>
            <Time>2022-07-10T15:54:44.000Z</Time>
            <Position>
              <LatitudeDegrees>43.298781774938106536865234375</LatitudeDegrees>
              <LongitudeDegrees>-2.34750109724700450897216796875</LongitudeDegrees>
            </Position>
            <AltitudeMeters>67</AltitudeMeters>
            <DistanceMeters>NAN</DistanceMeters>
          </Trackpoint>
          <Trackpoint>
            <Time>2022-07-10T15:54:46.000Z</Time>
            <Position>
              <LatitudeDegrees>43.29874455928802490234375</LatitudeDegrees>
              <LongitudeDegrees>-2.347587011754512786865234375</LongitudeDegrees>
            </Position>
            <AltitudeMeters>66.59999847412109375</AltitudeMeters>
            <DistanceMeters>NAN</DistanceMeters>
          </Trackpoint>
          <Trackpoint>
            <Time>2022-07-10T15:54:50.000Z</Time>
            <Position>
              <LatitudeDegrees>43.29870189540088176727294921875</LatitudeDegrees>
              <LongitudeDegrees>-2.34778893180191516876220703125</LongitudeDegrees>
            </Position>
            <AltitudeMeters>65.8000030517578125</AltitudeMeters>
            <DistanceMeters>NAN</DistanceMeters>
          </Trackpoint>
          <Trackpoint>
            <Time>2022-07-10T15:54:52.000Z</Time>
            <Position>
              <LatitudeDegrees>43.29867423512041568756103515625</LatitudeDegrees>
              <LongitudeDegrees>-2.3479070328176021575927734375</LongitudeDegrees>
            </Position>
            <AltitudeMeters>65.40000152587890625</AltitudeMeters>
            <DistanceMeters>NAN</DistanceMeters>
          </Trackpoint>
          <Trackpoint>
            <Time>2022-07-10T15:54:55.000Z</Time>
            <Position>
              <LatitudeDegrees>43.29866736195981502532958984375</LatitudeDegrees>
              <LongitudeDegrees>-2.3480978049337863922119140625</LongitudeDegrees>
            </Position>
            <AltitudeMeters>65</AltitudeMeters>
            <DistanceMeters>NAN</DistanceMeters>
          </Trackpoint>
          <Trackpoint>
            <Time>2022-07-10T15:54:58.000Z</Time>
            <Position>
              <LatitudeDegrees>43.2986686192452907562255859375</LatitudeDegrees>
              <LongitudeDegrees>-2.34828916378319263458251953125</LongitudeDegrees>
            </Position>
            <AltitudeMeters>64.1999969482421875</AltitudeMeters>
            <DistanceMeters>NAN</DistanceMeters>
          </Trackpoint>
          <Trackpoint>
            <Time>2022-07-10T15:55:02.000Z</Time>
            <Position>
              <LatitudeDegrees>43.29867104999721050262451171875</LatitudeDegrees>
              <LongitudeDegrees>-2.348531149327754974365234375</LongitudeDegrees>
            </Position>
            <AltitudeMeters>63.59999847412109375</AltitudeMeters>
            <DistanceMeters>NAN</DistanceMeters>
          </Trackpoint>
          <Trackpoint>
            <Time>2022-07-10T15:55:03.000Z</Time>
            <Position>
              <LatitudeDegrees>43.29867172054946422576904296875</LatitudeDegrees>
              <LongitudeDegrees>-2.348590157926082611083984375</LongitudeDegrees>
            </Position>
            <AltitudeMeters>63.40000152587890625</AltitudeMeters>
            <DistanceMeters>NAN</DistanceMeters>
          </Trackpoint>
          <Trackpoint>
            <Time>2022-07-10T15:55:05.000Z</Time>
            <Position>
              <LatitudeDegrees>43.29866484738886356353759765625</LatitudeDegrees>
              <LongitudeDegrees>-2.34871177934110164642333984375</LongitudeDegrees>
            </Position>
            <AltitudeMeters>63</AltitudeMeters>
            <DistanceMeters>NAN</DistanceMeters>
          </Trackpoint>
          <Trackpoint>
            <Time>2022-07-10T15:55:08.000Z</Time>
            <Position>
              <LatitudeDegrees>43.29866300337016582489013671875</LatitudeDegrees>
              <LongitudeDegrees>-2.348906993865966796875</LongitudeDegrees>
            </Position>
            <AltitudeMeters>62.200000762939453125</AltitudeMeters>
            <DistanceMeters>NAN</DistanceMeters>
          </Trackpoint>
          <Trackpoint>
            <Time>2022-07-10T15:55:10.000Z</Time>
            <Position>
              <LatitudeDegrees>43.2986627519130706787109375</LatitudeDegrees>
              <LongitudeDegrees>-2.349036075174808502197265625</LongitudeDegrees>
            </Position>
            <AltitudeMeters>61.799999237060546875</AltitudeMeters>
            <DistanceMeters>NAN</DistanceMeters>
          </Trackpoint>
          <Trackpoint>
            <Time>2022-07-10T15:55:11.000Z</Time>
            <Position>
              <LatitudeDegrees>43.298661746084690093994140625</LatitudeDegrees>
              <LongitudeDegrees>-2.34909952618181705474853515625</LongitudeDegrees>
            </Position>
            <AltitudeMeters>61.799999237060546875</AltitudeMeters>
            <DistanceMeters>NAN</DistanceMeters>
          </Trackpoint>
          <Trackpoint>
            <Time>2022-07-10T15:55:14.000Z</Time>
            <Position>
              <LatitudeDegrees>43.29866719432175159454345703125</LatitudeDegrees>
              <LongitudeDegrees>-2.34924562275409698486328125</LongitudeDegrees>
            </Position>
            <AltitudeMeters>60.799999237060546875</AltitudeMeters>
            <DistanceMeters>NAN</DistanceMeters>
          </Trackpoint>
          <Trackpoint>
            <Time>2022-07-10T15:55:16.000Z</Time>
            <Position>
              <LatitudeDegrees>43.2986629195511341094970703125</LatitudeDegrees>
              <LongitudeDegrees>-2.34933354891836643218994140625</LongitudeDegrees>
            </Position>
            <AltitudeMeters>60.200000762939453125</AltitudeMeters>
            <DistanceMeters>NAN</DistanceMeters>
          </Trackpoint>
          <Trackpoint>
            <Time>2022-07-10T15:55:19.000Z</Time>
            <Position>
              <LatitudeDegrees>43.298660404980182647705078125</LatitudeDegrees>
              <LongitudeDegrees>-2.3494925536215305328369140625</LongitudeDegrees>
            </Position>
            <AltitudeMeters>59.59999847412109375</AltitudeMeters>
            <DistanceMeters>NAN</DistanceMeters>
          </Trackpoint>
          <Trackpoint>
            <Time>2022-07-10T15:55:22.000Z</Time>
            <Position>
              <LatitudeDegrees>43.2986652664840221405029296875</LatitudeDegrees>
              <LongitudeDegrees>-2.34966932795941829681396484375</LongitudeDegrees>
            </Position>
            <AltitudeMeters>59</AltitudeMeters>
            <DistanceMeters>NAN</DistanceMeters>
          </Trackpoint>
          <Trackpoint>
            <Time>2022-07-10T15:55:28.000Z</Time>
            <Position>
              <LatitudeDegrees>43.2986716367304325103759765625</LatitudeDegrees>
              <LongitudeDegrees>-2.35004433430731296539306640625</LongitudeDegrees>
            </Position>
            <AltitudeMeters>58.40000152587890625</AltitudeMeters>
            <DistanceMeters>NAN</DistanceMeters>
          </Trackpoint>
          <Trackpoint>
            <Time>2022-07-10T15:55:29.000Z</Time>
            <Position>
              <LatitudeDegrees>43.2986709661781787872314453125</LatitudeDegrees>
              <LongitudeDegrees>-2.3501072824001312255859375</LongitudeDegrees>
            </Position>
            <AltitudeMeters>58.200000762939453125</AltitudeMeters>
            <DistanceMeters>NAN</DistanceMeters>
          </Trackpoint>
          <Trackpoint>
            <Time>2022-07-10T15:55:30.000Z</Time>
            <Position>
              <LatitudeDegrees>43.2986696250736713409423828125</LatitudeDegrees>
              <LongitudeDegrees>-2.3501662909984588623046875</LongitudeDegrees>
            </Position>
            <AltitudeMeters>58</AltitudeMeters>
            <DistanceMeters>NAN</DistanceMeters>
          </Trackpoint>
          <Trackpoint>
            <Time>2022-07-10T15:55:35.000Z</Time>
            <Position>
              <LatitudeDegrees>43.2986689545214176177978515625</LatitudeDegrees>
              <LongitudeDegrees>-2.35045353882014751434326171875</LongitudeDegrees>
            </Position>
            <AltitudeMeters>57.200000762939453125</AltitudeMeters>
            <DistanceMeters>NAN</DistanceMeters>
          </Trackpoint>
          <Trackpoint>
            <Time>2022-07-10T15:55:37.000Z</Time>
            <Position>
              <LatitudeDegrees>43.29866752959787845611572265625</LatitudeDegrees>
              <LongitudeDegrees>-2.35053819604218006134033203125</LongitudeDegrees>
            </Position>
            <AltitudeMeters>56.799999237060546875</AltitudeMeters>
            <DistanceMeters>NAN</DistanceMeters>
          </Trackpoint>
          <Trackpoint>
            <Time>2022-07-10T15:55:41.000Z</Time>
            <Position>
              <LatitudeDegrees>43.2986702956259250640869140625</LatitudeDegrees>
              <LongitudeDegrees>-2.35065780580043792724609375</LongitudeDegrees>
            </Position>
            <AltitudeMeters>56</AltitudeMeters>
            <DistanceMeters>NAN</DistanceMeters>
          </Trackpoint>
          <Trackpoint>
            <Time>2022-07-10T15:55:42.000Z</Time>
            <Position>
              <LatitudeDegrees>43.2986629195511341094970703125</LatitudeDegrees>
              <LongitudeDegrees>-2.3506864719092845916748046875</LongitudeDegrees>
            </Position>
            <AltitudeMeters>56</AltitudeMeters>
            <DistanceMeters>NAN</DistanceMeters>
          </Trackpoint>
          <Trackpoint>
            <Time>2022-07-10T15:55:44.000Z</Time>
            <Position>
              <LatitudeDegrees>43.2986377738416194915771484375</LatitudeDegrees>
              <LongitudeDegrees>-2.3507417924702167510986328125</LongitudeDegrees>
            </Position>
            <AltitudeMeters>56</AltitudeMeters>
            <DistanceMeters>NAN</DistanceMeters>
          </Trackpoint>
          <Trackpoint>
            <Time>2022-07-10T15:55:47.000Z</Time>
            <Position>
              <LatitudeDegrees>43.29855755902826786041259765625</LatitudeDegrees>
              <LongitudeDegrees>-2.350800298154354095458984375</LongitudeDegrees>
            </Position>
            <AltitudeMeters>55.59999847412109375</AltitudeMeters>
            <DistanceMeters>NAN</DistanceMeters>
          </Trackpoint>
          <Trackpoint>
            <Time>2022-07-10T15:55:51.000Z</Time>
            <Position>
              <LatitudeDegrees>43.2985026575624942779541015625</LatitudeDegrees>
              <LongitudeDegrees>-2.3508681915700435638427734375</LongitudeDegrees>
            </Position>
            <AltitudeMeters>55.40000152587890625</AltitudeMeters>
            <DistanceMeters>NAN</DistanceMeters>
          </Trackpoint>
          <Trackpoint>
            <Time>2022-07-10T15:55:52.000Z</Time>
            <Position>
              <LatitudeDegrees>43.29850022681057453155517578125</LatitudeDegrees>
              <LongitudeDegrees>-2.3508655093610286712646484375</LongitudeDegrees>
            </Position>
            <AltitudeMeters>55.200000762939453125</AltitudeMeters>
            <DistanceMeters>NAN</DistanceMeters>
          </Trackpoint>
          <Trackpoint>
            <Time>2022-07-10T15:55:53.000Z</Time>
            <Position>
              <LatitudeDegrees>43.298498131334781646728515625</LatitudeDegrees>
              <LongitudeDegrees>-2.35086341388523578643798828125</LongitudeDegrees>
            </Position>
            <AltitudeMeters>55</AltitudeMeters>
            <DistanceMeters>NAN</DistanceMeters>
          </Trackpoint>
          <Trackpoint>
            <Time>2022-07-10T15:55:55.000Z</Time>
            <Position>
              <LatitudeDegrees>43.298498131334781646728515625</LatitudeDegrees>
              <LongitudeDegrees>-2.35086341388523578643798828125</LongitudeDegrees>
            </Position>
            <AltitudeMeters>54.799999237060546875</AltitudeMeters>
            <DistanceMeters>NAN</DistanceMeters>
          </Trackpoint>
          <Trackpoint>
            <Time>2022-07-10T15:56:01.000Z</Time>
            <Position>
              <LatitudeDegrees>43.2984889112412929534912109375</LatitudeDegrees>
              <LongitudeDegrees>-2.3508557863533496856689453125</LongitudeDegrees>
            </Position>
            <AltitudeMeters>54.59999847412109375</AltitudeMeters>
            <DistanceMeters>NAN</DistanceMeters>
          </Trackpoint>
          <Trackpoint>
            <Time>2022-07-10T15:56:06.000Z</Time>
            <Position>
              <LatitudeDegrees>43.29845831729471683502197265625</LatitudeDegrees>
              <LongitudeDegrees>-2.35086861066520214080810546875</LongitudeDegrees>
            </Position>
            <AltitudeMeters>54.59999847412109375</AltitudeMeters>
            <DistanceMeters>NAN</DistanceMeters>
          </Trackpoint>
          <Trackpoint>
            <Time>2022-07-10T15:56:07.000Z</Time>
            <Position>
              <LatitudeDegrees>43.2984533719718456268310546875</LatitudeDegrees>
              <LongitudeDegrees>-2.350871376693248748779296875</LongitudeDegrees>
            </Position>
            <AltitudeMeters>54.59999847412109375</AltitudeMeters>
            <DistanceMeters>NAN</DistanceMeters>
          </Trackpoint>
          <Trackpoint>
            <Time>2022-07-10T15:56:09.000Z</Time>
            <Position>
              <LatitudeDegrees>43.2984533719718456268310546875</LatitudeDegrees>
              <LongitudeDegrees>-2.350871376693248748779296875</LongitudeDegrees>
            </Position>
            <AltitudeMeters>54.59999847412109375</AltitudeMeters>
            <DistanceMeters>NAN</DistanceMeters>
          </Trackpoint>
          <Trackpoint>
            <Time>2022-07-10T15:57:33.000Z</Time>
            <Position>
              <LatitudeDegrees>43.29841934144496917724609375</LatitudeDegrees>
              <LongitudeDegrees>-2.35083424486219882965087890625</LongitudeDegrees>
            </Position>
            <AltitudeMeters>53.799999237060546875</AltitudeMeters>
            <DistanceMeters>NAN</DistanceMeters>
          </Trackpoint>
          <Trackpoint>
            <Time>2022-07-10T15:57:34.000Z</Time>
            <Position>
              <LatitudeDegrees>43.298398889601230621337890625</LatitudeDegrees>
              <LongitudeDegrees>-2.35083214938640594482421875</LongitudeDegrees>
            </Position>
            <AltitudeMeters>53.799999237060546875</AltitudeMeters>
            <DistanceMeters>NAN</DistanceMeters>
          </Trackpoint>
          <Trackpoint>
            <Time>2022-07-10T15:57:39.000Z</Time>
            <Position>
              <LatitudeDegrees>43.29825513996183872222900390625</LatitudeDegrees>
              <LongitudeDegrees>-2.3507831990718841552734375</LongitudeDegrees>
            </Position>
            <AltitudeMeters>53.59999847412109375</AltitudeMeters>
            <DistanceMeters>NAN</DistanceMeters>
          </Trackpoint>
          <Trackpoint>
            <Time>2022-07-10T15:57:44.000Z</Time>
            <Position>
              <LatitudeDegrees>43.29809085465967655181884765625</LatitudeDegrees>
              <LongitudeDegrees>-2.35060960985720157623291015625</LongitudeDegrees>
            </Position>
            <AltitudeMeters>53.200000762939453125</AltitudeMeters>
            <DistanceMeters>NAN</DistanceMeters>
          </Trackpoint>
          <Trackpoint>
            <Time>2022-07-10T15:57:49.000Z</Time>
            <Position>
              <LatitudeDegrees>43.2979015074670314788818359375</LatitudeDegrees>
              <LongitudeDegrees>-2.350395284593105316162109375</LongitudeDegrees>
            </Position>
            <AltitudeMeters>52.799999237060546875</AltitudeMeters>
            <DistanceMeters>NAN</DistanceMeters>
          </Trackpoint>
          <Trackpoint>
            <Time>2022-07-10T15:57:50.000Z</Time>
            <Position>
              <LatitudeDegrees>43.2978686504065990447998046875</LatitudeDegrees>
              <LongitudeDegrees>-2.3503701388835906982421875</LongitudeDegrees>
            </Position>
            <AltitudeMeters>52.59999847412109375</AltitudeMeters>
            <DistanceMeters>NAN</DistanceMeters>
          </Trackpoint>
          <Trackpoint>
            <Time>2022-07-10T15:57:51.000Z</Time>
            <Position>
              <LatitudeDegrees>43.29783805646002292633056640625</LatitudeDegrees>
              <LongitudeDegrees>-2.3503567278385162353515625</LongitudeDegrees>
            </Position>
            <AltitudeMeters>52.59999847412109375</AltitudeMeters>
            <DistanceMeters>NAN</DistanceMeters>
          </Trackpoint>
          <Trackpoint>
            <Time>2022-07-10T15:57:53.000Z</Time>
            <Position>
              <LatitudeDegrees>43.29778910614550113677978515625</LatitudeDegrees>
              <LongitudeDegrees>-2.35035002231597900390625</LongitudeDegrees>
            </Position>
            <AltitudeMeters>52.200000762939453125</AltitudeMeters>
            <DistanceMeters>NAN</DistanceMeters>
          </Trackpoint>
          <Trackpoint>
            <Time>2022-07-10T15:57:55.000Z</Time>
            <Position>
              <LatitudeDegrees>43.29774744808673858642578125</LatitudeDegrees>
              <LongitudeDegrees>-2.35037692822515964508056640625</LongitudeDegrees>
            </Position>
            <AltitudeMeters>51.59999847412109375</AltitudeMeters>
            <DistanceMeters>NAN</DistanceMeters>
          </Trackpoint>
          <Trackpoint>
            <Time>2022-07-10T15:58:00.000Z</Time>
            <Position>
              <LatitudeDegrees>43.29770863987505435943603515625</LatitudeDegrees>
              <LongitudeDegrees>-2.3505453206598758697509765625</LongitudeDegrees>
            </Position>
            <AltitudeMeters>50.799999237060546875</AltitudeMeters>
            <DistanceMeters>NAN</DistanceMeters>
          </Trackpoint>
          <Trackpoint>
            <Time>2022-07-10T15:58:06.000Z</Time>
            <Position>
              <LatitudeDegrees>43.29765549860894680023193359375</LatitudeDegrees>
              <LongitudeDegrees>-2.35080742277204990386962890625</LongitudeDegrees>
            </Position>
            <AltitudeMeters>50.59999847412109375</AltitudeMeters>
            <DistanceMeters>NAN</DistanceMeters>
          </Trackpoint>
          <Trackpoint>
            <Time>2022-07-10T15:58:07.000Z</Time>
            <Position>
              <LatitudeDegrees>43.2976477034389972686767578125</LatitudeDegrees>
              <LongitudeDegrees>-2.35085385851562023162841796875</LongitudeDegrees>
            </Position>
            <AltitudeMeters>50.40000152587890625</AltitudeMeters>
            <DistanceMeters>NAN</DistanceMeters>
          </Trackpoint>
          <Trackpoint>
            <Time>2022-07-10T15:58:11.000Z</Time>
            <Position>
              <LatitudeDegrees>43.29761375673115253448486328125</LatitudeDegrees>
              <LongitudeDegrees>-2.35099534504115581512451171875</LongitudeDegrees>
            </Position>
            <AltitudeMeters>49.40000152587890625</AltitudeMeters>
            <DistanceMeters>NAN</DistanceMeters>
          </Trackpoint>
          <Trackpoint>
            <Time>2022-07-10T15:58:13.000Z</Time>
            <Position>
              <LatitudeDegrees>43.29759984277188777923583984375</LatitudeDegrees>
              <LongitudeDegrees>-2.35105653293430805206298828125</LongitudeDegrees>
            </Position>
            <AltitudeMeters>49</AltitudeMeters>
            <DistanceMeters>NAN</DistanceMeters>
          </Trackpoint>
          <Trackpoint>
            <Time>2022-07-10T15:58:20.000Z</Time>
            <Position>
              <LatitudeDegrees>43.29757167957723140716552734375</LatitudeDegrees>
              <LongitudeDegrees>-2.351202629506587982177734375</LongitudeDegrees>
            </Position>
            <AltitudeMeters>48.799999237060546875</AltitudeMeters>
            <DistanceMeters>NAN</DistanceMeters>
          </Trackpoint>
          <Trackpoint>
            <Time>2022-07-10T15:58:21.000Z</Time>
            <Position>
              <LatitudeDegrees>43.29756799153983592987060546875</LatitudeDegrees>
              <LongitudeDegrees>-2.35120765864849090576171875</LongitudeDegrees>
            </Position>
            <AltitudeMeters>48.799999237060546875</AltitudeMeters>
            <DistanceMeters>NAN</DistanceMeters>
          </Trackpoint>
          <Trackpoint>
            <Time>2022-07-10T15:58:23.000Z</Time>
            <Position>
              <LatitudeDegrees>43.29756799153983592987060546875</LatitudeDegrees>
              <LongitudeDegrees>-2.35120765864849090576171875</LongitudeDegrees>
            </Position>
            <AltitudeMeters>48.799999237060546875</AltitudeMeters>
            <DistanceMeters>NAN</DistanceMeters>
          </Trackpoint>
          <Trackpoint>
            <Time>2022-07-10T15:59:56.000Z</Time>
            <Position>
              <LatitudeDegrees>43.297555334866046905517578125</LatitudeDegrees>
              <LongitudeDegrees>-2.35128871165215969085693359375</LongitudeDegrees>
            </Position>
            <AltitudeMeters>48.799999237060546875</AltitudeMeters>
            <DistanceMeters>NAN</DistanceMeters>
          </Trackpoint>
          <Trackpoint>
            <Time>2022-07-10T15:59:58.000Z</Time>
            <Position>
              <LatitudeDegrees>43.2975461147725582122802734375</LatitudeDegrees>
              <LongitudeDegrees>-2.351341433823108673095703125</LongitudeDegrees>
            </Position>
            <AltitudeMeters>49.200000762939453125</AltitudeMeters>
            <DistanceMeters>NAN</DistanceMeters>
          </Trackpoint>
          <Trackpoint>
            <Time>2022-07-10T16:00:01.000Z</Time>
            <Position>
              <LatitudeDegrees>43.2975415885448455810546875</LatitudeDegrees>
              <LongitudeDegrees>-2.3514053039252758026123046875</LongitudeDegrees>
            </Position>
            <AltitudeMeters>49.200000762939453125</AltitudeMeters>
            <DistanceMeters>NAN</DistanceMeters>
          </Trackpoint>
          <Trackpoint>
            <Time>2022-07-10T16:00:04.000Z</Time>
            <Position>
              <LatitudeDegrees>43.297542594373226165771484375</LatitudeDegrees>
              <LongitudeDegrees>-2.35141293145716190338134765625</LongitudeDegrees>
            </Position>
            <AltitudeMeters>49.200000762939453125</AltitudeMeters>
            <DistanceMeters>NAN</DistanceMeters>
          </Trackpoint>
          <Trackpoint>
            <Time>2022-07-10T16:00:05.000Z</Time>
            <Position>
              <LatitudeDegrees>43.297542594373226165771484375</LatitudeDegrees>
              <LongitudeDegrees>-2.35141293145716190338134765625</LongitudeDegrees>
            </Position>
            <AltitudeMeters>49.200000762939453125</AltitudeMeters>
            <DistanceMeters>NAN</DistanceMeters>
          </Trackpoint>
          <Trackpoint>
            <Time>2022-07-10T16:02:04.000Z</Time>
            <Position>
              <LatitudeDegrees>43.297539241611957550048828125</LatitudeDegrees>
              <LongitudeDegrees>-2.3515283502638339996337890625</LongitudeDegrees>
            </Position>
            <AltitudeMeters>47.40000152587890625</AltitudeMeters>
            <DistanceMeters>NAN</DistanceMeters>
          </Trackpoint>
          <Trackpoint>
            <Time>2022-07-10T16:02:05.000Z</Time>
            <Position>
              <LatitudeDegrees>43.29753831960260868072509765625</LatitudeDegrees>
              <LongitudeDegrees>-2.35156045295298099517822265625</LongitudeDegrees>
            </Position>
            <AltitudeMeters>47.40000152587890625</AltitudeMeters>
            <DistanceMeters>NAN</DistanceMeters>
          </Trackpoint>
          <Trackpoint>
            <Time>2022-07-10T16:02:06.000Z</Time>
            <Position>
              <LatitudeDegrees>43.297534547746181488037109375</LatitudeDegrees>
              <LongitudeDegrees>-2.35160035081207752227783203125</LongitudeDegrees>
            </Position>
            <AltitudeMeters>47.40000152587890625</AltitudeMeters>
            <DistanceMeters>NAN</DistanceMeters>
          </Trackpoint>
          <Trackpoint>
            <Time>2022-07-10T16:02:09.000Z</Time>
            <Position>
              <LatitudeDegrees>43.297524154186248779296875</LatitudeDegrees>
              <LongitudeDegrees>-2.35169389285147190093994140625</LongitudeDegrees>
            </Position>
            <AltitudeMeters>47.200000762939453125</AltitudeMeters>
            <DistanceMeters>NAN</DistanceMeters>
          </Trackpoint>
          <Trackpoint>
            <Time>2022-07-10T16:02:12.000Z</Time>
            <Position>
              <LatitudeDegrees>43.2975281774997711181640625</LatitudeDegrees>
              <LongitudeDegrees>-2.35177134163677692413330078125</LongitudeDegrees>
            </Position>
            <AltitudeMeters>47.200000762939453125</AltitudeMeters>
            <DistanceMeters>NAN</DistanceMeters>
          </Trackpoint>
          <Trackpoint>
            <Time>2022-07-10T16:02:14.000Z</Time>
            <Position>
              <LatitudeDegrees>43.29752893187105655670166015625</LatitudeDegrees>
              <LongitudeDegrees>-2.35177754424512386322021484375</LongitudeDegrees>
            </Position>
            <AltitudeMeters>47.40000152587890625</AltitudeMeters>
            <DistanceMeters>NAN</DistanceMeters>
          </Trackpoint>
          <Trackpoint>
            <Time>2022-07-10T16:03:08.000Z</Time>
            <Position>
              <LatitudeDegrees>43.29748014919459819793701171875</LatitudeDegrees>
              <LongitudeDegrees>-2.35179665498435497283935546875</LongitudeDegrees>
            </Position>
            <AltitudeMeters>46.59999847412109375</AltitudeMeters>
            <DistanceMeters>NAN</DistanceMeters>
          </Trackpoint>
          <Trackpoint>
            <Time>2022-07-10T16:03:12.000Z</Time>
            <Position>
              <LatitudeDegrees>43.297418542206287384033203125</LatitudeDegrees>
              <LongitudeDegrees>-2.3518049530684947967529296875</LongitudeDegrees>
            </Position>
            <AltitudeMeters>46.799999237060546875</AltitudeMeters>
            <DistanceMeters>NAN</DistanceMeters>
          </Trackpoint>
          <Trackpoint>
            <Time>2022-07-10T16:03:14.000Z</Time>
            <Position>
              <LatitudeDegrees>43.29737738706171512603759765625</LatitudeDegrees>
              <LongitudeDegrees>-2.351826913654804229736328125</LongitudeDegrees>
            </Position>
            <AltitudeMeters>46.59999847412109375</AltitudeMeters>
            <DistanceMeters>NAN</DistanceMeters>
          </Trackpoint>
          <Trackpoint>
            <Time>2022-07-10T16:03:16.000Z</Time>
            <Position>
              <LatitudeDegrees>43.2973382435739040374755859375</LatitudeDegrees>
              <LongitudeDegrees>-2.351840995252132415771484375</LongitudeDegrees>
            </Position>
            <AltitudeMeters>46.59999847412109375</AltitudeMeters>
            <DistanceMeters>NAN</DistanceMeters>
          </Trackpoint>
          <Trackpoint>
            <Time>2022-07-10T16:03:18.000Z</Time>
            <Position>
              <LatitudeDegrees>43.29730479978024959564208984375</LatitudeDegrees>
              <LongitudeDegrees>-2.35181744210422039031982421875</LongitudeDegrees>
            </Position>
            <AltitudeMeters>46.40000152587890625</AltitudeMeters>
            <DistanceMeters>NAN</DistanceMeters>
          </Trackpoint>
          <Trackpoint>
            <Time>2022-07-10T16:03:23.000Z</Time>
            <Position>
              <LatitudeDegrees>43.29720161855220794677734375</LatitudeDegrees>
              <LongitudeDegrees>-2.351692803204059600830078125</LongitudeDegrees>
            </Position>
            <AltitudeMeters>46</AltitudeMeters>
            <DistanceMeters>NAN</DistanceMeters>
          </Trackpoint>
          <Trackpoint>
            <Time>2022-07-10T16:03:24.000Z</Time>
            <Position>
              <LatitudeDegrees>43.297166414558887481689453125</LatitudeDegrees>
              <LongitudeDegrees>-2.35167897306382656097412109375</LongitudeDegrees>
            </Position>
            <AltitudeMeters>46</AltitudeMeters>
            <DistanceMeters>NAN</DistanceMeters>
          </Trackpoint>
          <Trackpoint>
            <Time>2022-07-10T16:03:26.000Z</Time>
            <Position>
              <LatitudeDegrees>43.297112770378589630126953125</LatitudeDegrees>
              <LongitudeDegrees>-2.35170344822108745574951171875</LongitudeDegrees>
            </Position>
            <AltitudeMeters>46</AltitudeMeters>
            <DistanceMeters>NAN</DistanceMeters>
          </Trackpoint>
          <Trackpoint>
            <Time>2022-07-10T16:03:31.000Z</Time>
            <Position>
              <LatitudeDegrees>43.29704378731548786163330078125</LatitudeDegrees>
              <LongitudeDegrees>-2.35181660391390323638916015625</LongitudeDegrees>
            </Position>
            <AltitudeMeters>46.200000762939453125</AltitudeMeters>
            <DistanceMeters>NAN</DistanceMeters>
          </Trackpoint>
          <Trackpoint>
            <Time>2022-07-10T16:03:37.000Z</Time>
            <Position>
              <LatitudeDegrees>43.296971954405307769775390625</LatitudeDegrees>
              <LongitudeDegrees>-2.3520305939018726348876953125</LongitudeDegrees>
            </Position>
            <AltitudeMeters>46.200000762939453125</AltitudeMeters>
            <DistanceMeters>NAN</DistanceMeters>
          </Trackpoint>
          <Trackpoint>
            <Time>2022-07-10T16:03:39.000Z</Time>
            <Position>
              <LatitudeDegrees>43.2969446294009685516357421875</LatitudeDegrees>
              <LongitudeDegrees>-2.352113239467144012451171875</LongitudeDegrees>
            </Position>
            <AltitudeMeters>46.200000762939453125</AltitudeMeters>
            <DistanceMeters>NAN</DistanceMeters>
          </Trackpoint>
          <Trackpoint>
            <Time>2022-07-10T16:03:41.000Z</Time>
            <Position>
              <LatitudeDegrees>43.2969204895198345184326171875</LatitudeDegrees>
              <LongitudeDegrees>-2.35219077207148075103759765625</LongitudeDegrees>
            </Position>
            <AltitudeMeters>46.200000762939453125</AltitudeMeters>
            <DistanceMeters>NAN</DistanceMeters>
          </Trackpoint>
          <Trackpoint>
            <Time>2022-07-10T16:03:46.000Z</Time>
            <Position>
              <LatitudeDegrees>43.296855948865413665771484375</LatitudeDegrees>
              <LongitudeDegrees>-2.3523574881255626678466796875</LongitudeDegrees>
            </Position>
            <AltitudeMeters>46.200000762939453125</AltitudeMeters>
            <DistanceMeters>NAN</DistanceMeters>
          </Trackpoint>
          <Trackpoint>
            <Time>2022-07-10T16:03:53.000Z</Time>
            <Position>
              <LatitudeDegrees>43.29677690751850605010986328125</LatitudeDegrees>
              <LongitudeDegrees>-2.3526015691459178924560546875</LongitudeDegrees>
            </Position>
            <AltitudeMeters>46</AltitudeMeters>
            <DistanceMeters>NAN</DistanceMeters>
          </Trackpoint>
          <Trackpoint>
            <Time>2022-07-10T16:03:58.000Z</Time>
            <Position>
              <LatitudeDegrees>43.296678923070430755615234375</LatitudeDegrees>
              <LongitudeDegrees>-2.35283064655959606170654296875</LongitudeDegrees>
            </Position>
            <AltitudeMeters>45.799999237060546875</AltitudeMeters>
            <DistanceMeters>NAN</DistanceMeters>
          </Trackpoint>
          <Trackpoint>
            <Time>2022-07-10T16:04:04.000Z</Time>
            <Position>
              <LatitudeDegrees>43.29659879207611083984375</LatitudeDegrees>
              <LongitudeDegrees>-2.353155612945556640625</LongitudeDegrees>
            </Position>
            <AltitudeMeters>45.59999847412109375</AltitudeMeters>
            <DistanceMeters>NAN</DistanceMeters>
          </Trackpoint>
          <Trackpoint>
            <Time>2022-07-10T16:04:11.000Z</Time>
            <Position>
              <LatitudeDegrees>43.29650935716927051544189453125</LatitudeDegrees>
              <LongitudeDegrees>-2.3534667491912841796875</LongitudeDegrees>
            </Position>
            <AltitudeMeters>46</AltitudeMeters>
            <DistanceMeters>NAN</DistanceMeters>
          </Trackpoint>
          <Trackpoint>
            <Time>2022-07-10T16:04:16.000Z</Time>
            <Position>
              <LatitudeDegrees>43.29642377793788909912109375</LatitudeDegrees>
              <LongitudeDegrees>-2.353701107203960418701171875</LongitudeDegrees>
            </Position>
            <AltitudeMeters>45.799999237060546875</AltitudeMeters>
            <DistanceMeters>NAN</DistanceMeters>
          </Trackpoint>
          <Trackpoint>
            <Time>2022-07-10T16:04:19.000Z</Time>
            <Position>
              <LatitudeDegrees>43.29637357033789157867431640625</LatitudeDegrees>
              <LongitudeDegrees>-2.353835217654705047607421875</LongitudeDegrees>
            </Position>
            <AltitudeMeters>46</AltitudeMeters>
            <DistanceMeters>NAN</DistanceMeters>
          </Trackpoint>
          <Trackpoint>
            <Time>2022-07-10T16:04:24.000Z</Time>
            <Position>
              <LatitudeDegrees>43.29622663557529449462890625</LatitudeDegrees>
              <LongitudeDegrees>-2.3539979942142963409423828125</LongitudeDegrees>
            </Position>
            <AltitudeMeters>46</AltitudeMeters>
            <DistanceMeters>NAN</DistanceMeters>
          </Trackpoint>
          <Trackpoint>
            <Time>2022-07-10T16:04:30.000Z</Time>
            <Position>
              <LatitudeDegrees>43.2960851490497589111328125</LatitudeDegrees>
              <LongitudeDegrees>-2.35416219569742679595947265625</LongitudeDegrees>
            </Position>
            <AltitudeMeters>45.799999237060546875</AltitudeMeters>
            <DistanceMeters>NAN</DistanceMeters>
          </Trackpoint>
          <Trackpoint>
            <Time>2022-07-10T16:04:35.000Z</Time>
            <Position>
              <LatitudeDegrees>43.29598657786846160888671875</LatitudeDegrees>
              <LongitudeDegrees>-2.35428457148373126983642578125</LongitudeDegrees>
            </Position>
            <AltitudeMeters>46</AltitudeMeters>
            <DistanceMeters>NAN</DistanceMeters>
          </Trackpoint>
          <Trackpoint>
            <Time>2022-07-10T16:04:41.000Z</Time>
            <Position>
              <LatitudeDegrees>43.29583561979234218597412109375</LatitudeDegrees>
              <LongitudeDegrees>-2.354461848735809326171875</LongitudeDegrees>
            </Position>
            <AltitudeMeters>46</AltitudeMeters>
            <DistanceMeters>NAN</DistanceMeters>
          </Trackpoint>
          <Trackpoint>
            <Time>2022-07-10T16:04:49.000Z</Time>
            <Position>
              <LatitudeDegrees>43.29558298923075199127197265625</LatitudeDegrees>
              <LongitudeDegrees>-2.35475161112844944000244140625</LongitudeDegrees>
            </Position>
            <AltitudeMeters>46</AltitudeMeters>
            <DistanceMeters>NAN</DistanceMeters>
          </Trackpoint>
          <Trackpoint>
            <Time>2022-07-10T16:04:56.000Z</Time>
            <Position>
              <LatitudeDegrees>43.295382075011730194091796875</LatitudeDegrees>
              <LongitudeDegrees>-2.35493551008403301239013671875</LongitudeDegrees>
            </Position>
            <AltitudeMeters>45.799999237060546875</AltitudeMeters>
            <DistanceMeters>NAN</DistanceMeters>
          </Trackpoint>
          <Trackpoint>
            <Time>2022-07-10T16:05:04.000Z</Time>
            <Position>
              <LatitudeDegrees>43.295148722827434539794921875</LatitudeDegrees>
              <LongitudeDegrees>-2.35506660304963588714599609375</LongitudeDegrees>
            </Position>
            <AltitudeMeters>45.799999237060546875</AltitudeMeters>
            <DistanceMeters>NAN</DistanceMeters>
          </Trackpoint>
          <Trackpoint>
            <Time>2022-07-10T16:05:09.000Z</Time>
            <Position>
              <LatitudeDegrees>43.29504755325615406036376953125</LatitudeDegrees>
              <LongitudeDegrees>-2.35508881509304046630859375</LongitudeDegrees>
            </Position>
            <AltitudeMeters>45.799999237060546875</AltitudeMeters>
            <DistanceMeters>NAN</DistanceMeters>
          </Trackpoint>
          <Trackpoint>
            <Time>2022-07-10T16:05:14.000Z</Time>
            <Position>
              <LatitudeDegrees>43.2949175499379634857177734375</LatitudeDegrees>
              <LongitudeDegrees>-2.35508303157985210418701171875</LongitudeDegrees>
            </Position>
            <AltitudeMeters>46.200000762939453125</AltitudeMeters>
            <DistanceMeters>NAN</DistanceMeters>
          </Trackpoint>
          <Trackpoint>
            <Time>2022-07-10T16:05:18.000Z</Time>
            <Position>
              <LatitudeDegrees>43.29479173757135868072509765625</LatitudeDegrees>
              <LongitudeDegrees>-2.3550561256706714630126953125</LongitudeDegrees>
            </Position>
            <AltitudeMeters>46.200000762939453125</AltitudeMeters>
            <DistanceMeters>NAN</DistanceMeters>
          </Trackpoint>
          <Trackpoint>
            <Time>2022-07-10T16:05:19.000Z</Time>
            <Position>
              <LatitudeDegrees>43.2947670109570026397705078125</LatitudeDegrees>
              <LongitudeDegrees>-2.35504698939621448516845703125</LongitudeDegrees>
            </Position>
            <AltitudeMeters>46.200000762939453125</AltitudeMeters>
            <DistanceMeters>NAN</DistanceMeters>
          </Trackpoint>
          <Trackpoint>
            <Time>2022-07-10T16:05:20.000Z</Time>
            <Position>
              <LatitudeDegrees>43.29474597238004207611083984375</LatitudeDegrees>
              <LongitudeDegrees>-2.355034835636615753173828125</LongitudeDegrees>
            </Position>
            <AltitudeMeters>46.200000762939453125</AltitudeMeters>
            <DistanceMeters>NAN</DistanceMeters>
          </Trackpoint>
          <Trackpoint>
            <Time>2022-07-10T16:05:22.000Z</Time>
            <Position>
              <LatitudeDegrees>43.2946996204555034637451171875</LatitudeDegrees>
              <LongitudeDegrees>-2.354991920292377471923828125</LongitudeDegrees>
            </Position>
            <AltitudeMeters>46.200000762939453125</AltitudeMeters>
            <DistanceMeters>NAN</DistanceMeters>
          </Trackpoint>
          <Trackpoint>
            <Time>2022-07-10T16:05:23.000Z</Time>
            <Position>
              <LatitudeDegrees>43.294694088399410247802734375</LatitudeDegrees>
              <LongitudeDegrees>-2.35499150119721889495849609375</LongitudeDegrees>
            </Position>
            <AltitudeMeters>46</AltitudeMeters>
            <DistanceMeters>NAN</DistanceMeters>
          </Trackpoint>
          <Trackpoint>
            <Time>2022-07-10T16:05:25.000Z</Time>
            <Position>
              <LatitudeDegrees>43.29467975534498691558837890625</LatitudeDegrees>
              <LongitudeDegrees>-2.35499653033912181854248046875</LongitudeDegrees>
            </Position>
            <AltitudeMeters>46</AltitudeMeters>
            <DistanceMeters>NAN</DistanceMeters>
          </Trackpoint>
          <Trackpoint>
            <Time>2022-07-10T16:05:27.000Z</Time>
            <Position>
              <LatitudeDegrees>43.294624350965023040771484375</LatitudeDegrees>
              <LongitudeDegrees>-2.35497406683862209320068359375</LongitudeDegrees>
            </Position>
            <AltitudeMeters>46.200000762939453125</AltitudeMeters>
            <DistanceMeters>NAN</DistanceMeters>
          </Trackpoint>
          <Trackpoint>
            <Time>2022-07-10T16:05:32.000Z</Time>
            <Position>
              <LatitudeDegrees>43.2945588044822216033935546875</LatitudeDegrees>
              <LongitudeDegrees>-2.35493986867368221282958984375</LongitudeDegrees>
            </Position>
            <AltitudeMeters>46.200000762939453125</AltitudeMeters>
            <DistanceMeters>NAN</DistanceMeters>
          </Trackpoint>
          <Trackpoint>
            <Time>2022-07-10T16:05:33.000Z</Time>
            <Position>
              <LatitudeDegrees>43.2944511808454990386962890625</LatitudeDegrees>
              <LongitudeDegrees>-2.35507716424763202667236328125</LongitudeDegrees>
            </Position>
            <AltitudeMeters>46.40000152587890625</AltitudeMeters>
            <DistanceMeters>NAN</DistanceMeters>
          </Trackpoint>
          <Trackpoint>
            <Time>2022-07-10T16:05:38.000Z</Time>
            <Position>
              <LatitudeDegrees>43.294292427599430084228515625</LatitudeDegrees>
              <LongitudeDegrees>-2.35522753559052944183349609375</LongitudeDegrees>
            </Position>
            <AltitudeMeters>46.200000762939453125</AltitudeMeters>
            <DistanceMeters>NAN</DistanceMeters>
          </Trackpoint>
          <Trackpoint>
            <Time>2022-07-10T16:05:41.000Z</Time>
            <Position>
              <LatitudeDegrees>43.2942708022892475128173828125</LatitudeDegrees>
              <LongitudeDegrees>-2.3552599735558032989501953125</LongitudeDegrees>
            </Position>
            <AltitudeMeters>46.200000762939453125</AltitudeMeters>
            <DistanceMeters>NAN</DistanceMeters>
          </Trackpoint>
          <Trackpoint>
            <Time>2022-07-10T16:05:42.000Z</Time>
            <Position>
              <LatitudeDegrees>43.29426988027989864349365234375</LatitudeDegrees>
              <LongitudeDegrees>-2.3552629910409450531005859375</LongitudeDegrees>
            </Position>
            <AltitudeMeters>46.200000762939453125</AltitudeMeters>
            <DistanceMeters>NAN</DistanceMeters>
          </Trackpoint>
          <Trackpoint>
            <Time>2022-07-10T16:05:44.000Z</Time>
            <Position>
              <LatitudeDegrees>43.29427356831729412078857421875</LatitudeDegrees>
              <LongitudeDegrees>-2.35526793636381626129150390625</LongitudeDegrees>
            </Position>
            <AltitudeMeters>46.40000152587890625</AltitudeMeters>
            <DistanceMeters>NAN</DistanceMeters>
          </Trackpoint>
          <Trackpoint>
            <Time>2022-07-10T16:05:57.000Z</Time>
            <Position>
              <LatitudeDegrees>43.2943073473870754241943359375</LatitudeDegrees>
              <LongitudeDegrees>-2.35538796521723270416259765625</LongitudeDegrees>
            </Position>
            <AltitudeMeters>46.40000152587890625</AltitudeMeters>
            <DistanceMeters>NAN</DistanceMeters>
          </Trackpoint>
          <Trackpoint>
            <Time>2022-07-10T16:05:59.000Z</Time>
            <Position>
              <LatitudeDegrees>43.29430793412029743194580078125</LatitudeDegrees>
              <LongitudeDegrees>-2.355424426496028900146484375</LongitudeDegrees>
            </Position>
            <AltitudeMeters>46.40000152587890625</AltitudeMeters>
            <DistanceMeters>NAN</DistanceMeters>
          </Trackpoint>
          <Trackpoint>
            <Time>2022-07-10T16:06:05.000Z</Time>
            <Position>
              <LatitudeDegrees>43.2943096943199634552001953125</LatitudeDegrees>
              <LongitudeDegrees>-2.35552391968667507171630859375</LongitudeDegrees>
            </Position>
            <AltitudeMeters>46.59999847412109375</AltitudeMeters>
            <DistanceMeters>NAN</DistanceMeters>
          </Trackpoint>
          <Trackpoint>
            <Time>2022-07-10T16:06:07.000Z</Time>
            <Position>
              <LatitudeDegrees>43.294309191405773162841796875</LatitudeDegrees>
              <LongitudeDegrees>-2.35557287000119686126708984375</LongitudeDegrees>
            </Position>
            <AltitudeMeters>46.40000152587890625</AltitudeMeters>
            <DistanceMeters>NAN</DistanceMeters>
          </Trackpoint>
          <Trackpoint>
            <Time>2022-07-10T16:06:08.000Z</Time>
            <Position>
              <LatitudeDegrees>43.29430407844483852386474609375</LatitudeDegrees>
              <LongitudeDegrees>-2.35559851862490177154541015625</LongitudeDegrees>
            </Position>
            <AltitudeMeters>46.40000152587890625</AltitudeMeters>
            <DistanceMeters>NAN</DistanceMeters>
          </Trackpoint>
          <Trackpoint>
            <Time>2022-07-10T16:06:10.000Z</Time>
            <Position>
              <LatitudeDegrees>43.29427809454500675201416015625</LatitudeDegrees>
              <LongitudeDegrees>-2.3556299507617950439453125</LongitudeDegrees>
            </Position>
            <AltitudeMeters>46.40000152587890625</AltitudeMeters>
            <DistanceMeters>NAN</DistanceMeters>
          </Trackpoint>
          <Trackpoint>
            <Time>2022-07-10T16:06:12.000Z</Time>
            <Position>
              <LatitudeDegrees>43.29422679729759693145751953125</LatitudeDegrees>
              <LongitudeDegrees>-2.355667166411876678466796875</LongitudeDegrees>
            </Position>
            <AltitudeMeters>46.200000762939453125</AltitudeMeters>
            <DistanceMeters>NAN</DistanceMeters>
          </Trackpoint>
          <Trackpoint>
            <Time>2022-07-10T16:06:18.000Z</Time>
            <Position>
              <LatitudeDegrees>43.2940495200455188751220703125</LatitudeDegrees>
              <LongitudeDegrees>-2.3557156138122081756591796875</LongitudeDegrees>
            </Position>
            <AltitudeMeters>46.200000762939453125</AltitudeMeters>
            <DistanceMeters>NAN</DistanceMeters>
          </Trackpoint>
          <Trackpoint>
            <Time>2022-07-10T16:06:27.000Z</Time>
            <Position>
              <LatitudeDegrees>43.293750621378421783447265625</LatitudeDegrees>
              <LongitudeDegrees>-2.3557828366756439208984375</LongitudeDegrees>
            </Position>
            <AltitudeMeters>46.59999847412109375</AltitudeMeters>
            <DistanceMeters>NAN</DistanceMeters>
          </Trackpoint>
          <Trackpoint>
            <Time>2022-07-10T16:06:36.000Z</Time>
            <Position>
              <LatitudeDegrees>43.2933870144188404083251953125</LatitudeDegrees>
              <LongitudeDegrees>-2.35586238093674182891845703125</LongitudeDegrees>
            </Position>
            <AltitudeMeters>46.200000762939453125</AltitudeMeters>
            <DistanceMeters>NAN</DistanceMeters>
          </Trackpoint>
          <Trackpoint>
            <Time>2022-07-10T16:06:40.000Z</Time>
            <Position>
              <LatitudeDegrees>43.29321744851768016815185546875</LatitudeDegrees>
              <LongitudeDegrees>-2.3558919690549373626708984375</LongitudeDegrees>
            </Position>
            <AltitudeMeters>46</AltitudeMeters>
            <DistanceMeters>NAN</DistanceMeters>
          </Trackpoint>
          <Trackpoint>
            <Time>2022-07-10T16:06:43.000Z</Time>
            <Position>
              <LatitudeDegrees>43.2931006886065006256103515625</LatitudeDegrees>
              <LongitudeDegrees>-2.35592574812471866607666015625</LongitudeDegrees>
            </Position>
            <AltitudeMeters>46</AltitudeMeters>
            <DistanceMeters>NAN</DistanceMeters>
          </Trackpoint>
          <Trackpoint>
            <Time>2022-07-10T16:06:44.000Z</Time>
            <Position>
              <LatitudeDegrees>43.2930607907474040985107421875</LatitudeDegrees>
              <LongitudeDegrees>-2.3559343814849853515625</LongitudeDegrees>
            </Position>
            <AltitudeMeters>45.799999237060546875</AltitudeMeters>
            <DistanceMeters>NAN</DistanceMeters>
          </Trackpoint>
          <Trackpoint>
            <Time>2022-07-10T16:06:45.000Z</Time>
            <Position>
              <LatitudeDegrees>43.29302080906927585601806640625</LatitudeDegrees>
              <LongitudeDegrees>-2.355948798358440399169921875</LongitudeDegrees>
            </Position>
            <AltitudeMeters>45.799999237060546875</AltitudeMeters>
            <DistanceMeters>NAN</DistanceMeters>
          </Trackpoint>
          <Trackpoint>
            <Time>2022-07-10T16:06:49.000Z</Time>
            <Position>
              <LatitudeDegrees>43.2928723655641078948974609375</LatitudeDegrees>
              <LongitudeDegrees>-2.35602214001119136810302734375</LongitudeDegrees>
            </Position>
            <AltitudeMeters>46</AltitudeMeters>
            <DistanceMeters>NAN</DistanceMeters>
          </Trackpoint>
          <Trackpoint>
            <Time>2022-07-10T16:06:55.000Z</Time>
            <Position>
              <LatitudeDegrees>43.29267815686762332916259765625</LatitudeDegrees>
              <LongitudeDegrees>-2.35613244585692882537841796875</LongitudeDegrees>
            </Position>
            <AltitudeMeters>46.200000762939453125</AltitudeMeters>
            <DistanceMeters>NAN</DistanceMeters>
          </Trackpoint>
          <Trackpoint>
            <Time>2022-07-10T16:06:57.000Z</Time>
            <Position>
              <LatitudeDegrees>43.2926199026405811309814453125</LatitudeDegrees>
              <LongitudeDegrees>-2.3561876825988292694091796875</LongitudeDegrees>
            </Position>
            <AltitudeMeters>46.200000762939453125</AltitudeMeters>
            <DistanceMeters>NAN</DistanceMeters>
          </Trackpoint>
          <Trackpoint>
            <Time>2022-07-10T16:06:58.000Z</Time>
            <Position>
              <LatitudeDegrees>43.2926051504909992218017578125</LatitudeDegrees>
              <LongitudeDegrees>-2.35622045584022998809814453125</LongitudeDegrees>
            </Position>
            <AltitudeMeters>46.40000152587890625</AltitudeMeters>
            <DistanceMeters>NAN</DistanceMeters>
          </Trackpoint>
          <Trackpoint>
            <Time>2022-07-10T16:06:59.000Z</Time>
            <Position>
              <LatitudeDegrees>43.292601965367794036865234375</LatitudeDegrees>
              <LongitudeDegrees>-2.35625850968062877655029296875</LongitudeDegrees>
            </Position>
            <AltitudeMeters>46.59999847412109375</AltitudeMeters>
            <DistanceMeters>NAN</DistanceMeters>
          </Trackpoint>
          <Trackpoint>
            <Time>2022-07-10T16:07:04.000Z</Time>
            <Position>
              <LatitudeDegrees>43.29262887127697467803955078125</LatitudeDegrees>
              <LongitudeDegrees>-2.35643687658011913299560546875</LongitudeDegrees>
            </Position>
            <AltitudeMeters>47.59999847412109375</AltitudeMeters>
            <DistanceMeters>NAN</DistanceMeters>
          </Trackpoint>
          <Trackpoint>
            <Time>2022-07-10T16:07:07.000Z</Time>
            <Position>
              <LatitudeDegrees>43.29265820793807506561279296875</LatitudeDegrees>
              <LongitudeDegrees>-2.3565350286662578582763671875</LongitudeDegrees>
            </Position>
            <AltitudeMeters>48.200000762939453125</AltitudeMeters>
            <DistanceMeters>NAN</DistanceMeters>
          </Trackpoint>
          <Trackpoint>
            <Time>2022-07-10T16:07:10.000Z</Time>
            <Position>
              <LatitudeDegrees>43.29268687404692173004150390625</LatitudeDegrees>
              <LongitudeDegrees>-2.35662329010665416717529296875</LongitudeDegrees>
            </Position>
            <AltitudeMeters>48.59999847412109375</AltitudeMeters>
            <DistanceMeters>NAN</DistanceMeters>
          </Trackpoint>
          <Trackpoint>
            <Time>2022-07-10T16:07:14.000Z</Time>
            <Position>
              <LatitudeDegrees>43.29272559843957424163818359375</LatitudeDegrees>
              <LongitudeDegrees>-2.356762178242206573486328125</LongitudeDegrees>
            </Position>
            <AltitudeMeters>49</AltitudeMeters>
            <DistanceMeters>NAN</DistanceMeters>
          </Trackpoint>
          <Trackpoint>
            <Time>2022-07-10T16:07:16.000Z</Time>
            <Position>
              <LatitudeDegrees>43.29274890013039112091064453125</LatitudeDegrees>
              <LongitudeDegrees>-2.35684373416006565093994140625</LongitudeDegrees>
            </Position>
            <AltitudeMeters>49</AltitudeMeters>
            <DistanceMeters>NAN</DistanceMeters>
          </Trackpoint>
          <Trackpoint>
            <Time>2022-07-10T16:07:22.000Z</Time>
            <Position>
              <LatitudeDegrees>43.29281662590801715850830078125</LatitudeDegrees>
              <LongitudeDegrees>-2.3570651002228260040283203125</LongitudeDegrees>
            </Position>
            <AltitudeMeters>49</AltitudeMeters>
            <DistanceMeters>NAN</DistanceMeters>
          </Trackpoint>
          <Trackpoint>
            <Time>2022-07-10T16:07:25.000Z</Time>
            <Position>
              <LatitudeDegrees>43.2928458787500858306884765625</LatitudeDegrees>
              <LongitudeDegrees>-2.3571851290762424468994140625</LongitudeDegrees>
            </Position>
            <AltitudeMeters>49</AltitudeMeters>
            <DistanceMeters>NAN</DistanceMeters>
          </Trackpoint>
          <Trackpoint>
            <Time>2022-07-10T16:07:29.000Z</Time>
            <Position>
              <LatitudeDegrees>43.292909748852252960205078125</LatitudeDegrees>
              <LongitudeDegrees>-2.35733742825686931610107421875</LongitudeDegrees>
            </Position>
            <AltitudeMeters>49.40000152587890625</AltitudeMeters>
            <DistanceMeters>NAN</DistanceMeters>
          </Trackpoint>
          <Trackpoint>
            <Time>2022-07-10T16:07:35.000Z</Time>
            <Position>
              <LatitudeDegrees>43.293016366660594940185546875</LatitudeDegrees>
              <LongitudeDegrees>-2.35752417705953121185302734375</LongitudeDegrees>
            </Position>
            <AltitudeMeters>49.40000152587890625</AltitudeMeters>
            <DistanceMeters>NAN</DistanceMeters>
          </Trackpoint>
          <Trackpoint>
            <Time>2022-07-10T16:07:40.000Z</Time>
            <Position>
              <LatitudeDegrees>43.2931989245116710662841796875</LatitudeDegrees>
              <LongitudeDegrees>-2.35755980014801025390625</LongitudeDegrees>
            </Position>
            <AltitudeMeters>49.200000762939453125</AltitudeMeters>
            <DistanceMeters>NAN</DistanceMeters>
          </Trackpoint>
          <Trackpoint>
            <Time>2022-07-10T16:07:45.000Z</Time>
            <Position>
              <LatitudeDegrees>43.293381147086620330810546875</LatitudeDegrees>
              <LongitudeDegrees>-2.35757295973598957061767578125</LongitudeDegrees>
            </Position>
            <AltitudeMeters>49.200000762939453125</AltitudeMeters>
            <DistanceMeters>NAN</DistanceMeters>
          </Trackpoint>
          <Trackpoint>
            <Time>2022-07-10T16:07:47.000Z</Time>
            <Position>
              <LatitudeDegrees>43.29345054924488067626953125</LatitudeDegrees>
              <LongitudeDegrees>-2.35756717622280120849609375</LongitudeDegrees>
            </Position>
            <AltitudeMeters>49.40000152587890625</AltitudeMeters>
            <DistanceMeters>NAN</DistanceMeters>
          </Trackpoint>
          <Trackpoint>
            <Time>2022-07-10T16:07:54.000Z</Time>
            <Position>
              <LatitudeDegrees>43.29371181316673755645751953125</LatitudeDegrees>
              <LongitudeDegrees>-2.35748897306621074676513671875</LongitudeDegrees>
            </Position>
            <AltitudeMeters>49.59999847412109375</AltitudeMeters>
            <DistanceMeters>NAN</DistanceMeters>
          </Trackpoint>
          <Trackpoint>
            <Time>2022-07-10T16:07:55.000Z</Time>
            <Position>
              <LatitudeDegrees>43.29376478679478168487548828125</LatitudeDegrees>
              <LongitudeDegrees>-2.35745930112898349761962890625</LongitudeDegrees>
            </Position>
            <AltitudeMeters>49.59999847412109375</AltitudeMeters>
            <DistanceMeters>NAN</DistanceMeters>
          </Trackpoint>
          <Trackpoint>
            <Time>2022-07-10T16:08:00.000Z</Time>
            <Position>
              <LatitudeDegrees>43.29396645538508892059326171875</LatitudeDegrees>
              <LongitudeDegrees>-2.35730708576738834381103515625</LongitudeDegrees>
            </Position>
            <AltitudeMeters>49.59999847412109375</AltitudeMeters>
            <DistanceMeters>NAN</DistanceMeters>
          </Trackpoint>
          <Trackpoint>
            <Time>2022-07-10T16:08:08.000Z</Time>
            <Position>
              <LatitudeDegrees>43.29428144730627536773681640625</LatitudeDegrees>
              <LongitudeDegrees>-2.3570537008345127105712890625</LongitudeDegrees>
            </Position>
            <AltitudeMeters>49.40000152587890625</AltitudeMeters>
            <DistanceMeters>NAN</DistanceMeters>
          </Trackpoint>
          <Trackpoint>
            <Time>2022-07-10T16:08:10.000Z</Time>
            <Position>
              <LatitudeDegrees>43.29435688443481922149658203125</LatitudeDegrees>
              <LongitudeDegrees>-2.35702159814536571502685546875</LongitudeDegrees>
            </Position>
            <AltitudeMeters>49.40000152587890625</AltitudeMeters>
            <DistanceMeters>NAN</DistanceMeters>
          </Trackpoint>
          <Trackpoint>
            <Time>2022-07-10T16:08:12.000Z</Time>
            <Position>
              <LatitudeDegrees>43.2944270409643650054931640625</LatitudeDegrees>
              <LongitudeDegrees>-2.356985472142696380615234375</LongitudeDegrees>
            </Position>
            <AltitudeMeters>49.59999847412109375</AltitudeMeters>
            <DistanceMeters>NAN</DistanceMeters>
          </Trackpoint>
          <Trackpoint>
            <Time>2022-07-10T16:08:14.000Z</Time>
            <Position>
              <LatitudeDegrees>43.29448713921010494232177734375</LatitudeDegrees>
              <LongitudeDegrees>-2.35690408386290073394775390625</LongitudeDegrees>
            </Position>
            <AltitudeMeters>49.799999237060546875</AltitudeMeters>
            <DistanceMeters>NAN</DistanceMeters>
          </Trackpoint>
          <Trackpoint>
            <Time>2022-07-10T16:08:17.000Z</Time>
            <Position>
              <LatitudeDegrees>43.2945936731994152069091796875</LatitudeDegrees>
              <LongitudeDegrees>-2.35679830424487590789794921875</LongitudeDegrees>
            </Position>
            <AltitudeMeters>50</AltitudeMeters>
            <DistanceMeters>NAN</DistanceMeters>
          </Trackpoint>
          <Trackpoint>
            <Time>2022-07-10T16:08:24.000Z</Time>
            <Position>
              <LatitudeDegrees>43.294859044253826141357421875</LatitudeDegrees>
              <LongitudeDegrees>-2.35662781633436679840087890625</LongitudeDegrees>
            </Position>
            <AltitudeMeters>50.40000152587890625</AltitudeMeters>
            <DistanceMeters>NAN</DistanceMeters>
          </Trackpoint>
          <Trackpoint>
            <Time>2022-07-10T16:08:25.000Z</Time>
            <Position>
              <LatitudeDegrees>43.2948967628180980682373046875</LatitudeDegrees>
              <LongitudeDegrees>-2.35661122016608715057373046875</LongitudeDegrees>
            </Position>
            <AltitudeMeters>50.40000152587890625</AltitudeMeters>
            <DistanceMeters>NAN</DistanceMeters>
          </Trackpoint>
          <Trackpoint>
            <Time>2022-07-10T16:08:27.000Z</Time>
            <Position>
              <LatitudeDegrees>43.29493657685816287994384765625</LatitudeDegrees>
              <LongitudeDegrees>-2.3565953783690929412841796875</LongitudeDegrees>
            </Position>
            <AltitudeMeters>50.59999847412109375</AltitudeMeters>
            <DistanceMeters>NAN</DistanceMeters>
          </Trackpoint>
          <Trackpoint>
            <Time>2022-07-10T16:08:30.000Z</Time>
            <Position>
              <LatitudeDegrees>43.29509868286550045013427734375</LatitudeDegrees>
              <LongitudeDegrees>-2.35655137337744235992431640625</LongitudeDegrees>
            </Position>
            <AltitudeMeters>50.59999847412109375</AltitudeMeters>
            <DistanceMeters>NAN</DistanceMeters>
          </Trackpoint>
          <Trackpoint>
            <Time>2022-07-10T16:08:32.000Z</Time>
            <Position>
              <LatitudeDegrees>43.29518149606883525848388671875</LatitudeDegrees>
              <LongitudeDegrees>-2.35654902644455432891845703125</LongitudeDegrees>
            </Position>
            <AltitudeMeters>50.799999237060546875</AltitudeMeters>
            <DistanceMeters>NAN</DistanceMeters>
          </Trackpoint>
          <Trackpoint>
            <Time>2022-07-10T16:08:41.000Z</Time>
            <Position>
              <LatitudeDegrees>43.2955723442137241363525390625</LatitudeDegrees>
              <LongitudeDegrees>-2.35658523626625537872314453125</LongitudeDegrees>
            </Position>
            <AltitudeMeters>50.59999847412109375</AltitudeMeters>
            <DistanceMeters>NAN</DistanceMeters>
          </Trackpoint>
          <Trackpoint>
            <Time>2022-07-10T16:08:43.000Z</Time>
            <Position>
              <LatitudeDegrees>43.29565121792256832122802734375</LatitudeDegrees>
              <LongitudeDegrees>-2.35659026540815830230712890625</LongitudeDegrees>
            </Position>
            <AltitudeMeters>50.799999237060546875</AltitudeMeters>
            <DistanceMeters>NAN</DistanceMeters>
          </Trackpoint>
          <Trackpoint>
            <Time>2022-07-10T16:08:49.000Z</Time>
            <Position>
              <LatitudeDegrees>43.295904099941253662109375</LatitudeDegrees>
              <LongitudeDegrees>-2.3566171713173389434814453125</LongitudeDegrees>
            </Position>
            <AltitudeMeters>51</AltitudeMeters>
            <DistanceMeters>NAN</DistanceMeters>
          </Trackpoint>
          <Trackpoint>
            <Time>2022-07-10T16:08:58.000Z</Time>
            <Position>
              <LatitudeDegrees>43.29626611433923244476318359375</LatitudeDegrees>
              <LongitudeDegrees>-2.35669252462685108184814453125</LongitudeDegrees>
            </Position>
            <AltitudeMeters>51.40000152587890625</AltitudeMeters>
            <DistanceMeters>NAN</DistanceMeters>
          </Trackpoint>
          <Trackpoint>
            <Time>2022-07-10T16:09:08.000Z</Time>
            <Position>
              <LatitudeDegrees>43.2966271229088306427001953125</LatitudeDegrees>
              <LongitudeDegrees>-2.35688732005655765533447265625</LongitudeDegrees>
            </Position>
            <AltitudeMeters>51.59999847412109375</AltitudeMeters>
            <DistanceMeters>NAN</DistanceMeters>
          </Trackpoint>
          <Trackpoint>
            <Time>2022-07-10T16:09:17.000Z</Time>
            <Position>
              <LatitudeDegrees>43.29699751920998096466064453125</LatitudeDegrees>
              <LongitudeDegrees>-2.357130311429500579833984375</LongitudeDegrees>
            </Position>
            <AltitudeMeters>51.59999847412109375</AltitudeMeters>
            <DistanceMeters>NAN</DistanceMeters>
          </Trackpoint>
          <Trackpoint>
            <Time>2022-07-10T16:09:22.000Z</Time>
            <Position>
              <LatitudeDegrees>43.29720471985638141632080078125</LatitudeDegrees>
              <LongitudeDegrees>-2.3572017252445220947265625</LongitudeDegrees>
            </Position>
            <AltitudeMeters>51.59999847412109375</AltitudeMeters>
            <DistanceMeters>NAN</DistanceMeters>
          </Trackpoint>
          <Trackpoint>
            <Time>2022-07-10T16:09:26.000Z</Time>
            <Position>
              <LatitudeDegrees>43.2973670773208141326904296875</LatitudeDegrees>
              <LongitudeDegrees>-2.3572431318461894989013671875</LongitudeDegrees>
            </Position>
            <AltitudeMeters>51.799999237060546875</AltitudeMeters>
            <DistanceMeters>NAN</DistanceMeters>
          </Trackpoint>
          <Trackpoint>
            <Time>2022-07-10T16:09:27.000Z</Time>
            <Position>
              <LatitudeDegrees>43.2974109984934329986572265625</LatitudeDegrees>
              <LongitudeDegrees>-2.35725210048258304595947265625</LongitudeDegrees>
            </Position>
            <AltitudeMeters>51.799999237060546875</AltitudeMeters>
            <DistanceMeters>NAN</DistanceMeters>
          </Trackpoint>
          <Trackpoint>
            <Time>2022-07-10T16:09:28.000Z</Time>
            <Position>
              <LatitudeDegrees>43.297458104789257049560546875</LatitudeDegrees>
              <LongitudeDegrees>-2.35726115293800830841064453125</LongitudeDegrees>
            </Position>
            <AltitudeMeters>51.799999237060546875</AltitudeMeters>
            <DistanceMeters>NAN</DistanceMeters>
          </Trackpoint>
          <Trackpoint>
            <Time>2022-07-10T16:09:34.000Z</Time>
            <Position>
              <LatitudeDegrees>43.29774233512580394744873046875</LatitudeDegrees>
              <LongitudeDegrees>-2.3572699539363384246826171875</LongitudeDegrees>
            </Position>
            <AltitudeMeters>52</AltitudeMeters>
            <DistanceMeters>NAN</DistanceMeters>
          </Trackpoint>
          <Trackpoint>
            <Time>2022-07-10T16:09:35.000Z</Time>
            <Position>
              <LatitudeDegrees>43.29778826795518398284912109375</LatitudeDegrees>
              <LongitudeDegrees>-2.35726065002381801605224609375</LongitudeDegrees>
            </Position>
            <AltitudeMeters>52</AltitudeMeters>
            <DistanceMeters>NAN</DistanceMeters>
          </Trackpoint>
          <Trackpoint>
            <Time>2022-07-10T16:09:38.000Z</Time>
            <Position>
              <LatitudeDegrees>43.29792422242462635040283203125</LatitudeDegrees>
              <LongitudeDegrees>-2.35721874050796031951904296875</LongitudeDegrees>
            </Position>
            <AltitudeMeters>52.40000152587890625</AltitudeMeters>
            <DistanceMeters>NAN</DistanceMeters>
          </Trackpoint>
          <Trackpoint>
            <Time>2022-07-10T16:09:40.000Z</Time>
            <Position>
              <LatitudeDegrees>43.29800670035183429718017578125</LatitudeDegrees>
              <LongitudeDegrees>-2.357177250087261199951171875</LongitudeDegrees>
            </Position>
            <AltitudeMeters>52.59999847412109375</AltitudeMeters>
            <DistanceMeters>NAN</DistanceMeters>
          </Trackpoint>
          <Trackpoint>
            <Time>2022-07-10T16:09:45.000Z</Time>
            <Position>
              <LatitudeDegrees>43.2982039265334606170654296875</LatitudeDegrees>
              <LongitudeDegrees>-2.35706962645053863525390625</LongitudeDegrees>
            </Position>
            <AltitudeMeters>52.799999237060546875</AltitudeMeters>
            <DistanceMeters>NAN</DistanceMeters>
          </Trackpoint>
          <Trackpoint>
            <Time>2022-07-10T16:09:46.000Z</Time>
            <Position>
              <LatitudeDegrees>43.29824675805866718292236328125</LatitudeDegrees>
              <LongitudeDegrees>-2.3570480011403560638427734375</LongitudeDegrees>
            </Position>
            <AltitudeMeters>52.799999237060546875</AltitudeMeters>
            <DistanceMeters>NAN</DistanceMeters>
          </Trackpoint>
          <Trackpoint>
            <Time>2022-07-10T16:09:47.000Z</Time>
            <Position>
              <LatitudeDegrees>43.29828430898487567901611328125</LatitudeDegrees>
              <LongitudeDegrees>-2.35702042467892169952392578125</LongitudeDegrees>
            </Position>
            <AltitudeMeters>53</AltitudeMeters>
            <DistanceMeters>NAN</DistanceMeters>
          </Trackpoint>
          <Trackpoint>
            <Time>2022-07-10T16:09:52.000Z</Time>
            <Position>
              <LatitudeDegrees>43.2984587363898754119873046875</LatitudeDegrees>
              <LongitudeDegrees>-2.3568530380725860595703125</LongitudeDegrees>
            </Position>
            <AltitudeMeters>53.799999237060546875</AltitudeMeters>
            <DistanceMeters>NAN</DistanceMeters>
          </Trackpoint>
          <Trackpoint>
            <Time>2022-07-10T16:09:53.000Z</Time>
            <Position>
              <LatitudeDegrees>43.2984892465174198150634765625</LatitudeDegrees>
              <LongitudeDegrees>-2.35681758262217044830322265625</LongitudeDegrees>
            </Position>
            <AltitudeMeters>53.799999237060546875</AltitudeMeters>
            <DistanceMeters>NAN</DistanceMeters>
          </Trackpoint>
          <Trackpoint>
            <Time>2022-07-10T16:09:54.000Z</Time>
            <Position>
              <LatitudeDegrees>43.2985179126262664794921875</LatitudeDegrees>
              <LongitudeDegrees>-2.35678539611399173736572265625</LongitudeDegrees>
            </Position>
            <AltitudeMeters>54</AltitudeMeters>
            <DistanceMeters>NAN</DistanceMeters>
          </Trackpoint>
          <Trackpoint>
            <Time>2022-07-10T16:10:01.000Z</Time>
            <Position>
              <LatitudeDegrees>43.29873089678585529327392578125</LatitudeDegrees>
              <LongitudeDegrees>-2.3565776087343692779541015625</LongitudeDegrees>
            </Position>
            <AltitudeMeters>54.200000762939453125</AltitudeMeters>
            <DistanceMeters>NAN</DistanceMeters>
          </Trackpoint>
          <Trackpoint>
            <Time>2022-07-10T16:10:06.000Z</Time>
            <Position>
              <LatitudeDegrees>43.2988831959664821624755859375</LatitudeDegrees>
              <LongitudeDegrees>-2.35646051354706287384033203125</LongitudeDegrees>
            </Position>
            <AltitudeMeters>55</AltitudeMeters>
            <DistanceMeters>NAN</DistanceMeters>
          </Trackpoint>
          <Trackpoint>
            <Time>2022-07-10T16:10:10.000Z</Time>
            <Position>
              <LatitudeDegrees>43.29899325035512447357177734375</LatitudeDegrees>
              <LongitudeDegrees>-2.3563975654542446136474609375</LongitudeDegrees>
            </Position>
            <AltitudeMeters>55.200000762939453125</AltitudeMeters>
            <DistanceMeters>NAN</DistanceMeters>
          </Trackpoint>
          <Trackpoint>
            <Time>2022-07-10T16:10:17.000Z</Time>
            <Position>
              <LatitudeDegrees>43.29917748458683490753173828125</LatitudeDegrees>
              <LongitudeDegrees>-2.35636009834706783294677734375</LongitudeDegrees>
            </Position>
            <AltitudeMeters>55.799999237060546875</AltitudeMeters>
            <DistanceMeters>NAN</DistanceMeters>
          </Trackpoint>
          <Trackpoint>
            <Time>2022-07-10T16:10:24.000Z</Time>
            <Position>
              <LatitudeDegrees>43.29937496222555637359619140625</LatitudeDegrees>
              <LongitudeDegrees>-2.35642916522920131683349609375</LongitudeDegrees>
            </Position>
            <AltitudeMeters>56</AltitudeMeters>
            <DistanceMeters>NAN</DistanceMeters>
          </Trackpoint>
          <Trackpoint>
            <Time>2022-07-10T16:10:31.000Z</Time>
            <Position>
              <LatitudeDegrees>43.29958601854741573333740234375</LatitudeDegrees>
              <LongitudeDegrees>-2.3565618507564067840576171875</LongitudeDegrees>
            </Position>
            <AltitudeMeters>56.200000762939453125</AltitudeMeters>
            <DistanceMeters>NAN</DistanceMeters>
          </Trackpoint>
          <Trackpoint>
            <Time>2022-07-10T16:10:39.000Z</Time>
            <Position>
              <LatitudeDegrees>43.29989262856543064117431640625</LatitudeDegrees>
              <LongitudeDegrees>-2.35675119794905185699462890625</LongitudeDegrees>
            </Position>
            <AltitudeMeters>56.200000762939453125</AltitudeMeters>
            <DistanceMeters>NAN</DistanceMeters>
          </Trackpoint>
          <Trackpoint>
            <Time>2022-07-10T16:10:47.000Z</Time>
            <Position>
              <LatitudeDegrees>43.30016789026558399200439453125</LatitudeDegrees>
              <LongitudeDegrees>-2.35689972527325153350830078125</LongitudeDegrees>
            </Position>
            <AltitudeMeters>56.59999847412109375</AltitudeMeters>
            <DistanceMeters>NAN</DistanceMeters>
          </Trackpoint>
          <Trackpoint>
            <Time>2022-07-10T16:10:56.000Z</Time>
            <Position>
              <LatitudeDegrees>43.30047014169394969940185546875</LatitudeDegrees>
              <LongitudeDegrees>-2.35707289539277553558349609375</LongitudeDegrees>
            </Position>
            <AltitudeMeters>56.59999847412109375</AltitudeMeters>
            <DistanceMeters>NAN</DistanceMeters>
          </Trackpoint>
          <Trackpoint>
            <Time>2022-07-10T16:10:57.000Z</Time>
            <Position>
              <LatitudeDegrees>43.300509788095951080322265625</LatitudeDegrees>
              <LongitudeDegrees>-2.35709049738943576812744140625</LongitudeDegrees>
            </Position>
            <AltitudeMeters>56.59999847412109375</AltitudeMeters>
            <DistanceMeters>NAN</DistanceMeters>
          </Trackpoint>
          <Trackpoint>
            <Time>2022-07-10T16:11:02.000Z</Time>
            <Position>
              <LatitudeDegrees>43.30067952163517475128173828125</LatitudeDegrees>
              <LongitudeDegrees>-2.3571713827550411224365234375</LongitudeDegrees>
            </Position>
            <AltitudeMeters>57</AltitudeMeters>
            <DistanceMeters>NAN</DistanceMeters>
          </Trackpoint>
          <Trackpoint>
            <Time>2022-07-10T16:11:05.000Z</Time>
            <Position>
              <LatitudeDegrees>43.3007858879864215850830078125</LatitudeDegrees>
              <LongitudeDegrees>-2.35722142271697521209716796875</LongitudeDegrees>
            </Position>
            <AltitudeMeters>57.200000762939453125</AltitudeMeters>
            <DistanceMeters>NAN</DistanceMeters>
          </Trackpoint>
          <Trackpoint>
            <Time>2022-07-10T16:11:15.000Z</Time>
            <Position>
              <LatitudeDegrees>43.3011598885059356689453125</LatitudeDegrees>
              <LongitudeDegrees>-2.357406914234161376953125</LongitudeDegrees>
            </Position>
            <AltitudeMeters>57.40000152587890625</AltitudeMeters>
            <DistanceMeters>NAN</DistanceMeters>
          </Trackpoint>
          <Trackpoint>
            <Time>2022-07-10T16:11:22.000Z</Time>
            <Position>
              <LatitudeDegrees>43.30140640027821063995361328125</LatitudeDegrees>
              <LongitudeDegrees>-2.35749383457005023956298828125</LongitudeDegrees>
            </Position>
            <AltitudeMeters>58</AltitudeMeters>
            <DistanceMeters>NAN</DistanceMeters>
          </Trackpoint>
          <Trackpoint>
            <Time>2022-07-10T16:11:30.000Z</Time>
            <Position>
              <LatitudeDegrees>43.30170144326984882354736328125</LatitudeDegrees>
              <LongitudeDegrees>-2.35756340436637401580810546875</LongitudeDegrees>
            </Position>
            <AltitudeMeters>58</AltitudeMeters>
            <DistanceMeters>NAN</DistanceMeters>
          </Trackpoint>
          <Trackpoint>
            <Time>2022-07-10T16:11:32.000Z</Time>
            <Position>
              <LatitudeDegrees>43.3017819933593273162841796875</LatitudeDegrees>
              <LongitudeDegrees>-2.3575710318982601165771484375</LongitudeDegrees>
            </Position>
            <AltitudeMeters>58</AltitudeMeters>
            <DistanceMeters>NAN</DistanceMeters>
          </Trackpoint>
          <Trackpoint>
            <Time>2022-07-10T16:11:38.000Z</Time>
            <Position>
              <LatitudeDegrees>43.30201526172459125518798828125</LatitudeDegrees>
              <LongitudeDegrees>-2.3575911484658718109130859375</LongitudeDegrees>
            </Position>
            <AltitudeMeters>58.59999847412109375</AltitudeMeters>
            <DistanceMeters>NAN</DistanceMeters>
          </Trackpoint>
          <Trackpoint>
            <Time>2022-07-10T16:11:44.000Z</Time>
            <Position>
              <LatitudeDegrees>43.30221860669553279876708984375</LatitudeDegrees>
              <LongitudeDegrees>-2.35756776295602321624755859375</LongitudeDegrees>
            </Position>
            <AltitudeMeters>59.200000762939453125</AltitudeMeters>
            <DistanceMeters>NAN</DistanceMeters>
          </Trackpoint>
          <Trackpoint>
            <Time>2022-07-10T16:11:45.000Z</Time>
            <Position>
              <LatitudeDegrees>43.30224953591823577880859375</LatitudeDegrees>
              <LongitudeDegrees>-2.35756575129926204681396484375</LongitudeDegrees>
            </Position>
            <AltitudeMeters>59.200000762939453125</AltitudeMeters>
            <DistanceMeters>NAN</DistanceMeters>
          </Trackpoint>
          <Trackpoint>
            <Time>2022-07-10T16:11:52.000Z</Time>
            <Position>
              <LatitudeDegrees>43.30246050842106342315673828125</LatitudeDegrees>
              <LongitudeDegrees>-2.35755510628223419189453125</LongitudeDegrees>
            </Position>
            <AltitudeMeters>60</AltitudeMeters>
            <DistanceMeters>NAN</DistanceMeters>
          </Trackpoint>
          <Trackpoint>
            <Time>2022-07-10T16:11:53.000Z</Time>
            <Position>
              <LatitudeDegrees>43.30248381011188030242919921875</LatitudeDegrees>
              <LongitudeDegrees>-2.35755535773932933807373046875</LongitudeDegrees>
            </Position>
            <AltitudeMeters>60.200000762939453125</AltitudeMeters>
            <DistanceMeters>NAN</DistanceMeters>
          </Trackpoint>
          <Trackpoint>
            <Time>2022-07-10T16:11:56.000Z</Time>
            <Position>
              <LatitudeDegrees>43.30260568298399448394775390625</LatitudeDegrees>
              <LongitudeDegrees>-2.35757614485919475555419921875</LongitudeDegrees>
            </Position>
            <AltitudeMeters>60.799999237060546875</AltitudeMeters>
            <DistanceMeters>NAN</DistanceMeters>
          </Trackpoint>
          <Trackpoint>
            <Time>2022-07-10T16:11:59.000Z</Time>
            <Position>
              <LatitudeDegrees>43.3026510290801525115966796875</LatitudeDegrees>
              <LongitudeDegrees>-2.3574912361800670623779296875</LongitudeDegrees>
            </Position>
            <AltitudeMeters>61.200000762939453125</AltitudeMeters>
            <DistanceMeters>NAN</DistanceMeters>
          </Trackpoint>
          <Trackpoint>
            <Time>2022-07-10T16:12:02.000Z</Time>
            <Position>
              <LatitudeDegrees>43.3027026616036891937255859375</LatitudeDegrees>
              <LongitudeDegrees>-2.35742460004985332489013671875</LongitudeDegrees>
            </Position>
            <AltitudeMeters>61.59999847412109375</AltitudeMeters>
            <DistanceMeters>NAN</DistanceMeters>
          </Trackpoint>
          <Trackpoint>
            <Time>2022-07-10T16:12:07.000Z</Time>
            <Position>
              <LatitudeDegrees>43.30280886031687259674072265625</LatitudeDegrees>
              <LongitudeDegrees>-2.3573519289493560791015625</LongitudeDegrees>
            </Position>
            <AltitudeMeters>62.200000762939453125</AltitudeMeters>
            <DistanceMeters>NAN</DistanceMeters>
          </Trackpoint>
          <Trackpoint>
            <Time>2022-07-10T16:12:09.000Z</Time>
            <Position>
              <LatitudeDegrees>43.30284406431019306182861328125</LatitudeDegrees>
              <LongitudeDegrees>-2.35733105801045894622802734375</LongitudeDegrees>
            </Position>
            <AltitudeMeters>62.59999847412109375</AltitudeMeters>
            <DistanceMeters>NAN</DistanceMeters>
          </Trackpoint>
          <Trackpoint>
            <Time>2022-07-10T16:12:14.000Z</Time>
            <Position>
              <LatitudeDegrees>43.30294766463339328765869140625</LatitudeDegrees>
              <LongitudeDegrees>-2.35730943270027637481689453125</LongitudeDegrees>
            </Position>
            <AltitudeMeters>63.40000152587890625</AltitudeMeters>
            <DistanceMeters>NAN</DistanceMeters>
          </Trackpoint>
          <Trackpoint>
            <Time>2022-07-10T16:12:17.000Z</Time>
            <Position>
              <LatitudeDegrees>43.30300499685108661651611328125</LatitudeDegrees>
              <LongitudeDegrees>-2.35729367472231388092041015625</LongitudeDegrees>
            </Position>
            <AltitudeMeters>63.799999237060546875</AltitudeMeters>
            <DistanceMeters>NAN</DistanceMeters>
          </Trackpoint>
          <Trackpoint>
            <Time>2022-07-10T16:12:22.000Z</Time>
            <Position>
              <LatitudeDegrees>43.3031261153519153594970703125</LatitudeDegrees>
              <LongitudeDegrees>-2.357288897037506103515625</LongitudeDegrees>
            </Position>
            <AltitudeMeters>64.40000152587890625</AltitudeMeters>
            <DistanceMeters>NAN</DistanceMeters>
          </Trackpoint>
          <Trackpoint>
            <Time>2022-07-10T16:12:24.000Z</Time>
            <Position>
              <LatitudeDegrees>43.30316609703004360198974609375</LatitudeDegrees>
              <LongitudeDegrees>-2.357284538447856903076171875</LongitudeDegrees>
            </Position>
            <AltitudeMeters>64.8000030517578125</AltitudeMeters>
            <DistanceMeters>NAN</DistanceMeters>
          </Trackpoint>
          <Trackpoint>
            <Time>2022-07-10T16:12:28.000Z</Time>
            <Position>
              <LatitudeDegrees>43.303234577178955078125</LatitudeDegrees>
              <LongitudeDegrees>-2.3572790063917636871337890625</LongitudeDegrees>
            </Position>
            <AltitudeMeters>65.40000152587890625</AltitudeMeters>
            <DistanceMeters>NAN</DistanceMeters>
          </Trackpoint>
          <Trackpoint>
            <Time>2022-07-10T16:12:30.000Z</Time>
            <Position>
              <LatitudeDegrees>43.3032736368477344512939453125</LatitudeDegrees>
              <LongitudeDegrees>-2.35728420317173004150390625</LongitudeDegrees>
            </Position>
            <AltitudeMeters>65.59999847412109375</AltitudeMeters>
            <DistanceMeters>NAN</DistanceMeters>
          </Trackpoint>
          <Trackpoint>
            <Time>2022-07-10T16:12:32.000Z</Time>
            <Position>
              <LatitudeDegrees>43.3033188991248607635498046875</LatitudeDegrees>
              <LongitudeDegrees>-2.3573041521012783050537109375</LongitudeDegrees>
            </Position>
            <AltitudeMeters>65.8000030517578125</AltitudeMeters>
            <DistanceMeters>NAN</DistanceMeters>
          </Trackpoint>
          <Trackpoint>
            <Time>2022-07-10T16:12:34.000Z</Time>
            <Position>
              <LatitudeDegrees>43.30335284583270549774169921875</LatitudeDegrees>
              <LongitudeDegrees>-2.35731102526187896728515625</LongitudeDegrees>
            </Position>
            <AltitudeMeters>66.1999969482421875</AltitudeMeters>
            <DistanceMeters>NAN</DistanceMeters>
          </Trackpoint>
          <Trackpoint>
            <Time>2022-07-10T16:12:37.000Z</Time>
            <Position>
              <LatitudeDegrees>43.30341168679296970367431640625</LatitudeDegrees>
              <LongitudeDegrees>-2.35734228976070880889892578125</LongitudeDegrees>
            </Position>
            <AltitudeMeters>66.59999847412109375</AltitudeMeters>
            <DistanceMeters>NAN</DistanceMeters>
          </Trackpoint>
          <Trackpoint>
            <Time>2022-07-10T16:12:39.000Z</Time>
            <Position>
              <LatitudeDegrees>43.3034432865679264068603515625</LatitudeDegrees>
              <LongitudeDegrees>-2.3573695309460163116455078125</LongitudeDegrees>
            </Position>
            <AltitudeMeters>67</AltitudeMeters>
            <DistanceMeters>NAN</DistanceMeters>
          </Trackpoint>
          <Trackpoint>
            <Time>2022-07-10T16:12:41.000Z</Time>
            <Position>
              <LatitudeDegrees>43.3034778200089931488037109375</LatitudeDegrees>
              <LongitudeDegrees>-2.35739895142614841461181640625</LongitudeDegrees>
            </Position>
            <AltitudeMeters>67</AltitudeMeters>
            <DistanceMeters>NAN</DistanceMeters>
          </Trackpoint>
          <Trackpoint>
            <Time>2022-07-10T16:12:45.000Z</Time>
            <Position>
              <LatitudeDegrees>43.30354370176792144775390625</LatitudeDegrees>
              <LongitudeDegrees>-2.3574208281934261322021484375</LongitudeDegrees>
            </Position>
            <AltitudeMeters>67.40000152587890625</AltitudeMeters>
            <DistanceMeters>NAN</DistanceMeters>
          </Trackpoint>
          <Trackpoint>
            <Time>2022-07-10T16:12:46.000Z</Time>
            <Position>
              <LatitudeDegrees>43.30355837009847164154052734375</LatitudeDegrees>
              <LongitudeDegrees>-2.3574345745146274566650390625</LongitudeDegrees>
            </Position>
            <AltitudeMeters>67.40000152587890625</AltitudeMeters>
            <DistanceMeters>NAN</DistanceMeters>
          </Trackpoint>
          <Trackpoint>
            <Time>2022-07-10T16:12:47.000Z</Time>
            <Position>
              <LatitudeDegrees>43.3035716973245143890380859375</LatitudeDegrees>
              <LongitudeDegrees>-2.35745360143482685089111328125</LongitudeDegrees>
            </Position>
            <AltitudeMeters>67.8000030517578125</AltitudeMeters>
            <DistanceMeters>NAN</DistanceMeters>
          </Trackpoint>
          <Trackpoint>
            <Time>2022-07-10T16:12:49.000Z</Time>
            <Position>
              <LatitudeDegrees>43.30358200706541538238525390625</LatitudeDegrees>
              <LongitudeDegrees>-2.35747489146888256072998046875</LongitudeDegrees>
            </Position>
            <AltitudeMeters>68.1999969482421875</AltitudeMeters>
            <DistanceMeters>NAN</DistanceMeters>
          </Trackpoint>
          <Trackpoint>
            <Time>2022-07-10T16:12:50.000Z</Time>
            <Position>
              <LatitudeDegrees>43.30359843559563159942626953125</LatitudeDegrees>
              <LongitudeDegrees>-2.35752023756504058837890625</LongitudeDegrees>
            </Position>
            <AltitudeMeters>68.40000152587890625</AltitudeMeters>
            <DistanceMeters>NAN</DistanceMeters>
          </Trackpoint>
          <Trackpoint>
            <Time>2022-07-10T16:12:53.000Z</Time>
            <Position>
              <LatitudeDegrees>43.30363682471215724945068359375</LatitudeDegrees>
              <LongitudeDegrees>-2.35757312737405300140380859375</LongitudeDegrees>
            </Position>
            <AltitudeMeters>68.8000030517578125</AltitudeMeters>
            <DistanceMeters>NAN</DistanceMeters>
          </Trackpoint>
          <Trackpoint>
            <Time>2022-07-10T16:12:58.000Z</Time>
            <Position>
              <LatitudeDegrees>43.30367437563836574554443359375</LatitudeDegrees>
              <LongitudeDegrees>-2.35769726336002349853515625</LongitudeDegrees>
            </Position>
            <AltitudeMeters>69.1999969482421875</AltitudeMeters>
            <DistanceMeters>NAN</DistanceMeters>
          </Trackpoint>
          <Trackpoint>
            <Time>2022-07-10T16:13:04.000Z</Time>
            <Position>
              <LatitudeDegrees>43.30370463430881500244140625</LatitudeDegrees>
              <LongitudeDegrees>-2.35785408876836299896240234375</LongitudeDegrees>
            </Position>
            <AltitudeMeters>69.59999847412109375</AltitudeMeters>
            <DistanceMeters>NAN</DistanceMeters>
          </Trackpoint>
          <Trackpoint>
            <Time>2022-07-10T16:13:08.000Z</Time>
            <Position>
              <LatitudeDegrees>43.30370974726974964141845703125</LatitudeDegrees>
              <LongitudeDegrees>-2.35797981731593608856201171875</LongitudeDegrees>
            </Position>
            <AltitudeMeters>69.8000030517578125</AltitudeMeters>
            <DistanceMeters>NAN</DistanceMeters>
          </Trackpoint>
          <Trackpoint>
            <Time>2022-07-10T16:13:16.000Z</Time>
            <Position>
              <LatitudeDegrees>43.3037106692790985107421875</LatitudeDegrees>
              <LongitudeDegrees>-2.35826161690056324005126953125</LongitudeDegrees>
            </Position>
            <AltitudeMeters>69.8000030517578125</AltitudeMeters>
            <DistanceMeters>NAN</DistanceMeters>
          </Trackpoint>
          <Trackpoint>
            <Time>2022-07-10T16:13:20.000Z</Time>
            <Position>
              <LatitudeDegrees>43.30371175892651081085205078125</LatitudeDegrees>
              <LongitudeDegrees>-2.3584162630140781402587890625</LongitudeDegrees>
            </Position>
            <AltitudeMeters>69.8000030517578125</AltitudeMeters>
            <DistanceMeters>NAN</DistanceMeters>
          </Trackpoint>
          <Trackpoint>
            <Time>2022-07-10T16:13:22.000Z</Time>
            <Position>
              <LatitudeDegrees>43.30371930263936519622802734375</LatitudeDegrees>
              <LongitudeDegrees>-2.3584836535155773162841796875</LongitudeDegrees>
            </Position>
            <AltitudeMeters>70</AltitudeMeters>
            <DistanceMeters>NAN</DistanceMeters>
          </Trackpoint>
          <Trackpoint>
            <Time>2022-07-10T16:13:24.000Z</Time>
            <Position>
              <LatitudeDegrees>43.30373221077024936676025390625</LatitudeDegrees>
              <LongitudeDegrees>-2.35855297185480594635009765625</LongitudeDegrees>
            </Position>
            <AltitudeMeters>70</AltitudeMeters>
            <DistanceMeters>NAN</DistanceMeters>
          </Trackpoint>
          <Trackpoint>
            <Time>2022-07-10T16:13:31.000Z</Time>
            <Position>
              <LatitudeDegrees>43.30378401093184947967529296875</LatitudeDegrees>
              <LongitudeDegrees>-2.35880157910287380218505859375</LongitudeDegrees>
            </Position>
            <AltitudeMeters>70</AltitudeMeters>
            <DistanceMeters>NAN</DistanceMeters>
          </Trackpoint>
          <Trackpoint>
            <Time>2022-07-10T16:13:41.000Z</Time>
            <Position>
              <LatitudeDegrees>43.30387034453451633453369140625</LatitudeDegrees>
              <LongitudeDegrees>-2.35915713943541049957275390625</LongitudeDegrees>
            </Position>
            <AltitudeMeters>70.8000030517578125</AltitudeMeters>
            <DistanceMeters>NAN</DistanceMeters>
          </Trackpoint>
          <Trackpoint>
            <Time>2022-07-10T16:13:47.000Z</Time>
            <Position>
              <LatitudeDegrees>43.303922899067401885986328125</LatitudeDegrees>
              <LongitudeDegrees>-2.35936819575726985931396484375</LongitudeDegrees>
            </Position>
            <AltitudeMeters>71</AltitudeMeters>
            <DistanceMeters>NAN</DistanceMeters>
          </Trackpoint>
          <Trackpoint>
            <Time>2022-07-10T16:13:51.000Z</Time>
            <Position>
              <LatitudeDegrees>43.303956091403961181640625</LatitudeDegrees>
              <LongitudeDegrees>-2.35948386602103710174560546875</LongitudeDegrees>
            </Position>
            <AltitudeMeters>71.1999969482421875</AltitudeMeters>
            <DistanceMeters>NAN</DistanceMeters>
          </Trackpoint>
          <Trackpoint>
            <Time>2022-07-10T16:13:58.000Z</Time>
            <Position>
              <LatitudeDegrees>43.3040276728570461273193359375</LatitudeDegrees>
              <LongitudeDegrees>-2.35970229841768741607666015625</LongitudeDegrees>
            </Position>
            <AltitudeMeters>71.8000030517578125</AltitudeMeters>
            <DistanceMeters>NAN</DistanceMeters>
          </Trackpoint>
          <Trackpoint>
            <Time>2022-07-10T16:13:59.000Z</Time>
            <Position>
              <LatitudeDegrees>43.3040343783795833587646484375</LatitudeDegrees>
              <LongitudeDegrees>-2.35973549075424671173095703125</LongitudeDegrees>
            </Position>
            <AltitudeMeters>71.8000030517578125</AltitudeMeters>
            <DistanceMeters>NAN</DistanceMeters>
          </Trackpoint>
          <Trackpoint>
            <Time>2022-07-10T16:14:01.000Z</Time>
            <Position>
              <LatitudeDegrees>43.30404787324368953704833984375</LatitudeDegrees>
              <LongitudeDegrees>-2.35979852266609668731689453125</LongitudeDegrees>
            </Position>
            <AltitudeMeters>72</AltitudeMeters>
            <DistanceMeters>NAN</DistanceMeters>
          </Trackpoint>
          <Trackpoint>
            <Time>2022-07-10T16:14:07.000Z</Time>
            <Position>
              <LatitudeDegrees>43.3041014336049556732177734375</LatitudeDegrees>
              <LongitudeDegrees>-2.35997906886041164398193359375</LongitudeDegrees>
            </Position>
            <AltitudeMeters>72.59999847412109375</AltitudeMeters>
            <DistanceMeters>NAN</DistanceMeters>
          </Trackpoint>
          <Trackpoint>
            <Time>2022-07-10T16:14:11.000Z</Time>
            <Position>
              <LatitudeDegrees>43.30413940362632274627685546875</LatitudeDegrees>
              <LongitudeDegrees>-2.36010177992284297943115234375</LongitudeDegrees>
            </Position>
            <AltitudeMeters>73</AltitudeMeters>
            <DistanceMeters>NAN</DistanceMeters>
          </Trackpoint>
          <Trackpoint>
            <Time>2022-07-10T16:14:15.000Z</Time>
            <Position>
              <LatitudeDegrees>43.30418466590344905853271484375</LatitudeDegrees>
              <LongitudeDegrees>-2.360225580632686614990234375</LongitudeDegrees>
            </Position>
            <AltitudeMeters>73.1999969482421875</AltitudeMeters>
            <DistanceMeters>NAN</DistanceMeters>
          </Trackpoint>
          <Trackpoint>
            <Time>2022-07-10T16:14:23.000Z</Time>
            <Position>
              <LatitudeDegrees>43.30425582826137542724609375</LatitudeDegrees>
              <LongitudeDegrees>-2.36047142185270786285400390625</LongitudeDegrees>
            </Position>
            <AltitudeMeters>73.8000030517578125</AltitudeMeters>
            <DistanceMeters>NAN</DistanceMeters>
          </Trackpoint>
          <Trackpoint>
            <Time>2022-07-10T16:14:27.000Z</Time>
            <Position>
              <LatitudeDegrees>43.30429430119693279266357421875</LatitudeDegrees>
              <LongitudeDegrees>-2.36060301773250102996826171875</LongitudeDegrees>
            </Position>
            <AltitudeMeters>74</AltitudeMeters>
            <DistanceMeters>NAN</DistanceMeters>
          </Trackpoint>
          <Trackpoint>
            <Time>2022-07-10T16:14:28.000Z</Time>
            <Position>
              <LatitudeDegrees>43.30431123264133930206298828125</LatitudeDegrees>
              <LongitudeDegrees>-2.3606478609144687652587890625</LongitudeDegrees>
            </Position>
            <AltitudeMeters>74</AltitudeMeters>
            <DistanceMeters>NAN</DistanceMeters>
          </Trackpoint>
          <Trackpoint>
            <Time>2022-07-10T16:14:33.000Z</Time>
            <Position>
              <LatitudeDegrees>43.30435867421329021453857421875</LatitudeDegrees>
              <LongitudeDegrees>-2.36080192029476165771484375</LongitudeDegrees>
            </Position>
            <AltitudeMeters>74.1999969482421875</AltitudeMeters>
            <DistanceMeters>NAN</DistanceMeters>
          </Trackpoint>
          <Trackpoint>
            <Time>2022-07-10T16:14:40.000Z</Time>
            <Position>
              <LatitudeDegrees>43.30442656762897968292236328125</LatitudeDegrees>
              <LongitudeDegrees>-2.3610119707882404327392578125</LongitudeDegrees>
            </Position>
            <AltitudeMeters>74.59999847412109375</AltitudeMeters>
            <DistanceMeters>NAN</DistanceMeters>
          </Trackpoint>
          <Trackpoint>
            <Time>2022-07-10T16:14:43.000Z</Time>
            <Position>
              <LatitudeDegrees>43.30446294508874416351318359375</LatitudeDegrees>
              <LongitudeDegrees>-2.36110509373247623443603515625</LongitudeDegrees>
            </Position>
            <AltitudeMeters>74.8000030517578125</AltitudeMeters>
            <DistanceMeters>NAN</DistanceMeters>
          </Trackpoint>
          <Trackpoint>
            <Time>2022-07-10T16:14:51.000Z</Time>
            <Position>
              <LatitudeDegrees>43.3045349456369876861572265625</LatitudeDegrees>
              <LongitudeDegrees>-2.361335344612598419189453125</LongitudeDegrees>
            </Position>
            <AltitudeMeters>74.8000030517578125</AltitudeMeters>
            <DistanceMeters>NAN</DistanceMeters>
          </Trackpoint>
          <Trackpoint>
            <Time>2022-07-10T16:14:53.000Z</Time>
            <Position>
              <LatitudeDegrees>43.304558582603931427001953125</LatitudeDegrees>
              <LongitudeDegrees>-2.3614022321999073028564453125</LongitudeDegrees>
            </Position>
            <AltitudeMeters>75.1999969482421875</AltitudeMeters>
            <DistanceMeters>NAN</DistanceMeters>
          </Trackpoint>
          <Trackpoint>
            <Time>2022-07-10T16:15:01.000Z</Time>
            <Position>
              <LatitudeDegrees>43.3046211116015911102294921875</LatitudeDegrees>
              <LongitudeDegrees>-2.361609935760498046875</LongitudeDegrees>
            </Position>
            <AltitudeMeters>75.8000030517578125</AltitudeMeters>
            <DistanceMeters>NAN</DistanceMeters>
          </Trackpoint>
          <Trackpoint>
            <Time>2022-07-10T16:15:07.000Z</Time>
            <Position>
              <LatitudeDegrees>43.3046744205057621002197265625</LatitudeDegrees>
              <LongitudeDegrees>-2.3617633245885372161865234375</LongitudeDegrees>
            </Position>
            <AltitudeMeters>76.1999969482421875</AltitudeMeters>
            <DistanceMeters>NAN</DistanceMeters>
          </Trackpoint>
          <Trackpoint>
            <Time>2022-07-10T16:15:12.000Z</Time>
            <Position>
              <LatitudeDegrees>43.3047270588576793670654296875</LatitudeDegrees>
              <LongitudeDegrees>-2.3618873767554759979248046875</LongitudeDegrees>
            </Position>
            <AltitudeMeters>76.40000152587890625</AltitudeMeters>
            <DistanceMeters>NAN</DistanceMeters>
          </Trackpoint>
          <Trackpoint>
            <Time>2022-07-10T16:15:18.000Z</Time>
            <Position>
              <LatitudeDegrees>43.30477659590542316436767578125</LatitudeDegrees>
              <LongitudeDegrees>-2.36205375753343105316162109375</LongitudeDegrees>
            </Position>
            <AltitudeMeters>76.59999847412109375</AltitudeMeters>
            <DistanceMeters>NAN</DistanceMeters>
          </Trackpoint>
          <Trackpoint>
            <Time>2022-07-10T16:15:20.000Z</Time>
            <Position>
              <LatitudeDegrees>43.30479872412979602813720703125</LatitudeDegrees>
              <LongitudeDegrees>-2.362102456390857696533203125</LongitudeDegrees>
            </Position>
            <AltitudeMeters>76.8000030517578125</AltitudeMeters>
            <DistanceMeters>NAN</DistanceMeters>
          </Trackpoint>
          <Trackpoint>
            <Time>2022-07-10T16:15:26.000Z</Time>
            <Position>
              <LatitudeDegrees>43.30485035665333271026611328125</LatitudeDegrees>
              <LongitudeDegrees>-2.3622548393905162811279296875</LongitudeDegrees>
            </Position>
            <AltitudeMeters>77.1999969482421875</AltitudeMeters>
            <DistanceMeters>NAN</DistanceMeters>
          </Trackpoint>
          <Trackpoint>
            <Time>2022-07-10T16:15:28.000Z</Time>
            <Position>
              <LatitudeDegrees>43.3048715628683567047119140625</LatitudeDegrees>
              <LongitudeDegrees>-2.36231342889368534088134765625</LongitudeDegrees>
            </Position>
            <AltitudeMeters>77.40000152587890625</AltitudeMeters>
            <DistanceMeters>NAN</DistanceMeters>
          </Trackpoint>
          <Trackpoint>
            <Time>2022-07-10T16:15:36.000Z</Time>
            <Position>
              <LatitudeDegrees>43.304945491254329681396484375</LatitudeDegrees>
              <LongitudeDegrees>-2.362524904310703277587890625</LongitudeDegrees>
            </Position>
            <AltitudeMeters>78</AltitudeMeters>
            <DistanceMeters>NAN</DistanceMeters>
          </Trackpoint>
          <Trackpoint>
            <Time>2022-07-10T16:15:40.000Z</Time>
            <Position>
              <LatitudeDegrees>43.3049875684082508087158203125</LatitudeDegrees>
              <LongitudeDegrees>-2.3626370541751384735107421875</LongitudeDegrees>
            </Position>
            <AltitudeMeters>78.1999969482421875</AltitudeMeters>
            <DistanceMeters>NAN</DistanceMeters>
          </Trackpoint>
          <Trackpoint>
            <Time>2022-07-10T16:15:45.000Z</Time>
            <Position>
              <LatitudeDegrees>43.30504439771175384521484375</LatitudeDegrees>
              <LongitudeDegrees>-2.3627684824168682098388671875</LongitudeDegrees>
            </Position>
            <AltitudeMeters>78.59999847412109375</AltitudeMeters>
            <DistanceMeters>NAN</DistanceMeters>
          </Trackpoint>
          <Trackpoint>
            <Time>2022-07-10T16:15:52.000Z</Time>
            <Position>
              <LatitudeDegrees>43.30509091727435588836669921875</LatitudeDegrees>
              <LongitudeDegrees>-2.36295363865792751312255859375</LongitudeDegrees>
            </Position>
            <AltitudeMeters>79</AltitudeMeters>
            <DistanceMeters>NAN</DistanceMeters>
          </Trackpoint>
          <Trackpoint>
            <Time>2022-07-10T16:15:54.000Z</Time>
            <Position>
              <LatitudeDegrees>43.30510315485298633575439453125</LatitudeDegrees>
              <LongitudeDegrees>-2.363009043037891387939453125</LongitudeDegrees>
            </Position>
            <AltitudeMeters>79.1999969482421875</AltitudeMeters>
            <DistanceMeters>NAN</DistanceMeters>
          </Trackpoint>
          <Trackpoint>
            <Time>2022-07-10T16:16:01.000Z</Time>
            <Position>
              <LatitudeDegrees>43.30512763001024723052978515625</LatitudeDegrees>
              <LongitudeDegrees>-2.363211549818515777587890625</LongitudeDegrees>
            </Position>
            <AltitudeMeters>79.59999847412109375</AltitudeMeters>
            <DistanceMeters>NAN</DistanceMeters>
          </Trackpoint>
          <Trackpoint>
            <Time>2022-07-10T16:16:10.000Z</Time>
            <Position>
              <LatitudeDegrees>43.30511271022260189056396484375</LatitudeDegrees>
              <LongitudeDegrees>-2.36352109350264072418212890625</LongitudeDegrees>
            </Position>
            <AltitudeMeters>79.8000030517578125</AltitudeMeters>
            <DistanceMeters>NAN</DistanceMeters>
          </Trackpoint>
          <Trackpoint>
            <Time>2022-07-10T16:16:15.000Z</Time>
            <Position>
              <LatitudeDegrees>43.30509527586400508880615234375</LatitudeDegrees>
              <LongitudeDegrees>-2.3637558706104755401611328125</LongitudeDegrees>
            </Position>
            <AltitudeMeters>79.8000030517578125</AltitudeMeters>
            <DistanceMeters>NAN</DistanceMeters>
          </Trackpoint>
          <Trackpoint>
            <Time>2022-07-10T16:16:19.000Z</Time>
            <Position>
              <LatitudeDegrees>43.3050147257745265960693359375</LatitudeDegrees>
              <LongitudeDegrees>-2.3639288730919361114501953125</LongitudeDegrees>
            </Position>
            <AltitudeMeters>79.40000152587890625</AltitudeMeters>
            <DistanceMeters>NAN</DistanceMeters>
          </Trackpoint>
          <Trackpoint>
            <Time>2022-07-10T16:16:20.000Z</Time>
            <Position>
              <LatitudeDegrees>43.30499469302594661712646484375</LatitudeDegrees>
              <LongitudeDegrees>-2.3639721237123012542724609375</LongitudeDegrees>
            </Position>
            <AltitudeMeters>79.1999969482421875</AltitudeMeters>
            <DistanceMeters>NAN</DistanceMeters>
          </Trackpoint>
          <Trackpoint>
            <Time>2022-07-10T16:16:21.000Z</Time>
            <Position>
              <LatitudeDegrees>43.30497558228671550750732421875</LatitudeDegrees>
              <LongitudeDegrees>-2.3640267737209796905517578125</LongitudeDegrees>
            </Position>
            <AltitudeMeters>79.1999969482421875</AltitudeMeters>
            <DistanceMeters>NAN</DistanceMeters>
          </Trackpoint>
          <Trackpoint>
            <Time>2022-07-10T16:16:23.000Z</Time>
            <Position>
              <LatitudeDegrees>43.30494641326367855072021484375</LatitudeDegrees>
              <LongitudeDegrees>-2.36410799436271190643310546875</LongitudeDegrees>
            </Position>
            <AltitudeMeters>79</AltitudeMeters>
            <DistanceMeters>NAN</DistanceMeters>
          </Trackpoint>
          <Trackpoint>
            <Time>2022-07-10T16:16:25.000Z</Time>
            <Position>
              <LatitudeDegrees>43.3049057610332965850830078125</LatitudeDegrees>
              <LongitudeDegrees>-2.364203296601772308349609375</LongitudeDegrees>
            </Position>
            <AltitudeMeters>79</AltitudeMeters>
            <DistanceMeters>NAN</DistanceMeters>
          </Trackpoint>
          <Trackpoint>
            <Time>2022-07-10T16:16:26.000Z</Time>
            <Position>
              <LatitudeDegrees>43.30488489009439945220947265625</LatitudeDegrees>
              <LongitudeDegrees>-2.3642557673156261444091796875</LongitudeDegrees>
            </Position>
            <AltitudeMeters>79</AltitudeMeters>
            <DistanceMeters>NAN</DistanceMeters>
          </Trackpoint>
          <Trackpoint>
            <Time>2022-07-10T16:16:28.000Z</Time>
            <Position>
              <LatitudeDegrees>43.304853625595569610595703125</LatitudeDegrees>
              <LongitudeDegrees>-2.3643684200942516326904296875</LongitudeDegrees>
            </Position>
            <AltitudeMeters>78.8000030517578125</AltitudeMeters>
            <DistanceMeters>NAN</DistanceMeters>
          </Trackpoint>
          <Trackpoint>
            <Time>2022-07-10T16:16:29.000Z</Time>
            <Position>
              <LatitudeDegrees>43.30484381876885890960693359375</LatitudeDegrees>
              <LongitudeDegrees>-2.364428937435150146484375</LongitudeDegrees>
            </Position>
            <AltitudeMeters>78.8000030517578125</AltitudeMeters>
            <DistanceMeters>NAN</DistanceMeters>
          </Trackpoint>
          <Trackpoint>
            <Time>2022-07-10T16:16:33.000Z</Time>
            <Position>
              <LatitudeDegrees>43.30482386983931064605712890625</LatitudeDegrees>
              <LongitudeDegrees>-2.36467494629323482513427734375</LongitudeDegrees>
            </Position>
            <AltitudeMeters>79</AltitudeMeters>
            <DistanceMeters>NAN</DistanceMeters>
          </Trackpoint>
          <Trackpoint>
            <Time>2022-07-10T16:16:36.000Z</Time>
            <Position>
              <LatitudeDegrees>43.30482169054448604583740234375</LatitudeDegrees>
              <LongitudeDegrees>-2.3648532293736934661865234375</LongitudeDegrees>
            </Position>
            <AltitudeMeters>79</AltitudeMeters>
            <DistanceMeters>NAN</DistanceMeters>
          </Trackpoint>
          <Trackpoint>
            <Time>2022-07-10T16:16:41.000Z</Time>
            <Position>
              <LatitudeDegrees>43.304814733564853668212890625</LatitudeDegrees>
              <LongitudeDegrees>-2.36515489406883716583251953125</LongitudeDegrees>
            </Position>
            <AltitudeMeters>79</AltitudeMeters>
            <DistanceMeters>NAN</DistanceMeters>
          </Trackpoint>
          <Trackpoint>
            <Time>2022-07-10T16:16:44.000Z</Time>
            <Position>
              <LatitudeDegrees>43.30480392090976238250732421875</LatitudeDegrees>
              <LongitudeDegrees>-2.36534868367016315460205078125</LongitudeDegrees>
            </Position>
            <AltitudeMeters>79</AltitudeMeters>
            <DistanceMeters>NAN</DistanceMeters>
          </Trackpoint>
          <Trackpoint>
            <Time>2022-07-10T16:16:45.000Z</Time>
            <Position>
              <LatitudeDegrees>43.3047981373965740203857421875</LatitudeDegrees>
              <LongitudeDegrees>-2.365404926240444183349609375</LongitudeDegrees>
            </Position>
            <AltitudeMeters>78.8000030517578125</AltitudeMeters>
            <DistanceMeters>NAN</DistanceMeters>
          </Trackpoint>
          <Trackpoint>
            <Time>2022-07-10T16:16:50.000Z</Time>
            <Position>
              <LatitudeDegrees>43.30478950403630733489990234375</LatitudeDegrees>
              <LongitudeDegrees>-2.3656951077282428741455078125</LongitudeDegrees>
            </Position>
            <AltitudeMeters>78.8000030517578125</AltitudeMeters>
            <DistanceMeters>NAN</DistanceMeters>
          </Trackpoint>
          <Trackpoint>
            <Time>2022-07-10T16:16:54.000Z</Time>
            <Position>
              <LatitudeDegrees>43.3047408051788806915283203125</LatitudeDegrees>
              <LongitudeDegrees>-2.36590071581304073333740234375</LongitudeDegrees>
            </Position>
            <AltitudeMeters>78.59999847412109375</AltitudeMeters>
            <DistanceMeters>NAN</DistanceMeters>
          </Trackpoint>
          <Trackpoint>
            <Time>2022-07-10T16:16:55.000Z</Time>
            <Position>
              <LatitudeDegrees>43.30472781322896480560302734375</LatitudeDegrees>
              <LongitudeDegrees>-2.36596609465777873992919921875</LongitudeDegrees>
            </Position>
            <AltitudeMeters>78.59999847412109375</AltitudeMeters>
            <DistanceMeters>NAN</DistanceMeters>
          </Trackpoint>
          <Trackpoint>
            <Time>2022-07-10T16:16:57.000Z</Time>
            <Position>
              <LatitudeDegrees>43.30472387373447418212890625</LatitudeDegrees>
              <LongitudeDegrees>-2.366076819598674774169921875</LongitudeDegrees>
            </Position>
            <AltitudeMeters>78.59999847412109375</AltitudeMeters>
            <DistanceMeters>NAN</DistanceMeters>
          </Trackpoint>
          <Trackpoint>
            <Time>2022-07-10T16:17:04.000Z</Time>
            <Position>
              <LatitudeDegrees>43.30476670525968074798583984375</LatitudeDegrees>
              <LongitudeDegrees>-2.3664875328540802001953125</LongitudeDegrees>
            </Position>
            <AltitudeMeters>78.59999847412109375</AltitudeMeters>
            <DistanceMeters>NAN</DistanceMeters>
          </Trackpoint>
          <Trackpoint>
            <Time>2022-07-10T16:17:12.000Z</Time>
            <Position>
              <LatitudeDegrees>43.30484868027269840240478515625</LatitudeDegrees>
              <LongitudeDegrees>-2.3668611980974674224853515625</LongitudeDegrees>
            </Position>
            <AltitudeMeters>78.59999847412109375</AltitudeMeters>
            <DistanceMeters>NAN</DistanceMeters>
          </Trackpoint>
          <Trackpoint>
            <Time>2022-07-10T16:17:19.000Z</Time>
            <Position>
              <LatitudeDegrees>43.304932080209255218505859375</LatitudeDegrees>
              <LongitudeDegrees>-2.3671032674610614776611328125</LongitudeDegrees>
            </Position>
            <AltitudeMeters>79.40000152587890625</AltitudeMeters>
            <DistanceMeters>NAN</DistanceMeters>
          </Trackpoint>
          <Trackpoint>
            <Time>2022-07-10T16:17:24.000Z</Time>
            <Position>
              <LatitudeDegrees>43.3049815334379673004150390625</LatitudeDegrees>
              <LongitudeDegrees>-2.3672331869602203369140625</LongitudeDegrees>
            </Position>
            <AltitudeMeters>79.8000030517578125</AltitudeMeters>
            <DistanceMeters>NAN</DistanceMeters>
          </Trackpoint>
          <Trackpoint>
            <Time>2022-07-10T16:17:27.000Z</Time>
            <Position>
              <LatitudeDegrees>43.3050160668790340423583984375</LatitudeDegrees>
              <LongitudeDegrees>-2.3673069477081298828125</LongitudeDegrees>
            </Position>
            <AltitudeMeters>80.40000152587890625</AltitudeMeters>
            <DistanceMeters>NAN</DistanceMeters>
          </Trackpoint>
          <Trackpoint>
            <Time>2022-07-10T16:17:32.000Z</Time>
            <Position>
              <LatitudeDegrees>43.30506895668804645538330078125</LatitudeDegrees>
              <LongitudeDegrees>-2.36742496490478515625</LongitudeDegrees>
            </Position>
            <AltitudeMeters>81.1999969482421875</AltitudeMeters>
            <DistanceMeters>NAN</DistanceMeters>
          </Trackpoint>
          <Trackpoint>
            <Time>2022-07-10T16:17:33.000Z</Time>
            <Position>
              <LatitudeDegrees>43.30507792532444000244140625</LatitudeDegrees>
              <LongitudeDegrees>-2.3674432374536991119384765625</LongitudeDegrees>
            </Position>
            <AltitudeMeters>81.40000152587890625</AltitudeMeters>
            <DistanceMeters>NAN</DistanceMeters>
          </Trackpoint>
          <Trackpoint>
            <Time>2022-07-10T16:17:35.000Z</Time>
            <Position>
              <LatitudeDegrees>43.30510147847235202789306640625</LatitudeDegrees>
              <LongitudeDegrees>-2.367489002645015716552734375</LongitudeDegrees>
            </Position>
            <AltitudeMeters>81.59999847412109375</AltitudeMeters>
            <DistanceMeters>NAN</DistanceMeters>
          </Trackpoint>
          <Trackpoint>
            <Time>2022-07-10T16:17:36.000Z</Time>
            <Position>
              <LatitudeDegrees>43.30511203967034816741943359375</LatitudeDegrees>
              <LongitudeDegrees>-2.3675175011157989501953125</LongitudeDegrees>
            </Position>
            <AltitudeMeters>81.8000030517578125</AltitudeMeters>
            <DistanceMeters>NAN</DistanceMeters>
          </Trackpoint>
          <Trackpoint>
            <Time>2022-07-10T16:17:37.000Z</Time>
            <Position>
              <LatitudeDegrees>43.30512084066867828369140625</LatitudeDegrees>
              <LongitudeDegrees>-2.36754021607339382171630859375</LongitudeDegrees>
            </Position>
            <AltitudeMeters>82</AltitudeMeters>
            <DistanceMeters>NAN</DistanceMeters>
          </Trackpoint>
          <Trackpoint>
            <Time>2022-07-10T16:17:39.000Z</Time>
            <Position>
              <LatitudeDegrees>43.305138610303401947021484375</LatitudeDegrees>
              <LongitudeDegrees>-2.36758396960794925689697265625</LongitudeDegrees>
            </Position>
            <AltitudeMeters>82.1999969482421875</AltitudeMeters>
            <DistanceMeters>NAN</DistanceMeters>
          </Trackpoint>
          <Trackpoint>
            <Time>2022-07-10T16:17:40.000Z</Time>
            <Position>
              <LatitudeDegrees>43.305149339139461517333984375</LatitudeDegrees>
              <LongitudeDegrees>-2.36760534346103668212890625</LongitudeDegrees>
            </Position>
            <AltitudeMeters>82.40000152587890625</AltitudeMeters>
            <DistanceMeters>NAN</DistanceMeters>
          </Trackpoint>
          <Trackpoint>
            <Time>2022-07-10T16:17:43.000Z</Time>
            <Position>
              <LatitudeDegrees>43.3051805198192596435546875</LatitudeDegrees>
              <LongitudeDegrees>-2.367664687335491180419921875</LongitudeDegrees>
            </Position>
            <AltitudeMeters>83</AltitudeMeters>
            <DistanceMeters>NAN</DistanceMeters>
          </Trackpoint>
          <Trackpoint>
            <Time>2022-07-10T16:17:47.000Z</Time>
            <Position>
              <LatitudeDegrees>43.3052212558686733245849609375</LatitudeDegrees>
              <LongitudeDegrees>-2.36775579862296581268310546875</LongitudeDegrees>
            </Position>
            <AltitudeMeters>83.59999847412109375</AltitudeMeters>
            <DistanceMeters>NAN</DistanceMeters>
          </Trackpoint>
          <Trackpoint>
            <Time>2022-07-10T16:17:48.000Z</Time>
            <Position>
              <LatitudeDegrees>43.30523005686700344085693359375</LatitudeDegrees>
              <LongitudeDegrees>-2.36778102815151214599609375</LongitudeDegrees>
            </Position>
            <AltitudeMeters>83.8000030517578125</AltitudeMeters>
            <DistanceMeters>NAN</DistanceMeters>
          </Trackpoint>
          <Trackpoint>
            <Time>2022-07-10T16:17:54.000Z</Time>
            <Position>
              <LatitudeDegrees>43.3053023926913738250732421875</LatitudeDegrees>
              <LongitudeDegrees>-2.367912791669368743896484375</LongitudeDegrees>
            </Position>
            <AltitudeMeters>84.59999847412109375</AltitudeMeters>
            <DistanceMeters>NAN</DistanceMeters>
          </Trackpoint>
          <Trackpoint>
            <Time>2022-07-10T16:17:58.000Z</Time>
            <Position>
              <LatitudeDegrees>43.30534480512142181396484375</LatitudeDegrees>
              <LongitudeDegrees>-2.3679894022643566131591796875</LongitudeDegrees>
            </Position>
            <AltitudeMeters>85.40000152587890625</AltitudeMeters>
            <DistanceMeters>NAN</DistanceMeters>
          </Trackpoint>
          <Trackpoint>
            <Time>2022-07-10T16:18:01.000Z</Time>
            <Position>
              <LatitudeDegrees>43.30537489615380764007568359375</LatitudeDegrees>
              <LongitudeDegrees>-2.368067018687725067138671875</LongitudeDegrees>
            </Position>
            <AltitudeMeters>85.8000030517578125</AltitudeMeters>
            <DistanceMeters>NAN</DistanceMeters>
          </Trackpoint>
          <Trackpoint>
            <Time>2022-07-10T16:18:07.000Z</Time>
            <Position>
              <LatitudeDegrees>43.30543197691440582275390625</LatitudeDegrees>
              <LongitudeDegrees>-2.3682002909481525421142578125</LongitudeDegrees>
            </Position>
            <AltitudeMeters>87</AltitudeMeters>
            <DistanceMeters>NAN</DistanceMeters>
          </Trackpoint>
          <Trackpoint>
            <Time>2022-07-10T16:18:14.000Z</Time>
            <Position>
              <LatitudeDegrees>43.3055082522332668304443359375</LatitudeDegrees>
              <LongitudeDegrees>-2.36836516298353672027587890625</LongitudeDegrees>
            </Position>
            <AltitudeMeters>87.8000030517578125</AltitudeMeters>
            <DistanceMeters>NAN</DistanceMeters>
          </Trackpoint>
          <Trackpoint>
            <Time>2022-07-10T16:18:16.000Z</Time>
            <Position>
              <LatitudeDegrees>43.30552945844829082489013671875</LatitudeDegrees>
              <LongitudeDegrees>-2.36841143108904361724853515625</LongitudeDegrees>
            </Position>
            <AltitudeMeters>88</AltitudeMeters>
            <DistanceMeters>NAN</DistanceMeters>
          </Trackpoint>
          <Trackpoint>
            <Time>2022-07-10T16:18:22.000Z</Time>
            <Position>
              <LatitudeDegrees>43.305594585835933685302734375</LatitudeDegrees>
              <LongitudeDegrees>-2.36853011883795261383056640625</LongitudeDegrees>
            </Position>
            <AltitudeMeters>89</AltitudeMeters>
            <DistanceMeters>NAN</DistanceMeters>
          </Trackpoint>
          <Trackpoint>
            <Time>2022-07-10T16:18:23.000Z</Time>
            <Position>
              <LatitudeDegrees>43.3056034706532955169677734375</LatitudeDegrees>
              <LongitudeDegrees>-2.36855325289070606231689453125</LongitudeDegrees>
            </Position>
            <AltitudeMeters>89.1999969482421875</AltitudeMeters>
            <DistanceMeters>NAN</DistanceMeters>
          </Trackpoint>
          <Trackpoint>
            <Time>2022-07-10T16:18:29.000Z</Time>
            <Position>
              <LatitudeDegrees>43.3056601323187351226806640625</LatitudeDegrees>
              <LongitudeDegrees>-2.36868350766599178314208984375</LongitudeDegrees>
            </Position>
            <AltitudeMeters>90.40000152587890625</AltitudeMeters>
            <DistanceMeters>NAN</DistanceMeters>
          </Trackpoint>
          <Trackpoint>
            <Time>2022-07-10T16:18:34.000Z</Time>
            <Position>
              <LatitudeDegrees>43.30570212565362453460693359375</LatitudeDegrees>
              <LongitudeDegrees>-2.3687923885881900787353515625</LongitudeDegrees>
            </Position>
            <AltitudeMeters>91</AltitudeMeters>
            <DistanceMeters>NAN</DistanceMeters>
          </Trackpoint>
          <Trackpoint>
            <Time>2022-07-10T16:18:37.000Z</Time>
            <Position>
              <LatitudeDegrees>43.3057343959808349609375</LatitudeDegrees>
              <LongitudeDegrees>-2.36884477548301219940185546875</LongitudeDegrees>
            </Position>
            <AltitudeMeters>91.40000152587890625</AltitudeMeters>
            <DistanceMeters>NAN</DistanceMeters>
          </Trackpoint>
          <Trackpoint>
            <Time>2022-07-10T16:18:42.000Z</Time>
            <Position>
              <LatitudeDegrees>43.305783681571483612060546875</LatitudeDegrees>
              <LongitudeDegrees>-2.3689462803304195404052734375</LongitudeDegrees>
            </Position>
            <AltitudeMeters>92</AltitudeMeters>
            <DistanceMeters>NAN</DistanceMeters>
          </Trackpoint>
          <Trackpoint>
            <Time>2022-07-10T16:18:45.000Z</Time>
            <Position>
              <LatitudeDegrees>43.305811844766139984130859375</LatitudeDegrees>
              <LongitudeDegrees>-2.36901752650737762451171875</LongitudeDegrees>
            </Position>
            <AltitudeMeters>92.59999847412109375</AltitudeMeters>
            <DistanceMeters>NAN</DistanceMeters>
          </Trackpoint>
          <Trackpoint>
            <Time>2022-07-10T16:18:51.000Z</Time>
            <Position>
              <LatitudeDegrees>43.30586657859385013580322265625</LatitudeDegrees>
              <LongitudeDegrees>-2.36913478933274745941162109375</LongitudeDegrees>
            </Position>
            <AltitudeMeters>93</AltitudeMeters>
            <DistanceMeters>NAN</DistanceMeters>
          </Trackpoint>
          <Trackpoint>
            <Time>2022-07-10T16:18:56.000Z</Time>
            <Position>
              <LatitudeDegrees>43.30592575483024120330810546875</LatitudeDegrees>
              <LongitudeDegrees>-2.36924056895077228546142578125</LongitudeDegrees>
            </Position>
            <AltitudeMeters>93.59999847412109375</AltitudeMeters>
            <DistanceMeters>NAN</DistanceMeters>
          </Trackpoint>
          <Trackpoint>
            <Time>2022-07-10T16:19:00.000Z</Time>
            <Position>
              <LatitudeDegrees>43.30597990192472934722900390625</LatitudeDegrees>
              <LongitudeDegrees>-2.369338385760784149169921875</LongitudeDegrees>
            </Position>
            <AltitudeMeters>93.8000030517578125</AltitudeMeters>
            <DistanceMeters>NAN</DistanceMeters>
          </Trackpoint>
          <Trackpoint>
            <Time>2022-07-10T16:19:03.000Z</Time>
            <Position>
              <LatitudeDegrees>43.30601401627063751220703125</LatitudeDegrees>
              <LongitudeDegrees>-2.369424887001514434814453125</LongitudeDegrees>
            </Position>
            <AltitudeMeters>94</AltitudeMeters>
            <DistanceMeters>NAN</DistanceMeters>
          </Trackpoint>
          <Trackpoint>
            <Time>2022-07-10T16:19:08.000Z</Time>
            <Position>
              <LatitudeDegrees>43.3061030320823192596435546875</LatitudeDegrees>
              <LongitudeDegrees>-2.36959059722721576690673828125</LongitudeDegrees>
            </Position>
            <AltitudeMeters>94.1999969482421875</AltitudeMeters>
            <DistanceMeters>NAN</DistanceMeters>
          </Trackpoint>
          <Trackpoint>
            <Time>2022-07-10T16:19:13.000Z</Time>
            <Position>
              <LatitudeDegrees>43.30619296990334987640380859375</LatitudeDegrees>
              <LongitudeDegrees>-2.3697325028479099273681640625</LongitudeDegrees>
            </Position>
            <AltitudeMeters>94.59999847412109375</AltitudeMeters>
            <DistanceMeters>NAN</DistanceMeters>
          </Trackpoint>
          <Trackpoint>
            <Time>2022-07-10T16:19:17.000Z</Time>
            <Position>
              <LatitudeDegrees>43.30625851638615131378173828125</LatitudeDegrees>
              <LongitudeDegrees>-2.36984590999782085418701171875</LongitudeDegrees>
            </Position>
            <AltitudeMeters>94.8000030517578125</AltitudeMeters>
            <DistanceMeters>NAN</DistanceMeters>
          </Trackpoint>
          <Trackpoint>
            <Time>2022-07-10T16:19:19.000Z</Time>
            <Position>
              <LatitudeDegrees>43.306288607418537139892578125</LatitudeDegrees>
              <LongitudeDegrees>-2.36990944482386112213134765625</LongitudeDegrees>
            </Position>
            <AltitudeMeters>95</AltitudeMeters>
            <DistanceMeters>NAN</DistanceMeters>
          </Trackpoint>
          <Trackpoint>
            <Time>2022-07-10T16:19:25.000Z</Time>
            <Position>
              <LatitudeDegrees>43.30637586303055286407470703125</LatitudeDegrees>
              <LongitudeDegrees>-2.3701230995357036590576171875</LongitudeDegrees>
            </Position>
            <AltitudeMeters>95.1999969482421875</AltitudeMeters>
            <DistanceMeters>NAN</DistanceMeters>
          </Trackpoint>
          <Trackpoint>
            <Time>2022-07-10T16:19:28.000Z</Time>
            <Position>
              <LatitudeDegrees>43.30642548389732837677001953125</LatitudeDegrees>
              <LongitudeDegrees>-2.3701982013881206512451171875</LongitudeDegrees>
            </Position>
            <AltitudeMeters>95.40000152587890625</AltitudeMeters>
            <DistanceMeters>NAN</DistanceMeters>
          </Trackpoint>
          <Trackpoint>
            <Time>2022-07-10T16:19:29.000Z</Time>
            <Position>
              <LatitudeDegrees>43.30643738619983196258544921875</LatitudeDegrees>
              <LongitudeDegrees>-2.37020163796842098236083984375</LongitudeDegrees>
            </Position>
            <AltitudeMeters>95.40000152587890625</AltitudeMeters>
            <DistanceMeters>NAN</DistanceMeters>
          </Trackpoint>
          <Trackpoint>
            <Time>2022-07-10T16:19:31.000Z</Time>
            <Position>
              <LatitudeDegrees>43.30643738619983196258544921875</LatitudeDegrees>
              <LongitudeDegrees>-2.37020163796842098236083984375</LongitudeDegrees>
            </Position>
            <AltitudeMeters>95.1999969482421875</AltitudeMeters>
            <DistanceMeters>NAN</DistanceMeters>
          </Trackpoint>
          <Trackpoint>
            <Time>2022-07-10T16:21:28.000Z</Time>
            <Position>
              <LatitudeDegrees>43.30645364709198474884033203125</LatitudeDegrees>
              <LongitudeDegrees>-2.37026274204254150390625</LongitudeDegrees>
            </Position>
            <AltitudeMeters>93.1999969482421875</AltitudeMeters>
            <DistanceMeters>NAN</DistanceMeters>
          </Trackpoint>
          <Trackpoint>
            <Time>2022-07-10T16:21:29.000Z</Time>
            <Position>
              <LatitudeDegrees>43.3064641244709491729736328125</LatitudeDegrees>
              <LongitudeDegrees>-2.37028487026691436767578125</LongitudeDegrees>
            </Position>
            <AltitudeMeters>93.1999969482421875</AltitudeMeters>
            <DistanceMeters>NAN</DistanceMeters>
          </Trackpoint>
          <Trackpoint>
            <Time>2022-07-10T16:21:33.000Z</Time>
            <Position>
              <LatitudeDegrees>43.30651651136577129364013671875</LatitudeDegrees>
              <LongitudeDegrees>-2.37043440341949462890625</LongitudeDegrees>
            </Position>
            <AltitudeMeters>93.1999969482421875</AltitudeMeters>
            <DistanceMeters>NAN</DistanceMeters>
          </Trackpoint>
          <Trackpoint>
            <Time>2022-07-10T16:21:38.000Z</Time>
            <Position>
              <LatitudeDegrees>43.30657116137444972991943359375</LatitudeDegrees>
              <LongitudeDegrees>-2.37062743864953517913818359375</LongitudeDegrees>
            </Position>
            <AltitudeMeters>94</AltitudeMeters>
            <DistanceMeters>NAN</DistanceMeters>
          </Trackpoint>
          <Trackpoint>
            <Time>2022-07-10T16:21:41.000Z</Time>
            <Position>
              <LatitudeDegrees>43.30657568760216236114501953125</LatitudeDegrees>
              <LongitudeDegrees>-2.37075266428291797637939453125</LongitudeDegrees>
            </Position>
            <AltitudeMeters>94.1999969482421875</AltitudeMeters>
            <DistanceMeters>NAN</DistanceMeters>
          </Trackpoint>
          <Trackpoint>
            <Time>2022-07-10T16:21:44.000Z</Time>
            <Position>
              <LatitudeDegrees>43.3065908588469028472900390625</LatitudeDegrees>
              <LongitudeDegrees>-2.37084452994167804718017578125</LongitudeDegrees>
            </Position>
            <AltitudeMeters>94.59999847412109375</AltitudeMeters>
            <DistanceMeters>NAN</DistanceMeters>
          </Trackpoint>
          <Trackpoint>
            <Time>2022-07-10T16:21:48.000Z</Time>
            <Position>
              <LatitudeDegrees>43.30665146000683307647705078125</LatitudeDegrees>
              <LongitudeDegrees>-2.3709346354007720947265625</LongitudeDegrees>
            </Position>
            <AltitudeMeters>95</AltitudeMeters>
            <DistanceMeters>NAN</DistanceMeters>
          </Trackpoint>
          <Trackpoint>
            <Time>2022-07-10T16:21:53.000Z</Time>
            <Position>
              <LatitudeDegrees>43.30666906200349330902099609375</LatitudeDegrees>
              <LongitudeDegrees>-2.37108693458139896392822265625</LongitudeDegrees>
            </Position>
            <AltitudeMeters>95.1999969482421875</AltitudeMeters>
            <DistanceMeters>NAN</DistanceMeters>
          </Trackpoint>
          <Trackpoint>
            <Time>2022-07-10T16:21:55.000Z</Time>
            <Position>
              <LatitudeDegrees>43.30665732733905315399169921875</LatitudeDegrees>
              <LongitudeDegrees>-2.3711490444839000701904296875</LongitudeDegrees>
            </Position>
            <AltitudeMeters>95.40000152587890625</AltitudeMeters>
            <DistanceMeters>NAN</DistanceMeters>
          </Trackpoint>
          <Trackpoint>
            <Time>2022-07-10T16:22:00.000Z</Time>
            <Position>
              <LatitudeDegrees>43.30665045417845249176025390625</LatitudeDegrees>
              <LongitudeDegrees>-2.3713374696671962738037109375</LongitudeDegrees>
            </Position>
            <AltitudeMeters>95.8000030517578125</AltitudeMeters>
            <DistanceMeters>NAN</DistanceMeters>
          </Trackpoint>
          <Trackpoint>
            <Time>2022-07-10T16:22:04.000Z</Time>
            <Position>
              <LatitudeDegrees>43.30668062902987003326416015625</LatitudeDegrees>
              <LongitudeDegrees>-2.3714699037373065948486328125</LongitudeDegrees>
            </Position>
            <AltitudeMeters>96.40000152587890625</AltitudeMeters>
            <DistanceMeters>NAN</DistanceMeters>
          </Trackpoint>
          <Trackpoint>
            <Time>2022-07-10T16:22:06.000Z</Time>
            <Position>
              <LatitudeDegrees>43.3066827245056629180908203125</LatitudeDegrees>
              <LongitudeDegrees>-2.37147971056401729583740234375</LongitudeDegrees>
            </Position>
            <AltitudeMeters>96.40000152587890625</AltitudeMeters>
            <DistanceMeters>NAN</DistanceMeters>
          </Trackpoint>
          <Trackpoint>
            <Time>2022-07-10T16:22:07.000Z</Time>
            <Position>
              <LatitudeDegrees>43.3066827245056629180908203125</LatitudeDegrees>
              <LongitudeDegrees>-2.37147971056401729583740234375</LongitudeDegrees>
            </Position>
            <AltitudeMeters>96.40000152587890625</AltitudeMeters>
            <DistanceMeters>NAN</DistanceMeters>
          </Trackpoint>
          <Trackpoint>
            <Time>2022-07-10T16:22:14.000Z</Time>
            <Position>
              <LatitudeDegrees>43.30665984191000461578369140625</LatitudeDegrees>
              <LongitudeDegrees>-2.37137812189757823944091796875</LongitudeDegrees>
            </Position>
            <AltitudeMeters>96.1999969482421875</AltitudeMeters>
            <DistanceMeters>NAN</DistanceMeters>
          </Trackpoint>
          <Trackpoint>
            <Time>2022-07-10T16:22:15.000Z</Time>
            <Position>
              <LatitudeDegrees>43.30665104091167449951171875</LatitudeDegrees>
              <LongitudeDegrees>-2.3713394813239574432373046875</LongitudeDegrees>
            </Position>
            <AltitudeMeters>96</AltitudeMeters>
            <DistanceMeters>NAN</DistanceMeters>
          </Trackpoint>
          <Trackpoint>
            <Time>2022-07-10T16:22:19.000Z</Time>
            <Position>
              <LatitudeDegrees>43.3066066168248653411865234375</LatitudeDegrees>
              <LongitudeDegrees>-2.37121216021478176116943359375</LongitudeDegrees>
            </Position>
            <AltitudeMeters>96</AltitudeMeters>
            <DistanceMeters>NAN</DistanceMeters>
          </Trackpoint>
          <Trackpoint>
            <Time>2022-07-10T16:22:20.000Z</Time>
            <Position>
              <LatitudeDegrees>43.30659295432269573211669921875</LatitudeDegrees>
              <LongitudeDegrees>-2.37121232785284519195556640625</LongitudeDegrees>
            </Position>
            <AltitudeMeters>95.8000030517578125</AltitudeMeters>
            <DistanceMeters>NAN</DistanceMeters>
          </Trackpoint>
          <Trackpoint>
            <Time>2022-07-10T16:22:23.000Z</Time>
            <Position>
              <LatitudeDegrees>43.3065905235707759857177734375</LatitudeDegrees>
              <LongitudeDegrees>-2.37128424458205699920654296875</LongitudeDegrees>
            </Position>
            <AltitudeMeters>95.8000030517578125</AltitudeMeters>
            <DistanceMeters>NAN</DistanceMeters>
          </Trackpoint>
          <Trackpoint>
            <Time>2022-07-10T16:22:31.000Z</Time>
            <Position>
              <LatitudeDegrees>43.30669756047427654266357421875</LatitudeDegrees>
              <LongitudeDegrees>-2.37160828895866870880126953125</LongitudeDegrees>
            </Position>
            <AltitudeMeters>96.59999847412109375</AltitudeMeters>
            <DistanceMeters>NAN</DistanceMeters>
          </Trackpoint>
          <Trackpoint>
            <Time>2022-07-10T16:22:39.000Z</Time>
            <Position>
              <LatitudeDegrees>43.30679328180849552154541015625</LatitudeDegrees>
              <LongitudeDegrees>-2.37191171385347843170166015625</LongitudeDegrees>
            </Position>
            <AltitudeMeters>97.40000152587890625</AltitudeMeters>
            <DistanceMeters>NAN</DistanceMeters>
          </Trackpoint>
          <Trackpoint>
            <Time>2022-07-10T16:22:42.000Z</Time>
            <Position>
              <LatitudeDegrees>43.3068273961544036865234375</LatitudeDegrees>
              <LongitudeDegrees>-2.3720395378768444061279296875</LongitudeDegrees>
            </Position>
            <AltitudeMeters>97.8000030517578125</AltitudeMeters>
            <DistanceMeters>NAN</DistanceMeters>
          </Trackpoint>
          <Trackpoint>
            <Time>2022-07-10T16:22:48.000Z</Time>
            <Position>
              <LatitudeDegrees>43.3068996481597423553466796875</LatitudeDegrees>
              <LongitudeDegrees>-2.3722852952778339385986328125</LongitudeDegrees>
            </Position>
            <AltitudeMeters>98.40000152587890625</AltitudeMeters>
            <DistanceMeters>NAN</DistanceMeters>
          </Trackpoint>
          <Trackpoint>
            <Time>2022-07-10T16:22:53.000Z</Time>
            <Position>
              <LatitudeDegrees>43.30696309916675090789794921875</LatitudeDegrees>
              <LongitudeDegrees>-2.372486293315887451171875</LongitudeDegrees>
            </Position>
            <AltitudeMeters>99</AltitudeMeters>
            <DistanceMeters>NAN</DistanceMeters>
          </Trackpoint>
          <Trackpoint>
            <Time>2022-07-10T16:22:58.000Z</Time>
            <Position>
              <LatitudeDegrees>43.30704222433269023895263671875</LatitudeDegrees>
              <LongitudeDegrees>-2.37270497716963291168212890625</LongitudeDegrees>
            </Position>
            <AltitudeMeters>99.59999847412109375</AltitudeMeters>
            <DistanceMeters>NAN</DistanceMeters>
          </Trackpoint>
          <Trackpoint>
            <Time>2022-07-10T16:23:03.000Z</Time>
            <Position>
              <LatitudeDegrees>43.30709972418844699859619140625</LatitudeDegrees>
              <LongitudeDegrees>-2.372920811176300048828125</LongitudeDegrees>
            </Position>
            <AltitudeMeters>100</AltitudeMeters>
            <DistanceMeters>NAN</DistanceMeters>
          </Trackpoint>
          <Trackpoint>
            <Time>2022-07-10T16:23:32.000Z</Time>
            <Position>
              <LatitudeDegrees>43.30755293369293212890625</LatitudeDegrees>
              <LongitudeDegrees>-2.37413392402231693267822265625</LongitudeDegrees>
            </Position>
            <AltitudeMeters>100.40000152587890625</AltitudeMeters>
            <DistanceMeters>NAN</DistanceMeters>
          </Trackpoint>
          <Trackpoint>
            <Time>2022-07-10T16:23:34.000Z</Time>
            <Position>
              <LatitudeDegrees>43.307525776326656341552734375</LatitudeDegrees>
              <LongitudeDegrees>-2.37423853017389774322509765625</LongitudeDegrees>
            </Position>
            <AltitudeMeters>100.59999847412109375</AltitudeMeters>
            <DistanceMeters>NAN</DistanceMeters>
          </Trackpoint>
          <Trackpoint>
            <Time>2022-07-10T16:23:35.000Z</Time>
            <Position>
              <LatitudeDegrees>43.30753088928759098052978515625</LatitudeDegrees>
              <LongitudeDegrees>-2.3742781765758991241455078125</LongitudeDegrees>
            </Position>
            <AltitudeMeters>100.59999847412109375</AltitudeMeters>
            <DistanceMeters>NAN</DistanceMeters>
          </Trackpoint>
          <Trackpoint>
            <Time>2022-07-10T16:23:40.000Z</Time>
            <Position>
              <LatitudeDegrees>43.30759174190461635589599609375</LatitudeDegrees>
              <LongitudeDegrees>-2.37452921457588672637939453125</LongitudeDegrees>
            </Position>
            <AltitudeMeters>100.59999847412109375</AltitudeMeters>
            <DistanceMeters>NAN</DistanceMeters>
          </Trackpoint>
          <Trackpoint>
            <Time>2022-07-10T16:23:43.000Z</Time>
            <Position>
              <LatitudeDegrees>43.30762309022247791290283203125</LatitudeDegrees>
              <LongitudeDegrees>-2.374680005013942718505859375</LongitudeDegrees>
            </Position>
            <AltitudeMeters>100.8000030517578125</AltitudeMeters>
            <DistanceMeters>NAN</DistanceMeters>
          </Trackpoint>
          <Trackpoint>
            <Time>2022-07-10T16:23:45.000Z</Time>
            <Position>
              <LatitudeDegrees>43.30764077603816986083984375</LatitudeDegrees>
              <LongitudeDegrees>-2.3747889697551727294921875</LongitudeDegrees>
            </Position>
            <AltitudeMeters>100.8000030517578125</AltitudeMeters>
            <DistanceMeters>NAN</DistanceMeters>
          </Trackpoint>
          <Trackpoint>
            <Time>2022-07-10T16:23:48.000Z</Time>
            <Position>
              <LatitudeDegrees>43.30765930004417896270751953125</LatitudeDegrees>
              <LongitudeDegrees>-2.3749611340463161468505859375</LongitudeDegrees>
            </Position>
            <AltitudeMeters>100.8000030517578125</AltitudeMeters>
            <DistanceMeters>NAN</DistanceMeters>
          </Trackpoint>
          <Trackpoint>
            <Time>2022-07-10T16:23:56.000Z</Time>
            <Position>
              <LatitudeDegrees>43.30769215710461139678955078125</LatitudeDegrees>
              <LongitudeDegrees>-2.37545390613377094268798828125</LongitudeDegrees>
            </Position>
            <AltitudeMeters>100.1999969482421875</AltitudeMeters>
            <DistanceMeters>NAN</DistanceMeters>
          </Trackpoint>
          <Trackpoint>
            <Time>2022-07-10T16:24:03.000Z</Time>
            <Position>
              <LatitudeDegrees>43.307706825435161590576171875</LatitudeDegrees>
              <LongitudeDegrees>-2.3758385516703128814697265625</LongitudeDegrees>
            </Position>
            <AltitudeMeters>100</AltitudeMeters>
            <DistanceMeters>NAN</DistanceMeters>
          </Trackpoint>
          <Trackpoint>
            <Time>2022-07-10T16:24:10.000Z</Time>
            <Position>
              <LatitudeDegrees>43.307712189853191375732421875</LatitudeDegrees>
              <LongitudeDegrees>-2.37618832848966121673583984375</LongitudeDegrees>
            </Position>
            <AltitudeMeters>100</AltitudeMeters>
            <DistanceMeters>NAN</DistanceMeters>
          </Trackpoint>
          <Trackpoint>
            <Time>2022-07-10T16:24:18.000Z</Time>
            <Position>
              <LatitudeDegrees>43.30763339996337890625</LatitudeDegrees>
              <LongitudeDegrees>-2.37662686966359615325927734375</LongitudeDegrees>
            </Position>
            <AltitudeMeters>99.59999847412109375</AltitudeMeters>
            <DistanceMeters>NAN</DistanceMeters>
          </Trackpoint>
          <Trackpoint>
            <Time>2022-07-10T16:24:19.000Z</Time>
            <Position>
              <LatitudeDegrees>43.30762091092765331268310546875</LatitudeDegrees>
              <LongitudeDegrees>-2.37669660709798336029052734375</LongitudeDegrees>
            </Position>
            <AltitudeMeters>99.40000152587890625</AltitudeMeters>
            <DistanceMeters>NAN</DistanceMeters>
          </Trackpoint>
          <Trackpoint>
            <Time>2022-07-10T16:24:23.000Z</Time>
            <Position>
              <LatitudeDegrees>43.3075658418238162994384765625</LatitudeDegrees>
              <LongitudeDegrees>-2.37695627845823764801025390625</LongitudeDegrees>
            </Position>
            <AltitudeMeters>99</AltitudeMeters>
            <DistanceMeters>NAN</DistanceMeters>
          </Trackpoint>
          <Trackpoint>
            <Time>2022-07-10T16:24:25.000Z</Time>
            <Position>
              <LatitudeDegrees>43.30753005109727382659912109375</LatitudeDegrees>
              <LongitudeDegrees>-2.37705702893435955047607421875</LongitudeDegrees>
            </Position>
            <AltitudeMeters>98.40000152587890625</AltitudeMeters>
            <DistanceMeters>NAN</DistanceMeters>
          </Trackpoint>
          <Trackpoint>
            <Time>2022-07-10T16:24:26.000Z</Time>
            <Position>
              <LatitudeDegrees>43.3075091801583766937255859375</LatitudeDegrees>
              <LongitudeDegrees>-2.37710572779178619384765625</LongitudeDegrees>
            </Position>
            <AltitudeMeters>98.40000152587890625</AltitudeMeters>
            <DistanceMeters>NAN</DistanceMeters>
          </Trackpoint>
          <Trackpoint>
            <Time>2022-07-10T16:24:27.000Z</Time>
            <Position>
              <LatitudeDegrees>43.30749216489493846893310546875</LatitudeDegrees>
              <LongitudeDegrees>-2.3771561868488788604736328125</LongitudeDegrees>
            </Position>
            <AltitudeMeters>98.1999969482421875</AltitudeMeters>
            <DistanceMeters>NAN</DistanceMeters>
          </Trackpoint>
          <Trackpoint>
            <Time>2022-07-10T16:24:29.000Z</Time>
            <Position>
              <LatitudeDegrees>43.30746517516672611236572265625</LatitudeDegrees>
              <LongitudeDegrees>-2.377266995608806610107421875</LongitudeDegrees>
            </Position>
            <AltitudeMeters>98</AltitudeMeters>
            <DistanceMeters>NAN</DistanceMeters>
          </Trackpoint>
          <Trackpoint>
            <Time>2022-07-10T16:24:31.000Z</Time>
            <Position>
              <LatitudeDegrees>43.3074387721717357635498046875</LatitudeDegrees>
              <LongitudeDegrees>-2.37738023512065410614013671875</LongitudeDegrees>
            </Position>
            <AltitudeMeters>97.8000030517578125</AltitudeMeters>
            <DistanceMeters>NAN</DistanceMeters>
          </Trackpoint>
          <Trackpoint>
            <Time>2022-07-10T16:24:33.000Z</Time>
            <Position>
              <LatitudeDegrees>43.30740474164485931396484375</LatitudeDegrees>
              <LongitudeDegrees>-2.37749573774635791778564453125</LongitudeDegrees>
            </Position>
            <AltitudeMeters>97.8000030517578125</AltitudeMeters>
            <DistanceMeters>NAN</DistanceMeters>
          </Trackpoint>
          <Trackpoint>
            <Time>2022-07-10T16:24:34.000Z</Time>
            <Position>
              <LatitudeDegrees>43.307385630905628204345703125</LatitudeDegrees>
              <LongitudeDegrees>-2.3775555007159709930419921875</LongitudeDegrees>
            </Position>
            <AltitudeMeters>97.59999847412109375</AltitudeMeters>
            <DistanceMeters>NAN</DistanceMeters>
          </Trackpoint>
          <Trackpoint>
            <Time>2022-07-10T16:24:36.000Z</Time>
            <Position>
              <LatitudeDegrees>43.3073557913303375244140625</LatitudeDegrees>
              <LongitudeDegrees>-2.37766521982848644256591796875</LongitudeDegrees>
            </Position>
            <AltitudeMeters>97.59999847412109375</AltitudeMeters>
            <DistanceMeters>NAN</DistanceMeters>
          </Trackpoint>
          <Trackpoint>
            <Time>2022-07-10T16:24:37.000Z</Time>
            <Position>
              <LatitudeDegrees>43.30734841525554656982421875</LatitudeDegrees>
              <LongitudeDegrees>-2.3777067102491855621337890625</LongitudeDegrees>
            </Position>
            <AltitudeMeters>97.40000152587890625</AltitudeMeters>
            <DistanceMeters>NAN</DistanceMeters>
          </Trackpoint>
          <Trackpoint>
            <Time>2022-07-10T16:24:38.000Z</Time>
            <Position>
              <LatitudeDegrees>43.30734447576105594635009765625</LatitudeDegrees>
              <LongitudeDegrees>-2.37773378379642963409423828125</LongitudeDegrees>
            </Position>
            <AltitudeMeters>97</AltitudeMeters>
            <DistanceMeters>NAN</DistanceMeters>
          </Trackpoint>
          <Trackpoint>
            <Time>2022-07-10T16:24:41.000Z</Time>
            <Position>
              <LatitudeDegrees>43.30734430812299251556396484375</LatitudeDegrees>
              <LongitudeDegrees>-2.377743087708950042724609375</LongitudeDegrees>
            </Position>
            <AltitudeMeters>96.59999847412109375</AltitudeMeters>
            <DistanceMeters>NAN</DistanceMeters>
          </Trackpoint>
          <Trackpoint>
            <Time>2022-07-10T16:24:49.000Z</Time>
            <Position>
              <LatitudeDegrees>43.3073103614151477813720703125</LatitudeDegrees>
              <LongitudeDegrees>-2.37783453427255153656005859375</LongitudeDegrees>
            </Position>
            <AltitudeMeters>96.40000152587890625</AltitudeMeters>
            <DistanceMeters>NAN</DistanceMeters>
          </Trackpoint>
          <Trackpoint>
            <Time>2022-07-10T16:24:51.000Z</Time>
            <Position>
              <LatitudeDegrees>43.30729653127491474151611328125</LatitudeDegrees>
              <LongitudeDegrees>-2.37794266082346439361572265625</LongitudeDegrees>
            </Position>
            <AltitudeMeters>96.40000152587890625</AltitudeMeters>
            <DistanceMeters>NAN</DistanceMeters>
          </Trackpoint>
          <Trackpoint>
            <Time>2022-07-10T16:24:53.000Z</Time>
            <Position>
              <LatitudeDegrees>43.30729317851364612579345703125</LatitudeDegrees>
              <LongitudeDegrees>-2.37806503660976886749267578125</LongitudeDegrees>
            </Position>
            <AltitudeMeters>96.59999847412109375</AltitudeMeters>
            <DistanceMeters>NAN</DistanceMeters>
          </Trackpoint>
          <Trackpoint>
            <Time>2022-07-10T16:24:55.000Z</Time>
            <Position>
              <LatitudeDegrees>43.30729116685688495635986328125</LatitudeDegrees>
              <LongitudeDegrees>-2.37818925641477108001708984375</LongitudeDegrees>
            </Position>
            <AltitudeMeters>96.59999847412109375</AltitudeMeters>
            <DistanceMeters>NAN</DistanceMeters>
          </Trackpoint>
          <Trackpoint>
            <Time>2022-07-10T16:24:58.000Z</Time>
            <Position>
              <LatitudeDegrees>43.307292759418487548828125</LatitudeDegrees>
              <LongitudeDegrees>-2.378382794559001922607421875</LongitudeDegrees>
            </Position>
            <AltitudeMeters>96.40000152587890625</AltitudeMeters>
            <DistanceMeters>NAN</DistanceMeters>
          </Trackpoint>
          <Trackpoint>
            <Time>2022-07-10T16:25:00.000Z</Time>
            <Position>
              <LatitudeDegrees>43.3073370158672332763671875</LatitudeDegrees>
              <LongitudeDegrees>-2.3784828744828701019287109375</LongitudeDegrees>
            </Position>
            <AltitudeMeters>96.1999969482421875</AltitudeMeters>
            <DistanceMeters>NAN</DistanceMeters>
          </Trackpoint>
          <Trackpoint>
            <Time>2022-07-10T16:25:02.000Z</Time>
            <Position>
              <LatitudeDegrees>43.307389318943023681640625</LatitudeDegrees>
              <LongitudeDegrees>-2.37857130356132984161376953125</LongitudeDegrees>
            </Position>
            <AltitudeMeters>96</AltitudeMeters>
            <DistanceMeters>NAN</DistanceMeters>
          </Trackpoint>
          <Trackpoint>
            <Time>2022-07-10T16:25:04.000Z</Time>
            <Position>
              <LatitudeDegrees>43.30742192454636096954345703125</LatitudeDegrees>
              <LongitudeDegrees>-2.37866082228720188140869140625</LongitudeDegrees>
            </Position>
            <AltitudeMeters>95.8000030517578125</AltitudeMeters>
            <DistanceMeters>NAN</DistanceMeters>
          </Trackpoint>
          <Trackpoint>
            <Time>2022-07-10T16:25:05.000Z</Time>
            <Position>
              <LatitudeDegrees>43.30743650905787944793701171875</LatitudeDegrees>
              <LongitudeDegrees>-2.37871211953461170196533203125</LongitudeDegrees>
            </Position>
            <AltitudeMeters>95.59999847412109375</AltitudeMeters>
            <DistanceMeters>NAN</DistanceMeters>
          </Trackpoint>
          <Trackpoint>
            <Time>2022-07-10T16:25:06.000Z</Time>
            <Position>
              <LatitudeDegrees>43.30745008774101734161376953125</LatitudeDegrees>
              <LongitudeDegrees>-2.3787651769816875457763671875</LongitudeDegrees>
            </Position>
            <AltitudeMeters>95.59999847412109375</AltitudeMeters>
            <DistanceMeters>NAN</DistanceMeters>
          </Trackpoint>
          <Trackpoint>
            <Time>2022-07-10T16:25:08.000Z</Time>
            <Position>
              <LatitudeDegrees>43.30746282823383808135986328125</LatitudeDegrees>
              <LongitudeDegrees>-2.37887372262775897979736328125</LongitudeDegrees>
            </Position>
            <AltitudeMeters>95.40000152587890625</AltitudeMeters>
            <DistanceMeters>NAN</DistanceMeters>
          </Trackpoint>
          <Trackpoint>
            <Time>2022-07-10T16:25:09.000Z</Time>
            <Position>
              <LatitudeDegrees>43.30746115185320377349853515625</LatitudeDegrees>
              <LongitudeDegrees>-2.37892602570354938507080078125</LongitudeDegrees>
            </Position>
            <AltitudeMeters>95.40000152587890625</AltitudeMeters>
            <DistanceMeters>NAN</DistanceMeters>
          </Trackpoint>
          <Trackpoint>
            <Time>2022-07-10T16:25:11.000Z</Time>
            <Position>
              <LatitudeDegrees>43.3074384368956089019775390625</LatitudeDegrees>
              <LongitudeDegrees>-2.379033900797367095947265625</LongitudeDegrees>
            </Position>
            <AltitudeMeters>95.1999969482421875</AltitudeMeters>
            <DistanceMeters>NAN</DistanceMeters>
          </Trackpoint>
          <Trackpoint>
            <Time>2022-07-10T16:25:14.000Z</Time>
            <Position>
              <LatitudeDegrees>43.3073690347373485565185546875</LatitudeDegrees>
              <LongitudeDegrees>-2.37918083555996417999267578125</LongitudeDegrees>
            </Position>
            <AltitudeMeters>94.8000030517578125</AltitudeMeters>
            <DistanceMeters>NAN</DistanceMeters>
          </Trackpoint>
          <Trackpoint>
            <Time>2022-07-10T16:25:20.000Z</Time>
            <Position>
              <LatitudeDegrees>43.30719561316072940826416015625</LatitudeDegrees>
              <LongitudeDegrees>-2.37945525906980037689208984375</LongitudeDegrees>
            </Position>
            <AltitudeMeters>94</AltitudeMeters>
            <DistanceMeters>NAN</DistanceMeters>
          </Trackpoint>
          <Trackpoint>
            <Time>2022-07-10T16:25:22.000Z</Time>
            <Position>
              <LatitudeDegrees>43.3071380294859409332275390625</LatitudeDegrees>
              <LongitudeDegrees>-2.3795688338577747344970703125</LongitudeDegrees>
            </Position>
            <AltitudeMeters>93.59999847412109375</AltitudeMeters>
            <DistanceMeters>NAN</DistanceMeters>
          </Trackpoint>
          <Trackpoint>
            <Time>2022-07-10T16:25:23.000Z</Time>
            <Position>
              <LatitudeDegrees>43.30711372196674346923828125</LatitudeDegrees>
              <LongitudeDegrees>-2.37963345833122730255126953125</LongitudeDegrees>
            </Position>
            <AltitudeMeters>93.59999847412109375</AltitudeMeters>
            <DistanceMeters>NAN</DistanceMeters>
          </Trackpoint>
          <Trackpoint>
            <Time>2022-07-10T16:25:24.000Z</Time>
            <Position>
              <LatitudeDegrees>43.307089246809482574462890625</LatitudeDegrees>
              <LongitudeDegrees>-2.3797002620995044708251953125</LongitudeDegrees>
            </Position>
            <AltitudeMeters>93.40000152587890625</AltitudeMeters>
            <DistanceMeters>NAN</DistanceMeters>
          </Trackpoint>
          <Trackpoint>
            <Time>2022-07-10T16:25:26.000Z</Time>
            <Position>
              <LatitudeDegrees>43.30705865286290645599365234375</LatitudeDegrees>
              <LongitudeDegrees>-2.37984049133956432342529296875</LongitudeDegrees>
            </Position>
            <AltitudeMeters>93.1999969482421875</AltitudeMeters>
            <DistanceMeters>NAN</DistanceMeters>
          </Trackpoint>
          <Trackpoint>
            <Time>2022-07-10T16:25:28.000Z</Time>
            <Position>
              <LatitudeDegrees>43.3070505224168300628662109375</LatitudeDegrees>
              <LongitudeDegrees>-2.379979379475116729736328125</LongitudeDegrees>
            </Position>
            <AltitudeMeters>93.1999969482421875</AltitudeMeters>
            <DistanceMeters>NAN</DistanceMeters>
          </Trackpoint>
          <Trackpoint>
            <Time>2022-07-10T16:25:30.000Z</Time>
            <Position>
              <LatitudeDegrees>43.30705932341516017913818359375</LatitudeDegrees>
              <LongitudeDegrees>-2.3801077902317047119140625</LongitudeDegrees>
            </Position>
            <AltitudeMeters>93</AltitudeMeters>
            <DistanceMeters>NAN</DistanceMeters>
          </Trackpoint>
          <Trackpoint>
            <Time>2022-07-10T16:25:33.000Z</Time>
            <Position>
              <LatitudeDegrees>43.307085223495960235595703125</LatitudeDegrees>
              <LongitudeDegrees>-2.38028389401733875274658203125</LongitudeDegrees>
            </Position>
            <AltitudeMeters>93</AltitudeMeters>
            <DistanceMeters>NAN</DistanceMeters>
          </Trackpoint>
          <Trackpoint>
            <Time>2022-07-10T16:25:39.000Z</Time>
            <Position>
              <LatitudeDegrees>43.3070468343794345855712890625</LatitudeDegrees>
              <LongitudeDegrees>-2.38064984790980815887451171875</LongitudeDegrees>
            </Position>
            <AltitudeMeters>92.40000152587890625</AltitudeMeters>
            <DistanceMeters>NAN</DistanceMeters>
          </Trackpoint>
          <Trackpoint>
            <Time>2022-07-10T16:25:44.000Z</Time>
            <Position>
              <LatitudeDegrees>43.30697131343185901641845703125</LatitudeDegrees>
              <LongitudeDegrees>-2.3809565417468547821044921875</LongitudeDegrees>
            </Position>
            <AltitudeMeters>91.8000030517578125</AltitudeMeters>
            <DistanceMeters>NAN</DistanceMeters>
          </Trackpoint>
          <Trackpoint>
            <Time>2022-07-10T16:25:47.000Z</Time>
            <Position>
              <LatitudeDegrees>43.30694231204688549041748046875</LatitudeDegrees>
              <LongitudeDegrees>-2.381055615842342376708984375</LongitudeDegrees>
            </Position>
            <AltitudeMeters>91.40000152587890625</AltitudeMeters>
            <DistanceMeters>NAN</DistanceMeters>
          </Trackpoint>
          <Trackpoint>
            <Time>2022-07-10T16:25:51.000Z</Time>
            <Position>
              <LatitudeDegrees>43.3069408871233463287353515625</LatitudeDegrees>
              <LongitudeDegrees>-2.38106274046003818511962890625</LongitudeDegrees>
            </Position>
            <AltitudeMeters>90.8000030517578125</AltitudeMeters>
            <DistanceMeters>NAN</DistanceMeters>
          </Trackpoint>
          <Trackpoint>
            <Time>2022-07-10T16:27:21.000Z</Time>
            <Position>
              <LatitudeDegrees>43.3068996481597423553466796875</LatitudeDegrees>
              <LongitudeDegrees>-2.38114723004400730133056640625</LongitudeDegrees>
            </Position>
            <AltitudeMeters>88.8000030517578125</AltitudeMeters>
            <DistanceMeters>NAN</DistanceMeters>
          </Trackpoint>
          <Trackpoint>
            <Time>2022-07-10T16:27:22.000Z</Time>
            <Position>
              <LatitudeDegrees>43.306885063648223876953125</LatitudeDegrees>
              <LongitudeDegrees>-2.3811831884086132049560546875</LongitudeDegrees>
            </Position>
            <AltitudeMeters>88.8000030517578125</AltitudeMeters>
            <DistanceMeters>NAN</DistanceMeters>
          </Trackpoint>
          <Trackpoint>
            <Time>2022-07-10T16:27:23.000Z</Time>
            <Position>
              <LatitudeDegrees>43.3068751730024814605712890625</LatitudeDegrees>
              <LongitudeDegrees>-2.3812261037528514862060546875</LongitudeDegrees>
            </Position>
            <AltitudeMeters>88.59999847412109375</AltitudeMeters>
            <DistanceMeters>NAN</DistanceMeters>
          </Trackpoint>
          <Trackpoint>
            <Time>2022-07-10T16:27:30.000Z</Time>
            <Position>
              <LatitudeDegrees>43.30677769146859645843505859375</LatitudeDegrees>
              <LongitudeDegrees>-2.3816120065748691558837890625</LongitudeDegrees>
            </Position>
            <AltitudeMeters>88.40000152587890625</AltitudeMeters>
            <DistanceMeters>NAN</DistanceMeters>
          </Trackpoint>
          <Trackpoint>
            <Time>2022-07-10T16:27:33.000Z</Time>
            <Position>
              <LatitudeDegrees>43.30672052688896656036376953125</LatitudeDegrees>
              <LongitudeDegrees>-2.3817843385040760040283203125</LongitudeDegrees>
            </Position>
            <AltitudeMeters>88.1999969482421875</AltitudeMeters>
            <DistanceMeters>NAN</DistanceMeters>
          </Trackpoint>
          <Trackpoint>
            <Time>2022-07-10T16:27:35.000Z</Time>
            <Position>
              <LatitudeDegrees>43.30668297596275806427001953125</LatitudeDegrees>
              <LongitudeDegrees>-2.3819048702716827392578125</LongitudeDegrees>
            </Position>
            <AltitudeMeters>88.1999969482421875</AltitudeMeters>
            <DistanceMeters>NAN</DistanceMeters>
          </Trackpoint>
          <Trackpoint>
            <Time>2022-07-10T16:27:38.000Z</Time>
            <Position>
              <LatitudeDegrees>43.306615166366100311279296875</LatitudeDegrees>
              <LongitudeDegrees>-2.38208550028502941131591796875</LongitudeDegrees>
            </Position>
            <AltitudeMeters>88</AltitudeMeters>
            <DistanceMeters>NAN</DistanceMeters>
          </Trackpoint>
          <Trackpoint>
            <Time>2022-07-10T16:27:40.000Z</Time>
            <Position>
              <LatitudeDegrees>43.30656261183321475982666015625</LatitudeDegrees>
              <LongitudeDegrees>-2.3822124861180782318115234375</LongitudeDegrees>
            </Position>
            <AltitudeMeters>87.8000030517578125</AltitudeMeters>
            <DistanceMeters>NAN</DistanceMeters>
          </Trackpoint>
          <Trackpoint>
            <Time>2022-07-10T16:27:44.000Z</Time>
            <Position>
              <LatitudeDegrees>43.30644710920751094818115234375</LatitudeDegrees>
              <LongitudeDegrees>-2.38249906338751316070556640625</LongitudeDegrees>
            </Position>
            <AltitudeMeters>87</AltitudeMeters>
            <DistanceMeters>NAN</DistanceMeters>
          </Trackpoint>
          <Trackpoint>
            <Time>2022-07-10T16:27:46.000Z</Time>
            <Position>
              <LatitudeDegrees>43.30638416111469268798828125</LatitudeDegrees>
              <LongitudeDegrees>-2.3826510272920131683349609375</LongitudeDegrees>
            </Position>
            <AltitudeMeters>86.59999847412109375</AltitudeMeters>
            <DistanceMeters>NAN</DistanceMeters>
          </Trackpoint>
          <Trackpoint>
            <Time>2022-07-10T16:27:50.000Z</Time>
            <Position>
              <LatitudeDegrees>43.30623253248631954193115234375</LatitudeDegrees>
              <LongitudeDegrees>-2.38295160233974456787109375</LongitudeDegrees>
            </Position>
            <AltitudeMeters>85.40000152587890625</AltitudeMeters>
            <DistanceMeters>NAN</DistanceMeters>
          </Trackpoint>
          <Trackpoint>
            <Time>2022-07-10T16:27:54.000Z</Time>
            <Position>
              <LatitudeDegrees>43.30610244534909725189208984375</LatitudeDegrees>
              <LongitudeDegrees>-2.38324454985558986663818359375</LongitudeDegrees>
            </Position>
            <AltitudeMeters>84.40000152587890625</AltitudeMeters>
            <DistanceMeters>NAN</DistanceMeters>
          </Trackpoint>
          <Trackpoint>
            <Time>2022-07-10T16:27:57.000Z</Time>
            <Position>
              <LatitudeDegrees>43.3060141839087009429931640625</LatitudeDegrees>
              <LongitudeDegrees>-2.38345309160649776458740234375</LongitudeDegrees>
            </Position>
            <AltitudeMeters>83.40000152587890625</AltitudeMeters>
            <DistanceMeters>NAN</DistanceMeters>
          </Trackpoint>
          <Trackpoint>
            <Time>2022-07-10T16:27:59.000Z</Time>
            <Position>
              <LatitudeDegrees>43.305936567485332489013671875</LatitudeDegrees>
              <LongitudeDegrees>-2.383566834032535552978515625</LongitudeDegrees>
            </Position>
            <AltitudeMeters>82.8000030517578125</AltitudeMeters>
            <DistanceMeters>NAN</DistanceMeters>
          </Trackpoint>
          <Trackpoint>
            <Time>2022-07-10T16:28:01.000Z</Time>
            <Position>
              <LatitudeDegrees>43.30584009177982807159423828125</LatitudeDegrees>
              <LongitudeDegrees>-2.38365677185356616973876953125</LongitudeDegrees>
            </Position>
            <AltitudeMeters>82.40000152587890625</AltitudeMeters>
            <DistanceMeters>NAN</DistanceMeters>
          </Trackpoint>
          <Trackpoint>
            <Time>2022-07-10T16:28:05.000Z</Time>
            <Position>
              <LatitudeDegrees>43.30563448369503021240234375</LatitudeDegrees>
              <LongitudeDegrees>-2.38381954841315746307373046875</LongitudeDegrees>
            </Position>
            <AltitudeMeters>81.40000152587890625</AltitudeMeters>
            <DistanceMeters>NAN</DistanceMeters>
          </Trackpoint>
          <Trackpoint>
            <Time>2022-07-10T16:28:06.000Z</Time>
            <Position>
              <LatitudeDegrees>43.30558578483760356903076171875</LatitudeDegrees>
              <LongitudeDegrees>-2.383859865367412567138671875</LongitudeDegrees>
            </Position>
            <AltitudeMeters>81.1999969482421875</AltitudeMeters>
            <DistanceMeters>NAN</DistanceMeters>
          </Trackpoint>
          <Trackpoint>
            <Time>2022-07-10T16:28:07.000Z</Time>
            <Position>
              <LatitudeDegrees>43.30554488115012645721435546875</LatitudeDegrees>
              <LongitudeDegrees>-2.38390512764453887939453125</LongitudeDegrees>
            </Position>
            <AltitudeMeters>81.1999969482421875</AltitudeMeters>
            <DistanceMeters>NAN</DistanceMeters>
          </Trackpoint>
          <Trackpoint>
            <Time>2022-07-10T16:28:08.000Z</Time>
            <Position>
              <LatitudeDegrees>43.3055223338305950164794921875</LatitudeDegrees>
              <LongitudeDegrees>-2.383957095444202423095703125</LongitudeDegrees>
            </Position>
            <AltitudeMeters>81.1999969482421875</AltitudeMeters>
            <DistanceMeters>NAN</DistanceMeters>
          </Trackpoint>
          <Trackpoint>
            <Time>2022-07-10T16:28:09.000Z</Time>
            <Position>
              <LatitudeDegrees>43.30552811734378337860107421875</LatitudeDegrees>
              <LongitudeDegrees>-2.384009063243865966796875</LongitudeDegrees>
            </Position>
            <AltitudeMeters>81.1999969482421875</AltitudeMeters>
            <DistanceMeters>NAN</DistanceMeters>
          </Trackpoint>
          <Trackpoint>
            <Time>2022-07-10T16:28:10.000Z</Time>
            <Position>
              <LatitudeDegrees>43.30555460415780544281005859375</LatitudeDegrees>
              <LongitudeDegrees>-2.3840518109500408172607421875</LongitudeDegrees>
            </Position>
            <AltitudeMeters>81.1999969482421875</AltitudeMeters>
            <DistanceMeters>NAN</DistanceMeters>
          </Trackpoint>
          <Trackpoint>
            <Time>2022-07-10T16:28:14.000Z</Time>
            <Position>
              <LatitudeDegrees>43.30568703822791576385498046875</LatitudeDegrees>
              <LongitudeDegrees>-2.38417871296405792236328125</LongitudeDegrees>
            </Position>
            <AltitudeMeters>80.40000152587890625</AltitudeMeters>
            <DistanceMeters>NAN</DistanceMeters>
          </Trackpoint>
          <Trackpoint>
            <Time>2022-07-10T16:28:15.000Z</Time>
            <Position>
              <LatitudeDegrees>43.3057100884616374969482421875</LatitudeDegrees>
              <LongitudeDegrees>-2.384214587509632110595703125</LongitudeDegrees>
            </Position>
            <AltitudeMeters>79.8000030517578125</AltitudeMeters>
            <DistanceMeters>NAN</DistanceMeters>
          </Trackpoint>
          <Trackpoint>
            <Time>2022-07-10T16:28:16.000Z</Time>
            <Position>
              <LatitudeDegrees>43.30573397688567638397216796875</LatitudeDegrees>
              <LongitudeDegrees>-2.38426144234836101531982421875</LongitudeDegrees>
            </Position>
            <AltitudeMeters>79.40000152587890625</AltitudeMeters>
            <DistanceMeters>NAN</DistanceMeters>
          </Trackpoint>
          <Trackpoint>
            <Time>2022-07-10T16:28:18.000Z</Time>
            <Position>
              <LatitudeDegrees>43.30576633103191852569580078125</LatitudeDegrees>
              <LongitudeDegrees>-2.3843602649867534637451171875</LongitudeDegrees>
            </Position>
            <AltitudeMeters>78.8000030517578125</AltitudeMeters>
            <DistanceMeters>NAN</DistanceMeters>
          </Trackpoint>
          <Trackpoint>
            <Time>2022-07-10T16:28:20.000Z</Time>
            <Position>
              <LatitudeDegrees>43.30579717643558979034423828125</LatitudeDegrees>
              <LongitudeDegrees>-2.38446461968123912811279296875</LongitudeDegrees>
            </Position>
            <AltitudeMeters>78.1999969482421875</AltitudeMeters>
            <DistanceMeters>NAN</DistanceMeters>
          </Trackpoint>
          <Trackpoint>
            <Time>2022-07-10T16:28:22.000Z</Time>
            <Position>
              <LatitudeDegrees>43.3058079890906810760498046875</LatitudeDegrees>
              <LongitudeDegrees>-2.384567297995090484619140625</LongitudeDegrees>
            </Position>
            <AltitudeMeters>77.40000152587890625</AltitudeMeters>
            <DistanceMeters>NAN</DistanceMeters>
          </Trackpoint>
          <Trackpoint>
            <Time>2022-07-10T16:28:26.000Z</Time>
            <Position>
              <LatitudeDegrees>43.30586087889969348907470703125</LatitudeDegrees>
              <LongitudeDegrees>-2.3848177492618560791015625</LongitudeDegrees>
            </Position>
            <AltitudeMeters>76</AltitudeMeters>
            <DistanceMeters>NAN</DistanceMeters>
          </Trackpoint>
          <Trackpoint>
            <Time>2022-07-10T16:28:30.000Z</Time>
            <Position>
              <LatitudeDegrees>43.3059960789978504180908203125</LatitudeDegrees>
              <LongitudeDegrees>-2.38508437760174274444580078125</LongitudeDegrees>
            </Position>
            <AltitudeMeters>75</AltitudeMeters>
            <DistanceMeters>NAN</DistanceMeters>
          </Trackpoint>
          <Trackpoint>
            <Time>2022-07-10T16:28:31.000Z</Time>
            <Position>
              <LatitudeDegrees>43.30602566711604595184326171875</LatitudeDegrees>
              <LongitudeDegrees>-2.3851364292204380035400390625</LongitudeDegrees>
            </Position>
            <AltitudeMeters>74.8000030517578125</AltitudeMeters>
            <DistanceMeters>NAN</DistanceMeters>
          </Trackpoint>
          <Trackpoint>
            <Time>2022-07-10T16:28:32.000Z</Time>
            <Position>
              <LatitudeDegrees>43.306053243577480316162109375</LatitudeDegrees>
              <LongitudeDegrees>-2.38518060185015201568603515625</LongitudeDegrees>
            </Position>
            <AltitudeMeters>74.40000152587890625</AltitudeMeters>
            <DistanceMeters>NAN</DistanceMeters>
          </Trackpoint>
          <Trackpoint>
            <Time>2022-07-10T16:28:36.000Z</Time>
            <Position>
              <LatitudeDegrees>43.3061549998819828033447265625</LatitudeDegrees>
              <LongitudeDegrees>-2.38530792295932769775390625</LongitudeDegrees>
            </Position>
            <AltitudeMeters>73.8000030517578125</AltitudeMeters>
            <DistanceMeters>NAN</DistanceMeters>
          </Trackpoint>
          <Trackpoint>
            <Time>2022-07-10T16:28:41.000Z</Time>
            <Position>
              <LatitudeDegrees>43.30631651915609836578369140625</LatitudeDegrees>
              <LongitudeDegrees>-2.385401464998722076416015625</LongitudeDegrees>
            </Position>
            <AltitudeMeters>73.59999847412109375</AltitudeMeters>
            <DistanceMeters>NAN</DistanceMeters>
          </Trackpoint>
          <Trackpoint>
            <Time>2022-07-10T16:28:47.000Z</Time>
            <Position>
              <LatitudeDegrees>43.30648851580917835235595703125</LatitudeDegrees>
              <LongitudeDegrees>-2.38546726293861865997314453125</LongitudeDegrees>
            </Position>
            <AltitudeMeters>73.59999847412109375</AltitudeMeters>
            <DistanceMeters>NAN</DistanceMeters>
          </Trackpoint>
          <Trackpoint>
            <Time>2022-07-10T16:28:49.000Z</Time>
            <Position>
              <LatitudeDegrees>43.30657862126827239990234375</LatitudeDegrees>
              <LongitudeDegrees>-2.38545946776866912841796875</LongitudeDegrees>
            </Position>
            <AltitudeMeters>73.59999847412109375</AltitudeMeters>
            <DistanceMeters>NAN</DistanceMeters>
          </Trackpoint>
          <Trackpoint>
            <Time>2022-07-10T16:28:54.000Z</Time>
            <Position>
              <LatitudeDegrees>43.3067628554999828338623046875</LatitudeDegrees>
              <LongitudeDegrees>-2.3854319751262664794921875</LongitudeDegrees>
            </Position>
            <AltitudeMeters>73.8000030517578125</AltitudeMeters>
            <DistanceMeters>NAN</DistanceMeters>
          </Trackpoint>
          <Trackpoint>
            <Time>2022-07-10T16:28:59.000Z</Time>
            <Position>
              <LatitudeDegrees>43.30684726126492023468017578125</LatitudeDegrees>
              <LongitudeDegrees>-2.385435998439788818359375</LongitudeDegrees>
            </Position>
            <AltitudeMeters>74</AltitudeMeters>
            <DistanceMeters>NAN</DistanceMeters>
          </Trackpoint>
          <Trackpoint>
            <Time>2022-07-10T16:29:01.000Z</Time>
            <Position>
              <LatitudeDegrees>43.30688078887760639190673828125</LatitudeDegrees>
              <LongitudeDegrees>-2.38553381524980068206787109375</LongitudeDegrees>
            </Position>
            <AltitudeMeters>73.8000030517578125</AltitudeMeters>
            <DistanceMeters>NAN</DistanceMeters>
          </Trackpoint>
          <Trackpoint>
            <Time>2022-07-10T16:29:02.000Z</Time>
            <Position>
              <LatitudeDegrees>43.3068812079727649688720703125</LatitudeDegrees>
              <LongitudeDegrees>-2.3856014572083950042724609375</LongitudeDegrees>
            </Position>
            <AltitudeMeters>73.8000030517578125</AltitudeMeters>
            <DistanceMeters>NAN</DistanceMeters>
          </Trackpoint>
          <Trackpoint>
            <Time>2022-07-10T16:29:05.000Z</Time>
            <Position>
              <LatitudeDegrees>43.30687659792602062225341796875</LatitudeDegrees>
              <LongitudeDegrees>-2.38575878553092479705810546875</LongitudeDegrees>
            </Position>
            <AltitudeMeters>73.59999847412109375</AltitudeMeters>
            <DistanceMeters>NAN</DistanceMeters>
          </Trackpoint>
          <Trackpoint>
            <Time>2022-07-10T16:29:06.000Z</Time>
            <Position>
              <LatitudeDegrees>43.30689269118010997772216796875</LatitudeDegrees>
              <LongitudeDegrees>-2.385826595127582550048828125</LongitudeDegrees>
            </Position>
            <AltitudeMeters>73.40000152587890625</AltitudeMeters>
            <DistanceMeters>NAN</DistanceMeters>
          </Trackpoint>
          <Trackpoint>
            <Time>2022-07-10T16:29:07.000Z</Time>
            <Position>
              <LatitudeDegrees>43.3068999834358692169189453125</LatitudeDegrees>
              <LongitudeDegrees>-2.38586741499602794647216796875</LongitudeDegrees>
            </Position>
            <AltitudeMeters>73.40000152587890625</AltitudeMeters>
            <DistanceMeters>NAN</DistanceMeters>
          </Trackpoint>
          <Trackpoint>
            <Time>2022-07-10T16:29:09.000Z</Time>
            <Position>
              <LatitudeDegrees>43.30683074891567230224609375</LatitudeDegrees>
              <LongitudeDegrees>-2.38595291040837764739990234375</LongitudeDegrees>
            </Position>
            <AltitudeMeters>73</AltitudeMeters>
            <DistanceMeters>NAN</DistanceMeters>
          </Trackpoint>
          <Trackpoint>
            <Time>2022-07-10T16:29:10.000Z</Time>
            <Position>
              <LatitudeDegrees>43.30680803395807743072509765625</LatitudeDegrees>
              <LongitudeDegrees>-2.38598786294460296630859375</LongitudeDegrees>
            </Position>
            <AltitudeMeters>73</AltitudeMeters>
            <DistanceMeters>NAN</DistanceMeters>
          </Trackpoint>
          <Trackpoint>
            <Time>2022-07-10T16:29:11.000Z</Time>
            <Position>
              <LatitudeDegrees>43.306808955967426300048828125</LatitudeDegrees>
              <LongitudeDegrees>-2.38601158373057842254638671875</LongitudeDegrees>
            </Position>
            <AltitudeMeters>72.8000030517578125</AltitudeMeters>
            <DistanceMeters>NAN</DistanceMeters>
          </Trackpoint>
          <Trackpoint>
            <Time>2022-07-10T16:29:13.000Z</Time>
            <Position>
              <LatitudeDegrees>43.3067937009036540985107421875</LatitudeDegrees>
              <LongitudeDegrees>-2.38608333282172679901123046875</LongitudeDegrees>
            </Position>
            <AltitudeMeters>72.1999969482421875</AltitudeMeters>
            <DistanceMeters>NAN</DistanceMeters>
          </Trackpoint>
          <Trackpoint>
            <Time>2022-07-10T16:29:16.000Z</Time>
            <Position>
              <LatitudeDegrees>43.30674701370298862457275390625</LatitudeDegrees>
              <LongitudeDegrees>-2.38613136112689971923828125</LongitudeDegrees>
            </Position>
            <AltitudeMeters>71.8000030517578125</AltitudeMeters>
            <DistanceMeters>NAN</DistanceMeters>
          </Trackpoint>
          <Trackpoint>
            <Time>2022-07-10T16:29:18.000Z</Time>
            <Position>
              <LatitudeDegrees>43.306734524667263031005859375</LatitudeDegrees>
              <LongitudeDegrees>-2.3861855082213878631591796875</LongitudeDegrees>
            </Position>
            <AltitudeMeters>71.59999847412109375</AltitudeMeters>
            <DistanceMeters>NAN</DistanceMeters>
          </Trackpoint>
          <Trackpoint>
            <Time>2022-07-10T16:29:23.000Z</Time>
            <Position>
              <LatitudeDegrees>43.30673444084823131561279296875</LatitudeDegrees>
              <LongitudeDegrees>-2.3861814849078655242919921875</LongitudeDegrees>
            </Position>
            <AltitudeMeters>71.8000030517578125</AltitudeMeters>
            <DistanceMeters>NAN</DistanceMeters>
          </Trackpoint>
          <Trackpoint>
            <Time>2022-07-10T16:29:28.000Z</Time>
            <Position>
              <LatitudeDegrees>43.306737206876277923583984375</LatitudeDegrees>
              <LongitudeDegrees>-2.3861858434975147247314453125</LongitudeDegrees>
            </Position>
            <AltitudeMeters>71.8000030517578125</AltitudeMeters>
            <DistanceMeters>NAN</DistanceMeters>
          </Trackpoint>
          <Trackpoint>
            <Time>2022-07-10T16:29:32.000Z</Time>
            <Position>
              <LatitudeDegrees>43.306737206876277923583984375</LatitudeDegrees>
              <LongitudeDegrees>-2.3861858434975147247314453125</LongitudeDegrees>
            </Position>
            <AltitudeMeters>71.59999847412109375</AltitudeMeters>
            <DistanceMeters>NAN</DistanceMeters>
          </Trackpoint>
          <Trackpoint>
            <Time>2022-07-10T16:29:59.000Z</Time>
            <Position>
              <LatitudeDegrees>43.30678221769630908966064453125</LatitudeDegrees>
              <LongitudeDegrees>-2.3862106539309024810791015625</LongitudeDegrees>
            </Position>
            <AltitudeMeters>73.59999847412109375</AltitudeMeters>
            <DistanceMeters>NAN</DistanceMeters>
          </Trackpoint>
          <Trackpoint>
            <Time>2022-07-10T16:30:01.000Z</Time>
            <Position>
              <LatitudeDegrees>43.30678221769630908966064453125</LatitudeDegrees>
              <LongitudeDegrees>-2.3862106539309024810791015625</LongitudeDegrees>
            </Position>
            <AltitudeMeters>73.8000030517578125</AltitudeMeters>
            <DistanceMeters>NAN</DistanceMeters>
          </Trackpoint>
          <Trackpoint>
            <Time>2022-07-10T16:30:21.000Z</Time>
            <Position>
              <LatitudeDegrees>43.30682546831667423248291015625</LatitudeDegrees>
              <LongitudeDegrees>-2.38623596727848052978515625</LongitudeDegrees>
            </Position>
            <AltitudeMeters>74.8000030517578125</AltitudeMeters>
            <DistanceMeters>NAN</DistanceMeters>
          </Trackpoint>
          <Trackpoint>
            <Time>2022-07-10T16:30:23.000Z</Time>
            <Position>
              <LatitudeDegrees>43.30685765482485294342041015625</LatitudeDegrees>
              <LongitudeDegrees>-2.3862629570066928863525390625</LongitudeDegrees>
            </Position>
            <AltitudeMeters>75.1999969482421875</AltitudeMeters>
            <DistanceMeters>NAN</DistanceMeters>
          </Trackpoint>
          <Trackpoint>
            <Time>2022-07-10T16:30:24.000Z</Time>
            <Position>
              <LatitudeDegrees>43.306861929595470428466796875</LatitudeDegrees>
              <LongitudeDegrees>-2.3863018490374088287353515625</LongitudeDegrees>
            </Position>
            <AltitudeMeters>75.40000152587890625</AltitudeMeters>
            <DistanceMeters>NAN</DistanceMeters>
          </Trackpoint>
          <Trackpoint>
            <Time>2022-07-10T16:30:26.000Z</Time>
            <Position>
              <LatitudeDegrees>43.30688380636274814605712890625</LatitudeDegrees>
              <LongitudeDegrees>-2.38633110187947750091552734375</LongitudeDegrees>
            </Position>
            <AltitudeMeters>75.8000030517578125</AltitudeMeters>
            <DistanceMeters>NAN</DistanceMeters>
          </Trackpoint>
          <Trackpoint>
            <Time>2022-07-10T16:30:27.000Z</Time>
            <Position>
              <LatitudeDegrees>43.30690895207226276397705078125</LatitudeDegrees>
              <LongitudeDegrees>-2.38635675050318241119384765625</LongitudeDegrees>
            </Position>
            <AltitudeMeters>76.1999969482421875</AltitudeMeters>
            <DistanceMeters>NAN</DistanceMeters>
          </Trackpoint>
          <Trackpoint>
            <Time>2022-07-10T16:30:29.000Z</Time>
            <Position>
              <LatitudeDegrees>43.30694742500782012939453125</LatitudeDegrees>
              <LongitudeDegrees>-2.38641374744474887847900390625</LongitudeDegrees>
            </Position>
            <AltitudeMeters>76.8000030517578125</AltitudeMeters>
            <DistanceMeters>NAN</DistanceMeters>
          </Trackpoint>
          <Trackpoint>
            <Time>2022-07-10T16:30:33.000Z</Time>
            <Position>
              <LatitudeDegrees>43.3069891668856143951416015625</LatitudeDegrees>
              <LongitudeDegrees>-2.3864485323429107666015625</LongitudeDegrees>
            </Position>
            <AltitudeMeters>77.8000030517578125</AltitudeMeters>
            <DistanceMeters>NAN</DistanceMeters>
          </Trackpoint>
          <Trackpoint>
            <Time>2022-07-10T16:30:34.000Z</Time>
            <Position>
              <LatitudeDegrees>43.3069963753223419189453125</LatitudeDegrees>
              <LongitudeDegrees>-2.38645548932254314422607421875</LongitudeDegrees>
            </Position>
            <AltitudeMeters>78.1999969482421875</AltitudeMeters>
            <DistanceMeters>NAN</DistanceMeters>
          </Trackpoint>
          <Trackpoint>
            <Time>2022-07-10T16:30:35.000Z</Time>
            <Position>
              <LatitudeDegrees>43.30700534395873546600341796875</LatitudeDegrees>
              <LongitudeDegrees>-2.3864684812724590301513671875</LongitudeDegrees>
            </Position>
            <AltitudeMeters>78.40000152587890625</AltitudeMeters>
            <DistanceMeters>NAN</DistanceMeters>
          </Trackpoint>
          <Trackpoint>
            <Time>2022-07-10T16:30:38.000Z</Time>
            <Position>
              <LatitudeDegrees>43.30705203115940093994140625</LatitudeDegrees>
              <LongitudeDegrees>-2.3865263164043426513671875</LongitudeDegrees>
            </Position>
            <AltitudeMeters>79.1999969482421875</AltitudeMeters>
            <DistanceMeters>NAN</DistanceMeters>
          </Trackpoint>
          <Trackpoint>
            <Time>2022-07-10T16:30:39.000Z</Time>
            <Position>
              <LatitudeDegrees>43.3070609159767627716064453125</LatitudeDegrees>
              <LongitudeDegrees>-2.38654433749616146087646484375</LongitudeDegrees>
            </Position>
            <AltitudeMeters>79.1999969482421875</AltitudeMeters>
            <DistanceMeters>NAN</DistanceMeters>
          </Trackpoint>
          <Trackpoint>
            <Time>2022-07-10T16:30:44.000Z</Time>
            <Position>
              <LatitudeDegrees>43.307161666452884674072265625</LatitudeDegrees>
              <LongitudeDegrees>-2.38659546710550785064697265625</LongitudeDegrees>
            </Position>
            <AltitudeMeters>80.40000152587890625</AltitudeMeters>
            <DistanceMeters>NAN</DistanceMeters>
          </Trackpoint>
          <Trackpoint>
            <Time>2022-07-10T16:30:47.000Z</Time>
            <Position>
              <LatitudeDegrees>43.30719150602817535400390625</LatitudeDegrees>
              <LongitudeDegrees>-2.386573590338230133056640625</LongitudeDegrees>
            </Position>
            <AltitudeMeters>81</AltitudeMeters>
            <DistanceMeters>NAN</DistanceMeters>
          </Trackpoint>
          <Trackpoint>
            <Time>2022-07-10T16:30:49.000Z</Time>
            <Position>
              <LatitudeDegrees>43.30721589736640453338623046875</LatitudeDegrees>
              <LongitudeDegrees>-2.3865730874240398406982421875</LongitudeDegrees>
            </Position>
            <AltitudeMeters>81.59999847412109375</AltitudeMeters>
            <DistanceMeters>NAN</DistanceMeters>
          </Trackpoint>
          <Trackpoint>
            <Time>2022-07-10T16:30:52.000Z</Time>
            <Position>
              <LatitudeDegrees>43.3071457408368587493896484375</LatitudeDegrees>
              <LongitudeDegrees>-2.38671717233955860137939453125</LongitudeDegrees>
            </Position>
            <AltitudeMeters>82.40000152587890625</AltitudeMeters>
            <DistanceMeters>NAN</DistanceMeters>
          </Trackpoint>
          <Trackpoint>
            <Time>2022-07-10T16:30:53.000Z</Time>
            <Position>
              <LatitudeDegrees>43.3071259595453739166259765625</LatitudeDegrees>
              <LongitudeDegrees>-2.38676696084439754486083984375</LongitudeDegrees>
            </Position>
            <AltitudeMeters>82.59999847412109375</AltitudeMeters>
            <DistanceMeters>NAN</DistanceMeters>
          </Trackpoint>
          <Trackpoint>
            <Time>2022-07-10T16:30:54.000Z</Time>
            <Position>
              <LatitudeDegrees>43.307124115526676177978515625</LatitudeDegrees>
              <LongitudeDegrees>-2.38676327280700206756591796875</LongitudeDegrees>
            </Position>
            <AltitudeMeters>83</AltitudeMeters>
            <DistanceMeters>NAN</DistanceMeters>
          </Trackpoint>
          <Trackpoint>
            <Time>2022-07-10T16:30:55.000Z</Time>
            <Position>
              <LatitudeDegrees>43.30712537281215190887451171875</LatitudeDegrees>
              <LongitudeDegrees>-2.3867719061672687530517578125</LongitudeDegrees>
            </Position>
            <AltitudeMeters>83</AltitudeMeters>
            <DistanceMeters>NAN</DistanceMeters>
          </Trackpoint>
          <Trackpoint>
            <Time>2022-07-10T16:30:56.000Z</Time>
            <Position>
              <LatitudeDegrees>43.30711833201348781585693359375</LatitudeDegrees>
              <LongitudeDegrees>-2.38678875379264354705810546875</LongitudeDegrees>
            </Position>
            <AltitudeMeters>83.1999969482421875</AltitudeMeters>
            <DistanceMeters>NAN</DistanceMeters>
          </Trackpoint>
          <Trackpoint>
            <Time>2022-07-10T16:30:58.000Z</Time>
            <Position>
              <LatitudeDegrees>43.30710609443485736846923828125</LatitudeDegrees>
              <LongitudeDegrees>-2.38681339658796787261962890625</LongitudeDegrees>
            </Position>
            <AltitudeMeters>83.59999847412109375</AltitudeMeters>
            <DistanceMeters>NAN</DistanceMeters>
          </Trackpoint>
          <Trackpoint>
            <Time>2022-07-10T16:30:59.000Z</Time>
            <Position>
              <LatitudeDegrees>43.30710726790130138397216796875</LatitudeDegrees>
              <LongitudeDegrees>-2.386793531477451324462890625</LongitudeDegrees>
            </Position>
            <AltitudeMeters>83.59999847412109375</AltitudeMeters>
            <DistanceMeters>NAN</DistanceMeters>
          </Trackpoint>
          <Trackpoint>
            <Time>2022-07-10T16:31:00.000Z</Time>
            <Position>
              <LatitudeDegrees>43.307094611227512359619140625</LatitudeDegrees>
              <LongitudeDegrees>-2.38677182234823703765869140625</LongitudeDegrees>
            </Position>
            <AltitudeMeters>83.8000030517578125</AltitudeMeters>
            <DistanceMeters>NAN</DistanceMeters>
          </Trackpoint>
          <Trackpoint>
            <Time>2022-07-10T16:31:01.000Z</Time>
            <Position>
              <LatitudeDegrees>43.30709201283752918243408203125</LatitudeDegrees>
              <LongitudeDegrees>-2.38676746375858783721923828125</LongitudeDegrees>
            </Position>
            <AltitudeMeters>83.8000030517578125</AltitudeMeters>
            <DistanceMeters>NAN</DistanceMeters>
          </Trackpoint>
          <Trackpoint>
            <Time>2022-07-10T16:31:04.000Z</Time>
            <Position>
              <LatitudeDegrees>43.30706141889095306396484375</LatitudeDegrees>
              <LongitudeDegrees>-2.38678582012653350830078125</LongitudeDegrees>
            </Position>
            <AltitudeMeters>84</AltitudeMeters>
            <DistanceMeters>NAN</DistanceMeters>
          </Trackpoint>
          <Trackpoint>
            <Time>2022-07-10T16:31:06.000Z</Time>
            <Position>
              <LatitudeDegrees>43.30704004503786563873291015625</LatitudeDegrees>
              <LongitudeDegrees>-2.38677869550883769989013671875</LongitudeDegrees>
            </Position>
            <AltitudeMeters>84</AltitudeMeters>
            <DistanceMeters>NAN</DistanceMeters>
          </Trackpoint>
          <Trackpoint>
            <Time>2022-07-10T16:31:09.000Z</Time>
            <Position>
              <LatitudeDegrees>43.30703317187726497650146484375</LatitudeDegrees>
              <LongitudeDegrees>-2.38679814152419567108154296875</LongitudeDegrees>
            </Position>
            <AltitudeMeters>84.1999969482421875</AltitudeMeters>
            <DistanceMeters>NAN</DistanceMeters>
          </Trackpoint>
          <Trackpoint>
            <Time>2022-07-10T16:31:12.000Z</Time>
            <Position>
              <LatitudeDegrees>43.3070508576929569244384765625</LatitudeDegrees>
              <LongitudeDegrees>-2.38682873547077178955078125</LongitudeDegrees>
            </Position>
            <AltitudeMeters>84.8000030517578125</AltitudeMeters>
            <DistanceMeters>NAN</DistanceMeters>
          </Trackpoint>
          <Trackpoint>
            <Time>2022-07-10T16:31:14.000Z</Time>
            <Position>
              <LatitudeDegrees>43.3070723153650760650634765625</LatitudeDegrees>
              <LongitudeDegrees>-2.38691515289247035980224609375</LongitudeDegrees>
            </Position>
            <AltitudeMeters>85</AltitudeMeters>
            <DistanceMeters>NAN</DistanceMeters>
          </Trackpoint>
          <Trackpoint>
            <Time>2022-07-10T16:31:15.000Z</Time>
            <Position>
              <LatitudeDegrees>43.30707893706858158111572265625</LatitudeDegrees>
              <LongitudeDegrees>-2.3869465850293636322021484375</LongitudeDegrees>
            </Position>
            <AltitudeMeters>85.1999969482421875</AltitudeMeters>
            <DistanceMeters>NAN</DistanceMeters>
          </Trackpoint>
          <Trackpoint>
            <Time>2022-07-10T16:31:17.000Z</Time>
            <Position>
              <LatitudeDegrees>43.30708849243819713592529296875</LatitudeDegrees>
              <LongitudeDegrees>-2.387008108198642730712890625</LongitudeDegrees>
            </Position>
            <AltitudeMeters>85.40000152587890625</AltitudeMeters>
            <DistanceMeters>NAN</DistanceMeters>
          </Trackpoint>
          <Trackpoint>
            <Time>2022-07-10T16:31:19.000Z</Time>
            <Position>
              <LatitudeDegrees>43.30709771253168582916259765625</LatitudeDegrees>
              <LongitudeDegrees>-2.38707776181399822235107421875</LongitudeDegrees>
            </Position>
            <AltitudeMeters>85.59999847412109375</AltitudeMeters>
            <DistanceMeters>NAN</DistanceMeters>
          </Trackpoint>
          <Trackpoint>
            <Time>2022-07-10T16:31:21.000Z</Time>
            <Position>
              <LatitudeDegrees>43.30711313523352146148681640625</LatitudeDegrees>
              <LongitudeDegrees>-2.3871222697198390960693359375</LongitudeDegrees>
            </Position>
            <AltitudeMeters>85.8000030517578125</AltitudeMeters>
            <DistanceMeters>NAN</DistanceMeters>
          </Trackpoint>
          <Trackpoint>
            <Time>2022-07-10T16:31:23.000Z</Time>
            <Position>
              <LatitudeDegrees>43.3071115426719188690185546875</LatitudeDegrees>
              <LongitudeDegrees>-2.38712620921432971954345703125</LongitudeDegrees>
            </Position>
            <AltitudeMeters>86.40000152587890625</AltitudeMeters>
            <DistanceMeters>NAN</DistanceMeters>
          </Trackpoint>
          <Trackpoint>
            <Time>2022-07-10T16:31:24.000Z</Time>
            <Position>
              <LatitudeDegrees>43.3071115426719188690185546875</LatitudeDegrees>
              <LongitudeDegrees>-2.38712620921432971954345703125</LongitudeDegrees>
            </Position>
            <AltitudeMeters>86.59999847412109375</AltitudeMeters>
            <DistanceMeters>NAN</DistanceMeters>
          </Trackpoint>
          <Trackpoint>
            <Time>2022-07-10T16:31:25.000Z</Time>
            <Position>
              <LatitudeDegrees>43.3071115426719188690185546875</LatitudeDegrees>
              <LongitudeDegrees>-2.38712620921432971954345703125</LongitudeDegrees>
            </Position>
            <AltitudeMeters>86.8000030517578125</AltitudeMeters>
            <DistanceMeters>NAN</DistanceMeters>
          </Trackpoint>
          <Trackpoint>
            <Time>2022-07-10T16:31:45.000Z</Time>
            <Position>
              <LatitudeDegrees>43.3070931024849414825439453125</LatitudeDegrees>
              <LongitudeDegrees>-2.38714766688644886016845703125</LongitudeDegrees>
            </Position>
            <AltitudeMeters>87.1999969482421875</AltitudeMeters>
            <DistanceMeters>NAN</DistanceMeters>
          </Trackpoint>
          <Trackpoint>
            <Time>2022-07-10T16:31:47.000Z</Time>
            <Position>
              <LatitudeDegrees>43.307064436376094818115234375</LatitudeDegrees>
              <LongitudeDegrees>-2.38715772517025470733642578125</LongitudeDegrees>
            </Position>
            <AltitudeMeters>87.59999847412109375</AltitudeMeters>
            <DistanceMeters>NAN</DistanceMeters>
          </Trackpoint>
          <Trackpoint>
            <Time>2022-07-10T16:31:48.000Z</Time>
            <Position>
              <LatitudeDegrees>43.30704800784587860107421875</LatitudeDegrees>
              <LongitudeDegrees>-2.38716476596891880035400390625</LongitudeDegrees>
            </Position>
            <AltitudeMeters>87.8000030517578125</AltitudeMeters>
            <DistanceMeters>NAN</DistanceMeters>
          </Trackpoint>
          <Trackpoint>
            <Time>2022-07-10T16:31:49.000Z</Time>
            <Position>
              <LatitudeDegrees>43.3070418052375316619873046875</LatitudeDegrees>
              <LongitudeDegrees>-2.3871702142059803009033203125</LongitudeDegrees>
            </Position>
            <AltitudeMeters>88.1999969482421875</AltitudeMeters>
            <DistanceMeters>NAN</DistanceMeters>
          </Trackpoint>
          <Trackpoint>
            <Time>2022-07-10T16:31:50.000Z</Time>
            <Position>
              <LatitudeDegrees>43.30704071559011936187744140625</LatitudeDegrees>
              <LongitudeDegrees>-2.38717247731983661651611328125</LongitudeDegrees>
            </Position>
            <AltitudeMeters>88.40000152587890625</AltitudeMeters>
            <DistanceMeters>NAN</DistanceMeters>
          </Trackpoint>
          <Trackpoint>
            <Time>2022-07-10T16:31:52.000Z</Time>
            <Position>
              <LatitudeDegrees>43.30704239197075366973876953125</LatitudeDegrees>
              <LongitudeDegrees>-2.38718957640230655670166015625</LongitudeDegrees>
            </Position>
            <AltitudeMeters>88.8000030517578125</AltitudeMeters>
            <DistanceMeters>NAN</DistanceMeters>
          </Trackpoint>
          <Trackpoint>
            <Time>2022-07-10T16:31:55.000Z</Time>
            <Position>
              <LatitudeDegrees>43.307053036987781524658203125</LatitudeDegrees>
              <LongitudeDegrees>-2.38719225861132144927978515625</LongitudeDegrees>
            </Position>
            <AltitudeMeters>89.40000152587890625</AltitudeMeters>
            <DistanceMeters>NAN</DistanceMeters>
          </Trackpoint>
          <Trackpoint>
            <Time>2022-07-10T16:31:57.000Z</Time>
            <Position>
              <LatitudeDegrees>43.3070937730371952056884765625</LatitudeDegrees>
              <LongitudeDegrees>-2.38719896413385868072509765625</LongitudeDegrees>
            </Position>
            <AltitudeMeters>89.8000030517578125</AltitudeMeters>
            <DistanceMeters>NAN</DistanceMeters>
          </Trackpoint>
          <Trackpoint>
            <Time>2022-07-10T16:32:00.000Z</Time>
            <Position>
              <LatitudeDegrees>43.30714364536106586456298828125</LatitudeDegrees>
              <LongitudeDegrees>-2.38716761581599712371826171875</LongitudeDegrees>
            </Position>
            <AltitudeMeters>90.40000152587890625</AltitudeMeters>
            <DistanceMeters>NAN</DistanceMeters>
          </Trackpoint>
          <Trackpoint>
            <Time>2022-07-10T16:32:01.000Z</Time>
            <Position>
              <LatitudeDegrees>43.30717650242149829864501953125</LatitudeDegrees>
              <LongitudeDegrees>-2.3871809430420398712158203125</LongitudeDegrees>
            </Position>
            <AltitudeMeters>90.59999847412109375</AltitudeMeters>
            <DistanceMeters>NAN</DistanceMeters>
          </Trackpoint>
          <Trackpoint>
            <Time>2022-07-10T16:32:02.000Z</Time>
            <Position>
              <LatitudeDegrees>43.30719418823719024658203125</LatitudeDegrees>
              <LongitudeDegrees>-2.38718639127910137176513671875</LongitudeDegrees>
            </Position>
            <AltitudeMeters>90.8000030517578125</AltitudeMeters>
            <DistanceMeters>NAN</DistanceMeters>
          </Trackpoint>
          <Trackpoint>
            <Time>2022-07-10T16:32:06.000Z</Time>
            <Position>
              <LatitudeDegrees>43.30725696869194507598876953125</LatitudeDegrees>
              <LongitudeDegrees>-2.38718437962234020233154296875</LongitudeDegrees>
            </Position>
            <AltitudeMeters>91.59999847412109375</AltitudeMeters>
            <DistanceMeters>NAN</DistanceMeters>
          </Trackpoint>
          <Trackpoint>
            <Time>2022-07-10T16:32:09.000Z</Time>
            <Position>
              <LatitudeDegrees>43.30733424983918666839599609375</LatitudeDegrees>
              <LongitudeDegrees>-2.3872590623795986175537109375</LongitudeDegrees>
            </Position>
            <AltitudeMeters>92</AltitudeMeters>
            <DistanceMeters>NAN</DistanceMeters>
          </Trackpoint>
          <Trackpoint>
            <Time>2022-07-10T16:32:11.000Z</Time>
            <Position>
              <LatitudeDegrees>43.30735185183584690093994140625</LatitudeDegrees>
              <LongitudeDegrees>-2.38729150034487247467041015625</LongitudeDegrees>
            </Position>
            <AltitudeMeters>92.1999969482421875</AltitudeMeters>
            <DistanceMeters>NAN</DistanceMeters>
          </Trackpoint>
          <Trackpoint>
            <Time>2022-07-10T16:32:14.000Z</Time>
            <Position>
              <LatitudeDegrees>43.30736962147057056427001953125</LatitudeDegrees>
              <LongitudeDegrees>-2.38723299466073513031005859375</LongitudeDegrees>
            </Position>
            <AltitudeMeters>92.1999969482421875</AltitudeMeters>
            <DistanceMeters>NAN</DistanceMeters>
          </Trackpoint>
          <Trackpoint>
            <Time>2022-07-10T16:32:21.000Z</Time>
            <Position>
              <LatitudeDegrees>43.3074370957911014556884765625</LatitudeDegrees>
              <LongitudeDegrees>-2.3871319927275180816650390625</LongitudeDegrees>
            </Position>
            <AltitudeMeters>91.1999969482421875</AltitudeMeters>
            <DistanceMeters>NAN</DistanceMeters>
          </Trackpoint>
          <Trackpoint>
            <Time>2022-07-10T16:32:27.000Z</Time>
            <Position>
              <LatitudeDegrees>43.30746173858642578125</LatitudeDegrees>
              <LongitudeDegrees>-2.38707256503403186798095703125</LongitudeDegrees>
            </Position>
            <AltitudeMeters>90.8000030517578125</AltitudeMeters>
            <DistanceMeters>NAN</DistanceMeters>
          </Trackpoint>
          <Trackpoint>
            <Time>2022-07-10T16:32:28.000Z</Time>
            <Position>
              <LatitudeDegrees>43.3074709586799144744873046875</LatitudeDegrees>
              <LongitudeDegrees>-2.38706250675022602081298828125</LongitudeDegrees>
            </Position>
            <AltitudeMeters>90.8000030517578125</AltitudeMeters>
            <DistanceMeters>NAN</DistanceMeters>
          </Trackpoint>
          <Trackpoint>
            <Time>2022-07-10T16:32:34.000Z</Time>
            <Position>
              <LatitudeDegrees>43.3075366728007793426513671875</LatitudeDegrees>
              <LongitudeDegrees>-2.3869874887168407440185546875</LongitudeDegrees>
            </Position>
            <AltitudeMeters>90.8000030517578125</AltitudeMeters>
            <DistanceMeters>NAN</DistanceMeters>
          </Trackpoint>
          <Trackpoint>
            <Time>2022-07-10T16:32:38.000Z</Time>
            <Position>
              <LatitudeDegrees>43.3075876347720623016357421875</LatitudeDegrees>
              <LongitudeDegrees>-2.3869539611041545867919921875</LongitudeDegrees>
            </Position>
            <AltitudeMeters>90.8000030517578125</AltitudeMeters>
            <DistanceMeters>NAN</DistanceMeters>
          </Trackpoint>
          <Trackpoint>
            <Time>2022-07-10T16:32:39.000Z</Time>
            <Position>
              <LatitudeDegrees>43.3076007105410099029541015625</LatitudeDegrees>
              <LongitudeDegrees>-2.38694549538195133209228515625</LongitudeDegrees>
            </Position>
            <AltitudeMeters>90.8000030517578125</AltitudeMeters>
            <DistanceMeters>NAN</DistanceMeters>
          </Trackpoint>
          <Trackpoint>
            <Time>2022-07-10T16:32:45.000Z</Time>
            <Position>
              <LatitudeDegrees>43.30761370249092578887939453125</LatitudeDegrees>
              <LongitudeDegrees>-2.3869492672383785247802734375</LongitudeDegrees>
            </Position>
            <AltitudeMeters>90.8000030517578125</AltitudeMeters>
            <DistanceMeters>NAN</DistanceMeters>
          </Trackpoint>
          <Trackpoint>
            <Time>2022-07-10T16:32:48.000Z</Time>
            <Position>
              <LatitudeDegrees>43.3075427077710628509521484375</LatitudeDegrees>
              <LongitudeDegrees>-2.3870176635682582855224609375</LongitudeDegrees>
            </Position>
            <AltitudeMeters>91</AltitudeMeters>
            <DistanceMeters>NAN</DistanceMeters>
          </Trackpoint>
          <Trackpoint>
            <Time>2022-07-10T16:32:49.000Z</Time>
            <Position>
              <LatitudeDegrees>43.30753776244819164276123046875</LatitudeDegrees>
              <LongitudeDegrees>-2.38702931441366672515869140625</LongitudeDegrees>
            </Position>
            <AltitudeMeters>91.1999969482421875</AltitudeMeters>
            <DistanceMeters>NAN</DistanceMeters>
          </Trackpoint>
          <Trackpoint>
            <Time>2022-07-10T16:32:50.000Z</Time>
            <Position>
              <LatitudeDegrees>43.30752653069794178009033203125</LatitudeDegrees>
              <LongitudeDegrees>-2.3870039172470569610595703125</LongitudeDegrees>
            </Position>
            <AltitudeMeters>91.1999969482421875</AltitudeMeters>
            <DistanceMeters>NAN</DistanceMeters>
          </Trackpoint>
          <Trackpoint>
            <Time>2022-07-10T16:32:54.000Z</Time>
            <Position>
              <LatitudeDegrees>43.30759107135236263275146484375</LatitudeDegrees>
              <LongitudeDegrees>-2.3869958706200122833251953125</LongitudeDegrees>
            </Position>
            <AltitudeMeters>91</AltitudeMeters>
            <DistanceMeters>NAN</DistanceMeters>
          </Trackpoint>
          <Trackpoint>
            <Time>2022-07-10T16:32:55.000Z</Time>
            <Position>
              <LatitudeDegrees>43.30762929283082485198974609375</LatitudeDegrees>
              <LongitudeDegrees>-2.38701439462602138519287109375</LongitudeDegrees>
            </Position>
            <AltitudeMeters>91.1999969482421875</AltitudeMeters>
            <DistanceMeters>NAN</DistanceMeters>
          </Trackpoint>
          <Trackpoint>
            <Time>2022-07-10T16:32:59.000Z</Time>
            <Position>
              <LatitudeDegrees>43.3075075037777423858642578125</LatitudeDegrees>
              <LongitudeDegrees>-2.38693946041166782379150390625</LongitudeDegrees>
            </Position>
            <AltitudeMeters>91.1999969482421875</AltitudeMeters>
            <DistanceMeters>NAN</DistanceMeters>
          </Trackpoint>
          <Trackpoint>
            <Time>2022-07-10T16:33:01.000Z</Time>
            <Position>
              <LatitudeDegrees>43.307397700846195220947265625</LatitudeDegrees>
              <LongitudeDegrees>-2.38691079430282115936279296875</LongitudeDegrees>
            </Position>
            <AltitudeMeters>91.1999969482421875</AltitudeMeters>
            <DistanceMeters>NAN</DistanceMeters>
          </Trackpoint>
          <Trackpoint>
            <Time>2022-07-10T16:47:59.000Z</Time>
            <Position>
              <LatitudeDegrees>43.30758637748658657073974609375</LatitudeDegrees>
              <LongitudeDegrees>-2.38709066994488239288330078125</LongitudeDegrees>
            </Position>
            <AltitudeMeters>92.1999969482421875</AltitudeMeters>
            <DistanceMeters>NAN</DistanceMeters>
          </Trackpoint>
          <Trackpoint>
            <Time>2022-07-10T16:48:00.000Z</Time>
            <Position>
              <LatitudeDegrees>43.30760230310261249542236328125</LatitudeDegrees>
              <LongitudeDegrees>-2.3870991356670856475830078125</LongitudeDegrees>
            </Position>
            <AltitudeMeters>92.1999969482421875</AltitudeMeters>
            <DistanceMeters>NAN</DistanceMeters>
          </Trackpoint>
          <Trackpoint>
            <Time>2022-07-10T16:48:02.000Z</Time>
            <Position>
              <LatitudeDegrees>43.3076248504221439361572265625</LatitudeDegrees>
              <LongitudeDegrees>-2.387099303305149078369140625</LongitudeDegrees>
            </Position>
            <AltitudeMeters>92.8000030517578125</AltitudeMeters>
            <DistanceMeters>NAN</DistanceMeters>
          </Trackpoint>
          <Trackpoint>
            <Time>2022-07-10T16:48:03.000Z</Time>
            <Position>
              <LatitudeDegrees>43.30762610770761966705322265625</LatitudeDegrees>
              <LongitudeDegrees>-2.38709268160164356231689453125</LongitudeDegrees>
            </Position>
            <AltitudeMeters>93</AltitudeMeters>
            <DistanceMeters>NAN</DistanceMeters>
          </Trackpoint>
          <Trackpoint>
            <Time>2022-07-10T16:48:04.000Z</Time>
            <Position>
              <LatitudeDegrees>43.30762560479342937469482421875</LatitudeDegrees>
              <LongitudeDegrees>-2.38708228804171085357666015625</LongitudeDegrees>
            </Position>
            <AltitudeMeters>93.40000152587890625</AltitudeMeters>
            <DistanceMeters>NAN</DistanceMeters>
          </Trackpoint>
          <Trackpoint>
            <Time>2022-07-10T16:48:08.000Z</Time>
            <Position>
              <LatitudeDegrees>43.3076265268027782440185546875</LatitudeDegrees>
              <LongitudeDegrees>-2.3870471678674221038818359375</LongitudeDegrees>
            </Position>
            <AltitudeMeters>93.8000030517578125</AltitudeMeters>
            <DistanceMeters>NAN</DistanceMeters>
          </Trackpoint>
          <Trackpoint>
            <Time>2022-07-10T16:48:10.000Z</Time>
            <Position>
              <LatitudeDegrees>43.30762040801346302032470703125</LatitudeDegrees>
              <LongitudeDegrees>-2.3870372772216796875</LongitudeDegrees>
            </Position>
            <AltitudeMeters>93.59999847412109375</AltitudeMeters>
            <DistanceMeters>NAN</DistanceMeters>
          </Trackpoint>
          <Trackpoint>
            <Time>2022-07-10T16:48:15.000Z</Time>
            <Position>
              <LatitudeDegrees>43.307625353336334228515625</LatitudeDegrees>
              <LongitudeDegrees>-2.3870340920984745025634765625</LongitudeDegrees>
            </Position>
            <AltitudeMeters>93.8000030517578125</AltitudeMeters>
            <DistanceMeters>NAN</DistanceMeters>
          </Trackpoint>
          <Trackpoint>
            <Time>2022-07-10T16:48:16.000Z</Time>
            <Position>
              <LatitudeDegrees>43.30762602388858795166015625</LatitudeDegrees>
              <LongitudeDegrees>-2.38703115843236446380615234375</LongitudeDegrees>
            </Position>
            <AltitudeMeters>93.8000030517578125</AltitudeMeters>
            <DistanceMeters>NAN</DistanceMeters>
          </Trackpoint>
          <Trackpoint>
            <Time>2022-07-10T16:48:20.000Z</Time>
            <Position>
              <LatitudeDegrees>43.3075815998017787933349609375</LatitudeDegrees>
              <LongitudeDegrees>-2.3870166577398777008056640625</LongitudeDegrees>
            </Position>
            <AltitudeMeters>93.8000030517578125</AltitudeMeters>
            <DistanceMeters>NAN</DistanceMeters>
          </Trackpoint>
          <Trackpoint>
            <Time>2022-07-10T16:48:28.000Z</Time>
            <Position>
              <LatitudeDegrees>43.307578079402446746826171875</LatitudeDegrees>
              <LongitudeDegrees>-2.38702294416725635528564453125</LongitudeDegrees>
            </Position>
            <AltitudeMeters>93.59999847412109375</AltitudeMeters>
            <DistanceMeters>NAN</DistanceMeters>
          </Trackpoint>
          <Trackpoint>
            <Time>2022-07-10T16:48:29.000Z</Time>
            <Position>
              <LatitudeDegrees>43.3075836114585399627685546875</LatitudeDegrees>
              <LongitudeDegrees>-2.387017495930194854736328125</LongitudeDegrees>
            </Position>
            <AltitudeMeters>93.59999847412109375</AltitudeMeters>
            <DistanceMeters>NAN</DistanceMeters>
          </Trackpoint>
          <Trackpoint>
            <Time>2022-07-10T16:48:31.000Z</Time>
            <Position>
              <LatitudeDegrees>43.3075940050184726715087890625</LatitudeDegrees>
              <LongitudeDegrees>-2.387006096541881561279296875</LongitudeDegrees>
            </Position>
            <AltitudeMeters>93.8000030517578125</AltitudeMeters>
            <DistanceMeters>NAN</DistanceMeters>
          </Trackpoint>
          <Trackpoint>
            <Time>2022-07-10T16:48:38.000Z</Time>
            <Position>
              <LatitudeDegrees>43.30761420540511608123779296875</LatitudeDegrees>
              <LongitudeDegrees>-2.3870481736958026885986328125</LongitudeDegrees>
            </Position>
            <AltitudeMeters>93.59999847412109375</AltitudeMeters>
            <DistanceMeters>NAN</DistanceMeters>
          </Trackpoint>
          <Trackpoint>
            <Time>2022-07-10T16:48:39.000Z</Time>
            <Position>
              <LatitudeDegrees>43.30760448239743709564208984375</LatitudeDegrees>
              <LongitudeDegrees>-2.38703451119363307952880859375</LongitudeDegrees>
            </Position>
            <AltitudeMeters>93.59999847412109375</AltitudeMeters>
            <DistanceMeters>NAN</DistanceMeters>
          </Trackpoint>
          <Trackpoint>
            <Time>2022-07-10T16:48:43.000Z</Time>
            <Position>
              <LatitudeDegrees>43.30757497809827327728271484375</LatitudeDegrees>
              <LongitudeDegrees>-2.38701255060732364654541015625</LongitudeDegrees>
            </Position>
            <AltitudeMeters>94</AltitudeMeters>
            <DistanceMeters>NAN</DistanceMeters>
          </Trackpoint>
          <Trackpoint>
            <Time>2022-07-10T16:48:48.000Z</Time>
            <Position>
              <LatitudeDegrees>43.30758176743984222412109375</LatitudeDegrees>
              <LongitudeDegrees>-2.38709536381065845489501953125</LongitudeDegrees>
            </Position>
            <AltitudeMeters>94.1999969482421875</AltitudeMeters>
            <DistanceMeters>NAN</DistanceMeters>
          </Trackpoint>
          <Trackpoint>
            <Time>2022-07-10T16:51:05.000Z</Time>
            <Position>
              <LatitudeDegrees>43.30748110078275203704833984375</LatitudeDegrees>
              <LongitudeDegrees>-2.3868734948337078094482421875</LongitudeDegrees>
            </Position>
            <AltitudeMeters>93</AltitudeMeters>
            <DistanceMeters>NAN</DistanceMeters>
          </Trackpoint>
          <Trackpoint>
            <Time>2022-07-10T16:51:07.000Z</Time>
            <Position>
              <LatitudeDegrees>43.30747942440211772918701171875</LatitudeDegrees>
              <LongitudeDegrees>-2.386937700212001800537109375</LongitudeDegrees>
            </Position>
            <AltitudeMeters>93</AltitudeMeters>
            <DistanceMeters>NAN</DistanceMeters>
          </Trackpoint>
          <Trackpoint>
            <Time>2022-07-10T16:51:13.000Z</Time>
            <Position>
              <LatitudeDegrees>43.3074655942618846893310546875</LatitudeDegrees>
              <LongitudeDegrees>-2.3871557973325252532958984375</LongitudeDegrees>
            </Position>
            <AltitudeMeters>93.40000152587890625</AltitudeMeters>
            <DistanceMeters>NAN</DistanceMeters>
          </Trackpoint>
          <Trackpoint>
            <Time>2022-07-10T16:51:14.000Z</Time>
            <Position>
              <LatitudeDegrees>43.30745092593133449554443359375</LatitudeDegrees>
              <LongitudeDegrees>-2.387189827859401702880859375</LongitudeDegrees>
            </Position>
            <AltitudeMeters>93.40000152587890625</AltitudeMeters>
            <DistanceMeters>NAN</DistanceMeters>
          </Trackpoint>
          <Trackpoint>
            <Time>2022-07-10T16:51:17.000Z</Time>
            <Position>
              <LatitudeDegrees>43.30741488374769687652587890625</LatitudeDegrees>
              <LongitudeDegrees>-2.38725914619863033294677734375</LongitudeDegrees>
            </Position>
            <AltitudeMeters>93.59999847412109375</AltitudeMeters>
            <DistanceMeters>NAN</DistanceMeters>
          </Trackpoint>
          <Trackpoint>
            <Time>2022-07-10T16:51:20.000Z</Time>
            <Position>
              <LatitudeDegrees>43.307382278144359588623046875</LatitudeDegrees>
              <LongitudeDegrees>-2.38731086254119873046875</LongitudeDegrees>
            </Position>
            <AltitudeMeters>93.8000030517578125</AltitudeMeters>
            <DistanceMeters>NAN</DistanceMeters>
          </Trackpoint>
          <Trackpoint>
            <Time>2022-07-10T16:51:23.000Z</Time>
            <Position>
              <LatitudeDegrees>43.30737414769828319549560546875</LatitudeDegrees>
              <LongitudeDegrees>-2.3873572982847690582275390625</LongitudeDegrees>
            </Position>
            <AltitudeMeters>94.1999969482421875</AltitudeMeters>
            <DistanceMeters>NAN</DistanceMeters>
          </Trackpoint>
          <Trackpoint>
            <Time>2022-07-10T16:51:25.000Z</Time>
            <Position>
              <LatitudeDegrees>43.3073673583567142486572265625</LatitudeDegrees>
              <LongitudeDegrees>-2.387382946908473968505859375</LongitudeDegrees>
            </Position>
            <AltitudeMeters>94.40000152587890625</AltitudeMeters>
            <DistanceMeters>NAN</DistanceMeters>
          </Trackpoint>
          <Trackpoint>
            <Time>2022-07-10T16:51:26.000Z</Time>
            <Position>
              <LatitudeDegrees>43.30736191011965274810791015625</LatitudeDegrees>
              <LongitudeDegrees>-2.387403734028339385986328125</LongitudeDegrees>
            </Position>
            <AltitudeMeters>94.40000152587890625</AltitudeMeters>
            <DistanceMeters>NAN</DistanceMeters>
          </Trackpoint>
          <Trackpoint>
            <Time>2022-07-10T16:51:28.000Z</Time>
            <Position>
              <LatitudeDegrees>43.3073405362665653228759765625</LatitudeDegrees>
              <LongitudeDegrees>-2.38743491470813751220703125</LongitudeDegrees>
            </Position>
            <AltitudeMeters>94.59999847412109375</AltitudeMeters>
            <DistanceMeters>NAN</DistanceMeters>
          </Trackpoint>
          <Trackpoint>
            <Time>2022-07-10T16:51:29.000Z</Time>
            <Position>
              <LatitudeDegrees>43.30732963979244232177734375</LatitudeDegrees>
              <LongitudeDegrees>-2.38745109178125858306884765625</LongitudeDegrees>
            </Position>
            <AltitudeMeters>94.8000030517578125</AltitudeMeters>
            <DistanceMeters>NAN</DistanceMeters>
          </Trackpoint>
          <Trackpoint>
            <Time>2022-07-10T16:51:30.000Z</Time>
            <Position>
              <LatitudeDegrees>43.30731664784252643585205078125</LatitudeDegrees>
              <LongitudeDegrees>-2.3874642513692378997802734375</LongitudeDegrees>
            </Position>
            <AltitudeMeters>95</AltitudeMeters>
            <DistanceMeters>NAN</DistanceMeters>
          </Trackpoint>
          <Trackpoint>
            <Time>2022-07-10T16:51:34.000Z</Time>
            <Position>
              <LatitudeDegrees>43.307304494082927703857421875</LatitudeDegrees>
              <LongitudeDegrees>-2.38752887584269046783447265625</LongitudeDegrees>
            </Position>
            <AltitudeMeters>95.8000030517578125</AltitudeMeters>
            <DistanceMeters>NAN</DistanceMeters>
          </Trackpoint>
          <Trackpoint>
            <Time>2022-07-10T16:51:35.000Z</Time>
            <Position>
              <LatitudeDegrees>43.3073100261390209197998046875</LatitudeDegrees>
              <LongitudeDegrees>-2.3875517584383487701416015625</LongitudeDegrees>
            </Position>
            <AltitudeMeters>96</AltitudeMeters>
            <DistanceMeters>NAN</DistanceMeters>
          </Trackpoint>
          <Trackpoint>
            <Time>2022-07-10T16:51:38.000Z</Time>
            <Position>
              <LatitudeDegrees>43.30729854293167591094970703125</LatitudeDegrees>
              <LongitudeDegrees>-2.38760347478091716766357421875</LongitudeDegrees>
            </Position>
            <AltitudeMeters>96.59999847412109375</AltitudeMeters>
            <DistanceMeters>NAN</DistanceMeters>
          </Trackpoint>
          <Trackpoint>
            <Time>2022-07-10T16:51:40.000Z</Time>
            <Position>
              <LatitudeDegrees>43.3072905801236629486083984375</LatitudeDegrees>
              <LongitudeDegrees>-2.3876396007835865020751953125</LongitudeDegrees>
            </Position>
            <AltitudeMeters>97</AltitudeMeters>
            <DistanceMeters>NAN</DistanceMeters>
          </Trackpoint>
          <Trackpoint>
            <Time>2022-07-10T16:51:43.000Z</Time>
            <Position>
              <LatitudeDegrees>43.307283036410808563232421875</LatitudeDegrees>
              <LongitudeDegrees>-2.387690730392932891845703125</LongitudeDegrees>
            </Position>
            <AltitudeMeters>97.40000152587890625</AltitudeMeters>
            <DistanceMeters>NAN</DistanceMeters>
          </Trackpoint>
          <Trackpoint>
            <Time>2022-07-10T16:51:45.000Z</Time>
            <Position>
              <LatitudeDegrees>43.307309187948703765869140625</LatitudeDegrees>
              <LongitudeDegrees>-2.38774395547807216644287109375</LongitudeDegrees>
            </Position>
            <AltitudeMeters>97.59999847412109375</AltitudeMeters>
            <DistanceMeters>NAN</DistanceMeters>
          </Trackpoint>
          <Trackpoint>
            <Time>2022-07-10T16:51:47.000Z</Time>
            <Position>
              <LatitudeDegrees>43.30730826593935489654541015625</LatitudeDegrees>
              <LongitudeDegrees>-2.3877830989658832550048828125</LongitudeDegrees>
            </Position>
            <AltitudeMeters>97.8000030517578125</AltitudeMeters>
            <DistanceMeters>NAN</DistanceMeters>
          </Trackpoint>
          <Trackpoint>
            <Time>2022-07-10T16:51:49.000Z</Time>
            <Position>
              <LatitudeDegrees>43.3073066733777523040771484375</LatitudeDegrees>
              <LongitudeDegrees>-2.3878196440637111663818359375</LongitudeDegrees>
            </Position>
            <AltitudeMeters>98</AltitudeMeters>
            <DistanceMeters>NAN</DistanceMeters>
          </Trackpoint>
          <Trackpoint>
            <Time>2022-07-10T16:51:50.000Z</Time>
            <Position>
              <LatitudeDegrees>43.30731228925287723541259765625</LatitudeDegrees>
              <LongitudeDegrees>-2.38783724606037139892578125</LongitudeDegrees>
            </Position>
            <AltitudeMeters>98.1999969482421875</AltitudeMeters>
            <DistanceMeters>NAN</DistanceMeters>
          </Trackpoint>
          <Trackpoint>
            <Time>2022-07-10T16:51:51.000Z</Time>
            <Position>
              <LatitudeDegrees>43.30732100643217563629150390625</LatitudeDegrees>
              <LongitudeDegrees>-2.38785761408507823944091796875</LongitudeDegrees>
            </Position>
            <AltitudeMeters>98.40000152587890625</AltitudeMeters>
            <DistanceMeters>NAN</DistanceMeters>
          </Trackpoint>
          <Trackpoint>
            <Time>2022-07-10T16:51:53.000Z</Time>
            <Position>
              <LatitudeDegrees>43.3073341660201549530029296875</LatitudeDegrees>
              <LongitudeDegrees>-2.38789818249642848968505859375</LongitudeDegrees>
            </Position>
            <AltitudeMeters>98.59999847412109375</AltitudeMeters>
            <DistanceMeters>NAN</DistanceMeters>
          </Trackpoint>
          <Trackpoint>
            <Time>2022-07-10T16:51:57.000Z</Time>
            <Position>
              <LatitudeDegrees>43.30733341164886951446533203125</LatitudeDegrees>
              <LongitudeDegrees>-2.387972362339496612548828125</LongitudeDegrees>
            </Position>
            <AltitudeMeters>99.1999969482421875</AltitudeMeters>
            <DistanceMeters>NAN</DistanceMeters>
          </Trackpoint>
          <Trackpoint>
            <Time>2022-07-10T16:52:00.000Z</Time>
            <Position>
              <LatitudeDegrees>43.3073236048221588134765625</LatitudeDegrees>
              <LongitudeDegrees>-2.38802022300660610198974609375</LongitudeDegrees>
            </Position>
            <AltitudeMeters>99.40000152587890625</AltitudeMeters>
            <DistanceMeters>NAN</DistanceMeters>
          </Trackpoint>
          <Trackpoint>
            <Time>2022-07-10T16:52:01.000Z</Time>
            <Position>
              <LatitudeDegrees>43.30731379799544811248779296875</LatitudeDegrees>
              <LongitudeDegrees>-2.38803648389875888824462890625</LongitudeDegrees>
            </Position>
            <AltitudeMeters>99.40000152587890625</AltitudeMeters>
            <DistanceMeters>NAN</DistanceMeters>
          </Trackpoint>
          <Trackpoint>
            <Time>2022-07-10T16:52:04.000Z</Time>
            <Position>
              <LatitudeDegrees>43.30728379078209400177001953125</LatitudeDegrees>
              <LongitudeDegrees>-2.3880831710994243621826171875</LongitudeDegrees>
            </Position>
            <AltitudeMeters>99.8000030517578125</AltitudeMeters>
            <DistanceMeters>NAN</DistanceMeters>
          </Trackpoint>
          <Trackpoint>
            <Time>2022-07-10T16:52:08.000Z</Time>
            <Position>
              <LatitudeDegrees>43.3072530291974544525146484375</LatitudeDegrees>
              <LongitudeDegrees>-2.38813974894583225250244140625</LongitudeDegrees>
            </Position>
            <AltitudeMeters>100.40000152587890625</AltitudeMeters>
            <DistanceMeters>NAN</DistanceMeters>
          </Trackpoint>
          <Trackpoint>
            <Time>2022-07-10T16:52:10.000Z</Time>
            <Position>
              <LatitudeDegrees>43.30723534338176250457763671875</LatitudeDegrees>
              <LongitudeDegrees>-2.38815517164766788482666015625</LongitudeDegrees>
            </Position>
            <AltitudeMeters>100.59999847412109375</AltitudeMeters>
            <DistanceMeters>NAN</DistanceMeters>
          </Trackpoint>
          <Trackpoint>
            <Time>2022-07-10T16:52:13.000Z</Time>
            <Position>
              <LatitudeDegrees>43.30718974582850933074951171875</LatitudeDegrees>
              <LongitudeDegrees>-2.38813824020326137542724609375</LongitudeDegrees>
            </Position>
            <AltitudeMeters>100.8000030517578125</AltitudeMeters>
            <DistanceMeters>NAN</DistanceMeters>
          </Trackpoint>
          <Trackpoint>
            <Time>2022-07-10T16:52:18.000Z</Time>
            <Position>
              <LatitudeDegrees>43.30713425762951374053955078125</LatitudeDegrees>
              <LongitudeDegrees>-2.38806699402630329132080078125</LongitudeDegrees>
            </Position>
            <AltitudeMeters>101.40000152587890625</AltitudeMeters>
            <DistanceMeters>NAN</DistanceMeters>
          </Trackpoint>
          <Trackpoint>
            <Time>2022-07-10T16:52:19.000Z</Time>
            <Position>
              <LatitudeDegrees>43.30712419934570789337158203125</LatitudeDegrees>
              <LongitudeDegrees>-2.38805039785802364349365234375</LongitudeDegrees>
            </Position>
            <AltitudeMeters>101.59999847412109375</AltitudeMeters>
            <DistanceMeters>NAN</DistanceMeters>
          </Trackpoint>
          <Trackpoint>
            <Time>2022-07-10T16:52:21.000Z</Time>
            <Position>
              <LatitudeDegrees>43.30711179412901401519775390625</LatitudeDegrees>
              <LongitudeDegrees>-2.3880136013031005859375</LongitudeDegrees>
            </Position>
            <AltitudeMeters>102</AltitudeMeters>
            <DistanceMeters>NAN</DistanceMeters>
          </Trackpoint>
          <Trackpoint>
            <Time>2022-07-10T16:52:22.000Z</Time>
            <Position>
              <LatitudeDegrees>43.30709989182651042938232421875</LatitudeDegrees>
              <LongitudeDegrees>-2.38799725659191608428955078125</LongitudeDegrees>
            </Position>
            <AltitudeMeters>102.1999969482421875</AltitudeMeters>
            <DistanceMeters>NAN</DistanceMeters>
          </Trackpoint>
          <Trackpoint>
            <Time>2022-07-10T16:52:25.000Z</Time>
            <Position>
              <LatitudeDegrees>43.30705211497843265533447265625</LatitudeDegrees>
              <LongitudeDegrees>-2.38796733319759368896484375</LongitudeDegrees>
            </Position>
            <AltitudeMeters>102.40000152587890625</AltitudeMeters>
            <DistanceMeters>NAN</DistanceMeters>
          </Trackpoint>
          <Trackpoint>
            <Time>2022-07-10T16:52:27.000Z</Time>
            <Position>
              <LatitudeDegrees>43.30701808445155620574951171875</LatitudeDegrees>
              <LongitudeDegrees>-2.38797294907271862030029296875</LongitudeDegrees>
            </Position>
            <AltitudeMeters>102.40000152587890625</AltitudeMeters>
            <DistanceMeters>NAN</DistanceMeters>
          </Trackpoint>
          <Trackpoint>
            <Time>2022-07-10T16:52:28.000Z</Time>
            <Position>
              <LatitudeDegrees>43.30700517632067203521728515625</LatitudeDegrees>
              <LongitudeDegrees>-2.38798066042363643646240234375</LongitudeDegrees>
            </Position>
            <AltitudeMeters>102.59999847412109375</AltitudeMeters>
            <DistanceMeters>NAN</DistanceMeters>
          </Trackpoint>
          <Trackpoint>
            <Time>2022-07-10T16:52:33.000Z</Time>
            <Position>
              <LatitudeDegrees>43.306968212127685546875</LatitudeDegrees>
              <LongitudeDegrees>-2.38809063099324703216552734375</LongitudeDegrees>
            </Position>
            <AltitudeMeters>103.40000152587890625</AltitudeMeters>
            <DistanceMeters>NAN</DistanceMeters>
          </Trackpoint>
          <Trackpoint>
            <Time>2022-07-10T16:52:36.000Z</Time>
            <Position>
              <LatitudeDegrees>43.30694834701716899871826171875</LatitudeDegrees>
              <LongitudeDegrees>-2.388144694268703460693359375</LongitudeDegrees>
            </Position>
            <AltitudeMeters>103.59999847412109375</AltitudeMeters>
            <DistanceMeters>NAN</DistanceMeters>
          </Trackpoint>
          <Trackpoint>
            <Time>2022-07-10T16:52:40.000Z</Time>
            <Position>
              <LatitudeDegrees>43.30692923627793788909912109375</LatitudeDegrees>
              <LongitudeDegrees>-2.3882132582366466522216796875</LongitudeDegrees>
            </Position>
            <AltitudeMeters>104.1999969482421875</AltitudeMeters>
            <DistanceMeters>NAN</DistanceMeters>
          </Trackpoint>
          <Trackpoint>
            <Time>2022-07-10T16:52:44.000Z</Time>
            <Position>
              <LatitudeDegrees>43.30691817216575145721435546875</LatitudeDegrees>
              <LongitudeDegrees>-2.3882826603949069976806640625</LongitudeDegrees>
            </Position>
            <AltitudeMeters>104.59999847412109375</AltitudeMeters>
            <DistanceMeters>NAN</DistanceMeters>
          </Trackpoint>
          <Trackpoint>
            <Time>2022-07-10T16:52:47.000Z</Time>
            <Position>
              <LatitudeDegrees>43.306910879909992218017578125</LatitudeDegrees>
              <LongitudeDegrees>-2.3883356340229511260986328125</LongitudeDegrees>
            </Position>
            <AltitudeMeters>105.1999969482421875</AltitudeMeters>
            <DistanceMeters>NAN</DistanceMeters>
          </Trackpoint>
          <Trackpoint>
            <Time>2022-07-10T16:52:48.000Z</Time>
            <Position>
              <LatitudeDegrees>43.30691096372902393341064453125</LatitudeDegrees>
              <LongitudeDegrees>-2.38835365511476993560791015625</LongitudeDegrees>
            </Position>
            <AltitudeMeters>105.40000152587890625</AltitudeMeters>
            <DistanceMeters>NAN</DistanceMeters>
          </Trackpoint>
          <Trackpoint>
            <Time>2022-07-10T16:52:51.000Z</Time>
            <Position>
              <LatitudeDegrees>43.30691398121416568756103515625</LatitudeDegrees>
              <LongitudeDegrees>-2.38841769285500049591064453125</LongitudeDegrees>
            </Position>
            <AltitudeMeters>105.8000030517578125</AltitudeMeters>
            <DistanceMeters>NAN</DistanceMeters>
          </Trackpoint>
          <Trackpoint>
            <Time>2022-07-10T16:52:53.000Z</Time>
            <Position>
              <LatitudeDegrees>43.30691247247159481048583984375</LatitudeDegrees>
              <LongitudeDegrees>-2.38846085965633392333984375</LongitudeDegrees>
            </Position>
            <AltitudeMeters>106</AltitudeMeters>
            <DistanceMeters>NAN</DistanceMeters>
          </Trackpoint>
          <Trackpoint>
            <Time>2022-07-10T16:52:57.000Z</Time>
            <Position>
              <LatitudeDegrees>43.3069167472422122955322265625</LatitudeDegrees>
              <LongitudeDegrees>-2.3885300941765308380126953125</LongitudeDegrees>
            </Position>
            <AltitudeMeters>106.8000030517578125</AltitudeMeters>
            <DistanceMeters>NAN</DistanceMeters>
          </Trackpoint>
          <Trackpoint>
            <Time>2022-07-10T16:53:01.000Z</Time>
            <Position>
              <LatitudeDegrees>43.306916244328022003173828125</LatitudeDegrees>
              <LongitudeDegrees>-2.388614751398563385009765625</LongitudeDegrees>
            </Position>
            <AltitudeMeters>107.59999847412109375</AltitudeMeters>
            <DistanceMeters>NAN</DistanceMeters>
          </Trackpoint>
          <Trackpoint>
            <Time>2022-07-10T16:53:03.000Z</Time>
            <Position>
              <LatitudeDegrees>43.30692538060247898101806640625</LatitudeDegrees>
              <LongitudeDegrees>-2.3886611871421337127685546875</LongitudeDegrees>
            </Position>
            <AltitudeMeters>108</AltitudeMeters>
            <DistanceMeters>NAN</DistanceMeters>
          </Trackpoint>
          <Trackpoint>
            <Time>2022-07-10T16:53:06.000Z</Time>
            <Position>
              <LatitudeDegrees>43.30693845637142658233642578125</LatitudeDegrees>
              <LongitudeDegrees>-2.388730756938457489013671875</LongitudeDegrees>
            </Position>
            <AltitudeMeters>108.59999847412109375</AltitudeMeters>
            <DistanceMeters>NAN</DistanceMeters>
          </Trackpoint>
          <Trackpoint>
            <Time>2022-07-10T16:53:07.000Z</Time>
            <Position>
              <LatitudeDegrees>43.30694365315139293670654296875</LatitudeDegrees>
              <LongitudeDegrees>-2.38875112496316432952880859375</LongitudeDegrees>
            </Position>
            <AltitudeMeters>108.59999847412109375</AltitudeMeters>
            <DistanceMeters>NAN</DistanceMeters>
          </Trackpoint>
          <Trackpoint>
            <Time>2022-07-10T16:53:09.000Z</Time>
            <Position>
              <LatitudeDegrees>43.3069502748548984527587890625</LatitudeDegrees>
              <LongitudeDegrees>-2.3887927830219268798828125</LongitudeDegrees>
            </Position>
            <AltitudeMeters>109</AltitudeMeters>
            <DistanceMeters>NAN</DistanceMeters>
          </Trackpoint>
          <Trackpoint>
            <Time>2022-07-10T16:53:10.000Z</Time>
            <Position>
              <LatitudeDegrees>43.30695320852100849151611328125</LatitudeDegrees>
              <LongitudeDegrees>-2.38880963064730167388916015625</LongitudeDegrees>
            </Position>
            <AltitudeMeters>109.1999969482421875</AltitudeMeters>
            <DistanceMeters>NAN</DistanceMeters>
          </Trackpoint>
          <Trackpoint>
            <Time>2022-07-10T16:53:11.000Z</Time>
            <Position>
              <LatitudeDegrees>43.30695278942584991455078125</LatitudeDegrees>
              <LongitudeDegrees>-2.38883041776716709136962890625</LongitudeDegrees>
            </Position>
            <AltitudeMeters>109.1999969482421875</AltitudeMeters>
            <DistanceMeters>NAN</DistanceMeters>
          </Trackpoint>
          <Trackpoint>
            <Time>2022-07-10T16:53:14.000Z</Time>
            <Position>
              <LatitudeDegrees>43.306967876851558685302734375</LatitudeDegrees>
              <LongitudeDegrees>-2.388893030583858489990234375</LongitudeDegrees>
            </Position>
            <AltitudeMeters>109.8000030517578125</AltitudeMeters>
            <DistanceMeters>NAN</DistanceMeters>
          </Trackpoint>
          <Trackpoint>
            <Time>2022-07-10T16:53:15.000Z</Time>
            <Position>
              <LatitudeDegrees>43.3069750852882862091064453125</LatitudeDegrees>
              <LongitudeDegrees>-2.388912141323089599609375</LongitudeDegrees>
            </Position>
            <AltitudeMeters>110</AltitudeMeters>
            <DistanceMeters>NAN</DistanceMeters>
          </Trackpoint>
          <Trackpoint>
            <Time>2022-07-10T16:53:18.000Z</Time>
            <Position>
              <LatitudeDegrees>43.3069938607513904571533203125</LatitudeDegrees>
              <LongitudeDegrees>-2.38896100781857967376708984375</LongitudeDegrees>
            </Position>
            <AltitudeMeters>110.59999847412109375</AltitudeMeters>
            <DistanceMeters>NAN</DistanceMeters>
          </Trackpoint>
          <Trackpoint>
            <Time>2022-07-10T16:53:21.000Z</Time>
            <Position>
              <LatitudeDegrees>43.3070069365203380584716796875</LatitudeDegrees>
              <LongitudeDegrees>-2.38901314325630664825439453125</LongitudeDegrees>
            </Position>
            <AltitudeMeters>111</AltitudeMeters>
            <DistanceMeters>NAN</DistanceMeters>
          </Trackpoint>
          <Trackpoint>
            <Time>2022-07-10T16:53:22.000Z</Time>
            <Position>
              <LatitudeDegrees>43.307012133300304412841796875</LatitudeDegrees>
              <LongitudeDegrees>-2.38903175108134746551513671875</LongitudeDegrees>
            </Position>
            <AltitudeMeters>111.1999969482421875</AltitudeMeters>
            <DistanceMeters>NAN</DistanceMeters>
          </Trackpoint>
          <Trackpoint>
            <Time>2022-07-10T16:53:26.000Z</Time>
            <Position>
              <LatitudeDegrees>43.30702797509729862213134765625</LatitudeDegrees>
              <LongitudeDegrees>-2.38912194035947322845458984375</LongitudeDegrees>
            </Position>
            <AltitudeMeters>112</AltitudeMeters>
            <DistanceMeters>NAN</DistanceMeters>
          </Trackpoint>
          <Trackpoint>
            <Time>2022-07-10T16:53:27.000Z</Time>
            <Position>
              <LatitudeDegrees>43.3070344291627407073974609375</LatitudeDegrees>
              <LongitudeDegrees>-2.38914616405963897705078125</LongitudeDegrees>
            </Position>
            <AltitudeMeters>112.1999969482421875</AltitudeMeters>
            <DistanceMeters>NAN</DistanceMeters>
          </Trackpoint>
          <Trackpoint>
            <Time>2022-07-10T16:53:28.000Z</Time>
            <Position>
              <LatitudeDegrees>43.30704188905656337738037109375</LatitudeDegrees>
              <LongitudeDegrees>-2.38916653208434581756591796875</LongitudeDegrees>
            </Position>
            <AltitudeMeters>112.1999969482421875</AltitudeMeters>
            <DistanceMeters>NAN</DistanceMeters>
          </Trackpoint>
          <Trackpoint>
            <Time>2022-07-10T16:53:31.000Z</Time>
            <Position>
              <LatitudeDegrees>43.30705395899713039398193359375</LatitudeDegrees>
              <LongitudeDegrees>-2.38922805525362491607666015625</LongitudeDegrees>
            </Position>
            <AltitudeMeters>112.8000030517578125</AltitudeMeters>
            <DistanceMeters>NAN</DistanceMeters>
          </Trackpoint>
          <Trackpoint>
            <Time>2022-07-10T16:53:33.000Z</Time>
            <Position>
              <LatitudeDegrees>43.307061083614826202392578125</LatitudeDegrees>
              <LongitudeDegrees>-2.389261163771152496337890625</LongitudeDegrees>
            </Position>
            <AltitudeMeters>113.1999969482421875</AltitudeMeters>
            <DistanceMeters>NAN</DistanceMeters>
          </Trackpoint>
          <Trackpoint>
            <Time>2022-07-10T16:53:34.000Z</Time>
            <Position>
              <LatitudeDegrees>43.30706820823252201080322265625</LatitudeDegrees>
              <LongitudeDegrees>-2.3892754130065441131591796875</LongitudeDegrees>
            </Position>
            <AltitudeMeters>113.40000152587890625</AltitudeMeters>
            <DistanceMeters>NAN</DistanceMeters>
          </Trackpoint>
          <Trackpoint>
            <Time>2022-07-10T16:53:35.000Z</Time>
            <Position>
              <LatitudeDegrees>43.3070857264101505279541015625</LatitudeDegrees>
              <LongitudeDegrees>-2.389294020831584930419921875</LongitudeDegrees>
            </Position>
            <AltitudeMeters>113.59999847412109375</AltitudeMeters>
            <DistanceMeters>NAN</DistanceMeters>
          </Trackpoint>
          <Trackpoint>
            <Time>2022-07-10T16:53:36.000Z</Time>
            <Position>
              <LatitudeDegrees>43.307093270123004913330078125</LatitudeDegrees>
              <LongitudeDegrees>-2.3893143050372600555419921875</LongitudeDegrees>
            </Position>
            <AltitudeMeters>113.59999847412109375</AltitudeMeters>
            <DistanceMeters>NAN</DistanceMeters>
          </Trackpoint>
          <Trackpoint>
            <Time>2022-07-10T16:53:38.000Z</Time>
            <Position>
              <LatitudeDegrees>43.30710190348327159881591796875</LatitudeDegrees>
              <LongitudeDegrees>-2.3893448151648044586181640625</LongitudeDegrees>
            </Position>
            <AltitudeMeters>114</AltitudeMeters>
            <DistanceMeters>NAN</DistanceMeters>
          </Trackpoint>
          <Trackpoint>
            <Time>2022-07-10T16:53:39.000Z</Time>
            <Position>
              <LatitudeDegrees>43.30710877664387226104736328125</LatitudeDegrees>
              <LongitudeDegrees>-2.38935965113341808319091796875</LongitudeDegrees>
            </Position>
            <AltitudeMeters>114</AltitudeMeters>
            <DistanceMeters>NAN</DistanceMeters>
          </Trackpoint>
          <Trackpoint>
            <Time>2022-07-10T16:53:40.000Z</Time>
            <Position>
              <LatitudeDegrees>43.30711665563285350799560546875</LatitudeDegrees>
              <LongitudeDegrees>-2.38937976770102977752685546875</LongitudeDegrees>
            </Position>
            <AltitudeMeters>114</AltitudeMeters>
            <DistanceMeters>NAN</DistanceMeters>
          </Trackpoint>
          <Trackpoint>
            <Time>2022-07-10T16:53:41.000Z</Time>
            <Position>
              <LatitudeDegrees>43.3071199245750904083251953125</LatitudeDegrees>
              <LongitudeDegrees>-2.38940172828733921051025390625</LongitudeDegrees>
            </Position>
            <AltitudeMeters>114.1999969482421875</AltitudeMeters>
            <DistanceMeters>NAN</DistanceMeters>
          </Trackpoint>
          <Trackpoint>
            <Time>2022-07-10T16:53:42.000Z</Time>
            <Position>
              <LatitudeDegrees>43.30712805502116680145263671875</LatitudeDegrees>
              <LongitudeDegrees>-2.3894232697784900665283203125</LongitudeDegrees>
            </Position>
            <AltitudeMeters>114.40000152587890625</AltitudeMeters>
            <DistanceMeters>NAN</DistanceMeters>
          </Trackpoint>
          <Trackpoint>
            <Time>2022-07-10T16:53:43.000Z</Time>
            <Position>
              <LatitudeDegrees>43.30713375471532344818115234375</LatitudeDegrees>
              <LongitudeDegrees>-2.38944313488900661468505859375</LongitudeDegrees>
            </Position>
            <AltitudeMeters>114.59999847412109375</AltitudeMeters>
            <DistanceMeters>NAN</DistanceMeters>
          </Trackpoint>
          <Trackpoint>
            <Time>2022-07-10T16:53:45.000Z</Time>
            <Position>
              <LatitudeDegrees>43.30714750103652477264404296875</LatitudeDegrees>
              <LongitudeDegrees>-2.3894802667200565338134765625</LongitudeDegrees>
            </Position>
            <AltitudeMeters>115</AltitudeMeters>
            <DistanceMeters>NAN</DistanceMeters>
          </Trackpoint>
          <Trackpoint>
            <Time>2022-07-10T16:53:46.000Z</Time>
            <Position>
              <LatitudeDegrees>43.30714800395071506500244140625</LatitudeDegrees>
              <LongitudeDegrees>-2.389496862888336181640625</LongitudeDegrees>
            </Position>
            <AltitudeMeters>115</AltitudeMeters>
            <DistanceMeters>NAN</DistanceMeters>
          </Trackpoint>
          <Trackpoint>
            <Time>2022-07-10T16:53:47.000Z</Time>
            <Position>
              <LatitudeDegrees>43.30715605057775974273681640625</LatitudeDegrees>
              <LongitudeDegrees>-2.38951723091304302215576171875</LongitudeDegrees>
            </Position>
            <AltitudeMeters>115.1999969482421875</AltitudeMeters>
            <DistanceMeters>NAN</DistanceMeters>
          </Trackpoint>
          <Trackpoint>
            <Time>2022-07-10T16:53:49.000Z</Time>
            <Position>
              <LatitudeDegrees>43.307174406945705413818359375</LatitudeDegrees>
              <LongitudeDegrees>-2.3895464837551116943359375</LongitudeDegrees>
            </Position>
            <AltitudeMeters>115.40000152587890625</AltitudeMeters>
            <DistanceMeters>NAN</DistanceMeters>
          </Trackpoint>
          <Trackpoint>
            <Time>2022-07-10T16:53:52.000Z</Time>
            <Position>
              <LatitudeDegrees>43.30719997175037860870361328125</LatitudeDegrees>
              <LongitudeDegrees>-2.38959283567965030670166015625</LongitudeDegrees>
            </Position>
            <AltitudeMeters>115.59999847412109375</AltitudeMeters>
            <DistanceMeters>NAN</DistanceMeters>
          </Trackpoint>
          <Trackpoint>
            <Time>2022-07-10T16:53:57.000Z</Time>
            <Position>
              <LatitudeDegrees>43.3072027377784252166748046875</LatitudeDegrees>
              <LongitudeDegrees>-2.38964094780385494232177734375</LongitudeDegrees>
            </Position>
            <AltitudeMeters>115.59999847412109375</AltitudeMeters>
            <DistanceMeters>NAN</DistanceMeters>
          </Trackpoint>
          <Trackpoint>
            <Time>2022-07-10T16:53:59.000Z</Time>
            <Position>
              <LatitudeDegrees>43.3072029054164886474609375</LatitudeDegrees>
              <LongitudeDegrees>-2.38963223062455654144287109375</LongitudeDegrees>
            </Position>
            <AltitudeMeters>115.40000152587890625</AltitudeMeters>
            <DistanceMeters>NAN</DistanceMeters>
          </Trackpoint>
          <Trackpoint>
            <Time>2022-07-10T16:54:55.000Z</Time>
            <Position>
              <LatitudeDegrees>43.307192511856555938720703125</LatitudeDegrees>
              <LongitudeDegrees>-2.3896495811641216278076171875</LongitudeDegrees>
            </Position>
            <AltitudeMeters>114.59999847412109375</AltitudeMeters>
            <DistanceMeters>NAN</DistanceMeters>
          </Trackpoint>
          <Trackpoint>
            <Time>2022-07-10T16:54:56.000Z</Time>
            <Position>
              <LatitudeDegrees>43.30720801837742328643798828125</LatitudeDegrees>
              <LongitudeDegrees>-2.38968218676745891571044921875</LongitudeDegrees>
            </Position>
            <AltitudeMeters>114.8000030517578125</AltitudeMeters>
            <DistanceMeters>NAN</DistanceMeters>
          </Trackpoint>
          <Trackpoint>
            <Time>2022-07-10T16:55:01.000Z</Time>
            <Position>
              <LatitudeDegrees>43.3072684518992900848388671875</LatitudeDegrees>
              <LongitudeDegrees>-2.3898266069591045379638671875</LongitudeDegrees>
            </Position>
            <AltitudeMeters>115.1999969482421875</AltitudeMeters>
            <DistanceMeters>NAN</DistanceMeters>
          </Trackpoint>
          <Trackpoint>
            <Time>2022-07-10T16:55:02.000Z</Time>
            <Position>
              <LatitudeDegrees>43.30728412605822086334228515625</LatitudeDegrees>
              <LongitudeDegrees>-2.38985334523022174835205078125</LongitudeDegrees>
            </Position>
            <AltitudeMeters>115.40000152587890625</AltitudeMeters>
            <DistanceMeters>NAN</DistanceMeters>
          </Trackpoint>
          <Trackpoint>
            <Time>2022-07-10T16:55:04.000Z</Time>
            <Position>
              <LatitudeDegrees>43.307308517396450042724609375</LatitudeDegrees>
              <LongitudeDegrees>-2.38990724086761474609375</LongitudeDegrees>
            </Position>
            <AltitudeMeters>115.40000152587890625</AltitudeMeters>
            <DistanceMeters>NAN</DistanceMeters>
          </Trackpoint>
          <Trackpoint>
            <Time>2022-07-10T16:55:05.000Z</Time>
            <Position>
              <LatitudeDegrees>43.30731513909995555877685546875</LatitudeDegrees>
              <LongitudeDegrees>-2.389931045472621917724609375</LongitudeDegrees>
            </Position>
            <AltitudeMeters>115.40000152587890625</AltitudeMeters>
            <DistanceMeters>NAN</DistanceMeters>
          </Trackpoint>
          <Trackpoint>
            <Time>2022-07-10T16:55:06.000Z</Time>
            <Position>
              <LatitudeDegrees>43.3073244430124759674072265625</LatitudeDegrees>
              <LongitudeDegrees>-2.38995753228664398193359375</LongitudeDegrees>
            </Position>
            <AltitudeMeters>115.40000152587890625</AltitudeMeters>
            <DistanceMeters>NAN</DistanceMeters>
          </Trackpoint>
          <Trackpoint>
            <Time>2022-07-10T16:55:12.000Z</Time>
            <Position>
              <LatitudeDegrees>43.3073831163346767425537109375</LatitudeDegrees>
              <LongitudeDegrees>-2.39011310040950775146484375</LongitudeDegrees>
            </Position>
            <AltitudeMeters>115.8000030517578125</AltitudeMeters>
            <DistanceMeters>NAN</DistanceMeters>
          </Trackpoint>
          <Trackpoint>
            <Time>2022-07-10T16:55:13.000Z</Time>
            <Position>
              <LatitudeDegrees>43.307393006980419158935546875</LatitudeDegrees>
              <LongitudeDegrees>-2.39013548009097576141357421875</LongitudeDegrees>
            </Position>
            <AltitudeMeters>115.8000030517578125</AltitudeMeters>
            <DistanceMeters>NAN</DistanceMeters>
          </Trackpoint>
          <Trackpoint>
            <Time>2022-07-10T16:55:14.000Z</Time>
            <Position>
              <LatitudeDegrees>43.30740348435938358306884765625</LatitudeDegrees>
              <LongitudeDegrees>-2.39015576429665088653564453125</LongitudeDegrees>
            </Position>
            <AltitudeMeters>115.8000030517578125</AltitudeMeters>
            <DistanceMeters>NAN</DistanceMeters>
          </Trackpoint>
          <Trackpoint>
            <Time>2022-07-10T16:55:17.000Z</Time>
            <Position>
              <LatitudeDegrees>43.307447992265224456787109375</LatitudeDegrees>
              <LongitudeDegrees>-2.39022265188395977020263671875</LongitudeDegrees>
            </Position>
            <AltitudeMeters>116.1999969482421875</AltitudeMeters>
            <DistanceMeters>NAN</DistanceMeters>
          </Trackpoint>
          <Trackpoint>
            <Time>2022-07-10T16:55:18.000Z</Time>
            <Position>
              <LatitudeDegrees>43.30745880492031574249267578125</LatitudeDegrees>
              <LongitudeDegrees>-2.3902470432221889495849609375</LongitudeDegrees>
            </Position>
            <AltitudeMeters>116.40000152587890625</AltitudeMeters>
            <DistanceMeters>NAN</DistanceMeters>
          </Trackpoint>
          <Trackpoint>
            <Time>2022-07-10T16:55:22.000Z</Time>
            <Position>
              <LatitudeDegrees>43.30749082379043102264404296875</LatitudeDegrees>
              <LongitudeDegrees>-2.3903550021350383758544921875</LongitudeDegrees>
            </Position>
            <AltitudeMeters>117</AltitudeMeters>
            <DistanceMeters>NAN</DistanceMeters>
          </Trackpoint>
          <Trackpoint>
            <Time>2022-07-10T16:55:24.000Z</Time>
            <Position>
              <LatitudeDegrees>43.30750222317874431610107421875</LatitudeDegrees>
              <LongitudeDegrees>-2.390419207513332366943359375</LongitudeDegrees>
            </Position>
            <AltitudeMeters>117.1999969482421875</AltitudeMeters>
            <DistanceMeters>NAN</DistanceMeters>
          </Trackpoint>
          <Trackpoint>
            <Time>2022-07-10T16:55:25.000Z</Time>
            <Position>
              <LatitudeDegrees>43.30751043744385242462158203125</LatitudeDegrees>
              <LongitudeDegrees>-2.39045483060181140899658203125</LongitudeDegrees>
            </Position>
            <AltitudeMeters>117.1999969482421875</AltitudeMeters>
            <DistanceMeters>NAN</DistanceMeters>
          </Trackpoint>
          <Trackpoint>
            <Time>2022-07-10T16:55:27.000Z</Time>
            <Position>
              <LatitudeDegrees>43.3075155504047870635986328125</LatitudeDegrees>
              <LongitudeDegrees>-2.3905162699520587921142578125</LongitudeDegrees>
            </Position>
            <AltitudeMeters>117.1999969482421875</AltitudeMeters>
            <DistanceMeters>NAN</DistanceMeters>
          </Trackpoint>
          <Trackpoint>
            <Time>2022-07-10T16:55:30.000Z</Time>
            <Position>
              <LatitudeDegrees>43.30751697532832622528076171875</LatitudeDegrees>
              <LongitudeDegrees>-2.390617690980434417724609375</LongitudeDegrees>
            </Position>
            <AltitudeMeters>117.40000152587890625</AltitudeMeters>
            <DistanceMeters>NAN</DistanceMeters>
          </Trackpoint>
          <Trackpoint>
            <Time>2022-07-10T16:55:31.000Z</Time>
            <Position>
              <LatitudeDegrees>43.30751077271997928619384765625</LatitudeDegrees>
              <LongitudeDegrees>-2.390650212764739990234375</LongitudeDegrees>
            </Position>
            <AltitudeMeters>117.40000152587890625</AltitudeMeters>
            <DistanceMeters>NAN</DistanceMeters>
          </Trackpoint>
          <Trackpoint>
            <Time>2022-07-10T16:55:32.000Z</Time>
            <Position>
              <LatitudeDegrees>43.30749937333166599273681640625</LatitudeDegrees>
              <LongitudeDegrees>-2.39068633876740932464599609375</LongitudeDegrees>
            </Position>
            <AltitudeMeters>117.40000152587890625</AltitudeMeters>
            <DistanceMeters>NAN</DistanceMeters>
          </Trackpoint>
          <Trackpoint>
            <Time>2022-07-10T16:55:34.000Z</Time>
            <Position>
              <LatitudeDegrees>43.307490237057209014892578125</LatitudeDegrees>
              <LongitudeDegrees>-2.39075674675405025482177734375</LongitudeDegrees>
            </Position>
            <AltitudeMeters>117.59999847412109375</AltitudeMeters>
            <DistanceMeters>NAN</DistanceMeters>
          </Trackpoint>
          <Trackpoint>
            <Time>2022-07-10T16:55:40.000Z</Time>
            <Position>
              <LatitudeDegrees>43.3074469864368438720703125</LatitudeDegrees>
              <LongitudeDegrees>-2.39099479280412197113037109375</LongitudeDegrees>
            </Position>
            <AltitudeMeters>117.59999847412109375</AltitudeMeters>
            <DistanceMeters>NAN</DistanceMeters>
          </Trackpoint>
          <Trackpoint>
            <Time>2022-07-10T16:55:43.000Z</Time>
            <Position>
              <LatitudeDegrees>43.30742863006889820098876953125</LatitudeDegrees>
              <LongitudeDegrees>-2.391143403947353363037109375</LongitudeDegrees>
            </Position>
            <AltitudeMeters>117.59999847412109375</AltitudeMeters>
            <DistanceMeters>NAN</DistanceMeters>
          </Trackpoint>
          <Trackpoint>
            <Time>2022-07-10T16:55:47.000Z</Time>
            <Position>
              <LatitudeDegrees>43.30740281380712985992431640625</LatitudeDegrees>
              <LongitudeDegrees>-2.39132001064717769622802734375</LongitudeDegrees>
            </Position>
            <AltitudeMeters>117.59999847412109375</AltitudeMeters>
            <DistanceMeters>NAN</DistanceMeters>
          </Trackpoint>
          <Trackpoint>
            <Time>2022-07-10T16:55:52.000Z</Time>
            <Position>
              <LatitudeDegrees>43.307356126606464385986328125</LatitudeDegrees>
              <LongitudeDegrees>-2.391647659242153167724609375</LongitudeDegrees>
            </Position>
            <AltitudeMeters>117</AltitudeMeters>
            <DistanceMeters>NAN</DistanceMeters>
          </Trackpoint>
          <Trackpoint>
            <Time>2022-07-10T16:55:54.000Z</Time>
            <Position>
              <LatitudeDegrees>43.3073247782886028289794921875</LatitudeDegrees>
              <LongitudeDegrees>-2.3917836137115955352783203125</LongitudeDegrees>
            </Position>
            <AltitudeMeters>116.40000152587890625</AltitudeMeters>
            <DistanceMeters>NAN</DistanceMeters>
          </Trackpoint>
          <Trackpoint>
            <Time>2022-07-10T16:55:57.000Z</Time>
            <Position>
              <LatitudeDegrees>43.30725587904453277587890625</LatitudeDegrees>
              <LongitudeDegrees>-2.3919961787760257720947265625</LongitudeDegrees>
            </Position>
            <AltitudeMeters>115.59999847412109375</AltitudeMeters>
            <DistanceMeters>NAN</DistanceMeters>
          </Trackpoint>
          <Trackpoint>
            <Time>2022-07-10T16:55:58.000Z</Time>
            <Position>
              <LatitudeDegrees>43.3072309009730815887451171875</LatitudeDegrees>
              <LongitudeDegrees>-2.39206901751458644866943359375</LongitudeDegrees>
            </Position>
            <AltitudeMeters>115.40000152587890625</AltitudeMeters>
            <DistanceMeters>NAN</DistanceMeters>
          </Trackpoint>
          <Trackpoint>
            <Time>2022-07-10T16:56:00.000Z</Time>
            <Position>
              <LatitudeDegrees>43.30717080272734165191650390625</LatitudeDegrees>
              <LongitudeDegrees>-2.39220363087952136993408203125</LongitudeDegrees>
            </Position>
            <AltitudeMeters>115</AltitudeMeters>
            <DistanceMeters>NAN</DistanceMeters>
          </Trackpoint>
          <Trackpoint>
            <Time>2022-07-10T16:56:03.000Z</Time>
            <Position>
              <LatitudeDegrees>43.307043649256229400634765625</LatitudeDegrees>
              <LongitudeDegrees>-2.39238300360739231109619140625</LongitudeDegrees>
            </Position>
            <AltitudeMeters>114</AltitudeMeters>
            <DistanceMeters>NAN</DistanceMeters>
          </Trackpoint>
          <Trackpoint>
            <Time>2022-07-10T16:56:06.000Z</Time>
            <Position>
              <LatitudeDegrees>43.30688933841884136199951171875</LatitudeDegrees>
              <LongitudeDegrees>-2.392552234232425689697265625</LongitudeDegrees>
            </Position>
            <AltitudeMeters>113.1999969482421875</AltitudeMeters>
            <DistanceMeters>NAN</DistanceMeters>
          </Trackpoint>
          <Trackpoint>
            <Time>2022-07-10T16:56:07.000Z</Time>
            <Position>
              <LatitudeDegrees>43.306837789714336395263671875</LatitudeDegrees>
              <LongitudeDegrees>-2.3926117457449436187744140625</LongitudeDegrees>
            </Position>
            <AltitudeMeters>113</AltitudeMeters>
            <DistanceMeters>NAN</DistanceMeters>
          </Trackpoint>
          <Trackpoint>
            <Time>2022-07-10T16:56:09.000Z</Time>
            <Position>
              <LatitudeDegrees>43.30673511140048503875732421875</LatitudeDegrees>
              <LongitudeDegrees>-2.3927528969943523406982421875</LongitudeDegrees>
            </Position>
            <AltitudeMeters>112.59999847412109375</AltitudeMeters>
            <DistanceMeters>NAN</DistanceMeters>
          </Trackpoint>
          <Trackpoint>
            <Time>2022-07-10T16:56:10.000Z</Time>
            <Position>
              <LatitudeDegrees>43.3066850714385509490966796875</LatitudeDegrees>
              <LongitudeDegrees>-2.39283327944576740264892578125</LongitudeDegrees>
            </Position>
            <AltitudeMeters>112</AltitudeMeters>
            <DistanceMeters>NAN</DistanceMeters>
          </Trackpoint>
          <Trackpoint>
            <Time>2022-07-10T16:56:11.000Z</Time>
            <Position>
              <LatitudeDegrees>43.30663628876209259033203125</LatitudeDegrees>
              <LongitudeDegrees>-2.39292095415294170379638671875</LongitudeDegrees>
            </Position>
            <AltitudeMeters>111.59999847412109375</AltitudeMeters>
            <DistanceMeters>NAN</DistanceMeters>
          </Trackpoint>
          <Trackpoint>
            <Time>2022-07-10T16:56:12.000Z</Time>
            <Position>
              <LatitudeDegrees>43.3065935410559177398681640625</LatitudeDegrees>
              <LongitudeDegrees>-2.39301885478198528289794921875</LongitudeDegrees>
            </Position>
            <AltitudeMeters>111.1999969482421875</AltitudeMeters>
            <DistanceMeters>NAN</DistanceMeters>
          </Trackpoint>
          <Trackpoint>
            <Time>2022-07-10T16:56:14.000Z</Time>
            <Position>
              <LatitudeDegrees>43.3065378852188587188720703125</LatitudeDegrees>
              <LongitudeDegrees>-2.3932444117963314056396484375</LongitudeDegrees>
            </Position>
            <AltitudeMeters>110.59999847412109375</AltitudeMeters>
            <DistanceMeters>NAN</DistanceMeters>
          </Trackpoint>
          <Trackpoint>
            <Time>2022-07-10T16:56:15.000Z</Time>
            <Position>
              <LatitudeDegrees>43.30651986412703990936279296875</LatitudeDegrees>
              <LongitudeDegrees>-2.39336268045008182525634765625</LongitudeDegrees>
            </Position>
            <AltitudeMeters>110.1999969482421875</AltitudeMeters>
            <DistanceMeters>NAN</DistanceMeters>
          </Trackpoint>
          <Trackpoint>
            <Time>2022-07-10T16:56:17.000Z</Time>
            <Position>
              <LatitudeDegrees>43.306518606841564178466796875</LatitudeDegrees>
              <LongitudeDegrees>-2.3936004750430583953857421875</LongitudeDegrees>
            </Position>
            <AltitudeMeters>109.40000152587890625</AltitudeMeters>
            <DistanceMeters>NAN</DistanceMeters>
          </Trackpoint>
          <Trackpoint>
            <Time>2022-07-10T16:56:21.000Z</Time>
            <Position>
              <LatitudeDegrees>43.30660737119615077972412109375</LatitudeDegrees>
              <LongitudeDegrees>-2.39408050663769245147705078125</LongitudeDegrees>
            </Position>
            <AltitudeMeters>108.1999969482421875</AltitudeMeters>
            <DistanceMeters>NAN</DistanceMeters>
          </Trackpoint>
          <Trackpoint>
            <Time>2022-07-10T16:56:22.000Z</Time>
            <Position>
              <LatitudeDegrees>43.30664022825658321380615234375</LatitudeDegrees>
              <LongitudeDegrees>-2.3942006193101406097412109375</LongitudeDegrees>
            </Position>
            <AltitudeMeters>107.8000030517578125</AltitudeMeters>
            <DistanceMeters>NAN</DistanceMeters>
          </Trackpoint>
          <Trackpoint>
            <Time>2022-07-10T16:56:24.000Z</Time>
            <Position>
              <LatitudeDegrees>43.306707032024860382080078125</LatitudeDegrees>
              <LongitudeDegrees>-2.39442969672381877899169921875</LongitudeDegrees>
            </Position>
            <AltitudeMeters>106.59999847412109375</AltitudeMeters>
            <DistanceMeters>NAN</DistanceMeters>
          </Trackpoint>
          <Trackpoint>
            <Time>2022-07-10T16:56:26.000Z</Time>
            <Position>
              <LatitudeDegrees>43.30680082552134990692138671875</LatitudeDegrees>
              <LongitudeDegrees>-2.3946649767458438873291015625</LongitudeDegrees>
            </Position>
            <AltitudeMeters>105.8000030517578125</AltitudeMeters>
            <DistanceMeters>NAN</DistanceMeters>
          </Trackpoint>
          <Trackpoint>
            <Time>2022-07-10T16:56:27.000Z</Time>
            <Position>
              <LatitudeDegrees>43.3068587444722652435302734375</LatitudeDegrees>
              <LongitudeDegrees>-2.39477385766804218292236328125</LongitudeDegrees>
            </Position>
            <AltitudeMeters>105.40000152587890625</AltitudeMeters>
            <DistanceMeters>NAN</DistanceMeters>
          </Trackpoint>
          <Trackpoint>
            <Time>2022-07-10T16:56:30.000Z</Time>
            <Position>
              <LatitudeDegrees>43.30705664120614528656005859375</LatitudeDegrees>
              <LongitudeDegrees>-2.39504526369273662567138671875</LongitudeDegrees>
            </Position>
            <AltitudeMeters>104.1999969482421875</AltitudeMeters>
            <DistanceMeters>NAN</DistanceMeters>
          </Trackpoint>
          <Trackpoint>
            <Time>2022-07-10T16:56:32.000Z</Time>
            <Position>
              <LatitudeDegrees>43.30720449797809123992919921875</LatitudeDegrees>
              <LongitudeDegrees>-2.3952211998403072357177734375</LongitudeDegrees>
            </Position>
            <AltitudeMeters>102.8000030517578125</AltitudeMeters>
            <DistanceMeters>NAN</DistanceMeters>
          </Trackpoint>
          <Trackpoint>
            <Time>2022-07-10T16:56:33.000Z</Time>
            <Position>
              <LatitudeDegrees>43.307281695306301116943359375</LatitudeDegrees>
              <LongitudeDegrees>-2.39529772661626338958740234375</LongitudeDegrees>
            </Position>
            <AltitudeMeters>102</AltitudeMeters>
            <DistanceMeters>NAN</DistanceMeters>
          </Trackpoint>
          <Trackpoint>
            <Time>2022-07-10T16:56:34.000Z</Time>
            <Position>
              <LatitudeDegrees>43.3073619939386844635009765625</LatitudeDegrees>
              <LongitudeDegrees>-2.395361848175525665283203125</LongitudeDegrees>
            </Position>
            <AltitudeMeters>101.59999847412109375</AltitudeMeters>
            <DistanceMeters>NAN</DistanceMeters>
          </Trackpoint>
          <Trackpoint>
            <Time>2022-07-10T16:56:35.000Z</Time>
            <Position>
              <LatitudeDegrees>43.307450003921985626220703125</LatitudeDegrees>
              <LongitudeDegrees>-2.39541037939488887786865234375</LongitudeDegrees>
            </Position>
            <AltitudeMeters>101.1999969482421875</AltitudeMeters>
            <DistanceMeters>NAN</DistanceMeters>
          </Trackpoint>
          <Trackpoint>
            <Time>2022-07-10T16:56:38.000Z</Time>
            <Position>
              <LatitudeDegrees>43.30772786401212215423583984375</LatitudeDegrees>
              <LongitudeDegrees>-2.3955417238175868988037109375</LongitudeDegrees>
            </Position>
            <AltitudeMeters>100.40000152587890625</AltitudeMeters>
            <DistanceMeters>NAN</DistanceMeters>
          </Trackpoint>
          <Trackpoint>
            <Time>2022-07-10T16:56:40.000Z</Time>
            <Position>
              <LatitudeDegrees>43.3078940771520137786865234375</LatitudeDegrees>
              <LongitudeDegrees>-2.395697124302387237548828125</LongitudeDegrees>
            </Position>
            <AltitudeMeters>99</AltitudeMeters>
            <DistanceMeters>NAN</DistanceMeters>
          </Trackpoint>
          <Trackpoint>
            <Time>2022-07-10T16:56:41.000Z</Time>
            <Position>
              <LatitudeDegrees>43.3079634793102741241455078125</LatitudeDegrees>
              <LongitudeDegrees>-2.3957920074462890625</LongitudeDegrees>
            </Position>
            <AltitudeMeters>98</AltitudeMeters>
            <DistanceMeters>NAN</DistanceMeters>
          </Trackpoint>
          <Trackpoint>
            <Time>2022-07-10T16:56:42.000Z</Time>
            <Position>
              <LatitudeDegrees>43.3080214820802211761474609375</LatitudeDegrees>
              <LongitudeDegrees>-2.39589954726397991180419921875</LongitudeDegrees>
            </Position>
            <AltitudeMeters>97.1999969482421875</AltitudeMeters>
            <DistanceMeters>NAN</DistanceMeters>
          </Trackpoint>
          <Trackpoint>
            <Time>2022-07-10T16:56:43.000Z</Time>
            <Position>
              <LatitudeDegrees>43.30806833691895008087158203125</LatitudeDegrees>
              <LongitudeDegrees>-2.3960159718990325927734375</LongitudeDegrees>
            </Position>
            <AltitudeMeters>96.8000030517578125</AltitudeMeters>
            <DistanceMeters>NAN</DistanceMeters>
          </Trackpoint>
          <Trackpoint>
            <Time>2022-07-10T16:56:44.000Z</Time>
            <Position>
              <LatitudeDegrees>43.308104462921619415283203125</LatitudeDegrees>
              <LongitudeDegrees>-2.3961385153234004974365234375</LongitudeDegrees>
            </Position>
            <AltitudeMeters>96</AltitudeMeters>
            <DistanceMeters>NAN</DistanceMeters>
          </Trackpoint>
          <Trackpoint>
            <Time>2022-07-10T16:56:45.000Z</Time>
            <Position>
              <LatitudeDegrees>43.308134637773036956787109375</LatitudeDegrees>
              <LongitudeDegrees>-2.39627036266028881072998046875</LongitudeDegrees>
            </Position>
            <AltitudeMeters>94.8000030517578125</AltitudeMeters>
            <DistanceMeters>NAN</DistanceMeters>
          </Trackpoint>
          <Trackpoint>
            <Time>2022-07-10T16:56:46.000Z</Time>
            <Position>
              <LatitudeDegrees>43.3081492222845554351806640625</LatitudeDegrees>
              <LongitudeDegrees>-2.39640422165393829345703125</LongitudeDegrees>
            </Position>
            <AltitudeMeters>94.1999969482421875</AltitudeMeters>
            <DistanceMeters>NAN</DistanceMeters>
          </Trackpoint>
          <Trackpoint>
            <Time>2022-07-10T16:56:47.000Z</Time>
            <Position>
              <LatitudeDegrees>43.30815433524549007415771484375</LatitudeDegrees>
              <LongitudeDegrees>-2.3965441994369029998779296875</LongitudeDegrees>
            </Position>
            <AltitudeMeters>93.59999847412109375</AltitudeMeters>
            <DistanceMeters>NAN</DistanceMeters>
          </Trackpoint>
          <Trackpoint>
            <Time>2022-07-10T16:56:50.000Z</Time>
            <Position>
              <LatitudeDegrees>43.3081589452922344207763671875</LatitudeDegrees>
              <LongitudeDegrees>-2.3969525657594203948974609375</LongitudeDegrees>
            </Position>
            <AltitudeMeters>92.59999847412109375</AltitudeMeters>
            <DistanceMeters>NAN</DistanceMeters>
          </Trackpoint>
          <Trackpoint>
            <Time>2022-07-10T16:56:52.000Z</Time>
            <Position>
              <LatitudeDegrees>43.30817629583179950714111328125</LatitudeDegrees>
              <LongitudeDegrees>-2.39721517078578472137451171875</LongitudeDegrees>
            </Position>
            <AltitudeMeters>91.1999969482421875</AltitudeMeters>
            <DistanceMeters>NAN</DistanceMeters>
          </Trackpoint>
          <Trackpoint>
            <Time>2022-07-10T16:56:54.000Z</Time>
            <Position>
              <LatitudeDegrees>43.30816606990993022918701171875</LatitudeDegrees>
              <LongitudeDegrees>-2.3974732495844364166259765625</LongitudeDegrees>
            </Position>
            <AltitudeMeters>90.59999847412109375</AltitudeMeters>
            <DistanceMeters>NAN</DistanceMeters>
          </Trackpoint>
          <Trackpoint>
            <Time>2022-07-10T16:56:55.000Z</Time>
            <Position>
              <LatitudeDegrees>43.30815819092094898223876953125</LatitudeDegrees>
              <LongitudeDegrees>-2.39760358817875385284423828125</LongitudeDegrees>
            </Position>
            <AltitudeMeters>90.1999969482421875</AltitudeMeters>
            <DistanceMeters>NAN</DistanceMeters>
          </Trackpoint>
          <Trackpoint>
            <Time>2022-07-10T16:56:59.000Z</Time>
            <Position>
              <LatitudeDegrees>43.308140337467193603515625</LatitudeDegrees>
              <LongitudeDegrees>-2.39812829531729221343994140625</LongitudeDegrees>
            </Position>
            <AltitudeMeters>89.1999969482421875</AltitudeMeters>
            <DistanceMeters>NAN</DistanceMeters>
          </Trackpoint>
          <Trackpoint>
            <Time>2022-07-10T16:57:01.000Z</Time>
            <Position>
              <LatitudeDegrees>43.3081418462097644805908203125</LatitudeDegrees>
              <LongitudeDegrees>-2.398386038839817047119140625</LongitudeDegrees>
            </Position>
            <AltitudeMeters>88.1999969482421875</AltitudeMeters>
            <DistanceMeters>NAN</DistanceMeters>
          </Trackpoint>
          <Trackpoint>
            <Time>2022-07-10T16:57:02.000Z</Time>
            <Position>
              <LatitudeDegrees>43.3081468753516674041748046875</LatitudeDegrees>
              <LongitudeDegrees>-2.39851721562445163726806640625</LongitudeDegrees>
            </Position>
            <AltitudeMeters>87.8000030517578125</AltitudeMeters>
            <DistanceMeters>NAN</DistanceMeters>
          </Trackpoint>
          <Trackpoint>
            <Time>2022-07-10T16:57:06.000Z</Time>
            <Position>
              <LatitudeDegrees>43.3081591129302978515625</LatitudeDegrees>
              <LongitudeDegrees>-2.399044521152973175048828125</LongitudeDegrees>
            </Position>
            <AltitudeMeters>86.59999847412109375</AltitudeMeters>
            <DistanceMeters>NAN</DistanceMeters>
          </Trackpoint>
          <Trackpoint>
            <Time>2022-07-10T16:57:10.000Z</Time>
            <Position>
              <LatitudeDegrees>43.3081686682999134063720703125</LatitudeDegrees>
              <LongitudeDegrees>-2.39953578449785709381103515625</LongitudeDegrees>
            </Position>
            <AltitudeMeters>86</AltitudeMeters>
            <DistanceMeters>NAN</DistanceMeters>
          </Trackpoint>
          <Trackpoint>
            <Time>2022-07-10T16:57:11.000Z</Time>
            <Position>
              <LatitudeDegrees>43.3081716857850551605224609375</LatitudeDegrees>
              <LongitudeDegrees>-2.399653382599353790283203125</LongitudeDegrees>
            </Position>
            <AltitudeMeters>85.40000152587890625</AltitudeMeters>
            <DistanceMeters>NAN</DistanceMeters>
          </Trackpoint>
          <Trackpoint>
            <Time>2022-07-10T16:57:13.000Z</Time>
            <Position>
              <LatitudeDegrees>43.30817612819373607635498046875</LatitudeDegrees>
              <LongitudeDegrees>-2.39988447166979312896728515625</LongitudeDegrees>
            </Position>
            <AltitudeMeters>84.8000030517578125</AltitudeMeters>
            <DistanceMeters>NAN</DistanceMeters>
          </Trackpoint>
          <Trackpoint>
            <Time>2022-07-10T16:57:18.000Z</Time>
            <Position>
              <LatitudeDegrees>43.30819892697036266326904296875</LatitudeDegrees>
              <LongitudeDegrees>-2.40041923709213733673095703125</LongitudeDegrees>
            </Position>
            <AltitudeMeters>84.40000152587890625</AltitudeMeters>
            <DistanceMeters>NAN</DistanceMeters>
          </Trackpoint>
          <Trackpoint>
            <Time>2022-07-10T16:57:25.000Z</Time>
            <Position>
              <LatitudeDegrees>43.30820848233997821807861328125</LatitudeDegrees>
              <LongitudeDegrees>-2.40111887454986572265625</LongitudeDegrees>
            </Position>
            <AltitudeMeters>83.59999847412109375</AltitudeMeters>
            <DistanceMeters>NAN</DistanceMeters>
          </Trackpoint>
          <Trackpoint>
            <Time>2022-07-10T16:57:26.000Z</Time>
            <Position>
              <LatitudeDegrees>43.308209739625453948974609375</LatitudeDegrees>
              <LongitudeDegrees>-2.4012199603021144866943359375</LongitudeDegrees>
            </Position>
            <AltitudeMeters>83.1999969482421875</AltitudeMeters>
            <DistanceMeters>NAN</DistanceMeters>
          </Trackpoint>
          <Trackpoint>
            <Time>2022-07-10T16:57:27.000Z</Time>
            <Position>
              <LatitudeDegrees>43.30821032635867595672607421875</LatitudeDegrees>
              <LongitudeDegrees>-2.4013240635395050048828125</LongitudeDegrees>
            </Position>
            <AltitudeMeters>83</AltitudeMeters>
            <DistanceMeters>NAN</DistanceMeters>
          </Trackpoint>
          <Trackpoint>
            <Time>2022-07-10T16:57:31.000Z</Time>
            <Position>
              <LatitudeDegrees>43.30823027528822422027587890625</LatitudeDegrees>
              <LongitudeDegrees>-2.40174994803965091705322265625</LongitudeDegrees>
            </Position>
            <AltitudeMeters>81.8000030517578125</AltitudeMeters>
            <DistanceMeters>NAN</DistanceMeters>
          </Trackpoint>
          <Trackpoint>
            <Time>2022-07-10T16:57:35.000Z</Time>
            <Position>
              <LatitudeDegrees>43.30824603326618671417236328125</LatitudeDegrees>
              <LongitudeDegrees>-2.40218832157552242279052734375</LongitudeDegrees>
            </Position>
            <AltitudeMeters>81</AltitudeMeters>
            <DistanceMeters>NAN</DistanceMeters>
          </Trackpoint>
          <Trackpoint>
            <Time>2022-07-10T16:57:37.000Z</Time>
            <Position>
              <LatitudeDegrees>43.308251984417438507080078125</LatitudeDegrees>
              <LongitudeDegrees>-2.40240692161023616790771484375</LongitudeDegrees>
            </Position>
            <AltitudeMeters>80.8000030517578125</AltitudeMeters>
            <DistanceMeters>NAN</DistanceMeters>
          </Trackpoint>
          <Trackpoint>
            <Time>2022-07-10T16:57:40.000Z</Time>
            <Position>
              <LatitudeDegrees>43.30825592391192913055419921875</LatitudeDegrees>
              <LongitudeDegrees>-2.40272124297916889190673828125</LongitudeDegrees>
            </Position>
            <AltitudeMeters>80.40000152587890625</AltitudeMeters>
            <DistanceMeters>NAN</DistanceMeters>
          </Trackpoint>
          <Trackpoint>
            <Time>2022-07-10T16:57:43.000Z</Time>
            <Position>
              <LatitudeDegrees>43.30826967023313045501708984375</LatitudeDegrees>
              <LongitudeDegrees>-2.403024919331073760986328125</LongitudeDegrees>
            </Position>
            <AltitudeMeters>80</AltitudeMeters>
            <DistanceMeters>NAN</DistanceMeters>
          </Trackpoint>
          <Trackpoint>
            <Time>2022-07-10T16:57:46.000Z</Time>
            <Position>
              <LatitudeDegrees>43.3082729391753673553466796875</LatitudeDegrees>
              <LongitudeDegrees>-2.40331468172371387481689453125</LongitudeDegrees>
            </Position>
            <AltitudeMeters>80</AltitudeMeters>
            <DistanceMeters>NAN</DistanceMeters>
          </Trackpoint>
          <Trackpoint>
            <Time>2022-07-10T16:57:49.000Z</Time>
            <Position>
              <LatitudeDegrees>43.30828157253563404083251953125</LatitudeDegrees>
              <LongitudeDegrees>-2.40359614603221416473388671875</LongitudeDegrees>
            </Position>
            <AltitudeMeters>80.1999969482421875</AltitudeMeters>
            <DistanceMeters>NAN</DistanceMeters>
          </Trackpoint>
          <Trackpoint>
            <Time>2022-07-10T16:57:55.000Z</Time>
            <Position>
              <LatitudeDegrees>43.30835164524614810943603515625</LatitudeDegrees>
              <LongitudeDegrees>-2.40413527004420757293701171875</LongitudeDegrees>
            </Position>
            <AltitudeMeters>79.8000030517578125</AltitudeMeters>
            <DistanceMeters>NAN</DistanceMeters>
          </Trackpoint>
          <Trackpoint>
            <Time>2022-07-10T16:57:56.000Z</Time>
            <Position>
              <LatitudeDegrees>43.30837276764214038848876953125</LatitudeDegrees>
              <LongitudeDegrees>-2.4042159877717494964599609375</LongitudeDegrees>
            </Position>
            <AltitudeMeters>79.8000030517578125</AltitudeMeters>
            <DistanceMeters>NAN</DistanceMeters>
          </Trackpoint>
          <Trackpoint>
            <Time>2022-07-10T16:58:00.000Z</Time>
            <Position>
              <LatitudeDegrees>43.3084824867546558380126953125</LatitudeDegrees>
              <LongitudeDegrees>-2.40454338490962982177734375</LongitudeDegrees>
            </Position>
            <AltitudeMeters>78.8000030517578125</AltitudeMeters>
            <DistanceMeters>NAN</DistanceMeters>
          </Trackpoint>
          <Trackpoint>
            <Time>2022-07-10T16:58:02.000Z</Time>
            <Position>
              <LatitudeDegrees>43.3085414953529834747314453125</LatitudeDegrees>
              <LongitudeDegrees>-2.4046893976628780364990234375</LongitudeDegrees>
            </Position>
            <AltitudeMeters>78</AltitudeMeters>
            <DistanceMeters>NAN</DistanceMeters>
          </Trackpoint>
          <Trackpoint>
            <Time>2022-07-10T16:58:04.000Z</Time>
            <Position>
              <LatitudeDegrees>43.3086041919887065887451171875</LatitudeDegrees>
              <LongitudeDegrees>-2.40483105182647705078125</LongitudeDegrees>
            </Position>
            <AltitudeMeters>77.59999847412109375</AltitudeMeters>
            <DistanceMeters>NAN</DistanceMeters>
          </Trackpoint>
          <Trackpoint>
            <Time>2022-07-10T16:58:10.000Z</Time>
            <Position>
              <LatitudeDegrees>43.3087594248354434967041015625</LatitudeDegrees>
              <LongitudeDegrees>-2.40524637512862682342529296875</LongitudeDegrees>
            </Position>
            <AltitudeMeters>77</AltitudeMeters>
            <DistanceMeters>NAN</DistanceMeters>
          </Trackpoint>
          <Trackpoint>
            <Time>2022-07-10T16:58:14.000Z</Time>
            <Position>
              <LatitudeDegrees>43.30886260606348514556884765625</LatitudeDegrees>
              <LongitudeDegrees>-2.40558148361742496490478515625</LongitudeDegrees>
            </Position>
            <AltitudeMeters>76.40000152587890625</AltitudeMeters>
            <DistanceMeters>NAN</DistanceMeters>
          </Trackpoint>
          <Trackpoint>
            <Time>2022-07-10T16:58:19.000Z</Time>
            <Position>
              <LatitudeDegrees>43.30899487249553203582763671875</LatitudeDegrees>
              <LongitudeDegrees>-2.40600158460438251495361328125</LongitudeDegrees>
            </Position>
            <AltitudeMeters>75.8000030517578125</AltitudeMeters>
            <DistanceMeters>NAN</DistanceMeters>
          </Trackpoint>
          <Trackpoint>
            <Time>2022-07-10T16:58:23.000Z</Time>
            <Position>
              <LatitudeDegrees>43.30908992327749729156494140625</LatitudeDegrees>
              <LongitudeDegrees>-2.40633116103708744049072265625</LongitudeDegrees>
            </Position>
            <AltitudeMeters>75</AltitudeMeters>
            <DistanceMeters>NAN</DistanceMeters>
          </Trackpoint>
          <Trackpoint>
            <Time>2022-07-10T16:58:27.000Z</Time>
            <Position>
              <LatitudeDegrees>43.3091808669269084930419921875</LatitudeDegrees>
              <LongitudeDegrees>-2.4066564626991748809814453125</LongitudeDegrees>
            </Position>
            <AltitudeMeters>74.1999969482421875</AltitudeMeters>
            <DistanceMeters>NAN</DistanceMeters>
          </Trackpoint>
          <Trackpoint>
            <Time>2022-07-10T16:58:29.000Z</Time>
            <Position>
              <LatitudeDegrees>43.30923325382173061370849609375</LatitudeDegrees>
              <LongitudeDegrees>-2.40682167001068592071533203125</LongitudeDegrees>
            </Position>
            <AltitudeMeters>73.8000030517578125</AltitudeMeters>
            <DistanceMeters>NAN</DistanceMeters>
          </Trackpoint>
          <Trackpoint>
            <Time>2022-07-10T16:58:35.000Z</Time>
            <Position>
              <LatitudeDegrees>43.30937591381371021270751953125</LatitudeDegrees>
              <LongitudeDegrees>-2.4073255062103271484375</LongitudeDegrees>
            </Position>
            <AltitudeMeters>73.1999969482421875</AltitudeMeters>
            <DistanceMeters>NAN</DistanceMeters>
          </Trackpoint>
          <Trackpoint>
            <Time>2022-07-10T16:58:42.000Z</Time>
            <Position>
              <LatitudeDegrees>43.3095391094684600830078125</LatitudeDegrees>
              <LongitudeDegrees>-2.407882399857044219970703125</LongitudeDegrees>
            </Position>
            <AltitudeMeters>72.59999847412109375</AltitudeMeters>
            <DistanceMeters>NAN</DistanceMeters>
          </Trackpoint>
          <Trackpoint>
            <Time>2022-07-10T16:58:45.000Z</Time>
            <Position>
              <LatitudeDegrees>43.30960205756127834320068359375</LatitudeDegrees>
              <LongitudeDegrees>-2.40810996852815151214599609375</LongitudeDegrees>
            </Position>
            <AltitudeMeters>71.8000030517578125</AltitudeMeters>
            <DistanceMeters>NAN</DistanceMeters>
          </Trackpoint>
          <Trackpoint>
            <Time>2022-07-10T16:58:46.000Z</Time>
            <Position>
              <LatitudeDegrees>43.30962586216628551483154296875</LatitudeDegrees>
              <LongitudeDegrees>-2.40818984806537628173828125</LongitudeDegrees>
            </Position>
            <AltitudeMeters>71.59999847412109375</AltitudeMeters>
            <DistanceMeters>NAN</DistanceMeters>
          </Trackpoint>
          <Trackpoint>
            <Time>2022-07-10T16:58:48.000Z</Time>
            <Position>
              <LatitudeDegrees>43.309676237404346466064453125</LatitudeDegrees>
              <LongitudeDegrees>-2.4083496071398258209228515625</LongitudeDegrees>
            </Position>
            <AltitudeMeters>71.40000152587890625</AltitudeMeters>
            <DistanceMeters>NAN</DistanceMeters>
          </Trackpoint>
          <Trackpoint>
            <Time>2022-07-10T16:58:51.000Z</Time>
            <Position>
              <LatitudeDegrees>43.3097590506076812744140625</LatitudeDegrees>
              <LongitudeDegrees>-2.4085661955177783966064453125</LongitudeDegrees>
            </Position>
            <AltitudeMeters>71.1999969482421875</AltitudeMeters>
            <DistanceMeters>NAN</DistanceMeters>
          </Trackpoint>
          <Trackpoint>
            <Time>2022-07-10T16:58:54.000Z</Time>
            <Position>
              <LatitudeDegrees>43.30987463705241680145263671875</LatitudeDegrees>
              <LongitudeDegrees>-2.408746741712093353271484375</LongitudeDegrees>
            </Position>
            <AltitudeMeters>70.8000030517578125</AltitudeMeters>
            <DistanceMeters>NAN</DistanceMeters>
          </Trackpoint>
          <Trackpoint>
            <Time>2022-07-10T16:58:59.000Z</Time>
            <Position>
              <LatitudeDegrees>43.31010438501834869384765625</LatitudeDegrees>
              <LongitudeDegrees>-2.4089879728853702545166015625</LongitudeDegrees>
            </Position>
            <AltitudeMeters>70.59999847412109375</AltitudeMeters>
            <DistanceMeters>NAN</DistanceMeters>
          </Trackpoint>
          <Trackpoint>
            <Time>2022-07-10T16:59:00.000Z</Time>
            <Position>
              <LatitudeDegrees>43.3101474680006504058837890625</LatitudeDegrees>
              <LongitudeDegrees>-2.40904010832309722900390625</LongitudeDegrees>
            </Position>
            <AltitudeMeters>70.59999847412109375</AltitudeMeters>
            <DistanceMeters>NAN</DistanceMeters>
          </Trackpoint>
          <Trackpoint>
            <Time>2022-07-10T16:59:05.000Z</Time>
            <Position>
              <LatitudeDegrees>43.31036330200731754302978515625</LatitudeDegrees>
              <LongitudeDegrees>-2.40928477607667446136474609375</LongitudeDegrees>
            </Position>
            <AltitudeMeters>69.40000152587890625</AltitudeMeters>
            <DistanceMeters>NAN</DistanceMeters>
          </Trackpoint>
          <Trackpoint>
            <Time>2022-07-10T16:59:09.000Z</Time>
            <Position>
              <LatitudeDegrees>43.31052691675722599029541015625</LatitudeDegrees>
              <LongitudeDegrees>-2.40947286598384380340576171875</LongitudeDegrees>
            </Position>
            <AltitudeMeters>68.8000030517578125</AltitudeMeters>
            <DistanceMeters>NAN</DistanceMeters>
          </Trackpoint>
          <Trackpoint>
            <Time>2022-07-10T16:59:17.000Z</Time>
            <Position>
              <LatitudeDegrees>43.31085766665637493133544921875</LatitudeDegrees>
              <LongitudeDegrees>-2.4098174460232257843017578125</LongitudeDegrees>
            </Position>
            <AltitudeMeters>68.40000152587890625</AltitudeMeters>
            <DistanceMeters>NAN</DistanceMeters>
          </Trackpoint>
          <Trackpoint>
            <Time>2022-07-10T16:59:18.000Z</Time>
            <Position>
              <LatitudeDegrees>43.3109001629054546356201171875</LatitudeDegrees>
              <LongitudeDegrees>-2.409851811826229095458984375</LongitudeDegrees>
            </Position>
            <AltitudeMeters>68.1999969482421875</AltitudeMeters>
            <DistanceMeters>NAN</DistanceMeters>
          </Trackpoint>
          <Trackpoint>
            <Time>2022-07-10T16:59:20.000Z</Time>
            <Position>
              <LatitudeDegrees>43.31098222173750400543212890625</LatitudeDegrees>
              <LongitudeDegrees>-2.40992297418415546417236328125</LongitudeDegrees>
            </Position>
            <AltitudeMeters>68</AltitudeMeters>
            <DistanceMeters>NAN</DistanceMeters>
          </Trackpoint>
          <Trackpoint>
            <Time>2022-07-10T16:59:25.000Z</Time>
            <Position>
              <LatitudeDegrees>43.31120400689542293548583984375</LatitudeDegrees>
              <LongitudeDegrees>-2.410075776278972625732421875</LongitudeDegrees>
            </Position>
            <AltitudeMeters>67.8000030517578125</AltitudeMeters>
            <DistanceMeters>NAN</DistanceMeters>
          </Trackpoint>
          <Trackpoint>
            <Time>2022-07-10T16:59:34.000Z</Time>
            <Position>
              <LatitudeDegrees>43.311604745686054229736328125</LatitudeDegrees>
              <LongitudeDegrees>-2.41022296249866485595703125</LongitudeDegrees>
            </Position>
            <AltitudeMeters>67.59999847412109375</AltitudeMeters>
            <DistanceMeters>NAN</DistanceMeters>
          </Trackpoint>
          <Trackpoint>
            <Time>2022-07-10T16:59:37.000Z</Time>
            <Position>
              <LatitudeDegrees>43.31174748949706554412841796875</LatitudeDegrees>
              <LongitudeDegrees>-2.410240732133388519287109375</LongitudeDegrees>
            </Position>
            <AltitudeMeters>67.1999969482421875</AltitudeMeters>
            <DistanceMeters>NAN</DistanceMeters>
          </Trackpoint>
          <Trackpoint>
            <Time>2022-07-10T16:59:41.000Z</Time>
            <Position>
              <LatitudeDegrees>43.31193792633712291717529296875</LatitudeDegrees>
              <LongitudeDegrees>-2.41027585230767726898193359375</LongitudeDegrees>
            </Position>
            <AltitudeMeters>66.59999847412109375</AltitudeMeters>
            <DistanceMeters>NAN</DistanceMeters>
          </Trackpoint>
          <Trackpoint>
            <Time>2022-07-10T16:59:53.000Z</Time>
            <Position>
              <LatitudeDegrees>43.31248350441455841064453125</LatitudeDegrees>
              <LongitudeDegrees>-2.41035246290266513824462890625</LongitudeDegrees>
            </Position>
            <AltitudeMeters>66.40000152587890625</AltitudeMeters>
            <DistanceMeters>NAN</DistanceMeters>
          </Trackpoint>
          <Trackpoint>
            <Time>2022-07-10T16:59:56.000Z</Time>
            <Position>
              <LatitudeDegrees>43.31261384300887584686279296875</LatitudeDegrees>
              <LongitudeDegrees>-2.4103807099163532257080078125</LongitudeDegrees>
            </Position>
            <AltitudeMeters>66.1999969482421875</AltitudeMeters>
            <DistanceMeters>NAN</DistanceMeters>
          </Trackpoint>
          <Trackpoint>
            <Time>2022-07-10T16:59:58.000Z</Time>
            <Position>
              <LatitudeDegrees>43.3126918785274028778076171875</LatitudeDegrees>
              <LongitudeDegrees>-2.41040023975074291229248046875</LongitudeDegrees>
            </Position>
            <AltitudeMeters>66.1999969482421875</AltitudeMeters>
            <DistanceMeters>NAN</DistanceMeters>
          </Trackpoint>
          <Trackpoint>
            <Time>2022-07-10T17:00:04.000Z</Time>
            <Position>
              <LatitudeDegrees>43.31291944719851016998291015625</LatitudeDegrees>
              <LongitudeDegrees>-2.4104806222021579742431640625</LongitudeDegrees>
            </Position>
            <AltitudeMeters>66.40000152587890625</AltitudeMeters>
            <DistanceMeters>NAN</DistanceMeters>
          </Trackpoint>
          <Trackpoint>
            <Time>2022-07-10T17:00:09.000Z</Time>
            <Position>
              <LatitudeDegrees>43.313094712793827056884765625</LatitudeDegrees>
              <LongitudeDegrees>-2.410576343536376953125</LongitudeDegrees>
            </Position>
            <AltitudeMeters>66.40000152587890625</AltitudeMeters>
            <DistanceMeters>NAN</DistanceMeters>
          </Trackpoint>
          <Trackpoint>
            <Time>2022-07-10T17:00:14.000Z</Time>
            <Position>
              <LatitudeDegrees>43.31331239081919193267822265625</LatitudeDegrees>
              <LongitudeDegrees>-2.41067952476441860198974609375</LongitudeDegrees>
            </Position>
            <AltitudeMeters>66.1999969482421875</AltitudeMeters>
            <DistanceMeters>NAN</DistanceMeters>
          </Trackpoint>
          <Trackpoint>
            <Time>2022-07-10T17:00:22.000Z</Time>
            <Position>
              <LatitudeDegrees>43.31371472217142581939697265625</LatitudeDegrees>
              <LongitudeDegrees>-2.4108450673520565032958984375</LongitudeDegrees>
            </Position>
            <AltitudeMeters>65</AltitudeMeters>
            <DistanceMeters>NAN</DistanceMeters>
          </Trackpoint>
          <Trackpoint>
            <Time>2022-07-10T17:00:23.000Z</Time>
            <Position>
              <LatitudeDegrees>43.31376886926591396331787109375</LatitudeDegrees>
              <LongitudeDegrees>-2.410870380699634552001953125</LongitudeDegrees>
            </Position>
            <AltitudeMeters>64.8000030517578125</AltitudeMeters>
            <DistanceMeters>NAN</DistanceMeters>
          </Trackpoint>
          <Trackpoint>
            <Time>2022-07-10T17:00:30.000Z</Time>
            <Position>
              <LatitudeDegrees>43.3141292072832584381103515625</LatitudeDegrees>
              <LongitudeDegrees>-2.4110229313373565673828125</LongitudeDegrees>
            </Position>
            <AltitudeMeters>64</AltitudeMeters>
            <DistanceMeters>NAN</DistanceMeters>
          </Trackpoint>
          <Trackpoint>
            <Time>2022-07-10T17:00:34.000Z</Time>
            <Position>
              <LatitudeDegrees>43.3143407665193080902099609375</LatitudeDegrees>
              <LongitudeDegrees>-2.41111404262483119964599609375</LongitudeDegrees>
            </Position>
            <AltitudeMeters>63.59999847412109375</AltitudeMeters>
            <DistanceMeters>NAN</DistanceMeters>
          </Trackpoint>
          <Trackpoint>
            <Time>2022-07-10T17:00:41.000Z</Time>
            <Position>
              <LatitudeDegrees>43.3147243224084377288818359375</LatitudeDegrees>
              <LongitudeDegrees>-2.4112688563764095306396484375</LongitudeDegrees>
            </Position>
            <AltitudeMeters>63</AltitudeMeters>
            <DistanceMeters>NAN</DistanceMeters>
          </Trackpoint>
          <Trackpoint>
            <Time>2022-07-10T17:00:44.000Z</Time>
            <Position>
              <LatitudeDegrees>43.31489942036569118499755859375</LatitudeDegrees>
              <LongitudeDegrees>-2.411329038441181182861328125</LongitudeDegrees>
            </Position>
            <AltitudeMeters>62.799999237060546875</AltitudeMeters>
            <DistanceMeters>NAN</DistanceMeters>
          </Trackpoint>
          <Trackpoint>
            <Time>2022-07-10T17:00:50.000Z</Time>
            <Position>
              <LatitudeDegrees>43.31521139480173587799072265625</LatitudeDegrees>
              <LongitudeDegrees>-2.41137723438441753387451171875</LongitudeDegrees>
            </Position>
            <AltitudeMeters>63</AltitudeMeters>
            <DistanceMeters>NAN</DistanceMeters>
          </Trackpoint>
          <Trackpoint>
            <Time>2022-07-10T17:00:52.000Z</Time>
            <Position>
              <LatitudeDegrees>43.3152996562421321868896484375</LatitudeDegrees>
              <LongitudeDegrees>-2.41136382333934307098388671875</LongitudeDegrees>
            </Position>
            <AltitudeMeters>62.799999237060546875</AltitudeMeters>
            <DistanceMeters>NAN</DistanceMeters>
          </Trackpoint>
          <Trackpoint>
            <Time>2022-07-10T17:00:55.000Z</Time>
            <Position>
              <LatitudeDegrees>43.31541557796299457550048828125</LatitudeDegrees>
              <LongitudeDegrees>-2.41128972731530666351318359375</LongitudeDegrees>
            </Position>
            <AltitudeMeters>62.799999237060546875</AltitudeMeters>
            <DistanceMeters>NAN</DistanceMeters>
          </Trackpoint>
          <Trackpoint>
            <Time>2022-07-10T17:00:58.000Z</Time>
            <Position>
              <LatitudeDegrees>43.3155229501426219940185546875</LatitudeDegrees>
              <LongitudeDegrees>-2.411223091185092926025390625</LongitudeDegrees>
            </Position>
            <AltitudeMeters>63</AltitudeMeters>
            <DistanceMeters>NAN</DistanceMeters>
          </Trackpoint>
          <Trackpoint>
            <Time>2022-07-10T17:01:02.000Z</Time>
            <Position>
              <LatitudeDegrees>43.31564708612859249114990234375</LatitudeDegrees>
              <LongitudeDegrees>-2.41111136041581630706787109375</LongitudeDegrees>
            </Position>
            <AltitudeMeters>63</AltitudeMeters>
            <DistanceMeters>NAN</DistanceMeters>
          </Trackpoint>
          <Trackpoint>
            <Time>2022-07-10T17:01:08.000Z</Time>
            <Position>
              <LatitudeDegrees>43.3158166520297527313232421875</LatitudeDegrees>
              <LongitudeDegrees>-2.41098043508827686309814453125</LongitudeDegrees>
            </Position>
            <AltitudeMeters>63.200000762939453125</AltitudeMeters>
            <DistanceMeters>NAN</DistanceMeters>
          </Trackpoint>
          <Trackpoint>
            <Time>2022-07-10T17:01:11.000Z</Time>
            <Position>
              <LatitudeDegrees>43.31587524153292179107666015625</LatitudeDegrees>
              <LongitudeDegrees>-2.4108816124498844146728515625</LongitudeDegrees>
            </Position>
            <AltitudeMeters>63.40000152587890625</AltitudeMeters>
            <DistanceMeters>NAN</DistanceMeters>
          </Trackpoint>
          <Trackpoint>
            <Time>2022-07-10T17:01:12.000Z</Time>
            <Position>
              <LatitudeDegrees>43.315893597900867462158203125</LatitudeDegrees>
              <LongitudeDegrees>-2.41087163798511028289794921875</LongitudeDegrees>
            </Position>
            <AltitudeMeters>63.40000152587890625</AltitudeMeters>
            <DistanceMeters>NAN</DistanceMeters>
          </Trackpoint>
          <Trackpoint>
            <Time>2022-07-10T17:01:14.000Z</Time>
            <Position>
              <LatitudeDegrees>43.3159281313419342041015625</LatitudeDegrees>
              <LongitudeDegrees>-2.4108646810054779052734375</LongitudeDegrees>
            </Position>
            <AltitudeMeters>63.59999847412109375</AltitudeMeters>
            <DistanceMeters>NAN</DistanceMeters>
          </Trackpoint>
          <Trackpoint>
            <Time>2022-07-10T17:01:16.000Z</Time>
            <Position>
              <LatitudeDegrees>43.315958641469478607177734375</LatitudeDegrees>
              <LongitudeDegrees>-2.4108807742595672607421875</LongitudeDegrees>
            </Position>
            <AltitudeMeters>63.59999847412109375</AltitudeMeters>
            <DistanceMeters>NAN</DistanceMeters>
          </Trackpoint>
          <Trackpoint>
            <Time>2022-07-10T17:01:18.000Z</Time>
            <Position>
              <LatitudeDegrees>43.3159916661679744720458984375</LatitudeDegrees>
              <LongitudeDegrees>-2.41086275316774845123291015625</LongitudeDegrees>
            </Position>
            <AltitudeMeters>64</AltitudeMeters>
            <DistanceMeters>NAN</DistanceMeters>
          </Trackpoint>
          <Trackpoint>
            <Time>2022-07-10T17:01:20.000Z</Time>
            <Position>
              <LatitudeDegrees>43.3160288818180561065673828125</LatitudeDegrees>
              <LongitudeDegrees>-2.4108512699604034423828125</LongitudeDegrees>
            </Position>
            <AltitudeMeters>64</AltitudeMeters>
            <DistanceMeters>NAN</DistanceMeters>
          </Trackpoint>
          <Trackpoint>
            <Time>2022-07-10T17:01:21.000Z</Time>
            <Position>
              <LatitudeDegrees>43.31603785045444965362548828125</LatitudeDegrees>
              <LongitudeDegrees>-2.410837523639202117919921875</LongitudeDegrees>
            </Position>
            <AltitudeMeters>64.1999969482421875</AltitudeMeters>
            <DistanceMeters>NAN</DistanceMeters>
          </Trackpoint>
          <Trackpoint>
            <Time>2022-07-10T17:01:23.000Z</Time>
            <Position>
              <LatitudeDegrees>43.316063582897186279296875</LatitudeDegrees>
              <LongitudeDegrees>-2.4108279682695865631103515625</LongitudeDegrees>
            </Position>
            <AltitudeMeters>64.40000152587890625</AltitudeMeters>
            <DistanceMeters>NAN</DistanceMeters>
          </Trackpoint>
          <Trackpoint>
            <Time>2022-07-10T17:01:25.000Z</Time>
            <Position>
              <LatitudeDegrees>43.31611731089651584625244140625</LatitudeDegrees>
              <LongitudeDegrees>-2.41083626635372638702392578125</LongitudeDegrees>
            </Position>
            <AltitudeMeters>64.40000152587890625</AltitudeMeters>
            <DistanceMeters>NAN</DistanceMeters>
          </Trackpoint>
          <Trackpoint>
            <Time>2022-07-10T17:01:29.000Z</Time>
            <Position>
              <LatitudeDegrees>43.31629500724375247955322265625</LatitudeDegrees>
              <LongitudeDegrees>-2.41087214089930057525634765625</LongitudeDegrees>
            </Position>
            <AltitudeMeters>64.59999847412109375</AltitudeMeters>
            <DistanceMeters>NAN</DistanceMeters>
          </Trackpoint>
          <Trackpoint>
            <Time>2022-07-10T17:01:34.000Z</Time>
            <Position>
              <LatitudeDegrees>43.31650321371853351593017578125</LatitudeDegrees>
              <LongitudeDegrees>-2.41083073429763317108154296875</LongitudeDegrees>
            </Position>
            <AltitudeMeters>64.40000152587890625</AltitudeMeters>
            <DistanceMeters>NAN</DistanceMeters>
          </Trackpoint>
          <Trackpoint>
            <Time>2022-07-10T17:01:38.000Z</Time>
            <Position>
              <LatitudeDegrees>43.31665928475558757781982421875</LatitudeDegrees>
              <LongitudeDegrees>-2.4108048342168331146240234375</LongitudeDegrees>
            </Position>
            <AltitudeMeters>63.799999237060546875</AltitudeMeters>
            <DistanceMeters>NAN</DistanceMeters>
          </Trackpoint>
          <Trackpoint>
            <Time>2022-07-10T17:01:39.000Z</Time>
            <Position>
              <LatitudeDegrees>43.316708989441394805908203125</LatitudeDegrees>
              <LongitudeDegrees>-2.410813383758068084716796875</LongitudeDegrees>
            </Position>
            <AltitudeMeters>63.799999237060546875</AltitudeMeters>
            <DistanceMeters>NAN</DistanceMeters>
          </Trackpoint>
          <Trackpoint>
            <Time>2022-07-10T17:01:45.000Z</Time>
            <Position>
              <LatitudeDegrees>43.3170251548290252685546875</LatitudeDegrees>
              <LongitudeDegrees>-2.41092058829963207244873046875</LongitudeDegrees>
            </Position>
            <AltitudeMeters>63.59999847412109375</AltitudeMeters>
            <DistanceMeters>NAN</DistanceMeters>
          </Trackpoint>
          <Trackpoint>
            <Time>2022-07-10T17:01:50.000Z</Time>
            <Position>
              <LatitudeDegrees>43.3172352053225040435791015625</LatitudeDegrees>
              <LongitudeDegrees>-2.41107095964252948760986328125</LongitudeDegrees>
            </Position>
            <AltitudeMeters>63.59999847412109375</AltitudeMeters>
            <DistanceMeters>NAN</DistanceMeters>
          </Trackpoint>
          <Trackpoint>
            <Time>2022-07-10T17:01:51.000Z</Time>
            <Position>
              <LatitudeDegrees>43.3172740973532199859619140625</LatitudeDegrees>
              <LongitudeDegrees>-2.41110742092132568359375</LongitudeDegrees>
            </Position>
            <AltitudeMeters>63.59999847412109375</AltitudeMeters>
            <DistanceMeters>NAN</DistanceMeters>
          </Trackpoint>
          <Trackpoint>
            <Time>2022-07-10T17:01:54.000Z</Time>
            <Position>
              <LatitudeDegrees>43.31738364882767200469970703125</LatitudeDegrees>
              <LongitudeDegrees>-2.4111746437847614288330078125</LongitudeDegrees>
            </Position>
            <AltitudeMeters>63.59999847412109375</AltitudeMeters>
            <DistanceMeters>NAN</DistanceMeters>
          </Trackpoint>
          <Trackpoint>
            <Time>2022-07-10T17:01:56.000Z</Time>
            <Position>
              <LatitudeDegrees>43.3174601756036281585693359375</LatitudeDegrees>
              <LongitudeDegrees>-2.4112363345921039581298828125</LongitudeDegrees>
            </Position>
            <AltitudeMeters>63.59999847412109375</AltitudeMeters>
            <DistanceMeters>NAN</DistanceMeters>
          </Trackpoint>
          <Trackpoint>
            <Time>2022-07-10T17:01:57.000Z</Time>
            <Position>
              <LatitudeDegrees>43.31750149838626384735107421875</LatitudeDegrees>
              <LongitudeDegrees>-2.411260642111301422119140625</LongitudeDegrees>
            </Position>
            <AltitudeMeters>63.59999847412109375</AltitudeMeters>
            <DistanceMeters>NAN</DistanceMeters>
          </Trackpoint>
          <Trackpoint>
            <Time>2022-07-10T17:01:59.000Z</Time>
            <Position>
              <LatitudeDegrees>43.31761415116488933563232421875</LatitudeDegrees>
              <LongitudeDegrees>-2.41131118498742580413818359375</LongitudeDegrees>
            </Position>
            <AltitudeMeters>63.40000152587890625</AltitudeMeters>
            <DistanceMeters>NAN</DistanceMeters>
          </Trackpoint>
          <Trackpoint>
            <Time>2022-07-10T17:02:01.000Z</Time>
            <Position>
              <LatitudeDegrees>43.317712135612964630126953125</LatitudeDegrees>
              <LongitudeDegrees>-2.41131202317774295806884765625</LongitudeDegrees>
            </Position>
            <AltitudeMeters>63.200000762939453125</AltitudeMeters>
            <DistanceMeters>NAN</DistanceMeters>
          </Trackpoint>
          <Trackpoint>
            <Time>2022-07-10T17:02:02.000Z</Time>
            <Position>
              <LatitudeDegrees>43.31777357496321201324462890625</LatitudeDegrees>
              <LongitudeDegrees>-2.411319650709629058837890625</LongitudeDegrees>
            </Position>
            <AltitudeMeters>63</AltitudeMeters>
            <DistanceMeters>NAN</DistanceMeters>
          </Trackpoint>
          <Trackpoint>
            <Time>2022-07-10T17:02:03.000Z</Time>
            <Position>
              <LatitudeDegrees>43.31782386638224124908447265625</LatitudeDegrees>
              <LongitudeDegrees>-2.41132208146154880523681640625</LongitudeDegrees>
            </Position>
            <AltitudeMeters>62.799999237060546875</AltitudeMeters>
            <DistanceMeters>NAN</DistanceMeters>
          </Trackpoint>
          <Trackpoint>
            <Time>2022-07-10T17:02:08.000Z</Time>
            <Position>
              <LatitudeDegrees>43.31814028322696685791015625</LatitudeDegrees>
              <LongitudeDegrees>-2.41130657494068145751953125</LongitudeDegrees>
            </Position>
            <AltitudeMeters>61.59999847412109375</AltitudeMeters>
            <DistanceMeters>NAN</DistanceMeters>
          </Trackpoint>
          <Trackpoint>
            <Time>2022-07-10T17:02:14.000Z</Time>
            <Position>
              <LatitudeDegrees>43.318500705063343048095703125</LatitudeDegrees>
              <LongitudeDegrees>-2.411192916333675384521484375</LongitudeDegrees>
            </Position>
            <AltitudeMeters>60.40000152587890625</AltitudeMeters>
            <DistanceMeters>NAN</DistanceMeters>
          </Trackpoint>
          <Trackpoint>
            <Time>2022-07-10T17:02:16.000Z</Time>
            <Position>
              <LatitudeDegrees>43.3186011202633380889892578125</LatitudeDegrees>
              <LongitudeDegrees>-2.411233820021152496337890625</LongitudeDegrees>
            </Position>
            <AltitudeMeters>60.40000152587890625</AltitudeMeters>
            <DistanceMeters>NAN</DistanceMeters>
          </Trackpoint>
          <Trackpoint>
            <Time>2022-07-10T17:02:18.000Z</Time>
            <Position>
              <LatitudeDegrees>43.31867530010640621185302734375</LatitudeDegrees>
              <LongitudeDegrees>-2.41133767180144786834716796875</LongitudeDegrees>
            </Position>
            <AltitudeMeters>60.200000762939453125</AltitudeMeters>
            <DistanceMeters>NAN</DistanceMeters>
          </Trackpoint>
          <Trackpoint>
            <Time>2022-07-10T17:02:21.000Z</Time>
            <Position>
              <LatitudeDegrees>43.3187592029571533203125</LatitudeDegrees>
              <LongitudeDegrees>-2.4115444533526897430419921875</LongitudeDegrees>
            </Position>
            <AltitudeMeters>60.200000762939453125</AltitudeMeters>
            <DistanceMeters>NAN</DistanceMeters>
          </Trackpoint>
          <Trackpoint>
            <Time>2022-07-10T17:02:23.000Z</Time>
            <Position>
              <LatitudeDegrees>43.3187831752002239227294921875</LatitudeDegrees>
              <LongitudeDegrees>-2.41166532039642333984375</LongitudeDegrees>
            </Position>
            <AltitudeMeters>60</AltitudeMeters>
            <DistanceMeters>NAN</DistanceMeters>
          </Trackpoint>
          <Trackpoint>
            <Time>2022-07-10T17:02:27.000Z</Time>
            <Position>
              <LatitudeDegrees>43.31881896592676639556884765625</LatitudeDegrees>
              <LongitudeDegrees>-2.4119176156818866729736328125</LongitudeDegrees>
            </Position>
            <AltitudeMeters>60</AltitudeMeters>
            <DistanceMeters>NAN</DistanceMeters>
          </Trackpoint>
          <Trackpoint>
            <Time>2022-07-10T17:02:29.000Z</Time>
            <Position>
              <LatitudeDegrees>43.31884930841624736785888671875</LatitudeDegrees>
              <LongitudeDegrees>-2.4120332859456539154052734375</LongitudeDegrees>
            </Position>
            <AltitudeMeters>59.799999237060546875</AltitudeMeters>
            <DistanceMeters>NAN</DistanceMeters>
          </Trackpoint>
          <Trackpoint>
            <Time>2022-07-10T17:02:31.000Z</Time>
            <Position>
              <LatitudeDegrees>43.31890194676816463470458984375</LatitudeDegrees>
              <LongitudeDegrees>-2.4121335335075855255126953125</LongitudeDegrees>
            </Position>
            <AltitudeMeters>59.799999237060546875</AltitudeMeters>
            <DistanceMeters>NAN</DistanceMeters>
          </Trackpoint>
          <Trackpoint>
            <Time>2022-07-10T17:02:33.000Z</Time>
            <Position>
              <LatitudeDegrees>43.318964056670665740966796875</LatitudeDegrees>
              <LongitudeDegrees>-2.412186674773693084716796875</LongitudeDegrees>
            </Position>
            <AltitudeMeters>59.200000762939453125</AltitudeMeters>
            <DistanceMeters>NAN</DistanceMeters>
          </Trackpoint>
          <Trackpoint>
            <Time>2022-07-10T17:02:36.000Z</Time>
            <Position>
              <LatitudeDegrees>43.3190597780048847198486328125</LatitudeDegrees>
              <LongitudeDegrees>-2.41213805973529815673828125</LongitudeDegrees>
            </Position>
            <AltitudeMeters>58.59999847412109375</AltitudeMeters>
            <DistanceMeters>NAN</DistanceMeters>
          </Trackpoint>
          <Trackpoint>
            <Time>2022-07-10T17:02:42.000Z</Time>
            <Position>
              <LatitudeDegrees>43.31925516016781330108642578125</LatitudeDegrees>
              <LongitudeDegrees>-2.41195566952228546142578125</LongitudeDegrees>
            </Position>
            <AltitudeMeters>58.799999237060546875</AltitudeMeters>
            <DistanceMeters>NAN</DistanceMeters>
          </Trackpoint>
          <Trackpoint>
            <Time>2022-07-10T17:02:50.000Z</Time>
            <Position>
              <LatitudeDegrees>43.31950016319751739501953125</LatitudeDegrees>
              <LongitudeDegrees>-2.4117203056812286376953125</LongitudeDegrees>
            </Position>
            <AltitudeMeters>59</AltitudeMeters>
            <DistanceMeters>NAN</DistanceMeters>
          </Trackpoint>
          <Trackpoint>
            <Time>2022-07-10T17:02:52.000Z</Time>
            <Position>
              <LatitudeDegrees>43.31955380737781524658203125</LatitudeDegrees>
              <LongitudeDegrees>-2.41167127154767513275146484375</LongitudeDegrees>
            </Position>
            <AltitudeMeters>59</AltitudeMeters>
            <DistanceMeters>NAN</DistanceMeters>
          </Trackpoint>
          <Trackpoint>
            <Time>2022-07-10T17:02:59.000Z</Time>
            <Position>
              <LatitudeDegrees>43.31971817649900913238525390625</LatitudeDegrees>
              <LongitudeDegrees>-2.411516793072223663330078125</LongitudeDegrees>
            </Position>
            <AltitudeMeters>59</AltitudeMeters>
            <DistanceMeters>NAN</DistanceMeters>
          </Trackpoint>
          <Trackpoint>
            <Time>2022-07-10T17:03:04.000Z</Time>
            <Position>
              <LatitudeDegrees>43.3198419772088527679443359375</LatitudeDegrees>
              <LongitudeDegrees>-2.4114093370735645294189453125</LongitudeDegrees>
            </Position>
            <AltitudeMeters>59.200000762939453125</AltitudeMeters>
            <DistanceMeters>NAN</DistanceMeters>
          </Trackpoint>
          <Trackpoint>
            <Time>2022-07-10T17:03:09.000Z</Time>
            <Position>
              <LatitudeDegrees>43.319961167871952056884765625</LatitudeDegrees>
              <LongitudeDegrees>-2.411316968500614166259765625</LongitudeDegrees>
            </Position>
            <AltitudeMeters>59.40000152587890625</AltitudeMeters>
            <DistanceMeters>NAN</DistanceMeters>
          </Trackpoint>
          <Trackpoint>
            <Time>2022-07-10T17:03:10.000Z</Time>
            <Position>
              <LatitudeDegrees>43.319983966648578643798828125</LatitudeDegrees>
              <LongitudeDegrees>-2.41131738759577274322509765625</LongitudeDegrees>
            </Position>
            <AltitudeMeters>59.200000762939453125</AltitudeMeters>
            <DistanceMeters>NAN</DistanceMeters>
          </Trackpoint>
          <Trackpoint>
            <Time>2022-07-10T17:03:11.000Z</Time>
            <Position>
              <LatitudeDegrees>43.32000098191201686859130859375</LatitudeDegrees>
              <LongitudeDegrees>-2.41132409311830997467041015625</LongitudeDegrees>
            </Position>
            <AltitudeMeters>59.200000762939453125</AltitudeMeters>
            <DistanceMeters>NAN</DistanceMeters>
          </Trackpoint>
          <Trackpoint>
            <Time>2022-07-10T17:03:14.000Z</Time>
            <Position>
              <LatitudeDegrees>43.32004138268530368804931640625</LatitudeDegrees>
              <LongitudeDegrees>-2.4113912321627140045166015625</LongitudeDegrees>
            </Position>
            <AltitudeMeters>59.200000762939453125</AltitudeMeters>
            <DistanceMeters>NAN</DistanceMeters>
          </Trackpoint>
          <Trackpoint>
            <Time>2022-07-10T17:03:17.000Z</Time>
            <Position>
              <LatitudeDegrees>43.3201095275580883026123046875</LatitudeDegrees>
              <LongitudeDegrees>-2.41143255494534969329833984375</LongitudeDegrees>
            </Position>
            <AltitudeMeters>59</AltitudeMeters>
            <DistanceMeters>NAN</DistanceMeters>
          </Trackpoint>
          <Trackpoint>
            <Time>2022-07-10T17:03:18.000Z</Time>
            <Position>
              <LatitudeDegrees>43.3201296441256999969482421875</LatitudeDegrees>
              <LongitudeDegrees>-2.4114093370735645294189453125</LongitudeDegrees>
            </Position>
            <AltitudeMeters>59</AltitudeMeters>
            <DistanceMeters>NAN</DistanceMeters>
          </Trackpoint>
          <Trackpoint>
            <Time>2022-07-10T17:03:27.000Z</Time>
            <Position>
              <LatitudeDegrees>43.3203401975333690643310546875</LatitudeDegrees>
              <LongitudeDegrees>-2.41123205982148647308349609375</LongitudeDegrees>
            </Position>
            <AltitudeMeters>59</AltitudeMeters>
            <DistanceMeters>NAN</DistanceMeters>
          </Trackpoint>
          <Trackpoint>
            <Time>2022-07-10T17:03:35.000Z</Time>
            <Position>
              <LatitudeDegrees>43.3205012977123260498046875</LatitudeDegrees>
              <LongitudeDegrees>-2.4110834486782550811767578125</LongitudeDegrees>
            </Position>
            <AltitudeMeters>58.799999237060546875</AltitudeMeters>
            <DistanceMeters>NAN</DistanceMeters>
          </Trackpoint>
          <Trackpoint>
            <Time>2022-07-10T17:03:37.000Z</Time>
            <Position>
              <LatitudeDegrees>43.32052853889763355255126953125</LatitudeDegrees>
              <LongitudeDegrees>-2.41103969514369964599609375</LongitudeDegrees>
            </Position>
            <AltitudeMeters>58.59999847412109375</AltitudeMeters>
            <DistanceMeters>NAN</DistanceMeters>
          </Trackpoint>
          <Trackpoint>
            <Time>2022-07-10T17:03:44.000Z</Time>
            <Position>
              <LatitudeDegrees>43.3206080831587314605712890625</LatitudeDegrees>
              <LongitudeDegrees>-2.41088286973536014556884765625</LongitudeDegrees>
            </Position>
            <AltitudeMeters>58.59999847412109375</AltitudeMeters>
            <DistanceMeters>NAN</DistanceMeters>
          </Trackpoint>
          <Trackpoint>
            <Time>2022-07-10T17:03:45.000Z</Time>
            <Position>
              <LatitudeDegrees>43.32061252556741237640380859375</LatitudeDegrees>
              <LongitudeDegrees>-2.4108517728745937347412109375</LongitudeDegrees>
            </Position>
            <AltitudeMeters>58.59999847412109375</AltitudeMeters>
            <DistanceMeters>NAN</DistanceMeters>
          </Trackpoint>
          <Trackpoint>
            <Time>2022-07-10T17:03:48.000Z</Time>
            <Position>
              <LatitudeDegrees>43.3206355758011341094970703125</LatitudeDegrees>
              <LongitudeDegrees>-2.4107803590595722198486328125</LongitudeDegrees>
            </Position>
            <AltitudeMeters>58.59999847412109375</AltitudeMeters>
            <DistanceMeters>NAN</DistanceMeters>
          </Trackpoint>
          <Trackpoint>
            <Time>2022-07-10T17:03:54.000Z</Time>
            <Position>
              <LatitudeDegrees>43.32069299183785915374755859375</LatitudeDegrees>
              <LongitudeDegrees>-2.41065169684588909149169921875</LongitudeDegrees>
            </Position>
            <AltitudeMeters>58.799999237060546875</AltitudeMeters>
            <DistanceMeters>NAN</DistanceMeters>
          </Trackpoint>
          <Trackpoint>
            <Time>2022-07-10T17:04:00.000Z</Time>
            <Position>
              <LatitudeDegrees>43.320735655725002288818359375</LatitudeDegrees>
              <LongitudeDegrees>-2.410586737096309661865234375</LongitudeDegrees>
            </Position>
            <AltitudeMeters>59.200000762939453125</AltitudeMeters>
            <DistanceMeters>NAN</DistanceMeters>
          </Trackpoint>
          <Trackpoint>
            <Time>2022-07-10T17:04:18.000Z</Time>
            <Position>
              <LatitudeDegrees>43.3207051455974578857421875</LatitudeDegrees>
              <LongitudeDegrees>-2.410629652440547943115234375</LongitudeDegrees>
            </Position>
            <AltitudeMeters>58.59999847412109375</AltitudeMeters>
            <DistanceMeters>NAN</DistanceMeters>
          </Trackpoint>
          <Trackpoint>
            <Time>2022-07-10T17:04:19.000Z</Time>
            <Position>
              <LatitudeDegrees>43.32068863324820995330810546875</LatitudeDegrees>
              <LongitudeDegrees>-2.4106556363403797149658203125</LongitudeDegrees>
            </Position>
            <AltitudeMeters>58.59999847412109375</AltitudeMeters>
            <DistanceMeters>NAN</DistanceMeters>
          </Trackpoint>
          <Trackpoint>
            <Time>2022-07-10T17:04:20.000Z</Time>
            <Position>
              <LatitudeDegrees>43.32066985778510570526123046875</LatitudeDegrees>
              <LongitudeDegrees>-2.41068455390632152557373046875</LongitudeDegrees>
            </Position>
            <AltitudeMeters>58.59999847412109375</AltitudeMeters>
            <DistanceMeters>NAN</DistanceMeters>
          </Trackpoint>
          <Trackpoint>
            <Time>2022-07-10T17:04:25.000Z</Time>
            <Position>
              <LatitudeDegrees>43.32057732157409191131591796875</LatitudeDegrees>
              <LongitudeDegrees>-2.4108524434268474578857421875</LongitudeDegrees>
            </Position>
            <AltitudeMeters>58.200000762939453125</AltitudeMeters>
            <DistanceMeters>NAN</DistanceMeters>
          </Trackpoint>
          <Trackpoint>
            <Time>2022-07-10T17:04:27.000Z</Time>
            <Position>
              <LatitudeDegrees>43.32055133767426013946533203125</LatitudeDegrees>
              <LongitudeDegrees>-2.4109148047864437103271484375</LongitudeDegrees>
            </Position>
            <AltitudeMeters>58.200000762939453125</AltitudeMeters>
            <DistanceMeters>NAN</DistanceMeters>
          </Trackpoint>
          <Trackpoint>
            <Time>2022-07-10T17:04:33.000Z</Time>
            <Position>
              <LatitudeDegrees>43.32048042677342891693115234375</LatitudeDegrees>
              <LongitudeDegrees>-2.4111028946936130523681640625</LongitudeDegrees>
            </Position>
            <AltitudeMeters>57.799999237060546875</AltitudeMeters>
            <DistanceMeters>NAN</DistanceMeters>
          </Trackpoint>
          <Trackpoint>
            <Time>2022-07-10T17:04:38.000Z</Time>
            <Position>
              <LatitudeDegrees>43.32038126885890960693359375</LatitudeDegrees>
              <LongitudeDegrees>-2.41122468374669551849365234375</LongitudeDegrees>
            </Position>
            <AltitudeMeters>57.799999237060546875</AltitudeMeters>
            <DistanceMeters>NAN</DistanceMeters>
          </Trackpoint>
          <Trackpoint>
            <Time>2022-07-10T17:04:41.000Z</Time>
            <Position>
              <LatitudeDegrees>43.3203081786632537841796875</LatitudeDegrees>
              <LongitudeDegrees>-2.411266677081584930419921875</LongitudeDegrees>
            </Position>
            <AltitudeMeters>57.59999847412109375</AltitudeMeters>
            <DistanceMeters>NAN</DistanceMeters>
          </Trackpoint>
          <Trackpoint>
            <Time>2022-07-10T17:04:45.000Z</Time>
            <Position>
              <LatitudeDegrees>43.32020851783454418182373046875</LatitudeDegrees>
              <LongitudeDegrees>-2.41132132709026336669921875</LongitudeDegrees>
            </Position>
            <AltitudeMeters>57.40000152587890625</AltitudeMeters>
            <DistanceMeters>NAN</DistanceMeters>
          </Trackpoint>
          <Trackpoint>
            <Time>2022-07-10T17:04:47.000Z</Time>
            <Position>
              <LatitudeDegrees>43.3201688714325428009033203125</LatitudeDegrees>
              <LongitudeDegrees>-2.41136281751096248626708984375</LongitudeDegrees>
            </Position>
            <AltitudeMeters>57.40000152587890625</AltitudeMeters>
            <DistanceMeters>NAN</DistanceMeters>
          </Trackpoint>
          <Trackpoint>
            <Time>2022-07-10T17:04:53.000Z</Time>
            <Position>
              <LatitudeDegrees>43.32005672156810760498046875</LatitudeDegrees>
              <LongitudeDegrees>-2.41146692074835300445556640625</LongitudeDegrees>
            </Position>
            <AltitudeMeters>57.200000762939453125</AltitudeMeters>
            <DistanceMeters>NAN</DistanceMeters>
          </Trackpoint>
          <Trackpoint>
            <Time>2022-07-10T17:04:59.000Z</Time>
            <Position>
              <LatitudeDegrees>43.31992990337312221527099609375</LatitudeDegrees>
              <LongitudeDegrees>-2.4115649051964282989501953125</LongitudeDegrees>
            </Position>
            <AltitudeMeters>57.200000762939453125</AltitudeMeters>
            <DistanceMeters>NAN</DistanceMeters>
          </Trackpoint>
          <Trackpoint>
            <Time>2022-07-10T17:05:02.000Z</Time>
            <Position>
              <LatitudeDegrees>43.3199013210833072662353515625</LatitudeDegrees>
              <LongitudeDegrees>-2.4116413481533527374267578125</LongitudeDegrees>
            </Position>
            <AltitudeMeters>57.200000762939453125</AltitudeMeters>
            <DistanceMeters>NAN</DistanceMeters>
          </Trackpoint>
          <Trackpoint>
            <Time>2022-07-10T17:05:03.000Z</Time>
            <Position>
              <LatitudeDegrees>43.31991179846227169036865234375</LatitudeDegrees>
              <LongitudeDegrees>-2.411669678986072540283203125</LongitudeDegrees>
            </Position>
            <AltitudeMeters>57.40000152587890625</AltitudeMeters>
            <DistanceMeters>NAN</DistanceMeters>
          </Trackpoint>
          <Trackpoint>
            <Time>2022-07-10T17:05:04.000Z</Time>
            <Position>
              <LatitudeDegrees>43.31992571242153644561767578125</LatitudeDegrees>
              <LongitudeDegrees>-2.41168485023081302642822265625</LongitudeDegrees>
            </Position>
            <AltitudeMeters>57.40000152587890625</AltitudeMeters>
            <DistanceMeters>NAN</DistanceMeters>
          </Trackpoint>
          <Trackpoint>
            <Time>2022-07-10T17:05:06.000Z</Time>
            <Position>
              <LatitudeDegrees>43.3199663646519184112548828125</LatitudeDegrees>
              <LongitudeDegrees>-2.41167998872697353363037109375</LongitudeDegrees>
            </Position>
            <AltitudeMeters>57.40000152587890625</AltitudeMeters>
            <DistanceMeters>NAN</DistanceMeters>
          </Trackpoint>
          <Trackpoint>
            <Time>2022-07-10T17:05:09.000Z</Time>
            <Position>
              <LatitudeDegrees>43.32003501243889331817626953125</LatitudeDegrees>
              <LongitudeDegrees>-2.4116577766835689544677734375</LongitudeDegrees>
            </Position>
            <AltitudeMeters>57.799999237060546875</AltitudeMeters>
            <DistanceMeters>NAN</DistanceMeters>
          </Trackpoint>
          <Trackpoint>
            <Time>2022-07-10T17:05:11.000Z</Time>
            <Position>
              <LatitudeDegrees>43.32005898468196392059326171875</LatitudeDegrees>
              <LongitudeDegrees>-2.411690466105937957763671875</LongitudeDegrees>
            </Position>
            <AltitudeMeters>57.799999237060546875</AltitudeMeters>
            <DistanceMeters>NAN</DistanceMeters>
          </Trackpoint>
          <Trackpoint>
            <Time>2022-07-10T17:05:17.000Z</Time>
            <Position>
              <LatitudeDegrees>43.32009502686560153961181640625</LatitudeDegrees>
              <LongitudeDegrees>-2.41182650439441204071044921875</LongitudeDegrees>
            </Position>
            <AltitudeMeters>57.799999237060546875</AltitudeMeters>
            <DistanceMeters>NAN</DistanceMeters>
          </Trackpoint>
          <Trackpoint>
            <Time>2022-07-10T17:05:21.000Z</Time>
            <Position>
              <LatitudeDegrees>43.32015571184456348419189453125</LatitudeDegrees>
              <LongitudeDegrees>-2.41181879304349422454833984375</LongitudeDegrees>
            </Position>
            <AltitudeMeters>57.59999847412109375</AltitudeMeters>
            <DistanceMeters>NAN</DistanceMeters>
          </Trackpoint>
          <Trackpoint>
            <Time>2022-07-10T17:05:24.000Z</Time>
            <Position>
              <LatitudeDegrees>43.3201635070145130157470703125</LatitudeDegrees>
              <LongitudeDegrees>-2.41181896068155765533447265625</LongitudeDegrees>
            </Position>
            <AltitudeMeters>57.200000762939453125</AltitudeMeters>
            <DistanceMeters>NAN</DistanceMeters>
          </Trackpoint>
          <Trackpoint>
            <Time>2022-07-10T17:05:46.000Z</Time>
            <Position>
              <LatitudeDegrees>43.320181779563426971435546875</LatitudeDegrees>
              <LongitudeDegrees>-2.41186422295868396759033203125</LongitudeDegrees>
            </Position>
            <AltitudeMeters>56.799999237060546875</AltitudeMeters>
            <DistanceMeters>NAN</DistanceMeters>
          </Trackpoint>
          <Trackpoint>
            <Time>2022-07-10T17:05:48.000Z</Time>
            <Position>
              <LatitudeDegrees>43.320147581398487091064453125</LatitudeDegrees>
              <LongitudeDegrees>-2.4119055457413196563720703125</LongitudeDegrees>
            </Position>
            <AltitudeMeters>56.799999237060546875</AltitudeMeters>
            <DistanceMeters>NAN</DistanceMeters>
          </Trackpoint>
          <Trackpoint>
            <Time>2022-07-10T17:05:51.000Z</Time>
            <Position>
              <LatitudeDegrees>43.3200994692742824554443359375</LatitudeDegrees>
              <LongitudeDegrees>-2.41197888739407062530517578125</LongitudeDegrees>
            </Position>
            <AltitudeMeters>56.799999237060546875</AltitudeMeters>
            <DistanceMeters>NAN</DistanceMeters>
          </Trackpoint>
          <Trackpoint>
            <Time>2022-07-10T17:05:54.000Z</Time>
            <Position>
              <LatitudeDegrees>43.32005613483488559722900390625</LatitudeDegrees>
              <LongitudeDegrees>-2.4120433442294597625732421875</LongitudeDegrees>
            </Position>
            <AltitudeMeters>57</AltitudeMeters>
            <DistanceMeters>NAN</DistanceMeters>
          </Trackpoint>
          <Trackpoint>
            <Time>2022-07-10T17:06:01.000Z</Time>
            <Position>
              <LatitudeDegrees>43.3199532888829708099365234375</LatitudeDegrees>
              <LongitudeDegrees>-2.41212456487119197845458984375</LongitudeDegrees>
            </Position>
            <AltitudeMeters>56.799999237060546875</AltitudeMeters>
            <DistanceMeters>NAN</DistanceMeters>
          </Trackpoint>
          <Trackpoint>
            <Time>2022-07-10T17:06:03.000Z</Time>
            <Position>
              <LatitudeDegrees>43.319924287497997283935546875</LatitudeDegrees>
              <LongitudeDegrees>-2.4121362157166004180908203125</LongitudeDegrees>
            </Position>
            <AltitudeMeters>56.799999237060546875</AltitudeMeters>
            <DistanceMeters>NAN</DistanceMeters>
          </Trackpoint>
          <Trackpoint>
            <Time>2022-07-10T17:06:09.000Z</Time>
            <Position>
              <LatitudeDegrees>43.31985823810100555419921875</LatitudeDegrees>
              <LongitudeDegrees>-2.41217703558504581451416015625</LongitudeDegrees>
            </Position>
            <AltitudeMeters>56.799999237060546875</AltitudeMeters>
            <DistanceMeters>NAN</DistanceMeters>
          </Trackpoint>
          <Trackpoint>
            <Time>2022-07-10T17:06:11.000Z</Time>
            <Position>
              <LatitudeDegrees>43.31985823810100555419921875</LatitudeDegrees>
              <LongitudeDegrees>-2.41217703558504581451416015625</LongitudeDegrees>
            </Position>
            <AltitudeMeters>57</AltitudeMeters>
            <DistanceMeters>NAN</DistanceMeters>
          </Trackpoint>
          <Trackpoint>
            <Time>2022-07-10T17:51:30.000Z</Time>
            <Position>
              <LatitudeDegrees>43.31986896693706512451171875</LatitudeDegrees>
              <LongitudeDegrees>-2.41227258928120136260986328125</LongitudeDegrees>
            </Position>
            <AltitudeMeters>58.40000152587890625</AltitudeMeters>
            <DistanceMeters>NAN</DistanceMeters>
          </Trackpoint>
          <Trackpoint>
            <Time>2022-07-10T17:51:31.000Z</Time>
            <Position>
              <LatitudeDegrees>43.31987407989799976348876953125</LatitudeDegrees>
              <LongitudeDegrees>-2.41227644495666027069091796875</LongitudeDegrees>
            </Position>
            <AltitudeMeters>58.40000152587890625</AltitudeMeters>
            <DistanceMeters>NAN</DistanceMeters>
          </Trackpoint>
          <Trackpoint>
            <Time>2022-07-10T17:51:32.000Z</Time>
            <Position>
              <LatitudeDegrees>43.31987407989799976348876953125</LatitudeDegrees>
              <LongitudeDegrees>-2.41227644495666027069091796875</LongitudeDegrees>
            </Position>
            <AltitudeMeters>58.40000152587890625</AltitudeMeters>
            <DistanceMeters>NAN</DistanceMeters>
          </Trackpoint>
          <Trackpoint>
            <Time>2022-07-10T17:51:33.000Z</Time>
            <Position>
              <LatitudeDegrees>43.31987407989799976348876953125</LatitudeDegrees>
              <LongitudeDegrees>-2.41227644495666027069091796875</LongitudeDegrees>
            </Position>
            <AltitudeMeters>58.40000152587890625</AltitudeMeters>
            <DistanceMeters>NAN</DistanceMeters>
          </Trackpoint>
          <Trackpoint>
            <Time>2022-07-10T17:53:12.000Z</Time>
            <Position>
              <LatitudeDegrees>43.31987961195409297943115234375</LatitudeDegrees>
              <LongitudeDegrees>-2.412273846566677093505859375</LongitudeDegrees>
            </Position>
            <AltitudeMeters>58.59999847412109375</AltitudeMeters>
            <DistanceMeters>NAN</DistanceMeters>
          </Trackpoint>
          <Trackpoint>
            <Time>2022-07-10T17:53:14.000Z</Time>
            <Position>
              <LatitudeDegrees>43.31987961195409297943115234375</LatitudeDegrees>
              <LongitudeDegrees>-2.412273846566677093505859375</LongitudeDegrees>
            </Position>
            <AltitudeMeters>58.59999847412109375</AltitudeMeters>
            <DistanceMeters>NAN</DistanceMeters>
          </Trackpoint>
          <Trackpoint>
            <Time>2022-07-10T17:55:18.000Z</Time>
            <Position>
              <LatitudeDegrees>43.31987994723021984100341796875</LatitudeDegrees>
              <LongitudeDegrees>-2.41228817962110042572021484375</LongitudeDegrees>
            </Position>
            <AltitudeMeters>58.200000762939453125</AltitudeMeters>
            <DistanceMeters>NAN</DistanceMeters>
          </Trackpoint>
          <Trackpoint>
            <Time>2022-07-10T17:55:20.000Z</Time>
            <Position>
              <LatitudeDegrees>43.31988296471536159515380859375</LatitudeDegrees>
              <LongitudeDegrees>-2.41229488514363765716552734375</LongitudeDegrees>
            </Position>
            <AltitudeMeters>58.200000762939453125</AltitudeMeters>
            <DistanceMeters>NAN</DistanceMeters>
          </Trackpoint>
          <Trackpoint>
            <Time>2022-07-10T17:55:21.000Z</Time>
            <Position>
              <LatitudeDegrees>43.31988296471536159515380859375</LatitudeDegrees>
              <LongitudeDegrees>-2.41229488514363765716552734375</LongitudeDegrees>
            </Position>
            <AltitudeMeters>58.200000762939453125</AltitudeMeters>
            <DistanceMeters>NAN</DistanceMeters>
          </Trackpoint>
          <Trackpoint>
            <Time>2022-07-10T17:58:33.000Z</Time>
            <Position>
              <LatitudeDegrees>43.31989520229399204254150390625</LatitudeDegrees>
              <LongitudeDegrees>-2.412295639514923095703125</LongitudeDegrees>
            </Position>
            <AltitudeMeters>58.200000762939453125</AltitudeMeters>
            <DistanceMeters>NAN</DistanceMeters>
          </Trackpoint>
          <Trackpoint>
            <Time>2022-07-10T17:58:35.000Z</Time>
            <Position>
              <LatitudeDegrees>43.31989520229399204254150390625</LatitudeDegrees>
              <LongitudeDegrees>-2.412295639514923095703125</LongitudeDegrees>
            </Position>
            <AltitudeMeters>58.200000762939453125</AltitudeMeters>
            <DistanceMeters>NAN</DistanceMeters>
          </Trackpoint>
          <Trackpoint>
            <Time>2022-07-10T18:08:38.000Z</Time>
            <Position>
              <LatitudeDegrees>43.31992621533572673797607421875</LatitudeDegrees>
              <LongitudeDegrees>-2.41238222457468509674072265625</LongitudeDegrees>
            </Position>
            <AltitudeMeters>59.40000152587890625</AltitudeMeters>
            <DistanceMeters>NAN</DistanceMeters>
          </Trackpoint>
          <Trackpoint>
            <Time>2022-07-10T18:08:40.000Z</Time>
            <Position>
              <LatitudeDegrees>43.31992621533572673797607421875</LatitudeDegrees>
              <LongitudeDegrees>-2.41238222457468509674072265625</LongitudeDegrees>
            </Position>
            <AltitudeMeters>59.40000152587890625</AltitudeMeters>
            <DistanceMeters>NAN</DistanceMeters>
          </Trackpoint>
          <Trackpoint>
            <Time>2022-07-10T18:10:13.000Z</Time>
            <Position>
              <LatitudeDegrees>43.31993409432470798492431640625</LatitudeDegrees>
              <LongitudeDegrees>-2.412487082183361053466796875</LongitudeDegrees>
            </Position>
            <AltitudeMeters>60.799999237060546875</AltitudeMeters>
            <DistanceMeters>NAN</DistanceMeters>
          </Trackpoint>
          <Trackpoint>
            <Time>2022-07-10T18:10:15.000Z</Time>
            <Position>
              <LatitudeDegrees>43.31993409432470798492431640625</LatitudeDegrees>
              <LongitudeDegrees>-2.412487082183361053466796875</LongitudeDegrees>
            </Position>
            <AltitudeMeters>60.799999237060546875</AltitudeMeters>
            <DistanceMeters>NAN</DistanceMeters>
          </Trackpoint>
          <Trackpoint>
            <Time>2022-07-10T18:12:56.000Z</Time>
            <Position>
              <LatitudeDegrees>43.32009385339915752410888671875</LatitudeDegrees>
              <LongitudeDegrees>-2.41199992597103118896484375</LongitudeDegrees>
            </Position>
            <AltitudeMeters>61.200000762939453125</AltitudeMeters>
            <DistanceMeters>NAN</DistanceMeters>
          </Trackpoint>
          <Trackpoint>
            <Time>2022-07-10T18:12:57.000Z</Time>
            <Position>
              <LatitudeDegrees>43.32010223530232906341552734375</LatitudeDegrees>
              <LongitudeDegrees>-2.41200403310358524322509765625</LongitudeDegrees>
            </Position>
            <AltitudeMeters>61.200000762939453125</AltitudeMeters>
            <DistanceMeters>NAN</DistanceMeters>
          </Trackpoint>
          <Trackpoint>
            <Time>2022-07-10T18:12:58.000Z</Time>
            <Position>
              <LatitudeDegrees>43.32011531107127666473388671875</LatitudeDegrees>
              <LongitudeDegrees>-2.411997579038143157958984375</LongitudeDegrees>
            </Position>
            <AltitudeMeters>61.200000762939453125</AltitudeMeters>
            <DistanceMeters>NAN</DistanceMeters>
          </Trackpoint>
          <Trackpoint>
            <Time>2022-07-10T18:12:59.000Z</Time>
            <Position>
              <LatitudeDegrees>43.32012386061251163482666015625</LatitudeDegrees>
              <LongitudeDegrees>-2.411988861858844757080078125</LongitudeDegrees>
            </Position>
            <AltitudeMeters>61.200000762939453125</AltitudeMeters>
            <DistanceMeters>NAN</DistanceMeters>
          </Trackpoint>
          <Trackpoint>
            <Time>2022-07-10T18:13:07.000Z</Time>
            <Position>
              <LatitudeDegrees>43.3202097751200199127197265625</LatitudeDegrees>
              <LongitudeDegrees>-2.41190194152295589447021484375</LongitudeDegrees>
            </Position>
            <AltitudeMeters>61.40000152587890625</AltitudeMeters>
            <DistanceMeters>NAN</DistanceMeters>
          </Trackpoint>
          <Trackpoint>
            <Time>2022-07-10T18:13:11.000Z</Time>
            <Position>
              <LatitudeDegrees>43.320245482027530670166015625</LatitudeDegrees>
              <LongitudeDegrees>-2.41183471865952014923095703125</LongitudeDegrees>
            </Position>
            <AltitudeMeters>61.59999847412109375</AltitudeMeters>
            <DistanceMeters>NAN</DistanceMeters>
          </Trackpoint>
          <Trackpoint>
            <Time>2022-07-10T18:13:12.000Z</Time>
            <Position>
              <LatitudeDegrees>43.32025612704455852508544921875</LatitudeDegrees>
              <LongitudeDegrees>-2.41182046942412853240966796875</LongitudeDegrees>
            </Position>
            <AltitudeMeters>61.59999847412109375</AltitudeMeters>
            <DistanceMeters>NAN</DistanceMeters>
          </Trackpoint>
          <Trackpoint>
            <Time>2022-07-10T18:13:13.000Z</Time>
            <Position>
              <LatitudeDegrees>43.3202733099460601806640625</LatitudeDegrees>
              <LongitudeDegrees>-2.4118180386722087860107421875</LongitudeDegrees>
            </Position>
            <AltitudeMeters>61.40000152587890625</AltitudeMeters>
            <DistanceMeters>NAN</DistanceMeters>
          </Trackpoint>
          <Trackpoint>
            <Time>2022-07-10T18:13:18.000Z</Time>
            <Position>
              <LatitudeDegrees>43.3203723840415477752685546875</LatitudeDegrees>
              <LongitudeDegrees>-2.4119052104651927947998046875</LongitudeDegrees>
            </Position>
            <AltitudeMeters>61.40000152587890625</AltitudeMeters>
            <DistanceMeters>NAN</DistanceMeters>
          </Trackpoint>
          <Trackpoint>
            <Time>2022-07-10T18:13:24.000Z</Time>
            <Position>
              <LatitudeDegrees>43.32049123942852020263671875</LatitudeDegrees>
              <LongitudeDegrees>-2.41196966730058193206787109375</LongitudeDegrees>
            </Position>
            <AltitudeMeters>61.59999847412109375</AltitudeMeters>
            <DistanceMeters>NAN</DistanceMeters>
          </Trackpoint>
          <Trackpoint>
            <Time>2022-07-10T18:13:31.000Z</Time>
            <Position>
              <LatitudeDegrees>43.3206580393016338348388671875</LatitudeDegrees>
              <LongitudeDegrees>-2.41199456155300140380859375</LongitudeDegrees>
            </Position>
            <AltitudeMeters>61.799999237060546875</AltitudeMeters>
            <DistanceMeters>NAN</DistanceMeters>
          </Trackpoint>
          <Trackpoint>
            <Time>2022-07-10T18:13:36.000Z</Time>
            <Position>
              <LatitudeDegrees>43.32072719000279903411865234375</LatitudeDegrees>
              <LongitudeDegrees>-2.41210025735199451446533203125</LongitudeDegrees>
            </Position>
            <AltitudeMeters>62</AltitudeMeters>
            <DistanceMeters>NAN</DistanceMeters>
          </Trackpoint>
          <Trackpoint>
            <Time>2022-07-10T18:13:37.000Z</Time>
            <Position>
              <LatitudeDegrees>43.32074093632400035858154296875</LatitudeDegrees>
              <LongitudeDegrees>-2.41211702115833759307861328125</LongitudeDegrees>
            </Position>
            <AltitudeMeters>62</AltitudeMeters>
            <DistanceMeters>NAN</DistanceMeters>
          </Trackpoint>
          <Trackpoint>
            <Time>2022-07-10T18:13:40.000Z</Time>
            <Position>
              <LatitudeDegrees>43.32078318111598491668701171875</LatitudeDegrees>
              <LongitudeDegrees>-2.4121757782995700836181640625</LongitudeDegrees>
            </Position>
            <AltitudeMeters>62.200000762939453125</AltitudeMeters>
            <DistanceMeters>NAN</DistanceMeters>
          </Trackpoint>
          <Trackpoint>
            <Time>2022-07-10T18:13:49.000Z</Time>
            <Position>
              <LatitudeDegrees>43.320896588265895843505859375</LatitudeDegrees>
              <LongitudeDegrees>-2.41239152848720550537109375</LongitudeDegrees>
            </Position>
            <AltitudeMeters>62.59999847412109375</AltitudeMeters>
            <DistanceMeters>NAN</DistanceMeters>
          </Trackpoint>
          <Trackpoint>
            <Time>2022-07-10T18:13:54.000Z</Time>
            <Position>
              <LatitudeDegrees>43.3209564350545406341552734375</LatitudeDegrees>
              <LongitudeDegrees>-2.41249420680105686187744140625</LongitudeDegrees>
            </Position>
            <AltitudeMeters>63</AltitudeMeters>
            <DistanceMeters>NAN</DistanceMeters>
          </Trackpoint>
          <Trackpoint>
            <Time>2022-07-10T18:13:55.000Z</Time>
            <Position>
              <LatitudeDegrees>43.32096942700445652008056640625</LatitudeDegrees>
              <LongitudeDegrees>-2.41251030005514621734619140625</LongitudeDegrees>
            </Position>
            <AltitudeMeters>63</AltitudeMeters>
            <DistanceMeters>NAN</DistanceMeters>
          </Trackpoint>
          <Trackpoint>
            <Time>2022-07-10T18:14:02.000Z</Time>
            <Position>
              <LatitudeDegrees>43.32102768123149871826171875</LatitudeDegrees>
              <LongitudeDegrees>-2.412643320858478546142578125</LongitudeDegrees>
            </Position>
            <AltitudeMeters>63.59999847412109375</AltitudeMeters>
            <DistanceMeters>NAN</DistanceMeters>
          </Trackpoint>
          <Trackpoint>
            <Time>2022-07-10T18:14:09.000Z</Time>
            <Position>
              <LatitudeDegrees>43.32104913890361785888671875</LatitudeDegrees>
              <LongitudeDegrees>-2.41279008798301219940185546875</LongitudeDegrees>
            </Position>
            <AltitudeMeters>63.799999237060546875</AltitudeMeters>
            <DistanceMeters>NAN</DistanceMeters>
          </Trackpoint>
          <Trackpoint>
            <Time>2022-07-10T18:14:10.000Z</Time>
            <Position>
              <LatitudeDegrees>43.32104913890361785888671875</LatitudeDegrees>
              <LongitudeDegrees>-2.41279008798301219940185546875</LongitudeDegrees>
            </Position>
            <AltitudeMeters>63.799999237060546875</AltitudeMeters>
            <DistanceMeters>NAN</DistanceMeters>
          </Trackpoint>
          <Trackpoint>
            <Time>2022-07-10T18:14:43.000Z</Time>
            <Position>
              <LatitudeDegrees>43.32106699235737323760986328125</LatitudeDegrees>
              <LongitudeDegrees>-2.41283266805112361907958984375</LongitudeDegrees>
            </Position>
            <AltitudeMeters>63.59999847412109375</AltitudeMeters>
            <DistanceMeters>NAN</DistanceMeters>
          </Trackpoint>
          <Trackpoint>
            <Time>2022-07-10T18:14:45.000Z</Time>
            <Position>
              <LatitudeDegrees>43.32107336260378360748291015625</LatitudeDegrees>
              <LongitudeDegrees>-2.41288815625011920928955078125</LongitudeDegrees>
            </Position>
            <AltitudeMeters>63.40000152587890625</AltitudeMeters>
            <DistanceMeters>NAN</DistanceMeters>
          </Trackpoint>
          <Trackpoint>
            <Time>2022-07-10T18:14:52.000Z</Time>
            <Position>
              <LatitudeDegrees>43.32108677364885807037353515625</LatitudeDegrees>
              <LongitudeDegrees>-2.41313441656529903411865234375</LongitudeDegrees>
            </Position>
            <AltitudeMeters>63.59999847412109375</AltitudeMeters>
            <DistanceMeters>NAN</DistanceMeters>
          </Trackpoint>
          <Trackpoint>
            <Time>2022-07-10T18:14:59.000Z</Time>
            <Position>
              <LatitudeDegrees>43.3210821636021137237548828125</LatitudeDegrees>
              <LongitudeDegrees>-2.41336793638765811920166015625</LongitudeDegrees>
            </Position>
            <AltitudeMeters>63.40000152587890625</AltitudeMeters>
            <DistanceMeters>NAN</DistanceMeters>
          </Trackpoint>
          <Trackpoint>
            <Time>2022-07-10T18:15:10.000Z</Time>
            <Position>
              <LatitudeDegrees>43.32117629237473011016845703125</LatitudeDegrees>
              <LongitudeDegrees>-2.41372383199632167816162109375</LongitudeDegrees>
            </Position>
            <AltitudeMeters>63.59999847412109375</AltitudeMeters>
            <DistanceMeters>NAN</DistanceMeters>
          </Trackpoint>
          <Trackpoint>
            <Time>2022-07-10T18:15:18.000Z</Time>
            <Position>
              <LatitudeDegrees>43.3212337084114551544189453125</LatitudeDegrees>
              <LongitudeDegrees>-2.41401032544672489166259765625</LongitudeDegrees>
            </Position>
            <AltitudeMeters>63.40000152587890625</AltitudeMeters>
            <DistanceMeters>NAN</DistanceMeters>
          </Trackpoint>
          <Trackpoint>
            <Time>2022-07-10T18:15:23.000Z</Time>
            <Position>
              <LatitudeDegrees>43.3212491311132907867431640625</LatitudeDegrees>
              <LongitudeDegrees>-2.41420738399028778076171875</LongitudeDegrees>
            </Position>
            <AltitudeMeters>63.200000762939453125</AltitudeMeters>
            <DistanceMeters>NAN</DistanceMeters>
          </Trackpoint>
          <Trackpoint>
            <Time>2022-07-10T18:15:27.000Z</Time>
            <Position>
              <LatitudeDegrees>43.3212689124047756195068359375</LatitudeDegrees>
              <LongitudeDegrees>-2.4143651314079761505126953125</LongitudeDegrees>
            </Position>
            <AltitudeMeters>63.200000762939453125</AltitudeMeters>
            <DistanceMeters>NAN</DistanceMeters>
          </Trackpoint>
          <Trackpoint>
            <Time>2022-07-10T18:15:34.000Z</Time>
            <Position>
              <LatitudeDegrees>43.3213195390999317169189453125</LatitudeDegrees>
              <LongitudeDegrees>-2.4146444164216518402099609375</LongitudeDegrees>
            </Position>
            <AltitudeMeters>63.200000762939453125</AltitudeMeters>
            <DistanceMeters>NAN</DistanceMeters>
          </Trackpoint>
          <Trackpoint>
            <Time>2022-07-10T18:15:44.000Z</Time>
            <Position>
              <LatitudeDegrees>43.32140193320810794830322265625</LatitudeDegrees>
              <LongitudeDegrees>-2.41502269171178340911865234375</LongitudeDegrees>
            </Position>
            <AltitudeMeters>63.200000762939453125</AltitudeMeters>
            <DistanceMeters>NAN</DistanceMeters>
          </Trackpoint>
          <Trackpoint>
            <Time>2022-07-10T18:15:49.000Z</Time>
            <Position>
              <LatitudeDegrees>43.32145540975034236907958984375</LatitudeDegrees>
              <LongitudeDegrees>-2.41520005278289318084716796875</LongitudeDegrees>
            </Position>
            <AltitudeMeters>63.200000762939453125</AltitudeMeters>
            <DistanceMeters>NAN</DistanceMeters>
          </Trackpoint>
          <Trackpoint>
            <Time>2022-07-10T18:15:58.000Z</Time>
            <Position>
              <LatitudeDegrees>43.321578539907932281494140625</LatitudeDegrees>
              <LongitudeDegrees>-2.415433488786220550537109375</LongitudeDegrees>
            </Position>
            <AltitudeMeters>63.40000152587890625</AltitudeMeters>
            <DistanceMeters>NAN</DistanceMeters>
          </Trackpoint>
          <Trackpoint>
            <Time>2022-07-10T18:16:02.000Z</Time>
            <Position>
              <LatitudeDegrees>43.321591280400753021240234375</LatitudeDegrees>
              <LongitudeDegrees>-2.415446899831295013427734375</LongitudeDegrees>
            </Position>
            <AltitudeMeters>63.40000152587890625</AltitudeMeters>
            <DistanceMeters>NAN</DistanceMeters>
          </Trackpoint>
          <Trackpoint>
            <Time>2022-07-10T18:16:59.000Z</Time>
            <Position>
              <LatitudeDegrees>43.32165339030325412750244140625</LatitudeDegrees>
              <LongitudeDegrees>-2.41546642966568470001220703125</LongitudeDegrees>
            </Position>
            <AltitudeMeters>63.200000762939453125</AltitudeMeters>
            <DistanceMeters>NAN</DistanceMeters>
          </Trackpoint>
          <Trackpoint>
            <Time>2022-07-10T18:17:03.000Z</Time>
            <Position>
              <LatitudeDegrees>43.32174592651426792144775390625</LatitudeDegrees>
              <LongitudeDegrees>-2.41556231863796710968017578125</LongitudeDegrees>
            </Position>
            <AltitudeMeters>63.59999847412109375</AltitudeMeters>
            <DistanceMeters>NAN</DistanceMeters>
          </Trackpoint>
          <Trackpoint>
            <Time>2022-07-10T18:17:05.000Z</Time>
            <Position>
              <LatitudeDegrees>43.32179403863847255706787109375</LatitudeDegrees>
              <LongitudeDegrees>-2.415614537894725799560546875</LongitudeDegrees>
            </Position>
            <AltitudeMeters>64</AltitudeMeters>
            <DistanceMeters>NAN</DistanceMeters>
          </Trackpoint>
          <Trackpoint>
            <Time>2022-07-10T18:17:11.000Z</Time>
            <Position>
              <LatitudeDegrees>43.3219282329082489013671875</LatitudeDegrees>
              <LongitudeDegrees>-2.41576415486633777618408203125</LongitudeDegrees>
            </Position>
            <AltitudeMeters>64.40000152587890625</AltitudeMeters>
            <DistanceMeters>NAN</DistanceMeters>
          </Trackpoint>
          <Trackpoint>
            <Time>2022-07-10T18:17:16.000Z</Time>
            <Position>
              <LatitudeDegrees>43.32197106443345546722412109375</LatitudeDegrees>
              <LongitudeDegrees>-2.415933050215244293212890625</LongitudeDegrees>
            </Position>
            <AltitudeMeters>64.40000152587890625</AltitudeMeters>
            <DistanceMeters>NAN</DistanceMeters>
          </Trackpoint>
          <Trackpoint>
            <Time>2022-07-10T18:17:22.000Z</Time>
            <Position>
              <LatitudeDegrees>43.3219894208014011383056640625</LatitudeDegrees>
              <LongitudeDegrees>-2.4160633049905300140380859375</LongitudeDegrees>
            </Position>
            <AltitudeMeters>64.40000152587890625</AltitudeMeters>
            <DistanceMeters>NAN</DistanceMeters>
          </Trackpoint>
          <Trackpoint>
            <Time>2022-07-10T18:17:23.000Z</Time>
            <Position>
              <LatitudeDegrees>43.3219894208014011383056640625</LatitudeDegrees>
              <LongitudeDegrees>-2.4160633049905300140380859375</LongitudeDegrees>
            </Position>
            <AltitudeMeters>64.1999969482421875</AltitudeMeters>
            <DistanceMeters>NAN</DistanceMeters>
          </Trackpoint>
          <Trackpoint>
            <Time>2022-07-10T18:18:01.000Z</Time>
            <Position>
              <LatitudeDegrees>43.32200643606483936309814453125</LatitudeDegrees>
              <LongitudeDegrees>-2.416115440428256988525390625</LongitudeDegrees>
            </Position>
            <AltitudeMeters>64</AltitudeMeters>
            <DistanceMeters>NAN</DistanceMeters>
          </Trackpoint>
          <Trackpoint>
            <Time>2022-07-10T18:18:03.000Z</Time>
            <Position>
              <LatitudeDegrees>43.3220125548541545867919921875</LatitudeDegrees>
              <LongitudeDegrees>-2.41617252118885517120361328125</LongitudeDegrees>
            </Position>
            <AltitudeMeters>64</AltitudeMeters>
            <DistanceMeters>NAN</DistanceMeters>
          </Trackpoint>
          <Trackpoint>
            <Time>2022-07-10T18:18:09.000Z</Time>
            <Position>
              <LatitudeDegrees>43.32206326536834239959716796875</LatitudeDegrees>
              <LongitudeDegrees>-2.41636865772306919097900390625</LongitudeDegrees>
            </Position>
            <AltitudeMeters>64</AltitudeMeters>
            <DistanceMeters>NAN</DistanceMeters>
          </Trackpoint>
          <Trackpoint>
            <Time>2022-07-10T18:18:17.000Z</Time>
            <Position>
              <LatitudeDegrees>43.32214456982910633087158203125</LatitudeDegrees>
              <LongitudeDegrees>-2.41666294634342193603515625</LongitudeDegrees>
            </Position>
            <AltitudeMeters>64</AltitudeMeters>
            <DistanceMeters>NAN</DistanceMeters>
          </Trackpoint>
          <Trackpoint>
            <Time>2022-07-10T18:18:24.000Z</Time>
            <Position>
              <LatitudeDegrees>43.32218773663043975830078125</LatitudeDegrees>
              <LongitudeDegrees>-2.4169452488422393798828125</LongitudeDegrees>
            </Position>
            <AltitudeMeters>64</AltitudeMeters>
            <DistanceMeters>NAN</DistanceMeters>
          </Trackpoint>
          <Trackpoint>
            <Time>2022-07-10T18:18:31.000Z</Time>
            <Position>
              <LatitudeDegrees>43.322239704430103302001953125</LatitudeDegrees>
              <LongitudeDegrees>-2.4172022379934787750244140625</LongitudeDegrees>
            </Position>
            <AltitudeMeters>63.799999237060546875</AltitudeMeters>
            <DistanceMeters>NAN</DistanceMeters>
          </Trackpoint>
          <Trackpoint>
            <Time>2022-07-10T18:18:41.000Z</Time>
            <Position>
              <LatitudeDegrees>43.3223055861890316009521484375</LatitudeDegrees>
              <LongitudeDegrees>-2.4176380969583988189697265625</LongitudeDegrees>
            </Position>
            <AltitudeMeters>63.59999847412109375</AltitudeMeters>
            <DistanceMeters>NAN</DistanceMeters>
          </Trackpoint>
          <Trackpoint>
            <Time>2022-07-10T18:18:47.000Z</Time>
            <Position>
              <LatitudeDegrees>43.322294019162654876708984375</LatitudeDegrees>
              <LongitudeDegrees>-2.417887039482593536376953125</LongitudeDegrees>
            </Position>
            <AltitudeMeters>63.40000152587890625</AltitudeMeters>
            <DistanceMeters>NAN</DistanceMeters>
          </Trackpoint>
          <Trackpoint>
            <Time>2022-07-10T18:18:49.000Z</Time>
            <Position>
              <LatitudeDegrees>43.3222961984574794769287109375</LatitudeDegrees>
              <LongitudeDegrees>-2.41796105168759822845458984375</LongitudeDegrees>
            </Position>
            <AltitudeMeters>63.40000152587890625</AltitudeMeters>
            <DistanceMeters>NAN</DistanceMeters>
          </Trackpoint>
          <Trackpoint>
            <Time>2022-07-10T18:18:51.000Z</Time>
            <Position>
              <LatitudeDegrees>43.32228706218302249908447265625</LatitudeDegrees>
              <LongitudeDegrees>-2.41803665645420551300048828125</LongitudeDegrees>
            </Position>
            <AltitudeMeters>63.200000762939453125</AltitudeMeters>
            <DistanceMeters>NAN</DistanceMeters>
          </Trackpoint>
          <Trackpoint>
            <Time>2022-07-10T18:18:53.000Z</Time>
            <Position>
              <LatitudeDegrees>43.32228169776499271392822265625</LatitudeDegrees>
              <LongitudeDegrees>-2.4181118421256542205810546875</LongitudeDegrees>
            </Position>
            <AltitudeMeters>63.200000762939453125</AltitudeMeters>
            <DistanceMeters>NAN</DistanceMeters>
          </Trackpoint>
          <Trackpoint>
            <Time>2022-07-10T18:18:55.000Z</Time>
            <Position>
              <LatitudeDegrees>43.32227901555597782135009765625</LatitudeDegrees>
              <LongitudeDegrees>-2.4181923083961009979248046875</LongitudeDegrees>
            </Position>
            <AltitudeMeters>63.200000762939453125</AltitudeMeters>
            <DistanceMeters>NAN</DistanceMeters>
          </Trackpoint>
          <Trackpoint>
            <Time>2022-07-10T18:18:57.000Z</Time>
            <Position>
              <LatitudeDegrees>43.32228337414562702178955078125</LatitudeDegrees>
              <LongitudeDegrees>-2.4182677455246448516845703125</LongitudeDegrees>
            </Position>
            <AltitudeMeters>63.200000762939453125</AltitudeMeters>
            <DistanceMeters>NAN</DistanceMeters>
          </Trackpoint>
          <Trackpoint>
            <Time>2022-07-10T18:19:03.000Z</Time>
            <Position>
              <LatitudeDegrees>43.32229234278202056884765625</LatitudeDegrees>
              <LongitudeDegrees>-2.41847301833331584930419921875</LongitudeDegrees>
            </Position>
            <AltitudeMeters>63</AltitudeMeters>
            <DistanceMeters>NAN</DistanceMeters>
          </Trackpoint>
          <Trackpoint>
            <Time>2022-07-10T18:19:04.000Z</Time>
            <Position>
              <LatitudeDegrees>43.3222972042858600616455078125</LatitudeDegrees>
              <LongitudeDegrees>-2.4185074679553508758544921875</LongitudeDegrees>
            </Position>
            <AltitudeMeters>62.799999237060546875</AltitudeMeters>
            <DistanceMeters>NAN</DistanceMeters>
          </Trackpoint>
          <Trackpoint>
            <Time>2022-07-10T18:19:09.000Z</Time>
            <Position>
              <LatitudeDegrees>43.32233718596398830413818359375</LatitudeDegrees>
              <LongitudeDegrees>-2.41868793033063411712646484375</LongitudeDegrees>
            </Position>
            <AltitudeMeters>62.40000152587890625</AltitudeMeters>
            <DistanceMeters>NAN</DistanceMeters>
          </Trackpoint>
          <Trackpoint>
            <Time>2022-07-10T18:19:12.000Z</Time>
            <Position>
              <LatitudeDegrees>43.3223605714738368988037109375</LatitudeDegrees>
              <LongitudeDegrees>-2.41875431500375270843505859375</LongitudeDegrees>
            </Position>
            <AltitudeMeters>62.40000152587890625</AltitudeMeters>
            <DistanceMeters>NAN</DistanceMeters>
          </Trackpoint>
          <Trackpoint>
            <Time>2022-07-10T18:19:14.000Z</Time>
            <Position>
              <LatitudeDegrees>43.3223696239292621612548828125</LatitudeDegrees>
              <LongitudeDegrees>-2.418791949748992919921875</LongitudeDegrees>
            </Position>
            <AltitudeMeters>62.200000762939453125</AltitudeMeters>
            <DistanceMeters>NAN</DistanceMeters>
          </Trackpoint>
          <Trackpoint>
            <Time>2022-07-10T18:19:19.000Z</Time>
            <Position>
              <LatitudeDegrees>43.32237406633794307708740234375</LatitudeDegrees>
              <LongitudeDegrees>-2.41881298832595348358154296875</LongitudeDegrees>
            </Position>
            <AltitudeMeters>62</AltitudeMeters>
            <DistanceMeters>NAN</DistanceMeters>
          </Trackpoint>
          <Trackpoint>
            <Time>2022-07-10T18:19:55.000Z</Time>
            <Position>
              <LatitudeDegrees>43.3223910816013813018798828125</LatitudeDegrees>
              <LongitudeDegrees>-2.4189047701656818389892578125</LongitudeDegrees>
            </Position>
            <AltitudeMeters>61.200000762939453125</AltitudeMeters>
            <DistanceMeters>NAN</DistanceMeters>
          </Trackpoint>
          <Trackpoint>
            <Time>2022-07-10T18:19:56.000Z</Time>
            <Position>
              <LatitudeDegrees>43.32239585928618907928466796875</LatitudeDegrees>
              <LongitudeDegrees>-2.41892430000007152557373046875</LongitudeDegrees>
            </Position>
            <AltitudeMeters>61.200000762939453125</AltitudeMeters>
            <DistanceMeters>NAN</DistanceMeters>
          </Trackpoint>
          <Trackpoint>
            <Time>2022-07-10T18:20:01.000Z</Time>
            <Position>
              <LatitudeDegrees>43.3224246092140674591064453125</LatitudeDegrees>
              <LongitudeDegrees>-2.41902857087552547454833984375</LongitudeDegrees>
            </Position>
            <AltitudeMeters>61</AltitudeMeters>
            <DistanceMeters>NAN</DistanceMeters>
          </Trackpoint>
          <Trackpoint>
            <Time>2022-07-10T18:20:02.000Z</Time>
            <Position>
              <LatitudeDegrees>43.32243441604077816009521484375</LatitudeDegrees>
              <LongitudeDegrees>-2.41905011236667633056640625</LongitudeDegrees>
            </Position>
            <AltitudeMeters>60.799999237060546875</AltitudeMeters>
            <DistanceMeters>NAN</DistanceMeters>
          </Trackpoint>
          <Trackpoint>
            <Time>2022-07-10T18:20:06.000Z</Time>
            <Position>
              <LatitudeDegrees>43.3224705420434474945068359375</LatitudeDegrees>
              <LongitudeDegrees>-2.41913183592259883880615234375</LongitudeDegrees>
            </Position>
            <AltitudeMeters>60.799999237060546875</AltitudeMeters>
            <DistanceMeters>NAN</DistanceMeters>
          </Trackpoint>
          <Trackpoint>
            <Time>2022-07-10T18:20:09.000Z</Time>
            <Position>
              <LatitudeDegrees>43.32250147126615047454833984375</LatitudeDegrees>
              <LongitudeDegrees>-2.41916419006884098052978515625</LongitudeDegrees>
            </Position>
            <AltitudeMeters>60.59999847412109375</AltitudeMeters>
            <DistanceMeters>NAN</DistanceMeters>
          </Trackpoint>
          <Trackpoint>
            <Time>2022-07-10T18:20:12.000Z</Time>
            <Position>
              <LatitudeDegrees>43.3225094340741634368896484375</LatitudeDegrees>
              <LongitudeDegrees>-2.4191689677536487579345703125</LongitudeDegrees>
            </Position>
            <AltitudeMeters>60.59999847412109375</AltitudeMeters>
            <DistanceMeters>NAN</DistanceMeters>
          </Trackpoint>
          <Trackpoint>
            <Time>2022-07-10T18:20:31.000Z</Time>
            <Position>
              <LatitudeDegrees>43.32261621952056884765625</LatitudeDegrees>
              <LongitudeDegrees>-2.4194392003118991851806640625</LongitudeDegrees>
            </Position>
            <AltitudeMeters>60.59999847412109375</AltitudeMeters>
            <DistanceMeters>NAN</DistanceMeters>
          </Trackpoint>
          <Trackpoint>
            <Time>2022-07-10T18:20:32.000Z</Time>
            <Position>
              <LatitudeDegrees>43.32262418232858180999755859375</LatitudeDegrees>
              <LongitudeDegrees>-2.4194663576781749725341796875</LongitudeDegrees>
            </Position>
            <AltitudeMeters>60.40000152587890625</AltitudeMeters>
            <DistanceMeters>NAN</DistanceMeters>
          </Trackpoint>
          <Trackpoint>
            <Time>2022-07-10T18:20:38.000Z</Time>
            <Position>
              <LatitudeDegrees>43.32268017344176769256591796875</LatitudeDegrees>
              <LongitudeDegrees>-2.41962946951389312744140625</LongitudeDegrees>
            </Position>
            <AltitudeMeters>60.59999847412109375</AltitudeMeters>
            <DistanceMeters>NAN</DistanceMeters>
          </Trackpoint>
          <Trackpoint>
            <Time>2022-07-10T18:20:40.000Z</Time>
            <Position>
              <LatitudeDegrees>43.32270146347582340240478515625</LatitudeDegrees>
              <LongitudeDegrees>-2.4196832813322544097900390625</LongitudeDegrees>
            </Position>
            <AltitudeMeters>60.59999847412109375</AltitudeMeters>
            <DistanceMeters>NAN</DistanceMeters>
          </Trackpoint>
          <Trackpoint>
            <Time>2022-07-10T18:20:44.000Z</Time>
            <Position>
              <LatitudeDegrees>43.32273415289819240570068359375</LatitudeDegrees>
              <LongitudeDegrees>-2.41976751945912837982177734375</LongitudeDegrees>
            </Position>
            <AltitudeMeters>60.40000152587890625</AltitudeMeters>
            <DistanceMeters>NAN</DistanceMeters>
          </Trackpoint>
          <Trackpoint>
            <Time>2022-07-10T18:20:45.000Z</Time>
            <Position>
              <LatitudeDegrees>43.32273214124143123626708984375</LatitudeDegrees>
              <LongitudeDegrees>-2.419788055121898651123046875</LongitudeDegrees>
            </Position>
            <AltitudeMeters>60.40000152587890625</AltitudeMeters>
            <DistanceMeters>NAN</DistanceMeters>
          </Trackpoint>
          <Trackpoint>
            <Time>2022-07-10T18:20:48.000Z</Time>
            <Position>
              <LatitudeDegrees>43.32274697721004486083984375</LatitudeDegrees>
              <LongitudeDegrees>-2.4198371730744838714599609375</LongitudeDegrees>
            </Position>
            <AltitudeMeters>60.200000762939453125</AltitudeMeters>
            <DistanceMeters>NAN</DistanceMeters>
          </Trackpoint>
          <Trackpoint>
            <Time>2022-07-10T18:20:50.000Z</Time>
            <Position>
              <LatitudeDegrees>43.32277321256697177886962890625</LatitudeDegrees>
              <LongitudeDegrees>-2.41985435597598552703857421875</LongitudeDegrees>
            </Position>
            <AltitudeMeters>60.200000762939453125</AltitudeMeters>
            <DistanceMeters>NAN</DistanceMeters>
          </Trackpoint>
          <Trackpoint>
            <Time>2022-07-10T18:20:51.000Z</Time>
            <Position>
              <LatitudeDegrees>43.32278796471655368804931640625</LatitudeDegrees>
              <LongitudeDegrees>-2.41985737346112728118896484375</LongitudeDegrees>
            </Position>
            <AltitudeMeters>60.200000762939453125</AltitudeMeters>
            <DistanceMeters>NAN</DistanceMeters>
          </Trackpoint>
          <Trackpoint>
            <Time>2022-07-10T18:20:55.000Z</Time>
            <Position>
              <LatitudeDegrees>43.3228380046784877777099609375</LatitudeDegrees>
              <LongitudeDegrees>-2.41983960382640361785888671875</LongitudeDegrees>
            </Position>
            <AltitudeMeters>60.200000762939453125</AltitudeMeters>
            <DistanceMeters>NAN</DistanceMeters>
          </Trackpoint>
          <Trackpoint>
            <Time>2022-07-10T18:20:57.000Z</Time>
            <Position>
              <LatitudeDegrees>43.3228530921041965484619140625</LatitudeDegrees>
              <LongitudeDegrees>-2.4198297969996929168701171875</LongitudeDegrees>
            </Position>
            <AltitudeMeters>60</AltitudeMeters>
            <DistanceMeters>NAN</DistanceMeters>
          </Trackpoint>
          <Trackpoint>
            <Time>2022-07-10T18:20:59.000Z</Time>
            <Position>
              <LatitudeDegrees>43.3228530921041965484619140625</LatitudeDegrees>
              <LongitudeDegrees>-2.4198297969996929168701171875</LongitudeDegrees>
            </Position>
            <AltitudeMeters>59.799999237060546875</AltitudeMeters>
            <DistanceMeters>NAN</DistanceMeters>
          </Trackpoint>
          <Trackpoint>
            <Time>2022-07-10T18:24:15.000Z</Time>
            <Position>
              <LatitudeDegrees>43.322863988578319549560546875</LatitudeDegrees>
              <LongitudeDegrees>-2.4198371730744838714599609375</LongitudeDegrees>
            </Position>
            <AltitudeMeters>59.40000152587890625</AltitudeMeters>
            <DistanceMeters>NAN</DistanceMeters>
          </Trackpoint>
          <Trackpoint>
            <Time>2022-07-10T18:24:18.000Z</Time>
            <Position>
              <LatitudeDegrees>43.3228691853582859039306640625</LatitudeDegrees>
              <LongitudeDegrees>-2.4198341555893421173095703125</LongitudeDegrees>
            </Position>
            <AltitudeMeters>59.40000152587890625</AltitudeMeters>
            <DistanceMeters>NAN</DistanceMeters>
          </Trackpoint>
          <Trackpoint>
            <Time>2022-07-10T18:24:44.000Z</Time>
            <Position>
              <LatitudeDegrees>43.3228509128093719482421875</LatitudeDegrees>
              <LongitudeDegrees>-2.41983599960803985595703125</LongitudeDegrees>
            </Position>
            <AltitudeMeters>57.799999237060546875</AltitudeMeters>
            <DistanceMeters>NAN</DistanceMeters>
          </Trackpoint>
          <Trackpoint>
            <Time>2022-07-10T18:24:45.000Z</Time>
            <Position>
              <LatitudeDegrees>43.32283607684075832366943359375</LatitudeDegrees>
              <LongitudeDegrees>-2.4198313057422637939453125</LongitudeDegrees>
            </Position>
            <AltitudeMeters>57.799999237060546875</AltitudeMeters>
            <DistanceMeters>NAN</DistanceMeters>
          </Trackpoint>
          <Trackpoint>
            <Time>2022-07-10T18:24:50.000Z</Time>
            <Position>
              <LatitudeDegrees>43.3227632381021976470947265625</LatitudeDegrees>
              <LongitudeDegrees>-2.41984329186379909515380859375</LongitudeDegrees>
            </Position>
            <AltitudeMeters>57.799999237060546875</AltitudeMeters>
            <DistanceMeters>NAN</DistanceMeters>
          </Trackpoint>
          <Trackpoint>
            <Time>2022-07-10T18:24:53.000Z</Time>
            <Position>
              <LatitudeDegrees>43.3227595500648021697998046875</LatitudeDegrees>
              <LongitudeDegrees>-2.419830299913883209228515625</LongitudeDegrees>
            </Position>
            <AltitudeMeters>57.799999237060546875</AltitudeMeters>
            <DistanceMeters>NAN</DistanceMeters>
          </Trackpoint>
          <Trackpoint>
            <Time>2022-07-10T18:24:54.000Z</Time>
            <Position>
              <LatitudeDegrees>43.32276617176830768585205078125</LatitudeDegrees>
              <LongitudeDegrees>-2.4198244325816631317138671875</LongitudeDegrees>
            </Position>
            <AltitudeMeters>57.799999237060546875</AltitudeMeters>
            <DistanceMeters>NAN</DistanceMeters>
          </Trackpoint>
          <Trackpoint>
            <Time>2022-07-10T18:24:59.000Z</Time>
            <Position>
              <LatitudeDegrees>43.322821743786334991455078125</LatitudeDegrees>
              <LongitudeDegrees>-2.4197630770504474639892578125</LongitudeDegrees>
            </Position>
            <AltitudeMeters>57.200000762939453125</AltitudeMeters>
            <DistanceMeters>NAN</DistanceMeters>
          </Trackpoint>
          <Trackpoint>
            <Time>2022-07-10T18:25:00.000Z</Time>
            <Position>
              <LatitudeDegrees>43.3228326402604579925537109375</LatitudeDegrees>
              <LongitudeDegrees>-2.41974673233926296234130859375</LongitudeDegrees>
            </Position>
            <AltitudeMeters>57.200000762939453125</AltitudeMeters>
            <DistanceMeters>NAN</DistanceMeters>
          </Trackpoint>
          <Trackpoint>
            <Time>2022-07-10T18:25:01.000Z</Time>
            <Position>
              <LatitudeDegrees>43.32283607684075832366943359375</LatitudeDegrees>
              <LongitudeDegrees>-2.4197261966764926910400390625</LongitudeDegrees>
            </Position>
            <AltitudeMeters>57.200000762939453125</AltitudeMeters>
            <DistanceMeters>NAN</DistanceMeters>
          </Trackpoint>
          <Trackpoint>
            <Time>2022-07-10T18:25:02.000Z</Time>
            <Position>
              <LatitudeDegrees>43.32283280789852142333984375</LatitudeDegrees>
              <LongitudeDegrees>-2.419707588851451873779296875</LongitudeDegrees>
            </Position>
            <AltitudeMeters>57</AltitudeMeters>
            <DistanceMeters>NAN</DistanceMeters>
          </Trackpoint>
          <Trackpoint>
            <Time>2022-07-10T18:25:06.000Z</Time>
            <Position>
              <LatitudeDegrees>43.32280254922807216644287109375</LatitudeDegrees>
              <LongitudeDegrees>-2.41965453140437602996826171875</LongitudeDegrees>
            </Position>
            <AltitudeMeters>57</AltitudeMeters>
            <DistanceMeters>NAN</DistanceMeters>
          </Trackpoint>
          <Trackpoint>
            <Time>2022-07-10T18:25:10.000Z</Time>
            <Position>
              <LatitudeDegrees>43.32280321978032588958740234375</LatitudeDegrees>
              <LongitudeDegrees>-2.4196125380694866180419921875</LongitudeDegrees>
            </Position>
            <AltitudeMeters>57.40000152587890625</AltitudeMeters>
            <DistanceMeters>NAN</DistanceMeters>
          </Trackpoint>
          <Trackpoint>
            <Time>2022-07-10T18:25:12.000Z</Time>
            <Position>
              <LatitudeDegrees>43.3228098414838314056396484375</LatitudeDegrees>
              <LongitudeDegrees>-2.41960725747048854827880859375</LongitudeDegrees>
            </Position>
            <AltitudeMeters>57.40000152587890625</AltitudeMeters>
            <DistanceMeters>NAN</DistanceMeters>
          </Trackpoint>
          <Trackpoint>
            <Time>2022-07-10T18:25:15.000Z</Time>
            <Position>
              <LatitudeDegrees>43.3228133618831634521484375</LatitudeDegrees>
              <LongitudeDegrees>-2.41960306651890277862548828125</LongitudeDegrees>
            </Position>
            <AltitudeMeters>57.40000152587890625</AltitudeMeters>
            <DistanceMeters>NAN</DistanceMeters>
          </Trackpoint>
          <Trackpoint>
            <Time>2022-07-10T18:31:15.000Z</Time>
            <Position>
              <LatitudeDegrees>43.3228232525289058685302734375</LatitudeDegrees>
              <LongitudeDegrees>-2.41980641148984432220458984375</LongitudeDegrees>
            </Position>
            <AltitudeMeters>62.59999847412109375</AltitudeMeters>
            <DistanceMeters>NAN</DistanceMeters>
          </Trackpoint>
          <Trackpoint>
            <Time>2022-07-10T18:31:16.000Z</Time>
            <Position>
              <LatitudeDegrees>43.32281864248216152191162109375</LatitudeDegrees>
              <LongitudeDegrees>-2.41979383863508701324462890625</LongitudeDegrees>
            </Position>
            <AltitudeMeters>62.59999847412109375</AltitudeMeters>
            <DistanceMeters>NAN</DistanceMeters>
          </Trackpoint>
          <Trackpoint>
            <Time>2022-07-10T18:31:18.000Z</Time>
            <Position>
              <LatitudeDegrees>43.32281864248216152191162109375</LatitudeDegrees>
              <LongitudeDegrees>-2.41979383863508701324462890625</LongitudeDegrees>
            </Position>
            <AltitudeMeters>62.59999847412109375</AltitudeMeters>
            <DistanceMeters>NAN</DistanceMeters>
          </Trackpoint>
          <Trackpoint>
            <Time>2022-07-10T18:38:05.000Z</Time>
            <Position>
              <LatitudeDegrees>43.32280254922807216644287109375</LatitudeDegrees>
              <LongitudeDegrees>-2.41986860521137714385986328125</LongitudeDegrees>
            </Position>
            <AltitudeMeters>59.799999237060546875</AltitudeMeters>
            <DistanceMeters>NAN</DistanceMeters>
          </Trackpoint>
          <Trackpoint>
            <Time>2022-07-10T18:38:06.000Z</Time>
            <Position>
              <LatitudeDegrees>43.3227826841175556182861328125</LatitudeDegrees>
              <LongitudeDegrees>-2.4198810942471027374267578125</LongitudeDegrees>
            </Position>
            <AltitudeMeters>59.799999237060546875</AltitudeMeters>
            <DistanceMeters>NAN</DistanceMeters>
          </Trackpoint>
          <Trackpoint>
            <Time>2022-07-10T18:38:07.000Z</Time>
            <Position>
              <LatitudeDegrees>43.32276499830186367034912109375</LatitudeDegrees>
              <LongitudeDegrees>-2.4198911525309085845947265625</LongitudeDegrees>
            </Position>
            <AltitudeMeters>58.59999847412109375</AltitudeMeters>
            <DistanceMeters>NAN</DistanceMeters>
          </Trackpoint>
          <Trackpoint>
            <Time>2022-07-10T18:38:09.000Z</Time>
            <Position>
              <LatitudeDegrees>43.3227302134037017822265625</LatitudeDegrees>
              <LongitudeDegrees>-2.41990171372890472412109375</LongitudeDegrees>
            </Position>
            <AltitudeMeters>57.59999847412109375</AltitudeMeters>
            <DistanceMeters>NAN</DistanceMeters>
          </Trackpoint>
          <Trackpoint>
            <Time>2022-07-10T18:38:12.000Z</Time>
            <Position>
              <LatitudeDegrees>43.32268151454627513885498046875</LatitudeDegrees>
              <LongitudeDegrees>-2.419929206371307373046875</LongitudeDegrees>
            </Position>
            <AltitudeMeters>57</AltitudeMeters>
            <DistanceMeters>NAN</DistanceMeters>
          </Trackpoint>
          <Trackpoint>
            <Time>2022-07-10T18:38:18.000Z</Time>
            <Position>
              <LatitudeDegrees>43.32260004244744777679443359375</LatitudeDegrees>
              <LongitudeDegrees>-2.41992945782840251922607421875</LongitudeDegrees>
            </Position>
            <AltitudeMeters>57</AltitudeMeters>
            <DistanceMeters>NAN</DistanceMeters>
          </Trackpoint>
          <Trackpoint>
            <Time>2022-07-10T18:38:26.000Z</Time>
            <Position>
              <LatitudeDegrees>43.3224554546177387237548828125</LatitudeDegrees>
              <LongitudeDegrees>-2.419950328767299652099609375</LongitudeDegrees>
            </Position>
            <AltitudeMeters>57</AltitudeMeters>
            <DistanceMeters>NAN</DistanceMeters>
          </Trackpoint>
          <Trackpoint>
            <Time>2022-07-10T18:38:33.000Z</Time>
            <Position>
              <LatitudeDegrees>43.3223451487720012664794921875</LatitudeDegrees>
              <LongitudeDegrees>-2.41992560215294361114501953125</LongitudeDegrees>
            </Position>
            <AltitudeMeters>57</AltitudeMeters>
            <DistanceMeters>NAN</DistanceMeters>
          </Trackpoint>
          <Trackpoint>
            <Time>2022-07-10T18:38:39.000Z</Time>
            <Position>
              <LatitudeDegrees>43.3222542889416217803955078125</LatitudeDegrees>
              <LongitudeDegrees>-2.419959716498851776123046875</LongitudeDegrees>
            </Position>
            <AltitudeMeters>57.200000762939453125</AltitudeMeters>
            <DistanceMeters>NAN</DistanceMeters>
          </Trackpoint>
          <Trackpoint>
            <Time>2022-07-10T18:38:40.000Z</Time>
            <Position>
              <LatitudeDegrees>43.3222489245235919952392578125</LatitudeDegrees>
              <LongitudeDegrees>-2.41997706703841686248779296875</LongitudeDegrees>
            </Position>
            <AltitudeMeters>57.200000762939453125</AltitudeMeters>
            <DistanceMeters>NAN</DistanceMeters>
          </Trackpoint>
          <Trackpoint>
            <Time>2022-07-10T18:38:44.000Z</Time>
            <Position>
              <LatitudeDegrees>43.32224213518202304840087890625</LatitudeDegrees>
              <LongitudeDegrees>-2.420020401477813720703125</LongitudeDegrees>
            </Position>
            <AltitudeMeters>57.200000762939453125</AltitudeMeters>
            <DistanceMeters>NAN</DistanceMeters>
          </Trackpoint>
          <Trackpoint>
            <Time>2022-07-10T18:38:47.000Z</Time>
            <Position>
              <LatitudeDegrees>43.32224213518202304840087890625</LatitudeDegrees>
              <LongitudeDegrees>-2.420020401477813720703125</LongitudeDegrees>
            </Position>
            <AltitudeMeters>57.200000762939453125</AltitudeMeters>
            <DistanceMeters>NAN</DistanceMeters>
          </Trackpoint>
          <Trackpoint>
            <Time>2022-07-10T18:39:07.000Z</Time>
            <Position>
              <LatitudeDegrees>43.3222499303519725799560546875</LatitudeDegrees>
              <LongitudeDegrees>-2.4199635721743106842041015625</LongitudeDegrees>
            </Position>
            <AltitudeMeters>56.799999237060546875</AltitudeMeters>
            <DistanceMeters>NAN</DistanceMeters>
          </Trackpoint>
          <Trackpoint>
            <Time>2022-07-10T18:39:08.000Z</Time>
            <Position>
              <LatitudeDegrees>43.32225487567484378814697265625</LatitudeDegrees>
              <LongitudeDegrees>-2.41997254081070423126220703125</LongitudeDegrees>
            </Position>
            <AltitudeMeters>57</AltitudeMeters>
            <DistanceMeters>NAN</DistanceMeters>
          </Trackpoint>
          <Trackpoint>
            <Time>2022-07-10T18:39:09.000Z</Time>
            <Position>
              <LatitudeDegrees>43.3222581446170806884765625</LatitudeDegrees>
              <LongitudeDegrees>-2.41998888552188873291015625</LongitudeDegrees>
            </Position>
            <AltitudeMeters>57</AltitudeMeters>
            <DistanceMeters>NAN</DistanceMeters>
          </Trackpoint>
          <Trackpoint>
            <Time>2022-07-10T18:39:14.000Z</Time>
            <Position>
              <LatitudeDegrees>43.32229460589587688446044921875</LatitudeDegrees>
              <LongitudeDegrees>-2.4200909771025180816650390625</LongitudeDegrees>
            </Position>
            <AltitudeMeters>57.200000762939453125</AltitudeMeters>
            <DistanceMeters>NAN</DistanceMeters>
          </Trackpoint>
          <Trackpoint>
            <Time>2022-07-10T18:39:22.000Z</Time>
            <Position>
              <LatitudeDegrees>43.3223736472427845001220703125</LatitudeDegrees>
              <LongitudeDegrees>-2.42022282443940639495849609375</LongitudeDegrees>
            </Position>
            <AltitudeMeters>58.40000152587890625</AltitudeMeters>
            <DistanceMeters>NAN</DistanceMeters>
          </Trackpoint>
          <Trackpoint>
            <Time>2022-07-10T18:39:28.000Z</Time>
            <Position>
              <LatitudeDegrees>43.32243718206882476806640625</LatitudeDegrees>
              <LongitudeDegrees>-2.4203353933990001678466796875</LongitudeDegrees>
            </Position>
            <AltitudeMeters>58.59999847412109375</AltitudeMeters>
            <DistanceMeters>NAN</DistanceMeters>
          </Trackpoint>
          <Trackpoint>
            <Time>2022-07-10T18:39:31.000Z</Time>
            <Position>
              <LatitudeDegrees>43.3224628306925296783447265625</LatitudeDegrees>
              <LongitudeDegrees>-2.420404963195323944091796875</LongitudeDegrees>
            </Position>
            <AltitudeMeters>58.799999237060546875</AltitudeMeters>
            <DistanceMeters>NAN</DistanceMeters>
          </Trackpoint>
          <Trackpoint>
            <Time>2022-07-10T18:39:39.000Z</Time>
            <Position>
              <LatitudeDegrees>43.3225637488067150115966796875</LatitudeDegrees>
              <LongitudeDegrees>-2.42061710916459560394287109375</LongitudeDegrees>
            </Position>
            <AltitudeMeters>58.40000152587890625</AltitudeMeters>
            <DistanceMeters>NAN</DistanceMeters>
          </Trackpoint>
          <Trackpoint>
            <Time>2022-07-10T18:39:43.000Z</Time>
            <Position>
              <LatitudeDegrees>43.3226240985095500946044921875</LatitudeDegrees>
              <LongitudeDegrees>-2.4207467772066593170166015625</LongitudeDegrees>
            </Position>
            <AltitudeMeters>57.40000152587890625</AltitudeMeters>
            <DistanceMeters>NAN</DistanceMeters>
          </Trackpoint>
          <Trackpoint>
            <Time>2022-07-10T18:39:46.000Z</Time>
            <Position>
              <LatitudeDegrees>43.322650082409381866455078125</LatitudeDegrees>
              <LongitudeDegrees>-2.42085783742368221282958984375</LongitudeDegrees>
            </Position>
            <AltitudeMeters>56.799999237060546875</AltitudeMeters>
            <DistanceMeters>NAN</DistanceMeters>
          </Trackpoint>
          <Trackpoint>
            <Time>2022-07-10T18:39:48.000Z</Time>
            <Position>
              <LatitudeDegrees>43.32264580763876438140869140625</LatitudeDegrees>
              <LongitudeDegrees>-2.42091936059296131134033203125</LongitudeDegrees>
            </Position>
            <AltitudeMeters>56.59999847412109375</AltitudeMeters>
            <DistanceMeters>NAN</DistanceMeters>
          </Trackpoint>
          <Trackpoint>
            <Time>2022-07-10T18:39:51.000Z</Time>
            <Position>
              <LatitudeDegrees>43.322603814303874969482421875</LatitudeDegrees>
              <LongitudeDegrees>-2.4209771119058132171630859375</LongitudeDegrees>
            </Position>
            <AltitudeMeters>56.59999847412109375</AltitudeMeters>
            <DistanceMeters>NAN</DistanceMeters>
          </Trackpoint>
          <Trackpoint>
            <Time>2022-07-10T18:39:55.000Z</Time>
            <Position>
              <LatitudeDegrees>43.3225104399025440216064453125</LatitudeDegrees>
              <LongitudeDegrees>-2.4210324324667453765869140625</LongitudeDegrees>
            </Position>
            <AltitudeMeters>56.40000152587890625</AltitudeMeters>
            <DistanceMeters>NAN</DistanceMeters>
          </Trackpoint>
          <Trackpoint>
            <Time>2022-07-10T18:39:58.000Z</Time>
            <Position>
              <LatitudeDegrees>43.32241664640605449676513671875</LatitudeDegrees>
              <LongitudeDegrees>-2.42104609496891498565673828125</LongitudeDegrees>
            </Position>
            <AltitudeMeters>55.799999237060546875</AltitudeMeters>
            <DistanceMeters>NAN</DistanceMeters>
          </Trackpoint>
          <Trackpoint>
            <Time>2022-07-10T18:40:00.000Z</Time>
            <Position>
              <LatitudeDegrees>43.32236886955797672271728515625</LatitudeDegrees>
              <LongitudeDegrees>-2.4210830591619014739990234375</LongitudeDegrees>
            </Position>
            <AltitudeMeters>55.799999237060546875</AltitudeMeters>
            <DistanceMeters>NAN</DistanceMeters>
          </Trackpoint>
          <Trackpoint>
            <Time>2022-07-10T18:40:02.000Z</Time>
            <Position>
              <LatitudeDegrees>43.3223384432494640350341796875</LatitudeDegrees>
              <LongitudeDegrees>-2.42114583961665630340576171875</LongitudeDegrees>
            </Position>
            <AltitudeMeters>55.40000152587890625</AltitudeMeters>
            <DistanceMeters>NAN</DistanceMeters>
          </Trackpoint>
          <Trackpoint>
            <Time>2022-07-10T18:40:04.000Z</Time>
            <Position>
              <LatitudeDegrees>43.32231287844479084014892578125</LatitudeDegrees>
              <LongitudeDegrees>-2.42121323011815547943115234375</LongitudeDegrees>
            </Position>
            <AltitudeMeters>55.200000762939453125</AltitudeMeters>
            <DistanceMeters>NAN</DistanceMeters>
          </Trackpoint>
          <Trackpoint>
            <Time>2022-07-10T18:40:07.000Z</Time>
            <Position>
              <LatitudeDegrees>43.3222673647105693817138671875</LatitudeDegrees>
              <LongitudeDegrees>-2.42130191065371036529541015625</LongitudeDegrees>
            </Position>
            <AltitudeMeters>55</AltitudeMeters>
            <DistanceMeters>NAN</DistanceMeters>
          </Trackpoint>
          <Trackpoint>
            <Time>2022-07-10T18:40:10.000Z</Time>
            <Position>
              <LatitudeDegrees>43.322284631431102752685546875</LatitudeDegrees>
              <LongitudeDegrees>-2.42140383459627628326416015625</LongitudeDegrees>
            </Position>
            <AltitudeMeters>54.799999237060546875</AltitudeMeters>
            <DistanceMeters>NAN</DistanceMeters>
          </Trackpoint>
          <Trackpoint>
            <Time>2022-07-10T18:40:14.000Z</Time>
            <Position>
              <LatitudeDegrees>43.32231589592993259429931640625</LatitudeDegrees>
              <LongitudeDegrees>-2.42150575853884220123291015625</LongitudeDegrees>
            </Position>
            <AltitudeMeters>54.799999237060546875</AltitudeMeters>
            <DistanceMeters>NAN</DistanceMeters>
          </Trackpoint>
          <Trackpoint>
            <Time>2022-07-10T18:40:17.000Z</Time>
            <Position>
              <LatitudeDegrees>43.32235671579837799072265625</LatitudeDegrees>
              <LongitudeDegrees>-2.42156811989843845367431640625</LongitudeDegrees>
            </Position>
            <AltitudeMeters>55</AltitudeMeters>
            <DistanceMeters>NAN</DistanceMeters>
          </Trackpoint>
          <Trackpoint>
            <Time>2022-07-10T18:40:18.000Z</Time>
            <Position>
              <LatitudeDegrees>43.32236350513994693756103515625</LatitudeDegrees>
              <LongitudeDegrees>-2.42159309796988964080810546875</LongitudeDegrees>
            </Position>
            <AltitudeMeters>55</AltitudeMeters>
            <DistanceMeters>NAN</DistanceMeters>
          </Trackpoint>
          <Trackpoint>
            <Time>2022-07-10T18:40:21.000Z</Time>
            <Position>
              <LatitudeDegrees>43.32237322814762592315673828125</LatitudeDegrees>
              <LongitudeDegrees>-2.421697787940502166748046875</LongitudeDegrees>
            </Position>
            <AltitudeMeters>56.59999847412109375</AltitudeMeters>
            <DistanceMeters>NAN</DistanceMeters>
          </Trackpoint>
          <Trackpoint>
            <Time>2022-07-10T18:40:23.000Z</Time>
            <Position>
              <LatitudeDegrees>43.322370462119579315185546875</LatitudeDegrees>
              <LongitudeDegrees>-2.4217700399458408355712890625</LongitudeDegrees>
            </Position>
            <AltitudeMeters>57.799999237060546875</AltitudeMeters>
            <DistanceMeters>NAN</DistanceMeters>
          </Trackpoint>
          <Trackpoint>
            <Time>2022-07-10T18:40:24.000Z</Time>
            <Position>
              <LatitudeDegrees>43.32238219678401947021484375</LatitudeDegrees>
              <LongitudeDegrees>-2.4218065850436687469482421875</LongitudeDegrees>
            </Position>
            <AltitudeMeters>58</AltitudeMeters>
            <DistanceMeters>NAN</DistanceMeters>
          </Trackpoint>
          <Trackpoint>
            <Time>2022-07-10T18:40:26.000Z</Time>
            <Position>
              <LatitudeDegrees>43.32233450375497341156005859375</LatitudeDegrees>
              <LongitudeDegrees>-2.42186383344233036041259765625</LongitudeDegrees>
            </Position>
            <AltitudeMeters>58.40000152587890625</AltitudeMeters>
            <DistanceMeters>NAN</DistanceMeters>
          </Trackpoint>
          <Trackpoint>
            <Time>2022-07-10T18:40:28.000Z</Time>
            <Position>
              <LatitudeDegrees>43.32227918319404125213623046875</LatitudeDegrees>
              <LongitudeDegrees>-2.42188981734216213226318359375</LongitudeDegrees>
            </Position>
            <AltitudeMeters>58.59999847412109375</AltitudeMeters>
            <DistanceMeters>NAN</DistanceMeters>
          </Trackpoint>
          <Trackpoint>
            <Time>2022-07-10T18:40:30.000Z</Time>
            <Position>
              <LatitudeDegrees>43.3222482539713382720947265625</LatitudeDegrees>
              <LongitudeDegrees>-2.42194664664566516876220703125</LongitudeDegrees>
            </Position>
            <AltitudeMeters>58.799999237060546875</AltitudeMeters>
            <DistanceMeters>NAN</DistanceMeters>
          </Trackpoint>
          <Trackpoint>
            <Time>2022-07-10T18:40:32.000Z</Time>
            <Position>
              <LatitudeDegrees>43.32221749238669872283935546875</LatitudeDegrees>
              <LongitudeDegrees>-2.4220017157495021820068359375</LongitudeDegrees>
            </Position>
            <AltitudeMeters>58.799999237060546875</AltitudeMeters>
            <DistanceMeters>NAN</DistanceMeters>
          </Trackpoint>
          <Trackpoint>
            <Time>2022-07-10T18:40:34.000Z</Time>
            <Position>
              <LatitudeDegrees>43.3221964538097381591796875</LatitudeDegrees>
              <LongitudeDegrees>-2.4220000393688678741455078125</LongitudeDegrees>
            </Position>
            <AltitudeMeters>58.799999237060546875</AltitudeMeters>
            <DistanceMeters>NAN</DistanceMeters>
          </Trackpoint>
          <Trackpoint>
            <Time>2022-07-10T18:40:39.000Z</Time>
            <Position>
              <LatitudeDegrees>43.32212629728019237518310546875</LatitudeDegrees>
              <LongitudeDegrees>-2.42188311181962490081787109375</LongitudeDegrees>
            </Position>
            <AltitudeMeters>59.200000762939453125</AltitudeMeters>
            <DistanceMeters>NAN</DistanceMeters>
          </Trackpoint>
          <Trackpoint>
            <Time>2022-07-10T18:40:40.000Z</Time>
            <Position>
              <LatitudeDegrees>43.32211037166416645050048828125</LatitudeDegrees>
              <LongitudeDegrees>-2.4218803457915782928466796875</LongitudeDegrees>
            </Position>
            <AltitudeMeters>59.200000762939453125</AltitudeMeters>
            <DistanceMeters>NAN</DistanceMeters>
          </Trackpoint>
          <Trackpoint>
            <Time>2022-07-10T18:40:42.000Z</Time>
            <Position>
              <LatitudeDegrees>43.32205295562744140625</LatitudeDegrees>
              <LongitudeDegrees>-2.42188797332346439361572265625</LongitudeDegrees>
            </Position>
            <AltitudeMeters>59.40000152587890625</AltitudeMeters>
            <DistanceMeters>NAN</DistanceMeters>
          </Trackpoint>
          <Trackpoint>
            <Time>2022-07-10T18:40:43.000Z</Time>
            <Position>
              <LatitudeDegrees>43.32202487625181674957275390625</LatitudeDegrees>
              <LongitudeDegrees>-2.42189099080860614776611328125</LongitudeDegrees>
            </Position>
            <AltitudeMeters>59.40000152587890625</AltitudeMeters>
            <DistanceMeters>NAN</DistanceMeters>
          </Trackpoint>
          <Trackpoint>
            <Time>2022-07-10T18:40:47.000Z</Time>
            <Position>
              <LatitudeDegrees>43.3219371177256107330322265625</LatitudeDegrees>
              <LongitudeDegrees>-2.42180482484400272369384765625</LongitudeDegrees>
            </Position>
            <AltitudeMeters>59.59999847412109375</AltitudeMeters>
            <DistanceMeters>NAN</DistanceMeters>
          </Trackpoint>
          <Trackpoint>
            <Time>2022-07-10T18:40:50.000Z</Time>
            <Position>
              <LatitudeDegrees>43.32188087515532970428466796875</LatitudeDegrees>
              <LongitudeDegrees>-2.42177682928740978240966796875</LongitudeDegrees>
            </Position>
            <AltitudeMeters>59.799999237060546875</AltitudeMeters>
            <DistanceMeters>NAN</DistanceMeters>
          </Trackpoint>
          <Trackpoint>
            <Time>2022-07-10T18:40:52.000Z</Time>
            <Position>
              <LatitudeDegrees>43.32186494953930377960205078125</LatitudeDegrees>
              <LongitudeDegrees>-2.42176928557455539703369140625</LongitudeDegrees>
            </Position>
            <AltitudeMeters>60.200000762939453125</AltitudeMeters>
            <DistanceMeters>NAN</DistanceMeters>
          </Trackpoint>
          <Trackpoint>
            <Time>2022-07-10T18:40:54.000Z</Time>
            <Position>
              <LatitudeDegrees>43.321866206824779510498046875</LatitudeDegrees>
              <LongitudeDegrees>-2.421784289181232452392578125</LongitudeDegrees>
            </Position>
            <AltitudeMeters>60.799999237060546875</AltitudeMeters>
            <DistanceMeters>NAN</DistanceMeters>
          </Trackpoint>
          <Trackpoint>
            <Time>2022-07-10T18:40:55.000Z</Time>
            <Position>
              <LatitudeDegrees>43.321869559586048126220703125</LatitudeDegrees>
              <LongitudeDegrees>-2.421805076301097869873046875</LongitudeDegrees>
            </Position>
            <AltitudeMeters>60.799999237060546875</AltitudeMeters>
            <DistanceMeters>NAN</DistanceMeters>
          </Trackpoint>
          <Trackpoint>
            <Time>2022-07-10T18:40:56.000Z</Time>
            <Position>
              <LatitudeDegrees>43.32187148742377758026123046875</LatitudeDegrees>
              <LongitudeDegrees>-2.42182846181094646453857421875</LongitudeDegrees>
            </Position>
            <AltitudeMeters>61</AltitudeMeters>
            <DistanceMeters>NAN</DistanceMeters>
          </Trackpoint>
          <Trackpoint>
            <Time>2022-07-10T18:41:00.000Z</Time>
            <Position>
              <LatitudeDegrees>43.32188464701175689697265625</LatitudeDegrees>
              <LongitudeDegrees>-2.42191999219357967376708984375</LongitudeDegrees>
            </Position>
            <AltitudeMeters>61.59999847412109375</AltitudeMeters>
            <DistanceMeters>NAN</DistanceMeters>
          </Trackpoint>
          <Trackpoint>
            <Time>2022-07-10T18:41:01.000Z</Time>
            <Position>
              <LatitudeDegrees>43.32188338972628116607666015625</LatitudeDegrees>
              <LongitudeDegrees>-2.4219266138970851898193359375</LongitudeDegrees>
            </Position>
            <AltitudeMeters>61.59999847412109375</AltitudeMeters>
            <DistanceMeters>NAN</DistanceMeters>
          </Trackpoint>
          <Trackpoint>
            <Time>2022-07-10T18:41:02.000Z</Time>
            <Position>
              <LatitudeDegrees>43.32188338972628116607666015625</LatitudeDegrees>
              <LongitudeDegrees>-2.4219266138970851898193359375</LongitudeDegrees>
            </Position>
            <AltitudeMeters>61.59999847412109375</AltitudeMeters>
            <DistanceMeters>NAN</DistanceMeters>
          </Trackpoint>
          <Trackpoint>
            <Time>2022-07-10T18:41:43.000Z</Time>
            <Position>
              <LatitudeDegrees>43.32191188819706439971923828125</LatitudeDegrees>
              <LongitudeDegrees>-2.4219031445682048797607421875</LongitudeDegrees>
            </Position>
            <AltitudeMeters>61.200000762939453125</AltitudeMeters>
            <DistanceMeters>NAN</DistanceMeters>
          </Trackpoint>
          <Trackpoint>
            <Time>2022-07-10T18:41:45.000Z</Time>
            <Position>
              <LatitudeDegrees>43.32191188819706439971923828125</LatitudeDegrees>
              <LongitudeDegrees>-2.4219031445682048797607421875</LongitudeDegrees>
            </Position>
            <AltitudeMeters>61.200000762939453125</AltitudeMeters>
            <DistanceMeters>NAN</DistanceMeters>
          </Trackpoint>
          <Trackpoint>
            <Time>2022-07-10T18:44:38.000Z</Time>
            <Position>
              <LatitudeDegrees>43.32188330590724945068359375</LatitudeDegrees>
              <LongitudeDegrees>-2.421860732138156890869140625</LongitudeDegrees>
            </Position>
            <AltitudeMeters>59.40000152587890625</AltitudeMeters>
            <DistanceMeters>NAN</DistanceMeters>
          </Trackpoint>
          <Trackpoint>
            <Time>2022-07-10T18:44:39.000Z</Time>
            <Position>
              <LatitudeDegrees>43.32184734754264354705810546875</LatitudeDegrees>
              <LongitudeDegrees>-2.42182728834450244903564453125</LongitudeDegrees>
            </Position>
            <AltitudeMeters>59.200000762939453125</AltitudeMeters>
            <DistanceMeters>NAN</DistanceMeters>
          </Trackpoint>
          <Trackpoint>
            <Time>2022-07-10T18:44:43.000Z</Time>
            <Position>
              <LatitudeDegrees>43.32175212912261486053466796875</LatitudeDegrees>
              <LongitudeDegrees>-2.42170038633048534393310546875</LongitudeDegrees>
            </Position>
            <AltitudeMeters>58.799999237060546875</AltitudeMeters>
            <DistanceMeters>NAN</DistanceMeters>
          </Trackpoint>
          <Trackpoint>
            <Time>2022-07-10T18:44:45.000Z</Time>
            <Position>
              <LatitudeDegrees>43.32174508832395076751708984375</LatitudeDegrees>
              <LongitudeDegrees>-2.42170290090143680572509765625</LongitudeDegrees>
            </Position>
            <AltitudeMeters>58.59999847412109375</AltitudeMeters>
            <DistanceMeters>NAN</DistanceMeters>
          </Trackpoint>
          <Trackpoint>
            <Time>2022-07-10T18:44:47.000Z</Time>
            <Position>
              <LatitudeDegrees>43.32178263925015926361083984375</LatitudeDegrees>
              <LongitudeDegrees>-2.42170524783432483673095703125</LongitudeDegrees>
            </Position>
            <AltitudeMeters>58.40000152587890625</AltitudeMeters>
            <DistanceMeters>NAN</DistanceMeters>
          </Trackpoint>
          <Trackpoint>
            <Time>2022-07-10T18:44:48.000Z</Time>
            <Position>
              <LatitudeDegrees>43.321809880435466766357421875</LatitudeDegrees>
              <LongitudeDegrees>-2.42169770412147045135498046875</LongitudeDegrees>
            </Position>
            <AltitudeMeters>58.40000152587890625</AltitudeMeters>
            <DistanceMeters>NAN</DistanceMeters>
          </Trackpoint>
          <Trackpoint>
            <Time>2022-07-10T18:44:49.000Z</Time>
            <Position>
              <LatitudeDegrees>43.32182974554598331451416015625</LatitudeDegrees>
              <LongitudeDegrees>-2.42166534997522830963134765625</LongitudeDegrees>
            </Position>
            <AltitudeMeters>58.200000762939453125</AltitudeMeters>
            <DistanceMeters>NAN</DistanceMeters>
          </Trackpoint>
          <Trackpoint>
            <Time>2022-07-10T18:44:51.000Z</Time>
            <Position>
              <LatitudeDegrees>43.32184265367686748504638671875</LatitudeDegrees>
              <LongitudeDegrees>-2.4215514399111270904541015625</LongitudeDegrees>
            </Position>
            <AltitudeMeters>57.59999847412109375</AltitudeMeters>
            <DistanceMeters>NAN</DistanceMeters>
          </Trackpoint>
          <Trackpoint>
            <Time>2022-07-10T18:44:52.000Z</Time>
            <Position>
              <LatitudeDegrees>43.321856148540973663330078125</LatitudeDegrees>
              <LongitudeDegrees>-2.42149586789309978485107421875</LongitudeDegrees>
            </Position>
            <AltitudeMeters>57.40000152587890625</AltitudeMeters>
            <DistanceMeters>NAN</DistanceMeters>
          </Trackpoint>
          <Trackpoint>
            <Time>2022-07-10T18:44:53.000Z</Time>
            <Position>
              <LatitudeDegrees>43.32188590429723262786865234375</LatitudeDegrees>
              <LongitudeDegrees>-2.4214716441929340362548828125</LongitudeDegrees>
            </Position>
            <AltitudeMeters>57</AltitudeMeters>
            <DistanceMeters>NAN</DistanceMeters>
          </Trackpoint>
          <Trackpoint>
            <Time>2022-07-10T18:44:54.000Z</Time>
            <Position>
              <LatitudeDegrees>43.32191708497703075408935546875</LatitudeDegrees>
              <LongitudeDegrees>-2.42145261727273464202880859375</LongitudeDegrees>
            </Position>
            <AltitudeMeters>56.40000152587890625</AltitudeMeters>
            <DistanceMeters>NAN</DistanceMeters>
          </Trackpoint>
          <Trackpoint>
            <Time>2022-07-10T18:44:56.000Z</Time>
            <Position>
              <LatitudeDegrees>43.3219706453382968902587890625</LatitudeDegrees>
              <LongitudeDegrees>-2.42141908966004848480224609375</LongitudeDegrees>
            </Position>
            <AltitudeMeters>55.799999237060546875</AltitudeMeters>
            <DistanceMeters>NAN</DistanceMeters>
          </Trackpoint>
          <Trackpoint>
            <Time>2022-07-10T18:44:58.000Z</Time>
            <Position>
              <LatitudeDegrees>43.322015739977359771728515625</LatitudeDegrees>
              <LongitudeDegrees>-2.42141791619360446929931640625</LongitudeDegrees>
            </Position>
            <AltitudeMeters>55.200000762939453125</AltitudeMeters>
            <DistanceMeters>NAN</DistanceMeters>
          </Trackpoint>
          <Trackpoint>
            <Time>2022-07-10T18:45:00.000Z</Time>
            <Position>
              <LatitudeDegrees>43.32203845493495464324951171875</LatitudeDegrees>
              <LongitudeDegrees>-2.42140450514853000640869140625</LongitudeDegrees>
            </Position>
            <AltitudeMeters>54.799999237060546875</AltitudeMeters>
            <DistanceMeters>NAN</DistanceMeters>
          </Trackpoint>
          <Trackpoint>
            <Time>2022-07-10T18:45:01.000Z</Time>
            <Position>
              <LatitudeDegrees>43.322059996426105499267578125</LatitudeDegrees>
              <LongitudeDegrees>-2.42139209993183612823486328125</LongitudeDegrees>
            </Position>
            <AltitudeMeters>54.59999847412109375</AltitudeMeters>
            <DistanceMeters>NAN</DistanceMeters>
          </Trackpoint>
          <Trackpoint>
            <Time>2022-07-10T18:45:03.000Z</Time>
            <Position>
              <LatitudeDegrees>43.3221030794084072113037109375</LatitudeDegrees>
              <LongitudeDegrees>-2.4213388748466968536376953125</LongitudeDegrees>
            </Position>
            <AltitudeMeters>54.40000152587890625</AltitudeMeters>
            <DistanceMeters>NAN</DistanceMeters>
          </Trackpoint>
          <Trackpoint>
            <Time>2022-07-10T18:45:05.000Z</Time>
            <Position>
              <LatitudeDegrees>43.32214959897100925445556640625</LatitudeDegrees>
              <LongitudeDegrees>-2.421303503215312957763671875</LongitudeDegrees>
            </Position>
            <AltitudeMeters>54.200000762939453125</AltitudeMeters>
            <DistanceMeters>NAN</DistanceMeters>
          </Trackpoint>
          <Trackpoint>
            <Time>2022-07-10T18:45:10.000Z</Time>
            <Position>
              <LatitudeDegrees>43.322259150445461273193359375</LatitudeDegrees>
              <LongitudeDegrees>-2.42120518349111080169677734375</LongitudeDegrees>
            </Position>
            <AltitudeMeters>54.40000152587890625</AltitudeMeters>
            <DistanceMeters>NAN</DistanceMeters>
          </Trackpoint>
          <Trackpoint>
            <Time>2022-07-10T18:45:17.000Z</Time>
            <Position>
              <LatitudeDegrees>43.32241698168218135833740234375</LatitudeDegrees>
              <LongitudeDegrees>-2.421084232628345489501953125</LongitudeDegrees>
            </Position>
            <AltitudeMeters>54.799999237060546875</AltitudeMeters>
            <DistanceMeters>NAN</DistanceMeters>
          </Trackpoint>
          <Trackpoint>
            <Time>2022-07-10T18:45:24.000Z</Time>
            <Position>
              <LatitudeDegrees>43.32253315486013889312744140625</LatitudeDegrees>
              <LongitudeDegrees>-2.421007454395294189453125</LongitudeDegrees>
            </Position>
            <AltitudeMeters>55.40000152587890625</AltitudeMeters>
            <DistanceMeters>NAN</DistanceMeters>
          </Trackpoint>
          <Trackpoint>
            <Time>2022-07-10T18:45:28.000Z</Time>
            <Position>
              <LatitudeDegrees>43.3225751481950283050537109375</LatitudeDegrees>
              <LongitudeDegrees>-2.42096252739429473876953125</LongitudeDegrees>
            </Position>
            <AltitudeMeters>55.799999237060546875</AltitudeMeters>
            <DistanceMeters>NAN</DistanceMeters>
          </Trackpoint>
          <Trackpoint>
            <Time>2022-07-10T18:45:29.000Z</Time>
            <Position>
              <LatitudeDegrees>43.3225719630718231201171875</LatitudeDegrees>
              <LongitudeDegrees>-2.420945428311824798583984375</LongitudeDegrees>
            </Position>
            <AltitudeMeters>55.799999237060546875</AltitudeMeters>
            <DistanceMeters>NAN</DistanceMeters>
          </Trackpoint>
          <Trackpoint>
            <Time>2022-07-10T18:45:35.000Z</Time>
            <Position>
              <LatitudeDegrees>43.3225114457309246063232421875</LatitudeDegrees>
              <LongitudeDegrees>-2.42085515521466732025146484375</LongitudeDegrees>
            </Position>
            <AltitudeMeters>56.200000762939453125</AltitudeMeters>
            <DistanceMeters>NAN</DistanceMeters>
          </Trackpoint>
          <Trackpoint>
            <Time>2022-07-10T18:45:42.000Z</Time>
            <Position>
              <LatitudeDegrees>43.3224229328334331512451171875</LatitudeDegrees>
              <LongitudeDegrees>-2.42067645303905010223388671875</LongitudeDegrees>
            </Position>
            <AltitudeMeters>56.200000762939453125</AltitudeMeters>
            <DistanceMeters>NAN</DistanceMeters>
          </Trackpoint>
          <Trackpoint>
            <Time>2022-07-10T18:45:47.000Z</Time>
            <Position>
              <LatitudeDegrees>43.32237054593861103057861328125</LatitudeDegrees>
              <LongitudeDegrees>-2.4205794744193553924560546875</LongitudeDegrees>
            </Position>
            <AltitudeMeters>56</AltitudeMeters>
            <DistanceMeters>NAN</DistanceMeters>
          </Trackpoint>
          <Trackpoint>
            <Time>2022-07-10T18:45:54.000Z</Time>
            <Position>
              <LatitudeDegrees>43.3223091065883636474609375</LatitudeDegrees>
              <LongitudeDegrees>-2.42046791128814220428466796875</LongitudeDegrees>
            </Position>
            <AltitudeMeters>56.200000762939453125</AltitudeMeters>
            <DistanceMeters>NAN</DistanceMeters>
          </Trackpoint>
          <Trackpoint>
            <Time>2022-07-10T18:45:56.000Z</Time>
            <Position>
              <LatitudeDegrees>43.32229477353394031524658203125</LatitudeDegrees>
              <LongitudeDegrees>-2.42045131511986255645751953125</LongitudeDegrees>
            </Position>
            <AltitudeMeters>56.200000762939453125</AltitudeMeters>
            <DistanceMeters>NAN</DistanceMeters>
          </Trackpoint>
          <Trackpoint>
            <Time>2022-07-10T18:45:59.000Z</Time>
            <Position>
              <LatitudeDegrees>43.3222794346511363983154296875</LatitudeDegrees>
              <LongitudeDegrees>-2.42042063735425472259521484375</LongitudeDegrees>
            </Position>
            <AltitudeMeters>56.200000762939453125</AltitudeMeters>
            <DistanceMeters>NAN</DistanceMeters>
          </Trackpoint>
          <Trackpoint>
            <Time>2022-07-10T18:46:04.000Z</Time>
            <Position>
              <LatitudeDegrees>43.3222180791199207305908203125</LatitudeDegrees>
              <LongitudeDegrees>-2.42031854577362537384033203125</LongitudeDegrees>
            </Position>
            <AltitudeMeters>56</AltitudeMeters>
            <DistanceMeters>NAN</DistanceMeters>
          </Trackpoint>
          <Trackpoint>
            <Time>2022-07-10T18:46:10.000Z</Time>
            <Position>
              <LatitudeDegrees>43.32212411798536777496337890625</LatitudeDegrees>
              <LongitudeDegrees>-2.42018041200935840606689453125</LongitudeDegrees>
            </Position>
            <AltitudeMeters>56</AltitudeMeters>
            <DistanceMeters>NAN</DistanceMeters>
          </Trackpoint>
          <Trackpoint>
            <Time>2022-07-10T18:46:14.000Z</Time>
            <Position>
              <LatitudeDegrees>43.321996293962001800537109375</LatitudeDegrees>
              <LongitudeDegrees>-2.42019851692020893096923828125</LongitudeDegrees>
            </Position>
            <AltitudeMeters>55.59999847412109375</AltitudeMeters>
            <DistanceMeters>NAN</DistanceMeters>
          </Trackpoint>
          <Trackpoint>
            <Time>2022-07-10T18:46:18.000Z</Time>
            <Position>
              <LatitudeDegrees>43.32182069309055805206298828125</LatitudeDegrees>
              <LongitudeDegrees>-2.42009089328348636627197265625</LongitudeDegrees>
            </Position>
            <AltitudeMeters>55</AltitudeMeters>
            <DistanceMeters>NAN</DistanceMeters>
          </Trackpoint>
          <Trackpoint>
            <Time>2022-07-10T18:46:19.000Z</Time>
            <Position>
              <LatitudeDegrees>43.32178180105984210968017578125</LatitudeDegrees>
              <LongitudeDegrees>-2.42004294879734516143798828125</LongitudeDegrees>
            </Position>
            <AltitudeMeters>54.59999847412109375</AltitudeMeters>
            <DistanceMeters>NAN</DistanceMeters>
          </Trackpoint>
          <Trackpoint>
            <Time>2022-07-10T18:46:22.000Z</Time>
            <Position>
              <LatitudeDegrees>43.32168079912662506103515625</LatitudeDegrees>
              <LongitudeDegrees>-2.41987380199134349822998046875</LongitudeDegrees>
            </Position>
            <AltitudeMeters>53.799999237060546875</AltitudeMeters>
            <DistanceMeters>NAN</DistanceMeters>
          </Trackpoint>
          <Trackpoint>
            <Time>2022-07-10T18:46:23.000Z</Time>
            <Position>
              <LatitudeDegrees>43.3216464333236217498779296875</LatitudeDegrees>
              <LongitudeDegrees>-2.41981898434460163116455078125</LongitudeDegrees>
            </Position>
            <AltitudeMeters>53.799999237060546875</AltitudeMeters>
            <DistanceMeters>NAN</DistanceMeters>
          </Trackpoint>
          <Trackpoint>
            <Time>2022-07-10T18:46:27.000Z</Time>
            <Position>
              <LatitudeDegrees>43.321524225175380706787109375</LatitudeDegrees>
              <LongitudeDegrees>-2.41963575594127178192138671875</LongitudeDegrees>
            </Position>
            <AltitudeMeters>53.59999847412109375</AltitudeMeters>
            <DistanceMeters>NAN</DistanceMeters>
          </Trackpoint>
          <Trackpoint>
            <Time>2022-07-10T18:46:28.000Z</Time>
            <Position>
              <LatitudeDegrees>43.32149170339107513427734375</LatitudeDegrees>
              <LongitudeDegrees>-2.41959887556731700897216796875</LongitudeDegrees>
            </Position>
            <AltitudeMeters>53.59999847412109375</AltitudeMeters>
            <DistanceMeters>NAN</DistanceMeters>
          </Trackpoint>
          <Trackpoint>
            <Time>2022-07-10T18:46:33.000Z</Time>
            <Position>
              <LatitudeDegrees>43.32132414914667606353759765625</LatitudeDegrees>
              <LongitudeDegrees>-2.41944749839603900909423828125</LongitudeDegrees>
            </Position>
            <AltitudeMeters>53.59999847412109375</AltitudeMeters>
            <DistanceMeters>NAN</DistanceMeters>
          </Trackpoint>
          <Trackpoint>
            <Time>2022-07-10T18:46:38.000Z</Time>
            <Position>
              <LatitudeDegrees>43.3211877755820751190185546875</LatitudeDegrees>
              <LongitudeDegrees>-2.41931925527751445770263671875</LongitudeDegrees>
            </Position>
            <AltitudeMeters>53.59999847412109375</AltitudeMeters>
            <DistanceMeters>NAN</DistanceMeters>
          </Trackpoint>
          <Trackpoint>
            <Time>2022-07-10T18:46:43.000Z</Time>
            <Position>
              <LatitudeDegrees>43.321070931851863861083984375</LatitudeDegrees>
              <LongitudeDegrees>-2.4192316643893718719482421875</LongitudeDegrees>
            </Position>
            <AltitudeMeters>53.59999847412109375</AltitudeMeters>
            <DistanceMeters>NAN</DistanceMeters>
          </Trackpoint>
          <Trackpoint>
            <Time>2022-07-10T18:46:45.000Z</Time>
            <Position>
              <LatitudeDegrees>43.32104201428592205047607421875</LatitudeDegrees>
              <LongitudeDegrees>-2.41919453255832195281982421875</LongitudeDegrees>
            </Position>
            <AltitudeMeters>53.59999847412109375</AltitudeMeters>
            <DistanceMeters>NAN</DistanceMeters>
          </Trackpoint>
          <Trackpoint>
            <Time>2022-07-10T18:46:47.000Z</Time>
            <Position>
              <LatitudeDegrees>43.32103815861046314239501953125</LatitudeDegrees>
              <LongitudeDegrees>-2.419193945825099945068359375</LongitudeDegrees>
            </Position>
            <AltitudeMeters>53.59999847412109375</AltitudeMeters>
            <DistanceMeters>NAN</DistanceMeters>
          </Trackpoint>
          <Trackpoint>
            <Time>2022-07-10T18:46:48.000Z</Time>
            <Position>
              <LatitudeDegrees>43.32103815861046314239501953125</LatitudeDegrees>
              <LongitudeDegrees>-2.419193945825099945068359375</LongitudeDegrees>
            </Position>
            <AltitudeMeters>53.59999847412109375</AltitudeMeters>
            <DistanceMeters>NAN</DistanceMeters>
          </Trackpoint>
          <Trackpoint>
            <Time>2022-07-10T18:47:45.000Z</Time>
            <Position>
              <LatitudeDegrees>43.3210001885890960693359375</LatitudeDegrees>
              <LongitudeDegrees>-2.4191857315599918365478515625</LongitudeDegrees>
            </Position>
            <AltitudeMeters>53</AltitudeMeters>
            <DistanceMeters>NAN</DistanceMeters>
          </Trackpoint>
          <Trackpoint>
            <Time>2022-07-10T18:47:47.000Z</Time>
            <Position>
              <LatitudeDegrees>43.32095098681747913360595703125</LatitudeDegrees>
              <LongitudeDegrees>-2.41918179206550121307373046875</LongitudeDegrees>
            </Position>
            <AltitudeMeters>53</AltitudeMeters>
            <DistanceMeters>NAN</DistanceMeters>
          </Trackpoint>
          <Trackpoint>
            <Time>2022-07-10T18:47:52.000Z</Time>
            <Position>
              <LatitudeDegrees>43.3208018727600574493408203125</LatitudeDegrees>
              <LongitudeDegrees>-2.4191448278725147247314453125</LongitudeDegrees>
            </Position>
            <AltitudeMeters>53</AltitudeMeters>
            <DistanceMeters>NAN</DistanceMeters>
          </Trackpoint>
          <Trackpoint>
            <Time>2022-07-10T18:48:00.000Z</Time>
            <Position>
              <LatitudeDegrees>43.3206204883754253387451171875</LatitudeDegrees>
              <LongitudeDegrees>-2.41915882565081119537353515625</LongitudeDegrees>
            </Position>
            <AltitudeMeters>53</AltitudeMeters>
            <DistanceMeters>NAN</DistanceMeters>
          </Trackpoint>
          <Trackpoint>
            <Time>2022-07-10T18:48:10.000Z</Time>
            <Position>
              <LatitudeDegrees>43.320376910269260406494140625</LatitudeDegrees>
              <LongitudeDegrees>-2.41924700327217578887939453125</LongitudeDegrees>
            </Position>
            <AltitudeMeters>53</AltitudeMeters>
            <DistanceMeters>NAN</DistanceMeters>
          </Trackpoint>
          <Trackpoint>
            <Time>2022-07-10T18:48:17.000Z</Time>
            <Position>
              <LatitudeDegrees>43.32018856890499591827392578125</LatitudeDegrees>
              <LongitudeDegrees>-2.41934658028185367584228515625</LongitudeDegrees>
            </Position>
            <AltitudeMeters>53</AltitudeMeters>
            <DistanceMeters>NAN</DistanceMeters>
          </Trackpoint>
          <Trackpoint>
            <Time>2022-07-10T18:48:25.000Z</Time>
            <Position>
              <LatitudeDegrees>43.319996707141399383544921875</LatitudeDegrees>
              <LongitudeDegrees>-2.41949510760605335235595703125</LongitudeDegrees>
            </Position>
            <AltitudeMeters>53.200000762939453125</AltitudeMeters>
            <DistanceMeters>NAN</DistanceMeters>
          </Trackpoint>
          <Trackpoint>
            <Time>2022-07-10T18:48:33.000Z</Time>
            <Position>
              <LatitudeDegrees>43.3198429830372333526611328125</LatitudeDegrees>
              <LongitudeDegrees>-2.41968604736030101776123046875</LongitudeDegrees>
            </Position>
            <AltitudeMeters>53</AltitudeMeters>
            <DistanceMeters>NAN</DistanceMeters>
          </Trackpoint>
          <Trackpoint>
            <Time>2022-07-10T18:48:37.000Z</Time>
            <Position>
              <LatitudeDegrees>43.3198128081858158111572265625</LatitudeDegrees>
              <LongitudeDegrees>-2.41975276730954647064208984375</LongitudeDegrees>
            </Position>
            <AltitudeMeters>54.200000762939453125</AltitudeMeters>
            <DistanceMeters>NAN</DistanceMeters>
          </Trackpoint>
          <Trackpoint>
            <Time>2022-07-10T18:48:38.000Z</Time>
            <Position>
              <LatitudeDegrees>43.31980325281620025634765625</LatitudeDegrees>
              <LongitudeDegrees>-2.4197828583419322967529296875</LongitudeDegrees>
            </Position>
            <AltitudeMeters>54.40000152587890625</AltitudeMeters>
            <DistanceMeters>NAN</DistanceMeters>
          </Trackpoint>
          <Trackpoint>
            <Time>2022-07-10T18:48:43.000Z</Time>
            <Position>
              <LatitudeDegrees>43.319774754345417022705078125</LatitudeDegrees>
              <LongitudeDegrees>-2.41994990967214107513427734375</LongitudeDegrees>
            </Position>
            <AltitudeMeters>55</AltitudeMeters>
            <DistanceMeters>NAN</DistanceMeters>
          </Trackpoint>
          <Trackpoint>
            <Time>2022-07-10T18:48:45.000Z</Time>
            <Position>
              <LatitudeDegrees>43.31975857727229595184326171875</LatitudeDegrees>
              <LongitudeDegrees>-2.4199917353689670562744140625</LongitudeDegrees>
            </Position>
            <AltitudeMeters>55.200000762939453125</AltitudeMeters>
            <DistanceMeters>NAN</DistanceMeters>
          </Trackpoint>
          <Trackpoint>
            <Time>2022-07-10T18:48:46.000Z</Time>
            <Position>
              <LatitudeDegrees>43.31975120119750499725341796875</LatitudeDegrees>
              <LongitudeDegrees>-2.419997937977313995361328125</LongitudeDegrees>
            </Position>
            <AltitudeMeters>55.200000762939453125</AltitudeMeters>
            <DistanceMeters>NAN</DistanceMeters>
          </Trackpoint>
          <Trackpoint>
            <Time>2022-07-10T18:48:47.000Z</Time>
            <Position>
              <LatitudeDegrees>43.3197484351694583892822265625</LatitudeDegrees>
              <LongitudeDegrees>-2.41999902762472629547119140625</LongitudeDegrees>
            </Position>
            <AltitudeMeters>55.200000762939453125</AltitudeMeters>
            <DistanceMeters>NAN</DistanceMeters>
          </Trackpoint>
          <Trackpoint>
            <Time>2022-07-10T18:48:51.000Z</Time>
            <Position>
              <LatitudeDegrees>43.3197484351694583892822265625</LatitudeDegrees>
              <LongitudeDegrees>-2.41999902762472629547119140625</LongitudeDegrees>
            </Position>
            <AltitudeMeters>55.799999237060546875</AltitudeMeters>
            <DistanceMeters>NAN</DistanceMeters>
          </Trackpoint>
          <Trackpoint>
            <Time>2022-07-10T18:49:06.000Z</Time>
            <Position>
              <LatitudeDegrees>43.31975036300718784332275390625</LatitudeDegrees>
              <LongitudeDegrees>-2.42010212503373622894287109375</LongitudeDegrees>
            </Position>
            <AltitudeMeters>56.59999847412109375</AltitudeMeters>
            <DistanceMeters>NAN</DistanceMeters>
          </Trackpoint>
          <Trackpoint>
            <Time>2022-07-10T18:49:07.000Z</Time>
            <Position>
              <LatitudeDegrees>43.31974156200885772705078125</LatitudeDegrees>
              <LongitudeDegrees>-2.4201389215886592864990234375</LongitudeDegrees>
            </Position>
            <AltitudeMeters>56.59999847412109375</AltitudeMeters>
            <DistanceMeters>NAN</DistanceMeters>
          </Trackpoint>
          <Trackpoint>
            <Time>2022-07-10T18:49:14.000Z</Time>
            <Position>
              <LatitudeDegrees>43.31965615041553974151611328125</LatitudeDegrees>
              <LongitudeDegrees>-2.42037604562938213348388671875</LongitudeDegrees>
            </Position>
            <AltitudeMeters>56.200000762939453125</AltitudeMeters>
            <DistanceMeters>NAN</DistanceMeters>
          </Trackpoint>
          <Trackpoint>
            <Time>2022-07-10T18:49:20.000Z</Time>
            <Position>
              <LatitudeDegrees>43.31954919733107089996337890625</LatitudeDegrees>
              <LongitudeDegrees>-2.42048283107578754425048828125</LongitudeDegrees>
            </Position>
            <AltitudeMeters>56.40000152587890625</AltitudeMeters>
            <DistanceMeters>NAN</DistanceMeters>
          </Trackpoint>
          <Trackpoint>
            <Time>2022-07-10T18:49:22.000Z</Time>
            <Position>
              <LatitudeDegrees>43.31951717846095561981201171875</LatitudeDegrees>
              <LongitudeDegrees>-2.42052264511585235595703125</LongitudeDegrees>
            </Position>
            <AltitudeMeters>56.40000152587890625</AltitudeMeters>
            <DistanceMeters>NAN</DistanceMeters>
          </Trackpoint>
          <Trackpoint>
            <Time>2022-07-10T18:49:24.000Z</Time>
            <Position>
              <LatitudeDegrees>43.31952505744993686676025390625</LatitudeDegrees>
              <LongitudeDegrees>-2.42058039642870426177978515625</LongitudeDegrees>
            </Position>
            <AltitudeMeters>56.59999847412109375</AltitudeMeters>
            <DistanceMeters>NAN</DistanceMeters>
          </Trackpoint>
          <Trackpoint>
            <Time>2022-07-10T18:49:34.000Z</Time>
            <Position>
              <LatitudeDegrees>43.31957392394542694091796875</LatitudeDegrees>
              <LongitudeDegrees>-2.42089874111115932464599609375</LongitudeDegrees>
            </Position>
            <AltitudeMeters>57</AltitudeMeters>
            <DistanceMeters>NAN</DistanceMeters>
          </Trackpoint>
          <Trackpoint>
            <Time>2022-07-10T18:49:39.000Z</Time>
            <Position>
              <LatitudeDegrees>43.3195754326879978179931640625</LatitudeDegrees>
              <LongitudeDegrees>-2.4210498668253421783447265625</LongitudeDegrees>
            </Position>
            <AltitudeMeters>57.200000762939453125</AltitudeMeters>
            <DistanceMeters>NAN</DistanceMeters>
          </Trackpoint>
          <Trackpoint>
            <Time>2022-07-10T18:49:41.000Z</Time>
            <Position>
              <LatitudeDegrees>43.319578282535076141357421875</LatitudeDegrees>
              <LongitudeDegrees>-2.4211149103939533233642578125</LongitudeDegrees>
            </Position>
            <AltitudeMeters>57.200000762939453125</AltitudeMeters>
            <DistanceMeters>NAN</DistanceMeters>
          </Trackpoint>
          <Trackpoint>
            <Time>2022-07-10T18:49:50.000Z</Time>
            <Position>
              <LatitudeDegrees>43.3196052722632884979248046875</LatitudeDegrees>
              <LongitudeDegrees>-2.42140668444335460662841796875</LongitudeDegrees>
            </Position>
            <AltitudeMeters>57.59999847412109375</AltitudeMeters>
            <DistanceMeters>NAN</DistanceMeters>
          </Trackpoint>
          <Trackpoint>
            <Time>2022-07-10T18:49:51.000Z</Time>
            <Position>
              <LatitudeDegrees>43.31960887648165225982666015625</LatitudeDegrees>
              <LongitudeDegrees>-2.42144138552248477935791015625</LongitudeDegrees>
            </Position>
            <AltitudeMeters>57.59999847412109375</AltitudeMeters>
            <DistanceMeters>NAN</DistanceMeters>
          </Trackpoint>
          <Trackpoint>
            <Time>2022-07-10T18:49:57.000Z</Time>
            <Position>
              <LatitudeDegrees>43.319585323333740234375</LatitudeDegrees>
              <LongitudeDegrees>-2.4216151423752307891845703125</LongitudeDegrees>
            </Position>
            <AltitudeMeters>57.799999237060546875</AltitudeMeters>
            <DistanceMeters>NAN</DistanceMeters>
          </Trackpoint>
          <Trackpoint>
            <Time>2022-07-10T18:50:00.000Z</Time>
            <Position>
              <LatitudeDegrees>43.31950913183391094207763671875</LatitudeDegrees>
              <LongitudeDegrees>-2.42164204828441143035888671875</LongitudeDegrees>
            </Position>
            <AltitudeMeters>57.59999847412109375</AltitudeMeters>
            <DistanceMeters>NAN</DistanceMeters>
          </Trackpoint>
          <Trackpoint>
            <Time>2022-07-10T18:50:02.000Z</Time>
            <Position>
              <LatitudeDegrees>43.319456912577152252197265625</LatitudeDegrees>
              <LongitudeDegrees>-2.4216391146183013916015625</LongitudeDegrees>
            </Position>
            <AltitudeMeters>58</AltitudeMeters>
            <DistanceMeters>NAN</DistanceMeters>
          </Trackpoint>
          <Trackpoint>
            <Time>2022-07-10T18:50:04.000Z</Time>
            <Position>
              <LatitudeDegrees>43.319427408277988433837890625</LatitudeDegrees>
              <LongitudeDegrees>-2.42166082374751567840576171875</LongitudeDegrees>
            </Position>
            <AltitudeMeters>58.40000152587890625</AltitudeMeters>
            <DistanceMeters>NAN</DistanceMeters>
          </Trackpoint>
          <Trackpoint>
            <Time>2022-07-10T18:50:05.000Z</Time>
            <Position>
              <LatitudeDegrees>43.3194145001471042633056640625</LatitudeDegrees>
              <LongitudeDegrees>-2.42167507298290729522705078125</LongitudeDegrees>
            </Position>
            <AltitudeMeters>58.799999237060546875</AltitudeMeters>
            <DistanceMeters>NAN</DistanceMeters>
          </Trackpoint>
          <Trackpoint>
            <Time>2022-07-10T18:50:07.000Z</Time>
            <Position>
              <LatitudeDegrees>43.31939731724560260772705078125</LatitudeDegrees>
              <LongitudeDegrees>-2.4217060022056102752685546875</LongitudeDegrees>
            </Position>
            <AltitudeMeters>59.200000762939453125</AltitudeMeters>
            <DistanceMeters>NAN</DistanceMeters>
          </Trackpoint>
          <Trackpoint>
            <Time>2022-07-10T18:50:11.000Z</Time>
            <Position>
              <LatitudeDegrees>43.31937007606029510498046875</LatitudeDegrees>
              <LongitudeDegrees>-2.421809099614620208740234375</LongitudeDegrees>
            </Position>
            <AltitudeMeters>59.799999237060546875</AltitudeMeters>
            <DistanceMeters>NAN</DistanceMeters>
          </Trackpoint>
          <Trackpoint>
            <Time>2022-07-10T18:50:13.000Z</Time>
            <Position>
              <LatitudeDegrees>43.31935406662523746490478515625</LatitudeDegrees>
              <LongitudeDegrees>-2.42183349095284938812255859375</LongitudeDegrees>
            </Position>
            <AltitudeMeters>60.40000152587890625</AltitudeMeters>
            <DistanceMeters>NAN</DistanceMeters>
          </Trackpoint>
          <Trackpoint>
            <Time>2022-07-10T18:50:14.000Z</Time>
            <Position>
              <LatitudeDegrees>43.3193447627127170562744140625</LatitudeDegrees>
              <LongitudeDegrees>-2.42185696028172969818115234375</LongitudeDegrees>
            </Position>
            <AltitudeMeters>60.59999847412109375</AltitudeMeters>
            <DistanceMeters>NAN</DistanceMeters>
          </Trackpoint>
          <Trackpoint>
            <Time>2022-07-10T18:50:16.000Z</Time>
            <Position>
              <LatitudeDegrees>43.3193380571901798248291015625</LatitudeDegrees>
              <LongitudeDegrees>-2.42190456949174404144287109375</LongitudeDegrees>
            </Position>
            <AltitudeMeters>61</AltitudeMeters>
            <DistanceMeters>NAN</DistanceMeters>
          </Trackpoint>
          <Trackpoint>
            <Time>2022-07-10T18:50:19.000Z</Time>
            <Position>
              <LatitudeDegrees>43.31930377520620822906494140625</LatitudeDegrees>
              <LongitudeDegrees>-2.42191546596586704254150390625</LongitudeDegrees>
            </Position>
            <AltitudeMeters>61.799999237060546875</AltitudeMeters>
            <DistanceMeters>NAN</DistanceMeters>
          </Trackpoint>
          <Trackpoint>
            <Time>2022-07-10T18:50:20.000Z</Time>
            <Position>
              <LatitudeDegrees>43.31929153762757778167724609375</LatitudeDegrees>
              <LongitudeDegrees>-2.421914041042327880859375</LongitudeDegrees>
            </Position>
            <AltitudeMeters>62</AltitudeMeters>
            <DistanceMeters>NAN</DistanceMeters>
          </Trackpoint>
          <Trackpoint>
            <Time>2022-07-10T18:50:21.000Z</Time>
            <Position>
              <LatitudeDegrees>43.31928030587732791900634765625</LatitudeDegrees>
              <LongitudeDegrees>-2.4219239316880702972412109375</LongitudeDegrees>
            </Position>
            <AltitudeMeters>62.200000762939453125</AltitudeMeters>
            <DistanceMeters>NAN</DistanceMeters>
          </Trackpoint>
          <Trackpoint>
            <Time>2022-07-10T18:50:23.000Z</Time>
            <Position>
              <LatitudeDegrees>43.319255746901035308837890625</LatitudeDegrees>
              <LongitudeDegrees>-2.42193072102963924407958984375</LongitudeDegrees>
            </Position>
            <AltitudeMeters>62.799999237060546875</AltitudeMeters>
            <DistanceMeters>NAN</DistanceMeters>
          </Trackpoint>
          <Trackpoint>
            <Time>2022-07-10T18:50:24.000Z</Time>
            <Position>
              <LatitudeDegrees>43.3192512206733226776123046875</LatitudeDegrees>
              <LongitudeDegrees>-2.4219303019344806671142578125</LongitudeDegrees>
            </Position>
            <AltitudeMeters>63</AltitudeMeters>
            <DistanceMeters>NAN</DistanceMeters>
          </Trackpoint>
          <Trackpoint>
            <Time>2022-07-10T18:50:25.000Z</Time>
            <Position>
              <LatitudeDegrees>43.3192478679120540618896484375</LatitudeDegrees>
              <LongitudeDegrees>-2.421936504542827606201171875</LongitudeDegrees>
            </Position>
            <AltitudeMeters>63.200000762939453125</AltitudeMeters>
            <DistanceMeters>NAN</DistanceMeters>
          </Trackpoint>
          <Trackpoint>
            <Time>2022-07-10T18:50:26.000Z</Time>
            <Position>
              <LatitudeDegrees>43.31924761645495891571044921875</LatitudeDegrees>
              <LongitudeDegrees>-2.4219497479498386383056640625</LongitudeDegrees>
            </Position>
            <AltitudeMeters>63.40000152587890625</AltitudeMeters>
            <DistanceMeters>NAN</DistanceMeters>
          </Trackpoint>
          <Trackpoint>
            <Time>2022-07-10T18:50:27.000Z</Time>
            <Position>
              <LatitudeDegrees>43.319238312542438507080078125</LatitudeDegrees>
              <LongitudeDegrees>-2.4219663441181182861328125</LongitudeDegrees>
            </Position>
            <AltitudeMeters>63.59999847412109375</AltitudeMeters>
            <DistanceMeters>NAN</DistanceMeters>
          </Trackpoint>
          <Trackpoint>
            <Time>2022-07-10T18:50:33.000Z</Time>
            <Position>
              <LatitudeDegrees>43.319202773272991180419921875</LatitudeDegrees>
              <LongitudeDegrees>-2.42207673378288745880126953125</LongitudeDegrees>
            </Position>
            <AltitudeMeters>63.59999847412109375</AltitudeMeters>
            <DistanceMeters>NAN</DistanceMeters>
          </Trackpoint>
          <Trackpoint>
            <Time>2022-07-10T18:50:36.000Z</Time>
            <Position>
              <LatitudeDegrees>43.31919112242758274078369140625</LatitudeDegrees>
              <LongitudeDegrees>-2.42219156585633754730224609375</LongitudeDegrees>
            </Position>
            <AltitudeMeters>63.40000152587890625</AltitudeMeters>
            <DistanceMeters>NAN</DistanceMeters>
          </Trackpoint>
          <Trackpoint>
            <Time>2022-07-10T18:50:38.000Z</Time>
            <Position>
              <LatitudeDegrees>43.3192019350826740264892578125</LatitudeDegrees>
              <LongitudeDegrees>-2.4222820065915584564208984375</LongitudeDegrees>
            </Position>
            <AltitudeMeters>63.200000762939453125</AltitudeMeters>
            <DistanceMeters>NAN</DistanceMeters>
          </Trackpoint>
          <Trackpoint>
            <Time>2022-07-10T18:50:40.000Z</Time>
            <Position>
              <LatitudeDegrees>43.3192163519561290740966796875</LatitudeDegrees>
              <LongitudeDegrees>-2.42237144149839878082275390625</LongitudeDegrees>
            </Position>
            <AltitudeMeters>63.200000762939453125</AltitudeMeters>
            <DistanceMeters>NAN</DistanceMeters>
          </Trackpoint>
          <Trackpoint>
            <Time>2022-07-10T18:50:42.000Z</Time>
            <Position>
              <LatitudeDegrees>43.31926270388066768646240234375</LatitudeDegrees>
              <LongitudeDegrees>-2.42243682034313678741455078125</LongitudeDegrees>
            </Position>
            <AltitudeMeters>63</AltitudeMeters>
            <DistanceMeters>NAN</DistanceMeters>
          </Trackpoint>
          <Trackpoint>
            <Time>2022-07-10T18:50:47.000Z</Time>
            <Position>
              <LatitudeDegrees>43.31940972246229648590087890625</LatitudeDegrees>
              <LongitudeDegrees>-2.422608397901058197021484375</LongitudeDegrees>
            </Position>
            <AltitudeMeters>62.59999847412109375</AltitudeMeters>
            <DistanceMeters>NAN</DistanceMeters>
          </Trackpoint>
          <Trackpoint>
            <Time>2022-07-10T18:50:49.000Z</Time>
            <Position>
              <LatitudeDegrees>43.31948147155344486236572265625</LatitudeDegrees>
              <LongitudeDegrees>-2.422666735947132110595703125</LongitudeDegrees>
            </Position>
            <AltitudeMeters>62.40000152587890625</AltitudeMeters>
            <DistanceMeters>NAN</DistanceMeters>
          </Trackpoint>
          <Trackpoint>
            <Time>2022-07-10T18:50:53.000Z</Time>
            <Position>
              <LatitudeDegrees>43.31956160254776477813720703125</LatitudeDegrees>
              <LongitudeDegrees>-2.42282322607934474945068359375</LongitudeDegrees>
            </Position>
            <AltitudeMeters>62.40000152587890625</AltitudeMeters>
            <DistanceMeters>NAN</DistanceMeters>
          </Trackpoint>
          <Trackpoint>
            <Time>2022-07-10T18:50:57.000Z</Time>
            <Position>
              <LatitudeDegrees>43.319574929773807525634765625</LatitudeDegrees>
              <LongitudeDegrees>-2.4229502119123935699462890625</LongitudeDegrees>
            </Position>
            <AltitudeMeters>62.59999847412109375</AltitudeMeters>
            <DistanceMeters>NAN</DistanceMeters>
          </Trackpoint>
          <Trackpoint>
            <Time>2022-07-10T18:51:03.000Z</Time>
            <Position>
              <LatitudeDegrees>43.319483734667301177978515625</LatitudeDegrees>
              <LongitudeDegrees>-2.4231594242155551910400390625</LongitudeDegrees>
            </Position>
            <AltitudeMeters>62.59999847412109375</AltitudeMeters>
            <DistanceMeters>NAN</DistanceMeters>
          </Trackpoint>
          <Trackpoint>
            <Time>2022-07-10T18:51:07.000Z</Time>
            <Position>
              <LatitudeDegrees>43.31940938718616962432861328125</LatitudeDegrees>
              <LongitudeDegrees>-2.42328439839184284210205078125</LongitudeDegrees>
            </Position>
            <AltitudeMeters>63</AltitudeMeters>
            <DistanceMeters>NAN</DistanceMeters>
          </Trackpoint>
          <Trackpoint>
            <Time>2022-07-10T18:51:10.000Z</Time>
            <Position>
              <LatitudeDegrees>43.31936228089034557342529296875</LatitudeDegrees>
              <LongitudeDegrees>-2.423377521336078643798828125</LongitudeDegrees>
            </Position>
            <AltitudeMeters>63.200000762939453125</AltitudeMeters>
            <DistanceMeters>NAN</DistanceMeters>
          </Trackpoint>
          <Trackpoint>
            <Time>2022-07-10T18:51:13.000Z</Time>
            <Position>
              <LatitudeDegrees>43.31929891370236873626708984375</LatitudeDegrees>
              <LongitudeDegrees>-2.4234893359243869781494140625</LongitudeDegrees>
            </Position>
            <AltitudeMeters>63.40000152587890625</AltitudeMeters>
            <DistanceMeters>NAN</DistanceMeters>
          </Trackpoint>
          <Trackpoint>
            <Time>2022-07-10T18:51:20.000Z</Time>
            <Position>
              <LatitudeDegrees>43.31917502917349338531494140625</LatitudeDegrees>
              <LongitudeDegrees>-2.4236955307424068450927734375</LongitudeDegrees>
            </Position>
            <AltitudeMeters>63.200000762939453125</AltitudeMeters>
            <DistanceMeters>NAN</DistanceMeters>
          </Trackpoint>
          <Trackpoint>
            <Time>2022-07-10T18:51:21.000Z</Time>
            <Position>
              <LatitudeDegrees>43.3191479556262493133544921875</LatitudeDegrees>
              <LongitudeDegrees>-2.42371045053005218505859375</LongitudeDegrees>
            </Position>
            <AltitudeMeters>63.200000762939453125</AltitudeMeters>
            <DistanceMeters>NAN</DistanceMeters>
          </Trackpoint>
          <Trackpoint>
            <Time>2022-07-10T18:51:25.000Z</Time>
            <Position>
              <LatitudeDegrees>43.31909808330237865447998046875</LatitudeDegrees>
              <LongitudeDegrees>-2.42373526096343994140625</LongitudeDegrees>
            </Position>
            <AltitudeMeters>63.40000152587890625</AltitudeMeters>
            <DistanceMeters>NAN</DistanceMeters>
          </Trackpoint>
          <Trackpoint>
            <Time>2022-07-10T18:51:28.000Z</Time>
            <Position>
              <LatitudeDegrees>43.31909808330237865447998046875</LatitudeDegrees>
              <LongitudeDegrees>-2.42373526096343994140625</LongitudeDegrees>
            </Position>
            <AltitudeMeters>63.799999237060546875</AltitudeMeters>
            <DistanceMeters>NAN</DistanceMeters>
          </Trackpoint>
          <Trackpoint>
            <Time>2022-07-10T18:51:38.000Z</Time>
            <Position>
              <LatitudeDegrees>43.31914602778851985931396484375</LatitudeDegrees>
              <LongitudeDegrees>-2.4237200058996677398681640625</LongitudeDegrees>
            </Position>
            <AltitudeMeters>64.40000152587890625</AltitudeMeters>
            <DistanceMeters>NAN</DistanceMeters>
          </Trackpoint>
          <Trackpoint>
            <Time>2022-07-10T18:51:39.000Z</Time>
            <Position>
              <LatitudeDegrees>43.3191466145217418670654296875</LatitudeDegrees>
              <LongitudeDegrees>-2.4237190000712871551513671875</LongitudeDegrees>
            </Position>
            <AltitudeMeters>64.1999969482421875</AltitudeMeters>
            <DistanceMeters>NAN</DistanceMeters>
          </Trackpoint>
          <Trackpoint>
            <Time>2022-07-10T18:51:42.000Z</Time>
            <Position>
              <LatitudeDegrees>43.31914485432207584381103515625</LatitudeDegrees>
              <LongitudeDegrees>-2.42371925152838230133056640625</LongitudeDegrees>
            </Position>
            <AltitudeMeters>64.1999969482421875</AltitudeMeters>
            <DistanceMeters>NAN</DistanceMeters>
          </Trackpoint>
          <Trackpoint>
            <Time>2022-07-10T18:55:29.000Z</Time>
            <Position>
              <LatitudeDegrees>43.3190463669598102569580078125</LatitudeDegrees>
              <LongitudeDegrees>-2.42376266978681087493896484375</LongitudeDegrees>
            </Position>
            <AltitudeMeters>64.40000152587890625</AltitudeMeters>
            <DistanceMeters>NAN</DistanceMeters>
          </Trackpoint>
          <Trackpoint>
            <Time>2022-07-10T18:55:30.000Z</Time>
            <Position>
              <LatitudeDegrees>43.3190463669598102569580078125</LatitudeDegrees>
              <LongitudeDegrees>-2.42376266978681087493896484375</LongitudeDegrees>
            </Position>
            <AltitudeMeters>64.40000152587890625</AltitudeMeters>
            <DistanceMeters>NAN</DistanceMeters>
          </Trackpoint>
          <Trackpoint>
            <Time>2022-07-10T18:55:31.000Z</Time>
            <Position>
              <LatitudeDegrees>43.319044522941112518310546875</LatitudeDegrees>
              <LongitudeDegrees>-2.4237656034529209136962890625</LongitudeDegrees>
            </Position>
            <AltitudeMeters>65.1999969482421875</AltitudeMeters>
            <DistanceMeters>NAN</DistanceMeters>
          </Trackpoint>
          <Trackpoint>
            <Time>2022-07-10T18:55:32.000Z</Time>
            <Position>
              <LatitudeDegrees>43.3190406672656536102294921875</LatitudeDegrees>
              <LongitudeDegrees>-2.42378630675375461578369140625</LongitudeDegrees>
            </Position>
            <AltitudeMeters>65.8000030517578125</AltitudeMeters>
            <DistanceMeters>NAN</DistanceMeters>
          </Trackpoint>
          <Trackpoint>
            <Time>2022-07-10T18:55:33.000Z</Time>
            <Position>
              <LatitudeDegrees>43.31903924234211444854736328125</LatitudeDegrees>
              <LongitudeDegrees>-2.42380675859749317169189453125</LongitudeDegrees>
            </Position>
            <AltitudeMeters>66</AltitudeMeters>
            <DistanceMeters>NAN</DistanceMeters>
          </Trackpoint>
          <Trackpoint>
            <Time>2022-07-10T18:55:34.000Z</Time>
            <Position>
              <LatitudeDegrees>43.31903186626732349395751953125</LatitudeDegrees>
              <LongitudeDegrees>-2.42382754571735858917236328125</LongitudeDegrees>
            </Position>
            <AltitudeMeters>66.1999969482421875</AltitudeMeters>
            <DistanceMeters>NAN</DistanceMeters>
          </Trackpoint>
          <Trackpoint>
            <Time>2022-07-10T18:55:36.000Z</Time>
            <Position>
              <LatitudeDegrees>43.319003619253635406494140625</LatitudeDegrees>
              <LongitudeDegrees>-2.4238903261721134185791015625</LongitudeDegrees>
            </Position>
            <AltitudeMeters>66.40000152587890625</AltitudeMeters>
            <DistanceMeters>NAN</DistanceMeters>
          </Trackpoint>
          <Trackpoint>
            <Time>2022-07-10T18:55:39.000Z</Time>
            <Position>
              <LatitudeDegrees>43.3189293555915355682373046875</LatitudeDegrees>
              <LongitudeDegrees>-2.42401010356843471527099609375</LongitudeDegrees>
            </Position>
            <AltitudeMeters>66.59999847412109375</AltitudeMeters>
            <DistanceMeters>NAN</DistanceMeters>
          </Trackpoint>
          <Trackpoint>
            <Time>2022-07-10T18:55:40.000Z</Time>
            <Position>
              <LatitudeDegrees>43.31891250796616077423095703125</LatitudeDegrees>
              <LongitudeDegrees>-2.42404614575207233428955078125</LongitudeDegrees>
            </Position>
            <AltitudeMeters>66.8000030517578125</AltitudeMeters>
            <DistanceMeters>NAN</DistanceMeters>
          </Trackpoint>
          <Trackpoint>
            <Time>2022-07-10T18:55:46.000Z</Time>
            <Position>
              <LatitudeDegrees>43.3188277669250965118408203125</LatitudeDegrees>
              <LongitudeDegrees>-2.42426625452935695648193359375</LongitudeDegrees>
            </Position>
            <AltitudeMeters>67.40000152587890625</AltitudeMeters>
            <DistanceMeters>NAN</DistanceMeters>
          </Trackpoint>
          <Trackpoint>
            <Time>2022-07-10T18:55:52.000Z</Time>
            <Position>
              <LatitudeDegrees>43.31874336116015911102294921875</LatitudeDegrees>
              <LongitudeDegrees>-2.42450966499745845794677734375</LongitudeDegrees>
            </Position>
            <AltitudeMeters>67.40000152587890625</AltitudeMeters>
            <DistanceMeters>NAN</DistanceMeters>
          </Trackpoint>
          <Trackpoint>
            <Time>2022-07-10T18:55:59.000Z</Time>
            <Position>
              <LatitudeDegrees>43.3186089992523193359375</LatitudeDegrees>
              <LongitudeDegrees>-2.424823231995105743408203125</LongitudeDegrees>
            </Position>
            <AltitudeMeters>67.40000152587890625</AltitudeMeters>
            <DistanceMeters>NAN</DistanceMeters>
          </Trackpoint>
          <Trackpoint>
            <Time>2022-07-10T18:56:05.000Z</Time>
            <Position>
              <LatitudeDegrees>43.3185139484703540802001953125</LatitudeDegrees>
              <LongitudeDegrees>-2.4250483699142932891845703125</LongitudeDegrees>
            </Position>
            <AltitudeMeters>67.59999847412109375</AltitudeMeters>
            <DistanceMeters>NAN</DistanceMeters>
          </Trackpoint>
          <Trackpoint>
            <Time>2022-07-10T18:56:07.000Z</Time>
            <Position>
              <LatitudeDegrees>43.31848151050508022308349609375</LatitudeDegrees>
              <LongitudeDegrees>-2.4251308478415012359619140625</LongitudeDegrees>
            </Position>
            <AltitudeMeters>67.8000030517578125</AltitudeMeters>
            <DistanceMeters>NAN</DistanceMeters>
          </Trackpoint>
          <Trackpoint>
            <Time>2022-07-10T18:56:08.000Z</Time>
            <Position>
              <LatitudeDegrees>43.31846592016518115997314453125</LatitudeDegrees>
              <LongitudeDegrees>-2.42517250590026378631591796875</LongitudeDegrees>
            </Position>
            <AltitudeMeters>67.8000030517578125</AltitudeMeters>
            <DistanceMeters>NAN</DistanceMeters>
          </Trackpoint>
          <Trackpoint>
            <Time>2022-07-10T18:56:11.000Z</Time>
            <Position>
              <LatitudeDegrees>43.31843398511409759521484375</LatitudeDegrees>
              <LongitudeDegrees>-2.42529965937137603759765625</LongitudeDegrees>
            </Position>
            <AltitudeMeters>68</AltitudeMeters>
            <DistanceMeters>NAN</DistanceMeters>
          </Trackpoint>
          <Trackpoint>
            <Time>2022-07-10T18:56:14.000Z</Time>
            <Position>
              <LatitudeDegrees>43.31840288825333118438720703125</LatitudeDegrees>
              <LongitudeDegrees>-2.4254356138408184051513671875</LongitudeDegrees>
            </Position>
            <AltitudeMeters>68</AltitudeMeters>
            <DistanceMeters>NAN</DistanceMeters>
          </Trackpoint>
          <Trackpoint>
            <Time>2022-07-10T18:56:20.000Z</Time>
            <Position>
              <LatitudeDegrees>43.3183214999735355377197265625</LatitudeDegrees>
              <LongitudeDegrees>-2.42568061687052249908447265625</LongitudeDegrees>
            </Position>
            <AltitudeMeters>68.40000152587890625</AltitudeMeters>
            <DistanceMeters>NAN</DistanceMeters>
          </Trackpoint>
          <Trackpoint>
            <Time>2022-07-10T18:56:23.000Z</Time>
            <Position>
              <LatitudeDegrees>43.3182873018085956573486328125</LatitudeDegrees>
              <LongitudeDegrees>-2.42581020109355449676513671875</LongitudeDegrees>
            </Position>
            <AltitudeMeters>68.40000152587890625</AltitudeMeters>
            <DistanceMeters>NAN</DistanceMeters>
          </Trackpoint>
          <Trackpoint>
            <Time>2022-07-10T18:56:31.000Z</Time>
            <Position>
              <LatitudeDegrees>43.31821714527904987335205078125</LatitudeDegrees>
              <LongitudeDegrees>-2.42611697874963283538818359375</LongitudeDegrees>
            </Position>
            <AltitudeMeters>68.8000030517578125</AltitudeMeters>
            <DistanceMeters>NAN</DistanceMeters>
          </Trackpoint>
          <Trackpoint>
            <Time>2022-07-10T18:56:32.000Z</Time>
            <Position>
              <LatitudeDegrees>43.31821278668940067291259765625</LatitudeDegrees>
              <LongitudeDegrees>-2.42615771479904651641845703125</LongitudeDegrees>
            </Position>
            <AltitudeMeters>69</AltitudeMeters>
            <DistanceMeters>NAN</DistanceMeters>
          </Trackpoint>
          <Trackpoint>
            <Time>2022-07-10T18:56:39.000Z</Time>
            <Position>
              <LatitudeDegrees>43.3181853778660297393798828125</LatitudeDegrees>
              <LongitudeDegrees>-2.42642040364444255828857421875</LongitudeDegrees>
            </Position>
            <AltitudeMeters>69.59999847412109375</AltitudeMeters>
            <DistanceMeters>NAN</DistanceMeters>
          </Trackpoint>
          <Trackpoint>
            <Time>2022-07-10T18:56:42.000Z</Time>
            <Position>
              <LatitudeDegrees>43.3181763254106044769287109375</LatitudeDegrees>
              <LongitudeDegrees>-2.42652819491922855377197265625</LongitudeDegrees>
            </Position>
            <AltitudeMeters>69.59999847412109375</AltitudeMeters>
            <DistanceMeters>NAN</DistanceMeters>
          </Trackpoint>
          <Trackpoint>
            <Time>2022-07-10T18:56:44.000Z</Time>
            <Position>
              <LatitudeDegrees>43.3181816898286342620849609375</LatitudeDegrees>
              <LongitudeDegrees>-2.42661662399768829345703125</LongitudeDegrees>
            </Position>
            <AltitudeMeters>70</AltitudeMeters>
            <DistanceMeters>NAN</DistanceMeters>
          </Trackpoint>
          <Trackpoint>
            <Time>2022-07-10T18:56:50.000Z</Time>
            <Position>
              <LatitudeDegrees>43.31820138730108737945556640625</LatitudeDegrees>
              <LongitudeDegrees>-2.42683128453791141510009765625</LongitudeDegrees>
            </Position>
            <AltitudeMeters>70.40000152587890625</AltitudeMeters>
            <DistanceMeters>NAN</DistanceMeters>
          </Trackpoint>
          <Trackpoint>
            <Time>2022-07-10T18:56:55.000Z</Time>
            <Position>
              <LatitudeDegrees>43.31821270287036895751953125</LatitudeDegrees>
              <LongitudeDegrees>-2.42699749767780303955078125</LongitudeDegrees>
            </Position>
            <AltitudeMeters>71</AltitudeMeters>
            <DistanceMeters>NAN</DistanceMeters>
          </Trackpoint>
          <Trackpoint>
            <Time>2022-07-10T18:57:00.000Z</Time>
            <Position>
              <LatitudeDegrees>43.31823156215250492095947265625</LatitudeDegrees>
              <LongitudeDegrees>-2.42716756649315357208251953125</LongitudeDegrees>
            </Position>
            <AltitudeMeters>71.40000152587890625</AltitudeMeters>
            <DistanceMeters>NAN</DistanceMeters>
          </Trackpoint>
          <Trackpoint>
            <Time>2022-07-10T18:57:08.000Z</Time>
            <Position>
              <LatitudeDegrees>43.31824078224599361419677734375</LatitudeDegrees>
              <LongitudeDegrees>-2.42743763141334056854248046875</LongitudeDegrees>
            </Position>
            <AltitudeMeters>72</AltitudeMeters>
            <DistanceMeters>NAN</DistanceMeters>
          </Trackpoint>
          <Trackpoint>
            <Time>2022-07-10T18:57:11.000Z</Time>
            <Position>
              <LatitudeDegrees>43.3182482421398162841796875</LatitudeDegrees>
              <LongitudeDegrees>-2.42752245627343654632568359375</LongitudeDegrees>
            </Position>
            <AltitudeMeters>72.1999969482421875</AltitudeMeters>
            <DistanceMeters>NAN</DistanceMeters>
          </Trackpoint>
          <Trackpoint>
            <Time>2022-07-10T18:57:17.000Z</Time>
            <Position>
              <LatitudeDegrees>43.31826760433614253997802734375</LatitudeDegrees>
              <LongitudeDegrees>-2.42770752869546413421630859375</LongitudeDegrees>
            </Position>
            <AltitudeMeters>73.1999969482421875</AltitudeMeters>
            <DistanceMeters>NAN</DistanceMeters>
          </Trackpoint>
          <Trackpoint>
            <Time>2022-07-10T18:57:18.000Z</Time>
            <Position>
              <LatitudeDegrees>43.31827430985867977142333984375</LatitudeDegrees>
              <LongitudeDegrees>-2.42774323560297489166259765625</LongitudeDegrees>
            </Position>
            <AltitudeMeters>73.1999969482421875</AltitudeMeters>
            <DistanceMeters>NAN</DistanceMeters>
          </Trackpoint>
          <Trackpoint>
            <Time>2022-07-10T18:57:24.000Z</Time>
            <Position>
              <LatitudeDegrees>43.31827883608639240264892578125</LatitudeDegrees>
              <LongitudeDegrees>-2.42790668271481990814208984375</LongitudeDegrees>
            </Position>
            <AltitudeMeters>73.59999847412109375</AltitudeMeters>
            <DistanceMeters>NAN</DistanceMeters>
          </Trackpoint>
          <Trackpoint>
            <Time>2022-07-10T18:57:29.000Z</Time>
            <Position>
              <LatitudeDegrees>43.3183379285037517547607421875</LatitudeDegrees>
              <LongitudeDegrees>-2.4280460737645626068115234375</LongitudeDegrees>
            </Position>
            <AltitudeMeters>74.1999969482421875</AltitudeMeters>
            <DistanceMeters>NAN</DistanceMeters>
          </Trackpoint>
          <Trackpoint>
            <Time>2022-07-10T18:57:31.000Z</Time>
            <Position>
              <LatitudeDegrees>43.3183587156236171722412109375</LatitudeDegrees>
              <LongitudeDegrees>-2.42809644900262355804443359375</LongitudeDegrees>
            </Position>
            <AltitudeMeters>74.40000152587890625</AltitudeMeters>
            <DistanceMeters>NAN</DistanceMeters>
          </Trackpoint>
          <Trackpoint>
            <Time>2022-07-10T18:57:37.000Z</Time>
            <Position>
              <LatitudeDegrees>43.31843155436217784881591796875</LatitudeDegrees>
              <LongitudeDegrees>-2.4282723851501941680908203125</LongitudeDegrees>
            </Position>
            <AltitudeMeters>74.8000030517578125</AltitudeMeters>
            <DistanceMeters>NAN</DistanceMeters>
          </Trackpoint>
          <Trackpoint>
            <Time>2022-07-10T18:57:40.000Z</Time>
            <Position>
              <LatitudeDegrees>43.31848570145666599273681640625</LatitudeDegrees>
              <LongitudeDegrees>-2.42834639735519886016845703125</LongitudeDegrees>
            </Position>
            <AltitudeMeters>75.1999969482421875</AltitudeMeters>
            <DistanceMeters>NAN</DistanceMeters>
          </Trackpoint>
          <Trackpoint>
            <Time>2022-07-10T18:57:42.000Z</Time>
            <Position>
              <LatitudeDegrees>43.31851084716618061065673828125</LatitudeDegrees>
              <LongitudeDegrees>-2.42838679812848567962646484375</LongitudeDegrees>
            </Position>
            <AltitudeMeters>75.1999969482421875</AltitudeMeters>
            <DistanceMeters>NAN</DistanceMeters>
          </Trackpoint>
          <Trackpoint>
            <Time>2022-07-10T18:57:45.000Z</Time>
            <Position>
              <LatitudeDegrees>43.31854286603629589080810546875</LatitudeDegrees>
              <LongitudeDegrees>-2.42845033295452594757080078125</LongitudeDegrees>
            </Position>
            <AltitudeMeters>75.59999847412109375</AltitudeMeters>
            <DistanceMeters>NAN</DistanceMeters>
          </Trackpoint>
          <Trackpoint>
            <Time>2022-07-10T18:57:46.000Z</Time>
            <Position>
              <LatitudeDegrees>43.31855510361492633819580078125</LatitudeDegrees>
              <LongitudeDegrees>-2.4284738861024379730224609375</LongitudeDegrees>
            </Position>
            <AltitudeMeters>75.59999847412109375</AltitudeMeters>
            <DistanceMeters>NAN</DistanceMeters>
          </Trackpoint>
          <Trackpoint>
            <Time>2022-07-10T18:57:48.000Z</Time>
            <Position>
              <LatitudeDegrees>43.3185776509344577789306640625</LatitudeDegrees>
              <LongitudeDegrees>-2.42852526716887950897216796875</LongitudeDegrees>
            </Position>
            <AltitudeMeters>76</AltitudeMeters>
            <DistanceMeters>NAN</DistanceMeters>
          </Trackpoint>
          <Trackpoint>
            <Time>2022-07-10T18:57:54.000Z</Time>
            <Position>
              <LatitudeDegrees>43.318655602633953094482421875</LatitudeDegrees>
              <LongitudeDegrees>-2.4286592938005924224853515625</LongitudeDegrees>
            </Position>
            <AltitudeMeters>76.1999969482421875</AltitudeMeters>
            <DistanceMeters>NAN</DistanceMeters>
          </Trackpoint>
          <Trackpoint>
            <Time>2022-07-10T18:57:55.000Z</Time>
            <Position>
              <LatitudeDegrees>43.3186664991080760955810546875</LatitudeDegrees>
              <LongitudeDegrees>-2.4286807514727115631103515625</LongitudeDegrees>
            </Position>
            <AltitudeMeters>76.40000152587890625</AltitudeMeters>
            <DistanceMeters>NAN</DistanceMeters>
          </Trackpoint>
          <Trackpoint>
            <Time>2022-07-10T18:58:03.000Z</Time>
            <Position>
              <LatitudeDegrees>43.318756856024265289306640625</LatitudeDegrees>
              <LongitudeDegrees>-2.42886926047503948211669921875</LongitudeDegrees>
            </Position>
            <AltitudeMeters>77.40000152587890625</AltitudeMeters>
            <DistanceMeters>NAN</DistanceMeters>
          </Trackpoint>
          <Trackpoint>
            <Time>2022-07-10T18:58:05.000Z</Time>
            <Position>
              <LatitudeDegrees>43.31879071891307830810546875</LatitudeDegrees>
              <LongitudeDegrees>-2.428914606571197509765625</LongitudeDegrees>
            </Position>
            <AltitudeMeters>77.40000152587890625</AltitudeMeters>
            <DistanceMeters>NAN</DistanceMeters>
          </Trackpoint>
          <Trackpoint>
            <Time>2022-07-10T18:58:08.000Z</Time>
            <Position>
              <LatitudeDegrees>43.31882634200155735015869140625</LatitudeDegrees>
              <LongitudeDegrees>-2.42897319607436656951904296875</LongitudeDegrees>
            </Position>
            <AltitudeMeters>77.8000030517578125</AltitudeMeters>
            <DistanceMeters>NAN</DistanceMeters>
          </Trackpoint>
          <Trackpoint>
            <Time>2022-07-10T18:58:13.000Z</Time>
            <Position>
              <LatitudeDegrees>43.3188804052770137786865234375</LatitudeDegrees>
              <LongitudeDegrees>-2.42907595820724964141845703125</LongitudeDegrees>
            </Position>
            <AltitudeMeters>78.1999969482421875</AltitudeMeters>
            <DistanceMeters>NAN</DistanceMeters>
          </Trackpoint>
          <Trackpoint>
            <Time>2022-07-10T18:58:14.000Z</Time>
            <Position>
              <LatitudeDegrees>43.31889591179788112640380859375</LatitudeDegrees>
              <LongitudeDegrees>-2.42910797707736492156982421875</LongitudeDegrees>
            </Position>
            <AltitudeMeters>78.40000152587890625</AltitudeMeters>
            <DistanceMeters>NAN</DistanceMeters>
          </Trackpoint>
          <Trackpoint>
            <Time>2022-07-10T18:58:18.000Z</Time>
            <Position>
              <LatitudeDegrees>43.31894628703594207763671875</LatitudeDegrees>
              <LongitudeDegrees>-2.429203279316425323486328125</LongitudeDegrees>
            </Position>
            <AltitudeMeters>78.59999847412109375</AltitudeMeters>
            <DistanceMeters>NAN</DistanceMeters>
          </Trackpoint>
          <Trackpoint>
            <Time>2022-07-10T18:58:23.000Z</Time>
            <Position>
              <LatitudeDegrees>43.31900395452976226806640625</LatitudeDegrees>
              <LongitudeDegrees>-2.42933076806366443634033203125</LongitudeDegrees>
            </Position>
            <AltitudeMeters>78.59999847412109375</AltitudeMeters>
            <DistanceMeters>NAN</DistanceMeters>
          </Trackpoint>
          <Trackpoint>
            <Time>2022-07-10T18:58:32.000Z</Time>
            <Position>
              <LatitudeDegrees>43.319093473255634307861328125</LatitudeDegrees>
              <LongitudeDegrees>-2.42955825291574001312255859375</LongitudeDegrees>
            </Position>
            <AltitudeMeters>79.1999969482421875</AltitudeMeters>
            <DistanceMeters>NAN</DistanceMeters>
          </Trackpoint>
          <Trackpoint>
            <Time>2022-07-10T18:58:41.000Z</Time>
            <Position>
              <LatitudeDegrees>43.31919011659920215606689453125</LatitudeDegrees>
              <LongitudeDegrees>-2.42985681630671024322509765625</LongitudeDegrees>
            </Position>
            <AltitudeMeters>79.1999969482421875</AltitudeMeters>
            <DistanceMeters>NAN</DistanceMeters>
          </Trackpoint>
          <Trackpoint>
            <Time>2022-07-10T18:58:42.000Z</Time>
            <Position>
              <LatitudeDegrees>43.3191992528736591339111328125</LatitudeDegrees>
              <LongitudeDegrees>-2.42989839054644107818603515625</LongitudeDegrees>
            </Position>
            <AltitudeMeters>79.40000152587890625</AltitudeMeters>
            <DistanceMeters>NAN</DistanceMeters>
          </Trackpoint>
          <Trackpoint>
            <Time>2022-07-10T18:58:46.000Z</Time>
            <Position>
              <LatitudeDegrees>43.31923085264861583709716796875</LatitudeDegrees>
              <LongitudeDegrees>-2.43005127646028995513916015625</LongitudeDegrees>
            </Position>
            <AltitudeMeters>79.59999847412109375</AltitudeMeters>
            <DistanceMeters>NAN</DistanceMeters>
          </Trackpoint>
          <Trackpoint>
            <Time>2022-07-10T18:58:50.000Z</Time>
            <Position>
              <LatitudeDegrees>43.31925147213041782379150390625</LatitudeDegrees>
              <LongitudeDegrees>-2.4302166514098644256591796875</LongitudeDegrees>
            </Position>
            <AltitudeMeters>79.8000030517578125</AltitudeMeters>
            <DistanceMeters>NAN</DistanceMeters>
          </Trackpoint>
          <Trackpoint>
            <Time>2022-07-10T18:58:58.000Z</Time>
            <Position>
              <LatitudeDegrees>43.3192840777337551116943359375</LatitudeDegrees>
              <LongitudeDegrees>-2.43059375323355197906494140625</LongitudeDegrees>
            </Position>
            <AltitudeMeters>80</AltitudeMeters>
            <DistanceMeters>NAN</DistanceMeters>
          </Trackpoint>
          <Trackpoint>
            <Time>2022-07-10T18:59:06.000Z</Time>
            <Position>
              <LatitudeDegrees>43.31926236860454082489013671875</LatitudeDegrees>
              <LongitudeDegrees>-2.43103430606424808502197265625</LongitudeDegrees>
            </Position>
            <AltitudeMeters>79.8000030517578125</AltitudeMeters>
            <DistanceMeters>NAN</DistanceMeters>
          </Trackpoint>
          <Trackpoint>
            <Time>2022-07-10T18:59:13.000Z</Time>
            <Position>
              <LatitudeDegrees>43.3191801421344280242919921875</LatitudeDegrees>
              <LongitudeDegrees>-2.4314868450164794921875</LongitudeDegrees>
            </Position>
            <AltitudeMeters>79.59999847412109375</AltitudeMeters>
            <DistanceMeters>NAN</DistanceMeters>
          </Trackpoint>
          <Trackpoint>
            <Time>2022-07-10T18:59:19.000Z</Time>
            <Position>
              <LatitudeDegrees>43.31905131228268146514892578125</LatitudeDegrees>
              <LongitudeDegrees>-2.43190770037472248077392578125</LongitudeDegrees>
            </Position>
            <AltitudeMeters>79</AltitudeMeters>
            <DistanceMeters>NAN</DistanceMeters>
          </Trackpoint>
          <Trackpoint>
            <Time>2022-07-10T18:59:23.000Z</Time>
            <Position>
              <LatitudeDegrees>43.3189394138753414154052734375</LatitudeDegrees>
              <LongitudeDegrees>-2.432181872427463531494140625</LongitudeDegrees>
            </Position>
            <AltitudeMeters>78.40000152587890625</AltitudeMeters>
            <DistanceMeters>NAN</DistanceMeters>
          </Trackpoint>
          <Trackpoint>
            <Time>2022-07-10T18:59:24.000Z</Time>
            <Position>
              <LatitudeDegrees>43.31890848465263843536376953125</LatitudeDegrees>
              <LongitudeDegrees>-2.432250268757343292236328125</LongitudeDegrees>
            </Position>
            <AltitudeMeters>78.40000152587890625</AltitudeMeters>
            <DistanceMeters>NAN</DistanceMeters>
          </Trackpoint>
          <Trackpoint>
            <Time>2022-07-10T18:59:26.000Z</Time>
            <Position>
              <LatitudeDegrees>43.3188488893210887908935546875</LatitudeDegrees>
              <LongitudeDegrees>-2.43239787407219409942626953125</LongitudeDegrees>
            </Position>
            <AltitudeMeters>78.1999969482421875</AltitudeMeters>
            <DistanceMeters>NAN</DistanceMeters>
          </Trackpoint>
          <Trackpoint>
            <Time>2022-07-10T18:59:32.000Z</Time>
            <Position>
              <LatitudeDegrees>43.31868234090507030487060546875</LatitudeDegrees>
              <LongitudeDegrees>-2.43289542384445667266845703125</LongitudeDegrees>
            </Position>
            <AltitudeMeters>77.1999969482421875</AltitudeMeters>
            <DistanceMeters>NAN</DistanceMeters>
          </Trackpoint>
          <Trackpoint>
            <Time>2022-07-10T18:59:34.000Z</Time>
            <Position>
              <LatitudeDegrees>43.318607993423938751220703125</LatitudeDegrees>
              <LongitudeDegrees>-2.433077730238437652587890625</LongitudeDegrees>
            </Position>
            <AltitudeMeters>76.8000030517578125</AltitudeMeters>
            <DistanceMeters>NAN</DistanceMeters>
          </Trackpoint>
          <Trackpoint>
            <Time>2022-07-10T18:59:38.000Z</Time>
            <Position>
              <LatitudeDegrees>43.31850766204297542572021484375</LatitudeDegrees>
              <LongitudeDegrees>-2.4334366433322429656982421875</LongitudeDegrees>
            </Position>
            <AltitudeMeters>76.40000152587890625</AltitudeMeters>
            <DistanceMeters>NAN</DistanceMeters>
          </Trackpoint>
          <Trackpoint>
            <Time>2022-07-10T18:59:40.000Z</Time>
            <Position>
              <LatitudeDegrees>43.31845686770975589752197265625</LatitudeDegrees>
              <LongitudeDegrees>-2.43361475877463817596435546875</LongitudeDegrees>
            </Position>
            <AltitudeMeters>76.1999969482421875</AltitudeMeters>
            <DistanceMeters>NAN</DistanceMeters>
          </Trackpoint>
          <Trackpoint>
            <Time>2022-07-10T18:59:42.000Z</Time>
            <Position>
              <LatitudeDegrees>43.318406827747821807861328125</LatitudeDegrees>
              <LongitudeDegrees>-2.433784492313861846923828125</LongitudeDegrees>
            </Position>
            <AltitudeMeters>76</AltitudeMeters>
            <DistanceMeters>NAN</DistanceMeters>
          </Trackpoint>
          <Trackpoint>
            <Time>2022-07-10T18:59:47.000Z</Time>
            <Position>
              <LatitudeDegrees>43.31834170036017894744873046875</LatitudeDegrees>
              <LongitudeDegrees>-2.43424893356859683990478515625</LongitudeDegrees>
            </Position>
            <AltitudeMeters>75.59999847412109375</AltitudeMeters>
            <DistanceMeters>NAN</DistanceMeters>
          </Trackpoint>
          <Trackpoint>
            <Time>2022-07-10T18:59:49.000Z</Time>
            <Position>
              <LatitudeDegrees>43.3183328993618488311767578125</LatitudeDegrees>
              <LongitudeDegrees>-2.43443115614354610443115234375</LongitudeDegrees>
            </Position>
            <AltitudeMeters>75.1999969482421875</AltitudeMeters>
            <DistanceMeters>NAN</DistanceMeters>
          </Trackpoint>
          <Trackpoint>
            <Time>2022-07-10T18:59:54.000Z</Time>
            <Position>
              <LatitudeDegrees>43.3183251880109310150146484375</LatitudeDegrees>
              <LongitudeDegrees>-2.43484522216022014617919921875</LongitudeDegrees>
            </Position>
            <AltitudeMeters>74.59999847412109375</AltitudeMeters>
            <DistanceMeters>NAN</DistanceMeters>
          </Trackpoint>
          <Trackpoint>
            <Time>2022-07-10T18:59:55.000Z</Time>
            <Position>
              <LatitudeDegrees>43.31832862459123134613037109375</LatitudeDegrees>
              <LongitudeDegrees>-2.434928119182586669921875</LongitudeDegrees>
            </Position>
            <AltitudeMeters>74.59999847412109375</AltitudeMeters>
            <DistanceMeters>NAN</DistanceMeters>
          </Trackpoint>
          <Trackpoint>
            <Time>2022-07-10T18:59:59.000Z</Time>
            <Position>
              <LatitudeDegrees>43.31835745833814144134521484375</LatitudeDegrees>
              <LongitudeDegrees>-2.43524394929409027099609375</LongitudeDegrees>
            </Position>
            <AltitudeMeters>74.1999969482421875</AltitudeMeters>
            <DistanceMeters>NAN</DistanceMeters>
          </Trackpoint>
          <Trackpoint>
            <Time>2022-07-10T19:00:02.000Z</Time>
            <Position>
              <LatitudeDegrees>43.31838813610374927520751953125</LatitudeDegrees>
              <LongitudeDegrees>-2.43547805584967136383056640625</LongitudeDegrees>
            </Position>
            <AltitudeMeters>74.1999969482421875</AltitudeMeters>
            <DistanceMeters>NAN</DistanceMeters>
          </Trackpoint>
          <Trackpoint>
            <Time>2022-07-10T19:00:10.000Z</Time>
            <Position>
              <LatitudeDegrees>43.318483941256999969482421875</LatitudeDegrees>
              <LongitudeDegrees>-2.43600460700690746307373046875</LongitudeDegrees>
            </Position>
            <AltitudeMeters>74.59999847412109375</AltitudeMeters>
            <DistanceMeters>NAN</DistanceMeters>
          </Trackpoint>
          <Trackpoint>
            <Time>2022-07-10T19:00:19.000Z</Time>
            <Position>
              <LatitudeDegrees>43.3186210691928863525390625</LatitudeDegrees>
              <LongitudeDegrees>-2.43651422671973705291748046875</LongitudeDegrees>
            </Position>
            <AltitudeMeters>75</AltitudeMeters>
            <DistanceMeters>NAN</DistanceMeters>
          </Trackpoint>
          <Trackpoint>
            <Time>2022-07-10T19:00:20.000Z</Time>
            <Position>
              <LatitudeDegrees>43.3186329714953899383544921875</LatitudeDegrees>
              <LongitudeDegrees>-2.436566613614559173583984375</LongitudeDegrees>
            </Position>
            <AltitudeMeters>75</AltitudeMeters>
            <DistanceMeters>NAN</DistanceMeters>
          </Trackpoint>
          <Trackpoint>
            <Time>2022-07-10T19:00:23.000Z</Time>
            <Position>
              <LatitudeDegrees>43.3186691813170909881591796875</LatitudeDegrees>
              <LongitudeDegrees>-2.43671069853007793426513671875</LongitudeDegrees>
            </Position>
            <AltitudeMeters>75</AltitudeMeters>
            <DistanceMeters>NAN</DistanceMeters>
          </Trackpoint>
          <Trackpoint>
            <Time>2022-07-10T19:00:26.000Z</Time>
            <Position>
              <LatitudeDegrees>43.31872559152543544769287109375</LatitudeDegrees>
              <LongitudeDegrees>-2.43683760054409503936767578125</LongitudeDegrees>
            </Position>
            <AltitudeMeters>75</AltitudeMeters>
            <DistanceMeters>NAN</DistanceMeters>
          </Trackpoint>
          <Trackpoint>
            <Time>2022-07-10T19:00:33.000Z</Time>
            <Position>
              <LatitudeDegrees>43.31888367421925067901611328125</LatitudeDegrees>
              <LongitudeDegrees>-2.4372078292071819305419921875</LongitudeDegrees>
            </Position>
            <AltitudeMeters>74.8000030517578125</AltitudeMeters>
            <DistanceMeters>NAN</DistanceMeters>
          </Trackpoint>
          <Trackpoint>
            <Time>2022-07-10T19:00:34.000Z</Time>
            <Position>
              <LatitudeDegrees>43.3189080655574798583984375</LatitudeDegrees>
              <LongitudeDegrees>-2.437270693480968475341796875</LongitudeDegrees>
            </Position>
            <AltitudeMeters>74.59999847412109375</AltitudeMeters>
            <DistanceMeters>NAN</DistanceMeters>
          </Trackpoint>
          <Trackpoint>
            <Time>2022-07-10T19:00:36.000Z</Time>
            <Position>
              <LatitudeDegrees>43.31896699033677577972412109375</LatitudeDegrees>
              <LongitudeDegrees>-2.43742735125124454498291015625</LongitudeDegrees>
            </Position>
            <AltitudeMeters>74</AltitudeMeters>
            <DistanceMeters>NAN</DistanceMeters>
          </Trackpoint>
          <Trackpoint>
            <Time>2022-07-10T19:00:38.000Z</Time>
            <Position>
              <LatitudeDegrees>43.3190255798399448394775390625</LatitudeDegrees>
              <LongitudeDegrees>-2.43757822550833225250244140625</LongitudeDegrees>
            </Position>
            <AltitudeMeters>73.59999847412109375</AltitudeMeters>
            <DistanceMeters>NAN</DistanceMeters>
          </Trackpoint>
          <Trackpoint>
            <Time>2022-07-10T19:00:39.000Z</Time>
            <Position>
              <LatitudeDegrees>43.31905893981456756591796875</LatitudeDegrees>
              <LongitudeDegrees>-2.43766732513904571533203125</LongitudeDegrees>
            </Position>
            <AltitudeMeters>73.40000152587890625</AltitudeMeters>
            <DistanceMeters>NAN</DistanceMeters>
          </Trackpoint>
          <Trackpoint>
            <Time>2022-07-10T19:00:40.000Z</Time>
            <Position>
              <LatitudeDegrees>43.3190912939608097076416015625</LatitudeDegrees>
              <LongitudeDegrees>-2.43775759823620319366455078125</LongitudeDegrees>
            </Position>
            <AltitudeMeters>72.8000030517578125</AltitudeMeters>
            <DistanceMeters>NAN</DistanceMeters>
          </Trackpoint>
          <Trackpoint>
            <Time>2022-07-10T19:00:45.000Z</Time>
            <Position>
              <LatitudeDegrees>43.3192240633070468902587890625</LatitudeDegrees>
              <LongitudeDegrees>-2.4381157569587230682373046875</LongitudeDegrees>
            </Position>
            <AltitudeMeters>72.8000030517578125</AltitudeMeters>
            <DistanceMeters>NAN</DistanceMeters>
          </Trackpoint>
          <Trackpoint>
            <Time>2022-07-10T19:00:49.000Z</Time>
            <Position>
              <LatitudeDegrees>43.31928399391472339630126953125</LatitudeDegrees>
              <LongitudeDegrees>-2.4382424913346767425537109375</LongitudeDegrees>
            </Position>
            <AltitudeMeters>73.59999847412109375</AltitudeMeters>
            <DistanceMeters>NAN</DistanceMeters>
          </Trackpoint>
          <Trackpoint>
            <Time>2022-07-10T19:00:51.000Z</Time>
            <Position>
              <LatitudeDegrees>43.31930193118751049041748046875</LatitudeDegrees>
              <LongitudeDegrees>-2.43829856626689434051513671875</LongitudeDegrees>
            </Position>
            <AltitudeMeters>74</AltitudeMeters>
            <DistanceMeters>NAN</DistanceMeters>
          </Trackpoint>
          <Trackpoint>
            <Time>2022-07-10T19:00:52.000Z</Time>
            <Position>
              <LatitudeDegrees>43.31931249238550662994384765625</LatitudeDegrees>
              <LongitudeDegrees>-2.4383269809186458587646484375</LongitudeDegrees>
            </Position>
            <AltitudeMeters>74.1999969482421875</AltitudeMeters>
            <DistanceMeters>NAN</DistanceMeters>
          </Trackpoint>
          <Trackpoint>
            <Time>2022-07-10T19:00:53.000Z</Time>
            <Position>
              <LatitudeDegrees>43.31931953318417072296142578125</LatitudeDegrees>
              <LongitudeDegrees>-2.43834852240979671478271484375</LongitudeDegrees>
            </Position>
            <AltitudeMeters>74.40000152587890625</AltitudeMeters>
            <DistanceMeters>NAN</DistanceMeters>
          </Trackpoint>
          <Trackpoint>
            <Time>2022-07-10T19:00:55.000Z</Time>
            <Position>
              <LatitudeDegrees>43.319330513477325439453125</LatitudeDegrees>
              <LongitudeDegrees>-2.438395880162715911865234375</LongitudeDegrees>
            </Position>
            <AltitudeMeters>74.8000030517578125</AltitudeMeters>
            <DistanceMeters>NAN</DistanceMeters>
          </Trackpoint>
          <Trackpoint>
            <Time>2022-07-10T19:00:58.000Z</Time>
            <Position>
              <LatitudeDegrees>43.31935037858784198760986328125</LatitudeDegrees>
              <LongitudeDegrees>-2.4384634383022785186767578125</LongitudeDegrees>
            </Position>
            <AltitudeMeters>75</AltitudeMeters>
            <DistanceMeters>NAN</DistanceMeters>
          </Trackpoint>
          <Trackpoint>
            <Time>2022-07-10T19:01:03.000Z</Time>
            <Position>
              <LatitudeDegrees>43.319383151829242706298828125</LatitudeDegrees>
              <LongitudeDegrees>-2.43856393732130527496337890625</LongitudeDegrees>
            </Position>
            <AltitudeMeters>75.59999847412109375</AltitudeMeters>
            <DistanceMeters>NAN</DistanceMeters>
          </Trackpoint>
          <Trackpoint>
            <Time>2022-07-10T19:01:05.000Z</Time>
            <Position>
              <LatitudeDegrees>43.31940435804426670074462890625</LatitudeDegrees>
              <LongitudeDegrees>-2.43860601447522640228271484375</LongitudeDegrees>
            </Position>
            <AltitudeMeters>76.40000152587890625</AltitudeMeters>
            <DistanceMeters>NAN</DistanceMeters>
          </Trackpoint>
          <Trackpoint>
            <Time>2022-07-10T19:01:08.000Z</Time>
            <Position>
              <LatitudeDegrees>43.319446854293346405029296875</LatitudeDegrees>
              <LongitudeDegrees>-2.43865898810327053070068359375</LongitudeDegrees>
            </Position>
            <AltitudeMeters>76.59999847412109375</AltitudeMeters>
            <DistanceMeters>NAN</DistanceMeters>
          </Trackpoint>
          <Trackpoint>
            <Time>2022-07-10T19:01:09.000Z</Time>
            <Position>
              <LatitudeDegrees>43.31945649348199367523193359375</LatitudeDegrees>
              <LongitudeDegrees>-2.43867441080510616302490234375</LongitudeDegrees>
            </Position>
            <AltitudeMeters>76.8000030517578125</AltitudeMeters>
            <DistanceMeters>NAN</DistanceMeters>
          </Trackpoint>
          <Trackpoint>
            <Time>2022-07-10T19:01:11.000Z</Time>
            <Position>
              <LatitudeDegrees>43.31947208382189273834228515625</LatitudeDegrees>
              <LongitudeDegrees>-2.43872218765318393707275390625</LongitudeDegrees>
            </Position>
            <AltitudeMeters>76.8000030517578125</AltitudeMeters>
            <DistanceMeters>NAN</DistanceMeters>
          </Trackpoint>
          <Trackpoint>
            <Time>2022-07-10T19:01:15.000Z</Time>
            <Position>
              <LatitudeDegrees>43.3194999955594539642333984375</LatitudeDegrees>
              <LongitudeDegrees>-2.43881019763648509979248046875</LongitudeDegrees>
            </Position>
            <AltitudeMeters>77</AltitudeMeters>
            <DistanceMeters>NAN</DistanceMeters>
          </Trackpoint>
          <Trackpoint>
            <Time>2022-07-10T19:01:17.000Z</Time>
            <Position>
              <LatitudeDegrees>43.3195231296122074127197265625</LatitudeDegrees>
              <LongitudeDegrees>-2.43886602111160755157470703125</LongitudeDegrees>
            </Position>
            <AltitudeMeters>77.1999969482421875</AltitudeMeters>
            <DistanceMeters>NAN</DistanceMeters>
          </Trackpoint>
          <Trackpoint>
            <Time>2022-07-10T19:01:18.000Z</Time>
            <Position>
              <LatitudeDegrees>43.3195331878960132598876953125</LatitudeDegrees>
              <LongitudeDegrees>-2.43888898752629756927490234375</LongitudeDegrees>
            </Position>
            <AltitudeMeters>77.40000152587890625</AltitudeMeters>
            <DistanceMeters>NAN</DistanceMeters>
          </Trackpoint>
          <Trackpoint>
            <Time>2022-07-10T19:01:22.000Z</Time>
            <Position>
              <LatitudeDegrees>43.31956495530903339385986328125</LatitudeDegrees>
              <LongitudeDegrees>-2.43896191008388996124267578125</LongitudeDegrees>
            </Position>
            <AltitudeMeters>77.8000030517578125</AltitudeMeters>
            <DistanceMeters>NAN</DistanceMeters>
          </Trackpoint>
          <Trackpoint>
            <Time>2022-07-10T19:01:24.000Z</Time>
            <Position>
              <LatitudeDegrees>43.31957953982055187225341796875</LatitudeDegrees>
              <LongitudeDegrees>-2.438994348049163818359375</LongitudeDegrees>
            </Position>
            <AltitudeMeters>78</AltitudeMeters>
            <DistanceMeters>NAN</DistanceMeters>
          </Trackpoint>
          <Trackpoint>
            <Time>2022-07-10T19:01:29.000Z</Time>
            <Position>
              <LatitudeDegrees>43.31962220370769500732421875</LatitudeDegrees>
              <LongitudeDegrees>-2.43908512406051158905029296875</LongitudeDegrees>
            </Position>
            <AltitudeMeters>78.40000152587890625</AltitudeMeters>
            <DistanceMeters>NAN</DistanceMeters>
          </Trackpoint>
          <Trackpoint>
            <Time>2022-07-10T19:01:34.000Z</Time>
            <Position>
              <LatitudeDegrees>43.31967853009700775146484375</LatitudeDegrees>
              <LongitudeDegrees>-2.439203560352325439453125</LongitudeDegrees>
            </Position>
            <AltitudeMeters>78.8000030517578125</AltitudeMeters>
            <DistanceMeters>NAN</DistanceMeters>
          </Trackpoint>
          <Trackpoint>
            <Time>2022-07-10T19:01:41.000Z</Time>
            <Position>
              <LatitudeDegrees>43.3197695575654506683349609375</LatitudeDegrees>
              <LongitudeDegrees>-2.43937312625348567962646484375</LongitudeDegrees>
            </Position>
            <AltitudeMeters>79.1999969482421875</AltitudeMeters>
            <DistanceMeters>NAN</DistanceMeters>
          </Trackpoint>
          <Trackpoint>
            <Time>2022-07-10T19:01:42.000Z</Time>
            <Position>
              <LatitudeDegrees>43.31978808157145977020263671875</LatitudeDegrees>
              <LongitudeDegrees>-2.43940028361976146697998046875</LongitudeDegrees>
            </Position>
            <AltitudeMeters>79.40000152587890625</AltitudeMeters>
            <DistanceMeters>NAN</DistanceMeters>
          </Trackpoint>
          <Trackpoint>
            <Time>2022-07-10T19:01:43.000Z</Time>
            <Position>
              <LatitudeDegrees>43.31980350427329540252685546875</LatitudeDegrees>
              <LongitudeDegrees>-2.43943280540406703948974609375</LongitudeDegrees>
            </Position>
            <AltitudeMeters>79.40000152587890625</AltitudeMeters>
            <DistanceMeters>NAN</DistanceMeters>
          </Trackpoint>
          <Trackpoint>
            <Time>2022-07-10T19:01:44.000Z</Time>
            <Position>
              <LatitudeDegrees>43.3198201842606067657470703125</LatitudeDegrees>
              <LongitudeDegrees>-2.4394602142274379730224609375</LongitudeDegrees>
            </Position>
            <AltitudeMeters>79.59999847412109375</AltitudeMeters>
            <DistanceMeters>NAN</DistanceMeters>
          </Trackpoint>
          <Trackpoint>
            <Time>2022-07-10T19:01:48.000Z</Time>
            <Position>
              <LatitudeDegrees>43.31987542100250720977783203125</LatitudeDegrees>
              <LongitudeDegrees>-2.43956540711224079132080078125</LongitudeDegrees>
            </Position>
            <AltitudeMeters>79.59999847412109375</AltitudeMeters>
            <DistanceMeters>NAN</DistanceMeters>
          </Trackpoint>
          <Trackpoint>
            <Time>2022-07-10T19:01:49.000Z</Time>
            <Position>
              <LatitudeDegrees>43.31988967023789882659912109375</LatitudeDegrees>
              <LongitudeDegrees>-2.43959021754562854766845703125</LongitudeDegrees>
            </Position>
            <AltitudeMeters>79.8000030517578125</AltitudeMeters>
            <DistanceMeters>NAN</DistanceMeters>
          </Trackpoint>
          <Trackpoint>
            <Time>2022-07-10T19:01:54.000Z</Time>
            <Position>
              <LatitudeDegrees>43.31996929831802845001220703125</LatitudeDegrees>
              <LongitudeDegrees>-2.43973572738468647003173828125</LongitudeDegrees>
            </Position>
            <AltitudeMeters>79.8000030517578125</AltitudeMeters>
            <DistanceMeters>NAN</DistanceMeters>
          </Trackpoint>
          <Trackpoint>
            <Time>2022-07-10T19:01:57.000Z</Time>
            <Position>
              <LatitudeDegrees>43.32001774571835994720458984375</LatitudeDegrees>
              <LongitudeDegrees>-2.4398260004818439483642578125</LongitudeDegrees>
            </Position>
            <AltitudeMeters>80</AltitudeMeters>
            <DistanceMeters>NAN</DistanceMeters>
          </Trackpoint>
          <Trackpoint>
            <Time>2022-07-10T19:01:59.000Z</Time>
            <Position>
              <LatitudeDegrees>43.320049345493316650390625</LatitudeDegrees>
              <LongitudeDegrees>-2.4398739449679851531982421875</LongitudeDegrees>
            </Position>
            <AltitudeMeters>80</AltitudeMeters>
            <DistanceMeters>NAN</DistanceMeters>
          </Trackpoint>
          <Trackpoint>
            <Time>2022-07-10T19:02:04.000Z</Time>
            <Position>
              <LatitudeDegrees>43.32012704573571681976318359375</LatitudeDegrees>
              <LongitudeDegrees>-2.440005205571651458740234375</LongitudeDegrees>
            </Position>
            <AltitudeMeters>80.40000152587890625</AltitudeMeters>
            <DistanceMeters>NAN</DistanceMeters>
          </Trackpoint>
          <Trackpoint>
            <Time>2022-07-10T19:02:09.000Z</Time>
            <Position>
              <LatitudeDegrees>43.3202070929110050201416015625</LatitudeDegrees>
              <LongitudeDegrees>-2.44012682698667049407958984375</LongitudeDegrees>
            </Position>
            <AltitudeMeters>80.59999847412109375</AltitudeMeters>
            <DistanceMeters>NAN</DistanceMeters>
          </Trackpoint>
          <Trackpoint>
            <Time>2022-07-10T19:02:13.000Z</Time>
            <Position>
              <LatitudeDegrees>43.32027104683220386505126953125</LatitudeDegrees>
              <LongitudeDegrees>-2.44021969847381114959716796875</LongitudeDegrees>
            </Position>
            <AltitudeMeters>80.59999847412109375</AltitudeMeters>
            <DistanceMeters>NAN</DistanceMeters>
          </Trackpoint>
          <Trackpoint>
            <Time>2022-07-10T19:02:18.000Z</Time>
            <Position>
              <LatitudeDegrees>43.320348747074604034423828125</LatitudeDegrees>
              <LongitudeDegrees>-2.44034911505877971649169921875</LongitudeDegrees>
            </Position>
            <AltitudeMeters>80.59999847412109375</AltitudeMeters>
            <DistanceMeters>NAN</DistanceMeters>
          </Trackpoint>
          <Trackpoint>
            <Time>2022-07-10T19:02:22.000Z</Time>
            <Position>
              <LatitudeDegrees>43.320414125919342041015625</LatitudeDegrees>
              <LongitudeDegrees>-2.440474592149257659912109375</LongitudeDegrees>
            </Position>
            <AltitudeMeters>80.40000152587890625</AltitudeMeters>
            <DistanceMeters>NAN</DistanceMeters>
          </Trackpoint>
          <Trackpoint>
            <Time>2022-07-10T19:02:27.000Z</Time>
            <Position>
              <LatitudeDegrees>43.32050473429262638092041015625</LatitudeDegrees>
              <LongitudeDegrees>-2.440633513033390045166015625</LongitudeDegrees>
            </Position>
            <AltitudeMeters>80.59999847412109375</AltitudeMeters>
            <DistanceMeters>NAN</DistanceMeters>
          </Trackpoint>
          <Trackpoint>
            <Time>2022-07-10T19:02:29.000Z</Time>
            <Position>
              <LatitudeDegrees>43.32055150531232357025146484375</LatitudeDegrees>
              <LongitudeDegrees>-2.44070098735392093658447265625</LongitudeDegrees>
            </Position>
            <AltitudeMeters>80.8000030517578125</AltitudeMeters>
            <DistanceMeters>NAN</DistanceMeters>
          </Trackpoint>
          <Trackpoint>
            <Time>2022-07-10T19:02:36.000Z</Time>
            <Position>
              <LatitudeDegrees>43.32070237956941127777099609375</LatitudeDegrees>
              <LongitudeDegrees>-2.440923862159252166748046875</LongitudeDegrees>
            </Position>
            <AltitudeMeters>81</AltitudeMeters>
            <DistanceMeters>NAN</DistanceMeters>
          </Trackpoint>
          <Trackpoint>
            <Time>2022-07-10T19:02:38.000Z</Time>
            <Position>
              <LatitudeDegrees>43.32075568847358226776123046875</LatitudeDegrees>
              <LongitudeDegrees>-2.440994940698146820068359375</LongitudeDegrees>
            </Position>
            <AltitudeMeters>81.1999969482421875</AltitudeMeters>
            <DistanceMeters>NAN</DistanceMeters>
          </Trackpoint>
          <Trackpoint>
            <Time>2022-07-10T19:02:39.000Z</Time>
            <Position>
              <LatitudeDegrees>43.320777900516986846923828125</LatitudeDegrees>
              <LongitudeDegrees>-2.44103341363370418548583984375</LongitudeDegrees>
            </Position>
            <AltitudeMeters>81</AltitudeMeters>
            <DistanceMeters>NAN</DistanceMeters>
          </Trackpoint>
          <Trackpoint>
            <Time>2022-07-10T19:02:42.000Z</Time>
            <Position>
              <LatitudeDegrees>43.32083724439144134521484375</LatitudeDegrees>
              <LongitudeDegrees>-2.44112947024405002593994140625</LongitudeDegrees>
            </Position>
            <AltitudeMeters>81.1999969482421875</AltitudeMeters>
            <DistanceMeters>NAN</DistanceMeters>
          </Trackpoint>
          <Trackpoint>
            <Time>2022-07-10T19:02:45.000Z</Time>
            <Position>
              <LatitudeDegrees>43.320904634892940521240234375</LatitudeDegrees>
              <LongitudeDegrees>-2.44124128483235836029052734375</LongitudeDegrees>
            </Position>
            <AltitudeMeters>81.1999969482421875</AltitudeMeters>
            <DistanceMeters>NAN</DistanceMeters>
          </Trackpoint>
          <Trackpoint>
            <Time>2022-07-10T19:02:47.000Z</Time>
            <Position>
              <LatitudeDegrees>43.32094863988459110260009765625</LatitudeDegrees>
              <LongitudeDegrees>-2.441326864063739776611328125</LongitudeDegrees>
            </Position>
            <AltitudeMeters>81.40000152587890625</AltitudeMeters>
            <DistanceMeters>NAN</DistanceMeters>
          </Trackpoint>
          <Trackpoint>
            <Time>2022-07-10T19:02:49.000Z</Time>
            <Position>
              <LatitudeDegrees>43.32099541090428829193115234375</LatitudeDegrees>
              <LongitudeDegrees>-2.44140498340129852294921875</LongitudeDegrees>
            </Position>
            <AltitudeMeters>81.1999969482421875</AltitudeMeters>
            <DistanceMeters>NAN</DistanceMeters>
          </Trackpoint>
          <Trackpoint>
            <Time>2022-07-10T19:02:57.000Z</Time>
            <Position>
              <LatitudeDegrees>43.32113505341112613677978515625</LatitudeDegrees>
              <LongitudeDegrees>-2.4418001063168048858642578125</LongitudeDegrees>
            </Position>
            <AltitudeMeters>81.40000152587890625</AltitudeMeters>
            <DistanceMeters>NAN</DistanceMeters>
          </Trackpoint>
          <Trackpoint>
            <Time>2022-07-10T19:03:03.000Z</Time>
            <Position>
              <LatitudeDegrees>43.32118534483015537261962890625</LatitudeDegrees>
              <LongitudeDegrees>-2.44212540797889232635498046875</LongitudeDegrees>
            </Position>
            <AltitudeMeters>76.8000030517578125</AltitudeMeters>
            <DistanceMeters>NAN</DistanceMeters>
          </Trackpoint>
          <Trackpoint>
            <Time>2022-07-10T19:03:04.000Z</Time>
            <Position>
              <LatitudeDegrees>43.32118702121078968048095703125</LatitudeDegrees>
              <LongitudeDegrees>-2.44218257255852222442626953125</LongitudeDegrees>
            </Position>
            <AltitudeMeters>74.40000152587890625</AltitudeMeters>
            <DistanceMeters>NAN</DistanceMeters>
          </Trackpoint>
          <Trackpoint>
            <Time>2022-07-10T19:03:05.000Z</Time>
            <Position>
              <LatitudeDegrees>43.321186937391757965087890625</LatitudeDegrees>
              <LongitudeDegrees>-2.442226745188236236572265625</LongitudeDegrees>
            </Position>
            <AltitudeMeters>73.1999969482421875</AltitudeMeters>
            <DistanceMeters>NAN</DistanceMeters>
          </Trackpoint>
          <Trackpoint>
            <Time>2022-07-10T19:03:06.000Z</Time>
            <Position>
              <LatitudeDegrees>43.321186602115631103515625</LatitudeDegrees>
              <LongitudeDegrees>-2.44228064082562923431396484375</LongitudeDegrees>
            </Position>
            <AltitudeMeters>72.40000152587890625</AltitudeMeters>
            <DistanceMeters>NAN</DistanceMeters>
          </Trackpoint>
          <Trackpoint>
            <Time>2022-07-10T19:03:07.000Z</Time>
            <Position>
              <LatitudeDegrees>43.32118752412497997283935546875</LatitudeDegrees>
              <LongitudeDegrees>-2.44233570992946624755859375</LongitudeDegrees>
            </Position>
            <AltitudeMeters>72.1999969482421875</AltitudeMeters>
            <DistanceMeters>NAN</DistanceMeters>
          </Trackpoint>
          <Trackpoint>
            <Time>2022-07-10T19:03:13.000Z</Time>
            <Position>
              <LatitudeDegrees>43.32116925157606601715087890625</LatitudeDegrees>
              <LongitudeDegrees>-2.44267023168504238128662109375</LongitudeDegrees>
            </Position>
            <AltitudeMeters>71.40000152587890625</AltitudeMeters>
            <DistanceMeters>NAN</DistanceMeters>
          </Trackpoint>
          <Trackpoint>
            <Time>2022-07-10T19:03:14.000Z</Time>
            <Position>
              <LatitudeDegrees>43.3211602829396724700927734375</LatitudeDegrees>
              <LongitudeDegrees>-2.442726306617259979248046875</LongitudeDegrees>
            </Position>
            <AltitudeMeters>71.40000152587890625</AltitudeMeters>
            <DistanceMeters>NAN</DistanceMeters>
          </Trackpoint>
          <Trackpoint>
            <Time>2022-07-10T19:03:16.000Z</Time>
            <Position>
              <LatitudeDegrees>43.321138657629489898681640625</LatitudeDegrees>
              <LongitudeDegrees>-2.44285346008837223052978515625</LongitudeDegrees>
            </Position>
            <AltitudeMeters>71.40000152587890625</AltitudeMeters>
            <DistanceMeters>NAN</DistanceMeters>
          </Trackpoint>
          <Trackpoint>
            <Time>2022-07-10T19:03:20.000Z</Time>
            <Position>
              <LatitudeDegrees>43.32106917165219783782958984375</LatitudeDegrees>
              <LongitudeDegrees>-2.44306082837283611297607421875</LongitudeDegrees>
            </Position>
            <AltitudeMeters>71.1999969482421875</AltitudeMeters>
            <DistanceMeters>NAN</DistanceMeters>
          </Trackpoint>
          <Trackpoint>
            <Time>2022-07-10T19:03:22.000Z</Time>
            <Position>
              <LatitudeDegrees>43.32102240063250064849853515625</LatitudeDegrees>
              <LongitudeDegrees>-2.443178594112396240234375</LongitudeDegrees>
            </Position>
            <AltitudeMeters>71</AltitudeMeters>
            <DistanceMeters>NAN</DistanceMeters>
          </Trackpoint>
          <Trackpoint>
            <Time>2022-07-10T19:03:28.000Z</Time>
            <Position>
              <LatitudeDegrees>43.32086808979511260986328125</LatitudeDegrees>
              <LongitudeDegrees>-2.44349702261388301849365234375</LongitudeDegrees>
            </Position>
            <AltitudeMeters>70.8000030517578125</AltitudeMeters>
            <DistanceMeters>NAN</DistanceMeters>
          </Trackpoint>
          <Trackpoint>
            <Time>2022-07-10T19:03:36.000Z</Time>
            <Position>
              <LatitudeDegrees>43.3205872960388660430908203125</LatitudeDegrees>
              <LongitudeDegrees>-2.4438585340976715087890625</LongitudeDegrees>
            </Position>
            <AltitudeMeters>70.1999969482421875</AltitudeMeters>
            <DistanceMeters>NAN</DistanceMeters>
          </Trackpoint>
          <Trackpoint>
            <Time>2022-07-10T19:03:43.000Z</Time>
            <Position>
              <LatitudeDegrees>43.3202925883233547210693359375</LatitudeDegrees>
              <LongitudeDegrees>-2.44411225430667400360107421875</LongitudeDegrees>
            </Position>
            <AltitudeMeters>69.8000030517578125</AltitudeMeters>
            <DistanceMeters>NAN</DistanceMeters>
          </Trackpoint>
          <Trackpoint>
            <Time>2022-07-10T19:03:45.000Z</Time>
            <Position>
              <LatitudeDegrees>43.3202067576348781585693359375</LatitudeDegrees>
              <LongitudeDegrees>-2.4441798962652683258056640625</LongitudeDegrees>
            </Position>
            <AltitudeMeters>69.8000030517578125</AltitudeMeters>
            <DistanceMeters>NAN</DistanceMeters>
          </Trackpoint>
          <Trackpoint>
            <Time>2022-07-10T19:03:51.000Z</Time>
            <Position>
              <LatitudeDegrees>43.31992303021252155303955078125</LatitudeDegrees>
              <LongitudeDegrees>-2.4443907849490642547607421875</LongitudeDegrees>
            </Position>
            <AltitudeMeters>68.8000030517578125</AltitudeMeters>
            <DistanceMeters>NAN</DistanceMeters>
          </Trackpoint>
          <Trackpoint>
            <Time>2022-07-10T19:03:53.000Z</Time>
            <Position>
              <LatitudeDegrees>43.31981775350868701934814453125</LatitudeDegrees>
              <LongitudeDegrees>-2.44447267614305019378662109375</LongitudeDegrees>
            </Position>
            <AltitudeMeters>68.8000030517578125</AltitudeMeters>
            <DistanceMeters>NAN</DistanceMeters>
          </Trackpoint>
          <Trackpoint>
            <Time>2022-07-10T19:04:00.000Z</Time>
            <Position>
              <LatitudeDegrees>43.31947694532573223114013671875</LatitudeDegrees>
              <LongitudeDegrees>-2.44478045962750911712646484375</LongitudeDegrees>
            </Position>
            <AltitudeMeters>68.40000152587890625</AltitudeMeters>
            <DistanceMeters>NAN</DistanceMeters>
          </Trackpoint>
          <Trackpoint>
            <Time>2022-07-10T19:04:08.000Z</Time>
            <Position>
              <LatitudeDegrees>43.319158516824245452880859375</LatitudeDegrees>
              <LongitudeDegrees>-2.44517524726688861846923828125</LongitudeDegrees>
            </Position>
            <AltitudeMeters>67.8000030517578125</AltitudeMeters>
            <DistanceMeters>NAN</DistanceMeters>
          </Trackpoint>
          <Trackpoint>
            <Time>2022-07-10T19:04:15.000Z</Time>
            <Position>
              <LatitudeDegrees>43.318930529057979583740234375</LatitudeDegrees>
              <LongitudeDegrees>-2.44553248398005962371826171875</LongitudeDegrees>
            </Position>
            <AltitudeMeters>68</AltitudeMeters>
            <DistanceMeters>NAN</DistanceMeters>
          </Trackpoint>
          <Trackpoint>
            <Time>2022-07-10T19:04:24.000Z</Time>
            <Position>
              <LatitudeDegrees>43.31868200562894344329833984375</LatitudeDegrees>
              <LongitudeDegrees>-2.446023412048816680908203125</LongitudeDegrees>
            </Position>
            <AltitudeMeters>68</AltitudeMeters>
            <DistanceMeters>NAN</DistanceMeters>
          </Trackpoint>
          <Trackpoint>
            <Time>2022-07-10T19:04:25.000Z</Time>
            <Position>
              <LatitudeDegrees>43.3186567761003971099853515625</LatitudeDegrees>
              <LongitudeDegrees>-2.44607412256300449371337890625</LongitudeDegrees>
            </Position>
            <AltitudeMeters>68</AltitudeMeters>
            <DistanceMeters>NAN</DistanceMeters>
          </Trackpoint>
          <Trackpoint>
            <Time>2022-07-10T19:04:30.000Z</Time>
            <Position>
              <LatitudeDegrees>43.318552337586879730224609375</LatitudeDegrees>
              <LongitudeDegrees>-2.44631032459437847137451171875</LongitudeDegrees>
            </Position>
            <AltitudeMeters>68</AltitudeMeters>
            <DistanceMeters>NAN</DistanceMeters>
          </Trackpoint>
          <Trackpoint>
            <Time>2022-07-10T19:04:32.000Z</Time>
            <Position>
              <LatitudeDegrees>43.3185136131942272186279296875</LatitudeDegrees>
              <LongitudeDegrees>-2.4463959038257598876953125</LongitudeDegrees>
            </Position>
            <AltitudeMeters>68</AltitudeMeters>
            <DistanceMeters>NAN</DistanceMeters>
          </Trackpoint>
          <Trackpoint>
            <Time>2022-07-10T19:04:37.000Z</Time>
            <Position>
              <LatitudeDegrees>43.31844027154147624969482421875</LatitudeDegrees>
              <LongitudeDegrees>-2.44660939089953899383544921875</LongitudeDegrees>
            </Position>
            <AltitudeMeters>68</AltitudeMeters>
            <DistanceMeters>NAN</DistanceMeters>
          </Trackpoint>
          <Trackpoint>
            <Time>2022-07-10T19:04:41.000Z</Time>
            <Position>
              <LatitudeDegrees>43.318386375904083251953125</LatitudeDegrees>
              <LongitudeDegrees>-2.4467875063419342041015625</LongitudeDegrees>
            </Position>
            <AltitudeMeters>68.1999969482421875</AltitudeMeters>
            <DistanceMeters>NAN</DistanceMeters>
          </Trackpoint>
          <Trackpoint>
            <Time>2022-07-10T19:04:48.000Z</Time>
            <Position>
              <LatitudeDegrees>43.31833072006702423095703125</LatitudeDegrees>
              <LongitudeDegrees>-2.4471068568527698516845703125</LongitudeDegrees>
            </Position>
            <AltitudeMeters>68.40000152587890625</AltitudeMeters>
            <DistanceMeters>NAN</DistanceMeters>
          </Trackpoint>
          <Trackpoint>
            <Time>2022-07-10T19:04:57.000Z</Time>
            <Position>
              <LatitudeDegrees>43.3183365873992443084716796875</LatitudeDegrees>
              <LongitudeDegrees>-2.44751798920333385467529296875</LongitudeDegrees>
            </Position>
            <AltitudeMeters>68.8000030517578125</AltitudeMeters>
            <DistanceMeters>NAN</DistanceMeters>
          </Trackpoint>
          <Trackpoint>
            <Time>2022-07-10T19:04:58.000Z</Time>
            <Position>
              <LatitudeDegrees>43.318340443074703216552734375</LatitudeDegrees>
              <LongitudeDegrees>-2.44756358675658702850341796875</LongitudeDegrees>
            </Position>
            <AltitudeMeters>68.8000030517578125</AltitudeMeters>
            <DistanceMeters>NAN</DistanceMeters>
          </Trackpoint>
          <Trackpoint>
            <Time>2022-07-10T19:05:04.000Z</Time>
            <Position>
              <LatitudeDegrees>43.318386375904083251953125</LatitudeDegrees>
              <LongitudeDegrees>-2.4478260241448879241943359375</LongitudeDegrees>
            </Position>
            <AltitudeMeters>68.59999847412109375</AltitudeMeters>
            <DistanceMeters>NAN</DistanceMeters>
          </Trackpoint>
          <Trackpoint>
            <Time>2022-07-10T19:05:12.000Z</Time>
            <Position>
              <LatitudeDegrees>43.31851135008037090301513671875</LatitudeDegrees>
              <LongitudeDegrees>-2.44817890226840972900390625</LongitudeDegrees>
            </Position>
            <AltitudeMeters>69.1999969482421875</AltitudeMeters>
            <DistanceMeters>NAN</DistanceMeters>
          </Trackpoint>
          <Trackpoint>
            <Time>2022-07-10T19:05:20.000Z</Time>
            <Position>
              <LatitudeDegrees>43.3186561055481433868408203125</LatitudeDegrees>
              <LongitudeDegrees>-2.448492385447025299072265625</LongitudeDegrees>
            </Position>
            <AltitudeMeters>69.40000152587890625</AltitudeMeters>
            <DistanceMeters>NAN</DistanceMeters>
          </Trackpoint>
          <Trackpoint>
            <Time>2022-07-10T19:05:27.000Z</Time>
            <Position>
              <LatitudeDegrees>43.3187980949878692626953125</LatitudeDegrees>
              <LongitudeDegrees>-2.44873504154384136199951171875</LongitudeDegrees>
            </Position>
            <AltitudeMeters>69.8000030517578125</AltitudeMeters>
            <DistanceMeters>NAN</DistanceMeters>
          </Trackpoint>
          <Trackpoint>
            <Time>2022-07-10T19:05:34.000Z</Time>
            <Position>
              <LatitudeDegrees>43.3189122565090656280517578125</LatitudeDegrees>
              <LongitudeDegrees>-2.4489176832139492034912109375</LongitudeDegrees>
            </Position>
            <AltitudeMeters>70</AltitudeMeters>
            <DistanceMeters>NAN</DistanceMeters>
          </Trackpoint>
          <Trackpoint>
            <Time>2022-07-10T19:05:41.000Z</Time>
            <Position>
              <LatitudeDegrees>43.3189987577497959136962890625</LatitudeDegrees>
              <LongitudeDegrees>-2.4491205252707004547119140625</LongitudeDegrees>
            </Position>
            <AltitudeMeters>70.40000152587890625</AltitudeMeters>
            <DistanceMeters>NAN</DistanceMeters>
          </Trackpoint>
          <Trackpoint>
            <Time>2022-07-10T19:05:46.000Z</Time>
            <Position>
              <LatitudeDegrees>43.3190513961017131805419921875</LatitudeDegrees>
              <LongitudeDegrees>-2.4492579884827136993408203125</LongitudeDegrees>
            </Position>
            <AltitudeMeters>71</AltitudeMeters>
            <DistanceMeters>NAN</DistanceMeters>
          </Trackpoint>
          <Trackpoint>
            <Time>2022-07-10T19:05:50.000Z</Time>
            <Position>
              <LatitudeDegrees>43.3190842531621456146240234375</LatitudeDegrees>
              <LongitudeDegrees>-2.449382878839969635009765625</LongitudeDegrees>
            </Position>
            <AltitudeMeters>71</AltitudeMeters>
            <DistanceMeters>NAN</DistanceMeters>
          </Trackpoint>
          <Trackpoint>
            <Time>2022-07-10T19:05:51.000Z</Time>
            <Position>
              <LatitudeDegrees>43.319095484912395477294921875</LatitudeDegrees>
              <LongitudeDegrees>-2.44941565208137035369873046875</LongitudeDegrees>
            </Position>
            <AltitudeMeters>71</AltitudeMeters>
            <DistanceMeters>NAN</DistanceMeters>
          </Trackpoint>
          <Trackpoint>
            <Time>2022-07-10T19:05:55.000Z</Time>
            <Position>
              <LatitudeDegrees>43.3191593550145626068115234375</LatitudeDegrees>
              <LongitudeDegrees>-2.44953551329672336578369140625</LongitudeDegrees>
            </Position>
            <AltitudeMeters>71.1999969482421875</AltitudeMeters>
            <DistanceMeters>NAN</DistanceMeters>
          </Trackpoint>
          <Trackpoint>
            <Time>2022-07-10T19:05:57.000Z</Time>
            <Position>
              <LatitudeDegrees>43.3191871829330921173095703125</LatitudeDegrees>
              <LongitudeDegrees>-2.449580691754817962646484375</LongitudeDegrees>
            </Position>
            <AltitudeMeters>71.40000152587890625</AltitudeMeters>
            <DistanceMeters>NAN</DistanceMeters>
          </Trackpoint>
          <Trackpoint>
            <Time>2022-07-10T19:06:01.000Z</Time>
            <Position>
              <LatitudeDegrees>43.3191948942840099334716796875</LatitudeDegrees>
              <LongitudeDegrees>-2.4495925940573215484619140625</LongitudeDegrees>
            </Position>
            <AltitudeMeters>71.40000152587890625</AltitudeMeters>
            <DistanceMeters>NAN</DistanceMeters>
          </Trackpoint>
          <Trackpoint>
            <Time>2022-07-10T19:07:12.000Z</Time>
            <Position>
              <LatitudeDegrees>43.31918860785663127899169921875</LatitudeDegrees>
              <LongitudeDegrees>-2.44963073171675205230712890625</LongitudeDegrees>
            </Position>
            <AltitudeMeters>71.40000152587890625</AltitudeMeters>
            <DistanceMeters>NAN</DistanceMeters>
          </Trackpoint>
          <Trackpoint>
            <Time>2022-07-10T19:07:16.000Z</Time>
            <Position>
              <LatitudeDegrees>43.31919883377850055694580078125</LatitudeDegrees>
              <LongitudeDegrees>-2.4498076736927032470703125</LongitudeDegrees>
            </Position>
            <AltitudeMeters>71.1999969482421875</AltitudeMeters>
            <DistanceMeters>NAN</DistanceMeters>
          </Trackpoint>
          <Trackpoint>
            <Time>2022-07-10T19:07:24.000Z</Time>
            <Position>
              <LatitudeDegrees>43.319243676960468292236328125</LatitudeDegrees>
              <LongitudeDegrees>-2.450157701969146728515625</LongitudeDegrees>
            </Position>
            <AltitudeMeters>70.8000030517578125</AltitudeMeters>
            <DistanceMeters>NAN</DistanceMeters>
          </Trackpoint>
          <Trackpoint>
            <Time>2022-07-10T19:07:29.000Z</Time>
            <Position>
              <LatitudeDegrees>43.31927485764026641845703125</LatitudeDegrees>
              <LongitudeDegrees>-2.45036582462489604949951171875</LongitudeDegrees>
            </Position>
            <AltitudeMeters>70.8000030517578125</AltitudeMeters>
            <DistanceMeters>NAN</DistanceMeters>
          </Trackpoint>
          <Trackpoint>
            <Time>2022-07-10T19:07:34.000Z</Time>
            <Position>
              <LatitudeDegrees>43.31929639913141727447509765625</LatitudeDegrees>
              <LongitudeDegrees>-2.45058828033506870269775390625</LongitudeDegrees>
            </Position>
            <AltitudeMeters>70.59999847412109375</AltitudeMeters>
            <DistanceMeters>NAN</DistanceMeters>
          </Trackpoint>
          <Trackpoint>
            <Time>2022-07-10T19:07:41.000Z</Time>
            <Position>
              <LatitudeDegrees>43.319342918694019317626953125</LatitudeDegrees>
              <LongitudeDegrees>-2.45093395002186298370361328125</LongitudeDegrees>
            </Position>
            <AltitudeMeters>70.8000030517578125</AltitudeMeters>
            <DistanceMeters>NAN</DistanceMeters>
          </Trackpoint>
          <Trackpoint>
            <Time>2022-07-10T19:07:43.000Z</Time>
            <Position>
              <LatitudeDegrees>43.31935926340520381927490234375</LatitudeDegrees>
              <LongitudeDegrees>-2.45103822089731693267822265625</LongitudeDegrees>
            </Position>
            <AltitudeMeters>70.8000030517578125</AltitudeMeters>
            <DistanceMeters>NAN</DistanceMeters>
          </Trackpoint>
          <Trackpoint>
            <Time>2022-07-10T19:07:52.000Z</Time>
            <Position>
              <LatitudeDegrees>43.3194098062813282012939453125</LatitudeDegrees>
              <LongitudeDegrees>-2.4515016563236713409423828125</LongitudeDegrees>
            </Position>
            <AltitudeMeters>70.59999847412109375</AltitudeMeters>
            <DistanceMeters>NAN</DistanceMeters>
          </Trackpoint>
          <Trackpoint>
            <Time>2022-07-10T19:08:01.000Z</Time>
            <Position>
              <LatitudeDegrees>43.31945850513875484466552734375</LatitudeDegrees>
              <LongitudeDegrees>-2.4519640021026134490966796875</LongitudeDegrees>
            </Position>
            <AltitudeMeters>70.40000152587890625</AltitudeMeters>
            <DistanceMeters>NAN</DistanceMeters>
          </Trackpoint>
          <Trackpoint>
            <Time>2022-07-10T19:08:08.000Z</Time>
            <Position>
              <LatitudeDegrees>43.319475352764129638671875</LatitudeDegrees>
              <LongitudeDegrees>-2.45224915444850921630859375</LongitudeDegrees>
            </Position>
            <AltitudeMeters>70.1999969482421875</AltitudeMeters>
            <DistanceMeters>NAN</DistanceMeters>
          </Trackpoint>
          <Trackpoint>
            <Time>2022-07-10T19:08:12.000Z</Time>
            <Position>
              <LatitudeDegrees>43.31947828643023967742919921875</LatitudeDegrees>
              <LongitudeDegrees>-2.452286370098590850830078125</LongitudeDegrees>
            </Position>
            <AltitudeMeters>70</AltitudeMeters>
            <DistanceMeters>NAN</DistanceMeters>
          </Trackpoint>
          <Trackpoint>
            <Time>2022-07-10T19:08:15.000Z</Time>
            <Position>
              <LatitudeDegrees>43.31944710575044155120849609375</LatitudeDegrees>
              <LongitudeDegrees>-2.45232953689992427825927734375</LongitudeDegrees>
            </Position>
            <AltitudeMeters>70</AltitudeMeters>
            <DistanceMeters>NAN</DistanceMeters>
          </Trackpoint>
          <Trackpoint>
            <Time>2022-07-10T19:08:17.000Z</Time>
            <Position>
              <LatitudeDegrees>43.31941525451838970184326171875</LatitudeDegrees>
              <LongitudeDegrees>-2.45231227017939090728759765625</LongitudeDegrees>
            </Position>
            <AltitudeMeters>69.8000030517578125</AltitudeMeters>
            <DistanceMeters>NAN</DistanceMeters>
          </Trackpoint>
          <Trackpoint>
            <Time>2022-07-10T19:08:20.000Z</Time>
            <Position>
              <LatitudeDegrees>43.3193729259073734283447265625</LatitudeDegrees>
              <LongitudeDegrees>-2.45226030237972736358642578125</LongitudeDegrees>
            </Position>
            <AltitudeMeters>70</AltitudeMeters>
            <DistanceMeters>NAN</DistanceMeters>
          </Trackpoint>
          <Trackpoint>
            <Time>2022-07-10T19:08:22.000Z</Time>
            <Position>
              <LatitudeDegrees>43.31933612935245037078857421875</LatitudeDegrees>
              <LongitudeDegrees>-2.45226901955902576446533203125</LongitudeDegrees>
            </Position>
            <AltitudeMeters>70</AltitudeMeters>
            <DistanceMeters>NAN</DistanceMeters>
          </Trackpoint>
          <Trackpoint>
            <Time>2022-07-10T19:08:27.000Z</Time>
            <Position>
              <LatitudeDegrees>43.31930092535912990570068359375</LatitudeDegrees>
              <LongitudeDegrees>-2.45239491574466228485107421875</LongitudeDegrees>
            </Position>
            <AltitudeMeters>70</AltitudeMeters>
            <DistanceMeters>NAN</DistanceMeters>
          </Trackpoint>
          <Trackpoint>
            <Time>2022-07-10T19:08:33.000Z</Time>
            <Position>
              <LatitudeDegrees>43.31931450404226779937744140625</LatitudeDegrees>
              <LongitudeDegrees>-2.4525319598615169525146484375</LongitudeDegrees>
            </Position>
            <AltitudeMeters>70.40000152587890625</AltitudeMeters>
            <DistanceMeters>NAN</DistanceMeters>
          </Trackpoint>
          <Trackpoint>
            <Time>2022-07-10T19:08:36.000Z</Time>
            <Position>
              <LatitudeDegrees>43.31931718625128269195556640625</LatitudeDegrees>
              <LongitudeDegrees>-2.4525467120110988616943359375</LongitudeDegrees>
            </Position>
            <AltitudeMeters>70.40000152587890625</AltitudeMeters>
            <DistanceMeters>NAN</DistanceMeters>
          </Trackpoint>
          <Trackpoint>
            <Time>2022-07-10T19:08:38.000Z</Time>
            <Position>
              <LatitudeDegrees>43.31931718625128269195556640625</LatitudeDegrees>
              <LongitudeDegrees>-2.4525467120110988616943359375</LongitudeDegrees>
            </Position>
            <AltitudeMeters>70.40000152587890625</AltitudeMeters>
            <DistanceMeters>NAN</DistanceMeters>
          </Trackpoint>
          <Trackpoint>
            <Time>2022-07-10T19:14:52.000Z</Time>
            <Position>
              <LatitudeDegrees>43.31930193118751049041748046875</LatitudeDegrees>
              <LongitudeDegrees>-2.45242089964449405670166015625</LongitudeDegrees>
            </Position>
            <AltitudeMeters>69.8000030517578125</AltitudeMeters>
            <DistanceMeters>NAN</DistanceMeters>
          </Trackpoint>
          <Trackpoint>
            <Time>2022-07-10T19:14:53.000Z</Time>
            <Position>
              <LatitudeDegrees>43.3193045295774936676025390625</LatitudeDegrees>
              <LongitudeDegrees>-2.45238804258406162261962890625</LongitudeDegrees>
            </Position>
            <AltitudeMeters>69.8000030517578125</AltitudeMeters>
            <DistanceMeters>NAN</DistanceMeters>
          </Trackpoint>
          <Trackpoint>
            <Time>2022-07-10T19:14:54.000Z</Time>
            <Position>
              <LatitudeDegrees>43.31930813379585742950439453125</LatitudeDegrees>
              <LongitudeDegrees>-2.452358119189739227294921875</LongitudeDegrees>
            </Position>
            <AltitudeMeters>69.1999969482421875</AltitudeMeters>
            <DistanceMeters>NAN</DistanceMeters>
          </Trackpoint>
          <Trackpoint>
            <Time>2022-07-10T19:14:56.000Z</Time>
            <Position>
              <LatitudeDegrees>43.31932204775512218475341796875</LatitudeDegrees>
              <LongitudeDegrees>-2.4523016251623630523681640625</LongitudeDegrees>
            </Position>
            <AltitudeMeters>68.8000030517578125</AltitudeMeters>
            <DistanceMeters>NAN</DistanceMeters>
          </Trackpoint>
          <Trackpoint>
            <Time>2022-07-10T19:14:59.000Z</Time>
            <Position>
              <LatitudeDegrees>43.31935674883425235748291015625</LatitudeDegrees>
              <LongitudeDegrees>-2.4522278644144535064697265625</LongitudeDegrees>
            </Position>
            <AltitudeMeters>68.40000152587890625</AltitudeMeters>
            <DistanceMeters>NAN</DistanceMeters>
          </Trackpoint>
          <Trackpoint>
            <Time>2022-07-10T19:15:00.000Z</Time>
            <Position>
              <LatitudeDegrees>43.31937066279351711273193359375</LatitudeDegrees>
              <LongitudeDegrees>-2.45221294462680816650390625</LongitudeDegrees>
            </Position>
            <AltitudeMeters>68.40000152587890625</AltitudeMeters>
            <DistanceMeters>NAN</DistanceMeters>
          </Trackpoint>
          <Trackpoint>
            <Time>2022-07-10T19:15:01.000Z</Time>
            <Position>
              <LatitudeDegrees>43.31938005052506923675537109375</LatitudeDegrees>
              <LongitudeDegrees>-2.452197857201099395751953125</LongitudeDegrees>
            </Position>
            <AltitudeMeters>68.59999847412109375</AltitudeMeters>
            <DistanceMeters>NAN</DistanceMeters>
          </Trackpoint>
          <Trackpoint>
            <Time>2022-07-10T19:15:04.000Z</Time>
            <Position>
              <LatitudeDegrees>43.31936898641288280487060546875</LatitudeDegrees>
              <LongitudeDegrees>-2.45213138870894908905029296875</LongitudeDegrees>
            </Position>
            <AltitudeMeters>68.40000152587890625</AltitudeMeters>
            <DistanceMeters>NAN</DistanceMeters>
          </Trackpoint>
          <Trackpoint>
            <Time>2022-07-10T19:15:07.000Z</Time>
            <Position>
              <LatitudeDegrees>43.31936865113675594329833984375</LatitudeDegrees>
              <LongitudeDegrees>-2.45207740925252437591552734375</LongitudeDegrees>
            </Position>
            <AltitudeMeters>68.1999969482421875</AltitudeMeters>
            <DistanceMeters>NAN</DistanceMeters>
          </Trackpoint>
          <Trackpoint>
            <Time>2022-07-10T19:15:10.000Z</Time>
            <Position>
              <LatitudeDegrees>43.31938524730503559112548828125</LatitudeDegrees>
              <LongitudeDegrees>-2.45203449390828609466552734375</LongitudeDegrees>
            </Position>
            <AltitudeMeters>68.1999969482421875</AltitudeMeters>
            <DistanceMeters>NAN</DistanceMeters>
          </Trackpoint>
          <Trackpoint>
            <Time>2022-07-10T19:15:12.000Z</Time>
            <Position>
              <LatitudeDegrees>43.31941508688032627105712890625</LatitudeDegrees>
              <LongitudeDegrees>-2.45202695019543170928955078125</LongitudeDegrees>
            </Position>
            <AltitudeMeters>68.40000152587890625</AltitudeMeters>
            <DistanceMeters>NAN</DistanceMeters>
          </Trackpoint>
          <Trackpoint>
            <Time>2022-07-10T19:15:14.000Z</Time>
            <Position>
              <LatitudeDegrees>43.3194426633417606353759765625</LatitudeDegrees>
              <LongitudeDegrees>-2.452060393989086151123046875</LongitudeDegrees>
            </Position>
            <AltitudeMeters>68.40000152587890625</AltitudeMeters>
            <DistanceMeters>NAN</DistanceMeters>
          </Trackpoint>
          <Trackpoint>
            <Time>2022-07-10T19:15:19.000Z</Time>
            <Position>
              <LatitudeDegrees>43.319460265338420867919921875</LatitudeDegrees>
              <LongitudeDegrees>-2.45223247446119785308837890625</LongitudeDegrees>
            </Position>
            <AltitudeMeters>68.59999847412109375</AltitudeMeters>
            <DistanceMeters>NAN</DistanceMeters>
          </Trackpoint>
          <Trackpoint>
            <Time>2022-07-10T19:15:26.000Z</Time>
            <Position>
              <LatitudeDegrees>43.31947208382189273834228515625</LatitudeDegrees>
              <LongitudeDegrees>-2.45249985717236995697021484375</LongitudeDegrees>
            </Position>
            <AltitudeMeters>69</AltitudeMeters>
            <DistanceMeters>NAN</DistanceMeters>
          </Trackpoint>
          <Trackpoint>
            <Time>2022-07-10T19:15:38.000Z</Time>
            <Position>
              <LatitudeDegrees>43.31949303857982158660888671875</LatitudeDegrees>
              <LongitudeDegrees>-2.452946864068508148193359375</LongitudeDegrees>
            </Position>
            <AltitudeMeters>69.59999847412109375</AltitudeMeters>
            <DistanceMeters>NAN</DistanceMeters>
          </Trackpoint>
          <Trackpoint>
            <Time>2022-07-10T19:15:44.000Z</Time>
            <Position>
              <LatitudeDegrees>43.319511227309703826904296875</LatitudeDegrees>
              <LongitudeDegrees>-2.4532221257686614990234375</LongitudeDegrees>
            </Position>
            <AltitudeMeters>69.40000152587890625</AltitudeMeters>
            <DistanceMeters>NAN</DistanceMeters>
          </Trackpoint>
          <Trackpoint>
            <Time>2022-07-10T19:15:45.000Z</Time>
            <Position>
              <LatitudeDegrees>43.319517932832241058349609375</LatitudeDegrees>
              <LongitudeDegrees>-2.4532792903482913970947265625</LongitudeDegrees>
            </Position>
            <AltitudeMeters>69.40000152587890625</AltitudeMeters>
            <DistanceMeters>NAN</DistanceMeters>
          </Trackpoint>
          <Trackpoint>
            <Time>2022-07-10T19:15:51.000Z</Time>
            <Position>
              <LatitudeDegrees>43.31958599388599395751953125</LatitudeDegrees>
              <LongitudeDegrees>-2.45365002192556858062744140625</LongitudeDegrees>
            </Position>
            <AltitudeMeters>68.59999847412109375</AltitudeMeters>
            <DistanceMeters>NAN</DistanceMeters>
          </Trackpoint>
          <Trackpoint>
            <Time>2022-07-10T19:15:54.000Z</Time>
            <Position>
              <LatitudeDegrees>43.31963033415377140045166015625</LatitudeDegrees>
              <LongitudeDegrees>-2.45383861474692821502685546875</LongitudeDegrees>
            </Position>
            <AltitudeMeters>68.40000152587890625</AltitudeMeters>
            <DistanceMeters>NAN</DistanceMeters>
          </Trackpoint>
          <Trackpoint>
            <Time>2022-07-10T19:15:59.000Z</Time>
            <Position>
              <LatitudeDegrees>43.31967442296445369720458984375</LatitudeDegrees>
              <LongitudeDegrees>-2.45414757169783115386962890625</LongitudeDegrees>
            </Position>
            <AltitudeMeters>67.8000030517578125</AltitudeMeters>
            <DistanceMeters>NAN</DistanceMeters>
          </Trackpoint>
          <Trackpoint>
            <Time>2022-07-10T19:16:00.000Z</Time>
            <Position>
              <LatitudeDegrees>43.3196797035634517669677734375</LatitudeDegrees>
              <LongitudeDegrees>-2.45422652922570705413818359375</LongitudeDegrees>
            </Position>
            <AltitudeMeters>67.8000030517578125</AltitudeMeters>
            <DistanceMeters>NAN</DistanceMeters>
          </Trackpoint>
          <Trackpoint>
            <Time>2022-07-10T19:16:02.000Z</Time>
            <Position>
              <LatitudeDegrees>43.31967978738248348236083984375</LatitudeDegrees>
              <LongitudeDegrees>-2.45433457195758819580078125</LongitudeDegrees>
            </Position>
            <AltitudeMeters>67.8000030517578125</AltitudeMeters>
            <DistanceMeters>NAN</DistanceMeters>
          </Trackpoint>
          <Trackpoint>
            <Time>2022-07-10T19:16:03.000Z</Time>
            <Position>
              <LatitudeDegrees>43.3196817152202129364013671875</LatitudeDegrees>
              <LongitudeDegrees>-2.4543924070894718170166015625</LongitudeDegrees>
            </Position>
            <AltitudeMeters>67.8000030517578125</AltitudeMeters>
            <DistanceMeters>NAN</DistanceMeters>
          </Trackpoint>
          <Trackpoint>
            <Time>2022-07-10T19:16:04.000Z</Time>
            <Position>
              <LatitudeDegrees>43.3196820504963397979736328125</LatitudeDegrees>
              <LongitudeDegrees>-2.45444797910749912261962890625</LongitudeDegrees>
            </Position>
            <AltitudeMeters>67.59999847412109375</AltitudeMeters>
            <DistanceMeters>NAN</DistanceMeters>
          </Trackpoint>
          <Trackpoint>
            <Time>2022-07-10T19:16:05.000Z</Time>
            <Position>
              <LatitudeDegrees>43.31968012265861034393310546875</LatitudeDegrees>
              <LongitudeDegrees>-2.45449759997427463531494140625</LongitudeDegrees>
            </Position>
            <AltitudeMeters>67.8000030517578125</AltitudeMeters>
            <DistanceMeters>NAN</DistanceMeters>
          </Trackpoint>
          <Trackpoint>
            <Time>2022-07-10T19:16:07.000Z</Time>
            <Position>
              <LatitudeDegrees>43.319673836231231689453125</LatitudeDegrees>
              <LongitudeDegrees>-2.45459466241300106048583984375</LongitudeDegrees>
            </Position>
            <AltitudeMeters>67.59999847412109375</AltitudeMeters>
            <DistanceMeters>NAN</DistanceMeters>
          </Trackpoint>
          <Trackpoint>
            <Time>2022-07-10T19:16:08.000Z</Time>
            <Position>
              <LatitudeDegrees>43.31967257894575595855712890625</LatitudeDegrees>
              <LongitudeDegrees>-2.4546472169458866119384765625</LongitudeDegrees>
            </Position>
            <AltitudeMeters>67.59999847412109375</AltitudeMeters>
            <DistanceMeters>NAN</DistanceMeters>
          </Trackpoint>
          <Trackpoint>
            <Time>2022-07-10T19:16:09.000Z</Time>
            <Position>
              <LatitudeDegrees>43.31966553814709186553955078125</LatitudeDegrees>
              <LongitudeDegrees>-2.4546975083649158477783203125</LongitudeDegrees>
            </Position>
            <AltitudeMeters>67.59999847412109375</AltitudeMeters>
            <DistanceMeters>NAN</DistanceMeters>
          </Trackpoint>
          <Trackpoint>
            <Time>2022-07-10T19:16:13.000Z</Time>
            <Position>
              <LatitudeDegrees>43.3196361176669597625732421875</LatitudeDegrees>
              <LongitudeDegrees>-2.45489926077425479888916015625</LongitudeDegrees>
            </Position>
            <AltitudeMeters>67.59999847412109375</AltitudeMeters>
            <DistanceMeters>NAN</DistanceMeters>
          </Trackpoint>
          <Trackpoint>
            <Time>2022-07-10T19:16:21.000Z</Time>
            <Position>
              <LatitudeDegrees>43.3195194415748119354248046875</LatitudeDegrees>
              <LongitudeDegrees>-2.455232776701450347900390625</LongitudeDegrees>
            </Position>
            <AltitudeMeters>68</AltitudeMeters>
            <DistanceMeters>NAN</DistanceMeters>
          </Trackpoint>
          <Trackpoint>
            <Time>2022-07-10T19:16:28.000Z</Time>
            <Position>
              <LatitudeDegrees>43.319378457963466644287109375</LatitudeDegrees>
              <LongitudeDegrees>-2.45544902980327606201171875</LongitudeDegrees>
            </Position>
            <AltitudeMeters>68.40000152587890625</AltitudeMeters>
            <DistanceMeters>NAN</DistanceMeters>
          </Trackpoint>
          <Trackpoint>
            <Time>2022-07-10T19:16:37.000Z</Time>
            <Position>
              <LatitudeDegrees>43.31915080547332763671875</LatitudeDegrees>
              <LongitudeDegrees>-2.4557070247828960418701171875</LongitudeDegrees>
            </Position>
            <AltitudeMeters>68.59999847412109375</AltitudeMeters>
            <DistanceMeters>NAN</DistanceMeters>
          </Trackpoint>
          <Trackpoint>
            <Time>2022-07-10T19:16:43.000Z</Time>
            <Position>
              <LatitudeDegrees>43.318983502686023712158203125</LatitudeDegrees>
              <LongitudeDegrees>-2.45586921460926532745361328125</LongitudeDegrees>
            </Position>
            <AltitudeMeters>68.59999847412109375</AltitudeMeters>
            <DistanceMeters>NAN</DistanceMeters>
          </Trackpoint>
          <Trackpoint>
            <Time>2022-07-10T19:16:45.000Z</Time>
            <Position>
              <LatitudeDegrees>43.31891804002225399017333984375</LatitudeDegrees>
              <LongitudeDegrees>-2.45592637918889522552490234375</LongitudeDegrees>
            </Position>
            <AltitudeMeters>68.59999847412109375</AltitudeMeters>
            <DistanceMeters>NAN</DistanceMeters>
          </Trackpoint>
          <Trackpoint>
            <Time>2022-07-10T19:16:48.000Z</Time>
            <Position>
              <LatitudeDegrees>43.318833298981189727783203125</LatitudeDegrees>
              <LongitudeDegrees>-2.45601237751543521881103515625</LongitudeDegrees>
            </Position>
            <AltitudeMeters>68.59999847412109375</AltitudeMeters>
            <DistanceMeters>NAN</DistanceMeters>
          </Trackpoint>
          <Trackpoint>
            <Time>2022-07-10T19:16:50.000Z</Time>
            <Position>
              <LatitudeDegrees>43.3187791518867015838623046875</LatitudeDegrees>
              <LongitudeDegrees>-2.4560677818953990936279296875</LongitudeDegrees>
            </Position>
            <AltitudeMeters>68.8000030517578125</AltitudeMeters>
            <DistanceMeters>NAN</DistanceMeters>
          </Trackpoint>
          <Trackpoint>
            <Time>2022-07-10T19:16:58.000Z</Time>
            <Position>
              <LatitudeDegrees>43.31857605837285518646240234375</LatitudeDegrees>
              <LongitudeDegrees>-2.45629266835749149322509765625</LongitudeDegrees>
            </Position>
            <AltitudeMeters>69</AltitudeMeters>
            <DistanceMeters>NAN</DistanceMeters>
          </Trackpoint>
          <Trackpoint>
            <Time>2022-07-10T19:17:04.000Z</Time>
            <Position>
              <LatitudeDegrees>43.31845946609973907470703125</LatitudeDegrees>
              <LongitudeDegrees>-2.45645024813711643218994140625</LongitudeDegrees>
            </Position>
            <AltitudeMeters>69.59999847412109375</AltitudeMeters>
            <DistanceMeters>NAN</DistanceMeters>
          </Trackpoint>
          <Trackpoint>
            <Time>2022-07-10T19:17:07.000Z</Time>
            <Position>
              <LatitudeDegrees>43.3184103481471538543701171875</LatitudeDegrees>
              <LongitudeDegrees>-2.45649785734713077545166015625</LongitudeDegrees>
            </Position>
            <AltitudeMeters>69.8000030517578125</AltitudeMeters>
            <DistanceMeters>NAN</DistanceMeters>
          </Trackpoint>
          <Trackpoint>
            <Time>2022-07-10T19:17:11.000Z</Time>
            <Position>
              <LatitudeDegrees>43.31836718134582042694091796875</LatitudeDegrees>
              <LongitudeDegrees>-2.456568181514739990234375</LongitudeDegrees>
            </Position>
            <AltitudeMeters>70.40000152587890625</AltitudeMeters>
            <DistanceMeters>NAN</DistanceMeters>
          </Trackpoint>
          <Trackpoint>
            <Time>2022-07-10T19:17:14.000Z</Time>
            <Position>
              <LatitudeDegrees>43.3183261938393115997314453125</LatitudeDegrees>
              <LongitudeDegrees>-2.4566112644970417022705078125</LongitudeDegrees>
            </Position>
            <AltitudeMeters>71</AltitudeMeters>
            <DistanceMeters>NAN</DistanceMeters>
          </Trackpoint>
          <Trackpoint>
            <Time>2022-07-10T19:17:19.000Z</Time>
            <Position>
              <LatitudeDegrees>43.31825721077620983123779296875</LatitudeDegrees>
              <LongitudeDegrees>-2.4566632322967052459716796875</LongitudeDegrees>
            </Position>
            <AltitudeMeters>71.40000152587890625</AltitudeMeters>
            <DistanceMeters>NAN</DistanceMeters>
          </Trackpoint>
          <Trackpoint>
            <Time>2022-07-10T19:17:24.000Z</Time>
            <Position>
              <LatitudeDegrees>43.31818328239023685455322265625</LatitudeDegrees>
              <LongitudeDegrees>-2.45672442018985748291015625</LongitudeDegrees>
            </Position>
            <AltitudeMeters>72</AltitudeMeters>
            <DistanceMeters>NAN</DistanceMeters>
          </Trackpoint>
          <Trackpoint>
            <Time>2022-07-10T19:17:29.000Z</Time>
            <Position>
              <LatitudeDegrees>43.318112455308437347412109375</LatitudeDegrees>
              <LongitudeDegrees>-2.45679306797683238983154296875</LongitudeDegrees>
            </Position>
            <AltitudeMeters>72.40000152587890625</AltitudeMeters>
            <DistanceMeters>NAN</DistanceMeters>
          </Trackpoint>
          <Trackpoint>
            <Time>2022-07-10T19:17:34.000Z</Time>
            <Position>
              <LatitudeDegrees>43.3180284686386585235595703125</LatitudeDegrees>
              <LongitudeDegrees>-2.4568503163754940032958984375</LongitudeDegrees>
            </Position>
            <AltitudeMeters>73</AltitudeMeters>
            <DistanceMeters>NAN</DistanceMeters>
          </Trackpoint>
          <Trackpoint>
            <Time>2022-07-10T19:17:37.000Z</Time>
            <Position>
              <LatitudeDegrees>43.31797993741929531097412109375</LatitudeDegrees>
              <LongitudeDegrees>-2.456882335245609283447265625</LongitudeDegrees>
            </Position>
            <AltitudeMeters>73.40000152587890625</AltitudeMeters>
            <DistanceMeters>NAN</DistanceMeters>
          </Trackpoint>
          <Trackpoint>
            <Time>2022-07-10T19:17:43.000Z</Time>
            <Position>
              <LatitudeDegrees>43.317883796989917755126953125</LatitudeDegrees>
              <LongitudeDegrees>-2.45694394223392009735107421875</LongitudeDegrees>
            </Position>
            <AltitudeMeters>74</AltitudeMeters>
            <DistanceMeters>NAN</DistanceMeters>
          </Trackpoint>
          <Trackpoint>
            <Time>2022-07-10T19:17:44.000Z</Time>
            <Position>
              <LatitudeDegrees>43.31786242313683032989501953125</LatitudeDegrees>
              <LongitudeDegrees>-2.45695450343191623687744140625</LongitudeDegrees>
            </Position>
            <AltitudeMeters>74.1999969482421875</AltitudeMeters>
            <DistanceMeters>NAN</DistanceMeters>
          </Trackpoint>
          <Trackpoint>
            <Time>2022-07-10T19:17:46.000Z</Time>
            <Position>
              <LatitudeDegrees>43.31782805733382701873779296875</LatitudeDegrees>
              <LongitudeDegrees>-2.45698518119752407073974609375</LongitudeDegrees>
            </Position>
            <AltitudeMeters>74.59999847412109375</AltitudeMeters>
            <DistanceMeters>NAN</DistanceMeters>
          </Trackpoint>
          <Trackpoint>
            <Time>2022-07-10T19:17:51.000Z</Time>
            <Position>
              <LatitudeDegrees>43.317749015986919403076171875</LatitudeDegrees>
              <LongitudeDegrees>-2.45705139823257923126220703125</LongitudeDegrees>
            </Position>
            <AltitudeMeters>75.1999969482421875</AltitudeMeters>
            <DistanceMeters>NAN</DistanceMeters>
          </Trackpoint>
          <Trackpoint>
            <Time>2022-07-10T19:17:55.000Z</Time>
            <Position>
              <LatitudeDegrees>43.317680619657039642333984375</LatitudeDegrees>
              <LongitudeDegrees>-2.45707352645695209503173828125</LongitudeDegrees>
            </Position>
            <AltitudeMeters>75.59999847412109375</AltitudeMeters>
            <DistanceMeters>NAN</DistanceMeters>
          </Trackpoint>
          <Trackpoint>
            <Time>2022-07-10T19:17:56.000Z</Time>
            <Position>
              <LatitudeDegrees>43.3176635205745697021484375</LatitudeDegrees>
              <LongitudeDegrees>-2.4570762924849987030029296875</LongitudeDegrees>
            </Position>
            <AltitudeMeters>75.59999847412109375</AltitudeMeters>
            <DistanceMeters>NAN</DistanceMeters>
          </Trackpoint>
          <Trackpoint>
            <Time>2022-07-10T19:18:02.000Z</Time>
            <Position>
              <LatitudeDegrees>43.317564614117145538330078125</LatitudeDegrees>
              <LongitudeDegrees>-2.45709414593875408172607421875</LongitudeDegrees>
            </Position>
            <AltitudeMeters>76.1999969482421875</AltitudeMeters>
            <DistanceMeters>NAN</DistanceMeters>
          </Trackpoint>
          <Trackpoint>
            <Time>2022-07-10T19:18:11.000Z</Time>
            <Position>
              <LatitudeDegrees>43.3174226246774196624755859375</LatitudeDegrees>
              <LongitudeDegrees>-2.45713857002556324005126953125</LongitudeDegrees>
            </Position>
            <AltitudeMeters>77.1999969482421875</AltitudeMeters>
            <DistanceMeters>NAN</DistanceMeters>
          </Trackpoint>
          <Trackpoint>
            <Time>2022-07-10T19:18:13.000Z</Time>
            <Position>
              <LatitudeDegrees>43.3173840679228305816650390625</LatitudeDegrees>
              <LongitudeDegrees>-2.4571461975574493408203125</LongitudeDegrees>
            </Position>
            <AltitudeMeters>77.40000152587890625</AltitudeMeters>
            <DistanceMeters>NAN</DistanceMeters>
          </Trackpoint>
          <Trackpoint>
            <Time>2022-07-10T19:18:20.000Z</Time>
            <Position>
              <LatitudeDegrees>43.31727049313485622406005859375</LatitudeDegrees>
              <LongitudeDegrees>-2.45718651451170444488525390625</LongitudeDegrees>
            </Position>
            <AltitudeMeters>78.40000152587890625</AltitudeMeters>
            <DistanceMeters>NAN</DistanceMeters>
          </Trackpoint>
          <Trackpoint>
            <Time>2022-07-10T19:18:24.000Z</Time>
            <Position>
              <LatitudeDegrees>43.31719824112951755523681640625</LatitudeDegrees>
              <LongitudeDegrees>-2.45720579288899898529052734375</LongitudeDegrees>
            </Position>
            <AltitudeMeters>78.8000030517578125</AltitudeMeters>
            <DistanceMeters>NAN</DistanceMeters>
          </Trackpoint>
          <Trackpoint>
            <Time>2022-07-10T19:18:29.000Z</Time>
            <Position>
              <LatitudeDegrees>43.3170970715582370758056640625</LatitudeDegrees>
              <LongitudeDegrees>-2.4572211317718029022216796875</LongitudeDegrees>
            </Position>
            <AltitudeMeters>79.40000152587890625</AltitudeMeters>
            <DistanceMeters>NAN</DistanceMeters>
          </Trackpoint>
          <Trackpoint>
            <Time>2022-07-10T19:18:37.000Z</Time>
            <Position>
              <LatitudeDegrees>43.31694661639630794525146484375</LatitudeDegrees>
              <LongitudeDegrees>-2.45725424028933048248291015625</LongitudeDegrees>
            </Position>
            <AltitudeMeters>80.1999969482421875</AltitudeMeters>
            <DistanceMeters>NAN</DistanceMeters>
          </Trackpoint>
          <Trackpoint>
            <Time>2022-07-10T19:18:38.000Z</Time>
            <Position>
              <LatitudeDegrees>43.3169277571141719818115234375</LatitudeDegrees>
              <LongitudeDegrees>-2.45725692249834537506103515625</LongitudeDegrees>
            </Position>
            <AltitudeMeters>80.40000152587890625</AltitudeMeters>
            <DistanceMeters>NAN</DistanceMeters>
          </Trackpoint>
          <Trackpoint>
            <Time>2022-07-10T19:18:48.000Z</Time>
            <Position>
              <LatitudeDegrees>43.3167500607669353485107421875</LatitudeDegrees>
              <LongitudeDegrees>-2.4572925455868244171142578125</LongitudeDegrees>
            </Position>
            <AltitudeMeters>81.59999847412109375</AltitudeMeters>
            <DistanceMeters>NAN</DistanceMeters>
          </Trackpoint>
          <Trackpoint>
            <Time>2022-07-10T19:18:58.000Z</Time>
            <Position>
              <LatitudeDegrees>43.3165664970874786376953125</LatitudeDegrees>
              <LongitudeDegrees>-2.45733571238815784454345703125</LongitudeDegrees>
            </Position>
            <AltitudeMeters>82.59999847412109375</AltitudeMeters>
            <DistanceMeters>NAN</DistanceMeters>
          </Trackpoint>
          <Trackpoint>
            <Time>2022-07-10T19:18:59.000Z</Time>
            <Position>
              <LatitudeDegrees>43.3165472187101840972900390625</LatitudeDegrees>
              <LongitudeDegrees>-2.457340322434902191162109375</LongitudeDegrees>
            </Position>
            <AltitudeMeters>82.59999847412109375</AltitudeMeters>
            <DistanceMeters>NAN</DistanceMeters>
          </Trackpoint>
          <Trackpoint>
            <Time>2022-07-10T19:19:07.000Z</Time>
            <Position>
              <LatitudeDegrees>43.316406905651092529296875</LatitudeDegrees>
              <LongitudeDegrees>-2.4573773704469203948974609375</LongitudeDegrees>
            </Position>
            <AltitudeMeters>83.59999847412109375</AltitudeMeters>
            <DistanceMeters>NAN</DistanceMeters>
          </Trackpoint>
          <Trackpoint>
            <Time>2022-07-10T19:19:08.000Z</Time>
            <Position>
              <LatitudeDegrees>43.3163921535015106201171875</LatitudeDegrees>
              <LongitudeDegrees>-2.45738348923623561859130859375</LongitudeDegrees>
            </Position>
            <AltitudeMeters>83.8000030517578125</AltitudeMeters>
            <DistanceMeters>NAN</DistanceMeters>
          </Trackpoint>
          <Trackpoint>
            <Time>2022-07-10T19:19:09.000Z</Time>
            <Position>
              <LatitudeDegrees>43.31637714989483356475830078125</LatitudeDegrees>
              <LongitudeDegrees>-2.4573887698352336883544921875</LongitudeDegrees>
            </Position>
            <AltitudeMeters>83.8000030517578125</AltitudeMeters>
            <DistanceMeters>NAN</DistanceMeters>
          </Trackpoint>
          <Trackpoint>
            <Time>2022-07-10T19:19:10.000Z</Time>
            <Position>
              <LatitudeDegrees>43.31635988317430019378662109375</LatitudeDegrees>
              <LongitudeDegrees>-2.4573948048055171966552734375</LongitudeDegrees>
            </Position>
            <AltitudeMeters>83.8000030517578125</AltitudeMeters>
            <DistanceMeters>NAN</DistanceMeters>
          </Trackpoint>
          <Trackpoint>
            <Time>2022-07-10T19:19:19.000Z</Time>
            <Position>
              <LatitudeDegrees>43.3162043988704681396484375</LatitudeDegrees>
              <LongitudeDegrees>-2.45741106569766998291015625</LongitudeDegrees>
            </Position>
            <AltitudeMeters>84.8000030517578125</AltitudeMeters>
            <DistanceMeters>NAN</DistanceMeters>
          </Trackpoint>
          <Trackpoint>
            <Time>2022-07-10T19:19:29.000Z</Time>
            <Position>
              <LatitudeDegrees>43.3160432986915111541748046875</LatitudeDegrees>
              <LongitudeDegrees>-2.457443587481975555419921875</LongitudeDegrees>
            </Position>
            <AltitudeMeters>85.8000030517578125</AltitudeMeters>
            <DistanceMeters>NAN</DistanceMeters>
          </Trackpoint>
          <Trackpoint>
            <Time>2022-07-10T19:19:30.000Z</Time>
            <Position>
              <LatitudeDegrees>43.31602527759969234466552734375</LatitudeDegrees>
              <LongitudeDegrees>-2.45744593441486358642578125</LongitudeDegrees>
            </Position>
            <AltitudeMeters>85.8000030517578125</AltitudeMeters>
            <DistanceMeters>NAN</DistanceMeters>
          </Trackpoint>
          <Trackpoint>
            <Time>2022-07-10T19:19:39.000Z</Time>
            <Position>
              <LatitudeDegrees>43.31588228233158588409423828125</LatitudeDegrees>
              <LongitudeDegrees>-2.457468397915363311767578125</LongitudeDegrees>
            </Position>
            <AltitudeMeters>86.59999847412109375</AltitudeMeters>
            <DistanceMeters>NAN</DistanceMeters>
          </Trackpoint>
          <Trackpoint>
            <Time>2022-07-10T19:19:43.000Z</Time>
            <Position>
              <LatitudeDegrees>43.3158179931342601776123046875</LatitudeDegrees>
              <LongitudeDegrees>-2.4574809707701206207275390625</LongitudeDegrees>
            </Position>
            <AltitudeMeters>86.8000030517578125</AltitudeMeters>
            <DistanceMeters>NAN</DistanceMeters>
          </Trackpoint>
          <Trackpoint>
            <Time>2022-07-10T19:19:50.000Z</Time>
            <Position>
              <LatitudeDegrees>43.315715231001377105712890625</LatitudeDegrees>
              <LongitudeDegrees>-2.45750938542187213897705078125</LongitudeDegrees>
            </Position>
            <AltitudeMeters>87.40000152587890625</AltitudeMeters>
            <DistanceMeters>NAN</DistanceMeters>
          </Trackpoint>
          <Trackpoint>
            <Time>2022-07-10T19:19:55.000Z</Time>
            <Position>
              <LatitudeDegrees>43.3156446553766727447509765625</LatitudeDegrees>
              <LongitudeDegrees>-2.4575255624949932098388671875</LongitudeDegrees>
            </Position>
            <AltitudeMeters>88</AltitudeMeters>
            <DistanceMeters>NAN</DistanceMeters>
          </Trackpoint>
          <Trackpoint>
            <Time>2022-07-10T19:20:04.000Z</Time>
            <Position>
              <LatitudeDegrees>43.31551766954362392425537109375</LatitudeDegrees>
              <LongitudeDegrees>-2.45755414478480815887451171875</LongitudeDegrees>
            </Position>
            <AltitudeMeters>88.8000030517578125</AltitudeMeters>
            <DistanceMeters>NAN</DistanceMeters>
          </Trackpoint>
          <Trackpoint>
            <Time>2022-07-10T19:20:06.000Z</Time>
            <Position>
              <LatitudeDegrees>43.3154887519776821136474609375</LatitudeDegrees>
              <LongitudeDegrees>-2.45755984447896480560302734375</LongitudeDegrees>
            </Position>
            <AltitudeMeters>89</AltitudeMeters>
            <DistanceMeters>NAN</DistanceMeters>
          </Trackpoint>
          <Trackpoint>
            <Time>2022-07-10T19:20:08.000Z</Time>
            <Position>
              <LatitudeDegrees>43.3154622651636600494384765625</LatitudeDegrees>
              <LongitudeDegrees>-2.457568645477294921875</LongitudeDegrees>
            </Position>
            <AltitudeMeters>89.1999969482421875</AltitudeMeters>
            <DistanceMeters>NAN</DistanceMeters>
          </Trackpoint>
          <Trackpoint>
            <Time>2022-07-10T19:20:15.000Z</Time>
            <Position>
              <LatitudeDegrees>43.31536285579204559326171875</LatitudeDegrees>
              <LongitudeDegrees>-2.45758918114006519317626953125</LongitudeDegrees>
            </Position>
            <AltitudeMeters>90</AltitudeMeters>
            <DistanceMeters>NAN</DistanceMeters>
          </Trackpoint>
          <Trackpoint>
            <Time>2022-07-10T19:20:26.000Z</Time>
            <Position>
              <LatitudeDegrees>43.31521139480173587799072265625</LatitudeDegrees>
              <LongitudeDegrees>-2.4576197750866413116455078125</LongitudeDegrees>
            </Position>
            <AltitudeMeters>91</AltitudeMeters>
            <DistanceMeters>NAN</DistanceMeters>
          </Trackpoint>
          <Trackpoint>
            <Time>2022-07-10T19:20:28.000Z</Time>
            <Position>
              <LatitudeDegrees>43.315181471407413482666015625</LatitudeDegrees>
              <LongitudeDegrees>-2.45762505568563938140869140625</LongitudeDegrees>
            </Position>
            <AltitudeMeters>91.40000152587890625</AltitudeMeters>
            <DistanceMeters>NAN</DistanceMeters>
          </Trackpoint>
          <Trackpoint>
            <Time>2022-07-10T19:20:33.000Z</Time>
            <Position>
              <LatitudeDegrees>43.31510662101209163665771484375</LatitudeDegrees>
              <LongitudeDegrees>-2.45763829909265041351318359375</LongitudeDegrees>
            </Position>
            <AltitudeMeters>91.8000030517578125</AltitudeMeters>
            <DistanceMeters>NAN</DistanceMeters>
          </Trackpoint>
          <Trackpoint>
            <Time>2022-07-10T19:20:35.000Z</Time>
            <Position>
              <LatitudeDegrees>43.31508097238838672637939453125</LatitudeDegrees>
              <LongitudeDegrees>-2.45763913728296756744384765625</LongitudeDegrees>
            </Position>
            <AltitudeMeters>92</AltitudeMeters>
            <DistanceMeters>NAN</DistanceMeters>
          </Trackpoint>
          <Trackpoint>
            <Time>2022-07-10T19:20:36.000Z</Time>
            <Position>
              <LatitudeDegrees>43.315067477524280548095703125</LatitudeDegrees>
              <LongitudeDegrees>-2.457642070949077606201171875</LongitudeDegrees>
            </Position>
            <AltitudeMeters>92.1999969482421875</AltitudeMeters>
            <DistanceMeters>NAN</DistanceMeters>
          </Trackpoint>
          <Trackpoint>
            <Time>2022-07-10T19:20:38.000Z</Time>
            <Position>
              <LatitudeDegrees>43.31504107452929019927978515625</LatitudeDegrees>
              <LongitudeDegrees>-2.457645423710346221923828125</LongitudeDegrees>
            </Position>
            <AltitudeMeters>92.40000152587890625</AltitudeMeters>
            <DistanceMeters>NAN</DistanceMeters>
          </Trackpoint>
          <Trackpoint>
            <Time>2022-07-10T19:20:48.000Z</Time>
            <Position>
              <LatitudeDegrees>43.31490964628756046295166015625</LatitudeDegrees>
              <LongitudeDegrees>-2.45767601765692234039306640625</LongitudeDegrees>
            </Position>
            <AltitudeMeters>93.1999969482421875</AltitudeMeters>
            <DistanceMeters>NAN</DistanceMeters>
          </Trackpoint>
          <Trackpoint>
            <Time>2022-07-10T19:20:49.000Z</Time>
            <Position>
              <LatitudeDegrees>43.31489321775734424591064453125</LatitudeDegrees>
              <LongitudeDegrees>-2.45767618529498577117919921875</LongitudeDegrees>
            </Position>
            <AltitudeMeters>93.1999969482421875</AltitudeMeters>
            <DistanceMeters>NAN</DistanceMeters>
          </Trackpoint>
          <Trackpoint>
            <Time>2022-07-10T19:20:59.000Z</Time>
            <Position>
              <LatitudeDegrees>43.31476044841110706329345703125</LatitudeDegrees>
              <LongitudeDegrees>-2.45769881643354892730712890625</LongitudeDegrees>
            </Position>
            <AltitudeMeters>94.1999969482421875</AltitudeMeters>
            <DistanceMeters>NAN</DistanceMeters>
          </Trackpoint>
          <Trackpoint>
            <Time>2022-07-10T19:21:00.000Z</Time>
            <Position>
              <LatitudeDegrees>43.314749635756015777587890625</LatitudeDegrees>
              <LongitudeDegrees>-2.4577009119093418121337890625</LongitudeDegrees>
            </Position>
            <AltitudeMeters>94.40000152587890625</AltitudeMeters>
            <DistanceMeters>NAN</DistanceMeters>
          </Trackpoint>
          <Trackpoint>
            <Time>2022-07-10T19:21:10.000Z</Time>
            <Position>
              <LatitudeDegrees>43.3146291039884090423583984375</LatitudeDegrees>
              <LongitudeDegrees>-2.4577116407454013824462890625</LongitudeDegrees>
            </Position>
            <AltitudeMeters>95.1999969482421875</AltitudeMeters>
            <DistanceMeters>NAN</DistanceMeters>
          </Trackpoint>
          <Trackpoint>
            <Time>2022-07-10T19:21:12.000Z</Time>
            <Position>
              <LatitudeDegrees>43.31460320390760898590087890625</LatitudeDegrees>
              <LongitudeDegrees>-2.45771138928830623626708984375</LongitudeDegrees>
            </Position>
            <AltitudeMeters>95.40000152587890625</AltitudeMeters>
            <DistanceMeters>NAN</DistanceMeters>
          </Trackpoint>
          <Trackpoint>
            <Time>2022-07-10T19:21:17.000Z</Time>
            <Position>
              <LatitudeDegrees>43.31452810205519199371337890625</LatitudeDegrees>
              <LongitudeDegrees>-2.45768775232136249542236328125</LongitudeDegrees>
            </Position>
            <AltitudeMeters>96</AltitudeMeters>
            <DistanceMeters>NAN</DistanceMeters>
          </Trackpoint>
          <Trackpoint>
            <Time>2022-07-10T19:21:18.000Z</Time>
            <Position>
              <LatitudeDegrees>43.31450496800243854522705078125</LatitudeDegrees>
              <LongitudeDegrees>-2.45767165906727313995361328125</LongitudeDegrees>
            </Position>
            <AltitudeMeters>96</AltitudeMeters>
            <DistanceMeters>NAN</DistanceMeters>
          </Trackpoint>
          <Trackpoint>
            <Time>2022-07-10T19:21:24.000Z</Time>
            <Position>
              <LatitudeDegrees>43.31444042734801769256591796875</LatitudeDegrees>
              <LongitudeDegrees>-2.4576828069984912872314453125</LongitudeDegrees>
            </Position>
            <AltitudeMeters>96.40000152587890625</AltitudeMeters>
            <DistanceMeters>NAN</DistanceMeters>
          </Trackpoint>
          <Trackpoint>
            <Time>2022-07-10T19:21:26.000Z</Time>
            <Position>
              <LatitudeDegrees>43.314422406256198883056640625</LatitudeDegrees>
              <LongitudeDegrees>-2.45769998989999294281005859375</LongitudeDegrees>
            </Position>
            <AltitudeMeters>96.59999847412109375</AltitudeMeters>
            <DistanceMeters>NAN</DistanceMeters>
          </Trackpoint>
          <Trackpoint>
            <Time>2022-07-10T19:21:32.000Z</Time>
            <Position>
              <LatitudeDegrees>43.31433213315904140472412109375</LatitudeDegrees>
              <LongitudeDegrees>-2.45770485140383243560791015625</LongitudeDegrees>
            </Position>
            <AltitudeMeters>97.1999969482421875</AltitudeMeters>
            <DistanceMeters>NAN</DistanceMeters>
          </Trackpoint>
          <Trackpoint>
            <Time>2022-07-10T19:21:35.000Z</Time>
            <Position>
              <LatitudeDegrees>43.31429039128124713897705078125</LatitudeDegrees>
              <LongitudeDegrees>-2.45770879089832305908203125</LongitudeDegrees>
            </Position>
            <AltitudeMeters>97.40000152587890625</AltitudeMeters>
            <DistanceMeters>NAN</DistanceMeters>
          </Trackpoint>
          <Trackpoint>
            <Time>2022-07-10T19:21:36.000Z</Time>
            <Position>
              <LatitudeDegrees>43.31428058445453643798828125</LatitudeDegrees>
              <LongitudeDegrees>-2.4577166698873043060302734375</LongitudeDegrees>
            </Position>
            <AltitudeMeters>97.59999847412109375</AltitudeMeters>
            <DistanceMeters>NAN</DistanceMeters>
          </Trackpoint>
          <Trackpoint>
            <Time>2022-07-10T19:21:37.000Z</Time>
            <Position>
              <LatitudeDegrees>43.3142646588385105133056640625</LatitudeDegrees>
              <LongitudeDegrees>-2.457719855010509490966796875</LongitudeDegrees>
            </Position>
            <AltitudeMeters>97.59999847412109375</AltitudeMeters>
            <DistanceMeters>NAN</DistanceMeters>
          </Trackpoint>
          <Trackpoint>
            <Time>2022-07-10T19:21:47.000Z</Time>
            <Position>
              <LatitudeDegrees>43.31411923281848430633544921875</LatitudeDegrees>
              <LongitudeDegrees>-2.45772899128496646881103515625</LongitudeDegrees>
            </Position>
            <AltitudeMeters>98.59999847412109375</AltitudeMeters>
            <DistanceMeters>NAN</DistanceMeters>
          </Trackpoint>
          <Trackpoint>
            <Time>2022-07-10T19:21:48.000Z</Time>
            <Position>
              <LatitudeDegrees>43.31410548649728298187255859375</LatitudeDegrees>
              <LongitudeDegrees>-2.45773117057979106903076171875</LongitudeDegrees>
            </Position>
            <AltitudeMeters>98.8000030517578125</AltitudeMeters>
            <DistanceMeters>NAN</DistanceMeters>
          </Trackpoint>
          <Trackpoint>
            <Time>2022-07-10T19:21:54.000Z</Time>
            <Position>
              <LatitudeDegrees>43.31401848234236240386962890625</LatitudeDegrees>
              <LongitudeDegrees>-2.4577575735747814178466796875</LongitudeDegrees>
            </Position>
            <AltitudeMeters>99.40000152587890625</AltitudeMeters>
            <DistanceMeters>NAN</DistanceMeters>
          </Trackpoint>
          <Trackpoint>
            <Time>2022-07-10T19:21:57.000Z</Time>
            <Position>
              <LatitudeDegrees>43.313967771828174591064453125</LatitudeDegrees>
              <LongitudeDegrees>-2.4577538855373859405517578125</LongitudeDegrees>
            </Position>
            <AltitudeMeters>99.8000030517578125</AltitudeMeters>
            <DistanceMeters>NAN</DistanceMeters>
          </Trackpoint>
          <Trackpoint>
            <Time>2022-07-10T19:22:00.000Z</Time>
            <Position>
              <LatitudeDegrees>43.31391555257141590118408203125</LatitudeDegrees>
              <LongitudeDegrees>-2.45775916613638401031494140625</LongitudeDegrees>
            </Position>
            <AltitudeMeters>100</AltitudeMeters>
            <DistanceMeters>NAN</DistanceMeters>
          </Trackpoint>
          <Trackpoint>
            <Time>2022-07-10T19:22:03.000Z</Time>
            <Position>
              <LatitudeDegrees>43.3138790912926197052001953125</LatitudeDegrees>
              <LongitudeDegrees>-2.45778657495975494384765625</LongitudeDegrees>
            </Position>
            <AltitudeMeters>100.1999969482421875</AltitudeMeters>
            <DistanceMeters>NAN</DistanceMeters>
          </Trackpoint>
          <Trackpoint>
            <Time>2022-07-10T19:22:05.000Z</Time>
            <Position>
              <LatitudeDegrees>43.3138415403664112091064453125</LatitudeDegrees>
              <LongitudeDegrees>-2.4577817134559154510498046875</LongitudeDegrees>
            </Position>
            <AltitudeMeters>100.40000152587890625</AltitudeMeters>
            <DistanceMeters>NAN</DistanceMeters>
          </Trackpoint>
          <Trackpoint>
            <Time>2022-07-10T19:22:10.000Z</Time>
            <Position>
              <LatitudeDegrees>43.31376501359045505523681640625</LatitudeDegrees>
              <LongitudeDegrees>-2.45781213976442813873291015625</LongitudeDegrees>
            </Position>
            <AltitudeMeters>100.8000030517578125</AltitudeMeters>
            <DistanceMeters>NAN</DistanceMeters>
          </Trackpoint>
          <Trackpoint>
            <Time>2022-07-10T19:22:13.000Z</Time>
            <Position>
              <LatitudeDegrees>43.31373081542551517486572265625</LatitudeDegrees>
              <LongitudeDegrees>-2.45783007703721523284912109375</LongitudeDegrees>
            </Position>
            <AltitudeMeters>101.1999969482421875</AltitudeMeters>
            <DistanceMeters>NAN</DistanceMeters>
          </Trackpoint>
          <Trackpoint>
            <Time>2022-07-10T19:22:20.000Z</Time>
            <Position>
              <LatitudeDegrees>43.313639871776103973388671875</LatitudeDegrees>
              <LongitudeDegrees>-2.45786796323955059051513671875</LongitudeDegrees>
            </Position>
            <AltitudeMeters>101.8000030517578125</AltitudeMeters>
            <DistanceMeters>NAN</DistanceMeters>
          </Trackpoint>
          <Trackpoint>
            <Time>2022-07-10T19:22:21.000Z</Time>
            <Position>
              <LatitudeDegrees>43.31362612545490264892578125</LatitudeDegrees>
              <LongitudeDegrees>-2.4578732438385486602783203125</LongitudeDegrees>
            </Position>
            <AltitudeMeters>102</AltitudeMeters>
            <DistanceMeters>NAN</DistanceMeters>
          </Trackpoint>
          <Trackpoint>
            <Time>2022-07-10T19:22:25.000Z</Time>
            <Position>
              <LatitudeDegrees>43.31356284208595752716064453125</LatitudeDegrees>
              <LongitudeDegrees>-2.45789210312068462371826171875</LongitudeDegrees>
            </Position>
            <AltitudeMeters>102.1999969482421875</AltitudeMeters>
            <DistanceMeters>NAN</DistanceMeters>
          </Trackpoint>
          <Trackpoint>
            <Time>2022-07-10T19:22:28.000Z</Time>
            <Position>
              <LatitudeDegrees>43.3135243691504001617431640625</LatitudeDegrees>
              <LongitudeDegrees>-2.45790400542318820953369140625</LongitudeDegrees>
            </Position>
            <AltitudeMeters>102.59999847412109375</AltitudeMeters>
            <DistanceMeters>NAN</DistanceMeters>
          </Trackpoint>
          <Trackpoint>
            <Time>2022-07-10T19:22:32.000Z</Time>
            <Position>
              <LatitudeDegrees>43.313477933406829833984375</LatitudeDegrees>
              <LongitudeDegrees>-2.45791389606893062591552734375</LongitudeDegrees>
            </Position>
            <AltitudeMeters>102.8000030517578125</AltitudeMeters>
            <DistanceMeters>NAN</DistanceMeters>
          </Trackpoint>
          <Trackpoint>
            <Time>2022-07-10T19:22:33.000Z</Time>
            <Position>
              <LatitudeDegrees>43.31346477381885051727294921875</LatitudeDegrees>
              <LongitudeDegrees>-2.4579151533544063568115234375</LongitudeDegrees>
            </Position>
            <AltitudeMeters>103</AltitudeMeters>
            <DistanceMeters>NAN</DistanceMeters>
          </Trackpoint>
          <Trackpoint>
            <Time>2022-07-10T19:22:36.000Z</Time>
            <Position>
              <LatitudeDegrees>43.3134200982749462127685546875</LatitudeDegrees>
              <LongitudeDegrees>-2.4579151533544063568115234375</LongitudeDegrees>
            </Position>
            <AltitudeMeters>103.40000152587890625</AltitudeMeters>
            <DistanceMeters>NAN</DistanceMeters>
          </Trackpoint>
          <Trackpoint>
            <Time>2022-07-10T19:22:38.000Z</Time>
            <Position>
              <LatitudeDegrees>43.313383720815181732177734375</LatitudeDegrees>
              <LongitudeDegrees>-2.45792680419981479644775390625</LongitudeDegrees>
            </Position>
            <AltitudeMeters>103.59999847412109375</AltitudeMeters>
            <DistanceMeters>NAN</DistanceMeters>
          </Trackpoint>
          <Trackpoint>
            <Time>2022-07-10T19:22:41.000Z</Time>
            <Position>
              <LatitudeDegrees>43.31333870999515056610107421875</LatitudeDegrees>
              <LongitudeDegrees>-2.4579044245183467864990234375</LongitudeDegrees>
            </Position>
            <AltitudeMeters>104</AltitudeMeters>
            <DistanceMeters>NAN</DistanceMeters>
          </Trackpoint>
          <Trackpoint>
            <Time>2022-07-10T19:22:43.000Z</Time>
            <Position>
              <LatitudeDegrees>43.31331641413271427154541015625</LatitudeDegrees>
              <LongitudeDegrees>-2.4578886665403842926025390625</LongitudeDegrees>
            </Position>
            <AltitudeMeters>104.1999969482421875</AltitudeMeters>
            <DistanceMeters>NAN</DistanceMeters>
          </Trackpoint>
          <Trackpoint>
            <Time>2022-07-10T19:22:44.000Z</Time>
            <Position>
              <LatitudeDegrees>43.3133074454963207244873046875</LatitudeDegrees>
              <LongitudeDegrees>-2.45787869207561016082763671875</LongitudeDegrees>
            </Position>
            <AltitudeMeters>104.40000152587890625</AltitudeMeters>
            <DistanceMeters>NAN</DistanceMeters>
          </Trackpoint>
          <Trackpoint>
            <Time>2022-07-10T19:22:51.000Z</Time>
            <Position>
              <LatitudeDegrees>43.3132430724799633026123046875</LatitudeDegrees>
              <LongitudeDegrees>-2.45780040509998798370361328125</LongitudeDegrees>
            </Position>
            <AltitudeMeters>105.1999969482421875</AltitudeMeters>
            <DistanceMeters>NAN</DistanceMeters>
          </Trackpoint>
          <Trackpoint>
            <Time>2022-07-10T19:22:52.000Z</Time>
            <Position>
              <LatitudeDegrees>43.3132323436439037322998046875</LatitudeDegrees>
              <LongitudeDegrees>-2.45779152028262615203857421875</LongitudeDegrees>
            </Position>
            <AltitudeMeters>105.40000152587890625</AltitudeMeters>
            <DistanceMeters>NAN</DistanceMeters>
          </Trackpoint>
          <Trackpoint>
            <Time>2022-07-10T19:22:57.000Z</Time>
            <Position>
              <LatitudeDegrees>43.3131788671016693115234375</LatitudeDegrees>
              <LongitudeDegrees>-2.4577421508729457855224609375</LongitudeDegrees>
            </Position>
            <AltitudeMeters>105.8000030517578125</AltitudeMeters>
            <DistanceMeters>NAN</DistanceMeters>
          </Trackpoint>
          <Trackpoint>
            <Time>2022-07-10T19:22:58.000Z</Time>
            <Position>
              <LatitudeDegrees>43.31316704861819744110107421875</LatitudeDegrees>
              <LongitudeDegrees>-2.45772949419915676116943359375</LongitudeDegrees>
            </Position>
            <AltitudeMeters>106</AltitudeMeters>
            <DistanceMeters>NAN</DistanceMeters>
          </Trackpoint>
          <Trackpoint>
            <Time>2022-07-10T19:23:00.000Z</Time>
            <Position>
              <LatitudeDegrees>43.31314642913639545440673828125</LatitudeDegrees>
              <LongitudeDegrees>-2.45771189220249652862548828125</LongitudeDegrees>
            </Position>
            <AltitudeMeters>106.1999969482421875</AltitudeMeters>
            <DistanceMeters>NAN</DistanceMeters>
          </Trackpoint>
          <Trackpoint>
            <Time>2022-07-10T19:23:02.000Z</Time>
            <Position>
              <LatitudeDegrees>43.313129581511020660400390625</LatitudeDegrees>
              <LongitudeDegrees>-2.457694709300994873046875</LongitudeDegrees>
            </Position>
            <AltitudeMeters>106.1999969482421875</AltitudeMeters>
            <DistanceMeters>NAN</DistanceMeters>
          </Trackpoint>
          <Trackpoint>
            <Time>2022-07-10T19:23:05.000Z</Time>
            <Position>
              <LatitudeDegrees>43.3131166733801364898681640625</LatitudeDegrees>
              <LongitudeDegrees>-2.45769361965358257293701171875</LongitudeDegrees>
            </Position>
            <AltitudeMeters>106.59999847412109375</AltitudeMeters>
            <DistanceMeters>NAN</DistanceMeters>
          </Trackpoint>
          <Trackpoint>
            <Time>2022-07-10T19:23:06.000Z</Time>
            <Position>
              <LatitudeDegrees>43.3131166733801364898681640625</LatitudeDegrees>
              <LongitudeDegrees>-2.45769361965358257293701171875</LongitudeDegrees>
            </Position>
            <AltitudeMeters>106.59999847412109375</AltitudeMeters>
            <DistanceMeters>NAN</DistanceMeters>
          </Trackpoint>
          <Trackpoint>
            <Time>2022-07-10T19:23:33.000Z</Time>
            <Position>
              <LatitudeDegrees>43.3131347782909870147705078125</LatitudeDegrees>
              <LongitudeDegrees>-2.457705438137054443359375</LongitudeDegrees>
            </Position>
            <AltitudeMeters>106.40000152587890625</AltitudeMeters>
            <DistanceMeters>NAN</DistanceMeters>
          </Trackpoint>
          <Trackpoint>
            <Time>2022-07-10T19:23:34.000Z</Time>
            <Position>
              <LatitudeDegrees>43.31315715797245502471923828125</LatitudeDegrees>
              <LongitudeDegrees>-2.4577173404395580291748046875</LongitudeDegrees>
            </Position>
            <AltitudeMeters>106.1999969482421875</AltitudeMeters>
            <DistanceMeters>NAN</DistanceMeters>
          </Trackpoint>
          <Trackpoint>
            <Time>2022-07-10T19:23:36.000Z</Time>
            <Position>
              <LatitudeDegrees>43.313193619251251220703125</LatitudeDegrees>
              <LongitudeDegrees>-2.45773871429264545440673828125</LongitudeDegrees>
            </Position>
            <AltitudeMeters>106</AltitudeMeters>
            <DistanceMeters>NAN</DistanceMeters>
          </Trackpoint>
          <Trackpoint>
            <Time>2022-07-10T19:23:37.000Z</Time>
            <Position>
              <LatitudeDegrees>43.3132085390388965606689453125</LatitudeDegrees>
              <LongitudeDegrees>-2.45775698684155941009521484375</LongitudeDegrees>
            </Position>
            <AltitudeMeters>106</AltitudeMeters>
            <DistanceMeters>NAN</DistanceMeters>
          </Trackpoint>
          <Trackpoint>
            <Time>2022-07-10T19:23:40.000Z</Time>
            <Position>
              <LatitudeDegrees>43.31326025538146495819091796875</LatitudeDegrees>
              <LongitudeDegrees>-2.45783896185457706451416015625</LongitudeDegrees>
            </Position>
            <AltitudeMeters>105.40000152587890625</AltitudeMeters>
            <DistanceMeters>NAN</DistanceMeters>
          </Trackpoint>
          <Trackpoint>
            <Time>2022-07-10T19:23:41.000Z</Time>
            <Position>
              <LatitudeDegrees>43.31327266059815883636474609375</LatitudeDegrees>
              <LongitudeDegrees>-2.45787399820983409881591796875</LongitudeDegrees>
            </Position>
            <AltitudeMeters>105.1999969482421875</AltitudeMeters>
            <DistanceMeters>NAN</DistanceMeters>
          </Trackpoint>
          <Trackpoint>
            <Time>2022-07-10T19:23:42.000Z</Time>
            <Position>
              <LatitudeDegrees>43.31327349878847599029541015625</LatitudeDegrees>
              <LongitudeDegrees>-2.4579106271266937255859375</LongitudeDegrees>
            </Position>
            <AltitudeMeters>104.8000030517578125</AltitudeMeters>
            <DistanceMeters>NAN</DistanceMeters>
          </Trackpoint>
          <Trackpoint>
            <Time>2022-07-10T19:23:44.000Z</Time>
            <Position>
              <LatitudeDegrees>43.31325472332537174224853515625</LatitudeDegrees>
              <LongitudeDegrees>-2.457992099225521087646484375</LongitudeDegrees>
            </Position>
            <AltitudeMeters>104.40000152587890625</AltitudeMeters>
            <DistanceMeters>NAN</DistanceMeters>
          </Trackpoint>
          <Trackpoint>
            <Time>2022-07-10T19:23:47.000Z</Time>
            <Position>
              <LatitudeDegrees>43.31319521181285381317138671875</LatitudeDegrees>
              <LongitudeDegrees>-2.458115480840206146240234375</LongitudeDegrees>
            </Position>
            <AltitudeMeters>104.1999969482421875</AltitudeMeters>
            <DistanceMeters>NAN</DistanceMeters>
          </Trackpoint>
          <Trackpoint>
            <Time>2022-07-10T19:23:49.000Z</Time>
            <Position>
              <LatitudeDegrees>43.313138298690319061279296875</LatitudeDegrees>
              <LongitudeDegrees>-2.45819695293903350830078125</LongitudeDegrees>
            </Position>
            <AltitudeMeters>103.8000030517578125</AltitudeMeters>
            <DistanceMeters>NAN</DistanceMeters>
          </Trackpoint>
          <Trackpoint>
            <Time>2022-07-10T19:23:53.000Z</Time>
            <Position>
              <LatitudeDegrees>43.312957584857940673828125</LatitudeDegrees>
              <LongitudeDegrees>-2.4583640880882740020751953125</LongitudeDegrees>
            </Position>
            <AltitudeMeters>103</AltitudeMeters>
            <DistanceMeters>NAN</DistanceMeters>
          </Trackpoint>
          <Trackpoint>
            <Time>2022-07-10T19:23:54.000Z</Time>
            <Position>
              <LatitudeDegrees>43.3129208721220493316650390625</LatitudeDegrees>
              <LongitudeDegrees>-2.4583915807306766510009765625</LongitudeDegrees>
            </Position>
            <AltitudeMeters>102.59999847412109375</AltitudeMeters>
            <DistanceMeters>NAN</DistanceMeters>
          </Trackpoint>
          <Trackpoint>
            <Time>2022-07-10T19:23:56.000Z</Time>
            <Position>
              <LatitudeDegrees>43.3128248155117034912109375</LatitudeDegrees>
              <LongitudeDegrees>-2.4584685266017913818359375</LongitudeDegrees>
            </Position>
            <AltitudeMeters>101.59999847412109375</AltitudeMeters>
            <DistanceMeters>NAN</DistanceMeters>
          </Trackpoint>
          <Trackpoint>
            <Time>2022-07-10T19:23:58.000Z</Time>
            <Position>
              <LatitudeDegrees>43.3127723447978496551513671875</LatitudeDegrees>
              <LongitudeDegrees>-2.45855008251965045928955078125</LongitudeDegrees>
            </Position>
            <AltitudeMeters>100.8000030517578125</AltitudeMeters>
            <DistanceMeters>NAN</DistanceMeters>
          </Trackpoint>
          <Trackpoint>
            <Time>2022-07-10T19:23:59.000Z</Time>
            <Position>
              <LatitudeDegrees>43.31276245415210723876953125</LatitudeDegrees>
              <LongitudeDegrees>-2.45860808528959751129150390625</LongitudeDegrees>
            </Position>
            <AltitudeMeters>100.40000152587890625</AltitudeMeters>
            <DistanceMeters>NAN</DistanceMeters>
          </Trackpoint>
          <Trackpoint>
            <Time>2022-07-10T19:24:00.000Z</Time>
            <Position>
              <LatitudeDegrees>43.3127736859023571014404296875</LatitudeDegrees>
              <LongitudeDegrees>-2.45866742916405200958251953125</LongitudeDegrees>
            </Position>
            <AltitudeMeters>99.8000030517578125</AltitudeMeters>
            <DistanceMeters>NAN</DistanceMeters>
          </Trackpoint>
          <Trackpoint>
            <Time>2022-07-10T19:24:01.000Z</Time>
            <Position>
              <LatitudeDegrees>43.3128038607537746429443359375</LatitudeDegrees>
              <LongitudeDegrees>-2.45871621184051036834716796875</LongitudeDegrees>
            </Position>
            <AltitudeMeters>99.1999969482421875</AltitudeMeters>
            <DistanceMeters>NAN</DistanceMeters>
          </Trackpoint>
          <Trackpoint>
            <Time>2022-07-10T19:24:02.000Z</Time>
            <Position>
              <LatitudeDegrees>43.3128477819263935089111328125</LatitudeDegrees>
              <LongitudeDegrees>-2.45874403975903987884521484375</LongitudeDegrees>
            </Position>
            <AltitudeMeters>98.59999847412109375</AltitudeMeters>
            <DistanceMeters>NAN</DistanceMeters>
          </Trackpoint>
          <Trackpoint>
            <Time>2022-07-10T19:24:04.000Z</Time>
            <Position>
              <LatitudeDegrees>43.31294911913573741912841796875</LatitudeDegrees>
              <LongitudeDegrees>-2.458786033093929290771484375</LongitudeDegrees>
            </Position>
            <AltitudeMeters>98</AltitudeMeters>
            <DistanceMeters>NAN</DistanceMeters>
          </Trackpoint>
          <Trackpoint>
            <Time>2022-07-10T19:24:05.000Z</Time>
            <Position>
              <LatitudeDegrees>43.313010223209857940673828125</LatitudeDegrees>
              <LongitudeDegrees>-2.45882048271596431732177734375</LongitudeDegrees>
            </Position>
            <AltitudeMeters>97.40000152587890625</AltitudeMeters>
            <DistanceMeters>NAN</DistanceMeters>
          </Trackpoint>
          <Trackpoint>
            <Time>2022-07-10T19:24:06.000Z</Time>
            <Position>
              <LatitudeDegrees>43.313049115240573883056640625</LatitudeDegrees>
              <LongitudeDegrees>-2.45885535143315792083740234375</LongitudeDegrees>
            </Position>
            <AltitudeMeters>97</AltitudeMeters>
            <DistanceMeters>NAN</DistanceMeters>
          </Trackpoint>
          <Trackpoint>
            <Time>2022-07-10T19:24:07.000Z</Time>
            <Position>
              <LatitudeDegrees>43.31310552544891834259033203125</LatitudeDegrees>
              <LongitudeDegrees>-2.458918131887912750244140625</LongitudeDegrees>
            </Position>
            <AltitudeMeters>96.8000030517578125</AltitudeMeters>
            <DistanceMeters>NAN</DistanceMeters>
          </Trackpoint>
          <Trackpoint>
            <Time>2022-07-10T19:24:09.000Z</Time>
            <Position>
              <LatitudeDegrees>43.31319152377545833587646484375</LatitudeDegrees>
              <LongitudeDegrees>-2.459038160741329193115234375</LongitudeDegrees>
            </Position>
            <AltitudeMeters>96.40000152587890625</AltitudeMeters>
            <DistanceMeters>NAN</DistanceMeters>
          </Trackpoint>
          <Trackpoint>
            <Time>2022-07-10T19:24:10.000Z</Time>
            <Position>
              <LatitudeDegrees>43.31323745660483837127685546875</LatitudeDegrees>
              <LongitudeDegrees>-2.459110915660858154296875</LongitudeDegrees>
            </Position>
            <AltitudeMeters>95.59999847412109375</AltitudeMeters>
            <DistanceMeters>NAN</DistanceMeters>
          </Trackpoint>
          <Trackpoint>
            <Time>2022-07-10T19:24:14.000Z</Time>
            <Position>
              <LatitudeDegrees>43.3134197629988193511962890625</LatitudeDegrees>
              <LongitudeDegrees>-2.4594235606491565704345703125</LongitudeDegrees>
            </Position>
            <AltitudeMeters>94.40000152587890625</AltitudeMeters>
            <DistanceMeters>NAN</DistanceMeters>
          </Trackpoint>
          <Trackpoint>
            <Time>2022-07-10T19:24:15.000Z</Time>
            <Position>
              <LatitudeDegrees>43.31345337443053722381591796875</LatitudeDegrees>
              <LongitudeDegrees>-2.4594989977777004241943359375</LongitudeDegrees>
            </Position>
            <AltitudeMeters>94.1999969482421875</AltitudeMeters>
            <DistanceMeters>NAN</DistanceMeters>
          </Trackpoint>
          <Trackpoint>
            <Time>2022-07-10T19:24:17.000Z</Time>
            <Position>
              <LatitudeDegrees>43.31351590342819690704345703125</LatitudeDegrees>
              <LongitudeDegrees>-2.459651716053485870361328125</LongitudeDegrees>
            </Position>
            <AltitudeMeters>93</AltitudeMeters>
            <DistanceMeters>NAN</DistanceMeters>
          </Trackpoint>
          <Trackpoint>
            <Time>2022-07-10T19:24:19.000Z</Time>
            <Position>
              <LatitudeDegrees>43.31356736831367015838623046875</LatitudeDegrees>
              <LongitudeDegrees>-2.45978674851357936859130859375</LongitudeDegrees>
            </Position>
            <AltitudeMeters>91.8000030517578125</AltitudeMeters>
            <DistanceMeters>NAN</DistanceMeters>
          </Trackpoint>
          <Trackpoint>
            <Time>2022-07-10T19:24:20.000Z</Time>
            <Position>
              <LatitudeDegrees>43.313603661954402923583984375</LatitudeDegrees>
              <LongitudeDegrees>-2.459885738790035247802734375</LongitudeDegrees>
            </Position>
            <AltitudeMeters>91.40000152587890625</AltitudeMeters>
            <DistanceMeters>NAN</DistanceMeters>
          </Trackpoint>
          <Trackpoint>
            <Time>2022-07-10T19:24:24.000Z</Time>
            <Position>
              <LatitudeDegrees>43.3137174881994724273681640625</LatitudeDegrees>
              <LongitudeDegrees>-2.46021690778434276580810546875</LongitudeDegrees>
            </Position>
            <AltitudeMeters>90.1999969482421875</AltitudeMeters>
            <DistanceMeters>NAN</DistanceMeters>
          </Trackpoint>
          <Trackpoint>
            <Time>2022-07-10T19:24:27.000Z</Time>
            <Position>
              <LatitudeDegrees>43.31378714181482791900634765625</LatitudeDegrees>
              <LongitudeDegrees>-2.4605034850537776947021484375</LongitudeDegrees>
            </Position>
            <AltitudeMeters>88.59999847412109375</AltitudeMeters>
            <DistanceMeters>NAN</DistanceMeters>
          </Trackpoint>
          <Trackpoint>
            <Time>2022-07-10T19:24:28.000Z</Time>
            <Position>
              <LatitudeDegrees>43.31379015929996967315673828125</LatitudeDegrees>
              <LongitudeDegrees>-2.46058085002005100250244140625</LongitudeDegrees>
            </Position>
            <AltitudeMeters>88</AltitudeMeters>
            <DistanceMeters>NAN</DistanceMeters>
          </Trackpoint>
          <Trackpoint>
            <Time>2022-07-10T19:24:29.000Z</Time>
            <Position>
              <LatitudeDegrees>43.3137882314622402191162109375</LatitudeDegrees>
              <LongitudeDegrees>-2.460679002106189727783203125</LongitudeDegrees>
            </Position>
            <AltitudeMeters>87.59999847412109375</AltitudeMeters>
            <DistanceMeters>NAN</DistanceMeters>
          </Trackpoint>
          <Trackpoint>
            <Time>2022-07-10T19:24:31.000Z</Time>
            <Position>
              <LatitudeDegrees>43.31376702524721622467041015625</LatitudeDegrees>
              <LongitudeDegrees>-2.4609011225402355194091796875</LongitudeDegrees>
            </Position>
            <AltitudeMeters>86.59999847412109375</AltitudeMeters>
            <DistanceMeters>NAN</DistanceMeters>
          </Trackpoint>
          <Trackpoint>
            <Time>2022-07-10T19:24:32.000Z</Time>
            <Position>
              <LatitudeDegrees>43.31375109963119029998779296875</LatitudeDegrees>
              <LongitudeDegrees>-2.46099977754056453704833984375</LongitudeDegrees>
            </Position>
            <AltitudeMeters>86</AltitudeMeters>
            <DistanceMeters>NAN</DistanceMeters>
          </Trackpoint>
          <Trackpoint>
            <Time>2022-07-10T19:24:33.000Z</Time>
            <Position>
              <LatitudeDegrees>43.31373701803386211395263671875</LatitudeDegrees>
              <LongitudeDegrees>-2.46107622049748897552490234375</LongitudeDegrees>
            </Position>
            <AltitudeMeters>85.40000152587890625</AltitudeMeters>
            <DistanceMeters>NAN</DistanceMeters>
          </Trackpoint>
          <Trackpoint>
            <Time>2022-07-10T19:24:34.000Z</Time>
            <Position>
              <LatitudeDegrees>43.31371706910431385040283203125</LatitudeDegrees>
              <LongitudeDegrees>-2.4611716903746128082275390625</LongitudeDegrees>
            </Position>
            <AltitudeMeters>85</AltitudeMeters>
            <DistanceMeters>NAN</DistanceMeters>
          </Trackpoint>
          <Trackpoint>
            <Time>2022-07-10T19:24:35.000Z</Time>
            <Position>
              <LatitudeDegrees>43.3136876486241817474365234375</LatitudeDegrees>
              <LongitudeDegrees>-2.461262047290802001953125</LongitudeDegrees>
            </Position>
            <AltitudeMeters>84.59999847412109375</AltitudeMeters>
            <DistanceMeters>NAN</DistanceMeters>
          </Trackpoint>
          <Trackpoint>
            <Time>2022-07-10T19:24:36.000Z</Time>
            <Position>
              <LatitudeDegrees>43.31364632584154605865478515625</LatitudeDegrees>
              <LongitudeDegrees>-2.46136539615690708160400390625</LongitudeDegrees>
            </Position>
            <AltitudeMeters>84.1999969482421875</AltitudeMeters>
            <DistanceMeters>NAN</DistanceMeters>
          </Trackpoint>
          <Trackpoint>
            <Time>2022-07-10T19:24:37.000Z</Time>
            <Position>
              <LatitudeDegrees>43.31360676325857639312744140625</LatitudeDegrees>
              <LongitudeDegrees>-2.4614482931792736053466796875</LongitudeDegrees>
            </Position>
            <AltitudeMeters>83.59999847412109375</AltitudeMeters>
            <DistanceMeters>NAN</DistanceMeters>
          </Trackpoint>
          <Trackpoint>
            <Time>2022-07-10T19:24:38.000Z</Time>
            <Position>
              <LatitudeDegrees>43.31357114017009735107421875</LatitudeDegrees>
              <LongitudeDegrees>-2.46151191182434558868408203125</LongitudeDegrees>
            </Position>
            <AltitudeMeters>83.1999969482421875</AltitudeMeters>
            <DistanceMeters>NAN</DistanceMeters>
          </Trackpoint>
          <Trackpoint>
            <Time>2022-07-10T19:24:39.000Z</Time>
            <Position>
              <LatitudeDegrees>43.31352545879781246185302734375</LatitudeDegrees>
              <LongitudeDegrees>-2.46159070171415805816650390625</LongitudeDegrees>
            </Position>
            <AltitudeMeters>82.8000030517578125</AltitudeMeters>
            <DistanceMeters>NAN</DistanceMeters>
          </Trackpoint>
          <Trackpoint>
            <Time>2022-07-10T19:24:40.000Z</Time>
            <Position>
              <LatitudeDegrees>43.31347885541617870330810546875</LatitudeDegrees>
              <LongitudeDegrees>-2.46166907250881195068359375</LongitudeDegrees>
            </Position>
            <AltitudeMeters>82.40000152587890625</AltitudeMeters>
            <DistanceMeters>NAN</DistanceMeters>
          </Trackpoint>
          <Trackpoint>
            <Time>2022-07-10T19:24:43.000Z</Time>
            <Position>
              <LatitudeDegrees>43.31332840025424957275390625</LatitudeDegrees>
              <LongitudeDegrees>-2.4618861638009548187255859375</LongitudeDegrees>
            </Position>
            <AltitudeMeters>81.1999969482421875</AltitudeMeters>
            <DistanceMeters>NAN</DistanceMeters>
          </Trackpoint>
          <Trackpoint>
            <Time>2022-07-10T19:24:44.000Z</Time>
            <Position>
              <LatitudeDegrees>43.31327701918780803680419921875</LatitudeDegrees>
              <LongitudeDegrees>-2.461960427463054656982421875</LongitudeDegrees>
            </Position>
            <AltitudeMeters>80.59999847412109375</AltitudeMeters>
            <DistanceMeters>NAN</DistanceMeters>
          </Trackpoint>
          <Trackpoint>
            <Time>2022-07-10T19:24:45.000Z</Time>
            <Position>
              <LatitudeDegrees>43.31321080215275287628173828125</LatitudeDegrees>
              <LongitudeDegrees>-2.462044246494770050048828125</LongitudeDegrees>
            </Position>
            <AltitudeMeters>80</AltitudeMeters>
            <DistanceMeters>NAN</DistanceMeters>
          </Trackpoint>
          <Trackpoint>
            <Time>2022-07-10T19:24:49.000Z</Time>
            <Position>
              <LatitudeDegrees>43.312995135784149169921875</LatitudeDegrees>
              <LongitudeDegrees>-2.4623096175491809844970703125</LongitudeDegrees>
            </Position>
            <AltitudeMeters>78.8000030517578125</AltitudeMeters>
            <DistanceMeters>NAN</DistanceMeters>
          </Trackpoint>
          <Trackpoint>
            <Time>2022-07-10T19:24:52.000Z</Time>
            <Position>
              <LatitudeDegrees>43.31283219158649444580078125</LatitudeDegrees>
              <LongitudeDegrees>-2.46252628974616527557373046875</LongitudeDegrees>
            </Position>
            <AltitudeMeters>78</AltitudeMeters>
            <DistanceMeters>NAN</DistanceMeters>
          </Trackpoint>
          <Trackpoint>
            <Time>2022-07-10T19:24:53.000Z</Time>
            <Position>
              <LatitudeDegrees>43.31277645193040370941162109375</LatitudeDegrees>
              <LongitudeDegrees>-2.462597452104091644287109375</LongitudeDegrees>
            </Position>
            <AltitudeMeters>77.59999847412109375</AltitudeMeters>
            <DistanceMeters>NAN</DistanceMeters>
          </Trackpoint>
          <Trackpoint>
            <Time>2022-07-10T19:24:59.000Z</Time>
            <Position>
              <LatitudeDegrees>43.3124524913728237152099609375</LatitudeDegrees>
              <LongitudeDegrees>-2.46298796497285366058349609375</LongitudeDegrees>
            </Position>
            <AltitudeMeters>76.59999847412109375</AltitudeMeters>
            <DistanceMeters>NAN</DistanceMeters>
          </Trackpoint>
          <Trackpoint>
            <Time>2022-07-10T19:25:01.000Z</Time>
            <Position>
              <LatitudeDegrees>43.3123532496392726898193359375</LatitudeDegrees>
              <LongitudeDegrees>-2.4631099216639995574951171875</LongitudeDegrees>
            </Position>
            <AltitudeMeters>76.40000152587890625</AltitudeMeters>
            <DistanceMeters>NAN</DistanceMeters>
          </Trackpoint>
          <Trackpoint>
            <Time>2022-07-10T19:25:08.000Z</Time>
            <Position>
              <LatitudeDegrees>43.3120481483638286590576171875</LatitudeDegrees>
              <LongitudeDegrees>-2.4634800665080547332763671875</LongitudeDegrees>
            </Position>
            <AltitudeMeters>76.1999969482421875</AltitudeMeters>
            <DistanceMeters>NAN</DistanceMeters>
          </Trackpoint>
          <Trackpoint>
            <Time>2022-07-10T19:25:12.000Z</Time>
            <Position>
              <LatitudeDegrees>43.31189182586967945098876953125</LatitudeDegrees>
              <LongitudeDegrees>-2.46367360465228557586669921875</LongitudeDegrees>
            </Position>
            <AltitudeMeters>76</AltitudeMeters>
            <DistanceMeters>NAN</DistanceMeters>
          </Trackpoint>
          <Trackpoint>
            <Time>2022-07-10T19:25:15.000Z</Time>
            <Position>
              <LatitudeDegrees>43.3117936737835407257080078125</LatitudeDegrees>
              <LongitudeDegrees>-2.46377971954643726348876953125</LongitudeDegrees>
            </Position>
            <AltitudeMeters>76</AltitudeMeters>
            <DistanceMeters>NAN</DistanceMeters>
          </Trackpoint>
          <Trackpoint>
            <Time>2022-07-10T19:25:20.000Z</Time>
            <Position>
              <LatitudeDegrees>43.311659395694732666015625</LatitudeDegrees>
              <LongitudeDegrees>-2.463955990970134735107421875</LongitudeDegrees>
            </Position>
            <AltitudeMeters>75.8000030517578125</AltitudeMeters>
            <DistanceMeters>NAN</DistanceMeters>
          </Trackpoint>
          <Trackpoint>
            <Time>2022-07-10T19:25:21.000Z</Time>
            <Position>
              <LatitudeDegrees>43.3116364292800426483154296875</LatitudeDegrees>
              <LongitudeDegrees>-2.46398826129734516143798828125</LongitudeDegrees>
            </Position>
            <AltitudeMeters>75.8000030517578125</AltitudeMeters>
            <DistanceMeters>NAN</DistanceMeters>
          </Trackpoint>
          <Trackpoint>
            <Time>2022-07-10T19:25:26.000Z</Time>
            <Position>
              <LatitudeDegrees>43.3115254528820514678955078125</LatitudeDegrees>
              <LongitudeDegrees>-2.4641227908432483673095703125</LongitudeDegrees>
            </Position>
            <AltitudeMeters>75.8000030517578125</AltitudeMeters>
            <DistanceMeters>NAN</DistanceMeters>
          </Trackpoint>
          <Trackpoint>
            <Time>2022-07-10T19:25:30.000Z</Time>
            <Position>
              <LatitudeDegrees>43.31144942902028560638427734375</LatitudeDegrees>
              <LongitudeDegrees>-2.4642394669353961944580078125</LongitudeDegrees>
            </Position>
            <AltitudeMeters>76</AltitudeMeters>
            <DistanceMeters>NAN</DistanceMeters>
          </Trackpoint>
          <Trackpoint>
            <Time>2022-07-10T19:25:32.000Z</Time>
            <Position>
              <LatitudeDegrees>43.31140793859958648681640625</LatitudeDegrees>
              <LongitudeDegrees>-2.464293949306011199951171875</LongitudeDegrees>
            </Position>
            <AltitudeMeters>76</AltitudeMeters>
            <DistanceMeters>NAN</DistanceMeters>
          </Trackpoint>
          <Trackpoint>
            <Time>2022-07-10T19:25:34.000Z</Time>
            <Position>
              <LatitudeDegrees>43.31137265078723430633544921875</LatitudeDegrees>
              <LongitudeDegrees>-2.464331500232219696044921875</LongitudeDegrees>
            </Position>
            <AltitudeMeters>76.1999969482421875</AltitudeMeters>
            <DistanceMeters>NAN</DistanceMeters>
          </Trackpoint>
          <Trackpoint>
            <Time>2022-07-10T19:25:36.000Z</Time>
            <Position>
              <LatitudeDegrees>43.31132956780493259429931640625</LatitudeDegrees>
              <LongitudeDegrees>-2.4643725715577602386474609375</LongitudeDegrees>
            </Position>
            <AltitudeMeters>76.1999969482421875</AltitudeMeters>
            <DistanceMeters>NAN</DistanceMeters>
          </Trackpoint>
          <Trackpoint>
            <Time>2022-07-10T19:25:38.000Z</Time>
            <Position>
              <LatitudeDegrees>43.3112900890409946441650390625</LatitudeDegrees>
              <LongitudeDegrees>-2.464414648711681365966796875</LongitudeDegrees>
            </Position>
            <AltitudeMeters>76.40000152587890625</AltitudeMeters>
            <DistanceMeters>NAN</DistanceMeters>
          </Trackpoint>
          <Trackpoint>
            <Time>2022-07-10T19:25:39.000Z</Time>
            <Position>
              <LatitudeDegrees>43.31127659417688846588134765625</LatitudeDegrees>
              <LongitudeDegrees>-2.46443602256476879119873046875</LongitudeDegrees>
            </Position>
            <AltitudeMeters>76.40000152587890625</AltitudeMeters>
            <DistanceMeters>NAN</DistanceMeters>
          </Trackpoint>
          <Trackpoint>
            <Time>2022-07-10T19:25:42.000Z</Time>
            <Position>
              <LatitudeDegrees>43.31122647039592266082763671875</LatitudeDegrees>
              <LongitudeDegrees>-2.46451623737812042236328125</LongitudeDegrees>
            </Position>
            <AltitudeMeters>76.40000152587890625</AltitudeMeters>
            <DistanceMeters>NAN</DistanceMeters>
          </Trackpoint>
          <Trackpoint>
            <Time>2022-07-10T19:25:46.000Z</Time>
            <Position>
              <LatitudeDegrees>43.31118104048073291778564453125</LatitudeDegrees>
              <LongitudeDegrees>-2.46463065035641193389892578125</LongitudeDegrees>
            </Position>
            <AltitudeMeters>76.40000152587890625</AltitudeMeters>
            <DistanceMeters>NAN</DistanceMeters>
          </Trackpoint>
          <Trackpoint>
            <Time>2022-07-10T19:25:48.000Z</Time>
            <Position>
              <LatitudeDegrees>43.31119042821228504180908203125</LatitudeDegrees>
              <LongitudeDegrees>-2.46467725373804569244384765625</LongitudeDegrees>
            </Position>
            <AltitudeMeters>76.59999847412109375</AltitudeMeters>
            <DistanceMeters>NAN</DistanceMeters>
          </Trackpoint>
          <Trackpoint>
            <Time>2022-07-10T19:25:50.000Z</Time>
            <Position>
              <LatitudeDegrees>43.31121691502630710601806640625</LatitudeDegrees>
              <LongitudeDegrees>-2.46472201310098171234130859375</LongitudeDegrees>
            </Position>
            <AltitudeMeters>76.8000030517578125</AltitudeMeters>
            <DistanceMeters>NAN</DistanceMeters>
          </Trackpoint>
          <Trackpoint>
            <Time>2022-07-10T19:25:59.000Z</Time>
            <Position>
              <LatitudeDegrees>43.31140567548573017120361328125</LatitudeDegrees>
              <LongitudeDegrees>-2.4649422056972980499267578125</LongitudeDegrees>
            </Position>
            <AltitudeMeters>76.8000030517578125</AltitudeMeters>
            <DistanceMeters>NAN</DistanceMeters>
          </Trackpoint>
          <Trackpoint>
            <Time>2022-07-10T19:26:02.000Z</Time>
            <Position>
              <LatitudeDegrees>43.31147625111043453216552734375</LatitudeDegrees>
              <LongitudeDegrees>-2.46501890011131763458251953125</LongitudeDegrees>
            </Position>
            <AltitudeMeters>76.8000030517578125</AltitudeMeters>
            <DistanceMeters>NAN</DistanceMeters>
          </Trackpoint>
          <Trackpoint>
            <Time>2022-07-10T19:26:09.000Z</Time>
            <Position>
              <LatitudeDegrees>43.3116153068840503692626953125</LatitudeDegrees>
              <LongitudeDegrees>-2.46517413295805454254150390625</LongitudeDegrees>
            </Position>
            <AltitudeMeters>77.1999969482421875</AltitudeMeters>
            <DistanceMeters>NAN</DistanceMeters>
          </Trackpoint>
          <Trackpoint>
            <Time>2022-07-10T19:26:12.000Z</Time>
            <Position>
              <LatitudeDegrees>43.31166677176952362060546875</LatitudeDegrees>
              <LongitudeDegrees>-2.46523515321314334869384765625</LongitudeDegrees>
            </Position>
            <AltitudeMeters>77.1999969482421875</AltitudeMeters>
            <DistanceMeters>NAN</DistanceMeters>
          </Trackpoint>
          <Trackpoint>
            <Time>2022-07-10T19:26:15.000Z</Time>
            <Position>
              <LatitudeDegrees>43.3117132075130939483642578125</LatitudeDegrees>
              <LongitudeDegrees>-2.4652878753840923309326171875</LongitudeDegrees>
            </Position>
            <AltitudeMeters>77.40000152587890625</AltitudeMeters>
            <DistanceMeters>NAN</DistanceMeters>
          </Trackpoint>
          <Trackpoint>
            <Time>2022-07-10T19:26:17.000Z</Time>
            <Position>
              <LatitudeDegrees>43.3117440529167652130126953125</LatitudeDegrees>
              <LongitudeDegrees>-2.465317882597446441650390625</LongitudeDegrees>
            </Position>
            <AltitudeMeters>77.59999847412109375</AltitudeMeters>
            <DistanceMeters>NAN</DistanceMeters>
          </Trackpoint>
          <Trackpoint>
            <Time>2022-07-10T19:26:19.000Z</Time>
            <Position>
              <LatitudeDegrees>43.31177406013011932373046875</LatitudeDegrees>
              <LongitudeDegrees>-2.46535266749560832977294921875</LongitudeDegrees>
            </Position>
            <AltitudeMeters>77.8000030517578125</AltitudeMeters>
            <DistanceMeters>NAN</DistanceMeters>
          </Trackpoint>
          <Trackpoint>
            <Time>2022-07-10T19:26:24.000Z</Time>
            <Position>
              <LatitudeDegrees>43.31185393966734409332275390625</LatitudeDegrees>
              <LongitudeDegrees>-2.4654538370668888092041015625</LongitudeDegrees>
            </Position>
            <AltitudeMeters>78.1999969482421875</AltitudeMeters>
            <DistanceMeters>NAN</DistanceMeters>
          </Trackpoint>
          <Trackpoint>
            <Time>2022-07-10T19:26:28.000Z</Time>
            <Position>
              <LatitudeDegrees>43.3119126968085765838623046875</LatitudeDegrees>
              <LongitudeDegrees>-2.4655175395309925079345703125</LongitudeDegrees>
            </Position>
            <AltitudeMeters>78.59999847412109375</AltitudeMeters>
            <DistanceMeters>NAN</DistanceMeters>
          </Trackpoint>
          <Trackpoint>
            <Time>2022-07-10T19:26:29.000Z</Time>
            <Position>
              <LatitudeDegrees>43.31192786805331707000732421875</LatitudeDegrees>
              <LongitudeDegrees>-2.46551661752164363861083984375</LongitudeDegrees>
            </Position>
            <AltitudeMeters>78.59999847412109375</AltitudeMeters>
            <DistanceMeters>NAN</DistanceMeters>
          </Trackpoint>
          <Trackpoint>
            <Time>2022-07-10T19:26:31.000Z</Time>
            <Position>
              <LatitudeDegrees>43.31195636652410030364990234375</LatitudeDegrees>
              <LongitudeDegrees>-2.46548795141279697418212890625</LongitudeDegrees>
            </Position>
            <AltitudeMeters>79</AltitudeMeters>
            <DistanceMeters>NAN</DistanceMeters>
          </Trackpoint>
          <Trackpoint>
            <Time>2022-07-10T19:26:32.000Z</Time>
            <Position>
              <LatitudeDegrees>43.3119696937501430511474609375</LatitudeDegrees>
              <LongitudeDegrees>-2.465470097959041595458984375</LongitudeDegrees>
            </Position>
            <AltitudeMeters>79</AltitudeMeters>
            <DistanceMeters>NAN</DistanceMeters>
          </Trackpoint>
          <Trackpoint>
            <Time>2022-07-10T19:26:34.000Z</Time>
            <Position>
              <LatitudeDegrees>43.31199626438319683074951171875</LatitudeDegrees>
              <LongitudeDegrees>-2.46542206965386867523193359375</LongitudeDegrees>
            </Position>
            <AltitudeMeters>79.1999969482421875</AltitudeMeters>
            <DistanceMeters>NAN</DistanceMeters>
          </Trackpoint>
          <Trackpoint>
            <Time>2022-07-10T19:26:39.000Z</Time>
            <Position>
              <LatitudeDegrees>43.3120565302670001983642578125</LatitudeDegrees>
              <LongitudeDegrees>-2.4653108417987823486328125</LongitudeDegrees>
            </Position>
            <AltitudeMeters>79.1999969482421875</AltitudeMeters>
            <DistanceMeters>NAN</DistanceMeters>
          </Trackpoint>
          <Trackpoint>
            <Time>2022-07-10T19:26:44.000Z</Time>
            <Position>
              <LatitudeDegrees>43.31211629323661327362060546875</LatitudeDegrees>
              <LongitudeDegrees>-2.46521604247391223907470703125</LongitudeDegrees>
            </Position>
            <AltitudeMeters>79.40000152587890625</AltitudeMeters>
            <DistanceMeters>NAN</DistanceMeters>
          </Trackpoint>
          <Trackpoint>
            <Time>2022-07-10T19:26:48.000Z</Time>
            <Position>
              <LatitudeDegrees>43.31216440536081790924072265625</LatitudeDegrees>
              <LongitudeDegrees>-2.4651499092578887939453125</LongitudeDegrees>
            </Position>
            <AltitudeMeters>79.40000152587890625</AltitudeMeters>
            <DistanceMeters>NAN</DistanceMeters>
          </Trackpoint>
          <Trackpoint>
            <Time>2022-07-10T19:26:51.000Z</Time>
            <Position>
              <LatitudeDegrees>43.3121678419411182403564453125</LatitudeDegrees>
              <LongitudeDegrees>-2.4651443772017955780029296875</LongitudeDegrees>
            </Position>
            <AltitudeMeters>79.59999847412109375</AltitudeMeters>
            <DistanceMeters>NAN</DistanceMeters>
          </Trackpoint>
          <Trackpoint>
            <Time>2022-07-10T19:27:13.000Z</Time>
            <Position>
              <LatitudeDegrees>43.312208242714405059814453125</LatitudeDegrees>
              <LongitudeDegrees>-2.46507472358644008636474609375</LongitudeDegrees>
            </Position>
            <AltitudeMeters>79.59999847412109375</AltitudeMeters>
            <DistanceMeters>NAN</DistanceMeters>
          </Trackpoint>
          <Trackpoint>
            <Time>2022-07-10T19:27:14.000Z</Time>
            <Position>
              <LatitudeDegrees>43.31222156994044780731201171875</LatitudeDegrees>
              <LongitudeDegrees>-2.46505402028560638427734375</LongitudeDegrees>
            </Position>
            <AltitudeMeters>79.59999847412109375</AltitudeMeters>
            <DistanceMeters>NAN</DistanceMeters>
          </Trackpoint>
          <Trackpoint>
            <Time>2022-07-10T19:27:19.000Z</Time>
            <Position>
              <LatitudeDegrees>43.31225685775279998779296875</LatitudeDegrees>
              <LongitudeDegrees>-2.464989311993122100830078125</LongitudeDegrees>
            </Position>
            <AltitudeMeters>79.40000152587890625</AltitudeMeters>
            <DistanceMeters>NAN</DistanceMeters>
          </Trackpoint>
          <Trackpoint>
            <Time>2022-07-10T19:30:51.000Z</Time>
            <Position>
              <LatitudeDegrees>43.3121328055858612060546875</LatitudeDegrees>
              <LongitudeDegrees>-2.46504773385822772979736328125</LongitudeDegrees>
            </Position>
            <AltitudeMeters>78</AltitudeMeters>
            <DistanceMeters>NAN</DistanceMeters>
          </Trackpoint>
          <Trackpoint>
            <Time>2022-07-10T19:30:52.000Z</Time>
            <Position>
              <LatitudeDegrees>43.31214009784162044525146484375</LatitudeDegrees>
              <LongitudeDegrees>-2.4650568701326847076416015625</LongitudeDegrees>
            </Position>
            <AltitudeMeters>78</AltitudeMeters>
            <DistanceMeters>NAN</DistanceMeters>
          </Trackpoint>
          <Trackpoint>
            <Time>2022-07-10T19:30:54.000Z</Time>
            <Position>
              <LatitudeDegrees>43.31214713864028453826904296875</LatitudeDegrees>
              <LongitudeDegrees>-2.46507547795772552490234375</LongitudeDegrees>
            </Position>
            <AltitudeMeters>78</AltitudeMeters>
            <DistanceMeters>NAN</DistanceMeters>
          </Trackpoint>
          <Trackpoint>
            <Time>2022-07-10T19:31:02.000Z</Time>
            <Position>
              <LatitudeDegrees>43.312121070921421051025390625</LatitudeDegrees>
              <LongitudeDegrees>-2.465120069682598114013671875</LongitudeDegrees>
            </Position>
            <AltitudeMeters>78.1999969482421875</AltitudeMeters>
            <DistanceMeters>NAN</DistanceMeters>
          </Trackpoint>
          <Trackpoint>
            <Time>2022-07-10T19:31:07.000Z</Time>
            <Position>
              <LatitudeDegrees>43.31211377866566181182861328125</LatitudeDegrees>
              <LongitudeDegrees>-2.4651443772017955780029296875</LongitudeDegrees>
            </Position>
            <AltitudeMeters>78.1999969482421875</AltitudeMeters>
            <DistanceMeters>NAN</DistanceMeters>
          </Trackpoint>
          <Trackpoint>
            <Time>2022-07-10T19:34:47.000Z</Time>
            <Position>
              <LatitudeDegrees>43.3121993578970432281494140625</LatitudeDegrees>
              <LongitudeDegrees>-2.46508754789829254150390625</LongitudeDegrees>
            </Position>
            <AltitudeMeters>77.59999847412109375</AltitudeMeters>
            <DistanceMeters>NAN</DistanceMeters>
          </Trackpoint>
          <Trackpoint>
            <Time>2022-07-10T19:34:48.000Z</Time>
            <Position>
              <LatitudeDegrees>43.31218737177550792694091796875</LatitudeDegrees>
              <LongitudeDegrees>-2.4651074968278408050537109375</LongitudeDegrees>
            </Position>
            <AltitudeMeters>77.59999847412109375</AltitudeMeters>
            <DistanceMeters>NAN</DistanceMeters>
          </Trackpoint>
          <Trackpoint>
            <Time>2022-07-10T19:34:53.000Z</Time>
            <Position>
              <LatitudeDegrees>43.312128446996212005615234375</LatitudeDegrees>
              <LongitudeDegrees>-2.465215958654880523681640625</LongitudeDegrees>
            </Position>
            <AltitudeMeters>78.40000152587890625</AltitudeMeters>
            <DistanceMeters>NAN</DistanceMeters>
          </Trackpoint>
          <Trackpoint>
            <Time>2022-07-10T19:34:56.000Z</Time>
            <Position>
              <LatitudeDegrees>43.312092237174510955810546875</LatitudeDegrees>
              <LongitudeDegrees>-2.46527798473834991455078125</LongitudeDegrees>
            </Position>
            <AltitudeMeters>78.40000152587890625</AltitudeMeters>
            <DistanceMeters>NAN</DistanceMeters>
          </Trackpoint>
          <Trackpoint>
            <Time>2022-07-10T19:35:02.000Z</Time>
            <Position>
              <LatitudeDegrees>43.3120367489755153656005859375</LatitudeDegrees>
              <LongitudeDegrees>-2.4654011987149715423583984375</LongitudeDegrees>
            </Position>
            <AltitudeMeters>78.59999847412109375</AltitudeMeters>
            <DistanceMeters>NAN</DistanceMeters>
          </Trackpoint>
          <Trackpoint>
            <Time>2022-07-10T19:35:04.000Z</Time>
            <Position>
              <LatitudeDegrees>43.3120089210569858551025390625</LatitudeDegrees>
              <LongitudeDegrees>-2.46544771827757358551025390625</LongitudeDegrees>
            </Position>
            <AltitudeMeters>78.40000152587890625</AltitudeMeters>
            <DistanceMeters>NAN</DistanceMeters>
          </Trackpoint>
          <Trackpoint>
            <Time>2022-07-10T19:35:10.000Z</Time>
            <Position>
              <LatitudeDegrees>43.311968855559825897216796875</LatitudeDegrees>
              <LongitudeDegrees>-2.465641088783740997314453125</LongitudeDegrees>
            </Position>
            <AltitudeMeters>78.40000152587890625</AltitudeMeters>
            <DistanceMeters>NAN</DistanceMeters>
          </Trackpoint>
          <Trackpoint>
            <Time>2022-07-10T19:35:16.000Z</Time>
            <Position>
              <LatitudeDegrees>43.31202593632042407989501953125</LatitudeDegrees>
              <LongitudeDegrees>-2.465776540338993072509765625</LongitudeDegrees>
            </Position>
            <AltitudeMeters>79</AltitudeMeters>
            <DistanceMeters>NAN</DistanceMeters>
          </Trackpoint>
          <Trackpoint>
            <Time>2022-07-10T19:35:22.000Z</Time>
            <Position>
              <LatitudeDegrees>43.3121141977608203887939453125</LatitudeDegrees>
              <LongitudeDegrees>-2.46587938629090785980224609375</LongitudeDegrees>
            </Position>
            <AltitudeMeters>79.40000152587890625</AltitudeMeters>
            <DistanceMeters>NAN</DistanceMeters>
          </Trackpoint>
          <Trackpoint>
            <Time>2022-07-10T19:35:25.000Z</Time>
            <Position>
              <LatitudeDegrees>43.31216490827500820159912109375</LatitudeDegrees>
              <LongitudeDegrees>-2.46591475792229175567626953125</LongitudeDegrees>
            </Position>
            <AltitudeMeters>79.8000030517578125</AltitudeMeters>
            <DistanceMeters>NAN</DistanceMeters>
          </Trackpoint>
          <Trackpoint>
            <Time>2022-07-10T19:35:28.000Z</Time>
            <Position>
              <LatitudeDegrees>43.31221100874245166778564453125</LatitudeDegrees>
              <LongitudeDegrees>-2.46594049036502838134765625</LongitudeDegrees>
            </Position>
            <AltitudeMeters>80</AltitudeMeters>
            <DistanceMeters>NAN</DistanceMeters>
          </Trackpoint>
          <Trackpoint>
            <Time>2022-07-10T19:35:33.000Z</Time>
            <Position>
              <LatitudeDegrees>43.312292397022247314453125</LatitudeDegrees>
              <LongitudeDegrees>-2.46595700271427631378173828125</LongitudeDegrees>
            </Position>
            <AltitudeMeters>80.40000152587890625</AltitudeMeters>
            <DistanceMeters>NAN</DistanceMeters>
          </Trackpoint>
          <Trackpoint>
            <Time>2022-07-10T19:35:39.000Z</Time>
            <Position>
              <LatitudeDegrees>43.3123924769461154937744140625</LatitudeDegrees>
              <LongitudeDegrees>-2.465973012149333953857421875</LongitudeDegrees>
            </Position>
            <AltitudeMeters>81.1999969482421875</AltitudeMeters>
            <DistanceMeters>NAN</DistanceMeters>
          </Trackpoint>
          <Trackpoint>
            <Time>2022-07-10T19:35:42.000Z</Time>
            <Position>
              <LatitudeDegrees>43.31243614666163921356201171875</LatitudeDegrees>
              <LongitudeDegrees>-2.4659728445112705230712890625</LongitudeDegrees>
            </Position>
            <AltitudeMeters>81.59999847412109375</AltitudeMeters>
            <DistanceMeters>NAN</DistanceMeters>
          </Trackpoint>
          <Trackpoint>
            <Time>2022-07-10T19:35:48.000Z</Time>
            <Position>
              <LatitudeDegrees>43.31251041032373905181884765625</LatitudeDegrees>
              <LongitudeDegrees>-2.4659684859216213226318359375</LongitudeDegrees>
            </Position>
            <AltitudeMeters>82.1999969482421875</AltitudeMeters>
            <DistanceMeters>NAN</DistanceMeters>
          </Trackpoint>
          <Trackpoint>
            <Time>2022-07-10T19:35:52.000Z</Time>
            <Position>
              <LatitudeDegrees>43.31255634315311908721923828125</LatitudeDegrees>
              <LongitudeDegrees>-2.46597996912896633148193359375</LongitudeDegrees>
            </Position>
            <AltitudeMeters>82.59999847412109375</AltitudeMeters>
            <DistanceMeters>NAN</DistanceMeters>
          </Trackpoint>
          <Trackpoint>
            <Time>2022-07-10T19:35:56.000Z</Time>
            <Position>
              <LatitudeDegrees>43.312609232962131500244140625</LatitudeDegrees>
              <LongitudeDegrees>-2.46597259305417537689208984375</LongitudeDegrees>
            </Position>
            <AltitudeMeters>83</AltitudeMeters>
            <DistanceMeters>NAN</DistanceMeters>
          </Trackpoint>
          <Trackpoint>
            <Time>2022-07-10T19:35:58.000Z</Time>
            <Position>
              <LatitudeDegrees>43.31263714469969272613525390625</LatitudeDegrees>
              <LongitudeDegrees>-2.465976364910602569580078125</LongitudeDegrees>
            </Position>
            <AltitudeMeters>83.1999969482421875</AltitudeMeters>
            <DistanceMeters>NAN</DistanceMeters>
          </Trackpoint>
          <Trackpoint>
            <Time>2022-07-10T19:35:59.000Z</Time>
            <Position>
              <LatitudeDegrees>43.31265139393508434295654296875</LatitudeDegrees>
              <LongitudeDegrees>-2.4659758619964122772216796875</LongitudeDegrees>
            </Position>
            <AltitudeMeters>83.40000152587890625</AltitudeMeters>
            <DistanceMeters>NAN</DistanceMeters>
          </Trackpoint>
          <Trackpoint>
            <Time>2022-07-10T19:36:03.000Z</Time>
            <Position>
              <LatitudeDegrees>43.3127059601247310638427734375</LatitudeDegrees>
              <LongitudeDegrees>-2.46597896330058574676513671875</LongitudeDegrees>
            </Position>
            <AltitudeMeters>83.8000030517578125</AltitudeMeters>
            <DistanceMeters>NAN</DistanceMeters>
          </Trackpoint>
          <Trackpoint>
            <Time>2022-07-10T19:36:08.000Z</Time>
            <Position>
              <LatitudeDegrees>43.3127736859023571014404296875</LatitudeDegrees>
              <LongitudeDegrees>-2.46596194803714752197265625</LongitudeDegrees>
            </Position>
            <AltitudeMeters>84.40000152587890625</AltitudeMeters>
            <DistanceMeters>NAN</DistanceMeters>
          </Trackpoint>
          <Trackpoint>
            <Time>2022-07-10T19:36:09.000Z</Time>
            <Position>
              <LatitudeDegrees>43.3127860911190509796142578125</LatitudeDegrees>
              <LongitudeDegrees>-2.4659599363803863525390625</LongitudeDegrees>
            </Position>
            <AltitudeMeters>84.40000152587890625</AltitudeMeters>
            <DistanceMeters>NAN</DistanceMeters>
          </Trackpoint>
          <Trackpoint>
            <Time>2022-07-10T19:36:14.000Z</Time>
            <Position>
              <LatitudeDegrees>43.3128595165908336639404296875</LatitudeDegrees>
              <LongitudeDegrees>-2.46596689336001873016357421875</LongitudeDegrees>
            </Position>
            <AltitudeMeters>85</AltitudeMeters>
            <DistanceMeters>NAN</DistanceMeters>
          </Trackpoint>
          <Trackpoint>
            <Time>2022-07-10T19:36:16.000Z</Time>
            <Position>
              <LatitudeDegrees>43.31288843415677547454833984375</LatitudeDegrees>
              <LongitudeDegrees>-2.46597209013998508453369140625</LongitudeDegrees>
            </Position>
            <AltitudeMeters>85</AltitudeMeters>
            <DistanceMeters>NAN</DistanceMeters>
          </Trackpoint>
          <Trackpoint>
            <Time>2022-07-10T19:36:17.000Z</Time>
            <Position>
              <LatitudeDegrees>43.31289916299283504486083984375</LatitudeDegrees>
              <LongitudeDegrees>-2.465977706015110015869140625</LongitudeDegrees>
            </Position>
            <AltitudeMeters>85.1999969482421875</AltitudeMeters>
            <DistanceMeters>NAN</DistanceMeters>
          </Trackpoint>
          <Trackpoint>
            <Time>2022-07-10T19:36:19.000Z</Time>
            <Position>
              <LatitudeDegrees>43.31291609443724155426025390625</LatitudeDegrees>
              <LongitudeDegrees>-2.46599505655467510223388671875</LongitudeDegrees>
            </Position>
            <AltitudeMeters>85.1999969482421875</AltitudeMeters>
            <DistanceMeters>NAN</DistanceMeters>
          </Trackpoint>
          <Trackpoint>
            <Time>2022-07-10T19:36:20.000Z</Time>
            <Position>
              <LatitudeDegrees>43.3129245601594448089599609375</LatitudeDegrees>
              <LongitudeDegrees>-2.46600125916302204132080078125</LongitudeDegrees>
            </Position>
            <AltitudeMeters>85.40000152587890625</AltitudeMeters>
            <DistanceMeters>NAN</DistanceMeters>
          </Trackpoint>
          <Trackpoint>
            <Time>2022-07-10T19:36:21.000Z</Time>
            <Position>
              <LatitudeDegrees>43.31293545663356781005859375</LatitudeDegrees>
              <LongitudeDegrees>-2.4660040251910686492919921875</LongitudeDegrees>
            </Position>
            <AltitudeMeters>85.40000152587890625</AltitudeMeters>
            <DistanceMeters>NAN</DistanceMeters>
          </Trackpoint>
          <Trackpoint>
            <Time>2022-07-10T19:36:23.000Z</Time>
            <Position>
              <LatitudeDegrees>43.31295582465827465057373046875</LatitudeDegrees>
              <LongitudeDegrees>-2.46600561775267124176025390625</LongitudeDegrees>
            </Position>
            <AltitudeMeters>85.8000030517578125</AltitudeMeters>
            <DistanceMeters>NAN</DistanceMeters>
          </Trackpoint>
          <Trackpoint>
            <Time>2022-07-10T19:36:28.000Z</Time>
            <Position>
              <LatitudeDegrees>43.31303411163389682769775390625</LatitudeDegrees>
              <LongitudeDegrees>-2.46601559221744537353515625</LongitudeDegrees>
            </Position>
            <AltitudeMeters>86.1999969482421875</AltitudeMeters>
            <DistanceMeters>NAN</DistanceMeters>
          </Trackpoint>
          <Trackpoint>
            <Time>2022-07-10T19:36:31.000Z</Time>
            <Position>
              <LatitudeDegrees>43.31307065673172473907470703125</LatitudeDegrees>
              <LongitudeDegrees>-2.4660197831690311431884765625</LongitudeDegrees>
            </Position>
            <AltitudeMeters>86.40000152587890625</AltitudeMeters>
            <DistanceMeters>NAN</DistanceMeters>
          </Trackpoint>
          <Trackpoint>
            <Time>2022-07-10T19:36:32.000Z</Time>
            <Position>
              <LatitudeDegrees>43.31308574415743350982666015625</LatitudeDegrees>
              <LongitudeDegrees>-2.46602087281644344329833984375</LongitudeDegrees>
            </Position>
            <AltitudeMeters>86.59999847412109375</AltitudeMeters>
            <DistanceMeters>NAN</DistanceMeters>
          </Trackpoint>
          <Trackpoint>
            <Time>2022-07-10T19:36:36.000Z</Time>
            <Position>
              <LatitudeDegrees>43.313134275376796722412109375</LatitudeDegrees>
              <LongitudeDegrees>-2.4660452641546726226806640625</LongitudeDegrees>
            </Position>
            <AltitudeMeters>87</AltitudeMeters>
            <DistanceMeters>NAN</DistanceMeters>
          </Trackpoint>
          <Trackpoint>
            <Time>2022-07-10T19:36:37.000Z</Time>
            <Position>
              <LatitudeDegrees>43.3131413161754608154296875</LatitudeDegrees>
              <LongitudeDegrees>-2.466053478419780731201171875</LongitudeDegrees>
            </Position>
            <AltitudeMeters>87</AltitudeMeters>
            <DistanceMeters>NAN</DistanceMeters>
          </Trackpoint>
          <Trackpoint>
            <Time>2022-07-10T19:36:43.000Z</Time>
            <Position>
              <LatitudeDegrees>43.31317744217813014984130859375</LatitudeDegrees>
              <LongitudeDegrees>-2.4660913646221160888671875</LongitudeDegrees>
            </Position>
            <AltitudeMeters>87.1999969482421875</AltitudeMeters>
            <DistanceMeters>NAN</DistanceMeters>
          </Trackpoint>
          <Trackpoint>
            <Time>2022-07-10T19:37:45.000Z</Time>
            <Position>
              <LatitudeDegrees>43.31323728896677494049072265625</LatitudeDegrees>
              <LongitudeDegrees>-2.466003857553005218505859375</LongitudeDegrees>
            </Position>
            <AltitudeMeters>87.59999847412109375</AltitudeMeters>
            <DistanceMeters>NAN</DistanceMeters>
          </Trackpoint>
          <Trackpoint>
            <Time>2022-07-10T19:37:46.000Z</Time>
            <Position>
              <LatitudeDegrees>43.31325061619281768798828125</LatitudeDegrees>
              <LongitudeDegrees>-2.46599338017404079437255859375</LongitudeDegrees>
            </Position>
            <AltitudeMeters>87.59999847412109375</AltitudeMeters>
            <DistanceMeters>NAN</DistanceMeters>
          </Trackpoint>
          <Trackpoint>
            <Time>2022-07-10T19:37:53.000Z</Time>
            <Position>
              <LatitudeDegrees>43.3133624307811260223388671875</LatitudeDegrees>
              <LongitudeDegrees>-2.4658829905092716217041015625</LongitudeDegrees>
            </Position>
            <AltitudeMeters>88</AltitudeMeters>
            <DistanceMeters>NAN</DistanceMeters>
          </Trackpoint>
          <Trackpoint>
            <Time>2022-07-10T19:38:00.000Z</Time>
            <Position>
              <LatitudeDegrees>43.31342630088329315185546875</LatitudeDegrees>
              <LongitudeDegrees>-2.46568744070827960968017578125</LongitudeDegrees>
            </Position>
            <AltitudeMeters>88.1999969482421875</AltitudeMeters>
            <DistanceMeters>NAN</DistanceMeters>
          </Trackpoint>
          <Trackpoint>
            <Time>2022-07-10T19:38:10.000Z</Time>
            <Position>
              <LatitudeDegrees>43.313479609787464141845703125</LatitudeDegrees>
              <LongitudeDegrees>-2.46544855646789073944091796875</LongitudeDegrees>
            </Position>
            <AltitudeMeters>88.40000152587890625</AltitudeMeters>
            <DistanceMeters>NAN</DistanceMeters>
          </Trackpoint>
          <Trackpoint>
            <Time>2022-07-10T19:38:14.000Z</Time>
            <Position>
              <LatitudeDegrees>43.31349880434572696685791015625</LatitudeDegrees>
              <LongitudeDegrees>-2.4653965048491954803466796875</LongitudeDegrees>
            </Position>
            <AltitudeMeters>88.8000030517578125</AltitudeMeters>
            <DistanceMeters>NAN</DistanceMeters>
          </Trackpoint>
          <Trackpoint>
            <Time>2022-07-10T19:38:15.000Z</Time>
            <Position>
              <LatitudeDegrees>43.31350165419280529022216796875</LatitudeDegrees>
              <LongitudeDegrees>-2.46538585983216762542724609375</LongitudeDegrees>
            </Position>
            <AltitudeMeters>88.8000030517578125</AltitudeMeters>
            <DistanceMeters>NAN</DistanceMeters>
          </Trackpoint>
          <Trackpoint>
            <Time>2022-07-10T19:38:17.000Z</Time>
            <Position>
              <LatitudeDegrees>43.31350701861083507537841796875</LatitudeDegrees>
              <LongitudeDegrees>-2.4653626419603824615478515625</LongitudeDegrees>
            </Position>
            <AltitudeMeters>88.8000030517578125</AltitudeMeters>
            <DistanceMeters>NAN</DistanceMeters>
          </Trackpoint>
          <Trackpoint>
            <Time>2022-07-10T19:38:20.000Z</Time>
            <Position>
              <LatitudeDegrees>43.31352210603654384613037109375</LatitudeDegrees>
              <LongitudeDegrees>-2.4653215706348419189453125</LongitudeDegrees>
            </Position>
            <AltitudeMeters>88.8000030517578125</AltitudeMeters>
            <DistanceMeters>NAN</DistanceMeters>
          </Trackpoint>
          <Trackpoint>
            <Time>2022-07-10T19:38:22.000Z</Time>
            <Position>
              <LatitudeDegrees>43.31352512352168560028076171875</LatitudeDegrees>
              <LongitudeDegrees>-2.465288378298282623291015625</LongitudeDegrees>
            </Position>
            <AltitudeMeters>89</AltitudeMeters>
            <DistanceMeters>NAN</DistanceMeters>
          </Trackpoint>
          <Trackpoint>
            <Time>2022-07-10T19:38:28.000Z</Time>
            <Position>
              <LatitudeDegrees>43.3135461620986461639404296875</LatitudeDegrees>
              <LongitudeDegrees>-2.46512048877775669097900390625</LongitudeDegrees>
            </Position>
            <AltitudeMeters>88.8000030517578125</AltitudeMeters>
            <DistanceMeters>NAN</DistanceMeters>
          </Trackpoint>
          <Trackpoint>
            <Time>2022-07-10T19:38:36.000Z</Time>
            <Position>
              <LatitudeDegrees>43.313600979745388031005859375</LatitudeDegrees>
              <LongitudeDegrees>-2.46493524871766567230224609375</LongitudeDegrees>
            </Position>
            <AltitudeMeters>88.1999969482421875</AltitudeMeters>
            <DistanceMeters>NAN</DistanceMeters>
          </Trackpoint>
          <Trackpoint>
            <Time>2022-07-10T19:38:41.000Z</Time>
            <Position>
              <LatitudeDegrees>43.31359636969864368438720703125</LatitudeDegrees>
              <LongitudeDegrees>-2.46491320431232452392578125</LongitudeDegrees>
            </Position>
            <AltitudeMeters>88.1999969482421875</AltitudeMeters>
            <DistanceMeters>NAN</DistanceMeters>
          </Trackpoint>
          <Trackpoint>
            <Time>2022-07-10T19:38:45.000Z</Time>
            <Position>
              <LatitudeDegrees>43.313586227595806121826171875</LatitudeDegrees>
              <LongitudeDegrees>-2.46495637111365795135498046875</LongitudeDegrees>
            </Position>
            <AltitudeMeters>88.1999969482421875</AltitudeMeters>
            <DistanceMeters>NAN</DistanceMeters>
          </Trackpoint>
          <Trackpoint>
            <Time>2022-07-10T19:38:46.000Z</Time>
            <Position>
              <LatitudeDegrees>43.3135770075023174285888671875</LatitudeDegrees>
              <LongitudeDegrees>-2.4649757333099842071533203125</LongitudeDegrees>
            </Position>
            <AltitudeMeters>88.1999969482421875</AltitudeMeters>
            <DistanceMeters>NAN</DistanceMeters>
          </Trackpoint>
          <Trackpoint>
            <Time>2022-07-10T19:38:48.000Z</Time>
            <Position>
              <LatitudeDegrees>43.31356015987694263458251953125</LatitudeDegrees>
              <LongitudeDegrees>-2.46502527035772800445556640625</LongitudeDegrees>
            </Position>
            <AltitudeMeters>88.40000152587890625</AltitudeMeters>
            <DistanceMeters>NAN</DistanceMeters>
          </Trackpoint>
          <Trackpoint>
            <Time>2022-07-10T19:38:55.000Z</Time>
            <Position>
              <LatitudeDegrees>43.313538618385791778564453125</LatitudeDegrees>
              <LongitudeDegrees>-2.46520112268626689910888671875</LongitudeDegrees>
            </Position>
            <AltitudeMeters>89</AltitudeMeters>
            <DistanceMeters>NAN</DistanceMeters>
          </Trackpoint>
          <Trackpoint>
            <Time>2022-07-10T19:39:03.000Z</Time>
            <Position>
              <LatitudeDegrees>43.31349377520382404327392578125</LatitudeDegrees>
              <LongitudeDegrees>-2.46542961336672306060791015625</LongitudeDegrees>
            </Position>
            <AltitudeMeters>89.40000152587890625</AltitudeMeters>
            <DistanceMeters>NAN</DistanceMeters>
          </Trackpoint>
          <Trackpoint>
            <Time>2022-07-10T19:39:08.000Z</Time>
            <Position>
              <LatitudeDegrees>43.31342387013137340545654296875</LatitudeDegrees>
              <LongitudeDegrees>-2.46562625281512737274169921875</LongitudeDegrees>
            </Position>
            <AltitudeMeters>88.59999847412109375</AltitudeMeters>
            <DistanceMeters>NAN</DistanceMeters>
          </Trackpoint>
          <Trackpoint>
            <Time>2022-07-10T19:39:12.000Z</Time>
            <Position>
              <LatitudeDegrees>43.3133785240352153778076171875</LatitudeDegrees>
              <LongitudeDegrees>-2.46580847539007663726806640625</LongitudeDegrees>
            </Position>
            <AltitudeMeters>88.59999847412109375</AltitudeMeters>
            <DistanceMeters>NAN</DistanceMeters>
          </Trackpoint>
          <Trackpoint>
            <Time>2022-07-10T19:39:15.000Z</Time>
            <Position>
              <LatitudeDegrees>43.31333133392035961151123046875</LatitudeDegrees>
              <LongitudeDegrees>-2.46591358445584774017333984375</LongitudeDegrees>
            </Position>
            <AltitudeMeters>88.8000030517578125</AltitudeMeters>
            <DistanceMeters>NAN</DistanceMeters>
          </Trackpoint>
          <Trackpoint>
            <Time>2022-07-10T19:39:21.000Z</Time>
            <Position>
              <LatitudeDegrees>43.3132155798375606536865234375</LatitudeDegrees>
              <LongitudeDegrees>-2.46603847481310367584228515625</LongitudeDegrees>
            </Position>
            <AltitudeMeters>88.40000152587890625</AltitudeMeters>
            <DistanceMeters>NAN</DistanceMeters>
          </Trackpoint>
          <Trackpoint>
            <Time>2022-07-10T19:39:26.000Z</Time>
            <Position>
              <LatitudeDegrees>43.3131139911711215972900390625</LatitudeDegrees>
              <LongitudeDegrees>-2.46600578539073467254638671875</LongitudeDegrees>
            </Position>
            <AltitudeMeters>87.8000030517578125</AltitudeMeters>
            <DistanceMeters>NAN</DistanceMeters>
          </Trackpoint>
          <Trackpoint>
            <Time>2022-07-10T19:39:28.000Z</Time>
            <Position>
              <LatitudeDegrees>43.31308490596711635589599609375</LatitudeDegrees>
              <LongitudeDegrees>-2.4659939669072628021240234375</LongitudeDegrees>
            </Position>
            <AltitudeMeters>87.59999847412109375</AltitudeMeters>
            <DistanceMeters>NAN</DistanceMeters>
          </Trackpoint>
          <Trackpoint>
            <Time>2022-07-10T19:39:31.000Z</Time>
            <Position>
              <LatitudeDegrees>43.31307920627295970916748046875</LatitudeDegrees>
              <LongitudeDegrees>-2.465991787612438201904296875</LongitudeDegrees>
            </Position>
            <AltitudeMeters>87.40000152587890625</AltitudeMeters>
            <DistanceMeters>NAN</DistanceMeters>
          </Trackpoint>
          <Trackpoint>
            <Time>2022-07-10T19:39:32.000Z</Time>
            <Position>
              <LatitudeDegrees>43.31307920627295970916748046875</LatitudeDegrees>
              <LongitudeDegrees>-2.465991787612438201904296875</LongitudeDegrees>
            </Position>
            <AltitudeMeters>87.1999969482421875</AltitudeMeters>
            <DistanceMeters>NAN</DistanceMeters>
          </Trackpoint>
          <Trackpoint>
            <Time>2022-07-10T19:39:52.000Z</Time>
            <Position>
              <LatitudeDegrees>43.31304810941219329833984375</LatitudeDegrees>
              <LongitudeDegrees>-2.46598617173731327056884765625</LongitudeDegrees>
            </Position>
            <AltitudeMeters>87.1999969482421875</AltitudeMeters>
            <DistanceMeters>NAN</DistanceMeters>
          </Trackpoint>
          <Trackpoint>
            <Time>2022-07-10T19:39:55.000Z</Time>
            <Position>
              <LatitudeDegrees>43.31296990625560283660888671875</LatitudeDegrees>
              <LongitudeDegrees>-2.46597594581544399261474609375</LongitudeDegrees>
            </Position>
            <AltitudeMeters>87</AltitudeMeters>
            <DistanceMeters>NAN</DistanceMeters>
          </Trackpoint>
          <Trackpoint>
            <Time>2022-07-10T19:39:57.000Z</Time>
            <Position>
              <LatitudeDegrees>43.31290771253407001495361328125</LatitudeDegrees>
              <LongitudeDegrees>-2.46597561053931713104248046875</LongitudeDegrees>
            </Position>
            <AltitudeMeters>86.59999847412109375</AltitudeMeters>
            <DistanceMeters>NAN</DistanceMeters>
          </Trackpoint>
          <Trackpoint>
            <Time>2022-07-10T19:40:01.000Z</Time>
            <Position>
              <LatitudeDegrees>43.3128154277801513671875</LatitudeDegrees>
              <LongitudeDegrees>-2.46595515869557857513427734375</LongitudeDegrees>
            </Position>
            <AltitudeMeters>85.8000030517578125</AltitudeMeters>
            <DistanceMeters>NAN</DistanceMeters>
          </Trackpoint>
          <Trackpoint>
            <Time>2022-07-10T19:40:02.000Z</Time>
            <Position>
              <LatitudeDegrees>43.312804363667964935302734375</LatitudeDegrees>
              <LongitudeDegrees>-2.46594107709825038909912109375</LongitudeDegrees>
            </Position>
            <AltitudeMeters>85.8000030517578125</AltitudeMeters>
            <DistanceMeters>NAN</DistanceMeters>
          </Trackpoint>
          <Trackpoint>
            <Time>2022-07-10T19:40:03.000Z</Time>
            <Position>
              <LatitudeDegrees>43.31279522739350795745849609375</LatitudeDegrees>
              <LongitudeDegrees>-2.4659181945025920867919921875</LongitudeDegrees>
            </Position>
            <AltitudeMeters>85.59999847412109375</AltitudeMeters>
            <DistanceMeters>NAN</DistanceMeters>
          </Trackpoint>
          <Trackpoint>
            <Time>2022-07-10T19:40:04.000Z</Time>
            <Position>
              <LatitudeDegrees>43.312792964279651641845703125</LatitudeDegrees>
              <LongitudeDegrees>-2.46589246205985546112060546875</LongitudeDegrees>
            </Position>
            <AltitudeMeters>85.59999847412109375</AltitudeMeters>
            <DistanceMeters>NAN</DistanceMeters>
          </Trackpoint>
          <Trackpoint>
            <Time>2022-07-10T19:40:07.000Z</Time>
            <Position>
              <LatitudeDegrees>43.312794975936412811279296875</LatitudeDegrees>
              <LongitudeDegrees>-2.46582322753965854644775390625</LongitudeDegrees>
            </Position>
            <AltitudeMeters>85.59999847412109375</AltitudeMeters>
            <DistanceMeters>NAN</DistanceMeters>
          </Trackpoint>
          <Trackpoint>
            <Time>2022-07-10T19:40:12.000Z</Time>
            <Position>
              <LatitudeDegrees>43.31280528567731380462646484375</LatitudeDegrees>
              <LongitudeDegrees>-2.46575550176203250885009765625</LongitudeDegrees>
            </Position>
            <AltitudeMeters>85.40000152587890625</AltitudeMeters>
            <DistanceMeters>NAN</DistanceMeters>
          </Trackpoint>
          <Trackpoint>
            <Time>2022-07-10T19:40:13.000Z</Time>
            <Position>
              <LatitudeDegrees>43.31281475722789764404296875</LatitudeDegrees>
              <LongitudeDegrees>-2.465746365487575531005859375</LongitudeDegrees>
            </Position>
            <AltitudeMeters>85.40000152587890625</AltitudeMeters>
            <DistanceMeters>NAN</DistanceMeters>
          </Trackpoint>
          <Trackpoint>
            <Time>2022-07-10T19:40:17.000Z</Time>
            <Position>
              <LatitudeDegrees>43.31282221712172031402587890625</LatitudeDegrees>
              <LongitudeDegrees>-2.46570839546620845794677734375</LongitudeDegrees>
            </Position>
            <AltitudeMeters>85.40000152587890625</AltitudeMeters>
            <DistanceMeters>NAN</DistanceMeters>
          </Trackpoint>
          <Trackpoint>
            <Time>2022-07-10T19:40:18.000Z</Time>
            <Position>
              <LatitudeDegrees>43.31282221712172031402587890625</LatitudeDegrees>
              <LongitudeDegrees>-2.46570839546620845794677734375</LongitudeDegrees>
            </Position>
            <AltitudeMeters>85.40000152587890625</AltitudeMeters>
            <DistanceMeters>NAN</DistanceMeters>
          </Trackpoint>
          <Trackpoint>
            <Time>2022-07-10T19:40:19.000Z</Time>
            <Position>
              <LatitudeDegrees>43.31282221712172031402587890625</LatitudeDegrees>
              <LongitudeDegrees>-2.46570839546620845794677734375</LongitudeDegrees>
            </Position>
            <AltitudeMeters>85.40000152587890625</AltitudeMeters>
            <DistanceMeters>NAN</DistanceMeters>
          </Trackpoint>
          <Trackpoint>
            <Time>2022-07-11T06:31:17.000Z</Time>
            <Position>
              <LatitudeDegrees>43.312788940966129302978515625</LatitudeDegrees>
              <LongitudeDegrees>-2.46573236770927906036376953125</LongitudeDegrees>
            </Position>
            <AltitudeMeters>32.200000762939453125</AltitudeMeters>
            <DistanceMeters>NAN</DistanceMeters>
          </Trackpoint>
          <Trackpoint>
            <Time>2022-07-11T06:31:18.000Z</Time>
            <Position>
              <LatitudeDegrees>43.3127894438803195953369140625</LatitudeDegrees>
              <LongitudeDegrees>-2.46573203243315219879150390625</LongitudeDegrees>
            </Position>
            <AltitudeMeters>32.200000762939453125</AltitudeMeters>
            <DistanceMeters>NAN</DistanceMeters>
          </Trackpoint>
          <Trackpoint>
            <Time>2022-07-11T06:31:32.000Z</Time>
            <Position>
              <LatitudeDegrees>43.31277544610202312469482421875</LatitudeDegrees>
              <LongitudeDegrees>-2.4657800607383251190185546875</LongitudeDegrees>
            </Position>
            <AltitudeMeters>32.200000762939453125</AltitudeMeters>
            <DistanceMeters>NAN</DistanceMeters>
          </Trackpoint>
          <Trackpoint>
            <Time>2022-07-11T06:31:34.000Z</Time>
            <Position>
              <LatitudeDegrees>43.31277024932205677032470703125</LatitudeDegrees>
              <LongitudeDegrees>-2.4658082239329814910888671875</LongitudeDegrees>
            </Position>
            <AltitudeMeters>32.200000762939453125</AltitudeMeters>
            <DistanceMeters>NAN</DistanceMeters>
          </Trackpoint>
          <Trackpoint>
            <Time>2022-07-11T06:31:38.000Z</Time>
            <Position>
              <LatitudeDegrees>43.31276454962790012359619140625</LatitudeDegrees>
              <LongitudeDegrees>-2.4659084714949131011962890625</LongitudeDegrees>
            </Position>
            <AltitudeMeters>32.40000152587890625</AltitudeMeters>
            <DistanceMeters>NAN</DistanceMeters>
          </Trackpoint>
          <Trackpoint>
            <Time>2022-07-11T06:31:40.000Z</Time>
            <Position>
              <LatitudeDegrees>43.31274493597447872161865234375</LatitudeDegrees>
              <LongitudeDegrees>-2.4659433402121067047119140625</LongitudeDegrees>
            </Position>
            <AltitudeMeters>32.40000152587890625</AltitudeMeters>
            <DistanceMeters>NAN</DistanceMeters>
          </Trackpoint>
          <Trackpoint>
            <Time>2022-07-11T06:31:46.000Z</Time>
            <Position>
              <LatitudeDegrees>43.31261250190436840057373046875</LatitudeDegrees>
              <LongitudeDegrees>-2.4659974873065948486328125</LongitudeDegrees>
            </Position>
            <AltitudeMeters>32.200000762939453125</AltitudeMeters>
            <DistanceMeters>NAN</DistanceMeters>
          </Trackpoint>
          <Trackpoint>
            <Time>2022-07-11T06:31:50.000Z</Time>
            <Position>
              <LatitudeDegrees>43.312454335391521453857421875</LatitudeDegrees>
              <LongitudeDegrees>-2.4659852497279644012451171875</LongitudeDegrees>
            </Position>
            <AltitudeMeters>31.3999996185302734375</AltitudeMeters>
            <DistanceMeters>NAN</DistanceMeters>
          </Trackpoint>
          <Trackpoint>
            <Time>2022-07-11T06:31:52.000Z</Time>
            <Position>
              <LatitudeDegrees>43.3123579435050487518310546875</LatitudeDegrees>
              <LongitudeDegrees>-2.4659715034067630767822265625</LongitudeDegrees>
            </Position>
            <AltitudeMeters>31</AltitudeMeters>
            <DistanceMeters>NAN</DistanceMeters>
          </Trackpoint>
          <Trackpoint>
            <Time>2022-07-11T06:31:55.000Z</Time>
            <Position>
              <LatitudeDegrees>43.312194831669330596923828125</LatitudeDegrees>
              <LongitudeDegrees>-2.4659319408237934112548828125</LongitudeDegrees>
            </Position>
            <AltitudeMeters>30.200000762939453125</AltitudeMeters>
            <DistanceMeters>NAN</DistanceMeters>
          </Trackpoint>
          <Trackpoint>
            <Time>2022-07-11T06:31:56.000Z</Time>
            <Position>
              <LatitudeDegrees>43.3121381700038909912109375</LatitudeDegrees>
              <LongitudeDegrees>-2.4658987484872341156005859375</LongitudeDegrees>
            </Position>
            <AltitudeMeters>29.799999237060546875</AltitudeMeters>
            <DistanceMeters>NAN</DistanceMeters>
          </Trackpoint>
          <Trackpoint>
            <Time>2022-07-11T06:31:57.000Z</Time>
            <Position>
              <LatitudeDegrees>43.31208427436649799346923828125</LatitudeDegrees>
              <LongitudeDegrees>-2.46585675515234470367431640625</LongitudeDegrees>
            </Position>
            <AltitudeMeters>29.3999996185302734375</AltitudeMeters>
            <DistanceMeters>NAN</DistanceMeters>
          </Trackpoint>
          <Trackpoint>
            <Time>2022-07-11T06:32:00.000Z</Time>
            <Position>
              <LatitudeDegrees>43.3119509182870388031005859375</LatitudeDegrees>
              <LongitudeDegrees>-2.4656945653259754180908203125</LongitudeDegrees>
            </Position>
            <AltitudeMeters>28.799999237060546875</AltitudeMeters>
            <DistanceMeters>NAN</DistanceMeters>
          </Trackpoint>
          <Trackpoint>
            <Time>2022-07-11T06:32:01.000Z</Time>
            <Position>
              <LatitudeDegrees>43.3119130320847034454345703125</LatitudeDegrees>
              <LongitudeDegrees>-2.4656409211456775665283203125</LongitudeDegrees>
            </Position>
            <AltitudeMeters>28.3999996185302734375</AltitudeMeters>
            <DistanceMeters>NAN</DistanceMeters>
          </Trackpoint>
          <Trackpoint>
            <Time>2022-07-11T06:32:02.000Z</Time>
            <Position>
              <LatitudeDegrees>43.31188662908971309661865234375</LatitudeDegrees>
              <LongitudeDegrees>-2.465591132640838623046875</LongitudeDegrees>
            </Position>
            <AltitudeMeters>28</AltitudeMeters>
            <DistanceMeters>NAN</DistanceMeters>
          </Trackpoint>
          <Trackpoint>
            <Time>2022-07-11T06:32:04.000Z</Time>
            <Position>
              <LatitudeDegrees>43.3118563704192638397216796875</LatitudeDegrees>
              <LongitudeDegrees>-2.4655173718929290771484375</LongitudeDegrees>
            </Position>
            <AltitudeMeters>27.200000762939453125</AltitudeMeters>
            <DistanceMeters>NAN</DistanceMeters>
          </Trackpoint>
          <Trackpoint>
            <Time>2022-07-11T06:32:09.000Z</Time>
            <Position>
              <LatitudeDegrees>43.31174229271709918975830078125</LatitudeDegrees>
              <LongitudeDegrees>-2.4653569422662258148193359375</LongitudeDegrees>
            </Position>
            <AltitudeMeters>26.3999996185302734375</AltitudeMeters>
            <DistanceMeters>NAN</DistanceMeters>
          </Trackpoint>
          <Trackpoint>
            <Time>2022-07-11T06:32:11.000Z</Time>
            <Position>
              <LatitudeDegrees>43.31172988750040531158447265625</LatitudeDegrees>
              <LongitudeDegrees>-2.46528008021414279937744140625</LongitudeDegrees>
            </Position>
            <AltitudeMeters>26</AltitudeMeters>
            <DistanceMeters>NAN</DistanceMeters>
          </Trackpoint>
          <Trackpoint>
            <Time>2022-07-11T06:32:12.000Z</Time>
            <Position>
              <LatitudeDegrees>43.31172988750040531158447265625</LatitudeDegrees>
              <LongitudeDegrees>-2.46528008021414279937744140625</LongitudeDegrees>
            </Position>
            <AltitudeMeters>26</AltitudeMeters>
            <DistanceMeters>NAN</DistanceMeters>
          </Trackpoint>
          <Trackpoint>
            <Time>2022-07-11T06:32:16.000Z</Time>
            <Position>
              <LatitudeDegrees>43.31174614839255809783935546875</LatitudeDegrees>
              <LongitudeDegrees>-2.46513959951698780059814453125</LongitudeDegrees>
            </Position>
            <AltitudeMeters>25.799999237060546875</AltitudeMeters>
            <DistanceMeters>NAN</DistanceMeters>
          </Trackpoint>
          <Trackpoint>
            <Time>2022-07-11T06:32:18.000Z</Time>
            <Position>
              <LatitudeDegrees>43.31174514256417751312255859375</LatitudeDegrees>
              <LongitudeDegrees>-2.46511093340814113616943359375</LongitudeDegrees>
            </Position>
            <AltitudeMeters>25.799999237060546875</AltitudeMeters>
            <DistanceMeters>NAN</DistanceMeters>
          </Trackpoint>
          <Trackpoint>
            <Time>2022-07-11T06:32:20.000Z</Time>
            <Position>
              <LatitudeDegrees>43.31174296326935291290283203125</LatitudeDegrees>
              <LongitudeDegrees>-2.4651058204472064971923828125</LongitudeDegrees>
            </Position>
            <AltitudeMeters>25.799999237060546875</AltitudeMeters>
            <DistanceMeters>NAN</DistanceMeters>
          </Trackpoint>
          <Trackpoint>
            <Time>2022-07-11T06:32:22.000Z</Time>
            <Position>
              <LatitudeDegrees>43.31174296326935291290283203125</LatitudeDegrees>
              <LongitudeDegrees>-2.4651058204472064971923828125</LongitudeDegrees>
            </Position>
            <AltitudeMeters>25.799999237060546875</AltitudeMeters>
            <DistanceMeters>NAN</DistanceMeters>
          </Trackpoint>
          <Trackpoint>
            <Time>2022-07-11T06:32:31.000Z</Time>
            <Position>
              <LatitudeDegrees>43.311755955219268798828125</LatitudeDegrees>
              <LongitudeDegrees>-2.46518989093601703643798828125</LongitudeDegrees>
            </Position>
            <AltitudeMeters>26.200000762939453125</AltitudeMeters>
            <DistanceMeters>NAN</DistanceMeters>
          </Trackpoint>
          <Trackpoint>
            <Time>2022-07-11T06:32:32.000Z</Time>
            <Position>
              <LatitudeDegrees>43.311755955219268798828125</LatitudeDegrees>
              <LongitudeDegrees>-2.46518989093601703643798828125</LongitudeDegrees>
            </Position>
            <AltitudeMeters>26.3999996185302734375</AltitudeMeters>
            <DistanceMeters>NAN</DistanceMeters>
          </Trackpoint>
          <Trackpoint>
            <Time>2022-07-11T06:32:38.000Z</Time>
            <Position>
              <LatitudeDegrees>43.3116783387959003448486328125</LatitudeDegrees>
              <LongitudeDegrees>-2.4653136916458606719970703125</LongitudeDegrees>
            </Position>
            <AltitudeMeters>26</AltitudeMeters>
            <DistanceMeters>NAN</DistanceMeters>
          </Trackpoint>
          <Trackpoint>
            <Time>2022-07-11T06:32:40.000Z</Time>
            <Position>
              <LatitudeDegrees>43.31162997521460056304931640625</LatitudeDegrees>
              <LongitudeDegrees>-2.46527530252933502197265625</LongitudeDegrees>
            </Position>
            <AltitudeMeters>26</AltitudeMeters>
            <DistanceMeters>NAN</DistanceMeters>
          </Trackpoint>
          <Trackpoint>
            <Time>2022-07-11T06:32:43.000Z</Time>
            <Position>
              <LatitudeDegrees>43.31156543456017971038818359375</LatitudeDegrees>
              <LongitudeDegrees>-2.4651847779750823974609375</LongitudeDegrees>
            </Position>
            <AltitudeMeters>25.799999237060546875</AltitudeMeters>
            <DistanceMeters>NAN</DistanceMeters>
          </Trackpoint>
          <Trackpoint>
            <Time>2022-07-11T06:32:51.000Z</Time>
            <Position>
              <LatitudeDegrees>43.31134985201060771942138671875</LatitudeDegrees>
              <LongitudeDegrees>-2.46493541635572910308837890625</LongitudeDegrees>
            </Position>
            <AltitudeMeters>25.6000003814697265625</AltitudeMeters>
            <DistanceMeters>NAN</DistanceMeters>
          </Trackpoint>
          <Trackpoint>
            <Time>2022-07-11T06:32:58.000Z</Time>
            <Position>
              <LatitudeDegrees>43.31116729415953159332275390625</LatitudeDegrees>
              <LongitudeDegrees>-2.46472151018679141998291015625</LongitudeDegrees>
            </Position>
            <AltitudeMeters>25.6000003814697265625</AltitudeMeters>
            <DistanceMeters>NAN</DistanceMeters>
          </Trackpoint>
          <Trackpoint>
            <Time>2022-07-11T06:33:02.000Z</Time>
            <Position>
              <LatitudeDegrees>43.31107341684401035308837890625</LatitudeDegrees>
              <LongitudeDegrees>-2.46470172889530658721923828125</LongitudeDegrees>
            </Position>
            <AltitudeMeters>25.6000003814697265625</AltitudeMeters>
            <DistanceMeters>NAN</DistanceMeters>
          </Trackpoint>
          <Trackpoint>
            <Time>2022-07-11T06:33:03.000Z</Time>
            <Position>
              <LatitudeDegrees>43.31104475073516368865966796875</LatitudeDegrees>
              <LongitudeDegrees>-2.46472218073904514312744140625</LongitudeDegrees>
            </Position>
            <AltitudeMeters>25.6000003814697265625</AltitudeMeters>
            <DistanceMeters>NAN</DistanceMeters>
          </Trackpoint>
          <Trackpoint>
            <Time>2022-07-11T06:33:07.000Z</Time>
            <Position>
              <LatitudeDegrees>43.31096227280795574188232421875</LatitudeDegrees>
              <LongitudeDegrees>-2.46482242830097675323486328125</LongitudeDegrees>
            </Position>
            <AltitudeMeters>26</AltitudeMeters>
            <DistanceMeters>NAN</DistanceMeters>
          </Trackpoint>
          <Trackpoint>
            <Time>2022-07-11T06:33:15.000Z</Time>
            <Position>
              <LatitudeDegrees>43.3107962273061275482177734375</LatitudeDegrees>
              <LongitudeDegrees>-2.46501219458878040313720703125</LongitudeDegrees>
            </Position>
            <AltitudeMeters>27.200000762939453125</AltitudeMeters>
            <DistanceMeters>NAN</DistanceMeters>
          </Trackpoint>
          <Trackpoint>
            <Time>2022-07-11T06:33:20.000Z</Time>
            <Position>
              <LatitudeDegrees>43.3106691576540470123291015625</LatitudeDegrees>
              <LongitudeDegrees>-2.46503650210797786712646484375</LongitudeDegrees>
            </Position>
            <AltitudeMeters>27.799999237060546875</AltitudeMeters>
            <DistanceMeters>NAN</DistanceMeters>
          </Trackpoint>
          <Trackpoint>
            <Time>2022-07-11T06:33:24.000Z</Time>
            <Position>
              <LatitudeDegrees>43.3105451054871082305908203125</LatitudeDegrees>
              <LongitudeDegrees>-2.46505863033235073089599609375</LongitudeDegrees>
            </Position>
            <AltitudeMeters>28</AltitudeMeters>
            <DistanceMeters>NAN</DistanceMeters>
          </Trackpoint>
          <Trackpoint>
            <Time>2022-07-11T06:33:27.000Z</Time>
            <Position>
              <LatitudeDegrees>43.31044946797192096710205078125</LatitudeDegrees>
              <LongitudeDegrees>-2.4651416949927806854248046875</LongitudeDegrees>
            </Position>
            <AltitudeMeters>27.799999237060546875</AltitudeMeters>
            <DistanceMeters>NAN</DistanceMeters>
          </Trackpoint>
          <Trackpoint>
            <Time>2022-07-11T06:33:29.000Z</Time>
            <Position>
              <LatitudeDegrees>43.31042448990046977996826171875</LatitudeDegrees>
              <LongitudeDegrees>-2.46517932973802089691162109375</LongitudeDegrees>
            </Position>
            <AltitudeMeters>27.799999237060546875</AltitudeMeters>
            <DistanceMeters>NAN</DistanceMeters>
          </Trackpoint>
          <Trackpoint>
            <Time>2022-07-11T06:33:31.000Z</Time>
            <Position>
              <LatitudeDegrees>43.31036053597927093505859375</LatitudeDegrees>
              <LongitudeDegrees>-2.4653153680264949798583984375</LongitudeDegrees>
            </Position>
            <AltitudeMeters>27.799999237060546875</AltitudeMeters>
            <DistanceMeters>NAN</DistanceMeters>
          </Trackpoint>
          <Trackpoint>
            <Time>2022-07-11T06:33:35.000Z</Time>
            <Position>
              <LatitudeDegrees>43.31029105000197887420654296875</LatitudeDegrees>
              <LongitudeDegrees>-2.4654959142208099365234375</LongitudeDegrees>
            </Position>
            <AltitudeMeters>28</AltitudeMeters>
            <DistanceMeters>NAN</DistanceMeters>
          </Trackpoint>
          <Trackpoint>
            <Time>2022-07-11T06:33:40.000Z</Time>
            <Position>
              <LatitudeDegrees>43.3102118410170078277587890625</LatitudeDegrees>
              <LongitudeDegrees>-2.46570236049592494964599609375</LongitudeDegrees>
            </Position>
            <AltitudeMeters>28.200000762939453125</AltitudeMeters>
            <DistanceMeters>NAN</DistanceMeters>
          </Trackpoint>
          <Trackpoint>
            <Time>2022-07-11T06:33:41.000Z</Time>
            <Position>
              <LatitudeDegrees>43.31019398756325244903564453125</LatitudeDegrees>
              <LongitudeDegrees>-2.4657337926328182220458984375</LongitudeDegrees>
            </Position>
            <AltitudeMeters>28.200000762939453125</AltitudeMeters>
            <DistanceMeters>NAN</DistanceMeters>
          </Trackpoint>
          <Trackpoint>
            <Time>2022-07-11T06:33:47.000Z</Time>
            <Position>
              <LatitudeDegrees>43.3101179637014865875244140625</LatitudeDegrees>
              <LongitudeDegrees>-2.46597058139741420745849609375</LongitudeDegrees>
            </Position>
            <AltitudeMeters>28.799999237060546875</AltitudeMeters>
            <DistanceMeters>NAN</DistanceMeters>
          </Trackpoint>
          <Trackpoint>
            <Time>2022-07-11T06:33:50.000Z</Time>
            <Position>
              <LatitudeDegrees>43.310091979801654815673828125</LatitudeDegrees>
              <LongitudeDegrees>-2.46606387197971343994140625</LongitudeDegrees>
            </Position>
            <AltitudeMeters>29.200000762939453125</AltitudeMeters>
            <DistanceMeters>NAN</DistanceMeters>
          </Trackpoint>
          <Trackpoint>
            <Time>2022-07-11T06:33:55.000Z</Time>
            <Position>
              <LatitudeDegrees>43.31006591208279132843017578125</LatitudeDegrees>
              <LongitudeDegrees>-2.4661726690828800201416015625</LongitudeDegrees>
            </Position>
            <AltitudeMeters>29.799999237060546875</AltitudeMeters>
            <DistanceMeters>NAN</DistanceMeters>
          </Trackpoint>
          <Trackpoint>
            <Time>2022-07-11T06:34:01.000Z</Time>
            <Position>
              <LatitudeDegrees>43.3100160397589206695556640625</LatitudeDegrees>
              <LongitudeDegrees>-2.4663674645125865936279296875</LongitudeDegrees>
            </Position>
            <AltitudeMeters>30.3999996185302734375</AltitudeMeters>
            <DistanceMeters>NAN</DistanceMeters>
          </Trackpoint>
          <Trackpoint>
            <Time>2022-07-11T06:34:04.000Z</Time>
            <Position>
              <LatitudeDegrees>43.31000019796192646026611328125</LatitudeDegrees>
              <LongitudeDegrees>-2.46644164435565471649169921875</LongitudeDegrees>
            </Position>
            <AltitudeMeters>31</AltitudeMeters>
            <DistanceMeters>NAN</DistanceMeters>
          </Trackpoint>
          <Trackpoint>
            <Time>2022-07-11T06:34:09.000Z</Time>
            <Position>
              <LatitudeDegrees>43.3099897205829620361328125</LatitudeDegrees>
              <LongitudeDegrees>-2.46654356829822063446044921875</LongitudeDegrees>
            </Position>
            <AltitudeMeters>31.6000003814697265625</AltitudeMeters>
            <DistanceMeters>NAN</DistanceMeters>
          </Trackpoint>
          <Trackpoint>
            <Time>2022-07-11T06:34:12.000Z</Time>
            <Position>
              <LatitudeDegrees>43.309966586530208587646484375</LatitudeDegrees>
              <LongitudeDegrees>-2.46662487275898456573486328125</LongitudeDegrees>
            </Position>
            <AltitudeMeters>32.40000152587890625</AltitudeMeters>
            <DistanceMeters>NAN</DistanceMeters>
          </Trackpoint>
          <Trackpoint>
            <Time>2022-07-11T06:34:13.000Z</Time>
            <Position>
              <LatitudeDegrees>43.30995694734156131744384765625</LatitudeDegrees>
              <LongitudeDegrees>-2.46664800681173801422119140625</LongitudeDegrees>
            </Position>
            <AltitudeMeters>32.59999847412109375</AltitudeMeters>
            <DistanceMeters>NAN</DistanceMeters>
          </Trackpoint>
          <Trackpoint>
            <Time>2022-07-11T06:34:20.000Z</Time>
            <Position>
              <LatitudeDegrees>43.309904225170612335205078125</LatitudeDegrees>
              <LongitudeDegrees>-2.466827966272830963134765625</LongitudeDegrees>
            </Position>
            <AltitudeMeters>33.799999237060546875</AltitudeMeters>
            <DistanceMeters>NAN</DistanceMeters>
          </Trackpoint>
          <Trackpoint>
            <Time>2022-07-11T06:34:22.000Z</Time>
            <Position>
              <LatitudeDegrees>43.30989743582904338836669921875</LatitudeDegrees>
              <LongitudeDegrees>-2.466873563826084136962890625</LongitudeDegrees>
            </Position>
            <AltitudeMeters>34</AltitudeMeters>
            <DistanceMeters>NAN</DistanceMeters>
          </Trackpoint>
          <Trackpoint>
            <Time>2022-07-11T06:34:28.000Z</Time>
            <Position>
              <LatitudeDegrees>43.30985871143639087677001953125</LatitudeDegrees>
              <LongitudeDegrees>-2.4670158885419368743896484375</LongitudeDegrees>
            </Position>
            <AltitudeMeters>34.799999237060546875</AltitudeMeters>
            <DistanceMeters>NAN</DistanceMeters>
          </Trackpoint>
          <Trackpoint>
            <Time>2022-07-11T06:34:33.000Z</Time>
            <Position>
              <LatitudeDegrees>43.3098299615085124969482421875</LatitudeDegrees>
              <LongitudeDegrees>-2.46714421547949314117431640625</LongitudeDegrees>
            </Position>
            <AltitudeMeters>35.40000152587890625</AltitudeMeters>
            <DistanceMeters>NAN</DistanceMeters>
          </Trackpoint>
          <Trackpoint>
            <Time>2022-07-11T06:34:38.000Z</Time>
            <Position>
              <LatitudeDegrees>43.30979668535292148590087890625</LatitudeDegrees>
              <LongitudeDegrees>-2.46728159487247467041015625</LongitudeDegrees>
            </Position>
            <AltitudeMeters>36</AltitudeMeters>
            <DistanceMeters>NAN</DistanceMeters>
          </Trackpoint>
          <Trackpoint>
            <Time>2022-07-11T06:34:43.000Z</Time>
            <Position>
              <LatitudeDegrees>43.30975326709449291229248046875</LatitudeDegrees>
              <LongitudeDegrees>-2.4674004502594470977783203125</LongitudeDegrees>
            </Position>
            <AltitudeMeters>36.59999847412109375</AltitudeMeters>
            <DistanceMeters>NAN</DistanceMeters>
          </Trackpoint>
          <Trackpoint>
            <Time>2022-07-11T06:34:47.000Z</Time>
            <Position>
              <LatitudeDegrees>43.30971370451152324676513671875</LatitudeDegrees>
              <LongitudeDegrees>-2.46752257458865642547607421875</LongitudeDegrees>
            </Position>
            <AltitudeMeters>37</AltitudeMeters>
            <DistanceMeters>NAN</DistanceMeters>
          </Trackpoint>
          <Trackpoint>
            <Time>2022-07-11T06:34:52.000Z</Time>
            <Position>
              <LatitudeDegrees>43.3096693642437458038330078125</LatitudeDegrees>
              <LongitudeDegrees>-2.4676706828176975250244140625</LongitudeDegrees>
            </Position>
            <AltitudeMeters>37.59999847412109375</AltitudeMeters>
            <DistanceMeters>NAN</DistanceMeters>
          </Trackpoint>
          <Trackpoint>
            <Time>2022-07-11T06:34:57.000Z</Time>
            <Position>
              <LatitudeDegrees>43.3096214197576045989990234375</LatitudeDegrees>
              <LongitudeDegrees>-2.46780068613588809967041015625</LongitudeDegrees>
            </Position>
            <AltitudeMeters>38</AltitudeMeters>
            <DistanceMeters>NAN</DistanceMeters>
          </Trackpoint>
          <Trackpoint>
            <Time>2022-07-11T06:35:00.000Z</Time>
            <Position>
              <LatitudeDegrees>43.30958814360201358795166015625</LatitudeDegrees>
              <LongitudeDegrees>-2.4678741954267024993896484375</LongitudeDegrees>
            </Position>
            <AltitudeMeters>38.40000152587890625</AltitudeMeters>
            <DistanceMeters>NAN</DistanceMeters>
          </Trackpoint>
          <Trackpoint>
            <Time>2022-07-11T06:35:02.000Z</Time>
            <Position>
              <LatitudeDegrees>43.30956769175827503204345703125</LatitudeDegrees>
              <LongitudeDegrees>-2.46792666614055633544921875</LongitudeDegrees>
            </Position>
            <AltitudeMeters>38.799999237060546875</AltitudeMeters>
            <DistanceMeters>NAN</DistanceMeters>
          </Trackpoint>
          <Trackpoint>
            <Time>2022-07-11T06:35:04.000Z</Time>
            <Position>
              <LatitudeDegrees>43.30954841338098049163818359375</LatitudeDegrees>
              <LongitudeDegrees>-2.46797888539731502532958984375</LongitudeDegrees>
            </Position>
            <AltitudeMeters>38.799999237060546875</AltitudeMeters>
            <DistanceMeters>NAN</DistanceMeters>
          </Trackpoint>
          <Trackpoint>
            <Time>2022-07-11T06:35:06.000Z</Time>
            <Position>
              <LatitudeDegrees>43.309523351490497589111328125</LatitudeDegrees>
              <LongitudeDegrees>-2.468036971986293792724609375</LongitudeDegrees>
            </Position>
            <AltitudeMeters>39</AltitudeMeters>
            <DistanceMeters>NAN</DistanceMeters>
          </Trackpoint>
          <Trackpoint>
            <Time>2022-07-11T06:35:07.000Z</Time>
            <Position>
              <LatitudeDegrees>43.30950834788382053375244140625</LatitudeDegrees>
              <LongitudeDegrees>-2.46806270442903041839599609375</LongitudeDegrees>
            </Position>
            <AltitudeMeters>39.200000762939453125</AltitudeMeters>
            <DistanceMeters>NAN</DistanceMeters>
          </Trackpoint>
          <Trackpoint>
            <Time>2022-07-11T06:35:14.000Z</Time>
            <Position>
              <LatitudeDegrees>43.30942251719534397125244140625</LatitudeDegrees>
              <LongitudeDegrees>-2.46825112961232662200927734375</LongitudeDegrees>
            </Position>
            <AltitudeMeters>39.799999237060546875</AltitudeMeters>
            <DistanceMeters>NAN</DistanceMeters>
          </Trackpoint>
          <Trackpoint>
            <Time>2022-07-11T06:35:16.000Z</Time>
            <Position>
              <LatitudeDegrees>43.309395946562290191650390625</LatitudeDegrees>
              <LongitudeDegrees>-2.46830410324037075042724609375</LongitudeDegrees>
            </Position>
            <AltitudeMeters>40</AltitudeMeters>
            <DistanceMeters>NAN</DistanceMeters>
          </Trackpoint>
          <Trackpoint>
            <Time>2022-07-11T06:35:19.000Z</Time>
            <Position>
              <LatitudeDegrees>43.30935202538967132568359375</LatitudeDegrees>
              <LongitudeDegrees>-2.468368224799633026123046875</LongitudeDegrees>
            </Position>
            <AltitudeMeters>40</AltitudeMeters>
            <DistanceMeters>NAN</DistanceMeters>
          </Trackpoint>
          <Trackpoint>
            <Time>2022-07-11T06:35:22.000Z</Time>
            <Position>
              <LatitudeDegrees>43.3093008957803249359130859375</LatitudeDegrees>
              <LongitudeDegrees>-2.46844257228076457977294921875</LongitudeDegrees>
            </Position>
            <AltitudeMeters>40.200000762939453125</AltitudeMeters>
            <DistanceMeters>NAN</DistanceMeters>
          </Trackpoint>
          <Trackpoint>
            <Time>2022-07-11T06:35:23.000Z</Time>
            <Position>
              <LatitudeDegrees>43.30928371287882328033447265625</LatitudeDegrees>
              <LongitudeDegrees>-2.46846579015254974365234375</LongitudeDegrees>
            </Position>
            <AltitudeMeters>40.200000762939453125</AltitudeMeters>
            <DistanceMeters>NAN</DistanceMeters>
          </Trackpoint>
          <Trackpoint>
            <Time>2022-07-11T06:35:28.000Z</Time>
            <Position>
              <LatitudeDegrees>43.30919670872390270233154296875</LatitudeDegrees>
              <LongitudeDegrees>-2.46857919730246067047119140625</LongitudeDegrees>
            </Position>
            <AltitudeMeters>40.40000152587890625</AltitudeMeters>
            <DistanceMeters>NAN</DistanceMeters>
          </Trackpoint>
          <Trackpoint>
            <Time>2022-07-11T06:35:34.000Z</Time>
            <Position>
              <LatitudeDegrees>43.30910702235996723175048828125</LatitudeDegrees>
              <LongitudeDegrees>-2.46871096082031726837158203125</LongitudeDegrees>
            </Position>
            <AltitudeMeters>40.799999237060546875</AltitudeMeters>
            <DistanceMeters>NAN</DistanceMeters>
          </Trackpoint>
          <Trackpoint>
            <Time>2022-07-11T06:35:37.000Z</Time>
            <Position>
              <LatitudeDegrees>43.30908036790788173675537109375</LatitudeDegrees>
              <LongitudeDegrees>-2.468775920569896697998046875</LongitudeDegrees>
            </Position>
            <AltitudeMeters>41.200000762939453125</AltitudeMeters>
            <DistanceMeters>NAN</DistanceMeters>
          </Trackpoint>
          <Trackpoint>
            <Time>2022-07-11T06:35:38.000Z</Time>
            <Position>
              <LatitudeDegrees>43.30907299183309078216552734375</LatitudeDegrees>
              <LongitudeDegrees>-2.46879813261330127716064453125</LongitudeDegrees>
            </Position>
            <AltitudeMeters>41.200000762939453125</AltitudeMeters>
            <DistanceMeters>NAN</DistanceMeters>
          </Trackpoint>
          <Trackpoint>
            <Time>2022-07-11T06:35:43.000Z</Time>
            <Position>
              <LatitudeDegrees>43.30898531712591648101806640625</LatitudeDegrees>
              <LongitudeDegrees>-2.4689048342406749725341796875</LongitudeDegrees>
            </Position>
            <AltitudeMeters>41.59999847412109375</AltitudeMeters>
            <DistanceMeters>NAN</DistanceMeters>
          </Trackpoint>
          <Trackpoint>
            <Time>2022-07-11T06:35:47.000Z</Time>
            <Position>
              <LatitudeDegrees>43.3089351095259189605712890625</LatitudeDegrees>
              <LongitudeDegrees>-2.468983791768550872802734375</LongitudeDegrees>
            </Position>
            <AltitudeMeters>42.200000762939453125</AltitudeMeters>
            <DistanceMeters>NAN</DistanceMeters>
          </Trackpoint>
          <Trackpoint>
            <Time>2022-07-11T06:35:52.000Z</Time>
            <Position>
              <LatitudeDegrees>43.30887258052825927734375</LatitudeDegrees>
              <LongitudeDegrees>-2.4690664373338222503662109375</LongitudeDegrees>
            </Position>
            <AltitudeMeters>42.799999237060546875</AltitudeMeters>
            <DistanceMeters>NAN</DistanceMeters>
          </Trackpoint>
          <Trackpoint>
            <Time>2022-07-11T06:35:56.000Z</Time>
            <Position>
              <LatitudeDegrees>43.30881667323410511016845703125</LatitudeDegrees>
              <LongitudeDegrees>-2.469136677682399749755859375</LongitudeDegrees>
            </Position>
            <AltitudeMeters>43.200000762939453125</AltitudeMeters>
            <DistanceMeters>NAN</DistanceMeters>
          </Trackpoint>
          <Trackpoint>
            <Time>2022-07-11T06:36:01.000Z</Time>
            <Position>
              <LatitudeDegrees>43.30874056555330753326416015625</LatitudeDegrees>
              <LongitudeDegrees>-2.46923156082630157470703125</LongitudeDegrees>
            </Position>
            <AltitudeMeters>43.799999237060546875</AltitudeMeters>
            <DistanceMeters>NAN</DistanceMeters>
          </Trackpoint>
          <Trackpoint>
            <Time>2022-07-11T06:36:04.000Z</Time>
            <Position>
              <LatitudeDegrees>43.308693878352642059326171875</LatitudeDegrees>
              <LongitudeDegrees>-2.4693014658987522125244140625</LongitudeDegrees>
            </Position>
            <AltitudeMeters>44.200000762939453125</AltitudeMeters>
            <DistanceMeters>NAN</DistanceMeters>
          </Trackpoint>
          <Trackpoint>
            <Time>2022-07-11T06:36:10.000Z</Time>
            <Position>
              <LatitudeDegrees>43.30861802212893962860107421875</LatitudeDegrees>
              <LongitudeDegrees>-2.469431050121784210205078125</LongitudeDegrees>
            </Position>
            <AltitudeMeters>44.799999237060546875</AltitudeMeters>
            <DistanceMeters>NAN</DistanceMeters>
          </Trackpoint>
          <Trackpoint>
            <Time>2022-07-11T06:36:14.000Z</Time>
            <Position>
              <LatitudeDegrees>43.30857225693762302398681640625</LatitudeDegrees>
              <LongitudeDegrees>-2.46949349530041217803955078125</LongitudeDegrees>
            </Position>
            <AltitudeMeters>45.40000152587890625</AltitudeMeters>
            <DistanceMeters>NAN</DistanceMeters>
          </Trackpoint>
          <Trackpoint>
            <Time>2022-07-11T06:36:20.000Z</Time>
            <Position>
              <LatitudeDegrees>43.308505117893218994140625</LatitudeDegrees>
              <LongitudeDegrees>-2.469555102288722991943359375</LongitudeDegrees>
            </Position>
            <AltitudeMeters>46</AltitudeMeters>
            <DistanceMeters>NAN</DistanceMeters>
          </Trackpoint>
          <Trackpoint>
            <Time>2022-07-11T06:36:22.000Z</Time>
            <Position>
              <LatitudeDegrees>43.308469913899898529052734375</LatitudeDegrees>
              <LongitudeDegrees>-2.4696048907935619354248046875</LongitudeDegrees>
            </Position>
            <AltitudeMeters>46.40000152587890625</AltitudeMeters>
            <DistanceMeters>NAN</DistanceMeters>
          </Trackpoint>
          <Trackpoint>
            <Time>2022-07-11T06:36:29.000Z</Time>
            <Position>
              <LatitudeDegrees>43.3083896152675151824951171875</LatitudeDegrees>
              <LongitudeDegrees>-2.4697202257812023162841796875</LongitudeDegrees>
            </Position>
            <AltitudeMeters>47.200000762939453125</AltitudeMeters>
            <DistanceMeters>NAN</DistanceMeters>
          </Trackpoint>
          <Trackpoint>
            <Time>2022-07-11T06:36:30.000Z</Time>
            <Position>
              <LatitudeDegrees>43.3083896152675151824951171875</LatitudeDegrees>
              <LongitudeDegrees>-2.4697202257812023162841796875</LongitudeDegrees>
            </Position>
            <AltitudeMeters>47.40000152587890625</AltitudeMeters>
            <DistanceMeters>NAN</DistanceMeters>
          </Trackpoint>
          <Trackpoint>
            <Time>2022-07-11T06:36:31.000Z</Time>
            <Position>
              <LatitudeDegrees>43.30836455337703227996826171875</LatitudeDegrees>
              <LongitudeDegrees>-2.4697242490947246551513671875</LongitudeDegrees>
            </Position>
            <AltitudeMeters>47.40000152587890625</AltitudeMeters>
            <DistanceMeters>NAN</DistanceMeters>
          </Trackpoint>
          <Trackpoint>
            <Time>2022-07-11T06:36:39.000Z</Time>
            <Position>
              <LatitudeDegrees>43.308284170925617218017578125</LatitudeDegrees>
              <LongitudeDegrees>-2.4698338843882083892822265625</LongitudeDegrees>
            </Position>
            <AltitudeMeters>48.59999847412109375</AltitudeMeters>
            <DistanceMeters>NAN</DistanceMeters>
          </Trackpoint>
          <Trackpoint>
            <Time>2022-07-11T06:36:44.000Z</Time>
            <Position>
              <LatitudeDegrees>43.30823731608688831329345703125</LatitudeDegrees>
              <LongitudeDegrees>-2.46993564069271087646484375</LongitudeDegrees>
            </Position>
            <AltitudeMeters>49</AltitudeMeters>
            <DistanceMeters>NAN</DistanceMeters>
          </Trackpoint>
          <Trackpoint>
            <Time>2022-07-11T06:36:46.000Z</Time>
            <Position>
              <LatitudeDegrees>43.30819557420909404754638671875</LatitudeDegrees>
              <LongitudeDegrees>-2.46999070979654788970947265625</LongitudeDegrees>
            </Position>
            <AltitudeMeters>49.200000762939453125</AltitudeMeters>
            <DistanceMeters>NAN</DistanceMeters>
          </Trackpoint>
          <Trackpoint>
            <Time>2022-07-11T06:36:48.000Z</Time>
            <Position>
              <LatitudeDegrees>43.308155424892902374267578125</LatitudeDegrees>
              <LongitudeDegrees>-2.47001468203961849212646484375</LongitudeDegrees>
            </Position>
            <AltitudeMeters>49.40000152587890625</AltitudeMeters>
            <DistanceMeters>NAN</DistanceMeters>
          </Trackpoint>
          <Trackpoint>
            <Time>2022-07-11T06:36:50.000Z</Time>
            <Position>
              <LatitudeDegrees>43.30811343155801296234130859375</LatitudeDegrees>
              <LongitudeDegrees>-2.47004854492843151092529296875</LongitudeDegrees>
            </Position>
            <AltitudeMeters>49.59999847412109375</AltitudeMeters>
            <DistanceMeters>NAN</DistanceMeters>
          </Trackpoint>
          <Trackpoint>
            <Time>2022-07-11T06:36:57.000Z</Time>
            <Position>
              <LatitudeDegrees>43.307926766574382781982421875</LatitudeDegrees>
              <LongitudeDegrees>-2.47015063650906085968017578125</LongitudeDegrees>
            </Position>
            <AltitudeMeters>49.59999847412109375</AltitudeMeters>
            <DistanceMeters>NAN</DistanceMeters>
          </Trackpoint>
          <Trackpoint>
            <Time>2022-07-11T06:37:07.000Z</Time>
            <Position>
              <LatitudeDegrees>43.3076385967433452606201171875</LatitudeDegrees>
              <LongitudeDegrees>-2.47031073085963726043701171875</LongitudeDegrees>
            </Position>
            <AltitudeMeters>49.799999237060546875</AltitudeMeters>
            <DistanceMeters>NAN</DistanceMeters>
          </Trackpoint>
          <Trackpoint>
            <Time>2022-07-11T06:37:14.000Z</Time>
            <Position>
              <LatitudeDegrees>43.30743114463984966278076171875</LatitudeDegrees>
              <LongitudeDegrees>-2.470424808561801910400390625</LongitudeDegrees>
            </Position>
            <AltitudeMeters>50.200000762939453125</AltitudeMeters>
            <DistanceMeters>NAN</DistanceMeters>
          </Trackpoint>
          <Trackpoint>
            <Time>2022-07-11T06:37:18.000Z</Time>
            <Position>
              <LatitudeDegrees>43.30734849907457828521728515625</LatitudeDegrees>
              <LongitudeDegrees>-2.47047015465795993804931640625</LongitudeDegrees>
            </Position>
            <AltitudeMeters>50.200000762939453125</AltitudeMeters>
            <DistanceMeters>NAN</DistanceMeters>
          </Trackpoint>
          <Trackpoint>
            <Time>2022-07-11T06:37:23.000Z</Time>
            <Position>
              <LatitudeDegrees>43.3072055876255035400390625</LatitudeDegrees>
              <LongitudeDegrees>-2.4705384671688079833984375</LongitudeDegrees>
            </Position>
            <AltitudeMeters>50.59999847412109375</AltitudeMeters>
            <DistanceMeters>NAN</DistanceMeters>
          </Trackpoint>
          <Trackpoint>
            <Time>2022-07-11T06:37:26.000Z</Time>
            <Position>
              <LatitudeDegrees>43.30711129121482372283935546875</LatitudeDegrees>
              <LongitudeDegrees>-2.470599152147769927978515625</LongitudeDegrees>
            </Position>
            <AltitudeMeters>50.59999847412109375</AltitudeMeters>
            <DistanceMeters>NAN</DistanceMeters>
          </Trackpoint>
          <Trackpoint>
            <Time>2022-07-11T06:37:33.000Z</Time>
            <Position>
              <LatitudeDegrees>43.30695471726357936859130859375</LatitudeDegrees>
              <LongitudeDegrees>-2.47069227509200572967529296875</LongitudeDegrees>
            </Position>
            <AltitudeMeters>51</AltitudeMeters>
            <DistanceMeters>NAN</DistanceMeters>
          </Trackpoint>
          <Trackpoint>
            <Time>2022-07-11T06:37:40.000Z</Time>
            <Position>
              <LatitudeDegrees>43.3068272285163402557373046875</LatitudeDegrees>
              <LongitudeDegrees>-2.47073686681687831878662109375</LongitudeDegrees>
            </Position>
            <AltitudeMeters>51.200000762939453125</AltitudeMeters>
            <DistanceMeters>NAN</DistanceMeters>
          </Trackpoint>
          <Trackpoint>
            <Time>2022-07-11T06:37:43.000Z</Time>
            <Position>
              <LatitudeDegrees>43.3067692257463932037353515625</LatitudeDegrees>
              <LongitudeDegrees>-2.470775507390499114990234375</LongitudeDegrees>
            </Position>
            <AltitudeMeters>51.40000152587890625</AltitudeMeters>
            <DistanceMeters>NAN</DistanceMeters>
          </Trackpoint>
          <Trackpoint>
            <Time>2022-07-11T06:37:49.000Z</Time>
            <Position>
              <LatitudeDegrees>43.30666738562285900115966796875</LatitudeDegrees>
              <LongitudeDegrees>-2.47084449045360088348388671875</LongitudeDegrees>
            </Position>
            <AltitudeMeters>51.40000152587890625</AltitudeMeters>
            <DistanceMeters>NAN</DistanceMeters>
          </Trackpoint>
          <Trackpoint>
            <Time>2022-07-11T06:37:54.000Z</Time>
            <Position>
              <LatitudeDegrees>43.30657551996409893035888671875</LatitudeDegrees>
              <LongitudeDegrees>-2.47088489122688770294189453125</LongitudeDegrees>
            </Position>
            <AltitudeMeters>51.59999847412109375</AltitudeMeters>
            <DistanceMeters>NAN</DistanceMeters>
          </Trackpoint>
          <Trackpoint>
            <Time>2022-07-11T06:37:57.000Z</Time>
            <Position>
              <LatitudeDegrees>43.30651500262320041656494140625</LatitudeDegrees>
              <LongitudeDegrees>-2.47091020457446575164794921875</LongitudeDegrees>
            </Position>
            <AltitudeMeters>51.59999847412109375</AltitudeMeters>
            <DistanceMeters>NAN</DistanceMeters>
          </Trackpoint>
          <Trackpoint>
            <Time>2022-07-11T06:38:07.000Z</Time>
            <Position>
              <LatitudeDegrees>43.3063043653964996337890625</LatitudeDegrees>
              <LongitudeDegrees>-2.47102453373372554779052734375</LongitudeDegrees>
            </Position>
            <AltitudeMeters>52.200000762939453125</AltitudeMeters>
            <DistanceMeters>NAN</DistanceMeters>
          </Trackpoint>
          <Trackpoint>
            <Time>2022-07-11T06:38:11.000Z</Time>
            <Position>
              <LatitudeDegrees>43.30624041147530078887939453125</LatitudeDegrees>
              <LongitudeDegrees>-2.471062839031219482421875</LongitudeDegrees>
            </Position>
            <AltitudeMeters>52.40000152587890625</AltitudeMeters>
            <DistanceMeters>NAN</DistanceMeters>
          </Trackpoint>
          <Trackpoint>
            <Time>2022-07-11T06:38:13.000Z</Time>
            <Position>
              <LatitudeDegrees>43.3061617054045200347900390625</LatitudeDegrees>
              <LongitudeDegrees>-2.47110533528029918670654296875</LongitudeDegrees>
            </Position>
            <AltitudeMeters>52.59999847412109375</AltitudeMeters>
            <DistanceMeters>NAN</DistanceMeters>
          </Trackpoint>
          <Trackpoint>
            <Time>2022-07-11T06:38:16.000Z</Time>
            <Position>
              <LatitudeDegrees>43.30607243813574314117431640625</LatitudeDegrees>
              <LongitudeDegrees>-2.4711444787681102752685546875</LongitudeDegrees>
            </Position>
            <AltitudeMeters>52.59999847412109375</AltitudeMeters>
            <DistanceMeters>NAN</DistanceMeters>
          </Trackpoint>
          <Trackpoint>
            <Time>2022-07-11T06:38:21.000Z</Time>
            <Position>
              <LatitudeDegrees>43.30592910759150981903076171875</LatitudeDegrees>
              <LongitudeDegrees>-2.47120256535708904266357421875</LongitudeDegrees>
            </Position>
            <AltitudeMeters>52.799999237060546875</AltitudeMeters>
            <DistanceMeters>NAN</DistanceMeters>
          </Trackpoint>
          <Trackpoint>
            <Time>2022-07-11T06:38:24.000Z</Time>
            <Position>
              <LatitudeDegrees>43.30583757720887660980224609375</LatitudeDegrees>
              <LongitudeDegrees>-2.47123978100717067718505859375</LongitudeDegrees>
            </Position>
            <AltitudeMeters>52.799999237060546875</AltitudeMeters>
            <DistanceMeters>NAN</DistanceMeters>
          </Trackpoint>
          <Trackpoint>
            <Time>2022-07-11T06:38:26.000Z</Time>
            <Position>
              <LatitudeDegrees>43.30577119253575801849365234375</LatitudeDegrees>
              <LongitudeDegrees>-2.47127213515341281890869140625</LongitudeDegrees>
            </Position>
            <AltitudeMeters>52.799999237060546875</AltitudeMeters>
            <DistanceMeters>NAN</DistanceMeters>
          </Trackpoint>
          <Trackpoint>
            <Time>2022-07-11T06:38:29.000Z</Time>
            <Position>
              <LatitudeDegrees>43.30568536184728145599365234375</LatitudeDegrees>
              <LongitudeDegrees>-2.47131739743053913116455078125</LongitudeDegrees>
            </Position>
            <AltitudeMeters>53.200000762939453125</AltitudeMeters>
            <DistanceMeters>NAN</DistanceMeters>
          </Trackpoint>
          <Trackpoint>
            <Time>2022-07-11T06:38:35.000Z</Time>
            <Position>
              <LatitudeDegrees>43.30553255975246429443359375</LatitudeDegrees>
              <LongitudeDegrees>-2.471397109329700469970703125</LongitudeDegrees>
            </Position>
            <AltitudeMeters>53.59999847412109375</AltitudeMeters>
            <DistanceMeters>NAN</DistanceMeters>
          </Trackpoint>
          <Trackpoint>
            <Time>2022-07-11T06:38:40.000Z</Time>
            <Position>
              <LatitudeDegrees>43.30535352230072021484375</LatitudeDegrees>
              <LongitudeDegrees>-2.4714852869510650634765625</LongitudeDegrees>
            </Position>
            <AltitudeMeters>54</AltitudeMeters>
            <DistanceMeters>NAN</DistanceMeters>
          </Trackpoint>
          <Trackpoint>
            <Time>2022-07-11T06:38:51.000Z</Time>
            <Position>
              <LatitudeDegrees>43.30508555285632610321044921875</LatitudeDegrees>
              <LongitudeDegrees>-2.4716329760849475860595703125</LongitudeDegrees>
            </Position>
            <AltitudeMeters>54.40000152587890625</AltitudeMeters>
            <DistanceMeters>NAN</DistanceMeters>
          </Trackpoint>
          <Trackpoint>
            <Time>2022-07-11T06:38:54.000Z</Time>
            <Position>
              <LatitudeDegrees>43.30498212017118930816650390625</LatitudeDegrees>
              <LongitudeDegrees>-2.47168519534170627593994140625</LongitudeDegrees>
            </Position>
            <AltitudeMeters>54.799999237060546875</AltitudeMeters>
            <DistanceMeters>NAN</DistanceMeters>
          </Trackpoint>
          <Trackpoint>
            <Time>2022-07-11T06:39:01.000Z</Time>
            <Position>
              <LatitudeDegrees>43.304813392460346221923828125</LatitudeDegrees>
              <LongitudeDegrees>-2.47175929136574268341064453125</LongitudeDegrees>
            </Position>
            <AltitudeMeters>55.200000762939453125</AltitudeMeters>
            <DistanceMeters>NAN</DistanceMeters>
          </Trackpoint>
          <Trackpoint>
            <Time>2022-07-11T06:39:11.000Z</Time>
            <Position>
              <LatitudeDegrees>43.30450259149074554443359375</LatitudeDegrees>
              <LongitudeDegrees>-2.47190630994737148284912109375</LongitudeDegrees>
            </Position>
            <AltitudeMeters>55.799999237060546875</AltitudeMeters>
            <DistanceMeters>NAN</DistanceMeters>
          </Trackpoint>
          <Trackpoint>
            <Time>2022-07-11T06:39:13.000Z</Time>
            <Position>
              <LatitudeDegrees>43.3044511266052722930908203125</LatitudeDegrees>
              <LongitudeDegrees>-2.4719313718378543853759765625</LongitudeDegrees>
            </Position>
            <AltitudeMeters>55.799999237060546875</AltitudeMeters>
            <DistanceMeters>NAN</DistanceMeters>
          </Trackpoint>
          <Trackpoint>
            <Time>2022-07-11T06:39:22.000Z</Time>
            <Position>
              <LatitudeDegrees>43.30422389321029186248779296875</LatitudeDegrees>
              <LongitudeDegrees>-2.47202583588659763336181640625</LongitudeDegrees>
            </Position>
            <AltitudeMeters>56.59999847412109375</AltitudeMeters>
            <DistanceMeters>NAN</DistanceMeters>
          </Trackpoint>
          <Trackpoint>
            <Time>2022-07-11T06:39:26.000Z</Time>
            <Position>
              <LatitudeDegrees>43.304137475788593292236328125</LatitudeDegrees>
              <LongitudeDegrees>-2.47207679785788059234619140625</LongitudeDegrees>
            </Position>
            <AltitudeMeters>56.799999237060546875</AltitudeMeters>
            <DistanceMeters>NAN</DistanceMeters>
          </Trackpoint>
          <Trackpoint>
            <Time>2022-07-11T06:39:32.000Z</Time>
            <Position>
              <LatitudeDegrees>43.30403747968375682830810546875</LatitudeDegrees>
              <LongitudeDegrees>-2.47213044203817844390869140625</LongitudeDegrees>
            </Position>
            <AltitudeMeters>57.40000152587890625</AltitudeMeters>
            <DistanceMeters>NAN</DistanceMeters>
          </Trackpoint>
          <Trackpoint>
            <Time>2022-07-11T06:39:36.000Z</Time>
            <Position>
              <LatitudeDegrees>43.303959779441356658935546875</LatitudeDegrees>
              <LongitudeDegrees>-2.47216857969760894775390625</LongitudeDegrees>
            </Position>
            <AltitudeMeters>58</AltitudeMeters>
            <DistanceMeters>NAN</DistanceMeters>
          </Trackpoint>
          <Trackpoint>
            <Time>2022-07-11T06:39:41.000Z</Time>
            <Position>
              <LatitudeDegrees>43.303877301514148712158203125</LatitudeDegrees>
              <LongitudeDegrees>-2.4722014367580413818359375</LongitudeDegrees>
            </Position>
            <AltitudeMeters>58.40000152587890625</AltitudeMeters>
            <DistanceMeters>NAN</DistanceMeters>
          </Trackpoint>
          <Trackpoint>
            <Time>2022-07-11T06:39:46.000Z</Time>
            <Position>
              <LatitudeDegrees>43.3037876151502132415771484375</LatitudeDegrees>
              <LongitudeDegrees>-2.47223563492298126220703125</LongitudeDegrees>
            </Position>
            <AltitudeMeters>59</AltitudeMeters>
            <DistanceMeters>NAN</DistanceMeters>
          </Trackpoint>
          <Trackpoint>
            <Time>2022-07-11T06:39:52.000Z</Time>
            <Position>
              <LatitudeDegrees>43.3036927320063114166259765625</LatitudeDegrees>
              <LongitudeDegrees>-2.472274862229824066162109375</LongitudeDegrees>
            </Position>
            <AltitudeMeters>59.200000762939453125</AltitudeMeters>
            <DistanceMeters>NAN</DistanceMeters>
          </Trackpoint>
          <Trackpoint>
            <Time>2022-07-11T06:39:59.000Z</Time>
            <Position>
              <LatitudeDegrees>43.30356826074421405792236328125</LatitudeDegrees>
              <LongitudeDegrees>-2.47231383807957172393798828125</LongitudeDegrees>
            </Position>
            <AltitudeMeters>60</AltitudeMeters>
            <DistanceMeters>NAN</DistanceMeters>
          </Trackpoint>
          <Trackpoint>
            <Time>2022-07-11T06:40:03.000Z</Time>
            <Position>
              <LatitudeDegrees>43.30351822078227996826171875</LatitudeDegrees>
              <LongitudeDegrees>-2.472341246902942657470703125</LongitudeDegrees>
            </Position>
            <AltitudeMeters>60.200000762939453125</AltitudeMeters>
            <DistanceMeters>NAN</DistanceMeters>
          </Trackpoint>
          <Trackpoint>
            <Time>2022-07-11T06:40:07.000Z</Time>
            <Position>
              <LatitudeDegrees>43.30343163572251796722412109375</LatitudeDegrees>
              <LongitudeDegrees>-2.47237787581980228424072265625</LongitudeDegrees>
            </Position>
            <AltitudeMeters>60.59999847412109375</AltitudeMeters>
            <DistanceMeters>NAN</DistanceMeters>
          </Trackpoint>
          <Trackpoint>
            <Time>2022-07-11T06:40:11.000Z</Time>
            <Position>
              <LatitudeDegrees>43.30338100902736186981201171875</LatitudeDegrees>
              <LongitudeDegrees>-2.472402937710285186767578125</LongitudeDegrees>
            </Position>
            <AltitudeMeters>61</AltitudeMeters>
            <DistanceMeters>NAN</DistanceMeters>
          </Trackpoint>
          <Trackpoint>
            <Time>2022-07-11T06:40:18.000Z</Time>
            <Position>
              <LatitudeDegrees>43.3032283745706081390380859375</LatitudeDegrees>
              <LongitudeDegrees>-2.47246689163148403167724609375</LongitudeDegrees>
            </Position>
            <AltitudeMeters>61.59999847412109375</AltitudeMeters>
            <DistanceMeters>NAN</DistanceMeters>
          </Trackpoint>
          <Trackpoint>
            <Time>2022-07-11T06:40:23.000Z</Time>
            <Position>
              <LatitudeDegrees>43.30314807593822479248046875</LatitudeDegrees>
              <LongitudeDegrees>-2.47251349501311779022216796875</LongitudeDegrees>
            </Position>
            <AltitudeMeters>62.200000762939453125</AltitudeMeters>
            <DistanceMeters>NAN</DistanceMeters>
          </Trackpoint>
          <Trackpoint>
            <Time>2022-07-11T06:40:29.000Z</Time>
            <Position>
              <LatitudeDegrees>43.3030526898801326751708984375</LatitudeDegrees>
              <LongitudeDegrees>-2.4725647084414958953857421875</LongitudeDegrees>
            </Position>
            <AltitudeMeters>62.59999847412109375</AltitudeMeters>
            <DistanceMeters>NAN</DistanceMeters>
          </Trackpoint>
          <Trackpoint>
            <Time>2022-07-11T06:40:34.000Z</Time>
            <Position>
              <LatitudeDegrees>43.30296426080167293548583984375</LatitudeDegrees>
              <LongitudeDegrees>-2.4725984036922454833984375</LongitudeDegrees>
            </Position>
            <AltitudeMeters>63.200000762939453125</AltitudeMeters>
            <DistanceMeters>NAN</DistanceMeters>
          </Trackpoint>
          <Trackpoint>
            <Time>2022-07-11T06:40:37.000Z</Time>
            <Position>
              <LatitudeDegrees>43.30291028134524822235107421875</LatitudeDegrees>
              <LongitudeDegrees>-2.47263939119875431060791015625</LongitudeDegrees>
            </Position>
            <AltitudeMeters>63.40000152587890625</AltitudeMeters>
            <DistanceMeters>NAN</DistanceMeters>
          </Trackpoint>
          <Trackpoint>
            <Time>2022-07-11T06:40:42.000Z</Time>
            <Position>
              <LatitudeDegrees>43.3028314076364040374755859375</LatitudeDegrees>
              <LongitudeDegrees>-2.4726978130638599395751953125</LongitudeDegrees>
            </Position>
            <AltitudeMeters>64.1999969482421875</AltitudeMeters>
            <DistanceMeters>NAN</DistanceMeters>
          </Trackpoint>
          <Trackpoint>
            <Time>2022-07-11T06:40:43.000Z</Time>
            <Position>
              <LatitudeDegrees>43.3028153143823146820068359375</LatitudeDegrees>
              <LongitudeDegrees>-2.47270829044282436370849609375</LongitudeDegrees>
            </Position>
            <AltitudeMeters>64.1999969482421875</AltitudeMeters>
            <DistanceMeters>NAN</DistanceMeters>
          </Trackpoint>
          <Trackpoint>
            <Time>2022-07-11T06:40:46.000Z</Time>
            <Position>
              <LatitudeDegrees>43.302762843668460845947265625</LatitudeDegrees>
              <LongitudeDegrees>-2.4727511219680309295654296875</LongitudeDegrees>
            </Position>
            <AltitudeMeters>64.59999847412109375</AltitudeMeters>
            <DistanceMeters>NAN</DistanceMeters>
          </Trackpoint>
          <Trackpoint>
            <Time>2022-07-11T06:40:53.000Z</Time>
            <Position>
              <LatitudeDegrees>43.30265480093657970428466796875</LatitudeDegrees>
              <LongitudeDegrees>-2.47283536009490489959716796875</LongitudeDegrees>
            </Position>
            <AltitudeMeters>65.40000152587890625</AltitudeMeters>
            <DistanceMeters>NAN</DistanceMeters>
          </Trackpoint>
          <Trackpoint>
            <Time>2022-07-11T06:40:54.000Z</Time>
            <Position>
              <LatitudeDegrees>43.30263971351087093353271484375</LatitudeDegrees>
              <LongitudeDegrees>-2.47285262681543827056884765625</LongitudeDegrees>
            </Position>
            <AltitudeMeters>65.40000152587890625</AltitudeMeters>
            <DistanceMeters>NAN</DistanceMeters>
          </Trackpoint>
          <Trackpoint>
            <Time>2022-07-11T06:41:02.000Z</Time>
            <Position>
              <LatitudeDegrees>43.3025209419429302215576171875</LatitudeDegrees>
              <LongitudeDegrees>-2.4729727394878864288330078125</LongitudeDegrees>
            </Position>
            <AltitudeMeters>66.40000152587890625</AltitudeMeters>
            <DistanceMeters>NAN</DistanceMeters>
          </Trackpoint>
          <Trackpoint>
            <Time>2022-07-11T06:41:03.000Z</Time>
            <Position>
              <LatitudeDegrees>43.3025209419429302215576171875</LatitudeDegrees>
              <LongitudeDegrees>-2.4729727394878864288330078125</LongitudeDegrees>
            </Position>
            <AltitudeMeters>66.59999847412109375</AltitudeMeters>
            <DistanceMeters>NAN</DistanceMeters>
          </Trackpoint>
          <Trackpoint>
            <Time>2022-07-11T06:41:10.000Z</Time>
            <Position>
              <LatitudeDegrees>43.3023982308804988861083984375</LatitudeDegrees>
              <LongitudeDegrees>-2.473095618188381195068359375</LongitudeDegrees>
            </Position>
            <AltitudeMeters>67</AltitudeMeters>
            <DistanceMeters>NAN</DistanceMeters>
          </Trackpoint>
          <Trackpoint>
            <Time>2022-07-11T06:41:17.000Z</Time>
            <Position>
              <LatitudeDegrees>43.30230309627950191497802734375</LatitudeDegrees>
              <LongitudeDegrees>-2.4732138030230998992919921875</LongitudeDegrees>
            </Position>
            <AltitudeMeters>67.59999847412109375</AltitudeMeters>
            <DistanceMeters>NAN</DistanceMeters>
          </Trackpoint>
          <Trackpoint>
            <Time>2022-07-11T06:41:23.000Z</Time>
            <Position>
              <LatitudeDegrees>43.30221005715429782867431640625</LatitudeDegrees>
              <LongitudeDegrees>-2.4732946045696735382080078125</LongitudeDegrees>
            </Position>
            <AltitudeMeters>68.1999969482421875</AltitudeMeters>
            <DistanceMeters>NAN</DistanceMeters>
          </Trackpoint>
          <Trackpoint>
            <Time>2022-07-11T06:41:26.000Z</Time>
            <Position>
              <LatitudeDegrees>43.30215943045914173126220703125</LatitudeDegrees>
              <LongitudeDegrees>-2.47332863509654998779296875</LongitudeDegrees>
            </Position>
            <AltitudeMeters>68.59999847412109375</AltitudeMeters>
            <DistanceMeters>NAN</DistanceMeters>
          </Trackpoint>
          <Trackpoint>
            <Time>2022-07-11T06:41:31.000Z</Time>
            <Position>
              <LatitudeDegrees>43.30207896418869495391845703125</LatitudeDegrees>
              <LongitudeDegrees>-2.47336962260305881500244140625</LongitudeDegrees>
            </Position>
            <AltitudeMeters>69</AltitudeMeters>
            <DistanceMeters>NAN</DistanceMeters>
          </Trackpoint>
          <Trackpoint>
            <Time>2022-07-11T06:41:41.000Z</Time>
            <Position>
              <LatitudeDegrees>43.30189011991024017333984375</LatitudeDegrees>
              <LongitudeDegrees>-2.47340650297701358795166015625</LongitudeDegrees>
            </Position>
            <AltitudeMeters>69.59999847412109375</AltitudeMeters>
            <DistanceMeters>NAN</DistanceMeters>
          </Trackpoint>
          <Trackpoint>
            <Time>2022-07-11T06:41:50.000Z</Time>
            <Position>
              <LatitudeDegrees>43.3017082326114177703857421875</LatitudeDegrees>
              <LongitudeDegrees>-2.47335939668118953704833984375</LongitudeDegrees>
            </Position>
            <AltitudeMeters>70.1999969482421875</AltitudeMeters>
            <DistanceMeters>NAN</DistanceMeters>
          </Trackpoint>
          <Trackpoint>
            <Time>2022-07-11T06:41:55.000Z</Time>
            <Position>
              <LatitudeDegrees>43.30159113742411136627197265625</LatitudeDegrees>
              <LongitudeDegrees>-2.47333492152392864227294921875</LongitudeDegrees>
            </Position>
            <AltitudeMeters>70.40000152587890625</AltitudeMeters>
            <DistanceMeters>NAN</DistanceMeters>
          </Trackpoint>
          <Trackpoint>
            <Time>2022-07-11T06:42:04.000Z</Time>
            <Position>
              <LatitudeDegrees>43.3013930730521678924560546875</LatitudeDegrees>
              <LongitudeDegrees>-2.47321774251759052276611328125</LongitudeDegrees>
            </Position>
            <AltitudeMeters>70.8000030517578125</AltitudeMeters>
            <DistanceMeters>NAN</DistanceMeters>
          </Trackpoint>
          <Trackpoint>
            <Time>2022-07-11T06:42:11.000Z</Time>
            <Position>
              <LatitudeDegrees>43.3012190647423267364501953125</LatitudeDegrees>
              <LongitudeDegrees>-2.4731296487152576446533203125</LongitudeDegrees>
            </Position>
            <AltitudeMeters>70.8000030517578125</AltitudeMeters>
            <DistanceMeters>NAN</DistanceMeters>
          </Trackpoint>
          <Trackpoint>
            <Time>2022-07-11T06:42:13.000Z</Time>
            <Position>
              <LatitudeDegrees>43.30116416327655315399169921875</LatitudeDegrees>
              <LongitudeDegrees>-2.47310073114931583404541015625</LongitudeDegrees>
            </Position>
            <AltitudeMeters>70.8000030517578125</AltitudeMeters>
            <DistanceMeters>NAN</DistanceMeters>
          </Trackpoint>
          <Trackpoint>
            <Time>2022-07-11T06:42:21.000Z</Time>
            <Position>
              <LatitudeDegrees>43.300931565463542938232421875</LatitudeDegrees>
              <LongitudeDegrees>-2.4729613400995731353759765625</LongitudeDegrees>
            </Position>
            <AltitudeMeters>70.8000030517578125</AltitudeMeters>
            <DistanceMeters>NAN</DistanceMeters>
          </Trackpoint>
          <Trackpoint>
            <Time>2022-07-11T06:42:28.000Z</Time>
            <Position>
              <LatitudeDegrees>43.30068941228091716766357421875</LatitudeDegrees>
              <LongitudeDegrees>-2.4728129804134368896484375</LongitudeDegrees>
            </Position>
            <AltitudeMeters>70.8000030517578125</AltitudeMeters>
            <DistanceMeters>NAN</DistanceMeters>
          </Trackpoint>
          <Trackpoint>
            <Time>2022-07-11T06:42:34.000Z</Time>
            <Position>
              <LatitudeDegrees>43.300429321825504302978515625</LatitudeDegrees>
              <LongitudeDegrees>-2.4726761877536773681640625</LongitudeDegrees>
            </Position>
            <AltitudeMeters>70.40000152587890625</AltitudeMeters>
            <DistanceMeters>NAN</DistanceMeters>
          </Trackpoint>
          <Trackpoint>
            <Time>2022-07-11T06:42:40.000Z</Time>
            <Position>
              <LatitudeDegrees>43.300136961042881011962890625</LatitudeDegrees>
              <LongitudeDegrees>-2.47259882278740406036376953125</LongitudeDegrees>
            </Position>
            <AltitudeMeters>69.8000030517578125</AltitudeMeters>
            <DistanceMeters>NAN</DistanceMeters>
          </Trackpoint>
          <Trackpoint>
            <Time>2022-07-11T06:42:41.000Z</Time>
            <Position>
              <LatitudeDegrees>43.30008306540548801422119140625</LatitudeDegrees>
              <LongitudeDegrees>-2.472587339580059051513671875</LongitudeDegrees>
            </Position>
            <AltitudeMeters>69.40000152587890625</AltitudeMeters>
            <DistanceMeters>NAN</DistanceMeters>
          </Trackpoint>
          <Trackpoint>
            <Time>2022-07-11T06:42:42.000Z</Time>
            <Position>
              <LatitudeDegrees>43.3000251464545726776123046875</LatitudeDegrees>
              <LongitudeDegrees>-2.47257770039141178131103515625</LongitudeDegrees>
            </Position>
            <AltitudeMeters>69.1999969482421875</AltitudeMeters>
            <DistanceMeters>NAN</DistanceMeters>
          </Trackpoint>
          <Trackpoint>
            <Time>2022-07-11T06:42:47.000Z</Time>
            <Position>
              <LatitudeDegrees>43.29970923252403736114501953125</LatitudeDegrees>
              <LongitudeDegrees>-2.472561188042163848876953125</LongitudeDegrees>
            </Position>
            <AltitudeMeters>68.1999969482421875</AltitudeMeters>
            <DistanceMeters>NAN</DistanceMeters>
          </Trackpoint>
          <Trackpoint>
            <Time>2022-07-11T06:42:48.000Z</Time>
            <Position>
              <LatitudeDegrees>43.29963932745158672332763671875</LatitudeDegrees>
              <LongitudeDegrees>-2.4725663848221302032470703125</LongitudeDegrees>
            </Position>
            <AltitudeMeters>67.8000030517578125</AltitudeMeters>
            <DistanceMeters>NAN</DistanceMeters>
          </Trackpoint>
          <Trackpoint>
            <Time>2022-07-11T06:42:51.000Z</Time>
            <Position>
              <LatitudeDegrees>43.29942424781620502471923828125</LatitudeDegrees>
              <LongitudeDegrees>-2.47260502539575099945068359375</LongitudeDegrees>
            </Position>
            <AltitudeMeters>67.1999969482421875</AltitudeMeters>
            <DistanceMeters>NAN</DistanceMeters>
          </Trackpoint>
          <Trackpoint>
            <Time>2022-07-11T06:42:54.000Z</Time>
            <Position>
              <LatitudeDegrees>43.29921604134142398834228515625</LatitudeDegrees>
              <LongitudeDegrees>-2.4726788699626922607421875</LongitudeDegrees>
            </Position>
            <AltitudeMeters>66.40000152587890625</AltitudeMeters>
            <DistanceMeters>NAN</DistanceMeters>
          </Trackpoint>
          <Trackpoint>
            <Time>2022-07-11T06:42:55.000Z</Time>
            <Position>
              <LatitudeDegrees>43.299144543707370758056640625</LatitudeDegrees>
              <LongitudeDegrees>-2.47270862571895122528076171875</LongitudeDegrees>
            </Position>
            <AltitudeMeters>65.8000030517578125</AltitudeMeters>
            <DistanceMeters>NAN</DistanceMeters>
          </Trackpoint>
          <Trackpoint>
            <Time>2022-07-11T06:42:58.000Z</Time>
            <Position>
              <LatitudeDegrees>43.29893021844327449798583984375</LatitudeDegrees>
              <LongitudeDegrees>-2.472822032868862152099609375</LongitudeDegrees>
            </Position>
            <AltitudeMeters>64.8000030517578125</AltitudeMeters>
            <DistanceMeters>NAN</DistanceMeters>
          </Trackpoint>
          <Trackpoint>
            <Time>2022-07-11T06:43:00.000Z</Time>
            <Position>
              <LatitudeDegrees>43.29878554679453372955322265625</LatitudeDegrees>
              <LongitudeDegrees>-2.47292672283947467803955078125</LongitudeDegrees>
            </Position>
            <AltitudeMeters>63.799999237060546875</AltitudeMeters>
            <DistanceMeters>NAN</DistanceMeters>
          </Trackpoint>
          <Trackpoint>
            <Time>2022-07-11T06:43:01.000Z</Time>
            <Position>
              <LatitudeDegrees>43.2987148873507976531982421875</LatitudeDegrees>
              <LongitudeDegrees>-2.47298707254230976104736328125</LongitudeDegrees>
            </Position>
            <AltitudeMeters>63.59999847412109375</AltitudeMeters>
            <DistanceMeters>NAN</DistanceMeters>
          </Trackpoint>
          <Trackpoint>
            <Time>2022-07-11T06:43:04.000Z</Time>
            <Position>
              <LatitudeDegrees>43.29850425012409687042236328125</LatitudeDegrees>
              <LongitudeDegrees>-2.47319444082677364349365234375</LongitudeDegrees>
            </Position>
            <AltitudeMeters>62.40000152587890625</AltitudeMeters>
            <DistanceMeters>NAN</DistanceMeters>
          </Trackpoint>
          <Trackpoint>
            <Time>2022-07-11T06:43:06.000Z</Time>
            <Position>
              <LatitudeDegrees>43.2983729057013988494873046875</LatitudeDegrees>
              <LongitudeDegrees>-2.4733599834144115447998046875</LongitudeDegrees>
            </Position>
            <AltitudeMeters>61.59999847412109375</AltitudeMeters>
            <DistanceMeters>NAN</DistanceMeters>
          </Trackpoint>
          <Trackpoint>
            <Time>2022-07-11T06:43:07.000Z</Time>
            <Position>
              <LatitudeDegrees>43.29831230454146862030029296875</LatitudeDegrees>
              <LongitudeDegrees>-2.47344137169420719146728515625</LongitudeDegrees>
            </Position>
            <AltitudeMeters>61.200000762939453125</AltitudeMeters>
            <DistanceMeters>NAN</DistanceMeters>
          </Trackpoint>
          <Trackpoint>
            <Time>2022-07-11T06:43:10.000Z</Time>
            <Position>
              <LatitudeDegrees>43.298134021461009979248046875</LatitudeDegrees>
              <LongitudeDegrees>-2.47368000447750091552734375</LongitudeDegrees>
            </Position>
            <AltitudeMeters>60.59999847412109375</AltitudeMeters>
            <DistanceMeters>NAN</DistanceMeters>
          </Trackpoint>
          <Trackpoint>
            <Time>2022-07-11T06:43:12.000Z</Time>
            <Position>
              <LatitudeDegrees>43.29801625572144985198974609375</LatitudeDegrees>
              <LongitudeDegrees>-2.4738498218357563018798828125</LongitudeDegrees>
            </Position>
            <AltitudeMeters>60</AltitudeMeters>
            <DistanceMeters>NAN</DistanceMeters>
          </Trackpoint>
          <Trackpoint>
            <Time>2022-07-11T06:43:14.000Z</Time>
            <Position>
              <LatitudeDegrees>43.29790846444666385650634765625</LatitudeDegrees>
              <LongitudeDegrees>-2.47400027699768543243408203125</LongitudeDegrees>
            </Position>
            <AltitudeMeters>59.59999847412109375</AltitudeMeters>
            <DistanceMeters>NAN</DistanceMeters>
          </Trackpoint>
          <Trackpoint>
            <Time>2022-07-11T06:43:16.000Z</Time>
            <Position>
              <LatitudeDegrees>43.29785968177020549774169921875</LatitudeDegrees>
              <LongitudeDegrees>-2.47407353483140468597412109375</LongitudeDegrees>
            </Position>
            <AltitudeMeters>59</AltitudeMeters>
            <DistanceMeters>NAN</DistanceMeters>
          </Trackpoint>
          <Trackpoint>
            <Time>2022-07-11T06:43:17.000Z</Time>
            <Position>
              <LatitudeDegrees>43.29776647500693798065185546875</LatitudeDegrees>
              <LongitudeDegrees>-2.47422575019299983978271484375</LongitudeDegrees>
            </Position>
            <AltitudeMeters>58.799999237060546875</AltitudeMeters>
            <DistanceMeters>NAN</DistanceMeters>
          </Trackpoint>
          <Trackpoint>
            <Time>2022-07-11T06:43:19.000Z</Time>
            <Position>
              <LatitudeDegrees>43.29769941978156566619873046875</LatitudeDegrees>
              <LongitudeDegrees>-2.474394142627716064453125</LongitudeDegrees>
            </Position>
            <AltitudeMeters>58</AltitudeMeters>
            <DistanceMeters>NAN</DistanceMeters>
          </Trackpoint>
          <Trackpoint>
            <Time>2022-07-11T06:43:22.000Z</Time>
            <Position>
              <LatitudeDegrees>43.2976584322750568389892578125</LatitudeDegrees>
              <LongitudeDegrees>-2.474664710462093353271484375</LongitudeDegrees>
            </Position>
            <AltitudeMeters>57.200000762939453125</AltitudeMeters>
            <DistanceMeters>NAN</DistanceMeters>
          </Trackpoint>
          <Trackpoint>
            <Time>2022-07-11T06:43:23.000Z</Time>
            <Position>
              <LatitudeDegrees>43.2976510562002658843994140625</LatitudeDegrees>
              <LongitudeDegrees>-2.4747468531131744384765625</LongitudeDegrees>
            </Position>
            <AltitudeMeters>57</AltitudeMeters>
            <DistanceMeters>NAN</DistanceMeters>
          </Trackpoint>
          <Trackpoint>
            <Time>2022-07-11T06:43:24.000Z</Time>
            <Position>
              <LatitudeDegrees>43.29764376394450664520263671875</LatitudeDegrees>
              <LongitudeDegrees>-2.47482220642268657684326171875</LongitudeDegrees>
            </Position>
            <AltitudeMeters>56.799999237060546875</AltitudeMeters>
            <DistanceMeters>NAN</DistanceMeters>
          </Trackpoint>
          <Trackpoint>
            <Time>2022-07-11T06:43:25.000Z</Time>
            <Position>
              <LatitudeDegrees>43.29763404093682765960693359375</LatitudeDegrees>
              <LongitudeDegrees>-2.47489345259964466094970703125</LongitudeDegrees>
            </Position>
            <AltitudeMeters>56.799999237060546875</AltitudeMeters>
            <DistanceMeters>NAN</DistanceMeters>
          </Trackpoint>
          <Trackpoint>
            <Time>2022-07-11T06:43:27.000Z</Time>
            <Position>
              <LatitudeDegrees>43.2976005971431732177734375</LatitudeDegrees>
              <LongitudeDegrees>-2.47502957470715045928955078125</LongitudeDegrees>
            </Position>
            <AltitudeMeters>56.59999847412109375</AltitudeMeters>
            <DistanceMeters>NAN</DistanceMeters>
          </Trackpoint>
          <Trackpoint>
            <Time>2022-07-11T06:43:28.000Z</Time>
            <Position>
              <LatitudeDegrees>43.29757570289075374603271484375</LatitudeDegrees>
              <LongitudeDegrees>-2.47508992440998554229736328125</LongitudeDegrees>
            </Position>
            <AltitudeMeters>56.59999847412109375</AltitudeMeters>
            <DistanceMeters>NAN</DistanceMeters>
          </Trackpoint>
          <Trackpoint>
            <Time>2022-07-11T06:43:29.000Z</Time>
            <Position>
              <LatitudeDegrees>43.29754334874451160430908203125</LatitudeDegrees>
              <LongitudeDegrees>-2.47514205984771251678466796875</LongitudeDegrees>
            </Position>
            <AltitudeMeters>56.799999237060546875</AltitudeMeters>
            <DistanceMeters>NAN</DistanceMeters>
          </Trackpoint>
          <Trackpoint>
            <Time>2022-07-11T06:43:32.000Z</Time>
            <Position>
              <LatitudeDegrees>43.29743471927940845489501953125</LatitudeDegrees>
              <LongitudeDegrees>-2.47526829130947589874267578125</LongitudeDegrees>
            </Position>
            <AltitudeMeters>57.40000152587890625</AltitudeMeters>
            <DistanceMeters>NAN</DistanceMeters>
          </Trackpoint>
          <Trackpoint>
            <Time>2022-07-11T06:43:33.000Z</Time>
            <Position>
              <LatitudeDegrees>43.297395072877407073974609375</LatitudeDegrees>
              <LongitudeDegrees>-2.47529846616089344024658203125</LongitudeDegrees>
            </Position>
            <AltitudeMeters>57.59999847412109375</AltitudeMeters>
            <DistanceMeters>NAN</DistanceMeters>
          </Trackpoint>
          <Trackpoint>
            <Time>2022-07-11T06:43:37.000Z</Time>
            <Position>
              <LatitudeDegrees>43.29726004041731357574462890625</LatitudeDegrees>
              <LongitudeDegrees>-2.475385554134845733642578125</LongitudeDegrees>
            </Position>
            <AltitudeMeters>58</AltitudeMeters>
            <DistanceMeters>NAN</DistanceMeters>
          </Trackpoint>
          <Trackpoint>
            <Time>2022-07-11T06:43:39.000Z</Time>
            <Position>
              <LatitudeDegrees>43.29722106456756591796875</LatitudeDegrees>
              <LongitudeDegrees>-2.47541748918592929840087890625</LongitudeDegrees>
            </Position>
            <AltitudeMeters>58.200000762939453125</AltitudeMeters>
            <DistanceMeters>NAN</DistanceMeters>
          </Trackpoint>
          <Trackpoint>
            <Time>2022-07-11T06:43:43.000Z</Time>
            <Position>
              <LatitudeDegrees>43.29719834960997104644775390625</LatitudeDegrees>
              <LongitudeDegrees>-2.475440204143524169921875</LongitudeDegrees>
            </Position>
            <AltitudeMeters>58.59999847412109375</AltitudeMeters>
            <DistanceMeters>NAN</DistanceMeters>
          </Trackpoint>
          <Trackpoint>
            <Time>2022-07-11T06:43:56.000Z</Time>
            <Position>
              <LatitudeDegrees>43.2971575297415256500244140625</LatitudeDegrees>
              <LongitudeDegrees>-2.47545671649277210235595703125</LongitudeDegrees>
            </Position>
            <AltitudeMeters>58.59999847412109375</AltitudeMeters>
            <DistanceMeters>NAN</DistanceMeters>
          </Trackpoint>
          <Trackpoint>
            <Time>2022-07-11T06:43:59.000Z</Time>
            <Position>
              <LatitudeDegrees>43.2971129380166530609130859375</LatitudeDegrees>
              <LongitudeDegrees>-2.4754750728607177734375</LongitudeDegrees>
            </Position>
            <AltitudeMeters>59</AltitudeMeters>
            <DistanceMeters>NAN</DistanceMeters>
          </Trackpoint>
          <Trackpoint>
            <Time>2022-07-11T06:44:02.000Z</Time>
            <Position>
              <LatitudeDegrees>43.29707446508109569549560546875</LatitudeDegrees>
              <LongitudeDegrees>-2.4754879809916019439697265625</LongitudeDegrees>
            </Position>
            <AltitudeMeters>59.59999847412109375</AltitudeMeters>
            <DistanceMeters>NAN</DistanceMeters>
          </Trackpoint>
          <Trackpoint>
            <Time>2022-07-11T06:44:07.000Z</Time>
            <Position>
              <LatitudeDegrees>43.2969862036406993865966796875</LatitudeDegrees>
              <LongitudeDegrees>-2.475528717041015625</LongitudeDegrees>
            </Position>
            <AltitudeMeters>60</AltitudeMeters>
            <DistanceMeters>NAN</DistanceMeters>
          </Trackpoint>
          <Trackpoint>
            <Time>2022-07-11T06:44:08.000Z</Time>
            <Position>
              <LatitudeDegrees>43.29697187058627605438232421875</LatitudeDegrees>
              <LongitudeDegrees>-2.47553634457290172576904296875</LongitudeDegrees>
            </Position>
            <AltitudeMeters>60</AltitudeMeters>
            <DistanceMeters>NAN</DistanceMeters>
          </Trackpoint>
          <Trackpoint>
            <Time>2022-07-11T06:44:16.000Z</Time>
            <Position>
              <LatitudeDegrees>43.2968567870557308197021484375</LatitudeDegrees>
              <LongitudeDegrees>-2.475576661527156829833984375</LongitudeDegrees>
            </Position>
            <AltitudeMeters>61</AltitudeMeters>
            <DistanceMeters>NAN</DistanceMeters>
          </Trackpoint>
          <Trackpoint>
            <Time>2022-07-11T06:44:17.000Z</Time>
            <Position>
              <LatitudeDegrees>43.296835832297801971435546875</LatitudeDegrees>
              <LongitudeDegrees>-2.47558294795453548431396484375</LongitudeDegrees>
            </Position>
            <AltitudeMeters>61.200000762939453125</AltitudeMeters>
            <DistanceMeters>NAN</DistanceMeters>
          </Trackpoint>
          <Trackpoint>
            <Time>2022-07-11T06:44:25.000Z</Time>
            <Position>
              <LatitudeDegrees>43.296711109578609466552734375</LatitudeDegrees>
              <LongitudeDegrees>-2.47559971176087856292724609375</LongitudeDegrees>
            </Position>
            <AltitudeMeters>62</AltitudeMeters>
            <DistanceMeters>NAN</DistanceMeters>
          </Trackpoint>
          <Trackpoint>
            <Time>2022-07-11T06:44:26.000Z</Time>
            <Position>
              <LatitudeDegrees>43.296698369085788726806640625</LatitudeDegrees>
              <LongitudeDegrees>-2.47560641728341579437255859375</LongitudeDegrees>
            </Position>
            <AltitudeMeters>62.200000762939453125</AltitudeMeters>
            <DistanceMeters>NAN</DistanceMeters>
          </Trackpoint>
          <Trackpoint>
            <Time>2022-07-11T06:44:33.000Z</Time>
            <Position>
              <LatitudeDegrees>43.29658395610749721527099609375</LatitudeDegrees>
              <LongitudeDegrees>-2.47563592158257961273193359375</LongitudeDegrees>
            </Position>
            <AltitudeMeters>62.799999237060546875</AltitudeMeters>
            <DistanceMeters>NAN</DistanceMeters>
          </Trackpoint>
          <Trackpoint>
            <Time>2022-07-11T06:44:36.000Z</Time>
            <Position>
              <LatitudeDegrees>43.2965365983545780181884765625</LatitudeDegrees>
              <LongitudeDegrees>-2.47564748860895633697509765625</LongitudeDegrees>
            </Position>
            <AltitudeMeters>63</AltitudeMeters>
            <DistanceMeters>NAN</DistanceMeters>
          </Trackpoint>
          <Trackpoint>
            <Time>2022-07-11T06:44:38.000Z</Time>
            <Position>
              <LatitudeDegrees>43.29650298692286014556884765625</LatitudeDegrees>
              <LongitudeDegrees>-2.47566391713917255401611328125</LongitudeDegrees>
            </Position>
            <AltitudeMeters>63.40000152587890625</AltitudeMeters>
            <DistanceMeters>NAN</DistanceMeters>
          </Trackpoint>
          <Trackpoint>
            <Time>2022-07-11T06:44:40.000Z</Time>
            <Position>
              <LatitudeDegrees>43.29646962694823741912841796875</LatitudeDegrees>
              <LongitudeDegrees>-2.47566693462431430816650390625</LongitudeDegrees>
            </Position>
            <AltitudeMeters>63.40000152587890625</AltitudeMeters>
            <DistanceMeters>NAN</DistanceMeters>
          </Trackpoint>
          <Trackpoint>
            <Time>2022-07-11T06:44:42.000Z</Time>
            <Position>
              <LatitudeDegrees>43.29643928445875644683837890625</LatitudeDegrees>
              <LongitudeDegrees>-2.475672550499439239501953125</LongitudeDegrees>
            </Position>
            <AltitudeMeters>63.59999847412109375</AltitudeMeters>
            <DistanceMeters>NAN</DistanceMeters>
          </Trackpoint>
          <Trackpoint>
            <Time>2022-07-11T06:44:50.000Z</Time>
            <Position>
              <LatitudeDegrees>43.29632881097495555877685546875</LatitudeDegrees>
              <LongitudeDegrees>-2.4757357500493526458740234375</LongitudeDegrees>
            </Position>
            <AltitudeMeters>64.40000152587890625</AltitudeMeters>
            <DistanceMeters>NAN</DistanceMeters>
          </Trackpoint>
          <Trackpoint>
            <Time>2022-07-11T06:44:56.000Z</Time>
            <Position>
              <LatitudeDegrees>43.296263515949249267578125</LatitudeDegrees>
              <LongitudeDegrees>-2.47581160627305507659912109375</LongitudeDegrees>
            </Position>
            <AltitudeMeters>64.59999847412109375</AltitudeMeters>
            <DistanceMeters>NAN</DistanceMeters>
          </Trackpoint>
          <Trackpoint>
            <Time>2022-07-11T06:45:04.000Z</Time>
            <Position>
              <LatitudeDegrees>43.2961268909275531768798828125</LatitudeDegrees>
              <LongitudeDegrees>-2.475882433354854583740234375</LongitudeDegrees>
            </Position>
            <AltitudeMeters>65.1999969482421875</AltitudeMeters>
            <DistanceMeters>NAN</DistanceMeters>
          </Trackpoint>
          <Trackpoint>
            <Time>2022-07-11T06:45:05.000Z</Time>
            <Position>
              <LatitudeDegrees>43.2961047627031803131103515625</LatitudeDegrees>
              <LongitudeDegrees>-2.47590087354183197021484375</LongitudeDegrees>
            </Position>
            <AltitudeMeters>65.40000152587890625</AltitudeMeters>
            <DistanceMeters>NAN</DistanceMeters>
          </Trackpoint>
          <Trackpoint>
            <Time>2022-07-11T06:45:07.000Z</Time>
            <Position>
              <LatitudeDegrees>43.296077437698841094970703125</LatitudeDegrees>
              <LongitudeDegrees>-2.4759188108146190643310546875</LongitudeDegrees>
            </Position>
            <AltitudeMeters>65.59999847412109375</AltitudeMeters>
            <DistanceMeters>NAN</DistanceMeters>
          </Trackpoint>
          <Trackpoint>
            <Time>2022-07-11T06:45:10.000Z</Time>
            <Position>
              <LatitudeDegrees>43.29603485763072967529296875</LatitudeDegrees>
              <LongitudeDegrees>-2.475906573235988616943359375</LongitudeDegrees>
            </Position>
            <AltitudeMeters>65.8000030517578125</AltitudeMeters>
            <DistanceMeters>NAN</DistanceMeters>
          </Trackpoint>
          <Trackpoint>
            <Time>2022-07-11T06:45:15.000Z</Time>
            <Position>
              <LatitudeDegrees>43.2959488593041896820068359375</LatitudeDegrees>
              <LongitudeDegrees>-2.47593297623097896575927734375</LongitudeDegrees>
            </Position>
            <AltitudeMeters>66.40000152587890625</AltitudeMeters>
            <DistanceMeters>NAN</DistanceMeters>
          </Trackpoint>
          <Trackpoint>
            <Time>2022-07-11T06:45:17.000Z</Time>
            <Position>
              <LatitudeDegrees>43.29592614434659481048583984375</LatitudeDegrees>
              <LongitudeDegrees>-2.47594605199992656707763671875</LongitudeDegrees>
            </Position>
            <AltitudeMeters>66.59999847412109375</AltitudeMeters>
            <DistanceMeters>NAN</DistanceMeters>
          </Trackpoint>
          <Trackpoint>
            <Time>2022-07-11T06:45:27.000Z</Time>
            <Position>
              <LatitudeDegrees>43.29578272998332977294921875</LatitudeDegrees>
              <LongitudeDegrees>-2.47605585493147373199462890625</LongitudeDegrees>
            </Position>
            <AltitudeMeters>67.40000152587890625</AltitudeMeters>
            <DistanceMeters>NAN</DistanceMeters>
          </Trackpoint>
          <Trackpoint>
            <Time>2022-07-11T06:45:28.000Z</Time>
            <Position>
              <LatitudeDegrees>43.29578272998332977294921875</LatitudeDegrees>
              <LongitudeDegrees>-2.47605585493147373199462890625</LongitudeDegrees>
            </Position>
            <AltitudeMeters>67.40000152587890625</AltitudeMeters>
            <DistanceMeters>NAN</DistanceMeters>
          </Trackpoint>
          <Trackpoint>
            <Time>2022-07-11T06:45:33.000Z</Time>
            <Position>
              <LatitudeDegrees>43.2957051135599613189697265625</LatitudeDegrees>
              <LongitudeDegrees>-2.47614084742963314056396484375</LongitudeDegrees>
            </Position>
            <AltitudeMeters>68</AltitudeMeters>
            <DistanceMeters>NAN</DistanceMeters>
          </Trackpoint>
          <Trackpoint>
            <Time>2022-07-11T06:45:35.000Z</Time>
            <Position>
              <LatitudeDegrees>43.295684494078159332275390625</LatitudeDegrees>
              <LongitudeDegrees>-2.4761655740439891815185546875</LongitudeDegrees>
            </Position>
            <AltitudeMeters>68</AltitudeMeters>
            <DistanceMeters>NAN</DistanceMeters>
          </Trackpoint>
          <Trackpoint>
            <Time>2022-07-11T06:45:40.000Z</Time>
            <Position>
              <LatitudeDegrees>43.29562255181372165679931640625</LatitudeDegrees>
              <LongitudeDegrees>-2.476237155497074127197265625</LongitudeDegrees>
            </Position>
            <AltitudeMeters>68.40000152587890625</AltitudeMeters>
            <DistanceMeters>NAN</DistanceMeters>
          </Trackpoint>
          <Trackpoint>
            <Time>2022-07-11T06:45:44.000Z</Time>
            <Position>
              <LatitudeDegrees>43.2955756969749927520751953125</LatitudeDegrees>
              <LongitudeDegrees>-2.47628509998321533203125</LongitudeDegrees>
            </Position>
            <AltitudeMeters>69</AltitudeMeters>
            <DistanceMeters>NAN</DistanceMeters>
          </Trackpoint>
          <Trackpoint>
            <Time>2022-07-11T06:45:46.000Z</Time>
            <Position>
              <LatitudeDegrees>43.2955468632280826568603515625</LatitudeDegrees>
              <LongitudeDegrees>-2.47631234116852283477783203125</LongitudeDegrees>
            </Position>
            <AltitudeMeters>69.1999969482421875</AltitudeMeters>
            <DistanceMeters>NAN</DistanceMeters>
          </Trackpoint>
          <Trackpoint>
            <Time>2022-07-11T06:45:49.000Z</Time>
            <Position>
              <LatitudeDegrees>43.29550755210220813751220703125</LatitudeDegrees>
              <LongitudeDegrees>-2.47634888626635074615478515625</LongitudeDegrees>
            </Position>
            <AltitudeMeters>69.59999847412109375</AltitudeMeters>
            <DistanceMeters>NAN</DistanceMeters>
          </Trackpoint>
          <Trackpoint>
            <Time>2022-07-11T06:45:56.000Z</Time>
            <Position>
              <LatitudeDegrees>43.29542306251823902130126953125</LatitudeDegrees>
              <LongitudeDegrees>-2.47643991373479366302490234375</LongitudeDegrees>
            </Position>
            <AltitudeMeters>70</AltitudeMeters>
            <DistanceMeters>NAN</DistanceMeters>
          </Trackpoint>
          <Trackpoint>
            <Time>2022-07-11T06:45:59.000Z</Time>
            <Position>
              <LatitudeDegrees>43.2954199612140655517578125</LatitudeDegrees>
              <LongitudeDegrees>-2.47644578106701374053955078125</LongitudeDegrees>
            </Position>
            <AltitudeMeters>70.1999969482421875</AltitudeMeters>
            <DistanceMeters>NAN</DistanceMeters>
          </Trackpoint>
          <Trackpoint>
            <Time>2022-07-11T06:46:41.000Z</Time>
            <Position>
              <LatitudeDegrees>43.29537277109920978546142578125</LatitudeDegrees>
              <LongitudeDegrees>-2.47648232616484165191650390625</LongitudeDegrees>
            </Position>
            <AltitudeMeters>70.40000152587890625</AltitudeMeters>
            <DistanceMeters>NAN</DistanceMeters>
          </Trackpoint>
          <Trackpoint>
            <Time>2022-07-11T06:46:42.000Z</Time>
            <Position>
              <LatitudeDegrees>43.29535231925547122955322265625</LatitudeDegrees>
              <LongitudeDegrees>-2.4764956533908843994140625</LongitudeDegrees>
            </Position>
            <AltitudeMeters>70.59999847412109375</AltitudeMeters>
            <DistanceMeters>NAN</DistanceMeters>
          </Trackpoint>
          <Trackpoint>
            <Time>2022-07-11T06:46:43.000Z</Time>
            <Position>
              <LatitudeDegrees>43.29534108750522136688232421875</LatitudeDegrees>
              <LongitudeDegrees>-2.47650302946567535400390625</LongitudeDegrees>
            </Position>
            <AltitudeMeters>70.8000030517578125</AltitudeMeters>
            <DistanceMeters>NAN</DistanceMeters>
          </Trackpoint>
          <Trackpoint>
            <Time>2022-07-11T06:46:48.000Z</Time>
            <Position>
              <LatitudeDegrees>43.29527042806148529052734375</LatitudeDegrees>
              <LongitudeDegrees>-2.4765611998736858367919921875</LongitudeDegrees>
            </Position>
            <AltitudeMeters>71.40000152587890625</AltitudeMeters>
            <DistanceMeters>NAN</DistanceMeters>
          </Trackpoint>
          <Trackpoint>
            <Time>2022-07-11T06:46:52.000Z</Time>
            <Position>
              <LatitudeDegrees>43.295192308723926544189453125</LatitudeDegrees>
              <LongitudeDegrees>-2.4766493774950504302978515625</LongitudeDegrees>
            </Position>
            <AltitudeMeters>72</AltitudeMeters>
            <DistanceMeters>NAN</DistanceMeters>
          </Trackpoint>
          <Trackpoint>
            <Time>2022-07-11T06:46:58.000Z</Time>
            <Position>
              <LatitudeDegrees>43.2951009459793567657470703125</LatitudeDegrees>
              <LongitudeDegrees>-2.47671416960656642913818359375</LongitudeDegrees>
            </Position>
            <AltitudeMeters>72.59999847412109375</AltitudeMeters>
            <DistanceMeters>NAN</DistanceMeters>
          </Trackpoint>
          <Trackpoint>
            <Time>2022-07-11T06:47:02.000Z</Time>
            <Position>
              <LatitudeDegrees>43.29503313638269901275634765625</LatitudeDegrees>
              <LongitudeDegrees>-2.4767643772065639495849609375</LongitudeDegrees>
            </Position>
            <AltitudeMeters>73</AltitudeMeters>
            <DistanceMeters>NAN</DistanceMeters>
          </Trackpoint>
          <Trackpoint>
            <Time>2022-07-11T06:47:06.000Z</Time>
            <Position>
              <LatitudeDegrees>43.29497647471725940704345703125</LatitudeDegrees>
              <LongitudeDegrees>-2.4768163450062274932861328125</LongitudeDegrees>
            </Position>
            <AltitudeMeters>73.40000152587890625</AltitudeMeters>
            <DistanceMeters>NAN</DistanceMeters>
          </Trackpoint>
          <Trackpoint>
            <Time>2022-07-11T06:47:08.000Z</Time>
            <Position>
              <LatitudeDegrees>43.2949634827673435211181640625</LatitudeDegrees>
              <LongitudeDegrees>-2.476827241480350494384765625</LongitudeDegrees>
            </Position>
            <AltitudeMeters>73.59999847412109375</AltitudeMeters>
            <DistanceMeters>NAN</DistanceMeters>
          </Trackpoint>
          <Trackpoint>
            <Time>2022-07-11T06:47:11.000Z</Time>
            <Position>
              <LatitudeDegrees>43.29490187577903270721435546875</LatitudeDegrees>
              <LongitudeDegrees>-2.4768847413361072540283203125</LongitudeDegrees>
            </Position>
            <AltitudeMeters>74</AltitudeMeters>
            <DistanceMeters>NAN</DistanceMeters>
          </Trackpoint>
          <Trackpoint>
            <Time>2022-07-11T06:47:19.000Z</Time>
            <Position>
              <LatitudeDegrees>43.2947820983827114105224609375</LatitudeDegrees>
              <LongitudeDegrees>-2.4770004115998744964599609375</LongitudeDegrees>
            </Position>
            <AltitudeMeters>74.8000030517578125</AltitudeMeters>
            <DistanceMeters>NAN</DistanceMeters>
          </Trackpoint>
          <Trackpoint>
            <Time>2022-07-11T06:47:21.000Z</Time>
            <Position>
              <LatitudeDegrees>43.29475452192127704620361328125</LatitudeDegrees>
              <LongitudeDegrees>-2.47702279128134250640869140625</LongitudeDegrees>
            </Position>
            <AltitudeMeters>74.8000030517578125</AltitudeMeters>
            <DistanceMeters>NAN</DistanceMeters>
          </Trackpoint>
          <Trackpoint>
            <Time>2022-07-11T06:47:24.000Z</Time>
            <Position>
              <LatitudeDegrees>43.294716216623783111572265625</LatitudeDegrees>
              <LongitudeDegrees>-2.4770589172840118408203125</LongitudeDegrees>
            </Position>
            <AltitudeMeters>75.1999969482421875</AltitudeMeters>
            <DistanceMeters>NAN</DistanceMeters>
          </Trackpoint>
          <Trackpoint>
            <Time>2022-07-11T06:47:28.000Z</Time>
            <Position>
              <LatitudeDegrees>43.2946634106338024139404296875</LatitudeDegrees>
              <LongitudeDegrees>-2.4771020002663135528564453125</LongitudeDegrees>
            </Position>
            <AltitudeMeters>75.59999847412109375</AltitudeMeters>
            <DistanceMeters>NAN</DistanceMeters>
          </Trackpoint>
          <Trackpoint>
            <Time>2022-07-11T06:47:33.000Z</Time>
            <Position>
              <LatitudeDegrees>43.294590152800083160400390625</LatitudeDegrees>
              <LongitudeDegrees>-2.47715824283659458160400390625</LongitudeDegrees>
            </Position>
            <AltitudeMeters>76</AltitudeMeters>
            <DistanceMeters>NAN</DistanceMeters>
          </Trackpoint>
          <Trackpoint>
            <Time>2022-07-11T06:47:35.000Z</Time>
            <Position>
              <LatitudeDegrees>43.29456492327153682708740234375</LatitudeDegrees>
              <LongitudeDegrees>-2.477181293070316314697265625</LongitudeDegrees>
            </Position>
            <AltitudeMeters>76.1999969482421875</AltitudeMeters>
            <DistanceMeters>NAN</DistanceMeters>
          </Trackpoint>
          <Trackpoint>
            <Time>2022-07-11T06:47:37.000Z</Time>
            <Position>
              <LatitudeDegrees>43.2945510931313037872314453125</LatitudeDegrees>
              <LongitudeDegrees>-2.4771918542683124542236328125</LongitudeDegrees>
            </Position>
            <AltitudeMeters>76.40000152587890625</AltitudeMeters>
            <DistanceMeters>NAN</DistanceMeters>
          </Trackpoint>
          <Trackpoint>
            <Time>2022-07-11T06:47:42.000Z</Time>
            <Position>
              <LatitudeDegrees>43.29446903429925441741943359375</LatitudeDegrees>
              <LongitudeDegrees>-2.4772760085761547088623046875</LongitudeDegrees>
            </Position>
            <AltitudeMeters>76.8000030517578125</AltitudeMeters>
            <DistanceMeters>NAN</DistanceMeters>
          </Trackpoint>
          <Trackpoint>
            <Time>2022-07-11T06:47:46.000Z</Time>
            <Position>
              <LatitudeDegrees>43.29441874288022518157958984375</LatitudeDegrees>
              <LongitudeDegrees>-2.47732487507164478302001953125</LongitudeDegrees>
            </Position>
            <AltitudeMeters>77.40000152587890625</AltitudeMeters>
            <DistanceMeters>NAN</DistanceMeters>
          </Trackpoint>
          <Trackpoint>
            <Time>2022-07-11T06:47:48.000Z</Time>
            <Position>
              <LatitudeDegrees>43.294405080378055572509765625</LatitudeDegrees>
              <LongitudeDegrees>-2.4773407168686389923095703125</LongitudeDegrees>
            </Position>
            <AltitudeMeters>77.59999847412109375</AltitudeMeters>
            <DistanceMeters>NAN</DistanceMeters>
          </Trackpoint>
          <Trackpoint>
            <Time>2022-07-11T06:47:56.000Z</Time>
            <Position>
              <LatitudeDegrees>43.2942969538271427154541015625</LatitudeDegrees>
              <LongitudeDegrees>-2.47743534855544567108154296875</LongitudeDegrees>
            </Position>
            <AltitudeMeters>78.40000152587890625</AltitudeMeters>
            <DistanceMeters>NAN</DistanceMeters>
          </Trackpoint>
          <Trackpoint>
            <Time>2022-07-11T06:48:00.000Z</Time>
            <Position>
              <LatitudeDegrees>43.29424238763749599456787109375</LatitudeDegrees>
              <LongitudeDegrees>-2.4774942733347415924072265625</LongitudeDegrees>
            </Position>
            <AltitudeMeters>78.8000030517578125</AltitudeMeters>
            <DistanceMeters>NAN</DistanceMeters>
          </Trackpoint>
          <Trackpoint>
            <Time>2022-07-11T06:48:07.000Z</Time>
            <Position>
              <LatitudeDegrees>43.2941645197570323944091796875</LatitudeDegrees>
              <LongitudeDegrees>-2.4775586463510990142822265625</LongitudeDegrees>
            </Position>
            <AltitudeMeters>79.40000152587890625</AltitudeMeters>
            <DistanceMeters>NAN</DistanceMeters>
          </Trackpoint>
          <Trackpoint>
            <Time>2022-07-11T06:48:12.000Z</Time>
            <Position>
              <LatitudeDegrees>43.2941055111587047576904296875</LatitudeDegrees>
              <LongitudeDegrees>-2.47762645594775676727294921875</LongitudeDegrees>
            </Position>
            <AltitudeMeters>79.8000030517578125</AltitudeMeters>
            <DistanceMeters>NAN</DistanceMeters>
          </Trackpoint>
          <Trackpoint>
            <Time>2022-07-11T06:48:18.000Z</Time>
            <Position>
              <LatitudeDegrees>43.294026888906955718994140625</LatitudeDegrees>
              <LongitudeDegrees>-2.47772217728197574615478515625</LongitudeDegrees>
            </Position>
            <AltitudeMeters>80.40000152587890625</AltitudeMeters>
            <DistanceMeters>NAN</DistanceMeters>
          </Trackpoint>
          <Trackpoint>
            <Time>2022-07-11T06:48:19.000Z</Time>
            <Position>
              <LatitudeDegrees>43.29401523806154727935791015625</LatitudeDegrees>
              <LongitudeDegrees>-2.4777360074222087860107421875</LongitudeDegrees>
            </Position>
            <AltitudeMeters>80.59999847412109375</AltitudeMeters>
            <DistanceMeters>NAN</DistanceMeters>
          </Trackpoint>
          <Trackpoint>
            <Time>2022-07-11T06:48:28.000Z</Time>
            <Position>
              <LatitudeDegrees>43.29391331411898136138916015625</LatitudeDegrees>
              <LongitudeDegrees>-2.4778582155704498291015625</LongitudeDegrees>
            </Position>
            <AltitudeMeters>81.59999847412109375</AltitudeMeters>
            <DistanceMeters>NAN</DistanceMeters>
          </Trackpoint>
          <Trackpoint>
            <Time>2022-07-11T06:48:31.000Z</Time>
            <Position>
              <LatitudeDegrees>43.293869979679584503173828125</LatitudeDegrees>
              <LongitudeDegrees>-2.47790808789432048797607421875</LongitudeDegrees>
            </Position>
            <AltitudeMeters>82</AltitudeMeters>
            <DistanceMeters>NAN</DistanceMeters>
          </Trackpoint>
          <Trackpoint>
            <Time>2022-07-11T06:48:34.000Z</Time>
            <Position>
              <LatitudeDegrees>43.29383008182048797607421875</LatitudeDegrees>
              <LongitudeDegrees>-2.477961480617523193359375</LongitudeDegrees>
            </Position>
            <AltitudeMeters>82.1999969482421875</AltitudeMeters>
            <DistanceMeters>NAN</DistanceMeters>
          </Trackpoint>
          <Trackpoint>
            <Time>2022-07-11T06:48:37.000Z</Time>
            <Position>
              <LatitudeDegrees>43.29379160888493061065673828125</LatitudeDegrees>
              <LongitudeDegrees>-2.478023506700992584228515625</LongitudeDegrees>
            </Position>
            <AltitudeMeters>82.59999847412109375</AltitudeMeters>
            <DistanceMeters>NAN</DistanceMeters>
          </Trackpoint>
          <Trackpoint>
            <Time>2022-07-11T06:48:44.000Z</Time>
            <Position>
              <LatitudeDegrees>43.2937313430011272430419921875</LatitudeDegrees>
              <LongitudeDegrees>-2.47813054360449314117431640625</LongitudeDegrees>
            </Position>
            <AltitudeMeters>83.1999969482421875</AltitudeMeters>
            <DistanceMeters>NAN</DistanceMeters>
          </Trackpoint>
          <Trackpoint>
            <Time>2022-07-11T06:48:48.000Z</Time>
            <Position>
              <LatitudeDegrees>43.2936770282685756683349609375</LatitudeDegrees>
              <LongitudeDegrees>-2.47820681892335414886474609375</LongitudeDegrees>
            </Position>
            <AltitudeMeters>83.8000030517578125</AltitudeMeters>
            <DistanceMeters>NAN</DistanceMeters>
          </Trackpoint>
          <Trackpoint>
            <Time>2022-07-11T06:48:53.000Z</Time>
            <Position>
              <LatitudeDegrees>43.2936274074018001556396484375</LatitudeDegrees>
              <LongitudeDegrees>-2.4782902188599109649658203125</LongitudeDegrees>
            </Position>
            <AltitudeMeters>84.1999969482421875</AltitudeMeters>
            <DistanceMeters>NAN</DistanceMeters>
          </Trackpoint>
          <Trackpoint>
            <Time>2022-07-11T06:48:59.000Z</Time>
            <Position>
              <LatitudeDegrees>43.29357049427926540374755859375</LatitudeDegrees>
              <LongitudeDegrees>-2.4783951602876186370849609375</LongitudeDegrees>
            </Position>
            <AltitudeMeters>84.8000030517578125</AltitudeMeters>
            <DistanceMeters>NAN</DistanceMeters>
          </Trackpoint>
          <Trackpoint>
            <Time>2022-07-11T06:49:00.000Z</Time>
            <Position>
              <LatitudeDegrees>43.2935638725757598876953125</LatitudeDegrees>
              <LongitudeDegrees>-2.478406392037868499755859375</LongitudeDegrees>
            </Position>
            <AltitudeMeters>84.8000030517578125</AltitudeMeters>
            <DistanceMeters>NAN</DistanceMeters>
          </Trackpoint>
          <Trackpoint>
            <Time>2022-07-11T06:49:10.000Z</Time>
            <Position>
              <LatitudeDegrees>43.29347670078277587890625</LatitudeDegrees>
              <LongitudeDegrees>-2.47858299873769283294677734375</LongitudeDegrees>
            </Position>
            <AltitudeMeters>85.8000030517578125</AltitudeMeters>
            <DistanceMeters>NAN</DistanceMeters>
          </Trackpoint>
          <Trackpoint>
            <Time>2022-07-11T06:49:19.000Z</Time>
            <Position>
              <LatitudeDegrees>43.2934084720909595489501953125</LatitudeDegrees>
              <LongitudeDegrees>-2.47878030873835086822509765625</LongitudeDegrees>
            </Position>
            <AltitudeMeters>86.40000152587890625</AltitudeMeters>
            <DistanceMeters>NAN</DistanceMeters>
          </Trackpoint>
          <Trackpoint>
            <Time>2022-07-11T06:49:22.000Z</Time>
            <Position>
              <LatitudeDegrees>43.29338978044688701629638671875</LatitudeDegrees>
              <LongitudeDegrees>-2.478819452226161956787109375</LongitudeDegrees>
            </Position>
            <AltitudeMeters>86.59999847412109375</AltitudeMeters>
            <DistanceMeters>NAN</DistanceMeters>
          </Trackpoint>
          <Trackpoint>
            <Time>2022-07-11T06:49:24.000Z</Time>
            <Position>
              <LatitudeDegrees>43.29336027614772319793701171875</LatitudeDegrees>
              <LongitudeDegrees>-2.47888457961380481719970703125</LongitudeDegrees>
            </Position>
            <AltitudeMeters>87</AltitudeMeters>
            <DistanceMeters>NAN</DistanceMeters>
          </Trackpoint>
          <Trackpoint>
            <Time>2022-07-11T06:49:33.000Z</Time>
            <Position>
              <LatitudeDegrees>43.293283246457576751708984375</LatitudeDegrees>
              <LongitudeDegrees>-2.4790553189814090728759765625</LongitudeDegrees>
            </Position>
            <AltitudeMeters>87.59999847412109375</AltitudeMeters>
            <DistanceMeters>NAN</DistanceMeters>
          </Trackpoint>
          <Trackpoint>
            <Time>2022-07-11T06:49:34.000Z</Time>
            <Position>
              <LatitudeDegrees>43.293272517621517181396484375</LatitudeDegrees>
              <LongitudeDegrees>-2.47907702811062335968017578125</LongitudeDegrees>
            </Position>
            <AltitudeMeters>87.59999847412109375</AltitudeMeters>
            <DistanceMeters>NAN</DistanceMeters>
          </Trackpoint>
          <Trackpoint>
            <Time>2022-07-11T06:49:40.000Z</Time>
            <Position>
              <LatitudeDegrees>43.293230272829532623291015625</LatitudeDegrees>
              <LongitudeDegrees>-2.47919940389692783355712890625</LongitudeDegrees>
            </Position>
            <AltitudeMeters>88</AltitudeMeters>
            <DistanceMeters>NAN</DistanceMeters>
          </Trackpoint>
          <Trackpoint>
            <Time>2022-07-11T06:49:45.000Z</Time>
            <Position>
              <LatitudeDegrees>43.29319498501718044281005859375</LatitudeDegrees>
              <LongitudeDegrees>-2.479306273162364959716796875</LongitudeDegrees>
            </Position>
            <AltitudeMeters>88.40000152587890625</AltitudeMeters>
            <DistanceMeters>NAN</DistanceMeters>
          </Trackpoint>
          <Trackpoint>
            <Time>2022-07-11T06:49:51.000Z</Time>
            <Position>
              <LatitudeDegrees>43.2931561768054962158203125</LatitudeDegrees>
              <LongitudeDegrees>-2.4794271402060985565185546875</LongitudeDegrees>
            </Position>
            <AltitudeMeters>89</AltitudeMeters>
            <DistanceMeters>NAN</DistanceMeters>
          </Trackpoint>
          <Trackpoint>
            <Time>2022-07-11T06:49:58.000Z</Time>
            <Position>
              <LatitudeDegrees>43.29311401583254337310791015625</LatitudeDegrees>
              <LongitudeDegrees>-2.47959368862211704254150390625</LongitudeDegrees>
            </Position>
            <AltitudeMeters>90</AltitudeMeters>
            <DistanceMeters>NAN</DistanceMeters>
          </Trackpoint>
          <Trackpoint>
            <Time>2022-07-11T06:50:00.000Z</Time>
            <Position>
              <LatitudeDegrees>43.2931078970432281494140625</LatitudeDegrees>
              <LongitudeDegrees>-2.4796165712177753448486328125</LongitudeDegrees>
            </Position>
            <AltitudeMeters>90.1999969482421875</AltitudeMeters>
            <DistanceMeters>NAN</DistanceMeters>
          </Trackpoint>
          <Trackpoint>
            <Time>2022-07-11T06:50:09.000Z</Time>
            <Position>
              <LatitudeDegrees>43.29303975217044353485107421875</LatitudeDegrees>
              <LongitudeDegrees>-2.4798348359763622283935546875</LongitudeDegrees>
            </Position>
            <AltitudeMeters>90.8000030517578125</AltitudeMeters>
            <DistanceMeters>NAN</DistanceMeters>
          </Trackpoint>
          <Trackpoint>
            <Time>2022-07-11T06:50:13.000Z</Time>
            <Position>
              <LatitudeDegrees>43.29301913268864154815673828125</LatitudeDegrees>
              <LongitudeDegrees>-2.4799260310828685760498046875</LongitudeDegrees>
            </Position>
            <AltitudeMeters>91.1999969482421875</AltitudeMeters>
            <DistanceMeters>NAN</DistanceMeters>
          </Trackpoint>
          <Trackpoint>
            <Time>2022-07-11T06:50:22.000Z</Time>
            <Position>
              <LatitudeDegrees>43.29297311604022979736328125</LatitudeDegrees>
              <LongitudeDegrees>-2.48013264499604701995849609375</LongitudeDegrees>
            </Position>
            <AltitudeMeters>92.1999969482421875</AltitudeMeters>
            <DistanceMeters>NAN</DistanceMeters>
          </Trackpoint>
          <Trackpoint>
            <Time>2022-07-11T06:50:25.000Z</Time>
            <Position>
              <LatitudeDegrees>43.2929538376629352569580078125</LatitudeDegrees>
              <LongitudeDegrees>-2.4801959283649921417236328125</LongitudeDegrees>
            </Position>
            <AltitudeMeters>92.1999969482421875</AltitudeMeters>
            <DistanceMeters>NAN</DistanceMeters>
          </Trackpoint>
          <Trackpoint>
            <Time>2022-07-11T06:50:32.000Z</Time>
            <Position>
              <LatitudeDegrees>43.2929290272295475006103515625</LatitudeDegrees>
              <LongitudeDegrees>-2.480337917804718017578125</LongitudeDegrees>
            </Position>
            <AltitudeMeters>92.8000030517578125</AltitudeMeters>
            <DistanceMeters>NAN</DistanceMeters>
          </Trackpoint>
          <Trackpoint>
            <Time>2022-07-11T06:50:36.000Z</Time>
            <Position>
              <LatitudeDegrees>43.29291000030934810638427734375</LatitudeDegrees>
              <LongitudeDegrees>-2.4804245866835117340087890625</LongitudeDegrees>
            </Position>
            <AltitudeMeters>93.40000152587890625</AltitudeMeters>
            <DistanceMeters>NAN</DistanceMeters>
          </Trackpoint>
          <Trackpoint>
            <Time>2022-07-11T06:50:43.000Z</Time>
            <Position>
              <LatitudeDegrees>43.29288016073405742645263671875</LatitudeDegrees>
              <LongitudeDegrees>-2.48054771684110164642333984375</LongitudeDegrees>
            </Position>
            <AltitudeMeters>93.8000030517578125</AltitudeMeters>
            <DistanceMeters>NAN</DistanceMeters>
          </Trackpoint>
          <Trackpoint>
            <Time>2022-07-11T06:50:47.000Z</Time>
            <Position>
              <LatitudeDegrees>43.29285241663455963134765625</LatitudeDegrees>
              <LongitudeDegrees>-2.480663470923900604248046875</LongitudeDegrees>
            </Position>
            <AltitudeMeters>94.40000152587890625</AltitudeMeters>
            <DistanceMeters>NAN</DistanceMeters>
          </Trackpoint>
          <Trackpoint>
            <Time>2022-07-11T06:50:53.000Z</Time>
            <Position>
              <LatitudeDegrees>43.29281159676611423492431640625</LatitudeDegrees>
              <LongitudeDegrees>-2.48080034740269184112548828125</LongitudeDegrees>
            </Position>
            <AltitudeMeters>95</AltitudeMeters>
            <DistanceMeters>NAN</DistanceMeters>
          </Trackpoint>
          <Trackpoint>
            <Time>2022-07-11T06:51:00.000Z</Time>
            <Position>
              <LatitudeDegrees>43.2927697710692882537841796875</LatitudeDegrees>
              <LongitudeDegrees>-2.48095306567847728729248046875</LongitudeDegrees>
            </Position>
            <AltitudeMeters>95.40000152587890625</AltitudeMeters>
            <DistanceMeters>NAN</DistanceMeters>
          </Trackpoint>
          <Trackpoint>
            <Time>2022-07-11T06:51:05.000Z</Time>
            <Position>
              <LatitudeDegrees>43.2927362434566020965576171875</LatitudeDegrees>
              <LongitudeDegrees>-2.48104325495660305023193359375</LongitudeDegrees>
            </Position>
            <AltitudeMeters>96</AltitudeMeters>
            <DistanceMeters>NAN</DistanceMeters>
          </Trackpoint>
          <Trackpoint>
            <Time>2022-07-11T06:51:12.000Z</Time>
            <Position>
              <LatitudeDegrees>43.29268184490501880645751953125</LatitudeDegrees>
              <LongitudeDegrees>-2.48117317445576190948486328125</LongitudeDegrees>
            </Position>
            <AltitudeMeters>96.40000152587890625</AltitudeMeters>
            <DistanceMeters>NAN</DistanceMeters>
          </Trackpoint>
          <Trackpoint>
            <Time>2022-07-11T06:51:16.000Z</Time>
            <Position>
              <LatitudeDegrees>43.29265133477747440338134765625</LatitudeDegrees>
              <LongitudeDegrees>-2.4812453426420688629150390625</LongitudeDegrees>
            </Position>
            <AltitudeMeters>96.8000030517578125</AltitudeMeters>
            <DistanceMeters>NAN</DistanceMeters>
          </Trackpoint>
          <Trackpoint>
            <Time>2022-07-11T06:51:25.000Z</Time>
            <Position>
              <LatitudeDegrees>43.29255879856646060943603515625</LatitudeDegrees>
              <LongitudeDegrees>-2.48140501789748668670654296875</LongitudeDegrees>
            </Position>
            <AltitudeMeters>97.40000152587890625</AltitudeMeters>
            <DistanceMeters>NAN</DistanceMeters>
          </Trackpoint>
          <Trackpoint>
            <Time>2022-07-11T06:51:28.000Z</Time>
            <Position>
              <LatitudeDegrees>43.29251605086028575897216796875</LatitudeDegrees>
              <LongitudeDegrees>-2.4814558960497379302978515625</LongitudeDegrees>
            </Position>
            <AltitudeMeters>97.40000152587890625</AltitudeMeters>
            <DistanceMeters>NAN</DistanceMeters>
          </Trackpoint>
          <Trackpoint>
            <Time>2022-07-11T06:51:31.000Z</Time>
            <Position>
              <LatitudeDegrees>43.2924777455627918243408203125</LatitudeDegrees>
              <LongitudeDegrees>-2.48152077198028564453125</LongitudeDegrees>
            </Position>
            <AltitudeMeters>97.59999847412109375</AltitudeMeters>
            <DistanceMeters>NAN</DistanceMeters>
          </Trackpoint>
          <Trackpoint>
            <Time>2022-07-11T06:51:35.000Z</Time>
            <Position>
              <LatitudeDegrees>43.292443715035915374755859375</LatitudeDegrees>
              <LongitudeDegrees>-2.4815759249031543731689453125</LongitudeDegrees>
            </Position>
            <AltitudeMeters>97.8000030517578125</AltitudeMeters>
            <DistanceMeters>NAN</DistanceMeters>
          </Trackpoint>
          <Trackpoint>
            <Time>2022-07-11T06:51:42.000Z</Time>
            <Position>
              <LatitudeDegrees>43.29232896678149700164794921875</LatitudeDegrees>
              <LongitudeDegrees>-2.4817770905792713165283203125</LongitudeDegrees>
            </Position>
            <AltitudeMeters>98</AltitudeMeters>
            <DistanceMeters>NAN</DistanceMeters>
          </Trackpoint>
          <Trackpoint>
            <Time>2022-07-11T06:51:44.000Z</Time>
            <Position>
              <LatitudeDegrees>43.2923010550439357757568359375</LatitudeDegrees>
              <LongitudeDegrees>-2.4818364344537258148193359375</LongitudeDegrees>
            </Position>
            <AltitudeMeters>98</AltitudeMeters>
            <DistanceMeters>NAN</DistanceMeters>
          </Trackpoint>
          <Trackpoint>
            <Time>2022-07-11T06:51:49.000Z</Time>
            <Position>
              <LatitudeDegrees>43.2922293059527873992919921875</LatitudeDegrees>
              <LongitudeDegrees>-2.482018657028675079345703125</LongitudeDegrees>
            </Position>
            <AltitudeMeters>97.8000030517578125</AltitudeMeters>
            <DistanceMeters>NAN</DistanceMeters>
          </Trackpoint>
          <Trackpoint>
            <Time>2022-07-11T06:51:52.000Z</Time>
            <Position>
              <LatitudeDegrees>43.2921873964369297027587890625</LatitudeDegrees>
              <LongitudeDegrees>-2.482154108583927154541015625</LongitudeDegrees>
            </Position>
            <AltitudeMeters>97.8000030517578125</AltitudeMeters>
            <DistanceMeters>NAN</DistanceMeters>
          </Trackpoint>
          <Trackpoint>
            <Time>2022-07-11T06:51:57.000Z</Time>
            <Position>
              <LatitudeDegrees>43.29213668592274188995361328125</LatitudeDegrees>
              <LongitudeDegrees>-2.48244001530110836029052734375</LongitudeDegrees>
            </Position>
            <AltitudeMeters>97.59999847412109375</AltitudeMeters>
            <DistanceMeters>NAN</DistanceMeters>
          </Trackpoint>
          <Trackpoint>
            <Time>2022-07-11T06:51:58.000Z</Time>
            <Position>
              <LatitudeDegrees>43.2921297289431095123291015625</LatitudeDegrees>
              <LongitudeDegrees>-2.48251176439225673675537109375</LongitudeDegrees>
            </Position>
            <AltitudeMeters>97.59999847412109375</AltitudeMeters>
            <DistanceMeters>NAN</DistanceMeters>
          </Trackpoint>
          <Trackpoint>
            <Time>2022-07-11T06:51:59.000Z</Time>
            <Position>
              <LatitudeDegrees>43.2921277172863483428955078125</LatitudeDegrees>
              <LongitudeDegrees>-2.4825871177017688751220703125</LongitudeDegrees>
            </Position>
            <AltitudeMeters>97.40000152587890625</AltitudeMeters>
            <DistanceMeters>NAN</DistanceMeters>
          </Trackpoint>
          <Trackpoint>
            <Time>2022-07-11T06:52:01.000Z</Time>
            <Position>
              <LatitudeDegrees>43.29214691184461116790771484375</LatitudeDegrees>
              <LongitudeDegrees>-2.4827532470226287841796875</LongitudeDegrees>
            </Position>
            <AltitudeMeters>96.8000030517578125</AltitudeMeters>
            <DistanceMeters>NAN</DistanceMeters>
          </Trackpoint>
          <Trackpoint>
            <Time>2022-07-11T06:52:02.000Z</Time>
            <Position>
              <LatitudeDegrees>43.29217406921088695526123046875</LatitudeDegrees>
              <LongitudeDegrees>-2.48284377157688140869140625</LongitudeDegrees>
            </Position>
            <AltitudeMeters>96.59999847412109375</AltitudeMeters>
            <DistanceMeters>NAN</DistanceMeters>
          </Trackpoint>
          <Trackpoint>
            <Time>2022-07-11T06:52:03.000Z</Time>
            <Position>
              <LatitudeDegrees>43.29217406921088695526123046875</LatitudeDegrees>
              <LongitudeDegrees>-2.48284377157688140869140625</LongitudeDegrees>
            </Position>
            <AltitudeMeters>96.40000152587890625</AltitudeMeters>
            <DistanceMeters>NAN</DistanceMeters>
          </Trackpoint>
          <Trackpoint>
            <Time>2022-07-11T06:52:04.000Z</Time>
            <Position>
              <LatitudeDegrees>43.2922510989010334014892578125</LatitudeDegrees>
              <LongitudeDegrees>-2.48301669023931026458740234375</LongitudeDegrees>
            </Position>
            <AltitudeMeters>96</AltitudeMeters>
            <DistanceMeters>NAN</DistanceMeters>
          </Trackpoint>
          <Trackpoint>
            <Time>2022-07-11T06:52:06.000Z</Time>
            <Position>
              <LatitudeDegrees>43.29235746525228023529052734375</LatitudeDegrees>
              <LongitudeDegrees>-2.48316555283963680267333984375</LongitudeDegrees>
            </Position>
            <AltitudeMeters>95.1999969482421875</AltitudeMeters>
            <DistanceMeters>NAN</DistanceMeters>
          </Trackpoint>
          <Trackpoint>
            <Time>2022-07-11T06:52:09.000Z</Time>
            <Position>
              <LatitudeDegrees>43.29257070086896419525146484375</LatitudeDegrees>
              <LongitudeDegrees>-2.48334744013845920562744140625</LongitudeDegrees>
            </Position>
            <AltitudeMeters>94</AltitudeMeters>
            <DistanceMeters>NAN</DistanceMeters>
          </Trackpoint>
          <Trackpoint>
            <Time>2022-07-11T06:52:11.000Z</Time>
            <Position>
              <LatitudeDegrees>43.292710594832897186279296875</LatitudeDegrees>
              <LongitudeDegrees>-2.48346067965030670166015625</LongitudeDegrees>
            </Position>
            <AltitudeMeters>93.1999969482421875</AltitudeMeters>
            <DistanceMeters>NAN</DistanceMeters>
          </Trackpoint>
          <Trackpoint>
            <Time>2022-07-11T06:52:12.000Z</Time>
            <Position>
              <LatitudeDegrees>43.29278133809566497802734375</LatitudeDegrees>
              <LongitudeDegrees>-2.4835242144763469696044921875</LongitudeDegrees>
            </Position>
            <AltitudeMeters>93</AltitudeMeters>
            <DistanceMeters>NAN</DistanceMeters>
          </Trackpoint>
          <Trackpoint>
            <Time>2022-07-11T06:52:14.000Z</Time>
            <Position>
              <LatitudeDegrees>43.29291385598480701446533203125</LatitudeDegrees>
              <LongitudeDegrees>-2.4836651980876922607421875</LongitudeDegrees>
            </Position>
            <AltitudeMeters>92</AltitudeMeters>
            <DistanceMeters>NAN</DistanceMeters>
          </Trackpoint>
          <Trackpoint>
            <Time>2022-07-11T06:52:16.000Z</Time>
            <Position>
              <LatitudeDegrees>43.29303187318146228790283203125</LatitudeDegrees>
              <LongitudeDegrees>-2.48382906429469585418701171875</LongitudeDegrees>
            </Position>
            <AltitudeMeters>90.8000030517578125</AltitudeMeters>
            <DistanceMeters>NAN</DistanceMeters>
          </Trackpoint>
          <Trackpoint>
            <Time>2022-07-11T06:52:19.000Z</Time>
            <Position>
              <LatitudeDegrees>43.2931342162191867828369140625</LatitudeDegrees>
              <LongitudeDegrees>-2.48402905650436878204345703125</LongitudeDegrees>
            </Position>
            <AltitudeMeters>89.59999847412109375</AltitudeMeters>
            <DistanceMeters>NAN</DistanceMeters>
          </Trackpoint>
          <Trackpoint>
            <Time>2022-07-11T06:52:20.000Z</Time>
            <Position>
              <LatitudeDegrees>43.29321183264255523681640625</LatitudeDegrees>
              <LongitudeDegrees>-2.4842544458806514739990234375</LongitudeDegrees>
            </Position>
            <AltitudeMeters>89</AltitudeMeters>
            <DistanceMeters>NAN</DistanceMeters>
          </Trackpoint>
          <Trackpoint>
            <Time>2022-07-11T06:52:21.000Z</Time>
            <Position>
              <LatitudeDegrees>43.29324259422719478607177734375</LatitudeDegrees>
              <LongitudeDegrees>-2.484370283782482147216796875</LongitudeDegrees>
            </Position>
            <AltitudeMeters>88.59999847412109375</AltitudeMeters>
            <DistanceMeters>NAN</DistanceMeters>
          </Trackpoint>
          <Trackpoint>
            <Time>2022-07-11T06:52:23.000Z</Time>
            <Position>
              <LatitudeDegrees>43.29328693449497222900390625</LatitudeDegrees>
              <LongitudeDegrees>-2.48462752439081668853759765625</LongitudeDegrees>
            </Position>
            <AltitudeMeters>88</AltitudeMeters>
            <DistanceMeters>NAN</DistanceMeters>
          </Trackpoint>
          <Trackpoint>
            <Time>2022-07-11T06:52:24.000Z</Time>
            <Position>
              <LatitudeDegrees>43.2932917959988117218017578125</LatitudeDegrees>
              <LongitudeDegrees>-2.4847268499433994293212890625</LongitudeDegrees>
            </Position>
            <AltitudeMeters>87.59999847412109375</AltitudeMeters>
            <DistanceMeters>NAN</DistanceMeters>
          </Trackpoint>
          <Trackpoint>
            <Time>2022-07-11T06:52:25.000Z</Time>
            <Position>
              <LatitudeDegrees>43.29329154454171657562255859375</LatitudeDegrees>
              <LongitudeDegrees>-2.48485635034739971160888671875</LongitudeDegrees>
            </Position>
            <AltitudeMeters>87</AltitudeMeters>
            <DistanceMeters>NAN</DistanceMeters>
          </Trackpoint>
          <Trackpoint>
            <Time>2022-07-11T06:52:27.000Z</Time>
            <Position>
              <LatitudeDegrees>43.29325851984322071075439453125</LatitudeDegrees>
              <LongitudeDegrees>-2.485112249851226806640625</LongitudeDegrees>
            </Position>
            <AltitudeMeters>86</AltitudeMeters>
            <DistanceMeters>NAN</DistanceMeters>
          </Trackpoint>
          <Trackpoint>
            <Time>2022-07-11T06:52:30.000Z</Time>
            <Position>
              <LatitudeDegrees>43.29312809742987155914306640625</LatitudeDegrees>
              <LongitudeDegrees>-2.4854891002178192138671875</LongitudeDegrees>
            </Position>
            <AltitudeMeters>84.8000030517578125</AltitudeMeters>
            <DistanceMeters>NAN</DistanceMeters>
          </Trackpoint>
          <Trackpoint>
            <Time>2022-07-11T06:52:31.000Z</Time>
            <Position>
              <LatitudeDegrees>43.2930745370686054229736328125</LatitudeDegrees>
              <LongitudeDegrees>-2.48560032807290554046630859375</LongitudeDegrees>
            </Position>
            <AltitudeMeters>84.59999847412109375</AltitudeMeters>
            <DistanceMeters>NAN</DistanceMeters>
          </Trackpoint>
          <Trackpoint>
            <Time>2022-07-11T06:52:33.000Z</Time>
            <Position>
              <LatitudeDegrees>43.2929437793791294097900390625</LatitudeDegrees>
              <LongitudeDegrees>-2.48580752871930599212646484375</LongitudeDegrees>
            </Position>
            <AltitudeMeters>84</AltitudeMeters>
            <DistanceMeters>NAN</DistanceMeters>
          </Trackpoint>
          <Trackpoint>
            <Time>2022-07-11T06:52:34.000Z</Time>
            <Position>
              <LatitudeDegrees>43.292877562344074249267578125</LatitudeDegrees>
              <LongitudeDegrees>-2.485895119607448577880859375</LongitudeDegrees>
            </Position>
            <AltitudeMeters>83.59999847412109375</AltitudeMeters>
            <DistanceMeters>NAN</DistanceMeters>
          </Trackpoint>
          <Trackpoint>
            <Time>2022-07-11T06:52:35.000Z</Time>
            <Position>
              <LatitudeDegrees>43.29279868863523006439208984375</LatitudeDegrees>
              <LongitudeDegrees>-2.485990338027477264404296875</LongitudeDegrees>
            </Position>
            <AltitudeMeters>83.40000152587890625</AltitudeMeters>
            <DistanceMeters>NAN</DistanceMeters>
          </Trackpoint>
          <Trackpoint>
            <Time>2022-07-11T06:52:39.000Z</Time>
            <Position>
              <LatitudeDegrees>43.2925223372876644134521484375</LatitudeDegrees>
              <LongitudeDegrees>-2.48626534827053546905517578125</LongitudeDegrees>
            </Position>
            <AltitudeMeters>82.1999969482421875</AltitudeMeters>
            <DistanceMeters>NAN</DistanceMeters>
          </Trackpoint>
          <Trackpoint>
            <Time>2022-07-11T06:52:40.000Z</Time>
            <Position>
              <LatitudeDegrees>43.292447067797183990478515625</LatitudeDegrees>
              <LongitudeDegrees>-2.4863234348595142364501953125</LongitudeDegrees>
            </Position>
            <AltitudeMeters>82</AltitudeMeters>
            <DistanceMeters>NAN</DistanceMeters>
          </Trackpoint>
          <Trackpoint>
            <Time>2022-07-11T06:52:44.000Z</Time>
            <Position>
              <LatitudeDegrees>43.292129226028919219970703125</LatitudeDegrees>
              <LongitudeDegrees>-2.48649870045483112335205078125</LongitudeDegrees>
            </Position>
            <AltitudeMeters>81.1999969482421875</AltitudeMeters>
            <DistanceMeters>NAN</DistanceMeters>
          </Trackpoint>
          <Trackpoint>
            <Time>2022-07-11T06:52:46.000Z</Time>
            <Position>
              <LatitudeDegrees>43.29199234955012798309326171875</LatitudeDegrees>
              <LongitudeDegrees>-2.48656793497502803802490234375</LongitudeDegrees>
            </Position>
            <AltitudeMeters>80.8000030517578125</AltitudeMeters>
            <DistanceMeters>NAN</DistanceMeters>
          </Trackpoint>
          <Trackpoint>
            <Time>2022-07-11T06:52:53.000Z</Time>
            <Position>
              <LatitudeDegrees>43.29147418029606342315673828125</LatitudeDegrees>
              <LongitudeDegrees>-2.48679592274129390716552734375</LongitudeDegrees>
            </Position>
            <AltitudeMeters>80</AltitudeMeters>
            <DistanceMeters>NAN</DistanceMeters>
          </Trackpoint>
          <Trackpoint>
            <Time>2022-07-11T06:52:54.000Z</Time>
            <Position>
              <LatitudeDegrees>43.2914192788302898406982421875</LatitudeDegrees>
              <LongitudeDegrees>-2.4868216551840305328369140625</LongitudeDegrees>
            </Position>
            <AltitudeMeters>79.59999847412109375</AltitudeMeters>
            <DistanceMeters>NAN</DistanceMeters>
          </Trackpoint>
          <Trackpoint>
            <Time>2022-07-11T06:52:56.000Z</Time>
            <Position>
              <LatitudeDegrees>43.29128189943730831146240234375</LatitudeDegrees>
              <LongitudeDegrees>-2.486881501972675323486328125</LongitudeDegrees>
            </Position>
            <AltitudeMeters>78.8000030517578125</AltitudeMeters>
            <DistanceMeters>NAN</DistanceMeters>
          </Trackpoint>
          <Trackpoint>
            <Time>2022-07-11T06:52:59.000Z</Time>
            <Position>
              <LatitudeDegrees>43.29108349978923797607421875</LatitudeDegrees>
              <LongitudeDegrees>-2.48692366294562816619873046875</LongitudeDegrees>
            </Position>
            <AltitudeMeters>78</AltitudeMeters>
            <DistanceMeters>NAN</DistanceMeters>
          </Trackpoint>
          <Trackpoint>
            <Time>2022-07-11T06:53:05.000Z</Time>
            <Position>
              <LatitudeDegrees>43.2907663285732269287109375</LatitudeDegrees>
              <LongitudeDegrees>-2.4869048036634922027587890625</LongitudeDegrees>
            </Position>
            <AltitudeMeters>78</AltitudeMeters>
            <DistanceMeters>NAN</DistanceMeters>
          </Trackpoint>
          <Trackpoint>
            <Time>2022-07-11T06:53:12.000Z</Time>
            <Position>
              <LatitudeDegrees>43.2904325611889362335205078125</LatitudeDegrees>
              <LongitudeDegrees>-2.48692743480205535888671875</LongitudeDegrees>
            </Position>
            <AltitudeMeters>78</AltitudeMeters>
            <DistanceMeters>NAN</DistanceMeters>
          </Trackpoint>
          <Trackpoint>
            <Time>2022-07-11T06:53:20.000Z</Time>
            <Position>
              <LatitudeDegrees>43.29006736166775226593017578125</LatitudeDegrees>
              <LongitudeDegrees>-2.48696473427116870880126953125</LongitudeDegrees>
            </Position>
            <AltitudeMeters>77.8000030517578125</AltitudeMeters>
            <DistanceMeters>NAN</DistanceMeters>
          </Trackpoint>
          <Trackpoint>
            <Time>2022-07-11T06:53:21.000Z</Time>
            <Position>
              <LatitudeDegrees>43.29002360813319683074951171875</LatitudeDegrees>
              <LongitudeDegrees>-2.48697378672659397125244140625</LongitudeDegrees>
            </Position>
            <AltitudeMeters>77.59999847412109375</AltitudeMeters>
            <DistanceMeters>NAN</DistanceMeters>
          </Trackpoint>
          <Trackpoint>
            <Time>2022-07-11T06:53:23.000Z</Time>
            <Position>
              <LatitudeDegrees>43.28993953764438629150390625</LatitudeDegrees>
              <LongitudeDegrees>-2.48699449002742767333984375</LongitudeDegrees>
            </Position>
            <AltitudeMeters>77.59999847412109375</AltitudeMeters>
            <DistanceMeters>NAN</DistanceMeters>
          </Trackpoint>
          <Trackpoint>
            <Time>2022-07-11T06:53:29.000Z</Time>
            <Position>
              <LatitudeDegrees>43.2897083647549152374267578125</LatitudeDegrees>
              <LongitudeDegrees>-2.4870794825255870819091796875</LongitudeDegrees>
            </Position>
            <AltitudeMeters>77.40000152587890625</AltitudeMeters>
            <DistanceMeters>NAN</DistanceMeters>
          </Trackpoint>
          <Trackpoint>
            <Time>2022-07-11T06:53:33.000Z</Time>
            <Position>
              <LatitudeDegrees>43.28955254517495632171630859375</LatitudeDegrees>
              <LongitudeDegrees>-2.48715944588184356689453125</LongitudeDegrees>
            </Position>
            <AltitudeMeters>77.59999847412109375</AltitudeMeters>
            <DistanceMeters>NAN</DistanceMeters>
          </Trackpoint>
          <Trackpoint>
            <Time>2022-07-11T06:53:37.000Z</Time>
            <Position>
              <LatitudeDegrees>43.28939446248114109039306640625</LatitudeDegrees>
              <LongitudeDegrees>-2.48728140257298946380615234375</LongitudeDegrees>
            </Position>
            <AltitudeMeters>77.8000030517578125</AltitudeMeters>
            <DistanceMeters>NAN</DistanceMeters>
          </Trackpoint>
          <Trackpoint>
            <Time>2022-07-11T06:53:40.000Z</Time>
            <Position>
              <LatitudeDegrees>43.2892956398427486419677734375</LatitudeDegrees>
              <LongitudeDegrees>-2.48736731708049774169921875</LongitudeDegrees>
            </Position>
            <AltitudeMeters>77.59999847412109375</AltitudeMeters>
            <DistanceMeters>NAN</DistanceMeters>
          </Trackpoint>
          <Trackpoint>
            <Time>2022-07-11T06:53:44.000Z</Time>
            <Position>
              <LatitudeDegrees>43.289125822484493255615234375</LatitudeDegrees>
              <LongitudeDegrees>-2.4874948896467685699462890625</LongitudeDegrees>
            </Position>
            <AltitudeMeters>77.40000152587890625</AltitudeMeters>
            <DistanceMeters>NAN</DistanceMeters>
          </Trackpoint>
          <Trackpoint>
            <Time>2022-07-11T06:53:54.000Z</Time>
            <Position>
              <LatitudeDegrees>43.28871854580938816070556640625</LatitudeDegrees>
              <LongitudeDegrees>-2.4878479354083538055419921875</LongitudeDegrees>
            </Position>
            <AltitudeMeters>77.40000152587890625</AltitudeMeters>
            <DistanceMeters>NAN</DistanceMeters>
          </Trackpoint>
          <Trackpoint>
            <Time>2022-07-11T06:54:00.000Z</Time>
            <Position>
              <LatitudeDegrees>43.28852945007383823394775390625</LatitudeDegrees>
              <LongitudeDegrees>-2.4880219437181949615478515625</LongitudeDegrees>
            </Position>
            <AltitudeMeters>77.1999969482421875</AltitudeMeters>
            <DistanceMeters>NAN</DistanceMeters>
          </Trackpoint>
          <Trackpoint>
            <Time>2022-07-11T06:54:01.000Z</Time>
            <Position>
              <LatitudeDegrees>43.288457952439785003662109375</LatitudeDegrees>
              <LongitudeDegrees>-2.48811624012887477874755859375</LongitudeDegrees>
            </Position>
            <AltitudeMeters>77.1999969482421875</AltitudeMeters>
            <DistanceMeters>NAN</DistanceMeters>
          </Trackpoint>
          <Trackpoint>
            <Time>2022-07-11T06:54:05.000Z</Time>
            <Position>
              <LatitudeDegrees>43.28833163715898990631103515625</LatitudeDegrees>
              <LongitudeDegrees>-2.488282956182956695556640625</LongitudeDegrees>
            </Position>
            <AltitudeMeters>77</AltitudeMeters>
            <DistanceMeters>NAN</DistanceMeters>
          </Trackpoint>
          <Trackpoint>
            <Time>2022-07-11T06:54:11.000Z</Time>
            <Position>
              <LatitudeDegrees>43.28810901381075382232666015625</LatitudeDegrees>
              <LongitudeDegrees>-2.48854891397058963775634765625</LongitudeDegrees>
            </Position>
            <AltitudeMeters>77</AltitudeMeters>
            <DistanceMeters>NAN</DistanceMeters>
          </Trackpoint>
          <Trackpoint>
            <Time>2022-07-11T06:54:16.000Z</Time>
            <Position>
              <LatitudeDegrees>43.28793383203446865081787109375</LatitudeDegrees>
              <LongitudeDegrees>-2.48875628225505352020263671875</LongitudeDegrees>
            </Position>
            <AltitudeMeters>77</AltitudeMeters>
            <DistanceMeters>NAN</DistanceMeters>
          </Trackpoint>
          <Trackpoint>
            <Time>2022-07-11T06:54:18.000Z</Time>
            <Position>
              <LatitudeDegrees>43.28787130303680896759033203125</LatitudeDegrees>
              <LongitudeDegrees>-2.48886357061564922332763671875</LongitudeDegrees>
            </Position>
            <AltitudeMeters>77</AltitudeMeters>
            <DistanceMeters>NAN</DistanceMeters>
          </Trackpoint>
          <Trackpoint>
            <Time>2022-07-11T06:54:25.000Z</Time>
            <Position>
              <LatitudeDegrees>43.2876789383590221405029296875</LatitudeDegrees>
              <LongitudeDegrees>-2.4892071448266506195068359375</LongitudeDegrees>
            </Position>
            <AltitudeMeters>76.59999847412109375</AltitudeMeters>
            <DistanceMeters>NAN</DistanceMeters>
          </Trackpoint>
          <Trackpoint>
            <Time>2022-07-11T06:54:27.000Z</Time>
            <Position>
              <LatitudeDegrees>43.2876366935670375823974609375</LatitudeDegrees>
              <LongitudeDegrees>-2.4893201328814029693603515625</LongitudeDegrees>
            </Position>
            <AltitudeMeters>76.8000030517578125</AltitudeMeters>
            <DistanceMeters>NAN</DistanceMeters>
          </Trackpoint>
          <Trackpoint>
            <Time>2022-07-11T06:54:28.000Z</Time>
            <Position>
              <LatitudeDegrees>43.2876174151897430419921875</LatitudeDegrees>
              <LongitudeDegrees>-2.48937654308974742889404296875</LongitudeDegrees>
            </Position>
            <AltitudeMeters>76.8000030517578125</AltitudeMeters>
            <DistanceMeters>NAN</DistanceMeters>
          </Trackpoint>
          <Trackpoint>
            <Time>2022-07-11T06:54:36.000Z</Time>
            <Position>
              <LatitudeDegrees>43.2874811254441738128662109375</LatitudeDegrees>
              <LongitudeDegrees>-2.48980083502829074859619140625</LongitudeDegrees>
            </Position>
            <AltitudeMeters>76.8000030517578125</AltitudeMeters>
            <DistanceMeters>NAN</DistanceMeters>
          </Trackpoint>
          <Trackpoint>
            <Time>2022-07-11T06:54:44.000Z</Time>
            <Position>
              <LatitudeDegrees>43.28738129697740077972412109375</LatitudeDegrees>
              <LongitudeDegrees>-2.49016142450273036956787109375</LongitudeDegrees>
            </Position>
            <AltitudeMeters>77.1999969482421875</AltitudeMeters>
            <DistanceMeters>NAN</DistanceMeters>
          </Trackpoint>
          <Trackpoint>
            <Time>2022-07-11T06:54:49.000Z</Time>
            <Position>
              <LatitudeDegrees>43.28735430724918842315673828125</LatitudeDegrees>
              <LongitudeDegrees>-2.49035990796983242034912109375</LongitudeDegrees>
            </Position>
            <AltitudeMeters>77.40000152587890625</AltitudeMeters>
            <DistanceMeters>NAN</DistanceMeters>
          </Trackpoint>
          <Trackpoint>
            <Time>2022-07-11T06:54:50.000Z</Time>
            <Position>
              <LatitudeDegrees>43.28735112212598323822021484375</LatitudeDegrees>
              <LongitudeDegrees>-2.49039418995380401611328125</LongitudeDegrees>
            </Position>
            <AltitudeMeters>77.59999847412109375</AltitudeMeters>
            <DistanceMeters>NAN</DistanceMeters>
          </Trackpoint>
          <Trackpoint>
            <Time>2022-07-11T06:54:53.000Z</Time>
            <Position>
              <LatitudeDegrees>43.2873339392244815826416015625</LatitudeDegrees>
              <LongitudeDegrees>-2.490513212978839874267578125</LongitudeDegrees>
            </Position>
            <AltitudeMeters>77.59999847412109375</AltitudeMeters>
            <DistanceMeters>NAN</DistanceMeters>
          </Trackpoint>
          <Trackpoint>
            <Time>2022-07-11T06:54:56.000Z</Time>
            <Position>
              <LatitudeDegrees>43.2873215340077877044677734375</LatitudeDegrees>
              <LongitudeDegrees>-2.49063801951706409454345703125</LongitudeDegrees>
            </Position>
            <AltitudeMeters>77.8000030517578125</AltitudeMeters>
            <DistanceMeters>NAN</DistanceMeters>
          </Trackpoint>
          <Trackpoint>
            <Time>2022-07-11T06:55:02.000Z</Time>
            <Position>
              <LatitudeDegrees>43.2873077876865863800048828125</LatitudeDegrees>
              <LongitudeDegrees>-2.4908722937107086181640625</LongitudeDegrees>
            </Position>
            <AltitudeMeters>78.1999969482421875</AltitudeMeters>
            <DistanceMeters>NAN</DistanceMeters>
          </Trackpoint>
          <Trackpoint>
            <Time>2022-07-11T06:55:03.000Z</Time>
            <Position>
              <LatitudeDegrees>43.287304602563381195068359375</LatitudeDegrees>
              <LongitudeDegrees>-2.49092233367264270782470703125</LongitudeDegrees>
            </Position>
            <AltitudeMeters>78.1999969482421875</AltitudeMeters>
            <DistanceMeters>NAN</DistanceMeters>
          </Trackpoint>
          <Trackpoint>
            <Time>2022-07-11T06:55:05.000Z</Time>
            <Position>
              <LatitudeDegrees>43.287300579249858856201171875</LatitudeDegrees>
              <LongitudeDegrees>-2.49101989902555942535400390625</LongitudeDegrees>
            </Position>
            <AltitudeMeters>78.59999847412109375</AltitudeMeters>
            <DistanceMeters>NAN</DistanceMeters>
          </Trackpoint>
          <Trackpoint>
            <Time>2022-07-11T06:55:07.000Z</Time>
            <Position>
              <LatitudeDegrees>43.28730686567723751068115234375</LatitudeDegrees>
              <LongitudeDegrees>-2.4911064840853214263916015625</LongitudeDegrees>
            </Position>
            <AltitudeMeters>78.8000030517578125</AltitudeMeters>
            <DistanceMeters>NAN</DistanceMeters>
          </Trackpoint>
          <Trackpoint>
            <Time>2022-07-11T06:55:12.000Z</Time>
            <Position>
              <LatitudeDegrees>43.28735749237239360809326171875</LatitudeDegrees>
              <LongitudeDegrees>-2.491269595921039581298828125</LongitudeDegrees>
            </Position>
            <AltitudeMeters>79.1999969482421875</AltitudeMeters>
            <DistanceMeters>NAN</DistanceMeters>
          </Trackpoint>
          <Trackpoint>
            <Time>2022-07-11T06:55:20.000Z</Time>
            <Position>
              <LatitudeDegrees>43.28746612183749675750732421875</LatitudeDegrees>
              <LongitudeDegrees>-2.49145642854273319244384765625</LongitudeDegrees>
            </Position>
            <AltitudeMeters>79.59999847412109375</AltitudeMeters>
            <DistanceMeters>NAN</DistanceMeters>
          </Trackpoint>
          <Trackpoint>
            <Time>2022-07-11T06:55:22.000Z</Time>
            <Position>
              <LatitudeDegrees>43.28750853426754474639892578125</LatitudeDegrees>
              <LongitudeDegrees>-2.49150034971535205841064453125</LongitudeDegrees>
            </Position>
            <AltitudeMeters>79.8000030517578125</AltitudeMeters>
            <DistanceMeters>NAN</DistanceMeters>
          </Trackpoint>
          <Trackpoint>
            <Time>2022-07-11T06:55:27.000Z</Time>
            <Position>
              <LatitudeDegrees>43.28759386204183101654052734375</LatitudeDegrees>
              <LongitudeDegrees>-2.49156053178012371063232421875</LongitudeDegrees>
            </Position>
            <AltitudeMeters>80</AltitudeMeters>
            <DistanceMeters>NAN</DistanceMeters>
          </Trackpoint>
          <Trackpoint>
            <Time>2022-07-11T06:55:37.000Z</Time>
            <Position>
              <LatitudeDegrees>43.2877811975777149200439453125</LatitudeDegrees>
              <LongitudeDegrees>-2.49175532720983028411865234375</LongitudeDegrees>
            </Position>
            <AltitudeMeters>80.59999847412109375</AltitudeMeters>
            <DistanceMeters>NAN</DistanceMeters>
          </Trackpoint>
          <Trackpoint>
            <Time>2022-07-11T06:55:41.000Z</Time>
            <Position>
              <LatitudeDegrees>43.2878454029560089111328125</LatitudeDegrees>
              <LongitudeDegrees>-2.49182154424488544464111328125</LongitudeDegrees>
            </Position>
            <AltitudeMeters>80.8000030517578125</AltitudeMeters>
            <DistanceMeters>NAN</DistanceMeters>
          </Trackpoint>
          <Trackpoint>
            <Time>2022-07-11T06:55:47.000Z</Time>
            <Position>
              <LatitudeDegrees>43.28795478679239749908447265625</LatitudeDegrees>
              <LongitudeDegrees>-2.491940148174762725830078125</LongitudeDegrees>
            </Position>
            <AltitudeMeters>81.1999969482421875</AltitudeMeters>
            <DistanceMeters>NAN</DistanceMeters>
          </Trackpoint>
          <Trackpoint>
            <Time>2022-07-11T06:55:53.000Z</Time>
            <Position>
              <LatitudeDegrees>43.28805520199239253997802734375</LatitudeDegrees>
              <LongitudeDegrees>-2.49202656559646129608154296875</LongitudeDegrees>
            </Position>
            <AltitudeMeters>81.8000030517578125</AltitudeMeters>
            <DistanceMeters>NAN</DistanceMeters>
          </Trackpoint>
          <Trackpoint>
            <Time>2022-07-11T06:55:56.000Z</Time>
            <Position>
              <LatitudeDegrees>43.2881080918014049530029296875</LatitudeDegrees>
              <LongitudeDegrees>-2.49208264052867889404296875</LongitudeDegrees>
            </Position>
            <AltitudeMeters>82</AltitudeMeters>
            <DistanceMeters>NAN</DistanceMeters>
          </Trackpoint>
          <Trackpoint>
            <Time>2022-07-11T06:56:03.000Z</Time>
            <Position>
              <LatitudeDegrees>43.288211524486541748046875</LatitudeDegrees>
              <LongitudeDegrees>-2.492209374904632568359375</LongitudeDegrees>
            </Position>
            <AltitudeMeters>82.40000152587890625</AltitudeMeters>
            <DistanceMeters>NAN</DistanceMeters>
          </Trackpoint>
          <Trackpoint>
            <Time>2022-07-11T06:56:13.000Z</Time>
            <Position>
              <LatitudeDegrees>43.288331218063831329345703125</LatitudeDegrees>
              <LongitudeDegrees>-2.4924040026962757110595703125</LongitudeDegrees>
            </Position>
            <AltitudeMeters>82.59999847412109375</AltitudeMeters>
            <DistanceMeters>NAN</DistanceMeters>
          </Trackpoint>
          <Trackpoint>
            <Time>2022-07-11T06:56:22.000Z</Time>
            <Position>
              <LatitudeDegrees>43.28839383088052272796630859375</LatitudeDegrees>
              <LongitudeDegrees>-2.492654956877231597900390625</LongitudeDegrees>
            </Position>
            <AltitudeMeters>82.8000030517578125</AltitudeMeters>
            <DistanceMeters>NAN</DistanceMeters>
          </Trackpoint>
          <Trackpoint>
            <Time>2022-07-11T06:56:30.000Z</Time>
            <Position>
              <LatitudeDegrees>43.28842408955097198486328125</LatitudeDegrees>
              <LongitudeDegrees>-2.49289509840309619903564453125</LongitudeDegrees>
            </Position>
            <AltitudeMeters>83.1999969482421875</AltitudeMeters>
            <DistanceMeters>NAN</DistanceMeters>
          </Trackpoint>
          <Trackpoint>
            <Time>2022-07-11T06:56:31.000Z</Time>
            <Position>
              <LatitudeDegrees>43.28842685557901859283447265625</LatitudeDegrees>
              <LongitudeDegrees>-2.492914460599422454833984375</LongitudeDegrees>
            </Position>
            <AltitudeMeters>83.1999969482421875</AltitudeMeters>
            <DistanceMeters>NAN</DistanceMeters>
          </Trackpoint>
          <Trackpoint>
            <Time>2022-07-11T06:56:39.000Z</Time>
            <Position>
              <LatitudeDegrees>43.288421742618083953857421875</LatitudeDegrees>
              <LongitudeDegrees>-2.49311269260942935943603515625</LongitudeDegrees>
            </Position>
            <AltitudeMeters>83.59999847412109375</AltitudeMeters>
            <DistanceMeters>NAN</DistanceMeters>
          </Trackpoint>
          <Trackpoint>
            <Time>2022-07-11T06:56:42.000Z</Time>
            <Position>
              <LatitudeDegrees>43.288425095379352569580078125</LatitudeDegrees>
              <LongitudeDegrees>-2.49319567345082759857177734375</LongitudeDegrees>
            </Position>
            <AltitudeMeters>84</AltitudeMeters>
            <DistanceMeters>NAN</DistanceMeters>
          </Trackpoint>
          <Trackpoint>
            <Time>2022-07-11T06:56:49.000Z</Time>
            <Position>
              <LatitudeDegrees>43.2883937470614910125732421875</LatitudeDegrees>
              <LongitudeDegrees>-2.4933457933366298675537109375</LongitudeDegrees>
            </Position>
            <AltitudeMeters>84.40000152587890625</AltitudeMeters>
            <DistanceMeters>NAN</DistanceMeters>
          </Trackpoint>
          <Trackpoint>
            <Time>2022-07-11T06:56:58.000Z</Time>
            <Position>
              <LatitudeDegrees>43.2883263565599918365478515625</LatitudeDegrees>
              <LongitudeDegrees>-2.4935610406100749969482421875</LongitudeDegrees>
            </Position>
            <AltitudeMeters>85</AltitudeMeters>
            <DistanceMeters>NAN</DistanceMeters>
          </Trackpoint>
          <Trackpoint>
            <Time>2022-07-11T06:57:08.000Z</Time>
            <Position>
              <LatitudeDegrees>43.28823926858603954315185546875</LatitudeDegrees>
              <LongitudeDegrees>-2.49372004531323909759521484375</LongitudeDegrees>
            </Position>
            <AltitudeMeters>85.59999847412109375</AltitudeMeters>
            <DistanceMeters>NAN</DistanceMeters>
          </Trackpoint>
          <Trackpoint>
            <Time>2022-07-11T06:57:11.000Z</Time>
            <Position>
              <LatitudeDegrees>43.28817824833095073699951171875</LatitudeDegrees>
              <LongitudeDegrees>-2.49379095621407032012939453125</LongitudeDegrees>
            </Position>
            <AltitudeMeters>85.8000030517578125</AltitudeMeters>
            <DistanceMeters>NAN</DistanceMeters>
          </Trackpoint>
          <Trackpoint>
            <Time>2022-07-11T06:57:12.000Z</Time>
            <Position>
              <LatitudeDegrees>43.28816534020006656646728515625</LatitudeDegrees>
              <LongitudeDegrees>-2.49380822293460369110107421875</LongitudeDegrees>
            </Position>
            <AltitudeMeters>86</AltitudeMeters>
            <DistanceMeters>NAN</DistanceMeters>
          </Trackpoint>
          <Trackpoint>
            <Time>2022-07-11T06:57:17.000Z</Time>
            <Position>
              <LatitudeDegrees>43.28808940015733242034912109375</LatitudeDegrees>
              <LongitudeDegrees>-2.49389137141406536102294921875</LongitudeDegrees>
            </Position>
            <AltitudeMeters>86</AltitudeMeters>
            <DistanceMeters>NAN</DistanceMeters>
          </Trackpoint>
          <Trackpoint>
            <Time>2022-07-11T06:57:18.000Z</Time>
            <Position>
              <LatitudeDegrees>43.2880747318267822265625</LatitudeDegrees>
              <LongitudeDegrees>-2.49390964396297931671142578125</LongitudeDegrees>
            </Position>
            <AltitudeMeters>86</AltitudeMeters>
            <DistanceMeters>NAN</DistanceMeters>
          </Trackpoint>
          <Trackpoint>
            <Time>2022-07-11T06:57:26.000Z</Time>
            <Position>
              <LatitudeDegrees>43.28795881010591983795166015625</LatitudeDegrees>
              <LongitudeDegrees>-2.49403671361505985260009765625</LongitudeDegrees>
            </Position>
            <AltitudeMeters>86.59999847412109375</AltitudeMeters>
            <DistanceMeters>NAN</DistanceMeters>
          </Trackpoint>
          <Trackpoint>
            <Time>2022-07-11T06:57:32.000Z</Time>
            <Position>
              <LatitudeDegrees>43.28783475793898105621337890625</LatitudeDegrees>
              <LongitudeDegrees>-2.4941152520477771759033203125</LongitudeDegrees>
            </Position>
            <AltitudeMeters>87</AltitudeMeters>
            <DistanceMeters>NAN</DistanceMeters>
          </Trackpoint>
          <Trackpoint>
            <Time>2022-07-11T06:57:35.000Z</Time>
            <Position>
              <LatitudeDegrees>43.2877708040177822113037109375</LatitudeDegrees>
              <LongitudeDegrees>-2.49415070749819278717041015625</LongitudeDegrees>
            </Position>
            <AltitudeMeters>87.1999969482421875</AltitudeMeters>
            <DistanceMeters>NAN</DistanceMeters>
          </Trackpoint>
          <Trackpoint>
            <Time>2022-07-11T06:57:47.000Z</Time>
            <Position>
              <LatitudeDegrees>43.2875354401767253875732421875</LatitudeDegrees>
              <LongitudeDegrees>-2.49422145076096057891845703125</LongitudeDegrees>
            </Position>
            <AltitudeMeters>87.59999847412109375</AltitudeMeters>
            <DistanceMeters>NAN</DistanceMeters>
          </Trackpoint>
          <Trackpoint>
            <Time>2022-07-11T06:57:54.000Z</Time>
            <Position>
              <LatitudeDegrees>43.28737006522715091705322265625</LatitudeDegrees>
              <LongitudeDegrees>-2.4942505359649658203125</LongitudeDegrees>
            </Position>
            <AltitudeMeters>88</AltitudeMeters>
            <DistanceMeters>NAN</DistanceMeters>
          </Trackpoint>
          <Trackpoint>
            <Time>2022-07-11T06:57:55.000Z</Time>
            <Position>
              <LatitudeDegrees>43.28734944574534893035888671875</LatitudeDegrees>
              <LongitudeDegrees>-2.49425078742206096649169921875</LongitudeDegrees>
            </Position>
            <AltitudeMeters>88</AltitudeMeters>
            <DistanceMeters>NAN</DistanceMeters>
          </Trackpoint>
          <Trackpoint>
            <Time>2022-07-11T06:57:58.000Z</Time>
            <Position>
              <LatitudeDegrees>43.287287168204784393310546875</LatitudeDegrees>
              <LongitudeDegrees>-2.4942543916404247283935546875</LongitudeDegrees>
            </Position>
            <AltitudeMeters>88</AltitudeMeters>
            <DistanceMeters>NAN</DistanceMeters>
          </Trackpoint>
          <Trackpoint>
            <Time>2022-07-11T06:58:02.000Z</Time>
            <Position>
              <LatitudeDegrees>43.28720829449594020843505859375</LatitudeDegrees>
              <LongitudeDegrees>-2.4942708201706409454345703125</LongitudeDegrees>
            </Position>
            <AltitudeMeters>88.1999969482421875</AltitudeMeters>
            <DistanceMeters>NAN</DistanceMeters>
          </Trackpoint>
          <Trackpoint>
            <Time>2022-07-11T06:58:06.000Z</Time>
            <Position>
              <LatitudeDegrees>43.28716621734201908111572265625</LatitudeDegrees>
              <LongitudeDegrees>-2.494292445480823516845703125</LongitudeDegrees>
            </Position>
            <AltitudeMeters>88.40000152587890625</AltitudeMeters>
            <DistanceMeters>NAN</DistanceMeters>
          </Trackpoint>
          <Trackpoint>
            <Time>2022-07-11T06:58:10.000Z</Time>
            <Position>
              <LatitudeDegrees>43.28708030283451080322265625</LatitudeDegrees>
              <LongitudeDegrees>-2.49434097670018672943115234375</LongitudeDegrees>
            </Position>
            <AltitudeMeters>88.59999847412109375</AltitudeMeters>
            <DistanceMeters>NAN</DistanceMeters>
          </Trackpoint>
          <Trackpoint>
            <Time>2022-07-11T06:58:16.000Z</Time>
            <Position>
              <LatitudeDegrees>43.28694845549762248992919921875</LatitudeDegrees>
              <LongitudeDegrees>-2.49437324702739715576171875</LongitudeDegrees>
            </Position>
            <AltitudeMeters>89</AltitudeMeters>
            <DistanceMeters>NAN</DistanceMeters>
          </Trackpoint>
          <Trackpoint>
            <Time>2022-07-11T06:58:18.000Z</Time>
            <Position>
              <LatitudeDegrees>43.2869118265807628631591796875</LatitudeDegrees>
              <LongitudeDegrees>-2.49438573606312274932861328125</LongitudeDegrees>
            </Position>
            <AltitudeMeters>89.1999969482421875</AltitudeMeters>
            <DistanceMeters>NAN</DistanceMeters>
          </Trackpoint>
          <Trackpoint>
            <Time>2022-07-11T06:58:29.000Z</Time>
            <Position>
              <LatitudeDegrees>43.2866598665714263916015625</LatitudeDegrees>
              <LongitudeDegrees>-2.4944746680557727813720703125</LongitudeDegrees>
            </Position>
            <AltitudeMeters>89.40000152587890625</AltitudeMeters>
            <DistanceMeters>NAN</DistanceMeters>
          </Trackpoint>
          <Trackpoint>
            <Time>2022-07-11T06:58:37.000Z</Time>
            <Position>
              <LatitudeDegrees>43.2864533364772796630859375</LatitudeDegrees>
              <LongitudeDegrees>-2.49454935081303119659423828125</LongitudeDegrees>
            </Position>
            <AltitudeMeters>89.40000152587890625</AltitudeMeters>
            <DistanceMeters>NAN</DistanceMeters>
          </Trackpoint>
          <Trackpoint>
            <Time>2022-07-11T06:58:41.000Z</Time>
            <Position>
              <LatitudeDegrees>43.28636373393237590789794921875</LatitudeDegrees>
              <LongitudeDegrees>-2.4945799447596073150634765625</LongitudeDegrees>
            </Position>
            <AltitudeMeters>89.40000152587890625</AltitudeMeters>
            <DistanceMeters>NAN</DistanceMeters>
          </Trackpoint>
          <Trackpoint>
            <Time>2022-07-11T06:58:43.000Z</Time>
            <Position>
              <LatitudeDegrees>43.28630371950566768646240234375</LatitudeDegrees>
              <LongitudeDegrees>-2.49460685066878795623779296875</LongitudeDegrees>
            </Position>
            <AltitudeMeters>89.40000152587890625</AltitudeMeters>
            <DistanceMeters>NAN</DistanceMeters>
          </Trackpoint>
          <Trackpoint>
            <Time>2022-07-11T06:58:49.000Z</Time>
            <Position>
              <LatitudeDegrees>43.28612199984490871429443359375</LatitudeDegrees>
              <LongitudeDegrees>-2.494702152907848358154296875</LongitudeDegrees>
            </Position>
            <AltitudeMeters>89.40000152587890625</AltitudeMeters>
            <DistanceMeters>NAN</DistanceMeters>
          </Trackpoint>
          <Trackpoint>
            <Time>2022-07-11T06:58:56.000Z</Time>
            <Position>
              <LatitudeDegrees>43.28588747419416904449462890625</LatitudeDegrees>
              <LongitudeDegrees>-2.49481790699064731597900390625</LongitudeDegrees>
            </Position>
            <AltitudeMeters>89.8000030517578125</AltitudeMeters>
            <DistanceMeters>NAN</DistanceMeters>
          </Trackpoint>
          <Trackpoint>
            <Time>2022-07-11T06:58:58.000Z</Time>
            <Position>
              <LatitudeDegrees>43.28582234680652618408203125</LatitudeDegrees>
              <LongitudeDegrees>-2.4948525242507457733154296875</LongitudeDegrees>
            </Position>
            <AltitudeMeters>89.8000030517578125</AltitudeMeters>
            <DistanceMeters>NAN</DistanceMeters>
          </Trackpoint>
          <Trackpoint>
            <Time>2022-07-11T06:59:08.000Z</Time>
            <Position>
              <LatitudeDegrees>43.28552504070103168487548828125</LatitudeDegrees>
              <LongitudeDegrees>-2.49497548677027225494384765625</LongitudeDegrees>
            </Position>
            <AltitudeMeters>90</AltitudeMeters>
            <DistanceMeters>NAN</DistanceMeters>
          </Trackpoint>
          <Trackpoint>
            <Time>2022-07-11T06:59:09.000Z</Time>
            <Position>
              <LatitudeDegrees>43.28549436293542385101318359375</LatitudeDegrees>
              <LongitudeDegrees>-2.49498554505407810211181640625</LongitudeDegrees>
            </Position>
            <AltitudeMeters>90</AltitudeMeters>
            <DistanceMeters>NAN</DistanceMeters>
          </Trackpoint>
          <Trackpoint>
            <Time>2022-07-11T06:59:11.000Z</Time>
            <Position>
              <LatitudeDegrees>43.28543418087065219879150390625</LatitudeDegrees>
              <LongitudeDegrees>-2.49500264413654804229736328125</LongitudeDegrees>
            </Position>
            <AltitudeMeters>90.1999969482421875</AltitudeMeters>
            <DistanceMeters>NAN</DistanceMeters>
          </Trackpoint>
          <Trackpoint>
            <Time>2022-07-11T06:59:16.000Z</Time>
            <Position>
              <LatitudeDegrees>43.28530199825763702392578125</LatitudeDegrees>
              <LongitudeDegrees>-2.495044134557247161865234375</LongitudeDegrees>
            </Position>
            <AltitudeMeters>90.1999969482421875</AltitudeMeters>
            <DistanceMeters>NAN</DistanceMeters>
          </Trackpoint>
          <Trackpoint>
            <Time>2022-07-11T06:59:22.000Z</Time>
            <Position>
              <LatitudeDegrees>43.28513762913644313812255859375</LatitudeDegrees>
              <LongitudeDegrees>-2.49509367160499095916748046875</LongitudeDegrees>
            </Position>
            <AltitudeMeters>90.1999969482421875</AltitudeMeters>
            <DistanceMeters>NAN</DistanceMeters>
          </Trackpoint>
          <Trackpoint>
            <Time>2022-07-11T06:59:28.000Z</Time>
            <Position>
              <LatitudeDegrees>43.28497074544429779052734375</LatitudeDegrees>
              <LongitudeDegrees>-2.4951472319662570953369140625</LongitudeDegrees>
            </Position>
            <AltitudeMeters>90.1999969482421875</AltitudeMeters>
            <DistanceMeters>NAN</DistanceMeters>
          </Trackpoint>
          <Trackpoint>
            <Time>2022-07-11T06:59:31.000Z</Time>
            <Position>
              <LatitudeDegrees>43.284887261688709259033203125</LatitudeDegrees>
              <LongitudeDegrees>-2.49517397023737430572509765625</LongitudeDegrees>
            </Position>
            <AltitudeMeters>90.40000152587890625</AltitudeMeters>
            <DistanceMeters>NAN</DistanceMeters>
          </Trackpoint>
          <Trackpoint>
            <Time>2022-07-11T06:59:36.000Z</Time>
            <Position>
              <LatitudeDegrees>43.28479346819221973419189453125</LatitudeDegrees>
              <LongitudeDegrees>-2.49521671794354915618896484375</LongitudeDegrees>
            </Position>
            <AltitudeMeters>90.8000030517578125</AltitudeMeters>
            <DistanceMeters>NAN</DistanceMeters>
          </Trackpoint>
          <Trackpoint>
            <Time>2022-07-11T06:59:43.000Z</Time>
            <Position>
              <LatitudeDegrees>43.2845826633274555206298828125</LatitudeDegrees>
              <LongitudeDegrees>-2.495304308831691741943359375</LongitudeDegrees>
            </Position>
            <AltitudeMeters>91</AltitudeMeters>
            <DistanceMeters>NAN</DistanceMeters>
          </Trackpoint>
          <Trackpoint>
            <Time>2022-07-11T06:59:52.000Z</Time>
            <Position>
              <LatitudeDegrees>43.284349478781223297119140625</LatitudeDegrees>
              <LongitudeDegrees>-2.49536792747676372528076171875</LongitudeDegrees>
            </Position>
            <AltitudeMeters>91</AltitudeMeters>
            <DistanceMeters>NAN</DistanceMeters>
          </Trackpoint>
          <Trackpoint>
            <Time>2022-07-11T06:59:54.000Z</Time>
            <Position>
              <LatitudeDegrees>43.284296505153179168701171875</LatitudeDegrees>
              <LongitudeDegrees>-2.4953819252550601959228515625</LongitudeDegrees>
            </Position>
            <AltitudeMeters>91.1999969482421875</AltitudeMeters>
            <DistanceMeters>NAN</DistanceMeters>
          </Trackpoint>
          <Trackpoint>
            <Time>2022-07-11T07:00:00.000Z</Time>
            <Position>
              <LatitudeDegrees>43.28413096256554126739501953125</LatitudeDegrees>
              <LongitudeDegrees>-2.49544286169111728668212890625</LongitudeDegrees>
            </Position>
            <AltitudeMeters>91.40000152587890625</AltitudeMeters>
            <DistanceMeters>NAN</DistanceMeters>
          </Trackpoint>
          <Trackpoint>
            <Time>2022-07-11T07:00:06.000Z</Time>
            <Position>
              <LatitudeDegrees>43.28394656069576740264892578125</LatitudeDegrees>
              <LongitudeDegrees>-2.49546415172517299652099609375</LongitudeDegrees>
            </Position>
            <AltitudeMeters>91.59999847412109375</AltitudeMeters>
            <DistanceMeters>NAN</DistanceMeters>
          </Trackpoint>
          <Trackpoint>
            <Time>2022-07-11T07:00:07.000Z</Time>
            <Position>
              <LatitudeDegrees>43.28391822986304759979248046875</LatitudeDegrees>
              <LongitudeDegrees>-2.49546892940998077392578125</LongitudeDegrees>
            </Position>
            <AltitudeMeters>91.59999847412109375</AltitudeMeters>
            <DistanceMeters>NAN</DistanceMeters>
          </Trackpoint>
          <Trackpoint>
            <Time>2022-07-11T07:00:13.000Z</Time>
            <Position>
              <LatitudeDegrees>43.2837511785328388214111328125</LatitudeDegrees>
              <LongitudeDegrees>-2.495498098433017730712890625</LongitudeDegrees>
            </Position>
            <AltitudeMeters>92</AltitudeMeters>
            <DistanceMeters>NAN</DistanceMeters>
          </Trackpoint>
          <Trackpoint>
            <Time>2022-07-11T07:00:15.000Z</Time>
            <Position>
              <LatitudeDegrees>43.2836854644119739532470703125</LatitudeDegrees>
              <LongitudeDegrees>-2.49550170265138149261474609375</LongitudeDegrees>
            </Position>
            <AltitudeMeters>92.1999969482421875</AltitudeMeters>
            <DistanceMeters>NAN</DistanceMeters>
          </Trackpoint>
          <Trackpoint>
            <Time>2022-07-11T07:00:22.000Z</Time>
            <Position>
              <LatitudeDegrees>43.28347809612751007080078125</LatitudeDegrees>
              <LongitudeDegrees>-2.49556289054453372955322265625</LongitudeDegrees>
            </Position>
            <AltitudeMeters>92.40000152587890625</AltitudeMeters>
            <DistanceMeters>NAN</DistanceMeters>
          </Trackpoint>
          <Trackpoint>
            <Time>2022-07-11T07:00:30.000Z</Time>
            <Position>
              <LatitudeDegrees>43.283243738114833831787109375</LatitudeDegrees>
              <LongitudeDegrees>-2.4956427700817584991455078125</LongitudeDegrees>
            </Position>
            <AltitudeMeters>92.8000030517578125</AltitudeMeters>
            <DistanceMeters>NAN</DistanceMeters>
          </Trackpoint>
          <Trackpoint>
            <Time>2022-07-11T07:00:37.000Z</Time>
            <Position>
              <LatitudeDegrees>43.283029831945896148681640625</LatitudeDegrees>
              <LongitudeDegrees>-2.49573203735053539276123046875</LongitudeDegrees>
            </Position>
            <AltitudeMeters>93.1999969482421875</AltitudeMeters>
            <DistanceMeters>NAN</DistanceMeters>
          </Trackpoint>
          <Trackpoint>
            <Time>2022-07-11T07:00:40.000Z</Time>
            <Position>
              <LatitudeDegrees>43.2829391397535800933837890625</LatitudeDegrees>
              <LongitudeDegrees>-2.49576531350612640380859375</LongitudeDegrees>
            </Position>
            <AltitudeMeters>93.40000152587890625</AltitudeMeters>
            <DistanceMeters>NAN</DistanceMeters>
          </Trackpoint>
          <Trackpoint>
            <Time>2022-07-11T07:00:50.000Z</Time>
            <Position>
              <LatitudeDegrees>43.28266597352921962738037109375</LatitudeDegrees>
              <LongitudeDegrees>-2.4958436004817485809326171875</LongitudeDegrees>
            </Position>
            <AltitudeMeters>93.59999847412109375</AltitudeMeters>
            <DistanceMeters>NAN</DistanceMeters>
          </Trackpoint>
          <Trackpoint>
            <Time>2022-07-11T07:00:58.000Z</Time>
            <Position>
              <LatitudeDegrees>43.282416276633739471435546875</LatitudeDegrees>
              <LongitudeDegrees>-2.495872266590595245361328125</LongitudeDegrees>
            </Position>
            <AltitudeMeters>93.59999847412109375</AltitudeMeters>
            <DistanceMeters>NAN</DistanceMeters>
          </Trackpoint>
          <Trackpoint>
            <Time>2022-07-11T07:01:06.000Z</Time>
            <Position>
              <LatitudeDegrees>43.2821629755198955535888671875</LatitudeDegrees>
              <LongitudeDegrees>-2.49592113308608531951904296875</LongitudeDegrees>
            </Position>
            <AltitudeMeters>93.59999847412109375</AltitudeMeters>
            <DistanceMeters>NAN</DistanceMeters>
          </Trackpoint>
          <Trackpoint>
            <Time>2022-07-11T07:01:14.000Z</Time>
            <Position>
              <LatitudeDegrees>43.2819175533950328826904296875</LatitudeDegrees>
              <LongitudeDegrees>-2.49598818831145763397216796875</LongitudeDegrees>
            </Position>
            <AltitudeMeters>93.8000030517578125</AltitudeMeters>
            <DistanceMeters>NAN</DistanceMeters>
          </Trackpoint>
          <Trackpoint>
            <Time>2022-07-11T07:01:20.000Z</Time>
            <Position>
              <LatitudeDegrees>43.28171965666115283966064453125</LatitudeDegrees>
              <LongitudeDegrees>-2.4960145913064479827880859375</LongitudeDegrees>
            </Position>
            <AltitudeMeters>93.8000030517578125</AltitudeMeters>
            <DistanceMeters>NAN</DistanceMeters>
          </Trackpoint>
          <Trackpoint>
            <Time>2022-07-11T07:01:24.000Z</Time>
            <Position>
              <LatitudeDegrees>43.28157984651625156402587890625</LatitudeDegrees>
              <LongitudeDegrees>-2.49601216055452823638916015625</LongitudeDegrees>
            </Position>
            <AltitudeMeters>93.8000030517578125</AltitudeMeters>
            <DistanceMeters>NAN</DistanceMeters>
          </Trackpoint>
          <Trackpoint>
            <Time>2022-07-11T07:01:35.000Z</Time>
            <Position>
              <LatitudeDegrees>43.28119042329490184783935546875</LatitudeDegrees>
              <LongitudeDegrees>-2.49600042589008808135986328125</LongitudeDegrees>
            </Position>
            <AltitudeMeters>93.8000030517578125</AltitudeMeters>
            <DistanceMeters>NAN</DistanceMeters>
          </Trackpoint>
          <Trackpoint>
            <Time>2022-07-11T07:01:45.000Z</Time>
            <Position>
              <LatitudeDegrees>43.280820362269878387451171875</LatitudeDegrees>
              <LongitudeDegrees>-2.49603915028274059295654296875</LongitudeDegrees>
            </Position>
            <AltitudeMeters>93.8000030517578125</AltitudeMeters>
            <DistanceMeters>NAN</DistanceMeters>
          </Trackpoint>
          <Trackpoint>
            <Time>2022-07-11T07:01:46.000Z</Time>
            <Position>
              <LatitudeDegrees>43.2807843200862407684326171875</LatitudeDegrees>
              <LongitudeDegrees>-2.49603864736855030059814453125</LongitudeDegrees>
            </Position>
            <AltitudeMeters>93.59999847412109375</AltitudeMeters>
            <DistanceMeters>NAN</DistanceMeters>
          </Trackpoint>
          <Trackpoint>
            <Time>2022-07-11T07:01:50.000Z</Time>
            <Position>
              <LatitudeDegrees>43.280639983713626861572265625</LatitudeDegrees>
              <LongitudeDegrees>-2.49605088494718074798583984375</LongitudeDegrees>
            </Position>
            <AltitudeMeters>93.40000152587890625</AltitudeMeters>
            <DistanceMeters>NAN</DistanceMeters>
          </Trackpoint>
          <Trackpoint>
            <Time>2022-07-11T07:01:57.000Z</Time>
            <Position>
              <LatitudeDegrees>43.28037285245954990386962890625</LatitudeDegrees>
              <LongitudeDegrees>-2.49608583748340606689453125</LongitudeDegrees>
            </Position>
            <AltitudeMeters>93.1999969482421875</AltitudeMeters>
            <DistanceMeters>NAN</DistanceMeters>
          </Trackpoint>
          <Trackpoint>
            <Time>2022-07-11T07:02:03.000Z</Time>
            <Position>
              <LatitudeDegrees>43.2801586948335170745849609375</LatitudeDegrees>
              <LongitudeDegrees>-2.49611274339258670806884765625</LongitudeDegrees>
            </Position>
            <AltitudeMeters>93</AltitudeMeters>
            <DistanceMeters>NAN</DistanceMeters>
          </Trackpoint>
          <Trackpoint>
            <Time>2022-07-11T07:02:07.000Z</Time>
            <Position>
              <LatitudeDegrees>43.28001729212701320648193359375</LatitudeDegrees>
              <LongitudeDegrees>-2.49613151885569095611572265625</LongitudeDegrees>
            </Position>
            <AltitudeMeters>93</AltitudeMeters>
            <DistanceMeters>NAN</DistanceMeters>
          </Trackpoint>
          <Trackpoint>
            <Time>2022-07-11T07:02:13.000Z</Time>
            <Position>
              <LatitudeDegrees>43.279814533889293670654296875</LatitudeDegrees>
              <LongitudeDegrees>-2.4961466901004314422607421875</LongitudeDegrees>
            </Position>
            <AltitudeMeters>93</AltitudeMeters>
            <DistanceMeters>NAN</DistanceMeters>
          </Trackpoint>
          <Trackpoint>
            <Time>2022-07-11T07:02:18.000Z</Time>
            <Position>
              <LatitudeDegrees>43.27965133823454380035400390625</LatitudeDegrees>
              <LongitudeDegrees>-2.49615180306136608123779296875</LongitudeDegrees>
            </Position>
            <AltitudeMeters>93</AltitudeMeters>
            <DistanceMeters>NAN</DistanceMeters>
          </Trackpoint>
          <Trackpoint>
            <Time>2022-07-11T07:02:26.000Z</Time>
            <Position>
              <LatitudeDegrees>43.2793642580509185791015625</LatitudeDegrees>
              <LongitudeDegrees>-2.49617778696119785308837890625</LongitudeDegrees>
            </Position>
            <AltitudeMeters>93.1999969482421875</AltitudeMeters>
            <DistanceMeters>NAN</DistanceMeters>
          </Trackpoint>
          <Trackpoint>
            <Time>2022-07-11T07:02:31.000Z</Time>
            <Position>
              <LatitudeDegrees>43.27921028248965740203857421875</LatitudeDegrees>
              <LongitudeDegrees>-2.49619714915752410888671875</LongitudeDegrees>
            </Position>
            <AltitudeMeters>93.40000152587890625</AltitudeMeters>
            <DistanceMeters>NAN</DistanceMeters>
          </Trackpoint>
          <Trackpoint>
            <Time>2022-07-11T07:02:37.000Z</Time>
            <Position>
              <LatitudeDegrees>43.27903124503791332244873046875</LatitudeDegrees>
              <LongitudeDegrees>-2.4962152540683746337890625</LongitudeDegrees>
            </Position>
            <AltitudeMeters>93.40000152587890625</AltitudeMeters>
            <DistanceMeters>NAN</DistanceMeters>
          </Trackpoint>
          <Trackpoint>
            <Time>2022-07-11T07:02:44.000Z</Time>
            <Position>
              <LatitudeDegrees>43.278827480971813201904296875</LatitudeDegrees>
              <LongitudeDegrees>-2.496229670941829681396484375</LongitudeDegrees>
            </Position>
            <AltitudeMeters>93.8000030517578125</AltitudeMeters>
            <DistanceMeters>NAN</DistanceMeters>
          </Trackpoint>
          <Trackpoint>
            <Time>2022-07-11T07:02:53.000Z</Time>
            <Position>
              <LatitudeDegrees>43.278558589518070220947265625</LatitudeDegrees>
              <LongitudeDegrees>-2.4962375499308109283447265625</LongitudeDegrees>
            </Position>
            <AltitudeMeters>93.8000030517578125</AltitudeMeters>
            <DistanceMeters>NAN</DistanceMeters>
          </Trackpoint>
          <Trackpoint>
            <Time>2022-07-11T07:02:58.000Z</Time>
            <Position>
              <LatitudeDegrees>43.27841366641223430633544921875</LatitudeDegrees>
              <LongitudeDegrees>-2.49624811112880706787109375</LongitudeDegrees>
            </Position>
            <AltitudeMeters>94</AltitudeMeters>
            <DistanceMeters>NAN</DistanceMeters>
          </Trackpoint>
          <Trackpoint>
            <Time>2022-07-11T07:03:01.000Z</Time>
            <Position>
              <LatitudeDegrees>43.27832548879086971282958984375</LatitudeDegrees>
              <LongitudeDegrees>-2.496254146099090576171875</LongitudeDegrees>
            </Position>
            <AltitudeMeters>94.1999969482421875</AltitudeMeters>
            <DistanceMeters>NAN</DistanceMeters>
          </Trackpoint>
          <Trackpoint>
            <Time>2022-07-11T07:03:02.000Z</Time>
            <Position>
              <LatitudeDegrees>43.2782945595681667327880859375</LatitudeDegrees>
              <LongitudeDegrees>-2.49625624157488346099853515625</LongitudeDegrees>
            </Position>
            <AltitudeMeters>94.1999969482421875</AltitudeMeters>
            <DistanceMeters>NAN</DistanceMeters>
          </Trackpoint>
          <Trackpoint>
            <Time>2022-07-11T07:03:10.000Z</Time>
            <Position>
              <LatitudeDegrees>43.27806833200156688690185546875</LatitudeDegrees>
              <LongitudeDegrees>-2.4962626956403255462646484375</LongitudeDegrees>
            </Position>
            <AltitudeMeters>94.40000152587890625</AltitudeMeters>
            <DistanceMeters>NAN</DistanceMeters>
          </Trackpoint>
          <Trackpoint>
            <Time>2022-07-11T07:03:19.000Z</Time>
            <Position>
              <LatitudeDegrees>43.27781653963029384613037109375</LatitudeDegrees>
              <LongitudeDegrees>-2.49627669341862201690673828125</LongitudeDegrees>
            </Position>
            <AltitudeMeters>95</AltitudeMeters>
            <DistanceMeters>NAN</DistanceMeters>
          </Trackpoint>
          <Trackpoint>
            <Time>2022-07-11T07:03:24.000Z</Time>
            <Position>
              <LatitudeDegrees>43.27771964482963085174560546875</LatitudeDegrees>
              <LongitudeDegrees>-2.4962849915027618408203125</LongitudeDegrees>
            </Position>
            <AltitudeMeters>95.1999969482421875</AltitudeMeters>
            <DistanceMeters>NAN</DistanceMeters>
          </Trackpoint>
          <Trackpoint>
            <Time>2022-07-11T07:03:28.000Z</Time>
            <Position>
              <LatitudeDegrees>43.27758838422596454620361328125</LatitudeDegrees>
              <LongitudeDegrees>-2.4962876737117767333984375</LongitudeDegrees>
            </Position>
            <AltitudeMeters>95.40000152587890625</AltitudeMeters>
            <DistanceMeters>NAN</DistanceMeters>
          </Trackpoint>
          <Trackpoint>
            <Time>2022-07-11T07:03:31.000Z</Time>
            <Position>
              <LatitudeDegrees>43.27751076780259609222412109375</LatitudeDegrees>
              <LongitudeDegrees>-2.49630167149007320404052734375</LongitudeDegrees>
            </Position>
            <AltitudeMeters>95.40000152587890625</AltitudeMeters>
            <DistanceMeters>NAN</DistanceMeters>
          </Trackpoint>
          <Trackpoint>
            <Time>2022-07-11T07:03:36.000Z</Time>
            <Position>
              <LatitudeDegrees>43.27738570980727672576904296875</LatitudeDegrees>
              <LongitudeDegrees>-2.49630552716553211212158203125</LongitudeDegrees>
            </Position>
            <AltitudeMeters>95.8000030517578125</AltitudeMeters>
            <DistanceMeters>NAN</DistanceMeters>
          </Trackpoint>
          <Trackpoint>
            <Time>2022-07-11T07:03:44.000Z</Time>
            <Position>
              <LatitudeDegrees>43.277184963226318359375</LatitudeDegrees>
              <LongitudeDegrees>-2.49635414220392704010009765625</LongitudeDegrees>
            </Position>
            <AltitudeMeters>96</AltitudeMeters>
            <DistanceMeters>NAN</DistanceMeters>
          </Trackpoint>
          <Trackpoint>
            <Time>2022-07-11T07:03:52.000Z</Time>
            <Position>
              <LatitudeDegrees>43.27698455192148685455322265625</LatitudeDegrees>
              <LongitudeDegrees>-2.4963730014860630035400390625</LongitudeDegrees>
            </Position>
            <AltitudeMeters>96.1999969482421875</AltitudeMeters>
            <DistanceMeters>NAN</DistanceMeters>
          </Trackpoint>
          <Trackpoint>
            <Time>2022-07-11T07:03:58.000Z</Time>
            <Position>
              <LatitudeDegrees>43.2768402993679046630859375</LatitudeDegrees>
              <LongitudeDegrees>-2.496367134153842926025390625</LongitudeDegrees>
            </Position>
            <AltitudeMeters>96.59999847412109375</AltitudeMeters>
            <DistanceMeters>NAN</DistanceMeters>
          </Trackpoint>
          <Trackpoint>
            <Time>2022-07-11T07:04:08.000Z</Time>
            <Position>
              <LatitudeDegrees>43.2765987329185009002685546875</LatitudeDegrees>
              <LongitudeDegrees>-2.496402673423290252685546875</LongitudeDegrees>
            </Position>
            <AltitudeMeters>96.8000030517578125</AltitudeMeters>
            <DistanceMeters>NAN</DistanceMeters>
          </Trackpoint>
          <Trackpoint>
            <Time>2022-07-11T07:04:15.000Z</Time>
            <Position>
              <LatitudeDegrees>43.27641961164772510528564453125</LatitudeDegrees>
              <LongitudeDegrees>-2.4964293278753757476806640625</LongitudeDegrees>
            </Position>
            <AltitudeMeters>96.8000030517578125</AltitudeMeters>
            <DistanceMeters>NAN</DistanceMeters>
          </Trackpoint>
          <Trackpoint>
            <Time>2022-07-11T07:04:17.000Z</Time>
            <Position>
              <LatitudeDegrees>43.27636848203837871551513671875</LatitudeDegrees>
              <LongitudeDegrees>-2.49644081108272075653076171875</LongitudeDegrees>
            </Position>
            <AltitudeMeters>96.59999847412109375</AltitudeMeters>
            <DistanceMeters>NAN</DistanceMeters>
          </Trackpoint>
          <Trackpoint>
            <Time>2022-07-11T07:04:27.000Z</Time>
            <Position>
              <LatitudeDegrees>43.27607880346477031707763671875</LatitudeDegrees>
              <LongitudeDegrees>-2.496489845216274261474609375</LongitudeDegrees>
            </Position>
            <AltitudeMeters>96.8000030517578125</AltitudeMeters>
            <DistanceMeters>NAN</DistanceMeters>
          </Trackpoint>
          <Trackpoint>
            <Time>2022-07-11T07:04:37.000Z</Time>
            <Position>
              <LatitudeDegrees>43.27577303163707256317138671875</LatitudeDegrees>
              <LongitudeDegrees>-2.4965688027441501617431640625</LongitudeDegrees>
            </Position>
            <AltitudeMeters>96.40000152587890625</AltitudeMeters>
            <DistanceMeters>NAN</DistanceMeters>
          </Trackpoint>
          <Trackpoint>
            <Time>2022-07-11T07:04:38.000Z</Time>
            <Position>
              <LatitudeDegrees>43.27570899389684200286865234375</LatitudeDegrees>
              <LongitudeDegrees>-2.496588416397571563720703125</LongitudeDegrees>
            </Position>
            <AltitudeMeters>96.40000152587890625</AltitudeMeters>
            <DistanceMeters>NAN</DistanceMeters>
          </Trackpoint>
          <Trackpoint>
            <Time>2022-07-11T07:04:42.000Z</Time>
            <Position>
              <LatitudeDegrees>43.2755582034587860107421875</LatitudeDegrees>
              <LongitudeDegrees>-2.4966283142566680908203125</LongitudeDegrees>
            </Position>
            <AltitudeMeters>96.40000152587890625</AltitudeMeters>
            <DistanceMeters>NAN</DistanceMeters>
          </Trackpoint>
          <Trackpoint>
            <Time>2022-07-11T07:04:45.000Z</Time>
            <Position>
              <LatitudeDegrees>43.27543607912957668304443359375</LatitudeDegrees>
              <LongitudeDegrees>-2.49666519463062286376953125</LongitudeDegrees>
            </Position>
            <AltitudeMeters>96.1999969482421875</AltitudeMeters>
            <DistanceMeters>NAN</DistanceMeters>
          </Trackpoint>
          <Trackpoint>
            <Time>2022-07-11T07:04:53.000Z</Time>
            <Position>
              <LatitudeDegrees>43.27509242109954357147216796875</LatitudeDegrees>
              <LongitudeDegrees>-2.4967622570693492889404296875</LongitudeDegrees>
            </Position>
            <AltitudeMeters>95.8000030517578125</AltitudeMeters>
            <DistanceMeters>NAN</DistanceMeters>
          </Trackpoint>
          <Trackpoint>
            <Time>2022-07-11T07:04:59.000Z</Time>
            <Position>
              <LatitudeDegrees>43.27480852603912353515625</LatitudeDegrees>
              <LongitudeDegrees>-2.4968433938920497894287109375</LongitudeDegrees>
            </Position>
            <AltitudeMeters>95.1999969482421875</AltitudeMeters>
            <DistanceMeters>NAN</DistanceMeters>
          </Trackpoint>
          <Trackpoint>
            <Time>2022-07-11T07:05:00.000Z</Time>
            <Position>
              <LatitudeDegrees>43.2747627608478069305419921875</LatitudeDegrees>
              <LongitudeDegrees>-2.49685605056583881378173828125</LongitudeDegrees>
            </Position>
            <AltitudeMeters>95.1999969482421875</AltitudeMeters>
            <DistanceMeters>NAN</DistanceMeters>
          </Trackpoint>
          <Trackpoint>
            <Time>2022-07-11T07:05:08.000Z</Time>
            <Position>
              <LatitudeDegrees>43.27444818802177906036376953125</LatitudeDegrees>
              <LongitudeDegrees>-2.49693383462727069854736328125</LongitudeDegrees>
            </Position>
            <AltitudeMeters>95</AltitudeMeters>
            <DistanceMeters>NAN</DistanceMeters>
          </Trackpoint>
          <Trackpoint>
            <Time>2022-07-11T07:05:09.000Z</Time>
            <Position>
              <LatitudeDegrees>43.2743726670742034912109375</LatitudeDegrees>
              <LongitudeDegrees>-2.49694657512009143829345703125</LongitudeDegrees>
            </Position>
            <AltitudeMeters>95</AltitudeMeters>
            <DistanceMeters>NAN</DistanceMeters>
          </Trackpoint>
          <Trackpoint>
            <Time>2022-07-11T07:05:12.000Z</Time>
            <Position>
              <LatitudeDegrees>43.2742595113813877105712890625</LatitudeDegrees>
              <LongitudeDegrees>-2.49697498977184295654296875</LongitudeDegrees>
            </Position>
            <AltitudeMeters>94.8000030517578125</AltitudeMeters>
            <DistanceMeters>NAN</DistanceMeters>
          </Trackpoint>
          <Trackpoint>
            <Time>2022-07-11T07:05:14.000Z</Time>
            <Position>
              <LatitudeDegrees>43.27419471926987171173095703125</LatitudeDegrees>
              <LongitudeDegrees>-2.49699284322559833526611328125</LongitudeDegrees>
            </Position>
            <AltitudeMeters>94.8000030517578125</AltitudeMeters>
            <DistanceMeters>NAN</DistanceMeters>
          </Trackpoint>
          <Trackpoint>
            <Time>2022-07-11T07:05:21.000Z</Time>
            <Position>
              <LatitudeDegrees>43.2739872671663761138916015625</LatitudeDegrees>
              <LongitudeDegrees>-2.49706626869738101959228515625</LongitudeDegrees>
            </Position>
            <AltitudeMeters>94.8000030517578125</AltitudeMeters>
            <DistanceMeters>NAN</DistanceMeters>
          </Trackpoint>
          <Trackpoint>
            <Time>2022-07-11T07:05:27.000Z</Time>
            <Position>
              <LatitudeDegrees>43.27377478592097759246826171875</LatitudeDegrees>
              <LongitudeDegrees>-2.49714422039687633514404296875</LongitudeDegrees>
            </Position>
            <AltitudeMeters>94.8000030517578125</AltitudeMeters>
            <DistanceMeters>NAN</DistanceMeters>
          </Trackpoint>
          <Trackpoint>
            <Time>2022-07-11T07:05:35.000Z</Time>
            <Position>
              <LatitudeDegrees>43.2734903879463672637939453125</LatitudeDegrees>
              <LongitudeDegrees>-2.4972142092883586883544921875</LongitudeDegrees>
            </Position>
            <AltitudeMeters>95.1999969482421875</AltitudeMeters>
            <DistanceMeters>NAN</DistanceMeters>
          </Trackpoint>
          <Trackpoint>
            <Time>2022-07-11T07:05:46.000Z</Time>
            <Position>
              <LatitudeDegrees>43.2731366716325283050537109375</LatitudeDegrees>
              <LongitudeDegrees>-2.49739743769168853759765625</LongitudeDegrees>
            </Position>
            <AltitudeMeters>95.40000152587890625</AltitudeMeters>
            <DistanceMeters>NAN</DistanceMeters>
          </Trackpoint>
          <Trackpoint>
            <Time>2022-07-11T07:05:53.000Z</Time>
            <Position>
              <LatitudeDegrees>43.27295654453337192535400390625</LatitudeDegrees>
              <LongitudeDegrees>-2.4974934943020343780517578125</LongitudeDegrees>
            </Position>
            <AltitudeMeters>95.59999847412109375</AltitudeMeters>
            <DistanceMeters>NAN</DistanceMeters>
          </Trackpoint>
          <Trackpoint>
            <Time>2022-07-11T07:05:58.000Z</Time>
            <Position>
              <LatitudeDegrees>43.27281170524656772613525390625</LatitudeDegrees>
              <LongitudeDegrees>-2.49741998501121997833251953125</LongitudeDegrees>
            </Position>
            <AltitudeMeters>95.8000030517578125</AltitudeMeters>
            <DistanceMeters>NAN</DistanceMeters>
          </Trackpoint>
          <Trackpoint>
            <Time>2022-07-11T07:06:04.000Z</Time>
            <Position>
              <LatitudeDegrees>43.27261741273105144500732421875</LatitudeDegrees>
              <LongitudeDegrees>-2.49726173467934131622314453125</LongitudeDegrees>
            </Position>
            <AltitudeMeters>95.8000030517578125</AltitudeMeters>
            <DistanceMeters>NAN</DistanceMeters>
          </Trackpoint>
          <Trackpoint>
            <Time>2022-07-11T07:06:10.000Z</Time>
            <Position>
              <LatitudeDegrees>43.27239898033440113067626953125</LatitudeDegrees>
              <LongitudeDegrees>-2.49715444631874561309814453125</LongitudeDegrees>
            </Position>
            <AltitudeMeters>95.40000152587890625</AltitudeMeters>
            <DistanceMeters>NAN</DistanceMeters>
          </Trackpoint>
          <Trackpoint>
            <Time>2022-07-11T07:06:13.000Z</Time>
            <Position>
              <LatitudeDegrees>43.2723346911370754241943359375</LatitudeDegrees>
              <LongitudeDegrees>-2.49716542661190032958984375</LongitudeDegrees>
            </Position>
            <AltitudeMeters>95.1999969482421875</AltitudeMeters>
            <DistanceMeters>NAN</DistanceMeters>
          </Trackpoint>
          <Trackpoint>
            <Time>2022-07-11T07:06:14.000Z</Time>
            <Position>
              <LatitudeDegrees>43.27232555486261844635009765625</LatitudeDegrees>
              <LongitudeDegrees>-2.49717724509537220001220703125</LongitudeDegrees>
            </Position>
            <AltitudeMeters>95.1999969482421875</AltitudeMeters>
            <DistanceMeters>NAN</DistanceMeters>
          </Trackpoint>
          <Trackpoint>
            <Time>2022-07-11T07:06:17.000Z</Time>
            <Position>
              <LatitudeDegrees>43.27232144773006439208984375</LatitudeDegrees>
              <LongitudeDegrees>-2.49718328006565570831298828125</LongitudeDegrees>
            </Position>
            <AltitudeMeters>95</AltitudeMeters>
            <DistanceMeters>NAN</DistanceMeters>
          </Trackpoint>
          <Trackpoint>
            <Time>2022-07-11T07:11:09.000Z</Time>
            <Position>
              <LatitudeDegrees>43.2723209448158740997314453125</LatitudeDegrees>
              <LongitudeDegrees>-2.49727983959019184112548828125</LongitudeDegrees>
            </Position>
            <AltitudeMeters>90.59999847412109375</AltitudeMeters>
            <DistanceMeters>NAN</DistanceMeters>
          </Trackpoint>
          <Trackpoint>
            <Time>2022-07-11T07:11:14.000Z</Time>
            <Position>
              <LatitudeDegrees>43.27218976803123950958251953125</LatitudeDegrees>
              <LongitudeDegrees>-2.4972973577678203582763671875</LongitudeDegrees>
            </Position>
            <AltitudeMeters>90.59999847412109375</AltitudeMeters>
            <DistanceMeters>NAN</DistanceMeters>
          </Trackpoint>
          <Trackpoint>
            <Time>2022-07-11T07:11:21.000Z</Time>
            <Position>
              <LatitudeDegrees>43.2720456831157207489013671875</LatitudeDegrees>
              <LongitudeDegrees>-2.49732635915279388427734375</LongitudeDegrees>
            </Position>
            <AltitudeMeters>90.59999847412109375</AltitudeMeters>
            <DistanceMeters>NAN</DistanceMeters>
          </Trackpoint>
          <Trackpoint>
            <Time>2022-07-11T07:11:27.000Z</Time>
            <Position>
              <LatitudeDegrees>43.27197083272039890289306640625</LatitudeDegrees>
              <LongitudeDegrees>-2.49734605662524700164794921875</LongitudeDegrees>
            </Position>
            <AltitudeMeters>90.59999847412109375</AltitudeMeters>
            <DistanceMeters>NAN</DistanceMeters>
          </Trackpoint>
          <Trackpoint>
            <Time>2022-07-11T07:11:28.000Z</Time>
            <Position>
              <LatitudeDegrees>43.27197083272039890289306640625</LatitudeDegrees>
              <LongitudeDegrees>-2.49734605662524700164794921875</LongitudeDegrees>
            </Position>
            <AltitudeMeters>90.59999847412109375</AltitudeMeters>
            <DistanceMeters>NAN</DistanceMeters>
          </Trackpoint>
          <Trackpoint>
            <Time>2022-07-11T07:11:29.000Z</Time>
            <Position>
              <LatitudeDegrees>43.27197083272039890289306640625</LatitudeDegrees>
              <LongitudeDegrees>-2.49734605662524700164794921875</LongitudeDegrees>
            </Position>
            <AltitudeMeters>90.59999847412109375</AltitudeMeters>
            <DistanceMeters>NAN</DistanceMeters>
          </Trackpoint>
          <Trackpoint>
            <Time>2022-07-11T07:13:19.000Z</Time>
            <Position>
              <LatitudeDegrees>43.271925151348114013671875</LatitudeDegrees>
              <LongitudeDegrees>-2.49735427089035511016845703125</LongitudeDegrees>
            </Position>
            <AltitudeMeters>90.59999847412109375</AltitudeMeters>
            <DistanceMeters>NAN</DistanceMeters>
          </Trackpoint>
          <Trackpoint>
            <Time>2022-07-11T07:13:21.000Z</Time>
            <Position>
              <LatitudeDegrees>43.2718790508806705474853515625</LatitudeDegrees>
              <LongitudeDegrees>-2.4973473139107227325439453125</LongitudeDegrees>
            </Position>
            <AltitudeMeters>91</AltitudeMeters>
            <DistanceMeters>NAN</DistanceMeters>
          </Trackpoint>
          <Trackpoint>
            <Time>2022-07-11T07:13:24.000Z</Time>
            <Position>
              <LatitudeDegrees>43.27181006781756877899169921875</LatitudeDegrees>
              <LongitudeDegrees>-2.4973176419734954833984375</LongitudeDegrees>
            </Position>
            <AltitudeMeters>91.59999847412109375</AltitudeMeters>
            <DistanceMeters>NAN</DistanceMeters>
          </Trackpoint>
          <Trackpoint>
            <Time>2022-07-11T07:13:27.000Z</Time>
            <Position>
              <LatitudeDegrees>43.27172373421490192413330078125</LatitudeDegrees>
              <LongitudeDegrees>-2.49727698974311351776123046875</LongitudeDegrees>
            </Position>
            <AltitudeMeters>91.8000030517578125</AltitudeMeters>
            <DistanceMeters>NAN</DistanceMeters>
          </Trackpoint>
          <Trackpoint>
            <Time>2022-07-11T07:13:33.000Z</Time>
            <Position>
              <LatitudeDegrees>43.2715652324259281158447265625</LatitudeDegrees>
              <LongitudeDegrees>-2.49730465002357959747314453125</LongitudeDegrees>
            </Position>
            <AltitudeMeters>91.8000030517578125</AltitudeMeters>
            <DistanceMeters>NAN</DistanceMeters>
          </Trackpoint>
          <Trackpoint>
            <Time>2022-07-11T07:13:40.000Z</Time>
            <Position>
              <LatitudeDegrees>43.2713281922042369842529296875</LatitudeDegrees>
              <LongitudeDegrees>-2.497334741055965423583984375</LongitudeDegrees>
            </Position>
            <AltitudeMeters>91.8000030517578125</AltitudeMeters>
            <DistanceMeters>NAN</DistanceMeters>
          </Trackpoint>
          <Trackpoint>
            <Time>2022-07-11T07:13:49.000Z</Time>
            <Position>
              <LatitudeDegrees>43.2710482366383075714111328125</LatitudeDegrees>
              <LongitudeDegrees>-2.4973640777170658111572265625</LongitudeDegrees>
            </Position>
            <AltitudeMeters>92.1999969482421875</AltitudeMeters>
            <DistanceMeters>NAN</DistanceMeters>
          </Trackpoint>
          <Trackpoint>
            <Time>2022-07-11T07:13:55.000Z</Time>
            <Position>
              <LatitudeDegrees>43.27086903154850006103515625</LatitudeDegrees>
              <LongitudeDegrees>-2.4973808415234088897705078125</LongitudeDegrees>
            </Position>
            <AltitudeMeters>92.59999847412109375</AltitudeMeters>
            <DistanceMeters>NAN</DistanceMeters>
          </Trackpoint>
          <Trackpoint>
            <Time>2022-07-11T07:13:56.000Z</Time>
            <Position>
              <LatitudeDegrees>43.270841874182224273681640625</LatitudeDegrees>
              <LongitudeDegrees>-2.4973801709711551666259765625</LongitudeDegrees>
            </Position>
            <AltitudeMeters>92.59999847412109375</AltitudeMeters>
            <DistanceMeters>NAN</DistanceMeters>
          </Trackpoint>
          <Trackpoint>
            <Time>2022-07-11T07:13:59.000Z</Time>
            <Position>
              <LatitudeDegrees>43.270759396255016326904296875</LatitudeDegrees>
              <LongitudeDegrees>-2.4973459728062152862548828125</LongitudeDegrees>
            </Position>
            <AltitudeMeters>92.8000030517578125</AltitudeMeters>
            <DistanceMeters>NAN</DistanceMeters>
          </Trackpoint>
          <Trackpoint>
            <Time>2022-07-11T07:14:01.000Z</Time>
            <Position>
              <LatitudeDegrees>43.27070734463632106781005859375</LatitudeDegrees>
              <LongitudeDegrees>-2.4973077513277530670166015625</LongitudeDegrees>
            </Position>
            <AltitudeMeters>93</AltitudeMeters>
            <DistanceMeters>NAN</DistanceMeters>
          </Trackpoint>
          <Trackpoint>
            <Time>2022-07-11T07:14:02.000Z</Time>
            <Position>
              <LatitudeDegrees>43.27068454585969448089599609375</LatitudeDegrees>
              <LongitudeDegrees>-2.497284449636936187744140625</LongitudeDegrees>
            </Position>
            <AltitudeMeters>93</AltitudeMeters>
            <DistanceMeters>NAN</DistanceMeters>
          </Trackpoint>
          <Trackpoint>
            <Time>2022-07-11T07:14:08.000Z</Time>
            <Position>
              <LatitudeDegrees>43.27053015120327472686767578125</LatitudeDegrees>
              <LongitudeDegrees>-2.49715737998485565185546875</LongitudeDegrees>
            </Position>
            <AltitudeMeters>93.1999969482421875</AltitudeMeters>
            <DistanceMeters>NAN</DistanceMeters>
          </Trackpoint>
          <Trackpoint>
            <Time>2022-07-11T07:14:09.000Z</Time>
            <Position>
              <LatitudeDegrees>43.27050366438925266265869140625</LatitudeDegrees>
              <LongitudeDegrees>-2.4971540272235870361328125</LongitudeDegrees>
            </Position>
            <AltitudeMeters>93.1999969482421875</AltitudeMeters>
            <DistanceMeters>NAN</DistanceMeters>
          </Trackpoint>
          <Trackpoint>
            <Time>2022-07-11T07:14:12.000Z</Time>
            <Position>
              <LatitudeDegrees>43.27044063247740268707275390625</LatitudeDegrees>
              <LongitudeDegrees>-2.49714799225330352783203125</LongitudeDegrees>
            </Position>
            <AltitudeMeters>93.1999969482421875</AltitudeMeters>
            <DistanceMeters>NAN</DistanceMeters>
          </Trackpoint>
          <Trackpoint>
            <Time>2022-07-11T07:14:15.000Z</Time>
            <Position>
              <LatitudeDegrees>43.2703237049281597137451171875</LatitudeDegrees>
              <LongitudeDegrees>-2.4970995448529720306396484375</LongitudeDegrees>
            </Position>
            <AltitudeMeters>93.1999969482421875</AltitudeMeters>
            <DistanceMeters>NAN</DistanceMeters>
          </Trackpoint>
          <Trackpoint>
            <Time>2022-07-11T07:14:20.000Z</Time>
            <Position>
              <LatitudeDegrees>43.27018431387841701507568359375</LatitudeDegrees>
              <LongitudeDegrees>-2.49710549600422382354736328125</LongitudeDegrees>
            </Position>
            <AltitudeMeters>93.40000152587890625</AltitudeMeters>
            <DistanceMeters>NAN</DistanceMeters>
          </Trackpoint>
          <Trackpoint>
            <Time>2022-07-11T07:14:26.000Z</Time>
            <Position>
              <LatitudeDegrees>43.26998868025839328765869140625</LatitudeDegrees>
              <LongitudeDegrees>-2.4971565417945384979248046875</LongitudeDegrees>
            </Position>
            <AltitudeMeters>93.40000152587890625</AltitudeMeters>
            <DistanceMeters>NAN</DistanceMeters>
          </Trackpoint>
          <Trackpoint>
            <Time>2022-07-11T07:14:29.000Z</Time>
            <Position>
              <LatitudeDegrees>43.26990687288343906402587890625</LatitudeDegrees>
              <LongitudeDegrees>-2.49717749655246734619140625</LongitudeDegrees>
            </Position>
            <AltitudeMeters>93.59999847412109375</AltitudeMeters>
            <DistanceMeters>NAN</DistanceMeters>
          </Trackpoint>
          <Trackpoint>
            <Time>2022-07-11T07:14:31.000Z</Time>
            <Position>
              <LatitudeDegrees>43.269890360534191131591796875</LatitudeDegrees>
              <LongitudeDegrees>-2.49717975966632366180419921875</LongitudeDegrees>
            </Position>
            <AltitudeMeters>93.59999847412109375</AltitudeMeters>
            <DistanceMeters>NAN</DistanceMeters>
          </Trackpoint>
          <Trackpoint>
            <Time>2022-07-11T07:14:35.000Z</Time>
            <Position>
              <LatitudeDegrees>43.2698010094463825225830078125</LatitudeDegrees>
              <LongitudeDegrees>-2.497189901769161224365234375</LongitudeDegrees>
            </Position>
            <AltitudeMeters>93.8000030517578125</AltitudeMeters>
            <DistanceMeters>NAN</DistanceMeters>
          </Trackpoint>
          <Trackpoint>
            <Time>2022-07-11T07:14:37.000Z</Time>
            <Position>
              <LatitudeDegrees>43.26975901611149311065673828125</LatitudeDegrees>
              <LongitudeDegrees>-2.49718965031206607818603515625</LongitudeDegrees>
            </Position>
            <AltitudeMeters>93.8000030517578125</AltitudeMeters>
            <DistanceMeters>NAN</DistanceMeters>
          </Trackpoint>
          <Trackpoint>
            <Time>2022-07-11T07:14:39.000Z</Time>
            <Position>
              <LatitudeDegrees>43.26970721594989299774169921875</LatitudeDegrees>
              <LongitudeDegrees>-2.49718277715146541595458984375</LongitudeDegrees>
            </Position>
            <AltitudeMeters>94</AltitudeMeters>
            <DistanceMeters>NAN</DistanceMeters>
          </Trackpoint>
          <Trackpoint>
            <Time>2022-07-11T07:14:42.000Z</Time>
            <Position>
              <LatitudeDegrees>43.26957620680332183837890625</LatitudeDegrees>
              <LongitudeDegrees>-2.4972282908856868743896484375</LongitudeDegrees>
            </Position>
            <AltitudeMeters>94</AltitudeMeters>
            <DistanceMeters>NAN</DistanceMeters>
          </Trackpoint>
          <Trackpoint>
            <Time>2022-07-11T07:14:43.000Z</Time>
            <Position>
              <LatitudeDegrees>43.26952549628913402557373046875</LatitudeDegrees>
              <LongitudeDegrees>-2.4972631596028804779052734375</LongitudeDegrees>
            </Position>
            <AltitudeMeters>94</AltitudeMeters>
            <DistanceMeters>NAN</DistanceMeters>
          </Trackpoint>
          <Trackpoint>
            <Time>2022-07-11T07:14:44.000Z</Time>
            <Position>
              <LatitudeDegrees>43.2694804854691028594970703125</LatitudeDegrees>
              <LongitudeDegrees>-2.49727598391473293304443359375</LongitudeDegrees>
            </Position>
            <AltitudeMeters>94</AltitudeMeters>
            <DistanceMeters>NAN</DistanceMeters>
          </Trackpoint>
          <Trackpoint>
            <Time>2022-07-11T07:14:49.000Z</Time>
            <Position>
              <LatitudeDegrees>43.269462883472442626953125</LatitudeDegrees>
              <LongitudeDegrees>-2.497287131845951080322265625</LongitudeDegrees>
            </Position>
            <AltitudeMeters>94</AltitudeMeters>
            <DistanceMeters>NAN</DistanceMeters>
          </Trackpoint>
          <Trackpoint>
            <Time>2022-07-11T07:15:16.000Z</Time>
            <Position>
              <LatitudeDegrees>43.2693470455706119537353515625</LatitudeDegrees>
              <LongitudeDegrees>-2.49730414710938930511474609375</LongitudeDegrees>
            </Position>
            <AltitudeMeters>94.59999847412109375</AltitudeMeters>
            <DistanceMeters>NAN</DistanceMeters>
          </Trackpoint>
          <Trackpoint>
            <Time>2022-07-11T07:15:18.000Z</Time>
            <Position>
              <LatitudeDegrees>43.26928895898163318634033203125</LatitudeDegrees>
              <LongitudeDegrees>-2.4972966872155666351318359375</LongitudeDegrees>
            </Position>
            <AltitudeMeters>94.59999847412109375</AltitudeMeters>
            <DistanceMeters>NAN</DistanceMeters>
          </Trackpoint>
          <Trackpoint>
            <Time>2022-07-11T07:15:23.000Z</Time>
            <Position>
              <LatitudeDegrees>43.2691475562751293182373046875</LatitudeDegrees>
              <LongitudeDegrees>-2.4972608126699924468994140625</LongitudeDegrees>
            </Position>
            <AltitudeMeters>95</AltitudeMeters>
            <DistanceMeters>NAN</DistanceMeters>
          </Trackpoint>
          <Trackpoint>
            <Time>2022-07-11T07:15:24.000Z</Time>
            <Position>
              <LatitudeDegrees>43.26912919990718364715576171875</LatitudeDegrees>
              <LongitudeDegrees>-2.497248239815235137939453125</LongitudeDegrees>
            </Position>
            <AltitudeMeters>95</AltitudeMeters>
            <DistanceMeters>NAN</DistanceMeters>
          </Trackpoint>
          <Trackpoint>
            <Time>2022-07-11T07:15:26.000Z</Time>
            <Position>
              <LatitudeDegrees>43.2690892182290554046630859375</LatitudeDegrees>
              <LongitudeDegrees>-2.4972205795347690582275390625</LongitudeDegrees>
            </Position>
            <AltitudeMeters>95</AltitudeMeters>
            <DistanceMeters>NAN</DistanceMeters>
          </Trackpoint>
          <Trackpoint>
            <Time>2022-07-11T07:15:27.000Z</Time>
            <Position>
              <LatitudeDegrees>43.26905108056962490081787109375</LatitudeDegrees>
              <LongitudeDegrees>-2.49721613712608814239501953125</LongitudeDegrees>
            </Position>
            <AltitudeMeters>95.1999969482421875</AltitudeMeters>
            <DistanceMeters>NAN</DistanceMeters>
          </Trackpoint>
          <Trackpoint>
            <Time>2022-07-11T07:15:32.000Z</Time>
            <Position>
              <LatitudeDegrees>43.26884874142706394195556640625</LatitudeDegrees>
              <LongitudeDegrees>-2.49717808328568935394287109375</LongitudeDegrees>
            </Position>
            <AltitudeMeters>95.40000152587890625</AltitudeMeters>
            <DistanceMeters>NAN</DistanceMeters>
          </Trackpoint>
          <Trackpoint>
            <Time>2022-07-11T07:15:33.000Z</Time>
            <Position>
              <LatitudeDegrees>43.26882560737431049346923828125</LatitudeDegrees>
              <LongitudeDegrees>-2.49720054678618907928466796875</LongitudeDegrees>
            </Position>
            <AltitudeMeters>95.40000152587890625</AltitudeMeters>
            <DistanceMeters>NAN</DistanceMeters>
          </Trackpoint>
          <Trackpoint>
            <Time>2022-07-11T07:15:38.000Z</Time>
            <Position>
              <LatitudeDegrees>43.268708176910877227783203125</LatitudeDegrees>
              <LongitudeDegrees>-2.49731294810771942138671875</LongitudeDegrees>
            </Position>
            <AltitudeMeters>95.8000030517578125</AltitudeMeters>
            <DistanceMeters>NAN</DistanceMeters>
          </Trackpoint>
          <Trackpoint>
            <Time>2022-07-11T07:15:41.000Z</Time>
            <Position>
              <LatitudeDegrees>43.268678672611713409423828125</LatitudeDegrees>
              <LongitudeDegrees>-2.49722301028668880462646484375</LongitudeDegrees>
            </Position>
            <AltitudeMeters>96</AltitudeMeters>
            <DistanceMeters>NAN</DistanceMeters>
          </Trackpoint>
          <Trackpoint>
            <Time>2022-07-11T07:15:43.000Z</Time>
            <Position>
              <LatitudeDegrees>43.26864682137966156005859375</LatitudeDegrees>
              <LongitudeDegrees>-2.49719652347266674041748046875</LongitudeDegrees>
            </Position>
            <AltitudeMeters>96.1999969482421875</AltitudeMeters>
            <DistanceMeters>NAN</DistanceMeters>
          </Trackpoint>
          <Trackpoint>
            <Time>2022-07-11T07:15:45.000Z</Time>
            <Position>
              <LatitudeDegrees>43.26860818080604076385498046875</LatitudeDegrees>
              <LongitudeDegrees>-2.49718822538852691650390625</LongitudeDegrees>
            </Position>
            <AltitudeMeters>96.1999969482421875</AltitudeMeters>
            <DistanceMeters>NAN</DistanceMeters>
          </Trackpoint>
          <Trackpoint>
            <Time>2022-07-11T07:15:50.000Z</Time>
            <Position>
              <LatitudeDegrees>43.2685091905295848846435546875</LatitudeDegrees>
              <LongitudeDegrees>-2.49713550321757793426513671875</LongitudeDegrees>
            </Position>
            <AltitudeMeters>96.8000030517578125</AltitudeMeters>
            <DistanceMeters>NAN</DistanceMeters>
          </Trackpoint>
          <Trackpoint>
            <Time>2022-07-11T07:15:51.000Z</Time>
            <Position>
              <LatitudeDegrees>43.268485553562641143798828125</LatitudeDegrees>
              <LongitudeDegrees>-2.497131563723087310791015625</LongitudeDegrees>
            </Position>
            <AltitudeMeters>96.8000030517578125</AltitudeMeters>
            <DistanceMeters>NAN</DistanceMeters>
          </Trackpoint>
          <Trackpoint>
            <Time>2022-07-11T07:15:58.000Z</Time>
            <Position>
              <LatitudeDegrees>43.2683573104441165924072265625</LatitudeDegrees>
              <LongitudeDegrees>-2.49706073664128780364990234375</LongitudeDegrees>
            </Position>
            <AltitudeMeters>97.40000152587890625</AltitudeMeters>
            <DistanceMeters>NAN</DistanceMeters>
          </Trackpoint>
          <Trackpoint>
            <Time>2022-07-11T07:16:03.000Z</Time>
            <Position>
              <LatitudeDegrees>43.26830157078802585601806640625</LatitudeDegrees>
              <LongitudeDegrees>-2.49700642190873622894287109375</LongitudeDegrees>
            </Position>
            <AltitudeMeters>97.59999847412109375</AltitudeMeters>
            <DistanceMeters>NAN</DistanceMeters>
          </Trackpoint>
          <Trackpoint>
            <Time>2022-07-11T07:16:05.000Z</Time>
            <Position>
              <LatitudeDegrees>43.268272988498210906982421875</LatitudeDegrees>
              <LongitudeDegrees>-2.49698898755013942718505859375</LongitudeDegrees>
            </Position>
            <AltitudeMeters>97.8000030517578125</AltitudeMeters>
            <DistanceMeters>NAN</DistanceMeters>
          </Trackpoint>
          <Trackpoint>
            <Time>2022-07-11T07:16:07.000Z</Time>
            <Position>
              <LatitudeDegrees>43.2682573981583118438720703125</LatitudeDegrees>
              <LongitudeDegrees>-2.49698194675147533416748046875</LongitudeDegrees>
            </Position>
            <AltitudeMeters>98</AltitudeMeters>
            <DistanceMeters>NAN</DistanceMeters>
          </Trackpoint>
          <Trackpoint>
            <Time>2022-07-11T07:16:10.000Z</Time>
            <Position>
              <LatitudeDegrees>43.268173076212406158447265625</LatitudeDegrees>
              <LongitudeDegrees>-2.49694548547267913818359375</LongitudeDegrees>
            </Position>
            <AltitudeMeters>98</AltitudeMeters>
            <DistanceMeters>NAN</DistanceMeters>
          </Trackpoint>
          <Trackpoint>
            <Time>2022-07-11T07:16:12.000Z</Time>
            <Position>
              <LatitudeDegrees>43.26814633794128894805908203125</LatitudeDegrees>
              <LongitudeDegrees>-2.49691254459321498870849609375</LongitudeDegrees>
            </Position>
            <AltitudeMeters>98.1999969482421875</AltitudeMeters>
            <DistanceMeters>NAN</DistanceMeters>
          </Trackpoint>
          <Trackpoint>
            <Time>2022-07-11T07:16:15.000Z</Time>
            <Position>
              <LatitudeDegrees>43.26810727827250957489013671875</LatitudeDegrees>
              <LongitudeDegrees>-2.49686501920223236083984375</LongitudeDegrees>
            </Position>
            <AltitudeMeters>98.40000152587890625</AltitudeMeters>
            <DistanceMeters>NAN</DistanceMeters>
          </Trackpoint>
          <Trackpoint>
            <Time>2022-07-11T07:16:18.000Z</Time>
            <Position>
              <LatitudeDegrees>43.2680860720574855804443359375</LatitudeDegrees>
              <LongitudeDegrees>-2.496833838522434234619140625</LongitudeDegrees>
            </Position>
            <AltitudeMeters>98.40000152587890625</AltitudeMeters>
            <DistanceMeters>NAN</DistanceMeters>
          </Trackpoint>
          <Trackpoint>
            <Time>2022-07-11T07:16:21.000Z</Time>
            <Position>
              <LatitudeDegrees>43.2680548913776874542236328125</LatitudeDegrees>
              <LongitudeDegrees>-2.49680927954614162445068359375</LongitudeDegrees>
            </Position>
            <AltitudeMeters>98.59999847412109375</AltitudeMeters>
            <DistanceMeters>NAN</DistanceMeters>
          </Trackpoint>
          <Trackpoint>
            <Time>2022-07-11T07:16:23.000Z</Time>
            <Position>
              <LatitudeDegrees>43.26800845563411712646484375</LatitudeDegrees>
              <LongitudeDegrees>-2.4967920966446399688720703125</LongitudeDegrees>
            </Position>
            <AltitudeMeters>98.59999847412109375</AltitudeMeters>
            <DistanceMeters>NAN</DistanceMeters>
          </Trackpoint>
          <Trackpoint>
            <Time>2022-07-11T07:16:26.000Z</Time>
            <Position>
              <LatitudeDegrees>43.267947770655155181884765625</LatitudeDegrees>
              <LongitudeDegrees>-2.496782876551151275634765625</LongitudeDegrees>
            </Position>
            <AltitudeMeters>98.59999847412109375</AltitudeMeters>
            <DistanceMeters>NAN</DistanceMeters>
          </Trackpoint>
          <Trackpoint>
            <Time>2022-07-11T07:16:29.000Z</Time>
            <Position>
              <LatitudeDegrees>43.26788649894297122955322265625</LatitudeDegrees>
              <LongitudeDegrees>-2.4967874027788639068603515625</LongitudeDegrees>
            </Position>
            <AltitudeMeters>98.59999847412109375</AltitudeMeters>
            <DistanceMeters>NAN</DistanceMeters>
          </Trackpoint>
          <Trackpoint>
            <Time>2022-07-11T07:16:30.000Z</Time>
            <Position>
              <LatitudeDegrees>43.26786889694631099700927734375</LatitudeDegrees>
              <LongitudeDegrees>-2.496781535446643829345703125</LongitudeDegrees>
            </Position>
            <AltitudeMeters>98.59999847412109375</AltitudeMeters>
            <DistanceMeters>NAN</DistanceMeters>
          </Trackpoint>
          <Trackpoint>
            <Time>2022-07-11T07:16:36.000Z</Time>
            <Position>
              <LatitudeDegrees>43.267734535038471221923828125</LatitudeDegrees>
              <LongitudeDegrees>-2.496730573475360870361328125</LongitudeDegrees>
            </Position>
            <AltitudeMeters>98.40000152587890625</AltitudeMeters>
            <DistanceMeters>NAN</DistanceMeters>
          </Trackpoint>
          <Trackpoint>
            <Time>2022-07-11T07:16:38.000Z</Time>
            <Position>
              <LatitudeDegrees>43.26771249063313007354736328125</LatitudeDegrees>
              <LongitudeDegrees>-2.4967263825237751007080078125</LongitudeDegrees>
            </Position>
            <AltitudeMeters>98.1999969482421875</AltitudeMeters>
            <DistanceMeters>NAN</DistanceMeters>
          </Trackpoint>
          <Trackpoint>
            <Time>2022-07-11T07:16:42.000Z</Time>
            <Position>
              <LatitudeDegrees>43.26770268380641937255859375</LatitudeDegrees>
              <LongitudeDegrees>-2.4967060983180999755859375</LongitudeDegrees>
            </Position>
            <AltitudeMeters>98</AltitudeMeters>
            <DistanceMeters>NAN</DistanceMeters>
          </Trackpoint>
          <Trackpoint>
            <Time>2022-07-11T07:16:46.000Z</Time>
            <Position>
              <LatitudeDegrees>43.26770075596868991851806640625</LatitudeDegrees>
              <LongitudeDegrees>-2.49667726457118988037109375</LongitudeDegrees>
            </Position>
            <AltitudeMeters>97.8000030517578125</AltitudeMeters>
            <DistanceMeters>NAN</DistanceMeters>
          </Trackpoint>
          <Trackpoint>
            <Time>2022-07-11T07:18:09.000Z</Time>
            <Position>
              <LatitudeDegrees>43.26765717007219791412353515625</LatitudeDegrees>
              <LongitudeDegrees>-2.4967116303741931915283203125</LongitudeDegrees>
            </Position>
            <AltitudeMeters>97.40000152587890625</AltitudeMeters>
            <DistanceMeters>NAN</DistanceMeters>
          </Trackpoint>
          <Trackpoint>
            <Time>2022-07-11T07:18:10.000Z</Time>
            <Position>
              <LatitudeDegrees>43.26764543540775775909423828125</LatitudeDegrees>
              <LongitudeDegrees>-2.4967223592102527618408203125</LongitudeDegrees>
            </Position>
            <AltitudeMeters>97.40000152587890625</AltitudeMeters>
            <DistanceMeters>NAN</DistanceMeters>
          </Trackpoint>
          <Trackpoint>
            <Time>2022-07-11T07:18:13.000Z</Time>
            <Position>
              <LatitudeDegrees>43.26764107681810855865478515625</LatitudeDegrees>
              <LongitudeDegrees>-2.49672747217118740081787109375</LongitudeDegrees>
            </Position>
            <AltitudeMeters>97.40000152587890625</AltitudeMeters>
            <DistanceMeters>NAN</DistanceMeters>
          </Trackpoint>
          <Trackpoint>
            <Time>2022-07-11T07:18:38.000Z</Time>
            <Position>
              <LatitudeDegrees>43.26760754920542240142822265625</LatitudeDegrees>
              <LongitudeDegrees>-2.49668807722628116607666015625</LongitudeDegrees>
            </Position>
            <AltitudeMeters>97.59999847412109375</AltitudeMeters>
            <DistanceMeters>NAN</DistanceMeters>
          </Trackpoint>
          <Trackpoint>
            <Time>2022-07-11T07:18:39.000Z</Time>
            <Position>
              <LatitudeDegrees>43.26757553033530712127685546875</LatitudeDegrees>
              <LongitudeDegrees>-2.496666200459003448486328125</LongitudeDegrees>
            </Position>
            <AltitudeMeters>97.59999847412109375</AltitudeMeters>
            <DistanceMeters>NAN</DistanceMeters>
          </Trackpoint>
          <Trackpoint>
            <Time>2022-07-11T07:18:42.000Z</Time>
            <Position>
              <LatitudeDegrees>43.2674047909677028656005859375</LatitudeDegrees>
              <LongitudeDegrees>-2.496644742786884307861328125</LongitudeDegrees>
            </Position>
            <AltitudeMeters>97</AltitudeMeters>
            <DistanceMeters>NAN</DistanceMeters>
          </Trackpoint>
          <Trackpoint>
            <Time>2022-07-11T07:18:44.000Z</Time>
            <Position>
              <LatitudeDegrees>43.267323486506938934326171875</LatitudeDegrees>
              <LongitudeDegrees>-2.496678270399570465087890625</LongitudeDegrees>
            </Position>
            <AltitudeMeters>96.8000030517578125</AltitudeMeters>
            <DistanceMeters>NAN</DistanceMeters>
          </Trackpoint>
          <Trackpoint>
            <Time>2022-07-11T07:18:47.000Z</Time>
            <Position>
              <LatitudeDegrees>43.267237655818462371826171875</LatitudeDegrees>
              <LongitudeDegrees>-2.49672110192477703094482421875</LongitudeDegrees>
            </Position>
            <AltitudeMeters>96.8000030517578125</AltitudeMeters>
            <DistanceMeters>NAN</DistanceMeters>
          </Trackpoint>
          <Trackpoint>
            <Time>2022-07-11T07:18:49.000Z</Time>
            <Position>
              <LatitudeDegrees>43.2671667449176311492919921875</LatitudeDegrees>
              <LongitudeDegrees>-2.4967404641211032867431640625</LongitudeDegrees>
            </Position>
            <AltitudeMeters>96.59999847412109375</AltitudeMeters>
            <DistanceMeters>NAN</DistanceMeters>
          </Trackpoint>
          <Trackpoint>
            <Time>2022-07-11T07:18:52.000Z</Time>
            <Position>
              <LatitudeDegrees>43.2670564390718936920166015625</LatitudeDegrees>
              <LongitudeDegrees>-2.4967709742486476898193359375</LongitudeDegrees>
            </Position>
            <AltitudeMeters>96.59999847412109375</AltitudeMeters>
            <DistanceMeters>NAN</DistanceMeters>
          </Trackpoint>
          <Trackpoint>
            <Time>2022-07-11T07:18:53.000Z</Time>
            <Position>
              <LatitudeDegrees>43.26702618040144443511962890625</LatitudeDegrees>
              <LongitudeDegrees>-2.49677248299121856689453125</LongitudeDegrees>
            </Position>
            <AltitudeMeters>96.59999847412109375</AltitudeMeters>
            <DistanceMeters>NAN</DistanceMeters>
          </Trackpoint>
          <Trackpoint>
            <Time>2022-07-11T07:18:56.000Z</Time>
            <Position>
              <LatitudeDegrees>43.26694102026522159576416015625</LatitudeDegrees>
              <LongitudeDegrees>-2.496790252625942230224609375</LongitudeDegrees>
            </Position>
            <AltitudeMeters>96.59999847412109375</AltitudeMeters>
            <DistanceMeters>NAN</DistanceMeters>
          </Trackpoint>
          <Trackpoint>
            <Time>2022-07-11T07:18:57.000Z</Time>
            <Position>
              <LatitudeDegrees>43.2669059000909328460693359375</LatitudeDegrees>
              <LongitudeDegrees>-2.49679704196751117706298828125</LongitudeDegrees>
            </Position>
            <AltitudeMeters>96.59999847412109375</AltitudeMeters>
            <DistanceMeters>NAN</DistanceMeters>
          </Trackpoint>
          <Trackpoint>
            <Time>2022-07-11T07:18:59.000Z</Time>
            <Position>
              <LatitudeDegrees>43.266841359436511993408203125</LatitudeDegrees>
              <LongitudeDegrees>-2.49682067893445491790771484375</LongitudeDegrees>
            </Position>
            <AltitudeMeters>96.59999847412109375</AltitudeMeters>
            <DistanceMeters>NAN</DistanceMeters>
          </Trackpoint>
          <Trackpoint>
            <Time>2022-07-11T07:19:03.000Z</Time>
            <Position>
              <LatitudeDegrees>43.2667292095720767974853515625</LatitudeDegrees>
              <LongitudeDegrees>-2.4969000555574893951416015625</LongitudeDegrees>
            </Position>
            <AltitudeMeters>96.59999847412109375</AltitudeMeters>
            <DistanceMeters>NAN</DistanceMeters>
          </Trackpoint>
          <Trackpoint>
            <Time>2022-07-11T07:19:05.000Z</Time>
            <Position>
              <LatitudeDegrees>43.26669157482683658599853515625</LatitudeDegrees>
              <LongitudeDegrees>-2.49695328064262866973876953125</LongitudeDegrees>
            </Position>
            <AltitudeMeters>96.59999847412109375</AltitudeMeters>
            <DistanceMeters>NAN</DistanceMeters>
          </Trackpoint>
          <Trackpoint>
            <Time>2022-07-11T07:19:07.000Z</Time>
            <Position>
              <LatitudeDegrees>43.2666038163006305694580078125</LatitudeDegrees>
              <LongitudeDegrees>-2.49696702696382999420166015625</LongitudeDegrees>
            </Position>
            <AltitudeMeters>96.59999847412109375</AltitudeMeters>
            <DistanceMeters>NAN</DistanceMeters>
          </Trackpoint>
          <Trackpoint>
            <Time>2022-07-11T07:19:11.000Z</Time>
            <Position>
              <LatitudeDegrees>43.26649694703519344329833984375</LatitudeDegrees>
              <LongitudeDegrees>-2.496942467987537384033203125</LongitudeDegrees>
            </Position>
            <AltitudeMeters>96.8000030517578125</AltitudeMeters>
            <DistanceMeters>NAN</DistanceMeters>
          </Trackpoint>
          <Trackpoint>
            <Time>2022-07-11T07:19:17.000Z</Time>
            <Position>
              <LatitudeDegrees>43.26634523458778858184814453125</LatitudeDegrees>
              <LongitudeDegrees>-2.49689226038753986358642578125</LongitudeDegrees>
            </Position>
            <AltitudeMeters>97</AltitudeMeters>
            <DistanceMeters>NAN</DistanceMeters>
          </Trackpoint>
          <Trackpoint>
            <Time>2022-07-11T07:19:19.000Z</Time>
            <Position>
              <LatitudeDegrees>43.2662759162485599517822265625</LatitudeDegrees>
              <LongitudeDegrees>-2.4969013966619968414306640625</LongitudeDegrees>
            </Position>
            <AltitudeMeters>97</AltitudeMeters>
            <DistanceMeters>NAN</DistanceMeters>
          </Trackpoint>
          <Trackpoint>
            <Time>2022-07-11T07:19:25.000Z</Time>
            <Position>
              <LatitudeDegrees>43.26616468839347362518310546875</LatitudeDegrees>
              <LongitudeDegrees>-2.49684892594814300537109375</LongitudeDegrees>
            </Position>
            <AltitudeMeters>97.1999969482421875</AltitudeMeters>
            <DistanceMeters>NAN</DistanceMeters>
          </Trackpoint>
          <Trackpoint>
            <Time>2022-07-11T07:19:32.000Z</Time>
            <Position>
              <LatitudeDegrees>43.2660162448883056640625</LatitudeDegrees>
              <LongitudeDegrees>-2.496761418879032135009765625</LongitudeDegrees>
            </Position>
            <AltitudeMeters>97.40000152587890625</AltitudeMeters>
            <DistanceMeters>NAN</DistanceMeters>
          </Trackpoint>
          <Trackpoint>
            <Time>2022-07-11T07:19:39.000Z</Time>
            <Position>
              <LatitudeDegrees>43.2659089565277099609375</LatitudeDegrees>
              <LongitudeDegrees>-2.49667500145733356475830078125</LongitudeDegrees>
            </Position>
            <AltitudeMeters>97.59999847412109375</AltitudeMeters>
            <DistanceMeters>NAN</DistanceMeters>
          </Trackpoint>
          <Trackpoint>
            <Time>2022-07-11T07:19:40.000Z</Time>
            <Position>
              <LatitudeDegrees>43.265897892415523529052734375</LatitudeDegrees>
              <LongitudeDegrees>-2.49665874056518077850341796875</LongitudeDegrees>
            </Position>
            <AltitudeMeters>97.59999847412109375</AltitudeMeters>
            <DistanceMeters>NAN</DistanceMeters>
          </Trackpoint>
          <Trackpoint>
            <Time>2022-07-11T07:19:42.000Z</Time>
            <Position>
              <LatitudeDegrees>43.2658517919480800628662109375</LatitudeDegrees>
              <LongitudeDegrees>-2.4966489337384700775146484375</LongitudeDegrees>
            </Position>
            <AltitudeMeters>97.59999847412109375</AltitudeMeters>
            <DistanceMeters>NAN</DistanceMeters>
          </Trackpoint>
          <Trackpoint>
            <Time>2022-07-11T07:19:49.000Z</Time>
            <Position>
              <LatitudeDegrees>43.26569010503590106964111328125</LatitudeDegrees>
              <LongitudeDegrees>-2.496590428054332733154296875</LongitudeDegrees>
            </Position>
            <AltitudeMeters>97.8000030517578125</AltitudeMeters>
            <DistanceMeters>NAN</DistanceMeters>
          </Trackpoint>
          <Trackpoint>
            <Time>2022-07-11T07:19:50.000Z</Time>
            <Position>
              <LatitudeDegrees>43.26567149721086025238037109375</LatitudeDegrees>
              <LongitudeDegrees>-2.49658112414181232452392578125</LongitudeDegrees>
            </Position>
            <AltitudeMeters>97.8000030517578125</AltitudeMeters>
            <DistanceMeters>NAN</DistanceMeters>
          </Trackpoint>
          <Trackpoint>
            <Time>2022-07-11T07:19:52.000Z</Time>
            <Position>
              <LatitudeDegrees>43.2656502909958362579345703125</LatitudeDegrees>
              <LongitudeDegrees>-2.49656804837286472320556640625</LongitudeDegrees>
            </Position>
            <AltitudeMeters>97.8000030517578125</AltitudeMeters>
            <DistanceMeters>NAN</DistanceMeters>
          </Trackpoint>
          <Trackpoint>
            <Time>2022-07-11T07:19:57.000Z</Time>
            <Position>
              <LatitudeDegrees>43.265536464750766754150390625</LatitudeDegrees>
              <LongitudeDegrees>-2.4965071119368076324462890625</LongitudeDegrees>
            </Position>
            <AltitudeMeters>97.8000030517578125</AltitudeMeters>
            <DistanceMeters>NAN</DistanceMeters>
          </Trackpoint>
          <Trackpoint>
            <Time>2022-07-11T07:20:02.000Z</Time>
            <Position>
              <LatitudeDegrees>43.26548340730369091033935546875</LatitudeDegrees>
              <LongitudeDegrees>-2.49638917855918407440185546875</LongitudeDegrees>
            </Position>
            <AltitudeMeters>98</AltitudeMeters>
            <DistanceMeters>NAN</DistanceMeters>
          </Trackpoint>
          <Trackpoint>
            <Time>2022-07-11T07:20:03.000Z</Time>
            <Position>
              <LatitudeDegrees>43.265480808913707733154296875</LatitudeDegrees>
              <LongitudeDegrees>-2.49635632149875164031982421875</LongitudeDegrees>
            </Position>
            <AltitudeMeters>98</AltitudeMeters>
            <DistanceMeters>NAN</DistanceMeters>
          </Trackpoint>
          <Trackpoint>
            <Time>2022-07-11T07:20:08.000Z</Time>
            <Position>
              <LatitudeDegrees>43.2654809765517711639404296875</LatitudeDegrees>
              <LongitudeDegrees>-2.496137805283069610595703125</LongitudeDegrees>
            </Position>
            <AltitudeMeters>98</AltitudeMeters>
            <DistanceMeters>NAN</DistanceMeters>
          </Trackpoint>
          <Trackpoint>
            <Time>2022-07-11T07:20:15.000Z</Time>
            <Position>
              <LatitudeDegrees>43.2655026018619537353515625</LatitudeDegrees>
              <LongitudeDegrees>-2.49586799181997776031494140625</LongitudeDegrees>
            </Position>
            <AltitudeMeters>97.59999847412109375</AltitudeMeters>
            <DistanceMeters>NAN</DistanceMeters>
          </Trackpoint>
          <Trackpoint>
            <Time>2022-07-11T07:20:17.000Z</Time>
            <Position>
              <LatitudeDegrees>43.2655185274779796600341796875</LatitudeDegrees>
              <LongitudeDegrees>-2.49580780975520610809326171875</LongitudeDegrees>
            </Position>
            <AltitudeMeters>97.40000152587890625</AltitudeMeters>
            <DistanceMeters>NAN</DistanceMeters>
          </Trackpoint>
          <Trackpoint>
            <Time>2022-07-11T07:20:19.000Z</Time>
            <Position>
              <LatitudeDegrees>43.265504278242588043212890625</LatitudeDegrees>
              <LongitudeDegrees>-2.495771348476409912109375</LongitudeDegrees>
            </Position>
            <AltitudeMeters>97.40000152587890625</AltitudeMeters>
            <DistanceMeters>NAN</DistanceMeters>
          </Trackpoint>
          <Trackpoint>
            <Time>2022-07-11T07:20:21.000Z</Time>
            <Position>
              <LatitudeDegrees>43.26548793353140354156494140625</LatitudeDegrees>
              <LongitudeDegrees>-2.4956843443214893341064453125</LongitudeDegrees>
            </Position>
            <AltitudeMeters>97.40000152587890625</AltitudeMeters>
            <DistanceMeters>NAN</DistanceMeters>
          </Trackpoint>
          <Trackpoint>
            <Time>2022-07-11T07:20:23.000Z</Time>
            <Position>
              <LatitudeDegrees>43.265494219958782196044921875</LatitudeDegrees>
              <LongitudeDegrees>-2.4955646507441997528076171875</LongitudeDegrees>
            </Position>
            <AltitudeMeters>97.1999969482421875</AltitudeMeters>
            <DistanceMeters>NAN</DistanceMeters>
          </Trackpoint>
          <Trackpoint>
            <Time>2022-07-11T07:20:29.000Z</Time>
            <Position>
              <LatitudeDegrees>43.2655634544789791107177734375</LatitudeDegrees>
              <LongitudeDegrees>-2.495240606367588043212890625</LongitudeDegrees>
            </Position>
            <AltitudeMeters>97.1999969482421875</AltitudeMeters>
            <DistanceMeters>NAN</DistanceMeters>
          </Trackpoint>
          <Trackpoint>
            <Time>2022-07-11T07:20:31.000Z</Time>
            <Position>
              <LatitudeDegrees>43.2655711658298969268798828125</LatitudeDegrees>
              <LongitudeDegrees>-2.4951663427054882049560546875</LongitudeDegrees>
            </Position>
            <AltitudeMeters>97.1999969482421875</AltitudeMeters>
            <DistanceMeters>NAN</DistanceMeters>
          </Trackpoint>
          <Trackpoint>
            <Time>2022-07-11T07:20:32.000Z</Time>
            <Position>
              <LatitudeDegrees>43.2655711658298969268798828125</LatitudeDegrees>
              <LongitudeDegrees>-2.4951663427054882049560546875</LongitudeDegrees>
            </Position>
            <AltitudeMeters>97.40000152587890625</AltitudeMeters>
            <DistanceMeters>NAN</DistanceMeters>
          </Trackpoint>
          <Trackpoint>
            <Time>2022-07-11T07:20:34.000Z</Time>
            <Position>
              <LatitudeDegrees>43.2655973173677921295166015625</LatitudeDegrees>
              <LongitudeDegrees>-2.495062239468097686767578125</LongitudeDegrees>
            </Position>
            <AltitudeMeters>97.59999847412109375</AltitudeMeters>
            <DistanceMeters>NAN</DistanceMeters>
          </Trackpoint>
          <Trackpoint>
            <Time>2022-07-11T07:20:35.000Z</Time>
            <Position>
              <LatitudeDegrees>43.2655996643006801605224609375</LatitudeDegrees>
              <LongitudeDegrees>-2.49501823447644710540771484375</LongitudeDegrees>
            </Position>
            <AltitudeMeters>97.59999847412109375</AltitudeMeters>
            <DistanceMeters>NAN</DistanceMeters>
          </Trackpoint>
          <Trackpoint>
            <Time>2022-07-11T07:20:43.000Z</Time>
            <Position>
              <LatitudeDegrees>43.26558549888432025909423828125</LatitudeDegrees>
              <LongitudeDegrees>-2.4948270432651042938232421875</LongitudeDegrees>
            </Position>
            <AltitudeMeters>98.1999969482421875</AltitudeMeters>
            <DistanceMeters>NAN</DistanceMeters>
          </Trackpoint>
          <Trackpoint>
            <Time>2022-07-11T07:20:50.000Z</Time>
            <Position>
              <LatitudeDegrees>43.2655889354646205902099609375</LatitudeDegrees>
              <LongitudeDegrees>-2.4946842156350612640380859375</LongitudeDegrees>
            </Position>
            <AltitudeMeters>98.59999847412109375</AltitudeMeters>
            <DistanceMeters>NAN</DistanceMeters>
          </Trackpoint>
          <Trackpoint>
            <Time>2022-07-11T07:20:52.000Z</Time>
            <Position>
              <LatitudeDegrees>43.26558834873139858245849609375</LatitudeDegrees>
              <LongitudeDegrees>-2.49463551677763462066650390625</LongitudeDegrees>
            </Position>
            <AltitudeMeters>98.8000030517578125</AltitudeMeters>
            <DistanceMeters>NAN</DistanceMeters>
          </Trackpoint>
          <Trackpoint>
            <Time>2022-07-11T07:20:57.000Z</Time>
            <Position>
              <LatitudeDegrees>43.26560494489967823028564453125</LatitudeDegrees>
              <LongitudeDegrees>-2.49449537135660648345947265625</LongitudeDegrees>
            </Position>
            <AltitudeMeters>99.40000152587890625</AltitudeMeters>
            <DistanceMeters>NAN</DistanceMeters>
          </Trackpoint>
          <Trackpoint>
            <Time>2022-07-11T07:21:02.000Z</Time>
            <Position>
              <LatitudeDegrees>43.2656476087868213653564453125</LatitudeDegrees>
              <LongitudeDegrees>-2.4943895079195499420166015625</LongitudeDegrees>
            </Position>
            <AltitudeMeters>100</AltitudeMeters>
            <DistanceMeters>NAN</DistanceMeters>
          </Trackpoint>
          <Trackpoint>
            <Time>2022-07-11T07:21:05.000Z</Time>
            <Position>
              <LatitudeDegrees>43.265678621828556060791015625</LatitudeDegrees>
              <LongitudeDegrees>-2.494323961436748504638671875</LongitudeDegrees>
            </Position>
            <AltitudeMeters>100</AltitudeMeters>
            <DistanceMeters>NAN</DistanceMeters>
          </Trackpoint>
          <Trackpoint>
            <Time>2022-07-11T07:21:14.000Z</Time>
            <Position>
              <LatitudeDegrees>43.2657713256776332855224609375</LatitudeDegrees>
              <LongitudeDegrees>-2.4940951354801654815673828125</LongitudeDegrees>
            </Position>
            <AltitudeMeters>100.40000152587890625</AltitudeMeters>
            <DistanceMeters>NAN</DistanceMeters>
          </Trackpoint>
          <Trackpoint>
            <Time>2022-07-11T07:21:21.000Z</Time>
            <Position>
              <LatitudeDegrees>43.26586377806961536407470703125</LatitudeDegrees>
              <LongitudeDegrees>-2.4939231388270854949951171875</LongitudeDegrees>
            </Position>
            <AltitudeMeters>100.59999847412109375</AltitudeMeters>
            <DistanceMeters>NAN</DistanceMeters>
          </Trackpoint>
          <Trackpoint>
            <Time>2022-07-11T07:21:23.000Z</Time>
            <Position>
              <LatitudeDegrees>43.26589286327362060546875</LatitudeDegrees>
              <LongitudeDegrees>-2.49389220960438251495361328125</LongitudeDegrees>
            </Position>
            <AltitudeMeters>100.8000030517578125</AltitudeMeters>
            <DistanceMeters>NAN</DistanceMeters>
          </Trackpoint>
          <Trackpoint>
            <Time>2022-07-11T07:21:28.000Z</Time>
            <Position>
              <LatitudeDegrees>43.2659758441150188446044921875</LatitudeDegrees>
              <LongitudeDegrees>-2.49379263259470462799072265625</LongitudeDegrees>
            </Position>
            <AltitudeMeters>101</AltitudeMeters>
            <DistanceMeters>NAN</DistanceMeters>
          </Trackpoint>
          <Trackpoint>
            <Time>2022-07-11T07:21:32.000Z</Time>
            <Position>
              <LatitudeDegrees>43.26604080386459827423095703125</LatitudeDegrees>
              <LongitudeDegrees>-2.49372021295130252838134765625</LongitudeDegrees>
            </Position>
            <AltitudeMeters>101.1999969482421875</AltitudeMeters>
            <DistanceMeters>NAN</DistanceMeters>
          </Trackpoint>
          <Trackpoint>
            <Time>2022-07-11T07:21:37.000Z</Time>
            <Position>
              <LatitudeDegrees>43.26614188961684703826904296875</LatitudeDegrees>
              <LongitudeDegrees>-2.49365986324846744537353515625</LongitudeDegrees>
            </Position>
            <AltitudeMeters>101.40000152587890625</AltitudeMeters>
            <DistanceMeters>NAN</DistanceMeters>
          </Trackpoint>
          <Trackpoint>
            <Time>2022-07-11T07:21:43.000Z</Time>
            <Position>
              <LatitudeDegrees>43.2662319950759410858154296875</LatitudeDegrees>
              <LongitudeDegrees>-2.49361979775130748748779296875</LongitudeDegrees>
            </Position>
            <AltitudeMeters>101.59999847412109375</AltitudeMeters>
            <DistanceMeters>NAN</DistanceMeters>
          </Trackpoint>
          <Trackpoint>
            <Time>2022-07-11T07:21:44.000Z</Time>
            <Position>
              <LatitudeDegrees>43.2662427239120006561279296875</LatitudeDegrees>
              <LongitudeDegrees>-2.4936240725219249725341796875</LongitudeDegrees>
            </Position>
            <AltitudeMeters>101.59999847412109375</AltitudeMeters>
            <DistanceMeters>NAN</DistanceMeters>
          </Trackpoint>
          <Trackpoint>
            <Time>2022-07-11T07:21:47.000Z</Time>
            <Position>
              <LatitudeDegrees>43.266267366707324981689453125</LatitudeDegrees>
              <LongitudeDegrees>-2.49365969561040401458740234375</LongitudeDegrees>
            </Position>
            <AltitudeMeters>101.40000152587890625</AltitudeMeters>
            <DistanceMeters>NAN</DistanceMeters>
          </Trackpoint>
          <Trackpoint>
            <Time>2022-07-11T07:21:48.000Z</Time>
            <Position>
              <LatitudeDegrees>43.26627247966825962066650390625</LatitudeDegrees>
              <LongitudeDegrees>-2.4936725199222564697265625</LongitudeDegrees>
            </Position>
            <AltitudeMeters>101.40000152587890625</AltitudeMeters>
            <DistanceMeters>NAN</DistanceMeters>
          </Trackpoint>
          <Trackpoint>
            <Time>2022-07-11T07:21:52.000Z</Time>
            <Position>
              <LatitudeDegrees>43.2662785984575748443603515625</LatitudeDegrees>
              <LongitudeDegrees>-2.49369339086115360260009765625</LongitudeDegrees>
            </Position>
            <AltitudeMeters>101.40000152587890625</AltitudeMeters>
            <DistanceMeters>NAN</DistanceMeters>
          </Trackpoint>
          <Trackpoint>
            <Time>2022-07-11T07:22:14.000Z</Time>
            <Position>
              <LatitudeDegrees>43.266329057514667510986328125</LatitudeDegrees>
              <LongitudeDegrees>-2.49367042444646358489990234375</LongitudeDegrees>
            </Position>
            <AltitudeMeters>101.59999847412109375</AltitudeMeters>
            <DistanceMeters>NAN</DistanceMeters>
          </Trackpoint>
          <Trackpoint>
            <Time>2022-07-11T07:22:15.000Z</Time>
            <Position>
              <LatitudeDegrees>43.26635126955807209014892578125</LatitudeDegrees>
              <LongitudeDegrees>-2.493668496608734130859375</LongitudeDegrees>
            </Position>
            <AltitudeMeters>101.59999847412109375</AltitudeMeters>
            <DistanceMeters>NAN</DistanceMeters>
          </Trackpoint>
          <Trackpoint>
            <Time>2022-07-11T07:22:20.000Z</Time>
            <Position>
              <LatitudeDegrees>43.266464509069919586181640625</LatitudeDegrees>
              <LongitudeDegrees>-2.49365734867751598358154296875</LongitudeDegrees>
            </Position>
            <AltitudeMeters>102</AltitudeMeters>
            <DistanceMeters>NAN</DistanceMeters>
          </Trackpoint>
          <Trackpoint>
            <Time>2022-07-11T07:22:22.000Z</Time>
            <Position>
              <LatitudeDegrees>43.266514129936695098876953125</LatitudeDegrees>
              <LongitudeDegrees>-2.49366581439971923828125</LongitudeDegrees>
            </Position>
            <AltitudeMeters>102</AltitudeMeters>
            <DistanceMeters>NAN</DistanceMeters>
          </Trackpoint>
          <Trackpoint>
            <Time>2022-07-11T07:22:30.000Z</Time>
            <Position>
              <LatitudeDegrees>43.266708590090274810791015625</LatitudeDegrees>
              <LongitudeDegrees>-2.4936790578067302703857421875</LongitudeDegrees>
            </Position>
            <AltitudeMeters>102</AltitudeMeters>
            <DistanceMeters>NAN</DistanceMeters>
          </Trackpoint>
          <Trackpoint>
            <Time>2022-07-11T07:22:39.000Z</Time>
            <Position>
              <LatitudeDegrees>43.2669753022491931915283203125</LatitudeDegrees>
              <LongitudeDegrees>-2.49368526041507720947265625</LongitudeDegrees>
            </Position>
            <AltitudeMeters>101.59999847412109375</AltitudeMeters>
            <DistanceMeters>NAN</DistanceMeters>
          </Trackpoint>
          <Trackpoint>
            <Time>2022-07-11T07:22:43.000Z</Time>
            <Position>
              <LatitudeDegrees>43.2670395076274871826171875</LatitudeDegrees>
              <LongitudeDegrees>-2.493733875453472137451171875</LongitudeDegrees>
            </Position>
            <AltitudeMeters>101.1999969482421875</AltitudeMeters>
            <DistanceMeters>NAN</DistanceMeters>
          </Trackpoint>
          <Trackpoint>
            <Time>2022-07-11T07:22:44.000Z</Time>
            <Position>
              <LatitudeDegrees>43.267053924500942230224609375</LatitudeDegrees>
              <LongitudeDegrees>-2.49376145191490650177001953125</LongitudeDegrees>
            </Position>
            <AltitudeMeters>101</AltitudeMeters>
            <DistanceMeters>NAN</DistanceMeters>
          </Trackpoint>
          <Trackpoint>
            <Time>2022-07-11T07:22:48.000Z</Time>
            <Position>
              <LatitudeDegrees>43.267099857330322265625</LatitudeDegrees>
              <LongitudeDegrees>-2.49389204196631908416748046875</LongitudeDegrees>
            </Position>
            <AltitudeMeters>100.1999969482421875</AltitudeMeters>
            <DistanceMeters>NAN</DistanceMeters>
          </Trackpoint>
          <Trackpoint>
            <Time>2022-07-11T07:22:51.000Z</Time>
            <Position>
              <LatitudeDegrees>43.26710010878741741180419921875</LatitudeDegrees>
              <LongitudeDegrees>-2.49400444328784942626953125</LongitudeDegrees>
            </Position>
            <AltitudeMeters>99.8000030517578125</AltitudeMeters>
            <DistanceMeters>NAN</DistanceMeters>
          </Trackpoint>
          <Trackpoint>
            <Time>2022-07-11T07:22:56.000Z</Time>
            <Position>
              <LatitudeDegrees>43.26709507964551448822021484375</LatitudeDegrees>
              <LongitudeDegrees>-2.49415389262139797210693359375</LongitudeDegrees>
            </Position>
            <AltitudeMeters>99.1999969482421875</AltitudeMeters>
            <DistanceMeters>NAN</DistanceMeters>
          </Trackpoint>
          <Trackpoint>
            <Time>2022-07-11T07:23:00.000Z</Time>
            <Position>
              <LatitudeDegrees>43.26710212044417858123779296875</LatitudeDegrees>
              <LongitudeDegrees>-2.4942309223115444183349609375</LongitudeDegrees>
            </Position>
            <AltitudeMeters>98.8000030517578125</AltitudeMeters>
            <DistanceMeters>NAN</DistanceMeters>
          </Trackpoint>
          <Trackpoint>
            <Time>2022-07-11T07:23:02.000Z</Time>
            <Position>
              <LatitudeDegrees>43.2671120949089527130126953125</LatitudeDegrees>
              <LongitudeDegrees>-2.49434818513691425323486328125</LongitudeDegrees>
            </Position>
            <AltitudeMeters>98.8000030517578125</AltitudeMeters>
            <DistanceMeters>NAN</DistanceMeters>
          </Trackpoint>
          <Trackpoint>
            <Time>2022-07-11T07:23:03.000Z</Time>
            <Position>
              <LatitudeDegrees>43.2671124301850795745849609375</LatitudeDegrees>
              <LongitudeDegrees>-2.49440015293657779693603515625</LongitudeDegrees>
            </Position>
            <AltitudeMeters>98.59999847412109375</AltitudeMeters>
            <DistanceMeters>NAN</DistanceMeters>
          </Trackpoint>
          <Trackpoint>
            <Time>2022-07-11T07:23:08.000Z</Time>
            <Position>
              <LatitudeDegrees>43.2671171240508556365966796875</LatitudeDegrees>
              <LongitudeDegrees>-2.4946567229926586151123046875</LongitudeDegrees>
            </Position>
            <AltitudeMeters>97.8000030517578125</AltitudeMeters>
            <DistanceMeters>NAN</DistanceMeters>
          </Trackpoint>
          <Trackpoint>
            <Time>2022-07-11T07:23:10.000Z</Time>
            <Position>
              <LatitudeDegrees>43.2671231590211391448974609375</LatitudeDegrees>
              <LongitudeDegrees>-2.494735680520534515380859375</LongitudeDegrees>
            </Position>
            <AltitudeMeters>97.1999969482421875</AltitudeMeters>
            <DistanceMeters>NAN</DistanceMeters>
          </Trackpoint>
          <Trackpoint>
            <Time>2022-07-11T07:23:14.000Z</Time>
            <Position>
              <LatitudeDegrees>43.26716280542314052581787109375</LatitudeDegrees>
              <LongitudeDegrees>-2.49487976543605327606201171875</LongitudeDegrees>
            </Position>
            <AltitudeMeters>97</AltitudeMeters>
            <DistanceMeters>NAN</DistanceMeters>
          </Trackpoint>
          <Trackpoint>
            <Time>2022-07-11T07:23:15.000Z</Time>
            <Position>
              <LatitudeDegrees>43.26717487536370754241943359375</LatitudeDegrees>
              <LongitudeDegrees>-2.4949095211923122406005859375</LongitudeDegrees>
            </Position>
            <AltitudeMeters>96.8000030517578125</AltitudeMeters>
            <DistanceMeters>NAN</DistanceMeters>
          </Trackpoint>
          <Trackpoint>
            <Time>2022-07-11T07:23:19.000Z</Time>
            <Position>
              <LatitudeDegrees>43.267193399369716644287109375</LatitudeDegrees>
              <LongitudeDegrees>-2.49501773156225681304931640625</LongitudeDegrees>
            </Position>
            <AltitudeMeters>96.1999969482421875</AltitudeMeters>
            <DistanceMeters>NAN</DistanceMeters>
          </Trackpoint>
          <Trackpoint>
            <Time>2022-07-11T07:23:23.000Z</Time>
            <Position>
              <LatitudeDegrees>43.26715794391930103302001953125</LatitudeDegrees>
              <LongitudeDegrees>-2.49508327804505825042724609375</LongitudeDegrees>
            </Position>
            <AltitudeMeters>96</AltitudeMeters>
            <DistanceMeters>NAN</DistanceMeters>
          </Trackpoint>
          <Trackpoint>
            <Time>2022-07-11T07:23:24.000Z</Time>
            <Position>
              <LatitudeDegrees>43.26713531278073787689208984375</LatitudeDegrees>
              <LongitudeDegrees>-2.49508780427277088165283203125</LongitudeDegrees>
            </Position>
            <AltitudeMeters>95.8000030517578125</AltitudeMeters>
            <DistanceMeters>NAN</DistanceMeters>
          </Trackpoint>
          <Trackpoint>
            <Time>2022-07-11T07:23:26.000Z</Time>
            <Position>
              <LatitudeDegrees>43.26711117289960384368896484375</LatitudeDegrees>
              <LongitudeDegrees>-2.495091743767261505126953125</LongitudeDegrees>
            </Position>
            <AltitudeMeters>95.59999847412109375</AltitudeMeters>
            <DistanceMeters>NAN</DistanceMeters>
          </Trackpoint>
          <Trackpoint>
            <Time>2022-07-11T07:23:32.000Z</Time>
            <Position>
              <LatitudeDegrees>43.26701913960278034210205078125</LatitudeDegrees>
              <LongitudeDegrees>-2.495119906961917877197265625</LongitudeDegrees>
            </Position>
            <AltitudeMeters>95.59999847412109375</AltitudeMeters>
            <DistanceMeters>NAN</DistanceMeters>
          </Trackpoint>
          <Trackpoint>
            <Time>2022-07-11T07:23:39.000Z</Time>
            <Position>
              <LatitudeDegrees>43.26702735386788845062255859375</LatitudeDegrees>
              <LongitudeDegrees>-2.49514513649046421051025390625</LongitudeDegrees>
            </Position>
            <AltitudeMeters>95.40000152587890625</AltitudeMeters>
            <DistanceMeters>NAN</DistanceMeters>
          </Trackpoint>
          <Trackpoint>
            <Time>2022-07-11T07:23:41.000Z</Time>
            <Position>
              <LatitudeDegrees>43.2670329697430133819580078125</LatitudeDegrees>
              <LongitudeDegrees>-2.4951670132577419281005859375</LongitudeDegrees>
            </Position>
            <AltitudeMeters>95.40000152587890625</AltitudeMeters>
            <DistanceMeters>NAN</DistanceMeters>
          </Trackpoint>
          <Trackpoint>
            <Time>2022-07-11T07:23:44.000Z</Time>
            <Position>
              <LatitudeDegrees>43.2670329697430133819580078125</LatitudeDegrees>
              <LongitudeDegrees>-2.4951670132577419281005859375</LongitudeDegrees>
            </Position>
            <AltitudeMeters>95.40000152587890625</AltitudeMeters>
            <DistanceMeters>NAN</DistanceMeters>
          </Trackpoint>
          <Trackpoint>
            <Time>2022-07-11T08:23:53.000Z</Time>
            <Position>
              <LatitudeDegrees>43.2669558562338352203369140625</LatitudeDegrees>
              <LongitudeDegrees>-2.49523364938795566558837890625</LongitudeDegrees>
            </Position>
            <AltitudeMeters>87</AltitudeMeters>
            <DistanceMeters>NAN</DistanceMeters>
          </Trackpoint>
          <Trackpoint>
            <Time>2022-07-11T08:23:57.000Z</Time>
            <Position>
              <LatitudeDegrees>43.2669471390545368194580078125</LatitudeDegrees>
              <LongitudeDegrees>-2.4953178875148296356201171875</LongitudeDegrees>
            </Position>
            <AltitudeMeters>87</AltitudeMeters>
            <DistanceMeters>NAN</DistanceMeters>
          </Trackpoint>
          <Trackpoint>
            <Time>2022-07-11T08:23:59.000Z</Time>
            <Position>
              <LatitudeDegrees>43.2669483125209808349609375</LatitudeDegrees>
              <LongitudeDegrees>-2.49534152448177337646484375</LongitudeDegrees>
            </Position>
            <AltitudeMeters>86.8000030517578125</AltitudeMeters>
            <DistanceMeters>NAN</DistanceMeters>
          </Trackpoint>
          <Trackpoint>
            <Time>2022-07-11T08:24:05.000Z</Time>
            <Position>
              <LatitudeDegrees>43.26691755093634128570556640625</LatitudeDegrees>
              <LongitudeDegrees>-2.495403550565242767333984375</LongitudeDegrees>
            </Position>
            <AltitudeMeters>86.59999847412109375</AltitudeMeters>
            <DistanceMeters>NAN</DistanceMeters>
          </Trackpoint>
          <Trackpoint>
            <Time>2022-07-11T08:24:08.000Z</Time>
            <Position>
              <LatitudeDegrees>43.26690397225320339202880859375</LatitudeDegrees>
              <LongitudeDegrees>-2.495441101491451263427734375</LongitudeDegrees>
            </Position>
            <AltitudeMeters>86.59999847412109375</AltitudeMeters>
            <DistanceMeters>NAN</DistanceMeters>
          </Trackpoint>
          <Trackpoint>
            <Time>2022-07-11T08:28:02.000Z</Time>
            <Position>
              <LatitudeDegrees>43.2671174593269824981689453125</LatitudeDegrees>
              <LongitudeDegrees>-2.49503918923437595367431640625</LongitudeDegrees>
            </Position>
            <AltitudeMeters>85.8000030517578125</AltitudeMeters>
            <DistanceMeters>NAN</DistanceMeters>
          </Trackpoint>
          <Trackpoint>
            <Time>2022-07-11T08:28:03.000Z</Time>
            <Position>
              <LatitudeDegrees>43.26712743379175662994384765625</LatitudeDegrees>
              <LongitudeDegrees>-2.495034746825695037841796875</LongitudeDegrees>
            </Position>
            <AltitudeMeters>85.8000030517578125</AltitudeMeters>
            <DistanceMeters>NAN</DistanceMeters>
          </Trackpoint>
          <Trackpoint>
            <Time>2022-07-11T08:28:07.000Z</Time>
            <Position>
              <LatitudeDegrees>43.267186693847179412841796875</LatitudeDegrees>
              <LongitudeDegrees>-2.4950379319489002227783203125</LongitudeDegrees>
            </Position>
            <AltitudeMeters>85.8000030517578125</AltitudeMeters>
            <DistanceMeters>NAN</DistanceMeters>
          </Trackpoint>
          <Trackpoint>
            <Time>2022-07-11T08:28:09.000Z</Time>
            <Position>
              <LatitudeDegrees>43.2672084867954254150390625</LatitudeDegrees>
              <LongitudeDegrees>-2.49506601132452487945556640625</LongitudeDegrees>
            </Position>
            <AltitudeMeters>85.8000030517578125</AltitudeMeters>
            <DistanceMeters>NAN</DistanceMeters>
          </Trackpoint>
          <Trackpoint>
            <Time>2022-07-11T08:28:14.000Z</Time>
            <Position>
              <LatitudeDegrees>43.26723539270460605621337890625</LatitudeDegrees>
              <LongitudeDegrees>-2.49520079232752323150634765625</LongitudeDegrees>
            </Position>
            <AltitudeMeters>86</AltitudeMeters>
            <DistanceMeters>NAN</DistanceMeters>
          </Trackpoint>
          <Trackpoint>
            <Time>2022-07-11T08:28:21.000Z</Time>
            <Position>
              <LatitudeDegrees>43.2672773860394954681396484375</LatitudeDegrees>
              <LongitudeDegrees>-2.49543984420597553253173828125</LongitudeDegrees>
            </Position>
            <AltitudeMeters>86.1999969482421875</AltitudeMeters>
            <DistanceMeters>NAN</DistanceMeters>
          </Trackpoint>
          <Trackpoint>
            <Time>2022-07-11T08:28:27.000Z</Time>
            <Position>
              <LatitudeDegrees>43.26731686480343341827392578125</LatitudeDegrees>
              <LongitudeDegrees>-2.4956518225371837615966796875</LongitudeDegrees>
            </Position>
            <AltitudeMeters>86.1999969482421875</AltitudeMeters>
            <DistanceMeters>NAN</DistanceMeters>
          </Trackpoint>
          <Trackpoint>
            <Time>2022-07-11T08:28:34.000Z</Time>
            <Position>
              <LatitudeDegrees>43.26733429916203022003173828125</LatitudeDegrees>
              <LongitudeDegrees>-2.49594292603433132171630859375</LongitudeDegrees>
            </Position>
            <AltitudeMeters>85.59999847412109375</AltitudeMeters>
            <DistanceMeters>NAN</DistanceMeters>
          </Trackpoint>
          <Trackpoint>
            <Time>2022-07-11T08:28:38.000Z</Time>
            <Position>
              <LatitudeDegrees>43.26732524670660495758056640625</LatitudeDegrees>
              <LongitudeDegrees>-2.49604417942464351654052734375</LongitudeDegrees>
            </Position>
            <AltitudeMeters>85.59999847412109375</AltitudeMeters>
            <DistanceMeters>NAN</DistanceMeters>
          </Trackpoint>
          <Trackpoint>
            <Time>2022-07-11T08:28:44.000Z</Time>
            <Position>
              <LatitudeDegrees>43.26730839908123016357421875</LatitudeDegrees>
              <LongitudeDegrees>-2.496247105300426483154296875</LongitudeDegrees>
            </Position>
            <AltitudeMeters>85.8000030517578125</AltitudeMeters>
            <DistanceMeters>NAN</DistanceMeters>
          </Trackpoint>
          <Trackpoint>
            <Time>2022-07-11T08:28:45.000Z</Time>
            <Position>
              <LatitudeDegrees>43.2673058845102787017822265625</LatitudeDegrees>
              <LongitudeDegrees>-2.49628289602696895599365234375</LongitudeDegrees>
            </Position>
            <AltitudeMeters>85.8000030517578125</AltitudeMeters>
            <DistanceMeters>NAN</DistanceMeters>
          </Trackpoint>
          <Trackpoint>
            <Time>2022-07-11T08:28:48.000Z</Time>
            <Position>
              <LatitudeDegrees>43.26731988228857517242431640625</LatitudeDegrees>
              <LongitudeDegrees>-2.49642320908606052398681640625</LongitudeDegrees>
            </Position>
            <AltitudeMeters>86</AltitudeMeters>
            <DistanceMeters>NAN</DistanceMeters>
          </Trackpoint>
          <Trackpoint>
            <Time>2022-07-11T08:28:50.000Z</Time>
            <Position>
              <LatitudeDegrees>43.2673360593616962432861328125</LatitudeDegrees>
              <LongitudeDegrees>-2.49650786630809307098388671875</LongitudeDegrees>
            </Position>
            <AltitudeMeters>86.1999969482421875</AltitudeMeters>
            <DistanceMeters>NAN</DistanceMeters>
          </Trackpoint>
          <Trackpoint>
            <Time>2022-07-11T08:28:52.000Z</Time>
            <Position>
              <LatitudeDegrees>43.2673276774585247039794921875</LatitudeDegrees>
              <LongitudeDegrees>-2.49655363149940967559814453125</LongitudeDegrees>
            </Position>
            <AltitudeMeters>86.1999969482421875</AltitudeMeters>
            <DistanceMeters>NAN</DistanceMeters>
          </Trackpoint>
          <Trackpoint>
            <Time>2022-07-11T08:28:53.000Z</Time>
            <Position>
              <LatitudeDegrees>43.2673276774585247039794921875</LatitudeDegrees>
              <LongitudeDegrees>-2.49655363149940967559814453125</LongitudeDegrees>
            </Position>
            <AltitudeMeters>86.1999969482421875</AltitudeMeters>
            <DistanceMeters>NAN</DistanceMeters>
          </Trackpoint>
          <Trackpoint>
            <Time>2022-07-11T08:28:59.000Z</Time>
            <Position>
              <LatitudeDegrees>43.2672113366425037384033203125</LatitudeDegrees>
              <LongitudeDegrees>-2.49675647355616092681884765625</LongitudeDegrees>
            </Position>
            <AltitudeMeters>86.40000152587890625</AltitudeMeters>
            <DistanceMeters>NAN</DistanceMeters>
          </Trackpoint>
          <Trackpoint>
            <Time>2022-07-11T08:29:03.000Z</Time>
            <Position>
              <LatitudeDegrees>43.26717806048691272735595703125</LatitudeDegrees>
              <LongitudeDegrees>-2.49693266116082668304443359375</LongitudeDegrees>
            </Position>
            <AltitudeMeters>86.59999847412109375</AltitudeMeters>
            <DistanceMeters>NAN</DistanceMeters>
          </Trackpoint>
          <Trackpoint>
            <Time>2022-07-11T08:29:05.000Z</Time>
            <Position>
              <LatitudeDegrees>43.26715190894901752471923828125</LatitudeDegrees>
              <LongitudeDegrees>-2.496986053884029388427734375</LongitudeDegrees>
            </Position>
            <AltitudeMeters>86.8000030517578125</AltitudeMeters>
            <DistanceMeters>NAN</DistanceMeters>
          </Trackpoint>
          <Trackpoint>
            <Time>2022-07-11T08:29:06.000Z</Time>
            <Position>
              <LatitudeDegrees>43.2671439461410045623779296875</LatitudeDegrees>
              <LongitudeDegrees>-2.497013546526432037353515625</LongitudeDegrees>
            </Position>
            <AltitudeMeters>86.8000030517578125</AltitudeMeters>
            <DistanceMeters>NAN</DistanceMeters>
          </Trackpoint>
          <Trackpoint>
            <Time>2022-07-11T08:29:09.000Z</Time>
            <Position>
              <LatitudeDegrees>43.26711502857506275177001953125</LatitudeDegrees>
              <LongitudeDegrees>-2.49711471609771251678466796875</LongitudeDegrees>
            </Position>
            <AltitudeMeters>86.8000030517578125</AltitudeMeters>
            <DistanceMeters>NAN</DistanceMeters>
          </Trackpoint>
          <Trackpoint>
            <Time>2022-07-11T08:29:14.000Z</Time>
            <Position>
              <LatitudeDegrees>43.2670851051807403564453125</LatitudeDegrees>
              <LongitudeDegrees>-2.4972272850573062896728515625</LongitudeDegrees>
            </Position>
            <AltitudeMeters>87.59999847412109375</AltitudeMeters>
            <DistanceMeters>NAN</DistanceMeters>
          </Trackpoint>
          <Trackpoint>
            <Time>2022-07-11T08:29:16.000Z</Time>
            <Position>
              <LatitudeDegrees>43.26706088148057460784912109375</LatitudeDegrees>
              <LongitudeDegrees>-2.49728268943727016448974609375</LongitudeDegrees>
            </Position>
            <AltitudeMeters>88</AltitudeMeters>
            <DistanceMeters>NAN</DistanceMeters>
          </Trackpoint>
          <Trackpoint>
            <Time>2022-07-11T08:29:20.000Z</Time>
            <Position>
              <LatitudeDegrees>43.26702064834535121917724609375</LatitudeDegrees>
              <LongitudeDegrees>-2.49736525118350982666015625</LongitudeDegrees>
            </Position>
            <AltitudeMeters>88.40000152587890625</AltitudeMeters>
            <DistanceMeters>NAN</DistanceMeters>
          </Trackpoint>
          <Trackpoint>
            <Time>2022-07-11T08:29:22.000Z</Time>
            <Position>
              <LatitudeDegrees>43.26700472272932529449462890625</LatitudeDegrees>
              <LongitudeDegrees>-2.49739819206297397613525390625</LongitudeDegrees>
            </Position>
            <AltitudeMeters>88.40000152587890625</AltitudeMeters>
            <DistanceMeters>NAN</DistanceMeters>
          </Trackpoint>
          <Trackpoint>
            <Time>2022-07-11T08:29:25.000Z</Time>
            <Position>
              <LatitudeDegrees>43.26699282042682170867919921875</LatitudeDegrees>
              <LongitudeDegrees>-2.4974740482866764068603515625</LongitudeDegrees>
            </Position>
            <AltitudeMeters>89</AltitudeMeters>
            <DistanceMeters>NAN</DistanceMeters>
          </Trackpoint>
          <Trackpoint>
            <Time>2022-07-11T08:29:26.000Z</Time>
            <Position>
              <LatitudeDegrees>43.2669913955032825469970703125</LatitudeDegrees>
              <LongitudeDegrees>-2.49750078655779361724853515625</LongitudeDegrees>
            </Position>
            <AltitudeMeters>89</AltitudeMeters>
            <DistanceMeters>NAN</DistanceMeters>
          </Trackpoint>
          <Trackpoint>
            <Time>2022-07-11T08:29:28.000Z</Time>
            <Position>
              <LatitudeDegrees>43.26697354204952716827392578125</LatitudeDegrees>
              <LongitudeDegrees>-2.4975535087287425994873046875</LongitudeDegrees>
            </Position>
            <AltitudeMeters>89.40000152587890625</AltitudeMeters>
            <DistanceMeters>NAN</DistanceMeters>
          </Trackpoint>
          <Trackpoint>
            <Time>2022-07-11T08:29:31.000Z</Time>
            <Position>
              <LatitudeDegrees>43.26695702970027923583984375</LatitudeDegrees>
              <LongitudeDegrees>-2.49763347208499908447265625</LongitudeDegrees>
            </Position>
            <AltitudeMeters>89.59999847412109375</AltitudeMeters>
            <DistanceMeters>NAN</DistanceMeters>
          </Trackpoint>
          <Trackpoint>
            <Time>2022-07-11T08:29:33.000Z</Time>
            <Position>
              <LatitudeDegrees>43.26695962809026241302490234375</LatitudeDegrees>
              <LongitudeDegrees>-2.49769206158816814422607421875</LongitudeDegrees>
            </Position>
            <AltitudeMeters>90</AltitudeMeters>
            <DistanceMeters>NAN</DistanceMeters>
          </Trackpoint>
          <Trackpoint>
            <Time>2022-07-11T08:29:36.000Z</Time>
            <Position>
              <LatitudeDegrees>43.2669682614505290985107421875</LatitudeDegrees>
              <LongitudeDegrees>-2.497772276401519775390625</LongitudeDegrees>
            </Position>
            <AltitudeMeters>90.40000152587890625</AltitudeMeters>
            <DistanceMeters>NAN</DistanceMeters>
          </Trackpoint>
          <Trackpoint>
            <Time>2022-07-11T08:29:41.000Z</Time>
            <Position>
              <LatitudeDegrees>43.26699483208358287811279296875</LatitudeDegrees>
              <LongitudeDegrees>-2.49790177680552005767822265625</LongitudeDegrees>
            </Position>
            <AltitudeMeters>91</AltitudeMeters>
            <DistanceMeters>NAN</DistanceMeters>
          </Trackpoint>
          <Trackpoint>
            <Time>2022-07-11T08:29:46.000Z</Time>
            <Position>
              <LatitudeDegrees>43.26701796613633632659912109375</LatitudeDegrees>
              <LongitudeDegrees>-2.49803203158080577850341796875</LongitudeDegrees>
            </Position>
            <AltitudeMeters>91.59999847412109375</AltitudeMeters>
            <DistanceMeters>NAN</DistanceMeters>
          </Trackpoint>
          <Trackpoint>
            <Time>2022-07-11T08:29:50.000Z</Time>
            <Position>
              <LatitudeDegrees>43.26703322120010852813720703125</LatitudeDegrees>
              <LongitudeDegrees>-2.4980748631060123443603515625</LongitudeDegrees>
            </Position>
            <AltitudeMeters>92</AltitudeMeters>
            <DistanceMeters>NAN</DistanceMeters>
          </Trackpoint>
          <Trackpoint>
            <Time>2022-07-11T08:29:51.000Z</Time>
            <Position>
              <LatitudeDegrees>43.26703079044818878173828125</LatitudeDegrees>
              <LongitudeDegrees>-2.4980862624943256378173828125</LongitudeDegrees>
            </Position>
            <AltitudeMeters>92.1999969482421875</AltitudeMeters>
            <DistanceMeters>NAN</DistanceMeters>
          </Trackpoint>
          <Trackpoint>
            <Time>2022-07-11T08:29:55.000Z</Time>
            <Position>
              <LatitudeDegrees>43.26701930724084377288818359375</LatitudeDegrees>
              <LongitudeDegrees>-2.49809741042554378509521484375</LongitudeDegrees>
            </Position>
            <AltitudeMeters>92.40000152587890625</AltitudeMeters>
            <DistanceMeters>NAN</DistanceMeters>
          </Trackpoint>
          <Trackpoint>
            <Time>2022-07-11T08:31:21.000Z</Time>
            <Position>
              <LatitudeDegrees>43.26699147932231426239013671875</LatitudeDegrees>
              <LongitudeDegrees>-2.49812029302120208740234375</LongitudeDegrees>
            </Position>
            <AltitudeMeters>92.59999847412109375</AltitudeMeters>
            <DistanceMeters>NAN</DistanceMeters>
          </Trackpoint>
          <Trackpoint>
            <Time>2022-07-11T08:31:22.000Z</Time>
            <Position>
              <LatitudeDegrees>43.26699365861713886260986328125</LatitudeDegrees>
              <LongitudeDegrees>-2.49813043512403964996337890625</LongitudeDegrees>
            </Position>
            <AltitudeMeters>92.59999847412109375</AltitudeMeters>
            <DistanceMeters>NAN</DistanceMeters>
          </Trackpoint>
          <Trackpoint>
            <Time>2022-07-11T08:31:25.000Z</Time>
            <Position>
              <LatitudeDegrees>43.2670021243393421173095703125</LatitudeDegrees>
              <LongitudeDegrees>-2.49816731549799442291259765625</LongitudeDegrees>
            </Position>
            <AltitudeMeters>92.8000030517578125</AltitudeMeters>
            <DistanceMeters>NAN</DistanceMeters>
          </Trackpoint>
          <Trackpoint>
            <Time>2022-07-11T08:31:26.000Z</Time>
            <Position>
              <LatitudeDegrees>43.26699793338775634765625</LatitudeDegrees>
              <LongitudeDegrees>-2.498189024627208709716796875</LongitudeDegrees>
            </Position>
            <AltitudeMeters>92.8000030517578125</AltitudeMeters>
            <DistanceMeters>NAN</DistanceMeters>
          </Trackpoint>
          <Trackpoint>
            <Time>2022-07-11T08:31:29.000Z</Time>
            <Position>
              <LatitudeDegrees>43.2669766433537006378173828125</LatitudeDegrees>
              <LongitudeDegrees>-2.4982646293938159942626953125</LongitudeDegrees>
            </Position>
            <AltitudeMeters>93.1999969482421875</AltitudeMeters>
            <DistanceMeters>NAN</DistanceMeters>
          </Trackpoint>
          <Trackpoint>
            <Time>2022-07-11T08:31:34.000Z</Time>
            <Position>
              <LatitudeDegrees>43.2669437862932682037353515625</LatitudeDegrees>
              <LongitudeDegrees>-2.49837401323020458221435546875</LongitudeDegrees>
            </Position>
            <AltitudeMeters>93.8000030517578125</AltitudeMeters>
            <DistanceMeters>NAN</DistanceMeters>
          </Trackpoint>
          <Trackpoint>
            <Time>2022-07-11T08:31:35.000Z</Time>
            <Position>
              <LatitudeDegrees>43.2669317163527011871337890625</LatitudeDegrees>
              <LongitudeDegrees>-2.49839161522686481475830078125</LongitudeDegrees>
            </Position>
            <AltitudeMeters>93.8000030517578125</AltitudeMeters>
            <DistanceMeters>NAN</DistanceMeters>
          </Trackpoint>
          <Trackpoint>
            <Time>2022-07-11T08:31:39.000Z</Time>
            <Position>
              <LatitudeDegrees>43.26688184402883052825927734375</LatitudeDegrees>
              <LongitudeDegrees>-2.49847694300115108489990234375</LongitudeDegrees>
            </Position>
            <AltitudeMeters>94.1999969482421875</AltitudeMeters>
            <DistanceMeters>NAN</DistanceMeters>
          </Trackpoint>
          <Trackpoint>
            <Time>2022-07-11T08:31:43.000Z</Time>
            <Position>
              <LatitudeDegrees>43.266835324466228485107421875</LatitudeDegrees>
              <LongitudeDegrees>-2.498557828366756439208984375</LongitudeDegrees>
            </Position>
            <AltitudeMeters>94.40000152587890625</AltitudeMeters>
            <DistanceMeters>NAN</DistanceMeters>
          </Trackpoint>
          <Trackpoint>
            <Time>2022-07-11T08:31:49.000Z</Time>
            <Position>
              <LatitudeDegrees>43.26674220152199268341064453125</LatitudeDegrees>
              <LongitudeDegrees>-2.49866620637476444244384765625</LongitudeDegrees>
            </Position>
            <AltitudeMeters>95.1999969482421875</AltitudeMeters>
            <DistanceMeters>NAN</DistanceMeters>
          </Trackpoint>
          <Trackpoint>
            <Time>2022-07-11T08:31:51.000Z</Time>
            <Position>
              <LatitudeDegrees>43.26670867390930652618408203125</LatitudeDegrees>
              <LongitudeDegrees>-2.4986917711794376373291015625</LongitudeDegrees>
            </Position>
            <AltitudeMeters>95.40000152587890625</AltitudeMeters>
            <DistanceMeters>NAN</DistanceMeters>
          </Trackpoint>
          <Trackpoint>
            <Time>2022-07-11T08:31:56.000Z</Time>
            <Position>
              <LatitudeDegrees>43.26663474552333354949951171875</LatitudeDegrees>
              <LongitudeDegrees>-2.49876310117542743682861328125</LongitudeDegrees>
            </Position>
            <AltitudeMeters>95.8000030517578125</AltitudeMeters>
            <DistanceMeters>NAN</DistanceMeters>
          </Trackpoint>
          <Trackpoint>
            <Time>2022-07-11T08:32:01.000Z</Time>
            <Position>
              <LatitudeDegrees>43.26655394397675991058349609375</LatitudeDegrees>
              <LongitudeDegrees>-2.49885178171098232269287109375</LongitudeDegrees>
            </Position>
            <AltitudeMeters>96.40000152587890625</AltitudeMeters>
            <DistanceMeters>NAN</DistanceMeters>
          </Trackpoint>
          <Trackpoint>
            <Time>2022-07-11T08:32:02.000Z</Time>
            <Position>
              <LatitudeDegrees>43.26654472388327121734619140625</LatitudeDegrees>
              <LongitudeDegrees>-2.4988905899226665496826171875</LongitudeDegrees>
            </Position>
            <AltitudeMeters>96.40000152587890625</AltitudeMeters>
            <DistanceMeters>NAN</DistanceMeters>
          </Trackpoint>
          <Trackpoint>
            <Time>2022-07-11T08:32:05.000Z</Time>
            <Position>
              <LatitudeDegrees>43.26650331728160381317138671875</LatitudeDegrees>
              <LongitudeDegrees>-2.49896862544119358062744140625</LongitudeDegrees>
            </Position>
            <AltitudeMeters>96.59999847412109375</AltitudeMeters>
            <DistanceMeters>NAN</DistanceMeters>
          </Trackpoint>
          <Trackpoint>
            <Time>2022-07-11T08:32:07.000Z</Time>
            <Position>
              <LatitudeDegrees>43.26647850684821605682373046875</LatitudeDegrees>
              <LongitudeDegrees>-2.499016821384429931640625</LongitudeDegrees>
            </Position>
            <AltitudeMeters>96.8000030517578125</AltitudeMeters>
            <DistanceMeters>NAN</DistanceMeters>
          </Trackpoint>
          <Trackpoint>
            <Time>2022-07-11T08:32:10.000Z</Time>
            <Position>
              <LatitudeDegrees>43.26644933782517910003662109375</LatitudeDegrees>
              <LongitudeDegrees>-2.49907021410763263702392578125</LongitudeDegrees>
            </Position>
            <AltitudeMeters>97.1999969482421875</AltitudeMeters>
            <DistanceMeters>NAN</DistanceMeters>
          </Trackpoint>
          <Trackpoint>
            <Time>2022-07-11T08:32:13.000Z</Time>
            <Position>
              <LatitudeDegrees>43.266425617039203643798828125</LatitudeDegrees>
              <LongitudeDegrees>-2.49912737868726253509521484375</LongitudeDegrees>
            </Position>
            <AltitudeMeters>97.40000152587890625</AltitudeMeters>
            <DistanceMeters>NAN</DistanceMeters>
          </Trackpoint>
          <Trackpoint>
            <Time>2022-07-11T08:32:15.000Z</Time>
            <Position>
              <LatitudeDegrees>43.26640449464321136474609375</LatitudeDegrees>
              <LongitudeDegrees>-2.49916073866188526153564453125</LongitudeDegrees>
            </Position>
            <AltitudeMeters>97.59999847412109375</AltitudeMeters>
            <DistanceMeters>NAN</DistanceMeters>
          </Trackpoint>
          <Trackpoint>
            <Time>2022-07-11T08:32:16.000Z</Time>
            <Position>
              <LatitudeDegrees>43.26640189625322818756103515625</LatitudeDegrees>
              <LongitudeDegrees>-2.4991802684962749481201171875</LongitudeDegrees>
            </Position>
            <AltitudeMeters>97.59999847412109375</AltitudeMeters>
            <DistanceMeters>NAN</DistanceMeters>
          </Trackpoint>
          <Trackpoint>
            <Time>2022-07-11T08:32:17.000Z</Time>
            <Position>
              <LatitudeDegrees>43.26640181243419647216796875</LatitudeDegrees>
              <LongitudeDegrees>-2.49919376336038112640380859375</LongitudeDegrees>
            </Position>
            <AltitudeMeters>97.8000030517578125</AltitudeMeters>
            <DistanceMeters>NAN</DistanceMeters>
          </Trackpoint>
          <Trackpoint>
            <Time>2022-07-11T08:32:19.000Z</Time>
            <Position>
              <LatitudeDegrees>43.26639049686491489410400390625</LatitudeDegrees>
              <LongitudeDegrees>-2.49922310002148151397705078125</LongitudeDegrees>
            </Position>
            <AltitudeMeters>97.8000030517578125</AltitudeMeters>
            <DistanceMeters>NAN</DistanceMeters>
          </Trackpoint>
          <Trackpoint>
            <Time>2022-07-11T08:32:22.000Z</Time>
            <Position>
              <LatitudeDegrees>43.26636518351733684539794921875</LatitudeDegrees>
              <LongitudeDegrees>-2.49926283024251461029052734375</LongitudeDegrees>
            </Position>
            <AltitudeMeters>98.1999969482421875</AltitudeMeters>
            <DistanceMeters>NAN</DistanceMeters>
          </Trackpoint>
          <Trackpoint>
            <Time>2022-07-11T08:32:23.000Z</Time>
            <Position>
              <LatitudeDegrees>43.26635931618511676788330078125</LatitudeDegrees>
              <LongitudeDegrees>-2.499260567128658294677734375</LongitudeDegrees>
            </Position>
            <AltitudeMeters>98.1999969482421875</AltitudeMeters>
            <DistanceMeters>NAN</DistanceMeters>
          </Trackpoint>
          <Trackpoint>
            <Time>2022-07-11T08:32:24.000Z</Time>
            <Position>
              <LatitudeDegrees>43.26635981909930706024169921875</LatitudeDegrees>
              <LongitudeDegrees>-2.49925612471997737884521484375</LongitudeDegrees>
            </Position>
            <AltitudeMeters>98.1999969482421875</AltitudeMeters>
            <DistanceMeters>NAN</DistanceMeters>
          </Trackpoint>
          <Trackpoint>
            <Time>2022-07-11T08:35:48.000Z</Time>
            <Position>
              <LatitudeDegrees>43.266370296478271484375</LatitudeDegrees>
              <LongitudeDegrees>-2.49937883578240871429443359375</LongitudeDegrees>
            </Position>
            <AltitudeMeters>100.8000030517578125</AltitudeMeters>
            <DistanceMeters>NAN</DistanceMeters>
          </Trackpoint>
          <Trackpoint>
            <Time>2022-07-11T08:35:49.000Z</Time>
            <Position>
              <LatitudeDegrees>43.2663580588996410369873046875</LatitudeDegrees>
              <LongitudeDegrees>-2.4994012154638767242431640625</LongitudeDegrees>
            </Position>
            <AltitudeMeters>101</AltitudeMeters>
            <DistanceMeters>NAN</DistanceMeters>
          </Trackpoint>
          <Trackpoint>
            <Time>2022-07-11T08:35:50.000Z</Time>
            <Position>
              <LatitudeDegrees>43.26634439639747142791748046875</LatitudeDegrees>
              <LongitudeDegrees>-2.4994179792702198028564453125</LongitudeDegrees>
            </Position>
            <AltitudeMeters>101</AltitudeMeters>
            <DistanceMeters>NAN</DistanceMeters>
          </Trackpoint>
          <Trackpoint>
            <Time>2022-07-11T08:35:57.000Z</Time>
            <Position>
              <LatitudeDegrees>43.26622637920081615447998046875</LatitudeDegrees>
              <LongitudeDegrees>-2.499558292329311370849609375</LongitudeDegrees>
            </Position>
            <AltitudeMeters>101.8000030517578125</AltitudeMeters>
            <DistanceMeters>NAN</DistanceMeters>
          </Trackpoint>
          <Trackpoint>
            <Time>2022-07-11T08:35:59.000Z</Time>
            <Position>
              <LatitudeDegrees>43.2661892473697662353515625</LatitudeDegrees>
              <LongitudeDegrees>-2.499589808285236358642578125</LongitudeDegrees>
            </Position>
            <AltitudeMeters>102</AltitudeMeters>
            <DistanceMeters>NAN</DistanceMeters>
          </Trackpoint>
          <Trackpoint>
            <Time>2022-07-11T08:36:01.000Z</Time>
            <Position>
              <LatitudeDegrees>43.2661481760442256927490234375</LatitudeDegrees>
              <LongitudeDegrees>-2.4996342323720455169677734375</LongitudeDegrees>
            </Position>
            <AltitudeMeters>102.1999969482421875</AltitudeMeters>
            <DistanceMeters>NAN</DistanceMeters>
          </Trackpoint>
          <Trackpoint>
            <Time>2022-07-11T08:36:06.000Z</Time>
            <Position>
              <LatitudeDegrees>43.2660311646759510040283203125</LatitudeDegrees>
              <LongitudeDegrees>-2.4998550117015838623046875</LongitudeDegrees>
            </Position>
            <AltitudeMeters>101.1999969482421875</AltitudeMeters>
            <DistanceMeters>NAN</DistanceMeters>
          </Trackpoint>
          <Trackpoint>
            <Time>2022-07-11T08:36:07.000Z</Time>
            <Position>
              <LatitudeDegrees>43.26600962318480014801025390625</LatitudeDegrees>
              <LongitudeDegrees>-2.49991343356668949127197265625</LongitudeDegrees>
            </Position>
            <AltitudeMeters>101</AltitudeMeters>
            <DistanceMeters>NAN</DistanceMeters>
          </Trackpoint>
          <Trackpoint>
            <Time>2022-07-11T08:36:09.000Z</Time>
            <Position>
              <LatitudeDegrees>43.26597307808697223663330078125</LatitudeDegrees>
              <LongitudeDegrees>-2.50004234723746776580810546875</LongitudeDegrees>
            </Position>
            <AltitudeMeters>101.1999969482421875</AltitudeMeters>
            <DistanceMeters>NAN</DistanceMeters>
          </Trackpoint>
          <Trackpoint>
            <Time>2022-07-11T08:36:11.000Z</Time>
            <Position>
              <LatitudeDegrees>43.26594776473939418792724609375</LatitudeDegrees>
              <LongitudeDegrees>-2.50017025507986545562744140625</LongitudeDegrees>
            </Position>
            <AltitudeMeters>101.1999969482421875</AltitudeMeters>
            <DistanceMeters>NAN</DistanceMeters>
          </Trackpoint>
          <Trackpoint>
            <Time>2022-07-11T08:36:15.000Z</Time>
            <Position>
              <LatitudeDegrees>43.2659185118973255157470703125</LatitudeDegrees>
              <LongitudeDegrees>-2.5004174374043941497802734375</LongitudeDegrees>
            </Position>
            <AltitudeMeters>101</AltitudeMeters>
            <DistanceMeters>NAN</DistanceMeters>
          </Trackpoint>
          <Trackpoint>
            <Time>2022-07-11T08:36:17.000Z</Time>
            <Position>
              <LatitudeDegrees>43.265916667878627777099609375</LatitudeDegrees>
              <LongitudeDegrees>-2.5005394779145717620849609375</LongitudeDegrees>
            </Position>
            <AltitudeMeters>100.8000030517578125</AltitudeMeters>
            <DistanceMeters>NAN</DistanceMeters>
          </Trackpoint>
          <Trackpoint>
            <Time>2022-07-11T08:36:18.000Z</Time>
            <Position>
              <LatitudeDegrees>43.2659138180315494537353515625</LatitudeDegrees>
              <LongitudeDegrees>-2.50059664249420166015625</LongitudeDegrees>
            </Position>
            <AltitudeMeters>100.8000030517578125</AltitudeMeters>
            <DistanceMeters>NAN</DistanceMeters>
          </Trackpoint>
          <Trackpoint>
            <Time>2022-07-11T08:36:19.000Z</Time>
            <Position>
              <LatitudeDegrees>43.26590870507061481475830078125</LatitudeDegrees>
              <LongitudeDegrees>-2.50065456144511699676513671875</LongitudeDegrees>
            </Position>
            <AltitudeMeters>100.8000030517578125</AltitudeMeters>
            <DistanceMeters>NAN</DistanceMeters>
          </Trackpoint>
          <Trackpoint>
            <Time>2022-07-11T08:36:24.000Z</Time>
            <Position>
              <LatitudeDegrees>43.26588305644690990447998046875</LatitudeDegrees>
              <LongitudeDegrees>-2.50093501992523670196533203125</LongitudeDegrees>
            </Position>
            <AltitudeMeters>100.59999847412109375</AltitudeMeters>
            <DistanceMeters>NAN</DistanceMeters>
          </Trackpoint>
          <Trackpoint>
            <Time>2022-07-11T08:36:27.000Z</Time>
            <Position>
              <LatitudeDegrees>43.2658647000789642333984375</LatitudeDegrees>
              <LongitudeDegrees>-2.5011101178824901580810546875</LongitudeDegrees>
            </Position>
            <AltitudeMeters>100.40000152587890625</AltitudeMeters>
            <DistanceMeters>NAN</DistanceMeters>
          </Trackpoint>
          <Trackpoint>
            <Time>2022-07-11T08:36:31.000Z</Time>
            <Position>
              <LatitudeDegrees>43.26583184301853179931640625</LatitudeDegrees>
              <LongitudeDegrees>-2.50134573318064212799072265625</LongitudeDegrees>
            </Position>
            <AltitudeMeters>100.40000152587890625</AltitudeMeters>
            <DistanceMeters>NAN</DistanceMeters>
          </Trackpoint>
          <Trackpoint>
            <Time>2022-07-11T08:36:33.000Z</Time>
            <Position>
              <LatitudeDegrees>43.2658169232308864593505859375</LatitudeDegrees>
              <LongitudeDegrees>-2.50145888887345790863037109375</LongitudeDegrees>
            </Position>
            <AltitudeMeters>100.1999969482421875</AltitudeMeters>
            <DistanceMeters>NAN</DistanceMeters>
          </Trackpoint>
          <Trackpoint>
            <Time>2022-07-11T08:36:37.000Z</Time>
            <Position>
              <LatitudeDegrees>43.26578213833272457122802734375</LatitudeDegrees>
              <LongitudeDegrees>-2.50169861130416393280029296875</LongitudeDegrees>
            </Position>
            <AltitudeMeters>100</AltitudeMeters>
            <DistanceMeters>NAN</DistanceMeters>
          </Trackpoint>
          <Trackpoint>
            <Time>2022-07-11T08:36:42.000Z</Time>
            <Position>
              <LatitudeDegrees>43.265750706195831298828125</LatitudeDegrees>
              <LongitudeDegrees>-2.50200488604605197906494140625</LongitudeDegrees>
            </Position>
            <AltitudeMeters>100</AltitudeMeters>
            <DistanceMeters>NAN</DistanceMeters>
          </Trackpoint>
          <Trackpoint>
            <Time>2022-07-11T08:36:44.000Z</Time>
            <Position>
              <LatitudeDegrees>43.265735618770122528076171875</LatitudeDegrees>
              <LongitudeDegrees>-2.50212759710848331451416015625</LongitudeDegrees>
            </Position>
            <AltitudeMeters>99.8000030517578125</AltitudeMeters>
            <DistanceMeters>NAN</DistanceMeters>
          </Trackpoint>
          <Trackpoint>
            <Time>2022-07-11T08:36:47.000Z</Time>
            <Position>
              <LatitudeDegrees>43.26570737175643444061279296875</LatitudeDegrees>
              <LongitudeDegrees>-2.50231652520596981048583984375</LongitudeDegrees>
            </Position>
            <AltitudeMeters>100</AltitudeMeters>
            <DistanceMeters>NAN</DistanceMeters>
          </Trackpoint>
          <Trackpoint>
            <Time>2022-07-11T08:36:49.000Z</Time>
            <Position>
              <LatitudeDegrees>43.265686333179473876953125</LatitudeDegrees>
              <LongitudeDegrees>-2.5024522282183170318603515625</LongitudeDegrees>
            </Position>
            <AltitudeMeters>99.8000030517578125</AltitudeMeters>
            <DistanceMeters>NAN</DistanceMeters>
          </Trackpoint>
          <Trackpoint>
            <Time>2022-07-11T08:36:51.000Z</Time>
            <Position>
              <LatitudeDegrees>43.26567132957279682159423828125</LatitudeDegrees>
              <LongitudeDegrees>-2.50258306972682476043701171875</LongitudeDegrees>
            </Position>
            <AltitudeMeters>99.40000152587890625</AltitudeMeters>
            <DistanceMeters>NAN</DistanceMeters>
          </Trackpoint>
          <Trackpoint>
            <Time>2022-07-11T08:36:56.000Z</Time>
            <Position>
              <LatitudeDegrees>43.2656402327120304107666015625</LatitudeDegrees>
              <LongitudeDegrees>-2.50291314907371997833251953125</LongitudeDegrees>
            </Position>
            <AltitudeMeters>99</AltitudeMeters>
            <DistanceMeters>NAN</DistanceMeters>
          </Trackpoint>
          <Trackpoint>
            <Time>2022-07-11T08:36:58.000Z</Time>
            <Position>
              <LatitudeDegrees>43.2656295038759708404541015625</LatitudeDegrees>
              <LongitudeDegrees>-2.50305044464766979217529296875</LongitudeDegrees>
            </Position>
            <AltitudeMeters>99</AltitudeMeters>
            <DistanceMeters>NAN</DistanceMeters>
          </Trackpoint>
          <Trackpoint>
            <Time>2022-07-11T08:37:01.000Z</Time>
            <Position>
              <LatitudeDegrees>43.26559673063457012176513671875</LatitudeDegrees>
              <LongitudeDegrees>-2.50326267443597316741943359375</LongitudeDegrees>
            </Position>
            <AltitudeMeters>98.8000030517578125</AltitudeMeters>
            <DistanceMeters>NAN</DistanceMeters>
          </Trackpoint>
          <Trackpoint>
            <Time>2022-07-11T08:37:06.000Z</Time>
            <Position>
              <LatitudeDegrees>43.2655487023293972015380859375</LatitudeDegrees>
              <LongitudeDegrees>-2.5036377646028995513916015625</LongitudeDegrees>
            </Position>
            <AltitudeMeters>98.40000152587890625</AltitudeMeters>
            <DistanceMeters>NAN</DistanceMeters>
          </Trackpoint>
          <Trackpoint>
            <Time>2022-07-11T08:37:13.000Z</Time>
            <Position>
              <LatitudeDegrees>43.26549178920686244964599609375</LatitudeDegrees>
              <LongitudeDegrees>-2.50416557304561138153076171875</LongitudeDegrees>
            </Position>
            <AltitudeMeters>98</AltitudeMeters>
            <DistanceMeters>NAN</DistanceMeters>
          </Trackpoint>
          <Trackpoint>
            <Time>2022-07-11T08:37:16.000Z</Time>
            <Position>
              <LatitudeDegrees>43.26546915806829929351806640625</LatitudeDegrees>
              <LongitudeDegrees>-2.50436707399785518646240234375</LongitudeDegrees>
            </Position>
            <AltitudeMeters>97.8000030517578125</AltitudeMeters>
            <DistanceMeters>NAN</DistanceMeters>
          </Trackpoint>
          <Trackpoint>
            <Time>2022-07-11T08:37:18.000Z</Time>
            <Position>
              <LatitudeDegrees>43.2654570043087005615234375</LatitudeDegrees>
              <LongitudeDegrees>-2.50448475591838359832763671875</LongitudeDegrees>
            </Position>
            <AltitudeMeters>97.8000030517578125</AltitudeMeters>
            <DistanceMeters>NAN</DistanceMeters>
          </Trackpoint>
          <Trackpoint>
            <Time>2022-07-11T08:37:19.000Z</Time>
            <Position>
              <LatitudeDegrees>43.26545457355678081512451171875</LatitudeDegrees>
              <LongitudeDegrees>-2.50452381558716297149658203125</LongitudeDegrees>
            </Position>
            <AltitudeMeters>97.8000030517578125</AltitudeMeters>
            <DistanceMeters>NAN</DistanceMeters>
          </Trackpoint>
          <Trackpoint>
            <Time>2022-07-11T08:37:20.000Z</Time>
            <Position>
              <LatitudeDegrees>43.2654565013945102691650390625</LatitudeDegrees>
              <LongitudeDegrees>-2.5045473687350749969482421875</LongitudeDegrees>
            </Position>
            <AltitudeMeters>97.59999847412109375</AltitudeMeters>
            <DistanceMeters>NAN</DistanceMeters>
          </Trackpoint>
          <Trackpoint>
            <Time>2022-07-11T08:37:23.000Z</Time>
            <Position>
              <LatitudeDegrees>43.26545298099517822265625</LatitudeDegrees>
              <LongitudeDegrees>-2.50459170900285243988037109375</LongitudeDegrees>
            </Position>
            <AltitudeMeters>97.40000152587890625</AltitudeMeters>
            <DistanceMeters>NAN</DistanceMeters>
          </Trackpoint>
          <Trackpoint>
            <Time>2022-07-11T08:37:25.000Z</Time>
            <Position>
              <LatitudeDegrees>43.26542548835277557373046875</LatitudeDegrees>
              <LongitudeDegrees>-2.50460109673440456390380859375</LongitudeDegrees>
            </Position>
            <AltitudeMeters>97.40000152587890625</AltitudeMeters>
            <DistanceMeters>NAN</DistanceMeters>
          </Trackpoint>
          <Trackpoint>
            <Time>2022-07-11T08:37:28.000Z</Time>
            <Position>
              <LatitudeDegrees>43.265411742031574249267578125</LatitudeDegrees>
              <LongitudeDegrees>-2.50454477034509181976318359375</LongitudeDegrees>
            </Position>
            <AltitudeMeters>97.40000152587890625</AltitudeMeters>
            <DistanceMeters>NAN</DistanceMeters>
          </Trackpoint>
          <Trackpoint>
            <Time>2022-07-11T08:37:32.000Z</Time>
            <Position>
              <LatitudeDegrees>43.26548843644559383392333984375</LatitudeDegrees>
              <LongitudeDegrees>-2.50445458106696605682373046875</LongitudeDegrees>
            </Position>
            <AltitudeMeters>97.8000030517578125</AltitudeMeters>
            <DistanceMeters>NAN</DistanceMeters>
          </Trackpoint>
          <Trackpoint>
            <Time>2022-07-11T08:37:34.000Z</Time>
            <Position>
              <LatitudeDegrees>43.2655275799334049224853515625</LatitudeDegrees>
              <LongitudeDegrees>-2.5044890306890010833740234375</LongitudeDegrees>
            </Position>
            <AltitudeMeters>97.59999847412109375</AltitudeMeters>
            <DistanceMeters>NAN</DistanceMeters>
          </Trackpoint>
          <Trackpoint>
            <Time>2022-07-11T08:37:35.000Z</Time>
            <Position>
              <LatitudeDegrees>43.2655419968068599700927734375</LatitudeDegrees>
              <LongitudeDegrees>-2.5045289285480976104736328125</LongitudeDegrees>
            </Position>
            <AltitudeMeters>97.59999847412109375</AltitudeMeters>
            <DistanceMeters>NAN</DistanceMeters>
          </Trackpoint>
          <Trackpoint>
            <Time>2022-07-11T08:37:38.000Z</Time>
            <Position>
              <LatitudeDegrees>43.26557795517146587371826171875</LatitudeDegrees>
              <LongitudeDegrees>-2.5045906193554401397705078125</LongitudeDegrees>
            </Position>
            <AltitudeMeters>97.8000030517578125</AltitudeMeters>
            <DistanceMeters>NAN</DistanceMeters>
          </Trackpoint>
          <Trackpoint>
            <Time>2022-07-11T08:37:39.000Z</Time>
            <Position>
              <LatitudeDegrees>43.26561835594475269317626953125</LatitudeDegrees>
              <LongitudeDegrees>-2.50463127158582210540771484375</LongitudeDegrees>
            </Position>
            <AltitudeMeters>97.8000030517578125</AltitudeMeters>
            <DistanceMeters>NAN</DistanceMeters>
          </Trackpoint>
          <Trackpoint>
            <Time>2022-07-11T08:37:40.000Z</Time>
            <Position>
              <LatitudeDegrees>43.26562824659049510955810546875</LatitudeDegrees>
              <LongitudeDegrees>-2.504657842218875885009765625</LongitudeDegrees>
            </Position>
            <AltitudeMeters>97.8000030517578125</AltitudeMeters>
            <DistanceMeters>NAN</DistanceMeters>
          </Trackpoint>
          <Trackpoint>
            <Time>2022-07-11T08:37:42.000Z</Time>
            <Position>
              <LatitudeDegrees>43.265621960163116455078125</LatitudeDegrees>
              <LongitudeDegrees>-2.50472933985292911529541015625</LongitudeDegrees>
            </Position>
            <AltitudeMeters>98</AltitudeMeters>
            <DistanceMeters>NAN</DistanceMeters>
          </Trackpoint>
          <Trackpoint>
            <Time>2022-07-11T08:37:43.000Z</Time>
            <Position>
              <LatitudeDegrees>43.26561399735510349273681640625</LatitudeDegrees>
              <LongitudeDegrees>-2.50476554967463016510009765625</LongitudeDegrees>
            </Position>
            <AltitudeMeters>98</AltitudeMeters>
            <DistanceMeters>NAN</DistanceMeters>
          </Trackpoint>
          <Trackpoint>
            <Time>2022-07-11T08:37:46.000Z</Time>
            <Position>
              <LatitudeDegrees>43.2655589282512664794921875</LatitudeDegrees>
              <LongitudeDegrees>-2.5048735924065113067626953125</LongitudeDegrees>
            </Position>
            <AltitudeMeters>98.1999969482421875</AltitudeMeters>
            <DistanceMeters>NAN</DistanceMeters>
          </Trackpoint>
          <Trackpoint>
            <Time>2022-07-11T08:37:48.000Z</Time>
            <Position>
              <LatitudeDegrees>43.2655188627541065216064453125</LatitudeDegrees>
              <LongitudeDegrees>-2.5049678049981594085693359375</LongitudeDegrees>
            </Position>
            <AltitudeMeters>98</AltitudeMeters>
            <DistanceMeters>NAN</DistanceMeters>
          </Trackpoint>
          <Trackpoint>
            <Time>2022-07-11T08:37:52.000Z</Time>
            <Position>
              <LatitudeDegrees>43.26543982140719890594482421875</LatitudeDegrees>
              <LongitudeDegrees>-2.5051857344806194305419921875</LongitudeDegrees>
            </Position>
            <AltitudeMeters>97.59999847412109375</AltitudeMeters>
            <DistanceMeters>NAN</DistanceMeters>
          </Trackpoint>
          <Trackpoint>
            <Time>2022-07-11T08:37:54.000Z</Time>
            <Position>
              <LatitudeDegrees>43.2654199562966823577880859375</LatitudeDegrees>
              <LongitudeDegrees>-2.50528003089129924774169921875</LongitudeDegrees>
            </Position>
            <AltitudeMeters>96.8000030517578125</AltitudeMeters>
            <DistanceMeters>NAN</DistanceMeters>
          </Trackpoint>
          <Trackpoint>
            <Time>2022-07-11T08:37:55.000Z</Time>
            <Position>
              <LatitudeDegrees>43.26541283167898654937744140625</LatitudeDegrees>
              <LongitudeDegrees>-2.50531372614204883575439453125</LongitudeDegrees>
            </Position>
            <AltitudeMeters>96.40000152587890625</AltitudeMeters>
            <DistanceMeters>NAN</DistanceMeters>
          </Trackpoint>
          <Trackpoint>
            <Time>2022-07-11T08:38:03.000Z</Time>
            <Position>
              <LatitudeDegrees>43.26559337787330150604248046875</LatitudeDegrees>
              <LongitudeDegrees>-2.50547499395906925201416015625</LongitudeDegrees>
            </Position>
            <AltitudeMeters>95.1999969482421875</AltitudeMeters>
            <DistanceMeters>NAN</DistanceMeters>
          </Trackpoint>
          <Trackpoint>
            <Time>2022-07-11T08:38:04.000Z</Time>
            <Position>
              <LatitudeDegrees>43.2655818946659564971923828125</LatitudeDegrees>
              <LongitudeDegrees>-2.50550416298210620880126953125</LongitudeDegrees>
            </Position>
            <AltitudeMeters>95.1999969482421875</AltitudeMeters>
            <DistanceMeters>NAN</DistanceMeters>
          </Trackpoint>
          <Trackpoint>
            <Time>2022-07-11T08:38:12.000Z</Time>
            <Position>
              <LatitudeDegrees>43.2655802182853221893310546875</LatitudeDegrees>
              <LongitudeDegrees>-2.5058016367256641387939453125</LongitudeDegrees>
            </Position>
            <AltitudeMeters>96</AltitudeMeters>
            <DistanceMeters>NAN</DistanceMeters>
          </Trackpoint>
          <Trackpoint>
            <Time>2022-07-11T08:38:17.000Z</Time>
            <Position>
              <LatitudeDegrees>43.26555850915610790252685546875</LatitudeDegrees>
              <LongitudeDegrees>-2.50595293007791042327880859375</LongitudeDegrees>
            </Position>
            <AltitudeMeters>96.40000152587890625</AltitudeMeters>
            <DistanceMeters>NAN</DistanceMeters>
          </Trackpoint>
          <Trackpoint>
            <Time>2022-07-11T08:38:18.000Z</Time>
            <Position>
              <LatitudeDegrees>43.26555280946195125579833984375</LatitudeDegrees>
              <LongitudeDegrees>-2.505985200405120849609375</LongitudeDegrees>
            </Position>
            <AltitudeMeters>96.40000152587890625</AltitudeMeters>
            <DistanceMeters>NAN</DistanceMeters>
          </Trackpoint>
          <Trackpoint>
            <Time>2022-07-11T08:38:20.000Z</Time>
            <Position>
              <LatitudeDegrees>43.265535123646259307861328125</LatitudeDegrees>
              <LongitudeDegrees>-2.506035827100276947021484375</LongitudeDegrees>
            </Position>
            <AltitudeMeters>96.8000030517578125</AltitudeMeters>
            <DistanceMeters>NAN</DistanceMeters>
          </Trackpoint>
          <Trackpoint>
            <Time>2022-07-11T08:38:22.000Z</Time>
            <Position>
              <LatitudeDegrees>43.26552632264792919158935546875</LatitudeDegrees>
              <LongitudeDegrees>-2.50608586706221103668212890625</LongitudeDegrees>
            </Position>
            <AltitudeMeters>97</AltitudeMeters>
            <DistanceMeters>NAN</DistanceMeters>
          </Trackpoint>
          <Trackpoint>
            <Time>2022-07-11T08:38:24.000Z</Time>
            <Position>
              <LatitudeDegrees>43.2655232213437557220458984375</LatitudeDegrees>
              <LongitudeDegrees>-2.5061426125466823577880859375</LongitudeDegrees>
            </Position>
            <AltitudeMeters>97.1999969482421875</AltitudeMeters>
            <DistanceMeters>NAN</DistanceMeters>
          </Trackpoint>
          <Trackpoint>
            <Time>2022-07-11T08:38:26.000Z</Time>
            <Position>
              <LatitudeDegrees>43.26551693491637706756591796875</LatitudeDegrees>
              <LongitudeDegrees>-2.50619332306087017059326171875</LongitudeDegrees>
            </Position>
            <AltitudeMeters>97.40000152587890625</AltitudeMeters>
            <DistanceMeters>NAN</DistanceMeters>
          </Trackpoint>
          <Trackpoint>
            <Time>2022-07-11T08:38:27.000Z</Time>
            <Position>
              <LatitudeDegrees>43.26551307924091815948486328125</LatitudeDegrees>
              <LongitudeDegrees>-2.5062210671603679656982421875</LongitudeDegrees>
            </Position>
            <AltitudeMeters>97.59999847412109375</AltitudeMeters>
            <DistanceMeters>NAN</DistanceMeters>
          </Trackpoint>
          <Trackpoint>
            <Time>2022-07-11T08:38:31.000Z</Time>
            <Position>
              <LatitudeDegrees>43.26550737954676151275634765625</LatitudeDegrees>
              <LongitudeDegrees>-2.5063164532184600830078125</LongitudeDegrees>
            </Position>
            <AltitudeMeters>98</AltitudeMeters>
            <DistanceMeters>NAN</DistanceMeters>
          </Trackpoint>
          <Trackpoint>
            <Time>2022-07-11T08:38:36.000Z</Time>
            <Position>
              <LatitudeDegrees>43.26549765653908252716064453125</LatitudeDegrees>
              <LongitudeDegrees>-2.506427429616451263427734375</LongitudeDegrees>
            </Position>
            <AltitudeMeters>98.40000152587890625</AltitudeMeters>
            <DistanceMeters>NAN</DistanceMeters>
          </Trackpoint>
          <Trackpoint>
            <Time>2022-07-11T08:38:38.000Z</Time>
            <Position>
              <LatitudeDegrees>43.26549195684492588043212890625</LatitudeDegrees>
              <LongitudeDegrees>-2.50646472908556461334228515625</LongitudeDegrees>
            </Position>
            <AltitudeMeters>98.59999847412109375</AltitudeMeters>
            <DistanceMeters>NAN</DistanceMeters>
          </Trackpoint>
          <Trackpoint>
            <Time>2022-07-11T08:38:42.000Z</Time>
            <Position>
              <LatitudeDegrees>43.2654772885143756866455078125</LatitudeDegrees>
              <LongitudeDegrees>-2.50654016621410846710205078125</LongitudeDegrees>
            </Position>
            <AltitudeMeters>99</AltitudeMeters>
            <DistanceMeters>NAN</DistanceMeters>
          </Trackpoint>
          <Trackpoint>
            <Time>2022-07-11T08:38:43.000Z</Time>
            <Position>
              <LatitudeDegrees>43.26548525132238864898681640625</LatitudeDegrees>
              <LongitudeDegrees>-2.50656229443848133087158203125</LongitudeDegrees>
            </Position>
            <AltitudeMeters>99.1999969482421875</AltitudeMeters>
            <DistanceMeters>NAN</DistanceMeters>
          </Trackpoint>
          <Trackpoint>
            <Time>2022-07-11T08:38:46.000Z</Time>
            <Position>
              <LatitudeDegrees>43.26551944948732852935791015625</LatitudeDegrees>
              <LongitudeDegrees>-2.50660085119307041168212890625</LongitudeDegrees>
            </Position>
            <AltitudeMeters>99.59999847412109375</AltitudeMeters>
            <DistanceMeters>NAN</DistanceMeters>
          </Trackpoint>
          <Trackpoint>
            <Time>2022-07-11T08:38:48.000Z</Time>
            <Position>
              <LatitudeDegrees>43.26555750332772731781005859375</LatitudeDegrees>
              <LongitudeDegrees>-2.5065892003476619720458984375</LongitudeDegrees>
            </Position>
            <AltitudeMeters>99.8000030517578125</AltitudeMeters>
            <DistanceMeters>NAN</DistanceMeters>
          </Trackpoint>
          <Trackpoint>
            <Time>2022-07-11T08:38:52.000Z</Time>
            <Position>
              <LatitudeDegrees>43.2656298391520977020263671875</LatitudeDegrees>
              <LongitudeDegrees>-2.50653547234833240509033203125</LongitudeDegrees>
            </Position>
            <AltitudeMeters>100</AltitudeMeters>
            <DistanceMeters>NAN</DistanceMeters>
          </Trackpoint>
          <Trackpoint>
            <Time>2022-07-11T08:38:55.000Z</Time>
            <Position>
              <LatitudeDegrees>43.2656704075634479522705078125</LatitudeDegrees>
              <LongitudeDegrees>-2.5064993463456630706787109375</LongitudeDegrees>
            </Position>
            <AltitudeMeters>100.1999969482421875</AltitudeMeters>
            <DistanceMeters>NAN</DistanceMeters>
          </Trackpoint>
          <Trackpoint>
            <Time>2022-07-11T08:38:56.000Z</Time>
            <Position>
              <LatitudeDegrees>43.26568691991269588470458984375</LatitudeDegrees>
              <LongitudeDegrees>-2.50649959780275821685791015625</LongitudeDegrees>
            </Position>
            <AltitudeMeters>100.40000152587890625</AltitudeMeters>
            <DistanceMeters>NAN</DistanceMeters>
          </Trackpoint>
          <Trackpoint>
            <Time>2022-07-11T08:38:58.000Z</Time>
            <Position>
              <LatitudeDegrees>43.26571441255509853363037109375</LatitudeDegrees>
              <LongitudeDegrees>-2.50651887618005275726318359375</LongitudeDegrees>
            </Position>
            <AltitudeMeters>100.59999847412109375</AltitudeMeters>
            <DistanceMeters>NAN</DistanceMeters>
          </Trackpoint>
          <Trackpoint>
            <Time>2022-07-11T08:39:00.000Z</Time>
            <Position>
              <LatitudeDegrees>43.26573318801820278167724609375</LatitudeDegrees>
              <LongitudeDegrees>-2.506553828716278076171875</LongitudeDegrees>
            </Position>
            <AltitudeMeters>100.8000030517578125</AltitudeMeters>
            <DistanceMeters>NAN</DistanceMeters>
          </Trackpoint>
          <Trackpoint>
            <Time>2022-07-11T08:39:01.000Z</Time>
            <Position>
              <LatitudeDegrees>43.265741653740406036376953125</LatitudeDegrees>
              <LongitudeDegrees>-2.50657754950225353240966796875</LongitudeDegrees>
            </Position>
            <AltitudeMeters>100.8000030517578125</AltitudeMeters>
            <DistanceMeters>NAN</DistanceMeters>
          </Trackpoint>
          <Trackpoint>
            <Time>2022-07-11T08:39:07.000Z</Time>
            <Position>
              <LatitudeDegrees>43.26580409891903400421142578125</LatitudeDegrees>
              <LongitudeDegrees>-2.5067615322768688201904296875</LongitudeDegrees>
            </Position>
            <AltitudeMeters>100.8000030517578125</AltitudeMeters>
            <DistanceMeters>NAN</DistanceMeters>
          </Trackpoint>
          <Trackpoint>
            <Time>2022-07-11T08:39:09.000Z</Time>
            <Position>
              <LatitudeDegrees>43.265797309577465057373046875</LatitudeDegrees>
              <LongitudeDegrees>-2.50684820115566253662109375</LongitudeDegrees>
            </Position>
            <AltitudeMeters>100</AltitudeMeters>
            <DistanceMeters>NAN</DistanceMeters>
          </Trackpoint>
          <Trackpoint>
            <Time>2022-07-11T08:39:10.000Z</Time>
            <Position>
              <LatitudeDegrees>43.2657763548195362091064453125</LatitudeDegrees>
              <LongitudeDegrees>-2.50687292777001857757568359375</LongitudeDegrees>
            </Position>
            <AltitudeMeters>99.8000030517578125</AltitudeMeters>
            <DistanceMeters>NAN</DistanceMeters>
          </Trackpoint>
          <Trackpoint>
            <Time>2022-07-11T08:39:11.000Z</Time>
            <Position>
              <LatitudeDegrees>43.2657502032816410064697265625</LatitudeDegrees>
              <LongitudeDegrees>-2.50687770545482635498046875</LongitudeDegrees>
            </Position>
            <AltitudeMeters>99.59999847412109375</AltitudeMeters>
            <DistanceMeters>NAN</DistanceMeters>
          </Trackpoint>
          <Trackpoint>
            <Time>2022-07-11T08:39:13.000Z</Time>
            <Position>
              <LatitudeDegrees>43.26569714583456516265869140625</LatitudeDegrees>
              <LongitudeDegrees>-2.5068624503910541534423828125</LongitudeDegrees>
            </Position>
            <AltitudeMeters>99.40000152587890625</AltitudeMeters>
            <DistanceMeters>NAN</DistanceMeters>
          </Trackpoint>
          <Trackpoint>
            <Time>2022-07-11T08:39:14.000Z</Time>
            <Position>
              <LatitudeDegrees>43.2656606845557689666748046875</LatitudeDegrees>
              <LongitudeDegrees>-2.5068644620478153228759765625</LongitudeDegrees>
            </Position>
            <AltitudeMeters>99.40000152587890625</AltitudeMeters>
            <DistanceMeters>NAN</DistanceMeters>
          </Trackpoint>
          <Trackpoint>
            <Time>2022-07-11T08:39:16.000Z</Time>
            <Position>
              <LatitudeDegrees>43.26560377143323421478271484375</LatitudeDegrees>
              <LongitudeDegrees>-2.50687502324581146240234375</LongitudeDegrees>
            </Position>
            <AltitudeMeters>99.40000152587890625</AltitudeMeters>
            <DistanceMeters>NAN</DistanceMeters>
          </Trackpoint>
          <Trackpoint>
            <Time>2022-07-11T08:39:17.000Z</Time>
            <Position>
              <LatitudeDegrees>43.26558583416044712066650390625</LatitudeDegrees>
              <LongitudeDegrees>-2.506879381835460662841796875</LongitudeDegrees>
            </Position>
            <AltitudeMeters>99.40000152587890625</AltitudeMeters>
            <DistanceMeters>NAN</DistanceMeters>
          </Trackpoint>
          <Trackpoint>
            <Time>2022-07-11T08:39:18.000Z</Time>
            <Position>
              <LatitudeDegrees>43.265578038990497589111328125</LatitudeDegrees>
              <LongitudeDegrees>-2.5068782083690166473388671875</LongitudeDegrees>
            </Position>
            <AltitudeMeters>99.40000152587890625</AltitudeMeters>
            <DistanceMeters>NAN</DistanceMeters>
          </Trackpoint>
          <Trackpoint>
            <Time>2022-07-11T08:39:20.000Z</Time>
            <Position>
              <LatitudeDegrees>43.2655745185911655426025390625</LatitudeDegrees>
              <LongitudeDegrees>-2.5068738497793674468994140625</LongitudeDegrees>
            </Position>
            <AltitudeMeters>99.1999969482421875</AltitudeMeters>
            <DistanceMeters>NAN</DistanceMeters>
          </Trackpoint>
          <Trackpoint>
            <Time>2022-07-11T08:39:31.000Z</Time>
            <Position>
              <LatitudeDegrees>43.26568239368498325347900390625</LatitudeDegrees>
              <LongitudeDegrees>-2.50687058083713054656982421875</LongitudeDegrees>
            </Position>
            <AltitudeMeters>98.59999847412109375</AltitudeMeters>
            <DistanceMeters>NAN</DistanceMeters>
          </Trackpoint>
          <Trackpoint>
            <Time>2022-07-11T08:39:32.000Z</Time>
            <Position>
              <LatitudeDegrees>43.265697397291660308837890625</LatitudeDegrees>
              <LongitudeDegrees>-2.50686286948621273040771484375</LongitudeDegrees>
            </Position>
            <AltitudeMeters>98.59999847412109375</AltitudeMeters>
            <DistanceMeters>NAN</DistanceMeters>
          </Trackpoint>
          <Trackpoint>
            <Time>2022-07-11T08:39:36.000Z</Time>
            <Position>
              <LatitudeDegrees>43.265710137784481048583984375</LatitudeDegrees>
              <LongitudeDegrees>-2.50678324140608310699462890625</LongitudeDegrees>
            </Position>
            <AltitudeMeters>99.40000152587890625</AltitudeMeters>
            <DistanceMeters>NAN</DistanceMeters>
          </Trackpoint>
          <Trackpoint>
            <Time>2022-07-11T08:39:40.000Z</Time>
            <Position>
              <LatitudeDegrees>43.26574944891035556793212890625</LatitudeDegrees>
              <LongitudeDegrees>-2.506794892251491546630859375</LongitudeDegrees>
            </Position>
            <AltitudeMeters>99.40000152587890625</AltitudeMeters>
            <DistanceMeters>NAN</DistanceMeters>
          </Trackpoint>
          <Trackpoint>
            <Time>2022-07-11T08:39:42.000Z</Time>
            <Position>
              <LatitudeDegrees>43.2657988183200359344482421875</LatitudeDegrees>
              <LongitudeDegrees>-2.50684074126183986663818359375</LongitudeDegrees>
            </Position>
            <AltitudeMeters>99.40000152587890625</AltitudeMeters>
            <DistanceMeters>NAN</DistanceMeters>
          </Trackpoint>
          <Trackpoint>
            <Time>2022-07-11T08:39:45.000Z</Time>
            <Position>
              <LatitudeDegrees>43.2658105529844760894775390625</LatitudeDegrees>
              <LongitudeDegrees>-2.50684107653796672821044921875</LongitudeDegrees>
            </Position>
            <AltitudeMeters>99.40000152587890625</AltitudeMeters>
            <DistanceMeters>NAN</DistanceMeters>
          </Trackpoint>
          <Trackpoint>
            <Time>2022-07-11T08:39:46.000Z</Time>
            <Position>
              <LatitudeDegrees>43.2658216170966625213623046875</LatitudeDegrees>
              <LongitudeDegrees>-2.50683621503412723541259765625</LongitudeDegrees>
            </Position>
            <AltitudeMeters>99.40000152587890625</AltitudeMeters>
            <DistanceMeters>NAN</DistanceMeters>
          </Trackpoint>
          <Trackpoint>
            <Time>2022-07-11T08:41:47.000Z</Time>
            <Position>
              <LatitudeDegrees>43.26585824601352214813232421875</LatitudeDegrees>
              <LongitudeDegrees>-2.5068473629653453826904296875</LongitudeDegrees>
            </Position>
            <AltitudeMeters>99.1999969482421875</AltitudeMeters>
            <DistanceMeters>NAN</DistanceMeters>
          </Trackpoint>
          <Trackpoint>
            <Time>2022-07-11T08:41:49.000Z</Time>
            <Position>
              <LatitudeDegrees>43.26579965651035308837890625</LatitudeDegrees>
              <LongitudeDegrees>-2.5067893601953983306884765625</LongitudeDegrees>
            </Position>
            <AltitudeMeters>99.40000152587890625</AltitudeMeters>
            <DistanceMeters>NAN</DistanceMeters>
          </Trackpoint>
          <Trackpoint>
            <Time>2022-07-11T08:41:51.000Z</Time>
            <Position>
              <LatitudeDegrees>43.265752382576465606689453125</LatitudeDegrees>
              <LongitudeDegrees>-2.50677217729389667510986328125</LongitudeDegrees>
            </Position>
            <AltitudeMeters>99.59999847412109375</AltitudeMeters>
            <DistanceMeters>NAN</DistanceMeters>
          </Trackpoint>
          <Trackpoint>
            <Time>2022-07-11T08:41:55.000Z</Time>
            <Position>
              <LatitudeDegrees>43.2656482793390750885009765625</LatitudeDegrees>
              <LongitudeDegrees>-2.50677309930324554443359375</LongitudeDegrees>
            </Position>
            <AltitudeMeters>100.1999969482421875</AltitudeMeters>
            <DistanceMeters>NAN</DistanceMeters>
          </Trackpoint>
          <Trackpoint>
            <Time>2022-07-11T08:41:58.000Z</Time>
            <Position>
              <LatitudeDegrees>43.26557644642889499664306640625</LatitudeDegrees>
              <LongitudeDegrees>-2.50681324861943721771240234375</LongitudeDegrees>
            </Position>
            <AltitudeMeters>100.1999969482421875</AltitudeMeters>
            <DistanceMeters>NAN</DistanceMeters>
          </Trackpoint>
          <Trackpoint>
            <Time>2022-07-11T08:42:00.000Z</Time>
            <Position>
              <LatitudeDegrees>43.26551534235477447509765625</LatitudeDegrees>
              <LongitudeDegrees>-2.5068302638828754425048828125</LongitudeDegrees>
            </Position>
            <AltitudeMeters>100</AltitudeMeters>
            <DistanceMeters>NAN</DistanceMeters>
          </Trackpoint>
          <Trackpoint>
            <Time>2022-07-11T08:42:04.000Z</Time>
            <Position>
              <LatitudeDegrees>43.2653824053704738616943359375</LatitudeDegrees>
              <LongitudeDegrees>-2.506896145641803741455078125</LongitudeDegrees>
            </Position>
            <AltitudeMeters>100</AltitudeMeters>
            <DistanceMeters>NAN</DistanceMeters>
          </Trackpoint>
          <Trackpoint>
            <Time>2022-07-11T08:42:11.000Z</Time>
            <Position>
              <LatitudeDegrees>43.2652221433818340301513671875</LatitudeDegrees>
              <LongitudeDegrees>-2.50712807290256023406982421875</LongitudeDegrees>
            </Position>
            <AltitudeMeters>100.1999969482421875</AltitudeMeters>
            <DistanceMeters>NAN</DistanceMeters>
          </Trackpoint>
          <Trackpoint>
            <Time>2022-07-11T08:42:15.000Z</Time>
            <Position>
              <LatitudeDegrees>43.26515458524227142333984375</LatitudeDegrees>
              <LongitudeDegrees>-2.5073088705539703369140625</LongitudeDegrees>
            </Position>
            <AltitudeMeters>100.40000152587890625</AltitudeMeters>
            <DistanceMeters>NAN</DistanceMeters>
          </Trackpoint>
          <Trackpoint>
            <Time>2022-07-11T08:42:17.000Z</Time>
            <Position>
              <LatitudeDegrees>43.26513555832207202911376953125</LatitudeDegrees>
              <LongitudeDegrees>-2.50741272233426570892333984375</LongitudeDegrees>
            </Position>
            <AltitudeMeters>100.59999847412109375</AltitudeMeters>
            <DistanceMeters>NAN</DistanceMeters>
          </Trackpoint>
          <Trackpoint>
            <Time>2022-07-11T08:42:18.000Z</Time>
            <Position>
              <LatitudeDegrees>43.265129439532756805419921875</LatitudeDegrees>
              <LongitudeDegrees>-2.50746452249586582183837890625</LongitudeDegrees>
            </Position>
            <AltitudeMeters>100.59999847412109375</AltitudeMeters>
            <DistanceMeters>NAN</DistanceMeters>
          </Trackpoint>
          <Trackpoint>
            <Time>2022-07-11T08:42:27.000Z</Time>
            <Position>
              <LatitudeDegrees>43.26509716920554637908935546875</LatitudeDegrees>
              <LongitudeDegrees>-2.507867775857448577880859375</LongitudeDegrees>
            </Position>
            <AltitudeMeters>100.8000030517578125</AltitudeMeters>
            <DistanceMeters>NAN</DistanceMeters>
          </Trackpoint>
          <Trackpoint>
            <Time>2022-07-11T08:42:38.000Z</Time>
            <Position>
              <LatitudeDegrees>43.26502776704728603363037109375</LatitudeDegrees>
              <LongitudeDegrees>-2.5084654055535793304443359375</LongitudeDegrees>
            </Position>
            <AltitudeMeters>101.40000152587890625</AltitudeMeters>
            <DistanceMeters>NAN</DistanceMeters>
          </Trackpoint>
          <Trackpoint>
            <Time>2022-07-11T08:42:41.000Z</Time>
            <Position>
              <LatitudeDegrees>43.26500647701323032379150390625</LatitudeDegrees>
              <LongitudeDegrees>-2.50860932283103466033935546875</LongitudeDegrees>
            </Position>
            <AltitudeMeters>101.59999847412109375</AltitudeMeters>
            <DistanceMeters>NAN</DistanceMeters>
          </Trackpoint>
          <Trackpoint>
            <Time>2022-07-11T08:42:48.000Z</Time>
            <Position>
              <LatitudeDegrees>43.264961130917072296142578125</LatitudeDegrees>
              <LongitudeDegrees>-2.50893822871148586273193359375</LongitudeDegrees>
            </Position>
            <AltitudeMeters>101.8000030517578125</AltitudeMeters>
            <DistanceMeters>NAN</DistanceMeters>
          </Trackpoint>
          <Trackpoint>
            <Time>2022-07-11T08:42:57.000Z</Time>
            <Position>
              <LatitudeDegrees>43.26490891166031360626220703125</LatitudeDegrees>
              <LongitudeDegrees>-2.50935070216655731201171875</LongitudeDegrees>
            </Position>
            <AltitudeMeters>102</AltitudeMeters>
            <DistanceMeters>NAN</DistanceMeters>
          </Trackpoint>
          <Trackpoint>
            <Time>2022-07-11T08:43:06.000Z</Time>
            <Position>
              <LatitudeDegrees>43.26486431993544101715087890625</LatitudeDegrees>
              <LongitudeDegrees>-2.50975043512880802154541015625</LongitudeDegrees>
            </Position>
            <AltitudeMeters>102.59999847412109375</AltitudeMeters>
            <DistanceMeters>NAN</DistanceMeters>
          </Trackpoint>
          <Trackpoint>
            <Time>2022-07-11T08:43:08.000Z</Time>
            <Position>
              <LatitudeDegrees>43.264851830899715423583984375</LatitudeDegrees>
              <LongitudeDegrees>-2.5098376907408237457275390625</LongitudeDegrees>
            </Position>
            <AltitudeMeters>102.8000030517578125</AltitudeMeters>
            <DistanceMeters>NAN</DistanceMeters>
          </Trackpoint>
          <Trackpoint>
            <Time>2022-07-11T08:43:13.000Z</Time>
            <Position>
              <LatitudeDegrees>43.26482039876282215118408203125</LatitudeDegrees>
              <LongitudeDegrees>-2.51007615588605403900146484375</LongitudeDegrees>
            </Position>
            <AltitudeMeters>103</AltitudeMeters>
            <DistanceMeters>NAN</DistanceMeters>
          </Trackpoint>
          <Trackpoint>
            <Time>2022-07-11T08:43:21.000Z</Time>
            <Position>
              <LatitudeDegrees>43.2647624798119068145751953125</LatitudeDegrees>
              <LongitudeDegrees>-2.51047329045832157135009765625</LongitudeDegrees>
            </Position>
            <AltitudeMeters>103.40000152587890625</AltitudeMeters>
            <DistanceMeters>NAN</DistanceMeters>
          </Trackpoint>
          <Trackpoint>
            <Time>2022-07-11T08:43:26.000Z</Time>
            <Position>
              <LatitudeDegrees>43.26473305933177471160888671875</LatitudeDegrees>
              <LongitudeDegrees>-2.51071351580321788787841796875</LongitudeDegrees>
            </Position>
            <AltitudeMeters>103.59999847412109375</AltitudeMeters>
            <DistanceMeters>NAN</DistanceMeters>
          </Trackpoint>
          <Trackpoint>
            <Time>2022-07-11T08:43:31.000Z</Time>
            <Position>
              <LatitudeDegrees>43.2647001184523105621337890625</LatitudeDegrees>
              <LongitudeDegrees>-2.510958351194858551025390625</LongitudeDegrees>
            </Position>
            <AltitudeMeters>103.59999847412109375</AltitudeMeters>
            <DistanceMeters>NAN</DistanceMeters>
          </Trackpoint>
          <Trackpoint>
            <Time>2022-07-11T08:43:42.000Z</Time>
            <Position>
              <LatitudeDegrees>43.26463046483695507049560546875</LatitudeDegrees>
              <LongitudeDegrees>-2.511499822139739990234375</LongitudeDegrees>
            </Position>
            <AltitudeMeters>103.8000030517578125</AltitudeMeters>
            <DistanceMeters>NAN</DistanceMeters>
          </Trackpoint>
          <Trackpoint>
            <Time>2022-07-11T08:43:46.000Z</Time>
            <Position>
              <LatitudeDegrees>43.264600373804569244384765625</LatitudeDegrees>
              <LongitudeDegrees>-2.51168581657111644744873046875</LongitudeDegrees>
            </Position>
            <AltitudeMeters>103.8000030517578125</AltitudeMeters>
            <DistanceMeters>NAN</DistanceMeters>
          </Trackpoint>
          <Trackpoint>
            <Time>2022-07-11T08:43:51.000Z</Time>
            <Position>
              <LatitudeDegrees>43.264571540057659149169921875</LatitudeDegrees>
              <LongitudeDegrees>-2.51190056093037128448486328125</LongitudeDegrees>
            </Position>
            <AltitudeMeters>104</AltitudeMeters>
            <DistanceMeters>NAN</DistanceMeters>
          </Trackpoint>
          <Trackpoint>
            <Time>2022-07-11T08:43:57.000Z</Time>
            <Position>
              <LatitudeDegrees>43.2645479030907154083251953125</LatitudeDegrees>
              <LongitudeDegrees>-2.51216593198478221893310546875</LongitudeDegrees>
            </Position>
            <AltitudeMeters>104.1999969482421875</AltitudeMeters>
            <DistanceMeters>NAN</DistanceMeters>
          </Trackpoint>
          <Trackpoint>
            <Time>2022-07-11T08:44:04.000Z</Time>
            <Position>
              <LatitudeDegrees>43.26450993306934833526611328125</LatitudeDegrees>
              <LongitudeDegrees>-2.51244169659912586212158203125</LongitudeDegrees>
            </Position>
            <AltitudeMeters>104.8000030517578125</AltitudeMeters>
            <DistanceMeters>NAN</DistanceMeters>
          </Trackpoint>
          <Trackpoint>
            <Time>2022-07-11T08:44:06.000Z</Time>
            <Position>
              <LatitudeDegrees>43.2645059935748577117919921875</LatitudeDegrees>
              <LongitudeDegrees>-2.512513361871242523193359375</LongitudeDegrees>
            </Position>
            <AltitudeMeters>105</AltitudeMeters>
            <DistanceMeters>NAN</DistanceMeters>
          </Trackpoint>
          <Trackpoint>
            <Time>2022-07-11T08:44:15.000Z</Time>
            <Position>
              <LatitudeDegrees>43.26446928083896636962890625</LatitudeDegrees>
              <LongitudeDegrees>-2.51286380924284458160400390625</LongitudeDegrees>
            </Position>
            <AltitudeMeters>105.8000030517578125</AltitudeMeters>
            <DistanceMeters>NAN</DistanceMeters>
          </Trackpoint>
          <Trackpoint>
            <Time>2022-07-11T08:44:16.000Z</Time>
            <Position>
              <LatitudeDegrees>43.26446919701993465423583984375</LatitudeDegrees>
              <LongitudeDegrees>-2.51289817504584789276123046875</LongitudeDegrees>
            </Position>
            <AltitudeMeters>105.8000030517578125</AltitudeMeters>
            <DistanceMeters>NAN</DistanceMeters>
          </Trackpoint>
          <Trackpoint>
            <Time>2022-07-11T08:44:26.000Z</Time>
            <Position>
              <LatitudeDegrees>43.26443935744464397430419921875</LatitudeDegrees>
              <LongitudeDegrees>-2.51328256912529468536376953125</LongitudeDegrees>
            </Position>
            <AltitudeMeters>106.59999847412109375</AltitudeMeters>
            <DistanceMeters>NAN</DistanceMeters>
          </Trackpoint>
          <Trackpoint>
            <Time>2022-07-11T08:44:27.000Z</Time>
            <Position>
              <LatitudeDegrees>43.26443977653980255126953125</LatitudeDegrees>
              <LongitudeDegrees>-2.51329715363681316375732421875</LongitudeDegrees>
            </Position>
            <AltitudeMeters>106.59999847412109375</AltitudeMeters>
            <DistanceMeters>NAN</DistanceMeters>
          </Trackpoint>
          <Trackpoint>
            <Time>2022-07-11T08:44:29.000Z</Time>
            <Position>
              <LatitudeDegrees>43.26444170437753200531005859375</LatitudeDegrees>
              <LongitudeDegrees>-2.513300590217113494873046875</LongitudeDegrees>
            </Position>
            <AltitudeMeters>106.59999847412109375</AltitudeMeters>
            <DistanceMeters>NAN</DistanceMeters>
          </Trackpoint>
          <Trackpoint>
            <Time>2022-07-11T08:47:31.000Z</Time>
            <Position>
              <LatitudeDegrees>43.2644396089017391204833984375</LatitudeDegrees>
              <LongitudeDegrees>-2.51336605288088321685791015625</LongitudeDegrees>
            </Position>
            <AltitudeMeters>105.8000030517578125</AltitudeMeters>
            <DistanceMeters>NAN</DistanceMeters>
          </Trackpoint>
          <Trackpoint>
            <Time>2022-07-11T08:47:32.000Z</Time>
            <Position>
              <LatitudeDegrees>43.26443516649305820465087890625</LatitudeDegrees>
              <LongitudeDegrees>-2.51340444199740886688232421875</LongitudeDegrees>
            </Position>
            <AltitudeMeters>105.8000030517578125</AltitudeMeters>
            <DistanceMeters>NAN</DistanceMeters>
          </Trackpoint>
          <Trackpoint>
            <Time>2022-07-11T08:47:33.000Z</Time>
            <Position>
              <LatitudeDegrees>43.264433406293392181396484375</LatitudeDegrees>
              <LongitudeDegrees>-2.51344241201877593994140625</LongitudeDegrees>
            </Position>
            <AltitudeMeters>105.8000030517578125</AltitudeMeters>
            <DistanceMeters>NAN</DistanceMeters>
          </Trackpoint>
          <Trackpoint>
            <Time>2022-07-11T08:47:36.000Z</Time>
            <Position>
              <LatitudeDegrees>43.26442368328571319580078125</LatitudeDegrees>
              <LongitudeDegrees>-2.5135679729282855987548828125</LongitudeDegrees>
            </Position>
            <AltitudeMeters>107</AltitudeMeters>
            <DistanceMeters>NAN</DistanceMeters>
          </Trackpoint>
          <Trackpoint>
            <Time>2022-07-11T08:47:40.000Z</Time>
            <Position>
              <LatitudeDegrees>43.26441831886768341064453125</LatitudeDegrees>
              <LongitudeDegrees>-2.51375061459839344024658203125</LongitudeDegrees>
            </Position>
            <AltitudeMeters>107.1999969482421875</AltitudeMeters>
            <DistanceMeters>NAN</DistanceMeters>
          </Trackpoint>
          <Trackpoint>
            <Time>2022-07-11T08:47:42.000Z</Time>
            <Position>
              <LatitudeDegrees>43.2644178159534931182861328125</LatitudeDegrees>
              <LongitudeDegrees>-2.513843066990375518798828125</LongitudeDegrees>
            </Position>
            <AltitudeMeters>107.1999969482421875</AltitudeMeters>
            <DistanceMeters>NAN</DistanceMeters>
          </Trackpoint>
          <Trackpoint>
            <Time>2022-07-11T08:47:48.000Z</Time>
            <Position>
              <LatitudeDegrees>43.26441387645900249481201171875</LatitudeDegrees>
              <LongitudeDegrees>-2.5140953622758388519287109375</LongitudeDegrees>
            </Position>
            <AltitudeMeters>108</AltitudeMeters>
            <DistanceMeters>NAN</DistanceMeters>
          </Trackpoint>
          <Trackpoint>
            <Time>2022-07-11T08:47:50.000Z</Time>
            <Position>
              <LatitudeDegrees>43.26441873796284198760986328125</LatitudeDegrees>
              <LongitudeDegrees>-2.51417423598468303680419921875</LongitudeDegrees>
            </Position>
            <AltitudeMeters>108.40000152587890625</AltitudeMeters>
            <DistanceMeters>NAN</DistanceMeters>
          </Trackpoint>
          <Trackpoint>
            <Time>2022-07-11T08:47:53.000Z</Time>
            <Position>
              <LatitudeDegrees>43.26443969272077083587646484375</LatitudeDegrees>
              <LongitudeDegrees>-2.5142797641456127166748046875</LongitudeDegrees>
            </Position>
            <AltitudeMeters>108.59999847412109375</AltitudeMeters>
            <DistanceMeters>NAN</DistanceMeters>
          </Trackpoint>
          <Trackpoint>
            <Time>2022-07-11T08:47:57.000Z</Time>
            <Position>
              <LatitudeDegrees>43.26448797248303890228271484375</LatitudeDegrees>
              <LongitudeDegrees>-2.51440021209418773651123046875</LongitudeDegrees>
            </Position>
            <AltitudeMeters>109</AltitudeMeters>
            <DistanceMeters>NAN</DistanceMeters>
          </Trackpoint>
          <Trackpoint>
            <Time>2022-07-11T08:48:03.000Z</Time>
            <Position>
              <LatitudeDegrees>43.2645821012556552886962890625</LatitudeDegrees>
              <LongitudeDegrees>-2.514600120484828948974609375</LongitudeDegrees>
            </Position>
            <AltitudeMeters>109</AltitudeMeters>
            <DistanceMeters>NAN</DistanceMeters>
          </Trackpoint>
          <Trackpoint>
            <Time>2022-07-11T08:48:06.000Z</Time>
            <Position>
              <LatitudeDegrees>43.2646347396075725555419921875</LatitudeDegrees>
              <LongitudeDegrees>-2.51474470831453800201416015625</LongitudeDegrees>
            </Position>
            <AltitudeMeters>108.8000030517578125</AltitudeMeters>
            <DistanceMeters>NAN</DistanceMeters>
          </Trackpoint>
          <Trackpoint>
            <Time>2022-07-11T08:48:07.000Z</Time>
            <Position>
              <LatitudeDegrees>43.264649994671344757080078125</LatitudeDegrees>
              <LongitudeDegrees>-2.51480388455092906951904296875</LongitudeDegrees>
            </Position>
            <AltitudeMeters>108.59999847412109375</AltitudeMeters>
            <DistanceMeters>NAN</DistanceMeters>
          </Trackpoint>
          <Trackpoint>
            <Time>2022-07-11T08:48:08.000Z</Time>
            <Position>
              <LatitudeDegrees>43.26466751284897327423095703125</LatitudeDegrees>
              <LongitudeDegrees>-2.51486540772020816802978515625</LongitudeDegrees>
            </Position>
            <AltitudeMeters>108.59999847412109375</AltitudeMeters>
            <DistanceMeters>NAN</DistanceMeters>
          </Trackpoint>
          <Trackpoint>
            <Time>2022-07-11T08:48:09.000Z</Time>
            <Position>
              <LatitudeDegrees>43.26468561775982379913330078125</LatitudeDegrees>
              <LongitudeDegrees>-2.51492860727012157440185546875</LongitudeDegrees>
            </Position>
            <AltitudeMeters>108.40000152587890625</AltitudeMeters>
            <DistanceMeters>NAN</DistanceMeters>
          </Trackpoint>
          <Trackpoint>
            <Time>2022-07-11T08:48:11.000Z</Time>
            <Position>
              <LatitudeDegrees>43.26472677290439605712890625</LatitudeDegrees>
              <LongitudeDegrees>-2.515066824853420257568359375</LongitudeDegrees>
            </Position>
            <AltitudeMeters>108</AltitudeMeters>
            <DistanceMeters>NAN</DistanceMeters>
          </Trackpoint>
          <Trackpoint>
            <Time>2022-07-11T08:48:12.000Z</Time>
            <Position>
              <LatitudeDegrees>43.26475569047033786773681640625</LatitudeDegrees>
              <LongitudeDegrees>-2.515135221183300018310546875</LongitudeDegrees>
            </Position>
            <AltitudeMeters>107.8000030517578125</AltitudeMeters>
            <DistanceMeters>NAN</DistanceMeters>
          </Trackpoint>
          <Trackpoint>
            <Time>2022-07-11T08:48:13.000Z</Time>
            <Position>
              <LatitudeDegrees>43.2647966779768466949462890625</LatitudeDegrees>
              <LongitudeDegrees>-2.51520269550383090972900390625</LongitudeDegrees>
            </Position>
            <AltitudeMeters>107.40000152587890625</AltitudeMeters>
            <DistanceMeters>NAN</DistanceMeters>
          </Trackpoint>
          <Trackpoint>
            <Time>2022-07-11T08:48:15.000Z</Time>
            <Position>
              <LatitudeDegrees>43.264880664646625518798828125</LatitudeDegrees>
              <LongitudeDegrees>-2.51531132496893405914306640625</LongitudeDegrees>
            </Position>
            <AltitudeMeters>107</AltitudeMeters>
            <DistanceMeters>NAN</DistanceMeters>
          </Trackpoint>
          <Trackpoint>
            <Time>2022-07-11T08:48:16.000Z</Time>
            <Position>
              <LatitudeDegrees>43.264880664646625518798828125</LatitudeDegrees>
              <LongitudeDegrees>-2.51531132496893405914306640625</LongitudeDegrees>
            </Position>
            <AltitudeMeters>106.59999847412109375</AltitudeMeters>
            <DistanceMeters>NAN</DistanceMeters>
          </Trackpoint>
          <Trackpoint>
            <Time>2022-07-11T08:48:17.000Z</Time>
            <Position>
              <LatitudeDegrees>43.26494478620588779449462890625</LatitudeDegrees>
              <LongitudeDegrees>-2.51543403603136539459228515625</LongitudeDegrees>
            </Position>
            <AltitudeMeters>106.40000152587890625</AltitudeMeters>
            <DistanceMeters>NAN</DistanceMeters>
          </Trackpoint>
          <Trackpoint>
            <Time>2022-07-11T08:48:18.000Z</Time>
            <Position>
              <LatitudeDegrees>43.2649730332195758819580078125</LatitudeDegrees>
              <LongitudeDegrees>-2.5155008397996425628662109375</LongitudeDegrees>
            </Position>
            <AltitudeMeters>106.1999969482421875</AltitudeMeters>
            <DistanceMeters>NAN</DistanceMeters>
          </Trackpoint>
          <Trackpoint>
            <Time>2022-07-11T08:48:21.000Z</Time>
            <Position>
              <LatitudeDegrees>43.26506028883159160614013671875</LatitudeDegrees>
              <LongitudeDegrees>-2.515675686299800872802734375</LongitudeDegrees>
            </Position>
            <AltitudeMeters>105.59999847412109375</AltitudeMeters>
            <DistanceMeters>NAN</DistanceMeters>
          </Trackpoint>
          <Trackpoint>
            <Time>2022-07-11T08:48:22.000Z</Time>
            <Position>
              <LatitudeDegrees>43.26509423553943634033203125</LatitudeDegrees>
              <LongitudeDegrees>-2.51573293469846248626708984375</LongitudeDegrees>
            </Position>
            <AltitudeMeters>105.40000152587890625</AltitudeMeters>
            <DistanceMeters>NAN</DistanceMeters>
          </Trackpoint>
          <Trackpoint>
            <Time>2022-07-11T08:48:23.000Z</Time>
            <Position>
              <LatitudeDegrees>43.2651262544095516204833984375</LatitudeDegrees>
              <LongitudeDegrees>-2.51579470932483673095703125</LongitudeDegrees>
            </Position>
            <AltitudeMeters>105.1999969482421875</AltitudeMeters>
            <DistanceMeters>NAN</DistanceMeters>
          </Trackpoint>
          <Trackpoint>
            <Time>2022-07-11T08:48:26.000Z</Time>
            <Position>
              <LatitudeDegrees>43.26522658579051494598388671875</LatitudeDegrees>
              <LongitudeDegrees>-2.51598648726940155029296875</LongitudeDegrees>
            </Position>
            <AltitudeMeters>105</AltitudeMeters>
            <DistanceMeters>NAN</DistanceMeters>
          </Trackpoint>
          <Trackpoint>
            <Time>2022-07-11T08:48:30.000Z</Time>
            <Position>
              <LatitudeDegrees>43.26534661464393138885498046875</LatitudeDegrees>
              <LongitudeDegrees>-2.51618170179426670074462890625</LongitudeDegrees>
            </Position>
            <AltitudeMeters>104.8000030517578125</AltitudeMeters>
            <DistanceMeters>NAN</DistanceMeters>
          </Trackpoint>
          <Trackpoint>
            <Time>2022-07-11T08:48:34.000Z</Time>
            <Position>
              <LatitudeDegrees>43.26541216112673282623291015625</LatitudeDegrees>
              <LongitudeDegrees>-2.5162996351718902587890625</LongitudeDegrees>
            </Position>
            <AltitudeMeters>105.1999969482421875</AltitudeMeters>
            <DistanceMeters>NAN</DistanceMeters>
          </Trackpoint>
          <Trackpoint>
            <Time>2022-07-11T08:48:39.000Z</Time>
            <Position>
              <LatitudeDegrees>43.26547569595277309417724609375</LatitudeDegrees>
              <LongitudeDegrees>-2.5163752399384975433349609375</LongitudeDegrees>
            </Position>
            <AltitudeMeters>106</AltitudeMeters>
            <DistanceMeters>NAN</DistanceMeters>
          </Trackpoint>
          <Trackpoint>
            <Time>2022-07-11T08:48:44.000Z</Time>
            <Position>
              <LatitudeDegrees>43.2655181922018527984619140625</LatitudeDegrees>
              <LongitudeDegrees>-2.516474314033985137939453125</LongitudeDegrees>
            </Position>
            <AltitudeMeters>106.40000152587890625</AltitudeMeters>
            <DistanceMeters>NAN</DistanceMeters>
          </Trackpoint>
          <Trackpoint>
            <Time>2022-07-11T08:48:50.000Z</Time>
            <Position>
              <LatitudeDegrees>43.26554493047297000885009765625</LatitudeDegrees>
              <LongitudeDegrees>-2.51660498790442943572998046875</LongitudeDegrees>
            </Position>
            <AltitudeMeters>106.59999847412109375</AltitudeMeters>
            <DistanceMeters>NAN</DistanceMeters>
          </Trackpoint>
          <Trackpoint>
            <Time>2022-07-11T08:48:52.000Z</Time>
            <Position>
              <LatitudeDegrees>43.2655641250312328338623046875</LatitudeDegrees>
              <LongitudeDegrees>-2.51667849719524383544921875</LongitudeDegrees>
            </Position>
            <AltitudeMeters>106.59999847412109375</AltitudeMeters>
            <DistanceMeters>NAN</DistanceMeters>
          </Trackpoint>
          <Trackpoint>
            <Time>2022-07-11T08:48:59.000Z</Time>
            <Position>
              <LatitudeDegrees>43.265626318752765655517578125</LatitudeDegrees>
              <LongitudeDegrees>-2.5169438682496547698974609375</LongitudeDegrees>
            </Position>
            <AltitudeMeters>106.8000030517578125</AltitudeMeters>
            <DistanceMeters>NAN</DistanceMeters>
          </Trackpoint>
          <Trackpoint>
            <Time>2022-07-11T08:49:00.000Z</Time>
            <Position>
              <LatitudeDegrees>43.26563335955142974853515625</LatitudeDegrees>
              <LongitudeDegrees>-2.51697898842394351959228515625</LongitudeDegrees>
            </Position>
            <AltitudeMeters>107</AltitudeMeters>
            <DistanceMeters>NAN</DistanceMeters>
          </Trackpoint>
          <Trackpoint>
            <Time>2022-07-11T08:49:02.000Z</Time>
            <Position>
              <LatitudeDegrees>43.26564400456845760345458984375</LatitudeDegrees>
              <LongitudeDegrees>-2.51705409027636051177978515625</LongitudeDegrees>
            </Position>
            <AltitudeMeters>107</AltitudeMeters>
            <DistanceMeters>NAN</DistanceMeters>
          </Trackpoint>
          <Trackpoint>
            <Time>2022-07-11T08:49:03.000Z</Time>
            <Position>
              <LatitudeDegrees>43.26565758325159549713134765625</LatitudeDegrees>
              <LongitudeDegrees>-2.51708812080323696136474609375</LongitudeDegrees>
            </Position>
            <AltitudeMeters>107</AltitudeMeters>
            <DistanceMeters>NAN</DistanceMeters>
          </Trackpoint>
          <Trackpoint>
            <Time>2022-07-11T08:49:08.000Z</Time>
            <Position>
              <LatitudeDegrees>43.26571592129766941070556640625</LatitudeDegrees>
              <LongitudeDegrees>-2.51730085350573062896728515625</LongitudeDegrees>
            </Position>
            <AltitudeMeters>107.59999847412109375</AltitudeMeters>
            <DistanceMeters>NAN</DistanceMeters>
          </Trackpoint>
          <Trackpoint>
            <Time>2022-07-11T08:49:09.000Z</Time>
            <Position>
              <LatitudeDegrees>43.2657377980649471282958984375</LatitudeDegrees>
              <LongitudeDegrees>-2.517352737486362457275390625</LongitudeDegrees>
            </Position>
            <AltitudeMeters>107.59999847412109375</AltitudeMeters>
            <DistanceMeters>NAN</DistanceMeters>
          </Trackpoint>
          <Trackpoint>
            <Time>2022-07-11T08:49:15.000Z</Time>
            <Position>
              <LatitudeDegrees>43.26577442698180675506591796875</LatitudeDegrees>
              <LongitudeDegrees>-2.51760729588568210601806640625</LongitudeDegrees>
            </Position>
            <AltitudeMeters>108</AltitudeMeters>
            <DistanceMeters>NAN</DistanceMeters>
          </Trackpoint>
          <Trackpoint>
            <Time>2022-07-11T08:49:20.000Z</Time>
            <Position>
              <LatitudeDegrees>43.26577526517212390899658203125</LatitudeDegrees>
              <LongitudeDegrees>-2.51781667582690715789794921875</LongitudeDegrees>
            </Position>
            <AltitudeMeters>108.1999969482421875</AltitudeMeters>
            <DistanceMeters>NAN</DistanceMeters>
          </Trackpoint>
          <Trackpoint>
            <Time>2022-07-11T08:49:26.000Z</Time>
            <Position>
              <LatitudeDegrees>43.26580703258514404296875</LatitudeDegrees>
              <LongitudeDegrees>-2.51802655868232250213623046875</LongitudeDegrees>
            </Position>
            <AltitudeMeters>108.59999847412109375</AltitudeMeters>
            <DistanceMeters>NAN</DistanceMeters>
          </Trackpoint>
          <Trackpoint>
            <Time>2022-07-11T08:49:31.000Z</Time>
            <Position>
              <LatitudeDegrees>43.26581113971769809722900390625</LatitudeDegrees>
              <LongitudeDegrees>-2.5182055123150348663330078125</LongitudeDegrees>
            </Position>
            <AltitudeMeters>108.8000030517578125</AltitudeMeters>
            <DistanceMeters>NAN</DistanceMeters>
          </Trackpoint>
          <Trackpoint>
            <Time>2022-07-11T08:49:33.000Z</Time>
            <Position>
              <LatitudeDegrees>43.26581348665058612823486328125</LatitudeDegrees>
              <LongitudeDegrees>-2.518282793462276458740234375</LongitudeDegrees>
            </Position>
            <AltitudeMeters>108.8000030517578125</AltitudeMeters>
            <DistanceMeters>NAN</DistanceMeters>
          </Trackpoint>
          <Trackpoint>
            <Time>2022-07-11T08:49:40.000Z</Time>
            <Position>
              <LatitudeDegrees>43.2658051885664463043212890625</LatitudeDegrees>
              <LongitudeDegrees>-2.51853860914707183837890625</LongitudeDegrees>
            </Position>
            <AltitudeMeters>109.1999969482421875</AltitudeMeters>
            <DistanceMeters>NAN</DistanceMeters>
          </Trackpoint>
          <Trackpoint>
            <Time>2022-07-11T08:49:46.000Z</Time>
            <Position>
              <LatitudeDegrees>43.26577979139983654022216796875</LatitudeDegrees>
              <LongitudeDegrees>-2.51877824775874614715576171875</LongitudeDegrees>
            </Position>
            <AltitudeMeters>109.59999847412109375</AltitudeMeters>
            <DistanceMeters>NAN</DistanceMeters>
          </Trackpoint>
          <Trackpoint>
            <Time>2022-07-11T08:49:48.000Z</Time>
            <Position>
              <LatitudeDegrees>43.2657708227634429931640625</LatitudeDegrees>
              <LongitudeDegrees>-2.51885645091533660888671875</LongitudeDegrees>
            </Position>
            <AltitudeMeters>109.59999847412109375</AltitudeMeters>
            <DistanceMeters>NAN</DistanceMeters>
          </Trackpoint>
          <Trackpoint>
            <Time>2022-07-11T08:49:55.000Z</Time>
            <Position>
              <LatitudeDegrees>43.26574710197746753692626953125</LatitudeDegrees>
              <LongitudeDegrees>-2.51913816668093204498291015625</LongitudeDegrees>
            </Position>
            <AltitudeMeters>110</AltitudeMeters>
            <DistanceMeters>NAN</DistanceMeters>
          </Trackpoint>
          <Trackpoint>
            <Time>2022-07-11T08:49:57.000Z</Time>
            <Position>
              <LatitudeDegrees>43.2657341100275516510009765625</LatitudeDegrees>
              <LongitudeDegrees>-2.51920857466757297515869140625</LongitudeDegrees>
            </Position>
            <AltitudeMeters>110</AltitudeMeters>
            <DistanceMeters>NAN</DistanceMeters>
          </Trackpoint>
          <Trackpoint>
            <Time>2022-07-11T08:50:05.000Z</Time>
            <Position>
              <LatitudeDegrees>43.26567971147596836090087890625</LatitudeDegrees>
              <LongitudeDegrees>-2.519503198564052581787109375</LongitudeDegrees>
            </Position>
            <AltitudeMeters>110.40000152587890625</AltitudeMeters>
            <DistanceMeters>NAN</DistanceMeters>
          </Trackpoint>
          <Trackpoint>
            <Time>2022-07-11T08:50:09.000Z</Time>
            <Position>
              <LatitudeDegrees>43.265634365379810333251953125</LatitudeDegrees>
              <LongitudeDegrees>-2.51965365372598171234130859375</LongitudeDegrees>
            </Position>
            <AltitudeMeters>110.59999847412109375</AltitudeMeters>
            <DistanceMeters>NAN</DistanceMeters>
          </Trackpoint>
          <Trackpoint>
            <Time>2022-07-11T08:50:10.000Z</Time>
            <Position>
              <LatitudeDegrees>43.265622965991497039794921875</LatitudeDegrees>
              <LongitudeDegrees>-2.51968936063349246978759765625</LongitudeDegrees>
            </Position>
            <AltitudeMeters>110.59999847412109375</AltitudeMeters>
            <DistanceMeters>NAN</DistanceMeters>
          </Trackpoint>
          <Trackpoint>
            <Time>2022-07-11T08:50:12.000Z</Time>
            <Position>
              <LatitudeDegrees>43.265596814453601837158203125</LatitudeDegrees>
              <LongitudeDegrees>-2.5197497941553592681884765625</LongitudeDegrees>
            </Position>
            <AltitudeMeters>110.8000030517578125</AltitudeMeters>
            <DistanceMeters>NAN</DistanceMeters>
          </Trackpoint>
          <Trackpoint>
            <Time>2022-07-11T08:50:18.000Z</Time>
            <Position>
              <LatitudeDegrees>43.2655014283955097198486328125</LatitudeDegrees>
              <LongitudeDegrees>-2.51991483382880687713623046875</LongitudeDegrees>
            </Position>
            <AltitudeMeters>111</AltitudeMeters>
            <DistanceMeters>NAN</DistanceMeters>
          </Trackpoint>
          <Trackpoint>
            <Time>2022-07-11T08:50:24.000Z</Time>
            <Position>
              <LatitudeDegrees>43.2654001750051975250244140625</LatitudeDegrees>
              <LongitudeDegrees>-2.5200783647596836090087890625</LongitudeDegrees>
            </Position>
            <AltitudeMeters>111.1999969482421875</AltitudeMeters>
            <DistanceMeters>NAN</DistanceMeters>
          </Trackpoint>
          <Trackpoint>
            <Time>2022-07-11T08:50:26.000Z</Time>
            <Position>
              <LatitudeDegrees>43.26536220498383045196533203125</LatitudeDegrees>
              <LongitudeDegrees>-2.52013720571994781494140625</LongitudeDegrees>
            </Position>
            <AltitudeMeters>111.40000152587890625</AltitudeMeters>
            <DistanceMeters>NAN</DistanceMeters>
          </Trackpoint>
          <Trackpoint>
            <Time>2022-07-11T08:50:30.000Z</Time>
            <Position>
              <LatitudeDegrees>43.265274278819561004638671875</LatitudeDegrees>
              <LongitudeDegrees>-2.52023820765316486358642578125</LongitudeDegrees>
            </Position>
            <AltitudeMeters>111.8000030517578125</AltitudeMeters>
            <DistanceMeters>NAN</DistanceMeters>
          </Trackpoint>
          <Trackpoint>
            <Time>2022-07-11T08:50:32.000Z</Time>
            <Position>
              <LatitudeDegrees>43.2652311958372592926025390625</LatitudeDegrees>
              <LongitudeDegrees>-2.5202842243015766143798828125</LongitudeDegrees>
            </Position>
            <AltitudeMeters>111.8000030517578125</AltitudeMeters>
            <DistanceMeters>NAN</DistanceMeters>
          </Trackpoint>
          <Trackpoint>
            <Time>2022-07-11T08:50:39.000Z</Time>
            <Position>
              <LatitudeDegrees>43.26510421000421047210693359375</LatitudeDegrees>
              <LongitudeDegrees>-2.52037860453128814697265625</LongitudeDegrees>
            </Position>
            <AltitudeMeters>112.1999969482421875</AltitudeMeters>
            <DistanceMeters>NAN</DistanceMeters>
          </Trackpoint>
          <Trackpoint>
            <Time>2022-07-11T08:50:45.000Z</Time>
            <Position>
              <LatitudeDegrees>43.264947049319744110107421875</LatitudeDegrees>
              <LongitudeDegrees>-2.52048295922577381134033203125</LongitudeDegrees>
            </Position>
            <AltitudeMeters>112.59999847412109375</AltitudeMeters>
            <DistanceMeters>NAN</DistanceMeters>
          </Trackpoint>
          <Trackpoint>
            <Time>2022-07-11T08:50:48.000Z</Time>
            <Position>
              <LatitudeDegrees>43.26488611288368701934814453125</LatitudeDegrees>
              <LongitudeDegrees>-2.5205346755683422088623046875</LongitudeDegrees>
            </Position>
            <AltitudeMeters>112.8000030517578125</AltitudeMeters>
            <DistanceMeters>NAN</DistanceMeters>
          </Trackpoint>
          <Trackpoint>
            <Time>2022-07-11T08:50:52.000Z</Time>
            <Position>
              <LatitudeDegrees>43.2647859491407871246337890625</LatitudeDegrees>
              <LongitudeDegrees>-2.52063886262476444244384765625</LongitudeDegrees>
            </Position>
            <AltitudeMeters>112.8000030517578125</AltitudeMeters>
            <DistanceMeters>NAN</DistanceMeters>
          </Trackpoint>
          <Trackpoint>
            <Time>2022-07-11T08:50:53.000Z</Time>
            <Position>
              <LatitudeDegrees>43.26477061025798320770263671875</LatitudeDegrees>
              <LongitudeDegrees>-2.52065227366983890533447265625</LongitudeDegrees>
            </Position>
            <AltitudeMeters>113</AltitudeMeters>
            <DistanceMeters>NAN</DistanceMeters>
          </Trackpoint>
          <Trackpoint>
            <Time>2022-07-11T08:50:56.000Z</Time>
            <Position>
              <LatitudeDegrees>43.26473884284496307373046875</LatitudeDegrees>
              <LongitudeDegrees>-2.5206718035042285919189453125</LongitudeDegrees>
            </Position>
            <AltitudeMeters>113</AltitudeMeters>
            <DistanceMeters>NAN</DistanceMeters>
          </Trackpoint>
          <Trackpoint>
            <Time>2022-07-11T08:50:58.000Z</Time>
            <Position>
              <LatitudeDegrees>43.264727108180522918701171875</LatitudeDegrees>
              <LongitudeDegrees>-2.520692087709903717041015625</LongitudeDegrees>
            </Position>
            <AltitudeMeters>113</AltitudeMeters>
            <DistanceMeters>NAN</DistanceMeters>
          </Trackpoint>
          <Trackpoint>
            <Time>2022-07-11T08:51:03.000Z</Time>
            <Position>
              <LatitudeDegrees>43.2646950893104076385498046875</LatitudeDegrees>
              <LongitudeDegrees>-2.5206081010401248931884765625</LongitudeDegrees>
            </Position>
            <AltitudeMeters>113.1999969482421875</AltitudeMeters>
            <DistanceMeters>NAN</DistanceMeters>
          </Trackpoint>
          <Trackpoint>
            <Time>2022-07-11T08:51:04.000Z</Time>
            <Position>
              <LatitudeDegrees>43.26468712650239467620849609375</LatitudeDegrees>
              <LongitudeDegrees>-2.52059410326182842254638671875</LongitudeDegrees>
            </Position>
            <AltitudeMeters>113.1999969482421875</AltitudeMeters>
            <DistanceMeters>NAN</DistanceMeters>
          </Trackpoint>
          <Trackpoint>
            <Time>2022-07-11T08:51:06.000Z</Time>
            <Position>
              <LatitudeDegrees>43.26467036269605159759521484375</LatitudeDegrees>
              <LongitudeDegrees>-2.520597539842128753662109375</LongitudeDegrees>
            </Position>
            <AltitudeMeters>113.1999969482421875</AltitudeMeters>
            <DistanceMeters>NAN</DistanceMeters>
          </Trackpoint>
          <Trackpoint>
            <Time>2022-07-11T08:51:07.000Z</Time>
            <Position>
              <LatitudeDegrees>43.26467036269605159759521484375</LatitudeDegrees>
              <LongitudeDegrees>-2.520597539842128753662109375</LongitudeDegrees>
            </Position>
            <AltitudeMeters>113.1999969482421875</AltitudeMeters>
            <DistanceMeters>NAN</DistanceMeters>
          </Trackpoint>
          <Trackpoint>
            <Time>2022-07-11T08:53:00.000Z</Time>
            <Position>
              <LatitudeDegrees>43.26470087282359600067138671875</LatitudeDegrees>
              <LongitudeDegrees>-2.5206770002841949462890625</LongitudeDegrees>
            </Position>
            <AltitudeMeters>112</AltitudeMeters>
            <DistanceMeters>NAN</DistanceMeters>
          </Trackpoint>
          <Trackpoint>
            <Time>2022-07-11T08:53:01.000Z</Time>
            <Position>
              <LatitudeDegrees>43.26468913815915584564208984375</LatitudeDegrees>
              <LongitudeDegrees>-2.520659230649471282958984375</LongitudeDegrees>
            </Position>
            <AltitudeMeters>111.8000030517578125</AltitudeMeters>
            <DistanceMeters>NAN</DistanceMeters>
          </Trackpoint>
          <Trackpoint>
            <Time>2022-07-11T08:53:02.000Z</Time>
            <Position>
              <LatitudeDegrees>43.26467849314212799072265625</LatitudeDegrees>
              <LongitudeDegrees>-2.52064858563244342803955078125</LongitudeDegrees>
            </Position>
            <AltitudeMeters>111.8000030517578125</AltitudeMeters>
            <DistanceMeters>NAN</DistanceMeters>
          </Trackpoint>
          <Trackpoint>
            <Time>2022-07-11T08:53:03.000Z</Time>
            <Position>
              <LatitudeDegrees>43.2646743021905422210693359375</LatitudeDegrees>
              <LongitudeDegrees>-2.52064548432826995849609375</LongitudeDegrees>
            </Position>
            <AltitudeMeters>111.8000030517578125</AltitudeMeters>
            <DistanceMeters>NAN</DistanceMeters>
          </Trackpoint>
          <Trackpoint>
            <Time>2022-07-11T08:53:05.000Z</Time>
            <Position>
              <LatitudeDegrees>43.2646743021905422210693359375</LatitudeDegrees>
              <LongitudeDegrees>-2.52064548432826995849609375</LongitudeDegrees>
            </Position>
            <AltitudeMeters>111.59999847412109375</AltitudeMeters>
            <DistanceMeters>NAN</DistanceMeters>
          </Trackpoint>
          <Trackpoint>
            <Time>2022-07-11T09:00:10.000Z</Time>
            <Position>
              <LatitudeDegrees>43.26465426944196224212646484375</LatitudeDegrees>
              <LongitudeDegrees>-2.52069921232759952545166015625</LongitudeDegrees>
            </Position>
            <AltitudeMeters>114.8000030517578125</AltitudeMeters>
            <DistanceMeters>NAN</DistanceMeters>
          </Trackpoint>
          <Trackpoint>
            <Time>2022-07-11T09:00:13.000Z</Time>
            <Position>
              <LatitudeDegrees>43.26464555226266384124755859375</LatitudeDegrees>
              <LongitudeDegrees>-2.5206915847957134246826171875</LongitudeDegrees>
            </Position>
            <AltitudeMeters>114.8000030517578125</AltitudeMeters>
            <DistanceMeters>NAN</DistanceMeters>
          </Trackpoint>
          <Trackpoint>
            <Time>2022-07-11T09:02:33.000Z</Time>
            <Position>
              <LatitudeDegrees>43.26464085839688777923583984375</LatitudeDegrees>
              <LongitudeDegrees>-2.5207113660871982574462890625</LongitudeDegrees>
            </Position>
            <AltitudeMeters>114</AltitudeMeters>
            <DistanceMeters>NAN</DistanceMeters>
          </Trackpoint>
          <Trackpoint>
            <Time>2022-07-11T09:02:34.000Z</Time>
            <Position>
              <LatitudeDegrees>43.26463784091174602508544921875</LatitudeDegrees>
              <LongitudeDegrees>-2.5207413733005523681640625</LongitudeDegrees>
            </Position>
            <AltitudeMeters>114.8000030517578125</AltitudeMeters>
            <DistanceMeters>NAN</DistanceMeters>
          </Trackpoint>
          <Trackpoint>
            <Time>2022-07-11T09:02:39.000Z</Time>
            <Position>
              <LatitudeDegrees>43.264567516744136810302734375</LatitudeDegrees>
              <LongitudeDegrees>-2.520845644176006317138671875</LongitudeDegrees>
            </Position>
            <AltitudeMeters>115.1999969482421875</AltitudeMeters>
            <DistanceMeters>NAN</DistanceMeters>
          </Trackpoint>
          <Trackpoint>
            <Time>2022-07-11T09:02:44.000Z</Time>
            <Position>
              <LatitudeDegrees>43.26447623781859874725341796875</LatitudeDegrees>
              <LongitudeDegrees>-2.52090926282107830047607421875</LongitudeDegrees>
            </Position>
            <AltitudeMeters>115.8000030517578125</AltitudeMeters>
            <DistanceMeters>NAN</DistanceMeters>
          </Trackpoint>
          <Trackpoint>
            <Time>2022-07-11T09:02:45.000Z</Time>
            <Position>
              <LatitudeDegrees>43.26445997692644596099853515625</LatitudeDegrees>
              <LongitudeDegrees>-2.52092250622808933258056640625</LongitudeDegrees>
            </Position>
            <AltitudeMeters>115.8000030517578125</AltitudeMeters>
            <DistanceMeters>NAN</DistanceMeters>
          </Trackpoint>
          <Trackpoint>
            <Time>2022-07-11T09:02:52.000Z</Time>
            <Position>
              <LatitudeDegrees>43.26432670466601848602294921875</LatitudeDegrees>
              <LongitudeDegrees>-2.52101772464811801910400390625</LongitudeDegrees>
            </Position>
            <AltitudeMeters>116.40000152587890625</AltitudeMeters>
            <DistanceMeters>NAN</DistanceMeters>
          </Trackpoint>
          <Trackpoint>
            <Time>2022-07-11T09:02:59.000Z</Time>
            <Position>
              <LatitudeDegrees>43.2641864754259586334228515625</LatitudeDegrees>
              <LongitudeDegrees>-2.5210764817893505096435546875</LongitudeDegrees>
            </Position>
            <AltitudeMeters>116.8000030517578125</AltitudeMeters>
            <DistanceMeters>NAN</DistanceMeters>
          </Trackpoint>
          <Trackpoint>
            <Time>2022-07-11T09:03:01.000Z</Time>
            <Position>
              <LatitudeDegrees>43.26414649374783039093017578125</LatitudeDegrees>
              <LongitudeDegrees>-2.52108880318701267242431640625</LongitudeDegrees>
            </Position>
            <AltitudeMeters>116.8000030517578125</AltitudeMeters>
            <DistanceMeters>NAN</DistanceMeters>
          </Trackpoint>
          <Trackpoint>
            <Time>2022-07-11T09:03:03.000Z</Time>
            <Position>
              <LatitudeDegrees>43.264103829860687255859375</LatitudeDegrees>
              <LongitudeDegrees>-2.521117217838764190673828125</LongitudeDegrees>
            </Position>
            <AltitudeMeters>117</AltitudeMeters>
            <DistanceMeters>NAN</DistanceMeters>
          </Trackpoint>
          <Trackpoint>
            <Time>2022-07-11T09:03:05.000Z</Time>
            <Position>
              <LatitudeDegrees>43.26405094005167484283447265625</LatitudeDegrees>
              <LongitudeDegrees>-2.521145381033420562744140625</LongitudeDegrees>
            </Position>
            <AltitudeMeters>117</AltitudeMeters>
            <DistanceMeters>NAN</DistanceMeters>
          </Trackpoint>
          <Trackpoint>
            <Time>2022-07-11T09:03:06.000Z</Time>
            <Position>
              <LatitudeDegrees>43.26402604579925537109375</LatitudeDegrees>
              <LongitudeDegrees>-2.5211437046527862548828125</LongitudeDegrees>
            </Position>
            <AltitudeMeters>117.1999969482421875</AltitudeMeters>
            <DistanceMeters>NAN</DistanceMeters>
          </Trackpoint>
          <Trackpoint>
            <Time>2022-07-11T09:03:08.000Z</Time>
            <Position>
              <LatitudeDegrees>43.26398941688239574432373046875</LatitudeDegrees>
              <LongitudeDegrees>-2.52115719951689243316650390625</LongitudeDegrees>
            </Position>
            <AltitudeMeters>117.40000152587890625</AltitudeMeters>
            <DistanceMeters>NAN</DistanceMeters>
          </Trackpoint>
          <Trackpoint>
            <Time>2022-07-11T09:03:10.000Z</Time>
            <Position>
              <LatitudeDegrees>43.2639373652637004852294921875</LatitudeDegrees>
              <LongitudeDegrees>-2.5211673416197299957275390625</LongitudeDegrees>
            </Position>
            <AltitudeMeters>117.59999847412109375</AltitudeMeters>
            <DistanceMeters>NAN</DistanceMeters>
          </Trackpoint>
          <Trackpoint>
            <Time>2022-07-11T09:03:15.000Z</Time>
            <Position>
              <LatitudeDegrees>43.263819850981235504150390625</LatitudeDegrees>
              <LongitudeDegrees>-2.5212183035910129547119140625</LongitudeDegrees>
            </Position>
            <AltitudeMeters>118</AltitudeMeters>
            <DistanceMeters>NAN</DistanceMeters>
          </Trackpoint>
          <Trackpoint>
            <Time>2022-07-11T09:03:20.000Z</Time>
            <Position>
              <LatitudeDegrees>43.26375941745936870574951171875</LatitudeDegrees>
              <LongitudeDegrees>-2.52134797163307666778564453125</LongitudeDegrees>
            </Position>
            <AltitudeMeters>118.40000152587890625</AltitudeMeters>
            <DistanceMeters>NAN</DistanceMeters>
          </Trackpoint>
          <Trackpoint>
            <Time>2022-07-11T09:03:22.000Z</Time>
            <Position>
              <LatitudeDegrees>43.26377416960895061492919921875</LatitudeDegrees>
              <LongitudeDegrees>-2.52140915952622890472412109375</LongitudeDegrees>
            </Position>
            <AltitudeMeters>118.1999969482421875</AltitudeMeters>
            <DistanceMeters>NAN</DistanceMeters>
          </Trackpoint>
          <Trackpoint>
            <Time>2022-07-11T09:03:24.000Z</Time>
            <Position>
              <LatitudeDegrees>43.26380736194550991058349609375</LatitudeDegrees>
              <LongitudeDegrees>-2.52147135324776172637939453125</LongitudeDegrees>
            </Position>
            <AltitudeMeters>117.8000030517578125</AltitudeMeters>
            <DistanceMeters>NAN</DistanceMeters>
          </Trackpoint>
          <Trackpoint>
            <Time>2022-07-11T09:03:29.000Z</Time>
            <Position>
              <LatitudeDegrees>43.26384591870009899139404296875</LatitudeDegrees>
              <LongitudeDegrees>-2.52169464714825153350830078125</LongitudeDegrees>
            </Position>
            <AltitudeMeters>117.40000152587890625</AltitudeMeters>
            <DistanceMeters>NAN</DistanceMeters>
          </Trackpoint>
          <Trackpoint>
            <Time>2022-07-11T09:03:32.000Z</Time>
            <Position>
              <LatitudeDegrees>43.26386176049709320068359375</LatitudeDegrees>
              <LongitudeDegrees>-2.52180813811719417572021484375</LongitudeDegrees>
            </Position>
            <AltitudeMeters>117</AltitudeMeters>
            <DistanceMeters>NAN</DistanceMeters>
          </Trackpoint>
          <Trackpoint>
            <Time>2022-07-11T09:03:37.000Z</Time>
            <Position>
              <LatitudeDegrees>43.26389637775719165802001953125</LatitudeDegrees>
              <LongitudeDegrees>-2.521984577178955078125</LongitudeDegrees>
            </Position>
            <AltitudeMeters>116.1999969482421875</AltitudeMeters>
            <DistanceMeters>NAN</DistanceMeters>
          </Trackpoint>
          <Trackpoint>
            <Time>2022-07-11T09:03:45.000Z</Time>
            <Position>
              <LatitudeDegrees>43.26397768221795558929443359375</LatitudeDegrees>
              <LongitudeDegrees>-2.52224701456725597381591796875</LongitudeDegrees>
            </Position>
            <AltitudeMeters>116.40000152587890625</AltitudeMeters>
            <DistanceMeters>NAN</DistanceMeters>
          </Trackpoint>
          <Trackpoint>
            <Time>2022-07-11T09:03:49.000Z</Time>
            <Position>
              <LatitudeDegrees>43.26392613351345062255859375</LatitudeDegrees>
              <LongitudeDegrees>-2.52232253551483154296875</LongitudeDegrees>
            </Position>
            <AltitudeMeters>116.59999847412109375</AltitudeMeters>
            <DistanceMeters>NAN</DistanceMeters>
          </Trackpoint>
          <Trackpoint>
            <Time>2022-07-11T09:03:54.000Z</Time>
            <Position>
              <LatitudeDegrees>43.26391029171645641326904296875</LatitudeDegrees>
              <LongitudeDegrees>-2.52235178835690021514892578125</LongitudeDegrees>
            </Position>
            <AltitudeMeters>116.1999969482421875</AltitudeMeters>
            <DistanceMeters>NAN</DistanceMeters>
          </Trackpoint>
          <Trackpoint>
            <Time>2022-07-11T09:03:56.000Z</Time>
            <Position>
              <LatitudeDegrees>43.26391029171645641326904296875</LatitudeDegrees>
              <LongitudeDegrees>-2.52235178835690021514892578125</LongitudeDegrees>
            </Position>
            <AltitudeMeters>116</AltitudeMeters>
            <DistanceMeters>NAN</DistanceMeters>
          </Trackpoint>
          <Trackpoint>
            <Time>2022-07-11T09:04:39.000Z</Time>
            <Position>
              <LatitudeDegrees>43.263865448534488677978515625</LatitudeDegrees>
              <LongitudeDegrees>-2.522400319576263427734375</LongitudeDegrees>
            </Position>
            <AltitudeMeters>114.59999847412109375</AltitudeMeters>
            <DistanceMeters>NAN</DistanceMeters>
          </Trackpoint>
          <Trackpoint>
            <Time>2022-07-11T09:04:41.000Z</Time>
            <Position>
              <LatitudeDegrees>43.26382965780794620513916015625</LatitudeDegrees>
              <LongitudeDegrees>-2.5224256329238414764404296875</LongitudeDegrees>
            </Position>
            <AltitudeMeters>114.8000030517578125</AltitudeMeters>
            <DistanceMeters>NAN</DistanceMeters>
          </Trackpoint>
          <Trackpoint>
            <Time>2022-07-11T09:04:44.000Z</Time>
            <Position>
              <LatitudeDegrees>43.2637784443795680999755859375</LatitudeDegrees>
              <LongitudeDegrees>-2.52246536314487457275390625</LongitudeDegrees>
            </Position>
            <AltitudeMeters>115</AltitudeMeters>
            <DistanceMeters>NAN</DistanceMeters>
          </Trackpoint>
          <Trackpoint>
            <Time>2022-07-11T09:04:47.000Z</Time>
            <Position>
              <LatitudeDegrees>43.26372840441763401031494140625</LatitudeDegrees>
              <LongitudeDegrees>-2.52248740755021572113037109375</LongitudeDegrees>
            </Position>
            <AltitudeMeters>115</AltitudeMeters>
            <DistanceMeters>NAN</DistanceMeters>
          </Trackpoint>
          <Trackpoint>
            <Time>2022-07-11T09:04:48.000Z</Time>
            <Position>
              <LatitudeDegrees>43.26371398754417896270751953125</LatitudeDegrees>
              <LongitudeDegrees>-2.52249595709145069122314453125</LongitudeDegrees>
            </Position>
            <AltitudeMeters>115</AltitudeMeters>
            <DistanceMeters>NAN</DistanceMeters>
          </Trackpoint>
          <Trackpoint>
            <Time>2022-07-11T09:04:54.000Z</Time>
            <Position>
              <LatitudeDegrees>43.2636433281004428863525390625</LatitudeDegrees>
              <LongitudeDegrees>-2.52253199927508831024169921875</LongitudeDegrees>
            </Position>
            <AltitudeMeters>115.40000152587890625</AltitudeMeters>
            <DistanceMeters>NAN</DistanceMeters>
          </Trackpoint>
          <Trackpoint>
            <Time>2022-07-11T09:04:56.000Z</Time>
            <Position>
              <LatitudeDegrees>43.26359697617590427398681640625</LatitudeDegrees>
              <LongitudeDegrees>-2.52253375947475433349609375</LongitudeDegrees>
            </Position>
            <AltitudeMeters>115.59999847412109375</AltitudeMeters>
            <DistanceMeters>NAN</DistanceMeters>
          </Trackpoint>
          <Trackpoint>
            <Time>2022-07-11T09:04:58.000Z</Time>
            <Position>
              <LatitudeDegrees>43.2635615207254886627197265625</LatitudeDegrees>
              <LongitudeDegrees>-2.522549517452716827392578125</LongitudeDegrees>
            </Position>
            <AltitudeMeters>115.40000152587890625</AltitudeMeters>
            <DistanceMeters>NAN</DistanceMeters>
          </Trackpoint>
          <Trackpoint>
            <Time>2022-07-11T09:05:02.000Z</Time>
            <Position>
              <LatitudeDegrees>43.26349672861397266387939453125</LatitudeDegrees>
              <LongitudeDegrees>-2.522600479423999786376953125</LongitudeDegrees>
            </Position>
            <AltitudeMeters>115.40000152587890625</AltitudeMeters>
            <DistanceMeters>NAN</DistanceMeters>
          </Trackpoint>
          <Trackpoint>
            <Time>2022-07-11T09:05:05.000Z</Time>
            <Position>
              <LatitudeDegrees>43.26345817185938358306884765625</LatitudeDegrees>
              <LongitudeDegrees>-2.52262872643768787384033203125</LongitudeDegrees>
            </Position>
            <AltitudeMeters>115.40000152587890625</AltitudeMeters>
            <DistanceMeters>NAN</DistanceMeters>
          </Trackpoint>
          <Trackpoint>
            <Time>2022-07-11T09:05:09.000Z</Time>
            <Position>
              <LatitudeDegrees>43.26338809914886951446533203125</LatitudeDegrees>
              <LongitudeDegrees>-2.52265722490847110748291015625</LongitudeDegrees>
            </Position>
            <AltitudeMeters>115.40000152587890625</AltitudeMeters>
            <DistanceMeters>NAN</DistanceMeters>
          </Trackpoint>
          <Trackpoint>
            <Time>2022-07-11T09:05:15.000Z</Time>
            <Position>
              <LatitudeDegrees>43.26328483410179615020751953125</LatitudeDegrees>
              <LongitudeDegrees>-2.5226752460002899169921875</LongitudeDegrees>
            </Position>
            <AltitudeMeters>115.1999969482421875</AltitudeMeters>
            <DistanceMeters>NAN</DistanceMeters>
          </Trackpoint>
          <Trackpoint>
            <Time>2022-07-11T09:05:16.000Z</Time>
            <Position>
              <LatitudeDegrees>43.2632607780396938323974609375</LatitudeDegrees>
              <LongitudeDegrees>-2.5226764194667339324951171875</LongitudeDegrees>
            </Position>
            <AltitudeMeters>115.1999969482421875</AltitudeMeters>
            <DistanceMeters>NAN</DistanceMeters>
          </Trackpoint>
          <Trackpoint>
            <Time>2022-07-11T09:05:18.000Z</Time>
            <Position>
              <LatitudeDegrees>43.26321677304804325103759765625</LatitudeDegrees>
              <LongitudeDegrees>-2.52268354408442974090576171875</LongitudeDegrees>
            </Position>
            <AltitudeMeters>115.1999969482421875</AltitudeMeters>
            <DistanceMeters>NAN</DistanceMeters>
          </Trackpoint>
          <Trackpoint>
            <Time>2022-07-11T09:05:20.000Z</Time>
            <Position>
              <LatitudeDegrees>43.263173438608646392822265625</LatitudeDegrees>
              <LongitudeDegrees>-2.52270567230880260467529296875</LongitudeDegrees>
            </Position>
            <AltitudeMeters>115.40000152587890625</AltitudeMeters>
            <DistanceMeters>NAN</DistanceMeters>
          </Trackpoint>
          <Trackpoint>
            <Time>2022-07-11T09:05:21.000Z</Time>
            <Position>
              <LatitudeDegrees>43.2631555013358592987060546875</LatitudeDegrees>
              <LongitudeDegrees>-2.5227179937064647674560546875</LongitudeDegrees>
            </Position>
            <AltitudeMeters>115.40000152587890625</AltitudeMeters>
            <DistanceMeters>NAN</DistanceMeters>
          </Trackpoint>
          <Trackpoint>
            <Time>2022-07-11T09:05:24.000Z</Time>
            <Position>
              <LatitudeDegrees>43.26309976167976856231689453125</LatitudeDegrees>
              <LongitudeDegrees>-2.5227530300617218017578125</LongitudeDegrees>
            </Position>
            <AltitudeMeters>115.1999969482421875</AltitudeMeters>
            <DistanceMeters>NAN</DistanceMeters>
          </Trackpoint>
          <Trackpoint>
            <Time>2022-07-11T09:05:28.000Z</Time>
            <Position>
              <LatitudeDegrees>43.263017199933528900146484375</LatitudeDegrees>
              <LongitudeDegrees>-2.522839866578578948974609375</LongitudeDegrees>
            </Position>
            <AltitudeMeters>115.40000152587890625</AltitudeMeters>
            <DistanceMeters>NAN</DistanceMeters>
          </Trackpoint>
          <Trackpoint>
            <Time>2022-07-11T09:05:33.000Z</Time>
            <Position>
              <LatitudeDegrees>43.26292608864605426788330078125</LatitudeDegrees>
              <LongitudeDegrees>-2.52296534366905689239501953125</LongitudeDegrees>
            </Position>
            <AltitudeMeters>115.40000152587890625</AltitudeMeters>
            <DistanceMeters>NAN</DistanceMeters>
          </Trackpoint>
          <Trackpoint>
            <Time>2022-07-11T09:05:41.000Z</Time>
            <Position>
              <LatitudeDegrees>43.26275476254522800445556640625</LatitudeDegrees>
              <LongitudeDegrees>-2.52309727482497692108154296875</LongitudeDegrees>
            </Position>
            <AltitudeMeters>115.59999847412109375</AltitudeMeters>
            <DistanceMeters>NAN</DistanceMeters>
          </Trackpoint>
          <Trackpoint>
            <Time>2022-07-11T09:05:45.000Z</Time>
            <Position>
              <LatitudeDegrees>43.26267412863671779632568359375</LatitudeDegrees>
              <LongitudeDegrees>-2.52314019016921520233154296875</LongitudeDegrees>
            </Position>
            <AltitudeMeters>115.59999847412109375</AltitudeMeters>
            <DistanceMeters>NAN</DistanceMeters>
          </Trackpoint>
          <Trackpoint>
            <Time>2022-07-11T09:05:49.000Z</Time>
            <Position>
              <LatitudeDegrees>43.26262316666543483734130859375</LatitudeDegrees>
              <LongitudeDegrees>-2.52317874692380428314208984375</LongitudeDegrees>
            </Position>
            <AltitudeMeters>115.8000030517578125</AltitudeMeters>
            <DistanceMeters>NAN</DistanceMeters>
          </Trackpoint>
          <Trackpoint>
            <Time>2022-07-11T09:05:54.000Z</Time>
            <Position>
              <LatitudeDegrees>43.26252727769315242767333984375</LatitudeDegrees>
              <LongitudeDegrees>-2.523203976452350616455078125</LongitudeDegrees>
            </Position>
            <AltitudeMeters>116.1999969482421875</AltitudeMeters>
            <DistanceMeters>NAN</DistanceMeters>
          </Trackpoint>
          <Trackpoint>
            <Time>2022-07-11T09:05:57.000Z</Time>
            <Position>
              <LatitudeDegrees>43.2624715380370616912841796875</LatitudeDegrees>
              <LongitudeDegrees>-2.5232279486954212188720703125</LongitudeDegrees>
            </Position>
            <AltitudeMeters>116.59999847412109375</AltitudeMeters>
            <DistanceMeters>NAN</DistanceMeters>
          </Trackpoint>
          <Trackpoint>
            <Time>2022-07-11T09:05:58.000Z</Time>
            <Position>
              <LatitudeDegrees>43.26245804317295551300048828125</LatitudeDegrees>
              <LongitudeDegrees>-2.5232323072850704193115234375</LongitudeDegrees>
            </Position>
            <AltitudeMeters>116.59999847412109375</AltitudeMeters>
            <DistanceMeters>NAN</DistanceMeters>
          </Trackpoint>
          <Trackpoint>
            <Time>2022-07-11T09:06:00.000Z</Time>
            <Position>
              <LatitudeDegrees>43.2624333165585994720458984375</LatitudeDegrees>
              <LongitudeDegrees>-2.52324328757822513580322265625</LongitudeDegrees>
            </Position>
            <AltitudeMeters>116.8000030517578125</AltitudeMeters>
            <DistanceMeters>NAN</DistanceMeters>
          </Trackpoint>
          <Trackpoint>
            <Time>2022-07-11T09:06:01.000Z</Time>
            <Position>
              <LatitudeDegrees>43.2624185644090175628662109375</LatitudeDegrees>
              <LongitudeDegrees>-2.523253597319126129150390625</LongitudeDegrees>
            </Position>
            <AltitudeMeters>116.8000030517578125</AltitudeMeters>
            <DistanceMeters>NAN</DistanceMeters>
          </Trackpoint>
          <Trackpoint>
            <Time>2022-07-11T09:06:05.000Z</Time>
            <Position>
              <LatitudeDegrees>43.26234790496528148651123046875</LatitudeDegrees>
              <LongitudeDegrees>-2.52326675690710544586181640625</LongitudeDegrees>
            </Position>
            <AltitudeMeters>117</AltitudeMeters>
            <DistanceMeters>NAN</DistanceMeters>
          </Trackpoint>
          <Trackpoint>
            <Time>2022-07-11T09:06:08.000Z</Time>
            <Position>
              <LatitudeDegrees>43.2622881419956684112548828125</LatitudeDegrees>
              <LongitudeDegrees>-2.52331268973648548126220703125</LongitudeDegrees>
            </Position>
            <AltitudeMeters>116.59999847412109375</AltitudeMeters>
            <DistanceMeters>NAN</DistanceMeters>
          </Trackpoint>
          <Trackpoint>
            <Time>2022-07-11T09:06:11.000Z</Time>
            <Position>
              <LatitudeDegrees>43.262280933558940887451171875</LatitudeDegrees>
              <LongitudeDegrees>-2.52331604249775409698486328125</LongitudeDegrees>
            </Position>
            <AltitudeMeters>116.8000030517578125</AltitudeMeters>
            <DistanceMeters>NAN</DistanceMeters>
          </Trackpoint>
          <Trackpoint>
            <Time>2022-07-11T09:06:38.000Z</Time>
            <Position>
              <LatitudeDegrees>43.2622539438307285308837890625</LatitudeDegrees>
              <LongitudeDegrees>-2.52334705553948879241943359375</LongitudeDegrees>
            </Position>
            <AltitudeMeters>117.1999969482421875</AltitudeMeters>
            <DistanceMeters>NAN</DistanceMeters>
          </Trackpoint>
          <Trackpoint>
            <Time>2022-07-11T09:06:39.000Z</Time>
            <Position>
              <LatitudeDegrees>43.26222703792154788970947265625</LatitudeDegrees>
              <LongitudeDegrees>-2.5233690999448299407958984375</LongitudeDegrees>
            </Position>
            <AltitudeMeters>117.1999969482421875</AltitudeMeters>
            <DistanceMeters>NAN</DistanceMeters>
          </Trackpoint>
          <Trackpoint>
            <Time>2022-07-11T09:06:44.000Z</Time>
            <Position>
              <LatitudeDegrees>43.2620881497859954833984375</LatitudeDegrees>
              <LongitudeDegrees>-2.5234686769545078277587890625</LongitudeDegrees>
            </Position>
            <AltitudeMeters>116</AltitudeMeters>
            <DistanceMeters>NAN</DistanceMeters>
          </Trackpoint>
          <Trackpoint>
            <Time>2022-07-11T09:06:45.000Z</Time>
            <Position>
              <LatitudeDegrees>43.262066356837749481201171875</LatitudeDegrees>
              <LongitudeDegrees>-2.52348460257053375244140625</LongitudeDegrees>
            </Position>
            <AltitudeMeters>115.59999847412109375</AltitudeMeters>
            <DistanceMeters>NAN</DistanceMeters>
          </Trackpoint>
          <Trackpoint>
            <Time>2022-07-11T09:06:48.000Z</Time>
            <Position>
              <LatitudeDegrees>43.26202687807381153106689453125</LatitudeDegrees>
              <LongitudeDegrees>-2.52353196032345294952392578125</LongitudeDegrees>
            </Position>
            <AltitudeMeters>115</AltitudeMeters>
            <DistanceMeters>NAN</DistanceMeters>
          </Trackpoint>
          <Trackpoint>
            <Time>2022-07-11T09:06:49.000Z</Time>
            <Position>
              <LatitudeDegrees>43.2620222680270671844482421875</LatitudeDegrees>
              <LongitudeDegrees>-2.52353564836084842681884765625</LongitudeDegrees>
            </Position>
            <AltitudeMeters>114.8000030517578125</AltitudeMeters>
            <DistanceMeters>NAN</DistanceMeters>
          </Trackpoint>
          <Trackpoint>
            <Time>2022-07-11T09:06:51.000Z</Time>
            <Position>
              <LatitudeDegrees>43.2620222680270671844482421875</LatitudeDegrees>
              <LongitudeDegrees>-2.52353564836084842681884765625</LongitudeDegrees>
            </Position>
            <AltitudeMeters>114.8000030517578125</AltitudeMeters>
            <DistanceMeters>NAN</DistanceMeters>
          </Trackpoint>
          <Trackpoint>
            <Time>2022-07-11T09:08:54.000Z</Time>
            <Position>
              <LatitudeDegrees>43.2614553160965442657470703125</LatitudeDegrees>
              <LongitudeDegrees>-2.524094469845294952392578125</LongitudeDegrees>
            </Position>
            <AltitudeMeters>118.59999847412109375</AltitudeMeters>
            <DistanceMeters>NAN</DistanceMeters>
          </Trackpoint>
          <Trackpoint>
            <Time>2022-07-11T09:08:55.000Z</Time>
            <Position>
              <LatitudeDegrees>43.26143746264278888702392578125</LatitudeDegrees>
              <LongitudeDegrees>-2.5241010077297687530517578125</LongitudeDegrees>
            </Position>
            <AltitudeMeters>118</AltitudeMeters>
            <DistanceMeters>NAN</DistanceMeters>
          </Trackpoint>
          <Trackpoint>
            <Time>2022-07-11T09:08:56.000Z</Time>
            <Position>
              <LatitudeDegrees>43.26141835190355777740478515625</LatitudeDegrees>
              <LongitudeDegrees>-2.524106204509735107421875</LongitudeDegrees>
            </Position>
            <AltitudeMeters>117.59999847412109375</AltitudeMeters>
            <DistanceMeters>NAN</DistanceMeters>
          </Trackpoint>
          <Trackpoint>
            <Time>2022-07-11T09:08:59.000Z</Time>
            <Position>
              <LatitudeDegrees>43.261362276971340179443359375</LatitudeDegrees>
              <LongitudeDegrees>-2.52411785535514354705810546875</LongitudeDegrees>
            </Position>
            <AltitudeMeters>117</AltitudeMeters>
            <DistanceMeters>NAN</DistanceMeters>
          </Trackpoint>
          <Trackpoint>
            <Time>2022-07-11T09:09:01.000Z</Time>
            <Position>
              <LatitudeDegrees>43.26132296584546566009521484375</LatitudeDegrees>
              <LongitudeDegrees>-2.52411165274679660797119140625</LongitudeDegrees>
            </Position>
            <AltitudeMeters>116.8000030517578125</AltitudeMeters>
            <DistanceMeters>NAN</DistanceMeters>
          </Trackpoint>
          <Trackpoint>
            <Time>2022-07-11T09:09:05.000Z</Time>
            <Position>
              <LatitudeDegrees>43.2612638734281063079833984375</LatitudeDegrees>
              <LongitudeDegrees>-2.5240912847220897674560546875</LongitudeDegrees>
            </Position>
            <AltitudeMeters>116.59999847412109375</AltitudeMeters>
            <DistanceMeters>NAN</DistanceMeters>
          </Trackpoint>
          <Trackpoint>
            <Time>2022-07-11T09:09:06.000Z</Time>
            <Position>
              <LatitudeDegrees>43.26124526560306549072265625</LatitudeDegrees>
              <LongitudeDegrees>-2.52408717758953571319580078125</LongitudeDegrees>
            </Position>
            <AltitudeMeters>116.59999847412109375</AltitudeMeters>
            <DistanceMeters>NAN</DistanceMeters>
          </Trackpoint>
          <Trackpoint>
            <Time>2022-07-11T09:09:09.000Z</Time>
            <Position>
              <LatitudeDegrees>43.26121349819004535675048828125</LatitudeDegrees>
              <LongitudeDegrees>-2.52408030442893505096435546875</LongitudeDegrees>
            </Position>
            <AltitudeMeters>116.40000152587890625</AltitudeMeters>
            <DistanceMeters>NAN</DistanceMeters>
          </Trackpoint>
          <Trackpoint>
            <Time>2022-07-11T09:09:11.000Z</Time>
            <Position>
              <LatitudeDegrees>43.2611842453479766845703125</LatitudeDegrees>
              <LongitudeDegrees>-2.52410477958619594573974609375</LongitudeDegrees>
            </Position>
            <AltitudeMeters>116.1999969482421875</AltitudeMeters>
            <DistanceMeters>NAN</DistanceMeters>
          </Trackpoint>
          <Trackpoint>
            <Time>2022-07-11T09:09:16.000Z</Time>
            <Position>
              <LatitudeDegrees>43.26109916903078556060791015625</LatitudeDegrees>
              <LongitudeDegrees>-2.52410964109003543853759765625</LongitudeDegrees>
            </Position>
            <AltitudeMeters>116.1999969482421875</AltitudeMeters>
            <DistanceMeters>NAN</DistanceMeters>
          </Trackpoint>
          <Trackpoint>
            <Time>2022-07-11T09:09:18.000Z</Time>
            <Position>
              <LatitudeDegrees>43.26106430031359195709228515625</LatitudeDegrees>
              <LongitudeDegrees>-2.52410930581390857696533203125</LongitudeDegrees>
            </Position>
            <AltitudeMeters>116.1999969482421875</AltitudeMeters>
            <DistanceMeters>NAN</DistanceMeters>
          </Trackpoint>
          <Trackpoint>
            <Time>2022-07-11T09:09:20.000Z</Time>
            <Position>
              <LatitudeDegrees>43.26104401610791683197021484375</LatitudeDegrees>
              <LongitudeDegrees>-2.52410419285297393798828125</LongitudeDegrees>
            </Position>
            <AltitudeMeters>116.1999969482421875</AltitudeMeters>
            <DistanceMeters>NAN</DistanceMeters>
          </Trackpoint>
          <Trackpoint>
            <Time>2022-07-11T09:09:23.000Z</Time>
            <Position>
              <LatitudeDegrees>43.26096832752227783203125</LatitudeDegrees>
              <LongitudeDegrees>-2.52411701716482639312744140625</LongitudeDegrees>
            </Position>
            <AltitudeMeters>116.1999969482421875</AltitudeMeters>
            <DistanceMeters>NAN</DistanceMeters>
          </Trackpoint>
          <Trackpoint>
            <Time>2022-07-11T09:09:31.000Z</Time>
            <Position>
              <LatitudeDegrees>43.26081116683781147003173828125</LatitudeDegrees>
              <LongitudeDegrees>-2.52411550842225551605224609375</LongitudeDegrees>
            </Position>
            <AltitudeMeters>116.59999847412109375</AltitudeMeters>
            <DistanceMeters>NAN</DistanceMeters>
          </Trackpoint>
          <Trackpoint>
            <Time>2022-07-11T09:09:36.000Z</Time>
            <Position>
              <LatitudeDegrees>43.26068644411861896514892578125</LatitudeDegrees>
              <LongitudeDegrees>-2.5241093896329402923583984375</LongitudeDegrees>
            </Position>
            <AltitudeMeters>117</AltitudeMeters>
            <DistanceMeters>NAN</DistanceMeters>
          </Trackpoint>
          <Trackpoint>
            <Time>2022-07-11T09:09:38.000Z</Time>
            <Position>
              <LatitudeDegrees>43.26065459288656711578369140625</LatitudeDegrees>
              <LongitudeDegrees>-2.524118609726428985595703125</LongitudeDegrees>
            </Position>
            <AltitudeMeters>117</AltitudeMeters>
            <DistanceMeters>NAN</DistanceMeters>
          </Trackpoint>
          <Trackpoint>
            <Time>2022-07-11T09:09:40.000Z</Time>
            <Position>
              <LatitudeDegrees>43.2606147788465023040771484375</LatitudeDegrees>
              <LongitudeDegrees>-2.5241382233798503875732421875</LongitudeDegrees>
            </Position>
            <AltitudeMeters>117.1999969482421875</AltitudeMeters>
            <DistanceMeters>NAN</DistanceMeters>
          </Trackpoint>
          <Trackpoint>
            <Time>2022-07-11T09:09:43.000Z</Time>
            <Position>
              <LatitudeDegrees>43.26054965145885944366455078125</LatitudeDegrees>
              <LongitudeDegrees>-2.5241492874920368194580078125</LongitudeDegrees>
            </Position>
            <AltitudeMeters>117.40000152587890625</AltitudeMeters>
            <DistanceMeters>NAN</DistanceMeters>
          </Trackpoint>
          <Trackpoint>
            <Time>2022-07-11T09:09:46.000Z</Time>
            <Position>
              <LatitudeDegrees>43.26048024930059909820556640625</LatitudeDegrees>
              <LongitudeDegrees>-2.52417166717350482940673828125</LongitudeDegrees>
            </Position>
            <AltitudeMeters>117.40000152587890625</AltitudeMeters>
            <DistanceMeters>NAN</DistanceMeters>
          </Trackpoint>
          <Trackpoint>
            <Time>2022-07-11T09:09:48.000Z</Time>
            <Position>
              <LatitudeDegrees>43.2604372501373291015625</LatitudeDegrees>
              <LongitudeDegrees>-2.52418340183794498443603515625</LongitudeDegrees>
            </Position>
            <AltitudeMeters>117.59999847412109375</AltitudeMeters>
            <DistanceMeters>NAN</DistanceMeters>
          </Trackpoint>
          <Trackpoint>
            <Time>2022-07-11T09:09:49.000Z</Time>
            <Position>
              <LatitudeDegrees>43.2603911496698856353759765625</LatitudeDegrees>
              <LongitudeDegrees>-2.52418935298919677734375</LongitudeDegrees>
            </Position>
            <AltitudeMeters>117.59999847412109375</AltitudeMeters>
            <DistanceMeters>NAN</DistanceMeters>
          </Trackpoint>
          <Trackpoint>
            <Time>2022-07-11T09:09:56.000Z</Time>
            <Position>
              <LatitudeDegrees>43.26020884327590465545654296875</LatitudeDegrees>
              <LongitudeDegrees>-2.5242562405765056610107421875</LongitudeDegrees>
            </Position>
            <AltitudeMeters>118.1999969482421875</AltitudeMeters>
            <DistanceMeters>NAN</DistanceMeters>
          </Trackpoint>
          <Trackpoint>
            <Time>2022-07-11T09:09:59.000Z</Time>
            <Position>
              <LatitudeDegrees>43.26014379970729351043701171875</LatitudeDegrees>
              <LongitudeDegrees>-2.52430611290037631988525390625</LongitudeDegrees>
            </Position>
            <AltitudeMeters>118.40000152587890625</AltitudeMeters>
            <DistanceMeters>NAN</DistanceMeters>
          </Trackpoint>
          <Trackpoint>
            <Time>2022-07-11T09:10:03.000Z</Time>
            <Position>
              <LatitudeDegrees>43.26005461625754833221435546875</LatitudeDegrees>
              <LongitudeDegrees>-2.52431332133710384368896484375</LongitudeDegrees>
            </Position>
            <AltitudeMeters>118.59999847412109375</AltitudeMeters>
            <DistanceMeters>NAN</DistanceMeters>
          </Trackpoint>
          <Trackpoint>
            <Time>2022-07-11T09:10:10.000Z</Time>
            <Position>
              <LatitudeDegrees>43.2599257864058017730712890625</LatitudeDegrees>
              <LongitudeDegrees>-2.52437199465930461883544921875</LongitudeDegrees>
            </Position>
            <AltitudeMeters>119.40000152587890625</AltitudeMeters>
            <DistanceMeters>NAN</DistanceMeters>
          </Trackpoint>
          <Trackpoint>
            <Time>2022-07-11T09:10:12.000Z</Time>
            <Position>
              <LatitudeDegrees>43.25988940894603729248046875</LatitudeDegrees>
              <LongitudeDegrees>-2.5243900157511234283447265625</LongitudeDegrees>
            </Position>
            <AltitudeMeters>119.8000030517578125</AltitudeMeters>
            <DistanceMeters>NAN</DistanceMeters>
          </Trackpoint>
          <Trackpoint>
            <Time>2022-07-11T09:10:19.000Z</Time>
            <Position>
              <LatitudeDegrees>43.2597672007977962493896484375</LatitudeDegrees>
              <LongitudeDegrees>-2.5244580768048763275146484375</LongitudeDegrees>
            </Position>
            <AltitudeMeters>120.40000152587890625</AltitudeMeters>
            <DistanceMeters>NAN</DistanceMeters>
          </Trackpoint>
          <Trackpoint>
            <Time>2022-07-11T09:10:26.000Z</Time>
            <Position>
              <LatitudeDegrees>43.25963133014738559722900390625</LatitudeDegrees>
              <LongitudeDegrees>-2.52456142567098140716552734375</LongitudeDegrees>
            </Position>
            <AltitudeMeters>120.8000030517578125</AltitudeMeters>
            <DistanceMeters>NAN</DistanceMeters>
          </Trackpoint>
          <Trackpoint>
            <Time>2022-07-11T09:10:32.000Z</Time>
            <Position>
              <LatitudeDegrees>43.259562514722347259521484375</LatitudeDegrees>
              <LongitudeDegrees>-2.5246223621070384979248046875</LongitudeDegrees>
            </Position>
            <AltitudeMeters>121.1999969482421875</AltitudeMeters>
            <DistanceMeters>NAN</DistanceMeters>
          </Trackpoint>
          <Trackpoint>
            <Time>2022-07-11T09:10:40.000Z</Time>
            <Position>
              <LatitudeDegrees>43.25942060910165309906005859375</LatitudeDegrees>
              <LongitudeDegrees>-2.5247745774686336517333984375</LongitudeDegrees>
            </Position>
            <AltitudeMeters>120.59999847412109375</AltitudeMeters>
            <DistanceMeters>NAN</DistanceMeters>
          </Trackpoint>
          <Trackpoint>
            <Time>2022-07-11T09:10:47.000Z</Time>
            <Position>
              <LatitudeDegrees>43.2593186013400554656982421875</LatitudeDegrees>
              <LongitudeDegrees>-2.52488044090569019317626953125</LongitudeDegrees>
            </Position>
            <AltitudeMeters>120.59999847412109375</AltitudeMeters>
            <DistanceMeters>NAN</DistanceMeters>
          </Trackpoint>
          <Trackpoint>
            <Time>2022-07-11T09:10:52.000Z</Time>
            <Position>
              <LatitudeDegrees>43.2592626102268695831298828125</LatitudeDegrees>
              <LongitudeDegrees>-2.52494615502655506134033203125</LongitudeDegrees>
            </Position>
            <AltitudeMeters>121</AltitudeMeters>
            <DistanceMeters>NAN</DistanceMeters>
          </Trackpoint>
          <Trackpoint>
            <Time>2022-07-11T09:10:53.000Z</Time>
            <Position>
              <LatitudeDegrees>43.2592481933534145355224609375</LatitudeDegrees>
              <LongitudeDegrees>-2.52495386637747287750244140625</LongitudeDegrees>
            </Position>
            <AltitudeMeters>121</AltitudeMeters>
            <DistanceMeters>NAN</DistanceMeters>
          </Trackpoint>
          <Trackpoint>
            <Time>2022-07-11T09:11:01.000Z</Time>
            <Position>
              <LatitudeDegrees>43.25912632048130035400390625</LatitudeDegrees>
              <LongitudeDegrees>-2.52509099431335926055908203125</LongitudeDegrees>
            </Position>
            <AltitudeMeters>121.40000152587890625</AltitudeMeters>
            <DistanceMeters>NAN</DistanceMeters>
          </Trackpoint>
          <Trackpoint>
            <Time>2022-07-11T09:11:04.000Z</Time>
            <Position>
              <LatitudeDegrees>43.25908902101218700408935546875</LatitudeDegrees>
              <LongitudeDegrees>-2.52511915750801563262939453125</LongitudeDegrees>
            </Position>
            <AltitudeMeters>121.8000030517578125</AltitudeMeters>
            <DistanceMeters>NAN</DistanceMeters>
          </Trackpoint>
          <Trackpoint>
            <Time>2022-07-11T09:11:05.000Z</Time>
            <Position>
              <LatitudeDegrees>43.25908248312771320343017578125</LatitudeDegrees>
              <LongitudeDegrees>-2.525125443935394287109375</LongitudeDegrees>
            </Position>
            <AltitudeMeters>122</AltitudeMeters>
            <DistanceMeters>NAN</DistanceMeters>
          </Trackpoint>
          <Trackpoint>
            <Time>2022-07-11T09:11:07.000Z</Time>
            <Position>
              <LatitudeDegrees>43.25908097438514232635498046875</LatitudeDegrees>
              <LongitudeDegrees>-2.52512955106794834136962890625</LongitudeDegrees>
            </Position>
            <AltitudeMeters>122.40000152587890625</AltitudeMeters>
            <DistanceMeters>NAN</DistanceMeters>
          </Trackpoint>
          <Trackpoint>
            <Time>2022-07-11T09:12:11.000Z</Time>
            <Position>
              <LatitudeDegrees>43.25914853252470493316650390625</LatitudeDegrees>
              <LongitudeDegrees>-2.525233738124370574951171875</LongitudeDegrees>
            </Position>
            <AltitudeMeters>125.8000030517578125</AltitudeMeters>
            <DistanceMeters>NAN</DistanceMeters>
          </Trackpoint>
          <Trackpoint>
            <Time>2022-07-11T09:12:13.000Z</Time>
            <Position>
              <LatitudeDegrees>43.259159512817859649658203125</LatitudeDegrees>
              <LongitudeDegrees>-2.5252613984048366546630859375</LongitudeDegrees>
            </Position>
            <AltitudeMeters>127</AltitudeMeters>
            <DistanceMeters>NAN</DistanceMeters>
          </Trackpoint>
          <Trackpoint>
            <Time>2022-07-11T09:12:14.000Z</Time>
            <Position>
              <LatitudeDegrees>43.25915926136076450347900390625</LatitudeDegrees>
              <LongitudeDegrees>-2.525266595184803009033203125</LongitudeDegrees>
            </Position>
            <AltitudeMeters>127.1999969482421875</AltitudeMeters>
            <DistanceMeters>NAN</DistanceMeters>
          </Trackpoint>
          <Trackpoint>
            <Time>2022-07-11T09:12:15.000Z</Time>
            <Position>
              <LatitudeDegrees>43.2591529749333858489990234375</LatitudeDegrees>
              <LongitudeDegrees>-2.52527120523154735565185546875</LongitudeDegrees>
            </Position>
            <AltitudeMeters>127.40000152587890625</AltitudeMeters>
            <DistanceMeters>NAN</DistanceMeters>
          </Trackpoint>
          <Trackpoint>
            <Time>2022-07-11T09:12:17.000Z</Time>
            <Position>
              <LatitudeDegrees>43.25912925414741039276123046875</LatitudeDegrees>
              <LongitudeDegrees>-2.52528763376176357269287109375</LongitudeDegrees>
            </Position>
            <AltitudeMeters>127.59999847412109375</AltitudeMeters>
            <DistanceMeters>NAN</DistanceMeters>
          </Trackpoint>
          <Trackpoint>
            <Time>2022-07-11T09:12:19.000Z</Time>
            <Position>
              <LatitudeDegrees>43.2591016776859760284423828125</LatitudeDegrees>
              <LongitudeDegrees>-2.52529375255107879638671875</LongitudeDegrees>
            </Position>
            <AltitudeMeters>127.59999847412109375</AltitudeMeters>
            <DistanceMeters>NAN</DistanceMeters>
          </Trackpoint>
          <Trackpoint>
            <Time>2022-07-11T09:12:22.000Z</Time>
            <Position>
              <LatitudeDegrees>43.25906538404524326324462890625</LatitudeDegrees>
              <LongitudeDegrees>-2.52528746612370014190673828125</LongitudeDegrees>
            </Position>
            <AltitudeMeters>128</AltitudeMeters>
            <DistanceMeters>NAN</DistanceMeters>
          </Trackpoint>
          <Trackpoint>
            <Time>2022-07-11T09:12:26.000Z</Time>
            <Position>
              <LatitudeDegrees>43.25902850367128849029541015625</LatitudeDegrees>
              <LongitudeDegrees>-2.52528729848563671112060546875</LongitudeDegrees>
            </Position>
            <AltitudeMeters>128.1999969482421875</AltitudeMeters>
            <DistanceMeters>NAN</DistanceMeters>
          </Trackpoint>
          <Trackpoint>
            <Time>2022-07-11T09:12:27.000Z</Time>
            <Position>
              <LatitudeDegrees>43.25901811011135578155517578125</LatitudeDegrees>
              <LongitudeDegrees>-2.52529333345592021942138671875</LongitudeDegrees>
            </Position>
            <AltitudeMeters>128</AltitudeMeters>
            <DistanceMeters>NAN</DistanceMeters>
          </Trackpoint>
          <Trackpoint>
            <Time>2022-07-11T09:12:28.000Z</Time>
            <Position>
              <LatitudeDegrees>43.2590004242956638336181640625</LatitudeDegrees>
              <LongitudeDegrees>-2.52529911696910858154296875</LongitudeDegrees>
            </Position>
            <AltitudeMeters>128.1999969482421875</AltitudeMeters>
            <DistanceMeters>NAN</DistanceMeters>
          </Trackpoint>
          <Trackpoint>
            <Time>2022-07-11T09:12:31.000Z</Time>
            <Position>
              <LatitudeDegrees>43.2589454390108585357666015625</LatitudeDegrees>
              <LongitudeDegrees>-2.52531261183321475982666015625</LongitudeDegrees>
            </Position>
            <AltitudeMeters>128.1999969482421875</AltitudeMeters>
            <DistanceMeters>NAN</DistanceMeters>
          </Trackpoint>
          <Trackpoint>
            <Time>2022-07-11T09:12:33.000Z</Time>
            <Position>
              <LatitudeDegrees>43.25889338739216327667236328125</LatitudeDegrees>
              <LongitudeDegrees>-2.52535351552069187164306640625</LongitudeDegrees>
            </Position>
            <AltitudeMeters>127.8000030517578125</AltitudeMeters>
            <DistanceMeters>NAN</DistanceMeters>
          </Trackpoint>
          <Trackpoint>
            <Time>2022-07-11T09:12:35.000Z</Time>
            <Position>
              <LatitudeDegrees>43.258865140378475189208984375</LatitudeDegrees>
              <LongitudeDegrees>-2.52537245862185955047607421875</LongitudeDegrees>
            </Position>
            <AltitudeMeters>127.1999969482421875</AltitudeMeters>
            <DistanceMeters>NAN</DistanceMeters>
          </Trackpoint>
          <Trackpoint>
            <Time>2022-07-11T09:12:36.000Z</Time>
            <Position>
              <LatitudeDegrees>43.25879774987697601318359375</LatitudeDegrees>
              <LongitudeDegrees>-2.52541973255574703216552734375</LongitudeDegrees>
            </Position>
            <AltitudeMeters>127.1999969482421875</AltitudeMeters>
            <DistanceMeters>NAN</DistanceMeters>
          </Trackpoint>
          <Trackpoint>
            <Time>2022-07-11T09:12:37.000Z</Time>
            <Position>
              <LatitudeDegrees>43.258753158152103424072265625</LatitudeDegrees>
              <LongitudeDegrees>-2.5254655815660953521728515625</LongitudeDegrees>
            </Position>
            <AltitudeMeters>127</AltitudeMeters>
            <DistanceMeters>NAN</DistanceMeters>
          </Trackpoint>
          <Trackpoint>
            <Time>2022-07-11T09:12:38.000Z</Time>
            <Position>
              <LatitudeDegrees>43.25871518813073635101318359375</LatitudeDegrees>
              <LongitudeDegrees>-2.5255095027387142181396484375</LongitudeDegrees>
            </Position>
            <AltitudeMeters>126.8000030517578125</AltitudeMeters>
            <DistanceMeters>NAN</DistanceMeters>
          </Trackpoint>
          <Trackpoint>
            <Time>2022-07-11T09:12:43.000Z</Time>
            <Position>
              <LatitudeDegrees>43.258527182042598724365234375</LatitudeDegrees>
              <LongitudeDegrees>-2.5256431102752685546875</LongitudeDegrees>
            </Position>
            <AltitudeMeters>126.8000030517578125</AltitudeMeters>
            <DistanceMeters>NAN</DistanceMeters>
          </Trackpoint>
          <Trackpoint>
            <Time>2022-07-11T09:12:48.000Z</Time>
            <Position>
              <LatitudeDegrees>43.2583992742002010345458984375</LatitudeDegrees>
              <LongitudeDegrees>-2.52575802616775035858154296875</LongitudeDegrees>
            </Position>
            <AltitudeMeters>127.1999969482421875</AltitudeMeters>
            <DistanceMeters>NAN</DistanceMeters>
          </Trackpoint>
          <Trackpoint>
            <Time>2022-07-11T09:12:51.000Z</Time>
            <Position>
              <LatitudeDegrees>43.25833029113709926605224609375</LatitudeDegrees>
              <LongitudeDegrees>-2.5258192978799343109130859375</LongitudeDegrees>
            </Position>
            <AltitudeMeters>127.40000152587890625</AltitudeMeters>
            <DistanceMeters>NAN</DistanceMeters>
          </Trackpoint>
          <Trackpoint>
            <Time>2022-07-11T09:12:53.000Z</Time>
            <Position>
              <LatitudeDegrees>43.25829089619219303131103515625</LatitudeDegrees>
              <LongitudeDegrees>-2.52585559152066707611083984375</LongitudeDegrees>
            </Position>
            <AltitudeMeters>127.40000152587890625</AltitudeMeters>
            <DistanceMeters>NAN</DistanceMeters>
          </Trackpoint>
          <Trackpoint>
            <Time>2022-07-11T09:12:56.000Z</Time>
            <Position>
              <LatitudeDegrees>43.25824814848601818084716796875</LatitudeDegrees>
              <LongitudeDegrees>-2.52590806223452091217041015625</LongitudeDegrees>
            </Position>
            <AltitudeMeters>128</AltitudeMeters>
            <DistanceMeters>NAN</DistanceMeters>
          </Trackpoint>
          <Trackpoint>
            <Time>2022-07-11T09:12:57.000Z</Time>
            <Position>
              <LatitudeDegrees>43.25822484679520130157470703125</LatitudeDegrees>
              <LongitudeDegrees>-2.525917030870914459228515625</LongitudeDegrees>
            </Position>
            <AltitudeMeters>128.1999969482421875</AltitudeMeters>
            <DistanceMeters>NAN</DistanceMeters>
          </Trackpoint>
          <Trackpoint>
            <Time>2022-07-11T09:12:59.000Z</Time>
            <Position>
              <LatitudeDegrees>43.25819685123860836029052734375</LatitudeDegrees>
              <LongitudeDegrees>-2.5259708426892757415771484375</LongitudeDegrees>
            </Position>
            <AltitudeMeters>128.600006103515625</AltitudeMeters>
            <DistanceMeters>NAN</DistanceMeters>
          </Trackpoint>
          <Trackpoint>
            <Time>2022-07-11T09:13:00.000Z</Time>
            <Position>
              <LatitudeDegrees>43.2581826858222484588623046875</LatitudeDegrees>
              <LongitudeDegrees>-2.52600965090095996856689453125</LongitudeDegrees>
            </Position>
            <AltitudeMeters>129</AltitudeMeters>
            <DistanceMeters>NAN</DistanceMeters>
          </Trackpoint>
          <Trackpoint>
            <Time>2022-07-11T09:13:01.000Z</Time>
            <Position>
              <LatitudeDegrees>43.25817941688001155853271484375</LatitudeDegrees>
              <LongitudeDegrees>-2.52602507360279560089111328125</LongitudeDegrees>
            </Position>
            <AltitudeMeters>129.1999969482421875</AltitudeMeters>
            <DistanceMeters>NAN</DistanceMeters>
          </Trackpoint>
          <Trackpoint>
            <Time>2022-07-11T09:13:06.000Z</Time>
            <Position>
              <LatitudeDegrees>43.25810976326465606689453125</LatitudeDegrees>
              <LongitudeDegrees>-2.52604133449494838714599609375</LongitudeDegrees>
            </Position>
            <AltitudeMeters>129.600006103515625</AltitudeMeters>
            <DistanceMeters>NAN</DistanceMeters>
          </Trackpoint>
          <Trackpoint>
            <Time>2022-07-11T09:13:10.000Z</Time>
            <Position>
              <LatitudeDegrees>43.25805033557116985321044921875</LatitudeDegrees>
              <LongitudeDegrees>-2.52605793066322803497314453125</LongitudeDegrees>
            </Position>
            <AltitudeMeters>130.399993896484375</AltitudeMeters>
            <DistanceMeters>NAN</DistanceMeters>
          </Trackpoint>
          <Trackpoint>
            <Time>2022-07-11T09:13:13.000Z</Time>
            <Position>
              <LatitudeDegrees>43.258006833493709564208984375</LatitudeDegrees>
              <LongitudeDegrees>-2.52606882713735103607177734375</LongitudeDegrees>
            </Position>
            <AltitudeMeters>131.1999969482421875</AltitudeMeters>
            <DistanceMeters>NAN</DistanceMeters>
          </Trackpoint>
          <Trackpoint>
            <Time>2022-07-11T09:13:17.000Z</Time>
            <Position>
              <LatitudeDegrees>43.25794572941958904266357421875</LatitudeDegrees>
              <LongitudeDegrees>-2.5261200405657291412353515625</LongitudeDegrees>
            </Position>
            <AltitudeMeters>131.399993896484375</AltitudeMeters>
            <DistanceMeters>NAN</DistanceMeters>
          </Trackpoint>
          <Trackpoint>
            <Time>2022-07-11T09:13:21.000Z</Time>
            <Position>
              <LatitudeDegrees>43.25788705609738826751708984375</LatitudeDegrees>
              <LongitudeDegrees>-2.526126913726329803466796875</LongitudeDegrees>
            </Position>
            <AltitudeMeters>131.399993896484375</AltitudeMeters>
            <DistanceMeters>NAN</DistanceMeters>
          </Trackpoint>
          <Trackpoint>
            <Time>2022-07-11T09:13:29.000Z</Time>
            <Position>
              <LatitudeDegrees>43.25772176496684551239013671875</LatitudeDegrees>
              <LongitudeDegrees>-2.52611710689961910247802734375</LongitudeDegrees>
            </Position>
            <AltitudeMeters>131.8000030517578125</AltitudeMeters>
            <DistanceMeters>NAN</DistanceMeters>
          </Trackpoint>
          <Trackpoint>
            <Time>2022-07-11T09:13:31.000Z</Time>
            <Position>
              <LatitudeDegrees>43.25766962952911853790283203125</LatitudeDegrees>
              <LongitudeDegrees>-2.52612716518342494964599609375</LongitudeDegrees>
            </Position>
            <AltitudeMeters>131.600006103515625</AltitudeMeters>
            <DistanceMeters>NAN</DistanceMeters>
          </Trackpoint>
          <Trackpoint>
            <Time>2022-07-11T09:13:32.000Z</Time>
            <Position>
              <LatitudeDegrees>43.25764347799122333526611328125</LatitudeDegrees>
              <LongitudeDegrees>-2.52613102085888385772705078125</LongitudeDegrees>
            </Position>
            <AltitudeMeters>131.600006103515625</AltitudeMeters>
            <DistanceMeters>NAN</DistanceMeters>
          </Trackpoint>
          <Trackpoint>
            <Time>2022-07-11T09:13:34.000Z</Time>
            <Position>
              <LatitudeDegrees>43.257584385573863983154296875</LatitudeDegrees>
              <LongitudeDegrees>-2.52613068558275699615478515625</LongitudeDegrees>
            </Position>
            <AltitudeMeters>131.600006103515625</AltitudeMeters>
            <DistanceMeters>NAN</DistanceMeters>
          </Trackpoint>
          <Trackpoint>
            <Time>2022-07-11T09:13:36.000Z</Time>
            <Position>
              <LatitudeDegrees>43.25752772390842437744140625</LatitudeDegrees>
              <LongitudeDegrees>-2.52613596618175506591796875</LongitudeDegrees>
            </Position>
            <AltitudeMeters>131.399993896484375</AltitudeMeters>
            <DistanceMeters>NAN</DistanceMeters>
          </Trackpoint>
          <Trackpoint>
            <Time>2022-07-11T09:13:42.000Z</Time>
            <Position>
              <LatitudeDegrees>43.257400654256343841552734375</LatitudeDegrees>
              <LongitudeDegrees>-2.52616002224385738372802734375</LongitudeDegrees>
            </Position>
            <AltitudeMeters>131</AltitudeMeters>
            <DistanceMeters>NAN</DistanceMeters>
          </Trackpoint>
          <Trackpoint>
            <Time>2022-07-11T09:13:43.000Z</Time>
            <Position>
              <LatitudeDegrees>43.25736972503364086151123046875</LatitudeDegrees>
              <LongitudeDegrees>-2.5261770375072956085205078125</LongitudeDegrees>
            </Position>
            <AltitudeMeters>131</AltitudeMeters>
            <DistanceMeters>NAN</DistanceMeters>
          </Trackpoint>
          <Trackpoint>
            <Time>2022-07-11T09:13:46.000Z</Time>
            <Position>
              <LatitudeDegrees>43.2572559826076030731201171875</LatitudeDegrees>
              <LongitudeDegrees>-2.52625859342515468597412109375</LongitudeDegrees>
            </Position>
            <AltitudeMeters>131</AltitudeMeters>
            <DistanceMeters>NAN</DistanceMeters>
          </Trackpoint>
          <Trackpoint>
            <Time>2022-07-11T09:13:47.000Z</Time>
            <Position>
              <LatitudeDegrees>43.257216922938823699951171875</LatitudeDegrees>
              <LongitudeDegrees>-2.5262789614498615264892578125</LongitudeDegrees>
            </Position>
            <AltitudeMeters>130.8000030517578125</AltitudeMeters>
            <DistanceMeters>NAN</DistanceMeters>
          </Trackpoint>
          <Trackpoint>
            <Time>2022-07-11T09:13:49.000Z</Time>
            <Position>
              <LatitudeDegrees>43.25714140199124813079833984375</LatitudeDegrees>
              <LongitudeDegrees>-2.5263077951967716217041015625</LongitudeDegrees>
            </Position>
            <AltitudeMeters>130.399993896484375</AltitudeMeters>
            <DistanceMeters>NAN</DistanceMeters>
          </Trackpoint>
          <Trackpoint>
            <Time>2022-07-11T09:13:52.000Z</Time>
            <Position>
              <LatitudeDegrees>43.25707308948040008544921875</LatitudeDegrees>
              <LongitudeDegrees>-2.5263252295553684234619140625</LongitudeDegrees>
            </Position>
            <AltitudeMeters>129.8000030517578125</AltitudeMeters>
            <DistanceMeters>NAN</DistanceMeters>
          </Trackpoint>
          <Trackpoint>
            <Time>2022-07-11T09:13:53.000Z</Time>
            <Position>
              <LatitudeDegrees>43.2570618577301502227783203125</LatitudeDegrees>
              <LongitudeDegrees>-2.52632531337440013885498046875</LongitudeDegrees>
            </Position>
            <AltitudeMeters>129.600006103515625</AltitudeMeters>
            <DistanceMeters>NAN</DistanceMeters>
          </Trackpoint>
          <Trackpoint>
            <Time>2022-07-11T09:13:55.000Z</Time>
            <Position>
              <LatitudeDegrees>43.25702615082263946533203125</LatitudeDegrees>
              <LongitudeDegrees>-2.52634559758007526397705078125</LongitudeDegrees>
            </Position>
            <AltitudeMeters>129.399993896484375</AltitudeMeters>
            <DistanceMeters>NAN</DistanceMeters>
          </Trackpoint>
          <Trackpoint>
            <Time>2022-07-11T09:13:56.000Z</Time>
            <Position>
              <LatitudeDegrees>43.25700779445469379425048828125</LatitudeDegrees>
              <LongitudeDegrees>-2.52637007273733615875244140625</LongitudeDegrees>
            </Position>
            <AltitudeMeters>129.1999969482421875</AltitudeMeters>
            <DistanceMeters>NAN</DistanceMeters>
          </Trackpoint>
          <Trackpoint>
            <Time>2022-07-11T09:14:00.000Z</Time>
            <Position>
              <LatitudeDegrees>43.2569632865488529205322265625</LatitudeDegrees>
              <LongitudeDegrees>-2.52645053900778293609619140625</LongitudeDegrees>
            </Position>
            <AltitudeMeters>128.8000030517578125</AltitudeMeters>
            <DistanceMeters>NAN</DistanceMeters>
          </Trackpoint>
          <Trackpoint>
            <Time>2022-07-11T09:14:01.000Z</Time>
            <Position>
              <LatitudeDegrees>43.2569624483585357666015625</LatitudeDegrees>
              <LongitudeDegrees>-2.5264533050358295440673828125</LongitudeDegrees>
            </Position>
            <AltitudeMeters>128.600006103515625</AltitudeMeters>
            <DistanceMeters>NAN</DistanceMeters>
          </Trackpoint>
          <Trackpoint>
            <Time>2022-07-11T09:14:03.000Z</Time>
            <Position>
              <LatitudeDegrees>43.2569624483585357666015625</LatitudeDegrees>
              <LongitudeDegrees>-2.5264533050358295440673828125</LongitudeDegrees>
            </Position>
            <AltitudeMeters>128.600006103515625</AltitudeMeters>
            <DistanceMeters>NAN</DistanceMeters>
          </Trackpoint>
          <Trackpoint>
            <Time>2022-07-11T09:15:30.000Z</Time>
            <Position>
              <LatitudeDegrees>43.25689229182898998260498046875</LatitudeDegrees>
              <LongitudeDegrees>-2.52654240466654300689697265625</LongitudeDegrees>
            </Position>
            <AltitudeMeters>129.1999969482421875</AltitudeMeters>
            <DistanceMeters>NAN</DistanceMeters>
          </Trackpoint>
          <Trackpoint>
            <Time>2022-07-11T09:15:32.000Z</Time>
            <Position>
              <LatitudeDegrees>43.2568627037107944488525390625</LatitudeDegrees>
              <LongitudeDegrees>-2.5265652872622013092041015625</LongitudeDegrees>
            </Position>
            <AltitudeMeters>129.399993896484375</AltitudeMeters>
            <DistanceMeters>NAN</DistanceMeters>
          </Trackpoint>
          <Trackpoint>
            <Time>2022-07-11T09:15:39.000Z</Time>
            <Position>
              <LatitudeDegrees>43.2567420043051242828369140625</LatitudeDegrees>
              <LongitudeDegrees>-2.5266407243907451629638671875</LongitudeDegrees>
            </Position>
            <AltitudeMeters>130</AltitudeMeters>
            <DistanceMeters>NAN</DistanceMeters>
          </Trackpoint>
          <Trackpoint>
            <Time>2022-07-11T09:15:41.000Z</Time>
            <Position>
              <LatitudeDegrees>43.25668928213417530059814453125</LatitudeDegrees>
              <LongitudeDegrees>-2.5266695581376552581787109375</LongitudeDegrees>
            </Position>
            <AltitudeMeters>130</AltitudeMeters>
            <DistanceMeters>NAN</DistanceMeters>
          </Trackpoint>
          <Trackpoint>
            <Time>2022-07-11T09:15:45.000Z</Time>
            <Position>
              <LatitudeDegrees>43.2566065527498722076416015625</LatitudeDegrees>
              <LongitudeDegrees>-2.52667936496436595916748046875</LongitudeDegrees>
            </Position>
            <AltitudeMeters>130.399993896484375</AltitudeMeters>
            <DistanceMeters>NAN</DistanceMeters>
          </Trackpoint>
          <Trackpoint>
            <Time>2022-07-11T09:15:46.000Z</Time>
            <Position>
              <LatitudeDegrees>43.25659255497157573699951171875</LatitudeDegrees>
              <LongitudeDegrees>-2.52667265944182872772216796875</LongitudeDegrees>
            </Position>
            <AltitudeMeters>130.399993896484375</AltitudeMeters>
            <DistanceMeters>NAN</DistanceMeters>
          </Trackpoint>
          <Trackpoint>
            <Time>2022-07-11T09:15:49.000Z</Time>
            <Position>
              <LatitudeDegrees>43.25654075480997562408447265625</LatitudeDegrees>
              <LongitudeDegrees>-2.52666008658707141876220703125</LongitudeDegrees>
            </Position>
            <AltitudeMeters>131</AltitudeMeters>
            <DistanceMeters>NAN</DistanceMeters>
          </Trackpoint>
          <Trackpoint>
            <Time>2022-07-11T09:15:52.000Z</Time>
            <Position>
              <LatitudeDegrees>43.25648811645805835723876953125</LatitudeDegrees>
              <LongitudeDegrees>-2.5266261398792266845703125</LongitudeDegrees>
            </Position>
            <AltitudeMeters>131.1999969482421875</AltitudeMeters>
            <DistanceMeters>NAN</DistanceMeters>
          </Trackpoint>
          <Trackpoint>
            <Time>2022-07-11T09:15:56.000Z</Time>
            <Position>
              <LatitudeDegrees>43.25641058385372161865234375</LatitudeDegrees>
              <LongitudeDegrees>-2.52661784179508686065673828125</LongitudeDegrees>
            </Position>
            <AltitudeMeters>131.600006103515625</AltitudeMeters>
            <DistanceMeters>NAN</DistanceMeters>
          </Trackpoint>
          <Trackpoint>
            <Time>2022-07-11T09:15:58.000Z</Time>
            <Position>
              <LatitudeDegrees>43.25638216920197010040283203125</LatitudeDegrees>
              <LongitudeDegrees>-2.52661381848156452178955078125</LongitudeDegrees>
            </Position>
            <AltitudeMeters>131.8000030517578125</AltitudeMeters>
            <DistanceMeters>NAN</DistanceMeters>
          </Trackpoint>
          <Trackpoint>
            <Time>2022-07-11T09:16:03.000Z</Time>
            <Position>
              <LatitudeDegrees>43.25627689249813556671142578125</LatitudeDegrees>
              <LongitudeDegrees>-2.52661666832864284515380859375</LongitudeDegrees>
            </Position>
            <AltitudeMeters>132.600006103515625</AltitudeMeters>
            <DistanceMeters>NAN</DistanceMeters>
          </Trackpoint>
          <Trackpoint>
            <Time>2022-07-11T09:16:05.000Z</Time>
            <Position>
              <LatitudeDegrees>43.2562431134283542633056640625</LatitudeDegrees>
              <LongitudeDegrees>-2.52660677768290042877197265625</LongitudeDegrees>
            </Position>
            <AltitudeMeters>132.8000030517578125</AltitudeMeters>
            <DistanceMeters>NAN</DistanceMeters>
          </Trackpoint>
          <Trackpoint>
            <Time>2022-07-11T09:16:07.000Z</Time>
            <Position>
              <LatitudeDegrees>43.25619240291416645050048828125</LatitudeDegrees>
              <LongitudeDegrees>-2.52659219317138195037841796875</LongitudeDegrees>
            </Position>
            <AltitudeMeters>133</AltitudeMeters>
            <DistanceMeters>NAN</DistanceMeters>
          </Trackpoint>
          <Trackpoint>
            <Time>2022-07-11T09:16:11.000Z</Time>
            <Position>
              <LatitudeDegrees>43.25612601824104785919189453125</LatitudeDegrees>
              <LongitudeDegrees>-2.52664231695234775543212890625</LongitudeDegrees>
            </Position>
            <AltitudeMeters>133.600006103515625</AltitudeMeters>
            <DistanceMeters>NAN</DistanceMeters>
          </Trackpoint>
          <Trackpoint>
            <Time>2022-07-11T09:16:12.000Z</Time>
            <Position>
              <LatitudeDegrees>43.25607664883136749267578125</LatitudeDegrees>
              <LongitudeDegrees>-2.5266474299132823944091796875</LongitudeDegrees>
            </Position>
            <AltitudeMeters>133.600006103515625</AltitudeMeters>
            <DistanceMeters>NAN</DistanceMeters>
          </Trackpoint>
          <Trackpoint>
            <Time>2022-07-11T09:16:18.000Z</Time>
            <Position>
              <LatitudeDegrees>43.255948238074779510498046875</LatitudeDegrees>
              <LongitudeDegrees>-2.52666427753865718841552734375</LongitudeDegrees>
            </Position>
            <AltitudeMeters>133.8000030517578125</AltitudeMeters>
            <DistanceMeters>NAN</DistanceMeters>
          </Trackpoint>
          <Trackpoint>
            <Time>2022-07-11T09:16:25.000Z</Time>
            <Position>
              <LatitudeDegrees>43.2557817734777927398681640625</LatitudeDegrees>
              <LongitudeDegrees>-2.52675211988389492034912109375</LongitudeDegrees>
            </Position>
            <AltitudeMeters>134</AltitudeMeters>
            <DistanceMeters>NAN</DistanceMeters>
          </Trackpoint>
          <Trackpoint>
            <Time>2022-07-11T09:16:30.000Z</Time>
            <Position>
              <LatitudeDegrees>43.2556481659412384033203125</LatitudeDegrees>
              <LongitudeDegrees>-2.52681230194866657257080078125</LongitudeDegrees>
            </Position>
            <AltitudeMeters>133.8000030517578125</AltitudeMeters>
            <DistanceMeters>NAN</DistanceMeters>
          </Trackpoint>
          <Trackpoint>
            <Time>2022-07-11T09:16:32.000Z</Time>
            <Position>
              <LatitudeDegrees>43.25557398609817028045654296875</LatitudeDegrees>
              <LongitudeDegrees>-2.5268445722758769989013671875</LongitudeDegrees>
            </Position>
            <AltitudeMeters>133.600006103515625</AltitudeMeters>
            <DistanceMeters>NAN</DistanceMeters>
          </Trackpoint>
          <Trackpoint>
            <Time>2022-07-11T09:16:34.000Z</Time>
            <Position>
              <LatitudeDegrees>43.255521096289157867431640625</LatitudeDegrees>
              <LongitudeDegrees>-2.52685882151126861572265625</LongitudeDegrees>
            </Position>
            <AltitudeMeters>133.399993896484375</AltitudeMeters>
            <DistanceMeters>NAN</DistanceMeters>
          </Trackpoint>
          <Trackpoint>
            <Time>2022-07-11T09:16:37.000Z</Time>
            <Position>
              <LatitudeDegrees>43.2554190047085285186767578125</LatitudeDegrees>
              <LongitudeDegrees>-2.5268713943660259246826171875</LongitudeDegrees>
            </Position>
            <AltitudeMeters>133.399993896484375</AltitudeMeters>
            <DistanceMeters>NAN</DistanceMeters>
          </Trackpoint>
          <Trackpoint>
            <Time>2022-07-11T09:16:40.000Z</Time>
            <Position>
              <LatitudeDegrees>43.25527424924075603485107421875</LatitudeDegrees>
              <LongitudeDegrees>-2.526881285011768341064453125</LongitudeDegrees>
            </Position>
            <AltitudeMeters>132.8000030517578125</AltitudeMeters>
            <DistanceMeters>NAN</DistanceMeters>
          </Trackpoint>
          <Trackpoint>
            <Time>2022-07-11T09:16:41.000Z</Time>
            <Position>
              <LatitudeDegrees>43.25523334555327892303466796875</LatitudeDegrees>
              <LongitudeDegrees>-2.526891343295574188232421875</LongitudeDegrees>
            </Position>
            <AltitudeMeters>132.8000030517578125</AltitudeMeters>
            <DistanceMeters>NAN</DistanceMeters>
          </Trackpoint>
          <Trackpoint>
            <Time>2022-07-11T09:16:42.000Z</Time>
            <Position>
              <LatitudeDegrees>43.2551816292107105255126953125</LatitudeDegrees>
              <LongitudeDegrees>-2.526902742683887481689453125</LongitudeDegrees>
            </Position>
            <AltitudeMeters>132.8000030517578125</AltitudeMeters>
            <DistanceMeters>NAN</DistanceMeters>
          </Trackpoint>
          <Trackpoint>
            <Time>2022-07-11T09:16:43.000Z</Time>
            <Position>
              <LatitudeDegrees>43.2551434077322483062744140625</LatitudeDegrees>
              <LongitudeDegrees>-2.52691707573831081390380859375</LongitudeDegrees>
            </Position>
            <AltitudeMeters>132.8000030517578125</AltitudeMeters>
            <DistanceMeters>NAN</DistanceMeters>
          </Trackpoint>
          <Trackpoint>
            <Time>2022-07-11T09:16:46.000Z</Time>
            <Position>
              <LatitudeDegrees>43.25501851737499237060546875</LatitudeDegrees>
              <LongitudeDegrees>-2.5269515253603458404541015625</LongitudeDegrees>
            </Position>
            <AltitudeMeters>132.399993896484375</AltitudeMeters>
            <DistanceMeters>NAN</DistanceMeters>
          </Trackpoint>
          <Trackpoint>
            <Time>2022-07-11T09:16:50.000Z</Time>
            <Position>
              <LatitudeDegrees>43.2548247277736663818359375</LatitudeDegrees>
              <LongitudeDegrees>-2.5270011462271213531494140625</LongitudeDegrees>
            </Position>
            <AltitudeMeters>131.600006103515625</AltitudeMeters>
            <DistanceMeters>NAN</DistanceMeters>
          </Trackpoint>
          <Trackpoint>
            <Time>2022-07-11T09:16:56.000Z</Time>
            <Position>
              <LatitudeDegrees>43.254566900432109832763671875</LatitudeDegrees>
              <LongitudeDegrees>-2.5270722247660160064697265625</LongitudeDegrees>
            </Position>
            <AltitudeMeters>131.600006103515625</AltitudeMeters>
            <DistanceMeters>NAN</DistanceMeters>
          </Trackpoint>
          <Trackpoint>
            <Time>2022-07-11T09:17:01.000Z</Time>
            <Position>
              <LatitudeDegrees>43.25440772809088230133056640625</LatitudeDegrees>
              <LongitudeDegrees>-2.5270812772214412689208984375</LongitudeDegrees>
            </Position>
            <AltitudeMeters>131.600006103515625</AltitudeMeters>
            <DistanceMeters>NAN</DistanceMeters>
          </Trackpoint>
          <Trackpoint>
            <Time>2022-07-11T09:17:02.000Z</Time>
            <Position>
              <LatitudeDegrees>43.25438643805682659149169921875</LatitudeDegrees>
              <LongitudeDegrees>-2.527081109583377838134765625</LongitudeDegrees>
            </Position>
            <AltitudeMeters>131.600006103515625</AltitudeMeters>
            <DistanceMeters>NAN</DistanceMeters>
          </Trackpoint>
          <Trackpoint>
            <Time>2022-07-11T09:17:07.000Z</Time>
            <Position>
              <LatitudeDegrees>43.25428493320941925048828125</LatitudeDegrees>
              <LongitudeDegrees>-2.527152188122272491455078125</LongitudeDegrees>
            </Position>
            <AltitudeMeters>131.600006103515625</AltitudeMeters>
            <DistanceMeters>NAN</DistanceMeters>
          </Trackpoint>
          <Trackpoint>
            <Time>2022-07-11T09:17:12.000Z</Time>
            <Position>
              <LatitudeDegrees>43.25418510474264621734619140625</LatitudeDegrees>
              <LongitudeDegrees>-2.5272053293883800506591796875</LongitudeDegrees>
            </Position>
            <AltitudeMeters>132.1999969482421875</AltitudeMeters>
            <DistanceMeters>NAN</DistanceMeters>
          </Trackpoint>
          <Trackpoint>
            <Time>2022-07-11T09:17:18.000Z</Time>
            <Position>
              <LatitudeDegrees>43.25408753938972949981689453125</LatitudeDegrees>
              <LongitudeDegrees>-2.52728939987719058990478515625</LongitudeDegrees>
            </Position>
            <AltitudeMeters>133.1999969482421875</AltitudeMeters>
            <DistanceMeters>NAN</DistanceMeters>
          </Trackpoint>
          <Trackpoint>
            <Time>2022-07-11T09:17:19.000Z</Time>
            <Position>
              <LatitudeDegrees>43.25406775809824466705322265625</LatitudeDegrees>
              <LongitudeDegrees>-2.52731018699705600738525390625</LongitudeDegrees>
            </Position>
            <AltitudeMeters>133.1999969482421875</AltitudeMeters>
            <DistanceMeters>NAN</DistanceMeters>
          </Trackpoint>
          <Trackpoint>
            <Time>2022-07-11T09:17:21.000Z</Time>
            <Position>
              <LatitudeDegrees>43.25404353439807891845703125</LatitudeDegrees>
              <LongitudeDegrees>-2.5273396074771881103515625</LongitudeDegrees>
            </Position>
            <AltitudeMeters>133.600006103515625</AltitudeMeters>
            <DistanceMeters>NAN</DistanceMeters>
          </Trackpoint>
          <Trackpoint>
            <Time>2022-07-11T09:17:22.000Z</Time>
            <Position>
              <LatitudeDegrees>43.2540329732000827789306640625</LatitudeDegrees>
              <LongitudeDegrees>-2.52735209651291370391845703125</LongitudeDegrees>
            </Position>
            <AltitudeMeters>134</AltitudeMeters>
            <DistanceMeters>NAN</DistanceMeters>
          </Trackpoint>
          <Trackpoint>
            <Time>2022-07-11T09:17:25.000Z</Time>
            <Position>
              <LatitudeDegrees>43.25399567373096942901611328125</LatitudeDegrees>
              <LongitudeDegrees>-2.52739450894296169281005859375</LongitudeDegrees>
            </Position>
            <AltitudeMeters>134.1999969482421875</AltitudeMeters>
            <DistanceMeters>NAN</DistanceMeters>
          </Trackpoint>
          <Trackpoint>
            <Time>2022-07-11T09:17:28.000Z</Time>
            <Position>
              <LatitudeDegrees>43.25397237204015254974365234375</LatitudeDegrees>
              <LongitudeDegrees>-2.52743289805948734283447265625</LongitudeDegrees>
            </Position>
            <AltitudeMeters>134.600006103515625</AltitudeMeters>
            <DistanceMeters>NAN</DistanceMeters>
          </Trackpoint>
          <Trackpoint>
            <Time>2022-07-11T09:17:30.000Z</Time>
            <Position>
              <LatitudeDegrees>43.25394521467387676239013671875</LatitudeDegrees>
              <LongitudeDegrees>-2.52746039070188999176025390625</LongitudeDegrees>
            </Position>
            <AltitudeMeters>134.8000030517578125</AltitudeMeters>
            <DistanceMeters>NAN</DistanceMeters>
          </Trackpoint>
          <Trackpoint>
            <Time>2022-07-11T09:17:31.000Z</Time>
            <Position>
              <LatitudeDegrees>43.253933228552341461181640625</LatitudeDegrees>
              <LongitudeDegrees>-2.52747078426182270050048828125</LongitudeDegrees>
            </Position>
            <AltitudeMeters>134.8000030517578125</AltitudeMeters>
            <DistanceMeters>NAN</DistanceMeters>
          </Trackpoint>
          <Trackpoint>
            <Time>2022-07-11T09:17:35.000Z</Time>
            <Position>
              <LatitudeDegrees>43.2538750581443309783935546875</LatitudeDegrees>
              <LongitudeDegrees>-2.52752442844212055206298828125</LongitudeDegrees>
            </Position>
            <AltitudeMeters>135.1999969482421875</AltitudeMeters>
            <DistanceMeters>NAN</DistanceMeters>
          </Trackpoint>
          <Trackpoint>
            <Time>2022-07-11T09:17:38.000Z</Time>
            <Position>
              <LatitudeDegrees>43.253836333751678466796875</LatitudeDegrees>
              <LongitudeDegrees>-2.5275442935526371002197265625</LongitudeDegrees>
            </Position>
            <AltitudeMeters>135.399993896484375</AltitudeMeters>
            <DistanceMeters>NAN</DistanceMeters>
          </Trackpoint>
          <Trackpoint>
            <Time>2022-07-11T09:17:45.000Z</Time>
            <Position>
              <LatitudeDegrees>43.2537624053657054901123046875</LatitudeDegrees>
              <LongitudeDegrees>-2.52759483642876148223876953125</LongitudeDegrees>
            </Position>
            <AltitudeMeters>135.399993896484375</AltitudeMeters>
            <DistanceMeters>NAN</DistanceMeters>
          </Trackpoint>
          <Trackpoint>
            <Time>2022-07-11T09:17:53.000Z</Time>
            <Position>
              <LatitudeDegrees>43.2536329887807369232177734375</LatitudeDegrees>
              <LongitudeDegrees>-2.5276921503245830535888671875</LongitudeDegrees>
            </Position>
            <AltitudeMeters>135.8000030517578125</AltitudeMeters>
            <DistanceMeters>NAN</DistanceMeters>
          </Trackpoint>
          <Trackpoint>
            <Time>2022-07-11T09:17:55.000Z</Time>
            <Position>
              <LatitudeDegrees>43.2535971142351627349853515625</LatitudeDegrees>
              <LongitudeDegrees>-2.52771654166281223297119140625</LongitudeDegrees>
            </Position>
            <AltitudeMeters>136</AltitudeMeters>
            <DistanceMeters>NAN</DistanceMeters>
          </Trackpoint>
          <Trackpoint>
            <Time>2022-07-11T09:18:02.000Z</Time>
            <Position>
              <LatitudeDegrees>43.2534388639032840728759765625</LatitudeDegrees>
              <LongitudeDegrees>-2.52781645394861698150634765625</LongitudeDegrees>
            </Position>
            <AltitudeMeters>135.8000030517578125</AltitudeMeters>
            <DistanceMeters>NAN</DistanceMeters>
          </Trackpoint>
          <Trackpoint>
            <Time>2022-07-11T09:18:04.000Z</Time>
            <Position>
              <LatitudeDegrees>43.25339335016906261444091796875</LatitudeDegrees>
              <LongitudeDegrees>-2.5278436951339244842529296875</LongitudeDegrees>
            </Position>
            <AltitudeMeters>135.8000030517578125</AltitudeMeters>
            <DistanceMeters>NAN</DistanceMeters>
          </Trackpoint>
          <Trackpoint>
            <Time>2022-07-11T09:18:07.000Z</Time>
            <Position>
              <LatitudeDegrees>43.2533339224755764007568359375</LatitudeDegrees>
              <LongitudeDegrees>-2.52788300625979900360107421875</LongitudeDegrees>
            </Position>
            <AltitudeMeters>135.600006103515625</AltitudeMeters>
            <DistanceMeters>NAN</DistanceMeters>
          </Trackpoint>
          <Trackpoint>
            <Time>2022-07-11T09:18:09.000Z</Time>
            <Position>
              <LatitudeDegrees>43.25328824110329151153564453125</LatitudeDegrees>
              <LongitudeDegrees>-2.52791837789118289947509765625</LongitudeDegrees>
            </Position>
            <AltitudeMeters>135.600006103515625</AltitudeMeters>
            <DistanceMeters>NAN</DistanceMeters>
          </Trackpoint>
          <Trackpoint>
            <Time>2022-07-11T09:18:11.000Z</Time>
            <Position>
              <LatitudeDegrees>43.25323887169361114501953125</LatitudeDegrees>
              <LongitudeDegrees>-2.5279593653976917266845703125</LongitudeDegrees>
            </Position>
            <AltitudeMeters>135.600006103515625</AltitudeMeters>
            <DistanceMeters>NAN</DistanceMeters>
          </Trackpoint>
          <Trackpoint>
            <Time>2022-07-11T09:18:13.000Z</Time>
            <Position>
              <LatitudeDegrees>43.253197968006134033203125</LatitudeDegrees>
              <LongitudeDegrees>-2.5279972516000270843505859375</LongitudeDegrees>
            </Position>
            <AltitudeMeters>135.600006103515625</AltitudeMeters>
            <DistanceMeters>NAN</DistanceMeters>
          </Trackpoint>
          <Trackpoint>
            <Time>2022-07-11T09:18:18.000Z</Time>
            <Position>
              <LatitudeDegrees>43.25310216285288333892822265625</LatitudeDegrees>
              <LongitudeDegrees>-2.52811811864376068115234375</LongitudeDegrees>
            </Position>
            <AltitudeMeters>135.600006103515625</AltitudeMeters>
            <DistanceMeters>NAN</DistanceMeters>
          </Trackpoint>
          <Trackpoint>
            <Time>2022-07-11T09:18:19.000Z</Time>
            <Position>
              <LatitudeDegrees>43.2530834712088108062744140625</LatitudeDegrees>
              <LongitudeDegrees>-2.52814301289618015289306640625</LongitudeDegrees>
            </Position>
            <AltitudeMeters>135.600006103515625</AltitudeMeters>
            <DistanceMeters>NAN</DistanceMeters>
          </Trackpoint>
          <Trackpoint>
            <Time>2022-07-11T09:18:25.000Z</Time>
            <Position>
              <LatitudeDegrees>43.25297341682016849517822265625</LatitudeDegrees>
              <LongitudeDegrees>-2.5282591022551059722900390625</LongitudeDegrees>
            </Position>
            <AltitudeMeters>136</AltitudeMeters>
            <DistanceMeters>NAN</DistanceMeters>
          </Trackpoint>
          <Trackpoint>
            <Time>2022-07-11T09:18:29.000Z</Time>
            <Position>
              <LatitudeDegrees>43.2528548128902912139892578125</LatitudeDegrees>
              <LongitudeDegrees>-2.52818140201270580291748046875</LongitudeDegrees>
            </Position>
            <AltitudeMeters>135.8000030517578125</AltitudeMeters>
            <DistanceMeters>NAN</DistanceMeters>
          </Trackpoint>
          <Trackpoint>
            <Time>2022-07-11T09:18:32.000Z</Time>
            <Position>
              <LatitudeDegrees>43.25280142016708850860595703125</LatitudeDegrees>
              <LongitudeDegrees>-2.52808987163007259368896484375</LongitudeDegrees>
            </Position>
            <AltitudeMeters>135.600006103515625</AltitudeMeters>
            <DistanceMeters>NAN</DistanceMeters>
          </Trackpoint>
          <Trackpoint>
            <Time>2022-07-11T09:18:34.000Z</Time>
            <Position>
              <LatitudeDegrees>43.25281349010765552520751953125</LatitudeDegrees>
              <LongitudeDegrees>-2.52801342867314815521240234375</LongitudeDegrees>
            </Position>
            <AltitudeMeters>135.399993896484375</AltitudeMeters>
            <DistanceMeters>NAN</DistanceMeters>
          </Trackpoint>
          <Trackpoint>
            <Time>2022-07-11T09:18:43.000Z</Time>
            <Position>
              <LatitudeDegrees>43.252907283604145050048828125</LatitudeDegrees>
              <LongitudeDegrees>-2.52758863382041454315185546875</LongitudeDegrees>
            </Position>
            <AltitudeMeters>135.399993896484375</AltitudeMeters>
            <DistanceMeters>NAN</DistanceMeters>
          </Trackpoint>
          <Trackpoint>
            <Time>2022-07-11T09:18:49.000Z</Time>
            <Position>
              <LatitudeDegrees>43.25285137630999088287353515625</LatitudeDegrees>
              <LongitudeDegrees>-2.5273454748094081878662109375</LongitudeDegrees>
            </Position>
            <AltitudeMeters>135.399993896484375</AltitudeMeters>
            <DistanceMeters>NAN</DistanceMeters>
          </Trackpoint>
          <Trackpoint>
            <Time>2022-07-11T09:18:54.000Z</Time>
            <Position>
              <LatitudeDegrees>43.2526945509016513824462890625</LatitudeDegrees>
              <LongitudeDegrees>-2.5272519327700138092041015625</LongitudeDegrees>
            </Position>
            <AltitudeMeters>135</AltitudeMeters>
            <DistanceMeters>NAN</DistanceMeters>
          </Trackpoint>
          <Trackpoint>
            <Time>2022-07-11T09:18:55.000Z</Time>
            <Position>
              <LatitudeDegrees>43.2526616938412189483642578125</LatitudeDegrees>
              <LongitudeDegrees>-2.5272350013256072998046875</LongitudeDegrees>
            </Position>
            <AltitudeMeters>135</AltitudeMeters>
            <DistanceMeters>NAN</DistanceMeters>
          </Trackpoint>
          <Trackpoint>
            <Time>2022-07-11T09:18:57.000Z</Time>
            <Position>
              <LatitudeDegrees>43.252602182328701019287109375</LatitudeDegrees>
              <LongitudeDegrees>-2.52721882425248622894287109375</LongitudeDegrees>
            </Position>
            <AltitudeMeters>134.8000030517578125</AltitudeMeters>
            <DistanceMeters>NAN</DistanceMeters>
          </Trackpoint>
          <Trackpoint>
            <Time>2022-07-11T09:18:58.000Z</Time>
            <Position>
              <LatitudeDegrees>43.25258248485624790191650390625</LatitudeDegrees>
              <LongitudeDegrees>-2.52723776735365390777587890625</LongitudeDegrees>
            </Position>
            <AltitudeMeters>134.8000030517578125</AltitudeMeters>
            <DistanceMeters>NAN</DistanceMeters>
          </Trackpoint>
          <Trackpoint>
            <Time>2022-07-11T09:19:00.000Z</Time>
            <Position>
              <LatitudeDegrees>43.2525637932121753692626953125</LatitudeDegrees>
              <LongitudeDegrees>-2.5272992067039012908935546875</LongitudeDegrees>
            </Position>
            <AltitudeMeters>134.8000030517578125</AltitudeMeters>
            <DistanceMeters>NAN</DistanceMeters>
          </Trackpoint>
          <Trackpoint>
            <Time>2022-07-11T09:19:03.000Z</Time>
            <Position>
              <LatitudeDegrees>43.25253772549331188201904296875</LatitudeDegrees>
              <LongitudeDegrees>-2.5274105183780193328857421875</LongitudeDegrees>
            </Position>
            <AltitudeMeters>134.399993896484375</AltitudeMeters>
            <DistanceMeters>NAN</DistanceMeters>
          </Trackpoint>
          <Trackpoint>
            <Time>2022-07-11T09:19:08.000Z</Time>
            <Position>
              <LatitudeDegrees>43.25250352732837200164794921875</LatitudeDegrees>
              <LongitudeDegrees>-2.52753683365881443023681640625</LongitudeDegrees>
            </Position>
            <AltitudeMeters>134.399993896484375</AltitudeMeters>
            <DistanceMeters>NAN</DistanceMeters>
          </Trackpoint>
          <Trackpoint>
            <Time>2022-07-11T09:19:13.000Z</Time>
            <Position>
              <LatitudeDegrees>43.252427168190479278564453125</LatitudeDegrees>
              <LongitudeDegrees>-2.52764697186648845672607421875</LongitudeDegrees>
            </Position>
            <AltitudeMeters>135.1999969482421875</AltitudeMeters>
            <DistanceMeters>NAN</DistanceMeters>
          </Trackpoint>
          <Trackpoint>
            <Time>2022-07-11T09:19:16.000Z</Time>
            <Position>
              <LatitudeDegrees>43.2523917965590953826904296875</LatitudeDegrees>
              <LongitudeDegrees>-2.52770028077065944671630859375</LongitudeDegrees>
            </Position>
            <AltitudeMeters>136</AltitudeMeters>
            <DistanceMeters>NAN</DistanceMeters>
          </Trackpoint>
          <Trackpoint>
            <Time>2022-07-11T09:19:17.000Z</Time>
            <Position>
              <LatitudeDegrees>43.25238316319882869720458984375</LatitudeDegrees>
              <LongitudeDegrees>-2.527716457843780517578125</LongitudeDegrees>
            </Position>
            <AltitudeMeters>136.1999969482421875</AltitudeMeters>
            <DistanceMeters>NAN</DistanceMeters>
          </Trackpoint>
          <Trackpoint>
            <Time>2022-07-11T09:19:20.000Z</Time>
            <Position>
              <LatitudeDegrees>43.2523490488529205322265625</LatitudeDegrees>
              <LongitudeDegrees>-2.5277625583112239837646484375</LongitudeDegrees>
            </Position>
            <AltitudeMeters>136.1999969482421875</AltitudeMeters>
            <DistanceMeters>NAN</DistanceMeters>
          </Trackpoint>
          <Trackpoint>
            <Time>2022-07-11T09:19:21.000Z</Time>
            <Position>
              <LatitudeDegrees>43.2523381523787975311279296875</LatitudeDegrees>
              <LongitudeDegrees>-2.52778024412691593170166015625</LongitudeDegrees>
            </Position>
            <AltitudeMeters>136.399993896484375</AltitudeMeters>
            <DistanceMeters>NAN</DistanceMeters>
          </Trackpoint>
          <Trackpoint>
            <Time>2022-07-11T09:19:25.000Z</Time>
            <Position>
              <LatitudeDegrees>43.25229297392070293426513671875</LatitudeDegrees>
              <LongitudeDegrees>-2.5278384983539581298828125</LongitudeDegrees>
            </Position>
            <AltitudeMeters>136.600006103515625</AltitudeMeters>
            <DistanceMeters>NAN</DistanceMeters>
          </Trackpoint>
          <Trackpoint>
            <Time>2022-07-11T09:19:26.000Z</Time>
            <Position>
              <LatitudeDegrees>43.252281658351421356201171875</LatitudeDegrees>
              <LongitudeDegrees>-2.52785752527415752410888671875</LongitudeDegrees>
            </Position>
            <AltitudeMeters>136.399993896484375</AltitudeMeters>
            <DistanceMeters>NAN</DistanceMeters>
          </Trackpoint>
          <Trackpoint>
            <Time>2022-07-11T09:19:32.000Z</Time>
            <Position>
              <LatitudeDegrees>43.25221803970634937286376953125</LatitudeDegrees>
              <LongitudeDegrees>-2.52796749584376811981201171875</LongitudeDegrees>
            </Position>
            <AltitudeMeters>137</AltitudeMeters>
            <DistanceMeters>NAN</DistanceMeters>
          </Trackpoint>
          <Trackpoint>
            <Time>2022-07-11T09:19:35.000Z</Time>
            <Position>
              <LatitudeDegrees>43.25218853540718555450439453125</LatitudeDegrees>
              <LongitudeDegrees>-2.528027258813381195068359375</LongitudeDegrees>
            </Position>
            <AltitudeMeters>137.1999969482421875</AltitudeMeters>
            <DistanceMeters>NAN</DistanceMeters>
          </Trackpoint>
          <Trackpoint>
            <Time>2022-07-11T09:19:38.000Z</Time>
            <Position>
              <LatitudeDegrees>43.25215199030935764312744140625</LatitudeDegrees>
              <LongitudeDegrees>-2.528089620172977447509765625</LongitudeDegrees>
            </Position>
            <AltitudeMeters>137.1999969482421875</AltitudeMeters>
            <DistanceMeters>NAN</DistanceMeters>
          </Trackpoint>
          <Trackpoint>
            <Time>2022-07-11T09:19:40.000Z</Time>
            <Position>
              <LatitudeDegrees>43.2521291077136993408203125</LatitudeDegrees>
              <LongitudeDegrees>-2.52813421189785003662109375</LongitudeDegrees>
            </Position>
            <AltitudeMeters>137.399993896484375</AltitudeMeters>
            <DistanceMeters>NAN</DistanceMeters>
          </Trackpoint>
          <Trackpoint>
            <Time>2022-07-11T09:19:42.000Z</Time>
            <Position>
              <LatitudeDegrees>43.252107314765453338623046875</LatitudeDegrees>
              <LongitudeDegrees>-2.5281635485589504241943359375</LongitudeDegrees>
            </Position>
            <AltitudeMeters>137.600006103515625</AltitudeMeters>
            <DistanceMeters>NAN</DistanceMeters>
          </Trackpoint>
          <Trackpoint>
            <Time>2022-07-11T09:19:44.000Z</Time>
            <Position>
              <LatitudeDegrees>43.25209398753941059112548828125</LatitudeDegrees>
              <LongitudeDegrees>-2.52819632180035114288330078125</LongitudeDegrees>
            </Position>
            <AltitudeMeters>137.8000030517578125</AltitudeMeters>
            <DistanceMeters>NAN</DistanceMeters>
          </Trackpoint>
          <Trackpoint>
            <Time>2022-07-11T09:19:47.000Z</Time>
            <Position>
              <LatitudeDegrees>43.25206951238214969635009765625</LatitudeDegrees>
              <LongitudeDegrees>-2.52824258990585803985595703125</LongitudeDegrees>
            </Position>
            <AltitudeMeters>138.399993896484375</AltitudeMeters>
            <DistanceMeters>NAN</DistanceMeters>
          </Trackpoint>
          <Trackpoint>
            <Time>2022-07-11T09:19:54.000Z</Time>
            <Position>
              <LatitudeDegrees>43.25202307663857936859130859375</LatitudeDegrees>
              <LongitudeDegrees>-2.52840335480868816375732421875</LongitudeDegrees>
            </Position>
            <AltitudeMeters>138.8000030517578125</AltitudeMeters>
            <DistanceMeters>NAN</DistanceMeters>
          </Trackpoint>
          <Trackpoint>
            <Time>2022-07-11T09:19:57.000Z</Time>
            <Position>
              <LatitudeDegrees>43.25200597755610942840576171875</LatitudeDegrees>
              <LongitudeDegrees>-2.528451047837734222412109375</LongitudeDegrees>
            </Position>
            <AltitudeMeters>139.399993896484375</AltitudeMeters>
            <DistanceMeters>NAN</DistanceMeters>
          </Trackpoint>
          <Trackpoint>
            <Time>2022-07-11T09:19:58.000Z</Time>
            <Position>
              <LatitudeDegrees>43.2519867829978466033935546875</LatitudeDegrees>
              <LongitudeDegrees>-2.5284661352634429931640625</LongitudeDegrees>
            </Position>
            <AltitudeMeters>139.399993896484375</AltitudeMeters>
            <DistanceMeters>NAN</DistanceMeters>
          </Trackpoint>
          <Trackpoint>
            <Time>2022-07-11T09:19:59.000Z</Time>
            <Position>
              <LatitudeDegrees>43.2519851066172122955322265625</LatitudeDegrees>
              <LongitudeDegrees>-2.52848398871719837188720703125</LongitudeDegrees>
            </Position>
            <AltitudeMeters>139.600006103515625</AltitudeMeters>
            <DistanceMeters>NAN</DistanceMeters>
          </Trackpoint>
          <Trackpoint>
            <Time>2022-07-11T09:20:04.000Z</Time>
            <Position>
              <LatitudeDegrees>43.251979239284992218017578125</LatitudeDegrees>
              <LongitudeDegrees>-2.52849924378097057342529296875</LongitudeDegrees>
            </Position>
            <AltitudeMeters>140</AltitudeMeters>
            <DistanceMeters>NAN</DistanceMeters>
          </Trackpoint>
          <Trackpoint>
            <Time>2022-07-11T09:20:34.000Z</Time>
            <Position>
              <LatitudeDegrees>43.2520218193531036376953125</LatitudeDegrees>
              <LongitudeDegrees>-2.52842045389115810394287109375</LongitudeDegrees>
            </Position>
            <AltitudeMeters>140.399993896484375</AltitudeMeters>
            <DistanceMeters>NAN</DistanceMeters>
          </Trackpoint>
          <Trackpoint>
            <Time>2022-07-11T09:20:39.000Z</Time>
            <Position>
              <LatitudeDegrees>43.2521433569490909576416015625</LatitudeDegrees>
              <LongitudeDegrees>-2.52818391658365726470947265625</LongitudeDegrees>
            </Position>
            <AltitudeMeters>139.399993896484375</AltitudeMeters>
            <DistanceMeters>NAN</DistanceMeters>
          </Trackpoint>
          <Trackpoint>
            <Time>2022-07-11T09:20:42.000Z</Time>
            <Position>
              <LatitudeDegrees>43.2522298581898212432861328125</LatitudeDegrees>
              <LongitudeDegrees>-2.52800571732223033905029296875</LongitudeDegrees>
            </Position>
            <AltitudeMeters>139.1999969482421875</AltitudeMeters>
            <DistanceMeters>NAN</DistanceMeters>
          </Trackpoint>
          <Trackpoint>
            <Time>2022-07-11T09:20:43.000Z</Time>
            <Position>
              <LatitudeDegrees>43.25225860811769962310791015625</LatitudeDegrees>
              <LongitudeDegrees>-2.52795106731355190277099609375</LongitudeDegrees>
            </Position>
            <AltitudeMeters>139</AltitudeMeters>
            <DistanceMeters>NAN</DistanceMeters>
          </Trackpoint>
          <Trackpoint>
            <Time>2022-07-11T09:20:45.000Z</Time>
            <Position>
              <LatitudeDegrees>43.2523156888782978057861328125</LatitudeDegrees>
              <LongitudeDegrees>-2.5278430245816707611083984375</LongitudeDegrees>
            </Position>
            <AltitudeMeters>139</AltitudeMeters>
            <DistanceMeters>NAN</DistanceMeters>
          </Trackpoint>
          <Trackpoint>
            <Time>2022-07-11T09:20:47.000Z</Time>
            <Position>
              <LatitudeDegrees>43.25237645767629146575927734375</LatitudeDegrees>
              <LongitudeDegrees>-2.527748644351959228515625</LongitudeDegrees>
            </Position>
            <AltitudeMeters>138.8000030517578125</AltitudeMeters>
            <DistanceMeters>NAN</DistanceMeters>
          </Trackpoint>
          <Trackpoint>
            <Time>2022-07-11T09:20:50.000Z</Time>
            <Position>
              <LatitudeDegrees>43.252466060221195220947265625</LatitudeDegrees>
              <LongitudeDegrees>-2.52761478535830974578857421875</LongitudeDegrees>
            </Position>
            <AltitudeMeters>138.1999969482421875</AltitudeMeters>
            <DistanceMeters>NAN</DistanceMeters>
          </Trackpoint>
          <Trackpoint>
            <Time>2022-07-11T09:20:52.000Z</Time>
            <Position>
              <LatitudeDegrees>43.25253236107528209686279296875</LatitudeDegrees>
              <LongitudeDegrees>-2.52750548534095287322998046875</LongitudeDegrees>
            </Position>
            <AltitudeMeters>138</AltitudeMeters>
            <DistanceMeters>NAN</DistanceMeters>
          </Trackpoint>
          <Trackpoint>
            <Time>2022-07-11T09:20:54.000Z</Time>
            <Position>
              <LatitudeDegrees>43.2525953091681003570556640625</LatitudeDegrees>
              <LongitudeDegrees>-2.52739031799137592315673828125</LongitudeDegrees>
            </Position>
            <AltitudeMeters>137.600006103515625</AltitudeMeters>
            <DistanceMeters>NAN</DistanceMeters>
          </Trackpoint>
          <Trackpoint>
            <Time>2022-07-11T09:20:56.000Z</Time>
            <Position>
              <LatitudeDegrees>43.25263914652168750762939453125</LatitudeDegrees>
              <LongitudeDegrees>-2.5272831134498119354248046875</LongitudeDegrees>
            </Position>
            <AltitudeMeters>137</AltitudeMeters>
            <DistanceMeters>NAN</DistanceMeters>
          </Trackpoint>
          <Trackpoint>
            <Time>2022-07-11T09:20:57.000Z</Time>
            <Position>
              <LatitudeDegrees>43.252656497061252593994140625</LatitudeDegrees>
              <LongitudeDegrees>-2.52724229358136653900146484375</LongitudeDegrees>
            </Position>
            <AltitudeMeters>136.8000030517578125</AltitudeMeters>
            <DistanceMeters>NAN</DistanceMeters>
          </Trackpoint>
          <Trackpoint>
            <Time>2022-07-11T09:20:58.000Z</Time>
            <Position>
              <LatitudeDegrees>43.25266848318278789520263671875</LatitudeDegrees>
              <LongitudeDegrees>-2.527213208377361297607421875</LongitudeDegrees>
            </Position>
            <AltitudeMeters>136.8000030517578125</AltitudeMeters>
            <DistanceMeters>NAN</DistanceMeters>
          </Trackpoint>
          <Trackpoint>
            <Time>2022-07-11T09:21:00.000Z</Time>
            <Position>
              <LatitudeDegrees>43.25270083732903003692626953125</LatitudeDegrees>
              <LongitudeDegrees>-2.527196109294891357421875</LongitudeDegrees>
            </Position>
            <AltitudeMeters>136.600006103515625</AltitudeMeters>
            <DistanceMeters>NAN</DistanceMeters>
          </Trackpoint>
          <Trackpoint>
            <Time>2022-07-11T09:21:04.000Z</Time>
            <Position>
              <LatitudeDegrees>43.2528145797550678253173828125</LatitudeDegrees>
              <LongitudeDegrees>-2.527278251945972442626953125</LongitudeDegrees>
            </Position>
            <AltitudeMeters>136.600006103515625</AltitudeMeters>
            <DistanceMeters>NAN</DistanceMeters>
          </Trackpoint>
          <Trackpoint>
            <Time>2022-07-11T09:21:10.000Z</Time>
            <Position>
              <LatitudeDegrees>43.25296034105122089385986328125</LatitudeDegrees>
              <LongitudeDegrees>-2.527459301054477691650390625</LongitudeDegrees>
            </Position>
            <AltitudeMeters>137.1999969482421875</AltitudeMeters>
            <DistanceMeters>NAN</DistanceMeters>
          </Trackpoint>
          <Trackpoint>
            <Time>2022-07-11T09:21:16.000Z</Time>
            <Position>
              <LatitudeDegrees>43.25294106267392635345458984375</LatitudeDegrees>
              <LongitudeDegrees>-2.5277682580053806304931640625</LongitudeDegrees>
            </Position>
            <AltitudeMeters>137.1999969482421875</AltitudeMeters>
            <DistanceMeters>NAN</DistanceMeters>
          </Trackpoint>
          <Trackpoint>
            <Time>2022-07-11T09:21:26.000Z</Time>
            <Position>
              <LatitudeDegrees>43.25277308933436870574951171875</LatitudeDegrees>
              <LongitudeDegrees>-2.5282520614564418792724609375</LongitudeDegrees>
            </Position>
            <AltitudeMeters>137.600006103515625</AltitudeMeters>
            <DistanceMeters>NAN</DistanceMeters>
          </Trackpoint>
          <Trackpoint>
            <Time>2022-07-11T09:21:31.000Z</Time>
            <Position>
              <LatitudeDegrees>43.25270553119480609893798828125</LatitudeDegrees>
              <LongitudeDegrees>-2.5284736789762973785400390625</LongitudeDegrees>
            </Position>
            <AltitudeMeters>138.1999969482421875</AltitudeMeters>
            <DistanceMeters>NAN</DistanceMeters>
          </Trackpoint>
          <Trackpoint>
            <Time>2022-07-11T09:21:36.000Z</Time>
            <Position>
              <LatitudeDegrees>43.2526352070271968841552734375</LatitudeDegrees>
              <LongitudeDegrees>-2.52864475362002849578857421875</LongitudeDegrees>
            </Position>
            <AltitudeMeters>138.399993896484375</AltitudeMeters>
            <DistanceMeters>NAN</DistanceMeters>
          </Trackpoint>
          <Trackpoint>
            <Time>2022-07-11T09:21:42.000Z</Time>
            <Position>
              <LatitudeDegrees>43.25252942740917205810546875</LatitudeDegrees>
              <LongitudeDegrees>-2.52894197590649127960205078125</LongitudeDegrees>
            </Position>
            <AltitudeMeters>139.1999969482421875</AltitudeMeters>
            <DistanceMeters>NAN</DistanceMeters>
          </Trackpoint>
          <Trackpoint>
            <Time>2022-07-11T09:21:45.000Z</Time>
            <Position>
              <LatitudeDegrees>43.25248248875141143798828125</LatitudeDegrees>
              <LongitudeDegrees>-2.52907030284404754638671875</LongitudeDegrees>
            </Position>
            <AltitudeMeters>139.399993896484375</AltitudeMeters>
            <DistanceMeters>NAN</DistanceMeters>
          </Trackpoint>
          <Trackpoint>
            <Time>2022-07-11T09:21:49.000Z</Time>
            <Position>
              <LatitudeDegrees>43.25242339633405208587646484375</LatitudeDegrees>
              <LongitudeDegrees>-2.52923123538494110107421875</LongitudeDegrees>
            </Position>
            <AltitudeMeters>139.600006103515625</AltitudeMeters>
            <DistanceMeters>NAN</DistanceMeters>
          </Trackpoint>
          <Trackpoint>
            <Time>2022-07-11T09:21:54.000Z</Time>
            <Position>
              <LatitudeDegrees>43.252348043024539947509765625</LatitudeDegrees>
              <LongitudeDegrees>-2.52941169776022434234619140625</LongitudeDegrees>
            </Position>
            <AltitudeMeters>140.1999969482421875</AltitudeMeters>
            <DistanceMeters>NAN</DistanceMeters>
          </Trackpoint>
          <Trackpoint>
            <Time>2022-07-11T09:22:04.000Z</Time>
            <Position>
              <LatitudeDegrees>43.25220932252705097198486328125</LatitudeDegrees>
              <LongitudeDegrees>-2.5298040546476840972900390625</LongitudeDegrees>
            </Position>
            <AltitudeMeters>141.1999969482421875</AltitudeMeters>
            <DistanceMeters>NAN</DistanceMeters>
          </Trackpoint>
          <Trackpoint>
            <Time>2022-07-11T09:22:06.000Z</Time>
            <Position>
              <LatitudeDegrees>43.25217713601887226104736328125</LatitudeDegrees>
              <LongitudeDegrees>-2.5298895500600337982177734375</LongitudeDegrees>
            </Position>
            <AltitudeMeters>141.1999969482421875</AltitudeMeters>
            <DistanceMeters>NAN</DistanceMeters>
          </Trackpoint>
          <Trackpoint>
            <Time>2022-07-11T09:22:14.000Z</Time>
            <Position>
              <LatitudeDegrees>43.2520716078579425811767578125</LatitudeDegrees>
              <LongitudeDegrees>-2.5302332080900669097900390625</LongitudeDegrees>
            </Position>
            <AltitudeMeters>142.1999969482421875</AltitudeMeters>
            <DistanceMeters>NAN</DistanceMeters>
          </Trackpoint>
          <Trackpoint>
            <Time>2022-07-11T09:22:15.000Z</Time>
            <Position>
              <LatitudeDegrees>43.25206004083156585693359375</LatitudeDegrees>
              <LongitudeDegrees>-2.530276291072368621826171875</LongitudeDegrees>
            </Position>
            <AltitudeMeters>142.1999969482421875</AltitudeMeters>
            <DistanceMeters>NAN</DistanceMeters>
          </Trackpoint>
          <Trackpoint>
            <Time>2022-07-11T09:22:20.000Z</Time>
            <Position>
              <LatitudeDegrees>43.2520164549350738525390625</LatitudeDegrees>
              <LongitudeDegrees>-2.530496902763843536376953125</LongitudeDegrees>
            </Position>
            <AltitudeMeters>142.399993896484375</AltitudeMeters>
            <DistanceMeters>NAN</DistanceMeters>
          </Trackpoint>
          <Trackpoint>
            <Time>2022-07-11T09:22:30.000Z</Time>
            <Position>
              <LatitudeDegrees>43.25195677578449249267578125</LatitudeDegrees>
              <LongitudeDegrees>-2.53097022883594036102294921875</LongitudeDegrees>
            </Position>
            <AltitudeMeters>142.8000030517578125</AltitudeMeters>
            <DistanceMeters>NAN</DistanceMeters>
          </Trackpoint>
          <Trackpoint>
            <Time>2022-07-11T09:22:39.000Z</Time>
            <Position>
              <LatitudeDegrees>43.2519552670419216156005859375</LatitudeDegrees>
              <LongitudeDegrees>-2.53142888657748699188232421875</LongitudeDegrees>
            </Position>
            <AltitudeMeters>143.1999969482421875</AltitudeMeters>
            <DistanceMeters>NAN</DistanceMeters>
          </Trackpoint>
          <Trackpoint>
            <Time>2022-07-11T09:22:41.000Z</Time>
            <Position>
              <LatitudeDegrees>43.25197479687631130218505859375</LatitudeDegrees>
              <LongitudeDegrees>-2.53151941113173961639404296875</LongitudeDegrees>
            </Position>
            <AltitudeMeters>143.1999969482421875</AltitudeMeters>
            <DistanceMeters>NAN</DistanceMeters>
          </Trackpoint>
          <Trackpoint>
            <Time>2022-07-11T09:22:46.000Z</Time>
            <Position>
              <LatitudeDegrees>43.25203246437013149261474609375</LatitudeDegrees>
              <LongitudeDegrees>-2.53175360150635242462158203125</LongitudeDegrees>
            </Position>
            <AltitudeMeters>143.600006103515625</AltitudeMeters>
            <DistanceMeters>NAN</DistanceMeters>
          </Trackpoint>
          <Trackpoint>
            <Time>2022-07-11T09:22:48.000Z</Time>
            <Position>
              <LatitudeDegrees>43.2520566880702972412109375</LatitudeDegrees>
              <LongitudeDegrees>-2.5318430364131927490234375</LongitudeDegrees>
            </Position>
            <AltitudeMeters>143.8000030517578125</AltitudeMeters>
            <DistanceMeters>NAN</DistanceMeters>
          </Trackpoint>
          <Trackpoint>
            <Time>2022-07-11T09:22:53.000Z</Time>
            <Position>
              <LatitudeDegrees>43.25211728923022747039794921875</LatitudeDegrees>
              <LongitudeDegrees>-2.53208183683454990386962890625</LongitudeDegrees>
            </Position>
            <AltitudeMeters>144</AltitudeMeters>
            <DistanceMeters>NAN</DistanceMeters>
          </Trackpoint>
          <Trackpoint>
            <Time>2022-07-11T09:22:54.000Z</Time>
            <Position>
              <LatitudeDegrees>43.25212617404758930206298828125</LatitudeDegrees>
              <LongitudeDegrees>-2.53212810494005680084228515625</LongitudeDegrees>
            </Position>
            <AltitudeMeters>144.1999969482421875</AltitudeMeters>
            <DistanceMeters>NAN</DistanceMeters>
          </Trackpoint>
          <Trackpoint>
            <Time>2022-07-11T09:22:56.000Z</Time>
            <Position>
              <LatitudeDegrees>43.25214478187263011932373046875</LatitudeDegrees>
              <LongitudeDegrees>-2.53221678547561168670654296875</LongitudeDegrees>
            </Position>
            <AltitudeMeters>144.399993896484375</AltitudeMeters>
            <DistanceMeters>NAN</DistanceMeters>
          </Trackpoint>
          <Trackpoint>
            <Time>2022-07-11T09:23:00.000Z</Time>
            <Position>
              <LatitudeDegrees>43.2521631382405757904052734375</LatitudeDegrees>
              <LongitudeDegrees>-2.53240738995373249053955078125</LongitudeDegrees>
            </Position>
            <AltitudeMeters>144.8000030517578125</AltitudeMeters>
            <DistanceMeters>NAN</DistanceMeters>
          </Trackpoint>
          <Trackpoint>
            <Time>2022-07-11T09:23:01.000Z</Time>
            <Position>
              <LatitudeDegrees>43.25216590426862239837646484375</LatitudeDegrees>
              <LongitudeDegrees>-2.53245466388761997222900390625</LongitudeDegrees>
            </Position>
            <AltitudeMeters>144.8000030517578125</AltitudeMeters>
            <DistanceMeters>NAN</DistanceMeters>
          </Trackpoint>
          <Trackpoint>
            <Time>2022-07-11T09:23:05.000Z</Time>
            <Position>
              <LatitudeDegrees>43.25215752236545085906982421875</LatitudeDegrees>
              <LongitudeDegrees>-2.5325999222695827484130859375</LongitudeDegrees>
            </Position>
            <AltitudeMeters>144.8000030517578125</AltitudeMeters>
            <DistanceMeters>NAN</DistanceMeters>
          </Trackpoint>
          <Trackpoint>
            <Time>2022-07-11T09:23:08.000Z</Time>
            <Position>
              <LatitudeDegrees>43.25212449766695499420166015625</LatitudeDegrees>
              <LongitudeDegrees>-2.53278977237641811370849609375</LongitudeDegrees>
            </Position>
            <AltitudeMeters>145</AltitudeMeters>
            <DistanceMeters>NAN</DistanceMeters>
          </Trackpoint>
          <Trackpoint>
            <Time>2022-07-11T09:23:12.000Z</Time>
            <Position>
              <LatitudeDegrees>43.2520766369998455047607421875</LatitudeDegrees>
              <LongitudeDegrees>-2.53299747593700885772705078125</LongitudeDegrees>
            </Position>
            <AltitudeMeters>145.399993896484375</AltitudeMeters>
            <DistanceMeters>NAN</DistanceMeters>
          </Trackpoint>
          <Trackpoint>
            <Time>2022-07-11T09:23:16.000Z</Time>
            <Position>
              <LatitudeDegrees>43.25201855041086673736572265625</LatitudeDegrees>
              <LongitudeDegrees>-2.533179111778736114501953125</LongitudeDegrees>
            </Position>
            <AltitudeMeters>145.8000030517578125</AltitudeMeters>
            <DistanceMeters>NAN</DistanceMeters>
          </Trackpoint>
          <Trackpoint>
            <Time>2022-07-11T09:23:22.000Z</Time>
            <Position>
              <LatitudeDegrees>43.2518969289958477020263671875</LatitudeDegrees>
              <LongitudeDegrees>-2.5334615819156169891357421875</LongitudeDegrees>
            </Position>
            <AltitudeMeters>145.8000030517578125</AltitudeMeters>
            <DistanceMeters>NAN</DistanceMeters>
          </Trackpoint>
          <Trackpoint>
            <Time>2022-07-11T09:23:27.000Z</Time>
            <Position>
              <LatitudeDegrees>43.25179542414844036102294921875</LatitudeDegrees>
              <LongitudeDegrees>-2.53366895020008087158203125</LongitudeDegrees>
            </Position>
            <AltitudeMeters>145.8000030517578125</AltitudeMeters>
            <DistanceMeters>NAN</DistanceMeters>
          </Trackpoint>
          <Trackpoint>
            <Time>2022-07-11T09:23:31.000Z</Time>
            <Position>
              <LatitudeDegrees>43.25171445496380329132080078125</LatitudeDegrees>
              <LongitudeDegrees>-2.53384438343346118927001953125</LongitudeDegrees>
            </Position>
            <AltitudeMeters>146</AltitudeMeters>
            <DistanceMeters>NAN</DistanceMeters>
          </Trackpoint>
          <Trackpoint>
            <Time>2022-07-11T09:23:32.000Z</Time>
            <Position>
              <LatitudeDegrees>43.251692242920398712158203125</LatitudeDegrees>
              <LongitudeDegrees>-2.53388629294931888580322265625</LongitudeDegrees>
            </Position>
            <AltitudeMeters>146</AltitudeMeters>
            <DistanceMeters>NAN</DistanceMeters>
          </Trackpoint>
          <Trackpoint>
            <Time>2022-07-11T09:23:38.000Z</Time>
            <Position>
              <LatitudeDegrees>43.25157799758017063140869140625</LatitudeDegrees>
              <LongitudeDegrees>-2.5341418571770191192626953125</LongitudeDegrees>
            </Position>
            <AltitudeMeters>146.399993896484375</AltitudeMeters>
            <DistanceMeters>NAN</DistanceMeters>
          </Trackpoint>
          <Trackpoint>
            <Time>2022-07-11T09:23:43.000Z</Time>
            <Position>
              <LatitudeDegrees>43.2515014708042144775390625</LatitudeDegrees>
              <LongitudeDegrees>-2.53435769118368625640869140625</LongitudeDegrees>
            </Position>
            <AltitudeMeters>147</AltitudeMeters>
            <DistanceMeters>NAN</DistanceMeters>
          </Trackpoint>
          <Trackpoint>
            <Time>2022-07-11T09:23:49.000Z</Time>
            <Position>
              <LatitudeDegrees>43.2514664344489574432373046875</LatitudeDegrees>
              <LongitudeDegrees>-2.534599006175994873046875</LongitudeDegrees>
            </Position>
            <AltitudeMeters>147.399993896484375</AltitudeMeters>
            <DistanceMeters>NAN</DistanceMeters>
          </Trackpoint>
          <Trackpoint>
            <Time>2022-07-11T09:23:50.000Z</Time>
            <Position>
              <LatitudeDegrees>43.25146232731640338897705078125</LatitudeDegrees>
              <LongitudeDegrees>-2.5346417538821697235107421875</LongitudeDegrees>
            </Position>
            <AltitudeMeters>147.399993896484375</AltitudeMeters>
            <DistanceMeters>NAN</DistanceMeters>
          </Trackpoint>
          <Trackpoint>
            <Time>2022-07-11T09:23:56.000Z</Time>
            <Position>
              <LatitudeDegrees>43.2514647580683231353759765625</LatitudeDegrees>
              <LongitudeDegrees>-2.53487653099000453948974609375</LongitudeDegrees>
            </Position>
            <AltitudeMeters>147.8000030517578125</AltitudeMeters>
            <DistanceMeters>NAN</DistanceMeters>
          </Trackpoint>
          <Trackpoint>
            <Time>2022-07-11T09:23:59.000Z</Time>
            <Position>
              <LatitudeDegrees>43.25146324932575225830078125</LatitudeDegrees>
              <LongitudeDegrees>-2.53498851321637630462646484375</LongitudeDegrees>
            </Position>
            <AltitudeMeters>148.1999969482421875</AltitudeMeters>
            <DistanceMeters>NAN</DistanceMeters>
          </Trackpoint>
          <Trackpoint>
            <Time>2022-07-11T09:24:03.000Z</Time>
            <Position>
              <LatitudeDegrees>43.251465260982513427734375</LatitudeDegrees>
              <LongitudeDegrees>-2.53513477742671966552734375</LongitudeDegrees>
            </Position>
            <AltitudeMeters>148.600006103515625</AltitudeMeters>
            <DistanceMeters>NAN</DistanceMeters>
          </Trackpoint>
          <Trackpoint>
            <Time>2022-07-11T09:24:13.000Z</Time>
            <Position>
              <LatitudeDegrees>43.25147523544728755950927734375</LatitudeDegrees>
              <LongitudeDegrees>-2.53551305271685123443603515625</LongitudeDegrees>
            </Position>
            <AltitudeMeters>149.1999969482421875</AltitudeMeters>
            <DistanceMeters>NAN</DistanceMeters>
          </Trackpoint>
          <Trackpoint>
            <Time>2022-07-11T09:24:19.000Z</Time>
            <Position>
              <LatitudeDegrees>43.25151245109736919403076171875</LatitudeDegrees>
              <LongitudeDegrees>-2.535713128745555877685546875</LongitudeDegrees>
            </Position>
            <AltitudeMeters>149.600006103515625</AltitudeMeters>
            <DistanceMeters>NAN</DistanceMeters>
          </Trackpoint>
          <Trackpoint>
            <Time>2022-07-11T09:24:22.000Z</Time>
            <Position>
              <LatitudeDegrees>43.25153860263526439666748046875</LatitudeDegrees>
              <LongitudeDegrees>-2.53581379540264606475830078125</LongitudeDegrees>
            </Position>
            <AltitudeMeters>149.8000030517578125</AltitudeMeters>
            <DistanceMeters>NAN</DistanceMeters>
          </Trackpoint>
          <Trackpoint>
            <Time>2022-07-11T09:24:32.000Z</Time>
            <Position>
              <LatitudeDegrees>43.2516436278820037841796875</LatitudeDegrees>
              <LongitudeDegrees>-2.53612694330513477325439453125</LongitudeDegrees>
            </Position>
            <AltitudeMeters>150.600006103515625</AltitudeMeters>
            <DistanceMeters>NAN</DistanceMeters>
          </Trackpoint>
          <Trackpoint>
            <Time>2022-07-11T09:24:33.000Z</Time>
            <Position>
              <LatitudeDegrees>43.25165611691772937774658203125</LatitudeDegrees>
              <LongitudeDegrees>-2.53615829162299633026123046875</LongitudeDegrees>
            </Position>
            <AltitudeMeters>150.600006103515625</AltitudeMeters>
            <DistanceMeters>NAN</DistanceMeters>
          </Trackpoint>
          <Trackpoint>
            <Time>2022-07-11T09:24:40.000Z</Time>
            <Position>
              <LatitudeDegrees>43.25172132812440395355224609375</LatitudeDegrees>
              <LongitudeDegrees>-2.53636850975453853607177734375</LongitudeDegrees>
            </Position>
            <AltitudeMeters>151</AltitudeMeters>
            <DistanceMeters>NAN</DistanceMeters>
          </Trackpoint>
          <Trackpoint>
            <Time>2022-07-11T09:24:48.000Z</Time>
            <Position>
              <LatitudeDegrees>43.2517996989190578460693359375</LatitudeDegrees>
              <LongitudeDegrees>-2.5366058014333248138427734375</LongitudeDegrees>
            </Position>
            <AltitudeMeters>151.399993896484375</AltitudeMeters>
            <DistanceMeters>NAN</DistanceMeters>
          </Trackpoint>
          <Trackpoint>
            <Time>2022-07-11T09:24:50.000Z</Time>
            <Position>
              <LatitudeDegrees>43.2518174685537815093994140625</LatitudeDegrees>
              <LongitudeDegrees>-2.53666229546070098876953125</LongitudeDegrees>
            </Position>
            <AltitudeMeters>151.8000030517578125</AltitudeMeters>
            <DistanceMeters>NAN</DistanceMeters>
          </Trackpoint>
          <Trackpoint>
            <Time>2022-07-11T09:24:56.000Z</Time>
            <Position>
              <LatitudeDegrees>43.25188527815043926239013671875</LatitudeDegrees>
              <LongitudeDegrees>-2.53685365431010723114013671875</LongitudeDegrees>
            </Position>
            <AltitudeMeters>152.1999969482421875</AltitudeMeters>
            <DistanceMeters>NAN</DistanceMeters>
          </Trackpoint>
          <Trackpoint>
            <Time>2022-07-11T09:25:04.000Z</Time>
            <Position>
              <LatitudeDegrees>43.25195769779384136199951171875</LatitudeDegrees>
              <LongitudeDegrees>-2.53708365373313426971435546875</LongitudeDegrees>
            </Position>
            <AltitudeMeters>152.600006103515625</AltitudeMeters>
            <DistanceMeters>NAN</DistanceMeters>
          </Trackpoint>
          <Trackpoint>
            <Time>2022-07-11T09:25:06.000Z</Time>
            <Position>
              <LatitudeDegrees>43.2519740425050258636474609375</LatitudeDegrees>
              <LongitudeDegrees>-2.53713897429406642913818359375</LongitudeDegrees>
            </Position>
            <AltitudeMeters>153</AltitudeMeters>
            <DistanceMeters>NAN</DistanceMeters>
          </Trackpoint>
          <Trackpoint>
            <Time>2022-07-11T09:25:15.000Z</Time>
            <Position>
              <LatitudeDegrees>43.25207118876278400421142578125</LatitudeDegrees>
              <LongitudeDegrees>-2.53741063177585601806640625</LongitudeDegrees>
            </Position>
            <AltitudeMeters>153.8000030517578125</AltitudeMeters>
            <DistanceMeters>NAN</DistanceMeters>
          </Trackpoint>
          <Trackpoint>
            <Time>2022-07-11T09:25:18.000Z</Time>
            <Position>
              <LatitudeDegrees>43.2520984299480915069580078125</LatitudeDegrees>
              <LongitudeDegrees>-2.53750392235815525054931640625</LongitudeDegrees>
            </Position>
            <AltitudeMeters>154</AltitudeMeters>
            <DistanceMeters>NAN</DistanceMeters>
          </Trackpoint>
          <Trackpoint>
            <Time>2022-07-11T09:25:24.000Z</Time>
            <Position>
              <LatitudeDegrees>43.25216573663055896759033203125</LatitudeDegrees>
              <LongitudeDegrees>-2.53768530674278736114501953125</LongitudeDegrees>
            </Position>
            <AltitudeMeters>154.1999969482421875</AltitudeMeters>
            <DistanceMeters>NAN</DistanceMeters>
          </Trackpoint>
          <Trackpoint>
            <Time>2022-07-11T09:25:34.000Z</Time>
            <Position>
              <LatitudeDegrees>43.25225207023322582244873046875</LatitudeDegrees>
              <LongitudeDegrees>-2.53797615878283977508544921875</LongitudeDegrees>
            </Position>
            <AltitudeMeters>155</AltitudeMeters>
            <DistanceMeters>NAN</DistanceMeters>
          </Trackpoint>
          <Trackpoint>
            <Time>2022-07-11T09:25:40.000Z</Time>
            <Position>
              <LatitudeDegrees>43.2522835023701190948486328125</LatitudeDegrees>
              <LongitudeDegrees>-2.538161315023899078369140625</LongitudeDegrees>
            </Position>
            <AltitudeMeters>155.399993896484375</AltitudeMeters>
            <DistanceMeters>NAN</DistanceMeters>
          </Trackpoint>
          <Trackpoint>
            <Time>2022-07-11T09:25:44.000Z</Time>
            <Position>
              <LatitudeDegrees>43.2522949017584323883056640625</LatitudeDegrees>
              <LongitudeDegrees>-2.538293413817882537841796875</LongitudeDegrees>
            </Position>
            <AltitudeMeters>155.600006103515625</AltitudeMeters>
            <DistanceMeters>NAN</DistanceMeters>
          </Trackpoint>
          <Trackpoint>
            <Time>2022-07-11T09:25:50.000Z</Time>
            <Position>
              <LatitudeDegrees>43.2523007690906524658203125</LatitudeDegrees>
              <LongitudeDegrees>-2.5384987704455852508544921875</LongitudeDegrees>
            </Position>
            <AltitudeMeters>156</AltitudeMeters>
            <DistanceMeters>NAN</DistanceMeters>
          </Trackpoint>
          <Trackpoint>
            <Time>2022-07-11T09:25:54.000Z</Time>
            <Position>
              <LatitudeDegrees>43.25231091119349002838134765625</LatitudeDegrees>
              <LongitudeDegrees>-2.5386503152549266815185546875</LongitudeDegrees>
            </Position>
            <AltitudeMeters>156.399993896484375</AltitudeMeters>
            <DistanceMeters>NAN</DistanceMeters>
          </Trackpoint>
          <Trackpoint>
            <Time>2022-07-11T09:26:01.000Z</Time>
            <Position>
              <LatitudeDegrees>43.252310492098331451416015625</LatitudeDegrees>
              <LongitudeDegrees>-2.53887503407895565032958984375</LongitudeDegrees>
            </Position>
            <AltitudeMeters>156.600006103515625</AltitudeMeters>
            <DistanceMeters>NAN</DistanceMeters>
          </Trackpoint>
          <Trackpoint>
            <Time>2022-07-11T09:26:05.000Z</Time>
            <Position>
              <LatitudeDegrees>43.252312503755092620849609375</LatitudeDegrees>
              <LongitudeDegrees>-2.538992799818515777587890625</LongitudeDegrees>
            </Position>
            <AltitudeMeters>157</AltitudeMeters>
            <DistanceMeters>NAN</DistanceMeters>
          </Trackpoint>
          <Trackpoint>
            <Time>2022-07-11T09:26:06.000Z</Time>
            <Position>
              <LatitudeDegrees>43.252312503755092620849609375</LatitudeDegrees>
              <LongitudeDegrees>-2.538992799818515777587890625</LongitudeDegrees>
            </Position>
            <AltitudeMeters>157</AltitudeMeters>
            <DistanceMeters>NAN</DistanceMeters>
          </Trackpoint>
          <Trackpoint>
            <Time>2022-07-11T09:26:13.000Z</Time>
            <Position>
              <LatitudeDegrees>43.25226296670734882354736328125</LatitudeDegrees>
              <LongitudeDegrees>-2.53932765685021877288818359375</LongitudeDegrees>
            </Position>
            <AltitudeMeters>157.600006103515625</AltitudeMeters>
            <DistanceMeters>NAN</DistanceMeters>
          </Trackpoint>
          <Trackpoint>
            <Time>2022-07-11T09:26:20.000Z</Time>
            <Position>
              <LatitudeDegrees>43.25216825120151042938232421875</LatitudeDegrees>
              <LongitudeDegrees>-2.53959202207624912261962890625</LongitudeDegrees>
            </Position>
            <AltitudeMeters>158.1999969482421875</AltitudeMeters>
            <DistanceMeters>NAN</DistanceMeters>
          </Trackpoint>
          <Trackpoint>
            <Time>2022-07-11T09:26:21.000Z</Time>
            <Position>
              <LatitudeDegrees>43.25214863754808902740478515625</LatitudeDegrees>
              <LongitudeDegrees>-2.53962119109928607940673828125</LongitudeDegrees>
            </Position>
            <AltitudeMeters>158.1999969482421875</AltitudeMeters>
            <DistanceMeters>NAN</DistanceMeters>
          </Trackpoint>
          <Trackpoint>
            <Time>2022-07-11T09:26:31.000Z</Time>
            <Position>
              <LatitudeDegrees>43.25190690346062183380126953125</LatitudeDegrees>
              <LongitudeDegrees>-2.53988756798207759857177734375</LongitudeDegrees>
            </Position>
            <AltitudeMeters>157.8000030517578125</AltitudeMeters>
            <DistanceMeters>NAN</DistanceMeters>
          </Trackpoint>
          <Trackpoint>
            <Time>2022-07-11T09:26:37.000Z</Time>
            <Position>
              <LatitudeDegrees>43.2517705298960208892822265625</LatitudeDegrees>
              <LongitudeDegrees>-2.5400802679359912872314453125</LongitudeDegrees>
            </Position>
            <AltitudeMeters>158.1999969482421875</AltitudeMeters>
            <DistanceMeters>NAN</DistanceMeters>
          </Trackpoint>
          <Trackpoint>
            <Time>2022-07-11T09:26:43.000Z</Time>
            <Position>
              <LatitudeDegrees>43.25163801200687885284423828125</LatitudeDegrees>
              <LongitudeDegrees>-2.540226615965366363525390625</LongitudeDegrees>
            </Position>
            <AltitudeMeters>158.600006103515625</AltitudeMeters>
            <DistanceMeters>NAN</DistanceMeters>
          </Trackpoint>
          <Trackpoint>
            <Time>2022-07-11T09:26:51.000Z</Time>
            <Position>
              <LatitudeDegrees>43.2514818571507930755615234375</LatitudeDegrees>
              <LongitudeDegrees>-2.5404480658471584320068359375</LongitudeDegrees>
            </Position>
            <AltitudeMeters>159.1999969482421875</AltitudeMeters>
            <DistanceMeters>NAN</DistanceMeters>
          </Trackpoint>
          <Trackpoint>
            <Time>2022-07-11T09:27:00.000Z</Time>
            <Position>
              <LatitudeDegrees>43.25134213082492351531982421875</LatitudeDegrees>
              <LongitudeDegrees>-2.54070010967552661895751953125</LongitudeDegrees>
            </Position>
            <AltitudeMeters>160.399993896484375</AltitudeMeters>
            <DistanceMeters>NAN</DistanceMeters>
          </Trackpoint>
          <Trackpoint>
            <Time>2022-07-11T09:27:04.000Z</Time>
            <Position>
              <LatitudeDegrees>43.2512761652469635009765625</LatitudeDegrees>
              <LongitudeDegrees>-2.540834136307239532470703125</LongitudeDegrees>
            </Position>
            <AltitudeMeters>161.399993896484375</AltitudeMeters>
            <DistanceMeters>NAN</DistanceMeters>
          </Trackpoint>
          <Trackpoint>
            <Time>2022-07-11T09:27:09.000Z</Time>
            <Position>
              <LatitudeDegrees>43.251207768917083740234375</LatitudeDegrees>
              <LongitudeDegrees>-2.54099850542843341827392578125</LongitudeDegrees>
            </Position>
            <AltitudeMeters>161.8000030517578125</AltitudeMeters>
            <DistanceMeters>NAN</DistanceMeters>
          </Trackpoint>
          <Trackpoint>
            <Time>2022-07-11T09:27:13.000Z</Time>
            <Position>
              <LatitudeDegrees>43.2511482574045658111572265625</LatitudeDegrees>
              <LongitudeDegrees>-2.5411189533770084381103515625</LongitudeDegrees>
            </Position>
            <AltitudeMeters>162</AltitudeMeters>
            <DistanceMeters>NAN</DistanceMeters>
          </Trackpoint>
          <Trackpoint>
            <Time>2022-07-11T09:27:15.000Z</Time>
            <Position>
              <LatitudeDegrees>43.25112135149538516998291015625</LatitudeDegrees>
              <LongitudeDegrees>-2.54118173383176326751708984375</LongitudeDegrees>
            </Position>
            <AltitudeMeters>162.1999969482421875</AltitudeMeters>
            <DistanceMeters>NAN</DistanceMeters>
          </Trackpoint>
          <Trackpoint>
            <Time>2022-07-11T09:27:17.000Z</Time>
            <Position>
              <LatitudeDegrees>43.25109519995748996734619140625</LatitudeDegrees>
              <LongitudeDegrees>-2.54125046543776988983154296875</LongitudeDegrees>
            </Position>
            <AltitudeMeters>162.399993896484375</AltitudeMeters>
            <DistanceMeters>NAN</DistanceMeters>
          </Trackpoint>
          <Trackpoint>
            <Time>2022-07-11T09:27:18.000Z</Time>
            <Position>
              <LatitudeDegrees>43.251079022884368896484375</LatitudeDegrees>
              <LongitudeDegrees>-2.541282735764980316162109375</LongitudeDegrees>
            </Position>
            <AltitudeMeters>162.399993896484375</AltitudeMeters>
            <DistanceMeters>NAN</DistanceMeters>
          </Trackpoint>
          <Trackpoint>
            <Time>2022-07-11T09:27:27.000Z</Time>
            <Position>
              <LatitudeDegrees>43.25094298459589481353759765625</LatitudeDegrees>
              <LongitudeDegrees>-2.541571743786334991455078125</LongitudeDegrees>
            </Position>
            <AltitudeMeters>162.399993896484375</AltitudeMeters>
            <DistanceMeters>NAN</DistanceMeters>
          </Trackpoint>
          <Trackpoint>
            <Time>2022-07-11T09:27:36.000Z</Time>
            <Position>
              <LatitudeDegrees>43.2507962174713611602783203125</LatitudeDegrees>
              <LongitudeDegrees>-2.54186552949249744415283203125</LongitudeDegrees>
            </Position>
            <AltitudeMeters>162.1999969482421875</AltitudeMeters>
            <DistanceMeters>NAN</DistanceMeters>
          </Trackpoint>
          <Trackpoint>
            <Time>2022-07-11T09:27:45.000Z</Time>
            <Position>
              <LatitudeDegrees>43.25065464712679386138916015625</LatitudeDegrees>
              <LongitudeDegrees>-2.542189992964267730712890625</LongitudeDegrees>
            </Position>
            <AltitudeMeters>162.399993896484375</AltitudeMeters>
            <DistanceMeters>NAN</DistanceMeters>
          </Trackpoint>
          <Trackpoint>
            <Time>2022-07-11T09:27:55.000Z</Time>
            <Position>
              <LatitudeDegrees>43.2504994980990886688232421875</LatitudeDegrees>
              <LongitudeDegrees>-2.54249098710715770721435546875</LongitudeDegrees>
            </Position>
            <AltitudeMeters>162.8000030517578125</AltitudeMeters>
            <DistanceMeters>NAN</DistanceMeters>
          </Trackpoint>
          <Trackpoint>
            <Time>2022-07-11T09:28:02.000Z</Time>
            <Position>
              <LatitudeDegrees>43.25037905015051364898681640625</LatitudeDegrees>
              <LongitudeDegrees>-2.5426773168146610260009765625</LongitudeDegrees>
            </Position>
            <AltitudeMeters>162.8000030517578125</AltitudeMeters>
            <DistanceMeters>NAN</DistanceMeters>
          </Trackpoint>
          <Trackpoint>
            <Time>2022-07-11T09:28:05.000Z</Time>
            <Position>
              <LatitudeDegrees>43.25031526386737823486328125</LatitudeDegrees>
              <LongitudeDegrees>-2.54275635816156864166259765625</LongitudeDegrees>
            </Position>
            <AltitudeMeters>163</AltitudeMeters>
            <DistanceMeters>NAN</DistanceMeters>
          </Trackpoint>
          <Trackpoint>
            <Time>2022-07-11T09:28:11.000Z</Time>
            <Position>
              <LatitudeDegrees>43.25017402879893779754638671875</LatitudeDegrees>
              <LongitudeDegrees>-2.5428871996700763702392578125</LongitudeDegrees>
            </Position>
            <AltitudeMeters>163</AltitudeMeters>
            <DistanceMeters>NAN</DistanceMeters>
          </Trackpoint>
          <Trackpoint>
            <Time>2022-07-11T09:28:18.000Z</Time>
            <Position>
              <LatitudeDegrees>43.25001460500061511993408203125</LatitudeDegrees>
              <LongitudeDegrees>-2.54306246526539325714111328125</LongitudeDegrees>
            </Position>
            <AltitudeMeters>163.1999969482421875</AltitudeMeters>
            <DistanceMeters>NAN</DistanceMeters>
          </Trackpoint>
          <Trackpoint>
            <Time>2022-07-11T09:28:23.000Z</Time>
            <Position>
              <LatitudeDegrees>43.24989927001297473907470703125</LatitudeDegrees>
              <LongitudeDegrees>-2.54321199841797351837158203125</LongitudeDegrees>
            </Position>
            <AltitudeMeters>163.399993896484375</AltitudeMeters>
            <DistanceMeters>NAN</DistanceMeters>
          </Trackpoint>
          <Trackpoint>
            <Time>2022-07-11T09:28:26.000Z</Time>
            <Position>
              <LatitudeDegrees>43.24983824975788593292236328125</LatitudeDegrees>
              <LongitudeDegrees>-2.54330805502831935882568359375</LongitudeDegrees>
            </Position>
            <AltitudeMeters>163.399993896484375</AltitudeMeters>
            <DistanceMeters>NAN</DistanceMeters>
          </Trackpoint>
          <Trackpoint>
            <Time>2022-07-11T09:28:34.000Z</Time>
            <Position>
              <LatitudeDegrees>43.24969961307942867279052734375</LatitudeDegrees>
              <LongitudeDegrees>-2.54357795231044292449951171875</LongitudeDegrees>
            </Position>
            <AltitudeMeters>163.600006103515625</AltitudeMeters>
            <DistanceMeters>NAN</DistanceMeters>
          </Trackpoint>
          <Trackpoint>
            <Time>2022-07-11T09:28:43.000Z</Time>
            <Position>
              <LatitudeDegrees>43.24960791505873203277587890625</LatitudeDegrees>
              <LongitudeDegrees>-2.543857991695404052734375</LongitudeDegrees>
            </Position>
            <AltitudeMeters>164.1999969482421875</AltitudeMeters>
            <DistanceMeters>NAN</DistanceMeters>
          </Trackpoint>
          <Trackpoint>
            <Time>2022-07-11T09:28:48.000Z</Time>
            <Position>
              <LatitudeDegrees>43.2496130280196666717529296875</LatitudeDegrees>
              <LongitudeDegrees>-2.54403007216751575469970703125</LongitudeDegrees>
            </Position>
            <AltitudeMeters>164.399993896484375</AltitudeMeters>
            <DistanceMeters>NAN</DistanceMeters>
          </Trackpoint>
          <Trackpoint>
            <Time>2022-07-11T09:28:50.000Z</Time>
            <Position>
              <LatitudeDegrees>43.2496019639074802398681640625</LatitudeDegrees>
              <LongitudeDegrees>-2.544087655842304229736328125</LongitudeDegrees>
            </Position>
            <AltitudeMeters>164.600006103515625</AltitudeMeters>
            <DistanceMeters>NAN</DistanceMeters>
          </Trackpoint>
          <Trackpoint>
            <Time>2022-07-11T09:28:56.000Z</Time>
            <Position>
              <LatitudeDegrees>43.24952946044504642486572265625</LatitudeDegrees>
              <LongitudeDegrees>-2.5442589819431304931640625</LongitudeDegrees>
            </Position>
            <AltitudeMeters>164.8000030517578125</AltitudeMeters>
            <DistanceMeters>NAN</DistanceMeters>
          </Trackpoint>
          <Trackpoint>
            <Time>2022-07-11T09:29:02.000Z</Time>
            <Position>
              <LatitudeDegrees>43.24952267110347747802734375</LatitudeDegrees>
              <LongitudeDegrees>-2.54446274600923061370849609375</LongitudeDegrees>
            </Position>
            <AltitudeMeters>165.1999969482421875</AltitudeMeters>
            <DistanceMeters>NAN</DistanceMeters>
          </Trackpoint>
          <Trackpoint>
            <Time>2022-07-11T09:29:04.000Z</Time>
            <Position>
              <LatitudeDegrees>43.24952878989279270172119140625</LatitudeDegrees>
              <LongitudeDegrees>-2.54453114233911037445068359375</LongitudeDegrees>
            </Position>
            <AltitudeMeters>165.600006103515625</AltitudeMeters>
            <DistanceMeters>NAN</DistanceMeters>
          </Trackpoint>
          <Trackpoint>
            <Time>2022-07-11T09:29:09.000Z</Time>
            <Position>
              <LatitudeDegrees>43.249544799327850341796875</LatitudeDegrees>
              <LongitudeDegrees>-2.54470079205930233001708984375</LongitudeDegrees>
            </Position>
            <AltitudeMeters>165.8000030517578125</AltitudeMeters>
            <DistanceMeters>NAN</DistanceMeters>
          </Trackpoint>
          <Trackpoint>
            <Time>2022-07-11T09:29:17.000Z</Time>
            <Position>
              <LatitudeDegrees>43.2495476491749286651611328125</LatitudeDegrees>
              <LongitudeDegrees>-2.5449803285300731658935546875</LongitudeDegrees>
            </Position>
            <AltitudeMeters>166</AltitudeMeters>
            <DistanceMeters>NAN</DistanceMeters>
          </Trackpoint>
          <Trackpoint>
            <Time>2022-07-11T09:29:22.000Z</Time>
            <Position>
              <LatitudeDegrees>43.24954940937459468841552734375</LatitudeDegrees>
              <LongitudeDegrees>-2.54516012035310268402099609375</LongitudeDegrees>
            </Position>
            <AltitudeMeters>166.1999969482421875</AltitudeMeters>
            <DistanceMeters>NAN</DistanceMeters>
          </Trackpoint>
          <Trackpoint>
            <Time>2022-07-11T09:29:28.000Z</Time>
            <Position>
              <LatitudeDegrees>43.2495691068470478057861328125</LatitudeDegrees>
              <LongitudeDegrees>-2.54534192383289337158203125</LongitudeDegrees>
            </Position>
            <AltitudeMeters>166.600006103515625</AltitudeMeters>
            <DistanceMeters>NAN</DistanceMeters>
          </Trackpoint>
          <Trackpoint>
            <Time>2022-07-11T09:29:29.000Z</Time>
            <Position>
              <LatitudeDegrees>43.24957924894988536834716796875</LatitudeDegrees>
              <LongitudeDegrees>-2.545361034572124481201171875</LongitudeDegrees>
            </Position>
            <AltitudeMeters>166.600006103515625</AltitudeMeters>
            <DistanceMeters>NAN</DistanceMeters>
          </Trackpoint>
          <Trackpoint>
            <Time>2022-07-11T09:29:31.000Z</Time>
            <Position>
              <LatitudeDegrees>43.24958981014788150787353515625</LatitudeDegrees>
              <LongitudeDegrees>-2.54540034569799900054931640625</LongitudeDegrees>
            </Position>
            <AltitudeMeters>166.8000030517578125</AltitudeMeters>
            <DistanceMeters>NAN</DistanceMeters>
          </Trackpoint>
          <Trackpoint>
            <Time>2022-07-11T09:29:33.000Z</Time>
            <Position>
              <LatitudeDegrees>43.24958612211048603057861328125</LatitudeDegrees>
              <LongitudeDegrees>-2.5454634614288806915283203125</LongitudeDegrees>
            </Position>
            <AltitudeMeters>166.8000030517578125</AltitudeMeters>
            <DistanceMeters>NAN</DistanceMeters>
          </Trackpoint>
          <Trackpoint>
            <Time>2022-07-11T09:29:41.000Z</Time>
            <Position>
              <LatitudeDegrees>43.249590732157230377197265625</LatitudeDegrees>
              <LongitudeDegrees>-2.5457253120839595794677734375</LongitudeDegrees>
            </Position>
            <AltitudeMeters>167.399993896484375</AltitudeMeters>
            <DistanceMeters>NAN</DistanceMeters>
          </Trackpoint>
          <Trackpoint>
            <Time>2022-07-11T09:29:45.000Z</Time>
            <Position>
              <LatitudeDegrees>43.24959752149879932403564453125</LatitudeDegrees>
              <LongitudeDegrees>-2.54585799761116504669189453125</LongitudeDegrees>
            </Position>
            <AltitudeMeters>167.600006103515625</AltitudeMeters>
            <DistanceMeters>NAN</DistanceMeters>
          </Trackpoint>
          <Trackpoint>
            <Time>2022-07-11T09:29:49.000Z</Time>
            <Position>
              <LatitudeDegrees>43.24959986843168735504150390625</LatitudeDegrees>
              <LongitudeDegrees>-2.54597635008394718170166015625</LongitudeDegrees>
            </Position>
            <AltitudeMeters>168.1999969482421875</AltitudeMeters>
            <DistanceMeters>NAN</DistanceMeters>
          </Trackpoint>
          <Trackpoint>
            <Time>2022-07-11T09:29:54.000Z</Time>
            <Position>
              <LatitudeDegrees>43.249627612531185150146484375</LatitudeDegrees>
              <LongitudeDegrees>-2.5461209379136562347412109375</LongitudeDegrees>
            </Position>
            <AltitudeMeters>168.8000030517578125</AltitudeMeters>
            <DistanceMeters>NAN</DistanceMeters>
          </Trackpoint>
          <Trackpoint>
            <Time>2022-07-11T09:29:55.000Z</Time>
            <Position>
              <LatitudeDegrees>43.2496338151395320892333984375</LatitudeDegrees>
              <LongitudeDegrees>-2.54614851437509059906005859375</LongitudeDegrees>
            </Position>
            <AltitudeMeters>168.8000030517578125</AltitudeMeters>
            <DistanceMeters>NAN</DistanceMeters>
          </Trackpoint>
          <Trackpoint>
            <Time>2022-07-11T09:30:03.000Z</Time>
            <Position>
              <LatitudeDegrees>43.24963666498661041259765625</LatitudeDegrees>
              <LongitudeDegrees>-2.5464005582034587860107421875</LongitudeDegrees>
            </Position>
            <AltitudeMeters>169.600006103515625</AltitudeMeters>
            <DistanceMeters>NAN</DistanceMeters>
          </Trackpoint>
          <Trackpoint>
            <Time>2022-07-11T09:30:05.000Z</Time>
            <Position>
              <LatitudeDegrees>43.24963356368243694305419921875</LatitudeDegrees>
              <LongitudeDegrees>-2.54646702669560909271240234375</LongitudeDegrees>
            </Position>
            <AltitudeMeters>169.8000030517578125</AltitudeMeters>
            <DistanceMeters>NAN</DistanceMeters>
          </Trackpoint>
          <Trackpoint>
            <Time>2022-07-11T09:30:07.000Z</Time>
            <Position>
              <LatitudeDegrees>43.24963306076824665069580078125</LatitudeDegrees>
              <LongitudeDegrees>-2.5465333275496959686279296875</LongitudeDegrees>
            </Position>
            <AltitudeMeters>169.8000030517578125</AltitudeMeters>
            <DistanceMeters>NAN</DistanceMeters>
          </Trackpoint>
          <Trackpoint>
            <Time>2022-07-11T09:30:11.000Z</Time>
            <Position>
              <LatitudeDegrees>43.24963993392884731292724609375</LatitudeDegrees>
              <LongitudeDegrees>-2.5466788373887538909912109375</LongitudeDegrees>
            </Position>
            <AltitudeMeters>170.399993896484375</AltitudeMeters>
            <DistanceMeters>NAN</DistanceMeters>
          </Trackpoint>
          <Trackpoint>
            <Time>2022-07-11T09:30:17.000Z</Time>
            <Position>
              <LatitudeDegrees>43.2496603019535541534423828125</LatitudeDegrees>
              <LongitudeDegrees>-2.546862401068210601806640625</LongitudeDegrees>
            </Position>
            <AltitudeMeters>170.8000030517578125</AltitudeMeters>
            <DistanceMeters>NAN</DistanceMeters>
          </Trackpoint>
          <Trackpoint>
            <Time>2022-07-11T09:30:22.000Z</Time>
            <Position>
              <LatitudeDegrees>43.2496700249612331390380859375</LatitudeDegrees>
              <LongitudeDegrees>-2.547003217041492462158203125</LongitudeDegrees>
            </Position>
            <AltitudeMeters>171.1999969482421875</AltitudeMeters>
            <DistanceMeters>NAN</DistanceMeters>
          </Trackpoint>
          <Trackpoint>
            <Time>2022-07-11T09:30:29.000Z</Time>
            <Position>
              <LatitudeDegrees>43.24967614375054836273193359375</LatitudeDegrees>
              <LongitudeDegrees>-2.54721821285784244537353515625</LongitudeDegrees>
            </Position>
            <AltitudeMeters>171.8000030517578125</AltitudeMeters>
            <DistanceMeters>NAN</DistanceMeters>
          </Trackpoint>
          <Trackpoint>
            <Time>2022-07-11T09:30:31.000Z</Time>
            <Position>
              <LatitudeDegrees>43.24968050234019756317138671875</LatitudeDegrees>
              <LongitudeDegrees>-2.54727487452328205108642578125</LongitudeDegrees>
            </Position>
            <AltitudeMeters>172</AltitudeMeters>
            <DistanceMeters>NAN</DistanceMeters>
          </Trackpoint>
          <Trackpoint>
            <Time>2022-07-11T09:30:41.000Z</Time>
            <Position>
              <LatitudeDegrees>43.24971310794353485107421875</LatitudeDegrees>
              <LongitudeDegrees>-2.5475525669753551483154296875</LongitudeDegrees>
            </Position>
            <AltitudeMeters>172.8000030517578125</AltitudeMeters>
            <DistanceMeters>NAN</DistanceMeters>
          </Trackpoint>
          <Trackpoint>
            <Time>2022-07-11T09:30:44.000Z</Time>
            <Position>
              <LatitudeDegrees>43.249696679413318634033203125</LatitudeDegrees>
              <LongitudeDegrees>-2.54763546399772167205810546875</LongitudeDegrees>
            </Position>
            <AltitudeMeters>172.8000030517578125</AltitudeMeters>
            <DistanceMeters>NAN</DistanceMeters>
          </Trackpoint>
          <Trackpoint>
            <Time>2022-07-11T09:30:49.000Z</Time>
            <Position>
              <LatitudeDegrees>43.24966407380998134613037109375</LatitudeDegrees>
              <LongitudeDegrees>-2.5477872602641582489013671875</LongitudeDegrees>
            </Position>
            <AltitudeMeters>173.399993896484375</AltitudeMeters>
            <DistanceMeters>NAN</DistanceMeters>
          </Trackpoint>
          <Trackpoint>
            <Time>2022-07-11T09:30:55.000Z</Time>
            <Position>
              <LatitudeDegrees>43.24966390617191791534423828125</LatitudeDegrees>
              <LongitudeDegrees>-2.5479666329920291900634765625</LongitudeDegrees>
            </Position>
            <AltitudeMeters>174</AltitudeMeters>
            <DistanceMeters>NAN</DistanceMeters>
          </Trackpoint>
          <Trackpoint>
            <Time>2022-07-11T09:31:00.000Z</Time>
            <Position>
              <LatitudeDegrees>43.2496713660657405853271484375</LatitudeDegrees>
              <LongitudeDegrees>-2.5481106340885162353515625</LongitudeDegrees>
            </Position>
            <AltitudeMeters>174.399993896484375</AltitudeMeters>
            <DistanceMeters>NAN</DistanceMeters>
          </Trackpoint>
          <Trackpoint>
            <Time>2022-07-11T09:31:06.000Z</Time>
            <Position>
              <LatitudeDegrees>43.24967212043702602386474609375</LatitudeDegrees>
              <LongitudeDegrees>-2.5482742488384246826171875</LongitudeDegrees>
            </Position>
            <AltitudeMeters>175</AltitudeMeters>
            <DistanceMeters>NAN</DistanceMeters>
          </Trackpoint>
          <Trackpoint>
            <Time>2022-07-11T09:31:09.000Z</Time>
            <Position>
              <LatitudeDegrees>43.249678574502468109130859375</LatitudeDegrees>
              <LongitudeDegrees>-2.54835228435695171356201171875</LongitudeDegrees>
            </Position>
            <AltitudeMeters>175.1999969482421875</AltitudeMeters>
            <DistanceMeters>NAN</DistanceMeters>
          </Trackpoint>
          <Trackpoint>
            <Time>2022-07-11T09:31:19.000Z</Time>
            <Position>
              <LatitudeDegrees>43.24968226253986358642578125</LatitudeDegrees>
              <LongitudeDegrees>-2.54862771369516849517822265625</LongitudeDegrees>
            </Position>
            <AltitudeMeters>175.8000030517578125</AltitudeMeters>
            <DistanceMeters>NAN</DistanceMeters>
          </Trackpoint>
          <Trackpoint>
            <Time>2022-07-11T09:31:20.000Z</Time>
            <Position>
              <LatitudeDegrees>43.24968184344470500946044921875</LatitudeDegrees>
              <LongitudeDegrees>-2.548654116690158843994140625</LongitudeDegrees>
            </Position>
            <AltitudeMeters>176</AltitudeMeters>
            <DistanceMeters>NAN</DistanceMeters>
          </Trackpoint>
          <Trackpoint>
            <Time>2022-07-11T09:31:27.000Z</Time>
            <Position>
              <LatitudeDegrees>43.2496780715882778167724609375</LatitudeDegrees>
              <LongitudeDegrees>-2.54883323796093463897705078125</LongitudeDegrees>
            </Position>
            <AltitudeMeters>176.8000030517578125</AltitudeMeters>
            <DistanceMeters>NAN</DistanceMeters>
          </Trackpoint>
          <Trackpoint>
            <Time>2022-07-11T09:31:32.000Z</Time>
            <Position>
              <LatitudeDegrees>43.24968402273952960968017578125</LatitudeDegrees>
              <LongitudeDegrees>-2.5489689409732818603515625</LongitudeDegrees>
            </Position>
            <AltitudeMeters>177.1999969482421875</AltitudeMeters>
            <DistanceMeters>NAN</DistanceMeters>
          </Trackpoint>
          <Trackpoint>
            <Time>2022-07-11T09:31:35.000Z</Time>
            <Position>
              <LatitudeDegrees>43.24969022534787654876708984375</LatitudeDegrees>
              <LongitudeDegrees>-2.54904630593955516815185546875</LongitudeDegrees>
            </Position>
            <AltitudeMeters>177.600006103515625</AltitudeMeters>
            <DistanceMeters>NAN</DistanceMeters>
          </Trackpoint>
          <Trackpoint>
            <Time>2022-07-11T09:31:46.000Z</Time>
            <Position>
              <LatitudeDegrees>43.2497082464396953582763671875</LatitudeDegrees>
              <LongitudeDegrees>-2.5493680872023105621337890625</LongitudeDegrees>
            </Position>
            <AltitudeMeters>178</AltitudeMeters>
            <DistanceMeters>NAN</DistanceMeters>
          </Trackpoint>
          <Trackpoint>
            <Time>2022-07-11T09:31:48.000Z</Time>
            <Position>
              <LatitudeDegrees>43.2497112639248371124267578125</LatitudeDegrees>
              <LongitudeDegrees>-2.5494257546961307525634765625</LongitudeDegrees>
            </Position>
            <AltitudeMeters>178.1999969482421875</AltitudeMeters>
            <DistanceMeters>NAN</DistanceMeters>
          </Trackpoint>
          <Trackpoint>
            <Time>2022-07-11T09:31:56.000Z</Time>
            <Position>
              <LatitudeDegrees>43.249721825122833251953125</LatitudeDegrees>
              <LongitudeDegrees>-2.549647204577922821044921875</LongitudeDegrees>
            </Position>
            <AltitudeMeters>178.8000030517578125</AltitudeMeters>
            <DistanceMeters>NAN</DistanceMeters>
          </Trackpoint>
          <Trackpoint>
            <Time>2022-07-11T09:32:01.000Z</Time>
            <Position>
              <LatitudeDegrees>43.24973079375922679901123046875</LatitudeDegrees>
              <LongitudeDegrees>-2.54977905191481113433837890625</LongitudeDegrees>
            </Position>
            <AltitudeMeters>179.399993896484375</AltitudeMeters>
            <DistanceMeters>NAN</DistanceMeters>
          </Trackpoint>
          <Trackpoint>
            <Time>2022-07-11T09:32:06.000Z</Time>
            <Position>
              <LatitudeDegrees>43.24974470771849155426025390625</LatitudeDegrees>
              <LongitudeDegrees>-2.5498981587588787078857421875</LongitudeDegrees>
            </Position>
            <AltitudeMeters>179.8000030517578125</AltitudeMeters>
            <DistanceMeters>NAN</DistanceMeters>
          </Trackpoint>
          <Trackpoint>
            <Time>2022-07-11T09:32:13.000Z</Time>
            <Position>
              <LatitudeDegrees>43.24978225864470005035400390625</LatitudeDegrees>
              <LongitudeDegrees>-2.55005188286304473876953125</LongitudeDegrees>
            </Position>
            <AltitudeMeters>180.1999969482421875</AltitudeMeters>
            <DistanceMeters>NAN</DistanceMeters>
          </Trackpoint>
          <Trackpoint>
            <Time>2022-07-11T09:32:14.000Z</Time>
            <Position>
              <LatitudeDegrees>43.24979214929044246673583984375</LatitudeDegrees>
              <LongitudeDegrees>-2.550068311393260955810546875</LongitudeDegrees>
            </Position>
            <AltitudeMeters>180.399993896484375</AltitudeMeters>
            <DistanceMeters>NAN</DistanceMeters>
          </Trackpoint>
          <Trackpoint>
            <Time>2022-07-11T09:32:26.000Z</Time>
            <Position>
              <LatitudeDegrees>43.2499010302126407623291015625</LatitudeDegrees>
              <LongitudeDegrees>-2.55028297193348407745361328125</LongitudeDegrees>
            </Position>
            <AltitudeMeters>181.399993896484375</AltitudeMeters>
            <DistanceMeters>NAN</DistanceMeters>
          </Trackpoint>
          <Trackpoint>
            <Time>2022-07-11T09:32:34.000Z</Time>
            <Position>
              <LatitudeDegrees>43.2499362342059612274169921875</LatitudeDegrees>
              <LongitudeDegrees>-2.5504506938159465789794921875</LongitudeDegrees>
            </Position>
            <AltitudeMeters>182.1999969482421875</AltitudeMeters>
            <DistanceMeters>NAN</DistanceMeters>
          </Trackpoint>
          <Trackpoint>
            <Time>2022-07-11T09:32:37.000Z</Time>
            <Position>
              <LatitudeDegrees>43.2499362342059612274169921875</LatitudeDegrees>
              <LongitudeDegrees>-2.55051397718489170074462890625</LongitudeDegrees>
            </Position>
            <AltitudeMeters>182.399993896484375</AltitudeMeters>
            <DistanceMeters>NAN</DistanceMeters>
          </Trackpoint>
          <Trackpoint>
            <Time>2022-07-11T09:32:39.000Z</Time>
            <Position>
              <LatitudeDegrees>43.24992793612182140350341796875</LatitudeDegrees>
              <LongitudeDegrees>-2.5505596585571765899658203125</LongitudeDegrees>
            </Position>
            <AltitudeMeters>182.600006103515625</AltitudeMeters>
            <DistanceMeters>NAN</DistanceMeters>
          </Trackpoint>
          <Trackpoint>
            <Time>2022-07-11T09:32:46.000Z</Time>
            <Position>
              <LatitudeDegrees>43.24989474378526210784912109375</LatitudeDegrees>
              <LongitudeDegrees>-2.55069829523563385009765625</LongitudeDegrees>
            </Position>
            <AltitudeMeters>183.8000030517578125</AltitudeMeters>
            <DistanceMeters>NAN</DistanceMeters>
          </Trackpoint>
          <Trackpoint>
            <Time>2022-07-11T09:32:47.000Z</Time>
            <Position>
              <LatitudeDegrees>43.2498913072049617767333984375</LatitudeDegrees>
              <LongitudeDegrees>-2.550719417631626129150390625</LongitudeDegrees>
            </Position>
            <AltitudeMeters>184</AltitudeMeters>
            <DistanceMeters>NAN</DistanceMeters>
          </Trackpoint>
          <Trackpoint>
            <Time>2022-07-11T09:32:51.000Z</Time>
            <Position>
              <LatitudeDegrees>43.24989147484302520751953125</LatitudeDegrees>
              <LongitudeDegrees>-2.5508034043014049530029296875</LongitudeDegrees>
            </Position>
            <AltitudeMeters>184.600006103515625</AltitudeMeters>
            <DistanceMeters>NAN</DistanceMeters>
          </Trackpoint>
          <Trackpoint>
            <Time>2022-07-11T09:32:52.000Z</Time>
            <Position>
              <LatitudeDegrees>43.24988803826272487640380859375</LatitudeDegrees>
              <LongitudeDegrees>-2.55082259885966777801513671875</LongitudeDegrees>
            </Position>
            <AltitudeMeters>184.8000030517578125</AltitudeMeters>
            <DistanceMeters>NAN</DistanceMeters>
          </Trackpoint>
          <Trackpoint>
            <Time>2022-07-11T09:32:55.000Z</Time>
            <Position>
              <LatitudeDegrees>43.24987630359828472137451171875</LatitudeDegrees>
              <LongitudeDegrees>-2.55088261328637599945068359375</LongitudeDegrees>
            </Position>
            <AltitudeMeters>185.1999969482421875</AltitudeMeters>
            <DistanceMeters>NAN</DistanceMeters>
          </Trackpoint>
          <Trackpoint>
            <Time>2022-07-11T09:32:59.000Z</Time>
            <Position>
              <LatitudeDegrees>43.2498544268310070037841796875</LatitudeDegrees>
              <LongitudeDegrees>-2.5509633310139179229736328125</LongitudeDegrees>
            </Position>
            <AltitudeMeters>185.8000030517578125</AltitudeMeters>
            <DistanceMeters>NAN</DistanceMeters>
          </Trackpoint>
          <Trackpoint>
            <Time>2022-07-11T09:33:01.000Z</Time>
            <Position>
              <LatitudeDegrees>43.24984914623200893402099609375</LatitudeDegrees>
              <LongitudeDegrees>-2.55100817419588565826416015625</LongitudeDegrees>
            </Position>
            <AltitudeMeters>186</AltitudeMeters>
            <DistanceMeters>NAN</DistanceMeters>
          </Trackpoint>
          <Trackpoint>
            <Time>2022-07-11T09:33:02.000Z</Time>
            <Position>
              <LatitudeDegrees>43.24984847567975521087646484375</LatitudeDegrees>
              <LongitudeDegrees>-2.5510310567915439605712890625</LongitudeDegrees>
            </Position>
            <AltitudeMeters>186.1999969482421875</AltitudeMeters>
            <DistanceMeters>NAN</DistanceMeters>
          </Trackpoint>
          <Trackpoint>
            <Time>2022-07-11T09:33:10.000Z</Time>
            <Position>
              <LatitudeDegrees>43.2498386688530445098876953125</LatitudeDegrees>
              <LongitudeDegrees>-2.55120296962559223175048828125</LongitudeDegrees>
            </Position>
            <AltitudeMeters>187</AltitudeMeters>
            <DistanceMeters>NAN</DistanceMeters>
          </Trackpoint>
          <Trackpoint>
            <Time>2022-07-11T09:33:11.000Z</Time>
            <Position>
              <LatitudeDegrees>43.2498358190059661865234375</LatitudeDegrees>
              <LongitudeDegrees>-2.551224343478679656982421875</LongitudeDegrees>
            </Position>
            <AltitudeMeters>187</AltitudeMeters>
            <DistanceMeters>NAN</DistanceMeters>
          </Trackpoint>
          <Trackpoint>
            <Time>2022-07-11T09:33:18.000Z</Time>
            <Position>
              <LatitudeDegrees>43.249828107655048370361328125</LatitudeDegrees>
              <LongitudeDegrees>-2.551366500556468963623046875</LongitudeDegrees>
            </Position>
            <AltitudeMeters>187.8000030517578125</AltitudeMeters>
            <DistanceMeters>NAN</DistanceMeters>
          </Trackpoint>
          <Trackpoint>
            <Time>2022-07-11T09:33:23.000Z</Time>
            <Position>
              <LatitudeDegrees>43.24982383288443088531494140625</LatitudeDegrees>
              <LongitudeDegrees>-2.55147370509803295135498046875</LongitudeDegrees>
            </Position>
            <AltitudeMeters>188.1999969482421875</AltitudeMeters>
            <DistanceMeters>NAN</DistanceMeters>
          </Trackpoint>
          <Trackpoint>
            <Time>2022-07-11T09:33:31.000Z</Time>
            <Position>
              <LatitudeDegrees>43.24982534162700176239013671875</LatitudeDegrees>
              <LongitudeDegrees>-2.55164989270269870758056640625</LongitudeDegrees>
            </Position>
            <AltitudeMeters>189</AltitudeMeters>
            <DistanceMeters>NAN</DistanceMeters>
          </Trackpoint>
          <Trackpoint>
            <Time>2022-07-11T09:33:33.000Z</Time>
            <Position>
              <LatitudeDegrees>43.24983171187341213226318359375</LatitudeDegrees>
              <LongitudeDegrees>-2.5516975857317447662353515625</LongitudeDegrees>
            </Position>
            <AltitudeMeters>189.1999969482421875</AltitudeMeters>
            <DistanceMeters>NAN</DistanceMeters>
          </Trackpoint>
          <Trackpoint>
            <Time>2022-07-11T09:33:40.000Z</Time>
            <Position>
              <LatitudeDegrees>43.24983271770179271697998046875</LatitudeDegrees>
              <LongitudeDegrees>-2.55185776390135288238525390625</LongitudeDegrees>
            </Position>
            <AltitudeMeters>189.600006103515625</AltitudeMeters>
            <DistanceMeters>NAN</DistanceMeters>
          </Trackpoint>
          <Trackpoint>
            <Time>2022-07-11T09:33:47.000Z</Time>
            <Position>
              <LatitudeDegrees>43.24985132552683353424072265625</LatitudeDegrees>
              <LongitudeDegrees>-2.5520134158432483673095703125</LongitudeDegrees>
            </Position>
            <AltitudeMeters>190</AltitudeMeters>
            <DistanceMeters>NAN</DistanceMeters>
          </Trackpoint>
          <Trackpoint>
            <Time>2022-07-11T09:33:49.000Z</Time>
            <Position>
              <LatitudeDegrees>43.249854929745197296142578125</LatitudeDegrees>
              <LongitudeDegrees>-2.55205758847296237945556640625</LongitudeDegrees>
            </Position>
            <AltitudeMeters>190.1999969482421875</AltitudeMeters>
            <DistanceMeters>NAN</DistanceMeters>
          </Trackpoint>
          <Trackpoint>
            <Time>2022-07-11T09:33:57.000Z</Time>
            <Position>
              <LatitudeDegrees>43.24987613596022129058837890625</LatitudeDegrees>
              <LongitudeDegrees>-2.5522460974752902984619140625</LongitudeDegrees>
            </Position>
            <AltitudeMeters>190.600006103515625</AltitudeMeters>
            <DistanceMeters>NAN</DistanceMeters>
          </Trackpoint>
          <Trackpoint>
            <Time>2022-07-11T09:34:06.000Z</Time>
            <Position>
              <LatitudeDegrees>43.249919302761554718017578125</LatitudeDegrees>
              <LongitudeDegrees>-2.55244969390332698822021484375</LongitudeDegrees>
            </Position>
            <AltitudeMeters>191</AltitudeMeters>
            <DistanceMeters>NAN</DistanceMeters>
          </Trackpoint>
          <Trackpoint>
            <Time>2022-07-11T09:34:14.000Z</Time>
            <Position>
              <LatitudeDegrees>43.2499607093632221221923828125</LatitudeDegrees>
              <LongitudeDegrees>-2.5526326708495616912841796875</LongitudeDegrees>
            </Position>
            <AltitudeMeters>191</AltitudeMeters>
            <DistanceMeters>NAN</DistanceMeters>
          </Trackpoint>
          <Trackpoint>
            <Time>2022-07-11T09:34:17.000Z</Time>
            <Position>
              <LatitudeDegrees>43.249973952770233154296875</LatitudeDegrees>
              <LongitudeDegrees>-2.55270282737910747528076171875</LongitudeDegrees>
            </Position>
            <AltitudeMeters>191.1999969482421875</AltitudeMeters>
            <DistanceMeters>NAN</DistanceMeters>
          </Trackpoint>
          <Trackpoint>
            <Time>2022-07-11T09:34:23.000Z</Time>
            <Position>
              <LatitudeDegrees>43.25000857003033161163330078125</LatitudeDegrees>
              <LongitudeDegrees>-2.55283962003886699676513671875</LongitudeDegrees>
            </Position>
            <AltitudeMeters>191.600006103515625</AltitudeMeters>
            <DistanceMeters>NAN</DistanceMeters>
          </Trackpoint>
          <Trackpoint>
            <Time>2022-07-11T09:34:29.000Z</Time>
            <Position>
              <LatitudeDegrees>43.2500361464917659759521484375</LatitudeDegrees>
              <LongitudeDegrees>-2.55298010073602199554443359375</LongitudeDegrees>
            </Position>
            <AltitudeMeters>192</AltitudeMeters>
            <DistanceMeters>NAN</DistanceMeters>
          </Trackpoint>
          <Trackpoint>
            <Time>2022-07-11T09:34:35.000Z</Time>
            <Position>
              <LatitudeDegrees>43.25006104074418544769287109375</LatitudeDegrees>
              <LongitudeDegrees>-2.55311504937708377838134765625</LongitudeDegrees>
            </Position>
            <AltitudeMeters>192.399993896484375</AltitudeMeters>
            <DistanceMeters>NAN</DistanceMeters>
          </Trackpoint>
          <Trackpoint>
            <Time>2022-07-11T09:34:40.000Z</Time>
            <Position>
              <LatitudeDegrees>43.25008316896855831146240234375</LatitudeDegrees>
              <LongitudeDegrees>-2.5532314740121364593505859375</LongitudeDegrees>
            </Position>
            <AltitudeMeters>192.8000030517578125</AltitudeMeters>
            <DistanceMeters>NAN</DistanceMeters>
          </Trackpoint>
          <Trackpoint>
            <Time>2022-07-11T09:34:48.000Z</Time>
            <Position>
              <LatitudeDegrees>43.2501162774860858917236328125</LatitudeDegrees>
              <LongitudeDegrees>-2.55341000854969024658203125</LongitudeDegrees>
            </Position>
            <AltitudeMeters>193.399993896484375</AltitudeMeters>
            <DistanceMeters>NAN</DistanceMeters>
          </Trackpoint>
          <Trackpoint>
            <Time>2022-07-11T09:34:49.000Z</Time>
            <Position>
              <LatitudeDegrees>43.25012088753283023834228515625</LatitudeDegrees>
              <LongitudeDegrees>-2.55343054421246051788330078125</LongitudeDegrees>
            </Position>
            <AltitudeMeters>193.399993896484375</AltitudeMeters>
            <DistanceMeters>NAN</DistanceMeters>
          </Trackpoint>
          <Trackpoint>
            <Time>2022-07-11T09:34:58.000Z</Time>
            <Position>
              <LatitudeDegrees>43.2501437701284885406494140625</LatitudeDegrees>
              <LongitudeDegrees>-2.55363590084016323089599609375</LongitudeDegrees>
            </Position>
            <AltitudeMeters>194</AltitudeMeters>
            <DistanceMeters>NAN</DistanceMeters>
          </Trackpoint>
          <Trackpoint>
            <Time>2022-07-11T09:35:05.000Z</Time>
            <Position>
              <LatitudeDegrees>43.25012859888374805450439453125</LatitudeDegrees>
              <LongitudeDegrees>-2.5537830032408237457275390625</LongitudeDegrees>
            </Position>
            <AltitudeMeters>194.399993896484375</AltitudeMeters>
            <DistanceMeters>NAN</DistanceMeters>
          </Trackpoint>
          <Trackpoint>
            <Time>2022-07-11T09:35:06.000Z</Time>
            <Position>
              <LatitudeDegrees>43.2501233182847499847412109375</LatitudeDegrees>
              <LongitudeDegrees>-2.55380203016102313995361328125</LongitudeDegrees>
            </Position>
            <AltitudeMeters>194.600006103515625</AltitudeMeters>
            <DistanceMeters>NAN</DistanceMeters>
          </Trackpoint>
          <Trackpoint>
            <Time>2022-07-11T09:35:08.000Z</Time>
            <Position>
              <LatitudeDegrees>43.25011317618191242218017578125</LatitudeDegrees>
              <LongitudeDegrees>-2.55384997464716434478759765625</LongitudeDegrees>
            </Position>
            <AltitudeMeters>194.600006103515625</AltitudeMeters>
            <DistanceMeters>NAN</DistanceMeters>
          </Trackpoint>
          <Trackpoint>
            <Time>2022-07-11T09:35:14.000Z</Time>
            <Position>
              <LatitudeDegrees>43.25011686421930789947509765625</LatitudeDegrees>
              <LongitudeDegrees>-2.553999088704586029052734375</LongitudeDegrees>
            </Position>
            <AltitudeMeters>195</AltitudeMeters>
            <DistanceMeters>NAN</DistanceMeters>
          </Trackpoint>
          <Trackpoint>
            <Time>2022-07-11T09:35:17.000Z</Time>
            <Position>
              <LatitudeDegrees>43.250135220587253570556640625</LatitudeDegrees>
              <LongitudeDegrees>-2.55406438373029232025146484375</LongitudeDegrees>
            </Position>
            <AltitudeMeters>195.600006103515625</AltitudeMeters>
            <DistanceMeters>NAN</DistanceMeters>
          </Trackpoint>
          <Trackpoint>
            <Time>2022-07-11T09:35:21.000Z</Time>
            <Position>
              <LatitudeDegrees>43.25016640126705169677734375</LatitudeDegrees>
              <LongitudeDegrees>-2.55414451472461223602294921875</LongitudeDegrees>
            </Position>
            <AltitudeMeters>195.600006103515625</AltitudeMeters>
            <DistanceMeters>NAN</DistanceMeters>
          </Trackpoint>
          <Trackpoint>
            <Time>2022-07-11T09:35:23.000Z</Time>
            <Position>
              <LatitudeDegrees>43.2501826621592044830322265625</LatitudeDegrees>
              <LongitudeDegrees>-2.55416982807219028472900390625</LongitudeDegrees>
            </Position>
            <AltitudeMeters>196</AltitudeMeters>
            <DistanceMeters>NAN</DistanceMeters>
          </Trackpoint>
          <Trackpoint>
            <Time>2022-07-11T09:35:24.000Z</Time>
            <Position>
              <LatitudeDegrees>43.25018241070210933685302734375</LatitudeDegrees>
              <LongitudeDegrees>-2.55417787469923496246337890625</LongitudeDegrees>
            </Position>
            <AltitudeMeters>196.399993896484375</AltitudeMeters>
            <DistanceMeters>NAN</DistanceMeters>
          </Trackpoint>
          <Trackpoint>
            <Time>2022-07-11T09:35:25.000Z</Time>
            <Position>
              <LatitudeDegrees>43.25018920004367828369140625</LatitudeDegrees>
              <LongitudeDegrees>-2.55420184694230556488037109375</LongitudeDegrees>
            </Position>
            <AltitudeMeters>196.600006103515625</AltitudeMeters>
            <DistanceMeters>NAN</DistanceMeters>
          </Trackpoint>
          <Trackpoint>
            <Time>2022-07-11T09:35:27.000Z</Time>
            <Position>
              <LatitudeDegrees>43.250206299126148223876953125</LatitudeDegrees>
              <LongitudeDegrees>-2.55424241535365581512451171875</LongitudeDegrees>
            </Position>
            <AltitudeMeters>196.8000030517578125</AltitudeMeters>
            <DistanceMeters>NAN</DistanceMeters>
          </Trackpoint>
          <Trackpoint>
            <Time>2022-07-11T09:35:36.000Z</Time>
            <Position>
              <LatitudeDegrees>43.25029221363365650177001953125</LatitudeDegrees>
              <LongitudeDegrees>-2.55441340617835521697998046875</LongitudeDegrees>
            </Position>
            <AltitudeMeters>197.1999969482421875</AltitudeMeters>
            <DistanceMeters>NAN</DistanceMeters>
          </Trackpoint>
          <Trackpoint>
            <Time>2022-07-11T09:35:40.000Z</Time>
            <Position>
              <LatitudeDegrees>43.25033462606370449066162109375</LatitudeDegrees>
              <LongitudeDegrees>-2.55448481999337673187255859375</LongitudeDegrees>
            </Position>
            <AltitudeMeters>197.8000030517578125</AltitudeMeters>
            <DistanceMeters>NAN</DistanceMeters>
          </Trackpoint>
          <Trackpoint>
            <Time>2022-07-11T09:35:44.000Z</Time>
            <Position>
              <LatitudeDegrees>43.250371925532817840576171875</LatitudeDegrees>
              <LongitudeDegrees>-2.55456293933093547821044921875</LongitudeDegrees>
            </Position>
            <AltitudeMeters>198</AltitudeMeters>
            <DistanceMeters>NAN</DistanceMeters>
          </Trackpoint>
          <Trackpoint>
            <Time>2022-07-11T09:35:50.000Z</Time>
            <Position>
              <LatitudeDegrees>43.25043068267405033111572265625</LatitudeDegrees>
              <LongitudeDegrees>-2.5546812079846858978271484375</LongitudeDegrees>
            </Position>
            <AltitudeMeters>198.8000030517578125</AltitudeMeters>
            <DistanceMeters>NAN</DistanceMeters>
          </Trackpoint>
          <Trackpoint>
            <Time>2022-07-11T09:35:55.000Z</Time>
            <Position>
              <LatitudeDegrees>43.2504813931882381439208984375</LatitudeDegrees>
              <LongitudeDegrees>-2.5547760911285877227783203125</LongitudeDegrees>
            </Position>
            <AltitudeMeters>199.1999969482421875</AltitudeMeters>
            <DistanceMeters>NAN</DistanceMeters>
          </Trackpoint>
          <Trackpoint>
            <Time>2022-07-11T09:36:00.000Z</Time>
            <Position>
              <LatitudeDegrees>43.2505155913531780242919921875</LatitudeDegrees>
              <LongitudeDegrees>-2.554876171052455902099609375</LongitudeDegrees>
            </Position>
            <AltitudeMeters>199.8000030517578125</AltitudeMeters>
            <DistanceMeters>NAN</DistanceMeters>
          </Trackpoint>
          <Trackpoint>
            <Time>2022-07-11T09:36:05.000Z</Time>
            <Position>
              <LatitudeDegrees>43.250539563596248626708984375</LatitudeDegrees>
              <LongitudeDegrees>-2.5549930147826671600341796875</LongitudeDegrees>
            </Position>
            <AltitudeMeters>200.1999969482421875</AltitudeMeters>
            <DistanceMeters>NAN</DistanceMeters>
          </Trackpoint>
          <Trackpoint>
            <Time>2022-07-11T09:36:13.000Z</Time>
            <Position>
              <LatitudeDegrees>43.2505491189658641815185546875</LatitudeDegrees>
              <LongitudeDegrees>-2.555176913738250732421875</LongitudeDegrees>
            </Position>
            <AltitudeMeters>200.8000030517578125</AltitudeMeters>
            <DistanceMeters>NAN</DistanceMeters>
          </Trackpoint>
          <Trackpoint>
            <Time>2022-07-11T09:36:15.000Z</Time>
            <Position>
              <LatitudeDegrees>43.25053864158689975738525390625</LatitudeDegrees>
              <LongitudeDegrees>-2.5552246905863285064697265625</LongitudeDegrees>
            </Position>
            <AltitudeMeters>201</AltitudeMeters>
            <DistanceMeters>NAN</DistanceMeters>
          </Trackpoint>
          <Trackpoint>
            <Time>2022-07-11T09:36:19.000Z</Time>
            <Position>
              <LatitudeDegrees>43.25054484419524669647216796875</LatitudeDegrees>
              <LongitudeDegrees>-2.555320076644420623779296875</LongitudeDegrees>
            </Position>
            <AltitudeMeters>201.399993896484375</AltitudeMeters>
            <DistanceMeters>NAN</DistanceMeters>
          </Trackpoint>
          <Trackpoint>
            <Time>2022-07-11T09:36:24.000Z</Time>
            <Position>
              <LatitudeDegrees>43.25054115615785121917724609375</LatitudeDegrees>
              <LongitudeDegrees>-2.55543599836528301239013671875</LongitudeDegrees>
            </Position>
            <AltitudeMeters>202</AltitudeMeters>
            <DistanceMeters>NAN</DistanceMeters>
          </Trackpoint>
          <Trackpoint>
            <Time>2022-07-11T09:36:26.000Z</Time>
            <Position>
              <LatitudeDegrees>43.250539563596248626708984375</LatitudeDegrees>
              <LongitudeDegrees>-2.55547321401536464691162109375</LongitudeDegrees>
            </Position>
            <AltitudeMeters>202</AltitudeMeters>
            <DistanceMeters>NAN</DistanceMeters>
          </Trackpoint>
          <Trackpoint>
            <Time>2022-07-11T09:36:32.000Z</Time>
            <Position>
              <LatitudeDegrees>43.25051148422062397003173828125</LatitudeDegrees>
              <LongitudeDegrees>-2.55561101250350475311279296875</LongitudeDegrees>
            </Position>
            <AltitudeMeters>202.399993896484375</AltitudeMeters>
            <DistanceMeters>NAN</DistanceMeters>
          </Trackpoint>
          <Trackpoint>
            <Time>2022-07-11T09:36:38.000Z</Time>
            <Position>
              <LatitudeDegrees>43.25050209648907184600830078125</LatitudeDegrees>
              <LongitudeDegrees>-2.55573322065174579620361328125</LongitudeDegrees>
            </Position>
            <AltitudeMeters>203</AltitudeMeters>
            <DistanceMeters>NAN</DistanceMeters>
          </Trackpoint>
          <Trackpoint>
            <Time>2022-07-11T09:36:40.000Z</Time>
            <Position>
              <LatitudeDegrees>43.25049689970910549163818359375</LatitudeDegrees>
              <LongitudeDegrees>-2.5557789020240306854248046875</LongitudeDegrees>
            </Position>
            <AltitudeMeters>203.1999969482421875</AltitudeMeters>
            <DistanceMeters>NAN</DistanceMeters>
          </Trackpoint>
          <Trackpoint>
            <Time>2022-07-11T09:36:47.000Z</Time>
            <Position>
              <LatitudeDegrees>43.250497318804264068603515625</LatitudeDegrees>
              <LongitudeDegrees>-2.5559190474450588226318359375</LongitudeDegrees>
            </Position>
            <AltitudeMeters>203.8000030517578125</AltitudeMeters>
            <DistanceMeters>NAN</DistanceMeters>
          </Trackpoint>
          <Trackpoint>
            <Time>2022-07-11T09:36:49.000Z</Time>
            <Position>
              <LatitudeDegrees>43.25049974955618381500244140625</LatitudeDegrees>
              <LongitudeDegrees>-2.55595785565674304962158203125</LongitudeDegrees>
            </Position>
            <AltitudeMeters>204</AltitudeMeters>
            <DistanceMeters>NAN</DistanceMeters>
          </Trackpoint>
          <Trackpoint>
            <Time>2022-07-11T09:36:51.000Z</Time>
            <Position>
              <LatitudeDegrees>43.25050427578389644622802734375</LatitudeDegrees>
              <LongitudeDegrees>-2.55600429140031337738037109375</LongitudeDegrees>
            </Position>
            <AltitudeMeters>204.1999969482421875</AltitudeMeters>
            <DistanceMeters>NAN</DistanceMeters>
          </Trackpoint>
          <Trackpoint>
            <Time>2022-07-11T09:37:00.000Z</Time>
            <Position>
              <LatitudeDegrees>43.25052581727504730224609375</LatitudeDegrees>
              <LongitudeDegrees>-2.55619137547910213470458984375</LongitudeDegrees>
            </Position>
            <AltitudeMeters>205</AltitudeMeters>
            <DistanceMeters>NAN</DistanceMeters>
          </Trackpoint>
          <Trackpoint>
            <Time>2022-07-11T09:37:03.000Z</Time>
            <Position>
              <LatitudeDegrees>43.2505357079207897186279296875</LatitudeDegrees>
              <LongitudeDegrees>-2.55624719895422458648681640625</LongitudeDegrees>
            </Position>
            <AltitudeMeters>205.399993896484375</AltitudeMeters>
            <DistanceMeters>NAN</DistanceMeters>
          </Trackpoint>
          <Trackpoint>
            <Time>2022-07-11T09:37:11.000Z</Time>
            <Position>
              <LatitudeDegrees>43.2505712471902370452880859375</LatitudeDegrees>
              <LongitudeDegrees>-2.55639371462166309356689453125</LongitudeDegrees>
            </Position>
            <AltitudeMeters>206</AltitudeMeters>
            <DistanceMeters>NAN</DistanceMeters>
          </Trackpoint>
          <Trackpoint>
            <Time>2022-07-11T09:37:16.000Z</Time>
            <Position>
              <LatitudeDegrees>43.25059580616652965545654296875</LatitudeDegrees>
              <LongitudeDegrees>-2.55649195052683353424072265625</LongitudeDegrees>
            </Position>
            <AltitudeMeters>206.600006103515625</AltitudeMeters>
            <DistanceMeters>NAN</DistanceMeters>
          </Trackpoint>
          <Trackpoint>
            <Time>2022-07-11T09:37:22.000Z</Time>
            <Position>
              <LatitudeDegrees>43.250634111464023590087890625</LatitudeDegrees>
              <LongitudeDegrees>-2.5565993227064609527587890625</LongitudeDegrees>
            </Position>
            <AltitudeMeters>207</AltitudeMeters>
            <DistanceMeters>NAN</DistanceMeters>
          </Trackpoint>
          <Trackpoint>
            <Time>2022-07-11T09:37:28.000Z</Time>
            <Position>
              <LatitudeDegrees>43.2506592571735382080078125</LatitudeDegrees>
              <LongitudeDegrees>-2.55669437348842620849609375</LongitudeDegrees>
            </Position>
            <AltitudeMeters>207.8000030517578125</AltitudeMeters>
            <DistanceMeters>NAN</DistanceMeters>
          </Trackpoint>
          <Trackpoint>
            <Time>2022-07-11T09:37:31.000Z</Time>
            <Position>
              <LatitudeDegrees>43.2506780326366424560546875</LatitudeDegrees>
              <LongitudeDegrees>-2.55676603876054286956787109375</LongitudeDegrees>
            </Position>
            <AltitudeMeters>208.1999969482421875</AltitudeMeters>
            <DistanceMeters>NAN</DistanceMeters>
          </Trackpoint>
          <Trackpoint>
            <Time>2022-07-11T09:37:36.000Z</Time>
            <Position>
              <LatitudeDegrees>43.2507102191448211669921875</LatitudeDegrees>
              <LongitudeDegrees>-2.55685396492481231689453125</LongitudeDegrees>
            </Position>
            <AltitudeMeters>208.600006103515625</AltitudeMeters>
            <DistanceMeters>NAN</DistanceMeters>
          </Trackpoint>
          <Trackpoint>
            <Time>2022-07-11T09:37:41.000Z</Time>
            <Position>
              <LatitudeDegrees>43.2507362030446529388427734375</LatitudeDegrees>
              <LongitudeDegrees>-2.55694524385035037994384765625</LongitudeDegrees>
            </Position>
            <AltitudeMeters>209.1999969482421875</AltitudeMeters>
            <DistanceMeters>NAN</DistanceMeters>
          </Trackpoint>
          <Trackpoint>
            <Time>2022-07-11T09:37:46.000Z</Time>
            <Position>
              <LatitudeDegrees>43.25076662935316562652587890625</LatitudeDegrees>
              <LongitudeDegrees>-2.55702839232981204986572265625</LongitudeDegrees>
            </Position>
            <AltitudeMeters>209.399993896484375</AltitudeMeters>
            <DistanceMeters>NAN</DistanceMeters>
          </Trackpoint>
          <Trackpoint>
            <Time>2022-07-11T09:37:52.000Z</Time>
            <Position>
              <LatitudeDegrees>43.2507942058145999908447265625</LatitudeDegrees>
              <LongitudeDegrees>-2.55713962018489837646484375</LongitudeDegrees>
            </Position>
            <AltitudeMeters>210</AltitudeMeters>
            <DistanceMeters>NAN</DistanceMeters>
          </Trackpoint>
          <Trackpoint>
            <Time>2022-07-11T09:37:53.000Z</Time>
            <Position>
              <LatitudeDegrees>43.2508025877177715301513671875</LatitudeDegrees>
              <LongitudeDegrees>-2.5571558810770511627197265625</LongitudeDegrees>
            </Position>
            <AltitudeMeters>210.1999969482421875</AltitudeMeters>
            <DistanceMeters>NAN</DistanceMeters>
          </Trackpoint>
          <Trackpoint>
            <Time>2022-07-11T09:37:54.000Z</Time>
            <Position>
              <LatitudeDegrees>43.2508106343448162078857421875</LatitudeDegrees>
              <LongitudeDegrees>-2.5571684539318084716796875</LongitudeDegrees>
            </Position>
            <AltitudeMeters>210.1999969482421875</AltitudeMeters>
            <DistanceMeters>NAN</DistanceMeters>
          </Trackpoint>
          <Trackpoint>
            <Time>2022-07-11T09:38:03.000Z</Time>
            <Position>
              <LatitudeDegrees>43.25089738704264163970947265625</LatitudeDegrees>
              <LongitudeDegrees>-2.55731136538088321685791015625</LongitudeDegrees>
            </Position>
            <AltitudeMeters>211.399993896484375</AltitudeMeters>
            <DistanceMeters>NAN</DistanceMeters>
          </Trackpoint>
          <Trackpoint>
            <Time>2022-07-11T09:38:11.000Z</Time>
            <Position>
              <LatitudeDegrees>43.2509695552289485931396484375</LatitudeDegrees>
              <LongitudeDegrees>-2.5574366748332977294921875</LongitudeDegrees>
            </Position>
            <AltitudeMeters>212.399993896484375</AltitudeMeters>
            <DistanceMeters>NAN</DistanceMeters>
          </Trackpoint>
          <Trackpoint>
            <Time>2022-07-11T09:38:13.000Z</Time>
            <Position>
              <LatitudeDegrees>43.25099461711943149566650390625</LatitudeDegrees>
              <LongitudeDegrees>-2.55746760405600070953369140625</LongitudeDegrees>
            </Position>
            <AltitudeMeters>212.399993896484375</AltitudeMeters>
            <DistanceMeters>NAN</DistanceMeters>
          </Trackpoint>
          <Trackpoint>
            <Time>2022-07-11T09:38:18.000Z</Time>
            <Position>
              <LatitudeDegrees>43.2510221935808658599853515625</LatitudeDegrees>
              <LongitudeDegrees>-2.55755544640123844146728515625</LongitudeDegrees>
            </Position>
            <AltitudeMeters>213.1999969482421875</AltitudeMeters>
            <DistanceMeters>NAN</DistanceMeters>
          </Trackpoint>
          <Trackpoint>
            <Time>2022-07-11T09:38:20.000Z</Time>
            <Position>
              <LatitudeDegrees>43.2510186731815338134765625</LatitudeDegrees>
              <LongitudeDegrees>-2.557590566575527191162109375</LongitudeDegrees>
            </Position>
            <AltitudeMeters>213.8000030517578125</AltitudeMeters>
            <DistanceMeters>NAN</DistanceMeters>
          </Trackpoint>
          <Trackpoint>
            <Time>2022-07-11T09:38:27.000Z</Time>
            <Position>
              <LatitudeDegrees>43.2509776018559932708740234375</LatitudeDegrees>
              <LongitudeDegrees>-2.5577288679778575897216796875</LongitudeDegrees>
            </Position>
            <AltitudeMeters>214.8000030517578125</AltitudeMeters>
            <DistanceMeters>NAN</DistanceMeters>
          </Trackpoint>
          <Trackpoint>
            <Time>2022-07-11T09:38:34.000Z</Time>
            <Position>
              <LatitudeDegrees>43.25094415806233882904052734375</LatitudeDegrees>
              <LongitudeDegrees>-2.55786272697150707244873046875</LongitudeDegrees>
            </Position>
            <AltitudeMeters>215.600006103515625</AltitudeMeters>
            <DistanceMeters>NAN</DistanceMeters>
          </Trackpoint>
          <Trackpoint>
            <Time>2022-07-11T09:38:37.000Z</Time>
            <Position>
              <LatitudeDegrees>43.2509366981685161590576171875</LatitudeDegrees>
              <LongitudeDegrees>-2.55792953073978424072265625</LongitudeDegrees>
            </Position>
            <AltitudeMeters>215.8000030517578125</AltitudeMeters>
            <DistanceMeters>NAN</DistanceMeters>
          </Trackpoint>
          <Trackpoint>
            <Time>2022-07-11T09:38:43.000Z</Time>
            <Position>
              <LatitudeDegrees>43.25093275867402553558349609375</LatitudeDegrees>
              <LongitudeDegrees>-2.55804712884128093719482421875</LongitudeDegrees>
            </Position>
            <AltitudeMeters>216.399993896484375</AltitudeMeters>
            <DistanceMeters>NAN</DistanceMeters>
          </Trackpoint>
          <Trackpoint>
            <Time>2022-07-11T09:38:48.000Z</Time>
            <Position>
              <LatitudeDegrees>43.25094482861459255218505859375</LatitudeDegrees>
              <LongitudeDegrees>-2.5581409223377704620361328125</LongitudeDegrees>
            </Position>
            <AltitudeMeters>216.8000030517578125</AltitudeMeters>
            <DistanceMeters>NAN</DistanceMeters>
          </Trackpoint>
          <Trackpoint>
            <Time>2022-07-11T09:38:51.000Z</Time>
            <Position>
              <LatitudeDegrees>43.25094818137586116790771484375</LatitudeDegrees>
              <LongitudeDegrees>-2.55820504389703273773193359375</LongitudeDegrees>
            </Position>
            <AltitudeMeters>217.1999969482421875</AltitudeMeters>
            <DistanceMeters>NAN</DistanceMeters>
          </Trackpoint>
          <Trackpoint>
            <Time>2022-07-11T09:38:59.000Z</Time>
            <Position>
              <LatitudeDegrees>43.25098204426467418670654296875</LatitudeDegrees>
              <LongitudeDegrees>-2.55836446769535541534423828125</LongitudeDegrees>
            </Position>
            <AltitudeMeters>217.8000030517578125</AltitudeMeters>
            <DistanceMeters>NAN</DistanceMeters>
          </Trackpoint>
          <Trackpoint>
            <Time>2022-07-11T09:39:00.000Z</Time>
            <Position>
              <LatitudeDegrees>43.2509891688823699951171875</LatitudeDegrees>
              <LongitudeDegrees>-2.55838458426296710968017578125</LongitudeDegrees>
            </Position>
            <AltitudeMeters>218</AltitudeMeters>
            <DistanceMeters>NAN</DistanceMeters>
          </Trackpoint>
          <Trackpoint>
            <Time>2022-07-11T09:39:01.000Z</Time>
            <Position>
              <LatitudeDegrees>43.250994868576526641845703125</LatitudeDegrees>
              <LongitudeDegrees>-2.55839355289936065673828125</LongitudeDegrees>
            </Position>
            <AltitudeMeters>218</AltitudeMeters>
            <DistanceMeters>NAN</DistanceMeters>
          </Trackpoint>
          <Trackpoint>
            <Time>2022-07-11T09:39:03.000Z</Time>
            <Position>
              <LatitudeDegrees>43.251010291278362274169921875</LatitudeDegrees>
              <LongitudeDegrees>-2.55843169055879116058349609375</LongitudeDegrees>
            </Position>
            <AltitudeMeters>218</AltitudeMeters>
            <DistanceMeters>NAN</DistanceMeters>
          </Trackpoint>
          <Trackpoint>
            <Time>2022-07-11T09:39:04.000Z</Time>
            <Position>
              <LatitudeDegrees>43.251013644039630889892578125</LatitudeDegrees>
              <LongitudeDegrees>-2.5584554113447666168212890625</LongitudeDegrees>
            </Position>
            <AltitudeMeters>218.1999969482421875</AltitudeMeters>
            <DistanceMeters>NAN</DistanceMeters>
          </Trackpoint>
          <Trackpoint>
            <Time>2022-07-11T09:39:11.000Z</Time>
            <Position>
              <LatitudeDegrees>43.2510620914399623870849609375</LatitudeDegrees>
              <LongitudeDegrees>-2.5585806369781494140625</LongitudeDegrees>
            </Position>
            <AltitudeMeters>219</AltitudeMeters>
            <DistanceMeters>NAN</DistanceMeters>
          </Trackpoint>
          <Trackpoint>
            <Time>2022-07-11T09:39:19.000Z</Time>
            <Position>
              <LatitudeDegrees>43.2511351816356182098388671875</LatitudeDegrees>
              <LongitudeDegrees>-2.55870468914508819580078125</LongitudeDegrees>
            </Position>
            <AltitudeMeters>219.8000030517578125</AltitudeMeters>
            <DistanceMeters>NAN</DistanceMeters>
          </Trackpoint>
          <Trackpoint>
            <Time>2022-07-11T09:39:22.000Z</Time>
            <Position>
              <LatitudeDegrees>43.25116074644029140472412109375</LatitudeDegrees>
              <LongitudeDegrees>-2.55875162780284881591796875</LongitudeDegrees>
            </Position>
            <AltitudeMeters>220</AltitudeMeters>
            <DistanceMeters>NAN</DistanceMeters>
          </Trackpoint>
          <Trackpoint>
            <Time>2022-07-11T09:39:26.000Z</Time>
            <Position>
              <LatitudeDegrees>43.25120114721357822418212890625</LatitudeDegrees>
              <LongitudeDegrees>-2.5588030926883220672607421875</LongitudeDegrees>
            </Position>
            <AltitudeMeters>220.399993896484375</AltitudeMeters>
            <DistanceMeters>NAN</DistanceMeters>
          </Trackpoint>
          <Trackpoint>
            <Time>2022-07-11T09:39:29.000Z</Time>
            <Position>
              <LatitudeDegrees>43.2512347586452960968017578125</LatitudeDegrees>
              <LongitudeDegrees>-2.5588381290435791015625</LongitudeDegrees>
            </Position>
            <AltitudeMeters>220.600006103515625</AltitudeMeters>
            <DistanceMeters>NAN</DistanceMeters>
          </Trackpoint>
          <Trackpoint>
            <Time>2022-07-11T09:39:31.000Z</Time>
            <Position>
              <LatitudeDegrees>43.25125596486032009124755859375</LatitudeDegrees>
              <LongitudeDegrees>-2.5588641129434108734130859375</LongitudeDegrees>
            </Position>
            <AltitudeMeters>220.8000030517578125</AltitudeMeters>
            <DistanceMeters>NAN</DistanceMeters>
          </Trackpoint>
          <Trackpoint>
            <Time>2022-07-11T09:39:33.000Z</Time>
            <Position>
              <LatitudeDegrees>43.2512662746012210845947265625</LatitudeDegrees>
              <LongitudeDegrees>-2.5588716566562652587890625</LongitudeDegrees>
            </Position>
            <AltitudeMeters>221</AltitudeMeters>
            <DistanceMeters>NAN</DistanceMeters>
          </Trackpoint>
          <Trackpoint>
            <Time>2022-07-11T09:39:39.000Z</Time>
            <Position>
              <LatitudeDegrees>43.251372389495372772216796875</LatitudeDegrees>
              <LongitudeDegrees>-2.5588904321193695068359375</LongitudeDegrees>
            </Position>
            <AltitudeMeters>221.600006103515625</AltitudeMeters>
            <DistanceMeters>NAN</DistanceMeters>
          </Trackpoint>
          <Trackpoint>
            <Time>2022-07-11T09:39:46.000Z</Time>
            <Position>
              <LatitudeDegrees>43.25146115384995937347412109375</LatitudeDegrees>
              <LongitudeDegrees>-2.55888029001653194427490234375</LongitudeDegrees>
            </Position>
            <AltitudeMeters>222</AltitudeMeters>
            <DistanceMeters>NAN</DistanceMeters>
          </Trackpoint>
          <Trackpoint>
            <Time>2022-07-11T09:39:48.000Z</Time>
            <Position>
              <LatitudeDegrees>43.25149015523493289947509765625</LatitudeDegrees>
              <LongitudeDegrees>-2.55888464860618114471435546875</LongitudeDegrees>
            </Position>
            <AltitudeMeters>222</AltitudeMeters>
            <DistanceMeters>NAN</DistanceMeters>
          </Trackpoint>
          <Trackpoint>
            <Time>2022-07-11T09:39:55.000Z</Time>
            <Position>
              <LatitudeDegrees>43.25159593485295772552490234375</LatitudeDegrees>
              <LongitudeDegrees>-2.5588292442262172698974609375</LongitudeDegrees>
            </Position>
            <AltitudeMeters>223.1999969482421875</AltitudeMeters>
            <DistanceMeters>NAN</DistanceMeters>
          </Trackpoint>
          <Trackpoint>
            <Time>2022-07-11T09:40:03.000Z</Time>
            <Position>
              <LatitudeDegrees>43.251696936786174774169921875</LatitudeDegrees>
              <LongitudeDegrees>-2.5587675534188747406005859375</LongitudeDegrees>
            </Position>
            <AltitudeMeters>224</AltitudeMeters>
            <DistanceMeters>NAN</DistanceMeters>
          </Trackpoint>
          <Trackpoint>
            <Time>2022-07-11T09:40:04.000Z</Time>
            <Position>
              <LatitudeDegrees>43.2517081685364246368408203125</LatitudeDegrees>
              <LongitudeDegrees>-2.55876495502889156341552734375</LongitudeDegrees>
            </Position>
            <AltitudeMeters>224.1999969482421875</AltitudeMeters>
            <DistanceMeters>NAN</DistanceMeters>
          </Trackpoint>
          <Trackpoint>
            <Time>2022-07-11T09:40:10.000Z</Time>
            <Position>
              <LatitudeDegrees>43.2517675124108791351318359375</LatitudeDegrees>
              <LongitudeDegrees>-2.558722794055938720703125</LongitudeDegrees>
            </Position>
            <AltitudeMeters>224.8000030517578125</AltitudeMeters>
            <DistanceMeters>NAN</DistanceMeters>
          </Trackpoint>
          <Trackpoint>
            <Time>2022-07-11T09:40:14.000Z</Time>
            <Position>
              <LatitudeDegrees>43.25184051878750324249267578125</LatitudeDegrees>
              <LongitudeDegrees>-2.558663785457611083984375</LongitudeDegrees>
            </Position>
            <AltitudeMeters>225.1999969482421875</AltitudeMeters>
            <DistanceMeters>NAN</DistanceMeters>
          </Trackpoint>
          <Trackpoint>
            <Time>2022-07-11T09:40:18.000Z</Time>
            <Position>
              <LatitudeDegrees>43.25190003030002117156982421875</LatitudeDegrees>
              <LongitudeDegrees>-2.5586062856018543243408203125</LongitudeDegrees>
            </Position>
            <AltitudeMeters>225.8000030517578125</AltitudeMeters>
            <DistanceMeters>NAN</DistanceMeters>
          </Trackpoint>
          <Trackpoint>
            <Time>2022-07-11T09:40:23.000Z</Time>
            <Position>
              <LatitudeDegrees>43.251959122717380523681640625</LatitudeDegrees>
              <LongitudeDegrees>-2.55856764502823352813720703125</LongitudeDegrees>
            </Position>
            <AltitudeMeters>226.399993896484375</AltitudeMeters>
            <DistanceMeters>NAN</DistanceMeters>
          </Trackpoint>
          <Trackpoint>
            <Time>2022-07-11T09:40:28.000Z</Time>
            <Position>
              <LatitudeDegrees>43.2520199753344058990478515625</LatitudeDegrees>
              <LongitudeDegrees>-2.55850352346897125244140625</LongitudeDegrees>
            </Position>
            <AltitudeMeters>226.8000030517578125</AltitudeMeters>
            <DistanceMeters>NAN</DistanceMeters>
          </Trackpoint>
          <Trackpoint>
            <Time>2022-07-11T09:40:34.000Z</Time>
            <Position>
              <LatitudeDegrees>43.25211276300251483917236328125</LatitudeDegrees>
              <LongitudeDegrees>-2.5584559142589569091796875</LongitudeDegrees>
            </Position>
            <AltitudeMeters>227.399993896484375</AltitudeMeters>
            <DistanceMeters>NAN</DistanceMeters>
          </Trackpoint>
          <Trackpoint>
            <Time>2022-07-11T09:40:35.000Z</Time>
            <Position>
              <LatitudeDegrees>43.2521249167621135711669921875</LatitudeDegrees>
              <LongitudeDegrees>-2.55844711326062679290771484375</LongitudeDegrees>
            </Position>
            <AltitudeMeters>227.600006103515625</AltitudeMeters>
            <DistanceMeters>NAN</DistanceMeters>
          </Trackpoint>
          <Trackpoint>
            <Time>2022-07-11T09:40:41.000Z</Time>
            <Position>
              <LatitudeDegrees>43.252212591469287872314453125</LatitudeDegrees>
              <LongitudeDegrees>-2.55839288234710693359375</LongitudeDegrees>
            </Position>
            <AltitudeMeters>228.1999969482421875</AltitudeMeters>
            <DistanceMeters>NAN</DistanceMeters>
          </Trackpoint>
          <Trackpoint>
            <Time>2022-07-11T09:40:43.000Z</Time>
            <Position>
              <LatitudeDegrees>43.252236060798168182373046875</LatitudeDegrees>
              <LongitudeDegrees>-2.5583834946155548095703125</LongitudeDegrees>
            </Position>
            <AltitudeMeters>228.399993896484375</AltitudeMeters>
            <DistanceMeters>NAN</DistanceMeters>
          </Trackpoint>
          <Trackpoint>
            <Time>2022-07-11T09:40:46.000Z</Time>
            <Position>
              <LatitudeDegrees>43.25228668749332427978515625</LatitudeDegrees>
              <LongitudeDegrees>-2.5583782978355884552001953125</LongitudeDegrees>
            </Position>
            <AltitudeMeters>228.600006103515625</AltitudeMeters>
            <DistanceMeters>NAN</DistanceMeters>
          </Trackpoint>
          <Trackpoint>
            <Time>2022-07-11T09:40:52.000Z</Time>
            <Position>
              <LatitudeDegrees>43.2523646391928195953369140625</LatitudeDegrees>
              <LongitudeDegrees>-2.55837477743625640869140625</LongitudeDegrees>
            </Position>
            <AltitudeMeters>229.1999969482421875</AltitudeMeters>
            <DistanceMeters>NAN</DistanceMeters>
          </Trackpoint>
          <Trackpoint>
            <Time>2022-07-11T09:40:55.000Z</Time>
            <Position>
              <LatitudeDegrees>43.25241048820316791534423828125</LatitudeDegrees>
              <LongitudeDegrees>-2.5583752803504467010498046875</LongitudeDegrees>
            </Position>
            <AltitudeMeters>229.600006103515625</AltitudeMeters>
            <DistanceMeters>NAN</DistanceMeters>
          </Trackpoint>
          <Trackpoint>
            <Time>2022-07-11T09:41:02.000Z</Time>
            <Position>
              <LatitudeDegrees>43.25251392088830471038818359375</LatitudeDegrees>
              <LongitudeDegrees>-2.55837938748300075531005859375</LongitudeDegrees>
            </Position>
            <AltitudeMeters>230.399993896484375</AltitudeMeters>
            <DistanceMeters>NAN</DistanceMeters>
          </Trackpoint>
          <Trackpoint>
            <Time>2022-07-11T09:41:04.000Z</Time>
            <Position>
              <LatitudeDegrees>43.252540491521358489990234375</LatitudeDegrees>
              <LongitudeDegrees>-2.558385170996189117431640625</LongitudeDegrees>
            </Position>
            <AltitudeMeters>230.600006103515625</AltitudeMeters>
            <DistanceMeters>NAN</DistanceMeters>
          </Trackpoint>
          <Trackpoint>
            <Time>2022-07-11T09:41:08.000Z</Time>
            <Position>
              <LatitudeDegrees>43.252584747970104217529296875</LatitudeDegrees>
              <LongitudeDegrees>-2.558381818234920501708984375</LongitudeDegrees>
            </Position>
            <AltitudeMeters>231</AltitudeMeters>
            <DistanceMeters>NAN</DistanceMeters>
          </Trackpoint>
          <Trackpoint>
            <Time>2022-07-11T09:41:13.000Z</Time>
            <Position>
              <LatitudeDegrees>43.25265071354806423187255859375</LatitudeDegrees>
              <LongitudeDegrees>-2.5583826564252376556396484375</LongitudeDegrees>
            </Position>
            <AltitudeMeters>231.600006103515625</AltitudeMeters>
            <DistanceMeters>NAN</DistanceMeters>
          </Trackpoint>
          <Trackpoint>
            <Time>2022-07-11T09:41:18.000Z</Time>
            <Position>
              <LatitudeDegrees>43.252708129584789276123046875</LatitudeDegrees>
              <LongitudeDegrees>-2.55836698226630687713623046875</LongitudeDegrees>
            </Position>
            <AltitudeMeters>232.399993896484375</AltitudeMeters>
            <DistanceMeters>NAN</DistanceMeters>
          </Trackpoint>
          <Trackpoint>
            <Time>2022-07-11T09:41:21.000Z</Time>
            <Position>
              <LatitudeDegrees>43.25275062583386898040771484375</LatitudeDegrees>
              <LongitudeDegrees>-2.55833856761455535888671875</LongitudeDegrees>
            </Position>
            <AltitudeMeters>232.8000030517578125</AltitudeMeters>
            <DistanceMeters>NAN</DistanceMeters>
          </Trackpoint>
          <Trackpoint>
            <Time>2022-07-11T09:41:25.000Z</Time>
            <Position>
              <LatitudeDegrees>43.2528035156428813934326171875</LatitudeDegrees>
              <LongitudeDegrees>-2.558308728039264678955078125</LongitudeDegrees>
            </Position>
            <AltitudeMeters>233.1999969482421875</AltitudeMeters>
            <DistanceMeters>NAN</DistanceMeters>
          </Trackpoint>
          <Trackpoint>
            <Time>2022-07-11T09:41:28.000Z</Time>
            <Position>
              <LatitudeDegrees>43.25285389088094234466552734375</LatitudeDegrees>
              <LongitudeDegrees>-2.558296658098697662353515625</LongitudeDegrees>
            </Position>
            <AltitudeMeters>233.600006103515625</AltitudeMeters>
            <DistanceMeters>NAN</DistanceMeters>
          </Trackpoint>
          <Trackpoint>
            <Time>2022-07-11T09:41:30.000Z</Time>
            <Position>
              <LatitudeDegrees>43.25287719257175922393798828125</LatitudeDegrees>
              <LongitudeDegrees>-2.55827746354043483734130859375</LongitudeDegrees>
            </Position>
            <AltitudeMeters>233.8000030517578125</AltitudeMeters>
            <DistanceMeters>NAN</DistanceMeters>
          </Trackpoint>
          <Trackpoint>
            <Time>2022-07-11T09:41:32.000Z</Time>
            <Position>
              <LatitudeDegrees>43.25289328582584857940673828125</LatitudeDegrees>
              <LongitudeDegrees>-2.55825013853609561920166015625</LongitudeDegrees>
            </Position>
            <AltitudeMeters>234</AltitudeMeters>
            <DistanceMeters>NAN</DistanceMeters>
          </Trackpoint>
          <Trackpoint>
            <Time>2022-07-11T09:41:37.000Z</Time>
            <Position>
              <LatitudeDegrees>43.25296067632734775543212890625</LatitudeDegrees>
              <LongitudeDegrees>-2.558219544589519500732421875</LongitudeDegrees>
            </Position>
            <AltitudeMeters>234.600006103515625</AltitudeMeters>
            <DistanceMeters>NAN</DistanceMeters>
          </Trackpoint>
          <Trackpoint>
            <Time>2022-07-11T09:41:38.000Z</Time>
            <Position>
              <LatitudeDegrees>43.2529795356094837188720703125</LatitudeDegrees>
              <LongitudeDegrees>-2.55821652710437774658203125</LongitudeDegrees>
            </Position>
            <AltitudeMeters>234.8000030517578125</AltitudeMeters>
            <DistanceMeters>NAN</DistanceMeters>
          </Trackpoint>
          <Trackpoint>
            <Time>2022-07-11T09:41:40.000Z</Time>
            <Position>
              <LatitudeDegrees>43.2530016638338565826416015625</LatitudeDegrees>
              <LongitudeDegrees>-2.55820705555379390716552734375</LongitudeDegrees>
            </Position>
            <AltitudeMeters>235</AltitudeMeters>
            <DistanceMeters>NAN</DistanceMeters>
          </Trackpoint>
          <Trackpoint>
            <Time>2022-07-11T09:41:47.000Z</Time>
            <Position>
              <LatitudeDegrees>43.25308456085622310638427734375</LatitudeDegrees>
              <LongitudeDegrees>-2.558149807155132293701171875</LongitudeDegrees>
            </Position>
            <AltitudeMeters>235.8000030517578125</AltitudeMeters>
            <DistanceMeters>NAN</DistanceMeters>
          </Trackpoint>
          <Trackpoint>
            <Time>2022-07-11T09:41:49.000Z</Time>
            <Position>
              <LatitudeDegrees>43.25311725027859210968017578125</LatitudeDegrees>
              <LongitudeDegrees>-2.5581342168152332305908203125</LongitudeDegrees>
            </Position>
            <AltitudeMeters>236</AltitudeMeters>
            <DistanceMeters>NAN</DistanceMeters>
          </Trackpoint>
          <Trackpoint>
            <Time>2022-07-11T09:41:56.000Z</Time>
            <Position>
              <LatitudeDegrees>43.25320928357541561126708984375</LatitudeDegrees>
              <LongitudeDegrees>-2.55809188820421695709228515625</LongitudeDegrees>
            </Position>
            <AltitudeMeters>236.8000030517578125</AltitudeMeters>
            <DistanceMeters>NAN</DistanceMeters>
          </Trackpoint>
          <Trackpoint>
            <Time>2022-07-11T09:41:57.000Z</Time>
            <Position>
              <LatitudeDegrees>43.253224790096282958984375</LatitudeDegrees>
              <LongitudeDegrees>-2.5580849312245845794677734375</LongitudeDegrees>
            </Position>
            <AltitudeMeters>237</AltitudeMeters>
            <DistanceMeters>NAN</DistanceMeters>
          </Trackpoint>
          <Trackpoint>
            <Time>2022-07-11T09:42:06.000Z</Time>
            <Position>
              <LatitudeDegrees>43.253361247479915618896484375</LatitudeDegrees>
              <LongitudeDegrees>-2.558021731674671173095703125</LongitudeDegrees>
            </Position>
            <AltitudeMeters>237.8000030517578125</AltitudeMeters>
            <DistanceMeters>NAN</DistanceMeters>
          </Trackpoint>
          <Trackpoint>
            <Time>2022-07-11T09:42:08.000Z</Time>
            <Position>
              <LatitudeDegrees>43.25339443981647491455078125</LatitudeDegrees>
              <LongitudeDegrees>-2.55800957791507244110107421875</LongitudeDegrees>
            </Position>
            <AltitudeMeters>238</AltitudeMeters>
            <DistanceMeters>NAN</DistanceMeters>
          </Trackpoint>
          <Trackpoint>
            <Time>2022-07-11T09:42:14.000Z</Time>
            <Position>
              <LatitudeDegrees>43.25349912978708744049072265625</LatitudeDegrees>
              <LongitudeDegrees>-2.557978816330432891845703125</LongitudeDegrees>
            </Position>
            <AltitudeMeters>239</AltitudeMeters>
            <DistanceMeters>NAN</DistanceMeters>
          </Trackpoint>
          <Trackpoint>
            <Time>2022-07-11T09:42:18.000Z</Time>
            <Position>
              <LatitudeDegrees>43.253563754260540008544921875</LatitudeDegrees>
              <LongitudeDegrees>-2.55796599201858043670654296875</LongitudeDegrees>
            </Position>
            <AltitudeMeters>239.1999969482421875</AltitudeMeters>
            <DistanceMeters>NAN</DistanceMeters>
          </Trackpoint>
          <Trackpoint>
            <Time>2022-07-11T09:42:29.000Z</Time>
            <Position>
              <LatitudeDegrees>43.253732062876224517822265625</LatitudeDegrees>
              <LongitudeDegrees>-2.55794889293611049652099609375</LongitudeDegrees>
            </Position>
            <AltitudeMeters>240</AltitudeMeters>
            <DistanceMeters>NAN</DistanceMeters>
          </Trackpoint>
          <Trackpoint>
            <Time>2022-07-11T09:42:30.000Z</Time>
            <Position>
              <LatitudeDegrees>43.2537496648728847503662109375</LatitudeDegrees>
              <LongitudeDegrees>-2.55794956348836421966552734375</LongitudeDegrees>
            </Position>
            <AltitudeMeters>240.1999969482421875</AltitudeMeters>
            <DistanceMeters>NAN</DistanceMeters>
          </Trackpoint>
          <Trackpoint>
            <Time>2022-07-11T09:42:37.000Z</Time>
            <Position>
              <LatitudeDegrees>43.25384697876870632171630859375</LatitudeDegrees>
              <LongitudeDegrees>-2.5579457916319370269775390625</LongitudeDegrees>
            </Position>
            <AltitudeMeters>240.8000030517578125</AltitudeMeters>
            <DistanceMeters>NAN</DistanceMeters>
          </Trackpoint>
          <Trackpoint>
            <Time>2022-07-11T09:42:40.000Z</Time>
            <Position>
              <LatitudeDegrees>43.2538924925029277801513671875</LatitudeDegrees>
              <LongitudeDegrees>-2.55793900229036808013916015625</LongitudeDegrees>
            </Position>
            <AltitudeMeters>241.1999969482421875</AltitudeMeters>
            <DistanceMeters>NAN</DistanceMeters>
          </Trackpoint>
          <Trackpoint>
            <Time>2022-07-11T09:42:48.000Z</Time>
            <Position>
              <LatitudeDegrees>43.25399936176836490631103515625</LatitudeDegrees>
              <LongitudeDegrees>-2.557928860187530517578125</LongitudeDegrees>
            </Position>
            <AltitudeMeters>242</AltitudeMeters>
            <DistanceMeters>NAN</DistanceMeters>
          </Trackpoint>
          <Trackpoint>
            <Time>2022-07-11T09:42:49.000Z</Time>
            <Position>
              <LatitudeDegrees>43.25401361100375652313232421875</LatitudeDegrees>
              <LongitudeDegrees>-2.557927183806896209716796875</LongitudeDegrees>
            </Position>
            <AltitudeMeters>242.1999969482421875</AltitudeMeters>
            <DistanceMeters>NAN</DistanceMeters>
          </Trackpoint>
          <Trackpoint>
            <Time>2022-07-11T09:42:53.000Z</Time>
            <Position>
              <LatitudeDegrees>43.254070691764354705810546875</LatitudeDegrees>
              <LongitudeDegrees>-2.55792458541691303253173828125</LongitudeDegrees>
            </Position>
            <AltitudeMeters>242.399993896484375</AltitudeMeters>
            <DistanceMeters>NAN</DistanceMeters>
          </Trackpoint>
          <Trackpoint>
            <Time>2022-07-11T09:42:57.000Z</Time>
            <Position>
              <LatitudeDegrees>43.2541298680007457733154296875</LatitudeDegrees>
              <LongitudeDegrees>-2.55791871808469295501708984375</LongitudeDegrees>
            </Position>
            <AltitudeMeters>243</AltitudeMeters>
            <DistanceMeters>NAN</DistanceMeters>
          </Trackpoint>
          <Trackpoint>
            <Time>2022-07-11T09:42:59.000Z</Time>
            <Position>
              <LatitudeDegrees>43.254158198833465576171875</LatitudeDegrees>
              <LongitudeDegrees>-2.55791771225631237030029296875</LongitudeDegrees>
            </Position>
            <AltitudeMeters>243.1999969482421875</AltitudeMeters>
            <DistanceMeters>NAN</DistanceMeters>
          </Trackpoint>
          <Trackpoint>
            <Time>2022-07-11T09:43:06.000Z</Time>
            <Position>
              <LatitudeDegrees>43.25426506809890270233154296875</LatitudeDegrees>
              <LongitudeDegrees>-2.557929866015911102294921875</LongitudeDegrees>
            </Position>
            <AltitudeMeters>243.8000030517578125</AltitudeMeters>
            <DistanceMeters>NAN</DistanceMeters>
          </Trackpoint>
          <Trackpoint>
            <Time>2022-07-11T09:43:07.000Z</Time>
            <Position>
              <LatitudeDegrees>43.25427822768688201904296875</LatitudeDegrees>
              <LongitudeDegrees>-2.55793397314846515655517578125</LongitudeDegrees>
            </Position>
            <AltitudeMeters>244</AltitudeMeters>
            <DistanceMeters>NAN</DistanceMeters>
          </Trackpoint>
          <Trackpoint>
            <Time>2022-07-11T09:43:11.000Z</Time>
            <Position>
              <LatitudeDegrees>43.25429406948387622833251953125</LatitudeDegrees>
              <LongitudeDegrees>-2.55793833173811435699462890625</LongitudeDegrees>
            </Position>
            <AltitudeMeters>244.1999969482421875</AltitudeMeters>
            <DistanceMeters>NAN</DistanceMeters>
          </Trackpoint>
          <Trackpoint>
            <Time>2022-07-11T09:46:01.000Z</Time>
            <Position>
              <LatitudeDegrees>43.2543317042291164398193359375</LatitudeDegrees>
              <LongitudeDegrees>-2.5579692609608173370361328125</LongitudeDegrees>
            </Position>
            <AltitudeMeters>239.399993896484375</AltitudeMeters>
            <DistanceMeters>NAN</DistanceMeters>
          </Trackpoint>
          <Trackpoint>
            <Time>2022-07-11T09:46:02.000Z</Time>
            <Position>
              <LatitudeDegrees>43.25434385798871517181396484375</LatitudeDegrees>
              <LongitudeDegrees>-2.5579813309013843536376953125</LongitudeDegrees>
            </Position>
            <AltitudeMeters>239.399993896484375</AltitudeMeters>
            <DistanceMeters>NAN</DistanceMeters>
          </Trackpoint>
          <Trackpoint>
            <Time>2022-07-11T09:46:05.000Z</Time>
            <Position>
              <LatitudeDegrees>43.254386521875858306884765625</LatitudeDegrees>
              <LongitudeDegrees>-2.55801343359053134918212890625</LongitudeDegrees>
            </Position>
            <AltitudeMeters>240.399993896484375</AltitudeMeters>
            <DistanceMeters>NAN</DistanceMeters>
          </Trackpoint>
          <Trackpoint>
            <Time>2022-07-11T09:46:07.000Z</Time>
            <Position>
              <LatitudeDegrees>43.25441208668053150177001953125</LatitudeDegrees>
              <LongitudeDegrees>-2.5580443628132343292236328125</LongitudeDegrees>
            </Position>
            <AltitudeMeters>241</AltitudeMeters>
            <DistanceMeters>NAN</DistanceMeters>
          </Trackpoint>
          <Trackpoint>
            <Time>2022-07-11T09:46:08.000Z</Time>
            <Position>
              <LatitudeDegrees>43.25442482717335224151611328125</LatitudeDegrees>
              <LongitudeDegrees>-2.5580656528472900390625</LongitudeDegrees>
            </Position>
            <AltitudeMeters>241.1999969482421875</AltitudeMeters>
            <DistanceMeters>NAN</DistanceMeters>
          </Trackpoint>
          <Trackpoint>
            <Time>2022-07-11T09:46:09.000Z</Time>
            <Position>
              <LatitudeDegrees>43.254439495503902435302734375</LatitudeDegrees>
              <LongitudeDegrees>-2.5580785609781742095947265625</LongitudeDegrees>
            </Position>
            <AltitudeMeters>241.1999969482421875</AltitudeMeters>
            <DistanceMeters>NAN</DistanceMeters>
          </Trackpoint>
          <Trackpoint>
            <Time>2022-07-11T09:46:11.000Z</Time>
            <Position>
              <LatitudeDegrees>43.2544698379933834075927734375</LatitudeDegrees>
              <LongitudeDegrees>-2.55809255875647068023681640625</LongitudeDegrees>
            </Position>
            <AltitudeMeters>241.399993896484375</AltitudeMeters>
            <DistanceMeters>NAN</DistanceMeters>
          </Trackpoint>
          <Trackpoint>
            <Time>2022-07-11T09:46:14.000Z</Time>
            <Position>
              <LatitudeDegrees>43.25450981967151165008544921875</LatitudeDegrees>
              <LongitudeDegrees>-2.55811284296214580535888671875</LongitudeDegrees>
            </Position>
            <AltitudeMeters>241.8000030517578125</AltitudeMeters>
            <DistanceMeters>NAN</DistanceMeters>
          </Trackpoint>
          <Trackpoint>
            <Time>2022-07-11T09:46:21.000Z</Time>
            <Position>
              <LatitudeDegrees>43.2545982487499713897705078125</LatitudeDegrees>
              <LongitudeDegrees>-2.55818794481456279754638671875</LongitudeDegrees>
            </Position>
            <AltitudeMeters>242.600006103515625</AltitudeMeters>
            <DistanceMeters>NAN</DistanceMeters>
          </Trackpoint>
          <Trackpoint>
            <Time>2022-07-11T09:46:22.000Z</Time>
            <Position>
              <LatitudeDegrees>43.2546079717576503753662109375</LatitudeDegrees>
              <LongitudeDegrees>-2.55819347687065601348876953125</LongitudeDegrees>
            </Position>
            <AltitudeMeters>242.600006103515625</AltitudeMeters>
            <DistanceMeters>NAN</DistanceMeters>
          </Trackpoint>
          <Trackpoint>
            <Time>2022-07-11T09:46:24.000Z</Time>
            <Position>
              <LatitudeDegrees>43.2546307705342769622802734375</LatitudeDegrees>
              <LongitudeDegrees>-2.558214180171489715576171875</LongitudeDegrees>
            </Position>
            <AltitudeMeters>242.8000030517578125</AltitudeMeters>
            <DistanceMeters>NAN</DistanceMeters>
          </Trackpoint>
          <Trackpoint>
            <Time>2022-07-11T09:46:26.000Z</Time>
            <Position>
              <LatitudeDegrees>43.25465013273060321807861328125</LatitudeDegrees>
              <LongitudeDegrees>-2.55824108608067035675048828125</LongitudeDegrees>
            </Position>
            <AltitudeMeters>243</AltitudeMeters>
            <DistanceMeters>NAN</DistanceMeters>
          </Trackpoint>
          <Trackpoint>
            <Time>2022-07-11T09:46:29.000Z</Time>
            <Position>
              <LatitudeDegrees>43.254680894315242767333984375</LatitudeDegrees>
              <LongitudeDegrees>-2.55828852765262126922607421875</LongitudeDegrees>
            </Position>
            <AltitudeMeters>243.1999969482421875</AltitudeMeters>
            <DistanceMeters>NAN</DistanceMeters>
          </Trackpoint>
          <Trackpoint>
            <Time>2022-07-11T09:46:31.000Z</Time>
            <Position>
              <LatitudeDegrees>43.2547021843492984771728515625</LatitudeDegrees>
              <LongitudeDegrees>-2.558320127427577972412109375</LongitudeDegrees>
            </Position>
            <AltitudeMeters>243.600006103515625</AltitudeMeters>
            <DistanceMeters>NAN</DistanceMeters>
          </Trackpoint>
          <Trackpoint>
            <Time>2022-07-11T09:46:40.000Z</Time>
            <Position>
              <LatitudeDegrees>43.2547871768474578857421875</LatitudeDegrees>
              <LongitudeDegrees>-2.5584564171731472015380859375</LongitudeDegrees>
            </Position>
            <AltitudeMeters>244.399993896484375</AltitudeMeters>
            <DistanceMeters>NAN</DistanceMeters>
          </Trackpoint>
          <Trackpoint>
            <Time>2022-07-11T09:46:42.000Z</Time>
            <Position>
              <LatitudeDegrees>43.25480637140572071075439453125</LatitudeDegrees>
              <LongitudeDegrees>-2.5584916211664676666259765625</LongitudeDegrees>
            </Position>
            <AltitudeMeters>244.600006103515625</AltitudeMeters>
            <DistanceMeters>NAN</DistanceMeters>
          </Trackpoint>
          <Trackpoint>
            <Time>2022-07-11T09:46:47.000Z</Time>
            <Position>
              <LatitudeDegrees>43.25485666282474994659423828125</LatitudeDegrees>
              <LongitudeDegrees>-2.55856630392372608184814453125</LongitudeDegrees>
            </Position>
            <AltitudeMeters>245</AltitudeMeters>
            <DistanceMeters>NAN</DistanceMeters>
          </Trackpoint>
          <Trackpoint>
            <Time>2022-07-11T09:46:53.000Z</Time>
            <Position>
              <LatitudeDegrees>43.25490259565412998199462890625</LatitudeDegrees>
              <LongitudeDegrees>-2.55866713821887969970703125</LongitudeDegrees>
            </Position>
            <AltitudeMeters>245.600006103515625</AltitudeMeters>
            <DistanceMeters>NAN</DistanceMeters>
          </Trackpoint>
          <Trackpoint>
            <Time>2022-07-11T09:46:55.000Z</Time>
            <Position>
              <LatitudeDegrees>43.25491391122341156005859375</LatitudeDegrees>
              <LongitudeDegrees>-2.55869873799383640289306640625</LongitudeDegrees>
            </Position>
            <AltitudeMeters>246</AltitudeMeters>
            <DistanceMeters>NAN</DistanceMeters>
          </Trackpoint>
          <Trackpoint>
            <Time>2022-07-11T09:46:58.000Z</Time>
            <Position>
              <LatitudeDegrees>43.2549415715038776397705078125</LatitudeDegrees>
              <LongitudeDegrees>-2.55875539965927600860595703125</LongitudeDegrees>
            </Position>
            <AltitudeMeters>246.1999969482421875</AltitudeMeters>
            <DistanceMeters>NAN</DistanceMeters>
          </Trackpoint>
          <Trackpoint>
            <Time>2022-07-11T09:47:02.000Z</Time>
            <Position>
              <LatitudeDegrees>43.25496864505112171173095703125</LatitudeDegrees>
              <LongitudeDegrees>-2.5588245503604412078857421875</LongitudeDegrees>
            </Position>
            <AltitudeMeters>246.600006103515625</AltitudeMeters>
            <DistanceMeters>NAN</DistanceMeters>
          </Trackpoint>
          <Trackpoint>
            <Time>2022-07-11T09:47:04.000Z</Time>
            <Position>
              <LatitudeDegrees>43.25497987680137157440185546875</LatitudeDegrees>
              <LongitudeDegrees>-2.5588570721447467803955078125</LongitudeDegrees>
            </Position>
            <AltitudeMeters>246.600006103515625</AltitudeMeters>
            <DistanceMeters>NAN</DistanceMeters>
          </Trackpoint>
          <Trackpoint>
            <Time>2022-07-11T09:47:08.000Z</Time>
            <Position>
              <LatitudeDegrees>43.25497836805880069732666015625</LatitudeDegrees>
              <LongitudeDegrees>-2.55892605520784854888916015625</LongitudeDegrees>
            </Position>
            <AltitudeMeters>247</AltitudeMeters>
            <DistanceMeters>NAN</DistanceMeters>
          </Trackpoint>
          <Trackpoint>
            <Time>2022-07-11T09:47:14.000Z</Time>
            <Position>
              <LatitudeDegrees>43.25493075884878635406494140625</LatitudeDegrees>
              <LongitudeDegrees>-2.5590133108198642730712890625</LongitudeDegrees>
            </Position>
            <AltitudeMeters>247.399993896484375</AltitudeMeters>
            <DistanceMeters>NAN</DistanceMeters>
          </Trackpoint>
          <Trackpoint>
            <Time>2022-07-11T09:47:16.000Z</Time>
            <Position>
              <LatitudeDegrees>43.2549187727272510528564453125</LatitudeDegrees>
              <LongitudeDegrees>-2.55903501994907855987548828125</LongitudeDegrees>
            </Position>
            <AltitudeMeters>247.399993896484375</AltitudeMeters>
            <DistanceMeters>NAN</DistanceMeters>
          </Trackpoint>
          <Trackpoint>
            <Time>2022-07-11T09:47:18.000Z</Time>
            <Position>
              <LatitudeDegrees>43.254902847111225128173828125</LatitudeDegrees>
              <LongitudeDegrees>-2.55903585813939571380615234375</LongitudeDegrees>
            </Position>
            <AltitudeMeters>247.399993896484375</AltitudeMeters>
            <DistanceMeters>NAN</DistanceMeters>
          </Trackpoint>
          <Trackpoint>
            <Time>2022-07-11T09:47:19.000Z</Time>
            <Position>
              <LatitudeDegrees>43.25489287264645099639892578125</LatitudeDegrees>
              <LongitudeDegrees>-2.5590377859771251678466796875</LongitudeDegrees>
            </Position>
            <AltitudeMeters>247.399993896484375</AltitudeMeters>
            <DistanceMeters>NAN</DistanceMeters>
          </Trackpoint>
          <Trackpoint>
            <Time>2022-07-11T09:47:21.000Z</Time>
            <Position>
              <LatitudeDegrees>43.25488499365746974945068359375</LatitudeDegrees>
              <LongitudeDegrees>-2.559036277234554290771484375</LongitudeDegrees>
            </Position>
            <AltitudeMeters>247.399993896484375</AltitudeMeters>
            <DistanceMeters>NAN</DistanceMeters>
          </Trackpoint>
          <Trackpoint>
            <Time>2022-07-11T09:47:22.000Z</Time>
            <Position>
              <LatitudeDegrees>43.25486294925212860107421875</LatitudeDegrees>
              <LongitudeDegrees>-2.5590287335216999053955078125</LongitudeDegrees>
            </Position>
            <AltitudeMeters>247.399993896484375</AltitudeMeters>
            <DistanceMeters>NAN</DistanceMeters>
          </Trackpoint>
          <Trackpoint>
            <Time>2022-07-11T09:47:24.000Z</Time>
            <Position>
              <LatitudeDegrees>43.25484408996999263763427734375</LatitudeDegrees>
              <LongitudeDegrees>-2.55900350399315357208251953125</LongitudeDegrees>
            </Position>
            <AltitudeMeters>247.600006103515625</AltitudeMeters>
            <DistanceMeters>NAN</DistanceMeters>
          </Trackpoint>
          <Trackpoint>
            <Time>2022-07-11T09:47:25.000Z</Time>
            <Position>
              <LatitudeDegrees>43.2548292540013790130615234375</LatitudeDegrees>
              <LongitudeDegrees>-2.55899193696677684783935546875</LongitudeDegrees>
            </Position>
            <AltitudeMeters>247.600006103515625</AltitudeMeters>
            <DistanceMeters>NAN</DistanceMeters>
          </Trackpoint>
          <Trackpoint>
            <Time>2022-07-11T09:47:26.000Z</Time>
            <Position>
              <LatitudeDegrees>43.2548166811466217041015625</LatitudeDegrees>
              <LongitudeDegrees>-2.55898229777812957763671875</LongitudeDegrees>
            </Position>
            <AltitudeMeters>247.8000030517578125</AltitudeMeters>
            <DistanceMeters>NAN</DistanceMeters>
          </Trackpoint>
          <Trackpoint>
            <Time>2022-07-11T09:47:33.000Z</Time>
            <Position>
              <LatitudeDegrees>43.254730515182018280029296875</LatitudeDegrees>
              <LongitudeDegrees>-2.55886922590434551239013671875</LongitudeDegrees>
            </Position>
            <AltitudeMeters>248.1999969482421875</AltitudeMeters>
            <DistanceMeters>NAN</DistanceMeters>
          </Trackpoint>
          <Trackpoint>
            <Time>2022-07-11T09:47:37.000Z</Time>
            <Position>
              <LatitudeDegrees>43.2546793855726718902587890625</LatitudeDegrees>
              <LongitudeDegrees>-2.558823712170124053955078125</LongitudeDegrees>
            </Position>
            <AltitudeMeters>248.1999969482421875</AltitudeMeters>
            <DistanceMeters>NAN</DistanceMeters>
          </Trackpoint>
          <Trackpoint>
            <Time>2022-07-11T09:47:39.000Z</Time>
            <Position>
              <LatitudeDegrees>43.254658095538616180419921875</LatitudeDegrees>
              <LongitudeDegrees>-2.5588014163076877593994140625</LongitudeDegrees>
            </Position>
            <AltitudeMeters>248.399993896484375</AltitudeMeters>
            <DistanceMeters>NAN</DistanceMeters>
          </Trackpoint>
          <Trackpoint>
            <Time>2022-07-11T09:47:48.000Z</Time>
            <Position>
              <LatitudeDegrees>43.25452842749655246734619140625</LatitudeDegrees>
              <LongitudeDegrees>-2.558733858168125152587890625</LongitudeDegrees>
            </Position>
            <AltitudeMeters>248.8000030517578125</AltitudeMeters>
            <DistanceMeters>NAN</DistanceMeters>
          </Trackpoint>
          <Trackpoint>
            <Time>2022-07-11T09:47:49.000Z</Time>
            <Position>
              <LatitudeDegrees>43.2545130886137485504150390625</LatitudeDegrees>
              <LongitudeDegrees>-2.55872773937880992889404296875</LongitudeDegrees>
            </Position>
            <AltitudeMeters>248.8000030517578125</AltitudeMeters>
            <DistanceMeters>NAN</DistanceMeters>
          </Trackpoint>
          <Trackpoint>
            <Time>2022-07-11T09:47:56.000Z</Time>
            <Position>
              <LatitudeDegrees>43.25440370477735996246337890625</LatitudeDegrees>
              <LongitudeDegrees>-2.55870929919183254241943359375</LongitudeDegrees>
            </Position>
            <AltitudeMeters>249.1999969482421875</AltitudeMeters>
            <DistanceMeters>NAN</DistanceMeters>
          </Trackpoint>
          <Trackpoint>
            <Time>2022-07-11T09:48:01.000Z</Time>
            <Position>
              <LatitudeDegrees>43.254327513277530670166015625</LatitudeDegrees>
              <LongitudeDegrees>-2.558701336383819580078125</LongitudeDegrees>
            </Position>
            <AltitudeMeters>249.600006103515625</AltitudeMeters>
            <DistanceMeters>NAN</DistanceMeters>
          </Trackpoint>
          <Trackpoint>
            <Time>2022-07-11T09:48:04.000Z</Time>
            <Position>
              <LatitudeDegrees>43.25427512638270854949951171875</LatitudeDegrees>
              <LongitudeDegrees>-2.5586999952793121337890625</LongitudeDegrees>
            </Position>
            <AltitudeMeters>249.8000030517578125</AltitudeMeters>
            <DistanceMeters>NAN</DistanceMeters>
          </Trackpoint>
          <Trackpoint>
            <Time>2022-07-11T09:48:12.000Z</Time>
            <Position>
              <LatitudeDegrees>43.2541670836508274078369140625</LatitudeDegrees>
              <LongitudeDegrees>-2.55870410241186618804931640625</LongitudeDegrees>
            </Position>
            <AltitudeMeters>250.399993896484375</AltitudeMeters>
            <DistanceMeters>NAN</DistanceMeters>
          </Trackpoint>
          <Trackpoint>
            <Time>2022-07-11T09:48:17.000Z</Time>
            <Position>
              <LatitudeDegrees>43.25409575365483760833740234375</LatitudeDegrees>
              <LongitudeDegrees>-2.558701671659946441650390625</LongitudeDegrees>
            </Position>
            <AltitudeMeters>250.8000030517578125</AltitudeMeters>
            <DistanceMeters>NAN</DistanceMeters>
          </Trackpoint>
          <Trackpoint>
            <Time>2022-07-11T09:48:21.000Z</Time>
            <Position>
              <LatitudeDegrees>43.25404278002679347991943359375</LatitudeDegrees>
              <LongitudeDegrees>-2.55870678462088108062744140625</LongitudeDegrees>
            </Position>
            <AltitudeMeters>251.1999969482421875</AltitudeMeters>
            <DistanceMeters>NAN</DistanceMeters>
          </Trackpoint>
          <Trackpoint>
            <Time>2022-07-11T09:48:28.000Z</Time>
            <Position>
              <LatitudeDegrees>43.253963403403759002685546875</LatitudeDegrees>
              <LongitudeDegrees>-2.5587621890008449554443359375</LongitudeDegrees>
            </Position>
            <AltitudeMeters>251.600006103515625</AltitudeMeters>
            <DistanceMeters>NAN</DistanceMeters>
          </Trackpoint>
          <Trackpoint>
            <Time>2022-07-11T09:48:33.000Z</Time>
            <Position>
              <LatitudeDegrees>43.25390934012830257415771484375</LatitudeDegrees>
              <LongitudeDegrees>-2.55882538855075836181640625</LongitudeDegrees>
            </Position>
            <AltitudeMeters>251.8000030517578125</AltitudeMeters>
            <DistanceMeters>NAN</DistanceMeters>
          </Trackpoint>
          <Trackpoint>
            <Time>2022-07-11T09:48:36.000Z</Time>
            <Position>
              <LatitudeDegrees>43.25387128628790378570556640625</LatitudeDegrees>
              <LongitudeDegrees>-2.55887475796043872833251953125</LongitudeDegrees>
            </Position>
            <AltitudeMeters>252</AltitudeMeters>
            <DistanceMeters>NAN</DistanceMeters>
          </Trackpoint>
          <Trackpoint>
            <Time>2022-07-11T09:48:39.000Z</Time>
            <Position>
              <LatitudeDegrees>43.2538484036922454833984375</LatitudeDegrees>
              <LongitudeDegrees>-2.55892689339816570281982421875</LongitudeDegrees>
            </Position>
            <AltitudeMeters>252.1999969482421875</AltitudeMeters>
            <DistanceMeters>NAN</DistanceMeters>
          </Trackpoint>
          <Trackpoint>
            <Time>2022-07-11T09:48:42.000Z</Time>
            <Position>
              <LatitudeDegrees>43.2538163848221302032470703125</LatitudeDegrees>
              <LongitudeDegrees>-2.55896628834307193756103515625</LongitudeDegrees>
            </Position>
            <AltitudeMeters>252.399993896484375</AltitudeMeters>
            <DistanceMeters>NAN</DistanceMeters>
          </Trackpoint>
          <Trackpoint>
            <Time>2022-07-11T09:48:49.000Z</Time>
            <Position>
              <LatitudeDegrees>43.25376047752797603607177734375</LatitudeDegrees>
              <LongitudeDegrees>-2.559078522026538848876953125</LongitudeDegrees>
            </Position>
            <AltitudeMeters>252.8000030517578125</AltitudeMeters>
            <DistanceMeters>NAN</DistanceMeters>
          </Trackpoint>
          <Trackpoint>
            <Time>2022-07-11T09:48:50.000Z</Time>
            <Position>
              <LatitudeDegrees>43.25374857522547245025634765625</LatitudeDegrees>
              <LongitudeDegrees>-2.55909201689064502716064453125</LongitudeDegrees>
            </Position>
            <AltitudeMeters>253</AltitudeMeters>
            <DistanceMeters>NAN</DistanceMeters>
          </Trackpoint>
          <Trackpoint>
            <Time>2022-07-11T09:49:03.000Z</Time>
            <Position>
              <LatitudeDegrees>43.25361480005085468292236328125</LatitudeDegrees>
              <LongitudeDegrees>-2.5592741556465625762939453125</LongitudeDegrees>
            </Position>
            <AltitudeMeters>254</AltitudeMeters>
            <DistanceMeters>NAN</DistanceMeters>
          </Trackpoint>
          <Trackpoint>
            <Time>2022-07-11T09:49:13.000Z</Time>
            <Position>
              <LatitudeDegrees>43.25351572595536708831787109375</LatitudeDegrees>
              <LongitudeDegrees>-2.55941119976341724395751953125</LongitudeDegrees>
            </Position>
            <AltitudeMeters>255</AltitudeMeters>
            <DistanceMeters>NAN</DistanceMeters>
          </Trackpoint>
          <Trackpoint>
            <Time>2022-07-11T09:49:14.000Z</Time>
            <Position>
              <LatitudeDegrees>43.25350432656705379486083984375</LatitudeDegrees>
              <LongitudeDegrees>-2.55942142568528652191162109375</LongitudeDegrees>
            </Position>
            <AltitudeMeters>255</AltitudeMeters>
            <DistanceMeters>NAN</DistanceMeters>
          </Trackpoint>
          <Trackpoint>
            <Time>2022-07-11T09:49:17.000Z</Time>
            <Position>
              <LatitudeDegrees>43.25346359051764011383056640625</LatitudeDegrees>
              <LongitudeDegrees>-2.5594448111951351165771484375</LongitudeDegrees>
            </Position>
            <AltitudeMeters>255.1999969482421875</AltitudeMeters>
            <DistanceMeters>NAN</DistanceMeters>
          </Trackpoint>
          <Trackpoint>
            <Time>2022-07-11T09:49:19.000Z</Time>
            <Position>
              <LatitudeDegrees>43.25343693606555461883544921875</LatitudeDegrees>
              <LongitudeDegrees>-2.55946367047727108001708984375</LongitudeDegrees>
            </Position>
            <AltitudeMeters>255.1999969482421875</AltitudeMeters>
            <DistanceMeters>NAN</DistanceMeters>
          </Trackpoint>
          <Trackpoint>
            <Time>2022-07-11T09:49:28.000Z</Time>
            <Position>
              <LatitudeDegrees>43.2533225230872631072998046875</LatitudeDegrees>
              <LongitudeDegrees>-2.55951899103820323944091796875</LongitudeDegrees>
            </Position>
            <AltitudeMeters>256</AltitudeMeters>
            <DistanceMeters>NAN</DistanceMeters>
          </Trackpoint>
          <Trackpoint>
            <Time>2022-07-11T09:49:30.000Z</Time>
            <Position>
              <LatitudeDegrees>43.25329293496906757354736328125</LatitudeDegrees>
              <LongitudeDegrees>-2.5595272891223430633544921875</LongitudeDegrees>
            </Position>
            <AltitudeMeters>256.20001220703125</AltitudeMeters>
            <DistanceMeters>NAN</DistanceMeters>
          </Trackpoint>
          <Trackpoint>
            <Time>2022-07-11T09:49:35.000Z</Time>
            <Position>
              <LatitudeDegrees>43.2532152347266674041748046875</LatitudeDegrees>
              <LongitudeDegrees>-2.55956626497209072113037109375</LongitudeDegrees>
            </Position>
            <AltitudeMeters>256.600006103515625</AltitudeMeters>
            <DistanceMeters>NAN</DistanceMeters>
          </Trackpoint>
          <Trackpoint>
            <Time>2022-07-11T09:49:43.000Z</Time>
            <Position>
              <LatitudeDegrees>43.2530972175300121307373046875</LatitudeDegrees>
              <LongitudeDegrees>-2.559583447873592376708984375</LongitudeDegrees>
            </Position>
            <AltitudeMeters>257</AltitudeMeters>
            <DistanceMeters>NAN</DistanceMeters>
          </Trackpoint>
          <Trackpoint>
            <Time>2022-07-11T09:49:45.000Z</Time>
            <Position>
              <LatitudeDegrees>43.253066539764404296875</LatitudeDegrees>
              <LongitudeDegrees>-2.55958981812000274658203125</LongitudeDegrees>
            </Position>
            <AltitudeMeters>257.20001220703125</AltitudeMeters>
            <DistanceMeters>NAN</DistanceMeters>
          </Trackpoint>
          <Trackpoint>
            <Time>2022-07-11T09:49:46.000Z</Time>
            <Position>
              <LatitudeDegrees>43.2530519552528858184814453125</LatitudeDegrees>
              <LongitudeDegrees>-2.55959358997642993927001953125</LongitudeDegrees>
            </Position>
            <AltitudeMeters>257.20001220703125</AltitudeMeters>
            <DistanceMeters>NAN</DistanceMeters>
          </Trackpoint>
          <Trackpoint>
            <Time>2022-07-11T09:49:48.000Z</Time>
            <Position>
              <LatitudeDegrees>43.253029994666576385498046875</LatitudeDegrees>
              <LongitudeDegrees>-2.5595987029373645782470703125</LongitudeDegrees>
            </Position>
            <AltitudeMeters>257.399993896484375</AltitudeMeters>
            <DistanceMeters>NAN</DistanceMeters>
          </Trackpoint>
          <Trackpoint>
            <Time>2022-07-11T09:49:52.000Z</Time>
            <Position>
              <LatitudeDegrees>43.2529818825423717498779296875</LatitudeDegrees>
              <LongitudeDegrees>-2.5596064142882823944091796875</LongitudeDegrees>
            </Position>
            <AltitudeMeters>257.600006103515625</AltitudeMeters>
            <DistanceMeters>NAN</DistanceMeters>
          </Trackpoint>
          <Trackpoint>
            <Time>2022-07-11T09:49:55.000Z</Time>
            <Position>
              <LatitudeDegrees>43.2529486902058124542236328125</LatitudeDegrees>
              <LongitudeDegrees>-2.5596168078482151031494140625</LongitudeDegrees>
            </Position>
            <AltitudeMeters>257.79998779296875</AltitudeMeters>
            <DistanceMeters>NAN</DistanceMeters>
          </Trackpoint>
          <Trackpoint>
            <Time>2022-07-11T09:49:58.000Z</Time>
            <Position>
              <LatitudeDegrees>43.2528782822191715240478515625</LatitudeDegrees>
              <LongitudeDegrees>-2.5596275366842746734619140625</LongitudeDegrees>
            </Position>
            <AltitudeMeters>258.20001220703125</AltitudeMeters>
            <DistanceMeters>NAN</DistanceMeters>
          </Trackpoint>
          <Trackpoint>
            <Time>2022-07-11T09:49:59.000Z</Time>
            <Position>
              <LatitudeDegrees>43.25286562554538249969482421875</LatitudeDegrees>
              <LongitudeDegrees>-2.55963566713035106658935546875</LongitudeDegrees>
            </Position>
            <AltitudeMeters>258.20001220703125</AltitudeMeters>
            <DistanceMeters>NAN</DistanceMeters>
          </Trackpoint>
          <Trackpoint>
            <Time>2022-07-11T09:50:00.000Z</Time>
            <Position>
              <LatitudeDegrees>43.252854980528354644775390625</LatitudeDegrees>
              <LongitudeDegrees>-2.5596476532518863677978515625</LongitudeDegrees>
            </Position>
            <AltitudeMeters>258.20001220703125</AltitudeMeters>
            <DistanceMeters>NAN</DistanceMeters>
          </Trackpoint>
          <Trackpoint>
            <Time>2022-07-11T09:50:04.000Z</Time>
            <Position>
              <LatitudeDegrees>43.25280795805156230926513671875</LatitudeDegrees>
              <LongitudeDegrees>-2.559690065681934356689453125</LongitudeDegrees>
            </Position>
            <AltitudeMeters>258.600006103515625</AltitudeMeters>
            <DistanceMeters>NAN</DistanceMeters>
          </Trackpoint>
          <Trackpoint>
            <Time>2022-07-11T09:50:06.000Z</Time>
            <Position>
              <LatitudeDegrees>43.25279337354004383087158203125</LatitudeDegrees>
              <LongitudeDegrees>-2.55972124636173248291015625</LongitudeDegrees>
            </Position>
            <AltitudeMeters>258.79998779296875</AltitudeMeters>
            <DistanceMeters>NAN</DistanceMeters>
          </Trackpoint>
          <Trackpoint>
            <Time>2022-07-11T09:50:08.000Z</Time>
            <Position>
              <LatitudeDegrees>43.25278432108461856842041015625</LatitudeDegrees>
              <LongitudeDegrees>-2.55975854583084583282470703125</LongitudeDegrees>
            </Position>
            <AltitudeMeters>259</AltitudeMeters>
            <DistanceMeters>NAN</DistanceMeters>
          </Trackpoint>
          <Trackpoint>
            <Time>2022-07-11T09:50:11.000Z</Time>
            <Position>
              <LatitudeDegrees>43.25278214178979396820068359375</LatitudeDegrees>
              <LongitudeDegrees>-2.55982459522783756256103515625</LongitudeDegrees>
            </Position>
            <AltitudeMeters>259.399993896484375</AltitudeMeters>
            <DistanceMeters>NAN</DistanceMeters>
          </Trackpoint>
          <Trackpoint>
            <Time>2022-07-11T09:50:13.000Z</Time>
            <Position>
              <LatitudeDegrees>43.2527847401797771453857421875</LatitudeDegrees>
              <LongitudeDegrees>-2.55986818112432956695556640625</LongitudeDegrees>
            </Position>
            <AltitudeMeters>259.600006103515625</AltitudeMeters>
            <DistanceMeters>NAN</DistanceMeters>
          </Trackpoint>
          <Trackpoint>
            <Time>2022-07-11T09:50:19.000Z</Time>
            <Position>
              <LatitudeDegrees>43.25278834439814090728759765625</LatitudeDegrees>
              <LongitudeDegrees>-2.5599981844425201416015625</LongitudeDegrees>
            </Position>
            <AltitudeMeters>260</AltitudeMeters>
            <DistanceMeters>NAN</DistanceMeters>
          </Trackpoint>
          <Trackpoint>
            <Time>2022-07-11T09:50:21.000Z</Time>
            <Position>
              <LatitudeDegrees>43.25280494056642055511474609375</LatitudeDegrees>
              <LongitudeDegrees>-2.5600369088351726531982421875</LongitudeDegrees>
            </Position>
            <AltitudeMeters>260.399993896484375</AltitudeMeters>
            <DistanceMeters>NAN</DistanceMeters>
          </Trackpoint>
          <Trackpoint>
            <Time>2022-07-11T09:50:22.000Z</Time>
            <Position>
              <LatitudeDegrees>43.25281265191733837127685546875</LatitudeDegrees>
              <LongitudeDegrees>-2.5600530020892620086669921875</LongitudeDegrees>
            </Position>
            <AltitudeMeters>260.399993896484375</AltitudeMeters>
            <DistanceMeters>NAN</DistanceMeters>
          </Trackpoint>
          <Trackpoint>
            <Time>2022-07-11T09:50:26.000Z</Time>
            <Position>
              <LatitudeDegrees>43.2528507895767688751220703125</LatitudeDegrees>
              <LongitudeDegrees>-2.5601130165159702301025390625</LongitudeDegrees>
            </Position>
            <AltitudeMeters>260.79998779296875</AltitudeMeters>
            <DistanceMeters>NAN</DistanceMeters>
          </Trackpoint>
          <Trackpoint>
            <Time>2022-07-11T09:50:30.000Z</Time>
            <Position>
              <LatitudeDegrees>43.2529010809957981109619140625</LatitudeDegrees>
              <LongitudeDegrees>-2.56017277948558330535888671875</LongitudeDegrees>
            </Position>
            <AltitudeMeters>261.20001220703125</AltitudeMeters>
            <DistanceMeters>NAN</DistanceMeters>
          </Trackpoint>
          <Trackpoint>
            <Time>2022-07-11T09:50:33.000Z</Time>
            <Position>
              <LatitudeDegrees>43.2529396377503871917724609375</LatitudeDegrees>
              <LongitudeDegrees>-2.5602099113166332244873046875</LongitudeDegrees>
            </Position>
            <AltitudeMeters>261.600006103515625</AltitudeMeters>
            <DistanceMeters>NAN</DistanceMeters>
          </Trackpoint>
          <Trackpoint>
            <Time>2022-07-11T09:50:36.000Z</Time>
            <Position>
              <LatitudeDegrees>43.25297626666724681854248046875</LatitudeDegrees>
              <LongitudeDegrees>-2.56024637259542942047119140625</LongitudeDegrees>
            </Position>
            <AltitudeMeters>261.79998779296875</AltitudeMeters>
            <DistanceMeters>NAN</DistanceMeters>
          </Trackpoint>
          <Trackpoint>
            <Time>2022-07-11T09:50:42.000Z</Time>
            <Position>
              <LatitudeDegrees>43.2530432380735874176025390625</LatitudeDegrees>
              <LongitudeDegrees>-2.5603205524384975433349609375</LongitudeDegrees>
            </Position>
            <AltitudeMeters>262.399993896484375</AltitudeMeters>
            <DistanceMeters>NAN</DistanceMeters>
          </Trackpoint>
          <Trackpoint>
            <Time>2022-07-11T09:50:44.000Z</Time>
            <Position>
              <LatitudeDegrees>43.2530529610812664031982421875</LatitudeDegrees>
              <LongitudeDegrees>-2.56032918579876422882080078125</LongitudeDegrees>
            </Position>
            <AltitudeMeters>262.600006103515625</AltitudeMeters>
            <DistanceMeters>NAN</DistanceMeters>
          </Trackpoint>
          <Trackpoint>
            <Time>2022-07-11T09:50:51.000Z</Time>
            <Position>
              <LatitudeDegrees>43.2531364448368549346923828125</LatitudeDegrees>
              <LongitudeDegrees>-2.560464553534984588623046875</LongitudeDegrees>
            </Position>
            <AltitudeMeters>263.20001220703125</AltitudeMeters>
            <DistanceMeters>NAN</DistanceMeters>
          </Trackpoint>
          <Trackpoint>
            <Time>2022-07-11T09:50:58.000Z</Time>
            <Position>
              <LatitudeDegrees>43.2531887479126453399658203125</LatitudeDegrees>
              <LongitudeDegrees>-2.5605813972651958465576171875</LongitudeDegrees>
            </Position>
            <AltitudeMeters>263.600006103515625</AltitudeMeters>
            <DistanceMeters>NAN</DistanceMeters>
          </Trackpoint>
          <Trackpoint>
            <Time>2022-07-11T09:50:59.000Z</Time>
            <Position>
              <LatitudeDegrees>43.25319620780646800994873046875</LatitudeDegrees>
              <LongitudeDegrees>-2.56059891544282436370849609375</LongitudeDegrees>
            </Position>
            <AltitudeMeters>263.600006103515625</AltitudeMeters>
            <DistanceMeters>NAN</DistanceMeters>
          </Trackpoint>
          <Trackpoint>
            <Time>2022-07-11T09:51:04.000Z</Time>
            <Position>
              <LatitudeDegrees>43.25323308818042278289794921875</LatitudeDegrees>
              <LongitudeDegrees>-2.560686506330966949462890625</LongitudeDegrees>
            </Position>
            <AltitudeMeters>264.20001220703125</AltitudeMeters>
            <DistanceMeters>NAN</DistanceMeters>
          </Trackpoint>
          <Trackpoint>
            <Time>2022-07-11T09:51:07.000Z</Time>
            <Position>
              <LatitudeDegrees>43.253258652985095977783203125</LatitudeDegrees>
              <LongitudeDegrees>-2.5607383064925670623779296875</LongitudeDegrees>
            </Position>
            <AltitudeMeters>264.399993896484375</AltitudeMeters>
            <DistanceMeters>NAN</DistanceMeters>
          </Trackpoint>
          <Trackpoint>
            <Time>2022-07-11T09:51:13.000Z</Time>
            <Position>
              <LatitudeDegrees>43.25328354723751544952392578125</LatitudeDegrees>
              <LongitudeDegrees>-2.560854144394397735595703125</LongitudeDegrees>
            </Position>
            <AltitudeMeters>264.79998779296875</AltitudeMeters>
            <DistanceMeters>NAN</DistanceMeters>
          </Trackpoint>
          <Trackpoint>
            <Time>2022-07-11T09:51:15.000Z</Time>
            <Position>
              <LatitudeDegrees>43.2532849721610546112060546875</LatitudeDegrees>
              <LongitudeDegrees>-2.56089429371058940887451171875</LongitudeDegrees>
            </Position>
            <AltitudeMeters>265</AltitudeMeters>
            <DistanceMeters>NAN</DistanceMeters>
          </Trackpoint>
          <Trackpoint>
            <Time>2022-07-11T09:51:26.000Z</Time>
            <Position>
              <LatitudeDegrees>43.253259323537349700927734375</LatitudeDegrees>
              <LongitudeDegrees>-2.56110258400440216064453125</LongitudeDegrees>
            </Position>
            <AltitudeMeters>265.79998779296875</AltitudeMeters>
            <DistanceMeters>NAN</DistanceMeters>
          </Trackpoint>
          <Trackpoint>
            <Time>2022-07-11T09:51:27.000Z</Time>
            <Position>
              <LatitudeDegrees>43.25325320474803447723388671875</LatitudeDegrees>
              <LongitudeDegrees>-2.56112194620072841644287109375</LongitudeDegrees>
            </Position>
            <AltitudeMeters>265.79998779296875</AltitudeMeters>
            <DistanceMeters>NAN</DistanceMeters>
          </Trackpoint>
          <Trackpoint>
            <Time>2022-07-11T09:51:36.000Z</Time>
            <Position>
              <LatitudeDegrees>43.2532162405550479888916015625</LatitudeDegrees>
              <LongitudeDegrees>-2.5612784363329410552978515625</LongitudeDegrees>
            </Position>
            <AltitudeMeters>266.600006103515625</AltitudeMeters>
            <DistanceMeters>NAN</DistanceMeters>
          </Trackpoint>
          <Trackpoint>
            <Time>2022-07-11T09:51:40.000Z</Time>
            <Position>
              <LatitudeDegrees>43.253198303282260894775390625</LatitudeDegrees>
              <LongitudeDegrees>-2.561357729136943817138671875</LongitudeDegrees>
            </Position>
            <AltitudeMeters>267</AltitudeMeters>
            <DistanceMeters>NAN</DistanceMeters>
          </Trackpoint>
          <Trackpoint>
            <Time>2022-07-11T09:51:47.000Z</Time>
            <Position>
              <LatitudeDegrees>43.2531860657036304473876953125</LatitudeDegrees>
              <LongitudeDegrees>-2.56149795837700366973876953125</LongitudeDegrees>
            </Position>
            <AltitudeMeters>267.600006103515625</AltitudeMeters>
            <DistanceMeters>NAN</DistanceMeters>
          </Trackpoint>
          <Trackpoint>
            <Time>2022-07-11T09:51:50.000Z</Time>
            <Position>
              <LatitudeDegrees>43.25318883173167705535888671875</LatitudeDegrees>
              <LongitudeDegrees>-2.561552524566650390625</LongitudeDegrees>
            </Position>
            <AltitudeMeters>267.79998779296875</AltitudeMeters>
            <DistanceMeters>NAN</DistanceMeters>
          </Trackpoint>
          <Trackpoint>
            <Time>2022-07-11T09:51:52.000Z</Time>
            <Position>
              <LatitudeDegrees>43.25318212620913982391357421875</LatitudeDegrees>
              <LongitudeDegrees>-2.56159217096865177154541015625</LongitudeDegrees>
            </Position>
            <AltitudeMeters>267.79998779296875</AltitudeMeters>
            <DistanceMeters>NAN</DistanceMeters>
          </Trackpoint>
          <Trackpoint>
            <Time>2022-07-11T09:51:55.000Z</Time>
            <Position>
              <LatitudeDegrees>43.25316519476473331451416015625</LatitudeDegrees>
              <LongitudeDegrees>-2.561646401882171630859375</LongitudeDegrees>
            </Position>
            <AltitudeMeters>268</AltitudeMeters>
            <DistanceMeters>NAN</DistanceMeters>
          </Trackpoint>
          <Trackpoint>
            <Time>2022-07-11T09:51:56.000Z</Time>
            <Position>
              <LatitudeDegrees>43.25316217727959156036376953125</LatitudeDegrees>
              <LongitudeDegrees>-2.56166744045913219451904296875</LongitudeDegrees>
            </Position>
            <AltitudeMeters>268</AltitudeMeters>
            <DistanceMeters>NAN</DistanceMeters>
          </Trackpoint>
          <Trackpoint>
            <Time>2022-07-11T09:52:02.000Z</Time>
            <Position>
              <LatitudeDegrees>43.253112137317657470703125</LatitudeDegrees>
              <LongitudeDegrees>-2.56177154369652271270751953125</LongitudeDegrees>
            </Position>
            <AltitudeMeters>268.20001220703125</AltitudeMeters>
            <DistanceMeters>NAN</DistanceMeters>
          </Trackpoint>
          <Trackpoint>
            <Time>2022-07-11T09:52:09.000Z</Time>
            <Position>
              <LatitudeDegrees>43.25305405072867870330810546875</LatitudeDegrees>
              <LongitudeDegrees>-2.56188252009451389312744140625</LongitudeDegrees>
            </Position>
            <AltitudeMeters>268.399993896484375</AltitudeMeters>
            <DistanceMeters>NAN</DistanceMeters>
          </Trackpoint>
          <Trackpoint>
            <Time>2022-07-11T09:52:17.000Z</Time>
            <Position>
              <LatitudeDegrees>43.252993784844875335693359375</LatitudeDegrees>
              <LongitudeDegrees>-2.562024928629398345947265625</LongitudeDegrees>
            </Position>
            <AltitudeMeters>269</AltitudeMeters>
            <DistanceMeters>NAN</DistanceMeters>
          </Trackpoint>
          <Trackpoint>
            <Time>2022-07-11T09:52:19.000Z</Time>
            <Position>
              <LatitudeDegrees>43.252985067665576934814453125</LatitudeDegrees>
              <LongitudeDegrees>-2.5620649941265583038330078125</LongitudeDegrees>
            </Position>
            <AltitudeMeters>269</AltitudeMeters>
            <DistanceMeters>NAN</DistanceMeters>
          </Trackpoint>
          <Trackpoint>
            <Time>2022-07-11T09:52:25.000Z</Time>
            <Position>
              <LatitudeDegrees>43.25298406183719635009765625</LatitudeDegrees>
              <LongitudeDegrees>-2.56219281814992427825927734375</LongitudeDegrees>
            </Position>
            <AltitudeMeters>269.399993896484375</AltitudeMeters>
            <DistanceMeters>NAN</DistanceMeters>
          </Trackpoint>
          <Trackpoint>
            <Time>2022-07-11T09:52:33.000Z</Time>
            <Position>
              <LatitudeDegrees>43.25297894887626171112060546875</LatitudeDegrees>
              <LongitudeDegrees>-2.5623509846627712249755859375</LongitudeDegrees>
            </Position>
            <AltitudeMeters>270</AltitudeMeters>
            <DistanceMeters>NAN</DistanceMeters>
          </Trackpoint>
          <Trackpoint>
            <Time>2022-07-11T09:52:34.000Z</Time>
            <Position>
              <LatitudeDegrees>43.25297861360013484954833984375</LatitudeDegrees>
              <LongitudeDegrees>-2.56236917339265346527099609375</LongitudeDegrees>
            </Position>
            <AltitudeMeters>270</AltitudeMeters>
            <DistanceMeters>NAN</DistanceMeters>
          </Trackpoint>
          <Trackpoint>
            <Time>2022-07-11T09:52:40.000Z</Time>
            <Position>
              <LatitudeDegrees>43.25298816896975040435791015625</LatitudeDegrees>
              <LongitudeDegrees>-2.5624787248671054840087890625</LongitudeDegrees>
            </Position>
            <AltitudeMeters>270.399993896484375</AltitudeMeters>
            <DistanceMeters>NAN</DistanceMeters>
          </Trackpoint>
          <Trackpoint>
            <Time>2022-07-11T09:52:41.000Z</Time>
            <Position>
              <LatitudeDegrees>43.25299185700714588165283203125</LatitudeDegrees>
              <LongitudeDegrees>-2.56250009872019290924072265625</LongitudeDegrees>
            </Position>
            <AltitudeMeters>270.399993896484375</AltitudeMeters>
            <DistanceMeters>NAN</DistanceMeters>
          </Trackpoint>
          <Trackpoint>
            <Time>2022-07-11T09:52:49.000Z</Time>
            <Position>
              <LatitudeDegrees>43.2529936172068119049072265625</LatitudeDegrees>
              <LongitudeDegrees>-2.562659271061420440673828125</LongitudeDegrees>
            </Position>
            <AltitudeMeters>271</AltitudeMeters>
            <DistanceMeters>NAN</DistanceMeters>
          </Trackpoint>
          <Trackpoint>
            <Time>2022-07-11T09:52:51.000Z</Time>
            <Position>
              <LatitudeDegrees>43.25299344956874847412109375</LatitudeDegrees>
              <LongitudeDegrees>-2.56269606761634349822998046875</LongitudeDegrees>
            </Position>
            <AltitudeMeters>271.20001220703125</AltitudeMeters>
            <DistanceMeters>NAN</DistanceMeters>
          </Trackpoint>
          <Trackpoint>
            <Time>2022-07-11T09:53:00.000Z</Time>
            <Position>
              <LatitudeDegrees>43.253009207546710968017578125</LatitudeDegrees>
              <LongitudeDegrees>-2.5628642924129962921142578125</LongitudeDegrees>
            </Position>
            <AltitudeMeters>271.79998779296875</AltitudeMeters>
            <DistanceMeters>NAN</DistanceMeters>
          </Trackpoint>
          <Trackpoint>
            <Time>2022-07-11T09:53:05.000Z</Time>
            <Position>
              <LatitudeDegrees>43.25300459749996662139892578125</LatitudeDegrees>
              <LongitudeDegrees>-2.56295607425272464752197265625</LongitudeDegrees>
            </Position>
            <AltitudeMeters>272.20001220703125</AltitudeMeters>
            <DistanceMeters>NAN</DistanceMeters>
          </Trackpoint>
          <Trackpoint>
            <Time>2022-07-11T09:53:07.000Z</Time>
            <Position>
              <LatitudeDegrees>43.25300627388060092926025390625</LatitudeDegrees>
              <LongitudeDegrees>-2.562994547188282012939453125</LongitudeDegrees>
            </Position>
            <AltitudeMeters>272.20001220703125</AltitudeMeters>
            <DistanceMeters>NAN</DistanceMeters>
          </Trackpoint>
          <Trackpoint>
            <Time>2022-07-11T09:53:13.000Z</Time>
            <Position>
              <LatitudeDegrees>43.25302672572433948516845703125</LatitudeDegrees>
              <LongitudeDegrees>-2.56311063654720783233642578125</LongitudeDegrees>
            </Position>
            <AltitudeMeters>272.600006103515625</AltitudeMeters>
            <DistanceMeters>NAN</DistanceMeters>
          </Trackpoint>
          <Trackpoint>
            <Time>2022-07-11T09:53:20.000Z</Time>
            <Position>
              <LatitudeDegrees>43.25302898883819580078125</LatitudeDegrees>
              <LongitudeDegrees>-2.5632488541305065155029296875</LongitudeDegrees>
            </Position>
            <AltitudeMeters>273.20001220703125</AltitudeMeters>
            <DistanceMeters>NAN</DistanceMeters>
          </Trackpoint>
          <Trackpoint>
            <Time>2022-07-11T09:53:22.000Z</Time>
            <Position>
              <LatitudeDegrees>43.25303326360881328582763671875</LatitudeDegrees>
              <LongitudeDegrees>-2.5632884167134761810302734375</LongitudeDegrees>
            </Position>
            <AltitudeMeters>273.399993896484375</AltitudeMeters>
            <DistanceMeters>NAN</DistanceMeters>
          </Trackpoint>
          <Trackpoint>
            <Time>2022-07-11T09:53:31.000Z</Time>
            <Position>
              <LatitudeDegrees>43.25305270962417125701904296875</LatitudeDegrees>
              <LongitudeDegrees>-2.56347709335386753082275390625</LongitudeDegrees>
            </Position>
            <AltitudeMeters>273.79998779296875</AltitudeMeters>
            <DistanceMeters>NAN</DistanceMeters>
          </Trackpoint>
          <Trackpoint>
            <Time>2022-07-11T09:53:37.000Z</Time>
            <Position>
              <LatitudeDegrees>43.25308187864720821380615234375</LatitudeDegrees>
              <LongitudeDegrees>-2.56359477527439594268798828125</LongitudeDegrees>
            </Position>
            <AltitudeMeters>274.20001220703125</AltitudeMeters>
            <DistanceMeters>NAN</DistanceMeters>
          </Trackpoint>
          <Trackpoint>
            <Time>2022-07-11T09:53:40.000Z</Time>
            <Position>
              <LatitudeDegrees>43.25309545733034610748291015625</LatitudeDegrees>
              <LongitudeDegrees>-2.563641630113124847412109375</LongitudeDegrees>
            </Position>
            <AltitudeMeters>274.399993896484375</AltitudeMeters>
            <DistanceMeters>NAN</DistanceMeters>
          </Trackpoint>
          <Trackpoint>
            <Time>2022-07-11T09:53:48.000Z</Time>
            <Position>
              <LatitudeDegrees>43.25317181646823883056640625</LatitudeDegrees>
              <LongitudeDegrees>-2.56377683021128177642822265625</LongitudeDegrees>
            </Position>
            <AltitudeMeters>275</AltitudeMeters>
            <DistanceMeters>NAN</DistanceMeters>
          </Trackpoint>
          <Trackpoint>
            <Time>2022-07-11T09:53:53.000Z</Time>
            <Position>
              <LatitudeDegrees>43.25322680175304412841796875</LatitudeDegrees>
              <LongitudeDegrees>-2.563836760818958282470703125</LongitudeDegrees>
            </Position>
            <AltitudeMeters>275.399993896484375</AltitudeMeters>
            <DistanceMeters>NAN</DistanceMeters>
          </Trackpoint>
          <Trackpoint>
            <Time>2022-07-11T09:53:58.000Z</Time>
            <Position>
              <LatitudeDegrees>43.2532822899520397186279296875</LatitudeDegrees>
              <LongitudeDegrees>-2.5638969428837299346923828125</LongitudeDegrees>
            </Position>
            <AltitudeMeters>275.79998779296875</AltitudeMeters>
            <DistanceMeters>NAN</DistanceMeters>
          </Trackpoint>
          <Trackpoint>
            <Time>2022-07-11T09:54:06.000Z</Time>
            <Position>
              <LatitudeDegrees>43.25338748283684253692626953125</LatitudeDegrees>
              <LongitudeDegrees>-2.56394698284566402435302734375</LongitudeDegrees>
            </Position>
            <AltitudeMeters>276.399993896484375</AltitudeMeters>
            <DistanceMeters>NAN</DistanceMeters>
          </Trackpoint>
          <Trackpoint>
            <Time>2022-07-11T09:54:11.000Z</Time>
            <Position>
              <LatitudeDegrees>43.25343190692365169525146484375</LatitudeDegrees>
              <LongitudeDegrees>-2.5639851205050945281982421875</LongitudeDegrees>
            </Position>
            <AltitudeMeters>277</AltitudeMeters>
            <DistanceMeters>NAN</DistanceMeters>
          </Trackpoint>
          <Trackpoint>
            <Time>2022-07-11T09:54:50.000Z</Time>
            <Position>
              <LatitudeDegrees>43.25346694327890872955322265625</LatitudeDegrees>
              <LongitudeDegrees>-2.56401336751878261566162109375</LongitudeDegrees>
            </Position>
            <AltitudeMeters>277.600006103515625</AltitudeMeters>
            <DistanceMeters>NAN</DistanceMeters>
          </Trackpoint>
          <Trackpoint>
            <Time>2022-07-11T09:54:58.000Z</Time>
            <Position>
              <LatitudeDegrees>43.2535676099359989166259765625</LatitudeDegrees>
              <LongitudeDegrees>-2.56411780603229999542236328125</LongitudeDegrees>
            </Position>
            <AltitudeMeters>278.399993896484375</AltitudeMeters>
            <DistanceMeters>NAN</DistanceMeters>
          </Trackpoint>
          <Trackpoint>
            <Time>2022-07-11T09:55:00.000Z</Time>
            <Position>
              <LatitudeDegrees>43.253589905798435211181640625</LatitudeDegrees>
              <LongitudeDegrees>-2.56414714269340038299560546875</LongitudeDegrees>
            </Position>
            <AltitudeMeters>278.600006103515625</AltitudeMeters>
            <DistanceMeters>NAN</DistanceMeters>
          </Trackpoint>
          <Trackpoint>
            <Time>2022-07-11T09:55:01.000Z</Time>
            <Position>
              <LatitudeDegrees>43.25360189191997051239013671875</LatitudeDegrees>
              <LongitudeDegrees>-2.56416298449039459228515625</LongitudeDegrees>
            </Position>
            <AltitudeMeters>278.600006103515625</AltitudeMeters>
            <DistanceMeters>NAN</DistanceMeters>
          </Trackpoint>
          <Trackpoint>
            <Time>2022-07-11T09:55:04.000Z</Time>
            <Position>
              <LatitudeDegrees>43.253636173903942108154296875</LatitudeDegrees>
              <LongitudeDegrees>-2.564202211797237396240234375</LongitudeDegrees>
            </Position>
            <AltitudeMeters>278.79998779296875</AltitudeMeters>
            <DistanceMeters>NAN</DistanceMeters>
          </Trackpoint>
          <Trackpoint>
            <Time>2022-07-11T09:55:06.000Z</Time>
            <Position>
              <LatitudeDegrees>43.2536507584154605865478515625</LatitudeDegrees>
              <LongitudeDegrees>-2.56422827951610088348388671875</LongitudeDegrees>
            </Position>
            <AltitudeMeters>279</AltitudeMeters>
            <DistanceMeters>NAN</DistanceMeters>
          </Trackpoint>
          <Trackpoint>
            <Time>2022-07-11T09:55:09.000Z</Time>
            <Position>
              <LatitudeDegrees>43.2536775805056095123291015625</LatitudeDegrees>
              <LongitudeDegrees>-2.56428075022995471954345703125</LongitudeDegrees>
            </Position>
            <AltitudeMeters>279.20001220703125</AltitudeMeters>
            <DistanceMeters>NAN</DistanceMeters>
          </Trackpoint>
          <Trackpoint>
            <Time>2022-07-11T09:55:12.000Z</Time>
            <Position>
              <LatitudeDegrees>43.2537030614912509918212890625</LatitudeDegrees>
              <LongitudeDegrees>-2.564325593411922454833984375</LongitudeDegrees>
            </Position>
            <AltitudeMeters>279.600006103515625</AltitudeMeters>
            <DistanceMeters>NAN</DistanceMeters>
          </Trackpoint>
          <Trackpoint>
            <Time>2022-07-11T09:55:16.000Z</Time>
            <Position>
              <LatitudeDegrees>43.2537443004548549652099609375</LatitudeDegrees>
              <LongitudeDegrees>-2.56438468582928180694580078125</LongitudeDegrees>
            </Position>
            <AltitudeMeters>280</AltitudeMeters>
            <DistanceMeters>NAN</DistanceMeters>
          </Trackpoint>
          <Trackpoint>
            <Time>2022-07-11T09:55:21.000Z</Time>
            <Position>
              <LatitudeDegrees>43.2537761516869068145751953125</LatitudeDegrees>
              <LongitudeDegrees>-2.56446934305131435394287109375</LongitudeDegrees>
            </Position>
            <AltitudeMeters>280.399993896484375</AltitudeMeters>
            <DistanceMeters>NAN</DistanceMeters>
          </Trackpoint>
          <Trackpoint>
            <Time>2022-07-11T09:55:24.000Z</Time>
            <Position>
              <LatitudeDegrees>43.25379635207355022430419921875</LatitudeDegrees>
              <LongitudeDegrees>-2.56452281959354877471923828125</LongitudeDegrees>
            </Position>
            <AltitudeMeters>280.79998779296875</AltitudeMeters>
            <DistanceMeters>NAN</DistanceMeters>
          </Trackpoint>
          <Trackpoint>
            <Time>2022-07-11T09:55:29.000Z</Time>
            <Position>
              <LatitudeDegrees>43.25383088551461696624755859375</LatitudeDegrees>
              <LongitudeDegrees>-2.56461351178586483001708984375</LongitudeDegrees>
            </Position>
            <AltitudeMeters>281.20001220703125</AltitudeMeters>
            <DistanceMeters>NAN</DistanceMeters>
          </Trackpoint>
          <Trackpoint>
            <Time>2022-07-11T09:55:33.000Z</Time>
            <Position>
              <LatitudeDegrees>43.25385636650025844573974609375</LatitudeDegrees>
              <LongitudeDegrees>-2.5647027790546417236328125</LongitudeDegrees>
            </Position>
            <AltitudeMeters>281.399993896484375</AltitudeMeters>
            <DistanceMeters>NAN</DistanceMeters>
          </Trackpoint>
          <Trackpoint>
            <Time>2022-07-11T09:55:39.000Z</Time>
            <Position>
              <LatitudeDegrees>43.2539025507867336273193359375</LatitudeDegrees>
              <LongitudeDegrees>-2.5648155994713306427001953125</LongitudeDegrees>
            </Position>
            <AltitudeMeters>281.79998779296875</AltitudeMeters>
            <DistanceMeters>NAN</DistanceMeters>
          </Trackpoint>
          <Trackpoint>
            <Time>2022-07-11T09:55:46.000Z</Time>
            <Position>
              <LatitudeDegrees>43.25394974090158939361572265625</LatitudeDegrees>
              <LongitudeDegrees>-2.56494677625596523284912109375</LongitudeDegrees>
            </Position>
            <AltitudeMeters>282.399993896484375</AltitudeMeters>
            <DistanceMeters>NAN</DistanceMeters>
          </Trackpoint>
          <Trackpoint>
            <Time>2022-07-11T09:55:49.000Z</Time>
            <Position>
              <LatitudeDegrees>43.25397488661110401153564453125</LatitudeDegrees>
              <LongitudeDegrees>-2.5650003366172313690185546875</LongitudeDegrees>
            </Position>
            <AltitudeMeters>282.600006103515625</AltitudeMeters>
            <DistanceMeters>NAN</DistanceMeters>
          </Trackpoint>
          <Trackpoint>
            <Time>2022-07-11T09:55:54.000Z</Time>
            <Position>
              <LatitudeDegrees>43.25401260517537593841552734375</LatitudeDegrees>
              <LongitudeDegrees>-2.56509060971438884735107421875</LongitudeDegrees>
            </Position>
            <AltitudeMeters>282.79998779296875</AltitudeMeters>
            <DistanceMeters>NAN</DistanceMeters>
          </Trackpoint>
          <Trackpoint>
            <Time>2022-07-11T09:55:59.000Z</Time>
            <Position>
              <LatitudeDegrees>43.25405434705317020416259765625</LatitudeDegrees>
              <LongitudeDegrees>-2.56516478955745697021484375</LongitudeDegrees>
            </Position>
            <AltitudeMeters>283.20001220703125</AltitudeMeters>
            <DistanceMeters>NAN</DistanceMeters>
          </Trackpoint>
          <Trackpoint>
            <Time>2022-07-11T09:56:01.000Z</Time>
            <Position>
              <LatitudeDegrees>43.254068009555339813232421875</LatitudeDegrees>
              <LongitudeDegrees>-2.56519907154142856597900390625</LongitudeDegrees>
            </Position>
            <AltitudeMeters>283.399993896484375</AltitudeMeters>
            <DistanceMeters>NAN</DistanceMeters>
          </Trackpoint>
          <Trackpoint>
            <Time>2022-07-11T09:56:05.000Z</Time>
            <Position>
              <LatitudeDegrees>43.25409994460642337799072265625</LatitudeDegrees>
              <LongitudeDegrees>-2.56526160053908824920654296875</LongitudeDegrees>
            </Position>
            <AltitudeMeters>283.79998779296875</AltitudeMeters>
            <DistanceMeters>NAN</DistanceMeters>
          </Trackpoint>
          <Trackpoint>
            <Time>2022-07-11T09:56:10.000Z</Time>
            <Position>
              <LatitudeDegrees>43.254151158034801483154296875</LatitudeDegrees>
              <LongitudeDegrees>-2.5653309188783168792724609375</LongitudeDegrees>
            </Position>
            <AltitudeMeters>284.399993896484375</AltitudeMeters>
            <DistanceMeters>NAN</DistanceMeters>
          </Trackpoint>
          <Trackpoint>
            <Time>2022-07-11T09:56:15.000Z</Time>
            <Position>
              <LatitudeDegrees>43.25420941226184368133544921875</LatitudeDegrees>
              <LongitudeDegrees>-2.56538548506796360015869140625</LongitudeDegrees>
            </Position>
            <AltitudeMeters>284.79998779296875</AltitudeMeters>
            <DistanceMeters>NAN</DistanceMeters>
          </Trackpoint>
          <Trackpoint>
            <Time>2022-07-11T09:56:18.000Z</Time>
            <Position>
              <LatitudeDegrees>43.25425148941576480865478515625</LatitudeDegrees>
              <LongitudeDegrees>-2.56540752947330474853515625</LongitudeDegrees>
            </Position>
            <AltitudeMeters>285.20001220703125</AltitudeMeters>
            <DistanceMeters>NAN</DistanceMeters>
          </Trackpoint>
          <Trackpoint>
            <Time>2022-07-11T09:56:25.000Z</Time>
            <Position>
              <LatitudeDegrees>43.254361711442470550537109375</LatitudeDegrees>
              <LongitudeDegrees>-2.5654261372983455657958984375</LongitudeDegrees>
            </Position>
            <AltitudeMeters>286</AltitudeMeters>
            <DistanceMeters>NAN</DistanceMeters>
          </Trackpoint>
          <Trackpoint>
            <Time>2022-07-11T09:56:27.000Z</Time>
            <Position>
              <LatitudeDegrees>43.2543902099132537841796875</LatitudeDegrees>
              <LongitudeDegrees>-2.56542454473674297332763671875</LongitudeDegrees>
            </Position>
            <AltitudeMeters>286.20001220703125</AltitudeMeters>
            <DistanceMeters>NAN</DistanceMeters>
          </Trackpoint>
          <Trackpoint>
            <Time>2022-07-11T09:56:35.000Z</Time>
            <Position>
              <LatitudeDegrees>43.25450076721608638763427734375</LatitudeDegrees>
              <LongitudeDegrees>-2.56542186252772808074951171875</LongitudeDegrees>
            </Position>
            <AltitudeMeters>287</AltitudeMeters>
            <DistanceMeters>NAN</DistanceMeters>
          </Trackpoint>
          <Trackpoint>
            <Time>2022-07-11T09:56:43.000Z</Time>
            <Position>
              <LatitudeDegrees>43.25461861677467823028564453125</LatitudeDegrees>
              <LongitudeDegrees>-2.5654633529484272003173828125</LongitudeDegrees>
            </Position>
            <AltitudeMeters>287.600006103515625</AltitudeMeters>
            <DistanceMeters>NAN</DistanceMeters>
          </Trackpoint>
          <Trackpoint>
            <Time>2022-07-11T09:56:47.000Z</Time>
            <Position>
              <LatitudeDegrees>43.25467343442142009735107421875</LatitudeDegrees>
              <LongitudeDegrees>-2.565493695437908172607421875</LongitudeDegrees>
            </Position>
            <AltitudeMeters>288</AltitudeMeters>
            <DistanceMeters>NAN</DistanceMeters>
          </Trackpoint>
          <Trackpoint>
            <Time>2022-07-11T09:56:52.000Z</Time>
            <Position>
              <LatitudeDegrees>43.25473160482943058013916015625</LatitudeDegrees>
              <LongitudeDegrees>-2.56553635932505130767822265625</LongitudeDegrees>
            </Position>
            <AltitudeMeters>288.399993896484375</AltitudeMeters>
            <DistanceMeters>NAN</DistanceMeters>
          </Trackpoint>
          <Trackpoint>
            <Time>2022-07-11T09:56:58.000Z</Time>
            <Position>
              <LatitudeDegrees>43.25479346327483654022216796875</LatitudeDegrees>
              <LongitudeDegrees>-2.5656222738325595855712890625</LongitudeDegrees>
            </Position>
            <AltitudeMeters>289</AltitudeMeters>
            <DistanceMeters>NAN</DistanceMeters>
          </Trackpoint>
          <Trackpoint>
            <Time>2022-07-11T09:57:00.000Z</Time>
            <Position>
              <LatitudeDegrees>43.25481022708117961883544921875</LatitudeDegrees>
              <LongitudeDegrees>-2.56564892828464508056640625</LongitudeDegrees>
            </Position>
            <AltitudeMeters>289.20001220703125</AltitudeMeters>
            <DistanceMeters>NAN</DistanceMeters>
          </Trackpoint>
          <Trackpoint>
            <Time>2022-07-11T09:57:03.000Z</Time>
            <Position>
              <LatitudeDegrees>43.25484006665647029876708984375</LatitudeDegrees>
              <LongitudeDegrees>-2.56569377146661281585693359375</LongitudeDegrees>
            </Position>
            <AltitudeMeters>289.399993896484375</AltitudeMeters>
            <DistanceMeters>NAN</DistanceMeters>
          </Trackpoint>
          <Trackpoint>
            <Time>2022-07-11T09:57:10.000Z</Time>
            <Position>
              <LatitudeDegrees>43.25491148047149181365966796875</LatitudeDegrees>
              <LongitudeDegrees>-2.5657858885824680328369140625</LongitudeDegrees>
            </Position>
            <AltitudeMeters>290</AltitudeMeters>
            <DistanceMeters>NAN</DistanceMeters>
          </Trackpoint>
          <Trackpoint>
            <Time>2022-07-11T09:57:11.000Z</Time>
            <Position>
              <LatitudeDegrees>43.2549217902123928070068359375</LatitudeDegrees>
              <LongitudeDegrees>-2.5657952763140201568603515625</LongitudeDegrees>
            </Position>
            <AltitudeMeters>290.20001220703125</AltitudeMeters>
            <DistanceMeters>NAN</DistanceMeters>
          </Trackpoint>
          <Trackpoint>
            <Time>2022-07-11T09:57:20.000Z</Time>
            <Position>
              <LatitudeDegrees>43.25501005165278911590576171875</LatitudeDegrees>
              <LongitudeDegrees>-2.5658992119133472442626953125</LongitudeDegrees>
            </Position>
            <AltitudeMeters>291</AltitudeMeters>
            <DistanceMeters>NAN</DistanceMeters>
          </Trackpoint>
          <Trackpoint>
            <Time>2022-07-11T09:57:21.000Z</Time>
            <Position>
              <LatitudeDegrees>43.2550243847072124481201171875</LatitudeDegrees>
              <LongitudeDegrees>-2.565908096730709075927734375</LongitudeDegrees>
            </Position>
            <AltitudeMeters>291.20001220703125</AltitudeMeters>
            <DistanceMeters>NAN</DistanceMeters>
          </Trackpoint>
          <Trackpoint>
            <Time>2022-07-11T09:57:30.000Z</Time>
            <Position>
              <LatitudeDegrees>43.25513108633458614349365234375</LatitudeDegrees>
              <LongitudeDegrees>-2.56601429544389247894287109375</LongitudeDegrees>
            </Position>
            <AltitudeMeters>292</AltitudeMeters>
            <DistanceMeters>NAN</DistanceMeters>
          </Trackpoint>
          <Trackpoint>
            <Time>2022-07-11T09:57:33.000Z</Time>
            <Position>
              <LatitudeDegrees>43.25516746379435062408447265625</LatitudeDegrees>
              <LongitudeDegrees>-2.56605134345591068267822265625</LongitudeDegrees>
            </Position>
            <AltitudeMeters>292.20001220703125</AltitudeMeters>
            <DistanceMeters>NAN</DistanceMeters>
          </Trackpoint>
          <Trackpoint>
            <Time>2022-07-11T09:57:36.000Z</Time>
            <Position>
              <LatitudeDegrees>43.25520467944443225860595703125</LatitudeDegrees>
              <LongitudeDegrees>-2.56608302704989910125732421875</LongitudeDegrees>
            </Position>
            <AltitudeMeters>292.399993896484375</AltitudeMeters>
            <DistanceMeters>NAN</DistanceMeters>
          </Trackpoint>
          <Trackpoint>
            <Time>2022-07-11T09:57:38.000Z</Time>
            <Position>
              <LatitudeDegrees>43.25522311963140964508056640625</LatitudeDegrees>
              <LongitudeDegrees>-2.5660970248281955718994140625</LongitudeDegrees>
            </Position>
            <AltitudeMeters>292.600006103515625</AltitudeMeters>
            <DistanceMeters>NAN</DistanceMeters>
          </Trackpoint>
          <Trackpoint>
            <Time>2022-07-11T09:57:40.000Z</Time>
            <Position>
              <LatitudeDegrees>43.25524985790252685546875</LatitudeDegrees>
              <LongitudeDegrees>-2.5661127828061580657958984375</LongitudeDegrees>
            </Position>
            <AltitudeMeters>292.79998779296875</AltitudeMeters>
            <DistanceMeters>NAN</DistanceMeters>
          </Trackpoint>
          <Trackpoint>
            <Time>2022-07-11T09:57:45.000Z</Time>
            <Position>
              <LatitudeDegrees>43.25530844740569591522216796875</LatitudeDegrees>
              <LongitudeDegrees>-2.56615712307393550872802734375</LongitudeDegrees>
            </Position>
            <AltitudeMeters>293.20001220703125</AltitudeMeters>
            <DistanceMeters>NAN</DistanceMeters>
          </Trackpoint>
          <Trackpoint>
            <Time>2022-07-11T09:57:47.000Z</Time>
            <Position>
              <LatitudeDegrees>43.2553331740200519561767578125</LatitudeDegrees>
              <LongitudeDegrees>-2.56616919301450252532958984375</LongitudeDegrees>
            </Position>
            <AltitudeMeters>293.399993896484375</AltitudeMeters>
            <DistanceMeters>NAN</DistanceMeters>
          </Trackpoint>
          <Trackpoint>
            <Time>2022-07-11T09:57:49.000Z</Time>
            <Position>
              <LatitudeDegrees>43.2553558051586151123046875</LatitudeDegrees>
              <LongitudeDegrees>-2.56617422215640544891357421875</LongitudeDegrees>
            </Position>
            <AltitudeMeters>293.600006103515625</AltitudeMeters>
            <DistanceMeters>NAN</DistanceMeters>
          </Trackpoint>
          <Trackpoint>
            <Time>2022-07-11T09:57:56.000Z</Time>
            <Position>
              <LatitudeDegrees>43.25544859282672405242919921875</LatitudeDegrees>
              <LongitudeDegrees>-2.56620489992201328277587890625</LongitudeDegrees>
            </Position>
            <AltitudeMeters>294.20001220703125</AltitudeMeters>
            <DistanceMeters>NAN</DistanceMeters>
          </Trackpoint>
          <Trackpoint>
            <Time>2022-07-11T09:57:57.000Z</Time>
            <Position>
              <LatitudeDegrees>43.25545982457697391510009765625</LatitudeDegrees>
              <LongitudeDegrees>-2.56620825268328189849853515625</LongitudeDegrees>
            </Position>
            <AltitudeMeters>294.20001220703125</AltitudeMeters>
            <DistanceMeters>NAN</DistanceMeters>
          </Trackpoint>
          <Trackpoint>
            <Time>2022-07-11T09:58:02.000Z</Time>
            <Position>
              <LatitudeDegrees>43.255526460707187652587890625</LatitudeDegrees>
              <LongitudeDegrees>-2.56622828543186187744140625</LongitudeDegrees>
            </Position>
            <AltitudeMeters>294.79998779296875</AltitudeMeters>
            <DistanceMeters>NAN</DistanceMeters>
          </Trackpoint>
          <Trackpoint>
            <Time>2022-07-11T09:58:07.000Z</Time>
            <Position>
              <LatitudeDegrees>43.255590498447418212890625</LatitudeDegrees>
              <LongitudeDegrees>-2.56625770591199398040771484375</LongitudeDegrees>
            </Position>
            <AltitudeMeters>295.20001220703125</AltitudeMeters>
            <DistanceMeters>NAN</DistanceMeters>
          </Trackpoint>
          <Trackpoint>
            <Time>2022-07-11T09:58:08.000Z</Time>
            <Position>
              <LatitudeDegrees>43.25560248456895351409912109375</LatitudeDegrees>
              <LongitudeDegrees>-2.56626374088227748870849609375</LongitudeDegrees>
            </Position>
            <AltitudeMeters>295.399993896484375</AltitudeMeters>
            <DistanceMeters>NAN</DistanceMeters>
          </Trackpoint>
          <Trackpoint>
            <Time>2022-07-11T09:58:13.000Z</Time>
            <Position>
              <LatitudeDegrees>43.255655877292156219482421875</LatitudeDegrees>
              <LongitudeDegrees>-2.5662931613624095916748046875</LongitudeDegrees>
            </Position>
            <AltitudeMeters>296</AltitudeMeters>
            <DistanceMeters>NAN</DistanceMeters>
          </Trackpoint>
          <Trackpoint>
            <Time>2022-07-11T09:58:15.000Z</Time>
            <Position>
              <LatitudeDegrees>43.2556751556694507598876953125</LatitudeDegrees>
              <LongitudeDegrees>-2.566310428082942962646484375</LongitudeDegrees>
            </Position>
            <AltitudeMeters>296.399993896484375</AltitudeMeters>
            <DistanceMeters>NAN</DistanceMeters>
          </Trackpoint>
          <Trackpoint>
            <Time>2022-07-11T09:58:18.000Z</Time>
            <Position>
              <LatitudeDegrees>43.25570373795926570892333984375</LatitudeDegrees>
              <LongitudeDegrees>-2.56633968092501163482666015625</LongitudeDegrees>
            </Position>
            <AltitudeMeters>296.600006103515625</AltitudeMeters>
            <DistanceMeters>NAN</DistanceMeters>
          </Trackpoint>
          <Trackpoint>
            <Time>2022-07-11T09:58:22.000Z</Time>
            <Position>
              <LatitudeDegrees>43.2557425461709499359130859375</LatitudeDegrees>
              <LongitudeDegrees>-2.56639852188527584075927734375</LongitudeDegrees>
            </Position>
            <AltitudeMeters>297</AltitudeMeters>
            <DistanceMeters>NAN</DistanceMeters>
          </Trackpoint>
          <Trackpoint>
            <Time>2022-07-11T09:58:26.000Z</Time>
            <Position>
              <LatitudeDegrees>43.255780600011348724365234375</LatitudeDegrees>
              <LongitudeDegrees>-2.566459290683269500732421875</LongitudeDegrees>
            </Position>
            <AltitudeMeters>297.399993896484375</AltitudeMeters>
            <DistanceMeters>NAN</DistanceMeters>
          </Trackpoint>
          <Trackpoint>
            <Time>2022-07-11T09:58:28.000Z</Time>
            <Position>
              <LatitudeDegrees>43.2558039017021656036376953125</LatitudeDegrees>
              <LongitudeDegrees>-2.5664872862398624420166015625</LongitudeDegrees>
            </Position>
            <AltitudeMeters>297.79998779296875</AltitudeMeters>
            <DistanceMeters>NAN</DistanceMeters>
          </Trackpoint>
          <Trackpoint>
            <Time>2022-07-11T09:58:29.000Z</Time>
            <Position>
              <LatitudeDegrees>43.25580901466310024261474609375</LatitudeDegrees>
              <LongitudeDegrees>-2.56650564260780811309814453125</LongitudeDegrees>
            </Position>
            <AltitudeMeters>297.79998779296875</AltitudeMeters>
            <DistanceMeters>NAN</DistanceMeters>
          </Trackpoint>
          <Trackpoint>
            <Time>2022-07-11T09:58:35.000Z</Time>
            <Position>
              <LatitudeDegrees>43.25582846067845821380615234375</LatitudeDegrees>
              <LongitudeDegrees>-2.5666143558919429779052734375</LongitudeDegrees>
            </Position>
            <AltitudeMeters>298.399993896484375</AltitudeMeters>
            <DistanceMeters>NAN</DistanceMeters>
          </Trackpoint>
          <Trackpoint>
            <Time>2022-07-11T09:58:36.000Z</Time>
            <Position>
              <LatitudeDegrees>43.25583231635391712188720703125</LatitudeDegrees>
              <LongitudeDegrees>-2.5666348077356815338134765625</LongitudeDegrees>
            </Position>
            <AltitudeMeters>298.600006103515625</AltitudeMeters>
            <DistanceMeters>NAN</DistanceMeters>
          </Trackpoint>
          <Trackpoint>
            <Time>2022-07-11T09:58:44.000Z</Time>
            <Position>
              <LatitudeDegrees>43.25587053783237934112548828125</LatitudeDegrees>
              <LongitudeDegrees>-2.56679163314402103424072265625</LongitudeDegrees>
            </Position>
            <AltitudeMeters>299.20001220703125</AltitudeMeters>
            <DistanceMeters>NAN</DistanceMeters>
          </Trackpoint>
          <Trackpoint>
            <Time>2022-07-11T09:58:47.000Z</Time>
            <Position>
              <LatitudeDegrees>43.25588244013488292694091796875</LatitudeDegrees>
              <LongitudeDegrees>-2.56684242747724056243896484375</LongitudeDegrees>
            </Position>
            <AltitudeMeters>299.600006103515625</AltitudeMeters>
            <DistanceMeters>NAN</DistanceMeters>
          </Trackpoint>
          <Trackpoint>
            <Time>2022-07-11T09:58:54.000Z</Time>
            <Position>
              <LatitudeDegrees>43.25588378123939037322998046875</LatitudeDegrees>
              <LongitudeDegrees>-2.56697435863316059112548828125</LongitudeDegrees>
            </Position>
            <AltitudeMeters>300.20001220703125</AltitudeMeters>
            <DistanceMeters>NAN</DistanceMeters>
          </Trackpoint>
          <Trackpoint>
            <Time>2022-07-11T09:58:59.000Z</Time>
            <Position>
              <LatitudeDegrees>43.2558749802410602569580078125</LatitudeDegrees>
              <LongitudeDegrees>-2.56706781685352325439453125</LongitudeDegrees>
            </Position>
            <AltitudeMeters>300.600006103515625</AltitudeMeters>
            <DistanceMeters>NAN</DistanceMeters>
          </Trackpoint>
          <Trackpoint>
            <Time>2022-07-11T09:59:03.000Z</Time>
            <Position>
              <LatitudeDegrees>43.25585804879665374755859375</LatitudeDegrees>
              <LongitudeDegrees>-2.5671350397169589996337890625</LongitudeDegrees>
            </Position>
            <AltitudeMeters>300.79998779296875</AltitudeMeters>
            <DistanceMeters>NAN</DistanceMeters>
          </Trackpoint>
          <Trackpoint>
            <Time>2022-07-11T09:59:09.000Z</Time>
            <Position>
              <LatitudeDegrees>43.25583248399198055267333984375</LatitudeDegrees>
              <LongitudeDegrees>-2.56724844686686992645263671875</LongitudeDegrees>
            </Position>
            <AltitudeMeters>301.600006103515625</AltitudeMeters>
            <DistanceMeters>NAN</DistanceMeters>
          </Trackpoint>
          <Trackpoint>
            <Time>2022-07-11T09:59:13.000Z</Time>
            <Position>
              <LatitudeDegrees>43.255812786519527435302734375</LatitudeDegrees>
              <LongitudeDegrees>-2.567316927015781402587890625</LongitudeDegrees>
            </Position>
            <AltitudeMeters>301.79998779296875</AltitudeMeters>
            <DistanceMeters>NAN</DistanceMeters>
          </Trackpoint>
          <Trackpoint>
            <Time>2022-07-11T09:59:20.000Z</Time>
            <Position>
              <LatitudeDegrees>43.25579023919999599456787109375</LatitudeDegrees>
              <LongitudeDegrees>-2.5674274004995822906494140625</LongitudeDegrees>
            </Position>
            <AltitudeMeters>302.600006103515625</AltitudeMeters>
            <DistanceMeters>NAN</DistanceMeters>
          </Trackpoint>
          <Trackpoint>
            <Time>2022-07-11T09:59:21.000Z</Time>
            <Position>
              <LatitudeDegrees>43.25578772462904453277587890625</LatitudeDegrees>
              <LongitudeDegrees>-2.5674351118505001068115234375</LongitudeDegrees>
            </Position>
            <AltitudeMeters>302.79998779296875</AltitudeMeters>
            <DistanceMeters>NAN</DistanceMeters>
          </Trackpoint>
          <Trackpoint>
            <Time>2022-07-11T09:59:22.000Z</Time>
            <Position>
              <LatitudeDegrees>43.25577850453555583953857421875</LatitudeDegrees>
              <LongitudeDegrees>-2.567442990839481353759765625</LongitudeDegrees>
            </Position>
            <AltitudeMeters>302.79998779296875</AltitudeMeters>
            <DistanceMeters>NAN</DistanceMeters>
          </Trackpoint>
          <Trackpoint>
            <Time>2022-07-11T09:59:26.000Z</Time>
            <Position>
              <LatitudeDegrees>43.25571362860500812530517578125</LatitudeDegrees>
              <LongitudeDegrees>-2.56746352650225162506103515625</LongitudeDegrees>
            </Position>
            <AltitudeMeters>303.20001220703125</AltitudeMeters>
            <DistanceMeters>NAN</DistanceMeters>
          </Trackpoint>
          <Trackpoint>
            <Time>2022-07-11T09:59:33.000Z</Time>
            <Position>
              <LatitudeDegrees>43.25558622367680072784423828125</LatitudeDegrees>
              <LongitudeDegrees>-2.56744408048689365386962890625</LongitudeDegrees>
            </Position>
            <AltitudeMeters>303.600006103515625</AltitudeMeters>
            <DistanceMeters>NAN</DistanceMeters>
          </Trackpoint>
          <Trackpoint>
            <Time>2022-07-11T09:59:36.000Z</Time>
            <Position>
              <LatitudeDegrees>43.25553274713456630706787109375</LatitudeDegrees>
              <LongitudeDegrees>-2.56742983125150203704833984375</LongitudeDegrees>
            </Position>
            <AltitudeMeters>303.79998779296875</AltitudeMeters>
            <DistanceMeters>NAN</DistanceMeters>
          </Trackpoint>
          <Trackpoint>
            <Time>2022-07-11T09:59:41.000Z</Time>
            <Position>
              <LatitudeDegrees>43.25545814819633960723876953125</LatitudeDegrees>
              <LongitudeDegrees>-2.56740049459040164947509765625</LongitudeDegrees>
            </Position>
            <AltitudeMeters>304.20001220703125</AltitudeMeters>
            <DistanceMeters>NAN</DistanceMeters>
          </Trackpoint>
          <Trackpoint>
            <Time>2022-07-11T09:59:48.000Z</Time>
            <Position>
              <LatitudeDegrees>43.2553596608340740203857421875</LatitudeDegrees>
              <LongitudeDegrees>-2.5673834793269634246826171875</LongitudeDegrees>
            </Position>
            <AltitudeMeters>304.79998779296875</AltitudeMeters>
            <DistanceMeters>NAN</DistanceMeters>
          </Trackpoint>
          <Trackpoint>
            <Time>2022-07-11T09:59:50.000Z</Time>
            <Position>
              <LatitudeDegrees>43.2553314976394176483154296875</LatitudeDegrees>
              <LongitudeDegrees>-2.56738356314599514007568359375</LongitudeDegrees>
            </Position>
            <AltitudeMeters>304.79998779296875</AltitudeMeters>
            <DistanceMeters>NAN</DistanceMeters>
          </Trackpoint>
          <Trackpoint>
            <Time>2022-07-11T09:59:56.000Z</Time>
            <Position>
              <LatitudeDegrees>43.25522814877331256866455078125</LatitudeDegrees>
              <LongitudeDegrees>-2.56737283430993556976318359375</LongitudeDegrees>
            </Position>
            <AltitudeMeters>305.399993896484375</AltitudeMeters>
            <DistanceMeters>NAN</DistanceMeters>
          </Trackpoint>
          <Trackpoint>
            <Time>2022-07-11T10:00:04.000Z</Time>
            <Position>
              <LatitudeDegrees>43.25511113740503787994384765625</LatitudeDegrees>
              <LongitudeDegrees>-2.56739311851561069488525390625</LongitudeDegrees>
            </Position>
            <AltitudeMeters>305.79998779296875</AltitudeMeters>
            <DistanceMeters>NAN</DistanceMeters>
          </Trackpoint>
          <Trackpoint>
            <Time>2022-07-11T10:00:05.000Z</Time>
            <Position>
              <LatitudeDegrees>43.2550931163132190704345703125</LatitudeDegrees>
              <LongitudeDegrees>-2.567396722733974456787109375</LongitudeDegrees>
            </Position>
            <AltitudeMeters>306</AltitudeMeters>
            <DistanceMeters>NAN</DistanceMeters>
          </Trackpoint>
          <Trackpoint>
            <Time>2022-07-11T10:00:11.000Z</Time>
            <Position>
              <LatitudeDegrees>43.2550129853188991546630859375</LatitudeDegrees>
              <LongitudeDegrees>-2.56741046905517578125</LongitudeDegrees>
            </Position>
            <AltitudeMeters>306.399993896484375</AltitudeMeters>
            <DistanceMeters>NAN</DistanceMeters>
          </Trackpoint>
          <Trackpoint>
            <Time>2022-07-11T10:00:19.000Z</Time>
            <Position>
              <LatitudeDegrees>43.2549070380628108978271484375</LatitudeDegrees>
              <LongitudeDegrees>-2.56739680655300617218017578125</LongitudeDegrees>
            </Position>
            <AltitudeMeters>307</AltitudeMeters>
            <DistanceMeters>NAN</DistanceMeters>
          </Trackpoint>
          <Trackpoint>
            <Time>2022-07-11T10:00:20.000Z</Time>
            <Position>
              <LatitudeDegrees>43.254890777170658111572265625</LatitudeDegrees>
              <LongitudeDegrees>-2.56739504635334014892578125</LongitudeDegrees>
            </Position>
            <AltitudeMeters>307</AltitudeMeters>
            <DistanceMeters>NAN</DistanceMeters>
          </Trackpoint>
          <Trackpoint>
            <Time>2022-07-11T10:00:29.000Z</Time>
            <Position>
              <LatitudeDegrees>43.25475708581507205963134765625</LatitudeDegrees>
              <LongitudeDegrees>-2.56736914627254009246826171875</LongitudeDegrees>
            </Position>
            <AltitudeMeters>307.600006103515625</AltitudeMeters>
            <DistanceMeters>NAN</DistanceMeters>
          </Trackpoint>
          <Trackpoint>
            <Time>2022-07-11T10:00:34.000Z</Time>
            <Position>
              <LatitudeDegrees>43.25468684546649456024169921875</LatitudeDegrees>
              <LongitudeDegrees>-2.5673650391399860382080078125</LongitudeDegrees>
            </Position>
            <AltitudeMeters>308</AltitudeMeters>
            <DistanceMeters>NAN</DistanceMeters>
          </Trackpoint>
          <Trackpoint>
            <Time>2022-07-11T10:00:38.000Z</Time>
            <Position>
              <LatitudeDegrees>43.25463973917067050933837890625</LatitudeDegrees>
              <LongitudeDegrees>-2.56741491146385669708251953125</LongitudeDegrees>
            </Position>
            <AltitudeMeters>308.20001220703125</AltitudeMeters>
            <DistanceMeters>NAN</DistanceMeters>
          </Trackpoint>
          <Trackpoint>
            <Time>2022-07-11T10:00:49.000Z</Time>
            <Position>
              <LatitudeDegrees>43.25456195510923862457275390625</LatitudeDegrees>
              <LongitudeDegrees>-2.567603252828121185302734375</LongitudeDegrees>
            </Position>
            <AltitudeMeters>308.79998779296875</AltitudeMeters>
            <DistanceMeters>NAN</DistanceMeters>
          </Trackpoint>
          <Trackpoint>
            <Time>2022-07-11T10:00:53.000Z</Time>
            <Position>
              <LatitudeDegrees>43.2545368932187557220458984375</LatitudeDegrees>
              <LongitudeDegrees>-2.5676800310611724853515625</LongitudeDegrees>
            </Position>
            <AltitudeMeters>309</AltitudeMeters>
            <DistanceMeters>NAN</DistanceMeters>
          </Trackpoint>
          <Trackpoint>
            <Time>2022-07-11T10:00:55.000Z</Time>
            <Position>
              <LatitudeDegrees>43.2545231468975543975830078125</LatitudeDegrees>
              <LongitudeDegrees>-2.56771934218704700469970703125</LongitudeDegrees>
            </Position>
            <AltitudeMeters>309.20001220703125</AltitudeMeters>
            <DistanceMeters>NAN</DistanceMeters>
          </Trackpoint>
          <Trackpoint>
            <Time>2022-07-11T10:00:59.000Z</Time>
            <Position>
              <LatitudeDegrees>43.254501186311244964599609375</LatitudeDegrees>
              <LongitudeDegrees>-2.56779964081943035125732421875</LongitudeDegrees>
            </Position>
            <AltitudeMeters>309.600006103515625</AltitudeMeters>
            <DistanceMeters>NAN</DistanceMeters>
          </Trackpoint>
          <Trackpoint>
            <Time>2022-07-11T10:01:02.000Z</Time>
            <Position>
              <LatitudeDegrees>43.25448811054229736328125</LatitudeDegrees>
              <LongitudeDegrees>-2.567862085998058319091796875</LongitudeDegrees>
            </Position>
            <AltitudeMeters>309.600006103515625</AltitudeMeters>
            <DistanceMeters>NAN</DistanceMeters>
          </Trackpoint>
          <Trackpoint>
            <Time>2022-07-11T10:01:04.000Z</Time>
            <Position>
              <LatitudeDegrees>43.2544735260307788848876953125</LatitudeDegrees>
              <LongitudeDegrees>-2.5678954459726810455322265625</LongitudeDegrees>
            </Position>
            <AltitudeMeters>309.79998779296875</AltitudeMeters>
            <DistanceMeters>NAN</DistanceMeters>
          </Trackpoint>
          <Trackpoint>
            <Time>2022-07-11T10:01:07.000Z</Time>
            <Position>
              <LatitudeDegrees>43.25445986352860927581787109375</LatitudeDegrees>
              <LongitudeDegrees>-2.567949928343296051025390625</LongitudeDegrees>
            </Position>
            <AltitudeMeters>310.20001220703125</AltitudeMeters>
            <DistanceMeters>NAN</DistanceMeters>
          </Trackpoint>
          <Trackpoint>
            <Time>2022-07-11T10:01:11.000Z</Time>
            <Position>
              <LatitudeDegrees>43.25442868284881114959716796875</LatitudeDegrees>
              <LongitudeDegrees>-2.56802695803344249725341796875</LongitudeDegrees>
            </Position>
            <AltitudeMeters>310.399993896484375</AltitudeMeters>
            <DistanceMeters>NAN</DistanceMeters>
          </Trackpoint>
          <Trackpoint>
            <Time>2022-07-11T10:01:18.000Z</Time>
            <Position>
              <LatitudeDegrees>43.25437034480273723602294921875</LatitudeDegrees>
              <LongitudeDegrees>-2.56813676096498966217041015625</LongitudeDegrees>
            </Position>
            <AltitudeMeters>311.20001220703125</AltitudeMeters>
            <DistanceMeters>NAN</DistanceMeters>
          </Trackpoint>
          <Trackpoint>
            <Time>2022-07-11T10:01:19.000Z</Time>
            <Position>
              <LatitudeDegrees>43.25435710139572620391845703125</LatitudeDegrees>
              <LongitudeDegrees>-2.56814681924879550933837890625</LongitudeDegrees>
            </Position>
            <AltitudeMeters>311.20001220703125</AltitudeMeters>
            <DistanceMeters>NAN</DistanceMeters>
          </Trackpoint>
          <Trackpoint>
            <Time>2022-07-11T10:01:20.000Z</Time>
            <Position>
              <LatitudeDegrees>43.25434553436934947967529296875</LatitudeDegrees>
              <LongitudeDegrees>-2.56815285421907901763916015625</LongitudeDegrees>
            </Position>
            <AltitudeMeters>311.399993896484375</AltitudeMeters>
            <DistanceMeters>NAN</DistanceMeters>
          </Trackpoint>
          <Trackpoint>
            <Time>2022-07-11T10:01:22.000Z</Time>
            <Position>
              <LatitudeDegrees>43.25431837700307369232177734375</LatitudeDegrees>
              <LongitudeDegrees>-2.56816484034061431884765625</LongitudeDegrees>
            </Position>
            <AltitudeMeters>311.399993896484375</AltitudeMeters>
            <DistanceMeters>NAN</DistanceMeters>
          </Trackpoint>
          <Trackpoint>
            <Time>2022-07-11T10:01:25.000Z</Time>
            <Position>
              <LatitudeDegrees>43.254268169403076171875</LatitudeDegrees>
              <LongitudeDegrees>-2.56816056556999683380126953125</LongitudeDegrees>
            </Position>
            <AltitudeMeters>311.600006103515625</AltitudeMeters>
            <DistanceMeters>NAN</DistanceMeters>
          </Trackpoint>
          <Trackpoint>
            <Time>2022-07-11T10:01:32.000Z</Time>
            <Position>
              <LatitudeDegrees>43.2541553489863872528076171875</LatitudeDegrees>
              <LongitudeDegrees>-2.56813843734562397003173828125</LongitudeDegrees>
            </Position>
            <AltitudeMeters>312</AltitudeMeters>
            <DistanceMeters>NAN</DistanceMeters>
          </Trackpoint>
          <Trackpoint>
            <Time>2022-07-11T10:01:36.000Z</Time>
            <Position>
              <LatitudeDegrees>43.25409558601677417755126953125</LatitudeDegrees>
              <LongitudeDegrees>-2.56812217645347118377685546875</LongitudeDegrees>
            </Position>
            <AltitudeMeters>312.20001220703125</AltitudeMeters>
            <DistanceMeters>NAN</DistanceMeters>
          </Trackpoint>
          <Trackpoint>
            <Time>2022-07-11T10:01:40.000Z</Time>
            <Position>
              <LatitudeDegrees>43.2540524192154407501220703125</LatitudeDegrees>
              <LongitudeDegrees>-2.5680796802043914794921875</LongitudeDegrees>
            </Position>
            <AltitudeMeters>312.600006103515625</AltitudeMeters>
            <DistanceMeters>NAN</DistanceMeters>
          </Trackpoint>
          <Trackpoint>
            <Time>2022-07-11T10:01:47.000Z</Time>
            <Position>
              <LatitudeDegrees>43.253982178866863250732421875</LatitudeDegrees>
              <LongitudeDegrees>-2.568039111793041229248046875</LongitudeDegrees>
            </Position>
            <AltitudeMeters>313.20001220703125</AltitudeMeters>
            <DistanceMeters>NAN</DistanceMeters>
          </Trackpoint>
          <Trackpoint>
            <Time>2022-07-11T10:01:48.000Z</Time>
            <Position>
              <LatitudeDegrees>43.2539766468107700347900390625</LatitudeDegrees>
              <LongitudeDegrees>-2.568031065165996551513671875</LongitudeDegrees>
            </Position>
            <AltitudeMeters>313.20001220703125</AltitudeMeters>
            <DistanceMeters>NAN</DistanceMeters>
          </Trackpoint>
          <Trackpoint>
            <Time>2022-07-11T10:01:56.000Z</Time>
            <Position>
              <LatitudeDegrees>43.25387313030660152435302734375</LatitudeDegrees>
              <LongitudeDegrees>-2.5679417140781879425048828125</LongitudeDegrees>
            </Position>
            <AltitudeMeters>313.79998779296875</AltitudeMeters>
            <DistanceMeters>NAN</DistanceMeters>
          </Trackpoint>
          <Trackpoint>
            <Time>2022-07-11T10:02:05.000Z</Time>
            <Position>
              <LatitudeDegrees>43.25376399792730808258056640625</LatitudeDegrees>
              <LongitudeDegrees>-2.567864097654819488525390625</LongitudeDegrees>
            </Position>
            <AltitudeMeters>314.399993896484375</AltitudeMeters>
            <DistanceMeters>NAN</DistanceMeters>
          </Trackpoint>
          <Trackpoint>
            <Time>2022-07-11T10:02:10.000Z</Time>
            <Position>
              <LatitudeDegrees>43.25369325466454029083251953125</LatitudeDegrees>
              <LongitudeDegrees>-2.56782109849154949188232421875</LongitudeDegrees>
            </Position>
            <AltitudeMeters>314.600006103515625</AltitudeMeters>
            <DistanceMeters>NAN</DistanceMeters>
          </Trackpoint>
          <Trackpoint>
            <Time>2022-07-11T10:02:12.000Z</Time>
            <Position>
              <LatitudeDegrees>43.2536695338785648345947265625</LatitudeDegrees>
              <LongitudeDegrees>-2.56780198775231838226318359375</LongitudeDegrees>
            </Position>
            <AltitudeMeters>314.600006103515625</AltitudeMeters>
            <DistanceMeters>NAN</DistanceMeters>
          </Trackpoint>
          <Trackpoint>
            <Time>2022-07-11T10:02:20.000Z</Time>
            <Position>
              <LatitudeDegrees>43.25355713255703449249267578125</LatitudeDegrees>
              <LongitudeDegrees>-2.5677524507045745849609375</LongitudeDegrees>
            </Position>
            <AltitudeMeters>315.20001220703125</AltitudeMeters>
            <DistanceMeters>NAN</DistanceMeters>
          </Trackpoint>
          <Trackpoint>
            <Time>2022-07-11T10:02:21.000Z</Time>
            <Position>
              <LatitudeDegrees>43.25354170985519886016845703125</LatitudeDegrees>
              <LongitudeDegrees>-2.56774264387786388397216796875</LongitudeDegrees>
            </Position>
            <AltitudeMeters>315.399993896484375</AltitudeMeters>
            <DistanceMeters>NAN</DistanceMeters>
          </Trackpoint>
          <Trackpoint>
            <Time>2022-07-11T10:02:28.000Z</Time>
            <Position>
              <LatitudeDegrees>43.25344967655837535858154296875</LatitudeDegrees>
              <LongitudeDegrees>-2.56769134663045406341552734375</LongitudeDegrees>
            </Position>
            <AltitudeMeters>316</AltitudeMeters>
            <DistanceMeters>NAN</DistanceMeters>
          </Trackpoint>
          <Trackpoint>
            <Time>2022-07-11T10:02:35.000Z</Time>
            <Position>
              <LatitudeDegrees>43.25336066074669361114501953125</LatitudeDegrees>
              <LongitudeDegrees>-2.5676317512989044189453125</LongitudeDegrees>
            </Position>
            <AltitudeMeters>316.399993896484375</AltitudeMeters>
            <DistanceMeters>NAN</DistanceMeters>
          </Trackpoint>
          <Trackpoint>
            <Time>2022-07-11T10:02:37.000Z</Time>
            <Position>
              <LatitudeDegrees>43.25333945453166961669921875</LatitudeDegrees>
              <LongitudeDegrees>-2.567617334425449371337890625</LongitudeDegrees>
            </Position>
            <AltitudeMeters>316.600006103515625</AltitudeMeters>
            <DistanceMeters>NAN</DistanceMeters>
          </Trackpoint>
          <Trackpoint>
            <Time>2022-07-11T10:02:49.000Z</Time>
            <Position>
              <LatitudeDegrees>43.25322554446756839752197265625</LatitudeDegrees>
              <LongitudeDegrees>-2.5675172545015811920166015625</LongitudeDegrees>
            </Position>
            <AltitudeMeters>317.399993896484375</AltitudeMeters>
            <DistanceMeters>NAN</DistanceMeters>
          </Trackpoint>
          <Trackpoint>
            <Time>2022-07-11T10:02:50.000Z</Time>
            <Position>
              <LatitudeDegrees>43.2532127201557159423828125</LatitudeDegrees>
              <LongitudeDegrees>-2.56750778295099735260009765625</LongitudeDegrees>
            </Position>
            <AltitudeMeters>317.600006103515625</AltitudeMeters>
            <DistanceMeters>NAN</DistanceMeters>
          </Trackpoint>
          <Trackpoint>
            <Time>2022-07-11T10:02:59.000Z</Time>
            <Position>
              <LatitudeDegrees>43.2531136460602283477783203125</LatitudeDegrees>
              <LongitudeDegrees>-2.5674103014171123504638671875</LongitudeDegrees>
            </Position>
            <AltitudeMeters>318</AltitudeMeters>
            <DistanceMeters>NAN</DistanceMeters>
          </Trackpoint>
          <Trackpoint>
            <Time>2022-07-11T10:03:08.000Z</Time>
            <Position>
              <LatitudeDegrees>43.253001831471920013427734375</LatitudeDegrees>
              <LongitudeDegrees>-2.5673353672027587890625</LongitudeDegrees>
            </Position>
            <AltitudeMeters>318.600006103515625</AltitudeMeters>
            <DistanceMeters>NAN</DistanceMeters>
          </Trackpoint>
          <Trackpoint>
            <Time>2022-07-11T10:03:10.000Z</Time>
            <Position>
              <LatitudeDegrees>43.25297844596207141876220703125</LatitudeDegrees>
              <LongitudeDegrees>-2.567314915359020233154296875</LongitudeDegrees>
            </Position>
            <AltitudeMeters>318.600006103515625</AltitudeMeters>
            <DistanceMeters>NAN</DistanceMeters>
          </Trackpoint>
          <Trackpoint>
            <Time>2022-07-11T10:03:18.000Z</Time>
            <Position>
              <LatitudeDegrees>43.25286042876541614532470703125</LatitudeDegrees>
              <LongitudeDegrees>-2.567223720252513885498046875</LongitudeDegrees>
            </Position>
            <AltitudeMeters>319.20001220703125</AltitudeMeters>
            <DistanceMeters>NAN</DistanceMeters>
          </Trackpoint>
          <Trackpoint>
            <Time>2022-07-11T10:03:23.000Z</Time>
            <Position>
              <LatitudeDegrees>43.25278968550264835357666015625</LatitudeDegrees>
              <LongitudeDegrees>-2.5671799667179584503173828125</LongitudeDegrees>
            </Position>
            <AltitudeMeters>319.600006103515625</AltitudeMeters>
            <DistanceMeters>NAN</DistanceMeters>
          </Trackpoint>
          <Trackpoint>
            <Time>2022-07-11T10:03:27.000Z</Time>
            <Position>
              <LatitudeDegrees>43.25273201800882816314697265625</LatitudeDegrees>
              <LongitudeDegrees>-2.5671970658004283905029296875</LongitudeDegrees>
            </Position>
            <AltitudeMeters>320</AltitudeMeters>
            <DistanceMeters>NAN</DistanceMeters>
          </Trackpoint>
          <Trackpoint>
            <Time>2022-07-11T10:03:34.000Z</Time>
            <Position>
              <LatitudeDegrees>43.25265993364155292510986328125</LatitudeDegrees>
              <LongitudeDegrees>-2.56729152984917163848876953125</LongitudeDegrees>
            </Position>
            <AltitudeMeters>320.399993896484375</AltitudeMeters>
            <DistanceMeters>NAN</DistanceMeters>
          </Trackpoint>
          <Trackpoint>
            <Time>2022-07-11T10:03:37.000Z</Time>
            <Position>
              <LatitudeDegrees>43.25263780541718006134033203125</LatitudeDegrees>
              <LongitudeDegrees>-2.5673305056989192962646484375</LongitudeDegrees>
            </Position>
            <AltitudeMeters>320.600006103515625</AltitudeMeters>
            <DistanceMeters>NAN</DistanceMeters>
          </Trackpoint>
          <Trackpoint>
            <Time>2022-07-11T10:03:40.000Z</Time>
            <Position>
              <LatitudeDegrees>43.252614252269268035888671875</LatitudeDegrees>
              <LongitudeDegrees>-2.567385323345661163330078125</LongitudeDegrees>
            </Position>
            <AltitudeMeters>320.79998779296875</AltitudeMeters>
            <DistanceMeters>NAN</DistanceMeters>
          </Trackpoint>
          <Trackpoint>
            <Time>2022-07-11T10:03:50.000Z</Time>
            <Position>
              <LatitudeDegrees>43.252557925879955291748046875</LatitudeDegrees>
              <LongitudeDegrees>-2.56757852621376514434814453125</LongitudeDegrees>
            </Position>
            <AltitudeMeters>321.600006103515625</AltitudeMeters>
            <DistanceMeters>NAN</DistanceMeters>
          </Trackpoint>
          <Trackpoint>
            <Time>2022-07-11T10:03:52.000Z</Time>
            <Position>
              <LatitudeDegrees>43.25254417955875396728515625</LatitudeDegrees>
              <LongitudeDegrees>-2.56761389784514904022216796875</LongitudeDegrees>
            </Position>
            <AltitudeMeters>321.79998779296875</AltitudeMeters>
            <DistanceMeters>NAN</DistanceMeters>
          </Trackpoint>
          <Trackpoint>
            <Time>2022-07-11T10:03:57.000Z</Time>
            <Position>
              <LatitudeDegrees>43.25252096168696880340576171875</LatitudeDegrees>
              <LongitudeDegrees>-2.56770878098905086517333984375</LongitudeDegrees>
            </Position>
            <AltitudeMeters>322.20001220703125</AltitudeMeters>
            <DistanceMeters>NAN</DistanceMeters>
          </Trackpoint>
          <Trackpoint>
            <Time>2022-07-11T10:04:07.000Z</Time>
            <Position>
              <LatitudeDegrees>43.25246430002152919769287109375</LatitudeDegrees>
              <LongitudeDegrees>-2.56787558086216449737548828125</LongitudeDegrees>
            </Position>
            <AltitudeMeters>322.79998779296875</AltitudeMeters>
            <DistanceMeters>NAN</DistanceMeters>
          </Trackpoint>
          <Trackpoint>
            <Time>2022-07-11T10:04:09.000Z</Time>
            <Position>
              <LatitudeDegrees>43.25245977379381656646728515625</LatitudeDegrees>
              <LongitudeDegrees>-2.56791145540773868560791015625</LongitudeDegrees>
            </Position>
            <AltitudeMeters>323</AltitudeMeters>
            <DistanceMeters>NAN</DistanceMeters>
          </Trackpoint>
          <Trackpoint>
            <Time>2022-07-11T10:04:16.000Z</Time>
            <Position>
              <LatitudeDegrees>43.2524303533136844635009765625</LatitudeDegrees>
              <LongitudeDegrees>-2.56802737712860107421875</LongitudeDegrees>
            </Position>
            <AltitudeMeters>323.20001220703125</AltitudeMeters>
            <DistanceMeters>NAN</DistanceMeters>
          </Trackpoint>
          <Trackpoint>
            <Time>2022-07-11T10:04:17.000Z</Time>
            <Position>
              <LatitudeDegrees>43.2524214684963226318359375</LatitudeDegrees>
              <LongitudeDegrees>-2.5680412910878658294677734375</LongitudeDegrees>
            </Position>
            <AltitudeMeters>323.20001220703125</AltitudeMeters>
            <DistanceMeters>NAN</DistanceMeters>
          </Trackpoint>
          <Trackpoint>
            <Time>2022-07-11T10:04:20.000Z</Time>
            <Position>
              <LatitudeDegrees>43.25241166166961193084716796875</LatitudeDegrees>
              <LongitudeDegrees>-2.5680952705442905426025390625</LongitudeDegrees>
            </Position>
            <AltitudeMeters>323.399993896484375</AltitudeMeters>
            <DistanceMeters>NAN</DistanceMeters>
          </Trackpoint>
          <Trackpoint>
            <Time>2022-07-11T10:04:23.000Z</Time>
            <Position>
              <LatitudeDegrees>43.25241149403154850006103515625</LatitudeDegrees>
              <LongitudeDegrees>-2.56815050728619098663330078125</LongitudeDegrees>
            </Position>
            <AltitudeMeters>323.79998779296875</AltitudeMeters>
            <DistanceMeters>NAN</DistanceMeters>
          </Trackpoint>
          <Trackpoint>
            <Time>2022-07-11T10:04:31.000Z</Time>
            <Position>
              <LatitudeDegrees>43.252406381070613861083984375</LatitudeDegrees>
              <LongitudeDegrees>-2.5682969391345977783203125</LongitudeDegrees>
            </Position>
            <AltitudeMeters>324.79998779296875</AltitudeMeters>
            <DistanceMeters>NAN</DistanceMeters>
          </Trackpoint>
          <Trackpoint>
            <Time>2022-07-11T10:04:41.000Z</Time>
            <Position>
              <LatitudeDegrees>43.25240646488964557647705078125</LatitudeDegrees>
              <LongitudeDegrees>-2.56850455887615680694580078125</LongitudeDegrees>
            </Position>
            <AltitudeMeters>325.79998779296875</AltitudeMeters>
            <DistanceMeters>NAN</DistanceMeters>
          </Trackpoint>
          <Trackpoint>
            <Time>2022-07-11T10:04:42.000Z</Time>
            <Position>
              <LatitudeDegrees>43.25240629725158214569091796875</LatitudeDegrees>
              <LongitudeDegrees>-2.56852383725345134735107421875</LongitudeDegrees>
            </Position>
            <AltitudeMeters>326</AltitudeMeters>
            <DistanceMeters>NAN</DistanceMeters>
          </Trackpoint>
          <Trackpoint>
            <Time>2022-07-11T10:04:51.000Z</Time>
            <Position>
              <LatitudeDegrees>43.25238861143589019775390625</LatitudeDegrees>
              <LongitudeDegrees>-2.56869683973491191864013671875</LongitudeDegrees>
            </Position>
            <AltitudeMeters>326.600006103515625</AltitudeMeters>
            <DistanceMeters>NAN</DistanceMeters>
          </Trackpoint>
          <Trackpoint>
            <Time>2022-07-11T10:04:56.000Z</Time>
            <Position>
              <LatitudeDegrees>43.2523616217076778411865234375</LatitudeDegrees>
              <LongitudeDegrees>-2.56878040730953216552734375</LongitudeDegrees>
            </Position>
            <AltitudeMeters>326.79998779296875</AltitudeMeters>
            <DistanceMeters>NAN</DistanceMeters>
          </Trackpoint>
          <Trackpoint>
            <Time>2022-07-11T10:04:58.000Z</Time>
            <Position>
              <LatitudeDegrees>43.25233739800751209259033203125</LatitudeDegrees>
              <LongitudeDegrees>-2.5688063912093639373779296875</LongitudeDegrees>
            </Position>
            <AltitudeMeters>327</AltitudeMeters>
            <DistanceMeters>NAN</DistanceMeters>
          </Trackpoint>
          <Trackpoint>
            <Time>2022-07-11T10:05:06.000Z</Time>
            <Position>
              <LatitudeDegrees>43.252301104366779327392578125</LatitudeDegrees>
              <LongitudeDegrees>-2.56897008977830410003662109375</LongitudeDegrees>
            </Position>
            <AltitudeMeters>328</AltitudeMeters>
            <DistanceMeters>NAN</DistanceMeters>
          </Trackpoint>
          <Trackpoint>
            <Time>2022-07-11T10:05:16.000Z</Time>
            <Position>
              <LatitudeDegrees>43.25227084569633007049560546875</LatitudeDegrees>
              <LongitudeDegrees>-2.5691550783812999725341796875</LongitudeDegrees>
            </Position>
            <AltitudeMeters>329</AltitudeMeters>
            <DistanceMeters>NAN</DistanceMeters>
          </Trackpoint>
          <Trackpoint>
            <Time>2022-07-11T10:05:17.000Z</Time>
            <Position>
              <LatitudeDegrees>43.25226950459182262420654296875</LatitudeDegrees>
              <LongitudeDegrees>-2.56917075254023075103759765625</LongitudeDegrees>
            </Position>
            <AltitudeMeters>329.20001220703125</AltitudeMeters>
            <DistanceMeters>NAN</DistanceMeters>
          </Trackpoint>
          <Trackpoint>
            <Time>2022-07-11T10:05:22.000Z</Time>
            <Position>
              <LatitudeDegrees>43.25225005857646465301513671875</LatitudeDegrees>
              <LongitudeDegrees>-2.56926580332219600677490234375</LongitudeDegrees>
            </Position>
            <AltitudeMeters>329.79998779296875</AltitudeMeters>
            <DistanceMeters>NAN</DistanceMeters>
          </Trackpoint>
          <Trackpoint>
            <Time>2022-07-11T10:05:26.000Z</Time>
            <Position>
              <LatitudeDegrees>43.2522335462272167205810546875</LatitudeDegrees>
              <LongitudeDegrees>-2.56934140808880329132080078125</LongitudeDegrees>
            </Position>
            <AltitudeMeters>330</AltitudeMeters>
            <DistanceMeters>NAN</DistanceMeters>
          </Trackpoint>
          <Trackpoint>
            <Time>2022-07-11T10:05:30.000Z</Time>
            <Position>
              <LatitudeDegrees>43.25220563448965549468994140625</LatitudeDegrees>
              <LongitudeDegrees>-2.56941064260900020599365234375</LongitudeDegrees>
            </Position>
            <AltitudeMeters>330.399993896484375</AltitudeMeters>
            <DistanceMeters>NAN</DistanceMeters>
          </Trackpoint>
          <Trackpoint>
            <Time>2022-07-11T10:05:37.000Z</Time>
            <Position>
              <LatitudeDegrees>43.25215618126094341278076171875</LatitudeDegrees>
              <LongitudeDegrees>-2.5695302523672580718994140625</LongitudeDegrees>
            </Position>
            <AltitudeMeters>331.20001220703125</AltitudeMeters>
            <DistanceMeters>NAN</DistanceMeters>
          </Trackpoint>
          <Trackpoint>
            <Time>2022-07-11T10:05:43.000Z</Time>
            <Position>
              <LatitudeDegrees>43.25210689567029476165771484375</LatitudeDegrees>
              <LongitudeDegrees>-2.56962756626307964324951171875</LongitudeDegrees>
            </Position>
            <AltitudeMeters>331.600006103515625</AltitudeMeters>
            <DistanceMeters>NAN</DistanceMeters>
          </Trackpoint>
          <Trackpoint>
            <Time>2022-07-11T10:05:51.000Z</Time>
            <Position>
              <LatitudeDegrees>43.2520491443574428558349609375</LatitudeDegrees>
              <LongitudeDegrees>-2.56975647993385791778564453125</LongitudeDegrees>
            </Position>
            <AltitudeMeters>332.20001220703125</AltitudeMeters>
            <DistanceMeters>NAN</DistanceMeters>
          </Trackpoint>
          <Trackpoint>
            <Time>2022-07-11T10:05:52.000Z</Time>
            <Position>
              <LatitudeDegrees>43.25203816406428813934326171875</LatitudeDegrees>
              <LongitudeDegrees>-2.56977223791182041168212890625</LongitudeDegrees>
            </Position>
            <AltitudeMeters>332.20001220703125</AltitudeMeters>
            <DistanceMeters>NAN</DistanceMeters>
          </Trackpoint>
          <Trackpoint>
            <Time>2022-07-11T10:05:53.000Z</Time>
            <Position>
              <LatitudeDegrees>43.25202961452305316925048828125</LatitudeDegrees>
              <LongitudeDegrees>-2.56978623569011688232421875</LongitudeDegrees>
            </Position>
            <AltitudeMeters>332.20001220703125</AltitudeMeters>
            <DistanceMeters>NAN</DistanceMeters>
          </Trackpoint>
          <Trackpoint>
            <Time>2022-07-11T10:06:01.000Z</Time>
            <Position>
              <LatitudeDegrees>43.25196482241153717041015625</LatitudeDegrees>
              <LongitudeDegrees>-2.56992495618760585784912109375</LongitudeDegrees>
            </Position>
            <AltitudeMeters>332.79998779296875</AltitudeMeters>
            <DistanceMeters>NAN</DistanceMeters>
          </Trackpoint>
          <Trackpoint>
            <Time>2022-07-11T10:06:04.000Z</Time>
            <Position>
              <LatitudeDegrees>43.2519435323774814605712890625</LatitudeDegrees>
              <LongitudeDegrees>-2.5699813663959503173828125</LongitudeDegrees>
            </Position>
            <AltitudeMeters>333.20001220703125</AltitudeMeters>
            <DistanceMeters>NAN</DistanceMeters>
          </Trackpoint>
          <Trackpoint>
            <Time>2022-07-11T10:06:08.000Z</Time>
            <Position>
              <LatitudeDegrees>43.2519210688769817352294921875</LatitudeDegrees>
              <LongitudeDegrees>-2.57007348351180553436279296875</LongitudeDegrees>
            </Position>
            <AltitudeMeters>333.600006103515625</AltitudeMeters>
            <DistanceMeters>NAN</DistanceMeters>
          </Trackpoint>
          <Trackpoint>
            <Time>2022-07-11T10:06:12.000Z</Time>
            <Position>
              <LatitudeDegrees>43.25190539471805095672607421875</LatitudeDegrees>
              <LongitudeDegrees>-2.57014833390712738037109375</LongitudeDegrees>
            </Position>
            <AltitudeMeters>334.20001220703125</AltitudeMeters>
            <DistanceMeters>NAN</DistanceMeters>
          </Trackpoint>
          <Trackpoint>
            <Time>2022-07-11T10:06:13.000Z</Time>
            <Position>
              <LatitudeDegrees>43.2519022934138774871826171875</LatitudeDegrees>
              <LongitudeDegrees>-2.5701682828366756439208984375</LongitudeDegrees>
            </Position>
            <AltitudeMeters>334.20001220703125</AltitudeMeters>
            <DistanceMeters>NAN</DistanceMeters>
          </Trackpoint>
          <Trackpoint>
            <Time>2022-07-11T10:06:17.000Z</Time>
            <Position>
              <LatitudeDegrees>43.25189583934843540191650390625</LatitudeDegrees>
              <LongitudeDegrees>-2.57025302387773990631103515625</LongitudeDegrees>
            </Position>
            <AltitudeMeters>334.600006103515625</AltitudeMeters>
            <DistanceMeters>NAN</DistanceMeters>
          </Trackpoint>
          <Trackpoint>
            <Time>2022-07-11T10:06:24.000Z</Time>
            <Position>
              <LatitudeDegrees>43.25186667032539844512939453125</LatitudeDegrees>
              <LongitudeDegrees>-2.570384033024311065673828125</LongitudeDegrees>
            </Position>
            <AltitudeMeters>335.399993896484375</AltitudeMeters>
            <DistanceMeters>NAN</DistanceMeters>
          </Trackpoint>
          <Trackpoint>
            <Time>2022-07-11T10:06:33.000Z</Time>
            <Position>
              <LatitudeDegrees>43.25182442553341388702392578125</LatitudeDegrees>
              <LongitudeDegrees>-2.57055393420159816741943359375</LongitudeDegrees>
            </Position>
            <AltitudeMeters>336</AltitudeMeters>
            <DistanceMeters>NAN</DistanceMeters>
          </Trackpoint>
          <Trackpoint>
            <Time>2022-07-11T10:06:35.000Z</Time>
            <Position>
              <LatitudeDegrees>43.25180900283157825469970703125</LatitudeDegrees>
              <LongitudeDegrees>-2.57058620452880859375</LongitudeDegrees>
            </Position>
            <AltitudeMeters>336.399993896484375</AltitudeMeters>
            <DistanceMeters>NAN</DistanceMeters>
          </Trackpoint>
          <Trackpoint>
            <Time>2022-07-11T10:06:42.000Z</Time>
            <Position>
              <LatitudeDegrees>43.251754939556121826171875</LatitudeDegrees>
              <LongitudeDegrees>-2.570717632770538330078125</LongitudeDegrees>
            </Position>
            <AltitudeMeters>337.20001220703125</AltitudeMeters>
            <DistanceMeters>NAN</DistanceMeters>
          </Trackpoint>
          <Trackpoint>
            <Time>2022-07-11T10:06:43.000Z</Time>
            <Position>
              <LatitudeDegrees>43.25174882076680660247802734375</LatitudeDegrees>
              <LongitudeDegrees>-2.5707352347671985626220703125</LongitudeDegrees>
            </Position>
            <AltitudeMeters>337.399993896484375</AltitudeMeters>
            <DistanceMeters>NAN</DistanceMeters>
          </Trackpoint>
          <Trackpoint>
            <Time>2022-07-11T10:06:48.000Z</Time>
            <Position>
              <LatitudeDegrees>43.25170774944126605987548828125</LatitudeDegrees>
              <LongitudeDegrees>-2.57082684896886348724365234375</LongitudeDegrees>
            </Position>
            <AltitudeMeters>338</AltitudeMeters>
            <DistanceMeters>NAN</DistanceMeters>
          </Trackpoint>
          <Trackpoint>
            <Time>2022-07-11T10:06:54.000Z</Time>
            <Position>
              <LatitudeDegrees>43.25164840556681156158447265625</LatitudeDegrees>
              <LongitudeDegrees>-2.57092072628438472747802734375</LongitudeDegrees>
            </Position>
            <AltitudeMeters>338.600006103515625</AltitudeMeters>
            <DistanceMeters>NAN</DistanceMeters>
          </Trackpoint>
          <Trackpoint>
            <Time>2022-07-11T10:06:55.000Z</Time>
            <Position>
              <LatitudeDegrees>43.25163918547332286834716796875</LatitudeDegrees>
              <LongitudeDegrees>-2.5709384121000766754150390625</LongitudeDegrees>
            </Position>
            <AltitudeMeters>338.600006103515625</AltitudeMeters>
            <DistanceMeters>NAN</DistanceMeters>
          </Trackpoint>
          <Trackpoint>
            <Time>2022-07-11T10:07:04.000Z</Time>
            <Position>
              <LatitudeDegrees>43.25156089849770069122314453125</LatitudeDegrees>
              <LongitudeDegrees>-2.5710939802229404449462890625</LongitudeDegrees>
            </Position>
            <AltitudeMeters>339.600006103515625</AltitudeMeters>
            <DistanceMeters>NAN</DistanceMeters>
          </Trackpoint>
          <Trackpoint>
            <Time>2022-07-11T10:07:06.000Z</Time>
            <Position>
              <LatitudeDegrees>43.25154505670070648193359375</LatitudeDegrees>
              <LongitudeDegrees>-2.57113027386367321014404296875</LongitudeDegrees>
            </Position>
            <AltitudeMeters>339.79998779296875</AltitudeMeters>
            <DistanceMeters>NAN</DistanceMeters>
          </Trackpoint>
          <Trackpoint>
            <Time>2022-07-11T10:07:13.000Z</Time>
            <Position>
              <LatitudeDegrees>43.25152519159018993377685546875</LatitudeDegrees>
              <LongitudeDegrees>-2.57126723416149616241455078125</LongitudeDegrees>
            </Position>
            <AltitudeMeters>340.600006103515625</AltitudeMeters>
            <DistanceMeters>NAN</DistanceMeters>
          </Trackpoint>
          <Trackpoint>
            <Time>2022-07-11T10:07:14.000Z</Time>
            <Position>
              <LatitudeDegrees>43.2515267841517925262451171875</LatitudeDegrees>
              <LongitudeDegrees>-2.571289278566837310791015625</LongitudeDegrees>
            </Position>
            <AltitudeMeters>340.79998779296875</AltitudeMeters>
            <DistanceMeters>NAN</DistanceMeters>
          </Trackpoint>
          <Trackpoint>
            <Time>2022-07-11T10:07:22.000Z</Time>
            <Position>
              <LatitudeDegrees>43.25155301950871944427490234375</LatitudeDegrees>
              <LongitudeDegrees>-2.57145616225898265838623046875</LongitudeDegrees>
            </Position>
            <AltitudeMeters>341.79998779296875</AltitudeMeters>
            <DistanceMeters>NAN</DistanceMeters>
          </Trackpoint>
          <Trackpoint>
            <Time>2022-07-11T10:07:25.000Z</Time>
            <Position>
              <LatitudeDegrees>43.2515738904476165771484375</LatitudeDegrees>
              <LongitudeDegrees>-2.57150997407734394073486328125</LongitudeDegrees>
            </Position>
            <AltitudeMeters>342</AltitudeMeters>
            <DistanceMeters>NAN</DistanceMeters>
          </Trackpoint>
          <Trackpoint>
            <Time>2022-07-11T10:07:29.000Z</Time>
            <Position>
              <LatitudeDegrees>43.251608423888683319091796875</LatitudeDegrees>
              <LongitudeDegrees>-2.57157258689403533935546875</LongitudeDegrees>
            </Position>
            <AltitudeMeters>342.399993896484375</AltitudeMeters>
            <DistanceMeters>NAN</DistanceMeters>
          </Trackpoint>
          <Trackpoint>
            <Time>2022-07-11T10:07:32.000Z</Time>
            <Position>
              <LatitudeDegrees>43.251649998128414154052734375</LatitudeDegrees>
              <LongitudeDegrees>-2.57161038927733898162841796875</LongitudeDegrees>
            </Position>
            <AltitudeMeters>342.79998779296875</AltitudeMeters>
            <DistanceMeters>NAN</DistanceMeters>
          </Trackpoint>
          <Trackpoint>
            <Time>2022-07-11T10:07:39.000Z</Time>
            <Position>
              <LatitudeDegrees>43.251715712249279022216796875</LatitudeDegrees>
              <LongitudeDegrees>-2.57168850861489772796630859375</LongitudeDegrees>
            </Position>
            <AltitudeMeters>343.600006103515625</AltitudeMeters>
            <DistanceMeters>NAN</DistanceMeters>
          </Trackpoint>
          <Trackpoint>
            <Time>2022-07-11T10:07:40.000Z</Time>
            <Position>
              <LatitudeDegrees>43.25172476470470428466796875</LatitudeDegrees>
              <LongitudeDegrees>-2.5716954655945301055908203125</LongitudeDegrees>
            </Position>
            <AltitudeMeters>344</AltitudeMeters>
            <DistanceMeters>NAN</DistanceMeters>
          </Trackpoint>
          <Trackpoint>
            <Time>2022-07-11T10:07:47.000Z</Time>
            <Position>
              <LatitudeDegrees>43.25181487016379833221435546875</LatitudeDegrees>
              <LongitudeDegrees>-2.57178540341556072235107421875</LongitudeDegrees>
            </Position>
            <AltitudeMeters>344.600006103515625</AltitudeMeters>
            <DistanceMeters>NAN</DistanceMeters>
          </Trackpoint>
          <Trackpoint>
            <Time>2022-07-11T10:07:53.000Z</Time>
            <Position>
              <LatitudeDegrees>43.2518996112048625946044921875</LatitudeDegrees>
              <LongitudeDegrees>-2.57184055633842945098876953125</LongitudeDegrees>
            </Position>
            <AltitudeMeters>345</AltitudeMeters>
            <DistanceMeters>NAN</DistanceMeters>
          </Trackpoint>
          <Trackpoint>
            <Time>2022-07-11T10:07:55.000Z</Time>
            <Position>
              <LatitudeDegrees>43.25192391872406005859375</LatitudeDegrees>
              <LongitudeDegrees>-2.57185866124927997589111328125</LongitudeDegrees>
            </Position>
            <AltitudeMeters>345</AltitudeMeters>
            <DistanceMeters>NAN</DistanceMeters>
          </Trackpoint>
          <Trackpoint>
            <Time>2022-07-11T10:07:57.000Z</Time>
            <Position>
              <LatitudeDegrees>43.25195669196546077728271484375</LatitudeDegrees>
              <LongitudeDegrees>-2.57190249860286712646484375</LongitudeDegrees>
            </Position>
            <AltitudeMeters>345</AltitudeMeters>
            <DistanceMeters>NAN</DistanceMeters>
          </Trackpoint>
          <Trackpoint>
            <Time>2022-07-11T10:08:01.000Z</Time>
            <Position>
              <LatitudeDegrees>43.25204637832939624786376953125</LatitudeDegrees>
              <LongitudeDegrees>-2.57198824547231197357177734375</LongitudeDegrees>
            </Position>
            <AltitudeMeters>345</AltitudeMeters>
            <DistanceMeters>NAN</DistanceMeters>
          </Trackpoint>
          <Trackpoint>
            <Time>2022-07-11T10:08:03.000Z</Time>
            <Position>
              <LatitudeDegrees>43.25211779214441776275634765625</LatitudeDegrees>
              <LongitudeDegrees>-2.57202713750302791595458984375</LongitudeDegrees>
            </Position>
            <AltitudeMeters>344.79998779296875</AltitudeMeters>
            <DistanceMeters>NAN</DistanceMeters>
          </Trackpoint>
          <Trackpoint>
            <Time>2022-07-11T10:08:05.000Z</Time>
            <Position>
              <LatitudeDegrees>43.25218015350401401519775390625</LatitudeDegrees>
              <LongitudeDegrees>-2.5720367766916751861572265625</LongitudeDegrees>
            </Position>
            <AltitudeMeters>344.600006103515625</AltitudeMeters>
            <DistanceMeters>NAN</DistanceMeters>
          </Trackpoint>
          <Trackpoint>
            <Time>2022-07-11T10:08:06.000Z</Time>
            <Position>
              <LatitudeDegrees>43.25220295228064060211181640625</LatitudeDegrees>
              <LongitudeDegrees>-2.57204188965260982513427734375</LongitudeDegrees>
            </Position>
            <AltitudeMeters>344.399993896484375</AltitudeMeters>
            <DistanceMeters>NAN</DistanceMeters>
          </Trackpoint>
          <Trackpoint>
            <Time>2022-07-11T10:08:07.000Z</Time>
            <Position>
              <LatitudeDegrees>43.25221736915409564971923828125</LatitudeDegrees>
              <LongitudeDegrees>-2.57203870452940464019775390625</LongitudeDegrees>
            </Position>
            <AltitudeMeters>344.20001220703125</AltitudeMeters>
            <DistanceMeters>NAN</DistanceMeters>
          </Trackpoint>
          <Trackpoint>
            <Time>2022-07-11T10:08:09.000Z</Time>
            <Position>
              <LatitudeDegrees>43.25222072191536426544189453125</LatitudeDegrees>
              <LongitudeDegrees>-2.572036944329738616943359375</LongitudeDegrees>
            </Position>
            <AltitudeMeters>344.20001220703125</AltitudeMeters>
            <DistanceMeters>NAN</DistanceMeters>
          </Trackpoint>
          <Trackpoint>
            <Time>2022-07-11T10:08:10.000Z</Time>
            <Position>
              <LatitudeDegrees>43.25222072191536426544189453125</LatitudeDegrees>
              <LongitudeDegrees>-2.572036944329738616943359375</LongitudeDegrees>
            </Position>
            <AltitudeMeters>344.20001220703125</AltitudeMeters>
            <DistanceMeters>NAN</DistanceMeters>
          </Trackpoint>
          <Trackpoint>
            <Time>2022-07-11T10:10:09.000Z</Time>
            <Position>
              <LatitudeDegrees>43.2522363960742950439453125</LatitudeDegrees>
              <LongitudeDegrees>-2.57208933122456073760986328125</LongitudeDegrees>
            </Position>
            <AltitudeMeters>345</AltitudeMeters>
            <DistanceMeters>NAN</DistanceMeters>
          </Trackpoint>
          <Trackpoint>
            <Time>2022-07-11T10:10:10.000Z</Time>
            <Position>
              <LatitudeDegrees>43.2522881962358951568603515625</LatitudeDegrees>
              <LongitudeDegrees>-2.5721433945000171661376953125</LongitudeDegrees>
            </Position>
            <AltitudeMeters>345</AltitudeMeters>
            <DistanceMeters>NAN</DistanceMeters>
          </Trackpoint>
          <Trackpoint>
            <Time>2022-07-11T10:10:11.000Z</Time>
            <Position>
              <LatitudeDegrees>43.25232465751469135284423828125</LatitudeDegrees>
              <LongitudeDegrees>-2.57217474281787872314453125</LongitudeDegrees>
            </Position>
            <AltitudeMeters>345</AltitudeMeters>
            <DistanceMeters>NAN</DistanceMeters>
          </Trackpoint>
          <Trackpoint>
            <Time>2022-07-11T10:10:16.000Z</Time>
            <Position>
              <LatitudeDegrees>43.25258734636008739471435546875</LatitudeDegrees>
              <LongitudeDegrees>-2.57231849245727062225341796875</LongitudeDegrees>
            </Position>
            <AltitudeMeters>344.79998779296875</AltitudeMeters>
            <DistanceMeters>NAN</DistanceMeters>
          </Trackpoint>
          <Trackpoint>
            <Time>2022-07-11T10:10:19.000Z</Time>
            <Position>
              <LatitudeDegrees>43.2527961395680904388427734375</LatitudeDegrees>
              <LongitudeDegrees>-2.5724126212298870086669921875</LongitudeDegrees>
            </Position>
            <AltitudeMeters>344.20001220703125</AltitudeMeters>
            <DistanceMeters>NAN</DistanceMeters>
          </Trackpoint>
          <Trackpoint>
            <Time>2022-07-11T10:10:20.000Z</Time>
            <Position>
              <LatitudeDegrees>43.2528747618198394775390625</LatitudeDegrees>
              <LongitudeDegrees>-2.57244220934808254241943359375</LongitudeDegrees>
            </Position>
            <AltitudeMeters>343.79998779296875</AltitudeMeters>
            <DistanceMeters>NAN</DistanceMeters>
          </Trackpoint>
          <Trackpoint>
            <Time>2022-07-11T10:10:21.000Z</Time>
            <Position>
              <LatitudeDegrees>43.25296151451766490936279296875</LatitudeDegrees>
              <LongitudeDegrees>-2.57247355766594409942626953125</LongitudeDegrees>
            </Position>
            <AltitudeMeters>343.399993896484375</AltitudeMeters>
            <DistanceMeters>NAN</DistanceMeters>
          </Trackpoint>
          <Trackpoint>
            <Time>2022-07-11T10:10:24.000Z</Time>
            <Position>
              <LatitudeDegrees>43.2532363571226596832275390625</LatitudeDegrees>
              <LongitudeDegrees>-2.57258637808263301849365234375</LongitudeDegrees>
            </Position>
            <AltitudeMeters>342.399993896484375</AltitudeMeters>
            <DistanceMeters>NAN</DistanceMeters>
          </Trackpoint>
          <Trackpoint>
            <Time>2022-07-11T10:10:27.000Z</Time>
            <Position>
              <LatitudeDegrees>43.253504745662212371826171875</LatitudeDegrees>
              <LongitudeDegrees>-2.57271847687661647796630859375</LongitudeDegrees>
            </Position>
            <AltitudeMeters>342</AltitudeMeters>
            <DistanceMeters>NAN</DistanceMeters>
          </Trackpoint>
          <Trackpoint>
            <Time>2022-07-11T10:10:29.000Z</Time>
            <Position>
              <LatitudeDegrees>43.253680765628814697265625</LatitudeDegrees>
              <LongitudeDegrees>-2.57284671999514102935791015625</LongitudeDegrees>
            </Position>
            <AltitudeMeters>341</AltitudeMeters>
            <DistanceMeters>NAN</DistanceMeters>
          </Trackpoint>
          <Trackpoint>
            <Time>2022-07-11T10:10:31.000Z</Time>
            <Position>
              <LatitudeDegrees>43.25386625714600086212158203125</LatitudeDegrees>
              <LongitudeDegrees>-2.57298200391232967376708984375</LongitudeDegrees>
            </Position>
            <AltitudeMeters>339.20001220703125</AltitudeMeters>
            <DistanceMeters>NAN</DistanceMeters>
          </Trackpoint>
          <Trackpoint>
            <Time>2022-07-11T10:10:33.000Z</Time>
            <Position>
              <LatitudeDegrees>43.254049904644489288330078125</LatitudeDegrees>
              <LongitudeDegrees>-2.573121897876262664794921875</LongitudeDegrees>
            </Position>
            <AltitudeMeters>338.20001220703125</AltitudeMeters>
            <DistanceMeters>NAN</DistanceMeters>
          </Trackpoint>
          <Trackpoint>
            <Time>2022-07-11T10:10:36.000Z</Time>
            <Position>
              <LatitudeDegrees>43.25429742224514484405517578125</LatitudeDegrees>
              <LongitudeDegrees>-2.57337712682783603668212890625</LongitudeDegrees>
            </Position>
            <AltitudeMeters>337.399993896484375</AltitudeMeters>
            <DistanceMeters>NAN</DistanceMeters>
          </Trackpoint>
          <Trackpoint>
            <Time>2022-07-11T10:10:37.000Z</Time>
            <Position>
              <LatitudeDegrees>43.25436799786984920501708984375</LatitudeDegrees>
              <LongitudeDegrees>-2.57345524616539478302001953125</LongitudeDegrees>
            </Position>
            <AltitudeMeters>337</AltitudeMeters>
            <DistanceMeters>NAN</DistanceMeters>
          </Trackpoint>
          <Trackpoint>
            <Time>2022-07-11T10:10:41.000Z</Time>
            <Position>
              <LatitudeDegrees>43.25469807721674442291259765625</LatitudeDegrees>
              <LongitudeDegrees>-2.57385648787021636962890625</LongitudeDegrees>
            </Position>
            <AltitudeMeters>336</AltitudeMeters>
            <DistanceMeters>NAN</DistanceMeters>
          </Trackpoint>
          <Trackpoint>
            <Time>2022-07-11T10:10:42.000Z</Time>
            <Position>
              <LatitudeDegrees>43.25479212217032909393310546875</LatitudeDegrees>
              <LongitudeDegrees>-2.57396587170660495758056640625</LongitudeDegrees>
            </Position>
            <AltitudeMeters>335</AltitudeMeters>
            <DistanceMeters>NAN</DistanceMeters>
          </Trackpoint>
          <Trackpoint>
            <Time>2022-07-11T10:10:43.000Z</Time>
            <Position>
              <LatitudeDegrees>43.254853226244449615478515625</LatitudeDegrees>
              <LongitudeDegrees>-2.5740296579897403717041015625</LongitudeDegrees>
            </Position>
            <AltitudeMeters>333.20001220703125</AltitudeMeters>
            <DistanceMeters>NAN</DistanceMeters>
          </Trackpoint>
          <Trackpoint>
            <Time>2022-07-11T10:10:44.000Z</Time>
            <Position>
              <LatitudeDegrees>43.25493042357265949249267578125</LatitudeDegrees>
              <LongitudeDegrees>-2.57409461773931980133056640625</LongitudeDegrees>
            </Position>
            <AltitudeMeters>332.399993896484375</AltitudeMeters>
            <DistanceMeters>NAN</DistanceMeters>
          </Trackpoint>
          <Trackpoint>
            <Time>2022-07-11T10:10:45.000Z</Time>
            <Position>
              <LatitudeDegrees>43.25501072220504283905029296875</LatitudeDegrees>
              <LongitudeDegrees>-2.57413032464683055877685546875</LongitudeDegrees>
            </Position>
            <AltitudeMeters>330.79998779296875</AltitudeMeters>
            <DistanceMeters>NAN</DistanceMeters>
          </Trackpoint>
          <Trackpoint>
            <Time>2022-07-11T10:10:46.000Z</Time>
            <Position>
              <LatitudeDegrees>43.2550914399325847625732421875</LatitudeDegrees>
              <LongitudeDegrees>-2.57412194274365901947021484375</LongitudeDegrees>
            </Position>
            <AltitudeMeters>329.600006103515625</AltitudeMeters>
            <DistanceMeters>NAN</DistanceMeters>
          </Trackpoint>
          <Trackpoint>
            <Time>2022-07-11T10:10:47.000Z</Time>
            <Position>
              <LatitudeDegrees>43.25516763143241405487060546875</LatitudeDegrees>
              <LongitudeDegrees>-2.57407634519040584564208984375</LongitudeDegrees>
            </Position>
            <AltitudeMeters>328.399993896484375</AltitudeMeters>
            <DistanceMeters>NAN</DistanceMeters>
          </Trackpoint>
          <Trackpoint>
            <Time>2022-07-11T10:10:48.000Z</Time>
            <Position>
              <LatitudeDegrees>43.25523837469518184661865234375</LatitudeDegrees>
              <LongitudeDegrees>-2.57399839349091053009033203125</LongitudeDegrees>
            </Position>
            <AltitudeMeters>327.600006103515625</AltitudeMeters>
            <DistanceMeters>NAN</DistanceMeters>
          </Trackpoint>
          <Trackpoint>
            <Time>2022-07-11T10:10:49.000Z</Time>
            <Position>
              <LatitudeDegrees>43.25530207715928554534912109375</LatitudeDegrees>
              <LongitudeDegrees>-2.57390351034700870513916015625</LongitudeDegrees>
            </Position>
            <AltitudeMeters>326.600006103515625</AltitudeMeters>
            <DistanceMeters>NAN</DistanceMeters>
          </Trackpoint>
          <Trackpoint>
            <Time>2022-07-11T10:10:50.000Z</Time>
            <Position>
              <LatitudeDegrees>43.25537801720201969146728515625</LatitudeDegrees>
              <LongitudeDegrees>-2.57378884591162204742431640625</LongitudeDegrees>
            </Position>
            <AltitudeMeters>325.79998779296875</AltitudeMeters>
            <DistanceMeters>NAN</DistanceMeters>
          </Trackpoint>
          <Trackpoint>
            <Time>2022-07-11T10:10:51.000Z</Time>
            <Position>
              <LatitudeDegrees>43.25542931444942951202392578125</LatitudeDegrees>
              <LongitudeDegrees>-2.57372598163783550262451171875</LongitudeDegrees>
            </Position>
            <AltitudeMeters>325.20001220703125</AltitudeMeters>
            <DistanceMeters>NAN</DistanceMeters>
          </Trackpoint>
          <Trackpoint>
            <Time>2022-07-11T10:10:53.000Z</Time>
            <Position>
              <LatitudeDegrees>43.2555608265101909637451171875</LatitudeDegrees>
              <LongitudeDegrees>-2.573652975261211395263671875</LongitudeDegrees>
            </Position>
            <AltitudeMeters>324.20001220703125</AltitudeMeters>
            <DistanceMeters>NAN</DistanceMeters>
          </Trackpoint>
          <Trackpoint>
            <Time>2022-07-11T10:10:54.000Z</Time>
            <Position>
              <LatitudeDegrees>43.25561723671853542327880859375</LatitudeDegrees>
              <LongitudeDegrees>-2.57366605103015899658203125</LongitudeDegrees>
            </Position>
            <AltitudeMeters>323.79998779296875</AltitudeMeters>
            <DistanceMeters>NAN</DistanceMeters>
          </Trackpoint>
          <Trackpoint>
            <Time>2022-07-11T10:10:55.000Z</Time>
            <Position>
              <LatitudeDegrees>43.25565746985375881195068359375</LatitudeDegrees>
              <LongitudeDegrees>-2.57371692918241024017333984375</LongitudeDegrees>
            </Position>
            <AltitudeMeters>323</AltitudeMeters>
            <DistanceMeters>NAN</DistanceMeters>
          </Trackpoint>
          <Trackpoint>
            <Time>2022-07-11T10:10:56.000Z</Time>
            <Position>
              <LatitudeDegrees>43.25568026863038539886474609375</LatitudeDegrees>
              <LongitudeDegrees>-2.5738006643950939178466796875</LongitudeDegrees>
            </Position>
            <AltitudeMeters>322.600006103515625</AltitudeMeters>
            <DistanceMeters>NAN</DistanceMeters>
          </Trackpoint>
          <Trackpoint>
            <Time>2022-07-11T10:10:57.000Z</Time>
            <Position>
              <LatitudeDegrees>43.25569669716060161590576171875</LatitudeDegrees>
              <LongitudeDegrees>-2.57390283979475498199462890625</LongitudeDegrees>
            </Position>
            <AltitudeMeters>322.20001220703125</AltitudeMeters>
            <DistanceMeters>NAN</DistanceMeters>
          </Trackpoint>
          <Trackpoint>
            <Time>2022-07-11T10:10:58.000Z</Time>
            <Position>
              <LatitudeDegrees>43.2557026483118534088134765625</LatitudeDegrees>
              <LongitudeDegrees>-2.5740169174969196319580078125</LongitudeDegrees>
            </Position>
            <AltitudeMeters>321.79998779296875</AltitudeMeters>
            <DistanceMeters>NAN</DistanceMeters>
          </Trackpoint>
          <Trackpoint>
            <Time>2022-07-11T10:10:59.000Z</Time>
            <Position>
              <LatitudeDegrees>43.2557083480060100555419921875</LatitudeDegrees>
              <LongitudeDegrees>-2.57413543760776519775390625</LongitudeDegrees>
            </Position>
            <AltitudeMeters>321.399993896484375</AltitudeMeters>
            <DistanceMeters>NAN</DistanceMeters>
          </Trackpoint>
          <Trackpoint>
            <Time>2022-07-11T10:11:02.000Z</Time>
            <Position>
              <LatitudeDegrees>43.25574271380901336669921875</LatitudeDegrees>
              <LongitudeDegrees>-2.5745426304638385772705078125</LongitudeDegrees>
            </Position>
            <AltitudeMeters>320.20001220703125</AltitudeMeters>
            <DistanceMeters>NAN</DistanceMeters>
          </Trackpoint>
          <Trackpoint>
            <Time>2022-07-11T10:11:03.000Z</Time>
            <Position>
              <LatitudeDegrees>43.2557526044547557830810546875</LatitudeDegrees>
              <LongitudeDegrees>-2.57467766292393207550048828125</LongitudeDegrees>
            </Position>
            <AltitudeMeters>319.79998779296875</AltitudeMeters>
            <DistanceMeters>NAN</DistanceMeters>
          </Trackpoint>
          <Trackpoint>
            <Time>2022-07-11T10:11:05.000Z</Time>
            <Position>
              <LatitudeDegrees>43.255770206451416015625</LatitudeDegrees>
              <LongitudeDegrees>-2.5749550200998783111572265625</LongitudeDegrees>
            </Position>
            <AltitudeMeters>319.20001220703125</AltitudeMeters>
            <DistanceMeters>NAN</DistanceMeters>
          </Trackpoint>
          <Trackpoint>
            <Time>2022-07-11T10:11:06.000Z</Time>
            <Position>
              <LatitudeDegrees>43.2557930052280426025390625</LatitudeDegrees>
              <LongitudeDegrees>-2.57509139366447925567626953125</LongitudeDegrees>
            </Position>
            <AltitudeMeters>318.600006103515625</AltitudeMeters>
            <DistanceMeters>NAN</DistanceMeters>
          </Trackpoint>
          <Trackpoint>
            <Time>2022-07-11T10:11:07.000Z</Time>
            <Position>
              <LatitudeDegrees>43.25582527555525302886962890625</LatitudeDegrees>
              <LongitudeDegrees>-2.575229443609714508056640625</LongitudeDegrees>
            </Position>
            <AltitudeMeters>318</AltitudeMeters>
            <DistanceMeters>NAN</DistanceMeters>
          </Trackpoint>
          <Trackpoint>
            <Time>2022-07-11T10:11:08.000Z</Time>
            <Position>
              <LatitudeDegrees>43.25587271712720394134521484375</LatitudeDegrees>
              <LongitudeDegrees>-2.5753640569746494293212890625</LongitudeDegrees>
            </Position>
            <AltitudeMeters>317.20001220703125</AltitudeMeters>
            <DistanceMeters>NAN</DistanceMeters>
          </Trackpoint>
          <Trackpoint>
            <Time>2022-07-11T10:11:09.000Z</Time>
            <Position>
              <LatitudeDegrees>43.25592502020299434661865234375</LatitudeDegrees>
              <LongitudeDegrees>-2.5754879415035247802734375</LongitudeDegrees>
            </Position>
            <AltitudeMeters>316.20001220703125</AltitudeMeters>
            <DistanceMeters>NAN</DistanceMeters>
          </Trackpoint>
          <Trackpoint>
            <Time>2022-07-11T10:11:10.000Z</Time>
            <Position>
              <LatitudeDegrees>43.25598335824906826019287109375</LatitudeDegrees>
              <LongitudeDegrees>-2.575605623424053192138671875</LongitudeDegrees>
            </Position>
            <AltitudeMeters>315.20001220703125</AltitudeMeters>
            <DistanceMeters>NAN</DistanceMeters>
          </Trackpoint>
          <Trackpoint>
            <Time>2022-07-11T10:11:11.000Z</Time>
            <Position>
              <LatitudeDegrees>43.2560349069535732269287109375</LatitudeDegrees>
              <LongitudeDegrees>-2.5757258199155330657958984375</LongitudeDegrees>
            </Position>
            <AltitudeMeters>314.79998779296875</AltitudeMeters>
            <DistanceMeters>NAN</DistanceMeters>
          </Trackpoint>
          <Trackpoint>
            <Time>2022-07-11T10:11:12.000Z</Time>
            <Position>
              <LatitudeDegrees>43.25608410872519016265869140625</LatitudeDegrees>
              <LongitudeDegrees>-2.57585196755826473236083984375</LongitudeDegrees>
            </Position>
            <AltitudeMeters>314.399993896484375</AltitudeMeters>
            <DistanceMeters>NAN</DistanceMeters>
          </Trackpoint>
          <Trackpoint>
            <Time>2022-07-11T10:11:14.000Z</Time>
            <Position>
              <LatitudeDegrees>43.256138004362583160400390625</LatitudeDegrees>
              <LongitudeDegrees>-2.57612697780132293701171875</LongitudeDegrees>
            </Position>
            <AltitudeMeters>313.79998779296875</AltitudeMeters>
            <DistanceMeters>NAN</DistanceMeters>
          </Trackpoint>
          <Trackpoint>
            <Time>2022-07-11T10:11:15.000Z</Time>
            <Position>
              <LatitudeDegrees>43.25615820474922657012939453125</LatitudeDegrees>
              <LongitudeDegrees>-2.576269470155239105224609375</LongitudeDegrees>
            </Position>
            <AltitudeMeters>312.20001220703125</AltitudeMeters>
            <DistanceMeters>NAN</DistanceMeters>
          </Trackpoint>
          <Trackpoint>
            <Time>2022-07-11T10:11:16.000Z</Time>
            <Position>
              <LatitudeDegrees>43.25617857277393341064453125</LatitudeDegrees>
              <LongitudeDegrees>-2.5764114595949649810791015625</LongitudeDegrees>
            </Position>
            <AltitudeMeters>311.20001220703125</AltitudeMeters>
            <DistanceMeters>NAN</DistanceMeters>
          </Trackpoint>
          <Trackpoint>
            <Time>2022-07-11T10:11:19.000Z</Time>
            <Position>
              <LatitudeDegrees>43.25620162300765514373779296875</LatitudeDegrees>
              <LongitudeDegrees>-2.57684974931180477142333984375</LongitudeDegrees>
            </Position>
            <AltitudeMeters>310</AltitudeMeters>
            <DistanceMeters>NAN</DistanceMeters>
          </Trackpoint>
          <Trackpoint>
            <Time>2022-07-11T10:11:20.000Z</Time>
            <Position>
              <LatitudeDegrees>43.2562065683305263519287109375</LatitudeDegrees>
              <LongitudeDegrees>-2.57700380869209766387939453125</LongitudeDegrees>
            </Position>
            <AltitudeMeters>309.600006103515625</AltitudeMeters>
            <DistanceMeters>NAN</DistanceMeters>
          </Trackpoint>
          <Trackpoint>
            <Time>2022-07-11T10:11:22.000Z</Time>
            <Position>
              <LatitudeDegrees>43.256245292723178863525390625</LatitudeDegrees>
              <LongitudeDegrees>-2.57725912146270275115966796875</LongitudeDegrees>
            </Position>
            <AltitudeMeters>309.20001220703125</AltitudeMeters>
            <DistanceMeters>NAN</DistanceMeters>
          </Trackpoint>
          <Trackpoint>
            <Time>2022-07-11T10:11:23.000Z</Time>
            <Position>
              <LatitudeDegrees>43.25628644786775112152099609375</LatitudeDegrees>
              <LongitudeDegrees>-2.5773924775421619415283203125</LongitudeDegrees>
            </Position>
            <AltitudeMeters>309</AltitudeMeters>
            <DistanceMeters>NAN</DistanceMeters>
          </Trackpoint>
          <Trackpoint>
            <Time>2022-07-11T10:11:25.000Z</Time>
            <Position>
              <LatitudeDegrees>43.25639985501766204833984375</LatitudeDegrees>
              <LongitudeDegrees>-2.57767955772578716278076171875</LongitudeDegrees>
            </Position>
            <AltitudeMeters>307.79998779296875</AltitudeMeters>
            <DistanceMeters>NAN</DistanceMeters>
          </Trackpoint>
          <Trackpoint>
            <Time>2022-07-11T10:11:28.000Z</Time>
            <Position>
              <LatitudeDegrees>43.256540335714817047119140625</LatitudeDegrees>
              <LongitudeDegrees>-2.57804282940924167633056640625</LongitudeDegrees>
            </Position>
            <AltitudeMeters>306.399993896484375</AltitudeMeters>
            <DistanceMeters>NAN</DistanceMeters>
          </Trackpoint>
          <Trackpoint>
            <Time>2022-07-11T10:11:29.000Z</Time>
            <Position>
              <LatitudeDegrees>43.25659607537090778350830078125</LatitudeDegrees>
              <LongitudeDegrees>-2.5781706534326076507568359375</LongitudeDegrees>
            </Position>
            <AltitudeMeters>304.399993896484375</AltitudeMeters>
            <DistanceMeters>NAN</DistanceMeters>
          </Trackpoint>
          <Trackpoint>
            <Time>2022-07-11T10:11:30.000Z</Time>
            <Position>
              <LatitudeDegrees>43.25666933320462703704833984375</LatitudeDegrees>
              <LongitudeDegrees>-2.578317336738109588623046875</LongitudeDegrees>
            </Position>
            <AltitudeMeters>303.20001220703125</AltitudeMeters>
            <DistanceMeters>NAN</DistanceMeters>
          </Trackpoint>
          <Trackpoint>
            <Time>2022-07-11T10:11:33.000Z</Time>
            <Position>
              <LatitudeDegrees>43.2568388991057872772216796875</LatitudeDegrees>
              <LongitudeDegrees>-2.57866241969168186187744140625</LongitudeDegrees>
            </Position>
            <AltitudeMeters>302</AltitudeMeters>
            <DistanceMeters>NAN</DistanceMeters>
          </Trackpoint>
          <Trackpoint>
            <Time>2022-07-11T10:11:34.000Z</Time>
            <Position>
              <LatitudeDegrees>43.25688935816287994384765625</LatitudeDegrees>
              <LongitudeDegrees>-2.57880005054175853729248046875</LongitudeDegrees>
            </Position>
            <AltitudeMeters>302</AltitudeMeters>
            <DistanceMeters>NAN</DistanceMeters>
          </Trackpoint>
          <Trackpoint>
            <Time>2022-07-11T10:11:36.000Z</Time>
            <Position>
              <LatitudeDegrees>43.257001005113124847412109375</LatitudeDegrees>
              <LongitudeDegrees>-2.57910196669399738311767578125</LongitudeDegrees>
            </Position>
            <AltitudeMeters>301</AltitudeMeters>
            <DistanceMeters>NAN</DistanceMeters>
          </Trackpoint>
          <Trackpoint>
            <Time>2022-07-11T10:11:38.000Z</Time>
            <Position>
              <LatitudeDegrees>43.257114998996257781982421875</LatitudeDegrees>
              <LongitudeDegrees>-2.57936432026326656341552734375</LongitudeDegrees>
            </Position>
            <AltitudeMeters>299.79998779296875</AltitudeMeters>
            <DistanceMeters>NAN</DistanceMeters>
          </Trackpoint>
          <Trackpoint>
            <Time>2022-07-11T10:11:40.000Z</Time>
            <Position>
              <LatitudeDegrees>43.2572494447231292724609375</LatitudeDegrees>
              <LongitudeDegrees>-2.579610832035541534423828125</LongitudeDegrees>
            </Position>
            <AltitudeMeters>297.20001220703125</AltitudeMeters>
            <DistanceMeters>NAN</DistanceMeters>
          </Trackpoint>
          <Trackpoint>
            <Time>2022-07-11T10:11:41.000Z</Time>
            <Position>
              <LatitudeDegrees>43.257320858538150787353515625</LatitudeDegrees>
              <LongitudeDegrees>-2.579732872545719146728515625</LongitudeDegrees>
            </Position>
            <AltitudeMeters>296</AltitudeMeters>
            <DistanceMeters>NAN</DistanceMeters>
          </Trackpoint>
          <Trackpoint>
            <Time>2022-07-11T10:11:43.000Z</Time>
            <Position>
              <LatitudeDegrees>43.257456980645656585693359375</LatitudeDegrees>
              <LongitudeDegrees>-2.57997385226190090179443359375</LongitudeDegrees>
            </Position>
            <AltitudeMeters>294</AltitudeMeters>
            <DistanceMeters>NAN</DistanceMeters>
          </Trackpoint>
          <Trackpoint>
            <Time>2022-07-11T10:11:45.000Z</Time>
            <Position>
              <LatitudeDegrees>43.2575607486069202423095703125</LatitudeDegrees>
              <LongitudeDegrees>-2.58021709509193897247314453125</LongitudeDegrees>
            </Position>
            <AltitudeMeters>293.399993896484375</AltitudeMeters>
            <DistanceMeters>NAN</DistanceMeters>
          </Trackpoint>
          <Trackpoint>
            <Time>2022-07-11T10:11:47.000Z</Time>
            <Position>
              <LatitudeDegrees>43.25764800421893596649169921875</LatitudeDegrees>
              <LongitudeDegrees>-2.580464780330657958984375</LongitudeDegrees>
            </Position>
            <AltitudeMeters>292.79998779296875</AltitudeMeters>
            <DistanceMeters>NAN</DistanceMeters>
          </Trackpoint>
          <Trackpoint>
            <Time>2022-07-11T10:11:49.000Z</Time>
            <Position>
              <LatitudeDegrees>43.25778379105031490325927734375</LatitudeDegrees>
              <LongitudeDegrees>-2.58067960850894451141357421875</LongitudeDegrees>
            </Position>
            <AltitudeMeters>291.399993896484375</AltitudeMeters>
            <DistanceMeters>NAN</DistanceMeters>
          </Trackpoint>
          <Trackpoint>
            <Time>2022-07-11T10:11:51.000Z</Time>
            <Position>
              <LatitudeDegrees>43.257932402193546295166015625</LatitudeDegrees>
              <LongitudeDegrees>-2.5808780081570148468017578125</LongitudeDegrees>
            </Position>
            <AltitudeMeters>290.20001220703125</AltitudeMeters>
            <DistanceMeters>NAN</DistanceMeters>
          </Trackpoint>
          <Trackpoint>
            <Time>2022-07-11T10:11:54.000Z</Time>
            <Position>
              <LatitudeDegrees>43.25812677852809429168701171875</LatitudeDegrees>
              <LongitudeDegrees>-2.58117757737636566162109375</LongitudeDegrees>
            </Position>
            <AltitudeMeters>288.600006103515625</AltitudeMeters>
            <DistanceMeters>NAN</DistanceMeters>
          </Trackpoint>
          <Trackpoint>
            <Time>2022-07-11T10:11:55.000Z</Time>
            <Position>
              <LatitudeDegrees>43.25819819234311580657958984375</LatitudeDegrees>
              <LongitudeDegrees>-2.58131839334964752197265625</LongitudeDegrees>
            </Position>
            <AltitudeMeters>288</AltitudeMeters>
            <DistanceMeters>NAN</DistanceMeters>
          </Trackpoint>
          <Trackpoint>
            <Time>2022-07-11T10:11:57.000Z</Time>
            <Position>
              <LatitudeDegrees>43.25831822119653224945068359375</LatitudeDegrees>
              <LongitudeDegrees>-2.58154864422976970672607421875</LongitudeDegrees>
            </Position>
            <AltitudeMeters>287.399993896484375</AltitudeMeters>
            <DistanceMeters>NAN</DistanceMeters>
          </Trackpoint>
          <Trackpoint>
            <Time>2022-07-11T10:12:00.000Z</Time>
            <Position>
              <LatitudeDegrees>43.25851083733141422271728515625</LatitudeDegrees>
              <LongitudeDegrees>-2.58186749182641506195068359375</LongitudeDegrees>
            </Position>
            <AltitudeMeters>286.20001220703125</AltitudeMeters>
            <DistanceMeters>NAN</DistanceMeters>
          </Trackpoint>
          <Trackpoint>
            <Time>2022-07-11T10:12:01.000Z</Time>
            <Position>
              <LatitudeDegrees>43.25858007185161113739013671875</LatitudeDegrees>
              <LongitudeDegrees>-2.5819689966738224029541015625</LongitudeDegrees>
            </Position>
            <AltitudeMeters>285.600006103515625</AltitudeMeters>
            <DistanceMeters>NAN</DistanceMeters>
          </Trackpoint>
          <Trackpoint>
            <Time>2022-07-11T10:12:02.000Z</Time>
            <Position>
              <LatitudeDegrees>43.25865500606596469879150390625</LatitudeDegrees>
              <LongitudeDegrees>-2.5820645503699779510498046875</LongitudeDegrees>
            </Position>
            <AltitudeMeters>284.79998779296875</AltitudeMeters>
            <DistanceMeters>NAN</DistanceMeters>
          </Trackpoint>
          <Trackpoint>
            <Time>2022-07-11T10:12:04.000Z</Time>
            <Position>
              <LatitudeDegrees>43.25879213400185108184814453125</LatitudeDegrees>
              <LongitudeDegrees>-2.58223302662372589111328125</LongitudeDegrees>
            </Position>
            <AltitudeMeters>283.20001220703125</AltitudeMeters>
            <DistanceMeters>NAN</DistanceMeters>
          </Trackpoint>
          <Trackpoint>
            <Time>2022-07-11T10:12:06.000Z</Time>
            <Position>
              <LatitudeDegrees>43.25895273126661777496337890625</LatitudeDegrees>
              <LongitudeDegrees>-2.58240862749516963958740234375</LongitudeDegrees>
            </Position>
            <AltitudeMeters>281.600006103515625</AltitudeMeters>
            <DistanceMeters>NAN</DistanceMeters>
          </Trackpoint>
          <Trackpoint>
            <Time>2022-07-11T10:12:07.000Z</Time>
            <Position>
              <LatitudeDegrees>43.2590413279831409454345703125</LatitudeDegrees>
              <LongitudeDegrees>-2.58247970603406429290771484375</LongitudeDegrees>
            </Position>
            <AltitudeMeters>281.20001220703125</AltitudeMeters>
            <DistanceMeters>NAN</DistanceMeters>
          </Trackpoint>
          <Trackpoint>
            <Time>2022-07-11T10:12:08.000Z</Time>
            <Position>
              <LatitudeDegrees>43.25913436710834503173828125</LatitudeDegrees>
              <LongitudeDegrees>-2.58253066800534725189208984375</LongitudeDegrees>
            </Position>
            <AltitudeMeters>281</AltitudeMeters>
            <DistanceMeters>NAN</DistanceMeters>
          </Trackpoint>
          <Trackpoint>
            <Time>2022-07-11T10:12:09.000Z</Time>
            <Position>
              <LatitudeDegrees>43.25922799296677112579345703125</LatitudeDegrees>
              <LongitudeDegrees>-2.582558579742908477783203125</LongitudeDegrees>
            </Position>
            <AltitudeMeters>280.20001220703125</AltitudeMeters>
            <DistanceMeters>NAN</DistanceMeters>
          </Trackpoint>
          <Trackpoint>
            <Time>2022-07-11T10:12:10.000Z</Time>
            <Position>
              <LatitudeDegrees>43.25931399129331111907958984375</LatitudeDegrees>
              <LongitudeDegrees>-2.58254592306911945343017578125</LongitudeDegrees>
            </Position>
            <AltitudeMeters>279.600006103515625</AltitudeMeters>
            <DistanceMeters>NAN</DistanceMeters>
          </Trackpoint>
          <Trackpoint>
            <Time>2022-07-11T10:12:11.000Z</Time>
            <Position>
              <LatitudeDegrees>43.2594054378569126129150390625</LatitudeDegrees>
              <LongitudeDegrees>-2.58248724974691867828369140625</LongitudeDegrees>
            </Position>
            <AltitudeMeters>278.79998779296875</AltitudeMeters>
            <DistanceMeters>NAN</DistanceMeters>
          </Trackpoint>
          <Trackpoint>
            <Time>2022-07-11T10:12:12.000Z</Time>
            <Position>
              <LatitudeDegrees>43.2594751752912998199462890625</LatitudeDegrees>
              <LongitudeDegrees>-2.58241407573223114013671875</LongitudeDegrees>
            </Position>
            <AltitudeMeters>278.20001220703125</AltitudeMeters>
            <DistanceMeters>NAN</DistanceMeters>
          </Trackpoint>
          <Trackpoint>
            <Time>2022-07-11T10:12:13.000Z</Time>
            <Position>
              <LatitudeDegrees>43.25954684056341648101806640625</LatitudeDegrees>
              <LongitudeDegrees>-2.58235163055360317230224609375</LongitudeDegrees>
            </Position>
            <AltitudeMeters>277.20001220703125</AltitudeMeters>
            <DistanceMeters>NAN</DistanceMeters>
          </Trackpoint>
          <Trackpoint>
            <Time>2022-07-11T10:12:15.000Z</Time>
            <Position>
              <LatitudeDegrees>43.25967173092067241668701171875</LatitudeDegrees>
              <LongitudeDegrees>-2.58234023116528987884521484375</LongitudeDegrees>
            </Position>
            <AltitudeMeters>275.79998779296875</AltitudeMeters>
            <DistanceMeters>NAN</DistanceMeters>
          </Trackpoint>
          <Trackpoint>
            <Time>2022-07-11T10:12:17.000Z</Time>
            <Position>
              <LatitudeDegrees>43.2597759179770946502685546875</LatitudeDegrees>
              <LongitudeDegrees>-2.5824831426143646240234375</LongitudeDegrees>
            </Position>
            <AltitudeMeters>275</AltitudeMeters>
            <DistanceMeters>NAN</DistanceMeters>
          </Trackpoint>
          <Trackpoint>
            <Time>2022-07-11T10:12:19.000Z</Time>
            <Position>
              <LatitudeDegrees>43.25985160656273365020751953125</LatitudeDegrees>
              <LongitudeDegrees>-2.58267022669315338134765625</LongitudeDegrees>
            </Position>
            <AltitudeMeters>274.399993896484375</AltitudeMeters>
            <DistanceMeters>NAN</DistanceMeters>
          </Trackpoint>
          <Trackpoint>
            <Time>2022-07-11T10:12:22.000Z</Time>
            <Position>
              <LatitudeDegrees>43.25994850136339664459228515625</LatitudeDegrees>
              <LongitudeDegrees>-2.58299184031784534454345703125</LongitudeDegrees>
            </Position>
            <AltitudeMeters>273</AltitudeMeters>
            <DistanceMeters>NAN</DistanceMeters>
          </Trackpoint>
          <Trackpoint>
            <Time>2022-07-11T10:12:24.000Z</Time>
            <Position>
              <LatitudeDegrees>43.25996509753167629241943359375</LatitudeDegrees>
              <LongitudeDegrees>-2.583209015429019927978515625</LongitudeDegrees>
            </Position>
            <AltitudeMeters>272.20001220703125</AltitudeMeters>
            <DistanceMeters>NAN</DistanceMeters>
          </Trackpoint>
          <Trackpoint>
            <Time>2022-07-11T10:12:25.000Z</Time>
            <Position>
              <LatitudeDegrees>43.259960822761058807373046875</LatitudeDegrees>
              <LongitudeDegrees>-2.5833352468907833099365234375</LongitudeDegrees>
            </Position>
            <AltitudeMeters>271.79998779296875</AltitudeMeters>
            <DistanceMeters>NAN</DistanceMeters>
          </Trackpoint>
          <Trackpoint>
            <Time>2022-07-11T10:12:26.000Z</Time>
            <Position>
              <LatitudeDegrees>43.25996258296072483062744140625</LatitudeDegrees>
              <LongitudeDegrees>-2.58349634706974029541015625</LongitudeDegrees>
            </Position>
            <AltitudeMeters>271.399993896484375</AltitudeMeters>
            <DistanceMeters>NAN</DistanceMeters>
          </Trackpoint>
          <Trackpoint>
            <Time>2022-07-11T10:12:28.000Z</Time>
            <Position>
              <LatitudeDegrees>43.25999644584953784942626953125</LatitudeDegrees>
              <LongitudeDegrees>-2.58376347832381725311279296875</LongitudeDegrees>
            </Position>
            <AltitudeMeters>270.600006103515625</AltitudeMeters>
            <DistanceMeters>NAN</DistanceMeters>
          </Trackpoint>
          <Trackpoint>
            <Time>2022-07-11T10:12:30.000Z</Time>
            <Position>
              <LatitudeDegrees>43.26008227653801441192626953125</LatitudeDegrees>
              <LongitudeDegrees>-2.58402365259826183319091796875</LongitudeDegrees>
            </Position>
            <AltitudeMeters>269.399993896484375</AltitudeMeters>
            <DistanceMeters>NAN</DistanceMeters>
          </Trackpoint>
          <Trackpoint>
            <Time>2022-07-11T10:12:32.000Z</Time>
            <Position>
              <LatitudeDegrees>43.26016626320779323577880859375</LatitudeDegrees>
              <LongitudeDegrees>-2.584286592900753021240234375</LongitudeDegrees>
            </Position>
            <AltitudeMeters>268.20001220703125</AltitudeMeters>
            <DistanceMeters>NAN</DistanceMeters>
          </Trackpoint>
          <Trackpoint>
            <Time>2022-07-11T10:12:36.000Z</Time>
            <Position>
              <LatitudeDegrees>43.26033188961446285247802734375</LatitudeDegrees>
              <LongitudeDegrees>-2.5848014093935489654541015625</LongitudeDegrees>
            </Position>
            <AltitudeMeters>266.399993896484375</AltitudeMeters>
            <DistanceMeters>NAN</DistanceMeters>
          </Trackpoint>
          <Trackpoint>
            <Time>2022-07-11T10:12:37.000Z</Time>
            <Position>
              <LatitudeDegrees>43.26036239974200725555419921875</LatitudeDegrees>
              <LongitudeDegrees>-2.58492671884596347808837890625</LongitudeDegrees>
            </Position>
            <AltitudeMeters>265.600006103515625</AltitudeMeters>
            <DistanceMeters>NAN</DistanceMeters>
          </Trackpoint>
          <Trackpoint>
            <Time>2022-07-11T10:12:38.000Z</Time>
            <Position>
              <LatitudeDegrees>43.26037631370127201080322265625</LatitudeDegrees>
              <LongitudeDegrees>-2.5850475020706653594970703125</LongitudeDegrees>
            </Position>
            <AltitudeMeters>264.600006103515625</AltitudeMeters>
            <DistanceMeters>NAN</DistanceMeters>
          </Trackpoint>
          <Trackpoint>
            <Time>2022-07-11T10:12:39.000Z</Time>
            <Position>
              <LatitudeDegrees>43.260367847979068756103515625</LatitudeDegrees>
              <LongitudeDegrees>-2.585158981382846832275390625</LongitudeDegrees>
            </Position>
            <AltitudeMeters>263.399993896484375</AltitudeMeters>
            <DistanceMeters>NAN</DistanceMeters>
          </Trackpoint>
          <Trackpoint>
            <Time>2022-07-11T10:12:40.000Z</Time>
            <Position>
              <LatitudeDegrees>43.2603261061012744903564453125</LatitudeDegrees>
              <LongitudeDegrees>-2.5852592289447784423828125</LongitudeDegrees>
            </Position>
            <AltitudeMeters>262.399993896484375</AltitudeMeters>
            <DistanceMeters>NAN</DistanceMeters>
          </Trackpoint>
          <Trackpoint>
            <Time>2022-07-11T10:12:41.000Z</Time>
            <Position>
              <LatitudeDegrees>43.26026550494134426116943359375</LatitudeDegrees>
              <LongitudeDegrees>-2.58533307351171970367431640625</LongitudeDegrees>
            </Position>
            <AltitudeMeters>261.79998779296875</AltitudeMeters>
            <DistanceMeters>NAN</DistanceMeters>
          </Trackpoint>
          <Trackpoint>
            <Time>2022-07-11T10:12:42.000Z</Time>
            <Position>
              <LatitudeDegrees>43.26018654741346836090087890625</LatitudeDegrees>
              <LongitudeDegrees>-2.58538856171071529388427734375</LongitudeDegrees>
            </Position>
            <AltitudeMeters>261</AltitudeMeters>
            <DistanceMeters>NAN</DistanceMeters>
          </Trackpoint>
          <Trackpoint>
            <Time>2022-07-11T10:12:43.000Z</Time>
            <Position>
              <LatitudeDegrees>43.26010138727724552154541015625</LatitudeDegrees>
              <LongitudeDegrees>-2.5854424573481082916259765625</LongitudeDegrees>
            </Position>
            <AltitudeMeters>260.399993896484375</AltitudeMeters>
            <DistanceMeters>NAN</DistanceMeters>
          </Trackpoint>
          <Trackpoint>
            <Time>2022-07-11T10:12:45.000Z</Time>
            <Position>
              <LatitudeDegrees>43.25996853411197662353515625</LatitudeDegrees>
              <LongitudeDegrees>-2.58560816757380962371826171875</LongitudeDegrees>
            </Position>
            <AltitudeMeters>259.600006103515625</AltitudeMeters>
            <DistanceMeters>NAN</DistanceMeters>
          </Trackpoint>
          <Trackpoint>
            <Time>2022-07-11T10:12:47.000Z</Time>
            <Position>
              <LatitudeDegrees>43.25990374200046062469482421875</LatitudeDegrees>
              <LongitudeDegrees>-2.5858575291931629180908203125</LongitudeDegrees>
            </Position>
            <AltitudeMeters>258.79998779296875</AltitudeMeters>
            <DistanceMeters>NAN</DistanceMeters>
          </Trackpoint>
          <Trackpoint>
            <Time>2022-07-11T10:12:48.000Z</Time>
            <Position>
              <LatitudeDegrees>43.25990893878042697906494140625</LatitudeDegrees>
              <LongitudeDegrees>-2.58598065935075283050537109375</LongitudeDegrees>
            </Position>
            <AltitudeMeters>257.600006103515625</AltitudeMeters>
            <DistanceMeters>NAN</DistanceMeters>
          </Trackpoint>
          <Trackpoint>
            <Time>2022-07-11T10:12:50.000Z</Time>
            <Position>
              <LatitudeDegrees>43.25995872728526592254638671875</LatitudeDegrees>
              <LongitudeDegrees>-2.5862286798655986785888671875</LongitudeDegrees>
            </Position>
            <AltitudeMeters>255.600006103515625</AltitudeMeters>
            <DistanceMeters>NAN</DistanceMeters>
          </Trackpoint>
          <Trackpoint>
            <Time>2022-07-11T10:12:52.000Z</Time>
            <Position>
              <LatitudeDegrees>43.26005059294402599334716796875</LatitudeDegrees>
              <LongitudeDegrees>-2.58645080029964447021484375</LongitudeDegrees>
            </Position>
            <AltitudeMeters>253.8000030517578125</AltitudeMeters>
            <DistanceMeters>NAN</DistanceMeters>
          </Trackpoint>
          <Trackpoint>
            <Time>2022-07-11T10:12:53.000Z</Time>
            <Position>
              <LatitudeDegrees>43.26011513359844684600830078125</LatitudeDegrees>
              <LongitudeDegrees>-2.586551718413829803466796875</LongitudeDegrees>
            </Position>
            <AltitudeMeters>253.1999969482421875</AltitudeMeters>
            <DistanceMeters>NAN</DistanceMeters>
          </Trackpoint>
          <Trackpoint>
            <Time>2022-07-11T10:12:54.000Z</Time>
            <Position>
              <LatitudeDegrees>43.26019593514502048492431640625</LatitudeDegrees>
              <LongitudeDegrees>-2.5866191089153289794921875</LongitudeDegrees>
            </Position>
            <AltitudeMeters>252.8000030517578125</AltitudeMeters>
            <DistanceMeters>NAN</DistanceMeters>
          </Trackpoint>
          <Trackpoint>
            <Time>2022-07-11T10:12:55.000Z</Time>
            <Position>
              <LatitudeDegrees>43.26026684604585170745849609375</LatitudeDegrees>
              <LongitudeDegrees>-2.58664819411933422088623046875</LongitudeDegrees>
            </Position>
            <AltitudeMeters>252.399993896484375</AltitudeMeters>
            <DistanceMeters>NAN</DistanceMeters>
          </Trackpoint>
          <Trackpoint>
            <Time>2022-07-11T10:12:57.000Z</Time>
            <Position>
              <LatitudeDegrees>43.26047102920711040496826171875</LatitudeDegrees>
              <LongitudeDegrees>-2.58670804090797901153564453125</LongitudeDegrees>
            </Position>
            <AltitudeMeters>251.399993896484375</AltitudeMeters>
            <DistanceMeters>NAN</DistanceMeters>
          </Trackpoint>
          <Trackpoint>
            <Time>2022-07-11T10:12:58.000Z</Time>
            <Position>
              <LatitudeDegrees>43.26056021265685558319091796875</LatitudeDegrees>
              <LongitudeDegrees>-2.58675565011799335479736328125</LongitudeDegrees>
            </Position>
            <AltitudeMeters>250.600006103515625</AltitudeMeters>
            <DistanceMeters>NAN</DistanceMeters>
          </Trackpoint>
          <Trackpoint>
            <Time>2022-07-11T10:12:59.000Z</Time>
            <Position>
              <LatitudeDegrees>43.26061754487454891204833984375</LatitudeDegrees>
              <LongitudeDegrees>-2.58681532926857471466064453125</LongitudeDegrees>
            </Position>
            <AltitudeMeters>250.1999969482421875</AltitudeMeters>
            <DistanceMeters>NAN</DistanceMeters>
          </Trackpoint>
          <Trackpoint>
            <Time>2022-07-11T10:13:00.000Z</Time>
            <Position>
              <LatitudeDegrees>43.26067755930125713348388671875</LatitudeDegrees>
              <LongitudeDegrees>-2.5869102962315082550048828125</LongitudeDegrees>
            </Position>
            <AltitudeMeters>249.600006103515625</AltitudeMeters>
            <DistanceMeters>NAN</DistanceMeters>
          </Trackpoint>
          <Trackpoint>
            <Time>2022-07-11T10:13:01.000Z</Time>
            <Position>
              <LatitudeDegrees>43.26073640026152133941650390625</LatitudeDegrees>
              <LongitudeDegrees>-2.58704599924385547637939453125</LongitudeDegrees>
            </Position>
            <AltitudeMeters>249</AltitudeMeters>
            <DistanceMeters>NAN</DistanceMeters>
          </Trackpoint>
          <Trackpoint>
            <Time>2022-07-11T10:13:02.000Z</Time>
            <Position>
              <LatitudeDegrees>43.2607633061707019805908203125</LatitudeDegrees>
              <LongitudeDegrees>-2.58717390708625316619873046875</LongitudeDegrees>
            </Position>
            <AltitudeMeters>248.600006103515625</AltitudeMeters>
            <DistanceMeters>NAN</DistanceMeters>
          </Trackpoint>
          <Trackpoint>
            <Time>2022-07-11T10:13:03.000Z</Time>
            <Position>
              <LatitudeDegrees>43.260768838226795196533203125</LatitudeDegrees>
              <LongitudeDegrees>-2.58730164729058742523193359375</LongitudeDegrees>
            </Position>
            <AltitudeMeters>247.8000030517578125</AltitudeMeters>
            <DistanceMeters>NAN</DistanceMeters>
          </Trackpoint>
          <Trackpoint>
            <Time>2022-07-11T10:13:04.000Z</Time>
            <Position>
              <LatitudeDegrees>43.26074662618339061737060546875</LatitudeDegrees>
              <LongitudeDegrees>-2.58742310106754302978515625</LongitudeDegrees>
            </Position>
            <AltitudeMeters>247</AltitudeMeters>
            <DistanceMeters>NAN</DistanceMeters>
          </Trackpoint>
          <Trackpoint>
            <Time>2022-07-11T10:13:05.000Z</Time>
            <Position>
              <LatitudeDegrees>43.26069717295467853546142578125</LatitudeDegrees>
              <LongitudeDegrees>-2.587530054152011871337890625</LongitudeDegrees>
            </Position>
            <AltitudeMeters>246.399993896484375</AltitudeMeters>
            <DistanceMeters>NAN</DistanceMeters>
          </Trackpoint>
          <Trackpoint>
            <Time>2022-07-11T10:13:06.000Z</Time>
            <Position>
              <LatitudeDegrees>43.2606288604438304901123046875</LatitudeDegrees>
              <LongitudeDegrees>-2.58763005025684833526611328125</LongitudeDegrees>
            </Position>
            <AltitudeMeters>246</AltitudeMeters>
            <DistanceMeters>NAN</DistanceMeters>
          </Trackpoint>
          <Trackpoint>
            <Time>2022-07-11T10:13:08.000Z</Time>
            <Position>
              <LatitudeDegrees>43.26049625873565673828125</LatitudeDegrees>
              <LongitudeDegrees>-2.58782283402979373931884765625</LongitudeDegrees>
            </Position>
            <AltitudeMeters>245.600006103515625</AltitudeMeters>
            <DistanceMeters>NAN</DistanceMeters>
          </Trackpoint>
          <Trackpoint>
            <Time>2022-07-11T10:13:09.000Z</Time>
            <Position>
              <LatitudeDegrees>43.260438255965709686279296875</LatitudeDegrees>
              <LongitudeDegrees>-2.5879315473139286041259765625</LongitudeDegrees>
            </Position>
            <AltitudeMeters>245.600006103515625</AltitudeMeters>
            <DistanceMeters>NAN</DistanceMeters>
          </Trackpoint>
          <Trackpoint>
            <Time>2022-07-11T10:13:10.000Z</Time>
            <Position>
              <LatitudeDegrees>43.2604065723717212677001953125</LatitudeDegrees>
              <LongitudeDegrees>-2.58805467747151851654052734375</LongitudeDegrees>
            </Position>
            <AltitudeMeters>244.8000030517578125</AltitudeMeters>
            <DistanceMeters>NAN</DistanceMeters>
          </Trackpoint>
          <Trackpoint>
            <Time>2022-07-11T10:13:11.000Z</Time>
            <Position>
              <LatitudeDegrees>43.26039978303015232086181640625</LatitudeDegrees>
              <LongitudeDegrees>-2.58817948400974273681640625</LongitudeDegrees>
            </Position>
            <AltitudeMeters>243.600006103515625</AltitudeMeters>
            <DistanceMeters>NAN</DistanceMeters>
          </Trackpoint>
          <Trackpoint>
            <Time>2022-07-11T10:13:12.000Z</Time>
            <Position>
              <LatitudeDegrees>43.26042040251195430755615234375</LatitudeDegrees>
              <LongitudeDegrees>-2.58829138241708278656005859375</LongitudeDegrees>
            </Position>
            <AltitudeMeters>243</AltitudeMeters>
            <DistanceMeters>NAN</DistanceMeters>
          </Trackpoint>
          <Trackpoint>
            <Time>2022-07-11T10:13:13.000Z</Time>
            <Position>
              <LatitudeDegrees>43.26046164147555828094482421875</LatitudeDegrees>
              <LongitudeDegrees>-2.5883898697793483734130859375</LongitudeDegrees>
            </Position>
            <AltitudeMeters>242.399993896484375</AltitudeMeters>
            <DistanceMeters>NAN</DistanceMeters>
          </Trackpoint>
          <Trackpoint>
            <Time>2022-07-11T10:13:15.000Z</Time>
            <Position>
              <LatitudeDegrees>43.26054059900343418121337890625</LatitudeDegrees>
              <LongitudeDegrees>-2.5885699130594730377197265625</LongitudeDegrees>
            </Position>
            <AltitudeMeters>241.399993896484375</AltitudeMeters>
            <DistanceMeters>NAN</DistanceMeters>
          </Trackpoint>
          <Trackpoint>
            <Time>2022-07-11T10:13:16.000Z</Time>
            <Position>
              <LatitudeDegrees>43.26057680882513523101806640625</LatitudeDegrees>
              <LongitudeDegrees>-2.5887026824057102203369140625</LongitudeDegrees>
            </Position>
            <AltitudeMeters>241</AltitudeMeters>
            <DistanceMeters>NAN</DistanceMeters>
          </Trackpoint>
          <Trackpoint>
            <Time>2022-07-11T10:13:17.000Z</Time>
            <Position>
              <LatitudeDegrees>43.2605976797640323638916015625</LatitudeDegrees>
              <LongitudeDegrees>-2.58881575427949428558349609375</LongitudeDegrees>
            </Position>
            <AltitudeMeters>240.399993896484375</AltitudeMeters>
            <DistanceMeters>NAN</DistanceMeters>
          </Trackpoint>
          <Trackpoint>
            <Time>2022-07-11T10:13:18.000Z</Time>
            <Position>
              <LatitudeDegrees>43.260619305074214935302734375</LatitudeDegrees>
              <LongitudeDegrees>-2.588932178914546966552734375</LongitudeDegrees>
            </Position>
            <AltitudeMeters>240</AltitudeMeters>
            <DistanceMeters>NAN</DistanceMeters>
          </Trackpoint>
          <Trackpoint>
            <Time>2022-07-11T10:13:20.000Z</Time>
            <Position>
              <LatitudeDegrees>43.26068107970058917999267578125</LatitudeDegrees>
              <LongitudeDegrees>-2.5891532935202121734619140625</LongitudeDegrees>
            </Position>
            <AltitudeMeters>238.8000030517578125</AltitudeMeters>
            <DistanceMeters>NAN</DistanceMeters>
          </Trackpoint>
          <Trackpoint>
            <Time>2022-07-11T10:13:21.000Z</Time>
            <Position>
              <LatitudeDegrees>43.2607321254909038543701171875</LatitudeDegrees>
              <LongitudeDegrees>-2.5892521999776363372802734375</LongitudeDegrees>
            </Position>
            <AltitudeMeters>238.1999969482421875</AltitudeMeters>
            <DistanceMeters>NAN</DistanceMeters>
          </Trackpoint>
          <Trackpoint>
            <Time>2022-07-11T10:13:22.000Z</Time>
            <Position>
              <LatitudeDegrees>43.26079775579273700714111328125</LatitudeDegrees>
              <LongitudeDegrees>-2.5893430598080158233642578125</LongitudeDegrees>
            </Position>
            <AltitudeMeters>237.600006103515625</AltitudeMeters>
            <DistanceMeters>NAN</DistanceMeters>
          </Trackpoint>
          <Trackpoint>
            <Time>2022-07-11T10:13:24.000Z</Time>
            <Position>
              <LatitudeDegrees>43.260969333350658416748046875</LatitudeDegrees>
              <LongitudeDegrees>-2.5894684530794620513916015625</LongitudeDegrees>
            </Position>
            <AltitudeMeters>235.8000030517578125</AltitudeMeters>
            <DistanceMeters>NAN</DistanceMeters>
          </Trackpoint>
          <Trackpoint>
            <Time>2022-07-11T10:13:25.000Z</Time>
            <Position>
              <LatitudeDegrees>43.261072933673858642578125</LatitudeDegrees>
              <LongitudeDegrees>-2.58949510753154754638671875</LongitudeDegrees>
            </Position>
            <AltitudeMeters>234.8000030517578125</AltitudeMeters>
            <DistanceMeters>NAN</DistanceMeters>
          </Trackpoint>
          <Trackpoint>
            <Time>2022-07-11T10:13:26.000Z</Time>
            <Position>
              <LatitudeDegrees>43.26118164695799350738525390625</LatitudeDegrees>
              <LongitudeDegrees>-2.58949435316026210784912109375</LongitudeDegrees>
            </Position>
            <AltitudeMeters>233.8000030517578125</AltitudeMeters>
            <DistanceMeters>NAN</DistanceMeters>
          </Trackpoint>
          <Trackpoint>
            <Time>2022-07-11T10:13:27.000Z</Time>
            <Position>
              <LatitudeDegrees>43.26129513792693614959716796875</LatitudeDegrees>
              <LongitudeDegrees>-2.58946828544139862060546875</LongitudeDegrees>
            </Position>
            <AltitudeMeters>232.8000030517578125</AltitudeMeters>
            <DistanceMeters>NAN</DistanceMeters>
          </Trackpoint>
          <Trackpoint>
            <Time>2022-07-11T10:13:28.000Z</Time>
            <Position>
              <LatitudeDegrees>43.26140619814395904541015625</LatitudeDegrees>
              <LongitudeDegrees>-2.58943635039031505584716796875</LongitudeDegrees>
            </Position>
            <AltitudeMeters>231.8000030517578125</AltitudeMeters>
            <DistanceMeters>NAN</DistanceMeters>
          </Trackpoint>
          <Trackpoint>
            <Time>2022-07-11T10:13:29.000Z</Time>
            <Position>
              <LatitudeDegrees>43.261519186198711395263671875</LatitudeDegrees>
              <LongitudeDegrees>-2.58941061794757843017578125</LongitudeDegrees>
            </Position>
            <AltitudeMeters>230.600006103515625</AltitudeMeters>
            <DistanceMeters>NAN</DistanceMeters>
          </Trackpoint>
          <Trackpoint>
            <Time>2022-07-11T10:13:30.000Z</Time>
            <Position>
              <LatitudeDegrees>43.26163460500538349151611328125</LatitudeDegrees>
              <LongitudeDegrees>-2.589404582977294921875</LongitudeDegrees>
            </Position>
            <AltitudeMeters>229.8000030517578125</AltitudeMeters>
            <DistanceMeters>NAN</DistanceMeters>
          </Trackpoint>
          <Trackpoint>
            <Time>2022-07-11T10:13:31.000Z</Time>
            <Position>
              <LatitudeDegrees>43.261748515069484710693359375</LatitudeDegrees>
              <LongitudeDegrees>-2.5894298963248729705810546875</LongitudeDegrees>
            </Position>
            <AltitudeMeters>229.1999969482421875</AltitudeMeters>
            <DistanceMeters>NAN</DistanceMeters>
          </Trackpoint>
          <Trackpoint>
            <Time>2022-07-11T10:13:32.000Z</Time>
            <Position>
              <LatitudeDegrees>43.26185404323041439056396484375</LatitudeDegrees>
              <LongitudeDegrees>-2.5894791819155216217041015625</LongitudeDegrees>
            </Position>
            <AltitudeMeters>227.8000030517578125</AltitudeMeters>
            <DistanceMeters>NAN</DistanceMeters>
          </Trackpoint>
          <Trackpoint>
            <Time>2022-07-11T10:13:33.000Z</Time>
            <Position>
              <LatitudeDegrees>43.261952698230743408203125</LatitudeDegrees>
              <LongitudeDegrees>-2.58954917080700397491455078125</LongitudeDegrees>
            </Position>
            <AltitudeMeters>226.8000030517578125</AltitudeMeters>
            <DistanceMeters>NAN</DistanceMeters>
          </Trackpoint>
          <Trackpoint>
            <Time>2022-07-11T10:13:34.000Z</Time>
            <Position>
              <LatitudeDegrees>43.262049257755279541015625</LatitudeDegrees>
              <LongitudeDegrees>-2.58963097818195819854736328125</LongitudeDegrees>
            </Position>
            <AltitudeMeters>226.1999969482421875</AltitudeMeters>
            <DistanceMeters>NAN</DistanceMeters>
          </Trackpoint>
          <Trackpoint>
            <Time>2022-07-11T10:13:35.000Z</Time>
            <Position>
              <LatitudeDegrees>43.2621443085372447967529296875</LatitudeDegrees>
              <LongitudeDegrees>-2.58971898816525936126708984375</LongitudeDegrees>
            </Position>
            <AltitudeMeters>225.600006103515625</AltitudeMeters>
            <DistanceMeters>NAN</DistanceMeters>
          </Trackpoint>
          <Trackpoint>
            <Time>2022-07-11T10:13:37.000Z</Time>
            <Position>
              <LatitudeDegrees>43.26233264990150928497314453125</LatitudeDegrees>
              <LongitudeDegrees>-2.589901797473430633544921875</LongitudeDegrees>
            </Position>
            <AltitudeMeters>224.1999969482421875</AltitudeMeters>
            <DistanceMeters>NAN</DistanceMeters>
          </Trackpoint>
          <Trackpoint>
            <Time>2022-07-11T10:13:39.000Z</Time>
            <Position>
              <LatitudeDegrees>43.26250112615525722503662109375</LatitudeDegrees>
              <LongitudeDegrees>-2.59010572917759418487548828125</LongitudeDegrees>
            </Position>
            <AltitudeMeters>223</AltitudeMeters>
            <DistanceMeters>NAN</DistanceMeters>
          </Trackpoint>
          <Trackpoint>
            <Time>2022-07-11T10:13:41.000Z</Time>
            <Position>
              <LatitudeDegrees>43.2626442052423954010009765625</LatitudeDegrees>
              <LongitudeDegrees>-2.59033807553350925445556640625</LongitudeDegrees>
            </Position>
            <AltitudeMeters>221.600006103515625</AltitudeMeters>
            <DistanceMeters>NAN</DistanceMeters>
          </Trackpoint>
          <Trackpoint>
            <Time>2022-07-11T10:13:43.000Z</Time>
            <Position>
              <LatitudeDegrees>43.2627706043422222137451171875</LatitudeDegrees>
              <LongitudeDegrees>-2.5905933044850826263427734375</LongitudeDegrees>
            </Position>
            <AltitudeMeters>220.1999969482421875</AltitudeMeters>
            <DistanceMeters>NAN</DistanceMeters>
          </Trackpoint>
          <Trackpoint>
            <Time>2022-07-11T10:13:44.000Z</Time>
            <Position>
              <LatitudeDegrees>43.2628312893211841583251953125</LatitudeDegrees>
              <LongitudeDegrees>-2.590720541775226593017578125</LongitudeDegrees>
            </Position>
            <AltitudeMeters>219.600006103515625</AltitudeMeters>
            <DistanceMeters>NAN</DistanceMeters>
          </Trackpoint>
          <Trackpoint>
            <Time>2022-07-11T10:13:46.000Z</Time>
            <Position>
              <LatitudeDegrees>43.26293279416859149932861328125</LatitudeDegrees>
              <LongitudeDegrees>-2.5909929536283016204833984375</LongitudeDegrees>
            </Position>
            <AltitudeMeters>218.600006103515625</AltitudeMeters>
            <DistanceMeters>NAN</DistanceMeters>
          </Trackpoint>
          <Trackpoint>
            <Time>2022-07-11T10:13:47.000Z</Time>
            <Position>
              <LatitudeDegrees>43.26296933926641941070556640625</LatitudeDegrees>
              <LongitudeDegrees>-2.59114173240959644317626953125</LongitudeDegrees>
            </Position>
            <AltitudeMeters>217.8000030517578125</AltitudeMeters>
            <DistanceMeters>NAN</DistanceMeters>
          </Trackpoint>
          <Trackpoint>
            <Time>2022-07-11T10:13:48.000Z</Time>
            <Position>
              <LatitudeDegrees>43.26300420798361301422119140625</LatitudeDegrees>
              <LongitudeDegrees>-2.5912843085825443267822265625</LongitudeDegrees>
            </Position>
            <AltitudeMeters>217.1999969482421875</AltitudeMeters>
            <DistanceMeters>NAN</DistanceMeters>
          </Trackpoint>
          <Trackpoint>
            <Time>2022-07-11T10:13:49.000Z</Time>
            <Position>
              <LatitudeDegrees>43.26304645277559757232666015625</LatitudeDegrees>
              <LongitudeDegrees>-2.59141691029071807861328125</LongitudeDegrees>
            </Position>
            <AltitudeMeters>216.8000030517578125</AltitudeMeters>
            <DistanceMeters>NAN</DistanceMeters>
          </Trackpoint>
          <Trackpoint>
            <Time>2022-07-11T10:13:50.000Z</Time>
            <Position>
              <LatitudeDegrees>43.2630944810807704925537109375</LatitudeDegrees>
              <LongitudeDegrees>-2.59154054336249828338623046875</LongitudeDegrees>
            </Position>
            <AltitudeMeters>216</AltitudeMeters>
            <DistanceMeters>NAN</DistanceMeters>
          </Trackpoint>
          <Trackpoint>
            <Time>2022-07-11T10:13:51.000Z</Time>
            <Position>
              <LatitudeDegrees>43.26315156184136867523193359375</LatitudeDegrees>
              <LongitudeDegrees>-2.59165705181658267974853515625</LongitudeDegrees>
            </Position>
            <AltitudeMeters>215.399993896484375</AltitudeMeters>
            <DistanceMeters>NAN</DistanceMeters>
          </Trackpoint>
          <Trackpoint>
            <Time>2022-07-11T10:13:52.000Z</Time>
            <Position>
              <LatitudeDegrees>43.26321132481098175048828125</LatitudeDegrees>
              <LongitudeDegrees>-2.59176786057651042938232421875</LongitudeDegrees>
            </Position>
            <AltitudeMeters>214.399993896484375</AltitudeMeters>
            <DistanceMeters>NAN</DistanceMeters>
          </Trackpoint>
          <Trackpoint>
            <Time>2022-07-11T10:13:53.000Z</Time>
            <Position>
              <LatitudeDegrees>43.2632648013532161712646484375</LatitudeDegrees>
              <LongitudeDegrees>-2.59184983558952808380126953125</LongitudeDegrees>
            </Position>
            <AltitudeMeters>213.399993896484375</AltitudeMeters>
            <DistanceMeters>NAN</DistanceMeters>
          </Trackpoint>
          <Trackpoint>
            <Time>2022-07-11T10:13:54.000Z</Time>
            <Position>
              <LatitudeDegrees>43.26335809193551540374755859375</LatitudeDegrees>
              <LongitudeDegrees>-2.59196810424327850341796875</LongitudeDegrees>
            </Position>
            <AltitudeMeters>212</AltitudeMeters>
            <DistanceMeters>NAN</DistanceMeters>
          </Trackpoint>
          <Trackpoint>
            <Time>2022-07-11T10:13:55.000Z</Time>
            <Position>
              <LatitudeDegrees>43.26335809193551540374755859375</LatitudeDegrees>
              <LongitudeDegrees>-2.59196810424327850341796875</LongitudeDegrees>
            </Position>
            <AltitudeMeters>211.1999969482421875</AltitudeMeters>
            <DistanceMeters>NAN</DistanceMeters>
          </Trackpoint>
          <Trackpoint>
            <Time>2022-07-11T10:13:56.000Z</Time>
            <Position>
              <LatitudeDegrees>43.26352019794285297393798828125</LatitudeDegrees>
              <LongitudeDegrees>-2.59216147474944591522216796875</LongitudeDegrees>
            </Position>
            <AltitudeMeters>210.399993896484375</AltitudeMeters>
            <DistanceMeters>NAN</DistanceMeters>
          </Trackpoint>
          <Trackpoint>
            <Time>2022-07-11T10:13:57.000Z</Time>
            <Position>
              <LatitudeDegrees>43.26359781436622142791748046875</LatitudeDegrees>
              <LongitudeDegrees>-2.5922539271414279937744140625</LongitudeDegrees>
            </Position>
            <AltitudeMeters>209.1999969482421875</AltitudeMeters>
            <DistanceMeters>NAN</DistanceMeters>
          </Trackpoint>
          <Trackpoint>
            <Time>2022-07-11T10:13:59.000Z</Time>
            <Position>
              <LatitudeDegrees>43.263746090233325958251953125</LatitudeDegrees>
              <LongitudeDegrees>-2.59240304119884967803955078125</LongitudeDegrees>
            </Position>
            <AltitudeMeters>208</AltitudeMeters>
            <DistanceMeters>NAN</DistanceMeters>
          </Trackpoint>
          <Trackpoint>
            <Time>2022-07-11T10:14:00.000Z</Time>
            <Position>
              <LatitudeDegrees>43.2638123072683811187744140625</LatitudeDegrees>
              <LongitudeDegrees>-2.5924453698098659515380859375</LongitudeDegrees>
            </Position>
            <AltitudeMeters>207.1999969482421875</AltitudeMeters>
            <DistanceMeters>NAN</DistanceMeters>
          </Trackpoint>
          <Trackpoint>
            <Time>2022-07-11T10:14:01.000Z</Time>
            <Position>
              <LatitudeDegrees>43.26391096226871013641357421875</LatitudeDegrees>
              <LongitudeDegrees>-2.59252055548131465911865234375</LongitudeDegrees>
            </Position>
            <AltitudeMeters>206.600006103515625</AltitudeMeters>
            <DistanceMeters>NAN</DistanceMeters>
          </Trackpoint>
          <Trackpoint>
            <Time>2022-07-11T10:14:04.000Z</Time>
            <Position>
              <LatitudeDegrees>43.26411900110542774200439453125</LatitudeDegrees>
              <LongitudeDegrees>-2.59270009584724903106689453125</LongitudeDegrees>
            </Position>
            <AltitudeMeters>205.1999969482421875</AltitudeMeters>
            <DistanceMeters>NAN</DistanceMeters>
          </Trackpoint>
          <Trackpoint>
            <Time>2022-07-11T10:14:05.000Z</Time>
            <Position>
              <LatitudeDegrees>43.26418630778789520263671875</LatitudeDegrees>
              <LongitudeDegrees>-2.59278525598347187042236328125</LongitudeDegrees>
            </Position>
            <AltitudeMeters>204.399993896484375</AltitudeMeters>
            <DistanceMeters>NAN</DistanceMeters>
          </Trackpoint>
          <Trackpoint>
            <Time>2022-07-11T10:14:06.000Z</Time>
            <Position>
              <LatitudeDegrees>43.26423064805567264556884765625</LatitudeDegrees>
              <LongitudeDegrees>-2.5928463600575923919677734375</LongitudeDegrees>
            </Position>
            <AltitudeMeters>203.600006103515625</AltitudeMeters>
            <DistanceMeters>NAN</DistanceMeters>
          </Trackpoint>
          <Trackpoint>
            <Time>2022-07-11T10:14:08.000Z</Time>
            <Position>
              <LatitudeDegrees>43.2642739824950695037841796875</LatitudeDegrees>
              <LongitudeDegrees>-2.59290545247495174407958984375</LongitudeDegrees>
            </Position>
            <AltitudeMeters>201.8000030517578125</AltitudeMeters>
            <DistanceMeters>NAN</DistanceMeters>
          </Trackpoint>
          <Trackpoint>
            <Time>2022-07-11T10:14:10.000Z</Time>
            <Position>
              <LatitudeDegrees>43.2643065042793750762939453125</LatitudeDegrees>
              <LongitudeDegrees>-2.59293311275541782379150390625</LongitudeDegrees>
            </Position>
            <AltitudeMeters>200.600006103515625</AltitudeMeters>
            <DistanceMeters>NAN</DistanceMeters>
          </Trackpoint>
          <Trackpoint>
            <Time>2022-07-11T10:14:12.000Z</Time>
            <Position>
              <LatitudeDegrees>43.26430122368037700653076171875</LatitudeDegrees>
              <LongitudeDegrees>-2.5929734297096729278564453125</LongitudeDegrees>
            </Position>
            <AltitudeMeters>200.1999969482421875</AltitudeMeters>
            <DistanceMeters>NAN</DistanceMeters>
          </Trackpoint>
          <Trackpoint>
            <Time>2022-07-11T10:14:16.000Z</Time>
            <Position>
              <LatitudeDegrees>43.2642367668449878692626953125</LatitudeDegrees>
              <LongitudeDegrees>-2.5929972343146800994873046875</LongitudeDegrees>
            </Position>
            <AltitudeMeters>199.600006103515625</AltitudeMeters>
            <DistanceMeters>NAN</DistanceMeters>
          </Trackpoint>
          <Trackpoint>
            <Time>2022-07-11T10:14:18.000Z</Time>
            <Position>
              <LatitudeDegrees>43.26421120204031467437744140625</LatitudeDegrees>
              <LongitudeDegrees>-2.59299916215240955352783203125</LongitudeDegrees>
            </Position>
            <AltitudeMeters>199.600006103515625</AltitudeMeters>
            <DistanceMeters>NAN</DistanceMeters>
          </Trackpoint>
          <Trackpoint>
            <Time>2022-07-11T10:14:20.000Z</Time>
            <Position>
              <LatitudeDegrees>43.26419779099524021148681640625</LatitudeDegrees>
              <LongitudeDegrees>-2.59299430064857006072998046875</LongitudeDegrees>
            </Position>
            <AltitudeMeters>199.399993896484375</AltitudeMeters>
            <DistanceMeters>NAN</DistanceMeters>
          </Trackpoint>
          <Trackpoint>
            <Time>2022-07-11T10:14:21.000Z</Time>
            <Position>
              <LatitudeDegrees>43.26419779099524021148681640625</LatitudeDegrees>
              <LongitudeDegrees>-2.59299430064857006072998046875</LongitudeDegrees>
            </Position>
            <AltitudeMeters>199.399993896484375</AltitudeMeters>
            <DistanceMeters>NAN</DistanceMeters>
          </Trackpoint>
          <Trackpoint>
            <Time>2022-07-11T10:14:42.000Z</Time>
            <Position>
              <LatitudeDegrees>43.26423886232078075408935546875</LatitudeDegrees>
              <LongitudeDegrees>-2.5929727591574192047119140625</LongitudeDegrees>
            </Position>
            <AltitudeMeters>199.1999969482421875</AltitudeMeters>
            <DistanceMeters>NAN</DistanceMeters>
          </Trackpoint>
          <Trackpoint>
            <Time>2022-07-11T10:14:43.000Z</Time>
            <Position>
              <LatitudeDegrees>43.26426283456385135650634765625</LatitudeDegrees>
              <LongitudeDegrees>-2.5929678976535797119140625</LongitudeDegrees>
            </Position>
            <AltitudeMeters>199.1999969482421875</AltitudeMeters>
            <DistanceMeters>NAN</DistanceMeters>
          </Trackpoint>
          <Trackpoint>
            <Time>2022-07-11T10:14:44.000Z</Time>
            <Position>
              <LatitudeDegrees>43.264281861484050750732421875</LatitudeDegrees>
              <LongitudeDegrees>-2.592962868511676788330078125</LongitudeDegrees>
            </Position>
            <AltitudeMeters>199.1999969482421875</AltitudeMeters>
            <DistanceMeters>NAN</DistanceMeters>
          </Trackpoint>
          <Trackpoint>
            <Time>2022-07-11T10:14:50.000Z</Time>
            <Position>
              <LatitudeDegrees>43.264434076845645904541015625</LatitudeDegrees>
              <LongitudeDegrees>-2.592946104705333709716796875</LongitudeDegrees>
            </Position>
            <AltitudeMeters>199.600006103515625</AltitudeMeters>
            <DistanceMeters>NAN</DistanceMeters>
          </Trackpoint>
          <Trackpoint>
            <Time>2022-07-11T10:14:56.000Z</Time>
            <Position>
              <LatitudeDegrees>43.2645884715020656585693359375</LatitudeDegrees>
              <LongitudeDegrees>-2.59293545968830585479736328125</LongitudeDegrees>
            </Position>
            <AltitudeMeters>199.600006103515625</AltitudeMeters>
            <DistanceMeters>NAN</DistanceMeters>
          </Trackpoint>
          <Trackpoint>
            <Time>2022-07-11T10:14:58.000Z</Time>
            <Position>
              <LatitudeDegrees>43.26462996192276477813720703125</LatitudeDegrees>
              <LongitudeDegrees>-2.59291601367294788360595703125</LongitudeDegrees>
            </Position>
            <AltitudeMeters>199.399993896484375</AltitudeMeters>
            <DistanceMeters>NAN</DistanceMeters>
          </Trackpoint>
          <Trackpoint>
            <Time>2022-07-11T10:15:03.000Z</Time>
            <Position>
              <LatitudeDegrees>43.2647517509758472442626953125</LatitudeDegrees>
              <LongitudeDegrees>-2.59274418465793132781982421875</LongitudeDegrees>
            </Position>
            <AltitudeMeters>199.1999969482421875</AltitudeMeters>
            <DistanceMeters>NAN</DistanceMeters>
          </Trackpoint>
          <Trackpoint>
            <Time>2022-07-11T10:15:07.000Z</Time>
            <Position>
              <LatitudeDegrees>43.2648664154112339019775390625</LatitudeDegrees>
              <LongitudeDegrees>-2.59251016192138195037841796875</LongitudeDegrees>
            </Position>
            <AltitudeMeters>198.600006103515625</AltitudeMeters>
            <DistanceMeters>NAN</DistanceMeters>
          </Trackpoint>
          <Trackpoint>
            <Time>2022-07-11T10:15:08.000Z</Time>
            <Position>
              <LatitudeDegrees>43.264894746243953704833984375</LatitudeDegrees>
              <LongitudeDegrees>-2.592457272112369537353515625</LongitudeDegrees>
            </Position>
            <AltitudeMeters>198.1999969482421875</AltitudeMeters>
            <DistanceMeters>NAN</DistanceMeters>
          </Trackpoint>
          <Trackpoint>
            <Time>2022-07-11T10:15:09.000Z</Time>
            <Position>
              <LatitudeDegrees>43.264921568334102630615234375</LatitudeDegrees>
              <LongitudeDegrees>-2.5924115069210529327392578125</LongitudeDegrees>
            </Position>
            <AltitudeMeters>197.8000030517578125</AltitudeMeters>
            <DistanceMeters>NAN</DistanceMeters>
          </Trackpoint>
          <Trackpoint>
            <Time>2022-07-11T10:15:10.000Z</Time>
            <Position>
              <LatitudeDegrees>43.264945708215236663818359375</LatitudeDegrees>
              <LongitudeDegrees>-2.59237186051905155181884765625</LongitudeDegrees>
            </Position>
            <AltitudeMeters>197.399993896484375</AltitudeMeters>
            <DistanceMeters>NAN</DistanceMeters>
          </Trackpoint>
          <Trackpoint>
            <Time>2022-07-11T10:15:14.000Z</Time>
            <Position>
              <LatitudeDegrees>43.26502776704728603363037109375</LatitudeDegrees>
              <LongitudeDegrees>-2.59218494407832622528076171875</LongitudeDegrees>
            </Position>
            <AltitudeMeters>196.399993896484375</AltitudeMeters>
            <DistanceMeters>NAN</DistanceMeters>
          </Trackpoint>
          <Trackpoint>
            <Time>2022-07-11T10:15:15.000Z</Time>
            <Position>
              <LatitudeDegrees>43.26505257748067378997802734375</LatitudeDegrees>
              <LongitudeDegrees>-2.59213113225996494293212890625</LongitudeDegrees>
            </Position>
            <AltitudeMeters>196.1999969482421875</AltitudeMeters>
            <DistanceMeters>NAN</DistanceMeters>
          </Trackpoint>
          <Trackpoint>
            <Time>2022-07-11T10:15:19.000Z</Time>
            <Position>
              <LatitudeDegrees>43.26519372873008251190185546875</LatitudeDegrees>
              <LongitudeDegrees>-2.5919233448803424835205078125</LongitudeDegrees>
            </Position>
            <AltitudeMeters>195.8000030517578125</AltitudeMeters>
            <DistanceMeters>NAN</DistanceMeters>
          </Trackpoint>
          <Trackpoint>
            <Time>2022-07-11T10:15:21.000Z</Time>
            <Position>
              <LatitudeDegrees>43.26526053249835968017578125</LatitudeDegrees>
              <LongitudeDegrees>-2.59184262715280055999755859375</LongitudeDegrees>
            </Position>
            <AltitudeMeters>195.600006103515625</AltitudeMeters>
            <DistanceMeters>NAN</DistanceMeters>
          </Trackpoint>
          <Trackpoint>
            <Time>2022-07-11T10:15:22.000Z</Time>
            <Position>
              <LatitudeDegrees>43.26530034653842449188232421875</LatitudeDegrees>
              <LongitudeDegrees>-2.59182594716548919677734375</LongitudeDegrees>
            </Position>
            <AltitudeMeters>195.1999969482421875</AltitudeMeters>
            <DistanceMeters>NAN</DistanceMeters>
          </Trackpoint>
          <Trackpoint>
            <Time>2022-07-11T10:15:23.000Z</Time>
            <Position>
              <LatitudeDegrees>43.26534728519618511199951171875</LatitudeDegrees>
              <LongitudeDegrees>-2.591824941337108612060546875</LongitudeDegrees>
            </Position>
            <AltitudeMeters>194.8000030517578125</AltitudeMeters>
            <DistanceMeters>NAN</DistanceMeters>
          </Trackpoint>
          <Trackpoint>
            <Time>2022-07-11T10:15:25.000Z</Time>
            <Position>
              <LatitudeDegrees>43.265452645719051361083984375</LatitudeDegrees>
              <LongitudeDegrees>-2.591874562203884124755859375</LongitudeDegrees>
            </Position>
            <AltitudeMeters>194.399993896484375</AltitudeMeters>
            <DistanceMeters>NAN</DistanceMeters>
          </Trackpoint>
          <Trackpoint>
            <Time>2022-07-11T10:15:26.000Z</Time>
            <Position>
              <LatitudeDegrees>43.26550687663257122039794921875</LatitudeDegrees>
              <LongitudeDegrees>-2.59191588498651981353759765625</LongitudeDegrees>
            </Position>
            <AltitudeMeters>194</AltitudeMeters>
            <DistanceMeters>NAN</DistanceMeters>
          </Trackpoint>
          <Trackpoint>
            <Time>2022-07-11T10:15:27.000Z</Time>
            <Position>
              <LatitudeDegrees>43.2655611075460910797119140625</LatitudeDegrees>
              <LongitudeDegrees>-2.5919647514820098876953125</LongitudeDegrees>
            </Position>
            <AltitudeMeters>193.399993896484375</AltitudeMeters>
            <DistanceMeters>NAN</DistanceMeters>
          </Trackpoint>
          <Trackpoint>
            <Time>2022-07-11T10:15:29.000Z</Time>
            <Position>
              <LatitudeDegrees>43.26567283831536769866943359375</LatitudeDegrees>
              <LongitudeDegrees>-2.59206525050103664398193359375</LongitudeDegrees>
            </Position>
            <AltitudeMeters>193</AltitudeMeters>
            <DistanceMeters>NAN</DistanceMeters>
          </Trackpoint>
          <Trackpoint>
            <Time>2022-07-11T10:15:30.000Z</Time>
            <Position>
              <LatitudeDegrees>43.26572966761887073516845703125</LatitudeDegrees>
              <LongitudeDegrees>-2.59212912060320377349853515625</LongitudeDegrees>
            </Position>
            <AltitudeMeters>192.600006103515625</AltitudeMeters>
            <DistanceMeters>NAN</DistanceMeters>
          </Trackpoint>
          <Trackpoint>
            <Time>2022-07-11T10:15:32.000Z</Time>
            <Position>
              <LatitudeDegrees>43.26583930291235446929931640625</LatitudeDegrees>
              <LongitudeDegrees>-2.5922716967761516571044921875</LongitudeDegrees>
            </Position>
            <AltitudeMeters>192.1999969482421875</AltitudeMeters>
            <DistanceMeters>NAN</DistanceMeters>
          </Trackpoint>
          <Trackpoint>
            <Time>2022-07-11T10:15:35.000Z</Time>
            <Position>
              <LatitudeDegrees>43.2659959606826305389404296875</LatitudeDegrees>
              <LongitudeDegrees>-2.5924822501838207244873046875</LongitudeDegrees>
            </Position>
            <AltitudeMeters>191.399993896484375</AltitudeMeters>
            <DistanceMeters>NAN</DistanceMeters>
          </Trackpoint>
          <Trackpoint>
            <Time>2022-07-11T10:15:39.000Z</Time>
            <Position>
              <LatitudeDegrees>43.26617776416242122650146484375</LatitudeDegrees>
              <LongitudeDegrees>-2.5927548296749591827392578125</LongitudeDegrees>
            </Position>
            <AltitudeMeters>190.8000030517578125</AltitudeMeters>
            <DistanceMeters>NAN</DistanceMeters>
          </Trackpoint>
          <Trackpoint>
            <Time>2022-07-11T10:15:40.000Z</Time>
            <Position>
              <LatitudeDegrees>43.266217410564422607421875</LatitudeDegrees>
              <LongitudeDegrees>-2.59282238781452178955078125</LongitudeDegrees>
            </Position>
            <AltitudeMeters>190.8000030517578125</AltitudeMeters>
            <DistanceMeters>NAN</DistanceMeters>
          </Trackpoint>
          <Trackpoint>
            <Time>2022-07-11T10:15:42.000Z</Time>
            <Position>
              <LatitudeDegrees>43.2662960328161716461181640625</LatitudeDegrees>
              <LongitudeDegrees>-2.5929348729550838470458984375</LongitudeDegrees>
            </Position>
            <AltitudeMeters>190.600006103515625</AltitudeMeters>
            <DistanceMeters>NAN</DistanceMeters>
          </Trackpoint>
          <Trackpoint>
            <Time>2022-07-11T10:15:44.000Z</Time>
            <Position>
              <LatitudeDegrees>43.26638664118945598602294921875</LatitudeDegrees>
              <LongitudeDegrees>-2.59301760233938694000244140625</LongitudeDegrees>
            </Position>
            <AltitudeMeters>190.600006103515625</AltitudeMeters>
            <DistanceMeters>NAN</DistanceMeters>
          </Trackpoint>
          <Trackpoint>
            <Time>2022-07-11T10:15:46.000Z</Time>
            <Position>
              <LatitudeDegrees>43.2664633356034755706787109375</LatitudeDegrees>
              <LongitudeDegrees>-2.59306973777711391448974609375</LongitudeDegrees>
            </Position>
            <AltitudeMeters>190.399993896484375</AltitudeMeters>
            <DistanceMeters>NAN</DistanceMeters>
          </Trackpoint>
          <Trackpoint>
            <Time>2022-07-11T10:15:48.000Z</Time>
            <Position>
              <LatitudeDegrees>43.26652645133435726165771484375</LatitudeDegrees>
              <LongitudeDegrees>-2.5930954702198505401611328125</LongitudeDegrees>
            </Position>
            <AltitudeMeters>190.399993896484375</AltitudeMeters>
            <DistanceMeters>NAN</DistanceMeters>
          </Trackpoint>
          <Trackpoint>
            <Time>2022-07-11T10:15:49.000Z</Time>
            <Position>
              <LatitudeDegrees>43.2665592245757579803466796875</LatitudeDegrees>
              <LongitudeDegrees>-2.593102343380451202392578125</LongitudeDegrees>
            </Position>
            <AltitudeMeters>190.399993896484375</AltitudeMeters>
            <DistanceMeters>NAN</DistanceMeters>
          </Trackpoint>
          <Trackpoint>
            <Time>2022-07-11T10:15:54.000Z</Time>
            <Position>
              <LatitudeDegrees>43.2666846178472042083740234375</LatitudeDegrees>
              <LongitudeDegrees>-2.5931410677731037139892578125</LongitudeDegrees>
            </Position>
            <AltitudeMeters>190.1999969482421875</AltitudeMeters>
            <DistanceMeters>NAN</DistanceMeters>
          </Trackpoint>
          <Trackpoint>
            <Time>2022-07-11T10:15:56.000Z</Time>
            <Position>
              <LatitudeDegrees>43.2667328976094722747802734375</LatitudeDegrees>
              <LongitudeDegrees>-2.5931561551988124847412109375</LongitudeDegrees>
            </Position>
            <AltitudeMeters>190.399993896484375</AltitudeMeters>
            <DistanceMeters>NAN</DistanceMeters>
          </Trackpoint>
          <Trackpoint>
            <Time>2022-07-11T10:16:05.000Z</Time>
            <Position>
              <LatitudeDegrees>43.266917131841182708740234375</LatitudeDegrees>
              <LongitudeDegrees>-2.593239806592464447021484375</LongitudeDegrees>
            </Position>
            <AltitudeMeters>191</AltitudeMeters>
            <DistanceMeters>NAN</DistanceMeters>
          </Trackpoint>
          <Trackpoint>
            <Time>2022-07-11T10:16:09.000Z</Time>
            <Position>
              <LatitudeDegrees>43.266996257007122039794921875</LatitudeDegrees>
              <LongitudeDegrees>-2.59328766725957393646240234375</LongitudeDegrees>
            </Position>
            <AltitudeMeters>190.8000030517578125</AltitudeMeters>
            <DistanceMeters>NAN</DistanceMeters>
          </Trackpoint>
          <Trackpoint>
            <Time>2022-07-11T10:16:11.000Z</Time>
            <Position>
              <LatitudeDegrees>43.2670326344668865203857421875</LatitudeDegrees>
              <LongitudeDegrees>-2.59331231005489826202392578125</LongitudeDegrees>
            </Position>
            <AltitudeMeters>191</AltitudeMeters>
            <DistanceMeters>NAN</DistanceMeters>
          </Trackpoint>
          <Trackpoint>
            <Time>2022-07-11T10:16:13.000Z</Time>
            <Position>
              <LatitudeDegrees>43.26706741936504840850830078125</LatitudeDegrees>
              <LongitudeDegrees>-2.593335025012493133544921875</LongitudeDegrees>
            </Position>
            <AltitudeMeters>191.1999969482421875</AltitudeMeters>
            <DistanceMeters>NAN</DistanceMeters>
          </Trackpoint>
          <Trackpoint>
            <Time>2022-07-11T10:16:14.000Z</Time>
            <Position>
              <LatitudeDegrees>43.267086446285247802734375</LatitudeDegrees>
              <LongitudeDegrees>-2.59334902279078960418701171875</LongitudeDegrees>
            </Position>
            <AltitudeMeters>191.1999969482421875</AltitudeMeters>
            <DistanceMeters>NAN</DistanceMeters>
          </Trackpoint>
          <Trackpoint>
            <Time>2022-07-11T10:16:18.000Z</Time>
            <Position>
              <LatitudeDegrees>43.26715710572898387908935546875</LatitudeDegrees>
              <LongitudeDegrees>-2.59342295117676258087158203125</LongitudeDegrees>
            </Position>
            <AltitudeMeters>191.399993896484375</AltitudeMeters>
            <DistanceMeters>NAN</DistanceMeters>
          </Trackpoint>
          <Trackpoint>
            <Time>2022-07-11T10:16:19.000Z</Time>
            <Position>
              <LatitudeDegrees>43.26717428863048553466796875</LatitudeDegrees>
              <LongitudeDegrees>-2.593441307544708251953125</LongitudeDegrees>
            </Position>
            <AltitudeMeters>191.399993896484375</AltitudeMeters>
            <DistanceMeters>NAN</DistanceMeters>
          </Trackpoint>
          <Trackpoint>
            <Time>2022-07-11T10:16:21.000Z</Time>
            <Position>
              <LatitudeDegrees>43.26720639131963253021240234375</LatitudeDegrees>
              <LongitudeDegrees>-2.59347475133836269378662109375</LongitudeDegrees>
            </Position>
            <AltitudeMeters>191.600006103515625</AltitudeMeters>
            <DistanceMeters>NAN</DistanceMeters>
          </Trackpoint>
          <Trackpoint>
            <Time>2022-07-11T10:16:24.000Z</Time>
            <Position>
              <LatitudeDegrees>43.26725819148123264312744140625</LatitudeDegrees>
              <LongitudeDegrees>-2.5935430638492107391357421875</LongitudeDegrees>
            </Position>
            <AltitudeMeters>191.600006103515625</AltitudeMeters>
            <DistanceMeters>NAN</DistanceMeters>
          </Trackpoint>
          <Trackpoint>
            <Time>2022-07-11T10:16:27.000Z</Time>
            <Position>
              <LatitudeDegrees>43.2672998495399951934814453125</LatitudeDegrees>
              <LongitudeDegrees>-2.59361204691231250762939453125</LongitudeDegrees>
            </Position>
            <AltitudeMeters>191.600006103515625</AltitudeMeters>
            <DistanceMeters>NAN</DistanceMeters>
          </Trackpoint>
          <Trackpoint>
            <Time>2022-07-11T10:16:30.000Z</Time>
            <Position>
              <LatitudeDegrees>43.267336226999759674072265625</LatitudeDegrees>
              <LongitudeDegrees>-2.5936853885650634765625</LongitudeDegrees>
            </Position>
            <AltitudeMeters>191.600006103515625</AltitudeMeters>
            <DistanceMeters>NAN</DistanceMeters>
          </Trackpoint>
          <Trackpoint>
            <Time>2022-07-11T10:16:38.000Z</Time>
            <Position>
              <LatitudeDegrees>43.26744527556002140045166015625</LatitudeDegrees>
              <LongitudeDegrees>-2.59388563223183155059814453125</LongitudeDegrees>
            </Position>
            <AltitudeMeters>191.8000030517578125</AltitudeMeters>
            <DistanceMeters>NAN</DistanceMeters>
          </Trackpoint>
          <Trackpoint>
            <Time>2022-07-11T10:16:40.000Z</Time>
            <Position>
              <LatitudeDegrees>43.2674735225737094879150390625</LatitudeDegrees>
              <LongitudeDegrees>-2.59394547902047634124755859375</LongitudeDegrees>
            </Position>
            <AltitudeMeters>191.8000030517578125</AltitudeMeters>
            <DistanceMeters>NAN</DistanceMeters>
          </Trackpoint>
          <Trackpoint>
            <Time>2022-07-11T10:16:48.000Z</Time>
            <Position>
              <LatitudeDegrees>43.26755692251026630401611328125</LatitudeDegrees>
              <LongitudeDegrees>-2.59421269409358501434326171875</LongitudeDegrees>
            </Position>
            <AltitudeMeters>192</AltitudeMeters>
            <DistanceMeters>NAN</DistanceMeters>
          </Trackpoint>
          <Trackpoint>
            <Time>2022-07-11T10:16:57.000Z</Time>
            <Position>
              <LatitudeDegrees>43.26761693693697452545166015625</LatitudeDegrees>
              <LongitudeDegrees>-2.59454947896301746368408203125</LongitudeDegrees>
            </Position>
            <AltitudeMeters>192</AltitudeMeters>
            <DistanceMeters>NAN</DistanceMeters>
          </Trackpoint>
          <Trackpoint>
            <Time>2022-07-11T10:17:05.000Z</Time>
            <Position>
              <LatitudeDegrees>43.26770670711994171142578125</LatitudeDegrees>
              <LongitudeDegrees>-2.5948348827660083770751953125</LongitudeDegrees>
            </Position>
            <AltitudeMeters>192</AltitudeMeters>
            <DistanceMeters>NAN</DistanceMeters>
          </Trackpoint>
          <Trackpoint>
            <Time>2022-07-11T10:17:12.000Z</Time>
            <Position>
              <LatitudeDegrees>43.26777552254498004913330078125</LatitudeDegrees>
              <LongitudeDegrees>-2.595164291560649871826171875</LongitudeDegrees>
            </Position>
            <AltitudeMeters>192</AltitudeMeters>
            <DistanceMeters>NAN</DistanceMeters>
          </Trackpoint>
          <Trackpoint>
            <Time>2022-07-11T10:17:21.000Z</Time>
            <Position>
              <LatitudeDegrees>43.26789806596934795379638671875</LatitudeDegrees>
              <LongitudeDegrees>-2.59557341225445270538330078125</LongitudeDegrees>
            </Position>
            <AltitudeMeters>192.1999969482421875</AltitudeMeters>
            <DistanceMeters>NAN</DistanceMeters>
          </Trackpoint>
          <Trackpoint>
            <Time>2022-07-11T10:17:22.000Z</Time>
            <Position>
              <LatitudeDegrees>43.26791684143245220184326171875</LatitudeDegrees>
              <LongitudeDegrees>-2.59561666287481784820556640625</LongitudeDegrees>
            </Position>
            <AltitudeMeters>192.1999969482421875</AltitudeMeters>
            <DistanceMeters>NAN</DistanceMeters>
          </Trackpoint>
          <Trackpoint>
            <Time>2022-07-11T10:17:29.000Z</Time>
            <Position>
              <LatitudeDegrees>43.2680646143853664398193359375</LatitudeDegrees>
              <LongitudeDegrees>-2.59583652019500732421875</LongitudeDegrees>
            </Position>
            <AltitudeMeters>192.1999969482421875</AltitudeMeters>
            <DistanceMeters>NAN</DistanceMeters>
          </Trackpoint>
          <Trackpoint>
            <Time>2022-07-11T10:17:31.000Z</Time>
            <Position>
              <LatitudeDegrees>43.26810912229120731353759765625</LatitudeDegrees>
              <LongitudeDegrees>-2.59588639251887798309326171875</LongitudeDegrees>
            </Position>
            <AltitudeMeters>192.1999969482421875</AltitudeMeters>
            <DistanceMeters>NAN</DistanceMeters>
          </Trackpoint>
          <Trackpoint>
            <Time>2022-07-11T10:17:33.000Z</Time>
            <Position>
              <LatitudeDegrees>43.26814885251224040985107421875</LatitudeDegrees>
              <LongitudeDegrees>-2.5959335826337337493896484375</LongitudeDegrees>
            </Position>
            <AltitudeMeters>192.399993896484375</AltitudeMeters>
            <DistanceMeters>NAN</DistanceMeters>
          </Trackpoint>
          <Trackpoint>
            <Time>2022-07-11T10:17:35.000Z</Time>
            <Position>
              <LatitudeDegrees>43.26819361187517642974853515625</LatitudeDegrees>
              <LongitudeDegrees>-2.59596937336027622222900390625</LongitudeDegrees>
            </Position>
            <AltitudeMeters>192.399993896484375</AltitudeMeters>
            <DistanceMeters>NAN</DistanceMeters>
          </Trackpoint>
          <Trackpoint>
            <Time>2022-07-11T10:17:39.000Z</Time>
            <Position>
              <LatitudeDegrees>43.26827525161206722259521484375</LatitudeDegrees>
              <LongitudeDegrees>-2.59602486155927181243896484375</LongitudeDegrees>
            </Position>
            <AltitudeMeters>192.600006103515625</AltitudeMeters>
            <DistanceMeters>NAN</DistanceMeters>
          </Trackpoint>
          <Trackpoint>
            <Time>2022-07-11T10:17:42.000Z</Time>
            <Position>
              <LatitudeDegrees>43.26832621358335018157958984375</LatitudeDegrees>
              <LongitudeDegrees>-2.59607196785509586334228515625</LongitudeDegrees>
            </Position>
            <AltitudeMeters>192.600006103515625</AltitudeMeters>
            <DistanceMeters>NAN</DistanceMeters>
          </Trackpoint>
          <Trackpoint>
            <Time>2022-07-11T10:17:48.000Z</Time>
            <Position>
              <LatitudeDegrees>43.26843584887683391571044921875</LatitudeDegrees>
              <LongitudeDegrees>-2.5961538590490818023681640625</LongitudeDegrees>
            </Position>
            <AltitudeMeters>193.1999969482421875</AltitudeMeters>
            <DistanceMeters>NAN</DistanceMeters>
          </Trackpoint>
          <Trackpoint>
            <Time>2022-07-11T10:17:50.000Z</Time>
            <Position>
              <LatitudeDegrees>43.2684691250324249267578125</LatitudeDegrees>
              <LongitudeDegrees>-2.59618344716727733612060546875</LongitudeDegrees>
            </Position>
            <AltitudeMeters>193.1999969482421875</AltitudeMeters>
            <DistanceMeters>NAN</DistanceMeters>
          </Trackpoint>
          <Trackpoint>
            <Time>2022-07-11T10:17:52.000Z</Time>
            <Position>
              <LatitudeDegrees>43.268508352339267730712890625</LatitudeDegrees>
              <LongitudeDegrees>-2.5962038151919841766357421875</LongitudeDegrees>
            </Position>
            <AltitudeMeters>193.399993896484375</AltitudeMeters>
            <DistanceMeters>NAN</DistanceMeters>
          </Trackpoint>
          <Trackpoint>
            <Time>2022-07-11T10:17:54.000Z</Time>
            <Position>
              <LatitudeDegrees>43.2685567997395992279052734375</LatitudeDegrees>
              <LongitudeDegrees>-2.5962366722524166107177734375</LongitudeDegrees>
            </Position>
            <AltitudeMeters>193.600006103515625</AltitudeMeters>
            <DistanceMeters>NAN</DistanceMeters>
          </Trackpoint>
          <Trackpoint>
            <Time>2022-07-11T10:17:59.000Z</Time>
            <Position>
              <LatitudeDegrees>43.2686604000627994537353515625</LatitudeDegrees>
              <LongitudeDegrees>-2.59626843966543674468994140625</LongitudeDegrees>
            </Position>
            <AltitudeMeters>193.600006103515625</AltitudeMeters>
            <DistanceMeters>NAN</DistanceMeters>
          </Trackpoint>
          <Trackpoint>
            <Time>2022-07-11T10:18:09.000Z</Time>
            <Position>
              <LatitudeDegrees>43.2688783295452594757080078125</LatitudeDegrees>
              <LongitudeDegrees>-2.596262991428375244140625</LongitudeDegrees>
            </Position>
            <AltitudeMeters>194</AltitudeMeters>
            <DistanceMeters>NAN</DistanceMeters>
          </Trackpoint>
          <Trackpoint>
            <Time>2022-07-11T10:18:18.000Z</Time>
            <Position>
              <LatitudeDegrees>43.26908930204808712005615234375</LatitudeDegrees>
              <LongitudeDegrees>-2.59624128229916095733642578125</LongitudeDegrees>
            </Position>
            <AltitudeMeters>194</AltitudeMeters>
            <DistanceMeters>NAN</DistanceMeters>
          </Trackpoint>
          <Trackpoint>
            <Time>2022-07-11T10:18:27.000Z</Time>
            <Position>
              <LatitudeDegrees>43.26930220238864421844482421875</LatitudeDegrees>
              <LongitudeDegrees>-2.59630431421101093292236328125</LongitudeDegrees>
            </Position>
            <AltitudeMeters>194.399993896484375</AltitudeMeters>
            <DistanceMeters>NAN</DistanceMeters>
          </Trackpoint>
          <Trackpoint>
            <Time>2022-07-11T10:18:29.000Z</Time>
            <Position>
              <LatitudeDegrees>43.26933975331485271453857421875</LatitudeDegrees>
              <LongitudeDegrees>-2.59633499197661876678466796875</LongitudeDegrees>
            </Position>
            <AltitudeMeters>194.600006103515625</AltitudeMeters>
            <DistanceMeters>NAN</DistanceMeters>
          </Trackpoint>
          <Trackpoint>
            <Time>2022-07-11T10:18:36.000Z</Time>
            <Position>
              <LatitudeDegrees>43.2694757916033267974853515625</LatitudeDegrees>
              <LongitudeDegrees>-2.59645720012485980987548828125</LongitudeDegrees>
            </Position>
            <AltitudeMeters>194.8000030517578125</AltitudeMeters>
            <DistanceMeters>NAN</DistanceMeters>
          </Trackpoint>
          <Trackpoint>
            <Time>2022-07-11T10:18:45.000Z</Time>
            <Position>
              <LatitudeDegrees>43.26963613741099834442138671875</LatitudeDegrees>
              <LongitudeDegrees>-2.59661369025707244873046875</LongitudeDegrees>
            </Position>
            <AltitudeMeters>195.1999969482421875</AltitudeMeters>
            <DistanceMeters>NAN</DistanceMeters>
          </Trackpoint>
          <Trackpoint>
            <Time>2022-07-11T10:18:52.000Z</Time>
            <Position>
              <LatitudeDegrees>43.26976169832050800323486328125</LatitudeDegrees>
              <LongitudeDegrees>-2.596720643341541290283203125</LongitudeDegrees>
            </Position>
            <AltitudeMeters>195.600006103515625</AltitudeMeters>
            <DistanceMeters>NAN</DistanceMeters>
          </Trackpoint>
          <Trackpoint>
            <Time>2022-07-11T10:18:53.000Z</Time>
            <Position>
              <LatitudeDegrees>43.269783072173595428466796875</LatitudeDegrees>
              <LongitudeDegrees>-2.5967372395098209381103515625</LongitudeDegrees>
            </Position>
            <AltitudeMeters>195.600006103515625</AltitudeMeters>
            <DistanceMeters>NAN</DistanceMeters>
          </Trackpoint>
          <Trackpoint>
            <Time>2022-07-11T10:19:00.000Z</Time>
            <Position>
              <LatitudeDegrees>43.2699336111545562744140625</LatitudeDegrees>
              <LongitudeDegrees>-2.596843354403972625732421875</LongitudeDegrees>
            </Position>
            <AltitudeMeters>196</AltitudeMeters>
            <DistanceMeters>NAN</DistanceMeters>
          </Trackpoint>
          <Trackpoint>
            <Time>2022-07-11T10:19:07.000Z</Time>
            <Position>
              <LatitudeDegrees>43.27007031999528408050537109375</LatitudeDegrees>
              <LongitudeDegrees>-2.59683690033853054046630859375</LongitudeDegrees>
            </Position>
            <AltitudeMeters>196.399993896484375</AltitudeMeters>
            <DistanceMeters>NAN</DistanceMeters>
          </Trackpoint>
          <Trackpoint>
            <Time>2022-07-11T10:19:11.000Z</Time>
            <Position>
              <LatitudeDegrees>43.2701835595071315765380859375</LatitudeDegrees>
              <LongitudeDegrees>-2.59677386842668056488037109375</LongitudeDegrees>
            </Position>
            <AltitudeMeters>196.8000030517578125</AltitudeMeters>
            <DistanceMeters>NAN</DistanceMeters>
          </Trackpoint>
          <Trackpoint>
            <Time>2022-07-11T10:19:15.000Z</Time>
            <Position>
              <LatitudeDegrees>43.27026151120662689208984375</LatitudeDegrees>
              <LongitudeDegrees>-2.59669641964137554168701171875</LongitudeDegrees>
            </Position>
            <AltitudeMeters>197</AltitudeMeters>
            <DistanceMeters>NAN</DistanceMeters>
          </Trackpoint>
          <Trackpoint>
            <Time>2022-07-11T10:19:23.000Z</Time>
            <Position>
              <LatitudeDegrees>43.270379193127155303955078125</LatitudeDegrees>
              <LongitudeDegrees>-2.5965069048106670379638671875</LongitudeDegrees>
            </Position>
            <AltitudeMeters>197.399993896484375</AltitudeMeters>
            <DistanceMeters>NAN</DistanceMeters>
          </Trackpoint>
          <Trackpoint>
            <Time>2022-07-11T10:19:29.000Z</Time>
            <Position>
              <LatitudeDegrees>43.2704330049455165863037109375</LatitudeDegrees>
              <LongitudeDegrees>-2.59632644243538379669189453125</LongitudeDegrees>
            </Position>
            <AltitudeMeters>197.8000030517578125</AltitudeMeters>
            <DistanceMeters>NAN</DistanceMeters>
          </Trackpoint>
          <Trackpoint>
            <Time>2022-07-11T10:19:31.000Z</Time>
            <Position>
              <LatitudeDegrees>43.2704407162964344024658203125</LatitudeDegrees>
              <LongitudeDegrees>-2.5962589681148529052734375</LongitudeDegrees>
            </Position>
            <AltitudeMeters>197.8000030517578125</AltitudeMeters>
            <DistanceMeters>NAN</DistanceMeters>
          </Trackpoint>
          <Trackpoint>
            <Time>2022-07-11T10:19:39.000Z</Time>
            <Position>
              <LatitudeDegrees>43.270395286381244659423828125</LatitudeDegrees>
              <LongitudeDegrees>-2.5960358418524265289306640625</LongitudeDegrees>
            </Position>
            <AltitudeMeters>198.399993896484375</AltitudeMeters>
            <DistanceMeters>NAN</DistanceMeters>
          </Trackpoint>
          <Trackpoint>
            <Time>2022-07-11T10:19:45.000Z</Time>
            <Position>
              <LatitudeDegrees>43.270364105701446533203125</LatitudeDegrees>
              <LongitudeDegrees>-2.59587943553924560546875</LongitudeDegrees>
            </Position>
            <AltitudeMeters>198.8000030517578125</AltitudeMeters>
            <DistanceMeters>NAN</DistanceMeters>
          </Trackpoint>
          <Trackpoint>
            <Time>2022-07-11T10:19:48.000Z</Time>
            <Position>
              <LatitudeDegrees>43.27037927694618701934814453125</LatitudeDegrees>
              <LongitudeDegrees>-2.5957880727946758270263671875</LongitudeDegrees>
            </Position>
            <AltitudeMeters>199</AltitudeMeters>
            <DistanceMeters>NAN</DistanceMeters>
          </Trackpoint>
          <Trackpoint>
            <Time>2022-07-11T10:19:54.000Z</Time>
            <Position>
              <LatitudeDegrees>43.27044214121997356414794921875</LatitudeDegrees>
              <LongitudeDegrees>-2.5956264697015285491943359375</LongitudeDegrees>
            </Position>
            <AltitudeMeters>199.399993896484375</AltitudeMeters>
            <DistanceMeters>NAN</DistanceMeters>
          </Trackpoint>
          <Trackpoint>
            <Time>2022-07-11T10:19:59.000Z</Time>
            <Position>
              <LatitudeDegrees>43.27051841653883457183837890625</LatitudeDegrees>
              <LongitudeDegrees>-2.59553317911922931671142578125</LongitudeDegrees>
            </Position>
            <AltitudeMeters>199.399993896484375</AltitudeMeters>
            <DistanceMeters>NAN</DistanceMeters>
          </Trackpoint>
          <Trackpoint>
            <Time>2022-07-11T10:20:01.000Z</Time>
            <Position>
              <LatitudeDegrees>43.27056149952113628387451171875</LatitudeDegrees>
              <LongitudeDegrees>-2.595521025359630584716796875</LongitudeDegrees>
            </Position>
            <AltitudeMeters>199.399993896484375</AltitudeMeters>
            <DistanceMeters>NAN</DistanceMeters>
          </Trackpoint>
          <Trackpoint>
            <Time>2022-07-11T10:20:09.000Z</Time>
            <Position>
              <LatitudeDegrees>43.2707605697214603424072265625</LatitudeDegrees>
              <LongitudeDegrees>-2.59548582136631011962890625</LongitudeDegrees>
            </Position>
            <AltitudeMeters>199.8000030517578125</AltitudeMeters>
            <DistanceMeters>NAN</DistanceMeters>
          </Trackpoint>
          <Trackpoint>
            <Time>2022-07-11T10:20:12.000Z</Time>
            <Position>
              <LatitudeDegrees>43.270838521420955657958984375</LatitudeDegrees>
              <LongitudeDegrees>-2.59550501592457294464111328125</LongitudeDegrees>
            </Position>
            <AltitudeMeters>199.8000030517578125</AltitudeMeters>
            <DistanceMeters>NAN</DistanceMeters>
          </Trackpoint>
          <Trackpoint>
            <Time>2022-07-11T10:20:20.000Z</Time>
            <Position>
              <LatitudeDegrees>43.27105871401727199554443359375</LatitudeDegrees>
              <LongitudeDegrees>-2.595618925988674163818359375</LongitudeDegrees>
            </Position>
            <AltitudeMeters>200</AltitudeMeters>
            <DistanceMeters>NAN</DistanceMeters>
          </Trackpoint>
          <Trackpoint>
            <Time>2022-07-11T10:20:25.000Z</Time>
            <Position>
              <LatitudeDegrees>43.27122869901359081268310546875</LatitudeDegrees>
              <LongitudeDegrees>-2.5957076065242290496826171875</LongitudeDegrees>
            </Position>
            <AltitudeMeters>200</AltitudeMeters>
            <DistanceMeters>NAN</DistanceMeters>
          </Trackpoint>
          <Trackpoint>
            <Time>2022-07-11T10:20:28.000Z</Time>
            <Position>
              <LatitudeDegrees>43.27134001068770885467529296875</LatitudeDegrees>
              <LongitudeDegrees>-2.59571942500770092010498046875</LongitudeDegrees>
            </Position>
            <AltitudeMeters>200</AltitudeMeters>
            <DistanceMeters>NAN</DistanceMeters>
          </Trackpoint>
          <Trackpoint>
            <Time>2022-07-11T10:20:35.000Z</Time>
            <Position>
              <LatitudeDegrees>43.2715836726129055023193359375</LatitudeDegrees>
              <LongitudeDegrees>-2.5956542976200580596923828125</LongitudeDegrees>
            </Position>
            <AltitudeMeters>200.600006103515625</AltitudeMeters>
            <DistanceMeters>NAN</DistanceMeters>
          </Trackpoint>
          <Trackpoint>
            <Time>2022-07-11T10:20:41.000Z</Time>
            <Position>
              <LatitudeDegrees>43.27177788130939006805419921875</LatitudeDegrees>
              <LongitudeDegrees>-2.59564985521137714385986328125</LongitudeDegrees>
            </Position>
            <AltitudeMeters>200.600006103515625</AltitudeMeters>
            <DistanceMeters>NAN</DistanceMeters>
          </Trackpoint>
          <Trackpoint>
            <Time>2022-07-11T10:20:48.000Z</Time>
            <Position>
              <LatitudeDegrees>43.27200653962790966033935546875</LatitudeDegrees>
              <LongitudeDegrees>-2.59572847746312618255615234375</LongitudeDegrees>
            </Position>
            <AltitudeMeters>200.8000030517578125</AltitudeMeters>
            <DistanceMeters>NAN</DistanceMeters>
          </Trackpoint>
          <Trackpoint>
            <Time>2022-07-11T10:20:51.000Z</Time>
            <Position>
              <LatitudeDegrees>43.27207560651004314422607421875</LatitudeDegrees>
              <LongitudeDegrees>-2.59575915522873401641845703125</LongitudeDegrees>
            </Position>
            <AltitudeMeters>201</AltitudeMeters>
            <DistanceMeters>NAN</DistanceMeters>
          </Trackpoint>
          <Trackpoint>
            <Time>2022-07-11T10:20:57.000Z</Time>
            <Position>
              <LatitudeDegrees>43.27228766866028308868408203125</LatitudeDegrees>
              <LongitudeDegrees>-2.59592159651219844818115234375</LongitudeDegrees>
            </Position>
            <AltitudeMeters>201</AltitudeMeters>
            <DistanceMeters>NAN</DistanceMeters>
          </Trackpoint>
          <Trackpoint>
            <Time>2022-07-11T10:21:03.000Z</Time>
            <Position>
              <LatitudeDegrees>43.27240551821887493133544921875</LatitudeDegrees>
              <LongitudeDegrees>-2.59613089263439178466796875</LongitudeDegrees>
            </Position>
            <AltitudeMeters>200.8000030517578125</AltitudeMeters>
            <DistanceMeters>NAN</DistanceMeters>
          </Trackpoint>
          <Trackpoint>
            <Time>2022-07-11T10:21:08.000Z</Time>
            <Position>
              <LatitudeDegrees>43.27242496423423290252685546875</LatitudeDegrees>
              <LongitudeDegrees>-2.5963513366878032684326171875</LongitudeDegrees>
            </Position>
            <AltitudeMeters>201</AltitudeMeters>
            <DistanceMeters>NAN</DistanceMeters>
          </Trackpoint>
          <Trackpoint>
            <Time>2022-07-11T10:21:15.000Z</Time>
            <Position>
              <LatitudeDegrees>43.272347263991832733154296875</LatitudeDegrees>
              <LongitudeDegrees>-2.5966425240039825439453125</LongitudeDegrees>
            </Position>
            <AltitudeMeters>201.1999969482421875</AltitudeMeters>
            <DistanceMeters>NAN</DistanceMeters>
          </Trackpoint>
          <Trackpoint>
            <Time>2022-07-11T10:21:22.000Z</Time>
            <Position>
              <LatitudeDegrees>43.27225766144692897796630859375</LatitudeDegrees>
              <LongitudeDegrees>-2.596911750733852386474609375</LongitudeDegrees>
            </Position>
            <AltitudeMeters>201.399993896484375</AltitudeMeters>
            <DistanceMeters>NAN</DistanceMeters>
          </Trackpoint>
          <Trackpoint>
            <Time>2022-07-11T10:21:29.000Z</Time>
            <Position>
              <LatitudeDegrees>43.27213243581354618072509765625</LatitudeDegrees>
              <LongitudeDegrees>-2.59713898412883281707763671875</LongitudeDegrees>
            </Position>
            <AltitudeMeters>201.600006103515625</AltitudeMeters>
            <DistanceMeters>NAN</DistanceMeters>
          </Trackpoint>
          <Trackpoint>
            <Time>2022-07-11T10:21:34.000Z</Time>
            <Position>
              <LatitudeDegrees>43.27206957153975963592529296875</LatitudeDegrees>
              <LongitudeDegrees>-2.597332857549190521240234375</LongitudeDegrees>
            </Position>
            <AltitudeMeters>201.8000030517578125</AltitudeMeters>
            <DistanceMeters>NAN</DistanceMeters>
          </Trackpoint>
          <Trackpoint>
            <Time>2022-07-11T10:21:36.000Z</Time>
            <Position>
              <LatitudeDegrees>43.2720349542796611785888671875</LatitudeDegrees>
              <LongitudeDegrees>-2.597418688237667083740234375</LongitudeDegrees>
            </Position>
            <AltitudeMeters>201.8000030517578125</AltitudeMeters>
            <DistanceMeters>NAN</DistanceMeters>
          </Trackpoint>
          <Trackpoint>
            <Time>2022-07-11T10:21:40.000Z</Time>
            <Position>
              <LatitudeDegrees>43.27196395955979824066162109375</LatitudeDegrees>
              <LongitudeDegrees>-2.59755807928740978240966796875</LongitudeDegrees>
            </Position>
            <AltitudeMeters>202</AltitudeMeters>
            <DistanceMeters>NAN</DistanceMeters>
          </Trackpoint>
          <Trackpoint>
            <Time>2022-07-11T10:21:43.000Z</Time>
            <Position>
              <LatitudeDegrees>43.27191785909235477447509765625</LatitudeDegrees>
              <LongitudeDegrees>-2.59767525829374790191650390625</LongitudeDegrees>
            </Position>
            <AltitudeMeters>202</AltitudeMeters>
            <DistanceMeters>NAN</DistanceMeters>
          </Trackpoint>
          <Trackpoint>
            <Time>2022-07-11T10:21:49.000Z</Time>
            <Position>
              <LatitudeDegrees>43.27185331843793392181396484375</LatitudeDegrees>
              <LongitudeDegrees>-2.5979125499725341796875</LongitudeDegrees>
            </Position>
            <AltitudeMeters>202.1999969482421875</AltitudeMeters>
            <DistanceMeters>NAN</DistanceMeters>
          </Trackpoint>
          <Trackpoint>
            <Time>2022-07-11T10:22:00.000Z</Time>
            <Position>
              <LatitudeDegrees>43.27175843529403209686279296875</LatitudeDegrees>
              <LongitudeDegrees>-2.5983549468219280242919921875</LongitudeDegrees>
            </Position>
            <AltitudeMeters>202.600006103515625</AltitudeMeters>
            <DistanceMeters>NAN</DistanceMeters>
          </Trackpoint>
          <Trackpoint>
            <Time>2022-07-11T10:22:07.000Z</Time>
            <Position>
              <LatitudeDegrees>43.271608650684356689453125</LatitudeDegrees>
              <LongitudeDegrees>-2.59856541641056537628173828125</LongitudeDegrees>
            </Position>
            <AltitudeMeters>202.8000030517578125</AltitudeMeters>
            <DistanceMeters>NAN</DistanceMeters>
          </Trackpoint>
          <Trackpoint>
            <Time>2022-07-11T10:22:10.000Z</Time>
            <Position>
              <LatitudeDegrees>43.2715488038957118988037109375</LatitudeDegrees>
              <LongitudeDegrees>-2.59867991320788860321044921875</LongitudeDegrees>
            </Position>
            <AltitudeMeters>202.8000030517578125</AltitudeMeters>
            <DistanceMeters>NAN</DistanceMeters>
          </Trackpoint>
          <Trackpoint>
            <Time>2022-07-11T10:22:12.000Z</Time>
            <Position>
              <LatitudeDegrees>43.27153011225163936614990234375</LatitudeDegrees>
              <LongitudeDegrees>-2.59877261705696582794189453125</LongitudeDegrees>
            </Position>
            <AltitudeMeters>203</AltitudeMeters>
            <DistanceMeters>NAN</DistanceMeters>
          </Trackpoint>
          <Trackpoint>
            <Time>2022-07-11T10:22:19.000Z</Time>
            <Position>
              <LatitudeDegrees>43.27154268510639667510986328125</LatitudeDegrees>
              <LongitudeDegrees>-2.59905517101287841796875</LongitudeDegrees>
            </Position>
            <AltitudeMeters>203.1999969482421875</AltitudeMeters>
            <DistanceMeters>NAN</DistanceMeters>
          </Trackpoint>
          <Trackpoint>
            <Time>2022-07-11T10:22:25.000Z</Time>
            <Position>
              <LatitudeDegrees>43.271596245467662811279296875</LatitudeDegrees>
              <LongitudeDegrees>-2.59926044382154941558837890625</LongitudeDegrees>
            </Position>
            <AltitudeMeters>203.399993896484375</AltitudeMeters>
            <DistanceMeters>NAN</DistanceMeters>
          </Trackpoint>
          <Trackpoint>
            <Time>2022-07-11T10:22:31.000Z</Time>
            <Position>
              <LatitudeDegrees>43.2717271707952022552490234375</LatitudeDegrees>
              <LongitudeDegrees>-2.59940193034708499908447265625</LongitudeDegrees>
            </Position>
            <AltitudeMeters>203.8000030517578125</AltitudeMeters>
            <DistanceMeters>NAN</DistanceMeters>
          </Trackpoint>
          <Trackpoint>
            <Time>2022-07-11T10:22:34.000Z</Time>
            <Position>
              <LatitudeDegrees>43.271786682307720184326171875</LatitudeDegrees>
              <LongitudeDegrees>-2.5994637049734592437744140625</LongitudeDegrees>
            </Position>
            <AltitudeMeters>203.8000030517578125</AltitudeMeters>
            <DistanceMeters>NAN</DistanceMeters>
          </Trackpoint>
          <Trackpoint>
            <Time>2022-07-11T10:22:39.000Z</Time>
            <Position>
              <LatitudeDegrees>43.271873183548450469970703125</LatitudeDegrees>
              <LongitudeDegrees>-2.59956588037312030792236328125</LongitudeDegrees>
            </Position>
            <AltitudeMeters>204</AltitudeMeters>
            <DistanceMeters>NAN</DistanceMeters>
          </Trackpoint>
          <Trackpoint>
            <Time>2022-07-11T10:22:42.000Z</Time>
            <Position>
              <LatitudeDegrees>43.27187762595713138580322265625</LatitudeDegrees>
              <LongitudeDegrees>-2.5995699875056743621826171875</LongitudeDegrees>
            </Position>
            <AltitudeMeters>203.600006103515625</AltitudeMeters>
            <DistanceMeters>NAN</DistanceMeters>
          </Trackpoint>
          <Trackpoint>
            <Time>2022-07-11T10:28:53.000Z</Time>
            <Position>
              <LatitudeDegrees>43.27188382856547832489013671875</LatitudeDegrees>
              <LongitudeDegrees>-2.5996010005474090576171875</LongitudeDegrees>
            </Position>
            <AltitudeMeters>203.1999969482421875</AltitudeMeters>
            <DistanceMeters>NAN</DistanceMeters>
          </Trackpoint>
          <Trackpoint>
            <Time>2022-07-11T10:28:54.000Z</Time>
            <Position>
              <LatitudeDegrees>43.27189791016280651092529296875</LatitudeDegrees>
              <LongitudeDegrees>-2.59963008575141429901123046875</LongitudeDegrees>
            </Position>
            <AltitudeMeters>203.1999969482421875</AltitudeMeters>
            <DistanceMeters>NAN</DistanceMeters>
          </Trackpoint>
          <Trackpoint>
            <Time>2022-07-11T10:28:57.000Z</Time>
            <Position>
              <LatitudeDegrees>43.27191584743559360504150390625</LatitudeDegrees>
              <LongitudeDegrees>-2.59973938576877117156982421875</LongitudeDegrees>
            </Position>
            <AltitudeMeters>205.399993896484375</AltitudeMeters>
            <DistanceMeters>NAN</DistanceMeters>
          </Trackpoint>
          <Trackpoint>
            <Time>2022-07-11T10:28:58.000Z</Time>
            <Position>
              <LatitudeDegrees>43.2719169370830059051513671875</LatitudeDegrees>
              <LongitudeDegrees>-2.5997793674468994140625</LongitudeDegrees>
            </Position>
            <AltitudeMeters>205.600006103515625</AltitudeMeters>
            <DistanceMeters>NAN</DistanceMeters>
          </Trackpoint>
          <Trackpoint>
            <Time>2022-07-11T10:29:03.000Z</Time>
            <Position>
              <LatitudeDegrees>43.27191618271172046661376953125</LatitudeDegrees>
              <LongitudeDegrees>-2.59997181594371795654296875</LongitudeDegrees>
            </Position>
            <AltitudeMeters>206.1999969482421875</AltitudeMeters>
            <DistanceMeters>NAN</DistanceMeters>
          </Trackpoint>
          <Trackpoint>
            <Time>2022-07-11T10:29:10.000Z</Time>
            <Position>
              <LatitudeDegrees>43.27184091322124004364013671875</LatitudeDegrees>
              <LongitudeDegrees>-2.60024783201515674591064453125</LongitudeDegrees>
            </Position>
            <AltitudeMeters>206.1999969482421875</AltitudeMeters>
            <DistanceMeters>NAN</DistanceMeters>
          </Trackpoint>
          <Trackpoint>
            <Time>2022-07-11T10:29:14.000Z</Time>
            <Position>
              <LatitudeDegrees>43.27180654741823673248291015625</LatitudeDegrees>
              <LongitudeDegrees>-2.60039149783551692962646484375</LongitudeDegrees>
            </Position>
            <AltitudeMeters>206.399993896484375</AltitudeMeters>
            <DistanceMeters>NAN</DistanceMeters>
          </Trackpoint>
          <Trackpoint>
            <Time>2022-07-11T10:29:16.000Z</Time>
            <Position>
              <LatitudeDegrees>43.27178358100354671478271484375</LatitudeDegrees>
              <LongitudeDegrees>-2.6004748977720737457275390625</LongitudeDegrees>
            </Position>
            <AltitudeMeters>206.399993896484375</AltitudeMeters>
            <DistanceMeters>NAN</DistanceMeters>
          </Trackpoint>
          <Trackpoint>
            <Time>2022-07-11T10:29:23.000Z</Time>
            <Position>
              <LatitudeDegrees>43.2716839201748371124267578125</LatitudeDegrees>
              <LongitudeDegrees>-2.60070741176605224609375</LongitudeDegrees>
            </Position>
            <AltitudeMeters>206.8000030517578125</AltitudeMeters>
            <DistanceMeters>NAN</DistanceMeters>
          </Trackpoint>
          <Trackpoint>
            <Time>2022-07-11T10:29:26.000Z</Time>
            <Position>
              <LatitudeDegrees>43.2716101594269275665283203125</LatitudeDegrees>
              <LongitudeDegrees>-2.60079081170260906219482421875</LongitudeDegrees>
            </Position>
            <AltitudeMeters>206.8000030517578125</AltitudeMeters>
            <DistanceMeters>NAN</DistanceMeters>
          </Trackpoint>
          <Trackpoint>
            <Time>2022-07-11T10:29:31.000Z</Time>
            <Position>
              <LatitudeDegrees>43.27147789299488067626953125</LatitudeDegrees>
              <LongitudeDegrees>-2.60090162046253681182861328125</LongitudeDegrees>
            </Position>
            <AltitudeMeters>206.8000030517578125</AltitudeMeters>
            <DistanceMeters>NAN</DistanceMeters>
          </Trackpoint>
          <Trackpoint>
            <Time>2022-07-11T10:29:34.000Z</Time>
            <Position>
              <LatitudeDegrees>43.27138225547969341278076171875</LatitudeDegrees>
              <LongitudeDegrees>-2.600972950458526611328125</LongitudeDegrees>
            </Position>
            <AltitudeMeters>206.8000030517578125</AltitudeMeters>
            <DistanceMeters>NAN</DistanceMeters>
          </Trackpoint>
          <Trackpoint>
            <Time>2022-07-11T10:29:37.000Z</Time>
            <Position>
              <LatitudeDegrees>43.27128720469772815704345703125</LatitudeDegrees>
              <LongitudeDegrees>-2.60104595683515071868896484375</LongitudeDegrees>
            </Position>
            <AltitudeMeters>206.8000030517578125</AltitudeMeters>
            <DistanceMeters>NAN</DistanceMeters>
          </Trackpoint>
          <Trackpoint>
            <Time>2022-07-11T10:29:38.000Z</Time>
            <Position>
              <LatitudeDegrees>43.27125686220824718475341796875</LatitudeDegrees>
              <LongitudeDegrees>-2.601069845259189605712890625</LongitudeDegrees>
            </Position>
            <AltitudeMeters>206.8000030517578125</AltitudeMeters>
            <DistanceMeters>NAN</DistanceMeters>
          </Trackpoint>
          <Trackpoint>
            <Time>2022-07-11T10:29:39.000Z</Time>
            <Position>
              <LatitudeDegrees>43.27122920192778110504150390625</LatitudeDegrees>
              <LongitudeDegrees>-2.6010968349874019622802734375</LongitudeDegrees>
            </Position>
            <AltitudeMeters>206.8000030517578125</AltitudeMeters>
            <DistanceMeters>NAN</DistanceMeters>
          </Trackpoint>
          <Trackpoint>
            <Time>2022-07-11T10:29:40.000Z</Time>
            <Position>
              <LatitudeDegrees>43.27120020054280757904052734375</LatitudeDegrees>
              <LongitudeDegrees>-2.6011266745626926422119140625</LongitudeDegrees>
            </Position>
            <AltitudeMeters>206.8000030517578125</AltitudeMeters>
            <DistanceMeters>NAN</DistanceMeters>
          </Trackpoint>
          <Trackpoint>
            <Time>2022-07-11T10:29:41.000Z</Time>
            <Position>
              <LatitudeDegrees>43.27116935513913631439208984375</LatitudeDegrees>
              <LongitudeDegrees>-2.60115575976669788360595703125</LongitudeDegrees>
            </Position>
            <AltitudeMeters>206.8000030517578125</AltitudeMeters>
            <DistanceMeters>NAN</DistanceMeters>
          </Trackpoint>
          <Trackpoint>
            <Time>2022-07-11T10:29:43.000Z</Time>
            <Position>
              <LatitudeDegrees>43.2710988633334636688232421875</LatitudeDegrees>
              <LongitudeDegrees>-2.60121543891727924346923828125</LongitudeDegrees>
            </Position>
            <AltitudeMeters>206.8000030517578125</AltitudeMeters>
            <DistanceMeters>NAN</DistanceMeters>
          </Trackpoint>
          <Trackpoint>
            <Time>2022-07-11T10:29:50.000Z</Time>
            <Position>
              <LatitudeDegrees>43.27085369266569614410400390625</LatitudeDegrees>
              <LongitudeDegrees>-2.6014451868832111358642578125</LongitudeDegrees>
            </Position>
            <AltitudeMeters>206.399993896484375</AltitudeMeters>
            <DistanceMeters>NAN</DistanceMeters>
          </Trackpoint>
          <Trackpoint>
            <Time>2022-07-11T10:29:56.000Z</Time>
            <Position>
              <LatitudeDegrees>43.2706640101969242095947265625</LatitudeDegrees>
              <LongitudeDegrees>-2.6016450114548206329345703125</LongitudeDegrees>
            </Position>
            <AltitudeMeters>206.1999969482421875</AltitudeMeters>
            <DistanceMeters>NAN</DistanceMeters>
          </Trackpoint>
          <Trackpoint>
            <Time>2022-07-11T10:30:02.000Z</Time>
            <Position>
              <LatitudeDegrees>43.2704366929829120635986328125</LatitudeDegrees>
              <LongitudeDegrees>-2.60181851685047149658203125</LongitudeDegrees>
            </Position>
            <AltitudeMeters>205.600006103515625</AltitudeMeters>
            <DistanceMeters>NAN</DistanceMeters>
          </Trackpoint>
          <Trackpoint>
            <Time>2022-07-11T10:30:04.000Z</Time>
            <Position>
              <LatitudeDegrees>43.27039168216288089752197265625</LatitudeDegrees>
              <LongitudeDegrees>-2.601935863494873046875</LongitudeDegrees>
            </Position>
            <AltitudeMeters>205.600006103515625</AltitudeMeters>
            <DistanceMeters>NAN</DistanceMeters>
          </Trackpoint>
          <Trackpoint>
            <Time>2022-07-11T10:30:05.000Z</Time>
            <Position>
              <LatitudeDegrees>43.27038397081196308135986328125</LatitudeDegrees>
              <LongitudeDegrees>-2.6019895076751708984375</LongitudeDegrees>
            </Position>
            <AltitudeMeters>205.600006103515625</AltitudeMeters>
            <DistanceMeters>NAN</DistanceMeters>
          </Trackpoint>
          <Trackpoint>
            <Time>2022-07-11T10:30:06.000Z</Time>
            <Position>
              <LatitudeDegrees>43.27039335854351520538330078125</LatitudeDegrees>
              <LongitudeDegrees>-2.60203778743743896484375</LongitudeDegrees>
            </Position>
            <AltitudeMeters>205.600006103515625</AltitudeMeters>
            <DistanceMeters>NAN</DistanceMeters>
          </Trackpoint>
          <Trackpoint>
            <Time>2022-07-11T10:30:10.000Z</Time>
            <Position>
              <LatitudeDegrees>43.270511627197265625</LatitudeDegrees>
              <LongitudeDegrees>-2.6021874882280826568603515625</LongitudeDegrees>
            </Position>
            <AltitudeMeters>205.8000030517578125</AltitudeMeters>
            <DistanceMeters>NAN</DistanceMeters>
          </Trackpoint>
          <Trackpoint>
            <Time>2022-07-11T10:30:16.000Z</Time>
            <Position>
              <LatitudeDegrees>43.2707005552947521209716796875</LatitudeDegrees>
              <LongitudeDegrees>-2.60229268111288547515869140625</LongitudeDegrees>
            </Position>
            <AltitudeMeters>206.1999969482421875</AltitudeMeters>
            <DistanceMeters>NAN</DistanceMeters>
          </Trackpoint>
          <Trackpoint>
            <Time>2022-07-11T10:30:19.000Z</Time>
            <Position>
              <LatitudeDegrees>43.27078278176486492156982421875</LatitudeDegrees>
              <LongitudeDegrees>-2.6023065112531185150146484375</LongitudeDegrees>
            </Position>
            <AltitudeMeters>206.399993896484375</AltitudeMeters>
            <DistanceMeters>NAN</DistanceMeters>
          </Trackpoint>
          <Trackpoint>
            <Time>2022-07-11T10:30:21.000Z</Time>
            <Position>
              <LatitudeDegrees>43.27084363438189029693603515625</LatitudeDegrees>
              <LongitudeDegrees>-2.60231464169919490814208984375</LongitudeDegrees>
            </Position>
            <AltitudeMeters>206.399993896484375</AltitudeMeters>
            <DistanceMeters>NAN</DistanceMeters>
          </Trackpoint>
          <Trackpoint>
            <Time>2022-07-11T10:30:23.000Z</Time>
            <Position>
              <LatitudeDegrees>43.27090331353247165679931640625</LatitudeDegrees>
              <LongitudeDegrees>-2.6023172400891780853271484375</LongitudeDegrees>
            </Position>
            <AltitudeMeters>206.600006103515625</AltitudeMeters>
            <DistanceMeters>NAN</DistanceMeters>
          </Trackpoint>
          <Trackpoint>
            <Time>2022-07-11T10:30:32.000Z</Time>
            <Position>
              <LatitudeDegrees>43.27113465406000614166259765625</LatitudeDegrees>
              <LongitudeDegrees>-2.6023061759769916534423828125</LongitudeDegrees>
            </Position>
            <AltitudeMeters>207.1999969482421875</AltitudeMeters>
            <DistanceMeters>NAN</DistanceMeters>
          </Trackpoint>
          <Trackpoint>
            <Time>2022-07-11T10:30:34.000Z</Time>
            <Position>
              <LatitudeDegrees>43.271177150309085845947265625</LatitudeDegrees>
              <LongitudeDegrees>-2.60230533778667449951171875</LongitudeDegrees>
            </Position>
            <AltitudeMeters>207.1999969482421875</AltitudeMeters>
            <DistanceMeters>NAN</DistanceMeters>
          </Trackpoint>
          <Trackpoint>
            <Time>2022-07-11T10:30:35.000Z</Time>
            <Position>
              <LatitudeDegrees>43.271202631294727325439453125</LatitudeDegrees>
              <LongitudeDegrees>-2.6023041643202304840087890625</LongitudeDegrees>
            </Position>
            <AltitudeMeters>207.399993896484375</AltitudeMeters>
            <DistanceMeters>NAN</DistanceMeters>
          </Trackpoint>
          <Trackpoint>
            <Time>2022-07-11T10:30:39.000Z</Time>
            <Position>
              <LatitudeDegrees>43.27128670178353786468505859375</LatitudeDegrees>
              <LongitudeDegrees>-2.6023162342607975006103515625</LongitudeDegrees>
            </Position>
            <AltitudeMeters>207.8000030517578125</AltitudeMeters>
            <DistanceMeters>NAN</DistanceMeters>
          </Trackpoint>
          <Trackpoint>
            <Time>2022-07-11T10:30:45.000Z</Time>
            <Position>
              <LatitudeDegrees>43.27142768539488315582275390625</LatitudeDegrees>
              <LongitudeDegrees>-2.60235068388283252716064453125</LongitudeDegrees>
            </Position>
            <AltitudeMeters>208</AltitudeMeters>
            <DistanceMeters>NAN</DistanceMeters>
          </Trackpoint>
          <Trackpoint>
            <Time>2022-07-11T10:30:52.000Z</Time>
            <Position>
              <LatitudeDegrees>43.2715702615678310394287109375</LatitudeDegrees>
              <LongitudeDegrees>-2.60242628864943981170654296875</LongitudeDegrees>
            </Position>
            <AltitudeMeters>208.1999969482421875</AltitudeMeters>
            <DistanceMeters>NAN</DistanceMeters>
          </Trackpoint>
          <Trackpoint>
            <Time>2022-07-11T10:30:54.000Z</Time>
            <Position>
              <LatitudeDegrees>43.2716046273708343505859375</LatitudeDegrees>
              <LongitudeDegrees>-2.6024629175662994384765625</LongitudeDegrees>
            </Position>
            <AltitudeMeters>208.399993896484375</AltitudeMeters>
            <DistanceMeters>NAN</DistanceMeters>
          </Trackpoint>
          <Trackpoint>
            <Time>2022-07-11T10:30:59.000Z</Time>
            <Position>
              <LatitudeDegrees>43.27166162431240081787109375</LatitudeDegrees>
              <LongitudeDegrees>-2.60259945876896381378173828125</LongitudeDegrees>
            </Position>
            <AltitudeMeters>208.600006103515625</AltitudeMeters>
            <DistanceMeters>NAN</DistanceMeters>
          </Trackpoint>
          <Trackpoint>
            <Time>2022-07-11T10:31:08.000Z</Time>
            <Position>
              <LatitudeDegrees>43.2716768793761730194091796875</LatitudeDegrees>
              <LongitudeDegrees>-2.60294278152287006378173828125</LongitudeDegrees>
            </Position>
            <AltitudeMeters>209</AltitudeMeters>
            <DistanceMeters>NAN</DistanceMeters>
          </Trackpoint>
          <Trackpoint>
            <Time>2022-07-11T10:31:16.000Z</Time>
            <Position>
              <LatitudeDegrees>43.2716430164873600006103515625</LatitudeDegrees>
              <LongitudeDegrees>-2.6032944023609161376953125</LongitudeDegrees>
            </Position>
            <AltitudeMeters>208.8000030517578125</AltitudeMeters>
            <DistanceMeters>NAN</DistanceMeters>
          </Trackpoint>
          <Trackpoint>
            <Time>2022-07-11T10:31:25.000Z</Time>
            <Position>
              <LatitudeDegrees>43.27162030152976512908935546875</LatitudeDegrees>
              <LongitudeDegrees>-2.60366387665271759033203125</LongitudeDegrees>
            </Position>
            <AltitudeMeters>209.1999969482421875</AltitudeMeters>
            <DistanceMeters>NAN</DistanceMeters>
          </Trackpoint>
          <Trackpoint>
            <Time>2022-07-11T10:31:28.000Z</Time>
            <Position>
              <LatitudeDegrees>43.271623738110065460205078125</LatitudeDegrees>
              <LongitudeDegrees>-2.60379656217992305755615234375</LongitudeDegrees>
            </Position>
            <AltitudeMeters>209.399993896484375</AltitudeMeters>
            <DistanceMeters>NAN</DistanceMeters>
          </Trackpoint>
          <Trackpoint>
            <Time>2022-07-11T10:31:33.000Z</Time>
            <Position>
              <LatitudeDegrees>43.27161527238786220550537109375</LatitudeDegrees>
              <LongitudeDegrees>-2.6040378771722316741943359375</LongitudeDegrees>
            </Position>
            <AltitudeMeters>209.600006103515625</AltitudeMeters>
            <DistanceMeters>NAN</DistanceMeters>
          </Trackpoint>
          <Trackpoint>
            <Time>2022-07-11T10:31:37.000Z</Time>
            <Position>
              <LatitudeDegrees>43.2716185413300991058349609375</LatitudeDegrees>
              <LongitudeDegrees>-2.6041983067989349365234375</LongitudeDegrees>
            </Position>
            <AltitudeMeters>209.8000030517578125</AltitudeMeters>
            <DistanceMeters>NAN</DistanceMeters>
          </Trackpoint>
          <Trackpoint>
            <Time>2022-07-11T10:31:42.000Z</Time>
            <Position>
              <LatitudeDegrees>43.27169205062091350555419921875</LatitudeDegrees>
              <LongitudeDegrees>-2.6044023223221302032470703125</LongitudeDegrees>
            </Position>
            <AltitudeMeters>209.8000030517578125</AltitudeMeters>
            <DistanceMeters>NAN</DistanceMeters>
          </Trackpoint>
          <Trackpoint>
            <Time>2022-07-11T10:31:46.000Z</Time>
            <Position>
              <LatitudeDegrees>43.2717090658843517303466796875</LatitudeDegrees>
              <LongitudeDegrees>-2.60454975999891757965087890625</LongitudeDegrees>
            </Position>
            <AltitudeMeters>209.8000030517578125</AltitudeMeters>
            <DistanceMeters>NAN</DistanceMeters>
          </Trackpoint>
          <Trackpoint>
            <Time>2022-07-11T10:31:51.000Z</Time>
            <Position>
              <LatitudeDegrees>43.27166925184428691864013671875</LatitudeDegrees>
              <LongitudeDegrees>-2.60476115159690380096435546875</LongitudeDegrees>
            </Position>
            <AltitudeMeters>210.1999969482421875</AltitudeMeters>
            <DistanceMeters>NAN</DistanceMeters>
          </Trackpoint>
          <Trackpoint>
            <Time>2022-07-11T10:31:55.000Z</Time>
            <Position>
              <LatitudeDegrees>43.271683417260646820068359375</LatitudeDegrees>
              <LongitudeDegrees>-2.60493884794414043426513671875</LongitudeDegrees>
            </Position>
            <AltitudeMeters>210.399993896484375</AltitudeMeters>
            <DistanceMeters>NAN</DistanceMeters>
          </Trackpoint>
          <Trackpoint>
            <Time>2022-07-11T10:32:01.000Z</Time>
            <Position>
              <LatitudeDegrees>43.27169171534478664398193359375</LatitudeDegrees>
              <LongitudeDegrees>-2.60520748794078826904296875</LongitudeDegrees>
            </Position>
            <AltitudeMeters>210.399993896484375</AltitudeMeters>
            <DistanceMeters>NAN</DistanceMeters>
          </Trackpoint>
          <Trackpoint>
            <Time>2022-07-11T10:32:03.000Z</Time>
            <Position>
              <LatitudeDegrees>43.2716909609735012054443359375</LatitudeDegrees>
              <LongitudeDegrees>-2.605280578136444091796875</LongitudeDegrees>
            </Position>
            <AltitudeMeters>210.600006103515625</AltitudeMeters>
            <DistanceMeters>NAN</DistanceMeters>
          </Trackpoint>
          <Trackpoint>
            <Time>2022-07-11T10:32:11.000Z</Time>
            <Position>
              <LatitudeDegrees>43.271706886589527130126953125</LatitudeDegrees>
              <LongitudeDegrees>-2.60563253425061702728271484375</LongitudeDegrees>
            </Position>
            <AltitudeMeters>211</AltitudeMeters>
            <DistanceMeters>NAN</DistanceMeters>
          </Trackpoint>
          <Trackpoint>
            <Time>2022-07-11T10:32:17.000Z</Time>
            <Position>
              <LatitudeDegrees>43.27169976197183132171630859375</LatitudeDegrees>
              <LongitudeDegrees>-2.6058604381978511810302734375</LongitudeDegrees>
            </Position>
            <AltitudeMeters>211.1999969482421875</AltitudeMeters>
            <DistanceMeters>NAN</DistanceMeters>
          </Trackpoint>
          <Trackpoint>
            <Time>2022-07-11T10:32:23.000Z</Time>
            <Position>
              <LatitudeDegrees>43.271689116954803466796875</LatitudeDegrees>
              <LongitudeDegrees>-2.60609823279082775115966796875</LongitudeDegrees>
            </Position>
            <AltitudeMeters>211.399993896484375</AltitudeMeters>
            <DistanceMeters>NAN</DistanceMeters>
          </Trackpoint>
          <Trackpoint>
            <Time>2022-07-11T10:32:24.000Z</Time>
            <Position>
              <LatitudeDegrees>43.27168316580355167388916015625</LatitudeDegrees>
              <LongitudeDegrees>-2.60613293386995792388916015625</LongitudeDegrees>
            </Position>
            <AltitudeMeters>211.600006103515625</AltitudeMeters>
            <DistanceMeters>NAN</DistanceMeters>
          </Trackpoint>
          <Trackpoint>
            <Time>2022-07-11T10:32:29.000Z</Time>
            <Position>
              <LatitudeDegrees>43.2716544158756732940673828125</LatitudeDegrees>
              <LongitudeDegrees>-2.60632923804223537445068359375</LongitudeDegrees>
            </Position>
            <AltitudeMeters>211.8000030517578125</AltitudeMeters>
            <DistanceMeters>NAN</DistanceMeters>
          </Trackpoint>
          <Trackpoint>
            <Time>2022-07-11T10:32:37.000Z</Time>
            <Position>
              <LatitudeDegrees>43.27155408449470996856689453125</LatitudeDegrees>
              <LongitudeDegrees>-2.606575749814510345458984375</LongitudeDegrees>
            </Position>
            <AltitudeMeters>212</AltitudeMeters>
            <DistanceMeters>NAN</DistanceMeters>
          </Trackpoint>
          <Trackpoint>
            <Time>2022-07-11T10:32:43.000Z</Time>
            <Position>
              <LatitudeDegrees>43.271463811397552490234375</LatitudeDegrees>
              <LongitudeDegrees>-2.6067261211574077606201171875</LongitudeDegrees>
            </Position>
            <AltitudeMeters>212.1999969482421875</AltitudeMeters>
            <DistanceMeters>NAN</DistanceMeters>
          </Trackpoint>
          <Trackpoint>
            <Time>2022-07-11T10:32:49.000Z</Time>
            <Position>
              <LatitudeDegrees>43.2713295333087444305419921875</LatitudeDegrees>
              <LongitudeDegrees>-2.60683114640414714813232421875</LongitudeDegrees>
            </Position>
            <AltitudeMeters>212.600006103515625</AltitudeMeters>
            <DistanceMeters>NAN</DistanceMeters>
          </Trackpoint>
          <Trackpoint>
            <Time>2022-07-11T10:32:54.000Z</Time>
            <Position>
              <LatitudeDegrees>43.2712041400372982025146484375</LatitudeDegrees>
              <LongitudeDegrees>-2.60690222494304180145263671875</LongitudeDegrees>
            </Position>
            <AltitudeMeters>212.600006103515625</AltitudeMeters>
            <DistanceMeters>NAN</DistanceMeters>
          </Trackpoint>
          <Trackpoint>
            <Time>2022-07-11T10:33:03.000Z</Time>
            <Position>
              <LatitudeDegrees>43.2710086740553379058837890625</LatitudeDegrees>
              <LongitudeDegrees>-2.6070298813283443450927734375</LongitudeDegrees>
            </Position>
            <AltitudeMeters>213</AltitudeMeters>
            <DistanceMeters>NAN</DistanceMeters>
          </Trackpoint>
          <Trackpoint>
            <Time>2022-07-11T10:33:08.000Z</Time>
            <Position>
              <LatitudeDegrees>43.2709657587110996246337890625</LatitudeDegrees>
              <LongitudeDegrees>-2.60716457851231098175048828125</LongitudeDegrees>
            </Position>
            <AltitudeMeters>213.399993896484375</AltitudeMeters>
            <DistanceMeters>NAN</DistanceMeters>
          </Trackpoint>
          <Trackpoint>
            <Time>2022-07-11T10:33:13.000Z</Time>
            <Position>
              <LatitudeDegrees>43.2710036449134349822998046875</LatitudeDegrees>
              <LongitudeDegrees>-2.6072613894939422607421875</LongitudeDegrees>
            </Position>
            <AltitudeMeters>213.600006103515625</AltitudeMeters>
            <DistanceMeters>NAN</DistanceMeters>
          </Trackpoint>
          <Trackpoint>
            <Time>2022-07-11T10:33:16.000Z</Time>
            <Position>
              <LatitudeDegrees>43.271054439246654510498046875</LatitudeDegrees>
              <LongitudeDegrees>-2.607292234897613525390625</LongitudeDegrees>
            </Position>
            <AltitudeMeters>213.8000030517578125</AltitudeMeters>
            <DistanceMeters>NAN</DistanceMeters>
          </Trackpoint>
          <Trackpoint>
            <Time>2022-07-11T10:33:20.000Z</Time>
            <Position>
              <LatitudeDegrees>43.271116800606250762939453125</LatitudeDegrees>
              <LongitudeDegrees>-2.60731444694101810455322265625</LongitudeDegrees>
            </Position>
            <AltitudeMeters>214.399993896484375</AltitudeMeters>
            <DistanceMeters>NAN</DistanceMeters>
          </Trackpoint>
          <Trackpoint>
            <Time>2022-07-11T10:33:23.000Z</Time>
            <Position>
              <LatitudeDegrees>43.2711605541408061981201171875</LatitudeDegrees>
              <LongitudeDegrees>-2.6073219068348407745361328125</LongitudeDegrees>
            </Position>
            <AltitudeMeters>214.600006103515625</AltitudeMeters>
            <DistanceMeters>NAN</DistanceMeters>
          </Trackpoint>
          <Trackpoint>
            <Time>2022-07-11T10:33:28.000Z</Time>
            <Position>
              <LatitudeDegrees>43.27123171649873256683349609375</LatitudeDegrees>
              <LongitudeDegrees>-2.6073296181857585906982421875</LongitudeDegrees>
            </Position>
            <AltitudeMeters>215.1999969482421875</AltitudeMeters>
            <DistanceMeters>NAN</DistanceMeters>
          </Trackpoint>
          <Trackpoint>
            <Time>2022-07-11T10:33:31.000Z</Time>
            <Position>
              <LatitudeDegrees>43.271281085908412933349609375</LatitudeDegrees>
              <LongitudeDegrees>-2.6073312945663928985595703125</LongitudeDegrees>
            </Position>
            <AltitudeMeters>215.399993896484375</AltitudeMeters>
            <DistanceMeters>NAN</DistanceMeters>
          </Trackpoint>
          <Trackpoint>
            <Time>2022-07-11T10:33:33.000Z</Time>
            <Position>
              <LatitudeDegrees>43.2713107578456401824951171875</LatitudeDegrees>
              <LongitudeDegrees>-2.60733556933701038360595703125</LongitudeDegrees>
            </Position>
            <AltitudeMeters>215.600006103515625</AltitudeMeters>
            <DistanceMeters>NAN</DistanceMeters>
          </Trackpoint>
          <Trackpoint>
            <Time>2022-07-11T10:33:38.000Z</Time>
            <Position>
              <LatitudeDegrees>43.271385021507740020751953125</LatitudeDegrees>
              <LongitudeDegrees>-2.60733573697507381439208984375</LongitudeDegrees>
            </Position>
            <AltitudeMeters>216</AltitudeMeters>
            <DistanceMeters>NAN</DistanceMeters>
          </Trackpoint>
          <Trackpoint>
            <Time>2022-07-11T10:33:44.000Z</Time>
            <Position>
              <LatitudeDegrees>43.27147143892943859100341796875</LatitudeDegrees>
              <LongitudeDegrees>-2.6073380000889301300048828125</LongitudeDegrees>
            </Position>
            <AltitudeMeters>216.399993896484375</AltitudeMeters>
            <DistanceMeters>NAN</DistanceMeters>
          </Trackpoint>
          <Trackpoint>
            <Time>2022-07-11T10:33:49.000Z</Time>
            <Position>
              <LatitudeDegrees>43.27153882943093776702880859375</LatitudeDegrees>
              <LongitudeDegrees>-2.6073349826037883758544921875</LongitudeDegrees>
            </Position>
            <AltitudeMeters>216.8000030517578125</AltitudeMeters>
            <DistanceMeters>NAN</DistanceMeters>
          </Trackpoint>
          <Trackpoint>
            <Time>2022-07-11T10:33:53.000Z</Time>
            <Position>
              <LatitudeDegrees>43.27160504646599292755126953125</LatitudeDegrees>
              <LongitudeDegrees>-2.60734009556472301483154296875</LongitudeDegrees>
            </Position>
            <AltitudeMeters>217</AltitudeMeters>
            <DistanceMeters>NAN</DistanceMeters>
          </Trackpoint>
          <Trackpoint>
            <Time>2022-07-11T10:33:58.000Z</Time>
            <Position>
              <LatitudeDegrees>43.271686770021915435791015625</LatitudeDegrees>
              <LongitudeDegrees>-2.60733154602348804473876953125</LongitudeDegrees>
            </Position>
            <AltitudeMeters>217.8000030517578125</AltitudeMeters>
            <DistanceMeters>NAN</DistanceMeters>
          </Trackpoint>
          <Trackpoint>
            <Time>2022-07-11T10:34:00.000Z</Time>
            <Position>
              <LatitudeDegrees>43.27171929180622100830078125</LatitudeDegrees>
              <LongitudeDegrees>-2.6073229126632213592529296875</LongitudeDegrees>
            </Position>
            <AltitudeMeters>218</AltitudeMeters>
            <DistanceMeters>NAN</DistanceMeters>
          </Trackpoint>
          <Trackpoint>
            <Time>2022-07-11T10:34:10.000Z</Time>
            <Position>
              <LatitudeDegrees>43.27186278998851776123046875</LatitudeDegrees>
              <LongitudeDegrees>-2.6072602160274982452392578125</LongitudeDegrees>
            </Position>
            <AltitudeMeters>218.399993896484375</AltitudeMeters>
            <DistanceMeters>NAN</DistanceMeters>
          </Trackpoint>
          <Trackpoint>
            <Time>2022-07-11T10:34:11.000Z</Time>
            <Position>
              <LatitudeDegrees>43.271876536309719085693359375</LatitudeDegrees>
              <LongitudeDegrees>-2.60725594125688076019287109375</LongitudeDegrees>
            </Position>
            <AltitudeMeters>218.600006103515625</AltitudeMeters>
            <DistanceMeters>NAN</DistanceMeters>
          </Trackpoint>
          <Trackpoint>
            <Time>2022-07-11T10:34:15.000Z</Time>
            <Position>
              <LatitudeDegrees>43.27191450633108615875244140625</LatitudeDegrees>
              <LongitudeDegrees>-2.6072320528328418731689453125</LongitudeDegrees>
            </Position>
            <AltitudeMeters>218.8000030517578125</AltitudeMeters>
            <DistanceMeters>NAN</DistanceMeters>
          </Trackpoint>
          <Trackpoint>
            <Time>2022-07-11T10:34:16.000Z</Time>
            <Position>
              <LatitudeDegrees>43.271923474967479705810546875</LatitudeDegrees>
              <LongitudeDegrees>-2.607222162187099456787109375</LongitudeDegrees>
            </Position>
            <AltitudeMeters>218.8000030517578125</AltitudeMeters>
            <DistanceMeters>NAN</DistanceMeters>
          </Trackpoint>
          <Trackpoint>
            <Time>2022-07-11T10:34:24.000Z</Time>
            <Position>
              <LatitudeDegrees>43.272032104432582855224609375</LatitudeDegrees>
              <LongitudeDegrees>-2.60716860182583332061767578125</LongitudeDegrees>
            </Position>
            <AltitudeMeters>219.399993896484375</AltitudeMeters>
            <DistanceMeters>NAN</DistanceMeters>
          </Trackpoint>
          <Trackpoint>
            <Time>2022-07-11T10:34:30.000Z</Time>
            <Position>
              <LatitudeDegrees>43.27210896648466587066650390625</LatitudeDegrees>
              <LongitudeDegrees>-2.6071405224502086639404296875</LongitudeDegrees>
            </Position>
            <AltitudeMeters>219.8000030517578125</AltitudeMeters>
            <DistanceMeters>NAN</DistanceMeters>
          </Trackpoint>
          <Trackpoint>
            <Time>2022-07-11T10:34:36.000Z</Time>
            <Position>
              <LatitudeDegrees>43.27220636419951915740966796875</LatitudeDegrees>
              <LongitudeDegrees>-2.607128620147705078125</LongitudeDegrees>
            </Position>
            <AltitudeMeters>220</AltitudeMeters>
            <DistanceMeters>NAN</DistanceMeters>
          </Trackpoint>
          <Trackpoint>
            <Time>2022-07-11T10:34:43.000Z</Time>
            <Position>
              <LatitudeDegrees>43.2723175920546054840087890625</LatitudeDegrees>
              <LongitudeDegrees>-2.60709936730563640594482421875</LongitudeDegrees>
            </Position>
            <AltitudeMeters>220.1999969482421875</AltitudeMeters>
            <DistanceMeters>NAN</DistanceMeters>
          </Trackpoint>
          <Trackpoint>
            <Time>2022-07-11T10:34:50.000Z</Time>
            <Position>
              <LatitudeDegrees>43.27242337167263031005859375</LatitudeDegrees>
              <LongitudeDegrees>-2.60711763985455036163330078125</LongitudeDegrees>
            </Position>
            <AltitudeMeters>220.8000030517578125</AltitudeMeters>
            <DistanceMeters>NAN</DistanceMeters>
          </Trackpoint>
          <Trackpoint>
            <Time>2022-07-11T10:34:51.000Z</Time>
            <Position>
              <LatitudeDegrees>43.27243938110768795013427734375</LatitudeDegrees>
              <LongitudeDegrees>-2.607125937938690185546875</LongitudeDegrees>
            </Position>
            <AltitudeMeters>220.8000030517578125</AltitudeMeters>
            <DistanceMeters>NAN</DistanceMeters>
          </Trackpoint>
          <Trackpoint>
            <Time>2022-07-11T10:35:02.000Z</Time>
            <Position>
              <LatitudeDegrees>43.27260567806661128997802734375</LatitudeDegrees>
              <LongitudeDegrees>-2.6072337292134761810302734375</LongitudeDegrees>
            </Position>
            <AltitudeMeters>221.600006103515625</AltitudeMeters>
            <DistanceMeters>NAN</DistanceMeters>
          </Trackpoint>
          <Trackpoint>
            <Time>2022-07-11T10:35:07.000Z</Time>
            <Position>
              <LatitudeDegrees>43.2726640999317169189453125</LatitudeDegrees>
              <LongitudeDegrees>-2.60733850300312042236328125</LongitudeDegrees>
            </Position>
            <AltitudeMeters>221.600006103515625</AltitudeMeters>
            <DistanceMeters>NAN</DistanceMeters>
          </Trackpoint>
          <Trackpoint>
            <Time>2022-07-11T10:35:09.000Z</Time>
            <Position>
              <LatitudeDegrees>43.27269385568797588348388671875</LatitudeDegrees>
              <LongitudeDegrees>-2.6074144430458545684814453125</LongitudeDegrees>
            </Position>
            <AltitudeMeters>221.600006103515625</AltitudeMeters>
            <DistanceMeters>NAN</DistanceMeters>
          </Trackpoint>
          <Trackpoint>
            <Time>2022-07-11T10:35:10.000Z</Time>
            <Position>
              <LatitudeDegrees>43.27270978130400180816650390625</LatitudeDegrees>
              <LongitudeDegrees>-2.6074563525617122650146484375</LongitudeDegrees>
            </Position>
            <AltitudeMeters>221.600006103515625</AltitudeMeters>
            <DistanceMeters>NAN</DistanceMeters>
          </Trackpoint>
          <Trackpoint>
            <Time>2022-07-11T10:35:12.000Z</Time>
            <Position>
              <LatitudeDegrees>43.27274129725992679595947265625</LatitudeDegrees>
              <LongitudeDegrees>-2.60754696093499660491943359375</LongitudeDegrees>
            </Position>
            <AltitudeMeters>221.399993896484375</AltitudeMeters>
            <DistanceMeters>NAN</DistanceMeters>
          </Trackpoint>
          <Trackpoint>
            <Time>2022-07-11T10:35:14.000Z</Time>
            <Position>
              <LatitudeDegrees>43.272785134613513946533203125</LatitudeDegrees>
              <LongitudeDegrees>-2.6076531596481800079345703125</LongitudeDegrees>
            </Position>
            <AltitudeMeters>221.1999969482421875</AltitudeMeters>
            <DistanceMeters>NAN</DistanceMeters>
          </Trackpoint>
          <Trackpoint>
            <Time>2022-07-11T10:35:15.000Z</Time>
            <Position>
              <LatitudeDegrees>43.272785134613513946533203125</LatitudeDegrees>
              <LongitudeDegrees>-2.6076531596481800079345703125</LongitudeDegrees>
            </Position>
            <AltitudeMeters>221</AltitudeMeters>
            <DistanceMeters>NAN</DistanceMeters>
          </Trackpoint>
          <Trackpoint>
            <Time>2022-07-11T10:35:20.000Z</Time>
            <Position>
              <LatitudeDegrees>43.2729546166956424713134765625</LatitudeDegrees>
              <LongitudeDegrees>-2.6080541498959064483642578125</LongitudeDegrees>
            </Position>
            <AltitudeMeters>219.8000030517578125</AltitudeMeters>
            <DistanceMeters>NAN</DistanceMeters>
          </Trackpoint>
          <Trackpoint>
            <Time>2022-07-11T10:35:26.000Z</Time>
            <Position>
              <LatitudeDegrees>43.2731601409614086151123046875</LatitudeDegrees>
              <LongitudeDegrees>-2.60855622589588165283203125</LongitudeDegrees>
            </Position>
            <AltitudeMeters>219</AltitudeMeters>
            <DistanceMeters>NAN</DistanceMeters>
          </Trackpoint>
          <Trackpoint>
            <Time>2022-07-11T10:35:27.000Z</Time>
            <Position>
              <LatitudeDegrees>43.2731906510889530181884765625</LatitudeDegrees>
              <LongitudeDegrees>-2.60865504853427410125732421875</LongitudeDegrees>
            </Position>
            <AltitudeMeters>218.600006103515625</AltitudeMeters>
            <DistanceMeters>NAN</DistanceMeters>
          </Trackpoint>
          <Trackpoint>
            <Time>2022-07-11T10:35:30.000Z</Time>
            <Position>
              <LatitudeDegrees>43.273257203400135040283203125</LatitudeDegrees>
              <LongitudeDegrees>-2.60896526277065277099609375</LongitudeDegrees>
            </Position>
            <AltitudeMeters>217.600006103515625</AltitudeMeters>
            <DistanceMeters>NAN</DistanceMeters>
          </Trackpoint>
          <Trackpoint>
            <Time>2022-07-11T10:35:31.000Z</Time>
            <Position>
              <LatitudeDegrees>43.2732721231877803802490234375</LatitudeDegrees>
              <LongitudeDegrees>-2.609078586101531982421875</LongitudeDegrees>
            </Position>
            <AltitudeMeters>217.399993896484375</AltitudeMeters>
            <DistanceMeters>NAN</DistanceMeters>
          </Trackpoint>
          <Trackpoint>
            <Time>2022-07-11T10:35:33.000Z</Time>
            <Position>
              <LatitudeDegrees>43.27329098246991634368896484375</LatitudeDegrees>
              <LongitudeDegrees>-2.60932467877864837646484375</LongitudeDegrees>
            </Position>
            <AltitudeMeters>216.399993896484375</AltitudeMeters>
            <DistanceMeters>NAN</DistanceMeters>
          </Trackpoint>
          <Trackpoint>
            <Time>2022-07-11T10:35:36.000Z</Time>
            <Position>
              <LatitudeDegrees>43.27331948094069957733154296875</LatitudeDegrees>
              <LongitudeDegrees>-2.60968401096761226654052734375</LongitudeDegrees>
            </Position>
            <AltitudeMeters>215.1999969482421875</AltitudeMeters>
            <DistanceMeters>NAN</DistanceMeters>
          </Trackpoint>
          <Trackpoint>
            <Time>2022-07-11T10:35:38.000Z</Time>
            <Position>
              <LatitudeDegrees>43.27338167466223239898681640625</LatitudeDegrees>
              <LongitudeDegrees>-2.6098757050931453704833984375</LongitudeDegrees>
            </Position>
            <AltitudeMeters>214.600006103515625</AltitudeMeters>
            <DistanceMeters>NAN</DistanceMeters>
          </Trackpoint>
          <Trackpoint>
            <Time>2022-07-11T10:35:39.000Z</Time>
            <Position>
              <LatitudeDegrees>43.27343196608126163482666015625</LatitudeDegrees>
              <LongitudeDegrees>-2.60994158685207366943359375</LongitudeDegrees>
            </Position>
            <AltitudeMeters>214</AltitudeMeters>
            <DistanceMeters>NAN</DistanceMeters>
          </Trackpoint>
          <Trackpoint>
            <Time>2022-07-11T10:35:40.000Z</Time>
            <Position>
              <LatitudeDegrees>43.2734955847263336181640625</LatitudeDegrees>
              <LongitudeDegrees>-2.60997771285474300384521484375</LongitudeDegrees>
            </Position>
            <AltitudeMeters>213.399993896484375</AltitudeMeters>
            <DistanceMeters>NAN</DistanceMeters>
          </Trackpoint>
          <Trackpoint>
            <Time>2022-07-11T10:35:41.000Z</Time>
            <Position>
              <LatitudeDegrees>43.27356724999845027923583984375</LatitudeDegrees>
              <LongitudeDegrees>-2.60997385717928409576416015625</LongitudeDegrees>
            </Position>
            <AltitudeMeters>212.399993896484375</AltitudeMeters>
            <DistanceMeters>NAN</DistanceMeters>
          </Trackpoint>
          <Trackpoint>
            <Time>2022-07-11T10:35:42.000Z</Time>
            <Position>
              <LatitudeDegrees>43.27363866381347179412841796875</LatitudeDegrees>
              <LongitudeDegrees>-2.60992758907377719879150390625</LongitudeDegrees>
            </Position>
            <AltitudeMeters>211.600006103515625</AltitudeMeters>
            <DistanceMeters>NAN</DistanceMeters>
          </Trackpoint>
          <Trackpoint>
            <Time>2022-07-11T10:35:43.000Z</Time>
            <Position>
              <LatitudeDegrees>43.27370278537273406982421875</LatitudeDegrees>
              <LongitudeDegrees>-2.6098519004881381988525390625</LongitudeDegrees>
            </Position>
            <AltitudeMeters>211</AltitudeMeters>
            <DistanceMeters>NAN</DistanceMeters>
          </Trackpoint>
          <Trackpoint>
            <Time>2022-07-11T10:35:44.000Z</Time>
            <Position>
              <LatitudeDegrees>43.27375785447657108306884765625</LatitudeDegrees>
              <LongitudeDegrees>-2.60975643061101436614990234375</LongitudeDegrees>
            </Position>
            <AltitudeMeters>210.600006103515625</AltitudeMeters>
            <DistanceMeters>NAN</DistanceMeters>
          </Trackpoint>
          <Trackpoint>
            <Time>2022-07-11T10:35:46.000Z</Time>
            <Position>
              <LatitudeDegrees>43.2738541625440120697021484375</LatitudeDegrees>
              <LongitudeDegrees>-2.6095481403172016143798828125</LongitudeDegrees>
            </Position>
            <AltitudeMeters>209.8000030517578125</AltitudeMeters>
            <DistanceMeters>NAN</DistanceMeters>
          </Trackpoint>
          <Trackpoint>
            <Time>2022-07-11T10:35:48.000Z</Time>
            <Position>
              <LatitudeDegrees>43.27397100627422332763671875</LatitudeDegrees>
              <LongitudeDegrees>-2.60938142426311969757080078125</LongitudeDegrees>
            </Position>
            <AltitudeMeters>209</AltitudeMeters>
            <DistanceMeters>NAN</DistanceMeters>
          </Trackpoint>
          <Trackpoint>
            <Time>2022-07-11T10:35:49.000Z</Time>
            <Position>
              <LatitudeDegrees>43.27404267154633998870849609375</LatitudeDegrees>
              <LongitudeDegrees>-2.60933540761470794677734375</LongitudeDegrees>
            </Position>
            <AltitudeMeters>208.399993896484375</AltitudeMeters>
            <DistanceMeters>NAN</DistanceMeters>
          </Trackpoint>
          <Trackpoint>
            <Time>2022-07-11T10:35:50.000Z</Time>
            <Position>
              <LatitudeDegrees>43.27411458827555179595947265625</LatitudeDegrees>
              <LongitudeDegrees>-2.6093338988721370697021484375</LongitudeDegrees>
            </Position>
            <AltitudeMeters>207.8000030517578125</AltitudeMeters>
            <DistanceMeters>NAN</DistanceMeters>
          </Trackpoint>
          <Trackpoint>
            <Time>2022-07-11T10:35:52.000Z</Time>
            <Position>
              <LatitudeDegrees>43.2742169313132762908935546875</LatitudeDegrees>
              <LongitudeDegrees>-2.6094405166804790496826171875</LongitudeDegrees>
            </Position>
            <AltitudeMeters>207.1999969482421875</AltitudeMeters>
            <DistanceMeters>NAN</DistanceMeters>
          </Trackpoint>
          <Trackpoint>
            <Time>2022-07-11T10:35:56.000Z</Time>
            <Position>
              <LatitudeDegrees>43.27432614751160144805908203125</LatitudeDegrees>
              <LongitudeDegrees>-2.6097665727138519287109375</LongitudeDegrees>
            </Position>
            <AltitudeMeters>207</AltitudeMeters>
            <DistanceMeters>NAN</DistanceMeters>
          </Trackpoint>
          <Trackpoint>
            <Time>2022-07-11T10:35:57.000Z</Time>
            <Position>
              <LatitudeDegrees>43.27435548417270183563232421875</LatitudeDegrees>
              <LongitudeDegrees>-2.6098314486443996429443359375</LongitudeDegrees>
            </Position>
            <AltitudeMeters>207</AltitudeMeters>
            <DistanceMeters>NAN</DistanceMeters>
          </Trackpoint>
          <Trackpoint>
            <Time>2022-07-11T10:35:58.000Z</Time>
            <Position>
              <LatitudeDegrees>43.2743919454514980316162109375</LatitudeDegrees>
              <LongitudeDegrees>-2.60988785885274410247802734375</LongitudeDegrees>
            </Position>
            <AltitudeMeters>207</AltitudeMeters>
            <DistanceMeters>NAN</DistanceMeters>
          </Trackpoint>
          <Trackpoint>
            <Time>2022-07-11T10:36:00.000Z</Time>
            <Position>
              <LatitudeDegrees>43.27448892407119274139404296875</LatitudeDegrees>
              <LongitudeDegrees>-2.60999565012753009796142578125</LongitudeDegrees>
            </Position>
            <AltitudeMeters>207</AltitudeMeters>
            <DistanceMeters>NAN</DistanceMeters>
          </Trackpoint>
          <Trackpoint>
            <Time>2022-07-11T10:36:01.000Z</Time>
            <Position>
              <LatitudeDegrees>43.2745414786040782928466796875</LatitudeDegrees>
              <LongitudeDegrees>-2.6100455224514007568359375</LongitudeDegrees>
            </Position>
            <AltitudeMeters>206.8000030517578125</AltitudeMeters>
            <DistanceMeters>NAN</DistanceMeters>
          </Trackpoint>
          <Trackpoint>
            <Time>2022-07-11T10:36:02.000Z</Time>
            <Position>
              <LatitudeDegrees>43.27458783052861690521240234375</LatitudeDegrees>
              <LongitudeDegrees>-2.6100872643291950225830078125</LongitudeDegrees>
            </Position>
            <AltitudeMeters>206.8000030517578125</AltitudeMeters>
            <DistanceMeters>NAN</DistanceMeters>
          </Trackpoint>
          <Trackpoint>
            <Time>2022-07-11T10:36:06.000Z</Time>
            <Position>
              <LatitudeDegrees>43.274781703948974609375</LatitudeDegrees>
              <LongitudeDegrees>-2.6102508790791034698486328125</LongitudeDegrees>
            </Position>
            <AltitudeMeters>206.600006103515625</AltitudeMeters>
            <DistanceMeters>NAN</DistanceMeters>
          </Trackpoint>
          <Trackpoint>
            <Time>2022-07-11T10:36:07.000Z</Time>
            <Position>
              <LatitudeDegrees>43.274828977882862091064453125</LatitudeDegrees>
              <LongitudeDegrees>-2.6102984882891178131103515625</LongitudeDegrees>
            </Position>
            <AltitudeMeters>206.600006103515625</AltitudeMeters>
            <DistanceMeters>NAN</DistanceMeters>
          </Trackpoint>
          <Trackpoint>
            <Time>2022-07-11T10:36:09.000Z</Time>
            <Position>
              <LatitudeDegrees>43.27489175833761692047119140625</LatitudeDegrees>
              <LongitudeDegrees>-2.6103984005749225616455078125</LongitudeDegrees>
            </Position>
            <AltitudeMeters>206.600006103515625</AltitudeMeters>
            <DistanceMeters>NAN</DistanceMeters>
          </Trackpoint>
          <Trackpoint>
            <Time>2022-07-11T10:36:10.000Z</Time>
            <Position>
              <LatitudeDegrees>43.27490919269621372222900390625</LatitudeDegrees>
              <LongitudeDegrees>-2.61046302504837512969970703125</LongitudeDegrees>
            </Position>
            <AltitudeMeters>206.600006103515625</AltitudeMeters>
            <DistanceMeters>NAN</DistanceMeters>
          </Trackpoint>
          <Trackpoint>
            <Time>2022-07-11T10:36:11.000Z</Time>
            <Position>
              <LatitudeDegrees>43.27492453157901763916015625</LatitudeDegrees>
              <LongitudeDegrees>-2.61054181493818759918212890625</LongitudeDegrees>
            </Position>
            <AltitudeMeters>206.399993896484375</AltitudeMeters>
            <DistanceMeters>NAN</DistanceMeters>
          </Trackpoint>
          <Trackpoint>
            <Time>2022-07-11T10:36:13.000Z</Time>
            <Position>
              <LatitudeDegrees>43.27490919269621372222900390625</LatitudeDegrees>
              <LongitudeDegrees>-2.61067575775086879730224609375</LongitudeDegrees>
            </Position>
            <AltitudeMeters>206.399993896484375</AltitudeMeters>
            <DistanceMeters>NAN</DistanceMeters>
          </Trackpoint>
          <Trackpoint>
            <Time>2022-07-11T10:36:15.000Z</Time>
            <Position>
              <LatitudeDegrees>43.27484331093728542327880859375</LatitudeDegrees>
              <LongitudeDegrees>-2.61079729534685611724853515625</LongitudeDegrees>
            </Position>
            <AltitudeMeters>206.1999969482421875</AltitudeMeters>
            <DistanceMeters>NAN</DistanceMeters>
          </Trackpoint>
          <Trackpoint>
            <Time>2022-07-11T10:36:16.000Z</Time>
            <Position>
              <LatitudeDegrees>43.2747964560985565185546875</LatitudeDegrees>
              <LongitudeDegrees>-2.61084356345236301422119140625</LongitudeDegrees>
            </Position>
            <AltitudeMeters>206.1999969482421875</AltitudeMeters>
            <DistanceMeters>NAN</DistanceMeters>
          </Trackpoint>
          <Trackpoint>
            <Time>2022-07-11T10:36:17.000Z</Time>
            <Position>
              <LatitudeDegrees>43.27473518438637256622314453125</LatitudeDegrees>
              <LongitudeDegrees>-2.6108770072460174560546875</LongitudeDegrees>
            </Position>
            <AltitudeMeters>206.1999969482421875</AltitudeMeters>
            <DistanceMeters>NAN</DistanceMeters>
          </Trackpoint>
          <Trackpoint>
            <Time>2022-07-11T10:36:18.000Z</Time>
            <Position>
              <LatitudeDegrees>43.27468824572861194610595703125</LatitudeDegrees>
              <LongitudeDegrees>-2.61088564060628414154052734375</LongitudeDegrees>
            </Position>
            <AltitudeMeters>206.1999969482421875</AltitudeMeters>
            <DistanceMeters>NAN</DistanceMeters>
          </Trackpoint>
          <Trackpoint>
            <Time>2022-07-11T10:36:19.000Z</Time>
            <Position>
              <LatitudeDegrees>43.2746366970241069793701171875</LatitudeDegrees>
              <LongitudeDegrees>-2.6108922623097896575927734375</LongitudeDegrees>
            </Position>
            <AltitudeMeters>206.1999969482421875</AltitudeMeters>
            <DistanceMeters>NAN</DistanceMeters>
          </Trackpoint>
          <Trackpoint>
            <Time>2022-07-11T10:36:20.000Z</Time>
            <Position>
              <LatitudeDegrees>43.27457307837903499603271484375</LatitudeDegrees>
              <LongitudeDegrees>-2.61088798753917217254638671875</LongitudeDegrees>
            </Position>
            <AltitudeMeters>206</AltitudeMeters>
            <DistanceMeters>NAN</DistanceMeters>
          </Trackpoint>
          <Trackpoint>
            <Time>2022-07-11T10:36:22.000Z</Time>
            <Position>
              <LatitudeDegrees>43.27446595765650272369384765625</LatitudeDegrees>
              <LongitudeDegrees>-2.6108630932867527008056640625</LongitudeDegrees>
            </Position>
            <AltitudeMeters>205.8000030517578125</AltitudeMeters>
            <DistanceMeters>NAN</DistanceMeters>
          </Trackpoint>
          <Trackpoint>
            <Time>2022-07-11T10:36:25.000Z</Time>
            <Position>
              <LatitudeDegrees>43.274305947124958038330078125</LatitudeDegrees>
              <LongitudeDegrees>-2.61078405193984508514404296875</LongitudeDegrees>
            </Position>
            <AltitudeMeters>205.600006103515625</AltitudeMeters>
            <DistanceMeters>NAN</DistanceMeters>
          </Trackpoint>
          <Trackpoint>
            <Time>2022-07-11T10:36:26.000Z</Time>
            <Position>
              <LatitudeDegrees>43.27425263822078704833984375</LatitudeDegrees>
              <LongitudeDegrees>-2.61075337417423725128173828125</LongitudeDegrees>
            </Position>
            <AltitudeMeters>205.399993896484375</AltitudeMeters>
            <DistanceMeters>NAN</DistanceMeters>
          </Trackpoint>
          <Trackpoint>
            <Time>2022-07-11T10:36:27.000Z</Time>
            <Position>
              <LatitudeDegrees>43.27420997433364391326904296875</LatitudeDegrees>
              <LongitudeDegrees>-2.61073577217757701873779296875</LongitudeDegrees>
            </Position>
            <AltitudeMeters>205.399993896484375</AltitudeMeters>
            <DistanceMeters>NAN</DistanceMeters>
          </Trackpoint>
          <Trackpoint>
            <Time>2022-07-11T10:36:29.000Z</Time>
            <Position>
              <LatitudeDegrees>43.27410151250660419464111328125</LatitudeDegrees>
              <LongitudeDegrees>-2.6107269711792469024658203125</LongitudeDegrees>
            </Position>
            <AltitudeMeters>205.1999969482421875</AltitudeMeters>
            <DistanceMeters>NAN</DistanceMeters>
          </Trackpoint>
          <Trackpoint>
            <Time>2022-07-11T10:36:30.000Z</Time>
            <Position>
              <LatitudeDegrees>43.27404342591762542724609375</LatitudeDegrees>
              <LongitudeDegrees>-2.61074356734752655029296875</LongitudeDegrees>
            </Position>
            <AltitudeMeters>205.1999969482421875</AltitudeMeters>
            <DistanceMeters>NAN</DistanceMeters>
          </Trackpoint>
          <Trackpoint>
            <Time>2022-07-11T10:36:31.000Z</Time>
            <Position>
              <LatitudeDegrees>43.27397461049258708953857421875</LatitudeDegrees>
              <LongitudeDegrees>-2.61079092510044574737548828125</LongitudeDegrees>
            </Position>
            <AltitudeMeters>205</AltitudeMeters>
            <DistanceMeters>NAN</DistanceMeters>
          </Trackpoint>
          <Trackpoint>
            <Time>2022-07-11T10:36:33.000Z</Time>
            <Position>
              <LatitudeDegrees>43.27386237680912017822265625</LatitudeDegrees>
              <LongitudeDegrees>-2.61088036000728607177734375</LongitudeDegrees>
            </Position>
            <AltitudeMeters>204.600006103515625</AltitudeMeters>
            <DistanceMeters>NAN</DistanceMeters>
          </Trackpoint>
          <Trackpoint>
            <Time>2022-07-11T10:36:35.000Z</Time>
            <Position>
              <LatitudeDegrees>43.27372918836772441864013671875</LatitudeDegrees>
              <LongitudeDegrees>-2.61099024675786495208740234375</LongitudeDegrees>
            </Position>
            <AltitudeMeters>204.1999969482421875</AltitudeMeters>
            <DistanceMeters>NAN</DistanceMeters>
          </Trackpoint>
          <Trackpoint>
            <Time>2022-07-11T10:36:38.000Z</Time>
            <Position>
              <LatitudeDegrees>43.27354109846055507659912109375</LatitudeDegrees>
              <LongitudeDegrees>-2.61116207577288150787353515625</LongitudeDegrees>
            </Position>
            <AltitudeMeters>203.399993896484375</AltitudeMeters>
            <DistanceMeters>NAN</DistanceMeters>
          </Trackpoint>
          <Trackpoint>
            <Time>2022-07-11T10:36:40.000Z</Time>
            <Position>
              <LatitudeDegrees>43.2733934931457042694091796875</LatitudeDegrees>
              <LongitudeDegrees>-2.6112486608326435089111328125</LongitudeDegrees>
            </Position>
            <AltitudeMeters>202.600006103515625</AltitudeMeters>
            <DistanceMeters>NAN</DistanceMeters>
          </Trackpoint>
          <Trackpoint>
            <Time>2022-07-11T10:36:42.000Z</Time>
            <Position>
              <LatitudeDegrees>43.2732380926609039306640625</LatitudeDegrees>
              <LongitudeDegrees>-2.6113609783351421356201171875</LongitudeDegrees>
            </Position>
            <AltitudeMeters>201.8000030517578125</AltitudeMeters>
            <DistanceMeters>NAN</DistanceMeters>
          </Trackpoint>
          <Trackpoint>
            <Time>2022-07-11T10:36:43.000Z</Time>
            <Position>
              <LatitudeDegrees>43.2731893099844455718994140625</LatitudeDegrees>
              <LongitudeDegrees>-2.61142618954181671142578125</LongitudeDegrees>
            </Position>
            <AltitudeMeters>201.1999969482421875</AltitudeMeters>
            <DistanceMeters>NAN</DistanceMeters>
          </Trackpoint>
          <Trackpoint>
            <Time>2022-07-11T10:36:44.000Z</Time>
            <Position>
              <LatitudeDegrees>43.273141197860240936279296875</LatitudeDegrees>
              <LongitudeDegrees>-2.61151696555316448211669921875</LongitudeDegrees>
            </Position>
            <AltitudeMeters>201</AltitudeMeters>
            <DistanceMeters>NAN</DistanceMeters>
          </Trackpoint>
          <Trackpoint>
            <Time>2022-07-11T10:36:46.000Z</Time>
            <Position>
              <LatitudeDegrees>43.2730900682508945465087890625</LatitudeDegrees>
              <LongitudeDegrees>-2.61173062026500701904296875</LongitudeDegrees>
            </Position>
            <AltitudeMeters>200.600006103515625</AltitudeMeters>
            <DistanceMeters>NAN</DistanceMeters>
          </Trackpoint>
          <Trackpoint>
            <Time>2022-07-11T10:36:48.000Z</Time>
            <Position>
              <LatitudeDegrees>43.2730771601200103759765625</LatitudeDegrees>
              <LongitudeDegrees>-2.61196338571608066558837890625</LongitudeDegrees>
            </Position>
            <AltitudeMeters>199.8000030517578125</AltitudeMeters>
            <DistanceMeters>NAN</DistanceMeters>
          </Trackpoint>
          <Trackpoint>
            <Time>2022-07-11T10:36:52.000Z</Time>
            <Position>
              <LatitudeDegrees>43.27308193780481815338134765625</LatitudeDegrees>
              <LongitudeDegrees>-2.6124248094856739044189453125</LongitudeDegrees>
            </Position>
            <AltitudeMeters>198.600006103515625</AltitudeMeters>
            <DistanceMeters>NAN</DistanceMeters>
          </Trackpoint>
          <Trackpoint>
            <Time>2022-07-11T10:36:53.000Z</Time>
            <Position>
              <LatitudeDegrees>43.27309467829763889312744140625</LatitudeDegrees>
              <LongitudeDegrees>-2.6125364564359188079833984375</LongitudeDegrees>
            </Position>
            <AltitudeMeters>198.399993896484375</AltitudeMeters>
            <DistanceMeters>NAN</DistanceMeters>
          </Trackpoint>
          <Trackpoint>
            <Time>2022-07-11T10:36:55.000Z</Time>
            <Position>
              <LatitudeDegrees>43.27313273213803768157958984375</LatitudeDegrees>
              <LongitudeDegrees>-2.61276192963123321533203125</LongitudeDegrees>
            </Position>
            <AltitudeMeters>197.399993896484375</AltitudeMeters>
            <DistanceMeters>NAN</DistanceMeters>
          </Trackpoint>
          <Trackpoint>
            <Time>2022-07-11T10:36:58.000Z</Time>
            <Position>
              <LatitudeDegrees>43.27320791780948638916015625</LatitudeDegrees>
              <LongitudeDegrees>-2.61312394402921199798583984375</LongitudeDegrees>
            </Position>
            <AltitudeMeters>196.1999969482421875</AltitudeMeters>
            <DistanceMeters>NAN</DistanceMeters>
          </Trackpoint>
          <Trackpoint>
            <Time>2022-07-11T10:37:00.000Z</Time>
            <Position>
              <LatitudeDegrees>43.273250497877597808837890625</LatitudeDegrees>
              <LongitudeDegrees>-2.61335276998579502105712890625</LongitudeDegrees>
            </Position>
            <AltitudeMeters>195.1999969482421875</AltitudeMeters>
            <DistanceMeters>NAN</DistanceMeters>
          </Trackpoint>
          <Trackpoint>
            <Time>2022-07-11T10:37:03.000Z</Time>
            <Position>
              <LatitudeDegrees>43.27330623753368854522705078125</LatitudeDegrees>
              <LongitudeDegrees>-2.613684274256229400634765625</LongitudeDegrees>
            </Position>
            <AltitudeMeters>193.8000030517578125</AltitudeMeters>
            <DistanceMeters>NAN</DistanceMeters>
          </Trackpoint>
          <Trackpoint>
            <Time>2022-07-11T10:37:05.000Z</Time>
            <Position>
              <LatitudeDegrees>43.2733177207410335540771484375</LatitudeDegrees>
              <LongitudeDegrees>-2.61391687206923961639404296875</LongitudeDegrees>
            </Position>
            <AltitudeMeters>192</AltitudeMeters>
            <DistanceMeters>NAN</DistanceMeters>
          </Trackpoint>
          <Trackpoint>
            <Time>2022-07-11T10:37:07.000Z</Time>
            <Position>
              <LatitudeDegrees>43.273318894207477569580078125</LatitudeDegrees>
              <LongitudeDegrees>-2.61415743269026279449462890625</LongitudeDegrees>
            </Position>
            <AltitudeMeters>191</AltitudeMeters>
            <DistanceMeters>NAN</DistanceMeters>
          </Trackpoint>
          <Trackpoint>
            <Time>2022-07-11T10:37:09.000Z</Time>
            <Position>
              <LatitudeDegrees>43.27333658002316951751708984375</LatitudeDegrees>
              <LongitudeDegrees>-2.61440352536737918853759765625</LongitudeDegrees>
            </Position>
            <AltitudeMeters>190.600006103515625</AltitudeMeters>
            <DistanceMeters>NAN</DistanceMeters>
          </Trackpoint>
          <Trackpoint>
            <Time>2022-07-11T10:37:11.000Z</Time>
            <Position>
              <LatitudeDegrees>43.27336574904620647430419921875</LatitudeDegrees>
              <LongitudeDegrees>-2.61464492417871952056884765625</LongitudeDegrees>
            </Position>
            <AltitudeMeters>189.8000030517578125</AltitudeMeters>
            <DistanceMeters>NAN</DistanceMeters>
          </Trackpoint>
          <Trackpoint>
            <Time>2022-07-11T10:37:14.000Z</Time>
            <Position>
              <LatitudeDegrees>43.2734223268926143646240234375</LatitudeDegrees>
              <LongitudeDegrees>-2.61500735767185688018798828125</LongitudeDegrees>
            </Position>
            <AltitudeMeters>188.399993896484375</AltitudeMeters>
            <DistanceMeters>NAN</DistanceMeters>
          </Trackpoint>
          <Trackpoint>
            <Time>2022-07-11T10:37:17.000Z</Time>
            <Position>
              <LatitudeDegrees>43.27352081425487995147705078125</LatitudeDegrees>
              <LongitudeDegrees>-2.6153581403195858001708984375</LongitudeDegrees>
            </Position>
            <AltitudeMeters>187.8000030517578125</AltitudeMeters>
            <DistanceMeters>NAN</DistanceMeters>
          </Trackpoint>
          <Trackpoint>
            <Time>2022-07-11T10:37:18.000Z</Time>
            <Position>
              <LatitudeDegrees>43.273565657436847686767578125</LatitudeDegrees>
              <LongitudeDegrees>-2.61547339148819446563720703125</LongitudeDegrees>
            </Position>
            <AltitudeMeters>187</AltitudeMeters>
            <DistanceMeters>NAN</DistanceMeters>
          </Trackpoint>
          <Trackpoint>
            <Time>2022-07-11T10:37:20.000Z</Time>
            <Position>
              <LatitudeDegrees>43.27366280369460582733154296875</LatitudeDegrees>
              <LongitudeDegrees>-2.61569836176931858062744140625</LongitudeDegrees>
            </Position>
            <AltitudeMeters>186</AltitudeMeters>
            <DistanceMeters>NAN</DistanceMeters>
          </Trackpoint>
          <Trackpoint>
            <Time>2022-07-11T10:37:23.000Z</Time>
            <Position>
              <LatitudeDegrees>43.2738327048718929290771484375</LatitudeDegrees>
              <LongitudeDegrees>-2.61600882746279239654541015625</LongitudeDegrees>
            </Position>
            <AltitudeMeters>185</AltitudeMeters>
            <DistanceMeters>NAN</DistanceMeters>
          </Trackpoint>
          <Trackpoint>
            <Time>2022-07-11T10:37:24.000Z</Time>
            <Position>
              <LatitudeDegrees>43.27390571124851703643798828125</LatitudeDegrees>
              <LongitudeDegrees>-2.61609851382672786712646484375</LongitudeDegrees>
            </Position>
            <AltitudeMeters>184.8000030517578125</AltitudeMeters>
            <DistanceMeters>NAN</DistanceMeters>
          </Trackpoint>
          <Trackpoint>
            <Time>2022-07-11T10:37:25.000Z</Time>
            <Position>
              <LatitudeDegrees>43.27398777008056640625</LatitudeDegrees>
              <LongitudeDegrees>-2.61617839336395263671875</LongitudeDegrees>
            </Position>
            <AltitudeMeters>184.600006103515625</AltitudeMeters>
            <DistanceMeters>NAN</DistanceMeters>
          </Trackpoint>
          <Trackpoint>
            <Time>2022-07-11T10:37:26.000Z</Time>
            <Position>
              <LatitudeDegrees>43.27407653443515300750732421875</LatitudeDegrees>
              <LongitudeDegrees>-2.6162409223616123199462890625</LongitudeDegrees>
            </Position>
            <AltitudeMeters>184.1999969482421875</AltitudeMeters>
            <DistanceMeters>NAN</DistanceMeters>
          </Trackpoint>
          <Trackpoint>
            <Time>2022-07-11T10:37:27.000Z</Time>
            <Position>
              <LatitudeDegrees>43.27416689135134220123291015625</LatitudeDegrees>
              <LongitudeDegrees>-2.61628375388681888580322265625</LongitudeDegrees>
            </Position>
            <AltitudeMeters>183.399993896484375</AltitudeMeters>
            <DistanceMeters>NAN</DistanceMeters>
          </Trackpoint>
          <Trackpoint>
            <Time>2022-07-11T10:37:29.000Z</Time>
            <Position>
              <LatitudeDegrees>43.27434676699340343475341796875</LatitudeDegrees>
              <LongitudeDegrees>-2.61629180051386356353759765625</LongitudeDegrees>
            </Position>
            <AltitudeMeters>182.399993896484375</AltitudeMeters>
            <DistanceMeters>NAN</DistanceMeters>
          </Trackpoint>
          <Trackpoint>
            <Time>2022-07-11T10:37:30.000Z</Time>
            <Position>
              <LatitudeDegrees>43.2744308374822139739990234375</LatitudeDegrees>
              <LongitudeDegrees>-2.6162596978247165679931640625</LongitudeDegrees>
            </Position>
            <AltitudeMeters>182</AltitudeMeters>
            <DistanceMeters>NAN</DistanceMeters>
          </Trackpoint>
          <Trackpoint>
            <Time>2022-07-11T10:37:31.000Z</Time>
            <Position>
              <LatitudeDegrees>43.2745092920958995819091796875</LatitudeDegrees>
              <LongitudeDegrees>-2.61620831675827503204345703125</LongitudeDegrees>
            </Position>
            <AltitudeMeters>181.8000030517578125</AltitudeMeters>
            <DistanceMeters>NAN</DistanceMeters>
          </Trackpoint>
          <Trackpoint>
            <Time>2022-07-11T10:37:32.000Z</Time>
            <Position>
              <LatitudeDegrees>43.27459805645048618316650390625</LatitudeDegrees>
              <LongitudeDegrees>-2.6161423511803150177001953125</LongitudeDegrees>
            </Position>
            <AltitudeMeters>181</AltitudeMeters>
            <DistanceMeters>NAN</DistanceMeters>
          </Trackpoint>
          <Trackpoint>
            <Time>2022-07-11T10:37:33.000Z</Time>
            <Position>
              <LatitudeDegrees>43.27468807809054851531982421875</LatitudeDegrees>
              <LongitudeDegrees>-2.61607839725911617279052734375</LongitudeDegrees>
            </Position>
            <AltitudeMeters>180.600006103515625</AltitudeMeters>
            <DistanceMeters>NAN</DistanceMeters>
          </Trackpoint>
          <Trackpoint>
            <Time>2022-07-11T10:37:35.000Z</Time>
            <Position>
              <LatitudeDegrees>43.27483258210122585296630859375</LatitudeDegrees>
              <LongitudeDegrees>-2.6159784011542797088623046875</LongitudeDegrees>
            </Position>
            <AltitudeMeters>179.399993896484375</AltitudeMeters>
            <DistanceMeters>NAN</DistanceMeters>
          </Trackpoint>
          <Trackpoint>
            <Time>2022-07-11T10:37:36.000Z</Time>
            <Position>
              <LatitudeDegrees>43.274889998137950897216796875</LatitudeDegrees>
              <LongitudeDegrees>-2.61597655713558197021484375</LongitudeDegrees>
            </Position>
            <AltitudeMeters>178.600006103515625</AltitudeMeters>
            <DistanceMeters>NAN</DistanceMeters>
          </Trackpoint>
          <Trackpoint>
            <Time>2022-07-11T10:37:37.000Z</Time>
            <Position>
              <LatitudeDegrees>43.2749364338815212249755859375</LatitudeDegrees>
              <LongitudeDegrees>-2.61600673198699951171875</LongitudeDegrees>
            </Position>
            <AltitudeMeters>178</AltitudeMeters>
            <DistanceMeters>NAN</DistanceMeters>
          </Trackpoint>
          <Trackpoint>
            <Time>2022-07-11T10:37:38.000Z</Time>
            <Position>
              <LatitudeDegrees>43.2749645970761775970458984375</LatitudeDegrees>
              <LongitudeDegrees>-2.61606347747147083282470703125</LongitudeDegrees>
            </Position>
            <AltitudeMeters>177.600006103515625</AltitudeMeters>
            <DistanceMeters>NAN</DistanceMeters>
          </Trackpoint>
          <Trackpoint>
            <Time>2022-07-11T10:37:39.000Z</Time>
            <Position>
              <LatitudeDegrees>43.27496753074228763580322265625</LatitudeDegrees>
              <LongitudeDegrees>-2.616142518818378448486328125</LongitudeDegrees>
            </Position>
            <AltitudeMeters>177.399993896484375</AltitudeMeters>
            <DistanceMeters>NAN</DistanceMeters>
          </Trackpoint>
          <Trackpoint>
            <Time>2022-07-11T10:37:40.000Z</Time>
            <Position>
              <LatitudeDegrees>43.2749404571950435638427734375</LatitudeDegrees>
              <LongitudeDegrees>-2.6162362284958362579345703125</LongitudeDegrees>
            </Position>
            <AltitudeMeters>177</AltitudeMeters>
            <DistanceMeters>NAN</DistanceMeters>
          </Trackpoint>
          <Trackpoint>
            <Time>2022-07-11T10:37:41.000Z</Time>
            <Position>
              <LatitudeDegrees>43.27489628456532955169677734375</LatitudeDegrees>
              <LongitudeDegrees>-2.6163192093372344970703125</LongitudeDegrees>
            </Position>
            <AltitudeMeters>176.8000030517578125</AltitudeMeters>
            <DistanceMeters>NAN</DistanceMeters>
          </Trackpoint>
          <Trackpoint>
            <Time>2022-07-11T10:37:45.000Z</Time>
            <Position>
              <LatitudeDegrees>43.2746568135917186737060546875</LatitudeDegrees>
              <LongitudeDegrees>-2.61662355624139308929443359375</LongitudeDegrees>
            </Position>
            <AltitudeMeters>176.399993896484375</AltitudeMeters>
            <DistanceMeters>NAN</DistanceMeters>
          </Trackpoint>
          <Trackpoint>
            <Time>2022-07-11T10:37:49.000Z</Time>
            <Position>
              <LatitudeDegrees>43.27441625297069549560546875</LatitudeDegrees>
              <LongitudeDegrees>-2.61692798696458339691162109375</LongitudeDegrees>
            </Position>
            <AltitudeMeters>175.8000030517578125</AltitudeMeters>
            <DistanceMeters>NAN</DistanceMeters>
          </Trackpoint>
          <Trackpoint>
            <Time>2022-07-11T10:37:51.000Z</Time>
            <Position>
              <LatitudeDegrees>43.274287171661853790283203125</LatitudeDegrees>
              <LongitudeDegrees>-2.61706327088177204132080078125</LongitudeDegrees>
            </Position>
            <AltitudeMeters>174.8000030517578125</AltitudeMeters>
            <DistanceMeters>NAN</DistanceMeters>
          </Trackpoint>
          <Trackpoint>
            <Time>2022-07-11T10:37:52.000Z</Time>
            <Position>
              <LatitudeDegrees>43.27421785332262516021728515625</LatitudeDegrees>
              <LongitudeDegrees>-2.61712144128978252410888671875</LongitudeDegrees>
            </Position>
            <AltitudeMeters>174.1999969482421875</AltitudeMeters>
            <DistanceMeters>NAN</DistanceMeters>
          </Trackpoint>
          <Trackpoint>
            <Time>2022-07-11T10:37:53.000Z</Time>
            <Position>
              <LatitudeDegrees>43.27412012033164501190185546875</LatitudeDegrees>
              <LongitudeDegrees>-2.617178522050380706787109375</LongitudeDegrees>
            </Position>
            <AltitudeMeters>173.8000030517578125</AltitudeMeters>
            <DistanceMeters>NAN</DistanceMeters>
          </Trackpoint>
          <Trackpoint>
            <Time>2022-07-11T10:37:55.000Z</Time>
            <Position>
              <LatitudeDegrees>43.27395893633365631103515625</LatitudeDegrees>
              <LongitudeDegrees>-2.61725731194019317626953125</LongitudeDegrees>
            </Position>
            <AltitudeMeters>172.8000030517578125</AltitudeMeters>
            <DistanceMeters>NAN</DistanceMeters>
          </Trackpoint>
          <Trackpoint>
            <Time>2022-07-11T10:37:56.000Z</Time>
            <Position>
              <LatitudeDegrees>43.2738648913800716400146484375</LatitudeDegrees>
              <LongitudeDegrees>-2.6173040829598903656005859375</LongitudeDegrees>
            </Position>
            <AltitudeMeters>171.600006103515625</AltitudeMeters>
            <DistanceMeters>NAN</DistanceMeters>
          </Trackpoint>
          <Trackpoint>
            <Time>2022-07-11T10:37:58.000Z</Time>
            <Position>
              <LatitudeDegrees>43.27370186336338520050048828125</LatitudeDegrees>
              <LongitudeDegrees>-2.6174274645745754241943359375</LongitudeDegrees>
            </Position>
            <AltitudeMeters>170.399993896484375</AltitudeMeters>
            <DistanceMeters>NAN</DistanceMeters>
          </Trackpoint>
          <Trackpoint>
            <Time>2022-07-11T10:37:59.000Z</Time>
            <Position>
              <LatitudeDegrees>43.273627348244190216064453125</LatitudeDegrees>
              <LongitudeDegrees>-2.61749594472348690032958984375</LongitudeDegrees>
            </Position>
            <AltitudeMeters>170.1999969482421875</AltitudeMeters>
            <DistanceMeters>NAN</DistanceMeters>
          </Trackpoint>
          <Trackpoint>
            <Time>2022-07-11T10:38:01.000Z</Time>
            <Position>
              <LatitudeDegrees>43.27348225750029087066650390625</LatitudeDegrees>
              <LongitudeDegrees>-2.61764732189476490020751953125</LongitudeDegrees>
            </Position>
            <AltitudeMeters>170</AltitudeMeters>
            <DistanceMeters>NAN</DistanceMeters>
          </Trackpoint>
          <Trackpoint>
            <Time>2022-07-11T10:38:03.000Z</Time>
            <Position>
              <LatitudeDegrees>43.27339374460279941558837890625</LatitudeDegrees>
              <LongitudeDegrees>-2.6178556121885776519775390625</LongitudeDegrees>
            </Position>
            <AltitudeMeters>169.399993896484375</AltitudeMeters>
            <DistanceMeters>NAN</DistanceMeters>
          </Trackpoint>
          <Trackpoint>
            <Time>2022-07-11T10:38:05.000Z</Time>
            <Position>
              <LatitudeDegrees>43.27339701354503631591796875</LatitudeDegrees>
              <LongitudeDegrees>-2.6180906407535076141357421875</LongitudeDegrees>
            </Position>
            <AltitudeMeters>168.399993896484375</AltitudeMeters>
            <DistanceMeters>NAN</DistanceMeters>
          </Trackpoint>
          <Trackpoint>
            <Time>2022-07-11T10:38:06.000Z</Time>
            <Position>
              <LatitudeDegrees>43.27342576347291469573974609375</LatitudeDegrees>
              <LongitudeDegrees>-2.61820488609373569488525390625</LongitudeDegrees>
            </Position>
            <AltitudeMeters>168</AltitudeMeters>
            <DistanceMeters>NAN</DistanceMeters>
          </Trackpoint>
          <Trackpoint>
            <Time>2022-07-11T10:38:07.000Z</Time>
            <Position>
              <LatitudeDegrees>43.2734672538936138153076171875</LatitudeDegrees>
              <LongitudeDegrees>-2.6183174550533294677734375</LongitudeDegrees>
            </Position>
            <AltitudeMeters>167.600006103515625</AltitudeMeters>
            <DistanceMeters>NAN</DistanceMeters>
          </Trackpoint>
          <Trackpoint>
            <Time>2022-07-11T10:38:08.000Z</Time>
            <Position>
              <LatitudeDegrees>43.2735197246074676513671875</LatitudeDegrees>
              <LongitudeDegrees>-2.61842315085232257843017578125</LongitudeDegrees>
            </Position>
            <AltitudeMeters>167.1999969482421875</AltitudeMeters>
            <DistanceMeters>NAN</DistanceMeters>
          </Trackpoint>
          <Trackpoint>
            <Time>2022-07-11T10:38:09.000Z</Time>
            <Position>
              <LatitudeDegrees>43.2735856063663959503173828125</LatitudeDegrees>
              <LongitudeDegrees>-2.61851468123495578765869140625</LongitudeDegrees>
            </Position>
            <AltitudeMeters>166.600006103515625</AltitudeMeters>
            <DistanceMeters>NAN</DistanceMeters>
          </Trackpoint>
          <Trackpoint>
            <Time>2022-07-11T10:38:10.000Z</Time>
            <Position>
              <LatitudeDegrees>43.27366045676171779632568359375</LatitudeDegrees>
              <LongitudeDegrees>-2.61859246529638767242431640625</LongitudeDegrees>
            </Position>
            <AltitudeMeters>166.1999969482421875</AltitudeMeters>
            <DistanceMeters>NAN</DistanceMeters>
          </Trackpoint>
          <Trackpoint>
            <Time>2022-07-11T10:38:11.000Z</Time>
            <Position>
              <LatitudeDegrees>43.27374461106956005096435546875</LatitudeDegrees>
              <LongitudeDegrees>-2.61864678002893924713134765625</LongitudeDegrees>
            </Position>
            <AltitudeMeters>165.8000030517578125</AltitudeMeters>
            <DistanceMeters>NAN</DistanceMeters>
          </Trackpoint>
          <Trackpoint>
            <Time>2022-07-11T10:38:12.000Z</Time>
            <Position>
              <LatitudeDegrees>43.2738387398421764373779296875</LatitudeDegrees>
              <LongitudeDegrees>-2.6186787150800228118896484375</LongitudeDegrees>
            </Position>
            <AltitudeMeters>164.8000030517578125</AltitudeMeters>
            <DistanceMeters>NAN</DistanceMeters>
          </Trackpoint>
          <Trackpoint>
            <Time>2022-07-11T10:38:14.000Z</Time>
            <Position>
              <LatitudeDegrees>43.27402020804584026336669921875</LatitudeDegrees>
              <LongitudeDegrees>-2.61874970979988574981689453125</LongitudeDegrees>
            </Position>
            <AltitudeMeters>163.8000030517578125</AltitudeMeters>
            <DistanceMeters>NAN</DistanceMeters>
          </Trackpoint>
          <Trackpoint>
            <Time>2022-07-11T10:38:15.000Z</Time>
            <Position>
              <LatitudeDegrees>43.2740969024598598480224609375</LatitudeDegrees>
              <LongitudeDegrees>-2.61880352161824703216552734375</LongitudeDegrees>
            </Position>
            <AltitudeMeters>163.600006103515625</AltitudeMeters>
            <DistanceMeters>NAN</DistanceMeters>
          </Trackpoint>
          <Trackpoint>
            <Time>2022-07-11T10:38:16.000Z</Time>
            <Position>
              <LatitudeDegrees>43.2741652987897396087646484375</LatitudeDegrees>
              <LongitudeDegrees>-2.618876360356807708740234375</LongitudeDegrees>
            </Position>
            <AltitudeMeters>163.1999969482421875</AltitudeMeters>
            <DistanceMeters>NAN</DistanceMeters>
          </Trackpoint>
          <Trackpoint>
            <Time>2022-07-11T10:38:20.000Z</Time>
            <Position>
              <LatitudeDegrees>43.27434006147086620330810546875</LatitudeDegrees>
              <LongitudeDegrees>-2.61913728900253772735595703125</LongitudeDegrees>
            </Position>
            <AltitudeMeters>162.399993896484375</AltitudeMeters>
            <DistanceMeters>NAN</DistanceMeters>
          </Trackpoint>
          <Trackpoint>
            <Time>2022-07-11T10:38:22.000Z</Time>
            <Position>
              <LatitudeDegrees>43.27456201426684856414794921875</LatitudeDegrees>
              <LongitudeDegrees>-2.6193046756088733673095703125</LongitudeDegrees>
            </Position>
            <AltitudeMeters>161.399993896484375</AltitudeMeters>
            <DistanceMeters>NAN</DistanceMeters>
          </Trackpoint>
          <Trackpoint>
            <Time>2022-07-11T10:38:23.000Z</Time>
            <Position>
              <LatitudeDegrees>43.27466544695198535919189453125</LatitudeDegrees>
              <LongitudeDegrees>-2.61934633366763591766357421875</LongitudeDegrees>
            </Position>
            <AltitudeMeters>161</AltitudeMeters>
            <DistanceMeters>NAN</DistanceMeters>
          </Trackpoint>
          <Trackpoint>
            <Time>2022-07-11T10:38:25.000Z</Time>
            <Position>
              <LatitudeDegrees>43.2748348452150821685791015625</LatitudeDegrees>
              <LongitudeDegrees>-2.61940115131437778472900390625</LongitudeDegrees>
            </Position>
            <AltitudeMeters>160.399993896484375</AltitudeMeters>
            <DistanceMeters>NAN</DistanceMeters>
          </Trackpoint>
          <Trackpoint>
            <Time>2022-07-11T10:38:27.000Z</Time>
            <Position>
              <LatitudeDegrees>43.274993598461151123046875</LatitudeDegrees>
              <LongitudeDegrees>-2.61946736834943294525146484375</LongitudeDegrees>
            </Position>
            <AltitudeMeters>160</AltitudeMeters>
            <DistanceMeters>NAN</DistanceMeters>
          </Trackpoint>
          <Trackpoint>
            <Time>2022-07-11T10:38:29.000Z</Time>
            <Position>
              <LatitudeDegrees>43.27511941082775592803955078125</LatitudeDegrees>
              <LongitudeDegrees>-2.61957381851971149444580078125</LongitudeDegrees>
            </Position>
            <AltitudeMeters>159.600006103515625</AltitudeMeters>
            <DistanceMeters>NAN</DistanceMeters>
          </Trackpoint>
          <Trackpoint>
            <Time>2022-07-11T10:38:30.000Z</Time>
            <Position>
              <LatitudeDegrees>43.27517003752291202545166015625</LatitudeDegrees>
              <LongitudeDegrees>-2.61965252459049224853515625</LongitudeDegrees>
            </Position>
            <AltitudeMeters>159.399993896484375</AltitudeMeters>
            <DistanceMeters>NAN</DistanceMeters>
          </Trackpoint>
          <Trackpoint>
            <Time>2022-07-11T10:38:31.000Z</Time>
            <Position>
              <LatitudeDegrees>43.27520750463008880615234375</LatitudeDegrees>
              <LongitudeDegrees>-2.61973525397479534149169921875</LongitudeDegrees>
            </Position>
            <AltitudeMeters>158.8000030517578125</AltitudeMeters>
            <DistanceMeters>NAN</DistanceMeters>
          </Trackpoint>
          <Trackpoint>
            <Time>2022-07-11T10:38:32.000Z</Time>
            <Position>
              <LatitudeDegrees>43.27523189596831798553466796875</LatitudeDegrees>
              <LongitudeDegrees>-2.61983357369899749755859375</LongitudeDegrees>
            </Position>
            <AltitudeMeters>158.600006103515625</AltitudeMeters>
            <DistanceMeters>NAN</DistanceMeters>
          </Trackpoint>
          <Trackpoint>
            <Time>2022-07-11T10:38:34.000Z</Time>
            <Position>
              <LatitudeDegrees>43.27527564950287342071533203125</LatitudeDegrees>
              <LongitudeDegrees>-2.62003230862319469451904296875</LongitudeDegrees>
            </Position>
            <AltitudeMeters>158.1999969482421875</AltitudeMeters>
            <DistanceMeters>NAN</DistanceMeters>
          </Trackpoint>
          <Trackpoint>
            <Time>2022-07-11T10:38:36.000Z</Time>
            <Position>
              <LatitudeDegrees>43.27531135641038417816162109375</LatitudeDegrees>
              <LongitudeDegrees>-2.6201254315674304962158203125</LongitudeDegrees>
            </Position>
            <AltitudeMeters>158</AltitudeMeters>
            <DistanceMeters>NAN</DistanceMeters>
          </Trackpoint>
          <Trackpoint>
            <Time>2022-07-11T10:38:38.000Z</Time>
            <Position>
              <LatitudeDegrees>43.27545871026813983917236328125</LatitudeDegrees>
              <LongitudeDegrees>-2.6203809119760990142822265625</LongitudeDegrees>
            </Position>
            <AltitudeMeters>157.399993896484375</AltitudeMeters>
            <DistanceMeters>NAN</DistanceMeters>
          </Trackpoint>
          <Trackpoint>
            <Time>2022-07-11T10:38:39.000Z</Time>
            <Position>
              <LatitudeDegrees>43.27551956288516521453857421875</LatitudeDegrees>
              <LongitudeDegrees>-2.62045978568494319915771484375</LongitudeDegrees>
            </Position>
            <AltitudeMeters>157</AltitudeMeters>
            <DistanceMeters>NAN</DistanceMeters>
          </Trackpoint>
          <Trackpoint>
            <Time>2022-07-11T10:38:40.000Z</Time>
            <Position>
              <LatitudeDegrees>43.27551956288516521453857421875</LatitudeDegrees>
              <LongitudeDegrees>-2.62045978568494319915771484375</LongitudeDegrees>
            </Position>
            <AltitudeMeters>156.399993896484375</AltitudeMeters>
            <DistanceMeters>NAN</DistanceMeters>
          </Trackpoint>
          <Trackpoint>
            <Time>2022-07-11T10:38:41.000Z</Time>
            <Position>
              <LatitudeDegrees>43.27558225952088832855224609375</LatitudeDegrees>
              <LongitudeDegrees>-2.62054301798343658447265625</LongitudeDegrees>
            </Position>
            <AltitudeMeters>155.8000030517578125</AltitudeMeters>
            <DistanceMeters>NAN</DistanceMeters>
          </Trackpoint>
          <Trackpoint>
            <Time>2022-07-11T10:38:43.000Z</Time>
            <Position>
              <LatitudeDegrees>43.27574403025209903717041015625</LatitudeDegrees>
              <LongitudeDegrees>-2.620806209743022918701171875</LongitudeDegrees>
            </Position>
            <AltitudeMeters>155</AltitudeMeters>
            <DistanceMeters>NAN</DistanceMeters>
          </Trackpoint>
          <Trackpoint>
            <Time>2022-07-11T10:38:44.000Z</Time>
            <Position>
              <LatitudeDegrees>43.27581108547747135162353515625</LatitudeDegrees>
              <LongitudeDegrees>-2.62093051336705684661865234375</LongitudeDegrees>
            </Position>
            <AltitudeMeters>154.399993896484375</AltitudeMeters>
            <DistanceMeters>NAN</DistanceMeters>
          </Trackpoint>
          <Trackpoint>
            <Time>2022-07-11T10:38:45.000Z</Time>
            <Position>
              <LatitudeDegrees>43.27581108547747135162353515625</LatitudeDegrees>
              <LongitudeDegrees>-2.62093051336705684661865234375</LongitudeDegrees>
            </Position>
            <AltitudeMeters>154</AltitudeMeters>
            <DistanceMeters>NAN</DistanceMeters>
          </Trackpoint>
          <Trackpoint>
            <Time>2022-07-11T10:38:46.000Z</Time>
            <Position>
              <LatitudeDegrees>43.27587537467479705810546875</LatitudeDegrees>
              <LongitudeDegrees>-2.6210296712815761566162109375</LongitudeDegrees>
            </Position>
            <AltitudeMeters>153.600006103515625</AltitudeMeters>
            <DistanceMeters>NAN</DistanceMeters>
          </Trackpoint>
          <Trackpoint>
            <Time>2022-07-11T10:38:47.000Z</Time>
            <Position>
              <LatitudeDegrees>43.2759348861873149871826171875</LatitudeDegrees>
              <LongitudeDegrees>-2.6211098022758960723876953125</LongitudeDegrees>
            </Position>
            <AltitudeMeters>153</AltitudeMeters>
            <DistanceMeters>NAN</DistanceMeters>
          </Trackpoint>
          <Trackpoint>
            <Time>2022-07-11T10:38:49.000Z</Time>
            <Position>
              <LatitudeDegrees>43.276089616119861602783203125</LatitudeDegrees>
              <LongitudeDegrees>-2.62126461602747440338134765625</LongitudeDegrees>
            </Position>
            <AltitudeMeters>152.399993896484375</AltitudeMeters>
            <DistanceMeters>NAN</DistanceMeters>
          </Trackpoint>
          <Trackpoint>
            <Time>2022-07-11T10:38:50.000Z</Time>
            <Position>
              <LatitudeDegrees>43.27624107711017131805419921875</LatitudeDegrees>
              <LongitudeDegrees>-2.62144616805016994476318359375</LongitudeDegrees>
            </Position>
            <AltitudeMeters>152</AltitudeMeters>
            <DistanceMeters>NAN</DistanceMeters>
          </Trackpoint>
          <Trackpoint>
            <Time>2022-07-11T10:38:52.000Z</Time>
            <Position>
              <LatitudeDegrees>43.2763412408530712127685546875</LatitudeDegrees>
              <LongitudeDegrees>-2.62165789492428302764892578125</LongitudeDegrees>
            </Position>
            <AltitudeMeters>150.8000030517578125</AltitudeMeters>
            <DistanceMeters>NAN</DistanceMeters>
          </Trackpoint>
          <Trackpoint>
            <Time>2022-07-11T10:38:55.000Z</Time>
            <Position>
              <LatitudeDegrees>43.27646839432418346405029296875</LatitudeDegrees>
              <LongitudeDegrees>-2.622010521590709686279296875</LongitudeDegrees>
            </Position>
            <AltitudeMeters>149.600006103515625</AltitudeMeters>
            <DistanceMeters>NAN</DistanceMeters>
          </Trackpoint>
          <Trackpoint>
            <Time>2022-07-11T10:38:56.000Z</Time>
            <Position>
              <LatitudeDegrees>43.27652321197092533111572265625</LatitudeDegrees>
              <LongitudeDegrees>-2.62212158180773258209228515625</LongitudeDegrees>
            </Position>
            <AltitudeMeters>149.399993896484375</AltitudeMeters>
            <DistanceMeters>NAN</DistanceMeters>
          </Trackpoint>
          <Trackpoint>
            <Time>2022-07-11T10:38:57.000Z</Time>
            <Position>
              <LatitudeDegrees>43.27658792026340961456298828125</LatitudeDegrees>
              <LongitudeDegrees>-2.62222568504512310028076171875</LongitudeDegrees>
            </Position>
            <AltitudeMeters>148.600006103515625</AltitudeMeters>
            <DistanceMeters>NAN</DistanceMeters>
          </Trackpoint>
          <Trackpoint>
            <Time>2022-07-11T10:38:58.000Z</Time>
            <Position>
              <LatitudeDegrees>43.27665363438427448272705078125</LatitudeDegrees>
              <LongitudeDegrees>-2.6223261840641498565673828125</LongitudeDegrees>
            </Position>
            <AltitudeMeters>148.1999969482421875</AltitudeMeters>
            <DistanceMeters>NAN</DistanceMeters>
          </Trackpoint>
          <Trackpoint>
            <Time>2022-07-11T10:38:59.000Z</Time>
            <Position>
              <LatitudeDegrees>43.27671482227742671966552734375</LatitudeDegrees>
              <LongitudeDegrees>-2.62242869473993778228759765625</LongitudeDegrees>
            </Position>
            <AltitudeMeters>147.8000030517578125</AltitudeMeters>
            <DistanceMeters>NAN</DistanceMeters>
          </Trackpoint>
          <Trackpoint>
            <Time>2022-07-11T10:39:01.000Z</Time>
            <Position>
              <LatitudeDegrees>43.27681037597358226776123046875</LatitudeDegrees>
              <LongitudeDegrees>-2.622640840709209442138671875</LongitudeDegrees>
            </Position>
            <AltitudeMeters>146.600006103515625</AltitudeMeters>
            <DistanceMeters>NAN</DistanceMeters>
          </Trackpoint>
          <Trackpoint>
            <Time>2022-07-11T10:39:05.000Z</Time>
            <Position>
              <LatitudeDegrees>43.27695873565971851348876953125</LatitudeDegrees>
              <LongitudeDegrees>-2.6231144182384014129638671875</LongitudeDegrees>
            </Position>
            <AltitudeMeters>144.399993896484375</AltitudeMeters>
            <DistanceMeters>NAN</DistanceMeters>
          </Trackpoint>
          <Trackpoint>
            <Time>2022-07-11T10:39:06.000Z</Time>
            <Position>
              <LatitudeDegrees>43.27699343673884868621826171875</LatitudeDegrees>
              <LongitudeDegrees>-2.6232339441776275634765625</LongitudeDegrees>
            </Position>
            <AltitudeMeters>144</AltitudeMeters>
            <DistanceMeters>NAN</DistanceMeters>
          </Trackpoint>
          <Trackpoint>
            <Time>2022-07-11T10:39:08.000Z</Time>
            <Position>
              <LatitudeDegrees>43.27706803567707538604736328125</LatitudeDegrees>
              <LongitudeDegrees>-2.6234677992761135101318359375</LongitudeDegrees>
            </Position>
            <AltitudeMeters>143.1999969482421875</AltitudeMeters>
            <DistanceMeters>NAN</DistanceMeters>
          </Trackpoint>
          <Trackpoint>
            <Time>2022-07-11T10:39:10.000Z</Time>
            <Position>
              <LatitudeDegrees>43.27715319581329822540283203125</LatitudeDegrees>
              <LongitudeDegrees>-2.6236954517662525177001953125</LongitudeDegrees>
            </Position>
            <AltitudeMeters>142.8000030517578125</AltitudeMeters>
            <DistanceMeters>NAN</DistanceMeters>
          </Trackpoint>
          <Trackpoint>
            <Time>2022-07-11T10:39:12.000Z</Time>
            <Position>
              <LatitudeDegrees>43.27728076837956905364990234375</LatitudeDegrees>
              <LongitudeDegrees>-2.62388748116791248321533203125</LongitudeDegrees>
            </Position>
            <AltitudeMeters>142.1999969482421875</AltitudeMeters>
            <DistanceMeters>NAN</DistanceMeters>
          </Trackpoint>
          <Trackpoint>
            <Time>2022-07-11T10:39:13.000Z</Time>
            <Position>
              <LatitudeDegrees>43.27735855244100093841552734375</LatitudeDegrees>
              <LongitudeDegrees>-2.6239603199064731597900390625</LongitudeDegrees>
            </Position>
            <AltitudeMeters>142</AltitudeMeters>
            <DistanceMeters>NAN</DistanceMeters>
          </Trackpoint>
          <Trackpoint>
            <Time>2022-07-11T10:39:14.000Z</Time>
            <Position>
              <LatitudeDegrees>43.2774422876536846160888671875</LatitudeDegrees>
              <LongitudeDegrees>-2.62401823885738849639892578125</LongitudeDegrees>
            </Position>
            <AltitudeMeters>141.600006103515625</AltitudeMeters>
            <DistanceMeters>NAN</DistanceMeters>
          </Trackpoint>
          <Trackpoint>
            <Time>2022-07-11T10:39:15.000Z</Time>
            <Position>
              <LatitudeDegrees>43.27753172256052494049072265625</LatitudeDegrees>
              <LongitudeDegrees>-2.6240619085729122161865234375</LongitudeDegrees>
            </Position>
            <AltitudeMeters>140.600006103515625</AltitudeMeters>
            <DistanceMeters>NAN</DistanceMeters>
          </Trackpoint>
          <Trackpoint>
            <Time>2022-07-11T10:39:16.000Z</Time>
            <Position>
              <LatitudeDegrees>43.27762015163898468017578125</LatitudeDegrees>
              <LongitudeDegrees>-2.62410406954586505889892578125</LongitudeDegrees>
            </Position>
            <AltitudeMeters>139.399993896484375</AltitudeMeters>
            <DistanceMeters>NAN</DistanceMeters>
          </Trackpoint>
          <Trackpoint>
            <Time>2022-07-11T10:39:18.000Z</Time>
            <Position>
              <LatitudeDegrees>43.2777946628630161285400390625</LatitudeDegrees>
              <LongitudeDegrees>-2.62417715974152088165283203125</LongitudeDegrees>
            </Position>
            <AltitudeMeters>138.1999969482421875</AltitudeMeters>
            <DistanceMeters>NAN</DistanceMeters>
          </Trackpoint>
          <Trackpoint>
            <Time>2022-07-11T10:39:20.000Z</Time>
            <Position>
              <LatitudeDegrees>43.27795601449906826019287109375</LatitudeDegrees>
              <LongitudeDegrees>-2.62425477616488933563232421875</LongitudeDegrees>
            </Position>
            <AltitudeMeters>137.8000030517578125</AltitudeMeters>
            <DistanceMeters>NAN</DistanceMeters>
          </Trackpoint>
          <Trackpoint>
            <Time>2022-07-11T10:39:21.000Z</Time>
            <Position>
              <LatitudeDegrees>43.278024159371852874755859375</LatitudeDegrees>
              <LongitudeDegrees>-2.62430825270712375640869140625</LongitudeDegrees>
            </Position>
            <AltitudeMeters>137.8000030517578125</AltitudeMeters>
            <DistanceMeters>NAN</DistanceMeters>
          </Trackpoint>
          <Trackpoint>
            <Time>2022-07-11T10:39:22.000Z</Time>
            <Position>
              <LatitudeDegrees>43.278083167970180511474609375</LatitudeDegrees>
              <LongitudeDegrees>-2.62437279336154460906982421875</LongitudeDegrees>
            </Position>
            <AltitudeMeters>137.600006103515625</AltitudeMeters>
            <DistanceMeters>NAN</DistanceMeters>
          </Trackpoint>
          <Trackpoint>
            <Time>2022-07-11T10:39:24.000Z</Time>
            <Position>
              <LatitudeDegrees>43.27818165533244609832763671875</LatitudeDegrees>
              <LongitudeDegrees>-2.62453724630177021026611328125</LongitudeDegrees>
            </Position>
            <AltitudeMeters>137</AltitudeMeters>
            <DistanceMeters>NAN</DistanceMeters>
          </Trackpoint>
          <Trackpoint>
            <Time>2022-07-11T10:39:28.000Z</Time>
            <Position>
              <LatitudeDegrees>43.2782898657023906707763671875</LatitudeDegrees>
              <LongitudeDegrees>-2.62490135617554187774658203125</LongitudeDegrees>
            </Position>
            <AltitudeMeters>136</AltitudeMeters>
            <DistanceMeters>NAN</DistanceMeters>
          </Trackpoint>
          <Trackpoint>
            <Time>2022-07-11T10:39:32.000Z</Time>
            <Position>
              <LatitudeDegrees>43.27832129783928394317626953125</LatitudeDegrees>
              <LongitudeDegrees>-2.62527787126600742340087890625</LongitudeDegrees>
            </Position>
            <AltitudeMeters>135.8000030517578125</AltitudeMeters>
            <DistanceMeters>NAN</DistanceMeters>
          </Trackpoint>
          <Trackpoint>
            <Time>2022-07-11T10:39:35.000Z</Time>
            <Position>
              <LatitudeDegrees>43.2782798074185848236083984375</LatitudeDegrees>
              <LongitudeDegrees>-2.625563442707061767578125</LongitudeDegrees>
            </Position>
            <AltitudeMeters>134.8000030517578125</AltitudeMeters>
            <DistanceMeters>NAN</DistanceMeters>
          </Trackpoint>
          <Trackpoint>
            <Time>2022-07-11T10:39:37.000Z</Time>
            <Position>
              <LatitudeDegrees>43.27825977467000484466552734375</LatitudeDegrees>
              <LongitudeDegrees>-2.62575429864227771759033203125</LongitudeDegrees>
            </Position>
            <AltitudeMeters>134.399993896484375</AltitudeMeters>
            <DistanceMeters>NAN</DistanceMeters>
          </Trackpoint>
          <Trackpoint>
            <Time>2022-07-11T10:39:38.000Z</Time>
            <Position>
              <LatitudeDegrees>43.27825717628002166748046875</LatitudeDegrees>
              <LongitudeDegrees>-2.62585110962390899658203125</LongitudeDegrees>
            </Position>
            <AltitudeMeters>134.1999969482421875</AltitudeMeters>
            <DistanceMeters>NAN</DistanceMeters>
          </Trackpoint>
          <Trackpoint>
            <Time>2022-07-11T10:39:40.000Z</Time>
            <Position>
              <LatitudeDegrees>43.27827268280088901519775390625</LatitudeDegrees>
              <LongitudeDegrees>-2.62605152092874050140380859375</LongitudeDegrees>
            </Position>
            <AltitudeMeters>133.8000030517578125</AltitudeMeters>
            <DistanceMeters>NAN</DistanceMeters>
          </Trackpoint>
          <Trackpoint>
            <Time>2022-07-11T10:39:41.000Z</Time>
            <Position>
              <LatitudeDegrees>43.278287686407566070556640625</LatitudeDegrees>
              <LongitudeDegrees>-2.6261493377387523651123046875</LongitudeDegrees>
            </Position>
            <AltitudeMeters>133.8000030517578125</AltitudeMeters>
            <DistanceMeters>NAN</DistanceMeters>
          </Trackpoint>
          <Trackpoint>
            <Time>2022-07-11T10:39:43.000Z</Time>
            <Position>
              <LatitudeDegrees>43.2783612795174121856689453125</LatitudeDegrees>
              <LongitudeDegrees>-2.626336254179477691650390625</LongitudeDegrees>
            </Position>
            <AltitudeMeters>133</AltitudeMeters>
            <DistanceMeters>NAN</DistanceMeters>
          </Trackpoint>
          <Trackpoint>
            <Time>2022-07-11T10:39:44.000Z</Time>
            <Position>
              <LatitudeDegrees>43.2784139178693294525146484375</LatitudeDegrees>
              <LongitudeDegrees>-2.6264142058789730072021484375</LongitudeDegrees>
            </Position>
            <AltitudeMeters>132.600006103515625</AltitudeMeters>
            <DistanceMeters>NAN</DistanceMeters>
          </Trackpoint>
          <Trackpoint>
            <Time>2022-07-11T10:39:45.000Z</Time>
            <Position>
              <LatitudeDegrees>43.27846496365964412689208984375</LatitudeDegrees>
              <LongitudeDegrees>-2.62646533548831939697265625</LongitudeDegrees>
            </Position>
            <AltitudeMeters>132.399993896484375</AltitudeMeters>
            <DistanceMeters>NAN</DistanceMeters>
          </Trackpoint>
          <Trackpoint>
            <Time>2022-07-11T10:39:47.000Z</Time>
            <Position>
              <LatitudeDegrees>43.2786164246499538421630859375</LatitudeDegrees>
              <LongitudeDegrees>-2.62657455168664455413818359375</LongitudeDegrees>
            </Position>
            <AltitudeMeters>132</AltitudeMeters>
            <DistanceMeters>NAN</DistanceMeters>
          </Trackpoint>
          <Trackpoint>
            <Time>2022-07-11T10:39:49.000Z</Time>
            <Position>
              <LatitudeDegrees>43.2786878384649753570556640625</LatitudeDegrees>
              <LongitudeDegrees>-2.62660908512771129608154296875</LongitudeDegrees>
            </Position>
            <AltitudeMeters>131.600006103515625</AltitudeMeters>
            <DistanceMeters>NAN</DistanceMeters>
          </Trackpoint>
          <Trackpoint>
            <Time>2022-07-11T10:39:50.000Z</Time>
            <Position>
              <LatitudeDegrees>43.27882052399218082427978515625</LatitudeDegrees>
              <LongitudeDegrees>-2.6266817562282085418701171875</LongitudeDegrees>
            </Position>
            <AltitudeMeters>131.399993896484375</AltitudeMeters>
            <DistanceMeters>NAN</DistanceMeters>
          </Trackpoint>
          <Trackpoint>
            <Time>2022-07-11T10:39:52.000Z</Time>
            <Position>
              <LatitudeDegrees>43.2789245434105396270751953125</LatitudeDegrees>
              <LongitudeDegrees>-2.62680455110967159271240234375</LongitudeDegrees>
            </Position>
            <AltitudeMeters>130.600006103515625</AltitudeMeters>
            <DistanceMeters>NAN</DistanceMeters>
          </Trackpoint>
          <Trackpoint>
            <Time>2022-07-11T10:39:53.000Z</Time>
            <Position>
              <LatitudeDegrees>43.27896595001220703125</LatitudeDegrees>
              <LongitudeDegrees>-2.62688149698078632354736328125</LongitudeDegrees>
            </Position>
            <AltitudeMeters>130.1999969482421875</AltitudeMeters>
            <DistanceMeters>NAN</DistanceMeters>
          </Trackpoint>
          <Trackpoint>
            <Time>2022-07-11T10:39:56.000Z</Time>
            <Position>
              <LatitudeDegrees>43.27903744764626026153564453125</LatitudeDegrees>
              <LongitudeDegrees>-2.62704846449196338653564453125</LongitudeDegrees>
            </Position>
            <AltitudeMeters>129.399993896484375</AltitudeMeters>
            <DistanceMeters>NAN</DistanceMeters>
          </Trackpoint>
          <Trackpoint>
            <Time>2022-07-11T10:39:57.000Z</Time>
            <Position>
              <LatitudeDegrees>43.279112465679645538330078125</LatitudeDegrees>
              <LongitudeDegrees>-2.62721593491733074188232421875</LongitudeDegrees>
            </Position>
            <AltitudeMeters>129.1999969482421875</AltitudeMeters>
            <DistanceMeters>NAN</DistanceMeters>
          </Trackpoint>
          <Trackpoint>
            <Time>2022-07-11T10:39:59.000Z</Time>
            <Position>
              <LatitudeDegrees>43.279215730726718902587890625</LatitudeDegrees>
              <LongitudeDegrees>-2.62736127711832523345947265625</LongitudeDegrees>
            </Position>
            <AltitudeMeters>128.8000030517578125</AltitudeMeters>
            <DistanceMeters>NAN</DistanceMeters>
          </Trackpoint>
          <Trackpoint>
            <Time>2022-07-11T10:40:00.000Z</Time>
            <Position>
              <LatitudeDegrees>43.279274739325046539306640625</LatitudeDegrees>
              <LongitudeDegrees>-2.6274213753640651702880859375</LongitudeDegrees>
            </Position>
            <AltitudeMeters>128.1999969482421875</AltitudeMeters>
            <DistanceMeters>NAN</DistanceMeters>
          </Trackpoint>
          <Trackpoint>
            <Time>2022-07-11T10:40:03.000Z</Time>
            <Position>
              <LatitudeDegrees>43.27944782562553882598876953125</LatitudeDegrees>
              <LongitudeDegrees>-2.62759077362716197967529296875</LongitudeDegrees>
            </Position>
            <AltitudeMeters>127.40000152587890625</AltitudeMeters>
            <DistanceMeters>NAN</DistanceMeters>
          </Trackpoint>
          <Trackpoint>
            <Time>2022-07-11T10:40:04.000Z</Time>
            <Position>
              <LatitudeDegrees>43.279498703777790069580078125</LatitudeDegrees>
              <LongitudeDegrees>-2.627658583223819732666015625</LongitudeDegrees>
            </Position>
            <AltitudeMeters>127</AltitudeMeters>
            <DistanceMeters>NAN</DistanceMeters>
          </Trackpoint>
          <Trackpoint>
            <Time>2022-07-11T10:40:06.000Z</Time>
            <Position>
              <LatitudeDegrees>43.27960121445357799530029296875</LatitudeDegrees>
              <LongitudeDegrees>-2.62779948301613330841064453125</LongitudeDegrees>
            </Position>
            <AltitudeMeters>126.40000152587890625</AltitudeMeters>
            <DistanceMeters>NAN</DistanceMeters>
          </Trackpoint>
          <Trackpoint>
            <Time>2022-07-11T10:40:09.000Z</Time>
            <Position>
              <LatitudeDegrees>43.2797395996749401092529296875</LatitudeDegrees>
              <LongitudeDegrees>-2.6280055940151214599609375</LongitudeDegrees>
            </Position>
            <AltitudeMeters>126</AltitudeMeters>
            <DistanceMeters>NAN</DistanceMeters>
          </Trackpoint>
          <Trackpoint>
            <Time>2022-07-11T10:40:14.000Z</Time>
            <Position>
              <LatitudeDegrees>43.27992173843085765838623046875</LatitudeDegrees>
              <LongitudeDegrees>-2.6282656006515026092529296875</LongitudeDegrees>
            </Position>
            <AltitudeMeters>125</AltitudeMeters>
            <DistanceMeters>NAN</DistanceMeters>
          </Trackpoint>
          <Trackpoint>
            <Time>2022-07-11T10:40:16.000Z</Time>
            <Position>
              <LatitudeDegrees>43.2800493948161602020263671875</LatitudeDegrees>
              <LongitudeDegrees>-2.6284583844244480133056640625</LongitudeDegrees>
            </Position>
            <AltitudeMeters>125</AltitudeMeters>
            <DistanceMeters>NAN</DistanceMeters>
          </Trackpoint>
          <Trackpoint>
            <Time>2022-07-11T10:40:17.000Z</Time>
            <Position>
              <LatitudeDegrees>43.2800493948161602020263671875</LatitudeDegrees>
              <LongitudeDegrees>-2.6284583844244480133056640625</LongitudeDegrees>
            </Position>
            <AltitudeMeters>124.8000030517578125</AltitudeMeters>
            <DistanceMeters>NAN</DistanceMeters>
          </Trackpoint>
          <Trackpoint>
            <Time>2022-07-11T10:40:18.000Z</Time>
            <Position>
              <LatitudeDegrees>43.28012089245021343231201171875</LatitudeDegrees>
              <LongitudeDegrees>-2.62859190814197063446044921875</LongitudeDegrees>
            </Position>
            <AltitudeMeters>124.8000030517578125</AltitudeMeters>
            <DistanceMeters>NAN</DistanceMeters>
          </Trackpoint>
          <Trackpoint>
            <Time>2022-07-11T10:40:22.000Z</Time>
            <Position>
              <LatitudeDegrees>43.28023731708526611328125</LatitudeDegrees>
              <LongitudeDegrees>-2.62888980098068714141845703125</LongitudeDegrees>
            </Position>
            <AltitudeMeters>124</AltitudeMeters>
            <DistanceMeters>NAN</DistanceMeters>
          </Trackpoint>
          <Trackpoint>
            <Time>2022-07-11T10:40:23.000Z</Time>
            <Position>
              <LatitudeDegrees>43.2802633009850978851318359375</LatitudeDegrees>
              <LongitudeDegrees>-2.62896691448986530303955078125</LongitudeDegrees>
            </Position>
            <AltitudeMeters>124</AltitudeMeters>
            <DistanceMeters>NAN</DistanceMeters>
          </Trackpoint>
          <Trackpoint>
            <Time>2022-07-11T10:40:24.000Z</Time>
            <Position>
              <LatitudeDegrees>43.2802633009850978851318359375</LatitudeDegrees>
              <LongitudeDegrees>-2.62896691448986530303955078125</LongitudeDegrees>
            </Position>
            <AltitudeMeters>123.59999847412109375</AltitudeMeters>
            <DistanceMeters>NAN</DistanceMeters>
          </Trackpoint>
          <Trackpoint>
            <Time>2022-07-11T10:40:27.000Z</Time>
            <Position>
              <LatitudeDegrees>43.28031669370830059051513671875</LatitudeDegrees>
              <LongitudeDegrees>-2.6292053796350955963134765625</LongitudeDegrees>
            </Position>
            <AltitudeMeters>122.40000152587890625</AltitudeMeters>
            <DistanceMeters>NAN</DistanceMeters>
          </Trackpoint>
          <Trackpoint>
            <Time>2022-07-11T10:40:29.000Z</Time>
            <Position>
              <LatitudeDegrees>43.2803454436361789703369140625</LatitudeDegrees>
              <LongitudeDegrees>-2.62937360443174839019775390625</LongitudeDegrees>
            </Position>
            <AltitudeMeters>121.8000030517578125</AltitudeMeters>
            <DistanceMeters>NAN</DistanceMeters>
          </Trackpoint>
          <Trackpoint>
            <Time>2022-07-11T10:40:30.000Z</Time>
            <Position>
              <LatitudeDegrees>43.28036262653768062591552734375</LatitudeDegrees>
              <LongitudeDegrees>-2.62945960275828838348388671875</LongitudeDegrees>
            </Position>
            <AltitudeMeters>121.59999847412109375</AltitudeMeters>
            <DistanceMeters>NAN</DistanceMeters>
          </Trackpoint>
          <Trackpoint>
            <Time>2022-07-11T10:40:31.000Z</Time>
            <Position>
              <LatitudeDegrees>43.2803806476294994354248046875</LatitudeDegrees>
              <LongitudeDegrees>-2.62952632270753383636474609375</LongitudeDegrees>
            </Position>
            <AltitudeMeters>121.40000152587890625</AltitudeMeters>
            <DistanceMeters>NAN</DistanceMeters>
          </Trackpoint>
          <Trackpoint>
            <Time>2022-07-11T10:40:33.000Z</Time>
            <Position>
              <LatitudeDegrees>43.28048181720077991485595703125</LatitudeDegrees>
              <LongitudeDegrees>-2.62975514866411685943603515625</LongitudeDegrees>
            </Position>
            <AltitudeMeters>121</AltitudeMeters>
            <DistanceMeters>NAN</DistanceMeters>
          </Trackpoint>
          <Trackpoint>
            <Time>2022-07-11T10:40:36.000Z</Time>
            <Position>
              <LatitudeDegrees>43.28062883578240871429443359375</LatitudeDegrees>
              <LongitudeDegrees>-2.6299741677939891815185546875</LongitudeDegrees>
            </Position>
            <AltitudeMeters>120.1999969482421875</AltitudeMeters>
            <DistanceMeters>NAN</DistanceMeters>
          </Trackpoint>
          <Trackpoint>
            <Time>2022-07-11T10:40:40.000Z</Time>
            <Position>
              <LatitudeDegrees>43.280748613178730010986328125</LatitudeDegrees>
              <LongitudeDegrees>-2.630130909383296966552734375</LongitudeDegrees>
            </Position>
            <AltitudeMeters>119.59999847412109375</AltitudeMeters>
            <DistanceMeters>NAN</DistanceMeters>
          </Trackpoint>
          <Trackpoint>
            <Time>2022-07-11T10:40:45.000Z</Time>
            <Position>
              <LatitudeDegrees>43.2809227891266345977783203125</LatitudeDegrees>
              <LongitudeDegrees>-2.6303444802761077880859375</LongitudeDegrees>
            </Position>
            <AltitudeMeters>119</AltitudeMeters>
            <DistanceMeters>NAN</DistanceMeters>
          </Trackpoint>
          <Trackpoint>
            <Time>2022-07-11T10:40:51.000Z</Time>
            <Position>
              <LatitudeDegrees>43.28104541637003421783447265625</LatitudeDegrees>
              <LongitudeDegrees>-2.63048973865807056427001953125</LongitudeDegrees>
            </Position>
            <AltitudeMeters>119.1999969482421875</AltitudeMeters>
            <DistanceMeters>NAN</DistanceMeters>
          </Trackpoint>
          <Trackpoint>
            <Time>2022-07-11T10:40:54.000Z</Time>
            <Position>
              <LatitudeDegrees>43.281106017529964447021484375</LatitudeDegrees>
              <LongitudeDegrees>-2.63057104311883449554443359375</LongitudeDegrees>
            </Position>
            <AltitudeMeters>119.40000152587890625</AltitudeMeters>
            <DistanceMeters>NAN</DistanceMeters>
          </Trackpoint>
          <Trackpoint>
            <Time>2022-07-11T10:41:00.000Z</Time>
            <Position>
              <LatitudeDegrees>43.28123836778104305267333984375</LatitudeDegrees>
              <LongitudeDegrees>-2.630757875740528106689453125</LongitudeDegrees>
            </Position>
            <AltitudeMeters>119.1999969482421875</AltitudeMeters>
            <DistanceMeters>NAN</DistanceMeters>
          </Trackpoint>
          <Trackpoint>
            <Time>2022-07-11T10:41:09.000Z</Time>
            <Position>
              <LatitudeDegrees>43.28149032779037952423095703125</LatitudeDegrees>
              <LongitudeDegrees>-2.6310257613658905029296875</LongitudeDegrees>
            </Position>
            <AltitudeMeters>118.8000030517578125</AltitudeMeters>
            <DistanceMeters>NAN</DistanceMeters>
          </Trackpoint>
          <Trackpoint>
            <Time>2022-07-11T10:41:12.000Z</Time>
            <Position>
              <LatitudeDegrees>43.28157448209822177886962890625</LatitudeDegrees>
              <LongitudeDegrees>-2.6311094127595424652099609375</LongitudeDegrees>
            </Position>
            <AltitudeMeters>118.59999847412109375</AltitudeMeters>
            <DistanceMeters>NAN</DistanceMeters>
          </Trackpoint>
          <Trackpoint>
            <Time>2022-07-11T10:41:14.000Z</Time>
            <Position>
              <LatitudeDegrees>43.28162603080272674560546875</LatitudeDegrees>
              <LongitudeDegrees>-2.63116129674017429351806640625</LongitudeDegrees>
            </Position>
            <AltitudeMeters>118.40000152587890625</AltitudeMeters>
            <DistanceMeters>NAN</DistanceMeters>
          </Trackpoint>
          <Trackpoint>
            <Time>2022-07-11T10:41:16.000Z</Time>
            <Position>
              <LatitudeDegrees>43.2816687785089015960693359375</LatitudeDegrees>
              <LongitudeDegrees>-2.6311861909925937652587890625</LongitudeDegrees>
            </Position>
            <AltitudeMeters>118</AltitudeMeters>
            <DistanceMeters>NAN</DistanceMeters>
          </Trackpoint>
          <Trackpoint>
            <Time>2022-07-11T10:41:17.000Z</Time>
            <Position>
              <LatitudeDegrees>43.281678669154644012451171875</LatitudeDegrees>
              <LongitudeDegrees>-2.63118610717356204986572265625</LongitudeDegrees>
            </Position>
            <AltitudeMeters>117.8000030517578125</AltitudeMeters>
            <DistanceMeters>NAN</DistanceMeters>
          </Trackpoint>
          <Trackpoint>
            <Time>2022-07-11T10:41:19.000Z</Time>
            <Position>
              <LatitudeDegrees>43.28168227337300777435302734375</LatitudeDegrees>
              <LongitudeDegrees>-2.63118493370711803436279296875</LongitudeDegrees>
            </Position>
            <AltitudeMeters>117.8000030517578125</AltitudeMeters>
            <DistanceMeters>NAN</DistanceMeters>
          </Trackpoint>
          <Trackpoint>
            <Time>2022-07-11T10:41:28.000Z</Time>
            <Position>
              <LatitudeDegrees>43.28162611462175846099853515625</LatitudeDegrees>
              <LongitudeDegrees>-2.63118308968842029571533203125</LongitudeDegrees>
            </Position>
            <AltitudeMeters>117.59999847412109375</AltitudeMeters>
            <DistanceMeters>NAN</DistanceMeters>
          </Trackpoint>
          <Trackpoint>
            <Time>2022-07-11T10:41:30.000Z</Time>
            <Position>
              <LatitudeDegrees>43.28157775104045867919921875</LatitudeDegrees>
              <LongitudeDegrees>-2.631138078868389129638671875</LongitudeDegrees>
            </Position>
            <AltitudeMeters>117.59999847412109375</AltitudeMeters>
            <DistanceMeters>NAN</DistanceMeters>
          </Trackpoint>
          <Trackpoint>
            <Time>2022-07-11T10:41:36.000Z</Time>
            <Position>
              <LatitudeDegrees>43.281409777700901031494140625</LatitudeDegrees>
              <LongitudeDegrees>-2.63098209165036678314208984375</LongitudeDegrees>
            </Position>
            <AltitudeMeters>117.59999847412109375</AltitudeMeters>
            <DistanceMeters>NAN</DistanceMeters>
          </Trackpoint>
          <Trackpoint>
            <Time>2022-07-11T10:41:40.000Z</Time>
            <Position>
              <LatitudeDegrees>43.2812972925603389739990234375</LatitudeDegrees>
              <LongitudeDegrees>-2.63087698258459568023681640625</LongitudeDegrees>
            </Position>
            <AltitudeMeters>117.59999847412109375</AltitudeMeters>
            <DistanceMeters>NAN</DistanceMeters>
          </Trackpoint>
          <Trackpoint>
            <Time>2022-07-11T10:41:43.000Z</Time>
            <Position>
              <LatitudeDegrees>43.28121271915733814239501953125</LatitudeDegrees>
              <LongitudeDegrees>-2.63078159652650356292724609375</LongitudeDegrees>
            </Position>
            <AltitudeMeters>117.8000030517578125</AltitudeMeters>
            <DistanceMeters>NAN</DistanceMeters>
          </Trackpoint>
          <Trackpoint>
            <Time>2022-07-11T10:41:44.000Z</Time>
            <Position>
              <LatitudeDegrees>43.281194530427455902099609375</LatitudeDegrees>
              <LongitudeDegrees>-2.63075628317892551422119140625</LongitudeDegrees>
            </Position>
            <AltitudeMeters>117.8000030517578125</AltitudeMeters>
            <DistanceMeters>NAN</DistanceMeters>
          </Trackpoint>
          <Trackpoint>
            <Time>2022-07-11T10:41:52.000Z</Time>
            <Position>
              <LatitudeDegrees>43.28099571168422698974609375</LatitudeDegrees>
              <LongitudeDegrees>-2.6304988749325275421142578125</LongitudeDegrees>
            </Position>
            <AltitudeMeters>117.59999847412109375</AltitudeMeters>
            <DistanceMeters>NAN</DistanceMeters>
          </Trackpoint>
          <Trackpoint>
            <Time>2022-07-11T10:41:55.000Z</Time>
            <Position>
              <LatitudeDegrees>43.28092656098306179046630859375</LatitudeDegrees>
              <LongitudeDegrees>-2.630409188568592071533203125</LongitudeDegrees>
            </Position>
            <AltitudeMeters>117.40000152587890625</AltitudeMeters>
            <DistanceMeters>NAN</DistanceMeters>
          </Trackpoint>
          <Trackpoint>
            <Time>2022-07-11T10:41:56.000Z</Time>
            <Position>
              <LatitudeDegrees>43.2808959670364856719970703125</LatitudeDegrees>
              <LongitudeDegrees>-2.630404494702816009521484375</LongitudeDegrees>
            </Position>
            <AltitudeMeters>117.40000152587890625</AltitudeMeters>
            <DistanceMeters>NAN</DistanceMeters>
          </Trackpoint>
          <Trackpoint>
            <Time>2022-07-11T10:41:57.000Z</Time>
            <Position>
              <LatitudeDegrees>43.28084056265652179718017578125</LatitudeDegrees>
              <LongitudeDegrees>-2.6304710470139980316162109375</LongitudeDegrees>
            </Position>
            <AltitudeMeters>117.40000152587890625</AltitudeMeters>
            <DistanceMeters>NAN</DistanceMeters>
          </Trackpoint>
          <Trackpoint>
            <Time>2022-07-11T10:41:59.000Z</Time>
            <Position>
              <LatitudeDegrees>43.28080384992063045501708984375</LatitudeDegrees>
              <LongitudeDegrees>-2.63059585355222225189208984375</LongitudeDegrees>
            </Position>
            <AltitudeMeters>117.40000152587890625</AltitudeMeters>
            <DistanceMeters>NAN</DistanceMeters>
          </Trackpoint>
          <Trackpoint>
            <Time>2022-07-11T10:42:01.000Z</Time>
            <Position>
              <LatitudeDegrees>43.2807766087353229522705078125</LatitudeDegrees>
              <LongitudeDegrees>-2.630718313157558441162109375</LongitudeDegrees>
            </Position>
            <AltitudeMeters>117.1999969482421875</AltitudeMeters>
            <DistanceMeters>NAN</DistanceMeters>
          </Trackpoint>
          <Trackpoint>
            <Time>2022-07-11T10:42:03.000Z</Time>
            <Position>
              <LatitudeDegrees>43.280756659805774688720703125</LatitudeDegrees>
              <LongitudeDegrees>-2.6308460533618927001953125</LongitudeDegrees>
            </Position>
            <AltitudeMeters>117</AltitudeMeters>
            <DistanceMeters>NAN</DistanceMeters>
          </Trackpoint>
          <Trackpoint>
            <Time>2022-07-11T10:42:05.000Z</Time>
            <Position>
              <LatitudeDegrees>43.28072858043015003204345703125</LatitudeDegrees>
              <LongitudeDegrees>-2.63097220100462436676025390625</LongitudeDegrees>
            </Position>
            <AltitudeMeters>116.59999847412109375</AltitudeMeters>
            <DistanceMeters>NAN</DistanceMeters>
          </Trackpoint>
          <Trackpoint>
            <Time>2022-07-11T10:42:09.000Z</Time>
            <Position>
              <LatitudeDegrees>43.280658759176731109619140625</LatitudeDegrees>
              <LongitudeDegrees>-2.6312133483588695526123046875</LongitudeDegrees>
            </Position>
            <AltitudeMeters>116</AltitudeMeters>
            <DistanceMeters>NAN</DistanceMeters>
          </Trackpoint>
          <Trackpoint>
            <Time>2022-07-11T10:42:15.000Z</Time>
            <Position>
              <LatitudeDegrees>43.28057996928691864013671875</LatitudeDegrees>
              <LongitudeDegrees>-2.63146094977855682373046875</LongitudeDegrees>
            </Position>
            <AltitudeMeters>115.59999847412109375</AltitudeMeters>
            <DistanceMeters>NAN</DistanceMeters>
          </Trackpoint>
          <Trackpoint>
            <Time>2022-07-11T10:42:21.000Z</Time>
            <Position>
              <LatitudeDegrees>43.28053059987723827362060546875</LatitudeDegrees>
              <LongitudeDegrees>-2.63180703856050968170166015625</LongitudeDegrees>
            </Position>
            <AltitudeMeters>115.40000152587890625</AltitudeMeters>
            <DistanceMeters>NAN</DistanceMeters>
          </Trackpoint>
          <Trackpoint>
            <Time>2022-07-11T10:42:30.000Z</Time>
            <Position>
              <LatitudeDegrees>43.2805363833904266357421875</LatitudeDegrees>
              <LongitudeDegrees>-2.63224557973444461822509765625</LongitudeDegrees>
            </Position>
            <AltitudeMeters>115</AltitudeMeters>
            <DistanceMeters>NAN</DistanceMeters>
          </Trackpoint>
          <Trackpoint>
            <Time>2022-07-11T10:42:39.000Z</Time>
            <Position>
              <LatitudeDegrees>43.2805442623794078826904296875</LatitudeDegrees>
              <LongitudeDegrees>-2.632666938006877899169921875</LongitudeDegrees>
            </Position>
            <AltitudeMeters>115</AltitudeMeters>
            <DistanceMeters>NAN</DistanceMeters>
          </Trackpoint>
          <Trackpoint>
            <Time>2022-07-11T10:42:45.000Z</Time>
            <Position>
              <LatitudeDegrees>43.2806696556508541107177734375</LatitudeDegrees>
              <LongitudeDegrees>-2.6328498311340808868408203125</LongitudeDegrees>
            </Position>
            <AltitudeMeters>115.40000152587890625</AltitudeMeters>
            <DistanceMeters>NAN</DistanceMeters>
          </Trackpoint>
          <Trackpoint>
            <Time>2022-07-11T10:42:48.000Z</Time>
            <Position>
              <LatitudeDegrees>43.2806973159313201904296875</LatitudeDegrees>
              <LongitudeDegrees>-2.6328712888062000274658203125</LongitudeDegrees>
            </Position>
            <AltitudeMeters>115.59999847412109375</AltitudeMeters>
            <DistanceMeters>NAN</DistanceMeters>
          </Trackpoint>
          <Trackpoint>
            <Time>2022-07-11T10:42:54.000Z</Time>
            <Position>
              <LatitudeDegrees>43.28086386434733867645263671875</LatitudeDegrees>
              <LongitudeDegrees>-2.63297547586262226104736328125</LongitudeDegrees>
            </Position>
            <AltitudeMeters>116</AltitudeMeters>
            <DistanceMeters>NAN</DistanceMeters>
          </Trackpoint>
          <Trackpoint>
            <Time>2022-07-11T10:42:56.000Z</Time>
            <Position>
              <LatitudeDegrees>43.2809117250144481658935546875</LatitudeDegrees>
              <LongitudeDegrees>-2.63300330378115177154541015625</LongitudeDegrees>
            </Position>
            <AltitudeMeters>116</AltitudeMeters>
            <DistanceMeters>NAN</DistanceMeters>
          </Trackpoint>
          <Trackpoint>
            <Time>2022-07-11T10:43:03.000Z</Time>
            <Position>
              <LatitudeDegrees>43.2811048440635204315185546875</LatitudeDegrees>
              <LongitudeDegrees>-2.63308997265994548797607421875</LongitudeDegrees>
            </Position>
            <AltitudeMeters>116.59999847412109375</AltitudeMeters>
            <DistanceMeters>NAN</DistanceMeters>
          </Trackpoint>
          <Trackpoint>
            <Time>2022-07-11T10:43:04.000Z</Time>
            <Position>
              <LatitudeDegrees>43.281127475202083587646484375</LatitudeDegrees>
              <LongitudeDegrees>-2.63310003094375133514404296875</LongitudeDegrees>
            </Position>
            <AltitudeMeters>116.8000030517578125</AltitudeMeters>
            <DistanceMeters>NAN</DistanceMeters>
          </Trackpoint>
          <Trackpoint>
            <Time>2022-07-11T10:43:06.000Z</Time>
            <Position>
              <LatitudeDegrees>43.2811742462217807769775390625</LatitudeDegrees>
              <LongitudeDegrees>-2.63310573063790798187255859375</LongitudeDegrees>
            </Position>
            <AltitudeMeters>117</AltitudeMeters>
            <DistanceMeters>NAN</DistanceMeters>
          </Trackpoint>
          <Trackpoint>
            <Time>2022-07-11T10:43:11.000Z</Time>
            <Position>
              <LatitudeDegrees>43.28128681518137454986572265625</LatitudeDegrees>
              <LongitudeDegrees>-2.6331264339387416839599609375</LongitudeDegrees>
            </Position>
            <AltitudeMeters>117.1999969482421875</AltitudeMeters>
            <DistanceMeters>NAN</DistanceMeters>
          </Trackpoint>
          <Trackpoint>
            <Time>2022-07-11T10:43:12.000Z</Time>
            <Position>
              <LatitudeDegrees>43.28130877576768398284912109375</LatitudeDegrees>
              <LongitudeDegrees>-2.63313003815710544586181640625</LongitudeDegrees>
            </Position>
            <AltitudeMeters>117.40000152587890625</AltitudeMeters>
            <DistanceMeters>NAN</DistanceMeters>
          </Trackpoint>
          <Trackpoint>
            <Time>2022-07-11T10:43:18.000Z</Time>
            <Position>
              <LatitudeDegrees>43.281427882611751556396484375</LatitudeDegrees>
              <LongitudeDegrees>-2.63314663432538509368896484375</LongitudeDegrees>
            </Position>
            <AltitudeMeters>118</AltitudeMeters>
            <DistanceMeters>NAN</DistanceMeters>
          </Trackpoint>
          <Trackpoint>
            <Time>2022-07-11T10:43:21.000Z</Time>
            <Position>
              <LatitudeDegrees>43.2814837060868740081787109375</LatitudeDegrees>
              <LongitudeDegrees>-2.633157782256603240966796875</LongitudeDegrees>
            </Position>
            <AltitudeMeters>118.1999969482421875</AltitudeMeters>
            <DistanceMeters>NAN</DistanceMeters>
          </Trackpoint>
          <Trackpoint>
            <Time>2022-07-11T10:43:25.000Z</Time>
            <Position>
              <LatitudeDegrees>43.28156274743378162384033203125</LatitudeDegrees>
              <LongitudeDegrees>-2.63318963348865509033203125</LongitudeDegrees>
            </Position>
            <AltitudeMeters>118.40000152587890625</AltitudeMeters>
            <DistanceMeters>NAN</DistanceMeters>
          </Trackpoint>
          <Trackpoint>
            <Time>2022-07-11T10:43:27.000Z</Time>
            <Position>
              <LatitudeDegrees>43.2815958559513092041015625</LatitudeDegrees>
              <LongitudeDegrees>-2.6332152821123600006103515625</LongitudeDegrees>
            </Position>
            <AltitudeMeters>118.8000030517578125</AltitudeMeters>
            <DistanceMeters>NAN</DistanceMeters>
          </Trackpoint>
          <Trackpoint>
            <Time>2022-07-11T10:43:29.000Z</Time>
            <Position>
              <LatitudeDegrees>43.28162871301174163818359375</LatitudeDegrees>
              <LongitudeDegrees>-2.63324822299182415008544921875</LongitudeDegrees>
            </Position>
            <AltitudeMeters>118.8000030517578125</AltitudeMeters>
            <DistanceMeters>NAN</DistanceMeters>
          </Trackpoint>
          <Trackpoint>
            <Time>2022-07-11T10:43:31.000Z</Time>
            <Position>
              <LatitudeDegrees>43.28166333027184009552001953125</LatitudeDegrees>
              <LongitudeDegrees>-2.6332833431661128997802734375</LongitudeDegrees>
            </Position>
            <AltitudeMeters>119</AltitudeMeters>
            <DistanceMeters>NAN</DistanceMeters>
          </Trackpoint>
          <Trackpoint>
            <Time>2022-07-11T10:43:37.000Z</Time>
            <Position>
              <LatitudeDegrees>43.28172032721340656280517578125</LatitudeDegrees>
              <LongitudeDegrees>-2.63339021243155002593994140625</LongitudeDegrees>
            </Position>
            <AltitudeMeters>119.40000152587890625</AltitudeMeters>
            <DistanceMeters>NAN</DistanceMeters>
          </Trackpoint>
          <Trackpoint>
            <Time>2022-07-11T10:43:47.000Z</Time>
            <Position>
              <LatitudeDegrees>43.28183147124946117401123046875</LatitudeDegrees>
              <LongitudeDegrees>-2.63371408917009830474853515625</LongitudeDegrees>
            </Position>
            <AltitudeMeters>119.59999847412109375</AltitudeMeters>
            <DistanceMeters>NAN</DistanceMeters>
          </Trackpoint>
          <Trackpoint>
            <Time>2022-07-11T10:43:51.000Z</Time>
            <Position>
              <LatitudeDegrees>43.28193825669586658477783203125</LatitudeDegrees>
              <LongitudeDegrees>-2.6337044499814510345458984375</LongitudeDegrees>
            </Position>
            <AltitudeMeters>119.59999847412109375</AltitudeMeters>
            <DistanceMeters>NAN</DistanceMeters>
          </Trackpoint>
          <Trackpoint>
            <Time>2022-07-11T10:43:56.000Z</Time>
            <Position>
              <LatitudeDegrees>43.28204001300036907196044921875</LatitudeDegrees>
              <LongitudeDegrees>-2.63365927152335643768310546875</LongitudeDegrees>
            </Position>
            <AltitudeMeters>120</AltitudeMeters>
            <DistanceMeters>NAN</DistanceMeters>
          </Trackpoint>
          <Trackpoint>
            <Time>2022-07-11T10:43:58.000Z</Time>
            <Position>
              <LatitudeDegrees>43.282074294984340667724609375</LatitudeDegrees>
              <LongitudeDegrees>-2.63363697566092014312744140625</LongitudeDegrees>
            </Position>
            <AltitudeMeters>120.1999969482421875</AltitudeMeters>
            <DistanceMeters>NAN</DistanceMeters>
          </Trackpoint>
          <Trackpoint>
            <Time>2022-07-11T10:44:02.000Z</Time>
            <Position>
              <LatitudeDegrees>43.28217328526079654693603515625</LatitudeDegrees>
              <LongitudeDegrees>-2.63359062373638153076171875</LongitudeDegrees>
            </Position>
            <AltitudeMeters>120.1999969482421875</AltitudeMeters>
            <DistanceMeters>NAN</DistanceMeters>
          </Trackpoint>
          <Trackpoint>
            <Time>2022-07-11T10:44:05.000Z</Time>
            <Position>
              <LatitudeDegrees>43.28223966993391513824462890625</LatitudeDegrees>
              <LongitudeDegrees>-2.6335599459707736968994140625</LongitudeDegrees>
            </Position>
            <AltitudeMeters>120.40000152587890625</AltitudeMeters>
            <DistanceMeters>NAN</DistanceMeters>
          </Trackpoint>
          <Trackpoint>
            <Time>2022-07-11T10:44:12.000Z</Time>
            <Position>
              <LatitudeDegrees>43.28236305154860019683837890625</LatitudeDegrees>
              <LongitudeDegrees>-2.633572518825531005859375</LongitudeDegrees>
            </Position>
            <AltitudeMeters>120.8000030517578125</AltitudeMeters>
            <DistanceMeters>NAN</DistanceMeters>
          </Trackpoint>
          <Trackpoint>
            <Time>2022-07-11T10:44:16.000Z</Time>
            <Position>
              <LatitudeDegrees>43.282435052096843719482421875</LatitudeDegrees>
              <LongitudeDegrees>-2.6336249895393848419189453125</LongitudeDegrees>
            </Position>
            <AltitudeMeters>121.1999969482421875</AltitudeMeters>
            <DistanceMeters>NAN</DistanceMeters>
          </Trackpoint>
          <Trackpoint>
            <Time>2022-07-11T10:44:19.000Z</Time>
            <Position>
              <LatitudeDegrees>43.282484002411365509033203125</LatitudeDegrees>
              <LongitudeDegrees>-2.633667401969432830810546875</LongitudeDegrees>
            </Position>
            <AltitudeMeters>121.40000152587890625</AltitudeMeters>
            <DistanceMeters>NAN</DistanceMeters>
          </Trackpoint>
          <Trackpoint>
            <Time>2022-07-11T10:44:24.000Z</Time>
            <Position>
              <LatitudeDegrees>43.2825632952153682708740234375</LatitudeDegrees>
              <LongitudeDegrees>-2.633727751672267913818359375</LongitudeDegrees>
            </Position>
            <AltitudeMeters>121.8000030517578125</AltitudeMeters>
            <DistanceMeters>NAN</DistanceMeters>
          </Trackpoint>
          <Trackpoint>
            <Time>2022-07-11T10:44:25.000Z</Time>
            <Position>
              <LatitudeDegrees>43.28257544897496700286865234375</LatitudeDegrees>
              <LongitudeDegrees>-2.633735127747058868408203125</LongitudeDegrees>
            </Position>
            <AltitudeMeters>122</AltitudeMeters>
            <DistanceMeters>NAN</DistanceMeters>
          </Trackpoint>
          <Trackpoint>
            <Time>2022-07-11T10:44:27.000Z</Time>
            <Position>
              <LatitudeDegrees>43.2825991697609424591064453125</LatitudeDegrees>
              <LongitudeDegrees>-2.63378198258578777313232421875</LongitudeDegrees>
            </Position>
            <AltitudeMeters>122.1999969482421875</AltitudeMeters>
            <DistanceMeters>NAN</DistanceMeters>
          </Trackpoint>
          <Trackpoint>
            <Time>2022-07-11T10:44:34.000Z</Time>
            <Position>
              <LatitudeDegrees>43.2826793007552623748779296875</LatitudeDegrees>
              <LongitudeDegrees>-2.633910812437534332275390625</LongitudeDegrees>
            </Position>
            <AltitudeMeters>123.1999969482421875</AltitudeMeters>
            <DistanceMeters>NAN</DistanceMeters>
          </Trackpoint>
          <Trackpoint>
            <Time>2022-07-11T10:44:35.000Z</Time>
            <Position>
              <LatitudeDegrees>43.28269078396260738372802734375</LatitudeDegrees>
              <LongitudeDegrees>-2.63393335975706577301025390625</LongitudeDegrees>
            </Position>
            <AltitudeMeters>123.40000152587890625</AltitudeMeters>
            <DistanceMeters>NAN</DistanceMeters>
          </Trackpoint>
          <Trackpoint>
            <Time>2022-07-11T10:44:39.000Z</Time>
            <Position>
              <LatitudeDegrees>43.2827255688607692718505859375</LatitudeDegrees>
              <LongitudeDegrees>-2.63399236835539340972900390625</LongitudeDegrees>
            </Position>
            <AltitudeMeters>123.59999847412109375</AltitudeMeters>
            <DistanceMeters>NAN</DistanceMeters>
          </Trackpoint>
          <Trackpoint>
            <Time>2022-07-11T10:44:44.000Z</Time>
            <Position>
              <LatitudeDegrees>43.282754905521869659423828125</LatitudeDegrees>
              <LongitudeDegrees>-2.63411222957074642181396484375</LongitudeDegrees>
            </Position>
            <AltitudeMeters>124</AltitudeMeters>
            <DistanceMeters>NAN</DistanceMeters>
          </Trackpoint>
          <Trackpoint>
            <Time>2022-07-11T10:44:50.000Z</Time>
            <Position>
              <LatitudeDegrees>43.28276504762470722198486328125</LatitudeDegrees>
              <LongitudeDegrees>-2.63421515934169292449951171875</LongitudeDegrees>
            </Position>
            <AltitudeMeters>124.40000152587890625</AltitudeMeters>
            <DistanceMeters>NAN</DistanceMeters>
          </Trackpoint>
          <Trackpoint>
            <Time>2022-07-11T10:44:54.000Z</Time>
            <Position>
              <LatitudeDegrees>43.28277912922203540802001953125</LatitudeDegrees>
              <LongitudeDegrees>-2.6343387924134731292724609375</LongitudeDegrees>
            </Position>
            <AltitudeMeters>124.59999847412109375</AltitudeMeters>
            <DistanceMeters>NAN</DistanceMeters>
          </Trackpoint>
          <Trackpoint>
            <Time>2022-07-11T10:45:04.000Z</Time>
            <Position>
              <LatitudeDegrees>43.28284584917128086090087890625</LatitudeDegrees>
              <LongitudeDegrees>-2.63455982320010662078857421875</LongitudeDegrees>
            </Position>
            <AltitudeMeters>125.40000152587890625</AltitudeMeters>
            <DistanceMeters>NAN</DistanceMeters>
          </Trackpoint>
          <Trackpoint>
            <Time>2022-07-11T10:45:12.000Z</Time>
            <Position>
              <LatitudeDegrees>43.28298297710716724395751953125</LatitudeDegrees>
              <LongitudeDegrees>-2.634731233119964599609375</LongitudeDegrees>
            </Position>
            <AltitudeMeters>126</AltitudeMeters>
            <DistanceMeters>NAN</DistanceMeters>
          </Trackpoint>
          <Trackpoint>
            <Time>2022-07-11T10:45:17.000Z</Time>
            <Position>
              <LatitudeDegrees>43.28308381140232086181640625</LatitudeDegrees>
              <LongitudeDegrees>-2.63475210405886173248291015625</LongitudeDegrees>
            </Position>
            <AltitudeMeters>126.40000152587890625</AltitudeMeters>
            <DistanceMeters>NAN</DistanceMeters>
          </Trackpoint>
          <Trackpoint>
            <Time>2022-07-11T10:45:19.000Z</Time>
            <Position>
              <LatitudeDegrees>43.28312446363270282745361328125</LatitudeDegrees>
              <LongitudeDegrees>-2.6347531937062740325927734375</LongitudeDegrees>
            </Position>
            <AltitudeMeters>126.59999847412109375</AltitudeMeters>
            <DistanceMeters>NAN</DistanceMeters>
          </Trackpoint>
          <Trackpoint>
            <Time>2022-07-11T10:45:28.000Z</Time>
            <Position>
              <LatitudeDegrees>43.2832673750817775726318359375</LatitudeDegrees>
              <LongitudeDegrees>-2.6347873918712139129638671875</LongitudeDegrees>
            </Position>
            <AltitudeMeters>127.40000152587890625</AltitudeMeters>
            <DistanceMeters>NAN</DistanceMeters>
          </Trackpoint>
          <Trackpoint>
            <Time>2022-07-11T10:45:29.000Z</Time>
            <Position>
              <LatitudeDegrees>43.2832797802984714508056640625</LatitudeDegrees>
              <LongitudeDegrees>-2.634795270860195159912109375</LongitudeDegrees>
            </Position>
            <AltitudeMeters>127.40000152587890625</AltitudeMeters>
            <DistanceMeters>NAN</DistanceMeters>
          </Trackpoint>
          <Trackpoint>
            <Time>2022-07-11T10:45:35.000Z</Time>
            <Position>
              <LatitudeDegrees>43.28336033038794994354248046875</LatitudeDegrees>
              <LongitudeDegrees>-2.63485050760209560394287109375</LongitudeDegrees>
            </Position>
            <AltitudeMeters>127.8000030517578125</AltitudeMeters>
            <DistanceMeters>NAN</DistanceMeters>
          </Trackpoint>
          <Trackpoint>
            <Time>2022-07-11T10:45:42.000Z</Time>
            <Position>
              <LatitudeDegrees>43.2834613323211669921875</LatitudeDegrees>
              <LongitudeDegrees>-2.63496869243681430816650390625</LongitudeDegrees>
            </Position>
            <AltitudeMeters>128.399993896484375</AltitudeMeters>
            <DistanceMeters>NAN</DistanceMeters>
          </Trackpoint>
          <Trackpoint>
            <Time>2022-07-11T10:45:43.000Z</Time>
            <Position>
              <LatitudeDegrees>43.28347398899495601654052734375</LatitudeDegrees>
              <LongitudeDegrees>-2.63498260639607906341552734375</LongitudeDegrees>
            </Position>
            <AltitudeMeters>128.399993896484375</AltitudeMeters>
            <DistanceMeters>NAN</DistanceMeters>
          </Trackpoint>
          <Trackpoint>
            <Time>2022-07-11T10:45:47.000Z</Time>
            <Position>
              <LatitudeDegrees>43.2835111208260059356689453125</LatitudeDegrees>
              <LongitudeDegrees>-2.63505150564014911651611328125</LongitudeDegrees>
            </Position>
            <AltitudeMeters>128.8000030517578125</AltitudeMeters>
            <DistanceMeters>NAN</DistanceMeters>
          </Trackpoint>
          <Trackpoint>
            <Time>2022-07-11T10:45:50.000Z</Time>
            <Position>
              <LatitudeDegrees>43.28355009667575359344482421875</LatitudeDegrees>
              <LongitudeDegrees>-2.63510607182979583740234375</LongitudeDegrees>
            </Position>
            <AltitudeMeters>129.1999969482421875</AltitudeMeters>
            <DistanceMeters>NAN</DistanceMeters>
          </Trackpoint>
          <Trackpoint>
            <Time>2022-07-11T10:45:57.000Z</Time>
            <Position>
              <LatitudeDegrees>43.28365118242800235748291015625</LatitudeDegrees>
              <LongitudeDegrees>-2.63521981425583362579345703125</LongitudeDegrees>
            </Position>
            <AltitudeMeters>129.399993896484375</AltitudeMeters>
            <DistanceMeters>NAN</DistanceMeters>
          </Trackpoint>
          <Trackpoint>
            <Time>2022-07-11T10:45:58.000Z</Time>
            <Position>
              <LatitudeDegrees>43.28366543166339397430419921875</LatitudeDegrees>
              <LongitudeDegrees>-2.6352314651012420654296875</LongitudeDegrees>
            </Position>
            <AltitudeMeters>129.600006103515625</AltitudeMeters>
            <DistanceMeters>NAN</DistanceMeters>
          </Trackpoint>
          <Trackpoint>
            <Time>2022-07-11T10:46:05.000Z</Time>
            <Position>
              <LatitudeDegrees>43.28377121128141880035400390625</LatitudeDegrees>
              <LongitudeDegrees>-2.63526340015232563018798828125</LongitudeDegrees>
            </Position>
            <AltitudeMeters>130.399993896484375</AltitudeMeters>
            <DistanceMeters>NAN</DistanceMeters>
          </Trackpoint>
          <Trackpoint>
            <Time>2022-07-11T10:46:10.000Z</Time>
            <Position>
              <LatitudeDegrees>43.2838403619825839996337890625</LatitudeDegrees>
              <LongitudeDegrees>-2.63524579815566539764404296875</LongitudeDegrees>
            </Position>
            <AltitudeMeters>130.600006103515625</AltitudeMeters>
            <DistanceMeters>NAN</DistanceMeters>
          </Trackpoint>
          <Trackpoint>
            <Time>2022-07-11T10:46:12.000Z</Time>
            <Position>
              <LatitudeDegrees>43.28387078829109668731689453125</LatitudeDegrees>
              <LongitudeDegrees>-2.63523624278604984283447265625</LongitudeDegrees>
            </Position>
            <AltitudeMeters>130.8000030517578125</AltitudeMeters>
            <DistanceMeters>NAN</DistanceMeters>
          </Trackpoint>
          <Trackpoint>
            <Time>2022-07-11T10:46:21.000Z</Time>
            <Position>
              <LatitudeDegrees>43.28400657512247562408447265625</LatitudeDegrees>
              <LongitudeDegrees>-2.6352095045149326324462890625</LongitudeDegrees>
            </Position>
            <AltitudeMeters>131.600006103515625</AltitudeMeters>
            <DistanceMeters>NAN</DistanceMeters>
          </Trackpoint>
          <Trackpoint>
            <Time>2022-07-11T10:46:22.000Z</Time>
            <Position>
              <LatitudeDegrees>43.284022919833660125732421875</LatitudeDegrees>
              <LongitudeDegrees>-2.6352084986865520477294921875</LongitudeDegrees>
            </Position>
            <AltitudeMeters>131.8000030517578125</AltitudeMeters>
            <DistanceMeters>NAN</DistanceMeters>
          </Trackpoint>
          <Trackpoint>
            <Time>2022-07-11T10:46:30.000Z</Time>
            <Position>
              <LatitudeDegrees>43.2841327227652072906494140625</LatitudeDegrees>
              <LongitudeDegrees>-2.6352494023740291595458984375</LongitudeDegrees>
            </Position>
            <AltitudeMeters>132.399993896484375</AltitudeMeters>
            <DistanceMeters>NAN</DistanceMeters>
          </Trackpoint>
          <Trackpoint>
            <Time>2022-07-11T10:46:32.000Z</Time>
            <Position>
              <LatitudeDegrees>43.28415929339826107025146484375</LatitudeDegrees>
              <LongitudeDegrees>-2.63526566326618194580078125</LongitudeDegrees>
            </Position>
            <AltitudeMeters>132.8000030517578125</AltitudeMeters>
            <DistanceMeters>NAN</DistanceMeters>
          </Trackpoint>
          <Trackpoint>
            <Time>2022-07-11T10:46:39.000Z</Time>
            <Position>
              <LatitudeDegrees>43.284250237047672271728515625</LatitudeDegrees>
              <LongitudeDegrees>-2.6353503204882144927978515625</LongitudeDegrees>
            </Position>
            <AltitudeMeters>133.399993896484375</AltitudeMeters>
            <DistanceMeters>NAN</DistanceMeters>
          </Trackpoint>
          <Trackpoint>
            <Time>2022-07-11T10:46:46.000Z</Time>
            <Position>
              <LatitudeDegrees>43.28434453345835208892822265625</LatitudeDegrees>
              <LongitudeDegrees>-2.63543137349188327789306640625</LongitudeDegrees>
            </Position>
            <AltitudeMeters>133.600006103515625</AltitudeMeters>
            <DistanceMeters>NAN</DistanceMeters>
          </Trackpoint>
          <Trackpoint>
            <Time>2022-07-11T10:46:51.000Z</Time>
            <Position>
              <LatitudeDegrees>43.2844180427491664886474609375</LatitudeDegrees>
              <LongitudeDegrees>-2.63548853807151317596435546875</LongitudeDegrees>
            </Position>
            <AltitudeMeters>134</AltitudeMeters>
            <DistanceMeters>NAN</DistanceMeters>
          </Trackpoint>
          <Trackpoint>
            <Time>2022-07-11T10:46:54.000Z</Time>
            <Position>
              <LatitudeDegrees>43.2844622991979122161865234375</LatitudeDegrees>
              <LongitudeDegrees>-2.63549474067986011505126953125</LongitudeDegrees>
            </Position>
            <AltitudeMeters>134.399993896484375</AltitudeMeters>
            <DistanceMeters>NAN</DistanceMeters>
          </Trackpoint>
          <Trackpoint>
            <Time>2022-07-11T10:47:01.000Z</Time>
            <Position>
              <LatitudeDegrees>43.28456447459757328033447265625</LatitudeDegrees>
              <LongitudeDegrees>-2.63548962771892547607421875</LongitudeDegrees>
            </Position>
            <AltitudeMeters>135</AltitudeMeters>
            <DistanceMeters>NAN</DistanceMeters>
          </Trackpoint>
          <Trackpoint>
            <Time>2022-07-11T10:47:02.000Z</Time>
            <Position>
              <LatitudeDegrees>43.28457788564264774322509765625</LatitudeDegrees>
              <LongitudeDegrees>-2.6354844309389591217041015625</LongitudeDegrees>
            </Position>
            <AltitudeMeters>135.1999969482421875</AltitudeMeters>
            <DistanceMeters>NAN</DistanceMeters>
          </Trackpoint>
          <Trackpoint>
            <Time>2022-07-11T10:47:10.000Z</Time>
            <Position>
              <LatitudeDegrees>43.2846889458596706390380859375</LatitudeDegrees>
              <LongitudeDegrees>-2.63545450754463672637939453125</LongitudeDegrees>
            </Position>
            <AltitudeMeters>136</AltitudeMeters>
            <DistanceMeters>NAN</DistanceMeters>
          </Trackpoint>
          <Trackpoint>
            <Time>2022-07-11T10:47:12.000Z</Time>
            <Position>
              <LatitudeDegrees>43.2847197912633419036865234375</LatitudeDegrees>
              <LongitudeDegrees>-2.635452747344970703125</LongitudeDegrees>
            </Position>
            <AltitudeMeters>136.399993896484375</AltitudeMeters>
            <DistanceMeters>NAN</DistanceMeters>
          </Trackpoint>
          <Trackpoint>
            <Time>2022-07-11T10:47:16.000Z</Time>
            <Position>
              <LatitudeDegrees>43.2847801409661769866943359375</LatitudeDegrees>
              <LongitudeDegrees>-2.63544696383178234100341796875</LongitudeDegrees>
            </Position>
            <AltitudeMeters>137</AltitudeMeters>
            <DistanceMeters>NAN</DistanceMeters>
          </Trackpoint>
          <Trackpoint>
            <Time>2022-07-11T10:47:19.000Z</Time>
            <Position>
              <LatitudeDegrees>43.28482598997652530670166015625</LatitudeDegrees>
              <LongitudeDegrees>-2.63544294051826000213623046875</LongitudeDegrees>
            </Position>
            <AltitudeMeters>137.1999969482421875</AltitudeMeters>
            <DistanceMeters>NAN</DistanceMeters>
          </Trackpoint>
          <Trackpoint>
            <Time>2022-07-11T10:47:20.000Z</Time>
            <Position>
              <LatitudeDegrees>43.28484208323061466217041015625</LatitudeDegrees>
              <LongitudeDegrees>-2.6354428566992282867431640625</LongitudeDegrees>
            </Position>
            <AltitudeMeters>137.1999969482421875</AltitudeMeters>
            <DistanceMeters>NAN</DistanceMeters>
          </Trackpoint>
          <Trackpoint>
            <Time>2022-07-11T10:47:21.000Z</Time>
            <Position>
              <LatitudeDegrees>43.2848599366843700408935546875</LatitudeDegrees>
              <LongitudeDegrees>-2.6354492269456386566162109375</LongitudeDegrees>
            </Position>
            <AltitudeMeters>137.1999969482421875</AltitudeMeters>
            <DistanceMeters>NAN</DistanceMeters>
          </Trackpoint>
          <Trackpoint>
            <Time>2022-07-11T10:47:28.000Z</Time>
            <Position>
              <LatitudeDegrees>43.2849286682903766632080078125</LatitudeDegrees>
              <LongitudeDegrees>-2.63547009788453578948974609375</LongitudeDegrees>
            </Position>
            <AltitudeMeters>138</AltitudeMeters>
            <DistanceMeters>NAN</DistanceMeters>
          </Trackpoint>
          <Trackpoint>
            <Time>2022-07-11T10:47:30.000Z</Time>
            <Position>
              <LatitudeDegrees>43.284967727959156036376953125</LatitudeDegrees>
              <LongitudeDegrees>-2.63546624220907688140869140625</LongitudeDegrees>
            </Position>
            <AltitudeMeters>138.1999969482421875</AltitudeMeters>
            <DistanceMeters>NAN</DistanceMeters>
          </Trackpoint>
          <Trackpoint>
            <Time>2022-07-11T10:47:32.000Z</Time>
            <Position>
              <LatitudeDegrees>43.28499295748770236968994140625</LatitudeDegrees>
              <LongitudeDegrees>-2.63546884059906005859375</LongitudeDegrees>
            </Position>
            <AltitudeMeters>138.1999969482421875</AltitudeMeters>
            <DistanceMeters>NAN</DistanceMeters>
          </Trackpoint>
          <Trackpoint>
            <Time>2022-07-11T10:47:35.000Z</Time>
            <Position>
              <LatitudeDegrees>43.28502313233911991119384765625</LatitudeDegrees>
              <LongitudeDegrees>-2.63548753224313259124755859375</LongitudeDegrees>
            </Position>
            <AltitudeMeters>138.600006103515625</AltitudeMeters>
            <DistanceMeters>NAN</DistanceMeters>
          </Trackpoint>
          <Trackpoint>
            <Time>2022-07-11T10:47:40.000Z</Time>
            <Position>
              <LatitudeDegrees>43.285089768469333648681640625</LatitudeDegrees>
              <LongitudeDegrees>-2.63554201461374759674072265625</LongitudeDegrees>
            </Position>
            <AltitudeMeters>139.1999969482421875</AltitudeMeters>
            <DistanceMeters>NAN</DistanceMeters>
          </Trackpoint>
          <Trackpoint>
            <Time>2022-07-11T10:47:41.000Z</Time>
            <Position>
              <LatitudeDegrees>43.28510284423828125</LatitudeDegrees>
              <LongitudeDegrees>-2.635552994906902313232421875</LongitudeDegrees>
            </Position>
            <AltitudeMeters>139.1999969482421875</AltitudeMeters>
            <DistanceMeters>NAN</DistanceMeters>
          </Trackpoint>
          <Trackpoint>
            <Time>2022-07-11T10:47:42.000Z</Time>
            <Position>
              <LatitudeDegrees>43.2851135730743408203125</LatitudeDegrees>
              <LongitudeDegrees>-2.63556079007685184478759765625</LongitudeDegrees>
            </Position>
            <AltitudeMeters>139.1999969482421875</AltitudeMeters>
            <DistanceMeters>NAN</DistanceMeters>
          </Trackpoint>
          <Trackpoint>
            <Time>2022-07-11T10:47:46.000Z</Time>
            <Position>
              <LatitudeDegrees>43.2851626910269260406494140625</LatitudeDegrees>
              <LongitudeDegrees>-2.6355954073369503021240234375</LongitudeDegrees>
            </Position>
            <AltitudeMeters>139.600006103515625</AltitudeMeters>
            <DistanceMeters>NAN</DistanceMeters>
          </Trackpoint>
          <Trackpoint>
            <Time>2022-07-11T10:47:51.000Z</Time>
            <Position>
              <LatitudeDegrees>43.2852173410356044769287109375</LatitudeDegrees>
              <LongitudeDegrees>-2.6356654800474643707275390625</LongitudeDegrees>
            </Position>
            <AltitudeMeters>140.1999969482421875</AltitudeMeters>
            <DistanceMeters>NAN</DistanceMeters>
          </Trackpoint>
          <Trackpoint>
            <Time>2022-07-11T10:47:53.000Z</Time>
            <Position>
              <LatitudeDegrees>43.2852364517748355865478515625</LatitudeDegrees>
              <LongitudeDegrees>-2.63569909147918224334716796875</LongitudeDegrees>
            </Position>
            <AltitudeMeters>140.399993896484375</AltitudeMeters>
            <DistanceMeters>NAN</DistanceMeters>
          </Trackpoint>
          <Trackpoint>
            <Time>2022-07-11T10:47:59.000Z</Time>
            <Position>
              <LatitudeDegrees>43.28528850339353084564208984375</LatitudeDegrees>
              <LongitudeDegrees>-2.63579749502241611480712890625</LongitudeDegrees>
            </Position>
            <AltitudeMeters>141.1999969482421875</AltitudeMeters>
            <DistanceMeters>NAN</DistanceMeters>
          </Trackpoint>
          <Trackpoint>
            <Time>2022-07-11T10:48:00.000Z</Time>
            <Position>
              <LatitudeDegrees>43.28529688529670238494873046875</LatitudeDegrees>
              <LongitudeDegrees>-2.63582029379904270172119140625</LongitudeDegrees>
            </Position>
            <AltitudeMeters>141.399993896484375</AltitudeMeters>
            <DistanceMeters>NAN</DistanceMeters>
          </Trackpoint>
          <Trackpoint>
            <Time>2022-07-11T10:48:05.000Z</Time>
            <Position>
              <LatitudeDegrees>43.285316415131092071533203125</LatitudeDegrees>
              <LongitudeDegrees>-2.6359132491052150726318359375</LongitudeDegrees>
            </Position>
            <AltitudeMeters>141.8000030517578125</AltitudeMeters>
            <DistanceMeters>NAN</DistanceMeters>
          </Trackpoint>
          <Trackpoint>
            <Time>2022-07-11T10:48:08.000Z</Time>
            <Position>
              <LatitudeDegrees>43.28532957471907138824462890625</LatitudeDegrees>
              <LongitudeDegrees>-2.63596261851489543914794921875</LongitudeDegrees>
            </Position>
            <AltitudeMeters>142</AltitudeMeters>
            <DistanceMeters>NAN</DistanceMeters>
          </Trackpoint>
          <Trackpoint>
            <Time>2022-07-11T10:48:11.000Z</Time>
            <Position>
              <LatitudeDegrees>43.285352289676666259765625</LatitudeDegrees>
              <LongitudeDegrees>-2.63602464459836483001708984375</LongitudeDegrees>
            </Position>
            <AltitudeMeters>142.1999969482421875</AltitudeMeters>
            <DistanceMeters>NAN</DistanceMeters>
          </Trackpoint>
          <Trackpoint>
            <Time>2022-07-11T10:48:18.000Z</Time>
            <Position>
              <LatitudeDegrees>43.28537483699619770050048828125</LatitudeDegrees>
              <LongitudeDegrees>-2.6361466012895107269287109375</LongitudeDegrees>
            </Position>
            <AltitudeMeters>142.1999969482421875</AltitudeMeters>
            <DistanceMeters>NAN</DistanceMeters>
          </Trackpoint>
          <Trackpoint>
            <Time>2022-07-11T10:48:19.000Z</Time>
            <Position>
              <LatitudeDegrees>43.28538338653743267059326171875</LatitudeDegrees>
              <LongitudeDegrees>-2.63615858741104602813720703125</LongitudeDegrees>
            </Position>
            <AltitudeMeters>142.399993896484375</AltitudeMeters>
            <DistanceMeters>NAN</DistanceMeters>
          </Trackpoint>
          <Trackpoint>
            <Time>2022-07-11T10:48:23.000Z</Time>
            <Position>
              <LatitudeDegrees>43.2854406349360942840576171875</LatitudeDegrees>
              <LongitudeDegrees>-2.63616428710520267486572265625</LongitudeDegrees>
            </Position>
            <AltitudeMeters>142.8000030517578125</AltitudeMeters>
            <DistanceMeters>NAN</DistanceMeters>
          </Trackpoint>
          <Trackpoint>
            <Time>2022-07-11T10:48:30.000Z</Time>
            <Position>
              <LatitudeDegrees>43.2855593226850032806396484375</LatitudeDegrees>
              <LongitudeDegrees>-2.6361392252147197723388671875</LongitudeDegrees>
            </Position>
            <AltitudeMeters>143.399993896484375</AltitudeMeters>
            <DistanceMeters>NAN</DistanceMeters>
          </Trackpoint>
          <Trackpoint>
            <Time>2022-07-11T10:48:31.000Z</Time>
            <Position>
              <LatitudeDegrees>43.28557751141488552093505859375</LatitudeDegrees>
              <LongitudeDegrees>-2.6361353695392608642578125</LongitudeDegrees>
            </Position>
            <AltitudeMeters>143.399993896484375</AltitudeMeters>
            <DistanceMeters>NAN</DistanceMeters>
          </Trackpoint>
          <Trackpoint>
            <Time>2022-07-11T10:48:35.000Z</Time>
            <Position>
              <LatitudeDegrees>43.28564808703958988189697265625</LatitudeDegrees>
              <LongitudeDegrees>-2.63611190021038055419921875</LongitudeDegrees>
            </Position>
            <AltitudeMeters>144</AltitudeMeters>
            <DistanceMeters>NAN</DistanceMeters>
          </Trackpoint>
          <Trackpoint>
            <Time>2022-07-11T10:48:37.000Z</Time>
            <Position>
              <LatitudeDegrees>43.28567557968199253082275390625</LatitudeDegrees>
              <LongitudeDegrees>-2.6360758580267429351806640625</LongitudeDegrees>
            </Position>
            <AltitudeMeters>144</AltitudeMeters>
            <DistanceMeters>NAN</DistanceMeters>
          </Trackpoint>
          <Trackpoint>
            <Time>2022-07-11T10:48:40.000Z</Time>
            <Position>
              <LatitudeDegrees>43.2856753282248973846435546875</LatitudeDegrees>
              <LongitudeDegrees>-2.63600620441138744354248046875</LongitudeDegrees>
            </Position>
            <AltitudeMeters>144.399993896484375</AltitudeMeters>
            <DistanceMeters>NAN</DistanceMeters>
          </Trackpoint>
          <Trackpoint>
            <Time>2022-07-11T10:48:42.000Z</Time>
            <Position>
              <LatitudeDegrees>43.2856714725494384765625</LatitudeDegrees>
              <LongitudeDegrees>-2.635962031781673431396484375</LongitudeDegrees>
            </Position>
            <AltitudeMeters>144.399993896484375</AltitudeMeters>
            <DistanceMeters>NAN</DistanceMeters>
          </Trackpoint>
          <Trackpoint>
            <Time>2022-07-11T10:48:43.000Z</Time>
            <Position>
              <LatitudeDegrees>43.28565931878983974456787109375</LatitudeDegrees>
              <LongitudeDegrees>-2.635945938527584075927734375</LongitudeDegrees>
            </Position>
            <AltitudeMeters>144.399993896484375</AltitudeMeters>
            <DistanceMeters>NAN</DistanceMeters>
          </Trackpoint>
          <Trackpoint>
            <Time>2022-07-11T10:48:48.000Z</Time>
            <Position>
              <LatitudeDegrees>43.28558631241321563720703125</LatitudeDegrees>
              <LongitudeDegrees>-2.63589438982307910919189453125</LongitudeDegrees>
            </Position>
            <AltitudeMeters>144.600006103515625</AltitudeMeters>
            <DistanceMeters>NAN</DistanceMeters>
          </Trackpoint>
          <Trackpoint>
            <Time>2022-07-11T10:48:51.000Z</Time>
            <Position>
              <LatitudeDegrees>43.2855576463043689727783203125</LatitudeDegrees>
              <LongitudeDegrees>-2.635891623795032501220703125</LongitudeDegrees>
            </Position>
            <AltitudeMeters>144.1999969482421875</AltitudeMeters>
            <DistanceMeters>NAN</DistanceMeters>
          </Trackpoint>
          <Trackpoint>
            <Time>2022-07-11T10:48:53.000Z</Time>
            <Position>
              <LatitudeDegrees>43.2855526171624660491943359375</LatitudeDegrees>
              <LongitudeDegrees>-2.63588801957666873931884765625</LongitudeDegrees>
            </Position>
            <AltitudeMeters>144.1999969482421875</AltitudeMeters>
            <DistanceMeters>NAN</DistanceMeters>
          </Trackpoint>
          <Trackpoint>
            <Time>2022-07-11T10:48:55.000Z</Time>
            <Position>
              <LatitudeDegrees>43.28555001877248287200927734375</LatitudeDegrees>
              <LongitudeDegrees>-2.63586304150521755218505859375</LongitudeDegrees>
            </Position>
            <AltitudeMeters>144.1999969482421875</AltitudeMeters>
            <DistanceMeters>NAN</DistanceMeters>
          </Trackpoint>
          <Trackpoint>
            <Time>2022-07-11T10:48:58.000Z</Time>
            <Position>
              <LatitudeDegrees>43.2855472527444362640380859375</LatitudeDegrees>
              <LongitudeDegrees>-2.63583823107182979583740234375</LongitudeDegrees>
            </Position>
            <AltitudeMeters>144</AltitudeMeters>
            <DistanceMeters>NAN</DistanceMeters>
          </Trackpoint>
          <Trackpoint>
            <Time>2022-07-11T10:48:59.000Z</Time>
            <Position>
              <LatitudeDegrees>43.28555018641054630279541015625</LatitudeDegrees>
              <LongitudeDegrees>-2.63583102263510227203369140625</LongitudeDegrees>
            </Position>
            <AltitudeMeters>144</AltitudeMeters>
            <DistanceMeters>NAN</DistanceMeters>
          </Trackpoint>
          <Trackpoint>
            <Time>2022-07-11T10:49:01.000Z</Time>
            <Position>
              <LatitudeDegrees>43.2855361886322498321533203125</LatitudeDegrees>
              <LongitudeDegrees>-2.63582113198935985565185546875</LongitudeDegrees>
            </Position>
            <AltitudeMeters>144</AltitudeMeters>
            <DistanceMeters>NAN</DistanceMeters>
          </Trackpoint>
          <Trackpoint>
            <Time>2022-07-11T10:49:04.000Z</Time>
            <Position>
              <LatitudeDegrees>43.2855301536619663238525390625</LatitudeDegrees>
              <LongitudeDegrees>-2.63582331128418445587158203125</LongitudeDegrees>
            </Position>
            <AltitudeMeters>144</AltitudeMeters>
            <DistanceMeters>NAN</DistanceMeters>
          </Trackpoint>
          <Trackpoint>
            <Time>2022-07-11T10:49:09.000Z</Time>
            <Position>
              <LatitudeDegrees>43.28553736209869384765625</LatitudeDegrees>
              <LongitudeDegrees>-2.63583026826381683349609375</LongitudeDegrees>
            </Position>
            <AltitudeMeters>144</AltitudeMeters>
            <DistanceMeters>NAN</DistanceMeters>
          </Trackpoint>
          <Trackpoint>
            <Time>2022-07-11T10:49:10.000Z</Time>
            <Position>
              <LatitudeDegrees>43.28553736209869384765625</LatitudeDegrees>
              <LongitudeDegrees>-2.63583026826381683349609375</LongitudeDegrees>
            </Position>
            <AltitudeMeters>144</AltitudeMeters>
            <DistanceMeters>NAN</DistanceMeters>
          </Trackpoint>
          <Trackpoint>
            <Time>2022-07-11T10:54:08.000Z</Time>
            <Position>
              <LatitudeDegrees>43.28554901294410228729248046875</LatitudeDegrees>
              <LongitudeDegrees>-2.6358522288501262664794921875</LongitudeDegrees>
            </Position>
            <AltitudeMeters>148</AltitudeMeters>
            <DistanceMeters>NAN</DistanceMeters>
          </Trackpoint>
          <Trackpoint>
            <Time>2022-07-11T10:54:09.000Z</Time>
            <Position>
              <LatitudeDegrees>43.285553120076656341552734375</LatitudeDegrees>
              <LongitudeDegrees>-2.63586916029453277587890625</LongitudeDegrees>
            </Position>
            <AltitudeMeters>148</AltitudeMeters>
            <DistanceMeters>NAN</DistanceMeters>
          </Trackpoint>
          <Trackpoint>
            <Time>2022-07-11T10:54:10.000Z</Time>
            <Position>
              <LatitudeDegrees>43.285561837255954742431640625</LatitudeDegrees>
              <LongitudeDegrees>-2.63588801957666873931884765625</LongitudeDegrees>
            </Position>
            <AltitudeMeters>148</AltitudeMeters>
            <DistanceMeters>NAN</DistanceMeters>
          </Trackpoint>
          <Trackpoint>
            <Time>2022-07-11T10:54:11.000Z</Time>
            <Position>
              <LatitudeDegrees>43.2855735719203948974609375</LatitudeDegrees>
              <LongitudeDegrees>-2.63591207563877105712890625</LongitudeDegrees>
            </Position>
            <AltitudeMeters>148</AltitudeMeters>
            <DistanceMeters>NAN</DistanceMeters>
          </Trackpoint>
          <Trackpoint>
            <Time>2022-07-11T10:54:14.000Z</Time>
            <Position>
              <LatitudeDegrees>43.28560751862823963165283203125</LatitudeDegrees>
              <LongitudeDegrees>-2.6359876804053783416748046875</LongitudeDegrees>
            </Position>
            <AltitudeMeters>147.600006103515625</AltitudeMeters>
            <DistanceMeters>NAN</DistanceMeters>
          </Trackpoint>
          <Trackpoint>
            <Time>2022-07-11T10:54:18.000Z</Time>
            <Position>
              <LatitudeDegrees>43.28563735820353031158447265625</LatitudeDegrees>
              <LongitudeDegrees>-2.63609312474727630615234375</LongitudeDegrees>
            </Position>
            <AltitudeMeters>147.600006103515625</AltitudeMeters>
            <DistanceMeters>NAN</DistanceMeters>
          </Trackpoint>
          <Trackpoint>
            <Time>2022-07-11T10:54:20.000Z</Time>
            <Position>
              <LatitudeDegrees>43.2856431417167186737060546875</LatitudeDegrees>
              <LongitudeDegrees>-2.6361234672367572784423828125</LongitudeDegrees>
            </Position>
            <AltitudeMeters>147.600006103515625</AltitudeMeters>
            <DistanceMeters>NAN</DistanceMeters>
          </Trackpoint>
          <Trackpoint>
            <Time>2022-07-11T10:54:22.000Z</Time>
            <Position>
              <LatitudeDegrees>43.28562243841588497161865234375</LatitudeDegrees>
              <LongitudeDegrees>-2.63614165596663951873779296875</LongitudeDegrees>
            </Position>
            <AltitudeMeters>147.600006103515625</AltitudeMeters>
            <DistanceMeters>NAN</DistanceMeters>
          </Trackpoint>
          <Trackpoint>
            <Time>2022-07-11T10:54:29.000Z</Time>
            <Position>
              <LatitudeDegrees>43.285494111478328704833984375</LatitudeDegrees>
              <LongitudeDegrees>-2.63614366762340068817138671875</LongitudeDegrees>
            </Position>
            <AltitudeMeters>147.1999969482421875</AltitudeMeters>
            <DistanceMeters>NAN</DistanceMeters>
          </Trackpoint>
          <Trackpoint>
            <Time>2022-07-11T10:54:32.000Z</Time>
            <Position>
              <LatitudeDegrees>43.28543267212808132171630859375</LatitudeDegrees>
              <LongitudeDegrees>-2.6361720822751522064208984375</LongitudeDegrees>
            </Position>
            <AltitudeMeters>146.8000030517578125</AltitudeMeters>
            <DistanceMeters>NAN</DistanceMeters>
          </Trackpoint>
          <Trackpoint>
            <Time>2022-07-11T10:54:35.000Z</Time>
            <Position>
              <LatitudeDegrees>43.2853772677481174468994140625</LatitudeDegrees>
              <LongitudeDegrees>-2.6362347789108753204345703125</LongitudeDegrees>
            </Position>
            <AltitudeMeters>146.1999969482421875</AltitudeMeters>
            <DistanceMeters>NAN</DistanceMeters>
          </Trackpoint>
          <Trackpoint>
            <Time>2022-07-11T10:54:40.000Z</Time>
            <Position>
              <LatitudeDegrees>43.28535296022891998291015625</LatitudeDegrees>
              <LongitudeDegrees>-2.6364731602370738983154296875</LongitudeDegrees>
            </Position>
            <AltitudeMeters>145.8000030517578125</AltitudeMeters>
            <DistanceMeters>NAN</DistanceMeters>
          </Trackpoint>
          <Trackpoint>
            <Time>2022-07-11T10:54:46.000Z</Time>
            <Position>
              <LatitudeDegrees>43.285292945802211761474609375</LatitudeDegrees>
              <LongitudeDegrees>-2.63690181076526641845703125</LongitudeDegrees>
            </Position>
            <AltitudeMeters>145</AltitudeMeters>
            <DistanceMeters>NAN</DistanceMeters>
          </Trackpoint>
          <Trackpoint>
            <Time>2022-07-11T10:54:48.000Z</Time>
            <Position>
              <LatitudeDegrees>43.28527157194912433624267578125</LatitudeDegrees>
              <LongitudeDegrees>-2.6370753161609172821044921875</LongitudeDegrees>
            </Position>
            <AltitudeMeters>144.600006103515625</AltitudeMeters>
            <DistanceMeters>NAN</DistanceMeters>
          </Trackpoint>
          <Trackpoint>
            <Time>2022-07-11T10:54:52.000Z</Time>
            <Position>
              <LatitudeDegrees>43.2852206937968730926513671875</LatitudeDegrees>
              <LongitudeDegrees>-2.63745007105171680450439453125</LongitudeDegrees>
            </Position>
            <AltitudeMeters>143.600006103515625</AltitudeMeters>
            <DistanceMeters>NAN</DistanceMeters>
          </Trackpoint>
          <Trackpoint>
            <Time>2022-07-11T10:54:53.000Z</Time>
            <Position>
              <LatitudeDegrees>43.28520200215280055999755859375</LatitudeDegrees>
              <LongitudeDegrees>-2.63754746876657009124755859375</LongitudeDegrees>
            </Position>
            <AltitudeMeters>143.399993896484375</AltitudeMeters>
            <DistanceMeters>NAN</DistanceMeters>
          </Trackpoint>
          <Trackpoint>
            <Time>2022-07-11T10:54:55.000Z</Time>
            <Position>
              <LatitudeDegrees>43.28513209708034992218017578125</LatitudeDegrees>
              <LongitudeDegrees>-2.6377312839031219482421875</LongitudeDegrees>
            </Position>
            <AltitudeMeters>142.600006103515625</AltitudeMeters>
            <DistanceMeters>NAN</DistanceMeters>
          </Trackpoint>
          <Trackpoint>
            <Time>2022-07-11T10:54:56.000Z</Time>
            <Position>
              <LatitudeDegrees>43.28508147038519382476806640625</LatitudeDegrees>
              <LongitudeDegrees>-2.637810409069061279296875</LongitudeDegrees>
            </Position>
            <AltitudeMeters>142.399993896484375</AltitudeMeters>
            <DistanceMeters>NAN</DistanceMeters>
          </Trackpoint>
          <Trackpoint>
            <Time>2022-07-11T10:54:57.000Z</Time>
            <Position>
              <LatitudeDegrees>43.2850232161581516265869140625</LatitudeDegrees>
              <LongitudeDegrees>-2.63787989504635334014892578125</LongitudeDegrees>
            </Position>
            <AltitudeMeters>141.600006103515625</AltitudeMeters>
            <DistanceMeters>NAN</DistanceMeters>
          </Trackpoint>
          <Trackpoint>
            <Time>2022-07-11T10:54:58.000Z</Time>
            <Position>
              <LatitudeDegrees>43.284959010779857635498046875</LatitudeDegrees>
              <LongitudeDegrees>-2.6379379816353321075439453125</LongitudeDegrees>
            </Position>
            <AltitudeMeters>141.1999969482421875</AltitudeMeters>
            <DistanceMeters>NAN</DistanceMeters>
          </Trackpoint>
          <Trackpoint>
            <Time>2022-07-11T10:54:59.000Z</Time>
            <Position>
              <LatitudeDegrees>43.28489002771675586700439453125</LatitudeDegrees>
              <LongitudeDegrees>-2.63798718340694904327392578125</LongitudeDegrees>
            </Position>
            <AltitudeMeters>140.8000030517578125</AltitudeMeters>
            <DistanceMeters>NAN</DistanceMeters>
          </Trackpoint>
          <Trackpoint>
            <Time>2022-07-11T10:55:00.000Z</Time>
            <Position>
              <LatitudeDegrees>43.2848213799297809600830078125</LatitudeDegrees>
              <LongitudeDegrees>-2.63802892528474330902099609375</LongitudeDegrees>
            </Position>
            <AltitudeMeters>140.1999969482421875</AltitudeMeters>
            <DistanceMeters>NAN</DistanceMeters>
          </Trackpoint>
          <Trackpoint>
            <Time>2022-07-11T10:55:01.000Z</Time>
            <Position>
              <LatitudeDegrees>43.28474870882928371429443359375</LatitudeDegrees>
              <LongitudeDegrees>-2.63806966133415699005126953125</LongitudeDegrees>
            </Position>
            <AltitudeMeters>139.8000030517578125</AltitudeMeters>
            <DistanceMeters>NAN</DistanceMeters>
          </Trackpoint>
          <Trackpoint>
            <Time>2022-07-11T10:55:03.000Z</Time>
            <Position>
              <LatitudeDegrees>43.28459884040057659149169921875</LatitudeDegrees>
              <LongitudeDegrees>-2.6381579227745532989501953125</LongitudeDegrees>
            </Position>
            <AltitudeMeters>139</AltitudeMeters>
            <DistanceMeters>NAN</DistanceMeters>
          </Trackpoint>
          <Trackpoint>
            <Time>2022-07-11T10:55:04.000Z</Time>
            <Position>
              <LatitudeDegrees>43.28454150818288326263427734375</LatitudeDegrees>
              <LongitudeDegrees>-2.638218104839324951171875</LongitudeDegrees>
            </Position>
            <AltitudeMeters>138.8000030517578125</AltitudeMeters>
            <DistanceMeters>NAN</DistanceMeters>
          </Trackpoint>
          <Trackpoint>
            <Time>2022-07-11T10:55:05.000Z</Time>
            <Position>
              <LatitudeDegrees>43.2845099084079265594482421875</LatitudeDegrees>
              <LongitudeDegrees>-2.6382927037775516510009765625</LongitudeDegrees>
            </Position>
            <AltitudeMeters>138.399993896484375</AltitudeMeters>
            <DistanceMeters>NAN</DistanceMeters>
          </Trackpoint>
          <Trackpoint>
            <Time>2022-07-11T10:55:07.000Z</Time>
            <Position>
              <LatitudeDegrees>43.2845521531999111175537109375</LatitudeDegrees>
              <LongitudeDegrees>-2.63844651170074939727783203125</LongitudeDegrees>
            </Position>
            <AltitudeMeters>137.8000030517578125</AltitudeMeters>
            <DistanceMeters>NAN</DistanceMeters>
          </Trackpoint>
          <Trackpoint>
            <Time>2022-07-11T10:55:08.000Z</Time>
            <Position>
              <LatitudeDegrees>43.284608982503414154052734375</LatitudeDegrees>
              <LongitudeDegrees>-2.63850954361259937286376953125</LongitudeDegrees>
            </Position>
            <AltitudeMeters>137.600006103515625</AltitudeMeters>
            <DistanceMeters>NAN</DistanceMeters>
          </Trackpoint>
          <Trackpoint>
            <Time>2022-07-11T10:55:10.000Z</Time>
            <Position>
              <LatitudeDegrees>43.28473328612744808197021484375</LatitudeDegrees>
              <LongitudeDegrees>-2.63861171901226043701171875</LongitudeDegrees>
            </Position>
            <AltitudeMeters>137</AltitudeMeters>
            <DistanceMeters>NAN</DistanceMeters>
          </Trackpoint>
          <Trackpoint>
            <Time>2022-07-11T10:55:12.000Z</Time>
            <Position>
              <LatitudeDegrees>43.2848512195050716400146484375</LatitudeDegrees>
              <LongitudeDegrees>-2.638726718723773956298828125</LongitudeDegrees>
            </Position>
            <AltitudeMeters>136.1999969482421875</AltitudeMeters>
            <DistanceMeters>NAN</DistanceMeters>
          </Trackpoint>
          <Trackpoint>
            <Time>2022-07-11T10:55:14.000Z</Time>
            <Position>
              <LatitudeDegrees>43.28494149260222911834716796875</LatitudeDegrees>
              <LongitudeDegrees>-2.63887935318052768707275390625</LongitudeDegrees>
            </Position>
            <AltitudeMeters>135.8000030517578125</AltitudeMeters>
            <DistanceMeters>NAN</DistanceMeters>
          </Trackpoint>
          <Trackpoint>
            <Time>2022-07-11T10:55:16.000Z</Time>
            <Position>
              <LatitudeDegrees>43.28497669659554958343505859375</LatitudeDegrees>
              <LongitudeDegrees>-2.63906526379287242889404296875</LongitudeDegrees>
            </Position>
            <AltitudeMeters>135</AltitudeMeters>
            <DistanceMeters>NAN</DistanceMeters>
          </Trackpoint>
          <Trackpoint>
            <Time>2022-07-11T10:55:17.000Z</Time>
            <Position>
              <LatitudeDegrees>43.2849632017314434051513671875</LatitudeDegrees>
              <LongitudeDegrees>-2.63916282914578914642333984375</LongitudeDegrees>
            </Position>
            <AltitudeMeters>134.8000030517578125</AltitudeMeters>
            <DistanceMeters>NAN</DistanceMeters>
          </Trackpoint>
          <Trackpoint>
            <Time>2022-07-11T10:55:18.000Z</Time>
            <Position>
              <LatitudeDegrees>43.28493713401257991790771484375</LatitudeDegrees>
              <LongitudeDegrees>-2.63925679028034210205078125</LongitudeDegrees>
            </Position>
            <AltitudeMeters>134.600006103515625</AltitudeMeters>
            <DistanceMeters>NAN</DistanceMeters>
          </Trackpoint>
          <Trackpoint>
            <Time>2022-07-11T10:55:20.000Z</Time>
            <Position>
              <LatitudeDegrees>43.28488835133612155914306640625</LatitudeDegrees>
              <LongitudeDegrees>-2.63944261707365512847900390625</LongitudeDegrees>
            </Position>
            <AltitudeMeters>134.399993896484375</AltitudeMeters>
            <DistanceMeters>NAN</DistanceMeters>
          </Trackpoint>
          <Trackpoint>
            <Time>2022-07-11T10:55:21.000Z</Time>
            <Position>
              <LatitudeDegrees>43.2848800532519817352294921875</LatitudeDegrees>
              <LongitudeDegrees>-2.63953833840787410736083984375</LongitudeDegrees>
            </Position>
            <AltitudeMeters>134.1999969482421875</AltitudeMeters>
            <DistanceMeters>NAN</DistanceMeters>
          </Trackpoint>
          <Trackpoint>
            <Time>2022-07-11T10:55:22.000Z</Time>
            <Position>
              <LatitudeDegrees>43.28489053063094615936279296875</LatitudeDegrees>
              <LongitudeDegrees>-2.6396276056766510009765625</LongitudeDegrees>
            </Position>
            <AltitudeMeters>134.1999969482421875</AltitudeMeters>
            <DistanceMeters>NAN</DistanceMeters>
          </Trackpoint>
          <Trackpoint>
            <Time>2022-07-11T10:55:24.000Z</Time>
            <Position>
              <LatitudeDegrees>43.28496965579688549041748046875</LatitudeDegrees>
              <LongitudeDegrees>-2.63976381160318851470947265625</LongitudeDegrees>
            </Position>
            <AltitudeMeters>134</AltitudeMeters>
            <DistanceMeters>NAN</DistanceMeters>
          </Trackpoint>
          <Trackpoint>
            <Time>2022-07-11T10:55:26.000Z</Time>
            <Position>
              <LatitudeDegrees>43.2850896008312702178955078125</LatitudeDegrees>
              <LongitudeDegrees>-2.63976230286061763763427734375</LongitudeDegrees>
            </Position>
            <AltitudeMeters>134</AltitudeMeters>
            <DistanceMeters>NAN</DistanceMeters>
          </Trackpoint>
          <Trackpoint>
            <Time>2022-07-11T10:55:29.000Z</Time>
            <Position>
              <LatitudeDegrees>43.28522714786231517791748046875</LatitudeDegrees>
              <LongitudeDegrees>-2.63960807584226131439208984375</LongitudeDegrees>
            </Position>
            <AltitudeMeters>134</AltitudeMeters>
            <DistanceMeters>NAN</DistanceMeters>
          </Trackpoint>
          <Trackpoint>
            <Time>2022-07-11T10:55:30.000Z</Time>
            <Position>
              <LatitudeDegrees>43.28526184894144535064697265625</LatitudeDegrees>
              <LongitudeDegrees>-2.63955526985228061676025390625</LongitudeDegrees>
            </Position>
            <AltitudeMeters>133.8000030517578125</AltitudeMeters>
            <DistanceMeters>NAN</DistanceMeters>
          </Trackpoint>
          <Trackpoint>
            <Time>2022-07-11T10:55:32.000Z</Time>
            <Position>
              <LatitudeDegrees>43.2853239588439464569091796875</LatitudeDegrees>
              <LongitudeDegrees>-2.6394758932292461395263671875</LongitudeDegrees>
            </Position>
            <AltitudeMeters>133.600006103515625</AltitudeMeters>
            <DistanceMeters>NAN</DistanceMeters>
          </Trackpoint>
          <Trackpoint>
            <Time>2022-07-11T10:55:34.000Z</Time>
            <Position>
              <LatitudeDegrees>43.285398893058300018310546875</LatitudeDegrees>
              <LongitudeDegrees>-2.63942065648734569549560546875</LongitudeDegrees>
            </Position>
            <AltitudeMeters>133.600006103515625</AltitudeMeters>
            <DistanceMeters>NAN</DistanceMeters>
          </Trackpoint>
          <Trackpoint>
            <Time>2022-07-11T10:55:36.000Z</Time>
            <Position>
              <LatitudeDegrees>43.28548044897615909576416015625</LatitudeDegrees>
              <LongitudeDegrees>-2.6393997855484485626220703125</LongitudeDegrees>
            </Position>
            <AltitudeMeters>133.600006103515625</AltitudeMeters>
            <DistanceMeters>NAN</DistanceMeters>
          </Trackpoint>
          <Trackpoint>
            <Time>2022-07-11T10:55:39.000Z</Time>
            <Position>
              <LatitudeDegrees>43.28561045229434967041015625</LatitudeDegrees>
              <LongitudeDegrees>-2.6394004561007022857666015625</LongitudeDegrees>
            </Position>
            <AltitudeMeters>133.600006103515625</AltitudeMeters>
            <DistanceMeters>NAN</DistanceMeters>
          </Trackpoint>
          <Trackpoint>
            <Time>2022-07-11T10:55:44.000Z</Time>
            <Position>
              <LatitudeDegrees>43.28581689856946468353271484375</LatitudeDegrees>
              <LongitudeDegrees>-2.63943959958851337432861328125</LongitudeDegrees>
            </Position>
            <AltitudeMeters>133</AltitudeMeters>
            <DistanceMeters>NAN</DistanceMeters>
          </Trackpoint>
          <Trackpoint>
            <Time>2022-07-11T10:55:45.000Z</Time>
            <Position>
              <LatitudeDegrees>43.28585713170468807220458984375</LatitudeDegrees>
              <LongitudeDegrees>-2.63946055434644222259521484375</LongitudeDegrees>
            </Position>
            <AltitudeMeters>132.8000030517578125</AltitudeMeters>
            <DistanceMeters>NAN</DistanceMeters>
          </Trackpoint>
          <Trackpoint>
            <Time>2022-07-11T10:55:47.000Z</Time>
            <Position>
              <LatitudeDegrees>43.28595251776278018951416015625</LatitudeDegrees>
              <LongitudeDegrees>-2.6394929923117160797119140625</LongitudeDegrees>
            </Position>
            <AltitudeMeters>132.399993896484375</AltitudeMeters>
            <DistanceMeters>NAN</DistanceMeters>
          </Trackpoint>
          <Trackpoint>
            <Time>2022-07-11T10:55:48.000Z</Time>
            <Position>
              <LatitudeDegrees>43.2859968580305576324462890625</LatitudeDegrees>
              <LongitudeDegrees>-2.6395147852599620819091796875</LongitudeDegrees>
            </Position>
            <AltitudeMeters>132.1999969482421875</AltitudeMeters>
            <DistanceMeters>NAN</DistanceMeters>
          </Trackpoint>
          <Trackpoint>
            <Time>2022-07-11T10:55:50.000Z</Time>
            <Position>
              <LatitudeDegrees>43.2860697805881500244140625</LatitudeDegrees>
              <LongitudeDegrees>-2.63958192430436611175537109375</LongitudeDegrees>
            </Position>
            <AltitudeMeters>131.8000030517578125</AltitudeMeters>
            <DistanceMeters>NAN</DistanceMeters>
          </Trackpoint>
          <Trackpoint>
            <Time>2022-07-11T10:55:51.000Z</Time>
            <Position>
              <LatitudeDegrees>43.2861091755330562591552734375</LatitudeDegrees>
              <LongitudeDegrees>-2.63962450437247753143310546875</LongitudeDegrees>
            </Position>
            <AltitudeMeters>131.600006103515625</AltitudeMeters>
            <DistanceMeters>NAN</DistanceMeters>
          </Trackpoint>
          <Trackpoint>
            <Time>2022-07-11T10:55:52.000Z</Time>
            <Position>
              <LatitudeDegrees>43.28614396043121814727783203125</LatitudeDegrees>
              <LongitudeDegrees>-2.63967923820018768310546875</LongitudeDegrees>
            </Position>
            <AltitudeMeters>131.600006103515625</AltitudeMeters>
            <DistanceMeters>NAN</DistanceMeters>
          </Trackpoint>
          <Trackpoint>
            <Time>2022-07-11T10:55:54.000Z</Time>
            <Position>
              <LatitudeDegrees>43.28619123436510562896728515625</LatitudeDegrees>
              <LongitudeDegrees>-2.639798931777477264404296875</LongitudeDegrees>
            </Position>
            <AltitudeMeters>131.399993896484375</AltitudeMeters>
            <DistanceMeters>NAN</DistanceMeters>
          </Trackpoint>
          <Trackpoint>
            <Time>2022-07-11T10:55:57.000Z</Time>
            <Position>
              <LatitudeDegrees>43.2862546853721141815185546875</LatitudeDegrees>
              <LongitudeDegrees>-2.63999230228364467620849609375</LongitudeDegrees>
            </Position>
            <AltitudeMeters>130.8000030517578125</AltitudeMeters>
            <DistanceMeters>NAN</DistanceMeters>
          </Trackpoint>
          <Trackpoint>
            <Time>2022-07-11T10:55:58.000Z</Time>
            <Position>
              <LatitudeDegrees>43.2862841896712779998779296875</LatitudeDegrees>
              <LongitudeDegrees>-2.6400529034435749053955078125</LongitudeDegrees>
            </Position>
            <AltitudeMeters>130.600006103515625</AltitudeMeters>
            <DistanceMeters>NAN</DistanceMeters>
          </Trackpoint>
          <Trackpoint>
            <Time>2022-07-11T10:56:00.000Z</Time>
            <Position>
              <LatitudeDegrees>43.286369182169437408447265625</LatitudeDegrees>
              <LongitudeDegrees>-2.64013412408530712127685546875</LongitudeDegrees>
            </Position>
            <AltitudeMeters>130.1999969482421875</AltitudeMeters>
            <DistanceMeters>NAN</DistanceMeters>
          </Trackpoint>
          <Trackpoint>
            <Time>2022-07-11T10:56:04.000Z</Time>
            <Position>
              <LatitudeDegrees>43.28658275306224822998046875</LatitudeDegrees>
              <LongitudeDegrees>-2.64016077853739261627197265625</LongitudeDegrees>
            </Position>
            <AltitudeMeters>129.8000030517578125</AltitudeMeters>
            <DistanceMeters>NAN</DistanceMeters>
          </Trackpoint>
          <Trackpoint>
            <Time>2022-07-11T10:56:06.000Z</Time>
            <Position>
              <LatitudeDegrees>43.28668677248060703277587890625</LatitudeDegrees>
              <LongitudeDegrees>-2.640178464353084564208984375</LongitudeDegrees>
            </Position>
            <AltitudeMeters>129.8000030517578125</AltitudeMeters>
            <DistanceMeters>NAN</DistanceMeters>
          </Trackpoint>
          <Trackpoint>
            <Time>2022-07-11T10:56:09.000Z</Time>
            <Position>
              <LatitudeDegrees>43.28683848492801189422607421875</LatitudeDegrees>
              <LongitudeDegrees>-2.6402577571570873260498046875</LongitudeDegrees>
            </Position>
            <AltitudeMeters>129.1999969482421875</AltitudeMeters>
            <DistanceMeters>NAN</DistanceMeters>
          </Trackpoint>
          <Trackpoint>
            <Time>2022-07-11T10:56:13.000Z</Time>
            <Position>
              <LatitudeDegrees>43.2870434224605560302734375</LatitudeDegrees>
              <LongitudeDegrees>-2.64041709713637828826904296875</LongitudeDegrees>
            </Position>
            <AltitudeMeters>128.399993896484375</AltitudeMeters>
            <DistanceMeters>NAN</DistanceMeters>
          </Trackpoint>
          <Trackpoint>
            <Time>2022-07-11T10:56:14.000Z</Time>
            <Position>
              <LatitudeDegrees>43.2871079631149768829345703125</LatitudeDegrees>
              <LongitudeDegrees>-2.64046185649931430816650390625</LongitudeDegrees>
            </Position>
            <AltitudeMeters>128.1999969482421875</AltitudeMeters>
            <DistanceMeters>NAN</DistanceMeters>
          </Trackpoint>
          <Trackpoint>
            <Time>2022-07-11T10:56:16.000Z</Time>
            <Position>
              <LatitudeDegrees>43.28721768222749233245849609375</LatitudeDegrees>
              <LongitudeDegrees>-2.64051248319447040557861328125</LongitudeDegrees>
            </Position>
            <AltitudeMeters>127.8000030517578125</AltitudeMeters>
            <DistanceMeters>NAN</DistanceMeters>
          </Trackpoint>
          <Trackpoint>
            <Time>2022-07-11T10:56:22.000Z</Time>
            <Position>
              <LatitudeDegrees>43.28757156617939472198486328125</LatitudeDegrees>
              <LongitudeDegrees>-2.6406671293079853057861328125</LongitudeDegrees>
            </Position>
            <AltitudeMeters>127.1999969482421875</AltitudeMeters>
            <DistanceMeters>NAN</DistanceMeters>
          </Trackpoint>
          <Trackpoint>
            <Time>2022-07-11T10:56:24.000Z</Time>
            <Position>
              <LatitudeDegrees>43.28768790699541568756103515625</LatitudeDegrees>
              <LongitudeDegrees>-2.64075337909162044525146484375</LongitudeDegrees>
            </Position>
            <AltitudeMeters>126.8000030517578125</AltitudeMeters>
            <DistanceMeters>NAN</DistanceMeters>
          </Trackpoint>
          <Trackpoint>
            <Time>2022-07-11T10:56:27.000Z</Time>
            <Position>
              <LatitudeDegrees>43.28783526085317134857177734375</LatitudeDegrees>
              <LongitudeDegrees>-2.6409048400819301605224609375</LongitudeDegrees>
            </Position>
            <AltitudeMeters>126.40000152587890625</AltitudeMeters>
            <DistanceMeters>NAN</DistanceMeters>
          </Trackpoint>
          <Trackpoint>
            <Time>2022-07-11T10:56:28.000Z</Time>
            <Position>
              <LatitudeDegrees>43.287875913083553314208984375</LatitudeDegrees>
              <LongitudeDegrees>-2.64096762053668498992919921875</LongitudeDegrees>
            </Position>
            <AltitudeMeters>126.1999969482421875</AltitudeMeters>
            <DistanceMeters>NAN</DistanceMeters>
          </Trackpoint>
          <Trackpoint>
            <Time>2022-07-11T10:56:29.000Z</Time>
            <Position>
              <LatitudeDegrees>43.2879065908491611480712890625</LatitudeDegrees>
              <LongitudeDegrees>-2.64103568159043788909912109375</LongitudeDegrees>
            </Position>
            <AltitudeMeters>125.8000030517578125</AltitudeMeters>
            <DistanceMeters>NAN</DistanceMeters>
          </Trackpoint>
          <Trackpoint>
            <Time>2022-07-11T10:56:31.000Z</Time>
            <Position>
              <LatitudeDegrees>43.28792595304548740386962890625</LatitudeDegrees>
              <LongitudeDegrees>-2.64119334518909454345703125</LongitudeDegrees>
            </Position>
            <AltitudeMeters>125.59999847412109375</AltitudeMeters>
            <DistanceMeters>NAN</DistanceMeters>
          </Trackpoint>
          <Trackpoint>
            <Time>2022-07-11T10:56:32.000Z</Time>
            <Position>
              <LatitudeDegrees>43.2879236899316310882568359375</LatitudeDegrees>
              <LongitudeDegrees>-2.6412793435156345367431640625</LongitudeDegrees>
            </Position>
            <AltitudeMeters>125.40000152587890625</AltitudeMeters>
            <DistanceMeters>NAN</DistanceMeters>
          </Trackpoint>
          <Trackpoint>
            <Time>2022-07-11T10:56:33.000Z</Time>
            <Position>
              <LatitudeDegrees>43.28791539184749126434326171875</LatitudeDegrees>
              <LongitudeDegrees>-2.641361989080905914306640625</LongitudeDegrees>
            </Position>
            <AltitudeMeters>125.1999969482421875</AltitudeMeters>
            <DistanceMeters>NAN</DistanceMeters>
          </Trackpoint>
          <Trackpoint>
            <Time>2022-07-11T10:56:35.000Z</Time>
            <Position>
              <LatitudeDegrees>43.2878854684531688690185546875</LatitudeDegrees>
              <LongitudeDegrees>-2.64152049086987972259521484375</LongitudeDegrees>
            </Position>
            <AltitudeMeters>124.8000030517578125</AltitudeMeters>
            <DistanceMeters>NAN</DistanceMeters>
          </Trackpoint>
          <Trackpoint>
            <Time>2022-07-11T10:56:36.000Z</Time>
            <Position>
              <LatitudeDegrees>43.28785772435367107391357421875</LatitudeDegrees>
              <LongitudeDegrees>-2.64159240759909152984619140625</LongitudeDegrees>
            </Position>
            <AltitudeMeters>124.40000152587890625</AltitudeMeters>
            <DistanceMeters>NAN</DistanceMeters>
          </Trackpoint>
          <Trackpoint>
            <Time>2022-07-11T10:56:37.000Z</Time>
            <Position>
              <LatitudeDegrees>43.28782453201711177825927734375</LatitudeDegrees>
              <LongitudeDegrees>-2.641656696796417236328125</LongitudeDegrees>
            </Position>
            <AltitudeMeters>124</AltitudeMeters>
            <DistanceMeters>NAN</DistanceMeters>
          </Trackpoint>
          <Trackpoint>
            <Time>2022-07-11T10:56:39.000Z</Time>
            <Position>
              <LatitudeDegrees>43.2877429760992527008056640625</LatitudeDegrees>
              <LongitudeDegrees>-2.6417638175189495086669921875</LongitudeDegrees>
            </Position>
            <AltitudeMeters>123.8000030517578125</AltitudeMeters>
            <DistanceMeters>NAN</DistanceMeters>
          </Trackpoint>
          <Trackpoint>
            <Time>2022-07-11T10:56:40.000Z</Time>
            <Position>
              <LatitudeDegrees>43.287702910602092742919921875</LatitudeDegrees>
              <LongitudeDegrees>-2.6418060623109340667724609375</LongitudeDegrees>
            </Position>
            <AltitudeMeters>123.8000030517578125</AltitudeMeters>
            <DistanceMeters>NAN</DistanceMeters>
          </Trackpoint>
          <Trackpoint>
            <Time>2022-07-11T10:56:45.000Z</Time>
            <Position>
              <LatitudeDegrees>43.28749428503215312957763671875</LatitudeDegrees>
              <LongitudeDegrees>-2.64198317192494869232177734375</LongitudeDegrees>
            </Position>
            <AltitudeMeters>123.8000030517578125</AltitudeMeters>
            <DistanceMeters>NAN</DistanceMeters>
          </Trackpoint>
          <Trackpoint>
            <Time>2022-07-11T10:56:47.000Z</Time>
            <Position>
              <LatitudeDegrees>43.28745790757238864898681640625</LatitudeDegrees>
              <LongitudeDegrees>-2.64202223159372806549072265625</LongitudeDegrees>
            </Position>
            <AltitudeMeters>123.8000030517578125</AltitudeMeters>
            <DistanceMeters>NAN</DistanceMeters>
          </Trackpoint>
          <Trackpoint>
            <Time>2022-07-11T10:56:53.000Z</Time>
            <Position>
              <LatitudeDegrees>43.28724148683249950408935546875</LatitudeDegrees>
              <LongitudeDegrees>-2.64233990572392940521240234375</LongitudeDegrees>
            </Position>
            <AltitudeMeters>124</AltitudeMeters>
            <DistanceMeters>NAN</DistanceMeters>
          </Trackpoint>
          <Trackpoint>
            <Time>2022-07-11T10:56:57.000Z</Time>
            <Position>
              <LatitudeDegrees>43.287161104381084442138671875</LatitudeDegrees>
              <LongitudeDegrees>-2.6424814760684967041015625</LongitudeDegrees>
            </Position>
            <AltitudeMeters>124.1999969482421875</AltitudeMeters>
            <DistanceMeters>NAN</DistanceMeters>
          </Trackpoint>
          <Trackpoint>
            <Time>2022-07-11T10:57:01.000Z</Time>
            <Position>
              <LatitudeDegrees>43.28708306886255741119384765625</LatitudeDegrees>
              <LongitudeDegrees>-2.64260309748351573944091796875</LongitudeDegrees>
            </Position>
            <AltitudeMeters>124.40000152587890625</AltitudeMeters>
            <DistanceMeters>NAN</DistanceMeters>
          </Trackpoint>
          <Trackpoint>
            <Time>2022-07-11T10:57:03.000Z</Time>
            <Position>
              <LatitudeDegrees>43.2870127446949481964111328125</LatitudeDegrees>
              <LongitudeDegrees>-2.642678953707218170166015625</LongitudeDegrees>
            </Position>
            <AltitudeMeters>124.40000152587890625</AltitudeMeters>
            <DistanceMeters>NAN</DistanceMeters>
          </Trackpoint>
          <Trackpoint>
            <Time>2022-07-11T10:57:04.000Z</Time>
            <Position>
              <LatitudeDegrees>43.28699924983084201812744140625</LatitudeDegrees>
              <LongitudeDegrees>-2.64273167587816715240478515625</LongitudeDegrees>
            </Position>
            <AltitudeMeters>124.40000152587890625</AltitudeMeters>
            <DistanceMeters>NAN</DistanceMeters>
          </Trackpoint>
          <Trackpoint>
            <Time>2022-07-11T10:57:06.000Z</Time>
            <Position>
              <LatitudeDegrees>43.287017606198787689208984375</LatitudeDegrees>
              <LongitudeDegrees>-2.6428356952965259552001953125</LongitudeDegrees>
            </Position>
            <AltitudeMeters>124.40000152587890625</AltitudeMeters>
            <DistanceMeters>NAN</DistanceMeters>
          </Trackpoint>
          <Trackpoint>
            <Time>2022-07-11T10:57:10.000Z</Time>
            <Position>
              <LatitudeDegrees>43.28712514601647853851318359375</LatitudeDegrees>
              <LongitudeDegrees>-2.6429195143282413482666015625</LongitudeDegrees>
            </Position>
            <AltitudeMeters>124.59999847412109375</AltitudeMeters>
            <DistanceMeters>NAN</DistanceMeters>
          </Trackpoint>
          <Trackpoint>
            <Time>2022-07-11T10:57:15.000Z</Time>
            <Position>
              <LatitudeDegrees>43.28726344741880893707275390625</LatitudeDegrees>
              <LongitudeDegrees>-2.6429104618728160858154296875</LongitudeDegrees>
            </Position>
            <AltitudeMeters>125</AltitudeMeters>
            <DistanceMeters>NAN</DistanceMeters>
          </Trackpoint>
          <Trackpoint>
            <Time>2022-07-11T10:57:17.000Z</Time>
            <Position>
              <LatitudeDegrees>43.2873094640672206878662109375</LatitudeDegrees>
              <LongitudeDegrees>-2.64289780519902706146240234375</LongitudeDegrees>
            </Position>
            <AltitudeMeters>125.1999969482421875</AltitudeMeters>
            <DistanceMeters>NAN</DistanceMeters>
          </Trackpoint>
          <Trackpoint>
            <Time>2022-07-11T10:57:21.000Z</Time>
            <Position>
              <LatitudeDegrees>43.28737643547356128692626953125</LatitudeDegrees>
              <LongitudeDegrees>-2.642869055271148681640625</LongitudeDegrees>
            </Position>
            <AltitudeMeters>125.1999969482421875</AltitudeMeters>
            <DistanceMeters>NAN</DistanceMeters>
          </Trackpoint>
          <Trackpoint>
            <Time>2022-07-11T10:57:22.000Z</Time>
            <Position>
              <LatitudeDegrees>43.287395127117633819580078125</LatitudeDegrees>
              <LongitudeDegrees>-2.6428688876330852508544921875</LongitudeDegrees>
            </Position>
            <AltitudeMeters>125.40000152587890625</AltitudeMeters>
            <DistanceMeters>NAN</DistanceMeters>
          </Trackpoint>
          <Trackpoint>
            <Time>2022-07-11T10:57:30.000Z</Time>
            <Position>
              <LatitudeDegrees>43.2875408045947551727294921875</LatitudeDegrees>
              <LongitudeDegrees>-2.64281549490988254547119140625</LongitudeDegrees>
            </Position>
            <AltitudeMeters>126</AltitudeMeters>
            <DistanceMeters>NAN</DistanceMeters>
          </Trackpoint>
          <Trackpoint>
            <Time>2022-07-11T10:57:33.000Z</Time>
            <Position>
              <LatitudeDegrees>43.28759000636637210845947265625</LatitudeDegrees>
              <LongitudeDegrees>-2.64279856346547603607177734375</LongitudeDegrees>
            </Position>
            <AltitudeMeters>126.1999969482421875</AltitudeMeters>
            <DistanceMeters>NAN</DistanceMeters>
          </Trackpoint>
          <Trackpoint>
            <Time>2022-07-11T10:57:37.000Z</Time>
            <Position>
              <LatitudeDegrees>43.28768053092062473297119140625</LatitudeDegrees>
              <LongitudeDegrees>-2.64279135502874851226806640625</LongitudeDegrees>
            </Position>
            <AltitudeMeters>126.40000152587890625</AltitudeMeters>
            <DistanceMeters>NAN</DistanceMeters>
          </Trackpoint>
          <Trackpoint>
            <Time>2022-07-11T10:57:40.000Z</Time>
            <Position>
              <LatitudeDegrees>43.28775085508823394775390625</LatitudeDegrees>
              <LongitudeDegrees>-2.64278749935328960418701171875</LongitudeDegrees>
            </Position>
            <AltitudeMeters>126.59999847412109375</AltitudeMeters>
            <DistanceMeters>NAN</DistanceMeters>
          </Trackpoint>
          <Trackpoint>
            <Time>2022-07-11T10:57:42.000Z</Time>
            <Position>
              <LatitudeDegrees>43.287798799574375152587890625</LatitudeDegrees>
              <LongitudeDegrees>-2.64278163202106952667236328125</LongitudeDegrees>
            </Position>
            <AltitudeMeters>126.8000030517578125</AltitudeMeters>
            <DistanceMeters>NAN</DistanceMeters>
          </Trackpoint>
          <Trackpoint>
            <Time>2022-07-11T10:57:48.000Z</Time>
            <Position>
              <LatitudeDegrees>43.2879558764398097991943359375</LatitudeDegrees>
              <LongitudeDegrees>-2.64274056069552898406982421875</LongitudeDegrees>
            </Position>
            <AltitudeMeters>127</AltitudeMeters>
            <DistanceMeters>NAN</DistanceMeters>
          </Trackpoint>
          <Trackpoint>
            <Time>2022-07-11T10:57:52.000Z</Time>
            <Position>
              <LatitudeDegrees>43.28806626610457897186279296875</LatitudeDegrees>
              <LongitudeDegrees>-2.6426854915916919708251953125</LongitudeDegrees>
            </Position>
            <AltitudeMeters>127.1999969482421875</AltitudeMeters>
            <DistanceMeters>NAN</DistanceMeters>
          </Trackpoint>
          <Trackpoint>
            <Time>2022-07-11T10:57:54.000Z</Time>
            <Position>
              <LatitudeDegrees>43.28811228275299072265625</LatitudeDegrees>
              <LongitudeDegrees>-2.64264467172324657440185546875</LongitudeDegrees>
            </Position>
            <AltitudeMeters>127.40000152587890625</AltitudeMeters>
            <DistanceMeters>NAN</DistanceMeters>
          </Trackpoint>
          <Trackpoint>
            <Time>2022-07-11T10:58:02.000Z</Time>
            <Position>
              <LatitudeDegrees>43.288266174495220184326171875</LatitudeDegrees>
              <LongitudeDegrees>-2.64246798120439052581787109375</LongitudeDegrees>
            </Position>
            <AltitudeMeters>127.8000030517578125</AltitudeMeters>
            <DistanceMeters>NAN</DistanceMeters>
          </Trackpoint>
          <Trackpoint>
            <Time>2022-07-11T10:58:08.000Z</Time>
            <Position>
              <LatitudeDegrees>43.2883496582508087158203125</LatitudeDegrees>
              <LongitudeDegrees>-2.64232096262276172637939453125</LongitudeDegrees>
            </Position>
            <AltitudeMeters>128.1999969482421875</AltitudeMeters>
            <DistanceMeters>NAN</DistanceMeters>
          </Trackpoint>
          <Trackpoint>
            <Time>2022-07-11T10:58:13.000Z</Time>
            <Position>
              <LatitudeDegrees>43.28845627605915069580078125</LatitudeDegrees>
              <LongitudeDegrees>-2.6421917974948883056640625</LongitudeDegrees>
            </Position>
            <AltitudeMeters>128.1999969482421875</AltitudeMeters>
            <DistanceMeters>NAN</DistanceMeters>
          </Trackpoint>
          <Trackpoint>
            <Time>2022-07-11T10:58:14.000Z</Time>
            <Position>
              <LatitudeDegrees>43.28847010619938373565673828125</LatitudeDegrees>
              <LongitudeDegrees>-2.64217637479305267333984375</LongitudeDegrees>
            </Position>
            <AltitudeMeters>128.399993896484375</AltitudeMeters>
            <DistanceMeters>NAN</DistanceMeters>
          </Trackpoint>
          <Trackpoint>
            <Time>2022-07-11T10:58:23.000Z</Time>
            <Position>
              <LatitudeDegrees>43.288669176399707794189453125</LatitudeDegrees>
              <LongitudeDegrees>-2.642049975693225860595703125</LongitudeDegrees>
            </Position>
            <AltitudeMeters>128.600006103515625</AltitudeMeters>
            <DistanceMeters>NAN</DistanceMeters>
          </Trackpoint>
          <Trackpoint>
            <Time>2022-07-11T10:58:31.000Z</Time>
            <Position>
              <LatitudeDegrees>43.28885500319302082061767578125</LatitudeDegrees>
              <LongitudeDegrees>-2.6419914700090885162353515625</LongitudeDegrees>
            </Position>
            <AltitudeMeters>128.8000030517578125</AltitudeMeters>
            <DistanceMeters>NAN</DistanceMeters>
          </Trackpoint>
          <Trackpoint>
            <Time>2022-07-11T10:58:32.000Z</Time>
            <Position>
              <LatitudeDegrees>43.28887679614126682281494140625</LatitudeDegrees>
              <LongitudeDegrees>-2.641990296542644500732421875</LongitudeDegrees>
            </Position>
            <AltitudeMeters>128.8000030517578125</AltitudeMeters>
            <DistanceMeters>NAN</DistanceMeters>
          </Trackpoint>
          <Trackpoint>
            <Time>2022-07-11T10:58:38.000Z</Time>
            <Position>
              <LatitudeDegrees>43.2890270836651325225830078125</LatitudeDegrees>
              <LongitudeDegrees>-2.642017118632793426513671875</LongitudeDegrees>
            </Position>
            <AltitudeMeters>128.8000030517578125</AltitudeMeters>
            <DistanceMeters>NAN</DistanceMeters>
          </Trackpoint>
          <Trackpoint>
            <Time>2022-07-11T10:58:41.000Z</Time>
            <Position>
              <LatitudeDegrees>43.28908969648182392120361328125</LatitudeDegrees>
              <LongitudeDegrees>-2.64204788021743297576904296875</LongitudeDegrees>
            </Position>
            <AltitudeMeters>128.8000030517578125</AltitudeMeters>
            <DistanceMeters>NAN</DistanceMeters>
          </Trackpoint>
          <Trackpoint>
            <Time>2022-07-11T10:58:48.000Z</Time>
            <Position>
              <LatitudeDegrees>43.2892213761806488037109375</LatitudeDegrees>
              <LongitudeDegrees>-2.64213639311492443084716796875</LongitudeDegrees>
            </Position>
            <AltitudeMeters>128.8000030517578125</AltitudeMeters>
            <DistanceMeters>NAN</DistanceMeters>
          </Trackpoint>
          <Trackpoint>
            <Time>2022-07-11T10:58:55.000Z</Time>
            <Position>
              <LatitudeDegrees>43.28936797566711902618408203125</LatitudeDegrees>
              <LongitudeDegrees>-2.6422576792538166046142578125</LongitudeDegrees>
            </Position>
            <AltitudeMeters>128.8000030517578125</AltitudeMeters>
            <DistanceMeters>NAN</DistanceMeters>
          </Trackpoint>
          <Trackpoint>
            <Time>2022-07-11T10:58:56.000Z</Time>
            <Position>
              <LatitudeDegrees>43.2893851585686206817626953125</LatitudeDegrees>
              <LongitudeDegrees>-2.642276622354984283447265625</LongitudeDegrees>
            </Position>
            <AltitudeMeters>128.8000030517578125</AltitudeMeters>
            <DistanceMeters>NAN</DistanceMeters>
          </Trackpoint>
          <Trackpoint>
            <Time>2022-07-11T10:59:04.000Z</Time>
            <Position>
              <LatitudeDegrees>43.28951030038297176361083984375</LatitudeDegrees>
              <LongitudeDegrees>-2.642495892941951751708984375</LongitudeDegrees>
            </Position>
            <AltitudeMeters>128.600006103515625</AltitudeMeters>
            <DistanceMeters>NAN</DistanceMeters>
          </Trackpoint>
          <Trackpoint>
            <Time>2022-07-11T10:59:09.000Z</Time>
            <Position>
              <LatitudeDegrees>43.28962345607578754425048828125</LatitudeDegrees>
              <LongitudeDegrees>-2.64265975914895534515380859375</LongitudeDegrees>
            </Position>
            <AltitudeMeters>128.399993896484375</AltitudeMeters>
            <DistanceMeters>NAN</DistanceMeters>
          </Trackpoint>
          <Trackpoint>
            <Time>2022-07-11T10:59:13.000Z</Time>
            <Position>
              <LatitudeDegrees>43.289714567363262176513671875</LatitudeDegrees>
              <LongitudeDegrees>-2.642656154930591583251953125</LongitudeDegrees>
            </Position>
            <AltitudeMeters>128.399993896484375</AltitudeMeters>
            <DistanceMeters>NAN</DistanceMeters>
          </Trackpoint>
          <Trackpoint>
            <Time>2022-07-11T10:59:18.000Z</Time>
            <Position>
              <LatitudeDegrees>43.2899226061999797821044921875</LatitudeDegrees>
              <LongitudeDegrees>-2.64249413274228572845458984375</LongitudeDegrees>
            </Position>
            <AltitudeMeters>128.399993896484375</AltitudeMeters>
            <DistanceMeters>NAN</DistanceMeters>
          </Trackpoint>
          <Trackpoint>
            <Time>2022-07-11T10:59:25.000Z</Time>
            <Position>
              <LatitudeDegrees>43.290212787687778472900390625</LatitudeDegrees>
              <LongitudeDegrees>-2.6423988305032253265380859375</LongitudeDegrees>
            </Position>
            <AltitudeMeters>127.59999847412109375</AltitudeMeters>
            <DistanceMeters>NAN</DistanceMeters>
          </Trackpoint>
          <Trackpoint>
            <Time>2022-07-11T10:59:27.000Z</Time>
            <Position>
              <LatitudeDegrees>43.29030389897525310516357421875</LatitudeDegrees>
              <LongitudeDegrees>-2.64236941002309322357177734375</LongitudeDegrees>
            </Position>
            <AltitudeMeters>127.1999969482421875</AltitudeMeters>
            <DistanceMeters>NAN</DistanceMeters>
          </Trackpoint>
          <Trackpoint>
            <Time>2022-07-11T10:59:29.000Z</Time>
            <Position>
              <LatitudeDegrees>43.29040087759494781494140625</LatitudeDegrees>
              <LongitudeDegrees>-2.64236102811992168426513671875</LongitudeDegrees>
            </Position>
            <AltitudeMeters>127</AltitudeMeters>
            <DistanceMeters>NAN</DistanceMeters>
          </Trackpoint>
          <Trackpoint>
            <Time>2022-07-11T10:59:32.000Z</Time>
            <Position>
              <LatitudeDegrees>43.2905740477144718170166015625</LatitudeDegrees>
              <LongitudeDegrees>-2.642367146909236907958984375</LongitudeDegrees>
            </Position>
            <AltitudeMeters>126.40000152587890625</AltitudeMeters>
            <DistanceMeters>NAN</DistanceMeters>
          </Trackpoint>
          <Trackpoint>
            <Time>2022-07-11T10:59:34.000Z</Time>
            <Position>
              <LatitudeDegrees>43.29068829305469989776611328125</LatitudeDegrees>
              <LongitudeDegrees>-2.6423783786594867706298828125</LongitudeDegrees>
            </Position>
            <AltitudeMeters>126.1999969482421875</AltitudeMeters>
            <DistanceMeters>NAN</DistanceMeters>
          </Trackpoint>
          <Trackpoint>
            <Time>2022-07-11T10:59:37.000Z</Time>
            <Position>
              <LatitudeDegrees>43.29088074155151844024658203125</LatitudeDegrees>
              <LongitudeDegrees>-2.6424226351082324981689453125</LongitudeDegrees>
            </Position>
            <AltitudeMeters>125.59999847412109375</AltitudeMeters>
            <DistanceMeters>NAN</DistanceMeters>
          </Trackpoint>
          <Trackpoint>
            <Time>2022-07-11T10:59:38.000Z</Time>
            <Position>
              <LatitudeDegrees>43.29094025306403636932373046875</LatitudeDegrees>
              <LongitudeDegrees>-2.6424504630267620086669921875</LongitudeDegrees>
            </Position>
            <AltitudeMeters>125.40000152587890625</AltitudeMeters>
            <DistanceMeters>NAN</DistanceMeters>
          </Trackpoint>
          <Trackpoint>
            <Time>2022-07-11T10:59:40.000Z</Time>
            <Position>
              <LatitudeDegrees>43.291061706840991973876953125</LatitudeDegrees>
              <LongitudeDegrees>-2.64251743443310260772705078125</LongitudeDegrees>
            </Position>
            <AltitudeMeters>125</AltitudeMeters>
            <DistanceMeters>NAN</DistanceMeters>
          </Trackpoint>
          <Trackpoint>
            <Time>2022-07-11T10:59:43.000Z</Time>
            <Position>
              <LatitudeDegrees>43.29122842289507389068603515625</LatitudeDegrees>
              <LongitudeDegrees>-2.64264618046581745147705078125</LongitudeDegrees>
            </Position>
            <AltitudeMeters>123.8000030517578125</AltitudeMeters>
            <DistanceMeters>NAN</DistanceMeters>
          </Trackpoint>
          <Trackpoint>
            <Time>2022-07-11T10:59:44.000Z</Time>
            <Position>
              <LatitudeDegrees>43.2912717573344707489013671875</LatitudeDegrees>
              <LongitudeDegrees>-2.64270837418735027313232421875</LongitudeDegrees>
            </Position>
            <AltitudeMeters>123.59999847412109375</AltitudeMeters>
            <DistanceMeters>NAN</DistanceMeters>
          </Trackpoint>
          <Trackpoint>
            <Time>2022-07-11T10:59:45.000Z</Time>
            <Position>
              <LatitudeDegrees>43.29129849560558795928955078125</LatitudeDegrees>
              <LongitudeDegrees>-2.6427927799522876739501953125</LongitudeDegrees>
            </Position>
            <AltitudeMeters>123.40000152587890625</AltitudeMeters>
            <DistanceMeters>NAN</DistanceMeters>
          </Trackpoint>
          <Trackpoint>
            <Time>2022-07-11T10:59:47.000Z</Time>
            <Position>
              <LatitudeDegrees>43.29131626524031162261962890625</LatitudeDegrees>
              <LongitudeDegrees>-2.64297190122306346893310546875</LongitudeDegrees>
            </Position>
            <AltitudeMeters>122.8000030517578125</AltitudeMeters>
            <DistanceMeters>NAN</DistanceMeters>
          </Trackpoint>
          <Trackpoint>
            <Time>2022-07-11T10:59:50.000Z</Time>
            <Position>
              <LatitudeDegrees>43.2912650518119335174560546875</LatitudeDegrees>
              <LongitudeDegrees>-2.64324615709483623504638671875</LongitudeDegrees>
            </Position>
            <AltitudeMeters>121.8000030517578125</AltitudeMeters>
            <DistanceMeters>NAN</DistanceMeters>
          </Trackpoint>
          <Trackpoint>
            <Time>2022-07-11T10:59:51.000Z</Time>
            <Position>
              <LatitudeDegrees>43.29125440679490566253662109375</LatitudeDegrees>
              <LongitudeDegrees>-2.64334707520902156829833984375</LongitudeDegrees>
            </Position>
            <AltitudeMeters>121.59999847412109375</AltitudeMeters>
            <DistanceMeters>NAN</DistanceMeters>
          </Trackpoint>
          <Trackpoint>
            <Time>2022-07-11T10:59:53.000Z</Time>
            <Position>
              <LatitudeDegrees>43.29125490970909595489501953125</LatitudeDegrees>
              <LongitudeDegrees>-2.64354857616126537322998046875</LongitudeDegrees>
            </Position>
            <AltitudeMeters>121.1999969482421875</AltitudeMeters>
            <DistanceMeters>NAN</DistanceMeters>
          </Trackpoint>
          <Trackpoint>
            <Time>2022-07-11T10:59:55.000Z</Time>
            <Position>
              <LatitudeDegrees>43.29128910787403583526611328125</LatitudeDegrees>
              <LongitudeDegrees>-2.64374588616192340850830078125</LongitudeDegrees>
            </Position>
            <AltitudeMeters>120.59999847412109375</AltitudeMeters>
            <DistanceMeters>NAN</DistanceMeters>
          </Trackpoint>
          <Trackpoint>
            <Time>2022-07-11T10:59:58.000Z</Time>
            <Position>
              <LatitudeDegrees>43.291375525295734405517578125</LatitudeDegrees>
              <LongitudeDegrees>-2.64402869157493114471435546875</LongitudeDegrees>
            </Position>
            <AltitudeMeters>119.8000030517578125</AltitudeMeters>
            <DistanceMeters>NAN</DistanceMeters>
          </Trackpoint>
          <Trackpoint>
            <Time>2022-07-11T10:59:59.000Z</Time>
            <Position>
              <LatitudeDegrees>43.2913927920162677764892578125</LatitudeDegrees>
              <LongitudeDegrees>-2.64412743039429187774658203125</LongitudeDegrees>
            </Position>
            <AltitudeMeters>119.59999847412109375</AltitudeMeters>
            <DistanceMeters>NAN</DistanceMeters>
          </Trackpoint>
          <Trackpoint>
            <Time>2022-07-11T11:00:00.000Z</Time>
            <Position>
              <LatitudeDegrees>43.2914051972329616546630859375</LatitudeDegrees>
              <LongitudeDegrees>-2.6442304439842700958251953125</LongitudeDegrees>
            </Position>
            <AltitudeMeters>119.40000152587890625</AltitudeMeters>
            <DistanceMeters>NAN</DistanceMeters>
          </Trackpoint>
          <Trackpoint>
            <Time>2022-07-11T11:00:03.000Z</Time>
            <Position>
              <LatitudeDegrees>43.29142070375382900238037109375</LatitudeDegrees>
              <LongitudeDegrees>-2.644545771181583404541015625</LongitudeDegrees>
            </Position>
            <AltitudeMeters>118.40000152587890625</AltitudeMeters>
            <DistanceMeters>NAN</DistanceMeters>
          </Trackpoint>
          <Trackpoint>
            <Time>2022-07-11T11:00:06.000Z</Time>
            <Position>
              <LatitudeDegrees>43.29141466878354549407958984375</LatitudeDegrees>
              <LongitudeDegrees>-2.64488046057522296905517578125</LongitudeDegrees>
            </Position>
            <AltitudeMeters>117.59999847412109375</AltitudeMeters>
            <DistanceMeters>NAN</DistanceMeters>
          </Trackpoint>
          <Trackpoint>
            <Time>2022-07-11T11:00:07.000Z</Time>
            <Position>
              <LatitudeDegrees>43.29140025191009044647216796875</LatitudeDegrees>
              <LongitudeDegrees>-2.6449841447174549102783203125</LongitudeDegrees>
            </Position>
            <AltitudeMeters>117.40000152587890625</AltitudeMeters>
            <DistanceMeters>NAN</DistanceMeters>
          </Trackpoint>
          <Trackpoint>
            <Time>2022-07-11T11:00:08.000Z</Time>
            <Position>
              <LatitudeDegrees>43.29137854278087615966796875</LatitudeDegrees>
              <LongitudeDegrees>-2.6450884155929088592529296875</LongitudeDegrees>
            </Position>
            <AltitudeMeters>117.1999969482421875</AltitudeMeters>
            <DistanceMeters>NAN</DistanceMeters>
          </Trackpoint>
          <Trackpoint>
            <Time>2022-07-11T11:00:09.000Z</Time>
            <Position>
              <LatitudeDegrees>43.2913492061197757720947265625</LatitudeDegrees>
              <LongitudeDegrees>-2.645190842449665069580078125</LongitudeDegrees>
            </Position>
            <AltitudeMeters>116.8000030517578125</AltitudeMeters>
            <DistanceMeters>NAN</DistanceMeters>
          </Trackpoint>
          <Trackpoint>
            <Time>2022-07-11T11:00:10.000Z</Time>
            <Position>
              <LatitudeDegrees>43.29130821861326694488525390625</LatitudeDegrees>
              <LongitudeDegrees>-2.64528631232678890228271484375</LongitudeDegrees>
            </Position>
            <AltitudeMeters>116.8000030517578125</AltitudeMeters>
            <DistanceMeters>NAN</DistanceMeters>
          </Trackpoint>
          <Trackpoint>
            <Time>2022-07-11T11:00:11.000Z</Time>
            <Position>
              <LatitudeDegrees>43.291253149509429931640625</LatitudeDegrees>
              <LongitudeDegrees>-2.645373903214931488037109375</LongitudeDegrees>
            </Position>
            <AltitudeMeters>116.40000152587890625</AltitudeMeters>
            <DistanceMeters>NAN</DistanceMeters>
          </Trackpoint>
          <Trackpoint>
            <Time>2022-07-11T11:00:12.000Z</Time>
            <Position>
              <LatitudeDegrees>43.29119707457721233367919921875</LatitudeDegrees>
              <LongitudeDegrees>-2.64545529149472713470458984375</LongitudeDegrees>
            </Position>
            <AltitudeMeters>115.8000030517578125</AltitudeMeters>
            <DistanceMeters>NAN</DistanceMeters>
          </Trackpoint>
          <Trackpoint>
            <Time>2022-07-11T11:00:14.000Z</Time>
            <Position>
              <LatitudeDegrees>43.29107335768640041351318359375</LatitudeDegrees>
              <LongitudeDegrees>-2.645614631474018096923828125</LongitudeDegrees>
            </Position>
            <AltitudeMeters>115.40000152587890625</AltitudeMeters>
            <DistanceMeters>NAN</DistanceMeters>
          </Trackpoint>
          <Trackpoint>
            <Time>2022-07-11T11:00:15.000Z</Time>
            <Position>
              <LatitudeDegrees>43.29100797884166240692138671875</LatitudeDegrees>
              <LongitudeDegrees>-2.6457053236663341522216796875</LongitudeDegrees>
            </Position>
            <AltitudeMeters>115</AltitudeMeters>
            <DistanceMeters>NAN</DistanceMeters>
          </Trackpoint>
          <Trackpoint>
            <Time>2022-07-11T11:00:16.000Z</Time>
            <Position>
              <LatitudeDegrees>43.29094930551946163177490234375</LatitudeDegrees>
              <LongitudeDegrees>-2.64580213464796543121337890625</LongitudeDegrees>
            </Position>
            <AltitudeMeters>114.8000030517578125</AltitudeMeters>
            <DistanceMeters>NAN</DistanceMeters>
          </Trackpoint>
          <Trackpoint>
            <Time>2022-07-11T11:00:18.000Z</Time>
            <Position>
              <LatitudeDegrees>43.2908660732209682464599609375</LatitudeDegrees>
              <LongitudeDegrees>-2.6460017077624797821044921875</LongitudeDegrees>
            </Position>
            <AltitudeMeters>114.40000152587890625</AltitudeMeters>
            <DistanceMeters>NAN</DistanceMeters>
          </Trackpoint>
          <Trackpoint>
            <Time>2022-07-11T11:00:19.000Z</Time>
            <Position>
              <LatitudeDegrees>43.29082190059125423431396484375</LatitudeDegrees>
              <LongitudeDegrees>-2.64608846046030521392822265625</LongitudeDegrees>
            </Position>
            <AltitudeMeters>114.1999969482421875</AltitudeMeters>
            <DistanceMeters>NAN</DistanceMeters>
          </Trackpoint>
          <Trackpoint>
            <Time>2022-07-11T11:00:21.000Z</Time>
            <Position>
              <LatitudeDegrees>43.29070270992815494537353515625</LatitudeDegrees>
              <LongitudeDegrees>-2.64624017290771007537841796875</LongitudeDegrees>
            </Position>
            <AltitudeMeters>113.8000030517578125</AltitudeMeters>
            <DistanceMeters>NAN</DistanceMeters>
          </Trackpoint>
          <Trackpoint>
            <Time>2022-07-11T11:00:22.000Z</Time>
            <Position>
              <LatitudeDegrees>43.29063825309276580810546875</LatitudeDegrees>
              <LongitudeDegrees>-2.646313011646270751953125</LongitudeDegrees>
            </Position>
            <AltitudeMeters>113.59999847412109375</AltitudeMeters>
            <DistanceMeters>NAN</DistanceMeters>
          </Trackpoint>
          <Trackpoint>
            <Time>2022-07-11T11:00:27.000Z</Time>
            <Position>
              <LatitudeDegrees>43.2903611473739147186279296875</LatitudeDegrees>
              <LongitudeDegrees>-2.64668173156678676605224609375</LongitudeDegrees>
            </Position>
            <AltitudeMeters>112.8000030517578125</AltitudeMeters>
            <DistanceMeters>NAN</DistanceMeters>
          </Trackpoint>
          <Trackpoint>
            <Time>2022-07-11T11:00:28.000Z</Time>
            <Position>
              <LatitudeDegrees>43.2903611473739147186279296875</LatitudeDegrees>
              <LongitudeDegrees>-2.64668173156678676605224609375</LongitudeDegrees>
            </Position>
            <AltitudeMeters>112.59999847412109375</AltitudeMeters>
            <DistanceMeters>NAN</DistanceMeters>
          </Trackpoint>
          <Trackpoint>
            <Time>2022-07-11T11:00:29.000Z</Time>
            <Position>
              <LatitudeDegrees>43.29033172689378261566162109375</LatitudeDegrees>
              <LongitudeDegrees>-2.64685741625726222991943359375</LongitudeDegrees>
            </Position>
            <AltitudeMeters>112.40000152587890625</AltitudeMeters>
            <DistanceMeters>NAN</DistanceMeters>
          </Trackpoint>
          <Trackpoint>
            <Time>2022-07-11T11:00:30.000Z</Time>
            <Position>
              <LatitudeDegrees>43.2903460599482059478759765625</LatitudeDegrees>
              <LongitudeDegrees>-2.64693721197545528411865234375</LongitudeDegrees>
            </Position>
            <AltitudeMeters>112.1999969482421875</AltitudeMeters>
            <DistanceMeters>NAN</DistanceMeters>
          </Trackpoint>
          <Trackpoint>
            <Time>2022-07-11T11:00:31.000Z</Time>
            <Position>
              <LatitudeDegrees>43.29037933610379695892333984375</LatitudeDegrees>
              <LongitudeDegrees>-2.64699672348797321319580078125</LongitudeDegrees>
            </Position>
            <AltitudeMeters>112.1999969482421875</AltitudeMeters>
            <DistanceMeters>NAN</DistanceMeters>
          </Trackpoint>
          <Trackpoint>
            <Time>2022-07-11T11:00:32.000Z</Time>
            <Position>
              <LatitudeDegrees>43.290419317781925201416015625</LatitudeDegrees>
              <LongitudeDegrees>-2.6470333524048328399658203125</LongitudeDegrees>
            </Position>
            <AltitudeMeters>112</AltitudeMeters>
            <DistanceMeters>NAN</DistanceMeters>
          </Trackpoint>
          <Trackpoint>
            <Time>2022-07-11T11:00:33.000Z</Time>
            <Position>
              <LatitudeDegrees>43.29046927392482757568359375</LatitudeDegrees>
              <LongitudeDegrees>-2.64703745953738689422607421875</LongitudeDegrees>
            </Position>
            <AltitudeMeters>112</AltitudeMeters>
            <DistanceMeters>NAN</DistanceMeters>
          </Trackpoint>
          <Trackpoint>
            <Time>2022-07-11T11:00:35.000Z</Time>
            <Position>
              <LatitudeDegrees>43.29058586619794368743896484375</LatitudeDegrees>
              <LongitudeDegrees>-2.64698884449899196624755859375</LongitudeDegrees>
            </Position>
            <AltitudeMeters>112</AltitudeMeters>
            <DistanceMeters>NAN</DistanceMeters>
          </Trackpoint>
          <Trackpoint>
            <Time>2022-07-11T11:00:40.000Z</Time>
            <Position>
              <LatitudeDegrees>43.2908017002046108245849609375</LatitudeDegrees>
              <LongitudeDegrees>-2.64687702991068363189697265625</LongitudeDegrees>
            </Position>
            <AltitudeMeters>112.1999969482421875</AltitudeMeters>
            <DistanceMeters>NAN</DistanceMeters>
          </Trackpoint>
          <Trackpoint>
            <Time>2022-07-11T11:00:41.000Z</Time>
            <Position>
              <LatitudeDegrees>43.2908426038920879364013671875</LatitudeDegrees>
              <LongitudeDegrees>-2.64685607515275478363037109375</LongitudeDegrees>
            </Position>
            <AltitudeMeters>112.1999969482421875</AltitudeMeters>
            <DistanceMeters>NAN</DistanceMeters>
          </Trackpoint>
          <Trackpoint>
            <Time>2022-07-11T11:00:44.000Z</Time>
            <Position>
              <LatitudeDegrees>43.29092483036220073699951171875</LatitudeDegrees>
              <LongitudeDegrees>-2.6468137465417385101318359375</LongitudeDegrees>
            </Position>
            <AltitudeMeters>112.40000152587890625</AltitudeMeters>
            <DistanceMeters>NAN</DistanceMeters>
          </Trackpoint>
          <Trackpoint>
            <Time>2022-07-11T11:00:46.000Z</Time>
            <Position>
              <LatitudeDegrees>43.29098987393081188201904296875</LatitudeDegrees>
              <LongitudeDegrees>-2.64679555781185626983642578125</LongitudeDegrees>
            </Position>
            <AltitudeMeters>112.59999847412109375</AltitudeMeters>
            <DistanceMeters>NAN</DistanceMeters>
          </Trackpoint>
          <Trackpoint>
            <Time>2022-07-11T11:00:51.000Z</Time>
            <Position>
              <LatitudeDegrees>43.2911487109959125518798828125</LatitudeDegrees>
              <LongitudeDegrees>-2.646761946380138397216796875</LongitudeDegrees>
            </Position>
            <AltitudeMeters>112.8000030517578125</AltitudeMeters>
            <DistanceMeters>NAN</DistanceMeters>
          </Trackpoint>
          <Trackpoint>
            <Time>2022-07-11T11:00:55.000Z</Time>
            <Position>
              <LatitudeDegrees>43.2912616990506649017333984375</LatitudeDegrees>
              <LongitudeDegrees>-2.64673939906060695648193359375</LongitudeDegrees>
            </Position>
            <AltitudeMeters>113</AltitudeMeters>
            <DistanceMeters>NAN</DistanceMeters>
          </Trackpoint>
          <Trackpoint>
            <Time>2022-07-11T11:00:58.000Z</Time>
            <Position>
              <LatitudeDegrees>43.2913364656269550323486328125</LatitudeDegrees>
              <LongitudeDegrees>-2.64671592973172664642333984375</LongitudeDegrees>
            </Position>
            <AltitudeMeters>113.40000152587890625</AltitudeMeters>
            <DistanceMeters>NAN</DistanceMeters>
          </Trackpoint>
          <Trackpoint>
            <Time>2022-07-11T11:01:00.000Z</Time>
            <Position>
              <LatitudeDegrees>43.29138717614114284515380859375</LatitudeDegrees>
              <LongitudeDegrees>-2.6467084698379039764404296875</LongitudeDegrees>
            </Position>
            <AltitudeMeters>113.40000152587890625</AltitudeMeters>
            <DistanceMeters>NAN</DistanceMeters>
          </Trackpoint>
          <Trackpoint>
            <Time>2022-07-11T11:01:03.000Z</Time>
            <Position>
              <LatitudeDegrees>43.29146345146000385284423828125</LatitudeDegrees>
              <LongitudeDegrees>-2.64668357558548450469970703125</LongitudeDegrees>
            </Position>
            <AltitudeMeters>113.40000152587890625</AltitudeMeters>
            <DistanceMeters>NAN</DistanceMeters>
          </Trackpoint>
          <Trackpoint>
            <Time>2022-07-11T11:01:05.000Z</Time>
            <Position>
              <LatitudeDegrees>43.29150217585265636444091796875</LatitudeDegrees>
              <LongitudeDegrees>-2.64667703770101070404052734375</LongitudeDegrees>
            </Position>
            <AltitudeMeters>113.59999847412109375</AltitudeMeters>
            <DistanceMeters>NAN</DistanceMeters>
          </Trackpoint>
          <Trackpoint>
            <Time>2022-07-11T11:01:06.000Z</Time>
            <Position>
              <LatitudeDegrees>43.29152329824864864349365234375</LatitudeDegrees>
              <LongitudeDegrees>-2.64667217619717121124267578125</LongitudeDegrees>
            </Position>
            <AltitudeMeters>113.8000030517578125</AltitudeMeters>
            <DistanceMeters>NAN</DistanceMeters>
          </Trackpoint>
          <Trackpoint>
            <Time>2022-07-11T11:01:07.000Z</Time>
            <Position>
              <LatitudeDegrees>43.2915463484823703765869140625</LatitudeDegrees>
              <LongitudeDegrees>-2.64666882343590259552001953125</LongitudeDegrees>
            </Position>
            <AltitudeMeters>113.8000030517578125</AltitudeMeters>
            <DistanceMeters>NAN</DistanceMeters>
          </Trackpoint>
          <Trackpoint>
            <Time>2022-07-11T11:01:08.000Z</Time>
            <Position>
              <LatitudeDegrees>43.29157434403896331787109375</LatitudeDegrees>
              <LongitudeDegrees>-2.64666781760752201080322265625</LongitudeDegrees>
            </Position>
            <AltitudeMeters>113.8000030517578125</AltitudeMeters>
            <DistanceMeters>NAN</DistanceMeters>
          </Trackpoint>
          <Trackpoint>
            <Time>2022-07-11T11:01:09.000Z</Time>
            <Position>
              <LatitudeDegrees>43.291594795882701873779296875</LatitudeDegrees>
              <LongitudeDegrees>-2.64666832052171230316162109375</LongitudeDegrees>
            </Position>
            <AltitudeMeters>113.8000030517578125</AltitudeMeters>
            <DistanceMeters>NAN</DistanceMeters>
          </Trackpoint>
          <Trackpoint>
            <Time>2022-07-11T11:01:11.000Z</Time>
            <Position>
              <LatitudeDegrees>43.2916392199695110321044921875</LatitudeDegrees>
              <LongitudeDegrees>-2.64665893279016017913818359375</LongitudeDegrees>
            </Position>
            <AltitudeMeters>114</AltitudeMeters>
            <DistanceMeters>NAN</DistanceMeters>
          </Trackpoint>
          <Trackpoint>
            <Time>2022-07-11T11:01:12.000Z</Time>
            <Position>
              <LatitudeDegrees>43.2916606776416301727294921875</LatitudeDegrees>
              <LongitudeDegrees>-2.6466541551053524017333984375</LongitudeDegrees>
            </Position>
            <AltitudeMeters>114</AltitudeMeters>
            <DistanceMeters>NAN</DistanceMeters>
          </Trackpoint>
          <Trackpoint>
            <Time>2022-07-11T11:01:16.000Z</Time>
            <Position>
              <LatitudeDegrees>43.29174340702593326568603515625</LatitudeDegrees>
              <LongitudeDegrees>-2.64664501883089542388916015625</LongitudeDegrees>
            </Position>
            <AltitudeMeters>114.1999969482421875</AltitudeMeters>
            <DistanceMeters>NAN</DistanceMeters>
          </Trackpoint>
          <Trackpoint>
            <Time>2022-07-11T11:01:21.000Z</Time>
            <Position>
              <LatitudeDegrees>43.29182705841958522796630859375</LatitudeDegrees>
              <LongitudeDegrees>-2.646635212004184722900390625</LongitudeDegrees>
            </Position>
            <AltitudeMeters>114.59999847412109375</AltitudeMeters>
            <DistanceMeters>NAN</DistanceMeters>
          </Trackpoint>
          <Trackpoint>
            <Time>2022-07-11T11:01:22.000Z</Time>
            <Position>
              <LatitudeDegrees>43.29184415750205516815185546875</LatitudeDegrees>
              <LongitudeDegrees>-2.64663697220385074615478515625</LongitudeDegrees>
            </Position>
            <AltitudeMeters>114.8000030517578125</AltitudeMeters>
            <DistanceMeters>NAN</DistanceMeters>
          </Trackpoint>
          <Trackpoint>
            <Time>2022-07-11T11:01:26.000Z</Time>
            <Position>
              <LatitudeDegrees>43.291916660964488983154296875</LatitudeDegrees>
              <LongitudeDegrees>-2.6466283388435840606689453125</LongitudeDegrees>
            </Position>
            <AltitudeMeters>115</AltitudeMeters>
            <DistanceMeters>NAN</DistanceMeters>
          </Trackpoint>
          <Trackpoint>
            <Time>2022-07-11T11:01:30.000Z</Time>
            <Position>
              <LatitudeDegrees>43.2919708080589771270751953125</LatitudeDegrees>
              <LongitudeDegrees>-2.6466182805597782135009765625</LongitudeDegrees>
            </Position>
            <AltitudeMeters>115.1999969482421875</AltitudeMeters>
            <DistanceMeters>NAN</DistanceMeters>
          </Trackpoint>
          <Trackpoint>
            <Time>2022-07-11T11:01:31.000Z</Time>
            <Position>
              <LatitudeDegrees>43.29198128543794155120849609375</LatitudeDegrees>
              <LongitudeDegrees>-2.6466189511120319366455078125</LongitudeDegrees>
            </Position>
            <AltitudeMeters>115.1999969482421875</AltitudeMeters>
            <DistanceMeters>NAN</DistanceMeters>
          </Trackpoint>
          <Trackpoint>
            <Time>2022-07-11T11:01:37.000Z</Time>
            <Position>
              <LatitudeDegrees>43.29206912778317928314208984375</LatitudeDegrees>
              <LongitudeDegrees>-2.64660730026662349700927734375</LongitudeDegrees>
            </Position>
            <AltitudeMeters>115.59999847412109375</AltitudeMeters>
            <DistanceMeters>NAN</DistanceMeters>
          </Trackpoint>
          <Trackpoint>
            <Time>2022-07-11T11:01:39.000Z</Time>
            <Position>
              <LatitudeDegrees>43.29209226183593273162841796875</LatitudeDegrees>
              <LongitudeDegrees>-2.646596319973468780517578125</LongitudeDegrees>
            </Position>
            <AltitudeMeters>115.59999847412109375</AltitudeMeters>
            <DistanceMeters>NAN</DistanceMeters>
          </Trackpoint>
          <Trackpoint>
            <Time>2022-07-11T11:01:44.000Z</Time>
            <Position>
              <LatitudeDegrees>43.2921719737350940704345703125</LatitudeDegrees>
              <LongitudeDegrees>-2.6465718448162078857421875</LongitudeDegrees>
            </Position>
            <AltitudeMeters>116</AltitudeMeters>
            <DistanceMeters>NAN</DistanceMeters>
          </Trackpoint>
          <Trackpoint>
            <Time>2022-07-11T11:01:51.000Z</Time>
            <Position>
              <LatitudeDegrees>43.2923362590372562408447265625</LatitudeDegrees>
              <LongitudeDegrees>-2.64651560224592685699462890625</LongitudeDegrees>
            </Position>
            <AltitudeMeters>116.40000152587890625</AltitudeMeters>
            <DistanceMeters>NAN</DistanceMeters>
          </Trackpoint>
          <Trackpoint>
            <Time>2022-07-11T11:01:54.000Z</Time>
            <Position>
              <LatitudeDegrees>43.29241655766963958740234375</LatitudeDegrees>
              <LongitudeDegrees>-2.6464680768549442291259765625</LongitudeDegrees>
            </Position>
            <AltitudeMeters>116.8000030517578125</AltitudeMeters>
            <DistanceMeters>NAN</DistanceMeters>
          </Trackpoint>
          <Trackpoint>
            <Time>2022-07-11T11:01:55.000Z</Time>
            <Position>
              <LatitudeDegrees>43.29243625514209270477294921875</LatitudeDegrees>
              <LongitudeDegrees>-2.6464640535414218902587890625</LongitudeDegrees>
            </Position>
            <AltitudeMeters>116.8000030517578125</AltitudeMeters>
            <DistanceMeters>NAN</DistanceMeters>
          </Trackpoint>
          <Trackpoint>
            <Time>2022-07-11T11:01:58.000Z</Time>
            <Position>
              <LatitudeDegrees>43.292523510754108428955078125</LatitudeDegrees>
              <LongitudeDegrees>-2.64645005576312541961669921875</LongitudeDegrees>
            </Position>
            <AltitudeMeters>117</AltitudeMeters>
            <DistanceMeters>NAN</DistanceMeters>
          </Trackpoint>
          <Trackpoint>
            <Time>2022-07-11T11:02:04.000Z</Time>
            <Position>
              <LatitudeDegrees>43.292706906795501708984375</LatitudeDegrees>
              <LongitudeDegrees>-2.64643966220319271087646484375</LongitudeDegrees>
            </Position>
            <AltitudeMeters>117.8000030517578125</AltitudeMeters>
            <DistanceMeters>NAN</DistanceMeters>
          </Trackpoint>
          <Trackpoint>
            <Time>2022-07-11T11:02:07.000Z</Time>
            <Position>
              <LatitudeDegrees>43.29278142191469669342041015625</LatitudeDegrees>
              <LongitudeDegrees>-2.646441422402858734130859375</LongitudeDegrees>
            </Position>
            <AltitudeMeters>118</AltitudeMeters>
            <DistanceMeters>NAN</DistanceMeters>
          </Trackpoint>
          <Trackpoint>
            <Time>2022-07-11T11:02:16.000Z</Time>
            <Position>
              <LatitudeDegrees>43.29298476688563823699951171875</LatitudeDegrees>
              <LongitudeDegrees>-2.64647453092038631439208984375</LongitudeDegrees>
            </Position>
            <AltitudeMeters>118.59999847412109375</AltitudeMeters>
            <DistanceMeters>NAN</DistanceMeters>
          </Trackpoint>
          <Trackpoint>
            <Time>2022-07-11T11:02:18.000Z</Time>
            <Position>
              <LatitudeDegrees>43.29303505830466747283935546875</LatitudeDegrees>
              <LongitudeDegrees>-2.646482996642589569091796875</LongitudeDegrees>
            </Position>
            <AltitudeMeters>118.59999847412109375</AltitudeMeters>
            <DistanceMeters>NAN</DistanceMeters>
          </Trackpoint>
          <Trackpoint>
            <Time>2022-07-11T11:02:20.000Z</Time>
            <Position>
              <LatitudeDegrees>43.29308937303721904754638671875</LatitudeDegrees>
              <LongitudeDegrees>-2.646481990814208984375</LongitudeDegrees>
            </Position>
            <AltitudeMeters>118.8000030517578125</AltitudeMeters>
            <DistanceMeters>NAN</DistanceMeters>
          </Trackpoint>
          <Trackpoint>
            <Time>2022-07-11T11:02:24.000Z</Time>
            <Position>
              <LatitudeDegrees>43.2931922189891338348388671875</LatitudeDegrees>
              <LongitudeDegrees>-2.6464871875941753387451171875</LongitudeDegrees>
            </Position>
            <AltitudeMeters>119</AltitudeMeters>
            <DistanceMeters>NAN</DistanceMeters>
          </Trackpoint>
          <Trackpoint>
            <Time>2022-07-11T11:02:33.000Z</Time>
            <Position>
              <LatitudeDegrees>43.29341492615640163421630859375</LatitudeDegrees>
              <LongitudeDegrees>-2.64654242433607578277587890625</LongitudeDegrees>
            </Position>
            <AltitudeMeters>119.59999847412109375</AltitudeMeters>
            <DistanceMeters>NAN</DistanceMeters>
          </Trackpoint>
          <Trackpoint>
            <Time>2022-07-11T11:02:39.000Z</Time>
            <Position>
              <LatitudeDegrees>43.29357124865055084228515625</LatitudeDegrees>
              <LongitudeDegrees>-2.646592967212200164794921875</LongitudeDegrees>
            </Position>
            <AltitudeMeters>119.8000030517578125</AltitudeMeters>
            <DistanceMeters>NAN</DistanceMeters>
          </Trackpoint>
          <Trackpoint>
            <Time>2022-07-11T11:02:40.000Z</Time>
            <Position>
              <LatitudeDegrees>43.29360351897776126861572265625</LatitudeDegrees>
              <LongitudeDegrees>-2.64659942127764225006103515625</LongitudeDegrees>
            </Position>
            <AltitudeMeters>119.8000030517578125</AltitudeMeters>
            <DistanceMeters>NAN</DistanceMeters>
          </Trackpoint>
          <Trackpoint>
            <Time>2022-07-11T11:02:48.000Z</Time>
            <Position>
              <LatitudeDegrees>43.2938218675553798675537109375</LatitudeDegrees>
              <LongitudeDegrees>-2.6466725952923297882080078125</LongitudeDegrees>
            </Position>
            <AltitudeMeters>120.1999969482421875</AltitudeMeters>
            <DistanceMeters>NAN</DistanceMeters>
          </Trackpoint>
          <Trackpoint>
            <Time>2022-07-11T11:02:56.000Z</Time>
            <Position>
              <LatitudeDegrees>43.29402563162147998809814453125</LatitudeDegrees>
              <LongitudeDegrees>-2.6468093879520893096923828125</LongitudeDegrees>
            </Position>
            <AltitudeMeters>120.40000152587890625</AltitudeMeters>
            <DistanceMeters>NAN</DistanceMeters>
          </Trackpoint>
          <Trackpoint>
            <Time>2022-07-11T11:03:04.000Z</Time>
            <Position>
              <LatitudeDegrees>43.29426870681345462799072265625</LatitudeDegrees>
              <LongitudeDegrees>-2.64686244539916515350341796875</LongitudeDegrees>
            </Position>
            <AltitudeMeters>120.40000152587890625</AltitudeMeters>
            <DistanceMeters>NAN</DistanceMeters>
          </Trackpoint>
          <Trackpoint>
            <Time>2022-07-11T11:03:09.000Z</Time>
            <Position>
              <LatitudeDegrees>43.29444103874266147613525390625</LatitudeDegrees>
              <LongitudeDegrees>-2.64686931855976581573486328125</LongitudeDegrees>
            </Position>
            <AltitudeMeters>121</AltitudeMeters>
            <DistanceMeters>NAN</DistanceMeters>
          </Trackpoint>
          <Trackpoint>
            <Time>2022-07-11T11:03:11.000Z</Time>
            <Position>
              <LatitudeDegrees>43.2945031486451625823974609375</LatitudeDegrees>
              <LongitudeDegrees>-2.64687828719615936279296875</LongitudeDegrees>
            </Position>
            <AltitudeMeters>121</AltitudeMeters>
            <DistanceMeters>NAN</DistanceMeters>
          </Trackpoint>
          <Trackpoint>
            <Time>2022-07-11T11:03:16.000Z</Time>
            <Position>
              <LatitudeDegrees>43.2946221716701984405517578125</LatitudeDegrees>
              <LongitudeDegrees>-2.6469686441123485565185546875</LongitudeDegrees>
            </Position>
            <AltitudeMeters>121.40000152587890625</AltitudeMeters>
            <DistanceMeters>NAN</DistanceMeters>
          </Trackpoint>
          <Trackpoint>
            <Time>2022-07-11T11:03:17.000Z</Time>
            <Position>
              <LatitudeDegrees>43.2946421205997467041015625</LatitudeDegrees>
              <LongitudeDegrees>-2.64699152670800685882568359375</LongitudeDegrees>
            </Position>
            <AltitudeMeters>121.59999847412109375</AltitudeMeters>
            <DistanceMeters>NAN</DistanceMeters>
          </Trackpoint>
          <Trackpoint>
            <Time>2022-07-11T11:03:21.000Z</Time>
            <Position>
              <LatitudeDegrees>43.29469970427453517913818359375</LatitudeDegrees>
              <LongitudeDegrees>-2.64709361828863620758056640625</LongitudeDegrees>
            </Position>
            <AltitudeMeters>121.8000030517578125</AltitudeMeters>
            <DistanceMeters>NAN</DistanceMeters>
          </Trackpoint>
          <Trackpoint>
            <Time>2022-07-11T11:03:25.000Z</Time>
            <Position>
              <LatitudeDegrees>43.29473407007753849029541015625</LatitudeDegrees>
              <LongitudeDegrees>-2.64721892774105072021484375</LongitudeDegrees>
            </Position>
            <AltitudeMeters>121.8000030517578125</AltitudeMeters>
            <DistanceMeters>NAN</DistanceMeters>
          </Trackpoint>
          <Trackpoint>
            <Time>2022-07-11T11:03:30.000Z</Time>
            <Position>
              <LatitudeDegrees>43.29476240091025829315185546875</LatitudeDegrees>
              <LongitudeDegrees>-2.6474202610552310943603515625</LongitudeDegrees>
            </Position>
            <AltitudeMeters>121.59999847412109375</AltitudeMeters>
            <DistanceMeters>NAN</DistanceMeters>
          </Trackpoint>
          <Trackpoint>
            <Time>2022-07-11T11:03:36.000Z</Time>
            <Position>
              <LatitudeDegrees>43.294812105596065521240234375</LatitudeDegrees>
              <LongitudeDegrees>-2.64785368926823139190673828125</LongitudeDegrees>
            </Position>
            <AltitudeMeters>121.1999969482421875</AltitudeMeters>
            <DistanceMeters>NAN</DistanceMeters>
          </Trackpoint>
          <Trackpoint>
            <Time>2022-07-11T11:03:40.000Z</Time>
            <Position>
              <LatitudeDegrees>43.294808082282543182373046875</LatitudeDegrees>
              <LongitudeDegrees>-2.6481489837169647216796875</LongitudeDegrees>
            </Position>
            <AltitudeMeters>120.8000030517578125</AltitudeMeters>
            <DistanceMeters>NAN</DistanceMeters>
          </Trackpoint>
          <Trackpoint>
            <Time>2022-07-11T11:03:42.000Z</Time>
            <Position>
              <LatitudeDegrees>43.294802047312259674072265625</LatitudeDegrees>
              <LongitudeDegrees>-2.64828569255769252777099609375</LongitudeDegrees>
            </Position>
            <AltitudeMeters>120.59999847412109375</AltitudeMeters>
            <DistanceMeters>NAN</DistanceMeters>
          </Trackpoint>
          <Trackpoint>
            <Time>2022-07-11T11:03:50.000Z</Time>
            <Position>
              <LatitudeDegrees>43.29475334845483303070068359375</LatitudeDegrees>
              <LongitudeDegrees>-2.6488222181797027587890625</LongitudeDegrees>
            </Position>
            <AltitudeMeters>120.1999969482421875</AltitudeMeters>
            <DistanceMeters>NAN</DistanceMeters>
          </Trackpoint>
          <Trackpoint>
            <Time>2022-07-11T11:03:52.000Z</Time>
            <Position>
              <LatitudeDegrees>43.29473205842077732086181640625</LatitudeDegrees>
              <LongitudeDegrees>-2.6489450968801975250244140625</LongitudeDegrees>
            </Position>
            <AltitudeMeters>120</AltitudeMeters>
            <DistanceMeters>NAN</DistanceMeters>
          </Trackpoint>
          <Trackpoint>
            <Time>2022-07-11T11:03:54.000Z</Time>
            <Position>
              <LatitudeDegrees>43.294704146683216094970703125</LatitudeDegrees>
              <LongitudeDegrees>-2.64905649237334728240966796875</LongitudeDegrees>
            </Position>
            <AltitudeMeters>119.8000030517578125</AltitudeMeters>
            <DistanceMeters>NAN</DistanceMeters>
          </Trackpoint>
          <Trackpoint>
            <Time>2022-07-11T11:03:55.000Z</Time>
            <Position>
              <LatitudeDegrees>43.2946848683059215545654296875</LatitudeDegrees>
              <LongitudeDegrees>-2.64910996891558170318603515625</LongitudeDegrees>
            </Position>
            <AltitudeMeters>120</AltitudeMeters>
            <DistanceMeters>NAN</DistanceMeters>
          </Trackpoint>
          <Trackpoint>
            <Time>2022-07-11T11:03:57.000Z</Time>
            <Position>
              <LatitudeDegrees>43.29464949667453765869140625</LatitudeDegrees>
              <LongitudeDegrees>-2.64921407215297222137451171875</LongitudeDegrees>
            </Position>
            <AltitudeMeters>119.8000030517578125</AltitudeMeters>
            <DistanceMeters>NAN</DistanceMeters>
          </Trackpoint>
          <Trackpoint>
            <Time>2022-07-11T11:03:59.000Z</Time>
            <Position>
              <LatitudeDegrees>43.2946300506591796875</LatitudeDegrees>
              <LongitudeDegrees>-2.64932102523744106292724609375</LongitudeDegrees>
            </Position>
            <AltitudeMeters>119.8000030517578125</AltitudeMeters>
            <DistanceMeters>NAN</DistanceMeters>
          </Trackpoint>
          <Trackpoint>
            <Time>2022-07-11T11:04:00.000Z</Time>
            <Position>
              <LatitudeDegrees>43.29462795518338680267333984375</LatitudeDegrees>
              <LongitudeDegrees>-2.64936494641005992889404296875</LongitudeDegrees>
            </Position>
            <AltitudeMeters>120</AltitudeMeters>
            <DistanceMeters>NAN</DistanceMeters>
          </Trackpoint>
          <Trackpoint>
            <Time>2022-07-11T11:04:04.000Z</Time>
            <Position>
              <LatitudeDegrees>43.29468327574431896209716796875</LatitudeDegrees>
              <LongitudeDegrees>-2.64951146207749843597412109375</LongitudeDegrees>
            </Position>
            <AltitudeMeters>120.1999969482421875</AltitudeMeters>
            <DistanceMeters>NAN</DistanceMeters>
          </Trackpoint>
          <Trackpoint>
            <Time>2022-07-11T11:04:09.000Z</Time>
            <Position>
              <LatitudeDegrees>43.29479835927486419677734375</LatitudeDegrees>
              <LongitudeDegrees>-2.6496027410030364990234375</LongitudeDegrees>
            </Position>
            <AltitudeMeters>120.59999847412109375</AltitudeMeters>
            <DistanceMeters>NAN</DistanceMeters>
          </Trackpoint>
          <Trackpoint>
            <Time>2022-07-11T11:04:12.000Z</Time>
            <Position>
              <LatitudeDegrees>43.2948593795299530029296875</LatitudeDegrees>
              <LongitudeDegrees>-2.649607770144939422607421875</LongitudeDegrees>
            </Position>
            <AltitudeMeters>121</AltitudeMeters>
            <DistanceMeters>NAN</DistanceMeters>
          </Trackpoint>
          <Trackpoint>
            <Time>2022-07-11T11:04:15.000Z</Time>
            <Position>
              <LatitudeDegrees>43.2949048094451427459716796875</LatitudeDegrees>
              <LongitudeDegrees>-2.64961279928684234619140625</LongitudeDegrees>
            </Position>
            <AltitudeMeters>121.40000152587890625</AltitudeMeters>
            <DistanceMeters>NAN</DistanceMeters>
          </Trackpoint>
          <Trackpoint>
            <Time>2022-07-11T11:04:23.000Z</Time>
            <Position>
              <LatitudeDegrees>43.2950955815613269805908203125</LatitudeDegrees>
              <LongitudeDegrees>-2.6495559699833393096923828125</LongitudeDegrees>
            </Position>
            <AltitudeMeters>122</AltitudeMeters>
            <DistanceMeters>NAN</DistanceMeters>
          </Trackpoint>
          <Trackpoint>
            <Time>2022-07-11T11:04:29.000Z</Time>
            <Position>
              <LatitudeDegrees>43.29519842751324176788330078125</LatitudeDegrees>
              <LongitudeDegrees>-2.64941808767616748809814453125</LongitudeDegrees>
            </Position>
            <AltitudeMeters>122.59999847412109375</AltitudeMeters>
            <DistanceMeters>NAN</DistanceMeters>
          </Trackpoint>
          <Trackpoint>
            <Time>2022-07-11T11:04:35.000Z</Time>
            <Position>
              <LatitudeDegrees>43.29526414163410663604736328125</LatitudeDegrees>
              <LongitudeDegrees>-2.64924910850822925567626953125</LongitudeDegrees>
            </Position>
            <AltitudeMeters>122.8000030517578125</AltitudeMeters>
            <DistanceMeters>NAN</DistanceMeters>
          </Trackpoint>
          <Trackpoint>
            <Time>2022-07-11T11:04:37.000Z</Time>
            <Position>
              <LatitudeDegrees>43.2952840067446231842041015625</LatitudeDegrees>
              <LongitudeDegrees>-2.64920501969754695892333984375</LongitudeDegrees>
            </Position>
            <AltitudeMeters>123</AltitudeMeters>
            <DistanceMeters>NAN</DistanceMeters>
          </Trackpoint>
          <Trackpoint>
            <Time>2022-07-11T11:04:38.000Z</Time>
            <Position>
              <LatitudeDegrees>43.2952913828194141387939453125</LatitudeDegrees>
              <LongitudeDegrees>-2.64918892644345760345458984375</LongitudeDegrees>
            </Position>
            <AltitudeMeters>123</AltitudeMeters>
            <DistanceMeters>NAN</DistanceMeters>
          </Trackpoint>
          <Trackpoint>
            <Time>2022-07-11T11:04:43.000Z</Time>
            <Position>
              <LatitudeDegrees>43.2953480444848537445068359375</LatitudeDegrees>
              <LongitudeDegrees>-2.64908574521541595458984375</LongitudeDegrees>
            </Position>
            <AltitudeMeters>123.59999847412109375</AltitudeMeters>
            <DistanceMeters>NAN</DistanceMeters>
          </Trackpoint>
          <Trackpoint>
            <Time>2022-07-11T11:04:50.000Z</Time>
            <Position>
              <LatitudeDegrees>43.29542306251823902130126953125</LatitudeDegrees>
              <LongitudeDegrees>-2.64893420040607452392578125</LongitudeDegrees>
            </Position>
            <AltitudeMeters>124</AltitudeMeters>
            <DistanceMeters>NAN</DistanceMeters>
          </Trackpoint>
          <Trackpoint>
            <Time>2022-07-11T11:04:51.000Z</Time>
            <Position>
              <LatitudeDegrees>43.29543395899236202239990234375</LatitudeDegrees>
              <LongitudeDegrees>-2.6489179395139217376708984375</LongitudeDegrees>
            </Position>
            <AltitudeMeters>124</AltitudeMeters>
            <DistanceMeters>NAN</DistanceMeters>
          </Trackpoint>
          <Trackpoint>
            <Time>2022-07-11T11:04:56.000Z</Time>
            <Position>
              <LatitudeDegrees>43.2954848371446132659912109375</LatitudeDegrees>
              <LongitudeDegrees>-2.648841999471187591552734375</LongitudeDegrees>
            </Position>
            <AltitudeMeters>124.40000152587890625</AltitudeMeters>
            <DistanceMeters>NAN</DistanceMeters>
          </Trackpoint>
          <Trackpoint>
            <Time>2022-07-11T11:05:01.000Z</Time>
            <Position>
              <LatitudeDegrees>43.29557259567081928253173828125</LatitudeDegrees>
              <LongitudeDegrees>-2.6487774588167667388916015625</LongitudeDegrees>
            </Position>
            <AltitudeMeters>124.8000030517578125</AltitudeMeters>
            <DistanceMeters>NAN</DistanceMeters>
          </Trackpoint>
          <Trackpoint>
            <Time>2022-07-11T11:05:03.000Z</Time>
            <Position>
              <LatitudeDegrees>43.2956085540354251861572265625</LatitudeDegrees>
              <LongitudeDegrees>-2.64875776134431362152099609375</LongitudeDegrees>
            </Position>
            <AltitudeMeters>124.8000030517578125</AltitudeMeters>
            <DistanceMeters>NAN</DistanceMeters>
          </Trackpoint>
          <Trackpoint>
            <Time>2022-07-11T11:05:06.000Z</Time>
            <Position>
              <LatitudeDegrees>43.29565959982573986053466796875</LatitudeDegrees>
              <LongitudeDegrees>-2.64874334447085857391357421875</LongitudeDegrees>
            </Position>
            <AltitudeMeters>125.1999969482421875</AltitudeMeters>
            <DistanceMeters>NAN</DistanceMeters>
          </Trackpoint>
          <Trackpoint>
            <Time>2022-07-11T11:05:07.000Z</Time>
            <Position>
              <LatitudeDegrees>43.29567535780370235443115234375</LatitudeDegrees>
              <LongitudeDegrees>-2.6487390697002410888671875</LongitudeDegrees>
            </Position>
            <AltitudeMeters>125.1999969482421875</AltitudeMeters>
            <DistanceMeters>NAN</DistanceMeters>
          </Trackpoint>
          <Trackpoint>
            <Time>2022-07-11T11:05:09.000Z</Time>
            <Position>
              <LatitudeDegrees>43.29570628702640533447265625</LatitudeDegrees>
              <LongitudeDegrees>-2.64874200336635112762451171875</LongitudeDegrees>
            </Position>
            <AltitudeMeters>125.40000152587890625</AltitudeMeters>
            <DistanceMeters>NAN</DistanceMeters>
          </Trackpoint>
          <Trackpoint>
            <Time>2022-07-11T11:05:16.000Z</Time>
            <Position>
              <LatitudeDegrees>43.29582556150853633880615234375</LatitudeDegrees>
              <LongitudeDegrees>-2.64877804554998874664306640625</LongitudeDegrees>
            </Position>
            <AltitudeMeters>126</AltitudeMeters>
            <DistanceMeters>NAN</DistanceMeters>
          </Trackpoint>
          <Trackpoint>
            <Time>2022-07-11T11:05:17.000Z</Time>
            <Position>
              <LatitudeDegrees>43.29585070721805095672607421875</LatitudeDegrees>
              <LongitudeDegrees>-2.6488007605075836181640625</LongitudeDegrees>
            </Position>
            <AltitudeMeters>126</AltitudeMeters>
            <DistanceMeters>NAN</DistanceMeters>
          </Trackpoint>
          <Trackpoint>
            <Time>2022-07-11T11:05:19.000Z</Time>
            <Position>
              <LatitudeDegrees>43.2958881743252277374267578125</LatitudeDegrees>
              <LongitudeDegrees>-2.648831941187381744384765625</LongitudeDegrees>
            </Position>
            <AltitudeMeters>126.1999969482421875</AltitudeMeters>
            <DistanceMeters>NAN</DistanceMeters>
          </Trackpoint>
          <Trackpoint>
            <Time>2022-07-11T11:05:25.000Z</Time>
            <Position>
              <LatitudeDegrees>43.295981548726558685302734375</LatitudeDegrees>
              <LongitudeDegrees>-2.64890293590724468231201171875</LongitudeDegrees>
            </Position>
            <AltitudeMeters>126.59999847412109375</AltitudeMeters>
            <DistanceMeters>NAN</DistanceMeters>
          </Trackpoint>
          <Trackpoint>
            <Time>2022-07-11T11:05:32.000Z</Time>
            <Position>
              <LatitudeDegrees>43.29608716070652008056640625</LatitudeDegrees>
              <LongitudeDegrees>-2.648971080780029296875</LongitudeDegrees>
            </Position>
            <AltitudeMeters>127.1999969482421875</AltitudeMeters>
            <DistanceMeters>NAN</DistanceMeters>
          </Trackpoint>
          <Trackpoint>
            <Time>2022-07-11T11:05:33.000Z</Time>
            <Position>
              <LatitudeDegrees>43.29610534943640232086181640625</LatitudeDegrees>
              <LongitudeDegrees>-2.648973427712917327880859375</LongitudeDegrees>
            </Position>
            <AltitudeMeters>127.40000152587890625</AltitudeMeters>
            <DistanceMeters>NAN</DistanceMeters>
          </Trackpoint>
          <Trackpoint>
            <Time>2022-07-11T11:05:37.000Z</Time>
            <Position>
              <LatitudeDegrees>43.296156562864780426025390625</LatitudeDegrees>
              <LongitudeDegrees>-2.6489739306271076202392578125</LongitudeDegrees>
            </Position>
            <AltitudeMeters>127.40000152587890625</AltitudeMeters>
            <DistanceMeters>NAN</DistanceMeters>
          </Trackpoint>
          <Trackpoint>
            <Time>2022-07-11T11:05:38.000Z</Time>
            <Position>
              <LatitudeDegrees>43.29617005772888660430908203125</LatitudeDegrees>
              <LongitudeDegrees>-2.64896060340106487274169921875</LongitudeDegrees>
            </Position>
            <AltitudeMeters>127.59999847412109375</AltitudeMeters>
            <DistanceMeters>NAN</DistanceMeters>
          </Trackpoint>
          <Trackpoint>
            <Time>2022-07-11T11:05:45.000Z</Time>
            <Position>
              <LatitudeDegrees>43.296295702457427978515625</LatitudeDegrees>
              <LongitudeDegrees>-2.64889396727085113525390625</LongitudeDegrees>
            </Position>
            <AltitudeMeters>128.1999969482421875</AltitudeMeters>
            <DistanceMeters>NAN</DistanceMeters>
          </Trackpoint>
          <Trackpoint>
            <Time>2022-07-11T11:05:48.000Z</Time>
            <Position>
              <LatitudeDegrees>43.29633652232587337493896484375</LatitudeDegrees>
              <LongitudeDegrees>-2.64885800890624523162841796875</LongitudeDegrees>
            </Position>
            <AltitudeMeters>128.399993896484375</AltitudeMeters>
            <DistanceMeters>NAN</DistanceMeters>
          </Trackpoint>
          <Trackpoint>
            <Time>2022-07-11T11:05:51.000Z</Time>
            <Position>
              <LatitudeDegrees>43.29637910239398479461669921875</LatitudeDegrees>
              <LongitudeDegrees>-2.6488260738551616668701171875</LongitudeDegrees>
            </Position>
            <AltitudeMeters>128.600006103515625</AltitudeMeters>
            <DistanceMeters>NAN</DistanceMeters>
          </Trackpoint>
          <Trackpoint>
            <Time>2022-07-11T11:05:57.000Z</Time>
            <Position>
              <LatitudeDegrees>43.29647365026175975799560546875</LatitudeDegrees>
              <LongitudeDegrees>-2.64877486042678356170654296875</LongitudeDegrees>
            </Position>
            <AltitudeMeters>129</AltitudeMeters>
            <DistanceMeters>NAN</DistanceMeters>
          </Trackpoint>
          <Trackpoint>
            <Time>2022-07-11T11:06:02.000Z</Time>
            <Position>
              <LatitudeDegrees>43.2965650968253612518310546875</LatitudeDegrees>
              <LongitudeDegrees>-2.64872155152261257171630859375</LongitudeDegrees>
            </Position>
            <AltitudeMeters>129.399993896484375</AltitudeMeters>
            <DistanceMeters>NAN</DistanceMeters>
          </Trackpoint>
          <Trackpoint>
            <Time>2022-07-11T11:06:03.000Z</Time>
            <Position>
              <LatitudeDegrees>43.29658747650682926177978515625</LatitudeDegrees>
              <LongitudeDegrees>-2.64871451072394847869873046875</LongitudeDegrees>
            </Position>
            <AltitudeMeters>129.399993896484375</AltitudeMeters>
            <DistanceMeters>NAN</DistanceMeters>
          </Trackpoint>
          <Trackpoint>
            <Time>2022-07-11T11:06:05.000Z</Time>
            <Position>
              <LatitudeDegrees>43.29664145596325397491455078125</LatitudeDegrees>
              <LongitudeDegrees>-2.6487090624868869781494140625</LongitudeDegrees>
            </Position>
            <AltitudeMeters>129.600006103515625</AltitudeMeters>
            <DistanceMeters>NAN</DistanceMeters>
          </Trackpoint>
          <Trackpoint>
            <Time>2022-07-11T11:06:06.000Z</Time>
            <Position>
              <LatitudeDegrees>43.29666777513921260833740234375</LatitudeDegrees>
              <LongitudeDegrees>-2.6487036980688571929931640625</LongitudeDegrees>
            </Position>
            <AltitudeMeters>129.600006103515625</AltitudeMeters>
            <DistanceMeters>NAN</DistanceMeters>
          </Trackpoint>
          <Trackpoint>
            <Time>2022-07-11T11:06:13.000Z</Time>
            <Position>
              <LatitudeDegrees>43.29687170684337615966796875</LatitudeDegrees>
              <LongitudeDegrees>-2.64864427037537097930908203125</LongitudeDegrees>
            </Position>
            <AltitudeMeters>130</AltitudeMeters>
            <DistanceMeters>NAN</DistanceMeters>
          </Trackpoint>
          <Trackpoint>
            <Time>2022-07-11T11:06:20.000Z</Time>
            <Position>
              <LatitudeDegrees>43.29704630188643932342529296875</LatitudeDegrees>
              <LongitudeDegrees>-2.64867880381643772125244140625</LongitudeDegrees>
            </Position>
            <AltitudeMeters>130.600006103515625</AltitudeMeters>
            <DistanceMeters>NAN</DistanceMeters>
          </Trackpoint>
          <Trackpoint>
            <Time>2022-07-11T11:06:21.000Z</Time>
            <Position>
              <LatitudeDegrees>43.2971017062664031982421875</LatitudeDegrees>
              <LongitudeDegrees>-2.64866304583847522735595703125</LongitudeDegrees>
            </Position>
            <AltitudeMeters>130.8000030517578125</AltitudeMeters>
            <DistanceMeters>NAN</DistanceMeters>
          </Trackpoint>
          <Trackpoint>
            <Time>2022-07-11T11:06:29.000Z</Time>
            <Position>
              <LatitudeDegrees>43.2972520776093006134033203125</LatitudeDegrees>
              <LongitudeDegrees>-2.64863354153931140899658203125</LongitudeDegrees>
            </Position>
            <AltitudeMeters>131.1999969482421875</AltitudeMeters>
            <DistanceMeters>NAN</DistanceMeters>
          </Trackpoint>
          <Trackpoint>
            <Time>2022-07-11T11:06:33.000Z</Time>
            <Position>
              <LatitudeDegrees>43.29733162187039852142333984375</LatitudeDegrees>
              <LongitudeDegrees>-2.648629434406757354736328125</LongitudeDegrees>
            </Position>
            <AltitudeMeters>131.399993896484375</AltitudeMeters>
            <DistanceMeters>NAN</DistanceMeters>
          </Trackpoint>
          <Trackpoint>
            <Time>2022-07-11T11:06:37.000Z</Time>
            <Position>
              <LatitudeDegrees>43.2974073104560375213623046875</LatitudeDegrees>
              <LongitudeDegrees>-2.64862331561744213104248046875</LongitudeDegrees>
            </Position>
            <AltitudeMeters>131.600006103515625</AltitudeMeters>
            <DistanceMeters>NAN</DistanceMeters>
          </Trackpoint>
          <Trackpoint>
            <Time>2022-07-11T11:06:44.000Z</Time>
            <Position>
              <LatitudeDegrees>43.29753848724067211151123046875</LatitudeDegrees>
              <LongitudeDegrees>-2.6486125029623508453369140625</LongitudeDegrees>
            </Position>
            <AltitudeMeters>132.1999969482421875</AltitudeMeters>
            <DistanceMeters>NAN</DistanceMeters>
          </Trackpoint>
          <Trackpoint>
            <Time>2022-07-11T11:06:48.000Z</Time>
            <Position>
              <LatitudeDegrees>43.29761509783565998077392578125</LatitudeDegrees>
              <LongitudeDegrees>-2.648599259555339813232421875</LongitudeDegrees>
            </Position>
            <AltitudeMeters>132.600006103515625</AltitudeMeters>
            <DistanceMeters>NAN</DistanceMeters>
          </Trackpoint>
          <Trackpoint>
            <Time>2022-07-11T11:06:53.000Z</Time>
            <Position>
              <LatitudeDegrees>43.29771819524466991424560546875</LatitudeDegrees>
              <LongitudeDegrees>-2.6485984213650226593017578125</LongitudeDegrees>
            </Position>
            <AltitudeMeters>132.8000030517578125</AltitudeMeters>
            <DistanceMeters>NAN</DistanceMeters>
          </Trackpoint>
          <Trackpoint>
            <Time>2022-07-11T11:06:56.000Z</Time>
            <Position>
              <LatitudeDegrees>43.29777603037655353546142578125</LatitudeDegrees>
              <LongitudeDegrees>-2.64858911745250225067138671875</LongitudeDegrees>
            </Position>
            <AltitudeMeters>133</AltitudeMeters>
            <DistanceMeters>NAN</DistanceMeters>
          </Trackpoint>
          <Trackpoint>
            <Time>2022-07-11T11:07:02.000Z</Time>
            <Position>
              <LatitudeDegrees>43.29789002425968647003173828125</LatitudeDegrees>
              <LongitudeDegrees>-2.6485647261142730712890625</LongitudeDegrees>
            </Position>
            <AltitudeMeters>133.600006103515625</AltitudeMeters>
            <DistanceMeters>NAN</DistanceMeters>
          </Trackpoint>
          <Trackpoint>
            <Time>2022-07-11T11:07:05.000Z</Time>
            <Position>
              <LatitudeDegrees>43.29795104451477527618408203125</LatitudeDegrees>
              <LongitudeDegrees>-2.6485695876181125640869140625</LongitudeDegrees>
            </Position>
            <AltitudeMeters>134</AltitudeMeters>
            <DistanceMeters>NAN</DistanceMeters>
          </Trackpoint>
          <Trackpoint>
            <Time>2022-07-11T11:07:13.000Z</Time>
            <Position>
              <LatitudeDegrees>43.2981077022850513458251953125</LatitudeDegrees>
              <LongitudeDegrees>-2.648576796054840087890625</LongitudeDegrees>
            </Position>
            <AltitudeMeters>133.600006103515625</AltitudeMeters>
            <DistanceMeters>NAN</DistanceMeters>
          </Trackpoint>
          <Trackpoint>
            <Time>2022-07-11T11:07:19.000Z</Time>
            <Position>
              <LatitudeDegrees>43.2982149906456470489501953125</LatitudeDegrees>
              <LongitudeDegrees>-2.64858148992061614990234375</LongitudeDegrees>
            </Position>
            <AltitudeMeters>134.600006103515625</AltitudeMeters>
            <DistanceMeters>NAN</DistanceMeters>
          </Trackpoint>
          <Trackpoint>
            <Time>2022-07-11T11:07:24.000Z</Time>
            <Position>
              <LatitudeDegrees>43.2982885837554931640625</LatitudeDegrees>
              <LongitudeDegrees>-2.648612000048160552978515625</LongitudeDegrees>
            </Position>
            <AltitudeMeters>134.8000030517578125</AltitudeMeters>
            <DistanceMeters>NAN</DistanceMeters>
          </Trackpoint>
          <Trackpoint>
            <Time>2022-07-11T11:07:26.000Z</Time>
            <Position>
              <LatitudeDegrees>43.2983259670436382293701171875</LatitudeDegrees>
              <LongitudeDegrees>-2.64861074276268482208251953125</LongitudeDegrees>
            </Position>
            <AltitudeMeters>134.8000030517578125</AltitudeMeters>
            <DistanceMeters>NAN</DistanceMeters>
          </Trackpoint>
          <Trackpoint>
            <Time>2022-07-11T11:07:28.000Z</Time>
            <Position>
              <LatitudeDegrees>43.29835806973278522491455078125</LatitudeDegrees>
              <LongitudeDegrees>-2.64861107803881168365478515625</LongitudeDegrees>
            </Position>
            <AltitudeMeters>135</AltitudeMeters>
            <DistanceMeters>NAN</DistanceMeters>
          </Trackpoint>
          <Trackpoint>
            <Time>2022-07-11T11:07:31.000Z</Time>
            <Position>
              <LatitudeDegrees>43.29837868921458721160888671875</LatitudeDegrees>
              <LongitudeDegrees>-2.648619711399078369140625</LongitudeDegrees>
            </Position>
            <AltitudeMeters>135</AltitudeMeters>
            <DistanceMeters>NAN</DistanceMeters>
          </Trackpoint>
          <Trackpoint>
            <Time>2022-07-11T11:07:33.000Z</Time>
            <Position>
              <LatitudeDegrees>43.29837868921458721160888671875</LatitudeDegrees>
              <LongitudeDegrees>-2.648619711399078369140625</LongitudeDegrees>
            </Position>
            <AltitudeMeters>134.8000030517578125</AltitudeMeters>
            <DistanceMeters>NAN</DistanceMeters>
          </Trackpoint>
          <Trackpoint>
            <Time>2022-07-11T11:07:55.000Z</Time>
            <Position>
              <LatitudeDegrees>43.2984020747244358062744140625</LatitudeDegrees>
              <LongitudeDegrees>-2.64861610718071460723876953125</LongitudeDegrees>
            </Position>
            <AltitudeMeters>135</AltitudeMeters>
            <DistanceMeters>NAN</DistanceMeters>
          </Trackpoint>
          <Trackpoint>
            <Time>2022-07-11T11:07:56.000Z</Time>
            <Position>
              <LatitudeDegrees>43.2984262146055698394775390625</LatitudeDegrees>
              <LongitudeDegrees>-2.64861459843814373016357421875</LongitudeDegrees>
            </Position>
            <AltitudeMeters>135</AltitudeMeters>
            <DistanceMeters>NAN</DistanceMeters>
          </Trackpoint>
          <Trackpoint>
            <Time>2022-07-11T11:08:00.000Z</Time>
            <Position>
              <LatitudeDegrees>43.29851749353110790252685546875</LatitudeDegrees>
              <LongitudeDegrees>-2.6486034505069255828857421875</LongitudeDegrees>
            </Position>
            <AltitudeMeters>135.1999969482421875</AltitudeMeters>
            <DistanceMeters>NAN</DistanceMeters>
          </Trackpoint>
          <Trackpoint>
            <Time>2022-07-11T11:08:05.000Z</Time>
            <Position>
              <LatitudeDegrees>43.29863802529871463775634765625</LatitudeDegrees>
              <LongitudeDegrees>-2.6485709287226200103759765625</LongitudeDegrees>
            </Position>
            <AltitudeMeters>135.399993896484375</AltitudeMeters>
            <DistanceMeters>NAN</DistanceMeters>
          </Trackpoint>
          <Trackpoint>
            <Time>2022-07-11T11:08:08.000Z</Time>
            <Position>
              <LatitudeDegrees>43.298706673085689544677734375</LatitudeDegrees>
              <LongitudeDegrees>-2.648567743599414825439453125</LongitudeDegrees>
            </Position>
            <AltitudeMeters>135.600006103515625</AltitudeMeters>
            <DistanceMeters>NAN</DistanceMeters>
          </Trackpoint>
          <Trackpoint>
            <Time>2022-07-11T11:08:09.000Z</Time>
            <Position>
              <LatitudeDegrees>43.298731148242950439453125</LatitudeDegrees>
              <LongitudeDegrees>-2.64856682159006595611572265625</LongitudeDegrees>
            </Position>
            <AltitudeMeters>135.8000030517578125</AltitudeMeters>
            <DistanceMeters>NAN</DistanceMeters>
          </Trackpoint>
          <Trackpoint>
            <Time>2022-07-11T11:08:15.000Z</Time>
            <Position>
              <LatitudeDegrees>43.298897445201873779296875</LatitudeDegrees>
              <LongitudeDegrees>-2.64857905916869640350341796875</LongitudeDegrees>
            </Position>
            <AltitudeMeters>136</AltitudeMeters>
            <DistanceMeters>NAN</DistanceMeters>
          </Trackpoint>
          <Trackpoint>
            <Time>2022-07-11T11:08:22.000Z</Time>
            <Position>
              <LatitudeDegrees>43.2991007901728153228759765625</LatitudeDegrees>
              <LongitudeDegrees>-2.64868064783513545989990234375</LongitudeDegrees>
            </Position>
            <AltitudeMeters>136</AltitudeMeters>
            <DistanceMeters>NAN</DistanceMeters>
          </Trackpoint>
          <Trackpoint>
            <Time>2022-07-11T11:08:24.000Z</Time>
            <Position>
              <LatitudeDegrees>43.29915963113307952880859375</LatitudeDegrees>
              <LongitudeDegrees>-2.64872423373162746429443359375</LongitudeDegrees>
            </Position>
            <AltitudeMeters>136</AltitudeMeters>
            <DistanceMeters>NAN</DistanceMeters>
          </Trackpoint>
          <Trackpoint>
            <Time>2022-07-11T11:08:26.000Z</Time>
            <Position>
              <LatitudeDegrees>43.29922006465494632720947265625</LatitudeDegrees>
              <LongitudeDegrees>-2.6487653888761997222900390625</LongitudeDegrees>
            </Position>
            <AltitudeMeters>136</AltitudeMeters>
            <DistanceMeters>NAN</DistanceMeters>
          </Trackpoint>
          <Trackpoint>
            <Time>2022-07-11T11:08:31.000Z</Time>
            <Position>
              <LatitudeDegrees>43.299381248652935028076171875</LatitudeDegrees>
              <LongitudeDegrees>-2.64886706136167049407958984375</LongitudeDegrees>
            </Position>
            <AltitudeMeters>136.1999969482421875</AltitudeMeters>
            <DistanceMeters>NAN</DistanceMeters>
          </Trackpoint>
          <Trackpoint>
            <Time>2022-07-11T11:08:36.000Z</Time>
            <Position>
              <LatitudeDegrees>43.299544192850589752197265625</LatitudeDegrees>
              <LongitudeDegrees>-2.6489953882992267608642578125</LongitudeDegrees>
            </Position>
            <AltitudeMeters>136.600006103515625</AltitudeMeters>
            <DistanceMeters>NAN</DistanceMeters>
          </Trackpoint>
          <Trackpoint>
            <Time>2022-07-11T11:08:39.000Z</Time>
            <Position>
              <LatitudeDegrees>43.2996355555951595306396484375</LatitudeDegrees>
              <LongitudeDegrees>-2.6490782015025615692138671875</LongitudeDegrees>
            </Position>
            <AltitudeMeters>136.8000030517578125</AltitudeMeters>
            <DistanceMeters>NAN</DistanceMeters>
          </Trackpoint>
          <Trackpoint>
            <Time>2022-07-11T11:08:47.000Z</Time>
            <Position>
              <LatitudeDegrees>43.2998990826308727264404296875</LatitudeDegrees>
              <LongitudeDegrees>-2.6493434049189090728759765625</LongitudeDegrees>
            </Position>
            <AltitudeMeters>136.399993896484375</AltitudeMeters>
            <DistanceMeters>NAN</DistanceMeters>
          </Trackpoint>
          <Trackpoint>
            <Time>2022-07-11T11:08:48.000Z</Time>
            <Position>
              <LatitudeDegrees>43.29992406070232391357421875</LatitudeDegrees>
              <LongitudeDegrees>-2.64937249012291431427001953125</LongitudeDegrees>
            </Position>
            <AltitudeMeters>136.399993896484375</AltitudeMeters>
            <DistanceMeters>NAN</DistanceMeters>
          </Trackpoint>
          <Trackpoint>
            <Time>2022-07-11T11:08:57.000Z</Time>
            <Position>
              <LatitudeDegrees>43.3001901023089885711669921875</LatitudeDegrees>
              <LongitudeDegrees>-2.6497889868915081024169921875</LongitudeDegrees>
            </Position>
            <AltitudeMeters>136</AltitudeMeters>
            <DistanceMeters>NAN</DistanceMeters>
          </Trackpoint>
          <Trackpoint>
            <Time>2022-07-11T11:08:59.000Z</Time>
            <Position>
              <LatitudeDegrees>43.30024533905088901519775390625</LatitudeDegrees>
              <LongitudeDegrees>-2.6499056629836559295654296875</LongitudeDegrees>
            </Position>
            <AltitudeMeters>136</AltitudeMeters>
            <DistanceMeters>NAN</DistanceMeters>
          </Trackpoint>
          <Trackpoint>
            <Time>2022-07-11T11:09:01.000Z</Time>
            <Position>
              <LatitudeDegrees>43.30030024051666259765625</LatitudeDegrees>
              <LongitudeDegrees>-2.65001253224909305572509765625</LongitudeDegrees>
            </Position>
            <AltitudeMeters>136</AltitudeMeters>
            <DistanceMeters>NAN</DistanceMeters>
          </Trackpoint>
          <Trackpoint>
            <Time>2022-07-11T11:09:02.000Z</Time>
            <Position>
              <LatitudeDegrees>43.30033469013869762420654296875</LatitudeDegrees>
              <LongitudeDegrees>-2.65006500296294689178466796875</LongitudeDegrees>
            </Position>
            <AltitudeMeters>135.600006103515625</AltitudeMeters>
            <DistanceMeters>NAN</DistanceMeters>
          </Trackpoint>
          <Trackpoint>
            <Time>2022-07-11T11:09:04.000Z</Time>
            <Position>
              <LatitudeDegrees>43.30041565932333469390869140625</LatitudeDegrees>
              <LongitudeDegrees>-2.65014781616628170013427734375</LongitudeDegrees>
            </Position>
            <AltitudeMeters>135.1999969482421875</AltitudeMeters>
            <DistanceMeters>NAN</DistanceMeters>
          </Trackpoint>
          <Trackpoint>
            <Time>2022-07-11T11:09:07.000Z</Time>
            <Position>
              <LatitudeDegrees>43.3005295693874359130859375</LatitudeDegrees>
              <LongitudeDegrees>-2.6502553559839725494384765625</LongitudeDegrees>
            </Position>
            <AltitudeMeters>135</AltitudeMeters>
            <DistanceMeters>NAN</DistanceMeters>
          </Trackpoint>
          <Trackpoint>
            <Time>2022-07-11T11:09:09.000Z</Time>
            <Position>
              <LatitudeDegrees>43.30059050582349300384521484375</LatitudeDegrees>
              <LongitudeDegrees>-2.65034227631986141204833984375</LongitudeDegrees>
            </Position>
            <AltitudeMeters>134.8000030517578125</AltitudeMeters>
            <DistanceMeters>NAN</DistanceMeters>
          </Trackpoint>
          <Trackpoint>
            <Time>2022-07-11T11:09:11.000Z</Time>
            <Position>
              <LatitudeDegrees>43.300626464188098907470703125</LatitudeDegrees>
              <LongitudeDegrees>-2.6504521630704402923583984375</LongitudeDegrees>
            </Position>
            <AltitudeMeters>134.600006103515625</AltitudeMeters>
            <DistanceMeters>NAN</DistanceMeters>
          </Trackpoint>
          <Trackpoint>
            <Time>2022-07-11T11:09:12.000Z</Time>
            <Position>
              <LatitudeDegrees>43.3006420545279979705810546875</LatitudeDegrees>
              <LongitudeDegrees>-2.6505115069448947906494140625</LongitudeDegrees>
            </Position>
            <AltitudeMeters>134.399993896484375</AltitudeMeters>
            <DistanceMeters>NAN</DistanceMeters>
          </Trackpoint>
          <Trackpoint>
            <Time>2022-07-11T11:09:13.000Z</Time>
            <Position>
              <LatitudeDegrees>43.30065487883985042572021484375</LatitudeDegrees>
              <LongitudeDegrees>-2.65058669261634349822998046875</LongitudeDegrees>
            </Position>
            <AltitudeMeters>134.1999969482421875</AltitudeMeters>
            <DistanceMeters>NAN</DistanceMeters>
          </Trackpoint>
          <Trackpoint>
            <Time>2022-07-11T11:09:14.000Z</Time>
            <Position>
              <LatitudeDegrees>43.30065756104886531829833984375</LatitudeDegrees>
              <LongitudeDegrees>-2.650666572153568267822265625</LongitudeDegrees>
            </Position>
            <AltitudeMeters>134</AltitudeMeters>
            <DistanceMeters>NAN</DistanceMeters>
          </Trackpoint>
          <Trackpoint>
            <Time>2022-07-11T11:09:16.000Z</Time>
            <Position>
              <LatitudeDegrees>43.3006457425653934478759765625</LatitudeDegrees>
              <LongitudeDegrees>-2.65081903897225856781005859375</LongitudeDegrees>
            </Position>
            <AltitudeMeters>133.8000030517578125</AltitudeMeters>
            <DistanceMeters>NAN</DistanceMeters>
          </Trackpoint>
          <Trackpoint>
            <Time>2022-07-11T11:09:17.000Z</Time>
            <Position>
              <LatitudeDegrees>43.30063643865287303924560546875</LatitudeDegrees>
              <LongitudeDegrees>-2.65088223852217197418212890625</LongitudeDegrees>
            </Position>
            <AltitudeMeters>133.8000030517578125</AltitudeMeters>
            <DistanceMeters>NAN</DistanceMeters>
          </Trackpoint>
          <Trackpoint>
            <Time>2022-07-11T11:09:18.000Z</Time>
            <Position>
              <LatitudeDegrees>43.30062436871230602264404296875</LatitudeDegrees>
              <LongitudeDegrees>-2.65094476751983165740966796875</LongitudeDegrees>
            </Position>
            <AltitudeMeters>133.8000030517578125</AltitudeMeters>
            <DistanceMeters>NAN</DistanceMeters>
          </Trackpoint>
          <Trackpoint>
            <Time>2022-07-11T11:09:20.000Z</Time>
            <Position>
              <LatitudeDegrees>43.30061431042850017547607421875</LatitudeDegrees>
              <LongitudeDegrees>-2.6510080508887767791748046875</LongitudeDegrees>
            </Position>
            <AltitudeMeters>133.8000030517578125</AltitudeMeters>
            <DistanceMeters>NAN</DistanceMeters>
          </Trackpoint>
          <Trackpoint>
            <Time>2022-07-11T11:09:21.000Z</Time>
            <Position>
              <LatitudeDegrees>43.300604335963726043701171875</LatitudeDegrees>
              <LongitudeDegrees>-2.651149369776248931884765625</LongitudeDegrees>
            </Position>
            <AltitudeMeters>133.8000030517578125</AltitudeMeters>
            <DistanceMeters>NAN</DistanceMeters>
          </Trackpoint>
          <Trackpoint>
            <Time>2022-07-11T11:09:23.000Z</Time>
            <Position>
              <LatitudeDegrees>43.300614394247531890869140625</LatitudeDegrees>
              <LongitudeDegrees>-2.65129982493817806243896484375</LongitudeDegrees>
            </Position>
            <AltitudeMeters>133.600006103515625</AltitudeMeters>
            <DistanceMeters>NAN</DistanceMeters>
          </Trackpoint>
          <Trackpoint>
            <Time>2022-07-11T11:09:24.000Z</Time>
            <Position>
              <LatitudeDegrees>43.3006259612739086151123046875</LatitudeDegrees>
              <LongitudeDegrees>-2.65137576498091220855712890625</LongitudeDegrees>
            </Position>
            <AltitudeMeters>133.399993896484375</AltitudeMeters>
            <DistanceMeters>NAN</DistanceMeters>
          </Trackpoint>
          <Trackpoint>
            <Time>2022-07-11T11:09:25.000Z</Time>
            <Position>
              <LatitudeDegrees>43.300645239651203155517578125</LatitudeDegrees>
              <LongitudeDegrees>-2.65144986100494861602783203125</LongitudeDegrees>
            </Position>
            <AltitudeMeters>133</AltitudeMeters>
            <DistanceMeters>NAN</DistanceMeters>
          </Trackpoint>
          <Trackpoint>
            <Time>2022-07-11T11:09:27.000Z</Time>
            <Position>
              <LatitudeDegrees>43.3007070980966091156005859375</LatitudeDegrees>
              <LongitudeDegrees>-2.6515877433121204376220703125</LongitudeDegrees>
            </Position>
            <AltitudeMeters>132.399993896484375</AltitudeMeters>
            <DistanceMeters>NAN</DistanceMeters>
          </Trackpoint>
          <Trackpoint>
            <Time>2022-07-11T11:09:28.000Z</Time>
            <Position>
              <LatitudeDegrees>43.30074188299477100372314453125</LatitudeDegrees>
              <LongitudeDegrees>-2.6516537927091121673583984375</LongitudeDegrees>
            </Position>
            <AltitudeMeters>132</AltitudeMeters>
            <DistanceMeters>NAN</DistanceMeters>
          </Trackpoint>
          <Trackpoint>
            <Time>2022-07-11T11:09:31.000Z</Time>
            <Position>
              <LatitudeDegrees>43.300876580178737640380859375</LatitudeDegrees>
              <LongitudeDegrees>-2.65183878131210803985595703125</LongitudeDegrees>
            </Position>
            <AltitudeMeters>131.600006103515625</AltitudeMeters>
            <DistanceMeters>NAN</DistanceMeters>
          </Trackpoint>
          <Trackpoint>
            <Time>2022-07-11T11:09:33.000Z</Time>
            <Position>
              <LatitudeDegrees>43.30097121186554431915283203125</LatitudeDegrees>
              <LongitudeDegrees>-2.6519443094730377197265625</LongitudeDegrees>
            </Position>
            <AltitudeMeters>131.399993896484375</AltitudeMeters>
            <DistanceMeters>NAN</DistanceMeters>
          </Trackpoint>
          <Trackpoint>
            <Time>2022-07-11T11:09:35.000Z</Time>
            <Position>
              <LatitudeDegrees>43.301076404750347137451171875</LatitudeDegrees>
              <LongitudeDegrees>-2.65202905051410198211669921875</LongitudeDegrees>
            </Position>
            <AltitudeMeters>130.8000030517578125</AltitudeMeters>
            <DistanceMeters>NAN</DistanceMeters>
          </Trackpoint>
          <Trackpoint>
            <Time>2022-07-11T11:09:39.000Z</Time>
            <Position>
              <LatitudeDegrees>43.301322497427463531494140625</LatitudeDegrees>
              <LongitudeDegrees>-2.65217967331409454345703125</LongitudeDegrees>
            </Position>
            <AltitudeMeters>129.600006103515625</AltitudeMeters>
            <DistanceMeters>NAN</DistanceMeters>
          </Trackpoint>
          <Trackpoint>
            <Time>2022-07-11T11:09:42.000Z</Time>
            <Position>
              <LatitudeDegrees>43.3014953322708606719970703125</LatitudeDegrees>
              <LongitudeDegrees>-2.65232476405799388885498046875</LongitudeDegrees>
            </Position>
            <AltitudeMeters>129</AltitudeMeters>
            <DistanceMeters>NAN</DistanceMeters>
          </Trackpoint>
          <Trackpoint>
            <Time>2022-07-11T11:09:44.000Z</Time>
            <Position>
              <LatitudeDegrees>43.30160354264080524444580078125</LatitudeDegrees>
              <LongitudeDegrees>-2.6524567790329456329345703125</LongitudeDegrees>
            </Position>
            <AltitudeMeters>128.8000030517578125</AltitudeMeters>
            <DistanceMeters>NAN</DistanceMeters>
          </Trackpoint>
          <Trackpoint>
            <Time>2022-07-11T11:09:45.000Z</Time>
            <Position>
              <LatitudeDegrees>43.30165165476500988006591796875</LatitudeDegrees>
              <LongitudeDegrees>-2.6525342278182506561279296875</LongitudeDegrees>
            </Position>
            <AltitudeMeters>128.600006103515625</AltitudeMeters>
            <DistanceMeters>NAN</DistanceMeters>
          </Trackpoint>
          <Trackpoint>
            <Time>2022-07-11T11:09:46.000Z</Time>
            <Position>
              <LatitudeDegrees>43.30170177854597568511962890625</LatitudeDegrees>
              <LongitudeDegrees>-2.65261243097484111785888671875</LongitudeDegrees>
            </Position>
            <AltitudeMeters>128.600006103515625</AltitudeMeters>
            <DistanceMeters>NAN</DistanceMeters>
          </Trackpoint>
          <Trackpoint>
            <Time>2022-07-11T11:09:50.000Z</Time>
            <Position>
              <LatitudeDegrees>43.301918618381023406982421875</LatitudeDegrees>
              <LongitudeDegrees>-2.6529224775731563568115234375</LongitudeDegrees>
            </Position>
            <AltitudeMeters>127.40000152587890625</AltitudeMeters>
            <DistanceMeters>NAN</DistanceMeters>
          </Trackpoint>
          <Trackpoint>
            <Time>2022-07-11T11:09:51.000Z</Time>
            <Position>
              <LatitudeDegrees>43.30197905190289020538330078125</LatitudeDegrees>
              <LongitudeDegrees>-2.652988694608211517333984375</LongitudeDegrees>
            </Position>
            <AltitudeMeters>126.8000030517578125</AltitudeMeters>
            <DistanceMeters>NAN</DistanceMeters>
          </Trackpoint>
          <Trackpoint>
            <Time>2022-07-11T11:09:52.000Z</Time>
            <Position>
              <LatitudeDegrees>43.3020341210067272186279296875</LatitudeDegrees>
              <LongitudeDegrees>-2.6530445180833339691162109375</LongitudeDegrees>
            </Position>
            <AltitudeMeters>126.1999969482421875</AltitudeMeters>
            <DistanceMeters>NAN</DistanceMeters>
          </Trackpoint>
          <Trackpoint>
            <Time>2022-07-11T11:09:53.000Z</Time>
            <Position>
              <LatitudeDegrees>43.3020703308284282684326171875</LatitudeDegrees>
              <LongitudeDegrees>-2.6530820690095424652099609375</LongitudeDegrees>
            </Position>
            <AltitudeMeters>125</AltitudeMeters>
            <DistanceMeters>NAN</DistanceMeters>
          </Trackpoint>
          <Trackpoint>
            <Time>2022-07-11T11:09:54.000Z</Time>
            <Position>
              <LatitudeDegrees>43.302088938653469085693359375</LatitudeDegrees>
              <LongitudeDegrees>-2.6531095616519451141357421875</LongitudeDegrees>
            </Position>
            <AltitudeMeters>124.40000152587890625</AltitudeMeters>
            <DistanceMeters>NAN</DistanceMeters>
          </Trackpoint>
          <Trackpoint>
            <Time>2022-07-11T11:09:55.000Z</Time>
            <Position>
              <LatitudeDegrees>43.30208994448184967041015625</LatitudeDegrees>
              <LongitudeDegrees>-2.65312925912439823150634765625</LongitudeDegrees>
            </Position>
            <AltitudeMeters>124</AltitudeMeters>
            <DistanceMeters>NAN</DistanceMeters>
          </Trackpoint>
          <Trackpoint>
            <Time>2022-07-11T11:09:56.000Z</Time>
            <Position>
              <LatitudeDegrees>43.30207510851323604583740234375</LatitudeDegrees>
              <LongitudeDegrees>-2.6531373895704746246337890625</LongitudeDegrees>
            </Position>
            <AltitudeMeters>123.8000030517578125</AltitudeMeters>
            <DistanceMeters>NAN</DistanceMeters>
          </Trackpoint>
          <Trackpoint>
            <Time>2022-07-11T11:09:59.000Z</Time>
            <Position>
              <LatitudeDegrees>43.30203638412058353424072265625</LatitudeDegrees>
              <LongitudeDegrees>-2.65307863242924213409423828125</LongitudeDegrees>
            </Position>
            <AltitudeMeters>123.59999847412109375</AltitudeMeters>
            <DistanceMeters>NAN</DistanceMeters>
          </Trackpoint>
          <Trackpoint>
            <Time>2022-07-11T11:10:02.000Z</Time>
            <Position>
              <LatitudeDegrees>43.30201660282909870147705078125</LatitudeDegrees>
              <LongitudeDegrees>-2.652968578040599822998046875</LongitudeDegrees>
            </Position>
            <AltitudeMeters>124</AltitudeMeters>
            <DistanceMeters>NAN</DistanceMeters>
          </Trackpoint>
          <Trackpoint>
            <Time>2022-07-11T11:10:05.000Z</Time>
            <Position>
              <LatitudeDegrees>43.30200654454529285430908203125</LatitudeDegrees>
              <LongitudeDegrees>-2.65294234268367290496826171875</LongitudeDegrees>
            </Position>
            <AltitudeMeters>124</AltitudeMeters>
            <DistanceMeters>NAN</DistanceMeters>
          </Trackpoint>
          <Trackpoint>
            <Time>2022-07-11T11:10:07.000Z</Time>
            <Position>
              <LatitudeDegrees>43.30200654454529285430908203125</LatitudeDegrees>
              <LongitudeDegrees>-2.65294234268367290496826171875</LongitudeDegrees>
            </Position>
            <AltitudeMeters>124.1999969482421875</AltitudeMeters>
            <DistanceMeters>NAN</DistanceMeters>
          </Trackpoint>
          <Trackpoint>
            <Time>2022-07-11T11:10:21.000Z</Time>
            <Position>
              <LatitudeDegrees>43.30202917568385601043701171875</LatitudeDegrees>
              <LongitudeDegrees>-2.6529798097908496856689453125</LongitudeDegrees>
            </Position>
            <AltitudeMeters>124.1999969482421875</AltitudeMeters>
            <DistanceMeters>NAN</DistanceMeters>
          </Trackpoint>
          <Trackpoint>
            <Time>2022-07-11T11:10:22.000Z</Time>
            <Position>
              <LatitudeDegrees>43.3020530641078948974609375</LatitudeDegrees>
              <LongitudeDegrees>-2.653000764548778533935546875</LongitudeDegrees>
            </Position>
            <AltitudeMeters>124</AltitudeMeters>
            <DistanceMeters>NAN</DistanceMeters>
          </Trackpoint>
          <Trackpoint>
            <Time>2022-07-11T11:10:27.000Z</Time>
            <Position>
              <LatitudeDegrees>43.30219245515763759613037109375</LatitudeDegrees>
              <LongitudeDegrees>-2.65311014838516712188720703125</LongitudeDegrees>
            </Position>
            <AltitudeMeters>123.1999969482421875</AltitudeMeters>
            <DistanceMeters>NAN</DistanceMeters>
          </Trackpoint>
          <Trackpoint>
            <Time>2022-07-11T11:10:28.000Z</Time>
            <Position>
              <LatitudeDegrees>43.3022300899028778076171875</LatitudeDegrees>
              <LongitudeDegrees>-2.65313814394176006317138671875</LongitudeDegrees>
            </Position>
            <AltitudeMeters>123.1999969482421875</AltitudeMeters>
            <DistanceMeters>NAN</DistanceMeters>
          </Trackpoint>
          <Trackpoint>
            <Time>2022-07-11T11:10:35.000Z</Time>
            <Position>
              <LatitudeDegrees>43.30251515842974185943603515625</LatitudeDegrees>
              <LongitudeDegrees>-2.65330863185226917266845703125</LongitudeDegrees>
            </Position>
            <AltitudeMeters>123.40000152587890625</AltitudeMeters>
            <DistanceMeters>NAN</DistanceMeters>
          </Trackpoint>
          <Trackpoint>
            <Time>2022-07-11T11:10:36.000Z</Time>
            <Position>
              <LatitudeDegrees>43.3025628514587879180908203125</LatitudeDegrees>
              <LongitudeDegrees>-2.65335179865360260009765625</LongitudeDegrees>
            </Position>
            <AltitudeMeters>123.1999969482421875</AltitudeMeters>
            <DistanceMeters>NAN</DistanceMeters>
          </Trackpoint>
          <Trackpoint>
            <Time>2022-07-11T11:10:40.000Z</Time>
            <Position>
              <LatitudeDegrees>43.30272160470485687255859375</LatitudeDegrees>
              <LongitudeDegrees>-2.6535152457654476165771484375</LongitudeDegrees>
            </Position>
            <AltitudeMeters>122.8000030517578125</AltitudeMeters>
            <DistanceMeters>NAN</DistanceMeters>
          </Trackpoint>
          <Trackpoint>
            <Time>2022-07-11T11:10:41.000Z</Time>
            <Position>
              <LatitudeDegrees>43.30277147702872753143310546875</LatitudeDegrees>
              <LongitudeDegrees>-2.65358070842921733856201171875</LongitudeDegrees>
            </Position>
            <AltitudeMeters>122.8000030517578125</AltitudeMeters>
            <DistanceMeters>NAN</DistanceMeters>
          </Trackpoint>
          <Trackpoint>
            <Time>2022-07-11T11:10:45.000Z</Time>
            <Position>
              <LatitudeDegrees>43.3029232732951641082763671875</LatitudeDegrees>
              <LongitudeDegrees>-2.65380986966192722320556640625</LongitudeDegrees>
            </Position>
            <AltitudeMeters>121.8000030517578125</AltitudeMeters>
            <DistanceMeters>NAN</DistanceMeters>
          </Trackpoint>
          <Trackpoint>
            <Time>2022-07-11T11:10:48.000Z</Time>
            <Position>
              <LatitudeDegrees>43.30306199379265308380126953125</LatitudeDegrees>
              <LongitudeDegrees>-2.6540235243737697601318359375</LongitudeDegrees>
            </Position>
            <AltitudeMeters>121.1999969482421875</AltitudeMeters>
            <DistanceMeters>NAN</DistanceMeters>
          </Trackpoint>
          <Trackpoint>
            <Time>2022-07-11T11:10:51.000Z</Time>
            <Position>
              <LatitudeDegrees>43.303177915513515472412109375</LatitudeDegrees>
              <LongitudeDegrees>-2.6542404480278491973876953125</LongitudeDegrees>
            </Position>
            <AltitudeMeters>120.59999847412109375</AltitudeMeters>
            <DistanceMeters>NAN</DistanceMeters>
          </Trackpoint>
          <Trackpoint>
            <Time>2022-07-11T11:10:53.000Z</Time>
            <Position>
              <LatitudeDegrees>43.30323600210249423980712890625</LatitudeDegrees>
              <LongitudeDegrees>-2.65442325733602046966552734375</LongitudeDegrees>
            </Position>
            <AltitudeMeters>120.1999969482421875</AltitudeMeters>
            <DistanceMeters>NAN</DistanceMeters>
          </Trackpoint>
          <Trackpoint>
            <Time>2022-07-11T11:10:57.000Z</Time>
            <Position>
              <LatitudeDegrees>43.30331814475357532501220703125</LatitudeDegrees>
              <LongitudeDegrees>-2.65481754206120967864990234375</LongitudeDegrees>
            </Position>
            <AltitudeMeters>119.8000030517578125</AltitudeMeters>
            <DistanceMeters>NAN</DistanceMeters>
          </Trackpoint>
          <Trackpoint>
            <Time>2022-07-11T11:10:58.000Z</Time>
            <Position>
              <LatitudeDegrees>43.3033458888530731201171875</LatitudeDegrees>
              <LongitudeDegrees>-2.654911838471889495849609375</LongitudeDegrees>
            </Position>
            <AltitudeMeters>119.59999847412109375</AltitudeMeters>
            <DistanceMeters>NAN</DistanceMeters>
          </Trackpoint>
          <Trackpoint>
            <Time>2022-07-11T11:10:59.000Z</Time>
            <Position>
              <LatitudeDegrees>43.3033742196857929229736328125</LatitudeDegrees>
              <LongitudeDegrees>-2.655003704130649566650390625</LongitudeDegrees>
            </Position>
            <AltitudeMeters>119.1999969482421875</AltitudeMeters>
            <DistanceMeters>NAN</DistanceMeters>
          </Trackpoint>
          <Trackpoint>
            <Time>2022-07-11T11:11:01.000Z</Time>
            <Position>
              <LatitudeDegrees>43.30343834124505519866943359375</LatitudeDegrees>
              <LongitudeDegrees>-2.655158601701259613037109375</LongitudeDegrees>
            </Position>
            <AltitudeMeters>119</AltitudeMeters>
            <DistanceMeters>NAN</DistanceMeters>
          </Trackpoint>
          <Trackpoint>
            <Time>2022-07-11T11:11:02.000Z</Time>
            <Position>
              <LatitudeDegrees>43.3034801669418811798095703125</LatitudeDegrees>
              <LongitudeDegrees>-2.655239067971706390380859375</LongitudeDegrees>
            </Position>
            <AltitudeMeters>118.8000030517578125</AltitudeMeters>
            <DistanceMeters>NAN</DistanceMeters>
          </Trackpoint>
          <Trackpoint>
            <Time>2022-07-11T11:11:04.000Z</Time>
            <Position>
              <LatitudeDegrees>43.3035800792276859283447265625</LatitudeDegrees>
              <LongitudeDegrees>-2.65540243126451969146728515625</LongitudeDegrees>
            </Position>
            <AltitudeMeters>118.8000030517578125</AltitudeMeters>
            <DistanceMeters>NAN</DistanceMeters>
          </Trackpoint>
          <Trackpoint>
            <Time>2022-07-11T11:11:05.000Z</Time>
            <Position>
              <LatitudeDegrees>43.303629867732524871826171875</LatitudeDegrees>
              <LongitudeDegrees>-2.655467055737972259521484375</LongitudeDegrees>
            </Position>
            <AltitudeMeters>118.59999847412109375</AltitudeMeters>
            <DistanceMeters>NAN</DistanceMeters>
          </Trackpoint>
          <Trackpoint>
            <Time>2022-07-11T11:11:06.000Z</Time>
            <Position>
              <LatitudeDegrees>43.3036850206553936004638671875</LatitudeDegrees>
              <LongitudeDegrees>-2.6555242203176021575927734375</LongitudeDegrees>
            </Position>
            <AltitudeMeters>118.40000152587890625</AltitudeMeters>
            <DistanceMeters>NAN</DistanceMeters>
          </Trackpoint>
          <Trackpoint>
            <Time>2022-07-11T11:11:07.000Z</Time>
            <Position>
              <LatitudeDegrees>43.30374210141599178314208984375</LatitudeDegrees>
              <LongitudeDegrees>-2.65557778067886829376220703125</LongitudeDegrees>
            </Position>
            <AltitudeMeters>117.59999847412109375</AltitudeMeters>
            <DistanceMeters>NAN</DistanceMeters>
          </Trackpoint>
          <Trackpoint>
            <Time>2022-07-11T11:11:08.000Z</Time>
            <Position>
              <LatitudeDegrees>43.303802870213985443115234375</LatitudeDegrees>
              <LongitudeDegrees>-2.65562438406050205230712890625</LongitudeDegrees>
            </Position>
            <AltitudeMeters>116.8000030517578125</AltitudeMeters>
            <DistanceMeters>NAN</DistanceMeters>
          </Trackpoint>
          <Trackpoint>
            <Time>2022-07-11T11:11:11.000Z</Time>
            <Position>
              <LatitudeDegrees>43.30398718826472759246826171875</LatitudeDegrees>
              <LongitudeDegrees>-2.65573519282042980194091796875</LongitudeDegrees>
            </Position>
            <AltitudeMeters>115.8000030517578125</AltitudeMeters>
            <DistanceMeters>NAN</DistanceMeters>
          </Trackpoint>
          <Trackpoint>
            <Time>2022-07-11T11:11:12.000Z</Time>
            <Position>
              <LatitudeDegrees>43.30405273474752902984619140625</LatitudeDegrees>
              <LongitudeDegrees>-2.6557602547109127044677734375</LongitudeDegrees>
            </Position>
            <AltitudeMeters>115.40000152587890625</AltitudeMeters>
            <DistanceMeters>NAN</DistanceMeters>
          </Trackpoint>
          <Trackpoint>
            <Time>2022-07-11T11:11:14.000Z</Time>
            <Position>
              <LatitudeDegrees>43.30418030731379985809326171875</LatitudeDegrees>
              <LongitudeDegrees>-2.65578925609588623046875</LongitudeDegrees>
            </Position>
            <AltitudeMeters>114.8000030517578125</AltitudeMeters>
            <DistanceMeters>NAN</DistanceMeters>
          </Trackpoint>
          <Trackpoint>
            <Time>2022-07-11T11:11:15.000Z</Time>
            <Position>
              <LatitudeDegrees>43.3042529784142971038818359375</LatitudeDegrees>
              <LongitudeDegrees>-2.6557941175997257232666015625</LongitudeDegrees>
            </Position>
            <AltitudeMeters>114.59999847412109375</AltitudeMeters>
            <DistanceMeters>NAN</DistanceMeters>
          </Trackpoint>
          <Trackpoint>
            <Time>2022-07-11T11:11:19.000Z</Time>
            <Position>
              <LatitudeDegrees>43.304520361125469207763671875</LatitudeDegrees>
              <LongitudeDegrees>-2.65578095801174640655517578125</LongitudeDegrees>
            </Position>
            <AltitudeMeters>113.59999847412109375</AltitudeMeters>
            <DistanceMeters>NAN</DistanceMeters>
          </Trackpoint>
          <Trackpoint>
            <Time>2022-07-11T11:11:22.000Z</Time>
            <Position>
              <LatitudeDegrees>43.30470107495784759521484375</LatitudeDegrees>
              <LongitudeDegrees>-2.655786909162998199462890625</LongitudeDegrees>
            </Position>
            <AltitudeMeters>112.59999847412109375</AltitudeMeters>
            <DistanceMeters>NAN</DistanceMeters>
          </Trackpoint>
          <Trackpoint>
            <Time>2022-07-11T11:11:25.000Z</Time>
            <Position>
              <LatitudeDegrees>43.3048678748309612274169921875</LatitudeDegrees>
              <LongitudeDegrees>-2.65580140985548496246337890625</LongitudeDegrees>
            </Position>
            <AltitudeMeters>111.8000030517578125</AltitudeMeters>
            <DistanceMeters>NAN</DistanceMeters>
          </Trackpoint>
          <Trackpoint>
            <Time>2022-07-11T11:11:26.000Z</Time>
            <Position>
              <LatitudeDegrees>43.30493987537920475006103515625</LatitudeDegrees>
              <LongitudeDegrees>-2.6558038406074047088623046875</LongitudeDegrees>
            </Position>
            <AltitudeMeters>111.40000152587890625</AltitudeMeters>
            <DistanceMeters>NAN</DistanceMeters>
          </Trackpoint>
          <Trackpoint>
            <Time>2022-07-11T11:11:30.000Z</Time>
            <Position>
              <LatitudeDegrees>43.30522100441157817840576171875</LatitudeDegrees>
              <LongitudeDegrees>-2.65580199658870697021484375</LongitudeDegrees>
            </Position>
            <AltitudeMeters>110.59999847412109375</AltitudeMeters>
            <DistanceMeters>NAN</DistanceMeters>
          </Trackpoint>
          <Trackpoint>
            <Time>2022-07-11T11:11:32.000Z</Time>
            <Position>
              <LatitudeDegrees>43.30535125918686389923095703125</LatitudeDegrees>
              <LongitudeDegrees>-2.65581632964313030242919921875</LongitudeDegrees>
            </Position>
            <AltitudeMeters>110</AltitudeMeters>
            <DistanceMeters>NAN</DistanceMeters>
          </Trackpoint>
          <Trackpoint>
            <Time>2022-07-11T11:11:36.000Z</Time>
            <Position>
              <LatitudeDegrees>43.3056212402880191802978515625</LatitudeDegrees>
              <LongitudeDegrees>-2.655876763164997100830078125</LongitudeDegrees>
            </Position>
            <AltitudeMeters>109</AltitudeMeters>
            <DistanceMeters>NAN</DistanceMeters>
          </Trackpoint>
          <Trackpoint>
            <Time>2022-07-11T11:11:40.000Z</Time>
            <Position>
              <LatitudeDegrees>43.3058897964656352996826171875</LatitudeDegrees>
              <LongitudeDegrees>-2.65596217475831508636474609375</LongitudeDegrees>
            </Position>
            <AltitudeMeters>107.8000030517578125</AltitudeMeters>
            <DistanceMeters>NAN</DistanceMeters>
          </Trackpoint>
          <Trackpoint>
            <Time>2022-07-11T11:11:41.000Z</Time>
            <Position>
              <LatitudeDegrees>43.30596506595611572265625</LatitudeDegrees>
              <LongitudeDegrees>-2.655967958271503448486328125</LongitudeDegrees>
            </Position>
            <AltitudeMeters>107.59999847412109375</AltitudeMeters>
            <DistanceMeters>NAN</DistanceMeters>
          </Trackpoint>
          <Trackpoint>
            <Time>2022-07-11T11:11:44.000Z</Time>
            <Position>
              <LatitudeDegrees>43.306222222745418548583984375</LatitudeDegrees>
              <LongitudeDegrees>-2.65599486418068408966064453125</LongitudeDegrees>
            </Position>
            <AltitudeMeters>106.8000030517578125</AltitudeMeters>
            <DistanceMeters>NAN</DistanceMeters>
          </Trackpoint>
          <Trackpoint>
            <Time>2022-07-11T11:11:45.000Z</Time>
            <Position>
              <LatitudeDegrees>43.30630461685359477996826171875</LatitudeDegrees>
              <LongitudeDegrees>-2.656011544167995452880859375</LongitudeDegrees>
            </Position>
            <AltitudeMeters>106.40000152587890625</AltitudeMeters>
            <DistanceMeters>NAN</DistanceMeters>
          </Trackpoint>
          <Trackpoint>
            <Time>2022-07-11T11:11:47.000Z</Time>
            <Position>
              <LatitudeDegrees>43.30645381473004817962646484375</LatitudeDegrees>
              <LongitudeDegrees>-2.65607499517500400543212890625</LongitudeDegrees>
            </Position>
            <AltitudeMeters>105.59999847412109375</AltitudeMeters>
            <DistanceMeters>NAN</DistanceMeters>
          </Trackpoint>
          <Trackpoint>
            <Time>2022-07-11T11:11:49.000Z</Time>
            <Position>
              <LatitudeDegrees>43.3065945468842983245849609375</LatitudeDegrees>
              <LongitudeDegrees>-2.65617809258401393890380859375</LongitudeDegrees>
            </Position>
            <AltitudeMeters>104.8000030517578125</AltitudeMeters>
            <DistanceMeters>NAN</DistanceMeters>
          </Trackpoint>
          <Trackpoint>
            <Time>2022-07-11T11:11:50.000Z</Time>
            <Position>
              <LatitudeDegrees>43.306645341217517852783203125</LatitudeDegrees>
              <LongitudeDegrees>-2.6562383584678173065185546875</LongitudeDegrees>
            </Position>
            <AltitudeMeters>104.40000152587890625</AltitudeMeters>
            <DistanceMeters>NAN</DistanceMeters>
          </Trackpoint>
          <Trackpoint>
            <Time>2022-07-11T11:11:51.000Z</Time>
            <Position>
              <LatitudeDegrees>43.306709714233875274658203125</LatitudeDegrees>
              <LongitudeDegrees>-2.65633902512490749359130859375</LongitudeDegrees>
            </Position>
            <AltitudeMeters>104.1999969482421875</AltitudeMeters>
            <DistanceMeters>NAN</DistanceMeters>
          </Trackpoint>
          <Trackpoint>
            <Time>2022-07-11T11:11:52.000Z</Time>
            <Position>
              <LatitudeDegrees>43.30674852244555950164794921875</LatitudeDegrees>
              <LongitudeDegrees>-2.65643491409718990325927734375</LongitudeDegrees>
            </Position>
            <AltitudeMeters>103.8000030517578125</AltitudeMeters>
            <DistanceMeters>NAN</DistanceMeters>
          </Trackpoint>
          <Trackpoint>
            <Time>2022-07-11T11:11:54.000Z</Time>
            <Position>
              <LatitudeDegrees>43.30680803395807743072509765625</LatitudeDegrees>
              <LongitudeDegrees>-2.65662736259400844573974609375</LongitudeDegrees>
            </Position>
            <AltitudeMeters>103.40000152587890625</AltitudeMeters>
            <DistanceMeters>NAN</DistanceMeters>
          </Trackpoint>
          <Trackpoint>
            <Time>2022-07-11T11:11:57.000Z</Time>
            <Position>
              <LatitudeDegrees>43.306890092790126800537109375</LatitudeDegrees>
              <LongitudeDegrees>-2.656953334808349609375</LongitudeDegrees>
            </Position>
            <AltitudeMeters>102.40000152587890625</AltitudeMeters>
            <DistanceMeters>NAN</DistanceMeters>
          </Trackpoint>
          <Trackpoint>
            <Time>2022-07-11T11:11:58.000Z</Time>
            <Position>
              <LatitudeDegrees>43.3069167472422122955322265625</LatitudeDegrees>
              <LongitudeDegrees>-2.6570892892777919769287109375</LongitudeDegrees>
            </Position>
            <AltitudeMeters>102</AltitudeMeters>
            <DistanceMeters>NAN</DistanceMeters>
          </Trackpoint>
          <Trackpoint>
            <Time>2022-07-11T11:12:00.000Z</Time>
            <Position>
              <LatitudeDegrees>43.30695890821516513824462890625</LatitudeDegrees>
              <LongitudeDegrees>-2.65729472972452640533447265625</LongitudeDegrees>
            </Position>
            <AltitudeMeters>101</AltitudeMeters>
            <DistanceMeters>NAN</DistanceMeters>
          </Trackpoint>
          <Trackpoint>
            <Time>2022-07-11T11:12:01.000Z</Time>
            <Position>
              <LatitudeDegrees>43.30698422156274318695068359375</LatitudeDegrees>
              <LongitudeDegrees>-2.65741475857794284820556640625</LongitudeDegrees>
            </Position>
            <AltitudeMeters>100.8000030517578125</AltitudeMeters>
            <DistanceMeters>NAN</DistanceMeters>
          </Trackpoint>
          <Trackpoint>
            <Time>2022-07-11T11:12:04.000Z</Time>
            <Position>
              <LatitudeDegrees>43.30707994289696216583251953125</LatitudeDegrees>
              <LongitudeDegrees>-2.657769061625003814697265625</LongitudeDegrees>
            </Position>
            <AltitudeMeters>99.8000030517578125</AltitudeMeters>
            <DistanceMeters>NAN</DistanceMeters>
          </Trackpoint>
          <Trackpoint>
            <Time>2022-07-11T11:12:06.000Z</Time>
            <Position>
              <LatitudeDegrees>43.3071809448301792144775390625</LatitudeDegrees>
              <LongitudeDegrees>-2.65795170329511165618896484375</LongitudeDegrees>
            </Position>
            <AltitudeMeters>99.1999969482421875</AltitudeMeters>
            <DistanceMeters>NAN</DistanceMeters>
          </Trackpoint>
          <Trackpoint>
            <Time>2022-07-11T11:12:07.000Z</Time>
            <Position>
              <LatitudeDegrees>43.30724942497909069061279296875</LatitudeDegrees>
              <LongitudeDegrees>-2.6580248773097991943359375</LongitudeDegrees>
            </Position>
            <AltitudeMeters>98.59999847412109375</AltitudeMeters>
            <DistanceMeters>NAN</DistanceMeters>
          </Trackpoint>
          <Trackpoint>
            <Time>2022-07-11T11:12:08.000Z</Time>
            <Position>
              <LatitudeDegrees>43.30732293426990509033203125</LatitudeDegrees>
              <LongitudeDegrees>-2.6580867357552051544189453125</LongitudeDegrees>
            </Position>
            <AltitudeMeters>98.1999969482421875</AltitudeMeters>
            <DistanceMeters>NAN</DistanceMeters>
          </Trackpoint>
          <Trackpoint>
            <Time>2022-07-11T11:12:10.000Z</Time>
            <Position>
              <LatitudeDegrees>43.30747690983116626739501953125</LatitudeDegrees>
              <LongitudeDegrees>-2.65816560946404933929443359375</LongitudeDegrees>
            </Position>
            <AltitudeMeters>97.8000030517578125</AltitudeMeters>
            <DistanceMeters>NAN</DistanceMeters>
          </Trackpoint>
          <Trackpoint>
            <Time>2022-07-11T11:12:12.000Z</Time>
            <Position>
              <LatitudeDegrees>43.30761621706187725067138671875</LatitudeDegrees>
              <LongitudeDegrees>-2.65821875073015689849853515625</LongitudeDegrees>
            </Position>
            <AltitudeMeters>97.1999969482421875</AltitudeMeters>
            <DistanceMeters>NAN</DistanceMeters>
          </Trackpoint>
          <Trackpoint>
            <Time>2022-07-11T11:12:15.000Z</Time>
            <Position>
              <LatitudeDegrees>43.30785610713064670562744140625</LatitudeDegrees>
              <LongitudeDegrees>-2.658303491771221160888671875</LongitudeDegrees>
            </Position>
            <AltitudeMeters>96.1999969482421875</AltitudeMeters>
            <DistanceMeters>NAN</DistanceMeters>
          </Trackpoint>
          <Trackpoint>
            <Time>2022-07-11T11:12:18.000Z</Time>
            <Position>
              <LatitudeDegrees>43.30808090977370738983154296875</LatitudeDegrees>
              <LongitudeDegrees>-2.65838471241295337677001953125</LongitudeDegrees>
            </Position>
            <AltitudeMeters>95</AltitudeMeters>
            <DistanceMeters>NAN</DistanceMeters>
          </Trackpoint>
          <Trackpoint>
            <Time>2022-07-11T11:12:21.000Z</Time>
            <Position>
              <LatitudeDegrees>43.30831878818571567535400390625</LatitudeDegrees>
              <LongitudeDegrees>-2.6584344170987606048583984375</LongitudeDegrees>
            </Position>
            <AltitudeMeters>94</AltitudeMeters>
            <DistanceMeters>NAN</DistanceMeters>
          </Trackpoint>
          <Trackpoint>
            <Time>2022-07-11T11:12:22.000Z</Time>
            <Position>
              <LatitudeDegrees>43.30839891918003559112548828125</LatitudeDegrees>
              <LongitudeDegrees>-2.6584236882627010345458984375</LongitudeDegrees>
            </Position>
            <AltitudeMeters>93.8000030517578125</AltitudeMeters>
            <DistanceMeters>NAN</DistanceMeters>
          </Trackpoint>
          <Trackpoint>
            <Time>2022-07-11T11:12:23.000Z</Time>
            <Position>
              <LatitudeDegrees>43.30847351811826229095458984375</LatitudeDegrees>
              <LongitudeDegrees>-2.658394686877727508544921875</LongitudeDegrees>
            </Position>
            <AltitudeMeters>93.59999847412109375</AltitudeMeters>
            <DistanceMeters>NAN</DistanceMeters>
          </Trackpoint>
          <Trackpoint>
            <Time>2022-07-11T11:12:27.000Z</Time>
            <Position>
              <LatitudeDegrees>43.30872883088886737823486328125</LatitudeDegrees>
              <LongitudeDegrees>-2.658171392977237701416015625</LongitudeDegrees>
            </Position>
            <AltitudeMeters>93</AltitudeMeters>
            <DistanceMeters>NAN</DistanceMeters>
          </Trackpoint>
          <Trackpoint>
            <Time>2022-07-11T11:12:28.000Z</Time>
            <Position>
              <LatitudeDegrees>43.3088095486164093017578125</LatitudeDegrees>
              <LongitudeDegrees>-2.65811967663466930389404296875</LongitudeDegrees>
            </Position>
            <AltitudeMeters>92.59999847412109375</AltitudeMeters>
            <DistanceMeters>NAN</DistanceMeters>
          </Trackpoint>
          <Trackpoint>
            <Time>2022-07-11T11:12:30.000Z</Time>
            <Position>
              <LatitudeDegrees>43.3089257217943668365478515625</LatitudeDegrees>
              <LongitudeDegrees>-2.658080868422985076904296875</LongitudeDegrees>
            </Position>
            <AltitudeMeters>91.59999847412109375</AltitudeMeters>
            <DistanceMeters>NAN</DistanceMeters>
          </Trackpoint>
          <Trackpoint>
            <Time>2022-07-11T11:12:31.000Z</Time>
            <Position>
              <LatitudeDegrees>43.3089874126017093658447265625</LatitudeDegrees>
              <LongitudeDegrees>-2.65808212570846080780029296875</LongitudeDegrees>
            </Position>
            <AltitudeMeters>91.40000152587890625</AltitudeMeters>
            <DistanceMeters>NAN</DistanceMeters>
          </Trackpoint>
          <Trackpoint>
            <Time>2022-07-11T11:12:32.000Z</Time>
            <Position>
              <LatitudeDegrees>43.30905421636998653411865234375</LatitudeDegrees>
              <LongitudeDegrees>-2.65810240991413593292236328125</LongitudeDegrees>
            </Position>
            <AltitudeMeters>90.8000030517578125</AltitudeMeters>
            <DistanceMeters>NAN</DistanceMeters>
          </Trackpoint>
          <Trackpoint>
            <Time>2022-07-11T11:12:33.000Z</Time>
            <Position>
              <LatitudeDegrees>43.30911867320537567138671875</LatitudeDegrees>
              <LongitudeDegrees>-2.658141218125820159912109375</LongitudeDegrees>
            </Position>
            <AltitudeMeters>90.40000152587890625</AltitudeMeters>
            <DistanceMeters>NAN</DistanceMeters>
          </Trackpoint>
          <Trackpoint>
            <Time>2022-07-11T11:12:34.000Z</Time>
            <Position>
              <LatitudeDegrees>43.30917499959468841552734375</LatitudeDegrees>
              <LongitudeDegrees>-2.65819762833416461944580078125</LongitudeDegrees>
            </Position>
            <AltitudeMeters>90</AltitudeMeters>
            <DistanceMeters>NAN</DistanceMeters>
          </Trackpoint>
          <Trackpoint>
            <Time>2022-07-11T11:12:36.000Z</Time>
            <Position>
              <LatitudeDegrees>43.30926175229251384735107421875</LatitudeDegrees>
              <LongitudeDegrees>-2.65835235826671123504638671875</LongitudeDegrees>
            </Position>
            <AltitudeMeters>89.40000152587890625</AltitudeMeters>
            <DistanceMeters>NAN</DistanceMeters>
          </Trackpoint>
          <Trackpoint>
            <Time>2022-07-11T11:12:38.000Z</Time>
            <Position>
              <LatitudeDegrees>43.30928639508783817291259765625</LatitudeDegrees>
              <LongitudeDegrees>-2.6585343293845653533935546875</LongitudeDegrees>
            </Position>
            <AltitudeMeters>88.8000030517578125</AltitudeMeters>
            <DistanceMeters>NAN</DistanceMeters>
          </Trackpoint>
          <Trackpoint>
            <Time>2022-07-11T11:12:39.000Z</Time>
            <Position>
              <LatitudeDegrees>43.30927499569952487945556640625</LatitudeDegrees>
              <LongitudeDegrees>-2.6586282067000865936279296875</LongitudeDegrees>
            </Position>
            <AltitudeMeters>88.59999847412109375</AltitudeMeters>
            <DistanceMeters>NAN</DistanceMeters>
          </Trackpoint>
          <Trackpoint>
            <Time>2022-07-11T11:12:43.000Z</Time>
            <Position>
              <LatitudeDegrees>43.30919654108583927154541015625</LatitudeDegrees>
              <LongitudeDegrees>-2.6590181328356266021728515625</LongitudeDegrees>
            </Position>
            <AltitudeMeters>88.1999969482421875</AltitudeMeters>
            <DistanceMeters>NAN</DistanceMeters>
          </Trackpoint>
          <Trackpoint>
            <Time>2022-07-11T11:12:45.000Z</Time>
            <Position>
              <LatitudeDegrees>43.309161253273487091064453125</LatitudeDegrees>
              <LongitudeDegrees>-2.6592186279594898223876953125</LongitudeDegrees>
            </Position>
            <AltitudeMeters>87.8000030517578125</AltitudeMeters>
            <DistanceMeters>NAN</DistanceMeters>
          </Trackpoint>
          <Trackpoint>
            <Time>2022-07-11T11:12:48.000Z</Time>
            <Position>
              <LatitudeDegrees>43.309143818914890289306640625</LatitudeDegrees>
              <LongitudeDegrees>-2.65952280722558498382568359375</LongitudeDegrees>
            </Position>
            <AltitudeMeters>87</AltitudeMeters>
            <DistanceMeters>NAN</DistanceMeters>
          </Trackpoint>
          <Trackpoint>
            <Time>2022-07-11T11:12:49.000Z</Time>
            <Position>
              <LatitudeDegrees>43.30914574675261974334716796875</LatitudeDegrees>
              <LongitudeDegrees>-2.65962540172040462493896484375</LongitudeDegrees>
            </Position>
            <AltitudeMeters>86.8000030517578125</AltitudeMeters>
            <DistanceMeters>NAN</DistanceMeters>
          </Trackpoint>
          <Trackpoint>
            <Time>2022-07-11T11:12:55.000Z</Time>
            <Position>
              <LatitudeDegrees>43.30925873480737209320068359375</LatitudeDegrees>
              <LongitudeDegrees>-2.66019771806895732879638671875</LongitudeDegrees>
            </Position>
            <AltitudeMeters>86.40000152587890625</AltitudeMeters>
            <DistanceMeters>NAN</DistanceMeters>
          </Trackpoint>
          <Trackpoint>
            <Time>2022-07-11T11:13:00.000Z</Time>
            <Position>
              <LatitudeDegrees>43.30935160629451274871826171875</LatitudeDegrees>
              <LongitudeDegrees>-2.66061765141785144805908203125</LongitudeDegrees>
            </Position>
            <AltitudeMeters>85.8000030517578125</AltitudeMeters>
            <DistanceMeters>NAN</DistanceMeters>
          </Trackpoint>
          <Trackpoint>
            <Time>2022-07-11T11:13:08.000Z</Time>
            <Position>
              <LatitudeDegrees>43.30940474756062030792236328125</LatitudeDegrees>
              <LongitudeDegrees>-2.66120187006890773773193359375</LongitudeDegrees>
            </Position>
            <AltitudeMeters>84.8000030517578125</AltitudeMeters>
            <DistanceMeters>NAN</DistanceMeters>
          </Trackpoint>
          <Trackpoint>
            <Time>2022-07-11T11:13:09.000Z</Time>
            <Position>
              <LatitudeDegrees>43.30943022854626178741455078125</LatitudeDegrees>
              <LongitudeDegrees>-2.6613489724695682525634765625</LongitudeDegrees>
            </Position>
            <AltitudeMeters>84.59999847412109375</AltitudeMeters>
            <DistanceMeters>NAN</DistanceMeters>
          </Trackpoint>
          <Trackpoint>
            <Time>2022-07-11T11:13:11.000Z</Time>
            <Position>
              <LatitudeDegrees>43.309473060071468353271484375</LatitudeDegrees>
              <LongitudeDegrees>-2.66148232854902744293212890625</LongitudeDegrees>
            </Position>
            <AltitudeMeters>83.8000030517578125</AltitudeMeters>
            <DistanceMeters>NAN</DistanceMeters>
          </Trackpoint>
          <Trackpoint>
            <Time>2022-07-11T11:13:12.000Z</Time>
            <Position>
              <LatitudeDegrees>43.309502564370632171630859375</LatitudeDegrees>
              <LongitudeDegrees>-2.661539576947689056396484375</LongitudeDegrees>
            </Position>
            <AltitudeMeters>83.59999847412109375</AltitudeMeters>
            <DistanceMeters>NAN</DistanceMeters>
          </Trackpoint>
          <Trackpoint>
            <Time>2022-07-11T11:13:13.000Z</Time>
            <Position>
              <LatitudeDegrees>43.309536091983318328857421875</LatitudeDegrees>
              <LongitudeDegrees>-2.661589868366718292236328125</LongitudeDegrees>
            </Position>
            <AltitudeMeters>83.1999969482421875</AltitudeMeters>
            <DistanceMeters>NAN</DistanceMeters>
          </Trackpoint>
          <Trackpoint>
            <Time>2022-07-11T11:13:16.000Z</Time>
            <Position>
              <LatitudeDegrees>43.30965779721736907958984375</LatitudeDegrees>
              <LongitudeDegrees>-2.6617102324962615966796875</LongitudeDegrees>
            </Position>
            <AltitudeMeters>82.59999847412109375</AltitudeMeters>
            <DistanceMeters>NAN</DistanceMeters>
          </Trackpoint>
          <Trackpoint>
            <Time>2022-07-11T11:13:18.000Z</Time>
            <Position>
              <LatitudeDegrees>43.30975092016160488128662109375</LatitudeDegrees>
              <LongitudeDegrees>-2.6617462746798992156982421875</LongitudeDegrees>
            </Position>
            <AltitudeMeters>82.40000152587890625</AltitudeMeters>
            <DistanceMeters>NAN</DistanceMeters>
          </Trackpoint>
          <Trackpoint>
            <Time>2022-07-11T11:13:20.000Z</Time>
            <Position>
              <LatitudeDegrees>43.3098530955612659454345703125</LatitudeDegrees>
              <LongitudeDegrees>-2.6617482863366603851318359375</LongitudeDegrees>
            </Position>
            <AltitudeMeters>82.1999969482421875</AltitudeMeters>
            <DistanceMeters>NAN</DistanceMeters>
          </Trackpoint>
          <Trackpoint>
            <Time>2022-07-11T11:13:22.000Z</Time>
            <Position>
              <LatitudeDegrees>43.3099466376006603240966796875</LatitudeDegrees>
              <LongitudeDegrees>-2.66173261217772960662841796875</LongitudeDegrees>
            </Position>
            <AltitudeMeters>81.8000030517578125</AltitudeMeters>
            <DistanceMeters>NAN</DistanceMeters>
          </Trackpoint>
          <Trackpoint>
            <Time>2022-07-11T11:13:24.000Z</Time>
            <Position>
              <LatitudeDegrees>43.3100111782550811767578125</LatitudeDegrees>
              <LongitudeDegrees>-2.66168382950127124786376953125</LongitudeDegrees>
            </Position>
            <AltitudeMeters>81.40000152587890625</AltitudeMeters>
            <DistanceMeters>NAN</DistanceMeters>
          </Trackpoint>
          <Trackpoint>
            <Time>2022-07-11T11:13:25.000Z</Time>
            <Position>
              <LatitudeDegrees>43.3100338093936443328857421875</LatitudeDegrees>
              <LongitudeDegrees>-2.66165457665920257568359375</LongitudeDegrees>
            </Position>
            <AltitudeMeters>81.1999969482421875</AltitudeMeters>
            <DistanceMeters>NAN</DistanceMeters>
          </Trackpoint>
          <Trackpoint>
            <Time>2022-07-11T11:13:29.000Z</Time>
            <Position>
              <LatitudeDegrees>43.3101028762757778167724609375</LatitudeDegrees>
              <LongitudeDegrees>-2.66158006154000759124755859375</LongitudeDegrees>
            </Position>
            <AltitudeMeters>80.1999969482421875</AltitudeMeters>
            <DistanceMeters>NAN</DistanceMeters>
          </Trackpoint>
          <Trackpoint>
            <Time>2022-07-11T11:13:30.000Z</Time>
            <Position>
              <LatitudeDegrees>43.3101028762757778167724609375</LatitudeDegrees>
              <LongitudeDegrees>-2.66158006154000759124755859375</LongitudeDegrees>
            </Position>
            <AltitudeMeters>80</AltitudeMeters>
            <DistanceMeters>NAN</DistanceMeters>
          </Trackpoint>
          <Trackpoint>
            <Time>2022-07-11T11:13:32.000Z</Time>
            <Position>
              <LatitudeDegrees>43.3101079054176807403564453125</LatitudeDegrees>
              <LongitudeDegrees>-2.6615742780268192291259765625</LongitudeDegrees>
            </Position>
            <AltitudeMeters>79.59999847412109375</AltitudeMeters>
            <DistanceMeters>NAN</DistanceMeters>
          </Trackpoint>
          <Trackpoint>
            <Time>2022-07-11T11:13:50.000Z</Time>
            <Position>
              <LatitudeDegrees>43.310135565698146820068359375</LatitudeDegrees>
              <LongitudeDegrees>-2.661563716828823089599609375</LongitudeDegrees>
            </Position>
            <AltitudeMeters>79.59999847412109375</AltitudeMeters>
            <DistanceMeters>NAN</DistanceMeters>
          </Trackpoint>
          <Trackpoint>
            <Time>2022-07-11T11:13:54.000Z</Time>
            <Position>
              <LatitudeDegrees>43.3102473802864551544189453125</LatitudeDegrees>
              <LongitudeDegrees>-2.6615734398365020751953125</LongitudeDegrees>
            </Position>
            <AltitudeMeters>79.40000152587890625</AltitudeMeters>
            <DistanceMeters>NAN</DistanceMeters>
          </Trackpoint>
          <Trackpoint>
            <Time>2022-07-11T11:13:55.000Z</Time>
            <Position>
              <LatitudeDegrees>43.3102820813655853271484375</LatitudeDegrees>
              <LongitudeDegrees>-2.661555670201778411865234375</LongitudeDegrees>
            </Position>
            <AltitudeMeters>79.40000152587890625</AltitudeMeters>
            <DistanceMeters>NAN</DistanceMeters>
          </Trackpoint>
          <Trackpoint>
            <Time>2022-07-11T11:14:01.000Z</Time>
            <Position>
              <LatitudeDegrees>43.3105025254189968109130859375</LatitudeDegrees>
              <LongitudeDegrees>-2.66142181120812892913818359375</LongitudeDegrees>
            </Position>
            <AltitudeMeters>79</AltitudeMeters>
            <DistanceMeters>NAN</DistanceMeters>
          </Trackpoint>
          <Trackpoint>
            <Time>2022-07-11T11:14:09.000Z</Time>
            <Position>
              <LatitudeDegrees>43.310867138206958770751953125</LatitudeDegrees>
              <LongitudeDegrees>-2.6612537540495395660400390625</LongitudeDegrees>
            </Position>
            <AltitudeMeters>77.8000030517578125</AltitudeMeters>
            <DistanceMeters>NAN</DistanceMeters>
          </Trackpoint>
          <Trackpoint>
            <Time>2022-07-11T11:14:17.000Z</Time>
            <Position>
              <LatitudeDegrees>43.311197720468044281005859375</LatitudeDegrees>
              <LongitudeDegrees>-2.6611053943634033203125</LongitudeDegrees>
            </Position>
            <AltitudeMeters>76.8000030517578125</AltitudeMeters>
            <DistanceMeters>NAN</DistanceMeters>
          </Trackpoint>
          <Trackpoint>
            <Time>2022-07-11T11:14:18.000Z</Time>
            <Position>
              <LatitudeDegrees>43.31129738129675388336181640625</LatitudeDegrees>
              <LongitudeDegrees>-2.66103976406157016754150390625</LongitudeDegrees>
            </Position>
            <AltitudeMeters>76.59999847412109375</AltitudeMeters>
            <DistanceMeters>NAN</DistanceMeters>
          </Trackpoint>
          <Trackpoint>
            <Time>2022-07-11T11:14:22.000Z</Time>
            <Position>
              <LatitudeDegrees>43.3114718087017536163330078125</LatitudeDegrees>
              <LongitudeDegrees>-2.6608453877270221710205078125</LongitudeDegrees>
            </Position>
            <AltitudeMeters>76.1999969482421875</AltitudeMeters>
            <DistanceMeters>NAN</DistanceMeters>
          </Trackpoint>
          <Trackpoint>
            <Time>2022-07-11T11:14:23.000Z</Time>
            <Position>
              <LatitudeDegrees>43.31151145510375499725341796875</LatitudeDegrees>
              <LongitudeDegrees>-2.66078143380582332611083984375</LongitudeDegrees>
            </Position>
            <AltitudeMeters>75.8000030517578125</AltitudeMeters>
            <DistanceMeters>NAN</DistanceMeters>
          </Trackpoint>
          <Trackpoint>
            <Time>2022-07-11T11:14:24.000Z</Time>
            <Position>
              <LatitudeDegrees>43.311551101505756378173828125</LatitudeDegrees>
              <LongitudeDegrees>-2.66071521677076816558837890625</LongitudeDegrees>
            </Position>
            <AltitudeMeters>75.1999969482421875</AltitudeMeters>
            <DistanceMeters>NAN</DistanceMeters>
          </Trackpoint>
          <Trackpoint>
            <Time>2022-07-11T11:14:27.000Z</Time>
            <Position>
              <LatitudeDegrees>43.3116743154823780059814453125</LatitudeDegrees>
              <LongitudeDegrees>-2.66049183905124664306640625</LongitudeDegrees>
            </Position>
            <AltitudeMeters>73.8000030517578125</AltitudeMeters>
            <DistanceMeters>NAN</DistanceMeters>
          </Trackpoint>
          <Trackpoint>
            <Time>2022-07-11T11:14:28.000Z</Time>
            <Position>
              <LatitudeDegrees>43.31171647645533084869384765625</LatitudeDegrees>
              <LongitudeDegrees>-2.6604128815233707427978515625</LongitudeDegrees>
            </Position>
            <AltitudeMeters>73.59999847412109375</AltitudeMeters>
            <DistanceMeters>NAN</DistanceMeters>
          </Trackpoint>
          <Trackpoint>
            <Time>2022-07-11T11:14:30.000Z</Time>
            <Position>
              <LatitudeDegrees>43.31182502210140228271484375</LatitudeDegrees>
              <LongitudeDegrees>-2.66029201447963714599609375</LongitudeDegrees>
            </Position>
            <AltitudeMeters>72.8000030517578125</AltitudeMeters>
            <DistanceMeters>NAN</DistanceMeters>
          </Trackpoint>
          <Trackpoint>
            <Time>2022-07-11T11:14:31.000Z</Time>
            <Position>
              <LatitudeDegrees>43.31188595853745937347412109375</LatitudeDegrees>
              <LongitudeDegrees>-2.66025203280150890350341796875</LongitudeDegrees>
            </Position>
            <AltitudeMeters>72.40000152587890625</AltitudeMeters>
            <DistanceMeters>NAN</DistanceMeters>
          </Trackpoint>
          <Trackpoint>
            <Time>2022-07-11T11:14:32.000Z</Time>
            <Position>
              <LatitudeDegrees>43.3119415305554866790771484375</LatitudeDegrees>
              <LongitudeDegrees>-2.660225294530391693115234375</LongitudeDegrees>
            </Position>
            <AltitudeMeters>72</AltitudeMeters>
            <DistanceMeters>NAN</DistanceMeters>
          </Trackpoint>
          <Trackpoint>
            <Time>2022-07-11T11:14:33.000Z</Time>
            <Position>
              <LatitudeDegrees>43.31200179643929004669189453125</LatitudeDegrees>
              <LongitudeDegrees>-2.660217583179473876953125</LongitudeDegrees>
            </Position>
            <AltitudeMeters>71.59999847412109375</AltitudeMeters>
            <DistanceMeters>NAN</DistanceMeters>
          </Trackpoint>
          <Trackpoint>
            <Time>2022-07-11T11:14:34.000Z</Time>
            <Position>
              <LatitudeDegrees>43.31206767819821834564208984375</LatitudeDegrees>
              <LongitudeDegrees>-2.6602241210639476776123046875</LongitudeDegrees>
            </Position>
            <AltitudeMeters>71.1999969482421875</AltitudeMeters>
            <DistanceMeters>NAN</DistanceMeters>
          </Trackpoint>
          <Trackpoint>
            <Time>2022-07-11T11:14:36.000Z</Time>
            <Position>
              <LatitudeDegrees>43.312222324311733245849609375</LatitudeDegrees>
              <LongitudeDegrees>-2.6602831296622753143310546875</LongitudeDegrees>
            </Position>
            <AltitudeMeters>70.8000030517578125</AltitudeMeters>
            <DistanceMeters>NAN</DistanceMeters>
          </Trackpoint>
          <Trackpoint>
            <Time>2022-07-11T11:14:37.000Z</Time>
            <Position>
              <LatitudeDegrees>43.31227018497884273529052734375</LatitudeDegrees>
              <LongitudeDegrees>-2.66032193787395954132080078125</LongitudeDegrees>
            </Position>
            <AltitudeMeters>70.59999847412109375</AltitudeMeters>
            <DistanceMeters>NAN</DistanceMeters>
          </Trackpoint>
          <Trackpoint>
            <Time>2022-07-11T11:14:38.000Z</Time>
            <Position>
              <LatitudeDegrees>43.3123270981013774871826171875</LatitudeDegrees>
              <LongitudeDegrees>-2.6603800244629383087158203125</LongitudeDegrees>
            </Position>
            <AltitudeMeters>70.59999847412109375</AltitudeMeters>
            <DistanceMeters>NAN</DistanceMeters>
          </Trackpoint>
          <Trackpoint>
            <Time>2022-07-11T11:14:40.000Z</Time>
            <Position>
              <LatitudeDegrees>43.31240697763860225677490234375</LatitudeDegrees>
              <LongitudeDegrees>-2.6605221815407276153564453125</LongitudeDegrees>
            </Position>
            <AltitudeMeters>70.40000152587890625</AltitudeMeters>
            <DistanceMeters>NAN</DistanceMeters>
          </Trackpoint>
          <Trackpoint>
            <Time>2022-07-11T11:14:45.000Z</Time>
            <Position>
              <LatitudeDegrees>43.31251979805529117584228515625</LatitudeDegrees>
              <LongitudeDegrees>-2.6609027199447154998779296875</LongitudeDegrees>
            </Position>
            <AltitudeMeters>69.8000030517578125</AltitudeMeters>
            <DistanceMeters>NAN</DistanceMeters>
          </Trackpoint>
          <Trackpoint>
            <Time>2022-07-11T11:14:48.000Z</Time>
            <Position>
              <LatitudeDegrees>43.312585763633251190185546875</LatitudeDegrees>
              <LongitudeDegrees>-2.66111503355205059051513671875</LongitudeDegrees>
            </Position>
            <AltitudeMeters>69.8000030517578125</AltitudeMeters>
            <DistanceMeters>NAN</DistanceMeters>
          </Trackpoint>
          <Trackpoint>
            <Time>2022-07-11T11:14:54.000Z</Time>
            <Position>
              <LatitudeDegrees>43.31271258182823657989501953125</LatitudeDegrees>
              <LongitudeDegrees>-2.66152390278875827789306640625</LongitudeDegrees>
            </Position>
            <AltitudeMeters>69.59999847412109375</AltitudeMeters>
            <DistanceMeters>NAN</DistanceMeters>
          </Trackpoint>
          <Trackpoint>
            <Time>2022-07-11T11:15:00.000Z</Time>
            <Position>
              <LatitudeDegrees>43.31287083216011524200439453125</LatitudeDegrees>
              <LongitudeDegrees>-2.6618860848248004913330078125</LongitudeDegrees>
            </Position>
            <AltitudeMeters>69.59999847412109375</AltitudeMeters>
            <DistanceMeters>NAN</DistanceMeters>
          </Trackpoint>
          <Trackpoint>
            <Time>2022-07-11T11:15:02.000Z</Time>
            <Position>
              <LatitudeDegrees>43.312925063073635101318359375</LatitudeDegrees>
              <LongitudeDegrees>-2.6619846560060977935791015625</LongitudeDegrees>
            </Position>
            <AltitudeMeters>69.40000152587890625</AltitudeMeters>
            <DistanceMeters>NAN</DistanceMeters>
          </Trackpoint>
          <Trackpoint>
            <Time>2022-07-11T11:15:05.000Z</Time>
            <Position>
              <LatitudeDegrees>43.31299387849867343902587890625</LatitudeDegrees>
              <LongitudeDegrees>-2.66212538816034793853759765625</LongitudeDegrees>
            </Position>
            <AltitudeMeters>69.40000152587890625</AltitudeMeters>
            <DistanceMeters>NAN</DistanceMeters>
          </Trackpoint>
          <Trackpoint>
            <Time>2022-07-11T11:15:08.000Z</Time>
            <Position>
              <LatitudeDegrees>43.3130489476025104522705078125</LatitudeDegrees>
              <LongitudeDegrees>-2.6622641086578369140625</LongitudeDegrees>
            </Position>
            <AltitudeMeters>69.40000152587890625</AltitudeMeters>
            <DistanceMeters>NAN</DistanceMeters>
          </Trackpoint>
          <Trackpoint>
            <Time>2022-07-11T11:15:11.000Z</Time>
            <Position>
              <LatitudeDegrees>43.31310041248798370361328125</LatitudeDegrees>
              <LongitudeDegrees>-2.66241439618170261383056640625</LongitudeDegrees>
            </Position>
            <AltitudeMeters>69.40000152587890625</AltitudeMeters>
            <DistanceMeters>NAN</DistanceMeters>
          </Trackpoint>
          <Trackpoint>
            <Time>2022-07-11T11:15:14.000Z</Time>
            <Position>
              <LatitudeDegrees>43.313123546540737152099609375</LatitudeDegrees>
              <LongitudeDegrees>-2.66252419911324977874755859375</LongitudeDegrees>
            </Position>
            <AltitudeMeters>69.40000152587890625</AltitudeMeters>
            <DistanceMeters>NAN</DistanceMeters>
          </Trackpoint>
          <Trackpoint>
            <Time>2022-07-11T11:15:19.000Z</Time>
            <Position>
              <LatitudeDegrees>43.31316788680851459503173828125</LatitudeDegrees>
              <LongitudeDegrees>-2.66285092569887638092041015625</LongitudeDegrees>
            </Position>
            <AltitudeMeters>69.1999969482421875</AltitudeMeters>
            <DistanceMeters>NAN</DistanceMeters>
          </Trackpoint>
          <Trackpoint>
            <Time>2022-07-11T11:15:23.000Z</Time>
            <Position>
              <LatitudeDegrees>43.313198648393154144287109375</LatitudeDegrees>
              <LongitudeDegrees>-2.663076482713222503662109375</LongitudeDegrees>
            </Position>
            <AltitudeMeters>69</AltitudeMeters>
            <DistanceMeters>NAN</DistanceMeters>
          </Trackpoint>
          <Trackpoint>
            <Time>2022-07-11T11:15:25.000Z</Time>
            <Position>
              <LatitudeDegrees>43.313228823244571685791015625</LatitudeDegrees>
              <LongitudeDegrees>-2.66320346854627132415771484375</LongitudeDegrees>
            </Position>
            <AltitudeMeters>69</AltitudeMeters>
            <DistanceMeters>NAN</DistanceMeters>
          </Trackpoint>
          <Trackpoint>
            <Time>2022-07-11T11:15:26.000Z</Time>
            <Position>
              <LatitudeDegrees>43.313248269259929656982421875</LatitudeDegrees>
              <LongitudeDegrees>-2.663260884582996368408203125</LongitudeDegrees>
            </Position>
            <AltitudeMeters>68.8000030517578125</AltitudeMeters>
            <DistanceMeters>NAN</DistanceMeters>
          </Trackpoint>
          <Trackpoint>
            <Time>2022-07-11T11:15:27.000Z</Time>
            <Position>
              <LatitudeDegrees>43.3132692240178585052490234375</LatitudeDegrees>
              <LongitudeDegrees>-2.663304470479488372802734375</LongitudeDegrees>
            </Position>
            <AltitudeMeters>68.59999847412109375</AltitudeMeters>
            <DistanceMeters>NAN</DistanceMeters>
          </Trackpoint>
          <Trackpoint>
            <Time>2022-07-11T11:15:28.000Z</Time>
            <Position>
              <LatitudeDegrees>43.31330367363989353179931640625</LatitudeDegrees>
              <LongitudeDegrees>-2.66337253153324127197265625</LongitudeDegrees>
            </Position>
            <AltitudeMeters>68.59999847412109375</AltitudeMeters>
            <DistanceMeters>NAN</DistanceMeters>
          </Trackpoint>
          <Trackpoint>
            <Time>2022-07-11T11:15:29.000Z</Time>
            <Position>
              <LatitudeDegrees>43.313338458538055419921875</LatitudeDegrees>
              <LongitudeDegrees>-2.6634263433516025543212890625</LongitudeDegrees>
            </Position>
            <AltitudeMeters>68.40000152587890625</AltitudeMeters>
            <DistanceMeters>NAN</DistanceMeters>
          </Trackpoint>
          <Trackpoint>
            <Time>2022-07-11T11:15:30.000Z</Time>
            <Position>
              <LatitudeDegrees>43.31337760202586650848388671875</LatitudeDegrees>
              <LongitudeDegrees>-2.66347604803740978240966796875</LongitudeDegrees>
            </Position>
            <AltitudeMeters>67.8000030517578125</AltitudeMeters>
            <DistanceMeters>NAN</DistanceMeters>
          </Trackpoint>
          <Trackpoint>
            <Time>2022-07-11T11:15:31.000Z</Time>
            <Position>
              <LatitudeDegrees>43.31342102028429508209228515625</LatitudeDegrees>
              <LongitudeDegrees>-2.663519047200679779052734375</LongitudeDegrees>
            </Position>
            <AltitudeMeters>67.1999969482421875</AltitudeMeters>
            <DistanceMeters>NAN</DistanceMeters>
          </Trackpoint>
          <Trackpoint>
            <Time>2022-07-11T11:15:33.000Z</Time>
            <Position>
              <LatitudeDegrees>43.31351975910365581512451171875</LatitudeDegrees>
              <LongitudeDegrees>-2.6635849289596080780029296875</LongitudeDegrees>
            </Position>
            <AltitudeMeters>66.1999969482421875</AltitudeMeters>
            <DistanceMeters>NAN</DistanceMeters>
          </Trackpoint>
          <Trackpoint>
            <Time>2022-07-11T11:15:37.000Z</Time>
            <Position>
              <LatitudeDegrees>43.31374950706958770751953125</LatitudeDegrees>
              <LongitudeDegrees>-2.66367855481803417205810546875</LongitudeDegrees>
            </Position>
            <AltitudeMeters>65</AltitudeMeters>
            <DistanceMeters>NAN</DistanceMeters>
          </Trackpoint>
          <Trackpoint>
            <Time>2022-07-11T11:15:38.000Z</Time>
            <Position>
              <LatitudeDegrees>43.3137999661266803741455078125</LatitudeDegrees>
              <LongitudeDegrees>-2.66370604746043682098388671875</LongitudeDegrees>
            </Position>
            <AltitudeMeters>64.59999847412109375</AltitudeMeters>
            <DistanceMeters>NAN</DistanceMeters>
          </Trackpoint>
          <Trackpoint>
            <Time>2022-07-11T11:15:42.000Z</Time>
            <Position>
              <LatitudeDegrees>43.3140318095684051513671875</LatitudeDegrees>
              <LongitudeDegrees>-2.66388827003538608551025390625</LongitudeDegrees>
            </Position>
            <AltitudeMeters>64.1999969482421875</AltitudeMeters>
            <DistanceMeters>NAN</DistanceMeters>
          </Trackpoint>
          <Trackpoint>
            <Time>2022-07-11T11:15:43.000Z</Time>
            <Position>
              <LatitudeDegrees>43.31409542821347713470458984375</LatitudeDegrees>
              <LongitudeDegrees>-2.66396169550716876983642578125</LongitudeDegrees>
            </Position>
            <AltitudeMeters>63.59999847412109375</AltitudeMeters>
            <DistanceMeters>NAN</DistanceMeters>
          </Trackpoint>
          <Trackpoint>
            <Time>2022-07-11T11:15:45.000Z</Time>
            <Position>
              <LatitudeDegrees>43.31419416703283786773681640625</LatitudeDegrees>
              <LongitudeDegrees>-2.66409764997661113739013671875</LongitudeDegrees>
            </Position>
            <AltitudeMeters>63</AltitudeMeters>
            <DistanceMeters>NAN</DistanceMeters>
          </Trackpoint>
          <Trackpoint>
            <Time>2022-07-11T11:15:47.000Z</Time>
            <Position>
              <LatitudeDegrees>43.314280919730663299560546875</LatitudeDegrees>
              <LongitudeDegrees>-2.66425154171884059906005859375</LongitudeDegrees>
            </Position>
            <AltitudeMeters>62.59999847412109375</AltitudeMeters>
            <DistanceMeters>NAN</DistanceMeters>
          </Trackpoint>
          <Trackpoint>
            <Time>2022-07-11T11:15:49.000Z</Time>
            <Position>
              <LatitudeDegrees>43.31437119282782077789306640625</LatitudeDegrees>
              <LongitudeDegrees>-2.66439923085272312164306640625</LongitudeDegrees>
            </Position>
            <AltitudeMeters>62</AltitudeMeters>
            <DistanceMeters>NAN</DistanceMeters>
          </Trackpoint>
          <Trackpoint>
            <Time>2022-07-11T11:15:54.000Z</Time>
            <Position>
              <LatitudeDegrees>43.314658105373382568359375</LatitudeDegrees>
              <LongitudeDegrees>-2.664717324078083038330078125</LongitudeDegrees>
            </Position>
            <AltitudeMeters>61.40000152587890625</AltitudeMeters>
            <DistanceMeters>NAN</DistanceMeters>
          </Trackpoint>
          <Trackpoint>
            <Time>2022-07-11T11:16:00.000Z</Time>
            <Position>
              <LatitudeDegrees>43.315011821687221527099609375</LatitudeDegrees>
              <LongitudeDegrees>-2.66504782252013683319091796875</LongitudeDegrees>
            </Position>
            <AltitudeMeters>60.59999847412109375</AltitudeMeters>
            <DistanceMeters>NAN</DistanceMeters>
          </Trackpoint>
          <Trackpoint>
            <Time>2022-07-11T11:16:02.000Z</Time>
            <Position>
              <LatitudeDegrees>43.31511131487786769866943359375</LatitudeDegrees>
              <LongitudeDegrees>-2.66516936011612415313720703125</LongitudeDegrees>
            </Position>
            <AltitudeMeters>60.200000762939453125</AltitudeMeters>
            <DistanceMeters>NAN</DistanceMeters>
          </Trackpoint>
          <Trackpoint>
            <Time>2022-07-11T11:16:03.000Z</Time>
            <Position>
              <LatitudeDegrees>43.31516345031559467315673828125</LatitudeDegrees>
              <LongitudeDegrees>-2.665245719254016876220703125</LongitudeDegrees>
            </Position>
            <AltitudeMeters>59.59999847412109375</AltitudeMeters>
            <DistanceMeters>NAN</DistanceMeters>
          </Trackpoint>
          <Trackpoint>
            <Time>2022-07-11T11:16:05.000Z</Time>
            <Position>
              <LatitudeDegrees>43.31528381444513797760009765625</LatitudeDegrees>
              <LongitudeDegrees>-2.66541595570743083953857421875</LongitudeDegrees>
            </Position>
            <AltitudeMeters>59</AltitudeMeters>
            <DistanceMeters>NAN</DistanceMeters>
          </Trackpoint>
          <Trackpoint>
            <Time>2022-07-11T11:16:06.000Z</Time>
            <Position>
              <LatitudeDegrees>43.3153388835489749908447265625</LatitudeDegrees>
              <LongitudeDegrees>-2.66549826599657535552978515625</LongitudeDegrees>
            </Position>
            <AltitudeMeters>59</AltitudeMeters>
            <DistanceMeters>NAN</DistanceMeters>
          </Trackpoint>
          <Trackpoint>
            <Time>2022-07-11T11:16:08.000Z</Time>
            <Position>
              <LatitudeDegrees>43.3154441602528095245361328125</LatitudeDegrees>
              <LongitudeDegrees>-2.66563229262828826904296875</LongitudeDegrees>
            </Position>
            <AltitudeMeters>58.40000152587890625</AltitudeMeters>
            <DistanceMeters>NAN</DistanceMeters>
          </Trackpoint>
          <Trackpoint>
            <Time>2022-07-11T11:16:09.000Z</Time>
            <Position>
              <LatitudeDegrees>43.31551842391490936279296875</LatitudeDegrees>
              <LongitudeDegrees>-2.66571317799389362335205078125</LongitudeDegrees>
            </Position>
            <AltitudeMeters>58</AltitudeMeters>
            <DistanceMeters>NAN</DistanceMeters>
          </Trackpoint>
          <Trackpoint>
            <Time>2022-07-11T11:16:10.000Z</Time>
            <Position>
              <LatitudeDegrees>43.31558019854128360748291015625</LatitudeDegrees>
              <LongitudeDegrees>-2.66577755101025104522705078125</LongitudeDegrees>
            </Position>
            <AltitudeMeters>57.59999847412109375</AltitudeMeters>
            <DistanceMeters>NAN</DistanceMeters>
          </Trackpoint>
          <Trackpoint>
            <Time>2022-07-11T11:16:12.000Z</Time>
            <Position>
              <LatitudeDegrees>43.3156915940344333648681640625</LatitudeDegrees>
              <LongitudeDegrees>-2.66589791513979434967041015625</LongitudeDegrees>
            </Position>
            <AltitudeMeters>56.799999237060546875</AltitudeMeters>
            <DistanceMeters>NAN</DistanceMeters>
          </Trackpoint>
          <Trackpoint>
            <Time>2022-07-11T11:16:13.000Z</Time>
            <Position>
              <LatitudeDegrees>43.31575722433626651763916015625</LatitudeDegrees>
              <LongitudeDegrees>-2.66598793677985668182373046875</LongitudeDegrees>
            </Position>
            <AltitudeMeters>56.59999847412109375</AltitudeMeters>
            <DistanceMeters>NAN</DistanceMeters>
          </Trackpoint>
          <Trackpoint>
            <Time>2022-07-11T11:16:14.000Z</Time>
            <Position>
              <LatitudeDegrees>43.3157921768724918365478515625</LatitudeDegrees>
              <LongitudeDegrees>-2.666057758033275604248046875</LongitudeDegrees>
            </Position>
            <AltitudeMeters>56.200000762939453125</AltitudeMeters>
            <DistanceMeters>NAN</DistanceMeters>
          </Trackpoint>
          <Trackpoint>
            <Time>2022-07-11T11:16:15.000Z</Time>
            <Position>
              <LatitudeDegrees>43.31582796759903430938720703125</LatitudeDegrees>
              <LongitudeDegrees>-2.66614819876849651336669921875</LongitudeDegrees>
            </Position>
            <AltitudeMeters>55.799999237060546875</AltitudeMeters>
            <DistanceMeters>NAN</DistanceMeters>
          </Trackpoint>
          <Trackpoint>
            <Time>2022-07-11T11:16:17.000Z</Time>
            <Position>
              <LatitudeDegrees>43.31587691791355609893798828125</LatitudeDegrees>
              <LongitudeDegrees>-2.666348107159137725830078125</LongitudeDegrees>
            </Position>
            <AltitudeMeters>55</AltitudeMeters>
            <DistanceMeters>NAN</DistanceMeters>
          </Trackpoint>
          <Trackpoint>
            <Time>2022-07-11T11:16:18.000Z</Time>
            <Position>
              <LatitudeDegrees>43.3158847130835056304931640625</LatitudeDegrees>
              <LongitudeDegrees>-2.6664550602436065673828125</LongitudeDegrees>
            </Position>
            <AltitudeMeters>54.200000762939453125</AltitudeMeters>
            <DistanceMeters>NAN</DistanceMeters>
          </Trackpoint>
          <Trackpoint>
            <Time>2022-07-11T11:16:19.000Z</Time>
            <Position>
              <LatitudeDegrees>43.31587943248450756072998046875</LatitudeDegrees>
              <LongitudeDegrees>-2.66656511463224887847900390625</LongitudeDegrees>
            </Position>
            <AltitudeMeters>53.59999847412109375</AltitudeMeters>
            <DistanceMeters>NAN</DistanceMeters>
          </Trackpoint>
          <Trackpoint>
            <Time>2022-07-11T11:16:20.000Z</Time>
            <Position>
              <LatitudeDegrees>43.3158635906875133514404296875</LatitudeDegrees>
              <LongitudeDegrees>-2.6666895858943462371826171875</LongitudeDegrees>
            </Position>
            <AltitudeMeters>53.200000762939453125</AltitudeMeters>
            <DistanceMeters>NAN</DistanceMeters>
          </Trackpoint>
          <Trackpoint>
            <Time>2022-07-11T11:16:21.000Z</Time>
            <Position>
              <LatitudeDegrees>43.31583769060671329498291015625</LatitudeDegrees>
              <LongitudeDegrees>-2.66677415929734706878662109375</LongitudeDegrees>
            </Position>
            <AltitudeMeters>52.59999847412109375</AltitudeMeters>
            <DistanceMeters>NAN</DistanceMeters>
          </Trackpoint>
          <Trackpoint>
            <Time>2022-07-11T11:16:23.000Z</Time>
            <Position>
              <LatitudeDegrees>43.31575445830821990966796875</LatitudeDegrees>
              <LongitudeDegrees>-2.6669718883931636810302734375</LongitudeDegrees>
            </Position>
            <AltitudeMeters>51.799999237060546875</AltitudeMeters>
            <DistanceMeters>NAN</DistanceMeters>
          </Trackpoint>
          <Trackpoint>
            <Time>2022-07-11T11:16:25.000Z</Time>
            <Position>
              <LatitudeDegrees>43.31565379165112972259521484375</LatitudeDegrees>
              <LongitudeDegrees>-2.66718856059014797210693359375</LongitudeDegrees>
            </Position>
            <AltitudeMeters>50.799999237060546875</AltitudeMeters>
            <DistanceMeters>NAN</DistanceMeters>
          </Trackpoint>
          <Trackpoint>
            <Time>2022-07-11T11:16:26.000Z</Time>
            <Position>
              <LatitudeDegrees>43.3156250417232513427734375</LatitudeDegrees>
              <LongitudeDegrees>-2.6672682724893093109130859375</LongitudeDegrees>
            </Position>
            <AltitudeMeters>50.40000152587890625</AltitudeMeters>
            <DistanceMeters>NAN</DistanceMeters>
          </Trackpoint>
          <Trackpoint>
            <Time>2022-07-11T11:16:27.000Z</Time>
            <Position>
              <LatitudeDegrees>43.31559813581407070159912109375</LatitudeDegrees>
              <LongitudeDegrees>-2.66736944206058979034423828125</LongitudeDegrees>
            </Position>
            <AltitudeMeters>50</AltitudeMeters>
            <DistanceMeters>NAN</DistanceMeters>
          </Trackpoint>
          <Trackpoint>
            <Time>2022-07-11T11:16:28.000Z</Time>
            <Position>
              <LatitudeDegrees>43.31558388657867908477783203125</LatitudeDegrees>
              <LongitudeDegrees>-2.667475976049900054931640625</LongitudeDegrees>
            </Position>
            <AltitudeMeters>49.40000152587890625</AltitudeMeters>
            <DistanceMeters>NAN</DistanceMeters>
          </Trackpoint>
          <Trackpoint>
            <Time>2022-07-11T11:16:29.000Z</Time>
            <Position>
              <LatitudeDegrees>43.31557751633226871490478515625</LatitudeDegrees>
              <LongitudeDegrees>-2.66758586280047893524169921875</LongitudeDegrees>
            </Position>
            <AltitudeMeters>49</AltitudeMeters>
            <DistanceMeters>NAN</DistanceMeters>
          </Trackpoint>
          <Trackpoint>
            <Time>2022-07-11T11:16:30.000Z</Time>
            <Position>
              <LatitudeDegrees>43.31558011472225189208984375</LatitudeDegrees>
              <LongitudeDegrees>-2.66770170070230960845947265625</LongitudeDegrees>
            </Position>
            <AltitudeMeters>48.799999237060546875</AltitudeMeters>
            <DistanceMeters>NAN</DistanceMeters>
          </Trackpoint>
          <Trackpoint>
            <Time>2022-07-11T11:16:32.000Z</Time>
            <Position>
              <LatitudeDegrees>43.31562747247517108917236328125</LatitudeDegrees>
              <LongitudeDegrees>-2.66790303401648998260498046875</LongitudeDegrees>
            </Position>
            <AltitudeMeters>48.40000152587890625</AltitudeMeters>
            <DistanceMeters>NAN</DistanceMeters>
          </Trackpoint>
          <Trackpoint>
            <Time>2022-07-11T11:16:34.000Z</Time>
            <Position>
              <LatitudeDegrees>43.31571799702942371368408203125</LatitudeDegrees>
              <LongitudeDegrees>-2.66807955689728260040283203125</LongitudeDegrees>
            </Position>
            <AltitudeMeters>48.200000762939453125</AltitudeMeters>
            <DistanceMeters>NAN</DistanceMeters>
          </Trackpoint>
          <Trackpoint>
            <Time>2022-07-11T11:16:35.000Z</Time>
            <Position>
              <LatitudeDegrees>43.315775580704212188720703125</LatitudeDegrees>
              <LongitudeDegrees>-2.6681527309119701385498046875</LongitudeDegrees>
            </Position>
            <AltitudeMeters>47.799999237060546875</AltitudeMeters>
            <DistanceMeters>NAN</DistanceMeters>
          </Trackpoint>
          <Trackpoint>
            <Time>2022-07-11T11:16:36.000Z</Time>
            <Position>
              <LatitudeDegrees>43.31584163010120391845703125</LatitudeDegrees>
              <LongitudeDegrees>-2.6682134158909320831298828125</LongitudeDegrees>
            </Position>
            <AltitudeMeters>47.59999847412109375</AltitudeMeters>
            <DistanceMeters>NAN</DistanceMeters>
          </Trackpoint>
          <Trackpoint>
            <Time>2022-07-11T11:16:37.000Z</Time>
            <Position>
              <LatitudeDegrees>43.3159155584871768951416015625</LatitudeDegrees>
              <LongitudeDegrees>-2.66826228238642215728759765625</LongitudeDegrees>
            </Position>
            <AltitudeMeters>47.200000762939453125</AltitudeMeters>
            <DistanceMeters>NAN</DistanceMeters>
          </Trackpoint>
          <Trackpoint>
            <Time>2022-07-11T11:16:39.000Z</Time>
            <Position>
              <LatitudeDegrees>43.3160714618861675262451171875</LatitudeDegrees>
              <LongitudeDegrees>-2.66833520494401454925537109375</LongitudeDegrees>
            </Position>
            <AltitudeMeters>46.40000152587890625</AltitudeMeters>
            <DistanceMeters>NAN</DistanceMeters>
          </Trackpoint>
          <Trackpoint>
            <Time>2022-07-11T11:16:40.000Z</Time>
            <Position>
              <LatitudeDegrees>43.31614882685244083404541015625</LatitudeDegrees>
              <LongitudeDegrees>-2.66836873255670070648193359375</LongitudeDegrees>
            </Position>
            <AltitudeMeters>46.200000762939453125</AltitudeMeters>
            <DistanceMeters>NAN</DistanceMeters>
          </Trackpoint>
          <Trackpoint>
            <Time>2022-07-11T11:16:44.000Z</Time>
            <Position>
              <LatitudeDegrees>43.3164610527455806732177734375</LatitudeDegrees>
              <LongitudeDegrees>-2.66850653104484081268310546875</LongitudeDegrees>
            </Position>
            <AltitudeMeters>45.200000762939453125</AltitudeMeters>
            <DistanceMeters>NAN</DistanceMeters>
          </Trackpoint>
          <Trackpoint>
            <Time>2022-07-11T11:16:46.000Z</Time>
            <Position>
              <LatitudeDegrees>43.31661603413522243499755859375</LatitudeDegrees>
              <LongitudeDegrees>-2.66857341863214969635009765625</LongitudeDegrees>
            </Position>
            <AltitudeMeters>44</AltitudeMeters>
            <DistanceMeters>NAN</DistanceMeters>
          </Trackpoint>
          <Trackpoint>
            <Time>2022-07-11T11:16:48.000Z</Time>
            <Position>
              <LatitudeDegrees>43.3167634718120098114013671875</LatitudeDegrees>
              <LongitudeDegrees>-2.66865782439708709716796875</LongitudeDegrees>
            </Position>
            <AltitudeMeters>43</AltitudeMeters>
            <DistanceMeters>NAN</DistanceMeters>
          </Trackpoint>
          <Trackpoint>
            <Time>2022-07-11T11:16:49.000Z</Time>
            <Position>
              <LatitudeDegrees>43.31682742573320865631103515625</LatitudeDegrees>
              <LongitudeDegrees>-2.66871741972863674163818359375</LongitudeDegrees>
            </Position>
            <AltitudeMeters>42.59999847412109375</AltitudeMeters>
            <DistanceMeters>NAN</DistanceMeters>
          </Trackpoint>
          <Trackpoint>
            <Time>2022-07-11T11:16:50.000Z</Time>
            <Position>
              <LatitudeDegrees>43.31688509322702884674072265625</LatitudeDegrees>
              <LongitudeDegrees>-2.66879050992429256439208984375</LongitudeDegrees>
            </Position>
            <AltitudeMeters>42.200000762939453125</AltitudeMeters>
            <DistanceMeters>NAN</DistanceMeters>
          </Trackpoint>
          <Trackpoint>
            <Time>2022-07-11T11:16:51.000Z</Time>
            <Position>
              <LatitudeDegrees>43.31693588756024837493896484375</LatitudeDegrees>
              <LongitudeDegrees>-2.6688739098608493804931640625</LongitudeDegrees>
            </Position>
            <AltitudeMeters>42</AltitudeMeters>
            <DistanceMeters>NAN</DistanceMeters>
          </Trackpoint>
          <Trackpoint>
            <Time>2022-07-11T11:16:53.000Z</Time>
            <Position>
              <LatitudeDegrees>43.3170155994594097137451171875</LatitudeDegrees>
              <LongitudeDegrees>-2.669063843786716461181640625</LongitudeDegrees>
            </Position>
            <AltitudeMeters>41.200000762939453125</AltitudeMeters>
            <DistanceMeters>NAN</DistanceMeters>
          </Trackpoint>
          <Trackpoint>
            <Time>2022-07-11T11:16:55.000Z</Time>
            <Position>
              <LatitudeDegrees>43.31705264747142791748046875</LatitudeDegrees>
              <LongitudeDegrees>-2.66928412020206451416015625</LongitudeDegrees>
            </Position>
            <AltitudeMeters>39.799999237060546875</AltitudeMeters>
            <DistanceMeters>NAN</DistanceMeters>
          </Trackpoint>
          <Trackpoint>
            <Time>2022-07-11T11:16:58.000Z</Time>
            <Position>
              <LatitudeDegrees>43.31703948788344860076904296875</LatitudeDegrees>
              <LongitudeDegrees>-2.6696467213332653045654296875</LongitudeDegrees>
            </Position>
            <AltitudeMeters>38.59999847412109375</AltitudeMeters>
            <DistanceMeters>NAN</DistanceMeters>
          </Trackpoint>
          <Trackpoint>
            <Time>2022-07-11T11:16:59.000Z</Time>
            <Position>
              <LatitudeDegrees>43.31703244708478450775146484375</LatitudeDegrees>
              <LongitudeDegrees>-2.66977001912891864776611328125</LongitudeDegrees>
            </Position>
            <AltitudeMeters>38.40000152587890625</AltitudeMeters>
            <DistanceMeters>NAN</DistanceMeters>
          </Trackpoint>
          <Trackpoint>
            <Time>2022-07-11T11:17:02.000Z</Time>
            <Position>
              <LatitudeDegrees>43.31703244708478450775146484375</LatitudeDegrees>
              <LongitudeDegrees>-2.6701446063816547393798828125</LongitudeDegrees>
            </Position>
            <AltitudeMeters>37.799999237060546875</AltitudeMeters>
            <DistanceMeters>NAN</DistanceMeters>
          </Trackpoint>
          <Trackpoint>
            <Time>2022-07-11T11:17:04.000Z</Time>
            <Position>
              <LatitudeDegrees>43.3170672319829463958740234375</LatitudeDegrees>
              <LongitudeDegrees>-2.6703970693051815032958984375</LongitudeDegrees>
            </Position>
            <AltitudeMeters>37.59999847412109375</AltitudeMeters>
            <DistanceMeters>NAN</DistanceMeters>
          </Trackpoint>
          <Trackpoint>
            <Time>2022-07-11T11:17:08.000Z</Time>
            <Position>
              <LatitudeDegrees>43.3171818964183330535888671875</LatitudeDegrees>
              <LongitudeDegrees>-2.6708433218300342559814453125</LongitudeDegrees>
            </Position>
            <AltitudeMeters>36.200000762939453125</AltitudeMeters>
            <DistanceMeters>NAN</DistanceMeters>
          </Trackpoint>
          <Trackpoint>
            <Time>2022-07-11T11:17:09.000Z</Time>
            <Position>
              <LatitudeDegrees>43.31720712594687938690185546875</LatitudeDegrees>
              <LongitudeDegrees>-2.67094465903937816619873046875</LongitudeDegrees>
            </Position>
            <AltitudeMeters>35.59999847412109375</AltitudeMeters>
            <DistanceMeters>NAN</DistanceMeters>
          </Trackpoint>
          <Trackpoint>
            <Time>2022-07-11T11:17:11.000Z</Time>
            <Position>
              <LatitudeDegrees>43.31725473515689373016357421875</LatitudeDegrees>
              <LongitudeDegrees>-2.67114146612584590911865234375</LongitudeDegrees>
            </Position>
            <AltitudeMeters>34.59999847412109375</AltitudeMeters>
            <DistanceMeters>NAN</DistanceMeters>
          </Trackpoint>
          <Trackpoint>
            <Time>2022-07-11T11:17:13.000Z</Time>
            <Position>
              <LatitudeDegrees>43.31730385310947895050048828125</LatitudeDegrees>
              <LongitudeDegrees>-2.671339698135852813720703125</LongitudeDegrees>
            </Position>
            <AltitudeMeters>33.59999847412109375</AltitudeMeters>
            <DistanceMeters>NAN</DistanceMeters>
          </Trackpoint>
          <Trackpoint>
            <Time>2022-07-11T11:17:16.000Z</Time>
            <Position>
              <LatitudeDegrees>43.31737996079027652740478515625</LatitudeDegrees>
              <LongitudeDegrees>-2.67162912525236606597900390625</LongitudeDegrees>
            </Position>
            <AltitudeMeters>32.799999237060546875</AltitudeMeters>
            <DistanceMeters>NAN</DistanceMeters>
          </Trackpoint>
          <Trackpoint>
            <Time>2022-07-11T11:17:18.000Z</Time>
            <Position>
              <LatitudeDegrees>43.3174293301999568939208984375</LatitudeDegrees>
              <LongitudeDegrees>-2.67181822098791599273681640625</LongitudeDegrees>
            </Position>
            <AltitudeMeters>32.200000762939453125</AltitudeMeters>
            <DistanceMeters>NAN</DistanceMeters>
          </Trackpoint>
          <Trackpoint>
            <Time>2022-07-11T11:17:22.000Z</Time>
            <Position>
              <LatitudeDegrees>43.31754324026405811309814453125</LatitudeDegrees>
              <LongitudeDegrees>-2.67219289205968379974365234375</LongitudeDegrees>
            </Position>
            <AltitudeMeters>31</AltitudeMeters>
            <DistanceMeters>NAN</DistanceMeters>
          </Trackpoint>
          <Trackpoint>
            <Time>2022-07-11T11:17:25.000Z</Time>
            <Position>
              <LatitudeDegrees>43.31763393245637416839599609375</LatitudeDegrees>
              <LongitudeDegrees>-2.672452144324779510498046875</LongitudeDegrees>
            </Position>
            <AltitudeMeters>30.6000003814697265625</AltitudeMeters>
            <DistanceMeters>NAN</DistanceMeters>
          </Trackpoint>
          <Trackpoint>
            <Time>2022-07-11T11:17:28.000Z</Time>
            <Position>
              <LatitudeDegrees>43.31773334182798862457275390625</LatitudeDegrees>
              <LongitudeDegrees>-2.67268382012844085693359375</LongitudeDegrees>
            </Position>
            <AltitudeMeters>29.6000003814697265625</AltitudeMeters>
            <DistanceMeters>NAN</DistanceMeters>
          </Trackpoint>
          <Trackpoint>
            <Time>2022-07-11T11:17:30.000Z</Time>
            <Position>
              <LatitudeDegrees>43.3177850581705570220947265625</LatitudeDegrees>
              <LongitudeDegrees>-2.67283343710005283355712890625</LongitudeDegrees>
            </Position>
            <AltitudeMeters>29</AltitudeMeters>
            <DistanceMeters>NAN</DistanceMeters>
          </Trackpoint>
          <Trackpoint>
            <Time>2022-07-11T11:17:31.000Z</Time>
            <Position>
              <LatitudeDegrees>43.3178112097084522247314453125</LatitudeDegrees>
              <LongitudeDegrees>-2.6729009114205837249755859375</LongitudeDegrees>
            </Position>
            <AltitudeMeters>28.799999237060546875</AltitudeMeters>
            <DistanceMeters>NAN</DistanceMeters>
          </Trackpoint>
          <Trackpoint>
            <Time>2022-07-11T11:17:32.000Z</Time>
            <Position>
              <LatitudeDegrees>43.317839205265045166015625</LatitudeDegrees>
              <LongitudeDegrees>-2.6729652844369411468505859375</LongitudeDegrees>
            </Position>
            <AltitudeMeters>28.3999996185302734375</AltitudeMeters>
            <DistanceMeters>NAN</DistanceMeters>
          </Trackpoint>
          <Trackpoint>
            <Time>2022-07-11T11:17:35.000Z</Time>
            <Position>
              <LatitudeDegrees>43.31792771816253662109375</LatitudeDegrees>
              <LongitudeDegrees>-2.67315614037215709686279296875</LongitudeDegrees>
            </Position>
            <AltitudeMeters>27.3999996185302734375</AltitudeMeters>
            <DistanceMeters>NAN</DistanceMeters>
          </Trackpoint>
          <Trackpoint>
            <Time>2022-07-11T11:17:36.000Z</Time>
            <Position>
              <LatitudeDegrees>43.3179557137191295623779296875</LatitudeDegrees>
              <LongitudeDegrees>-2.6732150651514530181884765625</LongitudeDegrees>
            </Position>
            <AltitudeMeters>27.200000762939453125</AltitudeMeters>
            <DistanceMeters>NAN</DistanceMeters>
          </Trackpoint>
          <Trackpoint>
            <Time>2022-07-11T11:17:39.000Z</Time>
            <Position>
              <LatitudeDegrees>43.31803031265735626220703125</LatitudeDegrees>
              <LongitudeDegrees>-2.6733783446252346038818359375</LongitudeDegrees>
            </Position>
            <AltitudeMeters>26.3999996185302734375</AltitudeMeters>
            <DistanceMeters>NAN</DistanceMeters>
          </Trackpoint>
          <Trackpoint>
            <Time>2022-07-11T11:17:40.000Z</Time>
            <Position>
              <LatitudeDegrees>43.3180524408817291259765625</LatitudeDegrees>
              <LongitudeDegrees>-2.67342972569167613983154296875</LongitudeDegrees>
            </Position>
            <AltitudeMeters>26.200000762939453125</AltitudeMeters>
            <DistanceMeters>NAN</DistanceMeters>
          </Trackpoint>
          <Trackpoint>
            <Time>2022-07-11T11:17:41.000Z</Time>
            <Position>
              <LatitudeDegrees>43.31807322800159454345703125</LatitudeDegrees>
              <LongitudeDegrees>-2.67347532324492931365966796875</LongitudeDegrees>
            </Position>
            <AltitudeMeters>26</AltitudeMeters>
            <DistanceMeters>NAN</DistanceMeters>
          </Trackpoint>
          <Trackpoint>
            <Time>2022-07-11T11:17:45.000Z</Time>
            <Position>
              <LatitudeDegrees>43.31817188300192356109619140625</LatitudeDegrees>
              <LongitudeDegrees>-2.67360876314342021942138671875</LongitudeDegrees>
            </Position>
            <AltitudeMeters>25</AltitudeMeters>
            <DistanceMeters>NAN</DistanceMeters>
          </Trackpoint>
          <Trackpoint>
            <Time>2022-07-11T11:17:48.000Z</Time>
            <Position>
              <LatitudeDegrees>43.318201638758182525634765625</LatitudeDegrees>
              <LongitudeDegrees>-2.67368989996612071990966796875</LongitudeDegrees>
            </Position>
            <AltitudeMeters>24.3999996185302734375</AltitudeMeters>
            <DistanceMeters>NAN</DistanceMeters>
          </Trackpoint>
          <Trackpoint>
            <Time>2022-07-11T11:17:49.000Z</Time>
            <Position>
              <LatitudeDegrees>43.31821345724165439605712890625</LatitudeDegrees>
              <LongitudeDegrees>-2.67370264045894145965576171875</LongitudeDegrees>
            </Position>
            <AltitudeMeters>24.3999996185302734375</AltitudeMeters>
            <DistanceMeters>NAN</DistanceMeters>
          </Trackpoint>
          <Trackpoint>
            <Time>2022-07-11T11:17:51.000Z</Time>
            <Position>
              <LatitudeDegrees>43.31824229098856449127197265625</LatitudeDegrees>
              <LongitudeDegrees>-2.67372258938848972320556640625</LongitudeDegrees>
            </Position>
            <AltitudeMeters>24</AltitudeMeters>
            <DistanceMeters>NAN</DistanceMeters>
          </Trackpoint>
          <Trackpoint>
            <Time>2022-07-11T11:17:55.000Z</Time>
            <Position>
              <LatitudeDegrees>43.31825603730976581573486328125</LatitudeDegrees>
              <LongitudeDegrees>-2.67374002374708652496337890625</LongitudeDegrees>
            </Position>
            <AltitudeMeters>23.799999237060546875</AltitudeMeters>
            <DistanceMeters>NAN</DistanceMeters>
          </Trackpoint>
          <Trackpoint>
            <Time>2022-07-11T11:17:56.000Z</Time>
            <Position>
              <LatitudeDegrees>43.31825452856719493865966796875</LatitudeDegrees>
              <LongitudeDegrees>-2.67373851500451564788818359375</LongitudeDegrees>
            </Position>
            <AltitudeMeters>23.799999237060546875</AltitudeMeters>
            <DistanceMeters>NAN</DistanceMeters>
          </Trackpoint>
          <Trackpoint>
            <Time>2022-07-11T11:19:20.000Z</Time>
            <Position>
              <LatitudeDegrees>43.31832191906869411468505859375</LatitudeDegrees>
              <LongitudeDegrees>-2.67390179447829723358154296875</LongitudeDegrees>
            </Position>
            <AltitudeMeters>22.799999237060546875</AltitudeMeters>
            <DistanceMeters>NAN</DistanceMeters>
          </Trackpoint>
          <Trackpoint>
            <Time>2022-07-11T11:19:21.000Z</Time>
            <Position>
              <LatitudeDegrees>43.318308256566524505615234375</LatitudeDegrees>
              <LongitudeDegrees>-2.67391922883689403533935546875</LongitudeDegrees>
            </Position>
            <AltitudeMeters>22.799999237060546875</AltitudeMeters>
            <DistanceMeters>NAN</DistanceMeters>
          </Trackpoint>
          <Trackpoint>
            <Time>2022-07-11T11:19:26.000Z</Time>
            <Position>
              <LatitudeDegrees>43.31822217442095279693603515625</LatitudeDegrees>
              <LongitudeDegrees>-2.67407949082553386688232421875</LongitudeDegrees>
            </Position>
            <AltitudeMeters>22.799999237060546875</AltitudeMeters>
            <DistanceMeters>NAN</DistanceMeters>
          </Trackpoint>
          <Trackpoint>
            <Time>2022-07-11T11:19:33.000Z</Time>
            <Position>
              <LatitudeDegrees>43.31809678114950656890869140625</LatitudeDegrees>
              <LongitudeDegrees>-2.674363553524017333984375</LongitudeDegrees>
            </Position>
            <AltitudeMeters>22.200000762939453125</AltitudeMeters>
            <DistanceMeters>NAN</DistanceMeters>
          </Trackpoint>
          <Trackpoint>
            <Time>2022-07-11T11:19:36.000Z</Time>
            <Position>
              <LatitudeDegrees>43.3180254511535167694091796875</LatitudeDegrees>
              <LongitudeDegrees>-2.674524821341037750244140625</LongitudeDegrees>
            </Position>
            <AltitudeMeters>21.6000003814697265625</AltitudeMeters>
            <DistanceMeters>NAN</DistanceMeters>
          </Trackpoint>
          <Trackpoint>
            <Time>2022-07-11T11:19:40.000Z</Time>
            <Position>
              <LatitudeDegrees>43.317952193319797515869140625</LatitudeDegrees>
              <LongitudeDegrees>-2.67472523264586925506591796875</LongitudeDegrees>
            </Position>
            <AltitudeMeters>21</AltitudeMeters>
            <DistanceMeters>NAN</DistanceMeters>
          </Trackpoint>
          <Trackpoint>
            <Time>2022-07-11T11:19:44.000Z</Time>
            <Position>
              <LatitudeDegrees>43.31784733571112155914306640625</LatitudeDegrees>
              <LongitudeDegrees>-2.67489437945187091827392578125</LongitudeDegrees>
            </Position>
            <AltitudeMeters>20.6000003814697265625</AltitudeMeters>
            <DistanceMeters>NAN</DistanceMeters>
          </Trackpoint>
          <Trackpoint>
            <Time>2022-07-11T11:19:46.000Z</Time>
            <Position>
              <LatitudeDegrees>43.31779352389276027679443359375</LatitudeDegrees>
              <LongitudeDegrees>-2.67496772110462188720703125</LongitudeDegrees>
            </Position>
            <AltitudeMeters>20.3999996185302734375</AltitudeMeters>
            <DistanceMeters>NAN</DistanceMeters>
          </Trackpoint>
          <Trackpoint>
            <Time>2022-07-11T11:19:49.000Z</Time>
            <Position>
              <LatitudeDegrees>43.31771389581263065338134765625</LatitudeDegrees>
              <LongitudeDegrees>-2.6750916056334972381591796875</LongitudeDegrees>
            </Position>
            <AltitudeMeters>20.200000762939453125</AltitudeMeters>
            <DistanceMeters>NAN</DistanceMeters>
          </Trackpoint>
          <Trackpoint>
            <Time>2022-07-11T11:19:51.000Z</Time>
            <Position>
              <LatitudeDegrees>43.317664526402950286865234375</LatitudeDegrees>
              <LongitudeDegrees>-2.67516176216304302215576171875</LongitudeDegrees>
            </Position>
            <AltitudeMeters>20.200000762939453125</AltitudeMeters>
            <DistanceMeters>NAN</DistanceMeters>
          </Trackpoint>
          <Trackpoint>
            <Time>2022-07-11T11:19:55.000Z</Time>
            <Position>
              <LatitudeDegrees>43.3176472596824169158935546875</LatitudeDegrees>
              <LongitudeDegrees>-2.67518606968224048614501953125</LongitudeDegrees>
            </Position>
            <AltitudeMeters>20</AltitudeMeters>
            <DistanceMeters>NAN</DistanceMeters>
          </Trackpoint>
          <Trackpoint>
            <Time>2022-07-11T11:20:00.000Z</Time>
            <Position>
              <LatitudeDegrees>43.31760191358625888824462890625</LatitudeDegrees>
              <LongitudeDegrees>-2.67528648488223552703857421875</LongitudeDegrees>
            </Position>
            <AltitudeMeters>19.6000003814697265625</AltitudeMeters>
            <DistanceMeters>NAN</DistanceMeters>
          </Trackpoint>
          <Trackpoint>
            <Time>2022-07-11T11:20:02.000Z</Time>
            <Position>
              <LatitudeDegrees>43.317581713199615478515625</LatitudeDegrees>
              <LongitudeDegrees>-2.67535261809825897216796875</LongitudeDegrees>
            </Position>
            <AltitudeMeters>19.6000003814697265625</AltitudeMeters>
            <DistanceMeters>NAN</DistanceMeters>
          </Trackpoint>
          <Trackpoint>
            <Time>2022-07-11T11:20:08.000Z</Time>
            <Position>
              <LatitudeDegrees>43.317479453980922698974609375</LatitudeDegrees>
              <LongitudeDegrees>-2.67549184150993824005126953125</LongitudeDegrees>
            </Position>
            <AltitudeMeters>19.6000003814697265625</AltitudeMeters>
            <DistanceMeters>NAN</DistanceMeters>
          </Trackpoint>
          <Trackpoint>
            <Time>2022-07-11T11:20:13.000Z</Time>
            <Position>
              <LatitudeDegrees>43.317358754575252532958984375</LatitudeDegrees>
              <LongitudeDegrees>-2.67568496055901050567626953125</LongitudeDegrees>
            </Position>
            <AltitudeMeters>19.3999996185302734375</AltitudeMeters>
            <DistanceMeters>NAN</DistanceMeters>
          </Trackpoint>
          <Trackpoint>
            <Time>2022-07-11T11:20:15.000Z</Time>
            <Position>
              <LatitudeDegrees>43.3173180185258388519287109375</LatitudeDegrees>
              <LongitudeDegrees>-2.6757594756782054901123046875</LongitudeDegrees>
            </Position>
            <AltitudeMeters>19.200000762939453125</AltitudeMeters>
            <DistanceMeters>NAN</DistanceMeters>
          </Trackpoint>
          <Trackpoint>
            <Time>2022-07-11T11:20:19.000Z</Time>
            <Position>
              <LatitudeDegrees>43.3172187767922878265380859375</LatitudeDegrees>
              <LongitudeDegrees>-2.67588897608220577239990234375</LongitudeDegrees>
            </Position>
            <AltitudeMeters>19</AltitudeMeters>
            <DistanceMeters>NAN</DistanceMeters>
          </Trackpoint>
          <Trackpoint>
            <Time>2022-07-11T11:20:22.000Z</Time>
            <Position>
              <LatitudeDegrees>43.31715951673686504364013671875</LatitudeDegrees>
              <LongitudeDegrees>-2.67599525861442089080810546875</LongitudeDegrees>
            </Position>
            <AltitudeMeters>19</AltitudeMeters>
            <DistanceMeters>NAN</DistanceMeters>
          </Trackpoint>
          <Trackpoint>
            <Time>2022-07-11T11:20:24.000Z</Time>
            <Position>
              <LatitudeDegrees>43.31711207516491413116455078125</LatitudeDegrees>
              <LongitudeDegrees>-2.67607145011425018310546875</LongitudeDegrees>
            </Position>
            <AltitudeMeters>19</AltitudeMeters>
            <DistanceMeters>NAN</DistanceMeters>
          </Trackpoint>
          <Trackpoint>
            <Time>2022-07-11T11:20:28.000Z</Time>
            <Position>
              <LatitudeDegrees>43.31705356948077678680419921875</LatitudeDegrees>
              <LongitudeDegrees>-2.67620966769754886627197265625</LongitudeDegrees>
            </Position>
            <AltitudeMeters>19</AltitudeMeters>
            <DistanceMeters>NAN</DistanceMeters>
          </Trackpoint>
          <Trackpoint>
            <Time>2022-07-11T11:20:33.000Z</Time>
            <Position>
              <LatitudeDegrees>43.31704149954020977020263671875</LatitudeDegrees>
              <LongitudeDegrees>-2.67630186863243579864501953125</LongitudeDegrees>
            </Position>
            <AltitudeMeters>19</AltitudeMeters>
            <DistanceMeters>NAN</DistanceMeters>
          </Trackpoint>
          <Trackpoint>
            <Time>2022-07-11T11:20:39.000Z</Time>
            <Position>
              <LatitudeDegrees>43.31700210459530353546142578125</LatitudeDegrees>
              <LongitudeDegrees>-2.6763663254678249359130859375</LongitudeDegrees>
            </Position>
            <AltitudeMeters>18.799999237060546875</AltitudeMeters>
            <DistanceMeters>NAN</DistanceMeters>
          </Trackpoint>
          <Trackpoint>
            <Time>2022-07-11T11:20:41.000Z</Time>
            <Position>
              <LatitudeDegrees>43.3169897831976413726806640625</LatitudeDegrees>
              <LongitudeDegrees>-2.67638501711189746856689453125</LongitudeDegrees>
            </Position>
            <AltitudeMeters>18.6000003814697265625</AltitudeMeters>
            <DistanceMeters>NAN</DistanceMeters>
          </Trackpoint>
          <Trackpoint>
            <Time>2022-07-11T11:20:42.000Z</Time>
            <Position>
              <LatitudeDegrees>43.3169894479215145111083984375</LatitudeDegrees>
              <LongitudeDegrees>-2.67638526856899261474609375</LongitudeDegrees>
            </Position>
            <AltitudeMeters>18.6000003814697265625</AltitudeMeters>
            <DistanceMeters>NAN</DistanceMeters>
          </Trackpoint>
          <Trackpoint>
            <Time>2022-07-11T11:20:45.000Z</Time>
            <Position>
              <LatitudeDegrees>43.31699120812118053436279296875</LatitudeDegrees>
              <LongitudeDegrees>-2.67638753168284893035888671875</LongitudeDegrees>
            </Position>
            <AltitudeMeters>18.3999996185302734375</AltitudeMeters>
            <DistanceMeters>NAN</DistanceMeters>
          </Trackpoint>
          <Trackpoint>
            <Time>2022-07-11T11:20:50.000Z</Time>
            <Position>
              <LatitudeDegrees>43.31693370826542377471923828125</LatitudeDegrees>
              <LongitudeDegrees>-2.67642080783843994140625</LongitudeDegrees>
            </Position>
            <AltitudeMeters>18.200000762939453125</AltitudeMeters>
            <DistanceMeters>NAN</DistanceMeters>
          </Trackpoint>
          <Trackpoint>
            <Time>2022-07-11T11:20:56.000Z</Time>
            <Position>
              <LatitudeDegrees>43.31686095334589481353759765625</LatitudeDegrees>
              <LongitudeDegrees>-2.6765299402177333831787109375</LongitudeDegrees>
            </Position>
            <AltitudeMeters>18</AltitudeMeters>
            <DistanceMeters>NAN</DistanceMeters>
          </Trackpoint>
          <Trackpoint>
            <Time>2022-07-11T11:20:57.000Z</Time>
            <Position>
              <LatitudeDegrees>43.31686095334589481353759765625</LatitudeDegrees>
              <LongitudeDegrees>-2.6765299402177333831787109375</LongitudeDegrees>
            </Position>
            <AltitudeMeters>18</AltitudeMeters>
            <DistanceMeters>NAN</DistanceMeters>
          </Trackpoint>
          <Trackpoint>
            <Time>2022-07-11T11:21:02.000Z</Time>
            <Position>
              <LatitudeDegrees>43.31682692281901836395263671875</LatitudeDegrees>
              <LongitudeDegrees>-2.67658249475061893463134765625</LongitudeDegrees>
            </Position>
            <AltitudeMeters>17.799999237060546875</AltitudeMeters>
            <DistanceMeters>NAN</DistanceMeters>
          </Trackpoint>
          <Trackpoint>
            <Time>2022-07-11T11:21:03.000Z</Time>
            <Position>
              <LatitudeDegrees>43.316835053265094757080078125</LatitudeDegrees>
              <LongitudeDegrees>-2.67658132128417491912841796875</LongitudeDegrees>
            </Position>
            <AltitudeMeters>17.799999237060546875</AltitudeMeters>
            <DistanceMeters>NAN</DistanceMeters>
          </Trackpoint>
          <Trackpoint>
            <Time>2022-07-11T11:21:07.000Z</Time>
            <Position>
              <LatitudeDegrees>43.3168429322540760040283203125</LatitudeDegrees>
              <LongitudeDegrees>-2.67657109536230564117431640625</LongitudeDegrees>
            </Position>
            <AltitudeMeters>17.799999237060546875</AltitudeMeters>
            <DistanceMeters>NAN</DistanceMeters>
          </Trackpoint>
          <Trackpoint>
            <Time>2022-07-11T11:21:10.000Z</Time>
            <Position>
              <LatitudeDegrees>43.31680320203304290771484375</LatitudeDegrees>
              <LongitudeDegrees>-2.67655718140304088592529296875</LongitudeDegrees>
            </Position>
            <AltitudeMeters>17.799999237060546875</AltitudeMeters>
            <DistanceMeters>NAN</DistanceMeters>
          </Trackpoint>
          <Trackpoint>
            <Time>2022-07-11T11:21:11.000Z</Time>
            <Position>
              <LatitudeDegrees>43.31679155118763446807861328125</LatitudeDegrees>
              <LongitudeDegrees>-2.6765562593936920166015625</LongitudeDegrees>
            </Position>
            <AltitudeMeters>17.799999237060546875</AltitudeMeters>
            <DistanceMeters>NAN</DistanceMeters>
          </Trackpoint>
          <Trackpoint>
            <Time>2022-07-11T11:21:14.000Z</Time>
            <Position>
              <LatitudeDegrees>43.31673237495124340057373046875</LatitudeDegrees>
              <LongitudeDegrees>-2.67652214504778385162353515625</LongitudeDegrees>
            </Position>
            <AltitudeMeters>17.799999237060546875</AltitudeMeters>
            <DistanceMeters>NAN</DistanceMeters>
          </Trackpoint>
          <Trackpoint>
            <Time>2022-07-11T11:21:15.000Z</Time>
            <Position>
              <LatitudeDegrees>43.31672005355358123779296875</LatitudeDegrees>
              <LongitudeDegrees>-2.6765054650604724884033203125</LongitudeDegrees>
            </Position>
            <AltitudeMeters>17.799999237060546875</AltitudeMeters>
            <DistanceMeters>NAN</DistanceMeters>
          </Trackpoint>
          <Trackpoint>
            <Time>2022-07-11T11:21:16.000Z</Time>
            <Position>
              <LatitudeDegrees>43.3167051337659358978271484375</LatitudeDegrees>
              <LongitudeDegrees>-2.67648610286414623260498046875</LongitudeDegrees>
            </Position>
            <AltitudeMeters>17.799999237060546875</AltitudeMeters>
            <DistanceMeters>NAN</DistanceMeters>
          </Trackpoint>
          <Trackpoint>
            <Time>2022-07-11T11:21:19.000Z</Time>
            <Position>
              <LatitudeDegrees>43.31660731695592403411865234375</LatitudeDegrees>
              <LongitudeDegrees>-2.6764367334544658660888671875</LongitudeDegrees>
            </Position>
            <AltitudeMeters>17.799999237060546875</AltitudeMeters>
            <DistanceMeters>NAN</DistanceMeters>
          </Trackpoint>
          <Trackpoint>
            <Time>2022-07-11T11:21:20.000Z</Time>
            <Position>
              <LatitudeDegrees>43.31653908826410770416259765625</LatitudeDegrees>
              <LongitudeDegrees>-2.67640328966081142425537109375</LongitudeDegrees>
            </Position>
            <AltitudeMeters>17.799999237060546875</AltitudeMeters>
            <DistanceMeters>NAN</DistanceMeters>
          </Trackpoint>
          <Trackpoint>
            <Time>2022-07-11T11:21:26.000Z</Time>
            <Position>
              <LatitudeDegrees>43.3163841068744659423828125</LatitudeDegrees>
              <LongitudeDegrees>-2.6763086579740047454833984375</LongitudeDegrees>
            </Position>
            <AltitudeMeters>17.6000003814697265625</AltitudeMeters>
            <DistanceMeters>NAN</DistanceMeters>
          </Trackpoint>
          <Trackpoint>
            <Time>2022-07-11T11:21:29.000Z</Time>
            <Position>
              <LatitudeDegrees>43.31633792258799076080322265625</LatitudeDegrees>
              <LongitudeDegrees>-2.6763096638023853302001953125</LongitudeDegrees>
            </Position>
            <AltitudeMeters>17.6000003814697265625</AltitudeMeters>
            <DistanceMeters>NAN</DistanceMeters>
          </Trackpoint>
          <Trackpoint>
            <Time>2022-07-11T11:21:32.000Z</Time>
            <Position>
              <LatitudeDegrees>43.3162830211222171783447265625</LatitudeDegrees>
              <LongitudeDegrees>-2.67632785253226757049560546875</LongitudeDegrees>
            </Position>
            <AltitudeMeters>17.6000003814697265625</AltitudeMeters>
            <DistanceMeters>NAN</DistanceMeters>
          </Trackpoint>
          <Trackpoint>
            <Time>2022-07-11T11:21:34.000Z</Time>
            <Position>
              <LatitudeDegrees>43.31625276245176792144775390625</LatitudeDegrees>
              <LongitudeDegrees>-2.67631678842008113861083984375</LongitudeDegrees>
            </Position>
            <AltitudeMeters>17.6000003814697265625</AltitudeMeters>
            <DistanceMeters>NAN</DistanceMeters>
          </Trackpoint>
          <Trackpoint>
            <Time>2022-07-11T11:21:37.000Z</Time>
            <Position>
              <LatitudeDegrees>43.31618704833090305328369140625</LatitudeDegrees>
              <LongitudeDegrees>-2.67632625997066497802734375</LongitudeDegrees>
            </Position>
            <AltitudeMeters>17.3999996185302734375</AltitudeMeters>
            <DistanceMeters>NAN</DistanceMeters>
          </Trackpoint>
          <Trackpoint>
            <Time>2022-07-11T11:21:41.000Z</Time>
            <Position>
              <LatitudeDegrees>43.31614664755761623382568359375</LatitudeDegrees>
              <LongitudeDegrees>-2.67656221054494380950927734375</LongitudeDegrees>
            </Position>
            <AltitudeMeters>17.3999996185302734375</AltitudeMeters>
            <DistanceMeters>NAN</DistanceMeters>
          </Trackpoint>
          <Trackpoint>
            <Time>2022-07-11T11:21:44.000Z</Time>
            <Position>
              <LatitudeDegrees>43.31610490567982196807861328125</LatitudeDegrees>
              <LongitudeDegrees>-2.67666446976363658905029296875</LongitudeDegrees>
            </Position>
            <AltitudeMeters>17.3999996185302734375</AltitudeMeters>
            <DistanceMeters>NAN</DistanceMeters>
          </Trackpoint>
          <Trackpoint>
            <Time>2022-07-11T11:21:48.000Z</Time>
            <Position>
              <LatitudeDegrees>43.31603667698800563812255859375</LatitudeDegrees>
              <LongitudeDegrees>-2.67676538787782192230224609375</LongitudeDegrees>
            </Position>
            <AltitudeMeters>17.3999996185302734375</AltitudeMeters>
            <DistanceMeters>NAN</DistanceMeters>
          </Trackpoint>
          <Trackpoint>
            <Time>2022-07-11T11:21:51.000Z</Time>
            <Position>
              <LatitudeDegrees>43.31597280688583850860595703125</LatitudeDegrees>
              <LongitudeDegrees>-2.6769376359879970550537109375</LongitudeDegrees>
            </Position>
            <AltitudeMeters>17.200000762939453125</AltitudeMeters>
            <DistanceMeters>NAN</DistanceMeters>
          </Trackpoint>
          <Trackpoint>
            <Time>2022-07-11T11:21:58.000Z</Time>
            <Position>
              <LatitudeDegrees>43.31581606529653072357177734375</LatitudeDegrees>
              <LongitudeDegrees>-2.677155397832393646240234375</LongitudeDegrees>
            </Position>
            <AltitudeMeters>17</AltitudeMeters>
            <DistanceMeters>NAN</DistanceMeters>
          </Trackpoint>
          <Trackpoint>
            <Time>2022-07-11T11:22:01.000Z</Time>
            <Position>
              <LatitudeDegrees>43.31577817909419536590576171875</LatitudeDegrees>
              <LongitudeDegrees>-2.677205018699169158935546875</LongitudeDegrees>
            </Position>
            <AltitudeMeters>16.799999237060546875</AltitudeMeters>
            <DistanceMeters>NAN</DistanceMeters>
          </Trackpoint>
          <Trackpoint>
            <Time>2022-07-11T11:22:03.000Z</Time>
            <Position>
              <LatitudeDegrees>43.31573744304478168487548828125</LatitudeDegrees>
              <LongitudeDegrees>-2.6772058568894863128662109375</LongitudeDegrees>
            </Position>
            <AltitudeMeters>16.799999237060546875</AltitudeMeters>
            <DistanceMeters>NAN</DistanceMeters>
          </Trackpoint>
          <Trackpoint>
            <Time>2022-07-11T11:22:05.000Z</Time>
            <Position>
              <LatitudeDegrees>43.315691091120243072509765625</LatitudeDegrees>
              <LongitudeDegrees>-2.677173502743244171142578125</LongitudeDegrees>
            </Position>
            <AltitudeMeters>16.799999237060546875</AltitudeMeters>
            <DistanceMeters>NAN</DistanceMeters>
          </Trackpoint>
          <Trackpoint>
            <Time>2022-07-11T11:22:07.000Z</Time>
            <Position>
              <LatitudeDegrees>43.315689079463481903076171875</LatitudeDegrees>
              <LongitudeDegrees>-2.6771726645529270172119140625</LongitudeDegrees>
            </Position>
            <AltitudeMeters>16.799999237060546875</AltitudeMeters>
            <DistanceMeters>NAN</DistanceMeters>
          </Trackpoint>
          <Trackpoint>
            <Time>2022-07-11T11:22:08.000Z</Time>
            <Position>
              <LatitudeDegrees>43.31568731926381587982177734375</LatitudeDegrees>
              <LongitudeDegrees>-2.67716855742037296295166015625</LongitudeDegrees>
            </Position>
            <AltitudeMeters>16.799999237060546875</AltitudeMeters>
            <DistanceMeters>NAN</DistanceMeters>
          </Trackpoint>
          <Trackpoint>
            <Time>2022-07-11T11:22:11.000Z</Time>
            <Position>
              <LatitudeDegrees>43.315709866583347320556640625</LatitudeDegrees>
              <LongitudeDegrees>-2.67710535787045955657958984375</LongitudeDegrees>
            </Position>
            <AltitudeMeters>17</AltitudeMeters>
            <DistanceMeters>NAN</DistanceMeters>
          </Trackpoint>
          <Trackpoint>
            <Time>2022-07-11T11:22:13.000Z</Time>
            <Position>
              <LatitudeDegrees>43.31572252325713634490966796875</LatitudeDegrees>
              <LongitudeDegrees>-2.67704098485410213470458984375</LongitudeDegrees>
            </Position>
            <AltitudeMeters>16.799999237060546875</AltitudeMeters>
            <DistanceMeters>NAN</DistanceMeters>
          </Trackpoint>
          <Trackpoint>
            <Time>2022-07-11T11:22:16.000Z</Time>
            <Position>
              <LatitudeDegrees>43.31571154296398162841796875</LatitudeDegrees>
              <LongitudeDegrees>-2.67697325907647609710693359375</LongitudeDegrees>
            </Position>
            <AltitudeMeters>16.6000003814697265625</AltitudeMeters>
            <DistanceMeters>NAN</DistanceMeters>
          </Trackpoint>
          <Trackpoint>
            <Time>2022-07-11T11:22:18.000Z</Time>
            <Position>
              <LatitudeDegrees>43.315698802471160888671875</LatitudeDegrees>
              <LongitudeDegrees>-2.67694375477731227874755859375</LongitudeDegrees>
            </Position>
            <AltitudeMeters>16.3999996185302734375</AltitudeMeters>
            <DistanceMeters>NAN</DistanceMeters>
          </Trackpoint>
          <Trackpoint>
            <Time>2022-07-11T11:22:22.000Z</Time>
            <Position>
              <LatitudeDegrees>43.31567139364778995513916015625</LatitudeDegrees>
              <LongitudeDegrees>-2.67691357992589473724365234375</LongitudeDegrees>
            </Position>
            <AltitudeMeters>16.200000762939453125</AltitudeMeters>
            <DistanceMeters>NAN</DistanceMeters>
          </Trackpoint>
          <Trackpoint>
            <Time>2022-07-11T11:22:26.000Z</Time>
            <Position>
              <LatitudeDegrees>43.31566435284912586212158203125</LatitudeDegrees>
              <LongitudeDegrees>-2.67690829932689666748046875</LongitudeDegrees>
            </Position>
            <AltitudeMeters>16.200000762939453125</AltitudeMeters>
            <DistanceMeters>NAN</DistanceMeters>
          </Trackpoint>
          <Trackpoint>
            <Time>2022-07-11T11:22:27.000Z</Time>
            <Position>
              <LatitudeDegrees>43.31565714441239833831787109375</LatitudeDegrees>
              <LongitudeDegrees>-2.6769108138978481292724609375</LongitudeDegrees>
            </Position>
            <AltitudeMeters>16.200000762939453125</AltitudeMeters>
            <DistanceMeters>NAN</DistanceMeters>
          </Trackpoint>
          <Trackpoint>
            <Time>2022-07-11T11:22:30.000Z</Time>
            <Position>
              <LatitudeDegrees>43.3156584016978740692138671875</LatitudeDegrees>
              <LongitudeDegrees>-2.676938809454441070556640625</LongitudeDegrees>
            </Position>
            <AltitudeMeters>16.200000762939453125</AltitudeMeters>
            <DistanceMeters>NAN</DistanceMeters>
          </Trackpoint>
          <Trackpoint>
            <Time>2022-07-11T11:22:32.000Z</Time>
            <Position>
              <LatitudeDegrees>43.31567860208451747894287109375</LatitudeDegrees>
              <LongitudeDegrees>-2.6769600994884967803955078125</LongitudeDegrees>
            </Position>
            <AltitudeMeters>16</AltitudeMeters>
            <DistanceMeters>NAN</DistanceMeters>
          </Trackpoint>
          <Trackpoint>
            <Time>2022-07-11T11:22:36.000Z</Time>
            <Position>
              <LatitudeDegrees>43.3157081902027130126953125</LatitudeDegrees>
              <LongitudeDegrees>-2.67704668454825878143310546875</LongitudeDegrees>
            </Position>
            <AltitudeMeters>16</AltitudeMeters>
            <DistanceMeters>NAN</DistanceMeters>
          </Trackpoint>
          <Trackpoint>
            <Time>2022-07-11T11:22:38.000Z</Time>
            <Position>
              <LatitudeDegrees>43.31569670699536800384521484375</LatitudeDegrees>
              <LongitudeDegrees>-2.677099406719207763671875</LongitudeDegrees>
            </Position>
            <AltitudeMeters>16</AltitudeMeters>
            <DistanceMeters>NAN</DistanceMeters>
          </Trackpoint>
          <Trackpoint>
            <Time>2022-07-11T11:22:41.000Z</Time>
            <Position>
              <LatitudeDegrees>43.3156533725559711456298828125</LatitudeDegrees>
              <LongitudeDegrees>-2.677180878818035125732421875</LongitudeDegrees>
            </Position>
            <AltitudeMeters>16.200000762939453125</AltitudeMeters>
            <DistanceMeters>NAN</DistanceMeters>
          </Trackpoint>
          <Trackpoint>
            <Time>2022-07-11T11:22:42.000Z</Time>
            <Position>
              <LatitudeDegrees>43.31563551910221576690673828125</LatitudeDegrees>
              <LongitudeDegrees>-2.67718800343573093414306640625</LongitudeDegrees>
            </Position>
            <AltitudeMeters>16.200000762939453125</AltitudeMeters>
            <DistanceMeters>NAN</DistanceMeters>
          </Trackpoint>
          <Trackpoint>
            <Time>2022-07-11T11:22:43.000Z</Time>
            <Position>
              <LatitudeDegrees>43.3156164921820163726806640625</LatitudeDegrees>
              <LongitudeDegrees>-2.67721004784107208251953125</LongitudeDegrees>
            </Position>
            <AltitudeMeters>16.200000762939453125</AltitudeMeters>
            <DistanceMeters>NAN</DistanceMeters>
          </Trackpoint>
          <Trackpoint>
            <Time>2022-07-11T11:22:45.000Z</Time>
            <Position>
              <LatitudeDegrees>43.31558355130255222320556640625</LatitudeDegrees>
              <LongitudeDegrees>-2.677260674536228179931640625</LongitudeDegrees>
            </Position>
            <AltitudeMeters>16.3999996185302734375</AltitudeMeters>
            <DistanceMeters>NAN</DistanceMeters>
          </Trackpoint>
          <Trackpoint>
            <Time>2022-07-11T11:22:49.000Z</Time>
            <Position>
              <LatitudeDegrees>43.3155343495309352874755859375</LatitudeDegrees>
              <LongitudeDegrees>-2.6773607544600963592529296875</LongitudeDegrees>
            </Position>
            <AltitudeMeters>16.3999996185302734375</AltitudeMeters>
            <DistanceMeters>NAN</DistanceMeters>
          </Trackpoint>
          <Trackpoint>
            <Time>2022-07-11T11:22:50.000Z</Time>
            <Position>
              <LatitudeDegrees>43.3155276440083980560302734375</LatitudeDegrees>
              <LongitudeDegrees>-2.6773966290056705474853515625</LongitudeDegrees>
            </Position>
            <AltitudeMeters>16.3999996185302734375</AltitudeMeters>
            <DistanceMeters>NAN</DistanceMeters>
          </Trackpoint>
          <Trackpoint>
            <Time>2022-07-11T11:22:57.000Z</Time>
            <Position>
              <LatitudeDegrees>43.3154760114848613739013671875</LatitudeDegrees>
              <LongitudeDegrees>-2.67760039307177066802978515625</LongitudeDegrees>
            </Position>
            <AltitudeMeters>16.6000003814697265625</AltitudeMeters>
            <DistanceMeters>NAN</DistanceMeters>
          </Trackpoint>
          <Trackpoint>
            <Time>2022-07-11T11:22:58.000Z</Time>
            <Position>
              <LatitudeDegrees>43.31546436063945293426513671875</LatitudeDegrees>
              <LongitudeDegrees>-2.677612043917179107666015625</LongitudeDegrees>
            </Position>
            <AltitudeMeters>16.6000003814697265625</AltitudeMeters>
            <DistanceMeters>NAN</DistanceMeters>
          </Trackpoint>
          <Trackpoint>
            <Time>2022-07-11T11:23:01.000Z</Time>
            <Position>
              <LatitudeDegrees>43.31544944085180759429931640625</LatitudeDegrees>
              <LongitudeDegrees>-2.67763693816959857940673828125</LongitudeDegrees>
            </Position>
            <AltitudeMeters>16.6000003814697265625</AltitudeMeters>
            <DistanceMeters>NAN</DistanceMeters>
          </Trackpoint>
          <Trackpoint>
            <Time>2022-07-11T11:23:03.000Z</Time>
            <Position>
              <LatitudeDegrees>43.31542848609387874603271484375</LatitudeDegrees>
              <LongitudeDegrees>-2.67767398618161678314208984375</LongitudeDegrees>
            </Position>
            <AltitudeMeters>16.6000003814697265625</AltitudeMeters>
            <DistanceMeters>NAN</DistanceMeters>
          </Trackpoint>
          <Trackpoint>
            <Time>2022-07-11T11:23:04.000Z</Time>
            <Position>
              <LatitudeDegrees>43.315418176352977752685546875</LatitudeDegrees>
              <LongitudeDegrees>-2.677700221538543701171875</LongitudeDegrees>
            </Position>
            <AltitudeMeters>16.6000003814697265625</AltitudeMeters>
            <DistanceMeters>NAN</DistanceMeters>
          </Trackpoint>
          <Trackpoint>
            <Time>2022-07-11T11:23:10.000Z</Time>
            <Position>
              <LatitudeDegrees>43.3153811283409595489501953125</LatitudeDegrees>
              <LongitudeDegrees>-2.6778418757021427154541015625</LongitudeDegrees>
            </Position>
            <AltitudeMeters>16.6000003814697265625</AltitudeMeters>
            <DistanceMeters>NAN</DistanceMeters>
          </Trackpoint>
          <Trackpoint>
            <Time>2022-07-11T11:23:11.000Z</Time>
            <Position>
              <LatitudeDegrees>43.3153781108558177947998046875</LatitudeDegrees>
              <LongitudeDegrees>-2.67784615047276020050048828125</LongitudeDegrees>
            </Position>
            <AltitudeMeters>16.799999237060546875</AltitudeMeters>
            <DistanceMeters>NAN</DistanceMeters>
          </Trackpoint>
          <Trackpoint>
            <Time>2022-07-11T11:23:17.000Z</Time>
            <Position>
              <LatitudeDegrees>43.31538221798837184906005859375</LatitudeDegrees>
              <LongitudeDegrees>-2.67788730561733245849609375</LongitudeDegrees>
            </Position>
            <AltitudeMeters>17.200000762939453125</AltitudeMeters>
            <DistanceMeters>NAN</DistanceMeters>
          </Trackpoint>
          <Trackpoint>
            <Time>2022-07-11T11:23:21.000Z</Time>
            <Position>
              <LatitudeDegrees>43.315376602113246917724609375</LatitudeDegrees>
              <LongitudeDegrees>-2.6778811030089855194091796875</LongitudeDegrees>
            </Position>
            <AltitudeMeters>17.200000762939453125</AltitudeMeters>
            <DistanceMeters>NAN</DistanceMeters>
          </Trackpoint>
          <Trackpoint>
            <Time>2022-07-11T11:23:23.000Z</Time>
            <Position>
              <LatitudeDegrees>43.31534265540540218353271484375</LatitudeDegrees>
              <LongitudeDegrees>-2.6778264530003070831298828125</LongitudeDegrees>
            </Position>
            <AltitudeMeters>17.3999996185302734375</AltitudeMeters>
            <DistanceMeters>NAN</DistanceMeters>
          </Trackpoint>
          <Trackpoint>
            <Time>2022-07-11T11:23:25.000Z</Time>
            <Position>
              <LatitudeDegrees>43.31535841338336467742919921875</LatitudeDegrees>
              <LongitudeDegrees>-2.6778777502477169036865234375</LongitudeDegrees>
            </Position>
            <AltitudeMeters>17.200000762939453125</AltitudeMeters>
            <DistanceMeters>NAN</DistanceMeters>
          </Trackpoint>
          <Trackpoint>
            <Time>2022-07-11T11:23:27.000Z</Time>
            <Position>
              <LatitudeDegrees>43.31535841338336467742919921875</LatitudeDegrees>
              <LongitudeDegrees>-2.6778777502477169036865234375</LongitudeDegrees>
            </Position>
            <AltitudeMeters>17.200000762939453125</AltitudeMeters>
            <DistanceMeters>NAN</DistanceMeters>
          </Trackpoint>
          <Trackpoint>
            <Time>2022-07-11T11:23:45.000Z</Time>
            <Position>
              <LatitudeDegrees>43.3154273964464664459228515625</LatitudeDegrees>
              <LongitudeDegrees>-2.678057290613651275634765625</LongitudeDegrees>
            </Position>
            <AltitudeMeters>17.6000003814697265625</AltitudeMeters>
            <DistanceMeters>NAN</DistanceMeters>
          </Trackpoint>
          <Trackpoint>
            <Time>2022-07-11T11:23:46.000Z</Time>
            <Position>
              <LatitudeDegrees>43.315408788621425628662109375</LatitudeDegrees>
              <LongitudeDegrees>-2.6780554465949535369873046875</LongitudeDegrees>
            </Position>
            <AltitudeMeters>17.6000003814697265625</AltitudeMeters>
            <DistanceMeters>NAN</DistanceMeters>
          </Trackpoint>
          <Trackpoint>
            <Time>2022-07-11T11:23:50.000Z</Time>
            <Position>
              <LatitudeDegrees>43.315440975129604339599609375</LatitudeDegrees>
              <LongitudeDegrees>-2.6779940910637378692626953125</LongitudeDegrees>
            </Position>
            <AltitudeMeters>17.6000003814697265625</AltitudeMeters>
            <DistanceMeters>NAN</DistanceMeters>
          </Trackpoint>
          <Trackpoint>
            <Time>2022-07-11T11:23:52.000Z</Time>
            <Position>
              <LatitudeDegrees>43.31545681692659854888916015625</LatitudeDegrees>
              <LongitudeDegrees>-2.6780185662209987640380859375</LongitudeDegrees>
            </Position>
            <AltitudeMeters>17.6000003814697265625</AltitudeMeters>
            <DistanceMeters>NAN</DistanceMeters>
          </Trackpoint>
          <Trackpoint>
            <Time>2022-07-11T11:23:54.000Z</Time>
            <Position>
              <LatitudeDegrees>43.31546922214329242706298828125</LatitudeDegrees>
              <LongitudeDegrees>-2.67804228700697422027587890625</LongitudeDegrees>
            </Position>
            <AltitudeMeters>17.799999237060546875</AltitudeMeters>
            <DistanceMeters>NAN</DistanceMeters>
          </Trackpoint>
          <Trackpoint>
            <Time>2022-07-11T11:23:56.000Z</Time>
            <Position>
              <LatitudeDegrees>43.31544198095798492431640625</LatitudeDegrees>
              <LongitudeDegrees>-2.6780126988887786865234375</LongitudeDegrees>
            </Position>
            <AltitudeMeters>17.799999237060546875</AltitudeMeters>
            <DistanceMeters>NAN</DistanceMeters>
          </Trackpoint>
          <Trackpoint>
            <Time>2022-07-11T11:24:01.000Z</Time>
            <Position>
              <LatitudeDegrees>43.3154223673045635223388671875</LatitudeDegrees>
              <LongitudeDegrees>-2.6779213361442089080810546875</LongitudeDegrees>
            </Position>
            <AltitudeMeters>17.799999237060546875</AltitudeMeters>
            <DistanceMeters>NAN</DistanceMeters>
          </Trackpoint>
          <Trackpoint>
            <Time>2022-07-11T11:24:06.000Z</Time>
            <Position>
              <LatitudeDegrees>43.3152473531663417816162109375</LatitudeDegrees>
              <LongitudeDegrees>-2.6780712045729160308837890625</LongitudeDegrees>
            </Position>
            <AltitudeMeters>17.799999237060546875</AltitudeMeters>
            <DistanceMeters>NAN</DistanceMeters>
          </Trackpoint>
          <Trackpoint>
            <Time>2022-07-11T11:24:07.000Z</Time>
            <Position>
              <LatitudeDegrees>43.31522162072360515594482421875</LatitudeDegrees>
              <LongitudeDegrees>-2.67808989621698856353759765625</LongitudeDegrees>
            </Position>
            <AltitudeMeters>17.799999237060546875</AltitudeMeters>
            <DistanceMeters>NAN</DistanceMeters>
          </Trackpoint>
          <Trackpoint>
            <Time>2022-07-11T11:24:08.000Z</Time>
            <Position>
              <LatitudeDegrees>43.3151957206428050994873046875</LatitudeDegrees>
              <LongitudeDegrees>-2.67807916738092899322509765625</LongitudeDegrees>
            </Position>
            <AltitudeMeters>18</AltitudeMeters>
            <DistanceMeters>NAN</DistanceMeters>
          </Trackpoint>
          <Trackpoint>
            <Time>2022-07-11T11:24:12.000Z</Time>
            <Position>
              <LatitudeDegrees>43.3151457644999027252197265625</LatitudeDegrees>
              <LongitudeDegrees>-2.6780182309448719024658203125</LongitudeDegrees>
            </Position>
            <AltitudeMeters>18</AltitudeMeters>
            <DistanceMeters>NAN</DistanceMeters>
          </Trackpoint>
          <Trackpoint>
            <Time>2022-07-11T11:24:18.000Z</Time>
            <Position>
              <LatitudeDegrees>43.31534349359571933746337890625</LatitudeDegrees>
              <LongitudeDegrees>-2.67800305970013141632080078125</LongitudeDegrees>
            </Position>
            <AltitudeMeters>18</AltitudeMeters>
            <DistanceMeters>NAN</DistanceMeters>
          </Trackpoint>
          <Trackpoint>
            <Time>2022-07-11T11:29:39.000Z</Time>
            <Position>
              <LatitudeDegrees>43.315234445035457611083984375</LatitudeDegrees>
              <LongitudeDegrees>-2.67825543880462646484375</LongitudeDegrees>
            </Position>
            <AltitudeMeters>22.3999996185302734375</AltitudeMeters>
            <DistanceMeters>NAN</DistanceMeters>
          </Trackpoint>
          <Trackpoint>
            <Time>2022-07-11T11:29:41.000Z</Time>
            <Position>
              <LatitudeDegrees>43.31520586274564266204833984375</LatitudeDegrees>
              <LongitudeDegrees>-2.678138427436351776123046875</LongitudeDegrees>
            </Position>
            <AltitudeMeters>22.3999996185302734375</AltitudeMeters>
            <DistanceMeters>NAN</DistanceMeters>
          </Trackpoint>
          <Trackpoint>
            <Time>2022-07-11T11:29:42.000Z</Time>
            <Position>
              <LatitudeDegrees>43.315190188586711883544921875</LatitudeDegrees>
              <LongitudeDegrees>-2.67822233028709888458251953125</LongitudeDegrees>
            </Position>
            <AltitudeMeters>22.3999996185302734375</AltitudeMeters>
            <DistanceMeters>NAN</DistanceMeters>
          </Trackpoint>
          <Trackpoint>
            <Time>2022-07-11T11:29:44.000Z</Time>
            <Position>
              <LatitudeDegrees>43.31515456549823284149169921875</LatitudeDegrees>
              <LongitudeDegrees>-2.67842215485870838165283203125</LongitudeDegrees>
            </Position>
            <AltitudeMeters>23.200000762939453125</AltitudeMeters>
            <DistanceMeters>NAN</DistanceMeters>
          </Trackpoint>
          <Trackpoint>
            <Time>2022-07-11T11:29:45.000Z</Time>
            <Position>
              <LatitudeDegrees>43.315172083675861358642578125</LatitudeDegrees>
              <LongitudeDegrees>-2.6782460510730743408203125</LongitudeDegrees>
            </Position>
            <AltitudeMeters>23.3999996185302734375</AltitudeMeters>
            <DistanceMeters>NAN</DistanceMeters>
          </Trackpoint>
          <Trackpoint>
            <Time>2022-07-11T11:29:46.000Z</Time>
            <Position>
              <LatitudeDegrees>43.31517451442778110504150390625</LatitudeDegrees>
              <LongitudeDegrees>-2.678228281438350677490234375</LongitudeDegrees>
            </Position>
            <AltitudeMeters>23.3999996185302734375</AltitudeMeters>
            <DistanceMeters>NAN</DistanceMeters>
          </Trackpoint>
          <Trackpoint>
            <Time>2022-07-11T11:29:48.000Z</Time>
            <Position>
              <LatitudeDegrees>43.31505834124982357025146484375</LatitudeDegrees>
              <LongitudeDegrees>-2.67838141880929470062255859375</LongitudeDegrees>
            </Position>
            <AltitudeMeters>23.6000003814697265625</AltitudeMeters>
            <DistanceMeters>NAN</DistanceMeters>
          </Trackpoint>
          <Trackpoint>
            <Time>2022-07-11T11:29:50.000Z</Time>
            <Position>
              <LatitudeDegrees>43.31509538926184177398681640625</LatitudeDegrees>
              <LongitudeDegrees>-2.67795025371015071868896484375</LongitudeDegrees>
            </Position>
            <AltitudeMeters>23.799999237060546875</AltitudeMeters>
            <DistanceMeters>NAN</DistanceMeters>
          </Trackpoint>
          <Trackpoint>
            <Time>2022-07-11T11:29:51.000Z</Time>
            <Position>
              <LatitudeDegrees>43.3150083012878894805908203125</LatitudeDegrees>
              <LongitudeDegrees>-2.67788998782634735107421875</LongitudeDegrees>
            </Position>
            <AltitudeMeters>23.799999237060546875</AltitudeMeters>
            <DistanceMeters>NAN</DistanceMeters>
          </Trackpoint>
          <Trackpoint>
            <Time>2022-07-11T11:29:52.000Z</Time>
            <Position>
              <LatitudeDegrees>43.3148968219757080078125</LatitudeDegrees>
              <LongitudeDegrees>-2.67778362147510051727294921875</LongitudeDegrees>
            </Position>
            <AltitudeMeters>23.799999237060546875</AltitudeMeters>
            <DistanceMeters>NAN</DistanceMeters>
          </Trackpoint>
          <Trackpoint>
            <Time>2022-07-11T11:29:54.000Z</Time>
            <Position>
              <LatitudeDegrees>43.31470839679241180419921875</LatitudeDegrees>
              <LongitudeDegrees>-2.67759519629180431365966796875</LongitudeDegrees>
            </Position>
            <AltitudeMeters>23.799999237060546875</AltitudeMeters>
            <DistanceMeters>NAN</DistanceMeters>
          </Trackpoint>
          <Trackpoint>
            <Time>2022-07-11T11:29:56.000Z</Time>
            <Position>
              <LatitudeDegrees>43.31470680423080921173095703125</LatitudeDegrees>
              <LongitudeDegrees>-2.677621431648731231689453125</LongitudeDegrees>
            </Position>
            <AltitudeMeters>23.799999237060546875</AltitudeMeters>
            <DistanceMeters>NAN</DistanceMeters>
          </Trackpoint>
          <Trackpoint>
            <Time>2022-07-11T11:29:59.000Z</Time>
            <Position>
              <LatitudeDegrees>43.3146361447870731353759765625</LatitudeDegrees>
              <LongitudeDegrees>-2.67770399339497089385986328125</LongitudeDegrees>
            </Position>
            <AltitudeMeters>23.799999237060546875</AltitudeMeters>
            <DistanceMeters>NAN</DistanceMeters>
          </Trackpoint>
          <Trackpoint>
            <Time>2022-07-11T11:30:00.000Z</Time>
            <Position>
              <LatitudeDegrees>43.31464259885251522064208984375</LatitudeDegrees>
              <LongitudeDegrees>-2.677691839635372161865234375</LongitudeDegrees>
            </Position>
            <AltitudeMeters>23.799999237060546875</AltitudeMeters>
            <DistanceMeters>NAN</DistanceMeters>
          </Trackpoint>
          <Trackpoint>
            <Time>2022-07-11T11:30:02.000Z</Time>
            <Position>
              <LatitudeDegrees>43.3146304450929164886474609375</LatitudeDegrees>
              <LongitudeDegrees>-2.677754200994968414306640625</LongitudeDegrees>
            </Position>
            <AltitudeMeters>23.799999237060546875</AltitudeMeters>
            <DistanceMeters>NAN</DistanceMeters>
          </Trackpoint>
          <Trackpoint>
            <Time>2022-07-11T11:30:03.000Z</Time>
            <Position>
              <LatitudeDegrees>43.3146783895790576934814453125</LatitudeDegrees>
              <LongitudeDegrees>-2.677839696407318115234375</LongitudeDegrees>
            </Position>
            <AltitudeMeters>23.799999237060546875</AltitudeMeters>
            <DistanceMeters>NAN</DistanceMeters>
          </Trackpoint>
          <Trackpoint>
            <Time>2022-07-11T11:30:04.000Z</Time>
            <Position>
              <LatitudeDegrees>43.31470546312630176544189453125</LatitudeDegrees>
              <LongitudeDegrees>-2.67792024649679660797119140625</LongitudeDegrees>
            </Position>
            <AltitudeMeters>23.799999237060546875</AltitudeMeters>
            <DistanceMeters>NAN</DistanceMeters>
          </Trackpoint>
          <Trackpoint>
            <Time>2022-07-11T11:30:06.000Z</Time>
            <Position>
              <LatitudeDegrees>43.31477067433297634124755859375</LatitudeDegrees>
              <LongitudeDegrees>-2.67797389067709445953369140625</LongitudeDegrees>
            </Position>
            <AltitudeMeters>23.799999237060546875</AltitudeMeters>
            <DistanceMeters>NAN</DistanceMeters>
          </Trackpoint>
          <Trackpoint>
            <Time>2022-07-11T11:30:07.000Z</Time>
            <Position>
              <LatitudeDegrees>43.3147642202675342559814453125</LatitudeDegrees>
              <LongitudeDegrees>-2.6779679395258426666259765625</LongitudeDegrees>
            </Position>
            <AltitudeMeters>23.799999237060546875</AltitudeMeters>
            <DistanceMeters>NAN</DistanceMeters>
          </Trackpoint>
          <Trackpoint>
            <Time>2022-07-11T11:30:13.000Z</Time>
            <Position>
              <LatitudeDegrees>43.31460940651595592498779296875</LatitudeDegrees>
              <LongitudeDegrees>-2.677839361131191253662109375</LongitudeDegrees>
            </Position>
            <AltitudeMeters>23.799999237060546875</AltitudeMeters>
            <DistanceMeters>NAN</DistanceMeters>
          </Trackpoint>
          <Trackpoint>
            <Time>2022-07-11T11:30:16.000Z</Time>
            <Position>
              <LatitudeDegrees>43.3146120049059391021728515625</LatitudeDegrees>
              <LongitudeDegrees>-2.67779015935957431793212890625</LongitudeDegrees>
            </Position>
            <AltitudeMeters>23.6000003814697265625</AltitudeMeters>
            <DistanceMeters>NAN</DistanceMeters>
          </Trackpoint>
          <Trackpoint>
            <Time>2022-07-11T11:30:18.000Z</Time>
            <Position>
              <LatitudeDegrees>43.3146031200885772705078125</LatitudeDegrees>
              <LongitudeDegrees>-2.6777637563645839691162109375</LongitudeDegrees>
            </Position>
            <AltitudeMeters>23.6000003814697265625</AltitudeMeters>
            <DistanceMeters>NAN</DistanceMeters>
          </Trackpoint>
          <Trackpoint>
            <Time>2022-07-11T11:30:23.000Z</Time>
            <Position>
              <LatitudeDegrees>43.3145633898675441741943359375</LatitudeDegrees>
              <LongitudeDegrees>-2.6776237785816192626953125</LongitudeDegrees>
            </Position>
            <AltitudeMeters>23.3999996185302734375</AltitudeMeters>
            <DistanceMeters>NAN</DistanceMeters>
          </Trackpoint>
          <Trackpoint>
            <Time>2022-07-11T11:30:24.000Z</Time>
            <Position>
              <LatitudeDegrees>43.31455391831696033477783203125</LatitudeDegrees>
              <LongitudeDegrees>-2.67760558985173702239990234375</LongitudeDegrees>
            </Position>
            <AltitudeMeters>23.3999996185302734375</AltitudeMeters>
            <DistanceMeters>NAN</DistanceMeters>
          </Trackpoint>
          <Trackpoint>
            <Time>2022-07-11T11:30:25.000Z</Time>
            <Position>
              <LatitudeDegrees>43.3145399205386638641357421875</LatitudeDegrees>
              <LongitudeDegrees>-2.6775942742824554443359375</LongitudeDegrees>
            </Position>
            <AltitudeMeters>23.200000762939453125</AltitudeMeters>
            <DistanceMeters>NAN</DistanceMeters>
          </Trackpoint>
          <Trackpoint>
            <Time>2022-07-11T11:30:28.000Z</Time>
            <Position>
              <LatitudeDegrees>43.31449122168123722076416015625</LatitudeDegrees>
              <LongitudeDegrees>-2.6775850541889667510986328125</LongitudeDegrees>
            </Position>
            <AltitudeMeters>23</AltitudeMeters>
            <DistanceMeters>NAN</DistanceMeters>
          </Trackpoint>
          <Trackpoint>
            <Time>2022-07-11T11:30:30.000Z</Time>
            <Position>
              <LatitudeDegrees>43.31447931937873363494873046875</LatitudeDegrees>
              <LongitudeDegrees>-2.677584551274776458740234375</LongitudeDegrees>
            </Position>
            <AltitudeMeters>22.799999237060546875</AltitudeMeters>
            <DistanceMeters>NAN</DistanceMeters>
          </Trackpoint>
          <Trackpoint>
            <Time>2022-07-11T11:30:40.000Z</Time>
            <Position>
              <LatitudeDegrees>43.3141898922622203826904296875</LatitudeDegrees>
              <LongitudeDegrees>-2.67760357819497585296630859375</LongitudeDegrees>
            </Position>
            <AltitudeMeters>22.3999996185302734375</AltitudeMeters>
            <DistanceMeters>NAN</DistanceMeters>
          </Trackpoint>
          <Trackpoint>
            <Time>2022-07-11T11:30:44.000Z</Time>
            <Position>
              <LatitudeDegrees>43.31409459002315998077392578125</LatitudeDegrees>
              <LongitudeDegrees>-2.67761967144906520843505859375</LongitudeDegrees>
            </Position>
            <AltitudeMeters>22.200000762939453125</AltitudeMeters>
            <DistanceMeters>NAN</DistanceMeters>
          </Trackpoint>
          <Trackpoint>
            <Time>2022-07-11T11:30:45.000Z</Time>
            <Position>
              <LatitudeDegrees>43.3140755631029605865478515625</LatitudeDegrees>
              <LongitudeDegrees>-2.677609361708164215087890625</LongitudeDegrees>
            </Position>
            <AltitudeMeters>22.200000762939453125</AltitudeMeters>
            <DistanceMeters>NAN</DistanceMeters>
          </Trackpoint>
          <Trackpoint>
            <Time>2022-07-11T11:30:46.000Z</Time>
            <Position>
              <LatitudeDegrees>43.31405838020145893096923828125</LatitudeDegrees>
              <LongitudeDegrees>-2.6775964535772800445556640625</LongitudeDegrees>
            </Position>
            <AltitudeMeters>22.200000762939453125</AltitudeMeters>
            <DistanceMeters>NAN</DistanceMeters>
          </Trackpoint>
          <Trackpoint>
            <Time>2022-07-11T11:30:48.000Z</Time>
            <Position>
              <LatitudeDegrees>43.31400859169661998748779296875</LatitudeDegrees>
              <LongitudeDegrees>-2.6775478385388851165771484375</LongitudeDegrees>
            </Position>
            <AltitudeMeters>22.200000762939453125</AltitudeMeters>
            <DistanceMeters>NAN</DistanceMeters>
          </Trackpoint>
          <Trackpoint>
            <Time>2022-07-11T11:30:50.000Z</Time>
            <Position>
              <LatitudeDegrees>43.3139769919216632843017578125</LatitudeDegrees>
              <LongitudeDegrees>-2.67754792235791683197021484375</LongitudeDegrees>
            </Position>
            <AltitudeMeters>22</AltitudeMeters>
            <DistanceMeters>NAN</DistanceMeters>
          </Trackpoint>
          <Trackpoint>
            <Time>2022-07-11T11:30:53.000Z</Time>
            <Position>
              <LatitudeDegrees>43.3139297179877758026123046875</LatitudeDegrees>
              <LongitudeDegrees>-2.6775612495839595794677734375</LongitudeDegrees>
            </Position>
            <AltitudeMeters>22</AltitudeMeters>
            <DistanceMeters>NAN</DistanceMeters>
          </Trackpoint>
          <Trackpoint>
            <Time>2022-07-11T11:30:55.000Z</Time>
            <Position>
              <LatitudeDegrees>43.3139065839350223541259765625</LatitudeDegrees>
              <LongitudeDegrees>-2.677572481334209442138671875</LongitudeDegrees>
            </Position>
            <AltitudeMeters>21.799999237060546875</AltitudeMeters>
            <DistanceMeters>NAN</DistanceMeters>
          </Trackpoint>
          <Trackpoint>
            <Time>2022-07-11T11:30:58.000Z</Time>
            <Position>
              <LatitudeDegrees>43.3138693682849407196044921875</LatitudeDegrees>
              <LongitudeDegrees>-2.67757256515324115753173828125</LongitudeDegrees>
            </Position>
            <AltitudeMeters>21.6000003814697265625</AltitudeMeters>
            <DistanceMeters>NAN</DistanceMeters>
          </Trackpoint>
          <Trackpoint>
            <Time>2022-07-11T11:30:59.000Z</Time>
            <Position>
              <LatitudeDegrees>43.31385101191699504852294921875</LatitudeDegrees>
              <LongitudeDegrees>-2.67756753601133823394775390625</LongitudeDegrees>
            </Position>
            <AltitudeMeters>21.6000003814697265625</AltitudeMeters>
            <DistanceMeters>NAN</DistanceMeters>
          </Trackpoint>
          <Trackpoint>
            <Time>2022-07-11T11:31:03.000Z</Time>
            <Position>
              <LatitudeDegrees>43.3137835375964641571044921875</LatitudeDegrees>
              <LongitudeDegrees>-2.67755932174623012542724609375</LongitudeDegrees>
            </Position>
            <AltitudeMeters>21.3999996185302734375</AltitudeMeters>
            <DistanceMeters>NAN</DistanceMeters>
          </Trackpoint>
          <Trackpoint>
            <Time>2022-07-11T11:31:06.000Z</Time>
            <Position>
              <LatitudeDegrees>43.31371388398110866546630859375</LatitudeDegrees>
              <LongitudeDegrees>-2.67754423432052135467529296875</LongitudeDegrees>
            </Position>
            <AltitudeMeters>21.200000762939453125</AltitudeMeters>
            <DistanceMeters>NAN</DistanceMeters>
          </Trackpoint>
          <Trackpoint>
            <Time>2022-07-11T11:31:13.000Z</Time>
            <Position>
              <LatitudeDegrees>43.3136309869587421417236328125</LatitudeDegrees>
              <LongitudeDegrees>-2.6774199306964874267578125</LongitudeDegrees>
            </Position>
            <AltitudeMeters>21.200000762939453125</AltitudeMeters>
            <DistanceMeters>NAN</DistanceMeters>
          </Trackpoint>
          <Trackpoint>
            <Time>2022-07-11T11:31:17.000Z</Time>
            <Position>
              <LatitudeDegrees>43.313562087714672088623046875</LatitudeDegrees>
              <LongitudeDegrees>-2.677386738359928131103515625</LongitudeDegrees>
            </Position>
            <AltitudeMeters>21.200000762939453125</AltitudeMeters>
            <DistanceMeters>NAN</DistanceMeters>
          </Trackpoint>
          <Trackpoint>
            <Time>2022-07-11T11:31:18.000Z</Time>
            <Position>
              <LatitudeDegrees>43.3135468326508998870849609375</LatitudeDegrees>
              <LongitudeDegrees>-2.6773724891245365142822265625</LongitudeDegrees>
            </Position>
            <AltitudeMeters>21.200000762939453125</AltitudeMeters>
            <DistanceMeters>NAN</DistanceMeters>
          </Trackpoint>
          <Trackpoint>
            <Time>2022-07-11T11:31:20.000Z</Time>
            <Position>
              <LatitudeDegrees>43.31352562643587589263916015625</LatitudeDegrees>
              <LongitudeDegrees>-2.67736284993588924407958984375</LongitudeDegrees>
            </Position>
            <AltitudeMeters>21.200000762939453125</AltitudeMeters>
            <DistanceMeters>NAN</DistanceMeters>
          </Trackpoint>
          <Trackpoint>
            <Time>2022-07-11T11:31:23.000Z</Time>
            <Position>
              <LatitudeDegrees>43.3134868182241916656494140625</LatitudeDegrees>
              <LongitudeDegrees>-2.6773620955646038055419921875</LongitudeDegrees>
            </Position>
            <AltitudeMeters>21</AltitudeMeters>
            <DistanceMeters>NAN</DistanceMeters>
          </Trackpoint>
          <Trackpoint>
            <Time>2022-07-11T11:31:29.000Z</Time>
            <Position>
              <LatitudeDegrees>43.3133711479604244232177734375</LatitudeDegrees>
              <LongitudeDegrees>-2.67740358598530292510986328125</LongitudeDegrees>
            </Position>
            <AltitudeMeters>20.799999237060546875</AltitudeMeters>
            <DistanceMeters>NAN</DistanceMeters>
          </Trackpoint>
          <Trackpoint>
            <Time>2022-07-11T11:31:35.000Z</Time>
            <Position>
              <LatitudeDegrees>43.3132521249353885650634765625</LatitudeDegrees>
              <LongitudeDegrees>-2.6774234510958194732666015625</LongitudeDegrees>
            </Position>
            <AltitudeMeters>20.799999237060546875</AltitudeMeters>
            <DistanceMeters>NAN</DistanceMeters>
          </Trackpoint>
          <Trackpoint>
            <Time>2022-07-11T11:31:36.000Z</Time>
            <Position>
              <LatitudeDegrees>43.31324122846126556396484375</LatitudeDegrees>
              <LongitudeDegrees>-2.67743669450283050537109375</LongitudeDegrees>
            </Position>
            <AltitudeMeters>20.799999237060546875</AltitudeMeters>
            <DistanceMeters>NAN</DistanceMeters>
          </Trackpoint>
          <Trackpoint>
            <Time>2022-07-11T11:31:41.000Z</Time>
            <Position>
              <LatitudeDegrees>43.3131562359631061553955078125</LatitudeDegrees>
              <LongitudeDegrees>-2.677480615675449371337890625</LongitudeDegrees>
            </Position>
            <AltitudeMeters>20.799999237060546875</AltitudeMeters>
            <DistanceMeters>NAN</DistanceMeters>
          </Trackpoint>
          <Trackpoint>
            <Time>2022-07-11T11:31:45.000Z</Time>
            <Position>
              <LatitudeDegrees>43.313078619539737701416015625</LatitudeDegrees>
              <LongitudeDegrees>-2.6775055937469005584716796875</LongitudeDegrees>
            </Position>
            <AltitudeMeters>20.799999237060546875</AltitudeMeters>
            <DistanceMeters>NAN</DistanceMeters>
          </Trackpoint>
          <Trackpoint>
            <Time>2022-07-11T11:31:49.000Z</Time>
            <Position>
              <LatitudeDegrees>43.3129788748919963836669921875</LatitudeDegrees>
              <LongitudeDegrees>-2.67752512358129024505615234375</LongitudeDegrees>
            </Position>
            <AltitudeMeters>21</AltitudeMeters>
            <DistanceMeters>NAN</DistanceMeters>
          </Trackpoint>
          <Trackpoint>
            <Time>2022-07-11T11:31:52.000Z</Time>
            <Position>
              <LatitudeDegrees>43.3129279129207134246826171875</LatitudeDegrees>
              <LongitudeDegrees>-2.67754373140633106231689453125</LongitudeDegrees>
            </Position>
            <AltitudeMeters>21</AltitudeMeters>
            <DistanceMeters>NAN</DistanceMeters>
          </Trackpoint>
          <Trackpoint>
            <Time>2022-07-11T11:31:54.000Z</Time>
            <Position>
              <LatitudeDegrees>43.3128849975764751434326171875</LatitudeDegrees>
              <LongitudeDegrees>-2.67757021822035312652587890625</LongitudeDegrees>
            </Position>
            <AltitudeMeters>21</AltitudeMeters>
            <DistanceMeters>NAN</DistanceMeters>
          </Trackpoint>
          <Trackpoint>
            <Time>2022-07-11T11:32:01.000Z</Time>
            <Position>
              <LatitudeDegrees>43.31280511803925037384033203125</LatitudeDegrees>
              <LongitudeDegrees>-2.6775897480547428131103515625</LongitudeDegrees>
            </Position>
            <AltitudeMeters>21</AltitudeMeters>
            <DistanceMeters>NAN</DistanceMeters>
          </Trackpoint>
          <Trackpoint>
            <Time>2022-07-11T11:32:02.000Z</Time>
            <Position>
              <LatitudeDegrees>43.312794975936412811279296875</LatitudeDegrees>
              <LongitudeDegrees>-2.67759335227310657501220703125</LongitudeDegrees>
            </Position>
            <AltitudeMeters>21</AltitudeMeters>
            <DistanceMeters>NAN</DistanceMeters>
          </Trackpoint>
          <Trackpoint>
            <Time>2022-07-11T11:32:07.000Z</Time>
            <Position>
              <LatitudeDegrees>43.31272163428366184234619140625</LatitudeDegrees>
              <LongitudeDegrees>-2.6775884069502353668212890625</LongitudeDegrees>
            </Position>
            <AltitudeMeters>21</AltitudeMeters>
            <DistanceMeters>NAN</DistanceMeters>
          </Trackpoint>
          <Trackpoint>
            <Time>2022-07-11T11:32:09.000Z</Time>
            <Position>
              <LatitudeDegrees>43.3126975782215595245361328125</LatitudeDegrees>
              <LongitudeDegrees>-2.6775941066443920135498046875</LongitudeDegrees>
            </Position>
            <AltitudeMeters>21</AltitudeMeters>
            <DistanceMeters>NAN</DistanceMeters>
          </Trackpoint>
          <Trackpoint>
            <Time>2022-07-11T11:32:16.000Z</Time>
            <Position>
              <LatitudeDegrees>43.31259791739284992218017578125</LatitudeDegrees>
              <LongitudeDegrees>-2.6776098646223545074462890625</LongitudeDegrees>
            </Position>
            <AltitudeMeters>21</AltitudeMeters>
            <DistanceMeters>NAN</DistanceMeters>
          </Trackpoint>
          <Trackpoint>
            <Time>2022-07-11T11:32:21.000Z</Time>
            <Position>
              <LatitudeDegrees>43.31257210113108158111572265625</LatitudeDegrees>
              <LongitudeDegrees>-2.67762822099030017852783203125</LongitudeDegrees>
            </Position>
            <AltitudeMeters>20.799999237060546875</AltitudeMeters>
            <DistanceMeters>NAN</DistanceMeters>
          </Trackpoint>
          <Trackpoint>
            <Time>2022-07-11T11:33:13.000Z</Time>
            <Position>
              <LatitudeDegrees>43.312739320099353790283203125</LatitudeDegrees>
              <LongitudeDegrees>-2.67763744108378887176513671875</LongitudeDegrees>
            </Position>
            <AltitudeMeters>20.3999996185302734375</AltitudeMeters>
            <DistanceMeters>NAN</DistanceMeters>
          </Trackpoint>
          <Trackpoint>
            <Time>2022-07-11T11:33:15.000Z</Time>
            <Position>
              <LatitudeDegrees>43.31275952048599720001220703125</LatitudeDegrees>
              <LongitudeDegrees>-2.677626125514507293701171875</LongitudeDegrees>
            </Position>
            <AltitudeMeters>20.3999996185302734375</AltitudeMeters>
            <DistanceMeters>NAN</DistanceMeters>
          </Trackpoint>
          <Trackpoint>
            <Time>2022-07-11T11:33:18.000Z</Time>
            <Position>
              <LatitudeDegrees>43.3127834089100360870361328125</LatitudeDegrees>
              <LongitudeDegrees>-2.6776192523539066314697265625</LongitudeDegrees>
            </Position>
            <AltitudeMeters>20.6000003814697265625</AltitudeMeters>
            <DistanceMeters>NAN</DistanceMeters>
          </Trackpoint>
          <Trackpoint>
            <Time>2022-07-11T11:33:19.000Z</Time>
            <Position>
              <LatitudeDegrees>43.31277628429234027862548828125</LatitudeDegrees>
              <LongitudeDegrees>-2.6776112057268619537353515625</LongitudeDegrees>
            </Position>
            <AltitudeMeters>20.6000003814697265625</AltitudeMeters>
            <DistanceMeters>NAN</DistanceMeters>
          </Trackpoint>
          <Trackpoint>
            <Time>2022-07-11T11:33:21.000Z</Time>
            <Position>
              <LatitudeDegrees>43.3128122426569461822509765625</LatitudeDegrees>
              <LongitudeDegrees>-2.677607350051403045654296875</LongitudeDegrees>
            </Position>
            <AltitudeMeters>20.799999237060546875</AltitudeMeters>
            <DistanceMeters>NAN</DistanceMeters>
          </Trackpoint>
          <Trackpoint>
            <Time>2022-07-11T11:33:25.000Z</Time>
            <Position>
              <LatitudeDegrees>43.3128833211958408355712890625</LatitudeDegrees>
              <LongitudeDegrees>-2.677528560161590576171875</LongitudeDegrees>
            </Position>
            <AltitudeMeters>20.6000003814697265625</AltitudeMeters>
            <DistanceMeters>NAN</DistanceMeters>
          </Trackpoint>
          <Trackpoint>
            <Time>2022-07-11T11:33:28.000Z</Time>
            <Position>
              <LatitudeDegrees>43.3128923736512660980224609375</LatitudeDegrees>
              <LongitudeDegrees>-2.6774968765676021575927734375</LongitudeDegrees>
            </Position>
            <AltitudeMeters>20.6000003814697265625</AltitudeMeters>
            <DistanceMeters>NAN</DistanceMeters>
          </Trackpoint>
          <Trackpoint>
            <Time>2022-07-11T11:33:29.000Z</Time>
            <Position>
              <LatitudeDegrees>43.3128977380692958831787109375</LatitudeDegrees>
              <LongitudeDegrees>-2.6775015704333782196044921875</LongitudeDegrees>
            </Position>
            <AltitudeMeters>20.6000003814697265625</AltitudeMeters>
            <DistanceMeters>NAN</DistanceMeters>
          </Trackpoint>
          <Trackpoint>
            <Time>2022-07-11T11:33:31.000Z</Time>
            <Position>
              <LatitudeDegrees>43.31290838308632373809814453125</LatitudeDegrees>
              <LongitudeDegrees>-2.67754054628312587738037109375</LongitudeDegrees>
            </Position>
            <AltitudeMeters>20.6000003814697265625</AltitudeMeters>
            <DistanceMeters>NAN</DistanceMeters>
          </Trackpoint>
          <Trackpoint>
            <Time>2022-07-11T11:33:36.000Z</Time>
            <Position>
              <LatitudeDegrees>43.31292263232171535491943359375</LatitudeDegrees>
              <LongitudeDegrees>-2.6775656081736087799072265625</LongitudeDegrees>
            </Position>
            <AltitudeMeters>20.6000003814697265625</AltitudeMeters>
            <DistanceMeters>NAN</DistanceMeters>
          </Trackpoint>
          <Trackpoint>
            <Time>2022-07-11T11:33:38.000Z</Time>
            <Position>
              <LatitudeDegrees>43.31293906085193157196044921875</LatitudeDegrees>
              <LongitudeDegrees>-2.67757005058228969573974609375</LongitudeDegrees>
            </Position>
            <AltitudeMeters>20.3999996185302734375</AltitudeMeters>
            <DistanceMeters>NAN</DistanceMeters>
          </Trackpoint>
          <Trackpoint>
            <Time>2022-07-11T11:33:40.000Z</Time>
            <Position>
              <LatitudeDegrees>43.31296789459884166717529296875</LatitudeDegrees>
              <LongitudeDegrees>-2.67755529843270778656005859375</LongitudeDegrees>
            </Position>
            <AltitudeMeters>20.3999996185302734375</AltitudeMeters>
            <DistanceMeters>NAN</DistanceMeters>
          </Trackpoint>
          <Trackpoint>
            <Time>2022-07-11T11:33:45.000Z</Time>
            <Position>
              <LatitudeDegrees>43.31297761760652065277099609375</LatitudeDegrees>
              <LongitudeDegrees>-2.6775674521923065185546875</LongitudeDegrees>
            </Position>
            <AltitudeMeters>20.3999996185302734375</AltitudeMeters>
            <DistanceMeters>NAN</DistanceMeters>
          </Trackpoint>
          <Trackpoint>
            <Time>2022-07-11T11:33:49.000Z</Time>
            <Position>
              <LatitudeDegrees>43.3130093850195407867431640625</LatitudeDegrees>
              <LongitudeDegrees>-2.67756233923137187957763671875</LongitudeDegrees>
            </Position>
            <AltitudeMeters>20.6000003814697265625</AltitudeMeters>
            <DistanceMeters>NAN</DistanceMeters>
          </Trackpoint>
          <Trackpoint>
            <Time>2022-07-11T11:33:51.000Z</Time>
            <Position>
              <LatitudeDegrees>43.31301801837980747222900390625</LatitudeDegrees>
              <LongitudeDegrees>-2.677552364766597747802734375</LongitudeDegrees>
            </Position>
            <AltitudeMeters>20.6000003814697265625</AltitudeMeters>
            <DistanceMeters>NAN</DistanceMeters>
          </Trackpoint>
          <Trackpoint>
            <Time>2022-07-11T11:33:53.000Z</Time>
            <Position>
              <LatitudeDegrees>43.31303847022354602813720703125</LatitudeDegrees>
              <LongitudeDegrees>-2.6775421388447284698486328125</LongitudeDegrees>
            </Position>
            <AltitudeMeters>20.3999996185302734375</AltitudeMeters>
            <DistanceMeters>NAN</DistanceMeters>
          </Trackpoint>
          <Trackpoint>
            <Time>2022-07-11T11:33:54.000Z</Time>
            <Position>
              <LatitudeDegrees>43.313051797449588775634765625</LatitudeDegrees>
              <LongitudeDegrees>-2.67753149382770061492919921875</LongitudeDegrees>
            </Position>
            <AltitudeMeters>20.3999996185302734375</AltitudeMeters>
            <DistanceMeters>NAN</DistanceMeters>
          </Trackpoint>
          <Trackpoint>
            <Time>2022-07-11T11:33:56.000Z</Time>
            <Position>
              <LatitudeDegrees>43.31308574415743350982666015625</LatitudeDegrees>
              <LongitudeDegrees>-2.677518166601657867431640625</LongitudeDegrees>
            </Position>
            <AltitudeMeters>20.3999996185302734375</AltitudeMeters>
            <DistanceMeters>NAN</DistanceMeters>
          </Trackpoint>
          <Trackpoint>
            <Time>2022-07-11T11:33:59.000Z</Time>
            <Position>
              <LatitudeDegrees>43.31313259899616241455078125</LatitudeDegrees>
              <LongitudeDegrees>-2.67749494872987270355224609375</LongitudeDegrees>
            </Position>
            <AltitudeMeters>20.3999996185302734375</AltitudeMeters>
            <DistanceMeters>NAN</DistanceMeters>
          </Trackpoint>
          <Trackpoint>
            <Time>2022-07-11T11:34:01.000Z</Time>
            <Position>
              <LatitudeDegrees>43.31314575858414173126220703125</LatitudeDegrees>
              <LongitudeDegrees>-2.67747424542903900146484375</LongitudeDegrees>
            </Position>
            <AltitudeMeters>20.200000762939453125</AltitudeMeters>
            <DistanceMeters>NAN</DistanceMeters>
          </Trackpoint>
          <Trackpoint>
            <Time>2022-07-11T11:34:04.000Z</Time>
            <Position>
              <LatitudeDegrees>43.313156068325042724609375</LatitudeDegrees>
              <LongitudeDegrees>-2.6774452440440654754638671875</LongitudeDegrees>
            </Position>
            <AltitudeMeters>20</AltitudeMeters>
            <DistanceMeters>NAN</DistanceMeters>
          </Trackpoint>
          <Trackpoint>
            <Time>2022-07-11T11:34:24.000Z</Time>
            <Position>
              <LatitudeDegrees>43.31323318183422088623046875</LatitudeDegrees>
              <LongitudeDegrees>-2.6774237863719463348388671875</LongitudeDegrees>
            </Position>
            <AltitudeMeters>20.3999996185302734375</AltitudeMeters>
            <DistanceMeters>NAN</DistanceMeters>
          </Trackpoint>
          <Trackpoint>
            <Time>2022-07-11T11:34:25.000Z</Time>
            <Position>
              <LatitudeDegrees>43.3132648654282093048095703125</LatitudeDegrees>
              <LongitudeDegrees>-2.67741515301167964935302734375</LongitudeDegrees>
            </Position>
            <AltitudeMeters>20.3999996185302734375</AltitudeMeters>
            <DistanceMeters>NAN</DistanceMeters>
          </Trackpoint>
          <Trackpoint>
            <Time>2022-07-11T11:34:27.000Z</Time>
            <Position>
              <LatitudeDegrees>43.31332504749298095703125</LatitudeDegrees>
              <LongitudeDegrees>-2.67739688046276569366455078125</LongitudeDegrees>
            </Position>
            <AltitudeMeters>20.3999996185302734375</AltitudeMeters>
            <DistanceMeters>NAN</DistanceMeters>
          </Trackpoint>
          <Trackpoint>
            <Time>2022-07-11T11:34:30.000Z</Time>
            <Position>
              <LatitudeDegrees>43.31341557204723358154296875</LatitudeDegrees>
              <LongitudeDegrees>-2.6773689687252044677734375</LongitudeDegrees>
            </Position>
            <AltitudeMeters>20.200000762939453125</AltitudeMeters>
            <DistanceMeters>NAN</DistanceMeters>
          </Trackpoint>
          <Trackpoint>
            <Time>2022-07-11T11:34:32.000Z</Time>
            <Position>
              <LatitudeDegrees>43.31341532059013843536376953125</LatitudeDegrees>
              <LongitudeDegrees>-2.677352540194988250732421875</LongitudeDegrees>
            </Position>
            <AltitudeMeters>20</AltitudeMeters>
            <DistanceMeters>NAN</DistanceMeters>
          </Trackpoint>
          <Trackpoint>
            <Time>2022-07-11T11:34:36.000Z</Time>
            <Position>
              <LatitudeDegrees>43.3133996464312076568603515625</LatitudeDegrees>
              <LongitudeDegrees>-2.6773818768560886383056640625</LongitudeDegrees>
            </Position>
            <AltitudeMeters>19.799999237060546875</AltitudeMeters>
            <DistanceMeters>NAN</DistanceMeters>
          </Trackpoint>
          <Trackpoint>
            <Time>2022-07-11T11:34:39.000Z</Time>
            <Position>
              <LatitudeDegrees>43.31342521123588085174560546875</LatitudeDegrees>
              <LongitudeDegrees>-2.67740258015692234039306640625</LongitudeDegrees>
            </Position>
            <AltitudeMeters>19.799999237060546875</AltitudeMeters>
            <DistanceMeters>NAN</DistanceMeters>
          </Trackpoint>
          <Trackpoint>
            <Time>2022-07-11T11:34:41.000Z</Time>
            <Position>
              <LatitudeDegrees>43.3134432323276996612548828125</LatitudeDegrees>
              <LongitudeDegrees>-2.67741196788847446441650390625</LongitudeDegrees>
            </Position>
            <AltitudeMeters>19.799999237060546875</AltitudeMeters>
            <DistanceMeters>NAN</DistanceMeters>
          </Trackpoint>
          <Trackpoint>
            <Time>2022-07-11T11:34:47.000Z</Time>
            <Position>
              <LatitudeDegrees>43.31346628256142139434814453125</LatitudeDegrees>
              <LongitudeDegrees>-2.67738715745508670806884765625</LongitudeDegrees>
            </Position>
            <AltitudeMeters>19.799999237060546875</AltitudeMeters>
            <DistanceMeters>NAN</DistanceMeters>
          </Trackpoint>
          <Trackpoint>
            <Time>2022-07-11T11:34:49.000Z</Time>
            <Position>
              <LatitudeDegrees>43.31347332336008548736572265625</LatitudeDegrees>
              <LongitudeDegrees>-2.6773855648934841156005859375</LongitudeDegrees>
            </Position>
            <AltitudeMeters>19.799999237060546875</AltitudeMeters>
            <DistanceMeters>NAN</DistanceMeters>
          </Trackpoint>
          <Trackpoint>
            <Time>2022-07-11T11:35:25.000Z</Time>
            <Position>
              <LatitudeDegrees>43.313364274799823760986328125</LatitudeDegrees>
              <LongitudeDegrees>-2.6773838885128498077392578125</LongitudeDegrees>
            </Position>
            <AltitudeMeters>20.200000762939453125</AltitudeMeters>
            <DistanceMeters>NAN</DistanceMeters>
          </Trackpoint>
          <Trackpoint>
            <Time>2022-07-11T11:35:28.000Z</Time>
            <Position>
              <LatitudeDegrees>43.31322287209331989288330078125</LatitudeDegrees>
              <LongitudeDegrees>-2.67731842584908008575439453125</LongitudeDegrees>
            </Position>
            <AltitudeMeters>20.200000762939453125</AltitudeMeters>
            <DistanceMeters>NAN</DistanceMeters>
          </Trackpoint>
          <Trackpoint>
            <Time>2022-07-11T11:35:29.000Z</Time>
            <Position>
              <LatitudeDegrees>43.31320946104824542999267578125</LatitudeDegrees>
              <LongitudeDegrees>-2.677278108894824981689453125</LongitudeDegrees>
            </Position>
            <AltitudeMeters>20.200000762939453125</AltitudeMeters>
            <DistanceMeters>NAN</DistanceMeters>
          </Trackpoint>
          <Trackpoint>
            <Time>2022-07-11T11:35:32.000Z</Time>
            <Position>
              <LatitudeDegrees>43.31319102086126804351806640625</LatitudeDegrees>
              <LongitudeDegrees>-2.6771729998290538787841796875</LongitudeDegrees>
            </Position>
            <AltitudeMeters>20</AltitudeMeters>
            <DistanceMeters>NAN</DistanceMeters>
          </Trackpoint>
          <Trackpoint>
            <Time>2022-07-11T11:35:33.000Z</Time>
            <Position>
              <LatitudeDegrees>43.31322069279849529266357421875</LatitudeDegrees>
              <LongitudeDegrees>-2.6771495305001735687255859375</LongitudeDegrees>
            </Position>
            <AltitudeMeters>19.799999237060546875</AltitudeMeters>
            <DistanceMeters>NAN</DistanceMeters>
          </Trackpoint>
          <Trackpoint>
            <Time>2022-07-11T11:35:38.000Z</Time>
            <Position>
              <LatitudeDegrees>43.313391096889972686767578125</LatitudeDegrees>
              <LongitudeDegrees>-2.677034027874469757080078125</LongitudeDegrees>
            </Position>
            <AltitudeMeters>19.3999996185302734375</AltitudeMeters>
            <DistanceMeters>NAN</DistanceMeters>
          </Trackpoint>
          <Trackpoint>
            <Time>2022-07-11T11:35:40.000Z</Time>
            <Position>
              <LatitudeDegrees>43.31344448961317539215087890625</LatitudeDegrees>
              <LongitudeDegrees>-2.67699815332889556884765625</LongitudeDegrees>
            </Position>
            <AltitudeMeters>19.200000762939453125</AltitudeMeters>
            <DistanceMeters>NAN</DistanceMeters>
          </Trackpoint>
          <Trackpoint>
            <Time>2022-07-11T11:35:41.000Z</Time>
            <Position>
              <LatitudeDegrees>43.31346846185624599456787109375</LatitudeDegrees>
              <LongitudeDegrees>-2.67699010670185089111328125</LongitudeDegrees>
            </Position>
            <AltitudeMeters>19.200000762939453125</AltitudeMeters>
            <DistanceMeters>NAN</DistanceMeters>
          </Trackpoint>
          <Trackpoint>
            <Time>2022-07-11T11:35:42.000Z</Time>
            <Position>
              <LatitudeDegrees>43.31346997059881687164306640625</LatitudeDegrees>
              <LongitudeDegrees>-2.67699144780635833740234375</LongitudeDegrees>
            </Position>
            <AltitudeMeters>19.200000762939453125</AltitudeMeters>
            <DistanceMeters>NAN</DistanceMeters>
          </Trackpoint>
          <Trackpoint>
            <Time>2022-07-11T11:35:44.000Z</Time>
            <Position>
              <LatitudeDegrees>43.31344415433704853057861328125</LatitudeDegrees>
              <LongitudeDegrees>-2.6769782043993473052978515625</LongitudeDegrees>
            </Position>
            <AltitudeMeters>19.3999996185302734375</AltitudeMeters>
            <DistanceMeters>NAN</DistanceMeters>
          </Trackpoint>
          <Trackpoint>
            <Time>2022-07-11T11:35:46.000Z</Time>
            <Position>
              <LatitudeDegrees>43.31342923454940319061279296875</LatitudeDegrees>
              <LongitudeDegrees>-2.67703478224575519561767578125</LongitudeDegrees>
            </Position>
            <AltitudeMeters>19.799999237060546875</AltitudeMeters>
            <DistanceMeters>NAN</DistanceMeters>
          </Trackpoint>
          <Trackpoint>
            <Time>2022-07-11T11:35:47.000Z</Time>
            <Position>
              <LatitudeDegrees>43.31343837082386016845703125</LatitudeDegrees>
              <LongitudeDegrees>-2.6770911924540996551513671875</LongitudeDegrees>
            </Position>
            <AltitudeMeters>19.799999237060546875</AltitudeMeters>
            <DistanceMeters>NAN</DistanceMeters>
          </Trackpoint>
          <Trackpoint>
            <Time>2022-07-11T11:35:52.000Z</Time>
            <Position>
              <LatitudeDegrees>43.31346787512302398681640625</LatitudeDegrees>
              <LongitudeDegrees>-2.6773175038397312164306640625</LongitudeDegrees>
            </Position>
            <AltitudeMeters>19.6000003814697265625</AltitudeMeters>
            <DistanceMeters>NAN</DistanceMeters>
          </Trackpoint>
          <Trackpoint>
            <Time>2022-07-11T11:35:53.000Z</Time>
            <Position>
              <LatitudeDegrees>43.31349008716642856597900390625</LatitudeDegrees>
              <LongitudeDegrees>-2.67733435146510601043701171875</LongitudeDegrees>
            </Position>
            <AltitudeMeters>19.6000003814697265625</AltitudeMeters>
            <DistanceMeters>NAN</DistanceMeters>
          </Trackpoint>
          <Trackpoint>
            <Time>2022-07-11T11:35:55.000Z</Time>
            <Position>
              <LatitudeDegrees>43.31351841799914836883544921875</LatitudeDegrees>
              <LongitudeDegrees>-2.67739017494022846221923828125</LongitudeDegrees>
            </Position>
            <AltitudeMeters>19.6000003814697265625</AltitudeMeters>
            <DistanceMeters>NAN</DistanceMeters>
          </Trackpoint>
          <Trackpoint>
            <Time>2022-07-11T11:35:57.000Z</Time>
            <Position>
              <LatitudeDegrees>43.31351590342819690704345703125</LatitudeDegrees>
              <LongitudeDegrees>-2.6774408854544162750244140625</LongitudeDegrees>
            </Position>
            <AltitudeMeters>19.799999237060546875</AltitudeMeters>
            <DistanceMeters>NAN</DistanceMeters>
          </Trackpoint>
          <Trackpoint>
            <Time>2022-07-11T11:35:59.000Z</Time>
            <Position>
              <LatitudeDegrees>43.3135270513594150543212890625</LatitudeDegrees>
              <LongitudeDegrees>-2.67747717909514904022216796875</LongitudeDegrees>
            </Position>
            <AltitudeMeters>20</AltitudeMeters>
            <DistanceMeters>NAN</DistanceMeters>
          </Trackpoint>
          <Trackpoint>
            <Time>2022-07-11T11:36:01.000Z</Time>
            <Position>
              <LatitudeDegrees>43.31357507966458797454833984375</LatitudeDegrees>
              <LongitudeDegrees>-2.67747282050549983978271484375</LongitudeDegrees>
            </Position>
            <AltitudeMeters>20</AltitudeMeters>
            <DistanceMeters>NAN</DistanceMeters>
          </Trackpoint>
          <Trackpoint>
            <Time>2022-07-11T11:36:07.000Z</Time>
            <Position>
              <LatitudeDegrees>43.31366862170398235321044921875</LatitudeDegrees>
              <LongitudeDegrees>-2.67751221545040607452392578125</LongitudeDegrees>
            </Position>
            <AltitudeMeters>19.6000003814697265625</AltitudeMeters>
            <DistanceMeters>NAN</DistanceMeters>
          </Trackpoint>
          <Trackpoint>
            <Time>2022-07-11T11:36:12.000Z</Time>
            <Position>
              <LatitudeDegrees>43.31371623091399669647216796875</LatitudeDegrees>
              <LongitudeDegrees>-2.6775863952934741973876953125</LongitudeDegrees>
            </Position>
            <AltitudeMeters>19.200000762939453125</AltitudeMeters>
            <DistanceMeters>NAN</DistanceMeters>
          </Trackpoint>
          <Trackpoint>
            <Time>2022-07-11T11:36:14.000Z</Time>
            <Position>
              <LatitudeDegrees>43.31373131833970546722412109375</LatitudeDegrees>
              <LongitudeDegrees>-2.67761061899363994598388671875</LongitudeDegrees>
            </Position>
            <AltitudeMeters>19.3999996185302734375</AltitudeMeters>
            <DistanceMeters>NAN</DistanceMeters>
          </Trackpoint>
          <Trackpoint>
            <Time>2022-07-11T11:36:15.000Z</Time>
            <Position>
              <LatitudeDegrees>43.313739784061908721923828125</LatitudeDegrees>
              <LongitudeDegrees>-2.67762403003871440887451171875</LongitudeDegrees>
            </Position>
            <AltitudeMeters>19.3999996185302734375</AltitudeMeters>
            <DistanceMeters>NAN</DistanceMeters>
          </Trackpoint>
          <Trackpoint>
            <Time>2022-07-11T11:36:17.000Z</Time>
            <Position>
              <LatitudeDegrees>43.3137635886669158935546875</LatitudeDegrees>
              <LongitudeDegrees>-2.67766342498362064361572265625</LongitudeDegrees>
            </Position>
            <AltitudeMeters>19.3999996185302734375</AltitudeMeters>
            <DistanceMeters>NAN</DistanceMeters>
          </Trackpoint>
          <Trackpoint>
            <Time>2022-07-11T11:36:19.000Z</Time>
            <Position>
              <LatitudeDegrees>43.3137959428131580352783203125</LatitudeDegrees>
              <LongitudeDegrees>-2.6776802726089954376220703125</LongitudeDegrees>
            </Position>
            <AltitudeMeters>19.3999996185302734375</AltitudeMeters>
            <DistanceMeters>NAN</DistanceMeters>
          </Trackpoint>
          <Trackpoint>
            <Time>2022-07-11T11:36:24.000Z</Time>
            <Position>
              <LatitudeDegrees>43.31394740380346775054931640625</LatitudeDegrees>
              <LongitudeDegrees>-2.6777285523712635040283203125</LongitudeDegrees>
            </Position>
            <AltitudeMeters>19.6000003814697265625</AltitudeMeters>
            <DistanceMeters>NAN</DistanceMeters>
          </Trackpoint>
          <Trackpoint>
            <Time>2022-07-11T11:36:32.000Z</Time>
            <Position>
              <LatitudeDegrees>43.31420472823083400726318359375</LatitudeDegrees>
              <LongitudeDegrees>-2.67777641303837299346923828125</LongitudeDegrees>
            </Position>
            <AltitudeMeters>19.799999237060546875</AltitudeMeters>
            <DistanceMeters>NAN</DistanceMeters>
          </Trackpoint>
          <Trackpoint>
            <Time>2022-07-11T11:36:39.000Z</Time>
            <Position>
              <LatitudeDegrees>43.31434302963316440582275390625</LatitudeDegrees>
              <LongitudeDegrees>-2.6777927577495574951171875</LongitudeDegrees>
            </Position>
            <AltitudeMeters>20.200000762939453125</AltitudeMeters>
            <DistanceMeters>NAN</DistanceMeters>
          </Trackpoint>
          <Trackpoint>
            <Time>2022-07-11T11:36:41.000Z</Time>
            <Position>
              <LatitudeDegrees>43.31438384950160980224609375</LatitudeDegrees>
              <LongitudeDegrees>-2.67777054570615291595458984375</LongitudeDegrees>
            </Position>
            <AltitudeMeters>20.200000762939453125</AltitudeMeters>
            <DistanceMeters>NAN</DistanceMeters>
          </Trackpoint>
          <Trackpoint>
            <Time>2022-07-11T11:36:44.000Z</Time>
            <Position>
              <LatitudeDegrees>43.314428441226482391357421875</LatitudeDegrees>
              <LongitudeDegrees>-2.67773098312318325042724609375</LongitudeDegrees>
            </Position>
            <AltitudeMeters>20.200000762939453125</AltitudeMeters>
            <DistanceMeters>NAN</DistanceMeters>
          </Trackpoint>
          <Trackpoint>
            <Time>2022-07-11T11:36:45.000Z</Time>
            <Position>
              <LatitudeDegrees>43.31445283256471157073974609375</LatitudeDegrees>
              <LongitudeDegrees>-2.67770952545106410980224609375</LongitudeDegrees>
            </Position>
            <AltitudeMeters>20.3999996185302734375</AltitudeMeters>
            <DistanceMeters>NAN</DistanceMeters>
          </Trackpoint>
          <Trackpoint>
            <Time>2022-07-11T11:36:51.000Z</Time>
            <Position>
              <LatitudeDegrees>43.3146465383470058441162109375</LatitudeDegrees>
              <LongitudeDegrees>-2.67748371697962284088134765625</LongitudeDegrees>
            </Position>
            <AltitudeMeters>20.6000003814697265625</AltitudeMeters>
            <DistanceMeters>NAN</DistanceMeters>
          </Trackpoint>
          <Trackpoint>
            <Time>2022-07-11T11:36:53.000Z</Time>
            <Position>
              <LatitudeDegrees>43.31469356082379817962646484375</LatitudeDegrees>
              <LongitudeDegrees>-2.67743191681802272796630859375</LongitudeDegrees>
            </Position>
            <AltitudeMeters>20</AltitudeMeters>
            <DistanceMeters>NAN</DistanceMeters>
          </Trackpoint>
          <Trackpoint>
            <Time>2022-07-11T11:36:56.000Z</Time>
            <Position>
              <LatitudeDegrees>43.3147296868264675140380859375</LatitudeDegrees>
              <LongitudeDegrees>-2.67738078720867633819580078125</LongitudeDegrees>
            </Position>
            <AltitudeMeters>19.3999996185302734375</AltitudeMeters>
            <DistanceMeters>NAN</DistanceMeters>
          </Trackpoint>
          <Trackpoint>
            <Time>2022-07-11T11:36:57.000Z</Time>
            <Position>
              <LatitudeDegrees>43.31473530270159244537353515625</LatitudeDegrees>
              <LongitudeDegrees>-2.677347175776958465576171875</LongitudeDegrees>
            </Position>
            <AltitudeMeters>19.200000762939453125</AltitudeMeters>
            <DistanceMeters>NAN</DistanceMeters>
          </Trackpoint>
          <Trackpoint>
            <Time>2022-07-11T11:36:59.000Z</Time>
            <Position>
              <LatitudeDegrees>43.31475357525050640106201171875</LatitudeDegrees>
              <LongitudeDegrees>-2.67725958488881587982177734375</LongitudeDegrees>
            </Position>
            <AltitudeMeters>19</AltitudeMeters>
            <DistanceMeters>NAN</DistanceMeters>
          </Trackpoint>
          <Trackpoint>
            <Time>2022-07-11T11:37:00.000Z</Time>
            <Position>
              <LatitudeDegrees>43.314755670726299285888671875</LatitudeDegrees>
              <LongitudeDegrees>-2.67723326571285724639892578125</LongitudeDegrees>
            </Position>
            <AltitudeMeters>18.799999237060546875</AltitudeMeters>
            <DistanceMeters>NAN</DistanceMeters>
          </Trackpoint>
          <Trackpoint>
            <Time>2022-07-11T11:37:01.000Z</Time>
            <Position>
              <LatitudeDegrees>43.314755670726299285888671875</LatitudeDegrees>
              <LongitudeDegrees>-2.67723326571285724639892578125</LongitudeDegrees>
            </Position>
            <AltitudeMeters>18.799999237060546875</AltitudeMeters>
            <DistanceMeters>NAN</DistanceMeters>
          </Trackpoint>
          <Trackpoint>
            <Time>2022-07-11T11:37:03.000Z</Time>
            <Position>
              <LatitudeDegrees>43.3147746138274669647216796875</LatitudeDegrees>
              <LongitudeDegrees>-2.6771543920040130615234375</LongitudeDegrees>
            </Position>
            <AltitudeMeters>18.799999237060546875</AltitudeMeters>
            <DistanceMeters>NAN</DistanceMeters>
          </Trackpoint>
          <Trackpoint>
            <Time>2022-07-11T11:37:07.000Z</Time>
            <Position>
              <LatitudeDegrees>43.31475860439240932464599609375</LatitudeDegrees>
              <LongitudeDegrees>-2.67711105756461620330810546875</LongitudeDegrees>
            </Position>
            <AltitudeMeters>18.799999237060546875</AltitudeMeters>
            <DistanceMeters>NAN</DistanceMeters>
          </Trackpoint>
          <Trackpoint>
            <Time>2022-07-11T11:37:11.000Z</Time>
            <Position>
              <LatitudeDegrees>43.31481928937137126922607421875</LatitudeDegrees>
              <LongitudeDegrees>-2.6770214550197124481201171875</LongitudeDegrees>
            </Position>
            <AltitudeMeters>18.6000003814697265625</AltitudeMeters>
            <DistanceMeters>NAN</DistanceMeters>
          </Trackpoint>
          <Trackpoint>
            <Time>2022-07-11T11:37:13.000Z</Time>
            <Position>
              <LatitudeDegrees>43.3148104883730411529541015625</LatitudeDegrees>
              <LongitudeDegrees>-2.67699572257697582244873046875</LongitudeDegrees>
            </Position>
            <AltitudeMeters>18.6000003814697265625</AltitudeMeters>
            <DistanceMeters>NAN</DistanceMeters>
          </Trackpoint>
          <Trackpoint>
            <Time>2022-07-11T11:37:17.000Z</Time>
            <Position>
              <LatitudeDegrees>43.31479162909090518951416015625</LatitudeDegrees>
              <LongitudeDegrees>-2.676914669573307037353515625</LongitudeDegrees>
            </Position>
            <AltitudeMeters>18.6000003814697265625</AltitudeMeters>
            <DistanceMeters>NAN</DistanceMeters>
          </Trackpoint>
          <Trackpoint>
            <Time>2022-07-11T11:37:19.000Z</Time>
            <Position>
              <LatitudeDegrees>43.31478341482579708099365234375</LatitudeDegrees>
              <LongitudeDegrees>-2.67691056244075298309326171875</LongitudeDegrees>
            </Position>
            <AltitudeMeters>18.799999237060546875</AltitudeMeters>
            <DistanceMeters>NAN</DistanceMeters>
          </Trackpoint>
          <Trackpoint>
            <Time>2022-07-11T11:37:22.000Z</Time>
            <Position>
              <LatitudeDegrees>43.31479079090058803558349609375</LatitudeDegrees>
              <LongitudeDegrees>-2.67690117470920085906982421875</LongitudeDegrees>
            </Position>
            <AltitudeMeters>18.799999237060546875</AltitudeMeters>
            <DistanceMeters>NAN</DistanceMeters>
          </Trackpoint>
          <Trackpoint>
            <Time>2022-07-11T11:38:23.000Z</Time>
            <Position>
              <LatitudeDegrees>43.31480839289724826812744140625</LatitudeDegrees>
              <LongitudeDegrees>-2.67700091935694217681884765625</LongitudeDegrees>
            </Position>
            <AltitudeMeters>19</AltitudeMeters>
            <DistanceMeters>NAN</DistanceMeters>
          </Trackpoint>
          <Trackpoint>
            <Time>2022-07-11T11:38:24.000Z</Time>
            <Position>
              <LatitudeDegrees>43.31477218307554721832275390625</LatitudeDegrees>
              <LongitudeDegrees>-2.67701701261103153228759765625</LongitudeDegrees>
            </Position>
            <AltitudeMeters>19</AltitudeMeters>
            <DistanceMeters>NAN</DistanceMeters>
          </Trackpoint>
          <Trackpoint>
            <Time>2022-07-11T11:38:27.000Z</Time>
            <Position>
              <LatitudeDegrees>43.31476463936269283294677734375</LatitudeDegrees>
              <LongitudeDegrees>-2.677023969590663909912109375</LongitudeDegrees>
            </Position>
            <AltitudeMeters>19.799999237060546875</AltitudeMeters>
            <DistanceMeters>NAN</DistanceMeters>
          </Trackpoint>
          <Trackpoint>
            <Time>2022-07-11T11:38:29.000Z</Time>
            <Position>
              <LatitudeDegrees>43.314724154770374298095703125</LatitudeDegrees>
              <LongitudeDegrees>-2.6770164258778095245361328125</LongitudeDegrees>
            </Position>
            <AltitudeMeters>20</AltitudeMeters>
            <DistanceMeters>NAN</DistanceMeters>
          </Trackpoint>
          <Trackpoint>
            <Time>2022-07-11T11:38:33.000Z</Time>
            <Position>
              <LatitudeDegrees>43.31471853889524936676025390625</LatitudeDegrees>
              <LongitudeDegrees>-2.6769782043993473052978515625</LongitudeDegrees>
            </Position>
            <AltitudeMeters>19.799999237060546875</AltitudeMeters>
            <DistanceMeters>NAN</DistanceMeters>
          </Trackpoint>
          <Trackpoint>
            <Time>2022-07-11T11:38:34.000Z</Time>
            <Position>
              <LatitudeDegrees>43.31473228521645069122314453125</LatitudeDegrees>
              <LongitudeDegrees>-2.67695750109851360321044921875</LongitudeDegrees>
            </Position>
            <AltitudeMeters>19.6000003814697265625</AltitudeMeters>
            <DistanceMeters>NAN</DistanceMeters>
          </Trackpoint>
          <Trackpoint>
            <Time>2022-07-11T11:38:37.000Z</Time>
            <Position>
              <LatitudeDegrees>43.31474938429892063140869140625</LatitudeDegrees>
              <LongitudeDegrees>-2.67688910476863384246826171875</LongitudeDegrees>
            </Position>
            <AltitudeMeters>19.6000003814697265625</AltitudeMeters>
            <DistanceMeters>NAN</DistanceMeters>
          </Trackpoint>
          <Trackpoint>
            <Time>2022-07-11T11:39:27.000Z</Time>
            <Position>
              <LatitudeDegrees>43.3148342929780483245849609375</LatitudeDegrees>
              <LongitudeDegrees>-2.6769423298537731170654296875</LongitudeDegrees>
            </Position>
            <AltitudeMeters>20.3999996185302734375</AltitudeMeters>
            <DistanceMeters>NAN</DistanceMeters>
          </Trackpoint>
          <Trackpoint>
            <Time>2022-07-11T11:39:29.000Z</Time>
            <Position>
              <LatitudeDegrees>43.31475307233631610870361328125</LatitudeDegrees>
              <LongitudeDegrees>-2.676869072020053863525390625</LongitudeDegrees>
            </Position>
            <AltitudeMeters>20.6000003814697265625</AltitudeMeters>
            <DistanceMeters>NAN</DistanceMeters>
          </Trackpoint>
          <Trackpoint>
            <Time>2022-07-11T11:39:30.000Z</Time>
            <Position>
              <LatitudeDegrees>43.31475558690726757049560546875</LatitudeDegrees>
              <LongitudeDegrees>-2.67688323743641376495361328125</LongitudeDegrees>
            </Position>
            <AltitudeMeters>20.6000003814697265625</AltitudeMeters>
            <DistanceMeters>NAN</DistanceMeters>
          </Trackpoint>
          <Trackpoint>
            <Time>2022-07-11T11:39:32.000Z</Time>
            <Position>
              <LatitudeDegrees>43.314755000174045562744140625</LatitudeDegrees>
              <LongitudeDegrees>-2.676911652088165283203125</LongitudeDegrees>
            </Position>
            <AltitudeMeters>20.6000003814697265625</AltitudeMeters>
            <DistanceMeters>NAN</DistanceMeters>
          </Trackpoint>
          <Trackpoint>
            <Time>2022-07-11T11:39:33.000Z</Time>
            <Position>
              <LatitudeDegrees>43.31476950086653232574462890625</LatitudeDegrees>
              <LongitudeDegrees>-2.676916010677814483642578125</LongitudeDegrees>
            </Position>
            <AltitudeMeters>20.3999996185302734375</AltitudeMeters>
            <DistanceMeters>NAN</DistanceMeters>
          </Trackpoint>
          <Trackpoint>
            <Time>2022-07-11T11:39:36.000Z</Time>
            <Position>
              <LatitudeDegrees>43.31474921666085720062255859375</LatitudeDegrees>
              <LongitudeDegrees>-2.6769453473389148712158203125</LongitudeDegrees>
            </Position>
            <AltitudeMeters>20.3999996185302734375</AltitudeMeters>
            <DistanceMeters>NAN</DistanceMeters>
          </Trackpoint>
          <Trackpoint>
            <Time>2022-07-11T11:39:38.000Z</Time>
            <Position>
              <LatitudeDegrees>43.31475089304149150848388671875</LatitudeDegrees>
              <LongitudeDegrees>-2.67694509588181972503662109375</LongitudeDegrees>
            </Position>
            <AltitudeMeters>20.3999996185302734375</AltitudeMeters>
            <DistanceMeters>NAN</DistanceMeters>
          </Trackpoint>
          <Trackpoint>
            <Time>2022-07-11T11:39:40.000Z</Time>
            <Position>
              <LatitudeDegrees>43.31476983614265918731689453125</LatitudeDegrees>
              <LongitudeDegrees>-2.67691290937364101409912109375</LongitudeDegrees>
            </Position>
            <AltitudeMeters>20.3999996185302734375</AltitudeMeters>
            <DistanceMeters>NAN</DistanceMeters>
          </Trackpoint>
          <Trackpoint>
            <Time>2022-07-11T11:39:44.000Z</Time>
            <Position>
              <LatitudeDegrees>43.31474888138473033905029296875</LatitudeDegrees>
              <LongitudeDegrees>-2.67686597071588039398193359375</LongitudeDegrees>
            </Position>
            <AltitudeMeters>20.200000762939453125</AltitudeMeters>
            <DistanceMeters>NAN</DistanceMeters>
          </Trackpoint>
          <Trackpoint>
            <Time>2022-07-11T11:54:12.000Z</Time>
            <Position>
              <LatitudeDegrees>43.31521726213395595550537109375</LatitudeDegrees>
              <LongitudeDegrees>-2.676704116165637969970703125</LongitudeDegrees>
            </Position>
            <AltitudeMeters>24.6000003814697265625</AltitudeMeters>
            <DistanceMeters>NAN</DistanceMeters>
          </Trackpoint>
          <Trackpoint>
            <Time>2022-07-11T12:01:27.000Z</Time>
            <Position>
              <LatitudeDegrees>43.31491400487720966339111328125</LatitudeDegrees>
              <LongitudeDegrees>-2.6769305951893329620361328125</LongitudeDegrees>
            </Position>
            <AltitudeMeters>25.3999996185302734375</AltitudeMeters>
            <DistanceMeters>NAN</DistanceMeters>
          </Trackpoint>
          <Trackpoint>
            <Time>2022-07-11T12:01:28.000Z</Time>
            <Position>
              <LatitudeDegrees>43.31491626799106597900390625</LatitudeDegrees>
              <LongitudeDegrees>-2.6769585907459259033203125</LongitudeDegrees>
            </Position>
            <AltitudeMeters>25.3999996185302734375</AltitudeMeters>
            <DistanceMeters>NAN</DistanceMeters>
          </Trackpoint>
          <Trackpoint>
            <Time>2022-07-11T12:01:30.000Z</Time>
            <Position>
              <LatitudeDegrees>43.314911909401416778564453125</LatitudeDegrees>
              <LongitudeDegrees>-2.67702405340969562530517578125</LongitudeDegrees>
            </Position>
            <AltitudeMeters>25.799999237060546875</AltitudeMeters>
            <DistanceMeters>NAN</DistanceMeters>
          </Trackpoint>
          <Trackpoint>
            <Time>2022-07-11T12:01:32.000Z</Time>
            <Position>
              <LatitudeDegrees>43.3148969896137714385986328125</LatitudeDegrees>
              <LongitudeDegrees>-2.67709194682538509368896484375</LongitudeDegrees>
            </Position>
            <AltitudeMeters>26</AltitudeMeters>
            <DistanceMeters>NAN</DistanceMeters>
          </Trackpoint>
          <Trackpoint>
            <Time>2022-07-11T12:01:35.000Z</Time>
            <Position>
              <LatitudeDegrees>43.314857594668865203857421875</LatitudeDegrees>
              <LongitudeDegrees>-2.67718791961669921875</LongitudeDegrees>
            </Position>
            <AltitudeMeters>26.200000762939453125</AltitudeMeters>
            <DistanceMeters>NAN</DistanceMeters>
          </Trackpoint>
          <Trackpoint>
            <Time>2022-07-11T12:01:37.000Z</Time>
            <Position>
              <LatitudeDegrees>43.31484108231961727142333984375</LatitudeDegrees>
              <LongitudeDegrees>-2.67724533565342426300048828125</LongitudeDegrees>
            </Position>
            <AltitudeMeters>26.3999996185302734375</AltitudeMeters>
            <DistanceMeters>NAN</DistanceMeters>
          </Trackpoint>
          <Trackpoint>
            <Time>2022-07-11T12:01:38.000Z</Time>
            <Position>
              <LatitudeDegrees>43.31483311951160430908203125</LatitudeDegrees>
              <LongitudeDegrees>-2.67727048136293888092041015625</LongitudeDegrees>
            </Position>
            <AltitudeMeters>26.3999996185302734375</AltitudeMeters>
            <DistanceMeters>NAN</DistanceMeters>
          </Trackpoint>
          <Trackpoint>
            <Time>2022-07-11T12:01:39.000Z</Time>
            <Position>
              <LatitudeDegrees>43.31481300294399261474609375</LatitudeDegrees>
              <LongitudeDegrees>-2.6772980578243732452392578125</LongitudeDegrees>
            </Position>
            <AltitudeMeters>26.3999996185302734375</AltitudeMeters>
            <DistanceMeters>NAN</DistanceMeters>
          </Trackpoint>
          <Trackpoint>
            <Time>2022-07-11T12:01:42.000Z</Time>
            <Position>
              <LatitudeDegrees>43.314789868891239166259765625</LatitudeDegrees>
              <LongitudeDegrees>-2.67738749273121356964111328125</LongitudeDegrees>
            </Position>
            <AltitudeMeters>26.6000003814697265625</AltitudeMeters>
            <DistanceMeters>NAN</DistanceMeters>
          </Trackpoint>
          <Trackpoint>
            <Time>2022-07-11T12:01:44.000Z</Time>
            <Position>
              <LatitudeDegrees>43.31480361521244049072265625</LatitudeDegrees>
              <LongitudeDegrees>-2.67742956988513469696044921875</LongitudeDegrees>
            </Position>
            <AltitudeMeters>26.6000003814697265625</AltitudeMeters>
            <DistanceMeters>NAN</DistanceMeters>
          </Trackpoint>
          <Trackpoint>
            <Time>2022-07-11T12:01:47.000Z</Time>
            <Position>
              <LatitudeDegrees>43.3147813193500041961669921875</LatitudeDegrees>
              <LongitudeDegrees>-2.67751447856426239013671875</LongitudeDegrees>
            </Position>
            <AltitudeMeters>26.799999237060546875</AltitudeMeters>
            <DistanceMeters>NAN</DistanceMeters>
          </Trackpoint>
          <Trackpoint>
            <Time>2022-07-11T12:01:54.000Z</Time>
            <Position>
              <LatitudeDegrees>43.3146760426461696624755859375</LatitudeDegrees>
              <LongitudeDegrees>-2.67764599062502384185791015625</LongitudeDegrees>
            </Position>
            <AltitudeMeters>26.799999237060546875</AltitudeMeters>
            <DistanceMeters>NAN</DistanceMeters>
          </Trackpoint>
          <Trackpoint>
            <Time>2022-07-11T12:02:00.000Z</Time>
            <Position>
              <LatitudeDegrees>43.314522989094257354736328125</LatitudeDegrees>
              <LongitudeDegrees>-2.67773064784705638885498046875</LongitudeDegrees>
            </Position>
            <AltitudeMeters>26.799999237060546875</AltitudeMeters>
            <DistanceMeters>NAN</DistanceMeters>
          </Trackpoint>
          <Trackpoint>
            <Time>2022-07-11T12:02:01.000Z</Time>
            <Position>
              <LatitudeDegrees>43.314502537250518798828125</LatitudeDegrees>
              <LongitudeDegrees>-2.67773651517927646636962890625</LongitudeDegrees>
            </Position>
            <AltitudeMeters>26.799999237060546875</AltitudeMeters>
            <DistanceMeters>NAN</DistanceMeters>
          </Trackpoint>
          <Trackpoint>
            <Time>2022-07-11T12:02:02.000Z</Time>
            <Position>
              <LatitudeDegrees>43.31447236239910125732421875</LatitudeDegrees>
              <LongitudeDegrees>-2.6777372695505619049072265625</LongitudeDegrees>
            </Position>
            <AltitudeMeters>26.799999237060546875</AltitudeMeters>
            <DistanceMeters>NAN</DistanceMeters>
          </Trackpoint>
          <Trackpoint>
            <Time>2022-07-11T12:02:04.000Z</Time>
            <Position>
              <LatitudeDegrees>43.31443472765386104583740234375</LatitudeDegrees>
              <LongitudeDegrees>-2.6777044124901294708251953125</LongitudeDegrees>
            </Position>
            <AltitudeMeters>26.6000003814697265625</AltitudeMeters>
            <DistanceMeters>NAN</DistanceMeters>
          </Trackpoint>
          <Trackpoint>
            <Time>2022-07-11T12:02:06.000Z</Time>
            <Position>
              <LatitudeDegrees>43.3144051395356655120849609375</LatitudeDegrees>
              <LongitudeDegrees>-2.67767868004739284515380859375</LongitudeDegrees>
            </Position>
            <AltitudeMeters>26.6000003814697265625</AltitudeMeters>
            <DistanceMeters>NAN</DistanceMeters>
          </Trackpoint>
          <Trackpoint>
            <Time>2022-07-11T12:02:14.000Z</Time>
            <Position>
              <LatitudeDegrees>43.31424814648926258087158203125</LatitudeDegrees>
              <LongitudeDegrees>-2.67762989737093448638916015625</LongitudeDegrees>
            </Position>
            <AltitudeMeters>26.3999996185302734375</AltitudeMeters>
            <DistanceMeters>NAN</DistanceMeters>
          </Trackpoint>
          <Trackpoint>
            <Time>2022-07-11T12:02:16.000Z</Time>
            <Position>
              <LatitudeDegrees>43.31422115676105022430419921875</LatitudeDegrees>
              <LongitudeDegrees>-2.677617408335208892822265625</LongitudeDegrees>
            </Position>
            <AltitudeMeters>26.3999996185302734375</AltitudeMeters>
            <DistanceMeters>NAN</DistanceMeters>
          </Trackpoint>
          <Trackpoint>
            <Time>2022-07-11T12:02:19.000Z</Time>
            <Position>
              <LatitudeDegrees>43.31417807377874851226806640625</LatitudeDegrees>
              <LongitudeDegrees>-2.67759117297828197479248046875</LongitudeDegrees>
            </Position>
            <AltitudeMeters>26.200000762939453125</AltitudeMeters>
            <DistanceMeters>NAN</DistanceMeters>
          </Trackpoint>
          <Trackpoint>
            <Time>2022-07-11T12:02:22.000Z</Time>
            <Position>
              <LatitudeDegrees>43.31412342377007007598876953125</LatitudeDegrees>
              <LongitudeDegrees>-2.67756585963070392608642578125</LongitudeDegrees>
            </Position>
            <AltitudeMeters>26.200000762939453125</AltitudeMeters>
            <DistanceMeters>NAN</DistanceMeters>
          </Trackpoint>
          <Trackpoint>
            <Time>2022-07-11T12:02:25.000Z</Time>
            <Position>
              <LatitudeDegrees>43.3140755631029605865478515625</LatitudeDegrees>
              <LongitudeDegrees>-2.67755663953721523284912109375</LongitudeDegrees>
            </Position>
            <AltitudeMeters>26.200000762939453125</AltitudeMeters>
            <DistanceMeters>NAN</DistanceMeters>
          </Trackpoint>
          <Trackpoint>
            <Time>2022-07-11T12:02:28.000Z</Time>
            <Position>
              <LatitudeDegrees>43.3140346594154834747314453125</LatitudeDegrees>
              <LongitudeDegrees>-2.67753199674189090728759765625</LongitudeDegrees>
            </Position>
            <AltitudeMeters>26</AltitudeMeters>
            <DistanceMeters>NAN</DistanceMeters>
          </Trackpoint>
          <Trackpoint>
            <Time>2022-07-11T12:02:31.000Z</Time>
            <Position>
              <LatitudeDegrees>43.3139803446829319000244140625</LatitudeDegrees>
              <LongitudeDegrees>-2.677553705871105194091796875</LongitudeDegrees>
            </Position>
            <AltitudeMeters>26</AltitudeMeters>
            <DistanceMeters>NAN</DistanceMeters>
          </Trackpoint>
          <Trackpoint>
            <Time>2022-07-11T12:02:33.000Z</Time>
            <Position>
              <LatitudeDegrees>43.3139407820999622344970703125</LatitudeDegrees>
              <LongitudeDegrees>-2.6775444857776165008544921875</LongitudeDegrees>
            </Position>
            <AltitudeMeters>25.799999237060546875</AltitudeMeters>
            <DistanceMeters>NAN</DistanceMeters>
          </Trackpoint>
          <Trackpoint>
            <Time>2022-07-11T12:02:36.000Z</Time>
            <Position>
              <LatitudeDegrees>43.3139022253453731536865234375</LatitudeDegrees>
              <LongitudeDegrees>-2.67752654850482940673828125</LongitudeDegrees>
            </Position>
            <AltitudeMeters>25.799999237060546875</AltitudeMeters>
            <DistanceMeters>NAN</DistanceMeters>
          </Trackpoint>
          <Trackpoint>
            <Time>2022-07-11T12:02:38.000Z</Time>
            <Position>
              <LatitudeDegrees>43.31384028308093547821044921875</LatitudeDegrees>
              <LongitudeDegrees>-2.6774923503398895263671875</LongitudeDegrees>
            </Position>
            <AltitudeMeters>25.799999237060546875</AltitudeMeters>
            <DistanceMeters>NAN</DistanceMeters>
          </Trackpoint>
          <Trackpoint>
            <Time>2022-07-11T12:02:42.000Z</Time>
            <Position>
              <LatitudeDegrees>43.31378010101616382598876953125</LatitudeDegrees>
              <LongitudeDegrees>-2.67745387740433216094970703125</LongitudeDegrees>
            </Position>
            <AltitudeMeters>26</AltitudeMeters>
            <DistanceMeters>NAN</DistanceMeters>
          </Trackpoint>
          <Trackpoint>
            <Time>2022-07-11T12:02:46.000Z</Time>
            <Position>
              <LatitudeDegrees>43.3137070946395397186279296875</LatitudeDegrees>
              <LongitudeDegrees>-2.6774371974170207977294921875</LongitudeDegrees>
            </Position>
            <AltitudeMeters>25.3999996185302734375</AltitudeMeters>
            <DistanceMeters>NAN</DistanceMeters>
          </Trackpoint>
          <Trackpoint>
            <Time>2022-07-11T12:02:48.000Z</Time>
            <Position>
              <LatitudeDegrees>43.3136779256165027618408203125</LatitudeDegrees>
              <LongitudeDegrees>-2.6774197630584239959716796875</LongitudeDegrees>
            </Position>
            <AltitudeMeters>25.3999996185302734375</AltitudeMeters>
            <DistanceMeters>NAN</DistanceMeters>
          </Trackpoint>
          <Trackpoint>
            <Time>2022-07-11T12:02:49.000Z</Time>
            <Position>
              <LatitudeDegrees>43.31366233527660369873046875</LatitudeDegrees>
              <LongitudeDegrees>-2.6774103753268718719482421875</LongitudeDegrees>
            </Position>
            <AltitudeMeters>25.200000762939453125</AltitudeMeters>
            <DistanceMeters>NAN</DistanceMeters>
          </Trackpoint>
          <Trackpoint>
            <Time>2022-07-11T12:02:52.000Z</Time>
            <Position>
              <LatitudeDegrees>43.31359787844121456146240234375</LatitudeDegrees>
              <LongitudeDegrees>-2.67741967923939228057861328125</LongitudeDegrees>
            </Position>
            <AltitudeMeters>25.200000762939453125</AltitudeMeters>
            <DistanceMeters>NAN</DistanceMeters>
          </Trackpoint>
          <Trackpoint>
            <Time>2022-07-11T12:02:53.000Z</Time>
            <Position>
              <LatitudeDegrees>43.31357642076909542083740234375</LatitudeDegrees>
              <LongitudeDegrees>-2.6774180866777896881103515625</LongitudeDegrees>
            </Position>
            <AltitudeMeters>25.200000762939453125</AltitudeMeters>
            <DistanceMeters>NAN</DistanceMeters>
          </Trackpoint>
          <Trackpoint>
            <Time>2022-07-11T12:02:56.000Z</Time>
            <Position>
              <LatitudeDegrees>43.3135082758963108062744140625</LatitudeDegrees>
              <LongitudeDegrees>-2.6774107106029987335205078125</LongitudeDegrees>
            </Position>
            <AltitudeMeters>25.200000762939453125</AltitudeMeters>
            <DistanceMeters>NAN</DistanceMeters>
          </Trackpoint>
          <Trackpoint>
            <Time>2022-07-11T12:02:57.000Z</Time>
            <Position>
              <LatitudeDegrees>43.3135032467544078826904296875</LatitudeDegrees>
              <LongitudeDegrees>-2.67739503644406795501708984375</LongitudeDegrees>
            </Position>
            <AltitudeMeters>25.200000762939453125</AltitudeMeters>
            <DistanceMeters>NAN</DistanceMeters>
          </Trackpoint>
          <Trackpoint>
            <Time>2022-07-11T12:02:58.000Z</Time>
            <Position>
              <LatitudeDegrees>43.31348598003387451171875</LatitudeDegrees>
              <LongitudeDegrees>-2.67739235423505306243896484375</LongitudeDegrees>
            </Position>
            <AltitudeMeters>25.200000762939453125</AltitudeMeters>
            <DistanceMeters>NAN</DistanceMeters>
          </Trackpoint>
          <Trackpoint>
            <Time>2022-07-11T12:03:01.000Z</Time>
            <Position>
              <LatitudeDegrees>43.31343577243387699127197265625</LatitudeDegrees>
              <LongitudeDegrees>-2.67736829817295074462890625</LongitudeDegrees>
            </Position>
            <AltitudeMeters>25</AltitudeMeters>
            <DistanceMeters>NAN</DistanceMeters>
          </Trackpoint>
          <Trackpoint>
            <Time>2022-07-11T12:03:02.000Z</Time>
            <Position>
              <LatitudeDegrees>43.313425295054912567138671875</LatitudeDegrees>
              <LongitudeDegrees>-2.67735488712787628173828125</LongitudeDegrees>
            </Position>
            <AltitudeMeters>25</AltitudeMeters>
            <DistanceMeters>NAN</DistanceMeters>
          </Trackpoint>
          <Trackpoint>
            <Time>2022-07-11T12:03:03.000Z</Time>
            <Position>
              <LatitudeDegrees>43.31342160701751708984375</LatitudeDegrees>
              <LongitudeDegrees>-2.67732798121869564056396484375</LongitudeDegrees>
            </Position>
            <AltitudeMeters>25</AltitudeMeters>
            <DistanceMeters>NAN</DistanceMeters>
          </Trackpoint>
          <Trackpoint>
            <Time>2022-07-11T12:03:06.000Z</Time>
            <Position>
              <LatitudeDegrees>43.31342018209397792816162109375</LatitudeDegrees>
              <LongitudeDegrees>-2.67727098427712917327880859375</LongitudeDegrees>
            </Position>
            <AltitudeMeters>24.799999237060546875</AltitudeMeters>
            <DistanceMeters>NAN</DistanceMeters>
          </Trackpoint>
          <Trackpoint>
            <Time>2022-07-11T12:03:07.000Z</Time>
            <Position>
              <LatitudeDegrees>43.31341632641851902008056640625</LatitudeDegrees>
              <LongitudeDegrees>-2.6772434078156948089599609375</LongitudeDegrees>
            </Position>
            <AltitudeMeters>24.6000003814697265625</AltitudeMeters>
            <DistanceMeters>NAN</DistanceMeters>
          </Trackpoint>
          <Trackpoint>
            <Time>2022-07-11T12:03:09.000Z</Time>
            <Position>
              <LatitudeDegrees>43.31340945325791835784912109375</LatitudeDegrees>
              <LongitudeDegrees>-2.677193619310855865478515625</LongitudeDegrees>
            </Position>
            <AltitudeMeters>24.6000003814697265625</AltitudeMeters>
            <DistanceMeters>NAN</DistanceMeters>
          </Trackpoint>
          <Trackpoint>
            <Time>2022-07-11T12:03:11.000Z</Time>
            <Position>
              <LatitudeDegrees>43.3134190924465656280517578125</LatitudeDegrees>
              <LongitudeDegrees>-2.67714559100568294525146484375</LongitudeDegrees>
            </Position>
            <AltitudeMeters>24.3999996185302734375</AltitudeMeters>
            <DistanceMeters>NAN</DistanceMeters>
          </Trackpoint>
          <Trackpoint>
            <Time>2022-07-11T12:03:12.000Z</Time>
            <Position>
              <LatitudeDegrees>43.313409872353076934814453125</LatitudeDegrees>
              <LongitudeDegrees>-2.67712379805743694305419921875</LongitudeDegrees>
            </Position>
            <AltitudeMeters>24.3999996185302734375</AltitudeMeters>
            <DistanceMeters>NAN</DistanceMeters>
          </Trackpoint>
          <Trackpoint>
            <Time>2022-07-11T12:03:16.000Z</Time>
            <Position>
              <LatitudeDegrees>43.31339553929865360260009765625</LatitudeDegrees>
              <LongitudeDegrees>-2.67707954160869121551513671875</LongitudeDegrees>
            </Position>
            <AltitudeMeters>24.200000762939453125</AltitudeMeters>
            <DistanceMeters>NAN</DistanceMeters>
          </Trackpoint>
          <Trackpoint>
            <Time>2022-07-11T12:03:17.000Z</Time>
            <Position>
              <LatitudeDegrees>43.31339679658412933349609375</LatitudeDegrees>
              <LongitudeDegrees>-2.6770821399986743927001953125</LongitudeDegrees>
            </Position>
            <AltitudeMeters>24</AltitudeMeters>
            <DistanceMeters>NAN</DistanceMeters>
          </Trackpoint>
          <Trackpoint>
            <Time>2022-07-11T12:03:39.000Z</Time>
            <Position>
              <LatitudeDegrees>43.3133698068559169769287109375</LatitudeDegrees>
              <LongitudeDegrees>-2.6770479418337345123291015625</LongitudeDegrees>
            </Position>
            <AltitudeMeters>23.799999237060546875</AltitudeMeters>
            <DistanceMeters>NAN</DistanceMeters>
          </Trackpoint>
          <Trackpoint>
            <Time>2022-07-11T12:03:41.000Z</Time>
            <Position>
              <LatitudeDegrees>43.3133118040859699249267578125</LatitudeDegrees>
              <LongitudeDegrees>-2.67703159712255001068115234375</LongitudeDegrees>
            </Position>
            <AltitudeMeters>23.799999237060546875</AltitudeMeters>
            <DistanceMeters>NAN</DistanceMeters>
          </Trackpoint>
          <Trackpoint>
            <Time>2022-07-11T12:03:47.000Z</Time>
            <Position>
              <LatitudeDegrees>43.3131525479257106781005859375</LatitudeDegrees>
              <LongitudeDegrees>-2.6770244725048542022705078125</LongitudeDegrees>
            </Position>
            <AltitudeMeters>23.6000003814697265625</AltitudeMeters>
            <DistanceMeters>NAN</DistanceMeters>
          </Trackpoint>
          <Trackpoint>
            <Time>2022-07-11T12:03:51.000Z</Time>
            <Position>
              <LatitudeDegrees>43.31304232589900493621826171875</LatitudeDegrees>
              <LongitudeDegrees>-2.67702321521937847137451171875</LongitudeDegrees>
            </Position>
            <AltitudeMeters>23.6000003814697265625</AltitudeMeters>
            <DistanceMeters>NAN</DistanceMeters>
          </Trackpoint>
          <Trackpoint>
            <Time>2022-07-11T12:03:54.000Z</Time>
            <Position>
              <LatitudeDegrees>43.3129535615444183349609375</LatitudeDegrees>
              <LongitudeDegrees>-2.6770336925983428955078125</LongitudeDegrees>
            </Position>
            <AltitudeMeters>23.3999996185302734375</AltitudeMeters>
            <DistanceMeters>NAN</DistanceMeters>
          </Trackpoint>
          <Trackpoint>
            <Time>2022-07-11T12:03:55.000Z</Time>
            <Position>
              <LatitudeDegrees>43.31293503753840923309326171875</LatitudeDegrees>
              <LongitudeDegrees>-2.677029334008693695068359375</LongitudeDegrees>
            </Position>
            <AltitudeMeters>23.3999996185302734375</AltitudeMeters>
            <DistanceMeters>NAN</DistanceMeters>
          </Trackpoint>
          <Trackpoint>
            <Time>2022-07-11T12:03:56.000Z</Time>
            <Position>
              <LatitudeDegrees>43.312911652028560638427734375</LatitudeDegrees>
              <LongitudeDegrees>-2.6770258136093616485595703125</LongitudeDegrees>
            </Position>
            <AltitudeMeters>23.6000003814697265625</AltitudeMeters>
            <DistanceMeters>NAN</DistanceMeters>
          </Trackpoint>
          <Trackpoint>
            <Time>2022-07-11T12:03:58.000Z</Time>
            <Position>
              <LatitudeDegrees>43.3128544874489307403564453125</LatitudeDegrees>
              <LongitudeDegrees>-2.67702740617096424102783203125</LongitudeDegrees>
            </Position>
            <AltitudeMeters>23.6000003814697265625</AltitudeMeters>
            <DistanceMeters>NAN</DistanceMeters>
          </Trackpoint>
          <Trackpoint>
            <Time>2022-07-11T12:03:59.000Z</Time>
            <Position>
              <LatitudeDegrees>43.3128256537020206451416015625</LatitudeDegrees>
              <LongitudeDegrees>-2.6770241372287273406982421875</LongitudeDegrees>
            </Position>
            <AltitudeMeters>23.6000003814697265625</AltitudeMeters>
            <DistanceMeters>NAN</DistanceMeters>
          </Trackpoint>
          <Trackpoint>
            <Time>2022-07-11T12:04:04.000Z</Time>
            <Position>
              <LatitudeDegrees>43.31268995068967342376708984375</LatitudeDegrees>
              <LongitudeDegrees>-2.67698113806545734405517578125</LongitudeDegrees>
            </Position>
            <AltitudeMeters>23.6000003814697265625</AltitudeMeters>
            <DistanceMeters>NAN</DistanceMeters>
          </Trackpoint>
          <Trackpoint>
            <Time>2022-07-11T12:04:05.000Z</Time>
            <Position>
              <LatitudeDegrees>43.312670923769474029541015625</LatitudeDegrees>
              <LongitudeDegrees>-2.676982395350933074951171875</LongitudeDegrees>
            </Position>
            <AltitudeMeters>23.6000003814697265625</AltitudeMeters>
            <DistanceMeters>NAN</DistanceMeters>
          </Trackpoint>
          <Trackpoint>
            <Time>2022-07-11T12:04:09.000Z</Time>
            <Position>
              <LatitudeDegrees>43.312555253505706787109375</LatitudeDegrees>
              <LongitudeDegrees>-2.67701382748782634735107421875</LongitudeDegrees>
            </Position>
            <AltitudeMeters>23.3999996185302734375</AltitudeMeters>
            <DistanceMeters>NAN</DistanceMeters>
          </Trackpoint>
          <Trackpoint>
            <Time>2022-07-11T12:04:11.000Z</Time>
            <Position>
              <LatitudeDegrees>43.31250940449535846710205078125</LatitudeDegrees>
              <LongitudeDegrees>-2.67700578086078166961669921875</LongitudeDegrees>
            </Position>
            <AltitudeMeters>23.3999996185302734375</AltitudeMeters>
            <DistanceMeters>NAN</DistanceMeters>
          </Trackpoint>
          <Trackpoint>
            <Time>2022-07-11T12:04:18.000Z</Time>
            <Position>
              <LatitudeDegrees>43.3123351447284221649169921875</LatitudeDegrees>
              <LongitudeDegrees>-2.67710669897496700286865234375</LongitudeDegrees>
            </Position>
            <AltitudeMeters>23.200000762939453125</AltitudeMeters>
            <DistanceMeters>NAN</DistanceMeters>
          </Trackpoint>
          <Trackpoint>
            <Time>2022-07-11T12:04:22.000Z</Time>
            <Position>
              <LatitudeDegrees>43.312254846096038818359375</LatitudeDegrees>
              <LongitudeDegrees>-2.677136622369289398193359375</LongitudeDegrees>
            </Position>
            <AltitudeMeters>23.200000762939453125</AltitudeMeters>
            <DistanceMeters>NAN</DistanceMeters>
          </Trackpoint>
          <Trackpoint>
            <Time>2022-07-11T12:04:27.000Z</Time>
            <Position>
              <LatitudeDegrees>43.3121488988399505615234375</LatitudeDegrees>
              <LongitudeDegrees>-2.67732328735291957855224609375</LongitudeDegrees>
            </Position>
            <AltitudeMeters>23.3999996185302734375</AltitudeMeters>
            <DistanceMeters>NAN</DistanceMeters>
          </Trackpoint>
          <Trackpoint>
            <Time>2022-07-11T12:04:31.000Z</Time>
            <Position>
              <LatitudeDegrees>43.31207538954913616180419921875</LatitudeDegrees>
              <LongitudeDegrees>-2.67741766758263111114501953125</LongitudeDegrees>
            </Position>
            <AltitudeMeters>23.799999237060546875</AltitudeMeters>
            <DistanceMeters>NAN</DistanceMeters>
          </Trackpoint>
          <Trackpoint>
            <Time>2022-07-11T12:04:33.000Z</Time>
            <Position>
              <LatitudeDegrees>43.3120280317962169647216796875</LatitudeDegrees>
              <LongitudeDegrees>-2.6774539612233638763427734375</LongitudeDegrees>
            </Position>
            <AltitudeMeters>23.799999237060546875</AltitudeMeters>
            <DistanceMeters>NAN</DistanceMeters>
          </Trackpoint>
          <Trackpoint>
            <Time>2022-07-11T12:04:38.000Z</Time>
            <Position>
              <LatitudeDegrees>43.311917893588542938232421875</LatitudeDegrees>
              <LongitudeDegrees>-2.6775015704333782196044921875</LongitudeDegrees>
            </Position>
            <AltitudeMeters>23.799999237060546875</AltitudeMeters>
            <DistanceMeters>NAN</DistanceMeters>
          </Trackpoint>
          <Trackpoint>
            <Time>2022-07-11T12:04:39.000Z</Time>
            <Position>
              <LatitudeDegrees>43.31189769320189952850341796875</LatitudeDegrees>
              <LongitudeDegrees>-2.677517496049404144287109375</LongitudeDegrees>
            </Position>
            <AltitudeMeters>23.799999237060546875</AltitudeMeters>
            <DistanceMeters>NAN</DistanceMeters>
          </Trackpoint>
          <Trackpoint>
            <Time>2022-07-11T12:04:44.000Z</Time>
            <Position>
              <LatitudeDegrees>43.31178621388971805572509765625</LatitudeDegrees>
              <LongitudeDegrees>-2.677612043917179107666015625</LongitudeDegrees>
            </Position>
            <AltitudeMeters>24</AltitudeMeters>
            <DistanceMeters>NAN</DistanceMeters>
          </Trackpoint>
          <Trackpoint>
            <Time>2022-07-11T12:04:46.000Z</Time>
            <Position>
              <LatitudeDegrees>43.31174321472644805908203125</LatitudeDegrees>
              <LongitudeDegrees>-2.67763140611350536346435546875</LongitudeDegrees>
            </Position>
            <AltitudeMeters>24</AltitudeMeters>
            <DistanceMeters>NAN</DistanceMeters>
          </Trackpoint>
          <Trackpoint>
            <Time>2022-07-11T12:04:51.000Z</Time>
            <Position>
              <LatitudeDegrees>43.31162712536752223968505859375</LatitudeDegrees>
              <LongitudeDegrees>-2.6777241937816143035888671875</LongitudeDegrees>
            </Position>
            <AltitudeMeters>24</AltitudeMeters>
            <DistanceMeters>NAN</DistanceMeters>
          </Trackpoint>
          <Trackpoint>
            <Time>2022-07-11T12:04:53.000Z</Time>
            <Position>
              <LatitudeDegrees>43.3115821145474910736083984375</LatitudeDegrees>
              <LongitudeDegrees>-2.6777630858123302459716796875</LongitudeDegrees>
            </Position>
            <AltitudeMeters>24</AltitudeMeters>
            <DistanceMeters>NAN</DistanceMeters>
          </Trackpoint>
          <Trackpoint>
            <Time>2022-07-11T12:04:59.000Z</Time>
            <Position>
              <LatitudeDegrees>43.31141305156052112579345703125</LatitudeDegrees>
              <LongitudeDegrees>-2.67784011550247669219970703125</LongitudeDegrees>
            </Position>
            <AltitudeMeters>24.200000762939453125</AltitudeMeters>
            <DistanceMeters>NAN</DistanceMeters>
          </Trackpoint>
          <Trackpoint>
            <Time>2022-07-11T12:05:04.000Z</Time>
            <Position>
              <LatitudeDegrees>43.3112825453281402587890625</LatitudeDegrees>
              <LongitudeDegrees>-2.67786358483135700225830078125</LongitudeDegrees>
            </Position>
            <AltitudeMeters>24</AltitudeMeters>
            <DistanceMeters>NAN</DistanceMeters>
          </Trackpoint>
          <Trackpoint>
            <Time>2022-07-11T12:05:06.000Z</Time>
            <Position>
              <LatitudeDegrees>43.31123895943164825439453125</LatitudeDegrees>
              <LongitudeDegrees>-2.6778839528560638427734375</LongitudeDegrees>
            </Position>
            <AltitudeMeters>23.799999237060546875</AltitudeMeters>
            <DistanceMeters>NAN</DistanceMeters>
          </Trackpoint>
          <Trackpoint>
            <Time>2022-07-11T12:05:10.000Z</Time>
            <Position>
              <LatitudeDegrees>43.31115623004734516143798828125</LatitudeDegrees>
              <LongitudeDegrees>-2.67793835140764713287353515625</LongitudeDegrees>
            </Position>
            <AltitudeMeters>23.6000003814697265625</AltitudeMeters>
            <DistanceMeters>NAN</DistanceMeters>
          </Trackpoint>
          <Trackpoint>
            <Time>2022-07-11T12:05:11.000Z</Time>
            <Position>
              <LatitudeDegrees>43.31113141961395740509033203125</LatitudeDegrees>
              <LongitudeDegrees>-2.6779505051672458648681640625</LongitudeDegrees>
            </Position>
            <AltitudeMeters>23.6000003814697265625</AltitudeMeters>
            <DistanceMeters>NAN</DistanceMeters>
          </Trackpoint>
          <Trackpoint>
            <Time>2022-07-11T12:05:14.000Z</Time>
            <Position>
              <LatitudeDegrees>43.31105925142765045166015625</LatitudeDegrees>
              <LongitudeDegrees>-2.6779897324740886688232421875</LongitudeDegrees>
            </Position>
            <AltitudeMeters>23.6000003814697265625</AltitudeMeters>
            <DistanceMeters>NAN</DistanceMeters>
          </Trackpoint>
          <Trackpoint>
            <Time>2022-07-11T12:05:16.000Z</Time>
            <Position>
              <LatitudeDegrees>43.3110101334750652313232421875</LatitudeDegrees>
              <LongitudeDegrees>-2.67801948823034763336181640625</LongitudeDegrees>
            </Position>
            <AltitudeMeters>23.6000003814697265625</AltitudeMeters>
            <DistanceMeters>NAN</DistanceMeters>
          </Trackpoint>
          <Trackpoint>
            <Time>2022-07-11T12:05:17.000Z</Time>
            <Position>
              <LatitudeDegrees>43.31098339520394802093505859375</LatitudeDegrees>
              <LongitudeDegrees>-2.6780292950570583343505859375</LongitudeDegrees>
            </Position>
            <AltitudeMeters>23.3999996185302734375</AltitudeMeters>
            <DistanceMeters>NAN</DistanceMeters>
          </Trackpoint>
          <Trackpoint>
            <Time>2022-07-11T12:05:21.000Z</Time>
            <Position>
              <LatitudeDegrees>43.31087476573884487152099609375</LatitudeDegrees>
              <LongitudeDegrees>-2.67811420373618602752685546875</LongitudeDegrees>
            </Position>
            <AltitudeMeters>23.200000762939453125</AltitudeMeters>
            <DistanceMeters>NAN</DistanceMeters>
          </Trackpoint>
          <Trackpoint>
            <Time>2022-07-11T12:05:25.000Z</Time>
            <Position>
              <LatitudeDegrees>43.31076026894152164459228515625</LatitudeDegrees>
              <LongitudeDegrees>-2.67820824868977069854736328125</LongitudeDegrees>
            </Position>
            <AltitudeMeters>22.799999237060546875</AltitudeMeters>
            <DistanceMeters>NAN</DistanceMeters>
          </Trackpoint>
          <Trackpoint>
            <Time>2022-07-11T12:05:32.000Z</Time>
            <Position>
              <LatitudeDegrees>43.3106111548840999603271484375</LatitudeDegrees>
              <LongitudeDegrees>-2.67831402830779552459716796875</LongitudeDegrees>
            </Position>
            <AltitudeMeters>22.799999237060546875</AltitudeMeters>
            <DistanceMeters>NAN</DistanceMeters>
          </Trackpoint>
          <Trackpoint>
            <Time>2022-07-11T12:05:38.000Z</Time>
            <Position>
              <LatitudeDegrees>43.3104418404400348663330078125</LatitudeDegrees>
              <LongitudeDegrees>-2.6783873699605464935302734375</LongitudeDegrees>
            </Position>
            <AltitudeMeters>22.6000003814697265625</AltitudeMeters>
            <DistanceMeters>NAN</DistanceMeters>
          </Trackpoint>
          <Trackpoint>
            <Time>2022-07-11T12:05:43.000Z</Time>
            <Position>
              <LatitudeDegrees>43.31030513159930706024169921875</LatitudeDegrees>
              <LongitudeDegrees>-2.67845450900495052337646484375</LongitudeDegrees>
            </Position>
            <AltitudeMeters>22.3999996185302734375</AltitudeMeters>
            <DistanceMeters>NAN</DistanceMeters>
          </Trackpoint>
          <Trackpoint>
            <Time>2022-07-11T12:05:46.000Z</Time>
            <Position>
              <LatitudeDegrees>43.31023053266108036041259765625</LatitudeDegrees>
              <LongitudeDegrees>-2.678513936698436737060546875</LongitudeDegrees>
            </Position>
            <AltitudeMeters>22.200000762939453125</AltitudeMeters>
            <DistanceMeters>NAN</DistanceMeters>
          </Trackpoint>
          <Trackpoint>
            <Time>2022-07-11T12:05:50.000Z</Time>
            <Position>
              <LatitudeDegrees>43.310179151594638824462890625</LatitudeDegrees>
              <LongitudeDegrees>-2.6785224862396717071533203125</LongitudeDegrees>
            </Position>
            <AltitudeMeters>21.799999237060546875</AltitudeMeters>
            <DistanceMeters>NAN</DistanceMeters>
          </Trackpoint>
          <Trackpoint>
            <Time>2022-07-11T12:05:55.000Z</Time>
            <Position>
              <LatitudeDegrees>43.31005342304706573486328125</LatitudeDegrees>
              <LongitudeDegrees>-2.67855249345302581787109375</LongitudeDegrees>
            </Position>
            <AltitudeMeters>21.6000003814697265625</AltitudeMeters>
            <DistanceMeters>NAN</DistanceMeters>
          </Trackpoint>
          <Trackpoint>
            <Time>2022-07-11T12:05:58.000Z</Time>
            <Position>
              <LatitudeDegrees>43.309996761381626129150390625</LatitudeDegrees>
              <LongitudeDegrees>-2.67853581346571445465087890625</LongitudeDegrees>
            </Position>
            <AltitudeMeters>21.6000003814697265625</AltitudeMeters>
            <DistanceMeters>NAN</DistanceMeters>
          </Trackpoint>
          <Trackpoint>
            <Time>2022-07-11T12:05:59.000Z</Time>
            <Position>
              <LatitudeDegrees>43.30997253768146038055419921875</LatitudeDegrees>
              <LongitudeDegrees>-2.6785382442176342010498046875</LongitudeDegrees>
            </Position>
            <AltitudeMeters>21.6000003814697265625</AltitudeMeters>
            <DistanceMeters>NAN</DistanceMeters>
          </Trackpoint>
          <Trackpoint>
            <Time>2022-07-11T12:06:07.000Z</Time>
            <Position>
              <LatitudeDegrees>43.3097349107265472412109375</LatitudeDegrees>
              <LongitudeDegrees>-2.67863891087472438812255859375</LongitudeDegrees>
            </Position>
            <AltitudeMeters>21.3999996185302734375</AltitudeMeters>
            <DistanceMeters>NAN</DistanceMeters>
          </Trackpoint>
          <Trackpoint>
            <Time>2022-07-11T12:06:11.000Z</Time>
            <Position>
              <LatitudeDegrees>43.3096261136233806610107421875</LatitudeDegrees>
              <LongitudeDegrees>-2.67870110459625720977783203125</LongitudeDegrees>
            </Position>
            <AltitudeMeters>21.3999996185302734375</AltitudeMeters>
            <DistanceMeters>NAN</DistanceMeters>
          </Trackpoint>
          <Trackpoint>
            <Time>2022-07-11T12:06:18.000Z</Time>
            <Position>
              <LatitudeDegrees>43.30944095738232135772705078125</LatitudeDegrees>
              <LongitudeDegrees>-2.6788205467164516448974609375</LongitudeDegrees>
            </Position>
            <AltitudeMeters>21</AltitudeMeters>
            <DistanceMeters>NAN</DistanceMeters>
          </Trackpoint>
          <Trackpoint>
            <Time>2022-07-11T12:06:25.000Z</Time>
            <Position>
              <LatitudeDegrees>43.30930131487548351287841796875</LatitudeDegrees>
              <LongitudeDegrees>-2.6789058744907379150390625</LongitudeDegrees>
            </Position>
            <AltitudeMeters>20.6000003814697265625</AltitudeMeters>
            <DistanceMeters>NAN</DistanceMeters>
          </Trackpoint>
          <Trackpoint>
            <Time>2022-07-11T12:06:28.000Z</Time>
            <Position>
              <LatitudeDegrees>43.3092861436307430267333984375</LatitudeDegrees>
              <LongitudeDegrees>-2.67890780232846736907958984375</LongitudeDegrees>
            </Position>
            <AltitudeMeters>20.3999996185302734375</AltitudeMeters>
            <DistanceMeters>NAN</DistanceMeters>
          </Trackpoint>
          <Trackpoint>
            <Time>2022-07-11T12:06:29.000Z</Time>
            <Position>
              <LatitudeDegrees>43.3092851378023624420166015625</LatitudeDegrees>
              <LongitudeDegrees>-2.6789080537855625152587890625</LongitudeDegrees>
            </Position>
            <AltitudeMeters>20.200000762939453125</AltitudeMeters>
            <DistanceMeters>NAN</DistanceMeters>
          </Trackpoint>
          <Trackpoint>
            <Time>2022-07-11T12:07:18.000Z</Time>
            <Position>
              <LatitudeDegrees>43.309283293783664703369140625</LatitudeDegrees>
              <LongitudeDegrees>-2.67884829081594944000244140625</LongitudeDegrees>
            </Position>
            <AltitudeMeters>19</AltitudeMeters>
            <DistanceMeters>NAN</DistanceMeters>
          </Trackpoint>
          <Trackpoint>
            <Time>2022-07-11T12:07:19.000Z</Time>
            <Position>
              <LatitudeDegrees>43.30926175229251384735107421875</LatitudeDegrees>
              <LongitudeDegrees>-2.6788238994777202606201171875</LongitudeDegrees>
            </Position>
            <AltitudeMeters>18.799999237060546875</AltitudeMeters>
            <DistanceMeters>NAN</DistanceMeters>
          </Trackpoint>
          <Trackpoint>
            <Time>2022-07-11T12:07:20.000Z</Time>
            <Position>
              <LatitudeDegrees>43.30923845060169696807861328125</LatitudeDegrees>
              <LongitudeDegrees>-2.6787994243204593658447265625</LongitudeDegrees>
            </Position>
            <AltitudeMeters>18.6000003814697265625</AltitudeMeters>
            <DistanceMeters>NAN</DistanceMeters>
          </Trackpoint>
          <Trackpoint>
            <Time>2022-07-11T12:07:22.000Z</Time>
            <Position>
              <LatitudeDegrees>43.3091775141656398773193359375</LatitudeDegrees>
              <LongitudeDegrees>-2.67877587117254734039306640625</LongitudeDegrees>
            </Position>
            <AltitudeMeters>18.6000003814697265625</AltitudeMeters>
            <DistanceMeters>NAN</DistanceMeters>
          </Trackpoint>
          <Trackpoint>
            <Time>2022-07-11T12:07:24.000Z</Time>
            <Position>
              <LatitudeDegrees>43.3091161586344242095947265625</LatitudeDegrees>
              <LongitudeDegrees>-2.678797245025634765625</LongitudeDegrees>
            </Position>
            <AltitudeMeters>18.6000003814697265625</AltitudeMeters>
            <DistanceMeters>NAN</DistanceMeters>
          </Trackpoint>
          <Trackpoint>
            <Time>2022-07-11T12:07:30.000Z</Time>
            <Position>
              <LatitudeDegrees>43.30893754027783870697021484375</LatitudeDegrees>
              <LongitudeDegrees>-2.67890612594783306121826171875</LongitudeDegrees>
            </Position>
            <AltitudeMeters>18.6000003814697265625</AltitudeMeters>
            <DistanceMeters>NAN</DistanceMeters>
          </Trackpoint>
          <Trackpoint>
            <Time>2022-07-11T12:07:32.000Z</Time>
            <Position>
              <LatitudeDegrees>43.30887584947049617767333984375</LatitudeDegrees>
              <LongitudeDegrees>-2.67895105294883251190185546875</LongitudeDegrees>
            </Position>
            <AltitudeMeters>18.3999996185302734375</AltitudeMeters>
            <DistanceMeters>NAN</DistanceMeters>
          </Trackpoint>
          <Trackpoint>
            <Time>2022-07-11T12:07:37.000Z</Time>
            <Position>
              <LatitudeDegrees>43.30872564576566219329833984375</LatitudeDegrees>
              <LongitudeDegrees>-2.67901383340358734130859375</LongitudeDegrees>
            </Position>
            <AltitudeMeters>18</AltitudeMeters>
            <DistanceMeters>NAN</DistanceMeters>
          </Trackpoint>
          <Trackpoint>
            <Time>2022-07-11T12:07:38.000Z</Time>
            <Position>
              <LatitudeDegrees>43.30870267935097217559814453125</LatitudeDegrees>
              <LongitudeDegrees>-2.6790123246610164642333984375</LongitudeDegrees>
            </Position>
            <AltitudeMeters>17.799999237060546875</AltitudeMeters>
            <DistanceMeters>NAN</DistanceMeters>
          </Trackpoint>
          <Trackpoint>
            <Time>2022-07-11T12:07:40.000Z</Time>
            <Position>
              <LatitudeDegrees>43.30867267213761806488037109375</LatitudeDegrees>
              <LongitudeDegrees>-2.67898491583764553070068359375</LongitudeDegrees>
            </Position>
            <AltitudeMeters>17.200000762939453125</AltitudeMeters>
            <DistanceMeters>NAN</DistanceMeters>
          </Trackpoint>
          <Trackpoint>
            <Time>2022-07-11T12:07:43.000Z</Time>
            <Position>
              <LatitudeDegrees>43.30864199437201023101806640625</LatitudeDegrees>
              <LongitudeDegrees>-2.67893336713314056396484375</LongitudeDegrees>
            </Position>
            <AltitudeMeters>17</AltitudeMeters>
            <DistanceMeters>NAN</DistanceMeters>
          </Trackpoint>
          <Trackpoint>
            <Time>2022-07-11T12:07:48.000Z</Time>
            <Position>
              <LatitudeDegrees>43.308636210858821868896484375</LatitudeDegrees>
              <LongitudeDegrees>-2.67892054282128810882568359375</LongitudeDegrees>
            </Position>
            <AltitudeMeters>17</AltitudeMeters>
            <DistanceMeters>NAN</DistanceMeters>
          </Trackpoint>
          <Trackpoint>
            <Time>2022-07-11T12:11:18.000Z</Time>
            <Position>
              <LatitudeDegrees>43.30851425416767597198486328125</LatitudeDegrees>
              <LongitudeDegrees>-2.67894937656819820404052734375</LongitudeDegrees>
            </Position>
            <AltitudeMeters>21.6000003814697265625</AltitudeMeters>
            <DistanceMeters>NAN</DistanceMeters>
          </Trackpoint>
          <Trackpoint>
            <Time>2022-07-11T12:11:20.000Z</Time>
            <Position>
              <LatitudeDegrees>43.3084898628294467926025390625</LatitudeDegrees>
              <LongitudeDegrees>-2.67899078316986560821533203125</LongitudeDegrees>
            </Position>
            <AltitudeMeters>21.6000003814697265625</AltitudeMeters>
            <DistanceMeters>NAN</DistanceMeters>
          </Trackpoint>
          <Trackpoint>
            <Time>2022-07-11T12:11:24.000Z</Time>
            <Position>
              <LatitudeDegrees>43.3084258250892162322998046875</LatitudeDegrees>
              <LongitudeDegrees>-2.67889791168272495269775390625</LongitudeDegrees>
            </Position>
            <AltitudeMeters>22</AltitudeMeters>
            <DistanceMeters>NAN</DistanceMeters>
          </Trackpoint>
          <Trackpoint>
            <Time>2022-07-11T12:11:28.000Z</Time>
            <Position>
              <LatitudeDegrees>43.3084389008581638336181640625</LatitudeDegrees>
              <LongitudeDegrees>-2.678895480930805206298828125</LongitudeDegrees>
            </Position>
            <AltitudeMeters>22.3999996185302734375</AltitudeMeters>
            <DistanceMeters>NAN</DistanceMeters>
          </Trackpoint>
          <Trackpoint>
            <Time>2022-07-11T12:11:32.000Z</Time>
            <Position>
              <LatitudeDegrees>43.30846027471125125885009765625</LatitudeDegrees>
              <LongitudeDegrees>-2.6788951456546783447265625</LongitudeDegrees>
            </Position>
            <AltitudeMeters>22.6000003814697265625</AltitudeMeters>
            <DistanceMeters>NAN</DistanceMeters>
          </Trackpoint>
          <Trackpoint>
            <Time>2022-07-11T12:11:34.000Z</Time>
            <Position>
              <LatitudeDegrees>43.3084640465676784515380859375</LatitudeDegrees>
              <LongitudeDegrees>-2.67888550646603107452392578125</LongitudeDegrees>
            </Position>
            <AltitudeMeters>22.6000003814697265625</AltitudeMeters>
            <DistanceMeters>NAN</DistanceMeters>
          </Trackpoint>
          <Trackpoint>
            <Time>2022-07-11T12:11:36.000Z</Time>
            <Position>
              <LatitudeDegrees>43.308488689363002777099609375</LatitudeDegrees>
              <LongitudeDegrees>-2.67889841459691524505615234375</LongitudeDegrees>
            </Position>
            <AltitudeMeters>22.3999996185302734375</AltitudeMeters>
            <DistanceMeters>NAN</DistanceMeters>
          </Trackpoint>
          <Trackpoint>
            <Time>2022-07-11T12:12:43.000Z</Time>
            <Position>
              <LatitudeDegrees>43.30841995775699615478515625</LatitudeDegrees>
              <LongitudeDegrees>-2.6789093948900699615478515625</LongitudeDegrees>
            </Position>
            <AltitudeMeters>24.6000003814697265625</AltitudeMeters>
            <DistanceMeters>NAN</DistanceMeters>
          </Trackpoint>
          <Trackpoint>
            <Time>2022-07-11T12:12:45.000Z</Time>
            <Position>
              <LatitudeDegrees>43.3084340393543243408203125</LatitudeDegrees>
              <LongitudeDegrees>-2.67889489419758319854736328125</LongitudeDegrees>
            </Position>
            <AltitudeMeters>24.6000003814697265625</AltitudeMeters>
            <DistanceMeters>NAN</DistanceMeters>
          </Trackpoint>
          <Trackpoint>
            <Time>2022-07-11T12:12:50.000Z</Time>
            <Position>
              <LatitudeDegrees>43.3084050379693508148193359375</LatitudeDegrees>
              <LongitudeDegrees>-2.6789308525621891021728515625</LongitudeDegrees>
            </Position>
            <AltitudeMeters>24.6000003814697265625</AltitudeMeters>
            <DistanceMeters>NAN</DistanceMeters>
          </Trackpoint>
          <Trackpoint>
            <Time>2022-07-11T12:12:54.000Z</Time>
            <Position>
              <LatitudeDegrees>43.3084395714104175567626953125</LatitudeDegrees>
              <LongitudeDegrees>-2.67887578345835208892822265625</LongitudeDegrees>
            </Position>
            <AltitudeMeters>25</AltitudeMeters>
            <DistanceMeters>NAN</DistanceMeters>
          </Trackpoint>
          <Trackpoint>
            <Time>2022-07-11T12:12:56.000Z</Time>
            <Position>
              <LatitudeDegrees>43.30847921781241893768310546875</LatitudeDegrees>
              <LongitudeDegrees>-2.67884242348372936248779296875</LongitudeDegrees>
            </Position>
            <AltitudeMeters>25</AltitudeMeters>
            <DistanceMeters>NAN</DistanceMeters>
          </Trackpoint>
          <Trackpoint>
            <Time>2022-07-11T12:13:02.000Z</Time>
            <Position>
              <LatitudeDegrees>43.30848298966884613037109375</LatitudeDegrees>
              <LongitudeDegrees>-2.67880889587104320526123046875</LongitudeDegrees>
            </Position>
            <AltitudeMeters>25</AltitudeMeters>
            <DistanceMeters>NAN</DistanceMeters>
          </Trackpoint>
          <Trackpoint>
            <Time>2022-07-11T12:13:04.000Z</Time>
            <Position>
              <LatitudeDegrees>43.30846848897635936737060546875</LatitudeDegrees>
              <LongitudeDegrees>-2.678837142884731292724609375</LongitudeDegrees>
            </Position>
            <AltitudeMeters>25</AltitudeMeters>
            <DistanceMeters>NAN</DistanceMeters>
          </Trackpoint>
          <Trackpoint>
            <Time>2022-07-11T12:13:05.000Z</Time>
            <Position>
              <LatitudeDegrees>43.308463878929615020751953125</LatitudeDegrees>
              <LongitudeDegrees>-2.67883303575217723846435546875</LongitudeDegrees>
            </Position>
            <AltitudeMeters>25</AltitudeMeters>
            <DistanceMeters>NAN</DistanceMeters>
          </Trackpoint>
          <Trackpoint>
            <Time>2022-07-11T12:13:06.000Z</Time>
            <Position>
              <LatitudeDegrees>43.3084660582244396209716796875</LatitudeDegrees>
              <LongitudeDegrees>-2.678829766809940338134765625</LongitudeDegrees>
            </Position>
            <AltitudeMeters>25</AltitudeMeters>
            <DistanceMeters>NAN</DistanceMeters>
          </Trackpoint>
          <Trackpoint>
            <Time>2022-07-11T12:13:10.000Z</Time>
            <Position>
              <LatitudeDegrees>43.3084566704928874969482421875</LatitudeDegrees>
              <LongitudeDegrees>-2.678794898092746734619140625</LongitudeDegrees>
            </Position>
            <AltitudeMeters>25.200000762939453125</AltitudeMeters>
            <DistanceMeters>NAN</DistanceMeters>
          </Trackpoint>
          <Trackpoint>
            <Time>2022-07-11T12:13:11.000Z</Time>
            <Position>
              <LatitudeDegrees>43.30844275653362274169921875</LatitudeDegrees>
              <LongitudeDegrees>-2.67879766412079334259033203125</LongitudeDegrees>
            </Position>
            <AltitudeMeters>25.200000762939453125</AltitudeMeters>
            <DistanceMeters>NAN</DistanceMeters>
          </Trackpoint>
          <Trackpoint>
            <Time>2022-07-11T12:13:12.000Z</Time>
            <Position>
              <LatitudeDegrees>43.30842196941375732421875</LatitudeDegrees>
              <LongitudeDegrees>-2.67880068160593509674072265625</LongitudeDegrees>
            </Position>
            <AltitudeMeters>25</AltitudeMeters>
            <DistanceMeters>NAN</DistanceMeters>
          </Trackpoint>
          <Trackpoint>
            <Time>2022-07-11T12:13:18.000Z</Time>
            <Position>
              <LatitudeDegrees>43.30839389003813266754150390625</LatitudeDegrees>
              <LongitudeDegrees>-2.6788212172687053680419921875</LongitudeDegrees>
            </Position>
            <AltitudeMeters>24.799999237060546875</AltitudeMeters>
            <DistanceMeters>NAN</DistanceMeters>
          </Trackpoint>
          <Trackpoint>
            <Time>2022-07-11T12:13:20.000Z</Time>
            <Position>
              <LatitudeDegrees>43.308397494256496429443359375</LatitudeDegrees>
              <LongitudeDegrees>-2.678825743496417999267578125</LongitudeDegrees>
            </Position>
            <AltitudeMeters>25</AltitudeMeters>
            <DistanceMeters>NAN</DistanceMeters>
          </Trackpoint>
          <Trackpoint>
            <Time>2022-07-11T12:13:22.000Z</Time>
            <Position>
              <LatitudeDegrees>43.30837461166083812713623046875</LatitudeDegrees>
              <LongitudeDegrees>-2.67885013483464717864990234375</LongitudeDegrees>
            </Position>
            <AltitudeMeters>25.3999996185302734375</AltitudeMeters>
            <DistanceMeters>NAN</DistanceMeters>
          </Trackpoint>
          <Trackpoint>
            <Time>2022-07-11T12:15:59.000Z</Time>
            <Position>
              <LatitudeDegrees>43.308396823704242706298828125</LatitudeDegrees>
              <LongitudeDegrees>-2.67871451564133167266845703125</LongitudeDegrees>
            </Position>
            <AltitudeMeters>29.200000762939453125</AltitudeMeters>
            <DistanceMeters>NAN</DistanceMeters>
          </Trackpoint>
          <Trackpoint>
            <Time>2022-07-11T12:16:00.000Z</Time>
            <Position>
              <LatitudeDegrees>43.30843596719205379486083984375</LatitudeDegrees>
              <LongitudeDegrees>-2.6787075586616992950439453125</LongitudeDegrees>
            </Position>
            <AltitudeMeters>29.200000762939453125</AltitudeMeters>
            <DistanceMeters>NAN</DistanceMeters>
          </Trackpoint>
          <Trackpoint>
            <Time>2022-07-11T12:16:03.000Z</Time>
            <Position>
              <LatitudeDegrees>43.30842037685215473175048828125</LatitudeDegrees>
              <LongitudeDegrees>-2.6787286810576915740966796875</LongitudeDegrees>
            </Position>
            <AltitudeMeters>29</AltitudeMeters>
            <DistanceMeters>NAN</DistanceMeters>
          </Trackpoint>
          <Trackpoint>
            <Time>2022-07-11T12:16:04.000Z</Time>
            <Position>
              <LatitudeDegrees>43.3084036968648433685302734375</LatitudeDegrees>
              <LongitudeDegrees>-2.678710408508777618408203125</LongitudeDegrees>
            </Position>
            <AltitudeMeters>29</AltitudeMeters>
            <DistanceMeters>NAN</DistanceMeters>
          </Trackpoint>
          <Trackpoint>
            <Time>2022-07-11T12:16:07.000Z</Time>
            <Position>
              <LatitudeDegrees>43.30834711901843547821044921875</LatitudeDegrees>
              <LongitudeDegrees>-2.6787052117288112640380859375</LongitudeDegrees>
            </Position>
            <AltitudeMeters>29.200000762939453125</AltitudeMeters>
            <DistanceMeters>NAN</DistanceMeters>
          </Trackpoint>
          <Trackpoint>
            <Time>2022-07-11T12:16:11.000Z</Time>
            <Position>
              <LatitudeDegrees>43.30835550092160701751708984375</LatitudeDegrees>
              <LongitudeDegrees>-2.67875474877655506134033203125</LongitudeDegrees>
            </Position>
            <AltitudeMeters>29.200000762939453125</AltitudeMeters>
            <DistanceMeters>NAN</DistanceMeters>
          </Trackpoint>
          <Trackpoint>
            <Time>2022-07-11T12:16:13.000Z</Time>
            <Position>
              <LatitudeDegrees>43.30833940766751766204833984375</LatitudeDegrees>
              <LongitudeDegrees>-2.67876514233648777008056640625</LongitudeDegrees>
            </Position>
            <AltitudeMeters>29.200000762939453125</AltitudeMeters>
            <DistanceMeters>NAN</DistanceMeters>
          </Trackpoint>
          <Trackpoint>
            <Time>2022-07-11T12:16:16.000Z</Time>
            <Position>
              <LatitudeDegrees>43.3083577640354633331298828125</LatitudeDegrees>
              <LongitudeDegrees>-2.67876044847071170806884765625</LongitudeDegrees>
            </Position>
            <AltitudeMeters>29.200000762939453125</AltitudeMeters>
            <DistanceMeters>NAN</DistanceMeters>
          </Trackpoint>
          <Trackpoint>
            <Time>2022-07-11T12:22:19.000Z</Time>
            <Position>
              <LatitudeDegrees>43.30823211930692195892333984375</LatitudeDegrees>
              <LongitudeDegrees>-2.67886555753648281097412109375</LongitudeDegrees>
            </Position>
            <AltitudeMeters>34.200000762939453125</AltitudeMeters>
            <DistanceMeters>NAN</DistanceMeters>
          </Trackpoint>
          <Trackpoint>
            <Time>2022-07-11T12:22:22.000Z</Time>
            <Position>
              <LatitudeDegrees>43.30822541378438472747802734375</LatitudeDegrees>
              <LongitudeDegrees>-2.678833790123462677001953125</LongitudeDegrees>
            </Position>
            <AltitudeMeters>34.200000762939453125</AltitudeMeters>
            <DistanceMeters>NAN</DistanceMeters>
          </Trackpoint>
          <Trackpoint>
            <Time>2022-07-11T12:22:24.000Z</Time>
            <Position>
              <LatitudeDegrees>43.30821468494832515716552734375</LatitudeDegrees>
              <LongitudeDegrees>-2.6788242347538471221923828125</LongitudeDegrees>
            </Position>
            <AltitudeMeters>34.200000762939453125</AltitudeMeters>
            <DistanceMeters>NAN</DistanceMeters>
          </Trackpoint>
          <Trackpoint>
            <Time>2022-07-11T12:22:26.000Z</Time>
            <Position>
              <LatitudeDegrees>43.30818769522011280059814453125</LatitudeDegrees>
              <LongitudeDegrees>-2.67882247455418109893798828125</LongitudeDegrees>
            </Position>
            <AltitudeMeters>34.200000762939453125</AltitudeMeters>
            <DistanceMeters>NAN</DistanceMeters>
          </Trackpoint>
          <Trackpoint>
            <Time>2022-07-11T12:22:31.000Z</Time>
            <Position>
              <LatitudeDegrees>43.30821485258638858795166015625</LatitudeDegrees>
              <LongitudeDegrees>-2.678835801780223846435546875</LongitudeDegrees>
            </Position>
            <AltitudeMeters>34.200000762939453125</AltitudeMeters>
            <DistanceMeters>NAN</DistanceMeters>
          </Trackpoint>
          <Trackpoint>
            <Time>2022-07-11T12:22:46.000Z</Time>
            <Position>
              <LatitudeDegrees>43.308197669684886932373046875</LatitudeDegrees>
              <LongitudeDegrees>-2.6787823252379894256591796875</LongitudeDegrees>
            </Position>
            <AltitudeMeters>34</AltitudeMeters>
            <DistanceMeters>NAN</DistanceMeters>
          </Trackpoint>
          <Trackpoint>
            <Time>2022-07-11T12:22:47.000Z</Time>
            <Position>
              <LatitudeDegrees>43.30822910182178020477294921875</LatitudeDegrees>
              <LongitudeDegrees>-2.678772769868373870849609375</LongitudeDegrees>
            </Position>
            <AltitudeMeters>34</AltitudeMeters>
            <DistanceMeters>NAN</DistanceMeters>
          </Trackpoint>
          <Trackpoint>
            <Time>2022-07-11T12:22:50.000Z</Time>
            <Position>
              <LatitudeDegrees>43.30835424363613128662109375</LatitudeDegrees>
              <LongitudeDegrees>-2.6787181198596954345703125</LongitudeDegrees>
            </Position>
            <AltitudeMeters>34</AltitudeMeters>
            <DistanceMeters>NAN</DistanceMeters>
          </Trackpoint>
          <Trackpoint>
            <Time>2022-07-11T12:22:51.000Z</Time>
            <Position>
              <LatitudeDegrees>43.30842708237469196319580078125</LatitudeDegrees>
              <LongitudeDegrees>-2.67864109016954898834228515625</LongitudeDegrees>
            </Position>
            <AltitudeMeters>34</AltitudeMeters>
            <DistanceMeters>NAN</DistanceMeters>
          </Trackpoint>
          <Trackpoint>
            <Time>2022-07-11T12:22:52.000Z</Time>
            <Position>
              <LatitudeDegrees>43.308539651334285736083984375</LatitudeDegrees>
              <LongitudeDegrees>-2.67860890366137027740478515625</LongitudeDegrees>
            </Position>
            <AltitudeMeters>34</AltitudeMeters>
            <DistanceMeters>NAN</DistanceMeters>
          </Trackpoint>
          <Trackpoint>
            <Time>2022-07-11T12:22:54.000Z</Time>
            <Position>
              <LatitudeDegrees>43.308540321886539459228515625</LatitudeDegrees>
              <LongitudeDegrees>-2.67865517176687717437744140625</LongitudeDegrees>
            </Position>
            <AltitudeMeters>34</AltitudeMeters>
            <DistanceMeters>NAN</DistanceMeters>
          </Trackpoint>
          <Trackpoint>
            <Time>2022-07-11T12:22:55.000Z</Time>
            <Position>
              <LatitudeDegrees>43.3084462769329547882080078125</LatitudeDegrees>
              <LongitudeDegrees>-2.67874318175017833709716796875</LongitudeDegrees>
            </Position>
            <AltitudeMeters>34</AltitudeMeters>
            <DistanceMeters>NAN</DistanceMeters>
          </Trackpoint>
          <Trackpoint>
            <Time>2022-07-11T12:22:57.000Z</Time>
            <Position>
              <LatitudeDegrees>43.3084161020815372467041015625</LatitudeDegrees>
              <LongitudeDegrees>-2.67884929664433002471923828125</LongitudeDegrees>
            </Position>
            <AltitudeMeters>34</AltitudeMeters>
            <DistanceMeters>NAN</DistanceMeters>
          </Trackpoint>
          <Trackpoint>
            <Time>2022-07-11T12:22:58.000Z</Time>
            <Position>
              <LatitudeDegrees>43.30842666327953338623046875</LatitudeDegrees>
              <LongitudeDegrees>-2.6788664795458316802978515625</LongitudeDegrees>
            </Position>
            <AltitudeMeters>34</AltitudeMeters>
            <DistanceMeters>NAN</DistanceMeters>
          </Trackpoint>
          <Trackpoint>
            <Time>2022-07-11T12:23:01.000Z</Time>
            <Position>
              <LatitudeDegrees>43.3084164373576641082763671875</LatitudeDegrees>
              <LongitudeDegrees>-2.67888374626636505126953125</LongitudeDegrees>
            </Position>
            <AltitudeMeters>33.799999237060546875</AltitudeMeters>
            <DistanceMeters>NAN</DistanceMeters>
          </Trackpoint>
          <Trackpoint>
            <Time>2022-07-11T12:23:03.000Z</Time>
            <Position>
              <LatitudeDegrees>43.30837704241275787353515625</LatitudeDegrees>
              <LongitudeDegrees>-2.67888181842863559722900390625</LongitudeDegrees>
            </Position>
            <AltitudeMeters>34</AltitudeMeters>
            <DistanceMeters>NAN</DistanceMeters>
          </Trackpoint>
          <Trackpoint>
            <Time>2022-07-11T12:23:05.000Z</Time>
            <Position>
              <LatitudeDegrees>43.3083225600421428680419921875</LatitudeDegrees>
              <LongitudeDegrees>-2.67882197163999080657958984375</LongitudeDegrees>
            </Position>
            <AltitudeMeters>34.200000762939453125</AltitudeMeters>
            <DistanceMeters>NAN</DistanceMeters>
          </Trackpoint>
          <Trackpoint>
            <Time>2022-07-11T12:23:06.000Z</Time>
            <Position>
              <LatitudeDegrees>43.3083171956241130828857421875</LatitudeDegrees>
              <LongitudeDegrees>-2.67879900522530078887939453125</LongitudeDegrees>
            </Position>
            <AltitudeMeters>34.200000762939453125</AltitudeMeters>
            <DistanceMeters>NAN</DistanceMeters>
          </Trackpoint>
          <Trackpoint>
            <Time>2022-07-11T12:24:11.000Z</Time>
            <Position>
              <LatitudeDegrees>43.308308981359004974365234375</LatitudeDegrees>
              <LongitudeDegrees>-2.6787893660366535186767578125</LongitudeDegrees>
            </Position>
            <AltitudeMeters>35</AltitudeMeters>
            <DistanceMeters>NAN</DistanceMeters>
          </Trackpoint>
          <Trackpoint>
            <Time>2022-07-11T12:24:13.000Z</Time>
            <Position>
              <LatitudeDegrees>43.30828475765883922576904296875</LatitudeDegrees>
              <LongitudeDegrees>-2.67879364080727100372314453125</LongitudeDegrees>
            </Position>
            <AltitudeMeters>35</AltitudeMeters>
            <DistanceMeters>NAN</DistanceMeters>
          </Trackpoint>
          <Trackpoint>
            <Time>2022-07-11T12:24:16.000Z</Time>
            <Position>
              <LatitudeDegrees>43.30827989615499973297119140625</LatitudeDegrees>
              <LongitudeDegrees>-2.6788034476339817047119140625</LongitudeDegrees>
            </Position>
            <AltitudeMeters>35</AltitudeMeters>
            <DistanceMeters>NAN</DistanceMeters>
          </Trackpoint>
          <Trackpoint>
            <Time>2022-07-11T12:24:19.000Z</Time>
            <Position>
              <LatitudeDegrees>43.308261372148990631103515625</LatitudeDegrees>
              <LongitudeDegrees>-2.67880353145301342010498046875</LongitudeDegrees>
            </Position>
            <AltitudeMeters>35</AltitudeMeters>
            <DistanceMeters>NAN</DistanceMeters>
          </Trackpoint>
          <Trackpoint>
            <Time>2022-07-11T12:24:20.000Z</Time>
            <Position>
              <LatitudeDegrees>43.30825743265450000762939453125</LatitudeDegrees>
              <LongitudeDegrees>-2.6788051240146160125732421875</LongitudeDegrees>
            </Position>
            <AltitudeMeters>35</AltitudeMeters>
            <DistanceMeters>NAN</DistanceMeters>
          </Trackpoint>
          <Trackpoint>
            <Time>2022-07-11T12:24:22.000Z</Time>
            <Position>
              <LatitudeDegrees>43.30826128832995891571044921875</LatitudeDegrees>
              <LongitudeDegrees>-2.67880369909107685089111328125</LongitudeDegrees>
            </Position>
            <AltitudeMeters>35</AltitudeMeters>
            <DistanceMeters>NAN</DistanceMeters>
          </Trackpoint>
          <Trackpoint>
            <Time>2022-07-11T12:24:43.000Z</Time>
            <Position>
              <LatitudeDegrees>43.30822424031794071197509765625</LatitudeDegrees>
              <LongitudeDegrees>-2.6788091473281383514404296875</LongitudeDegrees>
            </Position>
            <AltitudeMeters>35.40000152587890625</AltitudeMeters>
            <DistanceMeters>NAN</DistanceMeters>
          </Trackpoint>
          <Trackpoint>
            <Time>2022-07-11T12:24:44.000Z</Time>
            <Position>
              <LatitudeDegrees>43.30822675488889217376708984375</LatitudeDegrees>
              <LongitudeDegrees>-2.67880772240459918975830078125</LongitudeDegrees>
            </Position>
            <AltitudeMeters>35.40000152587890625</AltitudeMeters>
            <DistanceMeters>NAN</DistanceMeters>
          </Trackpoint>
          <Trackpoint>
            <Time>2022-07-11T12:24:45.000Z</Time>
            <Position>
              <LatitudeDegrees>43.30822675488889217376708984375</LatitudeDegrees>
              <LongitudeDegrees>-2.67880772240459918975830078125</LongitudeDegrees>
            </Position>
            <AltitudeMeters>35.40000152587890625</AltitudeMeters>
            <DistanceMeters>NAN</DistanceMeters>
          </Trackpoint>
          <Trackpoint>
            <Time>2022-07-11T12:25:02.000Z</Time>
            <Position>
              <LatitudeDegrees>43.3081736974418163299560546875</LatitudeDegrees>
              <LongitudeDegrees>-2.67892540432512760162353515625</LongitudeDegrees>
            </Position>
            <AltitudeMeters>35.799999237060546875</AltitudeMeters>
            <DistanceMeters>NAN</DistanceMeters>
          </Trackpoint>
          <Trackpoint>
            <Time>2022-07-11T12:25:04.000Z</Time>
            <Position>
              <LatitudeDegrees>43.3082142658531665802001953125</LatitudeDegrees>
              <LongitudeDegrees>-2.6789461076259613037109375</LongitudeDegrees>
            </Position>
            <AltitudeMeters>35.799999237060546875</AltitudeMeters>
            <DistanceMeters>NAN</DistanceMeters>
          </Trackpoint>
          <Trackpoint>
            <Time>2022-07-11T12:25:06.000Z</Time>
            <Position>
              <LatitudeDegrees>43.30821434967219829559326171875</LatitudeDegrees>
              <LongitudeDegrees>-2.67892775125801563262939453125</LongitudeDegrees>
            </Position>
            <AltitudeMeters>35.799999237060546875</AltitudeMeters>
            <DistanceMeters>NAN</DistanceMeters>
          </Trackpoint>
          <Trackpoint>
            <Time>2022-07-11T12:25:07.000Z</Time>
            <Position>
              <LatitudeDegrees>43.3081968314945697784423828125</LatitudeDegrees>
              <LongitudeDegrees>-2.67891467548906803131103515625</LongitudeDegrees>
            </Position>
            <AltitudeMeters>35.59999847412109375</AltitudeMeters>
            <DistanceMeters>NAN</DistanceMeters>
          </Trackpoint>
          <Trackpoint>
            <Time>2022-07-11T12:25:10.000Z</Time>
            <Position>
              <LatitudeDegrees>43.3081907965242862701416015625</LatitudeDegrees>
              <LongitudeDegrees>-2.67889824695885181427001953125</LongitudeDegrees>
            </Position>
            <AltitudeMeters>35.59999847412109375</AltitudeMeters>
            <DistanceMeters>NAN</DistanceMeters>
          </Trackpoint>
          <Trackpoint>
            <Time>2022-07-11T12:25:12.000Z</Time>
            <Position>
              <LatitudeDegrees>43.30821367911994457244873046875</LatitudeDegrees>
              <LongitudeDegrees>-2.678888104856014251708984375</LongitudeDegrees>
            </Position>
            <AltitudeMeters>35.200000762939453125</AltitudeMeters>
            <DistanceMeters>NAN</DistanceMeters>
          </Trackpoint>
          <Trackpoint>
            <Time>2022-07-11T12:25:16.000Z</Time>
            <Position>
              <LatitudeDegrees>43.308190293610095977783203125</LatitudeDegrees>
              <LongitudeDegrees>-2.6789033599197864532470703125</LongitudeDegrees>
            </Position>
            <AltitudeMeters>34.799999237060546875</AltitudeMeters>
            <DistanceMeters>NAN</DistanceMeters>
          </Trackpoint>
          <Trackpoint>
            <Time>2022-07-11T12:25:19.000Z</Time>
            <Position>
              <LatitudeDegrees>43.30819507129490375518798828125</LatitudeDegrees>
              <LongitudeDegrees>-2.67888148315250873565673828125</LongitudeDegrees>
            </Position>
            <AltitudeMeters>34.799999237060546875</AltitudeMeters>
            <DistanceMeters>NAN</DistanceMeters>
          </Trackpoint>
          <Trackpoint>
            <Time>2022-07-11T12:25:24.000Z</Time>
            <Position>
              <LatitudeDegrees>43.30823748372495174407958984375</LatitudeDegrees>
              <LongitudeDegrees>-2.678802944719791412353515625</LongitudeDegrees>
            </Position>
            <AltitudeMeters>34.799999237060546875</AltitudeMeters>
            <DistanceMeters>NAN</DistanceMeters>
          </Trackpoint>
          <Trackpoint>
            <Time>2022-07-11T12:25:26.000Z</Time>
            <Position>
              <LatitudeDegrees>43.30826707184314727783203125</LatitudeDegrees>
              <LongitudeDegrees>-2.67879632301628589630126953125</LongitudeDegrees>
            </Position>
            <AltitudeMeters>34.799999237060546875</AltitudeMeters>
            <DistanceMeters>NAN</DistanceMeters>
          </Trackpoint>
          <Trackpoint>
            <Time>2022-07-11T12:25:28.000Z</Time>
            <Position>
              <LatitudeDegrees>43.3082699216902256011962890625</LatitudeDegrees>
              <LongitudeDegrees>-2.67879162915050983428955078125</LongitudeDegrees>
            </Position>
            <AltitudeMeters>34.799999237060546875</AltitudeMeters>
            <DistanceMeters>NAN</DistanceMeters>
          </Trackpoint>
          <Trackpoint>
            <Time>2022-07-11T12:25:32.000Z</Time>
            <Position>
              <LatitudeDegrees>43.3082618750631809234619140625</LatitudeDegrees>
              <LongitudeDegrees>-2.678831778466701507568359375</LongitudeDegrees>
            </Position>
            <AltitudeMeters>35.200000762939453125</AltitudeMeters>
            <DistanceMeters>NAN</DistanceMeters>
          </Trackpoint>
          <Trackpoint>
            <Time>2022-07-11T12:25:33.000Z</Time>
            <Position>
              <LatitudeDegrees>43.3082612045109272003173828125</LatitudeDegrees>
              <LongitudeDegrees>-2.678835801780223846435546875</LongitudeDegrees>
            </Position>
            <AltitudeMeters>35.40000152587890625</AltitudeMeters>
            <DistanceMeters>NAN</DistanceMeters>
          </Trackpoint>
          <Trackpoint>
            <Time>2022-07-11T12:35:24.000Z</Time>
            <Position>
              <LatitudeDegrees>43.308732770383358001708984375</LatitudeDegrees>
              <LongitudeDegrees>-2.6788185350596904754638671875</LongitudeDegrees>
            </Position>
            <AltitudeMeters>32.200000762939453125</AltitudeMeters>
            <DistanceMeters>NAN</DistanceMeters>
          </Trackpoint>
          <Trackpoint>
            <Time>2022-07-11T12:35:26.000Z</Time>
            <Position>
              <LatitudeDegrees>43.30875682644546031951904296875</LatitudeDegrees>
              <LongitudeDegrees>-2.67879380844533443450927734375</LongitudeDegrees>
            </Position>
            <AltitudeMeters>32.40000152587890625</AltitudeMeters>
            <DistanceMeters>NAN</DistanceMeters>
          </Trackpoint>
          <Trackpoint>
            <Time>2022-07-11T12:35:33.000Z</Time>
            <Position>
              <LatitudeDegrees>43.3089196868240833282470703125</LatitudeDegrees>
              <LongitudeDegrees>-2.678696326911449432373046875</LongitudeDegrees>
            </Position>
            <AltitudeMeters>32.200000762939453125</AltitudeMeters>
            <DistanceMeters>NAN</DistanceMeters>
          </Trackpoint>
          <Trackpoint>
            <Time>2022-07-11T12:35:39.000Z</Time>
            <Position>
              <LatitudeDegrees>43.30905773676931858062744140625</LatitudeDegrees>
              <LongitudeDegrees>-2.678704373538494110107421875</LongitudeDegrees>
            </Position>
            <AltitudeMeters>32</AltitudeMeters>
            <DistanceMeters>NAN</DistanceMeters>
          </Trackpoint>
          <Trackpoint>
            <Time>2022-07-11T12:35:43.000Z</Time>
            <Position>
              <LatitudeDegrees>43.309125714004039764404296875</LatitudeDegrees>
              <LongitudeDegrees>-2.67877469770610332489013671875</LongitudeDegrees>
            </Position>
            <AltitudeMeters>32.40000152587890625</AltitudeMeters>
            <DistanceMeters>NAN</DistanceMeters>
          </Trackpoint>
          <Trackpoint>
            <Time>2022-07-11T12:35:44.000Z</Time>
            <Position>
              <LatitudeDegrees>43.309139795601367950439453125</LatitudeDegrees>
              <LongitudeDegrees>-2.678782828152179718017578125</LongitudeDegrees>
            </Position>
            <AltitudeMeters>32.40000152587890625</AltitudeMeters>
            <DistanceMeters>NAN</DistanceMeters>
          </Trackpoint>
          <Trackpoint>
            <Time>2022-07-11T12:35:49.000Z</Time>
            <Position>
              <LatitudeDegrees>43.3092013187706470489501953125</LatitudeDegrees>
              <LongitudeDegrees>-2.6787722669541835784912109375</LongitudeDegrees>
            </Position>
            <AltitudeMeters>32.200000762939453125</AltitudeMeters>
            <DistanceMeters>NAN</DistanceMeters>
          </Trackpoint>
          <Trackpoint>
            <Time>2022-07-11T12:35:52.000Z</Time>
            <Position>
              <LatitudeDegrees>43.30922470428049564361572265625</LatitudeDegrees>
              <LongitudeDegrees>-2.67875743098556995391845703125</LongitudeDegrees>
            </Position>
            <AltitudeMeters>31.799999237060546875</AltitudeMeters>
            <DistanceMeters>NAN</DistanceMeters>
          </Trackpoint>
          <Trackpoint>
            <Time>2022-07-11T12:35:55.000Z</Time>
            <Position>
              <LatitudeDegrees>43.30923560075461864471435546875</LatitudeDegrees>
              <LongitudeDegrees>-2.6787575148046016693115234375</LongitudeDegrees>
            </Position>
            <AltitudeMeters>31.6000003814697265625</AltitudeMeters>
            <DistanceMeters>NAN</DistanceMeters>
          </Trackpoint>
          <Trackpoint>
            <Time>2022-07-11T12:35:56.000Z</Time>
            <Position>
              <LatitudeDegrees>43.3092392049729824066162109375</LatitudeDegrees>
              <LongitudeDegrees>-2.678759358823299407958984375</LongitudeDegrees>
            </Position>
            <AltitudeMeters>31.6000003814697265625</AltitudeMeters>
            <DistanceMeters>NAN</DistanceMeters>
          </Trackpoint>
          <Trackpoint>
            <Time>2022-07-11T12:37:01.000Z</Time>
            <Position>
              <LatitudeDegrees>43.30926544032990932464599609375</LatitudeDegrees>
              <LongitudeDegrees>-2.67880504019558429718017578125</LongitudeDegrees>
            </Position>
            <AltitudeMeters>29.6000003814697265625</AltitudeMeters>
            <DistanceMeters>NAN</DistanceMeters>
          </Trackpoint>
          <Trackpoint>
            <Time>2022-07-11T12:37:02.000Z</Time>
            <Position>
              <LatitudeDegrees>43.30927466042339801788330078125</LatitudeDegrees>
              <LongitudeDegrees>-2.678831778466701507568359375</LongitudeDegrees>
            </Position>
            <AltitudeMeters>29.6000003814697265625</AltitudeMeters>
            <DistanceMeters>NAN</DistanceMeters>
          </Trackpoint>
          <Trackpoint>
            <Time>2022-07-11T12:37:04.000Z</Time>
            <Position>
              <LatitudeDegrees>43.3092891611158847808837890625</LatitudeDegrees>
              <LongitudeDegrees>-2.67887779511511325836181640625</LongitudeDegrees>
            </Position>
            <AltitudeMeters>29.799999237060546875</AltitudeMeters>
            <DistanceMeters>NAN</DistanceMeters>
          </Trackpoint>
          <Trackpoint>
            <Time>2022-07-11T12:37:05.000Z</Time>
            <Position>
              <LatitudeDegrees>43.30929779447615146636962890625</LatitudeDegrees>
              <LongitudeDegrees>-2.67889791168272495269775390625</LongitudeDegrees>
            </Position>
            <AltitudeMeters>29.799999237060546875</AltitudeMeters>
            <DistanceMeters>NAN</DistanceMeters>
          </Trackpoint>
          <Trackpoint>
            <Time>2022-07-11T12:37:08.000Z</Time>
            <Position>
              <LatitudeDegrees>43.30935730598866939544677734375</LatitudeDegrees>
              <LongitudeDegrees>-2.67890252172946929931640625</LongitudeDegrees>
            </Position>
            <AltitudeMeters>29.799999237060546875</AltitudeMeters>
            <DistanceMeters>NAN</DistanceMeters>
          </Trackpoint>
          <Trackpoint>
            <Time>2022-07-11T12:37:12.000Z</Time>
            <Position>
              <LatitudeDegrees>43.3094393648207187652587890625</LatitudeDegrees>
              <LongitudeDegrees>-2.6788503862917423248291015625</LongitudeDegrees>
            </Position>
            <AltitudeMeters>30</AltitudeMeters>
            <DistanceMeters>NAN</DistanceMeters>
          </Trackpoint>
          <Trackpoint>
            <Time>2022-07-11T12:37:15.000Z</Time>
            <Position>
              <LatitudeDegrees>43.30951170064508914947509765625</LatitudeDegrees>
              <LongitudeDegrees>-2.67880789004266262054443359375</LongitudeDegrees>
            </Position>
            <AltitudeMeters>30</AltitudeMeters>
            <DistanceMeters>NAN</DistanceMeters>
          </Trackpoint>
          <Trackpoint>
            <Time>2022-07-11T12:37:18.000Z</Time>
            <Position>
              <LatitudeDegrees>43.30957372672855854034423828125</LatitudeDegrees>
              <LongitudeDegrees>-2.67876547761261463165283203125</LongitudeDegrees>
            </Position>
            <AltitudeMeters>30</AltitudeMeters>
            <DistanceMeters>NAN</DistanceMeters>
          </Trackpoint>
          <Trackpoint>
            <Time>2022-07-11T12:37:21.000Z</Time>
            <Position>
              <LatitudeDegrees>43.30965871922671794891357421875</LatitudeDegrees>
              <LongitudeDegrees>-2.678730189800262451171875</LongitudeDegrees>
            </Position>
            <AltitudeMeters>29.799999237060546875</AltitudeMeters>
            <DistanceMeters>NAN</DistanceMeters>
          </Trackpoint>
          <Trackpoint>
            <Time>2022-07-11T12:37:24.000Z</Time>
            <Position>
              <LatitudeDegrees>43.30974522046744823455810546875</LatitudeDegrees>
              <LongitudeDegrees>-2.67868794500827789306640625</LongitudeDegrees>
            </Position>
            <AltitudeMeters>29.799999237060546875</AltitudeMeters>
            <DistanceMeters>NAN</DistanceMeters>
          </Trackpoint>
          <Trackpoint>
            <Time>2022-07-11T12:37:27.000Z</Time>
            <Position>
              <LatitudeDegrees>43.3098326437175273895263671875</LatitudeDegrees>
              <LongitudeDegrees>-2.6786324568092823028564453125</LongitudeDegrees>
            </Position>
            <AltitudeMeters>29.799999237060546875</AltitudeMeters>
            <DistanceMeters>NAN</DistanceMeters>
          </Trackpoint>
          <Trackpoint>
            <Time>2022-07-11T12:37:30.000Z</Time>
            <Position>
              <LatitudeDegrees>43.30991487018764019012451171875</LatitudeDegrees>
              <LongitudeDegrees>-2.6785771362483501434326171875</LongitudeDegrees>
            </Position>
            <AltitudeMeters>29.6000003814697265625</AltitudeMeters>
            <DistanceMeters>NAN</DistanceMeters>
          </Trackpoint>
          <Trackpoint>
            <Time>2022-07-11T12:37:32.000Z</Time>
            <Position>
              <LatitudeDegrees>43.30997052602469921112060546875</LatitudeDegrees>
              <LongitudeDegrees>-2.6785526610910892486572265625</LongitudeDegrees>
            </Position>
            <AltitudeMeters>29.3999996185302734375</AltitudeMeters>
            <DistanceMeters>NAN</DistanceMeters>
          </Trackpoint>
          <Trackpoint>
            <Time>2022-07-11T12:37:33.000Z</Time>
            <Position>
              <LatitudeDegrees>43.31000908277928829193115234375</LatitudeDegrees>
              <LongitudeDegrees>-2.67853229306638240814208984375</LongitudeDegrees>
            </Position>
            <AltitudeMeters>29.3999996185302734375</AltitudeMeters>
            <DistanceMeters>NAN</DistanceMeters>
          </Trackpoint>
          <Trackpoint>
            <Time>2022-07-11T12:37:38.000Z</Time>
            <Position>
              <LatitudeDegrees>43.3101665787398815155029296875</LatitudeDegrees>
              <LongitudeDegrees>-2.67843137495219707489013671875</LongitudeDegrees>
            </Position>
            <AltitudeMeters>29.3999996185302734375</AltitudeMeters>
            <DistanceMeters>NAN</DistanceMeters>
          </Trackpoint>
          <Trackpoint>
            <Time>2022-07-11T12:37:42.000Z</Time>
            <Position>
              <LatitudeDegrees>43.31030731089413166046142578125</LatitudeDegrees>
              <LongitudeDegrees>-2.678358368575572967529296875</LongitudeDegrees>
            </Position>
            <AltitudeMeters>29.200000762939453125</AltitudeMeters>
            <DistanceMeters>NAN</DistanceMeters>
          </Trackpoint>
          <Trackpoint>
            <Time>2022-07-11T12:37:52.000Z</Time>
            <Position>
              <LatitudeDegrees>43.3106280863285064697265625</LatitudeDegrees>
              <LongitudeDegrees>-2.6781816780567169189453125</LongitudeDegrees>
            </Position>
            <AltitudeMeters>28.799999237060546875</AltitudeMeters>
            <DistanceMeters>NAN</DistanceMeters>
          </Trackpoint>
          <Trackpoint>
            <Time>2022-07-11T12:37:58.000Z</Time>
            <Position>
              <LatitudeDegrees>43.310801424086093902587890625</LatitudeDegrees>
              <LongitudeDegrees>-2.6780815981328487396240234375</LongitudeDegrees>
            </Position>
            <AltitudeMeters>29</AltitudeMeters>
            <DistanceMeters>NAN</DistanceMeters>
          </Trackpoint>
          <Trackpoint>
            <Time>2022-07-11T12:38:01.000Z</Time>
            <Position>
              <LatitudeDegrees>43.31089303828775882720947265625</LatitudeDegrees>
              <LongitudeDegrees>-2.67803843133151531219482421875</LongitudeDegrees>
            </Position>
            <AltitudeMeters>28.799999237060546875</AltitudeMeters>
            <DistanceMeters>NAN</DistanceMeters>
          </Trackpoint>
          <Trackpoint>
            <Time>2022-07-11T12:38:07.000Z</Time>
            <Position>
              <LatitudeDegrees>43.311103843152523040771484375</LatitudeDegrees>
              <LongitudeDegrees>-2.6779243536293506622314453125</LongitudeDegrees>
            </Position>
            <AltitudeMeters>28.6000003814697265625</AltitudeMeters>
            <DistanceMeters>NAN</DistanceMeters>
          </Trackpoint>
          <Trackpoint>
            <Time>2022-07-11T12:38:08.000Z</Time>
            <Position>
              <LatitudeDegrees>43.31113946624100208282470703125</LatitudeDegrees>
              <LongitudeDegrees>-2.6779045723378658294677734375</LongitudeDegrees>
            </Position>
            <AltitudeMeters>28.6000003814697265625</AltitudeMeters>
            <DistanceMeters>NAN</DistanceMeters>
          </Trackpoint>
          <Trackpoint>
            <Time>2022-07-11T12:38:10.000Z</Time>
            <Position>
              <LatitudeDegrees>43.3112025819718837738037109375</LatitudeDegrees>
              <LongitudeDegrees>-2.6778727211058139801025390625</LongitudeDegrees>
            </Position>
            <AltitudeMeters>28.6000003814697265625</AltitudeMeters>
            <DistanceMeters>NAN</DistanceMeters>
          </Trackpoint>
          <Trackpoint>
            <Time>2022-07-11T12:38:17.000Z</Time>
            <Position>
              <LatitudeDegrees>43.31144574098289012908935546875</LatitudeDegrees>
              <LongitudeDegrees>-2.6777302287518978118896484375</LongitudeDegrees>
            </Position>
            <AltitudeMeters>28.200000762939453125</AltitudeMeters>
            <DistanceMeters>NAN</DistanceMeters>
          </Trackpoint>
          <Trackpoint>
            <Time>2022-07-11T12:38:22.000Z</Time>
            <Position>
              <LatitudeDegrees>43.31157214008271694183349609375</LatitudeDegrees>
              <LongitudeDegrees>-2.677721343934535980224609375</LongitudeDegrees>
            </Position>
            <AltitudeMeters>28</AltitudeMeters>
            <DistanceMeters>NAN</DistanceMeters>
          </Trackpoint>
          <Trackpoint>
            <Time>2022-07-11T12:38:27.000Z</Time>
            <Position>
              <LatitudeDegrees>43.31175268627703189849853515625</LatitudeDegrees>
              <LongitudeDegrees>-2.677657306194305419921875</LongitudeDegrees>
            </Position>
            <AltitudeMeters>27.799999237060546875</AltitudeMeters>
            <DistanceMeters>NAN</DistanceMeters>
          </Trackpoint>
          <Trackpoint>
            <Time>2022-07-11T12:38:29.000Z</Time>
            <Position>
              <LatitudeDegrees>43.3118323981761932373046875</LatitudeDegrees>
              <LongitudeDegrees>-2.6776333339512348175048828125</LongitudeDegrees>
            </Position>
            <AltitudeMeters>27.799999237060546875</AltitudeMeters>
            <DistanceMeters>NAN</DistanceMeters>
          </Trackpoint>
          <Trackpoint>
            <Time>2022-07-11T12:38:32.000Z</Time>
            <Position>
              <LatitudeDegrees>43.3119308017194271087646484375</LatitudeDegrees>
              <LongitudeDegrees>-2.67762352712452411651611328125</LongitudeDegrees>
            </Position>
            <AltitudeMeters>27.3999996185302734375</AltitudeMeters>
            <DistanceMeters>NAN</DistanceMeters>
          </Trackpoint>
          <Trackpoint>
            <Time>2022-07-11T12:38:33.000Z</Time>
            <Position>
              <LatitudeDegrees>43.31197162158787250518798828125</LatitudeDegrees>
              <LongitudeDegrees>-2.677614726126194000244140625</LongitudeDegrees>
            </Position>
            <AltitudeMeters>27.200000762939453125</AltitudeMeters>
            <DistanceMeters>NAN</DistanceMeters>
          </Trackpoint>
          <Trackpoint>
            <Time>2022-07-11T12:38:36.000Z</Time>
            <Position>
              <LatitudeDegrees>43.3120793290436267852783203125</LatitudeDegrees>
              <LongitudeDegrees>-2.6775572262704372406005859375</LongitudeDegrees>
            </Position>
            <AltitudeMeters>26.6000003814697265625</AltitudeMeters>
            <DistanceMeters>NAN</DistanceMeters>
          </Trackpoint>
          <Trackpoint>
            <Time>2022-07-11T12:38:38.000Z</Time>
            <Position>
              <LatitudeDegrees>43.31213674508035182952880859375</LatitudeDegrees>
              <LongitudeDegrees>-2.67758421599864959716796875</LongitudeDegrees>
            </Position>
            <AltitudeMeters>26.3999996185302734375</AltitudeMeters>
            <DistanceMeters>NAN</DistanceMeters>
          </Trackpoint>
          <Trackpoint>
            <Time>2022-07-11T12:38:39.000Z</Time>
            <Position>
              <LatitudeDegrees>43.3121514134109020233154296875</LatitudeDegrees>
              <LongitudeDegrees>-2.67761480994522571563720703125</LongitudeDegrees>
            </Position>
            <AltitudeMeters>26.200000762939453125</AltitudeMeters>
            <DistanceMeters>NAN</DistanceMeters>
          </Trackpoint>
          <Trackpoint>
            <Time>2022-07-11T12:38:42.000Z</Time>
            <Position>
              <LatitudeDegrees>43.31219290383160114288330078125</LatitudeDegrees>
              <LongitudeDegrees>-2.67769527621567249298095703125</LongitudeDegrees>
            </Position>
            <AltitudeMeters>26.3999996185302734375</AltitudeMeters>
            <DistanceMeters>NAN</DistanceMeters>
          </Trackpoint>
          <Trackpoint>
            <Time>2022-07-11T12:38:44.000Z</Time>
            <Position>
              <LatitudeDegrees>43.3122335560619831085205078125</LatitudeDegrees>
              <LongitudeDegrees>-2.67770298756659030914306640625</LongitudeDegrees>
            </Position>
            <AltitudeMeters>26.6000003814697265625</AltitudeMeters>
            <DistanceMeters>NAN</DistanceMeters>
          </Trackpoint>
          <Trackpoint>
            <Time>2022-07-11T12:38:46.000Z</Time>
            <Position>
              <LatitudeDegrees>43.31223296932876110076904296875</LatitudeDegrees>
              <LongitudeDegrees>-2.677694857120513916015625</LongitudeDegrees>
            </Position>
            <AltitudeMeters>26.6000003814697265625</AltitudeMeters>
            <DistanceMeters>NAN</DistanceMeters>
          </Trackpoint>
          <Trackpoint>
            <Time>2022-07-11T12:38:48.000Z</Time>
            <Position>
              <LatitudeDegrees>43.31223464570939540863037109375</LatitudeDegrees>
              <LongitudeDegrees>-2.6777444779872894287109375</LongitudeDegrees>
            </Position>
            <AltitudeMeters>26.799999237060546875</AltitudeMeters>
            <DistanceMeters>NAN</DistanceMeters>
          </Trackpoint>
          <Trackpoint>
            <Time>2022-07-11T12:38:49.000Z</Time>
            <Position>
              <LatitudeDegrees>43.3122436143457889556884765625</LatitudeDegrees>
              <LongitudeDegrees>-2.6777748204767704010009765625</LongitudeDegrees>
            </Position>
            <AltitudeMeters>27</AltitudeMeters>
            <DistanceMeters>NAN</DistanceMeters>
          </Trackpoint>
          <Trackpoint>
            <Time>2022-07-11T12:38:53.000Z</Time>
            <Position>
              <LatitudeDegrees>43.31226364709436893463134765625</LatitudeDegrees>
              <LongitudeDegrees>-2.6779322326183319091796875</LongitudeDegrees>
            </Position>
            <AltitudeMeters>27.3999996185302734375</AltitudeMeters>
            <DistanceMeters>NAN</DistanceMeters>
          </Trackpoint>
          <Trackpoint>
            <Time>2022-07-11T12:38:54.000Z</Time>
            <Position>
              <LatitudeDegrees>43.312269933521747589111328125</LatitudeDegrees>
              <LongitudeDegrees>-2.67796768806874752044677734375</LongitudeDegrees>
            </Position>
            <AltitudeMeters>27.6000003814697265625</AltitudeMeters>
            <DistanceMeters>NAN</DistanceMeters>
          </Trackpoint>
          <Trackpoint>
            <Time>2022-07-11T12:38:58.000Z</Time>
            <Position>
              <LatitudeDegrees>43.31228443421423435211181640625</LatitudeDegrees>
              <LongitudeDegrees>-2.67810079269111156463623046875</LongitudeDegrees>
            </Position>
            <AltitudeMeters>28.3999996185302734375</AltitudeMeters>
            <DistanceMeters>NAN</DistanceMeters>
          </Trackpoint>
          <Trackpoint>
            <Time>2022-07-11T12:39:01.000Z</Time>
            <Position>
              <LatitudeDegrees>43.31229977309703826904296875</LatitudeDegrees>
              <LongitudeDegrees>-2.67820707522332668304443359375</LongitudeDegrees>
            </Position>
            <AltitudeMeters>28.799999237060546875</AltitudeMeters>
            <DistanceMeters>NAN</DistanceMeters>
          </Trackpoint>
          <Trackpoint>
            <Time>2022-07-11T12:39:02.000Z</Time>
            <Position>
              <LatitudeDegrees>43.31231075339019298553466796875</LatitudeDegrees>
              <LongitudeDegrees>-2.67822870053350925445556640625</LongitudeDegrees>
            </Position>
            <AltitudeMeters>28.799999237060546875</AltitudeMeters>
            <DistanceMeters>NAN</DistanceMeters>
          </Trackpoint>
          <Trackpoint>
            <Time>2022-07-11T12:39:04.000Z</Time>
            <Position>
              <LatitudeDegrees>43.312306813895702362060546875</LatitudeDegrees>
              <LongitudeDegrees>-2.67826776020228862762451171875</LongitudeDegrees>
            </Position>
            <AltitudeMeters>29</AltitudeMeters>
            <DistanceMeters>NAN</DistanceMeters>
          </Trackpoint>
          <Trackpoint>
            <Time>2022-07-11T12:39:07.000Z</Time>
            <Position>
              <LatitudeDegrees>43.3123069815337657928466796875</LatitudeDegrees>
              <LongitudeDegrees>-2.67837488092482089996337890625</LongitudeDegrees>
            </Position>
            <AltitudeMeters>29.3999996185302734375</AltitudeMeters>
            <DistanceMeters>NAN</DistanceMeters>
          </Trackpoint>
          <Trackpoint>
            <Time>2022-07-11T12:39:08.000Z</Time>
            <Position>
              <LatitudeDegrees>43.31230647861957550048828125</LatitudeDegrees>
              <LongitudeDegrees>-2.67841779626905918121337890625</LongitudeDegrees>
            </Position>
            <AltitudeMeters>29.6000003814697265625</AltitudeMeters>
            <DistanceMeters>NAN</DistanceMeters>
          </Trackpoint>
          <Trackpoint>
            <Time>2022-07-11T12:39:10.000Z</Time>
            <Position>
              <LatitudeDegrees>43.31231988966464996337890625</LatitudeDegrees>
              <LongitudeDegrees>-2.6784809119999408721923828125</LongitudeDegrees>
            </Position>
            <AltitudeMeters>29.799999237060546875</AltitudeMeters>
            <DistanceMeters>NAN</DistanceMeters>
          </Trackpoint>
          <Trackpoint>
            <Time>2022-07-11T12:39:12.000Z</Time>
            <Position>
              <LatitudeDegrees>43.3123473823070526123046875</LatitudeDegrees>
              <LongitudeDegrees>-2.67848149873316287994384765625</LongitudeDegrees>
            </Position>
            <AltitudeMeters>30</AltitudeMeters>
            <DistanceMeters>NAN</DistanceMeters>
          </Trackpoint>
          <Trackpoint>
            <Time>2022-07-11T12:39:14.000Z</Time>
            <Position>
              <LatitudeDegrees>43.31238820217549800872802734375</LatitudeDegrees>
              <LongitudeDegrees>-2.67849323339760303497314453125</LongitudeDegrees>
            </Position>
            <AltitudeMeters>30.200000762939453125</AltitudeMeters>
            <DistanceMeters>NAN</DistanceMeters>
          </Trackpoint>
          <Trackpoint>
            <Time>2022-07-11T12:39:17.000Z</Time>
            <Position>
              <LatitudeDegrees>43.31245508976280689239501953125</LatitudeDegrees>
              <LongitudeDegrees>-2.678478397428989410400390625</LongitudeDegrees>
            </Position>
            <AltitudeMeters>30.200000762939453125</AltitudeMeters>
            <DistanceMeters>NAN</DistanceMeters>
          </Trackpoint>
          <Trackpoint>
            <Time>2022-07-11T12:39:21.000Z</Time>
            <Position>
              <LatitudeDegrees>43.31256288103759288787841796875</LatitudeDegrees>
              <LongitudeDegrees>-2.67848418094217777252197265625</LongitudeDegrees>
            </Position>
            <AltitudeMeters>30.200000762939453125</AltitudeMeters>
            <DistanceMeters>NAN</DistanceMeters>
          </Trackpoint>
          <Trackpoint>
            <Time>2022-07-11T12:39:22.000Z</Time>
            <Position>
              <LatitudeDegrees>43.31258945167064666748046875</LatitudeDegrees>
              <LongitudeDegrees>-2.67847864888608455657958984375</LongitudeDegrees>
            </Position>
            <AltitudeMeters>30.200000762939453125</AltitudeMeters>
            <DistanceMeters>NAN</DistanceMeters>
          </Trackpoint>
          <Trackpoint>
            <Time>2022-07-11T12:39:24.000Z</Time>
            <Position>
              <LatitudeDegrees>43.31264250911772251129150390625</LatitudeDegrees>
              <LongitudeDegrees>-2.6784686744213104248046875</LongitudeDegrees>
            </Position>
            <AltitudeMeters>30.200000762939453125</AltitudeMeters>
            <DistanceMeters>NAN</DistanceMeters>
          </Trackpoint>
          <Trackpoint>
            <Time>2022-07-11T12:39:26.000Z</Time>
            <Position>
              <LatitudeDegrees>43.31270788796246051788330078125</LatitudeDegrees>
              <LongitudeDegrees>-2.678462304174900054931640625</LongitudeDegrees>
            </Position>
            <AltitudeMeters>30</AltitudeMeters>
            <DistanceMeters>NAN</DistanceMeters>
          </Trackpoint>
          <Trackpoint>
            <Time>2022-07-11T12:39:28.000Z</Time>
            <Position>
              <LatitudeDegrees>43.312776871025562286376953125</LatitudeDegrees>
              <LongitudeDegrees>-2.67844227142632007598876953125</LongitudeDegrees>
            </Position>
            <AltitudeMeters>30</AltitudeMeters>
            <DistanceMeters>NAN</DistanceMeters>
          </Trackpoint>
          <Trackpoint>
            <Time>2022-07-11T12:39:32.000Z</Time>
            <Position>
              <LatitudeDegrees>43.3128876797854900360107421875</LatitudeDegrees>
              <LongitudeDegrees>-2.6784222386777400970458984375</LongitudeDegrees>
            </Position>
            <AltitudeMeters>29.799999237060546875</AltitudeMeters>
            <DistanceMeters>NAN</DistanceMeters>
          </Trackpoint>
          <Trackpoint>
            <Time>2022-07-11T12:39:34.000Z</Time>
            <Position>
              <LatitudeDegrees>43.312931768596172332763671875</LatitudeDegrees>
              <LongitudeDegrees>-2.6784217357635498046875</LongitudeDegrees>
            </Position>
            <AltitudeMeters>29.3999996185302734375</AltitudeMeters>
            <DistanceMeters>NAN</DistanceMeters>
          </Trackpoint>
          <Trackpoint>
            <Time>2022-07-11T12:39:35.000Z</Time>
            <Position>
              <LatitudeDegrees>43.31295833922922611236572265625</LatitudeDegrees>
              <LongitudeDegrees>-2.67841494642198085784912109375</LongitudeDegrees>
            </Position>
            <AltitudeMeters>29.3999996185302734375</AltitudeMeters>
            <DistanceMeters>NAN</DistanceMeters>
          </Trackpoint>
          <Trackpoint>
            <Time>2022-07-11T12:39:37.000Z</Time>
            <Position>
              <LatitudeDegrees>43.3130197785794734954833984375</LatitudeDegrees>
              <LongitudeDegrees>-2.67839491367340087890625</LongitudeDegrees>
            </Position>
            <AltitudeMeters>29.200000762939453125</AltitudeMeters>
            <DistanceMeters>NAN</DistanceMeters>
          </Trackpoint>
          <Trackpoint>
            <Time>2022-07-11T12:39:40.000Z</Time>
            <Position>
              <LatitudeDegrees>43.31307685934007167816162109375</LatitudeDegrees>
              <LongitudeDegrees>-2.67840689979493618011474609375</LongitudeDegrees>
            </Position>
            <AltitudeMeters>29</AltitudeMeters>
            <DistanceMeters>NAN</DistanceMeters>
          </Trackpoint>
          <Trackpoint>
            <Time>2022-07-11T12:39:45.000Z</Time>
            <Position>
              <LatitudeDegrees>43.3131788671016693115234375</LatitudeDegrees>
              <LongitudeDegrees>-2.67842835746705532073974609375</LongitudeDegrees>
            </Position>
            <AltitudeMeters>29.200000762939453125</AltitudeMeters>
            <DistanceMeters>NAN</DistanceMeters>
          </Trackpoint>
          <Trackpoint>
            <Time>2022-07-11T12:39:51.000Z</Time>
            <Position>
              <LatitudeDegrees>43.3133413083851337432861328125</LatitudeDegrees>
              <LongitudeDegrees>-2.67838158644735813140869140625</LongitudeDegrees>
            </Position>
            <AltitudeMeters>29.3999996185302734375</AltitudeMeters>
            <DistanceMeters>NAN</DistanceMeters>
          </Trackpoint>
          <Trackpoint>
            <Time>2022-07-11T12:39:53.000Z</Time>
            <Position>
              <LatitudeDegrees>43.3134100399911403656005859375</LatitudeDegrees>
              <LongitudeDegrees>-2.67835929058492183685302734375</LongitudeDegrees>
            </Position>
            <AltitudeMeters>29.6000003814697265625</AltitudeMeters>
            <DistanceMeters>NAN</DistanceMeters>
          </Trackpoint>
          <Trackpoint>
            <Time>2022-07-11T12:39:56.000Z</Time>
            <Position>
              <LatitudeDegrees>43.3134998939931392669677734375</LatitudeDegrees>
              <LongitudeDegrees>-2.67838292755186557769775390625</LongitudeDegrees>
            </Position>
            <AltitudeMeters>29.799999237060546875</AltitudeMeters>
            <DistanceMeters>NAN</DistanceMeters>
          </Trackpoint>
          <Trackpoint>
            <Time>2022-07-11T12:39:57.000Z</Time>
            <Position>
              <LatitudeDegrees>43.31352126784622669219970703125</LatitudeDegrees>
              <LongitudeDegrees>-2.6783947460353374481201171875</LongitudeDegrees>
            </Position>
            <AltitudeMeters>30</AltitudeMeters>
            <DistanceMeters>NAN</DistanceMeters>
          </Trackpoint>
          <Trackpoint>
            <Time>2022-07-11T12:39:59.000Z</Time>
            <Position>
              <LatitudeDegrees>43.31357005052268505096435546875</LatitudeDegrees>
              <LongitudeDegrees>-2.6784141920506954193115234375</LongitudeDegrees>
            </Position>
            <AltitudeMeters>30</AltitudeMeters>
            <DistanceMeters>NAN</DistanceMeters>
          </Trackpoint>
          <Trackpoint>
            <Time>2022-07-11T12:40:03.000Z</Time>
            <Position>
              <LatitudeDegrees>43.313672058284282684326171875</LatitudeDegrees>
              <LongitudeDegrees>-2.67838083207607269287109375</LongitudeDegrees>
            </Position>
            <AltitudeMeters>29.799999237060546875</AltitudeMeters>
            <DistanceMeters>NAN</DistanceMeters>
          </Trackpoint>
          <Trackpoint>
            <Time>2022-07-11T12:40:05.000Z</Time>
            <Position>
              <LatitudeDegrees>43.3137072622776031494140625</LatitudeDegrees>
              <LongitudeDegrees>-2.67836616374552249908447265625</LongitudeDegrees>
            </Position>
            <AltitudeMeters>29.799999237060546875</AltitudeMeters>
            <DistanceMeters>NAN</DistanceMeters>
          </Trackpoint>
          <Trackpoint>
            <Time>2022-07-11T12:40:09.000Z</Time>
            <Position>
              <LatitudeDegrees>43.31380927003920078277587890625</LatitudeDegrees>
              <LongitudeDegrees>-2.67837555147707462310791015625</LongitudeDegrees>
            </Position>
            <AltitudeMeters>29.799999237060546875</AltitudeMeters>
            <DistanceMeters>NAN</DistanceMeters>
          </Trackpoint>
          <Trackpoint>
            <Time>2022-07-11T12:40:16.000Z</Time>
            <Position>
              <LatitudeDegrees>43.3139860443770885467529296875</LatitudeDegrees>
              <LongitudeDegrees>-2.67843782901763916015625</LongitudeDegrees>
            </Position>
            <AltitudeMeters>30.3999996185302734375</AltitudeMeters>
            <DistanceMeters>NAN</DistanceMeters>
          </Trackpoint>
          <Trackpoint>
            <Time>2022-07-11T12:40:17.000Z</Time>
            <Position>
              <LatitudeDegrees>43.31401169300079345703125</LatitudeDegrees>
              <LongitudeDegrees>-2.67844562418758869171142578125</LongitudeDegrees>
            </Position>
            <AltitudeMeters>30.6000003814697265625</AltitudeMeters>
            <DistanceMeters>NAN</DistanceMeters>
          </Trackpoint>
          <Trackpoint>
            <Time>2022-07-11T12:40:22.000Z</Time>
            <Position>
              <LatitudeDegrees>43.3141164667904376983642578125</LatitudeDegrees>
              <LongitudeDegrees>-2.67844696529209613800048828125</LongitudeDegrees>
            </Position>
            <AltitudeMeters>30.6000003814697265625</AltitudeMeters>
            <DistanceMeters>NAN</DistanceMeters>
          </Trackpoint>
          <Trackpoint>
            <Time>2022-07-11T12:40:25.000Z</Time>
            <Position>
              <LatitudeDegrees>43.31417572684586048126220703125</LatitudeDegrees>
              <LongitudeDegrees>-2.678466998040676116943359375</LongitudeDegrees>
            </Position>
            <AltitudeMeters>30.3999996185302734375</AltitudeMeters>
            <DistanceMeters>NAN</DistanceMeters>
          </Trackpoint>
          <Trackpoint>
            <Time>2022-07-11T12:40:27.000Z</Time>
            <Position>
              <LatitudeDegrees>43.31419299356639385223388671875</LatitudeDegrees>
              <LongitudeDegrees>-2.67852106131613254547119140625</LongitudeDegrees>
            </Position>
            <AltitudeMeters>30.3999996185302734375</AltitudeMeters>
            <DistanceMeters>NAN</DistanceMeters>
          </Trackpoint>
          <Trackpoint>
            <Time>2022-07-11T12:40:29.000Z</Time>
            <Position>
              <LatitudeDegrees>43.3142009563744068145751953125</LatitudeDegrees>
              <LongitudeDegrees>-2.67856682650744915008544921875</LongitudeDegrees>
            </Position>
            <AltitudeMeters>30.6000003814697265625</AltitudeMeters>
            <DistanceMeters>NAN</DistanceMeters>
          </Trackpoint>
          <Trackpoint>
            <Time>2022-07-11T12:40:33.000Z</Time>
            <Position>
              <LatitudeDegrees>43.31420472823083400726318359375</LatitudeDegrees>
              <LongitudeDegrees>-2.67864645458757877349853515625</LongitudeDegrees>
            </Position>
            <AltitudeMeters>31.200000762939453125</AltitudeMeters>
            <DistanceMeters>NAN</DistanceMeters>
          </Trackpoint>
          <Trackpoint>
            <Time>2022-07-11T12:40:34.000Z</Time>
            <Position>
              <LatitudeDegrees>43.31421210430562496185302734375</LatitudeDegrees>
              <LongitudeDegrees>-2.67866916954517364501953125</LongitudeDegrees>
            </Position>
            <AltitudeMeters>31.6000003814697265625</AltitudeMeters>
            <DistanceMeters>NAN</DistanceMeters>
          </Trackpoint>
          <Trackpoint>
            <Time>2022-07-11T12:40:36.000Z</Time>
            <Position>
              <LatitudeDegrees>43.3142204023897647857666015625</LatitudeDegrees>
              <LongitudeDegrees>-2.67871183343231678009033203125</LongitudeDegrees>
            </Position>
            <AltitudeMeters>32</AltitudeMeters>
            <DistanceMeters>NAN</DistanceMeters>
          </Trackpoint>
          <Trackpoint>
            <Time>2022-07-11T12:40:39.000Z</Time>
            <Position>
              <LatitudeDegrees>43.31422853283584117889404296875</LatitudeDegrees>
              <LongitudeDegrees>-2.678782157599925994873046875</LongitudeDegrees>
            </Position>
            <AltitudeMeters>32.200000762939453125</AltitudeMeters>
            <DistanceMeters>NAN</DistanceMeters>
          </Trackpoint>
          <Trackpoint>
            <Time>2022-07-11T12:40:43.000Z</Time>
            <Position>
              <LatitudeDegrees>43.31425837241113185882568359375</LatitudeDegrees>
              <LongitudeDegrees>-2.67888148315250873565673828125</LongitudeDegrees>
            </Position>
            <AltitudeMeters>32.59999847412109375</AltitudeMeters>
            <DistanceMeters>NAN</DistanceMeters>
          </Trackpoint>
          <Trackpoint>
            <Time>2022-07-11T12:40:44.000Z</Time>
            <Position>
              <LatitudeDegrees>43.3142619766294956207275390625</LatitudeDegrees>
              <LongitudeDegrees>-2.67890763469040393829345703125</LongitudeDegrees>
            </Position>
            <AltitudeMeters>32.799999237060546875</AltitudeMeters>
            <DistanceMeters>NAN</DistanceMeters>
          </Trackpoint>
          <Trackpoint>
            <Time>2022-07-11T12:40:46.000Z</Time>
            <Position>
              <LatitudeDegrees>43.31427790224552154541015625</LatitudeDegrees>
              <LongitudeDegrees>-2.6789529807865619659423828125</LongitudeDegrees>
            </Position>
            <AltitudeMeters>33.40000152587890625</AltitudeMeters>
            <DistanceMeters>NAN</DistanceMeters>
          </Trackpoint>
          <Trackpoint>
            <Time>2022-07-11T12:40:48.000Z</Time>
            <Position>
              <LatitudeDegrees>43.31429491750895977020263671875</LatitudeDegrees>
              <LongitudeDegrees>-2.6789972372353076934814453125</LongitudeDegrees>
            </Position>
            <AltitudeMeters>33.59999847412109375</AltitudeMeters>
            <DistanceMeters>NAN</DistanceMeters>
          </Trackpoint>
          <Trackpoint>
            <Time>2022-07-11T12:40:49.000Z</Time>
            <Position>
              <LatitudeDegrees>43.31430681981146335601806640625</LatitudeDegrees>
              <LongitudeDegrees>-2.6790166832506656646728515625</LongitudeDegrees>
            </Position>
            <AltitudeMeters>33.799999237060546875</AltitudeMeters>
            <DistanceMeters>NAN</DistanceMeters>
          </Trackpoint>
          <Trackpoint>
            <Time>2022-07-11T12:40:50.000Z</Time>
            <Position>
              <LatitudeDegrees>43.314308412373065948486328125</LatitudeDegrees>
              <LongitudeDegrees>-2.67903906293213367462158203125</LongitudeDegrees>
            </Position>
            <AltitudeMeters>34</AltitudeMeters>
            <DistanceMeters>NAN</DistanceMeters>
          </Trackpoint>
          <Trackpoint>
            <Time>2022-07-11T12:40:53.000Z</Time>
            <Position>
              <LatitudeDegrees>43.3143213205039501190185546875</LatitudeDegrees>
              <LongitudeDegrees>-2.67910762690007686614990234375</LongitudeDegrees>
            </Position>
            <AltitudeMeters>35</AltitudeMeters>
            <DistanceMeters>NAN</DistanceMeters>
          </Trackpoint>
          <Trackpoint>
            <Time>2022-07-11T12:40:54.000Z</Time>
            <Position>
              <LatitudeDegrees>43.31432140432298183441162109375</LatitudeDegrees>
              <LongitudeDegrees>-2.67912916839122772216796875</LongitudeDegrees>
            </Position>
            <AltitudeMeters>35.200000762939453125</AltitudeMeters>
            <DistanceMeters>NAN</DistanceMeters>
          </Trackpoint>
          <Trackpoint>
            <Time>2022-07-11T12:40:56.000Z</Time>
            <Position>
              <LatitudeDegrees>43.3143266849219799041748046875</LatitudeDegrees>
              <LongitudeDegrees>-2.67916613258421421051025390625</LongitudeDegrees>
            </Position>
            <AltitudeMeters>35.59999847412109375</AltitudeMeters>
            <DistanceMeters>NAN</DistanceMeters>
          </Trackpoint>
          <Trackpoint>
            <Time>2022-07-11T12:40:59.000Z</Time>
            <Position>
              <LatitudeDegrees>43.31427848897874355316162109375</LatitudeDegrees>
              <LongitudeDegrees>-2.6792275719344615936279296875</LongitudeDegrees>
            </Position>
            <AltitudeMeters>35.799999237060546875</AltitudeMeters>
            <DistanceMeters>NAN</DistanceMeters>
          </Trackpoint>
          <Trackpoint>
            <Time>2022-07-11T12:41:00.000Z</Time>
            <Position>
              <LatitudeDegrees>43.31426574848592281341552734375</LatitudeDegrees>
              <LongitudeDegrees>-2.67924542538821697235107421875</LongitudeDegrees>
            </Position>
            <AltitudeMeters>36</AltitudeMeters>
            <DistanceMeters>NAN</DistanceMeters>
          </Trackpoint>
          <Trackpoint>
            <Time>2022-07-11T12:41:03.000Z</Time>
            <Position>
              <LatitudeDegrees>43.31422291696071624755859375</LatitudeDegrees>
              <LongitudeDegrees>-2.67926738597452640533447265625</LongitudeDegrees>
            </Position>
            <AltitudeMeters>36.59999847412109375</AltitudeMeters>
            <DistanceMeters>NAN</DistanceMeters>
          </Trackpoint>
          <Trackpoint>
            <Time>2022-07-11T12:41:04.000Z</Time>
            <Position>
              <LatitudeDegrees>43.31420908682048320770263671875</LatitudeDegrees>
              <LongitudeDegrees>-2.679274342954158782958984375</LongitudeDegrees>
            </Position>
            <AltitudeMeters>36.799999237060546875</AltitudeMeters>
            <DistanceMeters>NAN</DistanceMeters>
          </Trackpoint>
          <Trackpoint>
            <Time>2022-07-11T12:41:05.000Z</Time>
            <Position>
              <LatitudeDegrees>43.314195089042186737060546875</LatitudeDegrees>
              <LongitudeDegrees>-2.67927945591509342193603515625</LongitudeDegrees>
            </Position>
            <AltitudeMeters>37.200000762939453125</AltitudeMeters>
            <DistanceMeters>NAN</DistanceMeters>
          </Trackpoint>
          <Trackpoint>
            <Time>2022-07-11T12:41:06.000Z</Time>
            <Position>
              <LatitudeDegrees>43.3141764812171459197998046875</LatitudeDegrees>
              <LongitudeDegrees>-2.67928901128470897674560546875</LongitudeDegrees>
            </Position>
            <AltitudeMeters>37.40000152587890625</AltitudeMeters>
            <DistanceMeters>NAN</DistanceMeters>
          </Trackpoint>
          <Trackpoint>
            <Time>2022-07-11T12:41:08.000Z</Time>
            <Position>
              <LatitudeDegrees>43.314155526459217071533203125</LatitudeDegrees>
              <LongitudeDegrees>-2.67932555638253688812255859375</LongitudeDegrees>
            </Position>
            <AltitudeMeters>37.59999847412109375</AltitudeMeters>
            <DistanceMeters>NAN</DistanceMeters>
          </Trackpoint>
          <Trackpoint>
            <Time>2022-07-11T12:41:09.000Z</Time>
            <Position>
              <LatitudeDegrees>43.31415225751698017120361328125</LatitudeDegrees>
              <LongitudeDegrees>-2.67934567295014858245849609375</LongitudeDegrees>
            </Position>
            <AltitudeMeters>37.799999237060546875</AltitudeMeters>
            <DistanceMeters>NAN</DistanceMeters>
          </Trackpoint>
          <Trackpoint>
            <Time>2022-07-11T12:41:12.000Z</Time>
            <Position>
              <LatitudeDegrees>43.314166925847530364990234375</LatitudeDegrees>
              <LongitudeDegrees>-2.67938305623829364776611328125</LongitudeDegrees>
            </Position>
            <AltitudeMeters>37.799999237060546875</AltitudeMeters>
            <DistanceMeters>NAN</DistanceMeters>
          </Trackpoint>
          <Trackpoint>
            <Time>2022-07-11T12:41:13.000Z</Time>
            <Position>
              <LatitudeDegrees>43.3141798339784145355224609375</LatitudeDegrees>
              <LongitudeDegrees>-2.6793871633708477020263671875</LongitudeDegrees>
            </Position>
            <AltitudeMeters>37.799999237060546875</AltitudeMeters>
            <DistanceMeters>NAN</DistanceMeters>
          </Trackpoint>
          <Trackpoint>
            <Time>2022-07-11T12:41:19.000Z</Time>
            <Position>
              <LatitudeDegrees>43.314262814819812774658203125</LatitudeDegrees>
              <LongitudeDegrees>-2.6794619299471378326416015625</LongitudeDegrees>
            </Position>
            <AltitudeMeters>37.59999847412109375</AltitudeMeters>
            <DistanceMeters>NAN</DistanceMeters>
          </Trackpoint>
          <Trackpoint>
            <Time>2022-07-11T12:41:24.000Z</Time>
            <Position>
              <LatitudeDegrees>43.31430380232632160186767578125</LatitudeDegrees>
              <LongitudeDegrees>-2.67950425855815410614013671875</LongitudeDegrees>
            </Position>
            <AltitudeMeters>37.59999847412109375</AltitudeMeters>
            <DistanceMeters>NAN</DistanceMeters>
          </Trackpoint>
          <Trackpoint>
            <Time>2022-07-11T12:41:28.000Z</Time>
            <Position>
              <LatitudeDegrees>43.3143134415149688720703125</LatitudeDegrees>
              <LongitudeDegrees>-2.6795138977468013763427734375</LongitudeDegrees>
            </Position>
            <AltitudeMeters>37.59999847412109375</AltitudeMeters>
            <DistanceMeters>NAN</DistanceMeters>
          </Trackpoint>
          <Trackpoint>
            <Time>2022-07-11T12:41:41.000Z</Time>
            <Position>
              <LatitudeDegrees>43.31434319727122783660888671875</LatitudeDegrees>
              <LongitudeDegrees>-2.67952487803995609283447265625</LongitudeDegrees>
            </Position>
            <AltitudeMeters>37.40000152587890625</AltitudeMeters>
            <DistanceMeters>NAN</DistanceMeters>
          </Trackpoint>
          <Trackpoint>
            <Time>2022-07-11T12:41:42.000Z</Time>
            <Position>
              <LatitudeDegrees>43.3143672533333301544189453125</LatitudeDegrees>
              <LongitudeDegrees>-2.6795286498963832855224609375</LongitudeDegrees>
            </Position>
            <AltitudeMeters>37.40000152587890625</AltitudeMeters>
            <DistanceMeters>NAN</DistanceMeters>
          </Trackpoint>
          <Trackpoint>
            <Time>2022-07-11T12:41:46.000Z</Time>
            <Position>
              <LatitudeDegrees>43.31442140042781829833984375</LatitudeDegrees>
              <LongitudeDegrees>-2.679590173065662384033203125</LongitudeDegrees>
            </Position>
            <AltitudeMeters>37</AltitudeMeters>
            <DistanceMeters>NAN</DistanceMeters>
          </Trackpoint>
          <Trackpoint>
            <Time>2022-07-11T12:41:48.000Z</Time>
            <Position>
              <LatitudeDegrees>43.31442542374134063720703125</LatitudeDegrees>
              <LongitudeDegrees>-2.6795963756740093231201171875</LongitudeDegrees>
            </Position>
            <AltitudeMeters>37</AltitudeMeters>
            <DistanceMeters>NAN</DistanceMeters>
          </Trackpoint>
          <Trackpoint>
            <Time>2022-07-11T12:44:08.000Z</Time>
            <Position>
              <LatitudeDegrees>43.314321823418140411376953125</LatitudeDegrees>
              <LongitudeDegrees>-2.6795548014342784881591796875</LongitudeDegrees>
            </Position>
            <AltitudeMeters>37.59999847412109375</AltitudeMeters>
            <DistanceMeters>NAN</DistanceMeters>
          </Trackpoint>
          <Trackpoint>
            <Time>2022-07-11T12:44:09.000Z</Time>
            <Position>
              <LatitudeDegrees>43.314306735992431640625</LatitudeDegrees>
              <LongitudeDegrees>-2.67954767681658267974853515625</LongitudeDegrees>
            </Position>
            <AltitudeMeters>37.59999847412109375</AltitudeMeters>
            <DistanceMeters>NAN</DistanceMeters>
          </Trackpoint>
          <Trackpoint>
            <Time>2022-07-11T12:44:10.000Z</Time>
            <Position>
              <LatitudeDegrees>43.3142955042421817779541015625</LatitudeDegrees>
              <LongitudeDegrees>-2.6795373670756816864013671875</LongitudeDegrees>
            </Position>
            <AltitudeMeters>38</AltitudeMeters>
            <DistanceMeters>NAN</DistanceMeters>
          </Trackpoint>
          <Trackpoint>
            <Time>2022-07-11T12:44:13.000Z</Time>
            <Position>
              <LatitudeDegrees>43.3142745494842529296875</LatitudeDegrees>
              <LongitudeDegrees>-2.679476849734783172607421875</LongitudeDegrees>
            </Position>
            <AltitudeMeters>38.200000762939453125</AltitudeMeters>
            <DistanceMeters>NAN</DistanceMeters>
          </Trackpoint>
          <Trackpoint>
            <Time>2022-07-11T12:44:14.000Z</Time>
            <Position>
              <LatitudeDegrees>43.31427362747490406036376953125</LatitudeDegrees>
              <LongitudeDegrees>-2.67947173677384853363037109375</LongitudeDegrees>
            </Position>
            <AltitudeMeters>38.200000762939453125</AltitudeMeters>
            <DistanceMeters>NAN</DistanceMeters>
          </Trackpoint>
          <Trackpoint>
            <Time>2022-07-11T12:44:15.000Z</Time>
            <Position>
              <LatitudeDegrees>43.3142834343016147613525390625</LatitudeDegrees>
              <LongitudeDegrees>-2.6794733293354511260986328125</LongitudeDegrees>
            </Position>
            <AltitudeMeters>38.200000762939453125</AltitudeMeters>
            <DistanceMeters>NAN</DistanceMeters>
          </Trackpoint>
          <Trackpoint>
            <Time>2022-07-11T12:44:16.000Z</Time>
            <Position>
              <LatitudeDegrees>43.31428620032966136932373046875</LatitudeDegrees>
              <LongitudeDegrees>-2.6794713176786899566650390625</LongitudeDegrees>
            </Position>
            <AltitudeMeters>38</AltitudeMeters>
            <DistanceMeters>NAN</DistanceMeters>
          </Trackpoint>
          <Trackpoint>
            <Time>2022-07-11T12:44:18.000Z</Time>
            <Position>
              <LatitudeDegrees>43.314281590282917022705078125</LatitudeDegrees>
              <LongitudeDegrees>-2.67945212312042713165283203125</LongitudeDegrees>
            </Position>
            <AltitudeMeters>38</AltitudeMeters>
            <DistanceMeters>NAN</DistanceMeters>
          </Trackpoint>
          <Trackpoint>
            <Time>2022-07-11T12:44:20.000Z</Time>
            <Position>
              <LatitudeDegrees>43.3142693527042865753173828125</LatitudeDegrees>
              <LongitudeDegrees>-2.6794126443564891815185546875</LongitudeDegrees>
            </Position>
            <AltitudeMeters>38</AltitudeMeters>
            <DistanceMeters>NAN</DistanceMeters>
          </Trackpoint>
          <Trackpoint>
            <Time>2022-07-11T12:44:27.000Z</Time>
            <Position>
              <LatitudeDegrees>43.3141684345901012420654296875</LatitudeDegrees>
              <LongitudeDegrees>-2.6792959682643413543701171875</LongitudeDegrees>
            </Position>
            <AltitudeMeters>38.59999847412109375</AltitudeMeters>
            <DistanceMeters>NAN</DistanceMeters>
          </Trackpoint>
          <Trackpoint>
            <Time>2022-07-11T12:44:29.000Z</Time>
            <Position>
              <LatitudeDegrees>43.31413951702415943145751953125</LatitudeDegrees>
              <LongitudeDegrees>-2.67927668988704681396484375</LongitudeDegrees>
            </Position>
            <AltitudeMeters>38.59999847412109375</AltitudeMeters>
            <DistanceMeters>NAN</DistanceMeters>
          </Trackpoint>
          <Trackpoint>
            <Time>2022-07-11T12:44:31.000Z</Time>
            <Position>
              <LatitudeDegrees>43.31411722116172313690185546875</LatitudeDegrees>
              <LongitudeDegrees>-2.67925095744431018829345703125</LongitudeDegrees>
            </Position>
            <AltitudeMeters>38.799999237060546875</AltitudeMeters>
            <DistanceMeters>NAN</DistanceMeters>
          </Trackpoint>
          <Trackpoint>
            <Time>2022-07-11T12:44:33.000Z</Time>
            <Position>
              <LatitudeDegrees>43.314095847308635711669921875</LatitudeDegrees>
              <LongitudeDegrees>-2.67922145314514636993408203125</LongitudeDegrees>
            </Position>
            <AltitudeMeters>38.799999237060546875</AltitudeMeters>
            <DistanceMeters>NAN</DistanceMeters>
          </Trackpoint>
          <Trackpoint>
            <Time>2022-07-11T12:44:36.000Z</Time>
            <Position>
              <LatitudeDegrees>43.31405150704085826873779296875</LatitudeDegrees>
              <LongitudeDegrees>-2.67921005375683307647705078125</LongitudeDegrees>
            </Position>
            <AltitudeMeters>39.40000152587890625</AltitudeMeters>
            <DistanceMeters>NAN</DistanceMeters>
          </Trackpoint>
          <Trackpoint>
            <Time>2022-07-11T12:44:39.000Z</Time>
            <Position>
              <LatitudeDegrees>43.31400490365922451019287109375</LatitudeDegrees>
              <LongitudeDegrees>-2.67921256832778453826904296875</LongitudeDegrees>
            </Position>
            <AltitudeMeters>39.59999847412109375</AltitudeMeters>
            <DistanceMeters>NAN</DistanceMeters>
          </Trackpoint>
          <Trackpoint>
            <Time>2022-07-11T12:44:46.000Z</Time>
            <Position>
              <LatitudeDegrees>43.3139039017260074615478515625</LatitudeDegrees>
              <LongitudeDegrees>-2.67922597937285900115966796875</LongitudeDegrees>
            </Position>
            <AltitudeMeters>40</AltitudeMeters>
            <DistanceMeters>NAN</DistanceMeters>
          </Trackpoint>
          <Trackpoint>
            <Time>2022-07-11T12:44:48.000Z</Time>
            <Position>
              <LatitudeDegrees>43.31387096084654331207275390625</LatitudeDegrees>
              <LongitudeDegrees>-2.67922279424965381622314453125</LongitudeDegrees>
            </Position>
            <AltitudeMeters>40.200000762939453125</AltitudeMeters>
            <DistanceMeters>NAN</DistanceMeters>
          </Trackpoint>
          <Trackpoint>
            <Time>2022-07-11T12:44:50.000Z</Time>
            <Position>
              <LatitudeDegrees>43.313842378556728363037109375</LatitudeDegrees>
              <LongitudeDegrees>-2.67921692691743373870849609375</LongitudeDegrees>
            </Position>
            <AltitudeMeters>40.200000762939453125</AltitudeMeters>
            <DistanceMeters>NAN</DistanceMeters>
          </Trackpoint>
          <Trackpoint>
            <Time>2022-07-11T12:44:52.000Z</Time>
            <Position>
              <LatitudeDegrees>43.31381857395172119140625</LatitudeDegrees>
              <LongitudeDegrees>-2.67922128550708293914794921875</LongitudeDegrees>
            </Position>
            <AltitudeMeters>40.40000152587890625</AltitudeMeters>
            <DistanceMeters>NAN</DistanceMeters>
          </Trackpoint>
          <Trackpoint>
            <Time>2022-07-11T12:44:54.000Z</Time>
            <Position>
              <LatitudeDegrees>43.3137932606041431427001953125</LatitudeDegrees>
              <LongitudeDegrees>-2.67924190498888492584228515625</LongitudeDegrees>
            </Position>
            <AltitudeMeters>40.40000152587890625</AltitudeMeters>
            <DistanceMeters>NAN</DistanceMeters>
          </Trackpoint>
          <Trackpoint>
            <Time>2022-07-11T12:44:59.000Z</Time>
            <Position>
              <LatitudeDegrees>43.3137151412665843963623046875</LatitudeDegrees>
              <LongitudeDegrees>-2.67926168628036975860595703125</LongitudeDegrees>
            </Position>
            <AltitudeMeters>40.40000152587890625</AltitudeMeters>
            <DistanceMeters>NAN</DistanceMeters>
          </Trackpoint>
          <Trackpoint>
            <Time>2022-07-11T12:45:01.000Z</Time>
            <Position>
              <LatitudeDegrees>43.31368102692067623138427734375</LatitudeDegrees>
              <LongitudeDegrees>-2.67925498075783252716064453125</LongitudeDegrees>
            </Position>
            <AltitudeMeters>40.59999847412109375</AltitudeMeters>
            <DistanceMeters>NAN</DistanceMeters>
          </Trackpoint>
          <Trackpoint>
            <Time>2022-07-11T12:45:07.000Z</Time>
            <Position>
              <LatitudeDegrees>43.31362880766391754150390625</LatitudeDegrees>
              <LongitudeDegrees>-2.67926587723195552825927734375</LongitudeDegrees>
            </Position>
            <AltitudeMeters>41</AltitudeMeters>
            <DistanceMeters>NAN</DistanceMeters>
          </Trackpoint>
          <Trackpoint>
            <Time>2022-07-11T12:45:09.000Z</Time>
            <Position>
              <LatitudeDegrees>43.31361631862819194793701171875</LatitudeDegrees>
              <LongitudeDegrees>-2.67927979119122028350830078125</LongitudeDegrees>
            </Position>
            <AltitudeMeters>41</AltitudeMeters>
            <DistanceMeters>NAN</DistanceMeters>
          </Trackpoint>
          <Trackpoint>
            <Time>2022-07-11T12:45:14.000Z</Time>
            <Position>
              <LatitudeDegrees>43.31357608549296855926513671875</LatitudeDegrees>
              <LongitudeDegrees>-2.67925950698554515838623046875</LongitudeDegrees>
            </Position>
            <AltitudeMeters>41</AltitudeMeters>
            <DistanceMeters>NAN</DistanceMeters>
          </Trackpoint>
          <Trackpoint>
            <Time>2022-07-11T12:45:18.000Z</Time>
            <Position>
              <LatitudeDegrees>43.31349628977477550506591796875</LatitudeDegrees>
              <LongitudeDegrees>-2.67924039624631404876708984375</LongitudeDegrees>
            </Position>
            <AltitudeMeters>41.200000762939453125</AltitudeMeters>
            <DistanceMeters>NAN</DistanceMeters>
          </Trackpoint>
          <Trackpoint>
            <Time>2022-07-11T12:45:19.000Z</Time>
            <Position>
              <LatitudeDegrees>43.313478268682956695556640625</LatitudeDegrees>
              <LongitudeDegrees>-2.67923570238053798675537109375</LongitudeDegrees>
            </Position>
            <AltitudeMeters>41.200000762939453125</AltitudeMeters>
            <DistanceMeters>NAN</DistanceMeters>
          </Trackpoint>
          <Trackpoint>
            <Time>2022-07-11T12:45:20.000Z</Time>
            <Position>
              <LatitudeDegrees>43.3134636841714382171630859375</LatitudeDegrees>
              <LongitudeDegrees>-2.6792299188673496246337890625</LongitudeDegrees>
            </Position>
            <AltitudeMeters>41.200000762939453125</AltitudeMeters>
            <DistanceMeters>NAN</DistanceMeters>
          </Trackpoint>
          <Trackpoint>
            <Time>2022-07-11T12:45:23.000Z</Time>
            <Position>
              <LatitudeDegrees>43.31340475939214229583740234375</LatitudeDegrees>
              <LongitudeDegrees>-2.6792275719344615936279296875</LongitudeDegrees>
            </Position>
            <AltitudeMeters>41.40000152587890625</AltitudeMeters>
            <DistanceMeters>NAN</DistanceMeters>
          </Trackpoint>
          <Trackpoint>
            <Time>2022-07-11T12:45:25.000Z</Time>
            <Position>
              <LatitudeDegrees>43.31336536444723606109619140625</LatitudeDegrees>
              <LongitudeDegrees>-2.679220698773860931396484375</LongitudeDegrees>
            </Position>
            <AltitudeMeters>41.200000762939453125</AltitudeMeters>
            <DistanceMeters>NAN</DistanceMeters>
          </Trackpoint>
          <Trackpoint>
            <Time>2022-07-11T12:45:27.000Z</Time>
            <Position>
              <LatitudeDegrees>43.31333653070032596588134765625</LatitudeDegrees>
              <LongitudeDegrees>-2.6791963912546634674072265625</LongitudeDegrees>
            </Position>
            <AltitudeMeters>41.200000762939453125</AltitudeMeters>
            <DistanceMeters>NAN</DistanceMeters>
          </Trackpoint>
          <Trackpoint>
            <Time>2022-07-11T12:45:30.000Z</Time>
            <Position>
              <LatitudeDegrees>43.3133089542388916015625</LatitudeDegrees>
              <LongitudeDegrees>-2.67915925942361354827880859375</LongitudeDegrees>
            </Position>
            <AltitudeMeters>41</AltitudeMeters>
            <DistanceMeters>NAN</DistanceMeters>
          </Trackpoint>
          <Trackpoint>
            <Time>2022-07-11T12:45:31.000Z</Time>
            <Position>
              <LatitudeDegrees>43.31329629756510257720947265625</LatitudeDegrees>
              <LongitudeDegrees>-2.67915355972945690155029296875</LongitudeDegrees>
            </Position>
            <AltitudeMeters>41</AltitudeMeters>
            <DistanceMeters>NAN</DistanceMeters>
          </Trackpoint>
          <Trackpoint>
            <Time>2022-07-11T12:45:35.000Z</Time>
            <Position>
              <LatitudeDegrees>43.31323988735675811767578125</LatitudeDegrees>
              <LongitudeDegrees>-2.67913780175149440765380859375</LongitudeDegrees>
            </Position>
            <AltitudeMeters>41</AltitudeMeters>
            <DistanceMeters>NAN</DistanceMeters>
          </Trackpoint>
          <Trackpoint>
            <Time>2022-07-11T12:45:36.000Z</Time>
            <Position>
              <LatitudeDegrees>43.31323360092937946319580078125</LatitudeDegrees>
              <LongitudeDegrees>-2.67913587391376495361328125</LongitudeDegrees>
            </Position>
            <AltitudeMeters>41</AltitudeMeters>
            <DistanceMeters>NAN</DistanceMeters>
          </Trackpoint>
          <Trackpoint>
            <Time>2022-07-11T12:45:38.000Z</Time>
            <Position>
              <LatitudeDegrees>43.31323158927261829376220703125</LatitudeDegrees>
              <LongitudeDegrees>-2.67913646064698696136474609375</LongitudeDegrees>
            </Position>
            <AltitudeMeters>40.799999237060546875</AltitudeMeters>
            <DistanceMeters>NAN</DistanceMeters>
          </Trackpoint>
          <Trackpoint>
            <Time>2022-07-11T12:56:07.000Z</Time>
            <Position>
              <LatitudeDegrees>43.31316084600985050201416015625</LatitudeDegrees>
              <LongitudeDegrees>-2.67910947091877460479736328125</LongitudeDegrees>
            </Position>
            <AltitudeMeters>42.200000762939453125</AltitudeMeters>
            <DistanceMeters>NAN</DistanceMeters>
          </Trackpoint>
          <Trackpoint>
            <Time>2022-07-11T12:56:08.000Z</Time>
            <Position>
              <LatitudeDegrees>43.31315866671502590179443359375</LatitudeDegrees>
              <LongitudeDegrees>-2.6791083812713623046875</LongitudeDegrees>
            </Position>
            <AltitudeMeters>42.200000762939453125</AltitudeMeters>
            <DistanceMeters>NAN</DistanceMeters>
          </Trackpoint>
          <Trackpoint>
            <Time>2022-07-11T12:56:09.000Z</Time>
            <Position>
              <LatitudeDegrees>43.3131569065153598785400390625</LatitudeDegrees>
              <LongitudeDegrees>-2.679105699062347412109375</LongitudeDegrees>
            </Position>
            <AltitudeMeters>42.200000762939453125</AltitudeMeters>
            <DistanceMeters>NAN</DistanceMeters>
          </Trackpoint>
          <Trackpoint>
            <Time>2022-07-11T13:05:17.000Z</Time>
            <Position>
              <LatitudeDegrees>43.3131864108145236968994140625</LatitudeDegrees>
              <LongitudeDegrees>-2.67913411371409893035888671875</LongitudeDegrees>
            </Position>
            <AltitudeMeters>41.59999847412109375</AltitudeMeters>
            <DistanceMeters>NAN</DistanceMeters>
          </Trackpoint>
          <Trackpoint>
            <Time>2022-07-11T13:05:19.000Z</Time>
            <Position>
              <LatitudeDegrees>43.3131944574415683746337890625</LatitudeDegrees>
              <LongitudeDegrees>-2.67913646064698696136474609375</LongitudeDegrees>
            </Position>
            <AltitudeMeters>41.59999847412109375</AltitudeMeters>
            <DistanceMeters>NAN</DistanceMeters>
          </Trackpoint>
          <Trackpoint>
            <Time>2022-07-11T13:33:55.000Z</Time>
            <Position>
              <LatitudeDegrees>43.31315967254340648651123046875</LatitudeDegrees>
              <LongitudeDegrees>-2.67911315895617008209228515625</LongitudeDegrees>
            </Position>
            <AltitudeMeters>40.799999237060546875</AltitudeMeters>
            <DistanceMeters>NAN</DistanceMeters>
          </Trackpoint>
          <Trackpoint>
            <Time>2022-07-11T13:33:56.000Z</Time>
            <Position>
              <LatitudeDegrees>43.3131372928619384765625</LatitudeDegrees>
              <LongitudeDegrees>-2.67911215312778949737548828125</LongitudeDegrees>
            </Position>
            <AltitudeMeters>40.799999237060546875</AltitudeMeters>
            <DistanceMeters>NAN</DistanceMeters>
          </Trackpoint>
          <Trackpoint>
            <Time>2022-07-11T13:34:00.000Z</Time>
            <Position>
              <LatitudeDegrees>43.3130771107971668243408203125</LatitudeDegrees>
              <LongitudeDegrees>-2.6790770329535007476806640625</LongitudeDegrees>
            </Position>
            <AltitudeMeters>40.799999237060546875</AltitudeMeters>
            <DistanceMeters>NAN</DistanceMeters>
          </Trackpoint>
          <Trackpoint>
            <Time>2022-07-11T13:34:02.000Z</Time>
            <Position>
              <LatitudeDegrees>43.313095383346080780029296875</LatitudeDegrees>
              <LongitudeDegrees>-2.67906605266034603118896484375</LongitudeDegrees>
            </Position>
            <AltitudeMeters>40.40000152587890625</AltitudeMeters>
            <DistanceMeters>NAN</DistanceMeters>
          </Trackpoint>
          <Trackpoint>
            <Time>2022-07-11T13:34:03.000Z</Time>
            <Position>
              <LatitudeDegrees>43.31311156041920185089111328125</LatitudeDegrees>
              <LongitudeDegrees>-2.67907208763062953948974609375</LongitudeDegrees>
            </Position>
            <AltitudeMeters>40.200000762939453125</AltitudeMeters>
            <DistanceMeters>NAN</DistanceMeters>
          </Trackpoint>
          <Trackpoint>
            <Time>2022-07-11T13:34:04.000Z</Time>
            <Position>
              <LatitudeDegrees>43.31312664784491062164306640625</LatitudeDegrees>
              <LongitudeDegrees>-2.6790790446102619171142578125</LongitudeDegrees>
            </Position>
            <AltitudeMeters>40.200000762939453125</AltitudeMeters>
            <DistanceMeters>NAN</DistanceMeters>
          </Trackpoint>
          <Trackpoint>
            <Time>2022-07-11T13:34:05.000Z</Time>
            <Position>
              <LatitudeDegrees>43.3131421543657779693603515625</LatitudeDegrees>
              <LongitudeDegrees>-2.67908130772411823272705078125</LongitudeDegrees>
            </Position>
            <AltitudeMeters>40.200000762939453125</AltitudeMeters>
            <DistanceMeters>NAN</DistanceMeters>
          </Trackpoint>
          <Trackpoint>
            <Time>2022-07-11T13:34:07.000Z</Time>
            <Position>
              <LatitudeDegrees>43.3131709881126880645751953125</LatitudeDegrees>
              <LongitudeDegrees>-2.67909170128405094146728515625</LongitudeDegrees>
            </Position>
            <AltitudeMeters>40.40000152587890625</AltitudeMeters>
            <DistanceMeters>NAN</DistanceMeters>
          </Trackpoint>
          <Trackpoint>
            <Time>2022-07-11T13:34:08.000Z</Time>
            <Position>
              <LatitudeDegrees>43.31317978911101818084716796875</LatitudeDegrees>
              <LongitudeDegrees>-2.67909773625433444976806640625</LongitudeDegrees>
            </Position>
            <AltitudeMeters>42.200000762939453125</AltitudeMeters>
            <DistanceMeters>NAN</DistanceMeters>
          </Trackpoint>
          <Trackpoint>
            <Time>2022-07-11T13:34:10.000Z</Time>
            <Position>
              <LatitudeDegrees>43.313196636736392974853515625</LatitudeDegrees>
              <LongitudeDegrees>-2.67910963855683803558349609375</LongitudeDegrees>
            </Position>
            <AltitudeMeters>42.200000762939453125</AltitudeMeters>
            <DistanceMeters>NAN</DistanceMeters>
          </Trackpoint>
          <Trackpoint>
            <Time>2022-07-11T13:34:13.000Z</Time>
            <Position>
              <LatitudeDegrees>43.3131974749267101287841796875</LatitudeDegrees>
              <LongitudeDegrees>-2.67911617644131183624267578125</LongitudeDegrees>
            </Position>
            <AltitudeMeters>41.59999847412109375</AltitudeMeters>
            <DistanceMeters>NAN</DistanceMeters>
          </Trackpoint>
          <Trackpoint>
            <Time>2022-07-11T13:34:14.000Z</Time>
            <Position>
              <LatitudeDegrees>43.31319755874574184417724609375</LatitudeDegrees>
              <LongitudeDegrees>-2.6791182719171047210693359375</LongitudeDegrees>
            </Position>
            <AltitudeMeters>41.59999847412109375</AltitudeMeters>
            <DistanceMeters>NAN</DistanceMeters>
          </Trackpoint>
          <Trackpoint>
            <Time>2022-07-11T13:35:11.000Z</Time>
            <Position>
              <LatitudeDegrees>43.31321130506694316864013671875</LatitudeDegrees>
              <LongitudeDegrees>-2.6792305894196033477783203125</LongitudeDegrees>
            </Position>
            <AltitudeMeters>40.799999237060546875</AltitudeMeters>
            <DistanceMeters>NAN</DistanceMeters>
          </Trackpoint>
          <Trackpoint>
            <Time>2022-07-11T13:35:12.000Z</Time>
            <Position>
              <LatitudeDegrees>43.31321817822754383087158203125</LatitudeDegrees>
              <LongitudeDegrees>-2.67925179563462734222412109375</LongitudeDegrees>
            </Position>
            <AltitudeMeters>41</AltitudeMeters>
            <DistanceMeters>NAN</DistanceMeters>
          </Trackpoint>
          <Trackpoint>
            <Time>2022-07-11T13:35:13.000Z</Time>
            <Position>
              <LatitudeDegrees>43.31321817822754383087158203125</LatitudeDegrees>
              <LongitudeDegrees>-2.67925179563462734222412109375</LongitudeDegrees>
            </Position>
            <AltitudeMeters>41</AltitudeMeters>
            <DistanceMeters>NAN</DistanceMeters>
          </Trackpoint>
          <Trackpoint>
            <Time>2022-07-11T13:35:18.000Z</Time>
            <Position>
              <LatitudeDegrees>43.31325204111635684967041015625</LatitudeDegrees>
              <LongitudeDegrees>-2.6793150790035724639892578125</LongitudeDegrees>
            </Position>
            <AltitudeMeters>41</AltitudeMeters>
            <DistanceMeters>NAN</DistanceMeters>
          </Trackpoint>
          <Trackpoint>
            <Time>2022-07-11T13:35:24.000Z</Time>
            <Position>
              <LatitudeDegrees>43.31328774802386760711669921875</LatitudeDegrees>
              <LongitudeDegrees>-2.67929052002727985382080078125</LongitudeDegrees>
            </Position>
            <AltitudeMeters>41</AltitudeMeters>
            <DistanceMeters>NAN</DistanceMeters>
          </Trackpoint>
          <Trackpoint>
            <Time>2022-07-11T13:35:38.000Z</Time>
            <Position>
              <LatitudeDegrees>43.313229493796825408935546875</LatitudeDegrees>
              <LongitudeDegrees>-2.6791615225374698638916015625</LongitudeDegrees>
            </Position>
            <AltitudeMeters>41.200000762939453125</AltitudeMeters>
            <DistanceMeters>NAN</DistanceMeters>
          </Trackpoint>
          <Trackpoint>
            <Time>2022-07-11T13:35:41.000Z</Time>
            <Position>
              <LatitudeDegrees>43.31320862285792827606201171875</LatitudeDegrees>
              <LongitudeDegrees>-2.6791467703878879547119140625</LongitudeDegrees>
            </Position>
            <AltitudeMeters>41.200000762939453125</AltitudeMeters>
            <DistanceMeters>NAN</DistanceMeters>
          </Trackpoint>
          <Trackpoint>
            <Time>2022-07-11T13:35:43.000Z</Time>
            <Position>
              <LatitudeDegrees>43.31319018267095088958740234375</LatitudeDegrees>
              <LongitudeDegrees>-2.6791507937014102935791015625</LongitudeDegrees>
            </Position>
            <AltitudeMeters>41</AltitudeMeters>
            <DistanceMeters>NAN</DistanceMeters>
          </Trackpoint>
          <Trackpoint>
            <Time>2022-07-11T13:35:45.000Z</Time>
            <Position>
              <LatitudeDegrees>43.3131976425647735595703125</LatitudeDegrees>
              <LongitudeDegrees>-2.67915825359523296356201171875</LongitudeDegrees>
            </Position>
            <AltitudeMeters>40.59999847412109375</AltitudeMeters>
            <DistanceMeters>NAN</DistanceMeters>
          </Trackpoint>
          <Trackpoint>
            <Time>2022-07-11T13:35:46.000Z</Time>
            <Position>
              <LatitudeDegrees>43.31319160759449005126953125</LatitudeDegrees>
              <LongitudeDegrees>-2.6791618578135967254638671875</LongitudeDegrees>
            </Position>
            <AltitudeMeters>40.59999847412109375</AltitudeMeters>
            <DistanceMeters>NAN</DistanceMeters>
          </Trackpoint>
          <Trackpoint>
            <Time>2022-07-11T13:40:12.000Z</Time>
            <Position>
              <LatitudeDegrees>43.3132001571357250213623046875</LatitudeDegrees>
              <LongitudeDegrees>-2.67921105958521366119384765625</LongitudeDegrees>
            </Position>
            <AltitudeMeters>41</AltitudeMeters>
            <DistanceMeters>NAN</DistanceMeters>
          </Trackpoint>
          <Trackpoint>
            <Time>2022-07-11T13:40:13.000Z</Time>
            <Position>
              <LatitudeDegrees>43.313210047781467437744140625</LatitudeDegrees>
              <LongitudeDegrees>-2.679226733744144439697265625</LongitudeDegrees>
            </Position>
            <AltitudeMeters>41</AltitudeMeters>
            <DistanceMeters>NAN</DistanceMeters>
          </Trackpoint>
          <Trackpoint>
            <Time>2022-07-11T13:40:15.000Z</Time>
            <Position>
              <LatitudeDegrees>43.3132363669574260711669921875</LatitudeDegrees>
              <LongitudeDegrees>-2.67924509011209011077880859375</LongitudeDegrees>
            </Position>
            <AltitudeMeters>41.200000762939453125</AltitudeMeters>
            <DistanceMeters>NAN</DistanceMeters>
          </Trackpoint>
          <Trackpoint>
            <Time>2022-07-11T13:40:21.000Z</Time>
            <Position>
              <LatitudeDegrees>43.3132779411971569061279296875</LatitudeDegrees>
              <LongitudeDegrees>-2.67926998436450958251953125</LongitudeDegrees>
            </Position>
            <AltitudeMeters>41.59999847412109375</AltitudeMeters>
            <DistanceMeters>NAN</DistanceMeters>
          </Trackpoint>
          <Trackpoint>
            <Time>2022-07-11T13:40:29.000Z</Time>
            <Position>
              <LatitudeDegrees>43.31323259510099887847900390625</LatitudeDegrees>
              <LongitudeDegrees>-2.679184488952159881591796875</LongitudeDegrees>
            </Position>
            <AltitudeMeters>41.40000152587890625</AltitudeMeters>
            <DistanceMeters>NAN</DistanceMeters>
          </Trackpoint>
          <Trackpoint>
            <Time>2022-07-11T13:40:30.000Z</Time>
            <Position>
              <LatitudeDegrees>43.31322857178747653961181640625</LatitudeDegrees>
              <LongitudeDegrees>-2.6791699044406414031982421875</LongitudeDegrees>
            </Position>
            <AltitudeMeters>41.200000762939453125</AltitudeMeters>
            <DistanceMeters>NAN</DistanceMeters>
          </Trackpoint>
          <Trackpoint>
            <Time>2022-07-11T13:40:32.000Z</Time>
            <Position>
              <LatitudeDegrees>43.31322823651134967803955078125</LatitudeDegrees>
              <LongitudeDegrees>-2.6791526377201080322265625</LongitudeDegrees>
            </Position>
            <AltitudeMeters>41</AltitudeMeters>
            <DistanceMeters>NAN</DistanceMeters>
          </Trackpoint>
          <Trackpoint>
            <Time>2022-07-11T13:40:33.000Z</Time>
            <Position>
              <LatitudeDegrees>43.3132263086736202239990234375</LatitudeDegrees>
              <LongitudeDegrees>-2.6791471056640148162841796875</LongitudeDegrees>
            </Position>
            <AltitudeMeters>40.799999237060546875</AltitudeMeters>
            <DistanceMeters>NAN</DistanceMeters>
          </Trackpoint>
          <Trackpoint>
            <Time>2022-07-11T13:41:45.000Z</Time>
            <Position>
              <LatitudeDegrees>43.3132403902709484100341796875</LatitudeDegrees>
              <LongitudeDegrees>-2.6791816391050815582275390625</LongitudeDegrees>
            </Position>
            <AltitudeMeters>40.59999847412109375</AltitudeMeters>
            <DistanceMeters>NAN</DistanceMeters>
          </Trackpoint>
          <Trackpoint>
            <Time>2022-07-11T13:41:47.000Z</Time>
            <Position>
              <LatitudeDegrees>43.31327207386493682861328125</LatitudeDegrees>
              <LongitudeDegrees>-2.6791933737695217132568359375</LongitudeDegrees>
            </Position>
            <AltitudeMeters>40.799999237060546875</AltitudeMeters>
            <DistanceMeters>NAN</DistanceMeters>
          </Trackpoint>
          <Trackpoint>
            <Time>2022-07-11T13:41:48.000Z</Time>
            <Position>
              <LatitudeDegrees>43.31328422762453556060791015625</LatitudeDegrees>
              <LongitudeDegrees>-2.67920837737619876861572265625</LongitudeDegrees>
            </Position>
            <AltitudeMeters>40.799999237060546875</AltitudeMeters>
            <DistanceMeters>NAN</DistanceMeters>
          </Trackpoint>
          <Trackpoint>
            <Time>2022-07-11T13:41:53.000Z</Time>
            <Position>
              <LatitudeDegrees>43.31333820708096027374267578125</LatitudeDegrees>
              <LongitudeDegrees>-2.679262273013591766357421875</LongitudeDegrees>
            </Position>
            <AltitudeMeters>41.200000762939453125</AltitudeMeters>
            <DistanceMeters>NAN</DistanceMeters>
          </Trackpoint>
          <Trackpoint>
            <Time>2022-07-11T13:41:58.000Z</Time>
            <Position>
              <LatitudeDegrees>43.31341230310499668121337890625</LatitudeDegrees>
              <LongitudeDegrees>-2.67928699962794780731201171875</LongitudeDegrees>
            </Position>
            <AltitudeMeters>41.40000152587890625</AltitudeMeters>
            <DistanceMeters>NAN</DistanceMeters>
          </Trackpoint>
          <Trackpoint>
            <Time>2022-07-11T13:42:00.000Z</Time>
            <Position>
              <LatitudeDegrees>43.31344817765057086944580078125</LatitudeDegrees>
              <LongitudeDegrees>-2.67928683198988437652587890625</LongitudeDegrees>
            </Position>
            <AltitudeMeters>41.40000152587890625</AltitudeMeters>
            <DistanceMeters>NAN</DistanceMeters>
          </Trackpoint>
          <Trackpoint>
            <Time>2022-07-11T13:42:01.000Z</Time>
            <Position>
              <LatitudeDegrees>43.31346142105758190155029296875</LatitudeDegrees>
              <LongitudeDegrees>-2.6792865805327892303466796875</LongitudeDegrees>
            </Position>
            <AltitudeMeters>41.40000152587890625</AltitudeMeters>
            <DistanceMeters>NAN</DistanceMeters>
          </Trackpoint>
          <Trackpoint>
            <Time>2022-07-11T13:42:03.000Z</Time>
            <Position>
              <LatitudeDegrees>43.3134928531944751739501953125</LatitudeDegrees>
              <LongitudeDegrees>-2.67929253168404102325439453125</LongitudeDegrees>
            </Position>
            <AltitudeMeters>41.59999847412109375</AltitudeMeters>
            <DistanceMeters>NAN</DistanceMeters>
          </Trackpoint>
          <Trackpoint>
            <Time>2022-07-11T13:42:06.000Z</Time>
            <Position>
              <LatitudeDegrees>43.3135488443076610565185546875</LatitudeDegrees>
              <LongitudeDegrees>-2.6792916096746921539306640625</LongitudeDegrees>
            </Position>
            <AltitudeMeters>41.59999847412109375</AltitudeMeters>
            <DistanceMeters>NAN</DistanceMeters>
          </Trackpoint>
          <Trackpoint>
            <Time>2022-07-11T13:42:09.000Z</Time>
            <Position>
              <LatitudeDegrees>43.31358396448194980621337890625</LatitudeDegrees>
              <LongitudeDegrees>-2.679287083446979522705078125</LongitudeDegrees>
            </Position>
            <AltitudeMeters>41.40000152587890625</AltitudeMeters>
            <DistanceMeters>NAN</DistanceMeters>
          </Trackpoint>
          <Trackpoint>
            <Time>2022-07-11T13:42:11.000Z</Time>
            <Position>
              <LatitudeDegrees>43.3135870657861232757568359375</LatitudeDegrees>
              <LongitudeDegrees>-2.6792800426483154296875</LongitudeDegrees>
            </Position>
            <AltitudeMeters>41</AltitudeMeters>
            <DistanceMeters>NAN</DistanceMeters>
          </Trackpoint>
          <Trackpoint>
            <Time>2022-07-11T13:43:36.000Z</Time>
            <Position>
              <LatitudeDegrees>43.31345840357244014739990234375</LatitudeDegrees>
              <LongitudeDegrees>-2.67921994440257549285888671875</LongitudeDegrees>
            </Position>
            <AltitudeMeters>40.200000762939453125</AltitudeMeters>
            <DistanceMeters>NAN</DistanceMeters>
          </Trackpoint>
          <Trackpoint>
            <Time>2022-07-11T13:43:37.000Z</Time>
            <Position>
              <LatitudeDegrees>43.31344817765057086944580078125</LatitudeDegrees>
              <LongitudeDegrees>-2.67921508289873600006103515625</LongitudeDegrees>
            </Position>
            <AltitudeMeters>40</AltitudeMeters>
            <DistanceMeters>NAN</DistanceMeters>
          </Trackpoint>
          <Trackpoint>
            <Time>2022-07-11T13:43:40.000Z</Time>
            <Position>
              <LatitudeDegrees>43.313413225114345550537109375</LatitudeDegrees>
              <LongitudeDegrees>-2.67919530160725116729736328125</LongitudeDegrees>
            </Position>
            <AltitudeMeters>40</AltitudeMeters>
            <DistanceMeters>NAN</DistanceMeters>
          </Trackpoint>
          <Trackpoint>
            <Time>2022-07-11T13:43:43.000Z</Time>
            <Position>
              <LatitudeDegrees>43.31336997449398040771484375</LatitudeDegrees>
              <LongitudeDegrees>-2.67916864715516567230224609375</LongitudeDegrees>
            </Position>
            <AltitudeMeters>40</AltitudeMeters>
            <DistanceMeters>NAN</DistanceMeters>
          </Trackpoint>
          <Trackpoint>
            <Time>2022-07-11T13:43:45.000Z</Time>
            <Position>
              <LatitudeDegrees>43.3133533783257007598876953125</LatitudeDegrees>
              <LongitudeDegrees>-2.6791454292833805084228515625</LongitudeDegrees>
            </Position>
            <AltitudeMeters>39.799999237060546875</AltitudeMeters>
            <DistanceMeters>NAN</DistanceMeters>
          </Trackpoint>
          <Trackpoint>
            <Time>2022-07-11T13:43:46.000Z</Time>
            <Position>
              <LatitudeDegrees>43.3133416436612606048583984375</LatitudeDegrees>
              <LongitudeDegrees>-2.67913763411343097686767578125</LongitudeDegrees>
            </Position>
            <AltitudeMeters>39.799999237060546875</AltitudeMeters>
            <DistanceMeters>NAN</DistanceMeters>
          </Trackpoint>
          <Trackpoint>
            <Time>2022-07-11T13:43:47.000Z</Time>
            <Position>
              <LatitudeDegrees>43.3133299089968204498291015625</LatitudeDegrees>
              <LongitudeDegrees>-2.6791284978389739990234375</LongitudeDegrees>
            </Position>
            <AltitudeMeters>39.59999847412109375</AltitudeMeters>
            <DistanceMeters>NAN</DistanceMeters>
          </Trackpoint>
          <Trackpoint>
            <Time>2022-07-11T13:43:52.000Z</Time>
            <Position>
              <LatitudeDegrees>43.31327282823622226715087890625</LatitudeDegrees>
              <LongitudeDegrees>-2.6790874265134334564208984375</LongitudeDegrees>
            </Position>
            <AltitudeMeters>39.40000152587890625</AltitudeMeters>
            <DistanceMeters>NAN</DistanceMeters>
          </Trackpoint>
          <Trackpoint>
            <Time>2022-07-11T13:43:57.000Z</Time>
            <Position>
              <LatitudeDegrees>43.3132263086736202239990234375</LatitudeDegrees>
              <LongitudeDegrees>-2.67907443456351757049560546875</LongitudeDegrees>
            </Position>
            <AltitudeMeters>39</AltitudeMeters>
            <DistanceMeters>NAN</DistanceMeters>
          </Trackpoint>
          <Trackpoint>
            <Time>2022-07-11T13:44:00.000Z</Time>
            <Position>
              <LatitudeDegrees>43.3132169209420680999755859375</LatitudeDegrees>
              <LongitudeDegrees>-2.6790860854089260101318359375</LongitudeDegrees>
            </Position>
            <AltitudeMeters>38.799999237060546875</AltitudeMeters>
            <DistanceMeters>NAN</DistanceMeters>
          </Trackpoint>
          <Trackpoint>
            <Time>2022-07-11T13:51:08.000Z</Time>
            <Position>
              <LatitudeDegrees>43.313250280916690826416015625</LatitudeDegrees>
              <LongitudeDegrees>-2.679160349071025848388671875</LongitudeDegrees>
            </Position>
            <AltitudeMeters>41.799999237060546875</AltitudeMeters>
            <DistanceMeters>NAN</DistanceMeters>
          </Trackpoint>
          <Trackpoint>
            <Time>2022-07-11T13:51:09.000Z</Time>
            <Position>
              <LatitudeDegrees>43.31327014602720737457275390625</LatitudeDegrees>
              <LongitudeDegrees>-2.67915909178555011749267578125</LongitudeDegrees>
            </Position>
            <AltitudeMeters>41.799999237060546875</AltitudeMeters>
            <DistanceMeters>NAN</DistanceMeters>
          </Trackpoint>
          <Trackpoint>
            <Time>2022-07-11T13:51:13.000Z</Time>
            <Position>
              <LatitudeDegrees>43.31336368806660175323486328125</LatitudeDegrees>
              <LongitudeDegrees>-2.67917652614414691925048828125</LongitudeDegrees>
            </Position>
            <AltitudeMeters>43</AltitudeMeters>
            <DistanceMeters>NAN</DistanceMeters>
          </Trackpoint>
          <Trackpoint>
            <Time>2022-07-11T13:51:14.000Z</Time>
            <Position>
              <LatitudeDegrees>43.31337860785424709320068359375</LatitudeDegrees>
              <LongitudeDegrees>-2.679193206131458282470703125</LongitudeDegrees>
            </Position>
            <AltitudeMeters>43</AltitudeMeters>
            <DistanceMeters>NAN</DistanceMeters>
          </Trackpoint>
          <Trackpoint>
            <Time>2022-07-11T13:51:16.000Z</Time>
            <Position>
              <LatitudeDegrees>43.3133879117667675018310546875</LatitudeDegrees>
              <LongitudeDegrees>-2.67923888750374317169189453125</LongitudeDegrees>
            </Position>
            <AltitudeMeters>43.200000762939453125</AltitudeMeters>
            <DistanceMeters>NAN</DistanceMeters>
          </Trackpoint>
          <Trackpoint>
            <Time>2022-07-11T13:51:18.000Z</Time>
            <Position>
              <LatitudeDegrees>43.31341682933270931243896484375</LatitudeDegrees>
              <LongitudeDegrees>-2.6792711578309535980224609375</LongitudeDegrees>
            </Position>
            <AltitudeMeters>43.200000762939453125</AltitudeMeters>
            <DistanceMeters>NAN</DistanceMeters>
          </Trackpoint>
          <Trackpoint>
            <Time>2022-07-11T13:51:20.000Z</Time>
            <Position>
              <LatitudeDegrees>43.3134444057941436767578125</LatitudeDegrees>
              <LongitudeDegrees>-2.67928850837051868438720703125</LongitudeDegrees>
            </Position>
            <AltitudeMeters>43</AltitudeMeters>
            <DistanceMeters>NAN</DistanceMeters>
          </Trackpoint>
          <Trackpoint>
            <Time>2022-07-11T13:51:23.000Z</Time>
            <Position>
              <LatitudeDegrees>43.3134925179183483123779296875</LatitudeDegrees>
              <LongitudeDegrees>-2.67933594994246959686279296875</LongitudeDegrees>
            </Position>
            <AltitudeMeters>43</AltitudeMeters>
            <DistanceMeters>NAN</DistanceMeters>
          </Trackpoint>
          <Trackpoint>
            <Time>2022-07-11T13:51:31.000Z</Time>
            <Position>
              <LatitudeDegrees>43.3136980421841144561767578125</LatitudeDegrees>
              <LongitudeDegrees>-2.6793335191905498504638671875</LongitudeDegrees>
            </Position>
            <AltitudeMeters>42.799999237060546875</AltitudeMeters>
            <DistanceMeters>NAN</DistanceMeters>
          </Trackpoint>
          <Trackpoint>
            <Time>2022-07-11T13:51:35.000Z</Time>
            <Position>
              <LatitudeDegrees>43.31385008990764617919921875</LatitudeDegrees>
              <LongitudeDegrees>-2.67931331880390644073486328125</LongitudeDegrees>
            </Position>
            <AltitudeMeters>42.200000762939453125</AltitudeMeters>
            <DistanceMeters>NAN</DistanceMeters>
          </Trackpoint>
          <Trackpoint>
            <Time>2022-07-11T13:51:36.000Z</Time>
            <Position>
              <LatitudeDegrees>43.31389560364186763763427734375</LatitudeDegrees>
              <LongitudeDegrees>-2.679312564432621002197265625</LongitudeDegrees>
            </Position>
            <AltitudeMeters>41.799999237060546875</AltitudeMeters>
            <DistanceMeters>NAN</DistanceMeters>
          </Trackpoint>
          <Trackpoint>
            <Time>2022-07-11T13:51:37.000Z</Time>
            <Position>
              <LatitudeDegrees>43.31394187174737453460693359375</LatitudeDegrees>
              <LongitudeDegrees>-2.67930963076651096343994140625</LongitudeDegrees>
            </Position>
            <AltitudeMeters>41.59999847412109375</AltitudeMeters>
            <DistanceMeters>NAN</DistanceMeters>
          </Trackpoint>
          <Trackpoint>
            <Time>2022-07-11T13:51:38.000Z</Time>
            <Position>
              <LatitudeDegrees>43.31398780457675457000732421875</LatitudeDegrees>
              <LongitudeDegrees>-2.67930476926267147064208984375</LongitudeDegrees>
            </Position>
            <AltitudeMeters>41.40000152587890625</AltitudeMeters>
            <DistanceMeters>NAN</DistanceMeters>
          </Trackpoint>
          <Trackpoint>
            <Time>2022-07-11T13:51:41.000Z</Time>
            <Position>
              <LatitudeDegrees>43.3141087554395198822021484375</LatitudeDegrees>
              <LongitudeDegrees>-2.6792865805327892303466796875</LongitudeDegrees>
            </Position>
            <AltitudeMeters>40.59999847412109375</AltitudeMeters>
            <DistanceMeters>NAN</DistanceMeters>
          </Trackpoint>
          <Trackpoint>
            <Time>2022-07-11T13:51:42.000Z</Time>
            <Position>
              <LatitudeDegrees>43.31414303742349147796630859375</LatitudeDegrees>
              <LongitudeDegrees>-2.67929303459823131561279296875</LongitudeDegrees>
            </Position>
            <AltitudeMeters>40</AltitudeMeters>
            <DistanceMeters>NAN</DistanceMeters>
          </Trackpoint>
          <Trackpoint>
            <Time>2022-07-11T13:51:44.000Z</Time>
            <Position>
              <LatitudeDegrees>43.31420456059277057647705078125</LatitudeDegrees>
              <LongitudeDegrees>-2.6792916096746921539306640625</LongitudeDegrees>
            </Position>
            <AltitudeMeters>39.59999847412109375</AltitudeMeters>
            <DistanceMeters>NAN</DistanceMeters>
          </Trackpoint>
          <Trackpoint>
            <Time>2022-07-11T13:51:45.000Z</Time>
            <Position>
              <LatitudeDegrees>43.31423372961580753326416015625</LatitudeDegrees>
              <LongitudeDegrees>-2.679266631603240966796875</LongitudeDegrees>
            </Position>
            <AltitudeMeters>39.40000152587890625</AltitudeMeters>
            <DistanceMeters>NAN</DistanceMeters>
          </Trackpoint>
          <Trackpoint>
            <Time>2022-07-11T13:51:46.000Z</Time>
            <Position>
              <LatitudeDegrees>43.31424697302281856536865234375</LatitudeDegrees>
              <LongitudeDegrees>-2.67922279424965381622314453125</LongitudeDegrees>
            </Position>
            <AltitudeMeters>39.40000152587890625</AltitudeMeters>
            <DistanceMeters>NAN</DistanceMeters>
          </Trackpoint>
          <Trackpoint>
            <Time>2022-07-11T13:51:48.000Z</Time>
            <Position>
              <LatitudeDegrees>43.3142425306141376495361328125</LatitudeDegrees>
              <LongitudeDegrees>-2.67909689806401729583740234375</LongitudeDegrees>
            </Position>
            <AltitudeMeters>39</AltitudeMeters>
            <DistanceMeters>NAN</DistanceMeters>
          </Trackpoint>
          <Trackpoint>
            <Time>2022-07-11T13:51:50.000Z</Time>
            <Position>
              <LatitudeDegrees>43.314233310520648956298828125</LatitudeDegrees>
              <LongitudeDegrees>-2.6789536513388156890869140625</LongitudeDegrees>
            </Position>
            <AltitudeMeters>38.40000152587890625</AltitudeMeters>
            <DistanceMeters>NAN</DistanceMeters>
          </Trackpoint>
          <Trackpoint>
            <Time>2022-07-11T13:51:51.000Z</Time>
            <Position>
              <LatitudeDegrees>43.3142274431884288787841796875</LatitudeDegrees>
              <LongitudeDegrees>-2.67887662164866924285888671875</LongitudeDegrees>
            </Position>
            <AltitudeMeters>38</AltitudeMeters>
            <DistanceMeters>NAN</DistanceMeters>
          </Trackpoint>
          <Trackpoint>
            <Time>2022-07-11T13:51:53.000Z</Time>
            <Position>
              <LatitudeDegrees>43.31422551535069942474365234375</LatitudeDegrees>
              <LongitudeDegrees>-2.67874117009341716766357421875</LongitudeDegrees>
            </Position>
            <AltitudeMeters>36.799999237060546875</AltitudeMeters>
            <DistanceMeters>NAN</DistanceMeters>
          </Trackpoint>
          <Trackpoint>
            <Time>2022-07-11T13:51:54.000Z</Time>
            <Position>
              <LatitudeDegrees>43.31423054449260234832763671875</LatitudeDegrees>
              <LongitudeDegrees>-2.6786901243031024932861328125</LongitudeDegrees>
            </Position>
            <AltitudeMeters>35.59999847412109375</AltitudeMeters>
            <DistanceMeters>NAN</DistanceMeters>
          </Trackpoint>
          <Trackpoint>
            <Time>2022-07-11T13:51:56.000Z</Time>
            <Position>
              <LatitudeDegrees>43.31425242125988006591796875</LatitudeDegrees>
              <LongitudeDegrees>-2.67859733663499355316162109375</LongitudeDegrees>
            </Position>
            <AltitudeMeters>34.200000762939453125</AltitudeMeters>
            <DistanceMeters>NAN</DistanceMeters>
          </Trackpoint>
          <Trackpoint>
            <Time>2022-07-11T13:51:58.000Z</Time>
            <Position>
              <LatitudeDegrees>43.31427781842648983001708984375</LatitudeDegrees>
              <LongitudeDegrees>-2.678542435169219970703125</LongitudeDegrees>
            </Position>
            <AltitudeMeters>33.200000762939453125</AltitudeMeters>
            <DistanceMeters>NAN</DistanceMeters>
          </Trackpoint>
          <Trackpoint>
            <Time>2022-07-11T13:51:59.000Z</Time>
            <Position>
              <LatitudeDegrees>43.3142965100705623626708984375</LatitudeDegrees>
              <LongitudeDegrees>-2.6785348914563655853271484375</LongitudeDegrees>
            </Position>
            <AltitudeMeters>32.59999847412109375</AltitudeMeters>
            <DistanceMeters>NAN</DistanceMeters>
          </Trackpoint>
          <Trackpoint>
            <Time>2022-07-11T13:52:01.000Z</Time>
            <Position>
              <LatitudeDegrees>43.31429935991764068603515625</LatitudeDegrees>
              <LongitudeDegrees>-2.67852676101028919219970703125</LongitudeDegrees>
            </Position>
            <AltitudeMeters>32</AltitudeMeters>
            <DistanceMeters>NAN</DistanceMeters>
          </Trackpoint>
          <Trackpoint>
            <Time>2022-07-11T13:52:03.000Z</Time>
            <Position>
              <LatitudeDegrees>43.31432827748358249664306640625</LatitudeDegrees>
              <LongitudeDegrees>-2.67846808768808841705322265625</LongitudeDegrees>
            </Position>
            <AltitudeMeters>31.799999237060546875</AltitudeMeters>
            <DistanceMeters>NAN</DistanceMeters>
          </Trackpoint>
          <Trackpoint>
            <Time>2022-07-11T13:52:04.000Z</Time>
            <Position>
              <LatitudeDegrees>43.314351327717304229736328125</LatitudeDegrees>
              <LongitudeDegrees>-2.67841997556388378143310546875</LongitudeDegrees>
            </Position>
            <AltitudeMeters>31.6000003814697265625</AltitudeMeters>
            <DistanceMeters>NAN</DistanceMeters>
          </Trackpoint>
          <Trackpoint>
            <Time>2022-07-11T13:52:05.000Z</Time>
            <Position>
              <LatitudeDegrees>43.31437538377940654754638671875</LatitudeDegrees>
              <LongitudeDegrees>-2.67836381681263446807861328125</LongitudeDegrees>
            </Position>
            <AltitudeMeters>31.3999996185302734375</AltitudeMeters>
            <DistanceMeters>NAN</DistanceMeters>
          </Trackpoint>
          <Trackpoint>
            <Time>2022-07-11T13:52:06.000Z</Time>
            <Position>
              <LatitudeDegrees>43.31440505571663379669189453125</LatitudeDegrees>
              <LongitudeDegrees>-2.6783079095184803009033203125</LongitudeDegrees>
            </Position>
            <AltitudeMeters>31.3999996185302734375</AltitudeMeters>
            <DistanceMeters>NAN</DistanceMeters>
          </Trackpoint>
          <Trackpoint>
            <Time>2022-07-11T13:52:07.000Z</Time>
            <Position>
              <LatitudeDegrees>43.3144379965960979461669921875</LatitudeDegrees>
              <LongitudeDegrees>-2.67824940383434295654296875</LongitudeDegrees>
            </Position>
            <AltitudeMeters>30.3999996185302734375</AltitudeMeters>
            <DistanceMeters>NAN</DistanceMeters>
          </Trackpoint>
          <Trackpoint>
            <Time>2022-07-11T13:52:09.000Z</Time>
            <Position>
              <LatitudeDegrees>43.31449088640511035919189453125</LatitudeDegrees>
              <LongitudeDegrees>-2.67813800834119319915771484375</LongitudeDegrees>
            </Position>
            <AltitudeMeters>29.3999996185302734375</AltitudeMeters>
            <DistanceMeters>NAN</DistanceMeters>
          </Trackpoint>
          <Trackpoint>
            <Time>2022-07-11T13:52:10.000Z</Time>
            <Position>
              <LatitudeDegrees>43.31451066769659519195556640625</LatitudeDegrees>
              <LongitudeDegrees>-2.67808553762733936309814453125</LongitudeDegrees>
            </Position>
            <AltitudeMeters>29</AltitudeMeters>
            <DistanceMeters>NAN</DistanceMeters>
          </Trackpoint>
          <Trackpoint>
            <Time>2022-07-11T13:52:13.000Z</Time>
            <Position>
              <LatitudeDegrees>43.314552493393421173095703125</LatitudeDegrees>
              <LongitudeDegrees>-2.6779535226523876190185546875</LongitudeDegrees>
            </Position>
            <AltitudeMeters>28.6000003814697265625</AltitudeMeters>
            <DistanceMeters>NAN</DistanceMeters>
          </Trackpoint>
          <Trackpoint>
            <Time>2022-07-11T13:52:14.000Z</Time>
            <Position>
              <LatitudeDegrees>43.3145684190094470977783203125</LatitudeDegrees>
              <LongitudeDegrees>-2.6779052428901195526123046875</LongitudeDegrees>
            </Position>
            <AltitudeMeters>27.3999996185302734375</AltitudeMeters>
            <DistanceMeters>NAN</DistanceMeters>
          </Trackpoint>
          <Trackpoint>
            <Time>2022-07-11T13:52:16.000Z</Time>
            <Position>
              <LatitudeDegrees>43.3146019466221332550048828125</LatitudeDegrees>
              <LongitudeDegrees>-2.6778261177241802215576171875</LongitudeDegrees>
            </Position>
            <AltitudeMeters>26.200000762939453125</AltitudeMeters>
            <DistanceMeters>NAN</DistanceMeters>
          </Trackpoint>
          <Trackpoint>
            <Time>2022-07-11T13:52:20.000Z</Time>
            <Position>
              <LatitudeDegrees>43.31464813090860843658447265625</LatitudeDegrees>
              <LongitudeDegrees>-2.67767608165740966796875</LongitudeDegrees>
            </Position>
            <AltitudeMeters>25.3999996185302734375</AltitudeMeters>
            <DistanceMeters>NAN</DistanceMeters>
          </Trackpoint>
          <Trackpoint>
            <Time>2022-07-11T13:52:22.000Z</Time>
            <Position>
              <LatitudeDegrees>43.3146535791456699371337890625</LatitudeDegrees>
              <LongitudeDegrees>-2.6775931008160114288330078125</LongitudeDegrees>
            </Position>
            <AltitudeMeters>25.200000762939453125</AltitudeMeters>
            <DistanceMeters>NAN</DistanceMeters>
          </Trackpoint>
          <Trackpoint>
            <Time>2022-07-11T13:52:24.000Z</Time>
            <Position>
              <LatitudeDegrees>43.31469540484249591827392578125</LatitudeDegrees>
              <LongitudeDegrees>-2.67754171974956989288330078125</LongitudeDegrees>
            </Position>
            <AltitudeMeters>25.200000762939453125</AltitudeMeters>
            <DistanceMeters>NAN</DistanceMeters>
          </Trackpoint>
          <Trackpoint>
            <Time>2022-07-11T13:52:30.000Z</Time>
            <Position>
              <LatitudeDegrees>43.314822725951671600341796875</LatitudeDegrees>
              <LongitudeDegrees>-2.67733083106577396392822265625</LongitudeDegrees>
            </Position>
            <AltitudeMeters>25.6000003814697265625</AltitudeMeters>
            <DistanceMeters>NAN</DistanceMeters>
          </Trackpoint>
          <Trackpoint>
            <Time>2022-07-11T13:52:34.000Z</Time>
            <Position>
              <LatitudeDegrees>43.31488450057804584503173828125</LatitudeDegrees>
              <LongitudeDegrees>-2.6771843992173671722412109375</LongitudeDegrees>
            </Position>
            <AltitudeMeters>24.799999237060546875</AltitudeMeters>
            <DistanceMeters>NAN</DistanceMeters>
          </Trackpoint>
          <Trackpoint>
            <Time>2022-07-11T13:52:36.000Z</Time>
            <Position>
              <LatitudeDegrees>43.3148872666060924530029296875</LatitudeDegrees>
              <LongitudeDegrees>-2.677131593227386474609375</LongitudeDegrees>
            </Position>
            <AltitudeMeters>24</AltitudeMeters>
            <DistanceMeters>NAN</DistanceMeters>
          </Trackpoint>
          <Trackpoint>
            <Time>2022-07-11T13:52:38.000Z</Time>
            <Position>
              <LatitudeDegrees>43.3148926310241222381591796875</LatitudeDegrees>
              <LongitudeDegrees>-2.6770677231252193450927734375</LongitudeDegrees>
            </Position>
            <AltitudeMeters>23.6000003814697265625</AltitudeMeters>
            <DistanceMeters>NAN</DistanceMeters>
          </Trackpoint>
          <Trackpoint>
            <Time>2022-07-11T13:52:42.000Z</Time>
            <Position>
              <LatitudeDegrees>43.31489958800375461578369140625</LatitudeDegrees>
              <LongitudeDegrees>-2.677032686769962310791015625</LongitudeDegrees>
            </Position>
            <AltitudeMeters>23.6000003814697265625</AltitudeMeters>
            <DistanceMeters>NAN</DistanceMeters>
          </Trackpoint>
          <Trackpoint>
            <Time>2022-07-11T13:52:43.000Z</Time>
            <Position>
              <LatitudeDegrees>43.31489958800375461578369140625</LatitudeDegrees>
              <LongitudeDegrees>-2.677032686769962310791015625</LongitudeDegrees>
            </Position>
            <AltitudeMeters>23.3999996185302734375</AltitudeMeters>
            <DistanceMeters>NAN</DistanceMeters>
          </Trackpoint>
          <Trackpoint>
            <Time>2022-07-11T14:01:34.000Z</Time>
            <Position>
              <LatitudeDegrees>43.31485214643180370330810546875</LatitudeDegrees>
              <LongitudeDegrees>-2.67687552608549594879150390625</LongitudeDegrees>
            </Position>
            <AltitudeMeters>25.200000762939453125</AltitudeMeters>
            <DistanceMeters>NAN</DistanceMeters>
          </Trackpoint>
          <Trackpoint>
            <Time>2022-07-11T14:01:35.000Z</Time>
            <Position>
              <LatitudeDegrees>43.31484812311828136444091796875</LatitudeDegrees>
              <LongitudeDegrees>-2.676838897168636322021484375</LongitudeDegrees>
            </Position>
            <AltitudeMeters>25.200000762939453125</AltitudeMeters>
            <DistanceMeters>NAN</DistanceMeters>
          </Trackpoint>
          <Trackpoint>
            <Time>2022-07-11T14:01:36.000Z</Time>
            <Position>
              <LatitudeDegrees>43.31483638845384120941162109375</LatitudeDegrees>
              <LongitudeDegrees>-2.6768062077462673187255859375</LongitudeDegrees>
            </Position>
            <AltitudeMeters>25.200000762939453125</AltitudeMeters>
            <DistanceMeters>NAN</DistanceMeters>
          </Trackpoint>
          <Trackpoint>
            <Time>2022-07-11T14:01:42.000Z</Time>
            <Position>
              <LatitudeDegrees>43.314781486988067626953125</LatitudeDegrees>
              <LongitudeDegrees>-2.6766472868621349334716796875</LongitudeDegrees>
            </Position>
            <AltitudeMeters>25.3999996185302734375</AltitudeMeters>
            <DistanceMeters>NAN</DistanceMeters>
          </Trackpoint>
          <Trackpoint>
            <Time>2022-07-11T14:01:47.000Z</Time>
            <Position>
              <LatitudeDegrees>43.3146540820598602294921875</LatitudeDegrees>
              <LongitudeDegrees>-2.676651813089847564697265625</LongitudeDegrees>
            </Position>
            <AltitudeMeters>25.3999996185302734375</AltitudeMeters>
            <DistanceMeters>NAN</DistanceMeters>
          </Trackpoint>
          <Trackpoint>
            <Time>2022-07-11T14:01:51.000Z</Time>
            <Position>
              <LatitudeDegrees>43.31458861939609050750732421875</LatitudeDegrees>
              <LongitudeDegrees>-2.67664938233792781829833984375</LongitudeDegrees>
            </Position>
            <AltitudeMeters>25.200000762939453125</AltitudeMeters>
            <DistanceMeters>NAN</DistanceMeters>
          </Trackpoint>
          <Trackpoint>
            <Time>2022-07-11T14:01:52.000Z</Time>
            <Position>
              <LatitudeDegrees>43.314572274684906005859375</LatitudeDegrees>
              <LongitudeDegrees>-2.67665885388851165771484375</LongitudeDegrees>
            </Position>
            <AltitudeMeters>25.200000762939453125</AltitudeMeters>
            <DistanceMeters>NAN</DistanceMeters>
          </Trackpoint>
          <Trackpoint>
            <Time>2022-07-11T14:01:57.000Z</Time>
            <Position>
              <LatitudeDegrees>43.31432081758975982666015625</LatitudeDegrees>
              <LongitudeDegrees>-2.67666782252490520477294921875</LongitudeDegrees>
            </Position>
            <AltitudeMeters>25</AltitudeMeters>
            <DistanceMeters>NAN</DistanceMeters>
          </Trackpoint>
          <Trackpoint>
            <Time>2022-07-11T14:02:02.000Z</Time>
            <Position>
              <LatitudeDegrees>43.31414789892733097076416015625</LatitudeDegrees>
              <LongitudeDegrees>-2.67669280059635639190673828125</LongitudeDegrees>
            </Position>
            <AltitudeMeters>25</AltitudeMeters>
            <DistanceMeters>NAN</DistanceMeters>
          </Trackpoint>
          <Trackpoint>
            <Time>2022-07-11T14:02:10.000Z</Time>
            <Position>
              <LatitudeDegrees>43.3139310590922832489013671875</LatitudeDegrees>
              <LongitudeDegrees>-2.6767663098871707916259765625</LongitudeDegrees>
            </Position>
            <AltitudeMeters>25.3999996185302734375</AltitudeMeters>
            <DistanceMeters>NAN</DistanceMeters>
          </Trackpoint>
          <Trackpoint>
            <Time>2022-07-11T14:02:17.000Z</Time>
            <Position>
              <LatitudeDegrees>43.313778340816497802734375</LatitudeDegrees>
              <LongitudeDegrees>-2.6767988316714763641357421875</LongitudeDegrees>
            </Position>
            <AltitudeMeters>25.3999996185302734375</AltitudeMeters>
            <DistanceMeters>NAN</DistanceMeters>
          </Trackpoint>
          <Trackpoint>
            <Time>2022-07-11T14:02:23.000Z</Time>
            <Position>
              <LatitudeDegrees>43.3136267960071563720703125</LatitudeDegrees>
              <LongitudeDegrees>-2.6768377237021923065185546875</LongitudeDegrees>
            </Position>
            <AltitudeMeters>25.799999237060546875</AltitudeMeters>
            <DistanceMeters>NAN</DistanceMeters>
          </Trackpoint>
          <Trackpoint>
            <Time>2022-07-11T14:02:24.000Z</Time>
            <Position>
              <LatitudeDegrees>43.31360206939280033111572265625</LatitudeDegrees>
              <LongitudeDegrees>-2.67683177255094051361083984375</LongitudeDegrees>
            </Position>
            <AltitudeMeters>25.799999237060546875</AltitudeMeters>
            <DistanceMeters>NAN</DistanceMeters>
          </Trackpoint>
          <Trackpoint>
            <Time>2022-07-11T14:02:30.000Z</Time>
            <Position>
              <LatitudeDegrees>43.3134489320218563079833984375</LatitudeDegrees>
              <LongitudeDegrees>-2.6768380589783191680908203125</LongitudeDegrees>
            </Position>
            <AltitudeMeters>26</AltitudeMeters>
            <DistanceMeters>NAN</DistanceMeters>
          </Trackpoint>
          <Trackpoint>
            <Time>2022-07-11T14:02:36.000Z</Time>
            <Position>
              <LatitudeDegrees>43.31332781352102756500244140625</LatitudeDegrees>
              <LongitudeDegrees>-2.67674376256763935089111328125</LongitudeDegrees>
            </Position>
            <AltitudeMeters>25.799999237060546875</AltitudeMeters>
            <DistanceMeters>NAN</DistanceMeters>
          </Trackpoint>
          <Trackpoint>
            <Time>2022-07-11T14:02:42.000Z</Time>
            <Position>
              <LatitudeDegrees>43.3132512867450714111328125</LatitudeDegrees>
              <LongitudeDegrees>-2.676510326564311981201171875</LongitudeDegrees>
            </Position>
            <AltitudeMeters>25.6000003814697265625</AltitudeMeters>
            <DistanceMeters>NAN</DistanceMeters>
          </Trackpoint>
          <Trackpoint>
            <Time>2022-07-11T14:02:47.000Z</Time>
            <Position>
              <LatitudeDegrees>43.3131458424031734466552734375</LatitudeDegrees>
              <LongitudeDegrees>-2.6763872802257537841796875</LongitudeDegrees>
            </Position>
            <AltitudeMeters>25.3999996185302734375</AltitudeMeters>
            <DistanceMeters>NAN</DistanceMeters>
          </Trackpoint>
          <Trackpoint>
            <Time>2022-07-11T14:02:53.000Z</Time>
            <Position>
              <LatitudeDegrees>43.31295934505760669708251953125</LatitudeDegrees>
              <LongitudeDegrees>-2.6763401739299297332763671875</LongitudeDegrees>
            </Position>
            <AltitudeMeters>25.200000762939453125</AltitudeMeters>
            <DistanceMeters>NAN</DistanceMeters>
          </Trackpoint>
          <Trackpoint>
            <Time>2022-07-11T14:02:58.000Z</Time>
            <Position>
              <LatitudeDegrees>43.312766142189502716064453125</LatitudeDegrees>
              <LongitudeDegrees>-2.67630890943109989166259765625</LongitudeDegrees>
            </Position>
            <AltitudeMeters>25.200000762939453125</AltitudeMeters>
            <DistanceMeters>NAN</DistanceMeters>
          </Trackpoint>
          <Trackpoint>
            <Time>2022-07-11T14:03:08.000Z</Time>
            <Position>
              <LatitudeDegrees>43.31238619051873683929443359375</LatitudeDegrees>
              <LongitudeDegrees>-2.676212601363658905029296875</LongitudeDegrees>
            </Position>
            <AltitudeMeters>25.200000762939453125</AltitudeMeters>
            <DistanceMeters>NAN</DistanceMeters>
          </Trackpoint>
          <Trackpoint>
            <Time>2022-07-11T14:03:14.000Z</Time>
            <Position>
              <LatitudeDegrees>43.3121879585087299346923828125</LatitudeDegrees>
              <LongitudeDegrees>-2.67608486115932464599609375</LongitudeDegrees>
            </Position>
            <AltitudeMeters>25.200000762939453125</AltitudeMeters>
            <DistanceMeters>NAN</DistanceMeters>
          </Trackpoint>
          <Trackpoint>
            <Time>2022-07-11T14:03:21.000Z</Time>
            <Position>
              <LatitudeDegrees>43.311982937157154083251953125</LatitudeDegrees>
              <LongitudeDegrees>-2.67588763497769832611083984375</LongitudeDegrees>
            </Position>
            <AltitudeMeters>24.799999237060546875</AltitudeMeters>
            <DistanceMeters>NAN</DistanceMeters>
          </Trackpoint>
          <Trackpoint>
            <Time>2022-07-11T14:03:26.000Z</Time>
            <Position>
              <LatitudeDegrees>43.31177531741559505462646484375</LatitudeDegrees>
              <LongitudeDegrees>-2.6758052408695220947265625</LongitudeDegrees>
            </Position>
            <AltitudeMeters>25</AltitudeMeters>
            <DistanceMeters>NAN</DistanceMeters>
          </Trackpoint>
          <Trackpoint>
            <Time>2022-07-11T14:03:34.000Z</Time>
            <Position>
              <LatitudeDegrees>43.31147742457687854766845703125</LatitudeDegrees>
              <LongitudeDegrees>-2.67580448649823665618896484375</LongitudeDegrees>
            </Position>
            <AltitudeMeters>24.200000762939453125</AltitudeMeters>
            <DistanceMeters>NAN</DistanceMeters>
          </Trackpoint>
          <Trackpoint>
            <Time>2022-07-11T14:03:37.000Z</Time>
            <Position>
              <LatitudeDegrees>43.3113822899758815765380859375</LatitudeDegrees>
              <LongitudeDegrees>-2.67580834217369556427001953125</LongitudeDegrees>
            </Position>
            <AltitudeMeters>24</AltitudeMeters>
            <DistanceMeters>NAN</DistanceMeters>
          </Trackpoint>
          <Trackpoint>
            <Time>2022-07-11T14:03:45.000Z</Time>
            <Position>
              <LatitudeDegrees>43.31112370826303958892822265625</LatitudeDegrees>
              <LongitudeDegrees>-2.67581303603947162628173828125</LongitudeDegrees>
            </Position>
            <AltitudeMeters>24.200000762939453125</AltitudeMeters>
            <DistanceMeters>NAN</DistanceMeters>
          </Trackpoint>
          <Trackpoint>
            <Time>2022-07-11T14:03:47.000Z</Time>
            <Position>
              <LatitudeDegrees>43.31105866469442844390869140625</LatitudeDegrees>
              <LongitudeDegrees>-2.67581739462912082672119140625</LongitudeDegrees>
            </Position>
            <AltitudeMeters>24.200000762939453125</AltitudeMeters>
            <DistanceMeters>NAN</DistanceMeters>
          </Trackpoint>
          <Trackpoint>
            <Time>2022-07-11T14:03:49.000Z</Time>
            <Position>
              <LatitudeDegrees>43.3109950460493564605712890625</LatitudeDegrees>
              <LongitudeDegrees>-2.67582778818905353546142578125</LongitudeDegrees>
            </Position>
            <AltitudeMeters>24.3999996185302734375</AltitudeMeters>
            <DistanceMeters>NAN</DistanceMeters>
          </Trackpoint>
          <Trackpoint>
            <Time>2022-07-11T14:03:54.000Z</Time>
            <Position>
              <LatitudeDegrees>43.310837633907794952392578125</LatitudeDegrees>
              <LongitudeDegrees>-2.67587162554264068603515625</LongitudeDegrees>
            </Position>
            <AltitudeMeters>24.6000003814697265625</AltitudeMeters>
            <DistanceMeters>NAN</DistanceMeters>
          </Trackpoint>
          <Trackpoint>
            <Time>2022-07-11T14:04:00.000Z</Time>
            <Position>
              <LatitudeDegrees>43.31066069193184375762939453125</LatitudeDegrees>
              <LongitudeDegrees>-2.67592124640941619873046875</LongitudeDegrees>
            </Position>
            <AltitudeMeters>24.6000003814697265625</AltitudeMeters>
            <DistanceMeters>NAN</DistanceMeters>
          </Trackpoint>
          <Trackpoint>
            <Time>2022-07-11T14:04:05.000Z</Time>
            <Position>
              <LatitudeDegrees>43.3105102367699146270751953125</LatitudeDegrees>
              <LongitudeDegrees>-2.6759690232574939727783203125</LongitudeDegrees>
            </Position>
            <AltitudeMeters>24.6000003814697265625</AltitudeMeters>
            <DistanceMeters>NAN</DistanceMeters>
          </Trackpoint>
          <Trackpoint>
            <Time>2022-07-11T14:04:06.000Z</Time>
            <Position>
              <LatitudeDegrees>43.310479223728179931640625</LatitudeDegrees>
              <LongitudeDegrees>-2.6759755611419677734375</LongitudeDegrees>
            </Position>
            <AltitudeMeters>24.6000003814697265625</AltitudeMeters>
            <DistanceMeters>NAN</DistanceMeters>
          </Trackpoint>
          <Trackpoint>
            <Time>2022-07-11T14:04:14.000Z</Time>
            <Position>
              <LatitudeDegrees>43.3102269284427165985107421875</LatitudeDegrees>
              <LongitudeDegrees>-2.6760347373783588409423828125</LongitudeDegrees>
            </Position>
            <AltitudeMeters>24.6000003814697265625</AltitudeMeters>
            <DistanceMeters>NAN</DistanceMeters>
          </Trackpoint>
          <Trackpoint>
            <Time>2022-07-11T14:04:21.000Z</Time>
            <Position>
              <LatitudeDegrees>43.31001461483538150787353515625</LatitudeDegrees>
              <LongitudeDegrees>-2.67611059360206127166748046875</LongitudeDegrees>
            </Position>
            <AltitudeMeters>24.6000003814697265625</AltitudeMeters>
            <DistanceMeters>NAN</DistanceMeters>
          </Trackpoint>
          <Trackpoint>
            <Time>2022-07-11T14:04:31.000Z</Time>
            <Position>
              <LatitudeDegrees>43.3097040653228759765625</LatitudeDegrees>
              <LongitudeDegrees>-2.676215954124927520751953125</LongitudeDegrees>
            </Position>
            <AltitudeMeters>24</AltitudeMeters>
            <DistanceMeters>NAN</DistanceMeters>
          </Trackpoint>
          <Trackpoint>
            <Time>2022-07-11T14:04:39.000Z</Time>
            <Position>
              <LatitudeDegrees>43.30946157686412334442138671875</LatitudeDegrees>
              <LongitudeDegrees>-2.67628275789320468902587890625</LongitudeDegrees>
            </Position>
            <AltitudeMeters>23.6000003814697265625</AltitudeMeters>
            <DistanceMeters>NAN</DistanceMeters>
          </Trackpoint>
          <Trackpoint>
            <Time>2022-07-11T14:04:40.000Z</Time>
            <Position>
              <LatitudeDegrees>43.3094467408955097198486328125</LatitudeDegrees>
              <LongitudeDegrees>-2.67629499547183513641357421875</LongitudeDegrees>
            </Position>
            <AltitudeMeters>23.6000003814697265625</AltitudeMeters>
            <DistanceMeters>NAN</DistanceMeters>
          </Trackpoint>
          <Trackpoint>
            <Time>2022-07-11T14:04:42.000Z</Time>
            <Position>
              <LatitudeDegrees>43.309445567429065704345703125</LatitudeDegrees>
              <LongitudeDegrees>-2.676340006291866302490234375</LongitudeDegrees>
            </Position>
            <AltitudeMeters>23.6000003814697265625</AltitudeMeters>
            <DistanceMeters>NAN</DistanceMeters>
          </Trackpoint>
          <Trackpoint>
            <Time>2022-07-11T14:04:48.000Z</Time>
            <Position>
              <LatitudeDegrees>43.30947012640535831451416015625</LatitudeDegrees>
              <LongitudeDegrees>-2.67657595686614513397216796875</LongitudeDegrees>
            </Position>
            <AltitudeMeters>23.3999996185302734375</AltitudeMeters>
            <DistanceMeters>NAN</DistanceMeters>
          </Trackpoint>
          <Trackpoint>
            <Time>2022-07-11T14:04:51.000Z</Time>
            <Position>
              <LatitudeDegrees>43.30947146750986576080322265625</LatitudeDegrees>
              <LongitudeDegrees>-2.67668425105512142181396484375</LongitudeDegrees>
            </Position>
            <AltitudeMeters>23.3999996185302734375</AltitudeMeters>
            <DistanceMeters>NAN</DistanceMeters>
          </Trackpoint>
          <Trackpoint>
            <Time>2022-07-11T14:04:56.000Z</Time>
            <Position>
              <LatitudeDegrees>43.30946593545377254486083984375</LatitudeDegrees>
              <LongitudeDegrees>-2.6768796332180500030517578125</LongitudeDegrees>
            </Position>
            <AltitudeMeters>23.3999996185302734375</AltitudeMeters>
            <DistanceMeters>NAN</DistanceMeters>
          </Trackpoint>
          <Trackpoint>
            <Time>2022-07-11T14:05:05.000Z</Time>
            <Position>
              <LatitudeDegrees>43.309452272951602935791015625</LatitudeDegrees>
              <LongitudeDegrees>-2.677262015640735626220703125</LongitudeDegrees>
            </Position>
            <AltitudeMeters>23.200000762939453125</AltitudeMeters>
            <DistanceMeters>NAN</DistanceMeters>
          </Trackpoint>
          <Trackpoint>
            <Time>2022-07-11T14:05:10.000Z</Time>
            <Position>
              <LatitudeDegrees>43.30943659879267215728759765625</LatitudeDegrees>
              <LongitudeDegrees>-2.6774482615292072296142578125</LongitudeDegrees>
            </Position>
            <AltitudeMeters>23.200000762939453125</AltitudeMeters>
            <DistanceMeters>NAN</DistanceMeters>
          </Trackpoint>
          <Trackpoint>
            <Time>2022-07-11T14:05:14.000Z</Time>
            <Position>
              <LatitudeDegrees>43.30940424464643001556396484375</LatitudeDegrees>
              <LongitudeDegrees>-2.67757776193320751190185546875</LongitudeDegrees>
            </Position>
            <AltitudeMeters>22.6000003814697265625</AltitudeMeters>
            <DistanceMeters>NAN</DistanceMeters>
          </Trackpoint>
          <Trackpoint>
            <Time>2022-07-11T14:05:19.000Z</Time>
            <Position>
              <LatitudeDegrees>43.30935864709317684173583984375</LatitudeDegrees>
              <LongitudeDegrees>-2.67774238251149654388427734375</LongitudeDegrees>
            </Position>
            <AltitudeMeters>22.200000762939453125</AltitudeMeters>
            <DistanceMeters>NAN</DistanceMeters>
          </Trackpoint>
          <Trackpoint>
            <Time>2022-07-11T14:05:22.000Z</Time>
            <Position>
              <LatitudeDegrees>43.30936468206346035003662109375</LatitudeDegrees>
              <LongitudeDegrees>-2.67783273942768573760986328125</LongitudeDegrees>
            </Position>
            <AltitudeMeters>22.200000762939453125</AltitudeMeters>
            <DistanceMeters>NAN</DistanceMeters>
          </Trackpoint>
          <Trackpoint>
            <Time>2022-07-11T14:05:24.000Z</Time>
            <Position>
              <LatitudeDegrees>43.30936887301504611968994140625</LatitudeDegrees>
              <LongitudeDegrees>-2.67789593897759914398193359375</LongitudeDegrees>
            </Position>
            <AltitudeMeters>22.200000762939453125</AltitudeMeters>
            <DistanceMeters>NAN</DistanceMeters>
          </Trackpoint>
          <Trackpoint>
            <Time>2022-07-11T14:05:30.000Z</Time>
            <Position>
              <LatitudeDegrees>43.3093045838177204132080078125</LatitudeDegrees>
              <LongitudeDegrees>-2.67810330726206302642822265625</LongitudeDegrees>
            </Position>
            <AltitudeMeters>22.200000762939453125</AltitudeMeters>
            <DistanceMeters>NAN</DistanceMeters>
          </Trackpoint>
          <Trackpoint>
            <Time>2022-07-11T14:05:39.000Z</Time>
            <Position>
              <LatitudeDegrees>43.30913149751722812652587890625</LatitudeDegrees>
              <LongitudeDegrees>-2.6784225739538669586181640625</LongitudeDegrees>
            </Position>
            <AltitudeMeters>22.200000762939453125</AltitudeMeters>
            <DistanceMeters>NAN</DistanceMeters>
          </Trackpoint>
          <Trackpoint>
            <Time>2022-07-11T14:05:45.000Z</Time>
            <Position>
              <LatitudeDegrees>43.3090616762638092041015625</LatitudeDegrees>
              <LongitudeDegrees>-2.6785597018897533416748046875</LongitudeDegrees>
            </Position>
            <AltitudeMeters>22.200000762939453125</AltitudeMeters>
            <DistanceMeters>NAN</DistanceMeters>
          </Trackpoint>
          <Trackpoint>
            <Time>2022-07-11T14:05:53.000Z</Time>
            <Position>
              <LatitudeDegrees>43.30893762409687042236328125</LatitudeDegrees>
              <LongitudeDegrees>-2.6787213049829006195068359375</LongitudeDegrees>
            </Position>
            <AltitudeMeters>22.6000003814697265625</AltitudeMeters>
            <DistanceMeters>NAN</DistanceMeters>
          </Trackpoint>
          <Trackpoint>
            <Time>2022-07-11T14:06:00.000Z</Time>
            <Position>
              <LatitudeDegrees>43.30881784670054912567138671875</LatitudeDegrees>
              <LongitudeDegrees>-2.678864300251007080078125</LongitudeDegrees>
            </Position>
            <AltitudeMeters>22.3999996185302734375</AltitudeMeters>
            <DistanceMeters>NAN</DistanceMeters>
          </Trackpoint>
          <Trackpoint>
            <Time>2022-07-11T14:06:07.000Z</Time>
            <Position>
              <LatitudeDegrees>43.30872011370956897735595703125</LatitudeDegrees>
              <LongitudeDegrees>-2.6789901964366436004638671875</LongitudeDegrees>
            </Position>
            <AltitudeMeters>22</AltitudeMeters>
            <DistanceMeters>NAN</DistanceMeters>
          </Trackpoint>
          <Trackpoint>
            <Time>2022-07-11T14:06:08.000Z</Time>
            <Position>
              <LatitudeDegrees>43.30870385281741619110107421875</LatitudeDegrees>
              <LongitudeDegrees>-2.67898927442729473114013671875</LongitudeDegrees>
            </Position>
            <AltitudeMeters>22</AltitudeMeters>
            <DistanceMeters>NAN</DistanceMeters>
          </Trackpoint>
          <Trackpoint>
            <Time>2022-07-11T14:06:11.000Z</Time>
            <Position>
              <LatitudeDegrees>43.30867552198469638824462890625</LatitudeDegrees>
              <LongitudeDegrees>-2.67896245233714580535888671875</LongitudeDegrees>
            </Position>
            <AltitudeMeters>21.799999237060546875</AltitudeMeters>
            <DistanceMeters>NAN</DistanceMeters>
          </Trackpoint>
          <Trackpoint>
            <Time>2022-07-11T14:06:13.000Z</Time>
            <Position>
              <LatitudeDegrees>43.30866613425314426422119140625</LatitudeDegrees>
              <LongitudeDegrees>-2.67895356751978397369384765625</LongitudeDegrees>
            </Position>
            <AltitudeMeters>21.6000003814697265625</AltitudeMeters>
            <DistanceMeters>NAN</DistanceMeters>
          </Trackpoint>
          <Trackpoint>
            <Time>2022-07-11T14:06:20.000Z</Time>
            <Position>
              <LatitudeDegrees>43.3086700737476348876953125</LatitudeDegrees>
              <LongitudeDegrees>-2.67895222641527652740478515625</LongitudeDegrees>
            </Position>
            <AltitudeMeters>21.200000762939453125</AltitudeMeters>
            <DistanceMeters>NAN</DistanceMeters>
          </Trackpoint>
          <Trackpoint>
            <Time>2022-07-11T14:06:23.000Z</Time>
            <Position>
              <LatitudeDegrees>43.30866898410022258758544921875</LatitudeDegrees>
              <LongitudeDegrees>-2.67894367687404155731201171875</LongitudeDegrees>
            </Position>
            <AltitudeMeters>21</AltitudeMeters>
            <DistanceMeters>NAN</DistanceMeters>
          </Trackpoint>
          <Trackpoint>
            <Time>2022-07-11T14:06:25.000Z</Time>
            <Position>
              <LatitudeDegrees>43.30866898410022258758544921875</LatitudeDegrees>
              <LongitudeDegrees>-2.67894367687404155731201171875</LongitudeDegrees>
            </Position>
            <AltitudeMeters>21</AltitudeMeters>
            <DistanceMeters>NAN</DistanceMeters>
          </Trackpoint>
          <Trackpoint>
            <Time>2022-07-11T14:15:45.000Z</Time>
            <Position>
              <LatitudeDegrees>43.3083926327526569366455078125</LatitudeDegrees>
              <LongitudeDegrees>-2.6789875142276287078857421875</LongitudeDegrees>
            </Position>
            <AltitudeMeters>28.799999237060546875</AltitudeMeters>
            <DistanceMeters>NAN</DistanceMeters>
          </Trackpoint>
          <Trackpoint>
            <Time>2022-07-11T14:15:46.000Z</Time>
            <Position>
              <LatitudeDegrees>43.3083926327526569366455078125</LatitudeDegrees>
              <LongitudeDegrees>-2.6789875142276287078857421875</LongitudeDegrees>
            </Position>
            <AltitudeMeters>28.799999237060546875</AltitudeMeters>
            <DistanceMeters>NAN</DistanceMeters>
          </Trackpoint>
          <Trackpoint>
            <Time>2022-07-11T14:15:47.000Z</Time>
            <Position>
              <LatitudeDegrees>43.3083926327526569366455078125</LatitudeDegrees>
              <LongitudeDegrees>-2.6789875142276287078857421875</LongitudeDegrees>
            </Position>
            <AltitudeMeters>28.799999237060546875</AltitudeMeters>
            <DistanceMeters>NAN</DistanceMeters>
          </Trackpoint>
          <Trackpoint>
            <Time>2022-07-11T14:16:22.000Z</Time>
            <Position>
              <LatitudeDegrees>43.30866429023444652557373046875</LatitudeDegrees>
              <LongitudeDegrees>-2.6789757795631885528564453125</LongitudeDegrees>
            </Position>
            <AltitudeMeters>30.200000762939453125</AltitudeMeters>
            <DistanceMeters>NAN</DistanceMeters>
          </Trackpoint>
          <Trackpoint>
            <Time>2022-07-11T14:16:23.000Z</Time>
            <Position>
              <LatitudeDegrees>43.3086678944528102874755859375</LatitudeDegrees>
              <LongitudeDegrees>-2.6789596863090991973876953125</LongitudeDegrees>
            </Position>
            <AltitudeMeters>30.200000762939453125</AltitudeMeters>
            <DistanceMeters>NAN</DistanceMeters>
          </Trackpoint>
          <Trackpoint>
            <Time>2022-07-11T14:16:24.000Z</Time>
            <Position>
              <LatitudeDegrees>43.30867082811892032623291015625</LatitudeDegrees>
              <LongitudeDegrees>-2.67894937656819820404052734375</LongitudeDegrees>
            </Position>
            <AltitudeMeters>30.200000762939453125</AltitudeMeters>
            <DistanceMeters>NAN</DistanceMeters>
          </Trackpoint>
          <Trackpoint>
            <Time>2022-07-11T14:16:25.000Z</Time>
            <Position>
              <LatitudeDegrees>43.30866814590990543365478515625</LatitudeDegrees>
              <LongitudeDegrees>-2.67894568853080272674560546875</LongitudeDegrees>
            </Position>
            <AltitudeMeters>30.200000762939453125</AltitudeMeters>
            <DistanceMeters>NAN</DistanceMeters>
          </Trackpoint>
          <Trackpoint>
            <Time>2022-07-11T14:16:27.000Z</Time>
            <Position>
              <LatitudeDegrees>43.30866269767284393310546875</LatitudeDegrees>
              <LongitudeDegrees>-2.6789412461221218109130859375</LongitudeDegrees>
            </Position>
            <AltitudeMeters>29.799999237060546875</AltitudeMeters>
            <DistanceMeters>NAN</DistanceMeters>
          </Trackpoint>
          <Trackpoint>
            <Time>2022-07-11T14:17:07.000Z</Time>
            <Position>
              <LatitudeDegrees>43.30865372903645038604736328125</LatitudeDegrees>
              <LongitudeDegrees>-2.6789502985775470733642578125</LongitudeDegrees>
            </Position>
            <AltitudeMeters>30.200000762939453125</AltitudeMeters>
            <DistanceMeters>NAN</DistanceMeters>
          </Trackpoint>
          <Trackpoint>
            <Time>2022-07-11T14:17:08.000Z</Time>
            <Position>
              <LatitudeDegrees>43.3086457662284374237060546875</LatitudeDegrees>
              <LongitudeDegrees>-2.67896848730742931365966796875</LongitudeDegrees>
            </Position>
            <AltitudeMeters>30.200000762939453125</AltitudeMeters>
            <DistanceMeters>NAN</DistanceMeters>
          </Trackpoint>
          <Trackpoint>
            <Time>2022-07-11T14:17:09.000Z</Time>
            <Position>
              <LatitudeDegrees>43.30863319337368011474609375</LatitudeDegrees>
              <LongitudeDegrees>-2.67897686921060085296630859375</LongitudeDegrees>
            </Position>
            <AltitudeMeters>30.200000762939453125</AltitudeMeters>
            <DistanceMeters>NAN</DistanceMeters>
          </Trackpoint>
          <Trackpoint>
            <Time>2022-07-11T14:17:14.000Z</Time>
            <Position>
              <LatitudeDegrees>43.30863076262176036834716796875</LatitudeDegrees>
              <LongitudeDegrees>-2.67900855280458927154541015625</LongitudeDegrees>
            </Position>
            <AltitudeMeters>30.200000762939453125</AltitudeMeters>
            <DistanceMeters>NAN</DistanceMeters>
          </Trackpoint>
          <Trackpoint>
            <Time>2022-07-11T14:22:01.000Z</Time>
            <Position>
              <LatitudeDegrees>43.3087476901710033416748046875</LatitudeDegrees>
              <LongitudeDegrees>-2.67886421643197536468505859375</LongitudeDegrees>
            </Position>
            <AltitudeMeters>29.200000762939453125</AltitudeMeters>
            <DistanceMeters>NAN</DistanceMeters>
          </Trackpoint>
          <Trackpoint>
            <Time>2022-07-11T14:22:02.000Z</Time>
            <Position>
              <LatitudeDegrees>43.30876101739704608917236328125</LatitudeDegrees>
              <LongitudeDegrees>-2.678845860064029693603515625</LongitudeDegrees>
            </Position>
            <AltitudeMeters>29.200000762939453125</AltitudeMeters>
            <DistanceMeters>NAN</DistanceMeters>
          </Trackpoint>
          <Trackpoint>
            <Time>2022-07-11T14:22:04.000Z</Time>
            <Position>
              <LatitudeDegrees>43.30879622139036655426025390625</LatitudeDegrees>
              <LongitudeDegrees>-2.67880202271044254302978515625</LongitudeDegrees>
            </Position>
            <AltitudeMeters>29.3999996185302734375</AltitudeMeters>
            <DistanceMeters>NAN</DistanceMeters>
          </Trackpoint>
          <Trackpoint>
            <Time>2022-07-11T14:22:10.000Z</Time>
            <Position>
              <LatitudeDegrees>43.3089153282344341278076171875</LatitudeDegrees>
              <LongitudeDegrees>-2.67873949371278285980224609375</LongitudeDegrees>
            </Position>
            <AltitudeMeters>29.799999237060546875</AltitudeMeters>
            <DistanceMeters>NAN</DistanceMeters>
          </Trackpoint>
          <Trackpoint>
            <Time>2022-07-11T14:22:13.000Z</Time>
            <Position>
              <LatitudeDegrees>43.308986239135265350341796875</LatitudeDegrees>
              <LongitudeDegrees>-2.67873966135084629058837890625</LongitudeDegrees>
            </Position>
            <AltitudeMeters>29.799999237060546875</AltitudeMeters>
            <DistanceMeters>NAN</DistanceMeters>
          </Trackpoint>
          <Trackpoint>
            <Time>2022-07-11T14:22:17.000Z</Time>
            <Position>
              <LatitudeDegrees>43.309080787003040313720703125</LatitudeDegrees>
              <LongitudeDegrees>-2.678759358823299407958984375</LongitudeDegrees>
            </Position>
            <AltitudeMeters>30.200000762939453125</AltitudeMeters>
            <DistanceMeters>NAN</DistanceMeters>
          </Trackpoint>
          <Trackpoint>
            <Time>2022-07-11T14:22:20.000Z</Time>
            <Position>
              <LatitudeDegrees>43.30914239399135112762451171875</LatitudeDegrees>
              <LongitudeDegrees>-2.6787833310663700103759765625</LongitudeDegrees>
            </Position>
            <AltitudeMeters>30.200000762939453125</AltitudeMeters>
            <DistanceMeters>NAN</DistanceMeters>
          </Trackpoint>
          <Trackpoint>
            <Time>2022-07-11T14:22:22.000Z</Time>
            <Position>
              <LatitudeDegrees>43.30917977727949619293212890625</LatitudeDegrees>
              <LongitudeDegrees>-2.67879012040793895721435546875</LongitudeDegrees>
            </Position>
            <AltitudeMeters>30.3999996185302734375</AltitudeMeters>
            <DistanceMeters>NAN</DistanceMeters>
          </Trackpoint>
          <Trackpoint>
            <Time>2022-07-11T14:22:24.000Z</Time>
            <Position>
              <LatitudeDegrees>43.30921112559735774993896484375</LatitudeDegrees>
              <LongitudeDegrees>-2.6787856779992580413818359375</LongitudeDegrees>
            </Position>
            <AltitudeMeters>30.3999996185302734375</AltitudeMeters>
            <DistanceMeters>NAN</DistanceMeters>
          </Trackpoint>
          <Trackpoint>
            <Time>2022-07-11T14:22:27.000Z</Time>
            <Position>
              <LatitudeDegrees>43.30924834124743938446044921875</LatitudeDegrees>
              <LongitudeDegrees>-2.67877570353448390960693359375</LongitudeDegrees>
            </Position>
            <AltitudeMeters>30</AltitudeMeters>
            <DistanceMeters>NAN</DistanceMeters>
          </Trackpoint>
          <Trackpoint>
            <Time>2022-07-11T14:22:28.000Z</Time>
            <Position>
              <LatitudeDegrees>43.30925655551254749298095703125</LatitudeDegrees>
              <LongitudeDegrees>-2.67877955920994281768798828125</LongitudeDegrees>
            </Position>
            <AltitudeMeters>30</AltitudeMeters>
            <DistanceMeters>NAN</DistanceMeters>
          </Trackpoint>
          <Trackpoint>
            <Time>2022-07-11T14:22:30.000Z</Time>
            <Position>
              <LatitudeDegrees>43.309274576604366302490234375</LatitudeDegrees>
              <LongitudeDegrees>-2.6788128353655338287353515625</LongitudeDegrees>
            </Position>
            <AltitudeMeters>30</AltitudeMeters>
            <DistanceMeters>NAN</DistanceMeters>
          </Trackpoint>
          <Trackpoint>
            <Time>2022-07-11T14:22:32.000Z</Time>
            <Position>
              <LatitudeDegrees>43.30928052775561809539794921875</LatitudeDegrees>
              <LongitudeDegrees>-2.6788580976426601409912109375</LongitudeDegrees>
            </Position>
            <AltitudeMeters>30.200000762939453125</AltitudeMeters>
            <DistanceMeters>NAN</DistanceMeters>
          </Trackpoint>
          <Trackpoint>
            <Time>2022-07-11T14:22:34.000Z</Time>
            <Position>
              <LatitudeDegrees>43.3092888258397579193115234375</LatitudeDegrees>
              <LongitudeDegrees>-2.678901851177215576171875</LongitudeDegrees>
            </Position>
            <AltitudeMeters>30.200000762939453125</AltitudeMeters>
            <DistanceMeters>NAN</DistanceMeters>
          </Trackpoint>
          <Trackpoint>
            <Time>2022-07-11T14:22:35.000Z</Time>
            <Position>
              <LatitudeDegrees>43.3092817850410938262939453125</LatitudeDegrees>
              <LongitudeDegrees>-2.67891802825033664703369140625</LongitudeDegrees>
            </Position>
            <AltitudeMeters>30</AltitudeMeters>
            <DistanceMeters>NAN</DistanceMeters>
          </Trackpoint>
          <Trackpoint>
            <Time>2022-07-11T14:22:40.000Z</Time>
            <Position>
              <LatitudeDegrees>43.30918296240270137786865234375</LatitudeDegrees>
              <LongitudeDegrees>-2.678975276648998260498046875</LongitudeDegrees>
            </Position>
            <AltitudeMeters>30</AltitudeMeters>
            <DistanceMeters>NAN</DistanceMeters>
          </Trackpoint>
          <Trackpoint>
            <Time>2022-07-11T14:22:47.000Z</Time>
            <Position>
              <LatitudeDegrees>43.30901297740638256072998046875</LatitudeDegrees>
              <LongitudeDegrees>-2.67907996661961078643798828125</LongitudeDegrees>
            </Position>
            <AltitudeMeters>30.200000762939453125</AltitudeMeters>
            <DistanceMeters>NAN</DistanceMeters>
          </Trackpoint>
          <Trackpoint>
            <Time>2022-07-11T14:22:55.000Z</Time>
            <Position>
              <LatitudeDegrees>43.30879990942776203155517578125</LatitudeDegrees>
              <LongitudeDegrees>-2.6791849918663501739501953125</LongitudeDegrees>
            </Position>
            <AltitudeMeters>30</AltitudeMeters>
            <DistanceMeters>NAN</DistanceMeters>
          </Trackpoint>
          <Trackpoint>
            <Time>2022-07-11T14:23:03.000Z</Time>
            <Position>
              <LatitudeDegrees>43.308575861155986785888671875</LatitudeDegrees>
              <LongitudeDegrees>-2.67931030131876468658447265625</LongitudeDegrees>
            </Position>
            <AltitudeMeters>29.799999237060546875</AltitudeMeters>
            <DistanceMeters>NAN</DistanceMeters>
          </Trackpoint>
          <Trackpoint>
            <Time>2022-07-11T14:23:10.000Z</Time>
            <Position>
              <LatitudeDegrees>43.30838106572628021240234375</LatitudeDegrees>
              <LongitudeDegrees>-2.67941758967936038970947265625</LongitudeDegrees>
            </Position>
            <AltitudeMeters>29.6000003814697265625</AltitudeMeters>
            <DistanceMeters>NAN</DistanceMeters>
          </Trackpoint>
          <Trackpoint>
            <Time>2022-07-11T14:23:15.000Z</Time>
            <Position>
              <LatitudeDegrees>43.3082303591072559356689453125</LatitudeDegrees>
              <LongitudeDegrees>-2.67949269153177738189697265625</LongitudeDegrees>
            </Position>
            <AltitudeMeters>29.3999996185302734375</AltitudeMeters>
            <DistanceMeters>NAN</DistanceMeters>
          </Trackpoint>
          <Trackpoint>
            <Time>2022-07-11T14:23:18.000Z</Time>
            <Position>
              <LatitudeDegrees>43.30812969245016574859619140625</LatitudeDegrees>
              <LongitudeDegrees>-2.67954415641725063323974609375</LongitudeDegrees>
            </Position>
            <AltitudeMeters>29.3999996185302734375</AltitudeMeters>
            <DistanceMeters>NAN</DistanceMeters>
          </Trackpoint>
          <Trackpoint>
            <Time>2022-07-11T14:23:25.000Z</Time>
            <Position>
              <LatitudeDegrees>43.3079244196414947509765625</LatitudeDegrees>
              <LongitudeDegrees>-2.67966770566999912261962890625</LongitudeDegrees>
            </Position>
            <AltitudeMeters>29.3999996185302734375</AltitudeMeters>
            <DistanceMeters>NAN</DistanceMeters>
          </Trackpoint>
          <Trackpoint>
            <Time>2022-07-11T14:23:26.000Z</Time>
            <Position>
              <LatitudeDegrees>43.3079083263874053955078125</LatitudeDegrees>
              <LongitudeDegrees>-2.67969519831240177154541015625</LongitudeDegrees>
            </Position>
            <AltitudeMeters>29.3999996185302734375</AltitudeMeters>
            <DistanceMeters>NAN</DistanceMeters>
          </Trackpoint>
          <Trackpoint>
            <Time>2022-07-11T14:23:28.000Z</Time>
            <Position>
              <LatitudeDegrees>43.30789550207555294036865234375</LatitudeDegrees>
              <LongitudeDegrees>-2.67977155745029449462890625</LongitudeDegrees>
            </Position>
            <AltitudeMeters>29.6000003814697265625</AltitudeMeters>
            <DistanceMeters>NAN</DistanceMeters>
          </Trackpoint>
          <Trackpoint>
            <Time>2022-07-11T14:23:30.000Z</Time>
            <Position>
              <LatitudeDegrees>43.30787639133632183074951171875</LatitudeDegrees>
              <LongitudeDegrees>-2.6798434741795063018798828125</LongitudeDegrees>
            </Position>
            <AltitudeMeters>29.799999237060546875</AltitudeMeters>
            <DistanceMeters>NAN</DistanceMeters>
          </Trackpoint>
          <Trackpoint>
            <Time>2022-07-11T14:23:32.000Z</Time>
            <Position>
              <LatitudeDegrees>43.30785057507455348968505859375</LatitudeDegrees>
              <LongitudeDegrees>-2.67989519052207469940185546875</LongitudeDegrees>
            </Position>
            <AltitudeMeters>29.799999237060546875</AltitudeMeters>
            <DistanceMeters>NAN</DistanceMeters>
          </Trackpoint>
          <Trackpoint>
            <Time>2022-07-11T14:23:37.000Z</Time>
            <Position>
              <LatitudeDegrees>43.30773943103849887847900390625</LatitudeDegrees>
              <LongitudeDegrees>-2.67993927933275699615478515625</LongitudeDegrees>
            </Position>
            <AltitudeMeters>29.200000762939453125</AltitudeMeters>
            <DistanceMeters>NAN</DistanceMeters>
          </Trackpoint>
          <Trackpoint>
            <Time>2022-07-11T14:23:43.000Z</Time>
            <Position>
              <LatitudeDegrees>43.3075940050184726715087890625</LatitudeDegrees>
              <LongitudeDegrees>-2.6800096035003662109375</LongitudeDegrees>
            </Position>
            <AltitudeMeters>29</AltitudeMeters>
            <DistanceMeters>NAN</DistanceMeters>
          </Trackpoint>
          <Trackpoint>
            <Time>2022-07-11T14:23:50.000Z</Time>
            <Position>
              <LatitudeDegrees>43.30745897255837917327880859375</LatitudeDegrees>
              <LongitudeDegrees>-2.680062912404537200927734375</LongitudeDegrees>
            </Position>
            <AltitudeMeters>29.200000762939453125</AltitudeMeters>
            <DistanceMeters>NAN</DistanceMeters>
          </Trackpoint>
          <Trackpoint>
            <Time>2022-07-11T14:23:54.000Z</Time>
            <Position>
              <LatitudeDegrees>43.30736643634736537933349609375</LatitudeDegrees>
              <LongitudeDegrees>-2.68006257712841033935546875</LongitudeDegrees>
            </Position>
            <AltitudeMeters>29.200000762939453125</AltitudeMeters>
            <DistanceMeters>NAN</DistanceMeters>
          </Trackpoint>
          <Trackpoint>
            <Time>2022-07-11T14:23:56.000Z</Time>
            <Position>
              <LatitudeDegrees>43.30732435919344425201416015625</LatitudeDegrees>
              <LongitudeDegrees>-2.680083699524402618408203125</LongitudeDegrees>
            </Position>
            <AltitudeMeters>29.200000762939453125</AltitudeMeters>
            <DistanceMeters>NAN</DistanceMeters>
          </Trackpoint>
          <Trackpoint>
            <Time>2022-07-11T14:24:02.000Z</Time>
            <Position>
              <LatitudeDegrees>43.3072161488234996795654296875</LatitudeDegrees>
              <LongitudeDegrees>-2.6802059076726436614990234375</LongitudeDegrees>
            </Position>
            <AltitudeMeters>29.799999237060546875</AltitudeMeters>
            <DistanceMeters>NAN</DistanceMeters>
          </Trackpoint>
          <Trackpoint>
            <Time>2022-07-11T14:24:03.000Z</Time>
            <Position>
              <LatitudeDegrees>43.30719829536974430084228515625</LatitudeDegrees>
              <LongitudeDegrees>-2.68020498566329479217529296875</LongitudeDegrees>
            </Position>
            <AltitudeMeters>29.799999237060546875</AltitudeMeters>
            <DistanceMeters>NAN</DistanceMeters>
          </Trackpoint>
          <Trackpoint>
            <Time>2022-07-11T14:24:04.000Z</Time>
            <Position>
              <LatitudeDegrees>43.30718086101114749908447265625</LatitudeDegrees>
              <LongitudeDegrees>-2.680215798318386077880859375</LongitudeDegrees>
            </Position>
            <AltitudeMeters>29.6000003814697265625</AltitudeMeters>
            <DistanceMeters>NAN</DistanceMeters>
          </Trackpoint>
          <Trackpoint>
            <Time>2022-07-11T14:24:08.000Z</Time>
            <Position>
              <LatitudeDegrees>43.30710223875939846038818359375</LatitudeDegrees>
              <LongitudeDegrees>-2.68026642501354217529296875</LongitudeDegrees>
            </Position>
            <AltitudeMeters>29.3999996185302734375</AltitudeMeters>
            <DistanceMeters>NAN</DistanceMeters>
          </Trackpoint>
          <Trackpoint>
            <Time>2022-07-11T14:24:15.000Z</Time>
            <Position>
              <LatitudeDegrees>43.30697215162217617034912109375</LatitudeDegrees>
              <LongitudeDegrees>-2.68030774779617786407470703125</LongitudeDegrees>
            </Position>
            <AltitudeMeters>29.3999996185302734375</AltitudeMeters>
            <DistanceMeters>NAN</DistanceMeters>
          </Trackpoint>
          <Trackpoint>
            <Time>2022-07-11T14:24:20.000Z</Time>
            <Position>
              <LatitudeDegrees>43.30689151771366596221923828125</LatitudeDegrees>
              <LongitudeDegrees>-2.68036172725260257720947265625</LongitudeDegrees>
            </Position>
            <AltitudeMeters>29.3999996185302734375</AltitudeMeters>
            <DistanceMeters>NAN</DistanceMeters>
          </Trackpoint>
          <Trackpoint>
            <Time>2022-07-11T14:24:21.000Z</Time>
            <Position>
              <LatitudeDegrees>43.30687911249697208404541015625</LatitudeDegrees>
              <LongitudeDegrees>-2.680387794971466064453125</LongitudeDegrees>
            </Position>
            <AltitudeMeters>29.3999996185302734375</AltitudeMeters>
            <DistanceMeters>NAN</DistanceMeters>
          </Trackpoint>
          <Trackpoint>
            <Time>2022-07-11T14:24:24.000Z</Time>
            <Position>
              <LatitudeDegrees>43.30685363151133060455322265625</LatitudeDegrees>
              <LongitudeDegrees>-2.68047069199383258819580078125</LongitudeDegrees>
            </Position>
            <AltitudeMeters>29.799999237060546875</AltitudeMeters>
            <DistanceMeters>NAN</DistanceMeters>
          </Trackpoint>
          <Trackpoint>
            <Time>2022-07-11T14:24:26.000Z</Time>
            <Position>
              <LatitudeDegrees>43.30685229040682315826416015625</LatitudeDegrees>
              <LongitudeDegrees>-2.680529616773128509521484375</LongitudeDegrees>
            </Position>
            <AltitudeMeters>30</AltitudeMeters>
            <DistanceMeters>NAN</DistanceMeters>
          </Trackpoint>
          <Trackpoint>
            <Time>2022-07-11T14:24:31.000Z</Time>
            <Position>
              <LatitudeDegrees>43.306877352297306060791015625</LatitudeDegrees>
              <LongitudeDegrees>-2.680708654224872589111328125</LongitudeDegrees>
            </Position>
            <AltitudeMeters>30.200000762939453125</AltitudeMeters>
            <DistanceMeters>NAN</DistanceMeters>
          </Trackpoint>
          <Trackpoint>
            <Time>2022-07-11T14:24:32.000Z</Time>
            <Position>
              <LatitudeDegrees>43.3068859018385410308837890625</LatitudeDegrees>
              <LongitudeDegrees>-2.68073488958179950714111328125</LongitudeDegrees>
            </Position>
            <AltitudeMeters>30.200000762939453125</AltitudeMeters>
            <DistanceMeters>NAN</DistanceMeters>
          </Trackpoint>
          <Trackpoint>
            <Time>2022-07-11T14:24:37.000Z</Time>
            <Position>
              <LatitudeDegrees>43.30690040253102779388427734375</LatitudeDegrees>
              <LongitudeDegrees>-2.6808714307844638824462890625</LongitudeDegrees>
            </Position>
            <AltitudeMeters>30.200000762939453125</AltitudeMeters>
            <DistanceMeters>NAN</DistanceMeters>
          </Trackpoint>
          <Trackpoint>
            <Time>2022-07-11T14:24:39.000Z</Time>
            <Position>
              <LatitudeDegrees>43.30691968090832233428955078125</LatitudeDegrees>
              <LongitudeDegrees>-2.68089942634105682373046875</LongitudeDegrees>
            </Position>
            <AltitudeMeters>30.200000762939453125</AltitudeMeters>
            <DistanceMeters>NAN</DistanceMeters>
          </Trackpoint>
          <Trackpoint>
            <Time>2022-07-11T14:24:42.000Z</Time>
            <Position>
              <LatitudeDegrees>43.30691062845289707183837890625</LatitudeDegrees>
              <LongitudeDegrees>-2.68093831837177276611328125</LongitudeDegrees>
            </Position>
            <AltitudeMeters>30.6000003814697265625</AltitudeMeters>
            <DistanceMeters>NAN</DistanceMeters>
          </Trackpoint>
          <Trackpoint>
            <Time>2022-07-11T14:24:45.000Z</Time>
            <Position>
              <LatitudeDegrees>43.30688363872468471527099609375</LatitudeDegrees>
              <LongitudeDegrees>-2.6810092292726039886474609375</LongitudeDegrees>
            </Position>
            <AltitudeMeters>30.6000003814697265625</AltitudeMeters>
            <DistanceMeters>NAN</DistanceMeters>
          </Trackpoint>
          <Trackpoint>
            <Time>2022-07-11T14:24:46.000Z</Time>
            <Position>
              <LatitudeDegrees>43.30686721019446849822998046875</LatitudeDegrees>
              <LongitudeDegrees>-2.68102909438312053680419921875</LongitudeDegrees>
            </Position>
            <AltitudeMeters>30.799999237060546875</AltitudeMeters>
            <DistanceMeters>NAN</DistanceMeters>
          </Trackpoint>
          <Trackpoint>
            <Time>2022-07-11T14:24:47.000Z</Time>
            <Position>
              <LatitudeDegrees>43.3068461716175079345703125</LatitudeDegrees>
              <LongitudeDegrees>-2.68105004914104938507080078125</LongitudeDegrees>
            </Position>
            <AltitudeMeters>30.799999237060546875</AltitudeMeters>
            <DistanceMeters>NAN</DistanceMeters>
          </Trackpoint>
          <Trackpoint>
            <Time>2022-07-11T14:24:53.000Z</Time>
            <Position>
              <LatitudeDegrees>43.3067390508949756622314453125</LatitudeDegrees>
              <LongitudeDegrees>-2.68112649209797382354736328125</LongitudeDegrees>
            </Position>
            <AltitudeMeters>31</AltitudeMeters>
            <DistanceMeters>NAN</DistanceMeters>
          </Trackpoint>
          <Trackpoint>
            <Time>2022-07-11T14:24:57.000Z</Time>
            <Position>
              <LatitudeDegrees>43.30666956491768360137939453125</LatitudeDegrees>
              <LongitudeDegrees>-2.6811788789927959442138671875</LongitudeDegrees>
            </Position>
            <AltitudeMeters>31.200000762939453125</AltitudeMeters>
            <DistanceMeters>NAN</DistanceMeters>
          </Trackpoint>
          <Trackpoint>
            <Time>2022-07-11T14:25:00.000Z</Time>
            <Position>
              <LatitudeDegrees>43.3066139928996562957763671875</LatitudeDegrees>
              <LongitudeDegrees>-2.68121299333870410919189453125</LongitudeDegrees>
            </Position>
            <AltitudeMeters>31.200000762939453125</AltitudeMeters>
            <DistanceMeters>NAN</DistanceMeters>
          </Trackpoint>
          <Trackpoint>
            <Time>2022-07-11T14:25:02.000Z</Time>
            <Position>
              <LatitudeDegrees>43.30657535232603549957275390625</LatitudeDegrees>
              <LongitudeDegrees>-2.681227661669254302978515625</LongitudeDegrees>
            </Position>
            <AltitudeMeters>31.3999996185302734375</AltitudeMeters>
            <DistanceMeters>NAN</DistanceMeters>
          </Trackpoint>
          <Trackpoint>
            <Time>2022-07-11T14:25:12.000Z</Time>
            <Position>
              <LatitudeDegrees>43.30639782361686229705810546875</LatitudeDegrees>
              <LongitudeDegrees>-2.68130485899746417999267578125</LongitudeDegrees>
            </Position>
            <AltitudeMeters>31.799999237060546875</AltitudeMeters>
            <DistanceMeters>NAN</DistanceMeters>
          </Trackpoint>
          <Trackpoint>
            <Time>2022-07-11T14:25:14.000Z</Time>
            <Position>
              <LatitudeDegrees>43.30636672675609588623046875</LatitudeDegrees>
              <LongitudeDegrees>-2.6813341118395328521728515625</LongitudeDegrees>
            </Position>
            <AltitudeMeters>31.799999237060546875</AltitudeMeters>
            <DistanceMeters>NAN</DistanceMeters>
          </Trackpoint>
          <Trackpoint>
            <Time>2022-07-11T14:25:20.000Z</Time>
            <Position>
              <LatitudeDegrees>43.3062783814966678619384765625</LatitudeDegrees>
              <LongitudeDegrees>-2.68142203800380229949951171875</LongitudeDegrees>
            </Position>
            <AltitudeMeters>32.200000762939453125</AltitudeMeters>
            <DistanceMeters>NAN</DistanceMeters>
          </Trackpoint>
          <Trackpoint>
            <Time>2022-07-11T14:25:22.000Z</Time>
            <Position>
              <LatitudeDegrees>43.3062475360929965972900390625</LatitudeDegrees>
              <LongitudeDegrees>-2.68144165165722370147705078125</LongitudeDegrees>
            </Position>
            <AltitudeMeters>32.40000152587890625</AltitudeMeters>
            <DistanceMeters>NAN</DistanceMeters>
          </Trackpoint>
          <Trackpoint>
            <Time>2022-07-11T14:25:29.000Z</Time>
            <Position>
              <LatitudeDegrees>43.30610655248165130615234375</LatitudeDegrees>
              <LongitudeDegrees>-2.68152178265154361724853515625</LongitudeDegrees>
            </Position>
            <AltitudeMeters>32.59999847412109375</AltitudeMeters>
            <DistanceMeters>NAN</DistanceMeters>
          </Trackpoint>
          <Trackpoint>
            <Time>2022-07-11T14:25:37.000Z</Time>
            <Position>
              <LatitudeDegrees>43.3060282655060291290283203125</LatitudeDegrees>
              <LongitudeDegrees>-2.681723870337009429931640625</LongitudeDegrees>
            </Position>
            <AltitudeMeters>33</AltitudeMeters>
            <DistanceMeters>NAN</DistanceMeters>
          </Trackpoint>
          <Trackpoint>
            <Time>2022-07-11T14:25:46.000Z</Time>
            <Position>
              <LatitudeDegrees>43.3059065602719783782958984375</LatitudeDegrees>
              <LongitudeDegrees>-2.68192796967923641204833984375</LongitudeDegrees>
            </Position>
            <AltitudeMeters>33.40000152587890625</AltitudeMeters>
            <DistanceMeters>NAN</DistanceMeters>
          </Trackpoint>
          <Trackpoint>
            <Time>2022-07-11T14:25:50.000Z</Time>
            <Position>
              <LatitudeDegrees>43.30583003349602222442626953125</LatitudeDegrees>
              <LongitudeDegrees>-2.6819332502782344818115234375</LongitudeDegrees>
            </Position>
            <AltitudeMeters>33.59999847412109375</AltitudeMeters>
            <DistanceMeters>NAN</DistanceMeters>
          </Trackpoint>
          <Trackpoint>
            <Time>2022-07-11T14:25:51.000Z</Time>
            <Position>
              <LatitudeDegrees>43.30580773763358592987060546875</LatitudeDegrees>
              <LongitudeDegrees>-2.68192545510828495025634765625</LongitudeDegrees>
            </Position>
            <AltitudeMeters>33.799999237060546875</AltitudeMeters>
            <DistanceMeters>NAN</DistanceMeters>
          </Trackpoint>
          <Trackpoint>
            <Time>2022-07-11T14:25:59.000Z</Time>
            <Position>
              <LatitudeDegrees>43.30562509596347808837890625</LatitudeDegrees>
              <LongitudeDegrees>-2.68184968270361423492431640625</LongitudeDegrees>
            </Position>
            <AltitudeMeters>33.40000152587890625</AltitudeMeters>
            <DistanceMeters>NAN</DistanceMeters>
          </Trackpoint>
          <Trackpoint>
            <Time>2022-07-11T14:26:03.000Z</Time>
            <Position>
              <LatitudeDegrees>43.30548251979053020477294921875</LatitudeDegrees>
              <LongitudeDegrees>-2.681857310235500335693359375</LongitudeDegrees>
            </Position>
            <AltitudeMeters>33.200000762939453125</AltitudeMeters>
            <DistanceMeters>NAN</DistanceMeters>
          </Trackpoint>
          <Trackpoint>
            <Time>2022-07-11T14:26:08.000Z</Time>
            <Position>
              <LatitudeDegrees>43.3053174801170825958251953125</LatitudeDegrees>
              <LongitudeDegrees>-2.6819480024278163909912109375</LongitudeDegrees>
            </Position>
            <AltitudeMeters>33</AltitudeMeters>
            <DistanceMeters>NAN</DistanceMeters>
          </Trackpoint>
          <Trackpoint>
            <Time>2022-07-11T14:26:10.000Z</Time>
            <Position>
              <LatitudeDegrees>43.30525402911007404327392578125</LatitudeDegrees>
              <LongitudeDegrees>-2.68199284560978412628173828125</LongitudeDegrees>
            </Position>
            <AltitudeMeters>33</AltitudeMeters>
            <DistanceMeters>NAN</DistanceMeters>
          </Trackpoint>
          <Trackpoint>
            <Time>2022-07-11T14:26:13.000Z</Time>
            <Position>
              <LatitudeDegrees>43.30513785593211650848388671875</LatitudeDegrees>
              <LongitudeDegrees>-2.68204179592430591583251953125</LongitudeDegrees>
            </Position>
            <AltitudeMeters>33</AltitudeMeters>
            <DistanceMeters>NAN</DistanceMeters>
          </Trackpoint>
          <Trackpoint>
            <Time>2022-07-11T14:26:15.000Z</Time>
            <Position>
              <LatitudeDegrees>43.30507331527769565582275390625</LatitudeDegrees>
              <LongitudeDegrees>-2.68207867629826068878173828125</LongitudeDegrees>
            </Position>
            <AltitudeMeters>32.799999237060546875</AltitudeMeters>
            <DistanceMeters>NAN</DistanceMeters>
          </Trackpoint>
          <Trackpoint>
            <Time>2022-07-11T14:26:16.000Z</Time>
            <Position>
              <LatitudeDegrees>43.30504029057919979095458984375</LatitudeDegrees>
              <LongitudeDegrees>-2.6821015588939189910888671875</LongitudeDegrees>
            </Position>
            <AltitudeMeters>32.59999847412109375</AltitudeMeters>
            <DistanceMeters>NAN</DistanceMeters>
          </Trackpoint>
          <Trackpoint>
            <Time>2022-07-11T14:26:19.000Z</Time>
            <Position>
              <LatitudeDegrees>43.304913975298404693603515625</LatitudeDegrees>
              <LongitudeDegrees>-2.6821706257760524749755859375</LongitudeDegrees>
            </Position>
            <AltitudeMeters>32.200000762939453125</AltitudeMeters>
            <DistanceMeters>NAN</DistanceMeters>
          </Trackpoint>
          <Trackpoint>
            <Time>2022-07-11T14:26:29.000Z</Time>
            <Position>
              <LatitudeDegrees>43.30450166948139667510986328125</LatitudeDegrees>
              <LongitudeDegrees>-2.6824222505092620849609375</LongitudeDegrees>
            </Position>
            <AltitudeMeters>31.6000003814697265625</AltitudeMeters>
            <DistanceMeters>NAN</DistanceMeters>
          </Trackpoint>
          <Trackpoint>
            <Time>2022-07-11T14:26:30.000Z</Time>
            <Position>
              <LatitudeDegrees>43.3044628612697124481201171875</LatitudeDegrees>
              <LongitudeDegrees>-2.6824517548084259033203125</LongitudeDegrees>
            </Position>
            <AltitudeMeters>31.6000003814697265625</AltitudeMeters>
            <DistanceMeters>NAN</DistanceMeters>
          </Trackpoint>
          <Trackpoint>
            <Time>2022-07-11T14:26:32.000Z</Time>
            <Position>
              <LatitudeDegrees>43.30439873971045017242431640625</LatitudeDegrees>
              <LongitudeDegrees>-2.68250464461743831634521484375</LongitudeDegrees>
            </Position>
            <AltitudeMeters>31.3999996185302734375</AltitudeMeters>
            <DistanceMeters>NAN</DistanceMeters>
          </Trackpoint>
          <Trackpoint>
            <Time>2022-07-11T14:26:34.000Z</Time>
            <Position>
              <LatitudeDegrees>43.30434978939592838287353515625</LatitudeDegrees>
              <LongitudeDegrees>-2.6826100051403045654296875</LongitudeDegrees>
            </Position>
            <AltitudeMeters>31.6000003814697265625</AltitudeMeters>
            <DistanceMeters>NAN</DistanceMeters>
          </Trackpoint>
          <Trackpoint>
            <Time>2022-07-11T14:26:37.000Z</Time>
            <Position>
              <LatitudeDegrees>43.30431081354618072509765625</LatitudeDegrees>
              <LongitudeDegrees>-2.68274721689522266387939453125</LongitudeDegrees>
            </Position>
            <AltitudeMeters>31.6000003814697265625</AltitudeMeters>
            <DistanceMeters>NAN</DistanceMeters>
          </Trackpoint>
          <Trackpoint>
            <Time>2022-07-11T14:26:38.000Z</Time>
            <Position>
              <LatitudeDegrees>43.304282315075397491455078125</LatitudeDegrees>
              <LongitudeDegrees>-2.68277035094797611236572265625</LongitudeDegrees>
            </Position>
            <AltitudeMeters>31.6000003814697265625</AltitudeMeters>
            <DistanceMeters>NAN</DistanceMeters>
          </Trackpoint>
          <Trackpoint>
            <Time>2022-07-11T14:26:39.000Z</Time>
            <Position>
              <LatitudeDegrees>43.3042402379214763641357421875</LatitudeDegrees>
              <LongitudeDegrees>-2.6827768050134181976318359375</LongitudeDegrees>
            </Position>
            <AltitudeMeters>31.3999996185302734375</AltitudeMeters>
            <DistanceMeters>NAN</DistanceMeters>
          </Trackpoint>
          <Trackpoint>
            <Time>2022-07-11T14:26:41.000Z</Time>
            <Position>
              <LatitudeDegrees>43.3041631244122982025146484375</LatitudeDegrees>
              <LongitudeDegrees>-2.6827550120651721954345703125</LongitudeDegrees>
            </Position>
            <AltitudeMeters>31</AltitudeMeters>
            <DistanceMeters>NAN</DistanceMeters>
          </Trackpoint>
          <Trackpoint>
            <Time>2022-07-11T14:26:43.000Z</Time>
            <Position>
              <LatitudeDegrees>43.30406765453517436981201171875</LatitudeDegrees>
              <LongitudeDegrees>-2.68274067901074886322021484375</LongitudeDegrees>
            </Position>
            <AltitudeMeters>30.799999237060546875</AltitudeMeters>
            <DistanceMeters>NAN</DistanceMeters>
          </Trackpoint>
          <Trackpoint>
            <Time>2022-07-11T14:26:45.000Z</Time>
            <Position>
              <LatitudeDegrees>43.3039632998406887054443359375</LatitudeDegrees>
              <LongitudeDegrees>-2.6827704347670078277587890625</LongitudeDegrees>
            </Position>
            <AltitudeMeters>30.6000003814697265625</AltitudeMeters>
            <DistanceMeters>NAN</DistanceMeters>
          </Trackpoint>
          <Trackpoint>
            <Time>2022-07-11T14:26:48.000Z</Time>
            <Position>
              <LatitudeDegrees>43.30383069813251495361328125</LatitudeDegrees>
              <LongitudeDegrees>-2.6828549243509769439697265625</LongitudeDegrees>
            </Position>
            <AltitudeMeters>30.6000003814697265625</AltitudeMeters>
            <DistanceMeters>NAN</DistanceMeters>
          </Trackpoint>
          <Trackpoint>
            <Time>2022-07-11T14:26:52.000Z</Time>
            <Position>
              <LatitudeDegrees>43.30361804924905300140380859375</LatitudeDegrees>
              <LongitudeDegrees>-2.68298643641173839569091796875</LongitudeDegrees>
            </Position>
            <AltitudeMeters>30</AltitudeMeters>
            <DistanceMeters>NAN</DistanceMeters>
          </Trackpoint>
          <Trackpoint>
            <Time>2022-07-11T14:26:58.000Z</Time>
            <Position>
              <LatitudeDegrees>43.303299956023693084716796875</LatitudeDegrees>
              <LongitudeDegrees>-2.6831767894327640533447265625</LongitudeDegrees>
            </Position>
            <AltitudeMeters>29.6000003814697265625</AltitudeMeters>
            <DistanceMeters>NAN</DistanceMeters>
          </Trackpoint>
          <Trackpoint>
            <Time>2022-07-11T14:27:00.000Z</Time>
            <Position>
              <LatitudeDegrees>43.30317431129515171051025390625</LatitudeDegrees>
              <LongitudeDegrees>-2.68324996344745159149169921875</LongitudeDegrees>
            </Position>
            <AltitudeMeters>29.200000762939453125</AltitudeMeters>
            <DistanceMeters>NAN</DistanceMeters>
          </Trackpoint>
          <Trackpoint>
            <Time>2022-07-11T14:27:04.000Z</Time>
            <Position>
              <LatitudeDegrees>43.30295453779399394989013671875</LatitudeDegrees>
              <LongitudeDegrees>-2.68338776193559169769287109375</LongitudeDegrees>
            </Position>
            <AltitudeMeters>28.3999996185302734375</AltitudeMeters>
            <DistanceMeters>NAN</DistanceMeters>
          </Trackpoint>
          <Trackpoint>
            <Time>2022-07-11T14:27:09.000Z</Time>
            <Position>
              <LatitudeDegrees>43.30267022363841533660888671875</LatitudeDegrees>
              <LongitudeDegrees>-2.68357694149017333984375</LongitudeDegrees>
            </Position>
            <AltitudeMeters>28</AltitudeMeters>
            <DistanceMeters>NAN</DistanceMeters>
          </Trackpoint>
          <Trackpoint>
            <Time>2022-07-11T14:27:18.000Z</Time>
            <Position>
              <LatitudeDegrees>43.302213661372661590576171875</LatitudeDegrees>
              <LongitudeDegrees>-2.683911211788654327392578125</LongitudeDegrees>
            </Position>
            <AltitudeMeters>27.6000003814697265625</AltitudeMeters>
            <DistanceMeters>NAN</DistanceMeters>
          </Trackpoint>
          <Trackpoint>
            <Time>2022-07-11T14:27:19.000Z</Time>
            <Position>
              <LatitudeDegrees>43.30217954702675342559814453125</LatitudeDegrees>
              <LongitudeDegrees>-2.6839351840317249298095703125</LongitudeDegrees>
            </Position>
            <AltitudeMeters>27.3999996185302734375</AltitudeMeters>
            <DistanceMeters>NAN</DistanceMeters>
          </Trackpoint>
          <Trackpoint>
            <Time>2022-07-11T14:27:23.000Z</Time>
            <Position>
              <LatitudeDegrees>43.30201760865747928619384765625</LatitudeDegrees>
              <LongitudeDegrees>-2.6840558834373950958251953125</LongitudeDegrees>
            </Position>
            <AltitudeMeters>27.200000762939453125</AltitudeMeters>
            <DistanceMeters>NAN</DistanceMeters>
          </Trackpoint>
          <Trackpoint>
            <Time>2022-07-11T14:27:30.000Z</Time>
            <Position>
              <LatitudeDegrees>43.3017970807850360870361328125</LatitudeDegrees>
              <LongitudeDegrees>-2.6842379383742809295654296875</LongitudeDegrees>
            </Position>
            <AltitudeMeters>27.6000003814697265625</AltitudeMeters>
            <DistanceMeters>NAN</DistanceMeters>
          </Trackpoint>
          <Trackpoint>
            <Time>2022-07-11T14:27:32.000Z</Time>
            <Position>
              <LatitudeDegrees>43.301737569272518157958984375</LatitudeDegrees>
              <LongitudeDegrees>-2.6842909120023250579833984375</LongitudeDegrees>
            </Position>
            <AltitudeMeters>27.6000003814697265625</AltitudeMeters>
            <DistanceMeters>NAN</DistanceMeters>
          </Trackpoint>
          <Trackpoint>
            <Time>2022-07-11T14:27:37.000Z</Time>
            <Position>
              <LatitudeDegrees>43.30158594064414501190185546875</LatitudeDegrees>
              <LongitudeDegrees>-2.6844511739909648895263671875</LongitudeDegrees>
            </Position>
            <AltitudeMeters>27.799999237060546875</AltitudeMeters>
            <DistanceMeters>NAN</DistanceMeters>
          </Trackpoint>
          <Trackpoint>
            <Time>2022-07-11T14:27:39.000Z</Time>
            <Position>
              <LatitudeDegrees>43.30152659676969051361083984375</LatitudeDegrees>
              <LongitudeDegrees>-2.6845155470073223114013671875</LongitudeDegrees>
            </Position>
            <AltitudeMeters>28</AltitudeMeters>
            <DistanceMeters>NAN</DistanceMeters>
          </Trackpoint>
          <Trackpoint>
            <Time>2022-07-11T14:27:40.000Z</Time>
            <Position>
              <LatitudeDegrees>43.301498852670192718505859375</LatitudeDegrees>
              <LongitudeDegrees>-2.6845487393438816070556640625</LongitudeDegrees>
            </Position>
            <AltitudeMeters>28</AltitudeMeters>
            <DistanceMeters>NAN</DistanceMeters>
          </Trackpoint>
          <Trackpoint>
            <Time>2022-07-11T14:27:41.000Z</Time>
            <Position>
              <LatitudeDegrees>43.30146976746618747711181640625</LatitudeDegrees>
              <LongitudeDegrees>-2.684581764042377471923828125</LongitudeDegrees>
            </Position>
            <AltitudeMeters>28.200000762939453125</AltitudeMeters>
            <DistanceMeters>NAN</DistanceMeters>
          </Trackpoint>
          <Trackpoint>
            <Time>2022-07-11T14:27:47.000Z</Time>
            <Position>
              <LatitudeDegrees>43.3013206534087657928466796875</LatitudeDegrees>
              <LongitudeDegrees>-2.68474034965038299560546875</LongitudeDegrees>
            </Position>
            <AltitudeMeters>28.200000762939453125</AltitudeMeters>
            <DistanceMeters>NAN</DistanceMeters>
          </Trackpoint>
          <Trackpoint>
            <Time>2022-07-11T14:27:48.000Z</Time>
            <Position>
              <LatitudeDegrees>43.3012921549379825592041015625</LatitudeDegrees>
              <LongitudeDegrees>-2.6847609691321849822998046875</LongitudeDegrees>
            </Position>
            <AltitudeMeters>28.3999996185302734375</AltitudeMeters>
            <DistanceMeters>NAN</DistanceMeters>
          </Trackpoint>
          <Trackpoint>
            <Time>2022-07-11T14:27:50.000Z</Time>
            <Position>
              <LatitudeDegrees>43.30124177969992160797119140625</LatitudeDegrees>
              <LongitudeDegrees>-2.6848095841705799102783203125</LongitudeDegrees>
            </Position>
            <AltitudeMeters>28.3999996185302734375</AltitudeMeters>
            <DistanceMeters>NAN</DistanceMeters>
          </Trackpoint>
          <Trackpoint>
            <Time>2022-07-11T14:27:51.000Z</Time>
            <Position>
              <LatitudeDegrees>43.3012200705707073211669921875</LatitudeDegrees>
              <LongitudeDegrees>-2.68483950756490230560302734375</LongitudeDegrees>
            </Position>
            <AltitudeMeters>28.6000003814697265625</AltitudeMeters>
            <DistanceMeters>NAN</DistanceMeters>
          </Trackpoint>
          <Trackpoint>
            <Time>2022-07-11T14:27:55.000Z</Time>
            <Position>
              <LatitudeDegrees>43.30115812830626964569091796875</LatitudeDegrees>
              <LongitudeDegrees>-2.6849205605685710906982421875</LongitudeDegrees>
            </Position>
            <AltitudeMeters>28.799999237060546875</AltitudeMeters>
            <DistanceMeters>NAN</DistanceMeters>
          </Trackpoint>
          <Trackpoint>
            <Time>2022-07-11T14:27:57.000Z</Time>
            <Position>
              <LatitudeDegrees>43.30115460790693759918212890625</LatitudeDegrees>
              <LongitudeDegrees>-2.6849225722253322601318359375</LongitudeDegrees>
            </Position>
            <AltitudeMeters>28.799999237060546875</AltitudeMeters>
            <DistanceMeters>NAN</DistanceMeters>
          </Trackpoint>
          <Trackpoint>
            <Time>2022-07-11T14:30:03.000Z</Time>
            <Position>
              <LatitudeDegrees>43.30112703144550323486328125</LatitudeDegrees>
              <LongitudeDegrees>-2.68498904071748256683349609375</LongitudeDegrees>
            </Position>
            <AltitudeMeters>27</AltitudeMeters>
            <DistanceMeters>NAN</DistanceMeters>
          </Trackpoint>
          <Trackpoint>
            <Time>2022-07-11T14:30:07.000Z</Time>
            <Position>
              <LatitudeDegrees>43.30103709362447261810302734375</LatitudeDegrees>
              <LongitudeDegrees>-2.6850808225572109222412109375</LongitudeDegrees>
            </Position>
            <AltitudeMeters>27</AltitudeMeters>
            <DistanceMeters>NAN</DistanceMeters>
          </Trackpoint>
          <Trackpoint>
            <Time>2022-07-11T14:30:09.000Z</Time>
            <Position>
              <LatitudeDegrees>43.300997279584407806396484375</LatitudeDegrees>
              <LongitudeDegrees>-2.6851232349872589111328125</LongitudeDegrees>
            </Position>
            <AltitudeMeters>27.200000762939453125</AltitudeMeters>
            <DistanceMeters>NAN</DistanceMeters>
          </Trackpoint>
          <Trackpoint>
            <Time>2022-07-11T14:30:13.000Z</Time>
            <Position>
              <LatitudeDegrees>43.300908096134662628173828125</LatitudeDegrees>
              <LongitudeDegrees>-2.68520864658057689666748046875</LongitudeDegrees>
            </Position>
            <AltitudeMeters>27.6000003814697265625</AltitudeMeters>
            <DistanceMeters>NAN</DistanceMeters>
          </Trackpoint>
          <Trackpoint>
            <Time>2022-07-11T14:30:15.000Z</Time>
            <Position>
              <LatitudeDegrees>43.300868533551692962646484375</LatitudeDegrees>
              <LongitudeDegrees>-2.68524619750678539276123046875</LongitudeDegrees>
            </Position>
            <AltitudeMeters>28</AltitudeMeters>
            <DistanceMeters>NAN</DistanceMeters>
          </Trackpoint>
          <Trackpoint>
            <Time>2022-07-11T14:30:19.000Z</Time>
            <Position>
              <LatitudeDegrees>43.300794102251529693603515625</LatitudeDegrees>
              <LongitudeDegrees>-2.685316689312458038330078125</LongitudeDegrees>
            </Position>
            <AltitudeMeters>28.6000003814697265625</AltitudeMeters>
            <DistanceMeters>NAN</DistanceMeters>
          </Trackpoint>
          <Trackpoint>
            <Time>2022-07-11T14:30:25.000Z</Time>
            <Position>
              <LatitudeDegrees>43.3006608299911022186279296875</LatitudeDegrees>
              <LongitudeDegrees>-2.68544233404099941253662109375</LongitudeDegrees>
            </Position>
            <AltitudeMeters>28.799999237060546875</AltitudeMeters>
            <DistanceMeters>NAN</DistanceMeters>
          </Trackpoint>
          <Trackpoint>
            <Time>2022-07-11T14:30:27.000Z</Time>
            <Position>
              <LatitudeDegrees>43.3006185851991176605224609375</LatitudeDegrees>
              <LongitudeDegrees>-2.6854804717004299163818359375</LongitudeDegrees>
            </Position>
            <AltitudeMeters>29</AltitudeMeters>
            <DistanceMeters>NAN</DistanceMeters>
          </Trackpoint>
          <Trackpoint>
            <Time>2022-07-11T14:30:29.000Z</Time>
            <Position>
              <LatitudeDegrees>43.3005692996084690093994140625</LatitudeDegrees>
              <LongitudeDegrees>-2.68552363850176334381103515625</LongitudeDegrees>
            </Position>
            <AltitudeMeters>29.200000762939453125</AltitudeMeters>
            <DistanceMeters>NAN</DistanceMeters>
          </Trackpoint>
          <Trackpoint>
            <Time>2022-07-11T14:30:30.000Z</Time>
            <Position>
              <LatitudeDegrees>43.3005384542047977447509765625</LatitudeDegrees>
              <LongitudeDegrees>-2.68554509617388248443603515625</LongitudeDegrees>
            </Position>
            <AltitudeMeters>29.200000762939453125</AltitudeMeters>
            <DistanceMeters>NAN</DistanceMeters>
          </Trackpoint>
          <Trackpoint>
            <Time>2022-07-11T14:30:32.000Z</Time>
            <Position>
              <LatitudeDegrees>43.3004935272037982940673828125</LatitudeDegrees>
              <LongitudeDegrees>-2.6855817250907421112060546875</LongitudeDegrees>
            </Position>
            <AltitudeMeters>29.200000762939453125</AltitudeMeters>
            <DistanceMeters>NAN</DistanceMeters>
          </Trackpoint>
          <Trackpoint>
            <Time>2022-07-11T14:30:38.000Z</Time>
            <Position>
              <LatitudeDegrees>43.30033485777676105499267578125</LatitudeDegrees>
              <LongitudeDegrees>-2.68568473868072032928466796875</LongitudeDegrees>
            </Position>
            <AltitudeMeters>29.3999996185302734375</AltitudeMeters>
            <DistanceMeters>NAN</DistanceMeters>
          </Trackpoint>
          <Trackpoint>
            <Time>2022-07-11T14:30:45.000Z</Time>
            <Position>
              <LatitudeDegrees>43.30012463964521884918212890625</LatitudeDegrees>
              <LongitudeDegrees>-2.685798816382884979248046875</LongitudeDegrees>
            </Position>
            <AltitudeMeters>29.3999996185302734375</AltitudeMeters>
            <DistanceMeters>NAN</DistanceMeters>
          </Trackpoint>
          <Trackpoint>
            <Time>2022-07-11T14:30:48.000Z</Time>
            <Position>
              <LatitudeDegrees>43.30003126524388790130615234375</LatitudeDegrees>
              <LongitudeDegrees>-2.68584181554615497589111328125</LongitudeDegrees>
            </Position>
            <AltitudeMeters>29.200000762939453125</AltitudeMeters>
            <DistanceMeters>NAN</DistanceMeters>
          </Trackpoint>
          <Trackpoint>
            <Time>2022-07-11T14:30:54.000Z</Time>
            <Position>
              <LatitudeDegrees>43.2998122461140155792236328125</LatitudeDegrees>
              <LongitudeDegrees>-2.68592814914882183074951171875</LongitudeDegrees>
            </Position>
            <AltitudeMeters>28.799999237060546875</AltitudeMeters>
            <DistanceMeters>NAN</DistanceMeters>
          </Trackpoint>
          <Trackpoint>
            <Time>2022-07-11T14:30:57.000Z</Time>
            <Position>
              <LatitudeDegrees>43.29969364218413829803466796875</LatitudeDegrees>
              <LongitudeDegrees>-2.68596067093312740325927734375</LongitudeDegrees>
            </Position>
            <AltitudeMeters>28.799999237060546875</AltitudeMeters>
            <DistanceMeters>NAN</DistanceMeters>
          </Trackpoint>
          <Trackpoint>
            <Time>2022-07-11T14:30:58.000Z</Time>
            <Position>
              <LatitudeDegrees>43.2996506430208683013916015625</LatitudeDegrees>
              <LongitudeDegrees>-2.6859699748456478118896484375</LongitudeDegrees>
            </Position>
            <AltitudeMeters>28.799999237060546875</AltitudeMeters>
            <DistanceMeters>NAN</DistanceMeters>
          </Trackpoint>
          <Trackpoint>
            <Time>2022-07-11T14:31:01.000Z</Time>
            <Position>
              <LatitudeDegrees>43.299520723521709442138671875</LatitudeDegrees>
              <LongitudeDegrees>-2.6860003173351287841796875</LongitudeDegrees>
            </Position>
            <AltitudeMeters>28.6000003814697265625</AltitudeMeters>
            <DistanceMeters>NAN</DistanceMeters>
          </Trackpoint>
          <Trackpoint>
            <Time>2022-07-11T14:31:03.000Z</Time>
            <Position>
              <LatitudeDegrees>43.29942961223423480987548828125</LatitudeDegrees>
              <LongitudeDegrees>-2.68602537922561168670654296875</LongitudeDegrees>
            </Position>
            <AltitudeMeters>28.3999996185302734375</AltitudeMeters>
            <DistanceMeters>NAN</DistanceMeters>
          </Trackpoint>
          <Trackpoint>
            <Time>2022-07-11T14:31:05.000Z</Time>
            <Position>
              <LatitudeDegrees>43.29933254979550838470458984375</LatitudeDegrees>
              <LongitudeDegrees>-2.68604700453579425811767578125</LongitudeDegrees>
            </Position>
            <AltitudeMeters>28.200000762939453125</AltitudeMeters>
            <DistanceMeters>NAN</DistanceMeters>
          </Trackpoint>
          <Trackpoint>
            <Time>2022-07-11T14:31:06.000Z</Time>
            <Position>
              <LatitudeDegrees>43.299277983605861663818359375</LatitudeDegrees>
              <LongitudeDegrees>-2.68605773337185382843017578125</LongitudeDegrees>
            </Position>
            <AltitudeMeters>28.200000762939453125</AltitudeMeters>
            <DistanceMeters>NAN</DistanceMeters>
          </Trackpoint>
          <Trackpoint>
            <Time>2022-07-11T14:31:07.000Z</Time>
            <Position>
              <LatitudeDegrees>43.2992214895784854888916015625</LatitudeDegrees>
              <LongitudeDegrees>-2.68606963567435741424560546875</LongitudeDegrees>
            </Position>
            <AltitudeMeters>28.200000762939453125</AltitudeMeters>
            <DistanceMeters>NAN</DistanceMeters>
          </Trackpoint>
          <Trackpoint>
            <Time>2022-07-11T14:31:08.000Z</Time>
            <Position>
              <LatitudeDegrees>43.29916507937014102935791015625</LatitudeDegrees>
              <LongitudeDegrees>-2.68608271144330501556396484375</LongitudeDegrees>
            </Position>
            <AltitudeMeters>28</AltitudeMeters>
            <DistanceMeters>NAN</DistanceMeters>
          </Trackpoint>
          <Trackpoint>
            <Time>2022-07-11T14:31:10.000Z</Time>
            <Position>
              <LatitudeDegrees>43.29904303885996341705322265625</LatitudeDegrees>
              <LongitudeDegrees>-2.686104588210582733154296875</LongitudeDegrees>
            </Position>
            <AltitudeMeters>27.6000003814697265625</AltitudeMeters>
            <DistanceMeters>NAN</DistanceMeters>
          </Trackpoint>
          <Trackpoint>
            <Time>2022-07-11T14:31:13.000Z</Time>
            <Position>
              <LatitudeDegrees>43.29884673468768596649169921875</LatitudeDegrees>
              <LongitudeDegrees>-2.686126716434955596923828125</LongitudeDegrees>
            </Position>
            <AltitudeMeters>27.200000762939453125</AltitudeMeters>
            <DistanceMeters>NAN</DistanceMeters>
          </Trackpoint>
          <Trackpoint>
            <Time>2022-07-11T14:31:14.000Z</Time>
            <Position>
              <LatitudeDegrees>43.2987920008599758148193359375</LatitudeDegrees>
              <LongitudeDegrees>-2.68613317050039768218994140625</LongitudeDegrees>
            </Position>
            <AltitudeMeters>27.200000762939453125</AltitudeMeters>
            <DistanceMeters>NAN</DistanceMeters>
          </Trackpoint>
          <Trackpoint>
            <Time>2022-07-11T14:31:15.000Z</Time>
            <Position>
              <LatitudeDegrees>43.2987242750823497772216796875</LatitudeDegrees>
              <LongitudeDegrees>-2.68614037893712520599365234375</LongitudeDegrees>
            </Position>
            <AltitudeMeters>26.799999237060546875</AltitudeMeters>
            <DistanceMeters>NAN</DistanceMeters>
          </Trackpoint>
          <Trackpoint>
            <Time>2022-07-11T14:31:19.000Z</Time>
            <Position>
              <LatitudeDegrees>43.29843333922326564788818359375</LatitudeDegrees>
              <LongitudeDegrees>-2.6861842162907123565673828125</LongitudeDegrees>
            </Position>
            <AltitudeMeters>25.799999237060546875</AltitudeMeters>
            <DistanceMeters>NAN</DistanceMeters>
          </Trackpoint>
          <Trackpoint>
            <Time>2022-07-11T14:31:20.000Z</Time>
            <Position>
              <LatitudeDegrees>43.29837919212877750396728515625</LatitudeDegrees>
              <LongitudeDegrees>-2.6861946098506450653076171875</LongitudeDegrees>
            </Position>
            <AltitudeMeters>25.799999237060546875</AltitudeMeters>
            <DistanceMeters>NAN</DistanceMeters>
          </Trackpoint>
          <Trackpoint>
            <Time>2022-07-11T14:31:21.000Z</Time>
            <Position>
              <LatitudeDegrees>43.29831314273178577423095703125</LatitudeDegrees>
              <LongitudeDegrees>-2.68620751798152923583984375</LongitudeDegrees>
            </Position>
            <AltitudeMeters>25.799999237060546875</AltitudeMeters>
            <DistanceMeters>NAN</DistanceMeters>
          </Trackpoint>
          <Trackpoint>
            <Time>2022-07-11T14:31:30.000Z</Time>
            <Position>
              <LatitudeDegrees>43.297733031213283538818359375</LatitudeDegrees>
              <LongitudeDegrees>-2.6863072626292705535888671875</LongitudeDegrees>
            </Position>
            <AltitudeMeters>25.6000003814697265625</AltitudeMeters>
            <DistanceMeters>NAN</DistanceMeters>
          </Trackpoint>
          <Trackpoint>
            <Time>2022-07-11T14:31:32.000Z</Time>
            <Position>
              <LatitudeDegrees>43.29762415029108524322509765625</LatitudeDegrees>
              <LongitudeDegrees>-2.68633115105330944061279296875</LongitudeDegrees>
            </Position>
            <AltitudeMeters>25.6000003814697265625</AltitudeMeters>
            <DistanceMeters>NAN</DistanceMeters>
          </Trackpoint>
          <Trackpoint>
            <Time>2022-07-11T14:31:36.000Z</Time>
            <Position>
              <LatitudeDegrees>43.2974066399037837982177734375</LatitudeDegrees>
              <LongitudeDegrees>-2.68637792207300662994384765625</LongitudeDegrees>
            </Position>
            <AltitudeMeters>25.3999996185302734375</AltitudeMeters>
            <DistanceMeters>NAN</DistanceMeters>
          </Trackpoint>
          <Trackpoint>
            <Time>2022-07-11T14:31:40.000Z</Time>
            <Position>
              <LatitudeDegrees>43.2972049713134765625</LatitudeDegrees>
              <LongitudeDegrees>-2.6864303089678287506103515625</LongitudeDegrees>
            </Position>
            <AltitudeMeters>25.6000003814697265625</AltitudeMeters>
            <DistanceMeters>NAN</DistanceMeters>
          </Trackpoint>
          <Trackpoint>
            <Time>2022-07-11T14:31:43.000Z</Time>
            <Position>
              <LatitudeDegrees>43.29706205986440181732177734375</LatitudeDegrees>
              <LongitudeDegrees>-2.68647573888301849365234375</LongitudeDegrees>
            </Position>
            <AltitudeMeters>25.6000003814697265625</AltitudeMeters>
            <DistanceMeters>NAN</DistanceMeters>
          </Trackpoint>
          <Trackpoint>
            <Time>2022-07-11T14:31:48.000Z</Time>
            <Position>
              <LatitudeDegrees>43.29683239571750164031982421875</LatitudeDegrees>
              <LongitudeDegrees>-2.686547823250293731689453125</LongitudeDegrees>
            </Position>
            <AltitudeMeters>25.200000762939453125</AltitudeMeters>
            <DistanceMeters>NAN</DistanceMeters>
          </Trackpoint>
          <Trackpoint>
            <Time>2022-07-11T14:31:52.000Z</Time>
            <Position>
              <LatitudeDegrees>43.2966536097228527069091796875</LatitudeDegrees>
              <LongitudeDegrees>-2.68660607747733592987060546875</LongitudeDegrees>
            </Position>
            <AltitudeMeters>25</AltitudeMeters>
            <DistanceMeters>NAN</DistanceMeters>
          </Trackpoint>
          <Trackpoint>
            <Time>2022-07-11T14:31:56.000Z</Time>
            <Position>
              <LatitudeDegrees>43.29648278653621673583984375</LatitudeDegrees>
              <LongitudeDegrees>-2.686649076640605926513671875</LongitudeDegrees>
            </Position>
            <AltitudeMeters>25</AltitudeMeters>
            <DistanceMeters>NAN</DistanceMeters>
          </Trackpoint>
          <Trackpoint>
            <Time>2022-07-11T14:31:59.000Z</Time>
            <Position>
              <LatitudeDegrees>43.29635596834123134613037109375</LatitudeDegrees>
              <LongitudeDegrees>-2.68667279742658138275146484375</LongitudeDegrees>
            </Position>
            <AltitudeMeters>25</AltitudeMeters>
            <DistanceMeters>NAN</DistanceMeters>
          </Trackpoint>
          <Trackpoint>
            <Time>2022-07-11T14:32:04.000Z</Time>
            <Position>
              <LatitudeDegrees>43.29616670496761798858642578125</LatitudeDegrees>
              <LongitudeDegrees>-2.6867111027240753173828125</LongitudeDegrees>
            </Position>
            <AltitudeMeters>25</AltitudeMeters>
            <DistanceMeters>NAN</DistanceMeters>
          </Trackpoint>
          <Trackpoint>
            <Time>2022-07-11T14:32:14.000Z</Time>
            <Position>
              <LatitudeDegrees>43.29578666947782039642333984375</LatitudeDegrees>
              <LongitudeDegrees>-2.68679953180253505706787109375</LongitudeDegrees>
            </Position>
            <AltitudeMeters>25.3999996185302734375</AltitudeMeters>
            <DistanceMeters>NAN</DistanceMeters>
          </Trackpoint>
          <Trackpoint>
            <Time>2022-07-11T14:32:15.000Z</Time>
            <Position>
              <LatitudeDegrees>43.295744173228740692138671875</LatitudeDegrees>
              <LongitudeDegrees>-2.6867971010506153106689453125</LongitudeDegrees>
            </Position>
            <AltitudeMeters>25.3999996185302734375</AltitudeMeters>
            <DistanceMeters>NAN</DistanceMeters>
          </Trackpoint>
          <Trackpoint>
            <Time>2022-07-11T14:32:21.000Z</Time>
            <Position>
              <LatitudeDegrees>43.29547804780304431915283203125</LatitudeDegrees>
              <LongitudeDegrees>-2.6868483982980251312255859375</LongitudeDegrees>
            </Position>
            <AltitudeMeters>25.6000003814697265625</AltitudeMeters>
            <DistanceMeters>NAN</DistanceMeters>
          </Trackpoint>
          <Trackpoint>
            <Time>2022-07-11T14:32:24.000Z</Time>
            <Position>
              <LatitudeDegrees>43.29535885713994503021240234375</LatitudeDegrees>
              <LongitudeDegrees>-2.68687647767364978790283203125</LongitudeDegrees>
            </Position>
            <AltitudeMeters>25.6000003814697265625</AltitudeMeters>
            <DistanceMeters>NAN</DistanceMeters>
          </Trackpoint>
          <Trackpoint>
            <Time>2022-07-11T14:32:26.000Z</Time>
            <Position>
              <LatitudeDegrees>43.29526531510055065155029296875</LatitudeDegrees>
              <LongitudeDegrees>-2.6869033835828304290771484375</LongitudeDegrees>
            </Position>
            <AltitudeMeters>25.799999237060546875</AltitudeMeters>
            <DistanceMeters>NAN</DistanceMeters>
          </Trackpoint>
          <Trackpoint>
            <Time>2022-07-11T14:32:31.000Z</Time>
            <Position>
              <LatitudeDegrees>43.29506850801408290863037109375</LatitudeDegrees>
              <LongitudeDegrees>-2.686937414109706878662109375</LongitudeDegrees>
            </Position>
            <AltitudeMeters>25.799999237060546875</AltitudeMeters>
            <DistanceMeters>NAN</DistanceMeters>
          </Trackpoint>
          <Trackpoint>
            <Time>2022-07-11T14:32:39.000Z</Time>
            <Position>
              <LatitudeDegrees>43.29472459852695465087890625</LatitudeDegrees>
              <LongitudeDegrees>-2.68699944019317626953125</LongitudeDegrees>
            </Position>
            <AltitudeMeters>25.799999237060546875</AltitudeMeters>
            <DistanceMeters>NAN</DistanceMeters>
          </Trackpoint>
          <Trackpoint>
            <Time>2022-07-11T14:32:42.000Z</Time>
            <Position>
              <LatitudeDegrees>43.29460331238806247711181640625</LatitudeDegrees>
              <LongitudeDegrees>-2.68701662309467792510986328125</LongitudeDegrees>
            </Position>
            <AltitudeMeters>26</AltitudeMeters>
            <DistanceMeters>NAN</DistanceMeters>
          </Trackpoint>
          <Trackpoint>
            <Time>2022-07-11T14:32:43.000Z</Time>
            <Position>
              <LatitudeDegrees>43.29455335624516010284423828125</LatitudeDegrees>
              <LongitudeDegrees>-2.68703388981521129608154296875</LongitudeDegrees>
            </Position>
            <AltitudeMeters>26</AltitudeMeters>
            <DistanceMeters>NAN</DistanceMeters>
          </Trackpoint>
          <Trackpoint>
            <Time>2022-07-11T14:32:49.000Z</Time>
            <Position>
              <LatitudeDegrees>43.294323943555355072021484375</LatitudeDegrees>
              <LongitudeDegrees>-2.68709625117480754852294921875</LongitudeDegrees>
            </Position>
            <AltitudeMeters>26.3999996185302734375</AltitudeMeters>
            <DistanceMeters>NAN</DistanceMeters>
          </Trackpoint>
          <Trackpoint>
            <Time>2022-07-11T14:32:59.000Z</Time>
            <Position>
              <LatitudeDegrees>43.29393225722014904022216796875</LatitudeDegrees>
              <LongitudeDegrees>-2.68718224950134754180908203125</LongitudeDegrees>
            </Position>
            <AltitudeMeters>26.3999996185302734375</AltitudeMeters>
            <DistanceMeters>NAN</DistanceMeters>
          </Trackpoint>
          <Trackpoint>
            <Time>2022-07-11T14:33:07.000Z</Time>
            <Position>
              <LatitudeDegrees>43.2936431653797626495361328125</LatitudeDegrees>
              <LongitudeDegrees>-2.68724712543189525604248046875</LongitudeDegrees>
            </Position>
            <AltitudeMeters>27</AltitudeMeters>
            <DistanceMeters>NAN</DistanceMeters>
          </Trackpoint>
          <Trackpoint>
            <Time>2022-07-11T14:33:08.000Z</Time>
            <Position>
              <LatitudeDegrees>43.2936079613864421844482421875</LatitudeDegrees>
              <LongitudeDegrees>-2.68725701607763767242431640625</LongitudeDegrees>
            </Position>
            <AltitudeMeters>27</AltitudeMeters>
            <DistanceMeters>NAN</DistanceMeters>
          </Trackpoint>
          <Trackpoint>
            <Time>2022-07-11T14:33:19.000Z</Time>
            <Position>
              <LatitudeDegrees>43.29321241937577724456787109375</LatitudeDegrees>
              <LongitudeDegrees>-2.6873322017490863800048828125</LongitudeDegrees>
            </Position>
            <AltitudeMeters>27.3999996185302734375</AltitudeMeters>
            <DistanceMeters>NAN</DistanceMeters>
          </Trackpoint>
          <Trackpoint>
            <Time>2022-07-11T14:33:25.000Z</Time>
            <Position>
              <LatitudeDegrees>43.29299817793071269989013671875</LatitudeDegrees>
              <LongitudeDegrees>-2.687377631664276123046875</LongitudeDegrees>
            </Position>
            <AltitudeMeters>27.6000003814697265625</AltitudeMeters>
            <DistanceMeters>NAN</DistanceMeters>
          </Trackpoint>
          <Trackpoint>
            <Time>2022-07-11T14:33:37.000Z</Time>
            <Position>
              <LatitudeDegrees>43.29252895899116992950439453125</LatitudeDegrees>
              <LongitudeDegrees>-2.68748299218714237213134765625</LongitudeDegrees>
            </Position>
            <AltitudeMeters>27.799999237060546875</AltitudeMeters>
            <DistanceMeters>NAN</DistanceMeters>
          </Trackpoint>
          <Trackpoint>
            <Time>2022-07-11T14:33:43.000Z</Time>
            <Position>
              <LatitudeDegrees>43.2922852970659732818603515625</LatitudeDegrees>
              <LongitudeDegrees>-2.6875665597617626190185546875</LongitudeDegrees>
            </Position>
            <AltitudeMeters>27.6000003814697265625</AltitudeMeters>
            <DistanceMeters>NAN</DistanceMeters>
          </Trackpoint>
          <Trackpoint>
            <Time>2022-07-11T14:33:46.000Z</Time>
            <Position>
              <LatitudeDegrees>43.2921691238880157470703125</LatitudeDegrees>
              <LongitudeDegrees>-2.68762850202620029449462890625</LongitudeDegrees>
            </Position>
            <AltitudeMeters>27.3999996185302734375</AltitudeMeters>
            <DistanceMeters>NAN</DistanceMeters>
          </Trackpoint>
          <Trackpoint>
            <Time>2022-07-11T14:33:48.000Z</Time>
            <Position>
              <LatitudeDegrees>43.29209511168301105499267578125</LatitudeDegrees>
              <LongitudeDegrees>-2.687673009932041168212890625</LongitudeDegrees>
            </Position>
            <AltitudeMeters>27.3999996185302734375</AltitudeMeters>
            <DistanceMeters>NAN</DistanceMeters>
          </Trackpoint>
          <Trackpoint>
            <Time>2022-07-11T14:33:50.000Z</Time>
            <Position>
              <LatitudeDegrees>43.2920093648135662078857421875</LatitudeDegrees>
              <LongitudeDegrees>-2.687725313007831573486328125</LongitudeDegrees>
            </Position>
            <AltitudeMeters>27.3999996185302734375</AltitudeMeters>
            <DistanceMeters>NAN</DistanceMeters>
          </Trackpoint>
          <Trackpoint>
            <Time>2022-07-11T14:33:54.000Z</Time>
            <Position>
              <LatitudeDegrees>43.29185555689036846160888671875</LatitudeDegrees>
              <LongitudeDegrees>-2.6878398098051548004150390625</LongitudeDegrees>
            </Position>
            <AltitudeMeters>27.200000762939453125</AltitudeMeters>
            <DistanceMeters>NAN</DistanceMeters>
          </Trackpoint>
          <Trackpoint>
            <Time>2022-07-11T14:34:01.000Z</Time>
            <Position>
              <LatitudeDegrees>43.2915751822292804718017578125</LatitudeDegrees>
              <LongitudeDegrees>-2.68804608844220638275146484375</LongitudeDegrees>
            </Position>
            <AltitudeMeters>26.799999237060546875</AltitudeMeters>
            <DistanceMeters>NAN</DistanceMeters>
          </Trackpoint>
          <Trackpoint>
            <Time>2022-07-11T14:34:03.000Z</Time>
            <Position>
              <LatitudeDegrees>43.29149723052978515625</LatitudeDegrees>
              <LongitudeDegrees>-2.6881100423634052276611328125</LongitudeDegrees>
            </Position>
            <AltitudeMeters>26.6000003814697265625</AltitudeMeters>
            <DistanceMeters>NAN</DistanceMeters>
          </Trackpoint>
          <Trackpoint>
            <Time>2022-07-11T14:34:13.000Z</Time>
            <Position>
              <LatitudeDegrees>43.29109615646302700042724609375</LatitudeDegrees>
              <LongitudeDegrees>-2.6884345896542072296142578125</LongitudeDegrees>
            </Position>
            <AltitudeMeters>26.3999996185302734375</AltitudeMeters>
            <DistanceMeters>NAN</DistanceMeters>
          </Trackpoint>
          <Trackpoint>
            <Time>2022-07-11T14:34:21.000Z</Time>
            <Position>
              <LatitudeDegrees>43.29077093861997127532958984375</LatitudeDegrees>
              <LongitudeDegrees>-2.68869400955736637115478515625</LongitudeDegrees>
            </Position>
            <AltitudeMeters>26.799999237060546875</AltitudeMeters>
            <DistanceMeters>NAN</DistanceMeters>
          </Trackpoint>
          <Trackpoint>
            <Time>2022-07-11T14:34:22.000Z</Time>
            <Position>
              <LatitudeDegrees>43.2907302863895893096923828125</LatitudeDegrees>
              <LongitudeDegrees>-2.6887242682278156280517578125</LongitudeDegrees>
            </Position>
            <AltitudeMeters>26.799999237060546875</AltitudeMeters>
            <DistanceMeters>NAN</DistanceMeters>
          </Trackpoint>
          <Trackpoint>
            <Time>2022-07-11T14:34:24.000Z</Time>
            <Position>
              <LatitudeDegrees>43.2906528376042842864990234375</LatitudeDegrees>
              <LongitudeDegrees>-2.68879191018640995025634765625</LongitudeDegrees>
            </Position>
            <AltitudeMeters>26.799999237060546875</AltitudeMeters>
            <DistanceMeters>NAN</DistanceMeters>
          </Trackpoint>
          <Trackpoint>
            <Time>2022-07-11T14:34:26.000Z</Time>
            <Position>
              <LatitudeDegrees>43.29057656228542327880859375</LatitudeDegrees>
              <LongitudeDegrees>-2.6888496614992618560791015625</LongitudeDegrees>
            </Position>
            <AltitudeMeters>26.799999237060546875</AltitudeMeters>
            <DistanceMeters>NAN</DistanceMeters>
          </Trackpoint>
          <Trackpoint>
            <Time>2022-07-11T14:34:32.000Z</Time>
            <Position>
              <LatitudeDegrees>43.290309347212314605712890625</LatitudeDegrees>
              <LongitudeDegrees>-2.688973210752010345458984375</LongitudeDegrees>
            </Position>
            <AltitudeMeters>26.799999237060546875</AltitudeMeters>
            <DistanceMeters>NAN</DistanceMeters>
          </Trackpoint>
          <Trackpoint>
            <Time>2022-07-11T14:34:35.000Z</Time>
            <Position>
              <LatitudeDegrees>43.2901800982654094696044921875</LatitudeDegrees>
              <LongitudeDegrees>-2.68900732509791851043701171875</LongitudeDegrees>
            </Position>
            <AltitudeMeters>26.799999237060546875</AltitudeMeters>
            <DistanceMeters>NAN</DistanceMeters>
          </Trackpoint>
          <Trackpoint>
            <Time>2022-07-11T14:34:41.000Z</Time>
            <Position>
              <LatitudeDegrees>43.28991631977260112762451171875</LatitudeDegrees>
              <LongitudeDegrees>-2.68907438032329082489013671875</LongitudeDegrees>
            </Position>
            <AltitudeMeters>26.799999237060546875</AltitudeMeters>
            <DistanceMeters>NAN</DistanceMeters>
          </Trackpoint>
          <Trackpoint>
            <Time>2022-07-11T14:34:46.000Z</Time>
            <Position>
              <LatitudeDegrees>43.2896986417472362518310546875</LatitudeDegrees>
              <LongitudeDegrees>-2.689103968441486358642578125</LongitudeDegrees>
            </Position>
            <AltitudeMeters>27</AltitudeMeters>
            <DistanceMeters>NAN</DistanceMeters>
          </Trackpoint>
          <Trackpoint>
            <Time>2022-07-11T14:34:51.000Z</Time>
            <Position>
              <LatitudeDegrees>43.28950191847980022430419921875</LatitudeDegrees>
              <LongitudeDegrees>-2.68914143554866313934326171875</LongitudeDegrees>
            </Position>
            <AltitudeMeters>27</AltitudeMeters>
            <DistanceMeters>NAN</DistanceMeters>
          </Trackpoint>
          <Trackpoint>
            <Time>2022-07-11T14:34:55.000Z</Time>
            <Position>
              <LatitudeDegrees>43.2893496192991733551025390625</LatitudeDegrees>
              <LongitudeDegrees>-2.6891705207526683807373046875</LongitudeDegrees>
            </Position>
            <AltitudeMeters>27.200000762939453125</AltitudeMeters>
            <DistanceMeters>NAN</DistanceMeters>
          </Trackpoint>
          <Trackpoint>
            <Time>2022-07-11T14:35:01.000Z</Time>
            <Position>
              <LatitudeDegrees>43.2891367189586162567138671875</LatitudeDegrees>
              <LongitudeDegrees>-2.68923707306385040283203125</LongitudeDegrees>
            </Position>
            <AltitudeMeters>27.200000762939453125</AltitudeMeters>
            <DistanceMeters>NAN</DistanceMeters>
          </Trackpoint>
          <Trackpoint>
            <Time>2022-07-11T14:35:02.000Z</Time>
            <Position>
              <LatitudeDegrees>43.28911098651587963104248046875</LatitudeDegrees>
              <LongitudeDegrees>-2.68928778357803821563720703125</LongitudeDegrees>
            </Position>
            <AltitudeMeters>27.200000762939453125</AltitudeMeters>
            <DistanceMeters>NAN</DistanceMeters>
          </Trackpoint>
          <Trackpoint>
            <Time>2022-07-11T14:35:06.000Z</Time>
            <Position>
              <LatitudeDegrees>43.28912104479968547821044921875</LatitudeDegrees>
              <LongitudeDegrees>-2.68948961980640888214111328125</LongitudeDegrees>
            </Position>
            <AltitudeMeters>27.3999996185302734375</AltitudeMeters>
            <DistanceMeters>NAN</DistanceMeters>
          </Trackpoint>
          <Trackpoint>
            <Time>2022-07-11T14:35:11.000Z</Time>
            <Position>
              <LatitudeDegrees>43.28917116858065128326416015625</LatitudeDegrees>
              <LongitudeDegrees>-2.689689695835113525390625</LongitudeDegrees>
            </Position>
            <AltitudeMeters>27.200000762939453125</AltitudeMeters>
            <DistanceMeters>NAN</DistanceMeters>
          </Trackpoint>
          <Trackpoint>
            <Time>2022-07-11T14:35:15.000Z</Time>
            <Position>
              <LatitudeDegrees>43.28925129957497119903564453125</LatitudeDegrees>
              <LongitudeDegrees>-2.6898142509162425994873046875</LongitudeDegrees>
            </Position>
            <AltitudeMeters>27</AltitudeMeters>
            <DistanceMeters>NAN</DistanceMeters>
          </Trackpoint>
          <Trackpoint>
            <Time>2022-07-11T14:35:16.000Z</Time>
            <Position>
              <LatitudeDegrees>43.28925230540335178375244140625</LatitudeDegrees>
              <LongitudeDegrees>-2.68982858397066593170166015625</LongitudeDegrees>
            </Position>
            <AltitudeMeters>27</AltitudeMeters>
            <DistanceMeters>NAN</DistanceMeters>
          </Trackpoint>
          <Trackpoint>
            <Time>2022-07-11T14:35:20.000Z</Time>
            <Position>
              <LatitudeDegrees>43.2892098091542720794677734375</LatitudeDegrees>
              <LongitudeDegrees>-2.68997560255229473114013671875</LongitudeDegrees>
            </Position>
            <AltitudeMeters>26.799999237060546875</AltitudeMeters>
            <DistanceMeters>NAN</DistanceMeters>
          </Trackpoint>
          <Trackpoint>
            <Time>2022-07-11T14:35:27.000Z</Time>
            <Position>
              <LatitudeDegrees>43.2892617769539356231689453125</LatitudeDegrees>
              <LongitudeDegrees>-2.690276093780994415283203125</LongitudeDegrees>
            </Position>
            <AltitudeMeters>26.6000003814697265625</AltitudeMeters>
            <DistanceMeters>NAN</DistanceMeters>
          </Trackpoint>
          <Trackpoint>
            <Time>2022-07-11T14:35:33.000Z</Time>
            <Position>
              <LatitudeDegrees>43.28932128846645355224609375</LatitudeDegrees>
              <LongitudeDegrees>-2.69056065939366817474365234375</LongitudeDegrees>
            </Position>
            <AltitudeMeters>26.6000003814697265625</AltitudeMeters>
            <DistanceMeters>NAN</DistanceMeters>
          </Trackpoint>
          <Trackpoint>
            <Time>2022-07-11T14:35:36.000Z</Time>
            <Position>
              <LatitudeDegrees>43.28935615718364715576171875</LatitudeDegrees>
              <LongitudeDegrees>-2.6906920038163661956787109375</LongitudeDegrees>
            </Position>
            <AltitudeMeters>26.799999237060546875</AltitudeMeters>
            <DistanceMeters>NAN</DistanceMeters>
          </Trackpoint>
          <Trackpoint>
            <Time>2022-07-11T14:35:39.000Z</Time>
            <Position>
              <LatitudeDegrees>43.28938792459666728973388671875</LatitudeDegrees>
              <LongitudeDegrees>-2.69083726219832897186279296875</LongitudeDegrees>
            </Position>
            <AltitudeMeters>26.799999237060546875</AltitudeMeters>
            <DistanceMeters>NAN</DistanceMeters>
          </Trackpoint>
          <Trackpoint>
            <Time>2022-07-11T14:35:41.000Z</Time>
            <Position>
              <LatitudeDegrees>43.28940468840301036834716796875</LatitudeDegrees>
              <LongitudeDegrees>-2.6909266971051692962646484375</LongitudeDegrees>
            </Position>
            <AltitudeMeters>27</AltitudeMeters>
            <DistanceMeters>NAN</DistanceMeters>
          </Trackpoint>
          <Trackpoint>
            <Time>2022-07-11T14:35:44.000Z</Time>
            <Position>
              <LatitudeDegrees>43.289426229894161224365234375</LatitudeDegrees>
              <LongitudeDegrees>-2.6910671778023242950439453125</LongitudeDegrees>
            </Position>
            <AltitudeMeters>27.200000762939453125</AltitudeMeters>
            <DistanceMeters>NAN</DistanceMeters>
          </Trackpoint>
          <Trackpoint>
            <Time>2022-07-11T14:35:46.000Z</Time>
            <Position>
              <LatitudeDegrees>43.28943603672087192535400390625</LatitudeDegrees>
              <LongitudeDegrees>-2.69115309230983257293701171875</LongitudeDegrees>
            </Position>
            <AltitudeMeters>27.200000762939453125</AltitudeMeters>
            <DistanceMeters>NAN</DistanceMeters>
          </Trackpoint>
          <Trackpoint>
            <Time>2022-07-11T14:35:47.000Z</Time>
            <Position>
              <LatitudeDegrees>43.28944265842437744140625</LatitudeDegrees>
              <LongitudeDegrees>-2.69119600765407085418701171875</LongitudeDegrees>
            </Position>
            <AltitudeMeters>27.3999996185302734375</AltitudeMeters>
            <DistanceMeters>NAN</DistanceMeters>
          </Trackpoint>
          <Trackpoint>
            <Time>2022-07-11T14:35:52.000Z</Time>
            <Position>
              <LatitudeDegrees>43.289479874074459075927734375</LatitudeDegrees>
              <LongitudeDegrees>-2.691422067582607269287109375</LongitudeDegrees>
            </Position>
            <AltitudeMeters>27.3999996185302734375</AltitudeMeters>
            <DistanceMeters>NAN</DistanceMeters>
          </Trackpoint>
          <Trackpoint>
            <Time>2022-07-11T14:35:55.000Z</Time>
            <Position>
              <LatitudeDegrees>43.289502002298831939697265625</LatitudeDegrees>
              <LongitudeDegrees>-2.6915543340146541595458984375</LongitudeDegrees>
            </Position>
            <AltitudeMeters>27.3999996185302734375</AltitudeMeters>
            <DistanceMeters>NAN</DistanceMeters>
          </Trackpoint>
          <Trackpoint>
            <Time>2022-07-11T14:36:01.000Z</Time>
            <Position>
              <LatitudeDegrees>43.28954936005175113677978515625</LatitudeDegrees>
              <LongitudeDegrees>-2.69181040115654468536376953125</LongitudeDegrees>
            </Position>
            <AltitudeMeters>27.799999237060546875</AltitudeMeters>
            <DistanceMeters>NAN</DistanceMeters>
          </Trackpoint>
          <Trackpoint>
            <Time>2022-07-11T14:36:03.000Z</Time>
            <Position>
              <LatitudeDegrees>43.2895739190280437469482421875</LatitudeDegrees>
              <LongitudeDegrees>-2.691884078085422515869140625</LongitudeDegrees>
            </Position>
            <AltitudeMeters>27.799999237060546875</AltitudeMeters>
            <DistanceMeters>NAN</DistanceMeters>
          </Trackpoint>
          <Trackpoint>
            <Time>2022-07-11T14:36:04.000Z</Time>
            <Position>
              <LatitudeDegrees>43.28959780745208263397216796875</LatitudeDegrees>
              <LongitudeDegrees>-2.6918989978730678558349609375</LongitudeDegrees>
            </Position>
            <AltitudeMeters>28</AltitudeMeters>
            <DistanceMeters>NAN</DistanceMeters>
          </Trackpoint>
          <Trackpoint>
            <Time>2022-07-11T14:36:05.000Z</Time>
            <Position>
              <LatitudeDegrees>43.2896210253238677978515625</LatitudeDegrees>
              <LongitudeDegrees>-2.6918958127498626708984375</LongitudeDegrees>
            </Position>
            <AltitudeMeters>28.200000762939453125</AltitudeMeters>
            <DistanceMeters>NAN</DistanceMeters>
          </Trackpoint>
          <Trackpoint>
            <Time>2022-07-11T14:36:06.000Z</Time>
            <Position>
              <LatitudeDegrees>43.28964424319565296173095703125</LatitudeDegrees>
              <LongitudeDegrees>-2.69187762401998043060302734375</LongitudeDegrees>
            </Position>
            <AltitudeMeters>28.3999996185302734375</AltitudeMeters>
            <DistanceMeters>NAN</DistanceMeters>
          </Trackpoint>
          <Trackpoint>
            <Time>2022-07-11T14:36:11.000Z</Time>
            <Position>
              <LatitudeDegrees>43.289698474109172821044921875</LatitudeDegrees>
              <LongitudeDegrees>-2.69184040836989879608154296875</LongitudeDegrees>
            </Position>
            <AltitudeMeters>28.3999996185302734375</AltitudeMeters>
            <DistanceMeters>NAN</DistanceMeters>
          </Trackpoint>
          <Trackpoint>
            <Time>2022-07-11T14:36:36.000Z</Time>
            <Position>
              <LatitudeDegrees>43.289649188518524169921875</LatitudeDegrees>
              <LongitudeDegrees>-2.6918661408126354217529296875</LongitudeDegrees>
            </Position>
            <AltitudeMeters>28</AltitudeMeters>
            <DistanceMeters>NAN</DistanceMeters>
          </Trackpoint>
          <Trackpoint>
            <Time>2022-07-11T14:36:37.000Z</Time>
            <Position>
              <LatitudeDegrees>43.28963586129248142242431640625</LatitudeDegrees>
              <LongitudeDegrees>-2.6918909512460231781005859375</LongitudeDegrees>
            </Position>
            <AltitudeMeters>28</AltitudeMeters>
            <DistanceMeters>NAN</DistanceMeters>
          </Trackpoint>
          <Trackpoint>
            <Time>2022-07-11T14:36:38.000Z</Time>
            <Position>
              <LatitudeDegrees>43.28962261788547039031982421875</LatitudeDegrees>
              <LongitudeDegrees>-2.69191785715520381927490234375</LongitudeDegrees>
            </Position>
            <AltitudeMeters>28</AltitudeMeters>
            <DistanceMeters>NAN</DistanceMeters>
          </Trackpoint>
          <Trackpoint>
            <Time>2022-07-11T14:36:41.000Z</Time>
            <Position>
              <LatitudeDegrees>43.28960468061268329620361328125</LatitudeDegrees>
              <LongitudeDegrees>-2.69201047718524932861328125</LongitudeDegrees>
            </Position>
            <AltitudeMeters>28.200000762939453125</AltitudeMeters>
            <DistanceMeters>NAN</DistanceMeters>
          </Trackpoint>
          <Trackpoint>
            <Time>2022-07-11T14:36:43.000Z</Time>
            <Position>
              <LatitudeDegrees>43.28961758874356746673583984375</LatitudeDegrees>
              <LongitudeDegrees>-2.6920807175338268280029296875</LongitudeDegrees>
            </Position>
            <AltitudeMeters>28.3999996185302734375</AltitudeMeters>
            <DistanceMeters>NAN</DistanceMeters>
          </Trackpoint>
          <Trackpoint>
            <Time>2022-07-11T14:36:48.000Z</Time>
            <Position>
              <LatitudeDegrees>43.289653547108173370361328125</LatitudeDegrees>
              <LongitudeDegrees>-2.69227467477321624755859375</LongitudeDegrees>
            </Position>
            <AltitudeMeters>28.799999237060546875</AltitudeMeters>
            <DistanceMeters>NAN</DistanceMeters>
          </Trackpoint>
          <Trackpoint>
            <Time>2022-07-11T14:36:51.000Z</Time>
            <Position>
              <LatitudeDegrees>43.289671652019023895263671875</LatitudeDegrees>
              <LongitudeDegrees>-2.69238942302763462066650390625</LongitudeDegrees>
            </Position>
            <AltitudeMeters>29.200000762939453125</AltitudeMeters>
            <DistanceMeters>NAN</DistanceMeters>
          </Trackpoint>
          <Trackpoint>
            <Time>2022-07-11T14:37:02.000Z</Time>
            <Position>
              <LatitudeDegrees>43.28973971307277679443359375</LatitudeDegrees>
              <LongitudeDegrees>-2.69281002692878246307373046875</LongitudeDegrees>
            </Position>
            <AltitudeMeters>29.6000003814697265625</AltitudeMeters>
            <DistanceMeters>NAN</DistanceMeters>
          </Trackpoint>
          <Trackpoint>
            <Time>2022-07-11T14:37:03.000Z</Time>
            <Position>
              <LatitudeDegrees>43.28974415548145771026611328125</LatitudeDegrees>
              <LongitudeDegrees>-2.69284908659756183624267578125</LongitudeDegrees>
            </Position>
            <AltitudeMeters>29.6000003814697265625</AltitudeMeters>
            <DistanceMeters>NAN</DistanceMeters>
          </Trackpoint>
          <Trackpoint>
            <Time>2022-07-11T14:37:08.000Z</Time>
            <Position>
              <LatitudeDegrees>43.28976661898195743560791015625</LatitudeDegrees>
              <LongitudeDegrees>-2.6930533535778522491455078125</LongitudeDegrees>
            </Position>
            <AltitudeMeters>30</AltitudeMeters>
            <DistanceMeters>NAN</DistanceMeters>
          </Trackpoint>
          <Trackpoint>
            <Time>2022-07-11T14:37:13.000Z</Time>
            <Position>
              <LatitudeDegrees>43.28977935947477817535400390625</LatitudeDegrees>
              <LongitudeDegrees>-2.693252675235271453857421875</LongitudeDegrees>
            </Position>
            <AltitudeMeters>30.200000762939453125</AltitudeMeters>
            <DistanceMeters>NAN</DistanceMeters>
          </Trackpoint>
          <Trackpoint>
            <Time>2022-07-11T14:37:14.000Z</Time>
            <Position>
              <LatitudeDegrees>43.2897841371595859527587890625</LatitudeDegrees>
              <LongitudeDegrees>-2.69328896887600421905517578125</LongitudeDegrees>
            </Position>
            <AltitudeMeters>30.200000762939453125</AltitudeMeters>
            <DistanceMeters>NAN</DistanceMeters>
          </Trackpoint>
          <Trackpoint>
            <Time>2022-07-11T14:37:21.000Z</Time>
            <Position>
              <LatitudeDegrees>43.2898263819515705108642578125</LatitudeDegrees>
              <LongitudeDegrees>-2.693538330495357513427734375</LongitudeDegrees>
            </Position>
            <AltitudeMeters>30.6000003814697265625</AltitudeMeters>
            <DistanceMeters>NAN</DistanceMeters>
          </Trackpoint>
          <Trackpoint>
            <Time>2022-07-11T14:37:25.000Z</Time>
            <Position>
              <LatitudeDegrees>43.2898785173892974853515625</LatitudeDegrees>
              <LongitudeDegrees>-2.69361653365194797515869140625</LongitudeDegrees>
            </Position>
            <AltitudeMeters>31</AltitudeMeters>
            <DistanceMeters>NAN</DistanceMeters>
          </Trackpoint>
          <Trackpoint>
            <Time>2022-07-11T14:37:28.000Z</Time>
            <Position>
              <LatitudeDegrees>43.289884887635707855224609375</LatitudeDegrees>
              <LongitudeDegrees>-2.6936545036733150482177734375</LongitudeDegrees>
            </Position>
            <AltitudeMeters>31.200000762939453125</AltitudeMeters>
            <DistanceMeters>NAN</DistanceMeters>
          </Trackpoint>
          <Trackpoint>
            <Time>2022-07-11T14:37:31.000Z</Time>
            <Position>
              <LatitudeDegrees>43.2898874022066593170166015625</LatitudeDegrees>
              <LongitudeDegrees>-2.69366917200386524200439453125</LongitudeDegrees>
            </Position>
            <AltitudeMeters>31.200000762939453125</AltitudeMeters>
            <DistanceMeters>NAN</DistanceMeters>
          </Trackpoint>
          <Trackpoint>
            <Time>2022-07-11T14:37:38.000Z</Time>
            <Position>
              <LatitudeDegrees>43.28988933004438877105712890625</LatitudeDegrees>
              <LongitudeDegrees>-2.693663053214550018310546875</LongitudeDegrees>
            </Position>
            <AltitudeMeters>30.200000762939453125</AltitudeMeters>
            <DistanceMeters>NAN</DistanceMeters>
          </Trackpoint>
          <Trackpoint>
            <Time>2022-07-11T14:46:23.000Z</Time>
            <Position>
              <LatitudeDegrees>43.2898739911615848541259765625</LatitudeDegrees>
              <LongitudeDegrees>-2.69371041096746921539306640625</LongitudeDegrees>
            </Position>
            <AltitudeMeters>40.40000152587890625</AltitudeMeters>
            <DistanceMeters>NAN</DistanceMeters>
          </Trackpoint>
          <Trackpoint>
            <Time>2022-07-11T14:46:24.000Z</Time>
            <Position>
              <LatitudeDegrees>43.28985932283103466033935546875</LatitudeDegrees>
              <LongitudeDegrees>-2.693745195865631103515625</LongitudeDegrees>
            </Position>
            <AltitudeMeters>40.40000152587890625</AltitudeMeters>
            <DistanceMeters>NAN</DistanceMeters>
          </Trackpoint>
          <Trackpoint>
            <Time>2022-07-11T14:46:28.000Z</Time>
            <Position>
              <LatitudeDegrees>43.2898213528096675872802734375</LatitudeDegrees>
              <LongitudeDegrees>-2.6938774622976779937744140625</LongitudeDegrees>
            </Position>
            <AltitudeMeters>39.40000152587890625</AltitudeMeters>
            <DistanceMeters>NAN</DistanceMeters>
          </Trackpoint>
          <Trackpoint>
            <Time>2022-07-11T14:46:29.000Z</Time>
            <Position>
              <LatitudeDegrees>43.28981070779263973236083984375</LatitudeDegrees>
              <LongitudeDegrees>-2.6939156837761402130126953125</LongitudeDegrees>
            </Position>
            <AltitudeMeters>39.200000762939453125</AltitudeMeters>
            <DistanceMeters>NAN</DistanceMeters>
          </Trackpoint>
          <Trackpoint>
            <Time>2022-07-11T14:46:38.000Z</Time>
            <Position>
              <LatitudeDegrees>43.28980400227010250091552734375</LatitudeDegrees>
              <LongitudeDegrees>-2.694235034286975860595703125</LongitudeDegrees>
            </Position>
            <AltitudeMeters>40</AltitudeMeters>
            <DistanceMeters>NAN</DistanceMeters>
          </Trackpoint>
          <Trackpoint>
            <Time>2022-07-11T14:46:47.000Z</Time>
            <Position>
              <LatitudeDegrees>43.289793021976947784423828125</LatitudeDegrees>
              <LongitudeDegrees>-2.69459084607660770416259765625</LongitudeDegrees>
            </Position>
            <AltitudeMeters>39.799999237060546875</AltitudeMeters>
            <DistanceMeters>NAN</DistanceMeters>
          </Trackpoint>
          <Trackpoint>
            <Time>2022-07-11T14:46:53.000Z</Time>
            <Position>
              <LatitudeDegrees>43.28981523402035236358642578125</LatitudeDegrees>
              <LongitudeDegrees>-2.6948534511029720306396484375</LongitudeDegrees>
            </Position>
            <AltitudeMeters>39.59999847412109375</AltitudeMeters>
            <DistanceMeters>NAN</DistanceMeters>
          </Trackpoint>
          <Trackpoint>
            <Time>2022-07-11T14:46:56.000Z</Time>
            <Position>
              <LatitudeDegrees>43.28983719460666179656982421875</LatitudeDegrees>
              <LongitudeDegrees>-2.694986723363399505615234375</LongitudeDegrees>
            </Position>
            <AltitudeMeters>39.59999847412109375</AltitudeMeters>
            <DistanceMeters>NAN</DistanceMeters>
          </Trackpoint>
          <Trackpoint>
            <Time>2022-07-11T14:46:57.000Z</Time>
            <Position>
              <LatitudeDegrees>43.28984540887176990509033203125</LatitudeDegrees>
              <LongitudeDegrees>-2.695014886558055877685546875</LongitudeDegrees>
            </Position>
            <AltitudeMeters>39.59999847412109375</AltitudeMeters>
            <DistanceMeters>NAN</DistanceMeters>
          </Trackpoint>
          <Trackpoint>
            <Time>2022-07-11T14:46:59.000Z</Time>
            <Position>
              <LatitudeDegrees>43.28986711800098419189453125</LatitudeDegrees>
              <LongitudeDegrees>-2.69510650075972080230712890625</LongitudeDegrees>
            </Position>
            <AltitudeMeters>39.40000152587890625</AltitudeMeters>
            <DistanceMeters>NAN</DistanceMeters>
          </Trackpoint>
          <Trackpoint>
            <Time>2022-07-11T14:47:01.000Z</Time>
            <Position>
              <LatitudeDegrees>43.28988547436892986297607421875</LatitudeDegrees>
              <LongitudeDegrees>-2.69518889486789703369140625</LongitudeDegrees>
            </Position>
            <AltitudeMeters>39.40000152587890625</AltitudeMeters>
            <DistanceMeters>NAN</DistanceMeters>
          </Trackpoint>
          <Trackpoint>
            <Time>2022-07-11T14:47:03.000Z</Time>
            <Position>
              <LatitudeDegrees>43.2899112068116664886474609375</LatitudeDegrees>
              <LongitudeDegrees>-2.6952782459557056427001953125</LongitudeDegrees>
            </Position>
            <AltitudeMeters>39.200000762939453125</AltitudeMeters>
            <DistanceMeters>NAN</DistanceMeters>
          </Trackpoint>
          <Trackpoint>
            <Time>2022-07-11T14:47:04.000Z</Time>
            <Position>
              <LatitudeDegrees>43.28992201946675777435302734375</LatitudeDegrees>
              <LongitudeDegrees>-2.69531990401446819305419921875</LongitudeDegrees>
            </Position>
            <AltitudeMeters>39.200000762939453125</AltitudeMeters>
            <DistanceMeters>NAN</DistanceMeters>
          </Trackpoint>
          <Trackpoint>
            <Time>2022-07-11T14:47:15.000Z</Time>
            <Position>
              <LatitudeDegrees>43.29004674218595027923583984375</LatitudeDegrees>
              <LongitudeDegrees>-2.69580890424549579620361328125</LongitudeDegrees>
            </Position>
            <AltitudeMeters>38.799999237060546875</AltitudeMeters>
            <DistanceMeters>NAN</DistanceMeters>
          </Trackpoint>
          <Trackpoint>
            <Time>2022-07-11T14:47:18.000Z</Time>
            <Position>
              <LatitudeDegrees>43.29007691703736782073974609375</LatitudeDegrees>
              <LongitudeDegrees>-2.69594167359173297882080078125</LongitudeDegrees>
            </Position>
            <AltitudeMeters>38.59999847412109375</AltitudeMeters>
            <DistanceMeters>NAN</DistanceMeters>
          </Trackpoint>
          <Trackpoint>
            <Time>2022-07-11T14:47:21.000Z</Time>
            <Position>
              <LatitudeDegrees>43.29011329449713230133056640625</LatitudeDegrees>
              <LongitudeDegrees>-2.6960654743015766143798828125</LongitudeDegrees>
            </Position>
            <AltitudeMeters>38.40000152587890625</AltitudeMeters>
            <DistanceMeters>NAN</DistanceMeters>
          </Trackpoint>
          <Trackpoint>
            <Time>2022-07-11T14:47:25.000Z</Time>
            <Position>
              <LatitudeDegrees>43.290159814059734344482421875</LatitudeDegrees>
              <LongitudeDegrees>-2.69625415094196796417236328125</LongitudeDegrees>
            </Position>
            <AltitudeMeters>38.200000762939453125</AltitudeMeters>
            <DistanceMeters>NAN</DistanceMeters>
          </Trackpoint>
          <Trackpoint>
            <Time>2022-07-11T14:47:33.000Z</Time>
            <Position>
              <LatitudeDegrees>43.2902701199054718017578125</LatitudeDegrees>
              <LongitudeDegrees>-2.69660837016999721527099609375</LongitudeDegrees>
            </Position>
            <AltitudeMeters>38</AltitudeMeters>
            <DistanceMeters>NAN</DistanceMeters>
          </Trackpoint>
          <Trackpoint>
            <Time>2022-07-11T14:47:36.000Z</Time>
            <Position>
              <LatitudeDegrees>43.2903178967535495758056640625</LatitudeDegrees>
              <LongitudeDegrees>-2.696735523641109466552734375</LongitudeDegrees>
            </Position>
            <AltitudeMeters>37.799999237060546875</AltitudeMeters>
            <DistanceMeters>NAN</DistanceMeters>
          </Trackpoint>
          <Trackpoint>
            <Time>2022-07-11T14:47:41.000Z</Time>
            <Position>
              <LatitudeDegrees>43.2904191501438617706298828125</LatitudeDegrees>
              <LongitudeDegrees>-2.6969464123249053955078125</LongitudeDegrees>
            </Position>
            <AltitudeMeters>37.799999237060546875</AltitudeMeters>
            <DistanceMeters>NAN</DistanceMeters>
          </Trackpoint>
          <Trackpoint>
            <Time>2022-07-11T14:47:52.000Z</Time>
            <Position>
              <LatitudeDegrees>43.2906431145966053009033203125</LatitudeDegrees>
              <LongitudeDegrees>-2.69737011753022670745849609375</LongitudeDegrees>
            </Position>
            <AltitudeMeters>37.799999237060546875</AltitudeMeters>
            <DistanceMeters>NAN</DistanceMeters>
          </Trackpoint>
          <Trackpoint>
            <Time>2022-07-11T14:47:56.000Z</Time>
            <Position>
              <LatitudeDegrees>43.29073389060795307159423828125</LatitudeDegrees>
              <LongitudeDegrees>-2.69752535037696361541748046875</LongitudeDegrees>
            </Position>
            <AltitudeMeters>37.40000152587890625</AltitudeMeters>
            <DistanceMeters>NAN</DistanceMeters>
          </Trackpoint>
          <Trackpoint>
            <Time>2022-07-11T14:48:04.000Z</Time>
            <Position>
              <LatitudeDegrees>43.2909133471548557281494140625</LatitudeDegrees>
              <LongitudeDegrees>-2.6978551782667636871337890625</LongitudeDegrees>
            </Position>
            <AltitudeMeters>37.40000152587890625</AltitudeMeters>
            <DistanceMeters>NAN</DistanceMeters>
          </Trackpoint>
          <Trackpoint>
            <Time>2022-07-11T14:48:05.000Z</Time>
            <Position>
              <LatitudeDegrees>43.29093606211245059967041015625</LatitudeDegrees>
              <LongitudeDegrees>-2.697894908487796783447265625</LongitudeDegrees>
            </Position>
            <AltitudeMeters>37.40000152587890625</AltitudeMeters>
            <DistanceMeters>NAN</DistanceMeters>
          </Trackpoint>
          <Trackpoint>
            <Time>2022-07-11T14:48:12.000Z</Time>
            <Position>
              <LatitudeDegrees>43.291098587214946746826171875</LatitudeDegrees>
              <LongitudeDegrees>-2.69819439388811588287353515625</LongitudeDegrees>
            </Position>
            <AltitudeMeters>37.200000762939453125</AltitudeMeters>
            <DistanceMeters>NAN</DistanceMeters>
          </Trackpoint>
          <Trackpoint>
            <Time>2022-07-11T14:48:23.000Z</Time>
            <Position>
              <LatitudeDegrees>43.29133738763630390167236328125</LatitudeDegrees>
              <LongitudeDegrees>-2.6986219547688961029052734375</LongitudeDegrees>
            </Position>
            <AltitudeMeters>36.59999847412109375</AltitudeMeters>
            <DistanceMeters>NAN</DistanceMeters>
          </Trackpoint>
          <Trackpoint>
            <Time>2022-07-11T14:48:30.000Z</Time>
            <Position>
              <LatitudeDegrees>43.291457332670688629150390625</LatitudeDegrees>
              <LongitudeDegrees>-2.698889672756195068359375</LongitudeDegrees>
            </Position>
            <AltitudeMeters>36.59999847412109375</AltitudeMeters>
            <DistanceMeters>NAN</DistanceMeters>
          </Trackpoint>
          <Trackpoint>
            <Time>2022-07-11T14:48:38.000Z</Time>
            <Position>
              <LatitudeDegrees>43.2915537245571613311767578125</LatitudeDegrees>
              <LongitudeDegrees>-2.699224948883056640625</LongitudeDegrees>
            </Position>
            <AltitudeMeters>36.59999847412109375</AltitudeMeters>
            <DistanceMeters>NAN</DistanceMeters>
          </Trackpoint>
          <Trackpoint>
            <Time>2022-07-11T14:48:47.000Z</Time>
            <Position>
              <LatitudeDegrees>43.2915755175054073333740234375</LatitudeDegrees>
              <LongitudeDegrees>-2.699640356004238128662109375</LongitudeDegrees>
            </Position>
            <AltitudeMeters>36.200000762939453125</AltitudeMeters>
            <DistanceMeters>NAN</DistanceMeters>
          </Trackpoint>
          <Trackpoint>
            <Time>2022-07-11T14:48:54.000Z</Time>
            <Position>
              <LatitudeDegrees>43.2915520481765270233154296875</LatitudeDegrees>
              <LongitudeDegrees>-2.70001896657049655914306640625</LongitudeDegrees>
            </Position>
            <AltitudeMeters>36</AltitudeMeters>
            <DistanceMeters>NAN</DistanceMeters>
          </Trackpoint>
          <Trackpoint>
            <Time>2022-07-11T14:49:03.000Z</Time>
            <Position>
              <LatitudeDegrees>43.29155531711876392364501953125</LatitudeDegrees>
              <LongitudeDegrees>-2.7004793845117092132568359375</LongitudeDegrees>
            </Position>
            <AltitudeMeters>35.799999237060546875</AltitudeMeters>
            <DistanceMeters>NAN</DistanceMeters>
          </Trackpoint>
          <Trackpoint>
            <Time>2022-07-11T14:49:05.000Z</Time>
            <Position>
              <LatitudeDegrees>43.2915604300796985626220703125</LatitudeDegrees>
              <LongitudeDegrees>-2.7005766145884990692138671875</LongitudeDegrees>
            </Position>
            <AltitudeMeters>35.799999237060546875</AltitudeMeters>
            <DistanceMeters>NAN</DistanceMeters>
          </Trackpoint>
          <Trackpoint>
            <Time>2022-07-11T14:49:16.000Z</Time>
            <Position>
              <LatitudeDegrees>43.29157476313412189483642578125</LatitudeDegrees>
              <LongitudeDegrees>-2.701134346425533294677734375</LongitudeDegrees>
            </Position>
            <AltitudeMeters>36</AltitudeMeters>
            <DistanceMeters>NAN</DistanceMeters>
          </Trackpoint>
          <Trackpoint>
            <Time>2022-07-11T14:49:22.000Z</Time>
            <Position>
              <LatitudeDegrees>43.2915978133678436279296875</LatitudeDegrees>
              <LongitudeDegrees>-2.70142771303653717041015625</LongitudeDegrees>
            </Position>
            <AltitudeMeters>36.200000762939453125</AltitudeMeters>
            <DistanceMeters>NAN</DistanceMeters>
          </Trackpoint>
          <Trackpoint>
            <Time>2022-07-11T14:49:29.000Z</Time>
            <Position>
              <LatitudeDegrees>43.291616924107074737548828125</LatitudeDegrees>
              <LongitudeDegrees>-2.70177916623651981353759765625</LongitudeDegrees>
            </Position>
            <AltitudeMeters>36.40000152587890625</AltitudeMeters>
            <DistanceMeters>NAN</DistanceMeters>
          </Trackpoint>
          <Trackpoint>
            <Time>2022-07-11T14:49:31.000Z</Time>
            <Position>
              <LatitudeDegrees>43.291628994047641754150390625</LatitudeDegrees>
              <LongitudeDegrees>-2.70186432637274265289306640625</LongitudeDegrees>
            </Position>
            <AltitudeMeters>36.59999847412109375</AltitudeMeters>
            <DistanceMeters>NAN</DistanceMeters>
          </Trackpoint>
          <Trackpoint>
            <Time>2022-07-11T14:49:41.000Z</Time>
            <Position>
              <LatitudeDegrees>43.29171407036483287811279296875</LatitudeDegrees>
              <LongitudeDegrees>-2.7023223973810672760009765625</LongitudeDegrees>
            </Position>
            <AltitudeMeters>36.40000152587890625</AltitudeMeters>
            <DistanceMeters>NAN</DistanceMeters>
          </Trackpoint>
          <Trackpoint>
            <Time>2022-07-11T14:49:50.000Z</Time>
            <Position>
              <LatitudeDegrees>43.2918162457644939422607421875</LatitudeDegrees>
              <LongitudeDegrees>-2.70268491469323635101318359375</LongitudeDegrees>
            </Position>
            <AltitudeMeters>36.59999847412109375</AltitudeMeters>
            <DistanceMeters>NAN</DistanceMeters>
          </Trackpoint>
          <Trackpoint>
            <Time>2022-07-11T14:49:59.000Z</Time>
            <Position>
              <LatitudeDegrees>43.2919272221624851226806640625</LatitudeDegrees>
              <LongitudeDegrees>-2.7030231244862079620361328125</LongitudeDegrees>
            </Position>
            <AltitudeMeters>36.799999237060546875</AltitudeMeters>
            <DistanceMeters>NAN</DistanceMeters>
          </Trackpoint>
          <Trackpoint>
            <Time>2022-07-11T14:50:07.000Z</Time>
            <Position>
              <LatitudeDegrees>43.29203409142792224884033203125</LatitudeDegrees>
              <LongitudeDegrees>-2.7033349312841892242431640625</LongitudeDegrees>
            </Position>
            <AltitudeMeters>37</AltitudeMeters>
            <DistanceMeters>NAN</DistanceMeters>
          </Trackpoint>
          <Trackpoint>
            <Time>2022-07-11T14:50:16.000Z</Time>
            <Position>
              <LatitudeDegrees>43.2921887375414371490478515625</LatitudeDegrees>
              <LongitudeDegrees>-2.70368319936096668243408203125</LongitudeDegrees>
            </Position>
            <AltitudeMeters>37</AltitudeMeters>
            <DistanceMeters>NAN</DistanceMeters>
          </Trackpoint>
          <Trackpoint>
            <Time>2022-07-11T14:50:21.000Z</Time>
            <Position>
              <LatitudeDegrees>43.29226224683225154876708984375</LatitudeDegrees>
              <LongitudeDegrees>-2.703885622322559356689453125</LongitudeDegrees>
            </Position>
            <AltitudeMeters>37</AltitudeMeters>
            <DistanceMeters>NAN</DistanceMeters>
          </Trackpoint>
          <Trackpoint>
            <Time>2022-07-11T14:50:24.000Z</Time>
            <Position>
              <LatitudeDegrees>43.292283453047275543212890625</LatitudeDegrees>
              <LongitudeDegrees>-2.704011686146259307861328125</LongitudeDegrees>
            </Position>
            <AltitudeMeters>36.799999237060546875</AltitudeMeters>
            <DistanceMeters>NAN</DistanceMeters>
          </Trackpoint>
          <Trackpoint>
            <Time>2022-07-11T14:50:36.000Z</Time>
            <Position>
              <LatitudeDegrees>43.29235218465328216552734375</LatitudeDegrees>
              <LongitudeDegrees>-2.70459515042603015899658203125</LongitudeDegrees>
            </Position>
            <AltitudeMeters>36.59999847412109375</AltitudeMeters>
            <DistanceMeters>NAN</DistanceMeters>
          </Trackpoint>
          <Trackpoint>
            <Time>2022-07-11T14:50:44.000Z</Time>
            <Position>
              <LatitudeDegrees>43.2923877239227294921875</LatitudeDegrees>
              <LongitudeDegrees>-2.70494165830314159393310546875</LongitudeDegrees>
            </Position>
            <AltitudeMeters>36.799999237060546875</AltitudeMeters>
            <DistanceMeters>NAN</DistanceMeters>
          </Trackpoint>
          <Trackpoint>
            <Time>2022-07-11T14:50:46.000Z</Time>
            <Position>
              <LatitudeDegrees>43.2923997938632965087890625</LatitudeDegrees>
              <LongitudeDegrees>-2.705028913915157318115234375</LongitudeDegrees>
            </Position>
            <AltitudeMeters>36.799999237060546875</AltitudeMeters>
            <DistanceMeters>NAN</DistanceMeters>
          </Trackpoint>
          <Trackpoint>
            <Time>2022-07-11T14:50:56.000Z</Time>
            <Position>
              <LatitudeDegrees>43.292401470243930816650390625</LatitudeDegrees>
              <LongitudeDegrees>-2.70546435378491878509521484375</LongitudeDegrees>
            </Position>
            <AltitudeMeters>37.200000762939453125</AltitudeMeters>
            <DistanceMeters>NAN</DistanceMeters>
          </Trackpoint>
          <Trackpoint>
            <Time>2022-07-11T14:50:59.000Z</Time>
            <Position>
              <LatitudeDegrees>43.29240641556680202484130859375</LatitudeDegrees>
              <LongitudeDegrees>-2.70560366101562976837158203125</LongitudeDegrees>
            </Position>
            <AltitudeMeters>37.40000152587890625</AltitudeMeters>
            <DistanceMeters>NAN</DistanceMeters>
          </Trackpoint>
          <Trackpoint>
            <Time>2022-07-11T14:51:05.000Z</Time>
            <Position>
              <LatitudeDegrees>43.2924024760723114013671875</LatitudeDegrees>
              <LongitudeDegrees>-2.705883868038654327392578125</LongitudeDegrees>
            </Position>
            <AltitudeMeters>37.40000152587890625</AltitudeMeters>
            <DistanceMeters>NAN</DistanceMeters>
          </Trackpoint>
          <Trackpoint>
            <Time>2022-07-11T14:51:13.000Z</Time>
            <Position>
              <LatitudeDegrees>43.2924257777631282806396484375</LatitudeDegrees>
              <LongitudeDegrees>-2.70623029209673404693603515625</LongitudeDegrees>
            </Position>
            <AltitudeMeters>37.200000762939453125</AltitudeMeters>
            <DistanceMeters>NAN</DistanceMeters>
          </Trackpoint>
          <Trackpoint>
            <Time>2022-07-11T14:51:23.000Z</Time>
            <Position>
              <LatitudeDegrees>43.29246425069868564605712890625</LatitudeDegrees>
              <LongitudeDegrees>-2.7066149376332759857177734375</LongitudeDegrees>
            </Position>
            <AltitudeMeters>37.59999847412109375</AltitudeMeters>
            <DistanceMeters>NAN</DistanceMeters>
          </Trackpoint>
          <Trackpoint>
            <Time>2022-07-11T14:51:31.000Z</Time>
            <Position>
              <LatitudeDegrees>43.292500711977481842041015625</LatitudeDegrees>
              <LongitudeDegrees>-2.7068593539297580718994140625</LongitudeDegrees>
            </Position>
            <AltitudeMeters>37.799999237060546875</AltitudeMeters>
            <DistanceMeters>NAN</DistanceMeters>
          </Trackpoint>
          <Trackpoint>
            <Time>2022-07-11T14:51:35.000Z</Time>
            <Position>
              <LatitudeDegrees>43.2925193198025226593017578125</LatitudeDegrees>
              <LongitudeDegrees>-2.7069723419845104217529296875</LongitudeDegrees>
            </Position>
            <AltitudeMeters>38.200000762939453125</AltitudeMeters>
            <DistanceMeters>NAN</DistanceMeters>
          </Trackpoint>
          <Trackpoint>
            <Time>2022-07-11T14:51:39.000Z</Time>
            <Position>
              <LatitudeDegrees>43.2925149612128734588623046875</LatitudeDegrees>
              <LongitudeDegrees>-2.70710217766463756561279296875</LongitudeDegrees>
            </Position>
            <AltitudeMeters>38.40000152587890625</AltitudeMeters>
            <DistanceMeters>NAN</DistanceMeters>
          </Trackpoint>
          <Trackpoint>
            <Time>2022-07-11T14:51:40.000Z</Time>
            <Position>
              <LatitudeDegrees>43.2925082556903362274169921875</LatitudeDegrees>
              <LongitudeDegrees>-2.707139812409877777099609375</LongitudeDegrees>
            </Position>
            <AltitudeMeters>38.40000152587890625</AltitudeMeters>
            <DistanceMeters>NAN</DistanceMeters>
          </Trackpoint>
          <Trackpoint>
            <Time>2022-07-11T14:51:52.000Z</Time>
            <Position>
              <LatitudeDegrees>43.292475230991840362548828125</LatitudeDegrees>
              <LongitudeDegrees>-2.70753216929733753204345703125</LongitudeDegrees>
            </Position>
            <AltitudeMeters>39</AltitudeMeters>
            <DistanceMeters>NAN</DistanceMeters>
          </Trackpoint>
          <Trackpoint>
            <Time>2022-07-11T14:52:00.000Z</Time>
            <Position>
              <LatitudeDegrees>43.29245544970035552978515625</LatitudeDegrees>
              <LongitudeDegrees>-2.70778563804924488067626953125</LongitudeDegrees>
            </Position>
            <AltitudeMeters>39.40000152587890625</AltitudeMeters>
            <DistanceMeters>NAN</DistanceMeters>
          </Trackpoint>
          <Trackpoint>
            <Time>2022-07-11T14:52:01.000Z</Time>
            <Position>
              <LatitudeDegrees>43.2924519293010234832763671875</LatitudeDegrees>
              <LongitudeDegrees>-2.7078174054622650146484375</LongitudeDegrees>
            </Position>
            <AltitudeMeters>39.59999847412109375</AltitudeMeters>
            <DistanceMeters>NAN</DistanceMeters>
          </Trackpoint>
          <Trackpoint>
            <Time>2022-07-11T14:52:12.000Z</Time>
            <Position>
              <LatitudeDegrees>43.29242921434342861175537109375</LatitudeDegrees>
              <LongitudeDegrees>-2.7081665955483913421630859375</LongitudeDegrees>
            </Position>
            <AltitudeMeters>39.799999237060546875</AltitudeMeters>
            <DistanceMeters>NAN</DistanceMeters>
          </Trackpoint>
          <Trackpoint>
            <Time>2022-07-11T14:52:20.000Z</Time>
            <Position>
              <LatitudeDegrees>43.2924105226993560791015625</LatitudeDegrees>
              <LongitudeDegrees>-2.7084101736545562744140625</LongitudeDegrees>
            </Position>
            <AltitudeMeters>40.200000762939453125</AltitudeMeters>
            <DistanceMeters>NAN</DistanceMeters>
          </Trackpoint>
          <Trackpoint>
            <Time>2022-07-11T14:52:24.000Z</Time>
            <Position>
              <LatitudeDegrees>43.2924780808389186859130859375</LatitudeDegrees>
              <LongitudeDegrees>-2.70847379229962825775146484375</LongitudeDegrees>
            </Position>
            <AltitudeMeters>39.799999237060546875</AltitudeMeters>
            <DistanceMeters>NAN</DistanceMeters>
          </Trackpoint>
          <Trackpoint>
            <Time>2022-07-11T14:52:27.000Z</Time>
            <Position>
              <LatitudeDegrees>43.29252895899116992950439453125</LatitudeDegrees>
              <LongitudeDegrees>-2.708544619381427764892578125</LongitudeDegrees>
            </Position>
            <AltitudeMeters>39.59999847412109375</AltitudeMeters>
            <DistanceMeters>NAN</DistanceMeters>
          </Trackpoint>
          <Trackpoint>
            <Time>2022-07-11T14:52:30.000Z</Time>
            <Position>
              <LatitudeDegrees>43.29256550408899784088134765625</LatitudeDegrees>
              <LongitudeDegrees>-2.708599604666233062744140625</LongitudeDegrees>
            </Position>
            <AltitudeMeters>39.59999847412109375</AltitudeMeters>
            <DistanceMeters>NAN</DistanceMeters>
          </Trackpoint>
          <Trackpoint>
            <Time>2022-07-11T14:52:31.000Z</Time>
            <Position>
              <LatitudeDegrees>43.29257489182054996490478515625</LatitudeDegrees>
              <LongitudeDegrees>-2.70861712284386157989501953125</LongitudeDegrees>
            </Position>
            <AltitudeMeters>39.59999847412109375</AltitudeMeters>
            <DistanceMeters>NAN</DistanceMeters>
          </Trackpoint>
          <Trackpoint>
            <Time>2022-07-11T14:52:32.000Z</Time>
            <Position>
              <LatitudeDegrees>43.29258193261921405792236328125</LatitudeDegrees>
              <LongitudeDegrees>-2.7086341381072998046875</LongitudeDegrees>
            </Position>
            <AltitudeMeters>39.59999847412109375</AltitudeMeters>
            <DistanceMeters>NAN</DistanceMeters>
          </Trackpoint>
          <Trackpoint>
            <Time>2022-07-11T14:52:33.000Z</Time>
            <Position>
              <LatitudeDegrees>43.292583525180816650390625</LatitudeDegrees>
              <LongitudeDegrees>-2.70865023136138916015625</LongitudeDegrees>
            </Position>
            <AltitudeMeters>39.59999847412109375</AltitudeMeters>
            <DistanceMeters>NAN</DistanceMeters>
          </Trackpoint>
          <Trackpoint>
            <Time>2022-07-11T14:52:36.000Z</Time>
            <Position>
              <LatitudeDegrees>43.29255930148065090179443359375</LatitudeDegrees>
              <LongitudeDegrees>-2.7087278477847576141357421875</LongitudeDegrees>
            </Position>
            <AltitudeMeters>39.799999237060546875</AltitudeMeters>
            <DistanceMeters>NAN</DistanceMeters>
          </Trackpoint>
          <Trackpoint>
            <Time>2022-07-11T14:52:39.000Z</Time>
            <Position>
              <LatitudeDegrees>43.292512111365795135498046875</LatitudeDegrees>
              <LongitudeDegrees>-2.7088012732565402984619140625</LongitudeDegrees>
            </Position>
            <AltitudeMeters>39.799999237060546875</AltitudeMeters>
            <DistanceMeters>NAN</DistanceMeters>
          </Trackpoint>
          <Trackpoint>
            <Time>2022-07-11T14:52:41.000Z</Time>
            <Position>
              <LatitudeDegrees>43.29246559180319309234619140625</LatitudeDegrees>
              <LongitudeDegrees>-2.7087938971817493438720703125</LongitudeDegrees>
            </Position>
            <AltitudeMeters>40</AltitudeMeters>
            <DistanceMeters>NAN</DistanceMeters>
          </Trackpoint>
          <Trackpoint>
            <Time>2022-07-11T14:52:44.000Z</Time>
            <Position>
              <LatitudeDegrees>43.29241211526095867156982421875</LatitudeDegrees>
              <LongitudeDegrees>-2.70880672149360179901123046875</LongitudeDegrees>
            </Position>
            <AltitudeMeters>40</AltitudeMeters>
            <DistanceMeters>NAN</DistanceMeters>
          </Trackpoint>
          <Trackpoint>
            <Time>2022-07-11T14:52:46.000Z</Time>
            <Position>
              <LatitudeDegrees>43.292408175766468048095703125</LatitudeDegrees>
              <LongitudeDegrees>-2.708812840282917022705078125</LongitudeDegrees>
            </Position>
            <AltitudeMeters>40.200000762939453125</AltitudeMeters>
            <DistanceMeters>NAN</DistanceMeters>
          </Trackpoint>
          <Trackpoint>
            <Time>2022-07-11T14:52:48.000Z</Time>
            <Position>
              <LatitudeDegrees>43.292408175766468048095703125</LatitudeDegrees>
              <LongitudeDegrees>-2.708812840282917022705078125</LongitudeDegrees>
            </Position>
            <AltitudeMeters>40.200000762939453125</AltitudeMeters>
            <DistanceMeters>NAN</DistanceMeters>
          </Trackpoint>
          <Trackpoint>
            <Time>2022-07-11T14:55:00.000Z</Time>
            <Position>
              <LatitudeDegrees>43.29239518381655216217041015625</LatitudeDegrees>
              <LongitudeDegrees>-2.708861790597438812255859375</LongitudeDegrees>
            </Position>
            <AltitudeMeters>36.40000152587890625</AltitudeMeters>
            <DistanceMeters>NAN</DistanceMeters>
          </Trackpoint>
          <Trackpoint>
            <Time>2022-07-11T14:55:02.000Z</Time>
            <Position>
              <LatitudeDegrees>43.29236886464059352874755859375</LatitudeDegrees>
              <LongitudeDegrees>-2.70888400264084339141845703125</LongitudeDegrees>
            </Position>
            <AltitudeMeters>36.40000152587890625</AltitudeMeters>
            <DistanceMeters>NAN</DistanceMeters>
          </Trackpoint>
          <Trackpoint>
            <Time>2022-07-11T14:55:04.000Z</Time>
            <Position>
              <LatitudeDegrees>43.292340449988842010498046875</LatitudeDegrees>
              <LongitudeDegrees>-2.708910405635833740234375</LongitudeDegrees>
            </Position>
            <AltitudeMeters>36.40000152587890625</AltitudeMeters>
            <DistanceMeters>NAN</DistanceMeters>
          </Trackpoint>
          <Trackpoint>
            <Time>2022-07-11T14:55:06.000Z</Time>
            <Position>
              <LatitudeDegrees>43.292327709496021270751953125</LatitudeDegrees>
              <LongitudeDegrees>-2.70895876921713352203369140625</LongitudeDegrees>
            </Position>
            <AltitudeMeters>36.59999847412109375</AltitudeMeters>
            <DistanceMeters>NAN</DistanceMeters>
          </Trackpoint>
          <Trackpoint>
            <Time>2022-07-11T14:55:07.000Z</Time>
            <Position>
              <LatitudeDegrees>43.292323686182498931884765625</LatitudeDegrees>
              <LongitudeDegrees>-2.70898751914501190185546875</LongitudeDegrees>
            </Position>
            <AltitudeMeters>36.59999847412109375</AltitudeMeters>
            <DistanceMeters>NAN</DistanceMeters>
          </Trackpoint>
          <Trackpoint>
            <Time>2022-07-11T14:55:16.000Z</Time>
            <Position>
              <LatitudeDegrees>43.29231421463191509246826171875</LatitudeDegrees>
              <LongitudeDegrees>-2.709259092807769775390625</LongitudeDegrees>
            </Position>
            <AltitudeMeters>36.799999237060546875</AltitudeMeters>
            <DistanceMeters>NAN</DistanceMeters>
          </Trackpoint>
          <Trackpoint>
            <Time>2022-07-11T14:55:24.000Z</Time>
            <Position>
              <LatitudeDegrees>43.29231203533709049224853515625</LatitudeDegrees>
              <LongitudeDegrees>-2.70954608917236328125</LongitudeDegrees>
            </Position>
            <AltitudeMeters>37</AltitudeMeters>
            <DistanceMeters>NAN</DistanceMeters>
          </Trackpoint>
          <Trackpoint>
            <Time>2022-07-11T14:55:25.000Z</Time>
            <Position>
              <LatitudeDegrees>43.29231329262256622314453125</LatitudeDegrees>
              <LongitudeDegrees>-2.70957601256668567657470703125</LongitudeDegrees>
            </Position>
            <AltitudeMeters>37.200000762939453125</AltitudeMeters>
            <DistanceMeters>NAN</DistanceMeters>
          </Trackpoint>
          <Trackpoint>
            <Time>2022-07-11T14:55:28.000Z</Time>
            <Position>
              <LatitudeDegrees>43.29231354407966136932373046875</LatitudeDegrees>
              <LongitudeDegrees>-2.70967952907085418701171875</LongitudeDegrees>
            </Position>
            <AltitudeMeters>37.40000152587890625</AltitudeMeters>
            <DistanceMeters>NAN</DistanceMeters>
          </Trackpoint>
          <Trackpoint>
            <Time>2022-07-11T14:55:32.000Z</Time>
            <Position>
              <LatitudeDegrees>43.292333744466304779052734375</LatitudeDegrees>
              <LongitudeDegrees>-2.7097963728010654449462890625</LongitudeDegrees>
            </Position>
            <AltitudeMeters>37.799999237060546875</AltitudeMeters>
            <DistanceMeters>NAN</DistanceMeters>
          </Trackpoint>
          <Trackpoint>
            <Time>2022-07-11T14:55:36.000Z</Time>
            <Position>
              <LatitudeDegrees>43.29234757460653781890869140625</LatitudeDegrees>
              <LongitudeDegrees>-2.7099363505840301513671875</LongitudeDegrees>
            </Position>
            <AltitudeMeters>38.200000762939453125</AltitudeMeters>
            <DistanceMeters>NAN</DistanceMeters>
          </Trackpoint>
          <Trackpoint>
            <Time>2022-07-11T14:55:38.000Z</Time>
            <Position>
              <LatitudeDegrees>43.2923543639481067657470703125</LatitudeDegrees>
              <LongitudeDegrees>-2.70999376662075519561767578125</LongitudeDegrees>
            </Position>
            <AltitudeMeters>38.200000762939453125</AltitudeMeters>
            <DistanceMeters>NAN</DistanceMeters>
          </Trackpoint>
          <Trackpoint>
            <Time>2022-07-11T14:55:40.000Z</Time>
            <Position>
              <LatitudeDegrees>43.292362578213214874267578125</LatitudeDegrees>
              <LongitudeDegrees>-2.71006635390222072601318359375</LongitudeDegrees>
            </Position>
            <AltitudeMeters>38.40000152587890625</AltitudeMeters>
            <DistanceMeters>NAN</DistanceMeters>
          </Trackpoint>
          <Trackpoint>
            <Time>2022-07-11T14:55:41.000Z</Time>
            <Position>
              <LatitudeDegrees>43.29236618243157863616943359375</LatitudeDegrees>
              <LongitudeDegrees>-2.71009686402976512908935546875</LongitudeDegrees>
            </Position>
            <AltitudeMeters>38.40000152587890625</AltitudeMeters>
            <DistanceMeters>NAN</DistanceMeters>
          </Trackpoint>
          <Trackpoint>
            <Time>2022-07-11T14:55:44.000Z</Time>
            <Position>
              <LatitudeDegrees>43.2923764921724796295166015625</LatitudeDegrees>
              <LongitudeDegrees>-2.7101852931082248687744140625</LongitudeDegrees>
            </Position>
            <AltitudeMeters>38.59999847412109375</AltitudeMeters>
            <DistanceMeters>NAN</DistanceMeters>
          </Trackpoint>
          <Trackpoint>
            <Time>2022-07-11T14:55:54.000Z</Time>
            <Position>
              <LatitudeDegrees>43.292423598468303680419921875</LatitudeDegrees>
              <LongitudeDegrees>-2.71051612682640552520751953125</LongitudeDegrees>
            </Position>
            <AltitudeMeters>38.799999237060546875</AltitudeMeters>
            <DistanceMeters>NAN</DistanceMeters>
          </Trackpoint>
          <Trackpoint>
            <Time>2022-07-11T14:56:02.000Z</Time>
            <Position>
              <LatitudeDegrees>43.29246039502322673797607421875</LatitudeDegrees>
              <LongitudeDegrees>-2.7108115889132022857666015625</LongitudeDegrees>
            </Position>
            <AltitudeMeters>38.59999847412109375</AltitudeMeters>
            <DistanceMeters>NAN</DistanceMeters>
          </Trackpoint>
          <Trackpoint>
            <Time>2022-07-11T14:56:07.000Z</Time>
            <Position>
              <LatitudeDegrees>43.2924965210258960723876953125</LatitudeDegrees>
              <LongitudeDegrees>-2.7110016904771327972412109375</LongitudeDegrees>
            </Position>
            <AltitudeMeters>38.59999847412109375</AltitudeMeters>
            <DistanceMeters>NAN</DistanceMeters>
          </Trackpoint>
          <Trackpoint>
            <Time>2022-07-11T14:56:09.000Z</Time>
            <Position>
              <LatitudeDegrees>43.29251638613641262054443359375</LatitudeDegrees>
              <LongitudeDegrees>-2.711081318557262420654296875</LongitudeDegrees>
            </Position>
            <AltitudeMeters>38.59999847412109375</AltitudeMeters>
            <DistanceMeters>NAN</DistanceMeters>
          </Trackpoint>
          <Trackpoint>
            <Time>2022-07-11T14:56:10.000Z</Time>
            <Position>
              <LatitudeDegrees>43.29252359457314014434814453125</LatitudeDegrees>
              <LongitudeDegrees>-2.71112146787345409393310546875</LongitudeDegrees>
            </Position>
            <AltitudeMeters>38.799999237060546875</AltitudeMeters>
            <DistanceMeters>NAN</DistanceMeters>
          </Trackpoint>
          <Trackpoint>
            <Time>2022-07-11T14:56:19.000Z</Time>
            <Position>
              <LatitudeDegrees>43.29260640777647495269775390625</LatitudeDegrees>
              <LongitudeDegrees>-2.71148742176592350006103515625</LongitudeDegrees>
            </Position>
            <AltitudeMeters>39.200000762939453125</AltitudeMeters>
            <DistanceMeters>NAN</DistanceMeters>
          </Trackpoint>
          <Trackpoint>
            <Time>2022-07-11T14:56:27.000Z</Time>
            <Position>
              <LatitudeDegrees>43.29270984046161174774169921875</LatitudeDegrees>
              <LongitudeDegrees>-2.7118098735809326171875</LongitudeDegrees>
            </Position>
            <AltitudeMeters>39.200000762939453125</AltitudeMeters>
            <DistanceMeters>NAN</DistanceMeters>
          </Trackpoint>
          <Trackpoint>
            <Time>2022-07-11T14:56:38.000Z</Time>
            <Position>
              <LatitudeDegrees>43.2928827591240406036376953125</LatitudeDegrees>
              <LongitudeDegrees>-2.712237350642681121826171875</LongitudeDegrees>
            </Position>
            <AltitudeMeters>39.200000762939453125</AltitudeMeters>
            <DistanceMeters>NAN</DistanceMeters>
          </Trackpoint>
          <Trackpoint>
            <Time>2022-07-11T14:56:47.000Z</Time>
            <Position>
              <LatitudeDegrees>43.2930121757090091705322265625</LatitudeDegrees>
              <LongitudeDegrees>-2.71256826817989349365234375</LongitudeDegrees>
            </Position>
            <AltitudeMeters>39.40000152587890625</AltitudeMeters>
            <DistanceMeters>NAN</DistanceMeters>
          </Trackpoint>
          <Trackpoint>
            <Time>2022-07-11T14:56:53.000Z</Time>
            <Position>
              <LatitudeDegrees>43.29307772219181060791015625</LatitudeDegrees>
              <LongitudeDegrees>-2.7128021232783794403076171875</LongitudeDegrees>
            </Position>
            <AltitudeMeters>39.40000152587890625</AltitudeMeters>
            <DistanceMeters>NAN</DistanceMeters>
          </Trackpoint>
          <Trackpoint>
            <Time>2022-07-11T14:56:55.000Z</Time>
            <Position>
              <LatitudeDegrees>43.29309272579848766326904296875</LatitudeDegrees>
              <LongitudeDegrees>-2.71287378855049610137939453125</LongitudeDegrees>
            </Position>
            <AltitudeMeters>39.59999847412109375</AltitudeMeters>
            <DistanceMeters>NAN</DistanceMeters>
          </Trackpoint>
          <Trackpoint>
            <Time>2022-07-11T14:57:05.000Z</Time>
            <Position>
              <LatitudeDegrees>43.2931734435260295867919921875</LatitudeDegrees>
              <LongitudeDegrees>-2.7132353000342845916748046875</LongitudeDegrees>
            </Position>
            <AltitudeMeters>39.799999237060546875</AltitudeMeters>
            <DistanceMeters>NAN</DistanceMeters>
          </Trackpoint>
          <Trackpoint>
            <Time>2022-07-11T14:57:16.000Z</Time>
            <Position>
              <LatitudeDegrees>43.29324401915073394775390625</LatitudeDegrees>
              <LongitudeDegrees>-2.7135984040796756744384765625</LongitudeDegrees>
            </Position>
            <AltitudeMeters>40.59999847412109375</AltitudeMeters>
            <DistanceMeters>NAN</DistanceMeters>
          </Trackpoint>
          <Trackpoint>
            <Time>2022-07-11T14:57:17.000Z</Time>
            <Position>
              <LatitudeDegrees>43.29325214959681034088134765625</LatitudeDegrees>
              <LongitudeDegrees>-2.71363436244428157806396484375</LongitudeDegrees>
            </Position>
            <AltitudeMeters>40.59999847412109375</AltitudeMeters>
            <DistanceMeters>NAN</DistanceMeters>
          </Trackpoint>
          <Trackpoint>
            <Time>2022-07-11T14:57:26.000Z</Time>
            <Position>
              <LatitudeDegrees>43.29332339577376842498779296875</LatitudeDegrees>
              <LongitudeDegrees>-2.71388950757682323455810546875</LongitudeDegrees>
            </Position>
            <AltitudeMeters>41</AltitudeMeters>
            <DistanceMeters>NAN</DistanceMeters>
          </Trackpoint>
          <Trackpoint>
            <Time>2022-07-11T14:57:27.000Z</Time>
            <Position>
              <LatitudeDegrees>43.2933273352682590484619140625</LatitudeDegrees>
              <LongitudeDegrees>-2.7139229513704776763916015625</LongitudeDegrees>
            </Position>
            <AltitudeMeters>41</AltitudeMeters>
            <DistanceMeters>NAN</DistanceMeters>
          </Trackpoint>
          <Trackpoint>
            <Time>2022-07-11T14:57:31.000Z</Time>
            <Position>
              <LatitudeDegrees>43.29334837384521961212158203125</LatitudeDegrees>
              <LongitudeDegrees>-2.71404054947197437286376953125</LongitudeDegrees>
            </Position>
            <AltitudeMeters>41.59999847412109375</AltitudeMeters>
            <DistanceMeters>NAN</DistanceMeters>
          </Trackpoint>
          <Trackpoint>
            <Time>2022-07-11T14:57:34.000Z</Time>
            <Position>
              <LatitudeDegrees>43.29335533082485198974609375</LatitudeDegrees>
              <LongitudeDegrees>-2.714121602475643157958984375</LongitudeDegrees>
            </Position>
            <AltitudeMeters>41.799999237060546875</AltitudeMeters>
            <DistanceMeters>NAN</DistanceMeters>
          </Trackpoint>
          <Trackpoint>
            <Time>2022-07-11T14:57:38.000Z</Time>
            <Position>
              <LatitudeDegrees>43.29336605966091156005859375</LatitudeDegrees>
              <LongitudeDegrees>-2.71423500962555408477783203125</LongitudeDegrees>
            </Position>
            <AltitudeMeters>42.40000152587890625</AltitudeMeters>
            <DistanceMeters>NAN</DistanceMeters>
          </Trackpoint>
          <Trackpoint>
            <Time>2022-07-11T14:57:40.000Z</Time>
            <Position>
              <LatitudeDegrees>43.29337033443152904510498046875</LatitudeDegrees>
              <LongitudeDegrees>-2.71428328938782215118408203125</LongitudeDegrees>
            </Position>
            <AltitudeMeters>42.59999847412109375</AltitudeMeters>
            <DistanceMeters>NAN</DistanceMeters>
          </Trackpoint>
          <Trackpoint>
            <Time>2022-07-11T14:57:47.000Z</Time>
            <Position>
              <LatitudeDegrees>43.29339430667459964752197265625</LatitudeDegrees>
              <LongitudeDegrees>-2.71445897407829761505126953125</LongitudeDegrees>
            </Position>
            <AltitudeMeters>43</AltitudeMeters>
            <DistanceMeters>NAN</DistanceMeters>
          </Trackpoint>
          <Trackpoint>
            <Time>2022-07-11T14:57:50.000Z</Time>
            <Position>
              <LatitudeDegrees>43.293397910892963409423828125</LatitudeDegrees>
              <LongitudeDegrees>-2.71453726105391979217529296875</LongitudeDegrees>
            </Position>
            <AltitudeMeters>43.59999847412109375</AltitudeMeters>
            <DistanceMeters>NAN</DistanceMeters>
          </Trackpoint>
          <Trackpoint>
            <Time>2022-07-11T14:57:55.000Z</Time>
            <Position>
              <LatitudeDegrees>43.2934056222438812255859375</LatitudeDegrees>
              <LongitudeDegrees>-2.71466701291501522064208984375</LongitudeDegrees>
            </Position>
            <AltitudeMeters>44.200000762939453125</AltitudeMeters>
            <DistanceMeters>NAN</DistanceMeters>
          </Trackpoint>
          <Trackpoint>
            <Time>2022-07-11T14:57:57.000Z</Time>
            <Position>
              <LatitudeDegrees>43.29341123811900615692138671875</LatitudeDegrees>
              <LongitudeDegrees>-2.7147160470485687255859375</LongitudeDegrees>
            </Position>
            <AltitudeMeters>44.40000152587890625</AltitudeMeters>
            <DistanceMeters>NAN</DistanceMeters>
          </Trackpoint>
          <Trackpoint>
            <Time>2022-07-11T14:57:58.000Z</Time>
            <Position>
              <LatitudeDegrees>43.29341308213770389556884765625</LatitudeDegrees>
              <LongitudeDegrees>-2.71474261768162250518798828125</LongitudeDegrees>
            </Position>
            <AltitudeMeters>44.59999847412109375</AltitudeMeters>
            <DistanceMeters>NAN</DistanceMeters>
          </Trackpoint>
          <Trackpoint>
            <Time>2022-07-11T14:57:59.000Z</Time>
            <Position>
              <LatitudeDegrees>43.29341509379446506500244140625</LatitudeDegrees>
              <LongitudeDegrees>-2.71476726047694683074951171875</LongitudeDegrees>
            </Position>
            <AltitudeMeters>44.59999847412109375</AltitudeMeters>
            <DistanceMeters>NAN</DistanceMeters>
          </Trackpoint>
          <Trackpoint>
            <Time>2022-07-11T14:58:09.000Z</Time>
            <Position>
              <LatitudeDegrees>43.2934590987861156463623046875</LatitudeDegrees>
              <LongitudeDegrees>-2.7150260098278522491455078125</LongitudeDegrees>
            </Position>
            <AltitudeMeters>45.40000152587890625</AltitudeMeters>
            <DistanceMeters>NAN</DistanceMeters>
          </Trackpoint>
          <Trackpoint>
            <Time>2022-07-11T14:58:11.000Z</Time>
            <Position>
              <LatitudeDegrees>43.29347477294504642486572265625</LatitudeDegrees>
              <LongitudeDegrees>-2.71507873199880123138427734375</LongitudeDegrees>
            </Position>
            <AltitudeMeters>45.799999237060546875</AltitudeMeters>
            <DistanceMeters>NAN</DistanceMeters>
          </Trackpoint>
          <Trackpoint>
            <Time>2022-07-11T14:58:21.000Z</Time>
            <Position>
              <LatitudeDegrees>43.2935295067727565765380859375</LatitudeDegrees>
              <LongitudeDegrees>-2.71532356739044189453125</LongitudeDegrees>
            </Position>
            <AltitudeMeters>46.59999847412109375</AltitudeMeters>
            <DistanceMeters>NAN</DistanceMeters>
          </Trackpoint>
          <Trackpoint>
            <Time>2022-07-11T14:58:23.000Z</Time>
            <Position>
              <LatitudeDegrees>43.2935388945043087005615234375</LatitudeDegrees>
              <LongitudeDegrees>-2.7153669856488704681396484375</LongitudeDegrees>
            </Position>
            <AltitudeMeters>46.799999237060546875</AltitudeMeters>
            <DistanceMeters>NAN</DistanceMeters>
          </Trackpoint>
          <Trackpoint>
            <Time>2022-07-11T14:58:31.000Z</Time>
            <Position>
              <LatitudeDegrees>43.29356546513736248016357421875</LatitudeDegrees>
              <LongitudeDegrees>-2.7155755273997783660888671875</LongitudeDegrees>
            </Position>
            <AltitudeMeters>47.59999847412109375</AltitudeMeters>
            <DistanceMeters>NAN</DistanceMeters>
          </Trackpoint>
          <Trackpoint>
            <Time>2022-07-11T14:58:33.000Z</Time>
            <Position>
              <LatitudeDegrees>43.29357393085956573486328125</LatitudeDegrees>
              <LongitudeDegrees>-2.71562020294368267059326171875</LongitudeDegrees>
            </Position>
            <AltitudeMeters>47.799999237060546875</AltitudeMeters>
            <DistanceMeters>NAN</DistanceMeters>
          </Trackpoint>
          <Trackpoint>
            <Time>2022-07-11T14:58:40.000Z</Time>
            <Position>
              <LatitudeDegrees>43.29359631054103374481201171875</LatitudeDegrees>
              <LongitudeDegrees>-2.7157776989042758941650390625</LongitudeDegrees>
            </Position>
            <AltitudeMeters>48.59999847412109375</AltitudeMeters>
            <DistanceMeters>NAN</DistanceMeters>
          </Trackpoint>
          <Trackpoint>
            <Time>2022-07-11T14:58:44.000Z</Time>
            <Position>
              <LatitudeDegrees>43.2936079613864421844482421875</LatitudeDegrees>
              <LongitudeDegrees>-2.71587098948657512664794921875</LongitudeDegrees>
            </Position>
            <AltitudeMeters>49</AltitudeMeters>
            <DistanceMeters>NAN</DistanceMeters>
          </Trackpoint>
          <Trackpoint>
            <Time>2022-07-11T14:58:51.000Z</Time>
            <Position>
              <LatitudeDegrees>43.29362832941114902496337890625</LatitudeDegrees>
              <LongitudeDegrees>-2.7160217799246311187744140625</LongitudeDegrees>
            </Position>
            <AltitudeMeters>49.40000152587890625</AltitudeMeters>
            <DistanceMeters>NAN</DistanceMeters>
          </Trackpoint>
          <Trackpoint>
            <Time>2022-07-11T14:58:57.000Z</Time>
            <Position>
              <LatitudeDegrees>43.29364324919879436492919921875</LatitudeDegrees>
              <LongitudeDegrees>-2.7161444909870624542236328125</LongitudeDegrees>
            </Position>
            <AltitudeMeters>50</AltitudeMeters>
            <DistanceMeters>NAN</DistanceMeters>
          </Trackpoint>
          <Trackpoint>
            <Time>2022-07-11T14:58:59.000Z</Time>
            <Position>
              <LatitudeDegrees>43.293651379644870758056640625</LatitudeDegrees>
              <LongitudeDegrees>-2.716192267835140228271484375</LongitudeDegrees>
            </Position>
            <AltitudeMeters>50</AltitudeMeters>
            <DistanceMeters>NAN</DistanceMeters>
          </Trackpoint>
          <Trackpoint>
            <Time>2022-07-11T14:59:05.000Z</Time>
            <Position>
              <LatitudeDegrees>43.29368080012500286102294921875</LatitudeDegrees>
              <LongitudeDegrees>-2.7163195051252841949462890625</LongitudeDegrees>
            </Position>
            <AltitudeMeters>51</AltitudeMeters>
            <DistanceMeters>NAN</DistanceMeters>
          </Trackpoint>
          <Trackpoint>
            <Time>2022-07-11T14:59:09.000Z</Time>
            <Position>
              <LatitudeDegrees>43.2937035150825977325439453125</LatitudeDegrees>
              <LongitudeDegrees>-2.716418914496898651123046875</LongitudeDegrees>
            </Position>
            <AltitudeMeters>51.40000152587890625</AltitudeMeters>
            <DistanceMeters>NAN</DistanceMeters>
          </Trackpoint>
          <Trackpoint>
            <Time>2022-07-11T14:59:18.000Z</Time>
            <Position>
              <LatitudeDegrees>43.2937571592628955841064453125</LatitudeDegrees>
              <LongitudeDegrees>-2.7166230976581573486328125</LongitudeDegrees>
            </Position>
            <AltitudeMeters>52</AltitudeMeters>
            <DistanceMeters>NAN</DistanceMeters>
          </Trackpoint>
          <Trackpoint>
            <Time>2022-07-11T14:59:23.000Z</Time>
            <Position>
              <LatitudeDegrees>43.29379244707524776458740234375</LatitudeDegrees>
              <LongitudeDegrees>-2.71672510541975498199462890625</LongitudeDegrees>
            </Position>
            <AltitudeMeters>52.59999847412109375</AltitudeMeters>
            <DistanceMeters>NAN</DistanceMeters>
          </Trackpoint>
          <Trackpoint>
            <Time>2022-07-11T14:59:28.000Z</Time>
            <Position>
              <LatitudeDegrees>43.2938413135707378387451171875</LatitudeDegrees>
              <LongitudeDegrees>-2.71682082675397396087646484375</LongitudeDegrees>
            </Position>
            <AltitudeMeters>53.200000762939453125</AltitudeMeters>
            <DistanceMeters>NAN</DistanceMeters>
          </Trackpoint>
          <Trackpoint>
            <Time>2022-07-11T14:59:36.000Z</Time>
            <Position>
              <LatitudeDegrees>43.29391054809093475341796875</LatitudeDegrees>
              <LongitudeDegrees>-2.71697622723877429962158203125</LongitudeDegrees>
            </Position>
            <AltitudeMeters>53.799999237060546875</AltitudeMeters>
            <DistanceMeters>NAN</DistanceMeters>
          </Trackpoint>
          <Trackpoint>
            <Time>2022-07-11T14:59:39.000Z</Time>
            <Position>
              <LatitudeDegrees>43.2939434051513671875</LatitudeDegrees>
              <LongitudeDegrees>-2.7170383371412754058837890625</LongitudeDegrees>
            </Position>
            <AltitudeMeters>54.200000762939453125</AltitudeMeters>
            <DistanceMeters>NAN</DistanceMeters>
          </Trackpoint>
          <Trackpoint>
            <Time>2022-07-11T14:59:48.000Z</Time>
            <Position>
              <LatitudeDegrees>43.29403527081012725830078125</LatitudeDegrees>
              <LongitudeDegrees>-2.7172009460628032684326171875</LongitudeDegrees>
            </Position>
            <AltitudeMeters>55.200000762939453125</AltitudeMeters>
            <DistanceMeters>NAN</DistanceMeters>
          </Trackpoint>
          <Trackpoint>
            <Time>2022-07-11T14:59:49.000Z</Time>
            <Position>
              <LatitudeDegrees>43.2940451614558696746826171875</LatitudeDegrees>
              <LongitudeDegrees>-2.71722097881138324737548828125</LongitudeDegrees>
            </Position>
            <AltitudeMeters>55.200000762939453125</AltitudeMeters>
            <DistanceMeters>NAN</DistanceMeters>
          </Trackpoint>
          <Trackpoint>
            <Time>2022-07-11T14:59:53.000Z</Time>
            <Position>
              <LatitudeDegrees>43.29408061690628528594970703125</LatitudeDegrees>
              <LongitudeDegrees>-2.71729825995862483978271484375</LongitudeDegrees>
            </Position>
            <AltitudeMeters>55.40000152587890625</AltitudeMeters>
            <DistanceMeters>NAN</DistanceMeters>
          </Trackpoint>
          <Trackpoint>
            <Time>2022-07-11T14:59:55.000Z</Time>
            <Position>
              <LatitudeDegrees>43.29409427940845489501953125</LatitudeDegrees>
              <LongitudeDegrees>-2.71733949892222881317138671875</LongitudeDegrees>
            </Position>
            <AltitudeMeters>55.59999847412109375</AltitudeMeters>
            <DistanceMeters>NAN</DistanceMeters>
          </Trackpoint>
          <Trackpoint>
            <Time>2022-07-11T14:59:58.000Z</Time>
            <Position>
              <LatitudeDegrees>43.29412286169826984405517578125</LatitudeDegrees>
              <LongitudeDegrees>-2.71739398129284381866455078125</LongitudeDegrees>
            </Position>
            <AltitudeMeters>55.799999237060546875</AltitudeMeters>
            <DistanceMeters>NAN</DistanceMeters>
          </Trackpoint>
          <Trackpoint>
            <Time>2022-07-11T15:00:00.000Z</Time>
            <Position>
              <LatitudeDegrees>43.29414121806621551513671875</LatitudeDegrees>
              <LongitudeDegrees>-2.71743513643741607666015625</LongitudeDegrees>
            </Position>
            <AltitudeMeters>56</AltitudeMeters>
            <DistanceMeters>NAN</DistanceMeters>
          </Trackpoint>
          <Trackpoint>
            <Time>2022-07-11T15:00:05.000Z</Time>
            <Position>
              <LatitudeDegrees>43.29417952336370944976806640625</LatitudeDegrees>
              <LongitudeDegrees>-2.71753798238933086395263671875</LongitudeDegrees>
            </Position>
            <AltitudeMeters>56.200000762939453125</AltitudeMeters>
            <DistanceMeters>NAN</DistanceMeters>
          </Trackpoint>
          <Trackpoint>
            <Time>2022-07-11T15:00:08.000Z</Time>
            <Position>
              <LatitudeDegrees>43.2942030765116214752197265625</LatitudeDegrees>
              <LongitudeDegrees>-2.71759615279734134674072265625</LongitudeDegrees>
            </Position>
            <AltitudeMeters>56.59999847412109375</AltitudeMeters>
            <DistanceMeters>NAN</DistanceMeters>
          </Trackpoint>
          <Trackpoint>
            <Time>2022-07-11T15:00:09.000Z</Time>
            <Position>
              <LatitudeDegrees>43.2942104525864124298095703125</LatitudeDegrees>
              <LongitudeDegrees>-2.71761828102171421051025390625</LongitudeDegrees>
            </Position>
            <AltitudeMeters>56.59999847412109375</AltitudeMeters>
            <DistanceMeters>NAN</DistanceMeters>
          </Trackpoint>
          <Trackpoint>
            <Time>2022-07-11T15:00:10.000Z</Time>
            <Position>
              <LatitudeDegrees>43.2942188344895839691162109375</LatitudeDegrees>
              <LongitudeDegrees>-2.71764460019767284393310546875</LongitudeDegrees>
            </Position>
            <AltitudeMeters>56.59999847412109375</AltitudeMeters>
            <DistanceMeters>NAN</DistanceMeters>
          </Trackpoint>
          <Trackpoint>
            <Time>2022-07-11T15:00:14.000Z</Time>
            <Position>
              <LatitudeDegrees>43.29424305818974971771240234375</LatitudeDegrees>
              <LongitudeDegrees>-2.71772741340100765228271484375</LongitudeDegrees>
            </Position>
            <AltitudeMeters>57</AltitudeMeters>
            <DistanceMeters>NAN</DistanceMeters>
          </Trackpoint>
          <Trackpoint>
            <Time>2022-07-11T15:00:16.000Z</Time>
            <Position>
              <LatitudeDegrees>43.2942597381770610809326171875</LatitudeDegrees>
              <LongitudeDegrees>-2.71777217276394367218017578125</LongitudeDegrees>
            </Position>
            <AltitudeMeters>57.40000152587890625</AltitudeMeters>
            <DistanceMeters>NAN</DistanceMeters>
          </Trackpoint>
          <Trackpoint>
            <Time>2022-07-11T15:00:20.000Z</Time>
            <Position>
              <LatitudeDegrees>43.2942969538271427154541015625</LatitudeDegrees>
              <LongitudeDegrees>-2.71785012446343898773193359375</LongitudeDegrees>
            </Position>
            <AltitudeMeters>57.799999237060546875</AltitudeMeters>
            <DistanceMeters>NAN</DistanceMeters>
          </Trackpoint>
          <Trackpoint>
            <Time>2022-07-11T15:00:27.000Z</Time>
            <Position>
              <LatitudeDegrees>43.29435034655034542083740234375</LatitudeDegrees>
              <LongitudeDegrees>-2.71800049580633640289306640625</LongitudeDegrees>
            </Position>
            <AltitudeMeters>58.40000152587890625</AltitudeMeters>
            <DistanceMeters>NAN</DistanceMeters>
          </Trackpoint>
          <Trackpoint>
            <Time>2022-07-11T15:00:28.000Z</Time>
            <Position>
              <LatitudeDegrees>43.29435638152062892913818359375</LatitudeDegrees>
              <LongitudeDegrees>-2.71802061237394809722900390625</LongitudeDegrees>
            </Position>
            <AltitudeMeters>58.59999847412109375</AltitudeMeters>
            <DistanceMeters>NAN</DistanceMeters>
          </Trackpoint>
          <Trackpoint>
            <Time>2022-07-11T15:00:35.000Z</Time>
            <Position>
              <LatitudeDegrees>43.29439879395067691802978515625</LatitudeDegrees>
              <LongitudeDegrees>-2.71817936562001705169677734375</LongitudeDegrees>
            </Position>
            <AltitudeMeters>59.200000762939453125</AltitudeMeters>
            <DistanceMeters>NAN</DistanceMeters>
          </Trackpoint>
          <Trackpoint>
            <Time>2022-07-11T15:00:40.000Z</Time>
            <Position>
              <LatitudeDegrees>43.2944334112107753753662109375</LatitudeDegrees>
              <LongitudeDegrees>-2.7182875759899616241455078125</LongitudeDegrees>
            </Position>
            <AltitudeMeters>59.59999847412109375</AltitudeMeters>
            <DistanceMeters>NAN</DistanceMeters>
          </Trackpoint>
          <Trackpoint>
            <Time>2022-07-11T15:00:46.000Z</Time>
            <Position>
              <LatitudeDegrees>43.29447322525084018707275390625</LatitudeDegrees>
              <LongitudeDegrees>-2.7184193395078182220458984375</LongitudeDegrees>
            </Position>
            <AltitudeMeters>60</AltitudeMeters>
            <DistanceMeters>NAN</DistanceMeters>
          </Trackpoint>
          <Trackpoint>
            <Time>2022-07-11T15:00:53.000Z</Time>
            <Position>
              <LatitudeDegrees>43.29451396130025386810302734375</LatitudeDegrees>
              <LongitudeDegrees>-2.71857566200196743011474609375</LongitudeDegrees>
            </Position>
            <AltitudeMeters>60.59999847412109375</AltitudeMeters>
            <DistanceMeters>NAN</DistanceMeters>
          </Trackpoint>
          <Trackpoint>
            <Time>2022-07-11T15:00:54.000Z</Time>
            <Position>
              <LatitudeDegrees>43.29452209174633026123046875</LatitudeDegrees>
              <LongitudeDegrees>-2.718602232635021209716796875</LongitudeDegrees>
            </Position>
            <AltitudeMeters>60.59999847412109375</AltitudeMeters>
            <DistanceMeters>NAN</DistanceMeters>
          </Trackpoint>
          <Trackpoint>
            <Time>2022-07-11T15:01:03.000Z</Time>
            <Position>
              <LatitudeDegrees>43.29458403401076793670654296875</LatitudeDegrees>
              <LongitudeDegrees>-2.71878831088542938232421875</LongitudeDegrees>
            </Position>
            <AltitudeMeters>61.40000152587890625</AltitudeMeters>
            <DistanceMeters>NAN</DistanceMeters>
          </Trackpoint>
          <Trackpoint>
            <Time>2022-07-11T15:01:04.000Z</Time>
            <Position>
              <LatitudeDegrees>43.2945919968187808990478515625</LatitudeDegrees>
              <LongitudeDegrees>-2.71881588734686374664306640625</LongitudeDegrees>
            </Position>
            <AltitudeMeters>61.59999847412109375</AltitudeMeters>
            <DistanceMeters>NAN</DistanceMeters>
          </Trackpoint>
          <Trackpoint>
            <Time>2022-07-11T15:01:15.000Z</Time>
            <Position>
              <LatitudeDegrees>43.294694758951663970947265625</LatitudeDegrees>
              <LongitudeDegrees>-2.7190221659839153289794921875</LongitudeDegrees>
            </Position>
            <AltitudeMeters>62.40000152587890625</AltitudeMeters>
            <DistanceMeters>NAN</DistanceMeters>
          </Trackpoint>
          <Trackpoint>
            <Time>2022-07-11T15:01:17.000Z</Time>
            <Position>
              <LatitudeDegrees>43.29471210949122905731201171875</LatitudeDegrees>
              <LongitudeDegrees>-2.7190553583204746246337890625</LongitudeDegrees>
            </Position>
            <AltitudeMeters>62.59999847412109375</AltitudeMeters>
            <DistanceMeters>NAN</DistanceMeters>
          </Trackpoint>
          <Trackpoint>
            <Time>2022-07-11T15:01:24.000Z</Time>
            <Position>
              <LatitudeDegrees>43.2947814278304576873779296875</LatitudeDegrees>
              <LongitudeDegrees>-2.71919994615018367767333984375</LongitudeDegrees>
            </Position>
            <AltitudeMeters>63.59999847412109375</AltitudeMeters>
            <DistanceMeters>NAN</DistanceMeters>
          </Trackpoint>
          <Trackpoint>
            <Time>2022-07-11T15:01:34.000Z</Time>
            <Position>
              <LatitudeDegrees>43.29488729126751422882080078125</LatitudeDegrees>
              <LongitudeDegrees>-2.71941536106169223785400390625</LongitudeDegrees>
            </Position>
            <AltitudeMeters>64.1999969482421875</AltitudeMeters>
            <DistanceMeters>NAN</DistanceMeters>
          </Trackpoint>
          <Trackpoint>
            <Time>2022-07-11T15:01:39.000Z</Time>
            <Position>
              <LatitudeDegrees>43.2949505746364593505859375</LatitudeDegrees>
              <LongitudeDegrees>-2.71951644681394100189208984375</LongitudeDegrees>
            </Position>
            <AltitudeMeters>64.59999847412109375</AltitudeMeters>
            <DistanceMeters>NAN</DistanceMeters>
          </Trackpoint>
          <Trackpoint>
            <Time>2022-07-11T15:01:44.000Z</Time>
            <Position>
              <LatitudeDegrees>43.29501335509121417999267578125</LatitudeDegrees>
              <LongitudeDegrees>-2.7196202985942363739013671875</LongitudeDegrees>
            </Position>
            <AltitudeMeters>64.8000030517578125</AltitudeMeters>
            <DistanceMeters>NAN</DistanceMeters>
          </Trackpoint>
          <Trackpoint>
            <Time>2022-07-11T15:01:49.000Z</Time>
            <Position>
              <LatitudeDegrees>43.29507018439471721649169921875</LatitudeDegrees>
              <LongitudeDegrees>-2.71971174515783786773681640625</LongitudeDegrees>
            </Position>
            <AltitudeMeters>65</AltitudeMeters>
            <DistanceMeters>NAN</DistanceMeters>
          </Trackpoint>
          <Trackpoint>
            <Time>2022-07-11T15:01:54.000Z</Time>
            <Position>
              <LatitudeDegrees>43.29512600786983966827392578125</LatitudeDegrees>
              <LongitudeDegrees>-2.71979925222694873809814453125</LongitudeDegrees>
            </Position>
            <AltitudeMeters>65.1999969482421875</AltitudeMeters>
            <DistanceMeters>NAN</DistanceMeters>
          </Trackpoint>
          <Trackpoint>
            <Time>2022-07-11T15:02:00.000Z</Time>
            <Position>
              <LatitudeDegrees>43.29520110972225666046142578125</LatitudeDegrees>
              <LongitudeDegrees>-2.7198848314583301544189453125</LongitudeDegrees>
            </Position>
            <AltitudeMeters>65.59999847412109375</AltitudeMeters>
            <DistanceMeters>NAN</DistanceMeters>
          </Trackpoint>
          <Trackpoint>
            <Time>2022-07-11T15:02:02.000Z</Time>
            <Position>
              <LatitudeDegrees>43.29522550106048583984375</LatitudeDegrees>
              <LongitudeDegrees>-2.71991224028170108795166015625</LongitudeDegrees>
            </Position>
            <AltitudeMeters>65.8000030517578125</AltitudeMeters>
            <DistanceMeters>NAN</DistanceMeters>
          </Trackpoint>
          <Trackpoint>
            <Time>2022-07-11T15:02:13.000Z</Time>
            <Position>
              <LatitudeDegrees>43.2953819073736667633056640625</LatitudeDegrees>
              <LongitudeDegrees>-2.72004668600857257843017578125</LongitudeDegrees>
            </Position>
            <AltitudeMeters>66.59999847412109375</AltitudeMeters>
            <DistanceMeters>NAN</DistanceMeters>
          </Trackpoint>
          <Trackpoint>
            <Time>2022-07-11T15:02:14.000Z</Time>
            <Position>
              <LatitudeDegrees>43.295398168265819549560546875</LatitudeDegrees>
              <LongitudeDegrees>-2.720057666301727294921875</LongitudeDegrees>
            </Position>
            <AltitudeMeters>66.8000030517578125</AltitudeMeters>
            <DistanceMeters>NAN</DistanceMeters>
          </Trackpoint>
          <Trackpoint>
            <Time>2022-07-11T15:02:24.000Z</Time>
            <Position>
              <LatitudeDegrees>43.29554443247616291046142578125</LatitudeDegrees>
              <LongitudeDegrees>-2.72018850781023502349853515625</LongitudeDegrees>
            </Position>
            <AltitudeMeters>67.59999847412109375</AltitudeMeters>
            <DistanceMeters>NAN</DistanceMeters>
          </Trackpoint>
          <Trackpoint>
            <Time>2022-07-11T15:02:26.000Z</Time>
            <Position>
              <LatitudeDegrees>43.29557645134627819061279296875</LatitudeDegrees>
              <LongitudeDegrees>-2.72020895965397357940673828125</LongitudeDegrees>
            </Position>
            <AltitudeMeters>67.8000030517578125</AltitudeMeters>
            <DistanceMeters>NAN</DistanceMeters>
          </Trackpoint>
          <Trackpoint>
            <Time>2022-07-11T15:02:35.000Z</Time>
            <Position>
              <LatitudeDegrees>43.29571207053959369659423828125</LatitudeDegrees>
              <LongitudeDegrees>-2.720292024314403533935546875</LongitudeDegrees>
            </Position>
            <AltitudeMeters>68.59999847412109375</AltitudeMeters>
            <DistanceMeters>NAN</DistanceMeters>
          </Trackpoint>
          <Trackpoint>
            <Time>2022-07-11T15:02:39.000Z</Time>
            <Position>
              <LatitudeDegrees>43.29577979631721973419189453125</LatitudeDegrees>
              <LongitudeDegrees>-2.72032865323126316070556640625</LongitudeDegrees>
            </Position>
            <AltitudeMeters>68.8000030517578125</AltitudeMeters>
            <DistanceMeters>NAN</DistanceMeters>
          </Trackpoint>
          <Trackpoint>
            <Time>2022-07-11T15:02:48.000Z</Time>
            <Position>
              <LatitudeDegrees>43.29592983238399028778076171875</LatitudeDegrees>
              <LongitudeDegrees>-2.72041699849069118499755859375</LongitudeDegrees>
            </Position>
            <AltitudeMeters>69.1999969482421875</AltitudeMeters>
            <DistanceMeters>NAN</DistanceMeters>
          </Trackpoint>
          <Trackpoint>
            <Time>2022-07-11T15:02:54.000Z</Time>
            <Position>
              <LatitudeDegrees>43.2960303314030170440673828125</LatitudeDegrees>
              <LongitudeDegrees>-2.720481120049953460693359375</LongitudeDegrees>
            </Position>
            <AltitudeMeters>69.59999847412109375</AltitudeMeters>
            <DistanceMeters>NAN</DistanceMeters>
          </Trackpoint>
          <Trackpoint>
            <Time>2022-07-11T15:02:57.000Z</Time>
            <Position>
              <LatitudeDegrees>43.29608037136495113372802734375</LatitudeDegrees>
              <LongitudeDegrees>-2.720498554408550262451171875</LongitudeDegrees>
            </Position>
            <AltitudeMeters>69.8000030517578125</AltitudeMeters>
            <DistanceMeters>NAN</DistanceMeters>
          </Trackpoint>
          <Trackpoint>
            <Time>2022-07-11T15:03:02.000Z</Time>
            <Position>
              <LatitudeDegrees>43.2961604185402393341064453125</LatitudeDegrees>
              <LongitudeDegrees>-2.72056150250136852264404296875</LongitudeDegrees>
            </Position>
            <AltitudeMeters>70.1999969482421875</AltitudeMeters>
            <DistanceMeters>NAN</DistanceMeters>
          </Trackpoint>
          <Trackpoint>
            <Time>2022-07-11T15:03:10.000Z</Time>
            <Position>
              <LatitudeDegrees>43.2962499372661113739013671875</LatitudeDegrees>
              <LongitudeDegrees>-2.72064968012273311614990234375</LongitudeDegrees>
            </Position>
            <AltitudeMeters>70.8000030517578125</AltitudeMeters>
            <DistanceMeters>NAN</DistanceMeters>
          </Trackpoint>
          <Trackpoint>
            <Time>2022-07-11T15:03:12.000Z</Time>
            <Position>
              <LatitudeDegrees>43.29625303857028484344482421875</LatitudeDegrees>
              <LongitudeDegrees>-2.72065102122724056243896484375</LongitudeDegrees>
            </Position>
            <AltitudeMeters>70.8000030517578125</AltitudeMeters>
            <DistanceMeters>NAN</DistanceMeters>
          </Trackpoint>
          <Trackpoint>
            <Time>2022-07-11T15:04:22.000Z</Time>
            <Position>
              <LatitudeDegrees>43.29627365805208683013916015625</LatitudeDegrees>
              <LongitudeDegrees>-2.72073098458349704742431640625</LongitudeDegrees>
            </Position>
            <AltitudeMeters>70.40000152587890625</AltitudeMeters>
            <DistanceMeters>NAN</DistanceMeters>
          </Trackpoint>
          <Trackpoint>
            <Time>2022-07-11T15:04:23.000Z</Time>
            <Position>
              <LatitudeDegrees>43.2962841354310512542724609375</LatitudeDegrees>
              <LongitudeDegrees>-2.72075579501688480377197265625</LongitudeDegrees>
            </Position>
            <AltitudeMeters>70.40000152587890625</AltitudeMeters>
            <DistanceMeters>NAN</DistanceMeters>
          </Trackpoint>
          <Trackpoint>
            <Time>2022-07-11T15:04:25.000Z</Time>
            <Position>
              <LatitudeDegrees>43.2962995581328868865966796875</LatitudeDegrees>
              <LongitudeDegrees>-2.720802314579486846923828125</LongitudeDegrees>
            </Position>
            <AltitudeMeters>70.8000030517578125</AltitudeMeters>
            <DistanceMeters>NAN</DistanceMeters>
          </Trackpoint>
          <Trackpoint>
            <Time>2022-07-11T15:04:28.000Z</Time>
            <Position>
              <LatitudeDegrees>43.29631984233856201171875</LatitudeDegrees>
              <LongitudeDegrees>-2.72088445723056793212890625</LongitudeDegrees>
            </Position>
            <AltitudeMeters>71.40000152587890625</AltitudeMeters>
            <DistanceMeters>NAN</DistanceMeters>
          </Trackpoint>
          <Trackpoint>
            <Time>2022-07-11T15:04:29.000Z</Time>
            <Position>
              <LatitudeDegrees>43.2963273860514163970947265625</LatitudeDegrees>
              <LongitudeDegrees>-2.72090323269367218017578125</LongitudeDegrees>
            </Position>
            <AltitudeMeters>71.40000152587890625</AltitudeMeters>
            <DistanceMeters>NAN</DistanceMeters>
          </Trackpoint>
          <Trackpoint>
            <Time>2022-07-11T15:04:30.000Z</Time>
            <Position>
              <LatitudeDegrees>43.29633526504039764404296875</LatitudeDegrees>
              <LongitudeDegrees>-2.72091974504292011260986328125</LongitudeDegrees>
            </Position>
            <AltitudeMeters>71.59999847412109375</AltitudeMeters>
            <DistanceMeters>NAN</DistanceMeters>
          </Trackpoint>
          <Trackpoint>
            <Time>2022-07-11T15:04:36.000Z</Time>
            <Position>
              <LatitudeDegrees>43.29636745154857635498046875</LatitudeDegrees>
              <LongitudeDegrees>-2.72104262374341487884521484375</LongitudeDegrees>
            </Position>
            <AltitudeMeters>72</AltitudeMeters>
            <DistanceMeters>NAN</DistanceMeters>
          </Trackpoint>
          <Trackpoint>
            <Time>2022-07-11T15:04:37.000Z</Time>
            <Position>
              <LatitudeDegrees>43.2963709719479084014892578125</LatitudeDegrees>
              <LongitudeDegrees>-2.7210633270442485809326171875</LongitudeDegrees>
            </Position>
            <AltitudeMeters>72</AltitudeMeters>
            <DistanceMeters>NAN</DistanceMeters>
          </Trackpoint>
          <Trackpoint>
            <Time>2022-07-11T15:04:45.000Z</Time>
            <Position>
              <LatitudeDegrees>43.29643140546977519989013671875</LatitudeDegrees>
              <LongitudeDegrees>-2.7212230861186981201171875</LongitudeDegrees>
            </Position>
            <AltitudeMeters>72.8000030517578125</AltitudeMeters>
            <DistanceMeters>NAN</DistanceMeters>
          </Trackpoint>
          <Trackpoint>
            <Time>2022-07-11T15:04:47.000Z</Time>
            <Position>
              <LatitudeDegrees>43.29645236022770404815673828125</LatitudeDegrees>
              <LongitudeDegrees>-2.72126491181552410125732421875</LongitudeDegrees>
            </Position>
            <AltitudeMeters>73</AltitudeMeters>
            <DistanceMeters>NAN</DistanceMeters>
          </Trackpoint>
          <Trackpoint>
            <Time>2022-07-11T15:04:48.000Z</Time>
            <Position>
              <LatitudeDegrees>43.29646409489214420318603515625</LatitudeDegrees>
              <LongitudeDegrees>-2.72128368727862834930419921875</LongitudeDegrees>
            </Position>
            <AltitudeMeters>73</AltitudeMeters>
            <DistanceMeters>NAN</DistanceMeters>
          </Trackpoint>
          <Trackpoint>
            <Time>2022-07-11T15:04:51.000Z</Time>
            <Position>
              <LatitudeDegrees>43.2965007238090038299560546875</LatitudeDegrees>
              <LongitudeDegrees>-2.72133749909698963165283203125</LongitudeDegrees>
            </Position>
            <AltitudeMeters>73.1999969482421875</AltitudeMeters>
            <DistanceMeters>NAN</DistanceMeters>
          </Trackpoint>
          <Trackpoint>
            <Time>2022-07-11T15:04:53.000Z</Time>
            <Position>
              <LatitudeDegrees>43.29653081484138965606689453125</LatitudeDegrees>
              <LongitudeDegrees>-2.72137370891869068145751953125</LongitudeDegrees>
            </Position>
            <AltitudeMeters>73.1999969482421875</AltitudeMeters>
            <DistanceMeters>NAN</DistanceMeters>
          </Trackpoint>
          <Trackpoint>
            <Time>2022-07-11T15:04:59.000Z</Time>
            <Position>
              <LatitudeDegrees>43.29663206823170185089111328125</LatitudeDegrees>
              <LongitudeDegrees>-2.72147186100482940673828125</LongitudeDegrees>
            </Position>
            <AltitudeMeters>73.8000030517578125</AltitudeMeters>
            <DistanceMeters>NAN</DistanceMeters>
          </Trackpoint>
          <Trackpoint>
            <Time>2022-07-11T15:05:01.000Z</Time>
            <Position>
              <LatitudeDegrees>43.2966645061969757080078125</LatitudeDegrees>
              <LongitudeDegrees>-2.72150329314172267913818359375</LongitudeDegrees>
            </Position>
            <AltitudeMeters>74</AltitudeMeters>
            <DistanceMeters>NAN</DistanceMeters>
          </Trackpoint>
          <Trackpoint>
            <Time>2022-07-11T15:05:03.000Z</Time>
            <Position>
              <LatitudeDegrees>43.29669895581901073455810546875</LatitudeDegrees>
              <LongitudeDegrees>-2.72153112106025218963623046875</LongitudeDegrees>
            </Position>
            <AltitudeMeters>74</AltitudeMeters>
            <DistanceMeters>NAN</DistanceMeters>
          </Trackpoint>
          <Trackpoint>
            <Time>2022-07-11T15:05:09.000Z</Time>
            <Position>
              <LatitudeDegrees>43.29679098911583423614501953125</LatitudeDegrees>
              <LongitudeDegrees>-2.7216232381761074066162109375</LongitudeDegrees>
            </Position>
            <AltitudeMeters>74.59999847412109375</AltitudeMeters>
            <DistanceMeters>NAN</DistanceMeters>
          </Trackpoint>
          <Trackpoint>
            <Time>2022-07-11T15:05:11.000Z</Time>
            <Position>
              <LatitudeDegrees>43.296819068491458892822265625</LatitudeDegrees>
              <LongitudeDegrees>-2.72165282629430294036865234375</LongitudeDegrees>
            </Position>
            <AltitudeMeters>75</AltitudeMeters>
            <DistanceMeters>NAN</DistanceMeters>
          </Trackpoint>
          <Trackpoint>
            <Time>2022-07-11T15:05:13.000Z</Time>
            <Position>
              <LatitudeDegrees>43.29685427248477935791015625</LatitudeDegrees>
              <LongitudeDegrees>-2.72166556678712368011474609375</LongitudeDegrees>
            </Position>
            <AltitudeMeters>75</AltitudeMeters>
            <DistanceMeters>NAN</DistanceMeters>
          </Trackpoint>
          <Trackpoint>
            <Time>2022-07-11T15:05:17.000Z</Time>
            <Position>
              <LatitudeDegrees>43.2969087548553943634033203125</LatitudeDegrees>
              <LongitudeDegrees>-2.72171602584421634674072265625</LongitudeDegrees>
            </Position>
            <AltitudeMeters>75.40000152587890625</AltitudeMeters>
            <DistanceMeters>NAN</DistanceMeters>
          </Trackpoint>
          <Trackpoint>
            <Time>2022-07-11T15:05:21.000Z</Time>
            <Position>
              <LatitudeDegrees>43.29696784727275371551513671875</LatitudeDegrees>
              <LongitudeDegrees>-2.721759192645549774169921875</LongitudeDegrees>
            </Position>
            <AltitudeMeters>76.1999969482421875</AltitudeMeters>
            <DistanceMeters>NAN</DistanceMeters>
          </Trackpoint>
          <Trackpoint>
            <Time>2022-07-11T15:05:26.000Z</Time>
            <Position>
              <LatitudeDegrees>43.297049067914485931396484375</LatitudeDegrees>
              <LongitudeDegrees>-2.72179766558110713958740234375</LongitudeDegrees>
            </Position>
            <AltitudeMeters>77</AltitudeMeters>
            <DistanceMeters>NAN</DistanceMeters>
          </Trackpoint>
          <Trackpoint>
            <Time>2022-07-11T15:05:27.000Z</Time>
            <Position>
              <LatitudeDegrees>43.29706440679728984832763671875</LatitudeDegrees>
              <LongitudeDegrees>-2.7218051254749298095703125</LongitudeDegrees>
            </Position>
            <AltitudeMeters>77.1999969482421875</AltitudeMeters>
            <DistanceMeters>NAN</DistanceMeters>
          </Trackpoint>
          <Trackpoint>
            <Time>2022-07-11T15:05:34.000Z</Time>
            <Position>
              <LatitudeDegrees>43.29717370681464672088623046875</LatitudeDegrees>
              <LongitudeDegrees>-2.7218482084572315216064453125</LongitudeDegrees>
            </Position>
            <AltitudeMeters>77.8000030517578125</AltitudeMeters>
            <DistanceMeters>NAN</DistanceMeters>
          </Trackpoint>
          <Trackpoint>
            <Time>2022-07-11T15:05:37.000Z</Time>
            <Position>
              <LatitudeDegrees>43.297224752604961395263671875</LatitudeDegrees>
              <LongitudeDegrees>-2.72186757065355777740478515625</LongitudeDegrees>
            </Position>
            <AltitudeMeters>78.40000152587890625</AltitudeMeters>
            <DistanceMeters>NAN</DistanceMeters>
          </Trackpoint>
          <Trackpoint>
            <Time>2022-07-11T15:05:44.000Z</Time>
            <Position>
              <LatitudeDegrees>43.2973385788500308990478515625</LatitudeDegrees>
              <LongitudeDegrees>-2.72190093062818050384521484375</LongitudeDegrees>
            </Position>
            <AltitudeMeters>79.59999847412109375</AltitudeMeters>
            <DistanceMeters>NAN</DistanceMeters>
          </Trackpoint>
          <Trackpoint>
            <Time>2022-07-11T15:05:50.000Z</Time>
            <Position>
              <LatitudeDegrees>43.29742466099560260772705078125</LatitudeDegrees>
              <LongitudeDegrees>-2.72190369665622711181640625</LongitudeDegrees>
            </Position>
            <AltitudeMeters>80.59999847412109375</AltitudeMeters>
            <DistanceMeters>NAN</DistanceMeters>
          </Trackpoint>
          <Trackpoint>
            <Time>2022-07-11T15:05:54.000Z</Time>
            <Position>
              <LatitudeDegrees>43.2974837534129619598388671875</LatitudeDegrees>
              <LongitudeDegrees>-2.721913419663906097412109375</LongitudeDegrees>
            </Position>
            <AltitudeMeters>81.40000152587890625</AltitudeMeters>
            <DistanceMeters>NAN</DistanceMeters>
          </Trackpoint>
          <Trackpoint>
            <Time>2022-07-11T15:05:58.000Z</Time>
            <Position>
              <LatitudeDegrees>43.29755005426704883575439453125</LatitudeDegrees>
              <LongitudeDegrees>-2.7219256572425365447998046875</LongitudeDegrees>
            </Position>
            <AltitudeMeters>81.8000030517578125</AltitudeMeters>
            <DistanceMeters>NAN</DistanceMeters>
          </Trackpoint>
          <Trackpoint>
            <Time>2022-07-11T15:06:02.000Z</Time>
            <Position>
              <LatitudeDegrees>43.2976161874830722808837890625</LatitudeDegrees>
              <LongitudeDegrees>-2.72194124758243560791015625</LongitudeDegrees>
            </Position>
            <AltitudeMeters>82.1999969482421875</AltitudeMeters>
            <DistanceMeters>NAN</DistanceMeters>
          </Trackpoint>
          <Trackpoint>
            <Time>2022-07-11T15:06:07.000Z</Time>
            <Position>
              <LatitudeDegrees>43.2977010123431682586669921875</LatitudeDegrees>
              <LongitudeDegrees>-2.7219883538782596588134765625</LongitudeDegrees>
            </Position>
            <AltitudeMeters>82.8000030517578125</AltitudeMeters>
            <DistanceMeters>NAN</DistanceMeters>
          </Trackpoint>
          <Trackpoint>
            <Time>2022-07-11T15:06:10.000Z</Time>
            <Position>
              <LatitudeDegrees>43.2977378927171230316162109375</LatitudeDegrees>
              <LongitudeDegrees>-2.72203839384019374847412109375</LongitudeDegrees>
            </Position>
            <AltitudeMeters>83.1999969482421875</AltitudeMeters>
            <DistanceMeters>NAN</DistanceMeters>
          </Trackpoint>
          <Trackpoint>
            <Time>2022-07-11T15:06:17.000Z</Time>
            <Position>
              <LatitudeDegrees>43.29779782332479953765869140625</LatitudeDegrees>
              <LongitudeDegrees>-2.7222019247710704803466796875</LongitudeDegrees>
            </Position>
            <AltitudeMeters>83.8000030517578125</AltitudeMeters>
            <DistanceMeters>NAN</DistanceMeters>
          </Trackpoint>
          <Trackpoint>
            <Time>2022-07-11T15:06:18.000Z</Time>
            <Position>
              <LatitudeDegrees>43.2977992482483386993408203125</LatitudeDegrees>
              <LongitudeDegrees>-2.722224891185760498046875</LongitudeDegrees>
            </Position>
            <AltitudeMeters>83.8000030517578125</AltitudeMeters>
            <DistanceMeters>NAN</DistanceMeters>
          </Trackpoint>
          <Trackpoint>
            <Time>2022-07-11T15:06:19.000Z</Time>
            <Position>
              <LatitudeDegrees>43.2978012599050998687744140625</LatitudeDegrees>
              <LongitudeDegrees>-2.72224626503884792327880859375</LongitudeDegrees>
            </Position>
            <AltitudeMeters>84</AltitudeMeters>
            <DistanceMeters>NAN</DistanceMeters>
          </Trackpoint>
          <Trackpoint>
            <Time>2022-07-11T15:06:26.000Z</Time>
            <Position>
              <LatitudeDegrees>43.2978190295398235321044921875</LatitudeDegrees>
              <LongitudeDegrees>-2.7223903499543666839599609375</LongitudeDegrees>
            </Position>
            <AltitudeMeters>85</AltitudeMeters>
            <DistanceMeters>NAN</DistanceMeters>
          </Trackpoint>
          <Trackpoint>
            <Time>2022-07-11T15:06:29.000Z</Time>
            <Position>
              <LatitudeDegrees>43.297823555767536163330078125</LatitudeDegrees>
              <LongitudeDegrees>-2.72245354950428009033203125</LongitudeDegrees>
            </Position>
            <AltitudeMeters>85.40000152587890625</AltitudeMeters>
            <DistanceMeters>NAN</DistanceMeters>
          </Trackpoint>
          <Trackpoint>
            <Time>2022-07-11T15:06:36.000Z</Time>
            <Position>
              <LatitudeDegrees>43.29784928821027278900146484375</LatitudeDegrees>
              <LongitudeDegrees>-2.7225831337273120880126953125</LongitudeDegrees>
            </Position>
            <AltitudeMeters>86</AltitudeMeters>
            <DistanceMeters>NAN</DistanceMeters>
          </Trackpoint>
          <Trackpoint>
            <Time>2022-07-11T15:06:37.000Z</Time>
            <Position>
              <LatitudeDegrees>43.2978505454957485198974609375</LatitudeDegrees>
              <LongitudeDegrees>-2.72260266356170177459716796875</LongitudeDegrees>
            </Position>
            <AltitudeMeters>86.1999969482421875</AltitudeMeters>
            <DistanceMeters>NAN</DistanceMeters>
          </Trackpoint>
          <Trackpoint>
            <Time>2022-07-11T15:06:45.000Z</Time>
            <Position>
              <LatitudeDegrees>43.29792120493948459625244140625</LatitudeDegrees>
              <LongitudeDegrees>-2.7227412164211273193359375</LongitudeDegrees>
            </Position>
            <AltitudeMeters>87.1999969482421875</AltitudeMeters>
            <DistanceMeters>NAN</DistanceMeters>
          </Trackpoint>
          <Trackpoint>
            <Time>2022-07-11T15:06:46.000Z</Time>
            <Position>
              <LatitudeDegrees>43.2979330234229564666748046875</LatitudeDegrees>
              <LongitudeDegrees>-2.72275705821812152862548828125</LongitudeDegrees>
            </Position>
            <AltitudeMeters>87.1999969482421875</AltitudeMeters>
            <DistanceMeters>NAN</DistanceMeters>
          </Trackpoint>
          <Trackpoint>
            <Time>2022-07-11T15:06:55.000Z</Time>
            <Position>
              <LatitudeDegrees>43.29805632121860980987548828125</LatitudeDegrees>
              <LongitudeDegrees>-2.72285009734332561492919921875</LongitudeDegrees>
            </Position>
            <AltitudeMeters>88.1999969482421875</AltitudeMeters>
            <DistanceMeters>NAN</DistanceMeters>
          </Trackpoint>
          <Trackpoint>
            <Time>2022-07-11T15:06:56.000Z</Time>
            <Position>
              <LatitudeDegrees>43.29807559959590435028076171875</LatitudeDegrees>
              <LongitudeDegrees>-2.72285948507487773895263671875</LongitudeDegrees>
            </Position>
            <AltitudeMeters>88.1999969482421875</AltitudeMeters>
            <DistanceMeters>NAN</DistanceMeters>
          </Trackpoint>
          <Trackpoint>
            <Time>2022-07-11T15:07:04.000Z</Time>
            <Position>
              <LatitudeDegrees>43.29819579608738422393798828125</LatitudeDegrees>
              <LongitudeDegrees>-2.7229060046374797821044921875</LongitudeDegrees>
            </Position>
            <AltitudeMeters>89</AltitudeMeters>
            <DistanceMeters>NAN</DistanceMeters>
          </Trackpoint>
          <Trackpoint>
            <Time>2022-07-11T15:07:06.000Z</Time>
            <Position>
              <LatitudeDegrees>43.29822328872978687286376953125</LatitudeDegrees>
              <LongitudeDegrees>-2.72291379980742931365966796875</LongitudeDegrees>
            </Position>
            <AltitudeMeters>89.1999969482421875</AltitudeMeters>
            <DistanceMeters>NAN</DistanceMeters>
          </Trackpoint>
          <Trackpoint>
            <Time>2022-07-11T15:07:14.000Z</Time>
            <Position>
              <LatitudeDegrees>43.298322446644306182861328125</LatitudeDegrees>
              <LongitudeDegrees>-2.722947411239147186279296875</LongitudeDegrees>
            </Position>
            <AltitudeMeters>90.1999969482421875</AltitudeMeters>
            <DistanceMeters>NAN</DistanceMeters>
          </Trackpoint>
          <Trackpoint>
            <Time>2022-07-11T15:07:16.000Z</Time>
            <Position>
              <LatitudeDegrees>43.29834264703094959259033203125</LatitudeDegrees>
              <LongitudeDegrees>-2.72295805625617504119873046875</LongitudeDegrees>
            </Position>
            <AltitudeMeters>90.40000152587890625</AltitudeMeters>
            <DistanceMeters>NAN</DistanceMeters>
          </Trackpoint>
          <Trackpoint>
            <Time>2022-07-11T15:07:22.000Z</Time>
            <Position>
              <LatitudeDegrees>43.29842143692076206207275390625</LatitudeDegrees>
              <LongitudeDegrees>-2.722999043762683868408203125</LongitudeDegrees>
            </Position>
            <AltitudeMeters>90.8000030517578125</AltitudeMeters>
            <DistanceMeters>NAN</DistanceMeters>
          </Trackpoint>
          <Trackpoint>
            <Time>2022-07-11T15:07:28.000Z</Time>
            <Position>
              <LatitudeDegrees>43.298494778573513031005859375</LatitudeDegrees>
              <LongitudeDegrees>-2.7230290509760379791259765625</LongitudeDegrees>
            </Position>
            <AltitudeMeters>91.40000152587890625</AltitudeMeters>
            <DistanceMeters>NAN</DistanceMeters>
          </Trackpoint>
          <Trackpoint>
            <Time>2022-07-11T15:07:30.000Z</Time>
            <Position>
              <LatitudeDegrees>43.2985147275030612945556640625</LatitudeDegrees>
              <LongitudeDegrees>-2.72304120473563671112060546875</LongitudeDegrees>
            </Position>
            <AltitudeMeters>91.59999847412109375</AltitudeMeters>
            <DistanceMeters>NAN</DistanceMeters>
          </Trackpoint>
          <Trackpoint>
            <Time>2022-07-11T15:07:37.000Z</Time>
            <Position>
              <LatitudeDegrees>43.2986223511397838592529296875</LatitudeDegrees>
              <LongitudeDegrees>-2.7230957709252834320068359375</LongitudeDegrees>
            </Position>
            <AltitudeMeters>92.40000152587890625</AltitudeMeters>
            <DistanceMeters>NAN</DistanceMeters>
          </Trackpoint>
          <Trackpoint>
            <Time>2022-07-11T15:07:43.000Z</Time>
            <Position>
              <LatitudeDegrees>43.2986974529922008514404296875</LatitudeDegrees>
              <LongitudeDegrees>-2.723143883049488067626953125</LongitudeDegrees>
            </Position>
            <AltitudeMeters>93</AltitudeMeters>
            <DistanceMeters>NAN</DistanceMeters>
          </Trackpoint>
          <Trackpoint>
            <Time>2022-07-11T15:07:49.000Z</Time>
            <Position>
              <LatitudeDegrees>43.298783786594867706298828125</LatitudeDegrees>
              <LongitudeDegrees>-2.7231712080538272857666015625</LongitudeDegrees>
            </Position>
            <AltitudeMeters>93.59999847412109375</AltitudeMeters>
            <DistanceMeters>NAN</DistanceMeters>
          </Trackpoint>
          <Trackpoint>
            <Time>2022-07-11T15:07:51.000Z</Time>
            <Position>
              <LatitudeDegrees>43.29881496727466583251953125</LatitudeDegrees>
              <LongitudeDegrees>-2.7231757342815399169921875</LongitudeDegrees>
            </Position>
            <AltitudeMeters>93.59999847412109375</AltitudeMeters>
            <DistanceMeters>NAN</DistanceMeters>
          </Trackpoint>
          <Trackpoint>
            <Time>2022-07-11T15:07:59.000Z</Time>
            <Position>
              <LatitudeDegrees>43.29892116598784923553466796875</LatitudeDegrees>
              <LongitudeDegrees>-2.7231738902628421783447265625</LongitudeDegrees>
            </Position>
            <AltitudeMeters>94.59999847412109375</AltitudeMeters>
            <DistanceMeters>NAN</DistanceMeters>
          </Trackpoint>
          <Trackpoint>
            <Time>2022-07-11T15:08:09.000Z</Time>
            <Position>
              <LatitudeDegrees>43.29905997030436992645263671875</LatitudeDegrees>
              <LongitudeDegrees>-2.72320448420941829681396484375</LongitudeDegrees>
            </Position>
            <AltitudeMeters>95.59999847412109375</AltitudeMeters>
            <DistanceMeters>NAN</DistanceMeters>
          </Trackpoint>
          <Trackpoint>
            <Time>2022-07-11T15:08:10.000Z</Time>
            <Position>
              <LatitudeDegrees>43.2990679331123828887939453125</LatitudeDegrees>
              <LongitudeDegrees>-2.72321529686450958251953125</LongitudeDegrees>
            </Position>
            <AltitudeMeters>95.59999847412109375</AltitudeMeters>
            <DistanceMeters>NAN</DistanceMeters>
          </Trackpoint>
          <Trackpoint>
            <Time>2022-07-11T15:08:16.000Z</Time>
            <Position>
              <LatitudeDegrees>43.29911269247531890869140625</LatitudeDegrees>
              <LongitudeDegrees>-2.72329383529722690582275390625</LongitudeDegrees>
            </Position>
            <AltitudeMeters>96</AltitudeMeters>
            <DistanceMeters>NAN</DistanceMeters>
          </Trackpoint>
          <Trackpoint>
            <Time>2022-07-11T15:08:22.000Z</Time>
            <Position>
              <LatitudeDegrees>43.299117721617221832275390625</LatitudeDegrees>
              <LongitudeDegrees>-2.7234099246561527252197265625</LongitudeDegrees>
            </Position>
            <AltitudeMeters>96.1999969482421875</AltitudeMeters>
            <DistanceMeters>NAN</DistanceMeters>
          </Trackpoint>
          <Trackpoint>
            <Time>2022-07-11T15:08:28.000Z</Time>
            <Position>
              <LatitudeDegrees>43.2990964315831661224365234375</LatitudeDegrees>
              <LongitudeDegrees>-2.72350472398102283477783203125</LongitudeDegrees>
            </Position>
            <AltitudeMeters>96.59999847412109375</AltitudeMeters>
            <DistanceMeters>NAN</DistanceMeters>
          </Trackpoint>
          <Trackpoint>
            <Time>2022-07-11T15:08:29.000Z</Time>
            <Position>
              <LatitudeDegrees>43.299090899527072906494140625</LatitudeDegrees>
              <LongitudeDegrees>-2.72351981140673160552978515625</LongitudeDegrees>
            </Position>
            <AltitudeMeters>96.8000030517578125</AltitudeMeters>
            <DistanceMeters>NAN</DistanceMeters>
          </Trackpoint>
          <Trackpoint>
            <Time>2022-07-11T15:08:37.000Z</Time>
            <Position>
              <LatitudeDegrees>43.29901370219886302947998046875</LatitudeDegrees>
              <LongitudeDegrees>-2.723642773926258087158203125</LongitudeDegrees>
            </Position>
            <AltitudeMeters>97.59999847412109375</AltitudeMeters>
            <DistanceMeters>NAN</DistanceMeters>
          </Trackpoint>
          <Trackpoint>
            <Time>2022-07-11T15:08:39.000Z</Time>
            <Position>
              <LatitudeDegrees>43.2989941723644733428955078125</LatitudeDegrees>
              <LongitudeDegrees>-2.72367772646248340606689453125</LongitudeDegrees>
            </Position>
            <AltitudeMeters>97.8000030517578125</AltitudeMeters>
            <DistanceMeters>NAN</DistanceMeters>
          </Trackpoint>
          <Trackpoint>
            <Time>2022-07-11T15:08:47.000Z</Time>
            <Position>
              <LatitudeDegrees>43.29893968999385833740234375</LatitudeDegrees>
              <LongitudeDegrees>-2.72380680777132511138916015625</LongitudeDegrees>
            </Position>
            <AltitudeMeters>98.59999847412109375</AltitudeMeters>
            <DistanceMeters>NAN</DistanceMeters>
          </Trackpoint>
          <Trackpoint>
            <Time>2022-07-11T15:08:50.000Z</Time>
            <Position>
              <LatitudeDegrees>43.298930637538433074951171875</LatitudeDegrees>
              <LongitudeDegrees>-2.72386707365512847900390625</LongitudeDegrees>
            </Position>
            <AltitudeMeters>98.8000030517578125</AltitudeMeters>
            <DistanceMeters>NAN</DistanceMeters>
          </Trackpoint>
          <Trackpoint>
            <Time>2022-07-11T15:08:53.000Z</Time>
            <Position>
              <LatitudeDegrees>43.29892016015946865081787109375</LatitudeDegrees>
              <LongitudeDegrees>-2.723933123052120208740234375</LongitudeDegrees>
            </Position>
            <AltitudeMeters>99.1999969482421875</AltitudeMeters>
            <DistanceMeters>NAN</DistanceMeters>
          </Trackpoint>
          <Trackpoint>
            <Time>2022-07-11T15:08:54.000Z</Time>
            <Position>
              <LatitudeDegrees>43.2989230938255786895751953125</LatitudeDegrees>
              <LongitudeDegrees>-2.7239547483623027801513671875</LongitudeDegrees>
            </Position>
            <AltitudeMeters>99.40000152587890625</AltitudeMeters>
            <DistanceMeters>NAN</DistanceMeters>
          </Trackpoint>
          <Trackpoint>
            <Time>2022-07-11T15:08:56.000Z</Time>
            <Position>
              <LatitudeDegrees>43.298923261463642120361328125</LatitudeDegrees>
              <LongitudeDegrees>-2.72399858571588993072509765625</LongitudeDegrees>
            </Position>
            <AltitudeMeters>99.59999847412109375</AltitudeMeters>
            <DistanceMeters>NAN</DistanceMeters>
          </Trackpoint>
          <Trackpoint>
            <Time>2022-07-11T15:08:59.000Z</Time>
            <Position>
              <LatitudeDegrees>43.2989425398409366607666015625</LatitudeDegrees>
              <LongitudeDegrees>-2.724054157733917236328125</LongitudeDegrees>
            </Position>
            <AltitudeMeters>100</AltitudeMeters>
            <DistanceMeters>NAN</DistanceMeters>
          </Trackpoint>
          <Trackpoint>
            <Time>2022-07-11T15:09:05.000Z</Time>
            <Position>
              <LatitudeDegrees>43.29898034222424030303955078125</LatitudeDegrees>
              <LongitudeDegrees>-2.72417963482439517974853515625</LongitudeDegrees>
            </Position>
            <AltitudeMeters>100.40000152587890625</AltitudeMeters>
            <DistanceMeters>NAN</DistanceMeters>
          </Trackpoint>
          <Trackpoint>
            <Time>2022-07-11T15:09:07.000Z</Time>
            <Position>
              <LatitudeDegrees>43.29899593256413936614990234375</LatitudeDegrees>
              <LongitudeDegrees>-2.72422556765377521514892578125</LongitudeDegrees>
            </Position>
            <AltitudeMeters>100.59999847412109375</AltitudeMeters>
            <DistanceMeters>NAN</DistanceMeters>
          </Trackpoint>
          <Trackpoint>
            <Time>2022-07-11T15:09:12.000Z</Time>
            <Position>
              <LatitudeDegrees>43.29903314821422100067138671875</LatitudeDegrees>
              <LongitudeDegrees>-2.7243329398334026336669921875</LongitudeDegrees>
            </Position>
            <AltitudeMeters>101</AltitudeMeters>
            <DistanceMeters>NAN</DistanceMeters>
          </Trackpoint>
          <Trackpoint>
            <Time>2022-07-11T15:09:16.000Z</Time>
            <Position>
              <LatitudeDegrees>43.299058042466640472412109375</LatitudeDegrees>
              <LongitudeDegrees>-2.72440996952354907989501953125</LongitudeDegrees>
            </Position>
            <AltitudeMeters>101.1999969482421875</AltitudeMeters>
            <DistanceMeters>NAN</DistanceMeters>
          </Trackpoint>
          <Trackpoint>
            <Time>2022-07-11T15:09:26.000Z</Time>
            <Position>
              <LatitudeDegrees>43.299119733273983001708984375</LatitudeDegrees>
              <LongitudeDegrees>-2.7245914377272129058837890625</LongitudeDegrees>
            </Position>
            <AltitudeMeters>101.8000030517578125</AltitudeMeters>
            <DistanceMeters>NAN</DistanceMeters>
          </Trackpoint>
          <Trackpoint>
            <Time>2022-07-11T15:09:30.000Z</Time>
            <Position>
              <LatitudeDegrees>43.29913624562323093414306640625</LatitudeDegrees>
              <LongitudeDegrees>-2.7246591635048389434814453125</LongitudeDegrees>
            </Position>
            <AltitudeMeters>102</AltitudeMeters>
            <DistanceMeters>NAN</DistanceMeters>
          </Trackpoint>
          <Trackpoint>
            <Time>2022-07-11T15:09:33.000Z</Time>
            <Position>
              <LatitudeDegrees>43.2991535961627960205078125</LatitudeDegrees>
              <LongitudeDegrees>-2.72471926175057888031005859375</LongitudeDegrees>
            </Position>
            <AltitudeMeters>102.1999969482421875</AltitudeMeters>
            <DistanceMeters>NAN</DistanceMeters>
          </Trackpoint>
          <Trackpoint>
            <Time>2022-07-11T15:09:42.000Z</Time>
            <Position>
              <LatitudeDegrees>43.299210257828235626220703125</LatitudeDegrees>
              <LongitudeDegrees>-2.724890001118183135986328125</LongitudeDegrees>
            </Position>
            <AltitudeMeters>102.59999847412109375</AltitudeMeters>
            <DistanceMeters>NAN</DistanceMeters>
          </Trackpoint>
          <Trackpoint>
            <Time>2022-07-11T15:09:51.000Z</Time>
            <Position>
              <LatitudeDegrees>43.29927203245460987091064453125</LatitudeDegrees>
              <LongitudeDegrees>-2.7250638417899608612060546875</LongitudeDegrees>
            </Position>
            <AltitudeMeters>102.8000030517578125</AltitudeMeters>
            <DistanceMeters>NAN</DistanceMeters>
          </Trackpoint>
          <Trackpoint>
            <Time>2022-07-11T15:09:55.000Z</Time>
            <Position>
              <LatitudeDegrees>43.29929986037313938140869140625</LatitudeDegrees>
              <LongitudeDegrees>-2.725146822631359100341796875</LongitudeDegrees>
            </Position>
            <AltitudeMeters>103</AltitudeMeters>
            <DistanceMeters>NAN</DistanceMeters>
          </Trackpoint>
          <Trackpoint>
            <Time>2022-07-11T15:09:56.000Z</Time>
            <Position>
              <LatitudeDegrees>43.29930975101888179779052734375</LatitudeDegrees>
              <LongitudeDegrees>-2.72516719065606594085693359375</LongitudeDegrees>
            </Position>
            <AltitudeMeters>103</AltitudeMeters>
            <DistanceMeters>NAN</DistanceMeters>
          </Trackpoint>
          <Trackpoint>
            <Time>2022-07-11T15:09:58.000Z</Time>
            <Position>
              <LatitudeDegrees>43.29932056367397308349609375</LatitudeDegrees>
              <LongitudeDegrees>-2.7252143807709217071533203125</LongitudeDegrees>
            </Position>
            <AltitudeMeters>103.1999969482421875</AltitudeMeters>
            <DistanceMeters>NAN</DistanceMeters>
          </Trackpoint>
          <Trackpoint>
            <Time>2022-07-11T15:10:06.000Z</Time>
            <Position>
              <LatitudeDegrees>43.299375884234905242919921875</LatitudeDegrees>
              <LongitudeDegrees>-2.72538612596690654754638671875</LongitudeDegrees>
            </Position>
            <AltitudeMeters>103.40000152587890625</AltitudeMeters>
            <DistanceMeters>NAN</DistanceMeters>
          </Trackpoint>
          <Trackpoint>
            <Time>2022-07-11T15:10:10.000Z</Time>
            <Position>
              <LatitudeDegrees>43.29940698109567165374755859375</LatitudeDegrees>
              <LongitudeDegrees>-2.72546030580997467041015625</LongitudeDegrees>
            </Position>
            <AltitudeMeters>103.59999847412109375</AltitudeMeters>
            <DistanceMeters>NAN</DistanceMeters>
          </Trackpoint>
          <Trackpoint>
            <Time>2022-07-11T15:10:13.000Z</Time>
            <Position>
              <LatitudeDegrees>43.29942072741687297821044921875</LatitudeDegrees>
              <LongitudeDegrees>-2.7255265228450298309326171875</LongitudeDegrees>
            </Position>
            <AltitudeMeters>103.8000030517578125</AltitudeMeters>
            <DistanceMeters>NAN</DistanceMeters>
          </Trackpoint>
          <Trackpoint>
            <Time>2022-07-11T15:10:16.000Z</Time>
            <Position>
              <LatitudeDegrees>43.29943665303289890289306640625</LatitudeDegrees>
              <LongitudeDegrees>-2.72558544762432575225830078125</LongitudeDegrees>
            </Position>
            <AltitudeMeters>104</AltitudeMeters>
            <DistanceMeters>NAN</DistanceMeters>
          </Trackpoint>
          <Trackpoint>
            <Time>2022-07-11T15:10:20.000Z</Time>
            <Position>
              <LatitudeDegrees>43.29947688616812229156494140625</LatitudeDegrees>
              <LongitudeDegrees>-2.72566356696188449859619140625</LongitudeDegrees>
            </Position>
            <AltitudeMeters>104.40000152587890625</AltitudeMeters>
            <DistanceMeters>NAN</DistanceMeters>
          </Trackpoint>
          <Trackpoint>
            <Time>2022-07-11T15:10:24.000Z</Time>
            <Position>
              <LatitudeDegrees>43.299511335790157318115234375</LatitudeDegrees>
              <LongitudeDegrees>-2.7257447876036167144775390625</LongitudeDegrees>
            </Position>
            <AltitudeMeters>104.8000030517578125</AltitudeMeters>
            <DistanceMeters>NAN</DistanceMeters>
          </Trackpoint>
          <Trackpoint>
            <Time>2022-07-11T15:10:26.000Z</Time>
            <Position>
              <LatitudeDegrees>43.29951829276978969573974609375</LatitudeDegrees>
              <LongitudeDegrees>-2.725789211690425872802734375</LongitudeDegrees>
            </Position>
            <AltitudeMeters>105.1999969482421875</AltitudeMeters>
            <DistanceMeters>NAN</DistanceMeters>
          </Trackpoint>
          <Trackpoint>
            <Time>2022-07-11T15:10:28.000Z</Time>
            <Position>
              <LatitudeDegrees>43.2995175383985042572021484375</LatitudeDegrees>
              <LongitudeDegrees>-2.7258356474339962005615234375</LongitudeDegrees>
            </Position>
            <AltitudeMeters>105.40000152587890625</AltitudeMeters>
            <DistanceMeters>NAN</DistanceMeters>
          </Trackpoint>
          <Trackpoint>
            <Time>2022-07-11T15:10:29.000Z</Time>
            <Position>
              <LatitudeDegrees>43.29951460473239421844482421875</LatitudeDegrees>
              <LongitudeDegrees>-2.72585936821997165679931640625</LongitudeDegrees>
            </Position>
            <AltitudeMeters>105.59999847412109375</AltitudeMeters>
            <DistanceMeters>NAN</DistanceMeters>
          </Trackpoint>
          <Trackpoint>
            <Time>2022-07-11T15:10:38.000Z</Time>
            <Position>
              <LatitudeDegrees>43.29942047595977783203125</LatitudeDegrees>
              <LongitudeDegrees>-2.72602147422730922698974609375</LongitudeDegrees>
            </Position>
            <AltitudeMeters>105.8000030517578125</AltitudeMeters>
            <DistanceMeters>NAN</DistanceMeters>
          </Trackpoint>
          <Trackpoint>
            <Time>2022-07-11T15:10:42.000Z</Time>
            <Position>
              <LatitudeDegrees>43.29936071299016475677490234375</LatitudeDegrees>
              <LongitudeDegrees>-2.72604293189942836761474609375</LongitudeDegrees>
            </Position>
            <AltitudeMeters>106.1999969482421875</AltitudeMeters>
            <DistanceMeters>NAN</DistanceMeters>
          </Trackpoint>
          <Trackpoint>
            <Time>2022-07-11T15:10:45.000Z</Time>
            <Position>
              <LatitudeDegrees>43.29931260086596012115478515625</LatitudeDegrees>
              <LongitudeDegrees>-2.72603203542530536651611328125</LongitudeDegrees>
            </Position>
            <AltitudeMeters>106.40000152587890625</AltitudeMeters>
            <DistanceMeters>NAN</DistanceMeters>
          </Trackpoint>
          <Trackpoint>
            <Time>2022-07-11T15:10:53.000Z</Time>
            <Position>
              <LatitudeDegrees>43.29919877462089061737060546875</LatitudeDegrees>
              <LongitudeDegrees>-2.72593371570110321044921875</LongitudeDegrees>
            </Position>
            <AltitudeMeters>106.8000030517578125</AltitudeMeters>
            <DistanceMeters>NAN</DistanceMeters>
          </Trackpoint>
          <Trackpoint>
            <Time>2022-07-11T15:10:55.000Z</Time>
            <Position>
              <LatitudeDegrees>43.2991670072078704833984375</LatitudeDegrees>
              <LongitudeDegrees>-2.7259060554206371307373046875</LongitudeDegrees>
            </Position>
            <AltitudeMeters>106.8000030517578125</AltitudeMeters>
            <DistanceMeters>NAN</DistanceMeters>
          </Trackpoint>
          <Trackpoint>
            <Time>2022-07-11T15:11:00.000Z</Time>
            <Position>
              <LatitudeDegrees>43.299098275601863861083984375</LatitudeDegrees>
              <LongitudeDegrees>-2.72583606652915477752685546875</LongitudeDegrees>
            </Position>
            <AltitudeMeters>107.1999969482421875</AltitudeMeters>
            <DistanceMeters>NAN</DistanceMeters>
          </Trackpoint>
          <Trackpoint>
            <Time>2022-07-11T15:11:06.000Z</Time>
            <Position>
              <LatitudeDegrees>43.2990273647010326385498046875</LatitudeDegrees>
              <LongitudeDegrees>-2.7257524989545345306396484375</LongitudeDegrees>
            </Position>
            <AltitudeMeters>107.59999847412109375</AltitudeMeters>
            <DistanceMeters>NAN</DistanceMeters>
          </Trackpoint>
          <Trackpoint>
            <Time>2022-07-11T15:11:10.000Z</Time>
            <Position>
              <LatitudeDegrees>43.29896709881722927093505859375</LatitudeDegrees>
              <LongitudeDegrees>-2.72571033798158168792724609375</LongitudeDegrees>
            </Position>
            <AltitudeMeters>108</AltitudeMeters>
            <DistanceMeters>NAN</DistanceMeters>
          </Trackpoint>
          <Trackpoint>
            <Time>2022-07-11T15:11:13.000Z</Time>
            <Position>
              <LatitudeDegrees>43.2989224232733249664306640625</LatitudeDegrees>
              <LongitudeDegrees>-2.725695334374904632568359375</LongitudeDegrees>
            </Position>
            <AltitudeMeters>108.1999969482421875</AltitudeMeters>
            <DistanceMeters>NAN</DistanceMeters>
          </Trackpoint>
          <Trackpoint>
            <Time>2022-07-11T15:11:14.000Z</Time>
            <Position>
              <LatitudeDegrees>43.2989059947431087493896484375</LatitudeDegrees>
              <LongitudeDegrees>-2.7256901375949382781982421875</LongitudeDegrees>
            </Position>
            <AltitudeMeters>108.40000152587890625</AltitudeMeters>
            <DistanceMeters>NAN</DistanceMeters>
          </Trackpoint>
          <Trackpoint>
            <Time>2022-07-11T15:11:22.000Z</Time>
            <Position>
              <LatitudeDegrees>43.29877741634845733642578125</LatitudeDegrees>
              <LongitudeDegrees>-2.72572793997824192047119140625</LongitudeDegrees>
            </Position>
            <AltitudeMeters>109.1999969482421875</AltitudeMeters>
            <DistanceMeters>NAN</DistanceMeters>
          </Trackpoint>
          <Trackpoint>
            <Time>2022-07-11T15:11:29.000Z</Time>
            <Position>
              <LatitudeDegrees>43.29870658926665782928466796875</LatitudeDegrees>
              <LongitudeDegrees>-2.725839503109455108642578125</LongitudeDegrees>
            </Position>
            <AltitudeMeters>110.1999969482421875</AltitudeMeters>
            <DistanceMeters>NAN</DistanceMeters>
          </Trackpoint>
          <Trackpoint>
            <Time>2022-07-11T15:11:30.000Z</Time>
            <Position>
              <LatitudeDegrees>43.29870122484862804412841796875</LatitudeDegrees>
              <LongitudeDegrees>-2.72585450671613216400146484375</LongitudeDegrees>
            </Position>
            <AltitudeMeters>110.40000152587890625</AltitudeMeters>
            <DistanceMeters>NAN</DistanceMeters>
          </Trackpoint>
          <Trackpoint>
            <Time>2022-07-11T15:11:37.000Z</Time>
            <Position>
              <LatitudeDegrees>43.2986359298229217529296875</LatitudeDegrees>
              <LongitudeDegrees>-2.72597671486437320709228515625</LongitudeDegrees>
            </Position>
            <AltitudeMeters>111.1999969482421875</AltitudeMeters>
            <DistanceMeters>NAN</DistanceMeters>
          </Trackpoint>
          <Trackpoint>
            <Time>2022-07-11T15:11:38.000Z</Time>
            <Position>
              <LatitudeDegrees>43.298625536262989044189453125</LatitudeDegrees>
              <LongitudeDegrees>-2.7259918861091136932373046875</LongitudeDegrees>
            </Position>
            <AltitudeMeters>111.40000152587890625</AltitudeMeters>
            <DistanceMeters>NAN</DistanceMeters>
          </Trackpoint>
          <Trackpoint>
            <Time>2022-07-11T15:11:40.000Z</Time>
            <Position>
              <LatitudeDegrees>43.29860734753310680389404296875</LatitudeDegrees>
              <LongitudeDegrees>-2.7260177023708820343017578125</LongitudeDegrees>
            </Position>
            <AltitudeMeters>111.40000152587890625</AltitudeMeters>
            <DistanceMeters>NAN</DistanceMeters>
          </Trackpoint>
          <Trackpoint>
            <Time>2022-07-11T15:11:49.000Z</Time>
            <Position>
              <LatitudeDegrees>43.29849176108837127685546875</LatitudeDegrees>
              <LongitudeDegrees>-2.72611518390476703643798828125</LongitudeDegrees>
            </Position>
            <AltitudeMeters>112.1999969482421875</AltitudeMeters>
            <DistanceMeters>NAN</DistanceMeters>
          </Trackpoint>
          <Trackpoint>
            <Time>2022-07-11T15:11:51.000Z</Time>
            <Position>
              <LatitudeDegrees>43.29846468754112720489501953125</LatitudeDegrees>
              <LongitudeDegrees>-2.72612943314015865325927734375</LongitudeDegrees>
            </Position>
            <AltitudeMeters>112.40000152587890625</AltitudeMeters>
            <DistanceMeters>NAN</DistanceMeters>
          </Trackpoint>
          <Trackpoint>
            <Time>2022-07-11T15:11:59.000Z</Time>
            <Position>
              <LatitudeDegrees>43.2983516156673431396484375</LatitudeDegrees>
              <LongitudeDegrees>-2.726162709295749664306640625</LongitudeDegrees>
            </Position>
            <AltitudeMeters>113.40000152587890625</AltitudeMeters>
            <DistanceMeters>NAN</DistanceMeters>
          </Trackpoint>
          <Trackpoint>
            <Time>2022-07-11T15:12:01.000Z</Time>
            <Position>
              <LatitudeDegrees>43.29831607639789581298828125</LatitudeDegrees>
              <LongitudeDegrees>-2.72616597823798656463623046875</LongitudeDegrees>
            </Position>
            <AltitudeMeters>113.59999847412109375</AltitudeMeters>
            <DistanceMeters>NAN</DistanceMeters>
          </Trackpoint>
          <Trackpoint>
            <Time>2022-07-11T15:12:07.000Z</Time>
            <Position>
              <LatitudeDegrees>43.29823217354714870452880859375</LatitudeDegrees>
              <LongitudeDegrees>-2.726187519729137420654296875</LongitudeDegrees>
            </Position>
            <AltitudeMeters>114.1999969482421875</AltitudeMeters>
            <DistanceMeters>NAN</DistanceMeters>
          </Trackpoint>
          <Trackpoint>
            <Time>2022-07-11T15:12:08.000Z</Time>
            <Position>
              <LatitudeDegrees>43.29821775667369365692138671875</LatitudeDegrees>
              <LongitudeDegrees>-2.72619045339524745941162109375</LongitudeDegrees>
            </Position>
            <AltitudeMeters>114.1999969482421875</AltitudeMeters>
            <DistanceMeters>NAN</DistanceMeters>
          </Trackpoint>
          <Trackpoint>
            <Time>2022-07-11T15:12:13.000Z</Time>
            <Position>
              <LatitudeDegrees>43.29814315773546695709228515625</LatitudeDegrees>
              <LongitudeDegrees>-2.72617754526436328887939453125</LongitudeDegrees>
            </Position>
            <AltitudeMeters>114.59999847412109375</AltitudeMeters>
            <DistanceMeters>NAN</DistanceMeters>
          </Trackpoint>
          <Trackpoint>
            <Time>2022-07-11T15:12:14.000Z</Time>
            <Position>
              <LatitudeDegrees>43.2981261424720287322998046875</LatitudeDegrees>
              <LongitudeDegrees>-2.72617109119892120361328125</LongitudeDegrees>
            </Position>
            <AltitudeMeters>114.59999847412109375</AltitudeMeters>
            <DistanceMeters>NAN</DistanceMeters>
          </Trackpoint>
          <Trackpoint>
            <Time>2022-07-11T15:12:16.000Z</Time>
            <Position>
              <LatitudeDegrees>43.29809923656284809112548828125</LatitudeDegrees>
              <LongitudeDegrees>-2.7261585183441638946533203125</LongitudeDegrees>
            </Position>
            <AltitudeMeters>114.8000030517578125</AltitudeMeters>
            <DistanceMeters>NAN</DistanceMeters>
          </Trackpoint>
          <Trackpoint>
            <Time>2022-07-11T15:12:21.000Z</Time>
            <Position>
              <LatitudeDegrees>43.29802664928138256072998046875</LatitudeDegrees>
              <LongitudeDegrees>-2.7260921336710453033447265625</LongitudeDegrees>
            </Position>
            <AltitudeMeters>115.59999847412109375</AltitudeMeters>
            <DistanceMeters>NAN</DistanceMeters>
          </Trackpoint>
          <Trackpoint>
            <Time>2022-07-11T15:12:29.000Z</Time>
            <Position>
              <LatitudeDegrees>43.2979682274162769317626953125</LatitudeDegrees>
              <LongitudeDegrees>-2.72590412758290767669677734375</LongitudeDegrees>
            </Position>
            <AltitudeMeters>116.40000152587890625</AltitudeMeters>
            <DistanceMeters>NAN</DistanceMeters>
          </Trackpoint>
          <Trackpoint>
            <Time>2022-07-11T15:12:32.000Z</Time>
            <Position>
              <LatitudeDegrees>43.2979601807892322540283203125</LatitudeDegrees>
              <LongitudeDegrees>-2.72582466714084148406982421875</LongitudeDegrees>
            </Position>
            <AltitudeMeters>116.59999847412109375</AltitudeMeters>
            <DistanceMeters>NAN</DistanceMeters>
          </Trackpoint>
          <Trackpoint>
            <Time>2022-07-11T15:12:38.000Z</Time>
            <Position>
              <LatitudeDegrees>43.29792874865233898162841796875</LatitudeDegrees>
              <LongitudeDegrees>-2.72567731328308582305908203125</LongitudeDegrees>
            </Position>
            <AltitudeMeters>117.1999969482421875</AltitudeMeters>
            <DistanceMeters>NAN</DistanceMeters>
          </Trackpoint>
          <Trackpoint>
            <Time>2022-07-11T15:12:43.000Z</Time>
            <Position>
              <LatitudeDegrees>43.29788130708038806915283203125</LatitudeDegrees>
              <LongitudeDegrees>-2.7255768142640590667724609375</LongitudeDegrees>
            </Position>
            <AltitudeMeters>117.8000030517578125</AltitudeMeters>
            <DistanceMeters>NAN</DistanceMeters>
          </Trackpoint>
          <Trackpoint>
            <Time>2022-07-11T15:12:46.000Z</Time>
            <Position>
              <LatitudeDegrees>43.29783805646002292633056640625</LatitudeDegrees>
              <LongitudeDegrees>-2.7255214937031269073486328125</LongitudeDegrees>
            </Position>
            <AltitudeMeters>118.1999969482421875</AltitudeMeters>
            <DistanceMeters>NAN</DistanceMeters>
          </Trackpoint>
          <Trackpoint>
            <Time>2022-07-11T15:12:50.000Z</Time>
            <Position>
              <LatitudeDegrees>43.29779346473515033721923828125</LatitudeDegrees>
              <LongitudeDegrees>-2.7254475653171539306640625</LongitudeDegrees>
            </Position>
            <AltitudeMeters>119</AltitudeMeters>
            <DistanceMeters>NAN</DistanceMeters>
          </Trackpoint>
          <Trackpoint>
            <Time>2022-07-11T15:12:54.000Z</Time>
            <Position>
              <LatitudeDegrees>43.2977462746202945709228515625</LatitudeDegrees>
              <LongitudeDegrees>-2.7253733016550540924072265625</LongitudeDegrees>
            </Position>
            <AltitudeMeters>119.59999847412109375</AltitudeMeters>
            <DistanceMeters>NAN</DistanceMeters>
          </Trackpoint>
          <Trackpoint>
            <Time>2022-07-11T15:12:57.000Z</Time>
            <Position>
              <LatitudeDegrees>43.297715596854686737060546875</LatitudeDegrees>
              <LongitudeDegrees>-2.7253203280270099639892578125</LongitudeDegrees>
            </Position>
            <AltitudeMeters>120</AltitudeMeters>
            <DistanceMeters>NAN</DistanceMeters>
          </Trackpoint>
          <Trackpoint>
            <Time>2022-07-11T15:13:04.000Z</Time>
            <Position>
              <LatitudeDegrees>43.29765466041862964630126953125</LatitudeDegrees>
              <LongitudeDegrees>-2.72518646903336048126220703125</LongitudeDegrees>
            </Position>
            <AltitudeMeters>121</AltitudeMeters>
            <DistanceMeters>NAN</DistanceMeters>
          </Trackpoint>
          <Trackpoint>
            <Time>2022-07-11T15:13:06.000Z</Time>
            <Position>
              <LatitudeDegrees>43.29763890244066715240478515625</LatitudeDegrees>
              <LongitudeDegrees>-2.72514439187943935394287109375</LongitudeDegrees>
            </Position>
            <AltitudeMeters>121.1999969482421875</AltitudeMeters>
            <DistanceMeters>NAN</DistanceMeters>
          </Trackpoint>
          <Trackpoint>
            <Time>2022-07-11T15:13:13.000Z</Time>
            <Position>
              <LatitudeDegrees>43.29756933264434337615966796875</LatitudeDegrees>
              <LongitudeDegrees>-2.72501170635223388671875</LongitudeDegrees>
            </Position>
            <AltitudeMeters>122.1999969482421875</AltitudeMeters>
            <DistanceMeters>NAN</DistanceMeters>
          </Trackpoint>
          <Trackpoint>
            <Time>2022-07-11T15:13:16.000Z</Time>
            <Position>
              <LatitudeDegrees>43.297536559402942657470703125</LatitudeDegrees>
              <LongitudeDegrees>-2.7249498479068279266357421875</LongitudeDegrees>
            </Position>
            <AltitudeMeters>122.40000152587890625</AltitudeMeters>
            <DistanceMeters>NAN</DistanceMeters>
          </Trackpoint>
          <Trackpoint>
            <Time>2022-07-11T15:13:17.000Z</Time>
            <Position>
              <LatitudeDegrees>43.29752390272915363311767578125</LatitudeDegrees>
              <LongitudeDegrees>-2.7249273844063282012939453125</LongitudeDegrees>
            </Position>
            <AltitudeMeters>122.40000152587890625</AltitudeMeters>
            <DistanceMeters>NAN</DistanceMeters>
          </Trackpoint>
          <Trackpoint>
            <Time>2022-07-11T15:13:23.000Z</Time>
            <Position>
              <LatitudeDegrees>43.29743522219359874725341796875</LatitudeDegrees>
              <LongitudeDegrees>-2.724850438535213470458984375</LongitudeDegrees>
            </Position>
            <AltitudeMeters>123.1999969482421875</AltitudeMeters>
            <DistanceMeters>NAN</DistanceMeters>
          </Trackpoint>
          <Trackpoint>
            <Time>2022-07-11T15:13:26.000Z</Time>
            <Position>
              <LatitudeDegrees>43.297389708459377288818359375</LatitudeDegrees>
              <LongitudeDegrees>-2.724826298654079437255859375</LongitudeDegrees>
            </Position>
            <AltitudeMeters>123.59999847412109375</AltitudeMeters>
            <DistanceMeters>NAN</DistanceMeters>
          </Trackpoint>
          <Trackpoint>
            <Time>2022-07-11T15:13:33.000Z</Time>
            <Position>
              <LatitudeDegrees>43.2972902990877628326416015625</LatitudeDegrees>
              <LongitudeDegrees>-2.72478765808045864105224609375</LongitudeDegrees>
            </Position>
            <AltitudeMeters>124.1999969482421875</AltitudeMeters>
            <DistanceMeters>NAN</DistanceMeters>
          </Trackpoint>
          <Trackpoint>
            <Time>2022-07-11T15:13:35.000Z</Time>
            <Position>
              <LatitudeDegrees>43.2972537539899349212646484375</LatitudeDegrees>
              <LongitudeDegrees>-2.7247761748731136322021484375</LongitudeDegrees>
            </Position>
            <AltitudeMeters>124.59999847412109375</AltitudeMeters>
            <DistanceMeters>NAN</DistanceMeters>
          </Trackpoint>
          <Trackpoint>
            <Time>2022-07-11T15:13:44.000Z</Time>
            <Position>
              <LatitudeDegrees>43.29710774123668670654296875</LatitudeDegrees>
              <LongitudeDegrees>-2.7247158251702785491943359375</LongitudeDegrees>
            </Position>
            <AltitudeMeters>125.40000152587890625</AltitudeMeters>
            <DistanceMeters>NAN</DistanceMeters>
          </Trackpoint>
          <Trackpoint>
            <Time>2022-07-11T15:13:46.000Z</Time>
            <Position>
              <LatitudeDegrees>43.29707019031047821044921875</LatitudeDegrees>
              <LongitudeDegrees>-2.72470886819064617156982421875</LongitudeDegrees>
            </Position>
            <AltitudeMeters>125.59999847412109375</AltitudeMeters>
            <DistanceMeters>NAN</DistanceMeters>
          </Trackpoint>
          <Trackpoint>
            <Time>2022-07-11T15:13:54.000Z</Time>
            <Position>
              <LatitudeDegrees>43.2969246804714202880859375</LatitudeDegrees>
              <LongitudeDegrees>-2.72469780407845973968505859375</LongitudeDegrees>
            </Position>
            <AltitudeMeters>126.59999847412109375</AltitudeMeters>
            <DistanceMeters>NAN</DistanceMeters>
          </Trackpoint>
          <Trackpoint>
            <Time>2022-07-11T15:13:58.000Z</Time>
            <Position>
              <LatitudeDegrees>43.29685167409479618072509765625</LatitudeDegrees>
              <LongitudeDegrees>-2.72471691481769084930419921875</LongitudeDegrees>
            </Position>
            <AltitudeMeters>127</AltitudeMeters>
            <DistanceMeters>NAN</DistanceMeters>
          </Trackpoint>
          <Trackpoint>
            <Time>2022-07-11T15:14:01.000Z</Time>
            <Position>
              <LatitudeDegrees>43.2967997901141643524169921875</LatitudeDegrees>
              <LongitudeDegrees>-2.72473652847111225128173828125</LongitudeDegrees>
            </Position>
            <AltitudeMeters>127.40000152587890625</AltitudeMeters>
            <DistanceMeters>NAN</DistanceMeters>
          </Trackpoint>
          <Trackpoint>
            <Time>2022-07-11T15:14:03.000Z</Time>
            <Position>
              <LatitudeDegrees>43.29676567576825618743896484375</LatitudeDegrees>
              <LongitudeDegrees>-2.7247533760964870452880859375</LongitudeDegrees>
            </Position>
            <AltitudeMeters>127.59999847412109375</AltitudeMeters>
            <DistanceMeters>NAN</DistanceMeters>
          </Trackpoint>
          <Trackpoint>
            <Time>2022-07-11T15:14:09.000Z</Time>
            <Position>
              <LatitudeDegrees>43.29667146317660808563232421875</LatitudeDegrees>
              <LongitudeDegrees>-2.72481850348412990570068359375</LongitudeDegrees>
            </Position>
            <AltitudeMeters>128.1999969482421875</AltitudeMeters>
            <DistanceMeters>NAN</DistanceMeters>
          </Trackpoint>
          <Trackpoint>
            <Time>2022-07-11T15:14:12.000Z</Time>
            <Position>
              <LatitudeDegrees>43.29662854783236980438232421875</LatitudeDegrees>
              <LongitudeDegrees>-2.724863179028034210205078125</LongitudeDegrees>
            </Position>
            <AltitudeMeters>128.399993896484375</AltitudeMeters>
            <DistanceMeters>NAN</DistanceMeters>
          </Trackpoint>
          <Trackpoint>
            <Time>2022-07-11T15:14:14.000Z</Time>
            <Position>
              <LatitudeDegrees>43.2966066710650920867919921875</LatitudeDegrees>
              <LongitudeDegrees>-2.72489042021334171295166015625</LongitudeDegrees>
            </Position>
            <AltitudeMeters>128.600006103515625</AltitudeMeters>
            <DistanceMeters>NAN</DistanceMeters>
          </Trackpoint>
          <Trackpoint>
            <Time>2022-07-11T15:14:20.000Z</Time>
            <Position>
              <LatitudeDegrees>43.296548165380954742431640625</LatitudeDegrees>
              <LongitudeDegrees>-2.72499804385006427764892578125</LongitudeDegrees>
            </Position>
            <AltitudeMeters>129.1999969482421875</AltitudeMeters>
            <DistanceMeters>NAN</DistanceMeters>
          </Trackpoint>
          <Trackpoint>
            <Time>2022-07-11T15:14:24.000Z</Time>
            <Position>
              <LatitudeDegrees>43.29651287756860256195068359375</LatitudeDegrees>
              <LongitudeDegrees>-2.725073732435703277587890625</LongitudeDegrees>
            </Position>
            <AltitudeMeters>129.600006103515625</AltitudeMeters>
            <DistanceMeters>NAN</DistanceMeters>
          </Trackpoint>
          <Trackpoint>
            <Time>2022-07-11T15:14:29.000Z</Time>
            <Position>
              <LatitudeDegrees>43.2964819483458995819091796875</LatitudeDegrees>
              <LongitudeDegrees>-2.72518009878695011138916015625</LongitudeDegrees>
            </Position>
            <AltitudeMeters>130</AltitudeMeters>
            <DistanceMeters>NAN</DistanceMeters>
          </Trackpoint>
          <Trackpoint>
            <Time>2022-07-11T15:14:37.000Z</Time>
            <Position>
              <LatitudeDegrees>43.29644649289548397064208984375</LatitudeDegrees>
              <LongitudeDegrees>-2.725374810397624969482421875</LongitudeDegrees>
            </Position>
            <AltitudeMeters>130.600006103515625</AltitudeMeters>
            <DistanceMeters>NAN</DistanceMeters>
          </Trackpoint>
          <Trackpoint>
            <Time>2022-07-11T15:14:38.000Z</Time>
            <Position>
              <LatitudeDegrees>43.29644330777227878570556640625</LatitudeDegrees>
              <LongitudeDegrees>-2.72539836354553699493408203125</LongitudeDegrees>
            </Position>
            <AltitudeMeters>130.600006103515625</AltitudeMeters>
            <DistanceMeters>NAN</DistanceMeters>
          </Trackpoint>
          <Trackpoint>
            <Time>2022-07-11T15:14:46.000Z</Time>
            <Position>
              <LatitudeDegrees>43.29644515179097652435302734375</LatitudeDegrees>
              <LongitudeDegrees>-2.7255838550627231597900390625</LongitudeDegrees>
            </Position>
            <AltitudeMeters>131</AltitudeMeters>
            <DistanceMeters>NAN</DistanceMeters>
          </Trackpoint>
          <Trackpoint>
            <Time>2022-07-11T15:14:52.000Z</Time>
            <Position>
              <LatitudeDegrees>43.2964393682777881622314453125</LatitudeDegrees>
              <LongitudeDegrees>-2.72572710178792476654052734375</LongitudeDegrees>
            </Position>
            <AltitudeMeters>131.600006103515625</AltitudeMeters>
            <DistanceMeters>NAN</DistanceMeters>
          </Trackpoint>
          <Trackpoint>
            <Time>2022-07-11T15:14:54.000Z</Time>
            <Position>
              <LatitudeDegrees>43.29643978737294673919677734375</LatitudeDegrees>
              <LongitudeDegrees>-2.72576968185603618621826171875</LongitudeDegrees>
            </Position>
            <AltitudeMeters>131.8000030517578125</AltitudeMeters>
            <DistanceMeters>NAN</DistanceMeters>
          </Trackpoint>
          <Trackpoint>
            <Time>2022-07-11T15:15:03.000Z</Time>
            <Position>
              <LatitudeDegrees>43.29643308185040950775146484375</LatitudeDegrees>
              <LongitudeDegrees>-2.725997082889080047607421875</LongitudeDegrees>
            </Position>
            <AltitudeMeters>132.1999969482421875</AltitudeMeters>
            <DistanceMeters>NAN</DistanceMeters>
          </Trackpoint>
          <Trackpoint>
            <Time>2022-07-11T15:15:10.000Z</Time>
            <Position>
              <LatitudeDegrees>43.2964293099939823150634765625</LatitudeDegrees>
              <LongitudeDegrees>-2.7261905372142791748046875</LongitudeDegrees>
            </Position>
            <AltitudeMeters>132.8000030517578125</AltitudeMeters>
            <DistanceMeters>NAN</DistanceMeters>
          </Trackpoint>
          <Trackpoint>
            <Time>2022-07-11T15:15:11.000Z</Time>
            <Position>
              <LatitudeDegrees>43.2964257895946502685546875</LatitudeDegrees>
              <LongitudeDegrees>-2.72621962241828441619873046875</LongitudeDegrees>
            </Position>
            <AltitudeMeters>133</AltitudeMeters>
            <DistanceMeters>NAN</DistanceMeters>
          </Trackpoint>
          <Trackpoint>
            <Time>2022-07-11T15:15:21.000Z</Time>
            <Position>
              <LatitudeDegrees>43.29646057449281215667724609375</LatitudeDegrees>
              <LongitudeDegrees>-2.7264668047428131103515625</LongitudeDegrees>
            </Position>
            <AltitudeMeters>133.600006103515625</AltitudeMeters>
            <DistanceMeters>NAN</DistanceMeters>
          </Trackpoint>
          <Trackpoint>
            <Time>2022-07-11T15:15:26.000Z</Time>
            <Position>
              <LatitudeDegrees>43.29648840241134166717529296875</LatitudeDegrees>
              <LongitudeDegrees>-2.72658524103462696075439453125</LongitudeDegrees>
            </Position>
            <AltitudeMeters>133.8000030517578125</AltitudeMeters>
            <DistanceMeters>NAN</DistanceMeters>
          </Trackpoint>
          <Trackpoint>
            <Time>2022-07-11T15:15:31.000Z</Time>
            <Position>
              <LatitudeDegrees>43.29651690088212490081787109375</LatitudeDegrees>
              <LongitudeDegrees>-2.7267063595354557037353515625</LongitudeDegrees>
            </Position>
            <AltitudeMeters>134.1999969482421875</AltitudeMeters>
            <DistanceMeters>NAN</DistanceMeters>
          </Trackpoint>
          <Trackpoint>
            <Time>2022-07-11T15:15:40.000Z</Time>
            <Position>
              <LatitudeDegrees>43.296569623053073883056640625</LatitudeDegrees>
              <LongitudeDegrees>-2.726891934871673583984375</LongitudeDegrees>
            </Position>
            <AltitudeMeters>134.600006103515625</AltitudeMeters>
            <DistanceMeters>NAN</DistanceMeters>
          </Trackpoint>
          <Trackpoint>
            <Time>2022-07-11T15:15:48.000Z</Time>
            <Position>
              <LatitudeDegrees>43.29662670381367206573486328125</LatitudeDegrees>
              <LongitudeDegrees>-2.72708865813910961151123046875</LongitudeDegrees>
            </Position>
            <AltitudeMeters>134.8000030517578125</AltitudeMeters>
            <DistanceMeters>NAN</DistanceMeters>
          </Trackpoint>
          <Trackpoint>
            <Time>2022-07-11T15:15:50.000Z</Time>
            <Position>
              <LatitudeDegrees>43.2966425456106662750244140625</LatitudeDegrees>
              <LongitudeDegrees>-2.72713257931172847747802734375</LongitudeDegrees>
            </Position>
            <AltitudeMeters>135</AltitudeMeters>
            <DistanceMeters>NAN</DistanceMeters>
          </Trackpoint>
          <Trackpoint>
            <Time>2022-07-11T15:15:56.000Z</Time>
            <Position>
              <LatitudeDegrees>43.29669090919196605682373046875</LatitudeDegrees>
              <LongitudeDegrees>-2.727261744439601898193359375</LongitudeDegrees>
            </Position>
            <AltitudeMeters>135.1999969482421875</AltitudeMeters>
            <DistanceMeters>NAN</DistanceMeters>
          </Trackpoint>
          <Trackpoint>
            <Time>2022-07-11T15:16:07.000Z</Time>
            <Position>
              <LatitudeDegrees>43.2967867143452167510986328125</LatitudeDegrees>
              <LongitudeDegrees>-2.72749031893908977508544921875</LongitudeDegrees>
            </Position>
            <AltitudeMeters>135.8000030517578125</AltitudeMeters>
            <DistanceMeters>NAN</DistanceMeters>
          </Trackpoint>
          <Trackpoint>
            <Time>2022-07-11T15:16:09.000Z</Time>
            <Position>
              <LatitudeDegrees>43.29680523835122585296630859375</LatitudeDegrees>
              <LongitudeDegrees>-2.7275277860462665557861328125</LongitudeDegrees>
            </Position>
            <AltitudeMeters>136</AltitudeMeters>
            <DistanceMeters>NAN</DistanceMeters>
          </Trackpoint>
          <Trackpoint>
            <Time>2022-07-11T15:16:18.000Z</Time>
            <Position>
              <LatitudeDegrees>43.29688536934554576873779296875</LatitudeDegrees>
              <LongitudeDegrees>-2.72770791314542293548583984375</LongitudeDegrees>
            </Position>
            <AltitudeMeters>136.1999969482421875</AltitudeMeters>
            <DistanceMeters>NAN</DistanceMeters>
          </Trackpoint>
          <Trackpoint>
            <Time>2022-07-11T15:16:27.000Z</Time>
            <Position>
              <LatitudeDegrees>43.29696969129145145416259765625</LatitudeDegrees>
              <LongitudeDegrees>-2.72789734415709972381591796875</LongitudeDegrees>
            </Position>
            <AltitudeMeters>136.399993896484375</AltitudeMeters>
            <DistanceMeters>NAN</DistanceMeters>
          </Trackpoint>
          <Trackpoint>
            <Time>2022-07-11T15:16:34.000Z</Time>
            <Position>
              <LatitudeDegrees>43.29704194329679012298583984375</LatitudeDegrees>
              <LongitudeDegrees>-2.72802642546594142913818359375</LongitudeDegrees>
            </Position>
            <AltitudeMeters>137</AltitudeMeters>
            <DistanceMeters>NAN</DistanceMeters>
          </Trackpoint>
          <Trackpoint>
            <Time>2022-07-11T15:16:36.000Z</Time>
            <Position>
              <LatitudeDegrees>43.29706591553986072540283203125</LatitudeDegrees>
              <LongitudeDegrees>-2.72806230001151561737060546875</LongitudeDegrees>
            </Position>
            <AltitudeMeters>137.1999969482421875</AltitudeMeters>
            <DistanceMeters>NAN</DistanceMeters>
          </Trackpoint>
          <Trackpoint>
            <Time>2022-07-11T15:16:44.000Z</Time>
            <Position>
              <LatitudeDegrees>43.2971669174730777740478515625</LatitudeDegrees>
              <LongitudeDegrees>-2.7281939797103404998779296875</LongitudeDegrees>
            </Position>
            <AltitudeMeters>137.399993896484375</AltitudeMeters>
            <DistanceMeters>NAN</DistanceMeters>
          </Trackpoint>
          <Trackpoint>
            <Time>2022-07-11T15:16:54.000Z</Time>
            <Position>
              <LatitudeDegrees>43.2973060570657253265380859375</LatitudeDegrees>
              <LongitudeDegrees>-2.7283314429223537445068359375</LongitudeDegrees>
            </Position>
            <AltitudeMeters>137.8000030517578125</AltitudeMeters>
            <DistanceMeters>NAN</DistanceMeters>
          </Trackpoint>
          <Trackpoint>
            <Time>2022-07-11T15:16:57.000Z</Time>
            <Position>
              <LatitudeDegrees>43.29735794104635715484619140625</LatitudeDegrees>
              <LongitudeDegrees>-2.7283726818859577178955078125</LongitudeDegrees>
            </Position>
            <AltitudeMeters>138</AltitudeMeters>
            <DistanceMeters>NAN</DistanceMeters>
          </Trackpoint>
          <Trackpoint>
            <Time>2022-07-11T15:17:04.000Z</Time>
            <Position>
              <LatitudeDegrees>43.297452069818973541259765625</LatitudeDegrees>
              <LongitudeDegrees>-2.72847116924822330474853515625</LongitudeDegrees>
            </Position>
            <AltitudeMeters>138.399993896484375</AltitudeMeters>
            <DistanceMeters>NAN</DistanceMeters>
          </Trackpoint>
          <Trackpoint>
            <Time>2022-07-11T15:17:10.000Z</Time>
            <Position>
              <LatitudeDegrees>43.2975243218243122100830078125</LatitudeDegrees>
              <LongitudeDegrees>-2.72857158444821834564208984375</LongitudeDegrees>
            </Position>
            <AltitudeMeters>139</AltitudeMeters>
            <DistanceMeters>NAN</DistanceMeters>
          </Trackpoint>
          <Trackpoint>
            <Time>2022-07-11T15:17:13.000Z</Time>
            <Position>
              <LatitudeDegrees>43.29756514169275760650634765625</LatitudeDegrees>
              <LongitudeDegrees>-2.72862455807626247406005859375</LongitudeDegrees>
            </Position>
            <AltitudeMeters>139.1999969482421875</AltitudeMeters>
            <DistanceMeters>NAN</DistanceMeters>
          </Trackpoint>
          <Trackpoint>
            <Time>2022-07-11T15:17:18.000Z</Time>
            <Position>
              <LatitudeDegrees>43.297625742852687835693359375</LatitudeDegrees>
              <LongitudeDegrees>-2.72871273569762706756591796875</LongitudeDegrees>
            </Position>
            <AltitudeMeters>139.600006103515625</AltitudeMeters>
            <DistanceMeters>NAN</DistanceMeters>
          </Trackpoint>
          <Trackpoint>
            <Time>2022-07-11T15:17:28.000Z</Time>
            <Position>
              <LatitudeDegrees>43.29774049110710620880126953125</LatitudeDegrees>
              <LongitudeDegrees>-2.72889546118676662445068359375</LongitudeDegrees>
            </Position>
            <AltitudeMeters>140.1999969482421875</AltitudeMeters>
            <DistanceMeters>NAN</DistanceMeters>
          </Trackpoint>
          <Trackpoint>
            <Time>2022-07-11T15:17:31.000Z</Time>
            <Position>
              <LatitudeDegrees>43.297774605453014373779296875</LatitudeDegrees>
              <LongitudeDegrees>-2.7289443276822566986083984375</LongitudeDegrees>
            </Position>
            <AltitudeMeters>140.399993896484375</AltitudeMeters>
            <DistanceMeters>NAN</DistanceMeters>
          </Trackpoint>
          <Trackpoint>
            <Time>2022-07-11T15:17:40.000Z</Time>
            <Position>
              <LatitudeDegrees>43.2978773675858974456787109375</LatitudeDegrees>
              <LongitudeDegrees>-2.72909830324351787567138671875</LongitudeDegrees>
            </Position>
            <AltitudeMeters>141</AltitudeMeters>
            <DistanceMeters>NAN</DistanceMeters>
          </Trackpoint>
          <Trackpoint>
            <Time>2022-07-11T15:17:42.000Z</Time>
            <Position>
              <LatitudeDegrees>43.297899328172206878662109375</LatitudeDegrees>
              <LongitudeDegrees>-2.72913627326488494873046875</LongitudeDegrees>
            </Position>
            <AltitudeMeters>141.1999969482421875</AltitudeMeters>
            <DistanceMeters>NAN</DistanceMeters>
          </Trackpoint>
          <Trackpoint>
            <Time>2022-07-11T15:17:47.000Z</Time>
            <Position>
              <LatitudeDegrees>43.29795666038990020751953125</LatitudeDegrees>
              <LongitudeDegrees>-2.72923124022781848907470703125</LongitudeDegrees>
            </Position>
            <AltitudeMeters>141.8000030517578125</AltitudeMeters>
            <DistanceMeters>NAN</DistanceMeters>
          </Trackpoint>
          <Trackpoint>
            <Time>2022-07-11T15:17:58.000Z</Time>
            <Position>
              <LatitudeDegrees>43.298097141087055206298828125</LatitudeDegrees>
              <LongitudeDegrees>-2.729412876069545745849609375</LongitudeDegrees>
            </Position>
            <AltitudeMeters>142.1999969482421875</AltitudeMeters>
            <DistanceMeters>NAN</DistanceMeters>
          </Trackpoint>
          <Trackpoint>
            <Time>2022-07-11T15:18:06.000Z</Time>
            <Position>
              <LatitudeDegrees>43.298177607357501983642578125</LatitudeDegrees>
              <LongitudeDegrees>-2.72955000400543212890625</LongitudeDegrees>
            </Position>
            <AltitudeMeters>142.8000030517578125</AltitudeMeters>
            <DistanceMeters>NAN</DistanceMeters>
          </Trackpoint>
          <Trackpoint>
            <Time>2022-07-11T15:18:11.000Z</Time>
            <Position>
              <LatitudeDegrees>43.29823292791843414306640625</LatitudeDegrees>
              <LongitudeDegrees>-2.72964547388255596160888671875</LongitudeDegrees>
            </Position>
            <AltitudeMeters>143.399993896484375</AltitudeMeters>
            <DistanceMeters>NAN</DistanceMeters>
          </Trackpoint>
          <Trackpoint>
            <Time>2022-07-11T15:18:13.000Z</Time>
            <Position>
              <LatitudeDegrees>43.29825279302895069122314453125</LatitudeDegrees>
              <LongitudeDegrees>-2.72968503646552562713623046875</LongitudeDegrees>
            </Position>
            <AltitudeMeters>143.399993896484375</AltitudeMeters>
            <DistanceMeters>NAN</DistanceMeters>
          </Trackpoint>
          <Trackpoint>
            <Time>2022-07-11T15:18:23.000Z</Time>
            <Position>
              <LatitudeDegrees>43.29836024902760982513427734375</LatitudeDegrees>
              <LongitudeDegrees>-2.72988259792327880859375</LongitudeDegrees>
            </Position>
            <AltitudeMeters>144</AltitudeMeters>
            <DistanceMeters>NAN</DistanceMeters>
          </Trackpoint>
          <Trackpoint>
            <Time>2022-07-11T15:18:28.000Z</Time>
            <Position>
              <LatitudeDegrees>43.29841758124530315399169921875</LatitudeDegrees>
              <LongitudeDegrees>-2.729976139962673187255859375</LongitudeDegrees>
            </Position>
            <AltitudeMeters>144.399993896484375</AltitudeMeters>
            <DistanceMeters>NAN</DistanceMeters>
          </Trackpoint>
          <Trackpoint>
            <Time>2022-07-11T15:18:32.000Z</Time>
            <Position>
              <LatitudeDegrees>43.298461921513080596923828125</LatitudeDegrees>
              <LongitudeDegrees>-2.73004746995866298675537109375</LongitudeDegrees>
            </Position>
            <AltitudeMeters>144.8000030517578125</AltitudeMeters>
            <DistanceMeters>NAN</DistanceMeters>
          </Trackpoint>
          <Trackpoint>
            <Time>2022-07-11T15:18:41.000Z</Time>
            <Position>
              <LatitudeDegrees>43.29856552183628082275390625</LatitudeDegrees>
              <LongitudeDegrees>-2.73020840249955654144287109375</LongitudeDegrees>
            </Position>
            <AltitudeMeters>145.399993896484375</AltitudeMeters>
            <DistanceMeters>NAN</DistanceMeters>
          </Trackpoint>
          <Trackpoint>
            <Time>2022-07-11T15:18:43.000Z</Time>
            <Position>
              <LatitudeDegrees>43.29859234392642974853515625</LatitudeDegrees>
              <LongitudeDegrees>-2.73024209775030612945556640625</LongitudeDegrees>
            </Position>
            <AltitudeMeters>145.600006103515625</AltitudeMeters>
            <DistanceMeters>NAN</DistanceMeters>
          </Trackpoint>
          <Trackpoint>
            <Time>2022-07-11T15:18:51.000Z</Time>
            <Position>
              <LatitudeDegrees>43.2986976206302642822265625</LatitudeDegrees>
              <LongitudeDegrees>-2.73037679493427276611328125</LongitudeDegrees>
            </Position>
            <AltitudeMeters>146.1999969482421875</AltitudeMeters>
            <DistanceMeters>NAN</DistanceMeters>
          </Trackpoint>
          <Trackpoint>
            <Time>2022-07-11T15:18:58.000Z</Time>
            <Position>
              <LatitudeDegrees>43.2987846247851848602294921875</LatitudeDegrees>
              <LongitudeDegrees>-2.730510234832763671875</LongitudeDegrees>
            </Position>
            <AltitudeMeters>146.399993896484375</AltitudeMeters>
            <DistanceMeters>NAN</DistanceMeters>
          </Trackpoint>
          <Trackpoint>
            <Time>2022-07-11T15:19:01.000Z</Time>
            <Position>
              <LatitudeDegrees>43.2988181523978710174560546875</LatitudeDegrees>
              <LongitudeDegrees>-2.7305670641362667083740234375</LongitudeDegrees>
            </Position>
            <AltitudeMeters>146.8000030517578125</AltitudeMeters>
            <DistanceMeters>NAN</DistanceMeters>
          </Trackpoint>
          <Trackpoint>
            <Time>2022-07-11T15:19:10.000Z</Time>
            <Position>
              <LatitudeDegrees>43.2989361695945262908935546875</LatitudeDegrees>
              <LongitudeDegrees>-2.73074450902640819549560546875</LongitudeDegrees>
            </Position>
            <AltitudeMeters>147.600006103515625</AltitudeMeters>
            <DistanceMeters>NAN</DistanceMeters>
          </Trackpoint>
          <Trackpoint>
            <Time>2022-07-11T15:19:14.000Z</Time>
            <Position>
              <LatitudeDegrees>43.2989690266549587249755859375</LatitudeDegrees>
              <LongitudeDegrees>-2.73082715459167957305908203125</LongitudeDegrees>
            </Position>
            <AltitudeMeters>147.8000030517578125</AltitudeMeters>
            <DistanceMeters>NAN</DistanceMeters>
          </Trackpoint>
          <Trackpoint>
            <Time>2022-07-11T15:19:18.000Z</Time>
            <Position>
              <LatitudeDegrees>43.29899425618350505828857421875</LatitudeDegrees>
              <LongitudeDegrees>-2.7309154160320758819580078125</LongitudeDegrees>
            </Position>
            <AltitudeMeters>148</AltitudeMeters>
            <DistanceMeters>NAN</DistanceMeters>
          </Trackpoint>
          <Trackpoint>
            <Time>2022-07-11T15:19:24.000Z</Time>
            <Position>
              <LatitudeDegrees>43.299010433256626129150390625</LatitudeDegrees>
              <LongitudeDegrees>-2.7310558967292308807373046875</LongitudeDegrees>
            </Position>
            <AltitudeMeters>148</AltitudeMeters>
            <DistanceMeters>NAN</DistanceMeters>
          </Trackpoint>
          <Trackpoint>
            <Time>2022-07-11T15:19:26.000Z</Time>
            <Position>
              <LatitudeDegrees>43.29901345074176788330078125</LatitudeDegrees>
              <LongitudeDegrees>-2.73111046291887760162353515625</LongitudeDegrees>
            </Position>
            <AltitudeMeters>148.1999969482421875</AltitudeMeters>
            <DistanceMeters>NAN</DistanceMeters>
          </Trackpoint>
          <Trackpoint>
            <Time>2022-07-11T15:19:35.000Z</Time>
            <Position>
              <LatitudeDegrees>43.29901210963726043701171875</LatitudeDegrees>
              <LongitudeDegrees>-2.73132822476327419281005859375</LongitudeDegrees>
            </Position>
            <AltitudeMeters>148.600006103515625</AltitudeMeters>
            <DistanceMeters>NAN</DistanceMeters>
          </Trackpoint>
          <Trackpoint>
            <Time>2022-07-11T15:19:43.000Z</Time>
            <Position>
              <LatitudeDegrees>43.29905108548700809478759765625</LatitudeDegrees>
              <LongitudeDegrees>-2.73150290362536907196044921875</LongitudeDegrees>
            </Position>
            <AltitudeMeters>149.1999969482421875</AltitudeMeters>
            <DistanceMeters>NAN</DistanceMeters>
          </Trackpoint>
          <Trackpoint>
            <Time>2022-07-11T15:19:52.000Z</Time>
            <Position>
              <LatitudeDegrees>43.2991108484566211700439453125</LatitudeDegrees>
              <LongitudeDegrees>-2.731703817844390869140625</LongitudeDegrees>
            </Position>
            <AltitudeMeters>149.399993896484375</AltitudeMeters>
            <DistanceMeters>NAN</DistanceMeters>
          </Trackpoint>
          <Trackpoint>
            <Time>2022-07-11T15:19:56.000Z</Time>
            <Position>
              <LatitudeDegrees>43.299144543707370758056640625</LatitudeDegrees>
              <LongitudeDegrees>-2.7317847870290279388427734375</LongitudeDegrees>
            </Position>
            <AltitudeMeters>149.600006103515625</AltitudeMeters>
            <DistanceMeters>NAN</DistanceMeters>
          </Trackpoint>
          <Trackpoint>
            <Time>2022-07-11T15:20:02.000Z</Time>
            <Position>
              <LatitudeDegrees>43.29920698888599872589111328125</LatitudeDegrees>
              <LongitudeDegrees>-2.73189970292150974273681640625</LongitudeDegrees>
            </Position>
            <AltitudeMeters>150</AltitudeMeters>
            <DistanceMeters>NAN</DistanceMeters>
          </Trackpoint>
          <Trackpoint>
            <Time>2022-07-11T15:20:11.000Z</Time>
            <Position>
              <LatitudeDegrees>43.2992882095277309417724609375</LatitudeDegrees>
              <LongitudeDegrees>-2.7320798300206661224365234375</LongitudeDegrees>
            </Position>
            <AltitudeMeters>150.399993896484375</AltitudeMeters>
            <DistanceMeters>NAN</DistanceMeters>
          </Trackpoint>
          <Trackpoint>
            <Time>2022-07-11T15:20:15.000Z</Time>
            <Position>
              <LatitudeDegrees>43.29933187924325466156005859375</LatitudeDegrees>
              <LongitudeDegrees>-2.73215451277792453765869140625</LongitudeDegrees>
            </Position>
            <AltitudeMeters>150.600006103515625</AltitudeMeters>
            <DistanceMeters>NAN</DistanceMeters>
          </Trackpoint>
          <Trackpoint>
            <Time>2022-07-11T15:20:19.000Z</Time>
            <Position>
              <LatitudeDegrees>43.29937831498682498931884765625</LatitudeDegrees>
              <LongitudeDegrees>-2.732234559953212738037109375</LongitudeDegrees>
            </Position>
            <AltitudeMeters>150.8000030517578125</AltitudeMeters>
            <DistanceMeters>NAN</DistanceMeters>
          </Trackpoint>
          <Trackpoint>
            <Time>2022-07-11T15:20:28.000Z</Time>
            <Position>
              <LatitudeDegrees>43.2994789816439151763916015625</LatitudeDegrees>
              <LongitudeDegrees>-2.73239842616021633148193359375</LongitudeDegrees>
            </Position>
            <AltitudeMeters>151.1999969482421875</AltitudeMeters>
            <DistanceMeters>NAN</DistanceMeters>
          </Trackpoint>
          <Trackpoint>
            <Time>2022-07-11T15:20:35.000Z</Time>
            <Position>
              <LatitudeDegrees>43.29957411624491214752197265625</LatitudeDegrees>
              <LongitudeDegrees>-2.7325165271759033203125</LongitudeDegrees>
            </Position>
            <AltitudeMeters>151.8000030517578125</AltitudeMeters>
            <DistanceMeters>NAN</DistanceMeters>
          </Trackpoint>
          <Trackpoint>
            <Time>2022-07-11T15:20:38.000Z</Time>
            <Position>
              <LatitudeDegrees>43.29962021671235561370849609375</LatitudeDegrees>
              <LongitudeDegrees>-2.73256153799593448638916015625</LongitudeDegrees>
            </Position>
            <AltitudeMeters>152</AltitudeMeters>
            <DistanceMeters>NAN</DistanceMeters>
          </Trackpoint>
          <Trackpoint>
            <Time>2022-07-11T15:20:48.000Z</Time>
            <Position>
              <LatitudeDegrees>43.29979238100349903106689453125</LatitudeDegrees>
              <LongitudeDegrees>-2.73267318494617938995361328125</LongitudeDegrees>
            </Position>
            <AltitudeMeters>152.600006103515625</AltitudeMeters>
            <DistanceMeters>NAN</DistanceMeters>
          </Trackpoint>
          <Trackpoint>
            <Time>2022-07-11T15:20:51.000Z</Time>
            <Position>
              <LatitudeDegrees>43.29985323362052440643310546875</LatitudeDegrees>
              <LongitudeDegrees>-2.73268659599125385284423828125</LongitudeDegrees>
            </Position>
            <AltitudeMeters>152.8000030517578125</AltitudeMeters>
            <DistanceMeters>NAN</DistanceMeters>
          </Trackpoint>
          <Trackpoint>
            <Time>2022-07-11T15:20:55.000Z</Time>
            <Position>
              <LatitudeDegrees>43.2999309338629245758056640625</LatitudeDegrees>
              <LongitudeDegrees>-2.73270319215953350067138671875</LongitudeDegrees>
            </Position>
            <AltitudeMeters>153</AltitudeMeters>
            <DistanceMeters>NAN</DistanceMeters>
          </Trackpoint>
          <Trackpoint>
            <Time>2022-07-11T15:21:04.000Z</Time>
            <Position>
              <LatitudeDegrees>43.3000814728438854217529296875</LatitudeDegrees>
              <LongitudeDegrees>-2.73277644999325275421142578125</LongitudeDegrees>
            </Position>
            <AltitudeMeters>153.399993896484375</AltitudeMeters>
            <DistanceMeters>NAN</DistanceMeters>
          </Trackpoint>
          <Trackpoint>
            <Time>2022-07-11T15:21:07.000Z</Time>
            <Position>
              <LatitudeDegrees>43.30012388527393341064453125</LatitudeDegrees>
              <LongitudeDegrees>-2.7328137494623661041259765625</LongitudeDegrees>
            </Position>
            <AltitudeMeters>153.8000030517578125</AltitudeMeters>
            <DistanceMeters>NAN</DistanceMeters>
          </Trackpoint>
          <Trackpoint>
            <Time>2022-07-11T15:21:08.000Z</Time>
            <Position>
              <LatitudeDegrees>43.300136625766754150390625</LatitudeDegrees>
              <LongitudeDegrees>-2.7328290045261383056640625</LongitudeDegrees>
            </Position>
            <AltitudeMeters>154</AltitudeMeters>
            <DistanceMeters>NAN</DistanceMeters>
          </Trackpoint>
          <Trackpoint>
            <Time>2022-07-11T15:21:12.000Z</Time>
            <Position>
              <LatitudeDegrees>43.30018549226224422454833984375</LatitudeDegrees>
              <LongitudeDegrees>-2.7329089678823947906494140625</LongitudeDegrees>
            </Position>
            <AltitudeMeters>154.1999969482421875</AltitudeMeters>
            <DistanceMeters>NAN</DistanceMeters>
          </Trackpoint>
          <Trackpoint>
            <Time>2022-07-11T15:21:20.000Z</Time>
            <Position>
              <LatitudeDegrees>43.3002118952572345733642578125</LatitudeDegrees>
              <LongitudeDegrees>-2.733081467449665069580078125</LongitudeDegrees>
            </Position>
            <AltitudeMeters>154.8000030517578125</AltitudeMeters>
            <DistanceMeters>NAN</DistanceMeters>
          </Trackpoint>
          <Trackpoint>
            <Time>2022-07-11T15:21:21.000Z</Time>
            <Position>
              <LatitudeDegrees>43.30021097324788570404052734375</LatitudeDegrees>
              <LongitudeDegrees>-2.73310351185500621795654296875</LongitudeDegrees>
            </Position>
            <AltitudeMeters>155</AltitudeMeters>
            <DistanceMeters>NAN</DistanceMeters>
          </Trackpoint>
          <Trackpoint>
            <Time>2022-07-11T15:21:29.000Z</Time>
            <Position>
              <LatitudeDegrees>43.30017878673970699310302734375</LatitudeDegrees>
              <LongitudeDegrees>-2.73325740359723567962646484375</LongitudeDegrees>
            </Position>
            <AltitudeMeters>155.600006103515625</AltitudeMeters>
            <DistanceMeters>NAN</DistanceMeters>
          </Trackpoint>
          <Trackpoint>
            <Time>2022-07-11T15:21:33.000Z</Time>
            <Position>
              <LatitudeDegrees>43.30015682615339756011962890625</LatitudeDegrees>
              <LongitudeDegrees>-2.733343653380870819091796875</LongitudeDegrees>
            </Position>
            <AltitudeMeters>156</AltitudeMeters>
            <DistanceMeters>NAN</DistanceMeters>
          </Trackpoint>
          <Trackpoint>
            <Time>2022-07-11T15:21:39.000Z</Time>
            <Position>
              <LatitudeDegrees>43.30009697936475276947021484375</LatitudeDegrees>
              <LongitudeDegrees>-2.7334490977227687835693359375</LongitudeDegrees>
            </Position>
            <AltitudeMeters>156.1999969482421875</AltitudeMeters>
            <DistanceMeters>NAN</DistanceMeters>
          </Trackpoint>
          <Trackpoint>
            <Time>2022-07-11T15:21:47.000Z</Time>
            <Position>
              <LatitudeDegrees>43.30001668073236942291259765625</LatitudeDegrees>
              <LongitudeDegrees>-2.73361447267234325408935546875</LongitudeDegrees>
            </Position>
            <AltitudeMeters>156.8000030517578125</AltitudeMeters>
            <DistanceMeters>NAN</DistanceMeters>
          </Trackpoint>
          <Trackpoint>
            <Time>2022-07-11T15:21:48.000Z</Time>
            <Position>
              <LatitudeDegrees>43.30000444315373897552490234375</LatitudeDegrees>
              <LongitudeDegrees>-2.73363676853477954864501953125</LongitudeDegrees>
            </Position>
            <AltitudeMeters>157</AltitudeMeters>
            <DistanceMeters>NAN</DistanceMeters>
          </Trackpoint>
          <Trackpoint>
            <Time>2022-07-11T15:21:57.000Z</Time>
            <Position>
              <LatitudeDegrees>43.29995951615273952484130859375</LatitudeDegrees>
              <LongitudeDegrees>-2.73384279571473598480224609375</LongitudeDegrees>
            </Position>
            <AltitudeMeters>157.600006103515625</AltitudeMeters>
            <DistanceMeters>NAN</DistanceMeters>
          </Trackpoint>
          <Trackpoint>
            <Time>2022-07-11T15:22:01.000Z</Time>
            <Position>
              <LatitudeDegrees>43.29996521584689617156982421875</LatitudeDegrees>
              <LongitudeDegrees>-2.73396014235913753509521484375</LongitudeDegrees>
            </Position>
            <AltitudeMeters>158</AltitudeMeters>
            <DistanceMeters>NAN</DistanceMeters>
          </Trackpoint>
          <Trackpoint>
            <Time>2022-07-11T15:22:05.000Z</Time>
            <Position>
              <LatitudeDegrees>43.299974687397480010986328125</LatitudeDegrees>
              <LongitudeDegrees>-2.7340639941394329071044921875</LongitudeDegrees>
            </Position>
            <AltitudeMeters>158.1999969482421875</AltitudeMeters>
            <DistanceMeters>NAN</DistanceMeters>
          </Trackpoint>
          <Trackpoint>
            <Time>2022-07-11T15:22:12.000Z</Time>
            <Position>
              <LatitudeDegrees>43.29999254085123538970947265625</LatitudeDegrees>
              <LongitudeDegrees>-2.73422467522323131561279296875</LongitudeDegrees>
            </Position>
            <AltitudeMeters>159</AltitudeMeters>
            <DistanceMeters>NAN</DistanceMeters>
          </Trackpoint>
          <Trackpoint>
            <Time>2022-07-11T15:22:14.000Z</Time>
            <Position>
              <LatitudeDegrees>43.30000008456408977508544921875</LatitudeDegrees>
              <LongitudeDegrees>-2.734286785125732421875</LongitudeDegrees>
            </Position>
            <AltitudeMeters>159</AltitudeMeters>
            <DistanceMeters>NAN</DistanceMeters>
          </Trackpoint>
          <Trackpoint>
            <Time>2022-07-11T15:22:20.000Z</Time>
            <Position>
              <LatitudeDegrees>43.30007082782685756683349609375</LatitudeDegrees>
              <LongitudeDegrees>-2.73447395302355289459228515625</LongitudeDegrees>
            </Position>
            <AltitudeMeters>159.8000030517578125</AltitudeMeters>
            <DistanceMeters>NAN</DistanceMeters>
          </Trackpoint>
          <Trackpoint>
            <Time>2022-07-11T15:22:22.000Z</Time>
            <Position>
              <LatitudeDegrees>43.30008960328996181488037109375</LatitudeDegrees>
              <LongitudeDegrees>-2.7345437742769718170166015625</LongitudeDegrees>
            </Position>
            <AltitudeMeters>160</AltitudeMeters>
            <DistanceMeters>NAN</DistanceMeters>
          </Trackpoint>
          <Trackpoint>
            <Time>2022-07-11T15:22:29.000Z</Time>
            <Position>
              <LatitudeDegrees>43.30015917308628559112548828125</LatitudeDegrees>
              <LongitudeDegrees>-2.73478944785892963409423828125</LongitudeDegrees>
            </Position>
            <AltitudeMeters>160.8000030517578125</AltitudeMeters>
            <DistanceMeters>NAN</DistanceMeters>
          </Trackpoint>
          <Trackpoint>
            <Time>2022-07-11T15:22:32.000Z</Time>
            <Position>
              <LatitudeDegrees>43.30019739456474781036376953125</LatitudeDegrees>
              <LongitudeDegrees>-2.73488156497478485107421875</LongitudeDegrees>
            </Position>
            <AltitudeMeters>161</AltitudeMeters>
            <DistanceMeters>NAN</DistanceMeters>
          </Trackpoint>
          <Trackpoint>
            <Time>2022-07-11T15:22:38.000Z</Time>
            <Position>
              <LatitudeDegrees>43.30027501098811626434326171875</LatitudeDegrees>
              <LongitudeDegrees>-2.73506152443587779998779296875</LongitudeDegrees>
            </Position>
            <AltitudeMeters>161.399993896484375</AltitudeMeters>
            <DistanceMeters>NAN</DistanceMeters>
          </Trackpoint>
          <Trackpoint>
            <Time>2022-07-11T15:22:45.000Z</Time>
            <Position>
              <LatitudeDegrees>43.3003688044846057891845703125</LatitudeDegrees>
              <LongitudeDegrees>-2.73525170981884002685546875</LongitudeDegrees>
            </Position>
            <AltitudeMeters>162</AltitudeMeters>
            <DistanceMeters>NAN</DistanceMeters>
          </Trackpoint>
          <Trackpoint>
            <Time>2022-07-11T15:22:55.000Z</Time>
            <Position>
              <LatitudeDegrees>43.30050610005855560302734375</LatitudeDegrees>
              <LongitudeDegrees>-2.73548506200313568115234375</LongitudeDegrees>
            </Position>
            <AltitudeMeters>163.1999969482421875</AltitudeMeters>
            <DistanceMeters>NAN</DistanceMeters>
          </Trackpoint>
          <Trackpoint>
            <Time>2022-07-11T15:23:03.000Z</Time>
            <Position>
              <LatitudeDegrees>43.3006011508405208587646484375</LatitudeDegrees>
              <LongitudeDegrees>-2.7356293983757495880126953125</LongitudeDegrees>
            </Position>
            <AltitudeMeters>163.8000030517578125</AltitudeMeters>
            <DistanceMeters>NAN</DistanceMeters>
          </Trackpoint>
          <Trackpoint>
            <Time>2022-07-11T15:23:08.000Z</Time>
            <Position>
              <LatitudeDegrees>43.300676085054874420166015625</LatitudeDegrees>
              <LongitudeDegrees>-2.73570994846522808074951171875</LongitudeDegrees>
            </Position>
            <AltitudeMeters>164.1999969482421875</AltitudeMeters>
            <DistanceMeters>NAN</DistanceMeters>
          </Trackpoint>
          <Trackpoint>
            <Time>2022-07-11T15:23:13.000Z</Time>
            <Position>
              <LatitudeDegrees>43.3007349260151386260986328125</LatitudeDegrees>
              <LongitudeDegrees>-2.735801227390766143798828125</LongitudeDegrees>
            </Position>
            <AltitudeMeters>164.8000030517578125</AltitudeMeters>
            <DistanceMeters>NAN</DistanceMeters>
          </Trackpoint>
          <Trackpoint>
            <Time>2022-07-11T15:23:17.000Z</Time>
            <Position>
              <LatitudeDegrees>43.300798125565052032470703125</LatitudeDegrees>
              <LongitudeDegrees>-2.7358607389032840728759765625</LongitudeDegrees>
            </Position>
            <AltitudeMeters>165.399993896484375</AltitudeMeters>
            <DistanceMeters>NAN</DistanceMeters>
          </Trackpoint>
          <Trackpoint>
            <Time>2022-07-11T15:23:21.000Z</Time>
            <Position>
              <LatitudeDegrees>43.3008613251149654388427734375</LatitudeDegrees>
              <LongitudeDegrees>-2.7359344996511936187744140625</LongitudeDegrees>
            </Position>
            <AltitudeMeters>165.600006103515625</AltitudeMeters>
            <DistanceMeters>NAN</DistanceMeters>
          </Trackpoint>
          <Trackpoint>
            <Time>2022-07-11T15:23:26.000Z</Time>
            <Position>
              <LatitudeDegrees>43.30094330012798309326171875</LatitudeDegrees>
              <LongitudeDegrees>-2.73601672612130641937255859375</LongitudeDegrees>
            </Position>
            <AltitudeMeters>166.399993896484375</AltitudeMeters>
            <DistanceMeters>NAN</DistanceMeters>
          </Trackpoint>
          <Trackpoint>
            <Time>2022-07-11T15:23:29.000Z</Time>
            <Position>
              <LatitudeDegrees>43.3009870536625385284423828125</LatitudeDegrees>
              <LongitudeDegrees>-2.7360639162361621856689453125</LongitudeDegrees>
            </Position>
            <AltitudeMeters>167</AltitudeMeters>
            <DistanceMeters>NAN</DistanceMeters>
          </Trackpoint>
          <Trackpoint>
            <Time>2022-07-11T15:23:33.000Z</Time>
            <Position>
              <LatitudeDegrees>43.30104145221412181854248046875</LatitudeDegrees>
              <LongitudeDegrees>-2.73613675497472286224365234375</LongitudeDegrees>
            </Position>
            <AltitudeMeters>167.399993896484375</AltitudeMeters>
            <DistanceMeters>NAN</DistanceMeters>
          </Trackpoint>
          <Trackpoint>
            <Time>2022-07-11T15:23:38.000Z</Time>
            <Position>
              <LatitudeDegrees>43.301113955676555633544921875</LatitudeDegrees>
              <LongitudeDegrees>-2.73623851127922534942626953125</LongitudeDegrees>
            </Position>
            <AltitudeMeters>168.399993896484375</AltitudeMeters>
            <DistanceMeters>NAN</DistanceMeters>
          </Trackpoint>
          <Trackpoint>
            <Time>2022-07-11T15:23:40.000Z</Time>
            <Position>
              <LatitudeDegrees>43.30114035867154598236083984375</LatitudeDegrees>
              <LongitudeDegrees>-2.73629031144082546234130859375</LongitudeDegrees>
            </Position>
            <AltitudeMeters>168.600006103515625</AltitudeMeters>
            <DistanceMeters>NAN</DistanceMeters>
          </Trackpoint>
          <Trackpoint>
            <Time>2022-07-11T15:23:46.000Z</Time>
            <Position>
              <LatitudeDegrees>43.30116718076169490814208984375</LatitudeDegrees>
              <LongitudeDegrees>-2.73644655011594295501708984375</LongitudeDegrees>
            </Position>
            <AltitudeMeters>169.399993896484375</AltitudeMeters>
            <DistanceMeters>NAN</DistanceMeters>
          </Trackpoint>
          <Trackpoint>
            <Time>2022-07-11T15:23:47.000Z</Time>
            <Position>
              <LatitudeDegrees>43.30117137171328067779541015625</LatitudeDegrees>
              <LongitudeDegrees>-2.73647655732929706573486328125</LongitudeDegrees>
            </Position>
            <AltitudeMeters>169.600006103515625</AltitudeMeters>
            <DistanceMeters>NAN</DistanceMeters>
          </Trackpoint>
          <Trackpoint>
            <Time>2022-07-11T15:23:53.000Z</Time>
            <Position>
              <LatitudeDegrees>43.30119802616536617279052734375</LatitudeDegrees>
              <LongitudeDegrees>-2.7366358973085880279541015625</LongitudeDegrees>
            </Position>
            <AltitudeMeters>170.399993896484375</AltitudeMeters>
            <DistanceMeters>NAN</DistanceMeters>
          </Trackpoint>
          <Trackpoint>
            <Time>2022-07-11T15:23:56.000Z</Time>
            <Position>
              <LatitudeDegrees>43.301208503544330596923828125</LatitudeDegrees>
              <LongitudeDegrees>-2.736717872321605682373046875</LongitudeDegrees>
            </Position>
            <AltitudeMeters>170.8000030517578125</AltitudeMeters>
            <DistanceMeters>NAN</DistanceMeters>
          </Trackpoint>
          <Trackpoint>
            <Time>2022-07-11T15:24:01.000Z</Time>
            <Position>
              <LatitudeDegrees>43.3012160472571849822998046875</LatitudeDegrees>
              <LongitudeDegrees>-2.736847959458827972412109375</LongitudeDegrees>
            </Position>
            <AltitudeMeters>171</AltitudeMeters>
            <DistanceMeters>NAN</DistanceMeters>
          </Trackpoint>
          <Trackpoint>
            <Time>2022-07-11T15:24:11.000Z</Time>
            <Position>
              <LatitudeDegrees>43.3011677674949169158935546875</LatitudeDegrees>
              <LongitudeDegrees>-2.73714291863143444061279296875</LongitudeDegrees>
            </Position>
            <AltitudeMeters>171.600006103515625</AltitudeMeters>
            <DistanceMeters>NAN</DistanceMeters>
          </Trackpoint>
          <Trackpoint>
            <Time>2022-07-11T15:24:12.000Z</Time>
            <Position>
              <LatitudeDegrees>43.3011630736291408538818359375</LatitudeDegrees>
              <LongitudeDegrees>-2.73717057891190052032470703125</LongitudeDegrees>
            </Position>
            <AltitudeMeters>171.8000030517578125</AltitudeMeters>
            <DistanceMeters>NAN</DistanceMeters>
          </Trackpoint>
          <Trackpoint>
            <Time>2022-07-11T15:24:16.000Z</Time>
            <Position>
              <LatitudeDegrees>43.30113013274967670440673828125</LatitudeDegrees>
              <LongitudeDegrees>-2.73729697801172733306884765625</LongitudeDegrees>
            </Position>
            <AltitudeMeters>172</AltitudeMeters>
            <DistanceMeters>NAN</DistanceMeters>
          </Trackpoint>
          <Trackpoint>
            <Time>2022-07-11T15:24:18.000Z</Time>
            <Position>
              <LatitudeDegrees>43.30110951326787471771240234375</LatitudeDegrees>
              <LongitudeDegrees>-2.73737576790153980255126953125</LongitudeDegrees>
            </Position>
            <AltitudeMeters>172</AltitudeMeters>
            <DistanceMeters>NAN</DistanceMeters>
          </Trackpoint>
          <Trackpoint>
            <Time>2022-07-11T15:24:24.000Z</Time>
            <Position>
              <LatitudeDegrees>43.301053941249847412109375</LatitudeDegrees>
              <LongitudeDegrees>-2.7376051805913448333740234375</LongitudeDegrees>
            </Position>
            <AltitudeMeters>171.600006103515625</AltitudeMeters>
            <DistanceMeters>NAN</DistanceMeters>
          </Trackpoint>
          <Trackpoint>
            <Time>2022-07-11T15:24:31.000Z</Time>
            <Position>
              <LatitudeDegrees>43.3010121993720531463623046875</LatitudeDegrees>
              <LongitudeDegrees>-2.7379367686808109283447265625</LongitudeDegrees>
            </Position>
            <AltitudeMeters>172</AltitudeMeters>
            <DistanceMeters>NAN</DistanceMeters>
          </Trackpoint>
          <Trackpoint>
            <Time>2022-07-11T15:24:38.000Z</Time>
            <Position>
              <LatitudeDegrees>43.301026783883571624755859375</LatitudeDegrees>
              <LongitudeDegrees>-2.7382846176624298095703125</LongitudeDegrees>
            </Position>
            <AltitudeMeters>171.8000030517578125</AltitudeMeters>
            <DistanceMeters>NAN</DistanceMeters>
          </Trackpoint>
          <Trackpoint>
            <Time>2022-07-11T15:24:45.000Z</Time>
            <Position>
              <LatitudeDegrees>43.30102720297873020172119140625</LatitudeDegrees>
              <LongitudeDegrees>-2.738641686737537384033203125</LongitudeDegrees>
            </Position>
            <AltitudeMeters>171.399993896484375</AltitudeMeters>
            <DistanceMeters>NAN</DistanceMeters>
          </Trackpoint>
          <Trackpoint>
            <Time>2022-07-11T15:24:47.000Z</Time>
            <Position>
              <LatitudeDegrees>43.30102443695068359375</LatitudeDegrees>
              <LongitudeDegrees>-2.738733552396297454833984375</LongitudeDegrees>
            </Position>
            <AltitudeMeters>171.399993896484375</AltitudeMeters>
            <DistanceMeters>NAN</DistanceMeters>
          </Trackpoint>
          <Trackpoint>
            <Time>2022-07-11T15:24:49.000Z</Time>
            <Position>
              <LatitudeDegrees>43.30102737061679363250732421875</LatitudeDegrees>
              <LongitudeDegrees>-2.73882097564637660980224609375</LongitudeDegrees>
            </Position>
            <AltitudeMeters>171.399993896484375</AltitudeMeters>
            <DistanceMeters>NAN</DistanceMeters>
          </Trackpoint>
          <Trackpoint>
            <Time>2022-07-11T15:24:52.000Z</Time>
            <Position>
              <LatitudeDegrees>43.30102552659809589385986328125</LatitudeDegrees>
              <LongitudeDegrees>-2.738962881267070770263671875</LongitudeDegrees>
            </Position>
            <AltitudeMeters>171.399993896484375</AltitudeMeters>
            <DistanceMeters>NAN</DistanceMeters>
          </Trackpoint>
          <Trackpoint>
            <Time>2022-07-11T15:24:59.000Z</Time>
            <Position>
              <LatitudeDegrees>43.30099384300410747528076171875</LatitudeDegrees>
              <LongitudeDegrees>-2.73931659758090972900390625</LongitudeDegrees>
            </Position>
            <AltitudeMeters>171.600006103515625</AltitudeMeters>
            <DistanceMeters>NAN</DistanceMeters>
          </Trackpoint>
          <Trackpoint>
            <Time>2022-07-11T15:25:01.000Z</Time>
            <Position>
              <LatitudeDegrees>43.300997279584407806396484375</LatitudeDegrees>
              <LongitudeDegrees>-2.73941089399158954620361328125</LongitudeDegrees>
            </Position>
            <AltitudeMeters>171.600006103515625</AltitudeMeters>
            <DistanceMeters>NAN</DistanceMeters>
          </Trackpoint>
          <Trackpoint>
            <Time>2022-07-11T15:25:03.000Z</Time>
            <Position>
              <LatitudeDegrees>43.301008678972721099853515625</LatitudeDegrees>
              <LongitudeDegrees>-2.73949689231812953948974609375</LongitudeDegrees>
            </Position>
            <AltitudeMeters>171.600006103515625</AltitudeMeters>
            <DistanceMeters>NAN</DistanceMeters>
          </Trackpoint>
          <Trackpoint>
            <Time>2022-07-11T15:25:05.000Z</Time>
            <Position>
              <LatitudeDegrees>43.3010118640959262847900390625</LatitudeDegrees>
              <LongitudeDegrees>-2.73958657868206501007080078125</LongitudeDegrees>
            </Position>
            <AltitudeMeters>171.600006103515625</AltitudeMeters>
            <DistanceMeters>NAN</DistanceMeters>
          </Trackpoint>
          <Trackpoint>
            <Time>2022-07-11T15:25:09.000Z</Time>
            <Position>
              <LatitudeDegrees>43.30096073448657989501953125</LatitudeDegrees>
              <LongitudeDegrees>-2.73974633775651454925537109375</LongitudeDegrees>
            </Position>
            <AltitudeMeters>171.600006103515625</AltitudeMeters>
            <DistanceMeters>NAN</DistanceMeters>
          </Trackpoint>
          <Trackpoint>
            <Time>2022-07-11T15:25:14.000Z</Time>
            <Position>
              <LatitudeDegrees>43.3008660189807415008544921875</LatitudeDegrees>
              <LongitudeDegrees>-2.739839963614940643310546875</LongitudeDegrees>
            </Position>
            <AltitudeMeters>172</AltitudeMeters>
            <DistanceMeters>NAN</DistanceMeters>
          </Trackpoint>
          <Trackpoint>
            <Time>2022-07-11T15:25:21.000Z</Time>
            <Position>
              <LatitudeDegrees>43.3007728122174739837646484375</LatitudeDegrees>
              <LongitudeDegrees>-2.739848680794239044189453125</LongitudeDegrees>
            </Position>
            <AltitudeMeters>172.1999969482421875</AltitudeMeters>
            <DistanceMeters>NAN</DistanceMeters>
          </Trackpoint>
          <Trackpoint>
            <Time>2022-07-11T15:25:22.000Z</Time>
            <Position>
              <LatitudeDegrees>43.30077029764652252197265625</LatitudeDegrees>
              <LongitudeDegrees>-2.73985010571777820587158203125</LongitudeDegrees>
            </Position>
            <AltitudeMeters>172.1999969482421875</AltitudeMeters>
            <DistanceMeters>NAN</DistanceMeters>
          </Trackpoint>
          <Trackpoint>
            <Time>2022-07-11T16:14:47.000Z</Time>
            <Position>
              <LatitudeDegrees>43.30047617666423320770263671875</LatitudeDegrees>
              <LongitudeDegrees>-2.73979344405233860015869140625</LongitudeDegrees>
            </Position>
            <AltitudeMeters>180.1999969482421875</AltitudeMeters>
            <DistanceMeters>NAN</DistanceMeters>
          </Trackpoint>
          <Trackpoint>
            <Time>2022-07-11T16:14:49.000Z</Time>
            <Position>
              <LatitudeDegrees>43.300444744527339935302734375</LatitudeDegrees>
              <LongitudeDegrees>-2.73979344405233860015869140625</LongitudeDegrees>
            </Position>
            <AltitudeMeters>181.600006103515625</AltitudeMeters>
            <DistanceMeters>NAN</DistanceMeters>
          </Trackpoint>
          <Trackpoint>
            <Time>2022-07-11T16:14:50.000Z</Time>
            <Position>
              <LatitudeDegrees>43.30042756162583827972412109375</LatitudeDegrees>
              <LongitudeDegrees>-2.7397878281772136688232421875</LongitudeDegrees>
            </Position>
            <AltitudeMeters>181.8000030517578125</AltitudeMeters>
            <DistanceMeters>NAN</DistanceMeters>
          </Trackpoint>
          <Trackpoint>
            <Time>2022-07-11T16:14:57.000Z</Time>
            <Position>
              <LatitudeDegrees>43.300297558307647705078125</LatitudeDegrees>
              <LongitudeDegrees>-2.739809453487396240234375</LongitudeDegrees>
            </Position>
            <AltitudeMeters>182.399993896484375</AltitudeMeters>
            <DistanceMeters>NAN</DistanceMeters>
          </Trackpoint>
          <Trackpoint>
            <Time>2022-07-11T16:15:02.000Z</Time>
            <Position>
              <LatitudeDegrees>43.3002162538468837738037109375</LatitudeDegrees>
              <LongitudeDegrees>-2.73982412181794643402099609375</LongitudeDegrees>
            </Position>
            <AltitudeMeters>182.399993896484375</AltitudeMeters>
            <DistanceMeters>NAN</DistanceMeters>
          </Trackpoint>
          <Trackpoint>
            <Time>2022-07-11T16:15:05.000Z</Time>
            <Position>
              <LatitudeDegrees>43.30015984363853931427001953125</LatitudeDegrees>
              <LongitudeDegrees>-2.73984901607036590576171875</LongitudeDegrees>
            </Position>
            <AltitudeMeters>182.600006103515625</AltitudeMeters>
            <DistanceMeters>NAN</DistanceMeters>
          </Trackpoint>
          <Trackpoint>
            <Time>2022-07-11T16:15:10.000Z</Time>
            <Position>
              <LatitudeDegrees>43.300068564713001251220703125</LatitudeDegrees>
              <LongitudeDegrees>-2.73989352397620677947998046875</LongitudeDegrees>
            </Position>
            <AltitudeMeters>183</AltitudeMeters>
            <DistanceMeters>NAN</DistanceMeters>
          </Trackpoint>
          <Trackpoint>
            <Time>2022-07-11T16:15:15.000Z</Time>
            <Position>
              <LatitudeDegrees>43.2999745197594165802001953125</LatitudeDegrees>
              <LongitudeDegrees>-2.7399306558072566986083984375</LongitudeDegrees>
            </Position>
            <AltitudeMeters>183.399993896484375</AltitudeMeters>
            <DistanceMeters>NAN</DistanceMeters>
          </Trackpoint>
          <Trackpoint>
            <Time>2022-07-11T16:15:17.000Z</Time>
            <Position>
              <LatitudeDegrees>43.29994057305157184600830078125</LatitudeDegrees>
              <LongitudeDegrees>-2.73995672352612018585205078125</LongitudeDegrees>
            </Position>
            <AltitudeMeters>183.600006103515625</AltitudeMeters>
            <DistanceMeters>NAN</DistanceMeters>
          </Trackpoint>
          <Trackpoint>
            <Time>2022-07-11T16:15:19.000Z</Time>
            <Position>
              <LatitudeDegrees>43.29990771599113941192626953125</LatitudeDegrees>
              <LongitudeDegrees>-2.7399826236069202423095703125</LongitudeDegrees>
            </Position>
            <AltitudeMeters>183.600006103515625</AltitudeMeters>
            <DistanceMeters>NAN</DistanceMeters>
          </Trackpoint>
          <Trackpoint>
            <Time>2022-07-11T16:15:25.000Z</Time>
            <Position>
              <LatitudeDegrees>43.29980025999248027801513671875</LatitudeDegrees>
              <LongitudeDegrees>-2.7400419674813747406005859375</LongitudeDegrees>
            </Position>
            <AltitudeMeters>183.8000030517578125</AltitudeMeters>
            <DistanceMeters>NAN</DistanceMeters>
          </Trackpoint>
          <Trackpoint>
            <Time>2022-07-11T16:15:30.000Z</Time>
            <Position>
              <LatitudeDegrees>43.29970319755375385284423828125</LatitudeDegrees>
              <LongitudeDegrees>-2.7401241101324558258056640625</LongitudeDegrees>
            </Position>
            <AltitudeMeters>184</AltitudeMeters>
            <DistanceMeters>NAN</DistanceMeters>
          </Trackpoint>
          <Trackpoint>
            <Time>2022-07-11T16:15:32.000Z</Time>
            <Position>
              <LatitudeDegrees>43.2996637187898159027099609375</LatitudeDegrees>
              <LongitudeDegrees>-2.740117572247982025146484375</LongitudeDegrees>
            </Position>
            <AltitudeMeters>184</AltitudeMeters>
            <DistanceMeters>NAN</DistanceMeters>
          </Trackpoint>
          <Trackpoint>
            <Time>2022-07-11T16:15:38.000Z</Time>
            <Position>
              <LatitudeDegrees>43.2995852641761302947998046875</LatitudeDegrees>
              <LongitudeDegrees>-2.73999930359423160552978515625</LongitudeDegrees>
            </Position>
            <AltitudeMeters>184.399993896484375</AltitudeMeters>
            <DistanceMeters>NAN</DistanceMeters>
          </Trackpoint>
          <Trackpoint>
            <Time>2022-07-11T16:15:41.000Z</Time>
            <Position>
              <LatitudeDegrees>43.29955182038247585296630859375</LatitudeDegrees>
              <LongitudeDegrees>-2.73993694223463535308837890625</LongitudeDegrees>
            </Position>
            <AltitudeMeters>184.600006103515625</AltitudeMeters>
            <DistanceMeters>NAN</DistanceMeters>
          </Trackpoint>
          <Trackpoint>
            <Time>2022-07-11T16:15:47.000Z</Time>
            <Position>
              <LatitudeDegrees>43.2995168678462505340576171875</LatitudeDegrees>
              <LongitudeDegrees>-2.739812470972537994384765625</LongitudeDegrees>
            </Position>
            <AltitudeMeters>185.1999969482421875</AltitudeMeters>
            <DistanceMeters>NAN</DistanceMeters>
          </Trackpoint>
          <Trackpoint>
            <Time>2022-07-11T16:15:51.000Z</Time>
            <Position>
              <LatitudeDegrees>43.29949465580284595489501953125</LatitudeDegrees>
              <LongitudeDegrees>-2.73973879404366016387939453125</LongitudeDegrees>
            </Position>
            <AltitudeMeters>185.8000030517578125</AltitudeMeters>
            <DistanceMeters>NAN</DistanceMeters>
          </Trackpoint>
          <Trackpoint>
            <Time>2022-07-11T16:15:54.000Z</Time>
            <Position>
              <LatitudeDegrees>43.29947805963456630706787109375</LatitudeDegrees>
              <LongitudeDegrees>-2.73968783207237720489501953125</LongitudeDegrees>
            </Position>
            <AltitudeMeters>186.1999969482421875</AltitudeMeters>
            <DistanceMeters>NAN</DistanceMeters>
          </Trackpoint>
          <Trackpoint>
            <Time>2022-07-11T16:16:01.000Z</Time>
            <Position>
              <LatitudeDegrees>43.29944218508899211883544921875</LatitudeDegrees>
              <LongitudeDegrees>-2.7395854890346527099609375</LongitudeDegrees>
            </Position>
            <AltitudeMeters>186.600006103515625</AltitudeMeters>
            <DistanceMeters>NAN</DistanceMeters>
          </Trackpoint>
          <Trackpoint>
            <Time>2022-07-11T16:16:04.000Z</Time>
            <Position>
              <LatitudeDegrees>43.2994320429861545562744140625</LatitudeDegrees>
              <LongitudeDegrees>-2.73952086456120014190673828125</LongitudeDegrees>
            </Position>
            <AltitudeMeters>186.8000030517578125</AltitudeMeters>
            <DistanceMeters>NAN</DistanceMeters>
          </Trackpoint>
          <Trackpoint>
            <Time>2022-07-11T16:16:09.000Z</Time>
            <Position>
              <LatitudeDegrees>43.29940731637179851531982421875</LatitudeDegrees>
              <LongitudeDegrees>-2.73942866362631320953369140625</LongitudeDegrees>
            </Position>
            <AltitudeMeters>187</AltitudeMeters>
            <DistanceMeters>NAN</DistanceMeters>
          </Trackpoint>
          <Trackpoint>
            <Time>2022-07-11T16:16:16.000Z</Time>
            <Position>
              <LatitudeDegrees>43.299371190369129180908203125</LatitudeDegrees>
              <LongitudeDegrees>-2.73933813907206058502197265625</LongitudeDegrees>
            </Position>
            <AltitudeMeters>187.600006103515625</AltitudeMeters>
            <DistanceMeters>NAN</DistanceMeters>
          </Trackpoint>
          <Trackpoint>
            <Time>2022-07-11T16:16:17.000Z</Time>
            <Position>
              <LatitudeDegrees>43.2993623055517673492431640625</LatitudeDegrees>
              <LongitudeDegrees>-2.739319615066051483154296875</LongitudeDegrees>
            </Position>
            <AltitudeMeters>187.600006103515625</AltitudeMeters>
            <DistanceMeters>NAN</DistanceMeters>
          </Trackpoint>
          <Trackpoint>
            <Time>2022-07-11T16:16:20.000Z</Time>
            <Position>
              <LatitudeDegrees>43.2993442006409168243408203125</LatitudeDegrees>
              <LongitudeDegrees>-2.7392636239528656005859375</LongitudeDegrees>
            </Position>
            <AltitudeMeters>188</AltitudeMeters>
            <DistanceMeters>NAN</DistanceMeters>
          </Trackpoint>
          <Trackpoint>
            <Time>2022-07-11T16:16:26.000Z</Time>
            <Position>
              <LatitudeDegrees>43.29931176267564296722412109375</LatitudeDegrees>
              <LongitudeDegrees>-2.7391387335956096649169921875</LongitudeDegrees>
            </Position>
            <AltitudeMeters>188.399993896484375</AltitudeMeters>
            <DistanceMeters>NAN</DistanceMeters>
          </Trackpoint>
          <Trackpoint>
            <Time>2022-07-11T16:16:36.000Z</Time>
            <Position>
              <LatitudeDegrees>43.29926163889467716217041015625</LatitudeDegrees>
              <LongitudeDegrees>-2.7389194630086421966552734375</LongitudeDegrees>
            </Position>
            <AltitudeMeters>188.8000030517578125</AltitudeMeters>
            <DistanceMeters>NAN</DistanceMeters>
          </Trackpoint>
          <Trackpoint>
            <Time>2022-07-11T16:16:39.000Z</Time>
            <Position>
              <LatitudeDegrees>43.29922928474843502044677734375</LatitudeDegrees>
              <LongitudeDegrees>-2.73887629620730876922607421875</LongitudeDegrees>
            </Position>
            <AltitudeMeters>189</AltitudeMeters>
            <DistanceMeters>NAN</DistanceMeters>
          </Trackpoint>
          <Trackpoint>
            <Time>2022-07-11T16:16:44.000Z</Time>
            <Position>
              <LatitudeDegrees>43.29919290728867053985595703125</LatitudeDegrees>
              <LongitudeDegrees>-2.7387990988790988922119140625</LongitudeDegrees>
            </Position>
            <AltitudeMeters>189.600006103515625</AltitudeMeters>
            <DistanceMeters>NAN</DistanceMeters>
          </Trackpoint>
          <Trackpoint>
            <Time>2022-07-11T16:16:52.000Z</Time>
            <Position>
              <LatitudeDegrees>43.29909500665962696075439453125</LatitudeDegrees>
              <LongitudeDegrees>-2.7387206442654132843017578125</LongitudeDegrees>
            </Position>
            <AltitudeMeters>190</AltitudeMeters>
            <DistanceMeters>NAN</DistanceMeters>
          </Trackpoint>
          <Trackpoint>
            <Time>2022-07-11T16:16:53.000Z</Time>
            <Position>
              <LatitudeDegrees>43.29908343963325023651123046875</LatitudeDegrees>
              <LongitudeDegrees>-2.7387089096009731292724609375</LongitudeDegrees>
            </Position>
            <AltitudeMeters>190</AltitudeMeters>
            <DistanceMeters>NAN</DistanceMeters>
          </Trackpoint>
          <Trackpoint>
            <Time>2022-07-11T16:17:04.000Z</Time>
            <Position>
              <LatitudeDegrees>43.2989794202148914337158203125</LatitudeDegrees>
              <LongitudeDegrees>-2.73860983550548553466796875</LongitudeDegrees>
            </Position>
            <AltitudeMeters>190.8000030517578125</AltitudeMeters>
            <DistanceMeters>NAN</DistanceMeters>
          </Trackpoint>
          <Trackpoint>
            <Time>2022-07-11T16:17:06.000Z</Time>
            <Position>
              <LatitudeDegrees>43.29896156676113605499267578125</LatitudeDegrees>
              <LongitudeDegrees>-2.7386006154119968414306640625</LongitudeDegrees>
            </Position>
            <AltitudeMeters>191</AltitudeMeters>
            <DistanceMeters>NAN</DistanceMeters>
          </Trackpoint>
          <Trackpoint>
            <Time>2022-07-11T16:17:12.000Z</Time>
            <Position>
              <LatitudeDegrees>43.29892083071172237396240234375</LatitudeDegrees>
              <LongitudeDegrees>-2.73855409584939479827880859375</LongitudeDegrees>
            </Position>
            <AltitudeMeters>191.600006103515625</AltitudeMeters>
            <DistanceMeters>NAN</DistanceMeters>
          </Trackpoint>
          <Trackpoint>
            <Time>2022-07-11T16:17:16.000Z</Time>
            <Position>
              <LatitudeDegrees>43.29889635555446147918701171875</LatitudeDegrees>
              <LongitudeDegrees>-2.73852995596826076507568359375</LongitudeDegrees>
            </Position>
            <AltitudeMeters>192</AltitudeMeters>
            <DistanceMeters>NAN</DistanceMeters>
          </Trackpoint>
          <Trackpoint>
            <Time>2022-07-11T16:17:20.000Z</Time>
            <Position>
              <LatitudeDegrees>43.298857212066650390625</LatitudeDegrees>
              <LongitudeDegrees>-2.7384993620216846466064453125</LongitudeDegrees>
            </Position>
            <AltitudeMeters>192.399993896484375</AltitudeMeters>
            <DistanceMeters>NAN</DistanceMeters>
          </Trackpoint>
          <Trackpoint>
            <Time>2022-07-11T16:17:28.000Z</Time>
            <Position>
              <LatitudeDegrees>43.2987953536212444305419921875</LatitudeDegrees>
              <LongitudeDegrees>-2.7384535968303680419921875</LongitudeDegrees>
            </Position>
            <AltitudeMeters>193.1999969482421875</AltitudeMeters>
            <DistanceMeters>NAN</DistanceMeters>
          </Trackpoint>
          <Trackpoint>
            <Time>2022-07-11T16:17:31.000Z</Time>
            <Position>
              <LatitudeDegrees>43.2987658493220806121826171875</LatitudeDegrees>
              <LongitudeDegrees>-2.73841805756092071533203125</LongitudeDegrees>
            </Position>
            <AltitudeMeters>193.399993896484375</AltitudeMeters>
            <DistanceMeters>NAN</DistanceMeters>
          </Trackpoint>
          <Trackpoint>
            <Time>2022-07-11T16:17:38.000Z</Time>
            <Position>
              <LatitudeDegrees>43.29871849156916141510009765625</LatitudeDegrees>
              <LongitudeDegrees>-2.73835636675357818603515625</LongitudeDegrees>
            </Position>
            <AltitudeMeters>193.8000030517578125</AltitudeMeters>
            <DistanceMeters>NAN</DistanceMeters>
          </Trackpoint>
          <Trackpoint>
            <Time>2022-07-11T16:17:42.000Z</Time>
            <Position>
              <LatitudeDegrees>43.29867272637784481048583984375</LatitudeDegrees>
              <LongitudeDegrees>-2.738319821655750274658203125</LongitudeDegrees>
            </Position>
            <AltitudeMeters>194.399993896484375</AltitudeMeters>
            <DistanceMeters>NAN</DistanceMeters>
          </Trackpoint>
          <Trackpoint>
            <Time>2022-07-11T16:17:44.000Z</Time>
            <Position>
              <LatitudeDegrees>43.29864657483994960784912109375</LatitudeDegrees>
              <LongitudeDegrees>-2.73830138146877288818359375</LongitudeDegrees>
            </Position>
            <AltitudeMeters>194.600006103515625</AltitudeMeters>
            <DistanceMeters>NAN</DistanceMeters>
          </Trackpoint>
          <Trackpoint>
            <Time>2022-07-11T16:17:51.000Z</Time>
            <Position>
              <LatitudeDegrees>43.29858823679387569427490234375</LatitudeDegrees>
              <LongitudeDegrees>-2.73825352080166339874267578125</LongitudeDegrees>
            </Position>
            <AltitudeMeters>195.1999969482421875</AltitudeMeters>
            <DistanceMeters>NAN</DistanceMeters>
          </Trackpoint>
          <Trackpoint>
            <Time>2022-07-11T16:17:53.000Z</Time>
            <Position>
              <LatitudeDegrees>43.29857130534946918487548828125</LatitudeDegrees>
              <LongitudeDegrees>-2.7382368408143520355224609375</LongitudeDegrees>
            </Position>
            <AltitudeMeters>195.399993896484375</AltitudeMeters>
            <DistanceMeters>NAN</DistanceMeters>
          </Trackpoint>
          <Trackpoint>
            <Time>2022-07-11T16:17:59.000Z</Time>
            <Position>
              <LatitudeDegrees>43.29850357957184314727783203125</LatitudeDegrees>
              <LongitudeDegrees>-2.73817121051251888275146484375</LongitudeDegrees>
            </Position>
            <AltitudeMeters>196.1999969482421875</AltitudeMeters>
            <DistanceMeters>NAN</DistanceMeters>
          </Trackpoint>
          <Trackpoint>
            <Time>2022-07-11T16:18:02.000Z</Time>
            <Position>
              <LatitudeDegrees>43.29848145134747028350830078125</LatitudeDegrees>
              <LongitudeDegrees>-2.73816266097128391265869140625</LongitudeDegrees>
            </Position>
            <AltitudeMeters>196.399993896484375</AltitudeMeters>
            <DistanceMeters>NAN</DistanceMeters>
          </Trackpoint>
          <Trackpoint>
            <Time>2022-07-11T16:18:05.000Z</Time>
            <Position>
              <LatitudeDegrees>43.29845949076116085052490234375</LatitudeDegrees>
              <LongitudeDegrees>-2.738133408129215240478515625</LongitudeDegrees>
            </Position>
            <AltitudeMeters>196.8000030517578125</AltitudeMeters>
            <DistanceMeters>NAN</DistanceMeters>
          </Trackpoint>
          <Trackpoint>
            <Time>2022-07-11T16:18:07.000Z</Time>
            <Position>
              <LatitudeDegrees>43.29844490624964237213134765625</LatitudeDegrees>
              <LongitudeDegrees>-2.73811270482838153839111328125</LongitudeDegrees>
            </Position>
            <AltitudeMeters>197</AltitudeMeters>
            <DistanceMeters>NAN</DistanceMeters>
          </Trackpoint>
          <Trackpoint>
            <Time>2022-07-11T16:18:11.000Z</Time>
            <Position>
              <LatitudeDegrees>43.29841271974146366119384765625</LatitudeDegrees>
              <LongitudeDegrees>-2.73808973841369152069091796875</LongitudeDegrees>
            </Position>
            <AltitudeMeters>197.600006103515625</AltitudeMeters>
            <DistanceMeters>NAN</DistanceMeters>
          </Trackpoint>
          <Trackpoint>
            <Time>2022-07-11T16:18:14.000Z</Time>
            <Position>
              <LatitudeDegrees>43.2983826287090778350830078125</LatitudeDegrees>
              <LongitudeDegrees>-2.7380826137959957122802734375</LongitudeDegrees>
            </Position>
            <AltitudeMeters>198</AltitudeMeters>
            <DistanceMeters>NAN</DistanceMeters>
          </Trackpoint>
          <Trackpoint>
            <Time>2022-07-11T16:18:15.000Z</Time>
            <Position>
              <LatitudeDegrees>43.2983703911304473876953125</LatitudeDegrees>
              <LongitudeDegrees>-2.73807280696928501129150390625</LongitudeDegrees>
            </Position>
            <AltitudeMeters>198</AltitudeMeters>
            <DistanceMeters>NAN</DistanceMeters>
          </Trackpoint>
          <Trackpoint>
            <Time>2022-07-11T16:18:20.000Z</Time>
            <Position>
              <LatitudeDegrees>43.2983125559985637664794921875</LatitudeDegrees>
              <LongitudeDegrees>-2.73801346309483051300048828125</LongitudeDegrees>
            </Position>
            <AltitudeMeters>198.600006103515625</AltitudeMeters>
            <DistanceMeters>NAN</DistanceMeters>
          </Trackpoint>
          <Trackpoint>
            <Time>2022-07-11T16:18:21.000Z</Time>
            <Position>
              <LatitudeDegrees>43.2983051799237728118896484375</LatitudeDegrees>
              <LongitudeDegrees>-2.73800055496394634246826171875</LongitudeDegrees>
            </Position>
            <AltitudeMeters>198.8000030517578125</AltitudeMeters>
            <DistanceMeters>NAN</DistanceMeters>
          </Trackpoint>
          <Trackpoint>
            <Time>2022-07-11T16:18:24.000Z</Time>
            <Position>
              <LatitudeDegrees>43.29828229732811450958251953125</LatitudeDegrees>
              <LongitudeDegrees>-2.73798362351953983306884765625</LongitudeDegrees>
            </Position>
            <AltitudeMeters>199</AltitudeMeters>
            <DistanceMeters>NAN</DistanceMeters>
          </Trackpoint>
          <Trackpoint>
            <Time>2022-07-11T16:18:27.000Z</Time>
            <Position>
              <LatitudeDegrees>43.2982458360493183135986328125</LatitudeDegrees>
              <LongitudeDegrees>-2.73796602152287960052490234375</LongitudeDegrees>
            </Position>
            <AltitudeMeters>199.399993896484375</AltitudeMeters>
            <DistanceMeters>NAN</DistanceMeters>
          </Trackpoint>
          <Trackpoint>
            <Time>2022-07-11T16:18:28.000Z</Time>
            <Position>
              <LatitudeDegrees>43.29823468811810016632080078125</LatitudeDegrees>
              <LongitudeDegrees>-2.73795805871486663818359375</LongitudeDegrees>
            </Position>
            <AltitudeMeters>199.600006103515625</AltitudeMeters>
            <DistanceMeters>NAN</DistanceMeters>
          </Trackpoint>
          <Trackpoint>
            <Time>2022-07-11T16:18:30.000Z</Time>
            <Position>
              <LatitudeDegrees>43.29821440391242504119873046875</LatitudeDegrees>
              <LongitudeDegrees>-2.737938277423381805419921875</LongitudeDegrees>
            </Position>
            <AltitudeMeters>199.8000030517578125</AltitudeMeters>
            <DistanceMeters>NAN</DistanceMeters>
          </Trackpoint>
          <Trackpoint>
            <Time>2022-07-11T16:18:36.000Z</Time>
            <Position>
              <LatitudeDegrees>43.29815112054347991943359375</LatitudeDegrees>
              <LongitudeDegrees>-2.7379223518073558807373046875</LongitudeDegrees>
            </Position>
            <AltitudeMeters>200.600006103515625</AltitudeMeters>
            <DistanceMeters>NAN</DistanceMeters>
          </Trackpoint>
          <Trackpoint>
            <Time>2022-07-11T16:18:37.000Z</Time>
            <Position>
              <LatitudeDegrees>43.29814231954514980316162109375</LatitudeDegrees>
              <LongitudeDegrees>-2.73792210035026073455810546875</LongitudeDegrees>
            </Position>
            <AltitudeMeters>200.8000030517578125</AltitudeMeters>
            <DistanceMeters>NAN</DistanceMeters>
          </Trackpoint>
          <Trackpoint>
            <Time>2022-07-11T16:18:45.000Z</Time>
            <Position>
              <LatitudeDegrees>43.298067636787891387939453125</LatitudeDegrees>
              <LongitudeDegrees>-2.73787817917764186859130859375</LongitudeDegrees>
            </Position>
            <AltitudeMeters>201.600006103515625</AltitudeMeters>
            <DistanceMeters>NAN</DistanceMeters>
          </Trackpoint>
          <Trackpoint>
            <Time>2022-07-11T16:18:46.000Z</Time>
            <Position>
              <LatitudeDegrees>43.29805456101894378662109375</LatitudeDegrees>
              <LongitudeDegrees>-2.73787633515894412994384765625</LongitudeDegrees>
            </Position>
            <AltitudeMeters>201.8000030517578125</AltitudeMeters>
            <DistanceMeters>NAN</DistanceMeters>
          </Trackpoint>
          <Trackpoint>
            <Time>2022-07-11T16:18:53.000Z</Time>
            <Position>
              <LatitudeDegrees>43.29798390157520771026611328125</LatitudeDegrees>
              <LongitudeDegrees>-2.73785722441971302032470703125</LongitudeDegrees>
            </Position>
            <AltitudeMeters>202.399993896484375</AltitudeMeters>
            <DistanceMeters>NAN</DistanceMeters>
          </Trackpoint>
          <Trackpoint>
            <Time>2022-07-11T16:18:56.000Z</Time>
            <Position>
              <LatitudeDegrees>43.297953642904758453369140625</LatitudeDegrees>
              <LongitudeDegrees>-2.73784163407981395721435546875</LongitudeDegrees>
            </Position>
            <AltitudeMeters>203</AltitudeMeters>
            <DistanceMeters>NAN</DistanceMeters>
          </Trackpoint>
          <Trackpoint>
            <Time>2022-07-11T16:19:00.000Z</Time>
            <Position>
              <LatitudeDegrees>43.29789765179157257080078125</LatitudeDegrees>
              <LongitudeDegrees>-2.73782470263540744781494140625</LongitudeDegrees>
            </Position>
            <AltitudeMeters>203.600006103515625</AltitudeMeters>
            <DistanceMeters>NAN</DistanceMeters>
          </Trackpoint>
          <Trackpoint>
            <Time>2022-07-11T16:19:02.000Z</Time>
            <Position>
              <LatitudeDegrees>43.2978741824626922607421875</LatitudeDegrees>
              <LongitudeDegrees>-2.737823612987995147705078125</LongitudeDegrees>
            </Position>
            <AltitudeMeters>203.8000030517578125</AltitudeMeters>
            <DistanceMeters>NAN</DistanceMeters>
          </Trackpoint>
          <Trackpoint>
            <Time>2022-07-11T16:19:04.000Z</Time>
            <Position>
              <LatitudeDegrees>43.29785984940826892852783203125</LatitudeDegrees>
              <LongitudeDegrees>-2.73782554082572460174560546875</LongitudeDegrees>
            </Position>
            <AltitudeMeters>204</AltitudeMeters>
            <DistanceMeters>NAN</DistanceMeters>
          </Trackpoint>
          <Trackpoint>
            <Time>2022-07-11T16:19:05.000Z</Time>
            <Position>
              <LatitudeDegrees>43.29784861765801906585693359375</LatitudeDegrees>
              <LongitudeDegrees>-2.737818919122219085693359375</LongitudeDegrees>
            </Position>
            <AltitudeMeters>204.1999969482421875</AltitudeMeters>
            <DistanceMeters>NAN</DistanceMeters>
          </Trackpoint>
          <Trackpoint>
            <Time>2022-07-11T16:19:08.000Z</Time>
            <Position>
              <LatitudeDegrees>43.29781307838857173919677734375</LatitudeDegrees>
              <LongitudeDegrees>-2.7377909235656261444091796875</LongitudeDegrees>
            </Position>
            <AltitudeMeters>204.399993896484375</AltitudeMeters>
            <DistanceMeters>NAN</DistanceMeters>
          </Trackpoint>
          <Trackpoint>
            <Time>2022-07-11T16:19:12.000Z</Time>
            <Position>
              <LatitudeDegrees>43.29778759740293025970458984375</LatitudeDegrees>
              <LongitudeDegrees>-2.7377744950354099273681640625</LongitudeDegrees>
            </Position>
            <AltitudeMeters>205</AltitudeMeters>
            <DistanceMeters>NAN</DistanceMeters>
          </Trackpoint>
          <Trackpoint>
            <Time>2022-07-11T16:19:13.000Z</Time>
            <Position>
              <LatitudeDegrees>43.29778055660426616668701171875</LatitudeDegrees>
              <LongitudeDegrees>-2.73775848560035228729248046875</LongitudeDegrees>
            </Position>
            <AltitudeMeters>205.1999969482421875</AltitudeMeters>
            <DistanceMeters>NAN</DistanceMeters>
          </Trackpoint>
          <Trackpoint>
            <Time>2022-07-11T16:19:16.000Z</Time>
            <Position>
              <LatitudeDegrees>43.2977472804486751556396484375</LatitudeDegrees>
              <LongitudeDegrees>-2.73773602209985256195068359375</LongitudeDegrees>
            </Position>
            <AltitudeMeters>205.399993896484375</AltitudeMeters>
            <DistanceMeters>NAN</DistanceMeters>
          </Trackpoint>
          <Trackpoint>
            <Time>2022-07-11T16:19:22.000Z</Time>
            <Position>
              <LatitudeDegrees>43.2976751960813999176025390625</LatitudeDegrees>
              <LongitudeDegrees>-2.7377322502434253692626953125</LongitudeDegrees>
            </Position>
            <AltitudeMeters>206.1999969482421875</AltitudeMeters>
            <DistanceMeters>NAN</DistanceMeters>
          </Trackpoint>
          <Trackpoint>
            <Time>2022-07-11T16:19:24.000Z</Time>
            <Position>
              <LatitudeDegrees>43.2976433448493480682373046875</LatitudeDegrees>
              <LongitudeDegrees>-2.73772948421537876129150390625</LongitudeDegrees>
            </Position>
            <AltitudeMeters>206.399993896484375</AltitudeMeters>
            <DistanceMeters>NAN</DistanceMeters>
          </Trackpoint>
          <Trackpoint>
            <Time>2022-07-11T16:19:28.000Z</Time>
            <Position>
              <LatitudeDegrees>43.29760772176086902618408203125</LatitudeDegrees>
              <LongitudeDegrees>-2.7377164922654628753662109375</LongitudeDegrees>
            </Position>
            <AltitudeMeters>207</AltitudeMeters>
            <DistanceMeters>NAN</DistanceMeters>
          </Trackpoint>
          <Trackpoint>
            <Time>2022-07-11T16:19:30.000Z</Time>
            <Position>
              <LatitudeDegrees>43.2975880242884159088134765625</LatitudeDegrees>
              <LongitudeDegrees>-2.73769243620336055755615234375</LongitudeDegrees>
            </Position>
            <AltitudeMeters>207.1999969482421875</AltitudeMeters>
            <DistanceMeters>NAN</DistanceMeters>
          </Trackpoint>
          <Trackpoint>
            <Time>2022-07-11T16:19:33.000Z</Time>
            <Position>
              <LatitudeDegrees>43.2975496351718902587890625</LatitudeDegrees>
              <LongitudeDegrees>-2.73766024969518184661865234375</LongitudeDegrees>
            </Position>
            <AltitudeMeters>207.8000030517578125</AltitudeMeters>
            <DistanceMeters>NAN</DistanceMeters>
          </Trackpoint>
          <Trackpoint>
            <Time>2022-07-11T16:19:36.000Z</Time>
            <Position>
              <LatitudeDegrees>43.2975186221301555633544921875</LatitudeDegrees>
              <LongitudeDegrees>-2.73763728328049182891845703125</LongitudeDegrees>
            </Position>
            <AltitudeMeters>208.1999969482421875</AltitudeMeters>
            <DistanceMeters>NAN</DistanceMeters>
          </Trackpoint>
          <Trackpoint>
            <Time>2022-07-11T16:19:43.000Z</Time>
            <Position>
              <LatitudeDegrees>43.2974358089268207550048828125</LatitudeDegrees>
              <LongitudeDegrees>-2.73757441900670528411865234375</LongitudeDegrees>
            </Position>
            <AltitudeMeters>209.1999969482421875</AltitudeMeters>
            <DistanceMeters>NAN</DistanceMeters>
          </Trackpoint>
          <Trackpoint>
            <Time>2022-07-11T16:19:52.000Z</Time>
            <Position>
              <LatitudeDegrees>43.29734922386705875396728515625</LatitudeDegrees>
              <LongitudeDegrees>-2.7375067770481109619140625</LongitudeDegrees>
            </Position>
            <AltitudeMeters>210</AltitudeMeters>
            <DistanceMeters>NAN</DistanceMeters>
          </Trackpoint>
          <Trackpoint>
            <Time>2022-07-11T16:19:55.000Z</Time>
            <Position>
              <LatitudeDegrees>43.29731569625437259674072265625</LatitudeDegrees>
              <LongitudeDegrees>-2.7374925278127193450927734375</LongitudeDegrees>
            </Position>
            <AltitudeMeters>210.399993896484375</AltitudeMeters>
            <DistanceMeters>NAN</DistanceMeters>
          </Trackpoint>
          <Trackpoint>
            <Time>2022-07-11T16:20:01.000Z</Time>
            <Position>
              <LatitudeDegrees>43.2972577773034572601318359375</LatitudeDegrees>
              <LongitudeDegrees>-2.73743527941405773162841796875</LongitudeDegrees>
            </Position>
            <AltitudeMeters>211</AltitudeMeters>
            <DistanceMeters>NAN</DistanceMeters>
          </Trackpoint>
          <Trackpoint>
            <Time>2022-07-11T16:20:05.000Z</Time>
            <Position>
              <LatitudeDegrees>43.297213017940521240234375</LatitudeDegrees>
              <LongitudeDegrees>-2.73741130717098712921142578125</LongitudeDegrees>
            </Position>
            <AltitudeMeters>211.1999969482421875</AltitudeMeters>
            <DistanceMeters>NAN</DistanceMeters>
          </Trackpoint>
          <Trackpoint>
            <Time>2022-07-11T16:20:07.000Z</Time>
            <Position>
              <LatitudeDegrees>43.2971957512199878692626953125</LatitudeDegrees>
              <LongitudeDegrees>-2.73740158416330814361572265625</LongitudeDegrees>
            </Position>
            <AltitudeMeters>211.399993896484375</AltitudeMeters>
            <DistanceMeters>NAN</DistanceMeters>
          </Trackpoint>
          <Trackpoint>
            <Time>2022-07-11T16:20:09.000Z</Time>
            <Position>
              <LatitudeDegrees>43.29717555083334445953369140625</LatitudeDegrees>
              <LongitudeDegrees>-2.7373845688998699188232421875</LongitudeDegrees>
            </Position>
            <AltitudeMeters>211.600006103515625</AltitudeMeters>
            <DistanceMeters>NAN</DistanceMeters>
          </Trackpoint>
          <Trackpoint>
            <Time>2022-07-11T16:20:10.000Z</Time>
            <Position>
              <LatitudeDegrees>43.29716205596923828125</LatitudeDegrees>
              <LongitudeDegrees>-2.73737744428217411041259765625</LongitudeDegrees>
            </Position>
            <AltitudeMeters>211.600006103515625</AltitudeMeters>
            <DistanceMeters>NAN</DistanceMeters>
          </Trackpoint>
          <Trackpoint>
            <Time>2022-07-11T16:20:12.000Z</Time>
            <Position>
              <LatitudeDegrees>43.29713523387908935546875</LatitudeDegrees>
              <LongitudeDegrees>-2.73736101575195789337158203125</LongitudeDegrees>
            </Position>
            <AltitudeMeters>212</AltitudeMeters>
            <DistanceMeters>NAN</DistanceMeters>
          </Trackpoint>
          <Trackpoint>
            <Time>2022-07-11T16:20:15.000Z</Time>
            <Position>
              <LatitudeDegrees>43.29710681922733783721923828125</LatitudeDegrees>
              <LongitudeDegrees>-2.73733285255730152130126953125</LongitudeDegrees>
            </Position>
            <AltitudeMeters>212.1999969482421875</AltitudeMeters>
            <DistanceMeters>NAN</DistanceMeters>
          </Trackpoint>
          <Trackpoint>
            <Time>2022-07-11T16:20:17.000Z</Time>
            <Position>
              <LatitudeDegrees>43.29707161523401737213134765625</LatitudeDegrees>
              <LongitudeDegrees>-2.73732899688184261322021484375</LongitudeDegrees>
            </Position>
            <AltitudeMeters>212.399993896484375</AltitudeMeters>
            <DistanceMeters>NAN</DistanceMeters>
          </Trackpoint>
          <Trackpoint>
            <Time>2022-07-11T16:20:18.000Z</Time>
            <Position>
              <LatitudeDegrees>43.29705401323735713958740234375</LatitudeDegrees>
              <LongitudeDegrees>-2.7373228780925273895263671875</LongitudeDegrees>
            </Position>
            <AltitudeMeters>212.600006103515625</AltitudeMeters>
            <DistanceMeters>NAN</DistanceMeters>
          </Trackpoint>
          <Trackpoint>
            <Time>2022-07-11T16:20:19.000Z</Time>
            <Position>
              <LatitudeDegrees>43.29704160802066326141357421875</LatitudeDegrees>
              <LongitudeDegrees>-2.73732095025479793548583984375</LongitudeDegrees>
            </Position>
            <AltitudeMeters>212.600006103515625</AltitudeMeters>
            <DistanceMeters>NAN</DistanceMeters>
          </Trackpoint>
          <Trackpoint>
            <Time>2022-07-11T16:20:22.000Z</Time>
            <Position>
              <LatitudeDegrees>43.29700757749378681182861328125</LatitudeDegrees>
              <LongitudeDegrees>-2.7373299188911914825439453125</LongitudeDegrees>
            </Position>
            <AltitudeMeters>212.8000030517578125</AltitudeMeters>
            <DistanceMeters>NAN</DistanceMeters>
          </Trackpoint>
          <Trackpoint>
            <Time>2022-07-11T16:20:23.000Z</Time>
            <Position>
              <LatitudeDegrees>43.29699416644871234893798828125</LatitudeDegrees>
              <LongitudeDegrees>-2.737332098186016082763671875</LongitudeDegrees>
            </Position>
            <AltitudeMeters>212.8000030517578125</AltitudeMeters>
            <DistanceMeters>NAN</DistanceMeters>
          </Trackpoint>
          <Trackpoint>
            <Time>2022-07-11T16:20:25.000Z</Time>
            <Position>
              <LatitudeDegrees>43.29697136767208576202392578125</LatitudeDegrees>
              <LongitudeDegrees>-2.737330757081508636474609375</LongitudeDegrees>
            </Position>
            <AltitudeMeters>213</AltitudeMeters>
            <DistanceMeters>NAN</DistanceMeters>
          </Trackpoint>
          <Trackpoint>
            <Time>2022-07-11T16:20:29.000Z</Time>
            <Position>
              <LatitudeDegrees>43.29692057333886623382568359375</LatitudeDegrees>
              <LongitudeDegrees>-2.7373309247195720672607421875</LongitudeDegrees>
            </Position>
            <AltitudeMeters>213.399993896484375</AltitudeMeters>
            <DistanceMeters>NAN</DistanceMeters>
          </Trackpoint>
          <Trackpoint>
            <Time>2022-07-11T16:20:31.000Z</Time>
            <Position>
              <LatitudeDegrees>43.29689945094287395477294921875</LatitudeDegrees>
              <LongitudeDegrees>-2.73732782341539859771728515625</LongitudeDegrees>
            </Position>
            <AltitudeMeters>213.399993896484375</AltitudeMeters>
            <DistanceMeters>NAN</DistanceMeters>
          </Trackpoint>
          <Trackpoint>
            <Time>2022-07-11T16:20:32.000Z</Time>
            <Position>
              <LatitudeDegrees>43.29688486643135547637939453125</LatitudeDegrees>
              <LongitudeDegrees>-2.737326733767986297607421875</LongitudeDegrees>
            </Position>
            <AltitudeMeters>213.600006103515625</AltitudeMeters>
            <DistanceMeters>NAN</DistanceMeters>
          </Trackpoint>
          <Trackpoint>
            <Time>2022-07-11T16:20:36.000Z</Time>
            <Position>
              <LatitudeDegrees>43.29683742485940456390380859375</LatitudeDegrees>
              <LongitudeDegrees>-2.73734576068818569183349609375</LongitudeDegrees>
            </Position>
            <AltitudeMeters>214.1999969482421875</AltitudeMeters>
            <DistanceMeters>NAN</DistanceMeters>
          </Trackpoint>
          <Trackpoint>
            <Time>2022-07-11T16:20:38.000Z</Time>
            <Position>
              <LatitudeDegrees>43.2968078367412090301513671875</LatitudeDegrees>
              <LongitudeDegrees>-2.73734559305012226104736328125</LongitudeDegrees>
            </Position>
            <AltitudeMeters>214.600006103515625</AltitudeMeters>
            <DistanceMeters>NAN</DistanceMeters>
          </Trackpoint>
          <Trackpoint>
            <Time>2022-07-11T16:20:39.000Z</Time>
            <Position>
              <LatitudeDegrees>43.2967950962483882904052734375</LatitudeDegrees>
              <LongitudeDegrees>-2.73734123446047306060791015625</LongitudeDegrees>
            </Position>
            <AltitudeMeters>214.600006103515625</AltitudeMeters>
            <DistanceMeters>NAN</DistanceMeters>
          </Trackpoint>
          <Trackpoint>
            <Time>2022-07-11T16:20:42.000Z</Time>
            <Position>
              <LatitudeDegrees>43.29675075598061084747314453125</LatitudeDegrees>
              <LongitudeDegrees>-2.73732237517833709716796875</LongitudeDegrees>
            </Position>
            <AltitudeMeters>214.8000030517578125</AltitudeMeters>
            <DistanceMeters>NAN</DistanceMeters>
          </Trackpoint>
          <Trackpoint>
            <Time>2022-07-11T16:20:43.000Z</Time>
            <Position>
              <LatitudeDegrees>43.29673784784972667694091796875</LatitudeDegrees>
              <LongitudeDegrees>-2.73732849396765232086181640625</LongitudeDegrees>
            </Position>
            <AltitudeMeters>214.8000030517578125</AltitudeMeters>
            <DistanceMeters>NAN</DistanceMeters>
          </Trackpoint>
          <Trackpoint>
            <Time>2022-07-11T16:20:49.000Z</Time>
            <Position>
              <LatitudeDegrees>43.29665268771350383758544921875</LatitudeDegrees>
              <LongitudeDegrees>-2.7373785339295864105224609375</LongitudeDegrees>
            </Position>
            <AltitudeMeters>214.8000030517578125</AltitudeMeters>
            <DistanceMeters>NAN</DistanceMeters>
          </Trackpoint>
          <Trackpoint>
            <Time>2022-07-11T16:20:56.000Z</Time>
            <Position>
              <LatitudeDegrees>43.2965513505041599273681640625</LatitudeDegrees>
              <LongitudeDegrees>-2.7374405600130558013916015625</LongitudeDegrees>
            </Position>
            <AltitudeMeters>215.1999969482421875</AltitudeMeters>
            <DistanceMeters>NAN</DistanceMeters>
          </Trackpoint>
          <Trackpoint>
            <Time>2022-07-11T16:21:02.000Z</Time>
            <Position>
              <LatitudeDegrees>43.296472728252410888671875</LatitudeDegrees>
              <LongitudeDegrees>-2.73751105181872844696044921875</LongitudeDegrees>
            </Position>
            <AltitudeMeters>215.600006103515625</AltitudeMeters>
            <DistanceMeters>NAN</DistanceMeters>
          </Trackpoint>
          <Trackpoint>
            <Time>2022-07-11T16:21:10.000Z</Time>
            <Position>
              <LatitudeDegrees>43.2963511906564235687255859375</LatitudeDegrees>
              <LongitudeDegrees>-2.737564109265804290771484375</LongitudeDegrees>
            </Position>
            <AltitudeMeters>216</AltitudeMeters>
            <DistanceMeters>NAN</DistanceMeters>
          </Trackpoint>
          <Trackpoint>
            <Time>2022-07-11T16:21:11.000Z</Time>
            <Position>
              <LatitudeDegrees>43.29633526504039764404296875</LatitudeDegrees>
              <LongitudeDegrees>-2.7375696413218975067138671875</LongitudeDegrees>
            </Position>
            <AltitudeMeters>216</AltitudeMeters>
            <DistanceMeters>NAN</DistanceMeters>
          </Trackpoint>
          <Trackpoint>
            <Time>2022-07-11T16:21:12.000Z</Time>
            <Position>
              <LatitudeDegrees>43.29632109962403774261474609375</LatitudeDegrees>
              <LongitudeDegrees>-2.73757517337799072265625</LongitudeDegrees>
            </Position>
            <AltitudeMeters>216</AltitudeMeters>
            <DistanceMeters>NAN</DistanceMeters>
          </Trackpoint>
          <Trackpoint>
            <Time>2022-07-11T16:21:16.000Z</Time>
            <Position>
              <LatitudeDegrees>43.29625211656093597412109375</LatitudeDegrees>
              <LongitudeDegrees>-2.7375686354935169219970703125</LongitudeDegrees>
            </Position>
            <AltitudeMeters>216.1999969482421875</AltitudeMeters>
            <DistanceMeters>NAN</DistanceMeters>
          </Trackpoint>
          <Trackpoint>
            <Time>2022-07-11T16:21:23.000Z</Time>
            <Position>
              <LatitudeDegrees>43.29613468609750270843505859375</LatitudeDegrees>
              <LongitudeDegrees>-2.73757207207381725311279296875</LongitudeDegrees>
            </Position>
            <AltitudeMeters>216.8000030517578125</AltitudeMeters>
            <DistanceMeters>NAN</DistanceMeters>
          </Trackpoint>
          <Trackpoint>
            <Time>2022-07-11T16:21:26.000Z</Time>
            <Position>
              <LatitudeDegrees>43.29608171246945858001708984375</LatitudeDegrees>
              <LongitudeDegrees>-2.737563438713550567626953125</LongitudeDegrees>
            </Position>
            <AltitudeMeters>216.8000030517578125</AltitudeMeters>
            <DistanceMeters>NAN</DistanceMeters>
          </Trackpoint>
          <Trackpoint>
            <Time>2022-07-11T16:21:33.000Z</Time>
            <Position>
              <LatitudeDegrees>43.2959766872227191925048828125</LatitudeDegrees>
              <LongitudeDegrees>-2.73752354085445404052734375</LongitudeDegrees>
            </Position>
            <AltitudeMeters>217.1999969482421875</AltitudeMeters>
            <DistanceMeters>NAN</DistanceMeters>
          </Trackpoint>
          <Trackpoint>
            <Time>2022-07-11T16:21:40.000Z</Time>
            <Position>
              <LatitudeDegrees>43.2958663813769817352294921875</LatitudeDegrees>
              <LongitudeDegrees>-2.7375062741339206695556640625</LongitudeDegrees>
            </Position>
            <AltitudeMeters>217.399993896484375</AltitudeMeters>
            <DistanceMeters>NAN</DistanceMeters>
          </Trackpoint>
          <Trackpoint>
            <Time>2022-07-11T16:21:45.000Z</Time>
            <Position>
              <LatitudeDegrees>43.29579136334359645843505859375</LatitudeDegrees>
              <LongitudeDegrees>-2.73749537765979766845703125</LongitudeDegrees>
            </Position>
            <AltitudeMeters>217.8000030517578125</AltitudeMeters>
            <DistanceMeters>NAN</DistanceMeters>
          </Trackpoint>
          <Trackpoint>
            <Time>2022-07-11T16:21:47.000Z</Time>
            <Position>
              <LatitudeDegrees>43.29576286487281322479248046875</LatitudeDegrees>
              <LongitudeDegrees>-2.7374911867082118988037109375</LongitudeDegrees>
            </Position>
            <AltitudeMeters>218</AltitudeMeters>
            <DistanceMeters>NAN</DistanceMeters>
          </Trackpoint>
          <Trackpoint>
            <Time>2022-07-11T16:21:52.000Z</Time>
            <Position>
              <LatitudeDegrees>43.29568927176296710968017578125</LatitudeDegrees>
              <LongitudeDegrees>-2.7374740876257419586181640625</LongitudeDegrees>
            </Position>
            <AltitudeMeters>218.399993896484375</AltitudeMeters>
            <DistanceMeters>NAN</DistanceMeters>
          </Trackpoint>
          <Trackpoint>
            <Time>2022-07-11T16:21:55.000Z</Time>
            <Position>
              <LatitudeDegrees>43.29563931562006473541259765625</LatitudeDegrees>
              <LongitudeDegrees>-2.7374496124684810638427734375</LongitudeDegrees>
            </Position>
            <AltitudeMeters>218.600006103515625</AltitudeMeters>
            <DistanceMeters>NAN</DistanceMeters>
          </Trackpoint>
          <Trackpoint>
            <Time>2022-07-11T16:21:59.000Z</Time>
            <Position>
              <LatitudeDegrees>43.2955921255052089691162109375</LatitudeDegrees>
              <LongitudeDegrees>-2.7374492771923542022705078125</LongitudeDegrees>
            </Position>
            <AltitudeMeters>218.8000030517578125</AltitudeMeters>
            <DistanceMeters>NAN</DistanceMeters>
          </Trackpoint>
          <Trackpoint>
            <Time>2022-07-11T16:22:03.000Z</Time>
            <Position>
              <LatitudeDegrees>43.29554937779903411865234375</LatitudeDegrees>
              <LongitudeDegrees>-2.73744550533592700958251953125</LongitudeDegrees>
            </Position>
            <AltitudeMeters>219</AltitudeMeters>
            <DistanceMeters>NAN</DistanceMeters>
          </Trackpoint>
          <Trackpoint>
            <Time>2022-07-11T16:22:10.000Z</Time>
            <Position>
              <LatitudeDegrees>43.2954647205770015716552734375</LatitudeDegrees>
              <LongitudeDegrees>-2.7374477684497833251953125</LongitudeDegrees>
            </Position>
            <AltitudeMeters>219.8000030517578125</AltitudeMeters>
            <DistanceMeters>NAN</DistanceMeters>
          </Trackpoint>
          <Trackpoint>
            <Time>2022-07-11T16:22:12.000Z</Time>
            <Position>
              <LatitudeDegrees>43.2954360544681549072265625</LatitudeDegrees>
              <LongitudeDegrees>-2.73745137266814708709716796875</LongitudeDegrees>
            </Position>
            <AltitudeMeters>220</AltitudeMeters>
            <DistanceMeters>NAN</DistanceMeters>
          </Trackpoint>
          <Trackpoint>
            <Time>2022-07-11T16:22:18.000Z</Time>
            <Position>
              <LatitudeDegrees>43.295369334518909454345703125</LatitudeDegrees>
              <LongitudeDegrees>-2.7374227903783321380615234375</LongitudeDegrees>
            </Position>
            <AltitudeMeters>220.600006103515625</AltitudeMeters>
            <DistanceMeters>NAN</DistanceMeters>
          </Trackpoint>
          <Trackpoint>
            <Time>2022-07-11T16:22:19.000Z</Time>
            <Position>
              <LatitudeDegrees>43.2953555881977081298828125</LatitudeDegrees>
              <LongitudeDegrees>-2.73742153309285640716552734375</LongitudeDegrees>
            </Position>
            <AltitudeMeters>220.8000030517578125</AltitudeMeters>
            <DistanceMeters>NAN</DistanceMeters>
          </Trackpoint>
          <Trackpoint>
            <Time>2022-07-11T16:22:20.000Z</Time>
            <Position>
              <LatitudeDegrees>43.29534477554261684417724609375</LatitudeDegrees>
              <LongitudeDegrees>-2.73741885088384151458740234375</LongitudeDegrees>
            </Position>
            <AltitudeMeters>221</AltitudeMeters>
            <DistanceMeters>NAN</DistanceMeters>
          </Trackpoint>
          <Trackpoint>
            <Time>2022-07-11T16:22:26.000Z</Time>
            <Position>
              <LatitudeDegrees>43.295283503830432891845703125</LatitudeDegrees>
              <LongitudeDegrees>-2.73744466714560985565185546875</LongitudeDegrees>
            </Position>
            <AltitudeMeters>221.600006103515625</AltitudeMeters>
            <DistanceMeters>NAN</DistanceMeters>
          </Trackpoint>
          <Trackpoint>
            <Time>2022-07-11T16:22:27.000Z</Time>
            <Position>
              <LatitudeDegrees>43.295274786651134490966796875</LatitudeDegrees>
              <LongitudeDegrees>-2.737452797591686248779296875</LongitudeDegrees>
            </Position>
            <AltitudeMeters>221.600006103515625</AltitudeMeters>
            <DistanceMeters>NAN</DistanceMeters>
          </Trackpoint>
          <Trackpoint>
            <Time>2022-07-11T16:22:29.000Z</Time>
            <Position>
              <LatitudeDegrees>43.295253999531269073486328125</LatitudeDegrees>
              <LongitudeDegrees>-2.7374646998941898345947265625</LongitudeDegrees>
            </Position>
            <AltitudeMeters>222</AltitudeMeters>
            <DistanceMeters>NAN</DistanceMeters>
          </Trackpoint>
          <Trackpoint>
            <Time>2022-07-11T16:22:34.000Z</Time>
            <Position>
              <LatitudeDegrees>43.295195661485195159912109375</LatitudeDegrees>
              <LongitudeDegrees>-2.7374874986708164215087890625</LongitudeDegrees>
            </Position>
            <AltitudeMeters>222.399993896484375</AltitudeMeters>
            <DistanceMeters>NAN</DistanceMeters>
          </Trackpoint>
          <Trackpoint>
            <Time>2022-07-11T16:22:39.000Z</Time>
            <Position>
              <LatitudeDegrees>43.29514763318002223968505859375</LatitudeDegrees>
              <LongitudeDegrees>-2.7375310845673084259033203125</LongitudeDegrees>
            </Position>
            <AltitudeMeters>223</AltitudeMeters>
            <DistanceMeters>NAN</DistanceMeters>
          </Trackpoint>
          <Trackpoint>
            <Time>2022-07-11T16:22:42.000Z</Time>
            <Position>
              <LatitudeDegrees>43.29512164928019046783447265625</LatitudeDegrees>
              <LongitudeDegrees>-2.7375649474561214447021484375</LongitudeDegrees>
            </Position>
            <AltitudeMeters>223.399993896484375</AltitudeMeters>
            <DistanceMeters>NAN</DistanceMeters>
          </Trackpoint>
          <Trackpoint>
            <Time>2022-07-11T16:22:45.000Z</Time>
            <Position>
              <LatitudeDegrees>43.295102454721927642822265625</LatitudeDegrees>
              <LongitudeDegrees>-2.73761062882840633392333984375</LongitudeDegrees>
            </Position>
            <AltitudeMeters>223.8000030517578125</AltitudeMeters>
            <DistanceMeters>NAN</DistanceMeters>
          </Trackpoint>
          <Trackpoint>
            <Time>2022-07-11T16:22:47.000Z</Time>
            <Position>
              <LatitudeDegrees>43.2950912229716777801513671875</LatitudeDegrees>
              <LongitudeDegrees>-2.7376360259950160980224609375</LongitudeDegrees>
            </Position>
            <AltitudeMeters>224</AltitudeMeters>
            <DistanceMeters>NAN</DistanceMeters>
          </Trackpoint>
          <Trackpoint>
            <Time>2022-07-11T16:22:48.000Z</Time>
            <Position>
              <LatitudeDegrees>43.29508326016366481781005859375</LatitudeDegrees>
              <LongitudeDegrees>-2.73764918558299541473388671875</LongitudeDegrees>
            </Position>
            <AltitudeMeters>224</AltitudeMeters>
            <DistanceMeters>NAN</DistanceMeters>
          </Trackpoint>
          <Trackpoint>
            <Time>2022-07-11T16:22:50.000Z</Time>
            <Position>
              <LatitudeDegrees>43.29506414942443370819091796875</LatitudeDegrees>
              <LongitudeDegrees>-2.7376752533018589019775390625</LongitudeDegrees>
            </Position>
            <AltitudeMeters>224.1999969482421875</AltitudeMeters>
            <DistanceMeters>NAN</DistanceMeters>
          </Trackpoint>
          <Trackpoint>
            <Time>2022-07-11T16:22:55.000Z</Time>
            <Position>
              <LatitudeDegrees>43.29504244029521942138671875</LatitudeDegrees>
              <LongitudeDegrees>-2.73774339817464351654052734375</LongitudeDegrees>
            </Position>
            <AltitudeMeters>224.600006103515625</AltitudeMeters>
            <DistanceMeters>NAN</DistanceMeters>
          </Trackpoint>
          <Trackpoint>
            <Time>2022-07-11T16:22:59.000Z</Time>
            <Position>
              <LatitudeDegrees>43.29501654021441936492919921875</LatitudeDegrees>
              <LongitudeDegrees>-2.73779167793691158294677734375</LongitudeDegrees>
            </Position>
            <AltitudeMeters>225.1999969482421875</AltitudeMeters>
            <DistanceMeters>NAN</DistanceMeters>
          </Trackpoint>
          <Trackpoint>
            <Time>2022-07-11T16:23:05.000Z</Time>
            <Position>
              <LatitudeDegrees>43.2949685119092464447021484375</LatitudeDegrees>
              <LongitudeDegrees>-2.73784540593624114990234375</LongitudeDegrees>
            </Position>
            <AltitudeMeters>225.600006103515625</AltitudeMeters>
            <DistanceMeters>NAN</DistanceMeters>
          </Trackpoint>
          <Trackpoint>
            <Time>2022-07-11T16:23:12.000Z</Time>
            <Position>
              <LatitudeDegrees>43.29491411335766315460205078125</LatitudeDegrees>
              <LongitudeDegrees>-2.73791707120835781097412109375</LongitudeDegrees>
            </Position>
            <AltitudeMeters>226.1999969482421875</AltitudeMeters>
            <DistanceMeters>NAN</DistanceMeters>
          </Trackpoint>
          <Trackpoint>
            <Time>2022-07-11T16:23:14.000Z</Time>
            <Position>
              <LatitudeDegrees>43.2949048094451427459716796875</LatitudeDegrees>
              <LongitudeDegrees>-2.7379478327929973602294921875</LongitudeDegrees>
            </Position>
            <AltitudeMeters>226.1999969482421875</AltitudeMeters>
            <DistanceMeters>NAN</DistanceMeters>
          </Trackpoint>
          <Trackpoint>
            <Time>2022-07-11T16:23:21.000Z</Time>
            <Position>
              <LatitudeDegrees>43.2948595471680164337158203125</LatitudeDegrees>
              <LongitudeDegrees>-2.7380339987576007843017578125</LongitudeDegrees>
            </Position>
            <AltitudeMeters>226.8000030517578125</AltitudeMeters>
            <DistanceMeters>NAN</DistanceMeters>
          </Trackpoint>
          <Trackpoint>
            <Time>2022-07-11T16:23:24.000Z</Time>
            <Position>
              <LatitudeDegrees>43.2948427833616733551025390625</LatitudeDegrees>
              <LongitudeDegrees>-2.7380648441612720489501953125</LongitudeDegrees>
            </Position>
            <AltitudeMeters>227</AltitudeMeters>
            <DistanceMeters>NAN</DistanceMeters>
          </Trackpoint>
          <Trackpoint>
            <Time>2022-07-11T16:23:27.000Z</Time>
            <Position>
              <LatitudeDegrees>43.2948191463947296142578125</LatitudeDegrees>
              <LongitudeDegrees>-2.73809040896594524383544921875</LongitudeDegrees>
            </Position>
            <AltitudeMeters>227.1999969482421875</AltitudeMeters>
            <DistanceMeters>NAN</DistanceMeters>
          </Trackpoint>
          <Trackpoint>
            <Time>2022-07-11T16:23:32.000Z</Time>
            <Position>
              <LatitudeDegrees>43.29478452913463115692138671875</LatitudeDegrees>
              <LongitudeDegrees>-2.73816148750483989715576171875</LongitudeDegrees>
            </Position>
            <AltitudeMeters>227.600006103515625</AltitudeMeters>
            <DistanceMeters>NAN</DistanceMeters>
          </Trackpoint>
          <Trackpoint>
            <Time>2022-07-11T16:23:34.000Z</Time>
            <Position>
              <LatitudeDegrees>43.29477153718471527099609375</LatitudeDegrees>
              <LongitudeDegrees>-2.7381934225559234619140625</LongitudeDegrees>
            </Position>
            <AltitudeMeters>227.8000030517578125</AltitudeMeters>
            <DistanceMeters>NAN</DistanceMeters>
          </Trackpoint>
          <Trackpoint>
            <Time>2022-07-11T16:23:38.000Z</Time>
            <Position>
              <LatitudeDegrees>43.29474337399005889892578125</LatitudeDegrees>
              <LongitudeDegrees>-2.73824396543204784393310546875</LongitudeDegrees>
            </Position>
            <AltitudeMeters>228.1999969482421875</AltitudeMeters>
            <DistanceMeters>NAN</DistanceMeters>
          </Trackpoint>
          <Trackpoint>
            <Time>2022-07-11T16:23:40.000Z</Time>
            <Position>
              <LatitudeDegrees>43.2947297953069210052490234375</LatitudeDegrees>
              <LongitudeDegrees>-2.7382690273225307464599609375</LongitudeDegrees>
            </Position>
            <AltitudeMeters>228.1999969482421875</AltitudeMeters>
            <DistanceMeters>NAN</DistanceMeters>
          </Trackpoint>
          <Trackpoint>
            <Time>2022-07-11T16:23:41.000Z</Time>
            <Position>
              <LatitudeDegrees>43.294722922146320343017578125</LatitudeDegrees>
              <LongitudeDegrees>-2.73827665485441684722900390625</LongitudeDegrees>
            </Position>
            <AltitudeMeters>228.399993896484375</AltitudeMeters>
            <DistanceMeters>NAN</DistanceMeters>
          </Trackpoint>
          <Trackpoint>
            <Time>2022-07-11T16:23:50.000Z</Time>
            <Position>
              <LatitudeDegrees>43.29461068846285343170166015625</LatitudeDegrees>
              <LongitudeDegrees>-2.7383169718086719512939453125</LongitudeDegrees>
            </Position>
            <AltitudeMeters>229</AltitudeMeters>
            <DistanceMeters>NAN</DistanceMeters>
          </Trackpoint>
          <Trackpoint>
            <Time>2022-07-11T16:23:54.000Z</Time>
            <Position>
              <LatitudeDegrees>43.29456408508121967315673828125</LatitudeDegrees>
              <LongitudeDegrees>-2.73831185884773731231689453125</LongitudeDegrees>
            </Position>
            <AltitudeMeters>229.1999969482421875</AltitudeMeters>
            <DistanceMeters>NAN</DistanceMeters>
          </Trackpoint>
          <Trackpoint>
            <Time>2022-07-11T16:23:58.000Z</Time>
            <Position>
              <LatitudeDegrees>43.29451194964349269866943359375</LatitudeDegrees>
              <LongitudeDegrees>-2.7383095957338809967041015625</LongitudeDegrees>
            </Position>
            <AltitudeMeters>229.600006103515625</AltitudeMeters>
            <DistanceMeters>NAN</DistanceMeters>
          </Trackpoint>
          <Trackpoint>
            <Time>2022-07-11T16:24:08.000Z</Time>
            <Position>
              <LatitudeDegrees>43.29439007677137851715087890625</LatitudeDegrees>
              <LongitudeDegrees>-2.7382452227175235748291015625</LongitudeDegrees>
            </Position>
            <AltitudeMeters>230</AltitudeMeters>
            <DistanceMeters>NAN</DistanceMeters>
          </Trackpoint>
          <Trackpoint>
            <Time>2022-07-11T16:24:09.000Z</Time>
            <Position>
              <LatitudeDegrees>43.2943750731647014617919921875</LatitudeDegrees>
              <LongitudeDegrees>-2.73823441006243228912353515625</LongitudeDegrees>
            </Position>
            <AltitudeMeters>230.1999969482421875</AltitudeMeters>
            <DistanceMeters>NAN</DistanceMeters>
          </Trackpoint>
          <Trackpoint>
            <Time>2022-07-11T16:24:11.000Z</Time>
            <Position>
              <LatitudeDegrees>43.29435436986386775970458984375</LatitudeDegrees>
              <LongitudeDegrees>-2.7382086776196956634521484375</LongitudeDegrees>
            </Position>
            <AltitudeMeters>230.1999969482421875</AltitudeMeters>
            <DistanceMeters>NAN</DistanceMeters>
          </Trackpoint>
          <Trackpoint>
            <Time>2022-07-11T16:24:15.000Z</Time>
            <Position>
              <LatitudeDegrees>43.29433341510593891143798828125</LatitudeDegrees>
              <LongitudeDegrees>-2.73818277753889560699462890625</LongitudeDegrees>
            </Position>
            <AltitudeMeters>230.399993896484375</AltitudeMeters>
            <DistanceMeters>NAN</DistanceMeters>
          </Trackpoint>
          <Trackpoint>
            <Time>2022-07-11T16:24:21.000Z</Time>
            <Position>
              <LatitudeDegrees>43.294275663793087005615234375</LatitudeDegrees>
              <LongitudeDegrees>-2.7380822785198688507080078125</LongitudeDegrees>
            </Position>
            <AltitudeMeters>230.8000030517578125</AltitudeMeters>
            <DistanceMeters>NAN</DistanceMeters>
          </Trackpoint>
          <Trackpoint>
            <Time>2022-07-11T16:24:26.000Z</Time>
            <Position>
              <LatitudeDegrees>43.2942272163927555084228515625</LatitudeDegrees>
              <LongitudeDegrees>-2.73800558410584926605224609375</LongitudeDegrees>
            </Position>
            <AltitudeMeters>231.1999969482421875</AltitudeMeters>
            <DistanceMeters>NAN</DistanceMeters>
          </Trackpoint>
          <Trackpoint>
            <Time>2022-07-11T16:24:27.000Z</Time>
            <Position>
              <LatitudeDegrees>43.2942195050418376922607421875</LatitudeDegrees>
              <LongitudeDegrees>-2.7379949390888214111328125</LongitudeDegrees>
            </Position>
            <AltitudeMeters>231.1999969482421875</AltitudeMeters>
            <DistanceMeters>NAN</DistanceMeters>
          </Trackpoint>
          <Trackpoint>
            <Time>2022-07-11T16:24:30.000Z</Time>
            <Position>
              <LatitudeDegrees>43.2941913418471813201904296875</LatitudeDegrees>
              <LongitudeDegrees>-2.7379488386213779449462890625</LongitudeDegrees>
            </Position>
            <AltitudeMeters>231.399993896484375</AltitudeMeters>
            <DistanceMeters>NAN</DistanceMeters>
          </Trackpoint>
          <Trackpoint>
            <Time>2022-07-11T16:24:37.000Z</Time>
            <Position>
              <LatitudeDegrees>43.29414649866521358489990234375</LatitudeDegrees>
              <LongitudeDegrees>-2.7378371916711330413818359375</LongitudeDegrees>
            </Position>
            <AltitudeMeters>232</AltitudeMeters>
            <DistanceMeters>NAN</DistanceMeters>
          </Trackpoint>
          <Trackpoint>
            <Time>2022-07-11T16:24:39.000Z</Time>
            <Position>
              <LatitudeDegrees>43.29412889666855335235595703125</LatitudeDegrees>
              <LongitudeDegrees>-2.73780073039233684539794921875</LongitudeDegrees>
            </Position>
            <AltitudeMeters>232</AltitudeMeters>
            <DistanceMeters>NAN</DistanceMeters>
          </Trackpoint>
          <Trackpoint>
            <Time>2022-07-11T16:24:44.000Z</Time>
            <Position>
              <LatitudeDegrees>43.29408380202949047088623046875</LatitudeDegrees>
              <LongitudeDegrees>-2.7377278916537761688232421875</LongitudeDegrees>
            </Position>
            <AltitudeMeters>232.399993896484375</AltitudeMeters>
            <DistanceMeters>NAN</DistanceMeters>
          </Trackpoint>
          <Trackpoint>
            <Time>2022-07-11T16:24:49.000Z</Time>
            <Position>
              <LatitudeDegrees>43.29404038377106189727783203125</LatitudeDegrees>
              <LongitudeDegrees>-2.7376548014581203460693359375</LongitudeDegrees>
            </Position>
            <AltitudeMeters>232.600006103515625</AltitudeMeters>
            <DistanceMeters>NAN</DistanceMeters>
          </Trackpoint>
          <Trackpoint>
            <Time>2022-07-11T16:24:58.000Z</Time>
            <Position>
              <LatitudeDegrees>43.29398657195270061492919921875</LatitudeDegrees>
              <LongitudeDegrees>-2.73756503127515316009521484375</LongitudeDegrees>
            </Position>
            <AltitudeMeters>233.1999969482421875</AltitudeMeters>
            <DistanceMeters>NAN</DistanceMeters>
          </Trackpoint>
          <Trackpoint>
            <Time>2022-07-11T16:24:59.000Z</Time>
            <Position>
              <LatitudeDegrees>43.29398657195270061492919921875</LatitudeDegrees>
              <LongitudeDegrees>-2.73756503127515316009521484375</LongitudeDegrees>
            </Position>
            <AltitudeMeters>233.1999969482421875</AltitudeMeters>
            <DistanceMeters>NAN</DistanceMeters>
          </Trackpoint>
          <Trackpoint>
            <Time>2022-07-11T16:25:36.000Z</Time>
            <Position>
              <LatitudeDegrees>43.2939781062304973602294921875</LatitudeDegrees>
              <LongitudeDegrees>-2.7375404722988605499267578125</LongitudeDegrees>
            </Position>
            <AltitudeMeters>233.1999969482421875</AltitudeMeters>
            <DistanceMeters>NAN</DistanceMeters>
          </Trackpoint>
          <Trackpoint>
            <Time>2022-07-11T16:25:37.000Z</Time>
            <Position>
              <LatitudeDegrees>43.2939662039279937744140625</LatitudeDegrees>
              <LongitudeDegrees>-2.73752312175929546356201171875</LongitudeDegrees>
            </Position>
            <AltitudeMeters>233</AltitudeMeters>
            <DistanceMeters>NAN</DistanceMeters>
          </Trackpoint>
          <Trackpoint>
            <Time>2022-07-11T16:25:38.000Z</Time>
            <Position>
              <LatitudeDegrees>43.2939554750919342041015625</LatitudeDegrees>
              <LongitudeDegrees>-2.737508118152618408203125</LongitudeDegrees>
            </Position>
            <AltitudeMeters>233</AltitudeMeters>
            <DistanceMeters>NAN</DistanceMeters>
          </Trackpoint>
          <Trackpoint>
            <Time>2022-07-11T16:25:45.000Z</Time>
            <Position>
              <LatitudeDegrees>43.29389311373233795166015625</LatitudeDegrees>
              <LongitudeDegrees>-2.73737895302474498748779296875</LongitudeDegrees>
            </Position>
            <AltitudeMeters>233.399993896484375</AltitudeMeters>
            <DistanceMeters>NAN</DistanceMeters>
          </Trackpoint>
          <Trackpoint>
            <Time>2022-07-11T16:25:46.000Z</Time>
            <Position>
              <LatitudeDegrees>43.29388380981981754302978515625</LatitudeDegrees>
              <LongitudeDegrees>-2.7373604290187358856201171875</LongitudeDegrees>
            </Position>
            <AltitudeMeters>233.600006103515625</AltitudeMeters>
            <DistanceMeters>NAN</DistanceMeters>
          </Trackpoint>
          <Trackpoint>
            <Time>2022-07-11T16:25:49.000Z</Time>
            <Position>
              <LatitudeDegrees>43.29386151395738124847412109375</LatitudeDegrees>
              <LongitudeDegrees>-2.73730552755296230316162109375</LongitudeDegrees>
            </Position>
            <AltitudeMeters>234.600006103515625</AltitudeMeters>
            <DistanceMeters>NAN</DistanceMeters>
          </Trackpoint>
          <Trackpoint>
            <Time>2022-07-11T16:25:51.000Z</Time>
            <Position>
              <LatitudeDegrees>43.2938463427126407623291015625</LatitudeDegrees>
              <LongitudeDegrees>-2.73728105239570140838623046875</LongitudeDegrees>
            </Position>
            <AltitudeMeters>234.8000030517578125</AltitudeMeters>
            <DistanceMeters>NAN</DistanceMeters>
          </Trackpoint>
          <Trackpoint>
            <Time>2022-07-11T16:25:54.000Z</Time>
            <Position>
              <LatitudeDegrees>43.293826393783092498779296875</LatitudeDegrees>
              <LongitudeDegrees>-2.7372595109045505523681640625</LongitudeDegrees>
            </Position>
            <AltitudeMeters>235</AltitudeMeters>
            <DistanceMeters>NAN</DistanceMeters>
          </Trackpoint>
          <Trackpoint>
            <Time>2022-07-11T16:25:56.000Z</Time>
            <Position>
              <LatitudeDegrees>43.29381675459444522857666015625</LatitudeDegrees>
              <LongitudeDegrees>-2.73723394609987735748291015625</LongitudeDegrees>
            </Position>
            <AltitudeMeters>235.1999969482421875</AltitudeMeters>
            <DistanceMeters>NAN</DistanceMeters>
          </Trackpoint>
          <Trackpoint>
            <Time>2022-07-11T16:25:58.000Z</Time>
            <Position>
              <LatitudeDegrees>43.293808959424495697021484375</LatitudeDegrees>
              <LongitudeDegrees>-2.73720494471490383148193359375</LongitudeDegrees>
            </Position>
            <AltitudeMeters>235.399993896484375</AltitudeMeters>
            <DistanceMeters>NAN</DistanceMeters>
          </Trackpoint>
          <Trackpoint>
            <Time>2022-07-11T16:26:01.000Z</Time>
            <Position>
              <LatitudeDegrees>43.293780125677585601806640625</LatitudeDegrees>
              <LongitudeDegrees>-2.73717946372926235198974609375</LongitudeDegrees>
            </Position>
            <AltitudeMeters>235.600006103515625</AltitudeMeters>
            <DistanceMeters>NAN</DistanceMeters>
          </Trackpoint>
          <Trackpoint>
            <Time>2022-07-11T16:26:02.000Z</Time>
            <Position>
              <LatitudeDegrees>43.29376763664186000823974609375</LatitudeDegrees>
              <LongitudeDegrees>-2.7371753565967082977294921875</LongitudeDegrees>
            </Position>
            <AltitudeMeters>235.600006103515625</AltitudeMeters>
            <DistanceMeters>NAN</DistanceMeters>
          </Trackpoint>
          <Trackpoint>
            <Time>2022-07-11T16:26:04.000Z</Time>
            <Position>
              <LatitudeDegrees>43.2937403954565525054931640625</LatitudeDegrees>
              <LongitudeDegrees>-2.73716756142675876617431640625</LongitudeDegrees>
            </Position>
            <AltitudeMeters>235.600006103515625</AltitudeMeters>
            <DistanceMeters>NAN</DistanceMeters>
          </Trackpoint>
          <Trackpoint>
            <Time>2022-07-11T16:26:10.000Z</Time>
            <Position>
              <LatitudeDegrees>43.2936505414545536041259765625</LatitudeDegrees>
              <LongitudeDegrees>-2.73713596165180206298828125</LongitudeDegrees>
            </Position>
            <AltitudeMeters>236</AltitudeMeters>
            <DistanceMeters>NAN</DistanceMeters>
          </Trackpoint>
          <Trackpoint>
            <Time>2022-07-11T16:26:11.000Z</Time>
            <Position>
              <LatitudeDegrees>43.293639980256557464599609375</LatitudeDegrees>
              <LongitudeDegrees>-2.73713587783277034759521484375</LongitudeDegrees>
            </Position>
            <AltitudeMeters>236</AltitudeMeters>
            <DistanceMeters>NAN</DistanceMeters>
          </Trackpoint>
          <Trackpoint>
            <Time>2022-07-11T16:26:19.000Z</Time>
            <Position>
              <LatitudeDegrees>43.29354534856975078582763671875</LatitudeDegrees>
              <LongitudeDegrees>-2.73711383342742919921875</LongitudeDegrees>
            </Position>
            <AltitudeMeters>236.399993896484375</AltitudeMeters>
            <DistanceMeters>NAN</DistanceMeters>
          </Trackpoint>
          <Trackpoint>
            <Time>2022-07-11T16:26:24.000Z</Time>
            <Position>
              <LatitudeDegrees>43.293499164283275604248046875</LatitudeDegrees>
              <LongitudeDegrees>-2.7370856702327728271484375</LongitudeDegrees>
            </Position>
            <AltitudeMeters>236.8000030517578125</AltitudeMeters>
            <DistanceMeters>NAN</DistanceMeters>
          </Trackpoint>
          <Trackpoint>
            <Time>2022-07-11T16:26:26.000Z</Time>
            <Position>
              <LatitudeDegrees>43.2934808917343616485595703125</LatitudeDegrees>
              <LongitudeDegrees>-2.73707670159637928009033203125</LongitudeDegrees>
            </Position>
            <AltitudeMeters>237</AltitudeMeters>
            <DistanceMeters>NAN</DistanceMeters>
          </Trackpoint>
          <Trackpoint>
            <Time>2022-07-11T16:26:34.000Z</Time>
            <Position>
              <LatitudeDegrees>43.293396569788455963134765625</LatitudeDegrees>
              <LongitudeDegrees>-2.73705775849521160125732421875</LongitudeDegrees>
            </Position>
            <AltitudeMeters>237.600006103515625</AltitudeMeters>
            <DistanceMeters>NAN</DistanceMeters>
          </Trackpoint>
          <Trackpoint>
            <Time>2022-07-11T16:26:36.000Z</Time>
            <Position>
              <LatitudeDegrees>43.29337787814438343048095703125</LatitudeDegrees>
              <LongitudeDegrees>-2.7370586805045604705810546875</LongitudeDegrees>
            </Position>
            <AltitudeMeters>237.8000030517578125</AltitudeMeters>
            <DistanceMeters>NAN</DistanceMeters>
          </Trackpoint>
          <Trackpoint>
            <Time>2022-07-11T16:26:43.000Z</Time>
            <Position>
              <LatitudeDegrees>43.293280899524688720703125</LatitudeDegrees>
              <LongitudeDegrees>-2.7370140887796878814697265625</LongitudeDegrees>
            </Position>
            <AltitudeMeters>238.399993896484375</AltitudeMeters>
            <DistanceMeters>NAN</DistanceMeters>
          </Trackpoint>
          <Trackpoint>
            <Time>2022-07-11T16:26:46.000Z</Time>
            <Position>
              <LatitudeDegrees>43.293229602277278900146484375</LatitudeDegrees>
              <LongitudeDegrees>-2.7369778789579868316650390625</LongitudeDegrees>
            </Position>
            <AltitudeMeters>238.8000030517578125</AltitudeMeters>
            <DistanceMeters>NAN</DistanceMeters>
          </Trackpoint>
          <Trackpoint>
            <Time>2022-07-11T16:26:47.000Z</Time>
            <Position>
              <LatitudeDegrees>43.293218873441219329833984375</LatitudeDegrees>
              <LongitudeDegrees>-2.73697477765381336212158203125</LongitudeDegrees>
            </Position>
            <AltitudeMeters>238.8000030517578125</AltitudeMeters>
            <DistanceMeters>NAN</DistanceMeters>
          </Trackpoint>
          <Trackpoint>
            <Time>2022-07-11T16:26:51.000Z</Time>
            <Position>
              <LatitudeDegrees>43.29318593256175518035888671875</LatitudeDegrees>
              <LongitudeDegrees>-2.7369453571736812591552734375</LongitudeDegrees>
            </Position>
            <AltitudeMeters>239.1999969482421875</AltitudeMeters>
            <DistanceMeters>NAN</DistanceMeters>
          </Trackpoint>
          <Trackpoint>
            <Time>2022-07-11T16:26:54.000Z</Time>
            <Position>
              <LatitudeDegrees>43.29315743409097194671630859375</LatitudeDegrees>
              <LongitudeDegrees>-2.7369078062474727630615234375</LongitudeDegrees>
            </Position>
            <AltitudeMeters>239.399993896484375</AltitudeMeters>
            <DistanceMeters>NAN</DistanceMeters>
          </Trackpoint>
          <Trackpoint>
            <Time>2022-07-11T16:26:56.000Z</Time>
            <Position>
              <LatitudeDegrees>43.2931479625403881072998046875</LatitudeDegrees>
              <LongitudeDegrees>-2.7368809841573238372802734375</LongitudeDegrees>
            </Position>
            <AltitudeMeters>239.600006103515625</AltitudeMeters>
            <DistanceMeters>NAN</DistanceMeters>
          </Trackpoint>
          <Trackpoint>
            <Time>2022-07-11T16:27:00.000Z</Time>
            <Position>
              <LatitudeDegrees>43.29311585985124111175537109375</LatitudeDegrees>
              <LongitudeDegrees>-2.736844606697559356689453125</LongitudeDegrees>
            </Position>
            <AltitudeMeters>239.8000030517578125</AltitudeMeters>
            <DistanceMeters>NAN</DistanceMeters>
          </Trackpoint>
          <Trackpoint>
            <Time>2022-07-11T16:27:01.000Z</Time>
            <Position>
              <LatitudeDegrees>43.29310529865324497222900390625</LatitudeDegrees>
              <LongitudeDegrees>-2.736831195652484893798828125</LongitudeDegrees>
            </Position>
            <AltitudeMeters>240</AltitudeMeters>
            <DistanceMeters>NAN</DistanceMeters>
          </Trackpoint>
          <Trackpoint>
            <Time>2022-07-11T16:27:08.000Z</Time>
            <Position>
              <LatitudeDegrees>43.2930416800081729888916015625</LatitudeDegrees>
              <LongitudeDegrees>-2.73672717623412609100341796875</LongitudeDegrees>
            </Position>
            <AltitudeMeters>240.1999969482421875</AltitudeMeters>
            <DistanceMeters>NAN</DistanceMeters>
          </Trackpoint>
          <Trackpoint>
            <Time>2022-07-11T16:27:16.000Z</Time>
            <Position>
              <LatitudeDegrees>43.292964063584804534912109375</LatitudeDegrees>
              <LongitudeDegrees>-2.73657747544348239898681640625</LongitudeDegrees>
            </Position>
            <AltitudeMeters>241</AltitudeMeters>
            <DistanceMeters>NAN</DistanceMeters>
          </Trackpoint>
          <Trackpoint>
            <Time>2022-07-11T16:27:18.000Z</Time>
            <Position>
              <LatitudeDegrees>43.2929441146552562713623046875</LatitudeDegrees>
              <LongitudeDegrees>-2.73654679767787456512451171875</LongitudeDegrees>
            </Position>
            <AltitudeMeters>241</AltitudeMeters>
            <DistanceMeters>NAN</DistanceMeters>
          </Trackpoint>
          <Trackpoint>
            <Time>2022-07-11T16:27:22.000Z</Time>
            <Position>
              <LatitudeDegrees>43.29290966503322124481201171875</LatitudeDegrees>
              <LongitudeDegrees>-2.7364746294915676116943359375</LongitudeDegrees>
            </Position>
            <AltitudeMeters>241</AltitudeMeters>
            <DistanceMeters>NAN</DistanceMeters>
          </Trackpoint>
          <Trackpoint>
            <Time>2022-07-11T16:27:27.000Z</Time>
            <Position>
              <LatitudeDegrees>43.29285719431936740875244140625</LatitudeDegrees>
              <LongitudeDegrees>-2.73638016544282436370849609375</LongitudeDegrees>
            </Position>
            <AltitudeMeters>241.399993896484375</AltitudeMeters>
            <DistanceMeters>NAN</DistanceMeters>
          </Trackpoint>
          <Trackpoint>
            <Time>2022-07-11T16:27:32.000Z</Time>
            <Position>
              <LatitudeDegrees>43.29280321486294269561767578125</LatitudeDegrees>
              <LongitudeDegrees>-2.736303806304931640625</LongitudeDegrees>
            </Position>
            <AltitudeMeters>241.600006103515625</AltitudeMeters>
            <DistanceMeters>NAN</DistanceMeters>
          </Trackpoint>
          <Trackpoint>
            <Time>2022-07-11T16:27:39.000Z</Time>
            <Position>
              <LatitudeDegrees>43.2927151210606098175048828125</LatitudeDegrees>
              <LongitudeDegrees>-2.7361815981566905975341796875</LongitudeDegrees>
            </Position>
            <AltitudeMeters>242</AltitudeMeters>
            <DistanceMeters>NAN</DistanceMeters>
          </Trackpoint>
          <Trackpoint>
            <Time>2022-07-11T16:27:49.000Z</Time>
            <Position>
              <LatitudeDegrees>43.29259249381721019744873046875</LatitudeDegrees>
              <LongitudeDegrees>-2.7360230125486850738525390625</LongitudeDegrees>
            </Position>
            <AltitudeMeters>242.8000030517578125</AltitudeMeters>
            <DistanceMeters>NAN</DistanceMeters>
          </Trackpoint>
          <Trackpoint>
            <Time>2022-07-11T16:27:53.000Z</Time>
            <Position>
              <LatitudeDegrees>43.29254035837948322296142578125</LatitudeDegrees>
              <LongitudeDegrees>-2.73596517741680145263671875</LongitudeDegrees>
            </Position>
            <AltitudeMeters>243</AltitudeMeters>
            <DistanceMeters>NAN</DistanceMeters>
          </Trackpoint>
          <Trackpoint>
            <Time>2022-07-11T16:27:58.000Z</Time>
            <Position>
              <LatitudeDegrees>43.29247950576245784759521484375</LatitudeDegrees>
              <LongitudeDegrees>-2.73590147495269775390625</LongitudeDegrees>
            </Position>
            <AltitudeMeters>243.1999969482421875</AltitudeMeters>
            <DistanceMeters>NAN</DistanceMeters>
          </Trackpoint>
          <Trackpoint>
            <Time>2022-07-11T16:28:07.000Z</Time>
            <Position>
              <LatitudeDegrees>43.2923764921724796295166015625</LatitudeDegrees>
              <LongitudeDegrees>-2.73578706197440624237060546875</LongitudeDegrees>
            </Position>
            <AltitudeMeters>243.8000030517578125</AltitudeMeters>
            <DistanceMeters>NAN</DistanceMeters>
          </Trackpoint>
          <Trackpoint>
            <Time>2022-07-11T16:28:11.000Z</Time>
            <Position>
              <LatitudeDegrees>43.2923245243728160858154296875</LatitudeDegrees>
              <LongitudeDegrees>-2.73573945276439189910888671875</LongitudeDegrees>
            </Position>
            <AltitudeMeters>244</AltitudeMeters>
            <DistanceMeters>NAN</DistanceMeters>
          </Trackpoint>
          <Trackpoint>
            <Time>2022-07-11T16:28:15.000Z</Time>
            <Position>
              <LatitudeDegrees>43.2922658510506153106689453125</LatitudeDegrees>
              <LongitudeDegrees>-2.73567994125187397003173828125</LongitudeDegrees>
            </Position>
            <AltitudeMeters>244.399993896484375</AltitudeMeters>
            <DistanceMeters>NAN</DistanceMeters>
          </Trackpoint>
          <Trackpoint>
            <Time>2022-07-11T16:28:22.000Z</Time>
            <Position>
              <LatitudeDegrees>43.29214741475880146026611328125</LatitudeDegrees>
              <LongitudeDegrees>-2.73561540059745311737060546875</LongitudeDegrees>
            </Position>
            <AltitudeMeters>244.8000030517578125</AltitudeMeters>
            <DistanceMeters>NAN</DistanceMeters>
          </Trackpoint>
          <Trackpoint>
            <Time>2022-07-11T16:28:25.000Z</Time>
            <Position>
              <LatitudeDegrees>43.2920951955020427703857421875</LatitudeDegrees>
              <LongitudeDegrees>-2.73558338172733783721923828125</LongitudeDegrees>
            </Position>
            <AltitudeMeters>244.8000030517578125</AltitudeMeters>
            <DistanceMeters>NAN</DistanceMeters>
          </Trackpoint>
          <Trackpoint>
            <Time>2022-07-11T16:28:31.000Z</Time>
            <Position>
              <LatitudeDegrees>43.291985057294368743896484375</LatitudeDegrees>
              <LongitudeDegrees>-2.735524959862232208251953125</LongitudeDegrees>
            </Position>
            <AltitudeMeters>245</AltitudeMeters>
            <DistanceMeters>NAN</DistanceMeters>
          </Trackpoint>
          <Trackpoint>
            <Time>2022-07-11T16:28:35.000Z</Time>
            <Position>
              <LatitudeDegrees>43.29191766679286956787109375</LatitudeDegrees>
              <LongitudeDegrees>-2.73548598401248455047607421875</LongitudeDegrees>
            </Position>
            <AltitudeMeters>245.1999969482421875</AltitudeMeters>
            <DistanceMeters>NAN</DistanceMeters>
          </Trackpoint>
          <Trackpoint>
            <Time>2022-07-11T16:28:38.000Z</Time>
            <Position>
              <LatitudeDegrees>43.29186712391674518585205078125</LatitudeDegrees>
              <LongitudeDegrees>-2.7354560606181621551513671875</LongitudeDegrees>
            </Position>
            <AltitudeMeters>245.399993896484375</AltitudeMeters>
            <DistanceMeters>NAN</DistanceMeters>
          </Trackpoint>
          <Trackpoint>
            <Time>2022-07-11T16:28:42.000Z</Time>
            <Position>
              <LatitudeDegrees>43.2918115518987178802490234375</LatitudeDegrees>
              <LongitudeDegrees>-2.73542982526123523712158203125</LongitudeDegrees>
            </Position>
            <AltitudeMeters>245.600006103515625</AltitudeMeters>
            <DistanceMeters>NAN</DistanceMeters>
          </Trackpoint>
          <Trackpoint>
            <Time>2022-07-11T16:28:52.000Z</Time>
            <Position>
              <LatitudeDegrees>43.291646428406238555908203125</LatitudeDegrees>
              <LongitudeDegrees>-2.7353529632091522216796875</LongitudeDegrees>
            </Position>
            <AltitudeMeters>246</AltitudeMeters>
            <DistanceMeters>NAN</DistanceMeters>
          </Trackpoint>
          <Trackpoint>
            <Time>2022-07-11T16:28:54.000Z</Time>
            <Position>
              <LatitudeDegrees>43.29161633737385272979736328125</LatitudeDegrees>
              <LongitudeDegrees>-2.7353368699550628662109375</LongitudeDegrees>
            </Position>
            <AltitudeMeters>246.1999969482421875</AltitudeMeters>
            <DistanceMeters>NAN</DistanceMeters>
          </Trackpoint>
          <Trackpoint>
            <Time>2022-07-11T16:28:58.000Z</Time>
            <Position>
              <LatitudeDegrees>43.29156185500323772430419921875</LatitudeDegrees>
              <LongitudeDegrees>-2.735315077006816864013671875</LongitudeDegrees>
            </Position>
            <AltitudeMeters>246.1999969482421875</AltitudeMeters>
            <DistanceMeters>NAN</DistanceMeters>
          </Trackpoint>
          <Trackpoint>
            <Time>2022-07-11T16:29:08.000Z</Time>
            <Position>
              <LatitudeDegrees>43.291359432041645050048828125</LatitudeDegrees>
              <LongitudeDegrees>-2.7352874167263507843017578125</LongitudeDegrees>
            </Position>
            <AltitudeMeters>246.600006103515625</AltitudeMeters>
            <DistanceMeters>NAN</DistanceMeters>
          </Trackpoint>
          <Trackpoint>
            <Time>2022-07-11T16:29:17.000Z</Time>
            <Position>
              <LatitudeDegrees>43.2912036962807178497314453125</LatitudeDegrees>
              <LongitudeDegrees>-2.7352468483150005340576171875</LongitudeDegrees>
            </Position>
            <AltitudeMeters>247</AltitudeMeters>
            <DistanceMeters>NAN</DistanceMeters>
          </Trackpoint>
          <Trackpoint>
            <Time>2022-07-11T16:29:21.000Z</Time>
            <Position>
              <LatitudeDegrees>43.29112800769507884979248046875</LatitudeDegrees>
              <LongitudeDegrees>-2.73522379808127880096435546875</LongitudeDegrees>
            </Position>
            <AltitudeMeters>247</AltitudeMeters>
            <DistanceMeters>NAN</DistanceMeters>
          </Trackpoint>
          <Trackpoint>
            <Time>2022-07-11T16:29:25.000Z</Time>
            <Position>
              <LatitudeDegrees>43.2910327054560184478759765625</LatitudeDegrees>
              <LongitudeDegrees>-2.735205776989459991455078125</LongitudeDegrees>
            </Position>
            <AltitudeMeters>247.1999969482421875</AltitudeMeters>
            <DistanceMeters>NAN</DistanceMeters>
          </Trackpoint>
          <Trackpoint>
            <Time>2022-07-11T16:29:29.000Z</Time>
            <Position>
              <LatitudeDegrees>43.29094293527305126190185546875</LatitudeDegrees>
              <LongitudeDegrees>-2.73521457798779010772705078125</LongitudeDegrees>
            </Position>
            <AltitudeMeters>247.1999969482421875</AltitudeMeters>
            <DistanceMeters>NAN</DistanceMeters>
          </Trackpoint>
          <Trackpoint>
            <Time>2022-07-11T16:29:37.000Z</Time>
            <Position>
              <LatitudeDegrees>43.2907721959054470062255859375</LatitudeDegrees>
              <LongitudeDegrees>-2.73516797460615634918212890625</LongitudeDegrees>
            </Position>
            <AltitudeMeters>247.1999969482421875</AltitudeMeters>
            <DistanceMeters>NAN</DistanceMeters>
          </Trackpoint>
          <Trackpoint>
            <Time>2022-07-11T16:29:44.000Z</Time>
            <Position>
              <LatitudeDegrees>43.290582261979579925537109375</LatitudeDegrees>
              <LongitudeDegrees>-2.7351234667003154754638671875</LongitudeDegrees>
            </Position>
            <AltitudeMeters>247.399993896484375</AltitudeMeters>
            <DistanceMeters>NAN</DistanceMeters>
          </Trackpoint>
          <Trackpoint>
            <Time>2022-07-11T16:29:46.000Z</Time>
            <Position>
              <LatitudeDegrees>43.29053272493183612823486328125</LatitudeDegrees>
              <LongitudeDegrees>-2.73512287996709346771240234375</LongitudeDegrees>
            </Position>
            <AltitudeMeters>247.399993896484375</AltitudeMeters>
            <DistanceMeters>NAN</DistanceMeters>
          </Trackpoint>
          <Trackpoint>
            <Time>2022-07-11T16:29:51.000Z</Time>
            <Position>
              <LatitudeDegrees>43.29039291478693485260009765625</LatitudeDegrees>
              <LongitudeDegrees>-2.735129334032535552978515625</LongitudeDegrees>
            </Position>
            <AltitudeMeters>247.399993896484375</AltitudeMeters>
            <DistanceMeters>NAN</DistanceMeters>
          </Trackpoint>
          <Trackpoint>
            <Time>2022-07-11T16:29:55.000Z</Time>
            <Position>
              <LatitudeDegrees>43.290287554264068603515625</LatitudeDegrees>
              <LongitudeDegrees>-2.73511198349297046661376953125</LongitudeDegrees>
            </Position>
            <AltitudeMeters>247.600006103515625</AltitudeMeters>
            <DistanceMeters>NAN</DistanceMeters>
          </Trackpoint>
          <Trackpoint>
            <Time>2022-07-11T16:30:01.000Z</Time>
            <Position>
              <LatitudeDegrees>43.29016459174454212188720703125</LatitudeDegrees>
              <LongitudeDegrees>-2.73500570096075534820556640625</LongitudeDegrees>
            </Position>
            <AltitudeMeters>248</AltitudeMeters>
            <DistanceMeters>NAN</DistanceMeters>
          </Trackpoint>
          <Trackpoint>
            <Time>2022-07-11T16:30:07.000Z</Time>
            <Position>
              <LatitudeDegrees>43.2900144718587398529052734375</LatitudeDegrees>
              <LongitudeDegrees>-2.734842337667942047119140625</LongitudeDegrees>
            </Position>
            <AltitudeMeters>247.399993896484375</AltitudeMeters>
            <DistanceMeters>NAN</DistanceMeters>
          </Trackpoint>
          <Trackpoint>
            <Time>2022-07-11T16:30:09.000Z</Time>
            <Position>
              <LatitudeDegrees>43.28994624316692352294921875</LatitudeDegrees>
              <LongitudeDegrees>-2.73476027883589267730712890625</LongitudeDegrees>
            </Position>
            <AltitudeMeters>247.399993896484375</AltitudeMeters>
            <DistanceMeters>NAN</DistanceMeters>
          </Trackpoint>
          <Trackpoint>
            <Time>2022-07-11T16:30:14.000Z</Time>
            <Position>
              <LatitudeDegrees>43.2897817902266979217529296875</LatitudeDegrees>
              <LongitudeDegrees>-2.73454519920051097869873046875</LongitudeDegrees>
            </Position>
            <AltitudeMeters>247.1999969482421875</AltitudeMeters>
            <DistanceMeters>NAN</DistanceMeters>
          </Trackpoint>
          <Trackpoint>
            <Time>2022-07-11T16:30:24.000Z</Time>
            <Position>
              <LatitudeDegrees>43.2894160039722919464111328125</LatitudeDegrees>
              <LongitudeDegrees>-2.7340787462890148162841796875</LongitudeDegrees>
            </Position>
            <AltitudeMeters>246.1999969482421875</AltitudeMeters>
            <DistanceMeters>NAN</DistanceMeters>
          </Trackpoint>
          <Trackpoint>
            <Time>2022-07-11T16:30:28.000Z</Time>
            <Position>
              <LatitudeDegrees>43.2892669737339019775390625</LatitudeDegrees>
              <LongitudeDegrees>-2.73390800692141056060791015625</LongitudeDegrees>
            </Position>
            <AltitudeMeters>246</AltitudeMeters>
            <DistanceMeters>NAN</DistanceMeters>
          </Trackpoint>
          <Trackpoint>
            <Time>2022-07-11T16:30:31.000Z</Time>
            <Position>
              <LatitudeDegrees>43.28918441198766231536865234375</LatitudeDegrees>
              <LongitudeDegrees>-2.73381329141557216644287109375</LongitudeDegrees>
            </Position>
            <AltitudeMeters>246</AltitudeMeters>
            <DistanceMeters>NAN</DistanceMeters>
          </Trackpoint>
          <Trackpoint>
            <Time>2022-07-11T16:30:36.000Z</Time>
            <Position>
              <LatitudeDegrees>43.28907678835093975067138671875</LatitudeDegrees>
              <LongitudeDegrees>-2.73366744630038738250732421875</LongitudeDegrees>
            </Position>
            <AltitudeMeters>246.399993896484375</AltitudeMeters>
            <DistanceMeters>NAN</DistanceMeters>
          </Trackpoint>
          <Trackpoint>
            <Time>2022-07-11T16:30:37.000Z</Time>
            <Position>
              <LatitudeDegrees>43.2890577614307403564453125</LatitudeDegrees>
              <LongitudeDegrees>-2.7336331643164157867431640625</LongitudeDegrees>
            </Position>
            <AltitudeMeters>246.600006103515625</AltitudeMeters>
            <DistanceMeters>NAN</DistanceMeters>
          </Trackpoint>
          <Trackpoint>
            <Time>2022-07-11T16:30:38.000Z</Time>
            <Position>
              <LatitudeDegrees>43.28904225490987300872802734375</LatitudeDegrees>
              <LongitudeDegrees>-2.73361095227301120758056640625</LongitudeDegrees>
            </Position>
            <AltitudeMeters>246.600006103515625</AltitudeMeters>
            <DistanceMeters>NAN</DistanceMeters>
          </Trackpoint>
          <Trackpoint>
            <Time>2022-07-11T16:30:40.000Z</Time>
            <Position>
              <LatitudeDegrees>43.28901325352489948272705078125</LatitudeDegrees>
              <LongitudeDegrees>-2.73356736637651920318603515625</LongitudeDegrees>
            </Position>
            <AltitudeMeters>246.8000030517578125</AltitudeMeters>
            <DistanceMeters>NAN</DistanceMeters>
          </Trackpoint>
          <Trackpoint>
            <Time>2022-07-11T16:30:42.000Z</Time>
            <Position>
              <LatitudeDegrees>43.2889912091195583343505859375</LatitudeDegrees>
              <LongitudeDegrees>-2.73353300057351589202880859375</LongitudeDegrees>
            </Position>
            <AltitudeMeters>247</AltitudeMeters>
            <DistanceMeters>NAN</DistanceMeters>
          </Trackpoint>
          <Trackpoint>
            <Time>2022-07-11T16:30:43.000Z</Time>
            <Position>
              <LatitudeDegrees>43.28897452913224697113037109375</LatitudeDegrees>
              <LongitudeDegrees>-2.73351137526333332061767578125</LongitudeDegrees>
            </Position>
            <AltitudeMeters>247</AltitudeMeters>
            <DistanceMeters>NAN</DistanceMeters>
          </Trackpoint>
          <Trackpoint>
            <Time>2022-07-11T16:30:46.000Z</Time>
            <Position>
              <LatitudeDegrees>43.2889298535883426666259765625</LatitudeDegrees>
              <LongitudeDegrees>-2.73345672525465488433837890625</LongitudeDegrees>
            </Position>
            <AltitudeMeters>247.399993896484375</AltitudeMeters>
            <DistanceMeters>NAN</DistanceMeters>
          </Trackpoint>
          <Trackpoint>
            <Time>2022-07-11T16:30:47.000Z</Time>
            <Position>
              <LatitudeDegrees>43.2889070548117160797119140625</LatitudeDegrees>
              <LongitudeDegrees>-2.73344683460891246795654296875</LongitudeDegrees>
            </Position>
            <AltitudeMeters>247.399993896484375</AltitudeMeters>
            <DistanceMeters>NAN</DistanceMeters>
          </Trackpoint>
          <Trackpoint>
            <Time>2022-07-11T16:30:54.000Z</Time>
            <Position>
              <LatitudeDegrees>43.28881745226681232452392578125</LatitudeDegrees>
              <LongitudeDegrees>-2.73333728313446044921875</LongitudeDegrees>
            </Position>
            <AltitudeMeters>248</AltitudeMeters>
            <DistanceMeters>NAN</DistanceMeters>
          </Trackpoint>
          <Trackpoint>
            <Time>2022-07-11T16:30:56.000Z</Time>
            <Position>
              <LatitudeDegrees>43.28879817388951778411865234375</LatitudeDegrees>
              <LongitudeDegrees>-2.7333099581301212310791015625</LongitudeDegrees>
            </Position>
            <AltitudeMeters>248.1999969482421875</AltitudeMeters>
            <DistanceMeters>NAN</DistanceMeters>
          </Trackpoint>
          <Trackpoint>
            <Time>2022-07-11T16:30:59.000Z</Time>
            <Position>
              <LatitudeDegrees>43.28877420164644718170166015625</LatitudeDegrees>
              <LongitudeDegrees>-2.7332613430917263031005859375</LongitudeDegrees>
            </Position>
            <AltitudeMeters>248.399993896484375</AltitudeMeters>
            <DistanceMeters>NAN</DistanceMeters>
          </Trackpoint>
          <Trackpoint>
            <Time>2022-07-11T16:31:01.000Z</Time>
            <Position>
              <LatitudeDegrees>43.2887511514127254486083984375</LatitudeDegrees>
              <LongitudeDegrees>-2.73323896341025829315185546875</LongitudeDegrees>
            </Position>
            <AltitudeMeters>248.600006103515625</AltitudeMeters>
            <DistanceMeters>NAN</DistanceMeters>
          </Trackpoint>
          <Trackpoint>
            <Time>2022-07-11T16:31:03.000Z</Time>
            <Position>
              <LatitudeDegrees>43.28872986137866973876953125</LatitudeDegrees>
              <LongitudeDegrees>-2.73321784101426601409912109375</LongitudeDegrees>
            </Position>
            <AltitudeMeters>248.8000030517578125</AltitudeMeters>
            <DistanceMeters>NAN</DistanceMeters>
          </Trackpoint>
          <Trackpoint>
            <Time>2022-07-11T16:31:07.000Z</Time>
            <Position>
              <LatitudeDegrees>43.28869138844311237335205078125</LatitudeDegrees>
              <LongitudeDegrees>-2.73316361010074615478515625</LongitudeDegrees>
            </Position>
            <AltitudeMeters>249.1999969482421875</AltitudeMeters>
            <DistanceMeters>NAN</DistanceMeters>
          </Trackpoint>
          <Trackpoint>
            <Time>2022-07-11T16:31:08.000Z</Time>
            <Position>
              <LatitudeDegrees>43.28868552111089229583740234375</LatitudeDegrees>
              <LongitudeDegrees>-2.7331483550369739532470703125</LongitudeDegrees>
            </Position>
            <AltitudeMeters>249.399993896484375</AltitudeMeters>
            <DistanceMeters>NAN</DistanceMeters>
          </Trackpoint>
          <Trackpoint>
            <Time>2022-07-11T16:31:12.000Z</Time>
            <Position>
              <LatitudeDegrees>43.28865098766982555389404296875</LatitudeDegrees>
              <LongitudeDegrees>-2.73311155848205089569091796875</LongitudeDegrees>
            </Position>
            <AltitudeMeters>249.8000030517578125</AltitudeMeters>
            <DistanceMeters>NAN</DistanceMeters>
          </Trackpoint>
          <Trackpoint>
            <Time>2022-07-11T16:31:14.000Z</Time>
            <Position>
              <LatitudeDegrees>43.28862919472157955169677734375</LatitudeDegrees>
              <LongitudeDegrees>-2.7330846525728702545166015625</LongitudeDegrees>
            </Position>
            <AltitudeMeters>250</AltitudeMeters>
            <DistanceMeters>NAN</DistanceMeters>
          </Trackpoint>
          <Trackpoint>
            <Time>2022-07-11T16:31:16.000Z</Time>
            <Position>
              <LatitudeDegrees>43.28861729241907596588134765625</LatitudeDegrees>
              <LongitudeDegrees>-2.73306168615818023681640625</LongitudeDegrees>
            </Position>
            <AltitudeMeters>250.399993896484375</AltitudeMeters>
            <DistanceMeters>NAN</DistanceMeters>
          </Trackpoint>
          <Trackpoint>
            <Time>2022-07-11T16:31:25.000Z</Time>
            <Position>
              <LatitudeDegrees>43.28851771540939807891845703125</LatitudeDegrees>
              <LongitudeDegrees>-2.73296420462429523468017578125</LongitudeDegrees>
            </Position>
            <AltitudeMeters>251.1999969482421875</AltitudeMeters>
            <DistanceMeters>NAN</DistanceMeters>
          </Trackpoint>
          <Trackpoint>
            <Time>2022-07-11T16:31:26.000Z</Time>
            <Position>
              <LatitudeDegrees>43.28850883059203624725341796875</LatitudeDegrees>
              <LongitudeDegrees>-2.73296018131077289581298828125</LongitudeDegrees>
            </Position>
            <AltitudeMeters>251.399993896484375</AltitudeMeters>
            <DistanceMeters>NAN</DistanceMeters>
          </Trackpoint>
          <Trackpoint>
            <Time>2022-07-11T16:31:27.000Z</Time>
            <Position>
              <LatitudeDegrees>43.28849961049854755401611328125</LatitudeDegrees>
              <LongitudeDegrees>-2.7329599298536777496337890625</LongitudeDegrees>
            </Position>
            <AltitudeMeters>251.600006103515625</AltitudeMeters>
            <DistanceMeters>NAN</DistanceMeters>
          </Trackpoint>
          <Trackpoint>
            <Time>2022-07-11T16:31:30.000Z</Time>
            <Position>
              <LatitudeDegrees>43.2884698547422885894775390625</LatitudeDegrees>
              <LongitudeDegrees>-2.732948027551174163818359375</LongitudeDegrees>
            </Position>
            <AltitudeMeters>252</AltitudeMeters>
            <DistanceMeters>NAN</DistanceMeters>
          </Trackpoint>
          <Trackpoint>
            <Time>2022-07-11T16:31:31.000Z</Time>
            <Position>
              <LatitudeDegrees>43.2884591259062290191650390625</LatitudeDegrees>
              <LongitudeDegrees>-2.73293687961995601654052734375</LongitudeDegrees>
            </Position>
            <AltitudeMeters>252.1999969482421875</AltitudeMeters>
            <DistanceMeters>NAN</DistanceMeters>
          </Trackpoint>
          <Trackpoint>
            <Time>2022-07-11T16:31:34.000Z</Time>
            <Position>
              <LatitudeDegrees>43.28843691386282444000244140625</LatitudeDegrees>
              <LongitudeDegrees>-2.7328938804566860198974609375</LongitudeDegrees>
            </Position>
            <AltitudeMeters>252.600006103515625</AltitudeMeters>
            <DistanceMeters>NAN</DistanceMeters>
          </Trackpoint>
          <Trackpoint>
            <Time>2022-07-11T16:31:36.000Z</Time>
            <Position>
              <LatitudeDegrees>43.2884145341813564300537109375</LatitudeDegrees>
              <LongitudeDegrees>-2.73288063704967498779296875</LongitudeDegrees>
            </Position>
            <AltitudeMeters>252.8000030517578125</AltitudeMeters>
            <DistanceMeters>NAN</DistanceMeters>
          </Trackpoint>
          <Trackpoint>
            <Time>2022-07-11T16:31:43.000Z</Time>
            <Position>
              <LatitudeDegrees>43.288327194750308990478515625</LatitudeDegrees>
              <LongitudeDegrees>-2.73282221518456935882568359375</LongitudeDegrees>
            </Position>
            <AltitudeMeters>253.600006103515625</AltitudeMeters>
            <DistanceMeters>NAN</DistanceMeters>
          </Trackpoint>
          <Trackpoint>
            <Time>2022-07-11T16:31:50.000Z</Time>
            <Position>
              <LatitudeDegrees>43.28825200907886028289794921875</LatitudeDegrees>
              <LongitudeDegrees>-2.73283495567739009857177734375</LongitudeDegrees>
            </Position>
            <AltitudeMeters>254.399993896484375</AltitudeMeters>
            <DistanceMeters>NAN</DistanceMeters>
          </Trackpoint>
          <Trackpoint>
            <Time>2022-07-11T16:31:53.000Z</Time>
            <Position>
              <LatitudeDegrees>43.28822233714163303375244140625</LatitudeDegrees>
              <LongitudeDegrees>-2.73284903727471828460693359375</LongitudeDegrees>
            </Position>
            <AltitudeMeters>254.600006103515625</AltitudeMeters>
            <DistanceMeters>NAN</DistanceMeters>
          </Trackpoint>
          <Trackpoint>
            <Time>2022-07-11T16:31:54.000Z</Time>
            <Position>
              <LatitudeDegrees>43.2882143743336200714111328125</LatitudeDegrees>
              <LongitudeDegrees>-2.7328559942543506622314453125</LongitudeDegrees>
            </Position>
            <AltitudeMeters>254.8000030517578125</AltitudeMeters>
            <DistanceMeters>NAN</DistanceMeters>
          </Trackpoint>
          <Trackpoint>
            <Time>2022-07-11T16:31:56.000Z</Time>
            <Position>
              <LatitudeDegrees>43.288193084299564361572265625</LatitudeDegrees>
              <LongitudeDegrees>-2.7328697405755519866943359375</LongitudeDegrees>
            </Position>
            <AltitudeMeters>255</AltitudeMeters>
            <DistanceMeters>NAN</DistanceMeters>
          </Trackpoint>
          <Trackpoint>
            <Time>2022-07-11T16:32:03.000Z</Time>
            <Position>
              <LatitudeDegrees>43.2881412841379642486572265625</LatitudeDegrees>
              <LongitudeDegrees>-2.73294962011277675628662109375</LongitudeDegrees>
            </Position>
            <AltitudeMeters>256</AltitudeMeters>
            <DistanceMeters>NAN</DistanceMeters>
          </Trackpoint>
          <Trackpoint>
            <Time>2022-07-11T16:32:06.000Z</Time>
            <Position>
              <LatitudeDegrees>43.288131393492221832275390625</LatitudeDegrees>
              <LongitudeDegrees>-2.7329958043992519378662109375</LongitudeDegrees>
            </Position>
            <AltitudeMeters>256.399993896484375</AltitudeMeters>
            <DistanceMeters>NAN</DistanceMeters>
          </Trackpoint>
          <Trackpoint>
            <Time>2022-07-11T16:32:08.000Z</Time>
            <Position>
              <LatitudeDegrees>43.28812309540808200836181640625</LatitudeDegrees>
              <LongitudeDegrees>-2.73302790708839893341064453125</LongitudeDegrees>
            </Position>
            <AltitudeMeters>256.600006103515625</AltitudeMeters>
            <DistanceMeters>NAN</DistanceMeters>
          </Trackpoint>
          <Trackpoint>
            <Time>2022-07-11T16:32:11.000Z</Time>
            <Position>
              <LatitudeDegrees>43.28811890445649623870849609375</LatitudeDegrees>
              <LongitudeDegrees>-2.73306906223297119140625</LongitudeDegrees>
            </Position>
            <AltitudeMeters>256.79998779296875</AltitudeMeters>
            <DistanceMeters>NAN</DistanceMeters>
          </Trackpoint>
          <Trackpoint>
            <Time>2022-07-11T16:32:12.000Z</Time>
            <Position>
              <LatitudeDegrees>43.28812058083713054656982421875</LatitudeDegrees>
              <LongitudeDegrees>-2.73308356292545795440673828125</LongitudeDegrees>
            </Position>
            <AltitudeMeters>257</AltitudeMeters>
            <DistanceMeters>NAN</DistanceMeters>
          </Trackpoint>
          <Trackpoint>
            <Time>2022-07-11T16:32:13.000Z</Time>
            <Position>
              <LatitudeDegrees>43.28811923973262310028076171875</LatitudeDegrees>
              <LongitudeDegrees>-2.73309730924665927886962890625</LongitudeDegrees>
            </Position>
            <AltitudeMeters>257</AltitudeMeters>
            <DistanceMeters>NAN</DistanceMeters>
          </Trackpoint>
          <Trackpoint>
            <Time>2022-07-11T16:32:14.000Z</Time>
            <Position>
              <LatitudeDegrees>43.28811504878103733062744140625</LatitudeDegrees>
              <LongitudeDegrees>-2.73311390541493892669677734375</LongitudeDegrees>
            </Position>
            <AltitudeMeters>257.20001220703125</AltitudeMeters>
            <DistanceMeters>NAN</DistanceMeters>
          </Trackpoint>
          <Trackpoint>
            <Time>2022-07-11T16:32:15.000Z</Time>
            <Position>
              <LatitudeDegrees>43.28811136074364185333251953125</LatitudeDegrees>
              <LongitudeDegrees>-2.7331294119358062744140625</LongitudeDegrees>
            </Position>
            <AltitudeMeters>257.20001220703125</AltitudeMeters>
            <DistanceMeters>NAN</DistanceMeters>
          </Trackpoint>
          <Trackpoint>
            <Time>2022-07-11T16:32:16.000Z</Time>
            <Position>
              <LatitudeDegrees>43.2881050743162631988525390625</LatitudeDegrees>
              <LongitudeDegrees>-2.73314081132411956787109375</LongitudeDegrees>
            </Position>
            <AltitudeMeters>257.20001220703125</AltitudeMeters>
            <DistanceMeters>NAN</DistanceMeters>
          </Trackpoint>
          <Trackpoint>
            <Time>2022-07-11T16:32:17.000Z</Time>
            <Position>
              <LatitudeDegrees>43.288096524775028228759765625</LatitudeDegrees>
              <LongitudeDegrees>-2.73315690457820892333984375</LongitudeDegrees>
            </Position>
            <AltitudeMeters>257.399993896484375</AltitudeMeters>
            <DistanceMeters>NAN</DistanceMeters>
          </Trackpoint>
          <Trackpoint>
            <Time>2022-07-11T16:32:22.000Z</Time>
            <Position>
              <LatitudeDegrees>43.2880960218608379364013671875</LatitudeDegrees>
              <LongitudeDegrees>-2.7332393825054168701171875</LongitudeDegrees>
            </Position>
            <AltitudeMeters>258</AltitudeMeters>
            <DistanceMeters>NAN</DistanceMeters>
          </Trackpoint>
          <Trackpoint>
            <Time>2022-07-11T16:32:24.000Z</Time>
            <Position>
              <LatitudeDegrees>43.2880990393459796905517578125</LatitudeDegrees>
              <LongitudeDegrees>-2.7332717366516590118408203125</LongitudeDegrees>
            </Position>
            <AltitudeMeters>258.20001220703125</AltitudeMeters>
            <DistanceMeters>NAN</DistanceMeters>
          </Trackpoint>
          <Trackpoint>
            <Time>2022-07-11T16:32:30.000Z</Time>
            <Position>
              <LatitudeDegrees>43.28808705322444438934326171875</LatitudeDegrees>
              <LongitudeDegrees>-2.73336469195783138275146484375</LongitudeDegrees>
            </Position>
            <AltitudeMeters>258.600006103515625</AltitudeMeters>
            <DistanceMeters>NAN</DistanceMeters>
          </Trackpoint>
          <Trackpoint>
            <Time>2022-07-11T16:32:31.000Z</Time>
            <Position>
              <LatitudeDegrees>43.288083113729953765869140625</LatitudeDegrees>
              <LongitudeDegrees>-2.73337282240390777587890625</LongitudeDegrees>
            </Position>
            <AltitudeMeters>258.600006103515625</AltitudeMeters>
            <DistanceMeters>NAN</DistanceMeters>
          </Trackpoint>
          <Trackpoint>
            <Time>2022-07-11T16:32:38.000Z</Time>
            <Position>
              <LatitudeDegrees>43.28805335797369480133056640625</LatitudeDegrees>
              <LongitudeDegrees>-2.73349746130406856536865234375</LongitudeDegrees>
            </Position>
            <AltitudeMeters>259</AltitudeMeters>
            <DistanceMeters>NAN</DistanceMeters>
          </Trackpoint>
          <Trackpoint>
            <Time>2022-07-11T16:32:40.000Z</Time>
            <Position>
              <LatitudeDegrees>43.2880554534494876861572265625</LatitudeDegrees>
              <LongitudeDegrees>-2.7335359342396259307861328125</LongitudeDegrees>
            </Position>
            <AltitudeMeters>259.20001220703125</AltitudeMeters>
            <DistanceMeters>NAN</DistanceMeters>
          </Trackpoint>
          <Trackpoint>
            <Time>2022-07-11T16:32:48.000Z</Time>
            <Position>
              <LatitudeDegrees>43.28804061748087406158447265625</LatitudeDegrees>
              <LongitudeDegrees>-2.73368823342025279998779296875</LongitudeDegrees>
            </Position>
            <AltitudeMeters>259.79998779296875</AltitudeMeters>
            <DistanceMeters>NAN</DistanceMeters>
          </Trackpoint>
          <Trackpoint>
            <Time>2022-07-11T16:32:51.000Z</Time>
            <Position>
              <LatitudeDegrees>43.28803558833897113800048828125</LatitudeDegrees>
              <LongitudeDegrees>-2.73374003358185291290283203125</LongitudeDegrees>
            </Position>
            <AltitudeMeters>260</AltitudeMeters>
            <DistanceMeters>NAN</DistanceMeters>
          </Trackpoint>
          <Trackpoint>
            <Time>2022-07-11T16:32:58.000Z</Time>
            <Position>
              <LatitudeDegrees>43.28801563940942287445068359375</LatitudeDegrees>
              <LongitudeDegrees>-2.73386006243526935577392578125</LongitudeDegrees>
            </Position>
            <AltitudeMeters>260.600006103515625</AltitudeMeters>
            <DistanceMeters>NAN</DistanceMeters>
          </Trackpoint>
          <Trackpoint>
            <Time>2022-07-11T16:33:06.000Z</Time>
            <Position>
              <LatitudeDegrees>43.28797792084515094757080078125</LatitudeDegrees>
              <LongitudeDegrees>-2.73400104604661464691162109375</LongitudeDegrees>
            </Position>
            <AltitudeMeters>261</AltitudeMeters>
            <DistanceMeters>NAN</DistanceMeters>
          </Trackpoint>
          <Trackpoint>
            <Time>2022-07-11T16:33:08.000Z</Time>
            <Position>
              <LatitudeDegrees>43.28797590918838977813720703125</LatitudeDegrees>
              <LongitudeDegrees>-2.7340365014970302581787109375</LongitudeDegrees>
            </Position>
            <AltitudeMeters>261.20001220703125</AltitudeMeters>
            <DistanceMeters>NAN</DistanceMeters>
          </Trackpoint>
          <Trackpoint>
            <Time>2022-07-11T16:33:10.000Z</Time>
            <Position>
              <LatitudeDegrees>43.28797481954097747802734375</LatitudeDegrees>
              <LongitudeDegrees>-2.73407422006130218505859375</LongitudeDegrees>
            </Position>
            <AltitudeMeters>261.20001220703125</AltitudeMeters>
            <DistanceMeters>NAN</DistanceMeters>
          </Trackpoint>
          <Trackpoint>
            <Time>2022-07-11T16:33:13.000Z</Time>
            <Position>
              <LatitudeDegrees>43.28797037713229656219482421875</LatitudeDegrees>
              <LongitudeDegrees>-2.7341173030436038970947265625</LongitudeDegrees>
            </Position>
            <AltitudeMeters>261.399993896484375</AltitudeMeters>
            <DistanceMeters>NAN</DistanceMeters>
          </Trackpoint>
          <Trackpoint>
            <Time>2022-07-11T16:33:22.000Z</Time>
            <Position>
              <LatitudeDegrees>43.2879588939249515533447265625</LatitudeDegrees>
              <LongitudeDegrees>-2.73428343236446380615234375</LongitudeDegrees>
            </Position>
            <AltitudeMeters>262</AltitudeMeters>
            <DistanceMeters>NAN</DistanceMeters>
          </Trackpoint>
          <Trackpoint>
            <Time>2022-07-11T16:33:23.000Z</Time>
            <Position>
              <LatitudeDegrees>43.28795730136334896087646484375</LatitudeDegrees>
              <LongitudeDegrees>-2.7343000285327434539794921875</LongitudeDegrees>
            </Position>
            <AltitudeMeters>262.20001220703125</AltitudeMeters>
            <DistanceMeters>NAN</DistanceMeters>
          </Trackpoint>
          <Trackpoint>
            <Time>2022-07-11T16:33:28.000Z</Time>
            <Position>
              <LatitudeDegrees>43.28794472850859165191650390625</LatitudeDegrees>
              <LongitudeDegrees>-2.73440203629434108734130859375</LongitudeDegrees>
            </Position>
            <AltitudeMeters>262.600006103515625</AltitudeMeters>
            <DistanceMeters>NAN</DistanceMeters>
          </Trackpoint>
          <Trackpoint>
            <Time>2022-07-11T16:33:37.000Z</Time>
            <Position>
              <LatitudeDegrees>43.2879270426928997039794921875</LatitudeDegrees>
              <LongitudeDegrees>-2.73456078954041004180908203125</LongitudeDegrees>
            </Position>
            <AltitudeMeters>263.20001220703125</AltitudeMeters>
            <DistanceMeters>NAN</DistanceMeters>
          </Trackpoint>
          <Trackpoint>
            <Time>2022-07-11T16:33:38.000Z</Time>
            <Position>
              <LatitudeDegrees>43.28792746178805828094482421875</LatitudeDegrees>
              <LongitudeDegrees>-2.7345789782702922821044921875</LongitudeDegrees>
            </Position>
            <AltitudeMeters>263.20001220703125</AltitudeMeters>
            <DistanceMeters>NAN</DistanceMeters>
          </Trackpoint>
          <Trackpoint>
            <Time>2022-07-11T16:33:47.000Z</Time>
            <Position>
              <LatitudeDegrees>43.28790667466819286346435546875</LatitudeDegrees>
              <LongitudeDegrees>-2.73473898880183696746826171875</LongitudeDegrees>
            </Position>
            <AltitudeMeters>263.79998779296875</AltitudeMeters>
            <DistanceMeters>NAN</DistanceMeters>
          </Trackpoint>
          <Trackpoint>
            <Time>2022-07-11T16:33:55.000Z</Time>
            <Position>
              <LatitudeDegrees>43.28788052313029766082763671875</LatitudeDegrees>
              <LongitudeDegrees>-2.7348783798515796661376953125</LongitudeDegrees>
            </Position>
            <AltitudeMeters>264.20001220703125</AltitudeMeters>
            <DistanceMeters>NAN</DistanceMeters>
          </Trackpoint>
          <Trackpoint>
            <Time>2022-07-11T16:33:56.000Z</Time>
            <Position>
              <LatitudeDegrees>43.2878764159977436065673828125</LatitudeDegrees>
              <LongitudeDegrees>-2.7348998375236988067626953125</LongitudeDegrees>
            </Position>
            <AltitudeMeters>264.399993896484375</AltitudeMeters>
            <DistanceMeters>NAN</DistanceMeters>
          </Trackpoint>
          <Trackpoint>
            <Time>2022-07-11T16:34:04.000Z</Time>
            <Position>
              <LatitudeDegrees>43.28785118646919727325439453125</LatitudeDegrees>
              <LongitudeDegrees>-2.73503621108829975128173828125</LongitudeDegrees>
            </Position>
            <AltitudeMeters>264.79998779296875</AltitudeMeters>
            <DistanceMeters>NAN</DistanceMeters>
          </Trackpoint>
          <Trackpoint>
            <Time>2022-07-11T16:34:13.000Z</Time>
            <Position>
              <LatitudeDegrees>43.28780508600175380706787109375</LatitudeDegrees>
              <LongitudeDegrees>-2.73517752997577190399169921875</LongitudeDegrees>
            </Position>
            <AltitudeMeters>265.20001220703125</AltitudeMeters>
            <DistanceMeters>NAN</DistanceMeters>
          </Trackpoint>
          <Trackpoint>
            <Time>2022-07-11T16:34:26.000Z</Time>
            <Position>
              <LatitudeDegrees>43.28774607740342617034912109375</LatitudeDegrees>
              <LongitudeDegrees>-2.73537911474704742431640625</LongitudeDegrees>
            </Position>
            <AltitudeMeters>266.20001220703125</AltitudeMeters>
            <DistanceMeters>NAN</DistanceMeters>
          </Trackpoint>
          <Trackpoint>
            <Time>2022-07-11T16:34:28.000Z</Time>
            <Position>
              <LatitudeDegrees>43.28773367218673229217529296875</LatitudeDegrees>
              <LongitudeDegrees>-2.7354047633707523345947265625</LongitudeDegrees>
            </Position>
            <AltitudeMeters>266.20001220703125</AltitudeMeters>
            <DistanceMeters>NAN</DistanceMeters>
          </Trackpoint>
          <Trackpoint>
            <Time>2022-07-11T16:34:35.000Z</Time>
            <Position>
              <LatitudeDegrees>43.2876844704151153564453125</LatitudeDegrees>
              <LongitudeDegrees>-2.73550174199044704437255859375</LongitudeDegrees>
            </Position>
            <AltitudeMeters>267</AltitudeMeters>
            <DistanceMeters>NAN</DistanceMeters>
          </Trackpoint>
          <Trackpoint>
            <Time>2022-07-11T16:34:40.000Z</Time>
            <Position>
              <LatitudeDegrees>43.28764515928924083709716796875</LatitudeDegrees>
              <LongitudeDegrees>-2.73556821048259735107421875</LongitudeDegrees>
            </Position>
            <AltitudeMeters>267.20001220703125</AltitudeMeters>
            <DistanceMeters>NAN</DistanceMeters>
          </Trackpoint>
          <Trackpoint>
            <Time>2022-07-11T16:34:43.000Z</Time>
            <Position>
              <LatitudeDegrees>43.28762152232229709625244140625</LatitudeDegrees>
              <LongitudeDegrees>-2.735602743923664093017578125</LongitudeDegrees>
            </Position>
            <AltitudeMeters>267.600006103515625</AltitudeMeters>
            <DistanceMeters>NAN</DistanceMeters>
          </Trackpoint>
          <Trackpoint>
            <Time>2022-07-11T16:34:50.000Z</Time>
            <Position>
              <LatitudeDegrees>43.2875579036772251129150390625</LatitudeDegrees>
              <LongitudeDegrees>-2.73568144999444484710693359375</LongitudeDegrees>
            </Position>
            <AltitudeMeters>268.20001220703125</AltitudeMeters>
            <DistanceMeters>NAN</DistanceMeters>
          </Trackpoint>
          <Trackpoint>
            <Time>2022-07-11T16:34:51.000Z</Time>
            <Position>
              <LatitudeDegrees>43.28755027614533901214599609375</LatitudeDegrees>
              <LongitudeDegrees>-2.7356962859630584716796875</LongitudeDegrees>
            </Position>
            <AltitudeMeters>268.20001220703125</AltitudeMeters>
            <DistanceMeters>NAN</DistanceMeters>
          </Trackpoint>
          <Trackpoint>
            <Time>2022-07-11T16:34:52.000Z</Time>
            <Position>
              <LatitudeDegrees>43.28754030168056488037109375</LatitudeDegrees>
              <LongitudeDegrees>-2.73570776917040348052978515625</LongitudeDegrees>
            </Position>
            <AltitudeMeters>268.399993896484375</AltitudeMeters>
            <DistanceMeters>NAN</DistanceMeters>
          </Trackpoint>
          <Trackpoint>
            <Time>2022-07-11T16:35:00.000Z</Time>
            <Position>
              <LatitudeDegrees>43.2874445803463459014892578125</LatitudeDegrees>
              <LongitudeDegrees>-2.7357497625052928924560546875</LongitudeDegrees>
            </Position>
            <AltitudeMeters>269.399993896484375</AltitudeMeters>
            <DistanceMeters>NAN</DistanceMeters>
          </Trackpoint>
          <Trackpoint>
            <Time>2022-07-11T16:35:07.000Z</Time>
            <Position>
              <LatitudeDegrees>43.28738481737673282623291015625</LatitudeDegrees>
              <LongitudeDegrees>-2.73579083383083343505859375</LongitudeDegrees>
            </Position>
            <AltitudeMeters>269.79998779296875</AltitudeMeters>
            <DistanceMeters>NAN</DistanceMeters>
          </Trackpoint>
          <Trackpoint>
            <Time>2022-07-11T16:35:11.000Z</Time>
            <Position>
              <LatitudeDegrees>43.287336789071559906005859375</LatitudeDegrees>
              <LongitudeDegrees>-2.7358057536184787750244140625</LongitudeDegrees>
            </Position>
            <AltitudeMeters>270.399993896484375</AltitudeMeters>
            <DistanceMeters>NAN</DistanceMeters>
          </Trackpoint>
          <Trackpoint>
            <Time>2022-07-11T16:35:14.000Z</Time>
            <Position>
              <LatitudeDegrees>43.2873037643730640411376953125</LatitudeDegrees>
              <LongitudeDegrees>-2.7358292229473590850830078125</LongitudeDegrees>
            </Position>
            <AltitudeMeters>270.79998779296875</AltitudeMeters>
            <DistanceMeters>NAN</DistanceMeters>
          </Trackpoint>
          <Trackpoint>
            <Time>2022-07-11T16:35:18.000Z</Time>
            <Position>
              <LatitudeDegrees>43.28726395033299922943115234375</LatitudeDegrees>
              <LongitudeDegrees>-2.73584221489727497100830078125</LongitudeDegrees>
            </Position>
            <AltitudeMeters>271</AltitudeMeters>
            <DistanceMeters>NAN</DistanceMeters>
          </Trackpoint>
          <Trackpoint>
            <Time>2022-07-11T16:35:20.000Z</Time>
            <Position>
              <LatitudeDegrees>43.287244923412799835205078125</LatitudeDegrees>
              <LongitudeDegrees>-2.73584305308759212493896484375</LongitudeDegrees>
            </Position>
            <AltitudeMeters>271.20001220703125</AltitudeMeters>
            <DistanceMeters>NAN</DistanceMeters>
          </Trackpoint>
          <Trackpoint>
            <Time>2022-07-11T16:35:23.000Z</Time>
            <Position>
              <LatitudeDegrees>43.2872209511697292327880859375</LatitudeDegrees>
              <LongitudeDegrees>-2.7358664385974407196044921875</LongitudeDegrees>
            </Position>
            <AltitudeMeters>271.399993896484375</AltitudeMeters>
            <DistanceMeters>NAN</DistanceMeters>
          </Trackpoint>
          <Trackpoint>
            <Time>2022-07-11T16:35:24.000Z</Time>
            <Position>
              <LatitudeDegrees>43.28720862977206707000732421875</LatitudeDegrees>
              <LongitudeDegrees>-2.73586920462548732757568359375</LongitudeDegrees>
            </Position>
            <AltitudeMeters>271.399993896484375</AltitudeMeters>
            <DistanceMeters>NAN</DistanceMeters>
          </Trackpoint>
          <Trackpoint>
            <Time>2022-07-11T16:35:26.000Z</Time>
            <Position>
              <LatitudeDegrees>43.2871827296912670135498046875</LatitudeDegrees>
              <LongitudeDegrees>-2.73588462732732295989990234375</LongitudeDegrees>
            </Position>
            <AltitudeMeters>271.600006103515625</AltitudeMeters>
            <DistanceMeters>NAN</DistanceMeters>
          </Trackpoint>
          <Trackpoint>
            <Time>2022-07-11T16:35:29.000Z</Time>
            <Position>
              <LatitudeDegrees>43.28715615905821323394775390625</LatitudeDegrees>
              <LongitudeDegrees>-2.7359130419790744781494140625</LongitudeDegrees>
            </Position>
            <AltitudeMeters>272</AltitudeMeters>
            <DistanceMeters>NAN</DistanceMeters>
          </Trackpoint>
          <Trackpoint>
            <Time>2022-07-11T16:35:30.000Z</Time>
            <Position>
              <LatitudeDegrees>43.28714593313634395599365234375</LatitudeDegrees>
              <LongitudeDegrees>-2.73591731674969196319580078125</LongitudeDegrees>
            </Position>
            <AltitudeMeters>272</AltitudeMeters>
            <DistanceMeters>NAN</DistanceMeters>
          </Trackpoint>
          <Trackpoint>
            <Time>2022-07-11T16:35:33.000Z</Time>
            <Position>
              <LatitudeDegrees>43.2871217094361782073974609375</LatitudeDegrees>
              <LongitudeDegrees>-2.7359408698976039886474609375</LongitudeDegrees>
            </Position>
            <AltitudeMeters>272.399993896484375</AltitudeMeters>
            <DistanceMeters>NAN</DistanceMeters>
          </Trackpoint>
          <Trackpoint>
            <Time>2022-07-11T16:35:34.000Z</Time>
            <Position>
              <LatitudeDegrees>43.28710905276238918304443359375</LatitudeDegrees>
              <LongitudeDegrees>-2.73593860678374767303466796875</LongitudeDegrees>
            </Position>
            <AltitudeMeters>272.399993896484375</AltitudeMeters>
            <DistanceMeters>NAN</DistanceMeters>
          </Trackpoint>
          <Trackpoint>
            <Time>2022-07-11T16:35:38.000Z</Time>
            <Position>
              <LatitudeDegrees>43.28707871027290821075439453125</LatitudeDegrees>
              <LongitudeDegrees>-2.7359484136104583740234375</LongitudeDegrees>
            </Position>
            <AltitudeMeters>273</AltitudeMeters>
            <DistanceMeters>NAN</DistanceMeters>
          </Trackpoint>
          <Trackpoint>
            <Time>2022-07-11T16:35:43.000Z</Time>
            <Position>
              <LatitudeDegrees>43.2870103977620601654052734375</LatitudeDegrees>
              <LongitudeDegrees>-2.735974229872226715087890625</LongitudeDegrees>
            </Position>
            <AltitudeMeters>273.600006103515625</AltitudeMeters>
            <DistanceMeters>NAN</DistanceMeters>
          </Trackpoint>
          <Trackpoint>
            <Time>2022-07-11T16:35:45.000Z</Time>
            <Position>
              <LatitudeDegrees>43.28697863034904003143310546875</LatitudeDegrees>
              <LongitudeDegrees>-2.73597858846187591552734375</LongitudeDegrees>
            </Position>
            <AltitudeMeters>273.600006103515625</AltitudeMeters>
            <DistanceMeters>NAN</DistanceMeters>
          </Trackpoint>
          <Trackpoint>
            <Time>2022-07-11T16:35:48.000Z</Time>
            <Position>
              <LatitudeDegrees>43.28692498616874217987060546875</LatitudeDegrees>
              <LongitudeDegrees>-2.7359881438314914703369140625</LongitudeDegrees>
            </Position>
            <AltitudeMeters>273.79998779296875</AltitudeMeters>
            <DistanceMeters>NAN</DistanceMeters>
          </Trackpoint>
          <Trackpoint>
            <Time>2022-07-11T16:35:50.000Z</Time>
            <Position>
              <LatitudeDegrees>43.28689430840313434600830078125</LatitudeDegrees>
              <LongitudeDegrees>-2.73598931729793548583984375</LongitudeDegrees>
            </Position>
            <AltitudeMeters>274</AltitudeMeters>
            <DistanceMeters>NAN</DistanceMeters>
          </Trackpoint>
          <Trackpoint>
            <Time>2022-07-11T16:35:52.000Z</Time>
            <Position>
              <LatitudeDegrees>43.28687377274036407470703125</LatitudeDegrees>
              <LongitudeDegrees>-2.73599845357239246368408203125</LongitudeDegrees>
            </Position>
            <AltitudeMeters>274.399993896484375</AltitudeMeters>
            <DistanceMeters>NAN</DistanceMeters>
          </Trackpoint>
          <Trackpoint>
            <Time>2022-07-11T16:35:54.000Z</Time>
            <Position>
              <LatitudeDegrees>43.2868531532585620880126953125</LatitudeDegrees>
              <LongitudeDegrees>-2.735995016992092132568359375</LongitudeDegrees>
            </Position>
            <AltitudeMeters>274.600006103515625</AltitudeMeters>
            <DistanceMeters>NAN</DistanceMeters>
          </Trackpoint>
          <Trackpoint>
            <Time>2022-07-11T16:35:59.000Z</Time>
            <Position>
              <LatitudeDegrees>43.2867832481861114501953125</LatitudeDegrees>
              <LongitudeDegrees>-2.735993675887584686279296875</LongitudeDegrees>
            </Position>
            <AltitudeMeters>275</AltitudeMeters>
            <DistanceMeters>NAN</DistanceMeters>
          </Trackpoint>
          <Trackpoint>
            <Time>2022-07-11T16:36:02.000Z</Time>
            <Position>
              <LatitudeDegrees>43.286735303699970245361328125</LatitudeDegrees>
              <LongitudeDegrees>-2.73598889820277690887451171875</LongitudeDegrees>
            </Position>
            <AltitudeMeters>275.399993896484375</AltitudeMeters>
            <DistanceMeters>NAN</DistanceMeters>
          </Trackpoint>
          <Trackpoint>
            <Time>2022-07-11T16:36:05.000Z</Time>
            <Position>
              <LatitudeDegrees>43.2866848446428775787353515625</LatitudeDegrees>
              <LongitudeDegrees>-2.73599476553499698638916015625</LongitudeDegrees>
            </Position>
            <AltitudeMeters>275.600006103515625</AltitudeMeters>
            <DistanceMeters>NAN</DistanceMeters>
          </Trackpoint>
          <Trackpoint>
            <Time>2022-07-11T16:36:06.000Z</Time>
            <Position>
              <LatitudeDegrees>43.28667202033102512359619140625</LatitudeDegrees>
              <LongitudeDegrees>-2.73599878884851932525634765625</LongitudeDegrees>
            </Position>
            <AltitudeMeters>275.79998779296875</AltitudeMeters>
            <DistanceMeters>NAN</DistanceMeters>
          </Trackpoint>
          <Trackpoint>
            <Time>2022-07-11T16:36:07.000Z</Time>
            <Position>
              <LatitudeDegrees>43.28665894456207752227783203125</LatitudeDegrees>
              <LongitudeDegrees>-2.736002393066883087158203125</LongitudeDegrees>
            </Position>
            <AltitudeMeters>275.79998779296875</AltitudeMeters>
            <DistanceMeters>NAN</DistanceMeters>
          </Trackpoint>
          <Trackpoint>
            <Time>2022-07-11T16:36:13.000Z</Time>
            <Position>
              <LatitudeDegrees>43.28658333979547023773193359375</LatitudeDegrees>
              <LongitudeDegrees>-2.73597883991897106170654296875</LongitudeDegrees>
            </Position>
            <AltitudeMeters>276.399993896484375</AltitudeMeters>
            <DistanceMeters>NAN</DistanceMeters>
          </Trackpoint>
          <Trackpoint>
            <Time>2022-07-11T16:36:17.000Z</Time>
            <Position>
              <LatitudeDegrees>43.2865178771317005157470703125</LatitudeDegrees>
              <LongitudeDegrees>-2.73598051629960536956787109375</LongitudeDegrees>
            </Position>
            <AltitudeMeters>276.600006103515625</AltitudeMeters>
            <DistanceMeters>NAN</DistanceMeters>
          </Trackpoint>
          <Trackpoint>
            <Time>2022-07-11T16:36:23.000Z</Time>
            <Position>
              <LatitudeDegrees>43.28642525710165500640869140625</LatitudeDegrees>
              <LongitudeDegrees>-2.73596861399710178375244140625</LongitudeDegrees>
            </Position>
            <AltitudeMeters>277</AltitudeMeters>
            <DistanceMeters>NAN</DistanceMeters>
          </Trackpoint>
          <Trackpoint>
            <Time>2022-07-11T16:36:30.000Z</Time>
            <Position>
              <LatitudeDegrees>43.2863421924412250518798828125</LatitudeDegrees>
              <LongitudeDegrees>-2.73598353378474712371826171875</LongitudeDegrees>
            </Position>
            <AltitudeMeters>277.600006103515625</AltitudeMeters>
            <DistanceMeters>NAN</DistanceMeters>
          </Trackpoint>
          <Trackpoint>
            <Time>2022-07-11T16:36:31.000Z</Time>
            <Position>
              <LatitudeDegrees>43.28632953576743602752685546875</LatitudeDegrees>
              <LongitudeDegrees>-2.7359827794134616851806640625</LongitudeDegrees>
            </Position>
            <AltitudeMeters>277.79998779296875</AltitudeMeters>
            <DistanceMeters>NAN</DistanceMeters>
          </Trackpoint>
          <Trackpoint>
            <Time>2022-07-11T16:36:36.000Z</Time>
            <Position>
              <LatitudeDegrees>43.286266587674617767333984375</LatitudeDegrees>
              <LongitudeDegrees>-2.73597515188157558441162109375</LongitudeDegrees>
            </Position>
            <AltitudeMeters>278</AltitudeMeters>
            <DistanceMeters>NAN</DistanceMeters>
          </Trackpoint>
          <Trackpoint>
            <Time>2022-07-11T16:36:41.000Z</Time>
            <Position>
              <LatitudeDegrees>43.28620866872370243072509765625</LatitudeDegrees>
              <LongitudeDegrees>-2.7359569631516933441162109375</LongitudeDegrees>
            </Position>
            <AltitudeMeters>278.20001220703125</AltitudeMeters>
            <DistanceMeters>NAN</DistanceMeters>
          </Trackpoint>
          <Trackpoint>
            <Time>2022-07-11T16:36:49.000Z</Time>
            <Position>
              <LatitudeDegrees>43.2860950939357280731201171875</LatitudeDegrees>
              <LongitudeDegrees>-2.735979594290256500244140625</LongitudeDegrees>
            </Position>
            <AltitudeMeters>278.600006103515625</AltitudeMeters>
            <DistanceMeters>NAN</DistanceMeters>
          </Trackpoint>
          <Trackpoint>
            <Time>2022-07-11T16:36:52.000Z</Time>
            <Position>
              <LatitudeDegrees>43.28605762682855129241943359375</LatitudeDegrees>
              <LongitudeDegrees>-2.735968530178070068359375</LongitudeDegrees>
            </Position>
            <AltitudeMeters>278.79998779296875</AltitudeMeters>
            <DistanceMeters>NAN</DistanceMeters>
          </Trackpoint>
          <Trackpoint>
            <Time>2022-07-11T16:36:56.000Z</Time>
            <Position>
              <LatitudeDegrees>43.28600700013339519500732421875</LatitudeDegrees>
              <LongitudeDegrees>-2.73595000617206096649169921875</LongitudeDegrees>
            </Position>
            <AltitudeMeters>279</AltitudeMeters>
            <DistanceMeters>NAN</DistanceMeters>
          </Trackpoint>
          <Trackpoint>
            <Time>2022-07-11T16:37:07.000Z</Time>
            <Position>
              <LatitudeDegrees>43.28583701513707637786865234375</LatitudeDegrees>
              <LongitudeDegrees>-2.735942713916301727294921875</LongitudeDegrees>
            </Position>
            <AltitudeMeters>279.600006103515625</AltitudeMeters>
            <DistanceMeters>NAN</DistanceMeters>
          </Trackpoint>
          <Trackpoint>
            <Time>2022-07-11T16:37:15.000Z</Time>
            <Position>
              <LatitudeDegrees>43.28572520054876804351806640625</LatitudeDegrees>
              <LongitudeDegrees>-2.73590859957039356231689453125</LongitudeDegrees>
            </Position>
            <AltitudeMeters>279.600006103515625</AltitudeMeters>
            <DistanceMeters>NAN</DistanceMeters>
          </Trackpoint>
          <Trackpoint>
            <Time>2022-07-11T16:37:18.000Z</Time>
            <Position>
              <LatitudeDegrees>43.2856448180973529815673828125</LatitudeDegrees>
              <LongitudeDegrees>-2.7359160594642162322998046875</LongitudeDegrees>
            </Position>
            <AltitudeMeters>279.79998779296875</AltitudeMeters>
            <DistanceMeters>NAN</DistanceMeters>
          </Trackpoint>
          <Trackpoint>
            <Time>2022-07-11T16:37:19.000Z</Time>
            <Position>
              <LatitudeDegrees>43.28562445007264614105224609375</LatitudeDegrees>
              <LongitudeDegrees>-2.7359113655984401702880859375</LongitudeDegrees>
            </Position>
            <AltitudeMeters>279.79998779296875</AltitudeMeters>
            <DistanceMeters>NAN</DistanceMeters>
          </Trackpoint>
          <Trackpoint>
            <Time>2022-07-11T16:37:20.000Z</Time>
            <Position>
              <LatitudeDegrees>43.28560399822890758514404296875</LatitudeDegrees>
              <LongitudeDegrees>-2.7359043247997760772705078125</LongitudeDegrees>
            </Position>
            <AltitudeMeters>279.79998779296875</AltitudeMeters>
            <DistanceMeters>NAN</DistanceMeters>
          </Trackpoint>
          <Trackpoint>
            <Time>2022-07-11T16:37:27.000Z</Time>
            <Position>
              <LatitudeDegrees>43.28541741706430912017822265625</LatitudeDegrees>
              <LongitudeDegrees>-2.7358466573059558868408203125</LongitudeDegrees>
            </Position>
            <AltitudeMeters>279.600006103515625</AltitudeMeters>
            <DistanceMeters>NAN</DistanceMeters>
          </Trackpoint>
          <Trackpoint>
            <Time>2022-07-11T16:37:35.000Z</Time>
            <Position>
              <LatitudeDegrees>43.285180628299713134765625</LatitudeDegrees>
              <LongitudeDegrees>-2.7357641793787479400634765625</LongitudeDegrees>
            </Position>
            <AltitudeMeters>279.79998779296875</AltitudeMeters>
            <DistanceMeters>NAN</DistanceMeters>
          </Trackpoint>
          <Trackpoint>
            <Time>2022-07-11T16:37:43.000Z</Time>
            <Position>
              <LatitudeDegrees>43.284871838986873626708984375</LatitudeDegrees>
              <LongitudeDegrees>-2.73573475889861583709716796875</LongitudeDegrees>
            </Position>
            <AltitudeMeters>279.20001220703125</AltitudeMeters>
            <DistanceMeters>NAN</DistanceMeters>
          </Trackpoint>
          <Trackpoint>
            <Time>2022-07-11T16:37:48.000Z</Time>
            <Position>
              <LatitudeDegrees>43.284724652767181396484375</LatitudeDegrees>
              <LongitudeDegrees>-2.73574523627758026123046875</LongitudeDegrees>
            </Position>
            <AltitudeMeters>279</AltitudeMeters>
            <DistanceMeters>NAN</DistanceMeters>
          </Trackpoint>
          <Trackpoint>
            <Time>2022-07-11T16:37:49.000Z</Time>
            <Position>
              <LatitudeDegrees>43.28470109961926937103271484375</LatitudeDegrees>
              <LongitudeDegrees>-2.7357443980872631072998046875</LongitudeDegrees>
            </Position>
            <AltitudeMeters>279</AltitudeMeters>
            <DistanceMeters>NAN</DistanceMeters>
          </Trackpoint>
          <Trackpoint>
            <Time>2022-07-11T16:37:52.000Z</Time>
            <Position>
              <LatitudeDegrees>43.28465533442795276641845703125</LatitudeDegrees>
              <LongitudeDegrees>-2.73575772531330585479736328125</LongitudeDegrees>
            </Position>
            <AltitudeMeters>278.600006103515625</AltitudeMeters>
            <DistanceMeters>NAN</DistanceMeters>
          </Trackpoint>
          <Trackpoint>
            <Time>2022-07-11T16:37:54.000Z</Time>
            <Position>
              <LatitudeDegrees>43.2846535742282867431640625</LatitudeDegrees>
              <LongitudeDegrees>-2.73575889877974987030029296875</LongitudeDegrees>
            </Position>
            <AltitudeMeters>278.399993896484375</AltitudeMeters>
            <DistanceMeters>NAN</DistanceMeters>
          </Trackpoint>
          <Trackpoint>
            <Time>2022-07-11T16:37:57.000Z</Time>
            <Position>
              <LatitudeDegrees>43.2846560887992382049560546875</LatitudeDegrees>
              <LongitudeDegrees>-2.73575839586555957794189453125</LongitudeDegrees>
            </Position>
            <AltitudeMeters>278</AltitudeMeters>
            <DistanceMeters>NAN</DistanceMeters>
          </Trackpoint>
          <Trackpoint>
            <Time>2022-07-11T16:41:38.000Z</Time>
            <Position>
              <LatitudeDegrees>43.2846057973802089691162109375</LatitudeDegrees>
              <LongitudeDegrees>-2.73581421934068202972412109375</LongitudeDegrees>
            </Position>
            <AltitudeMeters>278.20001220703125</AltitudeMeters>
            <DistanceMeters>NAN</DistanceMeters>
          </Trackpoint>
          <Trackpoint>
            <Time>2022-07-11T16:41:39.000Z</Time>
            <Position>
              <LatitudeDegrees>43.28458056785166263580322265625</LatitudeDegrees>
              <LongitudeDegrees>-2.73585780523717403411865234375</LongitudeDegrees>
            </Position>
            <AltitudeMeters>278.20001220703125</AltitudeMeters>
            <DistanceMeters>NAN</DistanceMeters>
          </Trackpoint>
          <Trackpoint>
            <Time>2022-07-11T16:41:41.000Z</Time>
            <Position>
              <LatitudeDegrees>43.28452189452946186065673828125</LatitudeDegrees>
              <LongitudeDegrees>-2.7359717153012752532958984375</LongitudeDegrees>
            </Position>
            <AltitudeMeters>277.79998779296875</AltitudeMeters>
            <DistanceMeters>NAN</DistanceMeters>
          </Trackpoint>
          <Trackpoint>
            <Time>2022-07-11T16:41:42.000Z</Time>
            <Position>
              <LatitudeDegrees>43.284497000277042388916015625</LatitudeDegrees>
              <LongitudeDegrees>-2.73603918962180614471435546875</LongitudeDegrees>
            </Position>
            <AltitudeMeters>277.399993896484375</AltitudeMeters>
            <DistanceMeters>NAN</DistanceMeters>
          </Trackpoint>
          <Trackpoint>
            <Time>2022-07-11T16:41:45.000Z</Time>
            <Position>
              <LatitudeDegrees>43.28445651568472385406494140625</LatitudeDegrees>
              <LongitudeDegrees>-2.73629508912563323974609375</LongitudeDegrees>
            </Position>
            <AltitudeMeters>276.399993896484375</AltitudeMeters>
            <DistanceMeters>NAN</DistanceMeters>
          </Trackpoint>
          <Trackpoint>
            <Time>2022-07-11T16:41:47.000Z</Time>
            <Position>
              <LatitudeDegrees>43.284451402723789215087890625</LatitudeDegrees>
              <LongitudeDegrees>-2.73647102527320384979248046875</LongitudeDegrees>
            </Position>
            <AltitudeMeters>275.79998779296875</AltitudeMeters>
            <DistanceMeters>NAN</DistanceMeters>
          </Trackpoint>
          <Trackpoint>
            <Time>2022-07-11T16:41:49.000Z</Time>
            <Position>
              <LatitudeDegrees>43.28444729559123516082763671875</LatitudeDegrees>
              <LongitudeDegrees>-2.7366493083536624908447265625</LongitudeDegrees>
            </Position>
            <AltitudeMeters>275</AltitudeMeters>
            <DistanceMeters>NAN</DistanceMeters>
          </Trackpoint>
          <Trackpoint>
            <Time>2022-07-11T16:41:52.000Z</Time>
            <Position>
              <LatitudeDegrees>43.284429274499416351318359375</LatitudeDegrees>
              <LongitudeDegrees>-2.73692138493061065673828125</LongitudeDegrees>
            </Position>
            <AltitudeMeters>274</AltitudeMeters>
            <DistanceMeters>NAN</DistanceMeters>
          </Trackpoint>
          <Trackpoint>
            <Time>2022-07-11T16:41:53.000Z</Time>
            <Position>
              <LatitudeDegrees>43.28440655954182147979736328125</LatitudeDegrees>
              <LongitudeDegrees>-2.73700813762843608856201171875</LongitudeDegrees>
            </Position>
            <AltitudeMeters>273.600006103515625</AltitudeMeters>
            <DistanceMeters>NAN</DistanceMeters>
          </Trackpoint>
          <Trackpoint>
            <Time>2022-07-11T16:41:54.000Z</Time>
            <Position>
              <LatitudeDegrees>43.284378983080387115478515625</LatitudeDegrees>
              <LongitudeDegrees>-2.73709195666015148162841796875</LongitudeDegrees>
            </Position>
            <AltitudeMeters>273.20001220703125</AltitudeMeters>
            <DistanceMeters>NAN</DistanceMeters>
          </Trackpoint>
          <Trackpoint>
            <Time>2022-07-11T16:41:55.000Z</Time>
            <Position>
              <LatitudeDegrees>43.28435174189507961273193359375</LatitudeDegrees>
              <LongitudeDegrees>-2.73717409931123256683349609375</LongitudeDegrees>
            </Position>
            <AltitudeMeters>272.79998779296875</AltitudeMeters>
            <DistanceMeters>NAN</DistanceMeters>
          </Trackpoint>
          <Trackpoint>
            <Time>2022-07-11T16:41:56.000Z</Time>
            <Position>
              <LatitudeDegrees>43.28432056121528148651123046875</LatitudeDegrees>
              <LongitudeDegrees>-2.7372494526207447052001953125</LongitudeDegrees>
            </Position>
            <AltitudeMeters>272.600006103515625</AltitudeMeters>
            <DistanceMeters>NAN</DistanceMeters>
          </Trackpoint>
          <Trackpoint>
            <Time>2022-07-11T16:41:58.000Z</Time>
            <Position>
              <LatitudeDegrees>43.28426306135952472686767578125</LatitudeDegrees>
              <LongitudeDegrees>-2.73735665716230869293212890625</LongitudeDegrees>
            </Position>
            <AltitudeMeters>271.399993896484375</AltitudeMeters>
            <DistanceMeters>NAN</DistanceMeters>
          </Trackpoint>
          <Trackpoint>
            <Time>2022-07-11T16:42:00.000Z</Time>
            <Position>
              <LatitudeDegrees>43.2842245884239673614501953125</LatitudeDegrees>
              <LongitudeDegrees>-2.7374170906841754913330078125</LongitudeDegrees>
            </Position>
            <AltitudeMeters>270.399993896484375</AltitudeMeters>
            <DistanceMeters>NAN</DistanceMeters>
          </Trackpoint>
          <Trackpoint>
            <Time>2022-07-11T16:42:02.000Z</Time>
            <Position>
              <LatitudeDegrees>43.284188546240329742431640625</LatitudeDegrees>
              <LongitudeDegrees>-2.73747257888317108154296875</LongitudeDegrees>
            </Position>
            <AltitudeMeters>270</AltitudeMeters>
            <DistanceMeters>NAN</DistanceMeters>
          </Trackpoint>
          <Trackpoint>
            <Time>2022-07-11T16:42:06.000Z</Time>
            <Position>
              <LatitudeDegrees>43.2841243408620357513427734375</LatitudeDegrees>
              <LongitudeDegrees>-2.7375538833439350128173828125</LongitudeDegrees>
            </Position>
            <AltitudeMeters>269.600006103515625</AltitudeMeters>
            <DistanceMeters>NAN</DistanceMeters>
          </Trackpoint>
          <Trackpoint>
            <Time>2022-07-11T16:42:07.000Z</Time>
            <Position>
              <LatitudeDegrees>43.2841216586530208587646484375</LatitudeDegrees>
              <LongitudeDegrees>-2.737551033496856689453125</LongitudeDegrees>
            </Position>
            <AltitudeMeters>269.600006103515625</AltitudeMeters>
            <DistanceMeters>NAN</DistanceMeters>
          </Trackpoint>
          <Trackpoint>
            <Time>2022-07-11T16:42:09.000Z</Time>
            <Position>
              <LatitudeDegrees>43.28412258066236972808837890625</LatitudeDegrees>
              <LongitudeDegrees>-2.73755027912557125091552734375</LongitudeDegrees>
            </Position>
            <AltitudeMeters>269.399993896484375</AltitudeMeters>
            <DistanceMeters>NAN</DistanceMeters>
          </Trackpoint>
          <Trackpoint>
            <Time>2022-07-11T16:43:58.000Z</Time>
            <Position>
              <LatitudeDegrees>43.28409232199192047119140625</LatitudeDegrees>
              <LongitudeDegrees>-2.737610377371311187744140625</LongitudeDegrees>
            </Position>
            <AltitudeMeters>268.79998779296875</AltitudeMeters>
            <DistanceMeters>NAN</DistanceMeters>
          </Trackpoint>
          <Trackpoint>
            <Time>2022-07-11T16:43:59.000Z</Time>
            <Position>
              <LatitudeDegrees>43.284075222909450531005859375</LatitudeDegrees>
              <LongitudeDegrees>-2.7376356907188892364501953125</LongitudeDegrees>
            </Position>
            <AltitudeMeters>268.79998779296875</AltitudeMeters>
            <DistanceMeters>NAN</DistanceMeters>
          </Trackpoint>
          <Trackpoint>
            <Time>2022-07-11T16:44:04.000Z</Time>
            <Position>
              <LatitudeDegrees>43.283977322280406951904296875</LatitudeDegrees>
              <LongitudeDegrees>-2.7378107048571109771728515625</LongitudeDegrees>
            </Position>
            <AltitudeMeters>269</AltitudeMeters>
            <DistanceMeters>NAN</DistanceMeters>
          </Trackpoint>
          <Trackpoint>
            <Time>2022-07-11T16:44:10.000Z</Time>
            <Position>
              <LatitudeDegrees>43.28396365977823734283447265625</LatitudeDegrees>
              <LongitudeDegrees>-2.73804447613656520843505859375</LongitudeDegrees>
            </Position>
            <AltitudeMeters>268.79998779296875</AltitudeMeters>
            <DistanceMeters>NAN</DistanceMeters>
          </Trackpoint>
          <Trackpoint>
            <Time>2022-07-11T16:44:17.000Z</Time>
            <Position>
              <LatitudeDegrees>43.283933736383914947509765625</LatitudeDegrees>
              <LongitudeDegrees>-2.738307751715183258056640625</LongitudeDegrees>
            </Position>
            <AltitudeMeters>268.600006103515625</AltitudeMeters>
            <DistanceMeters>NAN</DistanceMeters>
          </Trackpoint>
          <Trackpoint>
            <Time>2022-07-11T16:44:18.000Z</Time>
            <Position>
              <LatitudeDegrees>43.2839194871485233306884765625</LatitudeDegrees>
              <LongitudeDegrees>-2.738349996507167816162109375</LongitudeDegrees>
            </Position>
            <AltitudeMeters>268.20001220703125</AltitudeMeters>
            <DistanceMeters>NAN</DistanceMeters>
          </Trackpoint>
          <Trackpoint>
            <Time>2022-07-11T16:44:20.000Z</Time>
            <Position>
              <LatitudeDegrees>43.28387950547039508819580078125</LatitudeDegrees>
              <LongitudeDegrees>-2.73843138478696346282958984375</LongitudeDegrees>
            </Position>
            <AltitudeMeters>267.79998779296875</AltitudeMeters>
            <DistanceMeters>NAN</DistanceMeters>
          </Trackpoint>
          <Trackpoint>
            <Time>2022-07-11T16:44:23.000Z</Time>
            <Position>
              <LatitudeDegrees>43.28378562815487384796142578125</LatitudeDegrees>
              <LongitudeDegrees>-2.73858728818595409393310546875</LongitudeDegrees>
            </Position>
            <AltitudeMeters>267.399993896484375</AltitudeMeters>
            <DistanceMeters>NAN</DistanceMeters>
          </Trackpoint>
          <Trackpoint>
            <Time>2022-07-11T16:44:25.000Z</Time>
            <Position>
              <LatitudeDegrees>43.283697031438350677490234375</LatitudeDegrees>
              <LongitudeDegrees>-2.73866507224738597869873046875</LongitudeDegrees>
            </Position>
            <AltitudeMeters>266.600006103515625</AltitudeMeters>
            <DistanceMeters>NAN</DistanceMeters>
          </Trackpoint>
          <Trackpoint>
            <Time>2022-07-11T16:44:27.000Z</Time>
            <Position>
              <LatitudeDegrees>43.28358999453485012054443359375</LatitudeDegrees>
              <LongitudeDegrees>-2.73873330093920230865478515625</LongitudeDegrees>
            </Position>
            <AltitudeMeters>266.399993896484375</AltitudeMeters>
            <DistanceMeters>NAN</DistanceMeters>
          </Trackpoint>
          <Trackpoint>
            <Time>2022-07-11T16:44:31.000Z</Time>
            <Position>
              <LatitudeDegrees>43.28332244418561458587646484375</LatitudeDegrees>
              <LongitudeDegrees>-2.7388514019548892974853515625</LongitudeDegrees>
            </Position>
            <AltitudeMeters>265.600006103515625</AltitudeMeters>
            <DistanceMeters>NAN</DistanceMeters>
          </Trackpoint>
          <Trackpoint>
            <Time>2022-07-11T16:44:32.000Z</Time>
            <Position>
              <LatitudeDegrees>43.28325086273252964019775390625</LatitudeDegrees>
              <LongitudeDegrees>-2.73888987489044666290283203125</LongitudeDegrees>
            </Position>
            <AltitudeMeters>265.399993896484375</AltitudeMeters>
            <DistanceMeters>NAN</DistanceMeters>
          </Trackpoint>
          <Trackpoint>
            <Time>2022-07-11T16:44:36.000Z</Time>
            <Position>
              <LatitudeDegrees>43.28295640647411346435546875</LatitudeDegrees>
              <LongitudeDegrees>-2.7389959059655666351318359375</LongitudeDegrees>
            </Position>
            <AltitudeMeters>264.399993896484375</AltitudeMeters>
            <DistanceMeters>NAN</DistanceMeters>
          </Trackpoint>
          <Trackpoint>
            <Time>2022-07-11T16:44:37.000Z</Time>
            <Position>
              <LatitudeDegrees>43.28288205899298191070556640625</LatitudeDegrees>
              <LongitudeDegrees>-2.73901090957224369049072265625</LongitudeDegrees>
            </Position>
            <AltitudeMeters>264</AltitudeMeters>
            <DistanceMeters>NAN</DistanceMeters>
          </Trackpoint>
          <Trackpoint>
            <Time>2022-07-11T16:44:41.000Z</Time>
            <Position>
              <LatitudeDegrees>43.28258919529616832733154296875</LatitudeDegrees>
              <LongitudeDegrees>-2.73907830007374286651611328125</LongitudeDegrees>
            </Position>
            <AltitudeMeters>263.399993896484375</AltitudeMeters>
            <DistanceMeters>NAN</DistanceMeters>
          </Trackpoint>
          <Trackpoint>
            <Time>2022-07-11T16:44:42.000Z</Time>
            <Position>
              <LatitudeDegrees>43.2825265824794769287109375</LatitudeDegrees>
              <LongitudeDegrees>-2.73912138305604457855224609375</LongitudeDegrees>
            </Position>
            <AltitudeMeters>263.399993896484375</AltitudeMeters>
            <DistanceMeters>NAN</DistanceMeters>
          </Trackpoint>
          <Trackpoint>
            <Time>2022-07-11T16:44:43.000Z</Time>
            <Position>
              <LatitudeDegrees>43.2824861817061901092529296875</LatitudeDegrees>
              <LongitudeDegrees>-2.7391786314547061920166015625</LongitudeDegrees>
            </Position>
            <AltitudeMeters>263.399993896484375</AltitudeMeters>
            <DistanceMeters>NAN</DistanceMeters>
          </Trackpoint>
          <Trackpoint>
            <Time>2022-07-11T16:44:44.000Z</Time>
            <Position>
              <LatitudeDegrees>43.2824667356908321380615234375</LatitudeDegrees>
              <LongitudeDegrees>-2.73924057371914386749267578125</LongitudeDegrees>
            </Position>
            <AltitudeMeters>263.20001220703125</AltitudeMeters>
            <DistanceMeters>NAN</DistanceMeters>
          </Trackpoint>
          <Trackpoint>
            <Time>2022-07-11T16:44:45.000Z</Time>
            <Position>
              <LatitudeDegrees>43.28247117809951305389404296875</LatitudeDegrees>
              <LongitudeDegrees>-2.7392979897558689117431640625</LongitudeDegrees>
            </Position>
            <AltitudeMeters>263.399993896484375</AltitudeMeters>
            <DistanceMeters>NAN</DistanceMeters>
          </Trackpoint>
          <Trackpoint>
            <Time>2022-07-11T16:44:47.000Z</Time>
            <Position>
              <LatitudeDegrees>43.282509148120880126953125</LatitudeDegrees>
              <LongitudeDegrees>-2.73935808800160884857177734375</LongitudeDegrees>
            </Position>
            <AltitudeMeters>263.79998779296875</AltitudeMeters>
            <DistanceMeters>NAN</DistanceMeters>
          </Trackpoint>
          <Trackpoint>
            <Time>2022-07-11T16:44:48.000Z</Time>
            <Position>
              <LatitudeDegrees>43.28252633102238178253173828125</LatitudeDegrees>
              <LongitudeDegrees>-2.7393670566380023956298828125</LongitudeDegrees>
            </Position>
            <AltitudeMeters>263.79998779296875</AltitudeMeters>
            <DistanceMeters>NAN</DistanceMeters>
          </Trackpoint>
          <Trackpoint>
            <Time>2022-07-11T16:44:54.000Z</Time>
            <Position>
              <LatitudeDegrees>43.282592631876468658447265625</LatitudeDegrees>
              <LongitudeDegrees>-2.73941692896187305450439453125</LongitudeDegrees>
            </Position>
            <AltitudeMeters>264.399993896484375</AltitudeMeters>
            <DistanceMeters>NAN</DistanceMeters>
          </Trackpoint>
          <Trackpoint>
            <Time>2022-07-11T16:44:55.000Z</Time>
            <Position>
              <LatitudeDegrees>43.28260478563606739044189453125</LatitudeDegrees>
              <LongitudeDegrees>-2.73942883126437664031982421875</LongitudeDegrees>
            </Position>
            <AltitudeMeters>264.399993896484375</AltitudeMeters>
            <DistanceMeters>NAN</DistanceMeters>
          </Trackpoint>
          <Trackpoint>
            <Time>2022-07-11T16:45:00.000Z</Time>
            <Position>
              <LatitudeDegrees>43.2827064581215381622314453125</LatitudeDegrees>
              <LongitudeDegrees>-2.7395103871822357177734375</LongitudeDegrees>
            </Position>
            <AltitudeMeters>265.20001220703125</AltitudeMeters>
            <DistanceMeters>NAN</DistanceMeters>
          </Trackpoint>
          <Trackpoint>
            <Time>2022-07-11T16:45:01.000Z</Time>
            <Position>
              <LatitudeDegrees>43.28272045589983463287353515625</LatitudeDegrees>
              <LongitudeDegrees>-2.7395222894847393035888671875</LongitudeDegrees>
            </Position>
            <AltitudeMeters>265.399993896484375</AltitudeMeters>
            <DistanceMeters>NAN</DistanceMeters>
          </Trackpoint>
          <Trackpoint>
            <Time>2022-07-11T16:45:03.000Z</Time>
            <Position>
              <LatitudeDegrees>43.28273906372487545013427734375</LatitudeDegrees>
              <LongitudeDegrees>-2.7395417355000972747802734375</LongitudeDegrees>
            </Position>
            <AltitudeMeters>265.600006103515625</AltitudeMeters>
            <DistanceMeters>NAN</DistanceMeters>
          </Trackpoint>
          <Trackpoint>
            <Time>2022-07-11T16:45:07.000Z</Time>
            <Position>
              <LatitudeDegrees>43.28278633765876293182373046875</LatitudeDegrees>
              <LongitudeDegrees>-2.73960627615451812744140625</LongitudeDegrees>
            </Position>
            <AltitudeMeters>266</AltitudeMeters>
            <DistanceMeters>NAN</DistanceMeters>
          </Trackpoint>
          <Trackpoint>
            <Time>2022-07-11T16:45:09.000Z</Time>
            <Position>
              <LatitudeDegrees>43.282811231911182403564453125</LatitudeDegrees>
              <LongitudeDegrees>-2.73962127976119518280029296875</LongitudeDegrees>
            </Position>
            <AltitudeMeters>266.399993896484375</AltitudeMeters>
            <DistanceMeters>NAN</DistanceMeters>
          </Trackpoint>
          <Trackpoint>
            <Time>2022-07-11T16:45:10.000Z</Time>
            <Position>
              <LatitudeDegrees>43.28282137401401996612548828125</LatitudeDegrees>
              <LongitudeDegrees>-2.73962195031344890594482421875</LongitudeDegrees>
            </Position>
            <AltitudeMeters>266.399993896484375</AltitudeMeters>
            <DistanceMeters>NAN</DistanceMeters>
          </Trackpoint>
          <Trackpoint>
            <Time>2022-07-11T16:45:11.000Z</Time>
            <Position>
              <LatitudeDegrees>43.28283478505909442901611328125</LatitudeDegrees>
              <LongitudeDegrees>-2.73963184095919132232666015625</LongitudeDegrees>
            </Position>
            <AltitudeMeters>266.600006103515625</AltitudeMeters>
            <DistanceMeters>NAN</DistanceMeters>
          </Trackpoint>
          <Trackpoint>
            <Time>2022-07-11T16:45:15.000Z</Time>
            <Position>
              <LatitudeDegrees>43.28287518583238124847412109375</LatitudeDegrees>
              <LongitudeDegrees>-2.73967106826603412628173828125</LongitudeDegrees>
            </Position>
            <AltitudeMeters>267</AltitudeMeters>
            <DistanceMeters>NAN</DistanceMeters>
          </Trackpoint>
          <Trackpoint>
            <Time>2022-07-11T16:45:18.000Z</Time>
            <Position>
              <LatitudeDegrees>43.28290770761668682098388671875</LatitudeDegrees>
              <LongitudeDegrees>-2.73968003690242767333984375</LongitudeDegrees>
            </Position>
            <AltitudeMeters>267.399993896484375</AltitudeMeters>
            <DistanceMeters>NAN</DistanceMeters>
          </Trackpoint>
          <Trackpoint>
            <Time>2022-07-11T16:45:20.000Z</Time>
            <Position>
              <LatitudeDegrees>43.28293352387845516204833984375</LatitudeDegrees>
              <LongitudeDegrees>-2.73968012072145938873291015625</LongitudeDegrees>
            </Position>
            <AltitudeMeters>267.399993896484375</AltitudeMeters>
            <DistanceMeters>NAN</DistanceMeters>
          </Trackpoint>
          <Trackpoint>
            <Time>2022-07-11T16:45:21.000Z</Time>
            <Position>
              <LatitudeDegrees>43.28293670900166034698486328125</LatitudeDegrees>
              <LongitudeDegrees>-2.739677689969539642333984375</LongitudeDegrees>
            </Position>
            <AltitudeMeters>267.399993896484375</AltitudeMeters>
            <DistanceMeters>NAN</DistanceMeters>
          </Trackpoint>
          <Trackpoint>
            <Time>2022-07-11T16:45:22.000Z</Time>
            <Position>
              <LatitudeDegrees>43.28294240869581699371337890625</LatitudeDegrees>
              <LongitudeDegrees>-2.73968950845301151275634765625</LongitudeDegrees>
            </Position>
            <AltitudeMeters>267.399993896484375</AltitudeMeters>
            <DistanceMeters>NAN</DistanceMeters>
          </Trackpoint>
          <Trackpoint>
            <Time>2022-07-11T16:45:24.000Z</Time>
            <Position>
              <LatitudeDegrees>43.2829491980373859405517578125</LatitudeDegrees>
              <LongitudeDegrees>-2.73970928974449634552001953125</LongitudeDegrees>
            </Position>
            <AltitudeMeters>267.600006103515625</AltitudeMeters>
            <DistanceMeters>NAN</DistanceMeters>
          </Trackpoint>
          <Trackpoint>
            <Time>2022-07-11T16:45:29.000Z</Time>
            <Position>
              <LatitudeDegrees>43.28299169428646564483642578125</LatitudeDegrees>
              <LongitudeDegrees>-2.73972253315150737762451171875</LongitudeDegrees>
            </Position>
            <AltitudeMeters>268.20001220703125</AltitudeMeters>
            <DistanceMeters>NAN</DistanceMeters>
          </Trackpoint>
          <Trackpoint>
            <Time>2022-07-11T16:45:30.000Z</Time>
            <Position>
              <LatitudeDegrees>43.2829880900681018829345703125</LatitudeDegrees>
              <LongitudeDegrees>-2.7397070266306400299072265625</LongitudeDegrees>
            </Position>
            <AltitudeMeters>268.20001220703125</AltitudeMeters>
            <DistanceMeters>NAN</DistanceMeters>
          </Trackpoint>
          <Trackpoint>
            <Time>2022-07-11T16:45:31.000Z</Time>
            <Position>
              <LatitudeDegrees>43.28299571759998798370361328125</LatitudeDegrees>
              <LongitudeDegrees>-2.73971515707671642303466796875</LongitudeDegrees>
            </Position>
            <AltitudeMeters>268.399993896484375</AltitudeMeters>
            <DistanceMeters>NAN</DistanceMeters>
          </Trackpoint>
          <Trackpoint>
            <Time>2022-07-11T16:45:35.000Z</Time>
            <Position>
              <LatitudeDegrees>43.28305891714990139007568359375</LatitudeDegrees>
              <LongitudeDegrees>-2.739768885076045989990234375</LongitudeDegrees>
            </Position>
            <AltitudeMeters>268.600006103515625</AltitudeMeters>
            <DistanceMeters>NAN</DistanceMeters>
          </Trackpoint>
          <Trackpoint>
            <Time>2022-07-11T16:45:36.000Z</Time>
            <Position>
              <LatitudeDegrees>43.28307098709046840667724609375</LatitudeDegrees>
              <LongitudeDegrees>-2.7397817932069301605224609375</LongitudeDegrees>
            </Position>
            <AltitudeMeters>268.79998779296875</AltitudeMeters>
            <DistanceMeters>NAN</DistanceMeters>
          </Trackpoint>
          <Trackpoint>
            <Time>2022-07-11T16:45:38.000Z</Time>
            <Position>
              <LatitudeDegrees>43.28308842144906520843505859375</LatitudeDegrees>
              <LongitudeDegrees>-2.73979880847036838531494140625</LongitudeDegrees>
            </Position>
            <AltitudeMeters>269</AltitudeMeters>
            <DistanceMeters>NAN</DistanceMeters>
          </Trackpoint>
          <Trackpoint>
            <Time>2022-07-11T16:45:43.000Z</Time>
            <Position>
              <LatitudeDegrees>43.2831327617168426513671875</LatitudeDegrees>
              <LongitudeDegrees>-2.73983568884432315826416015625</LongitudeDegrees>
            </Position>
            <AltitudeMeters>269.399993896484375</AltitudeMeters>
            <DistanceMeters>NAN</DistanceMeters>
          </Trackpoint>
          <Trackpoint>
            <Time>2022-07-11T16:45:45.000Z</Time>
            <Position>
              <LatitudeDegrees>43.283171989023685455322265625</LatitudeDegrees>
              <LongitudeDegrees>-2.73987072519958019256591796875</LongitudeDegrees>
            </Position>
            <AltitudeMeters>269.79998779296875</AltitudeMeters>
            <DistanceMeters>NAN</DistanceMeters>
          </Trackpoint>
          <Trackpoint>
            <Time>2022-07-11T16:45:46.000Z</Time>
            <Position>
              <LatitudeDegrees>43.2831989787518978118896484375</LatitudeDegrees>
              <LongitudeDegrees>-2.739893607795238494873046875</LongitudeDegrees>
            </Position>
            <AltitudeMeters>269.79998779296875</AltitudeMeters>
            <DistanceMeters>NAN</DistanceMeters>
          </Trackpoint>
          <Trackpoint>
            <Time>2022-07-11T16:45:49.000Z</Time>
            <Position>
              <LatitudeDegrees>43.28323493711650371551513671875</LatitudeDegrees>
              <LongitudeDegrees>-2.73993627168238162994384765625</LongitudeDegrees>
            </Position>
            <AltitudeMeters>270</AltitudeMeters>
            <DistanceMeters>NAN</DistanceMeters>
          </Trackpoint>
          <Trackpoint>
            <Time>2022-07-11T16:45:53.000Z</Time>
            <Position>
              <LatitudeDegrees>43.28326310031116008758544921875</LatitudeDegrees>
              <LongitudeDegrees>-2.7399752475321292877197265625</LongitudeDegrees>
            </Position>
            <AltitudeMeters>270.600006103515625</AltitudeMeters>
            <DistanceMeters>NAN</DistanceMeters>
          </Trackpoint>
          <Trackpoint>
            <Time>2022-07-11T16:45:56.000Z</Time>
            <Position>
              <LatitudeDegrees>43.28329704701900482177734375</LatitudeDegrees>
              <LongitudeDegrees>-2.7400101162493228912353515625</LongitudeDegrees>
            </Position>
            <AltitudeMeters>270.79998779296875</AltitudeMeters>
            <DistanceMeters>NAN</DistanceMeters>
          </Trackpoint>
          <Trackpoint>
            <Time>2022-07-11T16:46:00.000Z</Time>
            <Position>
              <LatitudeDegrees>43.28334239311516284942626953125</LatitudeDegrees>
              <LongitudeDegrees>-2.74006719700992107391357421875</LongitudeDegrees>
            </Position>
            <AltitudeMeters>271.20001220703125</AltitudeMeters>
            <DistanceMeters>NAN</DistanceMeters>
          </Trackpoint>
          <Trackpoint>
            <Time>2022-07-11T16:46:04.000Z</Time>
            <Position>
              <LatitudeDegrees>43.28337709419429302215576171875</LatitudeDegrees>
              <LongitudeDegrees>-2.74012587033212184906005859375</LongitudeDegrees>
            </Position>
            <AltitudeMeters>271.399993896484375</AltitudeMeters>
            <DistanceMeters>NAN</DistanceMeters>
          </Trackpoint>
          <Trackpoint>
            <Time>2022-07-11T16:46:11.000Z</Time>
            <Position>
              <LatitudeDegrees>43.28343643806874752044677734375</LatitudeDegrees>
              <LongitudeDegrees>-2.7402163110673427581787109375</LongitudeDegrees>
            </Position>
            <AltitudeMeters>271.79998779296875</AltitudeMeters>
            <DistanceMeters>NAN</DistanceMeters>
          </Trackpoint>
          <Trackpoint>
            <Time>2022-07-11T16:46:12.000Z</Time>
            <Position>
              <LatitudeDegrees>43.28344381414353847503662109375</LatitudeDegrees>
              <LongitudeDegrees>-2.7402297221124172210693359375</LongitudeDegrees>
            </Position>
            <AltitudeMeters>272</AltitudeMeters>
            <DistanceMeters>NAN</DistanceMeters>
          </Trackpoint>
          <Trackpoint>
            <Time>2022-07-11T16:46:19.000Z</Time>
            <Position>
              <LatitudeDegrees>43.2835037447512149810791015625</LatitudeDegrees>
              <LongitudeDegrees>-2.74032837711274623870849609375</LongitudeDegrees>
            </Position>
            <AltitudeMeters>272.399993896484375</AltitudeMeters>
            <DistanceMeters>NAN</DistanceMeters>
          </Trackpoint>
          <Trackpoint>
            <Time>2022-07-11T16:46:20.000Z</Time>
            <Position>
              <LatitudeDegrees>43.28351237811148166656494140625</LatitudeDegrees>
              <LongitudeDegrees>-2.74035218171775341033935546875</LongitudeDegrees>
            </Position>
            <AltitudeMeters>272.600006103515625</AltitudeMeters>
            <DistanceMeters>NAN</DistanceMeters>
          </Trackpoint>
          <Trackpoint>
            <Time>2022-07-11T16:46:22.000Z</Time>
            <Position>
              <LatitudeDegrees>43.2835268788039684295654296875</LatitudeDegrees>
              <LongitudeDegrees>-2.74038487114012241363525390625</LongitudeDegrees>
            </Position>
            <AltitudeMeters>272.600006103515625</AltitudeMeters>
            <DistanceMeters>NAN</DistanceMeters>
          </Trackpoint>
          <Trackpoint>
            <Time>2022-07-11T16:46:24.000Z</Time>
            <Position>
              <LatitudeDegrees>43.2835362665355205535888671875</LatitudeDegrees>
              <LongitudeDegrees>-2.740406580269336700439453125</LongitudeDegrees>
            </Position>
            <AltitudeMeters>272.79998779296875</AltitudeMeters>
            <DistanceMeters>NAN</DistanceMeters>
          </Trackpoint>
          <Trackpoint>
            <Time>2022-07-11T16:46:25.000Z</Time>
            <Position>
              <LatitudeDegrees>43.28353903256356716156005859375</LatitudeDegrees>
              <LongitudeDegrees>-2.74042242206633090972900390625</LongitudeDegrees>
            </Position>
            <AltitudeMeters>272.79998779296875</AltitudeMeters>
            <DistanceMeters>NAN</DistanceMeters>
          </Trackpoint>
          <Trackpoint>
            <Time>2022-07-11T16:46:26.000Z</Time>
            <Position>
              <LatitudeDegrees>43.28354506753385066986083984375</LatitudeDegrees>
              <LongitudeDegrees>-2.7404399402439594268798828125</LongitudeDegrees>
            </Position>
            <AltitudeMeters>273</AltitudeMeters>
            <DistanceMeters>NAN</DistanceMeters>
          </Trackpoint>
          <Trackpoint>
            <Time>2022-07-11T16:46:27.000Z</Time>
            <Position>
              <LatitudeDegrees>43.28355294652283191680908203125</LatitudeDegrees>
              <LongitudeDegrees>-2.74046097882091999053955078125</LongitudeDegrees>
            </Position>
            <AltitudeMeters>273.20001220703125</AltitudeMeters>
            <DistanceMeters>NAN</DistanceMeters>
          </Trackpoint>
          <Trackpoint>
            <Time>2022-07-11T16:46:35.000Z</Time>
            <Position>
              <LatitudeDegrees>43.28361430205404758453369140625</LatitudeDegrees>
              <LongitudeDegrees>-2.74059995077550411224365234375</LongitudeDegrees>
            </Position>
            <AltitudeMeters>273.79998779296875</AltitudeMeters>
            <DistanceMeters>NAN</DistanceMeters>
          </Trackpoint>
          <Trackpoint>
            <Time>2022-07-11T16:46:40.000Z</Time>
            <Position>
              <LatitudeDegrees>43.283650763332843780517578125</LatitudeDegrees>
              <LongitudeDegrees>-2.740673460066318511962890625</LongitudeDegrees>
            </Position>
            <AltitudeMeters>274</AltitudeMeters>
            <DistanceMeters>NAN</DistanceMeters>
          </Trackpoint>
          <Trackpoint>
            <Time>2022-07-11T16:46:41.000Z</Time>
            <Position>
              <LatitudeDegrees>43.28365872614085674285888671875</LatitudeDegrees>
              <LongitudeDegrees>-2.740690223872661590576171875</LongitudeDegrees>
            </Position>
            <AltitudeMeters>274.20001220703125</AltitudeMeters>
            <DistanceMeters>NAN</DistanceMeters>
          </Trackpoint>
          <Trackpoint>
            <Time>2022-07-11T16:46:42.000Z</Time>
            <Position>
              <LatitudeDegrees>43.2836700417101383209228515625</LatitudeDegrees>
              <LongitudeDegrees>-2.740708328783512115478515625</LongitudeDegrees>
            </Position>
            <AltitudeMeters>274.20001220703125</AltitudeMeters>
            <DistanceMeters>NAN</DistanceMeters>
          </Trackpoint>
          <Trackpoint>
            <Time>2022-07-11T16:46:50.000Z</Time>
            <Position>
              <LatitudeDegrees>43.28372360207140445709228515625</LatitudeDegrees>
              <LongitudeDegrees>-2.74085660465061664581298828125</LongitudeDegrees>
            </Position>
            <AltitudeMeters>274.399993896484375</AltitudeMeters>
            <DistanceMeters>NAN</DistanceMeters>
          </Trackpoint>
          <Trackpoint>
            <Time>2022-07-11T16:46:55.000Z</Time>
            <Position>
              <LatitudeDegrees>43.28377389349043369293212890625</LatitudeDegrees>
              <LongitudeDegrees>-2.74094176478683948516845703125</LongitudeDegrees>
            </Position>
            <AltitudeMeters>274.79998779296875</AltitudeMeters>
            <DistanceMeters>NAN</DistanceMeters>
          </Trackpoint>
          <Trackpoint>
            <Time>2022-07-11T16:46:59.000Z</Time>
            <Position>
              <LatitudeDegrees>43.283817060291767120361328125</LatitudeDegrees>
              <LongitudeDegrees>-2.74102021940052509307861328125</LongitudeDegrees>
            </Position>
            <AltitudeMeters>274.79998779296875</AltitudeMeters>
            <DistanceMeters>NAN</DistanceMeters>
          </Trackpoint>
          <Trackpoint>
            <Time>2022-07-11T16:47:03.000Z</Time>
            <Position>
              <LatitudeDegrees>43.283846564590930938720703125</LatitudeDegrees>
              <LongitudeDegrees>-2.7410689182579517364501953125</LongitudeDegrees>
            </Position>
            <AltitudeMeters>275</AltitudeMeters>
            <DistanceMeters>NAN</DistanceMeters>
          </Trackpoint>
          <Trackpoint>
            <Time>2022-07-11T16:47:05.000Z</Time>
            <Position>
              <LatitudeDegrees>43.2838691957294940948486328125</LatitudeDegrees>
              <LongitudeDegrees>-2.7410923875868320465087890625</LongitudeDegrees>
            </Position>
            <AltitudeMeters>275.20001220703125</AltitudeMeters>
            <DistanceMeters>NAN</DistanceMeters>
          </Trackpoint>
          <Trackpoint>
            <Time>2022-07-11T16:47:06.000Z</Time>
            <Position>
              <LatitudeDegrees>43.28388319350779056549072265625</LatitudeDegrees>
              <LongitudeDegrees>-2.74110621772706508636474609375</LongitudeDegrees>
            </Position>
            <AltitudeMeters>275.20001220703125</AltitudeMeters>
            <DistanceMeters>NAN</DistanceMeters>
          </Trackpoint>
          <Trackpoint>
            <Time>2022-07-11T16:47:14.000Z</Time>
            <Position>
              <LatitudeDegrees>43.2839774899184703826904296875</LatitudeDegrees>
              <LongitudeDegrees>-2.7412006817758083343505859375</LongitudeDegrees>
            </Position>
            <AltitudeMeters>275.399993896484375</AltitudeMeters>
            <DistanceMeters>NAN</DistanceMeters>
          </Trackpoint>
          <Trackpoint>
            <Time>2022-07-11T16:47:15.000Z</Time>
            <Position>
              <LatitudeDegrees>43.2839942537248134613037109375</LatitudeDegrees>
              <LongitudeDegrees>-2.7412248216569423675537109375</LongitudeDegrees>
            </Position>
            <AltitudeMeters>275.600006103515625</AltitudeMeters>
            <DistanceMeters>NAN</DistanceMeters>
          </Trackpoint>
          <Trackpoint>
            <Time>2022-07-11T16:47:17.000Z</Time>
            <Position>
              <LatitudeDegrees>43.28402350656688213348388671875</LatitudeDegrees>
              <LongitudeDegrees>-2.74125709198415279388427734375</LongitudeDegrees>
            </Position>
            <AltitudeMeters>275.600006103515625</AltitudeMeters>
            <DistanceMeters>NAN</DistanceMeters>
          </Trackpoint>
          <Trackpoint>
            <Time>2022-07-11T16:47:21.000Z</Time>
            <Position>
              <LatitudeDegrees>43.28410984016954898834228515625</LatitudeDegrees>
              <LongitudeDegrees>-2.741306126117706298828125</LongitudeDegrees>
            </Position>
            <AltitudeMeters>275.600006103515625</AltitudeMeters>
            <DistanceMeters>NAN</DistanceMeters>
          </Trackpoint>
          <Trackpoint>
            <Time>2022-07-11T16:47:30.000Z</Time>
            <Position>
              <LatitudeDegrees>43.28423850238323211669921875</LatitudeDegrees>
              <LongitudeDegrees>-2.74138365872204303741455078125</LongitudeDegrees>
            </Position>
            <AltitudeMeters>276</AltitudeMeters>
            <DistanceMeters>NAN</DistanceMeters>
          </Trackpoint>
          <Trackpoint>
            <Time>2022-07-11T16:47:34.000Z</Time>
            <Position>
              <LatitudeDegrees>43.28433296643197536468505859375</LatitudeDegrees>
              <LongitudeDegrees>-2.7414454333484172821044921875</LongitudeDegrees>
            </Position>
            <AltitudeMeters>276.20001220703125</AltitudeMeters>
            <DistanceMeters>NAN</DistanceMeters>
          </Trackpoint>
          <Trackpoint>
            <Time>2022-07-11T16:47:37.000Z</Time>
            <Position>
              <LatitudeDegrees>43.28438459895551204681396484375</LatitudeDegrees>
              <LongitudeDegrees>-2.7414766140282154083251953125</LongitudeDegrees>
            </Position>
            <AltitudeMeters>276.399993896484375</AltitudeMeters>
            <DistanceMeters>NAN</DistanceMeters>
          </Trackpoint>
          <Trackpoint>
            <Time>2022-07-11T16:47:45.000Z</Time>
            <Position>
              <LatitudeDegrees>43.284556008875370025634765625</LatitudeDegrees>
              <LongitudeDegrees>-2.74153486825525760650634765625</LongitudeDegrees>
            </Position>
            <AltitudeMeters>276.399993896484375</AltitudeMeters>
            <DistanceMeters>NAN</DistanceMeters>
          </Trackpoint>
          <Trackpoint>
            <Time>2022-07-11T16:47:49.000Z</Time>
            <Position>
              <LatitudeDegrees>43.28463505022227764129638671875</LatitudeDegrees>
              <LongitudeDegrees>-2.74155213497579097747802734375</LongitudeDegrees>
            </Position>
            <AltitudeMeters>276.79998779296875</AltitudeMeters>
            <DistanceMeters>NAN</DistanceMeters>
          </Trackpoint>
          <Trackpoint>
            <Time>2022-07-11T16:47:53.000Z</Time>
            <Position>
              <LatitudeDegrees>43.28472423367202281951904296875</LatitudeDegrees>
              <LongitudeDegrees>-2.7415976487100124359130859375</LongitudeDegrees>
            </Position>
            <AltitudeMeters>276.79998779296875</AltitudeMeters>
            <DistanceMeters>NAN</DistanceMeters>
          </Trackpoint>
          <Trackpoint>
            <Time>2022-07-11T16:47:54.000Z</Time>
            <Position>
              <LatitudeDegrees>43.2847466133534908294677734375</LatitudeDegrees>
              <LongitudeDegrees>-2.74160695262253284454345703125</LongitudeDegrees>
            </Position>
            <AltitudeMeters>276.79998779296875</AltitudeMeters>
            <DistanceMeters>NAN</DistanceMeters>
          </Trackpoint>
          <Trackpoint>
            <Time>2022-07-11T16:48:02.000Z</Time>
            <Position>
              <LatitudeDegrees>43.28485675156116485595703125</LatitudeDegrees>
              <LongitudeDegrees>-2.74165104143321514129638671875</LongitudeDegrees>
            </Position>
            <AltitudeMeters>277.20001220703125</AltitudeMeters>
            <DistanceMeters>NAN</DistanceMeters>
          </Trackpoint>
          <Trackpoint>
            <Time>2022-07-11T16:48:03.000Z</Time>
            <Position>
              <LatitudeDegrees>43.28487024642527103424072265625</LatitudeDegrees>
              <LongitudeDegrees>-2.74166227318346500396728515625</LongitudeDegrees>
            </Position>
            <AltitudeMeters>277.20001220703125</AltitudeMeters>
            <DistanceMeters>NAN</DistanceMeters>
          </Trackpoint>
          <Trackpoint>
            <Time>2022-07-11T16:48:07.000Z</Time>
            <Position>
              <LatitudeDegrees>43.28491978347301483154296875</LatitudeDegrees>
              <LongitudeDegrees>-2.74172161705791950225830078125</LongitudeDegrees>
            </Position>
            <AltitudeMeters>277.600006103515625</AltitudeMeters>
            <DistanceMeters>NAN</DistanceMeters>
          </Trackpoint>
          <Trackpoint>
            <Time>2022-07-11T16:48:09.000Z</Time>
            <Position>
              <LatitudeDegrees>43.28492975793778896331787109375</LatitudeDegrees>
              <LongitudeDegrees>-2.7417629398405551910400390625</LongitudeDegrees>
            </Position>
            <AltitudeMeters>277.600006103515625</AltitudeMeters>
            <DistanceMeters>NAN</DistanceMeters>
          </Trackpoint>
          <Trackpoint>
            <Time>2022-07-11T16:48:12.000Z</Time>
            <Position>
              <LatitudeDegrees>43.28490427695214748382568359375</LatitudeDegrees>
              <LongitudeDegrees>-2.7418209426105022430419921875</LongitudeDegrees>
            </Position>
            <AltitudeMeters>277.79998779296875</AltitudeMeters>
            <DistanceMeters>NAN</DistanceMeters>
          </Trackpoint>
          <Trackpoint>
            <Time>2022-07-11T16:48:15.000Z</Time>
            <Position>
              <LatitudeDegrees>43.28486471436917781829833984375</LatitudeDegrees>
              <LongitudeDegrees>-2.741853296756744384765625</LongitudeDegrees>
            </Position>
            <AltitudeMeters>278.20001220703125</AltitudeMeters>
            <DistanceMeters>NAN</DistanceMeters>
          </Trackpoint>
          <Trackpoint>
            <Time>2022-07-11T16:48:16.000Z</Time>
            <Position>
              <LatitudeDegrees>43.28485096804797649383544921875</LatitudeDegrees>
              <LongitudeDegrees>-2.74186561815440654754638671875</LongitudeDegrees>
            </Position>
            <AltitudeMeters>278.399993896484375</AltitudeMeters>
            <DistanceMeters>NAN</DistanceMeters>
          </Trackpoint>
          <Trackpoint>
            <Time>2022-07-11T16:48:18.000Z</Time>
            <Position>
              <LatitudeDegrees>43.28481794334948062896728515625</LatitudeDegrees>
              <LongitudeDegrees>-2.7418903447687625885009765625</LongitudeDegrees>
            </Position>
            <AltitudeMeters>278.399993896484375</AltitudeMeters>
            <DistanceMeters>NAN</DistanceMeters>
          </Trackpoint>
          <Trackpoint>
            <Time>2022-07-11T16:48:24.000Z</Time>
            <Position>
              <LatitudeDegrees>43.28472138382494449615478515625</LatitudeDegrees>
              <LongitudeDegrees>-2.74194641970098018646240234375</LongitudeDegrees>
            </Position>
            <AltitudeMeters>278.399993896484375</AltitudeMeters>
            <DistanceMeters>NAN</DistanceMeters>
          </Trackpoint>
          <Trackpoint>
            <Time>2022-07-11T16:48:29.000Z</Time>
            <Position>
              <LatitudeDegrees>43.284670002758502960205078125</LatitudeDegrees>
              <LongitudeDegrees>-2.74197676219046115875244140625</LongitudeDegrees>
            </Position>
            <AltitudeMeters>278.20001220703125</AltitudeMeters>
            <DistanceMeters>NAN</DistanceMeters>
          </Trackpoint>
          <Trackpoint>
            <Time>2022-07-11T16:48:32.000Z</Time>
            <Position>
              <LatitudeDegrees>43.284670002758502960205078125</LatitudeDegrees>
              <LongitudeDegrees>-2.74197676219046115875244140625</LongitudeDegrees>
            </Position>
            <AltitudeMeters>278.20001220703125</AltitudeMeters>
            <DistanceMeters>NAN</DistanceMeters>
          </Trackpoint>
          <Trackpoint>
            <Time>2022-07-11T16:52:22.000Z</Time>
            <Position>
              <LatitudeDegrees>43.28466556034982204437255859375</LatitudeDegrees>
              <LongitudeDegrees>-2.74204683490097522735595703125</LongitudeDegrees>
            </Position>
            <AltitudeMeters>274</AltitudeMeters>
            <DistanceMeters>NAN</DistanceMeters>
          </Trackpoint>
          <Trackpoint>
            <Time>2022-07-11T16:52:23.000Z</Time>
            <Position>
              <LatitudeDegrees>43.2846550829708576202392578125</LatitudeDegrees>
              <LongitudeDegrees>-2.742064185440540313720703125</LongitudeDegrees>
            </Position>
            <AltitudeMeters>274</AltitudeMeters>
            <DistanceMeters>NAN</DistanceMeters>
          </Trackpoint>
          <Trackpoint>
            <Time>2022-07-11T16:52:24.000Z</Time>
            <Position>
              <LatitudeDegrees>43.28463940881192684173583984375</LatitudeDegrees>
              <LongitudeDegrees>-2.74208120070397853851318359375</LongitudeDegrees>
            </Position>
            <AltitudeMeters>274</AltitudeMeters>
            <DistanceMeters>NAN</DistanceMeters>
          </Trackpoint>
          <Trackpoint>
            <Time>2022-07-11T16:52:29.000Z</Time>
            <Position>
              <LatitudeDegrees>43.2845779694616794586181640625</LatitudeDegrees>
              <LongitudeDegrees>-2.742155380547046661376953125</LongitudeDegrees>
            </Position>
            <AltitudeMeters>274</AltitudeMeters>
            <DistanceMeters>NAN</DistanceMeters>
          </Trackpoint>
          <Trackpoint>
            <Time>2022-07-11T16:52:30.000Z</Time>
            <Position>
              <LatitudeDegrees>43.2845645584166049957275390625</LatitudeDegrees>
              <LongitudeDegrees>-2.74217206053435802459716796875</LongitudeDegrees>
            </Position>
            <AltitudeMeters>274.20001220703125</AltitudeMeters>
            <DistanceMeters>NAN</DistanceMeters>
          </Trackpoint>
          <Trackpoint>
            <Time>2022-07-11T16:52:36.000Z</Time>
            <Position>
              <LatitudeDegrees>43.28450043685734272003173828125</LatitudeDegrees>
              <LongitudeDegrees>-2.742343805730342864990234375</LongitudeDegrees>
            </Position>
            <AltitudeMeters>273.399993896484375</AltitudeMeters>
            <DistanceMeters>NAN</DistanceMeters>
          </Trackpoint>
          <Trackpoint>
            <Time>2022-07-11T16:52:39.000Z</Time>
            <Position>
              <LatitudeDegrees>43.28444209881126880645751953125</LatitudeDegrees>
              <LongitudeDegrees>-2.74247833527624607086181640625</LongitudeDegrees>
            </Position>
            <AltitudeMeters>272.600006103515625</AltitudeMeters>
            <DistanceMeters>NAN</DistanceMeters>
          </Trackpoint>
          <Trackpoint>
            <Time>2022-07-11T16:52:41.000Z</Time>
            <Position>
              <LatitudeDegrees>43.28438744880259037017822265625</LatitudeDegrees>
              <LongitudeDegrees>-2.7425652556121349334716796875</LongitudeDegrees>
            </Position>
            <AltitudeMeters>272.20001220703125</AltitudeMeters>
            <DistanceMeters>NAN</DistanceMeters>
          </Trackpoint>
          <Trackpoint>
            <Time>2022-07-11T16:52:42.000Z</Time>
            <Position>
              <LatitudeDegrees>43.284351825714111328125</LatitudeDegrees>
              <LongitudeDegrees>-2.74260473437607288360595703125</LongitudeDegrees>
            </Position>
            <AltitudeMeters>271.79998779296875</AltitudeMeters>
            <DistanceMeters>NAN</DistanceMeters>
          </Trackpoint>
          <Trackpoint>
            <Time>2022-07-11T16:52:43.000Z</Time>
            <Position>
              <LatitudeDegrees>43.284321315586566925048828125</LatitudeDegrees>
              <LongitudeDegrees>-2.74263055063784122467041015625</LongitudeDegrees>
            </Position>
            <AltitudeMeters>271.399993896484375</AltitudeMeters>
            <DistanceMeters>NAN</DistanceMeters>
          </Trackpoint>
          <Trackpoint>
            <Time>2022-07-11T16:52:45.000Z</Time>
            <Position>
              <LatitudeDegrees>43.284247554838657379150390625</LatitudeDegrees>
              <LongitudeDegrees>-2.74268620647490024566650390625</LongitudeDegrees>
            </Position>
            <AltitudeMeters>270.600006103515625</AltitudeMeters>
            <DistanceMeters>NAN</DistanceMeters>
          </Trackpoint>
          <Trackpoint>
            <Time>2022-07-11T16:52:46.000Z</Time>
            <Position>
              <LatitudeDegrees>43.2842029631137847900390625</LatitudeDegrees>
              <LongitudeDegrees>-2.7427141182124614715576171875</LongitudeDegrees>
            </Position>
            <AltitudeMeters>270.20001220703125</AltitudeMeters>
            <DistanceMeters>NAN</DistanceMeters>
          </Trackpoint>
          <Trackpoint>
            <Time>2022-07-11T16:52:49.000Z</Time>
            <Position>
              <LatitudeDegrees>43.28409290872514247894287109375</LatitudeDegrees>
              <LongitudeDegrees>-2.7427825145423412322998046875</LongitudeDegrees>
            </Position>
            <AltitudeMeters>269</AltitudeMeters>
            <DistanceMeters>NAN</DistanceMeters>
          </Trackpoint>
          <Trackpoint>
            <Time>2022-07-11T16:52:51.000Z</Time>
            <Position>
              <LatitudeDegrees>43.2840044796466827392578125</LatitudeDegrees>
              <LongitudeDegrees>-2.74282987229526042938232421875</LongitudeDegrees>
            </Position>
            <AltitudeMeters>267.79998779296875</AltitudeMeters>
            <DistanceMeters>NAN</DistanceMeters>
          </Trackpoint>
          <Trackpoint>
            <Time>2022-07-11T16:52:52.000Z</Time>
            <Position>
              <LatitudeDegrees>43.2839506678283214569091796875</LatitudeDegrees>
              <LongitudeDegrees>-2.7428602986037731170654296875</LongitudeDegrees>
            </Position>
            <AltitudeMeters>267.20001220703125</AltitudeMeters>
            <DistanceMeters>NAN</DistanceMeters>
          </Trackpoint>
          <Trackpoint>
            <Time>2022-07-11T16:52:53.000Z</Time>
            <Position>
              <LatitudeDegrees>43.28389559872448444366455078125</LatitudeDegrees>
              <LongitudeDegrees>-2.74288100190460681915283203125</LongitudeDegrees>
            </Position>
            <AltitudeMeters>266.600006103515625</AltitudeMeters>
            <DistanceMeters>NAN</DistanceMeters>
          </Trackpoint>
          <Trackpoint>
            <Time>2022-07-11T16:52:54.000Z</Time>
            <Position>
              <LatitudeDegrees>43.28384111635386943817138671875</LatitudeDegrees>
              <LongitudeDegrees>-2.74290136992931365966796875</LongitudeDegrees>
            </Position>
            <AltitudeMeters>266</AltitudeMeters>
            <DistanceMeters>NAN</DistanceMeters>
          </Trackpoint>
          <Trackpoint>
            <Time>2022-07-11T16:52:56.000Z</Time>
            <Position>
              <LatitudeDegrees>43.28373290598392486572265625</LatitudeDegrees>
              <LongitudeDegrees>-2.74294788949191570281982421875</LongitudeDegrees>
            </Position>
            <AltitudeMeters>265</AltitudeMeters>
            <DistanceMeters>NAN</DistanceMeters>
          </Trackpoint>
          <Trackpoint>
            <Time>2022-07-11T16:52:57.000Z</Time>
            <Position>
              <LatitudeDegrees>43.28367431648075580596923828125</LatitudeDegrees>
              <LongitudeDegrees>-2.74297320283949375152587890625</LongitudeDegrees>
            </Position>
            <AltitudeMeters>264.600006103515625</AltitudeMeters>
            <DistanceMeters>NAN</DistanceMeters>
          </Trackpoint>
          <Trackpoint>
            <Time>2022-07-11T16:52:58.000Z</Time>
            <Position>
              <LatitudeDegrees>43.28361622989177703857421875</LatitudeDegrees>
              <LongitudeDegrees>-2.74299616925418376922607421875</LongitudeDegrees>
            </Position>
            <AltitudeMeters>264</AltitudeMeters>
            <DistanceMeters>NAN</DistanceMeters>
          </Trackpoint>
          <Trackpoint>
            <Time>2022-07-11T16:52:59.000Z</Time>
            <Position>
              <LatitudeDegrees>43.2835630886256694793701171875</LatitudeDegrees>
              <LongitudeDegrees>-2.743019051849842071533203125</LongitudeDegrees>
            </Position>
            <AltitudeMeters>263.600006103515625</AltitudeMeters>
            <DistanceMeters>NAN</DistanceMeters>
          </Trackpoint>
          <Trackpoint>
            <Time>2022-07-11T16:53:00.000Z</Time>
            <Position>
              <LatitudeDegrees>43.2835270464420318603515625</LatitudeDegrees>
              <LongitudeDegrees>-2.7430386655032634735107421875</LongitudeDegrees>
            </Position>
            <AltitudeMeters>263</AltitudeMeters>
            <DistanceMeters>NAN</DistanceMeters>
          </Trackpoint>
          <Trackpoint>
            <Time>2022-07-11T16:53:01.000Z</Time>
            <Position>
              <LatitudeDegrees>43.28349175862967967987060546875</LatitudeDegrees>
              <LongitudeDegrees>-2.74306724779307842254638671875</LongitudeDegrees>
            </Position>
            <AltitudeMeters>262</AltitudeMeters>
            <DistanceMeters>NAN</DistanceMeters>
          </Trackpoint>
          <Trackpoint>
            <Time>2022-07-11T16:53:02.000Z</Time>
            <Position>
              <LatitudeDegrees>43.28347004950046539306640625</LatitudeDegrees>
              <LongitudeDegrees>-2.743083424866199493408203125</LongitudeDegrees>
            </Position>
            <AltitudeMeters>261</AltitudeMeters>
            <DistanceMeters>NAN</DistanceMeters>
          </Trackpoint>
          <Trackpoint>
            <Time>2022-07-11T16:53:03.000Z</Time>
            <Position>
              <LatitudeDegrees>43.28344347886741161346435546875</LatitudeDegrees>
              <LongitudeDegrees>-2.74308937601745128631591796875</LongitudeDegrees>
            </Position>
            <AltitudeMeters>260.399993896484375</AltitudeMeters>
            <DistanceMeters>NAN</DistanceMeters>
          </Trackpoint>
          <Trackpoint>
            <Time>2022-07-11T16:53:05.000Z</Time>
            <Position>
              <LatitudeDegrees>43.28337348997592926025390625</LatitudeDegrees>
              <LongitudeDegrees>-2.7430909685790538787841796875</LongitudeDegrees>
            </Position>
            <AltitudeMeters>259.79998779296875</AltitudeMeters>
            <DistanceMeters>NAN</DistanceMeters>
          </Trackpoint>
          <Trackpoint>
            <Time>2022-07-11T16:53:06.000Z</Time>
            <Position>
              <LatitudeDegrees>43.2833384536206722259521484375</LatitudeDegrees>
              <LongitudeDegrees>-2.74310764856636524200439453125</LongitudeDegrees>
            </Position>
            <AltitudeMeters>259.79998779296875</AltitudeMeters>
            <DistanceMeters>NAN</DistanceMeters>
          </Trackpoint>
          <Trackpoint>
            <Time>2022-07-11T16:53:07.000Z</Time>
            <Position>
              <LatitudeDegrees>43.28329729847609996795654296875</LatitudeDegrees>
              <LongitudeDegrees>-2.7431449480354785919189453125</LongitudeDegrees>
            </Position>
            <AltitudeMeters>259.79998779296875</AltitudeMeters>
            <DistanceMeters>NAN</DistanceMeters>
          </Trackpoint>
          <Trackpoint>
            <Time>2022-07-11T16:53:09.000Z</Time>
            <Position>
              <LatitudeDegrees>43.2832794450223445892333984375</LatitudeDegrees>
              <LongitudeDegrees>-2.7432519011199474334716796875</LongitudeDegrees>
            </Position>
            <AltitudeMeters>260</AltitudeMeters>
            <DistanceMeters>NAN</DistanceMeters>
          </Trackpoint>
          <Trackpoint>
            <Time>2022-07-11T16:53:12.000Z</Time>
            <Position>
              <LatitudeDegrees>43.2833153195679187774658203125</LatitudeDegrees>
              <LongitudeDegrees>-2.7433441020548343658447265625</LongitudeDegrees>
            </Position>
            <AltitudeMeters>260</AltitudeMeters>
            <DistanceMeters>NAN</DistanceMeters>
          </Trackpoint>
          <Trackpoint>
            <Time>2022-07-11T16:53:17.000Z</Time>
            <Position>
              <LatitudeDegrees>43.283329904079437255859375</LatitudeDegrees>
              <LongitudeDegrees>-2.74342842400074005126953125</LongitudeDegrees>
            </Position>
            <AltitudeMeters>260.79998779296875</AltitudeMeters>
            <DistanceMeters>NAN</DistanceMeters>
          </Trackpoint>
          <Trackpoint>
            <Time>2022-07-11T16:53:18.000Z</Time>
            <Position>
              <LatitudeDegrees>43.2833411358296871185302734375</LatitudeDegrees>
              <LongitudeDegrees>-2.74344560690224170684814453125</LongitudeDegrees>
            </Position>
            <AltitudeMeters>260.79998779296875</AltitudeMeters>
            <DistanceMeters>NAN</DistanceMeters>
          </Trackpoint>
          <Trackpoint>
            <Time>2022-07-11T16:53:21.000Z</Time>
            <Position>
              <LatitudeDegrees>43.28341238200664520263671875</LatitudeDegrees>
              <LongitudeDegrees>-2.74349070154130458831787109375</LongitudeDegrees>
            </Position>
            <AltitudeMeters>261.399993896484375</AltitudeMeters>
            <DistanceMeters>NAN</DistanceMeters>
          </Trackpoint>
          <Trackpoint>
            <Time>2022-07-11T16:53:23.000Z</Time>
            <Position>
              <LatitudeDegrees>43.28341011889278888702392578125</LatitudeDegrees>
              <LongitudeDegrees>-2.7435124106705188751220703125</LongitudeDegrees>
            </Position>
            <AltitudeMeters>261.79998779296875</AltitudeMeters>
            <DistanceMeters>NAN</DistanceMeters>
          </Trackpoint>
          <Trackpoint>
            <Time>2022-07-11T16:53:24.000Z</Time>
            <Position>
              <LatitudeDegrees>43.28339234925806522369384765625</LatitudeDegrees>
              <LongitudeDegrees>-2.74355960078537464141845703125</LongitudeDegrees>
            </Position>
            <AltitudeMeters>261.79998779296875</AltitudeMeters>
            <DistanceMeters>NAN</DistanceMeters>
          </Trackpoint>
          <Trackpoint>
            <Time>2022-07-11T16:53:25.000Z</Time>
            <Position>
              <LatitudeDegrees>43.28340559266507625579833984375</LatitudeDegrees>
              <LongitudeDegrees>-2.7435690723359584808349609375</LongitudeDegrees>
            </Position>
            <AltitudeMeters>262</AltitudeMeters>
            <DistanceMeters>NAN</DistanceMeters>
          </Trackpoint>
          <Trackpoint>
            <Time>2022-07-11T16:53:28.000Z</Time>
            <Position>
              <LatitudeDegrees>43.28340760432183742523193359375</LatitudeDegrees>
              <LongitudeDegrees>-2.743569575250148773193359375</LongitudeDegrees>
            </Position>
            <AltitudeMeters>262.600006103515625</AltitudeMeters>
            <DistanceMeters>NAN</DistanceMeters>
          </Trackpoint>
          <Trackpoint>
            <Time>2022-07-11T16:53:30.000Z</Time>
            <Position>
              <LatitudeDegrees>43.2834438979625701904296875</LatitudeDegrees>
              <LongitudeDegrees>-2.74360385723412036895751953125</LongitudeDegrees>
            </Position>
            <AltitudeMeters>262.79998779296875</AltitudeMeters>
            <DistanceMeters>NAN</DistanceMeters>
          </Trackpoint>
          <Trackpoint>
            <Time>2022-07-11T16:53:32.000Z</Time>
            <Position>
              <LatitudeDegrees>43.2834651879966259002685546875</LatitudeDegrees>
              <LongitudeDegrees>-2.74361575953662395477294921875</LongitudeDegrees>
            </Position>
            <AltitudeMeters>263</AltitudeMeters>
            <DistanceMeters>NAN</DistanceMeters>
          </Trackpoint>
          <Trackpoint>
            <Time>2022-07-11T16:53:35.000Z</Time>
            <Position>
              <LatitudeDegrees>43.283507265150547027587890625</LatitudeDegrees>
              <LongitudeDegrees>-2.7436490356922149658203125</LongitudeDegrees>
            </Position>
            <AltitudeMeters>263.600006103515625</AltitudeMeters>
            <DistanceMeters>NAN</DistanceMeters>
          </Trackpoint>
          <Trackpoint>
            <Time>2022-07-11T16:53:42.000Z</Time>
            <Position>
              <LatitudeDegrees>43.28356132842600345611572265625</LatitudeDegrees>
              <LongitudeDegrees>-2.74370209313929080963134765625</LongitudeDegrees>
            </Position>
            <AltitudeMeters>264.600006103515625</AltitudeMeters>
            <DistanceMeters>NAN</DistanceMeters>
          </Trackpoint>
          <Trackpoint>
            <Time>2022-07-11T16:53:43.000Z</Time>
            <Position>
              <LatitudeDegrees>43.28356518410146236419677734375</LatitudeDegrees>
              <LongitudeDegrees>-2.7437035180628299713134765625</LongitudeDegrees>
            </Position>
            <AltitudeMeters>264.600006103515625</AltitudeMeters>
            <DistanceMeters>NAN</DistanceMeters>
          </Trackpoint>
          <Trackpoint>
            <Time>2022-07-11T16:53:44.000Z</Time>
            <Position>
              <LatitudeDegrees>43.2835686206817626953125</LatitudeDegrees>
              <LongitudeDegrees>-2.743708379566669464111328125</LongitudeDegrees>
            </Position>
            <AltitudeMeters>265</AltitudeMeters>
            <DistanceMeters>NAN</DistanceMeters>
          </Trackpoint>
          <Trackpoint>
            <Time>2022-07-11T16:53:45.000Z</Time>
            <Position>
              <LatitudeDegrees>43.28358211554586887359619140625</LatitudeDegrees>
              <LongitudeDegrees>-2.74372941814363002777099609375</LongitudeDegrees>
            </Position>
            <AltitudeMeters>265</AltitudeMeters>
            <DistanceMeters>NAN</DistanceMeters>
          </Trackpoint>
          <Trackpoint>
            <Time>2022-07-11T16:53:46.000Z</Time>
            <Position>
              <LatitudeDegrees>43.28359586186707019805908203125</LatitudeDegrees>
              <LongitudeDegrees>-2.74375028908252716064453125</LongitudeDegrees>
            </Position>
            <AltitudeMeters>265.20001220703125</AltitudeMeters>
            <DistanceMeters>NAN</DistanceMeters>
          </Trackpoint>
          <Trackpoint>
            <Time>2022-07-11T16:53:50.000Z</Time>
            <Position>
              <LatitudeDegrees>43.28362855128943920135498046875</LatitudeDegrees>
              <LongitudeDegrees>-2.74377803318202495574951171875</LongitudeDegrees>
            </Position>
            <AltitudeMeters>265.79998779296875</AltitudeMeters>
            <DistanceMeters>NAN</DistanceMeters>
          </Trackpoint>
          <Trackpoint>
            <Time>2022-07-11T16:53:52.000Z</Time>
            <Position>
              <LatitudeDegrees>43.28364866785705089569091796875</LatitudeDegrees>
              <LongitudeDegrees>-2.74380451999604701995849609375</LongitudeDegrees>
            </Position>
            <AltitudeMeters>266</AltitudeMeters>
            <DistanceMeters>NAN</DistanceMeters>
          </Trackpoint>
          <Trackpoint>
            <Time>2022-07-11T16:53:53.000Z</Time>
            <Position>
              <LatitudeDegrees>43.28365822322666645050048828125</LatitudeDegrees>
              <LongitudeDegrees>-2.74382178671658039093017578125</LongitudeDegrees>
            </Position>
            <AltitudeMeters>266.20001220703125</AltitudeMeters>
            <DistanceMeters>NAN</DistanceMeters>
          </Trackpoint>
          <Trackpoint>
            <Time>2022-07-11T16:53:56.000Z</Time>
            <Position>
              <LatitudeDegrees>43.28369242139160633087158203125</LatitudeDegrees>
              <LongitudeDegrees>-2.74388951249420642852783203125</LongitudeDegrees>
            </Position>
            <AltitudeMeters>266.600006103515625</AltitudeMeters>
            <DistanceMeters>NAN</DistanceMeters>
          </Trackpoint>
          <Trackpoint>
            <Time>2022-07-11T16:53:58.000Z</Time>
            <Position>
              <LatitudeDegrees>43.28370834700763225555419921875</LatitudeDegrees>
              <LongitudeDegrees>-2.74392354302108287811279296875</LongitudeDegrees>
            </Position>
            <AltitudeMeters>266.79998779296875</AltitudeMeters>
            <DistanceMeters>NAN</DistanceMeters>
          </Trackpoint>
          <Trackpoint>
            <Time>2022-07-11T16:54:03.000Z</Time>
            <Position>
              <LatitudeDegrees>43.2837367616593837738037109375</LatitudeDegrees>
              <LongitudeDegrees>-2.7440116368234157562255859375</LongitudeDegrees>
            </Position>
            <AltitudeMeters>267</AltitudeMeters>
            <DistanceMeters>NAN</DistanceMeters>
          </Trackpoint>
          <Trackpoint>
            <Time>2022-07-11T16:54:04.000Z</Time>
            <Position>
              <LatitudeDegrees>43.283732570707798004150390625</LatitudeDegrees>
              <LongitudeDegrees>-2.7440250478684902191162109375</LongitudeDegrees>
            </Position>
            <AltitudeMeters>267.20001220703125</AltitudeMeters>
            <DistanceMeters>NAN</DistanceMeters>
          </Trackpoint>
          <Trackpoint>
            <Time>2022-07-11T16:54:06.000Z</Time>
            <Position>
              <LatitudeDegrees>43.28372955322265625</LatitudeDegrees>
              <LongitudeDegrees>-2.74404457770287990570068359375</LongitudeDegrees>
            </Position>
            <AltitudeMeters>267.399993896484375</AltitudeMeters>
            <DistanceMeters>NAN</DistanceMeters>
          </Trackpoint>
          <Trackpoint>
            <Time>2022-07-11T16:54:08.000Z</Time>
            <Position>
              <LatitudeDegrees>43.2837307266891002655029296875</LatitudeDegrees>
              <LongitudeDegrees>-2.74405363015830516815185546875</LongitudeDegrees>
            </Position>
            <AltitudeMeters>267.79998779296875</AltitudeMeters>
            <DistanceMeters>NAN</DistanceMeters>
          </Trackpoint>
          <Trackpoint>
            <Time>2022-07-11T16:54:13.000Z</Time>
            <Position>
              <LatitudeDegrees>43.2837940938770771026611328125</LatitudeDegrees>
              <LongitudeDegrees>-2.74412370286881923675537109375</LongitudeDegrees>
            </Position>
            <AltitudeMeters>268.20001220703125</AltitudeMeters>
            <DistanceMeters>NAN</DistanceMeters>
          </Trackpoint>
          <Trackpoint>
            <Time>2022-07-11T16:54:19.000Z</Time>
            <Position>
              <LatitudeDegrees>43.283824436366558074951171875</LatitudeDegrees>
              <LongitudeDegrees>-2.74420500732958316802978515625</LongitudeDegrees>
            </Position>
            <AltitudeMeters>268.399993896484375</AltitudeMeters>
            <DistanceMeters>NAN</DistanceMeters>
          </Trackpoint>
          <Trackpoint>
            <Time>2022-07-11T16:54:24.000Z</Time>
            <Position>
              <LatitudeDegrees>43.2838584668934345245361328125</LatitudeDegrees>
              <LongitudeDegrees>-2.74425194598734378814697265625</LongitudeDegrees>
            </Position>
            <AltitudeMeters>268.399993896484375</AltitudeMeters>
            <DistanceMeters>NAN</DistanceMeters>
          </Trackpoint>
          <Trackpoint>
            <Time>2022-07-11T16:55:07.000Z</Time>
            <Position>
              <LatitudeDegrees>43.28389476053416728973388671875</LatitudeDegrees>
              <LongitudeDegrees>-2.74431447498500347137451171875</LongitudeDegrees>
            </Position>
            <AltitudeMeters>269</AltitudeMeters>
            <DistanceMeters>NAN</DistanceMeters>
          </Trackpoint>
          <Trackpoint>
            <Time>2022-07-11T16:55:08.000Z</Time>
            <Position>
              <LatitudeDegrees>43.283904902637004852294921875</LatitudeDegrees>
              <LongitudeDegrees>-2.7443338371813297271728515625</LongitudeDegrees>
            </Position>
            <AltitudeMeters>269</AltitudeMeters>
            <DistanceMeters>NAN</DistanceMeters>
          </Trackpoint>
          <Trackpoint>
            <Time>2022-07-11T16:55:10.000Z</Time>
            <Position>
              <LatitudeDegrees>43.2839374244213104248046875</LatitudeDegrees>
              <LongitudeDegrees>-2.744385637342929840087890625</LongitudeDegrees>
            </Position>
            <AltitudeMeters>269</AltitudeMeters>
            <DistanceMeters>NAN</DistanceMeters>
          </Trackpoint>
          <Trackpoint>
            <Time>2022-07-11T16:55:11.000Z</Time>
            <Position>
              <LatitudeDegrees>43.2839546911418437957763671875</LatitudeDegrees>
              <LongitudeDegrees>-2.74441723711788654327392578125</LongitudeDegrees>
            </Position>
            <AltitudeMeters>269</AltitudeMeters>
            <DistanceMeters>NAN</DistanceMeters>
          </Trackpoint>
          <Trackpoint>
            <Time>2022-07-11T16:55:12.000Z</Time>
            <Position>
              <LatitudeDegrees>43.2839731313288211822509765625</LatitudeDegrees>
              <LongitudeDegrees>-2.74445210583508014678955078125</LongitudeDegrees>
            </Position>
            <AltitudeMeters>269</AltitudeMeters>
            <DistanceMeters>NAN</DistanceMeters>
          </Trackpoint>
          <Trackpoint>
            <Time>2022-07-11T16:55:16.000Z</Time>
            <Position>
              <LatitudeDegrees>43.284005485475063323974609375</LatitudeDegrees>
              <LongitudeDegrees>-2.74463684298098087310791015625</LongitudeDegrees>
            </Position>
            <AltitudeMeters>268.79998779296875</AltitudeMeters>
            <DistanceMeters>NAN</DistanceMeters>
          </Trackpoint>
          <Trackpoint>
            <Time>2022-07-11T16:55:20.000Z</Time>
            <Position>
              <LatitudeDegrees>43.28403188847005367279052734375</LatitudeDegrees>
              <LongitudeDegrees>-2.744812779128551483154296875</LongitudeDegrees>
            </Position>
            <AltitudeMeters>268.399993896484375</AltitudeMeters>
            <DistanceMeters>NAN</DistanceMeters>
          </Trackpoint>
          <Trackpoint>
            <Time>2022-07-11T16:55:21.000Z</Time>
            <Position>
              <LatitudeDegrees>43.28402484767138957977294921875</LatitudeDegrees>
              <LongitudeDegrees>-2.74486516602337360382080078125</LongitudeDegrees>
            </Position>
            <AltitudeMeters>268.20001220703125</AltitudeMeters>
            <DistanceMeters>NAN</DistanceMeters>
          </Trackpoint>
          <Trackpoint>
            <Time>2022-07-11T16:55:22.000Z</Time>
            <Position>
              <LatitudeDegrees>43.28402853570878505706787109375</LatitudeDegrees>
              <LongitudeDegrees>-2.744924090802669525146484375</LongitudeDegrees>
            </Position>
            <AltitudeMeters>268</AltitudeMeters>
            <DistanceMeters>NAN</DistanceMeters>
          </Trackpoint>
          <Trackpoint>
            <Time>2022-07-11T16:55:24.000Z</Time>
            <Position>
              <LatitudeDegrees>43.283996097743511199951171875</LatitudeDegrees>
              <LongitudeDegrees>-2.74500832892954349517822265625</LongitudeDegrees>
            </Position>
            <AltitudeMeters>267.79998779296875</AltitudeMeters>
            <DistanceMeters>NAN</DistanceMeters>
          </Trackpoint>
          <Trackpoint>
            <Time>2022-07-11T16:55:25.000Z</Time>
            <Position>
              <LatitudeDegrees>43.28397958539426326751708984375</LatitudeDegrees>
              <LongitudeDegrees>-2.74505375884473323822021484375</LongitudeDegrees>
            </Position>
            <AltitudeMeters>267.79998779296875</AltitudeMeters>
            <DistanceMeters>NAN</DistanceMeters>
          </Trackpoint>
          <Trackpoint>
            <Time>2022-07-11T16:55:26.000Z</Time>
            <Position>
              <LatitudeDegrees>43.28397388570010662078857421875</LatitudeDegrees>
              <LongitudeDegrees>-2.745107822120189666748046875</LongitudeDegrees>
            </Position>
            <AltitudeMeters>267.79998779296875</AltitudeMeters>
            <DistanceMeters>NAN</DistanceMeters>
          </Trackpoint>
          <Trackpoint>
            <Time>2022-07-11T16:55:27.000Z</Time>
            <Position>
              <LatitudeDegrees>43.2839738018810749053955078125</LatitudeDegrees>
              <LongitudeDegrees>-2.745153419673442840576171875</LongitudeDegrees>
            </Position>
            <AltitudeMeters>267.79998779296875</AltitudeMeters>
            <DistanceMeters>NAN</DistanceMeters>
          </Trackpoint>
          <Trackpoint>
            <Time>2022-07-11T16:55:29.000Z</Time>
            <Position>
              <LatitudeDegrees>43.28398243524134159088134765625</LatitudeDegrees>
              <LongitudeDegrees>-2.74521402083337306976318359375</LongitudeDegrees>
            </Position>
            <AltitudeMeters>268</AltitudeMeters>
            <DistanceMeters>NAN</DistanceMeters>
          </Trackpoint>
          <Trackpoint>
            <Time>2022-07-11T16:55:33.000Z</Time>
            <Position>
              <LatitudeDegrees>43.28400137834250926971435546875</LatitudeDegrees>
              <LongitudeDegrees>-2.74526833556592464447021484375</LongitudeDegrees>
            </Position>
            <AltitudeMeters>268.399993896484375</AltitudeMeters>
            <DistanceMeters>NAN</DistanceMeters>
          </Trackpoint>
          <Trackpoint>
            <Time>2022-07-11T16:55:34.000Z</Time>
            <Position>
              <LatitudeDegrees>43.28401730395853519439697265625</LatitudeDegrees>
              <LongitudeDegrees>-2.74529113434255123138427734375</LongitudeDegrees>
            </Position>
            <AltitudeMeters>268.600006103515625</AltitudeMeters>
            <DistanceMeters>NAN</DistanceMeters>
          </Trackpoint>
          <Trackpoint>
            <Time>2022-07-11T16:55:36.000Z</Time>
            <Position>
              <LatitudeDegrees>43.2840653322637081146240234375</LatitudeDegrees>
              <LongitudeDegrees>-2.74534142576158046722412109375</LongitudeDegrees>
            </Position>
            <AltitudeMeters>269</AltitudeMeters>
            <DistanceMeters>NAN</DistanceMeters>
          </Trackpoint>
          <Trackpoint>
            <Time>2022-07-11T16:55:38.000Z</Time>
            <Position>
              <LatitudeDegrees>43.284094668924808502197265625</LatitudeDegrees>
              <LongitudeDegrees>-2.74536439217627048492431640625</LongitudeDegrees>
            </Position>
            <AltitudeMeters>269.399993896484375</AltitudeMeters>
            <DistanceMeters>NAN</DistanceMeters>
          </Trackpoint>
          <Trackpoint>
            <Time>2022-07-11T16:55:41.000Z</Time>
            <Position>
              <LatitudeDegrees>43.2841407693922519683837890625</LatitudeDegrees>
              <LongitudeDegrees>-2.7454003505408763885498046875</LongitudeDegrees>
            </Position>
            <AltitudeMeters>270</AltitudeMeters>
            <DistanceMeters>NAN</DistanceMeters>
          </Trackpoint>
          <Trackpoint>
            <Time>2022-07-11T16:55:42.000Z</Time>
            <Position>
              <LatitudeDegrees>43.284156024456024169921875</LatitudeDegrees>
              <LongitudeDegrees>-2.7454140968620777130126953125</LongitudeDegrees>
            </Position>
            <AltitudeMeters>270.20001220703125</AltitudeMeters>
            <DistanceMeters>NAN</DistanceMeters>
          </Trackpoint>
          <Trackpoint>
            <Time>2022-07-11T16:55:44.000Z</Time>
            <Position>
              <LatitudeDegrees>43.28417857177555561065673828125</LatitudeDegrees>
              <LongitudeDegrees>-2.745428346097469329833984375</LongitudeDegrees>
            </Position>
            <AltitudeMeters>270.399993896484375</AltitudeMeters>
            <DistanceMeters>NAN</DistanceMeters>
          </Trackpoint>
          <Trackpoint>
            <Time>2022-07-11T16:55:46.000Z</Time>
            <Position>
              <LatitudeDegrees>43.28418728895485401153564453125</LatitudeDegrees>
              <LongitudeDegrees>-2.74542826227843761444091796875</LongitudeDegrees>
            </Position>
            <AltitudeMeters>271</AltitudeMeters>
            <DistanceMeters>NAN</DistanceMeters>
          </Trackpoint>
          <Trackpoint>
            <Time>2022-07-11T16:55:47.000Z</Time>
            <Position>
              <LatitudeDegrees>43.284198939800262451171875</LatitudeDegrees>
              <LongitudeDegrees>-2.7454311959445476531982421875</LongitudeDegrees>
            </Position>
            <AltitudeMeters>271.20001220703125</AltitudeMeters>
            <DistanceMeters>NAN</DistanceMeters>
          </Trackpoint>
          <Trackpoint>
            <Time>2022-07-11T16:55:52.000Z</Time>
            <Position>
              <LatitudeDegrees>43.28425057232379913330078125</LatitudeDegrees>
              <LongitudeDegrees>-2.7454771287739276885986328125</LongitudeDegrees>
            </Position>
            <AltitudeMeters>272</AltitudeMeters>
            <DistanceMeters>NAN</DistanceMeters>
          </Trackpoint>
          <Trackpoint>
            <Time>2022-07-11T16:55:54.000Z</Time>
            <Position>
              <LatitudeDegrees>43.28426239080727100372314453125</LatitudeDegrees>
              <LongitudeDegrees>-2.7454935573041439056396484375</LongitudeDegrees>
            </Position>
            <AltitudeMeters>272.20001220703125</AltitudeMeters>
            <DistanceMeters>NAN</DistanceMeters>
          </Trackpoint>
          <Trackpoint>
            <Time>2022-07-11T16:55:55.000Z</Time>
            <Position>
              <LatitudeDegrees>43.284274376928806304931640625</LatitudeDegrees>
              <LongitudeDegrees>-2.7455066330730915069580078125</LongitudeDegrees>
            </Position>
            <AltitudeMeters>272.399993896484375</AltitudeMeters>
            <DistanceMeters>NAN</DistanceMeters>
          </Trackpoint>
          <Trackpoint>
            <Time>2022-07-11T16:55:58.000Z</Time>
            <Position>
              <LatitudeDegrees>43.2843063957989215850830078125</LatitudeDegrees>
              <LongitudeDegrees>-2.7455485425889492034912109375</LongitudeDegrees>
            </Position>
            <AltitudeMeters>273</AltitudeMeters>
            <DistanceMeters>NAN</DistanceMeters>
          </Trackpoint>
          <Trackpoint>
            <Time>2022-07-11T16:56:00.000Z</Time>
            <Position>
              <LatitudeDegrees>43.28433497808873653411865234375</LatitudeDegrees>
              <LongitudeDegrees>-2.74558131583034992218017578125</LongitudeDegrees>
            </Position>
            <AltitudeMeters>273.20001220703125</AltitudeMeters>
            <DistanceMeters>NAN</DistanceMeters>
          </Trackpoint>
          <Trackpoint>
            <Time>2022-07-11T16:56:02.000Z</Time>
            <Position>
              <LatitudeDegrees>43.28436029143631458282470703125</LatitudeDegrees>
              <LongitudeDegrees>-2.74560897611081600189208984375</LongitudeDegrees>
            </Position>
            <AltitudeMeters>273.399993896484375</AltitudeMeters>
            <DistanceMeters>NAN</DistanceMeters>
          </Trackpoint>
          <Trackpoint>
            <Time>2022-07-11T16:56:03.000Z</Time>
            <Position>
              <LatitudeDegrees>43.284362889826297760009765625</LatitudeDegrees>
              <LongitudeDegrees>-2.74561232887208461761474609375</LongitudeDegrees>
            </Position>
            <AltitudeMeters>273.600006103515625</AltitudeMeters>
            <DistanceMeters>NAN</DistanceMeters>
          </Trackpoint>
          <Trackpoint>
            <Time>2022-07-11T16:56:05.000Z</Time>
            <Position>
              <LatitudeDegrees>43.28437319956719875335693359375</LatitudeDegrees>
              <LongitudeDegrees>-2.7456239797174930572509765625</LongitudeDegrees>
            </Position>
            <AltitudeMeters>273.79998779296875</AltitudeMeters>
            <DistanceMeters>NAN</DistanceMeters>
          </Trackpoint>
          <Trackpoint>
            <Time>2022-07-11T16:56:06.000Z</Time>
            <Position>
              <LatitudeDegrees>43.2843801565468311309814453125</LatitudeDegrees>
              <LongitudeDegrees>-2.74563177488744258880615234375</LongitudeDegrees>
            </Position>
            <AltitudeMeters>274</AltitudeMeters>
            <DistanceMeters>NAN</DistanceMeters>
          </Trackpoint>
          <Trackpoint>
            <Time>2022-07-11T16:56:07.000Z</Time>
            <Position>
              <LatitudeDegrees>43.284389711916446685791015625</LatitudeDegrees>
              <LongitudeDegrees>-2.74564283899962902069091796875</LongitudeDegrees>
            </Position>
            <AltitudeMeters>274.20001220703125</AltitudeMeters>
            <DistanceMeters>NAN</DistanceMeters>
          </Trackpoint>
          <Trackpoint>
            <Time>2022-07-11T16:56:08.000Z</Time>
            <Position>
              <LatitudeDegrees>43.28440471552312374114990234375</LatitudeDegrees>
              <LongitudeDegrees>-2.74566312320530414581298828125</LongitudeDegrees>
            </Position>
            <AltitudeMeters>274.20001220703125</AltitudeMeters>
            <DistanceMeters>NAN</DistanceMeters>
          </Trackpoint>
          <Trackpoint>
            <Time>2022-07-11T16:56:09.000Z</Time>
            <Position>
              <LatitudeDegrees>43.28441577963531017303466796875</LatitudeDegrees>
              <LongitudeDegrees>-2.74568759836256504058837890625</LongitudeDegrees>
            </Position>
            <AltitudeMeters>274.399993896484375</AltitudeMeters>
            <DistanceMeters>NAN</DistanceMeters>
          </Trackpoint>
          <Trackpoint>
            <Time>2022-07-11T16:56:10.000Z</Time>
            <Position>
              <LatitudeDegrees>43.284421898424625396728515625</LatitudeDegrees>
              <LongitudeDegrees>-2.7457041107118129730224609375</LongitudeDegrees>
            </Position>
            <AltitudeMeters>274.600006103515625</AltitudeMeters>
            <DistanceMeters>NAN</DistanceMeters>
          </Trackpoint>
          <Trackpoint>
            <Time>2022-07-11T16:56:12.000Z</Time>
            <Position>
              <LatitudeDegrees>43.28445735387504100799560546875</LatitudeDegrees>
              <LongitudeDegrees>-2.7457331120967864990234375</LongitudeDegrees>
            </Position>
            <AltitudeMeters>274.79998779296875</AltitudeMeters>
            <DistanceMeters>NAN</DistanceMeters>
          </Trackpoint>
          <Trackpoint>
            <Time>2022-07-11T16:56:13.000Z</Time>
            <Position>
              <LatitudeDegrees>43.2844814099371433258056640625</LatitudeDegrees>
              <LongitudeDegrees>-2.74576236493885517120361328125</LongitudeDegrees>
            </Position>
            <AltitudeMeters>275</AltitudeMeters>
            <DistanceMeters>NAN</DistanceMeters>
          </Trackpoint>
          <Trackpoint>
            <Time>2022-07-11T16:56:14.000Z</Time>
            <Position>
              <LatitudeDegrees>43.28449867665767669677734375</LatitudeDegrees>
              <LongitudeDegrees>-2.74577803909778594970703125</LongitudeDegrees>
            </Position>
            <AltitudeMeters>275</AltitudeMeters>
            <DistanceMeters>NAN</DistanceMeters>
          </Trackpoint>
          <Trackpoint>
            <Time>2022-07-11T16:56:15.000Z</Time>
            <Position>
              <LatitudeDegrees>43.2845122553408145904541015625</LatitudeDegrees>
              <LongitudeDegrees>-2.745785415172576904296875</LongitudeDegrees>
            </Position>
            <AltitudeMeters>275</AltitudeMeters>
            <DistanceMeters>NAN</DistanceMeters>
          </Trackpoint>
          <Trackpoint>
            <Time>2022-07-11T16:56:16.000Z</Time>
            <Position>
              <LatitudeDegrees>43.284522481262683868408203125</LatitudeDegrees>
              <LongitudeDegrees>-2.74579220451414585113525390625</LongitudeDegrees>
            </Position>
            <AltitudeMeters>275.20001220703125</AltitudeMeters>
            <DistanceMeters>NAN</DistanceMeters>
          </Trackpoint>
          <Trackpoint>
            <Time>2022-07-11T16:56:17.000Z</Time>
            <Position>
              <LatitudeDegrees>43.2845357246696949005126953125</LatitudeDegrees>
              <LongitudeDegrees>-2.74580813013017177581787109375</LongitudeDegrees>
            </Position>
            <AltitudeMeters>275.399993896484375</AltitudeMeters>
            <DistanceMeters>NAN</DistanceMeters>
          </Trackpoint>
          <Trackpoint>
            <Time>2022-07-11T16:56:19.000Z</Time>
            <Position>
              <LatitudeDegrees>43.28457511961460113525390625</LatitudeDegrees>
              <LongitudeDegrees>-2.74583813734352588653564453125</LongitudeDegrees>
            </Position>
            <AltitudeMeters>275.600006103515625</AltitudeMeters>
            <DistanceMeters>NAN</DistanceMeters>
          </Trackpoint>
          <Trackpoint>
            <Time>2022-07-11T16:56:21.000Z</Time>
            <Position>
              <LatitudeDegrees>43.28457755036652088165283203125</LatitudeDegrees>
              <LongitudeDegrees>-2.745865881443023681640625</LongitudeDegrees>
            </Position>
            <AltitudeMeters>275.79998779296875</AltitudeMeters>
            <DistanceMeters>NAN</DistanceMeters>
          </Trackpoint>
          <Trackpoint>
            <Time>2022-07-11T16:56:23.000Z</Time>
            <Position>
              <LatitudeDegrees>43.2845890335738658905029296875</LatitudeDegrees>
              <LongitudeDegrees>-2.745891027152538299560546875</LongitudeDegrees>
            </Position>
            <AltitudeMeters>276</AltitudeMeters>
            <DistanceMeters>NAN</DistanceMeters>
          </Trackpoint>
          <Trackpoint>
            <Time>2022-07-11T16:56:25.000Z</Time>
            <Position>
              <LatitudeDegrees>43.28460101969540119171142578125</LatitudeDegrees>
              <LongitudeDegrees>-2.745908796787261962890625</LongitudeDegrees>
            </Position>
            <AltitudeMeters>276.399993896484375</AltitudeMeters>
            <DistanceMeters>NAN</DistanceMeters>
          </Trackpoint>
          <Trackpoint>
            <Time>2022-07-11T16:56:30.000Z</Time>
            <Position>
              <LatitudeDegrees>43.28464217483997344970703125</LatitudeDegrees>
              <LongitudeDegrees>-2.745967470109462738037109375</LongitudeDegrees>
            </Position>
            <AltitudeMeters>276.79998779296875</AltitudeMeters>
            <DistanceMeters>NAN</DistanceMeters>
          </Trackpoint>
          <Trackpoint>
            <Time>2022-07-11T16:56:37.000Z</Time>
            <Position>
              <LatitudeDegrees>43.2847053743898868560791015625</LatitudeDegrees>
              <LongitudeDegrees>-2.746053636074066162109375</LongitudeDegrees>
            </Position>
            <AltitudeMeters>277.20001220703125</AltitudeMeters>
            <DistanceMeters>NAN</DistanceMeters>
          </Trackpoint>
          <Trackpoint>
            <Time>2022-07-11T16:56:44.000Z</Time>
            <Position>
              <LatitudeDegrees>43.28473412431776523590087890625</LatitudeDegrees>
              <LongitudeDegrees>-2.74612898938357830047607421875</LongitudeDegrees>
            </Position>
            <AltitudeMeters>277.20001220703125</AltitudeMeters>
            <DistanceMeters>NAN</DistanceMeters>
          </Trackpoint>
          <Trackpoint>
            <Time>2022-07-11T16:56:49.000Z</Time>
            <Position>
              <LatitudeDegrees>43.28473881818354129791259765625</LatitudeDegrees>
              <LongitudeDegrees>-2.74614826776087284088134765625</LongitudeDegrees>
            </Position>
            <AltitudeMeters>277</AltitudeMeters>
            <DistanceMeters>NAN</DistanceMeters>
          </Trackpoint>
          <Trackpoint>
            <Time>2022-07-11T16:57:50.000Z</Time>
            <Position>
              <LatitudeDegrees>43.28429692424833774566650390625</LatitudeDegrees>
              <LongitudeDegrees>-2.7463679574429988861083984375</LongitudeDegrees>
            </Position>
            <AltitudeMeters>283.79998779296875</AltitudeMeters>
            <DistanceMeters>NAN</DistanceMeters>
          </Trackpoint>
          <Trackpoint>
            <Time>2022-07-11T16:57:51.000Z</Time>
            <Position>
              <LatitudeDegrees>43.28428368084132671356201171875</LatitudeDegrees>
              <LongitudeDegrees>-2.74637348949909210205078125</LongitudeDegrees>
            </Position>
            <AltitudeMeters>284</AltitudeMeters>
            <DistanceMeters>NAN</DistanceMeters>
          </Trackpoint>
          <Trackpoint>
            <Time>2022-07-11T16:57:54.000Z</Time>
            <Position>
              <LatitudeDegrees>43.2842463813722133636474609375</LatitudeDegrees>
              <LongitudeDegrees>-2.746390588581562042236328125</LongitudeDegrees>
            </Position>
            <AltitudeMeters>284.399993896484375</AltitudeMeters>
            <DistanceMeters>NAN</DistanceMeters>
          </Trackpoint>
          <Trackpoint>
            <Time>2022-07-11T16:57:56.000Z</Time>
            <Position>
              <LatitudeDegrees>43.28422282822430133819580078125</LatitudeDegrees>
              <LongitudeDegrees>-2.74639855138957500457763671875</LongitudeDegrees>
            </Position>
            <AltitudeMeters>284.79998779296875</AltitudeMeters>
            <DistanceMeters>NAN</DistanceMeters>
          </Trackpoint>
          <Trackpoint>
            <Time>2022-07-11T16:57:59.000Z</Time>
            <Position>
              <LatitudeDegrees>43.2841833494603633880615234375</LatitudeDegrees>
              <LongitudeDegrees>-2.74641715921461582183837890625</LongitudeDegrees>
            </Position>
            <AltitudeMeters>285.20001220703125</AltitudeMeters>
            <DistanceMeters>NAN</DistanceMeters>
          </Trackpoint>
          <Trackpoint>
            <Time>2022-07-11T16:58:01.000Z</Time>
            <Position>
              <LatitudeDegrees>43.28416331671178340911865234375</LatitudeDegrees>
              <LongitudeDegrees>-2.7464273013174533843994140625</LongitudeDegrees>
            </Position>
            <AltitudeMeters>285.20001220703125</AltitudeMeters>
            <DistanceMeters>NAN</DistanceMeters>
          </Trackpoint>
          <Trackpoint>
            <Time>2022-07-11T16:58:04.000Z</Time>
            <Position>
              <LatitudeDegrees>43.2841203175485134124755859375</LatitudeDegrees>
              <LongitudeDegrees>-2.7464323304593563079833984375</LongitudeDegrees>
            </Position>
            <AltitudeMeters>286</AltitudeMeters>
            <DistanceMeters>NAN</DistanceMeters>
          </Trackpoint>
          <Trackpoint>
            <Time>2022-07-11T16:58:12.000Z</Time>
            <Position>
              <LatitudeDegrees>43.28405150212347507476806640625</LatitudeDegrees>
              <LongitudeDegrees>-2.74647784419357776641845703125</LongitudeDegrees>
            </Position>
            <AltitudeMeters>287</AltitudeMeters>
            <DistanceMeters>NAN</DistanceMeters>
          </Trackpoint>
          <Trackpoint>
            <Time>2022-07-11T16:58:13.000Z</Time>
            <Position>
              <LatitudeDegrees>43.2840313017368316650390625</LatitudeDegrees>
              <LongitudeDegrees>-2.746488153934478759765625</LongitudeDegrees>
            </Position>
            <AltitudeMeters>287.399993896484375</AltitudeMeters>
            <DistanceMeters>NAN</DistanceMeters>
          </Trackpoint>
          <Trackpoint>
            <Time>2022-07-11T16:58:17.000Z</Time>
            <Position>
              <LatitudeDegrees>43.2839436270296573638916015625</LatitudeDegrees>
              <LongitudeDegrees>-2.74649812839925289154052734375</LongitudeDegrees>
            </Position>
            <AltitudeMeters>288.20001220703125</AltitudeMeters>
            <DistanceMeters>NAN</DistanceMeters>
          </Trackpoint>
          <Trackpoint>
            <Time>2022-07-11T16:58:19.000Z</Time>
            <Position>
              <LatitudeDegrees>43.283908255398273468017578125</LatitudeDegrees>
              <LongitudeDegrees>-2.7464879862964153289794921875</LongitudeDegrees>
            </Position>
            <AltitudeMeters>288.600006103515625</AltitudeMeters>
            <DistanceMeters>NAN</DistanceMeters>
          </Trackpoint>
          <Trackpoint>
            <Time>2022-07-11T16:58:22.000Z</Time>
            <Position>
              <LatitudeDegrees>43.2838658429682254791259765625</LatitudeDegrees>
              <LongitudeDegrees>-2.74647331796586513519287109375</LongitudeDegrees>
            </Position>
            <AltitudeMeters>289.20001220703125</AltitudeMeters>
            <DistanceMeters>NAN</DistanceMeters>
          </Trackpoint>
          <Trackpoint>
            <Time>2022-07-11T16:58:23.000Z</Time>
            <Position>
              <LatitudeDegrees>43.28385251574218273162841796875</LatitudeDegrees>
              <LongitudeDegrees>-2.74647449143230915069580078125</LongitudeDegrees>
            </Position>
            <AltitudeMeters>289.399993896484375</AltitudeMeters>
            <DistanceMeters>NAN</DistanceMeters>
          </Trackpoint>
          <Trackpoint>
            <Time>2022-07-11T16:58:25.000Z</Time>
            <Position>
              <LatitudeDegrees>43.2838430441915988922119140625</LatitudeDegrees>
              <LongitudeDegrees>-2.7464936859905719757080078125</LongitudeDegrees>
            </Position>
            <AltitudeMeters>290</AltitudeMeters>
            <DistanceMeters>NAN</DistanceMeters>
          </Trackpoint>
          <Trackpoint>
            <Time>2022-07-11T16:58:26.000Z</Time>
            <Position>
              <LatitudeDegrees>43.2838286273181438446044921875</LatitudeDegrees>
              <LongitudeDegrees>-2.74649561382830142974853515625</LongitudeDegrees>
            </Position>
            <AltitudeMeters>290</AltitudeMeters>
            <DistanceMeters>NAN</DistanceMeters>
          </Trackpoint>
          <Trackpoint>
            <Time>2022-07-11T16:58:30.000Z</Time>
            <Position>
              <LatitudeDegrees>43.283781521022319793701171875</LatitudeDegrees>
              <LongitudeDegrees>-2.7464886568486690521240234375</LongitudeDegrees>
            </Position>
            <AltitudeMeters>290.600006103515625</AltitudeMeters>
            <DistanceMeters>NAN</DistanceMeters>
          </Trackpoint>
          <Trackpoint>
            <Time>2022-07-11T16:58:32.000Z</Time>
            <Position>
              <LatitudeDegrees>43.2837531901895999908447265625</LatitudeDegrees>
              <LongitudeDegrees>-2.74648882448673248291015625</LongitudeDegrees>
            </Position>
            <AltitudeMeters>291</AltitudeMeters>
            <DistanceMeters>NAN</DistanceMeters>
          </Trackpoint>
          <Trackpoint>
            <Time>2022-07-11T16:58:35.000Z</Time>
            <Position>
              <LatitudeDegrees>43.28371438197791576385498046875</LatitudeDegrees>
              <LongitudeDegrees>-2.74650718085467815399169921875</LongitudeDegrees>
            </Position>
            <AltitudeMeters>291.600006103515625</AltitudeMeters>
            <DistanceMeters>NAN</DistanceMeters>
          </Trackpoint>
          <Trackpoint>
            <Time>2022-07-11T16:58:36.000Z</Time>
            <Position>
              <LatitudeDegrees>43.28370097093284130096435546875</LatitudeDegrees>
              <LongitudeDegrees>-2.7465107850730419158935546875</LongitudeDegrees>
            </Position>
            <AltitudeMeters>291.79998779296875</AltitudeMeters>
            <DistanceMeters>NAN</DistanceMeters>
          </Trackpoint>
          <Trackpoint>
            <Time>2022-07-11T16:58:39.000Z</Time>
            <Position>
              <LatitudeDegrees>43.28366375528275966644287109375</LatitudeDegrees>
              <LongitudeDegrees>-2.746515981853008270263671875</LongitudeDegrees>
            </Position>
            <AltitudeMeters>292.20001220703125</AltitudeMeters>
            <DistanceMeters>NAN</DistanceMeters>
          </Trackpoint>
          <Trackpoint>
            <Time>2022-07-11T16:58:41.000Z</Time>
            <Position>
              <LatitudeDegrees>43.28364129178225994110107421875</LatitudeDegrees>
              <LongitudeDegrees>-2.74652662687003612518310546875</LongitudeDegrees>
            </Position>
            <AltitudeMeters>292.79998779296875</AltitudeMeters>
            <DistanceMeters>NAN</DistanceMeters>
          </Trackpoint>
          <Trackpoint>
            <Time>2022-07-11T16:58:42.000Z</Time>
            <Position>
              <LatitudeDegrees>43.28362427651882171630859375</LatitudeDegrees>
              <LongitudeDegrees>-2.7465262077748775482177734375</LongitudeDegrees>
            </Position>
            <AltitudeMeters>292.79998779296875</AltitudeMeters>
            <DistanceMeters>NAN</DistanceMeters>
          </Trackpoint>
          <Trackpoint>
            <Time>2022-07-11T16:58:46.000Z</Time>
            <Position>
              <LatitudeDegrees>43.2835699617862701416015625</LatitudeDegrees>
              <LongitudeDegrees>-2.7465283870697021484375</LongitudeDegrees>
            </Position>
            <AltitudeMeters>293.600006103515625</AltitudeMeters>
            <DistanceMeters>NAN</DistanceMeters>
          </Trackpoint>
          <Trackpoint>
            <Time>2022-07-11T16:58:48.000Z</Time>
            <Position>
              <LatitudeDegrees>43.2835469953715801239013671875</LatitudeDegrees>
              <LongitudeDegrees>-2.74653769098222255706787109375</LongitudeDegrees>
            </Position>
            <AltitudeMeters>294</AltitudeMeters>
            <DistanceMeters>NAN</DistanceMeters>
          </Trackpoint>
          <Trackpoint>
            <Time>2022-07-11T16:58:54.000Z</Time>
            <Position>
              <LatitudeDegrees>43.28347675502300262451171875</LatitudeDegrees>
              <LongitudeDegrees>-2.74654188193380832672119140625</LongitudeDegrees>
            </Position>
            <AltitudeMeters>295</AltitudeMeters>
            <DistanceMeters>NAN</DistanceMeters>
          </Trackpoint>
          <Trackpoint>
            <Time>2022-07-11T16:58:55.000Z</Time>
            <Position>
              <LatitudeDegrees>43.2834648527204990386962890625</LatitudeDegrees>
              <LongitudeDegrees>-2.74654246866703033447265625</LongitudeDegrees>
            </Position>
            <AltitudeMeters>295.20001220703125</AltitudeMeters>
            <DistanceMeters>NAN</DistanceMeters>
          </Trackpoint>
          <Trackpoint>
            <Time>2022-07-11T16:59:03.000Z</Time>
            <Position>
              <LatitudeDegrees>43.28338145278394222259521484375</LatitudeDegrees>
              <LongitudeDegrees>-2.74656987749040126800537109375</LongitudeDegrees>
            </Position>
            <AltitudeMeters>296.20001220703125</AltitudeMeters>
            <DistanceMeters>NAN</DistanceMeters>
          </Trackpoint>
          <Trackpoint>
            <Time>2022-07-11T16:59:08.000Z</Time>
            <Position>
              <LatitudeDegrees>43.28332043252885341644287109375</LatitudeDegrees>
              <LongitudeDegrees>-2.7465862222015857696533203125</LongitudeDegrees>
            </Position>
            <AltitudeMeters>297.20001220703125</AltitudeMeters>
            <DistanceMeters>NAN</DistanceMeters>
          </Trackpoint>
          <Trackpoint>
            <Time>2022-07-11T16:59:12.000Z</Time>
            <Position>
              <LatitudeDegrees>43.28327734954655170440673828125</LatitudeDegrees>
              <LongitudeDegrees>-2.74660306982696056365966796875</LongitudeDegrees>
            </Position>
            <AltitudeMeters>297.79998779296875</AltitudeMeters>
            <DistanceMeters>NAN</DistanceMeters>
          </Trackpoint>
          <Trackpoint>
            <Time>2022-07-11T16:59:14.000Z</Time>
            <Position>
              <LatitudeDegrees>43.28325388021767139434814453125</LatitudeDegrees>
              <LongitudeDegrees>-2.7466023154556751251220703125</LongitudeDegrees>
            </Position>
            <AltitudeMeters>298.20001220703125</AltitudeMeters>
            <DistanceMeters>NAN</DistanceMeters>
          </Trackpoint>
          <Trackpoint>
            <Time>2022-07-11T16:59:16.000Z</Time>
            <Position>
              <LatitudeDegrees>43.283226974308490753173828125</LatitudeDegrees>
              <LongitudeDegrees>-2.74660072289407253265380859375</LongitudeDegrees>
            </Position>
            <AltitudeMeters>298.600006103515625</AltitudeMeters>
            <DistanceMeters>NAN</DistanceMeters>
          </Trackpoint>
          <Trackpoint>
            <Time>2022-07-11T16:59:22.000Z</Time>
            <Position>
              <LatitudeDegrees>43.28316302038729190826416015625</LatitudeDegrees>
              <LongitudeDegrees>-2.74661379866302013397216796875</LongitudeDegrees>
            </Position>
            <AltitudeMeters>299.399993896484375</AltitudeMeters>
            <DistanceMeters>NAN</DistanceMeters>
          </Trackpoint>
          <Trackpoint>
            <Time>2022-07-11T16:59:24.000Z</Time>
            <Position>
              <LatitudeDegrees>43.28313820995390415191650390625</LatitudeDegrees>
              <LongitudeDegrees>-2.74662234820425510406494140625</LongitudeDegrees>
            </Position>
            <AltitudeMeters>299.79998779296875</AltitudeMeters>
            <DistanceMeters>NAN</DistanceMeters>
          </Trackpoint>
          <Trackpoint>
            <Time>2022-07-11T16:59:29.000Z</Time>
            <Position>
              <LatitudeDegrees>43.2830735854804515838623046875</LatitudeDegrees>
              <LongitudeDegrees>-2.74663559161126613616943359375</LongitudeDegrees>
            </Position>
            <AltitudeMeters>301</AltitudeMeters>
            <DistanceMeters>NAN</DistanceMeters>
          </Trackpoint>
          <Trackpoint>
            <Time>2022-07-11T16:59:32.000Z</Time>
            <Position>
              <LatitudeDegrees>43.28303553164005279541015625</LatitudeDegrees>
              <LongitudeDegrees>-2.74663894437253475189208984375</LongitudeDegrees>
            </Position>
            <AltitudeMeters>301.600006103515625</AltitudeMeters>
            <DistanceMeters>NAN</DistanceMeters>
          </Trackpoint>
          <Trackpoint>
            <Time>2022-07-11T16:59:35.000Z</Time>
            <Position>
              <LatitudeDegrees>43.28300066292285919189453125</LatitudeDegrees>
              <LongitudeDegrees>-2.74664171040058135986328125</LongitudeDegrees>
            </Position>
            <AltitudeMeters>302</AltitudeMeters>
            <DistanceMeters>NAN</DistanceMeters>
          </Trackpoint>
          <Trackpoint>
            <Time>2022-07-11T16:59:41.000Z</Time>
            <Position>
              <LatitudeDegrees>43.282928578555583953857421875</LatitudeDegrees>
              <LongitudeDegrees>-2.74664414115250110626220703125</LongitudeDegrees>
            </Position>
            <AltitudeMeters>303.20001220703125</AltitudeMeters>
            <DistanceMeters>NAN</DistanceMeters>
          </Trackpoint>
          <Trackpoint>
            <Time>2022-07-11T16:59:43.000Z</Time>
            <Position>
              <LatitudeDegrees>43.28290276229381561279296875</LatitudeDegrees>
              <LongitudeDegrees>-2.74664548225700855255126953125</LongitudeDegrees>
            </Position>
            <AltitudeMeters>303.399993896484375</AltitudeMeters>
            <DistanceMeters>NAN</DistanceMeters>
          </Trackpoint>
          <Trackpoint>
            <Time>2022-07-11T16:59:49.000Z</Time>
            <Position>
              <LatitudeDegrees>43.2828301750123500823974609375</LatitudeDegrees>
              <LongitudeDegrees>-2.74666107259690761566162109375</LongitudeDegrees>
            </Position>
            <AltitudeMeters>304.20001220703125</AltitudeMeters>
            <DistanceMeters>NAN</DistanceMeters>
          </Trackpoint>
          <Trackpoint>
            <Time>2022-07-11T16:59:52.000Z</Time>
            <Position>
              <LatitudeDegrees>43.28279488719999790191650390625</LatitudeDegrees>
              <LongitudeDegrees>-2.74665453471243381500244140625</LongitudeDegrees>
            </Position>
            <AltitudeMeters>304.79998779296875</AltitudeMeters>
            <DistanceMeters>NAN</DistanceMeters>
          </Trackpoint>
          <Trackpoint>
            <Time>2022-07-11T16:59:55.000Z</Time>
            <Position>
              <LatitudeDegrees>43.2827557437121868133544921875</LatitudeDegrees>
              <LongitudeDegrees>-2.74664816446602344512939453125</LongitudeDegrees>
            </Position>
            <AltitudeMeters>305.399993896484375</AltitudeMeters>
            <DistanceMeters>NAN</DistanceMeters>
          </Trackpoint>
          <Trackpoint>
            <Time>2022-07-11T17:00:02.000Z</Time>
            <Position>
              <LatitudeDegrees>43.28267343342304229736328125</LatitudeDegrees>
              <LongitudeDegrees>-2.74666140787303447723388671875</LongitudeDegrees>
            </Position>
            <AltitudeMeters>306.399993896484375</AltitudeMeters>
            <DistanceMeters>NAN</DistanceMeters>
          </Trackpoint>
          <Trackpoint>
            <Time>2022-07-11T17:00:03.000Z</Time>
            <Position>
              <LatitudeDegrees>43.28266077674925327301025390625</LatitudeDegrees>
              <LongitudeDegrees>-2.7466630004346370697021484375</LongitudeDegrees>
            </Position>
            <AltitudeMeters>306.600006103515625</AltitudeMeters>
            <DistanceMeters>NAN</DistanceMeters>
          </Trackpoint>
          <Trackpoint>
            <Time>2022-07-11T17:00:05.000Z</Time>
            <Position>
              <LatitudeDegrees>43.28263512812554836273193359375</LatitudeDegrees>
              <LongitudeDegrees>-2.7466640062630176544189453125</LongitudeDegrees>
            </Position>
            <AltitudeMeters>306.79998779296875</AltitudeMeters>
            <DistanceMeters>NAN</DistanceMeters>
          </Trackpoint>
          <Trackpoint>
            <Time>2022-07-11T17:00:10.000Z</Time>
            <Position>
              <LatitudeDegrees>43.282571844756603240966796875</LatitudeDegrees>
              <LongitudeDegrees>-2.746666856110095977783203125</LongitudeDegrees>
            </Position>
            <AltitudeMeters>307.399993896484375</AltitudeMeters>
            <DistanceMeters>NAN</DistanceMeters>
          </Trackpoint>
          <Trackpoint>
            <Time>2022-07-11T17:00:12.000Z</Time>
            <Position>
              <LatitudeDegrees>43.28254762105643749237060546875</LatitudeDegrees>
              <LongitudeDegrees>-2.74666727520525455474853515625</LongitudeDegrees>
            </Position>
            <AltitudeMeters>307.600006103515625</AltitudeMeters>
            <DistanceMeters>NAN</DistanceMeters>
          </Trackpoint>
          <Trackpoint>
            <Time>2022-07-11T17:00:19.000Z</Time>
            <Position>
              <LatitudeDegrees>43.282462544739246368408203125</LatitudeDegrees>
              <LongitudeDegrees>-2.746681608259677886962890625</LongitudeDegrees>
            </Position>
            <AltitudeMeters>308.600006103515625</AltitudeMeters>
            <DistanceMeters>NAN</DistanceMeters>
          </Trackpoint>
          <Trackpoint>
            <Time>2022-07-11T17:00:22.000Z</Time>
            <Position>
              <LatitudeDegrees>43.28242809511721134185791015625</LatitudeDegrees>
              <LongitudeDegrees>-2.74667096324265003204345703125</LongitudeDegrees>
            </Position>
            <AltitudeMeters>309</AltitudeMeters>
            <DistanceMeters>NAN</DistanceMeters>
          </Trackpoint>
          <Trackpoint>
            <Time>2022-07-11T17:00:26.000Z</Time>
            <Position>
              <LatitudeDegrees>43.28237512148916721343994140625</LatitudeDegrees>
              <LongitudeDegrees>-2.74667699821293354034423828125</LongitudeDegrees>
            </Position>
            <AltitudeMeters>309.600006103515625</AltitudeMeters>
            <DistanceMeters>NAN</DistanceMeters>
          </Trackpoint>
          <Trackpoint>
            <Time>2022-07-11T17:00:27.000Z</Time>
            <Position>
              <LatitudeDegrees>43.28236489556729793548583984375</LatitudeDegrees>
              <LongitudeDegrees>-2.746683619916439056396484375</LongitudeDegrees>
            </Position>
            <AltitudeMeters>309.79998779296875</AltitudeMeters>
            <DistanceMeters>NAN</DistanceMeters>
          </Trackpoint>
          <Trackpoint>
            <Time>2022-07-11T17:00:33.000Z</Time>
            <Position>
              <LatitudeDegrees>43.282280154526233673095703125</LatitudeDegrees>
              <LongitudeDegrees>-2.74669979698956012725830078125</LongitudeDegrees>
            </Position>
            <AltitudeMeters>310.20001220703125</AltitudeMeters>
            <DistanceMeters>NAN</DistanceMeters>
          </Trackpoint>
          <Trackpoint>
            <Time>2022-07-11T17:00:40.000Z</Time>
            <Position>
              <LatitudeDegrees>43.282181918621063232421875</LatitudeDegrees>
              <LongitudeDegrees>-2.74671136401593685150146484375</LongitudeDegrees>
            </Position>
            <AltitudeMeters>310.399993896484375</AltitudeMeters>
            <DistanceMeters>NAN</DistanceMeters>
          </Trackpoint>
          <Trackpoint>
            <Time>2022-07-11T17:00:41.000Z</Time>
            <Position>
              <LatitudeDegrees>43.282165490090847015380859375</LatitudeDegrees>
              <LongitudeDegrees>-2.7467055805027484893798828125</LongitudeDegrees>
            </Position>
            <AltitudeMeters>310.399993896484375</AltitudeMeters>
            <DistanceMeters>NAN</DistanceMeters>
          </Trackpoint>
          <Trackpoint>
            <Time>2022-07-11T17:00:42.000Z</Time>
            <Position>
              <LatitudeDegrees>43.28214914537966251373291015625</LatitudeDegrees>
              <LongitudeDegrees>-2.74669510312378406524658203125</LongitudeDegrees>
            </Position>
            <AltitudeMeters>310.399993896484375</AltitudeMeters>
            <DistanceMeters>NAN</DistanceMeters>
          </Trackpoint>
          <Trackpoint>
            <Time>2022-07-11T17:00:45.000Z</Time>
            <Position>
              <LatitudeDegrees>43.2821029610931873321533203125</LatitudeDegrees>
              <LongitudeDegrees>-2.74667900986969470977783203125</LongitudeDegrees>
            </Position>
            <AltitudeMeters>310.399993896484375</AltitudeMeters>
            <DistanceMeters>NAN</DistanceMeters>
          </Trackpoint>
          <Trackpoint>
            <Time>2022-07-11T17:00:47.000Z</Time>
            <Position>
              <LatitudeDegrees>43.28206951729953289031982421875</LatitudeDegrees>
              <LongitudeDegrees>-2.7466824464499950408935546875</LongitudeDegrees>
            </Position>
            <AltitudeMeters>310.399993896484375</AltitudeMeters>
            <DistanceMeters>NAN</DistanceMeters>
          </Trackpoint>
          <Trackpoint>
            <Time>2022-07-11T17:00:49.000Z</Time>
            <Position>
              <LatitudeDegrees>43.28203976154327392578125</LatitudeDegrees>
              <LongitudeDegrees>-2.74667632766067981719970703125</LongitudeDegrees>
            </Position>
            <AltitudeMeters>310.399993896484375</AltitudeMeters>
            <DistanceMeters>NAN</DistanceMeters>
          </Trackpoint>
          <Trackpoint>
            <Time>2022-07-11T17:00:52.000Z</Time>
            <Position>
              <LatitudeDegrees>43.28199684619903564453125</LatitudeDegrees>
              <LongitudeDegrees>-2.7466596476733684539794921875</LongitudeDegrees>
            </Position>
            <AltitudeMeters>310.600006103515625</AltitudeMeters>
            <DistanceMeters>NAN</DistanceMeters>
          </Trackpoint>
          <Trackpoint>
            <Time>2022-07-11T17:00:54.000Z</Time>
            <Position>
              <LatitudeDegrees>43.281973712146282196044921875</LatitudeDegrees>
              <LongitudeDegrees>-2.746674902737140655517578125</LongitudeDegrees>
            </Position>
            <AltitudeMeters>310.600006103515625</AltitudeMeters>
            <DistanceMeters>NAN</DistanceMeters>
          </Trackpoint>
          <Trackpoint>
            <Time>2022-07-11T17:00:56.000Z</Time>
            <Position>
              <LatitudeDegrees>43.28193926252424716949462890625</LatitudeDegrees>
              <LongitudeDegrees>-2.746703736484050750732421875</LongitudeDegrees>
            </Position>
            <AltitudeMeters>310.399993896484375</AltitudeMeters>
            <DistanceMeters>NAN</DistanceMeters>
          </Trackpoint>
          <Trackpoint>
            <Time>2022-07-11T17:00:57.000Z</Time>
            <Position>
              <LatitudeDegrees>43.28192266635596752166748046875</LatitudeDegrees>
              <LongitudeDegrees>-2.7467169798910617828369140625</LongitudeDegrees>
            </Position>
            <AltitudeMeters>310.399993896484375</AltitudeMeters>
            <DistanceMeters>NAN</DistanceMeters>
          </Trackpoint>
          <Trackpoint>
            <Time>2022-07-11T17:00:58.000Z</Time>
            <Position>
              <LatitudeDegrees>43.28190523199737071990966796875</LatitudeDegrees>
              <LongitudeDegrees>-2.74673449806869029998779296875</LongitudeDegrees>
            </Position>
            <AltitudeMeters>310.399993896484375</AltitudeMeters>
            <DistanceMeters>NAN</DistanceMeters>
          </Trackpoint>
          <Trackpoint>
            <Time>2022-07-11T17:01:01.000Z</Time>
            <Position>
              <LatitudeDegrees>43.28184253536164760589599609375</LatitudeDegrees>
              <LongitudeDegrees>-2.746768780052661895751953125</LongitudeDegrees>
            </Position>
            <AltitudeMeters>310.399993896484375</AltitudeMeters>
            <DistanceMeters>NAN</DistanceMeters>
          </Trackpoint>
          <Trackpoint>
            <Time>2022-07-11T17:01:03.000Z</Time>
            <Position>
              <LatitudeDegrees>43.28179677017033100128173828125</LatitudeDegrees>
              <LongitudeDegrees>-2.74678654968738555908203125</LongitudeDegrees>
            </Position>
            <AltitudeMeters>310.20001220703125</AltitudeMeters>
            <DistanceMeters>NAN</DistanceMeters>
          </Trackpoint>
          <Trackpoint>
            <Time>2022-07-11T17:01:11.000Z</Time>
            <Position>
              <LatitudeDegrees>43.281623013317584991455078125</LatitudeDegrees>
              <LongitudeDegrees>-2.74687699042260646820068359375</LongitudeDegrees>
            </Position>
            <AltitudeMeters>310.399993896484375</AltitudeMeters>
            <DistanceMeters>NAN</DistanceMeters>
          </Trackpoint>
          <Trackpoint>
            <Time>2022-07-11T17:01:14.000Z</Time>
            <Position>
              <LatitudeDegrees>43.28154212795197963714599609375</LatitudeDegrees>
              <LongitudeDegrees>-2.7468998730182647705078125</LongitudeDegrees>
            </Position>
            <AltitudeMeters>310.399993896484375</AltitudeMeters>
            <DistanceMeters>NAN</DistanceMeters>
          </Trackpoint>
          <Trackpoint>
            <Time>2022-07-11T17:01:18.000Z</Time>
            <Position>
              <LatitudeDegrees>43.28144992701709270477294921875</LatitudeDegrees>
              <LongitudeDegrees>-2.74693029932677745819091796875</LongitudeDegrees>
            </Position>
            <AltitudeMeters>310.399993896484375</AltitudeMeters>
            <DistanceMeters>NAN</DistanceMeters>
          </Trackpoint>
          <Trackpoint>
            <Time>2022-07-11T17:01:20.000Z</Time>
            <Position>
              <LatitudeDegrees>43.2813948579132556915283203125</LatitudeDegrees>
              <LongitudeDegrees>-2.74694203399121761322021484375</LongitudeDegrees>
            </Position>
            <AltitudeMeters>310.600006103515625</AltitudeMeters>
            <DistanceMeters>NAN</DistanceMeters>
          </Trackpoint>
          <Trackpoint>
            <Time>2022-07-11T17:01:22.000Z</Time>
            <Position>
              <LatitudeDegrees>43.28134431503713130950927734375</LatitudeDegrees>
              <LongitudeDegrees>-2.7469520084559917449951171875</LongitudeDegrees>
            </Position>
            <AltitudeMeters>310.600006103515625</AltitudeMeters>
            <DistanceMeters>NAN</DistanceMeters>
          </Trackpoint>
          <Trackpoint>
            <Time>2022-07-11T17:01:23.000Z</Time>
            <Position>
              <LatitudeDegrees>43.28131028451025485992431640625</LatitudeDegrees>
              <LongitudeDegrees>-2.74695494212210178375244140625</LongitudeDegrees>
            </Position>
            <AltitudeMeters>310.600006103515625</AltitudeMeters>
            <DistanceMeters>NAN</DistanceMeters>
          </Trackpoint>
          <Trackpoint>
            <Time>2022-07-11T17:01:24.000Z</Time>
            <Position>
              <LatitudeDegrees>43.2812885753810405731201171875</LatitudeDegrees>
              <LongitudeDegrees>-2.74696357548236846923828125</LongitudeDegrees>
            </Position>
            <AltitudeMeters>310.600006103515625</AltitudeMeters>
            <DistanceMeters>NAN</DistanceMeters>
          </Trackpoint>
          <Trackpoint>
            <Time>2022-07-11T17:01:25.000Z</Time>
            <Position>
              <LatitudeDegrees>43.2812604121863842010498046875</LatitudeDegrees>
              <LongitudeDegrees>-2.74697707034647464752197265625</LongitudeDegrees>
            </Position>
            <AltitudeMeters>310.600006103515625</AltitudeMeters>
            <DistanceMeters>NAN</DistanceMeters>
          </Trackpoint>
          <Trackpoint>
            <Time>2022-07-11T17:01:26.000Z</Time>
            <Position>
              <LatitudeDegrees>43.281234763562679290771484375</LatitudeDegrees>
              <LongitudeDegrees>-2.74698746390640735626220703125</LongitudeDegrees>
            </Position>
            <AltitudeMeters>310.600006103515625</AltitudeMeters>
            <DistanceMeters>NAN</DistanceMeters>
          </Trackpoint>
          <Trackpoint>
            <Time>2022-07-11T17:01:27.000Z</Time>
            <Position>
              <LatitudeDegrees>43.28120802529156208038330078125</LatitudeDegrees>
              <LongitudeDegrees>-2.7469912357628345489501953125</LongitudeDegrees>
            </Position>
            <AltitudeMeters>310.600006103515625</AltitudeMeters>
            <DistanceMeters>NAN</DistanceMeters>
          </Trackpoint>
          <Trackpoint>
            <Time>2022-07-11T17:01:28.000Z</Time>
            <Position>
              <LatitudeDegrees>43.28118145465850830078125</LatitudeDegrees>
              <LongitudeDegrees>-2.74699266068637371063232421875</LongitudeDegrees>
            </Position>
            <AltitudeMeters>310.79998779296875</AltitudeMeters>
            <DistanceMeters>NAN</DistanceMeters>
          </Trackpoint>
          <Trackpoint>
            <Time>2022-07-11T17:01:30.000Z</Time>
            <Position>
              <LatitudeDegrees>43.28112890012562274932861328125</LatitudeDegrees>
              <LongitudeDegrees>-2.7469910681247711181640625</LongitudeDegrees>
            </Position>
            <AltitudeMeters>310.79998779296875</AltitudeMeters>
            <DistanceMeters>NAN</DistanceMeters>
          </Trackpoint>
          <Trackpoint>
            <Time>2022-07-11T17:01:36.000Z</Time>
            <Position>
              <LatitudeDegrees>43.28088984824717044830322265625</LatitudeDegrees>
              <LongitudeDegrees>-2.7470934949815273284912109375</LongitudeDegrees>
            </Position>
            <AltitudeMeters>310.79998779296875</AltitudeMeters>
            <DistanceMeters>NAN</DistanceMeters>
          </Trackpoint>
          <Trackpoint>
            <Time>2022-07-11T17:01:38.000Z</Time>
            <Position>
              <LatitudeDegrees>43.28084282577037811279296875</LatitudeDegrees>
              <LongitudeDegrees>-2.7471364103257656097412109375</LongitudeDegrees>
            </Position>
            <AltitudeMeters>310.79998779296875</AltitudeMeters>
            <DistanceMeters>NAN</DistanceMeters>
          </Trackpoint>
          <Trackpoint>
            <Time>2022-07-11T17:01:45.000Z</Time>
            <Position>
              <LatitudeDegrees>43.28072019852697849273681640625</LatitudeDegrees>
              <LongitudeDegrees>-2.7471981011331081390380859375</LongitudeDegrees>
            </Position>
            <AltitudeMeters>310.79998779296875</AltitudeMeters>
            <DistanceMeters>NAN</DistanceMeters>
          </Trackpoint>
          <Trackpoint>
            <Time>2022-07-11T17:01:50.000Z</Time>
            <Position>
              <LatitudeDegrees>43.2805922068655490875244140625</LatitudeDegrees>
              <LongitudeDegrees>-2.7472634799778461456298828125</LongitudeDegrees>
            </Position>
            <AltitudeMeters>310.600006103515625</AltitudeMeters>
            <DistanceMeters>NAN</DistanceMeters>
          </Trackpoint>
          <Trackpoint>
            <Time>2022-07-11T17:01:56.000Z</Time>
            <Position>
              <LatitudeDegrees>43.280422389507293701171875</LatitudeDegrees>
              <LongitudeDegrees>-2.74733430705964565277099609375</LongitudeDegrees>
            </Position>
            <AltitudeMeters>310.399993896484375</AltitudeMeters>
            <DistanceMeters>NAN</DistanceMeters>
          </Trackpoint>
          <Trackpoint>
            <Time>2022-07-11T17:02:01.000Z</Time>
            <Position>
              <LatitudeDegrees>43.280218541622161865234375</LatitudeDegrees>
              <LongitudeDegrees>-2.74739096872508525848388671875</LongitudeDegrees>
            </Position>
            <AltitudeMeters>309.79998779296875</AltitudeMeters>
            <DistanceMeters>NAN</DistanceMeters>
          </Trackpoint>
          <Trackpoint>
            <Time>2022-07-11T17:02:02.000Z</Time>
            <Position>
              <LatitudeDegrees>43.28017235733568668365478515625</LatitudeDegrees>
              <LongitudeDegrees>-2.747403793036937713623046875</LongitudeDegrees>
            </Position>
            <AltitudeMeters>309.79998779296875</AltitudeMeters>
            <DistanceMeters>NAN</DistanceMeters>
          </Trackpoint>
          <Trackpoint>
            <Time>2022-07-11T17:02:06.000Z</Time>
            <Position>
              <LatitudeDegrees>43.27993749640882015228271484375</LatitudeDegrees>
              <LongitudeDegrees>-2.74743296205997467041015625</LongitudeDegrees>
            </Position>
            <AltitudeMeters>309.20001220703125</AltitudeMeters>
            <DistanceMeters>NAN</DistanceMeters>
          </Trackpoint>
          <Trackpoint>
            <Time>2022-07-11T17:02:11.000Z</Time>
            <Position>
              <LatitudeDegrees>43.2796420343220233917236328125</LatitudeDegrees>
              <LongitudeDegrees>-2.7474740333855152130126953125</LongitudeDegrees>
            </Position>
            <AltitudeMeters>308.79998779296875</AltitudeMeters>
            <DistanceMeters>NAN</DistanceMeters>
          </Trackpoint>
          <Trackpoint>
            <Time>2022-07-11T17:02:13.000Z</Time>
            <Position>
              <LatitudeDegrees>43.27954589389264583587646484375</LatitudeDegrees>
              <LongitudeDegrees>-2.74747881107032299041748046875</LongitudeDegrees>
            </Position>
            <AltitudeMeters>308.79998779296875</AltitudeMeters>
            <DistanceMeters>NAN</DistanceMeters>
          </Trackpoint>
          <Trackpoint>
            <Time>2022-07-11T17:02:14.000Z</Time>
            <Position>
              <LatitudeDegrees>43.27950599603354930877685546875</LatitudeDegrees>
              <LongitudeDegrees>-2.74749037809669971466064453125</LongitudeDegrees>
            </Position>
            <AltitudeMeters>308.79998779296875</AltitudeMeters>
            <DistanceMeters>NAN</DistanceMeters>
          </Trackpoint>
          <Trackpoint>
            <Time>2022-07-11T17:02:17.000Z</Time>
            <Position>
              <LatitudeDegrees>43.279386050999164581298828125</LatitudeDegrees>
              <LongitudeDegrees>-2.74751015938818454742431640625</LongitudeDegrees>
            </Position>
            <AltitudeMeters>308.399993896484375</AltitudeMeters>
            <DistanceMeters>NAN</DistanceMeters>
          </Trackpoint>
          <Trackpoint>
            <Time>2022-07-11T17:02:23.000Z</Time>
            <Position>
              <LatitudeDegrees>43.27919117175042629241943359375</LatitudeDegrees>
              <LongitudeDegrees>-2.747552655637264251708984375</LongitudeDegrees>
            </Position>
            <AltitudeMeters>308</AltitudeMeters>
            <DistanceMeters>NAN</DistanceMeters>
          </Trackpoint>
          <Trackpoint>
            <Time>2022-07-11T17:02:26.000Z</Time>
            <Position>
              <LatitudeDegrees>43.2790653593838214874267578125</LatitudeDegrees>
              <LongitudeDegrees>-2.7476041205227375030517578125</LongitudeDegrees>
            </Position>
            <AltitudeMeters>307.600006103515625</AltitudeMeters>
            <DistanceMeters>NAN</DistanceMeters>
          </Trackpoint>
          <Trackpoint>
            <Time>2022-07-11T17:02:27.000Z</Time>
            <Position>
              <LatitudeDegrees>43.279018588364124298095703125</LatitudeDegrees>
              <LongitudeDegrees>-2.74762071669101715087890625</LongitudeDegrees>
            </Position>
            <AltitudeMeters>307.600006103515625</AltitudeMeters>
            <DistanceMeters>NAN</DistanceMeters>
          </Trackpoint>
          <Trackpoint>
            <Time>2022-07-11T17:02:29.000Z</Time>
            <Position>
              <LatitudeDegrees>43.278927393257617950439453125</LatitudeDegrees>
              <LongitudeDegrees>-2.74766027927398681640625</LongitudeDegrees>
            </Position>
            <AltitudeMeters>307.399993896484375</AltitudeMeters>
            <DistanceMeters>NAN</DistanceMeters>
          </Trackpoint>
          <Trackpoint>
            <Time>2022-07-11T17:02:31.000Z</Time>
            <Position>
              <LatitudeDegrees>43.2788786105811595916748046875</LatitudeDegrees>
              <LongitudeDegrees>-2.747754491865634918212890625</LongitudeDegrees>
            </Position>
            <AltitudeMeters>306.79998779296875</AltitudeMeters>
            <DistanceMeters>NAN</DistanceMeters>
          </Trackpoint>
          <Trackpoint>
            <Time>2022-07-11T17:02:32.000Z</Time>
            <Position>
              <LatitudeDegrees>43.27888053841888904571533203125</LatitudeDegrees>
              <LongitudeDegrees>-2.74780319072306156158447265625</LongitudeDegrees>
            </Position>
            <AltitudeMeters>306.399993896484375</AltitudeMeters>
            <DistanceMeters>NAN</DistanceMeters>
          </Trackpoint>
          <Trackpoint>
            <Time>2022-07-11T17:02:33.000Z</Time>
            <Position>
              <LatitudeDegrees>43.278902582824230194091796875</LatitudeDegrees>
              <LongitudeDegrees>-2.7478525601327419281005859375</LongitudeDegrees>
            </Position>
            <AltitudeMeters>306.20001220703125</AltitudeMeters>
            <DistanceMeters>NAN</DistanceMeters>
          </Trackpoint>
          <Trackpoint>
            <Time>2022-07-11T17:02:35.000Z</Time>
            <Position>
              <LatitudeDegrees>43.27896771021187305450439453125</LatitudeDegrees>
              <LongitudeDegrees>-2.74792405776679515838623046875</LongitudeDegrees>
            </Position>
            <AltitudeMeters>305.600006103515625</AltitudeMeters>
            <DistanceMeters>NAN</DistanceMeters>
          </Trackpoint>
          <Trackpoint>
            <Time>2022-07-11T17:02:36.000Z</Time>
            <Position>
              <LatitudeDegrees>43.27900894917547702789306640625</LatitudeDegrees>
              <LongitudeDegrees>-2.747934199869632720947265625</LongitudeDegrees>
            </Position>
            <AltitudeMeters>305.399993896484375</AltitudeMeters>
            <DistanceMeters>NAN</DistanceMeters>
          </Trackpoint>
          <Trackpoint>
            <Time>2022-07-11T17:02:37.000Z</Time>
            <Position>
              <LatitudeDegrees>43.27905387617647647857666015625</LatitudeDegrees>
              <LongitudeDegrees>-2.74793897755444049835205078125</LongitudeDegrees>
            </Position>
            <AltitudeMeters>305.20001220703125</AltitudeMeters>
            <DistanceMeters>NAN</DistanceMeters>
          </Trackpoint>
          <Trackpoint>
            <Time>2022-07-11T17:02:39.000Z</Time>
            <Position>
              <LatitudeDegrees>43.27915764413774013519287109375</LatitudeDegrees>
              <LongitudeDegrees>-2.747944258153438568115234375</LongitudeDegrees>
            </Position>
            <AltitudeMeters>304.600006103515625</AltitudeMeters>
            <DistanceMeters>NAN</DistanceMeters>
          </Trackpoint>
          <Trackpoint>
            <Time>2022-07-11T17:02:40.000Z</Time>
            <Position>
              <LatitudeDegrees>43.2792165689170360565185546875</LatitudeDegrees>
              <LongitudeDegrees>-2.74793721735477447509765625</LongitudeDegrees>
            </Position>
            <AltitudeMeters>304</AltitudeMeters>
            <DistanceMeters>NAN</DistanceMeters>
          </Trackpoint>
          <Trackpoint>
            <Time>2022-07-11T17:02:41.000Z</Time>
            <Position>
              <LatitudeDegrees>43.27927800826728343963623046875</LatitudeDegrees>
              <LongitudeDegrees>-2.74793394841253757476806640625</LongitudeDegrees>
            </Position>
            <AltitudeMeters>303.399993896484375</AltitudeMeters>
            <DistanceMeters>NAN</DistanceMeters>
          </Trackpoint>
          <Trackpoint>
            <Time>2022-07-11T17:02:42.000Z</Time>
            <Position>
              <LatitudeDegrees>43.27933668158948421478271484375</LatitudeDegrees>
              <LongitudeDegrees>-2.74794199503958225250244140625</LongitudeDegrees>
            </Position>
            <AltitudeMeters>302.600006103515625</AltitudeMeters>
            <DistanceMeters>NAN</DistanceMeters>
          </Trackpoint>
          <Trackpoint>
            <Time>2022-07-11T17:02:44.000Z</Time>
            <Position>
              <LatitudeDegrees>43.27944648452103137969970703125</LatitudeDegrees>
              <LongitudeDegrees>-2.74796864949166774749755859375</LongitudeDegrees>
            </Position>
            <AltitudeMeters>301.20001220703125</AltitudeMeters>
            <DistanceMeters>NAN</DistanceMeters>
          </Trackpoint>
          <Trackpoint>
            <Time>2022-07-11T17:02:47.000Z</Time>
            <Position>
              <LatitudeDegrees>43.27959216199815273284912109375</LatitudeDegrees>
              <LongitudeDegrees>-2.74799630977213382720947265625</LongitudeDegrees>
            </Position>
            <AltitudeMeters>299.600006103515625</AltitudeMeters>
            <DistanceMeters>NAN</DistanceMeters>
          </Trackpoint>
          <Trackpoint>
            <Time>2022-07-11T17:02:50.000Z</Time>
            <Position>
              <LatitudeDegrees>43.279741108417510986328125</LatitudeDegrees>
              <LongitudeDegrees>-2.7480451762676239013671875</LongitudeDegrees>
            </Position>
            <AltitudeMeters>299</AltitudeMeters>
            <DistanceMeters>NAN</DistanceMeters>
          </Trackpoint>
          <Trackpoint>
            <Time>2022-07-11T17:02:52.000Z</Time>
            <Position>
              <LatitudeDegrees>43.27984915114939212799072265625</LatitudeDegrees>
              <LongitudeDegrees>-2.74808867834508419036865234375</LongitudeDegrees>
            </Position>
            <AltitudeMeters>299</AltitudeMeters>
            <DistanceMeters>NAN</DistanceMeters>
          </Trackpoint>
          <Trackpoint>
            <Time>2022-07-11T17:02:54.000Z</Time>
            <Position>
              <LatitudeDegrees>43.27992961741983890533447265625</LatitudeDegrees>
              <LongitudeDegrees>-2.7481740899384021759033203125</LongitudeDegrees>
            </Position>
            <AltitudeMeters>298.79998779296875</AltitudeMeters>
            <DistanceMeters>NAN</DistanceMeters>
          </Trackpoint>
          <Trackpoint>
            <Time>2022-07-11T17:02:55.000Z</Time>
            <Position>
              <LatitudeDegrees>43.27995191328227519989013671875</LatitudeDegrees>
              <LongitudeDegrees>-2.74823234416544437408447265625</LongitudeDegrees>
            </Position>
            <AltitudeMeters>298.600006103515625</AltitudeMeters>
            <DistanceMeters>NAN</DistanceMeters>
          </Trackpoint>
          <Trackpoint>
            <Time>2022-07-11T17:02:57.000Z</Time>
            <Position>
              <LatitudeDegrees>43.27999751083552837371826171875</LatitudeDegrees>
              <LongitudeDegrees>-2.74837131612002849578857421875</LongitudeDegrees>
            </Position>
            <AltitudeMeters>298.399993896484375</AltitudeMeters>
            <DistanceMeters>NAN</DistanceMeters>
          </Trackpoint>
          <Trackpoint>
            <Time>2022-07-11T17:02:58.000Z</Time>
            <Position>
              <LatitudeDegrees>43.28001670539379119873046875</LatitudeDegrees>
              <LongitudeDegrees>-2.748443819582462310791015625</LongitudeDegrees>
            </Position>
            <AltitudeMeters>298.20001220703125</AltitudeMeters>
            <DistanceMeters>NAN</DistanceMeters>
          </Trackpoint>
          <Trackpoint>
            <Time>2022-07-11T17:03:00.000Z</Time>
            <Position>
              <LatitudeDegrees>43.2800772227346897125244140625</LatitudeDegrees>
              <LongitudeDegrees>-2.748522944748401641845703125</LongitudeDegrees>
            </Position>
            <AltitudeMeters>297.79998779296875</AltitudeMeters>
            <DistanceMeters>NAN</DistanceMeters>
          </Trackpoint>
          <Trackpoint>
            <Time>2022-07-11T17:03:01.000Z</Time>
            <Position>
              <LatitudeDegrees>43.2801110856235027313232421875</LatitudeDegrees>
              <LongitudeDegrees>-2.7485304884612560272216796875</LongitudeDegrees>
            </Position>
            <AltitudeMeters>297.600006103515625</AltitudeMeters>
            <DistanceMeters>NAN</DistanceMeters>
          </Trackpoint>
          <Trackpoint>
            <Time>2022-07-11T17:03:02.000Z</Time>
            <Position>
              <LatitudeDegrees>43.2801590301096439361572265625</LatitudeDegrees>
              <LongitudeDegrees>-2.74852738715708255767822265625</LongitudeDegrees>
            </Position>
            <AltitudeMeters>297.399993896484375</AltitudeMeters>
            <DistanceMeters>NAN</DistanceMeters>
          </Trackpoint>
          <Trackpoint>
            <Time>2022-07-11T17:03:03.000Z</Time>
            <Position>
              <LatitudeDegrees>43.28022449277341365814208984375</LatitudeDegrees>
              <LongitudeDegrees>-2.74852990172803401947021484375</LongitudeDegrees>
            </Position>
            <AltitudeMeters>297.399993896484375</AltitudeMeters>
            <DistanceMeters>NAN</DistanceMeters>
          </Trackpoint>
          <Trackpoint>
            <Time>2022-07-11T17:03:06.000Z</Time>
            <Position>
              <LatitudeDegrees>43.280371762812137603759765625</LatitudeDegrees>
              <LongitudeDegrees>-2.74858270771801471710205078125</LongitudeDegrees>
            </Position>
            <AltitudeMeters>297.20001220703125</AltitudeMeters>
            <DistanceMeters>NAN</DistanceMeters>
          </Trackpoint>
          <Trackpoint>
            <Time>2022-07-11T17:03:08.000Z</Time>
            <Position>
              <LatitudeDegrees>43.28039263375103473663330078125</LatitudeDegrees>
              <LongitudeDegrees>-2.74866501800715923309326171875</LongitudeDegrees>
            </Position>
            <AltitudeMeters>297.20001220703125</AltitudeMeters>
            <DistanceMeters>NAN</DistanceMeters>
          </Trackpoint>
          <Trackpoint>
            <Time>2022-07-11T17:03:12.000Z</Time>
            <Position>
              <LatitudeDegrees>43.2804671488702297210693359375</LatitudeDegrees>
              <LongitudeDegrees>-2.7486746571958065032958984375</LongitudeDegrees>
            </Position>
            <AltitudeMeters>297.20001220703125</AltitudeMeters>
            <DistanceMeters>NAN</DistanceMeters>
          </Trackpoint>
          <Trackpoint>
            <Time>2022-07-11T17:03:16.000Z</Time>
            <Position>
              <LatitudeDegrees>43.28067895956337451934814453125</LatitudeDegrees>
              <LongitudeDegrees>-2.7485869824886322021484375</LongitudeDegrees>
            </Position>
            <AltitudeMeters>297.20001220703125</AltitudeMeters>
            <DistanceMeters>NAN</DistanceMeters>
          </Trackpoint>
          <Trackpoint>
            <Time>2022-07-11T17:03:23.000Z</Time>
            <Position>
              <LatitudeDegrees>43.28098339028656482696533203125</LatitudeDegrees>
              <LongitudeDegrees>-2.74858773685991764068603515625</LongitudeDegrees>
            </Position>
            <AltitudeMeters>297</AltitudeMeters>
            <DistanceMeters>NAN</DistanceMeters>
          </Trackpoint>
          <Trackpoint>
            <Time>2022-07-11T17:03:26.000Z</Time>
            <Position>
              <LatitudeDegrees>43.28110191039741039276123046875</LatitudeDegrees>
              <LongitudeDegrees>-2.74864758364856243133544921875</LongitudeDegrees>
            </Position>
            <AltitudeMeters>297</AltitudeMeters>
            <DistanceMeters>NAN</DistanceMeters>
          </Trackpoint>
          <Trackpoint>
            <Time>2022-07-11T17:03:28.000Z</Time>
            <Position>
              <LatitudeDegrees>43.281187824904918670654296875</LatitudeDegrees>
              <LongitudeDegrees>-2.7487125433981418609619140625</LongitudeDegrees>
            </Position>
            <AltitudeMeters>297</AltitudeMeters>
            <DistanceMeters>NAN</DistanceMeters>
          </Trackpoint>
          <Trackpoint>
            <Time>2022-07-11T17:03:29.000Z</Time>
            <Position>
              <LatitudeDegrees>43.281223364174365997314453125</LatitudeDegrees>
              <LongitudeDegrees>-2.748736850917339324951171875</LongitudeDegrees>
            </Position>
            <AltitudeMeters>297</AltitudeMeters>
            <DistanceMeters>NAN</DistanceMeters>
          </Trackpoint>
          <Trackpoint>
            <Time>2022-07-11T17:03:34.000Z</Time>
            <Position>
              <LatitudeDegrees>43.28140282072126865386962890625</LatitudeDegrees>
              <LongitudeDegrees>-2.7488557063043117523193359375</LongitudeDegrees>
            </Position>
            <AltitudeMeters>297</AltitudeMeters>
            <DistanceMeters>NAN</DistanceMeters>
          </Trackpoint>
          <Trackpoint>
            <Time>2022-07-11T17:03:37.000Z</Time>
            <Position>
              <LatitudeDegrees>43.2815095223486423492431640625</LatitudeDegrees>
              <LongitudeDegrees>-2.74897045455873012542724609375</LongitudeDegrees>
            </Position>
            <AltitudeMeters>296.79998779296875</AltitudeMeters>
            <DistanceMeters>NAN</DistanceMeters>
          </Trackpoint>
          <Trackpoint>
            <Time>2022-07-11T17:03:41.000Z</Time>
            <Position>
              <LatitudeDegrees>43.28160013072192668914794921875</LatitudeDegrees>
              <LongitudeDegrees>-2.7490954287350177764892578125</LongitudeDegrees>
            </Position>
            <AltitudeMeters>296.79998779296875</AltitudeMeters>
            <DistanceMeters>NAN</DistanceMeters>
          </Trackpoint>
          <Trackpoint>
            <Time>2022-07-11T17:03:45.000Z</Time>
            <Position>
              <LatitudeDegrees>43.2816610671579837799072265625</LatitudeDegrees>
              <LongitudeDegrees>-2.74917279370129108428955078125</LongitudeDegrees>
            </Position>
            <AltitudeMeters>296.399993896484375</AltitudeMeters>
            <DistanceMeters>NAN</DistanceMeters>
          </Trackpoint>
          <Trackpoint>
            <Time>2022-07-11T17:03:46.000Z</Time>
            <Position>
              <LatitudeDegrees>43.28166366554796695709228515625</LatitudeDegrees>
              <LongitudeDegrees>-2.74917581118643283843994140625</LongitudeDegrees>
            </Position>
            <AltitudeMeters>296.20001220703125</AltitudeMeters>
            <DistanceMeters>NAN</DistanceMeters>
          </Trackpoint>
          <Trackpoint>
            <Time>2022-07-11T17:03:47.000Z</Time>
            <Position>
              <LatitudeDegrees>43.28166366554796695709228515625</LatitudeDegrees>
              <LongitudeDegrees>-2.74917581118643283843994140625</LongitudeDegrees>
            </Position>
            <AltitudeMeters>296.20001220703125</AltitudeMeters>
            <DistanceMeters>NAN</DistanceMeters>
          </Trackpoint>
          <Trackpoint>
            <Time>2022-07-11T17:05:10.000Z</Time>
            <Position>
              <LatitudeDegrees>43.28167255036532878875732421875</LatitudeDegrees>
              <LongitudeDegrees>-2.7492499910295009613037109375</LongitudeDegrees>
            </Position>
            <AltitudeMeters>294.20001220703125</AltitudeMeters>
            <DistanceMeters>NAN</DistanceMeters>
          </Trackpoint>
          <Trackpoint>
            <Time>2022-07-11T17:05:11.000Z</Time>
            <Position>
              <LatitudeDegrees>43.28167699277400970458984375</LatitudeDegrees>
              <LongitudeDegrees>-2.74928980506956577301025390625</LongitudeDegrees>
            </Position>
            <AltitudeMeters>294.20001220703125</AltitudeMeters>
            <DistanceMeters>NAN</DistanceMeters>
          </Trackpoint>
          <Trackpoint>
            <Time>2022-07-11T17:05:12.000Z</Time>
            <Position>
              <LatitudeDegrees>43.2816811837255954742431640625</LatitudeDegrees>
              <LongitudeDegrees>-2.749320901930332183837890625</LongitudeDegrees>
            </Position>
            <AltitudeMeters>294</AltitudeMeters>
            <DistanceMeters>NAN</DistanceMeters>
          </Trackpoint>
          <Trackpoint>
            <Time>2022-07-11T17:05:17.000Z</Time>
            <Position>
              <LatitudeDegrees>43.281741701066493988037109375</LatitudeDegrees>
              <LongitudeDegrees>-2.74951745755970478057861328125</LongitudeDegrees>
            </Position>
            <AltitudeMeters>293.600006103515625</AltitudeMeters>
            <DistanceMeters>NAN</DistanceMeters>
          </Trackpoint>
          <Trackpoint>
            <Time>2022-07-11T17:05:20.000Z</Time>
            <Position>
              <LatitudeDegrees>43.28182258643209934234619140625</LatitudeDegrees>
              <LongitudeDegrees>-2.7495664916932582855224609375</LongitudeDegrees>
            </Position>
            <AltitudeMeters>293.399993896484375</AltitudeMeters>
            <DistanceMeters>NAN</DistanceMeters>
          </Trackpoint>
          <Trackpoint>
            <Time>2022-07-11T17:05:21.000Z</Time>
            <Position>
              <LatitudeDegrees>43.2818598859012126922607421875</LatitudeDegrees>
              <LongitudeDegrees>-2.74957344867289066314697265625</LongitudeDegrees>
            </Position>
            <AltitudeMeters>293.399993896484375</AltitudeMeters>
            <DistanceMeters>NAN</DistanceMeters>
          </Trackpoint>
          <Trackpoint>
            <Time>2022-07-11T17:05:23.000Z</Time>
            <Position>
              <LatitudeDegrees>43.28191160224378108978271484375</LatitudeDegrees>
              <LongitudeDegrees>-2.74957562796771526336669921875</LongitudeDegrees>
            </Position>
            <AltitudeMeters>293.20001220703125</AltitudeMeters>
            <DistanceMeters>NAN</DistanceMeters>
          </Trackpoint>
          <Trackpoint>
            <Time>2022-07-11T17:05:28.000Z</Time>
            <Position>
              <LatitudeDegrees>43.28206649981439113616943359375</LatitudeDegrees>
              <LongitudeDegrees>-2.74960957467555999755859375</LongitudeDegrees>
            </Position>
            <AltitudeMeters>293.399993896484375</AltitudeMeters>
            <DistanceMeters>NAN</DistanceMeters>
          </Trackpoint>
          <Trackpoint>
            <Time>2022-07-11T17:05:31.000Z</Time>
            <Position>
              <LatitudeDegrees>43.2821465469896793365478515625</LatitudeDegrees>
              <LongitudeDegrees>-2.74965072982013225555419921875</LongitudeDegrees>
            </Position>
            <AltitudeMeters>293.20001220703125</AltitudeMeters>
            <DistanceMeters>NAN</DistanceMeters>
          </Trackpoint>
          <Trackpoint>
            <Time>2022-07-11T17:05:34.000Z</Time>
            <Position>
              <LatitudeDegrees>43.28220999799668788909912109375</LatitudeDegrees>
              <LongitudeDegrees>-2.74971962906420230865478515625</LongitudeDegrees>
            </Position>
            <AltitudeMeters>292.79998779296875</AltitudeMeters>
            <DistanceMeters>NAN</DistanceMeters>
          </Trackpoint>
          <Trackpoint>
            <Time>2022-07-11T17:05:38.000Z</Time>
            <Position>
              <LatitudeDegrees>43.28224989585578441619873046875</LatitudeDegrees>
              <LongitudeDegrees>-2.7497881092131137847900390625</LongitudeDegrees>
            </Position>
            <AltitudeMeters>292.399993896484375</AltitudeMeters>
            <DistanceMeters>NAN</DistanceMeters>
          </Trackpoint>
          <Trackpoint>
            <Time>2022-07-11T17:05:39.000Z</Time>
            <Position>
              <LatitudeDegrees>43.28225743956863880157470703125</LatitudeDegrees>
              <LongitudeDegrees>-2.74979406036436557769775390625</LongitudeDegrees>
            </Position>
            <AltitudeMeters>292.20001220703125</AltitudeMeters>
            <DistanceMeters>NAN</DistanceMeters>
          </Trackpoint>
          <Trackpoint>
            <Time>2022-07-11T17:05:41.000Z</Time>
            <Position>
              <LatitudeDegrees>43.28225743956863880157470703125</LatitudeDegrees>
              <LongitudeDegrees>-2.74979406036436557769775390625</LongitudeDegrees>
            </Position>
            <AltitudeMeters>292.20001220703125</AltitudeMeters>
            <DistanceMeters>NAN</DistanceMeters>
          </Trackpoint>
          <Trackpoint>
            <Time>2022-07-11T17:06:09.000Z</Time>
            <Position>
              <LatitudeDegrees>43.28214637935161590576171875</LatitudeDegrees>
              <LongitudeDegrees>-2.7497974969446659088134765625</LongitudeDegrees>
            </Position>
            <AltitudeMeters>292</AltitudeMeters>
            <DistanceMeters>NAN</DistanceMeters>
          </Trackpoint>
          <Trackpoint>
            <Time>2022-07-11T17:06:10.000Z</Time>
            <Position>
              <LatitudeDegrees>43.28213171102106571197509765625</LatitudeDegrees>
              <LongitudeDegrees>-2.74981048889458179473876953125</LongitudeDegrees>
            </Position>
            <AltitudeMeters>292.399993896484375</AltitudeMeters>
            <DistanceMeters>NAN</DistanceMeters>
          </Trackpoint>
          <Trackpoint>
            <Time>2022-07-11T17:06:13.000Z</Time>
            <Position>
              <LatitudeDegrees>43.282099775969982147216796875</LatitudeDegrees>
              <LongitudeDegrees>-2.74983077310025691986083984375</LongitudeDegrees>
            </Position>
            <AltitudeMeters>293</AltitudeMeters>
            <DistanceMeters>NAN</DistanceMeters>
          </Trackpoint>
          <Trackpoint>
            <Time>2022-07-11T17:06:15.000Z</Time>
            <Position>
              <LatitudeDegrees>43.28209013678133487701416015625</LatitudeDegrees>
              <LongitudeDegrees>-2.7498501352965831756591796875</LongitudeDegrees>
            </Position>
            <AltitudeMeters>293.79998779296875</AltitudeMeters>
            <DistanceMeters>NAN</DistanceMeters>
          </Trackpoint>
          <Trackpoint>
            <Time>2022-07-11T17:06:16.000Z</Time>
            <Position>
              <LatitudeDegrees>43.28208209015429019927978515625</LatitudeDegrees>
              <LongitudeDegrees>-2.74985231459140777587890625</LongitudeDegrees>
            </Position>
            <AltitudeMeters>294.20001220703125</AltitudeMeters>
            <DistanceMeters>NAN</DistanceMeters>
          </Trackpoint>
          <Trackpoint>
            <Time>2022-07-11T17:06:18.000Z</Time>
            <Position>
              <LatitudeDegrees>43.28207337297499179840087890625</LatitudeDegrees>
              <LongitudeDegrees>-2.74985005147755146026611328125</LongitudeDegrees>
            </Position>
            <AltitudeMeters>294.79998779296875</AltitudeMeters>
            <DistanceMeters>NAN</DistanceMeters>
          </Trackpoint>
          <Trackpoint>
            <Time>2022-07-11T17:06:20.000Z</Time>
            <Position>
              <LatitudeDegrees>43.2820375822484493255615234375</LatitudeDegrees>
              <LongitudeDegrees>-2.74982549250125885009765625</LongitudeDegrees>
            </Position>
            <AltitudeMeters>295.399993896484375</AltitudeMeters>
            <DistanceMeters>NAN</DistanceMeters>
          </Trackpoint>
          <Trackpoint>
            <Time>2022-07-11T17:06:21.000Z</Time>
            <Position>
              <LatitudeDegrees>43.2820235006511211395263671875</LatitudeDegrees>
              <LongitudeDegrees>-2.7498179487884044647216796875</LongitudeDegrees>
            </Position>
            <AltitudeMeters>295.399993896484375</AltitudeMeters>
            <DistanceMeters>NAN</DistanceMeters>
          </Trackpoint>
          <Trackpoint>
            <Time>2022-07-11T17:06:23.000Z</Time>
            <Position>
              <LatitudeDegrees>43.28199709765613079071044921875</LatitudeDegrees>
              <LongitudeDegrees>-2.74980445392429828643798828125</LongitudeDegrees>
            </Position>
            <AltitudeMeters>295.79998779296875</AltitudeMeters>
            <DistanceMeters>NAN</DistanceMeters>
          </Trackpoint>
          <Trackpoint>
            <Time>2022-07-11T17:06:26.000Z</Time>
            <Position>
              <LatitudeDegrees>43.28196926973760128021240234375</LatitudeDegrees>
              <LongitudeDegrees>-2.749779224395751953125</LongitudeDegrees>
            </Position>
            <AltitudeMeters>296.399993896484375</AltitudeMeters>
            <DistanceMeters>NAN</DistanceMeters>
          </Trackpoint>
          <Trackpoint>
            <Time>2022-07-11T17:06:28.000Z</Time>
            <Position>
              <LatitudeDegrees>43.28196088783442974090576171875</LatitudeDegrees>
              <LongitudeDegrees>-2.7497740276157855987548828125</LongitudeDegrees>
            </Position>
            <AltitudeMeters>296.79998779296875</AltitudeMeters>
            <DistanceMeters>NAN</DistanceMeters>
          </Trackpoint>
          <Trackpoint>
            <Time>2022-07-11T17:06:32.000Z</Time>
            <Position>
              <LatitudeDegrees>43.281902968883514404296875</LatitudeDegrees>
              <LongitudeDegrees>-2.7497408352792263031005859375</LongitudeDegrees>
            </Position>
            <AltitudeMeters>297</AltitudeMeters>
            <DistanceMeters>NAN</DistanceMeters>
          </Trackpoint>
          <Trackpoint>
            <Time>2022-07-11T17:06:33.000Z</Time>
            <Position>
              <LatitudeDegrees>43.28189156949520111083984375</LatitudeDegrees>
              <LongitudeDegrees>-2.749730609357357025146484375</LongitudeDegrees>
            </Position>
            <AltitudeMeters>297</AltitudeMeters>
            <DistanceMeters>NAN</DistanceMeters>
          </Trackpoint>
          <Trackpoint>
            <Time>2022-07-11T17:06:34.000Z</Time>
            <Position>
              <LatitudeDegrees>43.28188352286815643310546875</LatitudeDegrees>
              <LongitudeDegrees>-2.7497217245399951934814453125</LongitudeDegrees>
            </Position>
            <AltitudeMeters>296.79998779296875</AltitudeMeters>
            <DistanceMeters>NAN</DistanceMeters>
          </Trackpoint>
          <Trackpoint>
            <Time>2022-07-11T17:06:37.000Z</Time>
            <Position>
              <LatitudeDegrees>43.2818461395800113677978515625</LatitudeDegrees>
              <LongitudeDegrees>-2.74968861602246761322021484375</LongitudeDegrees>
            </Position>
            <AltitudeMeters>296.79998779296875</AltitudeMeters>
            <DistanceMeters>NAN</DistanceMeters>
          </Trackpoint>
          <Trackpoint>
            <Time>2022-07-11T17:06:38.000Z</Time>
            <Position>
              <LatitudeDegrees>43.2818444631993770599365234375</LatitudeDegrees>
              <LongitudeDegrees>-2.7496824972331523895263671875</LongitudeDegrees>
            </Position>
            <AltitudeMeters>296.79998779296875</AltitudeMeters>
            <DistanceMeters>NAN</DistanceMeters>
          </Trackpoint>
          <Trackpoint>
            <Time>2022-07-11T17:06:39.000Z</Time>
            <Position>
              <LatitudeDegrees>43.28183717094361782073974609375</LatitudeDegrees>
              <LongitudeDegrees>-2.74968207813799381256103515625</LongitudeDegrees>
            </Position>
            <AltitudeMeters>296.79998779296875</AltitudeMeters>
            <DistanceMeters>NAN</DistanceMeters>
          </Trackpoint>
          <Trackpoint>
            <Time>2022-07-11T17:06:42.000Z</Time>
            <Position>
              <LatitudeDegrees>43.28181303106248378753662109375</LatitudeDegrees>
              <LongitudeDegrees>-2.7496694214642047882080078125</LongitudeDegrees>
            </Position>
            <AltitudeMeters>296.79998779296875</AltitudeMeters>
            <DistanceMeters>NAN</DistanceMeters>
          </Trackpoint>
          <Trackpoint>
            <Time>2022-07-11T17:06:47.000Z</Time>
            <Position>
              <LatitudeDegrees>43.281762488186359405517578125</LatitudeDegrees>
              <LongitudeDegrees>-2.74965441785752773284912109375</LongitudeDegrees>
            </Position>
            <AltitudeMeters>296.79998779296875</AltitudeMeters>
            <DistanceMeters>NAN</DistanceMeters>
          </Trackpoint>
          <Trackpoint>
            <Time>2022-07-11T17:06:48.000Z</Time>
            <Position>
              <LatitudeDegrees>43.28175938688218593597412109375</LatitudeDegrees>
              <LongitudeDegrees>-2.74965508840978145599365234375</LongitudeDegrees>
            </Position>
            <AltitudeMeters>296.79998779296875</AltitudeMeters>
            <DistanceMeters>NAN</DistanceMeters>
          </Trackpoint>
          <Trackpoint>
            <Time>2022-07-11T17:06:50.000Z</Time>
            <Position>
              <LatitudeDegrees>43.28175938688218593597412109375</LatitudeDegrees>
              <LongitudeDegrees>-2.74965508840978145599365234375</LongitudeDegrees>
            </Position>
            <AltitudeMeters>296.600006103515625</AltitudeMeters>
            <DistanceMeters>NAN</DistanceMeters>
          </Trackpoint>
          <Trackpoint>
            <Time>2022-07-11T17:07:39.000Z</Time>
            <Position>
              <LatitudeDegrees>43.28207756392657756805419921875</LatitudeDegrees>
              <LongitudeDegrees>-2.74985231459140777587890625</LongitudeDegrees>
            </Position>
            <AltitudeMeters>295.79998779296875</AltitudeMeters>
            <DistanceMeters>NAN</DistanceMeters>
          </Trackpoint>
          <Trackpoint>
            <Time>2022-07-11T17:07:40.000Z</Time>
            <Position>
              <LatitudeDegrees>43.2820855267345905303955078125</LatitudeDegrees>
              <LongitudeDegrees>-2.7498454414308071136474609375</LongitudeDegrees>
            </Position>
            <AltitudeMeters>295.600006103515625</AltitudeMeters>
            <DistanceMeters>NAN</DistanceMeters>
          </Trackpoint>
          <Trackpoint>
            <Time>2022-07-11T17:07:41.000Z</Time>
            <Position>
              <LatitudeDegrees>43.28209499828517436981201171875</LatitudeDegrees>
              <LongitudeDegrees>-2.7498357184231281280517578125</LongitudeDegrees>
            </Position>
            <AltitudeMeters>295.20001220703125</AltitudeMeters>
            <DistanceMeters>NAN</DistanceMeters>
          </Trackpoint>
          <Trackpoint>
            <Time>2022-07-11T17:07:43.000Z</Time>
            <Position>
              <LatitudeDegrees>43.2821153663098812103271484375</LatitudeDegrees>
              <LongitudeDegrees>-2.74981820024549961090087890625</LongitudeDegrees>
            </Position>
            <AltitudeMeters>294.600006103515625</AltitudeMeters>
            <DistanceMeters>NAN</DistanceMeters>
          </Trackpoint>
          <Trackpoint>
            <Time>2022-07-11T17:07:45.000Z</Time>
            <Position>
              <LatitudeDegrees>43.28212249092757701873779296875</LatitudeDegrees>
              <LongitudeDegrees>-2.749809063971042633056640625</LongitudeDegrees>
            </Position>
            <AltitudeMeters>294.399993896484375</AltitudeMeters>
            <DistanceMeters>NAN</DistanceMeters>
          </Trackpoint>
          <Trackpoint>
            <Time>2022-07-11T17:07:46.000Z</Time>
            <Position>
              <LatitudeDegrees>43.28212869353592395782470703125</LatitudeDegrees>
              <LongitudeDegrees>-2.74979992769658565521240234375</LongitudeDegrees>
            </Position>
            <AltitudeMeters>294</AltitudeMeters>
            <DistanceMeters>NAN</DistanceMeters>
          </Trackpoint>
          <Trackpoint>
            <Time>2022-07-11T17:07:50.000Z</Time>
            <Position>
              <LatitudeDegrees>43.28216808848083019256591796875</LatitudeDegrees>
              <LongitudeDegrees>-2.74976438842713832855224609375</LongitudeDegrees>
            </Position>
            <AltitudeMeters>292.79998779296875</AltitudeMeters>
            <DistanceMeters>NAN</DistanceMeters>
          </Trackpoint>
          <Trackpoint>
            <Time>2022-07-11T17:07:52.000Z</Time>
            <Position>
              <LatitudeDegrees>43.282170854508876800537109375</LatitudeDegrees>
              <LongitudeDegrees>-2.74976271204650402069091796875</LongitudeDegrees>
            </Position>
            <AltitudeMeters>292.79998779296875</AltitudeMeters>
            <DistanceMeters>NAN</DistanceMeters>
          </Trackpoint>
          <Trackpoint>
            <Time>2022-07-11T17:07:56.000Z</Time>
            <Position>
              <LatitudeDegrees>43.28217211179435253143310546875</LatitudeDegrees>
              <LongitudeDegrees>-2.7497663162648677825927734375</LongitudeDegrees>
            </Position>
            <AltitudeMeters>292.399993896484375</AltitudeMeters>
            <DistanceMeters>NAN</DistanceMeters>
          </Trackpoint>
          <Trackpoint>
            <Time>2022-07-11T17:08:14.000Z</Time>
            <Position>
              <LatitudeDegrees>43.2822193019092082977294921875</LatitudeDegrees>
              <LongitudeDegrees>-2.7498162724077701568603515625</LongitudeDegrees>
            </Position>
            <AltitudeMeters>292.600006103515625</AltitudeMeters>
            <DistanceMeters>NAN</DistanceMeters>
          </Trackpoint>
          <Trackpoint>
            <Time>2022-07-11T17:08:20.000Z</Time>
            <Position>
              <LatitudeDegrees>43.28223480843007564544677734375</LatitudeDegrees>
              <LongitudeDegrees>-2.7499656379222869873046875</LongitudeDegrees>
            </Position>
            <AltitudeMeters>292.79998779296875</AltitudeMeters>
            <DistanceMeters>NAN</DistanceMeters>
          </Trackpoint>
          <Trackpoint>
            <Time>2022-07-11T17:08:26.000Z</Time>
            <Position>
              <LatitudeDegrees>43.2821991853415966033935546875</LatitudeDegrees>
              <LongitudeDegrees>-2.75014861486852169036865234375</LongitudeDegrees>
            </Position>
            <AltitudeMeters>292.79998779296875</AltitudeMeters>
            <DistanceMeters>NAN</DistanceMeters>
          </Trackpoint>
          <Trackpoint>
            <Time>2022-07-11T17:08:31.000Z</Time>
            <Position>
              <LatitudeDegrees>43.2821368239820003509521484375</LatitudeDegrees>
              <LongitudeDegrees>-2.75030829012393951416015625</LongitudeDegrees>
            </Position>
            <AltitudeMeters>292.79998779296875</AltitudeMeters>
            <DistanceMeters>NAN</DistanceMeters>
          </Trackpoint>
          <Trackpoint>
            <Time>2022-07-11T17:08:32.000Z</Time>
            <Position>
              <LatitudeDegrees>43.28211226500570774078369140625</LatitudeDegrees>
              <LongitudeDegrees>-2.75033972226083278656005859375</LongitudeDegrees>
            </Position>
            <AltitudeMeters>292.79998779296875</AltitudeMeters>
            <DistanceMeters>NAN</DistanceMeters>
          </Trackpoint>
          <Trackpoint>
            <Time>2022-07-11T17:08:39.000Z</Time>
            <Position>
              <LatitudeDegrees>43.28197513706982135772705078125</LatitudeDegrees>
              <LongitudeDegrees>-2.7505753375589847564697265625</LongitudeDegrees>
            </Position>
            <AltitudeMeters>292.79998779296875</AltitudeMeters>
            <DistanceMeters>NAN</DistanceMeters>
          </Trackpoint>
          <Trackpoint>
            <Time>2022-07-11T17:08:44.000Z</Time>
            <Position>
              <LatitudeDegrees>43.2819269411265850067138671875</LatitudeDegrees>
              <LongitudeDegrees>-2.75074188597500324249267578125</LongitudeDegrees>
            </Position>
            <AltitudeMeters>292.600006103515625</AltitudeMeters>
            <DistanceMeters>NAN</DistanceMeters>
          </Trackpoint>
          <Trackpoint>
            <Time>2022-07-11T17:08:46.000Z</Time>
            <Position>
              <LatitudeDegrees>43.28193574212491512298583984375</LatitudeDegrees>
              <LongitudeDegrees>-2.75079913437366485595703125</LongitudeDegrees>
            </Position>
            <AltitudeMeters>292.399993896484375</AltitudeMeters>
            <DistanceMeters>NAN</DistanceMeters>
          </Trackpoint>
          <Trackpoint>
            <Time>2022-07-11T17:08:48.000Z</Time>
            <Position>
              <LatitudeDegrees>43.28199324198067188262939453125</LatitudeDegrees>
              <LongitudeDegrees>-2.7508314885199069976806640625</LongitudeDegrees>
            </Position>
            <AltitudeMeters>292.399993896484375</AltitudeMeters>
            <DistanceMeters>NAN</DistanceMeters>
          </Trackpoint>
          <Trackpoint>
            <Time>2022-07-11T17:08:55.000Z</Time>
            <Position>
              <LatitudeDegrees>43.28225173987448215484619140625</LatitudeDegrees>
              <LongitudeDegrees>-2.75088630616664886474609375</LongitudeDegrees>
            </Position>
            <AltitudeMeters>292.20001220703125</AltitudeMeters>
            <DistanceMeters>NAN</DistanceMeters>
          </Trackpoint>
          <Trackpoint>
            <Time>2022-07-11T17:09:00.000Z</Time>
            <Position>
              <LatitudeDegrees>43.28238484449684619903564453125</LatitudeDegrees>
              <LongitudeDegrees>-2.7508807741105556488037109375</LongitudeDegrees>
            </Position>
            <AltitudeMeters>292.20001220703125</AltitudeMeters>
            <DistanceMeters>NAN</DistanceMeters>
          </Trackpoint>
          <Trackpoint>
            <Time>2022-07-11T17:09:01.000Z</Time>
            <Position>
              <LatitudeDegrees>43.2824060507118701934814453125</LatitudeDegrees>
              <LongitudeDegrees>-2.750880606472492218017578125</LongitudeDegrees>
            </Position>
            <AltitudeMeters>292.399993896484375</AltitudeMeters>
            <DistanceMeters>NAN</DistanceMeters>
          </Trackpoint>
          <Trackpoint>
            <Time>2022-07-11T17:09:07.000Z</Time>
            <Position>
              <LatitudeDegrees>43.2825257442891597747802734375</LatitudeDegrees>
              <LongitudeDegrees>-2.75088974274694919586181640625</LongitudeDegrees>
            </Position>
            <AltitudeMeters>292.79998779296875</AltitudeMeters>
            <DistanceMeters>NAN</DistanceMeters>
          </Trackpoint>
          <Trackpoint>
            <Time>2022-07-11T17:09:08.000Z</Time>
            <Position>
              <LatitudeDegrees>43.2825311087071895599365234375</LatitudeDegrees>
              <LongitudeDegrees>-2.75088001973927021026611328125</LongitudeDegrees>
            </Position>
            <AltitudeMeters>293</AltitudeMeters>
            <DistanceMeters>NAN</DistanceMeters>
          </Trackpoint>
          <Trackpoint>
            <Time>2022-07-11T17:09:13.000Z</Time>
            <Position>
              <LatitudeDegrees>43.2825760357081890106201171875</LatitudeDegrees>
              <LongitudeDegrees>-2.750885970890522003173828125</LongitudeDegrees>
            </Position>
            <AltitudeMeters>293.79998779296875</AltitudeMeters>
            <DistanceMeters>NAN</DistanceMeters>
          </Trackpoint>
          <Trackpoint>
            <Time>2022-07-11T17:09:14.000Z</Time>
            <Position>
              <LatitudeDegrees>43.28258818946778774261474609375</LatitudeDegrees>
              <LongitudeDegrees>-2.75089007802307605743408203125</LongitudeDegrees>
            </Position>
            <AltitudeMeters>294</AltitudeMeters>
            <DistanceMeters>NAN</DistanceMeters>
          </Trackpoint>
          <Trackpoint>
            <Time>2022-07-11T17:09:21.000Z</Time>
            <Position>
              <LatitudeDegrees>43.28270821832120418548583984375</LatitudeDegrees>
              <LongitudeDegrees>-2.7509525232017040252685546875</LongitudeDegrees>
            </Position>
            <AltitudeMeters>295</AltitudeMeters>
            <DistanceMeters>NAN</DistanceMeters>
          </Trackpoint>
          <Trackpoint>
            <Time>2022-07-11T17:09:22.000Z</Time>
            <Position>
              <LatitudeDegrees>43.2827175222337245941162109375</LatitudeDegrees>
              <LongitudeDegrees>-2.7509635873138904571533203125</LongitudeDegrees>
            </Position>
            <AltitudeMeters>295.20001220703125</AltitudeMeters>
            <DistanceMeters>NAN</DistanceMeters>
          </Trackpoint>
          <Trackpoint>
            <Time>2022-07-11T17:09:25.000Z</Time>
            <Position>
              <LatitudeDegrees>43.282752893865108489990234375</LatitudeDegrees>
              <LongitudeDegrees>-2.750995941460132598876953125</LongitudeDegrees>
            </Position>
            <AltitudeMeters>295.79998779296875</AltitudeMeters>
            <DistanceMeters>NAN</DistanceMeters>
          </Trackpoint>
          <Trackpoint>
            <Time>2022-07-11T17:09:27.000Z</Time>
            <Position>
              <LatitudeDegrees>43.28278080560266971588134765625</LatitudeDegrees>
              <LongitudeDegrees>-2.751018069684505462646484375</LongitudeDegrees>
            </Position>
            <AltitudeMeters>296</AltitudeMeters>
            <DistanceMeters>NAN</DistanceMeters>
          </Trackpoint>
          <Trackpoint>
            <Time>2022-07-11T17:09:29.000Z</Time>
            <Position>
              <LatitudeDegrees>43.282809890806674957275390625</LatitudeDegrees>
              <LongitudeDegrees>-2.75104321539402008056640625</LongitudeDegrees>
            </Position>
            <AltitudeMeters>296.399993896484375</AltitudeMeters>
            <DistanceMeters>NAN</DistanceMeters>
          </Trackpoint>
          <Trackpoint>
            <Time>2022-07-11T17:09:34.000Z</Time>
            <Position>
              <LatitudeDegrees>43.28288356773555278778076171875</LatitudeDegrees>
              <LongitudeDegrees>-2.75110163725912570953369140625</LongitudeDegrees>
            </Position>
            <AltitudeMeters>297.20001220703125</AltitudeMeters>
            <DistanceMeters>NAN</DistanceMeters>
          </Trackpoint>
          <Trackpoint>
            <Time>2022-07-11T17:09:36.000Z</Time>
            <Position>
              <LatitudeDegrees>43.2829039357602596282958984375</LatitudeDegrees>
              <LongitudeDegrees>-2.7511137910187244415283203125</LongitudeDegrees>
            </Position>
            <AltitudeMeters>297.79998779296875</AltitudeMeters>
            <DistanceMeters>NAN</DistanceMeters>
          </Trackpoint>
          <Trackpoint>
            <Time>2022-07-11T17:09:37.000Z</Time>
            <Position>
              <LatitudeDegrees>43.2829136587679386138916015625</LatitudeDegrees>
              <LongitudeDegrees>-2.751124016940593719482421875</LongitudeDegrees>
            </Position>
            <AltitudeMeters>298.20001220703125</AltitudeMeters>
            <DistanceMeters>NAN</DistanceMeters>
          </Trackpoint>
          <Trackpoint>
            <Time>2022-07-11T17:09:38.000Z</Time>
            <Position>
              <LatitudeDegrees>43.2829253934323787689208984375</LatitudeDegrees>
              <LongitudeDegrees>-2.7511345781385898590087890625</LongitudeDegrees>
            </Position>
            <AltitudeMeters>298.399993896484375</AltitudeMeters>
            <DistanceMeters>NAN</DistanceMeters>
          </Trackpoint>
          <Trackpoint>
            <Time>2022-07-11T17:09:41.000Z</Time>
            <Position>
              <LatitudeDegrees>43.2829401455819606781005859375</LatitudeDegrees>
              <LongitudeDegrees>-2.751169614493846893310546875</LongitudeDegrees>
            </Position>
            <AltitudeMeters>299.20001220703125</AltitudeMeters>
            <DistanceMeters>NAN</DistanceMeters>
          </Trackpoint>
          <Trackpoint>
            <Time>2022-07-11T17:09:42.000Z</Time>
            <Position>
              <LatitudeDegrees>43.28294609673321247100830078125</LatitudeDegrees>
              <LongitudeDegrees>-2.75118076242506504058837890625</LongitudeDegrees>
            </Position>
            <AltitudeMeters>299.399993896484375</AltitudeMeters>
            <DistanceMeters>NAN</DistanceMeters>
          </Trackpoint>
          <Trackpoint>
            <Time>2022-07-11T17:09:45.000Z</Time>
            <Position>
              <LatitudeDegrees>43.282969482243061065673828125</LatitudeDegrees>
              <LongitudeDegrees>-2.751223258674144744873046875</LongitudeDegrees>
            </Position>
            <AltitudeMeters>300</AltitudeMeters>
            <DistanceMeters>NAN</DistanceMeters>
          </Trackpoint>
          <Trackpoint>
            <Time>2022-07-11T17:09:46.000Z</Time>
            <Position>
              <LatitudeDegrees>43.282978869974613189697265625</LatitudeDegrees>
              <LongitudeDegrees>-2.75123097002506256103515625</LongitudeDegrees>
            </Position>
            <AltitudeMeters>300.20001220703125</AltitudeMeters>
            <DistanceMeters>NAN</DistanceMeters>
          </Trackpoint>
          <Trackpoint>
            <Time>2022-07-11T17:09:47.000Z</Time>
            <Position>
              <LatitudeDegrees>43.282988257706165313720703125</LatitudeDegrees>
              <LongitudeDegrees>-2.7512371726334095001220703125</LongitudeDegrees>
            </Position>
            <AltitudeMeters>300.399993896484375</AltitudeMeters>
            <DistanceMeters>NAN</DistanceMeters>
          </Trackpoint>
          <Trackpoint>
            <Time>2022-07-11T17:09:48.000Z</Time>
            <Position>
              <LatitudeDegrees>43.2829986512660980224609375</LatitudeDegrees>
              <LongitudeDegrees>-2.751246392726898193359375</LongitudeDegrees>
            </Position>
            <AltitudeMeters>300.79998779296875</AltitudeMeters>
            <DistanceMeters>NAN</DistanceMeters>
          </Trackpoint>
          <Trackpoint>
            <Time>2022-07-11T17:09:52.000Z</Time>
            <Position>
              <LatitudeDegrees>43.283017762005329132080078125</LatitudeDegrees>
              <LongitudeDegrees>-2.7512981928884983062744140625</LongitudeDegrees>
            </Position>
            <AltitudeMeters>301.399993896484375</AltitudeMeters>
            <DistanceMeters>NAN</DistanceMeters>
          </Trackpoint>
          <Trackpoint>
            <Time>2022-07-11T17:09:58.000Z</Time>
            <Position>
              <LatitudeDegrees>43.28305036760866641998291015625</LatitudeDegrees>
              <LongitudeDegrees>-2.7513612248003482818603515625</LongitudeDegrees>
            </Position>
            <AltitudeMeters>302.399993896484375</AltitudeMeters>
            <DistanceMeters>NAN</DistanceMeters>
          </Trackpoint>
          <Trackpoint>
            <Time>2022-07-11T17:10:01.000Z</Time>
            <Position>
              <LatitudeDegrees>43.28307718969881534576416015625</LatitudeDegrees>
              <LongitudeDegrees>-2.751386202871799468994140625</LongitudeDegrees>
            </Position>
            <AltitudeMeters>302.399993896484375</AltitudeMeters>
            <DistanceMeters>NAN</DistanceMeters>
          </Trackpoint>
          <Trackpoint>
            <Time>2022-07-11T17:10:02.000Z</Time>
            <Position>
              <LatitudeDegrees>43.28308624215424060821533203125</LatitudeDegrees>
              <LongitudeDegrees>-2.75139299221336841583251953125</LongitudeDegrees>
            </Position>
            <AltitudeMeters>302.600006103515625</AltitudeMeters>
            <DistanceMeters>NAN</DistanceMeters>
          </Trackpoint>
          <Trackpoint>
            <Time>2022-07-11T17:10:04.000Z</Time>
            <Position>
              <LatitudeDegrees>43.2831131480634212493896484375</LatitudeDegrees>
              <LongitudeDegrees>-2.7513954229652881622314453125</LongitudeDegrees>
            </Position>
            <AltitudeMeters>302.600006103515625</AltitudeMeters>
            <DistanceMeters>NAN</DistanceMeters>
          </Trackpoint>
          <Trackpoint>
            <Time>2022-07-11T17:10:05.000Z</Time>
            <Position>
              <LatitudeDegrees>43.28312982805073261260986328125</LatitudeDegrees>
              <LongitudeDegrees>-2.75139383040368556976318359375</LongitudeDegrees>
            </Position>
            <AltitudeMeters>302.600006103515625</AltitudeMeters>
            <DistanceMeters>NAN</DistanceMeters>
          </Trackpoint>
          <Trackpoint>
            <Time>2022-07-11T17:10:07.000Z</Time>
            <Position>
              <LatitudeDegrees>43.283176012337207794189453125</LatitudeDegrees>
              <LongitudeDegrees>-2.7513994462788105010986328125</LongitudeDegrees>
            </Position>
            <AltitudeMeters>302</AltitudeMeters>
            <DistanceMeters>NAN</DistanceMeters>
          </Trackpoint>
          <Trackpoint>
            <Time>2022-07-11T17:10:12.000Z</Time>
            <Position>
              <LatitudeDegrees>43.2832737453281879425048828125</LatitudeDegrees>
              <LongitudeDegrees>-2.75133431889116764068603515625</LongitudeDegrees>
            </Position>
            <AltitudeMeters>301.399993896484375</AltitudeMeters>
            <DistanceMeters>NAN</DistanceMeters>
          </Trackpoint>
          <Trackpoint>
            <Time>2022-07-11T17:10:16.000Z</Time>
            <Position>
              <LatitudeDegrees>43.28337214887142181396484375</LatitudeDegrees>
              <LongitudeDegrees>-2.75125334970653057098388671875</LongitudeDegrees>
            </Position>
            <AltitudeMeters>301</AltitudeMeters>
            <DistanceMeters>NAN</DistanceMeters>
          </Trackpoint>
          <Trackpoint>
            <Time>2022-07-11T17:10:17.000Z</Time>
            <Position>
              <LatitudeDegrees>43.28339553438127040863037109375</LatitudeDegrees>
              <LongitudeDegrees>-2.7512318082153797149658203125</LongitudeDegrees>
            </Position>
            <AltitudeMeters>301</AltitudeMeters>
            <DistanceMeters>NAN</DistanceMeters>
          </Trackpoint>
          <Trackpoint>
            <Time>2022-07-11T17:10:18.000Z</Time>
            <Position>
              <LatitudeDegrees>43.2834251224994659423828125</LatitudeDegrees>
              <LongitudeDegrees>-2.75120817124843597412109375</LongitudeDegrees>
            </Position>
            <AltitudeMeters>301</AltitudeMeters>
            <DistanceMeters>NAN</DistanceMeters>
          </Trackpoint>
          <Trackpoint>
            <Time>2022-07-11T17:10:20.000Z</Time>
            <Position>
              <LatitudeDegrees>43.28346895985305309295654296875</LatitudeDegrees>
              <LongitudeDegrees>-2.75115662254393100738525390625</LongitudeDegrees>
            </Position>
            <AltitudeMeters>300.79998779296875</AltitudeMeters>
            <DistanceMeters>NAN</DistanceMeters>
          </Trackpoint>
          <Trackpoint>
            <Time>2022-07-11T17:10:21.000Z</Time>
            <Position>
              <LatitudeDegrees>43.28348614275455474853515625</LatitudeDegrees>
              <LongitudeDegrees>-2.7511392720043659210205078125</LongitudeDegrees>
            </Position>
            <AltitudeMeters>300.399993896484375</AltitudeMeters>
            <DistanceMeters>NAN</DistanceMeters>
          </Trackpoint>
          <Trackpoint>
            <Time>2022-07-11T17:10:23.000Z</Time>
            <Position>
              <LatitudeDegrees>43.28349829651415348052978515625</LatitudeDegrees>
              <LongitudeDegrees>-2.75111773051321506500244140625</LongitudeDegrees>
            </Position>
            <AltitudeMeters>300</AltitudeMeters>
            <DistanceMeters>NAN</DistanceMeters>
          </Trackpoint>
          <Trackpoint>
            <Time>2022-07-11T17:10:25.000Z</Time>
            <Position>
              <LatitudeDegrees>43.28349829651415348052978515625</LatitudeDegrees>
              <LongitudeDegrees>-2.75111773051321506500244140625</LongitudeDegrees>
            </Position>
            <AltitudeMeters>299.79998779296875</AltitudeMeters>
            <DistanceMeters>NAN</DistanceMeters>
          </Trackpoint>
          <Trackpoint>
            <Time>2022-07-11T17:10:28.000Z</Time>
            <Position>
              <LatitudeDegrees>43.2835376076400279998779296875</LatitudeDegrees>
              <LongitudeDegrees>-2.75108068250119686126708984375</LongitudeDegrees>
            </Position>
            <AltitudeMeters>299.600006103515625</AltitudeMeters>
            <DistanceMeters>NAN</DistanceMeters>
          </Trackpoint>
          <Trackpoint>
            <Time>2022-07-11T17:10:30.000Z</Time>
            <Position>
              <LatitudeDegrees>43.28357197344303131103515625</LatitudeDegrees>
              <LongitudeDegrees>-2.75106475688517093658447265625</LongitudeDegrees>
            </Position>
            <AltitudeMeters>299.600006103515625</AltitudeMeters>
            <DistanceMeters>NAN</DistanceMeters>
          </Trackpoint>
          <Trackpoint>
            <Time>2022-07-11T17:10:33.000Z</Time>
            <Position>
              <LatitudeDegrees>43.2836405374109745025634765625</LatitudeDegrees>
              <LongitudeDegrees>-2.751024775207042694091796875</LongitudeDegrees>
            </Position>
            <AltitudeMeters>299.20001220703125</AltitudeMeters>
            <DistanceMeters>NAN</DistanceMeters>
          </Trackpoint>
          <Trackpoint>
            <Time>2022-07-11T17:10:36.000Z</Time>
            <Position>
              <LatitudeDegrees>43.28374371863901615142822265625</LatitudeDegrees>
              <LongitudeDegrees>-2.7509929239749908447265625</LongitudeDegrees>
            </Position>
            <AltitudeMeters>298.79998779296875</AltitudeMeters>
            <DistanceMeters>NAN</DistanceMeters>
          </Trackpoint>
          <Trackpoint>
            <Time>2022-07-11T17:10:41.000Z</Time>
            <Position>
              <LatitudeDegrees>43.2838061638176441192626953125</LatitudeDegrees>
              <LongitudeDegrees>-2.75091773830354213714599609375</LongitudeDegrees>
            </Position>
            <AltitudeMeters>298</AltitudeMeters>
            <DistanceMeters>NAN</DistanceMeters>
          </Trackpoint>
          <Trackpoint>
            <Time>2022-07-11T17:10:42.000Z</Time>
            <Position>
              <LatitudeDegrees>43.28381982631981372833251953125</LatitudeDegrees>
              <LongitudeDegrees>-2.7509166486561298370361328125</LongitudeDegrees>
            </Position>
            <AltitudeMeters>298</AltitudeMeters>
            <DistanceMeters>NAN</DistanceMeters>
          </Trackpoint>
          <Trackpoint>
            <Time>2022-07-11T17:10:48.000Z</Time>
            <Position>
              <LatitudeDegrees>43.283928371965885162353515625</LatitudeDegrees>
              <LongitudeDegrees>-2.75088538415729999542236328125</LongitudeDegrees>
            </Position>
            <AltitudeMeters>297.20001220703125</AltitudeMeters>
            <DistanceMeters>NAN</DistanceMeters>
          </Trackpoint>
          <Trackpoint>
            <Time>2022-07-11T17:10:50.000Z</Time>
            <Position>
              <LatitudeDegrees>43.28396181575953960418701171875</LatitudeDegrees>
              <LongitudeDegrees>-2.75087934918701648712158203125</LongitudeDegrees>
            </Position>
            <AltitudeMeters>297</AltitudeMeters>
            <DistanceMeters>NAN</DistanceMeters>
          </Trackpoint>
          <Trackpoint>
            <Time>2022-07-11T17:10:52.000Z</Time>
            <Position>
              <LatitudeDegrees>43.28398662619292736053466796875</LatitudeDegrees>
              <LongitudeDegrees>-2.75087733753025531768798828125</LongitudeDegrees>
            </Position>
            <AltitudeMeters>296.79998779296875</AltitudeMeters>
            <DistanceMeters>NAN</DistanceMeters>
          </Trackpoint>
          <Trackpoint>
            <Time>2022-07-11T17:10:55.000Z</Time>
            <Position>
              <LatitudeDegrees>43.28399869613349437713623046875</LatitudeDegrees>
              <LongitudeDegrees>-2.750881612300872802734375</LongitudeDegrees>
            </Position>
            <AltitudeMeters>296.600006103515625</AltitudeMeters>
            <DistanceMeters>NAN</DistanceMeters>
          </Trackpoint>
          <Trackpoint>
            <Time>2022-07-11T17:10:56.000Z</Time>
            <Position>
              <LatitudeDegrees>43.28399869613349437713623046875</LatitudeDegrees>
              <LongitudeDegrees>-2.750881612300872802734375</LongitudeDegrees>
            </Position>
            <AltitudeMeters>296.399993896484375</AltitudeMeters>
            <DistanceMeters>NAN</DistanceMeters>
          </Trackpoint>
          <Trackpoint>
            <Time>2022-07-11T17:13:14.000Z</Time>
            <Position>
              <LatitudeDegrees>43.283863328397274017333984375</LatitudeDegrees>
              <LongitudeDegrees>-2.75090298615396022796630859375</LongitudeDegrees>
            </Position>
            <AltitudeMeters>297.399993896484375</AltitudeMeters>
            <DistanceMeters>NAN</DistanceMeters>
          </Trackpoint>
          <Trackpoint>
            <Time>2022-07-11T17:13:15.000Z</Time>
            <Position>
              <LatitudeDegrees>43.283840529620647430419921875</LatitudeDegrees>
              <LongitudeDegrees>-2.750902064144611358642578125</LongitudeDegrees>
            </Position>
            <AltitudeMeters>297.399993896484375</AltitudeMeters>
            <DistanceMeters>NAN</DistanceMeters>
          </Trackpoint>
          <Trackpoint>
            <Time>2022-07-11T17:13:17.000Z</Time>
            <Position>
              <LatitudeDegrees>43.28379350714385509490966796875</LatitudeDegrees>
              <LongitudeDegrees>-2.7509025670588016510009765625</LongitudeDegrees>
            </Position>
            <AltitudeMeters>297.600006103515625</AltitudeMeters>
            <DistanceMeters>NAN</DistanceMeters>
          </Trackpoint>
          <Trackpoint>
            <Time>2022-07-11T17:13:22.000Z</Time>
            <Position>
              <LatitudeDegrees>43.28371907584369182586669921875</LatitudeDegrees>
              <LongitudeDegrees>-2.750922851264476776123046875</LongitudeDegrees>
            </Position>
            <AltitudeMeters>298</AltitudeMeters>
            <DistanceMeters>NAN</DistanceMeters>
          </Trackpoint>
          <Trackpoint>
            <Time>2022-07-11T17:13:24.000Z</Time>
            <Position>
              <LatitudeDegrees>43.28368202783167362213134765625</LatitudeDegrees>
              <LongitudeDegrees>-2.75092729367315769195556640625</LongitudeDegrees>
            </Position>
            <AltitudeMeters>298</AltitudeMeters>
            <DistanceMeters>NAN</DistanceMeters>
          </Trackpoint>
          <Trackpoint>
            <Time>2022-07-11T17:13:25.000Z</Time>
            <Position>
              <LatitudeDegrees>43.28366694040596485137939453125</LatitudeDegrees>
              <LongitudeDegrees>-2.7509257011115550994873046875</LongitudeDegrees>
            </Position>
            <AltitudeMeters>298.20001220703125</AltitudeMeters>
            <DistanceMeters>NAN</DistanceMeters>
          </Trackpoint>
          <Trackpoint>
            <Time>2022-07-11T17:13:33.000Z</Time>
            <Position>
              <LatitudeDegrees>43.2835781760513782501220703125</LatitudeDegrees>
              <LongitudeDegrees>-2.75099602527916431427001953125</LongitudeDegrees>
            </Position>
            <AltitudeMeters>299</AltitudeMeters>
            <DistanceMeters>NAN</DistanceMeters>
          </Trackpoint>
          <Trackpoint>
            <Time>2022-07-11T17:13:36.000Z</Time>
            <Position>
              <LatitudeDegrees>43.28356392681598663330078125</LatitudeDegrees>
              <LongitudeDegrees>-2.75099937804043292999267578125</LongitudeDegrees>
            </Position>
            <AltitudeMeters>299</AltitudeMeters>
            <DistanceMeters>NAN</DistanceMeters>
          </Trackpoint>
          <Trackpoint>
            <Time>2022-07-11T17:13:38.000Z</Time>
            <Position>
              <LatitudeDegrees>43.283560909330844879150390625</LatitudeDegrees>
              <LongitudeDegrees>-2.75099837221205234527587890625</LongitudeDegrees>
            </Position>
            <AltitudeMeters>299</AltitudeMeters>
            <DistanceMeters>NAN</DistanceMeters>
          </Trackpoint>
          <Trackpoint>
            <Time>2022-07-11T17:13:39.000Z</Time>
            <Position>
              <LatitudeDegrees>43.283560909330844879150390625</LatitudeDegrees>
              <LongitudeDegrees>-2.75099837221205234527587890625</LongitudeDegrees>
            </Position>
            <AltitudeMeters>299</AltitudeMeters>
            <DistanceMeters>NAN</DistanceMeters>
          </Trackpoint>
          <Trackpoint>
            <Time>2022-07-11T17:14:04.000Z</Time>
            <Position>
              <LatitudeDegrees>43.283466361463069915771484375</LatitudeDegrees>
              <LongitudeDegrees>-2.75106408633291721343994140625</LongitudeDegrees>
            </Position>
            <AltitudeMeters>300.20001220703125</AltitudeMeters>
            <DistanceMeters>NAN</DistanceMeters>
          </Trackpoint>
          <Trackpoint>
            <Time>2022-07-11T17:14:05.000Z</Time>
            <Position>
              <LatitudeDegrees>43.28344993293285369873046875</LatitudeDegrees>
              <LongitudeDegrees>-2.751075737178325653076171875</LongitudeDegrees>
            </Position>
            <AltitudeMeters>300.20001220703125</AltitudeMeters>
            <DistanceMeters>NAN</DistanceMeters>
          </Trackpoint>
          <Trackpoint>
            <Time>2022-07-11T17:14:07.000Z</Time>
            <Position>
              <LatitudeDegrees>43.28341615386307239532470703125</LatitudeDegrees>
              <LongitudeDegrees>-2.75111018680036067962646484375</LongitudeDegrees>
            </Position>
            <AltitudeMeters>300.399993896484375</AltitudeMeters>
            <DistanceMeters>NAN</DistanceMeters>
          </Trackpoint>
          <Trackpoint>
            <Time>2022-07-11T17:14:10.000Z</Time>
            <Position>
              <LatitudeDegrees>43.28336720354855060577392578125</LatitudeDegrees>
              <LongitudeDegrees>-2.7511469833552837371826171875</LongitudeDegrees>
            </Position>
            <AltitudeMeters>300.600006103515625</AltitudeMeters>
            <DistanceMeters>NAN</DistanceMeters>
          </Trackpoint>
          <Trackpoint>
            <Time>2022-07-11T17:14:13.000Z</Time>
            <Position>
              <LatitudeDegrees>43.28333686105906963348388671875</LatitudeDegrees>
              <LongitudeDegrees>-2.75117866694927215576171875</LongitudeDegrees>
            </Position>
            <AltitudeMeters>300.79998779296875</AltitudeMeters>
            <DistanceMeters>NAN</DistanceMeters>
          </Trackpoint>
          <Trackpoint>
            <Time>2022-07-11T17:14:14.000Z</Time>
            <Position>
              <LatitudeDegrees>43.2833253778517246246337890625</LatitudeDegrees>
              <LongitudeDegrees>-2.75118864141404628753662109375</LongitudeDegrees>
            </Position>
            <AltitudeMeters>300.600006103515625</AltitudeMeters>
            <DistanceMeters>NAN</DistanceMeters>
          </Trackpoint>
          <Trackpoint>
            <Time>2022-07-11T17:14:17.000Z</Time>
            <Position>
              <LatitudeDegrees>43.28331850469112396240234375</LatitudeDegrees>
              <LongitudeDegrees>-2.751192413270473480224609375</LongitudeDegrees>
            </Position>
            <AltitudeMeters>300.600006103515625</AltitudeMeters>
            <DistanceMeters>NAN</DistanceMeters>
          </Trackpoint>
          <Trackpoint>
            <Time>2022-07-11T17:14:55.000Z</Time>
            <Position>
              <LatitudeDegrees>43.28324348665773868560791015625</LatitudeDegrees>
              <LongitudeDegrees>-2.75126374326646327972412109375</LongitudeDegrees>
            </Position>
            <AltitudeMeters>301</AltitudeMeters>
            <DistanceMeters>NAN</DistanceMeters>
          </Trackpoint>
          <Trackpoint>
            <Time>2022-07-11T17:14:56.000Z</Time>
            <Position>
              <LatitudeDegrees>43.28322906978428363800048828125</LatitudeDegrees>
              <LongitudeDegrees>-2.75127614848315715789794921875</LongitudeDegrees>
            </Position>
            <AltitudeMeters>301.20001220703125</AltitudeMeters>
            <DistanceMeters>NAN</DistanceMeters>
          </Trackpoint>
          <Trackpoint>
            <Time>2022-07-11T17:15:00.000Z</Time>
            <Position>
              <LatitudeDegrees>43.283163607120513916015625</LatitudeDegrees>
              <LongitudeDegrees>-2.75130615569651126861572265625</LongitudeDegrees>
            </Position>
            <AltitudeMeters>301.20001220703125</AltitudeMeters>
            <DistanceMeters>NAN</DistanceMeters>
          </Trackpoint>
          <Trackpoint>
            <Time>2022-07-11T17:15:02.000Z</Time>
            <Position>
              <LatitudeDegrees>43.28313343226909637451171875</LatitudeDegrees>
              <LongitudeDegrees>-2.75131948292255401611328125</LongitudeDegrees>
            </Position>
            <AltitudeMeters>301.600006103515625</AltitudeMeters>
            <DistanceMeters>NAN</DistanceMeters>
          </Trackpoint>
          <Trackpoint>
            <Time>2022-07-11T17:15:04.000Z</Time>
            <Position>
              <LatitudeDegrees>43.28311608172953128814697265625</LatitudeDegrees>
              <LongitudeDegrees>-2.751324176788330078125</LongitudeDegrees>
            </Position>
            <AltitudeMeters>302</AltitudeMeters>
            <DistanceMeters>NAN</DistanceMeters>
          </Trackpoint>
          <Trackpoint>
            <Time>2022-07-11T17:15:06.000Z</Time>
            <Position>
              <LatitudeDegrees>43.2830963842570781707763671875</LatitudeDegrees>
              <LongitudeDegrees>-2.751337587833404541015625</LongitudeDegrees>
            </Position>
            <AltitudeMeters>302.20001220703125</AltitudeMeters>
            <DistanceMeters>NAN</DistanceMeters>
          </Trackpoint>
          <Trackpoint>
            <Time>2022-07-11T17:15:07.000Z</Time>
            <Position>
              <LatitudeDegrees>43.28309093602001667022705078125</LatitudeDegrees>
              <LongitudeDegrees>-2.751337587833404541015625</LongitudeDegrees>
            </Position>
            <AltitudeMeters>302.20001220703125</AltitudeMeters>
            <DistanceMeters>NAN</DistanceMeters>
          </Trackpoint>
          <Trackpoint>
            <Time>2022-07-11T17:15:09.000Z</Time>
            <Position>
              <LatitudeDegrees>43.2830802910029888153076171875</LatitudeDegrees>
              <LongitudeDegrees>-2.75135275907814502716064453125</LongitudeDegrees>
            </Position>
            <AltitudeMeters>302.399993896484375</AltitudeMeters>
            <DistanceMeters>NAN</DistanceMeters>
          </Trackpoint>
          <Trackpoint>
            <Time>2022-07-11T17:15:10.000Z</Time>
            <Position>
              <LatitudeDegrees>43.28307568095624446868896484375</LatitudeDegrees>
              <LongitudeDegrees>-2.75136373937129974365234375</LongitudeDegrees>
            </Position>
            <AltitudeMeters>302.399993896484375</AltitudeMeters>
            <DistanceMeters>NAN</DistanceMeters>
          </Trackpoint>
          <Trackpoint>
            <Time>2022-07-11T17:15:13.000Z</Time>
            <Position>
              <LatitudeDegrees>43.28305606730282306671142578125</LatitudeDegrees>
              <LongitudeDegrees>-2.75139919482171535491943359375</LongitudeDegrees>
            </Position>
            <AltitudeMeters>302.600006103515625</AltitudeMeters>
            <DistanceMeters>NAN</DistanceMeters>
          </Trackpoint>
          <Trackpoint>
            <Time>2022-07-11T17:15:14.000Z</Time>
            <Position>
              <LatitudeDegrees>43.28305657021701335906982421875</LatitudeDegrees>
              <LongitudeDegrees>-2.7514118514955043792724609375</LongitudeDegrees>
            </Position>
            <AltitudeMeters>302.600006103515625</AltitudeMeters>
            <DistanceMeters>NAN</DistanceMeters>
          </Trackpoint>
          <Trackpoint>
            <Time>2022-07-11T17:15:18.000Z</Time>
            <Position>
              <LatitudeDegrees>43.28307400457561016082763671875</LatitudeDegrees>
              <LongitudeDegrees>-2.7514772303402423858642578125</LongitudeDegrees>
            </Position>
            <AltitudeMeters>302.79998779296875</AltitudeMeters>
            <DistanceMeters>NAN</DistanceMeters>
          </Trackpoint>
          <Trackpoint>
            <Time>2022-07-11T17:15:20.000Z</Time>
            <Position>
              <LatitudeDegrees>43.28307568095624446868896484375</LatitudeDegrees>
              <LongitudeDegrees>-2.751515619456768035888671875</LongitudeDegrees>
            </Position>
            <AltitudeMeters>302.79998779296875</AltitudeMeters>
            <DistanceMeters>NAN</DistanceMeters>
          </Trackpoint>
          <Trackpoint>
            <Time>2022-07-11T17:15:29.000Z</Time>
            <Position>
              <LatitudeDegrees>43.2830538041889667510986328125</LatitudeDegrees>
              <LongitudeDegrees>-2.75178610347211360931396484375</LongitudeDegrees>
            </Position>
            <AltitudeMeters>303</AltitudeMeters>
            <DistanceMeters>NAN</DistanceMeters>
          </Trackpoint>
          <Trackpoint>
            <Time>2022-07-11T17:15:34.000Z</Time>
            <Position>
              <LatitudeDegrees>43.28307651914656162261962890625</LatitudeDegrees>
              <LongitudeDegrees>-2.7519975788891315460205078125</LongitudeDegrees>
            </Position>
            <AltitudeMeters>302</AltitudeMeters>
            <DistanceMeters>NAN</DistanceMeters>
          </Trackpoint>
          <Trackpoint>
            <Time>2022-07-11T17:15:36.000Z</Time>
            <Position>
              <LatitudeDegrees>43.28308423049747943878173828125</LatitudeDegrees>
              <LongitudeDegrees>-2.75207318365573883056640625</LongitudeDegrees>
            </Position>
            <AltitudeMeters>301</AltitudeMeters>
            <DistanceMeters>NAN</DistanceMeters>
          </Trackpoint>
          <Trackpoint>
            <Time>2022-07-11T17:15:39.000Z</Time>
            <Position>
              <LatitudeDegrees>43.28305388800799846649169921875</LatitudeDegrees>
              <LongitudeDegrees>-2.7521903626620769500732421875</LongitudeDegrees>
            </Position>
            <AltitudeMeters>299.79998779296875</AltitudeMeters>
            <DistanceMeters>NAN</DistanceMeters>
          </Trackpoint>
          <Trackpoint>
            <Time>2022-07-11T17:15:40.000Z</Time>
            <Position>
              <LatitudeDegrees>43.28304517082870006561279296875</LatitudeDegrees>
              <LongitudeDegrees>-2.75222816504538059234619140625</LongitudeDegrees>
            </Position>
            <AltitudeMeters>299.399993896484375</AltitudeMeters>
            <DistanceMeters>NAN</DistanceMeters>
          </Trackpoint>
          <Trackpoint>
            <Time>2022-07-11T17:15:42.000Z</Time>
            <Position>
              <LatitudeDegrees>43.28303444199264049530029296875</LatitudeDegrees>
              <LongitudeDegrees>-2.75231399573385715484619140625</LongitudeDegrees>
            </Position>
            <AltitudeMeters>298.600006103515625</AltitudeMeters>
            <DistanceMeters>NAN</DistanceMeters>
          </Trackpoint>
          <Trackpoint>
            <Time>2022-07-11T17:15:44.000Z</Time>
            <Position>
              <LatitudeDegrees>43.283118344843387603759765625</LatitudeDegrees>
              <LongitudeDegrees>-2.7524347789585590362548828125</LongitudeDegrees>
            </Position>
            <AltitudeMeters>297.600006103515625</AltitudeMeters>
            <DistanceMeters>NAN</DistanceMeters>
          </Trackpoint>
          <Trackpoint>
            <Time>2022-07-11T17:15:45.000Z</Time>
            <Position>
              <LatitudeDegrees>43.283157236874103546142578125</LatitudeDegrees>
              <LongitudeDegrees>-2.75250476785004138946533203125</LongitudeDegrees>
            </Position>
            <AltitudeMeters>297.20001220703125</AltitudeMeters>
            <DistanceMeters>NAN</DistanceMeters>
          </Trackpoint>
          <Trackpoint>
            <Time>2022-07-11T17:15:50.000Z</Time>
            <Position>
              <LatitudeDegrees>43.28325404785573482513427734375</LatitudeDegrees>
              <LongitudeDegrees>-2.75267542339861392974853515625</LongitudeDegrees>
            </Position>
            <AltitudeMeters>296.79998779296875</AltitudeMeters>
            <DistanceMeters>NAN</DistanceMeters>
          </Trackpoint>
          <Trackpoint>
            <Time>2022-07-11T17:15:55.000Z</Time>
            <Position>
              <LatitudeDegrees>43.283303417265415191650390625</LatitudeDegrees>
              <LongitudeDegrees>-2.75264424271881580352783203125</LongitudeDegrees>
            </Position>
            <AltitudeMeters>296.79998779296875</AltitudeMeters>
            <DistanceMeters>NAN</DistanceMeters>
          </Trackpoint>
          <Trackpoint>
            <Time>2022-07-11T17:15:56.000Z</Time>
            <Position>
              <LatitudeDegrees>43.28332797624170780181884765625</LatitudeDegrees>
              <LongitudeDegrees>-2.75262529961764812469482421875</LongitudeDegrees>
            </Position>
            <AltitudeMeters>296.79998779296875</AltitudeMeters>
            <DistanceMeters>NAN</DistanceMeters>
          </Trackpoint>
          <Trackpoint>
            <Time>2022-07-11T17:16:02.000Z</Time>
            <Position>
              <LatitudeDegrees>43.28348354436457157135009765625</LatitudeDegrees>
              <LongitudeDegrees>-2.7525593340396881103515625</LongitudeDegrees>
            </Position>
            <AltitudeMeters>296.20001220703125</AltitudeMeters>
            <DistanceMeters>NAN</DistanceMeters>
          </Trackpoint>
          <Trackpoint>
            <Time>2022-07-11T17:16:03.000Z</Time>
            <Position>
              <LatitudeDegrees>43.2835127972066402435302734375</LatitudeDegrees>
              <LongitudeDegrees>-2.75255061686038970947265625</LongitudeDegrees>
            </Position>
            <AltitudeMeters>296</AltitudeMeters>
            <DistanceMeters>NAN</DistanceMeters>
          </Trackpoint>
          <Trackpoint>
            <Time>2022-07-11T17:16:09.000Z</Time>
            <Position>
              <LatitudeDegrees>43.283710442483425140380859375</LatitudeDegrees>
              <LongitudeDegrees>-2.75252790190279483795166015625</LongitudeDegrees>
            </Position>
            <AltitudeMeters>295</AltitudeMeters>
            <DistanceMeters>NAN</DistanceMeters>
          </Trackpoint>
          <Trackpoint>
            <Time>2022-07-11T17:16:10.000Z</Time>
            <Position>
              <LatitudeDegrees>43.28374891541898250579833984375</LatitudeDegrees>
              <LongitudeDegrees>-2.7525370381772518157958984375</LongitudeDegrees>
            </Position>
            <AltitudeMeters>294.79998779296875</AltitudeMeters>
            <DistanceMeters>NAN</DistanceMeters>
          </Trackpoint>
          <Trackpoint>
            <Time>2022-07-11T17:16:15.000Z</Time>
            <Position>
              <LatitudeDegrees>43.2839201577007770538330078125</LatitudeDegrees>
              <LongitudeDegrees>-2.75266997516155242919921875</LongitudeDegrees>
            </Position>
            <AltitudeMeters>294.20001220703125</AltitudeMeters>
            <DistanceMeters>NAN</DistanceMeters>
          </Trackpoint>
          <Trackpoint>
            <Time>2022-07-11T17:16:17.000Z</Time>
            <Position>
              <LatitudeDegrees>43.28395955264568328857421875</LatitudeDegrees>
              <LongitudeDegrees>-2.7527432329952716827392578125</LongitudeDegrees>
            </Position>
            <AltitudeMeters>293.79998779296875</AltitudeMeters>
            <DistanceMeters>NAN</DistanceMeters>
          </Trackpoint>
          <Trackpoint>
            <Time>2022-07-11T17:16:20.000Z</Time>
            <Position>
              <LatitudeDegrees>43.283981345593929290771484375</LatitudeDegrees>
              <LongitudeDegrees>-2.7528612501919269561767578125</LongitudeDegrees>
            </Position>
            <AltitudeMeters>293.600006103515625</AltitudeMeters>
            <DistanceMeters>NAN</DistanceMeters>
          </Trackpoint>
          <Trackpoint>
            <Time>2022-07-11T17:16:24.000Z</Time>
            <Position>
              <LatitudeDegrees>43.2839848659932613372802734375</LatitudeDegrees>
              <LongitudeDegrees>-2.75303618051111698150634765625</LongitudeDegrees>
            </Position>
            <AltitudeMeters>292.79998779296875</AltitudeMeters>
            <DistanceMeters>NAN</DistanceMeters>
          </Trackpoint>
          <Trackpoint>
            <Time>2022-07-11T17:16:26.000Z</Time>
            <Position>
              <LatitudeDegrees>43.28401210717856884002685546875</LatitudeDegrees>
              <LongitudeDegrees>-2.75313458405435085296630859375</LongitudeDegrees>
            </Position>
            <AltitudeMeters>292.600006103515625</AltitudeMeters>
            <DistanceMeters>NAN</DistanceMeters>
          </Trackpoint>
          <Trackpoint>
            <Time>2022-07-11T17:16:30.000Z</Time>
            <Position>
              <LatitudeDegrees>43.28411512076854705810546875</LatitudeDegrees>
              <LongitudeDegrees>-2.75323634035885334014892578125</LongitudeDegrees>
            </Position>
            <AltitudeMeters>292.399993896484375</AltitudeMeters>
            <DistanceMeters>NAN</DistanceMeters>
          </Trackpoint>
          <Trackpoint>
            <Time>2022-07-11T17:16:33.000Z</Time>
            <Position>
              <LatitudeDegrees>43.28416784293949604034423828125</LatitudeDegrees>
              <LongitudeDegrees>-2.75322393514215946197509765625</LongitudeDegrees>
            </Position>
            <AltitudeMeters>292.399993896484375</AltitudeMeters>
            <DistanceMeters>NAN</DistanceMeters>
          </Trackpoint>
          <Trackpoint>
            <Time>2022-07-11T17:16:36.000Z</Time>
            <Position>
              <LatitudeDegrees>43.2842021249234676361083984375</LatitudeDegrees>
              <LongitudeDegrees>-2.75320482440292835235595703125</LongitudeDegrees>
            </Position>
            <AltitudeMeters>292.79998779296875</AltitudeMeters>
            <DistanceMeters>NAN</DistanceMeters>
          </Trackpoint>
          <Trackpoint>
            <Time>2022-07-11T17:16:37.000Z</Time>
            <Position>
              <LatitudeDegrees>43.284214697778224945068359375</LatitudeDegrees>
              <LongitudeDegrees>-2.75320633314549922943115234375</LongitudeDegrees>
            </Position>
            <AltitudeMeters>292.79998779296875</AltitudeMeters>
            <DistanceMeters>NAN</DistanceMeters>
          </Trackpoint>
          <Trackpoint>
            <Time>2022-07-11T17:16:40.000Z</Time>
            <Position>
              <LatitudeDegrees>43.2842493988573551177978515625</LatitudeDegrees>
              <LongitudeDegrees>-2.75321437977254390716552734375</LongitudeDegrees>
            </Position>
            <AltitudeMeters>293.399993896484375</AltitudeMeters>
            <DistanceMeters>NAN</DistanceMeters>
          </Trackpoint>
          <Trackpoint>
            <Time>2022-07-11T17:16:42.000Z</Time>
            <Position>
              <LatitudeDegrees>43.2842671684920787811279296875</LatitudeDegrees>
              <LongitudeDegrees>-2.75321756489574909210205078125</LongitudeDegrees>
            </Position>
            <AltitudeMeters>293.79998779296875</AltitudeMeters>
            <DistanceMeters>NAN</DistanceMeters>
          </Trackpoint>
          <Trackpoint>
            <Time>2022-07-11T17:16:44.000Z</Time>
            <Position>
              <LatitudeDegrees>43.28428988344967365264892578125</LatitudeDegrees>
              <LongitudeDegrees>-2.7532085962593555450439453125</LongitudeDegrees>
            </Position>
            <AltitudeMeters>294</AltitudeMeters>
            <DistanceMeters>NAN</DistanceMeters>
          </Trackpoint>
          <Trackpoint>
            <Time>2022-07-11T17:16:50.000Z</Time>
            <Position>
              <LatitudeDegrees>43.2843687571585178375244140625</LatitudeDegrees>
              <LongitudeDegrees>-2.75322762317955493927001953125</LongitudeDegrees>
            </Position>
            <AltitudeMeters>295</AltitudeMeters>
            <DistanceMeters>NAN</DistanceMeters>
          </Trackpoint>
          <Trackpoint>
            <Time>2022-07-11T17:16:53.000Z</Time>
            <Position>
              <LatitudeDegrees>43.28441175632178783416748046875</LatitudeDegrees>
              <LongitudeDegrees>-2.753243632614612579345703125</LongitudeDegrees>
            </Position>
            <AltitudeMeters>295.600006103515625</AltitudeMeters>
            <DistanceMeters>NAN</DistanceMeters>
          </Trackpoint>
          <Trackpoint>
            <Time>2022-07-11T17:16:56.000Z</Time>
            <Position>
              <LatitudeDegrees>43.2844358123838901519775390625</LatitudeDegrees>
              <LongitudeDegrees>-2.753256373107433319091796875</LongitudeDegrees>
            </Position>
            <AltitudeMeters>296</AltitudeMeters>
            <DistanceMeters>NAN</DistanceMeters>
          </Trackpoint>
          <Trackpoint>
            <Time>2022-07-11T17:17:03.000Z</Time>
            <Position>
              <LatitudeDegrees>43.28452323563396930694580078125</LatitudeDegrees>
              <LongitudeDegrees>-2.7533215843141078948974609375</LongitudeDegrees>
            </Position>
            <AltitudeMeters>297.20001220703125</AltitudeMeters>
            <DistanceMeters>NAN</DistanceMeters>
          </Trackpoint>
          <Trackpoint>
            <Time>2022-07-11T17:17:04.000Z</Time>
            <Position>
              <LatitudeDegrees>43.28454771079123020172119140625</LatitudeDegrees>
              <LongitudeDegrees>-2.7533303014934062957763671875</LongitudeDegrees>
            </Position>
            <AltitudeMeters>297.399993896484375</AltitudeMeters>
            <DistanceMeters>NAN</DistanceMeters>
          </Trackpoint>
          <Trackpoint>
            <Time>2022-07-11T17:17:08.000Z</Time>
            <Position>
              <LatitudeDegrees>43.28463136218488216400146484375</LatitudeDegrees>
              <LongitudeDegrees>-2.75340364314615726470947265625</LongitudeDegrees>
            </Position>
            <AltitudeMeters>298</AltitudeMeters>
            <DistanceMeters>NAN</DistanceMeters>
          </Trackpoint>
          <Trackpoint>
            <Time>2022-07-11T17:17:09.000Z</Time>
            <Position>
              <LatitudeDegrees>43.28465717844665050506591796875</LatitudeDegrees>
              <LongitudeDegrees>-2.75340649299323558807373046875</LongitudeDegrees>
            </Position>
            <AltitudeMeters>298.20001220703125</AltitudeMeters>
            <DistanceMeters>NAN</DistanceMeters>
          </Trackpoint>
          <Trackpoint>
            <Time>2022-07-11T17:17:11.000Z</Time>
            <Position>
              <LatitudeDegrees>43.284705542027950286865234375</LatitudeDegrees>
              <LongitudeDegrees>-2.753401882946491241455078125</LongitudeDegrees>
            </Position>
            <AltitudeMeters>298.399993896484375</AltitudeMeters>
            <DistanceMeters>NAN</DistanceMeters>
          </Trackpoint>
          <Trackpoint>
            <Time>2022-07-11T17:17:13.000Z</Time>
            <Position>
              <LatitudeDegrees>43.2847211323678493499755859375</LatitudeDegrees>
              <LongitudeDegrees>-2.753429375588893890380859375</LongitudeDegrees>
            </Position>
            <AltitudeMeters>298.79998779296875</AltitudeMeters>
            <DistanceMeters>NAN</DistanceMeters>
          </Trackpoint>
          <Trackpoint>
            <Time>2022-07-11T17:17:16.000Z</Time>
            <Position>
              <LatitudeDegrees>43.2847402431070804595947265625</LatitudeDegrees>
              <LongitudeDegrees>-2.7534605562686920166015625</LongitudeDegrees>
            </Position>
            <AltitudeMeters>299.20001220703125</AltitudeMeters>
            <DistanceMeters>NAN</DistanceMeters>
          </Trackpoint>
          <Trackpoint>
            <Time>2022-07-11T17:17:17.000Z</Time>
            <Position>
              <LatitudeDegrees>43.28474435023963451385498046875</LatitudeDegrees>
              <LongitudeDegrees>-2.75347807444632053375244140625</LongitudeDegrees>
            </Position>
            <AltitudeMeters>299.399993896484375</AltitudeMeters>
            <DistanceMeters>NAN</DistanceMeters>
          </Trackpoint>
          <Trackpoint>
            <Time>2022-07-11T17:17:19.000Z</Time>
            <Position>
              <LatitudeDegrees>43.28475440852344036102294921875</LatitudeDegrees>
              <LongitudeDegrees>-2.75350221432745456695556640625</LongitudeDegrees>
            </Position>
            <AltitudeMeters>299.600006103515625</AltitudeMeters>
            <DistanceMeters>NAN</DistanceMeters>
          </Trackpoint>
          <Trackpoint>
            <Time>2022-07-11T17:17:21.000Z</Time>
            <Position>
              <LatitudeDegrees>43.28476798720657825469970703125</LatitudeDegrees>
              <LongitudeDegrees>-2.75353255681693553924560546875</LongitudeDegrees>
            </Position>
            <AltitudeMeters>300</AltitudeMeters>
            <DistanceMeters>NAN</DistanceMeters>
          </Trackpoint>
          <Trackpoint>
            <Time>2022-07-11T17:17:22.000Z</Time>
            <Position>
              <LatitudeDegrees>43.2847717590630054473876953125</LatitudeDegrees>
              <LongitudeDegrees>-2.75354781188070774078369140625</LongitudeDegrees>
            </Position>
            <AltitudeMeters>300.20001220703125</AltitudeMeters>
            <DistanceMeters>NAN</DistanceMeters>
          </Trackpoint>
          <Trackpoint>
            <Time>2022-07-11T17:17:23.000Z</Time>
            <Position>
              <LatitudeDegrees>43.28477486036717891693115234375</LatitudeDegrees>
              <LongitudeDegrees>-2.75356222875416278839111328125</LongitudeDegrees>
            </Position>
            <AltitudeMeters>300.399993896484375</AltitudeMeters>
            <DistanceMeters>NAN</DistanceMeters>
          </Trackpoint>
          <Trackpoint>
            <Time>2022-07-11T17:17:25.000Z</Time>
            <Position>
              <LatitudeDegrees>43.28477561473846435546875</LatitudeDegrees>
              <LongitudeDegrees>-2.75359273888170719146728515625</LongitudeDegrees>
            </Position>
            <AltitudeMeters>300.399993896484375</AltitudeMeters>
            <DistanceMeters>NAN</DistanceMeters>
          </Trackpoint>
          <Trackpoint>
            <Time>2022-07-11T17:17:27.000Z</Time>
            <Position>
              <LatitudeDegrees>43.28476597554981708526611328125</LatitudeDegrees>
              <LongitudeDegrees>-2.75363045744597911834716796875</LongitudeDegrees>
            </Position>
            <AltitudeMeters>300.600006103515625</AltitudeMeters>
            <DistanceMeters>NAN</DistanceMeters>
          </Trackpoint>
          <Trackpoint>
            <Time>2022-07-11T17:17:30.000Z</Time>
            <Position>
              <LatitudeDegrees>43.284763880074024200439453125</LatitudeDegrees>
              <LongitudeDegrees>-2.75368385016918182373046875</LongitudeDegrees>
            </Position>
            <AltitudeMeters>301</AltitudeMeters>
            <DistanceMeters>NAN</DistanceMeters>
          </Trackpoint>
          <Trackpoint>
            <Time>2022-07-11T17:17:31.000Z</Time>
            <Position>
              <LatitudeDegrees>43.28476530499756336212158203125</LatitudeDegrees>
              <LongitudeDegrees>-2.75370740331709384918212890625</LongitudeDegrees>
            </Position>
            <AltitudeMeters>301</AltitudeMeters>
            <DistanceMeters>NAN</DistanceMeters>
          </Trackpoint>
          <Trackpoint>
            <Time>2022-07-11T17:17:32.000Z</Time>
            <Position>
              <LatitudeDegrees>43.2847620360553264617919921875</LatitudeDegrees>
              <LongitudeDegrees>-2.7537272684276103973388671875</LongitudeDegrees>
            </Position>
            <AltitudeMeters>301.20001220703125</AltitudeMeters>
            <DistanceMeters>NAN</DistanceMeters>
          </Trackpoint>
          <Trackpoint>
            <Time>2022-07-11T17:17:34.000Z</Time>
            <Position>
              <LatitudeDegrees>43.284749127924442291259765625</LatitudeDegrees>
              <LongitudeDegrees>-2.753766663372516632080078125</LongitudeDegrees>
            </Position>
            <AltitudeMeters>301.20001220703125</AltitudeMeters>
            <DistanceMeters>NAN</DistanceMeters>
          </Trackpoint>
          <Trackpoint>
            <Time>2022-07-11T17:17:37.000Z</Time>
            <Position>
              <LatitudeDegrees>43.2847355492413043975830078125</LatitudeDegrees>
              <LongitudeDegrees>-2.7538157813251018524169921875</LongitudeDegrees>
            </Position>
            <AltitudeMeters>301.399993896484375</AltitudeMeters>
            <DistanceMeters>NAN</DistanceMeters>
          </Trackpoint>
          <Trackpoint>
            <Time>2022-07-11T17:17:40.000Z</Time>
            <Position>
              <LatitudeDegrees>43.28470445238053798675537109375</LatitudeDegrees>
              <LongitudeDegrees>-2.75383941829204559326171875</LongitudeDegrees>
            </Position>
            <AltitudeMeters>301.399993896484375</AltitudeMeters>
            <DistanceMeters>NAN</DistanceMeters>
          </Trackpoint>
          <Trackpoint>
            <Time>2022-07-11T17:17:42.000Z</Time>
            <Position>
              <LatitudeDegrees>43.2846815697848796844482421875</LatitudeDegrees>
              <LongitudeDegrees>-2.75384612381458282470703125</LongitudeDegrees>
            </Position>
            <AltitudeMeters>301.600006103515625</AltitudeMeters>
            <DistanceMeters>NAN</DistanceMeters>
          </Trackpoint>
          <Trackpoint>
            <Time>2022-07-11T17:17:46.000Z</Time>
            <Position>
              <LatitudeDegrees>43.28462800942361354827880859375</LatitudeDegrees>
              <LongitudeDegrees>-2.75386146269738674163818359375</LongitudeDegrees>
            </Position>
            <AltitudeMeters>302</AltitudeMeters>
            <DistanceMeters>NAN</DistanceMeters>
          </Trackpoint>
          <Trackpoint>
            <Time>2022-07-11T17:17:50.000Z</Time>
            <Position>
              <LatitudeDegrees>43.2845625467598438262939453125</LatitudeDegrees>
              <LongitudeDegrees>-2.75386967696249485015869140625</LongitudeDegrees>
            </Position>
            <AltitudeMeters>302.399993896484375</AltitudeMeters>
            <DistanceMeters>NAN</DistanceMeters>
          </Trackpoint>
          <Trackpoint>
            <Time>2022-07-11T17:17:55.000Z</Time>
            <Position>
              <LatitudeDegrees>43.2845213077962398529052734375</LatitudeDegrees>
              <LongitudeDegrees>-2.7539140172302722930908203125</LongitudeDegrees>
            </Position>
            <AltitudeMeters>302.79998779296875</AltitudeMeters>
            <DistanceMeters>NAN</DistanceMeters>
          </Trackpoint>
          <Trackpoint>
            <Time>2022-07-11T17:17:56.000Z</Time>
            <Position>
              <LatitudeDegrees>43.284513093531131744384765625</LatitudeDegrees>
              <LongitudeDegrees>-2.75392265059053897857666015625</LongitudeDegrees>
            </Position>
            <AltitudeMeters>303</AltitudeMeters>
            <DistanceMeters>NAN</DistanceMeters>
          </Trackpoint>
          <Trackpoint>
            <Time>2022-07-11T17:18:01.000Z</Time>
            <Position>
              <LatitudeDegrees>43.28445936553180217742919921875</LatitudeDegrees>
              <LongitudeDegrees>-2.75395165197551250457763671875</LongitudeDegrees>
            </Position>
            <AltitudeMeters>303.399993896484375</AltitudeMeters>
            <DistanceMeters>NAN</DistanceMeters>
          </Trackpoint>
          <Trackpoint>
            <Time>2022-07-11T17:18:02.000Z</Time>
            <Position>
              <LatitudeDegrees>43.28444628976285457611083984375</LatitudeDegrees>
              <LongitudeDegrees>-2.75394779630005359649658203125</LongitudeDegrees>
            </Position>
            <AltitudeMeters>303.399993896484375</AltitudeMeters>
            <DistanceMeters>NAN</DistanceMeters>
          </Trackpoint>
          <Trackpoint>
            <Time>2022-07-11T17:18:04.000Z</Time>
            <Position>
              <LatitudeDegrees>43.28443136997520923614501953125</LatitudeDegrees>
              <LongitudeDegrees>-2.75394813157618045806884765625</LongitudeDegrees>
            </Position>
            <AltitudeMeters>303.79998779296875</AltitudeMeters>
            <DistanceMeters>NAN</DistanceMeters>
          </Trackpoint>
          <Trackpoint>
            <Time>2022-07-11T17:18:05.000Z</Time>
            <Position>
              <LatitudeDegrees>43.28442432917654514312744140625</LatitudeDegrees>
              <LongitudeDegrees>-2.75395031087100505828857421875</LongitudeDegrees>
            </Position>
            <AltitudeMeters>303.79998779296875</AltitudeMeters>
            <DistanceMeters>NAN</DistanceMeters>
          </Trackpoint>
          <Trackpoint>
            <Time>2022-07-11T17:18:10.000Z</Time>
            <Position>
              <LatitudeDegrees>43.28435978852212429046630859375</LatitudeDegrees>
              <LongitudeDegrees>-2.75397889316082000732421875</LongitudeDegrees>
            </Position>
            <AltitudeMeters>304.600006103515625</AltitudeMeters>
            <DistanceMeters>NAN</DistanceMeters>
          </Trackpoint>
          <Trackpoint>
            <Time>2022-07-11T17:18:13.000Z</Time>
            <Position>
              <LatitudeDegrees>43.284332714974880218505859375</LatitudeDegrees>
              <LongitudeDegrees>-2.75400596670806407928466796875</LongitudeDegrees>
            </Position>
            <AltitudeMeters>304.79998779296875</AltitudeMeters>
            <DistanceMeters>NAN</DistanceMeters>
          </Trackpoint>
          <Trackpoint>
            <Time>2022-07-11T17:18:14.000Z</Time>
            <Position>
              <LatitudeDegrees>43.2843236625194549560546875</LatitudeDegrees>
              <LongitudeDegrees>-2.75400973856449127197265625</LongitudeDegrees>
            </Position>
            <AltitudeMeters>305</AltitudeMeters>
            <DistanceMeters>NAN</DistanceMeters>
          </Trackpoint>
          <Trackpoint>
            <Time>2022-07-11T17:18:18.000Z</Time>
            <Position>
              <LatitudeDegrees>43.284293822944164276123046875</LatitudeDegrees>
              <LongitudeDegrees>-2.75403580628335475921630859375</LongitudeDegrees>
            </Position>
            <AltitudeMeters>305.20001220703125</AltitudeMeters>
            <DistanceMeters>NAN</DistanceMeters>
          </Trackpoint>
          <Trackpoint>
            <Time>2022-07-11T17:18:19.000Z</Time>
            <Position>
              <LatitudeDegrees>43.284287117421627044677734375</LatitudeDegrees>
              <LongitudeDegrees>-2.75404519401490688323974609375</LongitudeDegrees>
            </Position>
            <AltitudeMeters>305.399993896484375</AltitudeMeters>
            <DistanceMeters>NAN</DistanceMeters>
          </Trackpoint>
          <Trackpoint>
            <Time>2022-07-11T17:18:20.000Z</Time>
            <Position>
              <LatitudeDegrees>43.28427915461361408233642578125</LatitudeDegrees>
              <LongitudeDegrees>-2.75406246073544025421142578125</LongitudeDegrees>
            </Position>
            <AltitudeMeters>305.600006103515625</AltitudeMeters>
            <DistanceMeters>NAN</DistanceMeters>
          </Trackpoint>
          <Trackpoint>
            <Time>2022-07-11T17:18:23.000Z</Time>
            <Position>
              <LatitudeDegrees>43.28425920568406581878662109375</LatitudeDegrees>
              <LongitudeDegrees>-2.754091881215572357177734375</LongitudeDegrees>
            </Position>
            <AltitudeMeters>306</AltitudeMeters>
            <DistanceMeters>NAN</DistanceMeters>
          </Trackpoint>
          <Trackpoint>
            <Time>2022-07-11T17:18:24.000Z</Time>
            <Position>
              <LatitudeDegrees>43.28425836749374866485595703125</LatitudeDegrees>
              <LongitudeDegrees>-2.75409582071006298065185546875</LongitudeDegrees>
            </Position>
            <AltitudeMeters>306</AltitudeMeters>
            <DistanceMeters>NAN</DistanceMeters>
          </Trackpoint>
          <Trackpoint>
            <Time>2022-07-11T17:18:26.000Z</Time>
            <Position>
              <LatitudeDegrees>43.284252248704433441162109375</LatitudeDegrees>
              <LongitudeDegrees>-2.75411107577383518218994140625</LongitudeDegrees>
            </Position>
            <AltitudeMeters>306.600006103515625</AltitudeMeters>
            <DistanceMeters>NAN</DistanceMeters>
          </Trackpoint>
          <Trackpoint>
            <Time>2022-07-11T17:18:27.000Z</Time>
            <Position>
              <LatitudeDegrees>43.2842416875064373016357421875</LatitudeDegrees>
              <LongitudeDegrees>-2.75412482209503650665283203125</LongitudeDegrees>
            </Position>
            <AltitudeMeters>306.79998779296875</AltitudeMeters>
            <DistanceMeters>NAN</DistanceMeters>
          </Trackpoint>
          <Trackpoint>
            <Time>2022-07-11T17:18:28.000Z</Time>
            <Position>
              <LatitudeDegrees>43.28423087485134601593017578125</LatitudeDegrees>
              <LongitudeDegrees>-2.75414091534912586212158203125</LongitudeDegrees>
            </Position>
            <AltitudeMeters>307</AltitudeMeters>
            <DistanceMeters>NAN</DistanceMeters>
          </Trackpoint>
          <Trackpoint>
            <Time>2022-07-11T17:18:32.000Z</Time>
            <Position>
              <LatitudeDegrees>43.284205980598926544189453125</LatitudeDegrees>
              <LongitudeDegrees>-2.7542006783187389373779296875</LongitudeDegrees>
            </Position>
            <AltitudeMeters>307.600006103515625</AltitudeMeters>
            <DistanceMeters>NAN</DistanceMeters>
          </Trackpoint>
          <Trackpoint>
            <Time>2022-07-11T17:18:36.000Z</Time>
            <Position>
              <LatitudeDegrees>43.28418494202196598052978515625</LatitudeDegrees>
              <LongitudeDegrees>-2.75425910018384456634521484375</LongitudeDegrees>
            </Position>
            <AltitudeMeters>308</AltitudeMeters>
            <DistanceMeters>NAN</DistanceMeters>
          </Trackpoint>
          <Trackpoint>
            <Time>2022-07-11T17:18:37.000Z</Time>
            <Position>
              <LatitudeDegrees>43.28418242745101451873779296875</LatitudeDegrees>
              <LongitudeDegrees>-2.754276283085346221923828125</LongitudeDegrees>
            </Position>
            <AltitudeMeters>308.20001220703125</AltitudeMeters>
            <DistanceMeters>NAN</DistanceMeters>
          </Trackpoint>
          <Trackpoint>
            <Time>2022-07-11T17:18:44.000Z</Time>
            <Position>
              <LatitudeDegrees>43.284150660037994384765625</LatitudeDegrees>
              <LongitudeDegrees>-2.75438281707465648651123046875</LongitudeDegrees>
            </Position>
            <AltitudeMeters>309</AltitudeMeters>
            <DistanceMeters>NAN</DistanceMeters>
          </Trackpoint>
          <Trackpoint>
            <Time>2022-07-11T17:18:45.000Z</Time>
            <Position>
              <LatitudeDegrees>43.284149654209613800048828125</LatitudeDegrees>
              <LongitudeDegrees>-2.75438818149268627166748046875</LongitudeDegrees>
            </Position>
            <AltitudeMeters>309</AltitudeMeters>
            <DistanceMeters>NAN</DistanceMeters>
          </Trackpoint>
          <Trackpoint>
            <Time>2022-07-11T17:18:46.000Z</Time>
            <Position>
              <LatitudeDegrees>43.284142948687076568603515625</LatitudeDegrees>
              <LongitudeDegrees>-2.7543966472148895263671875</LongitudeDegrees>
            </Position>
            <AltitudeMeters>309.20001220703125</AltitudeMeters>
            <DistanceMeters>NAN</DistanceMeters>
          </Trackpoint>
          <Trackpoint>
            <Time>2022-07-11T17:18:50.000Z</Time>
            <Position>
              <LatitudeDegrees>43.284111432731151580810546875</LatitudeDegrees>
              <LongitudeDegrees>-2.75443579070270061492919921875</LongitudeDegrees>
            </Position>
            <AltitudeMeters>309.399993896484375</AltitudeMeters>
            <DistanceMeters>NAN</DistanceMeters>
          </Trackpoint>
          <Trackpoint>
            <Time>2022-07-11T17:18:53.000Z</Time>
            <Position>
              <LatitudeDegrees>43.28407916240394115447998046875</LatitudeDegrees>
              <LongitudeDegrees>-2.75448205880820751190185546875</LongitudeDegrees>
            </Position>
            <AltitudeMeters>309.79998779296875</AltitudeMeters>
            <DistanceMeters>NAN</DistanceMeters>
          </Trackpoint>
          <Trackpoint>
            <Time>2022-07-11T17:18:55.000Z</Time>
            <Position>
              <LatitudeDegrees>43.28404932282865047454833984375</LatitudeDegrees>
              <LongitudeDegrees>-2.75450594723224639892578125</LongitudeDegrees>
            </Position>
            <AltitudeMeters>310.20001220703125</AltitudeMeters>
            <DistanceMeters>NAN</DistanceMeters>
          </Trackpoint>
          <Trackpoint>
            <Time>2022-07-11T17:18:56.000Z</Time>
            <Position>
              <LatitudeDegrees>43.28403574414551258087158203125</LatitudeDegrees>
              <LongitudeDegrees>-2.754519023001194000244140625</LongitudeDegrees>
            </Position>
            <AltitudeMeters>310.20001220703125</AltitudeMeters>
            <DistanceMeters>NAN</DistanceMeters>
          </Trackpoint>
          <Trackpoint>
            <Time>2022-07-11T17:19:00.000Z</Time>
            <Position>
              <LatitudeDegrees>43.284000456333160400390625</LatitudeDegrees>
              <LongitudeDegrees>-2.75456755422055721282958984375</LongitudeDegrees>
            </Position>
            <AltitudeMeters>310.79998779296875</AltitudeMeters>
            <DistanceMeters>NAN</DistanceMeters>
          </Trackpoint>
          <Trackpoint>
            <Time>2022-07-11T17:19:04.000Z</Time>
            <Position>
              <LatitudeDegrees>43.283958546817302703857421875</LatitudeDegrees>
              <LongitudeDegrees>-2.7545924484729766845703125</LongitudeDegrees>
            </Position>
            <AltitudeMeters>311</AltitudeMeters>
            <DistanceMeters>NAN</DistanceMeters>
          </Trackpoint>
          <Trackpoint>
            <Time>2022-07-11T17:19:05.000Z</Time>
            <Position>
              <LatitudeDegrees>43.28395309858024120330810546875</LatitudeDegrees>
              <LongitudeDegrees>-2.75459370575845241546630859375</LongitudeDegrees>
            </Position>
            <AltitudeMeters>311.20001220703125</AltitudeMeters>
            <DistanceMeters>NAN</DistanceMeters>
          </Trackpoint>
          <Trackpoint>
            <Time>2022-07-11T17:19:12.000Z</Time>
            <Position>
              <LatitudeDegrees>43.283909261226654052734375</LatitudeDegrees>
              <LongitudeDegrees>-2.7546714060008525848388671875</LongitudeDegrees>
            </Position>
            <AltitudeMeters>312.20001220703125</AltitudeMeters>
            <DistanceMeters>NAN</DistanceMeters>
          </Trackpoint>
          <Trackpoint>
            <Time>2022-07-11T17:19:13.000Z</Time>
            <Position>
              <LatitudeDegrees>43.283904902637004852294921875</LatitudeDegrees>
              <LongitudeDegrees>-2.75468154810369014739990234375</LongitudeDegrees>
            </Position>
            <AltitudeMeters>312.20001220703125</AltitudeMeters>
            <DistanceMeters>NAN</DistanceMeters>
          </Trackpoint>
          <Trackpoint>
            <Time>2022-07-11T17:19:14.000Z</Time>
            <Position>
              <LatitudeDegrees>43.2838956825435161590576171875</LatitudeDegrees>
              <LongitudeDegrees>-2.7546997368335723876953125</LongitudeDegrees>
            </Position>
            <AltitudeMeters>312.399993896484375</AltitudeMeters>
            <DistanceMeters>NAN</DistanceMeters>
          </Trackpoint>
          <Trackpoint>
            <Time>2022-07-11T17:19:18.000Z</Time>
            <Position>
              <LatitudeDegrees>43.28382485546171665191650390625</LatitudeDegrees>
              <LongitudeDegrees>-2.75478011928498744964599609375</LongitudeDegrees>
            </Position>
            <AltitudeMeters>313.20001220703125</AltitudeMeters>
            <DistanceMeters>NAN</DistanceMeters>
          </Trackpoint>
          <Trackpoint>
            <Time>2022-07-11T17:19:19.000Z</Time>
            <Position>
              <LatitudeDegrees>43.2838165573775768280029296875</LatitudeDegrees>
              <LongitudeDegrees>-2.75479906238615512847900390625</LongitudeDegrees>
            </Position>
            <AltitudeMeters>313.399993896484375</AltitudeMeters>
            <DistanceMeters>NAN</DistanceMeters>
          </Trackpoint>
          <Trackpoint>
            <Time>2022-07-11T17:19:23.000Z</Time>
            <Position>
              <LatitudeDegrees>43.28376836143434047698974609375</LatitudeDegrees>
              <LongitudeDegrees>-2.75486159138381481170654296875</LongitudeDegrees>
            </Position>
            <AltitudeMeters>313.79998779296875</AltitudeMeters>
            <DistanceMeters>NAN</DistanceMeters>
          </Trackpoint>
          <Trackpoint>
            <Time>2022-07-11T17:19:26.000Z</Time>
            <Position>
              <LatitudeDegrees>43.2837630808353424072265625</LatitudeDegrees>
              <LongitudeDegrees>-2.75489897467195987701416015625</LongitudeDegrees>
            </Position>
            <AltitudeMeters>314.399993896484375</AltitudeMeters>
            <DistanceMeters>NAN</DistanceMeters>
          </Trackpoint>
          <Trackpoint>
            <Time>2022-07-11T17:19:28.000Z</Time>
            <Position>
              <LatitudeDegrees>43.283764757215976715087890625</LatitudeDegrees>
              <LongitudeDegrees>-2.75492847897112369537353515625</LongitudeDegrees>
            </Position>
            <AltitudeMeters>315</AltitudeMeters>
            <DistanceMeters>NAN</DistanceMeters>
          </Trackpoint>
          <Trackpoint>
            <Time>2022-07-11T17:19:30.000Z</Time>
            <Position>
              <LatitudeDegrees>43.2837545312941074371337890625</LatitudeDegrees>
              <LongitudeDegrees>-2.75495865382254123687744140625</LongitudeDegrees>
            </Position>
            <AltitudeMeters>315.20001220703125</AltitudeMeters>
            <DistanceMeters>NAN</DistanceMeters>
          </Trackpoint>
          <Trackpoint>
            <Time>2022-07-11T17:19:31.000Z</Time>
            <Position>
              <LatitudeDegrees>43.28374497592449188232421875</LatitudeDegrees>
              <LongitudeDegrees>-2.7549718134105205535888671875</LongitudeDegrees>
            </Position>
            <AltitudeMeters>315.20001220703125</AltitudeMeters>
            <DistanceMeters>NAN</DistanceMeters>
          </Trackpoint>
          <Trackpoint>
            <Time>2022-07-11T17:19:32.000Z</Time>
            <Position>
              <LatitudeDegrees>43.28374036587774753570556640625</LatitudeDegrees>
              <LongitudeDegrees>-2.7549875713884830474853515625</LongitudeDegrees>
            </Position>
            <AltitudeMeters>315.20001220703125</AltitudeMeters>
            <DistanceMeters>NAN</DistanceMeters>
          </Trackpoint>
          <Trackpoint>
            <Time>2022-07-11T17:19:35.000Z</Time>
            <Position>
              <LatitudeDegrees>43.28375637531280517578125</LatitudeDegrees>
              <LongitudeDegrees>-2.75502252392470836639404296875</LongitudeDegrees>
            </Position>
            <AltitudeMeters>315.399993896484375</AltitudeMeters>
            <DistanceMeters>NAN</DistanceMeters>
          </Trackpoint>
          <Trackpoint>
            <Time>2022-07-11T17:19:37.000Z</Time>
            <Position>
              <LatitudeDegrees>43.28375612385571002960205078125</LatitudeDegrees>
              <LongitudeDegrees>-2.75504834018647670745849609375</LongitudeDegrees>
            </Position>
            <AltitudeMeters>315.399993896484375</AltitudeMeters>
            <DistanceMeters>NAN</DistanceMeters>
          </Trackpoint>
          <Trackpoint>
            <Time>2022-07-11T17:19:39.000Z</Time>
            <Position>
              <LatitudeDegrees>43.28376199118793010711669921875</LatitudeDegrees>
              <LongitudeDegrees>-2.755083627998828887939453125</LongitudeDegrees>
            </Position>
            <AltitudeMeters>315.600006103515625</AltitudeMeters>
            <DistanceMeters>NAN</DistanceMeters>
          </Trackpoint>
          <Trackpoint>
            <Time>2022-07-11T17:19:41.000Z</Time>
            <Position>
              <LatitudeDegrees>43.2837669365108013153076171875</LatitudeDegrees>
              <LongitudeDegrees>-2.75510332547128200531005859375</LongitudeDegrees>
            </Position>
            <AltitudeMeters>315.600006103515625</AltitudeMeters>
            <DistanceMeters>NAN</DistanceMeters>
          </Trackpoint>
          <Trackpoint>
            <Time>2022-07-11T17:19:42.000Z</Time>
            <Position>
              <LatitudeDegrees>43.283764086663722991943359375</LatitudeDegrees>
              <LongitudeDegrees>-2.75511371903121471405029296875</LongitudeDegrees>
            </Position>
            <AltitudeMeters>315.79998779296875</AltitudeMeters>
            <DistanceMeters>NAN</DistanceMeters>
          </Trackpoint>
          <Trackpoint>
            <Time>2022-07-11T17:19:45.000Z</Time>
            <Position>
              <LatitudeDegrees>43.2837729714810848236083984375</LatitudeDegrees>
              <LongitudeDegrees>-2.75518110953271389007568359375</LongitudeDegrees>
            </Position>
            <AltitudeMeters>316</AltitudeMeters>
            <DistanceMeters>NAN</DistanceMeters>
          </Trackpoint>
          <Trackpoint>
            <Time>2022-07-11T17:19:50.000Z</Time>
            <Position>
              <LatitudeDegrees>43.28380960039794445037841796875</LatitudeDegrees>
              <LongitudeDegrees>-2.75529124774038791656494140625</LongitudeDegrees>
            </Position>
            <AltitudeMeters>316.399993896484375</AltitudeMeters>
            <DistanceMeters>NAN</DistanceMeters>
          </Trackpoint>
          <Trackpoint>
            <Time>2022-07-11T17:19:51.000Z</Time>
            <Position>
              <LatitudeDegrees>43.28381144441664218902587890625</LatitudeDegrees>
              <LongitudeDegrees>-2.75531102903187274932861328125</LongitudeDegrees>
            </Position>
            <AltitudeMeters>316.399993896484375</AltitudeMeters>
            <DistanceMeters>NAN</DistanceMeters>
          </Trackpoint>
          <Trackpoint>
            <Time>2022-07-11T17:19:52.000Z</Time>
            <Position>
              <LatitudeDegrees>43.28380960039794445037841796875</LatitudeDegrees>
              <LongitudeDegrees>-2.7553285472095012664794921875</LongitudeDegrees>
            </Position>
            <AltitudeMeters>316.399993896484375</AltitudeMeters>
            <DistanceMeters>NAN</DistanceMeters>
          </Trackpoint>
          <Trackpoint>
            <Time>2022-07-11T17:19:54.000Z</Time>
            <Position>
              <LatitudeDegrees>43.28380205668509006500244140625</LatitudeDegrees>
              <LongitudeDegrees>-2.7553761564195156097412109375</LongitudeDegrees>
            </Position>
            <AltitudeMeters>316.399993896484375</AltitudeMeters>
            <DistanceMeters>NAN</DistanceMeters>
          </Trackpoint>
          <Trackpoint>
            <Time>2022-07-11T17:19:56.000Z</Time>
            <Position>
              <LatitudeDegrees>43.28378797508776187896728515625</LatitudeDegrees>
              <LongitudeDegrees>-2.75541513226926326751708984375</LongitudeDegrees>
            </Position>
            <AltitudeMeters>316.600006103515625</AltitudeMeters>
            <DistanceMeters>NAN</DistanceMeters>
          </Trackpoint>
          <Trackpoint>
            <Time>2022-07-11T17:20:01.000Z</Time>
            <Position>
              <LatitudeDegrees>43.28380155377089977264404296875</LatitudeDegrees>
              <LongitudeDegrees>-2.75548587553203105926513671875</LongitudeDegrees>
            </Position>
            <AltitudeMeters>317</AltitudeMeters>
            <DistanceMeters>NAN</DistanceMeters>
          </Trackpoint>
          <Trackpoint>
            <Time>2022-07-11T17:20:03.000Z</Time>
            <Position>
              <LatitudeDegrees>43.2838018052279949188232421875</LatitudeDegrees>
              <LongitudeDegrees>-2.75552040897309780120849609375</LongitudeDegrees>
            </Position>
            <AltitudeMeters>317.20001220703125</AltitudeMeters>
            <DistanceMeters>NAN</DistanceMeters>
          </Trackpoint>
          <Trackpoint>
            <Time>2022-07-11T17:20:05.000Z</Time>
            <Position>
              <LatitudeDegrees>43.2838034816086292266845703125</LatitudeDegrees>
              <LongitudeDegrees>-2.75556080974638462066650390625</LongitudeDegrees>
            </Position>
            <AltitudeMeters>317.399993896484375</AltitudeMeters>
            <DistanceMeters>NAN</DistanceMeters>
          </Trackpoint>
          <Trackpoint>
            <Time>2022-07-11T17:20:08.000Z</Time>
            <Position>
              <LatitudeDegrees>43.28378177247941493988037109375</LatitudeDegrees>
              <LongitudeDegrees>-2.75561579503118991851806640625</LongitudeDegrees>
            </Position>
            <AltitudeMeters>317.79998779296875</AltitudeMeters>
            <DistanceMeters>NAN</DistanceMeters>
          </Trackpoint>
          <Trackpoint>
            <Time>2022-07-11T17:20:12.000Z</Time>
            <Position>
              <LatitudeDegrees>43.2837783358991146087646484375</LatitudeDegrees>
              <LongitudeDegrees>-2.7557033859193325042724609375</LongitudeDegrees>
            </Position>
            <AltitudeMeters>318.20001220703125</AltitudeMeters>
            <DistanceMeters>NAN</DistanceMeters>
          </Trackpoint>
          <Trackpoint>
            <Time>2022-07-11T17:20:16.000Z</Time>
            <Position>
              <LatitudeDegrees>43.283771462738513946533203125</LatitudeDegrees>
              <LongitudeDegrees>-2.75577806867659091949462890625</LongitudeDegrees>
            </Position>
            <AltitudeMeters>318.600006103515625</AltitudeMeters>
            <DistanceMeters>NAN</DistanceMeters>
          </Trackpoint>
          <Trackpoint>
            <Time>2022-07-11T17:20:18.000Z</Time>
            <Position>
              <LatitudeDegrees>43.2837617397308349609375</LatitudeDegrees>
              <LongitudeDegrees>-2.75578946806490421295166015625</LongitudeDegrees>
            </Position>
            <AltitudeMeters>318.79998779296875</AltitudeMeters>
            <DistanceMeters>NAN</DistanceMeters>
          </Trackpoint>
          <Trackpoint>
            <Time>2022-07-11T17:20:20.000Z</Time>
            <Position>
              <LatitudeDegrees>43.2837377674877643585205078125</LatitudeDegrees>
              <LongitudeDegrees>-2.75581109337508678436279296875</LongitudeDegrees>
            </Position>
            <AltitudeMeters>319</AltitudeMeters>
            <DistanceMeters>NAN</DistanceMeters>
          </Trackpoint>
          <Trackpoint>
            <Time>2022-07-11T17:20:22.000Z</Time>
            <Position>
              <LatitudeDegrees>43.2837210036814212799072265625</LatitudeDegrees>
              <LongitudeDegrees>-2.7558385021984577178955078125</LongitudeDegrees>
            </Position>
            <AltitudeMeters>319.399993896484375</AltitudeMeters>
            <DistanceMeters>NAN</DistanceMeters>
          </Trackpoint>
          <Trackpoint>
            <Time>2022-07-11T17:20:24.000Z</Time>
            <Position>
              <LatitudeDegrees>43.28371672891080379486083984375</LatitudeDegrees>
              <LongitudeDegrees>-2.75586674921214580535888671875</LongitudeDegrees>
            </Position>
            <AltitudeMeters>319.600006103515625</AltitudeMeters>
            <DistanceMeters>NAN</DistanceMeters>
          </Trackpoint>
          <Trackpoint>
            <Time>2022-07-11T17:20:26.000Z</Time>
            <Position>
              <LatitudeDegrees>43.2837228477001190185546875</LatitudeDegrees>
              <LongitudeDegrees>-2.755907066166400909423828125</LongitudeDegrees>
            </Position>
            <AltitudeMeters>319.79998779296875</AltitudeMeters>
            <DistanceMeters>NAN</DistanceMeters>
          </Trackpoint>
          <Trackpoint>
            <Time>2022-07-11T17:20:30.000Z</Time>
            <Position>
              <LatitudeDegrees>43.2837067544460296630859375</LatitudeDegrees>
              <LongitudeDegrees>-2.75598811917006969451904296875</LongitudeDegrees>
            </Position>
            <AltitudeMeters>320.399993896484375</AltitudeMeters>
            <DistanceMeters>NAN</DistanceMeters>
          </Trackpoint>
          <Trackpoint>
            <Time>2022-07-11T17:20:32.000Z</Time>
            <Position>
              <LatitudeDegrees>43.2836973667144775390625</LatitudeDegrees>
              <LongitudeDegrees>-2.75600488297641277313232421875</LongitudeDegrees>
            </Position>
            <AltitudeMeters>320.79998779296875</AltitudeMeters>
            <DistanceMeters>NAN</DistanceMeters>
          </Trackpoint>
          <Trackpoint>
            <Time>2022-07-11T17:20:35.000Z</Time>
            <Position>
              <LatitudeDegrees>43.28363961540162563323974609375</LatitudeDegrees>
              <LongitudeDegrees>-2.7560403384268283843994140625</LongitudeDegrees>
            </Position>
            <AltitudeMeters>321.20001220703125</AltitudeMeters>
            <DistanceMeters>NAN</DistanceMeters>
          </Trackpoint>
          <Trackpoint>
            <Time>2022-07-11T17:20:36.000Z</Time>
            <Position>
              <LatitudeDegrees>43.28363290987908840179443359375</LatitudeDegrees>
              <LongitudeDegrees>-2.75606841780245304107666015625</LongitudeDegrees>
            </Position>
            <AltitudeMeters>321.399993896484375</AltitudeMeters>
            <DistanceMeters>NAN</DistanceMeters>
          </Trackpoint>
          <Trackpoint>
            <Time>2022-07-11T17:20:38.000Z</Time>
            <Position>
              <LatitudeDegrees>43.28364036977291107177734375</LatitudeDegrees>
              <LongitudeDegrees>-2.7561186254024505615234375</LongitudeDegrees>
            </Position>
            <AltitudeMeters>321.399993896484375</AltitudeMeters>
            <DistanceMeters>NAN</DistanceMeters>
          </Trackpoint>
          <Trackpoint>
            <Time>2022-07-11T17:20:40.000Z</Time>
            <Position>
              <LatitudeDegrees>43.28362117521464824676513671875</LatitudeDegrees>
              <LongitudeDegrees>-2.75614343583583831787109375</LongitudeDegrees>
            </Position>
            <AltitudeMeters>322</AltitudeMeters>
            <DistanceMeters>NAN</DistanceMeters>
          </Trackpoint>
          <Trackpoint>
            <Time>2022-07-11T17:20:41.000Z</Time>
            <Position>
              <LatitudeDegrees>43.283612541854381561279296875</LatitudeDegrees>
              <LongitudeDegrees>-2.75616765953600406646728515625</LongitudeDegrees>
            </Position>
            <AltitudeMeters>322.20001220703125</AltitudeMeters>
            <DistanceMeters>NAN</DistanceMeters>
          </Trackpoint>
          <Trackpoint>
            <Time>2022-07-11T17:20:42.000Z</Time>
            <Position>
              <LatitudeDegrees>43.28359519131481647491455078125</LatitudeDegrees>
              <LongitudeDegrees>-2.7562069706618785858154296875</LongitudeDegrees>
            </Position>
            <AltitudeMeters>322.600006103515625</AltitudeMeters>
            <DistanceMeters>NAN</DistanceMeters>
          </Trackpoint>
          <Trackpoint>
            <Time>2022-07-11T17:20:47.000Z</Time>
            <Position>
              <LatitudeDegrees>43.28353836201131343841552734375</LatitudeDegrees>
              <LongitudeDegrees>-2.7562988363206386566162109375</LongitudeDegrees>
            </Position>
            <AltitudeMeters>323</AltitudeMeters>
            <DistanceMeters>NAN</DistanceMeters>
          </Trackpoint>
          <Trackpoint>
            <Time>2022-07-11T17:20:48.000Z</Time>
            <Position>
              <LatitudeDegrees>43.2835171557962894439697265625</LatitudeDegrees>
              <LongitudeDegrees>-2.75631434284150600433349609375</LongitudeDegrees>
            </Position>
            <AltitudeMeters>323.20001220703125</AltitudeMeters>
            <DistanceMeters>NAN</DistanceMeters>
          </Trackpoint>
          <Trackpoint>
            <Time>2022-07-11T17:20:52.000Z</Time>
            <Position>
              <LatitudeDegrees>43.28352008946239948272705078125</LatitudeDegrees>
              <LongitudeDegrees>-2.7564083039760589599609375</LongitudeDegrees>
            </Position>
            <AltitudeMeters>323.600006103515625</AltitudeMeters>
            <DistanceMeters>NAN</DistanceMeters>
          </Trackpoint>
          <Trackpoint>
            <Time>2022-07-11T17:20:54.000Z</Time>
            <Position>
              <LatitudeDegrees>43.28348748385906219482421875</LatitudeDegrees>
              <LongitudeDegrees>-2.75643068365752696990966796875</LongitudeDegrees>
            </Position>
            <AltitudeMeters>323.79998779296875</AltitudeMeters>
            <DistanceMeters>NAN</DistanceMeters>
          </Trackpoint>
          <Trackpoint>
            <Time>2022-07-11T17:20:55.000Z</Time>
            <Position>
              <LatitudeDegrees>43.2834541238844394683837890625</LatitudeDegrees>
              <LongitudeDegrees>-2.75643755681812763214111328125</LongitudeDegrees>
            </Position>
            <AltitudeMeters>323.79998779296875</AltitudeMeters>
            <DistanceMeters>NAN</DistanceMeters>
          </Trackpoint>
          <Trackpoint>
            <Time>2022-07-11T17:20:56.000Z</Time>
            <Position>
              <LatitudeDegrees>43.28344062902033329010009765625</LatitudeDegrees>
              <LongitudeDegrees>-2.7564493753015995025634765625</LongitudeDegrees>
            </Position>
            <AltitudeMeters>324</AltitudeMeters>
            <DistanceMeters>NAN</DistanceMeters>
          </Trackpoint>
          <Trackpoint>
            <Time>2022-07-11T17:20:58.000Z</Time>
            <Position>
              <LatitudeDegrees>43.28345923684537410736083984375</LatitudeDegrees>
              <LongitudeDegrees>-2.7564849145710468292236328125</LongitudeDegrees>
            </Position>
            <AltitudeMeters>324</AltitudeMeters>
            <DistanceMeters>NAN</DistanceMeters>
          </Trackpoint>
          <Trackpoint>
            <Time>2022-07-11T17:21:00.000Z</Time>
            <Position>
              <LatitudeDegrees>43.2834668643772602081298828125</LatitudeDegrees>
              <LongitudeDegrees>-2.7565214596688747406005859375</LongitudeDegrees>
            </Position>
            <AltitudeMeters>324.20001220703125</AltitudeMeters>
            <DistanceMeters>NAN</DistanceMeters>
          </Trackpoint>
          <Trackpoint>
            <Time>2022-07-11T17:21:07.000Z</Time>
            <Position>
              <LatitudeDegrees>43.2834722287952899932861328125</LatitudeDegrees>
              <LongitudeDegrees>-2.756649367511272430419921875</LongitudeDegrees>
            </Position>
            <AltitudeMeters>324.600006103515625</AltitudeMeters>
            <DistanceMeters>NAN</DistanceMeters>
          </Trackpoint>
          <Trackpoint>
            <Time>2022-07-11T17:21:10.000Z</Time>
            <Position>
              <LatitudeDegrees>43.283496536314487457275390625</LatitudeDegrees>
              <LongitudeDegrees>-2.75670845992863178253173828125</LongitudeDegrees>
            </Position>
            <AltitudeMeters>324.79998779296875</AltitudeMeters>
            <DistanceMeters>NAN</DistanceMeters>
          </Trackpoint>
          <Trackpoint>
            <Time>2022-07-11T17:21:12.000Z</Time>
            <Position>
              <LatitudeDegrees>43.2834906689822673797607421875</LatitudeDegrees>
              <LongitudeDegrees>-2.7567437477409839630126953125</LongitudeDegrees>
            </Position>
            <AltitudeMeters>325</AltitudeMeters>
            <DistanceMeters>NAN</DistanceMeters>
          </Trackpoint>
          <Trackpoint>
            <Time>2022-07-11T17:21:13.000Z</Time>
            <Position>
              <LatitudeDegrees>43.28348505310714244842529296875</LatitudeDegrees>
              <LongitudeDegrees>-2.756761349737644195556640625</LongitudeDegrees>
            </Position>
            <AltitudeMeters>325.20001220703125</AltitudeMeters>
            <DistanceMeters>NAN</DistanceMeters>
          </Trackpoint>
          <Trackpoint>
            <Time>2022-07-11T17:21:17.000Z</Time>
            <Position>
              <LatitudeDegrees>43.28350382857024669647216796875</LatitudeDegrees>
              <LongitudeDegrees>-2.7568463422358036041259765625</LongitudeDegrees>
            </Position>
            <AltitudeMeters>325.600006103515625</AltitudeMeters>
            <DistanceMeters>NAN</DistanceMeters>
          </Trackpoint>
          <Trackpoint>
            <Time>2022-07-11T17:21:18.000Z</Time>
            <Position>
              <LatitudeDegrees>43.28350466676056385040283203125</LatitudeDegrees>
              <LongitudeDegrees>-2.756862603127956390380859375</LongitudeDegrees>
            </Position>
            <AltitudeMeters>325.79998779296875</AltitudeMeters>
            <DistanceMeters>NAN</DistanceMeters>
          </Trackpoint>
          <Trackpoint>
            <Time>2022-07-11T17:21:21.000Z</Time>
            <Position>
              <LatitudeDegrees>43.28350625932216644287109375</LatitudeDegrees>
              <LongitudeDegrees>-2.75690853595733642578125</LongitudeDegrees>
            </Position>
            <AltitudeMeters>326</AltitudeMeters>
            <DistanceMeters>NAN</DistanceMeters>
          </Trackpoint>
          <Trackpoint>
            <Time>2022-07-11T17:21:23.000Z</Time>
            <Position>
              <LatitudeDegrees>43.28350634314119815826416015625</LatitudeDegrees>
              <LongitudeDegrees>-2.75694013573229312896728515625</LongitudeDegrees>
            </Position>
            <AltitudeMeters>326.399993896484375</AltitudeMeters>
            <DistanceMeters>NAN</DistanceMeters>
          </Trackpoint>
          <Trackpoint>
            <Time>2022-07-11T17:21:24.000Z</Time>
            <Position>
              <LatitudeDegrees>43.2835067622363567352294921875</LatitudeDegrees>
              <LongitudeDegrees>-2.75695404969155788421630859375</LongitudeDegrees>
            </Position>
            <AltitudeMeters>326.600006103515625</AltitudeMeters>
            <DistanceMeters>NAN</DistanceMeters>
          </Trackpoint>
          <Trackpoint>
            <Time>2022-07-11T17:21:26.000Z</Time>
            <Position>
              <LatitudeDegrees>43.2835134677588939666748046875</LatitudeDegrees>
              <LongitudeDegrees>-2.75698699057102203369140625</LongitudeDegrees>
            </Position>
            <AltitudeMeters>326.600006103515625</AltitudeMeters>
            <DistanceMeters>NAN</DistanceMeters>
          </Trackpoint>
          <Trackpoint>
            <Time>2022-07-11T17:21:32.000Z</Time>
            <Position>
              <LatitudeDegrees>43.283493854105472564697265625</LatitudeDegrees>
              <LongitudeDegrees>-2.75709285400807857513427734375</LongitudeDegrees>
            </Position>
            <AltitudeMeters>327.399993896484375</AltitudeMeters>
            <DistanceMeters>NAN</DistanceMeters>
          </Trackpoint>
          <Trackpoint>
            <Time>2022-07-11T17:21:35.000Z</Time>
            <Position>
              <LatitudeDegrees>43.28348320908844470977783203125</LatitudeDegrees>
              <LongitudeDegrees>-2.7571444027125835418701171875</LongitudeDegrees>
            </Position>
            <AltitudeMeters>327.79998779296875</AltitudeMeters>
            <DistanceMeters>NAN</DistanceMeters>
          </Trackpoint>
          <Trackpoint>
            <Time>2022-07-11T17:21:42.000Z</Time>
            <Position>
              <LatitudeDegrees>43.2834507711231708526611328125</LatitudeDegrees>
              <LongitudeDegrees>-2.75728329084813594818115234375</LongitudeDegrees>
            </Position>
            <AltitudeMeters>328.399993896484375</AltitudeMeters>
            <DistanceMeters>NAN</DistanceMeters>
          </Trackpoint>
          <Trackpoint>
            <Time>2022-07-11T17:21:45.000Z</Time>
            <Position>
              <LatitudeDegrees>43.28341229818761348724365234375</LatitudeDegrees>
              <LongitudeDegrees>-2.7573148906230926513671875</LongitudeDegrees>
            </Position>
            <AltitudeMeters>328.399993896484375</AltitudeMeters>
            <DistanceMeters>NAN</DistanceMeters>
          </Trackpoint>
          <Trackpoint>
            <Time>2022-07-11T17:21:48.000Z</Time>
            <Position>
              <LatitudeDegrees>43.2834009826183319091796875</LatitudeDegrees>
              <LongitudeDegrees>-2.75735981762409210205078125</LongitudeDegrees>
            </Position>
            <AltitudeMeters>328.600006103515625</AltitudeMeters>
            <DistanceMeters>NAN</DistanceMeters>
          </Trackpoint>
          <Trackpoint>
            <Time>2022-07-11T17:21:49.000Z</Time>
            <Position>
              <LatitudeDegrees>43.28339888714253902435302734375</LatitudeDegrees>
              <LongitudeDegrees>-2.7573710493743419647216796875</LongitudeDegrees>
            </Position>
            <AltitudeMeters>328.600006103515625</AltitudeMeters>
            <DistanceMeters>NAN</DistanceMeters>
          </Trackpoint>
          <Trackpoint>
            <Time>2022-07-11T17:21:52.000Z</Time>
            <Position>
              <LatitudeDegrees>43.283372484147548675537109375</LatitudeDegrees>
              <LongitudeDegrees>-2.7573881484568119049072265625</LongitudeDegrees>
            </Position>
            <AltitudeMeters>328.600006103515625</AltitudeMeters>
            <DistanceMeters>NAN</DistanceMeters>
          </Trackpoint>
          <Trackpoint>
            <Time>2022-07-11T17:21:54.000Z</Time>
            <Position>
              <LatitudeDegrees>43.28336167149245738983154296875</LatitudeDegrees>
              <LongitudeDegrees>-2.75740046985447406768798828125</LongitudeDegrees>
            </Position>
            <AltitudeMeters>328.600006103515625</AltitudeMeters>
            <DistanceMeters>NAN</DistanceMeters>
          </Trackpoint>
          <Trackpoint>
            <Time>2022-07-11T17:21:55.000Z</Time>
            <Position>
              <LatitudeDegrees>43.28336167149245738983154296875</LatitudeDegrees>
              <LongitudeDegrees>-2.75740046985447406768798828125</LongitudeDegrees>
            </Position>
            <AltitudeMeters>328.600006103515625</AltitudeMeters>
            <DistanceMeters>NAN</DistanceMeters>
          </Trackpoint>
          <Trackpoint>
            <Time>2022-07-11T17:21:56.000Z</Time>
            <Position>
              <LatitudeDegrees>43.2833599112927913665771484375</LatitudeDegrees>
              <LongitudeDegrees>-2.75740533135831356048583984375</LongitudeDegrees>
            </Position>
            <AltitudeMeters>328.600006103515625</AltitudeMeters>
            <DistanceMeters>NAN</DistanceMeters>
          </Trackpoint>
          <Trackpoint>
            <Time>2022-07-11T17:22:02.000Z</Time>
            <Position>
              <LatitudeDegrees>43.28332982026040554046630859375</LatitudeDegrees>
              <LongitudeDegrees>-2.75749853812158107757568359375</LongitudeDegrees>
            </Position>
            <AltitudeMeters>328.399993896484375</AltitudeMeters>
            <DistanceMeters>NAN</DistanceMeters>
          </Trackpoint>
          <Trackpoint>
            <Time>2022-07-11T17:22:03.000Z</Time>
            <Position>
              <LatitudeDegrees>43.28331640921533107757568359375</LatitudeDegrees>
              <LongitudeDegrees>-2.75751211680471897125244140625</LongitudeDegrees>
            </Position>
            <AltitudeMeters>328.399993896484375</AltitudeMeters>
            <DistanceMeters>NAN</DistanceMeters>
          </Trackpoint>
          <Trackpoint>
            <Time>2022-07-11T17:22:08.000Z</Time>
            <Position>
              <LatitudeDegrees>43.2832132279872894287109375</LatitudeDegrees>
              <LongitudeDegrees>-2.75751806795597076416015625</LongitudeDegrees>
            </Position>
            <AltitudeMeters>328.20001220703125</AltitudeMeters>
            <DistanceMeters>NAN</DistanceMeters>
          </Trackpoint>
          <Trackpoint>
            <Time>2022-07-11T17:22:10.000Z</Time>
            <Position>
              <LatitudeDegrees>43.28316922299563884735107421875</LatitudeDegrees>
              <LongitudeDegrees>-2.75751396082341670989990234375</LongitudeDegrees>
            </Position>
            <AltitudeMeters>328</AltitudeMeters>
            <DistanceMeters>NAN</DistanceMeters>
          </Trackpoint>
          <Trackpoint>
            <Time>2022-07-11T17:22:12.000Z</Time>
            <Position>
              <LatitudeDegrees>43.28313435427844524383544921875</LatitudeDegrees>
              <LongitudeDegrees>-2.7575108595192432403564453125</LongitudeDegrees>
            </Position>
            <AltitudeMeters>327.79998779296875</AltitudeMeters>
            <DistanceMeters>NAN</DistanceMeters>
          </Trackpoint>
          <Trackpoint>
            <Time>2022-07-11T17:22:14.000Z</Time>
            <Position>
              <LatitudeDegrees>43.28312329016625881195068359375</LatitudeDegrees>
              <LongitudeDegrees>-2.7575095184147357940673828125</LongitudeDegrees>
            </Position>
            <AltitudeMeters>327.600006103515625</AltitudeMeters>
            <DistanceMeters>NAN</DistanceMeters>
          </Trackpoint>
          <Trackpoint>
            <Time>2022-07-11T17:22:15.000Z</Time>
            <Position>
              <LatitudeDegrees>43.28312329016625881195068359375</LatitudeDegrees>
              <LongitudeDegrees>-2.7575095184147357940673828125</LongitudeDegrees>
            </Position>
            <AltitudeMeters>327.600006103515625</AltitudeMeters>
            <DistanceMeters>NAN</DistanceMeters>
          </Trackpoint>
          <Trackpoint>
            <Time>2022-07-11T17:25:47.000Z</Time>
            <Position>
              <LatitudeDegrees>43.28307442367076873779296875</LatitudeDegrees>
              <LongitudeDegrees>-2.7574977837502956390380859375</LongitudeDegrees>
            </Position>
            <AltitudeMeters>326.79998779296875</AltitudeMeters>
            <DistanceMeters>NAN</DistanceMeters>
          </Trackpoint>
          <Trackpoint>
            <Time>2022-07-11T17:25:48.000Z</Time>
            <Position>
              <LatitudeDegrees>43.28304894268512725830078125</LatitudeDegrees>
              <LongitudeDegrees>-2.75748780928552150726318359375</LongitudeDegrees>
            </Position>
            <AltitudeMeters>326.79998779296875</AltitudeMeters>
            <DistanceMeters>NAN</DistanceMeters>
          </Trackpoint>
          <Trackpoint>
            <Time>2022-07-11T17:25:52.000Z</Time>
            <Position>
              <LatitudeDegrees>43.2828982360661029815673828125</LatitudeDegrees>
              <LongitudeDegrees>-2.757478170096874237060546875</LongitudeDegrees>
            </Position>
            <AltitudeMeters>326.600006103515625</AltitudeMeters>
            <DistanceMeters>NAN</DistanceMeters>
          </Trackpoint>
          <Trackpoint>
            <Time>2022-07-11T17:25:53.000Z</Time>
            <Position>
              <LatitudeDegrees>43.28285171650350093841552734375</LatitudeDegrees>
              <LongitudeDegrees>-2.75747557170689105987548828125</LongitudeDegrees>
            </Position>
            <AltitudeMeters>326.600006103515625</AltitudeMeters>
            <DistanceMeters>NAN</DistanceMeters>
          </Trackpoint>
          <Trackpoint>
            <Time>2022-07-11T17:25:57.000Z</Time>
            <Position>
              <LatitudeDegrees>43.28264116309583187103271484375</LatitudeDegrees>
              <LongitudeDegrees>-2.75744304992258548736572265625</LongitudeDegrees>
            </Position>
            <AltitudeMeters>326</AltitudeMeters>
            <DistanceMeters>NAN</DistanceMeters>
          </Trackpoint>
          <Trackpoint>
            <Time>2022-07-11T17:25:59.000Z</Time>
            <Position>
              <LatitudeDegrees>43.28251375816762447357177734375</LatitudeDegrees>
              <LongitudeDegrees>-2.75742528028786182403564453125</LongitudeDegrees>
            </Position>
            <AltitudeMeters>325.600006103515625</AltitudeMeters>
            <DistanceMeters>NAN</DistanceMeters>
          </Trackpoint>
          <Trackpoint>
            <Time>2022-07-11T17:26:03.000Z</Time>
            <Position>
              <LatitudeDegrees>43.28224285505712032318115234375</LatitudeDegrees>
              <LongitudeDegrees>-2.75739309377968311309814453125</LongitudeDegrees>
            </Position>
            <AltitudeMeters>324.600006103515625</AltitudeMeters>
            <DistanceMeters>NAN</DistanceMeters>
          </Trackpoint>
          <Trackpoint>
            <Time>2022-07-11T17:26:08.000Z</Time>
            <Position>
              <LatitudeDegrees>43.281871117651462554931640625</LatitudeDegrees>
              <LongitudeDegrees>-2.75729586370289325714111328125</LongitudeDegrees>
            </Position>
            <AltitudeMeters>323.20001220703125</AltitudeMeters>
            <DistanceMeters>NAN</DistanceMeters>
          </Trackpoint>
          <Trackpoint>
            <Time>2022-07-11T17:26:10.000Z</Time>
            <Position>
              <LatitudeDegrees>43.28173709101974964141845703125</LatitudeDegrees>
              <LongitudeDegrees>-2.75720735080540180206298828125</LongitudeDegrees>
            </Position>
            <AltitudeMeters>322.600006103515625</AltitudeMeters>
            <DistanceMeters>NAN</DistanceMeters>
          </Trackpoint>
          <Trackpoint>
            <Time>2022-07-11T17:26:12.000Z</Time>
            <Position>
              <LatitudeDegrees>43.28161186538636684417724609375</LatitudeDegrees>
              <LongitudeDegrees>-2.75708891451358795166015625</LongitudeDegrees>
            </Position>
            <AltitudeMeters>321.79998779296875</AltitudeMeters>
            <DistanceMeters>NAN</DistanceMeters>
          </Trackpoint>
          <Trackpoint>
            <Time>2022-07-11T17:26:15.000Z</Time>
            <Position>
              <LatitudeDegrees>43.28146635554730892181396484375</LatitudeDegrees>
              <LongitudeDegrees>-2.75687794201076030731201171875</LongitudeDegrees>
            </Position>
            <AltitudeMeters>320.399993896484375</AltitudeMeters>
            <DistanceMeters>NAN</DistanceMeters>
          </Trackpoint>
          <Trackpoint>
            <Time>2022-07-11T17:26:17.000Z</Time>
            <Position>
              <LatitudeDegrees>43.28136895783245563507080078125</LatitudeDegrees>
              <LongitudeDegrees>-2.7567015029489994049072265625</LongitudeDegrees>
            </Position>
            <AltitudeMeters>319.399993896484375</AltitudeMeters>
            <DistanceMeters>NAN</DistanceMeters>
          </Trackpoint>
          <Trackpoint>
            <Time>2022-07-11T17:26:18.000Z</Time>
            <Position>
              <LatitudeDegrees>43.28132537193596363067626953125</LatitudeDegrees>
              <LongitudeDegrees>-2.75661441497504711151123046875</LongitudeDegrees>
            </Position>
            <AltitudeMeters>319</AltitudeMeters>
            <DistanceMeters>NAN</DistanceMeters>
          </Trackpoint>
          <Trackpoint>
            <Time>2022-07-11T17:26:21.000Z</Time>
            <Position>
              <LatitudeDegrees>43.28118673525750637054443359375</LatitudeDegrees>
              <LongitudeDegrees>-2.75634988211095333099365234375</LongitudeDegrees>
            </Position>
            <AltitudeMeters>317.600006103515625</AltitudeMeters>
            <DistanceMeters>NAN</DistanceMeters>
          </Trackpoint>
          <Trackpoint>
            <Time>2022-07-11T17:26:22.000Z</Time>
            <Position>
              <LatitudeDegrees>43.2811343483626842498779296875</LatitudeDegrees>
              <LongitudeDegrees>-2.7562740258872509002685546875</LongitudeDegrees>
            </Position>
            <AltitudeMeters>317.399993896484375</AltitudeMeters>
            <DistanceMeters>NAN</DistanceMeters>
          </Trackpoint>
          <Trackpoint>
            <Time>2022-07-11T17:26:23.000Z</Time>
            <Position>
              <LatitudeDegrees>43.28108715824782848358154296875</LatitudeDegrees>
              <LongitudeDegrees>-2.75622549466788768768310546875</LongitudeDegrees>
            </Position>
            <AltitudeMeters>317</AltitudeMeters>
            <DistanceMeters>NAN</DistanceMeters>
          </Trackpoint>
          <Trackpoint>
            <Time>2022-07-11T17:26:24.000Z</Time>
            <Position>
              <LatitudeDegrees>43.281004764139652252197265625</LatitudeDegrees>
              <LongitudeDegrees>-2.75616950355470180511474609375</LongitudeDegrees>
            </Position>
            <AltitudeMeters>316.399993896484375</AltitudeMeters>
            <DistanceMeters>NAN</DistanceMeters>
          </Trackpoint>
          <Trackpoint>
            <Time>2022-07-11T17:26:26.000Z</Time>
            <Position>
              <LatitudeDegrees>43.28085648827254772186279296875</LatitudeDegrees>
              <LongitudeDegrees>-2.7561586908996105194091796875</LongitudeDegrees>
            </Position>
            <AltitudeMeters>315.399993896484375</AltitudeMeters>
            <DistanceMeters>NAN</DistanceMeters>
          </Trackpoint>
          <Trackpoint>
            <Time>2022-07-11T17:26:28.000Z</Time>
            <Position>
              <LatitudeDegrees>43.280689604580402374267578125</LatitudeDegrees>
              <LongitudeDegrees>-2.756210826337337493896484375</LongitudeDegrees>
            </Position>
            <AltitudeMeters>314</AltitudeMeters>
            <DistanceMeters>NAN</DistanceMeters>
          </Trackpoint>
          <Trackpoint>
            <Time>2022-07-11T17:26:30.000Z</Time>
            <Position>
              <LatitudeDegrees>43.28052858822047710418701171875</LatitudeDegrees>
              <LongitudeDegrees>-2.7562753669917583465576171875</LongitudeDegrees>
            </Position>
            <AltitudeMeters>313.399993896484375</AltitudeMeters>
            <DistanceMeters>NAN</DistanceMeters>
          </Trackpoint>
          <Trackpoint>
            <Time>2022-07-11T17:26:31.000Z</Time>
            <Position>
              <LatitudeDegrees>43.280451558530330657958984375</LatitudeDegrees>
              <LongitudeDegrees>-2.75628735311329364776611328125</LongitudeDegrees>
            </Position>
            <AltitudeMeters>312.600006103515625</AltitudeMeters>
            <DistanceMeters>NAN</DistanceMeters>
          </Trackpoint>
          <Trackpoint>
            <Time>2022-07-11T17:26:33.000Z</Time>
            <Position>
              <LatitudeDegrees>43.2802887819707393646240234375</LatitudeDegrees>
              <LongitudeDegrees>-2.7562643028795719146728515625</LongitudeDegrees>
            </Position>
            <AltitudeMeters>311.600006103515625</AltitudeMeters>
            <DistanceMeters>NAN</DistanceMeters>
          </Trackpoint>
          <Trackpoint>
            <Time>2022-07-11T17:26:35.000Z</Time>
            <Position>
              <LatitudeDegrees>43.28014276921749114990234375</LatitudeDegrees>
              <LongitudeDegrees>-2.75617956183850765228271484375</LongitudeDegrees>
            </Position>
            <AltitudeMeters>310.20001220703125</AltitudeMeters>
            <DistanceMeters>NAN</DistanceMeters>
          </Trackpoint>
          <Trackpoint>
            <Time>2022-07-11T17:26:36.000Z</Time>
            <Position>
              <LatitudeDegrees>43.280072025954723358154296875</LatitudeDegrees>
              <LongitudeDegrees>-2.75614569894969463348388671875</LongitudeDegrees>
            </Position>
            <AltitudeMeters>310</AltitudeMeters>
            <DistanceMeters>NAN</DistanceMeters>
          </Trackpoint>
          <Trackpoint>
            <Time>2022-07-11T17:26:37.000Z</Time>
            <Position>
              <LatitudeDegrees>43.28000522218644618988037109375</LatitudeDegrees>
              <LongitudeDegrees>-2.7561305277049541473388671875</LongitudeDegrees>
            </Position>
            <AltitudeMeters>309.20001220703125</AltitudeMeters>
            <DistanceMeters>NAN</DistanceMeters>
          </Trackpoint>
          <Trackpoint>
            <Time>2022-07-11T17:26:38.000Z</Time>
            <Position>
              <LatitudeDegrees>43.2799468003213405609130859375</LatitudeDegrees>
              <LongitudeDegrees>-2.75613329373300075531005859375</LongitudeDegrees>
            </Position>
            <AltitudeMeters>308.20001220703125</AltitudeMeters>
            <DistanceMeters>NAN</DistanceMeters>
          </Trackpoint>
          <Trackpoint>
            <Time>2022-07-11T17:26:39.000Z</Time>
            <Position>
              <LatitudeDegrees>43.2799048908054828643798828125</LatitudeDegrees>
              <LongitudeDegrees>-2.75614553131163120269775390625</LongitudeDegrees>
            </Position>
            <AltitudeMeters>307.399993896484375</AltitudeMeters>
            <DistanceMeters>NAN</DistanceMeters>
          </Trackpoint>
          <Trackpoint>
            <Time>2022-07-11T17:26:40.000Z</Time>
            <Position>
              <LatitudeDegrees>43.279852755367755889892578125</LatitudeDegrees>
              <LongitudeDegrees>-2.7561657316982746124267578125</LongitudeDegrees>
            </Position>
            <AltitudeMeters>306.20001220703125</AltitudeMeters>
            <DistanceMeters>NAN</DistanceMeters>
          </Trackpoint>
          <Trackpoint>
            <Time>2022-07-11T17:26:42.000Z</Time>
            <Position>
              <LatitudeDegrees>43.2797934114933013916015625</LatitudeDegrees>
              <LongitudeDegrees>-2.7561794780194759368896484375</LongitudeDegrees>
            </Position>
            <AltitudeMeters>304.79998779296875</AltitudeMeters>
            <DistanceMeters>NAN</DistanceMeters>
          </Trackpoint>
          <Trackpoint>
            <Time>2022-07-11T17:26:43.000Z</Time>
            <Position>
              <LatitudeDegrees>43.27977706678211688995361328125</LatitudeDegrees>
              <LongitudeDegrees>-2.75617386214435100555419921875</LongitudeDegrees>
            </Position>
            <AltitudeMeters>304.399993896484375</AltitudeMeters>
            <DistanceMeters>NAN</DistanceMeters>
          </Trackpoint>
          <Trackpoint>
            <Time>2022-07-11T17:26:46.000Z</Time>
            <Position>
              <LatitudeDegrees>43.27977270819246768951416015625</LatitudeDegrees>
              <LongitudeDegrees>-2.75615374557673931121826171875</LongitudeDegrees>
            </Position>
            <AltitudeMeters>304</AltitudeMeters>
            <DistanceMeters>NAN</DistanceMeters>
          </Trackpoint>
          <Trackpoint>
            <Time>2022-07-11T17:26:48.000Z</Time>
            <Position>
              <LatitudeDegrees>43.2797882147133350372314453125</LatitudeDegrees>
              <LongitudeDegrees>-2.756154835224151611328125</LongitudeDegrees>
            </Position>
            <AltitudeMeters>304</AltitudeMeters>
            <DistanceMeters>NAN</DistanceMeters>
          </Trackpoint>
          <Trackpoint>
            <Time>2022-07-11T17:26:51.000Z</Time>
            <Position>
              <LatitudeDegrees>43.279820568859577178955078125</LatitudeDegrees>
              <LongitudeDegrees>-2.75621577166020870208740234375</LongitudeDegrees>
            </Position>
            <AltitudeMeters>304</AltitudeMeters>
            <DistanceMeters>NAN</DistanceMeters>
          </Trackpoint>
          <Trackpoint>
            <Time>2022-07-11T17:26:54.000Z</Time>
            <Position>
              <LatitudeDegrees>43.279850743710994720458984375</LatitudeDegrees>
              <LongitudeDegrees>-2.75638525374233722686767578125</LongitudeDegrees>
            </Position>
            <AltitudeMeters>303.79998779296875</AltitudeMeters>
            <DistanceMeters>NAN</DistanceMeters>
          </Trackpoint>
          <Trackpoint>
            <Time>2022-07-11T17:26:55.000Z</Time>
            <Position>
              <LatitudeDegrees>43.27987362630665302276611328125</LatitudeDegrees>
              <LongitudeDegrees>-2.75646236725151538848876953125</LongitudeDegrees>
            </Position>
            <AltitudeMeters>303.79998779296875</AltitudeMeters>
            <DistanceMeters>NAN</DistanceMeters>
          </Trackpoint>
          <Trackpoint>
            <Time>2022-07-11T17:26:56.000Z</Time>
            <Position>
              <LatitudeDegrees>43.27990807592868804931640625</LatitudeDegrees>
              <LongitudeDegrees>-2.75653730146586894989013671875</LongitudeDegrees>
            </Position>
            <AltitudeMeters>303.399993896484375</AltitudeMeters>
            <DistanceMeters>NAN</DistanceMeters>
          </Trackpoint>
          <Trackpoint>
            <Time>2022-07-11T17:26:58.000Z</Time>
            <Position>
              <LatitudeDegrees>43.2800286076962947845458984375</LatitudeDegrees>
              <LongitudeDegrees>-2.7566309273242950439453125</LongitudeDegrees>
            </Position>
            <AltitudeMeters>302.600006103515625</AltitudeMeters>
            <DistanceMeters>NAN</DistanceMeters>
          </Trackpoint>
          <Trackpoint>
            <Time>2022-07-11T17:27:01.000Z</Time>
            <Position>
              <LatitudeDegrees>43.28026556409895420074462890625</LatitudeDegrees>
              <LongitudeDegrees>-2.7566548995673656463623046875</LongitudeDegrees>
            </Position>
            <AltitudeMeters>301.399993896484375</AltitudeMeters>
            <DistanceMeters>NAN</DistanceMeters>
          </Trackpoint>
          <Trackpoint>
            <Time>2022-07-11T17:27:02.000Z</Time>
            <Position>
              <LatitudeDegrees>43.28034552745521068572998046875</LatitudeDegrees>
              <LongitudeDegrees>-2.7566599287092685699462890625</LongitudeDegrees>
            </Position>
            <AltitudeMeters>301</AltitudeMeters>
            <DistanceMeters>NAN</DistanceMeters>
          </Trackpoint>
          <Trackpoint>
            <Time>2022-07-11T17:27:03.000Z</Time>
            <Position>
              <LatitudeDegrees>43.28042180277407169342041015625</LatitudeDegrees>
              <LongitudeDegrees>-2.75667308829724788665771484375</LongitudeDegrees>
            </Position>
            <AltitudeMeters>300.600006103515625</AltitudeMeters>
            <DistanceMeters>NAN</DistanceMeters>
          </Trackpoint>
          <Trackpoint>
            <Time>2022-07-11T17:27:04.000Z</Time>
            <Position>
              <LatitudeDegrees>43.2804922945797443389892578125</LatitudeDegrees>
              <LongitudeDegrees>-2.756694965064525604248046875</LongitudeDegrees>
            </Position>
            <AltitudeMeters>300.20001220703125</AltitudeMeters>
            <DistanceMeters>NAN</DistanceMeters>
          </Trackpoint>
          <Trackpoint>
            <Time>2022-07-11T17:27:06.000Z</Time>
            <Position>
              <LatitudeDegrees>43.2806150056421756744384765625</LatitudeDegrees>
              <LongitudeDegrees>-2.75675204582512378692626953125</LongitudeDegrees>
            </Position>
            <AltitudeMeters>299.399993896484375</AltitudeMeters>
            <DistanceMeters>NAN</DistanceMeters>
          </Trackpoint>
          <Trackpoint>
            <Time>2022-07-11T17:27:07.000Z</Time>
            <Position>
              <LatitudeDegrees>43.28067921102046966552734375</LatitudeDegrees>
              <LongitudeDegrees>-2.7567891776561737060546875</LongitudeDegrees>
            </Position>
            <AltitudeMeters>298.79998779296875</AltitudeMeters>
            <DistanceMeters>NAN</DistanceMeters>
          </Trackpoint>
          <Trackpoint>
            <Time>2022-07-11T17:27:09.000Z</Time>
            <Position>
              <LatitudeDegrees>43.280782811343669891357421875</LatitudeDegrees>
              <LongitudeDegrees>-2.756900824606418609619140625</LongitudeDegrees>
            </Position>
            <AltitudeMeters>297.600006103515625</AltitudeMeters>
            <DistanceMeters>NAN</DistanceMeters>
          </Trackpoint>
          <Trackpoint>
            <Time>2022-07-11T17:27:11.000Z</Time>
            <Position>
              <LatitudeDegrees>43.28085665591061115264892578125</LatitudeDegrees>
              <LongitudeDegrees>-2.75705278851091861724853515625</LongitudeDegrees>
            </Position>
            <AltitudeMeters>296.600006103515625</AltitudeMeters>
            <DistanceMeters>NAN</DistanceMeters>
          </Trackpoint>
          <Trackpoint>
            <Time>2022-07-11T17:27:13.000Z</Time>
            <Position>
              <LatitudeDegrees>43.2809087075293064117431640625</LatitudeDegrees>
              <LongitudeDegrees>-2.75722780264914035797119140625</LongitudeDegrees>
            </Position>
            <AltitudeMeters>295.79998779296875</AltitudeMeters>
            <DistanceMeters>NAN</DistanceMeters>
          </Trackpoint>
          <Trackpoint>
            <Time>2022-07-11T17:27:14.000Z</Time>
            <Position>
              <LatitudeDegrees>43.280929662287235260009765625</LatitudeDegrees>
              <LongitudeDegrees>-2.757309190928936004638671875</LongitudeDegrees>
            </Position>
            <AltitudeMeters>295.20001220703125</AltitudeMeters>
            <DistanceMeters>NAN</DistanceMeters>
          </Trackpoint>
          <Trackpoint>
            <Time>2022-07-11T17:27:15.000Z</Time>
            <Position>
              <LatitudeDegrees>43.280942738056182861328125</LatitudeDegrees>
              <LongitudeDegrees>-2.75738169439136981964111328125</LongitudeDegrees>
            </Position>
            <AltitudeMeters>294.20001220703125</AltitudeMeters>
            <DistanceMeters>NAN</DistanceMeters>
          </Trackpoint>
          <Trackpoint>
            <Time>2022-07-11T17:27:17.000Z</Time>
            <Position>
              <LatitudeDegrees>43.28095874749124050140380859375</LatitudeDegrees>
              <LongitudeDegrees>-2.75751647539436817169189453125</LongitudeDegrees>
            </Position>
            <AltitudeMeters>292.79998779296875</AltitudeMeters>
            <DistanceMeters>NAN</DistanceMeters>
          </Trackpoint>
          <Trackpoint>
            <Time>2022-07-11T17:27:20.000Z</Time>
            <Position>
              <LatitudeDegrees>43.28097098506987094879150390625</LatitudeDegrees>
              <LongitudeDegrees>-2.75771210901439189910888671875</LongitudeDegrees>
            </Position>
            <AltitudeMeters>291.79998779296875</AltitudeMeters>
            <DistanceMeters>NAN</DistanceMeters>
          </Trackpoint>
          <Trackpoint>
            <Time>2022-07-11T17:27:21.000Z</Time>
            <Position>
              <LatitudeDegrees>43.280978612601757049560546875</LatitudeDegrees>
              <LongitudeDegrees>-2.75780363939702510833740234375</LongitudeDegrees>
            </Position>
            <AltitudeMeters>291.600006103515625</AltitudeMeters>
            <DistanceMeters>NAN</DistanceMeters>
          </Trackpoint>
          <Trackpoint>
            <Time>2022-07-11T17:27:22.000Z</Time>
            <Position>
              <LatitudeDegrees>43.28098104335367679595947265625</LatitudeDegrees>
              <LongitudeDegrees>-2.75789014063775539398193359375</LongitudeDegrees>
            </Position>
            <AltitudeMeters>291.20001220703125</AltitudeMeters>
            <DistanceMeters>NAN</DistanceMeters>
          </Trackpoint>
          <Trackpoint>
            <Time>2022-07-11T17:27:24.000Z</Time>
            <Position>
              <LatitudeDegrees>43.28099378384649753570556640625</LatitudeDegrees>
              <LongitudeDegrees>-2.7580536715686321258544921875</LongitudeDegrees>
            </Position>
            <AltitudeMeters>290.600006103515625</AltitudeMeters>
            <DistanceMeters>NAN</DistanceMeters>
          </Trackpoint>
          <Trackpoint>
            <Time>2022-07-11T17:27:26.000Z</Time>
            <Position>
              <LatitudeDegrees>43.28104927204549312591552734375</LatitudeDegrees>
              <LongitudeDegrees>-2.7582632191479206085205078125</LongitudeDegrees>
            </Position>
            <AltitudeMeters>290</AltitudeMeters>
            <DistanceMeters>NAN</DistanceMeters>
          </Trackpoint>
          <Trackpoint>
            <Time>2022-07-11T17:27:27.000Z</Time>
            <Position>
              <LatitudeDegrees>43.28108958899974822998046875</LatitudeDegrees>
              <LongitudeDegrees>-2.75835399515926837921142578125</LongitudeDegrees>
            </Position>
            <AltitudeMeters>289.600006103515625</AltitudeMeters>
            <DistanceMeters>NAN</DistanceMeters>
          </Trackpoint>
          <Trackpoint>
            <Time>2022-07-11T17:27:28.000Z</Time>
            <Position>
              <LatitudeDegrees>43.28113644383847713470458984375</LatitudeDegrees>
              <LongitudeDegrees>-2.758445441722869873046875</LongitudeDegrees>
            </Position>
            <AltitudeMeters>288.79998779296875</AltitudeMeters>
            <DistanceMeters>NAN</DistanceMeters>
          </Trackpoint>
          <Trackpoint>
            <Time>2022-07-11T17:27:29.000Z</Time>
            <Position>
              <LatitudeDegrees>43.28118120320141315460205078125</LatitudeDegrees>
              <LongitudeDegrees>-2.75851274840533733367919921875</LongitudeDegrees>
            </Position>
            <AltitudeMeters>288.20001220703125</AltitudeMeters>
            <DistanceMeters>NAN</DistanceMeters>
          </Trackpoint>
          <Trackpoint>
            <Time>2022-07-11T17:27:30.000Z</Time>
            <Position>
              <LatitudeDegrees>43.28124381601810455322265625</LatitudeDegrees>
              <LongitudeDegrees>-2.75857863016426563262939453125</LongitudeDegrees>
            </Position>
            <AltitudeMeters>287.600006103515625</AltitudeMeters>
            <DistanceMeters>NAN</DistanceMeters>
          </Trackpoint>
          <Trackpoint>
            <Time>2022-07-11T17:27:31.000Z</Time>
            <Position>
              <LatitudeDegrees>43.281329311430454254150390625</LatitudeDegrees>
              <LongitudeDegrees>-2.758641578257083892822265625</LongitudeDegrees>
            </Position>
            <AltitudeMeters>287</AltitudeMeters>
            <DistanceMeters>NAN</DistanceMeters>
          </Trackpoint>
          <Trackpoint>
            <Time>2022-07-11T17:27:33.000Z</Time>
            <Position>
              <LatitudeDegrees>43.2814803533256053924560546875</LatitudeDegrees>
              <LongitudeDegrees>-2.7587238885462284088134765625</LongitudeDegrees>
            </Position>
            <AltitudeMeters>285.399993896484375</AltitudeMeters>
            <DistanceMeters>NAN</DistanceMeters>
          </Trackpoint>
          <Trackpoint>
            <Time>2022-07-11T17:27:34.000Z</Time>
            <Position>
              <LatitudeDegrees>43.28154212795197963714599609375</LatitudeDegrees>
              <LongitudeDegrees>-2.7587510459125041961669921875</LongitudeDegrees>
            </Position>
            <AltitudeMeters>284.79998779296875</AltitudeMeters>
            <DistanceMeters>NAN</DistanceMeters>
          </Trackpoint>
          <Trackpoint>
            <Time>2022-07-11T17:27:35.000Z</Time>
            <Position>
              <LatitudeDegrees>43.2816198281943798065185546875</LatitudeDegrees>
              <LongitudeDegrees>-2.7587835676968097686767578125</LongitudeDegrees>
            </Position>
            <AltitudeMeters>284</AltitudeMeters>
            <DistanceMeters>NAN</DistanceMeters>
          </Trackpoint>
          <Trackpoint>
            <Time>2022-07-11T17:27:37.000Z</Time>
            <Position>
              <LatitudeDegrees>43.28177623450756072998046875</LatitudeDegrees>
              <LongitudeDegrees>-2.75885506533086299896240234375</LongitudeDegrees>
            </Position>
            <AltitudeMeters>283.20001220703125</AltitudeMeters>
            <DistanceMeters>NAN</DistanceMeters>
          </Trackpoint>
          <Trackpoint>
            <Time>2022-07-11T17:27:38.000Z</Time>
            <Position>
              <LatitudeDegrees>43.2818669266998767852783203125</LatitudeDegrees>
              <LongitudeDegrees>-2.7589002437889575958251953125</LongitudeDegrees>
            </Position>
            <AltitudeMeters>282.79998779296875</AltitudeMeters>
            <DistanceMeters>NAN</DistanceMeters>
          </Trackpoint>
          <Trackpoint>
            <Time>2022-07-11T17:27:40.000Z</Time>
            <Position>
              <LatitudeDegrees>43.281986452639102935791015625</LatitudeDegrees>
              <LongitudeDegrees>-2.7590058557689189910888671875</LongitudeDegrees>
            </Position>
            <AltitudeMeters>281.600006103515625</AltitudeMeters>
            <DistanceMeters>NAN</DistanceMeters>
          </Trackpoint>
          <Trackpoint>
            <Time>2022-07-11T17:27:42.000Z</Time>
            <Position>
              <LatitudeDegrees>43.28210321255028247833251953125</LatitudeDegrees>
              <LongitudeDegrees>-2.759190090000629425048828125</LongitudeDegrees>
            </Position>
            <AltitudeMeters>280.399993896484375</AltitudeMeters>
            <DistanceMeters>NAN</DistanceMeters>
          </Trackpoint>
          <Trackpoint>
            <Time>2022-07-11T17:27:43.000Z</Time>
            <Position>
              <LatitudeDegrees>43.2821237482130527496337890625</LatitudeDegrees>
              <LongitudeDegrees>-2.759279273450374603271484375</LongitudeDegrees>
            </Position>
            <AltitudeMeters>280</AltitudeMeters>
            <DistanceMeters>NAN</DistanceMeters>
          </Trackpoint>
          <Trackpoint>
            <Time>2022-07-11T17:27:44.000Z</Time>
            <Position>
              <LatitudeDegrees>43.282140679657459259033203125</LatitudeDegrees>
              <LongitudeDegrees>-2.759416736662387847900390625</LongitudeDegrees>
            </Position>
            <AltitudeMeters>279.79998779296875</AltitudeMeters>
            <DistanceMeters>NAN</DistanceMeters>
          </Trackpoint>
          <Trackpoint>
            <Time>2022-07-11T17:27:45.000Z</Time>
            <Position>
              <LatitudeDegrees>43.2821401767432689666748046875</LatitudeDegrees>
              <LongitudeDegrees>-2.759514637291431427001953125</LongitudeDegrees>
            </Position>
            <AltitudeMeters>279.20001220703125</AltitudeMeters>
            <DistanceMeters>NAN</DistanceMeters>
          </Trackpoint>
          <Trackpoint>
            <Time>2022-07-11T17:27:46.000Z</Time>
            <Position>
              <LatitudeDegrees>43.28213321976363658905029296875</LatitudeDegrees>
              <LongitudeDegrees>-2.75964329950511455535888671875</LongitudeDegrees>
            </Position>
            <AltitudeMeters>278.600006103515625</AltitudeMeters>
            <DistanceMeters>NAN</DistanceMeters>
          </Trackpoint>
          <Trackpoint>
            <Time>2022-07-11T17:27:47.000Z</Time>
            <Position>
              <LatitudeDegrees>43.28212450258433818817138671875</LatitudeDegrees>
              <LongitudeDegrees>-2.75980331003665924072265625</LongitudeDegrees>
            </Position>
            <AltitudeMeters>278</AltitudeMeters>
            <DistanceMeters>NAN</DistanceMeters>
          </Trackpoint>
          <Trackpoint>
            <Time>2022-07-11T17:27:49.000Z</Time>
            <Position>
              <LatitudeDegrees>43.28211880289018154144287109375</LatitudeDegrees>
              <LongitudeDegrees>-2.7600748836994171142578125</LongitudeDegrees>
            </Position>
            <AltitudeMeters>276.79998779296875</AltitudeMeters>
            <DistanceMeters>NAN</DistanceMeters>
          </Trackpoint>
          <Trackpoint>
            <Time>2022-07-11T17:27:50.000Z</Time>
            <Position>
              <LatitudeDegrees>43.2821240834891796112060546875</LatitudeDegrees>
              <LongitudeDegrees>-2.76018284261226654052734375</LongitudeDegrees>
            </Position>
            <AltitudeMeters>276.20001220703125</AltitudeMeters>
            <DistanceMeters>NAN</DistanceMeters>
          </Trackpoint>
          <Trackpoint>
            <Time>2022-07-11T17:27:51.000Z</Time>
            <Position>
              <LatitudeDegrees>43.2821468822658061981201171875</LatitudeDegrees>
              <LongitudeDegrees>-2.76031167246401309967041015625</LongitudeDegrees>
            </Position>
            <AltitudeMeters>275.399993896484375</AltitudeMeters>
            <DistanceMeters>NAN</DistanceMeters>
          </Trackpoint>
          <Trackpoint>
            <Time>2022-07-11T17:27:52.000Z</Time>
            <Position>
              <LatitudeDegrees>43.28218971379101276397705078125</LatitudeDegrees>
              <LongitudeDegrees>-2.7604260854423046112060546875</LongitudeDegrees>
            </Position>
            <AltitudeMeters>275</AltitudeMeters>
            <DistanceMeters>NAN</DistanceMeters>
          </Trackpoint>
          <Trackpoint>
            <Time>2022-07-11T17:27:53.000Z</Time>
            <Position>
              <LatitudeDegrees>43.28225425444543361663818359375</LatitudeDegrees>
              <LongitudeDegrees>-2.760529182851314544677734375</LongitudeDegrees>
            </Position>
            <AltitudeMeters>274.399993896484375</AltitudeMeters>
            <DistanceMeters>NAN</DistanceMeters>
          </Trackpoint>
          <Trackpoint>
            <Time>2022-07-11T17:27:54.000Z</Time>
            <Position>
              <LatitudeDegrees>43.28232868574559688568115234375</LatitudeDegrees>
              <LongitudeDegrees>-2.76061534881591796875</LongitudeDegrees>
            </Position>
            <AltitudeMeters>273.399993896484375</AltitudeMeters>
            <DistanceMeters>NAN</DistanceMeters>
          </Trackpoint>
          <Trackpoint>
            <Time>2022-07-11T17:27:55.000Z</Time>
            <Position>
              <LatitudeDegrees>43.282400183379650115966796875</LatitudeDegrees>
              <LongitudeDegrees>-2.76070092804729938507080078125</LongitudeDegrees>
            </Position>
            <AltitudeMeters>272.399993896484375</AltitudeMeters>
            <DistanceMeters>NAN</DistanceMeters>
          </Trackpoint>
          <Trackpoint>
            <Time>2022-07-11T17:27:56.000Z</Time>
            <Position>
              <LatitudeDegrees>43.28245642594993114471435546875</LatitudeDegrees>
              <LongitudeDegrees>-2.7607982419431209564208984375</LongitudeDegrees>
            </Position>
            <AltitudeMeters>271.79998779296875</AltitudeMeters>
            <DistanceMeters>NAN</DistanceMeters>
          </Trackpoint>
          <Trackpoint>
            <Time>2022-07-11T17:27:57.000Z</Time>
            <Position>
              <LatitudeDegrees>43.282486014068126678466796875</LatitudeDegrees>
              <LongitudeDegrees>-2.76092472486197948455810546875</LongitudeDegrees>
            </Position>
            <AltitudeMeters>271</AltitudeMeters>
            <DistanceMeters>NAN</DistanceMeters>
          </Trackpoint>
          <Trackpoint>
            <Time>2022-07-11T17:27:58.000Z</Time>
            <Position>
              <LatitudeDegrees>43.282504118978977203369140625</LatitudeDegrees>
              <LongitudeDegrees>-2.76107660494744777679443359375</LongitudeDegrees>
            </Position>
            <AltitudeMeters>270.399993896484375</AltitudeMeters>
            <DistanceMeters>NAN</DistanceMeters>
          </Trackpoint>
          <Trackpoint>
            <Time>2022-07-11T17:27:59.000Z</Time>
            <Position>
              <LatitudeDegrees>43.28248928301036357879638671875</LatitudeDegrees>
              <LongitudeDegrees>-2.761203087866306304931640625</LongitudeDegrees>
            </Position>
            <AltitudeMeters>269.399993896484375</AltitudeMeters>
            <DistanceMeters>NAN</DistanceMeters>
          </Trackpoint>
          <Trackpoint>
            <Time>2022-07-11T17:28:00.000Z</Time>
            <Position>
              <LatitudeDegrees>43.28244351781904697418212890625</LatitudeDegrees>
              <LongitudeDegrees>-2.7613326720893383026123046875</LongitudeDegrees>
            </Position>
            <AltitudeMeters>268.600006103515625</AltitudeMeters>
            <DistanceMeters>NAN</DistanceMeters>
          </Trackpoint>
          <Trackpoint>
            <Time>2022-07-11T17:28:01.000Z</Time>
            <Position>
              <LatitudeDegrees>43.2823951542377471923828125</LatitudeDegrees>
              <LongitudeDegrees>-2.761433087289333343505859375</LongitudeDegrees>
            </Position>
            <AltitudeMeters>267.79998779296875</AltitudeMeters>
            <DistanceMeters>NAN</DistanceMeters>
          </Trackpoint>
          <Trackpoint>
            <Time>2022-07-11T17:28:03.000Z</Time>
            <Position>
              <LatitudeDegrees>43.28223698772490024566650390625</LatitudeDegrees>
              <LongitudeDegrees>-2.76168948970735073089599609375</LongitudeDegrees>
            </Position>
            <AltitudeMeters>266.20001220703125</AltitudeMeters>
            <DistanceMeters>NAN</DistanceMeters>
          </Trackpoint>
          <Trackpoint>
            <Time>2022-07-11T17:28:04.000Z</Time>
            <Position>
              <LatitudeDegrees>43.2821482233703136444091796875</LatitudeDegrees>
              <LongitudeDegrees>-2.7617997117340564727783203125</LongitudeDegrees>
            </Position>
            <AltitudeMeters>265.600006103515625</AltitudeMeters>
            <DistanceMeters>NAN</DistanceMeters>
          </Trackpoint>
          <Trackpoint>
            <Time>2022-07-11T17:28:05.000Z</Time>
            <Position>
              <LatitudeDegrees>43.28206817619502544403076171875</LatitudeDegrees>
              <LongitudeDegrees>-2.761913202702999114990234375</LongitudeDegrees>
            </Position>
            <AltitudeMeters>264.79998779296875</AltitudeMeters>
            <DistanceMeters>NAN</DistanceMeters>
          </Trackpoint>
          <Trackpoint>
            <Time>2022-07-11T17:28:07.000Z</Time>
            <Position>
              <LatitudeDegrees>43.2819440402090549468994140625</LatitudeDegrees>
              <LongitudeDegrees>-2.76212937198579311370849609375</LongitudeDegrees>
            </Position>
            <AltitudeMeters>263.399993896484375</AltitudeMeters>
            <DistanceMeters>NAN</DistanceMeters>
          </Trackpoint>
          <Trackpoint>
            <Time>2022-07-11T17:28:09.000Z</Time>
            <Position>
              <LatitudeDegrees>43.28179098665714263916015625</LatitudeDegrees>
              <LongitudeDegrees>-2.7623931504786014556884765625</LongitudeDegrees>
            </Position>
            <AltitudeMeters>262</AltitudeMeters>
            <DistanceMeters>NAN</DistanceMeters>
          </Trackpoint>
          <Trackpoint>
            <Time>2022-07-11T17:28:10.000Z</Time>
            <Position>
              <LatitudeDegrees>43.281721584498882293701171875</LatitudeDegrees>
              <LongitudeDegrees>-2.762511335313320159912109375</LongitudeDegrees>
            </Position>
            <AltitudeMeters>261</AltitudeMeters>
            <DistanceMeters>NAN</DistanceMeters>
          </Trackpoint>
          <Trackpoint>
            <Time>2022-07-11T17:28:11.000Z</Time>
            <Position>
              <LatitudeDegrees>43.28165276907384395599365234375</LatitudeDegrees>
              <LongitudeDegrees>-2.76263144798576831817626953125</LongitudeDegrees>
            </Position>
            <AltitudeMeters>260</AltitudeMeters>
            <DistanceMeters>NAN</DistanceMeters>
          </Trackpoint>
          <Trackpoint>
            <Time>2022-07-11T17:28:12.000Z</Time>
            <Position>
              <LatitudeDegrees>43.2815738953649997711181640625</LatitudeDegrees>
              <LongitudeDegrees>-2.762747704982757568359375</LongitudeDegrees>
            </Position>
            <AltitudeMeters>258.79998779296875</AltitudeMeters>
            <DistanceMeters>NAN</DistanceMeters>
          </Trackpoint>
          <Trackpoint>
            <Time>2022-07-11T17:28:14.000Z</Time>
            <Position>
              <LatitudeDegrees>43.28143953345715999603271484375</LatitudeDegrees>
              <LongitudeDegrees>-2.76296571828424930572509765625</LongitudeDegrees>
            </Position>
            <AltitudeMeters>257</AltitudeMeters>
            <DistanceMeters>NAN</DistanceMeters>
          </Trackpoint>
          <Trackpoint>
            <Time>2022-07-11T17:28:15.000Z</Time>
            <Position>
              <LatitudeDegrees>43.2813774235546588897705078125</LatitudeDegrees>
              <LongitudeDegrees>-2.76307518593966960906982421875</LongitudeDegrees>
            </Position>
            <AltitudeMeters>256.20001220703125</AltitudeMeters>
            <DistanceMeters>NAN</DistanceMeters>
          </Trackpoint>
          <Trackpoint>
            <Time>2022-07-11T17:28:16.000Z</Time>
            <Position>
              <LatitudeDegrees>43.2813107036054134368896484375</LatitudeDegrees>
              <LongitudeDegrees>-2.7631840668618679046630859375</LongitudeDegrees>
            </Position>
            <AltitudeMeters>255.399993896484375</AltitudeMeters>
            <DistanceMeters>NAN</DistanceMeters>
          </Trackpoint>
          <Trackpoint>
            <Time>2022-07-11T17:28:18.000Z</Time>
            <Position>
              <LatitudeDegrees>43.2812014035880565643310546875</LatitudeDegrees>
              <LongitudeDegrees>-2.76338749565184116363525390625</LongitudeDegrees>
            </Position>
            <AltitudeMeters>254</AltitudeMeters>
            <DistanceMeters>NAN</DistanceMeters>
          </Trackpoint>
          <Trackpoint>
            <Time>2022-07-11T17:28:20.000Z</Time>
            <Position>
              <LatitudeDegrees>43.2810696400701999664306640625</LatitudeDegrees>
              <LongitudeDegrees>-2.7636475861072540283203125</LongitudeDegrees>
            </Position>
            <AltitudeMeters>252.399993896484375</AltitudeMeters>
            <DistanceMeters>NAN</DistanceMeters>
          </Trackpoint>
          <Trackpoint>
            <Time>2022-07-11T17:28:22.000Z</Time>
            <Position>
              <LatitudeDegrees>43.2809683866798877716064453125</LatitudeDegrees>
              <LongitudeDegrees>-2.7638970315456390380859375</LongitudeDegrees>
            </Position>
            <AltitudeMeters>250.399993896484375</AltitudeMeters>
            <DistanceMeters>NAN</DistanceMeters>
          </Trackpoint>
          <Trackpoint>
            <Time>2022-07-11T17:28:23.000Z</Time>
            <Position>
              <LatitudeDegrees>43.28093863092362880706787109375</LatitudeDegrees>
              <LongitudeDegrees>-2.7640007995069026947021484375</LongitudeDegrees>
            </Position>
            <AltitudeMeters>249.1999969482421875</AltitudeMeters>
            <DistanceMeters>NAN</DistanceMeters>
          </Trackpoint>
          <Trackpoint>
            <Time>2022-07-11T17:28:24.000Z</Time>
            <Position>
              <LatitudeDegrees>43.2809194363653659820556640625</LatitudeDegrees>
              <LongitudeDegrees>-2.76414672844111919403076171875</LongitudeDegrees>
            </Position>
            <AltitudeMeters>248.399993896484375</AltitudeMeters>
            <DistanceMeters>NAN</DistanceMeters>
          </Trackpoint>
          <Trackpoint>
            <Time>2022-07-11T17:28:25.000Z</Time>
            <Position>
              <LatitudeDegrees>43.2809016667306423187255859375</LatitudeDegrees>
              <LongitudeDegrees>-2.76432593353092670440673828125</LongitudeDegrees>
            </Position>
            <AltitudeMeters>247.8000030517578125</AltitudeMeters>
            <DistanceMeters>NAN</DistanceMeters>
          </Trackpoint>
          <Trackpoint>
            <Time>2022-07-11T17:28:27.000Z</Time>
            <Position>
              <LatitudeDegrees>43.28089823015034198760986328125</LatitudeDegrees>
              <LongitudeDegrees>-2.7646270953118801116943359375</LongitudeDegrees>
            </Position>
            <AltitudeMeters>246.600006103515625</AltitudeMeters>
            <DistanceMeters>NAN</DistanceMeters>
          </Trackpoint>
          <Trackpoint>
            <Time>2022-07-11T17:28:28.000Z</Time>
            <Position>
              <LatitudeDegrees>43.28090745024383068084716796875</LatitudeDegrees>
              <LongitudeDegrees>-2.7647504769265651702880859375</LongitudeDegrees>
            </Position>
            <AltitudeMeters>245.600006103515625</AltitudeMeters>
            <DistanceMeters>NAN</DistanceMeters>
          </Trackpoint>
          <Trackpoint>
            <Time>2022-07-11T17:28:29.000Z</Time>
            <Position>
              <LatitudeDegrees>43.28092337585985660552978515625</LatitudeDegrees>
              <LongitudeDegrees>-2.7649040333926677703857421875</LongitudeDegrees>
            </Position>
            <AltitudeMeters>244.600006103515625</AltitudeMeters>
            <DistanceMeters>NAN</DistanceMeters>
          </Trackpoint>
          <Trackpoint>
            <Time>2022-07-11T17:28:31.000Z</Time>
            <Position>
              <LatitudeDegrees>43.28095304779708385467529296875</LatitudeDegrees>
              <LongitudeDegrees>-2.76522950269281864166259765625</LongitudeDegrees>
            </Position>
            <AltitudeMeters>243.1999969482421875</AltitudeMeters>
            <DistanceMeters>NAN</DistanceMeters>
          </Trackpoint>
          <Trackpoint>
            <Time>2022-07-11T17:28:32.000Z</Time>
            <Position>
              <LatitudeDegrees>43.28095656819641590118408203125</LatitudeDegrees>
              <LongitudeDegrees>-2.7653754316270351409912109375</LongitudeDegrees>
            </Position>
            <AltitudeMeters>242.1999969482421875</AltitudeMeters>
            <DistanceMeters>NAN</DistanceMeters>
          </Trackpoint>
          <Trackpoint>
            <Time>2022-07-11T17:28:33.000Z</Time>
            <Position>
              <LatitudeDegrees>43.28095137141644954681396484375</LatitudeDegrees>
              <LongitudeDegrees>-2.76548917405307292938232421875</LongitudeDegrees>
            </Position>
            <AltitudeMeters>241.399993896484375</AltitudeMeters>
            <DistanceMeters>NAN</DistanceMeters>
          </Trackpoint>
          <Trackpoint>
            <Time>2022-07-11T17:28:34.000Z</Time>
            <Position>
              <LatitudeDegrees>43.28093511052429676055908203125</LatitudeDegrees>
              <LongitudeDegrees>-2.76565446518361568450927734375</LongitudeDegrees>
            </Position>
            <AltitudeMeters>240.600006103515625</AltitudeMeters>
            <DistanceMeters>NAN</DistanceMeters>
          </Trackpoint>
          <Trackpoint>
            <Time>2022-07-11T17:28:35.000Z</Time>
            <Position>
              <LatitudeDegrees>43.2809092104434967041015625</LatitudeDegrees>
              <LongitudeDegrees>-2.7657868154346942901611328125</LongitudeDegrees>
            </Position>
            <AltitudeMeters>240</AltitudeMeters>
            <DistanceMeters>NAN</DistanceMeters>
          </Trackpoint>
          <Trackpoint>
            <Time>2022-07-11T17:28:36.000Z</Time>
            <Position>
              <LatitudeDegrees>43.28087442554533481597900390625</LatitudeDegrees>
              <LongitudeDegrees>-2.765913717448711395263671875</LongitudeDegrees>
            </Position>
            <AltitudeMeters>239</AltitudeMeters>
            <DistanceMeters>NAN</DistanceMeters>
          </Trackpoint>
          <Trackpoint>
            <Time>2022-07-11T17:28:37.000Z</Time>
            <Position>
              <LatitudeDegrees>43.28083209693431854248046875</LatitudeDegrees>
              <LongitudeDegrees>-2.76603667996823787689208984375</LongitudeDegrees>
            </Position>
            <AltitudeMeters>238.1999969482421875</AltitudeMeters>
            <DistanceMeters>NAN</DistanceMeters>
          </Trackpoint>
          <Trackpoint>
            <Time>2022-07-11T17:28:38.000Z</Time>
            <Position>
              <LatitudeDegrees>43.28079530037939548492431640625</LatitudeDegrees>
              <LongitudeDegrees>-2.76613332331180572509765625</LongitudeDegrees>
            </Position>
            <AltitudeMeters>237.1999969482421875</AltitudeMeters>
            <DistanceMeters>NAN</DistanceMeters>
          </Trackpoint>
          <Trackpoint>
            <Time>2022-07-11T17:28:39.000Z</Time>
            <Position>
              <LatitudeDegrees>43.2807464338839054107666015625</LatitudeDegrees>
              <LongitudeDegrees>-2.76625360362231731414794921875</LongitudeDegrees>
            </Position>
            <AltitudeMeters>236.8000030517578125</AltitudeMeters>
            <DistanceMeters>NAN</DistanceMeters>
          </Trackpoint>
          <Trackpoint>
            <Time>2022-07-11T17:28:41.000Z</Time>
            <Position>
              <LatitudeDegrees>43.2806314341723918914794921875</LatitudeDegrees>
              <LongitudeDegrees>-2.76651796884834766387939453125</LongitudeDegrees>
            </Position>
            <AltitudeMeters>235.399993896484375</AltitudeMeters>
            <DistanceMeters>NAN</DistanceMeters>
          </Trackpoint>
          <Trackpoint>
            <Time>2022-07-11T17:28:42.000Z</Time>
            <Position>
              <LatitudeDegrees>43.2805784605443477630615234375</LatitudeDegrees>
              <LongitudeDegrees>-2.7666417695581912994384765625</LongitudeDegrees>
            </Position>
            <AltitudeMeters>234.1999969482421875</AltitudeMeters>
            <DistanceMeters>NAN</DistanceMeters>
          </Trackpoint>
          <Trackpoint>
            <Time>2022-07-11T17:28:44.000Z</Time>
            <Position>
              <LatitudeDegrees>43.28048340976238250732421875</LatitudeDegrees>
              <LongitudeDegrees>-2.76686330325901508331298828125</LongitudeDegrees>
            </Position>
            <AltitudeMeters>232.399993896484375</AltitudeMeters>
            <DistanceMeters>NAN</DistanceMeters>
          </Trackpoint>
          <Trackpoint>
            <Time>2022-07-11T17:28:46.000Z</Time>
            <Position>
              <LatitudeDegrees>43.28037880361080169677734375</LatitudeDegrees>
              <LongitudeDegrees>-2.76711492799222469329833984375</LongitudeDegrees>
            </Position>
            <AltitudeMeters>230.600006103515625</AltitudeMeters>
            <DistanceMeters>NAN</DistanceMeters>
          </Trackpoint>
          <Trackpoint>
            <Time>2022-07-11T17:28:48.000Z</Time>
            <Position>
              <LatitudeDegrees>43.280274868011474609375</LatitudeDegrees>
              <LongitudeDegrees>-2.7673619426786899566650390625</LongitudeDegrees>
            </Position>
            <AltitudeMeters>229</AltitudeMeters>
            <DistanceMeters>NAN</DistanceMeters>
          </Trackpoint>
          <Trackpoint>
            <Time>2022-07-11T17:28:49.000Z</Time>
            <Position>
              <LatitudeDegrees>43.28022231347858905792236328125</LatitudeDegrees>
              <LongitudeDegrees>-2.76748071424663066864013671875</LongitudeDegrees>
            </Position>
            <AltitudeMeters>228.399993896484375</AltitudeMeters>
            <DistanceMeters>NAN</DistanceMeters>
          </Trackpoint>
          <Trackpoint>
            <Time>2022-07-11T17:28:50.000Z</Time>
            <Position>
              <LatitudeDegrees>43.28016950748860836029052734375</LatitudeDegrees>
              <LongitudeDegrees>-2.7675952948629856109619140625</LongitudeDegrees>
            </Position>
            <AltitudeMeters>227.600006103515625</AltitudeMeters>
            <DistanceMeters>NAN</DistanceMeters>
          </Trackpoint>
          <Trackpoint>
            <Time>2022-07-11T17:28:52.000Z</Time>
            <Position>
              <LatitudeDegrees>43.28006565570831298828125</LatitudeDegrees>
              <LongitudeDegrees>-2.76782655157148838043212890625</LongitudeDegrees>
            </Position>
            <AltitudeMeters>226.1999969482421875</AltitudeMeters>
            <DistanceMeters>NAN</DistanceMeters>
          </Trackpoint>
          <Trackpoint>
            <Time>2022-07-11T17:28:54.000Z</Time>
            <Position>
              <LatitudeDegrees>43.27996431849896907806396484375</LatitudeDegrees>
              <LongitudeDegrees>-2.768056131899356842041015625</LongitudeDegrees>
            </Position>
            <AltitudeMeters>225</AltitudeMeters>
            <DistanceMeters>NAN</DistanceMeters>
          </Trackpoint>
          <Trackpoint>
            <Time>2022-07-11T17:28:56.000Z</Time>
            <Position>
              <LatitudeDegrees>43.2798643223941326141357421875</LatitudeDegrees>
              <LongitudeDegrees>-2.76828655041754245758056640625</LongitudeDegrees>
            </Position>
            <AltitudeMeters>223.600006103515625</AltitudeMeters>
            <DistanceMeters>NAN</DistanceMeters>
          </Trackpoint>
          <Trackpoint>
            <Time>2022-07-11T17:28:58.000Z</Time>
            <Position>
              <LatitudeDegrees>43.27976147644221782684326171875</LatitudeDegrees>
              <LongitudeDegrees>-2.76851604692637920379638671875</LongitudeDegrees>
            </Position>
            <AltitudeMeters>221.600006103515625</AltitudeMeters>
            <DistanceMeters>NAN</DistanceMeters>
          </Trackpoint>
          <Trackpoint>
            <Time>2022-07-11T17:29:00.000Z</Time>
            <Position>
              <LatitudeDegrees>43.2796700298786163330078125</LatitudeDegrees>
              <LongitudeDegrees>-2.76873716153204441070556640625</LongitudeDegrees>
            </Position>
            <AltitudeMeters>219.600006103515625</AltitudeMeters>
            <DistanceMeters>NAN</DistanceMeters>
          </Trackpoint>
          <Trackpoint>
            <Time>2022-07-11T17:29:02.000Z</Time>
            <Position>
              <LatitudeDegrees>43.27959383837878704071044921875</LatitudeDegrees>
              <LongitudeDegrees>-2.7689367346465587615966796875</LongitudeDegrees>
            </Position>
            <AltitudeMeters>218.399993896484375</AltitudeMeters>
            <DistanceMeters>NAN</DistanceMeters>
          </Trackpoint>
          <Trackpoint>
            <Time>2022-07-11T17:29:03.000Z</Time>
            <Position>
              <LatitudeDegrees>43.27956743538379669189453125</LatitudeDegrees>
              <LongitudeDegrees>-2.76903891004621982574462890625</LongitudeDegrees>
            </Position>
            <AltitudeMeters>218</AltitudeMeters>
            <DistanceMeters>NAN</DistanceMeters>
          </Trackpoint>
          <Trackpoint>
            <Time>2022-07-11T17:29:05.000Z</Time>
            <Position>
              <LatitudeDegrees>43.2795283757150173187255859375</LatitudeDegrees>
              <LongitudeDegrees>-2.7692435123026371002197265625</LongitudeDegrees>
            </Position>
            <AltitudeMeters>217</AltitudeMeters>
            <DistanceMeters>NAN</DistanceMeters>
          </Trackpoint>
          <Trackpoint>
            <Time>2022-07-11T17:29:06.000Z</Time>
            <Position>
              <LatitudeDegrees>43.2795152999460697174072265625</LatitudeDegrees>
              <LongitudeDegrees>-2.7693440951406955718994140625</LongitudeDegrees>
            </Position>
            <AltitudeMeters>216.399993896484375</AltitudeMeters>
            <DistanceMeters>NAN</DistanceMeters>
          </Trackpoint>
          <Trackpoint>
            <Time>2022-07-11T17:29:07.000Z</Time>
            <Position>
              <LatitudeDegrees>43.2795059122145175933837890625</LatitudeDegrees>
              <LongitudeDegrees>-2.769442833960056304931640625</LongitudeDegrees>
            </Position>
            <AltitudeMeters>216</AltitudeMeters>
            <DistanceMeters>NAN</DistanceMeters>
          </Trackpoint>
          <Trackpoint>
            <Time>2022-07-11T17:29:09.000Z</Time>
            <Position>
              <LatitudeDegrees>43.27949727885425090789794921875</LatitudeDegrees>
              <LongitudeDegrees>-2.76963762938976287841796875</LongitudeDegrees>
            </Position>
            <AltitudeMeters>214.8000030517578125</AltitudeMeters>
            <DistanceMeters>NAN</DistanceMeters>
          </Trackpoint>
          <Trackpoint>
            <Time>2022-07-11T17:29:11.000Z</Time>
            <Position>
              <LatitudeDegrees>43.279502056539058685302734375</LatitudeDegrees>
              <LongitudeDegrees>-2.76983049698173999786376953125</LongitudeDegrees>
            </Position>
            <AltitudeMeters>213.399993896484375</AltitudeMeters>
            <DistanceMeters>NAN</DistanceMeters>
          </Trackpoint>
          <Trackpoint>
            <Time>2022-07-11T17:29:13.000Z</Time>
            <Position>
              <LatitudeDegrees>43.27951110899448394775390625</LatitudeDegrees>
              <LongitudeDegrees>-2.770027555525302886962890625</LongitudeDegrees>
            </Position>
            <AltitudeMeters>212.399993896484375</AltitudeMeters>
            <DistanceMeters>NAN</DistanceMeters>
          </Trackpoint>
          <Trackpoint>
            <Time>2022-07-11T17:29:16.000Z</Time>
            <Position>
              <LatitudeDegrees>43.27952175401151180267333984375</LatitudeDegrees>
              <LongitudeDegrees>-2.77031815610826015472412109375</LongitudeDegrees>
            </Position>
            <AltitudeMeters>211.1999969482421875</AltitudeMeters>
            <DistanceMeters>NAN</DistanceMeters>
          </Trackpoint>
          <Trackpoint>
            <Time>2022-07-11T17:29:18.000Z</Time>
            <Position>
              <LatitudeDegrees>43.27952745370566844940185546875</LatitudeDegrees>
              <LongitudeDegrees>-2.77051194570958614349365234375</LongitudeDegrees>
            </Position>
            <AltitudeMeters>210.1999969482421875</AltitudeMeters>
            <DistanceMeters>NAN</DistanceMeters>
          </Trackpoint>
          <Trackpoint>
            <Time>2022-07-11T17:29:21.000Z</Time>
            <Position>
              <LatitudeDegrees>43.27953013591468334197998046875</LatitudeDegrees>
              <LongitudeDegrees>-2.770779915153980255126953125</LongitudeDegrees>
            </Position>
            <AltitudeMeters>208.8000030517578125</AltitudeMeters>
            <DistanceMeters>NAN</DistanceMeters>
          </Trackpoint>
          <Trackpoint>
            <Time>2022-07-11T17:29:23.000Z</Time>
            <Position>
              <LatitudeDegrees>43.2795243524014949798583984375</LatitudeDegrees>
              <LongitudeDegrees>-2.7709470503032207489013671875</LongitudeDegrees>
            </Position>
            <AltitudeMeters>207.8000030517578125</AltitudeMeters>
            <DistanceMeters>NAN</DistanceMeters>
          </Trackpoint>
          <Trackpoint>
            <Time>2022-07-11T17:29:25.000Z</Time>
            <Position>
              <LatitudeDegrees>43.2795146293938159942626953125</LatitudeDegrees>
              <LongitudeDegrees>-2.77110882103443145751953125</LongitudeDegrees>
            </Position>
            <AltitudeMeters>206.600006103515625</AltitudeMeters>
            <DistanceMeters>NAN</DistanceMeters>
          </Trackpoint>
          <Trackpoint>
            <Time>2022-07-11T17:29:28.000Z</Time>
            <Position>
              <LatitudeDegrees>43.279487974941730499267578125</LatitudeDegrees>
              <LongitudeDegrees>-2.77135985903441905975341796875</LongitudeDegrees>
            </Position>
            <AltitudeMeters>205.399993896484375</AltitudeMeters>
            <DistanceMeters>NAN</DistanceMeters>
          </Trackpoint>
          <Trackpoint>
            <Time>2022-07-11T17:29:30.000Z</Time>
            <Position>
              <LatitudeDegrees>43.27947146259248256683349609375</LatitudeDegrees>
              <LongitudeDegrees>-2.771532945334911346435546875</LongitudeDegrees>
            </Position>
            <AltitudeMeters>204.399993896484375</AltitudeMeters>
            <DistanceMeters>NAN</DistanceMeters>
          </Trackpoint>
          <Trackpoint>
            <Time>2022-07-11T17:29:32.000Z</Time>
            <Position>
              <LatitudeDegrees>43.279450424015522003173828125</LatitudeDegrees>
              <LongitudeDegrees>-2.77170200832188129425048828125</LongitudeDegrees>
            </Position>
            <AltitudeMeters>203</AltitudeMeters>
            <DistanceMeters>NAN</DistanceMeters>
          </Trackpoint>
          <Trackpoint>
            <Time>2022-07-11T17:29:34.000Z</Time>
            <Position>
              <LatitudeDegrees>43.2794230990111827850341796875</LatitudeDegrees>
              <LongitudeDegrees>-2.77186780236661434173583984375</LongitudeDegrees>
            </Position>
            <AltitudeMeters>202</AltitudeMeters>
            <DistanceMeters>NAN</DistanceMeters>
          </Trackpoint>
          <Trackpoint>
            <Time>2022-07-11T17:29:36.000Z</Time>
            <Position>
              <LatitudeDegrees>43.279397450387477874755859375</LatitudeDegrees>
              <LongitudeDegrees>-2.77205237187445163726806640625</LongitudeDegrees>
            </Position>
            <AltitudeMeters>201.1999969482421875</AltitudeMeters>
            <DistanceMeters>NAN</DistanceMeters>
          </Trackpoint>
          <Trackpoint>
            <Time>2022-07-11T17:29:37.000Z</Time>
            <Position>
              <LatitudeDegrees>43.27938647009432315826416015625</LatitudeDegrees>
              <LongitudeDegrees>-2.77214943431317806243896484375</LongitudeDegrees>
            </Position>
            <AltitudeMeters>201</AltitudeMeters>
            <DistanceMeters>NAN</DistanceMeters>
          </Trackpoint>
          <Trackpoint>
            <Time>2022-07-11T17:29:39.000Z</Time>
            <Position>
              <LatitudeDegrees>43.27935646288096904754638671875</LatitudeDegrees>
              <LongitudeDegrees>-2.7723444811999797821044921875</LongitudeDegrees>
            </Position>
            <AltitudeMeters>199.8000030517578125</AltitudeMeters>
            <DistanceMeters>NAN</DistanceMeters>
          </Trackpoint>
          <Trackpoint>
            <Time>2022-07-11T17:29:41.000Z</Time>
            <Position>
              <LatitudeDegrees>43.279330395162105560302734375</LatitudeDegrees>
              <LongitudeDegrees>-2.77253801934421062469482421875</LongitudeDegrees>
            </Position>
            <AltitudeMeters>198.8000030517578125</AltitudeMeters>
            <DistanceMeters>NAN</DistanceMeters>
          </Trackpoint>
          <Trackpoint>
            <Time>2022-07-11T17:29:42.000Z</Time>
            <Position>
              <LatitudeDegrees>43.27931798994541168212890625</LatitudeDegrees>
              <LongitudeDegrees>-2.7726361714303493499755859375</LongitudeDegrees>
            </Position>
            <AltitudeMeters>198.1999969482421875</AltitudeMeters>
            <DistanceMeters>NAN</DistanceMeters>
          </Trackpoint>
          <Trackpoint>
            <Time>2022-07-11T17:29:45.000Z</Time>
            <Position>
              <LatitudeDegrees>43.2792772538959980010986328125</LatitudeDegrees>
              <LongitudeDegrees>-2.77291755191981792449951171875</LongitudeDegrees>
            </Position>
            <AltitudeMeters>197</AltitudeMeters>
            <DistanceMeters>NAN</DistanceMeters>
          </Trackpoint>
          <Trackpoint>
            <Time>2022-07-11T17:29:49.000Z</Time>
            <Position>
              <LatitudeDegrees>43.2792112044990062713623046875</LatitudeDegrees>
              <LongitudeDegrees>-2.77326799929141998291015625</LongitudeDegrees>
            </Position>
            <AltitudeMeters>195.8000030517578125</AltitudeMeters>
            <DistanceMeters>NAN</DistanceMeters>
          </Trackpoint>
          <Trackpoint>
            <Time>2022-07-11T17:29:54.000Z</Time>
            <Position>
              <LatitudeDegrees>43.27908472158014774322509765625</LatitudeDegrees>
              <LongitudeDegrees>-2.77362062595784664154052734375</LongitudeDegrees>
            </Position>
            <AltitudeMeters>195</AltitudeMeters>
            <DistanceMeters>NAN</DistanceMeters>
          </Trackpoint>
          <Trackpoint>
            <Time>2022-07-11T17:29:58.000Z</Time>
            <Position>
              <LatitudeDegrees>43.27897676266729831695556640625</LatitudeDegrees>
              <LongitudeDegrees>-2.77384928427636623382568359375</LongitudeDegrees>
            </Position>
            <AltitudeMeters>194.8000030517578125</AltitudeMeters>
            <DistanceMeters>NAN</DistanceMeters>
          </Trackpoint>
          <Trackpoint>
            <Time>2022-07-11T17:29:59.000Z</Time>
            <Position>
              <LatitudeDegrees>43.2789496891200542449951171875</LatitudeDegrees>
              <LongitudeDegrees>-2.77389639057219028472900390625</LongitudeDegrees>
            </Position>
            <AltitudeMeters>194.600006103515625</AltitudeMeters>
            <DistanceMeters>NAN</DistanceMeters>
          </Trackpoint>
          <Trackpoint>
            <Time>2022-07-11T17:30:01.000Z</Time>
            <Position>
              <LatitudeDegrees>43.2788890041410923004150390625</LatitudeDegrees>
              <LongitudeDegrees>-2.77398121543228626251220703125</LongitudeDegrees>
            </Position>
            <AltitudeMeters>194.399993896484375</AltitudeMeters>
            <DistanceMeters>NAN</DistanceMeters>
          </Trackpoint>
          <Trackpoint>
            <Time>2022-07-11T17:30:02.000Z</Time>
            <Position>
              <LatitudeDegrees>43.27885002829134464263916015625</LatitudeDegrees>
              <LongitudeDegrees>-2.77402614243328571319580078125</LongitudeDegrees>
            </Position>
            <AltitudeMeters>194.399993896484375</AltitudeMeters>
            <DistanceMeters>NAN</DistanceMeters>
          </Trackpoint>
          <Trackpoint>
            <Time>2022-07-11T17:30:04.000Z</Time>
            <Position>
              <LatitudeDegrees>43.2787897624075412750244140625</LatitudeDegrees>
              <LongitudeDegrees>-2.77408313937485218048095703125</LongitudeDegrees>
            </Position>
            <AltitudeMeters>194.1999969482421875</AltitudeMeters>
            <DistanceMeters>NAN</DistanceMeters>
          </Trackpoint>
          <Trackpoint>
            <Time>2022-07-11T17:30:06.000Z</Time>
            <Position>
              <LatitudeDegrees>43.27871407382190227508544921875</LatitudeDegrees>
              <LongitudeDegrees>-2.7741482667624950408935546875</LongitudeDegrees>
            </Position>
            <AltitudeMeters>194.1999969482421875</AltitudeMeters>
            <DistanceMeters>NAN</DistanceMeters>
          </Trackpoint>
          <Trackpoint>
            <Time>2022-07-11T17:30:07.000Z</Time>
            <Position>
              <LatitudeDegrees>43.27867828309535980224609375</LatitudeDegrees>
              <LongitudeDegrees>-2.774174921214580535888671875</LongitudeDegrees>
            </Position>
            <AltitudeMeters>194</AltitudeMeters>
            <DistanceMeters>NAN</DistanceMeters>
          </Trackpoint>
          <Trackpoint>
            <Time>2022-07-11T17:30:14.000Z</Time>
            <Position>
              <LatitudeDegrees>43.278475441038608551025390625</LatitudeDegrees>
              <LongitudeDegrees>-2.774303667247295379638671875</LongitudeDegrees>
            </Position>
            <AltitudeMeters>193.8000030517578125</AltitudeMeters>
            <DistanceMeters>NAN</DistanceMeters>
          </Trackpoint>
          <Trackpoint>
            <Time>2022-07-11T17:30:16.000Z</Time>
            <Position>
              <LatitudeDegrees>43.278411738574504852294921875</LatitudeDegrees>
              <LongitudeDegrees>-2.77434264309704303741455078125</LongitudeDegrees>
            </Position>
            <AltitudeMeters>193.600006103515625</AltitudeMeters>
            <DistanceMeters>NAN</DistanceMeters>
          </Trackpoint>
          <Trackpoint>
            <Time>2022-07-11T17:30:20.000Z</Time>
            <Position>
              <LatitudeDegrees>43.27831107191741466522216796875</LatitudeDegrees>
              <LongitudeDegrees>-2.77442134916782379150390625</LongitudeDegrees>
            </Position>
            <AltitudeMeters>193.399993896484375</AltitudeMeters>
            <DistanceMeters>NAN</DistanceMeters>
          </Trackpoint>
          <Trackpoint>
            <Time>2022-07-11T17:30:21.000Z</Time>
            <Position>
              <LatitudeDegrees>43.27829615212976932525634765625</LatitudeDegrees>
              <LongitudeDegrees>-2.7744241990149021148681640625</LongitudeDegrees>
            </Position>
            <AltitudeMeters>193.399993896484375</AltitudeMeters>
            <DistanceMeters>NAN</DistanceMeters>
          </Trackpoint>
          <Trackpoint>
            <Time>2022-07-11T17:30:24.000Z</Time>
            <Position>
              <LatitudeDegrees>43.2782395742833614349365234375</LatitudeDegrees>
              <LongitudeDegrees>-2.77439058758318424224853515625</LongitudeDegrees>
            </Position>
            <AltitudeMeters>193</AltitudeMeters>
            <DistanceMeters>NAN</DistanceMeters>
          </Trackpoint>
          <Trackpoint>
            <Time>2022-07-11T17:30:25.000Z</Time>
            <Position>
              <LatitudeDegrees>43.2782270014286041259765625</LatitudeDegrees>
              <LongitudeDegrees>-2.77438706718385219573974609375</LongitudeDegrees>
            </Position>
            <AltitudeMeters>193</AltitudeMeters>
            <DistanceMeters>NAN</DistanceMeters>
          </Trackpoint>
          <Trackpoint>
            <Time>2022-07-11T17:30:28.000Z</Time>
            <Position>
              <LatitudeDegrees>43.27818953432142734527587890625</LatitudeDegrees>
              <LongitudeDegrees>-2.7744349278509616851806640625</LongitudeDegrees>
            </Position>
            <AltitudeMeters>192.8000030517578125</AltitudeMeters>
            <DistanceMeters>NAN</DistanceMeters>
          </Trackpoint>
          <Trackpoint>
            <Time>2022-07-11T17:30:34.000Z</Time>
            <Position>
              <LatitudeDegrees>43.2780836708843708038330078125</LatitudeDegrees>
              <LongitudeDegrees>-2.7746089361608028411865234375</LongitudeDegrees>
            </Position>
            <AltitudeMeters>192.8000030517578125</AltitudeMeters>
            <DistanceMeters>NAN</DistanceMeters>
          </Trackpoint>
          <Trackpoint>
            <Time>2022-07-11T17:30:41.000Z</Time>
            <Position>
              <LatitudeDegrees>43.27790488488972187042236328125</LatitudeDegrees>
              <LongitudeDegrees>-2.7748419530689716339111328125</LongitudeDegrees>
            </Position>
            <AltitudeMeters>192.8000030517578125</AltitudeMeters>
            <DistanceMeters>NAN</DistanceMeters>
          </Trackpoint>
          <Trackpoint>
            <Time>2022-07-11T17:30:45.000Z</Time>
            <Position>
              <LatitudeDegrees>43.2777936570346355438232421875</LatitudeDegrees>
              <LongitudeDegrees>-2.77498486451804637908935546875</LongitudeDegrees>
            </Position>
            <AltitudeMeters>192.600006103515625</AltitudeMeters>
            <DistanceMeters>NAN</DistanceMeters>
          </Trackpoint>
          <Trackpoint>
            <Time>2022-07-11T17:30:48.000Z</Time>
            <Position>
              <LatitudeDegrees>43.27770623378455638885498046875</LatitudeDegrees>
              <LongitudeDegrees>-2.77508595027029514312744140625</LongitudeDegrees>
            </Position>
            <AltitudeMeters>192.600006103515625</AltitudeMeters>
            <DistanceMeters>NAN</DistanceMeters>
          </Trackpoint>
          <Trackpoint>
            <Time>2022-07-11T17:30:49.000Z</Time>
            <Position>
              <LatitudeDegrees>43.2776793278753757476806640625</LatitudeDegrees>
              <LongitudeDegrees>-2.775118052959442138671875</LongitudeDegrees>
            </Position>
            <AltitudeMeters>192.600006103515625</AltitudeMeters>
            <DistanceMeters>NAN</DistanceMeters>
          </Trackpoint>
          <Trackpoint>
            <Time>2022-07-11T17:30:50.000Z</Time>
            <Position>
              <LatitudeDegrees>43.27765242196619510650634765625</LatitudeDegrees>
              <LongitudeDegrees>-2.77515082620084285736083984375</LongitudeDegrees>
            </Position>
            <AltitudeMeters>192.600006103515625</AltitudeMeters>
            <DistanceMeters>NAN</DistanceMeters>
          </Trackpoint>
          <Trackpoint>
            <Time>2022-07-11T17:30:52.000Z</Time>
            <Position>
              <LatitudeDegrees>43.27759441919624805450439453125</LatitudeDegrees>
              <LongitudeDegrees>-2.77521436102688312530517578125</LongitudeDegrees>
            </Position>
            <AltitudeMeters>192.600006103515625</AltitudeMeters>
            <DistanceMeters>NAN</DistanceMeters>
          </Trackpoint>
          <Trackpoint>
            <Time>2022-07-11T17:30:56.000Z</Time>
            <Position>
              <LatitudeDegrees>43.27748293988406658172607421875</LatitudeDegrees>
              <LongitudeDegrees>-2.775307483971118927001953125</LongitudeDegrees>
            </Position>
            <AltitudeMeters>192.399993896484375</AltitudeMeters>
            <DistanceMeters>NAN</DistanceMeters>
          </Trackpoint>
          <Trackpoint>
            <Time>2022-07-11T17:30:57.000Z</Time>
            <Position>
              <LatitudeDegrees>43.27745460905134677886962890625</LatitudeDegrees>
              <LongitudeDegrees>-2.7753205597400665283203125</LongitudeDegrees>
            </Position>
            <AltitudeMeters>192.399993896484375</AltitudeMeters>
            <DistanceMeters>NAN</DistanceMeters>
          </Trackpoint>
          <Trackpoint>
            <Time>2022-07-11T17:31:02.000Z</Time>
            <Position>
              <LatitudeDegrees>43.2773229293525218963623046875</LatitudeDegrees>
              <LongitudeDegrees>-2.77536741457879543304443359375</LongitudeDegrees>
            </Position>
            <AltitudeMeters>192.399993896484375</AltitudeMeters>
            <DistanceMeters>NAN</DistanceMeters>
          </Trackpoint>
          <Trackpoint>
            <Time>2022-07-11T17:31:08.000Z</Time>
            <Position>
              <LatitudeDegrees>43.2771888189017772674560546875</LatitudeDegrees>
              <LongitudeDegrees>-2.77533522807061672210693359375</LongitudeDegrees>
            </Position>
            <AltitudeMeters>192.399993896484375</AltitudeMeters>
            <DistanceMeters>NAN</DistanceMeters>
          </Trackpoint>
          <Trackpoint>
            <Time>2022-07-11T17:31:09.000Z</Time>
            <Position>
              <LatitudeDegrees>43.2771809399127960205078125</LatitudeDegrees>
              <LongitudeDegrees>-2.77533941902220249176025390625</LongitudeDegrees>
            </Position>
            <AltitudeMeters>192.1999969482421875</AltitudeMeters>
            <DistanceMeters>NAN</DistanceMeters>
          </Trackpoint>
          <Trackpoint>
            <Time>2022-07-11T17:31:12.000Z</Time>
            <Position>
              <LatitudeDegrees>43.27717959880828857421875</LatitudeDegrees>
              <LongitudeDegrees>-2.77534243650734424591064453125</LongitudeDegrees>
            </Position>
            <AltitudeMeters>191.8000030517578125</AltitudeMeters>
            <DistanceMeters>NAN</DistanceMeters>
          </Trackpoint>
          <Trackpoint>
            <Time>2022-07-11T17:33:12.000Z</Time>
            <Position>
              <LatitudeDegrees>43.27711589634418487548828125</LatitudeDegrees>
              <LongitudeDegrees>-2.77531611733138561248779296875</LongitudeDegrees>
            </Position>
            <AltitudeMeters>191.8000030517578125</AltitudeMeters>
            <DistanceMeters>NAN</DistanceMeters>
          </Trackpoint>
          <Trackpoint>
            <Time>2022-07-11T17:33:13.000Z</Time>
            <Position>
              <LatitudeDegrees>43.277082033455371856689453125</LatitudeDegrees>
              <LongitudeDegrees>-2.77530387975275516510009765625</LongitudeDegrees>
            </Position>
            <AltitudeMeters>191.8000030517578125</AltitudeMeters>
            <DistanceMeters>NAN</DistanceMeters>
          </Trackpoint>
          <Trackpoint>
            <Time>2022-07-11T17:33:18.000Z</Time>
            <Position>
              <LatitudeDegrees>43.2768716476857662200927734375</LatitudeDegrees>
              <LongitudeDegrees>-2.7752315439283847808837890625</LongitudeDegrees>
            </Position>
            <AltitudeMeters>192</AltitudeMeters>
            <DistanceMeters>NAN</DistanceMeters>
          </Trackpoint>
          <Trackpoint>
            <Time>2022-07-11T17:33:25.000Z</Time>
            <Position>
              <LatitudeDegrees>43.27656813897192478179931640625</LatitudeDegrees>
              <LongitudeDegrees>-2.77518385089933872222900390625</LongitudeDegrees>
            </Position>
            <AltitudeMeters>191.8000030517578125</AltitudeMeters>
            <DistanceMeters>NAN</DistanceMeters>
          </Trackpoint>
          <Trackpoint>
            <Time>2022-07-11T17:33:32.000Z</Time>
            <Position>
              <LatitudeDegrees>43.2762560807168483734130859375</LatitudeDegrees>
              <LongitudeDegrees>-2.7751980163156986236572265625</LongitudeDegrees>
            </Position>
            <AltitudeMeters>192</AltitudeMeters>
            <DistanceMeters>NAN</DistanceMeters>
          </Trackpoint>
          <Trackpoint>
            <Time>2022-07-11T17:33:36.000Z</Time>
            <Position>
              <LatitudeDegrees>43.27609531581401824951171875</LatitudeDegrees>
              <LongitudeDegrees>-2.7752667479217052459716796875</LongitudeDegrees>
            </Position>
            <AltitudeMeters>192</AltitudeMeters>
            <DistanceMeters>NAN</DistanceMeters>
          </Trackpoint>
          <Trackpoint>
            <Time>2022-07-11T17:33:39.000Z</Time>
            <Position>
              <LatitudeDegrees>43.275979645550251007080078125</LatitudeDegrees>
              <LongitudeDegrees>-2.7753428556025028228759765625</LongitudeDegrees>
            </Position>
            <AltitudeMeters>192</AltitudeMeters>
            <DistanceMeters>NAN</DistanceMeters>
          </Trackpoint>
          <Trackpoint>
            <Time>2022-07-11T17:33:41.000Z</Time>
            <Position>
              <LatitudeDegrees>43.2759177871048450469970703125</LatitudeDegrees>
              <LongitudeDegrees>-2.775418125092983245849609375</LongitudeDegrees>
            </Position>
            <AltitudeMeters>192</AltitudeMeters>
            <DistanceMeters>NAN</DistanceMeters>
          </Trackpoint>
          <Trackpoint>
            <Time>2022-07-11T17:33:44.000Z</Time>
            <Position>
              <LatitudeDegrees>43.27584243379533290863037109375</LatitudeDegrees>
              <LongitudeDegrees>-2.775546200573444366455078125</LongitudeDegrees>
            </Position>
            <AltitudeMeters>192</AltitudeMeters>
            <DistanceMeters>NAN</DistanceMeters>
          </Trackpoint>
          <Trackpoint>
            <Time>2022-07-11T17:33:45.000Z</Time>
            <Position>
              <LatitudeDegrees>43.275818042457103729248046875</LatitudeDegrees>
              <LongitudeDegrees>-2.77559489943087100982666015625</LongitudeDegrees>
            </Position>
            <AltitudeMeters>192.1999969482421875</AltitudeMeters>
            <DistanceMeters>NAN</DistanceMeters>
          </Trackpoint>
          <Trackpoint>
            <Time>2022-07-11T17:33:46.000Z</Time>
            <Position>
              <LatitudeDegrees>43.27578962780535221099853515625</LatitudeDegrees>
              <LongitudeDegrees>-2.7756531536579132080078125</LongitudeDegrees>
            </Position>
            <AltitudeMeters>192.1999969482421875</AltitudeMeters>
            <DistanceMeters>NAN</DistanceMeters>
          </Trackpoint>
          <Trackpoint>
            <Time>2022-07-11T17:33:47.000Z</Time>
            <Position>
              <LatitudeDegrees>43.27577604912221431732177734375</LatitudeDegrees>
              <LongitudeDegrees>-2.77569330297410488128662109375</LongitudeDegrees>
            </Position>
            <AltitudeMeters>192.1999969482421875</AltitudeMeters>
            <DistanceMeters>NAN</DistanceMeters>
          </Trackpoint>
          <Trackpoint>
            <Time>2022-07-11T17:33:48.000Z</Time>
            <Position>
              <LatitudeDegrees>43.27575626783072948455810546875</LatitudeDegrees>
              <LongitudeDegrees>-2.77574342675507068634033203125</LongitudeDegrees>
            </Position>
            <AltitudeMeters>192.1999969482421875</AltitudeMeters>
            <DistanceMeters>NAN</DistanceMeters>
          </Trackpoint>
          <Trackpoint>
            <Time>2022-07-11T17:33:50.000Z</Time>
            <Position>
              <LatitudeDegrees>43.2757260091602802276611328125</LatitudeDegrees>
              <LongitudeDegrees>-2.7758494578301906585693359375</LongitudeDegrees>
            </Position>
            <AltitudeMeters>192.1999969482421875</AltitudeMeters>
            <DistanceMeters>NAN</DistanceMeters>
          </Trackpoint>
          <Trackpoint>
            <Time>2022-07-11T17:33:53.000Z</Time>
            <Position>
              <LatitudeDegrees>43.27569298446178436279296875</LatitudeDegrees>
              <LongitudeDegrees>-2.77602992020547389984130859375</LongitudeDegrees>
            </Position>
            <AltitudeMeters>192</AltitudeMeters>
            <DistanceMeters>NAN</DistanceMeters>
          </Trackpoint>
          <Trackpoint>
            <Time>2022-07-11T17:33:55.000Z</Time>
            <Position>
              <LatitudeDegrees>43.27565811574459075927734375</LatitudeDegrees>
              <LongitudeDegrees>-2.77617543004453182220458984375</LongitudeDegrees>
            </Position>
            <AltitudeMeters>191.600006103515625</AltitudeMeters>
            <DistanceMeters>NAN</DistanceMeters>
          </Trackpoint>
          <Trackpoint>
            <Time>2022-07-11T17:34:01.000Z</Time>
            <Position>
              <LatitudeDegrees>43.275553844869136810302734375</LatitudeDegrees>
              <LongitudeDegrees>-2.77664582245051860809326171875</LongitudeDegrees>
            </Position>
            <AltitudeMeters>190.600006103515625</AltitudeMeters>
            <DistanceMeters>NAN</DistanceMeters>
          </Trackpoint>
          <Trackpoint>
            <Time>2022-07-11T17:34:02.000Z</Time>
            <Position>
              <LatitudeDegrees>43.27553431503474712371826171875</LatitudeDegrees>
              <LongitudeDegrees>-2.77671304531395435333251953125</LongitudeDegrees>
            </Position>
            <AltitudeMeters>190.1999969482421875</AltitudeMeters>
            <DistanceMeters>NAN</DistanceMeters>
          </Trackpoint>
          <Trackpoint>
            <Time>2022-07-11T17:34:04.000Z</Time>
            <Position>
              <LatitudeDegrees>43.27548301778733730316162109375</LatitudeDegrees>
              <LongitudeDegrees>-2.77691370807588100433349609375</LongitudeDegrees>
            </Position>
            <AltitudeMeters>189.399993896484375</AltitudeMeters>
            <DistanceMeters>NAN</DistanceMeters>
          </Trackpoint>
          <Trackpoint>
            <Time>2022-07-11T17:34:08.000Z</Time>
            <Position>
              <LatitudeDegrees>43.2753934152424335479736328125</LatitudeDegrees>
              <LongitudeDegrees>-2.777279913425445556640625</LongitudeDegrees>
            </Position>
            <AltitudeMeters>188.1999969482421875</AltitudeMeters>
            <DistanceMeters>NAN</DistanceMeters>
          </Trackpoint>
          <Trackpoint>
            <Time>2022-07-11T17:34:09.000Z</Time>
            <Position>
              <LatitudeDegrees>43.27536977827548980712890625</LatitudeDegrees>
              <LongitudeDegrees>-2.77738041244447231292724609375</LongitudeDegrees>
            </Position>
            <AltitudeMeters>187.8000030517578125</AltitudeMeters>
            <DistanceMeters>NAN</DistanceMeters>
          </Trackpoint>
          <Trackpoint>
            <Time>2022-07-11T17:34:11.000Z</Time>
            <Position>
              <LatitudeDegrees>43.275317139923572540283203125</LatitudeDegrees>
              <LongitudeDegrees>-2.77760471217334270477294921875</LongitudeDegrees>
            </Position>
            <AltitudeMeters>186.600006103515625</AltitudeMeters>
            <DistanceMeters>NAN</DistanceMeters>
          </Trackpoint>
          <Trackpoint>
            <Time>2022-07-11T17:34:14.000Z</Time>
            <Position>
              <LatitudeDegrees>43.27525637112557888031005859375</LatitudeDegrees>
              <LongitudeDegrees>-2.7779047004878520965576171875</LongitudeDegrees>
            </Position>
            <AltitudeMeters>185.600006103515625</AltitudeMeters>
            <DistanceMeters>NAN</DistanceMeters>
          </Trackpoint>
          <Trackpoint>
            <Time>2022-07-11T17:34:16.000Z</Time>
            <Position>
              <LatitudeDegrees>43.27522368170320987701416015625</LatitudeDegrees>
              <LongitudeDegrees>-2.77814936824142932891845703125</LongitudeDegrees>
            </Position>
            <AltitudeMeters>185</AltitudeMeters>
            <DistanceMeters>NAN</DistanceMeters>
          </Trackpoint>
          <Trackpoint>
            <Time>2022-07-11T17:34:19.000Z</Time>
            <Position>
              <LatitudeDegrees>43.2752026431262493133544921875</LatitudeDegrees>
              <LongitudeDegrees>-2.77849302627146244049072265625</LongitudeDegrees>
            </Position>
            <AltitudeMeters>184.600006103515625</AltitudeMeters>
            <DistanceMeters>NAN</DistanceMeters>
          </Trackpoint>
          <Trackpoint>
            <Time>2022-07-11T17:34:20.000Z</Time>
            <Position>
              <LatitudeDegrees>43.27520809136331081390380859375</LatitudeDegrees>
              <LongitudeDegrees>-2.77858774177730083465576171875</LongitudeDegrees>
            </Position>
            <AltitudeMeters>182.600006103515625</AltitudeMeters>
            <DistanceMeters>NAN</DistanceMeters>
          </Trackpoint>
          <Trackpoint>
            <Time>2022-07-11T17:34:21.000Z</Time>
            <Position>
              <LatitudeDegrees>43.27522636391222476959228515625</LatitudeDegrees>
              <LongitudeDegrees>-2.778701819479465484619140625</LongitudeDegrees>
            </Position>
            <AltitudeMeters>180.600006103515625</AltitudeMeters>
            <DistanceMeters>NAN</DistanceMeters>
          </Trackpoint>
          <Trackpoint>
            <Time>2022-07-11T17:34:22.000Z</Time>
            <Position>
              <LatitudeDegrees>43.275261484086513519287109375</LatitudeDegrees>
              <LongitudeDegrees>-2.778802402317523956298828125</LongitudeDegrees>
            </Position>
            <AltitudeMeters>179.600006103515625</AltitudeMeters>
            <DistanceMeters>NAN</DistanceMeters>
          </Trackpoint>
          <Trackpoint>
            <Time>2022-07-11T17:34:23.000Z</Time>
            <Position>
              <LatitudeDegrees>43.275312446057796478271484375</LatitudeDegrees>
              <LongitudeDegrees>-2.77889099903404712677001953125</LongitudeDegrees>
            </Position>
            <AltitudeMeters>179.1999969482421875</AltitudeMeters>
            <DistanceMeters>NAN</DistanceMeters>
          </Trackpoint>
          <Trackpoint>
            <Time>2022-07-11T17:34:24.000Z</Time>
            <Position>
              <LatitudeDegrees>43.27537807635962963104248046875</LatitudeDegrees>
              <LongitudeDegrees>-2.7789665199816226959228515625</LongitudeDegrees>
            </Position>
            <AltitudeMeters>178.8000030517578125</AltitudeMeters>
            <DistanceMeters>NAN</DistanceMeters>
          </Trackpoint>
          <Trackpoint>
            <Time>2022-07-11T17:34:25.000Z</Time>
            <Position>
              <LatitudeDegrees>43.275457955896854400634765625</LatitudeDegrees>
              <LongitudeDegrees>-2.77902578003704547882080078125</LongitudeDegrees>
            </Position>
            <AltitudeMeters>178.1999969482421875</AltitudeMeters>
            <DistanceMeters>NAN</DistanceMeters>
          </Trackpoint>
          <Trackpoint>
            <Time>2022-07-11T17:34:27.000Z</Time>
            <Position>
              <LatitudeDegrees>43.2756317965686321258544921875</LatitudeDegrees>
              <LongitudeDegrees>-2.77910624630749225616455078125</LongitudeDegrees>
            </Position>
            <AltitudeMeters>177.399993896484375</AltitudeMeters>
            <DistanceMeters>NAN</DistanceMeters>
          </Trackpoint>
          <Trackpoint>
            <Time>2022-07-11T17:34:28.000Z</Time>
            <Position>
              <LatitudeDegrees>43.2757137715816497802734375</LatitudeDegrees>
              <LongitudeDegrees>-2.77914916165173053741455078125</LongitudeDegrees>
            </Position>
            <AltitudeMeters>176.8000030517578125</AltitudeMeters>
            <DistanceMeters>NAN</DistanceMeters>
          </Trackpoint>
          <Trackpoint>
            <Time>2022-07-11T17:34:29.000Z</Time>
            <Position>
              <LatitudeDegrees>43.275789208710193634033203125</LatitudeDegrees>
              <LongitudeDegrees>-2.77920314110815525054931640625</LongitudeDegrees>
            </Position>
            <AltitudeMeters>176.399993896484375</AltitudeMeters>
            <DistanceMeters>NAN</DistanceMeters>
          </Trackpoint>
          <Trackpoint>
            <Time>2022-07-11T17:34:31.000Z</Time>
            <Position>
              <LatitudeDegrees>43.2759171165525913238525390625</LatitudeDegrees>
              <LongitudeDegrees>-2.77934856712818145751953125</LongitudeDegrees>
            </Position>
            <AltitudeMeters>175.600006103515625</AltitudeMeters>
            <DistanceMeters>NAN</DistanceMeters>
          </Trackpoint>
          <Trackpoint>
            <Time>2022-07-11T17:34:33.000Z</Time>
            <Position>
              <LatitudeDegrees>43.27599280513823032379150390625</LatitudeDegrees>
              <LongitudeDegrees>-2.77956222184002399444580078125</LongitudeDegrees>
            </Position>
            <AltitudeMeters>174.600006103515625</AltitudeMeters>
            <DistanceMeters>NAN</DistanceMeters>
          </Trackpoint>
          <Trackpoint>
            <Time>2022-07-11T17:34:34.000Z</Time>
            <Position>
              <LatitudeDegrees>43.2759952358901500701904296875</LatitudeDegrees>
              <LongitudeDegrees>-2.77968660928308963775634765625</LongitudeDegrees>
            </Position>
            <AltitudeMeters>174.1999969482421875</AltitudeMeters>
            <DistanceMeters>NAN</DistanceMeters>
          </Trackpoint>
          <Trackpoint>
            <Time>2022-07-11T17:34:35.000Z</Time>
            <Position>
              <LatitudeDegrees>43.27598140574991703033447265625</LatitudeDegrees>
              <LongitudeDegrees>-2.77981124818325042724609375</LongitudeDegrees>
            </Position>
            <AltitudeMeters>173.8000030517578125</AltitudeMeters>
            <DistanceMeters>NAN</DistanceMeters>
          </Trackpoint>
          <Trackpoint>
            <Time>2022-07-11T17:34:36.000Z</Time>
            <Position>
              <LatitudeDegrees>43.27595676295459270477294921875</LatitudeDegrees>
              <LongitudeDegrees>-2.7799327857792377471923828125</LongitudeDegrees>
            </Position>
            <AltitudeMeters>173.399993896484375</AltitudeMeters>
            <DistanceMeters>NAN</DistanceMeters>
          </Trackpoint>
          <Trackpoint>
            <Time>2022-07-11T17:34:37.000Z</Time>
            <Position>
              <LatitudeDegrees>43.275927342474460601806640625</LatitudeDegrees>
              <LongitudeDegrees>-2.78005356900393962860107421875</LongitudeDegrees>
            </Position>
            <AltitudeMeters>173</AltitudeMeters>
            <DistanceMeters>NAN</DistanceMeters>
          </Trackpoint>
          <Trackpoint>
            <Time>2022-07-11T17:34:40.000Z</Time>
            <Position>
              <LatitudeDegrees>43.27580555342137813568115234375</LatitudeDegrees>
              <LongitudeDegrees>-2.7803981490433216094970703125</LongitudeDegrees>
            </Position>
            <AltitudeMeters>171.8000030517578125</AltitudeMeters>
            <DistanceMeters>NAN</DistanceMeters>
          </Trackpoint>
          <Trackpoint>
            <Time>2022-07-11T17:34:41.000Z</Time>
            <Position>
              <LatitudeDegrees>43.27576934359967708587646484375</LatitudeDegrees>
              <LongitudeDegrees>-2.7805104665458202362060546875</LongitudeDegrees>
            </Position>
            <AltitudeMeters>171.600006103515625</AltitudeMeters>
            <DistanceMeters>NAN</DistanceMeters>
          </Trackpoint>
          <Trackpoint>
            <Time>2022-07-11T17:34:43.000Z</Time>
            <Position>
              <LatitudeDegrees>43.2756867818534374237060546875</LatitudeDegrees>
              <LongitudeDegrees>-2.7807278931140899658203125</LongitudeDegrees>
            </Position>
            <AltitudeMeters>170.399993896484375</AltitudeMeters>
            <DistanceMeters>NAN</DistanceMeters>
          </Trackpoint>
          <Trackpoint>
            <Time>2022-07-11T17:34:45.000Z</Time>
            <Position>
              <LatitudeDegrees>43.27559030614793300628662109375</LatitudeDegrees>
              <LongitudeDegrees>-2.78096065856516361236572265625</LongitudeDegrees>
            </Position>
            <AltitudeMeters>169.1999969482421875</AltitudeMeters>
            <DistanceMeters>NAN</DistanceMeters>
          </Trackpoint>
          <Trackpoint>
            <Time>2022-07-11T17:34:48.000Z</Time>
            <Position>
              <LatitudeDegrees>43.2754557766020298004150390625</LatitudeDegrees>
              <LongitudeDegrees>-2.781276404857635498046875</LongitudeDegrees>
            </Position>
            <AltitudeMeters>168.1999969482421875</AltitudeMeters>
            <DistanceMeters>NAN</DistanceMeters>
          </Trackpoint>
          <Trackpoint>
            <Time>2022-07-11T17:34:49.000Z</Time>
            <Position>
              <LatitudeDegrees>43.2754048146307468414306640625</LatitudeDegrees>
              <LongitudeDegrees>-2.78137254528701305389404296875</LongitudeDegrees>
            </Position>
            <AltitudeMeters>167.600006103515625</AltitudeMeters>
            <DistanceMeters>NAN</DistanceMeters>
          </Trackpoint>
          <Trackpoint>
            <Time>2022-07-11T17:34:52.000Z</Time>
            <Position>
              <LatitudeDegrees>43.27524832449853420257568359375</LatitudeDegrees>
              <LongitudeDegrees>-2.7816567756235599517822265625</LongitudeDegrees>
            </Position>
            <AltitudeMeters>166.600006103515625</AltitudeMeters>
            <DistanceMeters>NAN</DistanceMeters>
          </Trackpoint>
          <Trackpoint>
            <Time>2022-07-11T17:34:54.000Z</Time>
            <Position>
              <LatitudeDegrees>43.2751285471022129058837890625</LatitudeDegrees>
              <LongitudeDegrees>-2.78183095157146453857421875</LongitudeDegrees>
            </Position>
            <AltitudeMeters>165.8000030517578125</AltitudeMeters>
            <DistanceMeters>NAN</DistanceMeters>
          </Trackpoint>
          <Trackpoint>
            <Time>2022-07-11T17:34:55.000Z</Time>
            <Position>
              <LatitudeDegrees>43.2750671915709972381591796875</LatitudeDegrees>
              <LongitudeDegrees>-2.78191787190735340118408203125</LongitudeDegrees>
            </Position>
            <AltitudeMeters>165.399993896484375</AltitudeMeters>
            <DistanceMeters>NAN</DistanceMeters>
          </Trackpoint>
          <Trackpoint>
            <Time>2022-07-11T17:34:57.000Z</Time>
            <Position>
              <LatitudeDegrees>43.27494557015597820281982421875</LatitudeDegrees>
              <LongitudeDegrees>-2.78209255076944828033447265625</LongitudeDegrees>
            </Position>
            <AltitudeMeters>164.1999969482421875</AltitudeMeters>
            <DistanceMeters>NAN</DistanceMeters>
          </Trackpoint>
          <Trackpoint>
            <Time>2022-07-11T17:34:58.000Z</Time>
            <Position>
              <LatitudeDegrees>43.27488102950155735015869140625</LatitudeDegrees>
              <LongitudeDegrees>-2.78217670507729053497314453125</LongitudeDegrees>
            </Position>
            <AltitudeMeters>163.8000030517578125</AltitudeMeters>
            <DistanceMeters>NAN</DistanceMeters>
          </Trackpoint>
          <Trackpoint>
            <Time>2022-07-11T17:35:00.000Z</Time>
            <Position>
              <LatitudeDegrees>43.2747345976531505584716796875</LatitudeDegrees>
              <LongitudeDegrees>-2.78232456184923648834228515625</LongitudeDegrees>
            </Position>
            <AltitudeMeters>162.8000030517578125</AltitudeMeters>
            <DistanceMeters>NAN</DistanceMeters>
          </Trackpoint>
          <Trackpoint>
            <Time>2022-07-11T17:35:01.000Z</Time>
            <Position>
              <LatitudeDegrees>43.27466108836233615875244140625</LatitudeDegrees>
              <LongitudeDegrees>-2.78239899314939975738525390625</LongitudeDegrees>
            </Position>
            <AltitudeMeters>162.399993896484375</AltitudeMeters>
            <DistanceMeters>NAN</DistanceMeters>
          </Trackpoint>
          <Trackpoint>
            <Time>2022-07-11T17:35:02.000Z</Time>
            <Position>
              <LatitudeDegrees>43.27458682470023632049560546875</LatitudeDegrees>
              <LongitudeDegrees>-2.78247141279280185699462890625</LongitudeDegrees>
            </Position>
            <AltitudeMeters>161.8000030517578125</AltitudeMeters>
            <DistanceMeters>NAN</DistanceMeters>
          </Trackpoint>
          <Trackpoint>
            <Time>2022-07-11T17:35:04.000Z</Time>
            <Position>
              <LatitudeDegrees>43.27443477697670459747314453125</LatitudeDegrees>
              <LongitudeDegrees>-2.78261440806090831756591796875</LongitudeDegrees>
            </Position>
            <AltitudeMeters>160.399993896484375</AltitudeMeters>
            <DistanceMeters>NAN</DistanceMeters>
          </Trackpoint>
          <Trackpoint>
            <Time>2022-07-11T17:35:05.000Z</Time>
            <Position>
              <LatitudeDegrees>43.27435464598238468170166015625</LatitudeDegrees>
              <LongitudeDegrees>-2.78268255293369293212890625</LongitudeDegrees>
            </Position>
            <AltitudeMeters>159.600006103515625</AltitudeMeters>
            <DistanceMeters>NAN</DistanceMeters>
          </Trackpoint>
          <Trackpoint>
            <Time>2022-07-11T17:35:06.000Z</Time>
            <Position>
              <LatitudeDegrees>43.2742734253406524658203125</LatitudeDegrees>
              <LongitudeDegrees>-2.7827487699687480926513671875</LongitudeDegrees>
            </Position>
            <AltitudeMeters>159</AltitudeMeters>
            <DistanceMeters>NAN</DistanceMeters>
          </Trackpoint>
          <Trackpoint>
            <Time>2022-07-11T17:35:07.000Z</Time>
            <Position>
              <LatitudeDegrees>43.2742065377533435821533203125</LatitudeDegrees>
              <LongitudeDegrees>-2.78279864229261875152587890625</LongitudeDegrees>
            </Position>
            <AltitudeMeters>158.1999969482421875</AltitudeMeters>
            <DistanceMeters>NAN</DistanceMeters>
          </Trackpoint>
          <Trackpoint>
            <Time>2022-07-11T17:35:08.000Z</Time>
            <Position>
              <LatitudeDegrees>43.274103105068206787109375</LatitudeDegrees>
              <LongitudeDegrees>-2.78286921791732311248779296875</LongitudeDegrees>
            </Position>
            <AltitudeMeters>157.1999969482421875</AltitudeMeters>
            <DistanceMeters>NAN</DistanceMeters>
          </Trackpoint>
          <Trackpoint>
            <Time>2022-07-11T17:35:10.000Z</Time>
            <Position>
              <LatitudeDegrees>43.2739235647022724151611328125</LatitudeDegrees>
              <LongitudeDegrees>-2.7829563058912754058837890625</LongitudeDegrees>
            </Position>
            <AltitudeMeters>156.1999969482421875</AltitudeMeters>
            <DistanceMeters>NAN</DistanceMeters>
          </Trackpoint>
          <Trackpoint>
            <Time>2022-07-11T17:35:11.000Z</Time>
            <Position>
              <LatitudeDegrees>43.2738290168344974517822265625</LatitudeDegrees>
              <LongitudeDegrees>-2.78300081379711627960205078125</LongitudeDegrees>
            </Position>
            <AltitudeMeters>155.399993896484375</AltitudeMeters>
            <DistanceMeters>NAN</DistanceMeters>
          </Trackpoint>
          <Trackpoint>
            <Time>2022-07-11T17:35:13.000Z</Time>
            <Position>
              <LatitudeDegrees>43.2736439444124698638916015625</LatitudeDegrees>
              <LongitudeDegrees>-2.78308781795203685760498046875</LongitudeDegrees>
            </Position>
            <AltitudeMeters>154</AltitudeMeters>
            <DistanceMeters>NAN</DistanceMeters>
          </Trackpoint>
          <Trackpoint>
            <Time>2022-07-11T17:35:15.000Z</Time>
            <Position>
              <LatitudeDegrees>43.27346029691398143768310546875</LatitudeDegrees>
              <LongitudeDegrees>-2.78318203054368495941162109375</LongitudeDegrees>
            </Position>
            <AltitudeMeters>152.399993896484375</AltitudeMeters>
            <DistanceMeters>NAN</DistanceMeters>
          </Trackpoint>
          <Trackpoint>
            <Time>2022-07-11T17:35:18.000Z</Time>
            <Position>
              <LatitudeDegrees>43.27319459058344364166259765625</LatitudeDegrees>
              <LongitudeDegrees>-2.78331287205219268798828125</LongitudeDegrees>
            </Position>
            <AltitudeMeters>151.1999969482421875</AltitudeMeters>
            <DistanceMeters>NAN</DistanceMeters>
          </Trackpoint>
          <Trackpoint>
            <Time>2022-07-11T17:35:20.000Z</Time>
            <Position>
              <LatitudeDegrees>43.27301924116909503936767578125</LatitudeDegrees>
              <LongitudeDegrees>-2.78340683318674564361572265625</LongitudeDegrees>
            </Position>
            <AltitudeMeters>150</AltitudeMeters>
            <DistanceMeters>NAN</DistanceMeters>
          </Trackpoint>
          <Trackpoint>
            <Time>2022-07-11T17:35:22.000Z</Time>
            <Position>
              <LatitudeDegrees>43.27284472994506359100341796875</LatitudeDegrees>
              <LongitudeDegrees>-2.7835078351199626922607421875</LongitudeDegrees>
            </Position>
            <AltitudeMeters>149.1999969482421875</AltitudeMeters>
            <DistanceMeters>NAN</DistanceMeters>
          </Trackpoint>
          <Trackpoint>
            <Time>2022-07-11T17:35:23.000Z</Time>
            <Position>
              <LatitudeDegrees>43.27275864779949188232421875</LatitudeDegrees>
              <LongitudeDegrees>-2.7835577912628650665283203125</LongitudeDegrees>
            </Position>
            <AltitudeMeters>149</AltitudeMeters>
            <DistanceMeters>NAN</DistanceMeters>
          </Trackpoint>
          <Trackpoint>
            <Time>2022-07-11T17:35:26.000Z</Time>
            <Position>
              <LatitudeDegrees>43.27248246408998966217041015625</LatitudeDegrees>
              <LongitudeDegrees>-2.78368838131427764892578125</LongitudeDegrees>
            </Position>
            <AltitudeMeters>147.1999969482421875</AltitudeMeters>
            <DistanceMeters>NAN</DistanceMeters>
          </Trackpoint>
          <Trackpoint>
            <Time>2022-07-11T17:35:28.000Z</Time>
            <Position>
              <LatitudeDegrees>43.272309713065624237060546875</LatitudeDegrees>
              <LongitudeDegrees>-2.7837800793349742889404296875</LongitudeDegrees>
            </Position>
            <AltitudeMeters>145.8000030517578125</AltitudeMeters>
            <DistanceMeters>NAN</DistanceMeters>
          </Trackpoint>
          <Trackpoint>
            <Time>2022-07-11T17:35:30.000Z</Time>
            <Position>
              <LatitudeDegrees>43.27214668504893779754638671875</LatitudeDegrees>
              <LongitudeDegrees>-2.78387890197336673736572265625</LongitudeDegrees>
            </Position>
            <AltitudeMeters>144.8000030517578125</AltitudeMeters>
            <DistanceMeters>NAN</DistanceMeters>
          </Trackpoint>
          <Trackpoint>
            <Time>2022-07-11T17:35:32.000Z</Time>
            <Position>
              <LatitudeDegrees>43.27199363149702548980712890625</LatitudeDegrees>
              <LongitudeDegrees>-2.78396925888955593109130859375</LongitudeDegrees>
            </Position>
            <AltitudeMeters>143</AltitudeMeters>
            <DistanceMeters>NAN</DistanceMeters>
          </Trackpoint>
          <Trackpoint>
            <Time>2022-07-11T17:35:34.000Z</Time>
            <Position>
              <LatitudeDegrees>43.271848373115062713623046875</LatitudeDegrees>
              <LongitudeDegrees>-2.78404603712260723114013671875</LongitudeDegrees>
            </Position>
            <AltitudeMeters>142</AltitudeMeters>
            <DistanceMeters>NAN</DistanceMeters>
          </Trackpoint>
          <Trackpoint>
            <Time>2022-07-11T17:35:36.000Z</Time>
            <Position>
              <LatitudeDegrees>43.27172733843326568603515625</LatitudeDegrees>
              <LongitudeDegrees>-2.7840851806104183197021484375</LongitudeDegrees>
            </Position>
            <AltitudeMeters>140.600006103515625</AltitudeMeters>
            <DistanceMeters>NAN</DistanceMeters>
          </Trackpoint>
          <Trackpoint>
            <Time>2022-07-11T17:35:37.000Z</Time>
            <Position>
              <LatitudeDegrees>43.271667324006557464599609375</LatitudeDegrees>
              <LongitudeDegrees>-2.78409817256033420562744140625</LongitudeDegrees>
            </Position>
            <AltitudeMeters>140</AltitudeMeters>
            <DistanceMeters>NAN</DistanceMeters>
          </Trackpoint>
          <Trackpoint>
            <Time>2022-07-11T17:35:38.000Z</Time>
            <Position>
              <LatitudeDegrees>43.271616362035274505615234375</LatitudeDegrees>
              <LongitudeDegrees>-2.78410873375833034515380859375</LongitudeDegrees>
            </Position>
            <AltitudeMeters>139.399993896484375</AltitudeMeters>
            <DistanceMeters>NAN</DistanceMeters>
          </Trackpoint>
          <Trackpoint>
            <Time>2022-07-11T17:35:39.000Z</Time>
            <Position>
              <LatitudeDegrees>43.27157713472843170166015625</LatitudeDegrees>
              <LongitudeDegrees>-2.7841217257082462310791015625</LongitudeDegrees>
            </Position>
            <AltitudeMeters>138.8000030517578125</AltitudeMeters>
            <DistanceMeters>NAN</DistanceMeters>
          </Trackpoint>
          <Trackpoint>
            <Time>2022-07-11T17:35:41.000Z</Time>
            <Position>
              <LatitudeDegrees>43.27152474783360958099365234375</LatitudeDegrees>
              <LongitudeDegrees>-2.7841529063880443572998046875</LongitudeDegrees>
            </Position>
            <AltitudeMeters>138</AltitudeMeters>
            <DistanceMeters>NAN</DistanceMeters>
          </Trackpoint>
          <Trackpoint>
            <Time>2022-07-11T17:35:45.000Z</Time>
            <Position>
              <LatitudeDegrees>43.271508403122425079345703125</LatitudeDegrees>
              <LongitudeDegrees>-2.78416790999472141265869140625</LongitudeDegrees>
            </Position>
            <AltitudeMeters>137.399993896484375</AltitudeMeters>
            <DistanceMeters>NAN</DistanceMeters>
          </Trackpoint>
          <Trackpoint>
            <Time>2022-07-11T17:47:35.000Z</Time>
            <Position>
              <LatitudeDegrees>43.27155509032309055328369140625</LatitudeDegrees>
              <LongitudeDegrees>-2.78420043177902698516845703125</LongitudeDegrees>
            </Position>
            <AltitudeMeters>137</AltitudeMeters>
            <DistanceMeters>NAN</DistanceMeters>
          </Trackpoint>
          <Trackpoint>
            <Time>2022-07-11T17:47:37.000Z</Time>
            <Position>
              <LatitudeDegrees>43.27151670120656490325927734375</LatitudeDegrees>
              <LongitudeDegrees>-2.784165479242801666259765625</LongitudeDegrees>
            </Position>
            <AltitudeMeters>137</AltitudeMeters>
            <DistanceMeters>NAN</DistanceMeters>
          </Trackpoint>
          <Trackpoint>
            <Time>2022-07-11T17:47:38.000Z</Time>
            <Position>
              <LatitudeDegrees>43.27149490825831890106201171875</LatitudeDegrees>
              <LongitudeDegrees>-2.784137316048145294189453125</LongitudeDegrees>
            </Position>
            <AltitudeMeters>135.399993896484375</AltitudeMeters>
            <DistanceMeters>NAN</DistanceMeters>
          </Trackpoint>
          <Trackpoint>
            <Time>2022-07-11T17:47:40.000Z</Time>
            <Position>
              <LatitudeDegrees>43.271434307098388671875</LatitudeDegrees>
              <LongitudeDegrees>-2.78406363911926746368408203125</LongitudeDegrees>
            </Position>
            <AltitudeMeters>134.1999969482421875</AltitudeMeters>
            <DistanceMeters>NAN</DistanceMeters>
          </Trackpoint>
          <Trackpoint>
            <Time>2022-07-11T17:47:42.000Z</Time>
            <Position>
              <LatitudeDegrees>43.27135912142693996429443359375</LatitudeDegrees>
              <LongitudeDegrees>-2.78398736380040645599365234375</LongitudeDegrees>
            </Position>
            <AltitudeMeters>133.399993896484375</AltitudeMeters>
            <DistanceMeters>NAN</DistanceMeters>
          </Trackpoint>
          <Trackpoint>
            <Time>2022-07-11T17:47:44.000Z</Time>
            <Position>
              <LatitudeDegrees>43.2712537609040737152099609375</LatitudeDegrees>
              <LongitudeDegrees>-2.78388552367687225341796875</LongitudeDegrees>
            </Position>
            <AltitudeMeters>132.8000030517578125</AltitudeMeters>
            <DistanceMeters>NAN</DistanceMeters>
          </Trackpoint>
          <Trackpoint>
            <Time>2022-07-11T17:47:47.000Z</Time>
            <Position>
              <LatitudeDegrees>43.27110481448471546173095703125</LatitudeDegrees>
              <LongitudeDegrees>-2.783725596964359283447265625</LongitudeDegrees>
            </Position>
            <AltitudeMeters>132.1999969482421875</AltitudeMeters>
            <DistanceMeters>NAN</DistanceMeters>
          </Trackpoint>
          <Trackpoint>
            <Time>2022-07-11T17:47:49.000Z</Time>
            <Position>
              <LatitudeDegrees>43.27097640372812747955322265625</LatitudeDegrees>
              <LongitudeDegrees>-2.7835775725543498992919921875</LongitudeDegrees>
            </Position>
            <AltitudeMeters>131.600006103515625</AltitudeMeters>
            <DistanceMeters>NAN</DistanceMeters>
          </Trackpoint>
          <Trackpoint>
            <Time>2022-07-11T17:47:53.000Z</Time>
            <Position>
              <LatitudeDegrees>43.27072042040526866912841796875</LatitudeDegrees>
              <LongitudeDegrees>-2.783301137387752532958984375</LongitudeDegrees>
            </Position>
            <AltitudeMeters>130.399993896484375</AltitudeMeters>
            <DistanceMeters>NAN</DistanceMeters>
          </Trackpoint>
          <Trackpoint>
            <Time>2022-07-11T17:47:55.000Z</Time>
            <Position>
              <LatitudeDegrees>43.27058245427906513214111328125</LatitudeDegrees>
              <LongitudeDegrees>-2.78319426812231540679931640625</LongitudeDegrees>
            </Position>
            <AltitudeMeters>129</AltitudeMeters>
            <DistanceMeters>NAN</DistanceMeters>
          </Trackpoint>
          <Trackpoint>
            <Time>2022-07-11T17:47:56.000Z</Time>
            <Position>
              <LatitudeDegrees>43.27049427665770053863525390625</LatitudeDegrees>
              <LongitudeDegrees>-2.783147580921649932861328125</LongitudeDegrees>
            </Position>
            <AltitudeMeters>128.399993896484375</AltitudeMeters>
            <DistanceMeters>NAN</DistanceMeters>
          </Trackpoint>
          <Trackpoint>
            <Time>2022-07-11T17:47:57.000Z</Time>
            <Position>
              <LatitudeDegrees>43.27038497664034366607666015625</LatitudeDegrees>
              <LongitudeDegrees>-2.78310860507190227508544921875</LongitudeDegrees>
            </Position>
            <AltitudeMeters>128.1999969482421875</AltitudeMeters>
            <DistanceMeters>NAN</DistanceMeters>
          </Trackpoint>
          <Trackpoint>
            <Time>2022-07-11T17:47:58.000Z</Time>
            <Position>
              <LatitudeDegrees>43.2702844776213169097900390625</LatitudeDegrees>
              <LongitudeDegrees>-2.7830827049911022186279296875</LongitudeDegrees>
            </Position>
            <AltitudeMeters>127.8000030517578125</AltitudeMeters>
            <DistanceMeters>NAN</DistanceMeters>
          </Trackpoint>
          <Trackpoint>
            <Time>2022-07-11T17:48:01.000Z</Time>
            <Position>
              <LatitudeDegrees>43.27001885510981082916259765625</LatitudeDegrees>
              <LongitudeDegrees>-2.78303869999945163726806640625</LongitudeDegrees>
            </Position>
            <AltitudeMeters>126.8000030517578125</AltitudeMeters>
            <DistanceMeters>NAN</DistanceMeters>
          </Trackpoint>
          <Trackpoint>
            <Time>2022-07-11T17:48:02.000Z</Time>
            <Position>
              <LatitudeDegrees>43.269907124340534210205078125</LatitudeDegrees>
              <LongitudeDegrees>-2.78301556594669818878173828125</LongitudeDegrees>
            </Position>
            <AltitudeMeters>126.59999847412109375</AltitudeMeters>
            <DistanceMeters>NAN</DistanceMeters>
          </Trackpoint>
          <Trackpoint>
            <Time>2022-07-11T17:48:05.000Z</Time>
            <Position>
              <LatitudeDegrees>43.26962490566074848175048828125</LatitudeDegrees>
              <LongitudeDegrees>-2.78297265060245990753173828125</LongitudeDegrees>
            </Position>
            <AltitudeMeters>125.1999969482421875</AltitudeMeters>
            <DistanceMeters>NAN</DistanceMeters>
          </Trackpoint>
          <Trackpoint>
            <Time>2022-07-11T17:48:07.000Z</Time>
            <Position>
              <LatitudeDegrees>43.26940915547311305999755859375</LatitudeDegrees>
              <LongitudeDegrees>-2.78293727897107601165771484375</LongitudeDegrees>
            </Position>
            <AltitudeMeters>123.8000030517578125</AltitudeMeters>
            <DistanceMeters>NAN</DistanceMeters>
          </Trackpoint>
          <Trackpoint>
            <Time>2022-07-11T17:48:09.000Z</Time>
            <Position>
              <LatitudeDegrees>43.26922944746911525726318359375</LatitudeDegrees>
              <LongitudeDegrees>-2.78290509246289730072021484375</LongitudeDegrees>
            </Position>
            <AltitudeMeters>122.40000152587890625</AltitudeMeters>
            <DistanceMeters>NAN</DistanceMeters>
          </Trackpoint>
          <Trackpoint>
            <Time>2022-07-11T17:48:10.000Z</Time>
            <Position>
              <LatitudeDegrees>43.26916180551052093505859375</LatitudeDegrees>
              <LongitudeDegrees>-2.7828979678452014923095703125</LongitudeDegrees>
            </Position>
            <AltitudeMeters>121.59999847412109375</AltitudeMeters>
            <DistanceMeters>NAN</DistanceMeters>
          </Trackpoint>
          <Trackpoint>
            <Time>2022-07-11T17:48:11.000Z</Time>
            <Position>
              <LatitudeDegrees>43.2690791599452495574951171875</LatitudeDegrees>
              <LongitudeDegrees>-2.7828993089497089385986328125</LongitudeDegrees>
            </Position>
            <AltitudeMeters>120.8000030517578125</AltitudeMeters>
            <DistanceMeters>NAN</DistanceMeters>
          </Trackpoint>
          <Trackpoint>
            <Time>2022-07-11T17:48:13.000Z</Time>
            <Position>
              <LatitudeDegrees>43.268897272646427154541015625</LatitudeDegrees>
              <LongitudeDegrees>-2.78295571915805339813232421875</LongitudeDegrees>
            </Position>
            <AltitudeMeters>119.40000152587890625</AltitudeMeters>
            <DistanceMeters>NAN</DistanceMeters>
          </Trackpoint>
          <Trackpoint>
            <Time>2022-07-11T17:48:16.000Z</Time>
            <Position>
              <LatitudeDegrees>43.26867758296430110931396484375</LatitudeDegrees>
              <LongitudeDegrees>-2.78311229310929775238037109375</LongitudeDegrees>
            </Position>
            <AltitudeMeters>118.40000152587890625</AltitudeMeters>
            <DistanceMeters>NAN</DistanceMeters>
          </Trackpoint>
          <Trackpoint>
            <Time>2022-07-11T17:48:17.000Z</Time>
            <Position>
              <LatitudeDegrees>43.26860063709318637847900390625</LatitudeDegrees>
              <LongitudeDegrees>-2.783178426325321197509765625</LongitudeDegrees>
            </Position>
            <AltitudeMeters>118</AltitudeMeters>
            <DistanceMeters>NAN</DistanceMeters>
          </Trackpoint>
          <Trackpoint>
            <Time>2022-07-11T17:48:19.000Z</Time>
            <Position>
              <LatitudeDegrees>43.26842956244945526123046875</LatitudeDegrees>
              <LongitudeDegrees>-2.7833242714405059814453125</LongitudeDegrees>
            </Position>
            <AltitudeMeters>117.1999969482421875</AltitudeMeters>
            <DistanceMeters>NAN</DistanceMeters>
          </Trackpoint>
          <Trackpoint>
            <Time>2022-07-11T17:48:22.000Z</Time>
            <Position>
              <LatitudeDegrees>43.268177099525928497314453125</LatitudeDegrees>
              <LongitudeDegrees>-2.7834771573543548583984375</LongitudeDegrees>
            </Position>
            <AltitudeMeters>115.8000030517578125</AltitudeMeters>
            <DistanceMeters>NAN</DistanceMeters>
          </Trackpoint>
          <Trackpoint>
            <Time>2022-07-11T17:48:23.000Z</Time>
            <Position>
              <LatitudeDegrees>43.26808732934296131134033203125</LatitudeDegrees>
              <LongitudeDegrees>-2.78351160697638988494873046875</LongitudeDegrees>
            </Position>
            <AltitudeMeters>115.1999969482421875</AltitudeMeters>
            <DistanceMeters>NAN</DistanceMeters>
          </Trackpoint>
          <Trackpoint>
            <Time>2022-07-11T17:48:24.000Z</Time>
            <Position>
              <LatitudeDegrees>43.2680156640708446502685546875</LatitudeDegrees>
              <LongitudeDegrees>-2.783537842333316802978515625</LongitudeDegrees>
            </Position>
            <AltitudeMeters>114.40000152587890625</AltitudeMeters>
            <DistanceMeters>NAN</DistanceMeters>
          </Trackpoint>
          <Trackpoint>
            <Time>2022-07-11T17:48:27.000Z</Time>
            <Position>
              <LatitudeDegrees>43.26774300076067447662353515625</LatitudeDegrees>
              <LongitudeDegrees>-2.7836805023252964019775390625</LongitudeDegrees>
            </Position>
            <AltitudeMeters>113.1999969482421875</AltitudeMeters>
            <DistanceMeters>NAN</DistanceMeters>
          </Trackpoint>
          <Trackpoint>
            <Time>2022-07-11T17:48:28.000Z</Time>
            <Position>
              <LatitudeDegrees>43.267670832574367523193359375</LatitudeDegrees>
              <LongitudeDegrees>-2.7837539277970790863037109375</LongitudeDegrees>
            </Position>
            <AltitudeMeters>113</AltitudeMeters>
            <DistanceMeters>NAN</DistanceMeters>
          </Trackpoint>
          <Trackpoint>
            <Time>2022-07-11T17:48:29.000Z</Time>
            <Position>
              <LatitudeDegrees>43.26761861331760883331298828125</LatitudeDegrees>
              <LongitudeDegrees>-2.78382324613630771636962890625</LongitudeDegrees>
            </Position>
            <AltitudeMeters>112.59999847412109375</AltitudeMeters>
            <DistanceMeters>NAN</DistanceMeters>
          </Trackpoint>
          <Trackpoint>
            <Time>2022-07-11T17:48:30.000Z</Time>
            <Position>
              <LatitudeDegrees>43.2675620354712009429931640625</LatitudeDegrees>
              <LongitudeDegrees>-2.7839192189276218414306640625</LongitudeDegrees>
            </Position>
            <AltitudeMeters>112.1999969482421875</AltitudeMeters>
            <DistanceMeters>NAN</DistanceMeters>
          </Trackpoint>
          <Trackpoint>
            <Time>2022-07-11T17:48:31.000Z</Time>
            <Position>
              <LatitudeDegrees>43.26750017702579498291015625</LatitudeDegrees>
              <LongitudeDegrees>-2.7840399183332920074462890625</LongitudeDegrees>
            </Position>
            <AltitudeMeters>111.40000152587890625</AltitudeMeters>
            <DistanceMeters>NAN</DistanceMeters>
          </Trackpoint>
          <Trackpoint>
            <Time>2022-07-11T17:48:32.000Z</Time>
            <Position>
              <LatitudeDegrees>43.26746153645217418670654296875</LatitudeDegrees>
              <LongitudeDegrees>-2.784124575555324554443359375</LongitudeDegrees>
            </Position>
            <AltitudeMeters>110.8000030517578125</AltitudeMeters>
            <DistanceMeters>NAN</DistanceMeters>
          </Trackpoint>
          <Trackpoint>
            <Time>2022-07-11T17:48:35.000Z</Time>
            <Position>
              <LatitudeDegrees>43.267310746014118194580078125</LatitudeDegrees>
              <LongitudeDegrees>-2.78443663381040096282958984375</LongitudeDegrees>
            </Position>
            <AltitudeMeters>109.59999847412109375</AltitudeMeters>
            <DistanceMeters>NAN</DistanceMeters>
          </Trackpoint>
          <Trackpoint>
            <Time>2022-07-11T17:48:37.000Z</Time>
            <Position>
              <LatitudeDegrees>43.2672130130231380462646484375</LatitudeDegrees>
              <LongitudeDegrees>-2.784629166126251220703125</LongitudeDegrees>
            </Position>
            <AltitudeMeters>108.59999847412109375</AltitudeMeters>
            <DistanceMeters>NAN</DistanceMeters>
          </Trackpoint>
          <Trackpoint>
            <Time>2022-07-11T17:48:38.000Z</Time>
            <Position>
              <LatitudeDegrees>43.26717051677405834197998046875</LatitudeDegrees>
              <LongitudeDegrees>-2.784731425344944000244140625</LongitudeDegrees>
            </Position>
            <AltitudeMeters>108.40000152587890625</AltitudeMeters>
            <DistanceMeters>NAN</DistanceMeters>
          </Trackpoint>
          <Trackpoint>
            <Time>2022-07-11T17:48:40.000Z</Time>
            <Position>
              <LatitudeDegrees>43.2670936547219753265380859375</LatitudeDegrees>
              <LongitudeDegrees>-2.78494072146713733673095703125</LongitudeDegrees>
            </Position>
            <AltitudeMeters>107</AltitudeMeters>
            <DistanceMeters>NAN</DistanceMeters>
          </Trackpoint>
          <Trackpoint>
            <Time>2022-07-11T17:48:41.000Z</Time>
            <Position>
              <LatitudeDegrees>43.26706171967089176177978515625</LatitudeDegrees>
              <LongitudeDegrees>-2.785042561590671539306640625</LongitudeDegrees>
            </Position>
            <AltitudeMeters>106.59999847412109375</AltitudeMeters>
            <DistanceMeters>NAN</DistanceMeters>
          </Trackpoint>
          <Trackpoint>
            <Time>2022-07-11T17:48:43.000Z</Time>
            <Position>
              <LatitudeDegrees>43.26701511628925800323486328125</LatitudeDegrees>
              <LongitudeDegrees>-2.78523626737296581268310546875</LongitudeDegrees>
            </Position>
            <AltitudeMeters>106</AltitudeMeters>
            <DistanceMeters>NAN</DistanceMeters>
          </Trackpoint>
          <Trackpoint>
            <Time>2022-07-11T17:48:50.000Z</Time>
            <Position>
              <LatitudeDegrees>43.26690112240612506866455078125</LatitudeDegrees>
              <LongitudeDegrees>-2.7858276106417179107666015625</LongitudeDegrees>
            </Position>
            <AltitudeMeters>105.59999847412109375</AltitudeMeters>
            <DistanceMeters>NAN</DistanceMeters>
          </Trackpoint>
          <Trackpoint>
            <Time>2022-07-11T17:48:58.000Z</Time>
            <Position>
              <LatitudeDegrees>43.2667766511440277099609375</LatitudeDegrees>
              <LongitudeDegrees>-2.7864076383411884307861328125</LongitudeDegrees>
            </Position>
            <AltitudeMeters>105.1999969482421875</AltitudeMeters>
            <DistanceMeters>NAN</DistanceMeters>
          </Trackpoint>
          <Trackpoint>
            <Time>2022-07-11T17:49:01.000Z</Time>
            <Position>
              <LatitudeDegrees>43.26672694645822048187255859375</LatitudeDegrees>
              <LongitudeDegrees>-2.7866319380700588226318359375</LongitudeDegrees>
            </Position>
            <AltitudeMeters>105</AltitudeMeters>
            <DistanceMeters>NAN</DistanceMeters>
          </Trackpoint>
          <Trackpoint>
            <Time>2022-07-11T17:49:08.000Z</Time>
            <Position>
              <LatitudeDegrees>43.26660339720547199249267578125</LatitudeDegrees>
              <LongitudeDegrees>-2.78719008900225162506103515625</LongitudeDegrees>
            </Position>
            <AltitudeMeters>103.8000030517578125</AltitudeMeters>
            <DistanceMeters>NAN</DistanceMeters>
          </Trackpoint>
          <Trackpoint>
            <Time>2022-07-11T17:49:09.000Z</Time>
            <Position>
              <LatitudeDegrees>43.2665857113897800445556640625</LatitudeDegrees>
              <LongitudeDegrees>-2.7872716449201107025146484375</LongitudeDegrees>
            </Position>
            <AltitudeMeters>103.59999847412109375</AltitudeMeters>
            <DistanceMeters>NAN</DistanceMeters>
          </Trackpoint>
          <Trackpoint>
            <Time>2022-07-11T17:49:14.000Z</Time>
            <Position>
              <LatitudeDegrees>43.26649074442684650421142578125</LatitudeDegrees>
              <LongitudeDegrees>-2.787673473358154296875</LongitudeDegrees>
            </Position>
            <AltitudeMeters>102.8000030517578125</AltitudeMeters>
            <DistanceMeters>NAN</DistanceMeters>
          </Trackpoint>
          <Trackpoint>
            <Time>2022-07-11T17:49:15.000Z</Time>
            <Position>
              <LatitudeDegrees>43.26647222042083740234375</LatitudeDegrees>
              <LongitudeDegrees>-2.78774899430572986602783203125</LongitudeDegrees>
            </Position>
            <AltitudeMeters>102.59999847412109375</AltitudeMeters>
            <DistanceMeters>NAN</DistanceMeters>
          </Trackpoint>
          <Trackpoint>
            <Time>2022-07-11T17:49:20.000Z</Time>
            <Position>
              <LatitudeDegrees>43.26637364923954010009765625</LatitudeDegrees>
              <LongitudeDegrees>-2.78814244084060192108154296875</LongitudeDegrees>
            </Position>
            <AltitudeMeters>101.59999847412109375</AltitudeMeters>
            <DistanceMeters>NAN</DistanceMeters>
          </Trackpoint>
          <Trackpoint>
            <Time>2022-07-11T17:49:21.000Z</Time>
            <Position>
              <LatitudeDegrees>43.26635546050965785980224609375</LatitudeDegrees>
              <LongitudeDegrees>-2.7882238291203975677490234375</LongitudeDegrees>
            </Position>
            <AltitudeMeters>101.40000152587890625</AltitudeMeters>
            <DistanceMeters>NAN</DistanceMeters>
          </Trackpoint>
          <Trackpoint>
            <Time>2022-07-11T17:49:25.000Z</Time>
            <Position>
              <LatitudeDegrees>43.266280107200145721435546875</LatitudeDegrees>
              <LongitudeDegrees>-2.7885456942021846771240234375</LongitudeDegrees>
            </Position>
            <AltitudeMeters>100.40000152587890625</AltitudeMeters>
            <DistanceMeters>NAN</DistanceMeters>
          </Trackpoint>
          <Trackpoint>
            <Time>2022-07-11T17:49:31.000Z</Time>
            <Position>
              <LatitudeDegrees>43.2661518640816211700439453125</LatitudeDegrees>
              <LongitudeDegrees>-2.7890744246542453765869140625</LongitudeDegrees>
            </Position>
            <AltitudeMeters>99.1999969482421875</AltitudeMeters>
            <DistanceMeters>NAN</DistanceMeters>
          </Trackpoint>
          <Trackpoint>
            <Time>2022-07-11T17:49:32.000Z</Time>
            <Position>
              <LatitudeDegrees>43.266126215457916259765625</LatitudeDegrees>
              <LongitudeDegrees>-2.7891714870929718017578125</LongitudeDegrees>
            </Position>
            <AltitudeMeters>99</AltitudeMeters>
            <DistanceMeters>NAN</DistanceMeters>
          </Trackpoint>
          <Trackpoint>
            <Time>2022-07-11T17:49:34.000Z</Time>
            <Position>
              <LatitudeDegrees>43.26608086936175823211669921875</LatitudeDegrees>
              <LongitudeDegrees>-2.7893724851310253143310546875</LongitudeDegrees>
            </Position>
            <AltitudeMeters>98.1999969482421875</AltitudeMeters>
            <DistanceMeters>NAN</DistanceMeters>
          </Trackpoint>
          <Trackpoint>
            <Time>2022-07-11T17:49:37.000Z</Time>
            <Position>
              <LatitudeDegrees>43.26602898538112640380859375</LatitudeDegrees>
              <LongitudeDegrees>-2.7896678633987903594970703125</LongitudeDegrees>
            </Position>
            <AltitudeMeters>96.8000030517578125</AltitudeMeters>
            <DistanceMeters>NAN</DistanceMeters>
          </Trackpoint>
          <Trackpoint>
            <Time>2022-07-11T17:49:39.000Z</Time>
            <Position>
              <LatitudeDegrees>43.26599755324423313140869140625</LatitudeDegrees>
              <LongitudeDegrees>-2.78990834020078182220458984375</LongitudeDegrees>
            </Position>
            <AltitudeMeters>96</AltitudeMeters>
            <DistanceMeters>NAN</DistanceMeters>
          </Trackpoint>
          <Trackpoint>
            <Time>2022-07-11T17:49:40.000Z</Time>
            <Position>
              <LatitudeDegrees>43.26598967425525188446044921875</LatitudeDegrees>
              <LongitudeDegrees>-2.78999132104218006134033203125</LongitudeDegrees>
            </Position>
            <AltitudeMeters>95.59999847412109375</AltitudeMeters>
            <DistanceMeters>NAN</DistanceMeters>
          </Trackpoint>
          <Trackpoint>
            <Time>2022-07-11T17:49:43.000Z</Time>
            <Position>
              <LatitudeDegrees>43.26595723628997802734375</LatitudeDegrees>
              <LongitudeDegrees>-2.7903243340551853179931640625</LongitudeDegrees>
            </Position>
            <AltitudeMeters>94.40000152587890625</AltitudeMeters>
            <DistanceMeters>NAN</DistanceMeters>
          </Trackpoint>
          <Trackpoint>
            <Time>2022-07-11T17:49:46.000Z</Time>
            <Position>
              <LatitudeDegrees>43.2659309171140193939208984375</LatitudeDegrees>
              <LongitudeDegrees>-2.79062599875032901763916015625</LongitudeDegrees>
            </Position>
            <AltitudeMeters>93.1999969482421875</AltitudeMeters>
            <DistanceMeters>NAN</DistanceMeters>
          </Trackpoint>
          <Trackpoint>
            <Time>2022-07-11T17:49:49.000Z</Time>
            <Position>
              <LatitudeDegrees>43.26590535230934619903564453125</LatitudeDegrees>
              <LongitudeDegrees>-2.7909211255609989166259765625</LongitudeDegrees>
            </Position>
            <AltitudeMeters>92.8000030517578125</AltitudeMeters>
            <DistanceMeters>NAN</DistanceMeters>
          </Trackpoint>
          <Trackpoint>
            <Time>2022-07-11T17:49:58.000Z</Time>
            <Position>
              <LatitudeDegrees>43.26580225490033626556396484375</LatitudeDegrees>
              <LongitudeDegrees>-2.791720591485500335693359375</LongitudeDegrees>
            </Position>
            <AltitudeMeters>92.1999969482421875</AltitudeMeters>
            <DistanceMeters>NAN</DistanceMeters>
          </Trackpoint>
          <Trackpoint>
            <Time>2022-07-11T17:50:04.000Z</Time>
            <Position>
              <LatitudeDegrees>43.26568624936044216156005859375</LatitudeDegrees>
              <LongitudeDegrees>-2.79212661087512969970703125</LongitudeDegrees>
            </Position>
            <AltitudeMeters>91.59999847412109375</AltitudeMeters>
            <DistanceMeters>NAN</DistanceMeters>
          </Trackpoint>
          <Trackpoint>
            <Time>2022-07-11T17:50:10.000Z</Time>
            <Position>
              <LatitudeDegrees>43.26554392464458942413330078125</LatitudeDegrees>
              <LongitudeDegrees>-2.792463563382625579833984375</LongitudeDegrees>
            </Position>
            <AltitudeMeters>91.1999969482421875</AltitudeMeters>
            <DistanceMeters>NAN</DistanceMeters>
          </Trackpoint>
          <Trackpoint>
            <Time>2022-07-11T17:50:11.000Z</Time>
            <Position>
              <LatitudeDegrees>43.2655181922018527984619140625</LatitudeDegrees>
              <LongitudeDegrees>-2.79251242987811565399169921875</LongitudeDegrees>
            </Position>
            <AltitudeMeters>91.1999969482421875</AltitudeMeters>
            <DistanceMeters>NAN</DistanceMeters>
          </Trackpoint>
          <Trackpoint>
            <Time>2022-07-11T17:50:13.000Z</Time>
            <Position>
              <LatitudeDegrees>43.26547318138182163238525390625</LatitudeDegrees>
              <LongitudeDegrees>-2.792599685490131378173828125</LongitudeDegrees>
            </Position>
            <AltitudeMeters>91</AltitudeMeters>
            <DistanceMeters>NAN</DistanceMeters>
          </Trackpoint>
          <Trackpoint>
            <Time>2022-07-11T17:50:14.000Z</Time>
            <Position>
              <LatitudeDegrees>43.265462033450603485107421875</LatitudeDegrees>
              <LongitudeDegrees>-2.79264251701533794403076171875</LongitudeDegrees>
            </Position>
            <AltitudeMeters>90.8000030517578125</AltitudeMeters>
            <DistanceMeters>NAN</DistanceMeters>
          </Trackpoint>
          <Trackpoint>
            <Time>2022-07-11T17:50:16.000Z</Time>
            <Position>
              <LatitudeDegrees>43.26545524410903453826904296875</LatitudeDegrees>
              <LongitudeDegrees>-2.79273740015923976898193359375</LongitudeDegrees>
            </Position>
            <AltitudeMeters>90.59999847412109375</AltitudeMeters>
            <DistanceMeters>NAN</DistanceMeters>
          </Trackpoint>
          <Trackpoint>
            <Time>2022-07-11T17:50:18.000Z</Time>
            <Position>
              <LatitudeDegrees>43.26546211726963520050048828125</LatitudeDegrees>
              <LongitudeDegrees>-2.79279473237693309783935546875</LongitudeDegrees>
            </Position>
            <AltitudeMeters>90.40000152587890625</AltitudeMeters>
            <DistanceMeters>NAN</DistanceMeters>
          </Trackpoint>
          <Trackpoint>
            <Time>2022-07-11T17:50:20.000Z</Time>
            <Position>
              <LatitudeDegrees>43.26546630822122097015380859375</LatitudeDegrees>
              <LongitudeDegrees>-2.792813591659069061279296875</LongitudeDegrees>
            </Position>
            <AltitudeMeters>90.1999969482421875</AltitudeMeters>
            <DistanceMeters>NAN</DistanceMeters>
          </Trackpoint>
          <Trackpoint>
            <Time>2022-07-11T17:50:21.000Z</Time>
            <Position>
              <LatitudeDegrees>43.26546630822122097015380859375</LatitudeDegrees>
              <LongitudeDegrees>-2.792813591659069061279296875</LongitudeDegrees>
            </Position>
            <AltitudeMeters>90.40000152587890625</AltitudeMeters>
            <DistanceMeters>NAN</DistanceMeters>
          </Trackpoint>
          <Trackpoint>
            <Time>2022-07-11T17:50:22.000Z</Time>
            <Position>
              <LatitudeDegrees>43.26546630822122097015380859375</LatitudeDegrees>
              <LongitudeDegrees>-2.792813591659069061279296875</LongitudeDegrees>
            </Position>
            <AltitudeMeters>90.59999847412109375</AltitudeMeters>
            <DistanceMeters>NAN</DistanceMeters>
          </Trackpoint>
          <Trackpoint>
            <Time>2022-07-11T17:50:50.000Z</Time>
            <Position>
              <LatitudeDegrees>43.26540864072740077972412109375</LatitudeDegrees>
              <LongitudeDegrees>-2.79287754558026790618896484375</LongitudeDegrees>
            </Position>
            <AltitudeMeters>90.59999847412109375</AltitudeMeters>
            <DistanceMeters>NAN</DistanceMeters>
          </Trackpoint>
          <Trackpoint>
            <Time>2022-07-11T17:50:51.000Z</Time>
            <Position>
              <LatitudeDegrees>43.2653911225497722625732421875</LatitudeDegrees>
              <LongitudeDegrees>-2.7929039485752582550048828125</LongitudeDegrees>
            </Position>
            <AltitudeMeters>90.59999847412109375</AltitudeMeters>
            <DistanceMeters>NAN</DistanceMeters>
          </Trackpoint>
          <Trackpoint>
            <Time>2022-07-11T17:50:56.000Z</Time>
            <Position>
              <LatitudeDegrees>43.26529012061655521392822265625</LatitudeDegrees>
              <LongitudeDegrees>-2.79309581033885478973388671875</LongitudeDegrees>
            </Position>
            <AltitudeMeters>89.8000030517578125</AltitudeMeters>
            <DistanceMeters>NAN</DistanceMeters>
          </Trackpoint>
          <Trackpoint>
            <Time>2022-07-11T17:51:01.000Z</Time>
            <Position>
              <LatitudeDegrees>43.26523480005562305450439453125</LatitudeDegrees>
              <LongitudeDegrees>-2.7932744286954402923583984375</LongitudeDegrees>
            </Position>
            <AltitudeMeters>88.8000030517578125</AltitudeMeters>
            <DistanceMeters>NAN</DistanceMeters>
          </Trackpoint>
          <Trackpoint>
            <Time>2022-07-11T17:51:04.000Z</Time>
            <Position>
              <LatitudeDegrees>43.26522071845829486846923828125</LatitudeDegrees>
              <LongitudeDegrees>-2.793372161686420440673828125</LongitudeDegrees>
            </Position>
            <AltitudeMeters>88.1999969482421875</AltitudeMeters>
            <DistanceMeters>NAN</DistanceMeters>
          </Trackpoint>
          <Trackpoint>
            <Time>2022-07-11T17:51:06.000Z</Time>
            <Position>
              <LatitudeDegrees>43.26519054360687732696533203125</LatitudeDegrees>
              <LongitudeDegrees>-2.7934055216610431671142578125</LongitudeDegrees>
            </Position>
            <AltitudeMeters>88.1999969482421875</AltitudeMeters>
            <DistanceMeters>NAN</DistanceMeters>
          </Trackpoint>
          <Trackpoint>
            <Time>2022-07-11T17:51:13.000Z</Time>
            <Position>
              <LatitudeDegrees>43.2650739513337612152099609375</LatitudeDegrees>
              <LongitudeDegrees>-2.7934442460536956787109375</LongitudeDegrees>
            </Position>
            <AltitudeMeters>88</AltitudeMeters>
            <DistanceMeters>NAN</DistanceMeters>
          </Trackpoint>
          <Trackpoint>
            <Time>2022-07-11T17:51:17.000Z</Time>
            <Position>
              <LatitudeDegrees>43.2650605402886867523193359375</LatitudeDegrees>
              <LongitudeDegrees>-2.79346100986003875732421875</LongitudeDegrees>
            </Position>
            <AltitudeMeters>88</AltitudeMeters>
            <DistanceMeters>NAN</DistanceMeters>
          </Trackpoint>
          <Trackpoint>
            <Time>2022-07-11T17:51:47.000Z</Time>
            <Position>
              <LatitudeDegrees>43.2651275955140590667724609375</LatitudeDegrees>
              <LongitudeDegrees>-2.793429158627986907958984375</LongitudeDegrees>
            </Position>
            <AltitudeMeters>88</AltitudeMeters>
            <DistanceMeters>NAN</DistanceMeters>
          </Trackpoint>
          <Trackpoint>
            <Time>2022-07-11T17:51:50.000Z</Time>
            <Position>
              <LatitudeDegrees>43.26518450863659381866455078125</LatitudeDegrees>
              <LongitudeDegrees>-2.79337526299059391021728515625</LongitudeDegrees>
            </Position>
            <AltitudeMeters>88</AltitudeMeters>
            <DistanceMeters>NAN</DistanceMeters>
          </Trackpoint>
          <Trackpoint>
            <Time>2022-07-11T17:51:56.000Z</Time>
            <Position>
              <LatitudeDegrees>43.26524787582457065582275390625</LatitudeDegrees>
              <LongitudeDegrees>-2.79322220943868160247802734375</LongitudeDegrees>
            </Position>
            <AltitudeMeters>88.40000152587890625</AltitudeMeters>
            <DistanceMeters>NAN</DistanceMeters>
          </Trackpoint>
          <Trackpoint>
            <Time>2022-07-11T17:52:02.000Z</Time>
            <Position>
              <LatitudeDegrees>43.265273608267307281494140625</LatitudeDegrees>
              <LongitudeDegrees>-2.7930893562734127044677734375</LongitudeDegrees>
            </Position>
            <AltitudeMeters>88.59999847412109375</AltitudeMeters>
            <DistanceMeters>NAN</DistanceMeters>
          </Trackpoint>
          <Trackpoint>
            <Time>2022-07-11T17:52:07.000Z</Time>
            <Position>
              <LatitudeDegrees>43.2653363049030303955078125</LatitudeDegrees>
              <LongitudeDegrees>-2.79298835434019565582275390625</LongitudeDegrees>
            </Position>
            <AltitudeMeters>89</AltitudeMeters>
            <DistanceMeters>NAN</DistanceMeters>
          </Trackpoint>
          <Trackpoint>
            <Time>2022-07-11T17:52:10.000Z</Time>
            <Position>
              <LatitudeDegrees>43.26537008397281169891357421875</LatitudeDegrees>
              <LongitudeDegrees>-2.7929317764937877655029296875</LongitudeDegrees>
            </Position>
            <AltitudeMeters>89.1999969482421875</AltitudeMeters>
            <DistanceMeters>NAN</DistanceMeters>
          </Trackpoint>
          <Trackpoint>
            <Time>2022-07-11T17:52:11.000Z</Time>
            <Position>
              <LatitudeDegrees>43.2653847523033618927001953125</LatitudeDegrees>
              <LongitudeDegrees>-2.7929213829338550567626953125</LongitudeDegrees>
            </Position>
            <AltitudeMeters>89.40000152587890625</AltitudeMeters>
            <DistanceMeters>NAN</DistanceMeters>
          </Trackpoint>
          <Trackpoint>
            <Time>2022-07-11T17:52:14.000Z</Time>
            <Position>
              <LatitudeDegrees>43.2654182799160480499267578125</LatitudeDegrees>
              <LongitudeDegrees>-2.79287628829479217529296875</LongitudeDegrees>
            </Position>
            <AltitudeMeters>89.8000030517578125</AltitudeMeters>
            <DistanceMeters>NAN</DistanceMeters>
          </Trackpoint>
          <Trackpoint>
            <Time>2022-07-11T17:52:18.000Z</Time>
            <Position>
              <LatitudeDegrees>43.2654343731701374053955078125</LatitudeDegrees>
              <LongitudeDegrees>-2.79280512593686580657958984375</LongitudeDegrees>
            </Position>
            <AltitudeMeters>90.40000152587890625</AltitudeMeters>
            <DistanceMeters>NAN</DistanceMeters>
          </Trackpoint>
          <Trackpoint>
            <Time>2022-07-11T17:52:20.000Z</Time>
            <Position>
              <LatitudeDegrees>43.26540847308933734893798828125</LatitudeDegrees>
              <LongitudeDegrees>-2.79276707209646701812744140625</LongitudeDegrees>
            </Position>
            <AltitudeMeters>90.59999847412109375</AltitudeMeters>
            <DistanceMeters>NAN</DistanceMeters>
          </Trackpoint>
          <Trackpoint>
            <Time>2022-07-11T17:52:22.000Z</Time>
            <Position>
              <LatitudeDegrees>43.2653663121163845062255859375</LatitudeDegrees>
              <LongitudeDegrees>-2.79276221059262752532958984375</LongitudeDegrees>
            </Position>
            <AltitudeMeters>90.59999847412109375</AltitudeMeters>
            <DistanceMeters>NAN</DistanceMeters>
          </Trackpoint>
          <Trackpoint>
            <Time>2022-07-11T17:52:23.000Z</Time>
            <Position>
              <LatitudeDegrees>43.2653435133397579193115234375</LatitudeDegrees>
              <LongitudeDegrees>-2.792771346867084503173828125</LongitudeDegrees>
            </Position>
            <AltitudeMeters>90.59999847412109375</AltitudeMeters>
            <DistanceMeters>NAN</DistanceMeters>
          </Trackpoint>
          <Trackpoint>
            <Time>2022-07-11T17:52:26.000Z</Time>
            <Position>
              <LatitudeDegrees>43.2652788050472736358642578125</LatitudeDegrees>
              <LongitudeDegrees>-2.79283546842634677886962890625</LongitudeDegrees>
            </Position>
            <AltitudeMeters>90.59999847412109375</AltitudeMeters>
            <DistanceMeters>NAN</DistanceMeters>
          </Trackpoint>
          <Trackpoint>
            <Time>2022-07-11T17:52:27.000Z</Time>
            <Position>
              <LatitudeDegrees>43.26525843702256679534912109375</LatitudeDegrees>
              <LongitudeDegrees>-2.792864553630352020263671875</LongitudeDegrees>
            </Position>
            <AltitudeMeters>90.59999847412109375</AltitudeMeters>
            <DistanceMeters>NAN</DistanceMeters>
          </Trackpoint>
          <Trackpoint>
            <Time>2022-07-11T17:52:28.000Z</Time>
            <Position>
              <LatitudeDegrees>43.26523899100720882415771484375</LatitudeDegrees>
              <LongitudeDegrees>-2.79289430938661098480224609375</LongitudeDegrees>
            </Position>
            <AltitudeMeters>90.59999847412109375</AltitudeMeters>
            <DistanceMeters>NAN</DistanceMeters>
          </Trackpoint>
          <Trackpoint>
            <Time>2022-07-11T17:52:29.000Z</Time>
            <Position>
              <LatitudeDegrees>43.2652157731354236602783203125</LatitudeDegrees>
              <LongitudeDegrees>-2.79292582534253597259521484375</LongitudeDegrees>
            </Position>
            <AltitudeMeters>90.59999847412109375</AltitudeMeters>
            <DistanceMeters>NAN</DistanceMeters>
          </Trackpoint>
          <Trackpoint>
            <Time>2022-07-11T17:52:30.000Z</Time>
            <Position>
              <LatitudeDegrees>43.2651916332542896270751953125</LatitudeDegrees>
              <LongitudeDegrees>-2.79295298270881175994873046875</LongitudeDegrees>
            </Position>
            <AltitudeMeters>90.59999847412109375</AltitudeMeters>
            <DistanceMeters>NAN</DistanceMeters>
          </Trackpoint>
          <Trackpoint>
            <Time>2022-07-11T17:52:31.000Z</Time>
            <Position>
              <LatitudeDegrees>43.2651654817163944244384765625</LatitudeDegrees>
              <LongitudeDegrees>-2.79298081062734127044677734375</LongitudeDegrees>
            </Position>
            <AltitudeMeters>90.59999847412109375</AltitudeMeters>
            <DistanceMeters>NAN</DistanceMeters>
          </Trackpoint>
          <Trackpoint>
            <Time>2022-07-11T17:52:33.000Z</Time>
            <Position>
              <LatitudeDegrees>43.2651138491928577423095703125</LatitudeDegrees>
              <LongitudeDegrees>-2.79303244315087795257568359375</LongitudeDegrees>
            </Position>
            <AltitudeMeters>90.40000152587890625</AltitudeMeters>
            <DistanceMeters>NAN</DistanceMeters>
          </Trackpoint>
          <Trackpoint>
            <Time>2022-07-11T17:52:35.000Z</Time>
            <Position>
              <LatitudeDegrees>43.265067078173160552978515625</LatitudeDegrees>
              <LongitudeDegrees>-2.793087176978588104248046875</LongitudeDegrees>
            </Position>
            <AltitudeMeters>90.40000152587890625</AltitudeMeters>
            <DistanceMeters>NAN</DistanceMeters>
          </Trackpoint>
          <Trackpoint>
            <Time>2022-07-11T17:52:38.000Z</Time>
            <Position>
              <LatitudeDegrees>43.26499021612107753753662109375</LatitudeDegrees>
              <LongitudeDegrees>-2.793168313801288604736328125</LongitudeDegrees>
            </Position>
            <AltitudeMeters>90.40000152587890625</AltitudeMeters>
            <DistanceMeters>NAN</DistanceMeters>
          </Trackpoint>
          <Trackpoint>
            <Time>2022-07-11T17:52:41.000Z</Time>
            <Position>
              <LatitudeDegrees>43.2649083249270915985107421875</LatitudeDegrees>
              <LongitudeDegrees>-2.7932445891201496124267578125</LongitudeDegrees>
            </Position>
            <AltitudeMeters>90.59999847412109375</AltitudeMeters>
            <DistanceMeters>NAN</DistanceMeters>
          </Trackpoint>
          <Trackpoint>
            <Time>2022-07-11T17:52:43.000Z</Time>
            <Position>
              <LatitudeDegrees>43.2648509927093982696533203125</LatitudeDegrees>
              <LongitudeDegrees>-2.79329211451113224029541015625</LongitudeDegrees>
            </Position>
            <AltitudeMeters>90.59999847412109375</AltitudeMeters>
            <DistanceMeters>NAN</DistanceMeters>
          </Trackpoint>
          <Trackpoint>
            <Time>2022-07-11T17:52:45.000Z</Time>
            <Position>
              <LatitudeDegrees>43.2647926546633243560791015625</LatitudeDegrees>
              <LongitudeDegrees>-2.79333804734051227569580078125</LongitudeDegrees>
            </Position>
            <AltitudeMeters>90.40000152587890625</AltitudeMeters>
            <DistanceMeters>NAN</DistanceMeters>
          </Trackpoint>
          <Trackpoint>
            <Time>2022-07-11T17:52:48.000Z</Time>
            <Position>
              <LatitudeDegrees>43.2646810077130794525146484375</LatitudeDegrees>
              <LongitudeDegrees>-2.7933904342353343963623046875</LongitudeDegrees>
            </Position>
            <AltitudeMeters>90.59999847412109375</AltitudeMeters>
            <DistanceMeters>NAN</DistanceMeters>
          </Trackpoint>
          <Trackpoint>
            <Time>2022-07-11T17:52:55.000Z</Time>
            <Position>
              <LatitudeDegrees>43.26446969993412494659423828125</LatitudeDegrees>
              <LongitudeDegrees>-2.79348607175052165985107421875</LongitudeDegrees>
            </Position>
            <AltitudeMeters>90.59999847412109375</AltitudeMeters>
            <DistanceMeters>NAN</DistanceMeters>
          </Trackpoint>
          <Trackpoint>
            <Time>2022-07-11T17:52:57.000Z</Time>
            <Position>
              <LatitudeDegrees>43.26442695222795009613037109375</LatitudeDegrees>
              <LongitudeDegrees>-2.793520353734493255615234375</LongitudeDegrees>
            </Position>
            <AltitudeMeters>90.59999847412109375</AltitudeMeters>
            <DistanceMeters>NAN</DistanceMeters>
          </Trackpoint>
          <Trackpoint>
            <Time>2022-07-11T17:53:01.000Z</Time>
            <Position>
              <LatitudeDegrees>43.26441220007836818695068359375</LatitudeDegrees>
              <LongitudeDegrees>-2.79354508034884929656982421875</LongitudeDegrees>
            </Position>
            <AltitudeMeters>90.40000152587890625</AltitudeMeters>
            <DistanceMeters>NAN</DistanceMeters>
          </Trackpoint>
          <Trackpoint>
            <Time>2022-07-11T17:54:36.000Z</Time>
            <Position>
              <LatitudeDegrees>43.26435126364231109619140625</LatitudeDegrees>
              <LongitudeDegrees>-2.7935403026640415191650390625</LongitudeDegrees>
            </Position>
            <AltitudeMeters>90</AltitudeMeters>
            <DistanceMeters>NAN</DistanceMeters>
          </Trackpoint>
          <Trackpoint>
            <Time>2022-07-11T17:54:37.000Z</Time>
            <Position>
              <LatitudeDegrees>43.26433005742728710174560546875</LatitudeDegrees>
              <LongitudeDegrees>-2.7935476787388324737548828125</LongitudeDegrees>
            </Position>
            <AltitudeMeters>90</AltitudeMeters>
            <DistanceMeters>NAN</DistanceMeters>
          </Trackpoint>
          <Trackpoint>
            <Time>2022-07-11T17:54:38.000Z</Time>
            <Position>
              <LatitudeDegrees>43.26429988257586956024169921875</LatitudeDegrees>
              <LongitudeDegrees>-2.79355647973716259002685546875</LongitudeDegrees>
            </Position>
            <AltitudeMeters>90</AltitudeMeters>
            <DistanceMeters>NAN</DistanceMeters>
          </Trackpoint>
          <Trackpoint>
            <Time>2022-07-11T17:54:42.000Z</Time>
            <Position>
              <LatitudeDegrees>43.26417423784732818603515625</LatitudeDegrees>
              <LongitudeDegrees>-2.79357994906604290008544921875</LongitudeDegrees>
            </Position>
            <AltitudeMeters>90.1999969482421875</AltitudeMeters>
            <DistanceMeters>NAN</DistanceMeters>
          </Trackpoint>
          <Trackpoint>
            <Time>2022-07-11T17:54:43.000Z</Time>
            <Position>
              <LatitudeDegrees>43.26414297334849834442138671875</LatitudeDegrees>
              <LongitudeDegrees>-2.79358414001762866973876953125</LongitudeDegrees>
            </Position>
            <AltitudeMeters>90.1999969482421875</AltitudeMeters>
            <DistanceMeters>NAN</DistanceMeters>
          </Trackpoint>
          <Trackpoint>
            <Time>2022-07-11T17:54:46.000Z</Time>
            <Position>
              <LatitudeDegrees>43.26405915431678295135498046875</LatitudeDegrees>
              <LongitudeDegrees>-2.79357592575252056121826171875</LongitudeDegrees>
            </Position>
            <AltitudeMeters>90.1999969482421875</AltitudeMeters>
            <DistanceMeters>NAN</DistanceMeters>
          </Trackpoint>
          <Trackpoint>
            <Time>2022-07-11T17:54:47.000Z</Time>
            <Position>
              <LatitudeDegrees>43.26404012739658355712890625</LatitudeDegrees>
              <LongitudeDegrees>-2.79357274062931537628173828125</LongitudeDegrees>
            </Position>
            <AltitudeMeters>90.1999969482421875</AltitudeMeters>
            <DistanceMeters>NAN</DistanceMeters>
          </Trackpoint>
          <Trackpoint>
            <Time>2022-07-11T17:54:56.000Z</Time>
            <Position>
              <LatitudeDegrees>43.26377903111279010772705078125</LatitudeDegrees>
              <LongitudeDegrees>-2.7935245446860790252685546875</LongitudeDegrees>
            </Position>
            <AltitudeMeters>90.8000030517578125</AltitudeMeters>
            <DistanceMeters>NAN</DistanceMeters>
          </Trackpoint>
          <Trackpoint>
            <Time>2022-07-11T17:54:57.000Z</Time>
            <Position>
              <LatitudeDegrees>43.263749442994594573974609375</LatitudeDegrees>
              <LongitudeDegrees>-2.79351909644901752471923828125</LongitudeDegrees>
            </Position>
            <AltitudeMeters>90.8000030517578125</AltitudeMeters>
            <DistanceMeters>NAN</DistanceMeters>
          </Trackpoint>
          <Trackpoint>
            <Time>2022-07-11T17:55:03.000Z</Time>
            <Position>
              <LatitudeDegrees>43.2635580003261566162109375</LatitudeDegrees>
              <LongitudeDegrees>-2.79347819276154041290283203125</LongitudeDegrees>
            </Position>
            <AltitudeMeters>91.1999969482421875</AltitudeMeters>
            <DistanceMeters>NAN</DistanceMeters>
          </Trackpoint>
          <Trackpoint>
            <Time>2022-07-11T17:55:04.000Z</Time>
            <Position>
              <LatitudeDegrees>43.26352572999894618988037109375</LatitudeDegrees>
              <LongitudeDegrees>-2.79346629045903682708740234375</LongitudeDegrees>
            </Position>
            <AltitudeMeters>91.1999969482421875</AltitudeMeters>
            <DistanceMeters>NAN</DistanceMeters>
          </Trackpoint>
          <Trackpoint>
            <Time>2022-07-11T17:55:05.000Z</Time>
            <Position>
              <LatitudeDegrees>43.26349429786205291748046875</LatitudeDegrees>
              <LongitudeDegrees>-2.79345723800361156463623046875</LongitudeDegrees>
            </Position>
            <AltitudeMeters>91.1999969482421875</AltitudeMeters>
            <DistanceMeters>NAN</DistanceMeters>
          </Trackpoint>
          <Trackpoint>
            <Time>2022-07-11T17:55:07.000Z</Time>
            <Position>
              <LatitudeDegrees>43.26342992484569549560546875</LatitudeDegrees>
              <LongitudeDegrees>-2.7934497781097888946533203125</LongitudeDegrees>
            </Position>
            <AltitudeMeters>91.1999969482421875</AltitudeMeters>
            <DistanceMeters>NAN</DistanceMeters>
          </Trackpoint>
          <Trackpoint>
            <Time>2022-07-11T17:55:11.000Z</Time>
            <Position>
              <LatitudeDegrees>43.26330025680363178253173828125</LatitudeDegrees>
              <LongitudeDegrees>-2.7934169210493564605712890625</LongitudeDegrees>
            </Position>
            <AltitudeMeters>91</AltitudeMeters>
            <DistanceMeters>NAN</DistanceMeters>
          </Trackpoint>
          <Trackpoint>
            <Time>2022-07-11T17:55:16.000Z</Time>
            <Position>
              <LatitudeDegrees>43.26314200647175312042236328125</LatitudeDegrees>
              <LongitudeDegrees>-2.79331860132515430450439453125</LongitudeDegrees>
            </Position>
            <AltitudeMeters>91</AltitudeMeters>
            <DistanceMeters>NAN</DistanceMeters>
          </Trackpoint>
          <Trackpoint>
            <Time>2022-07-11T17:55:19.000Z</Time>
            <Position>
              <LatitudeDegrees>43.26305039227008819580078125</LatitudeDegrees>
              <LongitudeDegrees>-2.7932466007769107818603515625</LongitudeDegrees>
            </Position>
            <AltitudeMeters>91.1999969482421875</AltitudeMeters>
            <DistanceMeters>NAN</DistanceMeters>
          </Trackpoint>
          <Trackpoint>
            <Time>2022-07-11T17:55:21.000Z</Time>
            <Position>
              <LatitudeDegrees>43.26299616135656833648681640625</LatitudeDegrees>
              <LongitudeDegrees>-2.79319622553884983062744140625</LongitudeDegrees>
            </Position>
            <AltitudeMeters>91.40000152587890625</AltitudeMeters>
            <DistanceMeters>NAN</DistanceMeters>
          </Trackpoint>
          <Trackpoint>
            <Time>2022-07-11T17:55:22.000Z</Time>
            <Position>
              <LatitudeDegrees>43.262968249619007110595703125</LatitudeDegrees>
              <LongitudeDegrees>-2.79317292384803295135498046875</LongitudeDegrees>
            </Position>
            <AltitudeMeters>91.40000152587890625</AltitudeMeters>
            <DistanceMeters>NAN</DistanceMeters>
          </Trackpoint>
          <Trackpoint>
            <Time>2022-07-11T17:55:23.000Z</Time>
            <Position>
              <LatitudeDegrees>43.262937404215335845947265625</LatitudeDegrees>
              <LongitudeDegrees>-2.79314878396689891815185546875</LongitudeDegrees>
            </Position>
            <AltitudeMeters>91.40000152587890625</AltitudeMeters>
            <DistanceMeters>NAN</DistanceMeters>
          </Trackpoint>
          <Trackpoint>
            <Time>2022-07-11T17:55:24.000Z</Time>
            <Position>
              <LatitudeDegrees>43.26290831901133060455322265625</LatitudeDegrees>
              <LongitudeDegrees>-2.79312380589544773101806640625</LongitudeDegrees>
            </Position>
            <AltitudeMeters>91.40000152587890625</AltitudeMeters>
            <DistanceMeters>NAN</DistanceMeters>
          </Trackpoint>
          <Trackpoint>
            <Time>2022-07-11T17:55:25.000Z</Time>
            <Position>
              <LatitudeDegrees>43.262884430587291717529296875</LatitudeDegrees>
              <LongitudeDegrees>-2.7931031025946140289306640625</LongitudeDegrees>
            </Position>
            <AltitudeMeters>91.59999847412109375</AltitudeMeters>
            <DistanceMeters>NAN</DistanceMeters>
          </Trackpoint>
          <Trackpoint>
            <Time>2022-07-11T17:55:26.000Z</Time>
            <Position>
              <LatitudeDegrees>43.26285685412585735321044921875</LatitudeDegrees>
              <LongitudeDegrees>-2.7930767834186553955078125</LongitudeDegrees>
            </Position>
            <AltitudeMeters>91.59999847412109375</AltitudeMeters>
            <DistanceMeters>NAN</DistanceMeters>
          </Trackpoint>
          <Trackpoint>
            <Time>2022-07-11T17:55:28.000Z</Time>
            <Position>
              <LatitudeDegrees>43.26279734261333942413330078125</LatitudeDegrees>
              <LongitudeDegrees>-2.793020121753215789794921875</LongitudeDegrees>
            </Position>
            <AltitudeMeters>91.59999847412109375</AltitudeMeters>
            <DistanceMeters>NAN</DistanceMeters>
          </Trackpoint>
          <Trackpoint>
            <Time>2022-07-11T17:55:29.000Z</Time>
            <Position>
              <LatitudeDegrees>43.26276884414255619049072265625</LatitudeDegrees>
              <LongitudeDegrees>-2.7929984964430332183837890625</LongitudeDegrees>
            </Position>
            <AltitudeMeters>91.8000030517578125</AltitudeMeters>
            <DistanceMeters>NAN</DistanceMeters>
          </Trackpoint>
          <Trackpoint>
            <Time>2022-07-11T17:55:31.000Z</Time>
            <Position>
              <LatitudeDegrees>43.2627082429826259613037109375</LatitudeDegrees>
              <LongitudeDegrees>-2.7929532341659069061279296875</LongitudeDegrees>
            </Position>
            <AltitudeMeters>91.8000030517578125</AltitudeMeters>
            <DistanceMeters>NAN</DistanceMeters>
          </Trackpoint>
          <Trackpoint>
            <Time>2022-07-11T17:55:32.000Z</Time>
            <Position>
              <LatitudeDegrees>43.26267714612185955047607421875</LatitudeDegrees>
              <LongitudeDegrees>-2.7929378114640712738037109375</LongitudeDegrees>
            </Position>
            <AltitudeMeters>91.8000030517578125</AltitudeMeters>
            <DistanceMeters>NAN</DistanceMeters>
          </Trackpoint>
          <Trackpoint>
            <Time>2022-07-11T17:55:35.000Z</Time>
            <Position>
              <LatitudeDegrees>43.26258528046309947967529296875</LatitudeDegrees>
              <LongitudeDegrees>-2.792865894734859466552734375</LongitudeDegrees>
            </Position>
            <AltitudeMeters>92</AltitudeMeters>
            <DistanceMeters>NAN</DistanceMeters>
          </Trackpoint>
          <Trackpoint>
            <Time>2022-07-11T17:55:42.000Z</Time>
            <Position>
              <LatitudeDegrees>43.2623739726841449737548828125</LatitudeDegrees>
              <LongitudeDegrees>-2.7926984243094921112060546875</LongitudeDegrees>
            </Position>
            <AltitudeMeters>92.1999969482421875</AltitudeMeters>
            <DistanceMeters>NAN</DistanceMeters>
          </Trackpoint>
          <Trackpoint>
            <Time>2022-07-11T17:55:48.000Z</Time>
            <Position>
              <LatitudeDegrees>43.262214548885822296142578125</LatitudeDegrees>
              <LongitudeDegrees>-2.7925663255155086517333984375</LongitudeDegrees>
            </Position>
            <AltitudeMeters>92.59999847412109375</AltitudeMeters>
            <DistanceMeters>NAN</DistanceMeters>
          </Trackpoint>
          <Trackpoint>
            <Time>2022-07-11T17:55:52.000Z</Time>
            <Position>
              <LatitudeDegrees>43.262095861136913299560546875</LatitudeDegrees>
              <LongitudeDegrees>-2.79250404797494411468505859375</LongitudeDegrees>
            </Position>
            <AltitudeMeters>93</AltitudeMeters>
            <DistanceMeters>NAN</DistanceMeters>
          </Trackpoint>
          <Trackpoint>
            <Time>2022-07-11T17:55:55.000Z</Time>
            <Position>
              <LatitudeDegrees>43.2619996368885040283203125</LatitudeDegrees>
              <LongitudeDegrees>-2.79246817342936992645263671875</LongitudeDegrees>
            </Position>
            <AltitudeMeters>93.1999969482421875</AltitudeMeters>
            <DistanceMeters>NAN</DistanceMeters>
          </Trackpoint>
          <Trackpoint>
            <Time>2022-07-11T17:56:00.000Z</Time>
            <Position>
              <LatitudeDegrees>43.26184532605111598968505859375</LatitudeDegrees>
              <LongitudeDegrees>-2.7924050576984882354736328125</LongitudeDegrees>
            </Position>
            <AltitudeMeters>93.40000152587890625</AltitudeMeters>
            <DistanceMeters>NAN</DistanceMeters>
          </Trackpoint>
          <Trackpoint>
            <Time>2022-07-11T17:56:06.000Z</Time>
            <Position>
              <LatitudeDegrees>43.2616388797760009765625</LatitudeDegrees>
              <LongitudeDegrees>-2.792338840663433074951171875</LongitudeDegrees>
            </Position>
            <AltitudeMeters>93.8000030517578125</AltitudeMeters>
            <DistanceMeters>NAN</DistanceMeters>
          </Trackpoint>
          <Trackpoint>
            <Time>2022-07-11T17:56:08.000Z</Time>
            <Position>
              <LatitudeDegrees>43.26156905852258205413818359375</LatitudeDegrees>
              <LongitudeDegrees>-2.79231679625809192657470703125</LongitudeDegrees>
            </Position>
            <AltitudeMeters>93.8000030517578125</AltitudeMeters>
            <DistanceMeters>NAN</DistanceMeters>
          </Trackpoint>
          <Trackpoint>
            <Time>2022-07-11T17:56:09.000Z</Time>
            <Position>
              <LatitudeDegrees>43.26153628528118133544921875</LatitudeDegrees>
              <LongitudeDegrees>-2.79230296611785888671875</LongitudeDegrees>
            </Position>
            <AltitudeMeters>94</AltitudeMeters>
            <DistanceMeters>NAN</DistanceMeters>
          </Trackpoint>
          <Trackpoint>
            <Time>2022-07-11T17:56:16.000Z</Time>
            <Position>
              <LatitudeDegrees>43.261289857327938079833984375</LatitudeDegrees>
              <LongitudeDegrees>-2.79226147569715976715087890625</LongitudeDegrees>
            </Position>
            <AltitudeMeters>94.1999969482421875</AltitudeMeters>
            <DistanceMeters>NAN</DistanceMeters>
          </Trackpoint>
          <Trackpoint>
            <Time>2022-07-11T17:56:23.000Z</Time>
            <Position>
              <LatitudeDegrees>43.26103479601442813873291015625</LatitudeDegrees>
              <LongitudeDegrees>-2.79225728474557399749755859375</LongitudeDegrees>
            </Position>
            <AltitudeMeters>94.40000152587890625</AltitudeMeters>
            <DistanceMeters>NAN</DistanceMeters>
          </Trackpoint>
          <Trackpoint>
            <Time>2022-07-11T17:56:32.000Z</Time>
            <Position>
              <LatitudeDegrees>43.2606902159750461578369140625</LatitudeDegrees>
              <LongitudeDegrees>-2.79228460974991321563720703125</LongitudeDegrees>
            </Position>
            <AltitudeMeters>94.8000030517578125</AltitudeMeters>
            <DistanceMeters>NAN</DistanceMeters>
          </Trackpoint>
          <Trackpoint>
            <Time>2022-07-11T17:56:37.000Z</Time>
            <Position>
              <LatitudeDegrees>43.2604950852692127227783203125</LatitudeDegrees>
              <LongitudeDegrees>-2.7923172153532505035400390625</LongitudeDegrees>
            </Position>
            <AltitudeMeters>94.8000030517578125</AltitudeMeters>
            <DistanceMeters>NAN</DistanceMeters>
          </Trackpoint>
          <Trackpoint>
            <Time>2022-07-11T17:56:40.000Z</Time>
            <Position>
              <LatitudeDegrees>43.26037899591028690338134765625</LatitudeDegrees>
              <LongitudeDegrees>-2.79234596528112888336181640625</LongitudeDegrees>
            </Position>
            <AltitudeMeters>94.59999847412109375</AltitudeMeters>
            <DistanceMeters>NAN</DistanceMeters>
          </Trackpoint>
          <Trackpoint>
            <Time>2022-07-11T17:56:42.000Z</Time>
            <Position>
              <LatitudeDegrees>43.2602959312498569488525390625</LatitudeDegrees>
              <LongitudeDegrees>-2.79236876405775547027587890625</LongitudeDegrees>
            </Position>
            <AltitudeMeters>94.59999847412109375</AltitudeMeters>
            <DistanceMeters>NAN</DistanceMeters>
          </Trackpoint>
          <Trackpoint>
            <Time>2022-07-11T17:56:43.000Z</Time>
            <Position>
              <LatitudeDegrees>43.2602553628385066986083984375</LatitudeDegrees>
              <LongitudeDegrees>-2.792377062141895294189453125</LongitudeDegrees>
            </Position>
            <AltitudeMeters>94.8000030517578125</AltitudeMeters>
            <DistanceMeters>NAN</DistanceMeters>
          </Trackpoint>
          <Trackpoint>
            <Time>2022-07-11T17:56:52.000Z</Time>
            <Position>
              <LatitudeDegrees>43.25988949276506900787353515625</LatitudeDegrees>
              <LongitudeDegrees>-2.79254780150949954986572265625</LongitudeDegrees>
            </Position>
            <AltitudeMeters>95</AltitudeMeters>
            <DistanceMeters>NAN</DistanceMeters>
          </Trackpoint>
          <Trackpoint>
            <Time>2022-07-11T17:57:01.000Z</Time>
            <Position>
              <LatitudeDegrees>43.2595187611877918243408203125</LatitudeDegrees>
              <LongitudeDegrees>-2.7928031980991363525390625</LongitudeDegrees>
            </Position>
            <AltitudeMeters>94.59999847412109375</AltitudeMeters>
            <DistanceMeters>NAN</DistanceMeters>
          </Trackpoint>
          <Trackpoint>
            <Time>2022-07-11T17:57:11.000Z</Time>
            <Position>
              <LatitudeDegrees>43.2591154240071773529052734375</LatitudeDegrees>
              <LongitudeDegrees>-2.79317401349544525146484375</LongitudeDegrees>
            </Position>
            <AltitudeMeters>94.1999969482421875</AltitudeMeters>
            <DistanceMeters>NAN</DistanceMeters>
          </Trackpoint>
          <Trackpoint>
            <Time>2022-07-11T17:57:12.000Z</Time>
            <Position>
              <LatitudeDegrees>43.2590748555958271026611328125</LatitudeDegrees>
              <LongitudeDegrees>-2.79321181587874889373779296875</LongitudeDegrees>
            </Position>
            <AltitudeMeters>94.1999969482421875</AltitudeMeters>
            <DistanceMeters>NAN</DistanceMeters>
          </Trackpoint>
          <Trackpoint>
            <Time>2022-07-11T17:57:22.000Z</Time>
            <Position>
              <LatitudeDegrees>43.25866322033107280731201171875</LatitudeDegrees>
              <LongitudeDegrees>-2.793581373989582061767578125</LongitudeDegrees>
            </Position>
            <AltitudeMeters>93.8000030517578125</AltitudeMeters>
            <DistanceMeters>NAN</DistanceMeters>
          </Trackpoint>
          <Trackpoint>
            <Time>2022-07-11T17:57:31.000Z</Time>
            <Position>
              <LatitudeDegrees>43.25825150124728679656982421875</LatitudeDegrees>
              <LongitudeDegrees>-2.79382855631411075592041015625</LongitudeDegrees>
            </Position>
            <AltitudeMeters>93.1999969482421875</AltitudeMeters>
            <DistanceMeters>NAN</DistanceMeters>
          </Trackpoint>
          <Trackpoint>
            <Time>2022-07-11T17:57:33.000Z</Time>
            <Position>
              <LatitudeDegrees>43.258154690265655517578125</LatitudeDegrees>
              <LongitudeDegrees>-2.79387398622930049896240234375</LongitudeDegrees>
            </Position>
            <AltitudeMeters>93</AltitudeMeters>
            <DistanceMeters>NAN</DistanceMeters>
          </Trackpoint>
          <Trackpoint>
            <Time>2022-07-11T17:57:35.000Z</Time>
            <Position>
              <LatitudeDegrees>43.25804782100021839141845703125</LatitudeDegrees>
              <LongitudeDegrees>-2.7939141355454921722412109375</LongitudeDegrees>
            </Position>
            <AltitudeMeters>92.8000030517578125</AltitudeMeters>
            <DistanceMeters>NAN</DistanceMeters>
          </Trackpoint>
          <Trackpoint>
            <Time>2022-07-11T17:57:39.000Z</Time>
            <Position>
              <LatitudeDegrees>43.25783005915582180023193359375</LatitudeDegrees>
              <LongitudeDegrees>-2.7939795143902301788330078125</LongitudeDegrees>
            </Position>
            <AltitudeMeters>92.1999969482421875</AltitudeMeters>
            <DistanceMeters>NAN</DistanceMeters>
          </Trackpoint>
          <Trackpoint>
            <Time>2022-07-11T17:57:40.000Z</Time>
            <Position>
              <LatitudeDegrees>43.2577699609100818634033203125</LatitudeDegrees>
              <LongitudeDegrees>-2.7939959429204463958740234375</LongitudeDegrees>
            </Position>
            <AltitudeMeters>92.1999969482421875</AltitudeMeters>
            <DistanceMeters>NAN</DistanceMeters>
          </Trackpoint>
          <Trackpoint>
            <Time>2022-07-11T17:57:45.000Z</Time>
            <Position>
              <LatitudeDegrees>43.2574854791164398193359375</LatitudeDegrees>
              <LongitudeDegrees>-2.79406853020191192626953125</LongitudeDegrees>
            </Position>
            <AltitudeMeters>91.8000030517578125</AltitudeMeters>
            <DistanceMeters>NAN</DistanceMeters>
          </Trackpoint>
          <Trackpoint>
            <Time>2022-07-11T17:57:49.000Z</Time>
            <Position>
              <LatitudeDegrees>43.2572660408914089202880859375</LatitudeDegrees>
              <LongitudeDegrees>-2.794119827449321746826171875</LongitudeDegrees>
            </Position>
            <AltitudeMeters>91.40000152587890625</AltitudeMeters>
            <DistanceMeters>NAN</DistanceMeters>
          </Trackpoint>
          <Trackpoint>
            <Time>2022-07-11T17:57:50.000Z</Time>
            <Position>
              <LatitudeDegrees>43.25719303451478481292724609375</LatitudeDegrees>
              <LongitudeDegrees>-2.79413684271275997161865234375</LongitudeDegrees>
            </Position>
            <AltitudeMeters>91.40000152587890625</AltitudeMeters>
            <DistanceMeters>NAN</DistanceMeters>
          </Trackpoint>
          <Trackpoint>
            <Time>2022-07-11T17:57:52.000Z</Time>
            <Position>
              <LatitudeDegrees>43.25707753188908100128173828125</LatitudeDegrees>
              <LongitudeDegrees>-2.79416534118354320526123046875</LongitudeDegrees>
            </Position>
            <AltitudeMeters>91.40000152587890625</AltitudeMeters>
            <DistanceMeters>NAN</DistanceMeters>
          </Trackpoint>
          <Trackpoint>
            <Time>2022-07-11T17:57:59.000Z</Time>
            <Position>
              <LatitudeDegrees>43.256686516106128692626953125</LatitudeDegrees>
              <LongitudeDegrees>-2.79426005668938159942626953125</LongitudeDegrees>
            </Position>
            <AltitudeMeters>90.59999847412109375</AltitudeMeters>
            <DistanceMeters>NAN</DistanceMeters>
          </Trackpoint>
          <Trackpoint>
            <Time>2022-07-11T17:58:02.000Z</Time>
            <Position>
              <LatitudeDegrees>43.25648912228643894195556640625</LatitudeDegrees>
              <LongitudeDegrees>-2.79430666007101535797119140625</LongitudeDegrees>
            </Position>
            <AltitudeMeters>90.40000152587890625</AltitudeMeters>
            <DistanceMeters>NAN</DistanceMeters>
          </Trackpoint>
          <Trackpoint>
            <Time>2022-07-11T17:58:10.000Z</Time>
            <Position>
              <LatitudeDegrees>43.2559839449822902679443359375</LatitudeDegrees>
              <LongitudeDegrees>-2.794434316456317901611328125</LongitudeDegrees>
            </Position>
            <AltitudeMeters>90.1999969482421875</AltitudeMeters>
            <DistanceMeters>NAN</DistanceMeters>
          </Trackpoint>
          <Trackpoint>
            <Time>2022-07-11T17:58:13.000Z</Time>
            <Position>
              <LatitudeDegrees>43.2557935081422328948974609375</LatitudeDegrees>
              <LongitudeDegrees>-2.794476561248302459716796875</LongitudeDegrees>
            </Position>
            <AltitudeMeters>90</AltitudeMeters>
            <DistanceMeters>NAN</DistanceMeters>
          </Trackpoint>
          <Trackpoint>
            <Time>2022-07-11T17:58:15.000Z</Time>
            <Position>
              <LatitudeDegrees>43.255682699382305145263671875</LatitudeDegrees>
              <LongitudeDegrees>-2.79450028203427791595458984375</LongitudeDegrees>
            </Position>
            <AltitudeMeters>89.8000030517578125</AltitudeMeters>
            <DistanceMeters>NAN</DistanceMeters>
          </Trackpoint>
          <Trackpoint>
            <Time>2022-07-11T17:58:17.000Z</Time>
            <Position>
              <LatitudeDegrees>43.25554884038865566253662109375</LatitudeDegrees>
              <LongitudeDegrees>-2.79453196562826633453369140625</LongitudeDegrees>
            </Position>
            <AltitudeMeters>89.59999847412109375</AltitudeMeters>
            <DistanceMeters>NAN</DistanceMeters>
          </Trackpoint>
          <Trackpoint>
            <Time>2022-07-11T17:58:18.000Z</Time>
            <Position>
              <LatitudeDegrees>43.255488574504852294921875</LatitudeDegrees>
              <LongitudeDegrees>-2.794542275369167327880859375</LongitudeDegrees>
            </Position>
            <AltitudeMeters>89.59999847412109375</AltitudeMeters>
            <DistanceMeters>NAN</DistanceMeters>
          </Trackpoint>
          <Trackpoint>
            <Time>2022-07-11T17:58:22.000Z</Time>
            <Position>
              <LatitudeDegrees>43.25524424202740192413330078125</LatitudeDegrees>
              <LongitudeDegrees>-2.794597931206226348876953125</LongitudeDegrees>
            </Position>
            <AltitudeMeters>89.1999969482421875</AltitudeMeters>
            <DistanceMeters>NAN</DistanceMeters>
          </Trackpoint>
          <Trackpoint>
            <Time>2022-07-11T17:58:27.000Z</Time>
            <Position>
              <LatitudeDegrees>43.25492405332624912261962890625</LatitudeDegrees>
              <LongitudeDegrees>-2.794667668640613555908203125</LongitudeDegrees>
            </Position>
            <AltitudeMeters>89</AltitudeMeters>
            <DistanceMeters>NAN</DistanceMeters>
          </Trackpoint>
          <Trackpoint>
            <Time>2022-07-11T17:58:29.000Z</Time>
            <Position>
              <LatitudeDegrees>43.25480301864445209503173828125</LatitudeDegrees>
              <LongitudeDegrees>-2.79468921013176441192626953125</LongitudeDegrees>
            </Position>
            <AltitudeMeters>88.8000030517578125</AltitudeMeters>
            <DistanceMeters>NAN</DistanceMeters>
          </Trackpoint>
          <Trackpoint>
            <Time>2022-07-11T17:58:32.000Z</Time>
            <Position>
              <LatitudeDegrees>43.254608474671840667724609375</LatitudeDegrees>
              <LongitudeDegrees>-2.7947489731013774871826171875</LongitudeDegrees>
            </Position>
            <AltitudeMeters>88.59999847412109375</AltitudeMeters>
            <DistanceMeters>NAN</DistanceMeters>
          </Trackpoint>
          <Trackpoint>
            <Time>2022-07-11T17:58:35.000Z</Time>
            <Position>
              <LatitudeDegrees>43.25443446636199951171875</LatitudeDegrees>
              <LongitudeDegrees>-2.7948270924389362335205078125</LongitudeDegrees>
            </Position>
            <AltitudeMeters>88.1999969482421875</AltitudeMeters>
            <DistanceMeters>NAN</DistanceMeters>
          </Trackpoint>
          <Trackpoint>
            <Time>2022-07-11T17:58:36.000Z</Time>
            <Position>
              <LatitudeDegrees>43.254375793039798736572265625</LatitudeDegrees>
              <LongitudeDegrees>-2.794854082167148590087890625</LongitudeDegrees>
            </Position>
            <AltitudeMeters>88</AltitudeMeters>
            <DistanceMeters>NAN</DistanceMeters>
          </Trackpoint>
          <Trackpoint>
            <Time>2022-07-11T17:58:43.000Z</Time>
            <Position>
              <LatitudeDegrees>43.2539739646017551422119140625</LatitudeDegrees>
              <LongitudeDegrees>-2.79508098028600215911865234375</LongitudeDegrees>
            </Position>
            <AltitudeMeters>87.40000152587890625</AltitudeMeters>
            <DistanceMeters>NAN</DistanceMeters>
          </Trackpoint>
          <Trackpoint>
            <Time>2022-07-11T17:58:44.000Z</Time>
            <Position>
              <LatitudeDegrees>43.2539199851453304290771484375</LatitudeDegrees>
              <LongitudeDegrees>-2.79511936940252780914306640625</LongitudeDegrees>
            </Position>
            <AltitudeMeters>87.40000152587890625</AltitudeMeters>
            <DistanceMeters>NAN</DistanceMeters>
          </Trackpoint>
          <Trackpoint>
            <Time>2022-07-11T17:58:52.000Z</Time>
            <Position>
              <LatitudeDegrees>43.2535052485764026641845703125</LatitudeDegrees>
              <LongitudeDegrees>-2.79547040350735187530517578125</LongitudeDegrees>
            </Position>
            <AltitudeMeters>87</AltitudeMeters>
            <DistanceMeters>NAN</DistanceMeters>
          </Trackpoint>
          <Trackpoint>
            <Time>2022-07-11T17:59:01.000Z</Time>
            <Position>
              <LatitudeDegrees>43.25308321975171566009521484375</LatitudeDegrees>
              <LongitudeDegrees>-2.79589922167360782623291015625</LongitudeDegrees>
            </Position>
            <AltitudeMeters>86.40000152587890625</AltitudeMeters>
            <DistanceMeters>NAN</DistanceMeters>
          </Trackpoint>
          <Trackpoint>
            <Time>2022-07-11T17:59:02.000Z</Time>
            <Position>
              <LatitudeDegrees>43.25304131023585796356201171875</LatitudeDegrees>
              <LongitudeDegrees>-2.7959485910832881927490234375</LongitudeDegrees>
            </Position>
            <AltitudeMeters>86.40000152587890625</AltitudeMeters>
            <DistanceMeters>NAN</DistanceMeters>
          </Trackpoint>
          <Trackpoint>
            <Time>2022-07-11T17:59:08.000Z</Time>
            <Position>
              <LatitudeDegrees>43.2527971453964710235595703125</LatitudeDegrees>
              <LongitudeDegrees>-2.79629878699779510498046875</LongitudeDegrees>
            </Position>
            <AltitudeMeters>85.40000152587890625</AltitudeMeters>
            <DistanceMeters>NAN</DistanceMeters>
          </Trackpoint>
          <Trackpoint>
            <Time>2022-07-11T17:59:09.000Z</Time>
            <Position>
              <LatitudeDegrees>43.25276236049830913543701171875</LatitudeDegrees>
              <LongitudeDegrees>-2.79635922051966190338134765625</LongitudeDegrees>
            </Position>
            <AltitudeMeters>85.40000152587890625</AltitudeMeters>
            <DistanceMeters>NAN</DistanceMeters>
          </Trackpoint>
          <Trackpoint>
            <Time>2022-07-11T17:59:16.000Z</Time>
            <Position>
              <LatitudeDegrees>43.252529092133045196533203125</LatitudeDegrees>
              <LongitudeDegrees>-2.79681435786187648773193359375</LongitudeDegrees>
            </Position>
            <AltitudeMeters>85.1999969482421875</AltitudeMeters>
            <DistanceMeters>NAN</DistanceMeters>
          </Trackpoint>
          <Trackpoint>
            <Time>2022-07-11T17:59:21.000Z</Time>
            <Position>
              <LatitudeDegrees>43.25237117707729339599609375</LatitudeDegrees>
              <LongitudeDegrees>-2.7971415035426616668701171875</LongitudeDegrees>
            </Position>
            <AltitudeMeters>84.8000030517578125</AltitudeMeters>
            <DistanceMeters>NAN</DistanceMeters>
          </Trackpoint>
          <Trackpoint>
            <Time>2022-07-11T17:59:22.000Z</Time>
            <Position>
              <LatitudeDegrees>43.252334631979465484619140625</LatitudeDegrees>
              <LongitudeDegrees>-2.79720537364482879638671875</LongitudeDegrees>
            </Position>
            <AltitudeMeters>84.40000152587890625</AltitudeMeters>
            <DistanceMeters>NAN</DistanceMeters>
          </Trackpoint>
          <Trackpoint>
            <Time>2022-07-11T17:59:23.000Z</Time>
            <Position>
              <LatitudeDegrees>43.25229833833873271942138671875</LatitudeDegrees>
              <LongitudeDegrees>-2.7972690761089324951171875</LongitudeDegrees>
            </Position>
            <AltitudeMeters>84.40000152587890625</AltitudeMeters>
            <DistanceMeters>NAN</DistanceMeters>
          </Trackpoint>
          <Trackpoint>
            <Time>2022-07-11T17:59:24.000Z</Time>
            <Position>
              <LatitudeDegrees>43.25226380489766597747802734375</LatitudeDegrees>
              <LongitudeDegrees>-2.79733956791460514068603515625</LongitudeDegrees>
            </Position>
            <AltitudeMeters>84.1999969482421875</AltitudeMeters>
            <DistanceMeters>NAN</DistanceMeters>
          </Trackpoint>
          <Trackpoint>
            <Time>2022-07-11T17:59:27.000Z</Time>
            <Position>
              <LatitudeDegrees>43.2521760463714599609375</LatitudeDegrees>
              <LongitudeDegrees>-2.7975572459399700164794921875</LongitudeDegrees>
            </Position>
            <AltitudeMeters>84</AltitudeMeters>
            <DistanceMeters>NAN</DistanceMeters>
          </Trackpoint>
          <Trackpoint>
            <Time>2022-07-11T17:59:35.000Z</Time>
            <Position>
              <LatitudeDegrees>43.2519800774753093719482421875</LatitudeDegrees>
              <LongitudeDegrees>-2.79821530915796756744384765625</LongitudeDegrees>
            </Position>
            <AltitudeMeters>83.8000030517578125</AltitudeMeters>
            <DistanceMeters>NAN</DistanceMeters>
          </Trackpoint>
          <Trackpoint>
            <Time>2022-07-11T17:59:41.000Z</Time>
            <Position>
              <LatitudeDegrees>43.25187362730503082275390625</LatitudeDegrees>
              <LongitudeDegrees>-2.7986991964280605316162109375</LongitudeDegrees>
            </Position>
            <AltitudeMeters>83.1999969482421875</AltitudeMeters>
            <DistanceMeters>NAN</DistanceMeters>
          </Trackpoint>
          <Trackpoint>
            <Time>2022-07-11T17:59:42.000Z</Time>
            <Position>
              <LatitudeDegrees>43.25185745023190975189208984375</LatitudeDegrees>
              <LongitudeDegrees>-2.79877723194658756256103515625</LongitudeDegrees>
            </Position>
            <AltitudeMeters>83.1999969482421875</AltitudeMeters>
            <DistanceMeters>NAN</DistanceMeters>
          </Trackpoint>
          <Trackpoint>
            <Time>2022-07-11T17:59:51.000Z</Time>
            <Position>
              <LatitudeDegrees>43.25171462260186672210693359375</LatitudeDegrees>
              <LongitudeDegrees>-2.79947862960398197174072265625</LongitudeDegrees>
            </Position>
            <AltitudeMeters>82.8000030517578125</AltitudeMeters>
            <DistanceMeters>NAN</DistanceMeters>
          </Trackpoint>
          <Trackpoint>
            <Time>2022-07-11T17:59:55.000Z</Time>
            <Position>
              <LatitudeDegrees>43.251628540456295013427734375</LatitudeDegrees>
              <LongitudeDegrees>-2.799785323441028594970703125</LongitudeDegrees>
            </Position>
            <AltitudeMeters>82.59999847412109375</AltitudeMeters>
            <DistanceMeters>NAN</DistanceMeters>
          </Trackpoint>
          <Trackpoint>
            <Time>2022-07-11T17:59:59.000Z</Time>
            <Position>
              <LatitudeDegrees>43.2515130378305912017822265625</LatitudeDegrees>
              <LongitudeDegrees>-2.80008028261363506317138671875</LongitudeDegrees>
            </Position>
            <AltitudeMeters>82.40000152587890625</AltitudeMeters>
            <DistanceMeters>NAN</DistanceMeters>
          </Trackpoint>
          <Trackpoint>
            <Time>2022-07-11T18:00:00.000Z</Time>
            <Position>
              <LatitudeDegrees>43.25148344971239566802978515625</LatitudeDegrees>
              <LongitudeDegrees>-2.80014918185770511627197265625</LongitudeDegrees>
            </Position>
            <AltitudeMeters>82.1999969482421875</AltitudeMeters>
            <DistanceMeters>NAN</DistanceMeters>
          </Trackpoint>
          <Trackpoint>
            <Time>2022-07-11T18:00:07.000Z</Time>
            <Position>
              <LatitudeDegrees>43.25123400427401065826416015625</LatitudeDegrees>
              <LongitudeDegrees>-2.8006111085414886474609375</LongitudeDegrees>
            </Position>
            <AltitudeMeters>81.8000030517578125</AltitudeMeters>
            <DistanceMeters>NAN</DistanceMeters>
          </Trackpoint>
          <Trackpoint>
            <Time>2022-07-11T18:00:15.000Z</Time>
            <Position>
              <LatitudeDegrees>43.25095119886100292205810546875</LatitudeDegrees>
              <LongitudeDegrees>-2.80110086314380168914794921875</LongitudeDegrees>
            </Position>
            <AltitudeMeters>81.1999969482421875</AltitudeMeters>
            <DistanceMeters>NAN</DistanceMeters>
          </Trackpoint>
          <Trackpoint>
            <Time>2022-07-11T18:00:16.000Z</Time>
            <Position>
              <LatitudeDegrees>43.25091817416250705718994140625</LatitudeDegrees>
              <LongitudeDegrees>-2.80115433968603610992431640625</LongitudeDegrees>
            </Position>
            <AltitudeMeters>81.1999969482421875</AltitudeMeters>
            <DistanceMeters>NAN</DistanceMeters>
          </Trackpoint>
          <Trackpoint>
            <Time>2022-07-11T18:00:21.000Z</Time>
            <Position>
              <LatitudeDegrees>43.25076327659189701080322265625</LatitudeDegrees>
              <LongitudeDegrees>-2.8013881109654903411865234375</LongitudeDegrees>
            </Position>
            <AltitudeMeters>81</AltitudeMeters>
            <DistanceMeters>NAN</DistanceMeters>
          </Trackpoint>
          <Trackpoint>
            <Time>2022-07-11T18:00:28.000Z</Time>
            <Position>
              <LatitudeDegrees>43.25058122165501117706298828125</LatitudeDegrees>
              <LongitudeDegrees>-2.8016960620880126953125</LongitudeDegrees>
            </Position>
            <AltitudeMeters>81.1999969482421875</AltitudeMeters>
            <DistanceMeters>NAN</DistanceMeters>
          </Trackpoint>
          <Trackpoint>
            <Time>2022-07-11T18:00:35.000Z</Time>
            <Position>
              <LatitudeDegrees>43.250440321862697601318359375</LatitudeDegrees>
              <LongitudeDegrees>-2.80201834626495838165283203125</LongitudeDegrees>
            </Position>
            <AltitudeMeters>81.40000152587890625</AltitudeMeters>
            <DistanceMeters>NAN</DistanceMeters>
          </Trackpoint>
          <Trackpoint>
            <Time>2022-07-11T18:00:36.000Z</Time>
            <Position>
              <LatitudeDegrees>43.250412158668041229248046875</LatitudeDegrees>
              <LongitudeDegrees>-2.80203863047063350677490234375</LongitudeDegrees>
            </Position>
            <AltitudeMeters>81.59999847412109375</AltitudeMeters>
            <DistanceMeters>NAN</DistanceMeters>
          </Trackpoint>
          <Trackpoint>
            <Time>2022-07-11T18:00:38.000Z</Time>
            <Position>
              <LatitudeDegrees>43.25033864937722682952880859375</LatitudeDegrees>
              <LongitudeDegrees>-2.80204667709767818450927734375</LongitudeDegrees>
            </Position>
            <AltitudeMeters>81.59999847412109375</AltitudeMeters>
            <DistanceMeters>NAN</DistanceMeters>
          </Trackpoint>
          <Trackpoint>
            <Time>2022-07-11T18:00:41.000Z</Time>
            <Position>
              <LatitudeDegrees>43.25021225027740001678466796875</LatitudeDegrees>
              <LongitudeDegrees>-2.80201055109500885009765625</LongitudeDegrees>
            </Position>
            <AltitudeMeters>81.8000030517578125</AltitudeMeters>
            <DistanceMeters>NAN</DistanceMeters>
          </Trackpoint>
          <Trackpoint>
            <Time>2022-07-11T18:00:43.000Z</Time>
            <Position>
              <LatitudeDegrees>43.25011787004768848419189453125</LatitudeDegrees>
              <LongitudeDegrees>-2.8020170889794826507568359375</LongitudeDegrees>
            </Position>
            <AltitudeMeters>81.59999847412109375</AltitudeMeters>
            <DistanceMeters>NAN</DistanceMeters>
          </Trackpoint>
          <Trackpoint>
            <Time>2022-07-11T18:00:46.000Z</Time>
            <Position>
              <LatitudeDegrees>43.249962218105792999267578125</LatitudeDegrees>
              <LongitudeDegrees>-2.80205748975276947021484375</LongitudeDegrees>
            </Position>
            <AltitudeMeters>81.40000152587890625</AltitudeMeters>
            <DistanceMeters>NAN</DistanceMeters>
          </Trackpoint>
          <Trackpoint>
            <Time>2022-07-11T18:00:49.000Z</Time>
            <Position>
              <LatitudeDegrees>43.24981880374252796173095703125</LatitudeDegrees>
              <LongitudeDegrees>-2.8021354414522647857666015625</LongitudeDegrees>
            </Position>
            <AltitudeMeters>81</AltitudeMeters>
            <DistanceMeters>NAN</DistanceMeters>
          </Trackpoint>
          <Trackpoint>
            <Time>2022-07-11T18:00:56.000Z</Time>
            <Position>
              <LatitudeDegrees>43.2494993694126605987548828125</LatitudeDegrees>
              <LongitudeDegrees>-2.8023791871964931488037109375</LongitudeDegrees>
            </Position>
            <AltitudeMeters>80.40000152587890625</AltitudeMeters>
            <DistanceMeters>NAN</DistanceMeters>
          </Trackpoint>
          <Trackpoint>
            <Time>2022-07-11T18:00:58.000Z</Time>
            <Position>
              <LatitudeDegrees>43.24941026978194713592529296875</LatitudeDegrees>
              <LongitudeDegrees>-2.8024549596011638641357421875</LongitudeDegrees>
            </Position>
            <AltitudeMeters>80.1999969482421875</AltitudeMeters>
            <DistanceMeters>NAN</DistanceMeters>
          </Trackpoint>
          <Trackpoint>
            <Time>2022-07-11T18:01:00.000Z</Time>
            <Position>
              <LatitudeDegrees>43.24931303970515727996826171875</LatitudeDegrees>
              <LongitudeDegrees>-2.80253098346292972564697265625</LongitudeDegrees>
            </Position>
            <AltitudeMeters>80.1999969482421875</AltitudeMeters>
            <DistanceMeters>NAN</DistanceMeters>
          </Trackpoint>
          <Trackpoint>
            <Time>2022-07-11T18:01:05.000Z</Time>
            <Position>
              <LatitudeDegrees>43.2490990497171878814697265625</LatitudeDegrees>
              <LongitudeDegrees>-2.80274488963186740875244140625</LongitudeDegrees>
            </Position>
            <AltitudeMeters>79.8000030517578125</AltitudeMeters>
            <DistanceMeters>NAN</DistanceMeters>
          </Trackpoint>
          <Trackpoint>
            <Time>2022-07-11T18:01:07.000Z</Time>
            <Position>
              <LatitudeDegrees>43.24900341220200061798095703125</LatitudeDegrees>
              <LongitudeDegrees>-2.8028063289821147918701171875</LongitudeDegrees>
            </Position>
            <AltitudeMeters>79.8000030517578125</AltitudeMeters>
            <DistanceMeters>NAN</DistanceMeters>
          </Trackpoint>
          <Trackpoint>
            <Time>2022-07-11T18:01:09.000Z</Time>
            <Position>
              <LatitudeDegrees>43.24894540943205356597900390625</LatitudeDegrees>
              <LongitudeDegrees>-2.80285410583019256591796875</LongitudeDegrees>
            </Position>
            <AltitudeMeters>79.8000030517578125</AltitudeMeters>
            <DistanceMeters>NAN</DistanceMeters>
          </Trackpoint>
          <Trackpoint>
            <Time>2022-07-11T18:01:12.000Z</Time>
            <Position>
              <LatitudeDegrees>43.2488311640918254852294921875</LatitudeDegrees>
              <LongitudeDegrees>-2.80295778997242450714111328125</LongitudeDegrees>
            </Position>
            <AltitudeMeters>79.8000030517578125</AltitudeMeters>
            <DistanceMeters>NAN</DistanceMeters>
          </Trackpoint>
          <Trackpoint>
            <Time>2022-07-11T18:01:14.000Z</Time>
            <Position>
              <LatitudeDegrees>43.24879311025142669677734375</LatitudeDegrees>
              <LongitudeDegrees>-2.80309810303151607513427734375</LongitudeDegrees>
            </Position>
            <AltitudeMeters>79.8000030517578125</AltitudeMeters>
            <DistanceMeters>NAN</DistanceMeters>
          </Trackpoint>
          <Trackpoint>
            <Time>2022-07-11T18:01:16.000Z</Time>
            <Position>
              <LatitudeDegrees>43.2487812079489231109619140625</LatitudeDegrees>
              <LongitudeDegrees>-2.80324847437441349029541015625</LongitudeDegrees>
            </Position>
            <AltitudeMeters>80</AltitudeMeters>
            <DistanceMeters>NAN</DistanceMeters>
          </Trackpoint>
          <Trackpoint>
            <Time>2022-07-11T18:01:22.000Z</Time>
            <Position>
              <LatitudeDegrees>43.2487414777278900146484375</LatitudeDegrees>
              <LongitudeDegrees>-2.8035751171410083770751953125</LongitudeDegrees>
            </Position>
            <AltitudeMeters>80.40000152587890625</AltitudeMeters>
            <DistanceMeters>NAN</DistanceMeters>
          </Trackpoint>
          <Trackpoint>
            <Time>2022-07-11T18:01:27.000Z</Time>
            <Position>
              <LatitudeDegrees>43.248605690896511077880859375</LatitudeDegrees>
              <LongitudeDegrees>-2.80375457368791103363037109375</LongitudeDegrees>
            </Position>
            <AltitudeMeters>80.1999969482421875</AltitudeMeters>
            <DistanceMeters>NAN</DistanceMeters>
          </Trackpoint>
          <Trackpoint>
            <Time>2022-07-11T18:01:33.000Z</Time>
            <Position>
              <LatitudeDegrees>43.24838181026279926300048828125</LatitudeDegrees>
              <LongitudeDegrees>-2.803914584219455718994140625</LongitudeDegrees>
            </Position>
            <AltitudeMeters>80</AltitudeMeters>
            <DistanceMeters>NAN</DistanceMeters>
          </Trackpoint>
          <Trackpoint>
            <Time>2022-07-11T18:01:36.000Z</Time>
            <Position>
              <LatitudeDegrees>43.2482440955936908721923828125</LatitudeDegrees>
              <LongitudeDegrees>-2.8040227107703685760498046875</LongitudeDegrees>
            </Position>
            <AltitudeMeters>79.8000030517578125</AltitudeMeters>
            <DistanceMeters>NAN</DistanceMeters>
          </Trackpoint>
          <Trackpoint>
            <Time>2022-07-11T18:01:37.000Z</Time>
            <Position>
              <LatitudeDegrees>43.2481964863836765289306640625</LatitudeDegrees>
              <LongitudeDegrees>-2.80405749566853046417236328125</LongitudeDegrees>
            </Position>
            <AltitudeMeters>79.59999847412109375</AltitudeMeters>
            <DistanceMeters>NAN</DistanceMeters>
          </Trackpoint>
          <Trackpoint>
            <Time>2022-07-11T18:01:39.000Z</Time>
            <Position>
              <LatitudeDegrees>43.24810839258134365081787109375</LatitudeDegrees>
              <LongitudeDegrees>-2.804162018001079559326171875</LongitudeDegrees>
            </Position>
            <AltitudeMeters>79.40000152587890625</AltitudeMeters>
            <DistanceMeters>NAN</DistanceMeters>
          </Trackpoint>
          <Trackpoint>
            <Time>2022-07-11T18:01:40.000Z</Time>
            <Position>
              <LatitudeDegrees>43.24806430377066135406494140625</LatitudeDegrees>
              <LongitudeDegrees>-2.804222367703914642333984375</LongitudeDegrees>
            </Position>
            <AltitudeMeters>79.1999969482421875</AltitudeMeters>
            <DistanceMeters>NAN</DistanceMeters>
          </Trackpoint>
          <Trackpoint>
            <Time>2022-07-11T18:01:42.000Z</Time>
            <Position>
              <LatitudeDegrees>43.24797361157834529876708984375</LatitudeDegrees>
              <LongitudeDegrees>-2.804332673549652099609375</LongitudeDegrees>
            </Position>
            <AltitudeMeters>79</AltitudeMeters>
            <DistanceMeters>NAN</DistanceMeters>
          </Trackpoint>
          <Trackpoint>
            <Time>2022-07-11T18:01:46.000Z</Time>
            <Position>
              <LatitudeDegrees>43.2477780617773532867431640625</LatitudeDegrees>
              <LongitudeDegrees>-2.80451682396233081817626953125</LongitudeDegrees>
            </Position>
            <AltitudeMeters>78.40000152587890625</AltitudeMeters>
            <DistanceMeters>NAN</DistanceMeters>
          </Trackpoint>
          <Trackpoint>
            <Time>2022-07-11T18:01:47.000Z</Time>
            <Position>
              <LatitudeDegrees>43.24772332794964313507080078125</LatitudeDegrees>
              <LongitudeDegrees>-2.80455730855464935302734375</LongitudeDegrees>
            </Position>
            <AltitudeMeters>78.40000152587890625</AltitudeMeters>
            <DistanceMeters>NAN</DistanceMeters>
          </Trackpoint>
          <Trackpoint>
            <Time>2022-07-11T18:01:49.000Z</Time>
            <Position>
              <LatitudeDegrees>43.24762056581676006317138671875</LatitudeDegrees>
              <LongitudeDegrees>-2.80463567934930324554443359375</LongitudeDegrees>
            </Position>
            <AltitudeMeters>78</AltitudeMeters>
            <DistanceMeters>NAN</DistanceMeters>
          </Trackpoint>
          <Trackpoint>
            <Time>2022-07-11T18:01:50.000Z</Time>
            <Position>
              <LatitudeDegrees>43.247573375701904296875</LatitudeDegrees>
              <LongitudeDegrees>-2.8046786785125732421875</LongitudeDegrees>
            </Position>
            <AltitudeMeters>78</AltitudeMeters>
            <DistanceMeters>NAN</DistanceMeters>
          </Trackpoint>
          <Trackpoint>
            <Time>2022-07-11T18:01:52.000Z</Time>
            <Position>
              <LatitudeDegrees>43.2474793307483196258544921875</LatitudeDegrees>
              <LongitudeDegrees>-2.80477280728518962860107421875</LongitudeDegrees>
            </Position>
            <AltitudeMeters>78</AltitudeMeters>
            <DistanceMeters>NAN</DistanceMeters>
          </Trackpoint>
          <Trackpoint>
            <Time>2022-07-11T18:01:58.000Z</Time>
            <Position>
              <LatitudeDegrees>43.24719644151628017425537109375</LatitudeDegrees>
              <LongitudeDegrees>-2.805008254945278167724609375</LongitudeDegrees>
            </Position>
            <AltitudeMeters>78</AltitudeMeters>
            <DistanceMeters>NAN</DistanceMeters>
          </Trackpoint>
          <Trackpoint>
            <Time>2022-07-11T18:01:59.000Z</Time>
            <Position>
              <LatitudeDegrees>43.2471477426588535308837890625</LatitudeDegrees>
              <LongitudeDegrees>-2.80503348447382450103759765625</LongitudeDegrees>
            </Position>
            <AltitudeMeters>78</AltitudeMeters>
            <DistanceMeters>NAN</DistanceMeters>
          </Trackpoint>
          <Trackpoint>
            <Time>2022-07-11T18:02:05.000Z</Time>
            <Position>
              <LatitudeDegrees>43.24684876017272472381591796875</LatitudeDegrees>
              <LongitudeDegrees>-2.80516558326780796051025390625</LongitudeDegrees>
            </Position>
            <AltitudeMeters>78.40000152587890625</AltitudeMeters>
            <DistanceMeters>NAN</DistanceMeters>
          </Trackpoint>
          <Trackpoint>
            <Time>2022-07-11T18:02:06.000Z</Time>
            <Position>
              <LatitudeDegrees>43.24679997749626636505126953125</LatitudeDegrees>
              <LongitudeDegrees>-2.80518301762640476226806640625</LongitudeDegrees>
            </Position>
            <AltitudeMeters>78.40000152587890625</AltitudeMeters>
            <DistanceMeters>NAN</DistanceMeters>
          </Trackpoint>
          <Trackpoint>
            <Time>2022-07-11T18:02:07.000Z</Time>
            <Position>
              <LatitudeDegrees>43.24674884788691997528076171875</LatitudeDegrees>
              <LongitudeDegrees>-2.80519726686179637908935546875</LongitudeDegrees>
            </Position>
            <AltitudeMeters>78.40000152587890625</AltitudeMeters>
            <DistanceMeters>NAN</DistanceMeters>
          </Trackpoint>
          <Trackpoint>
            <Time>2022-07-11T18:02:09.000Z</Time>
            <Position>
              <LatitudeDegrees>43.24665077961981296539306640625</LatitudeDegrees>
              <LongitudeDegrees>-2.80521755106747150421142578125</LongitudeDegrees>
            </Position>
            <AltitudeMeters>78.40000152587890625</AltitudeMeters>
            <DistanceMeters>NAN</DistanceMeters>
          </Trackpoint>
          <Trackpoint>
            <Time>2022-07-11T18:02:13.000Z</Time>
            <Position>
              <LatitudeDegrees>43.2464617677032947540283203125</LatitudeDegrees>
              <LongitudeDegrees>-2.80525912530720233917236328125</LongitudeDegrees>
            </Position>
            <AltitudeMeters>78.59999847412109375</AltitudeMeters>
            <DistanceMeters>NAN</DistanceMeters>
          </Trackpoint>
          <Trackpoint>
            <Time>2022-07-11T18:02:15.000Z</Time>
            <Position>
              <LatitudeDegrees>43.24637568555772304534912109375</LatitudeDegrees>
              <LongitudeDegrees>-2.80527211725711822509765625</LongitudeDegrees>
            </Position>
            <AltitudeMeters>78.59999847412109375</AltitudeMeters>
            <DistanceMeters>NAN</DistanceMeters>
          </Trackpoint>
          <Trackpoint>
            <Time>2022-07-11T18:02:19.000Z</Time>
            <Position>
              <LatitudeDegrees>43.2461828179657459259033203125</LatitudeDegrees>
              <LongitudeDegrees>-2.8052915632724761962890625</LongitudeDegrees>
            </Position>
            <AltitudeMeters>78.8000030517578125</AltitudeMeters>
            <DistanceMeters>NAN</DistanceMeters>
          </Trackpoint>
          <Trackpoint>
            <Time>2022-07-11T18:02:21.000Z</Time>
            <Position>
              <LatitudeDegrees>43.24609749019145965576171875</LatitudeDegrees>
              <LongitudeDegrees>-2.8053111769258975982666015625</LongitudeDegrees>
            </Position>
            <AltitudeMeters>78.8000030517578125</AltitudeMeters>
            <DistanceMeters>NAN</DistanceMeters>
          </Trackpoint>
          <Trackpoint>
            <Time>2022-07-11T18:02:23.000Z</Time>
            <Position>
              <LatitudeDegrees>43.24601928703486919403076171875</LatitudeDegrees>
              <LongitudeDegrees>-2.80532014556229114532470703125</LongitudeDegrees>
            </Position>
            <AltitudeMeters>78.8000030517578125</AltitudeMeters>
            <DistanceMeters>NAN</DistanceMeters>
          </Trackpoint>
          <Trackpoint>
            <Time>2022-07-11T18:02:26.000Z</Time>
            <Position>
              <LatitudeDegrees>43.24589992873370647430419921875</LatitudeDegrees>
              <LongitudeDegrees>-2.8053242526948451995849609375</LongitudeDegrees>
            </Position>
            <AltitudeMeters>78.8000030517578125</AltitudeMeters>
            <DistanceMeters>NAN</DistanceMeters>
          </Trackpoint>
          <Trackpoint>
            <Time>2022-07-11T18:02:29.000Z</Time>
            <Position>
              <LatitudeDegrees>43.2457841746509075164794921875</LatitudeDegrees>
              <LongitudeDegrees>-2.80532844364643096923828125</LongitudeDegrees>
            </Position>
            <AltitudeMeters>79</AltitudeMeters>
            <DistanceMeters>NAN</DistanceMeters>
          </Trackpoint>
          <Trackpoint>
            <Time>2022-07-11T18:02:30.000Z</Time>
            <Position>
              <LatitudeDegrees>43.2457459531724452972412109375</LatitudeDegrees>
              <LongitudeDegrees>-2.80532903037965297698974609375</LongitudeDegrees>
            </Position>
            <AltitudeMeters>79</AltitudeMeters>
            <DistanceMeters>NAN</DistanceMeters>
          </Trackpoint>
          <Trackpoint>
            <Time>2022-07-11T18:02:36.000Z</Time>
            <Position>
              <LatitudeDegrees>43.2455035485327243804931640625</LatitudeDegrees>
              <LongitudeDegrees>-2.8053074888885021209716796875</LongitudeDegrees>
            </Position>
            <AltitudeMeters>79</AltitudeMeters>
            <DistanceMeters>NAN</DistanceMeters>
          </Trackpoint>
          <Trackpoint>
            <Time>2022-07-11T18:02:44.000Z</Time>
            <Position>
              <LatitudeDegrees>43.24516416527330875396728515625</LatitudeDegrees>
              <LongitudeDegrees>-2.80528661794960498809814453125</LongitudeDegrees>
            </Position>
            <AltitudeMeters>79</AltitudeMeters>
            <DistanceMeters>NAN</DistanceMeters>
          </Trackpoint>
          <Trackpoint>
            <Time>2022-07-11T18:02:50.000Z</Time>
            <Position>
              <LatitudeDegrees>43.24487842619419097900390625</LatitudeDegrees>
              <LongitudeDegrees>-2.8052491508424282073974609375</LongitudeDegrees>
            </Position>
            <AltitudeMeters>78.8000030517578125</AltitudeMeters>
            <DistanceMeters>NAN</DistanceMeters>
          </Trackpoint>
          <Trackpoint>
            <Time>2022-07-11T18:02:52.000Z</Time>
            <Position>
              <LatitudeDegrees>43.2447682879865169525146484375</LatitudeDegrees>
              <LongitudeDegrees>-2.80522383749485015869140625</LongitudeDegrees>
            </Position>
            <AltitudeMeters>78.8000030517578125</AltitudeMeters>
            <DistanceMeters>NAN</DistanceMeters>
          </Trackpoint>
          <Trackpoint>
            <Time>2022-07-11T18:02:56.000Z</Time>
            <Position>
              <LatitudeDegrees>43.24453954584896564483642578125</LatitudeDegrees>
              <LongitudeDegrees>-2.80519257299602031707763671875</LongitudeDegrees>
            </Position>
            <AltitudeMeters>78.40000152587890625</AltitudeMeters>
            <DistanceMeters>NAN</DistanceMeters>
          </Trackpoint>
          <Trackpoint>
            <Time>2022-07-11T18:02:57.000Z</Time>
            <Position>
              <LatitudeDegrees>43.2444903440773487091064453125</LatitudeDegrees>
              <LongitudeDegrees>-2.80518494546413421630859375</LongitudeDegrees>
            </Position>
            <AltitudeMeters>78.40000152587890625</AltitudeMeters>
            <DistanceMeters>NAN</DistanceMeters>
          </Trackpoint>
          <Trackpoint>
            <Time>2022-07-11T18:02:59.000Z</Time>
            <Position>
              <LatitudeDegrees>43.24438565410673618316650390625</LatitudeDegrees>
              <LongitudeDegrees>-2.8051579557359218597412109375</LongitudeDegrees>
            </Position>
            <AltitudeMeters>78.1999969482421875</AltitudeMeters>
            <DistanceMeters>NAN</DistanceMeters>
          </Trackpoint>
          <Trackpoint>
            <Time>2022-07-11T18:03:01.000Z</Time>
            <Position>
              <LatitudeDegrees>43.24426956474781036376953125</LatitudeDegrees>
              <LongitudeDegrees>-2.8051200695335865020751953125</LongitudeDegrees>
            </Position>
            <AltitudeMeters>78</AltitudeMeters>
            <DistanceMeters>NAN</DistanceMeters>
          </Trackpoint>
          <Trackpoint>
            <Time>2022-07-11T18:03:02.000Z</Time>
            <Position>
              <LatitudeDegrees>43.24421189725399017333984375</LatitudeDegrees>
              <LongitudeDegrees>-2.8050996176898479461669921875</LongitudeDegrees>
            </Position>
            <AltitudeMeters>77.8000030517578125</AltitudeMeters>
            <DistanceMeters>NAN</DistanceMeters>
          </Trackpoint>
          <Trackpoint>
            <Time>2022-07-11T18:03:03.000Z</Time>
            <Position>
              <LatitudeDegrees>43.2441493682563304901123046875</LatitudeDegrees>
              <LongitudeDegrees>-2.8050791658461093902587890625</LongitudeDegrees>
            </Position>
            <AltitudeMeters>77.8000030517578125</AltitudeMeters>
            <DistanceMeters>NAN</DistanceMeters>
          </Trackpoint>
          <Trackpoint>
            <Time>2022-07-11T18:03:05.000Z</Time>
            <Position>
              <LatitudeDegrees>43.24402774684131145477294921875</LatitudeDegrees>
              <LongitudeDegrees>-2.80503013171255588531494140625</LongitudeDegrees>
            </Position>
            <AltitudeMeters>77.59999847412109375</AltitudeMeters>
            <DistanceMeters>NAN</DistanceMeters>
          </Trackpoint>
          <Trackpoint>
            <Time>2022-07-11T18:03:07.000Z</Time>
            <Position>
              <LatitudeDegrees>43.24388600885868072509765625</LatitudeDegrees>
              <LongitudeDegrees>-2.804978080093860626220703125</LongitudeDegrees>
            </Position>
            <AltitudeMeters>77.59999847412109375</AltitudeMeters>
            <DistanceMeters>NAN</DistanceMeters>
          </Trackpoint>
          <Trackpoint>
            <Time>2022-07-11T18:03:09.000Z</Time>
            <Position>
              <LatitudeDegrees>43.2437487132847309112548828125</LatitudeDegrees>
              <LongitudeDegrees>-2.804934494197368621826171875</LongitudeDegrees>
            </Position>
            <AltitudeMeters>77.40000152587890625</AltitudeMeters>
            <DistanceMeters>NAN</DistanceMeters>
          </Trackpoint>
          <Trackpoint>
            <Time>2022-07-11T18:03:15.000Z</Time>
            <Position>
              <LatitudeDegrees>43.24340798892080783843994140625</LatitudeDegrees>
              <LongitudeDegrees>-2.80482360161840915679931640625</LongitudeDegrees>
            </Position>
            <AltitudeMeters>77</AltitudeMeters>
            <DistanceMeters>NAN</DistanceMeters>
          </Trackpoint>
          <Trackpoint>
            <Time>2022-07-11T18:03:16.000Z</Time>
            <Position>
              <LatitudeDegrees>43.243349231779575347900390625</LatitudeDegrees>
              <LongitudeDegrees>-2.8047968633472919464111328125</LongitudeDegrees>
            </Position>
            <AltitudeMeters>76.8000030517578125</AltitudeMeters>
            <DistanceMeters>NAN</DistanceMeters>
          </Trackpoint>
          <Trackpoint>
            <Time>2022-07-11T18:03:17.000Z</Time>
            <Position>
              <LatitudeDegrees>43.2432964257895946502685546875</LatitudeDegrees>
              <LongitudeDegrees>-2.8047717176377773284912109375</LongitudeDegrees>
            </Position>
            <AltitudeMeters>76.8000030517578125</AltitudeMeters>
            <DistanceMeters>NAN</DistanceMeters>
          </Trackpoint>
          <Trackpoint>
            <Time>2022-07-11T18:03:19.000Z</Time>
            <Position>
              <LatitudeDegrees>43.24322124011814594268798828125</LatitudeDegrees>
              <LongitudeDegrees>-2.8047210909426212310791015625</LongitudeDegrees>
            </Position>
            <AltitudeMeters>76.59999847412109375</AltitudeMeters>
            <DistanceMeters>NAN</DistanceMeters>
          </Trackpoint>
          <Trackpoint>
            <Time>2022-07-11T18:03:23.000Z</Time>
            <Position>
              <LatitudeDegrees>43.2430741377174854278564453125</LatitudeDegrees>
              <LongitudeDegrees>-2.804600894451141357421875</LongitudeDegrees>
            </Position>
            <AltitudeMeters>76.40000152587890625</AltitudeMeters>
            <DistanceMeters>NAN</DistanceMeters>
          </Trackpoint>
          <Trackpoint>
            <Time>2022-07-11T18:03:24.000Z</Time>
            <Position>
              <LatitudeDegrees>43.24303046800196170806884765625</LatitudeDegrees>
              <LongitudeDegrees>-2.804550267755985260009765625</LongitudeDegrees>
            </Position>
            <AltitudeMeters>76.40000152587890625</AltitudeMeters>
            <DistanceMeters>NAN</DistanceMeters>
          </Trackpoint>
          <Trackpoint>
            <Time>2022-07-11T18:03:27.000Z</Time>
            <Position>
              <LatitudeDegrees>43.2429051585495471954345703125</LatitudeDegrees>
              <LongitudeDegrees>-2.8044069372117519378662109375</LongitudeDegrees>
            </Position>
            <AltitudeMeters>76.40000152587890625</AltitudeMeters>
            <DistanceMeters>NAN</DistanceMeters>
          </Trackpoint>
          <Trackpoint>
            <Time>2022-07-11T18:03:30.000Z</Time>
            <Position>
              <LatitudeDegrees>43.2427982054650783538818359375</LatitudeDegrees>
              <LongitudeDegrees>-2.8042248822748661041259765625</LongitudeDegrees>
            </Position>
            <AltitudeMeters>76.40000152587890625</AltitudeMeters>
            <DistanceMeters>NAN</DistanceMeters>
          </Trackpoint>
          <Trackpoint>
            <Time>2022-07-11T18:03:31.000Z</Time>
            <Position>
              <LatitudeDegrees>43.2427807711064815521240234375</LatitudeDegrees>
              <LongitudeDegrees>-2.80417886562645435333251953125</LongitudeDegrees>
            </Position>
            <AltitudeMeters>76.40000152587890625</AltitudeMeters>
            <DistanceMeters>NAN</DistanceMeters>
          </Trackpoint>
          <Trackpoint>
            <Time>2022-07-11T18:03:39.000Z</Time>
            <Position>
              <LatitudeDegrees>43.242545239627361297607421875</LatitudeDegrees>
              <LongitudeDegrees>-2.80370092950761318206787109375</LongitudeDegrees>
            </Position>
            <AltitudeMeters>76</AltitudeMeters>
            <DistanceMeters>NAN</DistanceMeters>
          </Trackpoint>
          <Trackpoint>
            <Time>2022-07-11T18:03:40.000Z</Time>
            <Position>
              <LatitudeDegrees>43.24252621270716190338134765625</LatitudeDegrees>
              <LongitudeDegrees>-2.80364259146153926849365234375</LongitudeDegrees>
            </Position>
            <AltitudeMeters>76</AltitudeMeters>
            <DistanceMeters>NAN</DistanceMeters>
          </Trackpoint>
          <Trackpoint>
            <Time>2022-07-11T18:03:42.000Z</Time>
            <Position>
              <LatitudeDegrees>43.24248187243938446044921875</LatitudeDegrees>
              <LongitudeDegrees>-2.80353748239576816558837890625</LongitudeDegrees>
            </Position>
            <AltitudeMeters>75.8000030517578125</AltitudeMeters>
            <DistanceMeters>NAN</DistanceMeters>
          </Trackpoint>
          <Trackpoint>
            <Time>2022-07-11T18:03:43.000Z</Time>
            <Position>
              <LatitudeDegrees>43.24245681054890155792236328125</LatitudeDegrees>
              <LongitudeDegrees>-2.80348886735737323760986328125</LongitudeDegrees>
            </Position>
            <AltitudeMeters>75.8000030517578125</AltitudeMeters>
            <DistanceMeters>NAN</DistanceMeters>
          </Trackpoint>
          <Trackpoint>
            <Time>2022-07-11T18:03:44.000Z</Time>
            <Position>
              <LatitudeDegrees>43.24240744113922119140625</LatitudeDegrees>
              <LongitudeDegrees>-2.8034400008618831634521484375</LongitudeDegrees>
            </Position>
            <AltitudeMeters>75.59999847412109375</AltitudeMeters>
            <DistanceMeters>NAN</DistanceMeters>
          </Trackpoint>
          <Trackpoint>
            <Time>2022-07-11T18:03:47.000Z</Time>
            <Position>
              <LatitudeDegrees>43.242243491113185882568359375</LatitudeDegrees>
              <LongitudeDegrees>-2.803313098847866058349609375</LongitudeDegrees>
            </Position>
            <AltitudeMeters>75.40000152587890625</AltitudeMeters>
            <DistanceMeters>NAN</DistanceMeters>
          </Trackpoint>
          <Trackpoint>
            <Time>2022-07-11T18:03:54.000Z</Time>
            <Position>
              <LatitudeDegrees>43.241783492267131805419921875</LatitudeDegrees>
              <LongitudeDegrees>-2.80299936421215534210205078125</LongitudeDegrees>
            </Position>
            <AltitudeMeters>75.1999969482421875</AltitudeMeters>
            <DistanceMeters>NAN</DistanceMeters>
          </Trackpoint>
          <Trackpoint>
            <Time>2022-07-11T18:03:59.000Z</Time>
            <Position>
              <LatitudeDegrees>43.241452910006046295166015625</LatitudeDegrees>
              <LongitudeDegrees>-2.80288872309029102325439453125</LongitudeDegrees>
            </Position>
            <AltitudeMeters>75.1999969482421875</AltitudeMeters>
            <DistanceMeters>NAN</DistanceMeters>
          </Trackpoint>
          <Trackpoint>
            <Time>2022-07-11T18:04:01.000Z</Time>
            <Position>
              <LatitudeDegrees>43.2413474656641483306884765625</LatitudeDegrees>
              <LongitudeDegrees>-2.80286810360848903656005859375</LongitudeDegrees>
            </Position>
            <AltitudeMeters>75.1999969482421875</AltitudeMeters>
            <DistanceMeters>NAN</DistanceMeters>
          </Trackpoint>
          <Trackpoint>
            <Time>2022-07-11T18:04:05.000Z</Time>
            <Position>
              <LatitudeDegrees>43.241133056581020355224609375</LatitudeDegrees>
              <LongitudeDegrees>-2.80286491848528385162353515625</LongitudeDegrees>
            </Position>
            <AltitudeMeters>74.8000030517578125</AltitudeMeters>
            <DistanceMeters>NAN</DistanceMeters>
          </Trackpoint>
          <Trackpoint>
            <Time>2022-07-11T18:04:06.000Z</Time>
            <Position>
              <LatitudeDegrees>43.241079412400722503662109375</LatitudeDegrees>
              <LongitudeDegrees>-2.80287095345556735992431640625</LongitudeDegrees>
            </Position>
            <AltitudeMeters>74.8000030517578125</AltitudeMeters>
            <DistanceMeters>NAN</DistanceMeters>
          </Trackpoint>
          <Trackpoint>
            <Time>2022-07-11T18:04:12.000Z</Time>
            <Position>
              <LatitudeDegrees>43.24072661809623241424560546875</LatitudeDegrees>
              <LongitudeDegrees>-2.80295074917376041412353515625</LongitudeDegrees>
            </Position>
            <AltitudeMeters>74.8000030517578125</AltitudeMeters>
            <DistanceMeters>NAN</DistanceMeters>
          </Trackpoint>
          <Trackpoint>
            <Time>2022-07-11T18:04:13.000Z</Time>
            <Position>
              <LatitudeDegrees>43.2406755723059177398681640625</LatitudeDegrees>
              <LongitudeDegrees>-2.80297438614070415496826171875</LongitudeDegrees>
            </Position>
            <AltitudeMeters>74.8000030517578125</AltitudeMeters>
            <DistanceMeters>NAN</DistanceMeters>
          </Trackpoint>
          <Trackpoint>
            <Time>2022-07-11T18:04:19.000Z</Time>
            <Position>
              <LatitudeDegrees>43.24036083184182643890380859375</LatitudeDegrees>
              <LongitudeDegrees>-2.80313028953969478607177734375</LongitudeDegrees>
            </Position>
            <AltitudeMeters>74.59999847412109375</AltitudeMeters>
            <DistanceMeters>NAN</DistanceMeters>
          </Trackpoint>
          <Trackpoint>
            <Time>2022-07-11T18:04:27.000Z</Time>
            <Position>
              <LatitudeDegrees>43.23994810692965984344482421875</LatitudeDegrees>
              <LongitudeDegrees>-2.80332022346556186676025390625</LongitudeDegrees>
            </Position>
            <AltitudeMeters>74.59999847412109375</AltitudeMeters>
            <DistanceMeters>NAN</DistanceMeters>
          </Trackpoint>
          <Trackpoint>
            <Time>2022-07-11T18:04:28.000Z</Time>
            <Position>
              <LatitudeDegrees>43.2398987375199794769287109375</LatitudeDegrees>
              <LongitudeDegrees>-2.80334495007991790771484375</LongitudeDegrees>
            </Position>
            <AltitudeMeters>74.59999847412109375</AltitudeMeters>
            <DistanceMeters>NAN</DistanceMeters>
          </Trackpoint>
          <Trackpoint>
            <Time>2022-07-11T18:04:30.000Z</Time>
            <Position>
              <LatitudeDegrees>43.2398035190999507904052734375</LatitudeDegrees>
              <LongitudeDegrees>-2.80339188873767852783203125</LongitudeDegrees>
            </Position>
            <AltitudeMeters>74.59999847412109375</AltitudeMeters>
            <DistanceMeters>NAN</DistanceMeters>
          </Trackpoint>
          <Trackpoint>
            <Time>2022-07-11T18:04:34.000Z</Time>
            <Position>
              <LatitudeDegrees>43.2395899482071399688720703125</LatitudeDegrees>
              <LongitudeDegrees>-2.80343622900545597076416015625</LongitudeDegrees>
            </Position>
            <AltitudeMeters>74.40000152587890625</AltitudeMeters>
            <DistanceMeters>NAN</DistanceMeters>
          </Trackpoint>
          <Trackpoint>
            <Time>2022-07-11T18:04:41.000Z</Time>
            <Position>
              <LatitudeDegrees>43.23922826908528804779052734375</LatitudeDegrees>
              <LongitudeDegrees>-2.803470678627490997314453125</LongitudeDegrees>
            </Position>
            <AltitudeMeters>74.40000152587890625</AltitudeMeters>
            <DistanceMeters>NAN</DistanceMeters>
          </Trackpoint>
          <Trackpoint>
            <Time>2022-07-11T18:04:47.000Z</Time>
            <Position>
              <LatitudeDegrees>43.23892316780984401702880859375</LatitudeDegrees>
              <LongitudeDegrees>-2.8034220635890960693359375</LongitudeDegrees>
            </Position>
            <AltitudeMeters>74.40000152587890625</AltitudeMeters>
            <DistanceMeters>NAN</DistanceMeters>
          </Trackpoint>
          <Trackpoint>
            <Time>2022-07-11T18:04:54.000Z</Time>
            <Position>
              <LatitudeDegrees>43.2385383546352386474609375</LatitudeDegrees>
              <LongitudeDegrees>-2.80332139693200588226318359375</LongitudeDegrees>
            </Position>
            <AltitudeMeters>73.8000030517578125</AltitudeMeters>
            <DistanceMeters>NAN</DistanceMeters>
          </Trackpoint>
          <Trackpoint>
            <Time>2022-07-11T18:04:55.000Z</Time>
            <Position>
              <LatitudeDegrees>43.23847741819918155670166015625</LatitudeDegrees>
              <LongitudeDegrees>-2.80331200920045375823974609375</LongitudeDegrees>
            </Position>
            <AltitudeMeters>73.8000030517578125</AltitudeMeters>
            <DistanceMeters>NAN</DistanceMeters>
          </Trackpoint>
          <Trackpoint>
            <Time>2022-07-11T18:04:56.000Z</Time>
            <Position>
              <LatitudeDegrees>43.23841790668666362762451171875</LatitudeDegrees>
              <LongitudeDegrees>-2.8033042140305042266845703125</LongitudeDegrees>
            </Position>
            <AltitudeMeters>73.8000030517578125</AltitudeMeters>
            <DistanceMeters>NAN</DistanceMeters>
          </Trackpoint>
          <Trackpoint>
            <Time>2022-07-11T18:04:58.000Z</Time>
            <Position>
              <LatitudeDegrees>43.23829335160553455352783203125</LatitudeDegrees>
              <LongitudeDegrees>-2.8033025376498699188232421875</LongitudeDegrees>
            </Position>
            <AltitudeMeters>73.8000030517578125</AltitudeMeters>
            <DistanceMeters>NAN</DistanceMeters>
          </Trackpoint>
          <Trackpoint>
            <Time>2022-07-11T18:05:00.000Z</Time>
            <Position>
              <LatitudeDegrees>43.23817650787532329559326171875</LatitudeDegrees>
              <LongitudeDegrees>-2.80330513603985309600830078125</LongitudeDegrees>
            </Position>
            <AltitudeMeters>73.8000030517578125</AltitudeMeters>
            <DistanceMeters>NAN</DistanceMeters>
          </Trackpoint>
          <Trackpoint>
            <Time>2022-07-11T18:05:02.000Z</Time>
            <Position>
              <LatitudeDegrees>43.23805899359285831451416015625</LatitudeDegrees>
              <LongitudeDegrees>-2.803315781056880950927734375</LongitudeDegrees>
            </Position>
            <AltitudeMeters>73.8000030517578125</AltitudeMeters>
            <DistanceMeters>NAN</DistanceMeters>
          </Trackpoint>
          <Trackpoint>
            <Time>2022-07-11T18:05:07.000Z</Time>
            <Position>
              <LatitudeDegrees>43.23781122453510761260986328125</LatitudeDegrees>
              <LongitudeDegrees>-2.80340270139276981353759765625</LongitudeDegrees>
            </Position>
            <AltitudeMeters>73.8000030517578125</AltitudeMeters>
            <DistanceMeters>NAN</DistanceMeters>
          </Trackpoint>
          <Trackpoint>
            <Time>2022-07-11T18:05:08.000Z</Time>
            <Position>
              <LatitudeDegrees>43.2377556525170803070068359375</LatitudeDegrees>
              <LongitudeDegrees>-2.803408987820148468017578125</LongitudeDegrees>
            </Position>
            <AltitudeMeters>73.59999847412109375</AltitudeMeters>
            <DistanceMeters>NAN</DistanceMeters>
          </Trackpoint>
          <Trackpoint>
            <Time>2022-07-11T18:05:12.000Z</Time>
            <Position>
              <LatitudeDegrees>43.23753981851041316986083984375</LatitudeDegrees>
              <LongitudeDegrees>-2.80346154235303401947021484375</LongitudeDegrees>
            </Position>
            <AltitudeMeters>73.40000152587890625</AltitudeMeters>
            <DistanceMeters>NAN</DistanceMeters>
          </Trackpoint>
          <Trackpoint>
            <Time>2022-07-11T18:05:17.000Z</Time>
            <Position>
              <LatitudeDegrees>43.23729489929974079132080078125</LatitudeDegrees>
              <LongitudeDegrees>-2.8035536594688892364501953125</LongitudeDegrees>
            </Position>
            <AltitudeMeters>73.40000152587890625</AltitudeMeters>
            <DistanceMeters>NAN</DistanceMeters>
          </Trackpoint>
          <Trackpoint>
            <Time>2022-07-11T18:05:22.000Z</Time>
            <Position>
              <LatitudeDegrees>43.2370579428970813751220703125</LatitudeDegrees>
              <LongitudeDegrees>-2.8036448545753955841064453125</LongitudeDegrees>
            </Position>
            <AltitudeMeters>72.8000030517578125</AltitudeMeters>
            <DistanceMeters>NAN</DistanceMeters>
          </Trackpoint>
          <Trackpoint>
            <Time>2022-07-11T18:05:24.000Z</Time>
            <Position>
              <LatitudeDegrees>43.23696725070476531982421875</LatitudeDegrees>
              <LongitudeDegrees>-2.80367813073098659515380859375</LongitudeDegrees>
            </Position>
            <AltitudeMeters>72.59999847412109375</AltitudeMeters>
            <DistanceMeters>NAN</DistanceMeters>
          </Trackpoint>
          <Trackpoint>
            <Time>2022-07-11T18:05:26.000Z</Time>
            <Position>
              <LatitudeDegrees>43.23688267730176448822021484375</LatitudeDegrees>
              <LongitudeDegrees>-2.80373177491128444671630859375</LongitudeDegrees>
            </Position>
            <AltitudeMeters>72.40000152587890625</AltitudeMeters>
            <DistanceMeters>NAN</DistanceMeters>
          </Trackpoint>
          <Trackpoint>
            <Time>2022-07-11T18:05:28.000Z</Time>
            <Position>
              <LatitudeDegrees>43.23680363595485687255859375</LatitudeDegrees>
              <LongitudeDegrees>-2.8037920407950878143310546875</LongitudeDegrees>
            </Position>
            <AltitudeMeters>72.40000152587890625</AltitudeMeters>
            <DistanceMeters>NAN</DistanceMeters>
          </Trackpoint>
          <Trackpoint>
            <Time>2022-07-11T18:05:31.000Z</Time>
            <Position>
              <LatitudeDegrees>43.23669240809977054595947265625</LatitudeDegrees>
              <LongitudeDegrees>-2.8039241395890712738037109375</LongitudeDegrees>
            </Position>
            <AltitudeMeters>72.40000152587890625</AltitudeMeters>
            <DistanceMeters>NAN</DistanceMeters>
          </Trackpoint>
          <Trackpoint>
            <Time>2022-07-11T18:05:37.000Z</Time>
            <Position>
              <LatitudeDegrees>43.2364960201084613800048828125</LatitudeDegrees>
              <LongitudeDegrees>-2.80428648926317691802978515625</LongitudeDegrees>
            </Position>
            <AltitudeMeters>71.59999847412109375</AltitudeMeters>
            <DistanceMeters>NAN</DistanceMeters>
          </Trackpoint>
          <Trackpoint>
            <Time>2022-07-11T18:05:38.000Z</Time>
            <Position>
              <LatitudeDegrees>43.23646794073283672332763671875</LatitudeDegrees>
              <LongitudeDegrees>-2.80436092056334018707275390625</LongitudeDegrees>
            </Position>
            <AltitudeMeters>71.59999847412109375</AltitudeMeters>
            <DistanceMeters>NAN</DistanceMeters>
          </Trackpoint>
          <Trackpoint>
            <Time>2022-07-11T18:05:41.000Z</Time>
            <Position>
              <LatitudeDegrees>43.2364185713231563568115234375</LatitudeDegrees>
              <LongitudeDegrees>-2.80460961163043975830078125</LongitudeDegrees>
            </Position>
            <AltitudeMeters>71</AltitudeMeters>
            <DistanceMeters>NAN</DistanceMeters>
          </Trackpoint>
          <Trackpoint>
            <Time>2022-07-11T18:05:44.000Z</Time>
            <Position>
              <LatitudeDegrees>43.2363952696323394775390625</LatitudeDegrees>
              <LongitudeDegrees>-2.80485964380204677581787109375</LongitudeDegrees>
            </Position>
            <AltitudeMeters>70.8000030517578125</AltitudeMeters>
            <DistanceMeters>NAN</DistanceMeters>
          </Trackpoint>
          <Trackpoint>
            <Time>2022-07-11T18:05:48.000Z</Time>
            <Position>
              <LatitudeDegrees>43.236394263803958892822265625</LatitudeDegrees>
              <LongitudeDegrees>-2.80519911088049411773681640625</LongitudeDegrees>
            </Position>
            <AltitudeMeters>70.59999847412109375</AltitudeMeters>
            <DistanceMeters>NAN</DistanceMeters>
          </Trackpoint>
          <Trackpoint>
            <Time>2022-07-11T18:05:52.000Z</Time>
            <Position>
              <LatitudeDegrees>43.23640675283968448638916015625</LatitudeDegrees>
              <LongitudeDegrees>-2.80552734620869159698486328125</LongitudeDegrees>
            </Position>
            <AltitudeMeters>70.40000152587890625</AltitudeMeters>
            <DistanceMeters>NAN</DistanceMeters>
          </Trackpoint>
          <Trackpoint>
            <Time>2022-07-11T18:05:55.000Z</Time>
            <Position>
              <LatitudeDegrees>43.236424438655376434326171875</LatitudeDegrees>
              <LongitudeDegrees>-2.80572884716093540191650390625</LongitudeDegrees>
            </Position>
            <AltitudeMeters>70.1999969482421875</AltitudeMeters>
            <DistanceMeters>NAN</DistanceMeters>
          </Trackpoint>
          <Trackpoint>
            <Time>2022-07-11T18:05:58.000Z</Time>
            <Position>
              <LatitudeDegrees>43.23642921634018421173095703125</LatitudeDegrees>
              <LongitudeDegrees>-2.80582222156226634979248046875</LongitudeDegrees>
            </Position>
            <AltitudeMeters>69.8000030517578125</AltitudeMeters>
            <DistanceMeters>NAN</DistanceMeters>
          </Trackpoint>
          <Trackpoint>
            <Time>2022-07-11T18:05:59.000Z</Time>
            <Position>
              <LatitudeDegrees>43.2364272885024547576904296875</LatitudeDegrees>
              <LongitudeDegrees>-2.805826663970947265625</LongitudeDegrees>
            </Position>
            <AltitudeMeters>69.59999847412109375</AltitudeMeters>
            <DistanceMeters>NAN</DistanceMeters>
          </Trackpoint>
          <Trackpoint>
            <Time>2022-07-11T18:06:01.000Z</Time>
            <Position>
              <LatitudeDegrees>43.2364272885024547576904296875</LatitudeDegrees>
              <LongitudeDegrees>-2.805826663970947265625</LongitudeDegrees>
            </Position>
            <AltitudeMeters>69.40000152587890625</AltitudeMeters>
            <DistanceMeters>NAN</DistanceMeters>
          </Trackpoint>
          <Trackpoint>
            <Time>2022-07-11T18:07:19.000Z</Time>
            <Position>
              <LatitudeDegrees>43.23642251081764698028564453125</LatitudeDegrees>
              <LongitudeDegrees>-2.8058553300797939300537109375</LongitudeDegrees>
            </Position>
            <AltitudeMeters>68.8000030517578125</AltitudeMeters>
            <DistanceMeters>NAN</DistanceMeters>
          </Trackpoint>
          <Trackpoint>
            <Time>2022-07-11T18:07:20.000Z</Time>
            <Position>
              <LatitudeDegrees>43.23642301373183727264404296875</LatitudeDegrees>
              <LongitudeDegrees>-2.80587754212319850921630859375</LongitudeDegrees>
            </Position>
            <AltitudeMeters>68.8000030517578125</AltitudeMeters>
            <DistanceMeters>NAN</DistanceMeters>
          </Trackpoint>
          <Trackpoint>
            <Time>2022-07-11T18:07:25.000Z</Time>
            <Position>
              <LatitudeDegrees>43.236429132521152496337890625</LatitudeDegrees>
              <LongitudeDegrees>-2.80601106584072113037109375</LongitudeDegrees>
            </Position>
            <AltitudeMeters>69</AltitudeMeters>
            <DistanceMeters>NAN</DistanceMeters>
          </Trackpoint>
          <Trackpoint>
            <Time>2022-07-11T18:07:33.000Z</Time>
            <Position>
              <LatitudeDegrees>43.23639920912683010101318359375</LatitudeDegrees>
              <LongitudeDegrees>-2.8062616847455501556396484375</LongitudeDegrees>
            </Position>
            <AltitudeMeters>69.59999847412109375</AltitudeMeters>
            <DistanceMeters>NAN</DistanceMeters>
          </Trackpoint>
          <Trackpoint>
            <Time>2022-07-11T18:07:37.000Z</Time>
            <Position>
              <LatitudeDegrees>43.2363783381879329681396484375</LatitudeDegrees>
              <LongitudeDegrees>-2.80639168806374073028564453125</LongitudeDegrees>
            </Position>
            <AltitudeMeters>70</AltitudeMeters>
            <DistanceMeters>NAN</DistanceMeters>
          </Trackpoint>
          <Trackpoint>
            <Time>2022-07-11T18:07:40.000Z</Time>
            <Position>
              <LatitudeDegrees>43.23633768595755100250244140625</LatitudeDegrees>
              <LongitudeDegrees>-2.80650065280497074127197265625</LongitudeDegrees>
            </Position>
            <AltitudeMeters>70.1999969482421875</AltitudeMeters>
            <DistanceMeters>NAN</DistanceMeters>
          </Trackpoint>
          <Trackpoint>
            <Time>2022-07-11T18:07:41.000Z</Time>
            <Position>
              <LatitudeDegrees>43.23633332736790180206298828125</LatitudeDegrees>
              <LongitudeDegrees>-2.80653116293251514434814453125</LongitudeDegrees>
            </Position>
            <AltitudeMeters>70.59999847412109375</AltitudeMeters>
            <DistanceMeters>NAN</DistanceMeters>
          </Trackpoint>
          <Trackpoint>
            <Time>2022-07-11T18:07:46.000Z</Time>
            <Position>
              <LatitudeDegrees>43.23630742728710174560546875</LatitudeDegrees>
              <LongitudeDegrees>-2.8067372739315032958984375</LongitudeDegrees>
            </Position>
            <AltitudeMeters>71.1999969482421875</AltitudeMeters>
            <DistanceMeters>NAN</DistanceMeters>
          </Trackpoint>
          <Trackpoint>
            <Time>2022-07-11T18:07:49.000Z</Time>
            <Position>
              <LatitudeDegrees>43.23634187690913677215576171875</LatitudeDegrees>
              <LongitudeDegrees>-2.8068132139742374420166015625</LongitudeDegrees>
            </Position>
            <AltitudeMeters>71.59999847412109375</AltitudeMeters>
            <DistanceMeters>NAN</DistanceMeters>
          </Trackpoint>
          <Trackpoint>
            <Time>2022-07-11T18:07:52.000Z</Time>
            <Position>
              <LatitudeDegrees>43.23633567430078983306884765625</LatitudeDegrees>
              <LongitudeDegrees>-2.80690583400428295135498046875</LongitudeDegrees>
            </Position>
            <AltitudeMeters>72</AltitudeMeters>
            <DistanceMeters>NAN</DistanceMeters>
          </Trackpoint>
          <Trackpoint>
            <Time>2022-07-11T18:07:54.000Z</Time>
            <Position>
              <LatitudeDegrees>43.23633517138659954071044921875</LatitudeDegrees>
              <LongitudeDegrees>-2.80697842128574848175048828125</LongitudeDegrees>
            </Position>
            <AltitudeMeters>72.1999969482421875</AltitudeMeters>
            <DistanceMeters>NAN</DistanceMeters>
          </Trackpoint>
          <Trackpoint>
            <Time>2022-07-11T18:07:56.000Z</Time>
            <Position>
              <LatitudeDegrees>43.23633533902466297149658203125</LatitudeDegrees>
              <LongitudeDegrees>-2.8070465661585330963134765625</LongitudeDegrees>
            </Position>
            <AltitudeMeters>72.40000152587890625</AltitudeMeters>
            <DistanceMeters>NAN</DistanceMeters>
          </Trackpoint>
          <Trackpoint>
            <Time>2022-07-11T18:08:02.000Z</Time>
            <Position>
              <LatitudeDegrees>43.2363132946193218231201171875</LatitudeDegrees>
              <LongitudeDegrees>-2.80725435353815555572509765625</LongitudeDegrees>
            </Position>
            <AltitudeMeters>72.8000030517578125</AltitudeMeters>
            <DistanceMeters>NAN</DistanceMeters>
          </Trackpoint>
          <Trackpoint>
            <Time>2022-07-11T18:08:07.000Z</Time>
            <Position>
              <LatitudeDegrees>43.2362596504390239715576171875</LatitudeDegrees>
              <LongitudeDegrees>-2.8074710257351398468017578125</LongitudeDegrees>
            </Position>
            <AltitudeMeters>72.8000030517578125</AltitudeMeters>
            <DistanceMeters>NAN</DistanceMeters>
          </Trackpoint>
          <Trackpoint>
            <Time>2022-07-11T18:08:11.000Z</Time>
            <Position>
              <LatitudeDegrees>43.23618513531982898712158203125</LatitudeDegrees>
              <LongitudeDegrees>-2.80762583948671817779541015625</LongitudeDegrees>
            </Position>
            <AltitudeMeters>72.40000152587890625</AltitudeMeters>
            <DistanceMeters>NAN</DistanceMeters>
          </Trackpoint>
          <Trackpoint>
            <Time>2022-07-11T18:08:13.000Z</Time>
            <Position>
              <LatitudeDegrees>43.2361389510333538055419921875</LatitudeDegrees>
              <LongitudeDegrees>-2.8077177889645099639892578125</LongitudeDegrees>
            </Position>
            <AltitudeMeters>72.40000152587890625</AltitudeMeters>
            <DistanceMeters>NAN</DistanceMeters>
          </Trackpoint>
          <Trackpoint>
            <Time>2022-07-11T18:08:18.000Z</Time>
            <Position>
              <LatitudeDegrees>43.23601347394287586212158203125</LatitudeDegrees>
              <LongitudeDegrees>-2.8079831600189208984375</LongitudeDegrees>
            </Position>
            <AltitudeMeters>72.40000152587890625</AltitudeMeters>
            <DistanceMeters>NAN</DistanceMeters>
          </Trackpoint>
          <Trackpoint>
            <Time>2022-07-11T18:08:24.000Z</Time>
            <Position>
              <LatitudeDegrees>43.23579135350883007049560546875</LatitudeDegrees>
              <LongitudeDegrees>-2.80826546251773834228515625</LongitudeDegrees>
            </Position>
            <AltitudeMeters>71.8000030517578125</AltitudeMeters>
            <DistanceMeters>NAN</DistanceMeters>
          </Trackpoint>
          <Trackpoint>
            <Time>2022-07-11T18:08:25.000Z</Time>
            <Position>
              <LatitudeDegrees>43.235751204192638397216796875</LatitudeDegrees>
              <LongitudeDegrees>-2.8083343617618083953857421875</LongitudeDegrees>
            </Position>
            <AltitudeMeters>71.40000152587890625</AltitudeMeters>
            <DistanceMeters>NAN</DistanceMeters>
          </Trackpoint>
          <Trackpoint>
            <Time>2022-07-11T18:08:31.000Z</Time>
            <Position>
              <LatitudeDegrees>43.235518522560596466064453125</LatitudeDegrees>
              <LongitudeDegrees>-2.80876569449901580810546875</LongitudeDegrees>
            </Position>
            <AltitudeMeters>70.8000030517578125</AltitudeMeters>
            <DistanceMeters>NAN</DistanceMeters>
          </Trackpoint>
          <Trackpoint>
            <Time>2022-07-11T18:08:37.000Z</Time>
            <Position>
              <LatitudeDegrees>43.235295228660106658935546875</LatitudeDegrees>
              <LongitudeDegrees>-2.80916593037545680999755859375</LongitudeDegrees>
            </Position>
            <AltitudeMeters>70.40000152587890625</AltitudeMeters>
            <DistanceMeters>NAN</DistanceMeters>
          </Trackpoint>
          <Trackpoint>
            <Time>2022-07-11T18:08:38.000Z</Time>
            <Position>
              <LatitudeDegrees>43.23526010848581790924072265625</LatitudeDegrees>
              <LongitudeDegrees>-2.809241116046905517578125</LongitudeDegrees>
            </Position>
            <AltitudeMeters>70.40000152587890625</AltitudeMeters>
            <DistanceMeters>NAN</DistanceMeters>
          </Trackpoint>
          <Trackpoint>
            <Time>2022-07-11T18:08:39.000Z</Time>
            <Position>
              <LatitudeDegrees>43.235229514539241790771484375</LatitudeDegrees>
              <LongitudeDegrees>-2.80931496061384677886962890625</LongitudeDegrees>
            </Position>
            <AltitudeMeters>70.40000152587890625</AltitudeMeters>
            <DistanceMeters>NAN</DistanceMeters>
          </Trackpoint>
          <Trackpoint>
            <Time>2022-07-11T18:08:44.000Z</Time>
            <Position>
              <LatitudeDegrees>43.2350633852183818817138671875</LatitudeDegrees>
              <LongitudeDegrees>-2.80966959893703460693359375</LongitudeDegrees>
            </Position>
            <AltitudeMeters>70.1999969482421875</AltitudeMeters>
            <DistanceMeters>NAN</DistanceMeters>
          </Trackpoint>
          <Trackpoint>
            <Time>2022-07-11T18:08:45.000Z</Time>
            <Position>
              <LatitudeDegrees>43.23503212071955204010009765625</LatitudeDegrees>
              <LongitudeDegrees>-2.80973891727626323699951171875</LongitudeDegrees>
            </Position>
            <AltitudeMeters>70.40000152587890625</AltitudeMeters>
            <DistanceMeters>NAN</DistanceMeters>
          </Trackpoint>
          <Trackpoint>
            <Time>2022-07-11T18:08:48.000Z</Time>
            <Position>
              <LatitudeDegrees>43.23495182208716869354248046875</LatitudeDegrees>
              <LongitudeDegrees>-2.809958271682262420654296875</LongitudeDegrees>
            </Position>
            <AltitudeMeters>70.59999847412109375</AltitudeMeters>
            <DistanceMeters>NAN</DistanceMeters>
          </Trackpoint>
          <Trackpoint>
            <Time>2022-07-11T18:08:51.000Z</Time>
            <Position>
              <LatitudeDegrees>43.23486716486513614654541015625</LatitudeDegrees>
              <LongitudeDegrees>-2.81018533743917942047119140625</LongitudeDegrees>
            </Position>
            <AltitudeMeters>70.59999847412109375</AltitudeMeters>
            <DistanceMeters>NAN</DistanceMeters>
          </Trackpoint>
          <Trackpoint>
            <Time>2022-07-11T18:08:54.000Z</Time>
            <Position>
              <LatitudeDegrees>43.23477831669151782989501953125</LatitudeDegrees>
              <LongitudeDegrees>-2.810412235558032989501953125</LongitudeDegrees>
            </Position>
            <AltitudeMeters>70.40000152587890625</AltitudeMeters>
            <DistanceMeters>NAN</DistanceMeters>
          </Trackpoint>
          <Trackpoint>
            <Time>2022-07-11T18:08:56.000Z</Time>
            <Position>
              <LatitudeDegrees>43.23472148738801479339599609375</LatitudeDegrees>
              <LongitudeDegrees>-2.8105621039867401123046875</LongitudeDegrees>
            </Position>
            <AltitudeMeters>70.40000152587890625</AltitudeMeters>
            <DistanceMeters>NAN</DistanceMeters>
          </Trackpoint>
          <Trackpoint>
            <Time>2022-07-11T18:09:00.000Z</Time>
            <Position>
              <LatitudeDegrees>43.23460699059069156646728515625</LatitudeDegrees>
              <LongitudeDegrees>-2.81086527742445468902587890625</LongitudeDegrees>
            </Position>
            <AltitudeMeters>70</AltitudeMeters>
            <DistanceMeters>NAN</DistanceMeters>
          </Trackpoint>
          <Trackpoint>
            <Time>2022-07-11T18:09:03.000Z</Time>
            <Position>
              <LatitudeDegrees>43.23452451266348361968994140625</LatitudeDegrees>
              <LongitudeDegrees>-2.8110893256962299346923828125</LongitudeDegrees>
            </Position>
            <AltitudeMeters>69.8000030517578125</AltitudeMeters>
            <DistanceMeters>NAN</DistanceMeters>
          </Trackpoint>
          <Trackpoint>
            <Time>2022-07-11T18:09:10.000Z</Time>
            <Position>
              <LatitudeDegrees>43.23433441109955310821533203125</LatitudeDegrees>
              <LongitudeDegrees>-2.81159676611423492431640625</LongitudeDegrees>
            </Position>
            <AltitudeMeters>70</AltitudeMeters>
            <DistanceMeters>NAN</DistanceMeters>
          </Trackpoint>
          <Trackpoint>
            <Time>2022-07-11T18:09:18.000Z</Time>
            <Position>
              <LatitudeDegrees>43.23413542471826076507568359375</LatitudeDegrees>
              <LongitudeDegrees>-2.8121363930404186248779296875</LongitudeDegrees>
            </Position>
            <AltitudeMeters>70.1999969482421875</AltitudeMeters>
            <DistanceMeters>NAN</DistanceMeters>
          </Trackpoint>
          <Trackpoint>
            <Time>2022-07-11T18:09:25.000Z</Time>
            <Position>
              <LatitudeDegrees>43.23397382162511348724365234375</LatitudeDegrees>
              <LongitudeDegrees>-2.81262983568012714385986328125</LongitudeDegrees>
            </Position>
            <AltitudeMeters>70.8000030517578125</AltitudeMeters>
            <DistanceMeters>NAN</DistanceMeters>
          </Trackpoint>
          <Trackpoint>
            <Time>2022-07-11T18:09:33.000Z</Time>
            <Position>
              <LatitudeDegrees>43.2337693870067596435546875</LatitudeDegrees>
              <LongitudeDegrees>-2.8131935186684131622314453125</LongitudeDegrees>
            </Position>
            <AltitudeMeters>71</AltitudeMeters>
            <DistanceMeters>NAN</DistanceMeters>
          </Trackpoint>
          <Trackpoint>
            <Time>2022-07-11T18:09:43.000Z</Time>
            <Position>
              <LatitudeDegrees>43.23352203704416751861572265625</LatitudeDegrees>
              <LongitudeDegrees>-2.81390539370477199554443359375</LongitudeDegrees>
            </Position>
            <AltitudeMeters>70.1999969482421875</AltitudeMeters>
            <DistanceMeters>NAN</DistanceMeters>
          </Trackpoint>
          <Trackpoint>
            <Time>2022-07-11T18:09:48.000Z</Time>
            <Position>
              <LatitudeDegrees>43.2333883456885814666748046875</LatitudeDegrees>
              <LongitudeDegrees>-2.8142318688333034515380859375</LongitudeDegrees>
            </Position>
            <AltitudeMeters>70</AltitudeMeters>
            <DistanceMeters>NAN</DistanceMeters>
          </Trackpoint>
          <Trackpoint>
            <Time>2022-07-11T18:09:49.000Z</Time>
            <Position>
              <LatitudeDegrees>43.2333638705313205718994140625</LatitudeDegrees>
              <LongitudeDegrees>-2.81429448164999485015869140625</LongitudeDegrees>
            </Position>
            <AltitudeMeters>70</AltitudeMeters>
            <DistanceMeters>NAN</DistanceMeters>
          </Trackpoint>
          <Trackpoint>
            <Time>2022-07-11T18:09:54.000Z</Time>
            <Position>
              <LatitudeDegrees>43.233234621584415435791015625</LatitudeDegrees>
              <LongitudeDegrees>-2.81462498009204864501953125</LongitudeDegrees>
            </Position>
            <AltitudeMeters>69.40000152587890625</AltitudeMeters>
            <DistanceMeters>NAN</DistanceMeters>
          </Trackpoint>
          <Trackpoint>
            <Time>2022-07-11T18:09:59.000Z</Time>
            <Position>
              <LatitudeDegrees>43.23310361243784427642822265625</LatitudeDegrees>
              <LongitudeDegrees>-2.814935781061649322509765625</LongitudeDegrees>
            </Position>
            <AltitudeMeters>69</AltitudeMeters>
            <DistanceMeters>NAN</DistanceMeters>
          </Trackpoint>
          <Trackpoint>
            <Time>2022-07-11T18:10:07.000Z</Time>
            <Position>
              <LatitudeDegrees>43.2329271733760833740234375</LatitudeDegrees>
              <LongitudeDegrees>-2.81542855314910411834716796875</LongitudeDegrees>
            </Position>
            <AltitudeMeters>69</AltitudeMeters>
            <DistanceMeters>NAN</DistanceMeters>
          </Trackpoint>
          <Trackpoint>
            <Time>2022-07-11T18:10:15.000Z</Time>
            <Position>
              <LatitudeDegrees>43.2327667437493801116943359375</LatitudeDegrees>
              <LongitudeDegrees>-2.8159052319824695587158203125</LongitudeDegrees>
            </Position>
            <AltitudeMeters>69</AltitudeMeters>
            <DistanceMeters>NAN</DistanceMeters>
          </Trackpoint>
          <Trackpoint>
            <Time>2022-07-11T18:10:22.000Z</Time>
            <Position>
              <LatitudeDegrees>43.23261243291199207305908203125</LatitudeDegrees>
              <LongitudeDegrees>-2.81629105098545551300048828125</LongitudeDegrees>
            </Position>
            <AltitudeMeters>69</AltitudeMeters>
            <DistanceMeters>NAN</DistanceMeters>
          </Trackpoint>
          <Trackpoint>
            <Time>2022-07-11T18:10:25.000Z</Time>
            <Position>
              <LatitudeDegrees>43.2325471378862857818603515625</LatitudeDegrees>
              <LongitudeDegrees>-2.816440500319004058837890625</LongitudeDegrees>
            </Position>
            <AltitudeMeters>69</AltitudeMeters>
            <DistanceMeters>NAN</DistanceMeters>
          </Trackpoint>
          <Trackpoint>
            <Time>2022-07-11T18:10:32.000Z</Time>
            <Position>
              <LatitudeDegrees>43.23240070603787899017333984375</LatitudeDegrees>
              <LongitudeDegrees>-2.8167906962335109710693359375</LongitudeDegrees>
            </Position>
            <AltitudeMeters>69.40000152587890625</AltitudeMeters>
            <DistanceMeters>NAN</DistanceMeters>
          </Trackpoint>
          <Trackpoint>
            <Time>2022-07-11T18:10:38.000Z</Time>
            <Position>
              <LatitudeDegrees>43.2322584651410579681396484375</LatitudeDegrees>
              <LongitudeDegrees>-2.8170750103890895843505859375</LongitudeDegrees>
            </Position>
            <AltitudeMeters>69.59999847412109375</AltitudeMeters>
            <DistanceMeters>NAN</DistanceMeters>
          </Trackpoint>
          <Trackpoint>
            <Time>2022-07-11T18:10:40.000Z</Time>
            <Position>
              <LatitudeDegrees>43.23220498859882354736328125</LatitudeDegrees>
              <LongitudeDegrees>-2.81715941615402698516845703125</LongitudeDegrees>
            </Position>
            <AltitudeMeters>69.8000030517578125</AltitudeMeters>
            <DistanceMeters>NAN</DistanceMeters>
          </Trackpoint>
          <Trackpoint>
            <Time>2022-07-11T18:10:45.000Z</Time>
            <Position>
              <LatitudeDegrees>43.23207414709031581878662109375</LatitudeDegrees>
              <LongitudeDegrees>-2.81734650023281574249267578125</LongitudeDegrees>
            </Position>
            <AltitudeMeters>70</AltitudeMeters>
            <DistanceMeters>NAN</DistanceMeters>
          </Trackpoint>
          <Trackpoint>
            <Time>2022-07-11T18:10:46.000Z</Time>
            <Position>
              <LatitudeDegrees>43.2320405356585979461669921875</LatitudeDegrees>
              <LongitudeDegrees>-2.81736980192363262176513671875</LongitudeDegrees>
            </Position>
            <AltitudeMeters>70</AltitudeMeters>
            <DistanceMeters>NAN</DistanceMeters>
          </Trackpoint>
          <Trackpoint>
            <Time>2022-07-11T18:10:50.000Z</Time>
            <Position>
              <LatitudeDegrees>43.23190432973206043243408203125</LatitudeDegrees>
              <LongitudeDegrees>-2.817513048648834228515625</LongitudeDegrees>
            </Position>
            <AltitudeMeters>70.1999969482421875</AltitudeMeters>
            <DistanceMeters>NAN</DistanceMeters>
          </Trackpoint>
          <Trackpoint>
            <Time>2022-07-11T18:10:52.000Z</Time>
            <Position>
              <LatitudeDegrees>43.23184632696211338043212890625</LatitudeDegrees>
              <LongitudeDegrees>-2.81758203171193599700927734375</LongitudeDegrees>
            </Position>
            <AltitudeMeters>70.40000152587890625</AltitudeMeters>
            <DistanceMeters>NAN</DistanceMeters>
          </Trackpoint>
          <Trackpoint>
            <Time>2022-07-11T18:10:53.000Z</Time>
            <Position>
              <LatitudeDegrees>43.2318165712058544158935546875</LatitudeDegrees>
              <LongitudeDegrees>-2.81760952435433864593505859375</LongitudeDegrees>
            </Position>
            <AltitudeMeters>70.59999847412109375</AltitudeMeters>
            <DistanceMeters>NAN</DistanceMeters>
          </Trackpoint>
          <Trackpoint>
            <Time>2022-07-11T18:11:00.000Z</Time>
            <Position>
              <LatitudeDegrees>43.23158011771738529205322265625</LatitudeDegrees>
              <LongitudeDegrees>-2.8177693672478199005126953125</LongitudeDegrees>
            </Position>
            <AltitudeMeters>71</AltitudeMeters>
            <DistanceMeters>NAN</DistanceMeters>
          </Trackpoint>
          <Trackpoint>
            <Time>2022-07-11T18:11:04.000Z</Time>
            <Position>
              <LatitudeDegrees>43.23144701309502124786376953125</LatitudeDegrees>
              <LongitudeDegrees>-2.81784002669155597686767578125</LongitudeDegrees>
            </Position>
            <AltitudeMeters>71.1999969482421875</AltitudeMeters>
            <DistanceMeters>NAN</DistanceMeters>
          </Trackpoint>
          <Trackpoint>
            <Time>2022-07-11T18:11:05.000Z</Time>
            <Position>
              <LatitudeDegrees>43.2314149104058742523193359375</LatitudeDegrees>
              <LongitudeDegrees>-2.81785712577402591705322265625</LongitudeDegrees>
            </Position>
            <AltitudeMeters>71.59999847412109375</AltitudeMeters>
            <DistanceMeters>NAN</DistanceMeters>
          </Trackpoint>
          <Trackpoint>
            <Time>2022-07-11T18:11:08.000Z</Time>
            <Position>
              <LatitudeDegrees>43.231325559318065643310546875</LatitudeDegrees>
              <LongitudeDegrees>-2.817913033068180084228515625</LongitudeDegrees>
            </Position>
            <AltitudeMeters>72</AltitudeMeters>
            <DistanceMeters>NAN</DistanceMeters>
          </Trackpoint>
          <Trackpoint>
            <Time>2022-07-11T18:11:09.000Z</Time>
            <Position>
              <LatitudeDegrees>43.231296055018901824951171875</LatitudeDegrees>
              <LongitudeDegrees>-2.81792786903679370880126953125</LongitudeDegrees>
            </Position>
            <AltitudeMeters>72</AltitudeMeters>
            <DistanceMeters>NAN</DistanceMeters>
          </Trackpoint>
          <Trackpoint>
            <Time>2022-07-11T18:11:17.000Z</Time>
            <Position>
              <LatitudeDegrees>43.2310481183230876922607421875</LatitudeDegrees>
              <LongitudeDegrees>-2.8180717863142490386962890625</LongitudeDegrees>
            </Position>
            <AltitudeMeters>72</AltitudeMeters>
            <DistanceMeters>NAN</DistanceMeters>
          </Trackpoint>
          <Trackpoint>
            <Time>2022-07-11T18:11:23.000Z</Time>
            <Position>
              <LatitudeDegrees>43.23085692711174488067626953125</LatitudeDegrees>
              <LongitudeDegrees>-2.81819307245314121246337890625</LongitudeDegrees>
            </Position>
            <AltitudeMeters>72.59999847412109375</AltitudeMeters>
            <DistanceMeters>NAN</DistanceMeters>
          </Trackpoint>
          <Trackpoint>
            <Time>2022-07-11T18:11:24.000Z</Time>
            <Position>
              <LatitudeDegrees>43.23083094321191310882568359375</LatitudeDegrees>
              <LongitudeDegrees>-2.81821318902075290679931640625</LongitudeDegrees>
            </Position>
            <AltitudeMeters>72.8000030517578125</AltitudeMeters>
            <DistanceMeters>NAN</DistanceMeters>
          </Trackpoint>
          <Trackpoint>
            <Time>2022-07-11T18:11:32.000Z</Time>
            <Position>
              <LatitudeDegrees>43.23065659962594509124755859375</LatitudeDegrees>
              <LongitudeDegrees>-2.8184781409800052642822265625</LongitudeDegrees>
            </Position>
            <AltitudeMeters>73.1999969482421875</AltitudeMeters>
            <DistanceMeters>NAN</DistanceMeters>
          </Trackpoint>
          <Trackpoint>
            <Time>2022-07-11T18:11:37.000Z</Time>
            <Position>
              <LatitudeDegrees>43.230598010122776031494140625</LatitudeDegrees>
              <LongitudeDegrees>-2.8187051229178905487060546875</LongitudeDegrees>
            </Position>
            <AltitudeMeters>73.40000152587890625</AltitudeMeters>
            <DistanceMeters>NAN</DistanceMeters>
          </Trackpoint>
          <Trackpoint>
            <Time>2022-07-11T18:11:41.000Z</Time>
            <Position>
              <LatitudeDegrees>43.230560459196567535400390625</LatitudeDegrees>
              <LongitudeDegrees>-2.81889128498733043670654296875</LongitudeDegrees>
            </Position>
            <AltitudeMeters>73.1999969482421875</AltitudeMeters>
            <DistanceMeters>NAN</DistanceMeters>
          </Trackpoint>
          <Trackpoint>
            <Time>2022-07-11T18:11:48.000Z</Time>
            <Position>
              <LatitudeDegrees>43.23057026602327823638916015625</LatitudeDegrees>
              <LongitudeDegrees>-2.81931926496326923370361328125</LongitudeDegrees>
            </Position>
            <AltitudeMeters>73</AltitudeMeters>
            <DistanceMeters>NAN</DistanceMeters>
          </Trackpoint>
          <Trackpoint>
            <Time>2022-07-11T18:11:51.000Z</Time>
            <Position>
              <LatitudeDegrees>43.230604045093059539794921875</LatitudeDegrees>
              <LongitudeDegrees>-2.81950735487043857574462890625</LongitudeDegrees>
            </Position>
            <AltitudeMeters>73</AltitudeMeters>
            <DistanceMeters>NAN</DistanceMeters>
          </Trackpoint>
          <Trackpoint>
            <Time>2022-07-11T18:11:55.000Z</Time>
            <Position>
              <LatitudeDegrees>43.23069347999989986419677734375</LatitudeDegrees>
              <LongitudeDegrees>-2.81974875368177890777587890625</LongitudeDegrees>
            </Position>
            <AltitudeMeters>72.59999847412109375</AltitudeMeters>
            <DistanceMeters>NAN</DistanceMeters>
          </Trackpoint>
          <Trackpoint>
            <Time>2022-07-11T18:12:01.000Z</Time>
            <Position>
              <LatitudeDegrees>43.23091610334813594818115234375</LatitudeDegrees>
              <LongitudeDegrees>-2.82006324268877506256103515625</LongitudeDegrees>
            </Position>
            <AltitudeMeters>71.8000030517578125</AltitudeMeters>
            <DistanceMeters>NAN</DistanceMeters>
          </Trackpoint>
          <Trackpoint>
            <Time>2022-07-11T18:12:05.000Z</Time>
            <Position>
              <LatitudeDegrees>43.2310977391898632049560546875</LatitudeDegrees>
              <LongitudeDegrees>-2.820247225463390350341796875</LongitudeDegrees>
            </Position>
            <AltitudeMeters>71.59999847412109375</AltitudeMeters>
            <DistanceMeters>NAN</DistanceMeters>
          </Trackpoint>
          <Trackpoint>
            <Time>2022-07-11T18:12:08.000Z</Time>
            <Position>
              <LatitudeDegrees>43.23123847134411334991455078125</LatitudeDegrees>
              <LongitudeDegrees>-2.82039131037890911102294921875</LongitudeDegrees>
            </Position>
            <AltitudeMeters>71</AltitudeMeters>
            <DistanceMeters>NAN</DistanceMeters>
          </Trackpoint>
          <Trackpoint>
            <Time>2022-07-11T18:12:09.000Z</Time>
            <Position>
              <LatitudeDegrees>43.2312838174402713775634765625</LatitudeDegrees>
              <LongitudeDegrees>-2.82043975777924060821533203125</LongitudeDegrees>
            </Position>
            <AltitudeMeters>70.8000030517578125</AltitudeMeters>
            <DistanceMeters>NAN</DistanceMeters>
          </Trackpoint>
          <Trackpoint>
            <Time>2022-07-11T18:12:11.000Z</Time>
            <Position>
              <LatitudeDegrees>43.23137660510838031768798828125</LatitudeDegrees>
              <LongitudeDegrees>-2.820555008947849273681640625</LongitudeDegrees>
            </Position>
            <AltitudeMeters>70.40000152587890625</AltitudeMeters>
            <DistanceMeters>NAN</DistanceMeters>
          </Trackpoint>
          <Trackpoint>
            <Time>2022-07-11T18:12:15.000Z</Time>
            <Position>
              <LatitudeDegrees>43.231545500457286834716796875</LatitudeDegrees>
              <LongitudeDegrees>-2.820838987827301025390625</LongitudeDegrees>
            </Position>
            <AltitudeMeters>69.8000030517578125</AltitudeMeters>
            <DistanceMeters>NAN</DistanceMeters>
          </Trackpoint>
          <Trackpoint>
            <Time>2022-07-11T18:12:18.000Z</Time>
            <Position>
              <LatitudeDegrees>43.23163644410669803619384765625</LatitudeDegrees>
              <LongitudeDegrees>-2.8211030177772045135498046875</LongitudeDegrees>
            </Position>
            <AltitudeMeters>69.40000152587890625</AltitudeMeters>
            <DistanceMeters>NAN</DistanceMeters>
          </Trackpoint>
          <Trackpoint>
            <Time>2022-07-11T18:12:20.000Z</Time>
            <Position>
              <LatitudeDegrees>43.23169008828699588775634765625</LatitudeDegrees>
              <LongitudeDegrees>-2.821297980844974517822265625</LongitudeDegrees>
            </Position>
            <AltitudeMeters>68.1999969482421875</AltitudeMeters>
            <DistanceMeters>NAN</DistanceMeters>
          </Trackpoint>
          <Trackpoint>
            <Time>2022-07-11T18:12:24.000Z</Time>
            <Position>
              <LatitudeDegrees>43.23174674995243549346923828125</LatitudeDegrees>
              <LongitudeDegrees>-2.8217112086713314056396484375</LongitudeDegrees>
            </Position>
            <AltitudeMeters>66.8000030517578125</AltitudeMeters>
            <DistanceMeters>NAN</DistanceMeters>
          </Trackpoint>
          <Trackpoint>
            <Time>2022-07-11T18:12:25.000Z</Time>
            <Position>
              <LatitudeDegrees>43.23175370693206787109375</LatitudeDegrees>
              <LongitudeDegrees>-2.82181388698518276214599609375</LongitudeDegrees>
            </Position>
            <AltitudeMeters>66.59999847412109375</AltitudeMeters>
            <DistanceMeters>NAN</DistanceMeters>
          </Trackpoint>
          <Trackpoint>
            <Time>2022-07-11T18:12:27.000Z</Time>
            <Position>
              <LatitudeDegrees>43.2317652739584445953369140625</LatitudeDegrees>
              <LongitudeDegrees>-2.822018824517726898193359375</LongitudeDegrees>
            </Position>
            <AltitudeMeters>65.8000030517578125</AltitudeMeters>
            <DistanceMeters>NAN</DistanceMeters>
          </Trackpoint>
          <Trackpoint>
            <Time>2022-07-11T18:12:33.000Z</Time>
            <Position>
              <LatitudeDegrees>43.23180760256946086883544921875</LatitudeDegrees>
              <LongitudeDegrees>-2.82261301763355731964111328125</LongitudeDegrees>
            </Position>
            <AltitudeMeters>64.59999847412109375</AltitudeMeters>
            <DistanceMeters>NAN</DistanceMeters>
          </Trackpoint>
          <Trackpoint>
            <Time>2022-07-11T18:12:35.000Z</Time>
            <Position>
              <LatitudeDegrees>43.231817074120044708251953125</LatitudeDegrees>
              <LongitudeDegrees>-2.8227824158966541290283203125</LongitudeDegrees>
            </Position>
            <AltitudeMeters>64.59999847412109375</AltitudeMeters>
            <DistanceMeters>NAN</DistanceMeters>
          </Trackpoint>
          <Trackpoint>
            <Time>2022-07-11T18:12:41.000Z</Time>
            <Position>
              <LatitudeDegrees>43.23185353539884090423583984375</LatitudeDegrees>
              <LongitudeDegrees>-2.823228500783443450927734375</LongitudeDegrees>
            </Position>
            <AltitudeMeters>64.40000152587890625</AltitudeMeters>
            <DistanceMeters>NAN</DistanceMeters>
          </Trackpoint>
          <Trackpoint>
            <Time>2022-07-11T18:12:44.000Z</Time>
            <Position>
              <LatitudeDegrees>43.23186443187296390533447265625</LatitudeDegrees>
              <LongitudeDegrees>-2.82342706806957721710205078125</LongitudeDegrees>
            </Position>
            <AltitudeMeters>64.40000152587890625</AltitudeMeters>
            <DistanceMeters>NAN</DistanceMeters>
          </Trackpoint>
          <Trackpoint>
            <Time>2022-07-11T18:12:47.000Z</Time>
            <Position>
              <LatitudeDegrees>43.2318779267370700836181640625</LatitudeDegrees>
              <LongitudeDegrees>-2.82361398451030254364013671875</LongitudeDegrees>
            </Position>
            <AltitudeMeters>64</AltitudeMeters>
            <DistanceMeters>NAN</DistanceMeters>
          </Trackpoint>
          <Trackpoint>
            <Time>2022-07-11T18:12:48.000Z</Time>
            <Position>
              <LatitudeDegrees>43.2318837940692901611328125</LatitudeDegrees>
              <LongitudeDegrees>-2.8236849792301654815673828125</LongitudeDegrees>
            </Position>
            <AltitudeMeters>64</AltitudeMeters>
            <DistanceMeters>NAN</DistanceMeters>
          </Trackpoint>
          <Trackpoint>
            <Time>2022-07-11T18:12:54.000Z</Time>
            <Position>
              <LatitudeDegrees>43.23190634138882160186767578125</LatitudeDegrees>
              <LongitudeDegrees>-2.8240752406418323516845703125</LongitudeDegrees>
            </Position>
            <AltitudeMeters>63.799999237060546875</AltitudeMeters>
            <DistanceMeters>NAN</DistanceMeters>
          </Trackpoint>
          <Trackpoint>
            <Time>2022-07-11T18:12:58.000Z</Time>
            <Position>
              <LatitudeDegrees>43.2319433055818080902099609375</LatitudeDegrees>
              <LongitudeDegrees>-2.82429794780910015106201171875</LongitudeDegrees>
            </Position>
            <AltitudeMeters>63.59999847412109375</AltitudeMeters>
            <DistanceMeters>NAN</DistanceMeters>
          </Trackpoint>
          <Trackpoint>
            <Time>2022-07-11T18:13:01.000Z</Time>
            <Position>
              <LatitudeDegrees>43.231977336108684539794921875</LatitudeDegrees>
              <LongitudeDegrees>-2.824447564780712127685546875</LongitudeDegrees>
            </Position>
            <AltitudeMeters>63</AltitudeMeters>
            <DistanceMeters>NAN</DistanceMeters>
          </Trackpoint>
          <Trackpoint>
            <Time>2022-07-11T18:13:07.000Z</Time>
            <Position>
              <LatitudeDegrees>43.232000805437564849853515625</LatitudeDegrees>
              <LongitudeDegrees>-2.8247317112982273101806640625</LongitudeDegrees>
            </Position>
            <AltitudeMeters>62.59999847412109375</AltitudeMeters>
            <DistanceMeters>NAN</DistanceMeters>
          </Trackpoint>
          <Trackpoint>
            <Time>2022-07-11T18:13:08.000Z</Time>
            <Position>
              <LatitudeDegrees>43.2320043258368968963623046875</LatitudeDegrees>
              <LongitudeDegrees>-2.8247799910604953765869140625</LongitudeDegrees>
            </Position>
            <AltitudeMeters>62.59999847412109375</AltitudeMeters>
            <DistanceMeters>NAN</DistanceMeters>
          </Trackpoint>
          <Trackpoint>
            <Time>2022-07-11T18:13:16.000Z</Time>
            <Position>
              <LatitudeDegrees>43.23204296641051769256591796875</LatitudeDegrees>
              <LongitudeDegrees>-2.8251839987933635711669921875</LongitudeDegrees>
            </Position>
            <AltitudeMeters>63.200000762939453125</AltitudeMeters>
            <DistanceMeters>NAN</DistanceMeters>
          </Trackpoint>
          <Trackpoint>
            <Time>2022-07-11T18:13:26.000Z</Time>
            <Position>
              <LatitudeDegrees>43.23208671994507312774658203125</LatitudeDegrees>
              <LongitudeDegrees>-2.82574667595326900482177734375</LongitudeDegrees>
            </Position>
            <AltitudeMeters>62.799999237060546875</AltitudeMeters>
            <DistanceMeters>NAN</DistanceMeters>
          </Trackpoint>
          <Trackpoint>
            <Time>2022-07-11T18:13:30.000Z</Time>
            <Position>
              <LatitudeDegrees>43.2321028970181941986083984375</LatitudeDegrees>
              <LongitudeDegrees>-2.82597340643405914306640625</LongitudeDegrees>
            </Position>
            <AltitudeMeters>62.799999237060546875</AltitudeMeters>
            <DistanceMeters>NAN</DistanceMeters>
          </Trackpoint>
          <Trackpoint>
            <Time>2022-07-11T18:13:35.000Z</Time>
            <Position>
              <LatitudeDegrees>43.23213885538280010223388671875</LatitudeDegrees>
              <LongitudeDegrees>-2.826257050037384033203125</LongitudeDegrees>
            </Position>
            <AltitudeMeters>62.799999237060546875</AltitudeMeters>
            <DistanceMeters>NAN</DistanceMeters>
          </Trackpoint>
          <Trackpoint>
            <Time>2022-07-11T18:13:43.000Z</Time>
            <Position>
              <LatitudeDegrees>43.23217841796576976776123046875</LatitudeDegrees>
              <LongitudeDegrees>-2.82670338638126850128173828125</LongitudeDegrees>
            </Position>
            <AltitudeMeters>62.799999237060546875</AltitudeMeters>
            <DistanceMeters>NAN</DistanceMeters>
          </Trackpoint>
          <Trackpoint>
            <Time>2022-07-11T18:13:50.000Z</Time>
            <Position>
              <LatitudeDegrees>43.23218487203121185302734375</LatitudeDegrees>
              <LongitudeDegrees>-2.82713170163333415985107421875</LongitudeDegrees>
            </Position>
            <AltitudeMeters>62.799999237060546875</AltitudeMeters>
            <DistanceMeters>NAN</DistanceMeters>
          </Trackpoint>
          <Trackpoint>
            <Time>2022-07-11T18:13:52.000Z</Time>
            <Position>
              <LatitudeDegrees>43.23217607103288173675537109375</LatitudeDegrees>
              <LongitudeDegrees>-2.82725458033382892608642578125</LongitudeDegrees>
            </Position>
            <AltitudeMeters>62.799999237060546875</AltitudeMeters>
            <DistanceMeters>NAN</DistanceMeters>
          </Trackpoint>
          <Trackpoint>
            <Time>2022-07-11T18:13:59.000Z</Time>
            <Position>
              <LatitudeDegrees>43.23210868053138256072998046875</LatitudeDegrees>
              <LongitudeDegrees>-2.827675603330135345458984375</LongitudeDegrees>
            </Position>
            <AltitudeMeters>62.799999237060546875</AltitudeMeters>
            <DistanceMeters>NAN</DistanceMeters>
          </Trackpoint>
          <Trackpoint>
            <Time>2022-07-11T18:14:06.000Z</Time>
            <Position>
              <LatitudeDegrees>43.2319803535938262939453125</LatitudeDegrees>
              <LongitudeDegrees>-2.82809729687869548797607421875</LongitudeDegrees>
            </Position>
            <AltitudeMeters>62.59999847412109375</AltitudeMeters>
            <DistanceMeters>NAN</DistanceMeters>
          </Trackpoint>
          <Trackpoint>
            <Time>2022-07-11T18:14:07.000Z</Time>
            <Position>
              <LatitudeDegrees>43.23195797391235828399658203125</LatitudeDegrees>
              <LongitudeDegrees>-2.82815680839121341705322265625</LongitudeDegrees>
            </Position>
            <AltitudeMeters>62.59999847412109375</AltitudeMeters>
            <DistanceMeters>NAN</DistanceMeters>
          </Trackpoint>
          <Trackpoint>
            <Time>2022-07-11T18:14:14.000Z</Time>
            <Position>
              <LatitudeDegrees>43.23178363032639026641845703125</LatitudeDegrees>
              <LongitudeDegrees>-2.82862887717783451080322265625</LongitudeDegrees>
            </Position>
            <AltitudeMeters>62.40000152587890625</AltitudeMeters>
            <DistanceMeters>NAN</DistanceMeters>
          </Trackpoint>
          <Trackpoint>
            <Time>2022-07-11T18:14:23.000Z</Time>
            <Position>
              <LatitudeDegrees>43.231562934815883636474609375</LatitudeDegrees>
              <LongitudeDegrees>-2.82919314689934253692626953125</LongitudeDegrees>
            </Position>
            <AltitudeMeters>62.200000762939453125</AltitudeMeters>
            <DistanceMeters>NAN</DistanceMeters>
          </Trackpoint>
          <Trackpoint>
            <Time>2022-07-11T18:14:32.000Z</Time>
            <Position>
              <LatitudeDegrees>43.23137006722390651702880859375</LatitudeDegrees>
              <LongitudeDegrees>-2.829754315316677093505859375</LongitudeDegrees>
            </Position>
            <AltitudeMeters>61.799999237060546875</AltitudeMeters>
            <DistanceMeters>NAN</DistanceMeters>
          </Trackpoint>
          <Trackpoint>
            <Time>2022-07-11T18:14:37.000Z</Time>
            <Position>
              <LatitudeDegrees>43.23128105141222476959228515625</LatitudeDegrees>
              <LongitudeDegrees>-2.83003251068294048309326171875</LongitudeDegrees>
            </Position>
            <AltitudeMeters>61.799999237060546875</AltitudeMeters>
            <DistanceMeters>NAN</DistanceMeters>
          </Trackpoint>
          <Trackpoint>
            <Time>2022-07-11T18:14:39.000Z</Time>
            <Position>
              <LatitudeDegrees>43.2312345318496227264404296875</LatitudeDegrees>
              <LongitudeDegrees>-2.83014231361448764801025390625</LongitudeDegrees>
            </Position>
            <AltitudeMeters>61.799999237060546875</AltitudeMeters>
            <DistanceMeters>NAN</DistanceMeters>
          </Trackpoint>
          <Trackpoint>
            <Time>2022-07-11T18:14:42.000Z</Time>
            <Position>
              <LatitudeDegrees>43.2311731763184070587158203125</LatitudeDegrees>
              <LongitudeDegrees>-2.83031196333467960357666015625</LongitudeDegrees>
            </Position>
            <AltitudeMeters>61.59999847412109375</AltitudeMeters>
            <DistanceMeters>NAN</DistanceMeters>
          </Trackpoint>
          <Trackpoint>
            <Time>2022-07-11T18:14:49.000Z</Time>
            <Position>
              <LatitudeDegrees>43.231053650379180908203125</LatitudeDegrees>
              <LongitudeDegrees>-2.83069543540477752685546875</LongitudeDegrees>
            </Position>
            <AltitudeMeters>61.799999237060546875</AltitudeMeters>
            <DistanceMeters>NAN</DistanceMeters>
          </Trackpoint>
          <Trackpoint>
            <Time>2022-07-11T18:14:52.000Z</Time>
            <Position>
              <LatitudeDegrees>43.23100268840789794921875</LatitudeDegrees>
              <LongitudeDegrees>-2.83085175789892673492431640625</LongitudeDegrees>
            </Position>
            <AltitudeMeters>61.799999237060546875</AltitudeMeters>
            <DistanceMeters>NAN</DistanceMeters>
          </Trackpoint>
          <Trackpoint>
            <Time>2022-07-11T18:14:56.000Z</Time>
            <Position>
              <LatitudeDegrees>43.2309438474476337432861328125</LatitudeDegrees>
              <LongitudeDegrees>-2.8310174681246280670166015625</LongitudeDegrees>
            </Position>
            <AltitudeMeters>61.799999237060546875</AltitudeMeters>
            <DistanceMeters>NAN</DistanceMeters>
          </Trackpoint>
          <Trackpoint>
            <Time>2022-07-11T18:14:58.000Z</Time>
            <Position>
              <LatitudeDegrees>43.23091979138553142547607421875</LatitudeDegrees>
              <LongitudeDegrees>-2.83108946867287158966064453125</LongitudeDegrees>
            </Position>
            <AltitudeMeters>61.59999847412109375</AltitudeMeters>
            <DistanceMeters>NAN</DistanceMeters>
          </Trackpoint>
          <Trackpoint>
            <Time>2022-07-11T18:15:03.000Z</Time>
            <Position>
              <LatitudeDegrees>43.23088668286800384521484375</LatitudeDegrees>
              <LongitudeDegrees>-2.83117613755166530609130859375</LongitudeDegrees>
            </Position>
            <AltitudeMeters>61.799999237060546875</AltitudeMeters>
            <DistanceMeters>NAN</DistanceMeters>
          </Trackpoint>
          <Trackpoint>
            <Time>2022-07-11T18:15:08.000Z</Time>
            <Position>
              <LatitudeDegrees>43.23083865456283092498779296875</LatitudeDegrees>
              <LongitudeDegrees>-2.83136992715299129486083984375</LongitudeDegrees>
            </Position>
            <AltitudeMeters>62.200000762939453125</AltitudeMeters>
            <DistanceMeters>NAN</DistanceMeters>
          </Trackpoint>
          <Trackpoint>
            <Time>2022-07-11T18:15:14.000Z</Time>
            <Position>
              <LatitudeDegrees>43.2307366468012332916259765625</LatitudeDegrees>
              <LongitudeDegrees>-2.831658013164997100830078125</LongitudeDegrees>
            </Position>
            <AltitudeMeters>62.59999847412109375</AltitudeMeters>
            <DistanceMeters>NAN</DistanceMeters>
          </Trackpoint>
          <Trackpoint>
            <Time>2022-07-11T18:15:15.000Z</Time>
            <Position>
              <LatitudeDegrees>43.2307168655097484588623046875</LatitudeDegrees>
              <LongitudeDegrees>-2.831704616546630859375</LongitudeDegrees>
            </Position>
            <AltitudeMeters>62.59999847412109375</AltitudeMeters>
            <DistanceMeters>NAN</DistanceMeters>
          </Trackpoint>
          <Trackpoint>
            <Time>2022-07-11T18:15:22.000Z</Time>
            <Position>
              <LatitudeDegrees>43.2305757142603397369384765625</LatitudeDegrees>
              <LongitudeDegrees>-2.8320021741092205047607421875</LongitudeDegrees>
            </Position>
            <AltitudeMeters>63</AltitudeMeters>
            <DistanceMeters>NAN</DistanceMeters>
          </Trackpoint>
          <Trackpoint>
            <Time>2022-07-11T18:15:23.000Z</Time>
            <Position>
              <LatitudeDegrees>43.23056071065366268157958984375</LatitudeDegrees>
              <LongitudeDegrees>-2.832041569054126739501953125</LongitudeDegrees>
            </Position>
            <AltitudeMeters>63.200000762939453125</AltitudeMeters>
            <DistanceMeters>NAN</DistanceMeters>
          </Trackpoint>
          <Trackpoint>
            <Time>2022-07-11T18:15:27.000Z</Time>
            <Position>
              <LatitudeDegrees>43.23051108978688716888427734375</LatitudeDegrees>
              <LongitudeDegrees>-2.83223024569451808929443359375</LongitudeDegrees>
            </Position>
            <AltitudeMeters>63.59999847412109375</AltitudeMeters>
            <DistanceMeters>NAN</DistanceMeters>
          </Trackpoint>
          <Trackpoint>
            <Time>2022-07-11T18:15:29.000Z</Time>
            <Position>
              <LatitudeDegrees>43.23048007674515247344970703125</LatitudeDegrees>
              <LongitudeDegrees>-2.83230744302272796630859375</LongitudeDegrees>
            </Position>
            <AltitudeMeters>63.59999847412109375</AltitudeMeters>
            <DistanceMeters>NAN</DistanceMeters>
          </Trackpoint>
          <Trackpoint>
            <Time>2022-07-11T18:15:33.000Z</Time>
            <Position>
              <LatitudeDegrees>43.230420313775539398193359375</LatitudeDegrees>
              <LongitudeDegrees>-2.83246611244976520538330078125</LongitudeDegrees>
            </Position>
            <AltitudeMeters>63.799999237060546875</AltitudeMeters>
            <DistanceMeters>NAN</DistanceMeters>
          </Trackpoint>
          <Trackpoint>
            <Time>2022-07-11T18:15:39.000Z</Time>
            <Position>
              <LatitudeDegrees>43.230321742594242095947265625</LatitudeDegrees>
              <LongitudeDegrees>-2.83267884515225887298583984375</LongitudeDegrees>
            </Position>
            <AltitudeMeters>64</AltitudeMeters>
            <DistanceMeters>NAN</DistanceMeters>
          </Trackpoint>
          <Trackpoint>
            <Time>2022-07-11T18:15:41.000Z</Time>
            <Position>
              <LatitudeDegrees>43.2302878797054290771484375</LatitudeDegrees>
              <LongitudeDegrees>-2.83274774439632892608642578125</LongitudeDegrees>
            </Position>
            <AltitudeMeters>64.40000152587890625</AltitudeMeters>
            <DistanceMeters>NAN</DistanceMeters>
          </Trackpoint>
          <Trackpoint>
            <Time>2022-07-11T18:15:45.000Z</Time>
            <Position>
              <LatitudeDegrees>43.2302256859838962554931640625</LatitudeDegrees>
              <LongitudeDegrees>-2.832924015820026397705078125</LongitudeDegrees>
            </Position>
            <AltitudeMeters>64.8000030517578125</AltitudeMeters>
            <DistanceMeters>NAN</DistanceMeters>
          </Trackpoint>
          <Trackpoint>
            <Time>2022-07-11T18:15:50.000Z</Time>
            <Position>
              <LatitudeDegrees>43.2301281206309795379638671875</LatitudeDegrees>
              <LongitudeDegrees>-2.833081595599651336669921875</LongitudeDegrees>
            </Position>
            <AltitudeMeters>65.59999847412109375</AltitudeMeters>
            <DistanceMeters>NAN</DistanceMeters>
          </Trackpoint>
          <Trackpoint>
            <Time>2022-07-11T18:15:55.000Z</Time>
            <Position>
              <LatitudeDegrees>43.23002879507839679718017578125</LatitudeDegrees>
              <LongitudeDegrees>-2.83322299830615520477294921875</LongitudeDegrees>
            </Position>
            <AltitudeMeters>66</AltitudeMeters>
            <DistanceMeters>NAN</DistanceMeters>
          </Trackpoint>
          <Trackpoint>
            <Time>2022-07-11T18:16:00.000Z</Time>
            <Position>
              <LatitudeDegrees>43.2299236021935939788818359375</LatitudeDegrees>
              <LongitudeDegrees>-2.833363227546215057373046875</LongitudeDegrees>
            </Position>
            <AltitudeMeters>66</AltitudeMeters>
            <DistanceMeters>NAN</DistanceMeters>
          </Trackpoint>
          <Trackpoint>
            <Time>2022-07-11T18:16:01.000Z</Time>
            <Position>
              <LatitudeDegrees>43.2298997975885868072509765625</LatitudeDegrees>
              <LongitudeDegrees>-2.83339298330247402191162109375</LongitudeDegrees>
            </Position>
            <AltitudeMeters>66</AltitudeMeters>
            <DistanceMeters>NAN</DistanceMeters>
          </Trackpoint>
          <Trackpoint>
            <Time>2022-07-11T18:16:07.000Z</Time>
            <Position>
              <LatitudeDegrees>43.22976644150912761688232421875</LatitudeDegrees>
              <LongitudeDegrees>-2.83357067964971065521240234375</LongitudeDegrees>
            </Position>
            <AltitudeMeters>66.40000152587890625</AltitudeMeters>
            <DistanceMeters>NAN</DistanceMeters>
          </Trackpoint>
          <Trackpoint>
            <Time>2022-07-11T18:16:12.000Z</Time>
            <Position>
              <LatitudeDegrees>43.22966082952916622161865234375</LatitudeDegrees>
              <LongitudeDegrees>-2.83373714424669742584228515625</LongitudeDegrees>
            </Position>
            <AltitudeMeters>66.40000152587890625</AltitudeMeters>
            <DistanceMeters>NAN</DistanceMeters>
          </Trackpoint>
          <Trackpoint>
            <Time>2022-07-11T18:16:16.000Z</Time>
            <Position>
              <LatitudeDegrees>43.22958673350512981414794921875</LatitudeDegrees>
              <LongitudeDegrees>-2.83388131298124790191650390625</LongitudeDegrees>
            </Position>
            <AltitudeMeters>66.40000152587890625</AltitudeMeters>
            <DistanceMeters>NAN</DistanceMeters>
          </Trackpoint>
          <Trackpoint>
            <Time>2022-07-11T18:16:18.000Z</Time>
            <Position>
              <LatitudeDegrees>43.2295611687004566192626953125</LatitudeDegrees>
              <LongitudeDegrees>-2.833941914141178131103515625</LongitudeDegrees>
            </Position>
            <AltitudeMeters>66.59999847412109375</AltitudeMeters>
            <DistanceMeters>NAN</DistanceMeters>
          </Trackpoint>
          <Trackpoint>
            <Time>2022-07-11T18:16:19.000Z</Time>
            <Position>
              <LatitudeDegrees>43.2295531220734119415283203125</LatitudeDegrees>
              <LongitudeDegrees>-2.83396882005035877227783203125</LongitudeDegrees>
            </Position>
            <AltitudeMeters>66.59999847412109375</AltitudeMeters>
            <DistanceMeters>NAN</DistanceMeters>
          </Trackpoint>
          <Trackpoint>
            <Time>2022-07-11T18:16:22.000Z</Time>
            <Position>
              <LatitudeDegrees>43.22952168993651866912841796875</LatitudeDegrees>
              <LongitudeDegrees>-2.834053896367549896240234375</LongitudeDegrees>
            </Position>
            <AltitudeMeters>67</AltitudeMeters>
            <DistanceMeters>NAN</DistanceMeters>
          </Trackpoint>
          <Trackpoint>
            <Time>2022-07-11T18:16:27.000Z</Time>
            <Position>
              <LatitudeDegrees>43.22944390587508678436279296875</LatitudeDegrees>
              <LongitudeDegrees>-2.8342277370393276214599609375</LongitudeDegrees>
            </Position>
            <AltitudeMeters>67.59999847412109375</AltitudeMeters>
            <DistanceMeters>NAN</DistanceMeters>
          </Trackpoint>
          <Trackpoint>
            <Time>2022-07-11T18:16:35.000Z</Time>
            <Position>
              <LatitudeDegrees>43.22933427058160305023193359375</LatitudeDegrees>
              <LongitudeDegrees>-2.83464968204498291015625</LongitudeDegrees>
            </Position>
            <AltitudeMeters>68.40000152587890625</AltitudeMeters>
            <DistanceMeters>NAN</DistanceMeters>
          </Trackpoint>
          <Trackpoint>
            <Time>2022-07-11T18:16:38.000Z</Time>
            <Position>
              <LatitudeDegrees>43.2293732464313507080078125</LatitudeDegrees>
              <LongitudeDegrees>-2.83465529792010784149169921875</LongitudeDegrees>
            </Position>
            <AltitudeMeters>69</AltitudeMeters>
            <DistanceMeters>NAN</DistanceMeters>
          </Trackpoint>
          <Trackpoint>
            <Time>2022-07-11T18:16:39.000Z</Time>
            <Position>
              <LatitudeDegrees>43.22937517426908016204833984375</LatitudeDegrees>
              <LongitudeDegrees>-2.834670133888721466064453125</LongitudeDegrees>
            </Position>
            <AltitudeMeters>69</AltitudeMeters>
            <DistanceMeters>NAN</DistanceMeters>
          </Trackpoint>
          <Trackpoint>
            <Time>2022-07-11T18:16:44.000Z</Time>
            <Position>
              <LatitudeDegrees>43.229370228946208953857421875</LatitudeDegrees>
              <LongitudeDegrees>-2.834791503846645355224609375</LongitudeDegrees>
            </Position>
            <AltitudeMeters>70.1999969482421875</AltitudeMeters>
            <DistanceMeters>NAN</DistanceMeters>
          </Trackpoint>
          <Trackpoint>
            <Time>2022-07-11T18:16:47.000Z</Time>
            <Position>
              <LatitudeDegrees>43.2293734140694141387939453125</LatitudeDegrees>
              <LongitudeDegrees>-2.83486736007034778594970703125</LongitudeDegrees>
            </Position>
            <AltitudeMeters>70.59999847412109375</AltitudeMeters>
            <DistanceMeters>NAN</DistanceMeters>
          </Trackpoint>
          <Trackpoint>
            <Time>2022-07-11T18:16:49.000Z</Time>
            <Position>
              <LatitudeDegrees>43.229376263916492462158203125</LatitudeDegrees>
              <LongitudeDegrees>-2.8349246084690093994140625</LongitudeDegrees>
            </Position>
            <AltitudeMeters>71.1999969482421875</AltitudeMeters>
            <DistanceMeters>NAN</DistanceMeters>
          </Trackpoint>
          <Trackpoint>
            <Time>2022-07-11T18:16:50.000Z</Time>
            <Position>
              <LatitudeDegrees>43.2293807901442050933837890625</LatitudeDegrees>
              <LongitudeDegrees>-2.83495168201625347137451171875</LongitudeDegrees>
            </Position>
            <AltitudeMeters>71.1999969482421875</AltitudeMeters>
            <DistanceMeters>NAN</DistanceMeters>
          </Trackpoint>
          <Trackpoint>
            <Time>2022-07-11T18:16:51.000Z</Time>
            <Position>
              <LatitudeDegrees>43.22938657365739345550537109375</LatitudeDegrees>
              <LongitudeDegrees>-2.83497624099254608154296875</LongitudeDegrees>
            </Position>
            <AltitudeMeters>71.59999847412109375</AltitudeMeters>
            <DistanceMeters>NAN</DistanceMeters>
          </Trackpoint>
          <Trackpoint>
            <Time>2022-07-11T18:16:53.000Z</Time>
            <Position>
              <LatitudeDegrees>43.2293958775699138641357421875</LatitudeDegrees>
              <LongitudeDegrees>-2.8350303880870342254638671875</LongitudeDegrees>
            </Position>
            <AltitudeMeters>71.8000030517578125</AltitudeMeters>
            <DistanceMeters>NAN</DistanceMeters>
          </Trackpoint>
          <Trackpoint>
            <Time>2022-07-11T18:16:54.000Z</Time>
            <Position>
              <LatitudeDegrees>43.2294029183685779571533203125</LatitudeDegrees>
              <LongitudeDegrees>-2.8350528515875339508056640625</LongitudeDegrees>
            </Position>
            <AltitudeMeters>71.8000030517578125</AltitudeMeters>
            <DistanceMeters>NAN</DistanceMeters>
          </Trackpoint>
          <Trackpoint>
            <Time>2022-07-11T18:16:56.000Z</Time>
            <Position>
              <LatitudeDegrees>43.22941817343235015869140625</LatitudeDegrees>
              <LongitudeDegrees>-2.8350971080362796783447265625</LongitudeDegrees>
            </Position>
            <AltitudeMeters>72</AltitudeMeters>
            <DistanceMeters>NAN</DistanceMeters>
          </Trackpoint>
          <Trackpoint>
            <Time>2022-07-11T18:16:58.000Z</Time>
            <Position>
              <LatitudeDegrees>43.22943233884871006011962890625</LatitudeDegrees>
              <LongitudeDegrees>-2.83513792790472507476806640625</LongitudeDegrees>
            </Position>
            <AltitudeMeters>72.40000152587890625</AltitudeMeters>
            <DistanceMeters>NAN</DistanceMeters>
          </Trackpoint>
          <Trackpoint>
            <Time>2022-07-11T18:17:02.000Z</Time>
            <Position>
              <LatitudeDegrees>43.22946377098560333251953125</LatitudeDegrees>
              <LongitudeDegrees>-2.835212610661983489990234375</LongitudeDegrees>
            </Position>
            <AltitudeMeters>72.8000030517578125</AltitudeMeters>
            <DistanceMeters>NAN</DistanceMeters>
          </Trackpoint>
          <Trackpoint>
            <Time>2022-07-11T18:17:03.000Z</Time>
            <Position>
              <LatitudeDegrees>43.2294713146984577178955078125</LatitudeDegrees>
              <LongitudeDegrees>-2.8352302126586437225341796875</LongitudeDegrees>
            </Position>
            <AltitudeMeters>73.1999969482421875</AltitudeMeters>
            <DistanceMeters>NAN</DistanceMeters>
          </Trackpoint>
          <Trackpoint>
            <Time>2022-07-11T18:17:05.000Z</Time>
            <Position>
              <LatitudeDegrees>43.2294907607138156890869140625</LatitudeDegrees>
              <LongitudeDegrees>-2.83525913022458553314208984375</LongitudeDegrees>
            </Position>
            <AltitudeMeters>73.59999847412109375</AltitudeMeters>
            <DistanceMeters>NAN</DistanceMeters>
          </Trackpoint>
          <Trackpoint>
            <Time>2022-07-11T18:17:11.000Z</Time>
            <Position>
              <LatitudeDegrees>43.2295501045882701873779296875</LatitudeDegrees>
              <LongitudeDegrees>-2.83533473499119281768798828125</LongitudeDegrees>
            </Position>
            <AltitudeMeters>74.1999969482421875</AltitudeMeters>
            <DistanceMeters>NAN</DistanceMeters>
          </Trackpoint>
          <Trackpoint>
            <Time>2022-07-11T18:17:14.000Z</Time>
            <Position>
              <LatitudeDegrees>43.2295786030590534210205078125</LatitudeDegrees>
              <LongitudeDegrees>-2.83537865616381168365478515625</LongitudeDegrees>
            </Position>
            <AltitudeMeters>74.59999847412109375</AltitudeMeters>
            <DistanceMeters>NAN</DistanceMeters>
          </Trackpoint>
          <Trackpoint>
            <Time>2022-07-11T18:17:19.000Z</Time>
            <Position>
              <LatitudeDegrees>43.22963275015354156494140625</LatitudeDegrees>
              <LongitudeDegrees>-2.8354568593204021453857421875</LongitudeDegrees>
            </Position>
            <AltitudeMeters>75.1999969482421875</AltitudeMeters>
            <DistanceMeters>NAN</DistanceMeters>
          </Trackpoint>
          <Trackpoint>
            <Time>2022-07-11T18:17:22.000Z</Time>
            <Position>
              <LatitudeDegrees>43.22966250590980052947998046875</LatitudeDegrees>
              <LongitudeDegrees>-2.83549684099853038787841796875</LongitudeDegrees>
            </Position>
            <AltitudeMeters>75.59999847412109375</AltitudeMeters>
            <DistanceMeters>NAN</DistanceMeters>
          </Trackpoint>
          <Trackpoint>
            <Time>2022-07-11T18:17:26.000Z</Time>
            <Position>
              <LatitudeDegrees>43.22970726527273654937744140625</LatitudeDegrees>
              <LongitudeDegrees>-2.835547216236591339111328125</LongitudeDegrees>
            </Position>
            <AltitudeMeters>76.1999969482421875</AltitudeMeters>
            <DistanceMeters>NAN</DistanceMeters>
          </Trackpoint>
          <Trackpoint>
            <Time>2022-07-11T18:17:30.000Z</Time>
            <Position>
              <LatitudeDegrees>43.2297435589134693145751953125</LatitudeDegrees>
              <LongitudeDegrees>-2.8355990163981914520263671875</LongitudeDegrees>
            </Position>
            <AltitudeMeters>76.8000030517578125</AltitudeMeters>
            <DistanceMeters>NAN</DistanceMeters>
          </Trackpoint>
          <Trackpoint>
            <Time>2022-07-11T18:17:35.000Z</Time>
            <Position>
              <LatitudeDegrees>43.22979343123733997344970703125</LatitudeDegrees>
              <LongitudeDegrees>-2.8356731124222278594970703125</LongitudeDegrees>
            </Position>
            <AltitudeMeters>77.40000152587890625</AltitudeMeters>
            <DistanceMeters>NAN</DistanceMeters>
          </Trackpoint>
          <Trackpoint>
            <Time>2022-07-11T18:17:38.000Z</Time>
            <Position>
              <LatitudeDegrees>43.229824192821979522705078125</LatitudeDegrees>
              <LongitudeDegrees>-2.83571611158549785614013671875</LongitudeDegrees>
            </Position>
            <AltitudeMeters>77.8000030517578125</AltitudeMeters>
            <DistanceMeters>NAN</DistanceMeters>
          </Trackpoint>
          <Trackpoint>
            <Time>2022-07-11T18:17:42.000Z</Time>
            <Position>
              <LatitudeDegrees>43.22985805571079254150390625</LatitudeDegrees>
              <LongitudeDegrees>-2.8357891179621219635009765625</LongitudeDegrees>
            </Position>
            <AltitudeMeters>78.40000152587890625</AltitudeMeters>
            <DistanceMeters>NAN</DistanceMeters>
          </Trackpoint>
          <Trackpoint>
            <Time>2022-07-11T18:17:46.000Z</Time>
            <Position>
              <LatitudeDegrees>43.22990658693015575408935546875</LatitudeDegrees>
              <LongitudeDegrees>-2.8358446061611175537109375</LongitudeDegrees>
            </Position>
            <AltitudeMeters>79</AltitudeMeters>
            <DistanceMeters>NAN</DistanceMeters>
          </Trackpoint>
          <Trackpoint>
            <Time>2022-07-11T18:17:50.000Z</Time>
            <Position>
              <LatitudeDegrees>43.22994397021830081939697265625</LatitudeDegrees>
              <LongitudeDegrees>-2.83591023646295070648193359375</LongitudeDegrees>
            </Position>
            <AltitudeMeters>79.59999847412109375</AltitudeMeters>
            <DistanceMeters>NAN</DistanceMeters>
          </Trackpoint>
          <Trackpoint>
            <Time>2022-07-11T18:17:55.000Z</Time>
            <Position>
              <LatitudeDegrees>43.2299775816500186920166015625</LatitudeDegrees>
              <LongitudeDegrees>-2.83599103800952434539794921875</LongitudeDegrees>
            </Position>
            <AltitudeMeters>80.1999969482421875</AltitudeMeters>
            <DistanceMeters>NAN</DistanceMeters>
          </Trackpoint>
          <Trackpoint>
            <Time>2022-07-11T18:17:59.000Z</Time>
            <Position>
              <LatitudeDegrees>43.2300111092627048492431640625</LatitudeDegrees>
              <LongitudeDegrees>-2.836070917546749114990234375</LongitudeDegrees>
            </Position>
            <AltitudeMeters>80.59999847412109375</AltitudeMeters>
            <DistanceMeters>NAN</DistanceMeters>
          </Trackpoint>
          <Trackpoint>
            <Time>2022-07-11T18:18:04.000Z</Time>
            <Position>
              <LatitudeDegrees>43.23006534017622470855712890625</LatitudeDegrees>
              <LongitudeDegrees>-2.8361414931714534759521484375</LongitudeDegrees>
            </Position>
            <AltitudeMeters>81.1999969482421875</AltitudeMeters>
            <DistanceMeters>NAN</DistanceMeters>
          </Trackpoint>
          <Trackpoint>
            <Time>2022-07-11T18:18:07.000Z</Time>
            <Position>
              <LatitudeDegrees>43.23009065352380275726318359375</LatitudeDegrees>
              <LongitudeDegrees>-2.8361927904188632965087890625</LongitudeDegrees>
            </Position>
            <AltitudeMeters>81.59999847412109375</AltitudeMeters>
            <DistanceMeters>NAN</DistanceMeters>
          </Trackpoint>
          <Trackpoint>
            <Time>2022-07-11T18:18:11.000Z</Time>
            <Position>
              <LatitudeDegrees>43.23012971319258213043212890625</LatitudeDegrees>
              <LongitudeDegrees>-2.836255319416522979736328125</LongitudeDegrees>
            </Position>
            <AltitudeMeters>82.40000152587890625</AltitudeMeters>
            <DistanceMeters>NAN</DistanceMeters>
          </Trackpoint>
          <Trackpoint>
            <Time>2022-07-11T18:18:14.000Z</Time>
            <Position>
              <LatitudeDegrees>43.2301546074450016021728515625</LatitudeDegrees>
              <LongitudeDegrees>-2.8363064490258693695068359375</LongitudeDegrees>
            </Position>
            <AltitudeMeters>82.8000030517578125</AltitudeMeters>
            <DistanceMeters>NAN</DistanceMeters>
          </Trackpoint>
          <Trackpoint>
            <Time>2022-07-11T18:18:17.000Z</Time>
            <Position>
              <LatitudeDegrees>43.2301777414977550506591796875</LatitudeDegrees>
              <LongitudeDegrees>-2.83632866106927394866943359375</LongitudeDegrees>
            </Position>
            <AltitudeMeters>83.40000152587890625</AltitudeMeters>
            <DistanceMeters>NAN</DistanceMeters>
          </Trackpoint>
          <Trackpoint>
            <Time>2022-07-11T18:18:19.000Z</Time>
            <Position>
              <LatitudeDegrees>43.2301777414977550506591796875</LatitudeDegrees>
              <LongitudeDegrees>-2.83632866106927394866943359375</LongitudeDegrees>
            </Position>
            <AltitudeMeters>83.59999847412109375</AltitudeMeters>
            <DistanceMeters>NAN</DistanceMeters>
          </Trackpoint>
          <Trackpoint>
            <Time>2022-07-11T18:19:13.000Z</Time>
            <Position>
              <LatitudeDegrees>43.230178244411945343017578125</LatitudeDegrees>
              <LongitudeDegrees>-2.83640141598880290985107421875</LongitudeDegrees>
            </Position>
            <AltitudeMeters>84</AltitudeMeters>
            <DistanceMeters>NAN</DistanceMeters>
          </Trackpoint>
          <Trackpoint>
            <Time>2022-07-11T18:19:14.000Z</Time>
            <Position>
              <LatitudeDegrees>43.23018662631511688232421875</LatitudeDegrees>
              <LongitudeDegrees>-2.83643343485891819000244140625</LongitudeDegrees>
            </Position>
            <AltitudeMeters>84.1999969482421875</AltitudeMeters>
            <DistanceMeters>NAN</DistanceMeters>
          </Trackpoint>
          <Trackpoint>
            <Time>2022-07-11T18:19:15.000Z</Time>
            <Position>
              <LatitudeDegrees>43.23019375093281269073486328125</LatitudeDegrees>
              <LongitudeDegrees>-2.8364650346338748931884765625</LongitudeDegrees>
            </Position>
            <AltitudeMeters>84.59999847412109375</AltitudeMeters>
            <DistanceMeters>NAN</DistanceMeters>
          </Trackpoint>
          <Trackpoint>
            <Time>2022-07-11T18:19:19.000Z</Time>
            <Position>
              <LatitudeDegrees>43.230240605771541595458984375</LatitudeDegrees>
              <LongitudeDegrees>-2.8365947864949703216552734375</LongitudeDegrees>
            </Position>
            <AltitudeMeters>85.8000030517578125</AltitudeMeters>
            <DistanceMeters>NAN</DistanceMeters>
          </Trackpoint>
          <Trackpoint>
            <Time>2022-07-11T18:19:21.000Z</Time>
            <Position>
              <LatitudeDegrees>43.230277486145496368408203125</LatitudeDegrees>
              <LongitudeDegrees>-2.836664356291294097900390625</LongitudeDegrees>
            </Position>
            <AltitudeMeters>86</AltitudeMeters>
            <DistanceMeters>NAN</DistanceMeters>
          </Trackpoint>
          <Trackpoint>
            <Time>2022-07-11T18:19:24.000Z</Time>
            <Position>
              <LatitudeDegrees>43.23033054359257221221923828125</LatitudeDegrees>
              <LongitudeDegrees>-2.8367513604462146759033203125</LongitudeDegrees>
            </Position>
            <AltitudeMeters>86.8000030517578125</AltitudeMeters>
            <DistanceMeters>NAN</DistanceMeters>
          </Trackpoint>
          <Trackpoint>
            <Time>2022-07-11T18:19:26.000Z</Time>
            <Position>
              <LatitudeDegrees>43.23034361936151981353759765625</LatitudeDegrees>
              <LongitudeDegrees>-2.83684129826724529266357421875</LongitudeDegrees>
            </Position>
            <AltitudeMeters>87</AltitudeMeters>
            <DistanceMeters>NAN</DistanceMeters>
          </Trackpoint>
          <Trackpoint>
            <Time>2022-07-11T18:19:28.000Z</Time>
            <Position>
              <LatitudeDegrees>43.23031377978622913360595703125</LatitudeDegrees>
              <LongitudeDegrees>-2.83694054000079631805419921875</LongitudeDegrees>
            </Position>
            <AltitudeMeters>87</AltitudeMeters>
            <DistanceMeters>NAN</DistanceMeters>
          </Trackpoint>
          <Trackpoint>
            <Time>2022-07-11T18:19:29.000Z</Time>
            <Position>
              <LatitudeDegrees>43.2302843593060970306396484375</LatitudeDegrees>
              <LongitudeDegrees>-2.836972139775753021240234375</LongitudeDegrees>
            </Position>
            <AltitudeMeters>87</AltitudeMeters>
            <DistanceMeters>NAN</DistanceMeters>
          </Trackpoint>
          <Trackpoint>
            <Time>2022-07-11T18:19:32.000Z</Time>
            <Position>
              <LatitudeDegrees>43.23018989525735378265380859375</LatitudeDegrees>
              <LongitudeDegrees>-2.83707431517541408538818359375</LongitudeDegrees>
            </Position>
            <AltitudeMeters>87</AltitudeMeters>
            <DistanceMeters>NAN</DistanceMeters>
          </Trackpoint>
          <Trackpoint>
            <Time>2022-07-11T18:19:34.000Z</Time>
            <Position>
              <LatitudeDegrees>43.23015117086470127105712890625</LatitudeDegrees>
              <LongitudeDegrees>-2.83715478144586086273193359375</LongitudeDegrees>
            </Position>
            <AltitudeMeters>87</AltitudeMeters>
            <DistanceMeters>NAN</DistanceMeters>
          </Trackpoint>
          <Trackpoint>
            <Time>2022-07-11T18:19:36.000Z</Time>
            <Position>
              <LatitudeDegrees>43.23012669570744037628173828125</LatitudeDegrees>
              <LongitudeDegrees>-2.83724212087690830230712890625</LongitudeDegrees>
            </Position>
            <AltitudeMeters>87.1999969482421875</AltitudeMeters>
            <DistanceMeters>NAN</DistanceMeters>
          </Trackpoint>
          <Trackpoint>
            <Time>2022-07-11T18:19:37.000Z</Time>
            <Position>
              <LatitudeDegrees>43.230117224156856536865234375</LatitudeDegrees>
              <LongitudeDegrees>-2.8372878022491931915283203125</LongitudeDegrees>
            </Position>
            <AltitudeMeters>87.1999969482421875</AltitudeMeters>
            <DistanceMeters>NAN</DistanceMeters>
          </Trackpoint>
          <Trackpoint>
            <Time>2022-07-11T18:19:41.000Z</Time>
            <Position>
              <LatitudeDegrees>43.230100460350513458251953125</LatitudeDegrees>
              <LongitudeDegrees>-2.8374594636261463165283203125</LongitudeDegrees>
            </Position>
            <AltitudeMeters>87.40000152587890625</AltitudeMeters>
            <DistanceMeters>NAN</DistanceMeters>
          </Trackpoint>
          <Trackpoint>
            <Time>2022-07-11T18:19:49.000Z</Time>
            <Position>
              <LatitudeDegrees>43.23011026717722415924072265625</LatitudeDegrees>
              <LongitudeDegrees>-2.83784846775233745574951171875</LongitudeDegrees>
            </Position>
            <AltitudeMeters>87.59999847412109375</AltitudeMeters>
            <DistanceMeters>NAN</DistanceMeters>
          </Trackpoint>
          <Trackpoint>
            <Time>2022-07-11T18:19:52.000Z</Time>
            <Position>
              <LatitudeDegrees>43.2301311381161212921142578125</LatitudeDegrees>
              <LongitudeDegrees>-2.83803488127887248992919921875</LongitudeDegrees>
            </Position>
            <AltitudeMeters>87.1999969482421875</AltitudeMeters>
            <DistanceMeters>NAN</DistanceMeters>
          </Trackpoint>
          <Trackpoint>
            <Time>2022-07-11T18:19:54.000Z</Time>
            <Position>
              <LatitudeDegrees>43.23015536181628704071044921875</LatitudeDegrees>
              <LongitudeDegrees>-2.838192544877529144287109375</LongitudeDegrees>
            </Position>
            <AltitudeMeters>86.8000030517578125</AltitudeMeters>
            <DistanceMeters>NAN</DistanceMeters>
          </Trackpoint>
          <Trackpoint>
            <Time>2022-07-11T18:19:57.000Z</Time>
            <Position>
              <LatitudeDegrees>43.2301995344460010528564453125</LatitudeDegrees>
              <LongitudeDegrees>-2.838450036942958831787109375</LongitudeDegrees>
            </Position>
            <AltitudeMeters>86.40000152587890625</AltitudeMeters>
            <DistanceMeters>NAN</DistanceMeters>
          </Trackpoint>
          <Trackpoint>
            <Time>2022-07-11T18:19:58.000Z</Time>
            <Position>
              <LatitudeDegrees>43.230217136442661285400390625</LatitudeDegrees>
              <LongitudeDegrees>-2.83854366280138492584228515625</LongitudeDegrees>
            </Position>
            <AltitudeMeters>86</AltitudeMeters>
            <DistanceMeters>NAN</DistanceMeters>
          </Trackpoint>
          <Trackpoint>
            <Time>2022-07-11T18:19:59.000Z</Time>
            <Position>
              <LatitudeDegrees>43.2302444614470005035400390625</LatitudeDegrees>
              <LongitudeDegrees>-2.83863485790789127349853515625</LongitudeDegrees>
            </Position>
            <AltitudeMeters>85.59999847412109375</AltitudeMeters>
            <DistanceMeters>NAN</DistanceMeters>
          </Trackpoint>
          <Trackpoint>
            <Time>2022-07-11T18:20:00.000Z</Time>
            <Position>
              <LatitudeDegrees>43.23027958162128925323486328125</LatitudeDegrees>
              <LongitudeDegrees>-2.838721610605716705322265625</LongitudeDegrees>
            </Position>
            <AltitudeMeters>85.40000152587890625</AltitudeMeters>
            <DistanceMeters>NAN</DistanceMeters>
          </Trackpoint>
          <Trackpoint>
            <Time>2022-07-11T18:20:02.000Z</Time>
            <Position>
              <LatitudeDegrees>43.23034764267504215240478515625</LatitudeDegrees>
              <LongitudeDegrees>-2.83888849429786205291748046875</LongitudeDegrees>
            </Position>
            <AltitudeMeters>84.1999969482421875</AltitudeMeters>
            <DistanceMeters>NAN</DistanceMeters>
          </Trackpoint>
          <Trackpoint>
            <Time>2022-07-11T18:20:03.000Z</Time>
            <Position>
              <LatitudeDegrees>43.230388462543487548828125</LatitudeDegrees>
              <LongitudeDegrees>-2.83896292559802532196044921875</LongitudeDegrees>
            </Position>
            <AltitudeMeters>83.59999847412109375</AltitudeMeters>
            <DistanceMeters>NAN</DistanceMeters>
          </Trackpoint>
          <Trackpoint>
            <Time>2022-07-11T18:20:04.000Z</Time>
            <Position>
              <LatitudeDegrees>43.230434395372867584228515625</LatitudeDegrees>
              <LongitudeDegrees>-2.83903216011822223663330078125</LongitudeDegrees>
            </Position>
            <AltitudeMeters>83.1999969482421875</AltitudeMeters>
            <DistanceMeters>NAN</DistanceMeters>
          </Trackpoint>
          <Trackpoint>
            <Time>2022-07-11T18:20:05.000Z</Time>
            <Position>
              <LatitudeDegrees>43.2304818369448184967041015625</LatitudeDegrees>
              <LongitudeDegrees>-2.8390969522297382354736328125</LongitudeDegrees>
            </Position>
            <AltitudeMeters>82.59999847412109375</AltitudeMeters>
            <DistanceMeters>NAN</DistanceMeters>
          </Trackpoint>
          <Trackpoint>
            <Time>2022-07-11T18:20:07.000Z</Time>
            <Position>
              <LatitudeDegrees>43.230571858584880828857421875</LatitudeDegrees>
              <LongitudeDegrees>-2.83923567272722721099853515625</LongitudeDegrees>
            </Position>
            <AltitudeMeters>81.1999969482421875</AltitudeMeters>
            <DistanceMeters>NAN</DistanceMeters>
          </Trackpoint>
          <Trackpoint>
            <Time>2022-07-11T18:20:09.000Z</Time>
            <Position>
              <LatitudeDegrees>43.2306722737848758697509765625</LatitudeDegrees>
              <LongitudeDegrees>-2.83939358778297901153564453125</LongitudeDegrees>
            </Position>
            <AltitudeMeters>79.8000030517578125</AltitudeMeters>
            <DistanceMeters>NAN</DistanceMeters>
          </Trackpoint>
          <Trackpoint>
            <Time>2022-07-11T18:20:11.000Z</Time>
            <Position>
              <LatitudeDegrees>43.2307718507945537567138671875</LatitudeDegrees>
              <LongitudeDegrees>-2.83955737017095088958740234375</LongitudeDegrees>
            </Position>
            <AltitudeMeters>78.40000152587890625</AltitudeMeters>
            <DistanceMeters>NAN</DistanceMeters>
          </Trackpoint>
          <Trackpoint>
            <Time>2022-07-11T18:20:13.000Z</Time>
            <Position>
              <LatitudeDegrees>43.23085877113044261932373046875</LatitudeDegrees>
              <LongitudeDegrees>-2.839721404016017913818359375</LongitudeDegrees>
            </Position>
            <AltitudeMeters>77.59999847412109375</AltitudeMeters>
            <DistanceMeters>NAN</DistanceMeters>
          </Trackpoint>
          <Trackpoint>
            <Time>2022-07-11T18:20:14.000Z</Time>
            <Position>
              <LatitudeDegrees>43.2308908738195896148681640625</LatitudeDegrees>
              <LongitudeDegrees>-2.8398090787231922149658203125</LongitudeDegrees>
            </Position>
            <AltitudeMeters>76.8000030517578125</AltitudeMeters>
            <DistanceMeters>NAN</DistanceMeters>
          </Trackpoint>
          <Trackpoint>
            <Time>2022-07-11T18:20:15.000Z</Time>
            <Position>
              <LatitudeDegrees>43.23091392405331134796142578125</LatitudeDegrees>
              <LongitudeDegrees>-2.8399002738296985626220703125</LongitudeDegrees>
            </Position>
            <AltitudeMeters>76.1999969482421875</AltitudeMeters>
            <DistanceMeters>NAN</DistanceMeters>
          </Trackpoint>
          <Trackpoint>
            <Time>2022-07-11T18:20:16.000Z</Time>
            <Position>
              <LatitudeDegrees>43.23092750273644924163818359375</LatitudeDegrees>
              <LongitudeDegrees>-2.83999037928879261016845703125</LongitudeDegrees>
            </Position>
            <AltitudeMeters>75.59999847412109375</AltitudeMeters>
            <DistanceMeters>NAN</DistanceMeters>
          </Trackpoint>
          <Trackpoint>
            <Time>2022-07-11T18:20:17.000Z</Time>
            <Position>
              <LatitudeDegrees>43.23092691600322723388671875</LatitudeDegrees>
              <LongitudeDegrees>-2.84008543007075786590576171875</LongitudeDegrees>
            </Position>
            <AltitudeMeters>75</AltitudeMeters>
            <DistanceMeters>NAN</DistanceMeters>
          </Trackpoint>
          <Trackpoint>
            <Time>2022-07-11T18:20:18.000Z</Time>
            <Position>
              <LatitudeDegrees>43.23092130012810230255126953125</LatitudeDegrees>
              <LongitudeDegrees>-2.8401812352240085601806640625</LongitudeDegrees>
            </Position>
            <AltitudeMeters>74.59999847412109375</AltitudeMeters>
            <DistanceMeters>NAN</DistanceMeters>
          </Trackpoint>
          <Trackpoint>
            <Time>2022-07-11T18:20:19.000Z</Time>
            <Position>
              <LatitudeDegrees>43.23091224767267704010009765625</LatitudeDegrees>
              <LongitudeDegrees>-2.84027092158794403076171875</LongitudeDegrees>
            </Position>
            <AltitudeMeters>74</AltitudeMeters>
            <DistanceMeters>NAN</DistanceMeters>
          </Trackpoint>
          <Trackpoint>
            <Time>2022-07-11T18:20:21.000Z</Time>
            <Position>
              <LatitudeDegrees>43.2308851741254329681396484375</LatitudeDegrees>
              <LongitudeDegrees>-2.84044903703033924102783203125</LongitudeDegrees>
            </Position>
            <AltitudeMeters>73</AltitudeMeters>
            <DistanceMeters>NAN</DistanceMeters>
          </Trackpoint>
          <Trackpoint>
            <Time>2022-07-11T18:20:24.000Z</Time>
            <Position>
              <LatitudeDegrees>43.2308471202850341796875</LatitudeDegrees>
              <LongitudeDegrees>-2.84071675501763820648193359375</LongitudeDegrees>
            </Position>
            <AltitudeMeters>72</AltitudeMeters>
            <DistanceMeters>NAN</DistanceMeters>
          </Trackpoint>
          <Trackpoint>
            <Time>2022-07-11T18:20:25.000Z</Time>
            <Position>
              <LatitudeDegrees>43.2308350503444671630859375</LatitudeDegrees>
              <LongitudeDegrees>-2.8407994844019412994384765625</LongitudeDegrees>
            </Position>
            <AltitudeMeters>71.8000030517578125</AltitudeMeters>
            <DistanceMeters>NAN</DistanceMeters>
          </Trackpoint>
          <Trackpoint>
            <Time>2022-07-11T18:20:27.000Z</Time>
            <Position>
              <LatitudeDegrees>43.2308109104633331298828125</LatitudeDegrees>
              <LongitudeDegrees>-2.8409637697041034698486328125</LongitudeDegrees>
            </Position>
            <AltitudeMeters>70.8000030517578125</AltitudeMeters>
            <DistanceMeters>NAN</DistanceMeters>
          </Trackpoint>
          <Trackpoint>
            <Time>2022-07-11T18:28:19.000Z</Time>
            <Position>
              <LatitudeDegrees>43.2295534573495388031005859375</LatitudeDegrees>
              <LongitudeDegrees>-2.84913050942122936248779296875</LongitudeDegrees>
            </Position>
            <AltitudeMeters>65.1999969482421875</AltitudeMeters>
            <DistanceMeters>NAN</DistanceMeters>
          </Trackpoint>
          <Trackpoint>
            <Time>2022-07-11T18:28:21.000Z</Time>
            <Position>
              <LatitudeDegrees>43.22953275404870510101318359375</LatitudeDegrees>
              <LongitudeDegrees>-2.8491984866559505462646484375</LongitudeDegrees>
            </Position>
            <AltitudeMeters>65.1999969482421875</AltitudeMeters>
            <DistanceMeters>NAN</DistanceMeters>
          </Trackpoint>
          <Trackpoint>
            <Time>2022-07-11T18:28:23.000Z</Time>
            <Position>
              <LatitudeDegrees>43.22952009737491607666015625</LatitudeDegrees>
              <LongitudeDegrees>-2.84928389824926853179931640625</LongitudeDegrees>
            </Position>
            <AltitudeMeters>64</AltitudeMeters>
            <DistanceMeters>NAN</DistanceMeters>
          </Trackpoint>
          <Trackpoint>
            <Time>2022-07-11T18:28:25.000Z</Time>
            <Position>
              <LatitudeDegrees>43.2295122183859348297119140625</LatitudeDegrees>
              <LongitudeDegrees>-2.84937727265059947967529296875</LongitudeDegrees>
            </Position>
            <AltitudeMeters>62.799999237060546875</AltitudeMeters>
            <DistanceMeters>NAN</DistanceMeters>
          </Trackpoint>
          <Trackpoint>
            <Time>2022-07-11T18:28:26.000Z</Time>
            <Position>
              <LatitudeDegrees>43.22950777597725391387939453125</LatitudeDegrees>
              <LongitudeDegrees>-2.8494271449744701385498046875</LongitudeDegrees>
            </Position>
            <AltitudeMeters>62.59999847412109375</AltitudeMeters>
            <DistanceMeters>NAN</DistanceMeters>
          </Trackpoint>
          <Trackpoint>
            <Time>2022-07-11T18:28:33.000Z</Time>
            <Position>
              <LatitudeDegrees>43.2294451631605625152587890625</LatitudeDegrees>
              <LongitudeDegrees>-2.84979720599949359893798828125</LongitudeDegrees>
            </Position>
            <AltitudeMeters>62.59999847412109375</AltitudeMeters>
            <DistanceMeters>NAN</DistanceMeters>
          </Trackpoint>
          <Trackpoint>
            <Time>2022-07-11T18:28:40.000Z</Time>
            <Position>
              <LatitudeDegrees>43.22940836660563945770263671875</LatitudeDegrees>
              <LongitudeDegrees>-2.850149832665920257568359375</LongitudeDegrees>
            </Position>
            <AltitudeMeters>62</AltitudeMeters>
            <DistanceMeters>NAN</DistanceMeters>
          </Trackpoint>
          <Trackpoint>
            <Time>2022-07-11T18:28:49.000Z</Time>
            <Position>
              <LatitudeDegrees>43.22935044765472412109375</LatitudeDegrees>
              <LongitudeDegrees>-2.8506690077483654022216796875</LongitudeDegrees>
            </Position>
            <AltitudeMeters>61.799999237060546875</AltitudeMeters>
            <DistanceMeters>NAN</DistanceMeters>
          </Trackpoint>
          <Trackpoint>
            <Time>2022-07-11T18:29:02.000Z</Time>
            <Position>
              <LatitudeDegrees>43.2292852364480495452880859375</LatitudeDegrees>
              <LongitudeDegrees>-2.85142086446285247802734375</LongitudeDegrees>
            </Position>
            <AltitudeMeters>61.40000152587890625</AltitudeMeters>
            <DistanceMeters>NAN</DistanceMeters>
          </Trackpoint>
          <Trackpoint>
            <Time>2022-07-11T18:29:08.000Z</Time>
            <Position>
              <LatitudeDegrees>43.22928079403936862945556640625</LatitudeDegrees>
              <LongitudeDegrees>-2.85169989801943302154541015625</LongitudeDegrees>
            </Position>
            <AltitudeMeters>61.40000152587890625</AltitudeMeters>
            <DistanceMeters>NAN</DistanceMeters>
          </Trackpoint>
          <Trackpoint>
            <Time>2022-07-11T18:29:13.000Z</Time>
            <Position>
              <LatitudeDegrees>43.22924424894154071807861328125</LatitudeDegrees>
              <LongitudeDegrees>-2.8519631735980510711669921875</LongitudeDegrees>
            </Position>
            <AltitudeMeters>61.200000762939453125</AltitudeMeters>
            <DistanceMeters>NAN</DistanceMeters>
          </Trackpoint>
          <Trackpoint>
            <Time>2022-07-11T18:29:20.000Z</Time>
            <Position>
              <LatitudeDegrees>43.2292044349014759063720703125</LatitudeDegrees>
              <LongitudeDegrees>-2.8522689454257488250732421875</LongitudeDegrees>
            </Position>
            <AltitudeMeters>61.40000152587890625</AltitudeMeters>
            <DistanceMeters>NAN</DistanceMeters>
          </Trackpoint>
          <Trackpoint>
            <Time>2022-07-11T18:29:28.000Z</Time>
            <Position>
              <LatitudeDegrees>43.22918356396257877349853515625</LatitudeDegrees>
              <LongitudeDegrees>-2.85256306640803813934326171875</LongitudeDegrees>
            </Position>
            <AltitudeMeters>62.200000762939453125</AltitudeMeters>
            <DistanceMeters>NAN</DistanceMeters>
          </Trackpoint>
          <Trackpoint>
            <Time>2022-07-11T18:29:32.000Z</Time>
            <Position>
              <LatitudeDegrees>43.22918104939162731170654296875</LatitudeDegrees>
              <LongitudeDegrees>-2.8526833467185497283935546875</LongitudeDegrees>
            </Position>
            <AltitudeMeters>63</AltitudeMeters>
            <DistanceMeters>NAN</DistanceMeters>
          </Trackpoint>
          <Trackpoint>
            <Time>2022-07-11T18:29:36.000Z</Time>
            <Position>
              <LatitudeDegrees>43.2291655428707599639892578125</LatitudeDegrees>
              <LongitudeDegrees>-2.85282022319734096527099609375</LongitudeDegrees>
            </Position>
            <AltitudeMeters>63.40000152587890625</AltitudeMeters>
            <DistanceMeters>NAN</DistanceMeters>
          </Trackpoint>
          <Trackpoint>
            <Time>2022-07-11T18:29:42.000Z</Time>
            <Position>
              <LatitudeDegrees>43.2291801273822784423828125</LatitudeDegrees>
              <LongitudeDegrees>-2.85300848074257373809814453125</LongitudeDegrees>
            </Position>
            <AltitudeMeters>64</AltitudeMeters>
            <DistanceMeters>NAN</DistanceMeters>
          </Trackpoint>
          <Trackpoint>
            <Time>2022-07-11T18:29:43.000Z</Time>
            <Position>
              <LatitudeDegrees>43.22917585261166095733642578125</LatitudeDegrees>
              <LongitudeDegrees>-2.853045277297496795654296875</LongitudeDegrees>
            </Position>
            <AltitudeMeters>64.1999969482421875</AltitudeMeters>
            <DistanceMeters>NAN</DistanceMeters>
          </Trackpoint>
          <Trackpoint>
            <Time>2022-07-11T18:29:51.000Z</Time>
            <Position>
              <LatitudeDegrees>43.22914659976959228515625</LatitudeDegrees>
              <LongitudeDegrees>-2.8533299267292022705078125</LongitudeDegrees>
            </Position>
            <AltitudeMeters>64.59999847412109375</AltitudeMeters>
            <DistanceMeters>NAN</DistanceMeters>
          </Trackpoint>
          <Trackpoint>
            <Time>2022-07-11T18:29:59.000Z</Time>
            <Position>
              <LatitudeDegrees>43.2290803827345371246337890625</LatitudeDegrees>
              <LongitudeDegrees>-2.85368322394788265228271484375</LongitudeDegrees>
            </Position>
            <AltitudeMeters>64.1999969482421875</AltitudeMeters>
            <DistanceMeters>NAN</DistanceMeters>
          </Trackpoint>
          <Trackpoint>
            <Time>2022-07-11T18:30:06.000Z</Time>
            <Position>
              <LatitudeDegrees>43.2290401495993137359619140625</LatitudeDegrees>
              <LongitudeDegrees>-2.85411673597991466522216796875</LongitudeDegrees>
            </Position>
            <AltitudeMeters>63.59999847412109375</AltitudeMeters>
            <DistanceMeters>NAN</DistanceMeters>
          </Trackpoint>
          <Trackpoint>
            <Time>2022-07-11T18:30:10.000Z</Time>
            <Position>
              <LatitudeDegrees>43.22902380488812923431396484375</LatitudeDegrees>
              <LongitudeDegrees>-2.8543791733682155609130859375</LongitudeDegrees>
            </Position>
            <AltitudeMeters>63</AltitudeMeters>
            <DistanceMeters>NAN</DistanceMeters>
          </Trackpoint>
          <Trackpoint>
            <Time>2022-07-11T18:30:12.000Z</Time>
            <Position>
              <LatitudeDegrees>43.22902514599263668060302734375</LatitudeDegrees>
              <LongitudeDegrees>-2.8545079194009304046630859375</LongitudeDegrees>
            </Position>
            <AltitudeMeters>62.59999847412109375</AltitudeMeters>
            <DistanceMeters>NAN</DistanceMeters>
          </Trackpoint>
          <Trackpoint>
            <Time>2022-07-11T18:30:20.000Z</Time>
            <Position>
              <LatitudeDegrees>43.2290699891746044158935546875</LatitudeDegrees>
              <LongitudeDegrees>-2.855036817491054534912109375</LongitudeDegrees>
            </Position>
            <AltitudeMeters>61.799999237060546875</AltitudeMeters>
            <DistanceMeters>NAN</DistanceMeters>
          </Trackpoint>
          <Trackpoint>
            <Time>2022-07-11T18:30:22.000Z</Time>
            <Position>
              <LatitudeDegrees>43.22908482514321804046630859375</LatitudeDegrees>
              <LongitudeDegrees>-2.85517453216016292572021484375</LongitudeDegrees>
            </Position>
            <AltitudeMeters>61.59999847412109375</AltitudeMeters>
            <DistanceMeters>NAN</DistanceMeters>
          </Trackpoint>
          <Trackpoint>
            <Time>2022-07-11T18:30:28.000Z</Time>
            <Position>
              <LatitudeDegrees>43.229122795164585113525390625</LatitudeDegrees>
              <LongitudeDegrees>-2.85559035837650299072265625</LongitudeDegrees>
            </Position>
            <AltitudeMeters>60.799999237060546875</AltitudeMeters>
            <DistanceMeters>NAN</DistanceMeters>
          </Trackpoint>
          <Trackpoint>
            <Time>2022-07-11T18:30:34.000Z</Time>
            <Position>
              <LatitudeDegrees>43.22916596196591854095458984375</LatitudeDegrees>
              <LongitudeDegrees>-2.855965197086334228515625</LongitudeDegrees>
            </Position>
            <AltitudeMeters>60.59999847412109375</AltitudeMeters>
            <DistanceMeters>NAN</DistanceMeters>
          </Trackpoint>
          <Trackpoint>
            <Time>2022-07-11T18:30:42.000Z</Time>
            <Position>
              <LatitudeDegrees>43.2292158342897891998291015625</LatitudeDegrees>
              <LongitudeDegrees>-2.856418155133724212646484375</LongitudeDegrees>
            </Position>
            <AltitudeMeters>60.59999847412109375</AltitudeMeters>
            <DistanceMeters>NAN</DistanceMeters>
          </Trackpoint>
          <Trackpoint>
            <Time>2022-07-11T18:30:50.000Z</Time>
            <Position>
              <LatitudeDegrees>43.229253552854061126708984375</LatitudeDegrees>
              <LongitudeDegrees>-2.8568407706916332244873046875</LongitudeDegrees>
            </Position>
            <AltitudeMeters>60.59999847412109375</AltitudeMeters>
            <DistanceMeters>NAN</DistanceMeters>
          </Trackpoint>
          <Trackpoint>
            <Time>2022-07-11T18:31:00.000Z</Time>
            <Position>
              <LatitudeDegrees>43.22930946014821529388427734375</LatitudeDegrees>
              <LongitudeDegrees>-2.85737880505621433258056640625</LongitudeDegrees>
            </Position>
            <AltitudeMeters>60.40000152587890625</AltitudeMeters>
            <DistanceMeters>NAN</DistanceMeters>
          </Trackpoint>
          <Trackpoint>
            <Time>2022-07-11T18:31:06.000Z</Time>
            <Position>
              <LatitudeDegrees>43.22933971881866455078125</LatitudeDegrees>
              <LongitudeDegrees>-2.85758298821747303009033203125</LongitudeDegrees>
            </Position>
            <AltitudeMeters>60</AltitudeMeters>
            <DistanceMeters>NAN</DistanceMeters>
          </Trackpoint>
          <Trackpoint>
            <Time>2022-07-11T18:34:27.000Z</Time>
            <Position>
              <LatitudeDegrees>43.229358159005641937255859375</LatitudeDegrees>
              <LongitudeDegrees>-2.85764853470027446746826171875</LongitudeDegrees>
            </Position>
            <AltitudeMeters>56.59999847412109375</AltitudeMeters>
            <DistanceMeters>NAN</DistanceMeters>
          </Trackpoint>
          <Trackpoint>
            <Time>2022-07-11T18:34:29.000Z</Time>
            <Position>
              <LatitudeDegrees>43.22937400080263614654541015625</LatitudeDegrees>
              <LongitudeDegrees>-2.85774375312030315399169921875</LongitudeDegrees>
            </Position>
            <AltitudeMeters>56.59999847412109375</AltitudeMeters>
            <DistanceMeters>NAN</DistanceMeters>
          </Trackpoint>
          <Trackpoint>
            <Time>2022-07-11T18:34:36.000Z</Time>
            <Position>
              <LatitudeDegrees>43.22945530526340007781982421875</LatitudeDegrees>
              <LongitudeDegrees>-2.858113311231136322021484375</LongitudeDegrees>
            </Position>
            <AltitudeMeters>56.40000152587890625</AltitudeMeters>
            <DistanceMeters>NAN</DistanceMeters>
          </Trackpoint>
          <Trackpoint>
            <Time>2022-07-11T18:34:38.000Z</Time>
            <Position>
              <LatitudeDegrees>43.22951138019561767578125</LatitudeDegrees>
              <LongitudeDegrees>-2.85816469229757785797119140625</LongitudeDegrees>
            </Position>
            <AltitudeMeters>56.40000152587890625</AltitudeMeters>
            <DistanceMeters>NAN</DistanceMeters>
          </Trackpoint>
          <Trackpoint>
            <Time>2022-07-11T18:34:39.000Z</Time>
            <Position>
              <LatitudeDegrees>43.22953627444803714752197265625</LatitudeDegrees>
              <LongitudeDegrees>-2.8581704758107662200927734375</LongitudeDegrees>
            </Position>
            <AltitudeMeters>56.200000762939453125</AltitudeMeters>
            <DistanceMeters>NAN</DistanceMeters>
          </Trackpoint>
          <Trackpoint>
            <Time>2022-07-11T18:34:41.000Z</Time>
            <Position>
              <LatitudeDegrees>43.2295796088874340057373046875</LatitudeDegrees>
              <LongitudeDegrees>-2.8581766784191131591796875</LongitudeDegrees>
            </Position>
            <AltitudeMeters>56</AltitudeMeters>
            <DistanceMeters>NAN</DistanceMeters>
          </Trackpoint>
          <Trackpoint>
            <Time>2022-07-11T18:34:42.000Z</Time>
            <Position>
              <LatitudeDegrees>43.22958941571414470672607421875</LatitudeDegrees>
              <LongitudeDegrees>-2.8582056798040866851806640625</LongitudeDegrees>
            </Position>
            <AltitudeMeters>55.799999237060546875</AltitudeMeters>
            <DistanceMeters>NAN</DistanceMeters>
          </Trackpoint>
          <Trackpoint>
            <Time>2022-07-11T18:34:43.000Z</Time>
            <Position>
              <LatitudeDegrees>43.22958069853484630584716796875</LatitudeDegrees>
              <LongitudeDegrees>-2.8582388721406459808349609375</LongitudeDegrees>
            </Position>
            <AltitudeMeters>55.59999847412109375</AltitudeMeters>
            <DistanceMeters>NAN</DistanceMeters>
          </Trackpoint>
          <Trackpoint>
            <Time>2022-07-11T18:34:44.000Z</Time>
            <Position>
              <LatitudeDegrees>43.22954465635120868682861328125</LatitudeDegrees>
              <LongitudeDegrees>-2.85827248357236385345458984375</LongitudeDegrees>
            </Position>
            <AltitudeMeters>55.59999847412109375</AltitudeMeters>
            <DistanceMeters>NAN</DistanceMeters>
          </Trackpoint>
          <Trackpoint>
            <Time>2022-07-11T18:34:49.000Z</Time>
            <Position>
              <LatitudeDegrees>43.22940073907375335693359375</LatitudeDegrees>
              <LongitudeDegrees>-2.858371473848819732666015625</LongitudeDegrees>
            </Position>
            <AltitudeMeters>55.40000152587890625</AltitudeMeters>
            <DistanceMeters>NAN</DistanceMeters>
          </Trackpoint>
          <Trackpoint>
            <Time>2022-07-11T18:34:53.000Z</Time>
            <Position>
              <LatitudeDegrees>43.22939445264637470245361328125</LatitudeDegrees>
              <LongitudeDegrees>-2.8585548698902130126953125</LongitudeDegrees>
            </Position>
            <AltitudeMeters>55.40000152587890625</AltitudeMeters>
            <DistanceMeters>NAN</DistanceMeters>
          </Trackpoint>
          <Trackpoint>
            <Time>2022-07-11T18:35:02.000Z</Time>
            <Position>
              <LatitudeDegrees>43.2294408045709133148193359375</LatitudeDegrees>
              <LongitudeDegrees>-2.8590153716504573822021484375</LongitudeDegrees>
            </Position>
            <AltitudeMeters>55</AltitudeMeters>
            <DistanceMeters>NAN</DistanceMeters>
          </Trackpoint>
          <Trackpoint>
            <Time>2022-07-11T18:35:11.000Z</Time>
            <Position>
              <LatitudeDegrees>43.2294947840273380279541015625</LatitudeDegrees>
              <LongitudeDegrees>-2.85953060723841190338134765625</LongitudeDegrees>
            </Position>
            <AltitudeMeters>54.799999237060546875</AltitudeMeters>
            <DistanceMeters>NAN</DistanceMeters>
          </Trackpoint>
          <Trackpoint>
            <Time>2022-07-11T18:35:15.000Z</Time>
            <Position>
              <LatitudeDegrees>43.22952185757458209991455078125</LatitudeDegrees>
              <LongitudeDegrees>-2.85977066494524478912353515625</LongitudeDegrees>
            </Position>
            <AltitudeMeters>54.59999847412109375</AltitudeMeters>
            <DistanceMeters>NAN</DistanceMeters>
          </Trackpoint>
          <Trackpoint>
            <Time>2022-07-11T18:35:19.000Z</Time>
            <Position>
              <LatitudeDegrees>43.2295368611812591552734375</LatitudeDegrees>
              <LongitudeDegrees>-2.8599863313138484954833984375</LongitudeDegrees>
            </Position>
            <AltitudeMeters>54.59999847412109375</AltitudeMeters>
            <DistanceMeters>NAN</DistanceMeters>
          </Trackpoint>
          <Trackpoint>
            <Time>2022-07-11T18:35:27.000Z</Time>
            <Position>
              <LatitudeDegrees>43.22958053089678287506103515625</LatitudeDegrees>
              <LongitudeDegrees>-2.86035873927175998687744140625</LongitudeDegrees>
            </Position>
            <AltitudeMeters>55.200000762939453125</AltitudeMeters>
            <DistanceMeters>NAN</DistanceMeters>
          </Trackpoint>
          <Trackpoint>
            <Time>2022-07-11T18:35:31.000Z</Time>
            <Position>
              <LatitudeDegrees>43.2296097837388515472412109375</LatitudeDegrees>
              <LongitudeDegrees>-2.860531322658061981201171875</LongitudeDegrees>
            </Position>
            <AltitudeMeters>55.59999847412109375</AltitudeMeters>
            <DistanceMeters>NAN</DistanceMeters>
          </Trackpoint>
          <Trackpoint>
            <Time>2022-07-11T18:35:34.000Z</Time>
            <Position>
              <LatitudeDegrees>43.22962361387908458709716796875</LatitudeDegrees>
              <LongitudeDegrees>-2.8606592305004596710205078125</LongitudeDegrees>
            </Position>
            <AltitudeMeters>55.799999237060546875</AltitudeMeters>
            <DistanceMeters>NAN</DistanceMeters>
          </Trackpoint>
          <Trackpoint>
            <Time>2022-07-11T18:35:44.000Z</Time>
            <Position>
              <LatitudeDegrees>43.22967675514519214630126953125</LatitudeDegrees>
              <LongitudeDegrees>-2.861061394214630126953125</LongitudeDegrees>
            </Position>
            <AltitudeMeters>56.40000152587890625</AltitudeMeters>
            <DistanceMeters>NAN</DistanceMeters>
          </Trackpoint>
          <Trackpoint>
            <Time>2022-07-11T18:35:46.000Z</Time>
            <Position>
              <LatitudeDegrees>43.22969309985637664794921875</LatitudeDegrees>
              <LongitudeDegrees>-2.8611403517425060272216796875</LongitudeDegrees>
            </Position>
            <AltitudeMeters>56.59999847412109375</AltitudeMeters>
            <DistanceMeters>NAN</DistanceMeters>
          </Trackpoint>
          <Trackpoint>
            <Time>2022-07-11T18:35:50.000Z</Time>
            <Position>
              <LatitudeDegrees>43.22971698828041553497314453125</LatitudeDegrees>
              <LongitudeDegrees>-2.8612999431788921356201171875</LongitudeDegrees>
            </Position>
            <AltitudeMeters>57</AltitudeMeters>
            <DistanceMeters>NAN</DistanceMeters>
          </Trackpoint>
          <Trackpoint>
            <Time>2022-07-11T18:35:57.000Z</Time>
            <Position>
              <LatitudeDegrees>43.2297740690410137176513671875</LatitudeDegrees>
              <LongitudeDegrees>-2.8615731932222843170166015625</LongitudeDegrees>
            </Position>
            <AltitudeMeters>57.59999847412109375</AltitudeMeters>
            <DistanceMeters>NAN</DistanceMeters>
          </Trackpoint>
          <Trackpoint>
            <Time>2022-07-11T18:35:59.000Z</Time>
            <Position>
              <LatitudeDegrees>43.2297928445041179656982421875</LatitudeDegrees>
              <LongitudeDegrees>-2.8616528213024139404296875</LongitudeDegrees>
            </Position>
            <AltitudeMeters>58</AltitudeMeters>
            <DistanceMeters>NAN</DistanceMeters>
          </Trackpoint>
          <Trackpoint>
            <Time>2022-07-11T18:36:06.000Z</Time>
            <Position>
              <LatitudeDegrees>43.2298453152179718017578125</LatitudeDegrees>
              <LongitudeDegrees>-2.8619289211928844451904296875</LongitudeDegrees>
            </Position>
            <AltitudeMeters>58.799999237060546875</AltitudeMeters>
            <DistanceMeters>NAN</DistanceMeters>
          </Trackpoint>
          <Trackpoint>
            <Time>2022-07-11T18:36:09.000Z</Time>
            <Position>
              <LatitudeDegrees>43.22986618615686893463134765625</LatitudeDegrees>
              <LongitudeDegrees>-2.86204886622726917266845703125</LongitudeDegrees>
            </Position>
            <AltitudeMeters>59.200000762939453125</AltitudeMeters>
            <DistanceMeters>NAN</DistanceMeters>
          </Trackpoint>
          <Trackpoint>
            <Time>2022-07-11T18:36:20.000Z</Time>
            <Position>
              <LatitudeDegrees>43.229932822287082672119140625</LatitudeDegrees>
              <LongitudeDegrees>-2.86251372657716274261474609375</LongitudeDegrees>
            </Position>
            <AltitudeMeters>59.799999237060546875</AltitudeMeters>
            <DistanceMeters>NAN</DistanceMeters>
          </Trackpoint>
          <Trackpoint>
            <Time>2022-07-11T18:36:21.000Z</Time>
            <Position>
              <LatitudeDegrees>43.22993910871446132659912109375</LatitudeDegrees>
              <LongitudeDegrees>-2.86255496554076671600341796875</LongitudeDegrees>
            </Position>
            <AltitudeMeters>59.799999237060546875</AltitudeMeters>
            <DistanceMeters>NAN</DistanceMeters>
          </Trackpoint>
          <Trackpoint>
            <Time>2022-07-11T18:36:30.000Z</Time>
            <Position>
              <LatitudeDegrees>43.22998152114450931549072265625</LatitudeDegrees>
              <LongitudeDegrees>-2.86299048922955989837646484375</LongitudeDegrees>
            </Position>
            <AltitudeMeters>59.59999847412109375</AltitudeMeters>
            <DistanceMeters>NAN</DistanceMeters>
          </Trackpoint>
          <Trackpoint>
            <Time>2022-07-11T18:36:37.000Z</Time>
            <Position>
              <LatitudeDegrees>43.23003767989575862884521484375</LatitudeDegrees>
              <LongitudeDegrees>-2.86337756551802158355712890625</LongitudeDegrees>
            </Position>
            <AltitudeMeters>59.40000152587890625</AltitudeMeters>
            <DistanceMeters>NAN</DistanceMeters>
          </Trackpoint>
          <Trackpoint>
            <Time>2022-07-11T18:36:46.000Z</Time>
            <Position>
              <LatitudeDegrees>43.230114541947841644287109375</LatitudeDegrees>
              <LongitudeDegrees>-2.86390428431332111358642578125</LongitudeDegrees>
            </Position>
            <AltitudeMeters>59.200000762939453125</AltitudeMeters>
            <DistanceMeters>NAN</DistanceMeters>
          </Trackpoint>
          <Trackpoint>
            <Time>2022-07-11T18:36:55.000Z</Time>
            <Position>
              <LatitudeDegrees>43.23019626550376415252685546875</LatitudeDegrees>
              <LongitudeDegrees>-2.86442513577640056610107421875</LongitudeDegrees>
            </Position>
            <AltitudeMeters>59.200000762939453125</AltitudeMeters>
            <DistanceMeters>NAN</DistanceMeters>
          </Trackpoint>
          <Trackpoint>
            <Time>2022-07-11T18:37:06.000Z</Time>
            <Position>
              <LatitudeDegrees>43.23028578422963619232177734375</LatitudeDegrees>
              <LongitudeDegrees>-2.8650699555873870849609375</LongitudeDegrees>
            </Position>
            <AltitudeMeters>59.40000152587890625</AltitudeMeters>
            <DistanceMeters>NAN</DistanceMeters>
          </Trackpoint>
          <Trackpoint>
            <Time>2022-07-11T18:37:15.000Z</Time>
            <Position>
              <LatitudeDegrees>43.23036289773881435394287109375</LatitudeDegrees>
              <LongitudeDegrees>-2.865601368248462677001953125</LongitudeDegrees>
            </Position>
            <AltitudeMeters>59.40000152587890625</AltitudeMeters>
            <DistanceMeters>NAN</DistanceMeters>
          </Trackpoint>
          <Trackpoint>
            <Time>2022-07-11T18:37:16.000Z</Time>
            <Position>
              <LatitudeDegrees>43.2303711958229541778564453125</LatitudeDegrees>
              <LongitudeDegrees>-2.86566079594194889068603515625</LongitudeDegrees>
            </Position>
            <AltitudeMeters>59.40000152587890625</AltitudeMeters>
            <DistanceMeters>NAN</DistanceMeters>
          </Trackpoint>
          <Trackpoint>
            <Time>2022-07-11T18:37:27.000Z</Time>
            <Position>
              <LatitudeDegrees>43.230496086180210113525390625</LatitudeDegrees>
              <LongitudeDegrees>-2.86631827242672443389892578125</LongitudeDegrees>
            </Position>
            <AltitudeMeters>59</AltitudeMeters>
            <DistanceMeters>NAN</DistanceMeters>
          </Trackpoint>
          <Trackpoint>
            <Time>2022-07-11T18:37:29.000Z</Time>
            <Position>
              <LatitudeDegrees>43.2305314578115940093994140625</LatitudeDegrees>
              <LongitudeDegrees>-2.86644601263105869293212890625</LongitudeDegrees>
            </Position>
            <AltitudeMeters>58.59999847412109375</AltitudeMeters>
            <DistanceMeters>NAN</DistanceMeters>
          </Trackpoint>
          <Trackpoint>
            <Time>2022-07-11T18:37:34.000Z</Time>
            <Position>
              <LatitudeDegrees>43.23066942393779754638671875</LatitudeDegrees>
              <LongitudeDegrees>-2.866769470274448394775390625</LongitudeDegrees>
            </Position>
            <AltitudeMeters>57.59999847412109375</AltitudeMeters>
            <DistanceMeters>NAN</DistanceMeters>
          </Trackpoint>
          <Trackpoint>
            <Time>2022-07-11T18:37:41.000Z</Time>
            <Position>
              <LatitudeDegrees>43.230893053114414215087890625</LatitudeDegrees>
              <LongitudeDegrees>-2.86719501949846744537353515625</LongitudeDegrees>
            </Position>
            <AltitudeMeters>56.799999237060546875</AltitudeMeters>
            <DistanceMeters>NAN</DistanceMeters>
          </Trackpoint>
          <Trackpoint>
            <Time>2022-07-11T18:37:48.000Z</Time>
            <Position>
              <LatitudeDegrees>43.23108290322124958038330078125</LatitudeDegrees>
              <LongitudeDegrees>-2.867566086351871490478515625</LongitudeDegrees>
            </Position>
            <AltitudeMeters>57.200000762939453125</AltitudeMeters>
            <DistanceMeters>NAN</DistanceMeters>
          </Trackpoint>
          <Trackpoint>
            <Time>2022-07-11T18:37:56.000Z</Time>
            <Position>
              <LatitudeDegrees>43.23129228316247463226318359375</LatitudeDegrees>
              <LongitudeDegrees>-2.867944277822971343994140625</LongitudeDegrees>
            </Position>
            <AltitudeMeters>56.799999237060546875</AltitudeMeters>
            <DistanceMeters>NAN</DistanceMeters>
          </Trackpoint>
          <Trackpoint>
            <Time>2022-07-11T18:37:58.000Z</Time>
            <Position>
              <LatitudeDegrees>43.23134777136147022247314453125</LatitudeDegrees>
              <LongitudeDegrees>-2.8680510632693767547607421875</LongitudeDegrees>
            </Position>
            <AltitudeMeters>56.59999847412109375</AltitudeMeters>
            <DistanceMeters>NAN</DistanceMeters>
          </Trackpoint>
          <Trackpoint>
            <Time>2022-07-11T18:38:05.000Z</Time>
            <Position>
              <LatitudeDegrees>43.2315547205507755279541015625</LatitudeDegrees>
              <LongitudeDegrees>-2.86843679845333099365234375</LongitudeDegrees>
            </Position>
            <AltitudeMeters>55.799999237060546875</AltitudeMeters>
            <DistanceMeters>NAN</DistanceMeters>
          </Trackpoint>
          <Trackpoint>
            <Time>2022-07-11T18:38:07.000Z</Time>
            <Position>
              <LatitudeDegrees>43.23160878382623195648193359375</LatitudeDegrees>
              <LongitudeDegrees>-2.86854769103229045867919921875</LongitudeDegrees>
            </Position>
            <AltitudeMeters>55.59999847412109375</AltitudeMeters>
            <DistanceMeters>NAN</DistanceMeters>
          </Trackpoint>
          <Trackpoint>
            <Time>2022-07-11T18:38:12.000Z</Time>
            <Position>
              <LatitudeDegrees>43.23173560202121734619140625</LatitudeDegrees>
              <LongitudeDegrees>-2.868831418454647064208984375</LongitudeDegrees>
            </Position>
            <AltitudeMeters>55.200000762939453125</AltitudeMeters>
            <DistanceMeters>NAN</DistanceMeters>
          </Trackpoint>
          <Trackpoint>
            <Time>2022-07-11T18:38:19.000Z</Time>
            <Position>
              <LatitudeDegrees>43.23193651624023914337158203125</LatitudeDegrees>
              <LongitudeDegrees>-2.86918111145496368408203125</LongitudeDegrees>
            </Position>
            <AltitudeMeters>54.799999237060546875</AltitudeMeters>
            <DistanceMeters>NAN</DistanceMeters>
          </Trackpoint>
          <Trackpoint>
            <Time>2022-07-11T18:38:21.000Z</Time>
            <Position>
              <LatitudeDegrees>43.23201027698814868927001953125</LatitudeDegrees>
              <LongitudeDegrees>-2.8693060018122196197509765625</LongitudeDegrees>
            </Position>
            <AltitudeMeters>54.40000152587890625</AltitudeMeters>
            <DistanceMeters>NAN</DistanceMeters>
          </Trackpoint>
          <Trackpoint>
            <Time>2022-07-11T18:38:28.000Z</Time>
            <Position>
              <LatitudeDegrees>43.23223893530666828155517578125</LatitudeDegrees>
              <LongitudeDegrees>-2.8697396814823150634765625</LongitudeDegrees>
            </Position>
            <AltitudeMeters>53.40000152587890625</AltitudeMeters>
            <DistanceMeters>NAN</DistanceMeters>
          </Trackpoint>
          <Trackpoint>
            <Time>2022-07-11T18:38:29.000Z</Time>
            <Position>
              <LatitudeDegrees>43.23227212764322757720947265625</LatitudeDegrees>
              <LongitudeDegrees>-2.869802378118038177490234375</LongitudeDegrees>
            </Position>
            <AltitudeMeters>53.200000762939453125</AltitudeMeters>
            <DistanceMeters>NAN</DistanceMeters>
          </Trackpoint>
          <Trackpoint>
            <Time>2022-07-11T18:38:36.000Z</Time>
            <Position>
              <LatitudeDegrees>43.2324841059744358062744140625</LatitudeDegrees>
              <LongitudeDegrees>-2.87022239528596401214599609375</LongitudeDegrees>
            </Position>
            <AltitudeMeters>52.200000762939453125</AltitudeMeters>
            <DistanceMeters>NAN</DistanceMeters>
          </Trackpoint>
          <Trackpoint>
            <Time>2022-07-11T18:38:38.000Z</Time>
            <Position>
              <LatitudeDegrees>43.2325424440205097198486328125</LatitudeDegrees>
              <LongitudeDegrees>-2.87033488042652606964111328125</LongitudeDegrees>
            </Position>
            <AltitudeMeters>52</AltitudeMeters>
            <DistanceMeters>NAN</DistanceMeters>
          </Trackpoint>
          <Trackpoint>
            <Time>2022-07-11T18:38:49.000Z</Time>
            <Position>
              <LatitudeDegrees>43.23284829966723918914794921875</LatitudeDegrees>
              <LongitudeDegrees>-2.8708978928625583648681640625</LongitudeDegrees>
            </Position>
            <AltitudeMeters>51</AltitudeMeters>
            <DistanceMeters>NAN</DistanceMeters>
          </Trackpoint>
          <Trackpoint>
            <Time>2022-07-11T18:38:57.000Z</Time>
            <Position>
              <LatitudeDegrees>43.23301509954035282135009765625</LatitudeDegrees>
              <LongitudeDegrees>-2.871247418224811553955078125</LongitudeDegrees>
            </Position>
            <AltitudeMeters>51.200000762939453125</AltitudeMeters>
            <DistanceMeters>NAN</DistanceMeters>
          </Trackpoint>
          <Trackpoint>
            <Time>2022-07-11T18:39:02.000Z</Time>
            <Position>
              <LatitudeDegrees>43.2330926321446895599365234375</LatitudeDegrees>
              <LongitudeDegrees>-2.87139669992029666900634765625</LongitudeDegrees>
            </Position>
            <AltitudeMeters>52.200000762939453125</AltitudeMeters>
            <DistanceMeters>NAN</DistanceMeters>
          </Trackpoint>
          <Trackpoint>
            <Time>2022-07-11T18:39:05.000Z</Time>
            <Position>
              <LatitudeDegrees>43.23313345201313495635986328125</LatitudeDegrees>
              <LongitudeDegrees>-2.87147976458072662353515625</LongitudeDegrees>
            </Position>
            <AltitudeMeters>52.59999847412109375</AltitudeMeters>
            <DistanceMeters>NAN</DistanceMeters>
          </Trackpoint>
          <Trackpoint>
            <Time>2022-07-11T18:39:09.000Z</Time>
            <Position>
              <LatitudeDegrees>43.2331848330795764923095703125</LatitudeDegrees>
              <LongitudeDegrees>-2.87158009596168994903564453125</LongitudeDegrees>
            </Position>
            <AltitudeMeters>53.200000762939453125</AltitudeMeters>
            <DistanceMeters>NAN</DistanceMeters>
          </Trackpoint>
          <Trackpoint>
            <Time>2022-07-11T18:39:12.000Z</Time>
            <Position>
              <LatitudeDegrees>43.2332237251102924346923828125</LatitudeDegrees>
              <LongitudeDegrees>-2.8716582991182804107666015625</LongitudeDegrees>
            </Position>
            <AltitudeMeters>53.59999847412109375</AltitudeMeters>
            <DistanceMeters>NAN</DistanceMeters>
          </Trackpoint>
          <Trackpoint>
            <Time>2022-07-11T18:39:16.000Z</Time>
            <Position>
              <LatitudeDegrees>43.23328591883182525634765625</LatitudeDegrees>
              <LongitudeDegrees>-2.8717625699937343597412109375</LongitudeDegrees>
            </Position>
            <AltitudeMeters>54.40000152587890625</AltitudeMeters>
            <DistanceMeters>NAN</DistanceMeters>
          </Trackpoint>
          <Trackpoint>
            <Time>2022-07-11T18:39:21.000Z</Time>
            <Position>
              <LatitudeDegrees>43.233353309333324432373046875</LatitudeDegrees>
              <LongitudeDegrees>-2.87188343703746795654296875</LongitudeDegrees>
            </Position>
            <AltitudeMeters>54.799999237060546875</AltitudeMeters>
            <DistanceMeters>NAN</DistanceMeters>
          </Trackpoint>
          <Trackpoint>
            <Time>2022-07-11T18:39:24.000Z</Time>
            <Position>
              <LatitudeDegrees>43.2333940453827381134033203125</LatitudeDegrees>
              <LongitudeDegrees>-2.87196331657469272613525390625</LongitudeDegrees>
            </Position>
            <AltitudeMeters>55.40000152587890625</AltitudeMeters>
            <DistanceMeters>NAN</DistanceMeters>
          </Trackpoint>
          <Trackpoint>
            <Time>2022-07-11T18:39:31.000Z</Time>
            <Position>
              <LatitudeDegrees>43.23348297737538814544677734375</LatitudeDegrees>
              <LongitudeDegrees>-2.872137911617755889892578125</LongitudeDegrees>
            </Position>
            <AltitudeMeters>56.200000762939453125</AltitudeMeters>
            <DistanceMeters>NAN</DistanceMeters>
          </Trackpoint>
          <Trackpoint>
            <Time>2022-07-11T18:39:32.000Z</Time>
            <Position>
              <LatitudeDegrees>43.23349420912563800811767578125</LatitudeDegrees>
              <LongitudeDegrees>-2.872160710394382476806640625</LongitudeDegrees>
            </Position>
            <AltitudeMeters>56.40000152587890625</AltitudeMeters>
            <DistanceMeters>NAN</DistanceMeters>
          </Trackpoint>
          <Trackpoint>
            <Time>2022-07-11T18:39:40.000Z</Time>
            <Position>
              <LatitudeDegrees>43.2335952110588550567626953125</LatitudeDegrees>
              <LongitudeDegrees>-2.8723452799022197723388671875</LongitudeDegrees>
            </Position>
            <AltitudeMeters>57.59999847412109375</AltitudeMeters>
            <DistanceMeters>NAN</DistanceMeters>
          </Trackpoint>
          <Trackpoint>
            <Time>2022-07-11T18:39:48.000Z</Time>
            <Position>
              <LatitudeDegrees>43.2336978055536746978759765625</LatitudeDegrees>
              <LongitudeDegrees>-2.8724777139723300933837890625</LongitudeDegrees>
            </Position>
            <AltitudeMeters>58.40000152587890625</AltitudeMeters>
            <DistanceMeters>NAN</DistanceMeters>
          </Trackpoint>
          <Trackpoint>
            <Time>2022-07-11T18:39:50.000Z</Time>
            <Position>
              <LatitudeDegrees>43.2337009906768798828125</LatitudeDegrees>
              <LongitudeDegrees>-2.8724793903529644012451171875</LongitudeDegrees>
            </Position>
            <AltitudeMeters>58.200000762939453125</AltitudeMeters>
            <DistanceMeters>NAN</DistanceMeters>
          </Trackpoint>
          <Trackpoint>
            <Time>2022-07-11T18:40:04.000Z</Time>
            <Position>
              <LatitudeDegrees>43.23371775448322296142578125</LatitudeDegrees>
              <LongitudeDegrees>-2.87250160239636898040771484375</LongitudeDegrees>
            </Position>
            <AltitudeMeters>58.200000762939453125</AltitudeMeters>
            <DistanceMeters>NAN</DistanceMeters>
          </Trackpoint>
          <Trackpoint>
            <Time>2022-07-11T18:40:05.000Z</Time>
            <Position>
              <LatitudeDegrees>43.233728818595409393310546875</LatitudeDegrees>
              <LongitudeDegrees>-2.87252808921039104461669921875</LongitudeDegrees>
            </Position>
            <AltitudeMeters>58.200000762939453125</AltitudeMeters>
            <DistanceMeters>NAN</DistanceMeters>
          </Trackpoint>
          <Trackpoint>
            <Time>2022-07-11T18:40:10.000Z</Time>
            <Position>
              <LatitudeDegrees>43.2337474264204502105712890625</LatitudeDegrees>
              <LongitudeDegrees>-2.872611992061138153076171875</LongitudeDegrees>
            </Position>
            <AltitudeMeters>58.40000152587890625</AltitudeMeters>
            <DistanceMeters>NAN</DistanceMeters>
          </Trackpoint>
          <Trackpoint>
            <Time>2022-07-11T18:40:16.000Z</Time>
            <Position>
              <LatitudeDegrees>43.2337423972785472869873046875</LatitudeDegrees>
              <LongitudeDegrees>-2.872726656496524810791015625</LongitudeDegrees>
            </Position>
            <AltitudeMeters>58.59999847412109375</AltitudeMeters>
            <DistanceMeters>NAN</DistanceMeters>
          </Trackpoint>
          <Trackpoint>
            <Time>2022-07-11T18:40:22.000Z</Time>
            <Position>
              <LatitudeDegrees>43.2336540520191192626953125</LatitudeDegrees>
              <LongitudeDegrees>-2.8728793747723102569580078125</LongitudeDegrees>
            </Position>
            <AltitudeMeters>58.799999237060546875</AltitudeMeters>
            <DistanceMeters>NAN</DistanceMeters>
          </Trackpoint>
          <Trackpoint>
            <Time>2022-07-11T18:40:28.000Z</Time>
            <Position>
              <LatitudeDegrees>43.233564533293247222900390625</LatitudeDegrees>
              <LongitudeDegrees>-2.873008958995342254638671875</LongitudeDegrees>
            </Position>
            <AltitudeMeters>59.40000152587890625</AltitudeMeters>
            <DistanceMeters>NAN</DistanceMeters>
          </Trackpoint>
          <Trackpoint>
            <Time>2022-07-11T18:40:30.000Z</Time>
            <Position>
              <LatitudeDegrees>43.2335486076772212982177734375</LatitudeDegrees>
              <LongitudeDegrees>-2.8730577416718006134033203125</LongitudeDegrees>
            </Position>
            <AltitudeMeters>59.59999847412109375</AltitudeMeters>
            <DistanceMeters>NAN</DistanceMeters>
          </Trackpoint>
          <Trackpoint>
            <Time>2022-07-11T18:40:35.000Z</Time>
            <Position>
              <LatitudeDegrees>43.23353578336536884307861328125</LatitudeDegrees>
              <LongitudeDegrees>-2.87320978939533233642578125</LongitudeDegrees>
            </Position>
            <AltitudeMeters>60</AltitudeMeters>
            <DistanceMeters>NAN</DistanceMeters>
          </Trackpoint>
          <Trackpoint>
            <Time>2022-07-11T18:40:39.000Z</Time>
            <Position>
              <LatitudeDegrees>43.23351927101612091064453125</LatitudeDegrees>
              <LongitudeDegrees>-2.8732562251389026641845703125</LongitudeDegrees>
            </Position>
            <AltitudeMeters>60</AltitudeMeters>
            <DistanceMeters>NAN</DistanceMeters>
          </Trackpoint>
          <Trackpoint>
            <Time>2022-07-11T18:41:08.000Z</Time>
            <Position>
              <LatitudeDegrees>43.23358842171728610992431640625</LatitudeDegrees>
              <LongitudeDegrees>-2.8732418082654476165771484375</LongitudeDegrees>
            </Position>
            <AltitudeMeters>59.59999847412109375</AltitudeMeters>
            <DistanceMeters>NAN</DistanceMeters>
          </Trackpoint>
          <Trackpoint>
            <Time>2022-07-11T18:41:10.000Z</Time>
            <Position>
              <LatitudeDegrees>43.233647011220455169677734375</LatitudeDegrees>
              <LongitudeDegrees>-2.87323367781937122344970703125</LongitudeDegrees>
            </Position>
            <AltitudeMeters>59.40000152587890625</AltitudeMeters>
            <DistanceMeters>NAN</DistanceMeters>
          </Trackpoint>
          <Trackpoint>
            <Time>2022-07-11T18:41:16.000Z</Time>
            <Position>
              <LatitudeDegrees>43.23381942696869373321533203125</LatitudeDegrees>
              <LongitudeDegrees>-2.87330710329115390777587890625</LongitudeDegrees>
            </Position>
            <AltitudeMeters>59.40000152587890625</AltitudeMeters>
            <DistanceMeters>NAN</DistanceMeters>
          </Trackpoint>
          <Trackpoint>
            <Time>2022-07-11T18:41:21.000Z</Time>
            <Position>
              <LatitudeDegrees>43.23395320214331150054931640625</LatitudeDegrees>
              <LongitudeDegrees>-2.87335823290050029754638671875</LongitudeDegrees>
            </Position>
            <AltitudeMeters>59.59999847412109375</AltitudeMeters>
            <DistanceMeters>NAN</DistanceMeters>
          </Trackpoint>
          <Trackpoint>
            <Time>2022-07-11T18:41:27.000Z</Time>
            <Position>
              <LatitudeDegrees>43.23404858820140361785888671875</LatitudeDegrees>
              <LongitudeDegrees>-2.8735334984958171844482421875</LongitudeDegrees>
            </Position>
            <AltitudeMeters>60.59999847412109375</AltitudeMeters>
            <DistanceMeters>NAN</DistanceMeters>
          </Trackpoint>
          <Trackpoint>
            <Time>2022-07-11T18:41:32.000Z</Time>
            <Position>
              <LatitudeDegrees>43.2341153919696807861328125</LatitudeDegrees>
              <LongitudeDegrees>-2.8736557066440582275390625</LongitudeDegrees>
            </Position>
            <AltitudeMeters>61.799999237060546875</AltitudeMeters>
            <DistanceMeters>NAN</DistanceMeters>
          </Trackpoint>
          <Trackpoint>
            <Time>2022-07-11T18:41:33.000Z</Time>
            <Position>
              <LatitudeDegrees>43.2341239415109157562255859375</LatitudeDegrees>
              <LongitudeDegrees>-2.87368194200098514556884765625</LongitudeDegrees>
            </Position>
            <AltitudeMeters>62</AltitudeMeters>
            <DistanceMeters>NAN</DistanceMeters>
          </Trackpoint>
          <Trackpoint>
            <Time>2022-07-11T18:41:38.000Z</Time>
            <Position>
              <LatitudeDegrees>43.23416861705482006072998046875</LatitudeDegrees>
              <LongitudeDegrees>-2.87380415014922618865966796875</LongitudeDegrees>
            </Position>
            <AltitudeMeters>62.799999237060546875</AltitudeMeters>
            <DistanceMeters>NAN</DistanceMeters>
          </Trackpoint>
          <Trackpoint>
            <Time>2022-07-11T18:41:39.000Z</Time>
            <Position>
              <LatitudeDegrees>43.23417616076767444610595703125</LatitudeDegrees>
              <LongitudeDegrees>-2.8738273680210113525390625</LongitudeDegrees>
            </Position>
            <AltitudeMeters>63.200000762939453125</AltitudeMeters>
            <DistanceMeters>NAN</DistanceMeters>
          </Trackpoint>
          <Trackpoint>
            <Time>2022-07-11T18:41:43.000Z</Time>
            <Position>
              <LatitudeDegrees>43.23421170003712177276611328125</LatitudeDegrees>
              <LongitudeDegrees>-2.87391361780464649200439453125</LongitudeDegrees>
            </Position>
            <AltitudeMeters>64</AltitudeMeters>
            <DistanceMeters>NAN</DistanceMeters>
          </Trackpoint>
          <Trackpoint>
            <Time>2022-07-11T18:41:47.000Z</Time>
            <Position>
              <LatitudeDegrees>43.2342412881553173065185546875</LatitudeDegrees>
              <LongitudeDegrees>-2.87399341352283954620361328125</LongitudeDegrees>
            </Position>
            <AltitudeMeters>64.40000152587890625</AltitudeMeters>
            <DistanceMeters>NAN</DistanceMeters>
          </Trackpoint>
          <Trackpoint>
            <Time>2022-07-11T18:41:51.000Z</Time>
            <Position>
              <LatitudeDegrees>43.2342667691409587860107421875</LatitudeDegrees>
              <LongitudeDegrees>-2.87406139075756072998046875</LongitudeDegrees>
            </Position>
            <AltitudeMeters>65</AltitudeMeters>
            <DistanceMeters>NAN</DistanceMeters>
          </Trackpoint>
          <Trackpoint>
            <Time>2022-07-11T18:41:54.000Z</Time>
            <Position>
              <LatitudeDegrees>43.23427087627351284027099609375</LatitudeDegrees>
              <LongitudeDegrees>-2.8740685991942882537841796875</LongitudeDegrees>
            </Position>
            <AltitudeMeters>65.1999969482421875</AltitudeMeters>
            <DistanceMeters>NAN</DistanceMeters>
          </Trackpoint>
          <Trackpoint>
            <Time>2022-07-11T18:43:21.000Z</Time>
            <Position>
              <LatitudeDegrees>43.2342453114688396453857421875</LatitudeDegrees>
              <LongitudeDegrees>-2.8739948384463787078857421875</LongitudeDegrees>
            </Position>
            <AltitudeMeters>64.1999969482421875</AltitudeMeters>
            <DistanceMeters>NAN</DistanceMeters>
          </Trackpoint>
          <Trackpoint>
            <Time>2022-07-11T18:43:23.000Z</Time>
            <Position>
              <LatitudeDegrees>43.2342111133038997650146484375</LatitudeDegrees>
              <LongitudeDegrees>-2.87389668636023998260498046875</LongitudeDegrees>
            </Position>
            <AltitudeMeters>64</AltitudeMeters>
            <DistanceMeters>NAN</DistanceMeters>
          </Trackpoint>
          <Trackpoint>
            <Time>2022-07-11T18:43:27.000Z</Time>
            <Position>
              <LatitudeDegrees>43.23410709388554096221923828125</LatitudeDegrees>
              <LongitudeDegrees>-2.87364020012319087982177734375</LongitudeDegrees>
            </Position>
            <AltitudeMeters>63.40000152587890625</AltitudeMeters>
            <DistanceMeters>NAN</DistanceMeters>
          </Trackpoint>
          <Trackpoint>
            <Time>2022-07-11T18:43:28.000Z</Time>
            <Position>
              <LatitudeDegrees>43.23407842777669429779052734375</LatitudeDegrees>
              <LongitudeDegrees>-2.873587310314178466796875</LongitudeDegrees>
            </Position>
            <AltitudeMeters>63</AltitudeMeters>
            <DistanceMeters>NAN</DistanceMeters>
          </Trackpoint>
          <Trackpoint>
            <Time>2022-07-11T18:43:29.000Z</Time>
            <Position>
              <LatitudeDegrees>43.23404892347753047943115234375</LatitudeDegrees>
              <LongitudeDegrees>-2.87354665808379650115966796875</LongitudeDegrees>
            </Position>
            <AltitudeMeters>62.59999847412109375</AltitudeMeters>
            <DistanceMeters>NAN</DistanceMeters>
          </Trackpoint>
          <Trackpoint>
            <Time>2022-07-11T18:43:31.000Z</Time>
            <Position>
              <LatitudeDegrees>43.23398463428020477294921875</LatitudeDegrees>
              <LongitudeDegrees>-2.8734553791582584381103515625</LongitudeDegrees>
            </Position>
            <AltitudeMeters>62</AltitudeMeters>
            <DistanceMeters>NAN</DistanceMeters>
          </Trackpoint>
          <Trackpoint>
            <Time>2022-07-11T18:43:32.000Z</Time>
            <Position>
              <LatitudeDegrees>43.23394767008721828460693359375</LatitudeDegrees>
              <LongitudeDegrees>-2.873397208750247955322265625</LongitudeDegrees>
            </Position>
            <AltitudeMeters>61.40000152587890625</AltitudeMeters>
            <DistanceMeters>NAN</DistanceMeters>
          </Trackpoint>
          <Trackpoint>
            <Time>2022-07-11T18:43:33.000Z</Time>
            <Position>
              <LatitudeDegrees>43.2339056767523288726806640625</LatitudeDegrees>
              <LongitudeDegrees>-2.873336188495159149169921875</LongitudeDegrees>
            </Position>
            <AltitudeMeters>61</AltitudeMeters>
            <DistanceMeters>NAN</DistanceMeters>
          </Trackpoint>
          <Trackpoint>
            <Time>2022-07-11T18:43:35.000Z</Time>
            <Position>
              <LatitudeDegrees>43.23380492627620697021484375</LatitudeDegrees>
              <LongitudeDegrees>-2.873216830193996429443359375</LongitudeDegrees>
            </Position>
            <AltitudeMeters>60</AltitudeMeters>
            <DistanceMeters>NAN</DistanceMeters>
          </Trackpoint>
          <Trackpoint>
            <Time>2022-07-11T18:43:39.000Z</Time>
            <Position>
              <LatitudeDegrees>43.23362412862479686737060546875</LatitudeDegrees>
              <LongitudeDegrees>-2.8730600886046886444091796875</LongitudeDegrees>
            </Position>
            <AltitudeMeters>58.799999237060546875</AltitudeMeters>
            <DistanceMeters>NAN</DistanceMeters>
          </Trackpoint>
          <Trackpoint>
            <Time>2022-07-11T18:43:40.000Z</Time>
            <Position>
              <LatitudeDegrees>43.23360753245651721954345703125</LatitudeDegrees>
              <LongitudeDegrees>-2.87304474972188472747802734375</LongitudeDegrees>
            </Position>
            <AltitudeMeters>58.799999237060546875</AltitudeMeters>
            <DistanceMeters>NAN</DistanceMeters>
          </Trackpoint>
          <Trackpoint>
            <Time>2022-07-11T18:43:43.000Z</Time>
            <Position>
              <LatitudeDegrees>43.2335948757827281951904296875</LatitudeDegrees>
              <LongitudeDegrees>-2.87303117103874683380126953125</LongitudeDegrees>
            </Position>
            <AltitudeMeters>58.59999847412109375</AltitudeMeters>
            <DistanceMeters>NAN</DistanceMeters>
          </Trackpoint>
          <Trackpoint>
            <Time>2022-07-11T18:43:46.000Z</Time>
            <Position>
              <LatitudeDegrees>43.23355774395167827606201171875</LatitudeDegrees>
              <LongitudeDegrees>-2.8729816339910030364990234375</LongitudeDegrees>
            </Position>
            <AltitudeMeters>58.59999847412109375</AltitudeMeters>
            <DistanceMeters>NAN</DistanceMeters>
          </Trackpoint>
          <Trackpoint>
            <Time>2022-07-11T18:43:48.000Z</Time>
            <Position>
              <LatitudeDegrees>43.2335150800645351409912109375</LatitudeDegrees>
              <LongitudeDegrees>-2.87294081412255764007568359375</LongitudeDegrees>
            </Position>
            <AltitudeMeters>58.59999847412109375</AltitudeMeters>
            <DistanceMeters>NAN</DistanceMeters>
          </Trackpoint>
          <Trackpoint>
            <Time>2022-07-11T18:43:49.000Z</Time>
            <Position>
              <LatitudeDegrees>43.233499825000762939453125</LatitudeDegrees>
              <LongitudeDegrees>-2.87292103283107280731201171875</LongitudeDegrees>
            </Position>
            <AltitudeMeters>58.59999847412109375</AltitudeMeters>
            <DistanceMeters>NAN</DistanceMeters>
          </Trackpoint>
          <Trackpoint>
            <Time>2022-07-11T18:43:52.000Z</Time>
            <Position>
              <LatitudeDegrees>43.2335023395717144012451171875</LatitudeDegrees>
              <LongitudeDegrees>-2.87280477583408355712890625</LongitudeDegrees>
            </Position>
            <AltitudeMeters>58.40000152587890625</AltitudeMeters>
            <DistanceMeters>NAN</DistanceMeters>
          </Trackpoint>
          <Trackpoint>
            <Time>2022-07-11T18:43:53.000Z</Time>
            <Position>
              <LatitudeDegrees>43.2335258089005947113037109375</LatitudeDegrees>
              <LongitudeDegrees>-2.872755490243434906005859375</LongitudeDegrees>
            </Position>
            <AltitudeMeters>58.200000762939453125</AltitudeMeters>
            <DistanceMeters>NAN</DistanceMeters>
          </Trackpoint>
          <Trackpoint>
            <Time>2022-07-11T18:43:56.000Z</Time>
            <Position>
              <LatitudeDegrees>43.233622200787067413330078125</LatitudeDegrees>
              <LongitudeDegrees>-2.872613333165645599365234375</LongitudeDegrees>
            </Position>
            <AltitudeMeters>58</AltitudeMeters>
            <DistanceMeters>NAN</DistanceMeters>
          </Trackpoint>
          <Trackpoint>
            <Time>2022-07-11T18:43:57.000Z</Time>
            <Position>
              <LatitudeDegrees>43.2336486876010894775390625</LatitudeDegrees>
              <LongitudeDegrees>-2.8725694119930267333984375</LongitudeDegrees>
            </Position>
            <AltitudeMeters>57.799999237060546875</AltitudeMeters>
            <DistanceMeters>NAN</DistanceMeters>
          </Trackpoint>
          <Trackpoint>
            <Time>2022-07-11T18:43:59.000Z</Time>
            <Position>
              <LatitudeDegrees>43.23367760516703128814697265625</LatitudeDegrees>
              <LongitudeDegrees>-2.87248115055263042449951171875</LongitudeDegrees>
            </Position>
            <AltitudeMeters>57.59999847412109375</AltitudeMeters>
            <DistanceMeters>NAN</DistanceMeters>
          </Trackpoint>
          <Trackpoint>
            <Time>2022-07-11T18:44:00.000Z</Time>
            <Position>
              <LatitudeDegrees>43.23366251774132251739501953125</LatitudeDegrees>
              <LongitudeDegrees>-2.87243404425680637359619140625</LongitudeDegrees>
            </Position>
            <AltitudeMeters>57.200000762939453125</AltitudeMeters>
            <DistanceMeters>NAN</DistanceMeters>
          </Trackpoint>
          <Trackpoint>
            <Time>2022-07-11T18:44:01.000Z</Time>
            <Position>
              <LatitudeDegrees>43.2336330972611904144287109375</LatitudeDegrees>
              <LongitudeDegrees>-2.8723902069032192230224609375</LongitudeDegrees>
            </Position>
            <AltitudeMeters>57</AltitudeMeters>
            <DistanceMeters>NAN</DistanceMeters>
          </Trackpoint>
          <Trackpoint>
            <Time>2022-07-11T18:44:03.000Z</Time>
            <Position>
              <LatitudeDegrees>43.2335553131997585296630859375</LatitudeDegrees>
              <LongitudeDegrees>-2.872302867472171783447265625</LongitudeDegrees>
            </Position>
            <AltitudeMeters>56.799999237060546875</AltitudeMeters>
            <DistanceMeters>NAN</DistanceMeters>
          </Trackpoint>
          <Trackpoint>
            <Time>2022-07-11T18:44:04.000Z</Time>
            <Position>
              <LatitudeDegrees>43.2335144095122814178466796875</LatitudeDegrees>
              <LongitudeDegrees>-2.87224897183477878570556640625</LongitudeDegrees>
            </Position>
            <AltitudeMeters>56.59999847412109375</AltitudeMeters>
            <DistanceMeters>NAN</DistanceMeters>
          </Trackpoint>
          <Trackpoint>
            <Time>2022-07-11T18:44:08.000Z</Time>
            <Position>
              <LatitudeDegrees>43.233333192765712738037109375</LatitudeDegrees>
              <LongitudeDegrees>-2.8719664178788661956787109375</LongitudeDegrees>
            </Position>
            <AltitudeMeters>55.40000152587890625</AltitudeMeters>
            <DistanceMeters>NAN</DistanceMeters>
          </Trackpoint>
          <Trackpoint>
            <Time>2022-07-11T18:44:09.000Z</Time>
            <Position>
              <LatitudeDegrees>43.23328382335603237152099609375</LatitudeDegrees>
              <LongitudeDegrees>-2.87188477814197540283203125</LongitudeDegrees>
            </Position>
            <AltitudeMeters>55</AltitudeMeters>
            <DistanceMeters>NAN</DistanceMeters>
          </Trackpoint>
          <Trackpoint>
            <Time>2022-07-11T18:44:11.000Z</Time>
            <Position>
              <LatitudeDegrees>43.23318441398441791534423828125</LatitudeDegrees>
              <LongitudeDegrees>-2.87170850671827793121337890625</LongitudeDegrees>
            </Position>
            <AltitudeMeters>54.200000762939453125</AltitudeMeters>
            <DistanceMeters>NAN</DistanceMeters>
          </Trackpoint>
          <Trackpoint>
            <Time>2022-07-11T18:44:14.000Z</Time>
            <Position>
              <LatitudeDegrees>43.23305499739944934844970703125</LatitudeDegrees>
              <LongitudeDegrees>-2.8714723885059356689453125</LongitudeDegrees>
            </Position>
            <AltitudeMeters>53</AltitudeMeters>
            <DistanceMeters>NAN</DistanceMeters>
          </Trackpoint>
          <Trackpoint>
            <Time>2022-07-11T18:44:15.000Z</Time>
            <Position>
              <LatitudeDegrees>43.23301979340612888336181640625</LatitudeDegrees>
              <LongitudeDegrees>-2.87139804102480411529541015625</LongitudeDegrees>
            </Position>
            <AltitudeMeters>52.40000152587890625</AltitudeMeters>
            <DistanceMeters>NAN</DistanceMeters>
          </Trackpoint>
          <Trackpoint>
            <Time>2022-07-11T18:44:16.000Z</Time>
            <Position>
              <LatitudeDegrees>43.2329974137246608734130859375</LatitudeDegrees>
              <LongitudeDegrees>-2.87132746540009975433349609375</LongitudeDegrees>
            </Position>
            <AltitudeMeters>52</AltitudeMeters>
            <DistanceMeters>NAN</DistanceMeters>
          </Trackpoint>
          <Trackpoint>
            <Time>2022-07-11T18:44:17.000Z</Time>
            <Position>
              <LatitudeDegrees>43.2329927198588848114013671875</LatitudeDegrees>
              <LongitudeDegrees>-2.87125940434634685516357421875</LongitudeDegrees>
            </Position>
            <AltitudeMeters>51.40000152587890625</AltitudeMeters>
            <DistanceMeters>NAN</DistanceMeters>
          </Trackpoint>
          <Trackpoint>
            <Time>2022-07-11T18:44:18.000Z</Time>
            <Position>
              <LatitudeDegrees>43.2330017723143100738525390625</LatitudeDegrees>
              <LongitudeDegrees>-2.87119385786354541778564453125</LongitudeDegrees>
            </Position>
            <AltitudeMeters>50.799999237060546875</AltitudeMeters>
            <DistanceMeters>NAN</DistanceMeters>
          </Trackpoint>
          <Trackpoint>
            <Time>2022-07-11T18:44:19.000Z</Time>
            <Position>
              <LatitudeDegrees>43.23302440345287322998046875</LatitudeDegrees>
              <LongitudeDegrees>-2.8711349330842494964599609375</LongitudeDegrees>
            </Position>
            <AltitudeMeters>50.59999847412109375</AltitudeMeters>
            <DistanceMeters>NAN</DistanceMeters>
          </Trackpoint>
          <Trackpoint>
            <Time>2022-07-11T18:44:21.000Z</Time>
            <Position>
              <LatitudeDegrees>43.2331006787717342376708984375</LatitudeDegrees>
              <LongitudeDegrees>-2.87108304910361766815185546875</LongitudeDegrees>
            </Position>
            <AltitudeMeters>49.40000152587890625</AltitudeMeters>
            <DistanceMeters>NAN</DistanceMeters>
          </Trackpoint>
          <Trackpoint>
            <Time>2022-07-11T18:44:23.000Z</Time>
            <Position>
              <LatitudeDegrees>43.23319229297339916229248046875</LatitudeDegrees>
              <LongitudeDegrees>-2.87111473269760608673095703125</LongitudeDegrees>
            </Position>
            <AltitudeMeters>49</AltitudeMeters>
            <DistanceMeters>NAN</DistanceMeters>
          </Trackpoint>
          <Trackpoint>
            <Time>2022-07-11T18:44:25.000Z</Time>
            <Position>
              <LatitudeDegrees>43.23328834958374500274658203125</LatitudeDegrees>
              <LongitudeDegrees>-2.87117927335202693939208984375</LongitudeDegrees>
            </Position>
            <AltitudeMeters>48.799999237060546875</AltitudeMeters>
            <DistanceMeters>NAN</DistanceMeters>
          </Trackpoint>
          <Trackpoint>
            <Time>2022-07-11T18:44:30.000Z</Time>
            <Position>
              <LatitudeDegrees>43.23356478475034236907958984375</LatitudeDegrees>
              <LongitudeDegrees>-2.87137608043849468231201171875</LongitudeDegrees>
            </Position>
            <AltitudeMeters>48.799999237060546875</AltitudeMeters>
            <DistanceMeters>NAN</DistanceMeters>
          </Trackpoint>
          <Trackpoint>
            <Time>2022-07-11T18:44:37.000Z</Time>
            <Position>
              <LatitudeDegrees>43.2339338399469852447509765625</LatitudeDegrees>
              <LongitudeDegrees>-2.87163658998906612396240234375</LongitudeDegrees>
            </Position>
            <AltitudeMeters>49</AltitudeMeters>
            <DistanceMeters>NAN</DistanceMeters>
          </Trackpoint>
          <Trackpoint>
            <Time>2022-07-11T18:44:42.000Z</Time>
            <Position>
              <LatitudeDegrees>43.2341849617660045623779296875</LatitudeDegrees>
              <LongitudeDegrees>-2.871801964938640594482421875</LongitudeDegrees>
            </Position>
            <AltitudeMeters>49</AltitudeMeters>
            <DistanceMeters>NAN</DistanceMeters>
          </Trackpoint>
          <Trackpoint>
            <Time>2022-07-11T18:44:44.000Z</Time>
            <Position>
              <LatitudeDegrees>43.23426953516900539398193359375</LatitudeDegrees>
              <LongitudeDegrees>-2.8718624822795391082763671875</LongitudeDegrees>
            </Position>
            <AltitudeMeters>49</AltitudeMeters>
            <DistanceMeters>NAN</DistanceMeters>
          </Trackpoint>
          <Trackpoint>
            <Time>2022-07-11T18:44:46.000Z</Time>
            <Position>
              <LatitudeDegrees>43.23435000143945217132568359375</LatitudeDegrees>
              <LongitudeDegrees>-2.8719302080571651458740234375</LongitudeDegrees>
            </Position>
            <AltitudeMeters>49</AltitudeMeters>
            <DistanceMeters>NAN</DistanceMeters>
          </Trackpoint>
          <Trackpoint>
            <Time>2022-07-11T18:44:48.000Z</Time>
            <Position>
              <LatitudeDegrees>43.2344263605773448944091796875</LatitudeDegrees>
              <LongitudeDegrees>-2.872007824480533599853515625</LongitudeDegrees>
            </Position>
            <AltitudeMeters>49</AltitudeMeters>
            <DistanceMeters>NAN</DistanceMeters>
          </Trackpoint>
          <Trackpoint>
            <Time>2022-07-11T18:44:53.000Z</Time>
            <Position>
              <LatitudeDegrees>43.23460749350488185882568359375</LatitudeDegrees>
              <LongitudeDegrees>-2.87220002152025699615478515625</LongitudeDegrees>
            </Position>
            <AltitudeMeters>49</AltitudeMeters>
            <DistanceMeters>NAN</DistanceMeters>
          </Trackpoint>
          <Trackpoint>
            <Time>2022-07-11T18:45:02.000Z</Time>
            <Position>
              <LatitudeDegrees>43.23494176380336284637451171875</LatitudeDegrees>
              <LongitudeDegrees>-2.87256631068885326385498046875</LongitudeDegrees>
            </Position>
            <AltitudeMeters>48.799999237060546875</AltitudeMeters>
            <DistanceMeters>NAN</DistanceMeters>
          </Trackpoint>
          <Trackpoint>
            <Time>2022-07-11T18:45:07.000Z</Time>
            <Position>
              <LatitudeDegrees>43.23510604910552501678466796875</LatitudeDegrees>
              <LongitudeDegrees>-2.8728000819683074951171875</LongitudeDegrees>
            </Position>
            <AltitudeMeters>48.59999847412109375</AltitudeMeters>
            <DistanceMeters>NAN</DistanceMeters>
          </Trackpoint>
          <Trackpoint>
            <Time>2022-07-11T18:45:08.000Z</Time>
            <Position>
              <LatitudeDegrees>43.2351408340036869049072265625</LatitudeDegrees>
              <LongitudeDegrees>-2.87284945137798786163330078125</LongitudeDegrees>
            </Position>
            <AltitudeMeters>48.59999847412109375</AltitudeMeters>
            <DistanceMeters>NAN</DistanceMeters>
          </Trackpoint>
          <Trackpoint>
            <Time>2022-07-11T18:45:15.000Z</Time>
            <Position>
              <LatitudeDegrees>43.23536404408514499664306640625</LatitudeDegrees>
              <LongitudeDegrees>-2.87314114160835742950439453125</LongitudeDegrees>
            </Position>
            <AltitudeMeters>48.59999847412109375</AltitudeMeters>
            <DistanceMeters>NAN</DistanceMeters>
          </Trackpoint>
          <Trackpoint>
            <Time>2022-07-11T18:45:24.000Z</Time>
            <Position>
              <LatitudeDegrees>43.23569579981267452239990234375</LatitudeDegrees>
              <LongitudeDegrees>-2.8735578060150146484375</LongitudeDegrees>
            </Position>
            <AltitudeMeters>48.59999847412109375</AltitudeMeters>
            <DistanceMeters>NAN</DistanceMeters>
          </Trackpoint>
          <Trackpoint>
            <Time>2022-07-11T18:45:27.000Z</Time>
            <Position>
              <LatitudeDegrees>43.23579537682235240936279296875</LatitudeDegrees>
              <LongitudeDegrees>-2.873689234256744384765625</LongitudeDegrees>
            </Position>
            <AltitudeMeters>48.40000152587890625</AltitudeMeters>
            <DistanceMeters>NAN</DistanceMeters>
          </Trackpoint>
          <Trackpoint>
            <Time>2022-07-11T18:45:30.000Z</Time>
            <Position>
              <LatitudeDegrees>43.23587483726441860198974609375</LatitudeDegrees>
              <LongitudeDegrees>-2.87381437607109546661376953125</LongitudeDegrees>
            </Position>
            <AltitudeMeters>48.40000152587890625</AltitudeMeters>
            <DistanceMeters>NAN</DistanceMeters>
          </Trackpoint>
          <Trackpoint>
            <Time>2022-07-11T18:45:36.000Z</Time>
            <Position>
              <LatitudeDegrees>43.23605261743068695068359375</LatitudeDegrees>
              <LongitudeDegrees>-2.87405200302600860595703125</LongitudeDegrees>
            </Position>
            <AltitudeMeters>48.59999847412109375</AltitudeMeters>
            <DistanceMeters>NAN</DistanceMeters>
          </Trackpoint>
          <Trackpoint>
            <Time>2022-07-11T18:45:41.000Z</Time>
            <Position>
              <LatitudeDegrees>43.2361949421465396881103515625</LatitudeDegrees>
              <LongitudeDegrees>-2.8742355667054653167724609375</LongitudeDegrees>
            </Position>
            <AltitudeMeters>48.59999847412109375</AltitudeMeters>
            <DistanceMeters>NAN</DistanceMeters>
          </Trackpoint>
          <Trackpoint>
            <Time>2022-07-11T18:45:49.000Z</Time>
            <Position>
              <LatitudeDegrees>43.2364393584430217742919921875</LatitudeDegrees>
              <LongitudeDegrees>-2.8745247423648834228515625</LongitudeDegrees>
            </Position>
            <AltitudeMeters>48.40000152587890625</AltitudeMeters>
            <DistanceMeters>NAN</DistanceMeters>
          </Trackpoint>
          <Trackpoint>
            <Time>2022-07-11T18:45:57.000Z</Time>
            <Position>
              <LatitudeDegrees>43.236698694527149200439453125</LatitudeDegrees>
              <LongitudeDegrees>-2.87482154555618762969970703125</LongitudeDegrees>
            </Position>
            <AltitudeMeters>48.200000762939453125</AltitudeMeters>
            <DistanceMeters>NAN</DistanceMeters>
          </Trackpoint>
          <Trackpoint>
            <Time>2022-07-11T18:46:05.000Z</Time>
            <Position>
              <LatitudeDegrees>43.23692006058990955352783203125</LatitudeDegrees>
              <LongitudeDegrees>-2.8751297481358051300048828125</LongitudeDegrees>
            </Position>
            <AltitudeMeters>48.200000762939453125</AltitudeMeters>
            <DistanceMeters>NAN</DistanceMeters>
          </Trackpoint>
          <Trackpoint>
            <Time>2022-07-11T18:46:12.000Z</Time>
            <Position>
              <LatitudeDegrees>43.2370921410620212554931640625</LatitudeDegrees>
              <LongitudeDegrees>-2.8753631003201007843017578125</LongitudeDegrees>
            </Position>
            <AltitudeMeters>48.200000762939453125</AltitudeMeters>
            <DistanceMeters>NAN</DistanceMeters>
          </Trackpoint>
          <Trackpoint>
            <Time>2022-07-11T18:46:21.000Z</Time>
            <Position>
              <LatitudeDegrees>43.23735809884965419769287109375</LatitudeDegrees>
              <LongitudeDegrees>-2.8756695427000522613525390625</LongitudeDegrees>
            </Position>
            <AltitudeMeters>48.200000762939453125</AltitudeMeters>
            <DistanceMeters>NAN</DistanceMeters>
          </Trackpoint>
          <Trackpoint>
            <Time>2022-07-11T18:46:29.000Z</Time>
            <Position>
              <LatitudeDegrees>43.23759044520556926727294921875</LatitudeDegrees>
              <LongitudeDegrees>-2.8759427927434444427490234375</LongitudeDegrees>
            </Position>
            <AltitudeMeters>48</AltitudeMeters>
            <DistanceMeters>NAN</DistanceMeters>
          </Trackpoint>
          <Trackpoint>
            <Time>2022-07-11T18:46:36.000Z</Time>
            <Position>
              <LatitudeDegrees>43.2377573288977146148681640625</LatitudeDegrees>
              <LongitudeDegrees>-2.87614303641021251678466796875</LongitudeDegrees>
            </Position>
            <AltitudeMeters>48.200000762939453125</AltitudeMeters>
            <DistanceMeters>NAN</DistanceMeters>
          </Trackpoint>
          <Trackpoint>
            <Time>2022-07-11T18:46:41.000Z</Time>
            <Position>
              <LatitudeDegrees>43.23780921287834644317626953125</LatitudeDegrees>
              <LongitudeDegrees>-2.87621118128299713134765625</LongitudeDegrees>
            </Position>
            <AltitudeMeters>48.200000762939453125</AltitudeMeters>
            <DistanceMeters>NAN</DistanceMeters>
          </Trackpoint>
          <Trackpoint>
            <Time>2022-07-11T18:46:42.000Z</Time>
            <Position>
              <LatitudeDegrees>43.23780921287834644317626953125</LatitudeDegrees>
              <LongitudeDegrees>-2.87621118128299713134765625</LongitudeDegrees>
            </Position>
            <AltitudeMeters>48.200000762939453125</AltitudeMeters>
            <DistanceMeters>NAN</DistanceMeters>
          </Trackpoint>
          <Trackpoint>
            <Time>2022-07-11T18:47:22.000Z</Time>
            <Position>
              <LatitudeDegrees>43.2378512062132358551025390625</LatitudeDegrees>
              <LongitudeDegrees>-2.8762572817504405975341796875</LongitudeDegrees>
            </Position>
            <AltitudeMeters>48.200000762939453125</AltitudeMeters>
            <DistanceMeters>NAN</DistanceMeters>
          </Trackpoint>
          <Trackpoint>
            <Time>2022-07-11T18:47:24.000Z</Time>
            <Position>
              <LatitudeDegrees>43.23789236135780811309814453125</LatitudeDegrees>
              <LongitudeDegrees>-2.87631620652973651885986328125</LongitudeDegrees>
            </Position>
            <AltitudeMeters>48.200000762939453125</AltitudeMeters>
            <DistanceMeters>NAN</DistanceMeters>
          </Trackpoint>
          <Trackpoint>
            <Time>2022-07-11T18:47:31.000Z</Time>
            <Position>
              <LatitudeDegrees>43.23807508684694766998291015625</LatitudeDegrees>
              <LongitudeDegrees>-2.8765551745891571044921875</LongitudeDegrees>
            </Position>
            <AltitudeMeters>48.200000762939453125</AltitudeMeters>
            <DistanceMeters>NAN</DistanceMeters>
          </Trackpoint>
          <Trackpoint>
            <Time>2022-07-11T18:47:39.000Z</Time>
            <Position>
              <LatitudeDegrees>43.23827675543725490570068359375</LatitudeDegrees>
              <LongitudeDegrees>-2.87683823145925998687744140625</LongitudeDegrees>
            </Position>
            <AltitudeMeters>49.200000762939453125</AltitudeMeters>
            <DistanceMeters>NAN</DistanceMeters>
          </Trackpoint>
          <Trackpoint>
            <Time>2022-07-11T18:47:42.000Z</Time>
            <Position>
              <LatitudeDegrees>43.2383437268435955047607421875</LatitudeDegrees>
              <LongitudeDegrees>-2.8769449330866336822509765625</LongitudeDegrees>
            </Position>
            <AltitudeMeters>49.40000152587890625</AltitudeMeters>
            <DistanceMeters>NAN</DistanceMeters>
          </Trackpoint>
          <Trackpoint>
            <Time>2022-07-11T18:47:52.000Z</Time>
            <Position>
              <LatitudeDegrees>43.23858252726495265960693359375</LatitudeDegrees>
              <LongitudeDegrees>-2.87728532217442989349365234375</LongitudeDegrees>
            </Position>
            <AltitudeMeters>49.799999237060546875</AltitudeMeters>
            <DistanceMeters>NAN</DistanceMeters>
          </Trackpoint>
          <Trackpoint>
            <Time>2022-07-11T18:47:53.000Z</Time>
            <Position>
              <LatitudeDegrees>43.23860348202288150787353515625</LatitudeDegrees>
              <LongitudeDegrees>-2.87733494304120540618896484375</LongitudeDegrees>
            </Position>
            <AltitudeMeters>49.799999237060546875</AltitudeMeters>
            <DistanceMeters>NAN</DistanceMeters>
          </Trackpoint>
          <Trackpoint>
            <Time>2022-07-11T18:47:59.000Z</Time>
            <Position>
              <LatitudeDegrees>43.23876290582120418548583984375</LatitudeDegrees>
              <LongitudeDegrees>-2.87751129828393459320068359375</LongitudeDegrees>
            </Position>
            <AltitudeMeters>49.799999237060546875</AltitudeMeters>
            <DistanceMeters>NAN</DistanceMeters>
          </Trackpoint>
          <Trackpoint>
            <Time>2022-07-11T18:48:02.000Z</Time>
            <Position>
              <LatitudeDegrees>43.23882895521819591522216796875</LatitudeDegrees>
              <LongitudeDegrees>-2.8776010684669017791748046875</LongitudeDegrees>
            </Position>
            <AltitudeMeters>50.40000152587890625</AltitudeMeters>
            <DistanceMeters>NAN</DistanceMeters>
          </Trackpoint>
          <Trackpoint>
            <Time>2022-07-11T18:48:04.000Z</Time>
            <Position>
              <LatitudeDegrees>43.23887287639081478118896484375</LatitudeDegrees>
              <LongitudeDegrees>-2.8776604123413562774658203125</LongitudeDegrees>
            </Position>
            <AltitudeMeters>50.799999237060546875</AltitudeMeters>
            <DistanceMeters>NAN</DistanceMeters>
          </Trackpoint>
          <Trackpoint>
            <Time>2022-07-11T18:48:06.000Z</Time>
            <Position>
              <LatitudeDegrees>43.238915540277957916259765625</LatitudeDegrees>
              <LongitudeDegrees>-2.87772486917674541473388671875</LongitudeDegrees>
            </Position>
            <AltitudeMeters>50.799999237060546875</AltitudeMeters>
            <DistanceMeters>NAN</DistanceMeters>
          </Trackpoint>
          <Trackpoint>
            <Time>2022-07-11T18:48:13.000Z</Time>
            <Position>
              <LatitudeDegrees>43.23910388164222240447998046875</LatitudeDegrees>
              <LongitudeDegrees>-2.8779407031834125518798828125</LongitudeDegrees>
            </Position>
            <AltitudeMeters>51</AltitudeMeters>
            <DistanceMeters>NAN</DistanceMeters>
          </Trackpoint>
          <Trackpoint>
            <Time>2022-07-11T18:48:19.000Z</Time>
            <Position>
              <LatitudeDegrees>43.23928560130298137664794921875</LatitudeDegrees>
              <LongitudeDegrees>-2.8781227581202983856201171875</LongitudeDegrees>
            </Position>
            <AltitudeMeters>51.40000152587890625</AltitudeMeters>
            <DistanceMeters>NAN</DistanceMeters>
          </Trackpoint>
          <Trackpoint>
            <Time>2022-07-11T18:48:25.000Z</Time>
            <Position>
              <LatitudeDegrees>43.2394541613757610321044921875</LatitudeDegrees>
              <LongitudeDegrees>-2.87828545086085796356201171875</LongitudeDegrees>
            </Position>
            <AltitudeMeters>51.799999237060546875</AltitudeMeters>
            <DistanceMeters>NAN</DistanceMeters>
          </Trackpoint>
          <Trackpoint>
            <Time>2022-07-11T18:48:26.000Z</Time>
            <Position>
              <LatitudeDegrees>43.2394823245704174041748046875</LatitudeDegrees>
              <LongitudeDegrees>-2.87831227295100688934326171875</LongitudeDegrees>
            </Position>
            <AltitudeMeters>52</AltitudeMeters>
            <DistanceMeters>NAN</DistanceMeters>
          </Trackpoint>
          <Trackpoint>
            <Time>2022-07-11T18:48:32.000Z</Time>
            <Position>
              <LatitudeDegrees>43.2396301813423633575439453125</LatitudeDegrees>
              <LongitudeDegrees>-2.8784526698291301727294921875</LongitudeDegrees>
            </Position>
            <AltitudeMeters>52.200000762939453125</AltitudeMeters>
            <DistanceMeters>NAN</DistanceMeters>
          </Trackpoint>
          <Trackpoint>
            <Time>2022-07-11T18:48:37.000Z</Time>
            <Position>
              <LatitudeDegrees>43.23980192653834819793701171875</LatitudeDegrees>
              <LongitudeDegrees>-2.87852752022445201873779296875</LongitudeDegrees>
            </Position>
            <AltitudeMeters>52.40000152587890625</AltitudeMeters>
            <DistanceMeters>NAN</DistanceMeters>
          </Trackpoint>
          <Trackpoint>
            <Time>2022-07-11T18:48:42.000Z</Time>
            <Position>
              <LatitudeDegrees>43.23996705003082752227783203125</LatitudeDegrees>
              <LongitudeDegrees>-2.878629863262176513671875</LongitudeDegrees>
            </Position>
            <AltitudeMeters>52.40000152587890625</AltitudeMeters>
            <DistanceMeters>NAN</DistanceMeters>
          </Trackpoint>
          <Trackpoint>
            <Time>2022-07-11T18:48:44.000Z</Time>
            <Position>
              <LatitudeDegrees>43.24003695510327816009521484375</LatitudeDegrees>
              <LongitudeDegrees>-2.87868577055633068084716796875</LongitudeDegrees>
            </Position>
            <AltitudeMeters>52.799999237060546875</AltitudeMeters>
            <DistanceMeters>NAN</DistanceMeters>
          </Trackpoint>
          <Trackpoint>
            <Time>2022-07-11T18:48:46.000Z</Time>
            <Position>
              <LatitudeDegrees>43.2401092909276485443115234375</LatitudeDegrees>
              <LongitudeDegrees>-2.87873371504247188568115234375</LongitudeDegrees>
            </Position>
            <AltitudeMeters>52.799999237060546875</AltitudeMeters>
            <DistanceMeters>NAN</DistanceMeters>
          </Trackpoint>
          <Trackpoint>
            <Time>2022-07-11T18:48:50.000Z</Time>
            <Position>
              <LatitudeDegrees>43.240262009203433990478515625</LatitudeDegrees>
              <LongitudeDegrees>-2.87882591597735881805419921875</LongitudeDegrees>
            </Position>
            <AltitudeMeters>53.200000762939453125</AltitudeMeters>
            <DistanceMeters>NAN</DistanceMeters>
          </Trackpoint>
          <Trackpoint>
            <Time>2022-07-11T18:48:52.000Z</Time>
            <Position>
              <LatitudeDegrees>43.24033602140843868255615234375</LatitudeDegrees>
              <LongitudeDegrees>-2.878878973424434661865234375</LongitudeDegrees>
            </Position>
            <AltitudeMeters>53.40000152587890625</AltitudeMeters>
            <DistanceMeters>NAN</DistanceMeters>
          </Trackpoint>
          <Trackpoint>
            <Time>2022-07-11T18:49:00.000Z</Time>
            <Position>
              <LatitudeDegrees>43.24062352068722248077392578125</LatitudeDegrees>
              <LongitudeDegrees>-2.8790444321930408477783203125</LongitudeDegrees>
            </Position>
            <AltitudeMeters>53.59999847412109375</AltitudeMeters>
            <DistanceMeters>NAN</DistanceMeters>
          </Trackpoint>
          <Trackpoint>
            <Time>2022-07-11T18:49:01.000Z</Time>
            <Position>
              <LatitudeDegrees>43.2406611554324626922607421875</LatitudeDegrees>
              <LongitudeDegrees>-2.87906463257968425750732421875</LongitudeDegrees>
            </Position>
            <AltitudeMeters>53.59999847412109375</AltitudeMeters>
            <DistanceMeters>NAN</DistanceMeters>
          </Trackpoint>
          <Trackpoint>
            <Time>2022-07-11T18:49:05.000Z</Time>
            <Position>
              <LatitudeDegrees>43.24081848375499248504638671875</LatitudeDegrees>
              <LongitudeDegrees>-2.87913839332759380340576171875</LongitudeDegrees>
            </Position>
            <AltitudeMeters>54</AltitudeMeters>
            <DistanceMeters>NAN</DistanceMeters>
          </Trackpoint>
          <Trackpoint>
            <Time>2022-07-11T18:49:11.000Z</Time>
            <Position>
              <LatitudeDegrees>43.2410453818738460540771484375</LatitudeDegrees>
              <LongitudeDegrees>-2.87926428951323032379150390625</LongitudeDegrees>
            </Position>
            <AltitudeMeters>54.200000762939453125</AltitudeMeters>
            <DistanceMeters>NAN</DistanceMeters>
          </Trackpoint>
          <Trackpoint>
            <Time>2022-07-11T18:49:19.000Z</Time>
            <Position>
              <LatitudeDegrees>43.2413575239479541778564453125</LatitudeDegrees>
              <LongitudeDegrees>-2.87940166890621185302734375</LongitudeDegrees>
            </Position>
            <AltitudeMeters>54.40000152587890625</AltitudeMeters>
            <DistanceMeters>NAN</DistanceMeters>
          </Trackpoint>
          <Trackpoint>
            <Time>2022-07-11T18:49:20.000Z</Time>
            <Position>
              <LatitudeDegrees>43.24139867909252643585205078125</LatitudeDegrees>
              <LongitudeDegrees>-2.87941968999803066253662109375</LongitudeDegrees>
            </Position>
            <AltitudeMeters>54.40000152587890625</AltitudeMeters>
            <DistanceMeters>NAN</DistanceMeters>
          </Trackpoint>
          <Trackpoint>
            <Time>2022-07-11T18:49:21.000Z</Time>
            <Position>
              <LatitudeDegrees>43.2414405047893524169921875</LatitudeDegrees>
              <LongitudeDegrees>-2.87943712435662746429443359375</LongitudeDegrees>
            </Position>
            <AltitudeMeters>54.40000152587890625</AltitudeMeters>
            <DistanceMeters>NAN</DistanceMeters>
          </Trackpoint>
          <Trackpoint>
            <Time>2022-07-11T18:49:23.000Z</Time>
            <Position>
              <LatitudeDegrees>43.2415208034217357635498046875</LatitudeDegrees>
              <LongitudeDegrees>-2.87948079407215118408203125</LongitudeDegrees>
            </Position>
            <AltitudeMeters>54.40000152587890625</AltitudeMeters>
            <DistanceMeters>NAN</DistanceMeters>
          </Trackpoint>
          <Trackpoint>
            <Time>2022-07-11T18:49:24.000Z</Time>
            <Position>
              <LatitudeDegrees>43.24155810289084911346435546875</LatitudeDegrees>
              <LongitudeDegrees>-2.879506610333919525146484375</LongitudeDegrees>
            </Position>
            <AltitudeMeters>54.40000152587890625</AltitudeMeters>
            <DistanceMeters>NAN</DistanceMeters>
          </Trackpoint>
          <Trackpoint>
            <Time>2022-07-11T18:49:26.000Z</Time>
            <Position>
              <LatitudeDegrees>43.24163320474326610565185546875</LatitudeDegrees>
              <LongitudeDegrees>-2.87955698557198047637939453125</LongitudeDegrees>
            </Position>
            <AltitudeMeters>54.40000152587890625</AltitudeMeters>
            <DistanceMeters>NAN</DistanceMeters>
          </Trackpoint>
          <Trackpoint>
            <Time>2022-07-11T18:49:28.000Z</Time>
            <Position>
              <LatitudeDegrees>43.241711072623729705810546875</LatitudeDegrees>
              <LongitudeDegrees>-2.8795999847352504730224609375</LongitudeDegrees>
            </Position>
            <AltitudeMeters>54.59999847412109375</AltitudeMeters>
            <DistanceMeters>NAN</DistanceMeters>
          </Trackpoint>
          <Trackpoint>
            <Time>2022-07-11T18:49:29.000Z</Time>
            <Position>
              <LatitudeDegrees>43.24174736626446247100830078125</LatitudeDegrees>
              <LongitudeDegrees>-2.8796217776834964752197265625</LongitudeDegrees>
            </Position>
            <AltitudeMeters>54.59999847412109375</AltitudeMeters>
            <DistanceMeters>NAN</DistanceMeters>
          </Trackpoint>
          <Trackpoint>
            <Time>2022-07-11T18:49:33.000Z</Time>
            <Position>
              <LatitudeDegrees>43.24188550002872943878173828125</LatitudeDegrees>
              <LongitudeDegrees>-2.8797005675733089447021484375</LongitudeDegrees>
            </Position>
            <AltitudeMeters>54.40000152587890625</AltitudeMeters>
            <DistanceMeters>NAN</DistanceMeters>
          </Trackpoint>
          <Trackpoint>
            <Time>2022-07-11T18:49:34.000Z</Time>
            <Position>
              <LatitudeDegrees>43.24191818945109844207763671875</LatitudeDegrees>
              <LongitudeDegrees>-2.879731245338916778564453125</LongitudeDegrees>
            </Position>
            <AltitudeMeters>54.40000152587890625</AltitudeMeters>
            <DistanceMeters>NAN</DistanceMeters>
          </Trackpoint>
          <Trackpoint>
            <Time>2022-07-11T18:49:37.000Z</Time>
            <Position>
              <LatitudeDegrees>43.24202111922204494476318359375</LatitudeDegrees>
              <LongitudeDegrees>-2.8798393718898296356201171875</LongitudeDegrees>
            </Position>
            <AltitudeMeters>54.59999847412109375</AltitudeMeters>
            <DistanceMeters>NAN</DistanceMeters>
          </Trackpoint>
          <Trackpoint>
            <Time>2022-07-11T18:49:44.000Z</Time>
            <Position>
              <LatitudeDegrees>43.24226285330951213836669921875</LatitudeDegrees>
              <LongitudeDegrees>-2.88015495054423809051513671875</LongitudeDegrees>
            </Position>
            <AltitudeMeters>55</AltitudeMeters>
            <DistanceMeters>NAN</DistanceMeters>
          </Trackpoint>
          <Trackpoint>
            <Time>2022-07-11T18:49:45.000Z</Time>
            <Position>
              <LatitudeDegrees>43.24229235760867595672607421875</LatitudeDegrees>
              <LongitudeDegrees>-2.8802064992487430572509765625</LongitudeDegrees>
            </Position>
            <AltitudeMeters>55</AltitudeMeters>
            <DistanceMeters>NAN</DistanceMeters>
          </Trackpoint>
          <Trackpoint>
            <Time>2022-07-11T18:49:46.000Z</Time>
            <Position>
              <LatitudeDegrees>43.24231616221368312835693359375</LatitudeDegrees>
              <LongitudeDegrees>-2.8802645020186901092529296875</LongitudeDegrees>
            </Position>
            <AltitudeMeters>55</AltitudeMeters>
            <DistanceMeters>NAN</DistanceMeters>
          </Trackpoint>
          <Trackpoint>
            <Time>2022-07-11T18:49:51.000Z</Time>
            <Position>
              <LatitudeDegrees>43.24243920855224132537841796875</LatitudeDegrees>
              <LongitudeDegrees>-2.8805384226143360137939453125</LongitudeDegrees>
            </Position>
            <AltitudeMeters>55.200000762939453125</AltitudeMeters>
            <DistanceMeters>NAN</DistanceMeters>
          </Trackpoint>
          <Trackpoint>
            <Time>2022-07-11T18:49:52.000Z</Time>
            <Position>
              <LatitudeDegrees>43.24245513416826725006103515625</LatitudeDegrees>
              <LongitudeDegrees>-2.88058678619563579559326171875</LongitudeDegrees>
            </Position>
            <AltitudeMeters>55.200000762939453125</AltitudeMeters>
            <DistanceMeters>NAN</DistanceMeters>
          </Trackpoint>
          <Trackpoint>
            <Time>2022-07-11T18:49:54.000Z</Time>
            <Position>
              <LatitudeDegrees>43.242484889924526214599609375</LatitudeDegrees>
              <LongitudeDegrees>-2.88068669848144054412841796875</LongitudeDegrees>
            </Position>
            <AltitudeMeters>55.200000762939453125</AltitudeMeters>
            <DistanceMeters>NAN</DistanceMeters>
          </Trackpoint>
          <Trackpoint>
            <Time>2022-07-11T18:49:55.000Z</Time>
            <Position>
              <LatitudeDegrees>43.2424972951412200927734375</LatitudeDegrees>
              <LongitudeDegrees>-2.8807426057755947113037109375</LongitudeDegrees>
            </Position>
            <AltitudeMeters>55.200000762939453125</AltitudeMeters>
            <DistanceMeters>NAN</DistanceMeters>
          </Trackpoint>
          <Trackpoint>
            <Time>2022-07-11T18:50:01.000Z</Time>
            <Position>
              <LatitudeDegrees>43.242554627358913421630859375</LatitudeDegrees>
              <LongitudeDegrees>-2.8811127506196498870849609375</LongitudeDegrees>
            </Position>
            <AltitudeMeters>56</AltitudeMeters>
            <DistanceMeters>NAN</DistanceMeters>
          </Trackpoint>
          <Trackpoint>
            <Time>2022-07-11T18:50:03.000Z</Time>
            <Position>
              <LatitudeDegrees>43.2425749115645885467529296875</LatitudeDegrees>
              <LongitudeDegrees>-2.88123051635921001434326171875</LongitudeDegrees>
            </Position>
            <AltitudeMeters>56.200000762939453125</AltitudeMeters>
            <DistanceMeters>NAN</DistanceMeters>
          </Trackpoint>
          <Trackpoint>
            <Time>2022-07-11T18:50:08.000Z</Time>
            <Position>
              <LatitudeDegrees>43.2426126301288604736328125</LatitudeDegrees>
              <LongitudeDegrees>-2.8815060295164585113525390625</LongitudeDegrees>
            </Position>
            <AltitudeMeters>55.799999237060546875</AltitudeMeters>
            <DistanceMeters>NAN</DistanceMeters>
          </Trackpoint>
          <Trackpoint>
            <Time>2022-07-11T18:50:10.000Z</Time>
            <Position>
              <LatitudeDegrees>43.24262713082134723663330078125</LatitudeDegrees>
              <LongitudeDegrees>-2.88160954602062702178955078125</LongitudeDegrees>
            </Position>
            <AltitudeMeters>56</AltitudeMeters>
            <DistanceMeters>NAN</DistanceMeters>
          </Trackpoint>
          <Trackpoint>
            <Time>2022-07-11T18:50:16.000Z</Time>
            <Position>
              <LatitudeDegrees>43.24268161319196224212646484375</LatitudeDegrees>
              <LongitudeDegrees>-2.8819046728312969207763671875</LongitudeDegrees>
            </Position>
            <AltitudeMeters>56.40000152587890625</AltitudeMeters>
            <DistanceMeters>NAN</DistanceMeters>
          </Trackpoint>
          <Trackpoint>
            <Time>2022-07-11T18:50:17.000Z</Time>
            <Position>
              <LatitudeDegrees>43.24269435368478298187255859375</LatitudeDegrees>
              <LongitudeDegrees>-2.8819579817354679107666015625</LongitudeDegrees>
            </Position>
            <AltitudeMeters>56.200000762939453125</AltitudeMeters>
            <DistanceMeters>NAN</DistanceMeters>
          </Trackpoint>
          <Trackpoint>
            <Time>2022-07-11T18:50:25.000Z</Time>
            <Position>
              <LatitudeDegrees>43.24278638698160648345947265625</LatitudeDegrees>
              <LongitudeDegrees>-2.88239325396716594696044921875</LongitudeDegrees>
            </Position>
            <AltitudeMeters>56.40000152587890625</AltitudeMeters>
            <DistanceMeters>NAN</DistanceMeters>
          </Trackpoint>
          <Trackpoint>
            <Time>2022-07-11T18:50:33.000Z</Time>
            <Position>
              <LatitudeDegrees>43.24284371919929981231689453125</LatitudeDegrees>
              <LongitudeDegrees>-2.88280094973742961883544921875</LongitudeDegrees>
            </Position>
            <AltitudeMeters>57</AltitudeMeters>
            <DistanceMeters>NAN</DistanceMeters>
          </Trackpoint>
          <Trackpoint>
            <Time>2022-07-11T18:50:36.000Z</Time>
            <Position>
              <LatitudeDegrees>43.242873810231685638427734375</LatitudeDegrees>
              <LongitudeDegrees>-2.882937826216220855712890625</LongitudeDegrees>
            </Position>
            <AltitudeMeters>57</AltitudeMeters>
            <DistanceMeters>NAN</DistanceMeters>
          </Trackpoint>
          <Trackpoint>
            <Time>2022-07-11T18:50:42.000Z</Time>
            <Position>
              <LatitudeDegrees>43.24293994344770908355712890625</LatitudeDegrees>
              <LongitudeDegrees>-2.883221469819545745849609375</LongitudeDegrees>
            </Position>
            <AltitudeMeters>57.200000762939453125</AltitudeMeters>
            <DistanceMeters>NAN</DistanceMeters>
          </Trackpoint>
          <Trackpoint>
            <Time>2022-07-11T18:50:50.000Z</Time>
            <Position>
              <LatitudeDegrees>43.242995180189609527587890625</LatitudeDegrees>
              <LongitudeDegrees>-2.88354509510099887847900390625</LongitudeDegrees>
            </Position>
            <AltitudeMeters>57.799999237060546875</AltitudeMeters>
            <DistanceMeters>NAN</DistanceMeters>
          </Trackpoint>
          <Trackpoint>
            <Time>2022-07-11T18:50:55.000Z</Time>
            <Position>
              <LatitudeDegrees>43.24301789514720439910888671875</LatitudeDegrees>
              <LongitudeDegrees>-2.88368322886526584625244140625</LongitudeDegrees>
            </Position>
            <AltitudeMeters>58.200000762939453125</AltitudeMeters>
            <DistanceMeters>NAN</DistanceMeters>
          </Trackpoint>
          <Trackpoint>
            <Time>2022-07-11T18:50:56.000Z</Time>
            <Position>
              <LatitudeDegrees>43.2430231757462024688720703125</LatitudeDegrees>
              <LongitudeDegrees>-2.88371290080249309539794921875</LongitudeDegrees>
            </Position>
            <AltitudeMeters>58.200000762939453125</AltitudeMeters>
            <DistanceMeters>NAN</DistanceMeters>
          </Trackpoint>
          <Trackpoint>
            <Time>2022-07-11T18:51:02.000Z</Time>
            <Position>
              <LatitudeDegrees>43.243049494922161102294921875</LatitudeDegrees>
              <LongitudeDegrees>-2.88386226631700992584228515625</LongitudeDegrees>
            </Position>
            <AltitudeMeters>59.40000152587890625</AltitudeMeters>
            <DistanceMeters>NAN</DistanceMeters>
          </Trackpoint>
          <Trackpoint>
            <Time>2022-07-11T18:51:04.000Z</Time>
            <Position>
              <LatitudeDegrees>43.2430650852620601654052734375</LatitudeDegrees>
              <LongitudeDegrees>-2.88390618748962879180908203125</LongitudeDegrees>
            </Position>
            <AltitudeMeters>59.59999847412109375</AltitudeMeters>
            <DistanceMeters>NAN</DistanceMeters>
          </Trackpoint>
          <Trackpoint>
            <Time>2022-07-11T18:51:11.000Z</Time>
            <Position>
              <LatitudeDegrees>43.24311227537691593170166015625</LatitudeDegrees>
              <LongitudeDegrees>-2.8840856440365314483642578125</LongitudeDegrees>
            </Position>
            <AltitudeMeters>60.59999847412109375</AltitudeMeters>
            <DistanceMeters>NAN</DistanceMeters>
          </Trackpoint>
          <Trackpoint>
            <Time>2022-07-11T18:51:14.000Z</Time>
            <Position>
              <LatitudeDegrees>43.24312786571681499481201171875</LatitudeDegrees>
              <LongitudeDegrees>-2.88415479473769664764404296875</LongitudeDegrees>
            </Position>
            <AltitudeMeters>60.799999237060546875</AltitudeMeters>
            <DistanceMeters>NAN</DistanceMeters>
          </Trackpoint>
          <Trackpoint>
            <Time>2022-07-11T18:51:19.000Z</Time>
            <Position>
              <LatitudeDegrees>43.24314630590379238128662109375</LatitudeDegrees>
              <LongitudeDegrees>-2.8842847980558872222900390625</LongitudeDegrees>
            </Position>
            <AltitudeMeters>61.40000152587890625</AltitudeMeters>
            <DistanceMeters>NAN</DistanceMeters>
          </Trackpoint>
          <Trackpoint>
            <Time>2022-07-11T18:51:20.000Z</Time>
            <Position>
              <LatitudeDegrees>43.24315116740763187408447265625</LatitudeDegrees>
              <LongitudeDegrees>-2.88430742919445037841796875</LongitudeDegrees>
            </Position>
            <AltitudeMeters>61.59999847412109375</AltitudeMeters>
            <DistanceMeters>NAN</DistanceMeters>
          </Trackpoint>
          <Trackpoint>
            <Time>2022-07-11T18:51:22.000Z</Time>
            <Position>
              <LatitudeDegrees>43.2431546039879322052001953125</LatitudeDegrees>
              <LongitudeDegrees>-2.8843545354902744293212890625</LongitudeDegrees>
            </Position>
            <AltitudeMeters>62</AltitudeMeters>
            <DistanceMeters>NAN</DistanceMeters>
          </Trackpoint>
          <Trackpoint>
            <Time>2022-07-11T18:51:25.000Z</Time>
            <Position>
              <LatitudeDegrees>43.2431651651859283447265625</LatitudeDegrees>
              <LongitudeDegrees>-2.884426452219486236572265625</LongitudeDegrees>
            </Position>
            <AltitudeMeters>62.59999847412109375</AltitudeMeters>
            <DistanceMeters>NAN</DistanceMeters>
          </Trackpoint>
          <Trackpoint>
            <Time>2022-07-11T18:51:29.000Z</Time>
            <Position>
              <LatitudeDegrees>43.2431831024587154388427734375</LatitudeDegrees>
              <LongitudeDegrees>-2.8845231793820858001708984375</LongitudeDegrees>
            </Position>
            <AltitudeMeters>63.59999847412109375</AltitudeMeters>
            <DistanceMeters>NAN</DistanceMeters>
          </Trackpoint>
          <Trackpoint>
            <Time>2022-07-11T18:51:30.000Z</Time>
            <Position>
              <LatitudeDegrees>43.24318720959126949310302734375</LatitudeDegrees>
              <LongitudeDegrees>-2.88454824127256870269775390625</LongitudeDegrees>
            </Position>
            <AltitudeMeters>63.799999237060546875</AltitudeMeters>
            <DistanceMeters>NAN</DistanceMeters>
          </Trackpoint>
          <Trackpoint>
            <Time>2022-07-11T18:51:34.000Z</Time>
            <Position>
              <LatitudeDegrees>43.24321486987173557281494140625</LatitudeDegrees>
              <LongitudeDegrees>-2.8846432082355022430419921875</LongitudeDegrees>
            </Position>
            <AltitudeMeters>64.40000152587890625</AltitudeMeters>
            <DistanceMeters>NAN</DistanceMeters>
          </Trackpoint>
          <Trackpoint>
            <Time>2022-07-11T18:51:37.000Z</Time>
            <Position>
              <LatitudeDegrees>43.2432407699525356292724609375</LatitudeDegrees>
              <LongitudeDegrees>-2.88471244275569915771484375</LongitudeDegrees>
            </Position>
            <AltitudeMeters>64.8000030517578125</AltitudeMeters>
            <DistanceMeters>NAN</DistanceMeters>
          </Trackpoint>
          <Trackpoint>
            <Time>2022-07-11T18:51:38.000Z</Time>
            <Position>
              <LatitudeDegrees>43.2432575337588787078857421875</LatitudeDegrees>
              <LongitudeDegrees>-2.8847283683717250823974609375</LongitudeDegrees>
            </Position>
            <AltitudeMeters>65</AltitudeMeters>
            <DistanceMeters>NAN</DistanceMeters>
          </Trackpoint>
          <Trackpoint>
            <Time>2022-07-11T18:51:42.000Z</Time>
            <Position>
              <LatitudeDegrees>43.24335166253149509429931640625</LatitudeDegrees>
              <LongitudeDegrees>-2.88478729315102100372314453125</LongitudeDegrees>
            </Position>
            <AltitudeMeters>65</AltitudeMeters>
            <DistanceMeters>NAN</DistanceMeters>
          </Trackpoint>
          <Trackpoint>
            <Time>2022-07-11T18:51:44.000Z</Time>
            <Position>
              <LatitudeDegrees>43.2434065639972686767578125</LatitudeDegrees>
              <LongitudeDegrees>-2.88484211079776287078857421875</LongitudeDegrees>
            </Position>
            <AltitudeMeters>65.1999969482421875</AltitudeMeters>
            <DistanceMeters>NAN</DistanceMeters>
          </Trackpoint>
          <Trackpoint>
            <Time>2022-07-11T18:51:45.000Z</Time>
            <Position>
              <LatitudeDegrees>43.243423998355865478515625</LatitudeDegrees>
              <LongitudeDegrees>-2.8848842717707157135009765625</LongitudeDegrees>
            </Position>
            <AltitudeMeters>65.1999969482421875</AltitudeMeters>
            <DistanceMeters>NAN</DistanceMeters>
          </Trackpoint>
          <Trackpoint>
            <Time>2022-07-11T18:51:47.000Z</Time>
            <Position>
              <LatitudeDegrees>43.24343799613416194915771484375</LatitudeDegrees>
              <LongitudeDegrees>-2.88499197922646999359130859375</LongitudeDegrees>
            </Position>
            <AltitudeMeters>65</AltitudeMeters>
            <DistanceMeters>NAN</DistanceMeters>
          </Trackpoint>
          <Trackpoint>
            <Time>2022-07-11T18:51:51.000Z</Time>
            <Position>
              <LatitudeDegrees>43.24336834251880645751953125</LatitudeDegrees>
              <LongitudeDegrees>-2.88516037166118621826171875</LongitudeDegrees>
            </Position>
            <AltitudeMeters>65</AltitudeMeters>
            <DistanceMeters>NAN</DistanceMeters>
          </Trackpoint>
          <Trackpoint>
            <Time>2022-07-11T18:51:55.000Z</Time>
            <Position>
              <LatitudeDegrees>43.24329047463834285736083984375</LatitudeDegrees>
              <LongitudeDegrees>-2.88531216792762279510498046875</LongitudeDegrees>
            </Position>
            <AltitudeMeters>65.8000030517578125</AltitudeMeters>
            <DistanceMeters>NAN</DistanceMeters>
          </Trackpoint>
          <Trackpoint>
            <Time>2022-07-11T18:51:56.000Z</Time>
            <Position>
              <LatitudeDegrees>43.24328326620161533355712890625</LatitudeDegrees>
              <LongitudeDegrees>-2.88536329753696918487548828125</LongitudeDegrees>
            </Position>
            <AltitudeMeters>66</AltitudeMeters>
            <DistanceMeters>NAN</DistanceMeters>
          </Trackpoint>
          <Trackpoint>
            <Time>2022-07-11T18:52:01.000Z</Time>
            <Position>
              <LatitudeDegrees>43.24322727508842945098876953125</LatitudeDegrees>
              <LongitudeDegrees>-2.8856711648404598236083984375</LongitudeDegrees>
            </Position>
            <AltitudeMeters>65.59999847412109375</AltitudeMeters>
            <DistanceMeters>NAN</DistanceMeters>
          </Trackpoint>
          <Trackpoint>
            <Time>2022-07-11T18:52:07.000Z</Time>
            <Position>
              <LatitudeDegrees>43.24311353266239166259765625</LatitudeDegrees>
              <LongitudeDegrees>-2.8860527090728282928466796875</LongitudeDegrees>
            </Position>
            <AltitudeMeters>64.8000030517578125</AltitudeMeters>
            <DistanceMeters>NAN</DistanceMeters>
          </Trackpoint>
          <Trackpoint>
            <Time>2022-07-11T18:52:09.000Z</Time>
            <Position>
              <LatitudeDegrees>43.24307723902165889739990234375</LatitudeDegrees>
              <LongitudeDegrees>-2.88616645149886608123779296875</LongitudeDegrees>
            </Position>
            <AltitudeMeters>64.59999847412109375</AltitudeMeters>
            <DistanceMeters>NAN</DistanceMeters>
          </Trackpoint>
          <Trackpoint>
            <Time>2022-07-11T18:52:11.000Z</Time>
            <Position>
              <LatitudeDegrees>43.2430419512093067169189453125</LatitudeDegrees>
              <LongitudeDegrees>-2.8862755000591278076171875</LongitudeDegrees>
            </Position>
            <AltitudeMeters>64.40000152587890625</AltitudeMeters>
            <DistanceMeters>NAN</DistanceMeters>
          </Trackpoint>
          <Trackpoint>
            <Time>2022-07-11T18:52:17.000Z</Time>
            <Position>
              <LatitudeDegrees>43.2429326511919498443603515625</LatitudeDegrees>
              <LongitudeDegrees>-2.8865777514874935150146484375</LongitudeDegrees>
            </Position>
            <AltitudeMeters>64.1999969482421875</AltitudeMeters>
            <DistanceMeters>NAN</DistanceMeters>
          </Trackpoint>
          <Trackpoint>
            <Time>2022-07-11T18:52:18.000Z</Time>
            <Position>
              <LatitudeDegrees>43.24290926568210124969482421875</LatitudeDegrees>
              <LongitudeDegrees>-2.88663835264742374420166015625</LongitudeDegrees>
            </Position>
            <AltitudeMeters>64.1999969482421875</AltitudeMeters>
            <DistanceMeters>NAN</DistanceMeters>
          </Trackpoint>
          <Trackpoint>
            <Time>2022-07-11T18:52:20.000Z</Time>
            <Position>
              <LatitudeDegrees>43.242882192134857177734375</LatitudeDegrees>
              <LongitudeDegrees>-2.88676072843372821807861328125</LongitudeDegrees>
            </Position>
            <AltitudeMeters>64</AltitudeMeters>
            <DistanceMeters>NAN</DistanceMeters>
          </Trackpoint>
          <Trackpoint>
            <Time>2022-07-11T18:52:21.000Z</Time>
            <Position>
              <LatitudeDegrees>43.242887556552886962890625</LatitudeDegrees>
              <LongitudeDegrees>-2.886824347078800201416015625</LongitudeDegrees>
            </Position>
            <AltitudeMeters>63.799999237060546875</AltitudeMeters>
            <DistanceMeters>NAN</DistanceMeters>
          </Trackpoint>
          <Trackpoint>
            <Time>2022-07-11T18:52:22.000Z</Time>
            <Position>
              <LatitudeDegrees>43.242903649806976318359375</LatitudeDegrees>
              <LongitudeDegrees>-2.8868843615055084228515625</LongitudeDegrees>
            </Position>
            <AltitudeMeters>63.799999237060546875</AltitudeMeters>
            <DistanceMeters>NAN</DistanceMeters>
          </Trackpoint>
          <Trackpoint>
            <Time>2022-07-11T18:52:24.000Z</Time>
            <Position>
              <LatitudeDegrees>43.24293826706707477569580078125</LatitudeDegrees>
              <LongitudeDegrees>-2.88699768483638763427734375</LongitudeDegrees>
            </Position>
            <AltitudeMeters>63.799999237060546875</AltitudeMeters>
            <DistanceMeters>NAN</DistanceMeters>
          </Trackpoint>
          <Trackpoint>
            <Time>2022-07-11T18:52:25.000Z</Time>
            <Position>
              <LatitudeDegrees>43.242951929569244384765625</LatitudeDegrees>
              <LongitudeDegrees>-2.8870548494160175323486328125</LongitudeDegrees>
            </Position>
            <AltitudeMeters>63.799999237060546875</AltitudeMeters>
            <DistanceMeters>NAN</DistanceMeters>
          </Trackpoint>
          <Trackpoint>
            <Time>2022-07-11T18:52:27.000Z</Time>
            <Position>
              <LatitudeDegrees>43.24296626262366771697998046875</LatitudeDegrees>
              <LongitudeDegrees>-2.88717211224138736724853515625</LongitudeDegrees>
            </Position>
            <AltitudeMeters>63.799999237060546875</AltitudeMeters>
            <DistanceMeters>NAN</DistanceMeters>
          </Trackpoint>
          <Trackpoint>
            <Time>2022-07-11T18:52:29.000Z</Time>
            <Position>
              <LatitudeDegrees>43.24297615326941013336181640625</LatitudeDegrees>
              <LongitudeDegrees>-2.88729147054255008697509765625</LongitudeDegrees>
            </Position>
            <AltitudeMeters>63.59999847412109375</AltitudeMeters>
            <DistanceMeters>NAN</DistanceMeters>
          </Trackpoint>
          <Trackpoint>
            <Time>2022-07-11T18:52:35.000Z</Time>
            <Position>
              <LatitudeDegrees>43.24299752712249755859375</LatitudeDegrees>
              <LongitudeDegrees>-2.88768860511481761932373046875</LongitudeDegrees>
            </Position>
            <AltitudeMeters>63.200000762939453125</AltitudeMeters>
            <DistanceMeters>NAN</DistanceMeters>
          </Trackpoint>
          <Trackpoint>
            <Time>2022-07-11T18:52:37.000Z</Time>
            <Position>
              <LatitudeDegrees>43.24299928732216358184814453125</LatitudeDegrees>
              <LongitudeDegrees>-2.88781575858592987060546875</LongitudeDegrees>
            </Position>
            <AltitudeMeters>63</AltitudeMeters>
            <DistanceMeters>NAN</DistanceMeters>
          </Trackpoint>
          <Trackpoint>
            <Time>2022-07-11T18:52:39.000Z</Time>
            <Position>
              <LatitudeDegrees>43.2430315576493740081787109375</LatitudeDegrees>
              <LongitudeDegrees>-2.88789345882833003997802734375</LongitudeDegrees>
            </Position>
            <AltitudeMeters>62.799999237060546875</AltitudeMeters>
            <DistanceMeters>NAN</DistanceMeters>
          </Trackpoint>
          <Trackpoint>
            <Time>2022-07-11T18:52:40.000Z</Time>
            <Position>
              <LatitudeDegrees>43.24305259622633457183837890625</LatitudeDegrees>
              <LongitudeDegrees>-2.88788683712482452392578125</LongitudeDegrees>
            </Position>
            <AltitudeMeters>62.40000152587890625</AltitudeMeters>
            <DistanceMeters>NAN</DistanceMeters>
          </Trackpoint>
          <Trackpoint>
            <Time>2022-07-11T18:52:41.000Z</Time>
            <Position>
              <LatitudeDegrees>43.2430670969188213348388671875</LatitudeDegrees>
              <LongitudeDegrees>-2.88786143995821475982666015625</LongitudeDegrees>
            </Position>
            <AltitudeMeters>62</AltitudeMeters>
            <DistanceMeters>NAN</DistanceMeters>
          </Trackpoint>
          <Trackpoint>
            <Time>2022-07-11T18:52:43.000Z</Time>
            <Position>
              <LatitudeDegrees>43.24308327399194240570068359375</LatitudeDegrees>
              <LongitudeDegrees>-2.88775197230279445648193359375</LongitudeDegrees>
            </Position>
            <AltitudeMeters>61.40000152587890625</AltitudeMeters>
            <DistanceMeters>NAN</DistanceMeters>
          </Trackpoint>
          <Trackpoint>
            <Time>2022-07-11T18:52:44.000Z</Time>
            <Position>
              <LatitudeDegrees>43.24310121126472949981689453125</LatitudeDegrees>
              <LongitudeDegrees>-2.88768676109611988067626953125</LongitudeDegrees>
            </Position>
            <AltitudeMeters>61</AltitudeMeters>
            <DistanceMeters>NAN</DistanceMeters>
          </Trackpoint>
          <Trackpoint>
            <Time>2022-07-11T18:52:45.000Z</Time>
            <Position>
              <LatitudeDegrees>43.2431338168680667877197265625</LatitudeDegrees>
              <LongitudeDegrees>-2.88762624375522136688232421875</LongitudeDegrees>
            </Position>
            <AltitudeMeters>60.59999847412109375</AltitudeMeters>
            <DistanceMeters>NAN</DistanceMeters>
          </Trackpoint>
          <Trackpoint>
            <Time>2022-07-11T18:52:46.000Z</Time>
            <Position>
              <LatitudeDegrees>43.243173547089099884033203125</LatitudeDegrees>
              <LongitudeDegrees>-2.88758684881031513214111328125</LongitudeDegrees>
            </Position>
            <AltitudeMeters>60</AltitudeMeters>
            <DistanceMeters>NAN</DistanceMeters>
          </Trackpoint>
          <Trackpoint>
            <Time>2022-07-11T18:52:47.000Z</Time>
            <Position>
              <LatitudeDegrees>43.24321671389043331146240234375</LatitudeDegrees>
              <LongitudeDegrees>-2.88757033646106719970703125</LongitudeDegrees>
            </Position>
            <AltitudeMeters>59.59999847412109375</AltitudeMeters>
            <DistanceMeters>NAN</DistanceMeters>
          </Trackpoint>
          <Trackpoint>
            <Time>2022-07-11T18:52:49.000Z</Time>
            <Position>
              <LatitudeDegrees>43.24327974580228328704833984375</LatitudeDegrees>
              <LongitudeDegrees>-2.88761668838560581207275390625</LongitudeDegrees>
            </Position>
            <AltitudeMeters>59.40000152587890625</AltitudeMeters>
            <DistanceMeters>NAN</DistanceMeters>
          </Trackpoint>
          <Trackpoint>
            <Time>2022-07-11T18:52:50.000Z</Time>
            <Position>
              <LatitudeDegrees>43.24329868890345096588134765625</LatitudeDegrees>
              <LongitudeDegrees>-2.88766396231949329376220703125</LongitudeDegrees>
            </Position>
            <AltitudeMeters>59.59999847412109375</AltitudeMeters>
            <DistanceMeters>NAN</DistanceMeters>
          </Trackpoint>
          <Trackpoint>
            <Time>2022-07-11T18:52:57.000Z</Time>
            <Position>
              <LatitudeDegrees>43.24340480379760265350341796875</LatitudeDegrees>
              <LongitudeDegrees>-2.8880254738032817840576171875</LongitudeDegrees>
            </Position>
            <AltitudeMeters>60</AltitudeMeters>
            <DistanceMeters>NAN</DistanceMeters>
          </Trackpoint>
          <Trackpoint>
            <Time>2022-07-11T18:52:58.000Z</Time>
            <Position>
              <LatitudeDegrees>43.2434218190610408782958984375</LatitudeDegrees>
              <LongitudeDegrees>-2.88807517848908901214599609375</LongitudeDegrees>
            </Position>
            <AltitudeMeters>60</AltitudeMeters>
            <DistanceMeters>NAN</DistanceMeters>
          </Trackpoint>
          <Trackpoint>
            <Time>2022-07-11T18:53:00.000Z</Time>
            <Position>
              <LatitudeDegrees>43.24348107911646366119384765625</LatitudeDegrees>
              <LongitudeDegrees>-2.88815547712147235870361328125</LongitudeDegrees>
            </Position>
            <AltitudeMeters>60</AltitudeMeters>
            <DistanceMeters>NAN</DistanceMeters>
          </Trackpoint>
          <Trackpoint>
            <Time>2022-07-11T18:53:01.000Z</Time>
            <Position>
              <LatitudeDegrees>43.24352030642330646514892578125</LatitudeDegrees>
              <LongitudeDegrees>-2.8881854005157947540283203125</LongitudeDegrees>
            </Position>
            <AltitudeMeters>60</AltitudeMeters>
            <DistanceMeters>NAN</DistanceMeters>
          </Trackpoint>
          <Trackpoint>
            <Time>2022-07-11T18:53:03.000Z</Time>
            <Position>
              <LatitudeDegrees>43.24359540827572345733642578125</LatitudeDegrees>
              <LongitudeDegrees>-2.88825698196887969970703125</LongitudeDegrees>
            </Position>
            <AltitudeMeters>60</AltitudeMeters>
            <DistanceMeters>NAN</DistanceMeters>
          </Trackpoint>
          <Trackpoint>
            <Time>2022-07-11T18:53:06.000Z</Time>
            <Position>
              <LatitudeDegrees>43.2436980865895748138427734375</LatitudeDegrees>
              <LongitudeDegrees>-2.88840073160827159881591796875</LongitudeDegrees>
            </Position>
            <AltitudeMeters>59.59999847412109375</AltitudeMeters>
            <DistanceMeters>NAN</DistanceMeters>
          </Trackpoint>
          <Trackpoint>
            <Time>2022-07-11T18:53:09.000Z</Time>
            <Position>
              <LatitudeDegrees>43.2437886111438274383544921875</LatitudeDegrees>
              <LongitudeDegrees>-2.88855780847370624542236328125</LongitudeDegrees>
            </Position>
            <AltitudeMeters>59.200000762939453125</AltitudeMeters>
            <DistanceMeters>NAN</DistanceMeters>
          </Trackpoint>
          <Trackpoint>
            <Time>2022-07-11T18:53:11.000Z</Time>
            <Position>
              <LatitudeDegrees>43.243853151798248291015625</LatitudeDegrees>
              <LongitudeDegrees>-2.88868186064064502716064453125</LongitudeDegrees>
            </Position>
            <AltitudeMeters>58.799999237060546875</AltitudeMeters>
            <DistanceMeters>NAN</DistanceMeters>
          </Trackpoint>
          <Trackpoint>
            <Time>2022-07-11T18:53:15.000Z</Time>
            <Position>
              <LatitudeDegrees>43.243988268077373504638671875</LatitudeDegrees>
              <LongitudeDegrees>-2.888897024095058441162109375</LongitudeDegrees>
            </Position>
            <AltitudeMeters>58.200000762939453125</AltitudeMeters>
            <DistanceMeters>NAN</DistanceMeters>
          </Trackpoint>
          <Trackpoint>
            <Time>2022-07-11T18:53:17.000Z</Time>
            <Position>
              <LatitudeDegrees>43.24406043626368045806884765625</LatitudeDegrees>
              <LongitudeDegrees>-2.88898461498320102691650390625</LongitudeDegrees>
            </Position>
            <AltitudeMeters>58</AltitudeMeters>
            <DistanceMeters>NAN</DistanceMeters>
          </Trackpoint>
          <Trackpoint>
            <Time>2022-07-11T18:53:25.000Z</Time>
            <Position>
              <LatitudeDegrees>43.24430535547435283660888671875</LatitudeDegrees>
              <LongitudeDegrees>-2.88936196826398372650146484375</LongitudeDegrees>
            </Position>
            <AltitudeMeters>58</AltitudeMeters>
            <DistanceMeters>NAN</DistanceMeters>
          </Trackpoint>
          <Trackpoint>
            <Time>2022-07-11T18:53:27.000Z</Time>
            <Position>
              <LatitudeDegrees>43.24434810318052768707275390625</LatitudeDegrees>
              <LongitudeDegrees>-2.88945131935179233551025390625</LongitudeDegrees>
            </Position>
            <AltitudeMeters>58</AltitudeMeters>
            <DistanceMeters>NAN</DistanceMeters>
          </Trackpoint>
          <Trackpoint>
            <Time>2022-07-11T18:53:29.000Z</Time>
            <Position>
              <LatitudeDegrees>43.244357407093048095703125</LatitudeDegrees>
              <LongitudeDegrees>-2.88956145755946636199951171875</LongitudeDegrees>
            </Position>
            <AltitudeMeters>58</AltitudeMeters>
            <DistanceMeters>NAN</DistanceMeters>
          </Trackpoint>
          <Trackpoint>
            <Time>2022-07-11T18:53:35.000Z</Time>
            <Position>
              <LatitudeDegrees>43.24427484534680843353271484375</LatitudeDegrees>
              <LongitudeDegrees>-2.889837138354778289794921875</LongitudeDegrees>
            </Position>
            <AltitudeMeters>58.200000762939453125</AltitudeMeters>
            <DistanceMeters>NAN</DistanceMeters>
          </Trackpoint>
          <Trackpoint>
            <Time>2022-07-11T18:53:38.000Z</Time>
            <Position>
              <LatitudeDegrees>43.244255147874355316162109375</LatitudeDegrees>
              <LongitudeDegrees>-2.88996219635009765625</LongitudeDegrees>
            </Position>
            <AltitudeMeters>58</AltitudeMeters>
            <DistanceMeters>NAN</DistanceMeters>
          </Trackpoint>
          <Trackpoint>
            <Time>2022-07-11T18:53:40.000Z</Time>
            <Position>
              <LatitudeDegrees>43.24423008598387241363525390625</LatitudeDegrees>
              <LongitudeDegrees>-2.89006219245493412017822265625</LongitudeDegrees>
            </Position>
            <AltitudeMeters>58</AltitudeMeters>
            <DistanceMeters>NAN</DistanceMeters>
          </Trackpoint>
          <Trackpoint>
            <Time>2022-07-11T18:53:41.000Z</Time>
            <Position>
              <LatitudeDegrees>43.244218938052654266357421875</LatitudeDegrees>
              <LongitudeDegrees>-2.8901051916182041168212890625</LongitudeDegrees>
            </Position>
            <AltitudeMeters>58</AltitudeMeters>
            <DistanceMeters>NAN</DistanceMeters>
          </Trackpoint>
          <Trackpoint>
            <Time>2022-07-11T18:53:47.000Z</Time>
            <Position>
              <LatitudeDegrees>43.24415984563529491424560546875</LatitudeDegrees>
              <LongitudeDegrees>-2.8903861530125141143798828125</LongitudeDegrees>
            </Position>
            <AltitudeMeters>58</AltitudeMeters>
            <DistanceMeters>NAN</DistanceMeters>
          </Trackpoint>
          <Trackpoint>
            <Time>2022-07-11T18:53:49.000Z</Time>
            <Position>
              <LatitudeDegrees>43.244141153991222381591796875</LatitudeDegrees>
              <LongitudeDegrees>-2.89047709666192531585693359375</LongitudeDegrees>
            </Position>
            <AltitudeMeters>58.200000762939453125</AltitudeMeters>
            <DistanceMeters>NAN</DistanceMeters>
          </Trackpoint>
          <Trackpoint>
            <Time>2022-07-11T18:53:57.000Z</Time>
            <Position>
              <LatitudeDegrees>43.24403529055416584014892578125</LatitudeDegrees>
              <LongitudeDegrees>-2.8908458165824413299560546875</LongitudeDegrees>
            </Position>
            <AltitudeMeters>58.59999847412109375</AltitudeMeters>
            <DistanceMeters>NAN</DistanceMeters>
          </Trackpoint>
          <Trackpoint>
            <Time>2022-07-11T18:54:06.000Z</Time>
            <Position>
              <LatitudeDegrees>43.2439381442964076995849609375</LatitudeDegrees>
              <LongitudeDegrees>-2.891203723847866058349609375</LongitudeDegrees>
            </Position>
            <AltitudeMeters>59.200000762939453125</AltitudeMeters>
            <DistanceMeters>NAN</DistanceMeters>
          </Trackpoint>
          <Trackpoint>
            <Time>2022-07-11T18:54:10.000Z</Time>
            <Position>
              <LatitudeDegrees>43.24388273991644382476806640625</LatitudeDegrees>
              <LongitudeDegrees>-2.89135719649493694305419921875</LongitudeDegrees>
            </Position>
            <AltitudeMeters>59.200000762939453125</AltitudeMeters>
            <DistanceMeters>NAN</DistanceMeters>
          </Trackpoint>
          <Trackpoint>
            <Time>2022-07-11T18:54:12.000Z</Time>
            <Position>
              <LatitudeDegrees>43.24386396445333957672119140625</LatitudeDegrees>
              <LongitudeDegrees>-2.8913946636021137237548828125</LongitudeDegrees>
            </Position>
            <AltitudeMeters>59</AltitudeMeters>
            <DistanceMeters>NAN</DistanceMeters>
          </Trackpoint>
          <Trackpoint>
            <Time>2022-07-11T18:54:13.000Z</Time>
            <Position>
              <LatitudeDegrees>43.243864886462688446044921875</LatitudeDegrees>
              <LongitudeDegrees>-2.8913993574678897857666015625</LongitudeDegrees>
            </Position>
            <AltitudeMeters>59</AltitudeMeters>
            <DistanceMeters>NAN</DistanceMeters>
          </Trackpoint>
          <Trackpoint>
            <Time>2022-07-11T18:54:16.000Z</Time>
            <Position>
              <LatitudeDegrees>43.24387125670909881591796875</LatitudeDegrees>
              <LongitudeDegrees>-2.89140053093433380126953125</LongitudeDegrees>
            </Position>
            <AltitudeMeters>58.799999237060546875</AltitudeMeters>
            <DistanceMeters>NAN</DistanceMeters>
          </Trackpoint>
          <Trackpoint>
            <Time>2022-07-11T18:54:30.000Z</Time>
            <Position>
              <LatitudeDegrees>43.243831694126129150390625</LatitudeDegrees>
              <LongitudeDegrees>-2.8914550133049488067626953125</LongitudeDegrees>
            </Position>
            <AltitudeMeters>59</AltitudeMeters>
            <DistanceMeters>NAN</DistanceMeters>
          </Trackpoint>
          <Trackpoint>
            <Time>2022-07-11T18:54:31.000Z</Time>
            <Position>
              <LatitudeDegrees>43.243811912834644317626953125</LatitudeDegrees>
              <LongitudeDegrees>-2.891482673585414886474609375</LongitudeDegrees>
            </Position>
            <AltitudeMeters>59</AltitudeMeters>
            <DistanceMeters>NAN</DistanceMeters>
          </Trackpoint>
          <Trackpoint>
            <Time>2022-07-11T18:54:32.000Z</Time>
            <Position>
              <LatitudeDegrees>43.24379020370543003082275390625</LatitudeDegrees>
              <LongitudeDegrees>-2.89151259697973728179931640625</LongitudeDegrees>
            </Position>
            <AltitudeMeters>59.200000762939453125</AltitudeMeters>
            <DistanceMeters>NAN</DistanceMeters>
          </Trackpoint>
          <Trackpoint>
            <Time>2022-07-11T18:54:36.000Z</Time>
            <Position>
              <LatitudeDegrees>43.243689201772212982177734375</LatitudeDegrees>
              <LongitudeDegrees>-2.89166162721812725067138671875</LongitudeDegrees>
            </Position>
            <AltitudeMeters>59.40000152587890625</AltitudeMeters>
            <DistanceMeters>NAN</DistanceMeters>
          </Trackpoint>
          <Trackpoint>
            <Time>2022-07-11T18:54:38.000Z</Time>
            <Position>
              <LatitudeDegrees>43.243649639189243316650390625</LatitudeDegrees>
              <LongitudeDegrees>-2.891753576695919036865234375</LongitudeDegrees>
            </Position>
            <AltitudeMeters>59.59999847412109375</AltitudeMeters>
            <DistanceMeters>NAN</DistanceMeters>
          </Trackpoint>
          <Trackpoint>
            <Time>2022-07-11T18:54:40.000Z</Time>
            <Position>
              <LatitudeDegrees>43.24362189508974552154541015625</LatitudeDegrees>
              <LongitudeDegrees>-2.89185239933431148529052734375</LongitudeDegrees>
            </Position>
            <AltitudeMeters>59.59999847412109375</AltitudeMeters>
            <DistanceMeters>NAN</DistanceMeters>
          </Trackpoint>
          <Trackpoint>
            <Time>2022-07-11T18:54:43.000Z</Time>
            <Position>
              <LatitudeDegrees>43.24360446073114871978759765625</LatitudeDegrees>
              <LongitudeDegrees>-2.8920149244368076324462890625</LongitudeDegrees>
            </Position>
            <AltitudeMeters>59.799999237060546875</AltitudeMeters>
            <DistanceMeters>NAN</DistanceMeters>
          </Trackpoint>
          <Trackpoint>
            <Time>2022-07-11T18:54:44.000Z</Time>
            <Position>
              <LatitudeDegrees>43.24360529892146587371826171875</LatitudeDegrees>
              <LongitudeDegrees>-2.89207083173096179962158203125</LongitudeDegrees>
            </Position>
            <AltitudeMeters>59.799999237060546875</AltitudeMeters>
            <DistanceMeters>NAN</DistanceMeters>
          </Trackpoint>
          <Trackpoint>
            <Time>2022-07-11T18:54:51.000Z</Time>
            <Position>
              <LatitudeDegrees>43.2436249963939189910888671875</LatitudeDegrees>
              <LongitudeDegrees>-2.89245103485882282257080078125</LongitudeDegrees>
            </Position>
            <AltitudeMeters>60</AltitudeMeters>
            <DistanceMeters>NAN</DistanceMeters>
          </Trackpoint>
          <Trackpoint>
            <Time>2022-07-11T18:54:58.000Z</Time>
            <Position>
              <LatitudeDegrees>43.24364955537021160125732421875</LatitudeDegrees>
              <LongitudeDegrees>-2.89283190853893756866455078125</LongitudeDegrees>
            </Position>
            <AltitudeMeters>60.200000762939453125</AltitudeMeters>
            <DistanceMeters>NAN</DistanceMeters>
          </Trackpoint>
          <Trackpoint>
            <Time>2022-07-11T18:55:04.000Z</Time>
            <Position>
              <LatitudeDegrees>43.2436613738536834716796875</LatitudeDegrees>
              <LongitudeDegrees>-2.89316534064710140228271484375</LongitudeDegrees>
            </Position>
            <AltitudeMeters>60.200000762939453125</AltitudeMeters>
            <DistanceMeters>NAN</DistanceMeters>
          </Trackpoint>
          <Trackpoint>
            <Time>2022-07-11T18:55:06.000Z</Time>
            <Position>
              <LatitudeDegrees>43.243667744100093841552734375</LatitudeDegrees>
              <LongitudeDegrees>-2.89327212609350681304931640625</LongitudeDegrees>
            </Position>
            <AltitudeMeters>60.200000762939453125</AltitudeMeters>
            <DistanceMeters>NAN</DistanceMeters>
          </Trackpoint>
          <Trackpoint>
            <Time>2022-07-11T18:55:08.000Z</Time>
            <Position>
              <LatitudeDegrees>43.24368291534483432769775390625</LatitudeDegrees>
              <LongitudeDegrees>-2.89336650632321834564208984375</LongitudeDegrees>
            </Position>
            <AltitudeMeters>60.40000152587890625</AltitudeMeters>
            <DistanceMeters>NAN</DistanceMeters>
          </Trackpoint>
          <Trackpoint>
            <Time>2022-07-11T18:55:10.000Z</Time>
            <Position>
              <LatitudeDegrees>43.24371828697621822357177734375</LatitudeDegrees>
              <LongitudeDegrees>-2.893444709479808807373046875</LongitudeDegrees>
            </Position>
            <AltitudeMeters>60.40000152587890625</AltitudeMeters>
            <DistanceMeters>NAN</DistanceMeters>
          </Trackpoint>
          <Trackpoint>
            <Time>2022-07-11T18:55:15.000Z</Time>
            <Position>
              <LatitudeDegrees>43.243854828178882598876953125</LatitudeDegrees>
              <LongitudeDegrees>-2.89361896924674510955810546875</LongitudeDegrees>
            </Position>
            <AltitudeMeters>60</AltitudeMeters>
            <DistanceMeters>NAN</DistanceMeters>
          </Trackpoint>
          <Trackpoint>
            <Time>2022-07-11T18:55:16.000Z</Time>
            <Position>
              <LatitudeDegrees>43.24388408102095127105712890625</LatitudeDegrees>
              <LongitudeDegrees>-2.89364595897495746612548828125</LongitudeDegrees>
            </Position>
            <AltitudeMeters>60</AltitudeMeters>
            <DistanceMeters>NAN</DistanceMeters>
          </Trackpoint>
          <Trackpoint>
            <Time>2022-07-11T18:55:18.000Z</Time>
            <Position>
              <LatitudeDegrees>43.24393101967871189117431640625</LatitudeDegrees>
              <LongitudeDegrees>-2.893706895411014556884765625</LongitudeDegrees>
            </Position>
            <AltitudeMeters>60.200000762939453125</AltitudeMeters>
            <DistanceMeters>NAN</DistanceMeters>
          </Trackpoint>
          <Trackpoint>
            <Time>2022-07-11T18:55:21.000Z</Time>
            <Position>
              <LatitudeDegrees>43.2440020143985748291015625</LatitudeDegrees>
              <LongitudeDegrees>-2.89381359703838825225830078125</LongitudeDegrees>
            </Position>
            <AltitudeMeters>60.200000762939453125</AltitudeMeters>
            <DistanceMeters>NAN</DistanceMeters>
          </Trackpoint>
          <Trackpoint>
            <Time>2022-07-11T18:55:27.000Z</Time>
            <Position>
              <LatitudeDegrees>43.24414961971342563629150390625</LatitudeDegrees>
              <LongitudeDegrees>-2.89402800612151622772216796875</LongitudeDegrees>
            </Position>
            <AltitudeMeters>60.59999847412109375</AltitudeMeters>
            <DistanceMeters>NAN</DistanceMeters>
          </Trackpoint>
          <Trackpoint>
            <Time>2022-07-11T18:55:31.000Z</Time>
            <Position>
              <LatitudeDegrees>43.24425053782761096954345703125</LatitudeDegrees>
              <LongitudeDegrees>-2.89417795836925506591796875</LongitudeDegrees>
            </Position>
            <AltitudeMeters>61</AltitudeMeters>
            <DistanceMeters>NAN</DistanceMeters>
          </Trackpoint>
          <Trackpoint>
            <Time>2022-07-11T18:55:36.000Z</Time>
            <Position>
              <LatitudeDegrees>43.2443924434483051300048828125</LatitudeDegrees>
              <LongitudeDegrees>-2.894345931708812713623046875</LongitudeDegrees>
            </Position>
            <AltitudeMeters>60.59999847412109375</AltitudeMeters>
            <DistanceMeters>NAN</DistanceMeters>
          </Trackpoint>
          <Trackpoint>
            <Time>2022-07-11T18:55:39.000Z</Time>
            <Position>
              <LatitudeDegrees>43.24450048618018627166748046875</LatitudeDegrees>
              <LongitudeDegrees>-2.8942119888961315155029296875</LongitudeDegrees>
            </Position>
            <AltitudeMeters>60.40000152587890625</AltitudeMeters>
            <DistanceMeters>NAN</DistanceMeters>
          </Trackpoint>
          <Trackpoint>
            <Time>2022-07-11T18:55:41.000Z</Time>
            <Position>
              <LatitudeDegrees>43.24457257054746150970458984375</LatitudeDegrees>
              <LongitudeDegrees>-2.89409573189914226531982421875</LongitudeDegrees>
            </Position>
            <AltitudeMeters>59.799999237060546875</AltitudeMeters>
            <DistanceMeters>NAN</DistanceMeters>
          </Trackpoint>
          <Trackpoint>
            <Time>2022-07-11T18:55:46.000Z</Time>
            <Position>
              <LatitudeDegrees>43.2447371073067188262939453125</LatitudeDegrees>
              <LongitudeDegrees>-2.89384494535624980926513671875</LongitudeDegrees>
            </Position>
            <AltitudeMeters>59</AltitudeMeters>
            <DistanceMeters>NAN</DistanceMeters>
          </Trackpoint>
          <Trackpoint>
            <Time>2022-07-11T18:55:47.000Z</Time>
            <Position>
              <LatitudeDegrees>43.24477340094745159149169921875</LatitudeDegrees>
              <LongitudeDegrees>-2.8937972523272037506103515625</LongitudeDegrees>
            </Position>
            <AltitudeMeters>59</AltitudeMeters>
            <DistanceMeters>NAN</DistanceMeters>
          </Trackpoint>
          <Trackpoint>
            <Time>2022-07-11T18:55:48.000Z</Time>
            <Position>
              <LatitudeDegrees>43.24480977840721607208251953125</LatitudeDegrees>
              <LongitudeDegrees>-2.89374687708914279937744140625</LongitudeDegrees>
            </Position>
            <AltitudeMeters>59</AltitudeMeters>
            <DistanceMeters>NAN</DistanceMeters>
          </Trackpoint>
          <Trackpoint>
            <Time>2022-07-11T18:55:49.000Z</Time>
            <Position>
              <LatitudeDegrees>43.24484598822891712188720703125</LatitudeDegrees>
              <LongitudeDegrees>-2.89370496757328510284423828125</LongitudeDegrees>
            </Position>
            <AltitudeMeters>59</AltitudeMeters>
            <DistanceMeters>NAN</DistanceMeters>
          </Trackpoint>
          <Trackpoint>
            <Time>2022-07-11T18:55:52.000Z</Time>
            <Position>
              <LatitudeDegrees>43.2449443079531192779541015625</LatitudeDegrees>
              <LongitudeDegrees>-2.8935779817402362823486328125</LongitudeDegrees>
            </Position>
            <AltitudeMeters>59</AltitudeMeters>
            <DistanceMeters>NAN</DistanceMeters>
          </Trackpoint>
          <Trackpoint>
            <Time>2022-07-11T18:55:55.000Z</Time>
            <Position>
              <LatitudeDegrees>43.24506458826363086700439453125</LatitudeDegrees>
              <LongitudeDegrees>-2.8934143669903278350830078125</LongitudeDegrees>
            </Position>
            <AltitudeMeters>58.799999237060546875</AltitudeMeters>
            <DistanceMeters>NAN</DistanceMeters>
          </Trackpoint>
          <Trackpoint>
            <Time>2022-07-11T18:56:00.000Z</Time>
            <Position>
              <LatitudeDegrees>43.2452460564672946929931640625</LatitudeDegrees>
              <LongitudeDegrees>-2.89316953159868717193603515625</LongitudeDegrees>
            </Position>
            <AltitudeMeters>58</AltitudeMeters>
            <DistanceMeters>NAN</DistanceMeters>
          </Trackpoint>
          <Trackpoint>
            <Time>2022-07-11T18:56:02.000Z</Time>
            <Position>
              <LatitudeDegrees>43.24532568454742431640625</LatitudeDegrees>
              <LongitudeDegrees>-2.89314203895628452301025390625</LongitudeDegrees>
            </Position>
            <AltitudeMeters>57.799999237060546875</AltitudeMeters>
            <DistanceMeters>NAN</DistanceMeters>
          </Trackpoint>
          <Trackpoint>
            <Time>2022-07-11T18:56:03.000Z</Time>
            <Position>
              <LatitudeDegrees>43.24535225518047809600830078125</LatitudeDegrees>
              <LongitudeDegrees>-2.893151342868804931640625</LongitudeDegrees>
            </Position>
            <AltitudeMeters>57.799999237060546875</AltitudeMeters>
            <DistanceMeters>NAN</DistanceMeters>
          </Trackpoint>
          <Trackpoint>
            <Time>2022-07-11T18:56:05.000Z</Time>
            <Position>
              <LatitudeDegrees>43.24541486799716949462890625</LatitudeDegrees>
              <LongitudeDegrees>-2.89314128458499908447265625</LongitudeDegrees>
            </Position>
            <AltitudeMeters>57.59999847412109375</AltitudeMeters>
            <DistanceMeters>NAN</DistanceMeters>
          </Trackpoint>
          <Trackpoint>
            <Time>2022-07-11T18:56:06.000Z</Time>
            <Position>
              <LatitudeDegrees>43.24543322436511516571044921875</LatitudeDegrees>
              <LongitudeDegrees>-2.89311043918132781982421875</LongitudeDegrees>
            </Position>
            <AltitudeMeters>57.59999847412109375</AltitudeMeters>
            <DistanceMeters>NAN</DistanceMeters>
          </Trackpoint>
          <Trackpoint>
            <Time>2022-07-11T18:56:08.000Z</Time>
            <Position>
              <LatitudeDegrees>43.245467506349086761474609375</LatitudeDegrees>
              <LongitudeDegrees>-2.893067188560962677001953125</LongitudeDegrees>
            </Position>
            <AltitudeMeters>57.59999847412109375</AltitudeMeters>
            <DistanceMeters>NAN</DistanceMeters>
          </Trackpoint>
          <Trackpoint>
            <Time>2022-07-11T18:56:09.000Z</Time>
            <Position>
              <LatitudeDegrees>43.24550069868564605712890625</LatitudeDegrees>
              <LongitudeDegrees>-2.89308286271989345550537109375</LongitudeDegrees>
            </Position>
            <AltitudeMeters>57.799999237060546875</AltitudeMeters>
            <DistanceMeters>NAN</DistanceMeters>
          </Trackpoint>
          <Trackpoint>
            <Time>2022-07-11T18:56:13.000Z</Time>
            <Position>
              <LatitudeDegrees>43.245625086128711700439453125</LatitudeDegrees>
              <LongitudeDegrees>-2.89324714802205562591552734375</LongitudeDegrees>
            </Position>
            <AltitudeMeters>57.799999237060546875</AltitudeMeters>
            <DistanceMeters>NAN</DistanceMeters>
          </Trackpoint>
          <Trackpoint>
            <Time>2022-07-11T18:56:17.000Z</Time>
            <Position>
              <LatitudeDegrees>43.2457667402923107147216796875</LatitudeDegrees>
              <LongitudeDegrees>-2.89346775971353054046630859375</LongitudeDegrees>
            </Position>
            <AltitudeMeters>57</AltitudeMeters>
            <DistanceMeters>NAN</DistanceMeters>
          </Trackpoint>
          <Trackpoint>
            <Time>2022-07-11T18:56:18.000Z</Time>
            <Position>
              <LatitudeDegrees>43.24578962288796901702880859375</LatitudeDegrees>
              <LongitudeDegrees>-2.8935008682310581207275390625</LongitudeDegrees>
            </Position>
            <AltitudeMeters>56.799999237060546875</AltitudeMeters>
            <DistanceMeters>NAN</DistanceMeters>
          </Trackpoint>
          <Trackpoint>
            <Time>2022-07-11T18:56:21.000Z</Time>
            <Position>
              <LatitudeDegrees>43.245942592620849609375</LatitudeDegrees>
              <LongitudeDegrees>-2.89339341223239898681640625</LongitudeDegrees>
            </Position>
            <AltitudeMeters>56.40000152587890625</AltitudeMeters>
            <DistanceMeters>NAN</DistanceMeters>
          </Trackpoint>
          <Trackpoint>
            <Time>2022-07-11T18:56:24.000Z</Time>
            <Position>
              <LatitudeDegrees>43.24606488458812236785888671875</LatitudeDegrees>
              <LongitudeDegrees>-2.89322309195995330810546875</LongitudeDegrees>
            </Position>
            <AltitudeMeters>55.59999847412109375</AltitudeMeters>
            <DistanceMeters>NAN</DistanceMeters>
          </Trackpoint>
          <Trackpoint>
            <Time>2022-07-11T18:56:27.000Z</Time>
            <Position>
              <LatitudeDegrees>43.24618063867092132568359375</LatitudeDegrees>
              <LongitudeDegrees>-2.8930797614157199859619140625</LongitudeDegrees>
            </Position>
            <AltitudeMeters>55.40000152587890625</AltitudeMeters>
            <DistanceMeters>NAN</DistanceMeters>
          </Trackpoint>
          <Trackpoint>
            <Time>2022-07-11T18:56:31.000Z</Time>
            <Position>
              <LatitudeDegrees>43.2463263161480426788330078125</LatitudeDegrees>
              <LongitudeDegrees>-2.892914302647113800048828125</LongitudeDegrees>
            </Position>
            <AltitudeMeters>55.200000762939453125</AltitudeMeters>
            <DistanceMeters>NAN</DistanceMeters>
          </Trackpoint>
          <Trackpoint>
            <Time>2022-07-11T18:56:32.000Z</Time>
            <Position>
              <LatitudeDegrees>43.24636495672166347503662109375</LatitudeDegrees>
              <LongitudeDegrees>-2.892883457243442535400390625</LongitudeDegrees>
            </Position>
            <AltitudeMeters>55</AltitudeMeters>
            <DistanceMeters>NAN</DistanceMeters>
          </Trackpoint>
          <Trackpoint>
            <Time>2022-07-11T18:56:37.000Z</Time>
            <Position>
              <LatitudeDegrees>43.246519602835178375244140625</LatitudeDegrees>
              <LongitudeDegrees>-2.89271774701774120330810546875</LongitudeDegrees>
            </Position>
            <AltitudeMeters>54.799999237060546875</AltitudeMeters>
            <DistanceMeters>NAN</DistanceMeters>
          </Trackpoint>
          <Trackpoint>
            <Time>2022-07-11T18:56:38.000Z</Time>
            <Position>
              <LatitudeDegrees>43.2465563155710697174072265625</LatitudeDegrees>
              <LongitudeDegrees>-2.89268623106181621551513671875</LongitudeDegrees>
            </Position>
            <AltitudeMeters>54.799999237060546875</AltitudeMeters>
            <DistanceMeters>NAN</DistanceMeters>
          </Trackpoint>
          <Trackpoint>
            <Time>2022-07-11T18:56:41.000Z</Time>
            <Position>
              <LatitudeDegrees>43.24666184373199939727783203125</LatitudeDegrees>
              <LongitudeDegrees>-2.89259101264178752899169921875</LongitudeDegrees>
            </Position>
            <AltitudeMeters>55</AltitudeMeters>
            <DistanceMeters>NAN</DistanceMeters>
          </Trackpoint>
          <Trackpoint>
            <Time>2022-07-11T18:56:44.000Z</Time>
            <Position>
              <LatitudeDegrees>43.24672537855803966522216796875</LatitudeDegrees>
              <LongitudeDegrees>-2.89248959161341190338134765625</LongitudeDegrees>
            </Position>
            <AltitudeMeters>55</AltitudeMeters>
            <DistanceMeters>NAN</DistanceMeters>
          </Trackpoint>
          <Trackpoint>
            <Time>2022-07-11T18:56:48.000Z</Time>
            <Position>
              <LatitudeDegrees>43.24683283455669879913330078125</LatitudeDegrees>
              <LongitudeDegrees>-2.89240644313395023345947265625</LongitudeDegrees>
            </Position>
            <AltitudeMeters>54.799999237060546875</AltitudeMeters>
            <DistanceMeters>NAN</DistanceMeters>
          </Trackpoint>
          <Trackpoint>
            <Time>2022-07-11T18:56:51.000Z</Time>
            <Position>
              <LatitudeDegrees>43.246936015784740447998046875</LatitudeDegrees>
              <LongitudeDegrees>-2.892484478652477264404296875</LongitudeDegrees>
            </Position>
            <AltitudeMeters>54.59999847412109375</AltitudeMeters>
            <DistanceMeters>NAN</DistanceMeters>
          </Trackpoint>
          <Trackpoint>
            <Time>2022-07-11T18:56:52.000Z</Time>
            <Position>
              <LatitudeDegrees>43.24696644209325313568115234375</LatitudeDegrees>
              <LongitudeDegrees>-2.892524711787700653076171875</LongitudeDegrees>
            </Position>
            <AltitudeMeters>54.59999847412109375</AltitudeMeters>
            <DistanceMeters>NAN</DistanceMeters>
          </Trackpoint>
          <Trackpoint>
            <Time>2022-07-11T18:56:58.000Z</Time>
            <Position>
              <LatitudeDegrees>43.24712167493999004364013671875</LatitudeDegrees>
              <LongitudeDegrees>-2.89278195239603519439697265625</LongitudeDegrees>
            </Position>
            <AltitudeMeters>54.200000762939453125</AltitudeMeters>
            <DistanceMeters>NAN</DistanceMeters>
          </Trackpoint>
          <Trackpoint>
            <Time>2022-07-11T18:57:00.000Z</Time>
            <Position>
              <LatitudeDegrees>43.2471671886742115020751953125</LatitudeDegrees>
              <LongitudeDegrees>-2.89287013001739978790283203125</LongitudeDegrees>
            </Position>
            <AltitudeMeters>54</AltitudeMeters>
            <DistanceMeters>NAN</DistanceMeters>
          </Trackpoint>
          <Trackpoint>
            <Time>2022-07-11T18:57:02.000Z</Time>
            <Position>
              <LatitudeDegrees>43.24722225777804851531982421875</LatitudeDegrees>
              <LongitudeDegrees>-2.89296333678066730499267578125</LongitudeDegrees>
            </Position>
            <AltitudeMeters>54.200000762939453125</AltitudeMeters>
            <DistanceMeters>NAN</DistanceMeters>
          </Trackpoint>
          <Trackpoint>
            <Time>2022-07-11T18:57:06.000Z</Time>
            <Position>
              <LatitudeDegrees>43.24733373709022998809814453125</LatitudeDegrees>
              <LongitudeDegrees>-2.89315226487815380096435546875</LongitudeDegrees>
            </Position>
            <AltitudeMeters>54.40000152587890625</AltitudeMeters>
            <DistanceMeters>NAN</DistanceMeters>
          </Trackpoint>
          <Trackpoint>
            <Time>2022-07-11T18:57:08.000Z</Time>
            <Position>
              <LatitudeDegrees>43.24738025665283203125</LatitudeDegrees>
              <LongitudeDegrees>-2.8932410292327404022216796875</LongitudeDegrees>
            </Position>
            <AltitudeMeters>54.40000152587890625</AltitudeMeters>
            <DistanceMeters>NAN</DistanceMeters>
          </Trackpoint>
          <Trackpoint>
            <Time>2022-07-11T18:57:12.000Z</Time>
            <Position>
              <LatitudeDegrees>43.24745326302945613861083984375</LatitudeDegrees>
              <LongitudeDegrees>-2.893390394747257232666015625</LongitudeDegrees>
            </Position>
            <AltitudeMeters>54.40000152587890625</AltitudeMeters>
            <DistanceMeters>NAN</DistanceMeters>
          </Trackpoint>
          <Trackpoint>
            <Time>2022-07-11T18:57:15.000Z</Time>
            <Position>
              <LatitudeDegrees>43.2475423626601696014404296875</LatitudeDegrees>
              <LongitudeDegrees>-2.89349491707980632781982421875</LongitudeDegrees>
            </Position>
            <AltitudeMeters>54.40000152587890625</AltitudeMeters>
            <DistanceMeters>NAN</DistanceMeters>
          </Trackpoint>
          <Trackpoint>
            <Time>2022-07-11T18:57:20.000Z</Time>
            <Position>
              <LatitudeDegrees>43.24765040539205074310302734375</LatitudeDegrees>
              <LongitudeDegrees>-2.89371603168547153472900390625</LongitudeDegrees>
            </Position>
            <AltitudeMeters>54.59999847412109375</AltitudeMeters>
            <DistanceMeters>NAN</DistanceMeters>
          </Trackpoint>
          <Trackpoint>
            <Time>2022-07-11T18:57:23.000Z</Time>
            <Position>
              <LatitudeDegrees>43.24772483669221401214599609375</LatitudeDegrees>
              <LongitudeDegrees>-2.89383723400533199310302734375</LongitudeDegrees>
            </Position>
            <AltitudeMeters>54.799999237060546875</AltitudeMeters>
            <DistanceMeters>NAN</DistanceMeters>
          </Trackpoint>
          <Trackpoint>
            <Time>2022-07-11T18:57:30.000Z</Time>
            <Position>
              <LatitudeDegrees>43.247921727597713470458984375</LatitudeDegrees>
              <LongitudeDegrees>-2.894146442413330078125</LongitudeDegrees>
            </Position>
            <AltitudeMeters>55</AltitudeMeters>
            <DistanceMeters>NAN</DistanceMeters>
          </Trackpoint>
          <Trackpoint>
            <Time>2022-07-11T18:57:39.000Z</Time>
            <Position>
              <LatitudeDegrees>43.24819824658334255218505859375</LatitudeDegrees>
              <LongitudeDegrees>-2.89453745819628238677978515625</LongitudeDegrees>
            </Position>
            <AltitudeMeters>54.799999237060546875</AltitudeMeters>
            <DistanceMeters>NAN</DistanceMeters>
          </Trackpoint>
          <Trackpoint>
            <Time>2022-07-11T18:57:46.000Z</Time>
            <Position>
              <LatitudeDegrees>43.24836454354226589202880859375</LatitudeDegrees>
              <LongitudeDegrees>-2.8948272205889225006103515625</LongitudeDegrees>
            </Position>
            <AltitudeMeters>54.200000762939453125</AltitudeMeters>
            <DistanceMeters>NAN</DistanceMeters>
          </Trackpoint>
          <Trackpoint>
            <Time>2022-07-11T18:57:51.000Z</Time>
            <Position>
              <LatitudeDegrees>43.24847468174993991851806640625</LatitudeDegrees>
              <LongitudeDegrees>-2.89500483311712741851806640625</LongitudeDegrees>
            </Position>
            <AltitudeMeters>54.40000152587890625</AltitudeMeters>
            <DistanceMeters>NAN</DistanceMeters>
          </Trackpoint>
          <Trackpoint>
            <Time>2022-07-11T18:57:52.000Z</Time>
            <Position>
              <LatitudeDegrees>43.2484888471662998199462890625</LatitudeDegrees>
              <LongitudeDegrees>-2.89503031410276889801025390625</LongitudeDegrees>
            </Position>
            <AltitudeMeters>54.59999847412109375</AltitudeMeters>
            <DistanceMeters>NAN</DistanceMeters>
          </Trackpoint>
          <Trackpoint>
            <Time>2022-07-11T18:57:53.000Z</Time>
            <Position>
              <LatitudeDegrees>43.24851022101938724517822265625</LatitudeDegrees>
              <LongitudeDegrees>-2.89506652392446994781494140625</LongitudeDegrees>
            </Position>
            <AltitudeMeters>54.799999237060546875</AltitudeMeters>
            <DistanceMeters>NAN</DistanceMeters>
          </Trackpoint>
          <Trackpoint>
            <Time>2022-07-11T18:57:57.000Z</Time>
            <Position>
              <LatitudeDegrees>43.2485183514654636383056640625</LatitudeDegrees>
              <LongitudeDegrees>-2.89522142149507999420166015625</LongitudeDegrees>
            </Position>
            <AltitudeMeters>55.40000152587890625</AltitudeMeters>
            <DistanceMeters>NAN</DistanceMeters>
          </Trackpoint>
          <Trackpoint>
            <Time>2022-07-11T18:57:59.000Z</Time>
            <Position>
              <LatitudeDegrees>43.2485099695622920989990234375</LatitudeDegrees>
              <LongitudeDegrees>-2.89528897963464260101318359375</LongitudeDegrees>
            </Position>
            <AltitudeMeters>55.799999237060546875</AltitudeMeters>
            <DistanceMeters>NAN</DistanceMeters>
          </Trackpoint>
          <Trackpoint>
            <Time>2022-07-11T18:58:03.000Z</Time>
            <Position>
              <LatitudeDegrees>43.2484653778374195098876953125</LatitudeDegrees>
              <LongitudeDegrees>-2.8953867964446544647216796875</LongitudeDegrees>
            </Position>
            <AltitudeMeters>56.200000762939453125</AltitudeMeters>
            <DistanceMeters>NAN</DistanceMeters>
          </Trackpoint>
          <Trackpoint>
            <Time>2022-07-11T18:58:05.000Z</Time>
            <Position>
              <LatitudeDegrees>43.24844551272690296173095703125</LatitudeDegrees>
              <LongitudeDegrees>-2.8954374231398105621337890625</LongitudeDegrees>
            </Position>
            <AltitudeMeters>56.40000152587890625</AltitudeMeters>
            <DistanceMeters>NAN</DistanceMeters>
          </Trackpoint>
          <Trackpoint>
            <Time>2022-07-11T18:58:06.000Z</Time>
            <Position>
              <LatitudeDegrees>43.248433358967304229736328125</LatitudeDegrees>
              <LongitudeDegrees>-2.89545745588839054107666015625</LongitudeDegrees>
            </Position>
            <AltitudeMeters>56.59999847412109375</AltitudeMeters>
            <DistanceMeters>NAN</DistanceMeters>
          </Trackpoint>
          <Trackpoint>
            <Time>2022-07-11T18:58:07.000Z</Time>
            <Position>
              <LatitudeDegrees>43.248415254056453704833984375</LatitudeDegrees>
              <LongitudeDegrees>-2.89547706954181194305419921875</LongitudeDegrees>
            </Position>
            <AltitudeMeters>57</AltitudeMeters>
            <DistanceMeters>NAN</DistanceMeters>
          </Trackpoint>
          <Trackpoint>
            <Time>2022-07-11T18:58:08.000Z</Time>
            <Position>
              <LatitudeDegrees>43.24839505366981029510498046875</LatitudeDegrees>
              <LongitudeDegrees>-2.89549333043396472930908203125</LongitudeDegrees>
            </Position>
            <AltitudeMeters>57.200000762939453125</AltitudeMeters>
            <DistanceMeters>NAN</DistanceMeters>
          </Trackpoint>
          <Trackpoint>
            <Time>2022-07-11T18:58:10.000Z</Time>
            <Position>
              <LatitudeDegrees>43.2483659684658050537109375</LatitudeDegrees>
              <LongitudeDegrees>-2.89552300237119197845458984375</LongitudeDegrees>
            </Position>
            <AltitudeMeters>57.59999847412109375</AltitudeMeters>
            <DistanceMeters>NAN</DistanceMeters>
          </Trackpoint>
          <Trackpoint>
            <Time>2022-07-11T18:58:13.000Z</Time>
            <Position>
              <LatitudeDegrees>43.24831022880971431732177734375</LatitudeDegrees>
              <LongitudeDegrees>-2.8956149518489837646484375</LongitudeDegrees>
            </Position>
            <AltitudeMeters>58</AltitudeMeters>
            <DistanceMeters>NAN</DistanceMeters>
          </Trackpoint>
          <Trackpoint>
            <Time>2022-07-11T18:58:14.000Z</Time>
            <Position>
              <LatitudeDegrees>43.2482876814901828765869140625</LatitudeDegrees>
              <LongitudeDegrees>-2.895648479461669921875</LongitudeDegrees>
            </Position>
            <AltitudeMeters>58.200000762939453125</AltitudeMeters>
            <DistanceMeters>NAN</DistanceMeters>
          </Trackpoint>
          <Trackpoint>
            <Time>2022-07-11T18:58:17.000Z</Time>
            <Position>
              <LatitudeDegrees>43.2482266612350940704345703125</LatitudeDegrees>
              <LongitudeDegrees>-2.89572559297084808349609375</LongitudeDegrees>
            </Position>
            <AltitudeMeters>58.799999237060546875</AltitudeMeters>
            <DistanceMeters>NAN</DistanceMeters>
          </Trackpoint>
          <Trackpoint>
            <Time>2022-07-11T18:58:19.000Z</Time>
            <Position>
              <LatitudeDegrees>43.248202688992023468017578125</LatitudeDegrees>
              <LongitudeDegrees>-2.89580698125064373016357421875</LongitudeDegrees>
            </Position>
            <AltitudeMeters>59.200000762939453125</AltitudeMeters>
            <DistanceMeters>NAN</DistanceMeters>
          </Trackpoint>
          <Trackpoint>
            <Time>2022-07-11T18:58:20.000Z</Time>
            <Position>
              <LatitudeDegrees>43.2482011802494525909423828125</LatitudeDegrees>
              <LongitudeDegrees>-2.895854674279689788818359375</LongitudeDegrees>
            </Position>
            <AltitudeMeters>59.40000152587890625</AltitudeMeters>
            <DistanceMeters>NAN</DistanceMeters>
          </Trackpoint>
          <Trackpoint>
            <Time>2022-07-11T18:58:26.000Z</Time>
            <Position>
              <LatitudeDegrees>43.2481245696544647216796875</LatitudeDegrees>
              <LongitudeDegrees>-2.89604569785296916961669921875</LongitudeDegrees>
            </Position>
            <AltitudeMeters>60.40000152587890625</AltitudeMeters>
            <DistanceMeters>NAN</DistanceMeters>
          </Trackpoint>
          <Trackpoint>
            <Time>2022-07-11T18:58:27.000Z</Time>
            <Position>
              <LatitudeDegrees>43.2481093145906925201416015625</LatitudeDegrees>
              <LongitudeDegrees>-2.89605793543159961700439453125</LongitudeDegrees>
            </Position>
            <AltitudeMeters>60.59999847412109375</AltitudeMeters>
            <DistanceMeters>NAN</DistanceMeters>
          </Trackpoint>
          <Trackpoint>
            <Time>2022-07-11T18:58:33.000Z</Time>
            <Position>
              <LatitudeDegrees>43.24801468290388584136962890625</LatitudeDegrees>
              <LongitudeDegrees>-2.896163798868656158447265625</LongitudeDegrees>
            </Position>
            <AltitudeMeters>61.40000152587890625</AltitudeMeters>
            <DistanceMeters>NAN</DistanceMeters>
          </Trackpoint>
          <Trackpoint>
            <Time>2022-07-11T18:58:34.000Z</Time>
            <Position>
              <LatitudeDegrees>43.24800512753427028656005859375</LatitudeDegrees>
              <LongitudeDegrees>-2.896192632615566253662109375</LongitudeDegrees>
            </Position>
            <AltitudeMeters>61.59999847412109375</AltitudeMeters>
            <DistanceMeters>NAN</DistanceMeters>
          </Trackpoint>
          <Trackpoint>
            <Time>2022-07-11T18:58:41.000Z</Time>
            <Position>
              <LatitudeDegrees>43.247914016246795654296875</LatitudeDegrees>
              <LongitudeDegrees>-2.89635322988033294677734375</LongitudeDegrees>
            </Position>
            <AltitudeMeters>62.59999847412109375</AltitudeMeters>
            <DistanceMeters>NAN</DistanceMeters>
          </Trackpoint>
          <Trackpoint>
            <Time>2022-07-11T18:58:43.000Z</Time>
            <Position>
              <LatitudeDegrees>43.24788208119571208953857421875</LatitudeDegrees>
              <LongitudeDegrees>-2.89638407528400421142578125</LongitudeDegrees>
            </Position>
            <AltitudeMeters>62.799999237060546875</AltitudeMeters>
            <DistanceMeters>NAN</DistanceMeters>
          </Trackpoint>
          <Trackpoint>
            <Time>2022-07-11T18:58:46.000Z</Time>
            <Position>
              <LatitudeDegrees>43.2478323765099048614501953125</LatitudeDegrees>
              <LongitudeDegrees>-2.8964543156325817108154296875</LongitudeDegrees>
            </Position>
            <AltitudeMeters>63.200000762939453125</AltitudeMeters>
            <DistanceMeters>NAN</DistanceMeters>
          </Trackpoint>
          <Trackpoint>
            <Time>2022-07-11T18:58:49.000Z</Time>
            <Position>
              <LatitudeDegrees>43.24779977090656757354736328125</LatitudeDegrees>
              <LongitudeDegrees>-2.896559424698352813720703125</LongitudeDegrees>
            </Position>
            <AltitudeMeters>63.59999847412109375</AltitudeMeters>
            <DistanceMeters>NAN</DistanceMeters>
          </Trackpoint>
          <Trackpoint>
            <Time>2022-07-11T18:58:50.000Z</Time>
            <Position>
              <LatitudeDegrees>43.24778468348085880279541015625</LatitudeDegrees>
              <LongitudeDegrees>-2.89658281020820140838623046875</LongitudeDegrees>
            </Position>
            <AltitudeMeters>63.799999237060546875</AltitudeMeters>
            <DistanceMeters>NAN</DistanceMeters>
          </Trackpoint>
          <Trackpoint>
            <Time>2022-07-11T18:58:58.000Z</Time>
            <Position>
              <LatitudeDegrees>43.2476325519382953643798828125</LatitudeDegrees>
              <LongitudeDegrees>-2.8967537172138690948486328125</LongitudeDegrees>
            </Position>
            <AltitudeMeters>64.8000030517578125</AltitudeMeters>
            <DistanceMeters>NAN</DistanceMeters>
          </Trackpoint>
          <Trackpoint>
            <Time>2022-07-11T18:58:59.000Z</Time>
            <Position>
              <LatitudeDegrees>43.2476127706468105316162109375</LatitudeDegrees>
              <LongitudeDegrees>-2.89677056483924388885498046875</LongitudeDegrees>
            </Position>
            <AltitudeMeters>65</AltitudeMeters>
            <DistanceMeters>NAN</DistanceMeters>
          </Trackpoint>
          <Trackpoint>
            <Time>2022-07-11T18:59:07.000Z</Time>
            <Position>
              <LatitudeDegrees>43.24746533297002315521240234375</LatitudeDegrees>
              <LongitudeDegrees>-2.89691272191703319549560546875</LongitudeDegrees>
            </Position>
            <AltitudeMeters>65.8000030517578125</AltitudeMeters>
            <DistanceMeters>NAN</DistanceMeters>
          </Trackpoint>
          <Trackpoint>
            <Time>2022-07-11T18:59:09.000Z</Time>
            <Position>
              <LatitudeDegrees>43.247430212795734405517578125</LatitudeDegrees>
              <LongitudeDegrees>-2.89695479907095432281494140625</LongitudeDegrees>
            </Position>
            <AltitudeMeters>66.1999969482421875</AltitudeMeters>
            <DistanceMeters>NAN</DistanceMeters>
          </Trackpoint>
          <Trackpoint>
            <Time>2022-07-11T18:59:17.000Z</Time>
            <Position>
              <LatitudeDegrees>43.2472704537212848663330078125</LatitudeDegrees>
              <LongitudeDegrees>-2.89710869081318378448486328125</LongitudeDegrees>
            </Position>
            <AltitudeMeters>66.8000030517578125</AltitudeMeters>
            <DistanceMeters>NAN</DistanceMeters>
          </Trackpoint>
          <Trackpoint>
            <Time>2022-07-11T18:59:18.000Z</Time>
            <Position>
              <LatitudeDegrees>43.24725310318171977996826171875</LatitudeDegrees>
              <LongitudeDegrees>-2.89713702164590358734130859375</LongitudeDegrees>
            </Position>
            <AltitudeMeters>67</AltitudeMeters>
            <DistanceMeters>NAN</DistanceMeters>
          </Trackpoint>
          <Trackpoint>
            <Time>2022-07-11T18:59:20.000Z</Time>
            <Position>
              <LatitudeDegrees>43.2472193241119384765625</LatitudeDegrees>
              <LongitudeDegrees>-2.89717742241919040679931640625</LongitudeDegrees>
            </Position>
            <AltitudeMeters>67.1999969482421875</AltitudeMeters>
            <DistanceMeters>NAN</DistanceMeters>
          </Trackpoint>
          <Trackpoint>
            <Time>2022-07-11T18:59:21.000Z</Time>
            <Position>
              <LatitudeDegrees>43.24720080010592937469482421875</LatitudeDegrees>
              <LongitudeDegrees>-2.89719670079648494720458984375</LongitudeDegrees>
            </Position>
            <AltitudeMeters>67.40000152587890625</AltitudeMeters>
            <DistanceMeters>NAN</DistanceMeters>
          </Trackpoint>
          <Trackpoint>
            <Time>2022-07-11T18:59:26.000Z</Time>
            <Position>
              <LatitudeDegrees>43.24710256420075893402099609375</LatitudeDegrees>
              <LongitudeDegrees>-2.89730030111968517303466796875</LongitudeDegrees>
            </Position>
            <AltitudeMeters>68</AltitudeMeters>
            <DistanceMeters>NAN</DistanceMeters>
          </Trackpoint>
          <Trackpoint>
            <Time>2022-07-11T18:59:27.000Z</Time>
            <Position>
              <LatitudeDegrees>43.24708412401378154754638671875</LatitudeDegrees>
              <LongitudeDegrees>-2.89732016623020172119140625</LongitudeDegrees>
            </Position>
            <AltitudeMeters>68</AltitudeMeters>
            <DistanceMeters>NAN</DistanceMeters>
          </Trackpoint>
          <Trackpoint>
            <Time>2022-07-11T18:59:34.000Z</Time>
            <Position>
              <LatitudeDegrees>43.24692838825285434722900390625</LatitudeDegrees>
              <LongitudeDegrees>-2.89745427668094635009765625</LongitudeDegrees>
            </Position>
            <AltitudeMeters>68.59999847412109375</AltitudeMeters>
            <DistanceMeters>NAN</DistanceMeters>
          </Trackpoint>
          <Trackpoint>
            <Time>2022-07-11T18:59:42.000Z</Time>
            <Position>
              <LatitudeDegrees>43.24671414680778980255126953125</LatitudeDegrees>
              <LongitudeDegrees>-2.89757137186825275421142578125</LongitudeDegrees>
            </Position>
            <AltitudeMeters>69</AltitudeMeters>
            <DistanceMeters>NAN</DistanceMeters>
          </Trackpoint>
          <Trackpoint>
            <Time>2022-07-11T18:59:47.000Z</Time>
            <Position>
              <LatitudeDegrees>43.246602751314640045166015625</LatitudeDegrees>
              <LongitudeDegrees>-2.897635996341705322265625</LongitudeDegrees>
            </Position>
            <AltitudeMeters>69.59999847412109375</AltitudeMeters>
            <DistanceMeters>NAN</DistanceMeters>
          </Trackpoint>
          <Trackpoint>
            <Time>2022-07-11T18:59:50.000Z</Time>
            <Position>
              <LatitudeDegrees>43.2465355284512042999267578125</LatitudeDegrees>
              <LongitudeDegrees>-2.89771738462150096893310546875</LongitudeDegrees>
            </Position>
            <AltitudeMeters>69.8000030517578125</AltitudeMeters>
            <DistanceMeters>NAN</DistanceMeters>
          </Trackpoint>
          <Trackpoint>
            <Time>2022-07-11T18:59:53.000Z</Time>
            <Position>
              <LatitudeDegrees>43.2464723289012908935546875</LatitudeDegrees>
              <LongitudeDegrees>-2.89780237711966037750244140625</LongitudeDegrees>
            </Position>
            <AltitudeMeters>70</AltitudeMeters>
            <DistanceMeters>NAN</DistanceMeters>
          </Trackpoint>
          <Trackpoint>
            <Time>2022-07-11T18:59:54.000Z</Time>
            <Position>
              <LatitudeDegrees>43.24645598419010639190673828125</LatitudeDegrees>
              <LongitudeDegrees>-2.8978359885513782501220703125</LongitudeDegrees>
            </Position>
            <AltitudeMeters>70</AltitudeMeters>
            <DistanceMeters>NAN</DistanceMeters>
          </Trackpoint>
          <Trackpoint>
            <Time>2022-07-11T18:59:55.000Z</Time>
            <Position>
              <LatitudeDegrees>43.24644408188760280609130859375</LatitudeDegrees>
              <LongitudeDegrees>-2.89787747897207736968994140625</LongitudeDegrees>
            </Position>
            <AltitudeMeters>70</AltitudeMeters>
            <DistanceMeters>NAN</DistanceMeters>
          </Trackpoint>
          <Trackpoint>
            <Time>2022-07-11T18:59:56.000Z</Time>
            <Position>
              <LatitudeDegrees>43.24642932973802089691162109375</LatitudeDegrees>
              <LongitudeDegrees>-2.8979216516017913818359375</LongitudeDegrees>
            </Position>
            <AltitudeMeters>70.1999969482421875</AltitudeMeters>
            <DistanceMeters>NAN</DistanceMeters>
          </Trackpoint>
          <Trackpoint>
            <Time>2022-07-11T18:59:57.000Z</Time>
            <Position>
              <LatitudeDegrees>43.2464121468365192413330078125</LatitudeDegrees>
              <LongitudeDegrees>-2.89795677177608013153076171875</LongitudeDegrees>
            </Position>
            <AltitudeMeters>70.1999969482421875</AltitudeMeters>
            <DistanceMeters>NAN</DistanceMeters>
          </Trackpoint>
          <Trackpoint>
            <Time>2022-07-11T18:59:58.000Z</Time>
            <Position>
              <LatitudeDegrees>43.2463940419256687164306640625</LatitudeDegrees>
              <LongitudeDegrees>-2.8979871980845928192138671875</LongitudeDegrees>
            </Position>
            <AltitudeMeters>70.1999969482421875</AltitudeMeters>
            <DistanceMeters>NAN</DistanceMeters>
          </Trackpoint>
          <Trackpoint>
            <Time>2022-07-11T19:00:00.000Z</Time>
            <Position>
              <LatitudeDegrees>43.246353305876255035400390625</LatitudeDegrees>
              <LongitudeDegrees>-2.89805836044251918792724609375</LongitudeDegrees>
            </Position>
            <AltitudeMeters>70.40000152587890625</AltitudeMeters>
            <DistanceMeters>NAN</DistanceMeters>
          </Trackpoint>
          <Trackpoint>
            <Time>2022-07-11T19:00:01.000Z</Time>
            <Position>
              <LatitudeDegrees>43.24633846990764141082763671875</LatitudeDegrees>
              <LongitudeDegrees>-2.8981038741767406463623046875</LongitudeDegrees>
            </Position>
            <AltitudeMeters>70.59999847412109375</AltitudeMeters>
            <DistanceMeters>NAN</DistanceMeters>
          </Trackpoint>
          <Trackpoint>
            <Time>2022-07-11T19:00:02.000Z</Time>
            <Position>
              <LatitudeDegrees>43.24631885625422000885009765625</LatitudeDegrees>
              <LongitudeDegrees>-2.89814226329326629638671875</LongitudeDegrees>
            </Position>
            <AltitudeMeters>70.59999847412109375</AltitudeMeters>
            <DistanceMeters>NAN</DistanceMeters>
          </Trackpoint>
          <Trackpoint>
            <Time>2022-07-11T19:00:04.000Z</Time>
            <Position>
              <LatitudeDegrees>43.2462870888411998748779296875</LatitudeDegrees>
              <LongitudeDegrees>-2.8982068039476871490478515625</LongitudeDegrees>
            </Position>
            <AltitudeMeters>70.59999847412109375</AltitudeMeters>
            <DistanceMeters>NAN</DistanceMeters>
          </Trackpoint>
          <Trackpoint>
            <Time>2022-07-11T19:00:07.000Z</Time>
            <Position>
              <LatitudeDegrees>43.2462334446609020233154296875</LatitudeDegrees>
              <LongitudeDegrees>-2.89831300266087055206298828125</LongitudeDegrees>
            </Position>
            <AltitudeMeters>70.8000030517578125</AltitudeMeters>
            <DistanceMeters>NAN</DistanceMeters>
          </Trackpoint>
          <Trackpoint>
            <Time>2022-07-11T19:00:13.000Z</Time>
            <Position>
              <LatitudeDegrees>43.246135376393795013427734375</LatitudeDegrees>
              <LongitudeDegrees>-2.89855909533798694610595703125</LongitudeDegrees>
            </Position>
            <AltitudeMeters>71</AltitudeMeters>
            <DistanceMeters>NAN</DistanceMeters>
          </Trackpoint>
          <Trackpoint>
            <Time>2022-07-11T19:00:14.000Z</Time>
            <Position>
              <LatitudeDegrees>43.24612959288060665130615234375</LatitudeDegrees>
              <LongitudeDegrees>-2.89861625991761684417724609375</LongitudeDegrees>
            </Position>
            <AltitudeMeters>71.1999969482421875</AltitudeMeters>
            <DistanceMeters>NAN</DistanceMeters>
          </Trackpoint>
          <Trackpoint>
            <Time>2022-07-11T19:00:21.000Z</Time>
            <Position>
              <LatitudeDegrees>43.24601970613002777099609375</LatitudeDegrees>
              <LongitudeDegrees>-2.89889219217002391815185546875</LongitudeDegrees>
            </Position>
            <AltitudeMeters>71.40000152587890625</AltitudeMeters>
            <DistanceMeters>NAN</DistanceMeters>
          </Trackpoint>
          <Trackpoint>
            <Time>2022-07-11T19:00:25.000Z</Time>
            <Position>
              <LatitudeDegrees>43.245939575135707855224609375</LatitudeDegrees>
              <LongitudeDegrees>-2.89902068674564361572265625</LongitudeDegrees>
            </Position>
            <AltitudeMeters>71.59999847412109375</AltitudeMeters>
            <DistanceMeters>NAN</DistanceMeters>
          </Trackpoint>
          <Trackpoint>
            <Time>2022-07-11T19:00:27.000Z</Time>
            <Position>
              <LatitudeDegrees>43.245895318686962127685546875</LatitudeDegrees>
              <LongitudeDegrees>-2.89911456406116485595703125</LongitudeDegrees>
            </Position>
            <AltitudeMeters>71.8000030517578125</AltitudeMeters>
            <DistanceMeters>NAN</DistanceMeters>
          </Trackpoint>
          <Trackpoint>
            <Time>2022-07-11T19:00:32.000Z</Time>
            <Position>
              <LatitudeDegrees>43.245761208236217498779296875</LatitudeDegrees>
              <LongitudeDegrees>-2.89933777414262294769287109375</LongitudeDegrees>
            </Position>
            <AltitudeMeters>71.8000030517578125</AltitudeMeters>
            <DistanceMeters>NAN</DistanceMeters>
          </Trackpoint>
          <Trackpoint>
            <Time>2022-07-11T19:00:33.000Z</Time>
            <Position>
              <LatitudeDegrees>43.24572893790900707244873046875</LatitudeDegrees>
              <LongitudeDegrees>-2.8993987105786800384521484375</LongitudeDegrees>
            </Position>
            <AltitudeMeters>71.8000030517578125</AltitudeMeters>
            <DistanceMeters>NAN</DistanceMeters>
          </Trackpoint>
          <Trackpoint>
            <Time>2022-07-11T19:00:37.000Z</Time>
            <Position>
              <LatitudeDegrees>43.245624415576457977294921875</LatitudeDegrees>
              <LongitudeDegrees>-2.89959643967449665069580078125</LongitudeDegrees>
            </Position>
            <AltitudeMeters>72</AltitudeMeters>
            <DistanceMeters>NAN</DistanceMeters>
          </Trackpoint>
          <Trackpoint>
            <Time>2022-07-11T19:00:39.000Z</Time>
            <Position>
              <LatitudeDegrees>43.24557102285325527191162109375</LatitudeDegrees>
              <LongitudeDegrees>-2.89971403777599334716796875</LongitudeDegrees>
            </Position>
            <AltitudeMeters>72.1999969482421875</AltitudeMeters>
            <DistanceMeters>NAN</DistanceMeters>
          </Trackpoint>
          <Trackpoint>
            <Time>2022-07-11T19:00:40.000Z</Time>
            <Position>
              <LatitudeDegrees>43.24554604478180408477783203125</LatitudeDegrees>
              <LongitudeDegrees>-2.8997718729078769683837890625</LongitudeDegrees>
            </Position>
            <AltitudeMeters>72.1999969482421875</AltitudeMeters>
            <DistanceMeters>NAN</DistanceMeters>
          </Trackpoint>
          <Trackpoint>
            <Time>2022-07-11T19:00:42.000Z</Time>
            <Position>
              <LatitudeDegrees>43.2454986870288848876953125</LatitudeDegrees>
              <LongitudeDegrees>-2.899881340563297271728515625</LongitudeDegrees>
            </Position>
            <AltitudeMeters>72.40000152587890625</AltitudeMeters>
            <DistanceMeters>NAN</DistanceMeters>
          </Trackpoint>
          <Trackpoint>
            <Time>2022-07-11T19:00:48.000Z</Time>
            <Position>
              <LatitudeDegrees>43.24539466761052608489990234375</LatitudeDegrees>
              <LongitudeDegrees>-2.90022491477429866790771484375</LongitudeDegrees>
            </Position>
            <AltitudeMeters>72.1999969482421875</AltitudeMeters>
            <DistanceMeters>NAN</DistanceMeters>
          </Trackpoint>
          <Trackpoint>
            <Time>2022-07-11T19:00:51.000Z</Time>
            <Position>
              <LatitudeDegrees>43.24533331207931041717529296875</LatitudeDegrees>
              <LongitudeDegrees>-2.90039758197963237762451171875</LongitudeDegrees>
            </Position>
            <AltitudeMeters>72.1999969482421875</AltitudeMeters>
            <DistanceMeters>NAN</DistanceMeters>
          </Trackpoint>
          <Trackpoint>
            <Time>2022-07-11T19:00:56.000Z</Time>
            <Position>
              <LatitudeDegrees>43.2452266104519367218017578125</LatitudeDegrees>
              <LongitudeDegrees>-2.900663204491138458251953125</LongitudeDegrees>
            </Position>
            <AltitudeMeters>72.1999969482421875</AltitudeMeters>
            <DistanceMeters>NAN</DistanceMeters>
          </Trackpoint>
          <Trackpoint>
            <Time>2022-07-11T19:01:04.000Z</Time>
            <Position>
              <LatitudeDegrees>43.24502955190837383270263671875</LatitudeDegrees>
              <LongitudeDegrees>-2.90106209926307201385498046875</LongitudeDegrees>
            </Position>
            <AltitudeMeters>72.40000152587890625</AltitudeMeters>
            <DistanceMeters>NAN</DistanceMeters>
          </Trackpoint>
          <Trackpoint>
            <Time>2022-07-11T19:01:09.000Z</Time>
            <Position>
              <LatitudeDegrees>43.24491321109235286712646484375</LatitudeDegrees>
              <LongitudeDegrees>-2.90129109285771846771240234375</LongitudeDegrees>
            </Position>
            <AltitudeMeters>72.40000152587890625</AltitudeMeters>
            <DistanceMeters>NAN</DistanceMeters>
          </Trackpoint>
          <Trackpoint>
            <Time>2022-07-11T19:01:13.000Z</Time>
            <Position>
              <LatitudeDegrees>43.244813382625579833984375</LatitudeDegrees>
              <LongitudeDegrees>-2.90145906619727611541748046875</LongitudeDegrees>
            </Position>
            <AltitudeMeters>72.1999969482421875</AltitudeMeters>
            <DistanceMeters>NAN</DistanceMeters>
          </Trackpoint>
          <Trackpoint>
            <Time>2022-07-11T19:01:22.000Z</Time>
            <Position>
              <LatitudeDegrees>43.24460593052208423614501953125</LatitudeDegrees>
              <LongitudeDegrees>-2.9018586315214633941650390625</LongitudeDegrees>
            </Position>
            <AltitudeMeters>72.59999847412109375</AltitudeMeters>
            <DistanceMeters>NAN</DistanceMeters>
          </Trackpoint>
          <Trackpoint>
            <Time>2022-07-11T19:01:30.000Z</Time>
            <Position>
              <LatitudeDegrees>43.24442789889872074127197265625</LatitudeDegrees>
              <LongitudeDegrees>-2.90218963287770748138427734375</LongitudeDegrees>
            </Position>
            <AltitudeMeters>73</AltitudeMeters>
            <DistanceMeters>NAN</DistanceMeters>
          </Trackpoint>
          <Trackpoint>
            <Time>2022-07-11T19:01:32.000Z</Time>
            <Position>
              <LatitudeDegrees>43.24437710456550121307373046875</LatitudeDegrees>
              <LongitudeDegrees>-2.9022561013698577880859375</LongitudeDegrees>
            </Position>
            <AltitudeMeters>73.1999969482421875</AltitudeMeters>
            <DistanceMeters>NAN</DistanceMeters>
          </Trackpoint>
          <Trackpoint>
            <Time>2022-07-11T19:01:38.000Z</Time>
            <Position>
              <LatitudeDegrees>43.24422061443328857421875</LatitudeDegrees>
              <LongitudeDegrees>-2.90243555791676044464111328125</LongitudeDegrees>
            </Position>
            <AltitudeMeters>73.8000030517578125</AltitudeMeters>
            <DistanceMeters>NAN</DistanceMeters>
          </Trackpoint>
          <Trackpoint>
            <Time>2022-07-11T19:01:39.000Z</Time>
            <Position>
              <LatitudeDegrees>43.2441924512386322021484375</LatitudeDegrees>
              <LongitudeDegrees>-2.902462966740131378173828125</LongitudeDegrees>
            </Position>
            <AltitudeMeters>73.8000030517578125</AltitudeMeters>
            <DistanceMeters>NAN</DistanceMeters>
          </Trackpoint>
          <Trackpoint>
            <Time>2022-07-11T19:01:46.000Z</Time>
            <Position>
              <LatitudeDegrees>43.24397007934749126434326171875</LatitudeDegrees>
              <LongitudeDegrees>-2.90262691676616668701171875</LongitudeDegrees>
            </Position>
            <AltitudeMeters>74.40000152587890625</AltitudeMeters>
            <DistanceMeters>NAN</DistanceMeters>
          </Trackpoint>
          <Trackpoint>
            <Time>2022-07-11T19:01:47.000Z</Time>
            <Position>
              <LatitudeDegrees>43.24393437243998050689697265625</LatitudeDegrees>
              <LongitudeDegrees>-2.9026438482105731964111328125</LongitudeDegrees>
            </Position>
            <AltitudeMeters>74.40000152587890625</AltitudeMeters>
            <DistanceMeters>NAN</DistanceMeters>
          </Trackpoint>
          <Trackpoint>
            <Time>2022-07-11T19:01:53.000Z</Time>
            <Position>
              <LatitudeDegrees>43.24374192394316196441650390625</LatitudeDegrees>
              <LongitudeDegrees>-2.90279991924762725830078125</LongitudeDegrees>
            </Position>
            <AltitudeMeters>74.59999847412109375</AltitudeMeters>
            <DistanceMeters>NAN</DistanceMeters>
          </Trackpoint>
          <Trackpoint>
            <Time>2022-07-11T19:01:55.000Z</Time>
            <Position>
              <LatitudeDegrees>43.24370688758790493011474609375</LatitudeDegrees>
              <LongitudeDegrees>-2.90288030169904232025146484375</LongitudeDegrees>
            </Position>
            <AltitudeMeters>74.8000030517578125</AltitudeMeters>
            <DistanceMeters>NAN</DistanceMeters>
          </Trackpoint>
          <Trackpoint>
            <Time>2022-07-11T19:01:57.000Z</Time>
            <Position>
              <LatitudeDegrees>43.2437084801495075225830078125</LatitudeDegrees>
              <LongitudeDegrees>-2.9029534757137298583984375</LongitudeDegrees>
            </Position>
            <AltitudeMeters>75.1999969482421875</AltitudeMeters>
            <DistanceMeters>NAN</DistanceMeters>
          </Trackpoint>
          <Trackpoint>
            <Time>2022-07-11T19:01:59.000Z</Time>
            <Position>
              <LatitudeDegrees>43.243724741041660308837890625</LatitudeDegrees>
              <LongitudeDegrees>-2.90301843546330928802490234375</LongitudeDegrees>
            </Position>
            <AltitudeMeters>75.40000152587890625</AltitudeMeters>
            <DistanceMeters>NAN</DistanceMeters>
          </Trackpoint>
          <Trackpoint>
            <Time>2022-07-11T19:02:01.000Z</Time>
            <Position>
              <LatitudeDegrees>43.24375131167471408843994140625</LatitudeDegrees>
              <LongitudeDegrees>-2.90307308547198772430419921875</LongitudeDegrees>
            </Position>
            <AltitudeMeters>75.59999847412109375</AltitudeMeters>
            <DistanceMeters>NAN</DistanceMeters>
          </Trackpoint>
          <Trackpoint>
            <Time>2022-07-11T19:02:04.000Z</Time>
            <Position>
              <LatitudeDegrees>43.2437963224947452545166015625</LatitudeDegrees>
              <LongitudeDegrees>-2.9031546413898468017578125</LongitudeDegrees>
            </Position>
            <AltitudeMeters>76.40000152587890625</AltitudeMeters>
            <DistanceMeters>NAN</DistanceMeters>
          </Trackpoint>
          <Trackpoint>
            <Time>2022-07-11T19:02:09.000Z</Time>
            <Position>
              <LatitudeDegrees>43.24388558976352214813232421875</LatitudeDegrees>
              <LongitudeDegrees>-2.9033397138118743896484375</LongitudeDegrees>
            </Position>
            <AltitudeMeters>76.59999847412109375</AltitudeMeters>
            <DistanceMeters>NAN</DistanceMeters>
          </Trackpoint>
          <Trackpoint>
            <Time>2022-07-11T19:02:12.000Z</Time>
            <Position>
              <LatitudeDegrees>43.24397544376552104949951171875</LatitudeDegrees>
              <LongitudeDegrees>-2.90353928692638874053955078125</LongitudeDegrees>
            </Position>
            <AltitudeMeters>76.1999969482421875</AltitudeMeters>
            <DistanceMeters>NAN</DistanceMeters>
          </Trackpoint>
          <Trackpoint>
            <Time>2022-07-11T19:02:13.000Z</Time>
            <Position>
              <LatitudeDegrees>43.2440045289695262908935546875</LatitudeDegrees>
              <LongitudeDegrees>-2.90361799299716949462890625</LongitudeDegrees>
            </Position>
            <AltitudeMeters>76</AltitudeMeters>
            <DistanceMeters>NAN</DistanceMeters>
          </Trackpoint>
          <Trackpoint>
            <Time>2022-07-11T19:02:15.000Z</Time>
            <Position>
              <LatitudeDegrees>43.24407720007002353668212890625</LatitudeDegrees>
              <LongitudeDegrees>-2.9037901572883129119873046875</LongitudeDegrees>
            </Position>
            <AltitudeMeters>75.1999969482421875</AltitudeMeters>
            <DistanceMeters>NAN</DistanceMeters>
          </Trackpoint>
          <Trackpoint>
            <Time>2022-07-11T19:02:18.000Z</Time>
            <Position>
              <LatitudeDegrees>43.24420611374080181121826171875</LatitudeDegrees>
              <LongitudeDegrees>-2.90406525135040283203125</LongitudeDegrees>
            </Position>
            <AltitudeMeters>73.8000030517578125</AltitudeMeters>
            <DistanceMeters>NAN</DistanceMeters>
          </Trackpoint>
          <Trackpoint>
            <Time>2022-07-11T19:02:20.000Z</Time>
            <Position>
              <LatitudeDegrees>43.24431491084396839141845703125</LatitudeDegrees>
              <LongitudeDegrees>-2.90426264517009258270263671875</LongitudeDegrees>
            </Position>
            <AltitudeMeters>72</AltitudeMeters>
            <DistanceMeters>NAN</DistanceMeters>
          </Trackpoint>
          <Trackpoint>
            <Time>2022-07-11T19:02:22.000Z</Time>
            <Position>
              <LatitudeDegrees>43.24442647397518157958984375</LatitudeDegrees>
              <LongitudeDegrees>-2.9044690914452075958251953125</LongitudeDegrees>
            </Position>
            <AltitudeMeters>70.8000030517578125</AltitudeMeters>
            <DistanceMeters>NAN</DistanceMeters>
          </Trackpoint>
          <Trackpoint>
            <Time>2022-07-11T19:02:23.000Z</Time>
            <Position>
              <LatitudeDegrees>43.24448087252676486968994140625</LatitudeDegrees>
              <LongitudeDegrees>-2.9045783914625644683837890625</LongitudeDegrees>
            </Position>
            <AltitudeMeters>70.40000152587890625</AltitudeMeters>
            <DistanceMeters>NAN</DistanceMeters>
          </Trackpoint>
          <Trackpoint>
            <Time>2022-07-11T19:02:24.000Z</Time>
            <Position>
              <LatitudeDegrees>43.24453384615480899810791015625</LatitudeDegrees>
              <LongitudeDegrees>-2.90468693710863590240478515625</LongitudeDegrees>
            </Position>
            <AltitudeMeters>69.8000030517578125</AltitudeMeters>
            <DistanceMeters>NAN</DistanceMeters>
          </Trackpoint>
          <Trackpoint>
            <Time>2022-07-11T19:02:26.000Z</Time>
            <Position>
              <LatitudeDegrees>43.24463040567934513092041015625</LatitudeDegrees>
              <LongitudeDegrees>-2.904917858541011810302734375</LongitudeDegrees>
            </Position>
            <AltitudeMeters>68.1999969482421875</AltitudeMeters>
            <DistanceMeters>NAN</DistanceMeters>
          </Trackpoint>
          <Trackpoint>
            <Time>2022-07-11T19:02:28.000Z</Time>
            <Position>
              <LatitudeDegrees>43.24471925385296344757080078125</LatitudeDegrees>
              <LongitudeDegrees>-2.90517141111195087432861328125</LongitudeDegrees>
            </Position>
            <AltitudeMeters>67.1999969482421875</AltitudeMeters>
            <DistanceMeters>NAN</DistanceMeters>
          </Trackpoint>
          <Trackpoint>
            <Time>2022-07-11T19:02:30.000Z</Time>
            <Position>
              <LatitudeDegrees>43.24480894021689891815185546875</LatitudeDegrees>
              <LongitudeDegrees>-2.90542454458773136138916015625</LongitudeDegrees>
            </Position>
            <AltitudeMeters>65.40000152587890625</AltitudeMeters>
            <DistanceMeters>NAN</DistanceMeters>
          </Trackpoint>
          <Trackpoint>
            <Time>2022-07-11T19:02:31.000Z</Time>
            <Position>
              <LatitudeDegrees>43.24486459605395793914794921875</LatitudeDegrees>
              <LongitudeDegrees>-2.905547507107257843017578125</LongitudeDegrees>
            </Position>
            <AltitudeMeters>64.40000152587890625</AltitudeMeters>
            <DistanceMeters>NAN</DistanceMeters>
          </Trackpoint>
          <Trackpoint>
            <Time>2022-07-11T19:02:32.000Z</Time>
            <Position>
              <LatitudeDegrees>43.2449372671544551849365234375</LatitudeDegrees>
              <LongitudeDegrees>-2.9056579805910587310791015625</LongitudeDegrees>
            </Position>
            <AltitudeMeters>63.40000152587890625</AltitudeMeters>
            <DistanceMeters>NAN</DistanceMeters>
          </Trackpoint>
          <Trackpoint>
            <Time>2022-07-11T19:02:33.000Z</Time>
            <Position>
              <LatitudeDegrees>43.24502603150904178619384765625</LatitudeDegrees>
              <LongitudeDegrees>-2.90574624203145503997802734375</LongitudeDegrees>
            </Position>
            <AltitudeMeters>62.59999847412109375</AltitudeMeters>
            <DistanceMeters>NAN</DistanceMeters>
          </Trackpoint>
          <Trackpoint>
            <Time>2022-07-11T19:02:34.000Z</Time>
            <Position>
              <LatitudeDegrees>43.2451263628900051116943359375</LatitudeDegrees>
              <LongitudeDegrees>-2.90580910630524158477783203125</LongitudeDegrees>
            </Position>
            <AltitudeMeters>61.200000762939453125</AltitudeMeters>
            <DistanceMeters>NAN</DistanceMeters>
          </Trackpoint>
          <Trackpoint>
            <Time>2022-07-11T19:02:35.000Z</Time>
            <Position>
              <LatitudeDegrees>43.24522770009934902191162109375</LatitudeDegrees>
              <LongitudeDegrees>-2.90584397502243518829345703125</LongitudeDegrees>
            </Position>
            <AltitudeMeters>60.59999847412109375</AltitudeMeters>
            <DistanceMeters>NAN</DistanceMeters>
          </Trackpoint>
          <Trackpoint>
            <Time>2022-07-11T19:02:36.000Z</Time>
            <Position>
              <LatitudeDegrees>43.24532442726194858551025390625</LatitudeDegrees>
              <LongitudeDegrees>-2.90587130002677440643310546875</LongitudeDegrees>
            </Position>
            <AltitudeMeters>59.59999847412109375</AltitudeMeters>
            <DistanceMeters>NAN</DistanceMeters>
          </Trackpoint>
          <Trackpoint>
            <Time>2022-07-11T19:02:38.000Z</Time>
            <Position>
              <LatitudeDegrees>43.245507068932056427001953125</LatitudeDegrees>
              <LongitudeDegrees>-2.905908264219760894775390625</LongitudeDegrees>
            </Position>
            <AltitudeMeters>58.59999847412109375</AltitudeMeters>
            <DistanceMeters>NAN</DistanceMeters>
          </Trackpoint>
          <Trackpoint>
            <Time>2022-07-11T19:02:39.000Z</Time>
            <Position>
              <LatitudeDegrees>43.24557186104357242584228515625</LatitudeDegrees>
              <LongitudeDegrees>-2.90592201054096221923828125</LongitudeDegrees>
            </Position>
            <AltitudeMeters>58.40000152587890625</AltitudeMeters>
            <DistanceMeters>NAN</DistanceMeters>
          </Trackpoint>
          <Trackpoint>
            <Time>2022-07-11T19:02:41.000Z</Time>
            <Position>
              <LatitudeDegrees>43.245728351175785064697265625</LatitudeDegrees>
              <LongitudeDegrees>-2.90595394559204578399658203125</LongitudeDegrees>
            </Position>
            <AltitudeMeters>57.59999847412109375</AltitudeMeters>
            <DistanceMeters>NAN</DistanceMeters>
          </Trackpoint>
          <Trackpoint>
            <Time>2022-07-11T19:02:43.000Z</Time>
            <Position>
              <LatitudeDegrees>43.245854414999485015869140625</LatitudeDegrees>
              <LongitudeDegrees>-2.90597439743578433990478515625</LongitudeDegrees>
            </Position>
            <AltitudeMeters>57.200000762939453125</AltitudeMeters>
            <DistanceMeters>NAN</DistanceMeters>
          </Trackpoint>
          <Trackpoint>
            <Time>2022-07-11T19:02:46.000Z</Time>
            <Position>
              <LatitudeDegrees>43.24603035114705562591552734375</LatitudeDegrees>
              <LongitudeDegrees>-2.906002141535282135009765625</LongitudeDegrees>
            </Position>
            <AltitudeMeters>56.200000762939453125</AltitudeMeters>
            <DistanceMeters>NAN</DistanceMeters>
          </Trackpoint>
          <Trackpoint>
            <Time>2022-07-11T19:02:49.000Z</Time>
            <Position>
              <LatitudeDegrees>43.24621257372200489044189453125</LatitudeDegrees>
              <LongitudeDegrees>-2.9060324840247631072998046875</LongitudeDegrees>
            </Position>
            <AltitudeMeters>55.59999847412109375</AltitudeMeters>
            <DistanceMeters>NAN</DistanceMeters>
          </Trackpoint>
          <Trackpoint>
            <Time>2022-07-11T19:02:51.000Z</Time>
            <Position>
              <LatitudeDegrees>43.24633277021348476409912109375</LatitudeDegrees>
              <LongitudeDegrees>-2.90599987842142581939697265625</LongitudeDegrees>
            </Position>
            <AltitudeMeters>55</AltitudeMeters>
            <DistanceMeters>NAN</DistanceMeters>
          </Trackpoint>
          <Trackpoint>
            <Time>2022-07-11T19:02:52.000Z</Time>
            <Position>
              <LatitudeDegrees>43.246394209563732147216796875</LatitudeDegrees>
              <LongitudeDegrees>-2.90599568746984004974365234375</LongitudeDegrees>
            </Position>
            <AltitudeMeters>55</AltitudeMeters>
            <DistanceMeters>NAN</DistanceMeters>
          </Trackpoint>
          <Trackpoint>
            <Time>2022-07-11T19:02:53.000Z</Time>
            <Position>
              <LatitudeDegrees>43.2464517094194889068603515625</LatitudeDegrees>
              <LongitudeDegrees>-2.90601320564746856689453125</LongitudeDegrees>
            </Position>
            <AltitudeMeters>54.799999237060546875</AltitudeMeters>
            <DistanceMeters>NAN</DistanceMeters>
          </Trackpoint>
          <Trackpoint>
            <Time>2022-07-11T19:02:54.000Z</Time>
            <Position>
              <LatitudeDegrees>43.24650493450462818145751953125</LatitudeDegrees>
              <LongitudeDegrees>-2.906045727431774139404296875</LongitudeDegrees>
            </Position>
            <AltitudeMeters>54.59999847412109375</AltitudeMeters>
            <DistanceMeters>NAN</DistanceMeters>
          </Trackpoint>
          <Trackpoint>
            <Time>2022-07-11T19:02:57.000Z</Time>
            <Position>
              <LatitudeDegrees>43.246649689972400665283203125</LatitudeDegrees>
              <LongitudeDegrees>-2.90616516955196857452392578125</LongitudeDegrees>
            </Position>
            <AltitudeMeters>54.40000152587890625</AltitudeMeters>
            <DistanceMeters>NAN</DistanceMeters>
          </Trackpoint>
          <Trackpoint>
            <Time>2022-07-11T19:03:01.000Z</Time>
            <Position>
              <LatitudeDegrees>43.24684792198240756988525390625</LatitudeDegrees>
              <LongitudeDegrees>-2.90623256005346775054931640625</LongitudeDegrees>
            </Position>
            <AltitudeMeters>54.200000762939453125</AltitudeMeters>
            <DistanceMeters>NAN</DistanceMeters>
          </Trackpoint>
          <Trackpoint>
            <Time>2022-07-11T19:03:02.000Z</Time>
            <Position>
              <LatitudeDegrees>43.24688899330794811248779296875</LatitudeDegrees>
              <LongitudeDegrees>-2.90625720284879207611083984375</LongitudeDegrees>
            </Position>
            <AltitudeMeters>54.200000762939453125</AltitudeMeters>
            <DistanceMeters>NAN</DistanceMeters>
          </Trackpoint>
          <Trackpoint>
            <Time>2022-07-11T19:03:06.000Z</Time>
            <Position>
              <LatitudeDegrees>43.24704975821077823638916015625</LatitudeDegrees>
              <LongitudeDegrees>-2.906407155096530914306640625</LongitudeDegrees>
            </Position>
            <AltitudeMeters>54</AltitudeMeters>
            <DistanceMeters>NAN</DistanceMeters>
          </Trackpoint>
          <Trackpoint>
            <Time>2022-07-11T19:03:07.000Z</Time>
            <Position>
              <LatitudeDegrees>43.247077167034149169921875</LatitudeDegrees>
              <LongitudeDegrees>-2.90645870380103588104248046875</LongitudeDegrees>
            </Position>
            <AltitudeMeters>53.799999237060546875</AltitudeMeters>
            <DistanceMeters>NAN</DistanceMeters>
          </Trackpoint>
          <Trackpoint>
            <Time>2022-07-11T19:03:08.000Z</Time>
            <Position>
              <LatitudeDegrees>43.2470984570682048797607421875</LatitudeDegrees>
              <LongitudeDegrees>-2.9065162874758243560791015625</LongitudeDegrees>
            </Position>
            <AltitudeMeters>53.799999237060546875</AltitudeMeters>
            <DistanceMeters>NAN</DistanceMeters>
          </Trackpoint>
          <Trackpoint>
            <Time>2022-07-11T19:03:10.000Z</Time>
            <Position>
              <LatitudeDegrees>43.2471225969493389129638671875</LatitudeDegrees>
              <LongitudeDegrees>-2.90662751533091068267822265625</LongitudeDegrees>
            </Position>
            <AltitudeMeters>53.59999847412109375</AltitudeMeters>
            <DistanceMeters>NAN</DistanceMeters>
          </Trackpoint>
          <Trackpoint>
            <Time>2022-07-11T19:03:11.000Z</Time>
            <Position>
              <LatitudeDegrees>43.24713206849992275238037109375</LatitudeDegrees>
              <LongitudeDegrees>-2.90668820030987262725830078125</LongitudeDegrees>
            </Position>
            <AltitudeMeters>53.59999847412109375</AltitudeMeters>
            <DistanceMeters>NAN</DistanceMeters>
          </Trackpoint>
          <Trackpoint>
            <Time>2022-07-11T19:03:19.000Z</Time>
            <Position>
              <LatitudeDegrees>43.24713952839374542236328125</LatitudeDegrees>
              <LongitudeDegrees>-2.90720410645008087158203125</LongitudeDegrees>
            </Position>
            <AltitudeMeters>54.200000762939453125</AltitudeMeters>
            <DistanceMeters>NAN</DistanceMeters>
          </Trackpoint>
          <Trackpoint>
            <Time>2022-07-11T19:03:21.000Z</Time>
            <Position>
              <LatitudeDegrees>43.24713290669023990631103515625</LatitudeDegrees>
              <LongitudeDegrees>-2.9073004983365535736083984375</LongitudeDegrees>
            </Position>
            <AltitudeMeters>54.200000762939453125</AltitudeMeters>
            <DistanceMeters>NAN</DistanceMeters>
          </Trackpoint>
          <Trackpoint>
            <Time>2022-07-11T19:03:24.000Z</Time>
            <Position>
              <LatitudeDegrees>43.2471162267029285430908203125</LatitudeDegrees>
              <LongitudeDegrees>-2.90746553801000118255615234375</LongitudeDegrees>
            </Position>
            <AltitudeMeters>54</AltitudeMeters>
            <DistanceMeters>NAN</DistanceMeters>
          </Trackpoint>
          <Trackpoint>
            <Time>2022-07-11T19:03:25.000Z</Time>
            <Position>
              <LatitudeDegrees>43.2471148855984210968017578125</LatitudeDegrees>
              <LongitudeDegrees>-2.90751398541033267974853515625</LongitudeDegrees>
            </Position>
            <AltitudeMeters>54</AltitudeMeters>
            <DistanceMeters>NAN</DistanceMeters>
          </Trackpoint>
          <Trackpoint>
            <Time>2022-07-11T19:03:29.000Z</Time>
            <Position>
              <LatitudeDegrees>43.247082866728305816650390625</LatitudeDegrees>
              <LongitudeDegrees>-2.9076736606657505035400390625</LongitudeDegrees>
            </Position>
            <AltitudeMeters>54</AltitudeMeters>
            <DistanceMeters>NAN</DistanceMeters>
          </Trackpoint>
          <Trackpoint>
            <Time>2022-07-11T19:03:33.000Z</Time>
            <Position>
              <LatitudeDegrees>43.2470324076712131500244140625</LatitudeDegrees>
              <LongitudeDegrees>-2.90790910832583904266357421875</LongitudeDegrees>
            </Position>
            <AltitudeMeters>54.200000762939453125</AltitudeMeters>
            <DistanceMeters>NAN</DistanceMeters>
          </Trackpoint>
          <Trackpoint>
            <Time>2022-07-11T19:03:41.000Z</Time>
            <Position>
              <LatitudeDegrees>43.24686887674033641815185546875</LatitudeDegrees>
              <LongitudeDegrees>-2.908245138823986053466796875</LongitudeDegrees>
            </Position>
            <AltitudeMeters>54.40000152587890625</AltitudeMeters>
            <DistanceMeters>NAN</DistanceMeters>
          </Trackpoint>
          <Trackpoint>
            <Time>2022-07-11T19:03:45.000Z</Time>
            <Position>
              <LatitudeDegrees>43.24670794419944286346435546875</LatitudeDegrees>
              <LongitudeDegrees>-2.90829936973750591278076171875</LongitudeDegrees>
            </Position>
            <AltitudeMeters>55</AltitudeMeters>
            <DistanceMeters>NAN</DistanceMeters>
          </Trackpoint>
          <Trackpoint>
            <Time>2022-07-11T19:03:49.000Z</Time>
            <Position>
              <LatitudeDegrees>43.24651448987424373626708984375</LatitudeDegrees>
              <LongitudeDegrees>-2.90832996368408203125</LongitudeDegrees>
            </Position>
            <AltitudeMeters>55</AltitudeMeters>
            <DistanceMeters>NAN</DistanceMeters>
          </Trackpoint>
          <Trackpoint>
            <Time>2022-07-11T19:03:50.000Z</Time>
            <Position>
              <LatitudeDegrees>43.246465623378753662109375</LatitudeDegrees>
              <LongitudeDegrees>-2.90837145410478115081787109375</LongitudeDegrees>
            </Position>
            <AltitudeMeters>55.200000762939453125</AltitudeMeters>
            <DistanceMeters>NAN</DistanceMeters>
          </Trackpoint>
          <Trackpoint>
            <Time>2022-07-11T19:03:51.000Z</Time>
            <Position>
              <LatitudeDegrees>43.24640368111431598663330078125</LatitudeDegrees>
              <LongitudeDegrees>-2.90844420902431011199951171875</LongitudeDegrees>
            </Position>
            <AltitudeMeters>55.200000762939453125</AltitudeMeters>
            <DistanceMeters>NAN</DistanceMeters>
          </Trackpoint>
          <Trackpoint>
            <Time>2022-07-11T19:03:53.000Z</Time>
            <Position>
              <LatitudeDegrees>43.24635691009461879730224609375</LatitudeDegrees>
              <LongitudeDegrees>-2.90861151181161403656005859375</LongitudeDegrees>
            </Position>
            <AltitudeMeters>55.200000762939453125</AltitudeMeters>
            <DistanceMeters>NAN</DistanceMeters>
          </Trackpoint>
          <Trackpoint>
            <Time>2022-07-11T19:03:56.000Z</Time>
            <Position>
              <LatitudeDegrees>43.2463859952986240386962890625</LatitudeDegrees>
              <LongitudeDegrees>-2.9088303633034229278564453125</LongitudeDegrees>
            </Position>
            <AltitudeMeters>55.200000762939453125</AltitudeMeters>
            <DistanceMeters>NAN</DistanceMeters>
          </Trackpoint>
          <Trackpoint>
            <Time>2022-07-11T19:03:59.000Z</Time>
            <Position>
              <LatitudeDegrees>43.24632589705288410186767578125</LatitudeDegrees>
              <LongitudeDegrees>-2.90900445543229579925537109375</LongitudeDegrees>
            </Position>
            <AltitudeMeters>55</AltitudeMeters>
            <DistanceMeters>NAN</DistanceMeters>
          </Trackpoint>
          <Trackpoint>
            <Time>2022-07-11T19:04:00.000Z</Time>
            <Position>
              <LatitudeDegrees>43.246307708323001861572265625</LatitudeDegrees>
              <LongitudeDegrees>-2.90906128473579883575439453125</LongitudeDegrees>
            </Position>
            <AltitudeMeters>55</AltitudeMeters>
            <DistanceMeters>NAN</DistanceMeters>
          </Trackpoint>
          <Trackpoint>
            <Time>2022-07-11T19:04:01.000Z</Time>
            <Position>
              <LatitudeDegrees>43.24629287235438823699951171875</LatitudeDegrees>
              <LongitudeDegrees>-2.909131608903408050537109375</LongitudeDegrees>
            </Position>
            <AltitudeMeters>54.799999237060546875</AltitudeMeters>
            <DistanceMeters>NAN</DistanceMeters>
          </Trackpoint>
          <Trackpoint>
            <Time>2022-07-11T19:04:03.000Z</Time>
            <Position>
              <LatitudeDegrees>43.2462602667510509490966796875</LatitudeDegrees>
              <LongitudeDegrees>-2.90928273461759090423583984375</LongitudeDegrees>
            </Position>
            <AltitudeMeters>54.799999237060546875</AltitudeMeters>
            <DistanceMeters>NAN</DistanceMeters>
          </Trackpoint>
          <Trackpoint>
            <Time>2022-07-11T19:04:05.000Z</Time>
            <Position>
              <LatitudeDegrees>43.246406279504299163818359375</LatitudeDegrees>
              <LongitudeDegrees>-2.9094352014362812042236328125</LongitudeDegrees>
            </Position>
            <AltitudeMeters>54.40000152587890625</AltitudeMeters>
            <DistanceMeters>NAN</DistanceMeters>
          </Trackpoint>
          <Trackpoint>
            <Time>2022-07-11T19:04:07.000Z</Time>
            <Position>
              <LatitudeDegrees>43.2463462650775909423828125</LatitudeDegrees>
              <LongitudeDegrees>-2.9095850698649883270263671875</LongitudeDegrees>
            </Position>
            <AltitudeMeters>54</AltitudeMeters>
            <DistanceMeters>NAN</DistanceMeters>
          </Trackpoint>
          <Trackpoint>
            <Time>2022-07-11T19:04:09.000Z</Time>
            <Position>
              <LatitudeDegrees>43.24630695395171642303466796875</LatitudeDegrees>
              <LongitudeDegrees>-2.90973745286464691162109375</LongitudeDegrees>
            </Position>
            <AltitudeMeters>53.799999237060546875</AltitudeMeters>
            <DistanceMeters>NAN</DistanceMeters>
          </Trackpoint>
          <Trackpoint>
            <Time>2022-07-11T19:04:13.000Z</Time>
            <Position>
              <LatitudeDegrees>43.24627577327191829681396484375</LatitudeDegrees>
              <LongitudeDegrees>-2.910037524998188018798828125</LongitudeDegrees>
            </Position>
            <AltitudeMeters>53.59999847412109375</AltitudeMeters>
            <DistanceMeters>NAN</DistanceMeters>
          </Trackpoint>
          <Trackpoint>
            <Time>2022-07-11T19:04:16.000Z</Time>
            <Position>
              <LatitudeDegrees>43.246260099112987518310546875</LatitudeDegrees>
              <LongitudeDegrees>-2.910270877182483673095703125</LongitudeDegrees>
            </Position>
            <AltitudeMeters>53.200000762939453125</AltitudeMeters>
            <DistanceMeters>NAN</DistanceMeters>
          </Trackpoint>
          <Trackpoint>
            <Time>2022-07-11T19:04:18.000Z</Time>
            <Position>
              <LatitudeDegrees>43.24624811299145221710205078125</LatitudeDegrees>
              <LongitudeDegrees>-2.91041680611670017242431640625</LongitudeDegrees>
            </Position>
            <AltitudeMeters>53</AltitudeMeters>
            <DistanceMeters>NAN</DistanceMeters>
          </Trackpoint>
          <Trackpoint>
            <Time>2022-07-11T19:04:22.000Z</Time>
            <Position>
              <LatitudeDegrees>43.24624191038310527801513671875</LatitudeDegrees>
              <LongitudeDegrees>-2.9105929099023342132568359375</LongitudeDegrees>
            </Position>
            <AltitudeMeters>51.799999237060546875</AltitudeMeters>
            <DistanceMeters>NAN</DistanceMeters>
          </Trackpoint>
          <Trackpoint>
            <Time>2022-07-11T19:04:26.000Z</Time>
            <Position>
              <LatitudeDegrees>43.24624090455472469329833984375</LatitudeDegrees>
              <LongitudeDegrees>-2.91062685661017894744873046875</LongitudeDegrees>
            </Position>
            <AltitudeMeters>51.40000152587890625</AltitudeMeters>
            <DistanceMeters>NAN</DistanceMeters>
          </Trackpoint>
          <Trackpoint>
            <Time>2022-07-11T19:04:30.000Z</Time>
            <Position>
              <LatitudeDegrees>43.24625733308494091033935546875</LatitudeDegrees>
              <LongitudeDegrees>-2.9106958396732807159423828125</LongitudeDegrees>
            </Position>
            <AltitudeMeters>51.40000152587890625</AltitudeMeters>
            <DistanceMeters>NAN</DistanceMeters>
          </Trackpoint>
          <Trackpoint>
            <Time>2022-07-11T19:04:32.000Z</Time>
            <Position>
              <LatitudeDegrees>43.24627376161515712738037109375</LatitudeDegrees>
              <LongitudeDegrees>-2.91078058071434497833251953125</LongitudeDegrees>
            </Position>
            <AltitudeMeters>51.59999847412109375</AltitudeMeters>
            <DistanceMeters>NAN</DistanceMeters>
          </Trackpoint>
          <Trackpoint>
            <Time>2022-07-11T19:04:37.000Z</Time>
            <Position>
              <LatitudeDegrees>43.2462639547884464263916015625</LatitudeDegrees>
              <LongitudeDegrees>-2.9111020267009735107421875</LongitudeDegrees>
            </Position>
            <AltitudeMeters>51.799999237060546875</AltitudeMeters>
            <DistanceMeters>NAN</DistanceMeters>
          </Trackpoint>
          <Trackpoint>
            <Time>2022-07-11T19:04:45.000Z</Time>
            <Position>
              <LatitudeDegrees>43.2462357915937900543212890625</LatitudeDegrees>
              <LongitudeDegrees>-2.911690771579742431640625</LongitudeDegrees>
            </Position>
            <AltitudeMeters>51.40000152587890625</AltitudeMeters>
            <DistanceMeters>NAN</DistanceMeters>
          </Trackpoint>
          <Trackpoint>
            <Time>2022-07-11T19:04:54.000Z</Time>
            <Position>
              <LatitudeDegrees>43.2462014257907867431640625</LatitudeDegrees>
              <LongitudeDegrees>-2.91240432299673557281494140625</LongitudeDegrees>
            </Position>
            <AltitudeMeters>50.799999237060546875</AltitudeMeters>
            <DistanceMeters>NAN</DistanceMeters>
          </Trackpoint>
          <Trackpoint>
            <Time>2022-07-11T19:04:56.000Z</Time>
            <Position>
              <LatitudeDegrees>43.24618876911699771881103515625</LatitudeDegrees>
              <LongitudeDegrees>-2.91256047785282135009765625</LongitudeDegrees>
            </Position>
            <AltitudeMeters>50.799999237060546875</AltitudeMeters>
            <DistanceMeters>NAN</DistanceMeters>
          </Trackpoint>
          <Trackpoint>
            <Time>2022-07-11T19:05:03.000Z</Time>
            <Position>
              <LatitudeDegrees>43.24617133475840091705322265625</LatitudeDegrees>
              <LongitudeDegrees>-2.91313287802040576934814453125</LongitudeDegrees>
            </Position>
            <AltitudeMeters>50.40000152587890625</AltitudeMeters>
            <DistanceMeters>NAN</DistanceMeters>
          </Trackpoint>
          <Trackpoint>
            <Time>2022-07-11T19:05:06.000Z</Time>
            <Position>
              <LatitudeDegrees>43.24615457095205783843994140625</LatitudeDegrees>
              <LongitudeDegrees>-2.91337075643241405487060546875</LongitudeDegrees>
            </Position>
            <AltitudeMeters>49.799999237060546875</AltitudeMeters>
            <DistanceMeters>NAN</DistanceMeters>
          </Trackpoint>
          <Trackpoint>
            <Time>2022-07-11T19:05:07.000Z</Time>
            <Position>
              <LatitudeDegrees>43.24614887125790119171142578125</LatitudeDegrees>
              <LongitudeDegrees>-2.91345340199768543243408203125</LongitudeDegrees>
            </Position>
            <AltitudeMeters>49.59999847412109375</AltitudeMeters>
            <DistanceMeters>NAN</DistanceMeters>
          </Trackpoint>
          <Trackpoint>
            <Time>2022-07-11T19:05:13.000Z</Time>
            <Position>
              <LatitudeDegrees>43.246123977005481719970703125</LatitudeDegrees>
              <LongitudeDegrees>-2.91394089348614215850830078125</LongitudeDegrees>
            </Position>
            <AltitudeMeters>49.40000152587890625</AltitudeMeters>
            <DistanceMeters>NAN</DistanceMeters>
          </Trackpoint>
          <Trackpoint>
            <Time>2022-07-11T19:05:18.000Z</Time>
            <Position>
              <LatitudeDegrees>43.24605314992368221282958984375</LatitudeDegrees>
              <LongitudeDegrees>-2.9143325798213481903076171875</LongitudeDegrees>
            </Position>
            <AltitudeMeters>49.200000762939453125</AltitudeMeters>
            <DistanceMeters>NAN</DistanceMeters>
          </Trackpoint>
          <Trackpoint>
            <Time>2022-07-11T19:05:19.000Z</Time>
            <Position>
              <LatitudeDegrees>43.24603311717510223388671875</LatitudeDegrees>
              <LongitudeDegrees>-2.914406843483448028564453125</LongitudeDegrees>
            </Position>
            <AltitudeMeters>49.200000762939453125</AltitudeMeters>
            <DistanceMeters>NAN</DistanceMeters>
          </Trackpoint>
          <Trackpoint>
            <Time>2022-07-11T19:05:24.000Z</Time>
            <Position>
              <LatitudeDegrees>43.24593530036509037017822265625</LatitudeDegrees>
              <LongitudeDegrees>-2.91477204300463199615478515625</LongitudeDegrees>
            </Position>
            <AltitudeMeters>49</AltitudeMeters>
            <DistanceMeters>NAN</DistanceMeters>
          </Trackpoint>
          <Trackpoint>
            <Time>2022-07-11T19:05:27.000Z</Time>
            <Position>
              <LatitudeDegrees>43.24585567228496074676513671875</LatitudeDegrees>
              <LongitudeDegrees>-2.9149719513952732086181640625</LongitudeDegrees>
            </Position>
            <AltitudeMeters>48.799999237060546875</AltitudeMeters>
            <DistanceMeters>NAN</DistanceMeters>
          </Trackpoint>
          <Trackpoint>
            <Time>2022-07-11T19:05:31.000Z</Time>
            <Position>
              <LatitudeDegrees>43.24572608806192874908447265625</LatitudeDegrees>
              <LongitudeDegrees>-2.91521854698657989501953125</LongitudeDegrees>
            </Position>
            <AltitudeMeters>48.59999847412109375</AltitudeMeters>
            <DistanceMeters>NAN</DistanceMeters>
          </Trackpoint>
          <Trackpoint>
            <Time>2022-07-11T19:05:35.000Z</Time>
            <Position>
              <LatitudeDegrees>43.2455836795270442962646484375</LatitudeDegrees>
              <LongitudeDegrees>-2.91544946841895580291748046875</LongitudeDegrees>
            </Position>
            <AltitudeMeters>48.40000152587890625</AltitudeMeters>
            <DistanceMeters>NAN</DistanceMeters>
          </Trackpoint>
          <Trackpoint>
            <Time>2022-07-11T19:05:43.000Z</Time>
            <Position>
              <LatitudeDegrees>43.24526089243590831756591796875</LatitudeDegrees>
              <LongitudeDegrees>-2.91583352722227573394775390625</LongitudeDegrees>
            </Position>
            <AltitudeMeters>48.200000762939453125</AltitudeMeters>
            <DistanceMeters>NAN</DistanceMeters>
          </Trackpoint>
          <Trackpoint>
            <Time>2022-07-11T19:05:53.000Z</Time>
            <Position>
              <LatitudeDegrees>43.244876749813556671142578125</LatitudeDegrees>
              <LongitudeDegrees>-2.91634314693510532379150390625</LongitudeDegrees>
            </Position>
            <AltitudeMeters>48.40000152587890625</AltitudeMeters>
            <DistanceMeters>NAN</DistanceMeters>
          </Trackpoint>
          <Trackpoint>
            <Time>2022-07-11T19:05:59.000Z</Time>
            <Position>
              <LatitudeDegrees>43.24468002654612064361572265625</LatitudeDegrees>
              <LongitudeDegrees>-2.9166553728282451629638671875</LongitudeDegrees>
            </Position>
            <AltitudeMeters>48.200000762939453125</AltitudeMeters>
            <DistanceMeters>NAN</DistanceMeters>
          </Trackpoint>
          <Trackpoint>
            <Time>2022-07-11T19:06:10.000Z</Time>
            <Position>
              <LatitudeDegrees>43.24435983784496784210205078125</LatitudeDegrees>
              <LongitudeDegrees>-2.91726431809365749359130859375</LongitudeDegrees>
            </Position>
            <AltitudeMeters>48.200000762939453125</AltitudeMeters>
            <DistanceMeters>NAN</DistanceMeters>
          </Trackpoint>
          <Trackpoint>
            <Time>2022-07-11T19:06:16.000Z</Time>
            <Position>
              <LatitudeDegrees>43.24418415315449237823486328125</LatitudeDegrees>
              <LongitudeDegrees>-2.9175160266458988189697265625</LongitudeDegrees>
            </Position>
            <AltitudeMeters>48</AltitudeMeters>
            <DistanceMeters>NAN</DistanceMeters>
          </Trackpoint>
          <Trackpoint>
            <Time>2022-07-11T19:06:20.000Z</Time>
            <Position>
              <LatitudeDegrees>43.244135789573192596435546875</LatitudeDegrees>
              <LongitudeDegrees>-2.917637564241886138916015625</LongitudeDegrees>
            </Position>
            <AltitudeMeters>48.200000762939453125</AltitudeMeters>
            <DistanceMeters>NAN</DistanceMeters>
          </Trackpoint>
          <Trackpoint>
            <Time>2022-07-11T19:06:23.000Z</Time>
            <Position>
              <LatitudeDegrees>43.2441369630396366119384765625</LatitudeDegrees>
              <LongitudeDegrees>-2.91764586232602596282958984375</LongitudeDegrees>
            </Position>
            <AltitudeMeters>48.200000762939453125</AltitudeMeters>
            <DistanceMeters>NAN</DistanceMeters>
          </Trackpoint>
          <Trackpoint>
            <Time>2022-07-11T19:06:27.000Z</Time>
            <Position>
              <LatitudeDegrees>43.2441302575170993804931640625</LatitudeDegrees>
              <LongitudeDegrees>-2.91769145987927913665771484375</LongitudeDegrees>
            </Position>
            <AltitudeMeters>48.200000762939453125</AltitudeMeters>
            <DistanceMeters>NAN</DistanceMeters>
          </Trackpoint>
          <Trackpoint>
            <Time>2022-07-11T19:06:29.000Z</Time>
            <Position>
              <LatitudeDegrees>43.24410117231309413909912109375</LatitudeDegrees>
              <LongitudeDegrees>-2.9177316091954708099365234375</LongitudeDegrees>
            </Position>
            <AltitudeMeters>48.40000152587890625</AltitudeMeters>
            <DistanceMeters>NAN</DistanceMeters>
          </Trackpoint>
          <Trackpoint>
            <Time>2022-07-11T19:06:34.000Z</Time>
            <Position>
              <LatitudeDegrees>43.24393185786902904510498046875</LatitudeDegrees>
              <LongitudeDegrees>-2.91781215928494930267333984375</LongitudeDegrees>
            </Position>
            <AltitudeMeters>48.200000762939453125</AltitudeMeters>
            <DistanceMeters>NAN</DistanceMeters>
          </Trackpoint>
          <Trackpoint>
            <Time>2022-07-11T19:06:35.000Z</Time>
            <Position>
              <LatitudeDegrees>43.24388307519257068634033203125</LatitudeDegrees>
              <LongitudeDegrees>-2.91783411987125873565673828125</LongitudeDegrees>
            </Position>
            <AltitudeMeters>48</AltitudeMeters>
            <DistanceMeters>NAN</DistanceMeters>
          </Trackpoint>
          <Trackpoint>
            <Time>2022-07-11T19:06:37.000Z</Time>
            <Position>
              <LatitudeDegrees>43.2437879405915737152099609375</LatitudeDegrees>
              <LongitudeDegrees>-2.9179086349904537200927734375</LongitudeDegrees>
            </Position>
            <AltitudeMeters>47.40000152587890625</AltitudeMeters>
            <DistanceMeters>NAN</DistanceMeters>
          </Trackpoint>
          <Trackpoint>
            <Time>2022-07-11T19:06:38.000Z</Time>
            <Position>
              <LatitudeDegrees>43.243738822638988494873046875</LatitudeDegrees>
              <LongitudeDegrees>-2.9179585911333560943603515625</LongitudeDegrees>
            </Position>
            <AltitudeMeters>47</AltitudeMeters>
            <DistanceMeters>NAN</DistanceMeters>
          </Trackpoint>
          <Trackpoint>
            <Time>2022-07-11T19:06:39.000Z</Time>
            <Position>
              <LatitudeDegrees>43.24369817040860652923583984375</LatitudeDegrees>
              <LongitudeDegrees>-2.91801533661782741546630859375</LongitudeDegrees>
            </Position>
            <AltitudeMeters>46.59999847412109375</AltitudeMeters>
            <DistanceMeters>NAN</DistanceMeters>
          </Trackpoint>
          <Trackpoint>
            <Time>2022-07-11T19:06:41.000Z</Time>
            <Position>
              <LatitudeDegrees>43.2436166144907474517822265625</LatitudeDegrees>
              <LongitudeDegrees>-2.91815062053501605987548828125</LongitudeDegrees>
            </Position>
            <AltitudeMeters>46.200000762939453125</AltitudeMeters>
            <DistanceMeters>NAN</DistanceMeters>
          </Trackpoint>
          <Trackpoint>
            <Time>2022-07-11T19:06:42.000Z</Time>
            <Position>
              <LatitudeDegrees>43.243579231202602386474609375</LatitudeDegrees>
              <LongitudeDegrees>-2.91821650229394435882568359375</LongitudeDegrees>
            </Position>
            <AltitudeMeters>46</AltitudeMeters>
            <DistanceMeters>NAN</DistanceMeters>
          </Trackpoint>
          <Trackpoint>
            <Time>2022-07-11T19:06:47.000Z</Time>
            <Position>
              <LatitudeDegrees>43.24342466890811920166015625</LatitudeDegrees>
              <LongitudeDegrees>-2.9186016507446765899658203125</LongitudeDegrees>
            </Position>
            <AltitudeMeters>45.799999237060546875</AltitudeMeters>
            <DistanceMeters>NAN</DistanceMeters>
          </Trackpoint>
          <Trackpoint>
            <Time>2022-07-11T19:06:48.000Z</Time>
            <Position>
              <LatitudeDegrees>43.2434070669114589691162109375</LatitudeDegrees>
              <LongitudeDegrees>-2.9186873137950897216796875</LongitudeDegrees>
            </Position>
            <AltitudeMeters>45.59999847412109375</AltitudeMeters>
            <DistanceMeters>NAN</DistanceMeters>
          </Trackpoint>
          <Trackpoint>
            <Time>2022-07-11T19:06:53.000Z</Time>
            <Position>
              <LatitudeDegrees>43.24329382739961147308349609375</LatitudeDegrees>
              <LongitudeDegrees>-2.91909978725016117095947265625</LongitudeDegrees>
            </Position>
            <AltitudeMeters>45.200000762939453125</AltitudeMeters>
            <DistanceMeters>NAN</DistanceMeters>
          </Trackpoint>
          <Trackpoint>
            <Time>2022-07-11T19:06:56.000Z</Time>
            <Position>
              <LatitudeDegrees>43.2432206533849239349365234375</LatitudeDegrees>
              <LongitudeDegrees>-2.91932593099772930145263671875</LongitudeDegrees>
            </Position>
            <AltitudeMeters>45</AltitudeMeters>
            <DistanceMeters>NAN</DistanceMeters>
          </Trackpoint>
          <Trackpoint>
            <Time>2022-07-11T19:06:58.000Z</Time>
            <Position>
              <LatitudeDegrees>43.2431624829769134521484375</LatitudeDegrees>
              <LongitudeDegrees>-2.91946188546717166900634765625</LongitudeDegrees>
            </Position>
            <AltitudeMeters>45</AltitudeMeters>
            <DistanceMeters>NAN</DistanceMeters>
          </Trackpoint>
          <Trackpoint>
            <Time>2022-07-11T19:07:04.000Z</Time>
            <Position>
              <LatitudeDegrees>43.2429809309542179107666015625</LatitudeDegrees>
              <LongitudeDegrees>-2.91986103169620037078857421875</LongitudeDegrees>
            </Position>
            <AltitudeMeters>44.40000152587890625</AltitudeMeters>
            <DistanceMeters>NAN</DistanceMeters>
          </Trackpoint>
          <Trackpoint>
            <Time>2022-07-11T19:07:06.000Z</Time>
            <Position>
              <LatitudeDegrees>43.24291580356657505035400390625</LatitudeDegrees>
              <LongitudeDegrees>-2.9199987463653087615966796875</LongitudeDegrees>
            </Position>
            <AltitudeMeters>44</AltitudeMeters>
            <DistanceMeters>NAN</DistanceMeters>
          </Trackpoint>
          <Trackpoint>
            <Time>2022-07-11T19:07:12.000Z</Time>
            <Position>
              <LatitudeDegrees>43.24273291043937206268310546875</LatitudeDegrees>
              <LongitudeDegrees>-2.9203752614557743072509765625</LongitudeDegrees>
            </Position>
            <AltitudeMeters>43.200000762939453125</AltitudeMeters>
            <DistanceMeters>NAN</DistanceMeters>
          </Trackpoint>
          <Trackpoint>
            <Time>2022-07-11T19:07:13.000Z</Time>
            <Position>
              <LatitudeDegrees>43.24271279387176036834716796875</LatitudeDegrees>
              <LongitudeDegrees>-2.92044709436595439910888671875</LongitudeDegrees>
            </Position>
            <AltitudeMeters>43</AltitudeMeters>
            <DistanceMeters>NAN</DistanceMeters>
          </Trackpoint>
          <Trackpoint>
            <Time>2022-07-11T19:07:17.000Z</Time>
            <Position>
              <LatitudeDegrees>43.242659904062747955322265625</LatitudeDegrees>
              <LongitudeDegrees>-2.92073476128280162811279296875</LongitudeDegrees>
            </Position>
            <AltitudeMeters>42.59999847412109375</AltitudeMeters>
            <DistanceMeters>NAN</DistanceMeters>
          </Trackpoint>
          <Trackpoint>
            <Time>2022-07-11T19:07:18.000Z</Time>
            <Position>
              <LatitudeDegrees>43.24264925904572010040283203125</LatitudeDegrees>
              <LongitudeDegrees>-2.9208196699619293212890625</LongitudeDegrees>
            </Position>
            <AltitudeMeters>42.59999847412109375</AltitudeMeters>
            <DistanceMeters>NAN</DistanceMeters>
          </Trackpoint>
          <Trackpoint>
            <Time>2022-07-11T19:07:22.000Z</Time>
            <Position>
              <LatitudeDegrees>43.24265177361667156219482421875</LatitudeDegrees>
              <LongitudeDegrees>-2.92108998633921146392822265625</LongitudeDegrees>
            </Position>
            <AltitudeMeters>42.59999847412109375</AltitudeMeters>
            <DistanceMeters>NAN</DistanceMeters>
          </Trackpoint>
          <Trackpoint>
            <Time>2022-07-11T19:07:25.000Z</Time>
            <Position>
              <LatitudeDegrees>43.2426702976226806640625</LatitudeDegrees>
              <LongitudeDegrees>-2.92128310538828372955322265625</LongitudeDegrees>
            </Position>
            <AltitudeMeters>42.40000152587890625</AltitudeMeters>
            <DistanceMeters>NAN</DistanceMeters>
          </Trackpoint>
          <Trackpoint>
            <Time>2022-07-11T19:07:28.000Z</Time>
            <Position>
              <LatitudeDegrees>43.24270994402468204498291015625</LatitudeDegrees>
              <LongitudeDegrees>-2.92146901600062847137451171875</LongitudeDegrees>
            </Position>
            <AltitudeMeters>42.40000152587890625</AltitudeMeters>
            <DistanceMeters>NAN</DistanceMeters>
          </Trackpoint>
          <Trackpoint>
            <Time>2022-07-11T19:07:36.000Z</Time>
            <Position>
              <LatitudeDegrees>43.24287724681198596954345703125</LatitudeDegrees>
              <LongitudeDegrees>-2.92195784859359264373779296875</LongitudeDegrees>
            </Position>
            <AltitudeMeters>42.40000152587890625</AltitudeMeters>
            <DistanceMeters>NAN</DistanceMeters>
          </Trackpoint>
          <Trackpoint>
            <Time>2022-07-11T19:07:44.000Z</Time>
            <Position>
              <LatitudeDegrees>43.24312132783234119415283203125</LatitudeDegrees>
              <LongitudeDegrees>-2.92235397733747959136962890625</LongitudeDegrees>
            </Position>
            <AltitudeMeters>42.40000152587890625</AltitudeMeters>
            <DistanceMeters>NAN</DistanceMeters>
          </Trackpoint>
          <Trackpoint>
            <Time>2022-07-11T19:07:49.000Z</Time>
            <Position>
              <LatitudeDegrees>43.2433234155178070068359375</LatitudeDegrees>
              <LongitudeDegrees>-2.92254877276718616485595703125</LongitudeDegrees>
            </Position>
            <AltitudeMeters>42.200000762939453125</AltitudeMeters>
            <DistanceMeters>NAN</DistanceMeters>
          </Trackpoint>
          <Trackpoint>
            <Time>2022-07-11T19:07:51.000Z</Time>
            <Position>
              <LatitudeDegrees>43.24341905303299427032470703125</LatitudeDegrees>
              <LongitudeDegrees>-2.9226061888039112091064453125</LongitudeDegrees>
            </Position>
            <AltitudeMeters>42.200000762939453125</AltitudeMeters>
            <DistanceMeters>NAN</DistanceMeters>
          </Trackpoint>
          <Trackpoint>
            <Time>2022-07-11T19:07:54.000Z</Time>
            <Position>
              <LatitudeDegrees>43.2435710169374942779541015625</LatitudeDegrees>
              <LongitudeDegrees>-2.922669388353824615478515625</LongitudeDegrees>
            </Position>
            <AltitudeMeters>42</AltitudeMeters>
            <DistanceMeters>NAN</DistanceMeters>
          </Trackpoint>
          <Trackpoint>
            <Time>2022-07-11T19:08:00.000Z</Time>
            <Position>
              <LatitudeDegrees>43.24387653730809688568115234375</LatitudeDegrees>
              <LongitudeDegrees>-2.92275614105165004730224609375</LongitudeDegrees>
            </Position>
            <AltitudeMeters>42</AltitudeMeters>
            <DistanceMeters>NAN</DistanceMeters>
          </Trackpoint>
          <Trackpoint>
            <Time>2022-07-11T19:08:01.000Z</Time>
            <Position>
              <LatitudeDegrees>43.2439233921468257904052734375</LatitudeDegrees>
              <LongitudeDegrees>-2.92276360094547271728515625</LongitudeDegrees>
            </Position>
            <AltitudeMeters>41.799999237060546875</AltitudeMeters>
            <DistanceMeters>NAN</DistanceMeters>
          </Trackpoint>
          <Trackpoint>
            <Time>2022-07-11T19:08:06.000Z</Time>
            <Position>
              <LatitudeDegrees>43.244162611663341522216796875</LatitudeDegrees>
              <LongitudeDegrees>-2.92273409664630889892578125</LongitudeDegrees>
            </Position>
            <AltitudeMeters>41.799999237060546875</AltitudeMeters>
            <DistanceMeters>NAN</DistanceMeters>
          </Trackpoint>
          <Trackpoint>
            <Time>2022-07-11T19:08:14.000Z</Time>
            <Position>
              <LatitudeDegrees>43.24448087252676486968994140625</LatitudeDegrees>
              <LongitudeDegrees>-2.922572158277034759521484375</LongitudeDegrees>
            </Position>
            <AltitudeMeters>41.799999237060546875</AltitudeMeters>
            <DistanceMeters>NAN</DistanceMeters>
          </Trackpoint>
          <Trackpoint>
            <Time>2022-07-11T19:08:21.000Z</Time>
            <Position>
              <LatitudeDegrees>43.2447290606796741485595703125</LatitudeDegrees>
              <LongitudeDegrees>-2.92236940003931522369384765625</LongitudeDegrees>
            </Position>
            <AltitudeMeters>42.200000762939453125</AltitudeMeters>
            <DistanceMeters>NAN</DistanceMeters>
          </Trackpoint>
          <Trackpoint>
            <Time>2022-07-11T19:08:23.000Z</Time>
            <Position>
              <LatitudeDegrees>43.24478429742157459259033203125</LatitudeDegrees>
              <LongitudeDegrees>-2.92230133898556232452392578125</LongitudeDegrees>
            </Position>
            <AltitudeMeters>42.200000762939453125</AltitudeMeters>
            <DistanceMeters>NAN</DistanceMeters>
          </Trackpoint>
          <Trackpoint>
            <Time>2022-07-11T19:08:26.000Z</Time>
            <Position>
              <LatitudeDegrees>43.2448737323284149169921875</LatitudeDegrees>
              <LongitudeDegrees>-2.92216404341161251068115234375</LongitudeDegrees>
            </Position>
            <AltitudeMeters>42.200000762939453125</AltitudeMeters>
            <DistanceMeters>NAN</DistanceMeters>
          </Trackpoint>
          <Trackpoint>
            <Time>2022-07-11T19:08:31.000Z</Time>
            <Position>
              <LatitudeDegrees>43.244986049830913543701171875</LatitudeDegrees>
              <LongitudeDegrees>-2.92193471454083919525146484375</LongitudeDegrees>
            </Position>
            <AltitudeMeters>42.59999847412109375</AltitudeMeters>
            <DistanceMeters>NAN</DistanceMeters>
          </Trackpoint>
          <Trackpoint>
            <Time>2022-07-11T19:08:32.000Z</Time>
            <Position>
              <LatitudeDegrees>43.24500993825495243072509765625</LatitudeDegrees>
              <LongitudeDegrees>-2.921887524425983428955078125</LongitudeDegrees>
            </Position>
            <AltitudeMeters>42.59999847412109375</AltitudeMeters>
            <DistanceMeters>NAN</DistanceMeters>
          </Trackpoint>
          <Trackpoint>
            <Time>2022-07-11T19:08:40.000Z</Time>
            <Position>
              <LatitudeDegrees>43.2451739721000194549560546875</LatitudeDegrees>
              <LongitudeDegrees>-2.9215309582650661468505859375</LongitudeDegrees>
            </Position>
            <AltitudeMeters>42.59999847412109375</AltitudeMeters>
            <DistanceMeters>NAN</DistanceMeters>
          </Trackpoint>
          <Trackpoint>
            <Time>2022-07-11T19:08:42.000Z</Time>
            <Position>
              <LatitudeDegrees>43.2452078349888324737548828125</LatitudeDegrees>
              <LongitudeDegrees>-2.92144370265305042266845703125</LongitudeDegrees>
            </Position>
            <AltitudeMeters>42.799999237060546875</AltitudeMeters>
            <DistanceMeters>NAN</DistanceMeters>
          </Trackpoint>
          <Trackpoint>
            <Time>2022-07-11T19:08:44.000Z</Time>
            <Position>
              <LatitudeDegrees>43.2452400214970111846923828125</LatitudeDegrees>
              <LongitudeDegrees>-2.92135401628911495208740234375</LongitudeDegrees>
            </Position>
            <AltitudeMeters>43</AltitudeMeters>
            <DistanceMeters>NAN</DistanceMeters>
          </Trackpoint>
          <Trackpoint>
            <Time>2022-07-11T19:08:51.000Z</Time>
            <Position>
              <LatitudeDegrees>43.24538611806929111480712890625</LatitudeDegrees>
              <LongitudeDegrees>-2.92106978595256805419921875</LongitudeDegrees>
            </Position>
            <AltitudeMeters>43.40000152587890625</AltitudeMeters>
            <DistanceMeters>NAN</DistanceMeters>
          </Trackpoint>
          <Trackpoint>
            <Time>2022-07-11T19:08:57.000Z</Time>
            <Position>
              <LatitudeDegrees>43.24554755352437496185302734375</LatitudeDegrees>
              <LongitudeDegrees>-2.92089602909982204437255859375</LongitudeDegrees>
            </Position>
            <AltitudeMeters>43.59999847412109375</AltitudeMeters>
            <DistanceMeters>NAN</DistanceMeters>
          </Trackpoint>
          <Trackpoint>
            <Time>2022-07-11T19:09:04.000Z</Time>
            <Position>
              <LatitudeDegrees>43.24574754573404788970947265625</LatitudeDegrees>
              <LongitudeDegrees>-2.92066418565809726715087890625</LongitudeDegrees>
            </Position>
            <AltitudeMeters>43.40000152587890625</AltitudeMeters>
            <DistanceMeters>NAN</DistanceMeters>
          </Trackpoint>
          <Trackpoint>
            <Time>2022-07-11T19:09:09.000Z</Time>
            <Position>
              <LatitudeDegrees>43.2458254136145114898681640625</LatitudeDegrees>
              <LongitudeDegrees>-2.92053979821503162384033203125</LongitudeDegrees>
            </Position>
            <AltitudeMeters>44</AltitudeMeters>
            <DistanceMeters>NAN</DistanceMeters>
          </Trackpoint>
          <Trackpoint>
            <Time>2022-07-11T19:09:13.000Z</Time>
            <Position>
              <LatitudeDegrees>43.2458646409213542938232421875</LatitudeDegrees>
              <LongitudeDegrees>-2.92046637274324893951416015625</LongitudeDegrees>
            </Position>
            <AltitudeMeters>44.40000152587890625</AltitudeMeters>
            <DistanceMeters>NAN</DistanceMeters>
          </Trackpoint>
          <Trackpoint>
            <Time>2022-07-11T19:09:15.000Z</Time>
            <Position>
              <LatitudeDegrees>43.24588417075574398040771484375</LatitudeDegrees>
              <LongitudeDegrees>-2.92041809298098087310791015625</LongitudeDegrees>
            </Position>
            <AltitudeMeters>44.59999847412109375</AltitudeMeters>
            <DistanceMeters>NAN</DistanceMeters>
          </Trackpoint>
          <Trackpoint>
            <Time>2022-07-11T19:09:18.000Z</Time>
            <Position>
              <LatitudeDegrees>43.2459122501313686370849609375</LatitudeDegrees>
              <LongitudeDegrees>-2.92036897502839565277099609375</LongitudeDegrees>
            </Position>
            <AltitudeMeters>45</AltitudeMeters>
            <DistanceMeters>NAN</DistanceMeters>
          </Trackpoint>
          <Trackpoint>
            <Time>2022-07-11T19:09:24.000Z</Time>
            <Position>
              <LatitudeDegrees>43.24598710052669048309326171875</LatitudeDegrees>
              <LongitudeDegrees>-2.92029789648950099945068359375</LongitudeDegrees>
            </Position>
            <AltitudeMeters>45.799999237060546875</AltitudeMeters>
            <DistanceMeters>NAN</DistanceMeters>
          </Trackpoint>
          <Trackpoint>
            <Time>2022-07-11T19:09:28.000Z</Time>
            <Position>
              <LatitudeDegrees>43.2460577599704265594482421875</LatitudeDegrees>
              <LongitudeDegrees>-2.92026386596262454986572265625</LongitudeDegrees>
            </Position>
            <AltitudeMeters>46.200000762939453125</AltitudeMeters>
            <DistanceMeters>NAN</DistanceMeters>
          </Trackpoint>
          <Trackpoint>
            <Time>2022-07-11T19:09:31.000Z</Time>
            <Position>
              <LatitudeDegrees>43.24609237723052501678466796875</LatitudeDegrees>
              <LongitudeDegrees>-2.9202431626617908477783203125</LongitudeDegrees>
            </Position>
            <AltitudeMeters>46.59999847412109375</AltitudeMeters>
            <DistanceMeters>NAN</DistanceMeters>
          </Trackpoint>
          <Trackpoint>
            <Time>2022-07-11T19:09:34.000Z</Time>
            <Position>
              <LatitudeDegrees>43.24612439610064029693603515625</LatitudeDegrees>
              <LongitudeDegrees>-2.9202404804527759552001953125</LongitudeDegrees>
            </Position>
            <AltitudeMeters>46.799999237060546875</AltitudeMeters>
            <DistanceMeters>NAN</DistanceMeters>
          </Trackpoint>
          <Trackpoint>
            <Time>2022-07-11T19:09:38.000Z</Time>
            <Position>
              <LatitudeDegrees>43.24617703445255756378173828125</LatitudeDegrees>
              <LongitudeDegrees>-2.92022413574159145355224609375</LongitudeDegrees>
            </Position>
            <AltitudeMeters>47.40000152587890625</AltitudeMeters>
            <DistanceMeters>NAN</DistanceMeters>
          </Trackpoint>
          <Trackpoint>
            <Time>2022-07-11T19:09:40.000Z</Time>
            <Position>
              <LatitudeDegrees>43.246196396648883819580078125</LatitudeDegrees>
              <LongitudeDegrees>-2.92021877132356166839599609375</LongitudeDegrees>
            </Position>
            <AltitudeMeters>47.59999847412109375</AltitudeMeters>
            <DistanceMeters>NAN</DistanceMeters>
          </Trackpoint>
          <Trackpoint>
            <Time>2022-07-11T19:09:42.000Z</Time>
            <Position>
              <LatitudeDegrees>43.24621056206524372100830078125</LatitudeDegrees>
              <LongitudeDegrees>-2.9202170111238956451416015625</LongitudeDegrees>
            </Position>
            <AltitudeMeters>47.799999237060546875</AltitudeMeters>
            <DistanceMeters>NAN</DistanceMeters>
          </Trackpoint>
          <Trackpoint>
            <Time>2022-07-11T19:09:45.000Z</Time>
            <Position>
              <LatitudeDegrees>43.24624769389629364013671875</LatitudeDegrees>
              <LongitudeDegrees>-2.92021525092422962188720703125</LongitudeDegrees>
            </Position>
            <AltitudeMeters>48</AltitudeMeters>
            <DistanceMeters>NAN</DistanceMeters>
          </Trackpoint>
          <Trackpoint>
            <Time>2022-07-11T19:09:47.000Z</Time>
            <Position>
              <LatitudeDegrees>43.246266134083271026611328125</LatitudeDegrees>
              <LongitudeDegrees>-2.92018390260636806488037109375</LongitudeDegrees>
            </Position>
            <AltitudeMeters>48.200000762939453125</AltitudeMeters>
            <DistanceMeters>NAN</DistanceMeters>
          </Trackpoint>
          <Trackpoint>
            <Time>2022-07-11T19:09:49.000Z</Time>
            <Position>
              <LatitudeDegrees>43.246293962001800537109375</LatitudeDegrees>
              <LongitudeDegrees>-2.92015657760202884674072265625</LongitudeDegrees>
            </Position>
            <AltitudeMeters>48.40000152587890625</AltitudeMeters>
            <DistanceMeters>NAN</DistanceMeters>
          </Trackpoint>
          <Trackpoint>
            <Time>2022-07-11T19:09:50.000Z</Time>
            <Position>
              <LatitudeDegrees>43.24631743133068084716796875</LatitudeDegrees>
              <LongitudeDegrees>-2.920145429670810699462890625</LongitudeDegrees>
            </Position>
            <AltitudeMeters>48.59999847412109375</AltitudeMeters>
            <DistanceMeters>NAN</DistanceMeters>
          </Trackpoint>
          <Trackpoint>
            <Time>2022-07-11T19:09:58.000Z</Time>
            <Position>
              <LatitudeDegrees>43.24646436609327793121337890625</LatitudeDegrees>
              <LongitudeDegrees>-2.92008298449218273162841796875</LongitudeDegrees>
            </Position>
            <AltitudeMeters>49.200000762939453125</AltitudeMeters>
            <DistanceMeters>NAN</DistanceMeters>
          </Trackpoint>
          <Trackpoint>
            <Time>2022-07-11T19:10:03.000Z</Time>
            <Position>
              <LatitudeDegrees>43.246592693030834197998046875</LatitudeDegrees>
              <LongitudeDegrees>-2.920091450214385986328125</LongitudeDegrees>
            </Position>
            <AltitudeMeters>49</AltitudeMeters>
            <DistanceMeters>NAN</DistanceMeters>
          </Trackpoint>
          <Trackpoint>
            <Time>2022-07-11T19:10:08.000Z</Time>
            <Position>
              <LatitudeDegrees>43.24674650095403194427490234375</LatitudeDegrees>
              <LongitudeDegrees>-2.9201559908688068389892578125</LongitudeDegrees>
            </Position>
            <AltitudeMeters>48.799999237060546875</AltitudeMeters>
            <DistanceMeters>NAN</DistanceMeters>
          </Trackpoint>
          <Trackpoint>
            <Time>2022-07-11T19:10:12.000Z</Time>
            <Position>
              <LatitudeDegrees>43.24690760113298892974853515625</LatitudeDegrees>
              <LongitudeDegrees>-2.92020217515528202056884765625</LongitudeDegrees>
            </Position>
            <AltitudeMeters>48.799999237060546875</AltitudeMeters>
            <DistanceMeters>NAN</DistanceMeters>
          </Trackpoint>
          <Trackpoint>
            <Time>2022-07-11T19:10:17.000Z</Time>
            <Position>
              <LatitudeDegrees>43.2470954395830631256103515625</LatitudeDegrees>
              <LongitudeDegrees>-2.920272164046764373779296875</LongitudeDegrees>
            </Position>
            <AltitudeMeters>48.799999237060546875</AltitudeMeters>
            <DistanceMeters>NAN</DistanceMeters>
          </Trackpoint>
          <Trackpoint>
            <Time>2022-07-11T19:10:18.000Z</Time>
            <Position>
              <LatitudeDegrees>43.247135840356349945068359375</LatitudeDegrees>
              <LongitudeDegrees>-2.92028683237731456756591796875</LongitudeDegrees>
            </Position>
            <AltitudeMeters>48.799999237060546875</AltitudeMeters>
            <DistanceMeters>NAN</DistanceMeters>
          </Trackpoint>
          <Trackpoint>
            <Time>2022-07-11T19:10:22.000Z</Time>
            <Position>
              <LatitudeDegrees>43.24730255641043186187744140625</LatitudeDegrees>
              <LongitudeDegrees>-2.9203316755592823028564453125</LongitudeDegrees>
            </Position>
            <AltitudeMeters>48.59999847412109375</AltitudeMeters>
            <DistanceMeters>NAN</DistanceMeters>
          </Trackpoint>
          <Trackpoint>
            <Time>2022-07-11T19:10:24.000Z</Time>
            <Position>
              <LatitudeDegrees>43.24738763272762298583984375</LatitudeDegrees>
              <LongitudeDegrees>-2.920354641973972320556640625</LongitudeDegrees>
            </Position>
            <AltitudeMeters>48.59999847412109375</AltitudeMeters>
            <DistanceMeters>NAN</DistanceMeters>
          </Trackpoint>
          <Trackpoint>
            <Time>2022-07-11T19:10:26.000Z</Time>
            <Position>
              <LatitudeDegrees>43.24747522361576557159423828125</LatitudeDegrees>
              <LongitudeDegrees>-2.9203744232654571533203125</LongitudeDegrees>
            </Position>
            <AltitudeMeters>48.59999847412109375</AltitudeMeters>
            <DistanceMeters>NAN</DistanceMeters>
          </Trackpoint>
          <Trackpoint>
            <Time>2022-07-11T19:10:36.000Z</Time>
            <Position>
              <LatitudeDegrees>43.24793974868953227996826171875</LatitudeDegrees>
              <LongitudeDegrees>-2.9204392991960048675537109375</LongitudeDegrees>
            </Position>
            <AltitudeMeters>48.40000152587890625</AltitudeMeters>
            <DistanceMeters>NAN</DistanceMeters>
          </Trackpoint>
          <Trackpoint>
            <Time>2022-07-11T19:10:38.000Z</Time>
            <Position>
              <LatitudeDegrees>43.2480288483202457427978515625</LatitudeDegrees>
              <LongitudeDegrees>-2.9204620979726314544677734375</LongitudeDegrees>
            </Position>
            <AltitudeMeters>48.59999847412109375</AltitudeMeters>
            <DistanceMeters>NAN</DistanceMeters>
          </Trackpoint>
          <Trackpoint>
            <Time>2022-07-11T19:10:40.000Z</Time>
            <Position>
              <LatitudeDegrees>43.2481119967997074127197265625</LatitudeDegrees>
              <LongitudeDegrees>-2.9204926081001758575439453125</LongitudeDegrees>
            </Position>
            <AltitudeMeters>48.59999847412109375</AltitudeMeters>
            <DistanceMeters>NAN</DistanceMeters>
          </Trackpoint>
          <Trackpoint>
            <Time>2022-07-11T19:10:41.000Z</Time>
            <Position>
              <LatitudeDegrees>43.24815985746681690216064453125</LatitudeDegrees>
              <LongitudeDegrees>-2.92049755342304706573486328125</LongitudeDegrees>
            </Position>
            <AltitudeMeters>48.59999847412109375</AltitudeMeters>
            <DistanceMeters>NAN</DistanceMeters>
          </Trackpoint>
          <Trackpoint>
            <Time>2022-07-11T19:10:43.000Z</Time>
            <Position>
              <LatitudeDegrees>43.24825608171522617340087890625</LatitudeDegrees>
              <LongitudeDegrees>-2.9205107130110263824462890625</LongitudeDegrees>
            </Position>
            <AltitudeMeters>48.59999847412109375</AltitudeMeters>
            <DistanceMeters>NAN</DistanceMeters>
          </Trackpoint>
          <Trackpoint>
            <Time>2022-07-11T19:10:47.000Z</Time>
            <Position>
              <LatitudeDegrees>43.248445093631744384765625</LatitudeDegrees>
              <LongitudeDegrees>-2.920525968074798583984375</LongitudeDegrees>
            </Position>
            <AltitudeMeters>48.59999847412109375</AltitudeMeters>
            <DistanceMeters>NAN</DistanceMeters>
          </Trackpoint>
          <Trackpoint>
            <Time>2022-07-11T19:10:48.000Z</Time>
            <Position>
              <LatitudeDegrees>43.24848976917564868927001953125</LatitudeDegrees>
              <LongitudeDegrees>-2.920528315007686614990234375</LongitudeDegrees>
            </Position>
            <AltitudeMeters>48.59999847412109375</AltitudeMeters>
            <DistanceMeters>NAN</DistanceMeters>
          </Trackpoint>
          <Trackpoint>
            <Time>2022-07-11T19:10:57.000Z</Time>
            <Position>
              <LatitudeDegrees>43.24890349991619586944580078125</LatitudeDegrees>
              <LongitudeDegrees>-2.920632921159267425537109375</LongitudeDegrees>
            </Position>
            <AltitudeMeters>48.59999847412109375</AltitudeMeters>
            <DistanceMeters>NAN</DistanceMeters>
          </Trackpoint>
          <Trackpoint>
            <Time>2022-07-11T19:11:04.000Z</Time>
            <Position>
              <LatitudeDegrees>43.2491996325552463531494140625</LatitudeDegrees>
              <LongitudeDegrees>-2.92070793919265270233154296875</LongitudeDegrees>
            </Position>
            <AltitudeMeters>48.59999847412109375</AltitudeMeters>
            <DistanceMeters>NAN</DistanceMeters>
          </Trackpoint>
          <Trackpoint>
            <Time>2022-07-11T19:11:06.000Z</Time>
            <Position>
              <LatitudeDegrees>43.249282278120517730712890625</LatitudeDegrees>
              <LongitudeDegrees>-2.920733503997325897216796875</LongitudeDegrees>
            </Position>
            <AltitudeMeters>48.799999237060546875</AltitudeMeters>
            <DistanceMeters>NAN</DistanceMeters>
          </Trackpoint>
          <Trackpoint>
            <Time>2022-07-11T19:11:08.000Z</Time>
            <Position>
              <LatitudeDegrees>43.24936383403837680816650390625</LatitudeDegrees>
              <LongitudeDegrees>-2.9207557998597621917724609375</LongitudeDegrees>
            </Position>
            <AltitudeMeters>48.59999847412109375</AltitudeMeters>
            <DistanceMeters>NAN</DistanceMeters>
          </Trackpoint>
          <Trackpoint>
            <Time>2022-07-11T19:11:09.000Z</Time>
            <Position>
              <LatitudeDegrees>43.24940775521099567413330078125</LatitudeDegrees>
              <LongitudeDegrees>-2.92076393030583858489990234375</LongitudeDegrees>
            </Position>
            <AltitudeMeters>48.799999237060546875</AltitudeMeters>
            <DistanceMeters>NAN</DistanceMeters>
          </Trackpoint>
          <Trackpoint>
            <Time>2022-07-11T19:11:10.000Z</Time>
            <Position>
              <LatitudeDegrees>43.2494547776877880096435546875</LatitudeDegrees>
              <LongitudeDegrees>-2.9207698814570903778076171875</LongitudeDegrees>
            </Position>
            <AltitudeMeters>48.799999237060546875</AltitudeMeters>
            <DistanceMeters>NAN</DistanceMeters>
          </Trackpoint>
          <Trackpoint>
            <Time>2022-07-11T19:11:12.000Z</Time>
            <Position>
              <LatitudeDegrees>43.2495449669659137725830078125</LatitudeDegrees>
              <LongitudeDegrees>-2.9207883216440677642822265625</LongitudeDegrees>
            </Position>
            <AltitudeMeters>48.59999847412109375</AltitudeMeters>
            <DistanceMeters>NAN</DistanceMeters>
          </Trackpoint>
          <Trackpoint>
            <Time>2022-07-11T19:11:14.000Z</Time>
            <Position>
              <LatitudeDegrees>43.2496230863034725189208984375</LatitudeDegrees>
              <LongitudeDegrees>-2.920821011066436767578125</LongitudeDegrees>
            </Position>
            <AltitudeMeters>48.59999847412109375</AltitudeMeters>
            <DistanceMeters>NAN</DistanceMeters>
          </Trackpoint>
          <Trackpoint>
            <Time>2022-07-11T19:11:16.000Z</Time>
            <Position>
              <LatitudeDegrees>43.24971453286707401275634765625</LatitudeDegrees>
              <LongitudeDegrees>-2.92084070853888988494873046875</LongitudeDegrees>
            </Position>
            <AltitudeMeters>48.59999847412109375</AltitudeMeters>
            <DistanceMeters>NAN</DistanceMeters>
          </Trackpoint>
          <Trackpoint>
            <Time>2022-07-11T19:11:19.000Z</Time>
            <Position>
              <LatitudeDegrees>43.24983187951147556304931640625</LatitudeDegrees>
              <LongitudeDegrees>-2.92088739573955535888671875</LongitudeDegrees>
            </Position>
            <AltitudeMeters>48.40000152587890625</AltitudeMeters>
            <DistanceMeters>NAN</DistanceMeters>
          </Trackpoint>
          <Trackpoint>
            <Time>2022-07-11T19:11:20.000Z</Time>
            <Position>
              <LatitudeDegrees>43.2498735375702381134033203125</LatitudeDegrees>
              <LongitudeDegrees>-2.9209001362323760986328125</LongitudeDegrees>
            </Position>
            <AltitudeMeters>48.40000152587890625</AltitudeMeters>
            <DistanceMeters>NAN</DistanceMeters>
          </Trackpoint>
          <Trackpoint>
            <Time>2022-07-11T19:11:24.000Z</Time>
            <Position>
              <LatitudeDegrees>43.2500455342233180999755859375</LatitudeDegrees>
              <LongitudeDegrees>-2.92096090503036975860595703125</LongitudeDegrees>
            </Position>
            <AltitudeMeters>48.200000762939453125</AltitudeMeters>
            <DistanceMeters>NAN</DistanceMeters>
          </Trackpoint>
          <Trackpoint>
            <Time>2022-07-11T19:11:26.000Z</Time>
            <Position>
              <LatitudeDegrees>43.25013798661530017852783203125</LatitudeDegrees>
              <LongitudeDegrees>-2.9209663532674312591552734375</LongitudeDegrees>
            </Position>
            <AltitudeMeters>48.200000762939453125</AltitudeMeters>
            <DistanceMeters>NAN</DistanceMeters>
          </Trackpoint>
          <Trackpoint>
            <Time>2022-07-11T19:11:28.000Z</Time>
            <Position>
              <LatitudeDegrees>43.25021593831479549407958984375</LatitudeDegrees>
              <LongitudeDegrees>-2.92099258862435817718505859375</LongitudeDegrees>
            </Position>
            <AltitudeMeters>48.200000762939453125</AltitudeMeters>
            <DistanceMeters>NAN</DistanceMeters>
          </Trackpoint>
          <Trackpoint>
            <Time>2022-07-11T19:11:29.000Z</Time>
            <Position>
              <LatitudeDegrees>43.25026103295385837554931640625</LatitudeDegrees>
              <LongitudeDegrees>-2.92099996469914913177490234375</LongitudeDegrees>
            </Position>
            <AltitudeMeters>48</AltitudeMeters>
            <DistanceMeters>NAN</DistanceMeters>
          </Trackpoint>
          <Trackpoint>
            <Time>2022-07-11T19:11:33.000Z</Time>
            <Position>
              <LatitudeDegrees>43.25043437071144580841064453125</LatitudeDegrees>
              <LongitudeDegrees>-2.9210233502089977264404296875</LongitudeDegrees>
            </Position>
            <AltitudeMeters>47.40000152587890625</AltitudeMeters>
            <DistanceMeters>NAN</DistanceMeters>
          </Trackpoint>
          <Trackpoint>
            <Time>2022-07-11T19:11:35.000Z</Time>
            <Position>
              <LatitudeDegrees>43.2505209557712078094482421875</LatitudeDegrees>
              <LongitudeDegrees>-2.92104539461433887481689453125</LongitudeDegrees>
            </Position>
            <AltitudeMeters>47.40000152587890625</AltitudeMeters>
            <DistanceMeters>NAN</DistanceMeters>
          </Trackpoint>
          <Trackpoint>
            <Time>2022-07-11T19:11:37.000Z</Time>
            <Position>
              <LatitudeDegrees>43.25060921721160411834716796875</LatitudeDegrees>
              <LongitudeDegrees>-2.92107624001801013946533203125</LongitudeDegrees>
            </Position>
            <AltitudeMeters>47.40000152587890625</AltitudeMeters>
            <DistanceMeters>NAN</DistanceMeters>
          </Trackpoint>
          <Trackpoint>
            <Time>2022-07-11T19:11:39.000Z</Time>
            <Position>
              <LatitudeDegrees>43.25069672428071498870849609375</LatitudeDegrees>
              <LongitudeDegrees>-2.9211038164794445037841796875</LongitudeDegrees>
            </Position>
            <AltitudeMeters>47.40000152587890625</AltitudeMeters>
            <DistanceMeters>NAN</DistanceMeters>
          </Trackpoint>
          <Trackpoint>
            <Time>2022-07-11T19:11:43.000Z</Time>
            <Position>
              <LatitudeDegrees>43.2508604228496551513671875</LatitudeDegrees>
              <LongitudeDegrees>-2.92117313481867313385009765625</LongitudeDegrees>
            </Position>
            <AltitudeMeters>47</AltitudeMeters>
            <DistanceMeters>NAN</DistanceMeters>
          </Trackpoint>
          <Trackpoint>
            <Time>2022-07-11T19:11:46.000Z</Time>
            <Position>
              <LatitudeDegrees>43.25098053552210330963134765625</LatitudeDegrees>
              <LongitudeDegrees>-2.9212164692580699920654296875</LongitudeDegrees>
            </Position>
            <AltitudeMeters>47</AltitudeMeters>
            <DistanceMeters>NAN</DistanceMeters>
          </Trackpoint>
          <Trackpoint>
            <Time>2022-07-11T19:11:54.000Z</Time>
            <Position>
              <LatitudeDegrees>43.2512104511260986328125</LatitudeDegrees>
              <LongitudeDegrees>-2.92136273346841335296630859375</LongitudeDegrees>
            </Position>
            <AltitudeMeters>46.799999237060546875</AltitudeMeters>
            <DistanceMeters>NAN</DistanceMeters>
          </Trackpoint>
          <Trackpoint>
            <Time>2022-07-11T19:12:00.000Z</Time>
            <Position>
              <LatitudeDegrees>43.25136727653443813323974609375</LatitudeDegrees>
              <LongitudeDegrees>-2.921448983252048492431640625</LongitudeDegrees>
            </Position>
            <AltitudeMeters>46.59999847412109375</AltitudeMeters>
            <DistanceMeters>NAN</DistanceMeters>
          </Trackpoint>
          <Trackpoint>
            <Time>2022-07-11T19:12:02.000Z</Time>
            <Position>
              <LatitudeDegrees>43.25141455046832561492919921875</LatitudeDegrees>
              <LongitudeDegrees>-2.92143884114921092987060546875</LongitudeDegrees>
            </Position>
            <AltitudeMeters>46.40000152587890625</AltitudeMeters>
            <DistanceMeters>NAN</DistanceMeters>
          </Trackpoint>
          <Trackpoint>
            <Time>2022-07-11T19:12:05.000Z</Time>
            <Position>
              <LatitudeDegrees>43.251492083072662353515625</LatitudeDegrees>
              <LongitudeDegrees>-2.921496927738189697265625</LongitudeDegrees>
            </Position>
            <AltitudeMeters>45.799999237060546875</AltitudeMeters>
            <DistanceMeters>NAN</DistanceMeters>
          </Trackpoint>
          <Trackpoint>
            <Time>2022-07-11T19:12:08.000Z</Time>
            <Position>
              <LatitudeDegrees>43.25155100785195827484130859375</LatitudeDegrees>
              <LongitudeDegrees>-2.92150790803134441375732421875</LongitudeDegrees>
            </Position>
            <AltitudeMeters>45.200000762939453125</AltitudeMeters>
            <DistanceMeters>NAN</DistanceMeters>
          </Trackpoint>
          <Trackpoint>
            <Time>2022-07-11T19:12:09.000Z</Time>
            <Position>
              <LatitudeDegrees>43.25155100785195827484130859375</LatitudeDegrees>
              <LongitudeDegrees>-2.92150790803134441375732421875</LongitudeDegrees>
            </Position>
            <AltitudeMeters>44.799999237060546875</AltitudeMeters>
            <DistanceMeters>NAN</DistanceMeters>
          </Trackpoint>
          <Trackpoint>
            <Time>2022-07-11T19:12:11.000Z</Time>
            <Position>
              <LatitudeDegrees>43.25155100785195827484130859375</LatitudeDegrees>
              <LongitudeDegrees>-2.92150790803134441375732421875</LongitudeDegrees>
            </Position>
            <AltitudeMeters>44.40000152587890625</AltitudeMeters>
            <DistanceMeters>NAN</DistanceMeters>
          </Trackpoint>
          <Trackpoint>
            <Time>2022-07-11T19:12:20.000Z</Time>
            <Position>
              <LatitudeDegrees>43.251602388918399810791015625</LatitudeDegrees>
              <LongitudeDegrees>-2.921524085104465484619140625</LongitudeDegrees>
            </Position>
            <AltitudeMeters>44.200000762939453125</AltitudeMeters>
            <DistanceMeters>NAN</DistanceMeters>
          </Trackpoint>
          <Trackpoint>
            <Time>2022-07-11T19:12:21.000Z</Time>
            <Position>
              <LatitudeDegrees>43.2516340725123882293701171875</LatitudeDegrees>
              <LongitudeDegrees>-2.92154780589044094085693359375</LongitudeDegrees>
            </Position>
            <AltitudeMeters>44.200000762939453125</AltitudeMeters>
            <DistanceMeters>NAN</DistanceMeters>
          </Trackpoint>
          <Trackpoint>
            <Time>2022-07-11T19:12:24.000Z</Time>
            <Position>
              <LatitudeDegrees>43.25174982659518718719482421875</LatitudeDegrees>
              <LongitudeDegrees>-2.92163749225437641143798828125</LongitudeDegrees>
            </Position>
            <AltitudeMeters>44</AltitudeMeters>
            <DistanceMeters>NAN</DistanceMeters>
          </Trackpoint>
          <Trackpoint>
            <Time>2022-07-11T19:12:25.000Z</Time>
            <Position>
              <LatitudeDegrees>43.25178972445428371429443359375</LatitudeDegrees>
              <LongitudeDegrees>-2.92167336679995059967041015625</LongitudeDegrees>
            </Position>
            <AltitudeMeters>44</AltitudeMeters>
            <DistanceMeters>NAN</DistanceMeters>
          </Trackpoint>
          <Trackpoint>
            <Time>2022-07-11T19:12:27.000Z</Time>
            <Position>
              <LatitudeDegrees>43.25188167393207550048828125</LatitudeDegrees>
              <LongitudeDegrees>-2.921759784221649169921875</LongitudeDegrees>
            </Position>
            <AltitudeMeters>43.799999237060546875</AltitudeMeters>
            <DistanceMeters>NAN</DistanceMeters>
          </Trackpoint>
          <Trackpoint>
            <Time>2022-07-11T19:12:29.000Z</Time>
            <Position>
              <LatitudeDegrees>43.2520099170506000518798828125</LatitudeDegrees>
              <LongitudeDegrees>-2.92181887663900852203369140625</LongitudeDegrees>
            </Position>
            <AltitudeMeters>43.200000762939453125</AltitudeMeters>
            <DistanceMeters>NAN</DistanceMeters>
          </Trackpoint>
          <Trackpoint>
            <Time>2022-07-11T19:12:31.000Z</Time>
            <Position>
              <LatitudeDegrees>43.25214562006294727325439453125</LatitudeDegrees>
              <LongitudeDegrees>-2.92183153331279754638671875</LongitudeDegrees>
            </Position>
            <AltitudeMeters>43</AltitudeMeters>
            <DistanceMeters>NAN</DistanceMeters>
          </Trackpoint>
          <Trackpoint>
            <Time>2022-07-11T19:12:32.000Z</Time>
            <Position>
              <LatitudeDegrees>43.25221284292638301849365234375</LatitudeDegrees>
              <LongitudeDegrees>-2.92182273231446743011474609375</LongitudeDegrees>
            </Position>
            <AltitudeMeters>42.59999847412109375</AltitudeMeters>
            <DistanceMeters>NAN</DistanceMeters>
          </Trackpoint>
          <Trackpoint>
            <Time>2022-07-11T19:12:34.000Z</Time>
            <Position>
              <LatitudeDegrees>43.25237344019114971160888671875</LatitudeDegrees>
              <LongitudeDegrees>-2.9217683337628841400146484375</LongitudeDegrees>
            </Position>
            <AltitudeMeters>41.799999237060546875</AltitudeMeters>
            <DistanceMeters>NAN</DistanceMeters>
          </Trackpoint>
          <Trackpoint>
            <Time>2022-07-11T19:12:36.000Z</Time>
            <Position>
              <LatitudeDegrees>43.25252934359014034271240234375</LatitudeDegrees>
              <LongitudeDegrees>-2.9217341355979442596435546875</LongitudeDegrees>
            </Position>
            <AltitudeMeters>40.59999847412109375</AltitudeMeters>
            <DistanceMeters>NAN</DistanceMeters>
          </Trackpoint>
          <Trackpoint>
            <Time>2022-07-11T19:12:39.000Z</Time>
            <Position>
              <LatitudeDegrees>43.25276906602084636688232421875</LatitudeDegrees>
              <LongitudeDegrees>-2.92164905928075313568115234375</LongitudeDegrees>
            </Position>
            <AltitudeMeters>39.200000762939453125</AltitudeMeters>
            <DistanceMeters>NAN</DistanceMeters>
          </Trackpoint>
          <Trackpoint>
            <Time>2022-07-11T19:12:40.000Z</Time>
            <Position>
              <LatitudeDegrees>43.2528425753116607666015625</LatitudeDegrees>
              <LongitudeDegrees>-2.9216268472373485565185546875</LongitudeDegrees>
            </Position>
            <AltitudeMeters>38.799999237060546875</AltitudeMeters>
            <DistanceMeters>NAN</DistanceMeters>
          </Trackpoint>
          <Trackpoint>
            <Time>2022-07-11T19:12:42.000Z</Time>
            <Position>
              <LatitudeDegrees>43.25299252755939960479736328125</LatitudeDegrees>
              <LongitudeDegrees>-2.92158954776823520660400390625</LongitudeDegrees>
            </Position>
            <AltitudeMeters>38.200000762939453125</AltitudeMeters>
            <DistanceMeters>NAN</DistanceMeters>
          </Trackpoint>
          <Trackpoint>
            <Time>2022-07-11T19:12:43.000Z</Time>
            <Position>
              <LatitudeDegrees>43.25306695885956287384033203125</LatitudeDegrees>
              <LongitudeDegrees>-2.9215742088854312896728515625</LongitudeDegrees>
            </Position>
            <AltitudeMeters>37.799999237060546875</AltitudeMeters>
            <DistanceMeters>NAN</DistanceMeters>
          </Trackpoint>
          <Trackpoint>
            <Time>2022-07-11T19:12:44.000Z</Time>
            <Position>
              <LatitudeDegrees>43.253135271370410919189453125</LatitudeDegrees>
              <LongitudeDegrees>-2.92156197130680084228515625</LongitudeDegrees>
            </Position>
            <AltitudeMeters>37.59999847412109375</AltitudeMeters>
            <DistanceMeters>NAN</DistanceMeters>
          </Trackpoint>
          <Trackpoint>
            <Time>2022-07-11T19:12:45.000Z</Time>
            <Position>
              <LatitudeDegrees>43.253222443163394927978515625</LatitudeDegrees>
              <LongitudeDegrees>-2.9215172119438648223876953125</LongitudeDegrees>
            </Position>
            <AltitudeMeters>37.200000762939453125</AltitudeMeters>
            <DistanceMeters>NAN</DistanceMeters>
          </Trackpoint>
          <Trackpoint>
            <Time>2022-07-11T19:12:47.000Z</Time>
            <Position>
              <LatitudeDegrees>43.25335965491831302642822265625</LatitudeDegrees>
              <LongitudeDegrees>-2.92146834544837474822998046875</LongitudeDegrees>
            </Position>
            <AltitudeMeters>37</AltitudeMeters>
            <DistanceMeters>NAN</DistanceMeters>
          </Trackpoint>
          <Trackpoint>
            <Time>2022-07-11T19:12:48.000Z</Time>
            <Position>
              <LatitudeDegrees>43.2534200884401798248291015625</LatitudeDegrees>
              <LongitudeDegrees>-2.92142827995121479034423828125</LongitudeDegrees>
            </Position>
            <AltitudeMeters>36.59999847412109375</AltitudeMeters>
            <DistanceMeters>NAN</DistanceMeters>
          </Trackpoint>
          <Trackpoint>
            <Time>2022-07-11T19:12:49.000Z</Time>
            <Position>
              <LatitudeDegrees>43.25347666628658771514892578125</LatitudeDegrees>
              <LongitudeDegrees>-2.9214156232774257659912109375</LongitudeDegrees>
            </Position>
            <AltitudeMeters>36.40000152587890625</AltitudeMeters>
            <DistanceMeters>NAN</DistanceMeters>
          </Trackpoint>
          <Trackpoint>
            <Time>2022-07-11T19:12:52.000Z</Time>
            <Position>
              <LatitudeDegrees>43.253655619919300079345703125</LatitudeDegrees>
              <LongitudeDegrees>-2.9213695228099822998046875</LongitudeDegrees>
            </Position>
            <AltitudeMeters>36</AltitudeMeters>
            <DistanceMeters>NAN</DistanceMeters>
          </Trackpoint>
          <Trackpoint>
            <Time>2022-07-11T19:12:55.000Z</Time>
            <Position>
              <LatitudeDegrees>43.25383029878139495849609375</LatitudeDegrees>
              <LongitudeDegrees>-2.92129651643335819244384765625</LongitudeDegrees>
            </Position>
            <AltitudeMeters>35.799999237060546875</AltitudeMeters>
            <DistanceMeters>NAN</DistanceMeters>
          </Trackpoint>
          <Trackpoint>
            <Time>2022-07-11T19:12:57.000Z</Time>
            <Position>
              <LatitudeDegrees>43.25393012724816799163818359375</LatitudeDegrees>
              <LongitudeDegrees>-2.92125913314521312713623046875</LongitudeDegrees>
            </Position>
            <AltitudeMeters>35.59999847412109375</AltitudeMeters>
            <DistanceMeters>NAN</DistanceMeters>
          </Trackpoint>
          <Trackpoint>
            <Time>2022-07-11T19:13:00.000Z</Time>
            <Position>
              <LatitudeDegrees>43.25407261960208415985107421875</LatitudeDegrees>
              <LongitudeDegrees>-2.9211986996233463287353515625</LongitudeDegrees>
            </Position>
            <AltitudeMeters>35</AltitudeMeters>
            <DistanceMeters>NAN</DistanceMeters>
          </Trackpoint>
          <Trackpoint>
            <Time>2022-07-11T19:13:01.000Z</Time>
            <Position>
              <LatitudeDegrees>43.254116959869861602783203125</LatitudeDegrees>
              <LongitudeDegrees>-2.92119878344237804412841796875</LongitudeDegrees>
            </Position>
            <AltitudeMeters>35</AltitudeMeters>
            <DistanceMeters>NAN</DistanceMeters>
          </Trackpoint>
          <Trackpoint>
            <Time>2022-07-11T19:13:02.000Z</Time>
            <Position>
              <LatitudeDegrees>43.25415710918605327606201171875</LatitudeDegrees>
              <LongitudeDegrees>-2.92121437378227710723876953125</LongitudeDegrees>
            </Position>
            <AltitudeMeters>35.200000762939453125</AltitudeMeters>
            <DistanceMeters>NAN</DistanceMeters>
          </Trackpoint>
          <Trackpoint>
            <Time>2022-07-11T19:13:04.000Z</Time>
            <Position>
              <LatitudeDegrees>43.254244364798069000244140625</LatitudeDegrees>
              <LongitudeDegrees>-2.92124991305172443389892578125</LongitudeDegrees>
            </Position>
            <AltitudeMeters>35.200000762939453125</AltitudeMeters>
            <DistanceMeters>NAN</DistanceMeters>
          </Trackpoint>
          <Trackpoint>
            <Time>2022-07-11T19:13:05.000Z</Time>
            <Position>
              <LatitudeDegrees>43.2542851008474826812744140625</LatitudeDegrees>
              <LongitudeDegrees>-2.92127438820898532867431640625</LongitudeDegrees>
            </Position>
            <AltitudeMeters>35.40000152587890625</AltitudeMeters>
            <DistanceMeters>NAN</DistanceMeters>
          </Trackpoint>
          <Trackpoint>
            <Time>2022-07-11T19:13:06.000Z</Time>
            <Position>
              <LatitudeDegrees>43.25432374142110347747802734375</LatitudeDegrees>
              <LongitudeDegrees>-2.92130204848945140838623046875</LongitudeDegrees>
            </Position>
            <AltitudeMeters>35.40000152587890625</AltitudeMeters>
            <DistanceMeters>NAN</DistanceMeters>
          </Trackpoint>
          <Trackpoint>
            <Time>2022-07-11T19:13:07.000Z</Time>
            <Position>
              <LatitudeDegrees>43.2543665729463100433349609375</LatitudeDegrees>
              <LongitudeDegrees>-2.92133071459829807281494140625</LongitudeDegrees>
            </Position>
            <AltitudeMeters>35.40000152587890625</AltitudeMeters>
            <DistanceMeters>NAN</DistanceMeters>
          </Trackpoint>
          <Trackpoint>
            <Time>2022-07-11T19:13:09.000Z</Time>
            <Position>
              <LatitudeDegrees>43.25444318354129791259765625</LatitudeDegrees>
              <LongitudeDegrees>-2.92138301767408847808837890625</LongitudeDegrees>
            </Position>
            <AltitudeMeters>35.40000152587890625</AltitudeMeters>
            <DistanceMeters>NAN</DistanceMeters>
          </Trackpoint>
          <Trackpoint>
            <Time>2022-07-11T19:13:10.000Z</Time>
            <Position>
              <LatitudeDegrees>43.25447713024914264678955078125</LatitudeDegrees>
              <LongitudeDegrees>-2.92141503654420375823974609375</LongitudeDegrees>
            </Position>
            <AltitudeMeters>35.40000152587890625</AltitudeMeters>
            <DistanceMeters>NAN</DistanceMeters>
          </Trackpoint>
          <Trackpoint>
            <Time>2022-07-11T19:13:12.000Z</Time>
            <Position>
              <LatitudeDegrees>43.25453412719070911407470703125</LatitudeDegrees>
              <LongitudeDegrees>-2.92147991247475147247314453125</LongitudeDegrees>
            </Position>
            <AltitudeMeters>35.40000152587890625</AltitudeMeters>
            <DistanceMeters>NAN</DistanceMeters>
          </Trackpoint>
          <Trackpoint>
            <Time>2022-07-11T19:13:16.000Z</Time>
            <Position>
              <LatitudeDegrees>43.25464476831257343292236328125</LatitudeDegrees>
              <LongitudeDegrees>-2.92160396464169025421142578125</LongitudeDegrees>
            </Position>
            <AltitudeMeters>35.59999847412109375</AltitudeMeters>
            <DistanceMeters>NAN</DistanceMeters>
          </Trackpoint>
          <Trackpoint>
            <Time>2022-07-11T19:13:22.000Z</Time>
            <Position>
              <LatitudeDegrees>43.2547900266945362091064453125</LatitudeDegrees>
              <LongitudeDegrees>-2.921814434230327606201171875</LongitudeDegrees>
            </Position>
            <AltitudeMeters>35.59999847412109375</AltitudeMeters>
            <DistanceMeters>NAN</DistanceMeters>
          </Trackpoint>
          <Trackpoint>
            <Time>2022-07-11T19:13:29.000Z</Time>
            <Position>
              <LatitudeDegrees>43.25495422817766666412353515625</LatitudeDegrees>
              <LongitudeDegrees>-2.92205356992781162261962890625</LongitudeDegrees>
            </Position>
            <AltitudeMeters>35.799999237060546875</AltitudeMeters>
            <DistanceMeters>NAN</DistanceMeters>
          </Trackpoint>
          <Trackpoint>
            <Time>2022-07-11T19:13:37.000Z</Time>
            <Position>
              <LatitudeDegrees>43.25517064891755580902099609375</LatitudeDegrees>
              <LongitudeDegrees>-2.92223143391311168670654296875</LongitudeDegrees>
            </Position>
            <AltitudeMeters>36.40000152587890625</AltitudeMeters>
            <DistanceMeters>NAN</DistanceMeters>
          </Trackpoint>
          <Trackpoint>
            <Time>2022-07-11T19:13:39.000Z</Time>
            <Position>
              <LatitudeDegrees>43.2552178390324115753173828125</LatitudeDegrees>
              <LongitudeDegrees>-2.92227418161928653717041015625</LongitudeDegrees>
            </Position>
            <AltitudeMeters>36.59999847412109375</AltitudeMeters>
            <DistanceMeters>NAN</DistanceMeters>
          </Trackpoint>
          <Trackpoint>
            <Time>2022-07-11T19:13:45.000Z</Time>
            <Position>
              <LatitudeDegrees>43.25532236136496067047119140625</LatitudeDegrees>
              <LongitudeDegrees>-2.9224080406129360198974609375</LongitudeDegrees>
            </Position>
            <AltitudeMeters>36.799999237060546875</AltitudeMeters>
            <DistanceMeters>NAN</DistanceMeters>
          </Trackpoint>
          <Trackpoint>
            <Time>2022-07-11T19:13:48.000Z</Time>
            <Position>
              <LatitudeDegrees>43.2553482614457607269287109375</LatitudeDegrees>
              <LongitudeDegrees>-2.9224745929241180419921875</LongitudeDegrees>
            </Position>
            <AltitudeMeters>37</AltitudeMeters>
            <DistanceMeters>NAN</DistanceMeters>
          </Trackpoint>
          <Trackpoint>
            <Time>2022-07-11T19:13:50.000Z</Time>
            <Position>
              <LatitudeDegrees>43.25536997057497501373291015625</LatitudeDegrees>
              <LongitudeDegrees>-2.9225344397127628326416015625</LongitudeDegrees>
            </Position>
            <AltitudeMeters>37.200000762939453125</AltitudeMeters>
            <DistanceMeters>NAN</DistanceMeters>
          </Trackpoint>
          <Trackpoint>
            <Time>2022-07-11T19:13:56.000Z</Time>
            <Position>
              <LatitudeDegrees>43.25539075769484043121337890625</LatitudeDegrees>
              <LongitudeDegrees>-2.92274759151041507720947265625</LongitudeDegrees>
            </Position>
            <AltitudeMeters>37.40000152587890625</AltitudeMeters>
            <DistanceMeters>NAN</DistanceMeters>
          </Trackpoint>
          <Trackpoint>
            <Time>2022-07-11T19:14:01.000Z</Time>
            <Position>
              <LatitudeDegrees>43.25540936551988124847412109375</LatitudeDegrees>
              <LongitudeDegrees>-2.92302335612475872039794921875</LongitudeDegrees>
            </Position>
            <AltitudeMeters>37.200000762939453125</AltitudeMeters>
            <DistanceMeters>NAN</DistanceMeters>
          </Trackpoint>
          <Trackpoint>
            <Time>2022-07-11T19:14:05.000Z</Time>
            <Position>
              <LatitudeDegrees>43.2554411329329013824462890625</LatitudeDegrees>
              <LongitudeDegrees>-2.923298366367816925048828125</LongitudeDegrees>
            </Position>
            <AltitudeMeters>36.59999847412109375</AltitudeMeters>
            <DistanceMeters>NAN</DistanceMeters>
          </Trackpoint>
          <Trackpoint>
            <Time>2022-07-11T19:14:07.000Z</Time>
            <Position>
              <LatitudeDegrees>43.2554461620748043060302734375</LatitudeDegrees>
              <LongitudeDegrees>-2.9234468936920166015625</LongitudeDegrees>
            </Position>
            <AltitudeMeters>36.200000762939453125</AltitudeMeters>
            <DistanceMeters>NAN</DistanceMeters>
          </Trackpoint>
          <Trackpoint>
            <Time>2022-07-11T19:14:08.000Z</Time>
            <Position>
              <LatitudeDegrees>43.25545529834926128387451171875</LatitudeDegrees>
              <LongitudeDegrees>-2.923527695238590240478515625</LongitudeDegrees>
            </Position>
            <AltitudeMeters>36</AltitudeMeters>
            <DistanceMeters>NAN</DistanceMeters>
          </Trackpoint>
          <Trackpoint>
            <Time>2022-07-11T19:14:10.000Z</Time>
            <Position>
              <LatitudeDegrees>43.2554890774190425872802734375</LatitudeDegrees>
              <LongitudeDegrees>-2.923686616122722625732421875</LongitudeDegrees>
            </Position>
            <AltitudeMeters>35.799999237060546875</AltitudeMeters>
            <DistanceMeters>NAN</DistanceMeters>
          </Trackpoint>
          <Trackpoint>
            <Time>2022-07-11T19:14:12.000Z</Time>
            <Position>
              <LatitudeDegrees>43.255536854267120361328125</LatitudeDegrees>
              <LongitudeDegrees>-2.9238322935998439788818359375</LongitudeDegrees>
            </Position>
            <AltitudeMeters>35.59999847412109375</AltitudeMeters>
            <DistanceMeters>NAN</DistanceMeters>
          </Trackpoint>
          <Trackpoint>
            <Time>2022-07-11T19:14:19.000Z</Time>
            <Position>
              <LatitudeDegrees>43.2557391934096813201904296875</LatitudeDegrees>
              <LongitudeDegrees>-2.924295477569103240966796875</LongitudeDegrees>
            </Position>
            <AltitudeMeters>34.59999847412109375</AltitudeMeters>
            <DistanceMeters>NAN</DistanceMeters>
          </Trackpoint>
          <Trackpoint>
            <Time>2022-07-11T19:14:20.000Z</Time>
            <Position>
              <LatitudeDegrees>43.25576123781502246856689453125</LatitudeDegrees>
              <LongitudeDegrees>-2.924355827271938323974609375</LongitudeDegrees>
            </Position>
            <AltitudeMeters>34.59999847412109375</AltitudeMeters>
            <DistanceMeters>NAN</DistanceMeters>
          </Trackpoint>
          <Trackpoint>
            <Time>2022-07-11T19:14:26.000Z</Time>
            <Position>
              <LatitudeDegrees>43.25589400716125965118408203125</LatitudeDegrees>
              <LongitudeDegrees>-2.924694456160068511962890625</LongitudeDegrees>
            </Position>
            <AltitudeMeters>34</AltitudeMeters>
            <DistanceMeters>NAN</DistanceMeters>
          </Trackpoint>
          <Trackpoint>
            <Time>2022-07-11T19:14:28.000Z</Time>
            <Position>
              <LatitudeDegrees>43.255933821201324462890625</LatitudeDegrees>
              <LongitudeDegrees>-2.9248015768826007843017578125</LongitudeDegrees>
            </Position>
            <AltitudeMeters>34</AltitudeMeters>
            <DistanceMeters>NAN</DistanceMeters>
          </Trackpoint>
          <Trackpoint>
            <Time>2022-07-11T19:14:36.000Z</Time>
            <Position>
              <LatitudeDegrees>43.2561281137168407440185546875</LatitudeDegrees>
              <LongitudeDegrees>-2.92518370784819126129150390625</LongitudeDegrees>
            </Position>
            <AltitudeMeters>33.59999847412109375</AltitudeMeters>
            <DistanceMeters>NAN</DistanceMeters>
          </Trackpoint>
          <Trackpoint>
            <Time>2022-07-11T19:14:37.000Z</Time>
            <Position>
              <LatitudeDegrees>43.25615971349179744720458984375</LatitudeDegrees>
              <LongitudeDegrees>-2.92521907947957515716552734375</LongitudeDegrees>
            </Position>
            <AltitudeMeters>33.59999847412109375</AltitudeMeters>
            <DistanceMeters>NAN</DistanceMeters>
          </Trackpoint>
          <Trackpoint>
            <Time>2022-07-11T19:14:42.000Z</Time>
            <Position>
              <LatitudeDegrees>43.25632953085005283355712890625</LatitudeDegrees>
              <LongitudeDegrees>-2.92539325542747974395751953125</LongitudeDegrees>
            </Position>
            <AltitudeMeters>33.799999237060546875</AltitudeMeters>
            <DistanceMeters>NAN</DistanceMeters>
          </Trackpoint>
          <Trackpoint>
            <Time>2022-07-11T19:14:50.000Z</Time>
            <Position>
              <LatitudeDegrees>43.256593309342861175537109375</LatitudeDegrees>
              <LongitudeDegrees>-2.92566306889057159423828125</LongitudeDegrees>
            </Position>
            <AltitudeMeters>33.59999847412109375</AltitudeMeters>
            <DistanceMeters>NAN</DistanceMeters>
          </Trackpoint>
          <Trackpoint>
            <Time>2022-07-11T19:14:55.000Z</Time>
            <Position>
              <LatitudeDegrees>43.2567746937274932861328125</LatitudeDegrees>
              <LongitudeDegrees>-2.92584411799907684326171875</LongitudeDegrees>
            </Position>
            <AltitudeMeters>33.40000152587890625</AltitudeMeters>
            <DistanceMeters>NAN</DistanceMeters>
          </Trackpoint>
          <Trackpoint>
            <Time>2022-07-11T19:14:59.000Z</Time>
            <Position>
              <LatitudeDegrees>43.2569150067865848541259765625</LatitudeDegrees>
              <LongitudeDegrees>-2.9259882867336273193359375</LongitudeDegrees>
            </Position>
            <AltitudeMeters>33.59999847412109375</AltitudeMeters>
            <DistanceMeters>NAN</DistanceMeters>
          </Trackpoint>
          <Trackpoint>
            <Time>2022-07-11T19:15:02.000Z</Time>
            <Position>
              <LatitudeDegrees>43.25701734982430934906005859375</LatitudeDegrees>
              <LongitudeDegrees>-2.926074452698230743408203125</LongitudeDegrees>
            </Position>
            <AltitudeMeters>33.40000152587890625</AltitudeMeters>
            <DistanceMeters>NAN</DistanceMeters>
          </Trackpoint>
          <Trackpoint>
            <Time>2022-07-11T19:15:07.000Z</Time>
            <Position>
              <LatitudeDegrees>43.25721348635852336883544921875</LatitudeDegrees>
              <LongitudeDegrees>-2.926212251186370849609375</LongitudeDegrees>
            </Position>
            <AltitudeMeters>33.200000762939453125</AltitudeMeters>
            <DistanceMeters>NAN</DistanceMeters>
          </Trackpoint>
          <Trackpoint>
            <Time>2022-07-11T19:15:13.000Z</Time>
            <Position>
              <LatitudeDegrees>43.25740040279924869537353515625</LatitudeDegrees>
              <LongitudeDegrees>-2.92634577490389347076416015625</LongitudeDegrees>
            </Position>
            <AltitudeMeters>33</AltitudeMeters>
            <DistanceMeters>NAN</DistanceMeters>
          </Trackpoint>
          <Trackpoint>
            <Time>2022-07-11T19:15:19.000Z</Time>
            <Position>
              <LatitudeDegrees>43.2575456611812114715576171875</LatitudeDegrees>
              <LongitudeDegrees>-2.9264769516885280609130859375</LongitudeDegrees>
            </Position>
            <AltitudeMeters>33.40000152587890625</AltitudeMeters>
            <DistanceMeters>NAN</DistanceMeters>
          </Trackpoint>
          <Trackpoint>
            <Time>2022-07-11T19:15:24.000Z</Time>
            <Position>
              <LatitudeDegrees>43.2575751654803752899169921875</LatitudeDegrees>
              <LongitudeDegrees>-2.92660846374928951263427734375</LongitudeDegrees>
            </Position>
            <AltitudeMeters>33.799999237060546875</AltitudeMeters>
            <DistanceMeters>NAN</DistanceMeters>
          </Trackpoint>
          <Trackpoint>
            <Time>2022-07-11T19:15:27.000Z</Time>
            <Position>
              <LatitudeDegrees>43.25756619684398174285888671875</LatitudeDegrees>
              <LongitudeDegrees>-2.9266647063195705413818359375</LongitudeDegrees>
            </Position>
            <AltitudeMeters>34</AltitudeMeters>
            <DistanceMeters>NAN</DistanceMeters>
          </Trackpoint>
          <Trackpoint>
            <Time>2022-07-11T19:15:31.000Z</Time>
            <Position>
              <LatitudeDegrees>43.257532417774200439453125</LatitudeDegrees>
              <LongitudeDegrees>-2.92676587589085102081298828125</LongitudeDegrees>
            </Position>
            <AltitudeMeters>34.59999847412109375</AltitudeMeters>
            <DistanceMeters>NAN</DistanceMeters>
          </Trackpoint>
          <Trackpoint>
            <Time>2022-07-11T19:15:36.000Z</Time>
            <Position>
              <LatitudeDegrees>43.257501907646656036376953125</LatitudeDegrees>
              <LongitudeDegrees>-2.9269017465412616729736328125</LongitudeDegrees>
            </Position>
            <AltitudeMeters>35</AltitudeMeters>
            <DistanceMeters>NAN</DistanceMeters>
          </Trackpoint>
          <Trackpoint>
            <Time>2022-07-11T19:15:40.000Z</Time>
            <Position>
              <LatitudeDegrees>43.257470391690731048583984375</LatitudeDegrees>
              <LongitudeDegrees>-2.92699838988482952117919921875</LongitudeDegrees>
            </Position>
            <AltitudeMeters>35.200000762939453125</AltitudeMeters>
            <DistanceMeters>NAN</DistanceMeters>
          </Trackpoint>
          <Trackpoint>
            <Time>2022-07-11T19:15:41.000Z</Time>
            <Position>
              <LatitudeDegrees>43.25746041722595691680908203125</LatitudeDegrees>
              <LongitudeDegrees>-2.92702563107013702392578125</LongitudeDegrees>
            </Position>
            <AltitudeMeters>35.200000762939453125</AltitudeMeters>
            <DistanceMeters>NAN</DistanceMeters>
          </Trackpoint>
          <Trackpoint>
            <Time>2022-07-11T19:15:44.000Z</Time>
            <Position>
              <LatitudeDegrees>43.2574306614696979522705078125</LatitudeDegrees>
              <LongitudeDegrees>-2.9271040856838226318359375</LongitudeDegrees>
            </Position>
            <AltitudeMeters>35.59999847412109375</AltitudeMeters>
            <DistanceMeters>NAN</DistanceMeters>
          </Trackpoint>
          <Trackpoint>
            <Time>2022-07-11T19:15:48.000Z</Time>
            <Position>
              <LatitudeDegrees>43.2574092037975788116455078125</LatitudeDegrees>
              <LongitudeDegrees>-2.92719318531453609466552734375</LongitudeDegrees>
            </Position>
            <AltitudeMeters>35.799999237060546875</AltitudeMeters>
            <DistanceMeters>NAN</DistanceMeters>
          </Trackpoint>
          <Trackpoint>
            <Time>2022-07-11T19:15:57.000Z</Time>
            <Position>
              <LatitudeDegrees>43.25734994374215602874755859375</LatitudeDegrees>
              <LongitudeDegrees>-2.92744631879031658172607421875</LongitudeDegrees>
            </Position>
            <AltitudeMeters>36.59999847412109375</AltitudeMeters>
            <DistanceMeters>NAN</DistanceMeters>
          </Trackpoint>
          <Trackpoint>
            <Time>2022-07-11T19:16:00.000Z</Time>
            <Position>
              <LatitudeDegrees>43.25731457211077213287353515625</LatitudeDegrees>
              <LongitudeDegrees>-2.92750113643705844879150390625</LongitudeDegrees>
            </Position>
            <AltitudeMeters>36.59999847412109375</AltitudeMeters>
            <DistanceMeters>NAN</DistanceMeters>
          </Trackpoint>
          <Trackpoint>
            <Time>2022-07-11T19:16:03.000Z</Time>
            <Position>
              <LatitudeDegrees>43.2573052681982517242431640625</LatitudeDegrees>
              <LongitudeDegrees>-2.927564084529876708984375</LongitudeDegrees>
            </Position>
            <AltitudeMeters>37</AltitudeMeters>
            <DistanceMeters>NAN</DistanceMeters>
          </Trackpoint>
          <Trackpoint>
            <Time>2022-07-11T19:16:05.000Z</Time>
            <Position>
              <LatitudeDegrees>43.257307112216949462890625</LatitudeDegrees>
              <LongitudeDegrees>-2.92760842479765415191650390625</LongitudeDegrees>
            </Position>
            <AltitudeMeters>37.200000762939453125</AltitudeMeters>
            <DistanceMeters>NAN</DistanceMeters>
          </Trackpoint>
          <Trackpoint>
            <Time>2022-07-11T19:16:08.000Z</Time>
            <Position>
              <LatitudeDegrees>43.25729914940893650054931640625</LatitudeDegrees>
              <LongitudeDegrees>-2.92764077894389629364013671875</LongitudeDegrees>
            </Position>
            <AltitudeMeters>37.59999847412109375</AltitudeMeters>
            <DistanceMeters>NAN</DistanceMeters>
          </Trackpoint>
          <Trackpoint>
            <Time>2022-07-11T19:16:09.000Z</Time>
            <Position>
              <LatitudeDegrees>43.257296718657016754150390625</LatitudeDegrees>
              <LongitudeDegrees>-2.92764253914356231689453125</LongitudeDegrees>
            </Position>
            <AltitudeMeters>37.799999237060546875</AltitudeMeters>
            <DistanceMeters>NAN</DistanceMeters>
          </Trackpoint>
          <Trackpoint>
            <Time>2022-07-11T19:16:11.000Z</Time>
            <Position>
              <LatitudeDegrees>43.25727668590843677520751953125</LatitudeDegrees>
              <LongitudeDegrees>-2.92765938676893711090087890625</LongitudeDegrees>
            </Position>
            <AltitudeMeters>38</AltitudeMeters>
            <DistanceMeters>NAN</DistanceMeters>
          </Trackpoint>
          <Trackpoint>
            <Time>2022-07-11T19:16:14.000Z</Time>
            <Position>
              <LatitudeDegrees>43.25722857378423213958740234375</LatitudeDegrees>
              <LongitudeDegrees>-2.9277174733579158782958984375</LongitudeDegrees>
            </Position>
            <AltitudeMeters>38.40000152587890625</AltitudeMeters>
            <DistanceMeters>NAN</DistanceMeters>
          </Trackpoint>
          <Trackpoint>
            <Time>2022-07-11T19:16:18.000Z</Time>
            <Position>
              <LatitudeDegrees>43.25717861764132976531982421875</LatitudeDegrees>
              <LongitudeDegrees>-2.92778075672686100006103515625</LongitudeDegrees>
            </Position>
            <AltitudeMeters>38.799999237060546875</AltitudeMeters>
            <DistanceMeters>NAN</DistanceMeters>
          </Trackpoint>
          <Trackpoint>
            <Time>2022-07-11T19:16:20.000Z</Time>
            <Position>
              <LatitudeDegrees>43.257190100848674774169921875</LatitudeDegrees>
              <LongitudeDegrees>-2.92783029377460479736328125</LongitudeDegrees>
            </Position>
            <AltitudeMeters>39</AltitudeMeters>
            <DistanceMeters>NAN</DistanceMeters>
          </Trackpoint>
          <Trackpoint>
            <Time>2022-07-11T19:16:21.000Z</Time>
            <Position>
              <LatitudeDegrees>43.2571889273822307586669921875</LatitudeDegrees>
              <LongitudeDegrees>-2.92784546501934528350830078125</LongitudeDegrees>
            </Position>
            <AltitudeMeters>39.200000762939453125</AltitudeMeters>
            <DistanceMeters>NAN</DistanceMeters>
          </Trackpoint>
          <Trackpoint>
            <Time>2022-07-11T19:16:23.000Z</Time>
            <Position>
              <LatitudeDegrees>43.25718917883932590484619140625</LatitudeDegrees>
              <LongitudeDegrees>-2.92787320911884307861328125</LongitudeDegrees>
            </Position>
            <AltitudeMeters>39.200000762939453125</AltitudeMeters>
            <DistanceMeters>NAN</DistanceMeters>
          </Trackpoint>
          <Trackpoint>
            <Time>2022-07-11T19:16:27.000Z</Time>
            <Position>
              <LatitudeDegrees>43.257229663431644439697265625</LatitudeDegrees>
              <LongitudeDegrees>-2.9279199801385402679443359375</LongitudeDegrees>
            </Position>
            <AltitudeMeters>39.799999237060546875</AltitudeMeters>
            <DistanceMeters>NAN</DistanceMeters>
          </Trackpoint>
          <Trackpoint>
            <Time>2022-07-11T19:16:28.000Z</Time>
            <Position>
              <LatitudeDegrees>43.25723159126937389373779296875</LatitudeDegrees>
              <LongitudeDegrees>-2.92792576365172863006591796875</LongitudeDegrees>
            </Position>
            <AltitudeMeters>39.799999237060546875</AltitudeMeters>
            <DistanceMeters>NAN</DistanceMeters>
          </Trackpoint>
          <Trackpoint>
            <Time>2022-07-11T19:16:29.000Z</Time>
            <Position>
              <LatitudeDegrees>43.25722572393715381622314453125</LatitudeDegrees>
              <LongitudeDegrees>-2.92794160544872283935546875</LongitudeDegrees>
            </Position>
            <AltitudeMeters>40</AltitudeMeters>
            <DistanceMeters>NAN</DistanceMeters>
          </Trackpoint>
          <Trackpoint>
            <Time>2022-07-11T19:16:32.000Z</Time>
            <Position>
              <LatitudeDegrees>43.2572445832192897796630859375</LatitudeDegrees>
              <LongitudeDegrees>-2.9280048049986362457275390625</LongitudeDegrees>
            </Position>
            <AltitudeMeters>40.40000152587890625</AltitudeMeters>
            <DistanceMeters>NAN</DistanceMeters>
          </Trackpoint>
          <Trackpoint>
            <Time>2022-07-11T19:16:34.000Z</Time>
            <Position>
              <LatitudeDegrees>43.2572710700333118438720703125</LatitudeDegrees>
              <LongitudeDegrees>-2.92804528959095478057861328125</LongitudeDegrees>
            </Position>
            <AltitudeMeters>40.799999237060546875</AltitudeMeters>
            <DistanceMeters>NAN</DistanceMeters>
          </Trackpoint>
          <Trackpoint>
            <Time>2022-07-11T19:16:35.000Z</Time>
            <Position>
              <LatitudeDegrees>43.2572844810783863067626953125</LatitudeDegrees>
              <LongitudeDegrees>-2.92806574143469333648681640625</LongitudeDegrees>
            </Position>
            <AltitudeMeters>41</AltitudeMeters>
            <DistanceMeters>NAN</DistanceMeters>
          </Trackpoint>
          <Trackpoint>
            <Time>2022-07-11T19:16:36.000Z</Time>
            <Position>
              <LatitudeDegrees>43.25729730539023876190185546875</LatitudeDegrees>
              <LongitudeDegrees>-2.928079068660736083984375</LongitudeDegrees>
            </Position>
            <AltitudeMeters>41</AltitudeMeters>
            <DistanceMeters>NAN</DistanceMeters>
          </Trackpoint>
          <Trackpoint>
            <Time>2022-07-11T19:16:39.000Z</Time>
            <Position>
              <LatitudeDegrees>43.25735446996986865997314453125</LatitudeDegrees>
              <LongitudeDegrees>-2.92813497595489025115966796875</LongitudeDegrees>
            </Position>
            <AltitudeMeters>41.40000152587890625</AltitudeMeters>
            <DistanceMeters>NAN</DistanceMeters>
          </Trackpoint>
          <Trackpoint>
            <Time>2022-07-11T19:16:43.000Z</Time>
            <Position>
              <LatitudeDegrees>43.25739487074315547943115234375</LatitudeDegrees>
              <LongitudeDegrees>-2.9282321222126483917236328125</LongitudeDegrees>
            </Position>
            <AltitudeMeters>42</AltitudeMeters>
            <DistanceMeters>NAN</DistanceMeters>
          </Trackpoint>
          <Trackpoint>
            <Time>2022-07-11T19:16:45.000Z</Time>
            <Position>
              <LatitudeDegrees>43.2574184238910675048828125</LatitudeDegrees>
              <LongitudeDegrees>-2.92826950550079345703125</LongitudeDegrees>
            </Position>
            <AltitudeMeters>42.200000762939453125</AltitudeMeters>
            <DistanceMeters>NAN</DistanceMeters>
          </Trackpoint>
          <Trackpoint>
            <Time>2022-07-11T19:16:46.000Z</Time>
            <Position>
              <LatitudeDegrees>43.2574336789548397064208984375</LatitudeDegrees>
              <LongitudeDegrees>-2.92828870005905628204345703125</LongitudeDegrees>
            </Position>
            <AltitudeMeters>42.40000152587890625</AltitudeMeters>
            <DistanceMeters>NAN</DistanceMeters>
          </Trackpoint>
          <Trackpoint>
            <Time>2022-07-11T19:16:49.000Z</Time>
            <Position>
              <LatitudeDegrees>43.25746871531009674072265625</LatitudeDegrees>
              <LongitudeDegrees>-2.92834200896322727203369140625</LongitudeDegrees>
            </Position>
            <AltitudeMeters>42.59999847412109375</AltitudeMeters>
            <DistanceMeters>NAN</DistanceMeters>
          </Trackpoint>
          <Trackpoint>
            <Time>2022-07-11T19:16:52.000Z</Time>
            <Position>
              <LatitudeDegrees>43.257504589855670928955078125</LatitudeDegrees>
              <LongitudeDegrees>-2.92837880551815032958984375</LongitudeDegrees>
            </Position>
            <AltitudeMeters>43.200000762939453125</AltitudeMeters>
            <DistanceMeters>NAN</DistanceMeters>
          </Trackpoint>
          <Trackpoint>
            <Time>2022-07-11T19:16:53.000Z</Time>
            <Position>
              <LatitudeDegrees>43.25750534422695636749267578125</LatitudeDegrees>
              <LongitudeDegrees>-2.928381823003292083740234375</LongitudeDegrees>
            </Position>
            <AltitudeMeters>43.200000762939453125</AltitudeMeters>
            <DistanceMeters>NAN</DistanceMeters>
          </Trackpoint>
          <Trackpoint>
            <Time>2022-07-11T19:16:58.000Z</Time>
            <Position>
              <LatitudeDegrees>43.257484138011932373046875</LatitudeDegrees>
              <LongitudeDegrees>-2.928418032824993133544921875</LongitudeDegrees>
            </Position>
            <AltitudeMeters>43.59999847412109375</AltitudeMeters>
            <DistanceMeters>NAN</DistanceMeters>
          </Trackpoint>
          <Trackpoint>
            <Time>2022-07-11T19:16:59.000Z</Time>
            <Position>
              <LatitudeDegrees>43.25747533701360225677490234375</LatitudeDegrees>
              <LongitudeDegrees>-2.928429432213306427001953125</LongitudeDegrees>
            </Position>
            <AltitudeMeters>43.59999847412109375</AltitudeMeters>
            <DistanceMeters>NAN</DistanceMeters>
          </Trackpoint>
          <Trackpoint>
            <Time>2022-07-11T19:17:03.000Z</Time>
            <Position>
              <LatitudeDegrees>43.257450945675373077392578125</LatitudeDegrees>
              <LongitudeDegrees>-2.9284715093672275543212890625</LongitudeDegrees>
            </Position>
            <AltitudeMeters>44.200000762939453125</AltitudeMeters>
            <DistanceMeters>NAN</DistanceMeters>
          </Trackpoint>
          <Trackpoint>
            <Time>2022-07-11T19:17:04.000Z</Time>
            <Position>
              <LatitudeDegrees>43.257450945675373077392578125</LatitudeDegrees>
              <LongitudeDegrees>-2.9284715093672275543212890625</LongitudeDegrees>
            </Position>
            <AltitudeMeters>44.40000152587890625</AltitudeMeters>
            <DistanceMeters>NAN</DistanceMeters>
          </Trackpoint>
          <Trackpoint>
            <Time>2022-07-12T10:47:37.000Z</Time>
            <Position>
              <LatitudeDegrees>43.25753577053546905517578125</LatitudeDegrees>
              <LongitudeDegrees>-2.928748615086078643798828125</LongitudeDegrees>
            </Position>
            <AltitudeMeters>-42</AltitudeMeters>
            <DistanceMeters>NAN</DistanceMeters>
          </Trackpoint>
          <Trackpoint>
            <Time>2022-07-12T10:47:38.000Z</Time>
            <Position>
              <LatitudeDegrees>43.25752378441393375396728515625</LatitudeDegrees>
              <LongitudeDegrees>-2.9287427477538585662841796875</LongitudeDegrees>
            </Position>
            <AltitudeMeters>-42.40000152587890625</AltitudeMeters>
            <DistanceMeters>NAN</DistanceMeters>
          </Trackpoint>
          <Trackpoint>
            <Time>2022-07-12T10:47:40.000Z</Time>
            <Position>
              <LatitudeDegrees>43.25753652490675449371337890625</LatitudeDegrees>
              <LongitudeDegrees>-2.92873042635619640350341796875</LongitudeDegrees>
            </Position>
            <AltitudeMeters>-42.799999237060546875</AltitudeMeters>
            <DistanceMeters>NAN</DistanceMeters>
          </Trackpoint>
          <Trackpoint>
            <Time>2022-07-12T10:47:42.000Z</Time>
            <Position>
              <LatitudeDegrees>43.25757734477519989013671875</LatitudeDegrees>
              <LongitudeDegrees>-2.92871081270277500152587890625</LongitudeDegrees>
            </Position>
            <AltitudeMeters>-42.799999237060546875</AltitudeMeters>
            <DistanceMeters>NAN</DistanceMeters>
          </Trackpoint>
          <Trackpoint>
            <Time>2022-07-12T10:47:44.000Z</Time>
            <Position>
              <LatitudeDegrees>43.2576117105782032012939453125</LatitudeDegrees>
              <LongitudeDegrees>-2.928690612316131591796875</LongitudeDegrees>
            </Position>
            <AltitudeMeters>-43</AltitudeMeters>
            <DistanceMeters>NAN</DistanceMeters>
          </Trackpoint>
          <Trackpoint>
            <Time>2022-07-12T10:47:45.000Z</Time>
            <Position>
              <LatitudeDegrees>43.25763040222227573394775390625</LatitudeDegrees>
              <LongitudeDegrees>-2.9286616109311580657958984375</LongitudeDegrees>
            </Position>
            <AltitudeMeters>-43.200000762939453125</AltitudeMeters>
            <DistanceMeters>NAN</DistanceMeters>
          </Trackpoint>
          <Trackpoint>
            <Time>2022-07-12T10:47:46.000Z</Time>
            <Position>
              <LatitudeDegrees>43.25765688903629779815673828125</LatitudeDegrees>
              <LongitudeDegrees>-2.92862330563366413116455078125</LongitudeDegrees>
            </Position>
            <AltitudeMeters>-43.200000762939453125</AltitudeMeters>
            <DistanceMeters>NAN</DistanceMeters>
          </Trackpoint>
          <Trackpoint>
            <Time>2022-07-12T10:47:49.000Z</Time>
            <Position>
              <LatitudeDegrees>43.25775613076984882354736328125</LatitudeDegrees>
              <LongitudeDegrees>-2.92849875055253505706787109375</LongitudeDegrees>
            </Position>
            <AltitudeMeters>-43.799999237060546875</AltitudeMeters>
            <DistanceMeters>NAN</DistanceMeters>
          </Trackpoint>
          <Trackpoint>
            <Time>2022-07-12T10:47:50.000Z</Time>
            <Position>
              <LatitudeDegrees>43.2577924244105815887451171875</LatitudeDegrees>
              <LongitudeDegrees>-2.9284510575234889984130859375</LongitudeDegrees>
            </Position>
            <AltitudeMeters>-43.799999237060546875</AltitudeMeters>
            <DistanceMeters>NAN</DistanceMeters>
          </Trackpoint>
          <Trackpoint>
            <Time>2022-07-12T10:47:55.000Z</Time>
            <Position>
              <LatitudeDegrees>43.2579146325588226318359375</LatitudeDegrees>
              <LongitudeDegrees>-2.92820001952350139617919921875</LongitudeDegrees>
            </Position>
            <AltitudeMeters>-45</AltitudeMeters>
            <DistanceMeters>NAN</DistanceMeters>
          </Trackpoint>
          <Trackpoint>
            <Time>2022-07-12T10:48:00.000Z</Time>
            <Position>
              <LatitudeDegrees>43.2580076716840267181396484375</LatitudeDegrees>
              <LongitudeDegrees>-2.92805534787476062774658203125</LongitudeDegrees>
            </Position>
            <AltitudeMeters>-46</AltitudeMeters>
            <DistanceMeters>NAN</DistanceMeters>
          </Trackpoint>
          <Trackpoint>
            <Time>2022-07-12T10:48:03.000Z</Time>
            <Position>
              <LatitudeDegrees>43.25800188817083835601806640625</LatitudeDegrees>
              <LongitudeDegrees>-2.92796976864337921142578125</LongitudeDegrees>
            </Position>
            <AltitudeMeters>-46.40000152587890625</AltitudeMeters>
            <DistanceMeters>NAN</DistanceMeters>
          </Trackpoint>
          <Trackpoint>
            <Time>2022-07-12T10:48:04.000Z</Time>
            <Position>
              <LatitudeDegrees>43.258004486560821533203125</LatitudeDegrees>
              <LongitudeDegrees>-2.927961051464080810546875</LongitudeDegrees>
            </Position>
            <AltitudeMeters>-46.59999847412109375</AltitudeMeters>
            <DistanceMeters>NAN</DistanceMeters>
          </Trackpoint>
          <Trackpoint>
            <Time>2022-07-12T10:49:09.000Z</Time>
            <Position>
              <LatitudeDegrees>43.2580502517521381378173828125</LatitudeDegrees>
              <LongitudeDegrees>-2.9276956804096698760986328125</LongitudeDegrees>
            </Position>
            <AltitudeMeters>-47.59999847412109375</AltitudeMeters>
            <DistanceMeters>NAN</DistanceMeters>
          </Trackpoint>
          <Trackpoint>
            <Time>2022-07-12T10:49:10.000Z</Time>
            <Position>
              <LatitudeDegrees>43.2580782473087310791015625</LatitudeDegrees>
              <LongitudeDegrees>-2.9276673495769500732421875</LongitudeDegrees>
            </Position>
            <AltitudeMeters>-47.799999237060546875</AltitudeMeters>
            <DistanceMeters>NAN</DistanceMeters>
          </Trackpoint>
          <Trackpoint>
            <Time>2022-07-12T10:49:11.000Z</Time>
            <Position>
              <LatitudeDegrees>43.258110098540782928466796875</LatitudeDegrees>
              <LongitudeDegrees>-2.92765284888446331024169921875</LongitudeDegrees>
            </Position>
            <AltitudeMeters>-47.799999237060546875</AltitudeMeters>
            <DistanceMeters>NAN</DistanceMeters>
          </Trackpoint>
          <Trackpoint>
            <Time>2022-07-12T10:49:15.000Z</Time>
            <Position>
              <LatitudeDegrees>43.25817991979420185089111328125</LatitudeDegrees>
              <LongitudeDegrees>-2.9276780784130096435546875</LongitudeDegrees>
            </Position>
            <AltitudeMeters>-47.59999847412109375</AltitudeMeters>
            <DistanceMeters>NAN</DistanceMeters>
          </Trackpoint>
          <Trackpoint>
            <Time>2022-07-12T10:49:18.000Z</Time>
            <Position>
              <LatitudeDegrees>43.25822778046131134033203125</LatitudeDegrees>
              <LongitudeDegrees>-2.9277121089398860931396484375</LongitudeDegrees>
            </Position>
            <AltitudeMeters>-47.200000762939453125</AltitudeMeters>
            <DistanceMeters>NAN</DistanceMeters>
          </Trackpoint>
          <Trackpoint>
            <Time>2022-07-12T10:49:19.000Z</Time>
            <Position>
              <LatitudeDegrees>43.2582457177340984344482421875</LatitudeDegrees>
              <LongitudeDegrees>-2.9277255199849605560302734375</LongitudeDegrees>
            </Position>
            <AltitudeMeters>-47</AltitudeMeters>
            <DistanceMeters>NAN</DistanceMeters>
          </Trackpoint>
          <Trackpoint>
            <Time>2022-07-12T10:49:21.000Z</Time>
            <Position>
              <LatitudeDegrees>43.25828301720321178436279296875</LatitudeDegrees>
              <LongitudeDegrees>-2.92773281224071979522705078125</LongitudeDegrees>
            </Position>
            <AltitudeMeters>-46.59999847412109375</AltitudeMeters>
            <DistanceMeters>NAN</DistanceMeters>
          </Trackpoint>
          <Trackpoint>
            <Time>2022-07-12T10:49:23.000Z</Time>
            <Position>
              <LatitudeDegrees>43.25832031667232513427734375</LatitudeDegrees>
              <LongitudeDegrees>-2.92773306369781494140625</LongitudeDegrees>
            </Position>
            <AltitudeMeters>-46.40000152587890625</AltitudeMeters>
            <DistanceMeters>NAN</DistanceMeters>
          </Trackpoint>
          <Trackpoint>
            <Time>2022-07-12T10:49:24.000Z</Time>
            <Position>
              <LatitudeDegrees>43.258338086307048797607421875</LatitudeDegrees>
              <LongitudeDegrees>-2.9277392663061618804931640625</LongitudeDegrees>
            </Position>
            <AltitudeMeters>-46.200000762939453125</AltitudeMeters>
            <DistanceMeters>NAN</DistanceMeters>
          </Trackpoint>
          <Trackpoint>
            <Time>2022-07-12T10:49:28.000Z</Time>
            <Position>
              <LatitudeDegrees>43.25839835219085216522216796875</LatitudeDegrees>
              <LongitudeDegrees>-2.9277848638594150543212890625</LongitudeDegrees>
            </Position>
            <AltitudeMeters>-45.40000152587890625</AltitudeMeters>
            <DistanceMeters>NAN</DistanceMeters>
          </Trackpoint>
          <Trackpoint>
            <Time>2022-07-12T10:49:30.000Z</Time>
            <Position>
              <LatitudeDegrees>43.2584177143871784210205078125</LatitudeDegrees>
              <LongitudeDegrees>-2.92786122299730777740478515625</LongitudeDegrees>
            </Position>
            <AltitudeMeters>-45.200000762939453125</AltitudeMeters>
            <DistanceMeters>NAN</DistanceMeters>
          </Trackpoint>
          <Trackpoint>
            <Time>2022-07-12T10:49:32.000Z</Time>
            <Position>
              <LatitudeDegrees>43.25844244100153446197509765625</LatitudeDegrees>
              <LongitudeDegrees>-2.9279313795268535614013671875</LongitudeDegrees>
            </Position>
            <AltitudeMeters>-44.799999237060546875</AltitudeMeters>
            <DistanceMeters>NAN</DistanceMeters>
          </Trackpoint>
          <Trackpoint>
            <Time>2022-07-12T10:49:34.000Z</Time>
            <Position>
              <LatitudeDegrees>43.25846892781555652618408203125</LatitudeDegrees>
              <LongitudeDegrees>-2.927950322628021240234375</LongitudeDegrees>
            </Position>
            <AltitudeMeters>-44.59999847412109375</AltitudeMeters>
            <DistanceMeters>NAN</DistanceMeters>
          </Trackpoint>
          <Trackpoint>
            <Time>2022-07-12T10:49:38.000Z</Time>
            <Position>
              <LatitudeDegrees>43.2586024515330791473388671875</LatitudeDegrees>
              <LongitudeDegrees>-2.92791905812919139862060546875</LongitudeDegrees>
            </Position>
            <AltitudeMeters>-44.59999847412109375</AltitudeMeters>
            <DistanceMeters>NAN</DistanceMeters>
          </Trackpoint>
          <Trackpoint>
            <Time>2022-07-12T10:49:39.000Z</Time>
            <Position>
              <LatitudeDegrees>43.2586373202502727508544921875</LatitudeDegrees>
              <LongitudeDegrees>-2.927881591022014617919921875</LongitudeDegrees>
            </Position>
            <AltitudeMeters>-44.59999847412109375</AltitudeMeters>
            <DistanceMeters>NAN</DistanceMeters>
          </Trackpoint>
          <Trackpoint>
            <Time>2022-07-12T10:49:44.000Z</Time>
            <Position>
              <LatitudeDegrees>43.25875349342823028564453125</LatitudeDegrees>
              <LongitudeDegrees>-2.9276567883789539337158203125</LongitudeDegrees>
            </Position>
            <AltitudeMeters>-44.59999847412109375</AltitudeMeters>
            <DistanceMeters>NAN</DistanceMeters>
          </Trackpoint>
          <Trackpoint>
            <Time>2022-07-12T10:49:45.000Z</Time>
            <Position>
              <LatitudeDegrees>43.25876061804592609405517578125</LatitudeDegrees>
              <LongitudeDegrees>-2.927613370120525360107421875</LongitudeDegrees>
            </Position>
            <AltitudeMeters>-44.799999237060546875</AltitudeMeters>
            <DistanceMeters>NAN</DistanceMeters>
          </Trackpoint>
          <Trackpoint>
            <Time>2022-07-12T10:49:48.000Z</Time>
            <Position>
              <LatitudeDegrees>43.25884443707764148712158203125</LatitudeDegrees>
              <LongitudeDegrees>-2.9275116138160228729248046875</LongitudeDegrees>
            </Position>
            <AltitudeMeters>-45</AltitudeMeters>
            <DistanceMeters>NAN</DistanceMeters>
          </Trackpoint>
          <Trackpoint>
            <Time>2022-07-12T10:49:52.000Z</Time>
            <Position>
              <LatitudeDegrees>43.2589494623243808746337890625</LatitudeDegrees>
              <LongitudeDegrees>-2.92733970098197460174560546875</LongitudeDegrees>
            </Position>
            <AltitudeMeters>-45.40000152587890625</AltitudeMeters>
            <DistanceMeters>NAN</DistanceMeters>
          </Trackpoint>
          <Trackpoint>
            <Time>2022-07-12T10:49:53.000Z</Time>
            <Position>
              <LatitudeDegrees>43.25898391194641590118408203125</LatitudeDegrees>
              <LongitudeDegrees>-2.92730701155960559844970703125</LongitudeDegrees>
            </Position>
            <AltitudeMeters>-45.59999847412109375</AltitudeMeters>
            <DistanceMeters>NAN</DistanceMeters>
          </Trackpoint>
          <Trackpoint>
            <Time>2022-07-12T10:49:55.000Z</Time>
            <Position>
              <LatitudeDegrees>43.25905063189566135406494140625</LatitudeDegrees>
              <LongitudeDegrees>-2.92722419835627079010009765625</LongitudeDegrees>
            </Position>
            <AltitudeMeters>-45.59999847412109375</AltitudeMeters>
            <DistanceMeters>NAN</DistanceMeters>
          </Trackpoint>
          <Trackpoint>
            <Time>2022-07-12T10:49:56.000Z</Time>
            <Position>
              <LatitudeDegrees>43.2590882666409015655517578125</LatitudeDegrees>
              <LongitudeDegrees>-2.927185557782649993896484375</LongitudeDegrees>
            </Position>
            <AltitudeMeters>-45.799999237060546875</AltitudeMeters>
            <DistanceMeters>NAN</DistanceMeters>
          </Trackpoint>
          <Trackpoint>
            <Time>2022-07-12T10:49:58.000Z</Time>
            <Position>
              <LatitudeDegrees>43.25915674678981304168701171875</LatitudeDegrees>
              <LongitudeDegrees>-2.92709779925644397735595703125</LongitudeDegrees>
            </Position>
            <AltitudeMeters>-46</AltitudeMeters>
            <DistanceMeters>NAN</DistanceMeters>
          </Trackpoint>
          <Trackpoint>
            <Time>2022-07-12T10:50:00.000Z</Time>
            <Position>
              <LatitudeDegrees>43.25923201628029346466064453125</LatitudeDegrees>
              <LongitudeDegrees>-2.92700425721704959869384765625</LongitudeDegrees>
            </Position>
            <AltitudeMeters>-46</AltitudeMeters>
            <DistanceMeters>NAN</DistanceMeters>
          </Trackpoint>
          <Trackpoint>
            <Time>2022-07-12T10:50:01.000Z</Time>
            <Position>
              <LatitudeDegrees>43.259265124797821044921875</LatitudeDegrees>
              <LongitudeDegrees>-2.92695589363574981689453125</LongitudeDegrees>
            </Position>
            <AltitudeMeters>-46</AltitudeMeters>
            <DistanceMeters>NAN</DistanceMeters>
          </Trackpoint>
          <Trackpoint>
            <Time>2022-07-12T10:50:04.000Z</Time>
            <Position>
              <LatitudeDegrees>43.2593786157667636871337890625</LatitudeDegrees>
              <LongitudeDegrees>-2.92680158279836177825927734375</LongitudeDegrees>
            </Position>
            <AltitudeMeters>-46.59999847412109375</AltitudeMeters>
            <DistanceMeters>NAN</DistanceMeters>
          </Trackpoint>
          <Trackpoint>
            <Time>2022-07-12T10:50:05.000Z</Time>
            <Position>
              <LatitudeDegrees>43.25942312367260456085205078125</LatitudeDegrees>
              <LongitudeDegrees>-2.92675246484577655792236328125</LongitudeDegrees>
            </Position>
            <AltitudeMeters>-46.799999237060546875</AltitudeMeters>
            <DistanceMeters>NAN</DistanceMeters>
          </Trackpoint>
          <Trackpoint>
            <Time>2022-07-12T10:50:06.000Z</Time>
            <Position>
              <LatitudeDegrees>43.2594649493694305419921875</LatitudeDegrees>
              <LongitudeDegrees>-2.92671390809118747711181640625</LongitudeDegrees>
            </Position>
            <AltitudeMeters>-47.200000762939453125</AltitudeMeters>
            <DistanceMeters>NAN</DistanceMeters>
          </Trackpoint>
          <Trackpoint>
            <Time>2022-07-12T10:50:07.000Z</Time>
            <Position>
              <LatitudeDegrees>43.259498812258243560791015625</LatitudeDegrees>
              <LongitudeDegrees>-2.926692701876163482666015625</LongitudeDegrees>
            </Position>
            <AltitudeMeters>-47.59999847412109375</AltitudeMeters>
            <DistanceMeters>NAN</DistanceMeters>
          </Trackpoint>
          <Trackpoint>
            <Time>2022-07-12T10:50:08.000Z</Time>
            <Position>
              <LatitudeDegrees>43.259524293243885040283203125</LatitudeDegrees>
              <LongitudeDegrees>-2.92668633162975311279296875</LongitudeDegrees>
            </Position>
            <AltitudeMeters>-48</AltitudeMeters>
            <DistanceMeters>NAN</DistanceMeters>
          </Trackpoint>
          <Trackpoint>
            <Time>2022-07-12T10:50:11.000Z</Time>
            <Position>
              <LatitudeDegrees>43.2595479302108287811279296875</LatitudeDegrees>
              <LongitudeDegrees>-2.92668222449719905853271484375</LongitudeDegrees>
            </Position>
            <AltitudeMeters>-48.799999237060546875</AltitudeMeters>
            <DistanceMeters>NAN</DistanceMeters>
          </Trackpoint>
          <Trackpoint>
            <Time>2022-07-12T10:50:15.000Z</Time>
            <Position>
              <LatitudeDegrees>43.2596009038388729095458984375</LatitudeDegrees>
              <LongitudeDegrees>-2.92666579596698284149169921875</LongitudeDegrees>
            </Position>
            <AltitudeMeters>-49</AltitudeMeters>
            <DistanceMeters>NAN</DistanceMeters>
          </Trackpoint>
          <Trackpoint>
            <Time>2022-07-12T10:50:17.000Z</Time>
            <Position>
              <LatitudeDegrees>43.2596009038388729095458984375</LatitudeDegrees>
              <LongitudeDegrees>-2.92666579596698284149169921875</LongitudeDegrees>
            </Position>
            <AltitudeMeters>-49</AltitudeMeters>
            <DistanceMeters>NAN</DistanceMeters>
          </Trackpoint>
          <Trackpoint>
            <Time>2022-07-12T10:50:39.000Z</Time>
            <Position>
              <LatitudeDegrees>43.2596786879003047943115234375</LatitudeDegrees>
              <LongitudeDegrees>-2.92658868245780467987060546875</LongitudeDegrees>
            </Position>
            <AltitudeMeters>-49.40000152587890625</AltitudeMeters>
            <DistanceMeters>NAN</DistanceMeters>
          </Trackpoint>
          <Trackpoint>
            <Time>2022-07-12T10:50:40.000Z</Time>
            <Position>
              <LatitudeDegrees>43.25971514917910099029541015625</LatitudeDegrees>
              <LongitudeDegrees>-2.92650788091123104095458984375</LongitudeDegrees>
            </Position>
            <AltitudeMeters>-49.59999847412109375</AltitudeMeters>
            <DistanceMeters>NAN</DistanceMeters>
          </Trackpoint>
          <Trackpoint>
            <Time>2022-07-12T10:50:45.000Z</Time>
            <Position>
              <LatitudeDegrees>43.2598431408405303955078125</LatitudeDegrees>
              <LongitudeDegrees>-2.92633387260138988494873046875</LongitudeDegrees>
            </Position>
            <AltitudeMeters>-49.799999237060546875</AltitudeMeters>
            <DistanceMeters>NAN</DistanceMeters>
          </Trackpoint>
          <Trackpoint>
            <Time>2022-07-12T10:50:46.000Z</Time>
            <Position>
              <LatitudeDegrees>43.259870298206806182861328125</LatitudeDegrees>
              <LongitudeDegrees>-2.92630839161574840545654296875</LongitudeDegrees>
            </Position>
            <AltitudeMeters>-49.799999237060546875</AltitudeMeters>
            <DistanceMeters>NAN</DistanceMeters>
          </Trackpoint>
          <Trackpoint>
            <Time>2022-07-12T10:50:51.000Z</Time>
            <Position>
              <LatitudeDegrees>43.26004053466022014617919921875</LatitudeDegrees>
              <LongitudeDegrees>-2.92615667916834354400634765625</LongitudeDegrees>
            </Position>
            <AltitudeMeters>-50</AltitudeMeters>
            <DistanceMeters>NAN</DistanceMeters>
          </Trackpoint>
          <Trackpoint>
            <Time>2022-07-12T10:50:57.000Z</Time>
            <Position>
              <LatitudeDegrees>43.26019878499209880828857421875</LatitudeDegrees>
              <LongitudeDegrees>-2.9259961657226085662841796875</LongitudeDegrees>
            </Position>
            <AltitudeMeters>-50.40000152587890625</AltitudeMeters>
            <DistanceMeters>NAN</DistanceMeters>
          </Trackpoint>
          <Trackpoint>
            <Time>2022-07-12T10:51:04.000Z</Time>
            <Position>
              <LatitudeDegrees>43.260353766381740570068359375</LatitudeDegrees>
              <LongitudeDegrees>-2.9257990233600139617919921875</LongitudeDegrees>
            </Position>
            <AltitudeMeters>-50.799999237060546875</AltitudeMeters>
            <DistanceMeters>NAN</DistanceMeters>
          </Trackpoint>
          <Trackpoint>
            <Time>2022-07-12T10:51:05.000Z</Time>
            <Position>
              <LatitudeDegrees>43.260383270680904388427734375</LatitudeDegrees>
              <LongitudeDegrees>-2.92577295564115047454833984375</LongitudeDegrees>
            </Position>
            <AltitudeMeters>-50.799999237060546875</AltitudeMeters>
            <DistanceMeters>NAN</DistanceMeters>
          </Trackpoint>
          <Trackpoint>
            <Time>2022-07-12T10:51:07.000Z</Time>
            <Position>
              <LatitudeDegrees>43.26041554100811481475830078125</LatitudeDegrees>
              <LongitudeDegrees>-2.92572601698338985443115234375</LongitudeDegrees>
            </Position>
            <AltitudeMeters>-51.40000152587890625</AltitudeMeters>
            <DistanceMeters>NAN</DistanceMeters>
          </Trackpoint>
          <Trackpoint>
            <Time>2022-07-12T10:51:08.000Z</Time>
            <Position>
              <LatitudeDegrees>43.2604236714541912078857421875</LatitudeDegrees>
              <LongitudeDegrees>-2.92571461759507656097412109375</LongitudeDegrees>
            </Position>
            <AltitudeMeters>-51.59999847412109375</AltitudeMeters>
            <DistanceMeters>NAN</DistanceMeters>
          </Trackpoint>
          <Trackpoint>
            <Time>2022-07-12T10:51:09.000Z</Time>
            <Position>
              <LatitudeDegrees>43.2604251801967620849609375</LatitudeDegrees>
              <LongitudeDegrees>-2.92570288293063640594482421875</LongitudeDegrees>
            </Position>
            <AltitudeMeters>-51.799999237060546875</AltitudeMeters>
            <DistanceMeters>NAN</DistanceMeters>
          </Trackpoint>
          <Trackpoint>
            <Time>2022-07-12T10:51:10.000Z</Time>
            <Position>
              <LatitudeDegrees>43.2604236714541912078857421875</LatitudeDegrees>
              <LongitudeDegrees>-2.925691567361354827880859375</LongitudeDegrees>
            </Position>
            <AltitudeMeters>-51.799999237060546875</AltitudeMeters>
            <DistanceMeters>NAN</DistanceMeters>
          </Trackpoint>
          <Trackpoint>
            <Time>2022-07-12T10:51:13.000Z</Time>
            <Position>
              <LatitudeDegrees>43.260406069457530975341796875</LatitudeDegrees>
              <LongitudeDegrees>-2.92563021183013916015625</LongitudeDegrees>
            </Position>
            <AltitudeMeters>-52</AltitudeMeters>
            <DistanceMeters>NAN</DistanceMeters>
          </Trackpoint>
          <Trackpoint>
            <Time>2022-07-12T10:51:14.000Z</Time>
            <Position>
              <LatitudeDegrees>43.26040615327656269073486328125</LatitudeDegrees>
              <LongitudeDegrees>-2.92559961788356304168701171875</LongitudeDegrees>
            </Position>
            <AltitudeMeters>-52</AltitudeMeters>
            <DistanceMeters>NAN</DistanceMeters>
          </Trackpoint>
          <Trackpoint>
            <Time>2022-07-12T10:51:17.000Z</Time>
            <Position>
              <LatitudeDegrees>43.26040984131395816802978515625</LatitudeDegrees>
              <LongitudeDegrees>-2.92551613412797451019287109375</LongitudeDegrees>
            </Position>
            <AltitudeMeters>-52.200000762939453125</AltitudeMeters>
            <DistanceMeters>NAN</DistanceMeters>
          </Trackpoint>
          <Trackpoint>
            <Time>2022-07-12T10:51:18.000Z</Time>
            <Position>
              <LatitudeDegrees>43.2603929936885833740234375</LatitudeDegrees>
              <LongitudeDegrees>-2.9254855401813983917236328125</LongitudeDegrees>
            </Position>
            <AltitudeMeters>-52.200000762939453125</AltitudeMeters>
            <DistanceMeters>NAN</DistanceMeters>
          </Trackpoint>
          <Trackpoint>
            <Time>2022-07-12T10:51:23.000Z</Time>
            <Position>
              <LatitudeDegrees>43.2602932490408420562744140625</LatitudeDegrees>
              <LongitudeDegrees>-2.925312705338001251220703125</LongitudeDegrees>
            </Position>
            <AltitudeMeters>-53</AltitudeMeters>
            <DistanceMeters>NAN</DistanceMeters>
          </Trackpoint>
          <Trackpoint>
            <Time>2022-07-12T10:51:26.000Z</Time>
            <Position>
              <LatitudeDegrees>43.26022208668291568756103515625</LatitudeDegrees>
              <LongitudeDegrees>-2.92519728653132915496826171875</LongitudeDegrees>
            </Position>
            <AltitudeMeters>-53.200000762939453125</AltitudeMeters>
            <DistanceMeters>NAN</DistanceMeters>
          </Trackpoint>
          <Trackpoint>
            <Time>2022-07-12T10:51:34.000Z</Time>
            <Position>
              <LatitudeDegrees>43.2600391097366809844970703125</LatitudeDegrees>
              <LongitudeDegrees>-2.92485312558710575103759765625</LongitudeDegrees>
            </Position>
            <AltitudeMeters>-54</AltitudeMeters>
            <DistanceMeters>NAN</DistanceMeters>
          </Trackpoint>
          <Trackpoint>
            <Time>2022-07-12T10:51:38.000Z</Time>
            <Position>
              <LatitudeDegrees>43.2599425502121448516845703125</LatitudeDegrees>
              <LongitudeDegrees>-2.92465397156774997711181640625</LongitudeDegrees>
            </Position>
            <AltitudeMeters>-55</AltitudeMeters>
            <DistanceMeters>NAN</DistanceMeters>
          </Trackpoint>
          <Trackpoint>
            <Time>2022-07-12T10:51:41.000Z</Time>
            <Position>
              <LatitudeDegrees>43.25988329015672206878662109375</LatitudeDegrees>
              <LongitudeDegrees>-2.92452287860214710235595703125</LongitudeDegrees>
            </Position>
            <AltitudeMeters>-55.59999847412109375</AltitudeMeters>
            <DistanceMeters>NAN</DistanceMeters>
          </Trackpoint>
          <Trackpoint>
            <Time>2022-07-12T10:51:48.000Z</Time>
            <Position>
              <LatitudeDegrees>43.25968313030898571014404296875</LatitudeDegrees>
              <LongitudeDegrees>-2.92417352087795734405517578125</LongitudeDegrees>
            </Position>
            <AltitudeMeters>-56</AltitudeMeters>
            <DistanceMeters>NAN</DistanceMeters>
          </Trackpoint>
          <Trackpoint>
            <Time>2022-07-12T10:51:49.000Z</Time>
            <Position>
              <LatitudeDegrees>43.25964943505823612213134765625</LatitudeDegrees>
              <LongitudeDegrees>-2.9241219721734523773193359375</LongitudeDegrees>
            </Position>
            <AltitudeMeters>-56.200000762939453125</AltitudeMeters>
            <DistanceMeters>NAN</DistanceMeters>
          </Trackpoint>
          <Trackpoint>
            <Time>2022-07-12T10:51:53.000Z</Time>
            <Position>
              <LatitudeDegrees>43.25955354608595371246337890625</LatitudeDegrees>
              <LongitudeDegrees>-2.92396766133606433868408203125</LongitudeDegrees>
            </Position>
            <AltitudeMeters>-57</AltitudeMeters>
            <DistanceMeters>NAN</DistanceMeters>
          </Trackpoint>
          <Trackpoint>
            <Time>2022-07-12T10:51:54.000Z</Time>
            <Position>
              <LatitudeDegrees>43.2595586590468883514404296875</LatitudeDegrees>
              <LongitudeDegrees>-2.92393882758915424346923828125</LongitudeDegrees>
            </Position>
            <AltitudeMeters>-57.40000152587890625</AltitudeMeters>
            <DistanceMeters>NAN</DistanceMeters>
          </Trackpoint>
          <Trackpoint>
            <Time>2022-07-12T10:51:56.000Z</Time>
            <Position>
              <LatitudeDegrees>43.2595700584352016448974609375</LatitudeDegrees>
              <LongitudeDegrees>-2.92390219867229461669921875</LongitudeDegrees>
            </Position>
            <AltitudeMeters>-57.799999237060546875</AltitudeMeters>
            <DistanceMeters>NAN</DistanceMeters>
          </Trackpoint>
          <Trackpoint>
            <Time>2022-07-12T10:51:57.000Z</Time>
            <Position>
              <LatitudeDegrees>43.25957332737743854522705078125</LatitudeDegrees>
              <LongitudeDegrees>-2.92388736270368099212646484375</LongitudeDegrees>
            </Position>
            <AltitudeMeters>-57.799999237060546875</AltitudeMeters>
            <DistanceMeters>NAN</DistanceMeters>
          </Trackpoint>
          <Trackpoint>
            <Time>2022-07-12T10:52:03.000Z</Time>
            <Position>
              <LatitudeDegrees>43.25958740897476673126220703125</LatitudeDegrees>
              <LongitudeDegrees>-2.9238229058682918548583984375</LongitudeDegrees>
            </Position>
            <AltitudeMeters>-58.200000762939453125</AltitudeMeters>
            <DistanceMeters>NAN</DistanceMeters>
          </Trackpoint>
          <Trackpoint>
            <Time>2022-07-12T10:52:06.000Z</Time>
            <Position>
              <LatitudeDegrees>43.25958740897476673126220703125</LatitudeDegrees>
              <LongitudeDegrees>-2.9238229058682918548583984375</LongitudeDegrees>
            </Position>
            <AltitudeMeters>-58.200000762939453125</AltitudeMeters>
            <DistanceMeters>NAN</DistanceMeters>
          </Trackpoint>
          <Trackpoint>
            <Time>2022-07-12T10:52:16.000Z</Time>
            <Position>
              <LatitudeDegrees>43.25962931849062442779541015625</LatitudeDegrees>
              <LongitudeDegrees>-2.923753000795841217041015625</LongitudeDegrees>
            </Position>
            <AltitudeMeters>-58.40000152587890625</AltitudeMeters>
            <DistanceMeters>NAN</DistanceMeters>
          </Trackpoint>
          <Trackpoint>
            <Time>2022-07-12T10:52:17.000Z</Time>
            <Position>
              <LatitudeDegrees>43.2596424780786037445068359375</LatitudeDegrees>
              <LongitudeDegrees>-2.92372785508632659912109375</LongitudeDegrees>
            </Position>
            <AltitudeMeters>-58.40000152587890625</AltitudeMeters>
            <DistanceMeters>NAN</DistanceMeters>
          </Trackpoint>
          <Trackpoint>
            <Time>2022-07-12T10:52:21.000Z</Time>
            <Position>
              <LatitudeDegrees>43.2596830464899539947509765625</LatitudeDegrees>
              <LongitudeDegrees>-2.92357237078249454498291015625</LongitudeDegrees>
            </Position>
            <AltitudeMeters>-58.40000152587890625</AltitudeMeters>
            <DistanceMeters>NAN</DistanceMeters>
          </Trackpoint>
          <Trackpoint>
            <Time>2022-07-12T10:52:27.000Z</Time>
            <Position>
              <LatitudeDegrees>43.2598144747316837310791015625</LatitudeDegrees>
              <LongitudeDegrees>-2.9233209975063800811767578125</LongitudeDegrees>
            </Position>
            <AltitudeMeters>-58.200000762939453125</AltitudeMeters>
            <DistanceMeters>NAN</DistanceMeters>
          </Trackpoint>
          <Trackpoint>
            <Time>2022-07-12T10:52:30.000Z</Time>
            <Position>
              <LatitudeDegrees>43.2598915882408618927001953125</LatitudeDegrees>
              <LongitudeDegrees>-2.92320222593843936920166015625</LongitudeDegrees>
            </Position>
            <AltitudeMeters>-58.200000762939453125</AltitudeMeters>
            <DistanceMeters>NAN</DistanceMeters>
          </Trackpoint>
          <Trackpoint>
            <Time>2022-07-12T10:52:33.000Z</Time>
            <Position>
              <LatitudeDegrees>43.25997716747224330902099609375</LatitudeDegrees>
              <LongitudeDegrees>-2.9231359250843524932861328125</LongitudeDegrees>
            </Position>
            <AltitudeMeters>-58</AltitudeMeters>
            <DistanceMeters>NAN</DistanceMeters>
          </Trackpoint>
          <Trackpoint>
            <Time>2022-07-12T10:52:38.000Z</Time>
            <Position>
              <LatitudeDegrees>43.26016358099877834320068359375</LatitudeDegrees>
              <LongitudeDegrees>-2.92309284210205078125</LongitudeDegrees>
            </Position>
            <AltitudeMeters>-58</AltitudeMeters>
            <DistanceMeters>NAN</DistanceMeters>
          </Trackpoint>
          <Trackpoint>
            <Time>2022-07-12T10:52:39.000Z</Time>
            <Position>
              <LatitudeDegrees>43.260203562676906585693359375</LatitudeDegrees>
              <LongitudeDegrees>-2.92308554984629154205322265625</LongitudeDegrees>
            </Position>
            <AltitudeMeters>-58</AltitudeMeters>
            <DistanceMeters>NAN</DistanceMeters>
          </Trackpoint>
          <Trackpoint>
            <Time>2022-07-12T10:52:40.000Z</Time>
            <Position>
              <LatitudeDegrees>43.2602508366107940673828125</LatitudeDegrees>
              <LongitudeDegrees>-2.923069708049297332763671875</LongitudeDegrees>
            </Position>
            <AltitudeMeters>-58</AltitudeMeters>
            <DistanceMeters>NAN</DistanceMeters>
          </Trackpoint>
          <Trackpoint>
            <Time>2022-07-12T10:52:43.000Z</Time>
            <Position>
              <LatitudeDegrees>43.26033172197639942169189453125</LatitudeDegrees>
              <LongitudeDegrees>-2.92302352376282215118408203125</LongitudeDegrees>
            </Position>
            <AltitudeMeters>-57.799999237060546875</AltitudeMeters>
            <DistanceMeters>NAN</DistanceMeters>
          </Trackpoint>
          <Trackpoint>
            <Time>2022-07-12T10:52:48.000Z</Time>
            <Position>
              <LatitudeDegrees>43.260447643697261810302734375</LatitudeDegrees>
              <LongitudeDegrees>-2.9229592345654964447021484375</LongitudeDegrees>
            </Position>
            <AltitudeMeters>-57.59999847412109375</AltitudeMeters>
            <DistanceMeters>NAN</DistanceMeters>
          </Trackpoint>
          <Trackpoint>
            <Time>2022-07-12T10:52:49.000Z</Time>
            <Position>
              <LatitudeDegrees>43.26047949492931365966796875</LatitudeDegrees>
              <LongitudeDegrees>-2.92296635918319225311279296875</LongitudeDegrees>
            </Position>
            <AltitudeMeters>-57.59999847412109375</AltitudeMeters>
            <DistanceMeters>NAN</DistanceMeters>
          </Trackpoint>
          <Trackpoint>
            <Time>2022-07-12T10:52:52.000Z</Time>
            <Position>
              <LatitudeDegrees>43.2605567760765552520751953125</LatitudeDegrees>
              <LongitudeDegrees>-2.923002652823925018310546875</LongitudeDegrees>
            </Position>
            <AltitudeMeters>-57.59999847412109375</AltitudeMeters>
            <DistanceMeters>NAN</DistanceMeters>
          </Trackpoint>
          <Trackpoint>
            <Time>2022-07-12T10:52:54.000Z</Time>
            <Position>
              <LatitudeDegrees>43.26059021987020969390869140625</LatitudeDegrees>
              <LongitudeDegrees>-2.92302654124796390533447265625</LongitudeDegrees>
            </Position>
            <AltitudeMeters>-57.59999847412109375</AltitudeMeters>
            <DistanceMeters>NAN</DistanceMeters>
          </Trackpoint>
          <Trackpoint>
            <Time>2022-07-12T10:52:55.000Z</Time>
            <Position>
              <LatitudeDegrees>43.26059457845985889434814453125</LatitudeDegrees>
              <LongitudeDegrees>-2.9230485856533050537109375</LongitudeDegrees>
            </Position>
            <AltitudeMeters>-57.59999847412109375</AltitudeMeters>
            <DistanceMeters>NAN</DistanceMeters>
          </Trackpoint>
          <Trackpoint>
            <Time>2022-07-12T10:52:56.000Z</Time>
            <Position>
              <LatitudeDegrees>43.2606194727122783660888671875</LatitudeDegrees>
              <LongitudeDegrees>-2.92305596172809600830078125</LongitudeDegrees>
            </Position>
            <AltitudeMeters>-57.59999847412109375</AltitudeMeters>
            <DistanceMeters>NAN</DistanceMeters>
          </Trackpoint>
          <Trackpoint>
            <Time>2022-07-12T10:52:57.000Z</Time>
            <Position>
              <LatitudeDegrees>43.26063263230025768280029296875</LatitudeDegrees>
              <LongitudeDegrees>-2.92304967530071735382080078125</LongitudeDegrees>
            </Position>
            <AltitudeMeters>-57.59999847412109375</AltitudeMeters>
            <DistanceMeters>NAN</DistanceMeters>
          </Trackpoint>
          <Trackpoint>
            <Time>2022-07-12T10:53:01.000Z</Time>
            <Position>
              <LatitudeDegrees>43.2607814110815525054931640625</LatitudeDegrees>
              <LongitudeDegrees>-2.9230775870382785797119140625</LongitudeDegrees>
            </Position>
            <AltitudeMeters>-57.40000152587890625</AltitudeMeters>
            <DistanceMeters>NAN</DistanceMeters>
          </Trackpoint>
          <Trackpoint>
            <Time>2022-07-12T10:53:02.000Z</Time>
            <Position>
              <LatitudeDegrees>43.2608213089406490325927734375</LatitudeDegrees>
              <LongitudeDegrees>-2.92309527285397052764892578125</LongitudeDegrees>
            </Position>
            <AltitudeMeters>-57.40000152587890625</AltitudeMeters>
            <DistanceMeters>NAN</DistanceMeters>
          </Trackpoint>
          <Trackpoint>
            <Time>2022-07-12T10:53:05.000Z</Time>
            <Position>
              <LatitudeDegrees>43.26099355705082416534423828125</LatitudeDegrees>
              <LongitudeDegrees>-2.9231610707938671112060546875</LongitudeDegrees>
            </Position>
            <AltitudeMeters>-57.59999847412109375</AltitudeMeters>
            <DistanceMeters>NAN</DistanceMeters>
          </Trackpoint>
          <Trackpoint>
            <Time>2022-07-12T10:53:08.000Z</Time>
            <Position>
              <LatitudeDegrees>43.26113688759505748748779296875</LatitudeDegrees>
              <LongitudeDegrees>-2.92320893146097660064697265625</LongitudeDegrees>
            </Position>
            <AltitudeMeters>-57.59999847412109375</AltitudeMeters>
            <DistanceMeters>NAN</DistanceMeters>
          </Trackpoint>
          <Trackpoint>
            <Time>2022-07-12T10:53:13.000Z</Time>
            <Position>
              <LatitudeDegrees>43.2613961398601531982421875</LatitudeDegrees>
              <LongitudeDegrees>-2.923206500709056854248046875</LongitudeDegrees>
            </Position>
            <AltitudeMeters>-57.799999237060546875</AltitudeMeters>
            <DistanceMeters>NAN</DistanceMeters>
          </Trackpoint>
          <Trackpoint>
            <Time>2022-07-12T10:53:17.000Z</Time>
            <Position>
              <LatitudeDegrees>43.2615612633526325225830078125</LatitudeDegrees>
              <LongitudeDegrees>-2.92326207272708415985107421875</LongitudeDegrees>
            </Position>
            <AltitudeMeters>-57.799999237060546875</AltitudeMeters>
            <DistanceMeters>NAN</DistanceMeters>
          </Trackpoint>
          <Trackpoint>
            <Time>2022-07-12T10:53:19.000Z</Time>
            <Position>
              <LatitudeDegrees>43.2616605050861835479736328125</LatitudeDegrees>
              <LongitudeDegrees>-2.92328017763793468475341796875</LongitudeDegrees>
            </Position>
            <AltitudeMeters>-57.799999237060546875</AltitudeMeters>
            <DistanceMeters>NAN</DistanceMeters>
          </Trackpoint>
          <Trackpoint>
            <Time>2022-07-12T10:53:20.000Z</Time>
            <Position>
              <LatitudeDegrees>43.2617287337779998779296875</LatitudeDegrees>
              <LongitudeDegrees>-2.92329761199653148651123046875</LongitudeDegrees>
            </Position>
            <AltitudeMeters>-57.799999237060546875</AltitudeMeters>
            <DistanceMeters>NAN</DistanceMeters>
          </Trackpoint>
          <Trackpoint>
            <Time>2022-07-12T10:53:23.000Z</Time>
            <Position>
              <LatitudeDegrees>43.26186661608517169952392578125</LatitudeDegrees>
              <LongitudeDegrees>-2.92331504635512828826904296875</LongitudeDegrees>
            </Position>
            <AltitudeMeters>-58</AltitudeMeters>
            <DistanceMeters>NAN</DistanceMeters>
          </Trackpoint>
          <Trackpoint>
            <Time>2022-07-12T10:53:25.000Z</Time>
            <Position>
              <LatitudeDegrees>43.26198530383408069610595703125</LatitudeDegrees>
              <LongitudeDegrees>-2.92333357036113739013671875</LongitudeDegrees>
            </Position>
            <AltitudeMeters>-58.200000762939453125</AltitudeMeters>
            <DistanceMeters>NAN</DistanceMeters>
          </Trackpoint>
          <Trackpoint>
            <Time>2022-07-12T10:53:28.000Z</Time>
            <Position>
              <LatitudeDegrees>43.262152858078479766845703125</LatitudeDegrees>
              <LongitudeDegrees>-2.9233836941421031951904296875</LongitudeDegrees>
            </Position>
            <AltitudeMeters>-58.40000152587890625</AltitudeMeters>
            <DistanceMeters>NAN</DistanceMeters>
          </Trackpoint>
          <Trackpoint>
            <Time>2022-07-12T10:53:31.000Z</Time>
            <Position>
              <LatitudeDegrees>43.2622891478240489959716796875</LatitudeDegrees>
              <LongitudeDegrees>-2.9233629070222377777099609375</LongitudeDegrees>
            </Position>
            <AltitudeMeters>-58.200000762939453125</AltitudeMeters>
            <DistanceMeters>NAN</DistanceMeters>
          </Trackpoint>
          <Trackpoint>
            <Time>2022-07-12T10:53:34.000Z</Time>
            <Position>
              <LatitudeDegrees>43.2624142058193683624267578125</LatitudeDegrees>
              <LongitudeDegrees>-2.9229967854917049407958984375</LongitudeDegrees>
            </Position>
            <AltitudeMeters>-58</AltitudeMeters>
            <DistanceMeters>NAN</DistanceMeters>
          </Trackpoint>
          <Trackpoint>
            <Time>2022-07-12T10:53:38.000Z</Time>
            <Position>
              <LatitudeDegrees>43.26258494518697261810302734375</LatitudeDegrees>
              <LongitudeDegrees>-2.9229880683124065399169921875</LongitudeDegrees>
            </Position>
            <AltitudeMeters>-58</AltitudeMeters>
            <DistanceMeters>NAN</DistanceMeters>
          </Trackpoint>
          <Trackpoint>
            <Time>2022-07-12T10:53:40.000Z</Time>
            <Position>
              <LatitudeDegrees>43.26263892464339733123779296875</LatitudeDegrees>
              <LongitudeDegrees>-2.92299267835915088653564453125</LongitudeDegrees>
            </Position>
            <AltitudeMeters>-58</AltitudeMeters>
            <DistanceMeters>NAN</DistanceMeters>
          </Trackpoint>
          <Trackpoint>
            <Time>2022-07-12T10:53:48.000Z</Time>
            <Position>
              <LatitudeDegrees>43.2629104144871234893798828125</LatitudeDegrees>
              <LongitudeDegrees>-2.9230504296720027923583984375</LongitudeDegrees>
            </Position>
            <AltitudeMeters>-58</AltitudeMeters>
            <DistanceMeters>NAN</DistanceMeters>
          </Trackpoint>
          <Trackpoint>
            <Time>2022-07-12T10:53:53.000Z</Time>
            <Position>
              <LatitudeDegrees>43.26305466704070568084716796875</LatitudeDegrees>
              <LongitudeDegrees>-2.923093847930431365966796875</LongitudeDegrees>
            </Position>
            <AltitudeMeters>-58</AltitudeMeters>
            <DistanceMeters>NAN</DistanceMeters>
          </Trackpoint>
          <Trackpoint>
            <Time>2022-07-12T10:53:59.000Z</Time>
            <Position>
              <LatitudeDegrees>43.26320906169712543487548828125</LatitudeDegrees>
              <LongitudeDegrees>-2.92315646074712276458740234375</LongitudeDegrees>
            </Position>
            <AltitudeMeters>-57.799999237060546875</AltitudeMeters>
            <DistanceMeters>NAN</DistanceMeters>
          </Trackpoint>
          <Trackpoint>
            <Time>2022-07-12T10:54:05.000Z</Time>
            <Position>
              <LatitudeDegrees>43.2633777894079685211181640625</LatitudeDegrees>
              <LongitudeDegrees>-2.92311404831707477569580078125</LongitudeDegrees>
            </Position>
            <AltitudeMeters>-57.40000152587890625</AltitudeMeters>
            <DistanceMeters>NAN</DistanceMeters>
          </Trackpoint>
          <Trackpoint>
            <Time>2022-07-12T10:54:08.000Z</Time>
            <Position>
              <LatitudeDegrees>43.26343034394085407257080078125</LatitudeDegrees>
              <LongitudeDegrees>-2.92313642799854278564453125</LongitudeDegrees>
            </Position>
            <AltitudeMeters>-57.40000152587890625</AltitudeMeters>
            <DistanceMeters>NAN</DistanceMeters>
          </Trackpoint>
          <Trackpoint>
            <Time>2022-07-12T10:54:11.000Z</Time>
            <Position>
              <LatitudeDegrees>43.26349153183400630950927734375</LatitudeDegrees>
              <LongitudeDegrees>-2.9231251962482929229736328125</LongitudeDegrees>
            </Position>
            <AltitudeMeters>-57.200000762939453125</AltitudeMeters>
            <DistanceMeters>NAN</DistanceMeters>
          </Trackpoint>
          <Trackpoint>
            <Time>2022-07-12T10:54:16.000Z</Time>
            <Position>
              <LatitudeDegrees>43.2636248879134654998779296875</LatitudeDegrees>
              <LongitudeDegrees>-2.92300709523260593414306640625</LongitudeDegrees>
            </Position>
            <AltitudeMeters>-57.200000762939453125</AltitudeMeters>
            <DistanceMeters>NAN</DistanceMeters>
          </Trackpoint>
          <Trackpoint>
            <Time>2022-07-12T10:54:21.000Z</Time>
            <Position>
              <LatitudeDegrees>43.26379328034818172454833984375</LatitudeDegrees>
              <LongitudeDegrees>-2.92301145382225513458251953125</LongitudeDegrees>
            </Position>
            <AltitudeMeters>-57.200000762939453125</AltitudeMeters>
            <DistanceMeters>NAN</DistanceMeters>
          </Trackpoint>
          <Trackpoint>
            <Time>2022-07-12T10:54:26.000Z</Time>
            <Position>
              <LatitudeDegrees>43.26387860812246799468994140625</LatitudeDegrees>
              <LongitudeDegrees>-2.92316551320254802703857421875</LongitudeDegrees>
            </Position>
            <AltitudeMeters>-57.200000762939453125</AltitudeMeters>
            <DistanceMeters>NAN</DistanceMeters>
          </Trackpoint>
          <Trackpoint>
            <Time>2022-07-12T10:54:29.000Z</Time>
            <Position>
              <LatitudeDegrees>43.26389134861528873443603515625</LatitudeDegrees>
              <LongitudeDegrees>-2.92329727672040462493896484375</LongitudeDegrees>
            </Position>
            <AltitudeMeters>-57</AltitudeMeters>
            <DistanceMeters>NAN</DistanceMeters>
          </Trackpoint>
          <Trackpoint>
            <Time>2022-07-12T10:54:31.000Z</Time>
            <Position>
              <LatitudeDegrees>43.26386569999158382415771484375</LatitudeDegrees>
              <LongitudeDegrees>-2.9233773238956928253173828125</LongitudeDegrees>
            </Position>
            <AltitudeMeters>-56.799999237060546875</AltitudeMeters>
            <DistanceMeters>NAN</DistanceMeters>
          </Trackpoint>
          <Trackpoint>
            <Time>2022-07-12T10:54:33.000Z</Time>
            <Position>
              <LatitudeDegrees>43.263859413564205169677734375</LatitudeDegrees>
              <LongitudeDegrees>-2.92345971800386905670166015625</LongitudeDegrees>
            </Position>
            <AltitudeMeters>-56.799999237060546875</AltitudeMeters>
            <DistanceMeters>NAN</DistanceMeters>
          </Trackpoint>
          <Trackpoint>
            <Time>2022-07-12T10:54:35.000Z</Time>
            <Position>
              <LatitudeDegrees>43.263890258967876434326171875</LatitudeDegrees>
              <LongitudeDegrees>-2.92353875935077667236328125</LongitudeDegrees>
            </Position>
            <AltitudeMeters>-56.799999237060546875</AltitudeMeters>
            <DistanceMeters>NAN</DistanceMeters>
          </Trackpoint>
          <Trackpoint>
            <Time>2022-07-12T10:54:41.000Z</Time>
            <Position>
              <LatitudeDegrees>43.2639876566827297210693359375</LatitudeDegrees>
              <LongitudeDegrees>-2.92382282204926013946533203125</LongitudeDegrees>
            </Position>
            <AltitudeMeters>-57.200000762939453125</AltitudeMeters>
            <DistanceMeters>NAN</DistanceMeters>
          </Trackpoint>
          <Trackpoint>
            <Time>2022-07-12T10:54:46.000Z</Time>
            <Position>
              <LatitudeDegrees>43.2641117088496685028076171875</LatitudeDegrees>
              <LongitudeDegrees>-2.9240331239998340606689453125</LongitudeDegrees>
            </Position>
            <AltitudeMeters>-57.200000762939453125</AltitudeMeters>
            <DistanceMeters>NAN</DistanceMeters>
          </Trackpoint>
          <Trackpoint>
            <Time>2022-07-12T10:54:53.000Z</Time>
            <Position>
              <LatitudeDegrees>43.2642860524356365203857421875</LatitudeDegrees>
              <LongitudeDegrees>-2.92427636682987213134765625</LongitudeDegrees>
            </Position>
            <AltitudeMeters>-57.40000152587890625</AltitudeMeters>
            <DistanceMeters>NAN</DistanceMeters>
          </Trackpoint>
          <Trackpoint>
            <Time>2022-07-12T10:55:00.000Z</Time>
            <Position>
              <LatitudeDegrees>43.264447152614593505859375</LatitudeDegrees>
              <LongitudeDegrees>-2.9244942963123321533203125</LongitudeDegrees>
            </Position>
            <AltitudeMeters>-57.40000152587890625</AltitudeMeters>
            <DistanceMeters>NAN</DistanceMeters>
          </Trackpoint>
          <Trackpoint>
            <Time>2022-07-12T10:55:06.000Z</Time>
            <Position>
              <LatitudeDegrees>43.26458134688436985015869140625</LatitudeDegrees>
              <LongitudeDegrees>-2.92476779781281948089599609375</LongitudeDegrees>
            </Position>
            <AltitudeMeters>-57.40000152587890625</AltitudeMeters>
            <DistanceMeters>NAN</DistanceMeters>
          </Trackpoint>
          <Trackpoint>
            <Time>2022-07-12T10:55:11.000Z</Time>
            <Position>
              <LatitudeDegrees>43.264715038239955902099609375</LatitudeDegrees>
              <LongitudeDegrees>-2.9249286465346813201904296875</LongitudeDegrees>
            </Position>
            <AltitudeMeters>-57.40000152587890625</AltitudeMeters>
            <DistanceMeters>NAN</DistanceMeters>
          </Trackpoint>
          <Trackpoint>
            <Time>2022-07-12T10:55:16.000Z</Time>
            <Position>
              <LatitudeDegrees>43.2648637332022190093994140625</LatitudeDegrees>
              <LongitudeDegrees>-2.92513056658208370208740234375</LongitudeDegrees>
            </Position>
            <AltitudeMeters>-57.59999847412109375</AltitudeMeters>
            <DistanceMeters>NAN</DistanceMeters>
          </Trackpoint>
          <Trackpoint>
            <Time>2022-07-12T10:55:20.000Z</Time>
            <Position>
              <LatitudeDegrees>43.265018798410892486572265625</LatitudeDegrees>
              <LongitudeDegrees>-2.92523601092398166656494140625</LongitudeDegrees>
            </Position>
            <AltitudeMeters>-57.59999847412109375</AltitudeMeters>
            <DistanceMeters>NAN</DistanceMeters>
          </Trackpoint>
          <Trackpoint>
            <Time>2022-07-12T10:55:21.000Z</Time>
            <Position>
              <LatitudeDegrees>43.2650414295494556427001953125</LatitudeDegrees>
              <LongitudeDegrees>-2.925269119441509246826171875</LongitudeDegrees>
            </Position>
            <AltitudeMeters>-57.59999847412109375</AltitudeMeters>
            <DistanceMeters>NAN</DistanceMeters>
          </Trackpoint>
          <Trackpoint>
            <Time>2022-07-12T10:55:23.000Z</Time>
            <Position>
              <LatitudeDegrees>43.2651078142225742340087890625</LatitudeDegrees>
              <LongitudeDegrees>-2.92530608363449573516845703125</LongitudeDegrees>
            </Position>
            <AltitudeMeters>-57.59999847412109375</AltitudeMeters>
            <DistanceMeters>NAN</DistanceMeters>
          </Trackpoint>
          <Trackpoint>
            <Time>2022-07-12T10:55:28.000Z</Time>
            <Position>
              <LatitudeDegrees>43.2652677409350872039794921875</LatitudeDegrees>
              <LongitudeDegrees>-2.92541102506220340728759765625</LongitudeDegrees>
            </Position>
            <AltitudeMeters>-57.59999847412109375</AltitudeMeters>
            <DistanceMeters>NAN</DistanceMeters>
          </Trackpoint>
          <Trackpoint>
            <Time>2022-07-12T10:55:30.000Z</Time>
            <Position>
              <LatitudeDegrees>43.2653213851153850555419921875</LatitudeDegrees>
              <LongitudeDegrees>-2.92547439225018024444580078125</LongitudeDegrees>
            </Position>
            <AltitudeMeters>-57.59999847412109375</AltitudeMeters>
            <DistanceMeters>NAN</DistanceMeters>
          </Trackpoint>
          <Trackpoint>
            <Time>2022-07-12T10:55:35.000Z</Time>
            <Position>
              <LatitudeDegrees>43.26542892493307590484619140625</LatitudeDegrees>
              <LongitudeDegrees>-2.9256270267069339752197265625</LongitudeDegrees>
            </Position>
            <AltitudeMeters>-57.799999237060546875</AltitudeMeters>
            <DistanceMeters>NAN</DistanceMeters>
          </Trackpoint>
          <Trackpoint>
            <Time>2022-07-12T10:55:38.000Z</Time>
            <Position>
              <LatitudeDegrees>43.2655079662799835205078125</LatitudeDegrees>
              <LongitudeDegrees>-2.9257074929773807525634765625</LongitudeDegrees>
            </Position>
            <AltitudeMeters>-57.799999237060546875</AltitudeMeters>
            <DistanceMeters>NAN</DistanceMeters>
          </Trackpoint>
          <Trackpoint>
            <Time>2022-07-12T10:55:42.000Z</Time>
            <Position>
              <LatitudeDegrees>43.2655725069344043731689453125</LatitudeDegrees>
              <LongitudeDegrees>-2.9257815890014171600341796875</LongitudeDegrees>
            </Position>
            <AltitudeMeters>-57.799999237060546875</AltitudeMeters>
            <DistanceMeters>NAN</DistanceMeters>
          </Trackpoint>
          <Trackpoint>
            <Time>2022-07-12T10:55:43.000Z</Time>
            <Position>
              <LatitudeDegrees>43.265573680400848388671875</LatitudeDegrees>
              <LongitudeDegrees>-2.9257849417626857757568359375</LongitudeDegrees>
            </Position>
            <AltitudeMeters>-57.799999237060546875</AltitudeMeters>
            <DistanceMeters>NAN</DistanceMeters>
          </Trackpoint>
          <Trackpoint>
            <Time>2022-07-12T10:55:44.000Z</Time>
            <Position>
              <LatitudeDegrees>43.265573680400848388671875</LatitudeDegrees>
              <LongitudeDegrees>-2.9257849417626857757568359375</LongitudeDegrees>
            </Position>
            <AltitudeMeters>-57.799999237060546875</AltitudeMeters>
            <DistanceMeters>NAN</DistanceMeters>
          </Trackpoint>
          <Trackpoint>
            <Time>2022-07-12T10:57:07.000Z</Time>
            <Position>
              <LatitudeDegrees>43.26562724076211452484130859375</LatitudeDegrees>
              <LongitudeDegrees>-2.925864569842815399169921875</LongitudeDegrees>
            </Position>
            <AltitudeMeters>-57.799999237060546875</AltitudeMeters>
            <DistanceMeters>NAN</DistanceMeters>
          </Trackpoint>
          <Trackpoint>
            <Time>2022-07-12T10:57:09.000Z</Time>
            <Position>
              <LatitudeDegrees>43.26566646806895732879638671875</LatitudeDegrees>
              <LongitudeDegrees>-2.9259105026721954345703125</LongitudeDegrees>
            </Position>
            <AltitudeMeters>-58.200000762939453125</AltitudeMeters>
            <DistanceMeters>NAN</DistanceMeters>
          </Trackpoint>
          <Trackpoint>
            <Time>2022-07-12T10:57:10.000Z</Time>
            <Position>
              <LatitudeDegrees>43.26568256132304668426513671875</LatitudeDegrees>
              <LongitudeDegrees>-2.92593372054398059844970703125</LongitudeDegrees>
            </Position>
            <AltitudeMeters>-58.59999847412109375</AltitudeMeters>
            <DistanceMeters>NAN</DistanceMeters>
          </Trackpoint>
          <Trackpoint>
            <Time>2022-07-12T10:57:14.000Z</Time>
            <Position>
              <LatitudeDegrees>43.2657659612596035003662109375</LatitudeDegrees>
              <LongitudeDegrees>-2.92607537470757961273193359375</LongitudeDegrees>
            </Position>
            <AltitudeMeters>-58.799999237060546875</AltitudeMeters>
            <DistanceMeters>NAN</DistanceMeters>
          </Trackpoint>
          <Trackpoint>
            <Time>2022-07-12T10:57:18.000Z</Time>
            <Position>
              <LatitudeDegrees>43.2658843137323856353759765625</LatitudeDegrees>
              <LongitudeDegrees>-2.92622189037501811981201171875</LongitudeDegrees>
            </Position>
            <AltitudeMeters>-58.799999237060546875</AltitudeMeters>
            <DistanceMeters>NAN</DistanceMeters>
          </Trackpoint>
          <Trackpoint>
            <Time>2022-07-12T10:57:21.000Z</Time>
            <Position>
              <LatitudeDegrees>43.2659802027046680450439453125</LatitudeDegrees>
              <LongitudeDegrees>-2.92632515542209148406982421875</LongitudeDegrees>
            </Position>
            <AltitudeMeters>-58.59999847412109375</AltitudeMeters>
            <DistanceMeters>NAN</DistanceMeters>
          </Trackpoint>
          <Trackpoint>
            <Time>2022-07-12T10:57:26.000Z</Time>
            <Position>
              <LatitudeDegrees>43.266142643988132476806640625</LatitudeDegrees>
              <LongitudeDegrees>-2.926506958901882171630859375</LongitudeDegrees>
            </Position>
            <AltitudeMeters>-59</AltitudeMeters>
            <DistanceMeters>NAN</DistanceMeters>
          </Trackpoint>
          <Trackpoint>
            <Time>2022-07-12T10:57:32.000Z</Time>
            <Position>
              <LatitudeDegrees>43.26629678718745708465576171875</LatitudeDegrees>
              <LongitudeDegrees>-2.92672430165112018585205078125</LongitudeDegrees>
            </Position>
            <AltitudeMeters>-59.40000152587890625</AltitudeMeters>
            <DistanceMeters>NAN</DistanceMeters>
          </Trackpoint>
          <Trackpoint>
            <Time>2022-07-12T10:57:37.000Z</Time>
            <Position>
              <LatitudeDegrees>43.2663996331393718719482421875</LatitudeDegrees>
              <LongitudeDegrees>-2.92687651701271533966064453125</LongitudeDegrees>
            </Position>
            <AltitudeMeters>-59.59999847412109375</AltitudeMeters>
            <DistanceMeters>NAN</DistanceMeters>
          </Trackpoint>
          <Trackpoint>
            <Time>2022-07-12T10:57:38.000Z</Time>
            <Position>
              <LatitudeDegrees>43.2664306461811065673828125</LatitudeDegrees>
              <LongitudeDegrees>-2.9269014112651348114013671875</LongitudeDegrees>
            </Position>
            <AltitudeMeters>-59.59999847412109375</AltitudeMeters>
            <DistanceMeters>NAN</DistanceMeters>
          </Trackpoint>
          <Trackpoint>
            <Time>2022-07-12T10:57:40.000Z</Time>
            <Position>
              <LatitudeDegrees>43.266500048339366912841796875</LatitudeDegrees>
              <LongitudeDegrees>-2.9269634373486042022705078125</LongitudeDegrees>
            </Position>
            <AltitudeMeters>-59.59999847412109375</AltitudeMeters>
            <DistanceMeters>NAN</DistanceMeters>
          </Trackpoint>
          <Trackpoint>
            <Time>2022-07-12T10:57:43.000Z</Time>
            <Position>
              <LatitudeDegrees>43.26657808385789394378662109375</LatitudeDegrees>
              <LongitudeDegrees>-2.9270928539335727691650390625</LongitudeDegrees>
            </Position>
            <AltitudeMeters>-59.59999847412109375</AltitudeMeters>
            <DistanceMeters>NAN</DistanceMeters>
          </Trackpoint>
          <Trackpoint>
            <Time>2022-07-12T10:57:49.000Z</Time>
            <Position>
              <LatitudeDegrees>43.26675276271998882293701171875</LatitudeDegrees>
              <LongitudeDegrees>-2.9273235239088535308837890625</LongitudeDegrees>
            </Position>
            <AltitudeMeters>-59.59999847412109375</AltitudeMeters>
            <DistanceMeters>NAN</DistanceMeters>
          </Trackpoint>
          <Trackpoint>
            <Time>2022-07-12T10:57:51.000Z</Time>
            <Position>
              <LatitudeDegrees>43.26680690981447696685791015625</LatitudeDegrees>
              <LongitudeDegrees>-2.92739904485642910003662109375</LongitudeDegrees>
            </Position>
            <AltitudeMeters>-59.59999847412109375</AltitudeMeters>
            <DistanceMeters>NAN</DistanceMeters>
          </Trackpoint>
          <Trackpoint>
            <Time>2022-07-12T10:57:53.000Z</Time>
            <Position>
              <LatitudeDegrees>43.26684429310262203216552734375</LatitudeDegrees>
              <LongitudeDegrees>-2.92747515253722667694091796875</LongitudeDegrees>
            </Position>
            <AltitudeMeters>-59.59999847412109375</AltitudeMeters>
            <DistanceMeters>NAN</DistanceMeters>
          </Trackpoint>
          <Trackpoint>
            <Time>2022-07-12T10:57:59.000Z</Time>
            <Position>
              <LatitudeDegrees>43.26700371690094470977783203125</LatitudeDegrees>
              <LongitudeDegrees>-2.927692830562591552734375</LongitudeDegrees>
            </Position>
            <AltitudeMeters>-59.799999237060546875</AltitudeMeters>
            <DistanceMeters>NAN</DistanceMeters>
          </Trackpoint>
          <Trackpoint>
            <Time>2022-07-12T10:58:05.000Z</Time>
            <Position>
              <LatitudeDegrees>43.2671414315700531005859375</LatitudeDegrees>
              <LongitudeDegrees>-2.9278737120330333709716796875</LongitudeDegrees>
            </Position>
            <AltitudeMeters>-59.799999237060546875</AltitudeMeters>
            <DistanceMeters>NAN</DistanceMeters>
          </Trackpoint>
          <Trackpoint>
            <Time>2022-07-12T10:58:13.000Z</Time>
            <Position>
              <LatitudeDegrees>43.2673699222505092620849609375</LatitudeDegrees>
              <LongitudeDegrees>-2.928147129714488983154296875</LongitudeDegrees>
            </Position>
            <AltitudeMeters>-60</AltitudeMeters>
            <DistanceMeters>NAN</DistanceMeters>
          </Trackpoint>
          <Trackpoint>
            <Time>2022-07-12T10:58:19.000Z</Time>
            <Position>
              <LatitudeDegrees>43.26753781177103519439697265625</LatitudeDegrees>
              <LongitudeDegrees>-2.92834854684770107269287109375</LongitudeDegrees>
            </Position>
            <AltitudeMeters>-60.200000762939453125</AltitudeMeters>
            <DistanceMeters>NAN</DistanceMeters>
          </Trackpoint>
          <Trackpoint>
            <Time>2022-07-12T10:58:22.000Z</Time>
            <Position>
              <LatitudeDegrees>43.2676247321069240570068359375</LatitudeDegrees>
              <LongitudeDegrees>-2.92844728566706180572509765625</LongitudeDegrees>
            </Position>
            <AltitudeMeters>-60</AltitudeMeters>
            <DistanceMeters>NAN</DistanceMeters>
          </Trackpoint>
          <Trackpoint>
            <Time>2022-07-12T10:58:24.000Z</Time>
            <Position>
              <LatitudeDegrees>43.2676817290484905242919921875</LatitudeDegrees>
              <LongitudeDegrees>-2.92851819656789302825927734375</LongitudeDegrees>
            </Position>
            <AltitudeMeters>-60</AltitudeMeters>
            <DistanceMeters>NAN</DistanceMeters>
          </Trackpoint>
          <Trackpoint>
            <Time>2022-07-12T10:58:26.000Z</Time>
            <Position>
              <LatitudeDegrees>43.26770746149122714996337890625</LatitudeDegrees>
              <LongitudeDegrees>-2.9285576753318309783935546875</LongitudeDegrees>
            </Position>
            <AltitudeMeters>-60</AltitudeMeters>
            <DistanceMeters>NAN</DistanceMeters>
          </Trackpoint>
          <Trackpoint>
            <Time>2022-07-12T10:58:35.000Z</Time>
            <Position>
              <LatitudeDegrees>43.26796646229922771453857421875</LatitudeDegrees>
              <LongitudeDegrees>-2.92887694202363491058349609375</LongitudeDegrees>
            </Position>
            <AltitudeMeters>-60</AltitudeMeters>
            <DistanceMeters>NAN</DistanceMeters>
          </Trackpoint>
          <Trackpoint>
            <Time>2022-07-12T10:58:38.000Z</Time>
            <Position>
              <LatitudeDegrees>43.2680515386164188385009765625</LatitudeDegrees>
              <LongitudeDegrees>-2.92897333391010761260986328125</LongitudeDegrees>
            </Position>
            <AltitudeMeters>-60</AltitudeMeters>
            <DistanceMeters>NAN</DistanceMeters>
          </Trackpoint>
          <Trackpoint>
            <Time>2022-07-12T10:58:43.000Z</Time>
            <Position>
              <LatitudeDegrees>43.26822839677333831787109375</LatitudeDegrees>
              <LongitudeDegrees>-2.92920132167637348175048828125</LongitudeDegrees>
            </Position>
            <AltitudeMeters>-60</AltitudeMeters>
            <DistanceMeters>NAN</DistanceMeters>
          </Trackpoint>
          <Trackpoint>
            <Time>2022-07-12T10:58:46.000Z</Time>
            <Position>
              <LatitudeDegrees>43.26827265322208404541015625</LatitudeDegrees>
              <LongitudeDegrees>-2.9292708076536655426025390625</LongitudeDegrees>
            </Position>
            <AltitudeMeters>-60.200000762939453125</AltitudeMeters>
            <DistanceMeters>NAN</DistanceMeters>
          </Trackpoint>
          <Trackpoint>
            <Time>2022-07-12T10:58:51.000Z</Time>
            <Position>
              <LatitudeDegrees>43.26834515668451786041259765625</LatitudeDegrees>
              <LongitudeDegrees>-2.92937398888170719146728515625</LongitudeDegrees>
            </Position>
            <AltitudeMeters>-60.40000152587890625</AltitudeMeters>
            <DistanceMeters>NAN</DistanceMeters>
          </Trackpoint>
          <Trackpoint>
            <Time>2022-07-12T10:58:53.000Z</Time>
            <Position>
              <LatitudeDegrees>43.26834850944578647613525390625</LatitudeDegrees>
              <LongitudeDegrees>-2.92937030084431171417236328125</LongitudeDegrees>
            </Position>
            <AltitudeMeters>-60.59999847412109375</AltitudeMeters>
            <DistanceMeters>NAN</DistanceMeters>
          </Trackpoint>
          <Trackpoint>
            <Time>2022-07-12T10:59:04.000Z</Time>
            <Position>
              <LatitudeDegrees>43.2683472521603107452392578125</LatitudeDegrees>
              <LongitudeDegrees>-2.929387651383876800537109375</LongitudeDegrees>
            </Position>
            <AltitudeMeters>-60.200000762939453125</AltitudeMeters>
            <DistanceMeters>NAN</DistanceMeters>
          </Trackpoint>
          <Trackpoint>
            <Time>2022-07-12T10:59:05.000Z</Time>
            <Position>
              <LatitudeDegrees>43.268363513052463531494140625</LatitudeDegrees>
              <LongitudeDegrees>-2.9294059239327907562255859375</LongitudeDegrees>
            </Position>
            <AltitudeMeters>-60.200000762939453125</AltitudeMeters>
            <DistanceMeters>NAN</DistanceMeters>
          </Trackpoint>
          <Trackpoint>
            <Time>2022-07-12T10:59:09.000Z</Time>
            <Position>
              <LatitudeDegrees>43.26843366958200931549072265625</LatitudeDegrees>
              <LongitudeDegrees>-2.92949996888637542724609375</LongitudeDegrees>
            </Position>
            <AltitudeMeters>-60.200000762939453125</AltitudeMeters>
            <DistanceMeters>NAN</DistanceMeters>
          </Trackpoint>
          <Trackpoint>
            <Time>2022-07-12T10:59:10.000Z</Time>
            <Position>
              <LatitudeDegrees>43.2684552110731601715087890625</LatitudeDegrees>
              <LongitudeDegrees>-2.9295195825397968292236328125</LongitudeDegrees>
            </Position>
            <AltitudeMeters>-60</AltitudeMeters>
            <DistanceMeters>NAN</DistanceMeters>
          </Trackpoint>
          <Trackpoint>
            <Time>2022-07-12T10:59:16.000Z</Time>
            <Position>
              <LatitudeDegrees>43.26856861822307109832763671875</LatitudeDegrees>
              <LongitudeDegrees>-2.92967037297785282135009765625</LongitudeDegrees>
            </Position>
            <AltitudeMeters>-60</AltitudeMeters>
            <DistanceMeters>NAN</DistanceMeters>
          </Trackpoint>
          <Trackpoint>
            <Time>2022-07-12T10:59:24.000Z</Time>
            <Position>
              <LatitudeDegrees>43.26876810751855373382568359375</LatitudeDegrees>
              <LongitudeDegrees>-2.9299571178853511810302734375</LongitudeDegrees>
            </Position>
            <AltitudeMeters>-59.799999237060546875</AltitudeMeters>
            <DistanceMeters>NAN</DistanceMeters>
          </Trackpoint>
          <Trackpoint>
            <Time>2022-07-12T10:59:30.000Z</Time>
            <Position>
              <LatitudeDegrees>43.26888796873390674591064453125</LatitudeDegrees>
              <LongitudeDegrees>-2.93009600602090358734130859375</LongitudeDegrees>
            </Position>
            <AltitudeMeters>-59.799999237060546875</AltitudeMeters>
            <DistanceMeters>NAN</DistanceMeters>
          </Trackpoint>
          <Trackpoint>
            <Time>2022-07-12T10:59:35.000Z</Time>
            <Position>
              <LatitudeDegrees>43.26900598593056201934814453125</LatitudeDegrees>
              <LongitudeDegrees>-2.93023833073675632476806640625</LongitudeDegrees>
            </Position>
            <AltitudeMeters>-59.799999237060546875</AltitudeMeters>
            <DistanceMeters>NAN</DistanceMeters>
          </Trackpoint>
          <Trackpoint>
            <Time>2022-07-12T10:59:41.000Z</Time>
            <Position>
              <LatitudeDegrees>43.2690761424601078033447265625</LatitudeDegrees>
              <LongitudeDegrees>-2.9304134286940097808837890625</LongitudeDegrees>
            </Position>
            <AltitudeMeters>-59.59999847412109375</AltitudeMeters>
            <DistanceMeters>NAN</DistanceMeters>
          </Trackpoint>
          <Trackpoint>
            <Time>2022-07-12T10:59:45.000Z</Time>
            <Position>
              <LatitudeDegrees>43.26913096010684967041015625</LatitudeDegrees>
              <LongitudeDegrees>-2.9305381514132022857666015625</LongitudeDegrees>
            </Position>
            <AltitudeMeters>-59.59999847412109375</AltitudeMeters>
            <DistanceMeters>NAN</DistanceMeters>
          </Trackpoint>
          <Trackpoint>
            <Time>2022-07-12T10:59:46.000Z</Time>
            <Position>
              <LatitudeDegrees>43.2691656611859798431396484375</LatitudeDegrees>
              <LongitudeDegrees>-2.9306088946759700775146484375</LongitudeDegrees>
            </Position>
            <AltitudeMeters>-59.59999847412109375</AltitudeMeters>
            <DistanceMeters>NAN</DistanceMeters>
          </Trackpoint>
          <Trackpoint>
            <Time>2022-07-12T10:59:53.000Z</Time>
            <Position>
              <LatitudeDegrees>43.2692729495465755462646484375</LatitudeDegrees>
              <LongitudeDegrees>-2.93087502010166645050048828125</LongitudeDegrees>
            </Position>
            <AltitudeMeters>-59.40000152587890625</AltitudeMeters>
            <DistanceMeters>NAN</DistanceMeters>
          </Trackpoint>
          <Trackpoint>
            <Time>2022-07-12T10:59:54.000Z</Time>
            <Position>
              <LatitudeDegrees>43.26928761787712574005126953125</LatitudeDegrees>
              <LongitudeDegrees>-2.9309062846004962921142578125</LongitudeDegrees>
            </Position>
            <AltitudeMeters>-59.200000762939453125</AltitudeMeters>
            <DistanceMeters>NAN</DistanceMeters>
          </Trackpoint>
          <Trackpoint>
            <Time>2022-07-12T10:59:57.000Z</Time>
            <Position>
              <LatitudeDegrees>43.26934059150516986846923828125</LatitudeDegrees>
              <LongitudeDegrees>-2.93100007809698581695556640625</LongitudeDegrees>
            </Position>
            <AltitudeMeters>-59.200000762939453125</AltitudeMeters>
            <DistanceMeters>NAN</DistanceMeters>
          </Trackpoint>
          <Trackpoint>
            <Time>2022-07-12T11:00:03.000Z</Time>
            <Position>
              <LatitudeDegrees>43.26944519765675067901611328125</LatitudeDegrees>
              <LongitudeDegrees>-2.9311403073370456695556640625</LongitudeDegrees>
            </Position>
            <AltitudeMeters>-58.799999237060546875</AltitudeMeters>
            <DistanceMeters>NAN</DistanceMeters>
          </Trackpoint>
          <Trackpoint>
            <Time>2022-07-12T11:00:06.000Z</Time>
            <Position>
              <LatitudeDegrees>43.2694781385362148284912109375</LatitudeDegrees>
              <LongitudeDegrees>-2.93119378387928009033203125</LongitudeDegrees>
            </Position>
            <AltitudeMeters>-58.40000152587890625</AltitudeMeters>
            <DistanceMeters>NAN</DistanceMeters>
          </Trackpoint>
          <Trackpoint>
            <Time>2022-07-12T11:00:10.000Z</Time>
            <Position>
              <LatitudeDegrees>43.269531615078449249267578125</LatitudeDegrees>
              <LongitudeDegrees>-2.9312985576689243316650390625</LongitudeDegrees>
            </Position>
            <AltitudeMeters>-58.200000762939453125</AltitudeMeters>
            <DistanceMeters>NAN</DistanceMeters>
          </Trackpoint>
          <Trackpoint>
            <Time>2022-07-12T11:00:17.000Z</Time>
            <Position>
              <LatitudeDegrees>43.26966363005340099334716796875</LatitudeDegrees>
              <LongitudeDegrees>-2.9315144754946231842041015625</LongitudeDegrees>
            </Position>
            <AltitudeMeters>-58.200000762939453125</AltitudeMeters>
            <DistanceMeters>NAN</DistanceMeters>
          </Trackpoint>
          <Trackpoint>
            <Time>2022-07-12T11:00:19.000Z</Time>
            <Position>
              <LatitudeDegrees>43.2696890272200107574462890625</LatitudeDegrees>
              <LongitudeDegrees>-2.9315617494285106658935546875</LongitudeDegrees>
            </Position>
            <AltitudeMeters>-58.200000762939453125</AltitudeMeters>
            <DistanceMeters>NAN</DistanceMeters>
          </Trackpoint>
          <Trackpoint>
            <Time>2022-07-12T11:00:21.000Z</Time>
            <Position>
              <LatitudeDegrees>43.269724734127521514892578125</LatitudeDegrees>
              <LongitudeDegrees>-2.93160122819244861602783203125</LongitudeDegrees>
            </Position>
            <AltitudeMeters>-58.40000152587890625</AltitudeMeters>
            <DistanceMeters>NAN</DistanceMeters>
          </Trackpoint>
          <Trackpoint>
            <Time>2022-07-12T11:00:27.000Z</Time>
            <Position>
              <LatitudeDegrees>43.26980528421700000762939453125</LatitudeDegrees>
              <LongitudeDegrees>-2.93171337805688381195068359375</LongitudeDegrees>
            </Position>
            <AltitudeMeters>-58.200000762939453125</AltitudeMeters>
            <DistanceMeters>NAN</DistanceMeters>
          </Trackpoint>
          <Trackpoint>
            <Time>2022-07-12T11:00:28.000Z</Time>
            <Position>
              <LatitudeDegrees>43.26981961727142333984375</LatitudeDegrees>
              <LongitudeDegrees>-2.93175143189728260040283203125</LongitudeDegrees>
            </Position>
            <AltitudeMeters>-58.200000762939453125</AltitudeMeters>
            <DistanceMeters>NAN</DistanceMeters>
          </Trackpoint>
          <Trackpoint>
            <Time>2022-07-12T11:00:30.000Z</Time>
            <Position>
              <LatitudeDegrees>43.26982104219496250152587890625</LatitudeDegrees>
              <LongitudeDegrees>-2.931812368333339691162109375</LongitudeDegrees>
            </Position>
            <AltitudeMeters>-58.200000762939453125</AltitudeMeters>
            <DistanceMeters>NAN</DistanceMeters>
          </Trackpoint>
          <Trackpoint>
            <Time>2022-07-12T11:00:33.000Z</Time>
            <Position>
              <LatitudeDegrees>43.2698305137455463409423828125</LatitudeDegrees>
              <LongitudeDegrees>-2.9319094307720661163330078125</LongitudeDegrees>
            </Position>
            <AltitudeMeters>-58.200000762939453125</AltitudeMeters>
            <DistanceMeters>NAN</DistanceMeters>
          </Trackpoint>
          <Trackpoint>
            <Time>2022-07-12T11:00:36.000Z</Time>
            <Position>
              <LatitudeDegrees>43.26983311213552951812744140625</LatitudeDegrees>
              <LongitudeDegrees>-2.9319266974925994873046875</LongitudeDegrees>
            </Position>
            <AltitudeMeters>-58.200000762939453125</AltitudeMeters>
            <DistanceMeters>NAN</DistanceMeters>
          </Trackpoint>
          <Trackpoint>
            <Time>2022-07-12T11:00:52.000Z</Time>
            <Position>
              <LatitudeDegrees>43.26983545906841754913330078125</LatitudeDegrees>
              <LongitudeDegrees>-2.9321595467627048492431640625</LongitudeDegrees>
            </Position>
            <AltitudeMeters>-58</AltitudeMeters>
            <DistanceMeters>NAN</DistanceMeters>
          </Trackpoint>
          <Trackpoint>
            <Time>2022-07-12T11:00:54.000Z</Time>
            <Position>
              <LatitudeDegrees>43.26986814849078655242919921875</LatitudeDegrees>
              <LongitudeDegrees>-2.93221595697104930877685546875</LongitudeDegrees>
            </Position>
            <AltitudeMeters>-58</AltitudeMeters>
            <DistanceMeters>NAN</DistanceMeters>
          </Trackpoint>
          <Trackpoint>
            <Time>2022-07-12T11:01:01.000Z</Time>
            <Position>
              <LatitudeDegrees>43.2699166797101497650146484375</LatitudeDegrees>
              <LongitudeDegrees>-2.9324569366872310638427734375</LongitudeDegrees>
            </Position>
            <AltitudeMeters>-57.59999847412109375</AltitudeMeters>
            <DistanceMeters>NAN</DistanceMeters>
          </Trackpoint>
          <Trackpoint>
            <Time>2022-07-12T11:01:05.000Z</Time>
            <Position>
              <LatitudeDegrees>43.26992229558527469635009765625</LatitudeDegrees>
              <LongitudeDegrees>-2.93261711485683917999267578125</LongitudeDegrees>
            </Position>
            <AltitudeMeters>-57.59999847412109375</AltitudeMeters>
            <DistanceMeters>NAN</DistanceMeters>
          </Trackpoint>
          <Trackpoint>
            <Time>2022-07-12T11:01:08.000Z</Time>
            <Position>
              <LatitudeDegrees>43.26993470080196857452392578125</LatitudeDegrees>
              <LongitudeDegrees>-2.9327348805963993072509765625</LongitudeDegrees>
            </Position>
            <AltitudeMeters>-57.59999847412109375</AltitudeMeters>
            <DistanceMeters>NAN</DistanceMeters>
          </Trackpoint>
          <Trackpoint>
            <Time>2022-07-12T11:01:17.000Z</Time>
            <Position>
              <LatitudeDegrees>43.2699760235846042633056640625</LatitudeDegrees>
              <LongitudeDegrees>-2.93313528411090373992919921875</LongitudeDegrees>
            </Position>
            <AltitudeMeters>-57.799999237060546875</AltitudeMeters>
            <DistanceMeters>NAN</DistanceMeters>
          </Trackpoint>
          <Trackpoint>
            <Time>2022-07-12T11:01:20.000Z</Time>
            <Position>
              <LatitudeDegrees>43.2700112275779247283935546875</LatitudeDegrees>
              <LongitudeDegrees>-2.9332917742431163787841796875</LongitudeDegrees>
            </Position>
            <AltitudeMeters>-58</AltitudeMeters>
            <DistanceMeters>NAN</DistanceMeters>
          </Trackpoint>
          <Trackpoint>
            <Time>2022-07-12T11:01:22.000Z</Time>
            <Position>
              <LatitudeDegrees>43.2700528018176555633544921875</LatitudeDegrees>
              <LongitudeDegrees>-2.9333548061549663543701171875</LongitudeDegrees>
            </Position>
            <AltitudeMeters>-58</AltitudeMeters>
            <DistanceMeters>NAN</DistanceMeters>
          </Trackpoint>
          <Trackpoint>
            <Time>2022-07-12T11:01:27.000Z</Time>
            <Position>
              <LatitudeDegrees>43.27008876018226146697998046875</LatitudeDegrees>
              <LongitudeDegrees>-2.933572567999362945556640625</LongitudeDegrees>
            </Position>
            <AltitudeMeters>-58</AltitudeMeters>
            <DistanceMeters>NAN</DistanceMeters>
          </Trackpoint>
          <Trackpoint>
            <Time>2022-07-12T11:01:35.000Z</Time>
            <Position>
              <LatitudeDegrees>43.270117007195949554443359375</LatitudeDegrees>
              <LongitudeDegrees>-2.9339311458170413970947265625</LongitudeDegrees>
            </Position>
            <AltitudeMeters>-58.200000762939453125</AltitudeMeters>
            <DistanceMeters>NAN</DistanceMeters>
          </Trackpoint>
          <Trackpoint>
            <Time>2022-07-12T11:01:43.000Z</Time>
            <Position>
              <LatitudeDegrees>43.27013351954519748687744140625</LatitudeDegrees>
              <LongitudeDegrees>-2.93427907861769199371337890625</LongitudeDegrees>
            </Position>
            <AltitudeMeters>-58.200000762939453125</AltitudeMeters>
            <DistanceMeters>NAN</DistanceMeters>
          </Trackpoint>
          <Trackpoint>
            <Time>2022-07-12T11:01:50.000Z</Time>
            <Position>
              <LatitudeDegrees>43.2701470144093036651611328125</LatitudeDegrees>
              <LongitudeDegrees>-2.93460295535624027252197265625</LongitudeDegrees>
            </Position>
            <AltitudeMeters>-58.59999847412109375</AltitudeMeters>
            <DistanceMeters>NAN</DistanceMeters>
          </Trackpoint>
          <Trackpoint>
            <Time>2022-07-12T11:01:54.000Z</Time>
            <Position>
              <LatitudeDegrees>43.270141147077083587646484375</LatitudeDegrees>
              <LongitudeDegrees>-2.93475248850882053375244140625</LongitudeDegrees>
            </Position>
            <AltitudeMeters>-58.799999237060546875</AltitudeMeters>
            <DistanceMeters>NAN</DistanceMeters>
          </Trackpoint>
          <Trackpoint>
            <Time>2022-07-12T11:01:58.000Z</Time>
            <Position>
              <LatitudeDegrees>43.27011290006339550018310546875</LatitudeDegrees>
              <LongitudeDegrees>-2.9348045401275157928466796875</LongitudeDegrees>
            </Position>
            <AltitudeMeters>-59</AltitudeMeters>
            <DistanceMeters>NAN</DistanceMeters>
          </Trackpoint>
          <Trackpoint>
            <Time>2022-07-12T11:02:00.000Z</Time>
            <Position>
              <LatitudeDegrees>43.27011290006339550018310546875</LatitudeDegrees>
              <LongitudeDegrees>-2.9348045401275157928466796875</LongitudeDegrees>
            </Position>
            <AltitudeMeters>-59.40000152587890625</AltitudeMeters>
            <DistanceMeters>NAN</DistanceMeters>
          </Trackpoint>
          <Trackpoint>
            <Time>2022-07-12T11:03:50.000Z</Time>
            <Position>
              <LatitudeDegrees>43.2701161690056324005126953125</LatitudeDegrees>
              <LongitudeDegrees>-2.93489146046340465545654296875</LongitudeDegrees>
            </Position>
            <AltitudeMeters>-60.59999847412109375</AltitudeMeters>
            <DistanceMeters>NAN</DistanceMeters>
          </Trackpoint>
          <Trackpoint>
            <Time>2022-07-12T11:03:51.000Z</Time>
            <Position>
              <LatitudeDegrees>43.270122706890106201171875</LatitudeDegrees>
              <LongitudeDegrees>-2.93492875993251800537109375</LongitudeDegrees>
            </Position>
            <AltitudeMeters>-60.59999847412109375</AltitudeMeters>
            <DistanceMeters>NAN</DistanceMeters>
          </Trackpoint>
          <Trackpoint>
            <Time>2022-07-12T11:03:54.000Z</Time>
            <Position>
              <LatitudeDegrees>43.27013419009745121002197265625</LatitudeDegrees>
              <LongitudeDegrees>-2.93505482375621795654296875</LongitudeDegrees>
            </Position>
            <AltitudeMeters>-61.59999847412109375</AltitudeMeters>
            <DistanceMeters>NAN</DistanceMeters>
          </Trackpoint>
          <Trackpoint>
            <Time>2022-07-12T11:03:57.000Z</Time>
            <Position>
              <LatitudeDegrees>43.27013268135488033294677734375</LatitudeDegrees>
              <LongitudeDegrees>-2.93515674769878387451171875</LongitudeDegrees>
            </Position>
            <AltitudeMeters>-62.59999847412109375</AltitudeMeters>
            <DistanceMeters>NAN</DistanceMeters>
          </Trackpoint>
          <Trackpoint>
            <Time>2022-07-12T11:04:01.000Z</Time>
            <Position>
              <LatitudeDegrees>43.27012530528008937835693359375</LatitudeDegrees>
              <LongitudeDegrees>-2.93518491089344024658203125</LongitudeDegrees>
            </Position>
            <AltitudeMeters>-62.40000152587890625</AltitudeMeters>
            <DistanceMeters>NAN</DistanceMeters>
          </Trackpoint>
          <Trackpoint>
            <Time>2022-07-12T11:04:11.000Z</Time>
            <Position>
              <LatitudeDegrees>43.270118348300457000732421875</LatitudeDegrees>
              <LongitudeDegrees>-2.9352357052266597747802734375</LongitudeDegrees>
            </Position>
            <AltitudeMeters>-62.200000762939453125</AltitudeMeters>
            <DistanceMeters>NAN</DistanceMeters>
          </Trackpoint>
          <Trackpoint>
            <Time>2022-07-12T11:04:13.000Z</Time>
            <Position>
              <LatitudeDegrees>43.2701144926249980926513671875</LatitudeDegrees>
              <LongitudeDegrees>-2.93530762195587158203125</LongitudeDegrees>
            </Position>
            <AltitudeMeters>-62.200000762939453125</AltitudeMeters>
            <DistanceMeters>NAN</DistanceMeters>
          </Trackpoint>
          <Trackpoint>
            <Time>2022-07-12T11:04:18.000Z</Time>
            <Position>
              <LatitudeDegrees>43.2701175101101398468017578125</LatitudeDegrees>
              <LongitudeDegrees>-2.9355072788894176483154296875</LongitudeDegrees>
            </Position>
            <AltitudeMeters>-62.200000762939453125</AltitudeMeters>
            <DistanceMeters>NAN</DistanceMeters>
          </Trackpoint>
          <Trackpoint>
            <Time>2022-07-12T11:04:20.000Z</Time>
            <Position>
              <LatitudeDegrees>43.2701382972300052642822265625</LatitudeDegrees>
              <LongitudeDegrees>-2.93557877652347087860107421875</LongitudeDegrees>
            </Position>
            <AltitudeMeters>-62.40000152587890625</AltitudeMeters>
            <DistanceMeters>NAN</DistanceMeters>
          </Trackpoint>
          <Trackpoint>
            <Time>2022-07-12T11:04:27.000Z</Time>
            <Position>
              <LatitudeDegrees>43.27017190866172313690185546875</LatitudeDegrees>
              <LongitudeDegrees>-2.93587298132479190826416015625</LongitudeDegrees>
            </Position>
            <AltitudeMeters>-61.799999237060546875</AltitudeMeters>
            <DistanceMeters>NAN</DistanceMeters>
          </Trackpoint>
          <Trackpoint>
            <Time>2022-07-12T11:04:28.000Z</Time>
            <Position>
              <LatitudeDegrees>43.27017241157591342926025390625</LatitudeDegrees>
              <LongitudeDegrees>-2.93591556139290332794189453125</LongitudeDegrees>
            </Position>
            <AltitudeMeters>-62.59999847412109375</AltitudeMeters>
            <DistanceMeters>NAN</DistanceMeters>
          </Trackpoint>
          <Trackpoint>
            <Time>2022-07-12T11:04:30.000Z</Time>
            <Position>
              <LatitudeDegrees>43.2701798714697360992431640625</LatitudeDegrees>
              <LongitudeDegrees>-2.93599200434982776641845703125</LongitudeDegrees>
            </Position>
            <AltitudeMeters>-63.40000152587890625</AltitudeMeters>
            <DistanceMeters>NAN</DistanceMeters>
          </Trackpoint>
          <Trackpoint>
            <Time>2022-07-12T11:04:32.000Z</Time>
            <Position>
              <LatitudeDegrees>43.270191438496112823486328125</LatitudeDegrees>
              <LongitudeDegrees>-2.9360601492226123809814453125</LongitudeDegrees>
            </Position>
            <AltitudeMeters>-63.59999847412109375</AltitudeMeters>
            <DistanceMeters>NAN</DistanceMeters>
          </Trackpoint>
          <Trackpoint>
            <Time>2022-07-12T11:04:33.000Z</Time>
            <Position>
              <LatitudeDegrees>43.27019521035254001617431640625</LatitudeDegrees>
              <LongitudeDegrees>-2.93608353473246097564697265625</LongitudeDegrees>
            </Position>
            <AltitudeMeters>-63.59999847412109375</AltitudeMeters>
            <DistanceMeters>NAN</DistanceMeters>
          </Trackpoint>
          <Trackpoint>
            <Time>2022-07-12T11:04:39.000Z</Time>
            <Position>
              <LatitudeDegrees>43.2702127285301685333251953125</LatitudeDegrees>
              <LongitudeDegrees>-2.93622720055282115936279296875</LongitudeDegrees>
            </Position>
            <AltitudeMeters>-63.200000762939453125</AltitudeMeters>
            <DistanceMeters>NAN</DistanceMeters>
          </Trackpoint>
          <Trackpoint>
            <Time>2022-07-12T11:04:42.000Z</Time>
            <Position>
              <LatitudeDegrees>43.2702372036874294281005859375</LatitudeDegrees>
              <LongitudeDegrees>-2.93625108897686004638671875</LongitudeDegrees>
            </Position>
            <AltitudeMeters>-63</AltitudeMeters>
            <DistanceMeters>NAN</DistanceMeters>
          </Trackpoint>
          <Trackpoint>
            <Time>2022-07-12T11:04:44.000Z</Time>
            <Position>
              <LatitudeDegrees>43.27026075683534145355224609375</LatitudeDegrees>
              <LongitudeDegrees>-2.936302721500396728515625</LongitudeDegrees>
            </Position>
            <AltitudeMeters>-63</AltitudeMeters>
            <DistanceMeters>NAN</DistanceMeters>
          </Trackpoint>
          <Trackpoint>
            <Time>2022-07-12T11:04:49.000Z</Time>
            <Position>
              <LatitudeDegrees>43.27027517370879650115966796875</LatitudeDegrees>
              <LongitudeDegrees>-2.9365178011357784271240234375</LongitudeDegrees>
            </Position>
            <AltitudeMeters>-62.40000152587890625</AltitudeMeters>
            <DistanceMeters>NAN</DistanceMeters>
          </Trackpoint>
          <Trackpoint>
            <Time>2022-07-12T11:04:54.000Z</Time>
            <Position>
              <LatitudeDegrees>43.27028623782098293304443359375</LatitudeDegrees>
              <LongitudeDegrees>-2.9366103373467922210693359375</LongitudeDegrees>
            </Position>
            <AltitudeMeters>-62.40000152587890625</AltitudeMeters>
            <DistanceMeters>NAN</DistanceMeters>
          </Trackpoint>
          <Trackpoint>
            <Time>2022-07-12T11:04:55.000Z</Time>
            <Position>
              <LatitudeDegrees>43.27028623782098293304443359375</LatitudeDegrees>
              <LongitudeDegrees>-2.9366103373467922210693359375</LongitudeDegrees>
            </Position>
            <AltitudeMeters>-62.40000152587890625</AltitudeMeters>
            <DistanceMeters>NAN</DistanceMeters>
          </Trackpoint>
          <Trackpoint>
            <Time>2022-07-12T11:07:12.000Z</Time>
            <Position>
              <LatitudeDegrees>43.2702563144266605377197265625</LatitudeDegrees>
              <LongitudeDegrees>-2.93669792823493480682373046875</LongitudeDegrees>
            </Position>
            <AltitudeMeters>-61.40000152587890625</AltitudeMeters>
            <DistanceMeters>NAN</DistanceMeters>
          </Trackpoint>
          <Trackpoint>
            <Time>2022-07-12T11:07:13.000Z</Time>
            <Position>
              <LatitudeDegrees>43.270261175930500030517578125</LatitudeDegrees>
              <LongitudeDegrees>-2.9367317073047161102294921875</LongitudeDegrees>
            </Position>
            <AltitudeMeters>-61.40000152587890625</AltitudeMeters>
            <DistanceMeters>NAN</DistanceMeters>
          </Trackpoint>
          <Trackpoint>
            <Time>2022-07-12T11:07:14.000Z</Time>
            <Position>
              <LatitudeDegrees>43.27026293613016605377197265625</LatitudeDegrees>
              <LongitudeDegrees>-2.93676984496414661407470703125</LongitudeDegrees>
            </Position>
            <AltitudeMeters>-61.200000762939453125</AltitudeMeters>
            <DistanceMeters>NAN</DistanceMeters>
          </Trackpoint>
          <Trackpoint>
            <Time>2022-07-12T11:07:17.000Z</Time>
            <Position>
              <LatitudeDegrees>43.2702455855906009674072265625</LatitudeDegrees>
              <LongitudeDegrees>-2.93695575557649135589599609375</LongitudeDegrees>
            </Position>
            <AltitudeMeters>-61</AltitudeMeters>
            <DistanceMeters>NAN</DistanceMeters>
          </Trackpoint>
          <Trackpoint>
            <Time>2022-07-12T11:07:18.000Z</Time>
            <Position>
              <LatitudeDegrees>43.27024198137223720550537109375</LatitudeDegrees>
              <LongitudeDegrees>-2.93702884577214717864990234375</LongitudeDegrees>
            </Position>
            <AltitudeMeters>-61</AltitudeMeters>
            <DistanceMeters>NAN</DistanceMeters>
          </Trackpoint>
          <Trackpoint>
            <Time>2022-07-12T11:07:22.000Z</Time>
            <Position>
              <LatitudeDegrees>43.27022437937557697296142578125</LatitudeDegrees>
              <LongitudeDegrees>-2.93729119934141635894775390625</LongitudeDegrees>
            </Position>
            <AltitudeMeters>-61</AltitudeMeters>
            <DistanceMeters>NAN</DistanceMeters>
          </Trackpoint>
          <Trackpoint>
            <Time>2022-07-12T11:07:23.000Z</Time>
            <Position>
              <LatitudeDegrees>43.27021566219627857208251953125</LatitudeDegrees>
              <LongitudeDegrees>-2.93735104613006114959716796875</LongitudeDegrees>
            </Position>
            <AltitudeMeters>-61</AltitudeMeters>
            <DistanceMeters>NAN</DistanceMeters>
          </Trackpoint>
          <Trackpoint>
            <Time>2022-07-12T11:07:24.000Z</Time>
            <Position>
              <LatitudeDegrees>43.27020962722599506378173828125</LatitudeDegrees>
              <LongitudeDegrees>-2.93740854598581790924072265625</LongitudeDegrees>
            </Position>
            <AltitudeMeters>-61</AltitudeMeters>
            <DistanceMeters>NAN</DistanceMeters>
          </Trackpoint>
          <Trackpoint>
            <Time>2022-07-12T11:07:26.000Z</Time>
            <Position>
              <LatitudeDegrees>43.270194120705127716064453125</LatitudeDegrees>
              <LongitudeDegrees>-2.93751331977546215057373046875</LongitudeDegrees>
            </Position>
            <AltitudeMeters>-61</AltitudeMeters>
            <DistanceMeters>NAN</DistanceMeters>
          </Trackpoint>
          <Trackpoint>
            <Time>2022-07-12T11:07:30.000Z</Time>
            <Position>
              <LatitudeDegrees>43.270182050764560699462890625</LatitudeDegrees>
              <LongitudeDegrees>-2.93773527257144451141357421875</LongitudeDegrees>
            </Position>
            <AltitudeMeters>-61</AltitudeMeters>
            <DistanceMeters>NAN</DistanceMeters>
          </Trackpoint>
          <Trackpoint>
            <Time>2022-07-12T11:07:38.000Z</Time>
            <Position>
              <LatitudeDegrees>43.27016151510179042816162109375</LatitudeDegrees>
              <LongitudeDegrees>-2.9381891526281833648681640625</LongitudeDegrees>
            </Position>
            <AltitudeMeters>-60.799999237060546875</AltitudeMeters>
            <DistanceMeters>NAN</DistanceMeters>
          </Trackpoint>
          <Trackpoint>
            <Time>2022-07-12T11:07:39.000Z</Time>
            <Position>
              <LatitudeDegrees>43.2701580785214900970458984375</LatitudeDegrees>
              <LongitudeDegrees>-2.93824271298944950103759765625</LongitudeDegrees>
            </Position>
            <AltitudeMeters>-60.799999237060546875</AltitudeMeters>
            <DistanceMeters>NAN</DistanceMeters>
          </Trackpoint>
          <Trackpoint>
            <Time>2022-07-12T11:07:47.000Z</Time>
            <Position>
              <LatitudeDegrees>43.2701111398637294769287109375</LatitudeDegrees>
              <LongitudeDegrees>-2.93865527026355266571044921875</LongitudeDegrees>
            </Position>
            <AltitudeMeters>-61</AltitudeMeters>
            <DistanceMeters>NAN</DistanceMeters>
          </Trackpoint>
          <Trackpoint>
            <Time>2022-07-12T11:07:52.000Z</Time>
            <Position>
              <LatitudeDegrees>43.2700970582664012908935546875</LatitudeDegrees>
              <LongitudeDegrees>-2.93891577981412410736083984375</LongitudeDegrees>
            </Position>
            <AltitudeMeters>-61</AltitudeMeters>
            <DistanceMeters>NAN</DistanceMeters>
          </Trackpoint>
          <Trackpoint>
            <Time>2022-07-12T11:07:54.000Z</Time>
            <Position>
              <LatitudeDegrees>43.2700864970684051513671875</LatitudeDegrees>
              <LongitudeDegrees>-2.93901669792830944061279296875</LongitudeDegrees>
            </Position>
            <AltitudeMeters>-61</AltitudeMeters>
            <DistanceMeters>NAN</DistanceMeters>
          </Trackpoint>
          <Trackpoint>
            <Time>2022-07-12T11:07:55.000Z</Time>
            <Position>
              <LatitudeDegrees>43.27007769607007503509521484375</LatitudeDegrees>
              <LongitudeDegrees>-2.939064390957355499267578125</LongitudeDegrees>
            </Position>
            <AltitudeMeters>-61</AltitudeMeters>
            <DistanceMeters>NAN</DistanceMeters>
          </Trackpoint>
          <Trackpoint>
            <Time>2022-07-12T11:07:57.000Z</Time>
            <Position>
              <LatitudeDegrees>43.2700668834149837493896484375</LatitudeDegrees>
              <LongitudeDegrees>-2.93915994465351104736328125</LongitudeDegrees>
            </Position>
            <AltitudeMeters>-61</AltitudeMeters>
            <DistanceMeters>NAN</DistanceMeters>
          </Trackpoint>
          <Trackpoint>
            <Time>2022-07-12T11:07:58.000Z</Time>
            <Position>
              <LatitudeDegrees>43.27005959115922451019287109375</LatitudeDegrees>
              <LongitudeDegrees>-2.93920554220676422119140625</LongitudeDegrees>
            </Position>
            <AltitudeMeters>-61</AltitudeMeters>
            <DistanceMeters>NAN</DistanceMeters>
          </Trackpoint>
          <Trackpoint>
            <Time>2022-07-12T11:07:59.000Z</Time>
            <Position>
              <LatitudeDegrees>43.2700517959892749786376953125</LatitudeDegrees>
              <LongitudeDegrees>-2.9392519779503345489501953125</LongitudeDegrees>
            </Position>
            <AltitudeMeters>-61</AltitudeMeters>
            <DistanceMeters>NAN</DistanceMeters>
          </Trackpoint>
          <Trackpoint>
            <Time>2022-07-12T11:08:00.000Z</Time>
            <Position>
              <LatitudeDegrees>43.2700430788099765777587890625</LatitudeDegrees>
              <LongitudeDegrees>-2.93929799459874629974365234375</LongitudeDegrees>
            </Position>
            <AltitudeMeters>-61</AltitudeMeters>
            <DistanceMeters>NAN</DistanceMeters>
          </Trackpoint>
          <Trackpoint>
            <Time>2022-07-12T11:08:01.000Z</Time>
            <Position>
              <LatitudeDegrees>43.270037211477756500244140625</LatitudeDegrees>
              <LongitudeDegrees>-2.9393418319523334503173828125</LongitudeDegrees>
            </Position>
            <AltitudeMeters>-60.799999237060546875</AltitudeMeters>
            <DistanceMeters>NAN</DistanceMeters>
          </Trackpoint>
          <Trackpoint>
            <Time>2022-07-12T11:08:09.000Z</Time>
            <Position>
              <LatitudeDegrees>43.26999773271381855010986328125</LatitudeDegrees>
              <LongitudeDegrees>-2.93968004174530506134033203125</LongitudeDegrees>
            </Position>
            <AltitudeMeters>-61</AltitudeMeters>
            <DistanceMeters>NAN</DistanceMeters>
          </Trackpoint>
          <Trackpoint>
            <Time>2022-07-12T11:08:12.000Z</Time>
            <Position>
              <LatitudeDegrees>43.26998013071715831756591796875</LatitudeDegrees>
              <LongitudeDegrees>-2.9398222826421260833740234375</LongitudeDegrees>
            </Position>
            <AltitudeMeters>-61</AltitudeMeters>
            <DistanceMeters>NAN</DistanceMeters>
          </Trackpoint>
          <Trackpoint>
            <Time>2022-07-12T11:08:15.000Z</Time>
            <Position>
              <LatitudeDegrees>43.269956074655055999755859375</LatitudeDegrees>
              <LongitudeDegrees>-2.9399718157947063446044921875</LongitudeDegrees>
            </Position>
            <AltitudeMeters>-61</AltitudeMeters>
            <DistanceMeters>NAN</DistanceMeters>
          </Trackpoint>
          <Trackpoint>
            <Time>2022-07-12T11:08:17.000Z</Time>
            <Position>
              <LatitudeDegrees>43.26994308270514011383056640625</LatitudeDegrees>
              <LongitudeDegrees>-2.94007189571857452392578125</LongitudeDegrees>
            </Position>
            <AltitudeMeters>-61</AltitudeMeters>
            <DistanceMeters>NAN</DistanceMeters>
          </Trackpoint>
          <Trackpoint>
            <Time>2022-07-12T11:08:26.000Z</Time>
            <Position>
              <LatitudeDegrees>43.26986211352050304412841796875</LatitudeDegrees>
              <LongitudeDegrees>-2.940524183213710784912109375</LongitudeDegrees>
            </Position>
            <AltitudeMeters>-61.200000762939453125</AltitudeMeters>
            <DistanceMeters>NAN</DistanceMeters>
          </Trackpoint>
          <Trackpoint>
            <Time>2022-07-12T11:08:30.000Z</Time>
            <Position>
              <LatitudeDegrees>43.2698023505508899688720703125</LatitudeDegrees>
              <LongitudeDegrees>-2.94070598669350147247314453125</LongitudeDegrees>
            </Position>
            <AltitudeMeters>-61.200000762939453125</AltitudeMeters>
            <DistanceMeters>NAN</DistanceMeters>
          </Trackpoint>
          <Trackpoint>
            <Time>2022-07-12T11:08:32.000Z</Time>
            <Position>
              <LatitudeDegrees>43.26979103498160839080810546875</LatitudeDegrees>
              <LongitudeDegrees>-2.940815873444080352783203125</LongitudeDegrees>
            </Position>
            <AltitudeMeters>-61.200000762939453125</AltitudeMeters>
            <DistanceMeters>NAN</DistanceMeters>
          </Trackpoint>
          <Trackpoint>
            <Time>2022-07-12T11:08:40.000Z</Time>
            <Position>
              <LatitudeDegrees>43.2696826569736003875732421875</LatitudeDegrees>
              <LongitudeDegrees>-2.94118442572653293609619140625</LongitudeDegrees>
            </Position>
            <AltitudeMeters>-61</AltitudeMeters>
            <DistanceMeters>NAN</DistanceMeters>
          </Trackpoint>
          <Trackpoint>
            <Time>2022-07-12T11:08:48.000Z</Time>
            <Position>
              <LatitudeDegrees>43.26957562007009983062744140625</LatitudeDegrees>
              <LongitudeDegrees>-2.94155406765639781951904296875</LongitudeDegrees>
            </Position>
            <AltitudeMeters>-60.59999847412109375</AltitudeMeters>
            <DistanceMeters>NAN</DistanceMeters>
          </Trackpoint>
          <Trackpoint>
            <Time>2022-07-12T11:08:49.000Z</Time>
            <Position>
              <LatitudeDegrees>43.26956505887210369110107421875</LatitudeDegrees>
              <LongitudeDegrees>-2.941602431237697601318359375</LongitudeDegrees>
            </Position>
            <AltitudeMeters>-60.40000152587890625</AltitudeMeters>
            <DistanceMeters>NAN</DistanceMeters>
          </Trackpoint>
          <Trackpoint>
            <Time>2022-07-12T11:08:51.000Z</Time>
            <Position>
              <LatitudeDegrees>43.26953823678195476531982421875</LatitudeDegrees>
              <LongitudeDegrees>-2.941698990762233734130859375</LongitudeDegrees>
            </Position>
            <AltitudeMeters>-60.40000152587890625</AltitudeMeters>
            <DistanceMeters>NAN</DistanceMeters>
          </Trackpoint>
          <Trackpoint>
            <Time>2022-07-12T11:08:58.000Z</Time>
            <Position>
              <LatitudeDegrees>43.26943078078329563140869140625</LatitudeDegrees>
              <LongitudeDegrees>-2.94202043674886226654052734375</LongitudeDegrees>
            </Position>
            <AltitudeMeters>-60.59999847412109375</AltitudeMeters>
            <DistanceMeters>NAN</DistanceMeters>
          </Trackpoint>
          <Trackpoint>
            <Time>2022-07-12T11:09:07.000Z</Time>
            <Position>
              <LatitudeDegrees>43.269317038357257843017578125</LatitudeDegrees>
              <LongitudeDegrees>-2.942440621554851531982421875</LongitudeDegrees>
            </Position>
            <AltitudeMeters>-60.59999847412109375</AltitudeMeters>
            <DistanceMeters>NAN</DistanceMeters>
          </Trackpoint>
          <Trackpoint>
            <Time>2022-07-12T11:09:08.000Z</Time>
            <Position>
              <LatitudeDegrees>43.26930907554924488067626953125</LatitudeDegrees>
              <LongitudeDegrees>-2.942484878003597259521484375</LongitudeDegrees>
            </Position>
            <AltitudeMeters>-60.59999847412109375</AltitudeMeters>
            <DistanceMeters>NAN</DistanceMeters>
          </Trackpoint>
          <Trackpoint>
            <Time>2022-07-12T11:09:16.000Z</Time>
            <Position>
              <LatitudeDegrees>43.269197009503841400146484375</LatitudeDegrees>
              <LongitudeDegrees>-2.942865081131458282470703125</LongitudeDegrees>
            </Position>
            <AltitudeMeters>-61</AltitudeMeters>
            <DistanceMeters>NAN</DistanceMeters>
          </Trackpoint>
          <Trackpoint>
            <Time>2022-07-12T11:09:18.000Z</Time>
            <Position>
              <LatitudeDegrees>43.2691763900220394134521484375</LatitudeDegrees>
              <LongitudeDegrees>-2.94294361956417560577392578125</LongitudeDegrees>
            </Position>
            <AltitudeMeters>-61</AltitudeMeters>
            <DistanceMeters>NAN</DistanceMeters>
          </Trackpoint>
          <Trackpoint>
            <Time>2022-07-12T11:09:21.000Z</Time>
            <Position>
              <LatitudeDegrees>43.26916046440601348876953125</LatitudeDegrees>
              <LongitudeDegrees>-2.942998521029949188232421875</LongitudeDegrees>
            </Position>
            <AltitudeMeters>-61</AltitudeMeters>
            <DistanceMeters>NAN</DistanceMeters>
          </Trackpoint>
          <Trackpoint>
            <Time>2022-07-12T11:09:24.000Z</Time>
            <Position>
              <LatitudeDegrees>43.269157111644744873046875</LatitudeDegrees>
              <LongitudeDegrees>-2.94300229288637638092041015625</LongitudeDegrees>
            </Position>
            <AltitudeMeters>-60.799999237060546875</AltitudeMeters>
            <DistanceMeters>NAN</DistanceMeters>
          </Trackpoint>
          <Trackpoint>
            <Time>2022-07-12T11:10:00.000Z</Time>
            <Position>
              <LatitudeDegrees>43.2691244222223758697509765625</LatitudeDegrees>
              <LongitudeDegrees>-2.9430932365357875823974609375</LongitudeDegrees>
            </Position>
            <AltitudeMeters>-61.200000762939453125</AltitudeMeters>
            <DistanceMeters>NAN</DistanceMeters>
          </Trackpoint>
          <Trackpoint>
            <Time>2022-07-12T11:10:01.000Z</Time>
            <Position>
              <LatitudeDegrees>43.269114196300506591796875</LatitudeDegrees>
              <LongitudeDegrees>-2.943126596510410308837890625</LongitudeDegrees>
            </Position>
            <AltitudeMeters>-61.200000762939453125</AltitudeMeters>
            <DistanceMeters>NAN</DistanceMeters>
          </Trackpoint>
          <Trackpoint>
            <Time>2022-07-12T11:10:05.000Z</Time>
            <Position>
              <LatitudeDegrees>43.2690714485943317413330078125</LatitudeDegrees>
              <LongitudeDegrees>-2.9432876966893672943115234375</LongitudeDegrees>
            </Position>
            <AltitudeMeters>-60.799999237060546875</AltitudeMeters>
            <DistanceMeters>NAN</DistanceMeters>
          </Trackpoint>
          <Trackpoint>
            <Time>2022-07-12T11:10:07.000Z</Time>
            <Position>
              <LatitudeDegrees>43.26905007474124431610107421875</LatitudeDegrees>
              <LongitudeDegrees>-2.94337428174912929534912109375</LongitudeDegrees>
            </Position>
            <AltitudeMeters>-60.799999237060546875</AltitudeMeters>
            <DistanceMeters>NAN</DistanceMeters>
          </Trackpoint>
          <Trackpoint>
            <Time>2022-07-12T11:10:09.000Z</Time>
            <Position>
              <LatitudeDegrees>43.269012607634067535400390625</LatitudeDegrees>
              <LongitudeDegrees>-2.943469583988189697265625</LongitudeDegrees>
            </Position>
            <AltitudeMeters>-60.799999237060546875</AltitudeMeters>
            <DistanceMeters>NAN</DistanceMeters>
          </Trackpoint>
          <Trackpoint>
            <Time>2022-07-12T11:10:12.000Z</Time>
            <Position>
              <LatitudeDegrees>43.26896340586245059967041015625</LatitudeDegrees>
              <LongitudeDegrees>-2.94361065141856670379638671875</LongitudeDegrees>
            </Position>
            <AltitudeMeters>-61</AltitudeMeters>
            <DistanceMeters>NAN</DistanceMeters>
          </Trackpoint>
          <Trackpoint>
            <Time>2022-07-12T11:10:19.000Z</Time>
            <Position>
              <LatitudeDegrees>43.2688491605222225189208984375</LatitudeDegrees>
              <LongitudeDegrees>-2.94394408352673053741455078125</LongitudeDegrees>
            </Position>
            <AltitudeMeters>-60.799999237060546875</AltitudeMeters>
            <DistanceMeters>NAN</DistanceMeters>
          </Trackpoint>
          <Trackpoint>
            <Time>2022-07-12T11:10:26.000Z</Time>
            <Position>
              <LatitudeDegrees>43.26872728765010833740234375</LatitudeDegrees>
              <LongitudeDegrees>-2.9442791081964969635009765625</LongitudeDegrees>
            </Position>
            <AltitudeMeters>-61</AltitudeMeters>
            <DistanceMeters>NAN</DistanceMeters>
          </Trackpoint>
          <Trackpoint>
            <Time>2022-07-12T11:10:27.000Z</Time>
            <Position>
              <LatitudeDegrees>43.26871010474860668182373046875</LatitudeDegrees>
              <LongitudeDegrees>-2.9443337582051753997802734375</LongitudeDegrees>
            </Position>
            <AltitudeMeters>-61.200000762939453125</AltitudeMeters>
            <DistanceMeters>NAN</DistanceMeters>
          </Trackpoint>
          <Trackpoint>
            <Time>2022-07-12T11:10:36.000Z</Time>
            <Position>
              <LatitudeDegrees>43.26856576837599277496337890625</LatitudeDegrees>
              <LongitudeDegrees>-2.94479032047092914581298828125</LongitudeDegrees>
            </Position>
            <AltitudeMeters>-61.200000762939453125</AltitudeMeters>
            <DistanceMeters>NAN</DistanceMeters>
          </Trackpoint>
          <Trackpoint>
            <Time>2022-07-12T11:10:40.000Z</Time>
            <Position>
              <LatitudeDegrees>43.26850860379636287689208984375</LatitudeDegrees>
              <LongitudeDegrees>-2.94497690163552761077880859375</LongitudeDegrees>
            </Position>
            <AltitudeMeters>-61.40000152587890625</AltitudeMeters>
            <DistanceMeters>NAN</DistanceMeters>
          </Trackpoint>
          <Trackpoint>
            <Time>2022-07-12T11:10:46.000Z</Time>
            <Position>
              <LatitudeDegrees>43.2684200070798397064208984375</LatitudeDegrees>
              <LongitudeDegrees>-2.94524730183184146881103515625</LongitudeDegrees>
            </Position>
            <AltitudeMeters>-61.40000152587890625</AltitudeMeters>
            <DistanceMeters>NAN</DistanceMeters>
          </Trackpoint>
          <Trackpoint>
            <Time>2022-07-12T11:10:51.000Z</Time>
            <Position>
              <LatitudeDegrees>43.26836560852825641632080078125</LatitudeDegrees>
              <LongitudeDegrees>-2.9454475454986095428466796875</LongitudeDegrees>
            </Position>
            <AltitudeMeters>-61.59999847412109375</AltitudeMeters>
            <DistanceMeters>NAN</DistanceMeters>
          </Trackpoint>
          <Trackpoint>
            <Time>2022-07-12T11:10:53.000Z</Time>
            <Position>
              <LatitudeDegrees>43.2683452405035495758056640625</LatitudeDegrees>
              <LongitudeDegrees>-2.94552507810294628143310546875</LongitudeDegrees>
            </Position>
            <AltitudeMeters>-61.59999847412109375</AltitudeMeters>
            <DistanceMeters>NAN</DistanceMeters>
          </Trackpoint>
          <Trackpoint>
            <Time>2022-07-12T11:10:55.000Z</Time>
            <Position>
              <LatitudeDegrees>43.26832252554595470428466796875</LatitudeDegrees>
              <LongitudeDegrees>-2.94560738839209079742431640625</LongitudeDegrees>
            </Position>
            <AltitudeMeters>-61.59999847412109375</AltitudeMeters>
            <DistanceMeters>NAN</DistanceMeters>
          </Trackpoint>
          <Trackpoint>
            <Time>2022-07-12T11:11:00.000Z</Time>
            <Position>
              <LatitudeDegrees>43.268246836960315704345703125</LatitudeDegrees>
              <LongitudeDegrees>-2.9458458535373210906982421875</LongitudeDegrees>
            </Position>
            <AltitudeMeters>-61.40000152587890625</AltitudeMeters>
            <DistanceMeters>NAN</DistanceMeters>
          </Trackpoint>
          <Trackpoint>
            <Time>2022-07-12T11:11:03.000Z</Time>
            <Position>
              <LatitudeDegrees>43.26819780282676219940185546875</LatitudeDegrees>
              <LongitudeDegrees>-2.94599798507988452911376953125</LongitudeDegrees>
            </Position>
            <AltitudeMeters>-61.40000152587890625</AltitudeMeters>
            <DistanceMeters>NAN</DistanceMeters>
          </Trackpoint>
          <Trackpoint>
            <Time>2022-07-12T11:11:07.000Z</Time>
            <Position>
              <LatitudeDegrees>43.26813074760138988494873046875</LatitudeDegrees>
              <LongitudeDegrees>-2.94617794454097747802734375</LongitudeDegrees>
            </Position>
            <AltitudeMeters>-61.40000152587890625</AltitudeMeters>
            <DistanceMeters>NAN</DistanceMeters>
          </Trackpoint>
          <Trackpoint>
            <Time>2022-07-12T11:11:10.000Z</Time>
            <Position>
              <LatitudeDegrees>43.26808766461908817291259765625</LatitudeDegrees>
              <LongitudeDegrees>-2.9463219456374645233154296875</LongitudeDegrees>
            </Position>
            <AltitudeMeters>-61.40000152587890625</AltitudeMeters>
            <DistanceMeters>NAN</DistanceMeters>
          </Trackpoint>
          <Trackpoint>
            <Time>2022-07-12T11:11:12.000Z</Time>
            <Position>
              <LatitudeDegrees>43.26805002987384796142578125</LatitudeDegrees>
              <LongitudeDegrees>-2.94642982073128223419189453125</LongitudeDegrees>
            </Position>
            <AltitudeMeters>-61.40000152587890625</AltitudeMeters>
            <DistanceMeters>NAN</DistanceMeters>
          </Trackpoint>
          <Trackpoint>
            <Time>2022-07-12T11:11:15.000Z</Time>
            <Position>
              <LatitudeDegrees>43.267987333238124847412109375</LatitudeDegrees>
              <LongitudeDegrees>-2.94658991508185863494873046875</LongitudeDegrees>
            </Position>
            <AltitudeMeters>-61.40000152587890625</AltitudeMeters>
            <DistanceMeters>NAN</DistanceMeters>
          </Trackpoint>
          <Trackpoint>
            <Time>2022-07-12T11:11:16.000Z</Time>
            <Position>
              <LatitudeDegrees>43.2679647020995616912841796875</LatitudeDegrees>
              <LongitudeDegrees>-2.9466394521296024322509765625</LongitudeDegrees>
            </Position>
            <AltitudeMeters>-61.40000152587890625</AltitudeMeters>
            <DistanceMeters>NAN</DistanceMeters>
          </Trackpoint>
          <Trackpoint>
            <Time>2022-07-12T11:11:21.000Z</Time>
            <Position>
              <LatitudeDegrees>43.2678872533142566680908203125</LatitudeDegrees>
              <LongitudeDegrees>-2.946879677474498748779296875</LongitudeDegrees>
            </Position>
            <AltitudeMeters>-61.40000152587890625</AltitudeMeters>
            <DistanceMeters>NAN</DistanceMeters>
          </Trackpoint>
          <Trackpoint>
            <Time>2022-07-12T11:11:24.000Z</Time>
            <Position>
              <LatitudeDegrees>43.2678473554551601409912109375</LatitudeDegrees>
              <LongitudeDegrees>-2.94700532220304012298583984375</LongitudeDegrees>
            </Position>
            <AltitudeMeters>-61.40000152587890625</AltitudeMeters>
            <DistanceMeters>NAN</DistanceMeters>
          </Trackpoint>
          <Trackpoint>
            <Time>2022-07-12T11:11:28.000Z</Time>
            <Position>
              <LatitudeDegrees>43.2677771151065826416015625</LatitudeDegrees>
              <LongitudeDegrees>-2.9471168853342533111572265625</LongitudeDegrees>
            </Position>
            <AltitudeMeters>-61.59999847412109375</AltitudeMeters>
            <DistanceMeters>NAN</DistanceMeters>
          </Trackpoint>
          <Trackpoint>
            <Time>2022-07-12T11:11:33.000Z</Time>
            <Position>
              <LatitudeDegrees>43.26775339432060718536376953125</LatitudeDegrees>
              <LongitudeDegrees>-2.947313524782657623291015625</LongitudeDegrees>
            </Position>
            <AltitudeMeters>-61.200000762939453125</AltitudeMeters>
            <DistanceMeters>NAN</DistanceMeters>
          </Trackpoint>
          <Trackpoint>
            <Time>2022-07-12T11:11:37.000Z</Time>
            <Position>
              <LatitudeDegrees>43.26770695857703685760498046875</LatitudeDegrees>
              <LongitudeDegrees>-2.94756908901035785675048828125</LongitudeDegrees>
            </Position>
            <AltitudeMeters>-61.200000762939453125</AltitudeMeters>
            <DistanceMeters>NAN</DistanceMeters>
          </Trackpoint>
          <Trackpoint>
            <Time>2022-07-12T11:11:45.000Z</Time>
            <Position>
              <LatitudeDegrees>43.26750244013965129852294921875</LatitudeDegrees>
              <LongitudeDegrees>-2.94793822802603244781494140625</LongitudeDegrees>
            </Position>
            <AltitudeMeters>-61.799999237060546875</AltitudeMeters>
            <DistanceMeters>NAN</DistanceMeters>
          </Trackpoint>
          <Trackpoint>
            <Time>2022-07-12T11:11:46.000Z</Time>
            <Position>
              <LatitudeDegrees>43.26747494749724864959716796875</LatitudeDegrees>
              <LongitudeDegrees>-2.94797225855290889739990234375</LongitudeDegrees>
            </Position>
            <AltitudeMeters>-61.799999237060546875</AltitudeMeters>
            <DistanceMeters>NAN</DistanceMeters>
          </Trackpoint>
          <Trackpoint>
            <Time>2022-07-12T11:11:48.000Z</Time>
            <Position>
              <LatitudeDegrees>43.2674520649015903472900390625</LatitudeDegrees>
              <LongitudeDegrees>-2.9480543173849582672119140625</LongitudeDegrees>
            </Position>
            <AltitudeMeters>-61.799999237060546875</AltitudeMeters>
            <DistanceMeters>NAN</DistanceMeters>
          </Trackpoint>
          <Trackpoint>
            <Time>2022-07-12T11:11:52.000Z</Time>
            <Position>
              <LatitudeDegrees>43.2673886977136135101318359375</LatitudeDegrees>
              <LongitudeDegrees>-2.94827434234321117401123046875</LongitudeDegrees>
            </Position>
            <AltitudeMeters>-61.59999847412109375</AltitudeMeters>
            <DistanceMeters>NAN</DistanceMeters>
          </Trackpoint>
          <Trackpoint>
            <Time>2022-07-12T11:11:56.000Z</Time>
            <Position>
              <LatitudeDegrees>43.26731552369892597198486328125</LatitudeDegrees>
              <LongitudeDegrees>-2.94847768731415271759033203125</LongitudeDegrees>
            </Position>
            <AltitudeMeters>-61.40000152587890625</AltitudeMeters>
            <DistanceMeters>NAN</DistanceMeters>
          </Trackpoint>
          <Trackpoint>
            <Time>2022-07-12T11:12:03.000Z</Time>
            <Position>
              <LatitudeDegrees>43.2672250829637050628662109375</LatitudeDegrees>
              <LongitudeDegrees>-2.9487909190356731414794921875</LongitudeDegrees>
            </Position>
            <AltitudeMeters>-61.40000152587890625</AltitudeMeters>
            <DistanceMeters>NAN</DistanceMeters>
          </Trackpoint>
          <Trackpoint>
            <Time>2022-07-12T11:12:08.000Z</Time>
            <Position>
              <LatitudeDegrees>43.26716029085218906402587890625</LatitudeDegrees>
              <LongitudeDegrees>-2.9490088485181331634521484375</LongitudeDegrees>
            </Position>
            <AltitudeMeters>-61.40000152587890625</AltitudeMeters>
            <DistanceMeters>NAN</DistanceMeters>
          </Trackpoint>
          <Trackpoint>
            <Time>2022-07-12T11:12:11.000Z</Time>
            <Position>
              <LatitudeDegrees>43.26711787842214107513427734375</LatitudeDegrees>
              <LongitudeDegrees>-2.94913046993315219879150390625</LongitudeDegrees>
            </Position>
            <AltitudeMeters>-61.59999847412109375</AltitudeMeters>
            <DistanceMeters>NAN</DistanceMeters>
          </Trackpoint>
          <Trackpoint>
            <Time>2022-07-12T11:12:13.000Z</Time>
            <Position>
              <LatitudeDegrees>43.26709507964551448822021484375</LatitudeDegrees>
              <LongitudeDegrees>-2.94921328313648700714111328125</LongitudeDegrees>
            </Position>
            <AltitudeMeters>-61.59999847412109375</AltitudeMeters>
            <DistanceMeters>NAN</DistanceMeters>
          </Trackpoint>
          <Trackpoint>
            <Time>2022-07-12T11:12:16.000Z</Time>
            <Position>
              <LatitudeDegrees>43.26707898639142513275146484375</LatitudeDegrees>
              <LongitudeDegrees>-2.94937337748706340789794921875</LongitudeDegrees>
            </Position>
            <AltitudeMeters>-61.59999847412109375</AltitudeMeters>
            <DistanceMeters>NAN</DistanceMeters>
          </Trackpoint>
          <Trackpoint>
            <Time>2022-07-12T11:12:17.000Z</Time>
            <Position>
              <LatitudeDegrees>43.26708711683750152587890625</LatitudeDegrees>
              <LongitudeDegrees>-2.94941604137420654296875</LongitudeDegrees>
            </Position>
            <AltitudeMeters>-61.59999847412109375</AltitudeMeters>
            <DistanceMeters>NAN</DistanceMeters>
          </Trackpoint>
          <Trackpoint>
            <Time>2022-07-12T11:12:24.000Z</Time>
            <Position>
              <LatitudeDegrees>43.26710429973900318145751953125</LatitudeDegrees>
              <LongitudeDegrees>-2.94971133582293987274169921875</LongitudeDegrees>
            </Position>
            <AltitudeMeters>-61.200000762939453125</AltitudeMeters>
            <DistanceMeters>NAN</DistanceMeters>
          </Trackpoint>
          <Trackpoint>
            <Time>2022-07-12T11:12:28.000Z</Time>
            <Position>
              <LatitudeDegrees>43.26710849069058895111083984375</LatitudeDegrees>
              <LongitudeDegrees>-2.9498728550970554351806640625</LongitudeDegrees>
            </Position>
            <AltitudeMeters>-60.799999237060546875</AltitudeMeters>
            <DistanceMeters>NAN</DistanceMeters>
          </Trackpoint>
          <Trackpoint>
            <Time>2022-07-12T11:12:33.000Z</Time>
            <Position>
              <LatitudeDegrees>43.2671198062598705291748046875</LatitudeDegrees>
              <LongitudeDegrees>-2.950054742395877838134765625</LongitudeDegrees>
            </Position>
            <AltitudeMeters>-60.59999847412109375</AltitudeMeters>
            <DistanceMeters>NAN</DistanceMeters>
          </Trackpoint>
          <Trackpoint>
            <Time>2022-07-12T11:12:36.000Z</Time>
            <Position>
              <LatitudeDegrees>43.2671255059540271759033203125</LatitudeDegrees>
              <LongitudeDegrees>-2.95015943236649036407470703125</LongitudeDegrees>
            </Position>
            <AltitudeMeters>-60.40000152587890625</AltitudeMeters>
            <DistanceMeters>NAN</DistanceMeters>
          </Trackpoint>
          <Trackpoint>
            <Time>2022-07-12T11:12:39.000Z</Time>
            <Position>
              <LatitudeDegrees>43.26713246293365955352783203125</LatitudeDegrees>
              <LongitudeDegrees>-2.95028432272374629974365234375</LongitudeDegrees>
            </Position>
            <AltitudeMeters>-60</AltitudeMeters>
            <DistanceMeters>NAN</DistanceMeters>
          </Trackpoint>
          <Trackpoint>
            <Time>2022-07-12T11:12:42.000Z</Time>
            <Position>
              <LatitudeDegrees>43.26713564805686473846435546875</LatitudeDegrees>
              <LongitudeDegrees>-2.9503858275711536407470703125</LongitudeDegrees>
            </Position>
            <AltitudeMeters>-59.799999237060546875</AltitudeMeters>
            <DistanceMeters>NAN</DistanceMeters>
          </Trackpoint>
          <Trackpoint>
            <Time>2022-07-12T11:12:44.000Z</Time>
            <Position>
              <LatitudeDegrees>43.267140425741672515869140625</LatitudeDegrees>
              <LongitudeDegrees>-2.9504636116325855255126953125</LongitudeDegrees>
            </Position>
            <AltitudeMeters>-59.799999237060546875</AltitudeMeters>
            <DistanceMeters>NAN</DistanceMeters>
          </Trackpoint>
          <Trackpoint>
            <Time>2022-07-12T11:12:48.000Z</Time>
            <Position>
              <LatitudeDegrees>43.2671521604061126708984375</LatitudeDegrees>
              <LongitudeDegrees>-2.95060618780553340911865234375</LongitudeDegrees>
            </Position>
            <AltitudeMeters>-60</AltitudeMeters>
            <DistanceMeters>NAN</DistanceMeters>
          </Trackpoint>
          <Trackpoint>
            <Time>2022-07-12T11:12:54.000Z</Time>
            <Position>
              <LatitudeDegrees>43.26716632582247257232666015625</LatitudeDegrees>
              <LongitudeDegrees>-2.95077851973474025726318359375</LongitudeDegrees>
            </Position>
            <AltitudeMeters>-60</AltitudeMeters>
            <DistanceMeters>NAN</DistanceMeters>
          </Trackpoint>
          <Trackpoint>
            <Time>2022-07-12T11:12:56.000Z</Time>
            <Position>
              <LatitudeDegrees>43.267151825129985809326171875</LatitudeDegrees>
              <LongitudeDegrees>-2.95078086666762828826904296875</LongitudeDegrees>
            </Position>
            <AltitudeMeters>-60.40000152587890625</AltitudeMeters>
            <DistanceMeters>NAN</DistanceMeters>
          </Trackpoint>
          <Trackpoint>
            <Time>2022-07-12T11:12:58.000Z</Time>
            <Position>
              <LatitudeDegrees>43.26713162474334239959716796875</LatitudeDegrees>
              <LongitudeDegrees>-2.9507485963404178619384765625</LongitudeDegrees>
            </Position>
            <AltitudeMeters>-60.59999847412109375</AltitudeMeters>
            <DistanceMeters>NAN</DistanceMeters>
          </Trackpoint>
          <Trackpoint>
            <Time>2022-07-12T11:13:06.000Z</Time>
            <Position>
              <LatitudeDegrees>43.267011009156703948974609375</LatitudeDegrees>
              <LongitudeDegrees>-2.9507043398916721343994140625</LongitudeDegrees>
            </Position>
            <AltitudeMeters>-60.59999847412109375</AltitudeMeters>
            <DistanceMeters>NAN</DistanceMeters>
          </Trackpoint>
          <Trackpoint>
            <Time>2022-07-12T11:13:07.000Z</Time>
            <Position>
              <LatitudeDegrees>43.2669957540929317474365234375</LatitudeDegrees>
              <LongitudeDegrees>-2.95070257969200611114501953125</LongitudeDegrees>
            </Position>
            <AltitudeMeters>-60.59999847412109375</AltitudeMeters>
            <DistanceMeters>NAN</DistanceMeters>
          </Trackpoint>
          <Trackpoint>
            <Time>2022-07-12T11:13:09.000Z</Time>
            <Position>
              <LatitudeDegrees>43.2669682614505290985107421875</LatitudeDegrees>
              <LongitudeDegrees>-2.95067600905895233154296875</LongitudeDegrees>
            </Position>
            <AltitudeMeters>-60.59999847412109375</AltitudeMeters>
            <DistanceMeters>NAN</DistanceMeters>
          </Trackpoint>
          <Trackpoint>
            <Time>2022-07-12T11:13:11.000Z</Time>
            <Position>
              <LatitudeDegrees>43.26695040799677371978759765625</LatitudeDegrees>
              <LongitudeDegrees>-2.95064449310302734375</LongitudeDegrees>
            </Position>
            <AltitudeMeters>-61</AltitudeMeters>
            <DistanceMeters>NAN</DistanceMeters>
          </Trackpoint>
          <Trackpoint>
            <Time>2022-07-12T11:13:16.000Z</Time>
            <Position>
              <LatitudeDegrees>43.2669337280094623565673828125</LatitudeDegrees>
              <LongitudeDegrees>-2.95052270404994487762451171875</LongitudeDegrees>
            </Position>
            <AltitudeMeters>-61.200000762939453125</AltitudeMeters>
            <DistanceMeters>NAN</DistanceMeters>
          </Trackpoint>
          <Trackpoint>
            <Time>2022-07-12T11:13:18.000Z</Time>
            <Position>
              <LatitudeDegrees>43.2669263519346714019775390625</LatitudeDegrees>
              <LongitudeDegrees>-2.95046143233776092529296875</LongitudeDegrees>
            </Position>
            <AltitudeMeters>-61.40000152587890625</AltitudeMeters>
            <DistanceMeters>NAN</DistanceMeters>
          </Trackpoint>
          <Trackpoint>
            <Time>2022-07-12T11:13:19.000Z</Time>
            <Position>
              <LatitudeDegrees>43.26692844741046428680419921875</LatitudeDegrees>
              <LongitudeDegrees>-2.95043285004794597625732421875</LongitudeDegrees>
            </Position>
            <AltitudeMeters>-61.59999847412109375</AltitudeMeters>
            <DistanceMeters>NAN</DistanceMeters>
          </Trackpoint>
          <Trackpoint>
            <Time>2022-07-12T11:13:21.000Z</Time>
            <Position>
              <LatitudeDegrees>43.2669561915099620819091796875</LatitudeDegrees>
              <LongitudeDegrees>-2.95039848424494266510009765625</LongitudeDegrees>
            </Position>
            <AltitudeMeters>-61.59999847412109375</AltitudeMeters>
            <DistanceMeters>NAN</DistanceMeters>
          </Trackpoint>
          <Trackpoint>
            <Time>2022-07-12T11:13:23.000Z</Time>
            <Position>
              <LatitudeDegrees>43.266989886760711669921875</LatitudeDegrees>
              <LongitudeDegrees>-2.95042580924928188323974609375</LongitudeDegrees>
            </Position>
            <AltitudeMeters>-61.59999847412109375</AltitudeMeters>
            <DistanceMeters>NAN</DistanceMeters>
          </Trackpoint>
          <Trackpoint>
            <Time>2022-07-12T11:13:25.000Z</Time>
            <Position>
              <LatitudeDegrees>43.26701360754668712615966796875</LatitudeDegrees>
              <LongitudeDegrees>-2.950498647987842559814453125</LongitudeDegrees>
            </Position>
            <AltitudeMeters>-61</AltitudeMeters>
            <DistanceMeters>NAN</DistanceMeters>
          </Trackpoint>
          <Trackpoint>
            <Time>2022-07-12T11:13:29.000Z</Time>
            <Position>
              <LatitudeDegrees>43.26704478822648525238037109375</LatitudeDegrees>
              <LongitudeDegrees>-2.95063535682857036590576171875</LongitudeDegrees>
            </Position>
            <AltitudeMeters>-60.40000152587890625</AltitudeMeters>
            <DistanceMeters>NAN</DistanceMeters>
          </Trackpoint>
          <Trackpoint>
            <Time>2022-07-12T11:13:34.000Z</Time>
            <Position>
              <LatitudeDegrees>43.26707948930561542510986328125</LatitudeDegrees>
              <LongitudeDegrees>-2.95083283446729183197021484375</LongitudeDegrees>
            </Position>
            <AltitudeMeters>-60</AltitudeMeters>
            <DistanceMeters>NAN</DistanceMeters>
          </Trackpoint>
          <Trackpoint>
            <Time>2022-07-12T11:13:37.000Z</Time>
            <Position>
              <LatitudeDegrees>43.26710396446287631988525390625</LatitudeDegrees>
              <LongitudeDegrees>-2.9509611614048480987548828125</LongitudeDegrees>
            </Position>
            <AltitudeMeters>-60</AltitudeMeters>
            <DistanceMeters>NAN</DistanceMeters>
          </Trackpoint>
          <Trackpoint>
            <Time>2022-07-12T11:13:39.000Z</Time>
            <Position>
              <LatitudeDegrees>43.2671199738979339599609375</LatitudeDegrees>
              <LongitudeDegrees>-2.9510231874883174896240234375</LongitudeDegrees>
            </Position>
            <AltitudeMeters>-59.799999237060546875</AltitudeMeters>
            <DistanceMeters>NAN</DistanceMeters>
          </Trackpoint>
          <Trackpoint>
            <Time>2022-07-12T11:13:42.000Z</Time>
            <Position>
              <LatitudeDegrees>43.2671747915446758270263671875</LatitudeDegrees>
              <LongitudeDegrees>-2.9511366784572601318359375</LongitudeDegrees>
            </Position>
            <AltitudeMeters>-60</AltitudeMeters>
            <DistanceMeters>NAN</DistanceMeters>
          </Trackpoint>
          <Trackpoint>
            <Time>2022-07-12T11:13:44.000Z</Time>
            <Position>
              <LatitudeDegrees>43.267211504280567169189453125</LatitudeDegrees>
              <LongitudeDegrees>-2.9512018896639347076416015625</LongitudeDegrees>
            </Position>
            <AltitudeMeters>-60</AltitudeMeters>
            <DistanceMeters>NAN</DistanceMeters>
          </Trackpoint>
          <Trackpoint>
            <Time>2022-07-12T11:13:49.000Z</Time>
            <Position>
              <LatitudeDegrees>43.26726472936570644378662109375</LatitudeDegrees>
              <LongitudeDegrees>-2.95142032206058502197265625</LongitudeDegrees>
            </Position>
            <AltitudeMeters>-59.799999237060546875</AltitudeMeters>
            <DistanceMeters>NAN</DistanceMeters>
          </Trackpoint>
          <Trackpoint>
            <Time>2022-07-12T11:13:52.000Z</Time>
            <Position>
              <LatitudeDegrees>43.26728937216103076934814453125</LatitudeDegrees>
              <LongitudeDegrees>-2.95157161541283130645751953125</LongitudeDegrees>
            </Position>
            <AltitudeMeters>-59.40000152587890625</AltitudeMeters>
            <DistanceMeters>NAN</DistanceMeters>
          </Trackpoint>
          <Trackpoint>
            <Time>2022-07-12T11:13:57.000Z</Time>
            <Position>
              <LatitudeDegrees>43.2673213072121143341064453125</LatitudeDegrees>
              <LongitudeDegrees>-2.9517956636846065521240234375</LongitudeDegrees>
            </Position>
            <AltitudeMeters>-59.200000762939453125</AltitudeMeters>
            <DistanceMeters>NAN</DistanceMeters>
          </Trackpoint>
          <Trackpoint>
            <Time>2022-07-12T11:13:58.000Z</Time>
            <Position>
              <LatitudeDegrees>43.26732792891561985015869140625</LatitudeDegrees>
              <LongitudeDegrees>-2.9518395848572254180908203125</LongitudeDegrees>
            </Position>
            <AltitudeMeters>-59</AltitudeMeters>
            <DistanceMeters>NAN</DistanceMeters>
          </Trackpoint>
          <Trackpoint>
            <Time>2022-07-12T11:14:03.000Z</Time>
            <Position>
              <LatitudeDegrees>43.26736397109925746917724609375</LatitudeDegrees>
              <LongitudeDegrees>-2.95207503251731395721435546875</LongitudeDegrees>
            </Position>
            <AltitudeMeters>-59.200000762939453125</AltitudeMeters>
            <DistanceMeters>NAN</DistanceMeters>
          </Trackpoint>
          <Trackpoint>
            <Time>2022-07-12T11:14:06.000Z</Time>
            <Position>
              <LatitudeDegrees>43.26738961972296237945556640625</LatitudeDegrees>
              <LongitudeDegrees>-2.95220562256872653961181640625</LongitudeDegrees>
            </Position>
            <AltitudeMeters>-59.200000762939453125</AltitudeMeters>
            <DistanceMeters>NAN</DistanceMeters>
          </Trackpoint>
          <Trackpoint>
            <Time>2022-07-12T11:14:15.000Z</Time>
            <Position>
              <LatitudeDegrees>43.26746103353798389434814453125</LatitudeDegrees>
              <LongitudeDegrees>-2.95261264778673648834228515625</LongitudeDegrees>
            </Position>
            <AltitudeMeters>-59</AltitudeMeters>
            <DistanceMeters>NAN</DistanceMeters>
          </Trackpoint>
          <Trackpoint>
            <Time>2022-07-12T11:14:24.000Z</Time>
            <Position>
              <LatitudeDegrees>43.267553150653839111328125</LatitudeDegrees>
              <LongitudeDegrees>-2.9530043341219425201416015625</LongitudeDegrees>
            </Position>
            <AltitudeMeters>-59.200000762939453125</AltitudeMeters>
            <DistanceMeters>NAN</DistanceMeters>
          </Trackpoint>
          <Trackpoint>
            <Time>2022-07-12T11:14:34.000Z</Time>
            <Position>
              <LatitudeDegrees>43.2676599361002445220947265625</LatitudeDegrees>
              <LongitudeDegrees>-2.95341663993895053863525390625</LongitudeDegrees>
            </Position>
            <AltitudeMeters>-58.799999237060546875</AltitudeMeters>
            <DistanceMeters>NAN</DistanceMeters>
          </Trackpoint>
          <Trackpoint>
            <Time>2022-07-12T11:14:42.000Z</Time>
            <Position>
              <LatitudeDegrees>43.26774417422711849212646484375</LatitudeDegrees>
              <LongitudeDegrees>-2.95369483530521392822265625</LongitudeDegrees>
            </Position>
            <AltitudeMeters>-59.200000762939453125</AltitudeMeters>
            <DistanceMeters>NAN</DistanceMeters>
          </Trackpoint>
          <Trackpoint>
            <Time>2022-07-12T11:14:50.000Z</Time>
            <Position>
              <LatitudeDegrees>43.267837464809417724609375</LatitudeDegrees>
              <LongitudeDegrees>-2.95392927713692188262939453125</LongitudeDegrees>
            </Position>
            <AltitudeMeters>-59.40000152587890625</AltitudeMeters>
            <DistanceMeters>NAN</DistanceMeters>
          </Trackpoint>
          <Trackpoint>
            <Time>2022-07-12T11:14:54.000Z</Time>
            <Position>
              <LatitudeDegrees>43.26789504848420619964599609375</LatitudeDegrees>
              <LongitudeDegrees>-2.95398593880236148834228515625</LongitudeDegrees>
            </Position>
            <AltitudeMeters>-59.799999237060546875</AltitudeMeters>
            <DistanceMeters>NAN</DistanceMeters>
          </Trackpoint>
          <Trackpoint>
            <Time>2022-07-12T11:14:55.000Z</Time>
            <Position>
              <LatitudeDegrees>43.26791449449956417083740234375</LatitudeDegrees>
              <LongitudeDegrees>-2.9539752937853336334228515625</LongitudeDegrees>
            </Position>
            <AltitudeMeters>-60.200000762939453125</AltitudeMeters>
            <DistanceMeters>NAN</DistanceMeters>
          </Trackpoint>
          <Trackpoint>
            <Time>2022-07-12T11:14:57.000Z</Time>
            <Position>
              <LatitudeDegrees>43.26795238070189952850341796875</LatitudeDegrees>
              <LongitudeDegrees>-2.9539434425532817840576171875</LongitudeDegrees>
            </Position>
            <AltitudeMeters>-60.40000152587890625</AltitudeMeters>
            <DistanceMeters>NAN</DistanceMeters>
          </Trackpoint>
          <Trackpoint>
            <Time>2022-07-12T11:15:01.000Z</Time>
            <Position>
              <LatitudeDegrees>43.26803661882877349853515625</LatitudeDegrees>
              <LongitudeDegrees>-2.95391268096864223480224609375</LongitudeDegrees>
            </Position>
            <AltitudeMeters>-60.200000762939453125</AltitudeMeters>
            <DistanceMeters>NAN</DistanceMeters>
          </Trackpoint>
          <Trackpoint>
            <Time>2022-07-12T11:15:02.000Z</Time>
            <Position>
              <LatitudeDegrees>43.26805296353995800018310546875</LatitudeDegrees>
              <LongitudeDegrees>-2.95392307452857494354248046875</LongitudeDegrees>
            </Position>
            <AltitudeMeters>-60.200000762939453125</AltitudeMeters>
            <DistanceMeters>NAN</DistanceMeters>
          </Trackpoint>
          <Trackpoint>
            <Time>2022-07-12T11:15:05.000Z</Time>
            <Position>
              <LatitudeDegrees>43.26810409314930438995361328125</LatitudeDegrees>
              <LongitudeDegrees>-2.9539511539041996002197265625</LongitudeDegrees>
            </Position>
            <AltitudeMeters>-60.200000762939453125</AltitudeMeters>
            <DistanceMeters>NAN</DistanceMeters>
          </Trackpoint>
          <Trackpoint>
            <Time>2022-07-12T11:15:06.000Z</Time>
            <Position>
              <LatitudeDegrees>43.26811247505247592926025390625</LatitudeDegrees>
              <LongitudeDegrees>-2.9539484716951847076416015625</LongitudeDegrees>
            </Position>
            <AltitudeMeters>-60.200000762939453125</AltitudeMeters>
            <DistanceMeters>NAN</DistanceMeters>
          </Trackpoint>
          <Trackpoint>
            <Time>2022-07-12T11:15:08.000Z</Time>
            <Position>
              <LatitudeDegrees>43.26812806539237499237060546875</LatitudeDegrees>
              <LongitudeDegrees>-2.953946292400360107421875</LongitudeDegrees>
            </Position>
            <AltitudeMeters>-60.40000152587890625</AltitudeMeters>
            <DistanceMeters>NAN</DistanceMeters>
          </Trackpoint>
          <Trackpoint>
            <Time>2022-07-12T11:15:10.000Z</Time>
            <Position>
              <LatitudeDegrees>43.26817450113594532012939453125</LatitudeDegrees>
              <LongitudeDegrees>-2.95394151471555233001708984375</LongitudeDegrees>
            </Position>
            <AltitudeMeters>-60.59999847412109375</AltitudeMeters>
            <DistanceMeters>NAN</DistanceMeters>
          </Trackpoint>
          <Trackpoint>
            <Time>2022-07-12T11:15:11.000Z</Time>
            <Position>
              <LatitudeDegrees>43.26820434071123600006103515625</LatitudeDegrees>
              <LongitudeDegrees>-2.95393246226012706756591796875</LongitudeDegrees>
            </Position>
            <AltitudeMeters>-60.59999847412109375</AltitudeMeters>
            <DistanceMeters>NAN</DistanceMeters>
          </Trackpoint>
          <Trackpoint>
            <Time>2022-07-12T11:15:15.000Z</Time>
            <Position>
              <LatitudeDegrees>43.268341720104217529296875</LatitudeDegrees>
              <LongitudeDegrees>-2.95384545810520648956298828125</LongitudeDegrees>
            </Position>
            <AltitudeMeters>-61.200000762939453125</AltitudeMeters>
            <DistanceMeters>NAN</DistanceMeters>
          </Trackpoint>
          <Trackpoint>
            <Time>2022-07-12T11:15:20.000Z</Time>
            <Position>
              <LatitudeDegrees>43.26849385164678096771240234375</LatitudeDegrees>
              <LongitudeDegrees>-2.953774966299533843994140625</LongitudeDegrees>
            </Position>
            <AltitudeMeters>-61.40000152587890625</AltitudeMeters>
            <DistanceMeters>NAN</DistanceMeters>
          </Trackpoint>
          <Trackpoint>
            <Time>2022-07-12T11:15:26.000Z</Time>
            <Position>
              <LatitudeDegrees>43.26856409199535846710205078125</LatitudeDegrees>
              <LongitudeDegrees>-2.95373330824077129364013671875</LongitudeDegrees>
            </Position>
            <AltitudeMeters>-60.799999237060546875</AltitudeMeters>
            <DistanceMeters>NAN</DistanceMeters>
          </Trackpoint>
          <Trackpoint>
            <Time>2022-07-12T11:15:28.000Z</Time>
            <Position>
              <LatitudeDegrees>43.268589489161968231201171875</LatitudeDegrees>
              <LongitudeDegrees>-2.9537288658320903778076171875</LongitudeDegrees>
            </Position>
            <AltitudeMeters>-60.40000152587890625</AltitudeMeters>
            <DistanceMeters>NAN</DistanceMeters>
          </Trackpoint>
          <Trackpoint>
            <Time>2022-07-12T11:15:30.000Z</Time>
            <Position>
              <LatitudeDegrees>43.2686034031212329864501953125</LatitudeDegrees>
              <LongitudeDegrees>-2.95372811146080493927001953125</LongitudeDegrees>
            </Position>
            <AltitudeMeters>-60.200000762939453125</AltitudeMeters>
            <DistanceMeters>NAN</DistanceMeters>
          </Trackpoint>
          <Trackpoint>
            <Time>2022-07-12T11:15:32.000Z</Time>
            <Position>
              <LatitudeDegrees>43.268623687326908111572265625</LatitudeDegrees>
              <LongitudeDegrees>-2.95372492633759975433349609375</LongitudeDegrees>
            </Position>
            <AltitudeMeters>-60.200000762939453125</AltitudeMeters>
            <DistanceMeters>NAN</DistanceMeters>
          </Trackpoint>
          <Trackpoint>
            <Time>2022-07-12T11:15:36.000Z</Time>
            <Position>
              <LatitudeDegrees>43.2686409540474414825439453125</LatitudeDegrees>
              <LongitudeDegrees>-2.95372308231890201568603515625</LongitudeDegrees>
            </Position>
            <AltitudeMeters>-60</AltitudeMeters>
            <DistanceMeters>NAN</DistanceMeters>
          </Trackpoint>
          <Trackpoint>
            <Time>2022-07-12T11:15:37.000Z</Time>
            <Position>
              <LatitudeDegrees>43.26866584829986095428466796875</LatitudeDegrees>
              <LongitudeDegrees>-2.95370933599770069122314453125</LongitudeDegrees>
            </Position>
            <AltitudeMeters>-60</AltitudeMeters>
            <DistanceMeters>NAN</DistanceMeters>
          </Trackpoint>
          <Trackpoint>
            <Time>2022-07-12T11:15:40.000Z</Time>
            <Position>
              <LatitudeDegrees>43.2687212526798248291015625</LatitudeDegrees>
              <LongitudeDegrees>-2.95362048782408237457275390625</LongitudeDegrees>
            </Position>
            <AltitudeMeters>-60</AltitudeMeters>
            <DistanceMeters>NAN</DistanceMeters>
          </Trackpoint>
          <Trackpoint>
            <Time>2022-07-12T11:15:42.000Z</Time>
            <Position>
              <LatitudeDegrees>43.26871949248015880584716796875</LatitudeDegrees>
              <LongitudeDegrees>-2.95355401933193206787109375</LongitudeDegrees>
            </Position>
            <AltitudeMeters>-59.799999237060546875</AltitudeMeters>
            <DistanceMeters>NAN</DistanceMeters>
          </Trackpoint>
          <Trackpoint>
            <Time>2022-07-12T11:15:44.000Z</Time>
            <Position>
              <LatitudeDegrees>43.2687096856534481048583984375</LatitudeDegrees>
              <LongitudeDegrees>-2.953471876680850982666015625</LongitudeDegrees>
            </Position>
            <AltitudeMeters>-59.799999237060546875</AltitudeMeters>
            <DistanceMeters>NAN</DistanceMeters>
          </Trackpoint>
          <Trackpoint>
            <Time>2022-07-12T11:15:48.000Z</Time>
            <Position>
              <LatitudeDegrees>43.26873256824910640716552734375</LatitudeDegrees>
              <LongitudeDegrees>-2.95330465771257877349853515625</LongitudeDegrees>
            </Position>
            <AltitudeMeters>-59.799999237060546875</AltitudeMeters>
            <DistanceMeters>NAN</DistanceMeters>
          </Trackpoint>
          <Trackpoint>
            <Time>2022-07-12T11:15:49.000Z</Time>
            <Position>
              <LatitudeDegrees>43.2687214203178882598876953125</LatitudeDegrees>
              <LongitudeDegrees>-2.95327498577535152435302734375</LongitudeDegrees>
            </Position>
            <AltitudeMeters>-59.799999237060546875</AltitudeMeters>
            <DistanceMeters>NAN</DistanceMeters>
          </Trackpoint>
          <Trackpoint>
            <Time>2022-07-12T11:15:50.000Z</Time>
            <Position>
              <LatitudeDegrees>43.268714882433414459228515625</LatitudeDegrees>
              <LongitudeDegrees>-2.953243218362331390380859375</LongitudeDegrees>
            </Position>
            <AltitudeMeters>-59.799999237060546875</AltitudeMeters>
            <DistanceMeters>NAN</DistanceMeters>
          </Trackpoint>
          <Trackpoint>
            <Time>2022-07-12T11:15:51.000Z</Time>
            <Position>
              <LatitudeDegrees>43.2687076739966869354248046875</LatitudeDegrees>
              <LongitudeDegrees>-2.953209690749645233154296875</LongitudeDegrees>
            </Position>
            <AltitudeMeters>-59.799999237060546875</AltitudeMeters>
            <DistanceMeters>NAN</DistanceMeters>
          </Trackpoint>
          <Trackpoint>
            <Time>2022-07-12T11:15:53.000Z</Time>
            <Position>
              <LatitudeDegrees>43.26869619078934192657470703125</LatitudeDegrees>
              <LongitudeDegrees>-2.95314137823879718780517578125</LongitudeDegrees>
            </Position>
            <AltitudeMeters>-59.799999237060546875</AltitudeMeters>
            <DistanceMeters>NAN</DistanceMeters>
          </Trackpoint>
          <Trackpoint>
            <Time>2022-07-12T11:15:55.000Z</Time>
            <Position>
              <LatitudeDegrees>43.268700800836086273193359375</LatitudeDegrees>
              <LongitudeDegrees>-2.9530730657279491424560546875</LongitudeDegrees>
            </Position>
            <AltitudeMeters>-60</AltitudeMeters>
            <DistanceMeters>NAN</DistanceMeters>
          </Trackpoint>
          <Trackpoint>
            <Time>2022-07-12T11:15:57.000Z</Time>
            <Position>
              <LatitudeDegrees>43.26868864707648754119873046875</LatitudeDegrees>
              <LongitudeDegrees>-2.95302386395633220672607421875</LongitudeDegrees>
            </Position>
            <AltitudeMeters>-60</AltitudeMeters>
            <DistanceMeters>NAN</DistanceMeters>
          </Trackpoint>
          <Trackpoint>
            <Time>2022-07-12T11:16:00.000Z</Time>
            <Position>
              <LatitudeDegrees>43.2686845399439334869384765625</LatitudeDegrees>
              <LongitudeDegrees>-2.9530160687863826751708984375</LongitudeDegrees>
            </Position>
            <AltitudeMeters>-60.200000762939453125</AltitudeMeters>
            <DistanceMeters>NAN</DistanceMeters>
          </Trackpoint>
          <Trackpoint>
            <Time>2022-07-12T11:16:06.000Z</Time>
            <Position>
              <LatitudeDegrees>43.26866752468049526214599609375</LatitudeDegrees>
              <LongitudeDegrees>-2.9529996402561664581298828125</LongitudeDegrees>
            </Position>
            <AltitudeMeters>-60</AltitudeMeters>
            <DistanceMeters>NAN</DistanceMeters>
          </Trackpoint>
          <Trackpoint>
            <Time>2022-07-12T11:16:07.000Z</Time>
            <Position>
              <LatitudeDegrees>43.26865327544510364532470703125</LatitudeDegrees>
              <LongitudeDegrees>-2.95299335382878780364990234375</LongitudeDegrees>
            </Position>
            <AltitudeMeters>-59.799999237060546875</AltitudeMeters>
            <DistanceMeters>NAN</DistanceMeters>
          </Trackpoint>
          <Trackpoint>
            <Time>2022-07-12T11:16:10.000Z</Time>
            <Position>
              <LatitudeDegrees>43.2686067558825016021728515625</LatitudeDegrees>
              <LongitudeDegrees>-2.9530142247676849365234375</LongitudeDegrees>
            </Position>
            <AltitudeMeters>-59.59999847412109375</AltitudeMeters>
            <DistanceMeters>NAN</DistanceMeters>
          </Trackpoint>
          <Trackpoint>
            <Time>2022-07-12T11:16:12.000Z</Time>
            <Position>
              <LatitudeDegrees>43.26864489354193210601806640625</LatitudeDegrees>
              <LongitudeDegrees>-2.9530150629580020904541015625</LongitudeDegrees>
            </Position>
            <AltitudeMeters>-59.59999847412109375</AltitudeMeters>
            <DistanceMeters>NAN</DistanceMeters>
          </Trackpoint>
          <Trackpoint>
            <Time>2022-07-12T11:16:14.000Z</Time>
            <Position>
              <LatitudeDegrees>43.26862477697432041168212890625</LatitudeDegrees>
              <LongitudeDegrees>-2.9530405439436435699462890625</LongitudeDegrees>
            </Position>
            <AltitudeMeters>-59.799999237060546875</AltitudeMeters>
            <DistanceMeters>NAN</DistanceMeters>
          </Trackpoint>
          <Trackpoint>
            <Time>2022-07-12T11:16:17.000Z</Time>
            <Position>
              <LatitudeDegrees>43.26852067373692989349365234375</LatitudeDegrees>
              <LongitudeDegrees>-2.95311656780540943145751953125</LongitudeDegrees>
            </Position>
            <AltitudeMeters>-59.799999237060546875</AltitudeMeters>
            <DistanceMeters>NAN</DistanceMeters>
          </Trackpoint>
          <Trackpoint>
            <Time>2022-07-12T11:41:35.000Z</Time>
            <Position>
              <LatitudeDegrees>43.26909986324608325958251953125</LatitudeDegrees>
              <LongitudeDegrees>-2.9530703835189342498779296875</LongitudeDegrees>
            </Position>
            <AltitudeMeters>-50.799999237060546875</AltitudeMeters>
            <DistanceMeters>NAN</DistanceMeters>
          </Trackpoint>
          <Trackpoint>
            <Time>2022-07-12T11:41:54.000Z</Time>
            <Position>
              <LatitudeDegrees>43.2688263617455959320068359375</LatitudeDegrees>
              <LongitudeDegrees>-2.9531236924231052398681640625</LongitudeDegrees>
            </Position>
            <AltitudeMeters>-50.799999237060546875</AltitudeMeters>
            <DistanceMeters>NAN</DistanceMeters>
          </Trackpoint>
          <Trackpoint>
            <Time>2022-07-12T11:41:59.000Z</Time>
            <Position>
              <LatitudeDegrees>43.2688260264694690704345703125</LatitudeDegrees>
              <LongitudeDegrees>-2.95327196829020977020263671875</LongitudeDegrees>
            </Position>
            <AltitudeMeters>-51.59999847412109375</AltitudeMeters>
            <DistanceMeters>NAN</DistanceMeters>
          </Trackpoint>
          <Trackpoint>
            <Time>2022-07-12T11:42:01.000Z</Time>
            <Position>
              <LatitudeDegrees>43.2688312232494354248046875</LatitudeDegrees>
              <LongitudeDegrees>-2.9533389396965503692626953125</LongitudeDegrees>
            </Position>
            <AltitudeMeters>-51.799999237060546875</AltitudeMeters>
            <DistanceMeters>NAN</DistanceMeters>
          </Trackpoint>
          <Trackpoint>
            <Time>2022-07-12T11:42:05.000Z</Time>
            <Position>
              <LatitudeDegrees>43.2688672654330730438232421875</LatitudeDegrees>
              <LongitudeDegrees>-2.95346709899604320526123046875</LongitudeDegrees>
            </Position>
            <AltitudeMeters>-52</AltitudeMeters>
            <DistanceMeters>NAN</DistanceMeters>
          </Trackpoint>
          <Trackpoint>
            <Time>2022-07-12T11:42:10.000Z</Time>
            <Position>
              <LatitudeDegrees>43.26889702118933200836181640625</LatitudeDegrees>
              <LongitudeDegrees>-2.95357338152825832366943359375</LongitudeDegrees>
            </Position>
            <AltitudeMeters>-52.200000762939453125</AltitudeMeters>
            <DistanceMeters>NAN</DistanceMeters>
          </Trackpoint>
          <Trackpoint>
            <Time>2022-07-12T11:42:13.000Z</Time>
            <Position>
              <LatitudeDegrees>43.26886835508048534393310546875</LatitudeDegrees>
              <LongitudeDegrees>-2.95362065546214580535888671875</LongitudeDegrees>
            </Position>
            <AltitudeMeters>-52.59999847412109375</AltitudeMeters>
            <DistanceMeters>NAN</DistanceMeters>
          </Trackpoint>
          <Trackpoint>
            <Time>2022-07-12T11:42:15.000Z</Time>
            <Position>
              <LatitudeDegrees>43.26882309280335903167724609375</LatitudeDegrees>
              <LongitudeDegrees>-2.95364395715296268463134765625</LongitudeDegrees>
            </Position>
            <AltitudeMeters>-52.59999847412109375</AltitudeMeters>
            <DistanceMeters>NAN</DistanceMeters>
          </Trackpoint>
          <Trackpoint>
            <Time>2022-07-12T11:42:20.000Z</Time>
            <Position>
              <LatitudeDegrees>43.2686984539031982421875</LatitudeDegrees>
              <LongitudeDegrees>-2.9537047259509563446044921875</LongitudeDegrees>
            </Position>
            <AltitudeMeters>-52.799999237060546875</AltitudeMeters>
            <DistanceMeters>NAN</DistanceMeters>
          </Trackpoint>
          <Trackpoint>
            <Time>2022-07-12T11:42:21.000Z</Time>
            <Position>
              <LatitudeDegrees>43.26866886578500270843505859375</LatitudeDegrees>
              <LongitudeDegrees>-2.95371889136731624603271484375</LongitudeDegrees>
            </Position>
            <AltitudeMeters>-53</AltitudeMeters>
            <DistanceMeters>NAN</DistanceMeters>
          </Trackpoint>
          <Trackpoint>
            <Time>2022-07-12T11:42:23.000Z</Time>
            <Position>
              <LatitudeDegrees>43.26862804591655731201171875</LatitudeDegrees>
              <LongitudeDegrees>-2.95374579727649688720703125</LongitudeDegrees>
            </Position>
            <AltitudeMeters>-53.200000762939453125</AltitudeMeters>
            <DistanceMeters>NAN</DistanceMeters>
          </Trackpoint>
          <Trackpoint>
            <Time>2022-07-12T11:42:24.000Z</Time>
            <Position>
              <LatitudeDegrees>43.26861404813826084136962890625</LatitudeDegrees>
              <LongitudeDegrees>-2.95376230962574481964111328125</LongitudeDegrees>
            </Position>
            <AltitudeMeters>-53.59999847412109375</AltitudeMeters>
            <DistanceMeters>NAN</DistanceMeters>
          </Trackpoint>
          <Trackpoint>
            <Time>2022-07-12T11:42:26.000Z</Time>
            <Position>
              <LatitudeDegrees>43.26856912113726139068603515625</LatitudeDegrees>
              <LongitudeDegrees>-2.9538066498935222625732421875</LongitudeDegrees>
            </Position>
            <AltitudeMeters>-53.799999237060546875</AltitudeMeters>
            <DistanceMeters>NAN</DistanceMeters>
          </Trackpoint>
          <Trackpoint>
            <Time>2022-07-12T11:42:27.000Z</Time>
            <Position>
              <LatitudeDegrees>43.268559984862804412841796875</LatitudeDegrees>
              <LongitudeDegrees>-2.9538250900804996490478515625</LongitudeDegrees>
            </Position>
            <AltitudeMeters>-54</AltitudeMeters>
            <DistanceMeters>NAN</DistanceMeters>
          </Trackpoint>
          <Trackpoint>
            <Time>2022-07-12T11:42:29.000Z</Time>
            <Position>
              <LatitudeDegrees>43.26852771453559398651123046875</LatitudeDegrees>
              <LongitudeDegrees>-2.95385442674160003662109375</LongitudeDegrees>
            </Position>
            <AltitudeMeters>-54</AltitudeMeters>
            <DistanceMeters>NAN</DistanceMeters>
          </Trackpoint>
          <Trackpoint>
            <Time>2022-07-12T11:42:32.000Z</Time>
            <Position>
              <LatitudeDegrees>43.2684515230357646942138671875</LatitudeDegrees>
              <LongitudeDegrees>-2.95388527214527130126953125</LongitudeDegrees>
            </Position>
            <AltitudeMeters>-54</AltitudeMeters>
            <DistanceMeters>NAN</DistanceMeters>
          </Trackpoint>
          <Trackpoint>
            <Time>2022-07-12T11:42:36.000Z</Time>
            <Position>
              <LatitudeDegrees>43.26835923828184604644775390625</LatitudeDegrees>
              <LongitudeDegrees>-2.95397772453725337982177734375</LongitudeDegrees>
            </Position>
            <AltitudeMeters>-54</AltitudeMeters>
            <DistanceMeters>NAN</DistanceMeters>
          </Trackpoint>
          <Trackpoint>
            <Time>2022-07-12T11:42:37.000Z</Time>
            <Position>
              <LatitudeDegrees>43.2683331705629825592041015625</LatitudeDegrees>
              <LongitudeDegrees>-2.95399515889585018157958984375</LongitudeDegrees>
            </Position>
            <AltitudeMeters>-54</AltitudeMeters>
            <DistanceMeters>NAN</DistanceMeters>
          </Trackpoint>
          <Trackpoint>
            <Time>2022-07-12T11:42:39.000Z</Time>
            <Position>
              <LatitudeDegrees>43.26827525161206722259521484375</LatitudeDegrees>
              <LongitudeDegrees>-2.95401963405311107635498046875</LongitudeDegrees>
            </Position>
            <AltitudeMeters>-53.799999237060546875</AltitudeMeters>
            <DistanceMeters>NAN</DistanceMeters>
          </Trackpoint>
          <Trackpoint>
            <Time>2022-07-12T11:42:41.000Z</Time>
            <Position>
              <LatitudeDegrees>43.26821741648018360137939453125</LatitudeDegrees>
              <LongitudeDegrees>-2.954033128917217254638671875</LongitudeDegrees>
            </Position>
            <AltitudeMeters>-53.799999237060546875</AltitudeMeters>
            <DistanceMeters>NAN</DistanceMeters>
          </Trackpoint>
          <Trackpoint>
            <Time>2022-07-12T11:42:43.000Z</Time>
            <Position>
              <LatitudeDegrees>43.26815639622509479522705078125</LatitudeDegrees>
              <LongitudeDegrees>-2.95405701734125614166259765625</LongitudeDegrees>
            </Position>
            <AltitudeMeters>-53.59999847412109375</AltitudeMeters>
            <DistanceMeters>NAN</DistanceMeters>
          </Trackpoint>
          <Trackpoint>
            <Time>2022-07-12T11:42:47.000Z</Time>
            <Position>
              <LatitudeDegrees>43.26805497519671916961669921875</LatitudeDegrees>
              <LongitudeDegrees>-2.95410479418933391571044921875</LongitudeDegrees>
            </Position>
            <AltitudeMeters>-53.200000762939453125</AltitudeMeters>
            <DistanceMeters>NAN</DistanceMeters>
          </Trackpoint>
          <Trackpoint>
            <Time>2022-07-12T11:42:51.000Z</Time>
            <Position>
              <LatitudeDegrees>43.26795942150056362152099609375</LatitudeDegrees>
              <LongitudeDegrees>-2.9541694186627864837646484375</LongitudeDegrees>
            </Position>
            <AltitudeMeters>-53</AltitudeMeters>
            <DistanceMeters>NAN</DistanceMeters>
          </Trackpoint>
          <Trackpoint>
            <Time>2022-07-12T11:42:59.000Z</Time>
            <Position>
              <LatitudeDegrees>43.26775792054831981658935546875</LatitudeDegrees>
              <LongitudeDegrees>-2.9543031938374042510986328125</LongitudeDegrees>
            </Position>
            <AltitudeMeters>-53.200000762939453125</AltitudeMeters>
            <DistanceMeters>NAN</DistanceMeters>
          </Trackpoint>
          <Trackpoint>
            <Time>2022-07-12T11:43:00.000Z</Time>
            <Position>
              <LatitudeDegrees>43.2677340321242809295654296875</LatitudeDegrees>
              <LongitudeDegrees>-2.9543196223676204681396484375</LongitudeDegrees>
            </Position>
            <AltitudeMeters>-53.200000762939453125</AltitudeMeters>
            <DistanceMeters>NAN</DistanceMeters>
          </Trackpoint>
          <Trackpoint>
            <Time>2022-07-12T11:43:02.000Z</Time>
            <Position>
              <LatitudeDegrees>43.267683573067188262939453125</LatitudeDegrees>
              <LongitudeDegrees>-2.95434870757162570953369140625</LongitudeDegrees>
            </Position>
            <AltitudeMeters>-53.200000762939453125</AltitudeMeters>
            <DistanceMeters>NAN</DistanceMeters>
          </Trackpoint>
          <Trackpoint>
            <Time>2022-07-12T11:43:03.000Z</Time>
            <Position>
              <LatitudeDegrees>43.267683573067188262939453125</LatitudeDegrees>
              <LongitudeDegrees>-2.95434870757162570953369140625</LongitudeDegrees>
            </Position>
            <AltitudeMeters>-53.200000762939453125</AltitudeMeters>
            <DistanceMeters>NAN</DistanceMeters>
          </Trackpoint>
          <Trackpoint>
            <Time>2022-07-12T11:43:04.000Z</Time>
            <Position>
              <LatitudeDegrees>43.26766018755733966827392578125</LatitudeDegrees>
              <LongitudeDegrees>-2.95436429791152477264404296875</LongitudeDegrees>
            </Position>
            <AltitudeMeters>-53.200000762939453125</AltitudeMeters>
            <DistanceMeters>NAN</DistanceMeters>
          </Trackpoint>
          <Trackpoint>
            <Time>2022-07-12T11:43:06.000Z</Time>
            <Position>
              <LatitudeDegrees>43.26759028248488903045654296875</LatitudeDegrees>
              <LongitudeDegrees>-2.95440754853188991546630859375</LongitudeDegrees>
            </Position>
            <AltitudeMeters>-53.200000762939453125</AltitudeMeters>
            <DistanceMeters>NAN</DistanceMeters>
          </Trackpoint>
          <Trackpoint>
            <Time>2022-07-12T11:43:15.000Z</Time>
            <Position>
              <LatitudeDegrees>43.26733295805752277374267578125</LatitudeDegrees>
              <LongitudeDegrees>-2.95456646941602230072021484375</LongitudeDegrees>
            </Position>
            <AltitudeMeters>-53.799999237060546875</AltitudeMeters>
            <DistanceMeters>NAN</DistanceMeters>
          </Trackpoint>
          <Trackpoint>
            <Time>2022-07-12T11:43:20.000Z</Time>
            <Position>
              <LatitudeDegrees>43.26715551316738128662109375</LatitudeDegrees>
              <LongitudeDegrees>-2.954672165215015411376953125</LongitudeDegrees>
            </Position>
            <AltitudeMeters>-54.40000152587890625</AltitudeMeters>
            <DistanceMeters>NAN</DistanceMeters>
          </Trackpoint>
          <Trackpoint>
            <Time>2022-07-12T11:43:23.000Z</Time>
            <Position>
              <LatitudeDegrees>43.26704747043550014495849609375</LatitudeDegrees>
              <LongitudeDegrees>-2.95471600256860256195068359375</LongitudeDegrees>
            </Position>
            <AltitudeMeters>-54.59999847412109375</AltitudeMeters>
            <DistanceMeters>NAN</DistanceMeters>
          </Trackpoint>
          <Trackpoint>
            <Time>2022-07-12T11:43:24.000Z</Time>
            <Position>
              <LatitudeDegrees>43.26704747043550014495849609375</LatitudeDegrees>
              <LongitudeDegrees>-2.95471600256860256195068359375</LongitudeDegrees>
            </Position>
            <AltitudeMeters>-54.799999237060546875</AltitudeMeters>
            <DistanceMeters>NAN</DistanceMeters>
          </Trackpoint>
          <Trackpoint>
            <Time>2022-07-12T11:43:26.000Z</Time>
            <Position>
              <LatitudeDegrees>43.26697588898241519927978515625</LatitudeDegrees>
              <LongitudeDegrees>-2.9547122307121753692626953125</LongitudeDegrees>
            </Position>
            <AltitudeMeters>-55</AltitudeMeters>
            <DistanceMeters>NAN</DistanceMeters>
          </Trackpoint>
          <Trackpoint>
            <Time>2022-07-12T11:43:27.000Z</Time>
            <Position>
              <LatitudeDegrees>43.2669105939567089080810546875</LatitudeDegrees>
              <LongitudeDegrees>-2.9546592570841312408447265625</LongitudeDegrees>
            </Position>
            <AltitudeMeters>-55.200000762939453125</AltitudeMeters>
            <DistanceMeters>NAN</DistanceMeters>
          </Trackpoint>
          <Trackpoint>
            <Time>2022-07-12T11:43:28.000Z</Time>
            <Position>
              <LatitudeDegrees>43.26688335277140140533447265625</LatitudeDegrees>
              <LongitudeDegrees>-2.9546217061579227447509765625</LongitudeDegrees>
            </Position>
            <AltitudeMeters>-55.40000152587890625</AltitudeMeters>
            <DistanceMeters>NAN</DistanceMeters>
          </Trackpoint>
          <Trackpoint>
            <Time>2022-07-12T11:43:32.000Z</Time>
            <Position>
              <LatitudeDegrees>43.2667498290538787841796875</LatitudeDegrees>
              <LongitudeDegrees>-2.9544379748404026031494140625</LongitudeDegrees>
            </Position>
            <AltitudeMeters>-56.200000762939453125</AltitudeMeters>
            <DistanceMeters>NAN</DistanceMeters>
          </Trackpoint>
          <Trackpoint>
            <Time>2022-07-12T11:43:34.000Z</Time>
            <Position>
              <LatitudeDegrees>43.2666668482124805450439453125</LatitudeDegrees>
              <LongitudeDegrees>-2.9543528147041797637939453125</LongitudeDegrees>
            </Position>
            <AltitudeMeters>-56.40000152587890625</AltitudeMeters>
            <DistanceMeters>NAN</DistanceMeters>
          </Trackpoint>
          <Trackpoint>
            <Time>2022-07-12T11:43:35.000Z</Time>
            <Position>
              <LatitudeDegrees>43.2666668482124805450439453125</LatitudeDegrees>
              <LongitudeDegrees>-2.9543528147041797637939453125</LongitudeDegrees>
            </Position>
            <AltitudeMeters>-56.59999847412109375</AltitudeMeters>
            <DistanceMeters>NAN</DistanceMeters>
          </Trackpoint>
          <Trackpoint>
            <Time>2022-07-12T11:43:36.000Z</Time>
            <Position>
              <LatitudeDegrees>43.26661546714603900909423828125</LatitudeDegrees>
              <LongitudeDegrees>-2.95432523824274539947509765625</LongitudeDegrees>
            </Position>
            <AltitudeMeters>-56.799999237060546875</AltitudeMeters>
            <DistanceMeters>NAN</DistanceMeters>
          </Trackpoint>
          <Trackpoint>
            <Time>2022-07-12T11:43:39.000Z</Time>
            <Position>
              <LatitudeDegrees>43.26640784740447998046875</LatitudeDegrees>
              <LongitudeDegrees>-2.95426639728248119354248046875</LongitudeDegrees>
            </Position>
            <AltitudeMeters>-57.200000762939453125</AltitudeMeters>
            <DistanceMeters>NAN</DistanceMeters>
          </Trackpoint>
          <Trackpoint>
            <Time>2022-07-12T11:43:40.000Z</Time>
            <Position>
              <LatitudeDegrees>43.26640784740447998046875</LatitudeDegrees>
              <LongitudeDegrees>-2.95426639728248119354248046875</LongitudeDegrees>
            </Position>
            <AltitudeMeters>-57.40000152587890625</AltitudeMeters>
            <DistanceMeters>NAN</DistanceMeters>
          </Trackpoint>
          <Trackpoint>
            <Time>2022-07-12T11:43:46.000Z</Time>
            <Position>
              <LatitudeDegrees>43.26606779359281063079833984375</LatitudeDegrees>
              <LongitudeDegrees>-2.95416346751153469085693359375</LongitudeDegrees>
            </Position>
            <AltitudeMeters>-58.59999847412109375</AltitudeMeters>
            <DistanceMeters>NAN</DistanceMeters>
          </Trackpoint>
          <Trackpoint>
            <Time>2022-07-12T11:43:48.000Z</Time>
            <Position>
              <LatitudeDegrees>43.26593737117946147918701171875</LatitudeDegrees>
              <LongitudeDegrees>-2.9541965760290622711181640625</LongitudeDegrees>
            </Position>
            <AltitudeMeters>-58.799999237060546875</AltitudeMeters>
            <DistanceMeters>NAN</DistanceMeters>
          </Trackpoint>
          <Trackpoint>
            <Time>2022-07-12T11:43:50.000Z</Time>
            <Position>
              <LatitudeDegrees>43.26589244417846202850341796875</LatitudeDegrees>
              <LongitudeDegrees>-2.9542887769639492034912109375</LongitudeDegrees>
            </Position>
            <AltitudeMeters>-58.799999237060546875</AltitudeMeters>
            <DistanceMeters>NAN</DistanceMeters>
          </Trackpoint>
          <Trackpoint>
            <Time>2022-07-12T11:43:51.000Z</Time>
            <Position>
              <LatitudeDegrees>43.26589244417846202850341796875</LatitudeDegrees>
              <LongitudeDegrees>-2.9542887769639492034912109375</LongitudeDegrees>
            </Position>
            <AltitudeMeters>-58.799999237060546875</AltitudeMeters>
            <DistanceMeters>NAN</DistanceMeters>
          </Trackpoint>
          <Trackpoint>
            <Time>2022-07-12T11:43:54.000Z</Time>
            <Position>
              <LatitudeDegrees>43.26585740782320499420166015625</LatitudeDegrees>
              <LongitudeDegrees>-2.954504191875457763671875</LongitudeDegrees>
            </Position>
            <AltitudeMeters>-59</AltitudeMeters>
            <DistanceMeters>NAN</DistanceMeters>
          </Trackpoint>
          <Trackpoint>
            <Time>2022-07-12T11:43:56.000Z</Time>
            <Position>
              <LatitudeDegrees>43.2658501155674457550048828125</LatitudeDegrees>
              <LongitudeDegrees>-2.95455674640834331512451171875</LongitudeDegrees>
            </Position>
            <AltitudeMeters>-59.200000762939453125</AltitudeMeters>
            <DistanceMeters>NAN</DistanceMeters>
          </Trackpoint>
          <Trackpoint>
            <Time>2022-07-12T11:43:57.000Z</Time>
            <Position>
              <LatitudeDegrees>43.265844918787479400634765625</LatitudeDegrees>
              <LongitudeDegrees>-2.95460552908480167388916015625</LongitudeDegrees>
            </Position>
            <AltitudeMeters>-59.200000762939453125</AltitudeMeters>
            <DistanceMeters>NAN</DistanceMeters>
          </Trackpoint>
          <Trackpoint>
            <Time>2022-07-12T11:44:05.000Z</Time>
            <Position>
              <LatitudeDegrees>43.26580359600484371185302734375</LatitudeDegrees>
              <LongitudeDegrees>-2.95499377883970737457275390625</LongitudeDegrees>
            </Position>
            <AltitudeMeters>-59.59999847412109375</AltitudeMeters>
            <DistanceMeters>NAN</DistanceMeters>
          </Trackpoint>
          <Trackpoint>
            <Time>2022-07-12T11:44:13.000Z</Time>
            <Position>
              <LatitudeDegrees>43.265761099755764007568359375</LatitudeDegrees>
              <LongitudeDegrees>-2.9553048312664031982421875</LongitudeDegrees>
            </Position>
            <AltitudeMeters>-60</AltitudeMeters>
            <DistanceMeters>NAN</DistanceMeters>
          </Trackpoint>
          <Trackpoint>
            <Time>2022-07-12T11:44:21.000Z</Time>
            <Position>
              <LatitudeDegrees>43.265755735337734222412109375</LatitudeDegrees>
              <LongitudeDegrees>-2.9554900713264942169189453125</LongitudeDegrees>
            </Position>
            <AltitudeMeters>-60.59999847412109375</AltitudeMeters>
            <DistanceMeters>NAN</DistanceMeters>
          </Trackpoint>
          <Trackpoint>
            <Time>2022-07-12T11:44:22.000Z</Time>
            <Position>
              <LatitudeDegrees>43.265755735337734222412109375</LatitudeDegrees>
              <LongitudeDegrees>-2.9554900713264942169189453125</LongitudeDegrees>
            </Position>
            <AltitudeMeters>-60.59999847412109375</AltitudeMeters>
            <DistanceMeters>NAN</DistanceMeters>
          </Trackpoint>
          <Trackpoint>
            <Time>2022-07-12T11:45:36.000Z</Time>
            <Position>
              <LatitudeDegrees>43.265748359262943267822265625</LatitudeDegrees>
              <LongitudeDegrees>-2.9554055817425251007080078125</LongitudeDegrees>
            </Position>
            <AltitudeMeters>-63.200000762939453125</AltitudeMeters>
            <DistanceMeters>NAN</DistanceMeters>
          </Trackpoint>
          <Trackpoint>
            <Time>2022-07-12T11:45:38.000Z</Time>
            <Position>
              <LatitudeDegrees>43.2657622732222080230712890625</LatitudeDegrees>
              <LongitudeDegrees>-2.95531027950346469879150390625</LongitudeDegrees>
            </Position>
            <AltitudeMeters>-63.40000152587890625</AltitudeMeters>
            <DistanceMeters>NAN</DistanceMeters>
          </Trackpoint>
          <Trackpoint>
            <Time>2022-07-12T11:45:45.000Z</Time>
            <Position>
              <LatitudeDegrees>43.26579521410167217254638671875</LatitudeDegrees>
              <LongitudeDegrees>-2.95497869141399860382080078125</LongitudeDegrees>
            </Position>
            <AltitudeMeters>-63.799999237060546875</AltitudeMeters>
            <DistanceMeters>NAN</DistanceMeters>
          </Trackpoint>
          <Trackpoint>
            <Time>2022-07-12T11:45:54.000Z</Time>
            <Position>
              <LatitudeDegrees>43.2658578269183635711669921875</LatitudeDegrees>
              <LongitudeDegrees>-2.95455054379999637603759765625</LongitudeDegrees>
            </Position>
            <AltitudeMeters>-63.799999237060546875</AltitudeMeters>
            <DistanceMeters>NAN</DistanceMeters>
          </Trackpoint>
          <Trackpoint>
            <Time>2022-07-12T11:46:01.000Z</Time>
            <Position>
              <LatitudeDegrees>43.2659553922712802886962890625</LatitudeDegrees>
              <LongitudeDegrees>-2.9542173631489276885986328125</LongitudeDegrees>
            </Position>
            <AltitudeMeters>-63.799999237060546875</AltitudeMeters>
            <DistanceMeters>NAN</DistanceMeters>
          </Trackpoint>
          <Trackpoint>
            <Time>2022-07-12T11:46:04.000Z</Time>
            <Position>
              <LatitudeDegrees>43.26604667119681835174560546875</LatitudeDegrees>
              <LongitudeDegrees>-2.954147793352603912353515625</LongitudeDegrees>
            </Position>
            <AltitudeMeters>-63.40000152587890625</AltitudeMeters>
            <DistanceMeters>NAN</DistanceMeters>
          </Trackpoint>
          <Trackpoint>
            <Time>2022-07-12T11:46:05.000Z</Time>
            <Position>
              <LatitudeDegrees>43.2660846412181854248046875</LatitudeDegrees>
              <LongitudeDegrees>-2.9541429318487644195556640625</LongitudeDegrees>
            </Position>
            <AltitudeMeters>-63.200000762939453125</AltitudeMeters>
            <DistanceMeters>NAN</DistanceMeters>
          </Trackpoint>
          <Trackpoint>
            <Time>2022-07-12T11:46:06.000Z</Time>
            <Position>
              <LatitudeDegrees>43.266123197972774505615234375</LatitudeDegrees>
              <LongitudeDegrees>-2.95414485968649387359619140625</LongitudeDegrees>
            </Position>
            <AltitudeMeters>-63</AltitudeMeters>
            <DistanceMeters>NAN</DistanceMeters>
          </Trackpoint>
          <Trackpoint>
            <Time>2022-07-12T11:46:07.000Z</Time>
            <Position>
              <LatitudeDegrees>43.26616133563220500946044921875</LatitudeDegrees>
              <LongitudeDegrees>-2.95415022410452365875244140625</LongitudeDegrees>
            </Position>
            <AltitudeMeters>-63</AltitudeMeters>
            <DistanceMeters>NAN</DistanceMeters>
          </Trackpoint>
          <Trackpoint>
            <Time>2022-07-12T11:46:08.000Z</Time>
            <Position>
              <LatitudeDegrees>43.26619771309196949005126953125</LatitudeDegrees>
              <LongitudeDegrees>-2.95416061766445636749267578125</LongitudeDegrees>
            </Position>
            <AltitudeMeters>-62.799999237060546875</AltitudeMeters>
            <DistanceMeters>NAN</DistanceMeters>
          </Trackpoint>
          <Trackpoint>
            <Time>2022-07-12T11:46:11.000Z</Time>
            <Position>
              <LatitudeDegrees>43.266300223767757415771484375</LatitudeDegrees>
              <LongitudeDegrees>-2.95420043170452117919921875</LongitudeDegrees>
            </Position>
            <AltitudeMeters>-62.59999847412109375</AltitudeMeters>
            <DistanceMeters>NAN</DistanceMeters>
          </Trackpoint>
          <Trackpoint>
            <Time>2022-07-12T11:46:15.000Z</Time>
            <Position>
              <LatitudeDegrees>43.2664267905056476593017578125</LatitudeDegrees>
              <LongitudeDegrees>-2.9542384855449199676513671875</LongitudeDegrees>
            </Position>
            <AltitudeMeters>-62.200000762939453125</AltitudeMeters>
            <DistanceMeters>NAN</DistanceMeters>
          </Trackpoint>
          <Trackpoint>
            <Time>2022-07-12T11:46:18.000Z</Time>
            <Position>
              <LatitudeDegrees>43.26652360148727893829345703125</LatitudeDegrees>
              <LongitudeDegrees>-2.95426354743540287017822265625</LongitudeDegrees>
            </Position>
            <AltitudeMeters>-62</AltitudeMeters>
            <DistanceMeters>NAN</DistanceMeters>
          </Trackpoint>
          <Trackpoint>
            <Time>2022-07-12T11:46:24.000Z</Time>
            <Position>
              <LatitudeDegrees>43.266705907881259918212890625</LatitudeDegrees>
              <LongitudeDegrees>-2.9543357156217098236083984375</LongitudeDegrees>
            </Position>
            <AltitudeMeters>-61.59999847412109375</AltitudeMeters>
            <DistanceMeters>NAN</DistanceMeters>
          </Trackpoint>
          <Trackpoint>
            <Time>2022-07-12T11:46:26.000Z</Time>
            <Position>
              <LatitudeDegrees>43.26675795949995517730712890625</LatitudeDegrees>
              <LongitudeDegrees>-2.95437536202371120452880859375</LongitudeDegrees>
            </Position>
            <AltitudeMeters>-61.40000152587890625</AltitudeMeters>
            <DistanceMeters>NAN</DistanceMeters>
          </Trackpoint>
          <Trackpoint>
            <Time>2022-07-12T11:46:29.000Z</Time>
            <Position>
              <LatitudeDegrees>43.26682182960212230682373046875</LatitudeDegrees>
              <LongitudeDegrees>-2.9544554091989994049072265625</LongitudeDegrees>
            </Position>
            <AltitudeMeters>-61.40000152587890625</AltitudeMeters>
            <DistanceMeters>NAN</DistanceMeters>
          </Trackpoint>
          <Trackpoint>
            <Time>2022-07-12T11:46:32.000Z</Time>
            <Position>
              <LatitudeDegrees>43.26688301749527454376220703125</LatitudeDegrees>
              <LongitudeDegrees>-2.9545469395816326141357421875</LongitudeDegrees>
            </Position>
            <AltitudeMeters>-61.200000762939453125</AltitudeMeters>
            <DistanceMeters>NAN</DistanceMeters>
          </Trackpoint>
          <Trackpoint>
            <Time>2022-07-12T11:46:37.000Z</Time>
            <Position>
              <LatitudeDegrees>43.26701159588992595672607421875</LatitudeDegrees>
              <LongitudeDegrees>-2.9546139948070049285888671875</LongitudeDegrees>
            </Position>
            <AltitudeMeters>-61</AltitudeMeters>
            <DistanceMeters>NAN</DistanceMeters>
          </Trackpoint>
          <Trackpoint>
            <Time>2022-07-12T11:46:38.000Z</Time>
            <Position>
              <LatitudeDegrees>43.267039842903614044189453125</LatitudeDegrees>
              <LongitudeDegrees>-2.9545982368290424346923828125</LongitudeDegrees>
            </Position>
            <AltitudeMeters>-61</AltitudeMeters>
            <DistanceMeters>NAN</DistanceMeters>
          </Trackpoint>
          <Trackpoint>
            <Time>2022-07-12T11:46:44.000Z</Time>
            <Position>
              <LatitudeDegrees>43.26720303855836391448974609375</LatitudeDegrees>
              <LongitudeDegrees>-2.9544886015355587005615234375</LongitudeDegrees>
            </Position>
            <AltitudeMeters>-60.59999847412109375</AltitudeMeters>
            <DistanceMeters>NAN</DistanceMeters>
          </Trackpoint>
          <Trackpoint>
            <Time>2022-07-12T11:46:48.000Z</Time>
            <Position>
              <LatitudeDegrees>43.26728819869458675384521484375</LatitudeDegrees>
              <LongitudeDegrees>-2.95444560237228870391845703125</LongitudeDegrees>
            </Position>
            <AltitudeMeters>-60.200000762939453125</AltitudeMeters>
            <DistanceMeters>NAN</DistanceMeters>
          </Trackpoint>
          <Trackpoint>
            <Time>2022-07-12T11:46:51.000Z</Time>
            <Position>
              <LatitudeDegrees>43.2673538289964199066162109375</LatitudeDegrees>
              <LongitudeDegrees>-2.95440922491252422332763671875</LongitudeDegrees>
            </Position>
            <AltitudeMeters>-60.200000762939453125</AltitudeMeters>
            <DistanceMeters>NAN</DistanceMeters>
          </Trackpoint>
          <Trackpoint>
            <Time>2022-07-12T11:46:52.000Z</Time>
            <Position>
              <LatitudeDegrees>43.26738618314266204833984375</LatitudeDegrees>
              <LongitudeDegrees>-2.95439162291586399078369140625</LongitudeDegrees>
            </Position>
            <AltitudeMeters>-60.200000762939453125</AltitudeMeters>
            <DistanceMeters>NAN</DistanceMeters>
          </Trackpoint>
          <Trackpoint>
            <Time>2022-07-12T11:47:00.000Z</Time>
            <Position>
              <LatitudeDegrees>43.267637304961681365966796875</LatitudeDegrees>
              <LongitudeDegrees>-2.9542441852390766143798828125</LongitudeDegrees>
            </Position>
            <AltitudeMeters>-60</AltitudeMeters>
            <DistanceMeters>NAN</DistanceMeters>
          </Trackpoint>
          <Trackpoint>
            <Time>2022-07-12T11:47:04.000Z</Time>
            <Position>
              <LatitudeDegrees>43.267788849771022796630859375</LatitudeDegrees>
              <LongitudeDegrees>-2.954157851636409759521484375</LongitudeDegrees>
            </Position>
            <AltitudeMeters>-59.799999237060546875</AltitudeMeters>
            <DistanceMeters>NAN</DistanceMeters>
          </Trackpoint>
          <Trackpoint>
            <Time>2022-07-12T11:47:06.000Z</Time>
            <Position>
              <LatitudeDegrees>43.2678634487092494964599609375</LatitudeDegrees>
              <LongitudeDegrees>-2.9541063867509365081787109375</LongitudeDegrees>
            </Position>
            <AltitudeMeters>-59.799999237060546875</AltitudeMeters>
            <DistanceMeters>NAN</DistanceMeters>
          </Trackpoint>
          <Trackpoint>
            <Time>2022-07-12T11:47:07.000Z</Time>
            <Position>
              <LatitudeDegrees>43.267894126474857330322265625</LatitudeDegrees>
              <LongitudeDegrees>-2.95408417470753192901611328125</LongitudeDegrees>
            </Position>
            <AltitudeMeters>-59.799999237060546875</AltitudeMeters>
            <DistanceMeters>NAN</DistanceMeters>
          </Trackpoint>
          <Trackpoint>
            <Time>2022-07-12T11:47:08.000Z</Time>
            <Position>
              <LatitudeDegrees>43.2679085433483123779296875</LatitudeDegrees>
              <LongitudeDegrees>-2.95405550859868526458740234375</LongitudeDegrees>
            </Position>
            <AltitudeMeters>-60</AltitudeMeters>
            <DistanceMeters>NAN</DistanceMeters>
          </Trackpoint>
          <Trackpoint>
            <Time>2022-07-12T11:47:10.000Z</Time>
            <Position>
              <LatitudeDegrees>43.26789538376033306121826171875</LatitudeDegrees>
              <LongitudeDegrees>-2.95398241840302944183349609375</LongitudeDegrees>
            </Position>
            <AltitudeMeters>-60.40000152587890625</AltitudeMeters>
            <DistanceMeters>NAN</DistanceMeters>
          </Trackpoint>
          <Trackpoint>
            <Time>2022-07-12T11:47:15.000Z</Time>
            <Position>
              <LatitudeDegrees>43.26778876595199108123779296875</LatitudeDegrees>
              <LongitudeDegrees>-2.95379432849586009979248046875</LongitudeDegrees>
            </Position>
            <AltitudeMeters>-60.799999237060546875</AltitudeMeters>
            <DistanceMeters>NAN</DistanceMeters>
          </Trackpoint>
          <Trackpoint>
            <Time>2022-07-12T11:47:19.000Z</Time>
            <Position>
              <LatitudeDegrees>43.26771852560341358184814453125</LatitudeDegrees>
              <LongitudeDegrees>-2.95360841788351535797119140625</LongitudeDegrees>
            </Position>
            <AltitudeMeters>-61</AltitudeMeters>
            <DistanceMeters>NAN</DistanceMeters>
          </Trackpoint>
          <Trackpoint>
            <Time>2022-07-12T11:47:21.000Z</Time>
            <Position>
              <LatitudeDegrees>43.267680220305919647216796875</LatitudeDegrees>
              <LongitudeDegrees>-2.953501045703887939453125</LongitudeDegrees>
            </Position>
            <AltitudeMeters>-61</AltitudeMeters>
            <DistanceMeters>NAN</DistanceMeters>
          </Trackpoint>
          <Trackpoint>
            <Time>2022-07-12T11:47:22.000Z</Time>
            <Position>
              <LatitudeDegrees>43.26766035519540309906005859375</LatitudeDegrees>
              <LongitudeDegrees>-2.95344027690589427947998046875</LongitudeDegrees>
            </Position>
            <AltitudeMeters>-61</AltitudeMeters>
            <DistanceMeters>NAN</DistanceMeters>
          </Trackpoint>
          <Trackpoint>
            <Time>2022-07-12T11:47:27.000Z</Time>
            <Position>
              <LatitudeDegrees>43.26756144873797893524169921875</LatitudeDegrees>
              <LongitudeDegrees>-2.95306979678571224212646484375</LongitudeDegrees>
            </Position>
            <AltitudeMeters>-61</AltitudeMeters>
            <DistanceMeters>NAN</DistanceMeters>
          </Trackpoint>
          <Trackpoint>
            <Time>2022-07-12T11:47:29.000Z</Time>
            <Position>
              <LatitudeDegrees>43.267535381019115447998046875</LatitudeDegrees>
              <LongitudeDegrees>-2.9529185034334659576416015625</LongitudeDegrees>
            </Position>
            <AltitudeMeters>-61</AltitudeMeters>
            <DistanceMeters>NAN</DistanceMeters>
          </Trackpoint>
          <Trackpoint>
            <Time>2022-07-12T11:47:31.000Z</Time>
            <Position>
              <LatitudeDegrees>43.2675107382237911224365234375</LatitudeDegrees>
              <LongitudeDegrees>-2.95275606215000152587890625</LongitudeDegrees>
            </Position>
            <AltitudeMeters>-61</AltitudeMeters>
            <DistanceMeters>NAN</DistanceMeters>
          </Trackpoint>
          <Trackpoint>
            <Time>2022-07-12T11:47:35.000Z</Time>
            <Position>
              <LatitudeDegrees>43.2674525678157806396484375</LatitudeDegrees>
              <LongitudeDegrees>-2.9524927027523517608642578125</LongitudeDegrees>
            </Position>
            <AltitudeMeters>-61</AltitudeMeters>
            <DistanceMeters>NAN</DistanceMeters>
          </Trackpoint>
          <Trackpoint>
            <Time>2022-07-12T11:47:41.000Z</Time>
            <Position>
              <LatitudeDegrees>43.267346285283565521240234375</LatitudeDegrees>
              <LongitudeDegrees>-2.95211635529994964599609375</LongitudeDegrees>
            </Position>
            <AltitudeMeters>-61</AltitudeMeters>
            <DistanceMeters>NAN</DistanceMeters>
          </Trackpoint>
          <Trackpoint>
            <Time>2022-07-12T11:47:45.000Z</Time>
            <Position>
              <LatitudeDegrees>43.2673149369657039642333984375</LatitudeDegrees>
              <LongitudeDegrees>-2.95185257680714130401611328125</LongitudeDegrees>
            </Position>
            <AltitudeMeters>-61</AltitudeMeters>
            <DistanceMeters>NAN</DistanceMeters>
          </Trackpoint>
          <Trackpoint>
            <Time>2022-07-12T11:47:46.000Z</Time>
            <Position>
              <LatitudeDegrees>43.2673092372715473175048828125</LatitudeDegrees>
              <LongitudeDegrees>-2.95178820379078388214111328125</LongitudeDegrees>
            </Position>
            <AltitudeMeters>-61</AltitudeMeters>
            <DistanceMeters>NAN</DistanceMeters>
          </Trackpoint>
          <Trackpoint>
            <Time>2022-07-12T11:47:48.000Z</Time>
            <Position>
              <LatitudeDegrees>43.2673293538391590118408203125</LatitudeDegrees>
              <LongitudeDegrees>-2.95167647302150726318359375</LongitudeDegrees>
            </Position>
            <AltitudeMeters>-61</AltitudeMeters>
            <DistanceMeters>NAN</DistanceMeters>
          </Trackpoint>
          <Trackpoint>
            <Time>2022-07-12T11:47:49.000Z</Time>
            <Position>
              <LatitudeDegrees>43.26735642738640308380126953125</LatitudeDegrees>
              <LongitudeDegrees>-2.95163531787693500518798828125</LongitudeDegrees>
            </Position>
            <AltitudeMeters>-61.200000762939453125</AltitudeMeters>
            <DistanceMeters>NAN</DistanceMeters>
          </Trackpoint>
          <Trackpoint>
            <Time>2022-07-12T11:47:51.000Z</Time>
            <Position>
              <LatitudeDegrees>43.26740504242479801177978515625</LatitudeDegrees>
              <LongitudeDegrees>-2.95154546387493610382080078125</LongitudeDegrees>
            </Position>
            <AltitudeMeters>-61.200000762939453125</AltitudeMeters>
            <DistanceMeters>NAN</DistanceMeters>
          </Trackpoint>
          <Trackpoint>
            <Time>2022-07-12T11:47:53.000Z</Time>
            <Position>
              <LatitudeDegrees>43.26741392724215984344482421875</LatitudeDegrees>
              <LongitudeDegrees>-2.9514271952211856842041015625</LongitudeDegrees>
            </Position>
            <AltitudeMeters>-61.40000152587890625</AltitudeMeters>
            <DistanceMeters>NAN</DistanceMeters>
          </Trackpoint>
          <Trackpoint>
            <Time>2022-07-12T11:47:54.000Z</Time>
            <Position>
              <LatitudeDegrees>43.26740537770092487335205078125</LatitudeDegrees>
              <LongitudeDegrees>-2.95136265456676483154296875</LongitudeDegrees>
            </Position>
            <AltitudeMeters>-61.40000152587890625</AltitudeMeters>
            <DistanceMeters>NAN</DistanceMeters>
          </Trackpoint>
          <Trackpoint>
            <Time>2022-07-12T11:48:01.000Z</Time>
            <Position>
              <LatitudeDegrees>43.26734838075935840606689453125</LatitudeDegrees>
              <LongitudeDegrees>-2.95088765211403369903564453125</LongitudeDegrees>
            </Position>
            <AltitudeMeters>-61.40000152587890625</AltitudeMeters>
            <DistanceMeters>NAN</DistanceMeters>
          </Trackpoint>
          <Trackpoint>
            <Time>2022-07-12T11:48:03.000Z</Time>
            <Position>
              <LatitudeDegrees>43.26733161695301532745361328125</LatitudeDegrees>
              <LongitudeDegrees>-2.95075018890202045440673828125</LongitudeDegrees>
            </Position>
            <AltitudeMeters>-61.40000152587890625</AltitudeMeters>
            <DistanceMeters>NAN</DistanceMeters>
          </Trackpoint>
          <Trackpoint>
            <Time>2022-07-12T11:48:11.000Z</Time>
            <Position>
              <LatitudeDegrees>43.26735139824450016021728515625</LatitudeDegrees>
              <LongitudeDegrees>-2.950197570025920867919921875</LongitudeDegrees>
            </Position>
            <AltitudeMeters>-62</AltitudeMeters>
            <DistanceMeters>NAN</DistanceMeters>
          </Trackpoint>
          <Trackpoint>
            <Time>2022-07-12T11:48:13.000Z</Time>
            <Position>
              <LatitudeDegrees>43.2673605345189571380615234375</LatitudeDegrees>
              <LongitudeDegrees>-2.95006253756582736968994140625</LongitudeDegrees>
            </Position>
            <AltitudeMeters>-62.200000762939453125</AltitudeMeters>
            <DistanceMeters>NAN</DistanceMeters>
          </Trackpoint>
          <Trackpoint>
            <Time>2022-07-12T11:48:19.000Z</Time>
            <Position>
              <LatitudeDegrees>43.26744058169424533843994140625</LatitudeDegrees>
              <LongitudeDegrees>-2.949639670550823211669921875</LongitudeDegrees>
            </Position>
            <AltitudeMeters>-61.799999237060546875</AltitudeMeters>
            <DistanceMeters>NAN</DistanceMeters>
          </Trackpoint>
          <Trackpoint>
            <Time>2022-07-12T11:48:20.000Z</Time>
            <Position>
              <LatitudeDegrees>43.26746740378439426422119140625</LatitudeDegrees>
              <LongitudeDegrees>-2.9495727829635143280029296875</LongitudeDegrees>
            </Position>
            <AltitudeMeters>-61.59999847412109375</AltitudeMeters>
            <DistanceMeters>NAN</DistanceMeters>
          </Trackpoint>
          <Trackpoint>
            <Time>2022-07-12T11:48:23.000Z</Time>
            <Position>
              <LatitudeDegrees>43.26756228692829608917236328125</LatitudeDegrees>
              <LongitudeDegrees>-2.949373461306095123291015625</LongitudeDegrees>
            </Position>
            <AltitudeMeters>-61.59999847412109375</AltitudeMeters>
            <DistanceMeters>NAN</DistanceMeters>
          </Trackpoint>
          <Trackpoint>
            <Time>2022-07-12T11:48:26.000Z</Time>
            <Position>
              <LatitudeDegrees>43.26761995442211627960205078125</LatitudeDegrees>
              <LongitudeDegrees>-2.949156872928142547607421875</LongitudeDegrees>
            </Position>
            <AltitudeMeters>-62</AltitudeMeters>
            <DistanceMeters>NAN</DistanceMeters>
          </Trackpoint>
          <Trackpoint>
            <Time>2022-07-12T11:48:28.000Z</Time>
            <Position>
              <LatitudeDegrees>43.26763168908655643463134765625</LatitudeDegrees>
              <LongitudeDegrees>-2.94903240166604518890380859375</LongitudeDegrees>
            </Position>
            <AltitudeMeters>-62.200000762939453125</AltitudeMeters>
            <DistanceMeters>NAN</DistanceMeters>
          </Trackpoint>
          <Trackpoint>
            <Time>2022-07-12T11:48:30.000Z</Time>
            <Position>
              <LatitudeDegrees>43.26764442957937717437744140625</LatitudeDegrees>
              <LongitudeDegrees>-2.94893257319927215576171875</LongitudeDegrees>
            </Position>
            <AltitudeMeters>-62</AltitudeMeters>
            <DistanceMeters>NAN</DistanceMeters>
          </Trackpoint>
          <Trackpoint>
            <Time>2022-07-12T11:48:34.000Z</Time>
            <Position>
              <LatitudeDegrees>43.26767988502979278564453125</LatitudeDegrees>
              <LongitudeDegrees>-2.9487523622810840606689453125</LongitudeDegrees>
            </Position>
            <AltitudeMeters>-61.200000762939453125</AltitudeMeters>
            <DistanceMeters>NAN</DistanceMeters>
          </Trackpoint>
          <Trackpoint>
            <Time>2022-07-12T11:48:36.000Z</Time>
            <Position>
              <LatitudeDegrees>43.26769522391259670257568359375</LatitudeDegrees>
              <LongitudeDegrees>-2.94867063872516155242919921875</LongitudeDegrees>
            </Position>
            <AltitudeMeters>-60.799999237060546875</AltitudeMeters>
            <DistanceMeters>NAN</DistanceMeters>
          </Trackpoint>
          <Trackpoint>
            <Time>2022-07-12T11:48:39.000Z</Time>
            <Position>
              <LatitudeDegrees>43.2677078805863857269287109375</LatitudeDegrees>
              <LongitudeDegrees>-2.948562093079090118408203125</LongitudeDegrees>
            </Position>
            <AltitudeMeters>-60.200000762939453125</AltitudeMeters>
            <DistanceMeters>NAN</DistanceMeters>
          </Trackpoint>
          <Trackpoint>
            <Time>2022-07-12T11:48:40.000Z</Time>
            <Position>
              <LatitudeDegrees>43.2677092216908931732177734375</LatitudeDegrees>
              <LongitudeDegrees>-2.94853753410279750823974609375</LongitudeDegrees>
            </Position>
            <AltitudeMeters>-60</AltitudeMeters>
            <DistanceMeters>NAN</DistanceMeters>
          </Trackpoint>
          <Trackpoint>
            <Time>2022-07-12T11:48:41.000Z</Time>
            <Position>
              <LatitudeDegrees>43.26771265827119350433349609375</LatitudeDegrees>
              <LongitudeDegrees>-2.94851724989712238311767578125</LongitudeDegrees>
            </Position>
            <AltitudeMeters>-59.799999237060546875</AltitudeMeters>
            <DistanceMeters>NAN</DistanceMeters>
          </Trackpoint>
          <Trackpoint>
            <Time>2022-07-12T11:48:48.000Z</Time>
            <Position>
              <LatitudeDegrees>43.2677692361176013946533203125</LatitudeDegrees>
              <LongitudeDegrees>-2.9483460076153278350830078125</LongitudeDegrees>
            </Position>
            <AltitudeMeters>-58.799999237060546875</AltitudeMeters>
            <DistanceMeters>NAN</DistanceMeters>
          </Trackpoint>
          <Trackpoint>
            <Time>2022-07-12T11:48:52.000Z</Time>
            <Position>
              <LatitudeDegrees>43.26778373681008815765380859375</LatitudeDegrees>
              <LongitudeDegrees>-2.94825187884271144866943359375</LongitudeDegrees>
            </Position>
            <AltitudeMeters>-58.200000762939453125</AltitudeMeters>
            <DistanceMeters>NAN</DistanceMeters>
          </Trackpoint>
          <Trackpoint>
            <Time>2022-07-12T11:48:55.000Z</Time>
            <Position>
              <LatitudeDegrees>43.267826735973358154296875</LatitudeDegrees>
              <LongitudeDegrees>-2.94819856993854045867919921875</LongitudeDegrees>
            </Position>
            <AltitudeMeters>-57.59999847412109375</AltitudeMeters>
            <DistanceMeters>NAN</DistanceMeters>
          </Trackpoint>
          <Trackpoint>
            <Time>2022-07-12T11:49:01.000Z</Time>
            <Position>
              <LatitudeDegrees>43.267876692116260528564453125</LatitudeDegrees>
              <LongitudeDegrees>-2.948102094233036041259765625</LongitudeDegrees>
            </Position>
            <AltitudeMeters>-57.200000762939453125</AltitudeMeters>
            <DistanceMeters>NAN</DistanceMeters>
          </Trackpoint>
          <Trackpoint>
            <Time>2022-07-12T11:49:02.000Z</Time>
            <Position>
              <LatitudeDegrees>43.267876692116260528564453125</LatitudeDegrees>
              <LongitudeDegrees>-2.948102094233036041259765625</LongitudeDegrees>
            </Position>
            <AltitudeMeters>-57</AltitudeMeters>
            <DistanceMeters>NAN</DistanceMeters>
          </Trackpoint>
          <Trackpoint>
            <Time>2022-07-12T11:49:31.000Z</Time>
            <Position>
              <LatitudeDegrees>43.26788549311459064483642578125</LatitudeDegrees>
              <LongitudeDegrees>-2.948058508336544036865234375</LongitudeDegrees>
            </Position>
            <AltitudeMeters>-56.59999847412109375</AltitudeMeters>
            <DistanceMeters>NAN</DistanceMeters>
          </Trackpoint>
          <Trackpoint>
            <Time>2022-07-12T11:49:32.000Z</Time>
            <Position>
              <LatitudeDegrees>43.2678875885903835296630859375</LatitudeDegrees>
              <LongitudeDegrees>-2.94802791438996791839599609375</LongitudeDegrees>
            </Position>
            <AltitudeMeters>-56.40000152587890625</AltitudeMeters>
            <DistanceMeters>NAN</DistanceMeters>
          </Trackpoint>
          <Trackpoint>
            <Time>2022-07-12T11:49:34.000Z</Time>
            <Position>
              <LatitudeDegrees>43.26789286918938159942626953125</LatitudeDegrees>
              <LongitudeDegrees>-2.9479691572487354278564453125</LongitudeDegrees>
            </Position>
            <AltitudeMeters>-56.200000762939453125</AltitudeMeters>
            <DistanceMeters>NAN</DistanceMeters>
          </Trackpoint>
          <Trackpoint>
            <Time>2022-07-12T11:49:38.000Z</Time>
            <Position>
              <LatitudeDegrees>43.2679227925837039947509765625</LatitudeDegrees>
              <LongitudeDegrees>-2.9478295147418975830078125</LongitudeDegrees>
            </Position>
            <AltitudeMeters>-56</AltitudeMeters>
            <DistanceMeters>NAN</DistanceMeters>
          </Trackpoint>
          <Trackpoint>
            <Time>2022-07-12T11:49:42.000Z</Time>
            <Position>
              <LatitudeDegrees>43.2679338566958904266357421875</LatitudeDegrees>
              <LongitudeDegrees>-2.947691045701503753662109375</LongitudeDegrees>
            </Position>
            <AltitudeMeters>-55.59999847412109375</AltitudeMeters>
            <DistanceMeters>NAN</DistanceMeters>
          </Trackpoint>
          <Trackpoint>
            <Time>2022-07-12T11:49:43.000Z</Time>
            <Position>
              <LatitudeDegrees>43.267931006848812103271484375</LatitudeDegrees>
              <LongitudeDegrees>-2.9476630501449108123779296875</LongitudeDegrees>
            </Position>
            <AltitudeMeters>-55.40000152587890625</AltitudeMeters>
            <DistanceMeters>NAN</DistanceMeters>
          </Trackpoint>
          <Trackpoint>
            <Time>2022-07-12T11:49:50.000Z</Time>
            <Position>
              <LatitudeDegrees>43.26790787279605865478515625</LatitudeDegrees>
              <LongitudeDegrees>-2.947444617748260498046875</LongitudeDegrees>
            </Position>
            <AltitudeMeters>-55.200000762939453125</AltitudeMeters>
            <DistanceMeters>NAN</DistanceMeters>
          </Trackpoint>
          <Trackpoint>
            <Time>2022-07-12T11:49:53.000Z</Time>
            <Position>
              <LatitudeDegrees>43.267941735684871673583984375</LatitudeDegrees>
              <LongitudeDegrees>-2.94733188115060329437255859375</LongitudeDegrees>
            </Position>
            <AltitudeMeters>-54.799999237060546875</AltitudeMeters>
            <DistanceMeters>NAN</DistanceMeters>
          </Trackpoint>
          <Trackpoint>
            <Time>2022-07-12T11:49:56.000Z</Time>
            <Position>
              <LatitudeDegrees>43.26787627302110195159912109375</LatitudeDegrees>
              <LongitudeDegrees>-2.94728125445544719696044921875</LongitudeDegrees>
            </Position>
            <AltitudeMeters>-54.59999847412109375</AltitudeMeters>
            <DistanceMeters>NAN</DistanceMeters>
          </Trackpoint>
          <Trackpoint>
            <Time>2022-07-12T11:49:58.000Z</Time>
            <Position>
              <LatitudeDegrees>43.26785867102444171905517578125</LatitudeDegrees>
              <LongitudeDegrees>-2.94723079539835453033447265625</LongitudeDegrees>
            </Position>
            <AltitudeMeters>-54.40000152587890625</AltitudeMeters>
            <DistanceMeters>NAN</DistanceMeters>
          </Trackpoint>
          <Trackpoint>
            <Time>2022-07-12T11:50:03.000Z</Time>
            <Position>
              <LatitudeDegrees>43.26783922500908374786376953125</LatitudeDegrees>
              <LongitudeDegrees>-2.9470717906951904296875</LongitudeDegrees>
            </Position>
            <AltitudeMeters>-53.799999237060546875</AltitudeMeters>
            <DistanceMeters>NAN</DistanceMeters>
          </Trackpoint>
          <Trackpoint>
            <Time>2022-07-12T11:50:06.000Z</Time>
            <Position>
              <LatitudeDegrees>43.26779429800808429718017578125</LatitudeDegrees>
              <LongitudeDegrees>-2.946959473192691802978515625</LongitudeDegrees>
            </Position>
            <AltitudeMeters>-53.40000152587890625</AltitudeMeters>
            <DistanceMeters>NAN</DistanceMeters>
          </Trackpoint>
          <Trackpoint>
            <Time>2022-07-12T11:50:09.000Z</Time>
            <Position>
              <LatitudeDegrees>43.2677447609603404998779296875</LatitudeDegrees>
              <LongitudeDegrees>-2.9468969441950321197509765625</LongitudeDegrees>
            </Position>
            <AltitudeMeters>-53.200000762939453125</AltitudeMeters>
            <DistanceMeters>NAN</DistanceMeters>
          </Trackpoint>
          <Trackpoint>
            <Time>2022-07-12T11:50:14.000Z</Time>
            <Position>
              <LatitudeDegrees>43.267760686576366424560546875</LatitudeDegrees>
              <LongitudeDegrees>-2.946775741875171661376953125</LongitudeDegrees>
            </Position>
            <AltitudeMeters>-53.200000762939453125</AltitudeMeters>
            <DistanceMeters>NAN</DistanceMeters>
          </Trackpoint>
          <Trackpoint>
            <Time>2022-07-12T11:50:16.000Z</Time>
            <Position>
              <LatitudeDegrees>43.26774367131292819976806640625</LatitudeDegrees>
              <LongitudeDegrees>-2.94675906188786029815673828125</LongitudeDegrees>
            </Position>
            <AltitudeMeters>-53.200000762939453125</AltitudeMeters>
            <DistanceMeters>NAN</DistanceMeters>
          </Trackpoint>
          <Trackpoint>
            <Time>2022-07-12T11:50:21.000Z</Time>
            <Position>
              <LatitudeDegrees>43.2676684856414794921875</LatitudeDegrees>
              <LongitudeDegrees>-2.94665462337434291839599609375</LongitudeDegrees>
            </Position>
            <AltitudeMeters>-53</AltitudeMeters>
            <DistanceMeters>NAN</DistanceMeters>
          </Trackpoint>
          <Trackpoint>
            <Time>2022-07-12T11:50:25.000Z</Time>
            <Position>
              <LatitudeDegrees>43.26758977957069873809814453125</LatitudeDegrees>
              <LongitudeDegrees>-2.94658672995865345001220703125</LongitudeDegrees>
            </Position>
            <AltitudeMeters>-53.200000762939453125</AltitudeMeters>
            <DistanceMeters>NAN</DistanceMeters>
          </Trackpoint>
          <Trackpoint>
            <Time>2022-07-12T11:50:26.000Z</Time>
            <Position>
              <LatitudeDegrees>43.26753982342779636383056640625</LatitudeDegrees>
              <LongitudeDegrees>-2.94655940495431423187255859375</LongitudeDegrees>
            </Position>
            <AltitudeMeters>-53.200000762939453125</AltitudeMeters>
            <DistanceMeters>NAN</DistanceMeters>
          </Trackpoint>
          <Trackpoint>
            <Time>2022-07-12T11:50:28.000Z</Time>
            <Position>
              <LatitudeDegrees>43.26745726168155670166015625</LatitudeDegrees>
              <LongitudeDegrees>-2.94650844298303127288818359375</LongitudeDegrees>
            </Position>
            <AltitudeMeters>-53.200000762939453125</AltitudeMeters>
            <DistanceMeters>NAN</DistanceMeters>
          </Trackpoint>
          <Trackpoint>
            <Time>2022-07-12T11:50:30.000Z</Time>
            <Position>
              <LatitudeDegrees>43.26724561862647533416748046875</LatitudeDegrees>
              <LongitudeDegrees>-2.94633326120674610137939453125</LongitudeDegrees>
            </Position>
            <AltitudeMeters>-53.40000152587890625</AltitudeMeters>
            <DistanceMeters>NAN</DistanceMeters>
          </Trackpoint>
          <Trackpoint>
            <Time>2022-07-12T11:50:32.000Z</Time>
            <Position>
              <LatitudeDegrees>43.26711670495569705963134765625</LatitudeDegrees>
              <LongitudeDegrees>-2.94624625705182552337646484375</LongitudeDegrees>
            </Position>
            <AltitudeMeters>-53.200000762939453125</AltitudeMeters>
            <DistanceMeters>NAN</DistanceMeters>
          </Trackpoint>
          <Trackpoint>
            <Time>2022-07-12T11:50:36.000Z</Time>
            <Position>
              <LatitudeDegrees>43.26694521121680736541748046875</LatitudeDegrees>
              <LongitudeDegrees>-2.94612430036067962646484375</LongitudeDegrees>
            </Position>
            <AltitudeMeters>-53.200000762939453125</AltitudeMeters>
            <DistanceMeters>NAN</DistanceMeters>
          </Trackpoint>
          <Trackpoint>
            <Time>2022-07-12T11:50:42.000Z</Time>
            <Position>
              <LatitudeDegrees>43.266781680285930633544921875</LatitudeDegrees>
              <LongitudeDegrees>-2.9459615238010883331298828125</LongitudeDegrees>
            </Position>
            <AltitudeMeters>-52.59999847412109375</AltitudeMeters>
            <DistanceMeters>NAN</DistanceMeters>
          </Trackpoint>
          <Trackpoint>
            <Time>2022-07-12T11:50:47.000Z</Time>
            <Position>
              <LatitudeDegrees>43.2665513455867767333984375</LatitudeDegrees>
              <LongitudeDegrees>-2.94582255184650421142578125</LongitudeDegrees>
            </Position>
            <AltitudeMeters>-52.40000152587890625</AltitudeMeters>
            <DistanceMeters>NAN</DistanceMeters>
          </Trackpoint>
          <Trackpoint>
            <Time>2022-07-12T11:50:51.000Z</Time>
            <Position>
              <LatitudeDegrees>43.266496025025844573974609375</LatitudeDegrees>
              <LongitudeDegrees>-2.94568014331161975860595703125</LongitudeDegrees>
            </Position>
            <AltitudeMeters>-52.40000152587890625</AltitudeMeters>
            <DistanceMeters>NAN</DistanceMeters>
          </Trackpoint>
          <Trackpoint>
            <Time>2022-07-12T11:50:56.000Z</Time>
            <Position>
              <LatitudeDegrees>43.2664670236408710479736328125</LatitudeDegrees>
              <LongitudeDegrees>-2.94545751996338367462158203125</LongitudeDegrees>
            </Position>
            <AltitudeMeters>-52.200000762939453125</AltitudeMeters>
            <DistanceMeters>NAN</DistanceMeters>
          </Trackpoint>
          <Trackpoint>
            <Time>2022-07-12T11:50:57.000Z</Time>
            <Position>
              <LatitudeDegrees>43.2664413750171661376953125</LatitudeDegrees>
              <LongitudeDegrees>-2.94541762210428714752197265625</LongitudeDegrees>
            </Position>
            <AltitudeMeters>-52.200000762939453125</AltitudeMeters>
            <DistanceMeters>NAN</DistanceMeters>
          </Trackpoint>
          <Trackpoint>
            <Time>2022-07-12T11:51:00.000Z</Time>
            <Position>
              <LatitudeDegrees>43.26641195453703403472900390625</LatitudeDegrees>
              <LongitudeDegrees>-2.94531737454235553741455078125</LongitudeDegrees>
            </Position>
            <AltitudeMeters>-52</AltitudeMeters>
            <DistanceMeters>NAN</DistanceMeters>
          </Trackpoint>
          <Trackpoint>
            <Time>2022-07-12T11:51:04.000Z</Time>
            <Position>
              <LatitudeDegrees>43.2663999684154987335205078125</LatitudeDegrees>
              <LongitudeDegrees>-2.945150993764400482177734375</LongitudeDegrees>
            </Position>
            <AltitudeMeters>-51.799999237060546875</AltitudeMeters>
            <DistanceMeters>NAN</DistanceMeters>
          </Trackpoint>
          <Trackpoint>
            <Time>2022-07-12T11:51:11.000Z</Time>
            <Position>
              <LatitudeDegrees>43.26634657569229602813720703125</LatitudeDegrees>
              <LongitudeDegrees>-2.9449107684195041656494140625</LongitudeDegrees>
            </Position>
            <AltitudeMeters>-51.40000152587890625</AltitudeMeters>
            <DistanceMeters>NAN</DistanceMeters>
          </Trackpoint>
          <Trackpoint>
            <Time>2022-07-12T11:51:13.000Z</Time>
            <Position>
              <LatitudeDegrees>43.26632679440081119537353515625</LatitudeDegrees>
              <LongitudeDegrees>-2.9448608122766017913818359375</LongitudeDegrees>
            </Position>
            <AltitudeMeters>-51</AltitudeMeters>
            <DistanceMeters>NAN</DistanceMeters>
          </Trackpoint>
          <Trackpoint>
            <Time>2022-07-12T11:51:18.000Z</Time>
            <Position>
              <LatitudeDegrees>43.26625219546258449554443359375</LatitudeDegrees>
              <LongitudeDegrees>-2.9447652585804462432861328125</LongitudeDegrees>
            </Position>
            <AltitudeMeters>-50.40000152587890625</AltitudeMeters>
            <DistanceMeters>NAN</DistanceMeters>
          </Trackpoint>
          <Trackpoint>
            <Time>2022-07-12T11:51:22.000Z</Time>
            <Position>
              <LatitudeDegrees>43.26618262566626071929931640625</LatitudeDegrees>
              <LongitudeDegrees>-2.94471354223787784576416015625</LongitudeDegrees>
            </Position>
            <AltitudeMeters>-51</AltitudeMeters>
            <DistanceMeters>NAN</DistanceMeters>
          </Trackpoint>
          <Trackpoint>
            <Time>2022-07-12T11:51:23.000Z</Time>
            <Position>
              <LatitudeDegrees>43.26615731231868267059326171875</LatitudeDegrees>
              <LongitudeDegrees>-2.94469510205090045928955078125</LongitudeDegrees>
            </Position>
            <AltitudeMeters>-51</AltitudeMeters>
            <DistanceMeters>NAN</DistanceMeters>
          </Trackpoint>
          <Trackpoint>
            <Time>2022-07-12T11:51:25.000Z</Time>
            <Position>
              <LatitudeDegrees>43.26613132841885089874267578125</LatitudeDegrees>
              <LongitudeDegrees>-2.94464983977377414703369140625</LongitudeDegrees>
            </Position>
            <AltitudeMeters>-51.200000762939453125</AltitudeMeters>
            <DistanceMeters>NAN</DistanceMeters>
          </Trackpoint>
          <Trackpoint>
            <Time>2022-07-12T11:51:27.000Z</Time>
            <Position>
              <LatitudeDegrees>43.2660935260355472564697265625</LatitudeDegrees>
              <LongitudeDegrees>-2.94459535740315914154052734375</LongitudeDegrees>
            </Position>
            <AltitudeMeters>-51.200000762939453125</AltitudeMeters>
            <DistanceMeters>NAN</DistanceMeters>
          </Trackpoint>
          <Trackpoint>
            <Time>2022-07-12T11:51:33.000Z</Time>
            <Position>
              <LatitudeDegrees>43.2660237886011600494384765625</LatitudeDegrees>
              <LongitudeDegrees>-2.9445008933544158935546875</LongitudeDegrees>
            </Position>
            <AltitudeMeters>-51.40000152587890625</AltitudeMeters>
            <DistanceMeters>NAN</DistanceMeters>
          </Trackpoint>
          <Trackpoint>
            <Time>2022-07-12T11:51:35.000Z</Time>
            <Position>
              <LatitudeDegrees>43.2660237886011600494384765625</LatitudeDegrees>
              <LongitudeDegrees>-2.9445008933544158935546875</LongitudeDegrees>
            </Position>
            <AltitudeMeters>-51.40000152587890625</AltitudeMeters>
            <DistanceMeters>NAN</DistanceMeters>
          </Trackpoint>
          <Trackpoint>
            <Time>2022-07-12T11:57:09.000Z</Time>
            <Position>
              <LatitudeDegrees>43.26602772809565067291259765625</LatitudeDegrees>
              <LongitudeDegrees>-2.9445402882993221282958984375</LongitudeDegrees>
            </Position>
            <AltitudeMeters>-49.40000152587890625</AltitudeMeters>
            <DistanceMeters>NAN</DistanceMeters>
          </Trackpoint>
          <Trackpoint>
            <Time>2022-07-12T11:57:10.000Z</Time>
            <Position>
              <LatitudeDegrees>43.26603225432336330413818359375</LatitudeDegrees>
              <LongitudeDegrees>-2.9445637576282024383544921875</LongitudeDegrees>
            </Position>
            <AltitudeMeters>-49.40000152587890625</AltitudeMeters>
            <DistanceMeters>NAN</DistanceMeters>
          </Trackpoint>
          <Trackpoint>
            <Time>2022-07-12T11:57:14.000Z</Time>
            <Position>
              <LatitudeDegrees>43.2660288177430629730224609375</LatitudeDegrees>
              <LongitudeDegrees>-2.94462268240749835968017578125</LongitudeDegrees>
            </Position>
            <AltitudeMeters>-49.200000762939453125</AltitudeMeters>
            <DistanceMeters>NAN</DistanceMeters>
          </Trackpoint>
          <Trackpoint>
            <Time>2022-07-12T11:57:15.000Z</Time>
            <Position>
              <LatitudeDegrees>43.26603577472269535064697265625</LatitudeDegrees>
              <LongitudeDegrees>-2.94463701546192169189453125</LongitudeDegrees>
            </Position>
            <AltitudeMeters>-49.200000762939453125</AltitudeMeters>
            <DistanceMeters>NAN</DistanceMeters>
          </Trackpoint>
          <Trackpoint>
            <Time>2022-07-12T11:57:19.000Z</Time>
            <Position>
              <LatitudeDegrees>43.26611406169831752777099609375</LatitudeDegrees>
              <LongitudeDegrees>-2.9446955211460590362548828125</LongitudeDegrees>
            </Position>
            <AltitudeMeters>-49.40000152587890625</AltitudeMeters>
            <DistanceMeters>NAN</DistanceMeters>
          </Trackpoint>
          <Trackpoint>
            <Time>2022-07-12T11:57:20.000Z</Time>
            <Position>
              <LatitudeDegrees>43.26613266952335834503173828125</LatitudeDegrees>
              <LongitudeDegrees>-2.94470943510532379150390625</LongitudeDegrees>
            </Position>
            <AltitudeMeters>-49.40000152587890625</AltitudeMeters>
            <DistanceMeters>NAN</DistanceMeters>
          </Trackpoint>
          <Trackpoint>
            <Time>2022-07-12T11:57:25.000Z</Time>
            <Position>
              <LatitudeDegrees>43.266180194914340972900390625</LatitudeDegrees>
              <LongitudeDegrees>-2.94475059024989604949951171875</LongitudeDegrees>
            </Position>
            <AltitudeMeters>-49.40000152587890625</AltitudeMeters>
            <DistanceMeters>NAN</DistanceMeters>
          </Trackpoint>
          <Trackpoint>
            <Time>2022-07-12T11:57:26.000Z</Time>
            <Position>
              <LatitudeDegrees>43.266180194914340972900390625</LatitudeDegrees>
              <LongitudeDegrees>-2.94475059024989604949951171875</LongitudeDegrees>
            </Position>
            <AltitudeMeters>-49.40000152587890625</AltitudeMeters>
            <DistanceMeters>NAN</DistanceMeters>
          </Trackpoint>
          <Trackpoint>
            <Time>2022-07-12T11:57:39.000Z</Time>
            <Position>
              <LatitudeDegrees>43.26624783687293529510498046875</LatitudeDegrees>
              <LongitudeDegrees>-2.9448061622679233551025390625</LongitudeDegrees>
            </Position>
            <AltitudeMeters>-49.40000152587890625</AltitudeMeters>
            <DistanceMeters>NAN</DistanceMeters>
          </Trackpoint>
          <Trackpoint>
            <Time>2022-07-12T11:57:41.000Z</Time>
            <Position>
              <LatitudeDegrees>43.26628203503787517547607421875</LatitudeDegrees>
              <LongitudeDegrees>-2.94486056081950664520263671875</LongitudeDegrees>
            </Position>
            <AltitudeMeters>-49.200000762939453125</AltitudeMeters>
            <DistanceMeters>NAN</DistanceMeters>
          </Trackpoint>
          <Trackpoint>
            <Time>2022-07-12T11:57:47.000Z</Time>
            <Position>
              <LatitudeDegrees>43.2663862220942974090576171875</LatitudeDegrees>
              <LongitudeDegrees>-2.945056445896625518798828125</LongitudeDegrees>
            </Position>
            <AltitudeMeters>-48.799999237060546875</AltitudeMeters>
            <DistanceMeters>NAN</DistanceMeters>
          </Trackpoint>
          <Trackpoint>
            <Time>2022-07-12T11:57:53.000Z</Time>
            <Position>
              <LatitudeDegrees>43.2664690352976322174072265625</LatitudeDegrees>
              <LongitudeDegrees>-2.945316620171070098876953125</LongitudeDegrees>
            </Position>
            <AltitudeMeters>-49</AltitudeMeters>
            <DistanceMeters>NAN</DistanceMeters>
          </Trackpoint>
          <Trackpoint>
            <Time>2022-07-12T11:58:00.000Z</Time>
            <Position>
              <LatitudeDegrees>43.2664566300809383392333984375</LatitudeDegrees>
              <LongitudeDegrees>-2.94569573365151882171630859375</LongitudeDegrees>
            </Position>
            <AltitudeMeters>-48.799999237060546875</AltitudeMeters>
            <DistanceMeters>NAN</DistanceMeters>
          </Trackpoint>
          <Trackpoint>
            <Time>2022-07-12T11:58:02.000Z</Time>
            <Position>
              <LatitudeDegrees>43.2664308138191699981689453125</LatitudeDegrees>
              <LongitudeDegrees>-2.945800758898258209228515625</LongitudeDegrees>
            </Position>
            <AltitudeMeters>-48.799999237060546875</AltitudeMeters>
            <DistanceMeters>NAN</DistanceMeters>
          </Trackpoint>
          <Trackpoint>
            <Time>2022-07-12T11:58:06.000Z</Time>
            <Position>
              <LatitudeDegrees>43.266356885433197021484375</LatitudeDegrees>
              <LongitudeDegrees>-2.9459729231894016265869140625</LongitudeDegrees>
            </Position>
            <AltitudeMeters>-49.799999237060546875</AltitudeMeters>
            <DistanceMeters>NAN</DistanceMeters>
          </Trackpoint>
          <Trackpoint>
            <Time>2022-07-12T11:58:11.000Z</Time>
            <Position>
              <LatitudeDegrees>43.26621782965958118438720703125</LatitudeDegrees>
              <LongitudeDegrees>-2.94614978134632110595703125</LongitudeDegrees>
            </Position>
            <AltitudeMeters>-50.40000152587890625</AltitudeMeters>
            <DistanceMeters>NAN</DistanceMeters>
          </Trackpoint>
          <Trackpoint>
            <Time>2022-07-12T11:58:12.000Z</Time>
            <Position>
              <LatitudeDegrees>43.26618991792201995849609375</LatitudeDegrees>
              <LongitudeDegrees>-2.9461781121790409088134765625</LongitudeDegrees>
            </Position>
            <AltitudeMeters>-50.40000152587890625</AltitudeMeters>
            <DistanceMeters>NAN</DistanceMeters>
          </Trackpoint>
          <Trackpoint>
            <Time>2022-07-12T11:58:14.000Z</Time>
            <Position>
              <LatitudeDegrees>43.2661374472081661224365234375</LatitudeDegrees>
              <LongitudeDegrees>-2.9462327621877193450927734375</LongitudeDegrees>
            </Position>
            <AltitudeMeters>-50.40000152587890625</AltitudeMeters>
            <DistanceMeters>NAN</DistanceMeters>
          </Trackpoint>
          <Trackpoint>
            <Time>2022-07-12T11:58:15.000Z</Time>
            <Position>
              <LatitudeDegrees>43.26611439697444438934326171875</LatitudeDegrees>
              <LongitudeDegrees>-2.94626570306718349456787109375</LongitudeDegrees>
            </Position>
            <AltitudeMeters>-50.200000762939453125</AltitudeMeters>
            <DistanceMeters>NAN</DistanceMeters>
          </Trackpoint>
          <Trackpoint>
            <Time>2022-07-12T11:58:16.000Z</Time>
            <Position>
              <LatitudeDegrees>43.2660958729684352874755859375</LatitudeDegrees>
              <LongitudeDegrees>-2.94630124233663082122802734375</LongitudeDegrees>
            </Position>
            <AltitudeMeters>-50.200000762939453125</AltitudeMeters>
            <DistanceMeters>NAN</DistanceMeters>
          </Trackpoint>
          <Trackpoint>
            <Time>2022-07-12T11:58:18.000Z</Time>
            <Position>
              <LatitudeDegrees>43.26607055962085723876953125</LatitudeDegrees>
              <LongitudeDegrees>-2.94637642800807952880859375</LongitudeDegrees>
            </Position>
            <AltitudeMeters>-49.799999237060546875</AltitudeMeters>
            <DistanceMeters>NAN</DistanceMeters>
          </Trackpoint>
          <Trackpoint>
            <Time>2022-07-12T11:58:20.000Z</Time>
            <Position>
              <LatitudeDegrees>43.2660566456615924835205078125</LatitudeDegrees>
              <LongitudeDegrees>-2.94646284542977809906005859375</LongitudeDegrees>
            </Position>
            <AltitudeMeters>-49.59999847412109375</AltitudeMeters>
            <DistanceMeters>NAN</DistanceMeters>
          </Trackpoint>
          <Trackpoint>
            <Time>2022-07-12T11:58:25.000Z</Time>
            <Position>
              <LatitudeDegrees>43.2660227827727794647216796875</LatitudeDegrees>
              <LongitudeDegrees>-2.9467236064374446868896484375</LongitudeDegrees>
            </Position>
            <AltitudeMeters>-49.799999237060546875</AltitudeMeters>
            <DistanceMeters>NAN</DistanceMeters>
          </Trackpoint>
          <Trackpoint>
            <Time>2022-07-12T11:58:29.000Z</Time>
            <Position>
              <LatitudeDegrees>43.26596301980316638946533203125</LatitudeDegrees>
              <LongitudeDegrees>-2.9470927454531192779541015625</LongitudeDegrees>
            </Position>
            <AltitudeMeters>-49.799999237060546875</AltitudeMeters>
            <DistanceMeters>NAN</DistanceMeters>
          </Trackpoint>
          <Trackpoint>
            <Time>2022-07-12T11:58:32.000Z</Time>
            <Position>
              <LatitudeDegrees>43.26589764095842838287353515625</LatitudeDegrees>
              <LongitudeDegrees>-2.94745140708982944488525390625</LongitudeDegrees>
            </Position>
            <AltitudeMeters>-52.40000152587890625</AltitudeMeters>
            <DistanceMeters>NAN</DistanceMeters>
          </Trackpoint>
          <Trackpoint>
            <Time>2022-07-12T11:58:33.000Z</Time>
            <Position>
              <LatitudeDegrees>43.2658769376575946807861328125</LatitudeDegrees>
              <LongitudeDegrees>-2.94757981784641742706298828125</LongitudeDegrees>
            </Position>
            <AltitudeMeters>-54</AltitudeMeters>
            <DistanceMeters>NAN</DistanceMeters>
          </Trackpoint>
          <Trackpoint>
            <Time>2022-07-12T11:58:35.000Z</Time>
            <Position>
              <LatitudeDegrees>43.2658336870372295379638671875</LatitudeDegrees>
              <LongitudeDegrees>-2.947829179465770721435546875</LongitudeDegrees>
            </Position>
            <AltitudeMeters>-55.200000762939453125</AltitudeMeters>
            <DistanceMeters>NAN</DistanceMeters>
          </Trackpoint>
          <Trackpoint>
            <Time>2022-07-12T11:58:37.000Z</Time>
            <Position>
              <LatitudeDegrees>43.2657922804355621337890625</LatitudeDegrees>
              <LongitudeDegrees>-2.9480704106390476226806640625</LongitudeDegrees>
            </Position>
            <AltitudeMeters>-56.59999847412109375</AltitudeMeters>
            <DistanceMeters>NAN</DistanceMeters>
          </Trackpoint>
          <Trackpoint>
            <Time>2022-07-12T11:58:39.000Z</Time>
            <Position>
              <LatitudeDegrees>43.26576252467930316925048828125</LatitudeDegrees>
              <LongitudeDegrees>-2.9483027569949626922607421875</LongitudeDegrees>
            </Position>
            <AltitudeMeters>-57.799999237060546875</AltitudeMeters>
            <DistanceMeters>NAN</DistanceMeters>
          </Trackpoint>
          <Trackpoint>
            <Time>2022-07-12T11:58:40.000Z</Time>
            <Position>
              <LatitudeDegrees>43.26575137674808502197265625</LatitudeDegrees>
              <LongitudeDegrees>-2.94841432012617588043212890625</LongitudeDegrees>
            </Position>
            <AltitudeMeters>-58.200000762939453125</AltitudeMeters>
            <DistanceMeters>NAN</DistanceMeters>
          </Trackpoint>
          <Trackpoint>
            <Time>2022-07-12T11:58:45.000Z</Time>
            <Position>
              <LatitudeDegrees>43.26570351608097553253173828125</LatitudeDegrees>
              <LongitudeDegrees>-2.94887180440127849578857421875</LongitudeDegrees>
            </Position>
            <AltitudeMeters>-58.799999237060546875</AltitudeMeters>
            <DistanceMeters>NAN</DistanceMeters>
          </Trackpoint>
          <Trackpoint>
            <Time>2022-07-12T11:58:46.000Z</Time>
            <Position>
              <LatitudeDegrees>43.265692032873630523681640625</LatitudeDegrees>
              <LongitudeDegrees>-2.948961742222309112548828125</LongitudeDegrees>
            </Position>
            <AltitudeMeters>-59</AltitudeMeters>
            <DistanceMeters>NAN</DistanceMeters>
          </Trackpoint>
          <Trackpoint>
            <Time>2022-07-12T11:58:48.000Z</Time>
            <Position>
              <LatitudeDegrees>43.2656677253544330596923828125</LatitudeDegrees>
              <LongitudeDegrees>-2.9491339065134525299072265625</LongitudeDegrees>
            </Position>
            <AltitudeMeters>-59.200000762939453125</AltitudeMeters>
            <DistanceMeters>NAN</DistanceMeters>
          </Trackpoint>
          <Trackpoint>
            <Time>2022-07-12T11:58:51.000Z</Time>
            <Position>
              <LatitudeDegrees>43.2656321860849857330322265625</LatitudeDegrees>
              <LongitudeDegrees>-2.9493905603885650634765625</LongitudeDegrees>
            </Position>
            <AltitudeMeters>-59.40000152587890625</AltitudeMeters>
            <DistanceMeters>NAN</DistanceMeters>
          </Trackpoint>
          <Trackpoint>
            <Time>2022-07-12T11:58:54.000Z</Time>
            <Position>
              <LatitudeDegrees>43.2656164281070232391357421875</LatitudeDegrees>
              <LongitudeDegrees>-2.9496190510690212249755859375</LongitudeDegrees>
            </Position>
            <AltitudeMeters>-59.40000152587890625</AltitudeMeters>
            <DistanceMeters>NAN</DistanceMeters>
          </Trackpoint>
          <Trackpoint>
            <Time>2022-07-12T11:58:56.000Z</Time>
            <Position>
              <LatitudeDegrees>43.265611231327056884765625</LatitudeDegrees>
              <LongitudeDegrees>-2.949756681919097900390625</LongitudeDegrees>
            </Position>
            <AltitudeMeters>-59.40000152587890625</AltitudeMeters>
            <DistanceMeters>NAN</DistanceMeters>
          </Trackpoint>
          <Trackpoint>
            <Time>2022-07-12T11:59:00.000Z</Time>
            <Position>
              <LatitudeDegrees>43.26558566652238368988037109375</LatitudeDegrees>
              <LongitudeDegrees>-2.9499992541968822479248046875</LongitudeDegrees>
            </Position>
            <AltitudeMeters>-59.799999237060546875</AltitudeMeters>
            <DistanceMeters>NAN</DistanceMeters>
          </Trackpoint>
          <Trackpoint>
            <Time>2022-07-12T11:59:01.000Z</Time>
            <Position>
              <LatitudeDegrees>43.26557577587664127349853515625</LatitudeDegrees>
              <LongitudeDegrees>-2.95005398802459239959716796875</LongitudeDegrees>
            </Position>
            <AltitudeMeters>-60</AltitudeMeters>
            <DistanceMeters>NAN</DistanceMeters>
          </Trackpoint>
          <Trackpoint>
            <Time>2022-07-12T11:59:02.000Z</Time>
            <Position>
              <LatitudeDegrees>43.2655664719641208648681640625</LatitudeDegrees>
              <LongitudeDegrees>-2.95010880567133426666259765625</LongitudeDegrees>
            </Position>
            <AltitudeMeters>-60.200000762939453125</AltitudeMeters>
            <DistanceMeters>NAN</DistanceMeters>
          </Trackpoint>
          <Trackpoint>
            <Time>2022-07-12T11:59:05.000Z</Time>
            <Position>
              <LatitudeDegrees>43.26554811559617519378662109375</LatitudeDegrees>
              <LongitudeDegrees>-2.95027644373476505279541015625</LongitudeDegrees>
            </Position>
            <AltitudeMeters>-60.59999847412109375</AltitudeMeters>
            <DistanceMeters>NAN</DistanceMeters>
          </Trackpoint>
          <Trackpoint>
            <Time>2022-07-12T11:59:08.000Z</Time>
            <Position>
              <LatitudeDegrees>43.26550838537514209747314453125</LatitudeDegrees>
              <LongitudeDegrees>-2.95043100602924823760986328125</LongitudeDegrees>
            </Position>
            <AltitudeMeters>-60.59999847412109375</AltitudeMeters>
            <DistanceMeters>NAN</DistanceMeters>
          </Trackpoint>
          <Trackpoint>
            <Time>2022-07-12T11:59:12.000Z</Time>
            <Position>
              <LatitudeDegrees>43.26546027325093746185302734375</LatitudeDegrees>
              <LongitudeDegrees>-2.95067139901220798492431640625</LongitudeDegrees>
            </Position>
            <AltitudeMeters>-60.799999237060546875</AltitudeMeters>
            <DistanceMeters>NAN</DistanceMeters>
          </Trackpoint>
          <Trackpoint>
            <Time>2022-07-12T11:59:14.000Z</Time>
            <Position>
              <LatitudeDegrees>43.26544250361621379852294921875</LatitudeDegrees>
              <LongitudeDegrees>-2.9507928527891635894775390625</LongitudeDegrees>
            </Position>
            <AltitudeMeters>-61</AltitudeMeters>
            <DistanceMeters>NAN</DistanceMeters>
          </Trackpoint>
          <Trackpoint>
            <Time>2022-07-12T11:59:16.000Z</Time>
            <Position>
              <LatitudeDegrees>43.26542741619050502777099609375</LatitudeDegrees>
              <LongitudeDegrees>-2.95091816224157810211181640625</LongitudeDegrees>
            </Position>
            <AltitudeMeters>-61.200000762939453125</AltitudeMeters>
            <DistanceMeters>NAN</DistanceMeters>
          </Trackpoint>
          <Trackpoint>
            <Time>2022-07-12T11:59:18.000Z</Time>
            <Position>
              <LatitudeDegrees>43.2654192857444286346435546875</LatitudeDegrees>
              <LongitudeDegrees>-2.95103835873305797576904296875</LongitudeDegrees>
            </Position>
            <AltitudeMeters>-61.200000762939453125</AltitudeMeters>
            <DistanceMeters>NAN</DistanceMeters>
          </Trackpoint>
          <Trackpoint>
            <Time>2022-07-12T11:59:21.000Z</Time>
            <Position>
              <LatitudeDegrees>43.265423141419887542724609375</LatitudeDegrees>
              <LongitudeDegrees>-2.951136343181133270263671875</LongitudeDegrees>
            </Position>
            <AltitudeMeters>-61.40000152587890625</AltitudeMeters>
            <DistanceMeters>NAN</DistanceMeters>
          </Trackpoint>
          <Trackpoint>
            <Time>2022-07-12T11:59:22.000Z</Time>
            <Position>
              <LatitudeDegrees>43.26543009839951992034912109375</LatitudeDegrees>
              <LongitudeDegrees>-2.95115268789231777191162109375</LongitudeDegrees>
            </Position>
            <AltitudeMeters>-61.59999847412109375</AltitudeMeters>
            <DistanceMeters>NAN</DistanceMeters>
          </Trackpoint>
          <Trackpoint>
            <Time>2022-07-12T11:59:24.000Z</Time>
            <Position>
              <LatitudeDegrees>43.26544920913875102996826171875</LatitudeDegrees>
              <LongitudeDegrees>-2.951132319867610931396484375</LongitudeDegrees>
            </Position>
            <AltitudeMeters>-61.799999237060546875</AltitudeMeters>
            <DistanceMeters>NAN</DistanceMeters>
          </Trackpoint>
          <Trackpoint>
            <Time>2022-07-12T11:59:27.000Z</Time>
            <Position>
              <LatitudeDegrees>43.265430517494678497314453125</LatitudeDegrees>
              <LongitudeDegrees>-2.95102511532604694366455078125</LongitudeDegrees>
            </Position>
            <AltitudeMeters>-62</AltitudeMeters>
            <DistanceMeters>NAN</DistanceMeters>
          </Trackpoint>
          <Trackpoint>
            <Time>2022-07-12T11:59:32.000Z</Time>
            <Position>
              <LatitudeDegrees>43.26541819609701633453369140625</LatitudeDegrees>
              <LongitudeDegrees>-2.9508139751851558685302734375</LongitudeDegrees>
            </Position>
            <AltitudeMeters>-62</AltitudeMeters>
            <DistanceMeters>NAN</DistanceMeters>
          </Trackpoint>
          <Trackpoint>
            <Time>2022-07-12T11:59:39.000Z</Time>
            <Position>
              <LatitudeDegrees>43.265492878854274749755859375</LatitudeDegrees>
              <LongitudeDegrees>-2.95043972320854663848876953125</LongitudeDegrees>
            </Position>
            <AltitudeMeters>-61.40000152587890625</AltitudeMeters>
            <DistanceMeters>NAN</DistanceMeters>
          </Trackpoint>
          <Trackpoint>
            <Time>2022-07-12T11:59:45.000Z</Time>
            <Position>
              <LatitudeDegrees>43.26553084887564182281494140625</LatitudeDegrees>
              <LongitudeDegrees>-2.950218021869659423828125</LongitudeDegrees>
            </Position>
            <AltitudeMeters>-61.799999237060546875</AltitudeMeters>
            <DistanceMeters>NAN</DistanceMeters>
          </Trackpoint>
          <Trackpoint>
            <Time>2022-07-12T11:59:47.000Z</Time>
            <Position>
              <LatitudeDegrees>43.26556571759283542633056640625</LatitudeDegrees>
              <LongitudeDegrees>-2.950204946100711822509765625</LongitudeDegrees>
            </Position>
            <AltitudeMeters>-62</AltitudeMeters>
            <DistanceMeters>NAN</DistanceMeters>
          </Trackpoint>
          <Trackpoint>
            <Time>2022-07-12T11:59:49.000Z</Time>
            <Position>
              <LatitudeDegrees>43.265572674572467803955078125</LatitudeDegrees>
              <LongitudeDegrees>-2.9502533935010433197021484375</LongitudeDegrees>
            </Position>
            <AltitudeMeters>-62</AltitudeMeters>
            <DistanceMeters>NAN</DistanceMeters>
          </Trackpoint>
          <Trackpoint>
            <Time>2022-07-12T11:59:54.000Z</Time>
            <Position>
              <LatitudeDegrees>43.26552514918148517608642578125</LatitudeDegrees>
              <LongitudeDegrees>-2.95044399797916412353515625</LongitudeDegrees>
            </Position>
            <AltitudeMeters>-61.799999237060546875</AltitudeMeters>
            <DistanceMeters>NAN</DistanceMeters>
          </Trackpoint>
          <Trackpoint>
            <Time>2022-07-12T11:59:59.000Z</Time>
            <Position>
              <LatitudeDegrees>43.2654782943427562713623046875</LatitudeDegrees>
              <LongitudeDegrees>-2.95070459134876728057861328125</LongitudeDegrees>
            </Position>
            <AltitudeMeters>-62</AltitudeMeters>
            <DistanceMeters>NAN</DistanceMeters>
          </Trackpoint>
          <Trackpoint>
            <Time>2022-07-12T12:00:04.000Z</Time>
            <Position>
              <LatitudeDegrees>43.2654098980128765106201171875</LatitudeDegrees>
              <LongitudeDegrees>-2.95099116861820220947265625</LongitudeDegrees>
            </Position>
            <AltitudeMeters>-62</AltitudeMeters>
            <DistanceMeters>NAN</DistanceMeters>
          </Trackpoint>
          <Trackpoint>
            <Time>2022-07-12T12:00:09.000Z</Time>
            <Position>
              <LatitudeDegrees>43.2654078863561153411865234375</LatitudeDegrees>
              <LongitudeDegrees>-2.95125310309231281280517578125</LongitudeDegrees>
            </Position>
            <AltitudeMeters>-62.200000762939453125</AltitudeMeters>
            <DistanceMeters>NAN</DistanceMeters>
          </Trackpoint>
          <Trackpoint>
            <Time>2022-07-12T12:00:13.000Z</Time>
            <Position>
              <LatitudeDegrees>43.2653817348182201385498046875</LatitudeDegrees>
              <LongitudeDegrees>-2.9514828510582447052001953125</LongitudeDegrees>
            </Position>
            <AltitudeMeters>-62.200000762939453125</AltitudeMeters>
            <DistanceMeters>NAN</DistanceMeters>
          </Trackpoint>
          <Trackpoint>
            <Time>2022-07-12T12:00:15.000Z</Time>
            <Position>
              <LatitudeDegrees>43.26537787914276123046875</LatitudeDegrees>
              <LongitudeDegrees>-2.95158527791500091552734375</LongitudeDegrees>
            </Position>
            <AltitudeMeters>-62.40000152587890625</AltitudeMeters>
            <DistanceMeters>NAN</DistanceMeters>
          </Trackpoint>
          <Trackpoint>
            <Time>2022-07-12T12:00:23.000Z</Time>
            <Position>
              <LatitudeDegrees>43.2653317786753177642822265625</LatitudeDegrees>
              <LongitudeDegrees>-2.95204971916973590850830078125</LongitudeDegrees>
            </Position>
            <AltitudeMeters>-62.40000152587890625</AltitudeMeters>
            <DistanceMeters>NAN</DistanceMeters>
          </Trackpoint>
          <Trackpoint>
            <Time>2022-07-12T12:00:32.000Z</Time>
            <Position>
              <LatitudeDegrees>43.26527922414243221282958984375</LatitudeDegrees>
              <LongitudeDegrees>-2.95251290313899517059326171875</LongitudeDegrees>
            </Position>
            <AltitudeMeters>-62.200000762939453125</AltitudeMeters>
            <DistanceMeters>NAN</DistanceMeters>
          </Trackpoint>
          <Trackpoint>
            <Time>2022-07-12T12:00:42.000Z</Time>
            <Position>
              <LatitudeDegrees>43.26519138179719448089599609375</LatitudeDegrees>
              <LongitudeDegrees>-2.953024618327617645263671875</LongitudeDegrees>
            </Position>
            <AltitudeMeters>-62.200000762939453125</AltitudeMeters>
            <DistanceMeters>NAN</DistanceMeters>
          </Trackpoint>
          <Trackpoint>
            <Time>2022-07-12T12:00:44.000Z</Time>
            <Position>
              <LatitudeDegrees>43.26513807289302349090576171875</LatitudeDegrees>
              <LongitudeDegrees>-2.95307784341275691986083984375</LongitudeDegrees>
            </Position>
            <AltitudeMeters>-62.200000762939453125</AltitudeMeters>
            <DistanceMeters>NAN</DistanceMeters>
          </Trackpoint>
          <Trackpoint>
            <Time>2022-07-12T12:00:45.000Z</Time>
            <Position>
              <LatitudeDegrees>43.2651047967374324798583984375</LatitudeDegrees>
              <LongitudeDegrees>-2.9530888237059116363525390625</LongitudeDegrees>
            </Position>
            <AltitudeMeters>-62.200000762939453125</AltitudeMeters>
            <DistanceMeters>NAN</DistanceMeters>
          </Trackpoint>
          <Trackpoint>
            <Time>2022-07-12T12:00:51.000Z</Time>
            <Position>
              <LatitudeDegrees>43.2649089954793453216552734375</LatitudeDegrees>
              <LongitudeDegrees>-2.9531183280050754547119140625</LongitudeDegrees>
            </Position>
            <AltitudeMeters>-61.40000152587890625</AltitudeMeters>
            <DistanceMeters>NAN</DistanceMeters>
          </Trackpoint>
          <Trackpoint>
            <Time>2022-07-12T12:00:52.000Z</Time>
            <Position>
              <LatitudeDegrees>43.264881670475006103515625</LatitudeDegrees>
              <LongitudeDegrees>-2.95313115231692790985107421875</LongitudeDegrees>
            </Position>
            <AltitudeMeters>-61</AltitudeMeters>
            <DistanceMeters>NAN</DistanceMeters>
          </Trackpoint>
          <Trackpoint>
            <Time>2022-07-12T12:00:56.000Z</Time>
            <Position>
              <LatitudeDegrees>43.26478553004562854766845703125</LatitudeDegrees>
              <LongitudeDegrees>-2.95321740210056304931640625</LongitudeDegrees>
            </Position>
            <AltitudeMeters>-60.200000762939453125</AltitudeMeters>
            <DistanceMeters>NAN</DistanceMeters>
          </Trackpoint>
          <Trackpoint>
            <Time>2022-07-12T12:00:58.000Z</Time>
            <Position>
              <LatitudeDegrees>43.264757283031940460205078125</LatitudeDegrees>
              <LongitudeDegrees>-2.95327900908887386322021484375</LongitudeDegrees>
            </Position>
            <AltitudeMeters>-60</AltitudeMeters>
            <DistanceMeters>NAN</DistanceMeters>
          </Trackpoint>
          <Trackpoint>
            <Time>2022-07-12T12:01:01.000Z</Time>
            <Position>
              <LatitudeDegrees>43.2647242583334445953369140625</LatitudeDegrees>
              <LongitudeDegrees>-2.95337355695664882659912109375</LongitudeDegrees>
            </Position>
            <AltitudeMeters>-59.59999847412109375</AltitudeMeters>
            <DistanceMeters>NAN</DistanceMeters>
          </Trackpoint>
          <Trackpoint>
            <Time>2022-07-12T12:01:03.000Z</Time>
            <Position>
              <LatitudeDegrees>43.26469399966299533843994140625</LatitudeDegrees>
              <LongitudeDegrees>-2.95342401601374149322509765625</LongitudeDegrees>
            </Position>
            <AltitudeMeters>-59.200000762939453125</AltitudeMeters>
            <DistanceMeters>NAN</DistanceMeters>
          </Trackpoint>
          <Trackpoint>
            <Time>2022-07-12T12:01:04.000Z</Time>
            <Position>
              <LatitudeDegrees>43.26467757113277912139892578125</LatitudeDegrees>
              <LongitudeDegrees>-2.95344882644712924957275390625</LongitudeDegrees>
            </Position>
            <AltitudeMeters>-59</AltitudeMeters>
            <DistanceMeters>NAN</DistanceMeters>
          </Trackpoint>
          <Trackpoint>
            <Time>2022-07-12T12:01:05.000Z</Time>
            <Position>
              <LatitudeDegrees>43.264661394059658050537109375</LatitudeDegrees>
              <LongitudeDegrees>-2.9534750618040561676025390625</LongitudeDegrees>
            </Position>
            <AltitudeMeters>-58.799999237060546875</AltitudeMeters>
            <DistanceMeters>NAN</DistanceMeters>
          </Trackpoint>
          <Trackpoint>
            <Time>2022-07-12T12:01:07.000Z</Time>
            <Position>
              <LatitudeDegrees>43.2646344043314456939697265625</LatitudeDegrees>
              <LongitudeDegrees>-2.95353314839303493499755859375</LongitudeDegrees>
            </Position>
            <AltitudeMeters>-58.40000152587890625</AltitudeMeters>
            <DistanceMeters>NAN</DistanceMeters>
          </Trackpoint>
          <Trackpoint>
            <Time>2022-07-12T12:01:09.000Z</Time>
            <Position>
              <LatitudeDegrees>43.2646132819354534149169921875</LatitudeDegrees>
              <LongitudeDegrees>-2.95358645729720592498779296875</LongitudeDegrees>
            </Position>
            <AltitudeMeters>-58.200000762939453125</AltitudeMeters>
            <DistanceMeters>NAN</DistanceMeters>
          </Trackpoint>
          <Trackpoint>
            <Time>2022-07-12T12:01:12.000Z</Time>
            <Position>
              <LatitudeDegrees>43.264586292207241058349609375</LatitudeDegrees>
              <LongitudeDegrees>-2.953649573028087615966796875</LongitudeDegrees>
            </Position>
            <AltitudeMeters>-57.59999847412109375</AltitudeMeters>
            <DistanceMeters>NAN</DistanceMeters>
          </Trackpoint>
          <Trackpoint>
            <Time>2022-07-12T12:01:14.000Z</Time>
            <Position>
              <LatitudeDegrees>43.26456391252577304840087890625</LatitudeDegrees>
              <LongitudeDegrees>-2.9536903090775012969970703125</LongitudeDegrees>
            </Position>
            <AltitudeMeters>-57.40000152587890625</AltitudeMeters>
            <DistanceMeters>NAN</DistanceMeters>
          </Trackpoint>
          <Trackpoint>
            <Time>2022-07-12T12:01:17.000Z</Time>
            <Position>
              <LatitudeDegrees>43.26452904380857944488525390625</LatitudeDegrees>
              <LongitudeDegrees>-2.953752167522907257080078125</LongitudeDegrees>
            </Position>
            <AltitudeMeters>-57.40000152587890625</AltitudeMeters>
            <DistanceMeters>NAN</DistanceMeters>
          </Trackpoint>
          <Trackpoint>
            <Time>2022-07-12T12:01:22.000Z</Time>
            <Position>
              <LatitudeDegrees>43.26450373046100139617919921875</LatitudeDegrees>
              <LongitudeDegrees>-2.953876554965972900390625</LongitudeDegrees>
            </Position>
            <AltitudeMeters>-57</AltitudeMeters>
            <DistanceMeters>NAN</DistanceMeters>
          </Trackpoint>
          <Trackpoint>
            <Time>2022-07-12T12:01:26.000Z</Time>
            <Position>
              <LatitudeDegrees>43.2645126990973949432373046875</LatitudeDegrees>
              <LongitudeDegrees>-2.9539796523749828338623046875</LongitudeDegrees>
            </Position>
            <AltitudeMeters>-56.799999237060546875</AltitudeMeters>
            <DistanceMeters>NAN</DistanceMeters>
          </Trackpoint>
          <Trackpoint>
            <Time>2022-07-12T12:01:27.000Z</Time>
            <Position>
              <LatitudeDegrees>43.26451010070741176605224609375</LatitudeDegrees>
              <LongitudeDegrees>-2.95400085859000682830810546875</LongitudeDegrees>
            </Position>
            <AltitudeMeters>-56.59999847412109375</AltitudeMeters>
            <DistanceMeters>NAN</DistanceMeters>
          </Trackpoint>
          <Trackpoint>
            <Time>2022-07-12T12:01:29.000Z</Time>
            <Position>
              <LatitudeDegrees>43.2645046524703502655029296875</LatitudeDegrees>
              <LongitudeDegrees>-2.95404243282973766326904296875</LongitudeDegrees>
            </Position>
            <AltitudeMeters>-56.40000152587890625</AltitudeMeters>
            <DistanceMeters>NAN</DistanceMeters>
          </Trackpoint>
          <Trackpoint>
            <Time>2022-07-12T12:01:35.000Z</Time>
            <Position>
              <LatitudeDegrees>43.2644865475594997406005859375</LatitudeDegrees>
              <LongitudeDegrees>-2.95417956076562404632568359375</LongitudeDegrees>
            </Position>
            <AltitudeMeters>-56</AltitudeMeters>
            <DistanceMeters>NAN</DistanceMeters>
          </Trackpoint>
          <Trackpoint>
            <Time>2022-07-12T12:01:39.000Z</Time>
            <Position>
              <LatitudeDegrees>43.26449342072010040283203125</LatitudeDegrees>
              <LongitudeDegrees>-2.95426337979733943939208984375</LongitudeDegrees>
            </Position>
            <AltitudeMeters>-55.59999847412109375</AltitudeMeters>
            <DistanceMeters>NAN</DistanceMeters>
          </Trackpoint>
          <Trackpoint>
            <Time>2022-07-12T12:01:45.000Z</Time>
            <Position>
              <LatitudeDegrees>43.26448311097919940948486328125</LatitudeDegrees>
              <LongitudeDegrees>-2.95439849607646465301513671875</LongitudeDegrees>
            </Position>
            <AltitudeMeters>-54.799999237060546875</AltitudeMeters>
            <DistanceMeters>NAN</DistanceMeters>
          </Trackpoint>
          <Trackpoint>
            <Time>2022-07-12T12:01:52.000Z</Time>
            <Position>
              <LatitudeDegrees>43.2644607312977313995361328125</LatitudeDegrees>
              <LongitudeDegrees>-2.95458004809916019439697265625</LongitudeDegrees>
            </Position>
            <AltitudeMeters>-54.799999237060546875</AltitudeMeters>
            <DistanceMeters>NAN</DistanceMeters>
          </Trackpoint>
          <Trackpoint>
            <Time>2022-07-12T12:01:54.000Z</Time>
            <Position>
              <LatitudeDegrees>43.26445528306066989898681640625</LatitudeDegrees>
              <LongitudeDegrees>-2.95463168062269687652587890625</LongitudeDegrees>
            </Position>
            <AltitudeMeters>-54.59999847412109375</AltitudeMeters>
            <DistanceMeters>NAN</DistanceMeters>
          </Trackpoint>
          <Trackpoint>
            <Time>2022-07-12T12:02:00.000Z</Time>
            <Position>
              <LatitudeDegrees>43.264430724084377288818359375</LatitudeDegrees>
              <LongitudeDegrees>-2.95480568893253803253173828125</LongitudeDegrees>
            </Position>
            <AltitudeMeters>-54</AltitudeMeters>
            <DistanceMeters>NAN</DistanceMeters>
          </Trackpoint>
          <Trackpoint>
            <Time>2022-07-12T12:02:05.000Z</Time>
            <Position>
              <LatitudeDegrees>43.26442510820925235748291015625</LatitudeDegrees>
              <LongitudeDegrees>-2.9549908451735973358154296875</LongitudeDegrees>
            </Position>
            <AltitudeMeters>-54.200000762939453125</AltitudeMeters>
            <DistanceMeters>NAN</DistanceMeters>
          </Trackpoint>
          <Trackpoint>
            <Time>2022-07-12T12:02:06.000Z</Time>
            <Position>
              <LatitudeDegrees>43.26442628167569637298583984375</LatitudeDegrees>
              <LongitudeDegrees>-2.955025546252727508544921875</LongitudeDegrees>
            </Position>
            <AltitudeMeters>-54.200000762939453125</AltitudeMeters>
            <DistanceMeters>NAN</DistanceMeters>
          </Trackpoint>
          <Trackpoint>
            <Time>2022-07-12T12:02:10.000Z</Time>
            <Position>
              <LatitudeDegrees>43.26442309655249118804931640625</LatitudeDegrees>
              <LongitudeDegrees>-2.95517667196691036224365234375</LongitudeDegrees>
            </Position>
            <AltitudeMeters>-54.200000762939453125</AltitudeMeters>
            <DistanceMeters>NAN</DistanceMeters>
          </Trackpoint>
          <Trackpoint>
            <Time>2022-07-12T12:02:13.000Z</Time>
            <Position>
              <LatitudeDegrees>43.26443080790340900421142578125</LatitudeDegrees>
              <LongitudeDegrees>-2.95528940856456756591796875</LongitudeDegrees>
            </Position>
            <AltitudeMeters>-54.59999847412109375</AltitudeMeters>
            <DistanceMeters>NAN</DistanceMeters>
          </Trackpoint>
          <Trackpoint>
            <Time>2022-07-12T12:02:15.000Z</Time>
            <Position>
              <LatitudeDegrees>43.264431059360504150390625</LatitudeDegrees>
              <LongitudeDegrees>-2.9553700424730777740478515625</LongitudeDegrees>
            </Position>
            <AltitudeMeters>-54.59999847412109375</AltitudeMeters>
            <DistanceMeters>NAN</DistanceMeters>
          </Trackpoint>
          <Trackpoint>
            <Time>2022-07-12T12:02:20.000Z</Time>
            <Position>
              <LatitudeDegrees>43.2644510082900524139404296875</LatitudeDegrees>
              <LongitudeDegrees>-2.95561705715954303741455078125</LongitudeDegrees>
            </Position>
            <AltitudeMeters>-55.200000762939453125</AltitudeMeters>
            <DistanceMeters>NAN</DistanceMeters>
          </Trackpoint>
          <Trackpoint>
            <Time>2022-07-12T12:02:21.000Z</Time>
            <Position>
              <LatitudeDegrees>43.26444606296718120574951171875</LatitudeDegrees>
              <LongitudeDegrees>-2.95568193309009075164794921875</LongitudeDegrees>
            </Position>
            <AltitudeMeters>-55.200000762939453125</AltitudeMeters>
            <DistanceMeters>NAN</DistanceMeters>
          </Trackpoint>
          <Trackpoint>
            <Time>2022-07-12T12:02:27.000Z</Time>
            <Position>
              <LatitudeDegrees>43.2644744776189327239990234375</LatitudeDegrees>
              <LongitudeDegrees>-2.956030704081058502197265625</LongitudeDegrees>
            </Position>
            <AltitudeMeters>-55.40000152587890625</AltitudeMeters>
            <DistanceMeters>NAN</DistanceMeters>
          </Trackpoint>
          <Trackpoint>
            <Time>2022-07-12T12:02:28.000Z</Time>
            <Position>
              <LatitudeDegrees>43.26448361389338970184326171875</LatitudeDegrees>
              <LongitudeDegrees>-2.9560905508697032928466796875</LongitudeDegrees>
            </Position>
            <AltitudeMeters>-55.59999847412109375</AltitudeMeters>
            <DistanceMeters>NAN</DistanceMeters>
          </Trackpoint>
          <Trackpoint>
            <Time>2022-07-12T12:02:37.000Z</Time>
            <Position>
              <LatitudeDegrees>43.26455804519355297088623046875</LatitudeDegrees>
              <LongitudeDegrees>-2.9566528089344501495361328125</LongitudeDegrees>
            </Position>
            <AltitudeMeters>-56</AltitudeMeters>
            <DistanceMeters>NAN</DistanceMeters>
          </Trackpoint>
          <Trackpoint>
            <Time>2022-07-12T12:02:40.000Z</Time>
            <Position>
              <LatitudeDegrees>43.2645730488002300262451171875</LatitudeDegrees>
              <LongitudeDegrees>-2.9567694850265979766845703125</LongitudeDegrees>
            </Position>
            <AltitudeMeters>-56.799999237060546875</AltitudeMeters>
            <DistanceMeters>NAN</DistanceMeters>
          </Trackpoint>
          <Trackpoint>
            <Time>2022-07-12T12:02:41.000Z</Time>
            <Position>
              <LatitudeDegrees>43.26457682065665721893310546875</LatitudeDegrees>
              <LongitudeDegrees>-2.9568043537437915802001953125</LongitudeDegrees>
            </Position>
            <AltitudeMeters>-57</AltitudeMeters>
            <DistanceMeters>NAN</DistanceMeters>
          </Trackpoint>
          <Trackpoint>
            <Time>2022-07-12T12:02:48.000Z</Time>
            <Position>
              <LatitudeDegrees>43.2646049000322818756103515625</LatitudeDegrees>
              <LongitudeDegrees>-2.95703963376581668853759765625</LongitudeDegrees>
            </Position>
            <AltitudeMeters>-57.40000152587890625</AltitudeMeters>
            <DistanceMeters>NAN</DistanceMeters>
          </Trackpoint>
          <Trackpoint>
            <Time>2022-07-12T12:02:52.000Z</Time>
            <Position>
              <LatitudeDegrees>43.26461504213511943817138671875</LatitudeDegrees>
              <LongitudeDegrees>-2.95718573033809661865234375</LongitudeDegrees>
            </Position>
            <AltitudeMeters>-57.40000152587890625</AltitudeMeters>
            <DistanceMeters>NAN</DistanceMeters>
          </Trackpoint>
          <Trackpoint>
            <Time>2022-07-12T12:02:55.000Z</Time>
            <Position>
              <LatitudeDegrees>43.26462493278086185455322265625</LatitudeDegrees>
              <LongitudeDegrees>-2.95730508863925933837890625</LongitudeDegrees>
            </Position>
            <AltitudeMeters>-57.40000152587890625</AltitudeMeters>
            <DistanceMeters>NAN</DistanceMeters>
          </Trackpoint>
          <Trackpoint>
            <Time>2022-07-12T12:02:58.000Z</Time>
            <Position>
              <LatitudeDegrees>43.2646437920629978179931640625</LatitudeDegrees>
              <LongitudeDegrees>-2.95744045637547969818115234375</LongitudeDegrees>
            </Position>
            <AltitudeMeters>-57.59999847412109375</AltitudeMeters>
            <DistanceMeters>NAN</DistanceMeters>
          </Trackpoint>
          <Trackpoint>
            <Time>2022-07-12T12:03:00.000Z</Time>
            <Position>
              <LatitudeDegrees>43.2646577060222625732421875</LatitudeDegrees>
              <LongitudeDegrees>-2.9575372673571109771728515625</LongitudeDegrees>
            </Position>
            <AltitudeMeters>-57.799999237060546875</AltitudeMeters>
            <DistanceMeters>NAN</DistanceMeters>
          </Trackpoint>
          <Trackpoint>
            <Time>2022-07-12T12:03:02.000Z</Time>
            <Position>
              <LatitudeDegrees>43.26466868631541728973388671875</LatitudeDegrees>
              <LongitudeDegrees>-2.95763491652905941009521484375</LongitudeDegrees>
            </Position>
            <AltitudeMeters>-57.799999237060546875</AltitudeMeters>
            <DistanceMeters>NAN</DistanceMeters>
          </Trackpoint>
          <Trackpoint>
            <Time>2022-07-12T12:03:05.000Z</Time>
            <Position>
              <LatitudeDegrees>43.26468343846499919891357421875</LatitudeDegrees>
              <LongitudeDegrees>-2.95777908526360988616943359375</LongitudeDegrees>
            </Position>
            <AltitudeMeters>-58</AltitudeMeters>
            <DistanceMeters>NAN</DistanceMeters>
          </Trackpoint>
          <Trackpoint>
            <Time>2022-07-12T12:03:14.000Z</Time>
            <Position>
              <LatitudeDegrees>43.2647450454533100128173828125</LatitudeDegrees>
              <LongitudeDegrees>-2.95825861394405364990234375</LongitudeDegrees>
            </Position>
            <AltitudeMeters>-58.200000762939453125</AltitudeMeters>
            <DistanceMeters>NAN</DistanceMeters>
          </Trackpoint>
          <Trackpoint>
            <Time>2022-07-12T12:03:19.000Z</Time>
            <Position>
              <LatitudeDegrees>43.26477128081023693084716796875</LatitudeDegrees>
              <LongitudeDegrees>-2.9585953988134860992431640625</LongitudeDegrees>
            </Position>
            <AltitudeMeters>-58</AltitudeMeters>
            <DistanceMeters>NAN</DistanceMeters>
          </Trackpoint>
          <Trackpoint>
            <Time>2022-07-12T12:03:21.000Z</Time>
            <Position>
              <LatitudeDegrees>43.26479609124362468719482421875</LatitudeDegrees>
              <LongitudeDegrees>-2.95872691087424755096435546875</LongitudeDegrees>
            </Position>
            <AltitudeMeters>-57.799999237060546875</AltitudeMeters>
            <DistanceMeters>NAN</DistanceMeters>
          </Trackpoint>
          <Trackpoint>
            <Time>2022-07-12T12:03:23.000Z</Time>
            <Position>
              <LatitudeDegrees>43.264830373227596282958984375</LatitudeDegrees>
              <LongitudeDegrees>-2.95881592668592929840087890625</LongitudeDegrees>
            </Position>
            <AltitudeMeters>-57.799999237060546875</AltitudeMeters>
            <DistanceMeters>NAN</DistanceMeters>
          </Trackpoint>
          <Trackpoint>
            <Time>2022-07-12T12:03:24.000Z</Time>
            <Position>
              <LatitudeDegrees>43.2648566924035549163818359375</LatitudeDegrees>
              <LongitudeDegrees>-2.9588532261550426483154296875</LongitudeDegrees>
            </Position>
            <AltitudeMeters>-57.59999847412109375</AltitudeMeters>
            <DistanceMeters>NAN</DistanceMeters>
          </Trackpoint>
          <Trackpoint>
            <Time>2022-07-12T12:03:26.000Z</Time>
            <Position>
              <LatitudeDegrees>43.2649086602032184600830078125</LatitudeDegrees>
              <LongitudeDegrees>-2.958922795951366424560546875</LongitudeDegrees>
            </Position>
            <AltitudeMeters>-57.40000152587890625</AltitudeMeters>
            <DistanceMeters>NAN</DistanceMeters>
          </Trackpoint>
          <Trackpoint>
            <Time>2022-07-12T12:03:28.000Z</Time>
            <Position>
              <LatitudeDegrees>43.26495870016515254974365234375</LatitudeDegrees>
              <LongitudeDegrees>-2.95899161137640476226806640625</LongitudeDegrees>
            </Position>
            <AltitudeMeters>-57.59999847412109375</AltitudeMeters>
            <DistanceMeters>NAN</DistanceMeters>
          </Trackpoint>
          <Trackpoint>
            <Time>2022-07-12T12:03:34.000Z</Time>
            <Position>
              <LatitudeDegrees>43.26506598852574825286865234375</LatitudeDegrees>
              <LongitudeDegrees>-2.9591321758925914764404296875</LongitudeDegrees>
            </Position>
            <AltitudeMeters>-58</AltitudeMeters>
            <DistanceMeters>NAN</DistanceMeters>
          </Trackpoint>
          <Trackpoint>
            <Time>2022-07-12T12:03:43.000Z</Time>
            <Position>
              <LatitudeDegrees>43.2652010209858417510986328125</LatitudeDegrees>
              <LongitudeDegrees>-2.959402240812778472900390625</LongitudeDegrees>
            </Position>
            <AltitudeMeters>-57</AltitudeMeters>
            <DistanceMeters>NAN</DistanceMeters>
          </Trackpoint>
          <Trackpoint>
            <Time>2022-07-12T12:03:44.000Z</Time>
            <Position>
              <LatitudeDegrees>43.2652236521244049072265625</LatitudeDegrees>
              <LongitudeDegrees>-2.95943878591060638427734375</LongitudeDegrees>
            </Position>
            <AltitudeMeters>-56.59999847412109375</AltitudeMeters>
            <DistanceMeters>NAN</DistanceMeters>
          </Trackpoint>
          <Trackpoint>
            <Time>2022-07-12T12:03:52.000Z</Time>
            <Position>
              <LatitudeDegrees>43.2653488777577877044677734375</LatitudeDegrees>
              <LongitudeDegrees>-2.9596967808902263641357421875</LongitudeDegrees>
            </Position>
            <AltitudeMeters>-56.40000152587890625</AltitudeMeters>
            <DistanceMeters>NAN</DistanceMeters>
          </Trackpoint>
          <Trackpoint>
            <Time>2022-07-12T12:03:59.000Z</Time>
            <Position>
              <LatitudeDegrees>43.2654662244021892547607421875</LatitudeDegrees>
              <LongitudeDegrees>-2.9599519260227680206298828125</LongitudeDegrees>
            </Position>
            <AltitudeMeters>-56.40000152587890625</AltitudeMeters>
            <DistanceMeters>NAN</DistanceMeters>
          </Trackpoint>
          <Trackpoint>
            <Time>2022-07-12T12:04:05.000Z</Time>
            <Position>
              <LatitudeDegrees>43.2655708305537700653076171875</LatitudeDegrees>
              <LongitudeDegrees>-2.960195839405059814453125</LongitudeDegrees>
            </Position>
            <AltitudeMeters>-57.200000762939453125</AltitudeMeters>
            <DistanceMeters>NAN</DistanceMeters>
          </Trackpoint>
          <Trackpoint>
            <Time>2022-07-12T12:04:06.000Z</Time>
            <Position>
              <LatitudeDegrees>43.26559421606361865997314453125</LatitudeDegrees>
              <LongitudeDegrees>-2.9602141119539737701416015625</LongitudeDegrees>
            </Position>
            <AltitudeMeters>-57.200000762939453125</AltitudeMeters>
            <DistanceMeters>NAN</DistanceMeters>
          </Trackpoint>
          <Trackpoint>
            <Time>2022-07-12T12:04:12.000Z</Time>
            <Position>
              <LatitudeDegrees>43.2657320983707904815673828125</LatitudeDegrees>
              <LongitudeDegrees>-2.96034864149987697601318359375</LongitudeDegrees>
            </Position>
            <AltitudeMeters>-56.200000762939453125</AltitudeMeters>
            <DistanceMeters>NAN</DistanceMeters>
          </Trackpoint>
          <Trackpoint>
            <Time>2022-07-12T12:04:16.000Z</Time>
            <Position>
              <LatitudeDegrees>43.26583511196076869964599609375</LatitudeDegrees>
              <LongitudeDegrees>-2.9604638926684856414794921875</LongitudeDegrees>
            </Position>
            <AltitudeMeters>-55.59999847412109375</AltitudeMeters>
            <DistanceMeters>NAN</DistanceMeters>
          </Trackpoint>
          <Trackpoint>
            <Time>2022-07-12T12:04:18.000Z</Time>
            <Position>
              <LatitudeDegrees>43.2658725790679454803466796875</LatitudeDegrees>
              <LongitudeDegrees>-2.9605125077068805694580078125</LongitudeDegrees>
            </Position>
            <AltitudeMeters>-55.40000152587890625</AltitudeMeters>
            <DistanceMeters>NAN</DistanceMeters>
          </Trackpoint>
          <Trackpoint>
            <Time>2022-07-12T12:04:21.000Z</Time>
            <Position>
              <LatitudeDegrees>43.2659451663494110107421875</LatitudeDegrees>
              <LongitudeDegrees>-2.96062256209552288055419921875</LongitudeDegrees>
            </Position>
            <AltitudeMeters>-55.200000762939453125</AltitudeMeters>
            <DistanceMeters>NAN</DistanceMeters>
          </Trackpoint>
          <Trackpoint>
            <Time>2022-07-12T12:04:25.000Z</Time>
            <Position>
              <LatitudeDegrees>43.266056813299655914306640625</LatitudeDegrees>
              <LongitudeDegrees>-2.96077561564743518829345703125</LongitudeDegrees>
            </Position>
            <AltitudeMeters>-55.200000762939453125</AltitudeMeters>
            <DistanceMeters>NAN</DistanceMeters>
          </Trackpoint>
          <Trackpoint>
            <Time>2022-07-12T12:04:29.000Z</Time>
            <Position>
              <LatitudeDegrees>43.26618832536041736602783203125</LatitudeDegrees>
              <LongitudeDegrees>-2.96091978438198566436767578125</LongitudeDegrees>
            </Position>
            <AltitudeMeters>-55.200000762939453125</AltitudeMeters>
            <DistanceMeters>NAN</DistanceMeters>
          </Trackpoint>
          <Trackpoint>
            <Time>2022-07-12T12:04:33.000Z</Time>
            <Position>
              <LatitudeDegrees>43.26630231924355030059814453125</LatitudeDegrees>
              <LongitudeDegrees>-2.96107635833323001861572265625</LongitudeDegrees>
            </Position>
            <AltitudeMeters>-55.40000152587890625</AltitudeMeters>
            <DistanceMeters>NAN</DistanceMeters>
          </Trackpoint>
          <Trackpoint>
            <Time>2022-07-12T12:04:39.000Z</Time>
            <Position>
              <LatitudeDegrees>43.26648035086691379547119140625</LatitudeDegrees>
              <LongitudeDegrees>-2.961307950317859649658203125</LongitudeDegrees>
            </Position>
            <AltitudeMeters>-55.40000152587890625</AltitudeMeters>
            <DistanceMeters>NAN</DistanceMeters>
          </Trackpoint>
          <Trackpoint>
            <Time>2022-07-12T12:04:47.000Z</Time>
            <Position>
              <LatitudeDegrees>43.26668151654303073883056640625</LatitudeDegrees>
              <LongitudeDegrees>-2.961623780429363250732421875</LongitudeDegrees>
            </Position>
            <AltitudeMeters>-56.40000152587890625</AltitudeMeters>
            <DistanceMeters>NAN</DistanceMeters>
          </Trackpoint>
          <Trackpoint>
            <Time>2022-07-12T12:04:49.000Z</Time>
            <Position>
              <LatitudeDegrees>43.266721330583095550537109375</LatitudeDegrees>
              <LongitudeDegrees>-2.96171321533620357513427734375</LongitudeDegrees>
            </Position>
            <AltitudeMeters>-56.799999237060546875</AltitudeMeters>
            <DistanceMeters>NAN</DistanceMeters>
          </Trackpoint>
          <Trackpoint>
            <Time>2022-07-12T12:04:51.000Z</Time>
            <Position>
              <LatitudeDegrees>43.26677422039210796356201171875</LatitudeDegrees>
              <LongitudeDegrees>-2.96182720921933650970458984375</LongitudeDegrees>
            </Position>
            <AltitudeMeters>-57</AltitudeMeters>
            <DistanceMeters>NAN</DistanceMeters>
          </Trackpoint>
          <Trackpoint>
            <Time>2022-07-12T12:04:53.000Z</Time>
            <Position>
              <LatitudeDegrees>43.2668544352054595947265625</LatitudeDegrees>
              <LongitudeDegrees>-2.9618857987225055694580078125</LongitudeDegrees>
            </Position>
            <AltitudeMeters>-57.59999847412109375</AltitudeMeters>
            <DistanceMeters>NAN</DistanceMeters>
          </Trackpoint>
          <Trackpoint>
            <Time>2022-07-12T12:04:54.000Z</Time>
            <Position>
              <LatitudeDegrees>43.26690129004418849945068359375</LatitudeDegrees>
              <LongitudeDegrees>-2.9618764109909534454345703125</LongitudeDegrees>
            </Position>
            <AltitudeMeters>-58</AltitudeMeters>
            <DistanceMeters>NAN</DistanceMeters>
          </Trackpoint>
          <Trackpoint>
            <Time>2022-07-12T12:04:55.000Z</Time>
            <Position>
              <LatitudeDegrees>43.2669518329203128814697265625</LatitudeDegrees>
              <LongitudeDegrees>-2.9618375189602375030517578125</LongitudeDegrees>
            </Position>
            <AltitudeMeters>-58.40000152587890625</AltitudeMeters>
            <DistanceMeters>NAN</DistanceMeters>
          </Trackpoint>
          <Trackpoint>
            <Time>2022-07-12T12:04:56.000Z</Time>
            <Position>
              <LatitudeDegrees>43.26700069941580295562744140625</LatitudeDegrees>
              <LongitudeDegrees>-2.96179971657693386077880859375</LongitudeDegrees>
            </Position>
            <AltitudeMeters>-58.799999237060546875</AltitudeMeters>
            <DistanceMeters>NAN</DistanceMeters>
          </Trackpoint>
          <Trackpoint>
            <Time>2022-07-12T12:04:57.000Z</Time>
            <Position>
              <LatitudeDegrees>43.26704143546521663665771484375</LatitudeDegrees>
              <LongitudeDegrees>-2.96177767217159271240234375</LongitudeDegrees>
            </Position>
            <AltitudeMeters>-59.200000762939453125</AltitudeMeters>
            <DistanceMeters>NAN</DistanceMeters>
          </Trackpoint>
          <Trackpoint>
            <Time>2022-07-12T12:04:59.000Z</Time>
            <Position>
              <LatitudeDegrees>43.26711150817573070526123046875</LatitudeDegrees>
              <LongitudeDegrees>-2.9618065059185028076171875</LongitudeDegrees>
            </Position>
            <AltitudeMeters>-59.40000152587890625</AltitudeMeters>
            <DistanceMeters>NAN</DistanceMeters>
          </Trackpoint>
          <Trackpoint>
            <Time>2022-07-12T12:05:00.000Z</Time>
            <Position>
              <LatitudeDegrees>43.2671375758945941925048828125</LatitudeDegrees>
              <LongitudeDegrees>-2.9618479125201702117919921875</LongitudeDegrees>
            </Position>
            <AltitudeMeters>-59.40000152587890625</AltitudeMeters>
            <DistanceMeters>NAN</DistanceMeters>
          </Trackpoint>
          <Trackpoint>
            <Time>2022-07-12T12:05:01.000Z</Time>
            <Position>
              <LatitudeDegrees>43.2671575248241424560546875</LatitudeDegrees>
              <LongitudeDegrees>-2.9618928395211696624755859375</LongitudeDegrees>
            </Position>
            <AltitudeMeters>-59.200000762939453125</AltitudeMeters>
            <DistanceMeters>NAN</DistanceMeters>
          </Trackpoint>
          <Trackpoint>
            <Time>2022-07-12T12:05:04.000Z</Time>
            <Position>
              <LatitudeDegrees>43.26720605604350566864013671875</LatitudeDegrees>
              <LongitudeDegrees>-2.96201814897358417510986328125</LongitudeDegrees>
            </Position>
            <AltitudeMeters>-59.200000762939453125</AltitudeMeters>
            <DistanceMeters>NAN</DistanceMeters>
          </Trackpoint>
          <Trackpoint>
            <Time>2022-07-12T12:05:08.000Z</Time>
            <Position>
              <LatitudeDegrees>43.26729591004550457000732421875</LatitudeDegrees>
              <LongitudeDegrees>-2.96214840374886989593505859375</LongitudeDegrees>
            </Position>
            <AltitudeMeters>-59</AltitudeMeters>
            <DistanceMeters>NAN</DistanceMeters>
          </Trackpoint>
          <Trackpoint>
            <Time>2022-07-12T12:05:10.000Z</Time>
            <Position>
              <LatitudeDegrees>43.26734192669391632080078125</LatitudeDegrees>
              <LongitudeDegrees>-2.96221780590713024139404296875</LongitudeDegrees>
            </Position>
            <AltitudeMeters>-58.799999237060546875</AltitudeMeters>
            <DistanceMeters>NAN</DistanceMeters>
          </Trackpoint>
          <Trackpoint>
            <Time>2022-07-12T12:05:16.000Z</Time>
            <Position>
              <LatitudeDegrees>43.26747603714466094970703125</LatitudeDegrees>
              <LongitudeDegrees>-2.96242500655353069305419921875</LongitudeDegrees>
            </Position>
            <AltitudeMeters>-59.200000762939453125</AltitudeMeters>
            <DistanceMeters>NAN</DistanceMeters>
          </Trackpoint>
          <Trackpoint>
            <Time>2022-07-12T12:05:20.000Z</Time>
            <Position>
              <LatitudeDegrees>43.2675767876207828521728515625</LatitudeDegrees>
              <LongitudeDegrees>-2.96257437206804752349853515625</LongitudeDegrees>
            </Position>
            <AltitudeMeters>-59.40000152587890625</AltitudeMeters>
            <DistanceMeters>NAN</DistanceMeters>
          </Trackpoint>
          <Trackpoint>
            <Time>2022-07-12T12:05:23.000Z</Time>
            <Position>
              <LatitudeDegrees>43.26765046454966068267822265625</LatitudeDegrees>
              <LongitudeDegrees>-2.96271921135485172271728515625</LongitudeDegrees>
            </Position>
            <AltitudeMeters>-59.59999847412109375</AltitudeMeters>
            <DistanceMeters>NAN</DistanceMeters>
          </Trackpoint>
          <Trackpoint>
            <Time>2022-07-12T12:05:24.000Z</Time>
            <Position>
              <LatitudeDegrees>43.26767795719206333160400390625</LatitudeDegrees>
              <LongitudeDegrees>-2.96276514418423175811767578125</LongitudeDegrees>
            </Position>
            <AltitudeMeters>-59.59999847412109375</AltitudeMeters>
            <DistanceMeters>NAN</DistanceMeters>
          </Trackpoint>
          <Trackpoint>
            <Time>2022-07-12T12:05:27.000Z</Time>
            <Position>
              <LatitudeDegrees>43.2677575014531612396240234375</LatitudeDegrees>
              <LongitudeDegrees>-2.9628973267972469329833984375</LongitudeDegrees>
            </Position>
            <AltitudeMeters>-59.799999237060546875</AltitudeMeters>
            <DistanceMeters>NAN</DistanceMeters>
          </Trackpoint>
          <Trackpoint>
            <Time>2022-07-12T12:05:30.000Z</Time>
            <Position>
              <LatitudeDegrees>43.26785699464380741119384765625</LatitudeDegrees>
              <LongitudeDegrees>-2.96301643364131450653076171875</LongitudeDegrees>
            </Position>
            <AltitudeMeters>-60</AltitudeMeters>
            <DistanceMeters>NAN</DistanceMeters>
          </Trackpoint>
          <Trackpoint>
            <Time>2022-07-12T12:05:36.000Z</Time>
            <Position>
              <LatitudeDegrees>43.26808917336165904998779296875</LatitudeDegrees>
              <LongitudeDegrees>-2.9631977342069149017333984375</LongitudeDegrees>
            </Position>
            <AltitudeMeters>-58.59999847412109375</AltitudeMeters>
            <DistanceMeters>NAN</DistanceMeters>
          </Trackpoint>
          <Trackpoint>
            <Time>2022-07-12T12:05:39.000Z</Time>
            <Position>
              <LatitudeDegrees>43.26818170957267284393310546875</LatitudeDegrees>
              <LongitudeDegrees>-2.96327208168804645538330078125</LongitudeDegrees>
            </Position>
            <AltitudeMeters>-58.59999847412109375</AltitudeMeters>
            <DistanceMeters>NAN</DistanceMeters>
          </Trackpoint>
          <Trackpoint>
            <Time>2022-07-12T12:05:41.000Z</Time>
            <Position>
              <LatitudeDegrees>43.26823250390589237213134765625</LatitudeDegrees>
              <LongitudeDegrees>-2.96332974918186664581298828125</LongitudeDegrees>
            </Position>
            <AltitudeMeters>-58.799999237060546875</AltitudeMeters>
            <DistanceMeters>NAN</DistanceMeters>
          </Trackpoint>
          <Trackpoint>
            <Time>2022-07-12T12:05:45.000Z</Time>
            <Position>
              <LatitudeDegrees>43.2683368586003780364990234375</LatitudeDegrees>
              <LongitudeDegrees>-2.96343804337084293365478515625</LongitudeDegrees>
            </Position>
            <AltitudeMeters>-59.40000152587890625</AltitudeMeters>
            <DistanceMeters>NAN</DistanceMeters>
          </Trackpoint>
          <Trackpoint>
            <Time>2022-07-12T12:05:54.000Z</Time>
            <Position>
              <LatitudeDegrees>43.2685966975986957550048828125</LatitudeDegrees>
              <LongitudeDegrees>-2.9637009836733341217041015625</LongitudeDegrees>
            </Position>
            <AltitudeMeters>-59.799999237060546875</AltitudeMeters>
            <DistanceMeters>NAN</DistanceMeters>
          </Trackpoint>
          <Trackpoint>
            <Time>2022-07-12T12:06:04.000Z</Time>
            <Position>
              <LatitudeDegrees>43.26888822019100189208984375</LatitudeDegrees>
              <LongitudeDegrees>-2.96401672996580600738525390625</LongitudeDegrees>
            </Position>
            <AltitudeMeters>-59.59999847412109375</AltitudeMeters>
            <DistanceMeters>NAN</DistanceMeters>
          </Trackpoint>
          <Trackpoint>
            <Time>2022-07-12T12:06:05.000Z</Time>
            <Position>
              <LatitudeDegrees>43.26891998760402202606201171875</LatitudeDegrees>
              <LongitudeDegrees>-2.964047826826572418212890625</LongitudeDegrees>
            </Position>
            <AltitudeMeters>-59.59999847412109375</AltitudeMeters>
            <DistanceMeters>NAN</DistanceMeters>
          </Trackpoint>
          <Trackpoint>
            <Time>2022-07-12T12:06:13.000Z</Time>
            <Position>
              <LatitudeDegrees>43.2691492326557636260986328125</LatitudeDegrees>
              <LongitudeDegrees>-2.96428444795310497283935546875</LongitudeDegrees>
            </Position>
            <AltitudeMeters>-59.59999847412109375</AltitudeMeters>
            <DistanceMeters>NAN</DistanceMeters>
          </Trackpoint>
          <Trackpoint>
            <Time>2022-07-12T12:06:20.000Z</Time>
            <Position>
              <LatitudeDegrees>43.26932852156460285186767578125</LatitudeDegrees>
              <LongitudeDegrees>-2.964519560337066650390625</LongitudeDegrees>
            </Position>
            <AltitudeMeters>-59.40000152587890625</AltitudeMeters>
            <DistanceMeters>NAN</DistanceMeters>
          </Trackpoint>
          <Trackpoint>
            <Time>2022-07-12T12:06:21.000Z</Time>
            <Position>
              <LatitudeDegrees>43.2693685032427310943603515625</LatitudeDegrees>
              <LongitudeDegrees>-2.96454797498881816864013671875</LongitudeDegrees>
            </Position>
            <AltitudeMeters>-59.40000152587890625</AltitudeMeters>
            <DistanceMeters>NAN</DistanceMeters>
          </Trackpoint>
          <Trackpoint>
            <Time>2022-07-12T12:06:25.000Z</Time>
            <Position>
              <LatitudeDegrees>43.26951107941567897796630859375</LatitudeDegrees>
              <LongitudeDegrees>-2.9646659083664417266845703125</LongitudeDegrees>
            </Position>
            <AltitudeMeters>-59</AltitudeMeters>
            <DistanceMeters>NAN</DistanceMeters>
          </Trackpoint>
          <Trackpoint>
            <Time>2022-07-12T12:06:29.000Z</Time>
            <Position>
              <LatitudeDegrees>43.26965256594121456146240234375</LatitudeDegrees>
              <LongitudeDegrees>-2.964800186455249786376953125</LongitudeDegrees>
            </Position>
            <AltitudeMeters>-59</AltitudeMeters>
            <DistanceMeters>NAN</DistanceMeters>
          </Trackpoint>
          <Trackpoint>
            <Time>2022-07-12T12:06:32.000Z</Time>
            <Position>
              <LatitudeDegrees>43.26975348405539989471435546875</LatitudeDegrees>
              <LongitudeDegrees>-2.96489196829497814178466796875</LongitudeDegrees>
            </Position>
            <AltitudeMeters>-59.200000762939453125</AltitudeMeters>
            <DistanceMeters>NAN</DistanceMeters>
          </Trackpoint>
          <Trackpoint>
            <Time>2022-07-12T12:06:34.000Z</Time>
            <Position>
              <LatitudeDegrees>43.26981903053820133209228515625</LatitudeDegrees>
              <LongitudeDegrees>-2.9649461992084980010986328125</LongitudeDegrees>
            </Position>
            <AltitudeMeters>-59.200000762939453125</AltitudeMeters>
            <DistanceMeters>NAN</DistanceMeters>
          </Trackpoint>
          <Trackpoint>
            <Time>2022-07-12T12:06:37.000Z</Time>
            <Position>
              <LatitudeDegrees>43.26990921981632709503173828125</LatitudeDegrees>
              <LongitudeDegrees>-2.96501250006258487701416015625</LongitudeDegrees>
            </Position>
            <AltitudeMeters>-59.40000152587890625</AltitudeMeters>
            <DistanceMeters>NAN</DistanceMeters>
          </Trackpoint>
          <Trackpoint>
            <Time>2022-07-12T12:06:39.000Z</Time>
            <Position>
              <LatitudeDegrees>43.26991508714854717254638671875</LatitudeDegrees>
              <LongitudeDegrees>-2.965014763176441192626953125</LongitudeDegrees>
            </Position>
            <AltitudeMeters>-59.59999847412109375</AltitudeMeters>
            <DistanceMeters>NAN</DistanceMeters>
          </Trackpoint>
          <Trackpoint>
            <Time>2022-07-12T12:06:43.000Z</Time>
            <Position>
              <LatitudeDegrees>43.26993218623101711273193359375</LatitudeDegrees>
              <LongitudeDegrees>-2.96502716839313507080078125</LongitudeDegrees>
            </Position>
            <AltitudeMeters>-60.200000762939453125</AltitudeMeters>
            <DistanceMeters>NAN</DistanceMeters>
          </Trackpoint>
          <Trackpoint>
            <Time>2022-07-12T12:06:44.000Z</Time>
            <Position>
              <LatitudeDegrees>43.26993218623101711273193359375</LatitudeDegrees>
              <LongitudeDegrees>-2.96502716839313507080078125</LongitudeDegrees>
            </Position>
            <AltitudeMeters>-60.40000152587890625</AltitudeMeters>
            <DistanceMeters>NAN</DistanceMeters>
          </Trackpoint>
          <Trackpoint>
            <Time>2022-07-12T12:06:45.000Z</Time>
            <Position>
              <LatitudeDegrees>43.26993218623101711273193359375</LatitudeDegrees>
              <LongitudeDegrees>-2.96502716839313507080078125</LongitudeDegrees>
            </Position>
            <AltitudeMeters>-60.59999847412109375</AltitudeMeters>
            <DistanceMeters>NAN</DistanceMeters>
          </Trackpoint>
          <Trackpoint>
            <Time>2022-07-12T12:07:13.000Z</Time>
            <Position>
              <LatitudeDegrees>43.26997107826173305511474609375</LatitudeDegrees>
              <LongitudeDegrees>-2.965053655207157135009765625</LongitudeDegrees>
            </Position>
            <AltitudeMeters>-59.59999847412109375</AltitudeMeters>
            <DistanceMeters>NAN</DistanceMeters>
          </Trackpoint>
          <Trackpoint>
            <Time>2022-07-12T12:07:14.000Z</Time>
            <Position>
              <LatitudeDegrees>43.26999722979962825775146484375</LatitudeDegrees>
              <LongitudeDegrees>-2.96507050283253192901611328125</LongitudeDegrees>
            </Position>
            <AltitudeMeters>-59.40000152587890625</AltitudeMeters>
            <DistanceMeters>NAN</DistanceMeters>
          </Trackpoint>
          <Trackpoint>
            <Time>2022-07-12T12:07:16.000Z</Time>
            <Position>
              <LatitudeDegrees>43.270052969455718994140625</LatitudeDegrees>
              <LongitudeDegrees>-2.96510838903486728668212890625</LongitudeDegrees>
            </Position>
            <AltitudeMeters>-59.40000152587890625</AltitudeMeters>
            <DistanceMeters>NAN</DistanceMeters>
          </Trackpoint>
          <Trackpoint>
            <Time>2022-07-12T12:07:20.000Z</Time>
            <Position>
              <LatitudeDegrees>43.27017006464302539825439453125</LatitudeDegrees>
              <LongitudeDegrees>-2.96518852002918720245361328125</LongitudeDegrees>
            </Position>
            <AltitudeMeters>-59.200000762939453125</AltitudeMeters>
            <DistanceMeters>NAN</DistanceMeters>
          </Trackpoint>
          <Trackpoint>
            <Time>2022-07-12T12:07:25.000Z</Time>
            <Position>
              <LatitudeDegrees>43.27033686451613903045654296875</LatitudeDegrees>
              <LongitudeDegrees>-2.96528994105756282806396484375</LongitudeDegrees>
            </Position>
            <AltitudeMeters>-58.59999847412109375</AltitudeMeters>
            <DistanceMeters>NAN</DistanceMeters>
          </Trackpoint>
          <Trackpoint>
            <Time>2022-07-12T12:07:31.000Z</Time>
            <Position>
              <LatitudeDegrees>43.27056937851011753082275390625</LatitudeDegrees>
              <LongitudeDegrees>-2.96543410979211330413818359375</LongitudeDegrees>
            </Position>
            <AltitudeMeters>-58.59999847412109375</AltitudeMeters>
            <DistanceMeters>NAN</DistanceMeters>
          </Trackpoint>
          <Trackpoint>
            <Time>2022-07-12T12:07:36.000Z</Time>
            <Position>
              <LatitudeDegrees>43.27076853252947330474853515625</LatitudeDegrees>
              <LongitudeDegrees>-2.96554357744753360748291015625</LongitudeDegrees>
            </Position>
            <AltitudeMeters>-58.59999847412109375</AltitudeMeters>
            <DistanceMeters>NAN</DistanceMeters>
          </Trackpoint>
          <Trackpoint>
            <Time>2022-07-12T12:07:40.000Z</Time>
            <Position>
              <LatitudeDegrees>43.27092192135751247406005859375</LatitudeDegrees>
              <LongitudeDegrees>-2.9656301625072956085205078125</LongitudeDegrees>
            </Position>
            <AltitudeMeters>-58.799999237060546875</AltitudeMeters>
            <DistanceMeters>NAN</DistanceMeters>
          </Trackpoint>
          <Trackpoint>
            <Time>2022-07-12T12:07:48.000Z</Time>
            <Position>
              <LatitudeDegrees>43.27121595852077007293701171875</LatitudeDegrees>
              <LongitudeDegrees>-2.96579654328525066375732421875</LongitudeDegrees>
            </Position>
            <AltitudeMeters>-58.40000152587890625</AltitudeMeters>
            <DistanceMeters>NAN</DistanceMeters>
          </Trackpoint>
          <Trackpoint>
            <Time>2022-07-12T12:07:49.000Z</Time>
            <Position>
              <LatitudeDegrees>43.271249569952487945556640625</LatitudeDegrees>
              <LongitudeDegrees>-2.96582101844251155853271484375</LongitudeDegrees>
            </Position>
            <AltitudeMeters>-58.40000152587890625</AltitudeMeters>
            <DistanceMeters>NAN</DistanceMeters>
          </Trackpoint>
          <Trackpoint>
            <Time>2022-07-12T12:07:58.000Z</Time>
            <Position>
              <LatitudeDegrees>43.271579481661319732666015625</LatitudeDegrees>
              <LongitudeDegrees>-2.966013215482234954833984375</LongitudeDegrees>
            </Position>
            <AltitudeMeters>-58.59999847412109375</AltitudeMeters>
            <DistanceMeters>NAN</DistanceMeters>
          </Trackpoint>
          <Trackpoint>
            <Time>2022-07-12T12:08:06.000Z</Time>
            <Position>
              <LatitudeDegrees>43.2718951441347599029541015625</LatitudeDegrees>
              <LongitudeDegrees>-2.96619870699942111968994140625</LongitudeDegrees>
            </Position>
            <AltitudeMeters>-58</AltitudeMeters>
            <DistanceMeters>NAN</DistanceMeters>
          </Trackpoint>
          <Trackpoint>
            <Time>2022-07-12T12:08:09.000Z</Time>
            <Position>
              <LatitudeDegrees>43.27200285159051418304443359375</LatitudeDegrees>
              <LongitudeDegrees>-2.966257631778717041015625</LongitudeDegrees>
            </Position>
            <AltitudeMeters>-58</AltitudeMeters>
            <DistanceMeters>NAN</DistanceMeters>
          </Trackpoint>
          <Trackpoint>
            <Time>2022-07-12T12:08:13.000Z</Time>
            <Position>
              <LatitudeDegrees>43.27212589792907238006591796875</LatitudeDegrees>
              <LongitudeDegrees>-2.96633298508822917938232421875</LongitudeDegrees>
            </Position>
            <AltitudeMeters>-58.40000152587890625</AltitudeMeters>
            <DistanceMeters>NAN</DistanceMeters>
          </Trackpoint>
          <Trackpoint>
            <Time>2022-07-12T12:08:18.000Z</Time>
            <Position>
              <LatitudeDegrees>43.2722827233374118804931640625</LatitudeDegrees>
              <LongitudeDegrees>-2.96643742360174655914306640625</LongitudeDegrees>
            </Position>
            <AltitudeMeters>-58.40000152587890625</AltitudeMeters>
            <DistanceMeters>NAN</DistanceMeters>
          </Trackpoint>
          <Trackpoint>
            <Time>2022-07-12T12:08:22.000Z</Time>
            <Position>
              <LatitudeDegrees>43.2724074460566043853759765625</LatitudeDegrees>
              <LongitudeDegrees>-2.966585196554660797119140625</LongitudeDegrees>
            </Position>
            <AltitudeMeters>-58.200000762939453125</AltitudeMeters>
            <DistanceMeters>NAN</DistanceMeters>
          </Trackpoint>
          <Trackpoint>
            <Time>2022-07-12T12:08:25.000Z</Time>
            <Position>
              <LatitudeDegrees>43.2725023292005062103271484375</LatitudeDegrees>
              <LongitudeDegrees>-2.9666732065379619598388671875</LongitudeDegrees>
            </Position>
            <AltitudeMeters>-58</AltitudeMeters>
            <DistanceMeters>NAN</DistanceMeters>
          </Trackpoint>
          <Trackpoint>
            <Time>2022-07-12T12:08:26.000Z</Time>
            <Position>
              <LatitudeDegrees>43.2725335098803043365478515625</LatitudeDegrees>
              <LongitudeDegrees>-2.96670380048453807830810546875</LongitudeDegrees>
            </Position>
            <AltitudeMeters>-58</AltitudeMeters>
            <DistanceMeters>NAN</DistanceMeters>
          </Trackpoint>
          <Trackpoint>
            <Time>2022-07-12T12:08:35.000Z</Time>
            <Position>
              <LatitudeDegrees>43.272811956703662872314453125</LatitudeDegrees>
              <LongitudeDegrees>-2.96697068028151988983154296875</LongitudeDegrees>
            </Position>
            <AltitudeMeters>-58.200000762939453125</AltitudeMeters>
            <DistanceMeters>NAN</DistanceMeters>
          </Trackpoint>
          <Trackpoint>
            <Time>2022-07-12T12:08:43.000Z</Time>
            <Position>
              <LatitudeDegrees>43.2730964384973049163818359375</LatitudeDegrees>
              <LongitudeDegrees>-2.9672485403716564178466796875</LongitudeDegrees>
            </Position>
            <AltitudeMeters>-59</AltitudeMeters>
            <DistanceMeters>NAN</DistanceMeters>
          </Trackpoint>
          <Trackpoint>
            <Time>2022-07-12T12:08:48.000Z</Time>
            <Position>
              <LatitudeDegrees>43.27323985286056995391845703125</LatitudeDegrees>
              <LongitudeDegrees>-2.9674351215362548828125</LongitudeDegrees>
            </Position>
            <AltitudeMeters>-59.40000152587890625</AltitudeMeters>
            <DistanceMeters>NAN</DistanceMeters>
          </Trackpoint>
          <Trackpoint>
            <Time>2022-07-12T12:08:52.000Z</Time>
            <Position>
              <LatitudeDegrees>43.27333574183285236358642578125</LatitudeDegrees>
              <LongitudeDegrees>-2.96756814233958721160888671875</LongitudeDegrees>
            </Position>
            <AltitudeMeters>-59.59999847412109375</AltitudeMeters>
            <DistanceMeters>NAN</DistanceMeters>
          </Trackpoint>
          <Trackpoint>
            <Time>2022-07-12T12:08:55.000Z</Time>
            <Position>
              <LatitudeDegrees>43.27341184951364994049072265625</LatitudeDegrees>
              <LongitudeDegrees>-2.96767048537731170654296875</LongitudeDegrees>
            </Position>
            <AltitudeMeters>-59.59999847412109375</AltitudeMeters>
            <DistanceMeters>NAN</DistanceMeters>
          </Trackpoint>
          <Trackpoint>
            <Time>2022-07-12T12:09:00.000Z</Time>
            <Position>
              <LatitudeDegrees>43.2735440321266651153564453125</LatitudeDegrees>
              <LongitudeDegrees>-2.96783267520368099212646484375</LongitudeDegrees>
            </Position>
            <AltitudeMeters>-59.59999847412109375</AltitudeMeters>
            <DistanceMeters>NAN</DistanceMeters>
          </Trackpoint>
          <Trackpoint>
            <Time>2022-07-12T12:09:04.000Z</Time>
            <Position>
              <LatitudeDegrees>43.273652158677577972412109375</LatitudeDegrees>
              <LongitudeDegrees>-2.96796494163572788238525390625</LongitudeDegrees>
            </Position>
            <AltitudeMeters>-59.40000152587890625</AltitudeMeters>
            <DistanceMeters>NAN</DistanceMeters>
          </Trackpoint>
          <Trackpoint>
            <Time>2022-07-12T12:09:10.000Z</Time>
            <Position>
              <LatitudeDegrees>43.27381669543683528900146484375</LatitudeDegrees>
              <LongitudeDegrees>-2.9681739024817943572998046875</LongitudeDegrees>
            </Position>
            <AltitudeMeters>-59.59999847412109375</AltitudeMeters>
            <DistanceMeters>NAN</DistanceMeters>
          </Trackpoint>
          <Trackpoint>
            <Time>2022-07-12T12:09:11.000Z</Time>
            <Position>
              <LatitudeDegrees>43.273839242756366729736328125</LatitudeDegrees>
              <LongitudeDegrees>-2.96820499934256076812744140625</LongitudeDegrees>
            </Position>
            <AltitudeMeters>-59.59999847412109375</AltitudeMeters>
            <DistanceMeters>NAN</DistanceMeters>
          </Trackpoint>
          <Trackpoint>
            <Time>2022-07-12T12:09:17.000Z</Time>
            <Position>
              <LatitudeDegrees>43.27395985834300518035888671875</LatitudeDegrees>
              <LongitudeDegrees>-2.9683519341051578521728515625</LongitudeDegrees>
            </Position>
            <AltitudeMeters>-59.40000152587890625</AltitudeMeters>
            <DistanceMeters>NAN</DistanceMeters>
          </Trackpoint>
          <Trackpoint>
            <Time>2022-07-12T12:09:20.000Z</Time>
            <Position>
              <LatitudeDegrees>43.27400428242981433868408203125</LatitudeDegrees>
              <LongitudeDegrees>-2.968427874147891998291015625</LongitudeDegrees>
            </Position>
            <AltitudeMeters>-59.200000762939453125</AltitudeMeters>
            <DistanceMeters>NAN</DistanceMeters>
          </Trackpoint>
          <Trackpoint>
            <Time>2022-07-12T12:09:24.000Z</Time>
            <Position>
              <LatitudeDegrees>43.2740610279142856597900390625</LatitudeDegrees>
              <LongitudeDegrees>-2.9685252718627452850341796875</LongitudeDegrees>
            </Position>
            <AltitudeMeters>-58.59999847412109375</AltitudeMeters>
            <DistanceMeters>NAN</DistanceMeters>
          </Trackpoint>
          <Trackpoint>
            <Time>2022-07-12T12:09:27.000Z</Time>
            <Position>
              <LatitudeDegrees>43.274096734821796417236328125</LatitudeDegrees>
              <LongitudeDegrees>-2.96858738176524639129638671875</LongitudeDegrees>
            </Position>
            <AltitudeMeters>-58.200000762939453125</AltitudeMeters>
            <DistanceMeters>NAN</DistanceMeters>
          </Trackpoint>
          <Trackpoint>
            <Time>2022-07-12T12:09:31.000Z</Time>
            <Position>
              <LatitudeDegrees>43.27414057217538356781005859375</LatitudeDegrees>
              <LongitudeDegrees>-2.9686640761792659759521484375</LongitudeDegrees>
            </Position>
            <AltitudeMeters>-58</AltitudeMeters>
            <DistanceMeters>NAN</DistanceMeters>
          </Trackpoint>
          <Trackpoint>
            <Time>2022-07-12T12:09:35.000Z</Time>
            <Position>
              <LatitudeDegrees>43.27419203706085681915283203125</LatitudeDegrees>
              <LongitudeDegrees>-2.9687458835542201995849609375</LongitudeDegrees>
            </Position>
            <AltitudeMeters>-57.59999847412109375</AltitudeMeters>
            <DistanceMeters>NAN</DistanceMeters>
          </Trackpoint>
          <Trackpoint>
            <Time>2022-07-12T12:09:37.000Z</Time>
            <Position>
              <LatitudeDegrees>43.2742216251790523529052734375</LatitudeDegrees>
              <LongitudeDegrees>-2.96878636814653873443603515625</LongitudeDegrees>
            </Position>
            <AltitudeMeters>-57.40000152587890625</AltitudeMeters>
            <DistanceMeters>NAN</DistanceMeters>
          </Trackpoint>
          <Trackpoint>
            <Time>2022-07-12T12:09:38.000Z</Time>
            <Position>
              <LatitudeDegrees>43.27423562295734882354736328125</LatitudeDegrees>
              <LongitudeDegrees>-2.9688069038093090057373046875</LongitudeDegrees>
            </Position>
            <AltitudeMeters>-57.200000762939453125</AltitudeMeters>
            <DistanceMeters>NAN</DistanceMeters>
          </Trackpoint>
          <Trackpoint>
            <Time>2022-07-12T12:09:45.000Z</Time>
            <Position>
              <LatitudeDegrees>43.2743699848651885986328125</LatitudeDegrees>
              <LongitudeDegrees>-2.96890455298125743865966796875</LongitudeDegrees>
            </Position>
            <AltitudeMeters>-56.200000762939453125</AltitudeMeters>
            <DistanceMeters>NAN</DistanceMeters>
          </Trackpoint>
          <Trackpoint>
            <Time>2022-07-12T12:09:47.000Z</Time>
            <Position>
              <LatitudeDegrees>43.27439974062144756317138671875</LatitudeDegrees>
              <LongitudeDegrees>-2.96893020160496234893798828125</LongitudeDegrees>
            </Position>
            <AltitudeMeters>-56</AltitudeMeters>
            <DistanceMeters>NAN</DistanceMeters>
          </Trackpoint>
          <Trackpoint>
            <Time>2022-07-12T12:09:49.000Z</Time>
            <Position>
              <LatitudeDegrees>43.274428658187389373779296875</LatitudeDegrees>
              <LongitudeDegrees>-2.96896255575120449066162109375</LongitudeDegrees>
            </Position>
            <AltitudeMeters>-56</AltitudeMeters>
            <DistanceMeters>NAN</DistanceMeters>
          </Trackpoint>
          <Trackpoint>
            <Time>2022-07-12T12:09:51.000Z</Time>
            <Position>
              <LatitudeDegrees>43.27446947805583477020263671875</LatitudeDegrees>
              <LongitudeDegrees>-2.96899893321096897125244140625</LongitudeDegrees>
            </Position>
            <AltitudeMeters>-55.799999237060546875</AltitudeMeters>
            <DistanceMeters>NAN</DistanceMeters>
          </Trackpoint>
          <Trackpoint>
            <Time>2022-07-12T12:09:59.000Z</Time>
            <Position>
              <LatitudeDegrees>43.2746336795389652252197265625</LatitudeDegrees>
              <LongitudeDegrees>-2.96913237310945987701416015625</LongitudeDegrees>
            </Position>
            <AltitudeMeters>-55.200000762939453125</AltitudeMeters>
            <DistanceMeters>NAN</DistanceMeters>
          </Trackpoint>
          <Trackpoint>
            <Time>2022-07-12T12:10:00.000Z</Time>
            <Position>
              <LatitudeDegrees>43.2746578194200992584228515625</LatitudeDegrees>
              <LongitudeDegrees>-2.96914863400161266326904296875</LongitudeDegrees>
            </Position>
            <AltitudeMeters>-55</AltitudeMeters>
            <DistanceMeters>NAN</DistanceMeters>
          </Trackpoint>
          <Trackpoint>
            <Time>2022-07-12T12:10:03.000Z</Time>
            <Position>
              <LatitudeDegrees>43.27471758238971233367919921875</LatitudeDegrees>
              <LongitudeDegrees>-2.9691951535642147064208984375</LongitudeDegrees>
            </Position>
            <AltitudeMeters>-55</AltitudeMeters>
            <DistanceMeters>NAN</DistanceMeters>
          </Trackpoint>
          <Trackpoint>
            <Time>2022-07-12T12:10:05.000Z</Time>
            <Position>
              <LatitudeDegrees>43.27475898899137973785400390625</LatitudeDegrees>
              <LongitudeDegrees>-2.96922172419726848602294921875</LongitudeDegrees>
            </Position>
            <AltitudeMeters>-55</AltitudeMeters>
            <DistanceMeters>NAN</DistanceMeters>
          </Trackpoint>
          <Trackpoint>
            <Time>2022-07-12T12:10:08.000Z</Time>
            <Position>
              <LatitudeDegrees>43.27482998371124267578125</LatitudeDegrees>
              <LongitudeDegrees>-2.96925106085836887359619140625</LongitudeDegrees>
            </Position>
            <AltitudeMeters>-54.799999237060546875</AltitudeMeters>
            <DistanceMeters>NAN</DistanceMeters>
          </Trackpoint>
          <Trackpoint>
            <Time>2022-07-12T12:10:10.000Z</Time>
            <Position>
              <LatitudeDegrees>43.2748831249773502349853515625</LatitudeDegrees>
              <LongitudeDegrees>-2.969276793301105499267578125</LongitudeDegrees>
            </Position>
            <AltitudeMeters>-54.799999237060546875</AltitudeMeters>
            <DistanceMeters>NAN</DistanceMeters>
          </Trackpoint>
          <Trackpoint>
            <Time>2022-07-12T12:10:20.000Z</Time>
            <Position>
              <LatitudeDegrees>43.275149166584014892578125</LatitudeDegrees>
              <LongitudeDegrees>-2.9693902842700481414794921875</LongitudeDegrees>
            </Position>
            <AltitudeMeters>-54.40000152587890625</AltitudeMeters>
            <DistanceMeters>NAN</DistanceMeters>
          </Trackpoint>
          <Trackpoint>
            <Time>2022-07-12T12:10:27.000Z</Time>
            <Position>
              <LatitudeDegrees>43.27531722374260425567626953125</LatitudeDegrees>
              <LongitudeDegrees>-2.96950100921094417572021484375</LongitudeDegrees>
            </Position>
            <AltitudeMeters>-54.40000152587890625</AltitudeMeters>
            <DistanceMeters>NAN</DistanceMeters>
          </Trackpoint>
          <Trackpoint>
            <Time>2022-07-12T12:10:30.000Z</Time>
            <Position>
              <LatitudeDegrees>43.2753629051148891448974609375</LatitudeDegrees>
              <LongitudeDegrees>-2.96951760537922382354736328125</LongitudeDegrees>
            </Position>
            <AltitudeMeters>-54.59999847412109375</AltitudeMeters>
            <DistanceMeters>NAN</DistanceMeters>
          </Trackpoint>
          <Trackpoint>
            <Time>2022-07-12T12:10:34.000Z</Time>
            <Position>
              <LatitudeDegrees>43.27536164782941341400146484375</LatitudeDegrees>
              <LongitudeDegrees>-2.9694482870399951934814453125</LongitudeDegrees>
            </Position>
            <AltitudeMeters>-54.799999237060546875</AltitudeMeters>
            <DistanceMeters>NAN</DistanceMeters>
          </Trackpoint>
          <Trackpoint>
            <Time>2022-07-12T12:10:37.000Z</Time>
            <Position>
              <LatitudeDegrees>43.275288976728916168212890625</LatitudeDegrees>
              <LongitudeDegrees>-2.96935030259191989898681640625</LongitudeDegrees>
            </Position>
            <AltitudeMeters>-54.59999847412109375</AltitudeMeters>
            <DistanceMeters>NAN</DistanceMeters>
          </Trackpoint>
          <Trackpoint>
            <Time>2022-07-12T12:10:40.000Z</Time>
            <Position>
              <LatitudeDegrees>43.27524178661406040191650390625</LatitudeDegrees>
              <LongitudeDegrees>-2.96922725625336170196533203125</LongitudeDegrees>
            </Position>
            <AltitudeMeters>-54</AltitudeMeters>
            <DistanceMeters>NAN</DistanceMeters>
          </Trackpoint>
          <Trackpoint>
            <Time>2022-07-12T12:10:42.000Z</Time>
            <Position>
              <LatitudeDegrees>43.27519501559436321258544921875</LatitudeDegrees>
              <LongitudeDegrees>-2.96918165870010852813720703125</LongitudeDegrees>
            </Position>
            <AltitudeMeters>-53.799999237060546875</AltitudeMeters>
            <DistanceMeters>NAN</DistanceMeters>
          </Trackpoint>
          <Trackpoint>
            <Time>2022-07-12T12:10:44.000Z</Time>
            <Position>
              <LatitudeDegrees>43.27513449825346469879150390625</LatitudeDegrees>
              <LongitudeDegrees>-2.96917126514017581939697265625</LongitudeDegrees>
            </Position>
            <AltitudeMeters>-53.40000152587890625</AltitudeMeters>
            <DistanceMeters>NAN</DistanceMeters>
          </Trackpoint>
          <Trackpoint>
            <Time>2022-07-12T12:10:46.000Z</Time>
            <Position>
              <LatitudeDegrees>43.2750802673399448394775390625</LatitudeDegrees>
              <LongitudeDegrees>-2.9692015238106250762939453125</LongitudeDegrees>
            </Position>
            <AltitudeMeters>-53.200000762939453125</AltitudeMeters>
            <DistanceMeters>NAN</DistanceMeters>
          </Trackpoint>
          <Trackpoint>
            <Time>2022-07-12T12:10:47.000Z</Time>
            <Position>
              <LatitudeDegrees>43.27506559900939464569091796875</LatitudeDegrees>
              <LongitudeDegrees>-2.96923060901463031768798828125</LongitudeDegrees>
            </Position>
            <AltitudeMeters>-52.799999237060546875</AltitudeMeters>
            <DistanceMeters>NAN</DistanceMeters>
          </Trackpoint>
          <Trackpoint>
            <Time>2022-07-12T12:10:49.000Z</Time>
            <Position>
              <LatitudeDegrees>43.275071047246456146240234375</LatitudeDegrees>
              <LongitudeDegrees>-2.96929590404033660888671875</LongitudeDegrees>
            </Position>
            <AltitudeMeters>-52.200000762939453125</AltitudeMeters>
            <DistanceMeters>NAN</DistanceMeters>
          </Trackpoint>
          <Trackpoint>
            <Time>2022-07-12T12:10:51.000Z</Time>
            <Position>
              <LatitudeDegrees>43.27510599978268146514892578125</LatitudeDegrees>
              <LongitudeDegrees>-2.969349883496761322021484375</LongitudeDegrees>
            </Position>
            <AltitudeMeters>-51.799999237060546875</AltitudeMeters>
            <DistanceMeters>NAN</DistanceMeters>
          </Trackpoint>
          <Trackpoint>
            <Time>2022-07-12T12:10:53.000Z</Time>
            <Position>
              <LatitudeDegrees>43.27514857985079288482666015625</LatitudeDegrees>
              <LongitudeDegrees>-2.969389446079730987548828125</LongitudeDegrees>
            </Position>
            <AltitudeMeters>-51.40000152587890625</AltitudeMeters>
            <DistanceMeters>NAN</DistanceMeters>
          </Trackpoint>
          <Trackpoint>
            <Time>2022-07-12T12:10:56.000Z</Time>
            <Position>
              <LatitudeDegrees>43.27521513216197490692138671875</LatitudeDegrees>
              <LongitudeDegrees>-2.96940109692513942718505859375</LongitudeDegrees>
            </Position>
            <AltitudeMeters>-51</AltitudeMeters>
            <DistanceMeters>NAN</DistanceMeters>
          </Trackpoint>
          <Trackpoint>
            <Time>2022-07-12T12:10:58.000Z</Time>
            <Position>
              <LatitudeDegrees>43.27526693232357501983642578125</LatitudeDegrees>
              <LongitudeDegrees>-2.969400174915790557861328125</LongitudeDegrees>
            </Position>
            <AltitudeMeters>-51</AltitudeMeters>
            <DistanceMeters>NAN</DistanceMeters>
          </Trackpoint>
          <Trackpoint>
            <Time>2022-07-12T12:11:00.000Z</Time>
            <Position>
              <LatitudeDegrees>43.27531772665679454803466796875</LatitudeDegrees>
              <LongitudeDegrees>-2.96940579079091548919677734375</LongitudeDegrees>
            </Position>
            <AltitudeMeters>-50.59999847412109375</AltitudeMeters>
            <DistanceMeters>NAN</DistanceMeters>
          </Trackpoint>
          <Trackpoint>
            <Time>2022-07-12T12:11:07.000Z</Time>
            <Position>
              <LatitudeDegrees>43.2754758931696414947509765625</LatitudeDegrees>
              <LongitudeDegrees>-2.9694137535989284515380859375</LongitudeDegrees>
            </Position>
            <AltitudeMeters>-50.200000762939453125</AltitudeMeters>
            <DistanceMeters>NAN</DistanceMeters>
          </Trackpoint>
          <Trackpoint>
            <Time>2022-07-12T12:11:11.000Z</Time>
            <Position>
              <LatitudeDegrees>43.2755664177238941192626953125</LatitudeDegrees>
              <LongitudeDegrees>-2.96944350935518741607666015625</LongitudeDegrees>
            </Position>
            <AltitudeMeters>-49.59999847412109375</AltitudeMeters>
            <DistanceMeters>NAN</DistanceMeters>
          </Trackpoint>
          <Trackpoint>
            <Time>2022-07-12T12:11:14.000Z</Time>
            <Position>
              <LatitudeDegrees>43.27562316320836544036865234375</LatitudeDegrees>
              <LongitudeDegrees>-2.9694938845932483673095703125</LongitudeDegrees>
            </Position>
            <AltitudeMeters>-48.799999237060546875</AltitudeMeters>
            <DistanceMeters>NAN</DistanceMeters>
          </Trackpoint>
          <Trackpoint>
            <Time>2022-07-12T12:11:15.000Z</Time>
            <Position>
              <LatitudeDegrees>43.275639005005359649658203125</LatitudeDegrees>
              <LongitudeDegrees>-2.9695140011608600616455078125</LongitudeDegrees>
            </Position>
            <AltitudeMeters>-48.59999847412109375</AltitudeMeters>
            <DistanceMeters>NAN</DistanceMeters>
          </Trackpoint>
          <Trackpoint>
            <Time>2022-07-12T12:11:19.000Z</Time>
            <Position>
              <LatitudeDegrees>43.2756666652858257293701171875</LatitudeDegrees>
              <LongitudeDegrees>-2.96962422318756580352783203125</LongitudeDegrees>
            </Position>
            <AltitudeMeters>-48</AltitudeMeters>
            <DistanceMeters>NAN</DistanceMeters>
          </Trackpoint>
          <Trackpoint>
            <Time>2022-07-12T12:11:30.000Z</Time>
            <Position>
              <LatitudeDegrees>43.2757102511823177337646484375</LatitudeDegrees>
              <LongitudeDegrees>-2.96997441910207271575927734375</LongitudeDegrees>
            </Position>
            <AltitudeMeters>-47.59999847412109375</AltitudeMeters>
            <DistanceMeters>NAN</DistanceMeters>
          </Trackpoint>
          <Trackpoint>
            <Time>2022-07-12T12:11:34.000Z</Time>
            <Position>
              <LatitudeDegrees>43.27579624950885772705078125</LatitudeDegrees>
              <LongitudeDegrees>-2.970049269497394561767578125</LongitudeDegrees>
            </Position>
            <AltitudeMeters>-48</AltitudeMeters>
            <DistanceMeters>NAN</DistanceMeters>
          </Trackpoint>
          <Trackpoint>
            <Time>2022-07-12T12:11:36.000Z</Time>
            <Position>
              <LatitudeDegrees>43.2758688367903232574462890625</LatitudeDegrees>
              <LongitudeDegrees>-2.97008506022393703460693359375</LongitudeDegrees>
            </Position>
            <AltitudeMeters>-48.200000762939453125</AltitudeMeters>
            <DistanceMeters>NAN</DistanceMeters>
          </Trackpoint>
          <Trackpoint>
            <Time>2022-07-12T12:11:38.000Z</Time>
            <Position>
              <LatitudeDegrees>43.27595257200300693511962890625</LatitudeDegrees>
              <LongitudeDegrees>-2.97013417817652225494384765625</LongitudeDegrees>
            </Position>
            <AltitudeMeters>-48.59999847412109375</AltitudeMeters>
            <DistanceMeters>NAN</DistanceMeters>
          </Trackpoint>
          <Trackpoint>
            <Time>2022-07-12T12:11:39.000Z</Time>
            <Position>
              <LatitudeDegrees>43.27599716372787952423095703125</LatitudeDegrees>
              <LongitudeDegrees>-2.97016225755214691162109375</LongitudeDegrees>
            </Position>
            <AltitudeMeters>-48.799999237060546875</AltitudeMeters>
            <DistanceMeters>NAN</DistanceMeters>
          </Trackpoint>
          <Trackpoint>
            <Time>2022-07-12T12:11:41.000Z</Time>
            <Position>
              <LatitudeDegrees>43.27608467079699039459228515625</LatitudeDegrees>
              <LongitudeDegrees>-2.9702254571020603179931640625</LongitudeDegrees>
            </Position>
            <AltitudeMeters>-49.40000152587890625</AltitudeMeters>
            <DistanceMeters>NAN</DistanceMeters>
          </Trackpoint>
          <Trackpoint>
            <Time>2022-07-12T12:11:43.000Z</Time>
            <Position>
              <LatitudeDegrees>43.27616245485842227935791015625</LatitudeDegrees>
              <LongitudeDegrees>-2.97031707130372524261474609375</LongitudeDegrees>
            </Position>
            <AltitudeMeters>-49.799999237060546875</AltitudeMeters>
            <DistanceMeters>NAN</DistanceMeters>
          </Trackpoint>
          <Trackpoint>
            <Time>2022-07-12T12:11:44.000Z</Time>
            <Position>
              <LatitudeDegrees>43.27619564719498157501220703125</LatitudeDegrees>
              <LongitudeDegrees>-2.97037188895046710968017578125</LongitudeDegrees>
            </Position>
            <AltitudeMeters>-50</AltitudeMeters>
            <DistanceMeters>NAN</DistanceMeters>
          </Trackpoint>
          <Trackpoint>
            <Time>2022-07-12T12:11:48.000Z</Time>
            <Position>
              <LatitudeDegrees>43.2762869261205196380615234375</LatitudeDegrees>
              <LongitudeDegrees>-2.9705774970352649688720703125</LongitudeDegrees>
            </Position>
            <AltitudeMeters>-51</AltitudeMeters>
            <DistanceMeters>NAN</DistanceMeters>
          </Trackpoint>
          <Trackpoint>
            <Time>2022-07-12T12:11:49.000Z</Time>
            <Position>
              <LatitudeDegrees>43.2762966491281986236572265625</LatitudeDegrees>
              <LongitudeDegrees>-2.97063172794878482818603515625</LongitudeDegrees>
            </Position>
            <AltitudeMeters>-51</AltitudeMeters>
            <DistanceMeters>NAN</DistanceMeters>
          </Trackpoint>
          <Trackpoint>
            <Time>2022-07-12T12:11:50.000Z</Time>
            <Position>
              <LatitudeDegrees>43.27630528248846530914306640625</LatitudeDegrees>
              <LongitudeDegrees>-2.970685623586177825927734375</LongitudeDegrees>
            </Position>
            <AltitudeMeters>-51.200000762939453125</AltitudeMeters>
            <DistanceMeters>NAN</DistanceMeters>
          </Trackpoint>
          <Trackpoint>
            <Time>2022-07-12T12:11:52.000Z</Time>
            <Position>
              <LatitudeDegrees>43.27634300105273723602294921875</LatitudeDegrees>
              <LongitudeDegrees>-2.97079148702323436737060546875</LongitudeDegrees>
            </Position>
            <AltitudeMeters>-51.799999237060546875</AltitudeMeters>
            <DistanceMeters>NAN</DistanceMeters>
          </Trackpoint>
          <Trackpoint>
            <Time>2022-07-12T12:11:53.000Z</Time>
            <Position>
              <LatitudeDegrees>43.2763697393238544464111328125</LatitudeDegrees>
              <LongitudeDegrees>-2.97084395773708820343017578125</LongitudeDegrees>
            </Position>
            <AltitudeMeters>-52</AltitudeMeters>
            <DistanceMeters>NAN</DistanceMeters>
          </Trackpoint>
          <Trackpoint>
            <Time>2022-07-12T12:11:54.000Z</Time>
            <Position>
              <LatitudeDegrees>43.27639413066208362579345703125</LatitudeDegrees>
              <LongitudeDegrees>-2.97089860774576663970947265625</LongitudeDegrees>
            </Position>
            <AltitudeMeters>-52.200000762939453125</AltitudeMeters>
            <DistanceMeters>NAN</DistanceMeters>
          </Trackpoint>
          <Trackpoint>
            <Time>2022-07-12T12:11:55.000Z</Time>
            <Position>
              <LatitudeDegrees>43.27641910873353481292724609375</LatitudeDegrees>
              <LongitudeDegrees>-2.970958538353443145751953125</LongitudeDegrees>
            </Position>
            <AltitudeMeters>-52.40000152587890625</AltitudeMeters>
            <DistanceMeters>NAN</DistanceMeters>
          </Trackpoint>
          <Trackpoint>
            <Time>2022-07-12T12:11:56.000Z</Time>
            <Position>
              <LatitudeDegrees>43.276442326605319976806640625</LatitudeDegrees>
              <LongitudeDegrees>-2.9710225760936737060546875</LongitudeDegrees>
            </Position>
            <AltitudeMeters>-52.59999847412109375</AltitudeMeters>
            <DistanceMeters>NAN</DistanceMeters>
          </Trackpoint>
          <Trackpoint>
            <Time>2022-07-12T12:11:58.000Z</Time>
            <Position>
              <LatitudeDegrees>43.27648314647376537322998046875</LatitudeDegrees>
              <LongitudeDegrees>-2.9711625538766384124755859375</LongitudeDegrees>
            </Position>
            <AltitudeMeters>-52.799999237060546875</AltitudeMeters>
            <DistanceMeters>NAN</DistanceMeters>
          </Trackpoint>
          <Trackpoint>
            <Time>2022-07-12T12:12:00.000Z</Time>
            <Position>
              <LatitudeDegrees>43.2765263132750988006591796875</LatitudeDegrees>
              <LongitudeDegrees>-2.9713047109544277191162109375</LongitudeDegrees>
            </Position>
            <AltitudeMeters>-53</AltitudeMeters>
            <DistanceMeters>NAN</DistanceMeters>
          </Trackpoint>
          <Trackpoint>
            <Time>2022-07-12T12:12:02.000Z</Time>
            <Position>
              <LatitudeDegrees>43.27657450921833515167236328125</LatitudeDegrees>
              <LongitudeDegrees>-2.971445359289646148681640625</LongitudeDegrees>
            </Position>
            <AltitudeMeters>-53.200000762939453125</AltitudeMeters>
            <DistanceMeters>NAN</DistanceMeters>
          </Trackpoint>
          <Trackpoint>
            <Time>2022-07-12T12:12:05.000Z</Time>
            <Position>
              <LatitudeDegrees>43.27664156444370746612548828125</LatitudeDegrees>
              <LongitudeDegrees>-2.971665300428867340087890625</LongitudeDegrees>
            </Position>
            <AltitudeMeters>-53.799999237060546875</AltitudeMeters>
            <DistanceMeters>NAN</DistanceMeters>
          </Trackpoint>
          <Trackpoint>
            <Time>2022-07-12T12:12:06.000Z</Time>
            <Position>
              <LatitudeDegrees>43.27666536904871463775634765625</LatitudeDegrees>
              <LongitudeDegrees>-2.97174417413771152496337890625</LongitudeDegrees>
            </Position>
            <AltitudeMeters>-54</AltitudeMeters>
            <DistanceMeters>NAN</DistanceMeters>
          </Trackpoint>
          <Trackpoint>
            <Time>2022-07-12T12:12:07.000Z</Time>
            <Position>
              <LatitudeDegrees>43.27669344842433929443359375</LatitudeDegrees>
              <LongitudeDegrees>-2.9718200303614139556884765625</LongitudeDegrees>
            </Position>
            <AltitudeMeters>-54.200000762939453125</AltitudeMeters>
            <DistanceMeters>NAN</DistanceMeters>
          </Trackpoint>
          <Trackpoint>
            <Time>2022-07-12T12:12:09.000Z</Time>
            <Position>
              <LatitudeDegrees>43.276746757328510284423828125</LatitudeDegrees>
              <LongitudeDegrees>-2.97197006642818450927734375</LongitudeDegrees>
            </Position>
            <AltitudeMeters>-55</AltitudeMeters>
            <DistanceMeters>NAN</DistanceMeters>
          </Trackpoint>
          <Trackpoint>
            <Time>2022-07-12T12:12:10.000Z</Time>
            <Position>
              <LatitudeDegrees>43.2767734117805957794189453125</LatitudeDegrees>
              <LongitudeDegrees>-2.972048185765743255615234375</LongitudeDegrees>
            </Position>
            <AltitudeMeters>-55.200000762939453125</AltitudeMeters>
            <DistanceMeters>NAN</DistanceMeters>
          </Trackpoint>
          <Trackpoint>
            <Time>2022-07-12T12:12:11.000Z</Time>
            <Position>
              <LatitudeDegrees>43.2767972163856029510498046875</LatitudeDegrees>
              <LongitudeDegrees>-2.9721395485103130340576171875</LongitudeDegrees>
            </Position>
            <AltitudeMeters>-55.40000152587890625</AltitudeMeters>
            <DistanceMeters>NAN</DistanceMeters>
          </Trackpoint>
          <Trackpoint>
            <Time>2022-07-12T12:12:15.000Z</Time>
            <Position>
              <LatitudeDegrees>43.27690064907073974609375</LatitudeDegrees>
              <LongitudeDegrees>-2.972436435520648956298828125</LongitudeDegrees>
            </Position>
            <AltitudeMeters>-55.799999237060546875</AltitudeMeters>
            <DistanceMeters>NAN</DistanceMeters>
          </Trackpoint>
          <Trackpoint>
            <Time>2022-07-12T12:12:18.000Z</Time>
            <Position>
              <LatitudeDegrees>43.27696309424936771392822265625</LatitudeDegrees>
              <LongitudeDegrees>-2.9726843722164630889892578125</LongitudeDegrees>
            </Position>
            <AltitudeMeters>-56.59999847412109375</AltitudeMeters>
            <DistanceMeters>NAN</DistanceMeters>
          </Trackpoint>
          <Trackpoint>
            <Time>2022-07-12T12:12:20.000Z</Time>
            <Position>
              <LatitudeDegrees>43.27699930407106876373291015625</LatitudeDegrees>
              <LongitudeDegrees>-2.97284756787121295928955078125</LongitudeDegrees>
            </Position>
            <AltitudeMeters>-56.799999237060546875</AltitudeMeters>
            <DistanceMeters>NAN</DistanceMeters>
          </Trackpoint>
          <Trackpoint>
            <Time>2022-07-12T12:12:23.000Z</Time>
            <Position>
              <LatitudeDegrees>43.27706602402031421661376953125</LatitudeDegrees>
              <LongitudeDegrees>-2.9730836860835552215576171875</LongitudeDegrees>
            </Position>
            <AltitudeMeters>-57</AltitudeMeters>
            <DistanceMeters>NAN</DistanceMeters>
          </Trackpoint>
          <Trackpoint>
            <Time>2022-07-12T12:12:26.000Z</Time>
            <Position>
              <LatitudeDegrees>43.2771412096917629241943359375</LatitudeDegrees>
              <LongitudeDegrees>-2.97328191809356212615966796875</LongitudeDegrees>
            </Position>
            <AltitudeMeters>-57.59999847412109375</AltitudeMeters>
            <DistanceMeters>NAN</DistanceMeters>
          </Trackpoint>
          <Trackpoint>
            <Time>2022-07-12T12:12:30.000Z</Time>
            <Position>
              <LatitudeDegrees>43.2772166468203067779541015625</LatitudeDegrees>
              <LongitudeDegrees>-2.97366966493427753448486328125</LongitudeDegrees>
            </Position>
            <AltitudeMeters>-58.799999237060546875</AltitudeMeters>
            <DistanceMeters>NAN</DistanceMeters>
          </Trackpoint>
          <Trackpoint>
            <Time>2022-07-12T12:12:32.000Z</Time>
            <Position>
              <LatitudeDegrees>43.27724187634885311126708984375</LatitudeDegrees>
              <LongitudeDegrees>-2.97384761273860931396484375</LongitudeDegrees>
            </Position>
            <AltitudeMeters>-59.200000762939453125</AltitudeMeters>
            <DistanceMeters>NAN</DistanceMeters>
          </Trackpoint>
          <Trackpoint>
            <Time>2022-07-12T12:12:34.000Z</Time>
            <Position>
              <LatitudeDegrees>43.2773054949939250946044921875</LatitudeDegrees>
              <LongitudeDegrees>-2.973977029323577880859375</LongitudeDegrees>
            </Position>
            <AltitudeMeters>-59.40000152587890625</AltitudeMeters>
            <DistanceMeters>NAN</DistanceMeters>
          </Trackpoint>
          <Trackpoint>
            <Time>2022-07-12T12:12:39.000Z</Time>
            <Position>
              <LatitudeDegrees>43.27742124907672405242919921875</LatitudeDegrees>
              <LongitudeDegrees>-2.9744050092995166778564453125</LongitudeDegrees>
            </Position>
            <AltitudeMeters>-59.799999237060546875</AltitudeMeters>
            <DistanceMeters>NAN</DistanceMeters>
          </Trackpoint>
          <Trackpoint>
            <Time>2022-07-12T12:12:41.000Z</Time>
            <Position>
              <LatitudeDegrees>43.2774617336690425872802734375</LatitudeDegrees>
              <LongitudeDegrees>-2.974515818059444427490234375</LongitudeDegrees>
            </Position>
            <AltitudeMeters>-60.200000762939453125</AltitudeMeters>
            <DistanceMeters>NAN</DistanceMeters>
          </Trackpoint>
          <Trackpoint>
            <Time>2022-07-12T12:12:47.000Z</Time>
            <Position>
              <LatitudeDegrees>43.27761872671544551849365234375</LatitudeDegrees>
              <LongitudeDegrees>-2.9749119468033313751220703125</LongitudeDegrees>
            </Position>
            <AltitudeMeters>-60.799999237060546875</AltitudeMeters>
            <DistanceMeters>NAN</DistanceMeters>
          </Trackpoint>
          <Trackpoint>
            <Time>2022-07-12T12:12:54.000Z</Time>
            <Position>
              <LatitudeDegrees>43.2777470536530017852783203125</LatitudeDegrees>
              <LongitudeDegrees>-2.97535836696624755859375</LongitudeDegrees>
            </Position>
            <AltitudeMeters>-60.59999847412109375</AltitudeMeters>
            <DistanceMeters>NAN</DistanceMeters>
          </Trackpoint>
          <Trackpoint>
            <Time>2022-07-12T12:12:55.000Z</Time>
            <Position>
              <LatitudeDegrees>43.27777312137186527252197265625</LatitudeDegrees>
              <LongitudeDegrees>-2.9754054732620716094970703125</LongitudeDegrees>
            </Position>
            <AltitudeMeters>-60.59999847412109375</AltitudeMeters>
            <DistanceMeters>NAN</DistanceMeters>
          </Trackpoint>
          <Trackpoint>
            <Time>2022-07-12T12:12:56.000Z</Time>
            <Position>
              <LatitudeDegrees>43.2778033800423145294189453125</LatitudeDegrees>
              <LongitudeDegrees>-2.97543941996991634368896484375</LongitudeDegrees>
            </Position>
            <AltitudeMeters>-60.59999847412109375</AltitudeMeters>
            <DistanceMeters>NAN</DistanceMeters>
          </Trackpoint>
          <Trackpoint>
            <Time>2022-07-12T12:12:59.000Z</Time>
            <Position>
              <LatitudeDegrees>43.27788057737052440643310546875</LatitudeDegrees>
              <LongitudeDegrees>-2.97552173025906085968017578125</LongitudeDegrees>
            </Position>
            <AltitudeMeters>-60.59999847412109375</AltitudeMeters>
            <DistanceMeters>NAN</DistanceMeters>
          </Trackpoint>
          <Trackpoint>
            <Time>2022-07-12T12:13:03.000Z</Time>
            <Position>
              <LatitudeDegrees>43.277929611504077911376953125</LatitudeDegrees>
              <LongitudeDegrees>-2.97568894922733306884765625</LongitudeDegrees>
            </Position>
            <AltitudeMeters>-60.59999847412109375</AltitudeMeters>
            <DistanceMeters>NAN</DistanceMeters>
          </Trackpoint>
          <Trackpoint>
            <Time>2022-07-12T12:13:08.000Z</Time>
            <Position>
              <LatitudeDegrees>43.27791192568838596343994140625</LatitudeDegrees>
              <LongitudeDegrees>-2.975911237299442291259765625</LongitudeDegrees>
            </Position>
            <AltitudeMeters>-60.59999847412109375</AltitudeMeters>
            <DistanceMeters>NAN</DistanceMeters>
          </Trackpoint>
          <Trackpoint>
            <Time>2022-07-12T12:13:10.000Z</Time>
            <Position>
              <LatitudeDegrees>43.2779187150299549102783203125</LatitudeDegrees>
              <LongitudeDegrees>-2.9760056175291538238525390625</LongitudeDegrees>
            </Position>
            <AltitudeMeters>-60.40000152587890625</AltitudeMeters>
            <DistanceMeters>NAN</DistanceMeters>
          </Trackpoint>
          <Trackpoint>
            <Time>2022-07-12T12:13:11.000Z</Time>
            <Position>
              <LatitudeDegrees>43.27792860567569732666015625</LatitudeDegrees>
              <LongitudeDegrees>-2.97604979015886783599853515625</LongitudeDegrees>
            </Position>
            <AltitudeMeters>-60.40000152587890625</AltitudeMeters>
            <DistanceMeters>NAN</DistanceMeters>
          </Trackpoint>
          <Trackpoint>
            <Time>2022-07-12T12:13:13.000Z</Time>
            <Position>
              <LatitudeDegrees>43.27794813551008701324462890625</LatitudeDegrees>
              <LongitudeDegrees>-2.97612606547772884368896484375</LongitudeDegrees>
            </Position>
            <AltitudeMeters>-60.200000762939453125</AltitudeMeters>
            <DistanceMeters>NAN</DistanceMeters>
          </Trackpoint>
          <Trackpoint>
            <Time>2022-07-12T12:13:14.000Z</Time>
            <Position>
              <LatitudeDegrees>43.27796137891709804534912109375</LatitudeDegrees>
              <LongitudeDegrees>-2.97616504132747650146484375</LongitudeDegrees>
            </Position>
            <AltitudeMeters>-60.200000762939453125</AltitudeMeters>
            <DistanceMeters>NAN</DistanceMeters>
          </Trackpoint>
          <Trackpoint>
            <Time>2022-07-12T12:13:15.000Z</Time>
            <Position>
              <LatitudeDegrees>43.27797210775315761566162109375</LatitudeDegrees>
              <LongitudeDegrees>-2.9762000776827335357666015625</LongitudeDegrees>
            </Position>
            <AltitudeMeters>-60.200000762939453125</AltitudeMeters>
            <DistanceMeters>NAN</DistanceMeters>
          </Trackpoint>
          <Trackpoint>
            <Time>2022-07-12T12:13:16.000Z</Time>
            <Position>
              <LatitudeDegrees>43.27798116020858287811279296875</LatitudeDegrees>
              <LongitudeDegrees>-2.97623201273381710052490234375</LongitudeDegrees>
            </Position>
            <AltitudeMeters>-60</AltitudeMeters>
            <DistanceMeters>NAN</DistanceMeters>
          </Trackpoint>
          <Trackpoint>
            <Time>2022-07-12T12:13:17.000Z</Time>
            <Position>
              <LatitudeDegrees>43.27799088321626186370849609375</LatitudeDegrees>
              <LongitudeDegrees>-2.97626922838389873504638671875</LongitudeDegrees>
            </Position>
            <AltitudeMeters>-60</AltitudeMeters>
            <DistanceMeters>NAN</DistanceMeters>
          </Trackpoint>
          <Trackpoint>
            <Time>2022-07-12T12:13:19.000Z</Time>
            <Position>
              <LatitudeDegrees>43.2780124247074127197265625</LatitudeDegrees>
              <LongitudeDegrees>-2.976340390741825103759765625</LongitudeDegrees>
            </Position>
            <AltitudeMeters>-59.799999237060546875</AltitudeMeters>
            <DistanceMeters>NAN</DistanceMeters>
          </Trackpoint>
          <Trackpoint>
            <Time>2022-07-12T12:13:23.000Z</Time>
            <Position>
              <LatitudeDegrees>43.27805207110941410064697265625</LatitudeDegrees>
              <LongitudeDegrees>-2.97646620310842990875244140625</LongitudeDegrees>
            </Position>
            <AltitudeMeters>-59.200000762939453125</AltitudeMeters>
            <DistanceMeters>NAN</DistanceMeters>
          </Trackpoint>
          <Trackpoint>
            <Time>2022-07-12T12:13:27.000Z</Time>
            <Position>
              <LatitudeDegrees>43.27809222042560577392578125</LatitudeDegrees>
              <LongitudeDegrees>-2.9765774309635162353515625</LongitudeDegrees>
            </Position>
            <AltitudeMeters>-59</AltitudeMeters>
            <DistanceMeters>NAN</DistanceMeters>
          </Trackpoint>
          <Trackpoint>
            <Time>2022-07-12T12:13:29.000Z</Time>
            <Position>
              <LatitudeDegrees>43.27810755930840969085693359375</LatitudeDegrees>
              <LongitudeDegrees>-2.9766376130282878875732421875</LongitudeDegrees>
            </Position>
            <AltitudeMeters>-59</AltitudeMeters>
            <DistanceMeters>NAN</DistanceMeters>
          </Trackpoint>
          <Trackpoint>
            <Time>2022-07-12T12:13:31.000Z</Time>
            <Position>
              <LatitudeDegrees>43.27812440693378448486328125</LatitudeDegrees>
              <LongitudeDegrees>-2.9766952805221080780029296875</LongitudeDegrees>
            </Position>
            <AltitudeMeters>-58.799999237060546875</AltitudeMeters>
            <DistanceMeters>NAN</DistanceMeters>
          </Trackpoint>
          <Trackpoint>
            <Time>2022-07-12T12:13:32.000Z</Time>
            <Position>
              <LatitudeDegrees>43.27813488431274890899658203125</LatitudeDegrees>
              <LongitudeDegrees>-2.97672486864030361175537109375</LongitudeDegrees>
            </Position>
            <AltitudeMeters>-58.799999237060546875</AltitudeMeters>
            <DistanceMeters>NAN</DistanceMeters>
          </Trackpoint>
          <Trackpoint>
            <Time>2022-07-12T12:13:38.000Z</Time>
            <Position>
              <LatitudeDegrees>43.2781866006553173065185546875</LatitudeDegrees>
              <LongitudeDegrees>-2.9768924228847026824951171875</LongitudeDegrees>
            </Position>
            <AltitudeMeters>-58.40000152587890625</AltitudeMeters>
            <DistanceMeters>NAN</DistanceMeters>
          </Trackpoint>
          <Trackpoint>
            <Time>2022-07-12T12:13:41.000Z</Time>
            <Position>
              <LatitudeDegrees>43.27821820043027400970458984375</LatitudeDegrees>
              <LongitudeDegrees>-2.9769839532673358917236328125</LongitudeDegrees>
            </Position>
            <AltitudeMeters>-58.200000762939453125</AltitudeMeters>
            <DistanceMeters>NAN</DistanceMeters>
          </Trackpoint>
          <Trackpoint>
            <Time>2022-07-12T12:13:51.000Z</Time>
            <Position>
              <LatitudeDegrees>43.278344683349132537841796875</LatitudeDegrees>
              <LongitudeDegrees>-2.97738301567733287811279296875</LongitudeDegrees>
            </Position>
            <AltitudeMeters>-58</AltitudeMeters>
            <DistanceMeters>NAN</DistanceMeters>
          </Trackpoint>
          <Trackpoint>
            <Time>2022-07-12T12:13:52.000Z</Time>
            <Position>
              <LatitudeDegrees>43.27835784293711185455322265625</LatitudeDegrees>
              <LongitudeDegrees>-2.97742442227900028228759765625</LongitudeDegrees>
            </Position>
            <AltitudeMeters>-58</AltitudeMeters>
            <DistanceMeters>NAN</DistanceMeters>
          </Trackpoint>
          <Trackpoint>
            <Time>2022-07-12T12:13:58.000Z</Time>
            <Position>
              <LatitudeDegrees>43.27844166196882724761962890625</LatitudeDegrees>
              <LongitudeDegrees>-2.97767286188900470733642578125</LongitudeDegrees>
            </Position>
            <AltitudeMeters>-58.200000762939453125</AltitudeMeters>
            <DistanceMeters>NAN</DistanceMeters>
          </Trackpoint>
          <Trackpoint>
            <Time>2022-07-12T12:14:00.000Z</Time>
            <Position>
              <LatitudeDegrees>43.2784712500870227813720703125</LatitudeDegrees>
              <LongitudeDegrees>-2.977754585444927215576171875</LongitudeDegrees>
            </Position>
            <AltitudeMeters>-58.200000762939453125</AltitudeMeters>
            <DistanceMeters>NAN</DistanceMeters>
          </Trackpoint>
          <Trackpoint>
            <Time>2022-07-12T12:14:02.000Z</Time>
            <Position>
              <LatitudeDegrees>43.278500922024250030517578125</LatitudeDegrees>
              <LongitudeDegrees>-2.97783429734408855438232421875</LongitudeDegrees>
            </Position>
            <AltitudeMeters>-58.200000762939453125</AltitudeMeters>
            <DistanceMeters>NAN</DistanceMeters>
          </Trackpoint>
          <Trackpoint>
            <Time>2022-07-12T12:14:07.000Z</Time>
            <Position>
              <LatitudeDegrees>43.2785748504102230072021484375</LatitudeDegrees>
              <LongitudeDegrees>-2.9780109040439128875732421875</LongitudeDegrees>
            </Position>
            <AltitudeMeters>-57.799999237060546875</AltitudeMeters>
            <DistanceMeters>NAN</DistanceMeters>
          </Trackpoint>
          <Trackpoint>
            <Time>2022-07-12T12:14:10.000Z</Time>
            <Position>
              <LatitudeDegrees>43.27861701138317584991455078125</LatitudeDegrees>
              <LongitudeDegrees>-2.9780987463891506195068359375</LongitudeDegrees>
            </Position>
            <AltitudeMeters>-57.59999847412109375</AltitudeMeters>
            <DistanceMeters>NAN</DistanceMeters>
          </Trackpoint>
          <Trackpoint>
            <Time>2022-07-12T12:14:14.000Z</Time>
            <Position>
              <LatitudeDegrees>43.27865816652774810791015625</LatitudeDegrees>
              <LongitudeDegrees>-2.97822472639381885528564453125</LongitudeDegrees>
            </Position>
            <AltitudeMeters>-57.200000762939453125</AltitudeMeters>
            <DistanceMeters>NAN</DistanceMeters>
          </Trackpoint>
          <Trackpoint>
            <Time>2022-07-12T12:14:17.000Z</Time>
            <Position>
              <LatitudeDegrees>43.278688006103038787841796875</LatitudeDegrees>
              <LongitudeDegrees>-2.9783036001026630401611328125</LongitudeDegrees>
            </Position>
            <AltitudeMeters>-56.799999237060546875</AltitudeMeters>
            <DistanceMeters>NAN</DistanceMeters>
          </Trackpoint>
          <Trackpoint>
            <Time>2022-07-12T12:14:18.000Z</Time>
            <Position>
              <LatitudeDegrees>43.2786992378532886505126953125</LatitudeDegrees>
              <LongitudeDegrees>-2.97832815907895565032958984375</LongitudeDegrees>
            </Position>
            <AltitudeMeters>-56.59999847412109375</AltitudeMeters>
            <DistanceMeters>NAN</DistanceMeters>
          </Trackpoint>
          <Trackpoint>
            <Time>2022-07-12T12:14:24.000Z</Time>
            <Position>
              <LatitudeDegrees>43.27877777628600597381591796875</LatitudeDegrees>
              <LongitudeDegrees>-2.97846042551100254058837890625</LongitudeDegrees>
            </Position>
            <AltitudeMeters>-56</AltitudeMeters>
            <DistanceMeters>NAN</DistanceMeters>
          </Trackpoint>
          <Trackpoint>
            <Time>2022-07-12T12:14:26.000Z</Time>
            <Position>
              <LatitudeDegrees>43.27881197445094585418701171875</LatitudeDegrees>
              <LongitudeDegrees>-2.97850149683654308319091796875</LongitudeDegrees>
            </Position>
            <AltitudeMeters>-55.799999237060546875</AltitudeMeters>
            <DistanceMeters>NAN</DistanceMeters>
          </Trackpoint>
          <Trackpoint>
            <Time>2022-07-12T12:14:27.000Z</Time>
            <Position>
              <LatitudeDegrees>43.2788296602666378021240234375</LatitudeDegrees>
              <LongitudeDegrees>-2.97852136194705963134765625</LongitudeDegrees>
            </Position>
            <AltitudeMeters>-55.59999847412109375</AltitudeMeters>
            <DistanceMeters>NAN</DistanceMeters>
          </Trackpoint>
          <Trackpoint>
            <Time>2022-07-12T12:14:32.000Z</Time>
            <Position>
              <LatitudeDegrees>43.27891976572573184967041015625</LatitudeDegrees>
              <LongitudeDegrees>-2.97858171164989471435546875</LongitudeDegrees>
            </Position>
            <AltitudeMeters>-54.799999237060546875</AltitudeMeters>
            <DistanceMeters>NAN</DistanceMeters>
          </Trackpoint>
          <Trackpoint>
            <Time>2022-07-12T12:14:35.000Z</Time>
            <Position>
              <LatitudeDegrees>43.2789780199527740478515625</LatitudeDegrees>
              <LongitudeDegrees>-2.9786078631877899169921875</LongitudeDegrees>
            </Position>
            <AltitudeMeters>-54.799999237060546875</AltitudeMeters>
            <DistanceMeters>NAN</DistanceMeters>
          </Trackpoint>
          <Trackpoint>
            <Time>2022-07-12T12:14:38.000Z</Time>
            <Position>
              <LatitudeDegrees>43.2790314964950084686279296875</LatitudeDegrees>
              <LongitudeDegrees>-2.97864566557109355926513671875</LongitudeDegrees>
            </Position>
            <AltitudeMeters>-54.799999237060546875</AltitudeMeters>
            <DistanceMeters>NAN</DistanceMeters>
          </Trackpoint>
          <Trackpoint>
            <Time>2022-07-12T12:14:42.000Z</Time>
            <Position>
              <LatitudeDegrees>43.279121853411197662353515625</LatitudeDegrees>
              <LongitudeDegrees>-2.97867584042251110076904296875</LongitudeDegrees>
            </Position>
            <AltitudeMeters>-54.59999847412109375</AltitudeMeters>
            <DistanceMeters>NAN</DistanceMeters>
          </Trackpoint>
          <Trackpoint>
            <Time>2022-07-12T12:14:47.000Z</Time>
            <Position>
              <LatitudeDegrees>43.279260657727718353271484375</LatitudeDegrees>
              <LongitudeDegrees>-2.9786392115056514739990234375</LongitudeDegrees>
            </Position>
            <AltitudeMeters>-54.59999847412109375</AltitudeMeters>
            <DistanceMeters>NAN</DistanceMeters>
          </Trackpoint>
          <Trackpoint>
            <Time>2022-07-12T12:14:50.000Z</Time>
            <Position>
              <LatitudeDegrees>43.2793372683227062225341796875</LatitudeDegrees>
              <LongitudeDegrees>-2.97867114655673503875732421875</LongitudeDegrees>
            </Position>
            <AltitudeMeters>-54.40000152587890625</AltitudeMeters>
            <DistanceMeters>NAN</DistanceMeters>
          </Trackpoint>
          <Trackpoint>
            <Time>2022-07-12T12:14:53.000Z</Time>
            <Position>
              <LatitudeDegrees>43.2794200815260410308837890625</LatitudeDegrees>
              <LongitudeDegrees>-2.97869109548628330230712890625</LongitudeDegrees>
            </Position>
            <AltitudeMeters>-54.59999847412109375</AltitudeMeters>
            <DistanceMeters>NAN</DistanceMeters>
          </Trackpoint>
          <Trackpoint>
            <Time>2022-07-12T12:14:56.000Z</Time>
            <Position>
              <LatitudeDegrees>43.2795028947293758392333984375</LatitudeDegrees>
              <LongitudeDegrees>-2.9786794446408748626708984375</LongitudeDegrees>
            </Position>
            <AltitudeMeters>-54.799999237060546875</AltitudeMeters>
            <DistanceMeters>NAN</DistanceMeters>
          </Trackpoint>
          <Trackpoint>
            <Time>2022-07-12T12:14:58.000Z</Time>
            <Position>
              <LatitudeDegrees>43.27956131659448146820068359375</LatitudeDegrees>
              <LongitudeDegrees>-2.97860048711299896240234375</LongitudeDegrees>
            </Position>
            <AltitudeMeters>-55</AltitudeMeters>
            <DistanceMeters>NAN</DistanceMeters>
          </Trackpoint>
          <Trackpoint>
            <Time>2022-07-12T12:15:04.000Z</Time>
            <Position>
              <LatitudeDegrees>43.279768265783786773681640625</LatitudeDegrees>
              <LongitudeDegrees>-2.9785138182342052459716796875</LongitudeDegrees>
            </Position>
            <AltitudeMeters>-54.200000762939453125</AltitudeMeters>
            <DistanceMeters>NAN</DistanceMeters>
          </Trackpoint>
          <Trackpoint>
            <Time>2022-07-12T12:15:11.000Z</Time>
            <Position>
              <LatitudeDegrees>43.28010513447225093841552734375</LatitudeDegrees>
              <LongitudeDegrees>-2.9782940447330474853515625</LongitudeDegrees>
            </Position>
            <AltitudeMeters>-54.40000152587890625</AltitudeMeters>
            <DistanceMeters>NAN</DistanceMeters>
          </Trackpoint>
          <Trackpoint>
            <Time>2022-07-12T12:15:14.000Z</Time>
            <Position>
              <LatitudeDegrees>43.28023605979979038238525390625</LatitudeDegrees>
              <LongitudeDegrees>-2.97827568836510181427001953125</LongitudeDegrees>
            </Position>
            <AltitudeMeters>-55</AltitudeMeters>
            <DistanceMeters>NAN</DistanceMeters>
          </Trackpoint>
          <Trackpoint>
            <Time>2022-07-12T12:15:15.000Z</Time>
            <Position>
              <LatitudeDegrees>43.2802763767540454864501953125</LatitudeDegrees>
              <LongitudeDegrees>-2.9782606847584247589111328125</LongitudeDegrees>
            </Position>
            <AltitudeMeters>-55</AltitudeMeters>
            <DistanceMeters>NAN</DistanceMeters>
          </Trackpoint>
          <Trackpoint>
            <Time>2022-07-12T12:15:19.000Z</Time>
            <Position>
              <LatitudeDegrees>43.280449211597442626953125</LatitudeDegrees>
              <LongitudeDegrees>-2.97820293344557285308837890625</LongitudeDegrees>
            </Position>
            <AltitudeMeters>-55.200000762939453125</AltitudeMeters>
            <DistanceMeters>NAN</DistanceMeters>
          </Trackpoint>
          <Trackpoint>
            <Time>2022-07-12T12:15:24.000Z</Time>
            <Position>
              <LatitudeDegrees>43.28070410527288913726806640625</LatitudeDegrees>
              <LongitudeDegrees>-2.97812850214540958404541015625</LongitudeDegrees>
            </Position>
            <AltitudeMeters>-55.40000152587890625</AltitudeMeters>
            <DistanceMeters>NAN</DistanceMeters>
          </Trackpoint>
          <Trackpoint>
            <Time>2022-07-12T12:15:25.000Z</Time>
            <Position>
              <LatitudeDegrees>43.2807417400181293487548828125</LatitudeDegrees>
              <LongitudeDegrees>-2.9781185276806354522705078125</LongitudeDegrees>
            </Position>
            <AltitudeMeters>-55.40000152587890625</AltitudeMeters>
            <DistanceMeters>NAN</DistanceMeters>
          </Trackpoint>
          <Trackpoint>
            <Time>2022-07-12T12:15:28.000Z</Time>
            <Position>
              <LatitudeDegrees>43.28088616020977497100830078125</LatitudeDegrees>
              <LongitudeDegrees>-2.97809229232370853424072265625</LongitudeDegrees>
            </Position>
            <AltitudeMeters>-55.799999237060546875</AltitudeMeters>
            <DistanceMeters>NAN</DistanceMeters>
          </Trackpoint>
          <Trackpoint>
            <Time>2022-07-12T12:15:30.000Z</Time>
            <Position>
              <LatitudeDegrees>43.28100065700709819793701171875</LatitudeDegrees>
              <LongitudeDegrees>-2.97806379385292530059814453125</LongitudeDegrees>
            </Position>
            <AltitudeMeters>-56.200000762939453125</AltitudeMeters>
            <DistanceMeters>NAN</DistanceMeters>
          </Trackpoint>
          <Trackpoint>
            <Time>2022-07-12T12:15:32.000Z</Time>
            <Position>
              <LatitudeDegrees>43.28108665533363819122314453125</LatitudeDegrees>
              <LongitudeDegrees>-2.9780135862529277801513671875</LongitudeDegrees>
            </Position>
            <AltitudeMeters>-56.200000762939453125</AltitudeMeters>
            <DistanceMeters>NAN</DistanceMeters>
          </Trackpoint>
          <Trackpoint>
            <Time>2022-07-12T12:15:33.000Z</Time>
            <Position>
              <LatitudeDegrees>43.28114231117069721221923828125</LatitudeDegrees>
              <LongitudeDegrees>-2.97800092957913875579833984375</LongitudeDegrees>
            </Position>
            <AltitudeMeters>-56.40000152587890625</AltitudeMeters>
            <DistanceMeters>NAN</DistanceMeters>
          </Trackpoint>
          <Trackpoint>
            <Time>2022-07-12T12:15:36.000Z</Time>
            <Position>
              <LatitudeDegrees>43.28131397254765033721923828125</LatitudeDegrees>
              <LongitudeDegrees>-2.977978885173797607421875</LongitudeDegrees>
            </Position>
            <AltitudeMeters>-56.59999847412109375</AltitudeMeters>
            <DistanceMeters>NAN</DistanceMeters>
          </Trackpoint>
          <Trackpoint>
            <Time>2022-07-12T12:15:39.000Z</Time>
            <Position>
              <LatitudeDegrees>43.2814954407513141632080078125</LatitudeDegrees>
              <LongitudeDegrees>-2.977908812463283538818359375</LongitudeDegrees>
            </Position>
            <AltitudeMeters>-56.799999237060546875</AltitudeMeters>
            <DistanceMeters>NAN</DistanceMeters>
          </Trackpoint>
          <Trackpoint>
            <Time>2022-07-12T12:15:43.000Z</Time>
            <Position>
              <LatitudeDegrees>43.2817110233008861541748046875</LatitudeDegrees>
              <LongitudeDegrees>-2.97783010639250278472900390625</LongitudeDegrees>
            </Position>
            <AltitudeMeters>-56.799999237060546875</AltitudeMeters>
            <DistanceMeters>NAN</DistanceMeters>
          </Trackpoint>
          <Trackpoint>
            <Time>2022-07-12T12:15:44.000Z</Time>
            <Position>
              <LatitudeDegrees>43.28176324255764484405517578125</LatitudeDegrees>
              <LongitudeDegrees>-2.97780378721654415130615234375</LongitudeDegrees>
            </Position>
            <AltitudeMeters>-56.799999237060546875</AltitudeMeters>
            <DistanceMeters>NAN</DistanceMeters>
          </Trackpoint>
          <Trackpoint>
            <Time>2022-07-12T12:15:46.000Z</Time>
            <Position>
              <LatitudeDegrees>43.2818615622818470001220703125</LatitudeDegrees>
              <LongitudeDegrees>-2.9777470417320728302001953125</LongitudeDegrees>
            </Position>
            <AltitudeMeters>-57</AltitudeMeters>
            <DistanceMeters>NAN</DistanceMeters>
          </Trackpoint>
          <Trackpoint>
            <Time>2022-07-12T12:15:54.000Z</Time>
            <Position>
              <LatitudeDegrees>43.28223849646747112274169921875</LatitudeDegrees>
              <LongitudeDegrees>-2.977550737559795379638671875</LongitudeDegrees>
            </Position>
            <AltitudeMeters>-57</AltitudeMeters>
            <DistanceMeters>NAN</DistanceMeters>
          </Trackpoint>
          <Trackpoint>
            <Time>2022-07-12T12:15:58.000Z</Time>
            <Position>
              <LatitudeDegrees>43.28242759220302104949951171875</LatitudeDegrees>
              <LongitudeDegrees>-2.9774372465908527374267578125</LongitudeDegrees>
            </Position>
            <AltitudeMeters>-58</AltitudeMeters>
            <DistanceMeters>NAN</DistanceMeters>
          </Trackpoint>
          <Trackpoint>
            <Time>2022-07-12T12:16:03.000Z</Time>
            <Position>
              <LatitudeDegrees>43.28269422054290771484375</LatitudeDegrees>
              <LongitudeDegrees>-2.97729735262691974639892578125</LongitudeDegrees>
            </Position>
            <AltitudeMeters>-58</AltitudeMeters>
            <DistanceMeters>NAN</DistanceMeters>
          </Trackpoint>
          <Trackpoint>
            <Time>2022-07-12T12:16:11.000Z</Time>
            <Position>
              <LatitudeDegrees>43.28312748111784458160400390625</LatitudeDegrees>
              <LongitudeDegrees>-2.977082021534442901611328125</LongitudeDegrees>
            </Position>
            <AltitudeMeters>-58.200000762939453125</AltitudeMeters>
            <DistanceMeters>NAN</DistanceMeters>
          </Trackpoint>
          <Trackpoint>
            <Time>2022-07-12T12:16:14.000Z</Time>
            <Position>
              <LatitudeDegrees>43.28327332623302936553955078125</LatitudeDegrees>
              <LongitudeDegrees>-2.97701672650873661041259765625</LongitudeDegrees>
            </Position>
            <AltitudeMeters>-58.200000762939453125</AltitudeMeters>
            <DistanceMeters>NAN</DistanceMeters>
          </Trackpoint>
          <Trackpoint>
            <Time>2022-07-12T12:16:16.000Z</Time>
            <Position>
              <LatitudeDegrees>43.28337005339562892913818359375</LatitudeDegrees>
              <LongitudeDegrees>-2.97697297297418117523193359375</LongitudeDegrees>
            </Position>
            <AltitudeMeters>-58.200000762939453125</AltitudeMeters>
            <DistanceMeters>NAN</DistanceMeters>
          </Trackpoint>
          <Trackpoint>
            <Time>2022-07-12T12:16:22.000Z</Time>
            <Position>
              <LatitudeDegrees>43.28367833979427814483642578125</LatitudeDegrees>
              <LongitudeDegrees>-2.976833246648311614990234375</LongitudeDegrees>
            </Position>
            <AltitudeMeters>-58.200000762939453125</AltitudeMeters>
            <DistanceMeters>NAN</DistanceMeters>
          </Trackpoint>
          <Trackpoint>
            <Time>2022-07-12T12:16:29.000Z</Time>
            <Position>
              <LatitudeDegrees>43.28401051461696624755859375</LatitudeDegrees>
              <LongitudeDegrees>-2.97667306847870349884033203125</LongitudeDegrees>
            </Position>
            <AltitudeMeters>-58.40000152587890625</AltitudeMeters>
            <DistanceMeters>NAN</DistanceMeters>
          </Trackpoint>
          <Trackpoint>
            <Time>2022-07-12T12:16:35.000Z</Time>
            <Position>
              <LatitudeDegrees>43.284269012510776519775390625</LatitudeDegrees>
              <LongitudeDegrees>-2.97657131217420101165771484375</LongitudeDegrees>
            </Position>
            <AltitudeMeters>-58.40000152587890625</AltitudeMeters>
            <DistanceMeters>NAN</DistanceMeters>
          </Trackpoint>
          <Trackpoint>
            <Time>2022-07-12T12:16:36.000Z</Time>
            <Position>
              <LatitudeDegrees>43.2843050546944141387939453125</LatitudeDegrees>
              <LongitudeDegrees>-2.97655907459557056427001953125</LongitudeDegrees>
            </Position>
            <AltitudeMeters>-58.59999847412109375</AltitudeMeters>
            <DistanceMeters>NAN</DistanceMeters>
          </Trackpoint>
          <Trackpoint>
            <Time>2022-07-12T12:16:39.000Z</Time>
            <Position>
              <LatitudeDegrees>43.2844284363090991973876953125</LatitudeDegrees>
              <LongitudeDegrees>-2.97650693915784358978271484375</LongitudeDegrees>
            </Position>
            <AltitudeMeters>-58.799999237060546875</AltitudeMeters>
            <DistanceMeters>NAN</DistanceMeters>
          </Trackpoint>
          <Trackpoint>
            <Time>2022-07-12T12:16:40.000Z</Time>
            <Position>
              <LatitudeDegrees>43.28446959145367145538330078125</LatitudeDegrees>
              <LongitudeDegrees>-2.97649017535150051116943359375</LongitudeDegrees>
            </Position>
            <AltitudeMeters>-59</AltitudeMeters>
            <DistanceMeters>NAN</DistanceMeters>
          </Trackpoint>
          <Trackpoint>
            <Time>2022-07-12T12:16:42.000Z</Time>
            <Position>
              <LatitudeDegrees>43.2845658995211124420166015625</LatitudeDegrees>
              <LongitudeDegrees>-2.9764545522630214691162109375</LongitudeDegrees>
            </Position>
            <AltitudeMeters>-59.200000762939453125</AltitudeMeters>
            <DistanceMeters>NAN</DistanceMeters>
          </Trackpoint>
          <Trackpoint>
            <Time>2022-07-12T12:16:49.000Z</Time>
            <Position>
              <LatitudeDegrees>43.284928835928440093994140625</LatitudeDegrees>
              <LongitudeDegrees>-2.976276688277721405029296875</LongitudeDegrees>
            </Position>
            <AltitudeMeters>-59.200000762939453125</AltitudeMeters>
            <DistanceMeters>NAN</DistanceMeters>
          </Trackpoint>
          <Trackpoint>
            <Time>2022-07-12T12:16:50.000Z</Time>
            <Position>
              <LatitudeDegrees>43.28497745096683502197265625</LatitudeDegrees>
              <LongitudeDegrees>-2.9762582480907440185546875</LongitudeDegrees>
            </Position>
            <AltitudeMeters>-59.200000762939453125</AltitudeMeters>
            <DistanceMeters>NAN</DistanceMeters>
          </Trackpoint>
          <Trackpoint>
            <Time>2022-07-12T12:16:53.000Z</Time>
            <Position>
              <LatitudeDegrees>43.28512103296816349029541015625</LatitudeDegrees>
              <LongitudeDegrees>-2.97621927224099636077880859375</LongitudeDegrees>
            </Position>
            <AltitudeMeters>-59</AltitudeMeters>
            <DistanceMeters>NAN</DistanceMeters>
          </Trackpoint>
          <Trackpoint>
            <Time>2022-07-12T12:16:59.000Z</Time>
            <Position>
              <LatitudeDegrees>43.28542361967265605926513671875</LatitudeDegrees>
              <LongitudeDegrees>-2.97615372575819492340087890625</LongitudeDegrees>
            </Position>
            <AltitudeMeters>-59</AltitudeMeters>
            <DistanceMeters>NAN</DistanceMeters>
          </Trackpoint>
          <Trackpoint>
            <Time>2022-07-12T12:17:11.000Z</Time>
            <Position>
              <LatitudeDegrees>43.2859985344111919403076171875</LatitudeDegrees>
              <LongitudeDegrees>-2.97595809213817119598388671875</LongitudeDegrees>
            </Position>
            <AltitudeMeters>-59.200000762939453125</AltitudeMeters>
            <DistanceMeters>NAN</DistanceMeters>
          </Trackpoint>
          <Trackpoint>
            <Time>2022-07-12T12:17:12.000Z</Time>
            <Position>
              <LatitudeDegrees>43.2860501669347286224365234375</LatitudeDegrees>
              <LongitudeDegrees>-2.97594518400728702545166015625</LongitudeDegrees>
            </Position>
            <AltitudeMeters>-59.200000762939453125</AltitudeMeters>
            <DistanceMeters>NAN</DistanceMeters>
          </Trackpoint>
          <Trackpoint>
            <Time>2022-07-12T12:17:21.000Z</Time>
            <Position>
              <LatitudeDegrees>43.28647756017744541168212890625</LatitudeDegrees>
              <LongitudeDegrees>-2.97585113905370235443115234375</LongitudeDegrees>
            </Position>
            <AltitudeMeters>-59</AltitudeMeters>
            <DistanceMeters>NAN</DistanceMeters>
          </Trackpoint>
          <Trackpoint>
            <Time>2022-07-12T12:17:31.000Z</Time>
            <Position>
              <LatitudeDegrees>43.2869039475917816162109375</LatitudeDegrees>
              <LongitudeDegrees>-2.9757821559906005859375</LongitudeDegrees>
            </Position>
            <AltitudeMeters>-59.200000762939453125</AltitudeMeters>
            <DistanceMeters>NAN</DistanceMeters>
          </Trackpoint>
          <Trackpoint>
            <Time>2022-07-12T12:17:32.000Z</Time>
            <Position>
              <LatitudeDegrees>43.28694325871765613555908203125</LatitudeDegrees>
              <LongitudeDegrees>-2.97577687539160251617431640625</LongitudeDegrees>
            </Position>
            <AltitudeMeters>-59.40000152587890625</AltitudeMeters>
            <DistanceMeters>NAN</DistanceMeters>
          </Trackpoint>
          <Trackpoint>
            <Time>2022-07-12T12:17:40.000Z</Time>
            <Position>
              <LatitudeDegrees>43.2872524671256542205810546875</LatitudeDegrees>
              <LongitudeDegrees>-2.9757209680974483489990234375</LongitudeDegrees>
            </Position>
            <AltitudeMeters>-60</AltitudeMeters>
            <DistanceMeters>NAN</DistanceMeters>
          </Trackpoint>
          <Trackpoint>
            <Time>2022-07-12T12:17:41.000Z</Time>
            <Position>
              <LatitudeDegrees>43.28730267472565174102783203125</LatitudeDegrees>
              <LongitudeDegrees>-2.97571082599461078643798828125</LongitudeDegrees>
            </Position>
            <AltitudeMeters>-60</AltitudeMeters>
            <DistanceMeters>NAN</DistanceMeters>
          </Trackpoint>
          <Trackpoint>
            <Time>2022-07-12T12:17:52.000Z</Time>
            <Position>
              <LatitudeDegrees>43.2877107895910739898681640625</LatitudeDegrees>
              <LongitudeDegrees>-2.975634634494781494140625</LongitudeDegrees>
            </Position>
            <AltitudeMeters>-60</AltitudeMeters>
            <DistanceMeters>NAN</DistanceMeters>
          </Trackpoint>
          <Trackpoint>
            <Time>2022-07-12T12:18:01.000Z</Time>
            <Position>
              <LatitudeDegrees>43.2880521006882190704345703125</LatitudeDegrees>
              <LongitudeDegrees>-2.9755841754376888275146484375</LongitudeDegrees>
            </Position>
            <AltitudeMeters>-59.59999847412109375</AltitudeMeters>
            <DistanceMeters>NAN</DistanceMeters>
          </Trackpoint>
          <Trackpoint>
            <Time>2022-07-12T12:18:09.000Z</Time>
            <Position>
              <LatitudeDegrees>43.288366086781024932861328125</LatitudeDegrees>
              <LongitudeDegrees>-2.97558442689478397369384765625</LongitudeDegrees>
            </Position>
            <AltitudeMeters>-59.59999847412109375</AltitudeMeters>
            <DistanceMeters>NAN</DistanceMeters>
          </Trackpoint>
          <Trackpoint>
            <Time>2022-07-12T12:18:17.000Z</Time>
            <Position>
              <LatitudeDegrees>43.2886488921940326690673828125</LatitudeDegrees>
              <LongitudeDegrees>-2.975653745234012603759765625</LongitudeDegrees>
            </Position>
            <AltitudeMeters>-59.799999237060546875</AltitudeMeters>
            <DistanceMeters>NAN</DistanceMeters>
          </Trackpoint>
          <Trackpoint>
            <Time>2022-07-12T12:18:22.000Z</Time>
            <Position>
              <LatitudeDegrees>43.28882399015128612518310546875</LatitudeDegrees>
              <LongitudeDegrees>-2.97568651847541332244873046875</LongitudeDegrees>
            </Position>
            <AltitudeMeters>-60</AltitudeMeters>
            <DistanceMeters>NAN</DistanceMeters>
          </Trackpoint>
          <Trackpoint>
            <Time>2022-07-12T12:18:31.000Z</Time>
            <Position>
              <LatitudeDegrees>43.28911341726779937744140625</LatitudeDegrees>
              <LongitudeDegrees>-2.9757290147244930267333984375</LongitudeDegrees>
            </Position>
            <AltitudeMeters>-60.59999847412109375</AltitudeMeters>
            <DistanceMeters>NAN</DistanceMeters>
          </Trackpoint>
          <Trackpoint>
            <Time>2022-07-12T12:18:32.000Z</Time>
            <Position>
              <LatitudeDegrees>43.28913328237831592559814453125</LatitudeDegrees>
              <LongitudeDegrees>-2.975744269788265228271484375</LongitudeDegrees>
            </Position>
            <AltitudeMeters>-60.59999847412109375</AltitudeMeters>
            <DistanceMeters>NAN</DistanceMeters>
          </Trackpoint>
          <Trackpoint>
            <Time>2022-07-12T12:18:34.000Z</Time>
            <Position>
              <LatitudeDegrees>43.2891571708023548126220703125</LatitudeDegrees>
              <LongitudeDegrees>-2.97580269165337085723876953125</LongitudeDegrees>
            </Position>
            <AltitudeMeters>-60.40000152587890625</AltitudeMeters>
            <DistanceMeters>NAN</DistanceMeters>
          </Trackpoint>
          <Trackpoint>
            <Time>2022-07-12T12:18:40.000Z</Time>
            <Position>
              <LatitudeDegrees>43.28915222547948360443115234375</LatitudeDegrees>
              <LongitudeDegrees>-2.97600855119526386260986328125</LongitudeDegrees>
            </Position>
            <AltitudeMeters>-59.40000152587890625</AltitudeMeters>
            <DistanceMeters>NAN</DistanceMeters>
          </Trackpoint>
          <Trackpoint>
            <Time>2022-07-12T12:18:43.000Z</Time>
            <Position>
              <LatitudeDegrees>43.289144597947597503662109375</LatitudeDegrees>
              <LongitudeDegrees>-2.976107709109783172607421875</LongitudeDegrees>
            </Position>
            <AltitudeMeters>-59</AltitudeMeters>
            <DistanceMeters>NAN</DistanceMeters>
          </Trackpoint>
          <Trackpoint>
            <Time>2022-07-12T12:18:45.000Z</Time>
            <Position>
              <LatitudeDegrees>43.28913512639701366424560546875</LatitudeDegrees>
              <LongitudeDegrees>-2.97617719508707523345947265625</LongitudeDegrees>
            </Position>
            <AltitudeMeters>-58.799999237060546875</AltitudeMeters>
            <DistanceMeters>NAN</DistanceMeters>
          </Trackpoint>
          <Trackpoint>
            <Time>2022-07-12T12:18:49.000Z</Time>
            <Position>
              <LatitudeDegrees>43.28913353383541107177734375</LatitudeDegrees>
              <LongitudeDegrees>-2.9763066954910755157470703125</LongitudeDegrees>
            </Position>
            <AltitudeMeters>-58.59999847412109375</AltitudeMeters>
            <DistanceMeters>NAN</DistanceMeters>
          </Trackpoint>
          <Trackpoint>
            <Time>2022-07-12T12:18:51.000Z</Time>
            <Position>
              <LatitudeDegrees>43.28913210891187191009521484375</LatitudeDegrees>
              <LongitudeDegrees>-2.97637157142162322998046875</LongitudeDegrees>
            </Position>
            <AltitudeMeters>-58.40000152587890625</AltitudeMeters>
            <DistanceMeters>NAN</DistanceMeters>
          </Trackpoint>
          <Trackpoint>
            <Time>2022-07-12T12:18:53.000Z</Time>
            <Position>
              <LatitudeDegrees>43.2891263253986835479736328125</LatitudeDegrees>
              <LongitudeDegrees>-2.97643803991377353668212890625</LongitudeDegrees>
            </Position>
            <AltitudeMeters>-58.40000152587890625</AltitudeMeters>
            <DistanceMeters>NAN</DistanceMeters>
          </Trackpoint>
          <Trackpoint>
            <Time>2022-07-12T12:18:56.000Z</Time>
            <Position>
              <LatitudeDegrees>43.28912439756095409393310546875</LatitudeDegrees>
              <LongitudeDegrees>-2.97653677873313426971435546875</LongitudeDegrees>
            </Position>
            <AltitudeMeters>-57.799999237060546875</AltitudeMeters>
            <DistanceMeters>NAN</DistanceMeters>
          </Trackpoint>
          <Trackpoint>
            <Time>2022-07-12T12:19:02.000Z</Time>
            <Position>
              <LatitudeDegrees>43.2891155965626239776611328125</LatitudeDegrees>
              <LongitudeDegrees>-2.9767355136573314666748046875</LongitudeDegrees>
            </Position>
            <AltitudeMeters>-57.200000762939453125</AltitudeMeters>
            <DistanceMeters>NAN</DistanceMeters>
          </Trackpoint>
          <Trackpoint>
            <Time>2022-07-12T12:19:07.000Z</Time>
            <Position>
              <LatitudeDegrees>43.289127163589000701904296875</LatitudeDegrees>
              <LongitudeDegrees>-2.97689870931208133697509765625</LongitudeDegrees>
            </Position>
            <AltitudeMeters>-56.799999237060546875</AltitudeMeters>
            <DistanceMeters>NAN</DistanceMeters>
          </Trackpoint>
          <Trackpoint>
            <Time>2022-07-12T12:19:10.000Z</Time>
            <Position>
              <LatitudeDegrees>43.28916546888649463653564453125</LatitudeDegrees>
              <LongitudeDegrees>-2.9769618250429630279541015625</LongitudeDegrees>
            </Position>
            <AltitudeMeters>-56.40000152587890625</AltitudeMeters>
            <DistanceMeters>NAN</DistanceMeters>
          </Trackpoint>
          <Trackpoint>
            <Time>2022-07-12T12:19:13.000Z</Time>
            <Position>
              <LatitudeDegrees>43.28922246582806110382080078125</LatitudeDegrees>
              <LongitudeDegrees>-2.9769797623157501220703125</LongitudeDegrees>
            </Position>
            <AltitudeMeters>-56.200000762939453125</AltitudeMeters>
            <DistanceMeters>NAN</DistanceMeters>
          </Trackpoint>
          <Trackpoint>
            <Time>2022-07-12T12:19:14.000Z</Time>
            <Position>
              <LatitudeDegrees>43.28924275003373622894287109375</LatitudeDegrees>
              <LongitudeDegrees>-2.97696257941424846649169921875</LongitudeDegrees>
            </Position>
            <AltitudeMeters>-56.200000762939453125</AltitudeMeters>
            <DistanceMeters>NAN</DistanceMeters>
          </Trackpoint>
          <Trackpoint>
            <Time>2022-07-12T12:19:15.000Z</Time>
            <Position>
              <LatitudeDegrees>43.28925850801169872283935546875</LatitudeDegrees>
              <LongitudeDegrees>-2.9769314825534820556640625</LongitudeDegrees>
            </Position>
            <AltitudeMeters>-56</AltitudeMeters>
            <DistanceMeters>NAN</DistanceMeters>
          </Trackpoint>
          <Trackpoint>
            <Time>2022-07-12T12:19:18.000Z</Time>
            <Position>
              <LatitudeDegrees>43.289268314838409423828125</LatitudeDegrees>
              <LongitudeDegrees>-2.97680399380624294281005859375</LongitudeDegrees>
            </Position>
            <AltitudeMeters>-56</AltitudeMeters>
            <DistanceMeters>NAN</DistanceMeters>
          </Trackpoint>
          <Trackpoint>
            <Time>2022-07-12T12:19:22.000Z</Time>
            <Position>
              <LatitudeDegrees>43.2892698235809803009033203125</LatitudeDegrees>
              <LongitudeDegrees>-2.9766208492219448089599609375</LongitudeDegrees>
            </Position>
            <AltitudeMeters>-56</AltitudeMeters>
            <DistanceMeters>NAN</DistanceMeters>
          </Trackpoint>
          <Trackpoint>
            <Time>2022-07-12T12:19:26.000Z</Time>
            <Position>
              <LatitudeDegrees>43.28927300870418548583984375</LatitudeDegrees>
              <LongitudeDegrees>-2.97642513178288936614990234375</LongitudeDegrees>
            </Position>
            <AltitudeMeters>-56</AltitudeMeters>
            <DistanceMeters>NAN</DistanceMeters>
          </Trackpoint>
          <Trackpoint>
            <Time>2022-07-12T12:19:33.000Z</Time>
            <Position>
              <LatitudeDegrees>43.28928734175860881805419921875</LatitudeDegrees>
              <LongitudeDegrees>-2.97608851455152034759521484375</LongitudeDegrees>
            </Position>
            <AltitudeMeters>-55.799999237060546875</AltitudeMeters>
            <DistanceMeters>NAN</DistanceMeters>
          </Trackpoint>
          <Trackpoint>
            <Time>2022-07-12T12:19:34.000Z</Time>
            <Position>
              <LatitudeDegrees>43.28928801231086254119873046875</LatitudeDegrees>
              <LongitudeDegrees>-2.97604341991245746612548828125</LongitudeDegrees>
            </Position>
            <AltitudeMeters>-55.799999237060546875</AltitudeMeters>
            <DistanceMeters>NAN</DistanceMeters>
          </Trackpoint>
          <Trackpoint>
            <Time>2022-07-12T12:19:36.000Z</Time>
            <Position>
              <LatitudeDegrees>43.2892885990440845489501953125</LatitudeDegrees>
              <LongitudeDegrees>-2.9759566672146320343017578125</LongitudeDegrees>
            </Position>
            <AltitudeMeters>-55.799999237060546875</AltitudeMeters>
            <DistanceMeters>NAN</DistanceMeters>
          </Trackpoint>
          <Trackpoint>
            <Time>2022-07-12T12:19:45.000Z</Time>
            <Position>
              <LatitudeDegrees>43.28931164927780628204345703125</LatitudeDegrees>
              <LongitudeDegrees>-2.97556229867041110992431640625</LongitudeDegrees>
            </Position>
            <AltitudeMeters>-55.40000152587890625</AltitudeMeters>
            <DistanceMeters>NAN</DistanceMeters>
          </Trackpoint>
          <Trackpoint>
            <Time>2022-07-12T12:19:52.000Z</Time>
            <Position>
              <LatitudeDegrees>43.28934811055660247802734375</LatitudeDegrees>
              <LongitudeDegrees>-2.975260131061077117919921875</LongitudeDegrees>
            </Position>
            <AltitudeMeters>-55.59999847412109375</AltitudeMeters>
            <DistanceMeters>NAN</DistanceMeters>
          </Trackpoint>
          <Trackpoint>
            <Time>2022-07-12T12:19:58.000Z</Time>
            <Position>
              <LatitudeDegrees>43.28942120075225830078125</LatitudeDegrees>
              <LongitudeDegrees>-2.97498285770416259765625</LongitudeDegrees>
            </Position>
            <AltitudeMeters>-55.59999847412109375</AltitudeMeters>
            <DistanceMeters>NAN</DistanceMeters>
          </Trackpoint>
          <Trackpoint>
            <Time>2022-07-12T12:20:06.000Z</Time>
            <Position>
              <LatitudeDegrees>43.2895833067595958709716796875</LatitudeDegrees>
              <LongitudeDegrees>-2.97461296431720256805419921875</LongitudeDegrees>
            </Position>
            <AltitudeMeters>-56</AltitudeMeters>
            <DistanceMeters>NAN</DistanceMeters>
          </Trackpoint>
          <Trackpoint>
            <Time>2022-07-12T12:20:07.000Z</Time>
            <Position>
              <LatitudeDegrees>43.289615996181964874267578125</LatitudeDegrees>
              <LongitudeDegrees>-2.9745703004300594329833984375</LongitudeDegrees>
            </Position>
            <AltitudeMeters>-56.200000762939453125</AltitudeMeters>
            <DistanceMeters>NAN</DistanceMeters>
          </Trackpoint>
          <Trackpoint>
            <Time>2022-07-12T12:20:10.000Z</Time>
            <Position>
              <LatitudeDegrees>43.28974080272018909454345703125</LatitudeDegrees>
              <LongitudeDegrees>-2.974433004856109619140625</LongitudeDegrees>
            </Position>
            <AltitudeMeters>-56.40000152587890625</AltitudeMeters>
            <DistanceMeters>NAN</DistanceMeters>
          </Trackpoint>
          <Trackpoint>
            <Time>2022-07-12T12:20:13.000Z</Time>
            <Position>
              <LatitudeDegrees>43.2898682914674282073974609375</LatitudeDegrees>
              <LongitudeDegrees>-2.97432043589651584625244140625</LongitudeDegrees>
            </Position>
            <AltitudeMeters>-56</AltitudeMeters>
            <DistanceMeters>NAN</DistanceMeters>
          </Trackpoint>
          <Trackpoint>
            <Time>2022-07-12T12:20:16.000Z</Time>
            <Position>
              <LatitudeDegrees>43.29000382684171199798583984375</LatitudeDegrees>
              <LongitudeDegrees>-2.974232845008373260498046875</LongitudeDegrees>
            </Position>
            <AltitudeMeters>-56</AltitudeMeters>
            <DistanceMeters>NAN</DistanceMeters>
          </Trackpoint>
          <Trackpoint>
            <Time>2022-07-12T12:20:23.000Z</Time>
            <Position>
              <LatitudeDegrees>43.29035452567040920257568359375</LatitudeDegrees>
              <LongitudeDegrees>-2.9741079546511173248291015625</LongitudeDegrees>
            </Position>
            <AltitudeMeters>-56.799999237060546875</AltitudeMeters>
            <DistanceMeters>NAN</DistanceMeters>
          </Trackpoint>
          <Trackpoint>
            <Time>2022-07-12T12:20:26.000Z</Time>
            <Position>
              <LatitudeDegrees>43.2905153743922710418701171875</LatitudeDegrees>
              <LongitudeDegrees>-2.974056489765644073486328125</LongitudeDegrees>
            </Position>
            <AltitudeMeters>-57</AltitudeMeters>
            <DistanceMeters>NAN</DistanceMeters>
          </Trackpoint>
          <Trackpoint>
            <Time>2022-07-12T12:20:27.000Z</Time>
            <Position>
              <LatitudeDegrees>43.29057061113417148590087890625</LatitudeDegrees>
              <LongitudeDegrees>-2.97404064796864986419677734375</LongitudeDegrees>
            </Position>
            <AltitudeMeters>-57</AltitudeMeters>
            <DistanceMeters>NAN</DistanceMeters>
          </Trackpoint>
          <Trackpoint>
            <Time>2022-07-12T12:20:28.000Z</Time>
            <Position>
              <LatitudeDegrees>43.2906276918947696685791015625</LatitudeDegrees>
              <LongitudeDegrees>-2.97402606345713138580322265625</LongitudeDegrees>
            </Position>
            <AltitudeMeters>-57</AltitudeMeters>
            <DistanceMeters>NAN</DistanceMeters>
          </Trackpoint>
          <Trackpoint>
            <Time>2022-07-12T12:20:30.000Z</Time>
            <Position>
              <LatitudeDegrees>43.29073623754084110260009765625</LatitudeDegrees>
              <LongitudeDegrees>-2.97399605624377727508544921875</LongitudeDegrees>
            </Position>
            <AltitudeMeters>-57</AltitudeMeters>
            <DistanceMeters>NAN</DistanceMeters>
          </Trackpoint>
          <Trackpoint>
            <Time>2022-07-12T12:20:33.000Z</Time>
            <Position>
              <LatitudeDegrees>43.29090136103332042694091796875</LatitudeDegrees>
              <LongitudeDegrees>-2.973943166434764862060546875</LongitudeDegrees>
            </Position>
            <AltitudeMeters>-57</AltitudeMeters>
            <DistanceMeters>NAN</DistanceMeters>
          </Trackpoint>
          <Trackpoint>
            <Time>2022-07-12T12:20:37.000Z</Time>
            <Position>
              <LatitudeDegrees>43.29111811704933643341064453125</LatitudeDegrees>
              <LongitudeDegrees>-2.97387250699102878570556640625</LongitudeDegrees>
            </Position>
            <AltitudeMeters>-57.799999237060546875</AltitudeMeters>
            <DistanceMeters>NAN</DistanceMeters>
          </Trackpoint>
          <Trackpoint>
            <Time>2022-07-12T12:20:43.000Z</Time>
            <Position>
              <LatitudeDegrees>43.2914206199347972869873046875</LatitudeDegrees>
              <LongitudeDegrees>-2.9737689904868602752685546875</LongitudeDegrees>
            </Position>
            <AltitudeMeters>-59</AltitudeMeters>
            <DistanceMeters>NAN</DistanceMeters>
          </Trackpoint>
          <Trackpoint>
            <Time>2022-07-12T12:20:44.000Z</Time>
            <Position>
              <LatitudeDegrees>43.29146898351609706878662109375</LatitudeDegrees>
              <LongitudeDegrees>-2.9737518914043903350830078125</LongitudeDegrees>
            </Position>
            <AltitudeMeters>-59.200000762939453125</AltitudeMeters>
            <DistanceMeters>NAN</DistanceMeters>
          </Trackpoint>
          <Trackpoint>
            <Time>2022-07-12T12:20:48.000Z</Time>
            <Position>
              <LatitudeDegrees>43.29167467541992664337158203125</LatitudeDegrees>
              <LongitudeDegrees>-2.97368877567350864410400390625</LongitudeDegrees>
            </Position>
            <AltitudeMeters>-59.40000152587890625</AltitudeMeters>
            <DistanceMeters>NAN</DistanceMeters>
          </Trackpoint>
          <Trackpoint>
            <Time>2022-07-12T12:20:51.000Z</Time>
            <Position>
              <LatitudeDegrees>43.2918258011341094970703125</LatitudeDegrees>
              <LongitudeDegrees>-2.9736358858644962310791015625</LongitudeDegrees>
            </Position>
            <AltitudeMeters>-59.40000152587890625</AltitudeMeters>
            <DistanceMeters>NAN</DistanceMeters>
          </Trackpoint>
          <Trackpoint>
            <Time>2022-07-12T12:20:57.000Z</Time>
            <Position>
              <LatitudeDegrees>43.29215236008167266845703125</LatitudeDegrees>
              <LongitudeDegrees>-2.97358685173094272613525390625</LongitudeDegrees>
            </Position>
            <AltitudeMeters>-59.59999847412109375</AltitudeMeters>
            <DistanceMeters>NAN</DistanceMeters>
          </Trackpoint>
          <Trackpoint>
            <Time>2022-07-12T12:20:58.000Z</Time>
            <Position>
              <LatitudeDegrees>43.2922044955193996429443359375</LatitudeDegrees>
              <LongitudeDegrees>-2.9735949821770191192626953125</LongitudeDegrees>
            </Position>
            <AltitudeMeters>-59.59999847412109375</AltitudeMeters>
            <DistanceMeters>NAN</DistanceMeters>
          </Trackpoint>
          <Trackpoint>
            <Time>2022-07-12T12:21:05.000Z</Time>
            <Position>
              <LatitudeDegrees>43.29254932701587677001953125</LatitudeDegrees>
              <LongitudeDegrees>-2.97370973043143749237060546875</LongitudeDegrees>
            </Position>
            <AltitudeMeters>-59.40000152587890625</AltitudeMeters>
            <DistanceMeters>NAN</DistanceMeters>
          </Trackpoint>
          <Trackpoint>
            <Time>2022-07-12T12:21:11.000Z</Time>
            <Position>
              <LatitudeDegrees>43.2928334735333919525146484375</LatitudeDegrees>
              <LongitudeDegrees>-2.97385188750922679901123046875</LongitudeDegrees>
            </Position>
            <AltitudeMeters>-59.59999847412109375</AltitudeMeters>
            <DistanceMeters>NAN</DistanceMeters>
          </Trackpoint>
          <Trackpoint>
            <Time>2022-07-12T12:21:12.000Z</Time>
            <Position>
              <LatitudeDegrees>43.29286842606961727142333984375</LatitudeDegrees>
              <LongitudeDegrees>-2.97387518920004367828369140625</LongitudeDegrees>
            </Position>
            <AltitudeMeters>-59.59999847412109375</AltitudeMeters>
            <DistanceMeters>NAN</DistanceMeters>
          </Trackpoint>
          <Trackpoint>
            <Time>2022-07-12T12:21:14.000Z</Time>
            <Position>
              <LatitudeDegrees>43.29295308329164981842041015625</LatitudeDegrees>
              <LongitudeDegrees>-2.97392162494361400604248046875</LongitudeDegrees>
            </Position>
            <AltitudeMeters>-59.799999237060546875</AltitudeMeters>
            <DistanceMeters>NAN</DistanceMeters>
          </Trackpoint>
          <Trackpoint>
            <Time>2022-07-12T12:21:16.000Z</Time>
            <Position>
              <LatitudeDegrees>43.293036483228206634521484375</LatitudeDegrees>
              <LongitudeDegrees>-2.97396655194461345672607421875</LongitudeDegrees>
            </Position>
            <AltitudeMeters>-60</AltitudeMeters>
            <DistanceMeters>NAN</DistanceMeters>
          </Trackpoint>
          <Trackpoint>
            <Time>2022-07-12T12:21:20.000Z</Time>
            <Position>
              <LatitudeDegrees>43.293190710246562957763671875</LatitudeDegrees>
              <LongitudeDegrees>-2.97405405901372432708740234375</LongitudeDegrees>
            </Position>
            <AltitudeMeters>-60</AltitudeMeters>
            <DistanceMeters>NAN</DistanceMeters>
          </Trackpoint>
          <Trackpoint>
            <Time>2022-07-12T12:21:23.000Z</Time>
            <Position>
              <LatitudeDegrees>43.29330361448228359222412109375</LatitudeDegrees>
              <LongitudeDegrees>-2.974124886095523834228515625</LongitudeDegrees>
            </Position>
            <AltitudeMeters>-60</AltitudeMeters>
            <DistanceMeters>NAN</DistanceMeters>
          </Trackpoint>
          <Trackpoint>
            <Time>2022-07-12T12:21:30.000Z</Time>
            <Position>
              <LatitudeDegrees>43.29354736022651195526123046875</LatitudeDegrees>
              <LongitudeDegrees>-2.974255979061126708984375</LongitudeDegrees>
            </Position>
            <AltitudeMeters>-59.200000762939453125</AltitudeMeters>
            <DistanceMeters>NAN</DistanceMeters>
          </Trackpoint>
          <Trackpoint>
            <Time>2022-07-12T12:21:41.000Z</Time>
            <Position>
              <LatitudeDegrees>43.29389311373233795166015625</LatitudeDegrees>
              <LongitudeDegrees>-2.97448924742639064788818359375</LongitudeDegrees>
            </Position>
            <AltitudeMeters>-59.59999847412109375</AltitudeMeters>
            <DistanceMeters>NAN</DistanceMeters>
          </Trackpoint>
          <Trackpoint>
            <Time>2022-07-12T12:21:49.000Z</Time>
            <Position>
              <LatitudeDegrees>43.2941309921443462371826171875</LatitudeDegrees>
              <LongitudeDegrees>-2.97473701648414134979248046875</LongitudeDegrees>
            </Position>
            <AltitudeMeters>-59.799999237060546875</AltitudeMeters>
            <DistanceMeters>NAN</DistanceMeters>
          </Trackpoint>
          <Trackpoint>
            <Time>2022-07-12T12:21:59.000Z</Time>
            <Position>
              <LatitudeDegrees>43.29440449364483356475830078125</LatitudeDegrees>
              <LongitudeDegrees>-2.975020743906497955322265625</LongitudeDegrees>
            </Position>
            <AltitudeMeters>-60</AltitudeMeters>
            <DistanceMeters>NAN</DistanceMeters>
          </Trackpoint>
          <Trackpoint>
            <Time>2022-07-12T12:22:07.000Z</Time>
            <Position>
              <LatitudeDegrees>43.29463399015367031097412109375</LatitudeDegrees>
              <LongitudeDegrees>-2.9752014577388763427734375</LongitudeDegrees>
            </Position>
            <AltitudeMeters>-59.59999847412109375</AltitudeMeters>
            <DistanceMeters>NAN</DistanceMeters>
          </Trackpoint>
          <Trackpoint>
            <Time>2022-07-12T12:22:09.000Z</Time>
            <Position>
              <LatitudeDegrees>43.29470490105450153350830078125</LatitudeDegrees>
              <LongitudeDegrees>-2.97522551380097866058349609375</LongitudeDegrees>
            </Position>
            <AltitudeMeters>-59.59999847412109375</AltitudeMeters>
            <DistanceMeters>NAN</DistanceMeters>
          </Trackpoint>
          <Trackpoint>
            <Time>2022-07-12T12:22:15.000Z</Time>
            <Position>
              <LatitudeDegrees>43.29486834816634654998779296875</LatitudeDegrees>
              <LongitudeDegrees>-2.97529290430247783660888671875</LongitudeDegrees>
            </Position>
            <AltitudeMeters>-59</AltitudeMeters>
            <DistanceMeters>NAN</DistanceMeters>
          </Trackpoint>
          <Trackpoint>
            <Time>2022-07-12T12:22:18.000Z</Time>
            <Position>
              <LatitudeDegrees>43.29494244419038295745849609375</LatitudeDegrees>
              <LongitudeDegrees>-2.9753172956407070159912109375</LongitudeDegrees>
            </Position>
            <AltitudeMeters>-59.40000152587890625</AltitudeMeters>
            <DistanceMeters>NAN</DistanceMeters>
          </Trackpoint>
          <Trackpoint>
            <Time>2022-07-12T12:22:21.000Z</Time>
            <Position>
              <LatitudeDegrees>43.29501335509121417999267578125</LatitudeDegrees>
              <LongitudeDegrees>-2.975275553762912750244140625</LongitudeDegrees>
            </Position>
            <AltitudeMeters>-60</AltitudeMeters>
            <DistanceMeters>NAN</DistanceMeters>
          </Trackpoint>
          <Trackpoint>
            <Time>2022-07-12T12:22:22.000Z</Time>
            <Position>
              <LatitudeDegrees>43.295023329555988311767578125</LatitudeDegrees>
              <LongitudeDegrees>-2.9752388410270214080810546875</LongitudeDegrees>
            </Position>
            <AltitudeMeters>-60.200000762939453125</AltitudeMeters>
            <DistanceMeters>NAN</DistanceMeters>
          </Trackpoint>
          <Trackpoint>
            <Time>2022-07-12T12:22:28.000Z</Time>
            <Position>
              <LatitudeDegrees>43.295082338154315948486328125</LatitudeDegrees>
              <LongitudeDegrees>-2.975008673965930938720703125</LongitudeDegrees>
            </Position>
            <AltitudeMeters>-59.799999237060546875</AltitudeMeters>
            <DistanceMeters>NAN</DistanceMeters>
          </Trackpoint>
          <Trackpoint>
            <Time>2022-07-12T12:22:29.000Z</Time>
            <Position>
              <LatitudeDegrees>43.295103795826435089111328125</LatitudeDegrees>
              <LongitudeDegrees>-2.9749976098537445068359375</LongitudeDegrees>
            </Position>
            <AltitudeMeters>-59.40000152587890625</AltitudeMeters>
            <DistanceMeters>NAN</DistanceMeters>
          </Trackpoint>
          <Trackpoint>
            <Time>2022-07-12T12:22:32.000Z</Time>
            <Position>
              <LatitudeDegrees>43.29518920741975307464599609375</LatitudeDegrees>
              <LongitudeDegrees>-2.975014038383960723876953125</LongitudeDegrees>
            </Position>
            <AltitudeMeters>-59</AltitudeMeters>
            <DistanceMeters>NAN</DistanceMeters>
          </Trackpoint>
          <Trackpoint>
            <Time>2022-07-12T12:22:34.000Z</Time>
            <Position>
              <LatitudeDegrees>43.29524436034262180328369140625</LatitudeDegrees>
              <LongitudeDegrees>-2.97505016438663005828857421875</LongitudeDegrees>
            </Position>
            <AltitudeMeters>-58.799999237060546875</AltitudeMeters>
            <DistanceMeters>NAN</DistanceMeters>
          </Trackpoint>
          <Trackpoint>
            <Time>2022-07-12T12:22:38.000Z</Time>
            <Position>
              <LatitudeDegrees>43.29535936005413532257080078125</LatitudeDegrees>
              <LongitudeDegrees>-2.97511495649814605712890625</LongitudeDegrees>
            </Position>
            <AltitudeMeters>-59.200000762939453125</AltitudeMeters>
            <DistanceMeters>NAN</DistanceMeters>
          </Trackpoint>
          <Trackpoint>
            <Time>2022-07-12T12:22:39.000Z</Time>
            <Position>
              <LatitudeDegrees>43.2953849248588085174560546875</LatitudeDegrees>
              <LongitudeDegrees>-2.975135743618011474609375</LongitudeDegrees>
            </Position>
            <AltitudeMeters>-59.40000152587890625</AltitudeMeters>
            <DistanceMeters>NAN</DistanceMeters>
          </Trackpoint>
          <Trackpoint>
            <Time>2022-07-12T12:22:44.000Z</Time>
            <Position>
              <LatitudeDegrees>43.29551140777766704559326171875</LatitudeDegrees>
              <LongitudeDegrees>-2.97523842193186283111572265625</LongitudeDegrees>
            </Position>
            <AltitudeMeters>-59.799999237060546875</AltitudeMeters>
            <DistanceMeters>NAN</DistanceMeters>
          </Trackpoint>
          <Trackpoint>
            <Time>2022-07-12T12:22:46.000Z</Time>
            <Position>
              <LatitudeDegrees>43.295560777187347412109375</LatitudeDegrees>
              <LongitudeDegrees>-2.97529441304504871368408203125</LongitudeDegrees>
            </Position>
            <AltitudeMeters>-60</AltitudeMeters>
            <DistanceMeters>NAN</DistanceMeters>
          </Trackpoint>
          <Trackpoint>
            <Time>2022-07-12T12:22:53.000Z</Time>
            <Position>
              <LatitudeDegrees>43.29575615935027599334716796875</LatitudeDegrees>
              <LongitudeDegrees>-2.9754229076206684112548828125</LongitudeDegrees>
            </Position>
            <AltitudeMeters>-60.200000762939453125</AltitudeMeters>
            <DistanceMeters>NAN</DistanceMeters>
          </Trackpoint>
          <Trackpoint>
            <Time>2022-07-12T12:23:00.000Z</Time>
            <Position>
              <LatitudeDegrees>43.2959465123713016510009765625</LatitudeDegrees>
              <LongitudeDegrees>-2.97556514851748943328857421875</LongitudeDegrees>
            </Position>
            <AltitudeMeters>-60</AltitudeMeters>
            <DistanceMeters>NAN</DistanceMeters>
          </Trackpoint>
          <Trackpoint>
            <Time>2022-07-12T12:23:08.000Z</Time>
            <Position>
              <LatitudeDegrees>43.29620693810284137725830078125</LatitudeDegrees>
              <LongitudeDegrees>-2.97578207217156887054443359375</LongitudeDegrees>
            </Position>
            <AltitudeMeters>-60</AltitudeMeters>
            <DistanceMeters>NAN</DistanceMeters>
          </Trackpoint>
          <Trackpoint>
            <Time>2022-07-12T12:23:10.000Z</Time>
            <Position>
              <LatitudeDegrees>43.2962713949382305145263671875</LatitudeDegrees>
              <LongitudeDegrees>-2.97583487816154956817626953125</LongitudeDegrees>
            </Position>
            <AltitudeMeters>-60</AltitudeMeters>
            <DistanceMeters>NAN</DistanceMeters>
          </Trackpoint>
          <Trackpoint>
            <Time>2022-07-12T12:23:18.000Z</Time>
            <Position>
              <LatitudeDegrees>43.29651623032987117767333984375</LatitudeDegrees>
              <LongitudeDegrees>-2.9759685695171356201171875</LongitudeDegrees>
            </Position>
            <AltitudeMeters>-59.200000762939453125</AltitudeMeters>
            <DistanceMeters>NAN</DistanceMeters>
          </Trackpoint>
          <Trackpoint>
            <Time>2022-07-12T12:23:24.000Z</Time>
            <Position>
              <LatitudeDegrees>43.29668738879263401031494140625</LatitudeDegrees>
              <LongitudeDegrees>-2.97606177628040313720703125</LongitudeDegrees>
            </Position>
            <AltitudeMeters>-59.59999847412109375</AltitudeMeters>
            <DistanceMeters>NAN</DistanceMeters>
          </Trackpoint>
          <Trackpoint>
            <Time>2022-07-12T12:23:31.000Z</Time>
            <Position>
              <LatitudeDegrees>43.29686701297760009765625</LatitudeDegrees>
              <LongitudeDegrees>-2.97625313512980937957763671875</LongitudeDegrees>
            </Position>
            <AltitudeMeters>-59.59999847412109375</AltitudeMeters>
            <DistanceMeters>NAN</DistanceMeters>
          </Trackpoint>
          <Trackpoint>
            <Time>2022-07-12T12:23:37.000Z</Time>
            <Position>
              <LatitudeDegrees>43.29700858332216739654541015625</LatitudeDegrees>
              <LongitudeDegrees>-2.97640644013881683349609375</LongitudeDegrees>
            </Position>
            <AltitudeMeters>-59.40000152587890625</AltitudeMeters>
            <DistanceMeters>NAN</DistanceMeters>
          </Trackpoint>
          <Trackpoint>
            <Time>2022-07-12T12:23:45.000Z</Time>
            <Position>
              <LatitudeDegrees>43.29724319279193878173828125</LatitudeDegrees>
              <LongitudeDegrees>-2.97658120281994342803955078125</LongitudeDegrees>
            </Position>
            <AltitudeMeters>-59.200000762939453125</AltitudeMeters>
            <DistanceMeters>NAN</DistanceMeters>
          </Trackpoint>
          <Trackpoint>
            <Time>2022-07-12T12:23:52.000Z</Time>
            <Position>
              <LatitudeDegrees>43.2974557578563690185546875</LatitudeDegrees>
              <LongitudeDegrees>-2.9767395369708538055419921875</LongitudeDegrees>
            </Position>
            <AltitudeMeters>-59.200000762939453125</AltitudeMeters>
            <DistanceMeters>NAN</DistanceMeters>
          </Trackpoint>
          <Trackpoint>
            <Time>2022-07-12T12:23:55.000Z</Time>
            <Position>
              <LatitudeDegrees>43.29755022190511226654052734375</LatitudeDegrees>
              <LongitudeDegrees>-2.9768109507858753204345703125</LongitudeDegrees>
            </Position>
            <AltitudeMeters>-59.200000762939453125</AltitudeMeters>
            <DistanceMeters>NAN</DistanceMeters>
          </Trackpoint>
          <Trackpoint>
            <Time>2022-07-12T12:23:59.000Z</Time>
            <Position>
              <LatitudeDegrees>43.29767745919525623321533203125</LatitudeDegrees>
              <LongitudeDegrees>-2.976889573037624359130859375</LongitudeDegrees>
            </Position>
            <AltitudeMeters>-59</AltitudeMeters>
            <DistanceMeters>NAN</DistanceMeters>
          </Trackpoint>
          <Trackpoint>
            <Time>2022-07-12T12:24:00.000Z</Time>
            <Position>
              <LatitudeDegrees>43.2977093942463397979736328125</LatitudeDegrees>
              <LongitudeDegrees>-2.97690910287201404571533203125</LongitudeDegrees>
            </Position>
            <AltitudeMeters>-59</AltitudeMeters>
            <DistanceMeters>NAN</DistanceMeters>
          </Trackpoint>
          <Trackpoint>
            <Time>2022-07-12T12:24:06.000Z</Time>
            <Position>
              <LatitudeDegrees>43.29790712334215641021728515625</LatitudeDegrees>
              <LongitudeDegrees>-2.97701136209070682525634765625</LongitudeDegrees>
            </Position>
            <AltitudeMeters>-59</AltitudeMeters>
            <DistanceMeters>NAN</DistanceMeters>
          </Trackpoint>
          <Trackpoint>
            <Time>2022-07-12T12:24:08.000Z</Time>
            <Position>
              <LatitudeDegrees>43.2979668863117694854736328125</LatitudeDegrees>
              <LongitudeDegrees>-2.97704924829304218292236328125</LongitudeDegrees>
            </Position>
            <AltitudeMeters>-59</AltitudeMeters>
            <DistanceMeters>NAN</DistanceMeters>
          </Trackpoint>
          <Trackpoint>
            <Time>2022-07-12T12:24:17.000Z</Time>
            <Position>
              <LatitudeDegrees>43.29825446940958499908447265625</LatitudeDegrees>
              <LongitudeDegrees>-2.97722610644996166229248046875</LongitudeDegrees>
            </Position>
            <AltitudeMeters>-58.799999237060546875</AltitudeMeters>
            <DistanceMeters>NAN</DistanceMeters>
          </Trackpoint>
          <Trackpoint>
            <Time>2022-07-12T12:24:25.000Z</Time>
            <Position>
              <LatitudeDegrees>43.29852260649204254150390625</LatitudeDegrees>
              <LongitudeDegrees>-2.9773812554776668548583984375</LongitudeDegrees>
            </Position>
            <AltitudeMeters>-58.40000152587890625</AltitudeMeters>
            <DistanceMeters>NAN</DistanceMeters>
          </Trackpoint>
          <Trackpoint>
            <Time>2022-07-12T12:24:26.000Z</Time>
            <Position>
              <LatitudeDegrees>43.2985569722950458526611328125</LatitudeDegrees>
              <LongitudeDegrees>-2.97740028239786624908447265625</LongitudeDegrees>
            </Position>
            <AltitudeMeters>-58.40000152587890625</AltitudeMeters>
            <DistanceMeters>NAN</DistanceMeters>
          </Trackpoint>
          <Trackpoint>
            <Time>2022-07-12T12:24:34.000Z</Time>
            <Position>
              <LatitudeDegrees>43.298823349177837371826171875</LatitudeDegrees>
              <LongitudeDegrees>-2.97755735926330089569091796875</LongitudeDegrees>
            </Position>
            <AltitudeMeters>-58</AltitudeMeters>
            <DistanceMeters>NAN</DistanceMeters>
          </Trackpoint>
          <Trackpoint>
            <Time>2022-07-12T12:24:37.000Z</Time>
            <Position>
              <LatitudeDegrees>43.29889409244060516357421875</LatitudeDegrees>
              <LongitudeDegrees>-2.97761569730937480926513671875</LongitudeDegrees>
            </Position>
            <AltitudeMeters>-57.59999847412109375</AltitudeMeters>
            <DistanceMeters>NAN</DistanceMeters>
          </Trackpoint>
          <Trackpoint>
            <Time>2022-07-12T12:24:41.000Z</Time>
            <Position>
              <LatitudeDegrees>43.298919908702373504638671875</LatitudeDegrees>
              <LongitudeDegrees>-2.9777544178068637847900390625</LongitudeDegrees>
            </Position>
            <AltitudeMeters>-57.59999847412109375</AltitudeMeters>
            <DistanceMeters>NAN</DistanceMeters>
          </Trackpoint>
          <Trackpoint>
            <Time>2022-07-12T12:24:50.000Z</Time>
            <Position>
              <LatitudeDegrees>43.29881186597049236297607421875</LatitudeDegrees>
              <LongitudeDegrees>-2.97813646495342254638671875</LongitudeDegrees>
            </Position>
            <AltitudeMeters>-58</AltitudeMeters>
            <DistanceMeters>NAN</DistanceMeters>
          </Trackpoint>
          <Trackpoint>
            <Time>2022-07-12T12:24:59.000Z</Time>
            <Position>
              <LatitudeDegrees>43.29868781380355358123779296875</LatitudeDegrees>
              <LongitudeDegrees>-2.97854022122919559478759765625</LongitudeDegrees>
            </Position>
            <AltitudeMeters>-58.40000152587890625</AltitudeMeters>
            <DistanceMeters>NAN</DistanceMeters>
          </Trackpoint>
          <Trackpoint>
            <Time>2022-07-12T12:25:02.000Z</Time>
            <Position>
              <LatitudeDegrees>43.2986466586589813232421875</LatitudeDegrees>
              <LongitudeDegrees>-2.97867651097476482391357421875</LongitudeDegrees>
            </Position>
            <AltitudeMeters>-59</AltitudeMeters>
            <DistanceMeters>NAN</DistanceMeters>
          </Trackpoint>
          <Trackpoint>
            <Time>2022-07-12T12:25:07.000Z</Time>
            <Position>
              <LatitudeDegrees>43.2985982112586498260498046875</LatitudeDegrees>
              <LongitudeDegrees>-2.97889729030430316925048828125</LongitudeDegrees>
            </Position>
            <AltitudeMeters>-59.200000762939453125</AltitudeMeters>
            <DistanceMeters>NAN</DistanceMeters>
          </Trackpoint>
          <Trackpoint>
            <Time>2022-07-12T12:25:09.000Z</Time>
            <Position>
              <LatitudeDegrees>43.29859041608870029449462890625</LatitudeDegrees>
              <LongitudeDegrees>-2.97898412682116031646728515625</LongitudeDegrees>
            </Position>
            <AltitudeMeters>-59</AltitudeMeters>
            <DistanceMeters>NAN</DistanceMeters>
          </Trackpoint>
          <Trackpoint>
            <Time>2022-07-12T12:25:11.000Z</Time>
            <Position>
              <LatitudeDegrees>43.29860215075314044952392578125</LatitudeDegrees>
              <LongitudeDegrees>-2.97909359447658061981201171875</LongitudeDegrees>
            </Position>
            <AltitudeMeters>-59</AltitudeMeters>
            <DistanceMeters>NAN</DistanceMeters>
          </Trackpoint>
          <Trackpoint>
            <Time>2022-07-12T12:25:12.000Z</Time>
            <Position>
              <LatitudeDegrees>43.2986166514456272125244140625</LatitudeDegrees>
              <LongitudeDegrees>-2.979146651923656463623046875</LongitudeDegrees>
            </Position>
            <AltitudeMeters>-58.799999237060546875</AltitudeMeters>
            <DistanceMeters>NAN</DistanceMeters>
          </Trackpoint>
          <Trackpoint>
            <Time>2022-07-12T12:25:14.000Z</Time>
            <Position>
              <LatitudeDegrees>43.29864171333611011505126953125</LatitudeDegrees>
              <LongitudeDegrees>-2.9792443849146366119384765625</LongitudeDegrees>
            </Position>
            <AltitudeMeters>-57.799999237060546875</AltitudeMeters>
            <DistanceMeters>NAN</DistanceMeters>
          </Trackpoint>
          <Trackpoint>
            <Time>2022-07-12T12:25:18.000Z</Time>
            <Position>
              <LatitudeDegrees>43.2987122051417827606201171875</LatitudeDegrees>
              <LongitudeDegrees>-2.97937857918441295623779296875</LongitudeDegrees>
            </Position>
            <AltitudeMeters>-57</AltitudeMeters>
            <DistanceMeters>NAN</DistanceMeters>
          </Trackpoint>
          <Trackpoint>
            <Time>2022-07-12T12:25:23.000Z</Time>
            <Position>
              <LatitudeDegrees>43.29883935861289501190185546875</LatitudeDegrees>
              <LongitudeDegrees>-2.979476563632488250732421875</LongitudeDegrees>
            </Position>
            <AltitudeMeters>-57.40000152587890625</AltitudeMeters>
            <DistanceMeters>NAN</DistanceMeters>
          </Trackpoint>
          <Trackpoint>
            <Time>2022-07-12T12:25:27.000Z</Time>
            <Position>
              <LatitudeDegrees>43.2989596389234066009521484375</LatitudeDegrees>
              <LongitudeDegrees>-2.97953515313565731048583984375</LongitudeDegrees>
            </Position>
            <AltitudeMeters>-57.40000152587890625</AltitudeMeters>
            <DistanceMeters>NAN</DistanceMeters>
          </Trackpoint>
          <Trackpoint>
            <Time>2022-07-12T12:25:28.000Z</Time>
            <Position>
              <LatitudeDegrees>43.298988640308380126953125</LatitudeDegrees>
              <LongitudeDegrees>-2.97954730689525604248046875</LongitudeDegrees>
            </Position>
            <AltitudeMeters>-57.40000152587890625</AltitudeMeters>
            <DistanceMeters>NAN</DistanceMeters>
          </Trackpoint>
          <Trackpoint>
            <Time>2022-07-12T12:25:30.000Z</Time>
            <Position>
              <LatitudeDegrees>43.29904236830770969390869140625</LatitudeDegrees>
              <LongitudeDegrees>-2.97957220114767551422119140625</LongitudeDegrees>
            </Position>
            <AltitudeMeters>-57.40000152587890625</AltitudeMeters>
            <DistanceMeters>NAN</DistanceMeters>
          </Trackpoint>
          <Trackpoint>
            <Time>2022-07-12T12:25:32.000Z</Time>
            <Position>
              <LatitudeDegrees>43.29909986816346645355224609375</LatitudeDegrees>
              <LongitudeDegrees>-2.979585193097591400146484375</LongitudeDegrees>
            </Position>
            <AltitudeMeters>-57.59999847412109375</AltitudeMeters>
            <DistanceMeters>NAN</DistanceMeters>
          </Trackpoint>
          <Trackpoint>
            <Time>2022-07-12T12:25:33.000Z</Time>
            <Position>
              <LatitudeDegrees>43.299127109348773956298828125</LatitudeDegrees>
              <LongitudeDegrees>-2.979597933590412139892578125</LongitudeDegrees>
            </Position>
            <AltitudeMeters>-57.59999847412109375</AltitudeMeters>
            <DistanceMeters>NAN</DistanceMeters>
          </Trackpoint>
          <Trackpoint>
            <Time>2022-07-12T12:25:35.000Z</Time>
            <Position>
              <LatitudeDegrees>43.29919776879251003265380859375</LatitudeDegrees>
              <LongitudeDegrees>-2.97968502156436443328857421875</LongitudeDegrees>
            </Position>
            <AltitudeMeters>-57.799999237060546875</AltitudeMeters>
            <DistanceMeters>NAN</DistanceMeters>
          </Trackpoint>
          <Trackpoint>
            <Time>2022-07-12T12:25:40.000Z</Time>
            <Position>
              <LatitudeDegrees>43.29935610294342041015625</LatitudeDegrees>
              <LongitudeDegrees>-2.9797670803964138031005859375</LongitudeDegrees>
            </Position>
            <AltitudeMeters>-58.200000762939453125</AltitudeMeters>
            <DistanceMeters>NAN</DistanceMeters>
          </Trackpoint>
          <Trackpoint>
            <Time>2022-07-12T12:25:48.000Z</Time>
            <Position>
              <LatitudeDegrees>43.29965659417212009429931640625</LatitudeDegrees>
              <LongitudeDegrees>-2.97993916086852550506591796875</LongitudeDegrees>
            </Position>
            <AltitudeMeters>-58.59999847412109375</AltitudeMeters>
            <DistanceMeters>NAN</DistanceMeters>
          </Trackpoint>
          <Trackpoint>
            <Time>2022-07-12T12:25:51.000Z</Time>
            <Position>
              <LatitudeDegrees>43.29974410124123096466064453125</LatitudeDegrees>
              <LongitudeDegrees>-2.979997582733631134033203125</LongitudeDegrees>
            </Position>
            <AltitudeMeters>-58.59999847412109375</AltitudeMeters>
            <DistanceMeters>NAN</DistanceMeters>
          </Trackpoint>
          <Trackpoint>
            <Time>2022-07-12T12:25:53.000Z</Time>
            <Position>
              <LatitudeDegrees>43.2998120784759521484375</LatitudeDegrees>
              <LongitudeDegrees>-2.980031780898571014404296875</LongitudeDegrees>
            </Position>
            <AltitudeMeters>-58.59999847412109375</AltitudeMeters>
            <DistanceMeters>NAN</DistanceMeters>
          </Trackpoint>
          <Trackpoint>
            <Time>2022-07-12T12:25:55.000Z</Time>
            <Position>
              <LatitudeDegrees>43.29987569712102413177490234375</LatitudeDegrees>
              <LongitudeDegrees>-2.9800953157246112823486328125</LongitudeDegrees>
            </Position>
            <AltitudeMeters>-58.59999847412109375</AltitudeMeters>
            <DistanceMeters>NAN</DistanceMeters>
          </Trackpoint>
          <Trackpoint>
            <Time>2022-07-12T12:25:57.000Z</Time>
            <Position>
              <LatitudeDegrees>43.29994996078312397003173828125</LatitudeDegrees>
              <LongitudeDegrees>-2.9801117442548274993896484375</LongitudeDegrees>
            </Position>
            <AltitudeMeters>-58.799999237060546875</AltitudeMeters>
            <DistanceMeters>NAN</DistanceMeters>
          </Trackpoint>
          <Trackpoint>
            <Time>2022-07-12T12:25:59.000Z</Time>
            <Position>
              <LatitudeDegrees>43.3000134117901325225830078125</LatitudeDegrees>
              <LongitudeDegrees>-2.98010386526584625244140625</LongitudeDegrees>
            </Position>
            <AltitudeMeters>-58.799999237060546875</AltitudeMeters>
            <DistanceMeters>NAN</DistanceMeters>
          </Trackpoint>
          <Trackpoint>
            <Time>2022-07-12T12:26:04.000Z</Time>
            <Position>
              <LatitudeDegrees>43.300169147551059722900390625</LatitudeDegrees>
              <LongitudeDegrees>-2.98020486719906330108642578125</LongitudeDegrees>
            </Position>
            <AltitudeMeters>-58.200000762939453125</AltitudeMeters>
            <DistanceMeters>NAN</DistanceMeters>
          </Trackpoint>
          <Trackpoint>
            <Time>2022-07-12T12:26:11.000Z</Time>
            <Position>
              <LatitudeDegrees>43.30038271844387054443359375</LatitudeDegrees>
              <LongitudeDegrees>-2.98036873340606689453125</LongitudeDegrees>
            </Position>
            <AltitudeMeters>-57.799999237060546875</AltitudeMeters>
            <DistanceMeters>NAN</DistanceMeters>
          </Trackpoint>
          <Trackpoint>
            <Time>2022-07-12T12:26:16.000Z</Time>
            <Position>
              <LatitudeDegrees>43.30055303871631622314453125</LatitudeDegrees>
              <LongitudeDegrees>-2.98045246861875057220458984375</LongitudeDegrees>
            </Position>
            <AltitudeMeters>-57.799999237060546875</AltitudeMeters>
            <DistanceMeters>NAN</DistanceMeters>
          </Trackpoint>
          <Trackpoint>
            <Time>2022-07-12T12:26:20.000Z</Time>
            <Position>
              <LatitudeDegrees>43.30070751719176769256591796875</LatitudeDegrees>
              <LongitudeDegrees>-2.9805432446300983428955078125</LongitudeDegrees>
            </Position>
            <AltitudeMeters>-58</AltitudeMeters>
            <DistanceMeters>NAN</DistanceMeters>
          </Trackpoint>
          <Trackpoint>
            <Time>2022-07-12T12:26:25.000Z</Time>
            <Position>
              <LatitudeDegrees>43.30086006782948970794677734375</LatitudeDegrees>
              <LongitudeDegrees>-2.9806597530841827392578125</LongitudeDegrees>
            </Position>
            <AltitudeMeters>-58.40000152587890625</AltitudeMeters>
            <DistanceMeters>NAN</DistanceMeters>
          </Trackpoint>
          <Trackpoint>
            <Time>2022-07-12T12:26:29.000Z</Time>
            <Position>
              <LatitudeDegrees>43.30096165649592876434326171875</LatitudeDegrees>
              <LongitudeDegrees>-2.98072471283376216888427734375</LongitudeDegrees>
            </Position>
            <AltitudeMeters>-58.40000152587890625</AltitudeMeters>
            <DistanceMeters>NAN</DistanceMeters>
          </Trackpoint>
          <Trackpoint>
            <Time>2022-07-12T12:26:35.000Z</Time>
            <Position>
              <LatitudeDegrees>43.3011121116578578948974609375</LatitudeDegrees>
              <LongitudeDegrees>-2.980798222124576568603515625</LongitudeDegrees>
            </Position>
            <AltitudeMeters>-58.200000762939453125</AltitudeMeters>
            <DistanceMeters>NAN</DistanceMeters>
          </Trackpoint>
          <Trackpoint>
            <Time>2022-07-12T12:26:40.000Z</Time>
            <Position>
              <LatitudeDegrees>43.3012478984892368316650390625</LatitudeDegrees>
              <LongitudeDegrees>-2.98085982911288738250732421875</LongitudeDegrees>
            </Position>
            <AltitudeMeters>-57.59999847412109375</AltitudeMeters>
            <DistanceMeters>NAN</DistanceMeters>
          </Trackpoint>
          <Trackpoint>
            <Time>2022-07-12T12:26:44.000Z</Time>
            <Position>
              <LatitudeDegrees>43.30134688876569271087646484375</LatitudeDegrees>
              <LongitudeDegrees>-2.98090073280036449432373046875</LongitudeDegrees>
            </Position>
            <AltitudeMeters>-57.40000152587890625</AltitudeMeters>
            <DistanceMeters>NAN</DistanceMeters>
          </Trackpoint>
          <Trackpoint>
            <Time>2022-07-12T12:26:49.000Z</Time>
            <Position>
              <LatitudeDegrees>43.30148535780608654022216796875</LatitudeDegrees>
              <LongitudeDegrees>-2.98098706640303134918212890625</LongitudeDegrees>
            </Position>
            <AltitudeMeters>-57</AltitudeMeters>
            <DistanceMeters>NAN</DistanceMeters>
          </Trackpoint>
          <Trackpoint>
            <Time>2022-07-12T12:26:50.000Z</Time>
            <Position>
              <LatitudeDegrees>43.3015191368758678436279296875</LatitudeDegrees>
              <LongitudeDegrees>-2.9810045845806598663330078125</LongitudeDegrees>
            </Position>
            <AltitudeMeters>-56.799999237060546875</AltitudeMeters>
            <DistanceMeters>NAN</DistanceMeters>
          </Trackpoint>
          <Trackpoint>
            <Time>2022-07-12T12:26:55.000Z</Time>
            <Position>
              <LatitudeDegrees>43.3016716875135898590087890625</LatitudeDegrees>
              <LongitudeDegrees>-2.98107624985277652740478515625</LongitudeDegrees>
            </Position>
            <AltitudeMeters>-56.40000152587890625</AltitudeMeters>
            <DistanceMeters>NAN</DistanceMeters>
          </Trackpoint>
          <Trackpoint>
            <Time>2022-07-12T12:27:01.000Z</Time>
            <Position>
              <LatitudeDegrees>43.30185047350823879241943359375</LatitudeDegrees>
              <LongitudeDegrees>-2.98119577579200267791748046875</LongitudeDegrees>
            </Position>
            <AltitudeMeters>-56.59999847412109375</AltitudeMeters>
            <DistanceMeters>NAN</DistanceMeters>
          </Trackpoint>
          <Trackpoint>
            <Time>2022-07-12T12:27:02.000Z</Time>
            <Position>
              <LatitudeDegrees>43.30187981016933917999267578125</LatitudeDegrees>
              <LongitudeDegrees>-2.98122528009116649627685546875</LongitudeDegrees>
            </Position>
            <AltitudeMeters>-56.59999847412109375</AltitudeMeters>
            <DistanceMeters>NAN</DistanceMeters>
          </Trackpoint>
          <Trackpoint>
            <Time>2022-07-12T12:27:05.000Z</Time>
            <Position>
              <LatitudeDegrees>43.30198827199637889862060546875</LatitudeDegrees>
              <LongitudeDegrees>-2.98128160648047924041748046875</LongitudeDegrees>
            </Position>
            <AltitudeMeters>-56.59999847412109375</AltitudeMeters>
            <DistanceMeters>NAN</DistanceMeters>
          </Trackpoint>
          <Trackpoint>
            <Time>2022-07-12T12:27:10.000Z</Time>
            <Position>
              <LatitudeDegrees>43.3021333627402782440185546875</LatitudeDegrees>
              <LongitudeDegrees>-2.98140716738998889923095703125</LongitudeDegrees>
            </Position>
            <AltitudeMeters>-57.40000152587890625</AltitudeMeters>
            <DistanceMeters>NAN</DistanceMeters>
          </Trackpoint>
          <Trackpoint>
            <Time>2022-07-12T12:27:11.000Z</Time>
            <Position>
              <LatitudeDegrees>43.3021494559943675994873046875</LatitudeDegrees>
              <LongitudeDegrees>-2.98141521401703357696533203125</LongitudeDegrees>
            </Position>
            <AltitudeMeters>-57.59999847412109375</AltitudeMeters>
            <DistanceMeters>NAN</DistanceMeters>
          </Trackpoint>
          <Trackpoint>
            <Time>2022-07-12T12:27:13.000Z</Time>
            <Position>
              <LatitudeDegrees>43.30219161696732044219970703125</LatitudeDegrees>
              <LongitudeDegrees>-2.98141370527446269989013671875</LongitudeDegrees>
            </Position>
            <AltitudeMeters>-57.799999237060546875</AltitudeMeters>
            <DistanceMeters>NAN</DistanceMeters>
          </Trackpoint>
          <Trackpoint>
            <Time>2022-07-12T12:27:15.000Z</Time>
            <Position>
              <LatitudeDegrees>43.3022367954254150390625</LatitudeDegrees>
              <LongitudeDegrees>-2.98141404055058956146240234375</LongitudeDegrees>
            </Position>
            <AltitudeMeters>-57.799999237060546875</AltitudeMeters>
            <DistanceMeters>NAN</DistanceMeters>
          </Trackpoint>
          <Trackpoint>
            <Time>2022-07-12T12:27:17.000Z</Time>
            <Position>
              <LatitudeDegrees>43.302260935306549072265625</LatitudeDegrees>
              <LongitudeDegrees>-2.98145159147679805755615234375</LongitudeDegrees>
            </Position>
            <AltitudeMeters>-57.799999237060546875</AltitudeMeters>
            <DistanceMeters>NAN</DistanceMeters>
          </Trackpoint>
          <Trackpoint>
            <Time>2022-07-12T12:27:18.000Z</Time>
            <Position>
              <LatitudeDegrees>43.302262611687183380126953125</LatitudeDegrees>
              <LongitudeDegrees>-2.981484867632389068603515625</LongitudeDegrees>
            </Position>
            <AltitudeMeters>-57.799999237060546875</AltitudeMeters>
            <DistanceMeters>NAN</DistanceMeters>
          </Trackpoint>
          <Trackpoint>
            <Time>2022-07-12T12:27:21.000Z</Time>
            <Position>
              <LatitudeDegrees>43.30223570577800273895263671875</LatitudeDegrees>
              <LongitudeDegrees>-2.9816131107509136199951171875</LongitudeDegrees>
            </Position>
            <AltitudeMeters>-58</AltitudeMeters>
            <DistanceMeters>NAN</DistanceMeters>
          </Trackpoint>
          <Trackpoint>
            <Time>2022-07-12T12:27:26.000Z</Time>
            <Position>
              <LatitudeDegrees>43.30218072049319744110107421875</LatitudeDegrees>
              <LongitudeDegrees>-2.98180178739130496978759765625</LongitudeDegrees>
            </Position>
            <AltitudeMeters>-57.59999847412109375</AltitudeMeters>
            <DistanceMeters>NAN</DistanceMeters>
          </Trackpoint>
          <Trackpoint>
            <Time>2022-07-12T12:27:27.000Z</Time>
            <Position>
              <LatitudeDegrees>43.30218851566314697265625</LatitudeDegrees>
              <LongitudeDegrees>-2.98184755258262157440185546875</LongitudeDegrees>
            </Position>
            <AltitudeMeters>-57.40000152587890625</AltitudeMeters>
            <DistanceMeters>NAN</DistanceMeters>
          </Trackpoint>
          <Trackpoint>
            <Time>2022-07-12T12:27:29.000Z</Time>
            <Position>
              <LatitudeDegrees>43.30223185010254383087158203125</LatitudeDegrees>
              <LongitudeDegrees>-2.9819336347281932830810546875</LongitudeDegrees>
            </Position>
            <AltitudeMeters>-57</AltitudeMeters>
            <DistanceMeters>NAN</DistanceMeters>
          </Trackpoint>
          <Trackpoint>
            <Time>2022-07-12T12:27:34.000Z</Time>
            <Position>
              <LatitudeDegrees>43.30231801606714725494384765625</LatitudeDegrees>
              <LongitudeDegrees>-2.9820368997752666473388671875</LongitudeDegrees>
            </Position>
            <AltitudeMeters>-56.799999237060546875</AltitudeMeters>
            <DistanceMeters>NAN</DistanceMeters>
          </Trackpoint>
          <Trackpoint>
            <Time>2022-07-12T12:27:39.000Z</Time>
            <Position>
              <LatitudeDegrees>43.30246704630553722381591796875</LatitudeDegrees>
              <LongitudeDegrees>-2.9823307693004608154296875</LongitudeDegrees>
            </Position>
            <AltitudeMeters>-56.799999237060546875</AltitudeMeters>
            <DistanceMeters>NAN</DistanceMeters>
          </Trackpoint>
          <Trackpoint>
            <Time>2022-07-12T12:27:40.000Z</Time>
            <Position>
              <LatitudeDegrees>43.30246771685779094696044921875</LatitudeDegrees>
              <LongitudeDegrees>-2.9823989979922771453857421875</LongitudeDegrees>
            </Position>
            <AltitudeMeters>-56.59999847412109375</AltitudeMeters>
            <DistanceMeters>NAN</DistanceMeters>
          </Trackpoint>
          <Trackpoint>
            <Time>2022-07-12T12:27:42.000Z</Time>
            <Position>
              <LatitudeDegrees>43.3025061897933483123779296875</LatitudeDegrees>
              <LongitudeDegrees>-2.982423640787601470947265625</LongitudeDegrees>
            </Position>
            <AltitudeMeters>-56.40000152587890625</AltitudeMeters>
            <DistanceMeters>NAN</DistanceMeters>
          </Trackpoint>
          <Trackpoint>
            <Time>2022-07-12T12:27:47.000Z</Time>
            <Position>
              <LatitudeDegrees>43.30266485922038555145263671875</LatitudeDegrees>
              <LongitudeDegrees>-2.98240947537124156951904296875</LongitudeDegrees>
            </Position>
            <AltitudeMeters>-56</AltitudeMeters>
            <DistanceMeters>NAN</DistanceMeters>
          </Trackpoint>
          <Trackpoint>
            <Time>2022-07-12T12:27:52.000Z</Time>
            <Position>
              <LatitudeDegrees>43.30279394052922725677490234375</LatitudeDegrees>
              <LongitudeDegrees>-2.98240520060062408447265625</LongitudeDegrees>
            </Position>
            <AltitudeMeters>-56.200000762939453125</AltitudeMeters>
            <DistanceMeters>NAN</DistanceMeters>
          </Trackpoint>
          <Trackpoint>
            <Time>2022-07-12T12:27:53.000Z</Time>
            <Position>
              <LatitudeDegrees>43.30281640402972698211669921875</LatitudeDegrees>
              <LongitudeDegrees>-2.9823966510593891143798828125</LongitudeDegrees>
            </Position>
            <AltitudeMeters>-56.200000762939453125</AltitudeMeters>
            <DistanceMeters>NAN</DistanceMeters>
          </Trackpoint>
          <Trackpoint>
            <Time>2022-07-12T12:28:00.000Z</Time>
            <Position>
              <LatitudeDegrees>43.3029698766767978668212890625</LatitudeDegrees>
              <LongitudeDegrees>-2.98233521170914173126220703125</LongitudeDegrees>
            </Position>
            <AltitudeMeters>-56.40000152587890625</AltitudeMeters>
            <DistanceMeters>NAN</DistanceMeters>
          </Trackpoint>
          <Trackpoint>
            <Time>2022-07-12T12:28:07.000Z</Time>
            <Position>
              <LatitudeDegrees>43.30318026244640350341796875</LatitudeDegrees>
              <LongitudeDegrees>-2.98252162523567676544189453125</LongitudeDegrees>
            </Position>
            <AltitudeMeters>-56.40000152587890625</AltitudeMeters>
            <DistanceMeters>NAN</DistanceMeters>
          </Trackpoint>
          <Trackpoint>
            <Time>2022-07-12T12:28:13.000Z</Time>
            <Position>
              <LatitudeDegrees>43.303307332098484039306640625</LatitudeDegrees>
              <LongitudeDegrees>-2.98276118002831935882568359375</LongitudeDegrees>
            </Position>
            <AltitudeMeters>-56.200000762939453125</AltitudeMeters>
            <DistanceMeters>NAN</DistanceMeters>
          </Trackpoint>
          <Trackpoint>
            <Time>2022-07-12T12:28:17.000Z</Time>
            <Position>
              <LatitudeDegrees>43.30331009812653064727783203125</LatitudeDegrees>
              <LongitudeDegrees>-2.9829374514520168304443359375</LongitudeDegrees>
            </Position>
            <AltitudeMeters>-56</AltitudeMeters>
            <DistanceMeters>NAN</DistanceMeters>
          </Trackpoint>
          <Trackpoint>
            <Time>2022-07-12T12:28:18.000Z</Time>
            <Position>
              <LatitudeDegrees>43.30332334153354167938232421875</LatitudeDegrees>
              <LongitudeDegrees>-2.98298363573849201202392578125</LongitudeDegrees>
            </Position>
            <AltitudeMeters>-56</AltitudeMeters>
            <DistanceMeters>NAN</DistanceMeters>
          </Trackpoint>
          <Trackpoint>
            <Time>2022-07-12T12:28:21.000Z</Time>
            <Position>
              <LatitudeDegrees>43.30340011976659297943115234375</LatitudeDegrees>
              <LongitudeDegrees>-2.98310928046703338623046875</LongitudeDegrees>
            </Position>
            <AltitudeMeters>-56.200000762939453125</AltitudeMeters>
            <DistanceMeters>NAN</DistanceMeters>
          </Trackpoint>
          <Trackpoint>
            <Time>2022-07-12T12:28:22.000Z</Time>
            <Position>
              <LatitudeDegrees>43.30343180336058139801025390625</LatitudeDegrees>
              <LongitudeDegrees>-2.9831456579267978668212890625</LongitudeDegrees>
            </Position>
            <AltitudeMeters>-56.40000152587890625</AltitudeMeters>
            <DistanceMeters>NAN</DistanceMeters>
          </Trackpoint>
          <Trackpoint>
            <Time>2022-07-12T12:28:27.000Z</Time>
            <Position>
              <LatitudeDegrees>43.303576894104480743408203125</LatitudeDegrees>
              <LongitudeDegrees>-2.983377166092395782470703125</LongitudeDegrees>
            </Position>
            <AltitudeMeters>-57.200000762939453125</AltitudeMeters>
            <DistanceMeters>NAN</DistanceMeters>
          </Trackpoint>
          <Trackpoint>
            <Time>2022-07-12T12:28:35.000Z</Time>
            <Position>
              <LatitudeDegrees>43.30371544696390628814697265625</LatitudeDegrees>
              <LongitudeDegrees>-2.98377036117017269134521484375</LongitudeDegrees>
            </Position>
            <AltitudeMeters>-57.40000152587890625</AltitudeMeters>
            <DistanceMeters>NAN</DistanceMeters>
          </Trackpoint>
          <Trackpoint>
            <Time>2022-07-12T12:28:40.000Z</Time>
            <Position>
              <LatitudeDegrees>43.30374478362500667572021484375</LatitudeDegrees>
              <LongitudeDegrees>-2.9840098321437835693359375</LongitudeDegrees>
            </Position>
            <AltitudeMeters>-57.799999237060546875</AltitudeMeters>
            <DistanceMeters>NAN</DistanceMeters>
          </Trackpoint>
          <Trackpoint>
            <Time>2022-07-12T12:28:41.000Z</Time>
            <Position>
              <LatitudeDegrees>43.3037483878433704376220703125</LatitudeDegrees>
              <LongitudeDegrees>-2.98405467532575130462646484375</LongitudeDegrees>
            </Position>
            <AltitudeMeters>-57.799999237060546875</AltitudeMeters>
            <DistanceMeters>NAN</DistanceMeters>
          </Trackpoint>
          <Trackpoint>
            <Time>2022-07-12T12:28:49.000Z</Time>
            <Position>
              <LatitudeDegrees>43.30378384329378604888916015625</LatitudeDegrees>
              <LongitudeDegrees>-2.9843600280582904815673828125</LongitudeDegrees>
            </Position>
            <AltitudeMeters>-56.799999237060546875</AltitudeMeters>
            <DistanceMeters>NAN</DistanceMeters>
          </Trackpoint>
          <Trackpoint>
            <Time>2022-07-12T12:28:58.000Z</Time>
            <Position>
              <LatitudeDegrees>43.3038134314119815826416015625</LatitudeDegrees>
              <LongitudeDegrees>-2.9847501218318939208984375</LongitudeDegrees>
            </Position>
            <AltitudeMeters>-56.59999847412109375</AltitudeMeters>
            <DistanceMeters>NAN</DistanceMeters>
          </Trackpoint>
          <Trackpoint>
            <Time>2022-07-12T12:29:04.000Z</Time>
            <Position>
              <LatitudeDegrees>43.30389331094920635223388671875</LatitudeDegrees>
              <LongitudeDegrees>-2.984970398247241973876953125</LongitudeDegrees>
            </Position>
            <AltitudeMeters>-57.40000152587890625</AltitudeMeters>
            <DistanceMeters>NAN</DistanceMeters>
          </Trackpoint>
          <Trackpoint>
            <Time>2022-07-12T12:29:05.000Z</Time>
            <Position>
              <LatitudeDegrees>43.30390102230012416839599609375</LatitudeDegrees>
              <LongitudeDegrees>-2.9849846474826335906982421875</LongitudeDegrees>
            </Position>
            <AltitudeMeters>-57.799999237060546875</AltitudeMeters>
            <DistanceMeters>NAN</DistanceMeters>
          </Trackpoint>
          <Trackpoint>
            <Time>2022-07-12T12:29:08.000Z</Time>
            <Position>
              <LatitudeDegrees>43.30390387214720249176025390625</LatitudeDegrees>
              <LongitudeDegrees>-2.98498925752937793731689453125</LongitudeDegrees>
            </Position>
            <AltitudeMeters>-58.40000152587890625</AltitudeMeters>
            <DistanceMeters>NAN</DistanceMeters>
          </Trackpoint>
          <Trackpoint>
            <Time>2022-07-12T12:29:14.000Z</Time>
            <Position>
              <LatitudeDegrees>43.303963132202625274658203125</LatitudeDegrees>
              <LongitudeDegrees>-2.9850144870579242706298828125</LongitudeDegrees>
            </Position>
            <AltitudeMeters>-58.200000762939453125</AltitudeMeters>
            <DistanceMeters>NAN</DistanceMeters>
          </Trackpoint>
          <Trackpoint>
            <Time>2022-07-12T12:29:16.000Z</Time>
            <Position>
              <LatitudeDegrees>43.304016776382923126220703125</LatitudeDegrees>
              <LongitudeDegrees>-2.98501289449632167816162109375</LongitudeDegrees>
            </Position>
            <AltitudeMeters>-58.200000762939453125</AltitudeMeters>
            <DistanceMeters>NAN</DistanceMeters>
          </Trackpoint>
          <Trackpoint>
            <Time>2022-07-12T12:29:19.000Z</Time>
            <Position>
              <LatitudeDegrees>43.3040813170373439788818359375</LatitudeDegrees>
              <LongitudeDegrees>-2.9849993996322154998779296875</LongitudeDegrees>
            </Position>
            <AltitudeMeters>-58.40000152587890625</AltitudeMeters>
            <DistanceMeters>NAN</DistanceMeters>
          </Trackpoint>
          <Trackpoint>
            <Time>2022-07-12T12:29:20.000Z</Time>
            <Position>
              <LatitudeDegrees>43.30409799702465534210205078125</LatitudeDegrees>
              <LongitudeDegrees>-2.98502035439014434814453125</LongitudeDegrees>
            </Position>
            <AltitudeMeters>-58.40000152587890625</AltitudeMeters>
            <DistanceMeters>NAN</DistanceMeters>
          </Trackpoint>
          <Trackpoint>
            <Time>2022-07-12T12:29:25.000Z</Time>
            <Position>
              <LatitudeDegrees>43.304151557385921478271484375</LatitudeDegrees>
              <LongitudeDegrees>-2.98523216508328914642333984375</LongitudeDegrees>
            </Position>
            <AltitudeMeters>-57.799999237060546875</AltitudeMeters>
            <DistanceMeters>NAN</DistanceMeters>
          </Trackpoint>
          <Trackpoint>
            <Time>2022-07-12T12:29:33.000Z</Time>
            <Position>
              <LatitudeDegrees>43.30424107611179351806640625</LatitudeDegrees>
              <LongitudeDegrees>-2.98554866574704647064208984375</LongitudeDegrees>
            </Position>
            <AltitudeMeters>-58.200000762939453125</AltitudeMeters>
            <DistanceMeters>NAN</DistanceMeters>
          </Trackpoint>
          <Trackpoint>
            <Time>2022-07-12T12:29:44.000Z</Time>
            <Position>
              <LatitudeDegrees>43.3043787069618701934814453125</LatitudeDegrees>
              <LongitudeDegrees>-2.98601453192532062530517578125</LongitudeDegrees>
            </Position>
            <AltitudeMeters>-58.40000152587890625</AltitudeMeters>
            <DistanceMeters>NAN</DistanceMeters>
          </Trackpoint>
          <Trackpoint>
            <Time>2022-07-12T12:29:52.000Z</Time>
            <Position>
              <LatitudeDegrees>43.3044910244643688201904296875</LatitudeDegrees>
              <LongitudeDegrees>-2.9863864369690418243408203125</LongitudeDegrees>
            </Position>
            <AltitudeMeters>-58.799999237060546875</AltitudeMeters>
            <DistanceMeters>NAN</DistanceMeters>
          </Trackpoint>
          <Trackpoint>
            <Time>2022-07-12T12:29:54.000Z</Time>
            <Position>
              <LatitudeDegrees>43.3045222051441669464111328125</LatitudeDegrees>
              <LongitudeDegrees>-2.98648240976035594940185546875</LongitudeDegrees>
            </Position>
            <AltitudeMeters>-58.799999237060546875</AltitudeMeters>
            <DistanceMeters>NAN</DistanceMeters>
          </Trackpoint>
          <Trackpoint>
            <Time>2022-07-12T12:30:02.000Z</Time>
            <Position>
              <LatitudeDegrees>43.30463108606636524200439453125</LatitudeDegrees>
              <LongitudeDegrees>-2.98686982132494449615478515625</LongitudeDegrees>
            </Position>
            <AltitudeMeters>-59.200000762939453125</AltitudeMeters>
            <DistanceMeters>NAN</DistanceMeters>
          </Trackpoint>
          <Trackpoint>
            <Time>2022-07-12T12:30:06.000Z</Time>
            <Position>
              <LatitudeDegrees>43.3046918548643589019775390625</LatitudeDegrees>
              <LongitudeDegrees>-2.9870740883052349090576171875</LongitudeDegrees>
            </Position>
            <AltitudeMeters>-59.40000152587890625</AltitudeMeters>
            <DistanceMeters>NAN</DistanceMeters>
          </Trackpoint>
          <Trackpoint>
            <Time>2022-07-12T12:30:10.000Z</Time>
            <Position>
              <LatitudeDegrees>43.30474608577787876129150390625</LatitudeDegrees>
              <LongitudeDegrees>-2.98727818764746189117431640625</LongitudeDegrees>
            </Position>
            <AltitudeMeters>-59.40000152587890625</AltitudeMeters>
            <DistanceMeters>NAN</DistanceMeters>
          </Trackpoint>
          <Trackpoint>
            <Time>2022-07-12T12:30:18.000Z</Time>
            <Position>
              <LatitudeDegrees>43.30486946739256381988525390625</LatitudeDegrees>
              <LongitudeDegrees>-2.98766811378300189971923828125</LongitudeDegrees>
            </Position>
            <AltitudeMeters>-58.799999237060546875</AltitudeMeters>
            <DistanceMeters>NAN</DistanceMeters>
          </Trackpoint>
          <Trackpoint>
            <Time>2022-07-12T12:30:27.000Z</Time>
            <Position>
              <LatitudeDegrees>43.30497063696384429931640625</LatitudeDegrees>
              <LongitudeDegrees>-2.988160550594329833984375</LongitudeDegrees>
            </Position>
            <AltitudeMeters>-59.40000152587890625</AltitudeMeters>
            <DistanceMeters>NAN</DistanceMeters>
          </Trackpoint>
          <Trackpoint>
            <Time>2022-07-12T12:30:35.000Z</Time>
            <Position>
              <LatitudeDegrees>43.30498128198087215423583984375</LatitudeDegrees>
              <LongitudeDegrees>-2.98859213478863239288330078125</LongitudeDegrees>
            </Position>
            <AltitudeMeters>-59.40000152587890625</AltitudeMeters>
            <DistanceMeters>NAN</DistanceMeters>
          </Trackpoint>
          <Trackpoint>
            <Time>2022-07-12T12:30:44.000Z</Time>
            <Position>
              <LatitudeDegrees>43.3049406297504901885986328125</LatitudeDegrees>
              <LongitudeDegrees>-2.98910267651081085205078125</LongitudeDegrees>
            </Position>
            <AltitudeMeters>-59.799999237060546875</AltitudeMeters>
            <DistanceMeters>NAN</DistanceMeters>
          </Trackpoint>
          <Trackpoint>
            <Time>2022-07-12T12:30:45.000Z</Time>
            <Position>
              <LatitudeDegrees>43.30493132583796977996826171875</LatitudeDegrees>
              <LongitudeDegrees>-2.98916034400463104248046875</LongitudeDegrees>
            </Position>
            <AltitudeMeters>-60</AltitudeMeters>
            <DistanceMeters>NAN</DistanceMeters>
          </Trackpoint>
          <Trackpoint>
            <Time>2022-07-12T12:30:50.000Z</Time>
            <Position>
              <LatitudeDegrees>43.30484189093112945556640625</LatitudeDegrees>
              <LongitudeDegrees>-2.98943786881864070892333984375</LongitudeDegrees>
            </Position>
            <AltitudeMeters>-60.40000152587890625</AltitudeMeters>
            <DistanceMeters>NAN</DistanceMeters>
          </Trackpoint>
          <Trackpoint>
            <Time>2022-07-12T12:30:52.000Z</Time>
            <Position>
              <LatitudeDegrees>43.30479587428271770477294921875</LatitudeDegrees>
              <LongitudeDegrees>-2.98954515717923641204833984375</LongitudeDegrees>
            </Position>
            <AltitudeMeters>-60.40000152587890625</AltitudeMeters>
            <DistanceMeters>NAN</DistanceMeters>
          </Trackpoint>
          <Trackpoint>
            <Time>2022-07-12T12:30:57.000Z</Time>
            <Position>
              <LatitudeDegrees>43.30466880463063716888427734375</LatitudeDegrees>
              <LongitudeDegrees>-2.98979879356920719146728515625</LongitudeDegrees>
            </Position>
            <AltitudeMeters>-60.59999847412109375</AltitudeMeters>
            <DistanceMeters>NAN</DistanceMeters>
          </Trackpoint>
          <Trackpoint>
            <Time>2022-07-12T12:30:59.000Z</Time>
            <Position>
              <LatitudeDegrees>43.3046087063848972320556640625</LatitudeDegrees>
              <LongitudeDegrees>-2.98987825401127338409423828125</LongitudeDegrees>
            </Position>
            <AltitudeMeters>-60.59999847412109375</AltitudeMeters>
            <DistanceMeters>NAN</DistanceMeters>
          </Trackpoint>
          <Trackpoint>
            <Time>2022-07-12T12:31:07.000Z</Time>
            <Position>
              <LatitudeDegrees>43.3043518848717212677001953125</LatitudeDegrees>
              <LongitudeDegrees>-2.990206740796566009521484375</LongitudeDegrees>
            </Position>
            <AltitudeMeters>-60.59999847412109375</AltitudeMeters>
            <DistanceMeters>NAN</DistanceMeters>
          </Trackpoint>
          <Trackpoint>
            <Time>2022-07-12T12:31:13.000Z</Time>
            <Position>
              <LatitudeDegrees>43.30416153185069561004638671875</LatitudeDegrees>
              <LongitudeDegrees>-2.990449480712413787841796875</LongitudeDegrees>
            </Position>
            <AltitudeMeters>-61</AltitudeMeters>
            <DistanceMeters>NAN</DistanceMeters>
          </Trackpoint>
          <Trackpoint>
            <Time>2022-07-12T12:31:14.000Z</Time>
            <Position>
              <LatitudeDegrees>43.30412616021931171417236328125</LatitudeDegrees>
              <LongitudeDegrees>-2.9904818348586559295654296875</LongitudeDegrees>
            </Position>
            <AltitudeMeters>-61</AltitudeMeters>
            <DistanceMeters>NAN</DistanceMeters>
          </Trackpoint>
          <Trackpoint>
            <Time>2022-07-12T12:31:19.000Z</Time>
            <Position>
              <LatitudeDegrees>43.303955085575580596923828125</LatitudeDegrees>
              <LongitudeDegrees>-2.99060479737818241119384765625</LongitudeDegrees>
            </Position>
            <AltitudeMeters>-61.200000762939453125</AltitudeMeters>
            <DistanceMeters>NAN</DistanceMeters>
          </Trackpoint>
          <Trackpoint>
            <Time>2022-07-12T12:31:20.000Z</Time>
            <Position>
              <LatitudeDegrees>43.3038689196109771728515625</LatitudeDegrees>
              <LongitudeDegrees>-2.99057629890739917755126953125</LongitudeDegrees>
            </Position>
            <AltitudeMeters>-61.200000762939453125</AltitudeMeters>
            <DistanceMeters>NAN</DistanceMeters>
          </Trackpoint>
          <Trackpoint>
            <Time>2022-07-12T12:31:26.000Z</Time>
            <Position>
              <LatitudeDegrees>43.30370605923235416412353515625</LatitudeDegrees>
              <LongitudeDegrees>-2.990568839013576507568359375</LongitudeDegrees>
            </Position>
            <AltitudeMeters>-61</AltitudeMeters>
            <DistanceMeters>NAN</DistanceMeters>
          </Trackpoint>
          <Trackpoint>
            <Time>2022-07-12T12:31:33.000Z</Time>
            <Position>
              <LatitudeDegrees>43.3035294525325298309326171875</LatitudeDegrees>
              <LongitudeDegrees>-2.99075114540755748748779296875</LongitudeDegrees>
            </Position>
            <AltitudeMeters>-60.59999847412109375</AltitudeMeters>
            <DistanceMeters>NAN</DistanceMeters>
          </Trackpoint>
          <Trackpoint>
            <Time>2022-07-12T12:31:39.000Z</Time>
            <Position>
              <LatitudeDegrees>43.30338235013186931610107421875</LatitudeDegrees>
              <LongitudeDegrees>-2.9909230582416057586669921875</LongitudeDegrees>
            </Position>
            <AltitudeMeters>-60.40000152587890625</AltitudeMeters>
            <DistanceMeters>NAN</DistanceMeters>
          </Trackpoint>
          <Trackpoint>
            <Time>2022-07-12T12:31:47.000Z</Time>
            <Position>
              <LatitudeDegrees>43.30316148698329925537109375</LatitudeDegrees>
              <LongitudeDegrees>-2.991175688803195953369140625</LongitudeDegrees>
            </Position>
            <AltitudeMeters>-60.59999847412109375</AltitudeMeters>
            <DistanceMeters>NAN</DistanceMeters>
          </Trackpoint>
          <Trackpoint>
            <Time>2022-07-12T12:31:55.000Z</Time>
            <Position>
              <LatitudeDegrees>43.30298446118831634521484375</LatitudeDegrees>
              <LongitudeDegrees>-2.99147467128932476043701171875</LongitudeDegrees>
            </Position>
            <AltitudeMeters>-60.40000152587890625</AltitudeMeters>
            <DistanceMeters>NAN</DistanceMeters>
          </Trackpoint>
          <Trackpoint>
            <Time>2022-07-12T12:32:01.000Z</Time>
            <Position>
              <LatitudeDegrees>43.30287507735192775726318359375</LatitudeDegrees>
              <LongitudeDegrees>-2.991724200546741485595703125</LongitudeDegrees>
            </Position>
            <AltitudeMeters>-60.59999847412109375</AltitudeMeters>
            <DistanceMeters>NAN</DistanceMeters>
          </Trackpoint>
          <Trackpoint>
            <Time>2022-07-12T12:32:03.000Z</Time>
            <Position>
              <LatitudeDegrees>43.30282880924642086029052734375</LatitudeDegrees>
              <LongitudeDegrees>-2.991810031235218048095703125</LongitudeDegrees>
            </Position>
            <AltitudeMeters>-60.59999847412109375</AltitudeMeters>
            <DistanceMeters>NAN</DistanceMeters>
          </Trackpoint>
          <Trackpoint>
            <Time>2022-07-12T12:32:04.000Z</Time>
            <Position>
              <LatitudeDegrees>43.302813805639743804931640625</LatitudeDegrees>
              <LongitudeDegrees>-2.99185168929398059844970703125</LongitudeDegrees>
            </Position>
            <AltitudeMeters>-60.799999237060546875</AltitudeMeters>
            <DistanceMeters>NAN</DistanceMeters>
          </Trackpoint>
          <Trackpoint>
            <Time>2022-07-12T12:32:09.000Z</Time>
            <Position>
              <LatitudeDegrees>43.30271766521036624908447265625</LatitudeDegrees>
              <LongitudeDegrees>-2.99199736677110195159912109375</LongitudeDegrees>
            </Position>
            <AltitudeMeters>-60.799999237060546875</AltitudeMeters>
            <DistanceMeters>NAN</DistanceMeters>
          </Trackpoint>
          <Trackpoint>
            <Time>2022-07-12T12:32:13.000Z</Time>
            <Position>
              <LatitudeDegrees>43.3026818744838237762451171875</LatitudeDegrees>
              <LongitudeDegrees>-2.99202402122318744659423828125</LongitudeDegrees>
            </Position>
            <AltitudeMeters>-60.59999847412109375</AltitudeMeters>
            <DistanceMeters>NAN</DistanceMeters>
          </Trackpoint>
          <Trackpoint>
            <Time>2022-07-12T12:32:17.000Z</Time>
            <Position>
              <LatitudeDegrees>43.30267290584743022918701171875</LatitudeDegrees>
              <LongitudeDegrees>-2.99204480834305286407470703125</LongitudeDegrees>
            </Position>
            <AltitudeMeters>-60.799999237060546875</AltitudeMeters>
            <DistanceMeters>NAN</DistanceMeters>
          </Trackpoint>
          <Trackpoint>
            <Time>2022-07-12T12:32:20.000Z</Time>
            <Position>
              <LatitudeDegrees>43.3026942797005176544189453125</LatitudeDegrees>
              <LongitudeDegrees>-2.9920961894094944000244140625</LongitudeDegrees>
            </Position>
            <AltitudeMeters>-60.799999237060546875</AltitudeMeters>
            <DistanceMeters>NAN</DistanceMeters>
          </Trackpoint>
          <Trackpoint>
            <Time>2022-07-12T12:32:22.000Z</Time>
            <Position>
              <LatitudeDegrees>43.3027073554694652557373046875</LatitudeDegrees>
              <LongitudeDegrees>-2.9921583831310272216796875</LongitudeDegrees>
            </Position>
            <AltitudeMeters>-60.799999237060546875</AltitudeMeters>
            <DistanceMeters>NAN</DistanceMeters>
          </Trackpoint>
          <Trackpoint>
            <Time>2022-07-12T12:32:30.000Z</Time>
            <Position>
              <LatitudeDegrees>43.30268732272088527679443359375</LatitudeDegrees>
              <LongitudeDegrees>-2.992527186870574951171875</LongitudeDegrees>
            </Position>
            <AltitudeMeters>-61</AltitudeMeters>
            <DistanceMeters>NAN</DistanceMeters>
          </Trackpoint>
          <Trackpoint>
            <Time>2022-07-12T12:32:34.000Z</Time>
            <Position>
              <LatitudeDegrees>43.30269754864275455474853515625</LatitudeDegrees>
              <LongitudeDegrees>-2.99269574694335460662841796875</LongitudeDegrees>
            </Position>
            <AltitudeMeters>-61.200000762939453125</AltitudeMeters>
            <DistanceMeters>NAN</DistanceMeters>
          </Trackpoint>
          <Trackpoint>
            <Time>2022-07-12T12:32:35.000Z</Time>
            <Position>
              <LatitudeDegrees>43.30270492471754550933837890625</LatitudeDegrees>
              <LongitudeDegrees>-2.99273732118308544158935546875</LongitudeDegrees>
            </Position>
            <AltitudeMeters>-61.40000152587890625</AltitudeMeters>
            <DistanceMeters>NAN</DistanceMeters>
          </Trackpoint>
          <Trackpoint>
            <Time>2022-07-12T12:32:40.000Z</Time>
            <Position>
              <LatitudeDegrees>43.302722610533237457275390625</LatitudeDegrees>
              <LongitudeDegrees>-2.99295994453132152557373046875</LongitudeDegrees>
            </Position>
            <AltitudeMeters>-60.799999237060546875</AltitudeMeters>
            <DistanceMeters>NAN</DistanceMeters>
          </Trackpoint>
          <Trackpoint>
            <Time>2022-07-12T12:32:48.000Z</Time>
            <Position>
              <LatitudeDegrees>43.302755467593669891357421875</LatitudeDegrees>
              <LongitudeDegrees>-2.99333780072629451751708984375</LongitudeDegrees>
            </Position>
            <AltitudeMeters>-60.799999237060546875</AltitudeMeters>
            <DistanceMeters>NAN</DistanceMeters>
          </Trackpoint>
          <Trackpoint>
            <Time>2022-07-12T12:32:49.000Z</Time>
            <Position>
              <LatitudeDegrees>43.302760832011699676513671875</LatitudeDegrees>
              <LongitudeDegrees>-2.993387840688228607177734375</LongitudeDegrees>
            </Position>
            <AltitudeMeters>-60.799999237060546875</AltitudeMeters>
            <DistanceMeters>NAN</DistanceMeters>
          </Trackpoint>
          <Trackpoint>
            <Time>2022-07-12T12:32:56.000Z</Time>
            <Position>
              <LatitudeDegrees>43.3027801103889942169189453125</LatitudeDegrees>
              <LongitudeDegrees>-2.9937457479536533355712890625</LongitudeDegrees>
            </Position>
            <AltitudeMeters>-61.40000152587890625</AltitudeMeters>
            <DistanceMeters>NAN</DistanceMeters>
          </Trackpoint>
          <Trackpoint>
            <Time>2022-07-12T12:33:01.000Z</Time>
            <Position>
              <LatitudeDegrees>43.30278773792088031768798828125</LatitudeDegrees>
              <LongitudeDegrees>-2.99401086755096912384033203125</LongitudeDegrees>
            </Position>
            <AltitudeMeters>-61.200000762939453125</AltitudeMeters>
            <DistanceMeters>NAN</DistanceMeters>
          </Trackpoint>
          <Trackpoint>
            <Time>2022-07-12T12:33:05.000Z</Time>
            <Position>
              <LatitudeDegrees>43.3027928508818149566650390625</LatitudeDegrees>
              <LongitudeDegrees>-2.9942302219569683074951171875</LongitudeDegrees>
            </Position>
            <AltitudeMeters>-60.799999237060546875</AltitudeMeters>
            <DistanceMeters>NAN</DistanceMeters>
          </Trackpoint>
          <Trackpoint>
            <Time>2022-07-12T12:33:10.000Z</Time>
            <Position>
              <LatitudeDegrees>43.3028042502701282501220703125</LatitudeDegrees>
              <LongitudeDegrees>-2.99450464546680450439453125</LongitudeDegrees>
            </Position>
            <AltitudeMeters>-60.40000152587890625</AltitudeMeters>
            <DistanceMeters>NAN</DistanceMeters>
          </Trackpoint>
          <Trackpoint>
            <Time>2022-07-12T12:33:14.000Z</Time>
            <Position>
              <LatitudeDegrees>43.302806429564952850341796875</LatitudeDegrees>
              <LongitudeDegrees>-2.99471561796963214874267578125</LongitudeDegrees>
            </Position>
            <AltitudeMeters>-60.59999847412109375</AltitudeMeters>
            <DistanceMeters>NAN</DistanceMeters>
          </Trackpoint>
          <Trackpoint>
            <Time>2022-07-12T12:33:23.000Z</Time>
            <Position>
              <LatitudeDegrees>43.30279980786144733428955078125</LatitudeDegrees>
              <LongitudeDegrees>-2.99515013583004474639892578125</LongitudeDegrees>
            </Position>
            <AltitudeMeters>-60.59999847412109375</AltitudeMeters>
            <DistanceMeters>NAN</DistanceMeters>
          </Trackpoint>
          <Trackpoint>
            <Time>2022-07-12T12:33:27.000Z</Time>
            <Position>
              <LatitudeDegrees>43.30280751921236515045166015625</LatitudeDegrees>
              <LongitudeDegrees>-2.99536840058863162994384765625</LongitudeDegrees>
            </Position>
            <AltitudeMeters>-60.200000762939453125</AltitudeMeters>
            <DistanceMeters>NAN</DistanceMeters>
          </Trackpoint>
          <Trackpoint>
            <Time>2022-07-12T12:33:28.000Z</Time>
            <Position>
              <LatitudeDegrees>43.302809782326221466064453125</LatitudeDegrees>
              <LongitudeDegrees>-2.9954201169312000274658203125</LongitudeDegrees>
            </Position>
            <AltitudeMeters>-60</AltitudeMeters>
            <DistanceMeters>NAN</DistanceMeters>
          </Trackpoint>
          <Trackpoint>
            <Time>2022-07-12T12:33:30.000Z</Time>
            <Position>
              <LatitudeDegrees>43.30280785448849201202392578125</LatitudeDegrees>
              <LongitudeDegrees>-2.9955227114260196685791015625</LongitudeDegrees>
            </Position>
            <AltitudeMeters>-59.799999237060546875</AltitudeMeters>
            <DistanceMeters>NAN</DistanceMeters>
          </Trackpoint>
          <Trackpoint>
            <Time>2022-07-12T12:33:37.000Z</Time>
            <Position>
              <LatitudeDegrees>43.30278673209249973297119140625</LatitudeDegrees>
              <LongitudeDegrees>-2.995874583721160888671875</LongitudeDegrees>
            </Position>
            <AltitudeMeters>-59.59999847412109375</AltitudeMeters>
            <DistanceMeters>NAN</DistanceMeters>
          </Trackpoint>
          <Trackpoint>
            <Time>2022-07-12T12:33:45.000Z</Time>
            <Position>
              <LatitudeDegrees>43.30277047120034694671630859375</LatitudeDegrees>
              <LongitudeDegrees>-2.99624263308942317962646484375</LongitudeDegrees>
            </Position>
            <AltitudeMeters>-59.799999237060546875</AltitudeMeters>
            <DistanceMeters>NAN</DistanceMeters>
          </Trackpoint>
          <Trackpoint>
            <Time>2022-07-12T12:33:55.000Z</Time>
            <Position>
              <LatitudeDegrees>43.30275555141270160675048828125</LatitudeDegrees>
              <LongitudeDegrees>-2.99680036492645740509033203125</LongitudeDegrees>
            </Position>
            <AltitudeMeters>-59.59999847412109375</AltitudeMeters>
            <DistanceMeters>NAN</DistanceMeters>
          </Trackpoint>
          <Trackpoint>
            <Time>2022-07-12T12:34:03.000Z</Time>
            <Position>
              <LatitudeDegrees>43.3027502708137035369873046875</LatitudeDegrees>
              <LongitudeDegrees>-2.99723136238753795623779296875</LongitudeDegrees>
            </Position>
            <AltitudeMeters>-59.200000762939453125</AltitudeMeters>
            <DistanceMeters>NAN</DistanceMeters>
          </Trackpoint>
          <Trackpoint>
            <Time>2022-07-12T12:34:04.000Z</Time>
            <Position>
              <LatitudeDegrees>43.30274700187146663665771484375</LatitudeDegrees>
              <LongitudeDegrees>-2.997276373207569122314453125</LongitudeDegrees>
            </Position>
            <AltitudeMeters>-59</AltitudeMeters>
            <DistanceMeters>NAN</DistanceMeters>
          </Trackpoint>
          <Trackpoint>
            <Time>2022-07-12T12:34:05.000Z</Time>
            <Position>
              <LatitudeDegrees>43.30274364911019802093505859375</LatitudeDegrees>
              <LongitudeDegrees>-2.99731015227735042572021484375</LongitudeDegrees>
            </Position>
            <AltitudeMeters>-59</AltitudeMeters>
            <DistanceMeters>NAN</DistanceMeters>
          </Trackpoint>
          <Trackpoint>
            <Time>2022-07-12T12:34:09.000Z</Time>
            <Position>
              <LatitudeDegrees>43.3027341775596141815185546875</LatitudeDegrees>
              <LongitudeDegrees>-2.9974716715514659881591796875</LongitudeDegrees>
            </Position>
            <AltitudeMeters>-58.40000152587890625</AltitudeMeters>
            <DistanceMeters>NAN</DistanceMeters>
          </Trackpoint>
          <Trackpoint>
            <Time>2022-07-12T12:34:14.000Z</Time>
            <Position>
              <LatitudeDegrees>43.3027308247983455657958984375</LatitudeDegrees>
              <LongitudeDegrees>-2.99766361713409423828125</LongitudeDegrees>
            </Position>
            <AltitudeMeters>-57.799999237060546875</AltitudeMeters>
            <DistanceMeters>NAN</DistanceMeters>
          </Trackpoint>
          <Trackpoint>
            <Time>2022-07-12T12:34:18.000Z</Time>
            <Position>
              <LatitudeDegrees>43.30272722057998180389404296875</LatitudeDegrees>
              <LongitudeDegrees>-2.99779999069869518280029296875</LongitudeDegrees>
            </Position>
            <AltitudeMeters>-57.40000152587890625</AltitudeMeters>
            <DistanceMeters>NAN</DistanceMeters>
          </Trackpoint>
          <Trackpoint>
            <Time>2022-07-12T12:34:25.000Z</Time>
            <Position>
              <LatitudeDegrees>43.30274038016796112060546875</LatitudeDegrees>
              <LongitudeDegrees>-2.9980553872883319854736328125</LongitudeDegrees>
            </Position>
            <AltitudeMeters>-56.799999237060546875</AltitudeMeters>
            <DistanceMeters>NAN</DistanceMeters>
          </Trackpoint>
          <Trackpoint>
            <Time>2022-07-12T12:34:27.000Z</Time>
            <Position>
              <LatitudeDegrees>43.30273660831153392791748046875</LatitudeDegrees>
              <LongitudeDegrees>-2.99812939949333667755126953125</LongitudeDegrees>
            </Position>
            <AltitudeMeters>-56.799999237060546875</AltitudeMeters>
            <DistanceMeters>NAN</DistanceMeters>
          </Trackpoint>
          <Trackpoint>
            <Time>2022-07-12T12:34:32.000Z</Time>
            <Position>
              <LatitudeDegrees>43.30269587226212024688720703125</LatitudeDegrees>
              <LongitudeDegrees>-2.99832536838948726654052734375</LongitudeDegrees>
            </Position>
            <AltitudeMeters>-56.59999847412109375</AltitudeMeters>
            <DistanceMeters>NAN</DistanceMeters>
          </Trackpoint>
          <Trackpoint>
            <Time>2022-07-12T12:34:38.000Z</Time>
            <Position>
              <LatitudeDegrees>43.30268665216863155364990234375</LatitudeDegrees>
              <LongitudeDegrees>-2.99853189848363399505615234375</LongitudeDegrees>
            </Position>
            <AltitudeMeters>-56.40000152587890625</AltitudeMeters>
            <DistanceMeters>NAN</DistanceMeters>
          </Trackpoint>
          <Trackpoint>
            <Time>2022-07-12T12:34:46.000Z</Time>
            <Position>
              <LatitudeDegrees>43.30262227915227413177490234375</LatitudeDegrees>
              <LongitudeDegrees>-2.9988184757530689239501953125</LongitudeDegrees>
            </Position>
            <AltitudeMeters>-55.799999237060546875</AltitudeMeters>
            <DistanceMeters>NAN</DistanceMeters>
          </Trackpoint>
          <Trackpoint>
            <Time>2022-07-12T12:34:53.000Z</Time>
            <Position>
              <LatitudeDegrees>43.30256863497197628021240234375</LatitudeDegrees>
              <LongitudeDegrees>-2.99906197004020214080810546875</LongitudeDegrees>
            </Position>
            <AltitudeMeters>-55.40000152587890625</AltitudeMeters>
            <DistanceMeters>NAN</DistanceMeters>
          </Trackpoint>
          <Trackpoint>
            <Time>2022-07-12T12:34:57.000Z</Time>
            <Position>
              <LatitudeDegrees>43.30263937823474407196044921875</LatitudeDegrees>
              <LongitudeDegrees>-2.999156601727008819580078125</LongitudeDegrees>
            </Position>
            <AltitudeMeters>-55.200000762939453125</AltitudeMeters>
            <DistanceMeters>NAN</DistanceMeters>
          </Trackpoint>
          <Trackpoint>
            <Time>2022-07-12T12:34:58.000Z</Time>
            <Position>
              <LatitudeDegrees>43.3026577346026897430419921875</LatitudeDegrees>
              <LongitudeDegrees>-2.999170012772083282470703125</LongitudeDegrees>
            </Position>
            <AltitudeMeters>-55.200000762939453125</AltitudeMeters>
            <DistanceMeters>NAN</DistanceMeters>
          </Trackpoint>
          <Trackpoint>
            <Time>2022-07-12T12:35:02.000Z</Time>
            <Position>
              <LatitudeDegrees>43.30272420309484004974365234375</LatitudeDegrees>
              <LongitudeDegrees>-2.9992335475981235504150390625</LongitudeDegrees>
            </Position>
            <AltitudeMeters>-54.799999237060546875</AltitudeMeters>
            <DistanceMeters>NAN</DistanceMeters>
          </Trackpoint>
          <Trackpoint>
            <Time>2022-07-12T12:35:08.000Z</Time>
            <Position>
              <LatitudeDegrees>43.30282931216061115264892578125</LatitudeDegrees>
              <LongitudeDegrees>-2.9993478767573833465576171875</LongitudeDegrees>
            </Position>
            <AltitudeMeters>-54</AltitudeMeters>
            <DistanceMeters>NAN</DistanceMeters>
          </Trackpoint>
          <Trackpoint>
            <Time>2022-07-12T12:35:15.000Z</Time>
            <Position>
              <LatitudeDegrees>43.3029973693192005157470703125</LatitudeDegrees>
              <LongitudeDegrees>-2.99950788728892803192138671875</LongitudeDegrees>
            </Position>
            <AltitudeMeters>-54.40000152587890625</AltitudeMeters>
            <DistanceMeters>NAN</DistanceMeters>
          </Trackpoint>
          <Trackpoint>
            <Time>2022-07-12T12:35:19.000Z</Time>
            <Position>
              <LatitudeDegrees>43.3031650073826313018798828125</LatitudeDegrees>
              <LongitudeDegrees>-2.999664209783077239990234375</LongitudeDegrees>
            </Position>
            <AltitudeMeters>-54.799999237060546875</AltitudeMeters>
            <DistanceMeters>NAN</DistanceMeters>
          </Trackpoint>
          <Trackpoint>
            <Time>2022-07-12T12:35:20.000Z</Time>
            <Position>
              <LatitudeDegrees>43.303214125335216522216796875</LatitudeDegrees>
              <LongitudeDegrees>-2.99969740211963653564453125</LongitudeDegrees>
            </Position>
            <AltitudeMeters>-54.799999237060546875</AltitudeMeters>
            <DistanceMeters>NAN</DistanceMeters>
          </Trackpoint>
          <Trackpoint>
            <Time>2022-07-12T12:35:23.000Z</Time>
            <Position>
              <LatitudeDegrees>43.3033678494393825531005859375</LatitudeDegrees>
              <LongitudeDegrees>-2.9997505433857440948486328125</LongitudeDegrees>
            </Position>
            <AltitudeMeters>-55.40000152587890625</AltitudeMeters>
            <DistanceMeters>NAN</DistanceMeters>
          </Trackpoint>
          <Trackpoint>
            <Time>2022-07-12T12:35:25.000Z</Time>
            <Position>
              <LatitudeDegrees>43.30346717499196529388427734375</LatitudeDegrees>
              <LongitudeDegrees>-2.99974626861512660980224609375</LongitudeDegrees>
            </Position>
            <AltitudeMeters>-55.59999847412109375</AltitudeMeters>
            <DistanceMeters>NAN</DistanceMeters>
          </Trackpoint>
          <Trackpoint>
            <Time>2022-07-12T12:35:26.000Z</Time>
            <Position>
              <LatitudeDegrees>43.30350288189947605133056640625</LatitudeDegrees>
              <LongitudeDegrees>-2.9997394792735576629638671875</LongitudeDegrees>
            </Position>
            <AltitudeMeters>-56.200000762939453125</AltitudeMeters>
            <DistanceMeters>NAN</DistanceMeters>
          </Trackpoint>
          <Trackpoint>
            <Time>2022-07-12T12:35:29.000Z</Time>
            <Position>
              <LatitudeDegrees>43.30365099012851715087890625</LatitudeDegrees>
              <LongitudeDegrees>-2.9997143335640430450439453125</LongitudeDegrees>
            </Position>
            <AltitudeMeters>-56.799999237060546875</AltitudeMeters>
            <DistanceMeters>NAN</DistanceMeters>
          </Trackpoint>
          <Trackpoint>
            <Time>2022-07-12T12:35:31.000Z</Time>
            <Position>
              <LatitudeDegrees>43.3037339709699153900146484375</LatitudeDegrees>
              <LongitudeDegrees>-2.99971274100244045257568359375</LongitudeDegrees>
            </Position>
            <AltitudeMeters>-57</AltitudeMeters>
            <DistanceMeters>NAN</DistanceMeters>
          </Trackpoint>
          <Trackpoint>
            <Time>2022-07-12T12:35:35.000Z</Time>
            <Position>
              <LatitudeDegrees>43.3038925565779209136962890625</LatitudeDegrees>
              <LongitudeDegrees>-2.999695725739002227783203125</LongitudeDegrees>
            </Position>
            <AltitudeMeters>-57</AltitudeMeters>
            <DistanceMeters>NAN</DistanceMeters>
          </Trackpoint>
          <Trackpoint>
            <Time>2022-07-12T12:35:39.000Z</Time>
            <Position>
              <LatitudeDegrees>43.30403454601764678955078125</LatitudeDegrees>
              <LongitudeDegrees>-2.999688684940338134765625</LongitudeDegrees>
            </Position>
            <AltitudeMeters>-57.200000762939453125</AltitudeMeters>
            <DistanceMeters>NAN</DistanceMeters>
          </Trackpoint>
          <Trackpoint>
            <Time>2022-07-12T12:35:44.000Z</Time>
            <Position>
              <LatitudeDegrees>43.30419841222465038299560546875</LatitudeDegrees>
              <LongitudeDegrees>-2.99969363026320934295654296875</LongitudeDegrees>
            </Position>
            <AltitudeMeters>-56.40000152587890625</AltitudeMeters>
            <DistanceMeters>NAN</DistanceMeters>
          </Trackpoint>
          <Trackpoint>
            <Time>2022-07-12T12:35:48.000Z</Time>
            <Position>
              <LatitudeDegrees>43.3043170161545276641845703125</LatitudeDegrees>
              <LongitudeDegrees>-2.999698407948017120361328125</LongitudeDegrees>
            </Position>
            <AltitudeMeters>-56.40000152587890625</AltitudeMeters>
            <DistanceMeters>NAN</DistanceMeters>
          </Trackpoint>
          <Trackpoint>
            <Time>2022-07-12T12:35:57.000Z</Time>
            <Position>
              <LatitudeDegrees>43.3045781962573528289794921875</LatitudeDegrees>
              <LongitudeDegrees>-2.99974073655903339385986328125</LongitudeDegrees>
            </Position>
            <AltitudeMeters>-56.59999847412109375</AltitudeMeters>
            <DistanceMeters>NAN</DistanceMeters>
          </Trackpoint>
          <Trackpoint>
            <Time>2022-07-12T12:36:01.000Z</Time>
            <Position>
              <LatitudeDegrees>43.30469512380659580230712890625</LatitudeDegrees>
              <LongitudeDegrees>-2.9997696541249752044677734375</LongitudeDegrees>
            </Position>
            <AltitudeMeters>-56.799999237060546875</AltitudeMeters>
            <DistanceMeters>NAN</DistanceMeters>
          </Trackpoint>
          <Trackpoint>
            <Time>2022-07-12T12:36:04.000Z</Time>
            <Position>
              <LatitudeDegrees>43.3047823794186115264892578125</LatitudeDegrees>
              <LongitudeDegrees>-2.99979236908257007598876953125</LongitudeDegrees>
            </Position>
            <AltitudeMeters>-56.799999237060546875</AltitudeMeters>
            <DistanceMeters>NAN</DistanceMeters>
          </Trackpoint>
          <Trackpoint>
            <Time>2022-07-12T12:36:05.000Z</Time>
            <Position>
              <LatitudeDegrees>43.30481079407036304473876953125</LatitudeDegrees>
              <LongitudeDegrees>-2.99979672767221927642822265625</LongitudeDegrees>
            </Position>
            <AltitudeMeters>-56.799999237060546875</AltitudeMeters>
            <DistanceMeters>NAN</DistanceMeters>
          </Trackpoint>
          <Trackpoint>
            <Time>2022-07-12T12:36:09.000Z</Time>
            <Position>
              <LatitudeDegrees>43.30491506494581699371337890625</LatitudeDegrees>
              <LongitudeDegrees>-2.9998362064361572265625</LongitudeDegrees>
            </Position>
            <AltitudeMeters>-56.59999847412109375</AltitudeMeters>
            <DistanceMeters>NAN</DistanceMeters>
          </Trackpoint>
          <Trackpoint>
            <Time>2022-07-12T12:36:13.000Z</Time>
            <Position>
              <LatitudeDegrees>43.3050278015434741973876953125</LatitudeDegrees>
              <LongitudeDegrees>-2.99987467937171459197998046875</LongitudeDegrees>
            </Position>
            <AltitudeMeters>-56.200000762939453125</AltitudeMeters>
            <DistanceMeters>NAN</DistanceMeters>
          </Trackpoint>
          <Trackpoint>
            <Time>2022-07-12T12:36:20.000Z</Time>
            <Position>
              <LatitudeDegrees>43.3052199147641658782958984375</LatitudeDegrees>
              <LongitudeDegrees>-2.9999325983226299285888671875</LongitudeDegrees>
            </Position>
            <AltitudeMeters>-55.40000152587890625</AltitudeMeters>
            <DistanceMeters>NAN</DistanceMeters>
          </Trackpoint>
          <Trackpoint>
            <Time>2022-07-12T12:36:22.000Z</Time>
            <Position>
              <LatitudeDegrees>43.30526894889771938323974609375</LatitudeDegrees>
              <LongitudeDegrees>-2.999951541423797607421875</LongitudeDegrees>
            </Position>
            <AltitudeMeters>-55.200000762939453125</AltitudeMeters>
            <DistanceMeters>NAN</DistanceMeters>
          </Trackpoint>
          <Trackpoint>
            <Time>2022-07-12T12:36:27.000Z</Time>
            <Position>
              <LatitudeDegrees>43.3054006285965442657470703125</LatitudeDegrees>
              <LongitudeDegrees>-3.00002723000943660736083984375</LongitudeDegrees>
            </Position>
            <AltitudeMeters>-54.40000152587890625</AltitudeMeters>
            <DistanceMeters>NAN</DistanceMeters>
          </Trackpoint>
          <Trackpoint>
            <Time>2022-07-12T12:36:28.000Z</Time>
            <Position>
              <LatitudeDegrees>43.30542770214378833770751953125</LatitudeDegrees>
              <LongitudeDegrees>-3.0000479333102703094482421875</LongitudeDegrees>
            </Position>
            <AltitudeMeters>-54.40000152587890625</AltitudeMeters>
            <DistanceMeters>NAN</DistanceMeters>
          </Trackpoint>
          <Trackpoint>
            <Time>2022-07-12T12:36:31.000Z</Time>
            <Position>
              <LatitudeDegrees>43.30550246872007846832275390625</LatitudeDegrees>
              <LongitudeDegrees>-3.00009713508188724517822265625</LongitudeDegrees>
            </Position>
            <AltitudeMeters>-54.200000762939453125</AltitudeMeters>
            <DistanceMeters>NAN</DistanceMeters>
          </Trackpoint>
          <Trackpoint>
            <Time>2022-07-12T12:36:36.000Z</Time>
            <Position>
              <LatitudeDegrees>43.30561445094645023345947265625</LatitudeDegrees>
              <LongitudeDegrees>-3.0001696385443210601806640625</LongitudeDegrees>
            </Position>
            <AltitudeMeters>-53.59999847412109375</AltitudeMeters>
            <DistanceMeters>NAN</DistanceMeters>
          </Trackpoint>
          <Trackpoint>
            <Time>2022-07-12T12:36:43.000Z</Time>
            <Position>
              <LatitudeDegrees>43.305787704885005950927734375</LatitudeDegrees>
              <LongitudeDegrees>-3.000279776751995086669921875</LongitudeDegrees>
            </Position>
            <AltitudeMeters>-53.200000762939453125</AltitudeMeters>
            <DistanceMeters>NAN</DistanceMeters>
          </Trackpoint>
          <Trackpoint>
            <Time>2022-07-12T12:36:45.000Z</Time>
            <Position>
              <LatitudeDegrees>43.305833302438259124755859375</LatitudeDegrees>
              <LongitudeDegrees>-3.00030718557536602020263671875</LongitudeDegrees>
            </Position>
            <AltitudeMeters>-53</AltitudeMeters>
            <DistanceMeters>NAN</DistanceMeters>
          </Trackpoint>
          <Trackpoint>
            <Time>2022-07-12T12:36:46.000Z</Time>
            <Position>
              <LatitudeDegrees>43.30585601739585399627685546875</LatitudeDegrees>
              <LongitudeDegrees>-3.000319339334964752197265625</LongitudeDegrees>
            </Position>
            <AltitudeMeters>-53</AltitudeMeters>
            <DistanceMeters>NAN</DistanceMeters>
          </Trackpoint>
          <Trackpoint>
            <Time>2022-07-12T12:36:55.000Z</Time>
            <Position>
              <LatitudeDegrees>43.306069672107696533203125</LatitudeDegrees>
              <LongitudeDegrees>-3.00044582225382328033447265625</LongitudeDegrees>
            </Position>
            <AltitudeMeters>-52.200000762939453125</AltitudeMeters>
            <DistanceMeters>NAN</DistanceMeters>
          </Trackpoint>
          <Trackpoint>
            <Time>2022-07-12T12:36:57.000Z</Time>
            <Position>
              <LatitudeDegrees>43.3061177842319011688232421875</LatitudeDegrees>
              <LongitudeDegrees>-3.000472225248813629150390625</LongitudeDegrees>
            </Position>
            <AltitudeMeters>-52</AltitudeMeters>
            <DistanceMeters>NAN</DistanceMeters>
          </Trackpoint>
          <Trackpoint>
            <Time>2022-07-12T12:37:01.000Z</Time>
            <Position>
              <LatitudeDegrees>43.3062270842492580413818359375</LatitudeDegrees>
              <LongitudeDegrees>-3.000530563294887542724609375</LongitudeDegrees>
            </Position>
            <AltitudeMeters>-52</AltitudeMeters>
            <DistanceMeters>NAN</DistanceMeters>
          </Trackpoint>
          <Trackpoint>
            <Time>2022-07-12T12:37:03.000Z</Time>
            <Position>
              <LatitudeDegrees>43.30626807175576686859130859375</LatitudeDegrees>
              <LongitudeDegrees>-3.000537939369678497314453125</LongitudeDegrees>
            </Position>
            <AltitudeMeters>-52.200000762939453125</AltitudeMeters>
            <DistanceMeters>NAN</DistanceMeters>
          </Trackpoint>
          <Trackpoint>
            <Time>2022-07-12T12:37:07.000Z</Time>
            <Position>
              <LatitudeDegrees>43.3062708377838134765625</LatitudeDegrees>
              <LongitudeDegrees>-3.000436685979366302490234375</LongitudeDegrees>
            </Position>
            <AltitudeMeters>-52.200000762939453125</AltitudeMeters>
            <DistanceMeters>NAN</DistanceMeters>
          </Trackpoint>
          <Trackpoint>
            <Time>2022-07-12T12:37:11.000Z</Time>
            <Position>
              <LatitudeDegrees>43.3062740229070186614990234375</LatitudeDegrees>
              <LongitudeDegrees>-3.00028103403747081756591796875</LongitudeDegrees>
            </Position>
            <AltitudeMeters>-53</AltitudeMeters>
            <DistanceMeters>NAN</DistanceMeters>
          </Trackpoint>
          <Trackpoint>
            <Time>2022-07-12T12:37:12.000Z</Time>
            <Position>
              <LatitudeDegrees>43.3062817342579364776611328125</LatitudeDegrees>
              <LongitudeDegrees>-3.00024323165416717529296875</LongitudeDegrees>
            </Position>
            <AltitudeMeters>-53.200000762939453125</AltitudeMeters>
            <DistanceMeters>NAN</DistanceMeters>
          </Trackpoint>
          <Trackpoint>
            <Time>2022-07-12T12:37:14.000Z</Time>
            <Position>
              <LatitudeDegrees>43.30629874952137470245361328125</LatitudeDegrees>
              <LongitudeDegrees>-3.00015497021377086639404296875</LongitudeDegrees>
            </Position>
            <AltitudeMeters>-54</AltitudeMeters>
            <DistanceMeters>NAN</DistanceMeters>
          </Trackpoint>
          <Trackpoint>
            <Time>2022-07-12T12:37:16.000Z</Time>
            <Position>
              <LatitudeDegrees>43.3062612824141979217529296875</LatitudeDegrees>
              <LongitudeDegrees>-3.000132255256175994873046875</LongitudeDegrees>
            </Position>
            <AltitudeMeters>-54.40000152587890625</AltitudeMeters>
            <DistanceMeters>NAN</DistanceMeters>
          </Trackpoint>
          <Trackpoint>
            <Time>2022-07-12T12:37:19.000Z</Time>
            <Position>
              <LatitudeDegrees>43.3061952330172061920166015625</LatitudeDegrees>
              <LongitudeDegrees>-3.00026812590658664703369140625</LongitudeDegrees>
            </Position>
            <AltitudeMeters>-54.799999237060546875</AltitudeMeters>
            <DistanceMeters>NAN</DistanceMeters>
          </Trackpoint>
          <Trackpoint>
            <Time>2022-07-12T12:37:21.000Z</Time>
            <Position>
              <LatitudeDegrees>43.306150473654270172119140625</LatitudeDegrees>
              <LongitudeDegrees>-3.00040860660374164581298828125</LongitudeDegrees>
            </Position>
            <AltitudeMeters>-55.200000762939453125</AltitudeMeters>
            <DistanceMeters>NAN</DistanceMeters>
          </Trackpoint>
          <Trackpoint>
            <Time>2022-07-12T12:37:23.000Z</Time>
            <Position>
              <LatitudeDegrees>43.306102193892002105712890625</LatitudeDegrees>
              <LongitudeDegrees>-3.0005816929042339324951171875</LongitudeDegrees>
            </Position>
            <AltitudeMeters>-56</AltitudeMeters>
            <DistanceMeters>NAN</DistanceMeters>
          </Trackpoint>
          <Trackpoint>
            <Time>2022-07-12T12:37:24.000Z</Time>
            <Position>
              <LatitudeDegrees>43.30607880838215351104736328125</LatitudeDegrees>
              <LongitudeDegrees>-3.00064648501574993133544921875</LongitudeDegrees>
            </Position>
            <AltitudeMeters>-56.200000762939453125</AltitudeMeters>
            <DistanceMeters>NAN</DistanceMeters>
          </Trackpoint>
          <Trackpoint>
            <Time>2022-07-12T12:37:27.000Z</Time>
            <Position>
              <LatitudeDegrees>43.305988200008869171142578125</LatitudeDegrees>
              <LongitudeDegrees>-3.000915460288524627685546875</LongitudeDegrees>
            </Position>
            <AltitudeMeters>-56.40000152587890625</AltitudeMeters>
            <DistanceMeters>NAN</DistanceMeters>
          </Trackpoint>
          <Trackpoint>
            <Time>2022-07-12T12:37:30.000Z</Time>
            <Position>
              <LatitudeDegrees>43.30590513534843921661376953125</LatitudeDegrees>
              <LongitudeDegrees>-3.00116264261305332183837890625</LongitudeDegrees>
            </Position>
            <AltitudeMeters>-56.40000152587890625</AltitudeMeters>
            <DistanceMeters>NAN</DistanceMeters>
          </Trackpoint>
          <Trackpoint>
            <Time>2022-07-12T12:37:35.000Z</Time>
            <Position>
              <LatitudeDegrees>43.3057945780456066131591796875</LatitudeDegrees>
              <LongitudeDegrees>-3.00148383714258670806884765625</LongitudeDegrees>
            </Position>
            <AltitudeMeters>-55.799999237060546875</AltitudeMeters>
            <DistanceMeters>NAN</DistanceMeters>
          </Trackpoint>
          <Trackpoint>
            <Time>2022-07-12T12:37:40.000Z</Time>
            <Position>
              <LatitudeDegrees>43.305707238614559173583984375</LatitudeDegrees>
              <LongitudeDegrees>-3.00173697061836719512939453125</LongitudeDegrees>
            </Position>
            <AltitudeMeters>-55.200000762939453125</AltitudeMeters>
            <DistanceMeters>NAN</DistanceMeters>
          </Trackpoint>
          <Trackpoint>
            <Time>2022-07-12T12:37:41.000Z</Time>
            <Position>
              <LatitudeDegrees>43.30569441430270671844482421875</LatitudeDegrees>
              <LongitudeDegrees>-3.00178910605609416961669921875</LongitudeDegrees>
            </Position>
            <AltitudeMeters>-55.200000762939453125</AltitudeMeters>
            <DistanceMeters>NAN</DistanceMeters>
          </Trackpoint>
          <Trackpoint>
            <Time>2022-07-12T12:37:42.000Z</Time>
            <Position>
              <LatitudeDegrees>43.30567714758217334747314453125</LatitudeDegrees>
              <LongitudeDegrees>-3.001845516264438629150390625</LongitudeDegrees>
            </Position>
            <AltitudeMeters>-55.200000762939453125</AltitudeMeters>
            <DistanceMeters>NAN</DistanceMeters>
          </Trackpoint>
          <Trackpoint>
            <Time>2022-07-12T12:37:47.000Z</Time>
            <Position>
              <LatitudeDegrees>43.3056034706532955169677734375</LatitudeDegrees>
              <LongitudeDegrees>-3.0020584166049957275390625</LongitudeDegrees>
            </Position>
            <AltitudeMeters>-55</AltitudeMeters>
            <DistanceMeters>NAN</DistanceMeters>
          </Trackpoint>
          <Trackpoint>
            <Time>2022-07-12T12:37:55.000Z</Time>
            <Position>
              <LatitudeDegrees>43.30550716258585453033447265625</LatitudeDegrees>
              <LongitudeDegrees>-3.00235278904438018798828125</LongitudeDegrees>
            </Position>
            <AltitudeMeters>-54.59999847412109375</AltitudeMeters>
            <DistanceMeters>NAN</DistanceMeters>
          </Trackpoint>
          <Trackpoint>
            <Time>2022-07-12T12:37:59.000Z</Time>
            <Position>
              <LatitudeDegrees>43.3054648339748382568359375</LatitudeDegrees>
              <LongitudeDegrees>-3.0024977959692478179931640625</LongitudeDegrees>
            </Position>
            <AltitudeMeters>-54.59999847412109375</AltitudeMeters>
            <DistanceMeters>NAN</DistanceMeters>
          </Trackpoint>
          <Trackpoint>
            <Time>2022-07-12T12:38:04.000Z</Time>
            <Position>
              <LatitudeDegrees>43.30542217008769512176513671875</LatitudeDegrees>
              <LongitudeDegrees>-3.00263869576156139373779296875</LongitudeDegrees>
            </Position>
            <AltitudeMeters>-54.40000152587890625</AltitudeMeters>
            <DistanceMeters>NAN</DistanceMeters>
          </Trackpoint>
          <Trackpoint>
            <Time>2022-07-12T12:38:06.000Z</Time>
            <Position>
              <LatitudeDegrees>43.30540372990071773529052734375</LatitudeDegrees>
              <LongitudeDegrees>-3.002691753208637237548828125</LongitudeDegrees>
            </Position>
            <AltitudeMeters>-54.200000762939453125</AltitudeMeters>
            <DistanceMeters>NAN</DistanceMeters>
          </Trackpoint>
          <Trackpoint>
            <Time>2022-07-12T12:38:08.000Z</Time>
            <Position>
              <LatitudeDegrees>43.30537623725831508636474609375</LatitudeDegrees>
              <LongitudeDegrees>-3.002742715179920196533203125</LongitudeDegrees>
            </Position>
            <AltitudeMeters>-54</AltitudeMeters>
            <DistanceMeters>NAN</DistanceMeters>
          </Trackpoint>
          <Trackpoint>
            <Time>2022-07-12T12:38:11.000Z</Time>
            <Position>
              <LatitudeDegrees>43.3053429611027240753173828125</LatitudeDegrees>
              <LongitudeDegrees>-3.00281840376555919647216796875</LongitudeDegrees>
            </Position>
            <AltitudeMeters>-53.59999847412109375</AltitudeMeters>
            <DistanceMeters>NAN</DistanceMeters>
          </Trackpoint>
          <Trackpoint>
            <Time>2022-07-12T12:38:12.000Z</Time>
            <Position>
              <LatitudeDegrees>43.30533432774245738983154296875</LatitudeDegrees>
              <LongitudeDegrees>-3.0028451420366764068603515625</LongitudeDegrees>
            </Position>
            <AltitudeMeters>-53.59999847412109375</AltitudeMeters>
            <DistanceMeters>NAN</DistanceMeters>
          </Trackpoint>
          <Trackpoint>
            <Time>2022-07-12T12:38:18.000Z</Time>
            <Position>
              <LatitudeDegrees>43.30528722144663333892822265625</LatitudeDegrees>
              <LongitudeDegrees>-3.00299693830311298370361328125</LongitudeDegrees>
            </Position>
            <AltitudeMeters>-53.200000762939453125</AltitudeMeters>
            <DistanceMeters>NAN</DistanceMeters>
          </Trackpoint>
          <Trackpoint>
            <Time>2022-07-12T12:38:23.000Z</Time>
            <Position>
              <LatitudeDegrees>43.30524623394012451171875</LatitudeDegrees>
              <LongitudeDegrees>-3.00312199629843235015869140625</LongitudeDegrees>
            </Position>
            <AltitudeMeters>-52</AltitudeMeters>
            <DistanceMeters>NAN</DistanceMeters>
          </Trackpoint>
          <Trackpoint>
            <Time>2022-07-12T12:38:27.000Z</Time>
            <Position>
              <LatitudeDegrees>43.3052091859281063079833984375</LatitudeDegrees>
              <LongitudeDegrees>-3.00320715643465518951416015625</LongitudeDegrees>
            </Position>
            <AltitudeMeters>-51.799999237060546875</AltitudeMeters>
            <DistanceMeters>NAN</DistanceMeters>
          </Trackpoint>
          <Trackpoint>
            <Time>2022-07-12T12:38:29.000Z</Time>
            <Position>
              <LatitudeDegrees>43.30519418232142925262451171875</LatitudeDegrees>
              <LongitudeDegrees>-3.003250658512115478515625</LongitudeDegrees>
            </Position>
            <AltitudeMeters>-51.59999847412109375</AltitudeMeters>
            <DistanceMeters>NAN</DistanceMeters>
          </Trackpoint>
          <Trackpoint>
            <Time>2022-07-12T12:38:31.000Z</Time>
            <Position>
              <LatitudeDegrees>43.30518110655248165130615234375</LatitudeDegrees>
              <LongitudeDegrees>-3.00330338068306446075439453125</LongitudeDegrees>
            </Position>
            <AltitudeMeters>-51.40000152587890625</AltitudeMeters>
            <DistanceMeters>NAN</DistanceMeters>
          </Trackpoint>
          <Trackpoint>
            <Time>2022-07-12T12:38:36.000Z</Time>
            <Position>
              <LatitudeDegrees>43.305143974721431732177734375</LatitudeDegrees>
              <LongitudeDegrees>-3.00342173315584659576416015625</LongitudeDegrees>
            </Position>
            <AltitudeMeters>-50.799999237060546875</AltitudeMeters>
            <DistanceMeters>NAN</DistanceMeters>
          </Trackpoint>
          <Trackpoint>
            <Time>2022-07-12T12:38:44.000Z</Time>
            <Position>
              <LatitudeDegrees>43.30508320592343807220458984375</LatitudeDegrees>
              <LongitudeDegrees>-3.0036038719117641448974609375</LongitudeDegrees>
            </Position>
            <AltitudeMeters>-49.799999237060546875</AltitudeMeters>
            <DistanceMeters>NAN</DistanceMeters>
          </Trackpoint>
          <Trackpoint>
            <Time>2022-07-12T12:38:48.000Z</Time>
            <Position>
              <LatitudeDegrees>43.305048085749149322509765625</LatitudeDegrees>
              <LongitudeDegrees>-3.0036917142570018768310546875</LongitudeDegrees>
            </Position>
            <AltitudeMeters>-49.200000762939453125</AltitudeMeters>
            <DistanceMeters>NAN</DistanceMeters>
          </Trackpoint>
          <Trackpoint>
            <Time>2022-07-12T12:38:51.000Z</Time>
            <Position>
              <LatitudeDegrees>43.3050338365137577056884765625</LatitudeDegrees>
              <LongitudeDegrees>-3.00374879501760005950927734375</LongitudeDegrees>
            </Position>
            <AltitudeMeters>-48.799999237060546875</AltitudeMeters>
            <DistanceMeters>NAN</DistanceMeters>
          </Trackpoint>
          <Trackpoint>
            <Time>2022-07-12T12:38:58.000Z</Time>
            <Position>
              <LatitudeDegrees>43.304988406598567962646484375</LatitudeDegrees>
              <LongitudeDegrees>-3.00390469841659069061279296875</LongitudeDegrees>
            </Position>
            <AltitudeMeters>-48.799999237060546875</AltitudeMeters>
            <DistanceMeters>NAN</DistanceMeters>
          </Trackpoint>
          <Trackpoint>
            <Time>2022-07-12T12:39:07.000Z</Time>
            <Position>
              <LatitudeDegrees>43.30491757951676845550537109375</LatitudeDegrees>
              <LongitudeDegrees>-3.0041074566543102264404296875</LongitudeDegrees>
            </Position>
            <AltitudeMeters>-48.200000762939453125</AltitudeMeters>
            <DistanceMeters>NAN</DistanceMeters>
          </Trackpoint>
          <Trackpoint>
            <Time>2022-07-12T12:39:11.000Z</Time>
            <Position>
              <LatitudeDegrees>43.30496351234614849090576171875</LatitudeDegrees>
              <LongitudeDegrees>-3.00424399785697460174560546875</LongitudeDegrees>
            </Position>
            <AltitudeMeters>-47.799999237060546875</AltitudeMeters>
            <DistanceMeters>NAN</DistanceMeters>
          </Trackpoint>
          <Trackpoint>
            <Time>2022-07-12T12:39:14.000Z</Time>
            <Position>
              <LatitudeDegrees>43.30502704717218875885009765625</LatitudeDegrees>
              <LongitudeDegrees>-3.00436402671039104461669921875</LongitudeDegrees>
            </Position>
            <AltitudeMeters>-48</AltitudeMeters>
            <DistanceMeters>NAN</DistanceMeters>
          </Trackpoint>
          <Trackpoint>
            <Time>2022-07-12T12:39:16.000Z</Time>
            <Position>
              <LatitudeDegrees>43.30507390201091766357421875</LatitudeDegrees>
              <LongitudeDegrees>-3.0044534616172313690185546875</LongitudeDegrees>
            </Position>
            <AltitudeMeters>-48.200000762939453125</AltitudeMeters>
            <DistanceMeters>NAN</DistanceMeters>
          </Trackpoint>
          <Trackpoint>
            <Time>2022-07-12T12:39:17.000Z</Time>
            <Position>
              <LatitudeDegrees>43.30509946681559085845947265625</LatitudeDegrees>
              <LongitudeDegrees>-3.00450098700821399688720703125</LongitudeDegrees>
            </Position>
            <AltitudeMeters>-48.40000152587890625</AltitudeMeters>
            <DistanceMeters>NAN</DistanceMeters>
          </Trackpoint>
          <Trackpoint>
            <Time>2022-07-12T12:39:18.000Z</Time>
            <Position>
              <LatitudeDegrees>43.30512193031609058380126953125</LatitudeDegrees>
              <LongitudeDegrees>-3.0045547150075435638427734375</LongitudeDegrees>
            </Position>
            <AltitudeMeters>-48.59999847412109375</AltitudeMeters>
            <DistanceMeters>NAN</DistanceMeters>
          </Trackpoint>
          <Trackpoint>
            <Time>2022-07-12T12:39:20.000Z</Time>
            <Position>
              <LatitudeDegrees>43.30515176989138126373291015625</LatitudeDegrees>
              <LongitudeDegrees>-3.00468170084059238433837890625</LongitudeDegrees>
            </Position>
            <AltitudeMeters>-48.799999237060546875</AltitudeMeters>
            <DistanceMeters>NAN</DistanceMeters>
          </Trackpoint>
          <Trackpoint>
            <Time>2022-07-12T12:39:21.000Z</Time>
            <Position>
              <LatitudeDegrees>43.30515160225331783294677734375</LatitudeDegrees>
              <LongitudeDegrees>-3.00474925898015499114990234375</LongitudeDegrees>
            </Position>
            <AltitudeMeters>-49</AltitudeMeters>
            <DistanceMeters>NAN</DistanceMeters>
          </Trackpoint>
          <Trackpoint>
            <Time>2022-07-12T12:39:23.000Z</Time>
            <Position>
              <LatitudeDegrees>43.30513668246567249298095703125</LatitudeDegrees>
              <LongitudeDegrees>-3.0048903264105319976806640625</LongitudeDegrees>
            </Position>
            <AltitudeMeters>-49</AltitudeMeters>
            <DistanceMeters>NAN</DistanceMeters>
          </Trackpoint>
          <Trackpoint>
            <Time>2022-07-12T12:39:25.000Z</Time>
            <Position>
              <LatitudeDegrees>43.30510298721492290496826171875</LatitudeDegrees>
              <LongitudeDegrees>-3.0050442181527614593505859375</LongitudeDegrees>
            </Position>
            <AltitudeMeters>-49.40000152587890625</AltitudeMeters>
            <DistanceMeters>NAN</DistanceMeters>
          </Trackpoint>
          <Trackpoint>
            <Time>2022-07-12T12:39:26.000Z</Time>
            <Position>
              <LatitudeDegrees>43.30508236773312091827392578125</LatitudeDegrees>
              <LongitudeDegrees>-3.0051266960799694061279296875</LongitudeDegrees>
            </Position>
            <AltitudeMeters>-49.40000152587890625</AltitudeMeters>
            <DistanceMeters>NAN</DistanceMeters>
          </Trackpoint>
          <Trackpoint>
            <Time>2022-07-12T12:39:28.000Z</Time>
            <Position>
              <LatitudeDegrees>43.30503844656050205230712890625</LatitudeDegrees>
              <LongitudeDegrees>-3.0053092539310455322265625</LongitudeDegrees>
            </Position>
            <AltitudeMeters>-50</AltitudeMeters>
            <DistanceMeters>NAN</DistanceMeters>
          </Trackpoint>
          <Trackpoint>
            <Time>2022-07-12T12:39:31.000Z</Time>
            <Position>
              <LatitudeDegrees>43.3049674518406391143798828125</LatitudeDegrees>
              <LongitudeDegrees>-3.0055910535156726837158203125</LongitudeDegrees>
            </Position>
            <AltitudeMeters>-50.799999237060546875</AltitudeMeters>
            <DistanceMeters>NAN</DistanceMeters>
          </Trackpoint>
          <Trackpoint>
            <Time>2022-07-12T12:39:32.000Z</Time>
            <Position>
              <LatitudeDegrees>43.30494582653045654296875</LatitudeDegrees>
              <LongitudeDegrees>-3.00568836741149425506591796875</LongitudeDegrees>
            </Position>
            <AltitudeMeters>-51.40000152587890625</AltitudeMeters>
            <DistanceMeters>NAN</DistanceMeters>
          </Trackpoint>
          <Trackpoint>
            <Time>2022-07-12T12:39:38.000Z</Time>
            <Position>
              <LatitudeDegrees>43.30480459146201610565185546875</LatitudeDegrees>
              <LongitudeDegrees>-3.006276525557041168212890625</LongitudeDegrees>
            </Position>
            <AltitudeMeters>-52.40000152587890625</AltitudeMeters>
            <DistanceMeters>NAN</DistanceMeters>
          </Trackpoint>
          <Trackpoint>
            <Time>2022-07-12T12:39:40.000Z</Time>
            <Position>
              <LatitudeDegrees>43.304756395518779754638671875</LatitudeDegrees>
              <LongitudeDegrees>-3.0064768530428409576416015625</LongitudeDegrees>
            </Position>
            <AltitudeMeters>-52.59999847412109375</AltitudeMeters>
            <DistanceMeters>NAN</DistanceMeters>
          </Trackpoint>
          <Trackpoint>
            <Time>2022-07-12T12:39:45.000Z</Time>
            <Position>
              <LatitudeDegrees>43.3046747557818889617919921875</LatitudeDegrees>
              <LongitudeDegrees>-3.0068382807075977325439453125</LongitudeDegrees>
            </Position>
            <AltitudeMeters>-52.799999237060546875</AltitudeMeters>
            <DistanceMeters>NAN</DistanceMeters>
          </Trackpoint>
          <Trackpoint>
            <Time>2022-07-12T12:39:52.000Z</Time>
            <Position>
              <LatitudeDegrees>43.30460292287170886993408203125</LatitudeDegrees>
              <LongitudeDegrees>-3.0072753131389617919921875</LongitudeDegrees>
            </Position>
            <AltitudeMeters>-52.59999847412109375</AltitudeMeters>
            <DistanceMeters>NAN</DistanceMeters>
          </Trackpoint>
          <Trackpoint>
            <Time>2022-07-12T12:39:53.000Z</Time>
            <Position>
              <LatitudeDegrees>43.30459973774850368499755859375</LatitudeDegrees>
              <LongitudeDegrees>-3.007335998117923736572265625</LongitudeDegrees>
            </Position>
            <AltitudeMeters>-52.59999847412109375</AltitudeMeters>
            <DistanceMeters>NAN</DistanceMeters>
          </Trackpoint>
          <Trackpoint>
            <Time>2022-07-12T12:39:58.000Z</Time>
            <Position>
              <LatitudeDegrees>43.304600827395915985107421875</LatitudeDegrees>
              <LongitudeDegrees>-3.0076184682548046112060546875</LongitudeDegrees>
            </Position>
            <AltitudeMeters>-52.200000762939453125</AltitudeMeters>
            <DistanceMeters>NAN</DistanceMeters>
          </Trackpoint>
          <Trackpoint>
            <Time>2022-07-12T12:40:05.000Z</Time>
            <Position>
              <LatitudeDegrees>43.30465187318623065948486328125</LatitudeDegrees>
              <LongitudeDegrees>-3.00795324146747589111328125</LongitudeDegrees>
            </Position>
            <AltitudeMeters>-51.799999237060546875</AltitudeMeters>
            <DistanceMeters>NAN</DistanceMeters>
          </Trackpoint>
          <Trackpoint>
            <Time>2022-07-12T12:40:06.000Z</Time>
            <Position>
              <LatitudeDegrees>43.304663859307765960693359375</LatitudeDegrees>
              <LongitudeDegrees>-3.00799749791622161865234375</LongitudeDegrees>
            </Position>
            <AltitudeMeters>-51.59999847412109375</AltitudeMeters>
            <DistanceMeters>NAN</DistanceMeters>
          </Trackpoint>
          <Trackpoint>
            <Time>2022-07-12T12:40:15.000Z</Time>
            <Position>
              <LatitudeDegrees>43.30482437275350093841552734375</LatitudeDegrees>
              <LongitudeDegrees>-3.0084060318768024444580078125</LongitudeDegrees>
            </Position>
            <AltitudeMeters>-51.799999237060546875</AltitudeMeters>
            <DistanceMeters>NAN</DistanceMeters>
          </Trackpoint>
          <Trackpoint>
            <Time>2022-07-12T12:40:21.000Z</Time>
            <Position>
              <LatitudeDegrees>43.30494959838688373565673828125</LatitudeDegrees>
              <LongitudeDegrees>-3.00860074348747730255126953125</LongitudeDegrees>
            </Position>
            <AltitudeMeters>-52.799999237060546875</AltitudeMeters>
            <DistanceMeters>NAN</DistanceMeters>
          </Trackpoint>
          <Trackpoint>
            <Time>2022-07-12T12:40:24.000Z</Time>
            <Position>
              <LatitudeDegrees>43.3049661107361316680908203125</LatitudeDegrees>
              <LongitudeDegrees>-3.0086135677993297576904296875</LongitudeDegrees>
            </Position>
            <AltitudeMeters>-53</AltitudeMeters>
            <DistanceMeters>NAN</DistanceMeters>
          </Trackpoint>
          <Trackpoint>
            <Time>2022-07-12T12:40:29.000Z</Time>
            <Position>
              <LatitudeDegrees>43.30496904440224170684814453125</LatitudeDegrees>
              <LongitudeDegrees>-3.00861214287579059600830078125</LongitudeDegrees>
            </Position>
            <AltitudeMeters>-53</AltitudeMeters>
            <DistanceMeters>NAN</DistanceMeters>
          </Trackpoint>
          <Trackpoint>
            <Time>2022-07-12T12:42:21.000Z</Time>
            <Position>
              <LatitudeDegrees>43.30499435774981975555419921875</LatitudeDegrees>
              <LongitudeDegrees>-3.0086588300764560699462890625</LongitudeDegrees>
            </Position>
            <AltitudeMeters>-53.200000762939453125</AltitudeMeters>
            <DistanceMeters>NAN</DistanceMeters>
          </Trackpoint>
          <Trackpoint>
            <Time>2022-07-12T12:42:22.000Z</Time>
            <Position>
              <LatitudeDegrees>43.30501221120357513427734375</LatitudeDegrees>
              <LongitudeDegrees>-3.00868690945208072662353515625</LongitudeDegrees>
            </Position>
            <AltitudeMeters>-53.200000762939453125</AltitudeMeters>
            <DistanceMeters>NAN</DistanceMeters>
          </Trackpoint>
          <Trackpoint>
            <Time>2022-07-12T12:42:27.000Z</Time>
            <Position>
              <LatitudeDegrees>43.3051186613738536834716796875</LatitudeDegrees>
              <LongitudeDegrees>-3.0088187567889690399169921875</LongitudeDegrees>
            </Position>
            <AltitudeMeters>-53.200000762939453125</AltitudeMeters>
            <DistanceMeters>NAN</DistanceMeters>
          </Trackpoint>
          <Trackpoint>
            <Time>2022-07-12T12:42:33.000Z</Time>
            <Position>
              <LatitudeDegrees>43.305292166769504547119140625</LatitudeDegrees>
              <LongitudeDegrees>-3.00889427773654460906982421875</LongitudeDegrees>
            </Position>
            <AltitudeMeters>-52.200000762939453125</AltitudeMeters>
            <DistanceMeters>NAN</DistanceMeters>
          </Trackpoint>
          <Trackpoint>
            <Time>2022-07-12T12:42:36.000Z</Time>
            <Position>
              <LatitudeDegrees>43.30535226501524448394775390625</LatitudeDegrees>
              <LongitudeDegrees>-3.00891749560832977294921875</LongitudeDegrees>
            </Position>
            <AltitudeMeters>-52</AltitudeMeters>
            <DistanceMeters>NAN</DistanceMeters>
          </Trackpoint>
          <Trackpoint>
            <Time>2022-07-12T12:42:38.000Z</Time>
            <Position>
              <LatitudeDegrees>43.30538528971374034881591796875</LatitudeDegrees>
              <LongitudeDegrees>-3.00895999185740947723388671875</LongitudeDegrees>
            </Position>
            <AltitudeMeters>-52</AltitudeMeters>
            <DistanceMeters>NAN</DistanceMeters>
          </Trackpoint>
          <Trackpoint>
            <Time>2022-07-12T12:42:44.000Z</Time>
            <Position>
              <LatitudeDegrees>43.30545879900455474853515625</LatitudeDegrees>
              <LongitudeDegrees>-3.0091583915054798126220703125</LongitudeDegrees>
            </Position>
            <AltitudeMeters>-51.59999847412109375</AltitudeMeters>
            <DistanceMeters>NAN</DistanceMeters>
          </Trackpoint>
          <Trackpoint>
            <Time>2022-07-12T12:42:46.000Z</Time>
            <Position>
              <LatitudeDegrees>43.3054720424115657806396484375</LatitudeDegrees>
              <LongitudeDegrees>-3.00922016613185405731201171875</LongitudeDegrees>
            </Position>
            <AltitudeMeters>-51.59999847412109375</AltitudeMeters>
            <DistanceMeters>NAN</DistanceMeters>
          </Trackpoint>
          <Trackpoint>
            <Time>2022-07-12T12:42:48.000Z</Time>
            <Position>
              <LatitudeDegrees>43.30544915981590747833251953125</LatitudeDegrees>
              <LongitudeDegrees>-3.00928018055856227874755859375</LongitudeDegrees>
            </Position>
            <AltitudeMeters>-52</AltitudeMeters>
            <DistanceMeters>NAN</DistanceMeters>
          </Trackpoint>
          <Trackpoint>
            <Time>2022-07-12T12:42:50.000Z</Time>
            <Position>
              <LatitudeDegrees>43.305382020771503448486328125</LatitudeDegrees>
              <LongitudeDegrees>-3.0093551985919475555419921875</LongitudeDegrees>
            </Position>
            <AltitudeMeters>-52.200000762939453125</AltitudeMeters>
            <DistanceMeters>NAN</DistanceMeters>
          </Trackpoint>
          <Trackpoint>
            <Time>2022-07-12T12:42:52.000Z</Time>
            <Position>
              <LatitudeDegrees>43.3052812702953815460205078125</LatitudeDegrees>
              <LongitudeDegrees>-3.0094541050493717193603515625</LongitudeDegrees>
            </Position>
            <AltitudeMeters>-52.799999237060546875</AltitudeMeters>
            <DistanceMeters>NAN</DistanceMeters>
          </Trackpoint>
          <Trackpoint>
            <Time>2022-07-12T12:42:55.000Z</Time>
            <Position>
              <LatitudeDegrees>43.305122852325439453125</LatitudeDegrees>
              <LongitudeDegrees>-3.0096378363668918609619140625</LongitudeDegrees>
            </Position>
            <AltitudeMeters>-53.40000152587890625</AltitudeMeters>
            <DistanceMeters>NAN</DistanceMeters>
          </Trackpoint>
          <Trackpoint>
            <Time>2022-07-12T12:42:57.000Z</Time>
            <Position>
              <LatitudeDegrees>43.30502419732511043548583984375</LatitudeDegrees>
              <LongitudeDegrees>-3.009745962917804718017578125</LongitudeDegrees>
            </Position>
            <AltitudeMeters>-54.59999847412109375</AltitudeMeters>
            <DistanceMeters>NAN</DistanceMeters>
          </Trackpoint>
          <Trackpoint>
            <Time>2022-07-12T12:42:58.000Z</Time>
            <Position>
              <LatitudeDegrees>43.304989747703075408935546875</LatitudeDegrees>
              <LongitudeDegrees>-3.0098051391541957855224609375</LongitudeDegrees>
            </Position>
            <AltitudeMeters>-55</AltitudeMeters>
            <DistanceMeters>NAN</DistanceMeters>
          </Trackpoint>
          <Trackpoint>
            <Time>2022-07-12T12:42:59.000Z</Time>
            <Position>
              <LatitudeDegrees>43.30497927032411098480224609375</LatitudeDegrees>
              <LongitudeDegrees>-3.00987009890377521514892578125</LongitudeDegrees>
            </Position>
            <AltitudeMeters>-55.799999237060546875</AltitudeMeters>
            <DistanceMeters>NAN</DistanceMeters>
          </Trackpoint>
          <Trackpoint>
            <Time>2022-07-12T12:43:00.000Z</Time>
            <Position>
              <LatitudeDegrees>43.30499167554080486297607421875</LatitudeDegrees>
              <LongitudeDegrees>-3.0099412612617015838623046875</LongitudeDegrees>
            </Position>
            <AltitudeMeters>-56</AltitudeMeters>
            <DistanceMeters>NAN</DistanceMeters>
          </Trackpoint>
          <Trackpoint>
            <Time>2022-07-12T12:43:02.000Z</Time>
            <Position>
              <LatitudeDegrees>43.3050663582980632781982421875</LatitudeDegrees>
              <LongitudeDegrees>-3.01008216105401515960693359375</LongitudeDegrees>
            </Position>
            <AltitudeMeters>-57</AltitudeMeters>
            <DistanceMeters>NAN</DistanceMeters>
          </Trackpoint>
          <Trackpoint>
            <Time>2022-07-12T12:43:03.000Z</Time>
            <Position>
              <LatitudeDegrees>43.3051196672022342681884765625</LatitudeDegrees>
              <LongitudeDegrees>-3.010144941508769989013671875</LongitudeDegrees>
            </Position>
            <AltitudeMeters>-57.40000152587890625</AltitudeMeters>
            <DistanceMeters>NAN</DistanceMeters>
          </Trackpoint>
          <Trackpoint>
            <Time>2022-07-12T12:43:04.000Z</Time>
            <Position>
              <LatitudeDegrees>43.305173479020595550537109375</LatitudeDegrees>
              <LongitudeDegrees>-3.01020872779190540313720703125</LongitudeDegrees>
            </Position>
            <AltitudeMeters>-58</AltitudeMeters>
            <DistanceMeters>NAN</DistanceMeters>
          </Trackpoint>
          <Trackpoint>
            <Time>2022-07-12T12:43:05.000Z</Time>
            <Position>
              <LatitudeDegrees>43.30522150732576847076416015625</LatitudeDegrees>
              <LongitudeDegrees>-3.01028198562562465667724609375</LongitudeDegrees>
            </Position>
            <AltitudeMeters>-58.40000152587890625</AltitudeMeters>
            <DistanceMeters>NAN</DistanceMeters>
          </Trackpoint>
          <Trackpoint>
            <Time>2022-07-12T12:43:09.000Z</Time>
            <Position>
              <LatitudeDegrees>43.30539015121757984161376953125</LatitudeDegrees>
              <LongitudeDegrees>-3.0105551518499851226806640625</LongitudeDegrees>
            </Position>
            <AltitudeMeters>-59.40000152587890625</AltitudeMeters>
            <DistanceMeters>NAN</DistanceMeters>
          </Trackpoint>
          <Trackpoint>
            <Time>2022-07-12T12:43:13.000Z</Time>
            <Position>
              <LatitudeDegrees>43.30556030385196208953857421875</LatitudeDegrees>
              <LongitudeDegrees>-3.01071315072476863861083984375</LongitudeDegrees>
            </Position>
            <AltitudeMeters>-60.200000762939453125</AltitudeMeters>
            <DistanceMeters>NAN</DistanceMeters>
          </Trackpoint>
          <Trackpoint>
            <Time>2022-07-12T12:43:14.000Z</Time>
            <Position>
              <LatitudeDegrees>43.3055981062352657318115234375</LatitudeDegrees>
              <LongitudeDegrees>-3.010746426880359649658203125</LongitudeDegrees>
            </Position>
            <AltitudeMeters>-60.40000152587890625</AltitudeMeters>
            <DistanceMeters>NAN</DistanceMeters>
          </Trackpoint>
          <Trackpoint>
            <Time>2022-07-12T12:43:16.000Z</Time>
            <Position>
              <LatitudeDegrees>43.3056661672890186309814453125</LatitudeDegrees>
              <LongitudeDegrees>-3.01081557758152484893798828125</LongitudeDegrees>
            </Position>
            <AltitudeMeters>-60.59999847412109375</AltitudeMeters>
            <DistanceMeters>NAN</DistanceMeters>
          </Trackpoint>
          <Trackpoint>
            <Time>2022-07-12T12:43:19.000Z</Time>
            <Position>
              <LatitudeDegrees>43.30575543455779552459716796875</LatitudeDegrees>
              <LongitudeDegrees>-3.01093124784529209136962890625</LongitudeDegrees>
            </Position>
            <AltitudeMeters>-60.59999847412109375</AltitudeMeters>
            <DistanceMeters>NAN</DistanceMeters>
          </Trackpoint>
          <Trackpoint>
            <Time>2022-07-12T12:43:23.000Z</Time>
            <Position>
              <LatitudeDegrees>43.30582785420119762420654296875</LatitudeDegrees>
              <LongitudeDegrees>-3.01107809878885746002197265625</LongitudeDegrees>
            </Position>
            <AltitudeMeters>-60.799999237060546875</AltitudeMeters>
            <DistanceMeters>NAN</DistanceMeters>
          </Trackpoint>
          <Trackpoint>
            <Time>2022-07-12T12:43:26.000Z</Time>
            <Position>
              <LatitudeDegrees>43.30579935573041439056396484375</LatitudeDegrees>
              <LongitudeDegrees>-3.0110838823020458221435546875</LongitudeDegrees>
            </Position>
            <AltitudeMeters>-60.799999237060546875</AltitudeMeters>
            <DistanceMeters>NAN</DistanceMeters>
          </Trackpoint>
          <Trackpoint>
            <Time>2022-07-12T12:43:30.000Z</Time>
            <Position>
              <LatitudeDegrees>43.30575090833008289337158203125</LatitudeDegrees>
              <LongitudeDegrees>-3.010932505130767822265625</LongitudeDegrees>
            </Position>
            <AltitudeMeters>-60.40000152587890625</AltitudeMeters>
            <DistanceMeters>NAN</DistanceMeters>
          </Trackpoint>
          <Trackpoint>
            <Time>2022-07-12T12:43:34.000Z</Time>
            <Position>
              <LatitudeDegrees>43.30564445815980434417724609375</LatitudeDegrees>
              <LongitudeDegrees>-3.01082077436149120330810546875</LongitudeDegrees>
            </Position>
            <AltitudeMeters>-60.200000762939453125</AltitudeMeters>
            <DistanceMeters>NAN</DistanceMeters>
          </Trackpoint>
          <Trackpoint>
            <Time>2022-07-12T12:43:39.000Z</Time>
            <Position>
              <LatitudeDegrees>43.3054991997778415679931640625</LatitudeDegrees>
              <LongitudeDegrees>-3.01082245074212551116943359375</LongitudeDegrees>
            </Position>
            <AltitudeMeters>-61</AltitudeMeters>
            <DistanceMeters>NAN</DistanceMeters>
          </Trackpoint>
          <Trackpoint>
            <Time>2022-07-12T12:43:43.000Z</Time>
            <Position>
              <LatitudeDegrees>43.30546072684228420257568359375</LatitudeDegrees>
              <LongitudeDegrees>-3.010802753269672393798828125</LongitudeDegrees>
            </Position>
            <AltitudeMeters>-61.200000762939453125</AltitudeMeters>
            <DistanceMeters>NAN</DistanceMeters>
          </Trackpoint>
          <Trackpoint>
            <Time>2022-07-12T12:43:45.000Z</Time>
            <Position>
              <LatitudeDegrees>43.3054556138813495635986328125</LatitudeDegrees>
              <LongitudeDegrees>-3.01080468110740184783935546875</LongitudeDegrees>
            </Position>
            <AltitudeMeters>-61.200000762939453125</AltitudeMeters>
            <DistanceMeters>NAN</DistanceMeters>
          </Trackpoint>
          <Trackpoint>
            <Time>2022-07-12T12:45:15.000Z</Time>
            <Position>
              <LatitudeDegrees>43.3054670132696628570556640625</LatitudeDegrees>
              <LongitudeDegrees>-3.01083938218653202056884765625</LongitudeDegrees>
            </Position>
            <AltitudeMeters>-59.40000152587890625</AltitudeMeters>
            <DistanceMeters>NAN</DistanceMeters>
          </Trackpoint>
          <Trackpoint>
            <Time>2022-07-12T12:45:16.000Z</Time>
            <Position>
              <LatitudeDegrees>43.3054809272289276123046875</LatitudeDegrees>
              <LongitudeDegrees>-3.01085161976516246795654296875</LongitudeDegrees>
            </Position>
            <AltitudeMeters>-59.200000762939453125</AltitudeMeters>
            <DistanceMeters>NAN</DistanceMeters>
          </Trackpoint>
          <Trackpoint>
            <Time>2022-07-12T12:45:17.000Z</Time>
            <Position>
              <LatitudeDegrees>43.3054914884269237518310546875</LatitudeDegrees>
              <LongitudeDegrees>-3.01086620427668094635009765625</LongitudeDegrees>
            </Position>
            <AltitudeMeters>-59.200000762939453125</AltitudeMeters>
            <DistanceMeters>NAN</DistanceMeters>
          </Trackpoint>
          <Trackpoint>
            <Time>2022-07-12T12:45:18.000Z</Time>
            <Position>
              <LatitudeDegrees>43.30550464801490306854248046875</LatitudeDegrees>
              <LongitudeDegrees>-3.0108820460736751556396484375</LongitudeDegrees>
            </Position>
            <AltitudeMeters>-59</AltitudeMeters>
            <DistanceMeters>NAN</DistanceMeters>
          </Trackpoint>
          <Trackpoint>
            <Time>2022-07-12T12:45:21.000Z</Time>
            <Position>
              <LatitudeDegrees>43.30553951673209667205810546875</LatitudeDegrees>
              <LongitudeDegrees>-3.010910041630268096923828125</LongitudeDegrees>
            </Position>
            <AltitudeMeters>-59</AltitudeMeters>
            <DistanceMeters>NAN</DistanceMeters>
          </Trackpoint>
          <Trackpoint>
            <Time>2022-07-12T12:45:22.000Z</Time>
            <Position>
              <LatitudeDegrees>43.30553884617984294891357421875</LatitudeDegrees>
              <LongitudeDegrees>-3.0108981393277645111083984375</LongitudeDegrees>
            </Position>
            <AltitudeMeters>-59</AltitudeMeters>
            <DistanceMeters>NAN</DistanceMeters>
          </Trackpoint>
          <Trackpoint>
            <Time>2022-07-12T12:45:26.000Z</Time>
            <Position>
              <LatitudeDegrees>43.30554236657917499542236328125</LatitudeDegrees>
              <LongitudeDegrees>-3.01089428365230560302734375</LongitudeDegrees>
            </Position>
            <AltitudeMeters>-59.200000762939453125</AltitudeMeters>
            <DistanceMeters>NAN</DistanceMeters>
          </Trackpoint>
          <Trackpoint>
            <Time>2022-07-12T12:45:28.000Z</Time>
            <Position>
              <LatitudeDegrees>43.3055447973310947418212890625</LatitudeDegrees>
              <LongitudeDegrees>-3.01089839078485965728759765625</LongitudeDegrees>
            </Position>
            <AltitudeMeters>-59.200000762939453125</AltitudeMeters>
            <DistanceMeters>NAN</DistanceMeters>
          </Trackpoint>
          <Trackpoint>
            <Time>2022-07-12T12:45:30.000Z</Time>
            <Position>
              <LatitudeDegrees>43.3055447973310947418212890625</LatitudeDegrees>
              <LongitudeDegrees>-3.01089839078485965728759765625</LongitudeDegrees>
            </Position>
            <AltitudeMeters>-59.200000762939453125</AltitudeMeters>
            <DistanceMeters>NAN</DistanceMeters>
          </Trackpoint>
          <Trackpoint>
            <Time>2022-07-12T12:46:26.000Z</Time>
            <Position>
              <LatitudeDegrees>43.30554873682558536529541015625</LatitudeDegrees>
              <LongitudeDegrees>-3.0108807049691677093505859375</LongitudeDegrees>
            </Position>
            <AltitudeMeters>-59</AltitudeMeters>
            <DistanceMeters>NAN</DistanceMeters>
          </Trackpoint>
          <Trackpoint>
            <Time>2022-07-12T12:46:28.000Z</Time>
            <Position>
              <LatitudeDegrees>43.30554873682558536529541015625</LatitudeDegrees>
              <LongitudeDegrees>-3.0108807049691677093505859375</LongitudeDegrees>
            </Position>
            <AltitudeMeters>-59</AltitudeMeters>
            <DistanceMeters>NAN</DistanceMeters>
          </Trackpoint>
          <Trackpoint>
            <Time>2022-07-12T12:47:42.000Z</Time>
            <Position>
              <LatitudeDegrees>43.30552962608635425567626953125</LatitudeDegrees>
              <LongitudeDegrees>-3.01081473939120769500732421875</LongitudeDegrees>
            </Position>
            <AltitudeMeters>-59</AltitudeMeters>
            <DistanceMeters>NAN</DistanceMeters>
          </Trackpoint>
          <Trackpoint>
            <Time>2022-07-12T12:47:43.000Z</Time>
            <Position>
              <LatitudeDegrees>43.30551520921289920806884765625</LatitudeDegrees>
              <LongitudeDegrees>-3.0108089558780193328857421875</LongitudeDegrees>
            </Position>
            <AltitudeMeters>-59</AltitudeMeters>
            <DistanceMeters>NAN</DistanceMeters>
          </Trackpoint>
          <Trackpoint>
            <Time>2022-07-12T12:47:44.000Z</Time>
            <Position>
              <LatitudeDegrees>43.30549894832074642181396484375</LatitudeDegrees>
              <LongitudeDegrees>-3.01080903969705104827880859375</LongitudeDegrees>
            </Position>
            <AltitudeMeters>-59</AltitudeMeters>
            <DistanceMeters>NAN</DistanceMeters>
          </Trackpoint>
          <Trackpoint>
            <Time>2022-07-12T12:47:51.000Z</Time>
            <Position>
              <LatitudeDegrees>43.3054495789110660552978515625</LatitudeDegrees>
              <LongitudeDegrees>-3.01075480878353118896484375</LongitudeDegrees>
            </Position>
            <AltitudeMeters>-59.200000762939453125</AltitudeMeters>
            <DistanceMeters>NAN</DistanceMeters>
          </Trackpoint>
          <Trackpoint>
            <Time>2022-07-12T12:47:58.000Z</Time>
            <Position>
              <LatitudeDegrees>43.3054908178746700286865234375</LatitudeDegrees>
              <LongitudeDegrees>-3.0108518712222576141357421875</LongitudeDegrees>
            </Position>
            <AltitudeMeters>-59.200000762939453125</AltitudeMeters>
            <DistanceMeters>NAN</DistanceMeters>
          </Trackpoint>
          <Trackpoint>
            <Time>2022-07-12T12:48:00.000Z</Time>
            <Position>
              <LatitudeDegrees>43.3055136166512966156005859375</LatitudeDegrees>
              <LongitudeDegrees>-3.0108629353344440460205078125</LongitudeDegrees>
            </Position>
            <AltitudeMeters>-58.799999237060546875</AltitudeMeters>
            <DistanceMeters>NAN</DistanceMeters>
          </Trackpoint>
          <Trackpoint>
            <Time>2022-07-12T12:48:01.000Z</Time>
            <Position>
              <LatitudeDegrees>43.3055280335247516632080078125</LatitudeDegrees>
              <LongitudeDegrees>-3.01087257452309131622314453125</LongitudeDegrees>
            </Position>
            <AltitudeMeters>-58.59999847412109375</AltitudeMeters>
            <DistanceMeters>NAN</DistanceMeters>
          </Trackpoint>
          <Trackpoint>
            <Time>2022-07-12T12:48:03.000Z</Time>
            <Position>
              <LatitudeDegrees>43.3055592142045497894287109375</LatitudeDegrees>
              <LongitudeDegrees>-3.0108746699988842010498046875</LongitudeDegrees>
            </Position>
            <AltitudeMeters>-58.40000152587890625</AltitudeMeters>
            <DistanceMeters>NAN</DistanceMeters>
          </Trackpoint>
          <Trackpoint>
            <Time>2022-07-12T12:48:05.000Z</Time>
            <Position>
              <LatitudeDegrees>43.3055627346038818359375</LatitudeDegrees>
              <LongitudeDegrees>-3.0108662880957126617431640625</LongitudeDegrees>
            </Position>
            <AltitudeMeters>-58.59999847412109375</AltitudeMeters>
            <DistanceMeters>NAN</DistanceMeters>
          </Trackpoint>
          <Trackpoint>
            <Time>2022-07-12T12:48:06.000Z</Time>
            <Position>
              <LatitudeDegrees>43.30556399188935756683349609375</LatitudeDegrees>
              <LongitudeDegrees>-3.01086167804896831512451171875</LongitudeDegrees>
            </Position>
            <AltitudeMeters>-58.59999847412109375</AltitudeMeters>
            <DistanceMeters>NAN</DistanceMeters>
          </Trackpoint>
          <Trackpoint>
            <Time>2022-07-12T12:48:08.000Z</Time>
            <Position>
              <LatitudeDegrees>43.30556399188935756683349609375</LatitudeDegrees>
              <LongitudeDegrees>-3.01086167804896831512451171875</LongitudeDegrees>
            </Position>
            <AltitudeMeters>-59</AltitudeMeters>
            <DistanceMeters>NAN</DistanceMeters>
          </Trackpoint>
          <Trackpoint>
            <Time>2022-07-12T12:51:30.000Z</Time>
            <Position>
              <LatitudeDegrees>43.30556415952742099761962890625</LatitudeDegrees>
              <LongitudeDegrees>-3.01086000166833400726318359375</LongitudeDegrees>
            </Position>
            <AltitudeMeters>-59.40000152587890625</AltitudeMeters>
            <DistanceMeters>NAN</DistanceMeters>
          </Trackpoint>
          <Trackpoint>
            <Time>2022-07-12T12:51:31.000Z</Time>
            <Position>
              <LatitudeDegrees>43.3055541850626468658447265625</LatitudeDegrees>
              <LongitudeDegrees>-3.01085765473544597625732421875</LongitudeDegrees>
            </Position>
            <AltitudeMeters>-59.40000152587890625</AltitudeMeters>
            <DistanceMeters>NAN</DistanceMeters>
          </Trackpoint>
          <Trackpoint>
            <Time>2022-07-12T12:51:34.000Z</Time>
            <Position>
              <LatitudeDegrees>43.30552275292575359344482421875</LatitudeDegrees>
              <LongitudeDegrees>-3.01082588732242584228515625</LongitudeDegrees>
            </Position>
            <AltitudeMeters>-59.40000152587890625</AltitudeMeters>
            <DistanceMeters>NAN</DistanceMeters>
          </Trackpoint>
          <Trackpoint>
            <Time>2022-07-12T12:51:35.000Z</Time>
            <Position>
              <LatitudeDegrees>43.305511437356472015380859375</LatitudeDegrees>
              <LongitudeDegrees>-3.01082312129437923431396484375</LongitudeDegrees>
            </Position>
            <AltitudeMeters>-59.40000152587890625</AltitudeMeters>
            <DistanceMeters>NAN</DistanceMeters>
          </Trackpoint>
          <Trackpoint>
            <Time>2022-07-12T12:51:40.000Z</Time>
            <Position>
              <LatitudeDegrees>43.30548587255179882049560546875</LatitudeDegrees>
              <LongitudeDegrees>-3.01079914905130863189697265625</LongitudeDegrees>
            </Position>
            <AltitudeMeters>-58.799999237060546875</AltitudeMeters>
            <DistanceMeters>NAN</DistanceMeters>
          </Trackpoint>
          <Trackpoint>
            <Time>2022-07-12T12:51:41.000Z</Time>
            <Position>
              <LatitudeDegrees>43.305481933057308197021484375</LatitudeDegrees>
              <LongitudeDegrees>-3.01079831086099147796630859375</LongitudeDegrees>
            </Position>
            <AltitudeMeters>-58.59999847412109375</AltitudeMeters>
            <DistanceMeters>NAN</DistanceMeters>
          </Trackpoint>
          <Trackpoint>
            <Time>2022-07-12T12:51:43.000Z</Time>
            <Position>
              <LatitudeDegrees>43.305481933057308197021484375</LatitudeDegrees>
              <LongitudeDegrees>-3.01079831086099147796630859375</LongitudeDegrees>
            </Position>
            <AltitudeMeters>-58.40000152587890625</AltitudeMeters>
            <DistanceMeters>NAN</DistanceMeters>
          </Trackpoint>
          <Trackpoint>
            <Time>2022-07-12T12:51:51.000Z</Time>
            <Position>
              <LatitudeDegrees>43.30542753450572490692138671875</LatitudeDegrees>
              <LongitudeDegrees>-3.01076930947601795196533203125</LongitudeDegrees>
            </Position>
            <AltitudeMeters>-59</AltitudeMeters>
            <DistanceMeters>NAN</DistanceMeters>
          </Trackpoint>
          <Trackpoint>
            <Time>2022-07-12T12:51:53.000Z</Time>
            <Position>
              <LatitudeDegrees>43.30541177652776241302490234375</LatitudeDegrees>
              <LongitudeDegrees>-3.010749779641628265380859375</LongitudeDegrees>
            </Position>
            <AltitudeMeters>-59</AltitudeMeters>
            <DistanceMeters>NAN</DistanceMeters>
          </Trackpoint>
          <Trackpoint>
            <Time>2022-07-12T12:51:55.000Z</Time>
            <Position>
              <LatitudeDegrees>43.305386714637279510498046875</LatitudeDegrees>
              <LongitudeDegrees>-3.01073578186333179473876953125</LongitudeDegrees>
            </Position>
            <AltitudeMeters>-59</AltitudeMeters>
            <DistanceMeters>NAN</DistanceMeters>
          </Trackpoint>
          <Trackpoint>
            <Time>2022-07-12T12:51:58.000Z</Time>
            <Position>
              <LatitudeDegrees>43.30538109876215457916259765625</LatitudeDegrees>
              <LongitudeDegrees>-3.01073460839688777923583984375</LongitudeDegrees>
            </Position>
            <AltitudeMeters>-59.40000152587890625</AltitudeMeters>
            <DistanceMeters>NAN</DistanceMeters>
          </Trackpoint>
          <Trackpoint>
            <Time>2022-07-12T12:52:47.000Z</Time>
            <Position>
              <LatitudeDegrees>43.30551185645163059234619140625</LatitudeDegrees>
              <LongitudeDegrees>-3.01090241409838199615478515625</LongitudeDegrees>
            </Position>
            <AltitudeMeters>-58.40000152587890625</AltitudeMeters>
            <DistanceMeters>NAN</DistanceMeters>
          </Trackpoint>
          <Trackpoint>
            <Time>2022-07-12T12:52:48.000Z</Time>
            <Position>
              <LatitudeDegrees>43.30552828498184680938720703125</LatitudeDegrees>
              <LongitudeDegrees>-3.01091448403894901275634765625</LongitudeDegrees>
            </Position>
            <AltitudeMeters>-58.40000152587890625</AltitudeMeters>
            <DistanceMeters>NAN</DistanceMeters>
          </Trackpoint>
          <Trackpoint>
            <Time>2022-07-12T12:52:50.000Z</Time>
            <Position>
              <LatitudeDegrees>43.305557705461978912353515625</LatitudeDegrees>
              <LongitudeDegrees>-3.010916747152805328369140625</LongitudeDegrees>
            </Position>
            <AltitudeMeters>-58.40000152587890625</AltitudeMeters>
            <DistanceMeters>NAN</DistanceMeters>
          </Trackpoint>
          <Trackpoint>
            <Time>2022-07-12T12:52:52.000Z</Time>
            <Position>
              <LatitudeDegrees>43.30556315369904041290283203125</LatitudeDegrees>
              <LongitudeDegrees>-3.0109135620296001434326171875</LongitudeDegrees>
            </Position>
            <AltitudeMeters>-58.59999847412109375</AltitudeMeters>
            <DistanceMeters>NAN</DistanceMeters>
          </Trackpoint>
          <Trackpoint>
            <Time>2022-07-12T12:52:53.000Z</Time>
            <Position>
              <LatitudeDegrees>43.30556265078485012054443359375</LatitudeDegrees>
              <LongitudeDegrees>-3.010915406048297882080078125</LongitudeDegrees>
            </Position>
            <AltitudeMeters>-58.799999237060546875</AltitudeMeters>
            <DistanceMeters>NAN</DistanceMeters>
          </Trackpoint>
          <Trackpoint>
            <Time>2022-07-12T12:52:56.000Z</Time>
            <Position>
              <LatitudeDegrees>43.3055662550032138824462890625</LatitudeDegrees>
              <LongitudeDegrees>-3.01091884262859821319580078125</LongitudeDegrees>
            </Position>
            <AltitudeMeters>-59</AltitudeMeters>
            <DistanceMeters>NAN</DistanceMeters>
          </Trackpoint>
          <Trackpoint>
            <Time>2022-07-12T12:52:57.000Z</Time>
            <Position>
              <LatitudeDegrees>43.3055662550032138824462890625</LatitudeDegrees>
              <LongitudeDegrees>-3.01091884262859821319580078125</LongitudeDegrees>
            </Position>
            <AltitudeMeters>-59</AltitudeMeters>
            <DistanceMeters>NAN</DistanceMeters>
          </Trackpoint>
          <Trackpoint>
            <Time>2022-07-12T12:53:01.000Z</Time>
            <Position>
              <LatitudeDegrees>43.305564410984516143798828125</LatitudeDegrees>
              <LongitudeDegrees>-3.0109177529811859130859375</LongitudeDegrees>
            </Position>
            <AltitudeMeters>-59.200000762939453125</AltitudeMeters>
            <DistanceMeters>NAN</DistanceMeters>
          </Trackpoint>
          <Trackpoint>
            <Time>2022-07-12T12:56:20.000Z</Time>
            <Position>
              <LatitudeDegrees>43.30555292777717113494873046875</LatitudeDegrees>
              <LongitudeDegrees>-3.010857403278350830078125</LongitudeDegrees>
            </Position>
            <AltitudeMeters>-59.40000152587890625</AltitudeMeters>
            <DistanceMeters>NAN</DistanceMeters>
          </Trackpoint>
          <Trackpoint>
            <Time>2022-07-12T12:56:22.000Z</Time>
            <Position>
              <LatitudeDegrees>43.30554136075079441070556640625</LatitudeDegrees>
              <LongitudeDegrees>-3.010819517076015472412109375</LongitudeDegrees>
            </Position>
            <AltitudeMeters>-59.40000152587890625</AltitudeMeters>
            <DistanceMeters>NAN</DistanceMeters>
          </Trackpoint>
          <Trackpoint>
            <Time>2022-07-12T12:56:23.000Z</Time>
            <Position>
              <LatitudeDegrees>43.30553398467600345611572265625</LatitudeDegrees>
              <LongitudeDegrees>-3.0108019150793552398681640625</LongitudeDegrees>
            </Position>
            <AltitudeMeters>-59.40000152587890625</AltitudeMeters>
            <DistanceMeters>NAN</DistanceMeters>
          </Trackpoint>
          <Trackpoint>
            <Time>2022-07-12T12:56:25.000Z</Time>
            <Position>
              <LatitudeDegrees>43.30552987754344940185546875</LatitudeDegrees>
              <LongitudeDegrees>-3.0107905156910419464111328125</LongitudeDegrees>
            </Position>
            <AltitudeMeters>-59.59999847412109375</AltitudeMeters>
            <DistanceMeters>NAN</DistanceMeters>
          </Trackpoint>
          <Trackpoint>
            <Time>2022-07-12T12:56:28.000Z</Time>
            <Position>
              <LatitudeDegrees>43.30550498329102993011474609375</LatitudeDegrees>
              <LongitudeDegrees>-3.01078967750072479248046875</LongitudeDegrees>
            </Position>
            <AltitudeMeters>-59</AltitudeMeters>
            <DistanceMeters>NAN</DistanceMeters>
          </Trackpoint>
          <Trackpoint>
            <Time>2022-07-12T12:58:30.000Z</Time>
            <Position>
              <LatitudeDegrees>43.3054586313664913177490234375</LatitudeDegrees>
              <LongitudeDegrees>-3.01079898141324520111083984375</LongitudeDegrees>
            </Position>
            <AltitudeMeters>-58.200000762939453125</AltitudeMeters>
            <DistanceMeters>NAN</DistanceMeters>
          </Trackpoint>
          <Trackpoint>
            <Time>2022-07-12T12:58:31.000Z</Time>
            <Position>
              <LatitudeDegrees>43.305464498698711395263671875</LatitudeDegrees>
              <LongitudeDegrees>-3.0108159966766834259033203125</LongitudeDegrees>
            </Position>
            <AltitudeMeters>-58.200000762939453125</AltitudeMeters>
            <DistanceMeters>NAN</DistanceMeters>
          </Trackpoint>
          <Trackpoint>
            <Time>2022-07-12T12:58:33.000Z</Time>
            <Position>
              <LatitudeDegrees>43.30547899939119815826416015625</LatitudeDegrees>
              <LongitudeDegrees>-3.01084893755614757537841796875</LongitudeDegrees>
            </Position>
            <AltitudeMeters>-59.40000152587890625</AltitudeMeters>
            <DistanceMeters>NAN</DistanceMeters>
          </Trackpoint>
          <Trackpoint>
            <Time>2022-07-12T12:58:34.000Z</Time>
            <Position>
              <LatitudeDegrees>43.30549023114144802093505859375</LatitudeDegrees>
              <LongitudeDegrees>-3.01085011102259159088134765625</LongitudeDegrees>
            </Position>
            <AltitudeMeters>-59.40000152587890625</AltitudeMeters>
            <DistanceMeters>NAN</DistanceMeters>
          </Trackpoint>
          <Trackpoint>
            <Time>2022-07-12T12:58:36.000Z</Time>
            <Position>
              <LatitudeDegrees>43.30551336519420146942138671875</LatitudeDegrees>
              <LongitudeDegrees>-3.01081507466733455657958984375</LongitudeDegrees>
            </Position>
            <AltitudeMeters>-59.59999847412109375</AltitudeMeters>
            <DistanceMeters>NAN</DistanceMeters>
          </Trackpoint>
          <Trackpoint>
            <Time>2022-07-12T12:58:37.000Z</Time>
            <Position>
              <LatitudeDegrees>43.30551722086966037750244140625</LatitudeDegrees>
              <LongitudeDegrees>-3.0108131468296051025390625</LongitudeDegrees>
            </Position>
            <AltitudeMeters>-59</AltitudeMeters>
            <DistanceMeters>NAN</DistanceMeters>
          </Trackpoint>
          <Trackpoint>
            <Time>2022-07-12T12:58:39.000Z</Time>
            <Position>
              <LatitudeDegrees>43.30551319755613803863525390625</LatitudeDegrees>
              <LongitudeDegrees>-3.01083234138786792755126953125</LongitudeDegrees>
            </Position>
            <AltitudeMeters>-59</AltitudeMeters>
            <DistanceMeters>NAN</DistanceMeters>
          </Trackpoint>
          <Trackpoint>
            <Time>2022-07-12T12:58:46.000Z</Time>
            <Position>
              <LatitudeDegrees>43.3055337332189083099365234375</LatitudeDegrees>
              <LongitudeDegrees>-3.0108723230659961700439453125</LongitudeDegrees>
            </Position>
            <AltitudeMeters>-58.40000152587890625</AltitudeMeters>
            <DistanceMeters>NAN</DistanceMeters>
          </Trackpoint>
          <Trackpoint>
            <Time>2022-07-12T12:58:51.000Z</Time>
            <Position>
              <LatitudeDegrees>43.3055344037711620330810546875</LatitudeDegrees>
              <LongitudeDegrees>-3.010869137942790985107421875</LongitudeDegrees>
            </Position>
            <AltitudeMeters>-59.799999237060546875</AltitudeMeters>
            <DistanceMeters>NAN</DistanceMeters>
          </Trackpoint>
          <Trackpoint>
            <Time>2022-07-12T13:08:00.000Z</Time>
            <Position>
              <LatitudeDegrees>43.30551587976515293121337890625</LatitudeDegrees>
              <LongitudeDegrees>-3.01084055565297603607177734375</LongitudeDegrees>
            </Position>
            <AltitudeMeters>-60.40000152587890625</AltitudeMeters>
            <DistanceMeters>NAN</DistanceMeters>
          </Trackpoint>
          <Trackpoint>
            <Time>2022-07-12T13:08:01.000Z</Time>
            <Position>
              <LatitudeDegrees>43.305503390729427337646484375</LatitudeDegrees>
              <LongitudeDegrees>-3.010834269225597381591796875</LongitudeDegrees>
            </Position>
            <AltitudeMeters>-60.40000152587890625</AltitudeMeters>
            <DistanceMeters>NAN</DistanceMeters>
          </Trackpoint>
          <Trackpoint>
            <Time>2022-07-12T13:08:02.000Z</Time>
            <Position>
              <LatitudeDegrees>43.3054961822926998138427734375</LatitudeDegrees>
              <LongitudeDegrees>-3.0108243785798549652099609375</LongitudeDegrees>
            </Position>
            <AltitudeMeters>-60.40000152587890625</AltitudeMeters>
            <DistanceMeters>NAN</DistanceMeters>
          </Trackpoint>
          <Trackpoint>
            <Time>2022-07-12T13:08:04.000Z</Time>
            <Position>
              <LatitudeDegrees>43.30548830330371856689453125</LatitudeDegrees>
              <LongitudeDegrees>-3.01080803386867046356201171875</LongitudeDegrees>
            </Position>
            <AltitudeMeters>-60.200000762939453125</AltitudeMeters>
            <DistanceMeters>NAN</DistanceMeters>
          </Trackpoint>
          <Trackpoint>
            <Time>2022-07-12T13:08:06.000Z</Time>
            <Position>
              <LatitudeDegrees>43.30548268742859363555908203125</LatitudeDegrees>
              <LongitudeDegrees>-3.0108056031167507171630859375</LongitudeDegrees>
            </Position>
            <AltitudeMeters>-60</AltitudeMeters>
            <DistanceMeters>NAN</DistanceMeters>
          </Trackpoint>
          <Trackpoint>
            <Time>2022-07-12T13:08:07.000Z</Time>
            <Position>
              <LatitudeDegrees>43.3054794184863567352294921875</LatitudeDegrees>
              <LongitudeDegrees>-3.0108066089451313018798828125</LongitudeDegrees>
            </Position>
            <AltitudeMeters>-60</AltitudeMeters>
            <DistanceMeters>NAN</DistanceMeters>
          </Trackpoint>
          <Trackpoint>
            <Time>2022-07-12T13:08:08.000Z</Time>
            <Position>
              <LatitudeDegrees>43.3054794184863567352294921875</LatitudeDegrees>
              <LongitudeDegrees>-3.0108066089451313018798828125</LongitudeDegrees>
            </Position>
            <AltitudeMeters>-58.200000762939453125</AltitudeMeters>
            <DistanceMeters>NAN</DistanceMeters>
          </Trackpoint>
          <Trackpoint>
            <Time>2022-07-12T13:12:03.000Z</Time>
            <Position>
              <LatitudeDegrees>43.3054971881210803985595703125</LatitudeDegrees>
              <LongitudeDegrees>-3.01082831807434558868408203125</LongitudeDegrees>
            </Position>
            <AltitudeMeters>-56.799999237060546875</AltitudeMeters>
            <DistanceMeters>NAN</DistanceMeters>
          </Trackpoint>
          <Trackpoint>
            <Time>2022-07-12T13:12:04.000Z</Time>
            <Position>
              <LatitudeDegrees>43.30550699494779109954833984375</LatitudeDegrees>
              <LongitudeDegrees>-3.01084541715681552886962890625</LongitudeDegrees>
            </Position>
            <AltitudeMeters>-56.799999237060546875</AltitudeMeters>
            <DistanceMeters>NAN</DistanceMeters>
          </Trackpoint>
          <Trackpoint>
            <Time>2022-07-12T13:12:05.000Z</Time>
            <Position>
              <LatitudeDegrees>43.30551738850772380828857421875</LatitudeDegrees>
              <LongitudeDegrees>-3.01085949875414371490478515625</LongitudeDegrees>
            </Position>
            <AltitudeMeters>-56.799999237060546875</AltitudeMeters>
            <DistanceMeters>NAN</DistanceMeters>
          </Trackpoint>
          <Trackpoint>
            <Time>2022-07-12T13:12:06.000Z</Time>
            <Position>
              <LatitudeDegrees>43.30552862025797367095947265625</LatitudeDegrees>
              <LongitudeDegrees>-3.010873161256313323974609375</LongitudeDegrees>
            </Position>
            <AltitudeMeters>-56.799999237060546875</AltitudeMeters>
            <DistanceMeters>NAN</DistanceMeters>
          </Trackpoint>
          <Trackpoint>
            <Time>2022-07-12T13:12:09.000Z</Time>
            <Position>
              <LatitudeDegrees>43.30555326305329799652099609375</LatitudeDegrees>
              <LongitudeDegrees>-3.01091431640088558197021484375</LongitudeDegrees>
            </Position>
            <AltitudeMeters>-56.40000152587890625</AltitudeMeters>
            <DistanceMeters>NAN</DistanceMeters>
          </Trackpoint>
          <Trackpoint>
            <Time>2022-07-12T13:12:10.000Z</Time>
            <Position>
              <LatitudeDegrees>43.30556030385196208953857421875</LatitudeDegrees>
              <LongitudeDegrees>-3.010910712182521820068359375</LongitudeDegrees>
            </Position>
            <AltitudeMeters>-56.200000762939453125</AltitudeMeters>
            <DistanceMeters>NAN</DistanceMeters>
          </Trackpoint>
          <Trackpoint>
            <Time>2022-07-12T13:12:14.000Z</Time>
            <Position>
              <LatitudeDegrees>43.3055625669658184051513671875</LatitudeDegrees>
              <LongitudeDegrees>-3.01089419983327388763427734375</LongitudeDegrees>
            </Position>
            <AltitudeMeters>-56.200000762939453125</AltitudeMeters>
            <DistanceMeters>NAN</DistanceMeters>
          </Trackpoint>
          <Trackpoint>
            <Time>2022-07-12T13:14:55.000Z</Time>
            <Position>
              <LatitudeDegrees>43.30551738850772380828857421875</LatitudeDegrees>
              <LongitudeDegrees>-3.01085715182125568389892578125</LongitudeDegrees>
            </Position>
            <AltitudeMeters>-58</AltitudeMeters>
            <DistanceMeters>NAN</DistanceMeters>
          </Trackpoint>
          <Trackpoint>
            <Time>2022-07-12T13:14:56.000Z</Time>
            <Position>
              <LatitudeDegrees>43.3055072464048862457275390625</LatitudeDegrees>
              <LongitudeDegrees>-3.01084575243294239044189453125</LongitudeDegrees>
            </Position>
            <AltitudeMeters>-60.40000152587890625</AltitudeMeters>
            <DistanceMeters>NAN</DistanceMeters>
          </Trackpoint>
          <Trackpoint>
            <Time>2022-07-12T13:14:58.000Z</Time>
            <Position>
              <LatitudeDegrees>43.30549090169370174407958984375</LatitudeDegrees>
              <LongitudeDegrees>-3.01082328893244266510009765625</LongitudeDegrees>
            </Position>
            <AltitudeMeters>-60.40000152587890625</AltitudeMeters>
            <DistanceMeters>NAN</DistanceMeters>
          </Trackpoint>
          <Trackpoint>
            <Time>2022-07-12T13:15:01.000Z</Time>
            <Position>
              <LatitudeDegrees>43.3054894767701625823974609375</LatitudeDegrees>
              <LongitudeDegrees>-3.0107755959033966064453125</LongitudeDegrees>
            </Position>
            <AltitudeMeters>-60.59999847412109375</AltitudeMeters>
            <DistanceMeters>NAN</DistanceMeters>
          </Trackpoint>
          <Trackpoint>
            <Time>2022-07-12T13:15:04.000Z</Time>
            <Position>
              <LatitudeDegrees>43.305489309132099151611328125</LatitudeDegrees>
              <LongitudeDegrees>-3.01076863892376422882080078125</LongitudeDegrees>
            </Position>
            <AltitudeMeters>-60.799999237060546875</AltitudeMeters>
            <DistanceMeters>NAN</DistanceMeters>
          </Trackpoint>
          <Trackpoint>
            <Time>2022-07-12T13:28:59.000Z</Time>
            <Position>
              <LatitudeDegrees>43.30550850369036197662353515625</LatitudeDegrees>
              <LongitudeDegrees>-3.0108666233718395233154296875</LongitudeDegrees>
            </Position>
            <AltitudeMeters>-58.200000762939453125</AltitudeMeters>
            <DistanceMeters>NAN</DistanceMeters>
          </Trackpoint>
          <Trackpoint>
            <Time>2022-07-12T13:29:00.000Z</Time>
            <Position>
              <LatitudeDegrees>43.3054991997778415679931640625</LatitudeDegrees>
              <LongitudeDegrees>-3.01085094921290874481201171875</LongitudeDegrees>
            </Position>
            <AltitudeMeters>-56.799999237060546875</AltitudeMeters>
            <DistanceMeters>NAN</DistanceMeters>
          </Trackpoint>
          <Trackpoint>
            <Time>2022-07-12T13:29:02.000Z</Time>
            <Position>
              <LatitudeDegrees>43.30548017285764217376708984375</LatitudeDegrees>
              <LongitudeDegrees>-3.01082463003695011138916015625</LongitudeDegrees>
            </Position>
            <AltitudeMeters>-56.799999237060546875</AltitudeMeters>
            <DistanceMeters>NAN</DistanceMeters>
          </Trackpoint>
          <Trackpoint>
            <Time>2022-07-12T13:29:04.000Z</Time>
            <Position>
              <LatitudeDegrees>43.30546550452709197998046875</LatitudeDegrees>
              <LongitudeDegrees>-3.0108015798032283782958984375</LongitudeDegrees>
            </Position>
            <AltitudeMeters>-58.200000762939453125</AltitudeMeters>
            <DistanceMeters>NAN</DistanceMeters>
          </Trackpoint>
          <Trackpoint>
            <Time>2022-07-12T13:29:06.000Z</Time>
            <Position>
              <LatitudeDegrees>43.3054646663367748260498046875</LatitudeDegrees>
              <LongitudeDegrees>-3.01079663448035717010498046875</LongitudeDegrees>
            </Position>
            <AltitudeMeters>-58.200000762939453125</AltitudeMeters>
            <DistanceMeters>NAN</DistanceMeters>
          </Trackpoint>
          <Trackpoint>
            <Time>2022-07-12T13:29:07.000Z</Time>
            <Position>
              <LatitudeDegrees>43.3054646663367748260498046875</LatitudeDegrees>
              <LongitudeDegrees>-3.01079663448035717010498046875</LongitudeDegrees>
            </Position>
            <AltitudeMeters>-58.200000762939453125</AltitudeMeters>
            <DistanceMeters>NAN</DistanceMeters>
          </Trackpoint>
          <Trackpoint>
            <Time>2022-07-12T13:33:51.000Z</Time>
            <Position>
              <LatitudeDegrees>43.30542736686766147613525390625</LatitudeDegrees>
              <LongitudeDegrees>-3.01077517680823802947998046875</LongitudeDegrees>
            </Position>
            <AltitudeMeters>-57.59999847412109375</AltitudeMeters>
            <DistanceMeters>NAN</DistanceMeters>
          </Trackpoint>
          <Trackpoint>
            <Time>2022-07-12T13:33:52.000Z</Time>
            <Position>
              <LatitudeDegrees>43.30541412346065044403076171875</LatitudeDegrees>
              <LongitudeDegrees>-3.01076008938252925872802734375</LongitudeDegrees>
            </Position>
            <AltitudeMeters>-57.59999847412109375</AltitudeMeters>
            <DistanceMeters>NAN</DistanceMeters>
          </Trackpoint>
          <Trackpoint>
            <Time>2022-07-12T13:33:54.000Z</Time>
            <Position>
              <LatitudeDegrees>43.30539048649370670318603515625</LatitudeDegrees>
              <LongitudeDegrees>-3.0107442475855350494384765625</LongitudeDegrees>
            </Position>
            <AltitudeMeters>-57.59999847412109375</AltitudeMeters>
            <DistanceMeters>NAN</DistanceMeters>
          </Trackpoint>
          <Trackpoint>
            <Time>2022-07-12T13:33:57.000Z</Time>
            <Position>
              <LatitudeDegrees>43.305380009114742279052734375</LatitudeDegrees>
              <LongitudeDegrees>-3.0107435770332813262939453125</LongitudeDegrees>
            </Position>
            <AltitudeMeters>-57.799999237060546875</AltitudeMeters>
            <DistanceMeters>NAN</DistanceMeters>
          </Trackpoint>
          <Trackpoint>
            <Time>2022-07-12T13:35:01.000Z</Time>
            <Position>
              <LatitudeDegrees>43.3053902350366115570068359375</LatitudeDegrees>
              <LongitudeDegrees>-3.0107522942125797271728515625</LongitudeDegrees>
            </Position>
            <AltitudeMeters>-57.799999237060546875</AltitudeMeters>
            <DistanceMeters>NAN</DistanceMeters>
          </Trackpoint>
          <Trackpoint>
            <Time>2022-07-12T13:35:02.000Z</Time>
            <Position>
              <LatitudeDegrees>43.3054004609584808349609375</LatitudeDegrees>
              <LongitudeDegrees>-3.01076679490506649017333984375</LongitudeDegrees>
            </Position>
            <AltitudeMeters>-57.799999237060546875</AltitudeMeters>
            <DistanceMeters>NAN</DistanceMeters>
          </Trackpoint>
          <Trackpoint>
            <Time>2022-07-12T13:35:06.000Z</Time>
            <Position>
              <LatitudeDegrees>43.30544027499854564666748046875</LatitudeDegrees>
              <LongitudeDegrees>-3.01082647405564785003662109375</LongitudeDegrees>
            </Position>
            <AltitudeMeters>-57.799999237060546875</AltitudeMeters>
            <DistanceMeters>NAN</DistanceMeters>
          </Trackpoint>
          <Trackpoint>
            <Time>2022-07-12T13:35:07.000Z</Time>
            <Position>
              <LatitudeDegrees>43.3054445497691631317138671875</LatitudeDegrees>
              <LongitudeDegrees>-3.01083234138786792755126953125</LongitudeDegrees>
            </Position>
            <AltitudeMeters>-58</AltitudeMeters>
            <DistanceMeters>NAN</DistanceMeters>
          </Trackpoint>
          <Trackpoint>
            <Time>2022-07-12T13:35:08.000Z</Time>
            <Position>
              <LatitudeDegrees>43.30544597469270229339599609375</LatitudeDegrees>
              <LongitudeDegrees>-3.01083284430205821990966796875</LongitudeDegrees>
            </Position>
            <AltitudeMeters>-58</AltitudeMeters>
            <DistanceMeters>NAN</DistanceMeters>
          </Trackpoint>
          <Trackpoint>
            <Time>2022-07-12T13:46:29.000Z</Time>
            <Position>
              <LatitudeDegrees>43.30538277514278888702392578125</LatitudeDegrees>
              <LongitudeDegrees>-3.01074651069939136505126953125</LongitudeDegrees>
            </Position>
            <AltitudeMeters>-55.799999237060546875</AltitudeMeters>
            <DistanceMeters>NAN</DistanceMeters>
          </Trackpoint>
          <Trackpoint>
            <Time>2022-07-12T13:46:32.000Z</Time>
            <Position>
              <LatitudeDegrees>43.30541747622191905975341796875</LatitudeDegrees>
              <LongitudeDegrees>-3.01079713739454746246337890625</LongitudeDegrees>
            </Position>
            <AltitudeMeters>-55</AltitudeMeters>
            <DistanceMeters>NAN</DistanceMeters>
          </Trackpoint>
          <Trackpoint>
            <Time>2022-07-12T13:46:38.000Z</Time>
            <Position>
              <LatitudeDegrees>43.3054606430232524871826171875</LatitudeDegrees>
              <LongitudeDegrees>-3.0108361132442951202392578125</LongitudeDegrees>
            </Position>
            <AltitudeMeters>-55</AltitudeMeters>
            <DistanceMeters>NAN</DistanceMeters>
          </Trackpoint>
          <Trackpoint>
            <Time>2022-07-12T13:48:07.000Z</Time>
            <Position>
              <LatitudeDegrees>43.305479586124420166015625</LatitudeDegrees>
              <LongitudeDegrees>-3.010842986404895782470703125</LongitudeDegrees>
            </Position>
            <AltitudeMeters>-56.40000152587890625</AltitudeMeters>
            <DistanceMeters>NAN</DistanceMeters>
          </Trackpoint>
          <Trackpoint>
            <Time>2022-07-12T13:48:08.000Z</Time>
            <Position>
              <LatitudeDegrees>43.30549777485430240631103515625</LatitudeDegrees>
              <LongitudeDegrees>-3.0108495242893695831298828125</LongitudeDegrees>
            </Position>
            <AltitudeMeters>-56.40000152587890625</AltitudeMeters>
            <DistanceMeters>NAN</DistanceMeters>
          </Trackpoint>
          <Trackpoint>
            <Time>2022-07-12T13:48:09.000Z</Time>
            <Position>
              <LatitudeDegrees>43.3055176399648189544677734375</LatitudeDegrees>
              <LongitudeDegrees>-3.01086016930639743804931640625</LongitudeDegrees>
            </Position>
            <AltitudeMeters>-56.799999237060546875</AltitudeMeters>
            <DistanceMeters>NAN</DistanceMeters>
          </Trackpoint>
          <Trackpoint>
            <Time>2022-07-12T13:48:10.000Z</Time>
            <Position>
              <LatitudeDegrees>43.30554052256047725677490234375</LatitudeDegrees>
              <LongitudeDegrees>-3.0108723230659961700439453125</LongitudeDegrees>
            </Position>
            <AltitudeMeters>-56.799999237060546875</AltitudeMeters>
            <DistanceMeters>NAN</DistanceMeters>
          </Trackpoint>
          <Trackpoint>
            <Time>2022-07-12T13:48:11.000Z</Time>
            <Position>
              <LatitudeDegrees>43.305563740432262420654296875</LatitudeDegrees>
              <LongitudeDegrees>-3.010876178741455078125</LongitudeDegrees>
            </Position>
            <AltitudeMeters>-56.799999237060546875</AltitudeMeters>
            <DistanceMeters>NAN</DistanceMeters>
          </Trackpoint>
          <Trackpoint>
            <Time>2022-07-12T13:48:14.000Z</Time>
            <Position>
              <LatitudeDegrees>43.3056319691240787506103515625</LatitudeDegrees>
              <LongitudeDegrees>-3.010854385793209075927734375</LongitudeDegrees>
            </Position>
            <AltitudeMeters>-57.200000762939453125</AltitudeMeters>
            <DistanceMeters>NAN</DistanceMeters>
          </Trackpoint>
          <Trackpoint>
            <Time>2022-07-12T13:48:17.000Z</Time>
            <Position>
              <LatitudeDegrees>43.305697850883007049560546875</LatitudeDegrees>
              <LongitudeDegrees>-3.01086301915347576141357421875</LongitudeDegrees>
            </Position>
            <AltitudeMeters>-57.200000762939453125</AltitudeMeters>
            <DistanceMeters>NAN</DistanceMeters>
          </Trackpoint>
          <Trackpoint>
            <Time>2022-07-12T13:48:19.000Z</Time>
            <Position>
              <LatitudeDegrees>43.30574085004627704620361328125</LatitudeDegrees>
              <LongitudeDegrees>-3.0109142325818538665771484375</LongitudeDegrees>
            </Position>
            <AltitudeMeters>-57</AltitudeMeters>
            <DistanceMeters>NAN</DistanceMeters>
          </Trackpoint>
          <Trackpoint>
            <Time>2022-07-12T13:48:22.000Z</Time>
            <Position>
              <LatitudeDegrees>43.3057986013591289520263671875</LatitudeDegrees>
              <LongitudeDegrees>-3.01103618927299976348876953125</LongitudeDegrees>
            </Position>
            <AltitudeMeters>-56.59999847412109375</AltitudeMeters>
            <DistanceMeters>NAN</DistanceMeters>
          </Trackpoint>
          <Trackpoint>
            <Time>2022-07-12T13:48:25.000Z</Time>
            <Position>
              <LatitudeDegrees>43.30584503710269927978515625</LatitudeDegrees>
              <LongitudeDegrees>-3.01116426475346088409423828125</LongitudeDegrees>
            </Position>
            <AltitudeMeters>-56.40000152587890625</AltitudeMeters>
            <DistanceMeters>NAN</DistanceMeters>
          </Trackpoint>
          <Trackpoint>
            <Time>2022-07-12T13:48:36.000Z</Time>
            <Position>
              <LatitudeDegrees>43.305990882217884063720703125</LatitudeDegrees>
              <LongitudeDegrees>-3.01162677817046642303466796875</LongitudeDegrees>
            </Position>
            <AltitudeMeters>-56.59999847412109375</AltitudeMeters>
            <DistanceMeters>NAN</DistanceMeters>
          </Trackpoint>
          <Trackpoint>
            <Time>2022-07-12T13:48:42.000Z</Time>
            <Position>
              <LatitudeDegrees>43.30608249641954898834228515625</LatitudeDegrees>
              <LongitudeDegrees>-3.0118885450065135955810546875</LongitudeDegrees>
            </Position>
            <AltitudeMeters>-56.799999237060546875</AltitudeMeters>
            <DistanceMeters>NAN</DistanceMeters>
          </Trackpoint>
          <Trackpoint>
            <Time>2022-07-12T13:48:50.000Z</Time>
            <Position>
              <LatitudeDegrees>43.306209482252597808837890625</LatitudeDegrees>
              <LongitudeDegrees>-3.012259863317012786865234375</LongitudeDegrees>
            </Position>
            <AltitudeMeters>-56</AltitudeMeters>
            <DistanceMeters>NAN</DistanceMeters>
          </Trackpoint>
          <Trackpoint>
            <Time>2022-07-12T13:48:58.000Z</Time>
            <Position>
              <LatitudeDegrees>43.306327499449253082275390625</LatitudeDegrees>
              <LongitudeDegrees>-3.01262556575238704681396484375</LongitudeDegrees>
            </Position>
            <AltitudeMeters>-56.40000152587890625</AltitudeMeters>
            <DistanceMeters>NAN</DistanceMeters>
          </Trackpoint>
          <Trackpoint>
            <Time>2022-07-12T13:49:03.000Z</Time>
            <Position>
              <LatitudeDegrees>43.3063903637230396270751953125</LatitudeDegrees>
              <LongitudeDegrees>-3.0128300003707408905029296875</LongitudeDegrees>
            </Position>
            <AltitudeMeters>-56.40000152587890625</AltitudeMeters>
            <DistanceMeters>NAN</DistanceMeters>
          </Trackpoint>
          <Trackpoint>
            <Time>2022-07-12T13:49:06.000Z</Time>
            <Position>
              <LatitudeDegrees>43.30643353052437305450439453125</LatitudeDegrees>
              <LongitudeDegrees>-3.01296000368893146514892578125</LongitudeDegrees>
            </Position>
            <AltitudeMeters>-56.59999847412109375</AltitudeMeters>
            <DistanceMeters>NAN</DistanceMeters>
          </Trackpoint>
          <Trackpoint>
            <Time>2022-07-12T13:49:08.000Z</Time>
            <Position>
              <LatitudeDegrees>43.30646035261452198028564453125</LatitudeDegrees>
              <LongitudeDegrees>-3.01305237226188182830810546875</LongitudeDegrees>
            </Position>
            <AltitudeMeters>-56.799999237060546875</AltitudeMeters>
            <DistanceMeters>NAN</DistanceMeters>
          </Trackpoint>
          <Trackpoint>
            <Time>2022-07-12T13:49:18.000Z</Time>
            <Position>
              <LatitudeDegrees>43.3065818063914775848388671875</LatitudeDegrees>
              <LongitudeDegrees>-3.01346878521144390106201171875</LongitudeDegrees>
            </Position>
            <AltitudeMeters>-56.59999847412109375</AltitudeMeters>
            <DistanceMeters>NAN</DistanceMeters>
          </Trackpoint>
          <Trackpoint>
            <Time>2022-07-12T13:49:24.000Z</Time>
            <Position>
              <LatitudeDegrees>43.30666252411901950836181640625</LatitudeDegrees>
              <LongitudeDegrees>-3.01372803747653961181640625</LongitudeDegrees>
            </Position>
            <AltitudeMeters>-56.59999847412109375</AltitudeMeters>
            <DistanceMeters>NAN</DistanceMeters>
          </Trackpoint>
          <Trackpoint>
            <Time>2022-07-12T13:49:25.000Z</Time>
            <Position>
              <LatitudeDegrees>43.3066760189831256866455078125</LatitudeDegrees>
              <LongitudeDegrees>-3.013769946992397308349609375</LongitudeDegrees>
            </Position>
            <AltitudeMeters>-56.59999847412109375</AltitudeMeters>
            <DistanceMeters>NAN</DistanceMeters>
          </Trackpoint>
          <Trackpoint>
            <Time>2022-07-12T13:49:37.000Z</Time>
            <Position>
              <LatitudeDegrees>43.30682538449764251708984375</LatitudeDegrees>
              <LongitudeDegrees>-3.01422500051558017730712890625</LongitudeDegrees>
            </Position>
            <AltitudeMeters>-56.200000762939453125</AltitudeMeters>
            <DistanceMeters>NAN</DistanceMeters>
          </Trackpoint>
          <Trackpoint>
            <Time>2022-07-12T13:49:40.000Z</Time>
            <Position>
              <LatitudeDegrees>43.30686536617577075958251953125</LatitudeDegrees>
              <LongitudeDegrees>-3.01433396525681018829345703125</LongitudeDegrees>
            </Position>
            <AltitudeMeters>-55.799999237060546875</AltitudeMeters>
            <DistanceMeters>NAN</DistanceMeters>
          </Trackpoint>
          <Trackpoint>
            <Time>2022-07-12T13:49:46.000Z</Time>
            <Position>
              <LatitudeDegrees>43.3069579862058162689208984375</LatitudeDegrees>
              <LongitudeDegrees>-3.01455709151923656463623046875</LongitudeDegrees>
            </Position>
            <AltitudeMeters>-55.40000152587890625</AltitudeMeters>
            <DistanceMeters>NAN</DistanceMeters>
          </Trackpoint>
          <Trackpoint>
            <Time>2022-07-12T13:49:52.000Z</Time>
            <Position>
              <LatitudeDegrees>43.307082541286945343017578125</LatitudeDegrees>
              <LongitudeDegrees>-3.01474392414093017578125</LongitudeDegrees>
            </Position>
            <AltitudeMeters>-55.40000152587890625</AltitudeMeters>
            <DistanceMeters>NAN</DistanceMeters>
          </Trackpoint>
          <Trackpoint>
            <Time>2022-07-12T13:49:58.000Z</Time>
            <Position>
              <LatitudeDegrees>43.3072377741336822509765625</LatitudeDegrees>
              <LongitudeDegrees>-3.01483310759067535400390625</LongitudeDegrees>
            </Position>
            <AltitudeMeters>-55.799999237060546875</AltitudeMeters>
            <DistanceMeters>NAN</DistanceMeters>
          </Trackpoint>
          <Trackpoint>
            <Time>2022-07-12T13:50:03.000Z</Time>
            <Position>
              <LatitudeDegrees>43.3073324896395206451416015625</LatitudeDegrees>
              <LongitudeDegrees>-3.01493813283741474151611328125</LongitudeDegrees>
            </Position>
            <AltitudeMeters>-55.799999237060546875</AltitudeMeters>
            <DistanceMeters>NAN</DistanceMeters>
          </Trackpoint>
          <Trackpoint>
            <Time>2022-07-12T13:50:09.000Z</Time>
            <Position>
              <LatitudeDegrees>43.307428546249866485595703125</LatitudeDegrees>
              <LongitudeDegrees>-3.0151675455272197723388671875</LongitudeDegrees>
            </Position>
            <AltitudeMeters>-55.59999847412109375</AltitudeMeters>
            <DistanceMeters>NAN</DistanceMeters>
          </Trackpoint>
          <Trackpoint>
            <Time>2022-07-12T13:50:11.000Z</Time>
            <Position>
              <LatitudeDegrees>43.3074025623500347137451171875</LatitudeDegrees>
              <LongitudeDegrees>-3.01523585803806781768798828125</LongitudeDegrees>
            </Position>
            <AltitudeMeters>-55.59999847412109375</AltitudeMeters>
            <DistanceMeters>NAN</DistanceMeters>
          </Trackpoint>
          <Trackpoint>
            <Time>2022-07-12T13:50:18.000Z</Time>
            <Position>
              <LatitudeDegrees>43.3073070086538791656494140625</LatitudeDegrees>
              <LongitudeDegrees>-3.015422858297824859619140625</LongitudeDegrees>
            </Position>
            <AltitudeMeters>-55.40000152587890625</AltitudeMeters>
            <DistanceMeters>NAN</DistanceMeters>
          </Trackpoint>
          <Trackpoint>
            <Time>2022-07-12T13:50:22.000Z</Time>
            <Position>
              <LatitudeDegrees>43.30722059123218059539794921875</LatitudeDegrees>
              <LongitudeDegrees>-3.01548354327678680419921875</LongitudeDegrees>
            </Position>
            <AltitudeMeters>-55.200000762939453125</AltitudeMeters>
            <DistanceMeters>NAN</DistanceMeters>
          </Trackpoint>
          <Trackpoint>
            <Time>2022-07-12T13:50:24.000Z</Time>
            <Position>
              <LatitudeDegrees>43.307178430259227752685546875</LatitudeDegrees>
              <LongitudeDegrees>-3.015497289597988128662109375</LongitudeDegrees>
            </Position>
            <AltitudeMeters>-55</AltitudeMeters>
            <DistanceMeters>NAN</DistanceMeters>
          </Trackpoint>
          <Trackpoint>
            <Time>2022-07-12T13:50:25.000Z</Time>
            <Position>
              <LatitudeDegrees>43.30715890042483806610107421875</LatitudeDegrees>
              <LongitudeDegrees>-3.0154984630644321441650390625</LongitudeDegrees>
            </Position>
            <AltitudeMeters>-55</AltitudeMeters>
            <DistanceMeters>NAN</DistanceMeters>
          </Trackpoint>
          <Trackpoint>
            <Time>2022-07-12T13:50:28.000Z</Time>
            <Position>
              <LatitudeDegrees>43.30709536559879779815673828125</LatitudeDegrees>
              <LongitudeDegrees>-3.0155177414417266845703125</LongitudeDegrees>
            </Position>
            <AltitudeMeters>-54.59999847412109375</AltitudeMeters>
            <DistanceMeters>NAN</DistanceMeters>
          </Trackpoint>
          <Trackpoint>
            <Time>2022-07-12T13:50:35.000Z</Time>
            <Position>
              <LatitudeDegrees>43.3069563098251819610595703125</LatitudeDegrees>
              <LongitudeDegrees>-3.01556669175624847412109375</LongitudeDegrees>
            </Position>
            <AltitudeMeters>-53.799999237060546875</AltitudeMeters>
            <DistanceMeters>NAN</DistanceMeters>
          </Trackpoint>
          <Trackpoint>
            <Time>2022-07-12T13:50:37.000Z</Time>
            <Position>
              <LatitudeDegrees>43.30692739225924015045166015625</LatitudeDegrees>
              <LongitudeDegrees>-3.01559879444539546966552734375</LongitudeDegrees>
            </Position>
            <AltitudeMeters>-53.59999847412109375</AltitudeMeters>
            <DistanceMeters>NAN</DistanceMeters>
          </Trackpoint>
          <Trackpoint>
            <Time>2022-07-12T13:50:41.000Z</Time>
            <Position>
              <LatitudeDegrees>43.30688548274338245391845703125</LatitudeDegrees>
              <LongitudeDegrees>-3.015692420303821563720703125</LongitudeDegrees>
            </Position>
            <AltitudeMeters>-52.799999237060546875</AltitudeMeters>
            <DistanceMeters>NAN</DistanceMeters>
          </Trackpoint>
          <Trackpoint>
            <Time>2022-07-12T13:50:42.000Z</Time>
            <Position>
              <LatitudeDegrees>43.30687844194471836090087890625</LatitudeDegrees>
              <LongitudeDegrees>-3.01572117023169994354248046875</LongitudeDegrees>
            </Position>
            <AltitudeMeters>-52.59999847412109375</AltitudeMeters>
            <DistanceMeters>NAN</DistanceMeters>
          </Trackpoint>
          <Trackpoint>
            <Time>2022-07-12T13:50:48.000Z</Time>
            <Position>
              <LatitudeDegrees>43.30689151771366596221923828125</LatitudeDegrees>
              <LongitudeDegrees>-3.01590808667242527008056640625</LongitudeDegrees>
            </Position>
            <AltitudeMeters>-52.200000762939453125</AltitudeMeters>
            <DistanceMeters>NAN</DistanceMeters>
          </Trackpoint>
          <Trackpoint>
            <Time>2022-07-12T13:50:54.000Z</Time>
            <Position>
              <LatitudeDegrees>43.3069534599781036376953125</LatitudeDegrees>
              <LongitudeDegrees>-3.01604219712316989898681640625</LongitudeDegrees>
            </Position>
            <AltitudeMeters>-51.40000152587890625</AltitudeMeters>
            <DistanceMeters>NAN</DistanceMeters>
          </Trackpoint>
          <Trackpoint>
            <Time>2022-07-12T13:50:56.000Z</Time>
            <Position>
              <LatitudeDegrees>43.30698070116341114044189453125</LatitudeDegrees>
              <LongitudeDegrees>-3.01609508693218231201171875</LongitudeDegrees>
            </Position>
            <AltitudeMeters>-51.200000762939453125</AltitudeMeters>
            <DistanceMeters>NAN</DistanceMeters>
          </Trackpoint>
          <Trackpoint>
            <Time>2022-07-12T13:51:06.000Z</Time>
            <Position>
              <LatitudeDegrees>43.3071192540228366851806640625</LatitudeDegrees>
              <LongitudeDegrees>-3.01630890928208827972412109375</LongitudeDegrees>
            </Position>
            <AltitudeMeters>-50.799999237060546875</AltitudeMeters>
            <DistanceMeters>NAN</DistanceMeters>
          </Trackpoint>
          <Trackpoint>
            <Time>2022-07-12T13:51:17.000Z</Time>
            <Position>
              <LatitudeDegrees>43.3072815276682376861572265625</LatitudeDegrees>
              <LongitudeDegrees>-3.01658651791512966156005859375</LongitudeDegrees>
            </Position>
            <AltitudeMeters>-50.799999237060546875</AltitudeMeters>
            <DistanceMeters>NAN</DistanceMeters>
          </Trackpoint>
          <Trackpoint>
            <Time>2022-07-12T13:51:26.000Z</Time>
            <Position>
              <LatitudeDegrees>43.307401724159717559814453125</LatitudeDegrees>
              <LongitudeDegrees>-3.0168385617434978485107421875</LongitudeDegrees>
            </Position>
            <AltitudeMeters>-50.40000152587890625</AltitudeMeters>
            <DistanceMeters>NAN</DistanceMeters>
          </Trackpoint>
          <Trackpoint>
            <Time>2022-07-12T13:51:27.000Z</Time>
            <Position>
              <LatitudeDegrees>43.30741547048091888427734375</LatitudeDegrees>
              <LongitudeDegrees>-3.01686781458556652069091796875</LongitudeDegrees>
            </Position>
            <AltitudeMeters>-50.40000152587890625</AltitudeMeters>
            <DistanceMeters>NAN</DistanceMeters>
          </Trackpoint>
          <Trackpoint>
            <Time>2022-07-12T13:51:38.000Z</Time>
            <Position>
              <LatitudeDegrees>43.30754010938107967376708984375</LatitudeDegrees>
              <LongitudeDegrees>-3.0171678029000759124755859375</LongitudeDegrees>
            </Position>
            <AltitudeMeters>-50</AltitudeMeters>
            <DistanceMeters>NAN</DistanceMeters>
          </Trackpoint>
          <Trackpoint>
            <Time>2022-07-12T13:51:41.000Z</Time>
            <Position>
              <LatitudeDegrees>43.3075676858425140380859375</LatitudeDegrees>
              <LongitudeDegrees>-3.017257489264011383056640625</LongitudeDegrees>
            </Position>
            <AltitudeMeters>-49.799999237060546875</AltitudeMeters>
            <DistanceMeters>NAN</DistanceMeters>
          </Trackpoint>
          <Trackpoint>
            <Time>2022-07-12T13:51:47.000Z</Time>
            <Position>
              <LatitudeDegrees>43.30761638469994068145751953125</LatitudeDegrees>
              <LongitudeDegrees>-3.0174199305474758148193359375</LongitudeDegrees>
            </Position>
            <AltitudeMeters>-49.40000152587890625</AltitudeMeters>
            <DistanceMeters>NAN</DistanceMeters>
          </Trackpoint>
          <Trackpoint>
            <Time>2022-07-12T13:51:49.000Z</Time>
            <Position>
              <LatitudeDegrees>43.30763138830661773681640625</LatitudeDegrees>
              <LongitudeDegrees>-3.017490841448307037353515625</LongitudeDegrees>
            </Position>
            <AltitudeMeters>-49.40000152587890625</AltitudeMeters>
            <DistanceMeters>NAN</DistanceMeters>
          </Trackpoint>
          <Trackpoint>
            <Time>2022-07-12T13:51:51.000Z</Time>
            <Position>
              <LatitudeDegrees>43.3076499961316585540771484375</LatitudeDegrees>
              <LongitudeDegrees>-3.01754775457084178924560546875</LongitudeDegrees>
            </Position>
            <AltitudeMeters>-49.200000762939453125</AltitudeMeters>
            <DistanceMeters>NAN</DistanceMeters>
          </Trackpoint>
          <Trackpoint>
            <Time>2022-07-12T13:51:54.000Z</Time>
            <Position>
              <LatitudeDegrees>43.307678997516632080078125</LatitudeDegrees>
              <LongitudeDegrees>-3.01761179231107234954833984375</LongitudeDegrees>
            </Position>
            <AltitudeMeters>-49</AltitudeMeters>
            <DistanceMeters>NAN</DistanceMeters>
          </Trackpoint>
          <Trackpoint>
            <Time>2022-07-12T13:52:03.000Z</Time>
            <Position>
              <LatitudeDegrees>43.30772124230861663818359375</LatitudeDegrees>
              <LongitudeDegrees>-3.01788621582090854644775390625</LongitudeDegrees>
            </Position>
            <AltitudeMeters>-48.59999847412109375</AltitudeMeters>
            <DistanceMeters>NAN</DistanceMeters>
          </Trackpoint>
          <Trackpoint>
            <Time>2022-07-12T13:52:05.000Z</Time>
            <Position>
              <LatitudeDegrees>43.30773373134434223175048828125</LatitudeDegrees>
              <LongitudeDegrees>-3.01794287748634815216064453125</LongitudeDegrees>
            </Position>
            <AltitudeMeters>-48.200000762939453125</AltitudeMeters>
            <DistanceMeters>NAN</DistanceMeters>
          </Trackpoint>
          <Trackpoint>
            <Time>2022-07-12T13:52:14.000Z</Time>
            <Position>
              <LatitudeDegrees>43.3077847771346569061279296875</LatitudeDegrees>
              <LongitudeDegrees>-3.01820254884660243988037109375</LongitudeDegrees>
            </Position>
            <AltitudeMeters>-47.200000762939453125</AltitudeMeters>
            <DistanceMeters>NAN</DistanceMeters>
          </Trackpoint>
          <Trackpoint>
            <Time>2022-07-12T13:52:20.000Z</Time>
            <Position>
              <LatitudeDegrees>43.30782962031662464141845703125</LatitudeDegrees>
              <LongitudeDegrees>-3.01834956742823123931884765625</LongitudeDegrees>
            </Position>
            <AltitudeMeters>-47</AltitudeMeters>
            <DistanceMeters>NAN</DistanceMeters>
          </Trackpoint>
          <Trackpoint>
            <Time>2022-07-12T13:52:23.000Z</Time>
            <Position>
              <LatitudeDegrees>43.30785174854099750518798828125</LatitudeDegrees>
              <LongitudeDegrees>-3.0184214003384113311767578125</LongitudeDegrees>
            </Position>
            <AltitudeMeters>-46.799999237060546875</AltitudeMeters>
            <DistanceMeters>NAN</DistanceMeters>
          </Trackpoint>
          <Trackpoint>
            <Time>2022-07-12T13:52:34.000Z</Time>
            <Position>
              <LatitudeDegrees>43.30792416818439960479736328125</LatitudeDegrees>
              <LongitudeDegrees>-3.0187000147998332977294921875</LongitudeDegrees>
            </Position>
            <AltitudeMeters>-46.59999847412109375</AltitudeMeters>
            <DistanceMeters>NAN</DistanceMeters>
          </Trackpoint>
          <Trackpoint>
            <Time>2022-07-12T13:52:43.000Z</Time>
            <Position>
              <LatitudeDegrees>43.307949565351009368896484375</LatitudeDegrees>
              <LongitudeDegrees>-3.0189585126936435699462890625</LongitudeDegrees>
            </Position>
            <AltitudeMeters>-46.200000762939453125</AltitudeMeters>
            <DistanceMeters>NAN</DistanceMeters>
          </Trackpoint>
          <Trackpoint>
            <Time>2022-07-12T13:52:44.000Z</Time>
            <Position>
              <LatitudeDegrees>43.307953588664531707763671875</LatitudeDegrees>
              <LongitudeDegrees>-3.0189957283437252044677734375</LongitudeDegrees>
            </Position>
            <AltitudeMeters>-46.200000762939453125</AltitudeMeters>
            <DistanceMeters>NAN</DistanceMeters>
          </Trackpoint>
          <Trackpoint>
            <Time>2022-07-12T13:52:53.000Z</Time>
            <Position>
              <LatitudeDegrees>43.3079906366765499114990234375</LatitudeDegrees>
              <LongitudeDegrees>-3.0193159170448780059814453125</LongitudeDegrees>
            </Position>
            <AltitudeMeters>-45.59999847412109375</AltitudeMeters>
            <DistanceMeters>NAN</DistanceMeters>
          </Trackpoint>
          <Trackpoint>
            <Time>2022-07-12T13:53:01.000Z</Time>
            <Position>
              <LatitudeDegrees>43.30803112126886844635009765625</LatitudeDegrees>
              <LongitudeDegrees>-3.0196081101894378662109375</LongitudeDegrees>
            </Position>
            <AltitudeMeters>-45.799999237060546875</AltitudeMeters>
            <DistanceMeters>NAN</DistanceMeters>
          </Trackpoint>
          <Trackpoint>
            <Time>2022-07-12T13:53:06.000Z</Time>
            <Position>
              <LatitudeDegrees>43.30806791782379150390625</LatitudeDegrees>
              <LongitudeDegrees>-3.01979963667690753936767578125</LongitudeDegrees>
            </Position>
            <AltitudeMeters>-45.799999237060546875</AltitudeMeters>
            <DistanceMeters>NAN</DistanceMeters>
          </Trackpoint>
          <Trackpoint>
            <Time>2022-07-12T13:53:09.000Z</Time>
            <Position>
              <LatitudeDegrees>43.30808962695300579071044921875</LatitudeDegrees>
              <LongitudeDegrees>-3.019916228950023651123046875</LongitudeDegrees>
            </Position>
            <AltitudeMeters>-45.799999237060546875</AltitudeMeters>
            <DistanceMeters>NAN</DistanceMeters>
          </Trackpoint>
          <Trackpoint>
            <Time>2022-07-12T13:53:16.000Z</Time>
            <Position>
              <LatitudeDegrees>43.3081539161503314971923828125</LatitudeDegrees>
              <LongitudeDegrees>-3.0202060751616954803466796875</LongitudeDegrees>
            </Position>
            <AltitudeMeters>-45.799999237060546875</AltitudeMeters>
            <DistanceMeters>NAN</DistanceMeters>
          </Trackpoint>
          <Trackpoint>
            <Time>2022-07-12T13:53:20.000Z</Time>
            <Position>
              <LatitudeDegrees>43.30818886868655681610107421875</LatitudeDegrees>
              <LongitudeDegrees>-3.0203569494187831878662109375</LongitudeDegrees>
            </Position>
            <AltitudeMeters>-45.799999237060546875</AltitudeMeters>
            <DistanceMeters>NAN</DistanceMeters>
          </Trackpoint>
          <Trackpoint>
            <Time>2022-07-12T13:53:21.000Z</Time>
            <Position>
              <LatitudeDegrees>43.30820194445550441741943359375</LatitudeDegrees>
              <LongitudeDegrees>-3.02040128968656063079833984375</LongitudeDegrees>
            </Position>
            <AltitudeMeters>-45.59999847412109375</AltitudeMeters>
            <DistanceMeters>NAN</DistanceMeters>
          </Trackpoint>
          <Trackpoint>
            <Time>2022-07-12T13:53:25.000Z</Time>
            <Position>
              <LatitudeDegrees>43.30823111347854137420654296875</LatitudeDegrees>
              <LongitudeDegrees>-3.02053573541343212127685546875</LongitudeDegrees>
            </Position>
            <AltitudeMeters>-45.200000762939453125</AltitudeMeters>
            <DistanceMeters>NAN</DistanceMeters>
          </Trackpoint>
          <Trackpoint>
            <Time>2022-07-12T13:53:30.000Z</Time>
            <Position>
              <LatitudeDegrees>43.30827109515666961669921875</LatitudeDegrees>
              <LongitudeDegrees>-3.02069641649723052978515625</LongitudeDegrees>
            </Position>
            <AltitudeMeters>-45.40000152587890625</AltitudeMeters>
            <DistanceMeters>NAN</DistanceMeters>
          </Trackpoint>
          <Trackpoint>
            <Time>2022-07-12T13:53:37.000Z</Time>
            <Position>
              <LatitudeDegrees>43.30833823420107364654541015625</LatitudeDegrees>
              <LongitudeDegrees>-3.02095281891524791717529296875</LongitudeDegrees>
            </Position>
            <AltitudeMeters>-44.799999237060546875</AltitudeMeters>
            <DistanceMeters>NAN</DistanceMeters>
          </Trackpoint>
          <Trackpoint>
            <Time>2022-07-12T13:53:49.000Z</Time>
            <Position>
              <LatitudeDegrees>43.3084422536194324493408203125</LatitudeDegrees>
              <LongitudeDegrees>-3.02136872895061969757080078125</LongitudeDegrees>
            </Position>
            <AltitudeMeters>-44.40000152587890625</AltitudeMeters>
            <DistanceMeters>NAN</DistanceMeters>
          </Trackpoint>
          <Trackpoint>
            <Time>2022-07-12T13:53:56.000Z</Time>
            <Position>
              <LatitudeDegrees>43.30851274542510509490966796875</LatitudeDegrees>
              <LongitudeDegrees>-3.0215998180210590362548828125</LongitudeDegrees>
            </Position>
            <AltitudeMeters>-44.200000762939453125</AltitudeMeters>
            <DistanceMeters>NAN</DistanceMeters>
          </Trackpoint>
          <Trackpoint>
            <Time>2022-07-12T13:54:02.000Z</Time>
            <Position>
              <LatitudeDegrees>43.30857611261308193206787109375</LatitudeDegrees>
              <LongitudeDegrees>-3.0218016542494297027587890625</LongitudeDegrees>
            </Position>
            <AltitudeMeters>-44.200000762939453125</AltitudeMeters>
            <DistanceMeters>NAN</DistanceMeters>
          </Trackpoint>
          <Trackpoint>
            <Time>2022-07-12T13:54:11.000Z</Time>
            <Position>
              <LatitudeDegrees>43.30867384560406208038330078125</LatitudeDegrees>
              <LongitudeDegrees>-3.0220864713191986083984375</LongitudeDegrees>
            </Position>
            <AltitudeMeters>-43.799999237060546875</AltitudeMeters>
            <DistanceMeters>NAN</DistanceMeters>
          </Trackpoint>
          <Trackpoint>
            <Time>2022-07-12T13:54:19.000Z</Time>
            <Position>
              <LatitudeDegrees>43.30876554362475872039794921875</LatitudeDegrees>
              <LongitudeDegrees>-3.02232854068279266357421875</LongitudeDegrees>
            </Position>
            <AltitudeMeters>-43.200000762939453125</AltitudeMeters>
            <DistanceMeters>NAN</DistanceMeters>
          </Trackpoint>
          <Trackpoint>
            <Time>2022-07-12T13:54:22.000Z</Time>
            <Position>
              <LatitudeDegrees>43.3088028430938720703125</LatitudeDegrees>
              <LongitudeDegrees>-3.02241277880966663360595703125</LongitudeDegrees>
            </Position>
            <AltitudeMeters>-43.200000762939453125</AltitudeMeters>
            <DistanceMeters>NAN</DistanceMeters>
          </Trackpoint>
          <Trackpoint>
            <Time>2022-07-12T13:54:34.000Z</Time>
            <Position>
              <LatitudeDegrees>43.3089669607579708099365234375</LatitudeDegrees>
              <LongitudeDegrees>-3.02278493531048297882080078125</LongitudeDegrees>
            </Position>
            <AltitudeMeters>-43.200000762939453125</AltitudeMeters>
            <DistanceMeters>NAN</DistanceMeters>
          </Trackpoint>
          <Trackpoint>
            <Time>2022-07-12T13:54:46.000Z</Time>
            <Position>
              <LatitudeDegrees>43.30914021469652652740478515625</LatitudeDegrees>
              <LongitudeDegrees>-3.02315759472548961639404296875</LongitudeDegrees>
            </Position>
            <AltitudeMeters>-42.40000152587890625</AltitudeMeters>
            <DistanceMeters>NAN</DistanceMeters>
          </Trackpoint>
          <Trackpoint>
            <Time>2022-07-12T13:54:57.000Z</Time>
            <Position>
              <LatitudeDegrees>43.309315480291843414306640625</LatitudeDegrees>
              <LongitudeDegrees>-3.023498989641666412353515625</LongitudeDegrees>
            </Position>
            <AltitudeMeters>-42.200000762939453125</AltitudeMeters>
            <DistanceMeters>NAN</DistanceMeters>
          </Trackpoint>
          <Trackpoint>
            <Time>2022-07-12T13:54:58.000Z</Time>
            <Position>
              <LatitudeDegrees>43.3093298971652984619140625</LatitudeDegrees>
              <LongitudeDegrees>-3.02353058941662311553955078125</LongitudeDegrees>
            </Position>
            <AltitudeMeters>-42.200000762939453125</AltitudeMeters>
            <DistanceMeters>NAN</DistanceMeters>
          </Trackpoint>
          <Trackpoint>
            <Time>2022-07-12T13:55:08.000Z</Time>
            <Position>
              <LatitudeDegrees>43.3094836212694644927978515625</LatitudeDegrees>
              <LongitudeDegrees>-3.02383082918822765350341796875</LongitudeDegrees>
            </Position>
            <AltitudeMeters>-41.799999237060546875</AltitudeMeters>
            <DistanceMeters>NAN</DistanceMeters>
          </Trackpoint>
          <Trackpoint>
            <Time>2022-07-12T13:55:18.000Z</Time>
            <Position>
              <LatitudeDegrees>43.309663832187652587890625</LatitudeDegrees>
              <LongitudeDegrees>-3.0241033248603343963623046875</LongitudeDegrees>
            </Position>
            <AltitudeMeters>-41.59999847412109375</AltitudeMeters>
            <DistanceMeters>NAN</DistanceMeters>
          </Trackpoint>
          <Trackpoint>
            <Time>2022-07-12T13:55:25.000Z</Time>
            <Position>
              <LatitudeDegrees>43.30978930927813053131103515625</LatitudeDegrees>
              <LongitudeDegrees>-3.0242860503494739532470703125</LongitudeDegrees>
            </Position>
            <AltitudeMeters>-41.200000762939453125</AltitudeMeters>
            <DistanceMeters>NAN</DistanceMeters>
          </Trackpoint>
          <Trackpoint>
            <Time>2022-07-12T13:55:26.000Z</Time>
            <Position>
              <LatitudeDegrees>43.3098046481609344482421875</LatitudeDegrees>
              <LongitudeDegrees>-3.02431295625865459442138671875</LongitudeDegrees>
            </Position>
            <AltitudeMeters>-41</AltitudeMeters>
            <DistanceMeters>NAN</DistanceMeters>
          </Trackpoint>
          <Trackpoint>
            <Time>2022-07-12T13:55:37.000Z</Time>
            <Position>
              <LatitudeDegrees>43.3099897205829620361328125</LatitudeDegrees>
              <LongitudeDegrees>-3.024583272635936737060546875</LongitudeDegrees>
            </Position>
            <AltitudeMeters>-40.200000762939453125</AltitudeMeters>
            <DistanceMeters>NAN</DistanceMeters>
          </Trackpoint>
          <Trackpoint>
            <Time>2022-07-12T13:55:39.000Z</Time>
            <Position>
              <LatitudeDegrees>43.3100244216620922088623046875</LatitudeDegrees>
              <LongitudeDegrees>-3.02463658154010772705078125</LongitudeDegrees>
            </Position>
            <AltitudeMeters>-40</AltitudeMeters>
            <DistanceMeters>NAN</DistanceMeters>
          </Trackpoint>
          <Trackpoint>
            <Time>2022-07-12T13:55:45.000Z</Time>
            <Position>
              <LatitudeDegrees>43.31013548187911510467529296875</LatitudeDegrees>
              <LongitudeDegrees>-3.02478351630270481109619140625</LongitudeDegrees>
            </Position>
            <AltitudeMeters>-39.59999847412109375</AltitudeMeters>
            <DistanceMeters>NAN</DistanceMeters>
          </Trackpoint>
          <Trackpoint>
            <Time>2022-07-12T13:55:47.000Z</Time>
            <Position>
              <LatitudeDegrees>43.31017236225306987762451171875</LatitudeDegrees>
              <LongitudeDegrees>-3.0248357355594635009765625</LongitudeDegrees>
            </Position>
            <AltitudeMeters>-39.40000152587890625</AltitudeMeters>
            <DistanceMeters>NAN</DistanceMeters>
          </Trackpoint>
          <Trackpoint>
            <Time>2022-07-12T13:55:55.000Z</Time>
            <Position>
              <LatitudeDegrees>43.31031871028244495391845703125</LatitudeDegrees>
              <LongitudeDegrees>-3.02502508275210857391357421875</LongitudeDegrees>
            </Position>
            <AltitudeMeters>-39.40000152587890625</AltitudeMeters>
            <DistanceMeters>NAN</DistanceMeters>
          </Trackpoint>
          <Trackpoint>
            <Time>2022-07-12T13:55:57.000Z</Time>
            <Position>
              <LatitudeDegrees>43.3103573508560657501220703125</LatitudeDegrees>
              <LongitudeDegrees>-3.02507244050502777099609375</LongitudeDegrees>
            </Position>
            <AltitudeMeters>-39</AltitudeMeters>
            <DistanceMeters>NAN</DistanceMeters>
          </Trackpoint>
          <Trackpoint>
            <Time>2022-07-12T13:56:01.000Z</Time>
            <Position>
              <LatitudeDegrees>43.310425914824008941650390625</LatitudeDegrees>
              <LongitudeDegrees>-3.025170005857944488525390625</LongitudeDegrees>
            </Position>
            <AltitudeMeters>-39</AltitudeMeters>
            <DistanceMeters>NAN</DistanceMeters>
          </Trackpoint>
          <Trackpoint>
            <Time>2022-07-12T13:56:06.000Z</Time>
            <Position>
              <LatitudeDegrees>43.31052415072917938232421875</LatitudeDegrees>
              <LongitudeDegrees>-3.02528056316077709197998046875</LongitudeDegrees>
            </Position>
            <AltitudeMeters>-38.59999847412109375</AltitudeMeters>
            <DistanceMeters>NAN</DistanceMeters>
          </Trackpoint>
          <Trackpoint>
            <Time>2022-07-12T13:56:17.000Z</Time>
            <Position>
              <LatitudeDegrees>43.31076228059828281402587890625</LatitudeDegrees>
              <LongitudeDegrees>-3.02545021288096904754638671875</LongitudeDegrees>
            </Position>
            <AltitudeMeters>-38.200000762939453125</AltitudeMeters>
            <DistanceMeters>NAN</DistanceMeters>
          </Trackpoint>
          <Trackpoint>
            <Time>2022-07-12T13:56:20.000Z</Time>
            <Position>
              <LatitudeDegrees>43.310834951698780059814453125</LatitudeDegrees>
              <LongitudeDegrees>-3.02548323757946491241455078125</LongitudeDegrees>
            </Position>
            <AltitudeMeters>-37.799999237060546875</AltitudeMeters>
            <DistanceMeters>NAN</DistanceMeters>
          </Trackpoint>
          <Trackpoint>
            <Time>2022-07-12T13:56:26.000Z</Time>
            <Position>
              <LatitudeDegrees>43.31097551621496677398681640625</LatitudeDegrees>
              <LongitudeDegrees>-3.0255523882806301116943359375</LongitudeDegrees>
            </Position>
            <AltitudeMeters>-37.40000152587890625</AltitudeMeters>
            <DistanceMeters>NAN</DistanceMeters>
          </Trackpoint>
          <Trackpoint>
            <Time>2022-07-12T13:56:30.000Z</Time>
            <Position>
              <LatitudeDegrees>43.31105967052280902862548828125</LatitudeDegrees>
              <LongitudeDegrees>-3.02560150623321533203125</LongitudeDegrees>
            </Position>
            <AltitudeMeters>-37</AltitudeMeters>
            <DistanceMeters>NAN</DistanceMeters>
          </Trackpoint>
          <Trackpoint>
            <Time>2022-07-12T13:56:33.000Z</Time>
            <Position>
              <LatitudeDegrees>43.31111683510243892669677734375</LatitudeDegrees>
              <LongitudeDegrees>-3.02564106881618499755859375</LongitudeDegrees>
            </Position>
            <AltitudeMeters>-36.799999237060546875</AltitudeMeters>
            <DistanceMeters>NAN</DistanceMeters>
          </Trackpoint>
          <Trackpoint>
            <Time>2022-07-12T13:56:34.000Z</Time>
            <Position>
              <LatitudeDegrees>43.31113510765135288238525390625</LatitudeDegrees>
              <LongitudeDegrees>-3.025652132928371429443359375</LongitudeDegrees>
            </Position>
            <AltitudeMeters>-36.59999847412109375</AltitudeMeters>
            <DistanceMeters>NAN</DistanceMeters>
          </Trackpoint>
          <Trackpoint>
            <Time>2022-07-12T13:56:46.000Z</Time>
            <Position>
              <LatitudeDegrees>43.3113608323037624359130859375</LatitudeDegrees>
              <LongitudeDegrees>-3.02579957060515880584716796875</LongitudeDegrees>
            </Position>
            <AltitudeMeters>-36</AltitudeMeters>
            <DistanceMeters>NAN</DistanceMeters>
          </Trackpoint>
          <Trackpoint>
            <Time>2022-07-12T13:56:48.000Z</Time>
            <Position>
              <LatitudeDegrees>43.3114010654389858245849609375</LatitudeDegrees>
              <LongitudeDegrees>-3.02582102827727794647216796875</LongitudeDegrees>
            </Position>
            <AltitudeMeters>-35.799999237060546875</AltitudeMeters>
            <DistanceMeters>NAN</DistanceMeters>
          </Trackpoint>
          <Trackpoint>
            <Time>2022-07-12T13:56:56.000Z</Time>
            <Position>
              <LatitudeDegrees>43.31154883839190006256103515625</LatitudeDegrees>
              <LongitudeDegrees>-3.02592010237276554107666015625</LongitudeDegrees>
            </Position>
            <AltitudeMeters>-35</AltitudeMeters>
            <DistanceMeters>NAN</DistanceMeters>
          </Trackpoint>
          <Trackpoint>
            <Time>2022-07-12T13:56:59.000Z</Time>
            <Position>
              <LatitudeDegrees>43.311598040163516998291015625</LatitudeDegrees>
              <LongitudeDegrees>-3.025959916412830352783203125</LongitudeDegrees>
            </Position>
            <AltitudeMeters>-34.59999847412109375</AltitudeMeters>
            <DistanceMeters>NAN</DistanceMeters>
          </Trackpoint>
          <Trackpoint>
            <Time>2022-07-12T13:57:05.000Z</Time>
            <Position>
              <LatitudeDegrees>43.31170071847736835479736328125</LatitudeDegrees>
              <LongitudeDegrees>-3.0260439030826091766357421875</LongitudeDegrees>
            </Position>
            <AltitudeMeters>-34.200000762939453125</AltitudeMeters>
            <DistanceMeters>NAN</DistanceMeters>
          </Trackpoint>
          <Trackpoint>
            <Time>2022-07-12T13:57:12.000Z</Time>
            <Position>
              <LatitudeDegrees>43.31180490553379058837890625</LatitudeDegrees>
              <LongitudeDegrees>-3.0261793546378612518310546875</LongitudeDegrees>
            </Position>
            <AltitudeMeters>-33.59999847412109375</AltitudeMeters>
            <DistanceMeters>NAN</DistanceMeters>
          </Trackpoint>
          <Trackpoint>
            <Time>2022-07-12T13:57:13.000Z</Time>
            <Position>
              <LatitudeDegrees>43.31181840039789676666259765625</LatitudeDegrees>
              <LongitudeDegrees>-3.0262004770338535308837890625</LongitudeDegrees>
            </Position>
            <AltitudeMeters>-33.40000152587890625</AltitudeMeters>
            <DistanceMeters>NAN</DistanceMeters>
          </Trackpoint>
          <Trackpoint>
            <Time>2022-07-12T13:57:20.000Z</Time>
            <Position>
              <LatitudeDegrees>43.3119123615324497222900390625</LatitudeDegrees>
              <LongitudeDegrees>-3.026368953287601470947265625</LongitudeDegrees>
            </Position>
            <AltitudeMeters>-32.59999847412109375</AltitudeMeters>
            <DistanceMeters>NAN</DistanceMeters>
          </Trackpoint>
          <Trackpoint>
            <Time>2022-07-12T13:57:21.000Z</Time>
            <Position>
              <LatitudeDegrees>43.3119261078536510467529296875</LatitudeDegrees>
              <LongitudeDegrees>-3.0263895727694034576416015625</LongitudeDegrees>
            </Position>
            <AltitudeMeters>-32.40000152587890625</AltitudeMeters>
            <DistanceMeters>NAN</DistanceMeters>
          </Trackpoint>
          <Trackpoint>
            <Time>2022-07-12T13:57:22.000Z</Time>
            <Position>
              <LatitudeDegrees>43.3119388483464717864990234375</LatitudeDegrees>
              <LongitudeDegrees>-3.02641228772699832916259765625</LongitudeDegrees>
            </Position>
            <AltitudeMeters>-32.40000152587890625</AltitudeMeters>
            <DistanceMeters>NAN</DistanceMeters>
          </Trackpoint>
          <Trackpoint>
            <Time>2022-07-12T13:57:32.000Z</Time>
            <Position>
              <LatitudeDegrees>43.3120806701481342315673828125</LatitudeDegrees>
              <LongitudeDegrees>-3.0266328155994415283203125</LongitudeDegrees>
            </Position>
            <AltitudeMeters>-31.6000003814697265625</AltitudeMeters>
            <DistanceMeters>NAN</DistanceMeters>
          </Trackpoint>
          <Trackpoint>
            <Time>2022-07-12T13:57:33.000Z</Time>
            <Position>
              <LatitudeDegrees>43.3120977692306041717529296875</LatitudeDegrees>
              <LongitudeDegrees>-3.0266561172902584075927734375</LongitudeDegrees>
            </Position>
            <AltitudeMeters>-31.3999996185302734375</AltitudeMeters>
            <DistanceMeters>NAN</DistanceMeters>
          </Trackpoint>
          <Trackpoint>
            <Time>2022-07-12T13:57:37.000Z</Time>
            <Position>
              <LatitudeDegrees>43.31216490827500820159912109375</LatitudeDegrees>
              <LongitudeDegrees>-3.02674253471195697784423828125</LongitudeDegrees>
            </Position>
            <AltitudeMeters>-31.200000762939453125</AltitudeMeters>
            <DistanceMeters>NAN</DistanceMeters>
          </Trackpoint>
          <Trackpoint>
            <Time>2022-07-12T13:57:39.000Z</Time>
            <Position>
              <LatitudeDegrees>43.31219541840255260467529296875</LatitudeDegrees>
              <LongitudeDegrees>-3.02678796462714672088623046875</LongitudeDegrees>
            </Position>
            <AltitudeMeters>-31.200000762939453125</AltitudeMeters>
            <DistanceMeters>NAN</DistanceMeters>
          </Trackpoint>
          <Trackpoint>
            <Time>2022-07-12T13:57:42.000Z</Time>
            <Position>
              <LatitudeDegrees>43.31224654801189899444580078125</LatitudeDegrees>
              <LongitudeDegrees>-3.0268485657870769500732421875</LongitudeDegrees>
            </Position>
            <AltitudeMeters>-31.6000003814697265625</AltitudeMeters>
            <DistanceMeters>NAN</DistanceMeters>
          </Trackpoint>
          <Trackpoint>
            <Time>2022-07-12T13:57:51.000Z</Time>
            <Position>
              <LatitudeDegrees>43.31244167871773242950439453125</LatitudeDegrees>
              <LongitudeDegrees>-3.0270638130605220794677734375</LongitudeDegrees>
            </Position>
            <AltitudeMeters>-32</AltitudeMeters>
            <DistanceMeters>NAN</DistanceMeters>
          </Trackpoint>
          <Trackpoint>
            <Time>2022-07-12T13:57:53.000Z</Time>
            <Position>
              <LatitudeDegrees>43.31250119023025035858154296875</LatitudeDegrees>
              <LongitudeDegrees>-3.02714645862579345703125</LongitudeDegrees>
            </Position>
            <AltitudeMeters>-32.40000152587890625</AltitudeMeters>
            <DistanceMeters>NAN</DistanceMeters>
          </Trackpoint>
          <Trackpoint>
            <Time>2022-07-12T13:57:55.000Z</Time>
            <Position>
              <LatitudeDegrees>43.3125658147037029266357421875</LatitudeDegrees>
              <LongitudeDegrees>-3.0272284336388111114501953125</LongitudeDegrees>
            </Position>
            <AltitudeMeters>-32.59999847412109375</AltitudeMeters>
            <DistanceMeters>NAN</DistanceMeters>
          </Trackpoint>
          <Trackpoint>
            <Time>2022-07-12T13:57:57.000Z</Time>
            <Position>
              <LatitudeDegrees>43.31263236701488494873046875</LatitudeDegrees>
              <LongitudeDegrees>-3.02731350995600223541259765625</LongitudeDegrees>
            </Position>
            <AltitudeMeters>-33</AltitudeMeters>
            <DistanceMeters>NAN</DistanceMeters>
          </Trackpoint>
          <Trackpoint>
            <Time>2022-07-12T13:57:59.000Z</Time>
            <Position>
              <LatitudeDegrees>43.31270051188766956329345703125</LatitudeDegrees>
              <LongitudeDegrees>-3.0274052917957305908203125</LongitudeDegrees>
            </Position>
            <AltitudeMeters>-33.200000762939453125</AltitudeMeters>
            <DistanceMeters>NAN</DistanceMeters>
          </Trackpoint>
          <Trackpoint>
            <Time>2022-07-12T13:58:01.000Z</Time>
            <Position>
              <LatitudeDegrees>43.31276555545628070831298828125</LatitudeDegrees>
              <LongitudeDegrees>-3.02750176750123500823974609375</LongitudeDegrees>
            </Position>
            <AltitudeMeters>-33.40000152587890625</AltitudeMeters>
            <DistanceMeters>NAN</DistanceMeters>
          </Trackpoint>
          <Trackpoint>
            <Time>2022-07-12T13:58:07.000Z</Time>
            <Position>
              <LatitudeDegrees>43.3129657991230487823486328125</LatitudeDegrees>
              <LongitudeDegrees>-3.02779622375965118408203125</LongitudeDegrees>
            </Position>
            <AltitudeMeters>-34</AltitudeMeters>
            <DistanceMeters>NAN</DistanceMeters>
          </Trackpoint>
          <Trackpoint>
            <Time>2022-07-12T13:58:09.000Z</Time>
            <Position>
              <LatitudeDegrees>43.3130325190722942352294921875</LatitudeDegrees>
              <LongitudeDegrees>-3.02790342830121517181396484375</LongitudeDegrees>
            </Position>
            <AltitudeMeters>-34.59999847412109375</AltitudeMeters>
            <DistanceMeters>NAN</DistanceMeters>
          </Trackpoint>
          <Trackpoint>
            <Time>2022-07-12T13:58:14.000Z</Time>
            <Position>
              <LatitudeDegrees>43.31320703029632568359375</LatitudeDegrees>
              <LongitudeDegrees>-3.0281536281108856201171875</LongitudeDegrees>
            </Position>
            <AltitudeMeters>-35</AltitudeMeters>
            <DistanceMeters>NAN</DistanceMeters>
          </Trackpoint>
          <Trackpoint>
            <Time>2022-07-12T13:58:15.000Z</Time>
            <Position>
              <LatitudeDegrees>43.313247263431549072265625</LatitudeDegrees>
              <LongitudeDegrees>-3.02820383571088314056396484375</LongitudeDegrees>
            </Position>
            <AltitudeMeters>-35</AltitudeMeters>
            <DistanceMeters>NAN</DistanceMeters>
          </Trackpoint>
          <Trackpoint>
            <Time>2022-07-12T13:58:21.000Z</Time>
            <Position>
              <LatitudeDegrees>43.31346024759113788604736328125</LatitudeDegrees>
              <LongitudeDegrees>-3.02852536551654338836669921875</LongitudeDegrees>
            </Position>
            <AltitudeMeters>-35.40000152587890625</AltitudeMeters>
            <DistanceMeters>NAN</DistanceMeters>
          </Trackpoint>
          <Trackpoint>
            <Time>2022-07-12T13:58:22.000Z</Time>
            <Position>
              <LatitudeDegrees>43.31347265280783176422119140625</LatitudeDegrees>
              <LongitudeDegrees>-3.02858621813356876373291015625</LongitudeDegrees>
            </Position>
            <AltitudeMeters>-35.799999237060546875</AltitudeMeters>
            <DistanceMeters>NAN</DistanceMeters>
          </Trackpoint>
          <Trackpoint>
            <Time>2022-07-12T13:58:23.000Z</Time>
            <Position>
              <LatitudeDegrees>43.31346712075173854827880859375</LatitudeDegrees>
              <LongitudeDegrees>-3.02864438854157924652099609375</LongitudeDegrees>
            </Position>
            <AltitudeMeters>-36</AltitudeMeters>
            <DistanceMeters>NAN</DistanceMeters>
          </Trackpoint>
          <Trackpoint>
            <Time>2022-07-12T13:58:25.000Z</Time>
            <Position>
              <LatitudeDegrees>43.3134154044091701507568359375</LatitudeDegrees>
              <LongitudeDegrees>-3.0287329852581024169921875</LongitudeDegrees>
            </Position>
            <AltitudeMeters>-36.200000762939453125</AltitudeMeters>
            <DistanceMeters>NAN</DistanceMeters>
          </Trackpoint>
          <Trackpoint>
            <Time>2022-07-12T13:58:30.000Z</Time>
            <Position>
              <LatitudeDegrees>43.3132593333721160888671875</LatitudeDegrees>
              <LongitudeDegrees>-3.02889567799866199493408203125</LongitudeDegrees>
            </Position>
            <AltitudeMeters>-35.799999237060546875</AltitudeMeters>
            <DistanceMeters>NAN</DistanceMeters>
          </Trackpoint>
          <Trackpoint>
            <Time>2022-07-12T13:58:39.000Z</Time>
            <Position>
              <LatitudeDegrees>43.31301231868565082550048828125</LatitudeDegrees>
              <LongitudeDegrees>-3.029174543917179107666015625</LongitudeDegrees>
            </Position>
            <AltitudeMeters>-36</AltitudeMeters>
            <DistanceMeters>NAN</DistanceMeters>
          </Trackpoint>
          <Trackpoint>
            <Time>2022-07-12T13:58:49.000Z</Time>
            <Position>
              <LatitudeDegrees>43.31276270560920238494873046875</LatitudeDegrees>
              <LongitudeDegrees>-3.02946195937693119049072265625</LongitudeDegrees>
            </Position>
            <AltitudeMeters>-35.200000762939453125</AltitudeMeters>
            <DistanceMeters>NAN</DistanceMeters>
          </Trackpoint>
          <Trackpoint>
            <Time>2022-07-12T13:58:58.000Z</Time>
            <Position>
              <LatitudeDegrees>43.31254695542156696319580078125</LatitudeDegrees>
              <LongitudeDegrees>-3.029737137258052825927734375</LongitudeDegrees>
            </Position>
            <AltitudeMeters>-35</AltitudeMeters>
            <DistanceMeters>NAN</DistanceMeters>
          </Trackpoint>
          <Trackpoint>
            <Time>2022-07-12T13:59:01.000Z</Time>
            <Position>
              <LatitudeDegrees>43.31248157657682895660400390625</LatitudeDegrees>
              <LongitudeDegrees>-3.02982623688876628875732421875</LongitudeDegrees>
            </Position>
            <AltitudeMeters>-34.799999237060546875</AltitudeMeters>
            <DistanceMeters>NAN</DistanceMeters>
          </Trackpoint>
          <Trackpoint>
            <Time>2022-07-12T13:59:11.000Z</Time>
            <Position>
              <LatitudeDegrees>43.3123017847537994384765625</LatitudeDegrees>
              <LongitudeDegrees>-3.03017173893749713897705078125</LongitudeDegrees>
            </Position>
            <AltitudeMeters>-33.799999237060546875</AltitudeMeters>
            <DistanceMeters>NAN</DistanceMeters>
          </Trackpoint>
          <Trackpoint>
            <Time>2022-07-12T13:59:17.000Z</Time>
            <Position>
              <LatitudeDegrees>43.31220455467700958251953125</LatitudeDegrees>
              <LongitudeDegrees>-3.030394613742828369140625</LongitudeDegrees>
            </Position>
            <AltitudeMeters>-33.799999237060546875</AltitudeMeters>
            <DistanceMeters>NAN</DistanceMeters>
          </Trackpoint>
          <Trackpoint>
            <Time>2022-07-12T13:59:19.000Z</Time>
            <Position>
              <LatitudeDegrees>43.3121742121875286102294921875</LatitudeDegrees>
              <LongitudeDegrees>-3.03046208806335926055908203125</LongitudeDegrees>
            </Position>
            <AltitudeMeters>-33.59999847412109375</AltitudeMeters>
            <DistanceMeters>NAN</DistanceMeters>
          </Trackpoint>
          <Trackpoint>
            <Time>2022-07-12T13:59:28.000Z</Time>
            <Position>
              <LatitudeDegrees>43.31202593632042407989501953125</LatitudeDegrees>
              <LongitudeDegrees>-3.030778504908084869384765625</LongitudeDegrees>
            </Position>
            <AltitudeMeters>-33.40000152587890625</AltitudeMeters>
            <DistanceMeters>NAN</DistanceMeters>
          </Trackpoint>
          <Trackpoint>
            <Time>2022-07-12T13:59:37.000Z</Time>
            <Position>
              <LatitudeDegrees>43.31187355332076549530029296875</LatitudeDegrees>
              <LongitudeDegrees>-3.0311444588005542755126953125</LongitudeDegrees>
            </Position>
            <AltitudeMeters>-33.59999847412109375</AltitudeMeters>
            <DistanceMeters>NAN</DistanceMeters>
          </Trackpoint>
          <Trackpoint>
            <Time>2022-07-12T13:59:45.000Z</Time>
            <Position>
              <LatitudeDegrees>43.31166786141693592071533203125</LatitudeDegrees>
              <LongitudeDegrees>-3.03153212182223796844482421875</LongitudeDegrees>
            </Position>
            <AltitudeMeters>-34.40000152587890625</AltitudeMeters>
            <DistanceMeters>NAN</DistanceMeters>
          </Trackpoint>
          <Trackpoint>
            <Time>2022-07-12T13:59:50.000Z</Time>
            <Position>
              <LatitudeDegrees>43.3115133829414844512939453125</LatitudeDegrees>
              <LongitudeDegrees>-3.03174686618149280548095703125</LongitudeDegrees>
            </Position>
            <AltitudeMeters>-34.40000152587890625</AltitudeMeters>
            <DistanceMeters>NAN</DistanceMeters>
          </Trackpoint>
          <Trackpoint>
            <Time>2022-07-12T13:59:52.000Z</Time>
            <Position>
              <LatitudeDegrees>43.3114654384553432464599609375</LatitudeDegrees>
              <LongitudeDegrees>-3.0318099819123744964599609375</LongitudeDegrees>
            </Position>
            <AltitudeMeters>-34.200000762939453125</AltitudeMeters>
            <DistanceMeters>NAN</DistanceMeters>
          </Trackpoint>
          <Trackpoint>
            <Time>2022-07-12T13:59:53.000Z</Time>
            <Position>
              <LatitudeDegrees>43.31144339405000209808349609375</LatitudeDegrees>
              <LongitudeDegrees>-3.03183554671704769134521484375</LongitudeDegrees>
            </Position>
            <AltitudeMeters>-34.200000762939453125</AltitudeMeters>
            <DistanceMeters>NAN</DistanceMeters>
          </Trackpoint>
          <Trackpoint>
            <Time>2022-07-12T13:59:54.000Z</Time>
            <Position>
              <LatitudeDegrees>43.311423026025295257568359375</LatitudeDegrees>
              <LongitudeDegrees>-3.0318575911223888397216796875</LongitudeDegrees>
            </Position>
            <AltitudeMeters>-34.200000762939453125</AltitudeMeters>
            <DistanceMeters>NAN</DistanceMeters>
          </Trackpoint>
          <Trackpoint>
            <Time>2022-07-12T13:59:59.000Z</Time>
            <Position>
              <LatitudeDegrees>43.31132370047271251678466796875</LatitudeDegrees>
              <LongitudeDegrees>-3.03196412511169910430908203125</LongitudeDegrees>
            </Position>
            <AltitudeMeters>-33.40000152587890625</AltitudeMeters>
            <DistanceMeters>NAN</DistanceMeters>
          </Trackpoint>
          <Trackpoint>
            <Time>2022-07-12T14:00:00.000Z</Time>
            <Position>
              <LatitudeDegrees>43.31130475737154483795166015625</LatitudeDegrees>
              <LongitudeDegrees>-3.03198457695543766021728515625</LongitudeDegrees>
            </Position>
            <AltitudeMeters>-33.40000152587890625</AltitudeMeters>
            <DistanceMeters>NAN</DistanceMeters>
          </Trackpoint>
          <Trackpoint>
            <Time>2022-07-12T14:00:02.000Z</Time>
            <Position>
              <LatitudeDegrees>43.311267457902431488037109375</LatitudeDegrees>
              <LongitudeDegrees>-3.03202581591904163360595703125</LongitudeDegrees>
            </Position>
            <AltitudeMeters>-33.200000762939453125</AltitudeMeters>
            <DistanceMeters>NAN</DistanceMeters>
          </Trackpoint>
          <Trackpoint>
            <Time>2022-07-12T14:00:03.000Z</Time>
            <Position>
              <LatitudeDegrees>43.3112481795251369476318359375</LatitudeDegrees>
              <LongitudeDegrees>-3.03204442374408245086669921875</LongitudeDegrees>
            </Position>
            <AltitudeMeters>-33</AltitudeMeters>
            <DistanceMeters>NAN</DistanceMeters>
          </Trackpoint>
          <Trackpoint>
            <Time>2022-07-12T14:00:05.000Z</Time>
            <Position>
              <LatitudeDegrees>43.31120953895151615142822265625</LatitudeDegrees>
              <LongitudeDegrees>-3.03207711316645145416259765625</LongitudeDegrees>
            </Position>
            <AltitudeMeters>-32.799999237060546875</AltitudeMeters>
            <DistanceMeters>NAN</DistanceMeters>
          </Trackpoint>
          <Trackpoint>
            <Time>2022-07-12T14:00:07.000Z</Time>
            <Position>
              <LatitudeDegrees>43.31117098219692707061767578125</LatitudeDegrees>
              <LongitudeDegrees>-3.03211147896945476531982421875</LongitudeDegrees>
            </Position>
            <AltitudeMeters>-32.799999237060546875</AltitudeMeters>
            <DistanceMeters>NAN</DistanceMeters>
          </Trackpoint>
          <Trackpoint>
            <Time>2022-07-12T14:00:11.000Z</Time>
            <Position>
              <LatitudeDegrees>43.3110952936112880706787109375</LatitudeDegrees>
              <LongitudeDegrees>-3.0321797914803028106689453125</LongitudeDegrees>
            </Position>
            <AltitudeMeters>-32.200000762939453125</AltitudeMeters>
            <DistanceMeters>NAN</DistanceMeters>
          </Trackpoint>
          <Trackpoint>
            <Time>2022-07-12T14:00:15.000Z</Time>
            <Position>
              <LatitudeDegrees>43.311013989150524139404296875</LatitudeDegrees>
              <LongitudeDegrees>-3.03224810399115085601806640625</LongitudeDegrees>
            </Position>
            <AltitudeMeters>-32.200000762939453125</AltitudeMeters>
            <DistanceMeters>NAN</DistanceMeters>
          </Trackpoint>
          <Trackpoint>
            <Time>2022-07-12T14:00:20.000Z</Time>
            <Position>
              <LatitudeDegrees>43.31092304550111293792724609375</LatitudeDegrees>
              <LongitudeDegrees>-3.0323242954909801483154296875</LongitudeDegrees>
            </Position>
            <AltitudeMeters>-31.799999237060546875</AltitudeMeters>
            <DistanceMeters>NAN</DistanceMeters>
          </Trackpoint>
          <Trackpoint>
            <Time>2022-07-12T14:00:28.000Z</Time>
            <Position>
              <LatitudeDegrees>43.31079312600195407867431640625</LatitudeDegrees>
              <LongitudeDegrees>-3.03245656192302703857421875</LongitudeDegrees>
            </Position>
            <AltitudeMeters>-31</AltitudeMeters>
            <DistanceMeters>NAN</DistanceMeters>
          </Trackpoint>
          <Trackpoint>
            <Time>2022-07-12T14:00:31.000Z</Time>
            <Position>
              <LatitudeDegrees>43.31076177768409252166748046875</LatitudeDegrees>
              <LongitudeDegrees>-3.03252118639647960662841796875</LongitudeDegrees>
            </Position>
            <AltitudeMeters>-30.799999237060546875</AltitudeMeters>
            <DistanceMeters>NAN</DistanceMeters>
          </Trackpoint>
          <Trackpoint>
            <Time>2022-07-12T14:00:34.000Z</Time>
            <Position>
              <LatitudeDegrees>43.31073747016489505767822265625</LatitudeDegrees>
              <LongitudeDegrees>-3.03260249085724353790283203125</LongitudeDegrees>
            </Position>
            <AltitudeMeters>-30.6000003814697265625</AltitudeMeters>
            <DistanceMeters>NAN</DistanceMeters>
          </Trackpoint>
          <Trackpoint>
            <Time>2022-07-12T14:00:36.000Z</Time>
            <Position>
              <LatitudeDegrees>43.31071400083601474761962890625</LatitudeDegrees>
              <LongitudeDegrees>-3.0326595716178417205810546875</LongitudeDegrees>
            </Position>
            <AltitudeMeters>-30.3999996185302734375</AltitudeMeters>
            <DistanceMeters>NAN</DistanceMeters>
          </Trackpoint>
          <Trackpoint>
            <Time>2022-07-12T14:00:40.000Z</Time>
            <Position>
              <LatitudeDegrees>43.31069044768810272216796875</LatitudeDegrees>
              <LongitudeDegrees>-3.03277817554771900177001953125</LongitudeDegrees>
            </Position>
            <AltitudeMeters>-29.799999237060546875</AltitudeMeters>
            <DistanceMeters>NAN</DistanceMeters>
          </Trackpoint>
          <Trackpoint>
            <Time>2022-07-12T14:00:43.000Z</Time>
            <Position>
              <LatitudeDegrees>43.310697488486766815185546875</LatitudeDegrees>
              <LongitudeDegrees>-3.0328823626041412353515625</LongitudeDegrees>
            </Position>
            <AltitudeMeters>-29.200000762939453125</AltitudeMeters>
            <DistanceMeters>NAN</DistanceMeters>
          </Trackpoint>
          <Trackpoint>
            <Time>2022-07-12T14:00:47.000Z</Time>
            <Position>
              <LatitudeDegrees>43.3107144199311733245849609375</LatitudeDegrees>
              <LongitudeDegrees>-3.0330008827149868011474609375</LongitudeDegrees>
            </Position>
            <AltitudeMeters>-28.799999237060546875</AltitudeMeters>
            <DistanceMeters>NAN</DistanceMeters>
          </Trackpoint>
          <Trackpoint>
            <Time>2022-07-12T14:00:48.000Z</Time>
            <Position>
              <LatitudeDegrees>43.3107219636440277099609375</LatitudeDegrees>
              <LongitudeDegrees>-3.0330250225961208343505859375</LongitudeDegrees>
            </Position>
            <AltitudeMeters>-28.6000003814697265625</AltitudeMeters>
            <DistanceMeters>NAN</DistanceMeters>
          </Trackpoint>
          <Trackpoint>
            <Time>2022-07-12T14:00:52.000Z</Time>
            <Position>
              <LatitudeDegrees>43.31076596863567829132080078125</LatitudeDegrees>
              <LongitudeDegrees>-3.0331175588071346282958984375</LongitudeDegrees>
            </Position>
            <AltitudeMeters>-28.200000762939453125</AltitudeMeters>
            <DistanceMeters>NAN</DistanceMeters>
          </Trackpoint>
          <Trackpoint>
            <Time>2022-07-12T14:00:58.000Z</Time>
            <Position>
              <LatitudeDegrees>43.31084609962999820709228515625</LatitudeDegrees>
              <LongitudeDegrees>-3.03323172032833099365234375</LongitudeDegrees>
            </Position>
            <AltitudeMeters>-27.6000003814697265625</AltitudeMeters>
            <DistanceMeters>NAN</DistanceMeters>
          </Trackpoint>
          <Trackpoint>
            <Time>2022-07-12T14:01:04.000Z</Time>
            <Position>
              <LatitudeDegrees>43.31093511544167995452880859375</LatitudeDegrees>
              <LongitudeDegrees>-3.0333247594535350799560546875</LongitudeDegrees>
            </Position>
            <AltitudeMeters>-27</AltitudeMeters>
            <DistanceMeters>NAN</DistanceMeters>
          </Trackpoint>
          <Trackpoint>
            <Time>2022-07-12T14:01:08.000Z</Time>
            <Position>
              <LatitudeDegrees>43.3110040985047817230224609375</LatitudeDegrees>
              <LongitudeDegrees>-3.03338460624217987060546875</LongitudeDegrees>
            </Position>
            <AltitudeMeters>-26.6000003814697265625</AltitudeMeters>
            <DistanceMeters>NAN</DistanceMeters>
          </Trackpoint>
          <Trackpoint>
            <Time>2022-07-12T14:01:09.000Z</Time>
            <Position>
              <LatitudeDegrees>43.31101926974952220916748046875</LatitudeDegrees>
              <LongitudeDegrees>-3.033402375876903533935546875</LongitudeDegrees>
            </Position>
            <AltitudeMeters>-26.3999996185302734375</AltitudeMeters>
            <DistanceMeters>NAN</DistanceMeters>
          </Trackpoint>
          <Trackpoint>
            <Time>2022-07-12T14:01:13.000Z</Time>
            <Position>
              <LatitudeDegrees>43.311075679957866668701171875</LatitudeDegrees>
              <LongitudeDegrees>-3.0334736220538616180419921875</LongitudeDegrees>
            </Position>
            <AltitudeMeters>-26.200000762939453125</AltitudeMeters>
            <DistanceMeters>NAN</DistanceMeters>
          </Trackpoint>
          <Trackpoint>
            <Time>2022-07-12T14:01:23.000Z</Time>
            <Position>
              <LatitudeDegrees>43.3112369477748870849609375</LatitudeDegrees>
              <LongitudeDegrees>-3.03358267061412334442138671875</LongitudeDegrees>
            </Position>
            <AltitudeMeters>-25.6000003814697265625</AltitudeMeters>
            <DistanceMeters>NAN</DistanceMeters>
          </Trackpoint>
          <Trackpoint>
            <Time>2022-07-12T14:01:25.000Z</Time>
            <Position>
              <LatitudeDegrees>43.31126301549375057220458984375</LatitudeDegrees>
              <LongitudeDegrees>-3.03361318074166774749755859375</LongitudeDegrees>
            </Position>
            <AltitudeMeters>-25.3999996185302734375</AltitudeMeters>
            <DistanceMeters>NAN</DistanceMeters>
          </Trackpoint>
          <Trackpoint>
            <Time>2022-07-12T14:01:30.000Z</Time>
            <Position>
              <LatitudeDegrees>43.31133308820426464080810546875</LatitudeDegrees>
              <LongitudeDegrees>-3.03369297645986080169677734375</LongitudeDegrees>
            </Position>
            <AltitudeMeters>-24</AltitudeMeters>
            <DistanceMeters>NAN</DistanceMeters>
          </Trackpoint>
          <Trackpoint>
            <Time>2022-07-12T14:01:38.000Z</Time>
            <Position>
              <LatitudeDegrees>43.3114423044025897979736328125</LatitudeDegrees>
              <LongitudeDegrees>-3.03385407663881778717041015625</LongitudeDegrees>
            </Position>
            <AltitudeMeters>-23.200000762939453125</AltitudeMeters>
            <DistanceMeters>NAN</DistanceMeters>
          </Trackpoint>
          <Trackpoint>
            <Time>2022-07-12T14:01:41.000Z</Time>
            <Position>
              <LatitudeDegrees>43.31147306598722934722900390625</LatitudeDegrees>
              <LongitudeDegrees>-3.03392850793898105621337890625</LongitudeDegrees>
            </Position>
            <AltitudeMeters>-22.799999237060546875</AltitudeMeters>
            <DistanceMeters>NAN</DistanceMeters>
          </Trackpoint>
          <Trackpoint>
            <Time>2022-07-12T14:01:48.000Z</Time>
            <Position>
              <LatitudeDegrees>43.3115184120833873748779296875</LatitudeDegrees>
              <LongitudeDegrees>-3.03409530781209468841552734375</LongitudeDegrees>
            </Position>
            <AltitudeMeters>-22</AltitudeMeters>
            <DistanceMeters>NAN</DistanceMeters>
          </Trackpoint>
          <Trackpoint>
            <Time>2022-07-12T14:01:49.000Z</Time>
            <Position>
              <LatitudeDegrees>43.31152251921594142913818359375</LatitudeDegrees>
              <LongitudeDegrees>-3.0341196991503238677978515625</LongitudeDegrees>
            </Position>
            <AltitudeMeters>-21.799999237060546875</AltitudeMeters>
            <DistanceMeters>NAN</DistanceMeters>
          </Trackpoint>
          <Trackpoint>
            <Time>2022-07-12T14:01:57.000Z</Time>
            <Position>
              <LatitudeDegrees>43.3115432225167751312255859375</LatitudeDegrees>
              <LongitudeDegrees>-3.03435414098203182220458984375</LongitudeDegrees>
            </Position>
            <AltitudeMeters>-20.799999237060546875</AltitudeMeters>
            <DistanceMeters>NAN</DistanceMeters>
          </Trackpoint>
          <Trackpoint>
            <Time>2022-07-12T14:02:07.000Z</Time>
            <Position>
              <LatitudeDegrees>43.31151430495083332061767578125</LatitudeDegrees>
              <LongitudeDegrees>-3.03470953367650508880615234375</LongitudeDegrees>
            </Position>
            <AltitudeMeters>-21.3999996185302734375</AltitudeMeters>
            <DistanceMeters>NAN</DistanceMeters>
          </Trackpoint>
          <Trackpoint>
            <Time>2022-07-12T14:02:15.000Z</Time>
            <Position>
              <LatitudeDegrees>43.31147323362529277801513671875</LatitudeDegrees>
              <LongitudeDegrees>-3.03506341762840747833251953125</LongitudeDegrees>
            </Position>
            <AltitudeMeters>-21.6000003814697265625</AltitudeMeters>
            <DistanceMeters>NAN</DistanceMeters>
          </Trackpoint>
          <Trackpoint>
            <Time>2022-07-12T14:02:17.000Z</Time>
            <Position>
              <LatitudeDegrees>43.31146870739758014678955078125</LatitudeDegrees>
              <LongitudeDegrees>-3.0351567082107067108154296875</LongitudeDegrees>
            </Position>
            <AltitudeMeters>-21.3999996185302734375</AltitudeMeters>
            <DistanceMeters>NAN</DistanceMeters>
          </Trackpoint>
          <Trackpoint>
            <Time>2022-07-12T14:02:18.000Z</Time>
            <Position>
              <LatitudeDegrees>43.3114694617688655853271484375</LatitudeDegrees>
              <LongitudeDegrees>-3.03520021028816699981689453125</LongitudeDegrees>
            </Position>
            <AltitudeMeters>-21.6000003814697265625</AltitudeMeters>
            <DistanceMeters>NAN</DistanceMeters>
          </Trackpoint>
          <Trackpoint>
            <Time>2022-07-12T14:02:19.000Z</Time>
            <Position>
              <LatitudeDegrees>43.31146904267370700836181640625</LatitudeDegrees>
              <LongitudeDegrees>-3.03524413146078586578369140625</LongitudeDegrees>
            </Position>
            <AltitudeMeters>-21.6000003814697265625</AltitudeMeters>
            <DistanceMeters>NAN</DistanceMeters>
          </Trackpoint>
          <Trackpoint>
            <Time>2022-07-12T14:02:21.000Z</Time>
            <Position>
              <LatitudeDegrees>43.3114771731197834014892578125</LatitudeDegrees>
              <LongitudeDegrees>-3.03532384335994720458984375</LongitudeDegrees>
            </Position>
            <AltitudeMeters>-21.6000003814697265625</AltitudeMeters>
            <DistanceMeters>NAN</DistanceMeters>
          </Trackpoint>
          <Trackpoint>
            <Time>2022-07-12T14:02:22.000Z</Time>
            <Position>
              <LatitudeDegrees>43.311480693519115447998046875</LatitudeDegrees>
              <LongitudeDegrees>-3.0353582091629505157470703125</LongitudeDegrees>
            </Position>
            <AltitudeMeters>-21.799999237060546875</AltitudeMeters>
            <DistanceMeters>NAN</DistanceMeters>
          </Trackpoint>
          <Trackpoint>
            <Time>2022-07-12T14:02:25.000Z</Time>
            <Position>
              <LatitudeDegrees>43.3115086890757083892822265625</LatitudeDegrees>
              <LongitudeDegrees>-3.035472370684146881103515625</LongitudeDegrees>
            </Position>
            <AltitudeMeters>-22.200000762939453125</AltitudeMeters>
            <DistanceMeters>NAN</DistanceMeters>
          </Trackpoint>
          <Trackpoint>
            <Time>2022-07-12T14:02:31.000Z</Time>
            <Position>
              <LatitudeDegrees>43.31162922084331512451171875</LatitudeDegrees>
              <LongitudeDegrees>-3.03573799319565296173095703125</LongitudeDegrees>
            </Position>
            <AltitudeMeters>-22.200000762939453125</AltitudeMeters>
            <DistanceMeters>NAN</DistanceMeters>
          </Trackpoint>
          <Trackpoint>
            <Time>2022-07-12T14:02:34.000Z</Time>
            <Position>
              <LatitudeDegrees>43.31171396188437938690185546875</LatitudeDegrees>
              <LongitudeDegrees>-3.035906217992305755615234375</LongitudeDegrees>
            </Position>
            <AltitudeMeters>-22.799999237060546875</AltitudeMeters>
            <DistanceMeters>NAN</DistanceMeters>
          </Trackpoint>
          <Trackpoint>
            <Time>2022-07-12T14:02:37.000Z</Time>
            <Position>
              <LatitudeDegrees>43.3117930032312870025634765625</LatitudeDegrees>
              <LongitudeDegrees>-3.03611199371516704559326171875</LongitudeDegrees>
            </Position>
            <AltitudeMeters>-24</AltitudeMeters>
            <DistanceMeters>NAN</DistanceMeters>
          </Trackpoint>
          <Trackpoint>
            <Time>2022-07-12T14:02:44.000Z</Time>
            <Position>
              <LatitudeDegrees>43.3118898980319499969482421875</LatitudeDegrees>
              <LongitudeDegrees>-3.03664885461330413818359375</LongitudeDegrees>
            </Position>
            <AltitudeMeters>-24.799999237060546875</AltitudeMeters>
            <DistanceMeters>NAN</DistanceMeters>
          </Trackpoint>
          <Trackpoint>
            <Time>2022-07-12T14:02:48.000Z</Time>
            <Position>
              <LatitudeDegrees>43.31194706261157989501953125</LatitudeDegrees>
              <LongitudeDegrees>-3.03696359507739543914794921875</LongitudeDegrees>
            </Position>
            <AltitudeMeters>-25</AltitudeMeters>
            <DistanceMeters>NAN</DistanceMeters>
          </Trackpoint>
          <Trackpoint>
            <Time>2022-07-12T14:02:52.000Z</Time>
            <Position>
              <LatitudeDegrees>43.31201612949371337890625</LatitudeDegrees>
              <LongitudeDegrees>-3.03733541630208492279052734375</LongitudeDegrees>
            </Position>
            <AltitudeMeters>-25.6000003814697265625</AltitudeMeters>
            <DistanceMeters>NAN</DistanceMeters>
          </Trackpoint>
          <Trackpoint>
            <Time>2022-07-12T14:02:54.000Z</Time>
            <Position>
              <LatitudeDegrees>43.3120525069534778594970703125</LatitudeDegrees>
              <LongitudeDegrees>-3.03754077292978763580322265625</LongitudeDegrees>
            </Position>
            <AltitudeMeters>-26.3999996185302734375</AltitudeMeters>
            <DistanceMeters>NAN</DistanceMeters>
          </Trackpoint>
          <Trackpoint>
            <Time>2022-07-12T14:02:57.000Z</Time>
            <Position>
              <LatitudeDegrees>43.31211604177951812744140625</LatitudeDegrees>
              <LongitudeDegrees>-3.03782743401825428009033203125</LongitudeDegrees>
            </Position>
            <AltitudeMeters>-27.6000003814697265625</AltitudeMeters>
            <DistanceMeters>NAN</DistanceMeters>
          </Trackpoint>
          <Trackpoint>
            <Time>2022-07-12T14:02:59.000Z</Time>
            <Position>
              <LatitudeDegrees>43.31215091049671173095703125</LatitudeDegrees>
              <LongitudeDegrees>-3.037996329367160797119140625</LongitudeDegrees>
            </Position>
            <AltitudeMeters>-28</AltitudeMeters>
            <DistanceMeters>NAN</DistanceMeters>
          </Trackpoint>
          <Trackpoint>
            <Time>2022-07-12T14:03:02.000Z</Time>
            <Position>
              <LatitudeDegrees>43.31219223327934741973876953125</LatitudeDegrees>
              <LongitudeDegrees>-3.0382120795547962188720703125</LongitudeDegrees>
            </Position>
            <AltitudeMeters>-28</AltitudeMeters>
            <DistanceMeters>NAN</DistanceMeters>
          </Trackpoint>
          <Trackpoint>
            <Time>2022-07-12T14:03:04.000Z</Time>
            <Position>
              <LatitudeDegrees>43.312218971550464630126953125</LatitudeDegrees>
              <LongitudeDegrees>-3.03833353333175182342529296875</LongitudeDegrees>
            </Position>
            <AltitudeMeters>-27.799999237060546875</AltitudeMeters>
            <DistanceMeters>NAN</DistanceMeters>
          </Trackpoint>
          <Trackpoint>
            <Time>2022-07-12T14:03:11.000Z</Time>
            <Position>
              <LatitudeDegrees>43.31228443421423435211181640625</LatitudeDegrees>
              <LongitudeDegrees>-3.03867283277213573455810546875</LongitudeDegrees>
            </Position>
            <AltitudeMeters>-27</AltitudeMeters>
            <DistanceMeters>NAN</DistanceMeters>
          </Trackpoint>
          <Trackpoint>
            <Time>2022-07-12T14:03:17.000Z</Time>
            <Position>
              <LatitudeDegrees>43.31232600845396518707275390625</LatitudeDegrees>
              <LongitudeDegrees>-3.03889880888164043426513671875</LongitudeDegrees>
            </Position>
            <AltitudeMeters>-26.6000003814697265625</AltitudeMeters>
            <DistanceMeters>NAN</DistanceMeters>
          </Trackpoint>
          <Trackpoint>
            <Time>2022-07-12T14:03:25.000Z</Time>
            <Position>
              <LatitudeDegrees>43.31236892379820346832275390625</LatitudeDegrees>
              <LongitudeDegrees>-3.0391783453524112701416015625</LongitudeDegrees>
            </Position>
            <AltitudeMeters>-26.3999996185302734375</AltitudeMeters>
            <DistanceMeters>NAN</DistanceMeters>
          </Trackpoint>
          <Trackpoint>
            <Time>2022-07-12T14:03:31.000Z</Time>
            <Position>
              <LatitudeDegrees>43.31242181360721588134765625</LatitudeDegrees>
              <LongitudeDegrees>-3.03937993012368679046630859375</LongitudeDegrees>
            </Position>
            <AltitudeMeters>-26.200000762939453125</AltitudeMeters>
            <DistanceMeters>NAN</DistanceMeters>
          </Trackpoint>
          <Trackpoint>
            <Time>2022-07-12T14:03:32.000Z</Time>
            <Position>
              <LatitudeDegrees>43.31242793239653110504150390625</LatitudeDegrees>
              <LongitudeDegrees>-3.0394180677831172943115234375</LongitudeDegrees>
            </Position>
            <AltitudeMeters>-26.200000762939453125</AltitudeMeters>
            <DistanceMeters>NAN</DistanceMeters>
          </Trackpoint>
          <Trackpoint>
            <Time>2022-07-12T14:03:37.000Z</Time>
            <Position>
              <LatitudeDegrees>43.31245668232440948486328125</LatitudeDegrees>
              <LongitudeDegrees>-3.039596267044544219970703125</LongitudeDegrees>
            </Position>
            <AltitudeMeters>-25.6000003814697265625</AltitudeMeters>
            <DistanceMeters>NAN</DistanceMeters>
          </Trackpoint>
          <Trackpoint>
            <Time>2022-07-12T14:03:40.000Z</Time>
            <Position>
              <LatitudeDegrees>43.3124783076345920562744140625</LatitudeDegrees>
              <LongitudeDegrees>-3.03970816545188426971435546875</LongitudeDegrees>
            </Position>
            <AltitudeMeters>-25.6000003814697265625</AltitudeMeters>
            <DistanceMeters>NAN</DistanceMeters>
          </Trackpoint>
          <Trackpoint>
            <Time>2022-07-12T14:03:45.000Z</Time>
            <Position>
              <LatitudeDegrees>43.31253102980554103851318359375</LatitudeDegrees>
              <LongitudeDegrees>-3.03987379185855388641357421875</LongitudeDegrees>
            </Position>
            <AltitudeMeters>-25</AltitudeMeters>
            <DistanceMeters>NAN</DistanceMeters>
          </Trackpoint>
          <Trackpoint>
            <Time>2022-07-12T14:03:48.000Z</Time>
            <Position>
              <LatitudeDegrees>43.31256405450403690338134765625</LatitudeDegrees>
              <LongitudeDegrees>-3.0399850197136402130126953125</LongitudeDegrees>
            </Position>
            <AltitudeMeters>-24.799999237060546875</AltitudeMeters>
            <DistanceMeters>NAN</DistanceMeters>
          </Trackpoint>
          <Trackpoint>
            <Time>2022-07-12T14:03:51.000Z</Time>
            <Position>
              <LatitudeDegrees>43.312594480812549591064453125</LatitudeDegrees>
              <LongitudeDegrees>-3.04009155370295047760009765625</LongitudeDegrees>
            </Position>
            <AltitudeMeters>-24.799999237060546875</AltitudeMeters>
            <DistanceMeters>NAN</DistanceMeters>
          </Trackpoint>
          <Trackpoint>
            <Time>2022-07-12T14:03:54.000Z</Time>
            <Position>
              <LatitudeDegrees>43.3126261644065380096435546875</LatitudeDegrees>
              <LongitudeDegrees>-3.04019817151129245758056640625</LongitudeDegrees>
            </Position>
            <AltitudeMeters>-24.6000003814697265625</AltitudeMeters>
            <DistanceMeters>NAN</DistanceMeters>
          </Trackpoint>
          <Trackpoint>
            <Time>2022-07-12T14:03:56.000Z</Time>
            <Position>
              <LatitudeDegrees>43.312648795545101165771484375</LatitudeDegrees>
              <LongitudeDegrees>-3.04026857949793338775634765625</LongitudeDegrees>
            </Position>
            <AltitudeMeters>-24.3999996185302734375</AltitudeMeters>
            <DistanceMeters>NAN</DistanceMeters>
          </Trackpoint>
          <Trackpoint>
            <Time>2022-07-12T14:04:03.000Z</Time>
            <Position>
              <LatitudeDegrees>43.312731944024562835693359375</LatitudeDegrees>
              <LongitudeDegrees>-3.04048801772296428680419921875</LongitudeDegrees>
            </Position>
            <AltitudeMeters>-24.200000762939453125</AltitudeMeters>
            <DistanceMeters>NAN</DistanceMeters>
          </Trackpoint>
          <Trackpoint>
            <Time>2022-07-12T14:04:12.000Z</Time>
            <Position>
              <LatitudeDegrees>43.31281475722789764404296875</LatitudeDegrees>
              <LongitudeDegrees>-3.0407558195292949676513671875</LongitudeDegrees>
            </Position>
            <AltitudeMeters>-23.6000003814697265625</AltitudeMeters>
            <DistanceMeters>NAN</DistanceMeters>
          </Trackpoint>
          <Trackpoint>
            <Time>2022-07-12T14:04:16.000Z</Time>
            <Position>
              <LatitudeDegrees>43.31284702755510807037353515625</LatitudeDegrees>
              <LongitudeDegrees>-3.0408590845763683319091796875</LongitudeDegrees>
            </Position>
            <AltitudeMeters>-23.6000003814697265625</AltitudeMeters>
            <DistanceMeters>NAN</DistanceMeters>
          </Trackpoint>
          <Trackpoint>
            <Time>2022-07-12T14:04:19.000Z</Time>
            <Position>
              <LatitudeDegrees>43.31287108361721038818359375</LatitudeDegrees>
              <LongitudeDegrees>-3.04093577899038791656494140625</LongitudeDegrees>
            </Position>
            <AltitudeMeters>-23.200000762939453125</AltitudeMeters>
            <DistanceMeters>NAN</DistanceMeters>
          </Trackpoint>
          <Trackpoint>
            <Time>2022-07-12T14:04:25.000Z</Time>
            <Position>
              <LatitudeDegrees>43.31291626207530498504638671875</LatitudeDegrees>
              <LongitudeDegrees>-3.04107139818370342254638671875</LongitudeDegrees>
            </Position>
            <AltitudeMeters>-22.799999237060546875</AltitudeMeters>
            <DistanceMeters>NAN</DistanceMeters>
          </Trackpoint>
          <Trackpoint>
            <Time>2022-07-12T14:04:27.000Z</Time>
            <Position>
              <LatitudeDegrees>43.3129275776445865631103515625</LatitudeDegrees>
              <LongitudeDegrees>-3.04111531935632228851318359375</LongitudeDegrees>
            </Position>
            <AltitudeMeters>-22.6000003814697265625</AltitudeMeters>
            <DistanceMeters>NAN</DistanceMeters>
          </Trackpoint>
          <Trackpoint>
            <Time>2022-07-12T14:04:29.000Z</Time>
            <Position>
              <LatitudeDegrees>43.3129436708986759185791015625</LatitudeDegrees>
              <LongitudeDegrees>-3.041150271892547607421875</LongitudeDegrees>
            </Position>
            <AltitudeMeters>-22.3999996185302734375</AltitudeMeters>
            <DistanceMeters>NAN</DistanceMeters>
          </Trackpoint>
          <Trackpoint>
            <Time>2022-07-12T14:04:33.000Z</Time>
            <Position>
              <LatitudeDegrees>43.31297007389366626739501953125</LatitudeDegrees>
              <LongitudeDegrees>-3.04124121554195880889892578125</LongitudeDegrees>
            </Position>
            <AltitudeMeters>-21.799999237060546875</AltitudeMeters>
            <DistanceMeters>NAN</DistanceMeters>
          </Trackpoint>
          <Trackpoint>
            <Time>2022-07-12T14:04:37.000Z</Time>
            <Position>
              <LatitudeDegrees>43.31300293095409870147705078125</LatitudeDegrees>
              <LongitudeDegrees>-3.041338026523590087890625</LongitudeDegrees>
            </Position>
            <AltitudeMeters>-21.3999996185302734375</AltitudeMeters>
            <DistanceMeters>NAN</DistanceMeters>
          </Trackpoint>
          <Trackpoint>
            <Time>2022-07-12T14:04:40.000Z</Time>
            <Position>
              <LatitudeDegrees>43.313022963702678680419921875</LatitudeDegrees>
              <LongitudeDegrees>-3.04140575230121612548828125</LongitudeDegrees>
            </Position>
            <AltitudeMeters>-21.3999996185302734375</AltitudeMeters>
            <DistanceMeters>NAN</DistanceMeters>
          </Trackpoint>
          <Trackpoint>
            <Time>2022-07-12T14:04:43.000Z</Time>
            <Position>
              <LatitudeDegrees>43.31305003724992275238037109375</LatitudeDegrees>
              <LongitudeDegrees>-3.04147238843142986297607421875</LongitudeDegrees>
            </Position>
            <AltitudeMeters>-20.6000003814697265625</AltitudeMeters>
            <DistanceMeters>NAN</DistanceMeters>
          </Trackpoint>
          <Trackpoint>
            <Time>2022-07-12T14:04:44.000Z</Time>
            <Position>
              <LatitudeDegrees>43.31305749714374542236328125</LatitudeDegrees>
              <LongitudeDegrees>-3.04149250499904155731201171875</LongitudeDegrees>
            </Position>
            <AltitudeMeters>-20.3999996185302734375</AltitudeMeters>
            <DistanceMeters>NAN</DistanceMeters>
          </Trackpoint>
          <Trackpoint>
            <Time>2022-07-12T14:04:49.000Z</Time>
            <Position>
              <LatitudeDegrees>43.3130875043570995330810546875</LatitudeDegrees>
              <LongitudeDegrees>-3.041589148342609405517578125</LongitudeDegrees>
            </Position>
            <AltitudeMeters>-19.200000762939453125</AltitudeMeters>
            <DistanceMeters>NAN</DistanceMeters>
          </Trackpoint>
          <Trackpoint>
            <Time>2022-07-12T14:04:53.000Z</Time>
            <Position>
              <LatitudeDegrees>43.31310845911502838134765625</LatitudeDegrees>
              <LongitudeDegrees>-3.0416801758110523223876953125</LongitudeDegrees>
            </Position>
            <AltitudeMeters>-18.799999237060546875</AltitudeMeters>
            <DistanceMeters>NAN</DistanceMeters>
          </Trackpoint>
          <Trackpoint>
            <Time>2022-07-12T14:05:04.000Z</Time>
            <Position>
              <LatitudeDegrees>43.3131673000752925872802734375</LatitudeDegrees>
              <LongitudeDegrees>-3.04191092960536479949951171875</LongitudeDegrees>
            </Position>
            <AltitudeMeters>-18.200000762939453125</AltitudeMeters>
            <DistanceMeters>NAN</DistanceMeters>
          </Trackpoint>
          <Trackpoint>
            <Time>2022-07-12T14:05:15.000Z</Time>
            <Position>
              <LatitudeDegrees>43.313242904841899871826171875</LatitudeDegrees>
              <LongitudeDegrees>-3.0421452037990093231201171875</LongitudeDegrees>
            </Position>
            <AltitudeMeters>-17.3999996185302734375</AltitudeMeters>
            <DistanceMeters>NAN</DistanceMeters>
          </Trackpoint>
          <Trackpoint>
            <Time>2022-07-12T14:05:18.000Z</Time>
            <Position>
              <LatitudeDegrees>43.31326796673238277435302734375</LatitudeDegrees>
              <LongitudeDegrees>-3.04220513440668582916259765625</LongitudeDegrees>
            </Position>
            <AltitudeMeters>-17.200000762939453125</AltitudeMeters>
            <DistanceMeters>NAN</DistanceMeters>
          </Trackpoint>
          <Trackpoint>
            <Time>2022-07-12T14:05:25.000Z</Time>
            <Position>
              <LatitudeDegrees>43.313317336142063140869140625</LatitudeDegrees>
              <LongitudeDegrees>-3.04234041832387447357177734375</LongitudeDegrees>
            </Position>
            <AltitudeMeters>-16.799999237060546875</AltitudeMeters>
            <DistanceMeters>NAN</DistanceMeters>
          </Trackpoint>
          <Trackpoint>
            <Time>2022-07-12T14:05:33.000Z</Time>
            <Position>
              <LatitudeDegrees>43.31338338553905487060546875</LatitudeDegrees>
              <LongitudeDegrees>-3.04249648936092853546142578125</LongitudeDegrees>
            </Position>
            <AltitudeMeters>-16.200000762939453125</AltitudeMeters>
            <DistanceMeters>NAN</DistanceMeters>
          </Trackpoint>
          <Trackpoint>
            <Time>2022-07-12T14:05:34.000Z</Time>
            <Position>
              <LatitudeDegrees>43.3133895881474018096923828125</LatitudeDegrees>
              <LongitudeDegrees>-3.0425197072327136993408203125</LongitudeDegrees>
            </Position>
            <AltitudeMeters>-16.200000762939453125</AltitudeMeters>
            <DistanceMeters>NAN</DistanceMeters>
          </Trackpoint>
          <Trackpoint>
            <Time>2022-07-12T14:05:46.000Z</Time>
            <Position>
              <LatitudeDegrees>43.31347868777811527252197265625</LatitudeDegrees>
              <LongitudeDegrees>-3.04280561394989490509033203125</LongitudeDegrees>
            </Position>
            <AltitudeMeters>-15.80000019073486328125</AltitudeMeters>
            <DistanceMeters>NAN</DistanceMeters>
          </Trackpoint>
          <Trackpoint>
            <Time>2022-07-12T14:05:50.000Z</Time>
            <Position>
              <LatitudeDegrees>43.31351137720048427581787109375</LatitudeDegrees>
              <LongitudeDegrees>-3.04290988482534885406494140625</LongitudeDegrees>
            </Position>
            <AltitudeMeters>-15.6000003814697265625</AltitudeMeters>
            <DistanceMeters>NAN</DistanceMeters>
          </Trackpoint>
          <Trackpoint>
            <Time>2022-07-12T14:05:53.000Z</Time>
            <Position>
              <LatitudeDegrees>43.3135304041206836700439453125</LatitudeDegrees>
              <LongitudeDegrees>-3.04298968054354190826416015625</LongitudeDegrees>
            </Position>
            <AltitudeMeters>-15.3999996185302734375</AltitudeMeters>
            <DistanceMeters>NAN</DistanceMeters>
          </Trackpoint>
          <Trackpoint>
            <Time>2022-07-12T14:05:54.000Z</Time>
            <Position>
              <LatitudeDegrees>43.31354071386158466339111328125</LatitudeDegrees>
              <LongitudeDegrees>-3.04301097057759761810302734375</LongitudeDegrees>
            </Position>
            <AltitudeMeters>-15.3999996185302734375</AltitudeMeters>
            <DistanceMeters>NAN</DistanceMeters>
          </Trackpoint>
          <Trackpoint>
            <Time>2022-07-12T14:05:59.000Z</Time>
            <Position>
              <LatitudeDegrees>43.31356200389564037322998046875</LatitudeDegrees>
              <LongitudeDegrees>-3.0430695600807666778564453125</LongitudeDegrees>
            </Position>
            <AltitudeMeters>-15.80000019073486328125</AltitudeMeters>
            <DistanceMeters>NAN</DistanceMeters>
          </Trackpoint>
          <Trackpoint>
            <Time>2022-07-12T14:06:39.000Z</Time>
            <Position>
              <LatitudeDegrees>43.31357675604522228240966796875</LatitudeDegrees>
              <LongitudeDegrees>-3.04310384206473827362060546875</LongitudeDegrees>
            </Position>
            <AltitudeMeters>-15.3999996185302734375</AltitudeMeters>
            <DistanceMeters>NAN</DistanceMeters>
          </Trackpoint>
          <Trackpoint>
            <Time>2022-07-12T14:06:41.000Z</Time>
            <Position>
              <LatitudeDegrees>43.3135957829654216766357421875</LatitudeDegrees>
              <LongitudeDegrees>-3.04316720925271511077880859375</LongitudeDegrees>
            </Position>
            <AltitudeMeters>-15.19999980926513671875</AltitudeMeters>
            <DistanceMeters>NAN</DistanceMeters>
          </Trackpoint>
          <Trackpoint>
            <Time>2022-07-12T14:06:42.000Z</Time>
            <Position>
              <LatitudeDegrees>43.3136021532118320465087890625</LatitudeDegrees>
              <LongitudeDegrees>-3.0432040058076381683349609375</LongitudeDegrees>
            </Position>
            <AltitudeMeters>-15</AltitudeMeters>
            <DistanceMeters>NAN</DistanceMeters>
          </Trackpoint>
          <Trackpoint>
            <Time>2022-07-12T14:06:46.000Z</Time>
            <Position>
              <LatitudeDegrees>43.31362252123653888702392578125</LatitudeDegrees>
              <LongitudeDegrees>-3.043360412120819091796875</LongitudeDegrees>
            </Position>
            <AltitudeMeters>-15</AltitudeMeters>
            <DistanceMeters>NAN</DistanceMeters>
          </Trackpoint>
          <Trackpoint>
            <Time>2022-07-12T14:06:50.000Z</Time>
            <Position>
              <LatitudeDegrees>43.31363844685256481170654296875</LatitudeDegrees>
              <LongitudeDegrees>-3.0435081012547016143798828125</LongitudeDegrees>
            </Position>
            <AltitudeMeters>-15</AltitudeMeters>
            <DistanceMeters>NAN</DistanceMeters>
          </Trackpoint>
          <Trackpoint>
            <Time>2022-07-12T14:06:56.000Z</Time>
            <Position>
              <LatitudeDegrees>43.3136643469333648681640625</LatitudeDegrees>
              <LongitudeDegrees>-3.04374975152313709259033203125</LongitudeDegrees>
            </Position>
            <AltitudeMeters>-14.80000019073486328125</AltitudeMeters>
            <DistanceMeters>NAN</DistanceMeters>
          </Trackpoint>
          <Trackpoint>
            <Time>2022-07-12T14:07:01.000Z</Time>
            <Position>
              <LatitudeDegrees>43.313665688037872314453125</LatitudeDegrees>
              <LongitudeDegrees>-3.043970949947834014892578125</LongitudeDegrees>
            </Position>
            <AltitudeMeters>-14.6000003814697265625</AltitudeMeters>
            <DistanceMeters>NAN</DistanceMeters>
          </Trackpoint>
          <Trackpoint>
            <Time>2022-07-12T14:07:03.000Z</Time>
            <Position>
              <LatitudeDegrees>43.31365973688662052154541015625</LatitudeDegrees>
              <LongitudeDegrees>-3.04405636154115200042724609375</LongitudeDegrees>
            </Position>
            <AltitudeMeters>-14.6000003814697265625</AltitudeMeters>
            <DistanceMeters>NAN</DistanceMeters>
          </Trackpoint>
          <Trackpoint>
            <Time>2022-07-12T14:07:06.000Z</Time>
            <Position>
              <LatitudeDegrees>43.31365353427827358245849609375</LatitudeDegrees>
              <LongitudeDegrees>-3.0441850237548351287841796875</LongitudeDegrees>
            </Position>
            <AltitudeMeters>-14.3999996185302734375</AltitudeMeters>
            <DistanceMeters>NAN</DistanceMeters>
          </Trackpoint>
          <Trackpoint>
            <Time>2022-07-12T14:07:08.000Z</Time>
            <Position>
              <LatitudeDegrees>43.31365386955440044403076171875</LatitudeDegrees>
              <LongitudeDegrees>-3.0442778952419757843017578125</LongitudeDegrees>
            </Position>
            <AltitudeMeters>-14.3999996185302734375</AltitudeMeters>
            <DistanceMeters>NAN</DistanceMeters>
          </Trackpoint>
          <Trackpoint>
            <Time>2022-07-12T14:07:10.000Z</Time>
            <Position>
              <LatitudeDegrees>43.31364062614738941192626953125</LatitudeDegrees>
              <LongitudeDegrees>-3.04437495768070220947265625</LongitudeDegrees>
            </Position>
            <AltitudeMeters>-14.3999996185302734375</AltitudeMeters>
            <DistanceMeters>NAN</DistanceMeters>
          </Trackpoint>
          <Trackpoint>
            <Time>2022-07-12T14:07:13.000Z</Time>
            <Position>
              <LatitudeDegrees>43.31363291479647159576416015625</LatitudeDegrees>
              <LongitudeDegrees>-3.04451351054012775421142578125</LongitudeDegrees>
            </Position>
            <AltitudeMeters>-14.19999980926513671875</AltitudeMeters>
            <DistanceMeters>NAN</DistanceMeters>
          </Trackpoint>
          <Trackpoint>
            <Time>2022-07-12T14:07:20.000Z</Time>
            <Position>
              <LatitudeDegrees>43.31356552429497241973876953125</LatitudeDegrees>
              <LongitudeDegrees>-3.04485599510371685028076171875</LongitudeDegrees>
            </Position>
            <AltitudeMeters>-14.19999980926513671875</AltitudeMeters>
            <DistanceMeters>NAN</DistanceMeters>
          </Trackpoint>
          <Trackpoint>
            <Time>2022-07-12T14:07:23.000Z</Time>
            <Position>
              <LatitudeDegrees>43.31355881877243518829345703125</LatitudeDegrees>
              <LongitudeDegrees>-3.04500586353242397308349609375</LongitudeDegrees>
            </Position>
            <AltitudeMeters>-14</AltitudeMeters>
            <DistanceMeters>NAN</DistanceMeters>
          </Trackpoint>
          <Trackpoint>
            <Time>2022-07-12T14:07:30.000Z</Time>
            <Position>
              <LatitudeDegrees>43.3135518617928028106689453125</LatitudeDegrees>
              <LongitudeDegrees>-3.045357652008533477783203125</LongitudeDegrees>
            </Position>
            <AltitudeMeters>-13.80000019073486328125</AltitudeMeters>
            <DistanceMeters>NAN</DistanceMeters>
          </Trackpoint>
          <Trackpoint>
            <Time>2022-07-12T14:07:32.000Z</Time>
            <Position>
              <LatitudeDegrees>43.31355714239180088043212890625</LatitudeDegrees>
              <LongitudeDegrees>-3.04545991122722625732421875</LongitudeDegrees>
            </Position>
            <AltitudeMeters>-13.80000019073486328125</AltitudeMeters>
            <DistanceMeters>NAN</DistanceMeters>
          </Trackpoint>
          <Trackpoint>
            <Time>2022-07-12T14:07:38.000Z</Time>
            <Position>
              <LatitudeDegrees>43.3135931007564067840576171875</LatitudeDegrees>
              <LongitudeDegrees>-3.045747242867946624755859375</LongitudeDegrees>
            </Position>
            <AltitudeMeters>-13.3999996185302734375</AltitudeMeters>
            <DistanceMeters>NAN</DistanceMeters>
          </Trackpoint>
          <Trackpoint>
            <Time>2022-07-12T14:07:44.000Z</Time>
            <Position>
              <LatitudeDegrees>43.31366007216274738311767578125</LatitudeDegrees>
              <LongitudeDegrees>-3.04598721675574779510498046875</LongitudeDegrees>
            </Position>
            <AltitudeMeters>-13</AltitudeMeters>
            <DistanceMeters>NAN</DistanceMeters>
          </Trackpoint>
          <Trackpoint>
            <Time>2022-07-12T14:07:47.000Z</Time>
            <Position>
              <LatitudeDegrees>43.31370080821216106414794921875</LatitudeDegrees>
              <LongitudeDegrees>-3.04609349928796291351318359375</LongitudeDegrees>
            </Position>
            <AltitudeMeters>-13</AltitudeMeters>
            <DistanceMeters>NAN</DistanceMeters>
          </Trackpoint>
          <Trackpoint>
            <Time>2022-07-12T14:07:54.000Z</Time>
            <Position>
              <LatitudeDegrees>43.31380725838243961334228515625</LatitudeDegrees>
              <LongitudeDegrees>-3.04634009487926959991455078125</LongitudeDegrees>
            </Position>
            <AltitudeMeters>-13</AltitudeMeters>
            <DistanceMeters>NAN</DistanceMeters>
          </Trackpoint>
          <Trackpoint>
            <Time>2022-07-12T14:07:57.000Z</Time>
            <Position>
              <LatitudeDegrees>43.31385201774537563323974609375</LatitudeDegrees>
              <LongitudeDegrees>-3.0464427731931209564208984375</LongitudeDegrees>
            </Position>
            <AltitudeMeters>-12.6000003814697265625</AltitudeMeters>
            <DistanceMeters>NAN</DistanceMeters>
          </Trackpoint>
          <Trackpoint>
            <Time>2022-07-12T14:08:08.000Z</Time>
            <Position>
              <LatitudeDegrees>43.31401160918176174163818359375</LatitudeDegrees>
              <LongitudeDegrees>-3.046788610517978668212890625</LongitudeDegrees>
            </Position>
            <AltitudeMeters>-12.3999996185302734375</AltitudeMeters>
            <DistanceMeters>NAN</DistanceMeters>
          </Trackpoint>
          <Trackpoint>
            <Time>2022-07-12T14:08:16.000Z</Time>
            <Position>
              <LatitudeDegrees>43.31408637575805187225341796875</LatitudeDegrees>
              <LongitudeDegrees>-3.04702506400644779205322265625</LongitudeDegrees>
            </Position>
            <AltitudeMeters>-12.19999980926513671875</AltitudeMeters>
            <DistanceMeters>NAN</DistanceMeters>
          </Trackpoint>
          <Trackpoint>
            <Time>2022-07-12T14:08:18.000Z</Time>
            <Position>
              <LatitudeDegrees>43.3141057379543781280517578125</LatitudeDegrees>
              <LongitudeDegrees>-3.04708055220544338226318359375</LongitudeDegrees>
            </Position>
            <AltitudeMeters>-12</AltitudeMeters>
            <DistanceMeters>NAN</DistanceMeters>
          </Trackpoint>
          <Trackpoint>
            <Time>2022-07-12T14:08:27.000Z</Time>
            <Position>
              <LatitudeDegrees>43.31418092362582683563232421875</LatitudeDegrees>
              <LongitudeDegrees>-3.04734952747821807861328125</LongitudeDegrees>
            </Position>
            <AltitudeMeters>-12</AltitudeMeters>
            <DistanceMeters>NAN</DistanceMeters>
          </Trackpoint>
          <Trackpoint>
            <Time>2022-07-12T14:08:31.000Z</Time>
            <Position>
              <LatitudeDegrees>43.31420011818408966064453125</LatitudeDegrees>
              <LongitudeDegrees>-3.0474878288805484771728515625</LongitudeDegrees>
            </Position>
            <AltitudeMeters>-11.6000003814697265625</AltitudeMeters>
            <DistanceMeters>NAN</DistanceMeters>
          </Trackpoint>
          <Trackpoint>
            <Time>2022-07-12T14:08:35.000Z</Time>
            <Position>
              <LatitudeDegrees>43.3142147026956081390380859375</LatitudeDegrees>
              <LongitudeDegrees>-3.0476041696965694427490234375</LongitudeDegrees>
            </Position>
            <AltitudeMeters>-11.3999996185302734375</AltitudeMeters>
            <DistanceMeters>NAN</DistanceMeters>
          </Trackpoint>
          <Trackpoint>
            <Time>2022-07-12T14:08:41.000Z</Time>
            <Position>
              <LatitudeDegrees>43.31423054449260234832763671875</LatitudeDegrees>
              <LongitudeDegrees>-3.0478023178875446319580078125</LongitudeDegrees>
            </Position>
            <AltitudeMeters>-11.19999980926513671875</AltitudeMeters>
            <DistanceMeters>NAN</DistanceMeters>
          </Trackpoint>
          <Trackpoint>
            <Time>2022-07-12T14:08:42.000Z</Time>
            <Position>
              <LatitudeDegrees>43.31423222087323665618896484375</LatitudeDegrees>
              <LongitudeDegrees>-3.047828972339630126953125</LongitudeDegrees>
            </Position>
            <AltitudeMeters>-11.19999980926513671875</AltitudeMeters>
            <DistanceMeters>NAN</DistanceMeters>
          </Trackpoint>
          <Trackpoint>
            <Time>2022-07-12T14:08:43.000Z</Time>
            <Position>
              <LatitudeDegrees>43.3142321370542049407958984375</LatitudeDegrees>
              <LongitudeDegrees>-3.0478596501052379608154296875</LongitudeDegrees>
            </Position>
            <AltitudeMeters>-11</AltitudeMeters>
            <DistanceMeters>NAN</DistanceMeters>
          </Trackpoint>
          <Trackpoint>
            <Time>2022-07-12T14:08:48.000Z</Time>
            <Position>
              <LatitudeDegrees>43.314221240580081939697265625</LatitudeDegrees>
              <LongitudeDegrees>-3.048028461635112762451171875</LongitudeDegrees>
            </Position>
            <AltitudeMeters>-11</AltitudeMeters>
            <DistanceMeters>NAN</DistanceMeters>
          </Trackpoint>
          <Trackpoint>
            <Time>2022-07-12T14:08:51.000Z</Time>
            <Position>
              <LatitudeDegrees>43.31421554088592529296875</LatitudeDegrees>
              <LongitudeDegrees>-3.04813466034829616546630859375</LongitudeDegrees>
            </Position>
            <AltitudeMeters>-10.80000019073486328125</AltitudeMeters>
            <DistanceMeters>NAN</DistanceMeters>
          </Trackpoint>
          <Trackpoint>
            <Time>2022-07-12T14:09:00.000Z</Time>
            <Position>
              <LatitudeDegrees>43.31418092362582683563232421875</LatitudeDegrees>
              <LongitudeDegrees>-3.048431463539600372314453125</LongitudeDegrees>
            </Position>
            <AltitudeMeters>-10.3999996185302734375</AltitudeMeters>
            <DistanceMeters>NAN</DistanceMeters>
          </Trackpoint>
          <Trackpoint>
            <Time>2022-07-12T14:09:11.000Z</Time>
            <Position>
              <LatitudeDegrees>43.3141201548278331756591796875</LatitudeDegrees>
              <LongitudeDegrees>-3.048788197338581085205078125</LongitudeDegrees>
            </Position>
            <AltitudeMeters>-10.19999980926513671875</AltitudeMeters>
            <DistanceMeters>NAN</DistanceMeters>
          </Trackpoint>
          <Trackpoint>
            <Time>2022-07-12T14:09:15.000Z</Time>
            <Position>
              <LatitudeDegrees>43.3141067437827587127685546875</LatitudeDegrees>
              <LongitudeDegrees>-3.04892658255994319915771484375</LongitudeDegrees>
            </Position>
            <AltitudeMeters>-10</AltitudeMeters>
            <DistanceMeters>NAN</DistanceMeters>
          </Trackpoint>
          <Trackpoint>
            <Time>2022-07-12T14:09:18.000Z</Time>
            <Position>
              <LatitudeDegrees>43.314100205898284912109375</LatitudeDegrees>
              <LongitudeDegrees>-3.04902297444641590118408203125</LongitudeDegrees>
            </Position>
            <AltitudeMeters>-10</AltitudeMeters>
            <DistanceMeters>NAN</DistanceMeters>
          </Trackpoint>
          <Trackpoint>
            <Time>2022-07-12T14:09:29.000Z</Time>
            <Position>
              <LatitudeDegrees>43.31411018036305904388427734375</LatitudeDegrees>
              <LongitudeDegrees>-3.0494032613933086395263671875</LongitudeDegrees>
            </Position>
            <AltitudeMeters>-9.6000003814697265625</AltitudeMeters>
            <DistanceMeters>NAN</DistanceMeters>
          </Trackpoint>
          <Trackpoint>
            <Time>2022-07-12T14:09:38.000Z</Time>
            <Position>
              <LatitudeDegrees>43.31415594555437564849853515625</LatitudeDegrees>
              <LongitudeDegrees>-3.0496979691088199615478515625</LongitudeDegrees>
            </Position>
            <AltitudeMeters>-9.19999980926513671875</AltitudeMeters>
            <DistanceMeters>NAN</DistanceMeters>
          </Trackpoint>
          <Trackpoint>
            <Time>2022-07-12T14:09:45.000Z</Time>
            <Position>
              <LatitudeDegrees>43.3142207376658916473388671875</LatitudeDegrees>
              <LongitudeDegrees>-3.04992319084703922271728515625</LongitudeDegrees>
            </Position>
            <AltitudeMeters>-9.19999980926513671875</AltitudeMeters>
            <DistanceMeters>NAN</DistanceMeters>
          </Trackpoint>
          <Trackpoint>
            <Time>2022-07-12T14:09:48.000Z</Time>
            <Position>
              <LatitudeDegrees>43.31426004879176616668701171875</LatitudeDegrees>
              <LongitudeDegrees>-3.05001698434352874755859375</LongitudeDegrees>
            </Position>
            <AltitudeMeters>-9</AltitudeMeters>
            <DistanceMeters>NAN</DistanceMeters>
          </Trackpoint>
          <Trackpoint>
            <Time>2022-07-12T14:09:51.000Z</Time>
            <Position>
              <LatitudeDegrees>43.314306735992431640625</LatitudeDegrees>
              <LongitudeDegrees>-3.05010440759360790252685546875</LongitudeDegrees>
            </Position>
            <AltitudeMeters>-9</AltitudeMeters>
            <DistanceMeters>NAN</DistanceMeters>
          </Trackpoint>
          <Trackpoint>
            <Time>2022-07-12T14:09:57.000Z</Time>
            <Position>
              <LatitudeDegrees>43.314398266375064849853515625</LatitudeDegrees>
              <LongitudeDegrees>-3.0502642504870891571044921875</LongitudeDegrees>
            </Position>
            <AltitudeMeters>-8.80000019073486328125</AltitudeMeters>
            <DistanceMeters>NAN</DistanceMeters>
          </Trackpoint>
          <Trackpoint>
            <Time>2022-07-12T14:10:02.000Z</Time>
            <Position>
              <LatitudeDegrees>43.3144775591790676116943359375</LatitudeDegrees>
              <LongitudeDegrees>-3.0504017136991024017333984375</LongitudeDegrees>
            </Position>
            <AltitudeMeters>-8.80000019073486328125</AltitudeMeters>
            <DistanceMeters>NAN</DistanceMeters>
          </Trackpoint>
          <Trackpoint>
            <Time>2022-07-12T14:10:07.000Z</Time>
            <Position>
              <LatitudeDegrees>43.314563222229480743408203125</LatitudeDegrees>
              <LongitudeDegrees>-3.05051931180059909820556640625</LongitudeDegrees>
            </Position>
            <AltitudeMeters>-8.6000003814697265625</AltitudeMeters>
            <DistanceMeters>NAN</DistanceMeters>
          </Trackpoint>
          <Trackpoint>
            <Time>2022-07-12T14:10:15.000Z</Time>
            <Position>
              <LatitudeDegrees>43.31470328383147716522216796875</LatitudeDegrees>
              <LongitudeDegrees>-3.05069751106202602386474609375</LongitudeDegrees>
            </Position>
            <AltitudeMeters>-8</AltitudeMeters>
            <DistanceMeters>NAN</DistanceMeters>
          </Trackpoint>
          <Trackpoint>
            <Time>2022-07-12T14:10:17.000Z</Time>
            <Position>
              <LatitudeDegrees>43.31472876481711864471435546875</LatitudeDegrees>
              <LongitudeDegrees>-3.05073958821594715118408203125</LongitudeDegrees>
            </Position>
            <AltitudeMeters>-8</AltitudeMeters>
            <DistanceMeters>NAN</DistanceMeters>
          </Trackpoint>
          <Trackpoint>
            <Time>2022-07-12T14:10:27.000Z</Time>
            <Position>
              <LatitudeDegrees>43.31488810479640960693359375</LatitudeDegrees>
              <LongitudeDegrees>-3.05097612552344799041748046875</LongitudeDegrees>
            </Position>
            <AltitudeMeters>-7.599999904632568359375</AltitudeMeters>
            <DistanceMeters>NAN</DistanceMeters>
          </Trackpoint>
          <Trackpoint>
            <Time>2022-07-12T14:10:38.000Z</Time>
            <Position>
              <LatitudeDegrees>43.3150193654000759124755859375</LatitudeDegrees>
              <LongitudeDegrees>-3.0512868426740169525146484375</LongitudeDegrees>
            </Position>
            <AltitudeMeters>-7.19999980926513671875</AltitudeMeters>
            <DistanceMeters>NAN</DistanceMeters>
          </Trackpoint>
          <Trackpoint>
            <Time>2022-07-12T14:10:40.000Z</Time>
            <Position>
              <LatitudeDegrees>43.31503973342478275299072265625</LatitudeDegrees>
              <LongitudeDegrees>-3.05135096423327922821044921875</LongitudeDegrees>
            </Position>
            <AltitudeMeters>-7</AltitudeMeters>
            <DistanceMeters>NAN</DistanceMeters>
          </Trackpoint>
          <Trackpoint>
            <Time>2022-07-12T14:10:49.000Z</Time>
            <Position>
              <LatitudeDegrees>43.31511877477169036865234375</LatitudeDegrees>
              <LongitudeDegrees>-3.05164047516882419586181640625</LongitudeDegrees>
            </Position>
            <AltitudeMeters>-6.599999904632568359375</AltitudeMeters>
            <DistanceMeters>NAN</DistanceMeters>
          </Trackpoint>
          <Trackpoint>
            <Time>2022-07-12T14:11:01.000Z</Time>
            <Position>
              <LatitudeDegrees>43.31515138037502765655517578125</LatitudeDegrees>
              <LongitudeDegrees>-3.05205948650836944580078125</LongitudeDegrees>
            </Position>
            <AltitudeMeters>-6.19999980926513671875</AltitudeMeters>
            <DistanceMeters>NAN</DistanceMeters>
          </Trackpoint>
          <Trackpoint>
            <Time>2022-07-12T14:11:06.000Z</Time>
            <Position>
              <LatitudeDegrees>43.3151417411863803863525390625</LatitudeDegrees>
              <LongitudeDegrees>-3.05222134105861186981201171875</LongitudeDegrees>
            </Position>
            <AltitudeMeters>-6</AltitudeMeters>
            <DistanceMeters>NAN</DistanceMeters>
          </Trackpoint>
          <Trackpoint>
            <Time>2022-07-12T14:11:10.000Z</Time>
            <Position>
              <LatitudeDegrees>43.31512925215065479278564453125</LatitudeDegrees>
              <LongitudeDegrees>-3.052363581955432891845703125</LongitudeDegrees>
            </Position>
            <AltitudeMeters>-5.599999904632568359375</AltitudeMeters>
            <DistanceMeters>NAN</DistanceMeters>
          </Trackpoint>
          <Trackpoint>
            <Time>2022-07-12T14:11:15.000Z</Time>
            <Position>
              <LatitudeDegrees>43.31510293297469615936279296875</LatitudeDegrees>
              <LongitudeDegrees>-3.052537925541400909423828125</LongitudeDegrees>
            </Position>
            <AltitudeMeters>-5.400000095367431640625</AltitudeMeters>
            <DistanceMeters>NAN</DistanceMeters>
          </Trackpoint>
          <Trackpoint>
            <Time>2022-07-12T14:11:20.000Z</Time>
            <Position>
              <LatitudeDegrees>43.315053395926952362060546875</LatitudeDegrees>
              <LongitudeDegrees>-3.05271738208830356597900390625</LongitudeDegrees>
            </Position>
            <AltitudeMeters>-5.19999980926513671875</AltitudeMeters>
            <DistanceMeters>NAN</DistanceMeters>
          </Trackpoint>
          <Trackpoint>
            <Time>2022-07-12T14:11:30.000Z</Time>
            <Position>
              <LatitudeDegrees>43.3149147592484951019287109375</LatitudeDegrees>
              <LongitudeDegrees>-3.0530510656535625457763671875</LongitudeDegrees>
            </Position>
            <AltitudeMeters>-5</AltitudeMeters>
            <DistanceMeters>NAN</DistanceMeters>
          </Trackpoint>
          <Trackpoint>
            <Time>2022-07-12T14:11:33.000Z</Time>
            <Position>
              <LatitudeDegrees>43.31487611867487430572509765625</LatitudeDegrees>
              <LongitudeDegrees>-3.05314519442617893218994140625</LongitudeDegrees>
            </Position>
            <AltitudeMeters>-4.80000019073486328125</AltitudeMeters>
            <DistanceMeters>NAN</DistanceMeters>
          </Trackpoint>
          <Trackpoint>
            <Time>2022-07-12T14:11:37.000Z</Time>
            <Position>
              <LatitudeDegrees>43.314840495586395263671875</LatitudeDegrees>
              <LongitudeDegrees>-3.05328047834336757659912109375</LongitudeDegrees>
            </Position>
            <AltitudeMeters>-4.80000019073486328125</AltitudeMeters>
            <DistanceMeters>NAN</DistanceMeters>
          </Trackpoint>
          <Trackpoint>
            <Time>2022-07-12T14:11:45.000Z</Time>
            <Position>
              <LatitudeDegrees>43.31481702625751495361328125</LatitudeDegrees>
              <LongitudeDegrees>-3.053593374788761138916015625</LongitudeDegrees>
            </Position>
            <AltitudeMeters>-4.599999904632568359375</AltitudeMeters>
            <DistanceMeters>NAN</DistanceMeters>
          </Trackpoint>
          <Trackpoint>
            <Time>2022-07-12T14:11:53.000Z</Time>
            <Position>
              <LatitudeDegrees>43.31488986499607563018798828125</LatitudeDegrees>
              <LongitudeDegrees>-3.0538952909409999847412109375</LongitudeDegrees>
            </Position>
            <AltitudeMeters>-4.400000095367431640625</AltitudeMeters>
            <DistanceMeters>NAN</DistanceMeters>
          </Trackpoint>
          <Trackpoint>
            <Time>2022-07-12T14:12:01.000Z</Time>
            <Position>
              <LatitudeDegrees>43.3149684034287929534912109375</LatitudeDegrees>
              <LongitudeDegrees>-3.0541514419019222259521484375</LongitudeDegrees>
            </Position>
            <AltitudeMeters>-3.7999999523162841796875</AltitudeMeters>
            <DistanceMeters>NAN</DistanceMeters>
          </Trackpoint>
          <Trackpoint>
            <Time>2022-07-12T14:12:09.000Z</Time>
            <Position>
              <LatitudeDegrees>43.31502263434231281280517578125</LatitudeDegrees>
              <LongitudeDegrees>-3.0543703772127628326416015625</LongitudeDegrees>
            </Position>
            <AltitudeMeters>-3.400000095367431640625</AltitudeMeters>
            <DistanceMeters>NAN</DistanceMeters>
          </Trackpoint>
          <Trackpoint>
            <Time>2022-07-12T14:12:11.000Z</Time>
            <Position>
              <LatitudeDegrees>43.31503034569323062896728515625</LatitudeDegrees>
              <LongitudeDegrees>-3.05442410521209239959716796875</LongitudeDegrees>
            </Position>
            <AltitudeMeters>-3.400000095367431640625</AltitudeMeters>
            <DistanceMeters>NAN</DistanceMeters>
          </Trackpoint>
          <Trackpoint>
            <Time>2022-07-12T14:12:14.000Z</Time>
            <Position>
              <LatitudeDegrees>43.31501819193363189697265625</LatitudeDegrees>
              <LongitudeDegrees>-3.054472468793392181396484375</LongitudeDegrees>
            </Position>
            <AltitudeMeters>-3.400000095367431640625</AltitudeMeters>
            <DistanceMeters>NAN</DistanceMeters>
          </Trackpoint>
          <Trackpoint>
            <Time>2022-07-12T14:12:20.000Z</Time>
            <Position>
              <LatitudeDegrees>43.3150233887135982513427734375</LatitudeDegrees>
              <LongitudeDegrees>-3.0545098520815372467041015625</LongitudeDegrees>
            </Position>
            <AltitudeMeters>-3.2000000476837158203125</AltitudeMeters>
            <DistanceMeters>NAN</DistanceMeters>
          </Trackpoint>
          <Trackpoint>
            <Time>2022-07-12T14:19:18.000Z</Time>
            <Position>
              <LatitudeDegrees>43.31508482806384563446044921875</LatitudeDegrees>
              <LongitudeDegrees>-3.05461353622376918792724609375</LongitudeDegrees>
            </Position>
            <AltitudeMeters>6</AltitudeMeters>
            <DistanceMeters>NAN</DistanceMeters>
          </Trackpoint>
          <Trackpoint>
            <Time>2022-07-12T14:19:19.000Z</Time>
            <Position>
              <LatitudeDegrees>43.31510066986083984375</LatitudeDegrees>
              <LongitudeDegrees>-3.05462476797401905059814453125</LongitudeDegrees>
            </Position>
            <AltitudeMeters>6</AltitudeMeters>
            <DistanceMeters>NAN</DistanceMeters>
          </Trackpoint>
          <Trackpoint>
            <Time>2022-07-12T14:19:21.000Z</Time>
            <Position>
              <LatitudeDegrees>43.31512489356100559234619140625</LatitudeDegrees>
              <LongitudeDegrees>-3.0546645820140838623046875</LongitudeDegrees>
            </Position>
            <AltitudeMeters>6</AltitudeMeters>
            <DistanceMeters>NAN</DistanceMeters>
          </Trackpoint>
          <Trackpoint>
            <Time>2022-07-12T14:19:24.000Z</Time>
            <Position>
              <LatitudeDegrees>43.31514802761375904083251953125</LatitudeDegrees>
              <LongitudeDegrees>-3.0546976067125797271728515625</LongitudeDegrees>
            </Position>
            <AltitudeMeters>6.19999980926513671875</AltitudeMeters>
            <DistanceMeters>NAN</DistanceMeters>
          </Trackpoint>
          <Trackpoint>
            <Time>2022-07-12T14:19:31.000Z</Time>
            <Position>
              <LatitudeDegrees>43.3152024261653423309326171875</LatitudeDegrees>
              <LongitudeDegrees>-3.0548960901796817779541015625</LongitudeDegrees>
            </Position>
            <AltitudeMeters>6.80000019073486328125</AltitudeMeters>
            <DistanceMeters>NAN</DistanceMeters>
          </Trackpoint>
          <Trackpoint>
            <Time>2022-07-12T14:19:35.000Z</Time>
            <Position>
              <LatitudeDegrees>43.31525950692594051361083984375</LatitudeDegrees>
              <LongitudeDegrees>-3.0549876205623149871826171875</LongitudeDegrees>
            </Position>
            <AltitudeMeters>7.19999980926513671875</AltitudeMeters>
            <DistanceMeters>NAN</DistanceMeters>
          </Trackpoint>
          <Trackpoint>
            <Time>2022-07-12T14:19:39.000Z</Time>
            <Position>
              <LatitudeDegrees>43.31533242948353290557861328125</LatitudeDegrees>
              <LongitudeDegrees>-3.05506632663309574127197265625</LongitudeDegrees>
            </Position>
            <AltitudeMeters>7.400000095367431640625</AltitudeMeters>
            <DistanceMeters>NAN</DistanceMeters>
          </Trackpoint>
          <Trackpoint>
            <Time>2022-07-12T14:19:46.000Z</Time>
            <Position>
              <LatitudeDegrees>43.31549051217734813690185546875</LatitudeDegrees>
              <LongitudeDegrees>-3.055175878107547760009765625</LongitudeDegrees>
            </Position>
            <AltitudeMeters>7.80000019073486328125</AltitudeMeters>
            <DistanceMeters>NAN</DistanceMeters>
          </Trackpoint>
          <Trackpoint>
            <Time>2022-07-12T14:19:48.000Z</Time>
            <Position>
              <LatitudeDegrees>43.3155346848070621490478515625</LatitudeDegrees>
              <LongitudeDegrees>-3.0552005209028720855712890625</LongitudeDegrees>
            </Position>
            <AltitudeMeters>8</AltitudeMeters>
            <DistanceMeters>NAN</DistanceMeters>
          </Trackpoint>
          <Trackpoint>
            <Time>2022-07-12T14:19:54.000Z</Time>
            <Position>
              <LatitudeDegrees>43.31568681634962558746337890625</LatitudeDegrees>
              <LongitudeDegrees>-3.05526481010019779205322265625</LongitudeDegrees>
            </Position>
            <AltitudeMeters>8</AltitudeMeters>
            <DistanceMeters>NAN</DistanceMeters>
          </Trackpoint>
          <Trackpoint>
            <Time>2022-07-12T14:19:57.000Z</Time>
            <Position>
              <LatitudeDegrees>43.31574951298534870147705078125</LatitudeDegrees>
              <LongitudeDegrees>-3.0552900396287441253662109375</LongitudeDegrees>
            </Position>
            <AltitudeMeters>8.19999980926513671875</AltitudeMeters>
            <DistanceMeters>NAN</DistanceMeters>
          </Trackpoint>
          <Trackpoint>
            <Time>2022-07-12T14:19:58.000Z</Time>
            <Position>
              <LatitudeDegrees>43.31577616743743419647216796875</LatitudeDegrees>
              <LongitudeDegrees>-3.05530588142573833465576171875</LongitudeDegrees>
            </Position>
            <AltitudeMeters>8.19999980926513671875</AltitudeMeters>
            <DistanceMeters>NAN</DistanceMeters>
          </Trackpoint>
          <Trackpoint>
            <Time>2022-07-12T14:19:59.000Z</Time>
            <Position>
              <LatitudeDegrees>43.3157988823950290679931640625</LatitudeDegrees>
              <LongitudeDegrees>-3.05532281287014484405517578125</LongitudeDegrees>
            </Position>
            <AltitudeMeters>8.19999980926513671875</AltitudeMeters>
            <DistanceMeters>NAN</DistanceMeters>
          </Trackpoint>
          <Trackpoint>
            <Time>2022-07-12T14:20:02.000Z</Time>
            <Position>
              <LatitudeDegrees>43.3158609084784984588623046875</LatitudeDegrees>
              <LongitudeDegrees>-3.05535483174026012420654296875</LongitudeDegrees>
            </Position>
            <AltitudeMeters>8.3999996185302734375</AltitudeMeters>
            <DistanceMeters>NAN</DistanceMeters>
          </Trackpoint>
          <Trackpoint>
            <Time>2022-07-12T14:20:03.000Z</Time>
            <Position>
              <LatitudeDegrees>43.31588144414126873016357421875</LatitudeDegrees>
              <LongitudeDegrees>-3.05536757223308086395263671875</LongitudeDegrees>
            </Position>
            <AltitudeMeters>8.3999996185302734375</AltitudeMeters>
            <DistanceMeters>NAN</DistanceMeters>
          </Trackpoint>
          <Trackpoint>
            <Time>2022-07-12T14:20:04.000Z</Time>
            <Position>
              <LatitudeDegrees>43.31590072251856327056884765625</LatitudeDegrees>
              <LongitudeDegrees>-3.05538450367748737335205078125</LongitudeDegrees>
            </Position>
            <AltitudeMeters>8.3999996185302734375</AltitudeMeters>
            <DistanceMeters>NAN</DistanceMeters>
          </Trackpoint>
          <Trackpoint>
            <Time>2022-07-12T14:20:06.000Z</Time>
            <Position>
              <LatitudeDegrees>43.31594682298600673675537109375</LatitudeDegrees>
              <LongitudeDegrees>-3.05541451089084148406982421875</LongitudeDegrees>
            </Position>
            <AltitudeMeters>8.3999996185302734375</AltitudeMeters>
            <DistanceMeters>NAN</DistanceMeters>
          </Trackpoint>
          <Trackpoint>
            <Time>2022-07-12T14:20:07.000Z</Time>
            <Position>
              <LatitudeDegrees>43.31597045995295047760009765625</LatitudeDegrees>
              <LongitudeDegrees>-3.0554285086691379547119140625</LongitudeDegrees>
            </Position>
            <AltitudeMeters>8.3999996185302734375</AltitudeMeters>
            <DistanceMeters>NAN</DistanceMeters>
          </Trackpoint>
          <Trackpoint>
            <Time>2022-07-12T14:20:08.000Z</Time>
            <Position>
              <LatitudeDegrees>43.3159993775188922882080078125</LatitudeDegrees>
              <LongitudeDegrees>-3.05544577538967132568359375</LongitudeDegrees>
            </Position>
            <AltitudeMeters>8.3999996185302734375</AltitudeMeters>
            <DistanceMeters>NAN</DistanceMeters>
          </Trackpoint>
          <Trackpoint>
            <Time>2022-07-12T14:20:09.000Z</Time>
            <Position>
              <LatitudeDegrees>43.31602158956229686737060546875</LatitudeDegrees>
              <LongitudeDegrees>-3.05545994080603122711181640625</LongitudeDegrees>
            </Position>
            <AltitudeMeters>8.3999996185302734375</AltitudeMeters>
            <DistanceMeters>NAN</DistanceMeters>
          </Trackpoint>
          <Trackpoint>
            <Time>2022-07-12T14:20:10.000Z</Time>
            <Position>
              <LatitudeDegrees>43.31604271195828914642333984375</LatitudeDegrees>
              <LongitudeDegrees>-3.05547502823173999786376953125</LongitudeDegrees>
            </Position>
            <AltitudeMeters>8.3999996185302734375</AltitudeMeters>
            <DistanceMeters>NAN</DistanceMeters>
          </Trackpoint>
          <Trackpoint>
            <Time>2022-07-12T14:20:11.000Z</Time>
            <Position>
              <LatitudeDegrees>43.31605930812656879425048828125</LatitudeDegrees>
              <LongitudeDegrees>-3.0554898642003536224365234375</LongitudeDegrees>
            </Position>
            <AltitudeMeters>8.3999996185302734375</AltitudeMeters>
            <DistanceMeters>NAN</DistanceMeters>
          </Trackpoint>
          <Trackpoint>
            <Time>2022-07-12T14:20:19.000Z</Time>
            <Position>
              <LatitudeDegrees>43.3162119425833225250244140625</LatitudeDegrees>
              <LongitudeDegrees>-3.055645935237407684326171875</LongitudeDegrees>
            </Position>
            <AltitudeMeters>8.3999996185302734375</AltitudeMeters>
            <DistanceMeters>NAN</DistanceMeters>
          </Trackpoint>
          <Trackpoint>
            <Time>2022-07-12T14:20:22.000Z</Time>
            <Position>
              <LatitudeDegrees>43.31624421291053295135498046875</LatitudeDegrees>
              <LongitudeDegrees>-3.055689521133899688720703125</LongitudeDegrees>
            </Position>
            <AltitudeMeters>8.3999996185302734375</AltitudeMeters>
            <DistanceMeters>NAN</DistanceMeters>
          </Trackpoint>
          <Trackpoint>
            <Time>2022-07-12T14:20:29.000Z</Time>
            <Position>
              <LatitudeDegrees>43.316376395523548126220703125</LatitudeDegrees>
              <LongitudeDegrees>-3.05588641203939914703369140625</LongitudeDegrees>
            </Position>
            <AltitudeMeters>8.6000003814697265625</AltitudeMeters>
            <DistanceMeters>NAN</DistanceMeters>
          </Trackpoint>
          <Trackpoint>
            <Time>2022-07-12T14:20:37.000Z</Time>
            <Position>
              <LatitudeDegrees>43.31646532751619815826416015625</LatitudeDegrees>
              <LongitudeDegrees>-3.0561738274991512298583984375</LongitudeDegrees>
            </Position>
            <AltitudeMeters>8.80000019073486328125</AltitudeMeters>
            <DistanceMeters>NAN</DistanceMeters>
          </Trackpoint>
          <Trackpoint>
            <Time>2022-07-12T14:20:43.000Z</Time>
            <Position>
              <LatitudeDegrees>43.3165361545979976654052734375</LatitudeDegrees>
              <LongitudeDegrees>-3.05637088604271411895751953125</LongitudeDegrees>
            </Position>
            <AltitudeMeters>8.80000019073486328125</AltitudeMeters>
            <DistanceMeters>NAN</DistanceMeters>
          </Trackpoint>
          <Trackpoint>
            <Time>2022-07-12T14:20:44.000Z</Time>
            <Position>
              <LatitudeDegrees>43.316546380519866943359375</LatitudeDegrees>
              <LongitudeDegrees>-3.0564048327505588531494140625</LongitudeDegrees>
            </Position>
            <AltitudeMeters>9</AltitudeMeters>
            <DistanceMeters>NAN</DistanceMeters>
          </Trackpoint>
          <Trackpoint>
            <Time>2022-07-12T14:20:51.000Z</Time>
            <Position>
              <LatitudeDegrees>43.3166112564504146575927734375</LatitudeDegrees>
              <LongitudeDegrees>-3.05664011277258396148681640625</LongitudeDegrees>
            </Position>
            <AltitudeMeters>9.19999980926513671875</AltitudeMeters>
            <DistanceMeters>NAN</DistanceMeters>
          </Trackpoint>
          <Trackpoint>
            <Time>2022-07-12T14:20:52.000Z</Time>
            <Position>
              <LatitudeDegrees>43.3166189678013324737548828125</LatitudeDegrees>
              <LongitudeDegrees>-3.05667498148977756500244140625</LongitudeDegrees>
            </Position>
            <AltitudeMeters>9.19999980926513671875</AltitudeMeters>
            <DistanceMeters>NAN</DistanceMeters>
          </Trackpoint>
          <Trackpoint>
            <Time>2022-07-12T14:20:59.000Z</Time>
            <Position>
              <LatitudeDegrees>43.31668660975992679595947265625</LatitudeDegrees>
              <LongitudeDegrees>-3.05689760483801364898681640625</LongitudeDegrees>
            </Position>
            <AltitudeMeters>9.80000019073486328125</AltitudeMeters>
            <DistanceMeters>NAN</DistanceMeters>
          </Trackpoint>
          <Trackpoint>
            <Time>2022-07-12T14:21:04.000Z</Time>
            <Position>
              <LatitudeDegrees>43.316743187606334686279296875</LatitudeDegrees>
              <LongitudeDegrees>-3.05699835531413555145263671875</LongitudeDegrees>
            </Position>
            <AltitudeMeters>10.19999980926513671875</AltitudeMeters>
            <DistanceMeters>NAN</DistanceMeters>
          </Trackpoint>
          <Trackpoint>
            <Time>2022-07-12T14:21:05.000Z</Time>
            <Position>
              <LatitudeDegrees>43.3167517371475696563720703125</LatitudeDegrees>
              <LongitudeDegrees>-3.057017885148525238037109375</LongitudeDegrees>
            </Position>
            <AltitudeMeters>10.3999996185302734375</AltitudeMeters>
            <DistanceMeters>NAN</DistanceMeters>
          </Trackpoint>
          <Trackpoint>
            <Time>2022-07-12T14:21:12.000Z</Time>
            <Position>
              <LatitudeDegrees>43.31680320203304290771484375</LatitudeDegrees>
              <LongitudeDegrees>-3.05715593509376049041748046875</LongitudeDegrees>
            </Position>
            <AltitudeMeters>11</AltitudeMeters>
            <DistanceMeters>NAN</DistanceMeters>
          </Trackpoint>
          <Trackpoint>
            <Time>2022-07-12T14:21:14.000Z</Time>
            <Position>
              <LatitudeDegrees>43.316819630563259124755859375</LatitudeDegrees>
              <LongitudeDegrees>-3.05719516240060329437255859375</LongitudeDegrees>
            </Position>
            <AltitudeMeters>11.19999980926513671875</AltitudeMeters>
            <DistanceMeters>NAN</DistanceMeters>
          </Trackpoint>
          <Trackpoint>
            <Time>2022-07-12T14:21:20.000Z</Time>
            <Position>
              <LatitudeDegrees>43.31686095334589481353759765625</LatitudeDegrees>
              <LongitudeDegrees>-3.05732625536620616912841796875</LongitudeDegrees>
            </Position>
            <AltitudeMeters>12</AltitudeMeters>
            <DistanceMeters>NAN</DistanceMeters>
          </Trackpoint>
          <Trackpoint>
            <Time>2022-07-12T14:21:24.000Z</Time>
            <Position>
              <LatitudeDegrees>43.3168949000537395477294921875</LatitudeDegrees>
              <LongitudeDegrees>-3.05740554817020893096923828125</LongitudeDegrees>
            </Position>
            <AltitudeMeters>12.19999980926513671875</AltitudeMeters>
            <DistanceMeters>NAN</DistanceMeters>
          </Trackpoint>
          <Trackpoint>
            <Time>2022-07-12T14:21:25.000Z</Time>
            <Position>
              <LatitudeDegrees>43.31690168939530849456787109375</LatitudeDegrees>
              <LongitudeDegrees>-3.0574230663478374481201171875</LongitudeDegrees>
            </Position>
            <AltitudeMeters>12.19999980926513671875</AltitudeMeters>
            <DistanceMeters>NAN</DistanceMeters>
          </Trackpoint>
          <Trackpoint>
            <Time>2022-07-12T14:21:28.000Z</Time>
            <Position>
              <LatitudeDegrees>43.3169240690767765045166015625</LatitudeDegrees>
              <LongitudeDegrees>-3.05748467333614826202392578125</LongitudeDegrees>
            </Position>
            <AltitudeMeters>12.3999996185302734375</AltitudeMeters>
            <DistanceMeters>NAN</DistanceMeters>
          </Trackpoint>
          <Trackpoint>
            <Time>2022-07-12T14:21:30.000Z</Time>
            <Position>
              <LatitudeDegrees>43.31693337298929691314697265625</LatitudeDegrees>
              <LongitudeDegrees>-3.057523481547832489013671875</LongitudeDegrees>
            </Position>
            <AltitudeMeters>12.6000003814697265625</AltitudeMeters>
            <DistanceMeters>NAN</DistanceMeters>
          </Trackpoint>
          <Trackpoint>
            <Time>2022-07-12T14:21:35.000Z</Time>
            <Position>
              <LatitudeDegrees>43.31697360612452030181884765625</LatitudeDegrees>
              <LongitudeDegrees>-3.057617358863353729248046875</LongitudeDegrees>
            </Position>
            <AltitudeMeters>13</AltitudeMeters>
            <DistanceMeters>NAN</DistanceMeters>
          </Trackpoint>
          <Trackpoint>
            <Time>2022-07-12T14:21:41.000Z</Time>
            <Position>
              <LatitudeDegrees>43.31702155061066150665283203125</LatitudeDegrees>
              <LongitudeDegrees>-3.05773101747035980224609375</LongitudeDegrees>
            </Position>
            <AltitudeMeters>13.3999996185302734375</AltitudeMeters>
            <DistanceMeters>NAN</DistanceMeters>
          </Trackpoint>
          <Trackpoint>
            <Time>2022-07-12T14:21:44.000Z</Time>
            <Position>
              <LatitudeDegrees>43.31703294999897480010986328125</LatitudeDegrees>
              <LongitudeDegrees>-3.0577915348112583160400390625</LongitudeDegrees>
            </Position>
            <AltitudeMeters>13.6000003814697265625</AltitudeMeters>
            <DistanceMeters>NAN</DistanceMeters>
          </Trackpoint>
          <Trackpoint>
            <Time>2022-07-12T14:21:50.000Z</Time>
            <Position>
              <LatitudeDegrees>43.3170668967068195343017578125</LatitudeDegrees>
              <LongitudeDegrees>-3.0579045228660106658935546875</LongitudeDegrees>
            </Position>
            <AltitudeMeters>14</AltitudeMeters>
            <DistanceMeters>NAN</DistanceMeters>
          </Trackpoint>
          <Trackpoint>
            <Time>2022-07-12T14:21:53.000Z</Time>
            <Position>
              <LatitudeDegrees>43.317069746553897857666015625</LatitudeDegrees>
              <LongitudeDegrees>-3.05796059779822826385498046875</LongitudeDegrees>
            </Position>
            <AltitudeMeters>14.19999980926513671875</AltitudeMeters>
            <DistanceMeters>NAN</DistanceMeters>
          </Trackpoint>
          <Trackpoint>
            <Time>2022-07-12T14:21:55.000Z</Time>
            <Position>
              <LatitudeDegrees>43.31706999801099300384521484375</LatitudeDegrees>
              <LongitudeDegrees>-3.05800887756049633026123046875</LongitudeDegrees>
            </Position>
            <AltitudeMeters>14.3999996185302734375</AltitudeMeters>
            <DistanceMeters>NAN</DistanceMeters>
          </Trackpoint>
          <Trackpoint>
            <Time>2022-07-12T14:21:59.000Z</Time>
            <Position>
              <LatitudeDegrees>43.317071758210659027099609375</LatitudeDegrees>
              <LongitudeDegrees>-3.05809437297284603118896484375</LongitudeDegrees>
            </Position>
            <AltitudeMeters>14.80000019073486328125</AltitudeMeters>
            <DistanceMeters>NAN</DistanceMeters>
          </Trackpoint>
          <Trackpoint>
            <Time>2022-07-12T14:22:01.000Z</Time>
            <Position>
              <LatitudeDegrees>43.3170679025352001190185546875</LatitudeDegrees>
              <LongitudeDegrees>-3.0581442452967166900634765625</LongitudeDegrees>
            </Position>
            <AltitudeMeters>15</AltitudeMeters>
            <DistanceMeters>NAN</DistanceMeters>
          </Trackpoint>
          <Trackpoint>
            <Time>2022-07-12T14:22:05.000Z</Time>
            <Position>
              <LatitudeDegrees>43.31705776043236255645751953125</LatitudeDegrees>
              <LongitudeDegrees>-3.0582240410149097442626953125</LongitudeDegrees>
            </Position>
            <AltitudeMeters>15.3999996185302734375</AltitudeMeters>
            <DistanceMeters>NAN</DistanceMeters>
          </Trackpoint>
          <Trackpoint>
            <Time>2022-07-12T14:22:06.000Z</Time>
            <Position>
              <LatitudeDegrees>43.317057006061077117919921875</LatitudeDegrees>
              <LongitudeDegrees>-3.0582458339631557464599609375</LongitudeDegrees>
            </Position>
            <AltitudeMeters>15.6000003814697265625</AltitudeMeters>
            <DistanceMeters>NAN</DistanceMeters>
          </Trackpoint>
          <Trackpoint>
            <Time>2022-07-12T14:22:07.000Z</Time>
            <Position>
              <LatitudeDegrees>43.3170544914901256561279296875</LatitudeDegrees>
              <LongitudeDegrees>-3.05826335214078426361083984375</LongitudeDegrees>
            </Position>
            <AltitudeMeters>15.80000019073486328125</AltitudeMeters>
            <DistanceMeters>NAN</DistanceMeters>
          </Trackpoint>
          <Trackpoint>
            <Time>2022-07-12T14:22:09.000Z</Time>
            <Position>
              <LatitudeDegrees>43.3170541562139987945556640625</LatitudeDegrees>
              <LongitudeDegrees>-3.058300651609897613525390625</LongitudeDegrees>
            </Position>
            <AltitudeMeters>16</AltitudeMeters>
            <DistanceMeters>NAN</DistanceMeters>
          </Trackpoint>
          <Trackpoint>
            <Time>2022-07-12T14:22:16.000Z</Time>
            <Position>
              <LatitudeDegrees>43.31704803742468357086181640625</LatitudeDegrees>
              <LongitudeDegrees>-3.05843668989837169647216796875</LongitudeDegrees>
            </Position>
            <AltitudeMeters>16.3999996185302734375</AltitudeMeters>
            <DistanceMeters>NAN</DistanceMeters>
          </Trackpoint>
          <Trackpoint>
            <Time>2022-07-12T14:22:17.000Z</Time>
            <Position>
              <LatitudeDegrees>43.31704719923436641693115234375</LatitudeDegrees>
              <LongitudeDegrees>-3.05845345370471477508544921875</LongitudeDegrees>
            </Position>
            <AltitudeMeters>16.6000003814697265625</AltitudeMeters>
            <DistanceMeters>NAN</DistanceMeters>
          </Trackpoint>
          <Trackpoint>
            <Time>2022-07-12T14:22:23.000Z</Time>
            <Position>
              <LatitudeDegrees>43.3170353807508945465087890625</LatitudeDegrees>
              <LongitudeDegrees>-3.0585676990449428558349609375</LongitudeDegrees>
            </Position>
            <AltitudeMeters>17.200000762939453125</AltitudeMeters>
            <DistanceMeters>NAN</DistanceMeters>
          </Trackpoint>
          <Trackpoint>
            <Time>2022-07-12T14:22:26.000Z</Time>
            <Position>
              <LatitudeDegrees>43.31702892668545246124267578125</LatitudeDegrees>
              <LongitudeDegrees>-3.05862897075712680816650390625</LongitudeDegrees>
            </Position>
            <AltitudeMeters>17.6000003814697265625</AltitudeMeters>
            <DistanceMeters>NAN</DistanceMeters>
          </Trackpoint>
          <Trackpoint>
            <Time>2022-07-12T14:22:30.000Z</Time>
            <Position>
              <LatitudeDegrees>43.31702590920031070709228515625</LatitudeDegrees>
              <LongitudeDegrees>-3.058694936335086822509765625</LongitudeDegrees>
            </Position>
            <AltitudeMeters>17.6000003814697265625</AltitudeMeters>
            <DistanceMeters>NAN</DistanceMeters>
          </Trackpoint>
          <Trackpoint>
            <Time>2022-07-12T14:22:32.000Z</Time>
            <Position>
              <LatitudeDegrees>43.31703010015189647674560546875</LatitudeDegrees>
              <LongitudeDegrees>-3.05873282253742218017578125</LongitudeDegrees>
            </Position>
            <AltitudeMeters>17.799999237060546875</AltitudeMeters>
            <DistanceMeters>NAN</DistanceMeters>
          </Trackpoint>
          <Trackpoint>
            <Time>2022-07-12T14:22:38.000Z</Time>
            <Position>
              <LatitudeDegrees>43.31701685674488544464111328125</LatitudeDegrees>
              <LongitudeDegrees>-3.05886584334075450897216796875</LongitudeDegrees>
            </Position>
            <AltitudeMeters>18.6000003814697265625</AltitudeMeters>
            <DistanceMeters>NAN</DistanceMeters>
          </Trackpoint>
          <Trackpoint>
            <Time>2022-07-12T14:22:41.000Z</Time>
            <Position>
              <LatitudeDegrees>43.31701450981199741363525390625</LatitudeDegrees>
              <LongitudeDegrees>-3.05892569012939929962158203125</LongitudeDegrees>
            </Position>
            <AltitudeMeters>18.799999237060546875</AltitudeMeters>
            <DistanceMeters>NAN</DistanceMeters>
          </Trackpoint>
          <Trackpoint>
            <Time>2022-07-12T14:22:47.000Z</Time>
            <Position>
              <LatitudeDegrees>43.316997997462749481201171875</LatitudeDegrees>
              <LongitudeDegrees>-3.0590521730482578277587890625</LongitudeDegrees>
            </Position>
            <AltitudeMeters>19.6000003814697265625</AltitudeMeters>
            <DistanceMeters>NAN</DistanceMeters>
          </Trackpoint>
          <Trackpoint>
            <Time>2022-07-12T14:22:51.000Z</Time>
            <Position>
              <LatitudeDegrees>43.316991962492465972900390625</LatitudeDegrees>
              <LongitudeDegrees>-3.059113025665283203125</LongitudeDegrees>
            </Position>
            <AltitudeMeters>19.799999237060546875</AltitudeMeters>
            <DistanceMeters>NAN</DistanceMeters>
          </Trackpoint>
          <Trackpoint>
            <Time>2022-07-12T14:22:57.000Z</Time>
            <Position>
              <LatitudeDegrees>43.31700528971850872039794921875</LatitudeDegrees>
              <LongitudeDegrees>-3.05929684080183506011962890625</LongitudeDegrees>
            </Position>
            <AltitudeMeters>19.799999237060546875</AltitudeMeters>
            <DistanceMeters>NAN</DistanceMeters>
          </Trackpoint>
          <Trackpoint>
            <Time>2022-07-12T14:23:02.000Z</Time>
            <Position>
              <LatitudeDegrees>43.31711425445973873138427734375</LatitudeDegrees>
              <LongitudeDegrees>-3.05939356796443462371826171875</LongitudeDegrees>
            </Position>
            <AltitudeMeters>19</AltitudeMeters>
            <DistanceMeters>NAN</DistanceMeters>
          </Trackpoint>
          <Trackpoint>
            <Time>2022-07-12T14:23:04.000Z</Time>
            <Position>
              <LatitudeDegrees>43.31716320477426052093505859375</LatitudeDegrees>
              <LongitudeDegrees>-3.05943229235708713531494140625</LongitudeDegrees>
            </Position>
            <AltitudeMeters>18.799999237060546875</AltitudeMeters>
            <DistanceMeters>NAN</DistanceMeters>
          </Trackpoint>
          <Trackpoint>
            <Time>2022-07-12T14:23:09.000Z</Time>
            <Position>
              <LatitudeDegrees>43.31729312427341938018798828125</LatitudeDegrees>
              <LongitudeDegrees>-3.0595359764993190765380859375</LongitudeDegrees>
            </Position>
            <AltitudeMeters>18.6000003814697265625</AltitudeMeters>
            <DistanceMeters>NAN</DistanceMeters>
          </Trackpoint>
          <Trackpoint>
            <Time>2022-07-12T14:23:14.000Z</Time>
            <Position>
              <LatitudeDegrees>43.31743762828409671783447265625</LatitudeDegrees>
              <LongitudeDegrees>-3.05965223349630832672119140625</LongitudeDegrees>
            </Position>
            <AltitudeMeters>18</AltitudeMeters>
            <DistanceMeters>NAN</DistanceMeters>
          </Trackpoint>
          <Trackpoint>
            <Time>2022-07-12T14:23:22.000Z</Time>
            <Position>
              <LatitudeDegrees>43.31765270791947841644287109375</LatitudeDegrees>
              <LongitudeDegrees>-3.0598772875964641571044921875</LongitudeDegrees>
            </Position>
            <AltitudeMeters>18.200000762939453125</AltitudeMeters>
            <DistanceMeters>NAN</DistanceMeters>
          </Trackpoint>
          <Trackpoint>
            <Time>2022-07-12T14:23:25.000Z</Time>
            <Position>
              <LatitudeDegrees>43.31765321083366870880126953125</LatitudeDegrees>
              <LongitudeDegrees>-3.0600392259657382965087890625</LongitudeDegrees>
            </Position>
            <AltitudeMeters>17.799999237060546875</AltitudeMeters>
            <DistanceMeters>NAN</DistanceMeters>
          </Trackpoint>
          <Trackpoint>
            <Time>2022-07-12T14:23:26.000Z</Time>
            <Position>
              <LatitudeDegrees>43.3176345191895961761474609375</LatitudeDegrees>
              <LongitudeDegrees>-3.060092367231845855712890625</LongitudeDegrees>
            </Position>
            <AltitudeMeters>17.799999237060546875</AltitudeMeters>
            <DistanceMeters>NAN</DistanceMeters>
          </Trackpoint>
          <Trackpoint>
            <Time>2022-07-12T14:23:30.000Z</Time>
            <Position>
              <LatitudeDegrees>43.31752547062933444976806640625</LatitudeDegrees>
              <LongitudeDegrees>-3.06035513989627361297607421875</LongitudeDegrees>
            </Position>
            <AltitudeMeters>17.6000003814697265625</AltitudeMeters>
            <DistanceMeters>NAN</DistanceMeters>
          </Trackpoint>
          <Trackpoint>
            <Time>2022-07-12T14:23:31.000Z</Time>
            <Position>
              <LatitudeDegrees>43.317495882511138916015625</LatitudeDegrees>
              <LongitudeDegrees>-3.06042890064418315887451171875</LongitudeDegrees>
            </Position>
            <AltitudeMeters>17.3999996185302734375</AltitudeMeters>
            <DistanceMeters>NAN</DistanceMeters>
          </Trackpoint>
          <Trackpoint>
            <Time>2022-07-12T14:23:32.000Z</Time>
            <Position>
              <LatitudeDegrees>43.31746931187808513641357421875</LatitudeDegrees>
              <LongitudeDegrees>-3.060510791838169097900390625</LongitudeDegrees>
            </Position>
            <AltitudeMeters>17.200000762939453125</AltitudeMeters>
            <DistanceMeters>NAN</DistanceMeters>
          </Trackpoint>
          <Trackpoint>
            <Time>2022-07-12T14:23:35.000Z</Time>
            <Position>
              <LatitudeDegrees>43.31741633825004100799560546875</LatitudeDegrees>
              <LongitudeDegrees>-3.06076233275234699249267578125</LongitudeDegrees>
            </Position>
            <AltitudeMeters>16.799999237060546875</AltitudeMeters>
            <DistanceMeters>NAN</DistanceMeters>
          </Trackpoint>
          <Trackpoint>
            <Time>2022-07-12T14:23:37.000Z</Time>
            <Position>
              <LatitudeDegrees>43.317399322986602783203125</LatitudeDegrees>
              <LongitudeDegrees>-3.06092108599841594696044921875</LongitudeDegrees>
            </Position>
            <AltitudeMeters>16.3999996185302734375</AltitudeMeters>
            <DistanceMeters>NAN</DistanceMeters>
          </Trackpoint>
          <Trackpoint>
            <Time>2022-07-12T14:23:39.000Z</Time>
            <Position>
              <LatitudeDegrees>43.317375518381595611572265625</LatitudeDegrees>
              <LongitudeDegrees>-3.0610549449920654296875</LongitudeDegrees>
            </Position>
            <AltitudeMeters>15.3999996185302734375</AltitudeMeters>
            <DistanceMeters>NAN</DistanceMeters>
          </Trackpoint>
          <Trackpoint>
            <Time>2022-07-12T14:23:40.000Z</Time>
            <Position>
              <LatitudeDegrees>43.31735565327107906341552734375</LatitudeDegrees>
              <LongitudeDegrees>-3.06111873127520084381103515625</LongitudeDegrees>
            </Position>
            <AltitudeMeters>15.19999980926513671875</AltitudeMeters>
            <DistanceMeters>NAN</DistanceMeters>
          </Trackpoint>
          <Trackpoint>
            <Time>2022-07-12T14:23:45.000Z</Time>
            <Position>
              <LatitudeDegrees>43.31731005571782588958740234375</LatitudeDegrees>
              <LongitudeDegrees>-3.06139851920306682586669921875</LongitudeDegrees>
            </Position>
            <AltitudeMeters>15.19999980926513671875</AltitudeMeters>
            <DistanceMeters>NAN</DistanceMeters>
          </Trackpoint>
          <Trackpoint>
            <Time>2022-07-12T14:23:50.000Z</Time>
            <Position>
              <LatitudeDegrees>43.317267559468746185302734375</LatitudeDegrees>
              <LongitudeDegrees>-3.06163740344345569610595703125</LongitudeDegrees>
            </Position>
            <AltitudeMeters>15.80000019073486328125</AltitudeMeters>
            <DistanceMeters>NAN</DistanceMeters>
          </Trackpoint>
          <Trackpoint>
            <Time>2022-07-12T14:23:52.000Z</Time>
            <Position>
              <LatitudeDegrees>43.31725783646106719970703125</LatitudeDegrees>
              <LongitudeDegrees>-3.06173446588218212127685546875</LongitudeDegrees>
            </Position>
            <AltitudeMeters>16</AltitudeMeters>
            <DistanceMeters>NAN</DistanceMeters>
          </Trackpoint>
          <Trackpoint>
            <Time>2022-07-12T14:23:57.000Z</Time>
            <Position>
              <LatitudeDegrees>43.31723813898861408233642578125</LatitudeDegrees>
              <LongitudeDegrees>-3.0619355477392673492431640625</LongitudeDegrees>
            </Position>
            <AltitudeMeters>16.3999996185302734375</AltitudeMeters>
            <DistanceMeters>NAN</DistanceMeters>
          </Trackpoint>
          <Trackpoint>
            <Time>2022-07-12T14:23:58.000Z</Time>
            <Position>
              <LatitudeDegrees>43.31723637878894805908203125</LatitudeDegrees>
              <LongitudeDegrees>-3.061969578266143798828125</LongitudeDegrees>
            </Position>
            <AltitudeMeters>16.3999996185302734375</AltitudeMeters>
            <DistanceMeters>NAN</DistanceMeters>
          </Trackpoint>
          <Trackpoint>
            <Time>2022-07-12T14:24:03.000Z</Time>
            <Position>
              <LatitudeDegrees>43.317225314676761627197265625</LatitudeDegrees>
              <LongitudeDegrees>-3.06213377974927425384521484375</LongitudeDegrees>
            </Position>
            <AltitudeMeters>16.799999237060546875</AltitudeMeters>
            <DistanceMeters>NAN</DistanceMeters>
          </Trackpoint>
          <Trackpoint>
            <Time>2022-07-12T14:24:05.000Z</Time>
            <Position>
              <LatitudeDegrees>43.3172184415161609649658203125</LatitudeDegrees>
              <LongitudeDegrees>-3.0621987394988536834716796875</LongitudeDegrees>
            </Position>
            <AltitudeMeters>17</AltitudeMeters>
            <DistanceMeters>NAN</DistanceMeters>
          </Trackpoint>
          <Trackpoint>
            <Time>2022-07-12T14:24:09.000Z</Time>
            <Position>
              <LatitudeDegrees>43.31721936352550983428955078125</LatitudeDegrees>
              <LongitudeDegrees>-3.06233025155961513519287109375</LongitudeDegrees>
            </Position>
            <AltitudeMeters>17.3999996185302734375</AltitudeMeters>
            <DistanceMeters>NAN</DistanceMeters>
          </Trackpoint>
          <Trackpoint>
            <Time>2022-07-12T14:24:10.000Z</Time>
            <Position>
              <LatitudeDegrees>43.3172217942774295806884765625</LatitudeDegrees>
              <LongitudeDegrees>-3.06236612610518932342529296875</LongitudeDegrees>
            </Position>
            <AltitudeMeters>17.3999996185302734375</AltitudeMeters>
            <DistanceMeters>NAN</DistanceMeters>
          </Trackpoint>
          <Trackpoint>
            <Time>2022-07-12T14:24:14.000Z</Time>
            <Position>
              <LatitudeDegrees>43.3172357082366943359375</LatitudeDegrees>
              <LongitudeDegrees>-3.06251431815326213836669921875</LongitudeDegrees>
            </Position>
            <AltitudeMeters>17.6000003814697265625</AltitudeMeters>
            <DistanceMeters>NAN</DistanceMeters>
          </Trackpoint>
          <Trackpoint>
            <Time>2022-07-12T14:24:22.000Z</Time>
            <Position>
              <LatitudeDegrees>43.31726462580263614654541015625</LatitudeDegrees>
              <LongitudeDegrees>-3.062819503247737884521484375</LongitudeDegrees>
            </Position>
            <AltitudeMeters>17.799999237060546875</AltitudeMeters>
            <DistanceMeters>NAN</DistanceMeters>
          </Trackpoint>
          <Trackpoint>
            <Time>2022-07-12T14:24:31.000Z</Time>
            <Position>
              <LatitudeDegrees>43.317397646605968475341796875</LatitudeDegrees>
              <LongitudeDegrees>-3.0631931684911251068115234375</LongitudeDegrees>
            </Position>
            <AltitudeMeters>17.3999996185302734375</AltitudeMeters>
            <DistanceMeters>NAN</DistanceMeters>
          </Trackpoint>
          <Trackpoint>
            <Time>2022-07-12T14:24:34.000Z</Time>
            <Position>
              <LatitudeDegrees>43.3174910210072994232177734375</LatitudeDegrees>
              <LongitudeDegrees>-3.06329190731048583984375</LongitudeDegrees>
            </Position>
            <AltitudeMeters>17.200000762939453125</AltitudeMeters>
            <DistanceMeters>NAN</DistanceMeters>
          </Trackpoint>
          <Trackpoint>
            <Time>2022-07-12T14:24:37.000Z</Time>
            <Position>
              <LatitudeDegrees>43.3175818808376789093017578125</LatitudeDegrees>
              <LongitudeDegrees>-3.06338670663535594940185546875</LongitudeDegrees>
            </Position>
            <AltitudeMeters>16.799999237060546875</AltitudeMeters>
            <DistanceMeters>NAN</DistanceMeters>
          </Trackpoint>
          <Trackpoint>
            <Time>2022-07-12T14:24:44.000Z</Time>
            <Position>
              <LatitudeDegrees>43.317780531942844390869140625</LatitudeDegrees>
              <LongitudeDegrees>-3.06358736939728260040283203125</LongitudeDegrees>
            </Position>
            <AltitudeMeters>17.200000762939453125</AltitudeMeters>
            <DistanceMeters>NAN</DistanceMeters>
          </Trackpoint>
          <Trackpoint>
            <Time>2022-07-12T14:24:52.000Z</Time>
            <Position>
              <LatitudeDegrees>43.317969627678394317626953125</LatitudeDegrees>
              <LongitudeDegrees>-3.06379616260528564453125</LongitudeDegrees>
            </Position>
            <AltitudeMeters>17.6000003814697265625</AltitudeMeters>
            <DistanceMeters>NAN</DistanceMeters>
          </Trackpoint>
          <Trackpoint>
            <Time>2022-07-12T14:24:53.000Z</Time>
            <Position>
              <LatitudeDegrees>43.31799686886370182037353515625</LatitudeDegrees>
              <LongitudeDegrees>-3.063819296658039093017578125</LongitudeDegrees>
            </Position>
            <AltitudeMeters>17.799999237060546875</AltitudeMeters>
            <DistanceMeters>NAN</DistanceMeters>
          </Trackpoint>
          <Trackpoint>
            <Time>2022-07-12T14:24:59.000Z</Time>
            <Position>
              <LatitudeDegrees>43.31813919357955455780029296875</LatitudeDegrees>
              <LongitudeDegrees>-3.06397796608507633209228515625</LongitudeDegrees>
            </Position>
            <AltitudeMeters>18</AltitudeMeters>
            <DistanceMeters>NAN</DistanceMeters>
          </Trackpoint>
          <Trackpoint>
            <Time>2022-07-12T14:25:03.000Z</Time>
            <Position>
              <LatitudeDegrees>43.31823776476085186004638671875</LatitudeDegrees>
              <LongitudeDegrees>-3.064086176455020904541015625</LongitudeDegrees>
            </Position>
            <AltitudeMeters>18.200000762939453125</AltitudeMeters>
            <DistanceMeters>NAN</DistanceMeters>
          </Trackpoint>
          <Trackpoint>
            <Time>2022-07-12T14:25:06.000Z</Time>
            <Position>
              <LatitudeDegrees>43.31832191906869411468505859375</LatitudeDegrees>
              <LongitudeDegrees>-3.064165972173213958740234375</LongitudeDegrees>
            </Position>
            <AltitudeMeters>18.6000003814697265625</AltitudeMeters>
            <DistanceMeters>NAN</DistanceMeters>
          </Trackpoint>
          <Trackpoint>
            <Time>2022-07-12T14:25:10.000Z</Time>
            <Position>
              <LatitudeDegrees>43.31842484883964061737060546875</LatitudeDegrees>
              <LongitudeDegrees>-3.06428373791277408599853515625</LongitudeDegrees>
            </Position>
            <AltitudeMeters>18.799999237060546875</AltitudeMeters>
            <DistanceMeters>NAN</DistanceMeters>
          </Trackpoint>
          <Trackpoint>
            <Time>2022-07-12T14:25:13.000Z</Time>
            <Position>
              <LatitudeDegrees>43.31850347109138965606689453125</LatitudeDegrees>
              <LongitudeDegrees>-3.06436068378388881683349609375</LongitudeDegrees>
            </Position>
            <AltitudeMeters>19.200000762939453125</AltitudeMeters>
            <DistanceMeters>NAN</DistanceMeters>
          </Trackpoint>
          <Trackpoint>
            <Time>2022-07-12T14:25:17.000Z</Time>
            <Position>
              <LatitudeDegrees>43.31861092709004878997802734375</LatitudeDegrees>
              <LongitudeDegrees>-3.06447115726768970489501953125</LongitudeDegrees>
            </Position>
            <AltitudeMeters>19.6000003814697265625</AltitudeMeters>
            <DistanceMeters>NAN</DistanceMeters>
          </Trackpoint>
          <Trackpoint>
            <Time>2022-07-12T14:25:20.000Z</Time>
            <Position>
              <LatitudeDegrees>43.31868720240890979766845703125</LatitudeDegrees>
              <LongitudeDegrees>-3.064556904137134552001953125</LongitudeDegrees>
            </Position>
            <AltitudeMeters>19.6000003814697265625</AltitudeMeters>
            <DistanceMeters>NAN</DistanceMeters>
          </Trackpoint>
          <Trackpoint>
            <Time>2022-07-12T14:25:27.000Z</Time>
            <Position>
              <LatitudeDegrees>43.31884461455047130584716796875</LatitudeDegrees>
              <LongitudeDegrees>-3.06477223522961139678955078125</LongitudeDegrees>
            </Position>
            <AltitudeMeters>20.200000762939453125</AltitudeMeters>
            <DistanceMeters>NAN</DistanceMeters>
          </Trackpoint>
          <Trackpoint>
            <Time>2022-07-12T14:25:32.000Z</Time>
            <Position>
              <LatitudeDegrees>43.318919800221920013427734375</LatitudeDegrees>
              <LongitudeDegrees>-3.064953200519084930419921875</LongitudeDegrees>
            </Position>
            <AltitudeMeters>20.3999996185302734375</AltitudeMeters>
            <DistanceMeters>NAN</DistanceMeters>
          </Trackpoint>
          <Trackpoint>
            <Time>2022-07-12T14:25:33.000Z</Time>
            <Position>
              <LatitudeDegrees>43.31893178634345531463623046875</LatitudeDegrees>
              <LongitudeDegrees>-3.06499351747334003448486328125</LongitudeDegrees>
            </Position>
            <AltitudeMeters>20.3999996185302734375</AltitudeMeters>
            <DistanceMeters>NAN</DistanceMeters>
          </Trackpoint>
          <Trackpoint>
            <Time>2022-07-12T14:25:35.000Z</Time>
            <Position>
              <LatitudeDegrees>43.3189551718533039093017578125</LatitudeDegrees>
              <LongitudeDegrees>-3.065068535506725311279296875</LongitudeDegrees>
            </Position>
            <AltitudeMeters>20.3999996185302734375</AltitudeMeters>
            <DistanceMeters>NAN</DistanceMeters>
          </Trackpoint>
          <Trackpoint>
            <Time>2022-07-12T14:25:37.000Z</Time>
            <Position>
              <LatitudeDegrees>43.318979479372501373291015625</LatitudeDegrees>
              <LongitudeDegrees>-3.06513651274144649505615234375</LongitudeDegrees>
            </Position>
            <AltitudeMeters>20.6000003814697265625</AltitudeMeters>
            <DistanceMeters>NAN</DistanceMeters>
          </Trackpoint>
          <Trackpoint>
            <Time>2022-07-12T14:25:44.000Z</Time>
            <Position>
              <LatitudeDegrees>43.31903471611440181732177734375</LatitudeDegrees>
              <LongitudeDegrees>-3.065382353961467742919921875</LongitudeDegrees>
            </Position>
            <AltitudeMeters>21.6000003814697265625</AltitudeMeters>
            <DistanceMeters>NAN</DistanceMeters>
          </Trackpoint>
          <Trackpoint>
            <Time>2022-07-12T14:25:47.000Z</Time>
            <Position>
              <LatitudeDegrees>43.31905416212975978851318359375</LatitudeDegrees>
              <LongitudeDegrees>-3.06548930704593658447265625</LongitudeDegrees>
            </Position>
            <AltitudeMeters>21.6000003814697265625</AltitudeMeters>
            <DistanceMeters>NAN</DistanceMeters>
          </Trackpoint>
          <Trackpoint>
            <Time>2022-07-12T14:25:51.000Z</Time>
            <Position>
              <LatitudeDegrees>43.3190842531621456146240234375</LatitudeDegrees>
              <LongitudeDegrees>-3.06563456542789936065673828125</LongitudeDegrees>
            </Position>
            <AltitudeMeters>21.799999237060546875</AltitudeMeters>
            <DistanceMeters>NAN</DistanceMeters>
          </Trackpoint>
          <Trackpoint>
            <Time>2022-07-12T14:25:55.000Z</Time>
            <Position>
              <LatitudeDegrees>43.31912607885897159576416015625</LatitudeDegrees>
              <LongitudeDegrees>-3.0657778121531009674072265625</LongitudeDegrees>
            </Position>
            <AltitudeMeters>22</AltitudeMeters>
            <DistanceMeters>NAN</DistanceMeters>
          </Trackpoint>
          <Trackpoint>
            <Time>2022-07-12T14:26:05.000Z</Time>
            <Position>
              <LatitudeDegrees>43.31924594007432460784912109375</LatitudeDegrees>
              <LongitudeDegrees>-3.0661067180335521697998046875</LongitudeDegrees>
            </Position>
            <AltitudeMeters>22.6000003814697265625</AltitudeMeters>
            <DistanceMeters>NAN</DistanceMeters>
          </Trackpoint>
          <Trackpoint>
            <Time>2022-07-12T14:26:06.000Z</Time>
            <Position>
              <LatitudeDegrees>43.31926153041422367095947265625</LatitudeDegrees>
              <LongitudeDegrees>-3.0661342106759548187255859375</LongitudeDegrees>
            </Position>
            <AltitudeMeters>22.6000003814697265625</AltitudeMeters>
            <DistanceMeters>NAN</DistanceMeters>
          </Trackpoint>
          <Trackpoint>
            <Time>2022-07-12T14:26:12.000Z</Time>
            <Position>
              <LatitudeDegrees>43.319351971149444580078125</LatitudeDegrees>
              <LongitudeDegrees>-3.0663005076348781585693359375</LongitudeDegrees>
            </Position>
            <AltitudeMeters>23</AltitudeMeters>
            <DistanceMeters>NAN</DistanceMeters>
          </Trackpoint>
          <Trackpoint>
            <Time>2022-07-12T14:26:15.000Z</Time>
            <Position>
              <LatitudeDegrees>43.319406621158123016357421875</LatitudeDegrees>
              <LongitudeDegrees>-3.06637468747794628143310546875</LongitudeDegrees>
            </Position>
            <AltitudeMeters>23.200000762939453125</AltitudeMeters>
            <DistanceMeters>NAN</DistanceMeters>
          </Trackpoint>
          <Trackpoint>
            <Time>2022-07-12T14:26:28.000Z</Time>
            <Position>
              <LatitudeDegrees>43.31967316567897796630859375</LatitudeDegrees>
              <LongitudeDegrees>-3.06665212847292423248291015625</LongitudeDegrees>
            </Position>
            <AltitudeMeters>23.3999996185302734375</AltitudeMeters>
            <DistanceMeters>NAN</DistanceMeters>
          </Trackpoint>
          <Trackpoint>
            <Time>2022-07-12T14:26:33.000Z</Time>
            <Position>
              <LatitudeDegrees>43.31979529000818729400634765625</LatitudeDegrees>
              <LongitudeDegrees>-3.0667291581630706787109375</LongitudeDegrees>
            </Position>
            <AltitudeMeters>23.6000003814697265625</AltitudeMeters>
            <DistanceMeters>NAN</DistanceMeters>
          </Trackpoint>
          <Trackpoint>
            <Time>2022-07-12T14:26:37.000Z</Time>
            <Position>
              <LatitudeDegrees>43.3198845572769641876220703125</LatitudeDegrees>
              <LongitudeDegrees>-3.06677986867725849151611328125</LongitudeDegrees>
            </Position>
            <AltitudeMeters>24</AltitudeMeters>
            <DistanceMeters>NAN</DistanceMeters>
          </Trackpoint>
          <Trackpoint>
            <Time>2022-07-12T14:26:47.000Z</Time>
            <Position>
              <LatitudeDegrees>43.32014389336109161376953125</LatitudeDegrees>
              <LongitudeDegrees>-3.0668533779680728912353515625</LongitudeDegrees>
            </Position>
            <AltitudeMeters>24.6000003814697265625</AltitudeMeters>
            <DistanceMeters>NAN</DistanceMeters>
          </Trackpoint>
          <Trackpoint>
            <Time>2022-07-12T14:26:49.000Z</Time>
            <Position>
              <LatitudeDegrees>43.32019711844623088836669921875</LatitudeDegrees>
              <LongitudeDegrees>-3.0668724887073040008544921875</LongitudeDegrees>
            </Position>
            <AltitudeMeters>24.6000003814697265625</AltitudeMeters>
            <DistanceMeters>NAN</DistanceMeters>
          </Trackpoint>
          <Trackpoint>
            <Time>2022-07-12T14:26:59.000Z</Time>
            <Position>
              <LatitudeDegrees>43.320452012121677398681640625</LatitudeDegrees>
              <LongitudeDegrees>-3.0670112930238246917724609375</LongitudeDegrees>
            </Position>
            <AltitudeMeters>25</AltitudeMeters>
            <DistanceMeters>NAN</DistanceMeters>
          </Trackpoint>
          <Trackpoint>
            <Time>2022-07-12T14:27:06.000Z</Time>
            <Position>
              <LatitudeDegrees>43.32060129381716251373291015625</LatitudeDegrees>
              <LongitudeDegrees>-3.067151606082916259765625</LongitudeDegrees>
            </Position>
            <AltitudeMeters>25.3999996185302734375</AltitudeMeters>
            <DistanceMeters>NAN</DistanceMeters>
          </Trackpoint>
          <Trackpoint>
            <Time>2022-07-12T14:27:14.000Z</Time>
            <Position>
              <LatitudeDegrees>43.32072853110730648040771484375</LatitudeDegrees>
              <LongitudeDegrees>-3.06737146340310573577880859375</LongitudeDegrees>
            </Position>
            <AltitudeMeters>25.6000003814697265625</AltitudeMeters>
            <DistanceMeters>NAN</DistanceMeters>
          </Trackpoint>
          <Trackpoint>
            <Time>2022-07-12T14:27:15.000Z</Time>
            <Position>
              <LatitudeDegrees>43.32074160687625408172607421875</LatitudeDegrees>
              <LongitudeDegrees>-3.06740130297839641571044921875</LongitudeDegrees>
            </Position>
            <AltitudeMeters>25.6000003814697265625</AltitudeMeters>
            <DistanceMeters>NAN</DistanceMeters>
          </Trackpoint>
          <Trackpoint>
            <Time>2022-07-12T14:27:20.000Z</Time>
            <Position>
              <LatitudeDegrees>43.32078821025788784027099609375</LatitudeDegrees>
              <LongitudeDegrees>-3.06757011450827121734619140625</LongitudeDegrees>
            </Position>
            <AltitudeMeters>25.799999237060546875</AltitudeMeters>
            <DistanceMeters>NAN</DistanceMeters>
          </Trackpoint>
          <Trackpoint>
            <Time>2022-07-12T14:27:23.000Z</Time>
            <Position>
              <LatitudeDegrees>43.32079969346523284912109375</LatitudeDegrees>
              <LongitudeDegrees>-3.0676691047847270965576171875</LongitudeDegrees>
            </Position>
            <AltitudeMeters>26</AltitudeMeters>
            <DistanceMeters>NAN</DistanceMeters>
          </Trackpoint>
          <Trackpoint>
            <Time>2022-07-12T14:27:32.000Z</Time>
            <Position>
              <LatitudeDegrees>43.3208816684782505035400390625</LatitudeDegrees>
              <LongitudeDegrees>-3.0679718591272830963134765625</LongitudeDegrees>
            </Position>
            <AltitudeMeters>26.6000003814697265625</AltitudeMeters>
            <DistanceMeters>NAN</DistanceMeters>
          </Trackpoint>
          <Trackpoint>
            <Time>2022-07-12T14:27:33.000Z</Time>
            <Position>
              <LatitudeDegrees>43.32088954746723175048828125</LatitudeDegrees>
              <LongitudeDegrees>-3.0680033750832080841064453125</LongitudeDegrees>
            </Position>
            <AltitudeMeters>26.6000003814697265625</AltitudeMeters>
            <DistanceMeters>NAN</DistanceMeters>
          </Trackpoint>
          <Trackpoint>
            <Time>2022-07-12T14:27:41.000Z</Time>
            <Position>
              <LatitudeDegrees>43.32093321718275547027587890625</LatitudeDegrees>
              <LongitudeDegrees>-3.06829649023711681365966796875</LongitudeDegrees>
            </Position>
            <AltitudeMeters>27.200000762939453125</AltitudeMeters>
            <DistanceMeters>NAN</DistanceMeters>
          </Trackpoint>
          <Trackpoint>
            <Time>2022-07-12T14:27:47.000Z</Time>
            <Position>
              <LatitudeDegrees>43.320968337357044219970703125</LatitudeDegrees>
              <LongitudeDegrees>-3.06850503198802471160888671875</LongitudeDegrees>
            </Position>
            <AltitudeMeters>27.799999237060546875</AltitudeMeters>
            <DistanceMeters>NAN</DistanceMeters>
          </Trackpoint>
          <Trackpoint>
            <Time>2022-07-12T14:27:50.000Z</Time>
            <Position>
              <LatitudeDegrees>43.320990465581417083740234375</LatitudeDegrees>
              <LongitudeDegrees>-3.06858616881072521209716796875</LongitudeDegrees>
            </Position>
            <AltitudeMeters>27.799999237060546875</AltitudeMeters>
            <DistanceMeters>NAN</DistanceMeters>
          </Trackpoint>
          <Trackpoint>
            <Time>2022-07-12T14:28:00.000Z</Time>
            <Position>
              <LatitudeDegrees>43.3210623823106288909912109375</LatitudeDegrees>
              <LongitudeDegrees>-3.068941645324230194091796875</LongitudeDegrees>
            </Position>
            <AltitudeMeters>28.3999996185302734375</AltitudeMeters>
            <DistanceMeters>NAN</DistanceMeters>
          </Trackpoint>
          <Trackpoint>
            <Time>2022-07-12T14:28:02.000Z</Time>
            <Position>
              <LatitudeDegrees>43.32107688300311565399169921875</LatitudeDegrees>
              <LongitudeDegrees>-3.06901548989117145538330078125</LongitudeDegrees>
            </Position>
            <AltitudeMeters>28.799999237060546875</AltitudeMeters>
            <DistanceMeters>NAN</DistanceMeters>
          </Trackpoint>
          <Trackpoint>
            <Time>2022-07-12T14:28:11.000Z</Time>
            <Position>
              <LatitudeDegrees>43.3211696706712245941162109375</LatitudeDegrees>
              <LongitudeDegrees>-3.069338612258434295654296875</LongitudeDegrees>
            </Position>
            <AltitudeMeters>29.3999996185302734375</AltitudeMeters>
            <DistanceMeters>NAN</DistanceMeters>
          </Trackpoint>
          <Trackpoint>
            <Time>2022-07-12T14:28:14.000Z</Time>
            <Position>
              <LatitudeDegrees>43.32119523547589778900146484375</LatitudeDegrees>
              <LongitudeDegrees>-3.0694487504661083221435546875</LongitudeDegrees>
            </Position>
            <AltitudeMeters>29.6000003814697265625</AltitudeMeters>
            <DistanceMeters>NAN</DistanceMeters>
          </Trackpoint>
          <Trackpoint>
            <Time>2022-07-12T14:28:16.000Z</Time>
            <Position>
              <LatitudeDegrees>43.32120864652097225189208984375</LatitudeDegrees>
              <LongitudeDegrees>-3.06952779181301593780517578125</LongitudeDegrees>
            </Position>
            <AltitudeMeters>29.6000003814697265625</AltitudeMeters>
            <DistanceMeters>NAN</DistanceMeters>
          </Trackpoint>
          <Trackpoint>
            <Time>2022-07-12T14:28:19.000Z</Time>
            <Position>
              <LatitudeDegrees>43.32122205756604671478271484375</LatitudeDegrees>
              <LongitudeDegrees>-3.069656789302825927734375</LongitudeDegrees>
            </Position>
            <AltitudeMeters>29.799999237060546875</AltitudeMeters>
            <DistanceMeters>NAN</DistanceMeters>
          </Trackpoint>
          <Trackpoint>
            <Time>2022-07-12T14:28:20.000Z</Time>
            <Position>
              <LatitudeDegrees>43.321221135556697845458984375</LatitudeDegrees>
              <LongitudeDegrees>-3.06968570686876773834228515625</LongitudeDegrees>
            </Position>
            <AltitudeMeters>30</AltitudeMeters>
            <DistanceMeters>NAN</DistanceMeters>
          </Trackpoint>
          <Trackpoint>
            <Time>2022-07-12T14:28:22.000Z</Time>
            <Position>
              <LatitudeDegrees>43.32122591324150562286376953125</LatitudeDegrees>
              <LongitudeDegrees>-3.06975938379764556884765625</LongitudeDegrees>
            </Position>
            <AltitudeMeters>30.200000762939453125</AltitudeMeters>
            <DistanceMeters>NAN</DistanceMeters>
          </Trackpoint>
          <Trackpoint>
            <Time>2022-07-12T14:28:28.000Z</Time>
            <Position>
              <LatitudeDegrees>43.32122641615569591522216796875</LatitudeDegrees>
              <LongitudeDegrees>-3.06997287087142467498779296875</LongitudeDegrees>
            </Position>
            <AltitudeMeters>30.200000762939453125</AltitudeMeters>
            <DistanceMeters>NAN</DistanceMeters>
          </Trackpoint>
          <Trackpoint>
            <Time>2022-07-12T14:28:37.000Z</Time>
            <Position>
              <LatitudeDegrees>43.3211783878505229949951171875</LatitudeDegrees>
              <LongitudeDegrees>-3.0702839232981204986572265625</LongitudeDegrees>
            </Position>
            <AltitudeMeters>30.799999237060546875</AltitudeMeters>
            <DistanceMeters>NAN</DistanceMeters>
          </Trackpoint>
          <Trackpoint>
            <Time>2022-07-12T14:28:38.000Z</Time>
            <Position>
              <LatitudeDegrees>43.3211726881563663482666015625</LatitudeDegrees>
              <LongitudeDegrees>-3.0703154392540454864501953125</LongitudeDegrees>
            </Position>
            <AltitudeMeters>30.799999237060546875</AltitudeMeters>
            <DistanceMeters>NAN</DistanceMeters>
          </Trackpoint>
          <Trackpoint>
            <Time>2022-07-12T14:28:46.000Z</Time>
            <Position>
              <LatitudeDegrees>43.321117199957370758056640625</LatitudeDegrees>
              <LongitudeDegrees>-3.0705558322370052337646484375</LongitudeDegrees>
            </Position>
            <AltitudeMeters>31</AltitudeMeters>
            <DistanceMeters>NAN</DistanceMeters>
          </Trackpoint>
          <Trackpoint>
            <Time>2022-07-12T14:28:55.000Z</Time>
            <Position>
              <LatitudeDegrees>43.3210546709597110748291015625</LatitudeDegrees>
              <LongitudeDegrees>-3.0708022601902484893798828125</LongitudeDegrees>
            </Position>
            <AltitudeMeters>31.6000003814697265625</AltitudeMeters>
            <DistanceMeters>NAN</DistanceMeters>
          </Trackpoint>
          <Trackpoint>
            <Time>2022-07-12T14:28:58.000Z</Time>
            <Position>
              <LatitudeDegrees>43.32102122716605663299560546875</LatitudeDegrees>
              <LongitudeDegrees>-3.0708844028413295745849609375</LongitudeDegrees>
            </Position>
            <AltitudeMeters>32</AltitudeMeters>
            <DistanceMeters>NAN</DistanceMeters>
          </Trackpoint>
          <Trackpoint>
            <Time>2022-07-12T14:29:05.000Z</Time>
            <Position>
              <LatitudeDegrees>43.3209306187927722930908203125</LatitudeDegrees>
              <LongitudeDegrees>-3.07105497457087039947509765625</LongitudeDegrees>
            </Position>
            <AltitudeMeters>32.40000152587890625</AltitudeMeters>
            <DistanceMeters>NAN</DistanceMeters>
          </Trackpoint>
          <Trackpoint>
            <Time>2022-07-12T14:29:16.000Z</Time>
            <Position>
              <LatitudeDegrees>43.320814110338687896728515625</LatitudeDegrees>
              <LongitudeDegrees>-3.071300648152828216552734375</LongitudeDegrees>
            </Position>
            <AltitudeMeters>33</AltitudeMeters>
            <DistanceMeters>NAN</DistanceMeters>
          </Trackpoint>
          <Trackpoint>
            <Time>2022-07-12T14:29:26.000Z</Time>
            <Position>
              <LatitudeDegrees>43.32071847282350063323974609375</LatitudeDegrees>
              <LongitudeDegrees>-3.07149519212543964385986328125</LongitudeDegrees>
            </Position>
            <AltitudeMeters>34.200000762939453125</AltitudeMeters>
            <DistanceMeters>NAN</DistanceMeters>
          </Trackpoint>
          <Trackpoint>
            <Time>2022-07-12T14:29:33.000Z</Time>
            <Position>
              <LatitudeDegrees>43.3207529224455356597900390625</LatitudeDegrees>
              <LongitudeDegrees>-3.07164229452610015869140625</LongitudeDegrees>
            </Position>
            <AltitudeMeters>34.799999237060546875</AltitudeMeters>
            <DistanceMeters>NAN</DistanceMeters>
          </Trackpoint>
          <Trackpoint>
            <Time>2022-07-12T14:29:39.000Z</Time>
            <Position>
              <LatitudeDegrees>43.32084084860980510711669921875</LatitudeDegrees>
              <LongitudeDegrees>-3.0717004649341106414794921875</LongitudeDegrees>
            </Position>
            <AltitudeMeters>35.200000762939453125</AltitudeMeters>
            <DistanceMeters>NAN</DistanceMeters>
          </Trackpoint>
          <Trackpoint>
            <Time>2022-07-12T14:29:41.000Z</Time>
            <Position>
              <LatitudeDegrees>43.32087345421314239501953125</LatitudeDegrees>
              <LongitudeDegrees>-3.07170666754245758056640625</LongitudeDegrees>
            </Position>
            <AltitudeMeters>35.200000762939453125</AltitudeMeters>
            <DistanceMeters>NAN</DistanceMeters>
          </Trackpoint>
          <Trackpoint>
            <Time>2022-07-12T14:29:42.000Z</Time>
            <Position>
              <LatitudeDegrees>43.32088912837207317352294921875</LatitudeDegrees>
              <LongitudeDegrees>-3.0717068351805210113525390625</LongitudeDegrees>
            </Position>
            <AltitudeMeters>35.200000762939453125</AltitudeMeters>
            <DistanceMeters>NAN</DistanceMeters>
          </Trackpoint>
          <Trackpoint>
            <Time>2022-07-12T14:29:52.000Z</Time>
            <Position>
              <LatitudeDegrees>43.321046121418476104736328125</LatitudeDegrees>
              <LongitudeDegrees>-3.07166132144629955291748046875</LongitudeDegrees>
            </Position>
            <AltitudeMeters>35.200000762939453125</AltitudeMeters>
            <DistanceMeters>NAN</DistanceMeters>
          </Trackpoint>
          <Trackpoint>
            <Time>2022-07-12T14:29:59.000Z</Time>
            <Position>
              <LatitudeDegrees>43.32120068371295928955078125</LatitudeDegrees>
              <LongitudeDegrees>-3.07161790318787097930908203125</LongitudeDegrees>
            </Position>
            <AltitudeMeters>35.59999847412109375</AltitudeMeters>
            <DistanceMeters>NAN</DistanceMeters>
          </Trackpoint>
          <Trackpoint>
            <Time>2022-07-12T14:30:05.000Z</Time>
            <Position>
              <LatitudeDegrees>43.32138449884951114654541015625</LatitudeDegrees>
              <LongitudeDegrees>-3.07150684297084808349609375</LongitudeDegrees>
            </Position>
            <AltitudeMeters>36.200000762939453125</AltitudeMeters>
            <DistanceMeters>NAN</DistanceMeters>
          </Trackpoint>
          <Trackpoint>
            <Time>2022-07-12T14:30:06.000Z</Time>
            <Position>
              <LatitudeDegrees>43.3214097283780574798583984375</LatitudeDegrees>
              <LongitudeDegrees>-3.0714862234890460968017578125</LongitudeDegrees>
            </Position>
            <AltitudeMeters>36.200000762939453125</AltitudeMeters>
            <DistanceMeters>NAN</DistanceMeters>
          </Trackpoint>
          <Trackpoint>
            <Time>2022-07-12T14:30:11.000Z</Time>
            <Position>
              <LatitudeDegrees>43.32155481912195682525634765625</LatitudeDegrees>
              <LongitudeDegrees>-3.071316070854663848876953125</LongitudeDegrees>
            </Position>
            <AltitudeMeters>36.200000762939453125</AltitudeMeters>
            <DistanceMeters>NAN</DistanceMeters>
          </Trackpoint>
          <Trackpoint>
            <Time>2022-07-12T14:30:12.000Z</Time>
            <Position>
              <LatitudeDegrees>43.32158021628856658935546875</LatitudeDegrees>
              <LongitudeDegrees>-3.07127893902361392974853515625</LongitudeDegrees>
            </Position>
            <AltitudeMeters>36.200000762939453125</AltitudeMeters>
            <DistanceMeters>NAN</DistanceMeters>
          </Trackpoint>
          <Trackpoint>
            <Time>2022-07-12T14:30:14.000Z</Time>
            <Position>
              <LatitudeDegrees>43.321630172431468963623046875</LatitudeDegrees>
              <LongitudeDegrees>-3.07119159959256649017333984375</LongitudeDegrees>
            </Position>
            <AltitudeMeters>36</AltitudeMeters>
            <DistanceMeters>NAN</DistanceMeters>
          </Trackpoint>
          <Trackpoint>
            <Time>2022-07-12T14:30:19.000Z</Time>
            <Position>
              <LatitudeDegrees>43.32173989154398441314697265625</LatitudeDegrees>
              <LongitudeDegrees>-3.07090544141829013824462890625</LongitudeDegrees>
            </Position>
            <AltitudeMeters>35.799999237060546875</AltitudeMeters>
            <DistanceMeters>NAN</DistanceMeters>
          </Trackpoint>
          <Trackpoint>
            <Time>2022-07-12T14:30:20.000Z</Time>
            <Position>
              <LatitudeDegrees>43.3217570744454860687255859375</LatitudeDegrees>
              <LongitudeDegrees>-3.070836961269378662109375</LongitudeDegrees>
            </Position>
            <AltitudeMeters>35.59999847412109375</AltitudeMeters>
            <DistanceMeters>NAN</DistanceMeters>
          </Trackpoint>
          <Trackpoint>
            <Time>2022-07-12T14:30:23.000Z</Time>
            <Position>
              <LatitudeDegrees>43.32177174277603626251220703125</LatitudeDegrees>
              <LongitudeDegrees>-3.07063118554651737213134765625</LongitudeDegrees>
            </Position>
            <AltitudeMeters>35.40000152587890625</AltitudeMeters>
            <DistanceMeters>NAN</DistanceMeters>
          </Trackpoint>
          <Trackpoint>
            <Time>2022-07-12T14:30:25.000Z</Time>
            <Position>
              <LatitudeDegrees>43.3217949606478214263916015625</LatitudeDegrees>
              <LongitudeDegrees>-3.0704887770116329193115234375</LongitudeDegrees>
            </Position>
            <AltitudeMeters>35.200000762939453125</AltitudeMeters>
            <DistanceMeters>NAN</DistanceMeters>
          </Trackpoint>
          <Trackpoint>
            <Time>2022-07-12T14:30:26.000Z</Time>
            <Position>
              <LatitudeDegrees>43.3218056894838809967041015625</LatitudeDegrees>
              <LongitudeDegrees>-3.07045047171413898468017578125</LongitudeDegrees>
            </Position>
            <AltitudeMeters>35.200000762939453125</AltitudeMeters>
            <DistanceMeters>NAN</DistanceMeters>
          </Trackpoint>
          <Trackpoint>
            <Time>2022-07-12T14:30:27.000Z</Time>
            <Position>
              <LatitudeDegrees>43.32181901670992374420166015625</LatitudeDegrees>
              <LongitudeDegrees>-3.070413507521152496337890625</LongitudeDegrees>
            </Position>
            <AltitudeMeters>35.200000762939453125</AltitudeMeters>
            <DistanceMeters>NAN</DistanceMeters>
          </Trackpoint>
          <Trackpoint>
            <Time>2022-07-12T14:30:31.000Z</Time>
            <Position>
              <LatitudeDegrees>43.32190669141709804534912109375</LatitudeDegrees>
              <LongitudeDegrees>-3.07034318335354328155517578125</LongitudeDegrees>
            </Position>
            <AltitudeMeters>35.799999237060546875</AltitudeMeters>
            <DistanceMeters>NAN</DistanceMeters>
          </Trackpoint>
          <Trackpoint>
            <Time>2022-07-12T14:30:32.000Z</Time>
            <Position>
              <LatitudeDegrees>43.32192831672728061676025390625</LatitudeDegrees>
              <LongitudeDegrees>-3.07033983059227466583251953125</LongitudeDegrees>
            </Position>
            <AltitudeMeters>36.200000762939453125</AltitudeMeters>
            <DistanceMeters>NAN</DistanceMeters>
          </Trackpoint>
          <Trackpoint>
            <Time>2022-07-12T14:30:36.000Z</Time>
            <Position>
              <LatitudeDegrees>43.32200459204614162445068359375</LatitudeDegrees>
              <LongitudeDegrees>-3.0703570134937763214111328125</LongitudeDegrees>
            </Position>
            <AltitudeMeters>37.200000762939453125</AltitudeMeters>
            <DistanceMeters>NAN</DistanceMeters>
          </Trackpoint>
          <Trackpoint>
            <Time>2022-07-12T14:30:37.000Z</Time>
            <Position>
              <LatitudeDegrees>43.32202001474797725677490234375</LatitudeDegrees>
              <LongitudeDegrees>-3.07036799378693103790283203125</LongitudeDegrees>
            </Position>
            <AltitudeMeters>37.40000152587890625</AltitudeMeters>
            <DistanceMeters>NAN</DistanceMeters>
          </Trackpoint>
          <Trackpoint>
            <Time>2022-07-12T14:30:42.000Z</Time>
            <Position>
              <LatitudeDegrees>43.32207952626049518585205078125</LatitudeDegrees>
              <LongitudeDegrees>-3.0704627931118011474609375</LongitudeDegrees>
            </Position>
            <AltitudeMeters>38.40000152587890625</AltitudeMeters>
            <DistanceMeters>NAN</DistanceMeters>
          </Trackpoint>
          <Trackpoint>
            <Time>2022-07-12T14:30:43.000Z</Time>
            <Position>
              <LatitudeDegrees>43.322085477411746978759765625</LatitudeDegrees>
              <LongitudeDegrees>-3.07048031128942966461181640625</LongitudeDegrees>
            </Position>
            <AltitudeMeters>38.59999847412109375</AltitudeMeters>
            <DistanceMeters>NAN</DistanceMeters>
          </Trackpoint>
          <Trackpoint>
            <Time>2022-07-12T14:30:48.000Z</Time>
            <Position>
              <LatitudeDegrees>43.3221087791025638580322265625</LatitudeDegrees>
              <LongitudeDegrees>-3.0705725960433483123779296875</LongitudeDegrees>
            </Position>
            <AltitudeMeters>39</AltitudeMeters>
            <DistanceMeters>NAN</DistanceMeters>
          </Trackpoint>
          <Trackpoint>
            <Time>2022-07-12T14:30:50.000Z</Time>
            <Position>
              <LatitudeDegrees>43.32213006913661956787109375</LatitudeDegrees>
              <LongitudeDegrees>-3.07061676867306232452392578125</LongitudeDegrees>
            </Position>
            <AltitudeMeters>39.40000152587890625</AltitudeMeters>
            <DistanceMeters>NAN</DistanceMeters>
          </Trackpoint>
          <Trackpoint>
            <Time>2022-07-12T14:30:51.000Z</Time>
            <Position>
              <LatitudeDegrees>43.3221382834017276763916015625</LatitudeDegrees>
              <LongitudeDegrees>-3.07063939981162548065185546875</LongitudeDegrees>
            </Position>
            <AltitudeMeters>39.59999847412109375</AltitudeMeters>
            <DistanceMeters>NAN</DistanceMeters>
          </Trackpoint>
          <Trackpoint>
            <Time>2022-07-12T14:30:54.000Z</Time>
            <Position>
              <LatitudeDegrees>43.3221661113202571868896484375</LatitudeDegrees>
              <LongitudeDegrees>-3.070703186094760894775390625</LongitudeDegrees>
            </Position>
            <AltitudeMeters>39.799999237060546875</AltitudeMeters>
            <DistanceMeters>NAN</DistanceMeters>
          </Trackpoint>
          <Trackpoint>
            <Time>2022-07-12T14:30:56.000Z</Time>
            <Position>
              <LatitudeDegrees>43.322174660861492156982421875</LatitudeDegrees>
              <LongitudeDegrees>-3.07074467651546001434326171875</LongitudeDegrees>
            </Position>
            <AltitudeMeters>40</AltitudeMeters>
            <DistanceMeters>NAN</DistanceMeters>
          </Trackpoint>
          <Trackpoint>
            <Time>2022-07-12T14:30:57.000Z</Time>
            <Position>
              <LatitudeDegrees>43.3221724815666675567626953125</LatitudeDegrees>
              <LongitudeDegrees>-3.0707632005214691162109375</LongitudeDegrees>
            </Position>
            <AltitudeMeters>40.200000762939453125</AltitudeMeters>
            <DistanceMeters>NAN</DistanceMeters>
          </Trackpoint>
          <Trackpoint>
            <Time>2022-07-12T14:30:59.000Z</Time>
            <Position>
              <LatitudeDegrees>43.32218765281140804290771484375</LatitudeDegrees>
              <LongitudeDegrees>-3.07079865597188472747802734375</LongitudeDegrees>
            </Position>
            <AltitudeMeters>40.59999847412109375</AltitudeMeters>
            <DistanceMeters>NAN</DistanceMeters>
          </Trackpoint>
          <Trackpoint>
            <Time>2022-07-12T14:31:04.000Z</Time>
            <Position>
              <LatitudeDegrees>43.32221833057701587677001953125</LatitudeDegrees>
              <LongitudeDegrees>-3.07091667316854000091552734375</LongitudeDegrees>
            </Position>
            <AltitudeMeters>41.200000762939453125</AltitudeMeters>
            <DistanceMeters>NAN</DistanceMeters>
          </Trackpoint>
          <Trackpoint>
            <Time>2022-07-12T14:31:06.000Z</Time>
            <Position>
              <LatitudeDegrees>43.3222251199185848236083984375</LatitudeDegrees>
              <LongitudeDegrees>-3.0709584988653659820556640625</LongitudeDegrees>
            </Position>
            <AltitudeMeters>41.799999237060546875</AltitudeMeters>
            <DistanceMeters>NAN</DistanceMeters>
          </Trackpoint>
          <Trackpoint>
            <Time>2022-07-12T14:31:07.000Z</Time>
            <Position>
              <LatitudeDegrees>43.3222313225269317626953125</LatitudeDegrees>
              <LongitudeDegrees>-3.0709806270897388458251953125</LongitudeDegrees>
            </Position>
            <AltitudeMeters>41.799999237060546875</AltitudeMeters>
            <DistanceMeters>NAN</DistanceMeters>
          </Trackpoint>
          <Trackpoint>
            <Time>2022-07-12T14:31:10.000Z</Time>
            <Position>
              <LatitudeDegrees>43.32225101999938488006591796875</LatitudeDegrees>
              <LongitudeDegrees>-3.0710470117628574371337890625</LongitudeDegrees>
            </Position>
            <AltitudeMeters>42.200000762939453125</AltitudeMeters>
            <DistanceMeters>NAN</DistanceMeters>
          </Trackpoint>
          <Trackpoint>
            <Time>2022-07-12T14:31:14.000Z</Time>
            <Position>
              <LatitudeDegrees>43.32224682904779911041259765625</LatitudeDegrees>
              <LongitudeDegrees>-3.0711372010409832000732421875</LongitudeDegrees>
            </Position>
            <AltitudeMeters>42.799999237060546875</AltitudeMeters>
            <DistanceMeters>NAN</DistanceMeters>
          </Trackpoint>
          <Trackpoint>
            <Time>2022-07-12T14:31:17.000Z</Time>
            <Position>
              <LatitudeDegrees>43.32224867306649684906005859375</LatitudeDegrees>
              <LongitudeDegrees>-3.07120970450341701507568359375</LongitudeDegrees>
            </Position>
            <AltitudeMeters>43</AltitudeMeters>
            <DistanceMeters>NAN</DistanceMeters>
          </Trackpoint>
          <Trackpoint>
            <Time>2022-07-12T14:31:26.000Z</Time>
            <Position>
              <LatitudeDegrees>43.32223735749721527099609375</LatitudeDegrees>
              <LongitudeDegrees>-3.071408607065677642822265625</LongitudeDegrees>
            </Position>
            <AltitudeMeters>43.799999237060546875</AltitudeMeters>
            <DistanceMeters>NAN</DistanceMeters>
          </Trackpoint>
          <Trackpoint>
            <Time>2022-07-12T14:31:27.000Z</Time>
            <Position>
              <LatitudeDegrees>43.3222371898591518402099609375</LatitudeDegrees>
              <LongitudeDegrees>-3.0714349262416362762451171875</LongitudeDegrees>
            </Position>
            <AltitudeMeters>43.799999237060546875</AltitudeMeters>
            <DistanceMeters>NAN</DistanceMeters>
          </Trackpoint>
          <Trackpoint>
            <Time>2022-07-12T14:31:29.000Z</Time>
            <Position>
              <LatitudeDegrees>43.3222221024334430694580078125</LatitudeDegrees>
              <LongitudeDegrees>-3.07148043997585773468017578125</LongitudeDegrees>
            </Position>
            <AltitudeMeters>44</AltitudeMeters>
            <DistanceMeters>NAN</DistanceMeters>
          </Trackpoint>
          <Trackpoint>
            <Time>2022-07-12T14:31:31.000Z</Time>
            <Position>
              <LatitudeDegrees>43.32220843993127346038818359375</LatitudeDegrees>
              <LongitudeDegrees>-3.07152570225298404693603515625</LongitudeDegrees>
            </Position>
            <AltitudeMeters>44.40000152587890625</AltitudeMeters>
            <DistanceMeters>NAN</DistanceMeters>
          </Trackpoint>
          <Trackpoint>
            <Time>2022-07-12T14:31:32.000Z</Time>
            <Position>
              <LatitudeDegrees>43.32220114767551422119140625</LatitudeDegrees>
              <LongitudeDegrees>-3.07155034504830837249755859375</LongitudeDegrees>
            </Position>
            <AltitudeMeters>44.40000152587890625</AltitudeMeters>
            <DistanceMeters>NAN</DistanceMeters>
          </Trackpoint>
          <Trackpoint>
            <Time>2022-07-12T14:31:40.000Z</Time>
            <Position>
              <LatitudeDegrees>43.3221426419913768768310546875</LatitudeDegrees>
              <LongitudeDegrees>-3.07173960842192173004150390625</LongitudeDegrees>
            </Position>
            <AltitudeMeters>44.799999237060546875</AltitudeMeters>
            <DistanceMeters>NAN</DistanceMeters>
          </Trackpoint>
          <Trackpoint>
            <Time>2022-07-12T14:31:41.000Z</Time>
            <Position>
              <LatitudeDegrees>43.32213417626917362213134765625</LatitudeDegrees>
              <LongitudeDegrees>-3.071761317551136016845703125</LongitudeDegrees>
            </Position>
            <AltitudeMeters>44.799999237060546875</AltitudeMeters>
            <DistanceMeters>NAN</DistanceMeters>
          </Trackpoint>
          <Trackpoint>
            <Time>2022-07-12T14:31:49.000Z</Time>
            <Position>
              <LatitudeDegrees>43.32205840386450290679931640625</LatitudeDegrees>
              <LongitudeDegrees>-3.07195016182959079742431640625</LongitudeDegrees>
            </Position>
            <AltitudeMeters>45.59999847412109375</AltitudeMeters>
            <DistanceMeters>NAN</DistanceMeters>
          </Trackpoint>
          <Trackpoint>
            <Time>2022-07-12T14:31:54.000Z</Time>
            <Position>
              <LatitudeDegrees>43.32193787209689617156982421875</LatitudeDegrees>
              <LongitudeDegrees>-3.07210288010537624359130859375</LongitudeDegrees>
            </Position>
            <AltitudeMeters>45.40000152587890625</AltitudeMeters>
            <DistanceMeters>NAN</DistanceMeters>
          </Trackpoint>
          <Trackpoint>
            <Time>2022-07-12T14:31:55.000Z</Time>
            <Position>
              <LatitudeDegrees>43.3219049312174320220947265625</LatitudeDegrees>
              <LongitudeDegrees>-3.0721420235931873321533203125</LongitudeDegrees>
            </Position>
            <AltitudeMeters>45.40000152587890625</AltitudeMeters>
            <DistanceMeters>NAN</DistanceMeters>
          </Trackpoint>
          <Trackpoint>
            <Time>2022-07-12T14:31:57.000Z</Time>
            <Position>
              <LatitudeDegrees>43.32184516824781894683837890625</LatitudeDegrees>
              <LongitudeDegrees>-3.072256185114383697509765625</LongitudeDegrees>
            </Position>
            <AltitudeMeters>44.59999847412109375</AltitudeMeters>
            <DistanceMeters>NAN</DistanceMeters>
          </Trackpoint>
          <Trackpoint>
            <Time>2022-07-12T14:31:58.000Z</Time>
            <Position>
              <LatitudeDegrees>43.32182538695633411407470703125</LatitudeDegrees>
              <LongitudeDegrees>-3.0723405070602893829345703125</LongitudeDegrees>
            </Position>
            <AltitudeMeters>44.40000152587890625</AltitudeMeters>
            <DistanceMeters>NAN</DistanceMeters>
          </Trackpoint>
          <Trackpoint>
            <Time>2022-07-12T14:31:59.000Z</Time>
            <Position>
              <LatitudeDegrees>43.3218258060514926910400390625</LatitudeDegrees>
              <LongitudeDegrees>-3.0724310316145420074462890625</LongitudeDegrees>
            </Position>
            <AltitudeMeters>44.200000762939453125</AltitudeMeters>
            <DistanceMeters>NAN</DistanceMeters>
          </Trackpoint>
          <Trackpoint>
            <Time>2022-07-12T14:32:00.000Z</Time>
            <Position>
              <LatitudeDegrees>43.32183645106852054595947265625</LatitudeDegrees>
              <LongitudeDegrees>-3.07251996360719203948974609375</LongitudeDegrees>
            </Position>
            <AltitudeMeters>43.799999237060546875</AltitudeMeters>
            <DistanceMeters>NAN</DistanceMeters>
          </Trackpoint>
          <Trackpoint>
            <Time>2022-07-12T14:32:01.000Z</Time>
            <Position>
              <LatitudeDegrees>43.32185002975165843963623046875</LatitudeDegrees>
              <LongitudeDegrees>-3.07261082343757152557373046875</LongitudeDegrees>
            </Position>
            <AltitudeMeters>43.59999847412109375</AltitudeMeters>
            <DistanceMeters>NAN</DistanceMeters>
          </Trackpoint>
          <Trackpoint>
            <Time>2022-07-12T14:32:10.000Z</Time>
            <Position>
              <LatitudeDegrees>43.32199386321008205413818359375</LatitudeDegrees>
              <LongitudeDegrees>-3.0731354467570781707763671875</LongitudeDegrees>
            </Position>
            <AltitudeMeters>42.799999237060546875</AltitudeMeters>
            <DistanceMeters>NAN</DistanceMeters>
          </Trackpoint>
          <Trackpoint>
            <Time>2022-07-12T14:32:11.000Z</Time>
            <Position>
              <LatitudeDegrees>43.32199000753462314605712890625</LatitudeDegrees>
              <LongitudeDegrees>-3.0733121372759342193603515625</LongitudeDegrees>
            </Position>
            <AltitudeMeters>42.799999237060546875</AltitudeMeters>
            <DistanceMeters>NAN</DistanceMeters>
          </Trackpoint>
          <Trackpoint>
            <Time>2022-07-12T14:32:14.000Z</Time>
            <Position>
              <LatitudeDegrees>43.322055637836456298828125</LatitudeDegrees>
              <LongitudeDegrees>-3.07342529296875</LongitudeDegrees>
            </Position>
            <AltitudeMeters>43</AltitudeMeters>
            <DistanceMeters>NAN</DistanceMeters>
          </Trackpoint>
          <Trackpoint>
            <Time>2022-07-12T14:32:16.000Z</Time>
            <Position>
              <LatitudeDegrees>43.3220987208187580108642578125</LatitudeDegrees>
              <LongitudeDegrees>-3.07349880225956439971923828125</LongitudeDegrees>
            </Position>
            <AltitudeMeters>43.200000762939453125</AltitudeMeters>
            <DistanceMeters>NAN</DistanceMeters>
          </Trackpoint>
          <Trackpoint>
            <Time>2022-07-12T14:32:20.000Z</Time>
            <Position>
              <LatitudeDegrees>43.3222033269703388214111328125</LatitudeDegrees>
              <LongitudeDegrees>-3.0736205913126468658447265625</LongitudeDegrees>
            </Position>
            <AltitudeMeters>43.59999847412109375</AltitudeMeters>
            <DistanceMeters>NAN</DistanceMeters>
          </Trackpoint>
          <Trackpoint>
            <Time>2022-07-12T14:32:25.000Z</Time>
            <Position>
              <LatitudeDegrees>43.32232452929019927978515625</LatitudeDegrees>
              <LongitudeDegrees>-3.0737563781440258026123046875</LongitudeDegrees>
            </Position>
            <AltitudeMeters>43.799999237060546875</AltitudeMeters>
            <DistanceMeters>NAN</DistanceMeters>
          </Trackpoint>
          <Trackpoint>
            <Time>2022-07-12T14:32:26.000Z</Time>
            <Position>
              <LatitudeDegrees>43.32234959118068218231201171875</LatitudeDegrees>
              <LongitudeDegrees>-3.07377674616873264312744140625</LongitudeDegrees>
            </Position>
            <AltitudeMeters>43.799999237060546875</AltitudeMeters>
            <DistanceMeters>NAN</DistanceMeters>
          </Trackpoint>
          <Trackpoint>
            <Time>2022-07-12T14:32:31.000Z</Time>
            <Position>
              <LatitudeDegrees>43.3224594779312610626220703125</LatitudeDegrees>
              <LongitudeDegrees>-3.07389727793633937835693359375</LongitudeDegrees>
            </Position>
            <AltitudeMeters>44.200000762939453125</AltitudeMeters>
            <DistanceMeters>NAN</DistanceMeters>
          </Trackpoint>
          <Trackpoint>
            <Time>2022-07-12T14:32:40.000Z</Time>
            <Position>
              <LatitudeDegrees>43.32265284843742847442626953125</LatitudeDegrees>
              <LongitudeDegrees>-3.07411126792430877685546875</LongitudeDegrees>
            </Position>
            <AltitudeMeters>44.59999847412109375</AltitudeMeters>
            <DistanceMeters>NAN</DistanceMeters>
          </Trackpoint>
          <Trackpoint>
            <Time>2022-07-12T14:32:41.000Z</Time>
            <Position>
              <LatitudeDegrees>43.3226609788835048675537109375</LatitudeDegrees>
              <LongitudeDegrees>-3.07413943111896514892578125</LongitudeDegrees>
            </Position>
            <AltitudeMeters>44.59999847412109375</AltitudeMeters>
            <DistanceMeters>NAN</DistanceMeters>
          </Trackpoint>
          <Trackpoint>
            <Time>2022-07-12T14:32:43.000Z</Time>
            <Position>
              <LatitudeDegrees>43.32265167497098445892333984375</LatitudeDegrees>
              <LongitudeDegrees>-3.07415896095335483551025390625</LongitudeDegrees>
            </Position>
            <AltitudeMeters>44.40000152587890625</AltitudeMeters>
            <DistanceMeters>NAN</DistanceMeters>
          </Trackpoint>
          <Trackpoint>
            <Time>2022-07-12T14:32:45.000Z</Time>
            <Position>
              <LatitudeDegrees>43.32262736745178699493408203125</LatitudeDegrees>
              <LongitudeDegrees>-3.07414337061345577239990234375</LongitudeDegrees>
            </Position>
            <AltitudeMeters>44.40000152587890625</AltitudeMeters>
            <DistanceMeters>NAN</DistanceMeters>
          </Trackpoint>
          <Trackpoint>
            <Time>2022-07-12T14:32:47.000Z</Time>
            <Position>
              <LatitudeDegrees>43.3226175606250762939453125</LatitudeDegrees>
              <LongitudeDegrees>-3.07413649745285511016845703125</LongitudeDegrees>
            </Position>
            <AltitudeMeters>44.40000152587890625</AltitudeMeters>
            <DistanceMeters>NAN</DistanceMeters>
          </Trackpoint>
          <Trackpoint>
            <Time>2022-07-12T14:32:49.000Z</Time>
            <Position>
              <LatitudeDegrees>43.3226175606250762939453125</LatitudeDegrees>
              <LongitudeDegrees>-3.07413649745285511016845703125</LongitudeDegrees>
            </Position>
            <AltitudeMeters>44.40000152587890625</AltitudeMeters>
            <DistanceMeters>NAN</DistanceMeters>
          </Trackpoint>
          <Trackpoint>
            <Time>2022-07-12T14:33:38.000Z</Time>
            <Position>
              <LatitudeDegrees>43.3226861245930194854736328125</LatitudeDegrees>
              <LongitudeDegrees>-3.07415845803916454315185546875</LongitudeDegrees>
            </Position>
            <AltitudeMeters>44.799999237060546875</AltitudeMeters>
            <DistanceMeters>NAN</DistanceMeters>
          </Trackpoint>
          <Trackpoint>
            <Time>2022-07-12T14:33:39.000Z</Time>
            <Position>
              <LatitudeDegrees>43.32270464859902858734130859375</LatitudeDegrees>
              <LongitudeDegrees>-3.0741751380264759063720703125</LongitudeDegrees>
            </Position>
            <AltitudeMeters>45</AltitudeMeters>
            <DistanceMeters>NAN</DistanceMeters>
          </Trackpoint>
          <Trackpoint>
            <Time>2022-07-12T14:33:46.000Z</Time>
            <Position>
              <LatitudeDegrees>43.32288376986980438232421875</LatitudeDegrees>
              <LongitudeDegrees>-3.07434587739408016204833984375</LongitudeDegrees>
            </Position>
            <AltitudeMeters>45.59999847412109375</AltitudeMeters>
            <DistanceMeters>NAN</DistanceMeters>
          </Trackpoint>
          <Trackpoint>
            <Time>2022-07-12T14:33:49.000Z</Time>
            <Position>
              <LatitudeDegrees>43.32294973544776439666748046875</LatitudeDegrees>
              <LongitudeDegrees>-3.07442466728389263153076171875</LongitudeDegrees>
            </Position>
            <AltitudeMeters>46</AltitudeMeters>
            <DistanceMeters>NAN</DistanceMeters>
          </Trackpoint>
          <Trackpoint>
            <Time>2022-07-12T14:33:53.000Z</Time>
            <Position>
              <LatitudeDegrees>43.3230431936681270599365234375</LatitudeDegrees>
              <LongitudeDegrees>-3.0745161138474941253662109375</LongitudeDegrees>
            </Position>
            <AltitudeMeters>46.200000762939453125</AltitudeMeters>
            <DistanceMeters>NAN</DistanceMeters>
          </Trackpoint>
          <Trackpoint>
            <Time>2022-07-12T14:33:56.000Z</Time>
            <Position>
              <LatitudeDegrees>43.3231142722070217132568359375</LatitudeDegrees>
              <LongitudeDegrees>-3.0745895393192768096923828125</LongitudeDegrees>
            </Position>
            <AltitudeMeters>46.40000152587890625</AltitudeMeters>
            <DistanceMeters>NAN</DistanceMeters>
          </Trackpoint>
          <Trackpoint>
            <Time>2022-07-12T14:33:57.000Z</Time>
            <Position>
              <LatitudeDegrees>43.3231410942971706390380859375</LatitudeDegrees>
              <LongitudeDegrees>-3.07462164200842380523681640625</LongitudeDegrees>
            </Position>
            <AltitudeMeters>46.40000152587890625</AltitudeMeters>
            <DistanceMeters>NAN</DistanceMeters>
          </Trackpoint>
          <Trackpoint>
            <Time>2022-07-12T14:33:58.000Z</Time>
            <Position>
              <LatitudeDegrees>43.3231602050364017486572265625</LatitudeDegrees>
              <LongitudeDegrees>-3.07464594952762126922607421875</LongitudeDegrees>
            </Position>
            <AltitudeMeters>46.59999847412109375</AltitudeMeters>
            <DistanceMeters>NAN</DistanceMeters>
          </Trackpoint>
          <Trackpoint>
            <Time>2022-07-12T14:33:59.000Z</Time>
            <Position>
              <LatitudeDegrees>43.323176465928554534912109375</LatitudeDegrees>
              <LongitudeDegrees>-3.0746658146381378173828125</LongitudeDegrees>
            </Position>
            <AltitudeMeters>46.59999847412109375</AltitudeMeters>
            <DistanceMeters>NAN</DistanceMeters>
          </Trackpoint>
          <Trackpoint>
            <Time>2022-07-12T14:34:04.000Z</Time>
            <Position>
              <LatitudeDegrees>43.32329087890684604644775390625</LatitudeDegrees>
              <LongitudeDegrees>-3.07479112409055233001708984375</LongitudeDegrees>
            </Position>
            <AltitudeMeters>46.799999237060546875</AltitudeMeters>
            <DistanceMeters>NAN</DistanceMeters>
          </Trackpoint>
          <Trackpoint>
            <Time>2022-07-12T14:34:05.000Z</Time>
            <Position>
              <LatitudeDegrees>43.3233124203979969024658203125</LatitudeDegrees>
              <LongitudeDegrees>-3.074815683066844940185546875</LongitudeDegrees>
            </Position>
            <AltitudeMeters>47</AltitudeMeters>
            <DistanceMeters>NAN</DistanceMeters>
          </Trackpoint>
          <Trackpoint>
            <Time>2022-07-12T14:34:07.000Z</Time>
            <Position>
              <LatitudeDegrees>43.323349468410015106201171875</LatitudeDegrees>
              <LongitudeDegrees>-3.07486404664814472198486328125</LongitudeDegrees>
            </Position>
            <AltitudeMeters>47</AltitudeMeters>
            <DistanceMeters>NAN</DistanceMeters>
          </Trackpoint>
          <Trackpoint>
            <Time>2022-07-12T14:34:09.000Z</Time>
            <Position>
              <LatitudeDegrees>43.32338509149849414825439453125</LatitudeDegrees>
              <LongitudeDegrees>-3.0749114044010639190673828125</LongitudeDegrees>
            </Position>
            <AltitudeMeters>47</AltitudeMeters>
            <DistanceMeters>NAN</DistanceMeters>
          </Trackpoint>
          <Trackpoint>
            <Time>2022-07-12T14:34:12.000Z</Time>
            <Position>
              <LatitudeDegrees>43.3234448544681072235107421875</LatitudeDegrees>
              <LongitudeDegrees>-3.07499773800373077392578125</LongitudeDegrees>
            </Position>
            <AltitudeMeters>47.200000762939453125</AltitudeMeters>
            <DistanceMeters>NAN</DistanceMeters>
          </Trackpoint>
          <Trackpoint>
            <Time>2022-07-12T14:34:15.000Z</Time>
            <Position>
              <LatitudeDegrees>43.32350612618029117584228515625</LatitudeDegrees>
              <LongitudeDegrees>-3.075069151818752288818359375</LongitudeDegrees>
            </Position>
            <AltitudeMeters>47.40000152587890625</AltitudeMeters>
            <DistanceMeters>NAN</DistanceMeters>
          </Trackpoint>
          <Trackpoint>
            <Time>2022-07-12T14:34:25.000Z</Time>
            <Position>
              <LatitudeDegrees>43.32370444200932979583740234375</LatitudeDegrees>
              <LongitudeDegrees>-3.07538791559636592864990234375</LongitudeDegrees>
            </Position>
            <AltitudeMeters>47.59999847412109375</AltitudeMeters>
            <DistanceMeters>NAN</DistanceMeters>
          </Trackpoint>
          <Trackpoint>
            <Time>2022-07-12T14:34:32.000Z</Time>
            <Position>
              <LatitudeDegrees>43.32387375645339488983154296875</LatitudeDegrees>
              <LongitudeDegrees>-3.07567373849451541900634765625</LongitudeDegrees>
            </Position>
            <AltitudeMeters>47.200000762939453125</AltitudeMeters>
            <DistanceMeters>NAN</DistanceMeters>
          </Trackpoint>
          <Trackpoint>
            <Time>2022-07-12T14:34:38.000Z</Time>
            <Position>
              <LatitudeDegrees>43.32406016997992992401123046875</LatitudeDegrees>
              <LongitudeDegrees>-3.07602393440902233123779296875</LongitudeDegrees>
            </Position>
            <AltitudeMeters>46.40000152587890625</AltitudeMeters>
            <DistanceMeters>NAN</DistanceMeters>
          </Trackpoint>
          <Trackpoint>
            <Time>2022-07-12T14:34:42.000Z</Time>
            <Position>
              <LatitudeDegrees>43.3241901732981204986572265625</LatitudeDegrees>
              <LongitudeDegrees>-3.076300285756587982177734375</LongitudeDegrees>
            </Position>
            <AltitudeMeters>46</AltitudeMeters>
            <DistanceMeters>NAN</DistanceMeters>
          </Trackpoint>
          <Trackpoint>
            <Time>2022-07-12T14:34:43.000Z</Time>
            <Position>
              <LatitudeDegrees>43.324233591556549072265625</LatitudeDegrees>
              <LongitudeDegrees>-3.07638988830149173736572265625</LongitudeDegrees>
            </Position>
            <AltitudeMeters>46</AltitudeMeters>
            <DistanceMeters>NAN</DistanceMeters>
          </Trackpoint>
          <Trackpoint>
            <Time>2022-07-12T14:34:44.000Z</Time>
            <Position>
              <LatitudeDegrees>43.32426904700696468353271484375</LatitudeDegrees>
              <LongitudeDegrees>-3.07646968401968479156494140625</LongitudeDegrees>
            </Position>
            <AltitudeMeters>46</AltitudeMeters>
            <DistanceMeters>NAN</DistanceMeters>
          </Trackpoint>
          <Trackpoint>
            <Time>2022-07-12T14:34:46.000Z</Time>
            <Position>
              <LatitudeDegrees>43.32433509640395641326904296875</LatitudeDegrees>
              <LongitudeDegrees>-3.07661100290715694427490234375</LongitudeDegrees>
            </Position>
            <AltitudeMeters>44.799999237060546875</AltitudeMeters>
            <DistanceMeters>NAN</DistanceMeters>
          </Trackpoint>
          <Trackpoint>
            <Time>2022-07-12T14:34:47.000Z</Time>
            <Position>
              <LatitudeDegrees>43.32437532953917980194091796875</LatitudeDegrees>
              <LongitudeDegrees>-3.07668375782668590545654296875</LongitudeDegrees>
            </Position>
            <AltitudeMeters>44.59999847412109375</AltitudeMeters>
            <DistanceMeters>NAN</DistanceMeters>
          </Trackpoint>
          <Trackpoint>
            <Time>2022-07-12T14:34:50.000Z</Time>
            <Position>
              <LatitudeDegrees>43.3245197497308254241943359375</LatitudeDegrees>
              <LongitudeDegrees>-3.07691375724971294403076171875</LongitudeDegrees>
            </Position>
            <AltitudeMeters>44</AltitudeMeters>
            <DistanceMeters>NAN</DistanceMeters>
          </Trackpoint>
          <Trackpoint>
            <Time>2022-07-12T14:34:51.000Z</Time>
            <Position>
              <LatitudeDegrees>43.324568532407283782958984375</LatitudeDegrees>
              <LongitudeDegrees>-3.07695734314620494842529296875</LongitudeDegrees>
            </Position>
            <AltitudeMeters>43.40000152587890625</AltitudeMeters>
            <DistanceMeters>NAN</DistanceMeters>
          </Trackpoint>
          <Trackpoint>
            <Time>2022-07-12T14:34:52.000Z</Time>
            <Position>
              <LatitudeDegrees>43.324636258184909820556640625</LatitudeDegrees>
              <LongitudeDegrees>-3.076986260712146759033203125</LongitudeDegrees>
            </Position>
            <AltitudeMeters>43</AltitudeMeters>
            <DistanceMeters>NAN</DistanceMeters>
          </Trackpoint>
          <Trackpoint>
            <Time>2022-07-12T14:34:54.000Z</Time>
            <Position>
              <LatitudeDegrees>43.32478453405201435089111328125</LatitudeDegrees>
              <LongitudeDegrees>-3.07693404145538806915283203125</LongitudeDegrees>
            </Position>
            <AltitudeMeters>42.40000152587890625</AltitudeMeters>
            <DistanceMeters>NAN</DistanceMeters>
          </Trackpoint>
          <Trackpoint>
            <Time>2022-07-12T14:34:56.000Z</Time>
            <Position>
              <LatitudeDegrees>43.32486324012279510498046875</LatitudeDegrees>
              <LongitudeDegrees>-3.0767959915101528167724609375</LongitudeDegrees>
            </Position>
            <AltitudeMeters>41.799999237060546875</AltitudeMeters>
            <DistanceMeters>NAN</DistanceMeters>
          </Trackpoint>
          <Trackpoint>
            <Time>2022-07-12T14:34:57.000Z</Time>
            <Position>
              <LatitudeDegrees>43.32488327287137508392333984375</LatitudeDegrees>
              <LongitudeDegrees>-3.07670203037559986114501953125</LongitudeDegrees>
            </Position>
            <AltitudeMeters>41.799999237060546875</AltitudeMeters>
            <DistanceMeters>NAN</DistanceMeters>
          </Trackpoint>
          <Trackpoint>
            <Time>2022-07-12T14:34:59.000Z</Time>
            <Position>
              <LatitudeDegrees>43.32490523345768451690673828125</LatitudeDegrees>
              <LongitudeDegrees>-3.07649977505207061767578125</LongitudeDegrees>
            </Position>
            <AltitudeMeters>41</AltitudeMeters>
            <DistanceMeters>NAN</DistanceMeters>
          </Trackpoint>
          <Trackpoint>
            <Time>2022-07-12T14:35:04.000Z</Time>
            <Position>
              <LatitudeDegrees>43.32496424205601215362548828125</LatitudeDegrees>
              <LongitudeDegrees>-3.07609870098531246185302734375</LongitudeDegrees>
            </Position>
            <AltitudeMeters>41</AltitudeMeters>
            <DistanceMeters>NAN</DistanceMeters>
          </Trackpoint>
          <Trackpoint>
            <Time>2022-07-12T14:35:09.000Z</Time>
            <Position>
              <LatitudeDegrees>43.3250253461301326751708984375</LatitudeDegrees>
              <LongitudeDegrees>-3.075768537819385528564453125</LongitudeDegrees>
            </Position>
            <AltitudeMeters>41.59999847412109375</AltitudeMeters>
            <DistanceMeters>NAN</DistanceMeters>
          </Trackpoint>
          <Trackpoint>
            <Time>2022-07-12T14:35:10.000Z</Time>
            <Position>
              <LatitudeDegrees>43.32504160702228546142578125</LatitudeDegrees>
              <LongitudeDegrees>-3.0757103674113750457763671875</LongitudeDegrees>
            </Position>
            <AltitudeMeters>41.799999237060546875</AltitudeMeters>
            <DistanceMeters>NAN</DistanceMeters>
          </Trackpoint>
          <Trackpoint>
            <Time>2022-07-12T14:35:12.000Z</Time>
            <Position>
              <LatitudeDegrees>43.3250773139297962188720703125</LatitudeDegrees>
              <LongitudeDegrees>-3.075601570308208465576171875</LongitudeDegrees>
            </Position>
            <AltitudeMeters>42.200000762939453125</AltitudeMeters>
            <DistanceMeters>NAN</DistanceMeters>
          </Trackpoint>
          <Trackpoint>
            <Time>2022-07-12T14:35:16.000Z</Time>
            <Position>
              <LatitudeDegrees>43.32514755427837371826171875</LatitudeDegrees>
              <LongitudeDegrees>-3.0754317529499530792236328125</LongitudeDegrees>
            </Position>
            <AltitudeMeters>42.799999237060546875</AltitudeMeters>
            <DistanceMeters>NAN</DistanceMeters>
          </Trackpoint>
          <Trackpoint>
            <Time>2022-07-12T14:35:19.000Z</Time>
            <Position>
              <LatitudeDegrees>43.3252027072012424468994140625</LatitudeDegrees>
              <LongitudeDegrees>-3.07530619204044342041015625</LongitudeDegrees>
            </Position>
            <AltitudeMeters>43.200000762939453125</AltitudeMeters>
            <DistanceMeters>NAN</DistanceMeters>
          </Trackpoint>
          <Trackpoint>
            <Time>2022-07-12T14:35:24.000Z</Time>
            <Position>
              <LatitudeDegrees>43.32529180683195590972900390625</LatitudeDegrees>
              <LongitudeDegrees>-3.07510125450789928436279296875</LongitudeDegrees>
            </Position>
            <AltitudeMeters>44</AltitudeMeters>
            <DistanceMeters>NAN</DistanceMeters>
          </Trackpoint>
          <Trackpoint>
            <Time>2022-07-12T14:35:28.000Z</Time>
            <Position>
              <LatitudeDegrees>43.32539574243128299713134765625</LatitudeDegrees>
              <LongitudeDegrees>-3.074989020824432373046875</LongitudeDegrees>
            </Position>
            <AltitudeMeters>44.40000152587890625</AltitudeMeters>
            <DistanceMeters>NAN</DistanceMeters>
          </Trackpoint>
          <Trackpoint>
            <Time>2022-07-12T14:35:29.000Z</Time>
            <Position>
              <LatitudeDegrees>43.3254263363778591156005859375</LatitudeDegrees>
              <LongitudeDegrees>-3.07497217319905757904052734375</LongitudeDegrees>
            </Position>
            <AltitudeMeters>44.40000152587890625</AltitudeMeters>
            <DistanceMeters>NAN</DistanceMeters>
          </Trackpoint>
          <Trackpoint>
            <Time>2022-07-12T14:35:33.000Z</Time>
            <Position>
              <LatitudeDegrees>43.325533457100391387939453125</LatitudeDegrees>
              <LongitudeDegrees>-3.07499379850924015045166015625</LongitudeDegrees>
            </Position>
            <AltitudeMeters>45</AltitudeMeters>
            <DistanceMeters>NAN</DistanceMeters>
          </Trackpoint>
          <Trackpoint>
            <Time>2022-07-12T14:35:35.000Z</Time>
            <Position>
              <LatitudeDegrees>43.325590454041957855224609375</LatitudeDegrees>
              <LongitudeDegrees>-3.0750287510454654693603515625</LongitudeDegrees>
            </Position>
            <AltitudeMeters>45</AltitudeMeters>
            <DistanceMeters>NAN</DistanceMeters>
          </Trackpoint>
          <Trackpoint>
            <Time>2022-07-12T14:35:38.000Z</Time>
            <Position>
              <LatitudeDegrees>43.325644098222255706787109375</LatitudeDegrees>
              <LongitudeDegrees>-3.0751045234501361846923828125</LongitudeDegrees>
            </Position>
            <AltitudeMeters>45.200000762939453125</AltitudeMeters>
            <DistanceMeters>NAN</DistanceMeters>
          </Trackpoint>
          <Trackpoint>
            <Time>2022-07-12T14:35:39.000Z</Time>
            <Position>
              <LatitudeDegrees>43.325658850371837615966796875</LatitudeDegrees>
              <LongitudeDegrees>-3.0751405656337738037109375</LongitudeDegrees>
            </Position>
            <AltitudeMeters>45.40000152587890625</AltitudeMeters>
            <DistanceMeters>NAN</DistanceMeters>
          </Trackpoint>
          <Trackpoint>
            <Time>2022-07-12T14:35:44.000Z</Time>
            <Position>
              <LatitudeDegrees>43.32570939324796199798583984375</LatitudeDegrees>
              <LongitudeDegrees>-3.0753264762461185455322265625</LongitudeDegrees>
            </Position>
            <AltitudeMeters>46</AltitudeMeters>
            <DistanceMeters>NAN</DistanceMeters>
          </Trackpoint>
          <Trackpoint>
            <Time>2022-07-12T14:35:45.000Z</Time>
            <Position>
              <LatitudeDegrees>43.3257183618843555450439453125</LatitudeDegrees>
              <LongitudeDegrees>-3.075364530086517333984375</LongitudeDegrees>
            </Position>
            <AltitudeMeters>46.200000762939453125</AltitudeMeters>
            <DistanceMeters>NAN</DistanceMeters>
          </Trackpoint>
          <Trackpoint>
            <Time>2022-07-12T14:35:48.000Z</Time>
            <Position>
              <LatitudeDegrees>43.3257408253848552703857421875</LatitudeDegrees>
              <LongitudeDegrees>-3.07547274045646190643310546875</LongitudeDegrees>
            </Position>
            <AltitudeMeters>46.40000152587890625</AltitudeMeters>
            <DistanceMeters>NAN</DistanceMeters>
          </Trackpoint>
          <Trackpoint>
            <Time>2022-07-12T14:35:55.000Z</Time>
            <Position>
              <LatitudeDegrees>43.32580142654478549957275390625</LatitudeDegrees>
              <LongitudeDegrees>-3.0757184140384197235107421875</LongitudeDegrees>
            </Position>
            <AltitudeMeters>46.799999237060546875</AltitudeMeters>
            <DistanceMeters>NAN</DistanceMeters>
          </Trackpoint>
          <Trackpoint>
            <Time>2022-07-12T14:36:03.000Z</Time>
            <Position>
              <LatitudeDegrees>43.32586127333343029022216796875</LatitudeDegrees>
              <LongitudeDegrees>-3.07596760801970958709716796875</LongitudeDegrees>
            </Position>
            <AltitudeMeters>47.40000152587890625</AltitudeMeters>
            <DistanceMeters>NAN</DistanceMeters>
          </Trackpoint>
          <Trackpoint>
            <Time>2022-07-12T14:36:05.000Z</Time>
            <Position>
              <LatitudeDegrees>43.3258725889027118682861328125</LatitudeDegrees>
              <LongitudeDegrees>-3.07602779008448123931884765625</LongitudeDegrees>
            </Position>
            <AltitudeMeters>47.40000152587890625</AltitudeMeters>
            <DistanceMeters>NAN</DistanceMeters>
          </Trackpoint>
          <Trackpoint>
            <Time>2022-07-12T14:36:13.000Z</Time>
            <Position>
              <LatitudeDegrees>43.32591206766664981842041015625</LatitudeDegrees>
              <LongitudeDegrees>-3.0762726254761219024658203125</LongitudeDegrees>
            </Position>
            <AltitudeMeters>48.40000152587890625</AltitudeMeters>
            <DistanceMeters>NAN</DistanceMeters>
          </Trackpoint>
          <Trackpoint>
            <Time>2022-07-12T14:36:14.000Z</Time>
            <Position>
              <LatitudeDegrees>43.32591575570404529571533203125</LatitudeDegrees>
              <LongitudeDegrees>-3.0763088352978229522705078125</LongitudeDegrees>
            </Position>
            <AltitudeMeters>48.59999847412109375</AltitudeMeters>
            <DistanceMeters>NAN</DistanceMeters>
          </Trackpoint>
          <Trackpoint>
            <Time>2022-07-12T14:36:21.000Z</Time>
            <Position>
              <LatitudeDegrees>43.32596504129469394683837890625</LatitudeDegrees>
              <LongitudeDegrees>-3.07651796378195285797119140625</LongitudeDegrees>
            </Position>
            <AltitudeMeters>49</AltitudeMeters>
            <DistanceMeters>NAN</DistanceMeters>
          </Trackpoint>
          <Trackpoint>
            <Time>2022-07-12T14:36:29.000Z</Time>
            <Position>
              <LatitudeDegrees>43.32602329552173614501953125</LatitudeDegrees>
              <LongitudeDegrees>-3.07677797041833400726318359375</LongitudeDegrees>
            </Position>
            <AltitudeMeters>49.200000762939453125</AltitudeMeters>
            <DistanceMeters>NAN</DistanceMeters>
          </Trackpoint>
          <Trackpoint>
            <Time>2022-07-12T14:36:37.000Z</Time>
            <Position>
              <LatitudeDegrees>43.32609244622290134429931640625</LatitudeDegrees>
              <LongitudeDegrees>-3.07701266370713710784912109375</LongitudeDegrees>
            </Position>
            <AltitudeMeters>49.59999847412109375</AltitudeMeters>
            <DistanceMeters>NAN</DistanceMeters>
          </Trackpoint>
          <Trackpoint>
            <Time>2022-07-12T14:36:38.000Z</Time>
            <Position>
              <LatitudeDegrees>43.32610501907765865325927734375</LatitudeDegrees>
              <LongitudeDegrees>-3.07704049162566661834716796875</LongitudeDegrees>
            </Position>
            <AltitudeMeters>49.59999847412109375</AltitudeMeters>
            <DistanceMeters>NAN</DistanceMeters>
          </Trackpoint>
          <Trackpoint>
            <Time>2022-07-12T14:36:44.000Z</Time>
            <Position>
              <LatitudeDegrees>43.32617542706429958343505859375</LatitudeDegrees>
              <LongitudeDegrees>-3.0772033520042896270751953125</LongitudeDegrees>
            </Position>
            <AltitudeMeters>50</AltitudeMeters>
            <DistanceMeters>NAN</DistanceMeters>
          </Trackpoint>
          <Trackpoint>
            <Time>2022-07-12T14:36:48.000Z</Time>
            <Position>
              <LatitudeDegrees>43.32623795606195926666259765625</LatitudeDegrees>
              <LongitudeDegrees>-3.0773180164396762847900390625</LongitudeDegrees>
            </Position>
            <AltitudeMeters>50.40000152587890625</AltitudeMeters>
            <DistanceMeters>NAN</DistanceMeters>
          </Trackpoint>
          <Trackpoint>
            <Time>2022-07-12T14:36:54.000Z</Time>
            <Position>
              <LatitudeDegrees>43.32634792663156986236572265625</LatitudeDegrees>
              <LongitudeDegrees>-3.07745573110878467559814453125</LongitudeDegrees>
            </Position>
            <AltitudeMeters>50.59999847412109375</AltitudeMeters>
            <DistanceMeters>NAN</DistanceMeters>
          </Trackpoint>
          <Trackpoint>
            <Time>2022-07-12T14:36:58.000Z</Time>
            <Position>
              <LatitudeDegrees>43.32644482143223285675048828125</LatitudeDegrees>
              <LongitudeDegrees>-3.0775446631014347076416015625</LongitudeDegrees>
            </Position>
            <AltitudeMeters>51</AltitudeMeters>
            <DistanceMeters>NAN</DistanceMeters>
          </Trackpoint>
          <Trackpoint>
            <Time>2022-07-12T14:37:04.000Z</Time>
            <Position>
              <LatitudeDegrees>43.32663609646260738372802734375</LatitudeDegrees>
              <LongitudeDegrees>-3.07768438942730426788330078125</LongitudeDegrees>
            </Position>
            <AltitudeMeters>49.799999237060546875</AltitudeMeters>
            <DistanceMeters>NAN</DistanceMeters>
          </Trackpoint>
          <Trackpoint>
            <Time>2022-07-12T14:37:05.000Z</Time>
            <Position>
              <LatitudeDegrees>43.32667767070233821868896484375</LatitudeDegrees>
              <LongitudeDegrees>-3.07771707884967327117919921875</LongitudeDegrees>
            </Position>
            <AltitudeMeters>49.59999847412109375</AltitudeMeters>
            <DistanceMeters>NAN</DistanceMeters>
          </Trackpoint>
          <Trackpoint>
            <Time>2022-07-12T14:37:11.000Z</Time>
            <Position>
              <LatitudeDegrees>43.32689576782286167144775390625</LatitudeDegrees>
              <LongitudeDegrees>-3.07787231169641017913818359375</LongitudeDegrees>
            </Position>
            <AltitudeMeters>49.59999847412109375</AltitudeMeters>
            <DistanceMeters>NAN</DistanceMeters>
          </Trackpoint>
          <Trackpoint>
            <Time>2022-07-12T14:37:13.000Z</Time>
            <Position>
              <LatitudeDegrees>43.32696533761918544769287109375</LatitudeDegrees>
              <LongitudeDegrees>-3.07792662642896175384521484375</LongitudeDegrees>
            </Position>
            <AltitudeMeters>49.59999847412109375</AltitudeMeters>
            <DistanceMeters>NAN</DistanceMeters>
          </Trackpoint>
          <Trackpoint>
            <Time>2022-07-12T14:37:18.000Z</Time>
            <Position>
              <LatitudeDegrees>43.327178992331027984619140625</LatitudeDegrees>
              <LongitudeDegrees>-3.07808353565633296966552734375</LongitudeDegrees>
            </Position>
            <AltitudeMeters>49</AltitudeMeters>
            <DistanceMeters>NAN</DistanceMeters>
          </Trackpoint>
          <Trackpoint>
            <Time>2022-07-12T14:37:20.000Z</Time>
            <Position>
              <LatitudeDegrees>43.32725308835506439208984375</LatitudeDegrees>
              <LongitudeDegrees>-3.078145645558834075927734375</LongitudeDegrees>
            </Position>
            <AltitudeMeters>49</AltitudeMeters>
            <DistanceMeters>NAN</DistanceMeters>
          </Trackpoint>
          <Trackpoint>
            <Time>2022-07-12T14:37:27.000Z</Time>
            <Position>
              <LatitudeDegrees>43.32756162621080875396728515625</LatitudeDegrees>
              <LongitudeDegrees>-3.07838042266666889190673828125</LongitudeDegrees>
            </Position>
            <AltitudeMeters>49.200000762939453125</AltitudeMeters>
            <DistanceMeters>NAN</DistanceMeters>
          </Trackpoint>
          <Trackpoint>
            <Time>2022-07-12T14:37:28.000Z</Time>
            <Position>
              <LatitudeDegrees>43.3276096545159816741943359375</LatitudeDegrees>
              <LongitudeDegrees>-3.07841395027935504913330078125</LongitudeDegrees>
            </Position>
            <AltitudeMeters>49.200000762939453125</AltitudeMeters>
            <DistanceMeters>NAN</DistanceMeters>
          </Trackpoint>
          <Trackpoint>
            <Time>2022-07-12T14:37:31.000Z</Time>
            <Position>
              <LatitudeDegrees>43.32776807248592376708984375</LatitudeDegrees>
              <LongitudeDegrees>-3.07851721532642841339111328125</LongitudeDegrees>
            </Position>
            <AltitudeMeters>49</AltitudeMeters>
            <DistanceMeters>NAN</DistanceMeters>
          </Trackpoint>
          <Trackpoint>
            <Time>2022-07-12T14:37:33.000Z</Time>
            <Position>
              <LatitudeDegrees>43.32785968668758869171142578125</LatitudeDegrees>
              <LongitudeDegrees>-3.07856800965964794158935546875</LongitudeDegrees>
            </Position>
            <AltitudeMeters>48.799999237060546875</AltitudeMeters>
            <DistanceMeters>NAN</DistanceMeters>
          </Trackpoint>
          <Trackpoint>
            <Time>2022-07-12T14:37:36.000Z</Time>
            <Position>
              <LatitudeDegrees>43.3280163444578647613525390625</LatitudeDegrees>
              <LongitudeDegrees>-3.07865954004228115081787109375</LongitudeDegrees>
            </Position>
            <AltitudeMeters>48.59999847412109375</AltitudeMeters>
            <DistanceMeters>NAN</DistanceMeters>
          </Trackpoint>
          <Trackpoint>
            <Time>2022-07-12T14:37:40.000Z</Time>
            <Position>
              <LatitudeDegrees>43.32823536358773708343505859375</LatitudeDegrees>
              <LongitudeDegrees>-3.07876766659319400787353515625</LongitudeDegrees>
            </Position>
            <AltitudeMeters>48.59999847412109375</AltitudeMeters>
            <DistanceMeters>NAN</DistanceMeters>
          </Trackpoint>
          <Trackpoint>
            <Time>2022-07-12T14:37:44.000Z</Time>
            <Position>
              <LatitudeDegrees>43.328444994986057281494140625</LatitudeDegrees>
              <LongitudeDegrees>-3.07885316200554370880126953125</LongitudeDegrees>
            </Position>
            <AltitudeMeters>47.59999847412109375</AltitudeMeters>
            <DistanceMeters>NAN</DistanceMeters>
          </Trackpoint>
          <Trackpoint>
            <Time>2022-07-12T14:37:46.000Z</Time>
            <Position>
              <LatitudeDegrees>43.328540883958339691162109375</LatitudeDegrees>
              <LongitudeDegrees>-3.07888803072273731231689453125</LongitudeDegrees>
            </Position>
            <AltitudeMeters>47.40000152587890625</AltitudeMeters>
            <DistanceMeters>NAN</DistanceMeters>
          </Trackpoint>
          <Trackpoint>
            <Time>2022-07-12T14:37:54.000Z</Time>
            <Position>
              <LatitudeDegrees>43.3289422094821929931640625</LatitudeDegrees>
              <LongitudeDegrees>-3.07907360605895519256591796875</LongitudeDegrees>
            </Position>
            <AltitudeMeters>46.59999847412109375</AltitudeMeters>
            <DistanceMeters>NAN</DistanceMeters>
          </Trackpoint>
          <Trackpoint>
            <Time>2022-07-12T14:38:00.000Z</Time>
            <Position>
              <LatitudeDegrees>43.3291643299162387847900390625</LatitudeDegrees>
              <LongitudeDegrees>-3.07928265072405338287353515625</LongitudeDegrees>
            </Position>
            <AltitudeMeters>46.59999847412109375</AltitudeMeters>
            <DistanceMeters>NAN</DistanceMeters>
          </Trackpoint>
          <Trackpoint>
            <Time>2022-07-12T14:38:01.000Z</Time>
            <Position>
              <LatitudeDegrees>43.32918989472091197967529296875</LatitudeDegrees>
              <LongitudeDegrees>-3.0793065391480922698974609375</LongitudeDegrees>
            </Position>
            <AltitudeMeters>46.59999847412109375</AltitudeMeters>
            <DistanceMeters>NAN</DistanceMeters>
          </Trackpoint>
          <Trackpoint>
            <Time>2022-07-12T14:38:02.000Z</Time>
            <Position>
              <LatitudeDegrees>43.329220823943614959716796875</LatitudeDegrees>
              <LongitudeDegrees>-3.079333864152431488037109375</LongitudeDegrees>
            </Position>
            <AltitudeMeters>46.40000152587890625</AltitudeMeters>
            <DistanceMeters>NAN</DistanceMeters>
          </Trackpoint>
          <Trackpoint>
            <Time>2022-07-12T14:38:05.000Z</Time>
            <Position>
              <LatitudeDegrees>43.3292940817773342132568359375</LatitudeDegrees>
              <LongitudeDegrees>-3.07937233708798885345458984375</LongitudeDegrees>
            </Position>
            <AltitudeMeters>46.40000152587890625</AltitudeMeters>
            <DistanceMeters>NAN</DistanceMeters>
          </Trackpoint>
          <Trackpoint>
            <Time>2022-07-12T14:38:07.000Z</Time>
            <Position>
              <LatitudeDegrees>43.32931444980204105377197265625</LatitudeDegrees>
              <LongitudeDegrees>-3.0793957225978374481201171875</LongitudeDegrees>
            </Position>
            <AltitudeMeters>46.40000152587890625</AltitudeMeters>
            <DistanceMeters>NAN</DistanceMeters>
          </Trackpoint>
          <Trackpoint>
            <Time>2022-07-12T14:38:09.000Z</Time>
            <Position>
              <LatitudeDegrees>43.3293038047850131988525390625</LatitudeDegrees>
              <LongitudeDegrees>-3.07942874729633331298828125</LongitudeDegrees>
            </Position>
            <AltitudeMeters>46.799999237060546875</AltitudeMeters>
            <DistanceMeters>NAN</DistanceMeters>
          </Trackpoint>
          <Trackpoint>
            <Time>2022-07-12T14:38:15.000Z</Time>
            <Position>
              <LatitudeDegrees>43.32925527356564998626708984375</LatitudeDegrees>
              <LongitudeDegrees>-3.079543411731719970703125</LongitudeDegrees>
            </Position>
            <AltitudeMeters>47</AltitudeMeters>
            <DistanceMeters>NAN</DistanceMeters>
          </Trackpoint>
          <Trackpoint>
            <Time>2022-07-12T14:38:21.000Z</Time>
            <Position>
              <LatitudeDegrees>43.32915133796632289886474609375</LatitudeDegrees>
              <LongitudeDegrees>-3.0796726606786251068115234375</LongitudeDegrees>
            </Position>
            <AltitudeMeters>47</AltitudeMeters>
            <DistanceMeters>NAN</DistanceMeters>
          </Trackpoint>
          <Trackpoint>
            <Time>2022-07-12T14:38:23.000Z</Time>
            <Position>
              <LatitudeDegrees>43.329105488955974578857421875</LatitudeDegrees>
              <LongitudeDegrees>-3.0797289870679378509521484375</LongitudeDegrees>
            </Position>
            <AltitudeMeters>47</AltitudeMeters>
            <DistanceMeters>NAN</DistanceMeters>
          </Trackpoint>
          <Trackpoint>
            <Time>2022-07-12T14:38:25.000Z</Time>
            <Position>
              <LatitudeDegrees>43.329073302447795867919921875</LatitudeDegrees>
              <LongitudeDegrees>-3.07981138117611408233642578125</LongitudeDegrees>
            </Position>
            <AltitudeMeters>47</AltitudeMeters>
            <DistanceMeters>NAN</DistanceMeters>
          </Trackpoint>
          <Trackpoint>
            <Time>2022-07-12T14:38:29.000Z</Time>
            <Position>
              <LatitudeDegrees>43.32908771932125091552734375</LatitudeDegrees>
              <LongitudeDegrees>-3.0799760855734348297119140625</LongitudeDegrees>
            </Position>
            <AltitudeMeters>47.40000152587890625</AltitudeMeters>
            <DistanceMeters>NAN</DistanceMeters>
          </Trackpoint>
          <Trackpoint>
            <Time>2022-07-12T14:38:30.000Z</Time>
            <Position>
              <LatitudeDegrees>43.3290996216237545013427734375</LatitudeDegrees>
              <LongitudeDegrees>-3.08001346886157989501953125</LongitudeDegrees>
            </Position>
            <AltitudeMeters>47.59999847412109375</AltitudeMeters>
            <DistanceMeters>NAN</DistanceMeters>
          </Trackpoint>
          <Trackpoint>
            <Time>2022-07-12T14:38:37.000Z</Time>
            <Position>
              <LatitudeDegrees>43.32920171320438385009765625</LatitudeDegrees>
              <LongitudeDegrees>-3.08031328953802585601806640625</LongitudeDegrees>
            </Position>
            <AltitudeMeters>47.799999237060546875</AltitudeMeters>
            <DistanceMeters>NAN</DistanceMeters>
          </Trackpoint>
          <Trackpoint>
            <Time>2022-07-12T14:38:44.000Z</Time>
            <Position>
              <LatitudeDegrees>43.32927337847650051116943359375</LatitudeDegrees>
              <LongitudeDegrees>-3.08062274940311908721923828125</LongitudeDegrees>
            </Position>
            <AltitudeMeters>48</AltitudeMeters>
            <DistanceMeters>NAN</DistanceMeters>
          </Trackpoint>
          <Trackpoint>
            <Time>2022-07-12T14:38:47.000Z</Time>
            <Position>
              <LatitudeDegrees>43.329303301870822906494140625</LatitudeDegrees>
              <LongitudeDegrees>-3.08076088316738605499267578125</LongitudeDegrees>
            </Position>
            <AltitudeMeters>48.200000762939453125</AltitudeMeters>
            <DistanceMeters>NAN</DistanceMeters>
          </Trackpoint>
          <Trackpoint>
            <Time>2022-07-12T14:38:53.000Z</Time>
            <Position>
              <LatitudeDegrees>43.32930657081305980682373046875</LatitudeDegrees>
              <LongitudeDegrees>-3.08101653121411800384521484375</LongitudeDegrees>
            </Position>
            <AltitudeMeters>48</AltitudeMeters>
            <DistanceMeters>NAN</DistanceMeters>
          </Trackpoint>
          <Trackpoint>
            <Time>2022-07-12T14:39:00.000Z</Time>
            <Position>
              <LatitudeDegrees>43.329219482839107513427734375</LatitudeDegrees>
              <LongitudeDegrees>-3.081270419061183929443359375</LongitudeDegrees>
            </Position>
            <AltitudeMeters>48.200000762939453125</AltitudeMeters>
            <DistanceMeters>NAN</DistanceMeters>
          </Trackpoint>
          <Trackpoint>
            <Time>2022-07-12T14:39:05.000Z</Time>
            <Position>
              <LatitudeDegrees>43.329179920256137847900390625</LatitudeDegrees>
              <LongitudeDegrees>-3.081394135951995849609375</LongitudeDegrees>
            </Position>
            <AltitudeMeters>48.200000762939453125</AltitudeMeters>
            <DistanceMeters>NAN</DistanceMeters>
          </Trackpoint>
          <Trackpoint>
            <Time>2022-07-12T14:39:06.000Z</Time>
            <Position>
              <LatitudeDegrees>43.32918050698935985565185546875</LatitudeDegrees>
              <LongitudeDegrees>-3.08142296969890594482421875</LongitudeDegrees>
            </Position>
            <AltitudeMeters>48.59999847412109375</AltitudeMeters>
            <DistanceMeters>NAN</DistanceMeters>
          </Trackpoint>
          <Trackpoint>
            <Time>2022-07-12T14:39:09.000Z</Time>
            <Position>
              <LatitudeDegrees>43.3292345702648162841796875</LatitudeDegrees>
              <LongitudeDegrees>-3.08150284923613071441650390625</LongitudeDegrees>
            </Position>
            <AltitudeMeters>49</AltitudeMeters>
            <DistanceMeters>NAN</DistanceMeters>
          </Trackpoint>
          <Trackpoint>
            <Time>2022-07-12T14:39:15.000Z</Time>
            <Position>
              <LatitudeDegrees>43.32937010563910007476806640625</LatitudeDegrees>
              <LongitudeDegrees>-3.08168356306850910186767578125</LongitudeDegrees>
            </Position>
            <AltitudeMeters>48.799999237060546875</AltitudeMeters>
            <DistanceMeters>NAN</DistanceMeters>
          </Trackpoint>
          <Trackpoint>
            <Time>2022-07-12T14:39:22.000Z</Time>
            <Position>
              <LatitudeDegrees>43.3295039646327495574951171875</LatitudeDegrees>
              <LongitudeDegrees>-3.081926889717578887939453125</LongitudeDegrees>
            </Position>
            <AltitudeMeters>48.59999847412109375</AltitudeMeters>
            <DistanceMeters>NAN</DistanceMeters>
          </Trackpoint>
          <Trackpoint>
            <Time>2022-07-12T14:39:28.000Z</Time>
            <Position>
              <LatitudeDegrees>43.32954704761505126953125</LatitudeDegrees>
              <LongitudeDegrees>-3.082253448665142059326171875</LongitudeDegrees>
            </Position>
            <AltitudeMeters>48</AltitudeMeters>
            <DistanceMeters>NAN</DistanceMeters>
          </Trackpoint>
          <Trackpoint>
            <Time>2022-07-12T14:39:31.000Z</Time>
            <Position>
              <LatitudeDegrees>43.3295524120330810546875</LatitudeDegrees>
              <LongitudeDegrees>-3.0824651755392551422119140625</LongitudeDegrees>
            </Position>
            <AltitudeMeters>47.200000762939453125</AltitudeMeters>
            <DistanceMeters>NAN</DistanceMeters>
          </Trackpoint>
          <Trackpoint>
            <Time>2022-07-12T14:39:33.000Z</Time>
            <Position>
              <LatitudeDegrees>43.32957194186747074127197265625</LatitudeDegrees>
              <LongitudeDegrees>-3.08263222686946392059326171875</LongitudeDegrees>
            </Position>
            <AltitudeMeters>47</AltitudeMeters>
            <DistanceMeters>NAN</DistanceMeters>
          </Trackpoint>
          <Trackpoint>
            <Time>2022-07-12T14:39:35.000Z</Time>
            <Position>
              <LatitudeDegrees>43.329618461430072784423828125</LatitudeDegrees>
              <LongitudeDegrees>-3.0827981047332286834716796875</LongitudeDegrees>
            </Position>
            <AltitudeMeters>46.200000762939453125</AltitudeMeters>
            <DistanceMeters>NAN</DistanceMeters>
          </Trackpoint>
          <Trackpoint>
            <Time>2022-07-12T14:39:36.000Z</Time>
            <Position>
              <LatitudeDegrees>43.3296583592891693115234375</LatitudeDegrees>
              <LongitudeDegrees>-3.08286599814891815185546875</LongitudeDegrees>
            </Position>
            <AltitudeMeters>46</AltitudeMeters>
            <DistanceMeters>NAN</DistanceMeters>
          </Trackpoint>
          <Trackpoint>
            <Time>2022-07-12T14:39:37.000Z</Time>
            <Position>
              <LatitudeDegrees>43.3297195471823215484619140625</LatitudeDegrees>
              <LongitudeDegrees>-3.08291561901569366455078125</LongitudeDegrees>
            </Position>
            <AltitudeMeters>45.59999847412109375</AltitudeMeters>
            <DistanceMeters>NAN</DistanceMeters>
          </Trackpoint>
          <Trackpoint>
            <Time>2022-07-12T14:39:46.000Z</Time>
            <Position>
              <LatitudeDegrees>43.33038515411317348480224609375</LatitudeDegrees>
              <LongitudeDegrees>-3.08272224850952625274658203125</LongitudeDegrees>
            </Position>
            <AltitudeMeters>42</AltitudeMeters>
            <DistanceMeters>NAN</DistanceMeters>
          </Trackpoint>
          <Trackpoint>
            <Time>2022-07-12T14:39:47.000Z</Time>
            <Position>
              <LatitudeDegrees>43.33045489154756069183349609375</LatitudeDegrees>
              <LongitudeDegrees>-3.08270179666578769683837890625</LongitudeDegrees>
            </Position>
            <AltitudeMeters>41.59999847412109375</AltitudeMeters>
            <DistanceMeters>NAN</DistanceMeters>
          </Trackpoint>
          <Trackpoint>
            <Time>2022-07-12T14:39:49.000Z</Time>
            <Position>
              <LatitudeDegrees>43.33060677163302898406982421875</LatitudeDegrees>
              <LongitudeDegrees>-3.082703053951263427734375</LongitudeDegrees>
            </Position>
            <AltitudeMeters>40.59999847412109375</AltitudeMeters>
            <DistanceMeters>NAN</DistanceMeters>
          </Trackpoint>
          <Trackpoint>
            <Time>2022-07-12T14:39:51.000Z</Time>
            <Position>
              <LatitudeDegrees>43.33076636306941509246826171875</LatitudeDegrees>
              <LongitudeDegrees>-3.08264899067580699920654296875</LongitudeDegrees>
            </Position>
            <AltitudeMeters>39.59999847412109375</AltitudeMeters>
            <DistanceMeters>NAN</DistanceMeters>
          </Trackpoint>
          <Trackpoint>
            <Time>2022-07-12T14:39:53.000Z</Time>
            <Position>
              <LatitudeDegrees>43.33093718625605106353759765625</LatitudeDegrees>
              <LongitudeDegrees>-3.08258478529751300811767578125</LongitudeDegrees>
            </Position>
            <AltitudeMeters>38</AltitudeMeters>
            <DistanceMeters>NAN</DistanceMeters>
          </Trackpoint>
          <Trackpoint>
            <Time>2022-07-12T14:39:55.000Z</Time>
            <Position>
              <LatitudeDegrees>43.33111010491847991943359375</LatitudeDegrees>
              <LongitudeDegrees>-3.08252208866178989410400390625</LongitudeDegrees>
            </Position>
            <AltitudeMeters>36.59999847412109375</AltitudeMeters>
            <DistanceMeters>NAN</DistanceMeters>
          </Trackpoint>
          <Trackpoint>
            <Time>2022-07-12T14:39:56.000Z</Time>
            <Position>
              <LatitudeDegrees>43.33118931390345096588134765625</LatitudeDegrees>
              <LongitudeDegrees>-3.08250566013157367706298828125</LongitudeDegrees>
            </Position>
            <AltitudeMeters>35.200000762939453125</AltitudeMeters>
            <DistanceMeters>NAN</DistanceMeters>
          </Trackpoint>
          <Trackpoint>
            <Time>2022-07-12T14:39:58.000Z</Time>
            <Position>
              <LatitudeDegrees>43.33129861392080783843994140625</LatitudeDegrees>
              <LongitudeDegrees>-3.0825161375105381011962890625</LongitudeDegrees>
            </Position>
            <AltitudeMeters>34.200000762939453125</AltitudeMeters>
            <DistanceMeters>NAN</DistanceMeters>
          </Trackpoint>
          <Trackpoint>
            <Time>2022-07-12T14:40:02.000Z</Time>
            <Position>
              <LatitudeDegrees>43.33143104799091815948486328125</LatitudeDegrees>
              <LongitudeDegrees>-3.0825769901275634765625</LongitudeDegrees>
            </Position>
            <AltitudeMeters>34.200000762939453125</AltitudeMeters>
            <DistanceMeters>NAN</DistanceMeters>
          </Trackpoint>
          <Trackpoint>
            <Time>2022-07-12T14:40:07.000Z</Time>
            <Position>
              <LatitudeDegrees>43.33156406879425048828125</LatitudeDegrees>
              <LongitudeDegrees>-3.08259383775293827056884765625</LongitudeDegrees>
            </Position>
            <AltitudeMeters>34.40000152587890625</AltitudeMeters>
            <DistanceMeters>NAN</DistanceMeters>
          </Trackpoint>
          <Trackpoint>
            <Time>2022-07-12T14:40:09.000Z</Time>
            <Position>
              <LatitudeDegrees>43.33166171796619892120361328125</LatitudeDegrees>
              <LongitudeDegrees>-3.082613535225391387939453125</LongitudeDegrees>
            </Position>
            <AltitudeMeters>34.59999847412109375</AltitudeMeters>
            <DistanceMeters>NAN</DistanceMeters>
          </Trackpoint>
          <Trackpoint>
            <Time>2022-07-12T14:40:12.000Z</Time>
            <Position>
              <LatitudeDegrees>43.3317811600863933563232421875</LatitudeDegrees>
              <LongitudeDegrees>-3.08267329819500446319580078125</LongitudeDegrees>
            </Position>
            <AltitudeMeters>34.59999847412109375</AltitudeMeters>
            <DistanceMeters>NAN</DistanceMeters>
          </Trackpoint>
          <Trackpoint>
            <Time>2022-07-12T14:40:13.000Z</Time>
            <Position>
              <LatitudeDegrees>43.331823237240314483642578125</LatitudeDegrees>
              <LongitudeDegrees>-3.0827012099325656890869140625</LongitudeDegrees>
            </Position>
            <AltitudeMeters>34.59999847412109375</AltitudeMeters>
            <DistanceMeters>NAN</DistanceMeters>
          </Trackpoint>
          <Trackpoint>
            <Time>2022-07-12T14:40:15.000Z</Time>
            <Position>
              <LatitudeDegrees>43.33191736601293087005615234375</LatitudeDegrees>
              <LongitudeDegrees>-3.08275158517062664031982421875</LongitudeDegrees>
            </Position>
            <AltitudeMeters>34.59999847412109375</AltitudeMeters>
            <DistanceMeters>NAN</DistanceMeters>
          </Trackpoint>
          <Trackpoint>
            <Time>2022-07-12T14:40:17.000Z</Time>
            <Position>
              <LatitudeDegrees>43.33203068934381008148193359375</LatitudeDegrees>
              <LongitudeDegrees>-3.08279785327613353729248046875</LongitudeDegrees>
            </Position>
            <AltitudeMeters>34.200000762939453125</AltitudeMeters>
            <DistanceMeters>NAN</DistanceMeters>
          </Trackpoint>
          <Trackpoint>
            <Time>2022-07-12T14:40:20.000Z</Time>
            <Position>
              <LatitudeDegrees>43.33223386667668819427490234375</LatitudeDegrees>
              <LongitudeDegrees>-3.0828732065856456756591796875</LongitudeDegrees>
            </Position>
            <AltitudeMeters>33</AltitudeMeters>
            <DistanceMeters>NAN</DistanceMeters>
          </Trackpoint>
          <Trackpoint>
            <Time>2022-07-12T14:40:23.000Z</Time>
            <Position>
              <LatitudeDegrees>43.3324299193918704986572265625</LatitudeDegrees>
              <LongitudeDegrees>-3.0829493142664432525634765625</LongitudeDegrees>
            </Position>
            <AltitudeMeters>31.3999996185302734375</AltitudeMeters>
            <DistanceMeters>NAN</DistanceMeters>
          </Trackpoint>
          <Trackpoint>
            <Time>2022-07-12T14:40:25.000Z</Time>
            <Position>
              <LatitudeDegrees>43.3325610123574733734130859375</LatitudeDegrees>
              <LongitudeDegrees>-3.0829999409615993499755859375</LongitudeDegrees>
            </Position>
            <AltitudeMeters>30.3999996185302734375</AltitudeMeters>
            <DistanceMeters>NAN</DistanceMeters>
          </Trackpoint>
          <Trackpoint>
            <Time>2022-07-12T14:40:28.000Z</Time>
            <Position>
              <LatitudeDegrees>43.33274281583726406097412109375</LatitudeDegrees>
              <LongitudeDegrees>-3.0830800719559192657470703125</LongitudeDegrees>
            </Position>
            <AltitudeMeters>29.3999996185302734375</AltitudeMeters>
            <DistanceMeters>NAN</DistanceMeters>
          </Trackpoint>
          <Trackpoint>
            <Time>2022-07-12T14:40:29.000Z</Time>
            <Position>
              <LatitudeDegrees>43.3328148163855075836181640625</LatitudeDegrees>
              <LongitudeDegrees>-3.0831122584640979766845703125</LongitudeDegrees>
            </Position>
            <AltitudeMeters>29.3999996185302734375</AltitudeMeters>
            <DistanceMeters>NAN</DistanceMeters>
          </Trackpoint>
          <Trackpoint>
            <Time>2022-07-12T14:40:31.000Z</Time>
            <Position>
              <LatitudeDegrees>43.33292135037481784820556640625</LatitudeDegrees>
              <LongitudeDegrees>-3.08315911330282688140869140625</LongitudeDegrees>
            </Position>
            <AltitudeMeters>28</AltitudeMeters>
            <DistanceMeters>NAN</DistanceMeters>
          </Trackpoint>
          <Trackpoint>
            <Time>2022-07-12T14:40:34.000Z</Time>
            <Position>
              <LatitudeDegrees>43.33308580331504344940185546875</LatitudeDegrees>
              <LongitudeDegrees>-3.08323211967945098876953125</LongitudeDegrees>
            </Position>
            <AltitudeMeters>27</AltitudeMeters>
            <DistanceMeters>NAN</DistanceMeters>
          </Trackpoint>
          <Trackpoint>
            <Time>2022-07-12T14:40:37.000Z</Time>
            <Position>
              <LatitudeDegrees>43.3332530222833156585693359375</LatitudeDegrees>
              <LongitudeDegrees>-3.08329590596258640289306640625</LongitudeDegrees>
            </Position>
            <AltitudeMeters>25.799999237060546875</AltitudeMeters>
            <DistanceMeters>NAN</DistanceMeters>
          </Trackpoint>
          <Trackpoint>
            <Time>2022-07-12T14:40:40.000Z</Time>
            <Position>
              <LatitudeDegrees>43.3334370888769626617431640625</LatitudeDegrees>
              <LongitudeDegrees>-3.083354495465755462646484375</LongitudeDegrees>
            </Position>
            <AltitudeMeters>24.200000762939453125</AltitudeMeters>
            <DistanceMeters>NAN</DistanceMeters>
          </Trackpoint>
          <Trackpoint>
            <Time>2022-07-12T14:40:43.000Z</Time>
            <Position>
              <LatitudeDegrees>43.33365292288362979888916015625</LatitudeDegrees>
              <LongitudeDegrees>-3.083411157131195068359375</LongitudeDegrees>
            </Position>
            <AltitudeMeters>23</AltitudeMeters>
            <DistanceMeters>NAN</DistanceMeters>
          </Trackpoint>
          <Trackpoint>
            <Time>2022-07-12T14:40:47.000Z</Time>
            <Position>
              <LatitudeDegrees>43.33393723703920841217041015625</LatitudeDegrees>
              <LongitudeDegrees>-3.0835407413542270660400390625</LongitudeDegrees>
            </Position>
            <AltitudeMeters>21.3999996185302734375</AltitudeMeters>
            <DistanceMeters>NAN</DistanceMeters>
          </Trackpoint>
          <Trackpoint>
            <Time>2022-07-12T14:40:49.000Z</Time>
            <Position>
              <LatitudeDegrees>43.33406682126224040985107421875</LatitudeDegrees>
              <LongitudeDegrees>-3.08360469527542591094970703125</LongitudeDegrees>
            </Position>
            <AltitudeMeters>20.6000003814697265625</AltitudeMeters>
            <DistanceMeters>NAN</DistanceMeters>
          </Trackpoint>
          <Trackpoint>
            <Time>2022-07-12T14:40:50.000Z</Time>
            <Position>
              <LatitudeDegrees>43.3341188728809356689453125</LatitudeDegrees>
              <LongitudeDegrees>-3.0836379714310169219970703125</LongitudeDegrees>
            </Position>
            <AltitudeMeters>19.3999996185302734375</AltitudeMeters>
            <DistanceMeters>NAN</DistanceMeters>
          </Trackpoint>
          <Trackpoint>
            <Time>2022-07-12T14:40:52.000Z</Time>
            <Position>
              <LatitudeDegrees>43.3342226408421993255615234375</LatitudeDegrees>
              <LongitudeDegrees>-3.0836996622383594512939453125</LongitudeDegrees>
            </Position>
            <AltitudeMeters>18.200000762939453125</AltitudeMeters>
            <DistanceMeters>NAN</DistanceMeters>
          </Trackpoint>
          <Trackpoint>
            <Time>2022-07-12T14:40:54.000Z</Time>
            <Position>
              <LatitudeDegrees>43.33434510044753551483154296875</LatitudeDegrees>
              <LongitudeDegrees>-3.08376814238727092742919921875</LongitudeDegrees>
            </Position>
            <AltitudeMeters>17.200000762939453125</AltitudeMeters>
            <DistanceMeters>NAN</DistanceMeters>
          </Trackpoint>
          <Trackpoint>
            <Time>2022-07-12T14:40:57.000Z</Time>
            <Position>
              <LatitudeDegrees>43.33452916704118251800537109375</LatitudeDegrees>
              <LongitudeDegrees>-3.08385380543768405914306640625</LongitudeDegrees>
            </Position>
            <AltitudeMeters>15.6000003814697265625</AltitudeMeters>
            <DistanceMeters>NAN</DistanceMeters>
          </Trackpoint>
          <Trackpoint>
            <Time>2022-07-12T14:40:59.000Z</Time>
            <Position>
              <LatitudeDegrees>43.3346722461283206939697265625</LatitudeDegrees>
              <LongitudeDegrees>-3.0839450843632221221923828125</LongitudeDegrees>
            </Position>
            <AltitudeMeters>14.3999996185302734375</AltitudeMeters>
            <DistanceMeters>NAN</DistanceMeters>
          </Trackpoint>
          <Trackpoint>
            <Time>2022-07-12T14:41:00.000Z</Time>
            <Position>
              <LatitudeDegrees>43.334752880036830902099609375</LatitudeDegrees>
              <LongitudeDegrees>-3.08399386703968048095703125</LongitudeDegrees>
            </Position>
            <AltitudeMeters>13.80000019073486328125</AltitudeMeters>
            <DistanceMeters>NAN</DistanceMeters>
          </Trackpoint>
          <Trackpoint>
            <Time>2022-07-12T14:41:01.000Z</Time>
            <Position>
              <LatitudeDegrees>43.33483946509659290313720703125</LatitudeDegrees>
              <LongitudeDegrees>-3.08404214680194854736328125</LongitudeDegrees>
            </Position>
            <AltitudeMeters>13.19999980926513671875</AltitudeMeters>
            <DistanceMeters>NAN</DistanceMeters>
          </Trackpoint>
          <Trackpoint>
            <Time>2022-07-12T14:41:02.000Z</Time>
            <Position>
              <LatitudeDegrees>43.3349324204027652740478515625</LatitudeDegrees>
              <LongitudeDegrees>-3.0840892530977725982666015625</LongitudeDegrees>
            </Position>
            <AltitudeMeters>12</AltitudeMeters>
            <DistanceMeters>NAN</DistanceMeters>
          </Trackpoint>
          <Trackpoint>
            <Time>2022-07-12T14:41:03.000Z</Time>
            <Position>
              <LatitudeDegrees>43.33503275178372859954833984375</LatitudeDegrees>
              <LongitudeDegrees>-3.08413007296621799468994140625</LongitudeDegrees>
            </Position>
            <AltitudeMeters>11</AltitudeMeters>
            <DistanceMeters>NAN</DistanceMeters>
          </Trackpoint>
          <Trackpoint>
            <Time>2022-07-12T14:41:04.000Z</Time>
            <Position>
              <LatitudeDegrees>43.335137777030467987060546875</LatitudeDegrees>
              <LongitudeDegrees>-3.0841653607785701751708984375</LongitudeDegrees>
            </Position>
            <AltitudeMeters>9.6000003814697265625</AltitudeMeters>
            <DistanceMeters>NAN</DistanceMeters>
          </Trackpoint>
          <Trackpoint>
            <Time>2022-07-12T14:41:05.000Z</Time>
            <Position>
              <LatitudeDegrees>43.3352482505142688751220703125</LatitudeDegrees>
              <LongitudeDegrees>-3.08418430387973785400390625</LongitudeDegrees>
            </Position>
            <AltitudeMeters>8.3999996185302734375</AltitudeMeters>
            <DistanceMeters>NAN</DistanceMeters>
          </Trackpoint>
          <Trackpoint>
            <Time>2022-07-12T14:41:06.000Z</Time>
            <Position>
              <LatitudeDegrees>43.3353622443974018096923828125</LatitudeDegrees>
              <LongitudeDegrees>-3.08419779874384403228759765625</LongitudeDegrees>
            </Position>
            <AltitudeMeters>7.19999980926513671875</AltitudeMeters>
            <DistanceMeters>NAN</DistanceMeters>
          </Trackpoint>
          <Trackpoint>
            <Time>2022-07-12T14:41:07.000Z</Time>
            <Position>
              <LatitudeDegrees>43.33547540009021759033203125</LatitudeDegrees>
              <LongitudeDegrees>-3.0842149816453456878662109375</LongitudeDegrees>
            </Position>
            <AltitudeMeters>6</AltitudeMeters>
            <DistanceMeters>NAN</DistanceMeters>
          </Trackpoint>
          <Trackpoint>
            <Time>2022-07-12T14:41:08.000Z</Time>
            <Position>
              <LatitudeDegrees>43.3355878852307796478271484375</LatitudeDegrees>
              <LongitudeDegrees>-3.08424004353582859039306640625</LongitudeDegrees>
            </Position>
            <AltitudeMeters>4.80000019073486328125</AltitudeMeters>
            <DistanceMeters>NAN</DistanceMeters>
          </Trackpoint>
          <Trackpoint>
            <Time>2022-07-12T14:41:09.000Z</Time>
            <Position>
              <LatitudeDegrees>43.3356934972107410430908203125</LatitudeDegrees>
              <LongitudeDegrees>-3.0842800252139568328857421875</LongitudeDegrees>
            </Position>
            <AltitudeMeters>3.7999999523162841796875</AltitudeMeters>
            <DistanceMeters>NAN</DistanceMeters>
          </Trackpoint>
          <Trackpoint>
            <Time>2022-07-12T14:41:10.000Z</Time>
            <Position>
              <LatitudeDegrees>43.3357913978397846221923828125</LatitudeDegrees>
              <LongitudeDegrees>-3.0843271315097808837890625</LongitudeDegrees>
            </Position>
            <AltitudeMeters>2.7999999523162841796875</AltitudeMeters>
            <DistanceMeters>NAN</DistanceMeters>
          </Trackpoint>
          <Trackpoint>
            <Time>2022-07-12T14:41:11.000Z</Time>
            <Position>
              <LatitudeDegrees>43.33587395958602428436279296875</LatitudeDegrees>
              <LongitudeDegrees>-3.084379099309444427490234375</LongitudeDegrees>
            </Position>
            <AltitudeMeters>1.39999997615814208984375</AltitudeMeters>
            <DistanceMeters>NAN</DistanceMeters>
          </Trackpoint>
          <Trackpoint>
            <Time>2022-07-12T14:41:12.000Z</Time>
            <Position>
              <LatitudeDegrees>43.33594386465847492218017578125</LatitudeDegrees>
              <LongitudeDegrees>-3.08442897163331508636474609375</LongitudeDegrees>
            </Position>
            <AltitudeMeters>0</AltitudeMeters>
            <DistanceMeters>NAN</DistanceMeters>
          </Trackpoint>
          <Trackpoint>
            <Time>2022-07-12T14:41:13.000Z</Time>
            <Position>
              <LatitudeDegrees>43.3360016159713268280029296875</LatitudeDegrees>
              <LongitudeDegrees>-3.08447104878723621368408203125</LongitudeDegrees>
            </Position>
            <AltitudeMeters>-1</AltitudeMeters>
            <DistanceMeters>NAN</DistanceMeters>
          </Trackpoint>
          <Trackpoint>
            <Time>2022-07-12T14:41:14.000Z</Time>
            <Position>
              <LatitudeDegrees>43.3360623009502887725830078125</LatitudeDegrees>
              <LongitudeDegrees>-3.084506504237651824951171875</LongitudeDegrees>
            </Position>
            <AltitudeMeters>-1.7999999523162841796875</AltitudeMeters>
            <DistanceMeters>NAN</DistanceMeters>
          </Trackpoint>
          <Trackpoint>
            <Time>2022-07-12T14:41:15.000Z</Time>
            <Position>
              <LatitudeDegrees>43.33612072281539440155029296875</LatitudeDegrees>
              <LongitudeDegrees>-3.08453927747905254364013671875</LongitudeDegrees>
            </Position>
            <AltitudeMeters>-2.2000000476837158203125</AltitudeMeters>
            <DistanceMeters>NAN</DistanceMeters>
          </Trackpoint>
          <Trackpoint>
            <Time>2022-07-12T14:41:16.000Z</Time>
            <Position>
              <LatitudeDegrees>43.33617285825312137603759765625</LatitudeDegrees>
              <LongitudeDegrees>-3.08458018116652965545654296875</LongitudeDegrees>
            </Position>
            <AltitudeMeters>-2.599999904632568359375</AltitudeMeters>
            <DistanceMeters>NAN</DistanceMeters>
          </Trackpoint>
          <Trackpoint>
            <Time>2022-07-12T14:41:19.000Z</Time>
            <Position>
              <LatitudeDegrees>43.33630428649485111236572265625</LatitudeDegrees>
              <LongitudeDegrees>-3.084700964391231536865234375</LongitudeDegrees>
            </Position>
            <AltitudeMeters>-3.599999904632568359375</AltitudeMeters>
            <DistanceMeters>NAN</DistanceMeters>
          </Trackpoint>
          <Trackpoint>
            <Time>2022-07-12T14:41:20.000Z</Time>
            <Position>
              <LatitudeDegrees>43.33633798174560070037841796875</LatitudeDegrees>
              <LongitudeDegrees>-3.0847306363284587860107421875</LongitudeDegrees>
            </Position>
            <AltitudeMeters>-5</AltitudeMeters>
            <DistanceMeters>NAN</DistanceMeters>
          </Trackpoint>
          <Trackpoint>
            <Time>2022-07-12T14:41:22.000Z</Time>
            <Position>
              <LatitudeDegrees>43.3363925479352474212646484375</LatitudeDegrees>
              <LongitudeDegrees>-3.08477615006268024444580078125</LongitudeDegrees>
            </Position>
            <AltitudeMeters>-6.400000095367431640625</AltitudeMeters>
            <DistanceMeters>NAN</DistanceMeters>
          </Trackpoint>
          <Trackpoint>
            <Time>2022-07-12T14:41:23.000Z</Time>
            <Position>
              <LatitudeDegrees>43.33640956319868564605712890625</LatitudeDegrees>
              <LongitudeDegrees>-3.08479274623095989227294921875</LongitudeDegrees>
            </Position>
            <AltitudeMeters>-6.80000019073486328125</AltitudeMeters>
            <DistanceMeters>NAN</DistanceMeters>
          </Trackpoint>
          <Trackpoint>
            <Time>2022-07-12T14:41:26.000Z</Time>
            <Position>
              <LatitudeDegrees>43.3364408276975154876708984375</LatitudeDegrees>
              <LongitudeDegrees>-3.08483616448938846588134765625</LongitudeDegrees>
            </Position>
            <AltitudeMeters>-7.599999904632568359375</AltitudeMeters>
            <DistanceMeters>NAN</DistanceMeters>
          </Trackpoint>
          <Trackpoint>
            <Time>2022-07-12T14:41:27.000Z</Time>
            <Position>
              <LatitudeDegrees>43.336439989507198333740234375</LatitudeDegrees>
              <LongitudeDegrees>-3.08486097492277622222900390625</LongitudeDegrees>
            </Position>
            <AltitudeMeters>-7.599999904632568359375</AltitudeMeters>
            <DistanceMeters>NAN</DistanceMeters>
          </Trackpoint>
          <Trackpoint>
            <Time>2022-07-12T14:41:31.000Z</Time>
            <Position>
              <LatitudeDegrees>43.336372263729572296142578125</LatitudeDegrees>
              <LongitudeDegrees>-3.08495686389505863189697265625</LongitudeDegrees>
            </Position>
            <AltitudeMeters>-7.80000019073486328125</AltitudeMeters>
            <DistanceMeters>NAN</DistanceMeters>
          </Trackpoint>
          <Trackpoint>
            <Time>2022-07-12T14:41:34.000Z</Time>
            <Position>
              <LatitudeDegrees>43.33624779246747493743896484375</LatitudeDegrees>
              <LongitudeDegrees>-3.08496675454080104827880859375</LongitudeDegrees>
            </Position>
            <AltitudeMeters>-8</AltitudeMeters>
            <DistanceMeters>NAN</DistanceMeters>
          </Trackpoint>
          <Trackpoint>
            <Time>2022-07-12T14:41:39.000Z</Time>
            <Position>
              <LatitudeDegrees>43.3360017836093902587890625</LatitudeDegrees>
              <LongitudeDegrees>-3.084855191409587860107421875</LongitudeDegrees>
            </Position>
            <AltitudeMeters>-8.3999996185302734375</AltitudeMeters>
            <DistanceMeters>NAN</DistanceMeters>
          </Trackpoint>
          <Trackpoint>
            <Time>2022-07-12T14:41:40.000Z</Time>
            <Position>
              <LatitudeDegrees>43.335953168570995330810546875</LatitudeDegrees>
              <LongitudeDegrees>-3.08483465574681758880615234375</LongitudeDegrees>
            </Position>
            <AltitudeMeters>-8.6000003814697265625</AltitudeMeters>
            <DistanceMeters>NAN</DistanceMeters>
          </Trackpoint>
          <Trackpoint>
            <Time>2022-07-12T14:41:41.000Z</Time>
            <Position>
              <LatitudeDegrees>43.3359105885028839111328125</LatitudeDegrees>
              <LongitudeDegrees>-3.084823004901409149169921875</LongitudeDegrees>
            </Position>
            <AltitudeMeters>-9</AltitudeMeters>
            <DistanceMeters>NAN</DistanceMeters>
          </Trackpoint>
          <Trackpoint>
            <Time>2022-07-12T14:41:43.000Z</Time>
            <Position>
              <LatitudeDegrees>43.335818387567996978759765625</LatitudeDegrees>
              <LongitudeDegrees>-3.08483851142227649688720703125</LongitudeDegrees>
            </Position>
            <AltitudeMeters>-9.6000003814697265625</AltitudeMeters>
            <DistanceMeters>NAN</DistanceMeters>
          </Trackpoint>
          <Trackpoint>
            <Time>2022-07-12T14:41:44.000Z</Time>
            <Position>
              <LatitudeDegrees>43.33576499484479427337646484375</LatitudeDegrees>
              <LongitudeDegrees>-3.0848660878837108612060546875</LongitudeDegrees>
            </Position>
            <AltitudeMeters>-9.80000019073486328125</AltitudeMeters>
            <DistanceMeters>NAN</DistanceMeters>
          </Trackpoint>
          <Trackpoint>
            <Time>2022-07-12T14:41:46.000Z</Time>
            <Position>
              <LatitudeDegrees>43.33564932458102703094482421875</LatitudeDegrees>
              <LongitudeDegrees>-3.08495770208537578582763671875</LongitudeDegrees>
            </Position>
            <AltitudeMeters>-10.19999980926513671875</AltitudeMeters>
            <DistanceMeters>NAN</DistanceMeters>
          </Trackpoint>
          <Trackpoint>
            <Time>2022-07-12T14:41:47.000Z</Time>
            <Position>
              <LatitudeDegrees>43.33559350110590457916259765625</LatitudeDegrees>
              <LongitudeDegrees>-3.08502995409071445465087890625</LongitudeDegrees>
            </Position>
            <AltitudeMeters>-10.3999996185302734375</AltitudeMeters>
            <DistanceMeters>NAN</DistanceMeters>
          </Trackpoint>
          <Trackpoint>
            <Time>2022-07-12T14:41:48.000Z</Time>
            <Position>
              <LatitudeDegrees>43.3355476520955562591552734375</LatitudeDegrees>
              <LongitudeDegrees>-3.08512014336884021759033203125</LongitudeDegrees>
            </Position>
            <AltitudeMeters>-11</AltitudeMeters>
            <DistanceMeters>NAN</DistanceMeters>
          </Trackpoint>
          <Trackpoint>
            <Time>2022-07-12T14:41:50.000Z</Time>
            <Position>
              <LatitudeDegrees>43.33549006842076778411865234375</LatitudeDegrees>
              <LongitudeDegrees>-3.08533371426165103912353515625</LongitudeDegrees>
            </Position>
            <AltitudeMeters>-12.19999980926513671875</AltitudeMeters>
            <DistanceMeters>NAN</DistanceMeters>
          </Trackpoint>
          <Trackpoint>
            <Time>2022-07-12T14:41:52.000Z</Time>
            <Position>
              <LatitudeDegrees>43.3355002105236053466796875</LatitudeDegrees>
              <LongitudeDegrees>-3.0855681560933589935302734375</LongitudeDegrees>
            </Position>
            <AltitudeMeters>-13.3999996185302734375</AltitudeMeters>
            <DistanceMeters>NAN</DistanceMeters>
          </Trackpoint>
          <Trackpoint>
            <Time>2022-07-12T14:41:53.000Z</Time>
            <Position>
              <LatitudeDegrees>43.33553574979305267333984375</LatitudeDegrees>
              <LongitudeDegrees>-3.0856781266629695892333984375</LongitudeDegrees>
            </Position>
            <AltitudeMeters>-14</AltitudeMeters>
            <DistanceMeters>NAN</DistanceMeters>
          </Trackpoint>
          <Trackpoint>
            <Time>2022-07-12T14:41:54.000Z</Time>
            <Position>
              <LatitudeDegrees>43.33558805286884307861328125</LatitudeDegrees>
              <LongitudeDegrees>-3.08577493764460086822509765625</LongitudeDegrees>
            </Position>
            <AltitudeMeters>-14.6000003814697265625</AltitudeMeters>
            <DistanceMeters>NAN</DistanceMeters>
          </Trackpoint>
          <Trackpoint>
            <Time>2022-07-12T14:41:56.000Z</Time>
            <Position>
              <LatitudeDegrees>43.3357176370918750762939453125</LatitudeDegrees>
              <LongitudeDegrees>-3.08592614717781543731689453125</LongitudeDegrees>
            </Position>
            <AltitudeMeters>-15.6000003814697265625</AltitudeMeters>
            <DistanceMeters>NAN</DistanceMeters>
          </Trackpoint>
          <Trackpoint>
            <Time>2022-07-12T14:41:57.000Z</Time>
            <Position>
              <LatitudeDegrees>43.33578863181173801422119140625</LatitudeDegrees>
              <LongitudeDegrees>-3.08598800562322139739990234375</LongitudeDegrees>
            </Position>
            <AltitudeMeters>-16</AltitudeMeters>
            <DistanceMeters>NAN</DistanceMeters>
          </Trackpoint>
          <Trackpoint>
            <Time>2022-07-12T14:41:59.000Z</Time>
            <Position>
              <LatitudeDegrees>43.33593129180371761322021484375</LatitudeDegrees>
              <LongitudeDegrees>-3.08610954321920871734619140625</LongitudeDegrees>
            </Position>
            <AltitudeMeters>-17.799999237060546875</AltitudeMeters>
            <DistanceMeters>NAN</DistanceMeters>
          </Trackpoint>
          <Trackpoint>
            <Time>2022-07-12T14:42:01.000Z</Time>
            <Position>
              <LatitudeDegrees>43.33607210777699947357177734375</LatitudeDegrees>
              <LongitudeDegrees>-3.086218424141407012939453125</LongitudeDegrees>
            </Position>
            <AltitudeMeters>-18.799999237060546875</AltitudeMeters>
            <DistanceMeters>NAN</DistanceMeters>
          </Trackpoint>
          <Trackpoint>
            <Time>2022-07-12T14:42:02.000Z</Time>
            <Position>
              <LatitudeDegrees>43.33614234812557697296142578125</LatitudeDegrees>
              <LongitudeDegrees>-3.086266703903675079345703125</LongitudeDegrees>
            </Position>
            <AltitudeMeters>-19</AltitudeMeters>
            <DistanceMeters>NAN</DistanceMeters>
          </Trackpoint>
          <Trackpoint>
            <Time>2022-07-12T14:42:06.000Z</Time>
            <Position>
              <LatitudeDegrees>43.33639984019100666046142578125</LatitudeDegrees>
              <LongitudeDegrees>-3.08646376244723796844482421875</LongitudeDegrees>
            </Position>
            <AltitudeMeters>-19.6000003814697265625</AltitudeMeters>
            <DistanceMeters>NAN</DistanceMeters>
          </Trackpoint>
          <Trackpoint>
            <Time>2022-07-12T14:42:08.000Z</Time>
            <Position>
              <LatitudeDegrees>43.33655289374291896820068359375</LatitudeDegrees>
              <LongitudeDegrees>-3.08652142994105815887451171875</LongitudeDegrees>
            </Position>
            <AltitudeMeters>-20</AltitudeMeters>
            <DistanceMeters>NAN</DistanceMeters>
          </Trackpoint>
          <Trackpoint>
            <Time>2022-07-12T14:42:10.000Z</Time>
            <Position>
              <LatitudeDegrees>43.336696140468120574951171875</LatitudeDegrees>
              <LongitudeDegrees>-3.0865394510328769683837890625</LongitudeDegrees>
            </Position>
            <AltitudeMeters>-20.3999996185302734375</AltitudeMeters>
            <DistanceMeters>NAN</DistanceMeters>
          </Trackpoint>
          <Trackpoint>
            <Time>2022-07-12T14:42:14.000Z</Time>
            <Position>
              <LatitudeDegrees>43.3369702287018299102783203125</LatitudeDegrees>
              <LongitudeDegrees>-3.0865629203617572784423828125</LongitudeDegrees>
            </Position>
            <AltitudeMeters>-20.6000003814697265625</AltitudeMeters>
            <DistanceMeters>NAN</DistanceMeters>
          </Trackpoint>
          <Trackpoint>
            <Time>2022-07-12T14:42:16.000Z</Time>
            <Position>
              <LatitudeDegrees>43.33709067665040493011474609375</LatitudeDegrees>
              <LongitudeDegrees>-3.08659963309764862060546875</LongitudeDegrees>
            </Position>
            <AltitudeMeters>-20.6000003814697265625</AltitudeMeters>
            <DistanceMeters>NAN</DistanceMeters>
          </Trackpoint>
          <Trackpoint>
            <Time>2022-07-12T14:42:19.000Z</Time>
            <Position>
              <LatitudeDegrees>43.3372927643358707427978515625</LatitudeDegrees>
              <LongitudeDegrees>-3.08670734055340290069580078125</LongitudeDegrees>
            </Position>
            <AltitudeMeters>-20.799999237060546875</AltitudeMeters>
            <DistanceMeters>NAN</DistanceMeters>
          </Trackpoint>
          <Trackpoint>
            <Time>2022-07-12T14:42:20.000Z</Time>
            <Position>
              <LatitudeDegrees>43.3373482525348663330078125</LatitudeDegrees>
              <LongitudeDegrees>-3.08674983680248260498046875</LongitudeDegrees>
            </Position>
            <AltitudeMeters>-21</AltitudeMeters>
            <DistanceMeters>NAN</DistanceMeters>
          </Trackpoint>
          <Trackpoint>
            <Time>2022-07-12T14:42:21.000Z</Time>
            <Position>
              <LatitudeDegrees>43.337401561439037322998046875</LatitudeDegrees>
              <LongitudeDegrees>-3.086797110736370086669921875</LongitudeDegrees>
            </Position>
            <AltitudeMeters>-21.3999996185302734375</AltitudeMeters>
            <DistanceMeters>NAN</DistanceMeters>
          </Trackpoint>
          <Trackpoint>
            <Time>2022-07-12T14:42:23.000Z</Time>
            <Position>
              <LatitudeDegrees>43.3374999649822711944580078125</LatitudeDegrees>
              <LongitudeDegrees>-3.08692309074103832244873046875</LongitudeDegrees>
            </Position>
            <AltitudeMeters>-22.200000762939453125</AltitudeMeters>
            <DistanceMeters>NAN</DistanceMeters>
          </Trackpoint>
          <Trackpoint>
            <Time>2022-07-12T14:42:25.000Z</Time>
            <Position>
              <LatitudeDegrees>43.33757464773952960968017578125</LatitudeDegrees>
              <LongitudeDegrees>-3.08705049566924571990966796875</LongitudeDegrees>
            </Position>
            <AltitudeMeters>-22.6000003814697265625</AltitudeMeters>
            <DistanceMeters>NAN</DistanceMeters>
          </Trackpoint>
          <Trackpoint>
            <Time>2022-07-12T14:42:26.000Z</Time>
            <Position>
              <LatitudeDegrees>43.33761387504637241363525390625</LatitudeDegrees>
              <LongitudeDegrees>-3.0871486477553844451904296875</LongitudeDegrees>
            </Position>
            <AltitudeMeters>-22.799999237060546875</AltitudeMeters>
            <DistanceMeters>NAN</DistanceMeters>
          </Trackpoint>
          <Trackpoint>
            <Time>2022-07-12T14:42:29.000Z</Time>
            <Position>
              <LatitudeDegrees>43.33768612705171108245849609375</LatitudeDegrees>
              <LongitudeDegrees>-3.08740563690662384033203125</LongitudeDegrees>
            </Position>
            <AltitudeMeters>-23.200000762939453125</AltitudeMeters>
            <DistanceMeters>NAN</DistanceMeters>
          </Trackpoint>
          <Trackpoint>
            <Time>2022-07-12T14:42:30.000Z</Time>
            <Position>
              <LatitudeDegrees>43.3377095125615596771240234375</LatitudeDegrees>
              <LongitudeDegrees>-3.08752340264618396759033203125</LongitudeDegrees>
            </Position>
            <AltitudeMeters>-23.200000762939453125</AltitudeMeters>
            <DistanceMeters>NAN</DistanceMeters>
          </Trackpoint>
          <Trackpoint>
            <Time>2022-07-12T14:42:31.000Z</Time>
            <Position>
              <LatitudeDegrees>43.3377242647111415863037109375</LatitudeDegrees>
              <LongitudeDegrees>-3.087622560560703277587890625</LongitudeDegrees>
            </Position>
            <AltitudeMeters>-23.799999237060546875</AltitudeMeters>
            <DistanceMeters>NAN</DistanceMeters>
          </Trackpoint>
          <Trackpoint>
            <Time>2022-07-12T14:42:32.000Z</Time>
            <Position>
              <LatitudeDegrees>43.33773273043334484100341796875</LatitudeDegrees>
              <LongitudeDegrees>-3.08772146701812744140625</LongitudeDegrees>
            </Position>
            <AltitudeMeters>-24.200000762939453125</AltitudeMeters>
            <DistanceMeters>NAN</DistanceMeters>
          </Trackpoint>
          <Trackpoint>
            <Time>2022-07-12T14:42:34.000Z</Time>
            <Position>
              <LatitudeDegrees>43.33773591555655002593994140625</LatitudeDegrees>
              <LongitudeDegrees>-3.08790679089725017547607421875</LongitudeDegrees>
            </Position>
            <AltitudeMeters>-24.6000003814697265625</AltitudeMeters>
            <DistanceMeters>NAN</DistanceMeters>
          </Trackpoint>
          <Trackpoint>
            <Time>2022-07-12T14:42:35.000Z</Time>
            <Position>
              <LatitudeDegrees>43.33773993887007236480712890625</LatitudeDegrees>
              <LongitudeDegrees>-3.08801089413464069366455078125</LongitudeDegrees>
            </Position>
            <AltitudeMeters>-25.6000003814697265625</AltitudeMeters>
            <DistanceMeters>NAN</DistanceMeters>
          </Trackpoint>
          <Trackpoint>
            <Time>2022-07-12T14:42:37.000Z</Time>
            <Position>
              <LatitudeDegrees>43.3377457223832607269287109375</LatitudeDegrees>
              <LongitudeDegrees>-3.08822161518037319183349609375</LongitudeDegrees>
            </Position>
            <AltitudeMeters>-26.3999996185302734375</AltitudeMeters>
            <DistanceMeters>NAN</DistanceMeters>
          </Trackpoint>
          <Trackpoint>
            <Time>2022-07-12T14:42:38.000Z</Time>
            <Position>
              <LatitudeDegrees>43.3377520926296710968017578125</LatitudeDegrees>
              <LongitudeDegrees>-3.08832856826484203338623046875</LongitudeDegrees>
            </Position>
            <AltitudeMeters>-26.799999237060546875</AltitudeMeters>
            <DistanceMeters>NAN</DistanceMeters>
          </Trackpoint>
          <Trackpoint>
            <Time>2022-07-12T14:42:39.000Z</Time>
            <Position>
              <LatitudeDegrees>43.3377581275999546051025390625</LatitudeDegrees>
              <LongitudeDegrees>-3.08843350969254970550537109375</LongitudeDegrees>
            </Position>
            <AltitudeMeters>-27</AltitudeMeters>
            <DistanceMeters>NAN</DistanceMeters>
          </Trackpoint>
          <Trackpoint>
            <Time>2022-07-12T14:42:43.000Z</Time>
            <Position>
              <LatitudeDegrees>43.33780548535287380218505859375</LatitudeDegrees>
              <LongitudeDegrees>-3.08884866535663604736328125</LongitudeDegrees>
            </Position>
            <AltitudeMeters>-26.799999237060546875</AltitudeMeters>
            <DistanceMeters>NAN</DistanceMeters>
          </Trackpoint>
          <Trackpoint>
            <Time>2022-07-12T14:42:45.000Z</Time>
            <Position>
              <LatitudeDegrees>43.3378647454082965850830078125</LatitudeDegrees>
              <LongitudeDegrees>-3.0890478193759918212890625</LongitudeDegrees>
            </Position>
            <AltitudeMeters>-26.3999996185302734375</AltitudeMeters>
            <DistanceMeters>NAN</DistanceMeters>
          </Trackpoint>
          <Trackpoint>
            <Time>2022-07-12T14:42:47.000Z</Time>
            <Position>
              <LatitudeDegrees>43.3379592932760715484619140625</LatitudeDegrees>
              <LongitudeDegrees>-3.0892193131148815155029296875</LongitudeDegrees>
            </Position>
            <AltitudeMeters>-26.6000003814697265625</AltitudeMeters>
            <DistanceMeters>NAN</DistanceMeters>
          </Trackpoint>
          <Trackpoint>
            <Time>2022-07-12T14:42:49.000Z</Time>
            <Position>
              <LatitudeDegrees>43.338082171976566314697265625</LatitudeDegrees>
              <LongitudeDegrees>-3.08936230838298797607421875</LongitudeDegrees>
            </Position>
            <AltitudeMeters>-26.799999237060546875</AltitudeMeters>
            <DistanceMeters>NAN</DistanceMeters>
          </Trackpoint>
          <Trackpoint>
            <Time>2022-07-12T14:42:50.000Z</Time>
            <Position>
              <LatitudeDegrees>43.33814344368875026702880859375</LatitudeDegrees>
              <LongitudeDegrees>-3.08943338692188262939453125</LongitudeDegrees>
            </Position>
            <AltitudeMeters>-27</AltitudeMeters>
            <DistanceMeters>NAN</DistanceMeters>
          </Trackpoint>
          <Trackpoint>
            <Time>2022-07-12T14:42:52.000Z</Time>
            <Position>
              <LatitudeDegrees>43.3382332138717174530029296875</LatitudeDegrees>
              <LongitudeDegrees>-3.0895964987576007843017578125</LongitudeDegrees>
            </Position>
            <AltitudeMeters>-27.6000003814697265625</AltitudeMeters>
            <DistanceMeters>NAN</DistanceMeters>
          </Trackpoint>
          <Trackpoint>
            <Time>2022-07-12T14:42:53.000Z</Time>
            <Position>
              <LatitudeDegrees>43.33825961686670780181884765625</LatitudeDegrees>
              <LongitudeDegrees>-3.08969599194824695587158203125</LongitudeDegrees>
            </Position>
            <AltitudeMeters>-27.799999237060546875</AltitudeMeters>
            <DistanceMeters>NAN</DistanceMeters>
          </Trackpoint>
          <Trackpoint>
            <Time>2022-07-12T14:42:54.000Z</Time>
            <Position>
              <LatitudeDegrees>43.3382721059024333953857421875</LatitudeDegrees>
              <LongitudeDegrees>-3.08979942463338375091552734375</LongitudeDegrees>
            </Position>
            <AltitudeMeters>-28.200000762939453125</AltitudeMeters>
            <DistanceMeters>NAN</DistanceMeters>
          </Trackpoint>
          <Trackpoint>
            <Time>2022-07-12T14:42:55.000Z</Time>
            <Position>
              <LatitudeDegrees>43.33827034570276737213134765625</LatitudeDegrees>
              <LongitudeDegrees>-3.0899089761078357696533203125</LongitudeDegrees>
            </Position>
            <AltitudeMeters>-28.3999996185302734375</AltitudeMeters>
            <DistanceMeters>NAN</DistanceMeters>
          </Trackpoint>
          <Trackpoint>
            <Time>2022-07-12T14:42:57.000Z</Time>
            <Position>
              <LatitudeDegrees>43.33823966793715953826904296875</LatitudeDegrees>
              <LongitudeDegrees>-3.0901383049786090850830078125</LongitudeDegrees>
            </Position>
            <AltitudeMeters>-29</AltitudeMeters>
            <DistanceMeters>NAN</DistanceMeters>
          </Trackpoint>
          <Trackpoint>
            <Time>2022-07-12T14:42:59.000Z</Time>
            <Position>
              <LatitudeDegrees>43.33819658495485782623291015625</LatitudeDegrees>
              <LongitudeDegrees>-3.09031809680163860321044921875</LongitudeDegrees>
            </Position>
            <AltitudeMeters>-29.200000762939453125</AltitudeMeters>
            <DistanceMeters>NAN</DistanceMeters>
          </Trackpoint>
          <Trackpoint>
            <Time>2022-07-12T14:43:01.000Z</Time>
            <Position>
              <LatitudeDegrees>43.33816372789442539215087890625</LatitudeDegrees>
              <LongitudeDegrees>-3.09052127413451671600341796875</LongitudeDegrees>
            </Position>
            <AltitudeMeters>-29.3999996185302734375</AltitudeMeters>
            <DistanceMeters>NAN</DistanceMeters>
          </Trackpoint>
          <Trackpoint>
            <Time>2022-07-12T14:43:03.000Z</Time>
            <Position>
              <LatitudeDegrees>43.3381624706089496612548828125</LatitudeDegrees>
              <LongitudeDegrees>-3.0907243676483631134033203125</LongitudeDegrees>
            </Position>
            <AltitudeMeters>-30</AltitudeMeters>
            <DistanceMeters>NAN</DistanceMeters>
          </Trackpoint>
          <Trackpoint>
            <Time>2022-07-12T14:43:04.000Z</Time>
            <Position>
              <LatitudeDegrees>43.33816573955118656158447265625</LatitudeDegrees>
              <LongitudeDegrees>-3.09082721360027790069580078125</LongitudeDegrees>
            </Position>
            <AltitudeMeters>-30</AltitudeMeters>
            <DistanceMeters>NAN</DistanceMeters>
          </Trackpoint>
          <Trackpoint>
            <Time>2022-07-12T14:43:05.000Z</Time>
            <Position>
              <LatitudeDegrees>43.33817504346370697021484375</LatitudeDegrees>
              <LongitudeDegrees>-3.09093081392347812652587890625</LongitudeDegrees>
            </Position>
            <AltitudeMeters>-30.200000762939453125</AltitudeMeters>
            <DistanceMeters>NAN</DistanceMeters>
          </Trackpoint>
          <Trackpoint>
            <Time>2022-07-12T14:43:08.000Z</Time>
            <Position>
              <LatitudeDegrees>43.33823665045201778411865234375</LatitudeDegrees>
              <LongitudeDegrees>-3.09123172424733638763427734375</LongitudeDegrees>
            </Position>
            <AltitudeMeters>-30.799999237060546875</AltitudeMeters>
            <DistanceMeters>NAN</DistanceMeters>
          </Trackpoint>
          <Trackpoint>
            <Time>2022-07-12T14:43:14.000Z</Time>
            <Position>
              <LatitudeDegrees>43.338402025401592254638671875</LatitudeDegrees>
              <LongitudeDegrees>-3.0917831696569919586181640625</LongitudeDegrees>
            </Position>
            <AltitudeMeters>-31.200000762939453125</AltitudeMeters>
            <DistanceMeters>NAN</DistanceMeters>
          </Trackpoint>
          <Trackpoint>
            <Time>2022-07-12T14:43:16.000Z</Time>
            <Position>
              <LatitudeDegrees>43.33844284527003765106201171875</LatitudeDegrees>
              <LongitudeDegrees>-3.09197075664997100830078125</LongitudeDegrees>
            </Position>
            <AltitudeMeters>-31.799999237060546875</AltitudeMeters>
            <DistanceMeters>NAN</DistanceMeters>
          </Trackpoint>
          <Trackpoint>
            <Time>2022-07-12T14:43:17.000Z</Time>
            <Position>
              <LatitudeDegrees>43.33845189772546291351318359375</LatitudeDegrees>
              <LongitudeDegrees>-3.0920705012977123260498046875</LongitudeDegrees>
            </Position>
            <AltitudeMeters>-32</AltitudeMeters>
            <DistanceMeters>NAN</DistanceMeters>
          </Trackpoint>
          <Trackpoint>
            <Time>2022-07-12T14:43:18.000Z</Time>
            <Position>
              <LatitudeDegrees>43.33846111781895160675048828125</LatitudeDegrees>
              <LongitudeDegrees>-3.0921672284603118896484375</LongitudeDegrees>
            </Position>
            <AltitudeMeters>-32.200000762939453125</AltitudeMeters>
            <DistanceMeters>NAN</DistanceMeters>
          </Trackpoint>
          <Trackpoint>
            <Time>2022-07-12T14:43:19.000Z</Time>
            <Position>
              <LatitudeDegrees>43.33846765570342540740966796875</LatitudeDegrees>
              <LongitudeDegrees>-3.09226353652775287628173828125</LongitudeDegrees>
            </Position>
            <AltitudeMeters>-32.59999847412109375</AltitudeMeters>
            <DistanceMeters>NAN</DistanceMeters>
          </Trackpoint>
          <Trackpoint>
            <Time>2022-07-12T14:43:22.000Z</Time>
            <Position>
              <LatitudeDegrees>43.3384803123772144317626953125</LatitudeDegrees>
              <LongitudeDegrees>-3.09254382736980915069580078125</LongitudeDegrees>
            </Position>
            <AltitudeMeters>-33.200000762939453125</AltitudeMeters>
            <DistanceMeters>NAN</DistanceMeters>
          </Trackpoint>
          <Trackpoint>
            <Time>2022-07-12T14:43:23.000Z</Time>
            <Position>
              <LatitudeDegrees>43.338492214679718017578125</LatitudeDegrees>
              <LongitudeDegrees>-3.09263351373374462127685546875</LongitudeDegrees>
            </Position>
            <AltitudeMeters>-33.40000152587890625</AltitudeMeters>
            <DistanceMeters>NAN</DistanceMeters>
          </Trackpoint>
          <Trackpoint>
            <Time>2022-07-12T14:43:25.000Z</Time>
            <Position>
              <LatitudeDegrees>43.33853554911911487579345703125</LatitudeDegrees>
              <LongitudeDegrees>-3.09280894696712493896484375</LongitudeDegrees>
            </Position>
            <AltitudeMeters>-33.59999847412109375</AltitudeMeters>
            <DistanceMeters>NAN</DistanceMeters>
          </Trackpoint>
          <Trackpoint>
            <Time>2022-07-12T14:43:27.000Z</Time>
            <Position>
              <LatitudeDegrees>43.3386030234396457672119140625</LatitudeDegrees>
              <LongitudeDegrees>-3.09296451508998870849609375</LongitudeDegrees>
            </Position>
            <AltitudeMeters>-33.59999847412109375</AltitudeMeters>
            <DistanceMeters>NAN</DistanceMeters>
          </Trackpoint>
          <Trackpoint>
            <Time>2022-07-12T14:43:29.000Z</Time>
            <Position>
              <LatitudeDegrees>43.33869011141359806060791015625</LatitudeDegrees>
              <LongitudeDegrees>-3.09310893528163433074951171875</LongitudeDegrees>
            </Position>
            <AltitudeMeters>-33.799999237060546875</AltitudeMeters>
            <DistanceMeters>NAN</DistanceMeters>
          </Trackpoint>
          <Trackpoint>
            <Time>2022-07-12T14:43:31.000Z</Time>
            <Position>
              <LatitudeDegrees>43.338801003992557525634765625</LatitudeDegrees>
              <LongitudeDegrees>-3.09323650784790515899658203125</LongitudeDegrees>
            </Position>
            <AltitudeMeters>-33.799999237060546875</AltitudeMeters>
            <DistanceMeters>NAN</DistanceMeters>
          </Trackpoint>
          <Trackpoint>
            <Time>2022-07-12T14:43:35.000Z</Time>
            <Position>
              <LatitudeDegrees>43.33904231898486614227294921875</LatitudeDegrees>
              <LongitudeDegrees>-3.0934333987534046173095703125</LongitudeDegrees>
            </Position>
            <AltitudeMeters>-34.59999847412109375</AltitudeMeters>
            <DistanceMeters>NAN</DistanceMeters>
          </Trackpoint>
          <Trackpoint>
            <Time>2022-07-12T14:43:36.000Z</Time>
            <Position>
              <LatitudeDegrees>43.3391045965254306793212890625</LatitudeDegrees>
              <LongitudeDegrees>-3.093495927751064300537109375</LongitudeDegrees>
            </Position>
            <AltitudeMeters>-34.799999237060546875</AltitudeMeters>
            <DistanceMeters>NAN</DistanceMeters>
          </Trackpoint>
          <Trackpoint>
            <Time>2022-07-12T14:43:37.000Z</Time>
            <Position>
              <LatitudeDegrees>43.3391615934669971466064453125</LatitudeDegrees>
              <LongitudeDegrees>-3.09356667101383209228515625</LongitudeDegrees>
            </Position>
            <AltitudeMeters>-35</AltitudeMeters>
            <DistanceMeters>NAN</DistanceMeters>
          </Trackpoint>
          <Trackpoint>
            <Time>2022-07-12T14:43:39.000Z</Time>
            <Position>
              <LatitudeDegrees>43.3392537944018840789794921875</LatitudeDegrees>
              <LongitudeDegrees>-3.0937311239540576934814453125</LongitudeDegrees>
            </Position>
            <AltitudeMeters>-35.40000152587890625</AltitudeMeters>
            <DistanceMeters>NAN</DistanceMeters>
          </Trackpoint>
          <Trackpoint>
            <Time>2022-07-12T14:43:40.000Z</Time>
            <Position>
              <LatitudeDegrees>43.33929042331874370574951171875</LatitudeDegrees>
              <LongitudeDegrees>-3.09382139705121517181396484375</LongitudeDegrees>
            </Position>
            <AltitudeMeters>-35.799999237060546875</AltitudeMeters>
            <DistanceMeters>NAN</DistanceMeters>
          </Trackpoint>
          <Trackpoint>
            <Time>2022-07-12T14:43:44.000Z</Time>
            <Position>
              <LatitudeDegrees>43.33944372832775115966796875</LatitudeDegrees>
              <LongitudeDegrees>-3.094195313751697540283203125</LongitudeDegrees>
            </Position>
            <AltitudeMeters>-37</AltitudeMeters>
            <DistanceMeters>NAN</DistanceMeters>
          </Trackpoint>
          <Trackpoint>
            <Time>2022-07-12T14:43:45.000Z</Time>
            <Position>
              <LatitudeDegrees>43.339494355022907257080078125</LatitudeDegrees>
              <LongitudeDegrees>-3.0942781269550323486328125</LongitudeDegrees>
            </Position>
            <AltitudeMeters>-37.59999847412109375</AltitudeMeters>
            <DistanceMeters>NAN</DistanceMeters>
          </Trackpoint>
          <Trackpoint>
            <Time>2022-07-12T14:43:46.000Z</Time>
            <Position>
              <LatitudeDegrees>43.3395503461360931396484375</LatitudeDegrees>
              <LongitudeDegrees>-3.0943559110164642333984375</LongitudeDegrees>
            </Position>
            <AltitudeMeters>-37.799999237060546875</AltitudeMeters>
            <DistanceMeters>NAN</DistanceMeters>
          </Trackpoint>
          <Trackpoint>
            <Time>2022-07-12T14:43:48.000Z</Time>
            <Position>
              <LatitudeDegrees>43.339672721922397613525390625</LatitudeDegrees>
              <LongitudeDegrees>-3.0944999121129512786865234375</LongitudeDegrees>
            </Position>
            <AltitudeMeters>-38.200000762939453125</AltitudeMeters>
            <DistanceMeters>NAN</DistanceMeters>
          </Trackpoint>
          <Trackpoint>
            <Time>2022-07-12T14:43:52.000Z</Time>
            <Position>
              <LatitudeDegrees>43.339940272271633148193359375</LatitudeDegrees>
              <LongitudeDegrees>-3.09477123431861400604248046875</LongitudeDegrees>
            </Position>
            <AltitudeMeters>-39.40000152587890625</AltitudeMeters>
            <DistanceMeters>NAN</DistanceMeters>
          </Trackpoint>
          <Trackpoint>
            <Time>2022-07-12T14:43:55.000Z</Time>
            <Position>
              <LatitudeDegrees>43.34012727253139019012451171875</LatitudeDegrees>
              <LongitudeDegrees>-3.09499369002878665924072265625</LongitudeDegrees>
            </Position>
            <AltitudeMeters>-40.200000762939453125</AltitudeMeters>
            <DistanceMeters>NAN</DistanceMeters>
          </Trackpoint>
          <Trackpoint>
            <Time>2022-07-12T14:43:56.000Z</Time>
            <Position>
              <LatitudeDegrees>43.3401815034449100494384765625</LatitudeDegrees>
              <LongitudeDegrees>-3.09508102945983409881591796875</LongitudeDegrees>
            </Position>
            <AltitudeMeters>-40.40000152587890625</AltitudeMeters>
            <DistanceMeters>NAN</DistanceMeters>
          </Trackpoint>
          <Trackpoint>
            <Time>2022-07-12T14:43:57.000Z</Time>
            <Position>
              <LatitudeDegrees>43.34022969938814640045166015625</LatitudeDegrees>
              <LongitudeDegrees>-3.09517289511859416961669921875</LongitudeDegrees>
            </Position>
            <AltitudeMeters>-40.40000152587890625</AltitudeMeters>
            <DistanceMeters>NAN</DistanceMeters>
          </Trackpoint>
          <Trackpoint>
            <Time>2022-07-12T14:43:59.000Z</Time>
            <Position>
              <LatitudeDegrees>43.3403045497834682464599609375</LatitudeDegrees>
              <LongitudeDegrees>-3.0953756533563137054443359375</LongitudeDegrees>
            </Position>
            <AltitudeMeters>-40.799999237060546875</AltitudeMeters>
            <DistanceMeters>NAN</DistanceMeters>
          </Trackpoint>
          <Trackpoint>
            <Time>2022-07-12T14:44:01.000Z</Time>
            <Position>
              <LatitudeDegrees>43.34036313928663730621337890625</LatitudeDegrees>
              <LongitudeDegrees>-3.0956016294658184051513671875</LongitudeDegrees>
            </Position>
            <AltitudeMeters>-41.200000762939453125</AltitudeMeters>
            <DistanceMeters>NAN</DistanceMeters>
          </Trackpoint>
          <Trackpoint>
            <Time>2022-07-12T14:44:03.000Z</Time>
            <Position>
              <LatitudeDegrees>43.3404205553233623504638671875</LatitudeDegrees>
              <LongitudeDegrees>-3.09582735411822795867919921875</LongitudeDegrees>
            </Position>
            <AltitudeMeters>-41.40000152587890625</AltitudeMeters>
            <DistanceMeters>NAN</DistanceMeters>
          </Trackpoint>
          <Trackpoint>
            <Time>2022-07-12T14:44:06.000Z</Time>
            <Position>
              <LatitudeDegrees>43.34054410457611083984375</LatitudeDegrees>
              <LongitudeDegrees>-3.0961410887539386749267578125</LongitudeDegrees>
            </Position>
            <AltitudeMeters>-42.200000762939453125</AltitudeMeters>
            <DistanceMeters>NAN</DistanceMeters>
          </Trackpoint>
          <Trackpoint>
            <Time>2022-07-12T14:44:08.000Z</Time>
            <Position>
              <LatitudeDegrees>43.34064980037510395050048828125</LatitudeDegrees>
              <LongitudeDegrees>-3.09633630327880382537841796875</LongitudeDegrees>
            </Position>
            <AltitudeMeters>-42.59999847412109375</AltitudeMeters>
            <DistanceMeters>NAN</DistanceMeters>
          </Trackpoint>
          <Trackpoint>
            <Time>2022-07-12T14:44:10.000Z</Time>
            <Position>
              <LatitudeDegrees>43.34073680453002452850341796875</LatitudeDegrees>
              <LongitudeDegrees>-3.0965400673449039459228515625</LongitudeDegrees>
            </Position>
            <AltitudeMeters>-43.200000762939453125</AltitudeMeters>
            <DistanceMeters>NAN</DistanceMeters>
          </Trackpoint>
          <Trackpoint>
            <Time>2022-07-12T14:44:11.000Z</Time>
            <Position>
              <LatitudeDegrees>43.34076982922852039337158203125</LatitudeDegrees>
              <LongitudeDegrees>-3.09665263630449771881103515625</LongitudeDegrees>
            </Position>
            <AltitudeMeters>-43.799999237060546875</AltitudeMeters>
            <DistanceMeters>NAN</DistanceMeters>
          </Trackpoint>
          <Trackpoint>
            <Time>2022-07-12T14:44:12.000Z</Time>
            <Position>
              <LatitudeDegrees>43.3407940529286861419677734375</LatitudeDegrees>
              <LongitudeDegrees>-3.0967714078724384307861328125</LongitudeDegrees>
            </Position>
            <AltitudeMeters>-44.200000762939453125</AltitudeMeters>
            <DistanceMeters>NAN</DistanceMeters>
          </Trackpoint>
          <Trackpoint>
            <Time>2022-07-12T14:44:14.000Z</Time>
            <Position>
              <LatitudeDegrees>43.34080788306891918182373046875</LatitudeDegrees>
              <LongitudeDegrees>-3.09702345170080661773681640625</LongitudeDegrees>
            </Position>
            <AltitudeMeters>-45</AltitudeMeters>
            <DistanceMeters>NAN</DistanceMeters>
          </Trackpoint>
          <Trackpoint>
            <Time>2022-07-12T14:44:18.000Z</Time>
            <Position>
              <LatitudeDegrees>43.3407689072191715240478515625</LatitudeDegrees>
              <LongitudeDegrees>-3.09753240086138248443603515625</LongitudeDegrees>
            </Position>
            <AltitudeMeters>-46.200000762939453125</AltitudeMeters>
            <DistanceMeters>NAN</DistanceMeters>
          </Trackpoint>
          <Trackpoint>
            <Time>2022-07-12T14:44:19.000Z</Time>
            <Position>
              <LatitudeDegrees>43.34077200852334499359130859375</LatitudeDegrees>
              <LongitudeDegrees>-3.0976582132279872894287109375</LongitudeDegrees>
            </Position>
            <AltitudeMeters>-46.40000152587890625</AltitudeMeters>
            <DistanceMeters>NAN</DistanceMeters>
          </Trackpoint>
          <Trackpoint>
            <Time>2022-07-12T14:44:22.000Z</Time>
            <Position>
              <LatitudeDegrees>43.34082514978945255279541015625</LatitudeDegrees>
              <LongitudeDegrees>-3.09802676551043987274169921875</LongitudeDegrees>
            </Position>
            <AltitudeMeters>-47</AltitudeMeters>
            <DistanceMeters>NAN</DistanceMeters>
          </Trackpoint>
          <Trackpoint>
            <Time>2022-07-12T14:44:25.000Z</Time>
            <Position>
              <LatitudeDegrees>43.34092841483652591705322265625</LatitudeDegrees>
              <LongitudeDegrees>-3.098395653069019317626953125</LongitudeDegrees>
            </Position>
            <AltitudeMeters>-47.59999847412109375</AltitudeMeters>
            <DistanceMeters>NAN</DistanceMeters>
          </Trackpoint>
          <Trackpoint>
            <Time>2022-07-12T14:44:27.000Z</Time>
            <Position>
              <LatitudeDegrees>43.34098733961582183837890625</LatitudeDegrees>
              <LongitudeDegrees>-3.0986546538770198822021484375</LongitudeDegrees>
            </Position>
            <AltitudeMeters>-48.200000762939453125</AltitudeMeters>
            <DistanceMeters>NAN</DistanceMeters>
          </Trackpoint>
          <Trackpoint>
            <Time>2022-07-12T14:44:29.000Z</Time>
            <Position>
              <LatitudeDegrees>43.34101424552500247955322265625</LatitudeDegrees>
              <LongitudeDegrees>-3.09891642071306705474853515625</LongitudeDegrees>
            </Position>
            <AltitudeMeters>-48.59999847412109375</AltitudeMeters>
            <DistanceMeters>NAN</DistanceMeters>
          </Trackpoint>
          <Trackpoint>
            <Time>2022-07-12T14:44:31.000Z</Time>
            <Position>
              <LatitudeDegrees>43.34102430380880832672119140625</LatitudeDegrees>
              <LongitudeDegrees>-3.09916670434176921844482421875</LongitudeDegrees>
            </Position>
            <AltitudeMeters>-48.799999237060546875</AltitudeMeters>
            <DistanceMeters>NAN</DistanceMeters>
          </Trackpoint>
          <Trackpoint>
            <Time>2022-07-12T14:44:35.000Z</Time>
            <Position>
              <LatitudeDegrees>43.34107224829494953155517578125</LatitudeDegrees>
              <LongitudeDegrees>-3.09963156469166278839111328125</LongitudeDegrees>
            </Position>
            <AltitudeMeters>-49.40000152587890625</AltitudeMeters>
            <DistanceMeters>NAN</DistanceMeters>
          </Trackpoint>
          <Trackpoint>
            <Time>2022-07-12T14:44:41.000Z</Time>
            <Position>
              <LatitudeDegrees>43.34119562990963459014892578125</LatitudeDegrees>
              <LongitudeDegrees>-3.1002488918602466583251953125</LongitudeDegrees>
            </Position>
            <AltitudeMeters>-49.59999847412109375</AltitudeMeters>
            <DistanceMeters>NAN</DistanceMeters>
          </Trackpoint>
          <Trackpoint>
            <Time>2022-07-12T14:44:42.000Z</Time>
            <Position>
              <LatitudeDegrees>43.3412235416471958160400390625</LatitudeDegrees>
              <LongitudeDegrees>-3.10034519992768764495849609375</LongitudeDegrees>
            </Position>
            <AltitudeMeters>-49.799999237060546875</AltitudeMeters>
            <DistanceMeters>NAN</DistanceMeters>
          </Trackpoint>
          <Trackpoint>
            <Time>2022-07-12T14:44:47.000Z</Time>
            <Position>
              <LatitudeDegrees>43.3413569815456867218017578125</LatitudeDegrees>
              <LongitudeDegrees>-3.1008041091263294219970703125</LongitudeDegrees>
            </Position>
            <AltitudeMeters>-50.40000152587890625</AltitudeMeters>
            <DistanceMeters>NAN</DistanceMeters>
          </Trackpoint>
          <Trackpoint>
            <Time>2022-07-12T14:44:48.000Z</Time>
            <Position>
              <LatitudeDegrees>43.34137466736137866973876953125</LatitudeDegrees>
              <LongitudeDegrees>-3.1008936278522014617919921875</LongitudeDegrees>
            </Position>
            <AltitudeMeters>-50.40000152587890625</AltitudeMeters>
            <DistanceMeters>NAN</DistanceMeters>
          </Trackpoint>
          <Trackpoint>
            <Time>2022-07-12T14:44:54.000Z</Time>
            <Position>
              <LatitudeDegrees>43.34147416055202484130859375</LatitudeDegrees>
              <LongitudeDegrees>-3.10141053982079029083251953125</LongitudeDegrees>
            </Position>
            <AltitudeMeters>-50.799999237060546875</AltitudeMeters>
            <DistanceMeters>NAN</DistanceMeters>
          </Trackpoint>
          <Trackpoint>
            <Time>2022-07-12T14:44:55.000Z</Time>
            <Position>
              <LatitudeDegrees>43.34149033762514591217041015625</LatitudeDegrees>
              <LongitudeDegrees>-3.101494610309600830078125</LongitudeDegrees>
            </Position>
            <AltitudeMeters>-51</AltitudeMeters>
            <DistanceMeters>NAN</DistanceMeters>
          </Trackpoint>
          <Trackpoint>
            <Time>2022-07-12T14:45:01.000Z</Time>
            <Position>
              <LatitudeDegrees>43.341631405055522918701171875</LatitudeDegrees>
              <LongitudeDegrees>-3.1019547767937183380126953125</LongitudeDegrees>
            </Position>
            <AltitudeMeters>-51.200000762939453125</AltitudeMeters>
            <DistanceMeters>NAN</DistanceMeters>
          </Trackpoint>
          <Trackpoint>
            <Time>2022-07-12T14:45:02.000Z</Time>
            <Position>
              <LatitudeDegrees>43.341664262115955352783203125</LatitudeDegrees>
              <LongitudeDegrees>-3.10202409513294696807861328125</LongitudeDegrees>
            </Position>
            <AltitudeMeters>-51.40000152587890625</AltitudeMeters>
            <DistanceMeters>NAN</DistanceMeters>
          </Trackpoint>
          <Trackpoint>
            <Time>2022-07-12T14:45:06.000Z</Time>
            <Position>
              <LatitudeDegrees>43.3418173156678676605224609375</LatitudeDegrees>
              <LongitudeDegrees>-3.10225275345146656036376953125</LongitudeDegrees>
            </Position>
            <AltitudeMeters>-52</AltitudeMeters>
            <DistanceMeters>NAN</DistanceMeters>
          </Trackpoint>
          <Trackpoint>
            <Time>2022-07-12T14:45:12.000Z</Time>
            <Position>
              <LatitudeDegrees>43.342086374759674072265625</LatitudeDegrees>
              <LongitudeDegrees>-3.10251845978200435638427734375</LongitudeDegrees>
            </Position>
            <AltitudeMeters>-52.59999847412109375</AltitudeMeters>
            <DistanceMeters>NAN</DistanceMeters>
          </Trackpoint>
          <Trackpoint>
            <Time>2022-07-12T14:45:17.000Z</Time>
            <Position>
              <LatitudeDegrees>43.3423239178955554962158203125</LatitudeDegrees>
              <LongitudeDegrees>-3.102719374001026153564453125</LongitudeDegrees>
            </Position>
            <AltitudeMeters>-53</AltitudeMeters>
            <DistanceMeters>NAN</DistanceMeters>
          </Trackpoint>
          <Trackpoint>
            <Time>2022-07-12T14:45:22.000Z</Time>
            <Position>
              <LatitudeDegrees>43.3425445295870304107666015625</LatitudeDegrees>
              <LongitudeDegrees>-3.10290453024208545684814453125</LongitudeDegrees>
            </Position>
            <AltitudeMeters>-53</AltitudeMeters>
            <DistanceMeters>NAN</DistanceMeters>
          </Trackpoint>
          <Trackpoint>
            <Time>2022-07-12T14:45:24.000Z</Time>
            <Position>
              <LatitudeDegrees>43.342629186809062957763671875</LatitudeDegrees>
              <LongitudeDegrees>-3.102969489991664886474609375</LongitudeDegrees>
            </Position>
            <AltitudeMeters>-53</AltitudeMeters>
            <DistanceMeters>NAN</DistanceMeters>
          </Trackpoint>
          <Trackpoint>
            <Time>2022-07-12T14:45:29.000Z</Time>
            <Position>
              <LatitudeDegrees>43.34284200333058834075927734375</LatitudeDegrees>
              <LongitudeDegrees>-3.103143833577632904052734375</LongitudeDegrees>
            </Position>
            <AltitudeMeters>-53.40000152587890625</AltitudeMeters>
            <DistanceMeters>NAN</DistanceMeters>
          </Trackpoint>
          <Trackpoint>
            <Time>2022-07-12T14:45:34.000Z</Time>
            <Position>
              <LatitudeDegrees>43.3430720865726470947265625</LatitudeDegrees>
              <LongitudeDegrees>-3.10333837755024433135986328125</LongitudeDegrees>
            </Position>
            <AltitudeMeters>-54</AltitudeMeters>
            <DistanceMeters>NAN</DistanceMeters>
          </Trackpoint>
          <Trackpoint>
            <Time>2022-07-12T14:45:38.000Z</Time>
            <Position>
              <LatitudeDegrees>43.34326780401170253753662109375</LatitudeDegrees>
              <LongitudeDegrees>-3.10348791070282459259033203125</LongitudeDegrees>
            </Position>
            <AltitudeMeters>-54.200000762939453125</AltitudeMeters>
            <DistanceMeters>NAN</DistanceMeters>
          </Trackpoint>
          <Trackpoint>
            <Time>2022-07-12T14:45:42.000Z</Time>
            <Position>
              <LatitudeDegrees>43.3434692211449146270751953125</LatitudeDegrees>
              <LongitudeDegrees>-3.1036526151001453399658203125</LongitudeDegrees>
            </Position>
            <AltitudeMeters>-54.40000152587890625</AltitudeMeters>
            <DistanceMeters>NAN</DistanceMeters>
          </Trackpoint>
          <Trackpoint>
            <Time>2022-07-12T14:45:47.000Z</Time>
            <Position>
              <LatitudeDegrees>43.343701064586639404296875</LatitudeDegrees>
              <LongitudeDegrees>-3.10387532226741313934326171875</LongitudeDegrees>
            </Position>
            <AltitudeMeters>-54.799999237060546875</AltitudeMeters>
            <DistanceMeters>NAN</DistanceMeters>
          </Trackpoint>
          <Trackpoint>
            <Time>2022-07-12T14:45:49.000Z</Time>
            <Position>
              <LatitudeDegrees>43.3437793515622615814208984375</LatitudeDegrees>
              <LongitudeDegrees>-3.10396165587007999420166015625</LongitudeDegrees>
            </Position>
            <AltitudeMeters>-55</AltitudeMeters>
            <DistanceMeters>NAN</DistanceMeters>
          </Trackpoint>
          <Trackpoint>
            <Time>2022-07-12T14:45:54.000Z</Time>
            <Position>
              <LatitudeDegrees>43.34398261271417140960693359375</LatitudeDegrees>
              <LongitudeDegrees>-3.10420255176723003387451171875</LongitudeDegrees>
            </Position>
            <AltitudeMeters>-55.40000152587890625</AltitudeMeters>
            <DistanceMeters>NAN</DistanceMeters>
          </Trackpoint>
          <Trackpoint>
            <Time>2022-07-12T14:46:01.000Z</Time>
            <Position>
              <LatitudeDegrees>43.34426407702267169952392578125</LatitudeDegrees>
              <LongitudeDegrees>-3.104590885341167449951171875</LongitudeDegrees>
            </Position>
            <AltitudeMeters>-56.200000762939453125</AltitudeMeters>
            <DistanceMeters>NAN</DistanceMeters>
          </Trackpoint>
          <Trackpoint>
            <Time>2022-07-12T14:46:04.000Z</Time>
            <Position>
              <LatitudeDegrees>43.3443805016577243804931640625</LatitudeDegrees>
              <LongitudeDegrees>-3.10477503575384616851806640625</LongitudeDegrees>
            </Position>
            <AltitudeMeters>-56.40000152587890625</AltitudeMeters>
            <DistanceMeters>NAN</DistanceMeters>
          </Trackpoint>
          <Trackpoint>
            <Time>2022-07-12T14:46:11.000Z</Time>
            <Position>
              <LatitudeDegrees>43.344574458897113800048828125</LatitudeDegrees>
              <LongitudeDegrees>-3.1052188575267791748046875</LongitudeDegrees>
            </Position>
            <AltitudeMeters>-57</AltitudeMeters>
            <DistanceMeters>NAN</DistanceMeters>
          </Trackpoint>
          <Trackpoint>
            <Time>2022-07-12T14:46:12.000Z</Time>
            <Position>
              <LatitudeDegrees>43.3445970900356769561767578125</LatitudeDegrees>
              <LongitudeDegrees>-3.10528683476150035858154296875</LongitudeDegrees>
            </Position>
            <AltitudeMeters>-57.200000762939453125</AltitudeMeters>
            <DistanceMeters>NAN</DistanceMeters>
          </Trackpoint>
          <Trackpoint>
            <Time>2022-07-12T14:46:19.000Z</Time>
            <Position>
              <LatitudeDegrees>43.34473011083900928497314453125</LatitudeDegrees>
              <LongitudeDegrees>-3.1057926826179027557373046875</LongitudeDegrees>
            </Position>
            <AltitudeMeters>-58.200000762939453125</AltitudeMeters>
            <DistanceMeters>NAN</DistanceMeters>
          </Trackpoint>
          <Trackpoint>
            <Time>2022-07-12T14:46:20.000Z</Time>
            <Position>
              <LatitudeDegrees>43.34474938921630382537841796875</LatitudeDegrees>
              <LongitudeDegrees>-3.10586334206163883209228515625</LongitudeDegrees>
            </Position>
            <AltitudeMeters>-58.200000762939453125</AltitudeMeters>
            <DistanceMeters>NAN</DistanceMeters>
          </Trackpoint>
          <Trackpoint>
            <Time>2022-07-12T14:46:29.000Z</Time>
            <Position>
              <LatitudeDegrees>43.34489934146404266357421875</LatitudeDegrees>
              <LongitudeDegrees>-3.106510005891323089599609375</LongitudeDegrees>
            </Position>
            <AltitudeMeters>-58.200000762939453125</AltitudeMeters>
            <DistanceMeters>NAN</DistanceMeters>
          </Trackpoint>
          <Trackpoint>
            <Time>2022-07-12T14:46:38.000Z</Time>
            <Position>
              <LatitudeDegrees>43.3450765348970890045166015625</LatitudeDegrees>
              <LongitudeDegrees>-3.1070955656468868255615234375</LongitudeDegrees>
            </Position>
            <AltitudeMeters>-58.799999237060546875</AltitudeMeters>
            <DistanceMeters>NAN</DistanceMeters>
          </Trackpoint>
          <Trackpoint>
            <Time>2022-07-12T14:46:41.000Z</Time>
            <Position>
              <LatitudeDegrees>43.34513269364833831787109375</LatitudeDegrees>
              <LongitudeDegrees>-3.10731031000614166259765625</LongitudeDegrees>
            </Position>
            <AltitudeMeters>-59.200000762939453125</AltitudeMeters>
            <DistanceMeters>NAN</DistanceMeters>
          </Trackpoint>
          <Trackpoint>
            <Time>2022-07-12T14:46:48.000Z</Time>
            <Position>
              <LatitudeDegrees>43.3452594280242919921875</LatitudeDegrees>
              <LongitudeDegrees>-3.10784415341913700103759765625</LongitudeDegrees>
            </Position>
            <AltitudeMeters>-59.799999237060546875</AltitudeMeters>
            <DistanceMeters>NAN</DistanceMeters>
          </Trackpoint>
          <Trackpoint>
            <Time>2022-07-12T14:46:52.000Z</Time>
            <Position>
              <LatitudeDegrees>43.34529153071343898773193359375</LatitudeDegrees>
              <LongitudeDegrees>-3.10818311758339405059814453125</LongitudeDegrees>
            </Position>
            <AltitudeMeters>-60.40000152587890625</AltitudeMeters>
            <DistanceMeters>NAN</DistanceMeters>
          </Trackpoint>
          <Trackpoint>
            <Time>2022-07-12T14:46:53.000Z</Time>
            <Position>
              <LatitudeDegrees>43.34528566338121891021728515625</LatitudeDegrees>
              <LongitudeDegrees>-3.10827163048088550567626953125</LongitudeDegrees>
            </Position>
            <AltitudeMeters>-60.59999847412109375</AltitudeMeters>
            <DistanceMeters>NAN</DistanceMeters>
          </Trackpoint>
          <Trackpoint>
            <Time>2022-07-12T14:47:00.000Z</Time>
            <Position>
              <LatitudeDegrees>43.34525884129106998443603515625</LatitudeDegrees>
              <LongitudeDegrees>-3.10884051024913787841796875</LongitudeDegrees>
            </Position>
            <AltitudeMeters>-61.40000152587890625</AltitudeMeters>
            <DistanceMeters>NAN</DistanceMeters>
          </Trackpoint>
          <Trackpoint>
            <Time>2022-07-12T14:47:01.000Z</Time>
            <Position>
              <LatitudeDegrees>43.34526303224265575408935546875</LatitudeDegrees>
              <LongitudeDegrees>-3.10891653411090373992919921875</LongitudeDegrees>
            </Position>
            <AltitudeMeters>-61.59999847412109375</AltitudeMeters>
            <DistanceMeters>NAN</DistanceMeters>
          </Trackpoint>
          <Trackpoint>
            <Time>2022-07-12T14:47:06.000Z</Time>
            <Position>
              <LatitudeDegrees>43.3453155867755413055419921875</LatitudeDegrees>
              <LongitudeDegrees>-3.1092775426805019378662109375</LongitudeDegrees>
            </Position>
            <AltitudeMeters>-62.59999847412109375</AltitudeMeters>
            <DistanceMeters>NAN</DistanceMeters>
          </Trackpoint>
          <Trackpoint>
            <Time>2022-07-12T14:47:13.000Z</Time>
            <Position>
              <LatitudeDegrees>43.34545648656785488128662109375</LatitudeDegrees>
              <LongitudeDegrees>-3.109729997813701629638671875</LongitudeDegrees>
            </Position>
            <AltitudeMeters>-62.59999847412109375</AltitudeMeters>
            <DistanceMeters>NAN</DistanceMeters>
          </Trackpoint>
          <Trackpoint>
            <Time>2022-07-12T14:47:23.000Z</Time>
            <Position>
              <LatitudeDegrees>43.3456666208803653717041015625</LatitudeDegrees>
              <LongitudeDegrees>-3.11027959920465946197509765625</LongitudeDegrees>
            </Position>
            <AltitudeMeters>-62.200000762939453125</AltitudeMeters>
            <DistanceMeters>NAN</DistanceMeters>
          </Trackpoint>
          <Trackpoint>
            <Time>2022-07-12T14:47:24.000Z</Time>
            <Position>
              <LatitudeDegrees>43.34568615071475505828857421875</LatitudeDegrees>
              <LongitudeDegrees>-3.11032888479530811309814453125</LongitudeDegrees>
            </Position>
            <AltitudeMeters>-62.200000762939453125</AltitudeMeters>
            <DistanceMeters>NAN</DistanceMeters>
          </Trackpoint>
          <Trackpoint>
            <Time>2022-07-12T14:47:32.000Z</Time>
            <Position>
              <LatitudeDegrees>43.34581037051975727081298828125</LatitudeDegrees>
              <LongitudeDegrees>-3.110714368522167205810546875</LongitudeDegrees>
            </Position>
            <AltitudeMeters>-61.59999847412109375</AltitudeMeters>
            <DistanceMeters>NAN</DistanceMeters>
          </Trackpoint>
          <Trackpoint>
            <Time>2022-07-12T14:47:33.000Z</Time>
            <Position>
              <LatitudeDegrees>43.3458267152309417724609375</LatitudeDegrees>
              <LongitudeDegrees>-3.1107577867805957794189453125</LongitudeDegrees>
            </Position>
            <AltitudeMeters>-61.59999847412109375</AltitudeMeters>
            <DistanceMeters>NAN</DistanceMeters>
          </Trackpoint>
          <Trackpoint>
            <Time>2022-07-12T14:47:41.000Z</Time>
            <Position>
              <LatitudeDegrees>43.34592998027801513671875</LatitudeDegrees>
              <LongitudeDegrees>-3.11112105846405029296875</LongitudeDegrees>
            </Position>
            <AltitudeMeters>-61</AltitudeMeters>
            <DistanceMeters>NAN</DistanceMeters>
          </Trackpoint>
          <Trackpoint>
            <Time>2022-07-12T14:47:47.000Z</Time>
            <Position>
              <LatitudeDegrees>43.3460890688002109527587890625</LatitudeDegrees>
              <LongitudeDegrees>-3.11132851056754589080810546875</LongitudeDegrees>
            </Position>
            <AltitudeMeters>-60.59999847412109375</AltitudeMeters>
            <DistanceMeters>NAN</DistanceMeters>
          </Trackpoint>
          <Trackpoint>
            <Time>2022-07-12T14:47:54.000Z</Time>
            <Position>
              <LatitudeDegrees>43.34635167382657527923583984375</LatitudeDegrees>
              <LongitudeDegrees>-3.111386261880397796630859375</LongitudeDegrees>
            </Position>
            <AltitudeMeters>-61.200000762939453125</AltitudeMeters>
            <DistanceMeters>NAN</DistanceMeters>
          </Trackpoint>
          <Trackpoint>
            <Time>2022-07-12T14:48:06.000Z</Time>
            <Position>
              <LatitudeDegrees>43.3468089066445827484130859375</LatitudeDegrees>
              <LongitudeDegrees>-3.1114082224667072296142578125</LongitudeDegrees>
            </Position>
            <AltitudeMeters>-61.40000152587890625</AltitudeMeters>
            <DistanceMeters>NAN</DistanceMeters>
          </Trackpoint>
          <Trackpoint>
            <Time>2022-07-12T14:48:14.000Z</Time>
            <Position>
              <LatitudeDegrees>43.3471133373677730560302734375</LatitudeDegrees>
              <LongitudeDegrees>-3.1113968230783939361572265625</LongitudeDegrees>
            </Position>
            <AltitudeMeters>-61.200000762939453125</AltitudeMeters>
            <DistanceMeters>NAN</DistanceMeters>
          </Trackpoint>
          <Trackpoint>
            <Time>2022-07-12T14:48:20.000Z</Time>
            <Position>
              <LatitudeDegrees>43.3473416604101657867431640625</LatitudeDegrees>
              <LongitudeDegrees>-3.111290372908115386962890625</LongitudeDegrees>
            </Position>
            <AltitudeMeters>-61.59999847412109375</AltitudeMeters>
            <DistanceMeters>NAN</DistanceMeters>
          </Trackpoint>
          <Trackpoint>
            <Time>2022-07-12T14:48:26.000Z</Time>
            <Position>
              <LatitudeDegrees>43.347547687590122222900390625</LatitudeDegrees>
              <LongitudeDegrees>-3.11131878755986690521240234375</LongitudeDegrees>
            </Position>
            <AltitudeMeters>-61.799999237060546875</AltitudeMeters>
            <DistanceMeters>NAN</DistanceMeters>
          </Trackpoint>
          <Trackpoint>
            <Time>2022-07-12T14:48:31.000Z</Time>
            <Position>
              <LatitudeDegrees>43.3477107994258403778076171875</LatitudeDegrees>
              <LongitudeDegrees>-3.11140947975218296051025390625</LongitudeDegrees>
            </Position>
            <AltitudeMeters>-61.799999237060546875</AltitudeMeters>
            <DistanceMeters>NAN</DistanceMeters>
          </Trackpoint>
          <Trackpoint>
            <Time>2022-07-12T14:48:32.000Z</Time>
            <Position>
              <LatitudeDegrees>43.3477433212101459503173828125</LatitudeDegrees>
              <LongitudeDegrees>-3.11143261380493640899658203125</LongitudeDegrees>
            </Position>
            <AltitudeMeters>-61.799999237060546875</AltitudeMeters>
            <DistanceMeters>NAN</DistanceMeters>
          </Trackpoint>
          <Trackpoint>
            <Time>2022-07-12T14:48:37.000Z</Time>
            <Position>
              <LatitudeDegrees>43.347892351448535919189453125</LatitudeDegrees>
              <LongitudeDegrees>-3.111547194421291351318359375</LongitudeDegrees>
            </Position>
            <AltitudeMeters>-61.40000152587890625</AltitudeMeters>
            <DistanceMeters>NAN</DistanceMeters>
          </Trackpoint>
          <Trackpoint>
            <Time>2022-07-12T14:48:42.000Z</Time>
            <Position>
              <LatitudeDegrees>43.3480274677276611328125</LatitudeDegrees>
              <LongitudeDegrees>-3.11166026629507541656494140625</LongitudeDegrees>
            </Position>
            <AltitudeMeters>-61.200000762939453125</AltitudeMeters>
            <DistanceMeters>NAN</DistanceMeters>
          </Trackpoint>
          <Trackpoint>
            <Time>2022-07-12T14:48:50.000Z</Time>
            <Position>
              <LatitudeDegrees>43.34823793731629848480224609375</LatitudeDegrees>
              <LongitudeDegrees>-3.11181516386568546295166015625</LongitudeDegrees>
            </Position>
            <AltitudeMeters>-61</AltitudeMeters>
            <DistanceMeters>NAN</DistanceMeters>
          </Trackpoint>
          <Trackpoint>
            <Time>2022-07-12T14:48:54.000Z</Time>
            <Position>
              <LatitudeDegrees>43.348338939249515533447265625</LatitudeDegrees>
              <LongitudeDegrees>-3.11189127154648303985595703125</LongitudeDegrees>
            </Position>
            <AltitudeMeters>-60.40000152587890625</AltitudeMeters>
            <DistanceMeters>NAN</DistanceMeters>
          </Trackpoint>
          <Trackpoint>
            <Time>2022-07-12T14:49:00.000Z</Time>
            <Position>
              <LatitudeDegrees>43.34847447462379932403564453125</LatitudeDegrees>
              <LongitudeDegrees>-3.1119798682630062103271484375</LongitudeDegrees>
            </Position>
            <AltitudeMeters>-60</AltitudeMeters>
            <DistanceMeters>NAN</DistanceMeters>
          </Trackpoint>
          <Trackpoint>
            <Time>2022-07-12T14:49:06.000Z</Time>
            <Position>
              <LatitudeDegrees>43.34856365807354450225830078125</LatitudeDegrees>
              <LongitudeDegrees>-3.112041391432285308837890625</LongitudeDegrees>
            </Position>
            <AltitudeMeters>-59.59999847412109375</AltitudeMeters>
            <DistanceMeters>NAN</DistanceMeters>
          </Trackpoint>
          <Trackpoint>
            <Time>2022-07-12T14:49:07.000Z</Time>
            <Position>
              <LatitudeDegrees>43.34857556037604808807373046875</LatitudeDegrees>
              <LongitudeDegrees>-3.1120392121374607086181640625</LongitudeDegrees>
            </Position>
            <AltitudeMeters>-59.59999847412109375</AltitudeMeters>
            <DistanceMeters>NAN</DistanceMeters>
          </Trackpoint>
          <Trackpoint>
            <Time>2022-07-12T14:49:09.000Z</Time>
            <Position>
              <LatitudeDegrees>43.3486068248748779296875</LatitudeDegrees>
              <LongitudeDegrees>-3.11203158460557460784912109375</LongitudeDegrees>
            </Position>
            <AltitudeMeters>-59.59999847412109375</AltitudeMeters>
            <DistanceMeters>NAN</DistanceMeters>
          </Trackpoint>
          <Trackpoint>
            <Time>2022-07-12T14:49:13.000Z</Time>
            <Position>
              <LatitudeDegrees>43.348672874271869659423828125</LatitudeDegrees>
              <LongitudeDegrees>-3.11207718215882778167724609375</LongitudeDegrees>
            </Position>
            <AltitudeMeters>-59.40000152587890625</AltitudeMeters>
            <DistanceMeters>NAN</DistanceMeters>
          </Trackpoint>
          <Trackpoint>
            <Time>2022-07-12T14:49:19.000Z</Time>
            <Position>
              <LatitudeDegrees>43.348770439624786376953125</LatitudeDegrees>
              <LongitudeDegrees>-3.1120874918997287750244140625</LongitudeDegrees>
            </Position>
            <AltitudeMeters>-59.40000152587890625</AltitudeMeters>
            <DistanceMeters>NAN</DistanceMeters>
          </Trackpoint>
          <Trackpoint>
            <Time>2022-07-12T14:49:22.000Z</Time>
            <Position>
              <LatitudeDegrees>43.3488289453089237213134765625</LatitudeDegrees>
              <LongitudeDegrees>-3.11211473308503627777099609375</LongitudeDegrees>
            </Position>
            <AltitudeMeters>-59.200000762939453125</AltitudeMeters>
            <DistanceMeters>NAN</DistanceMeters>
          </Trackpoint>
          <Trackpoint>
            <Time>2022-07-12T14:49:30.000Z</Time>
            <Position>
              <LatitudeDegrees>43.3489798195660114288330078125</LatitudeDegrees>
              <LongitudeDegrees>-3.11224289238452911376953125</LongitudeDegrees>
            </Position>
            <AltitudeMeters>-58.59999847412109375</AltitudeMeters>
            <DistanceMeters>NAN</DistanceMeters>
          </Trackpoint>
          <Trackpoint>
            <Time>2022-07-12T14:49:32.000Z</Time>
            <Position>
              <LatitudeDegrees>43.34901678375899791717529296875</LatitudeDegrees>
              <LongitudeDegrees>-3.11228907667100429534912109375</LongitudeDegrees>
            </Position>
            <AltitudeMeters>-58.40000152587890625</AltitudeMeters>
            <DistanceMeters>NAN</DistanceMeters>
          </Trackpoint>
          <Trackpoint>
            <Time>2022-07-12T14:49:36.000Z</Time>
            <Position>
              <LatitudeDegrees>43.349095322191715240478515625</LatitudeDegrees>
              <LongitudeDegrees>-3.11234992928802967071533203125</LongitudeDegrees>
            </Position>
            <AltitudeMeters>-58</AltitudeMeters>
            <DistanceMeters>NAN</DistanceMeters>
          </Trackpoint>
          <Trackpoint>
            <Time>2022-07-12T14:49:42.000Z</Time>
            <Position>
              <LatitudeDegrees>43.349209986627101898193359375</LatitudeDegrees>
              <LongitudeDegrees>-3.112475238740444183349609375</LongitudeDegrees>
            </Position>
            <AltitudeMeters>-58</AltitudeMeters>
            <DistanceMeters>NAN</DistanceMeters>
          </Trackpoint>
          <Trackpoint>
            <Time>2022-07-12T14:49:46.000Z</Time>
            <Position>
              <LatitudeDegrees>43.34925885312259197235107421875</LatitudeDegrees>
              <LongitudeDegrees>-3.11255964450538158416748046875</LongitudeDegrees>
            </Position>
            <AltitudeMeters>-57.799999237060546875</AltitudeMeters>
            <DistanceMeters>NAN</DistanceMeters>
          </Trackpoint>
          <Trackpoint>
            <Time>2022-07-12T14:49:47.000Z</Time>
            <Position>
              <LatitudeDegrees>43.34925751201808452606201171875</LatitudeDegrees>
              <LongitudeDegrees>-3.112581185996532440185546875</LongitudeDegrees>
            </Position>
            <AltitudeMeters>-58</AltitudeMeters>
            <DistanceMeters>NAN</DistanceMeters>
          </Trackpoint>
          <Trackpoint>
            <Time>2022-07-12T14:49:52.000Z</Time>
            <Position>
              <LatitudeDegrees>43.34917478263378143310546875</LatitudeDegrees>
              <LongitudeDegrees>-3.11267565004527568817138671875</LongitudeDegrees>
            </Position>
            <AltitudeMeters>-58.200000762939453125</AltitudeMeters>
            <DistanceMeters>NAN</DistanceMeters>
          </Trackpoint>
          <Trackpoint>
            <Time>2022-07-12T14:49:59.000Z</Time>
            <Position>
              <LatitudeDegrees>43.34900706075131893157958984375</LatitudeDegrees>
              <LongitudeDegrees>-3.11283675022423267364501953125</LongitudeDegrees>
            </Position>
            <AltitudeMeters>-58.200000762939453125</AltitudeMeters>
            <DistanceMeters>NAN</DistanceMeters>
          </Trackpoint>
          <Trackpoint>
            <Time>2022-07-12T14:50:04.000Z</Time>
            <Position>
              <LatitudeDegrees>43.34886054508388042449951171875</LatitudeDegrees>
              <LongitudeDegrees>-3.11299583874642848968505859375</LongitudeDegrees>
            </Position>
            <AltitudeMeters>-58.200000762939453125</AltitudeMeters>
            <DistanceMeters>NAN</DistanceMeters>
          </Trackpoint>
          <Trackpoint>
            <Time>2022-07-12T14:50:09.000Z</Time>
            <Position>
              <LatitudeDegrees>43.3486887998878955841064453125</LatitudeDegrees>
              <LongitudeDegrees>-3.11316959559917449951171875</LongitudeDegrees>
            </Position>
            <AltitudeMeters>-58.799999237060546875</AltitudeMeters>
            <DistanceMeters>NAN</DistanceMeters>
          </Trackpoint>
          <Trackpoint>
            <Time>2022-07-12T14:50:17.000Z</Time>
            <Position>
              <LatitudeDegrees>43.3483739756047725677490234375</LatitudeDegrees>
              <LongitudeDegrees>-3.11347193084657192230224609375</LongitudeDegrees>
            </Position>
            <AltitudeMeters>-59.40000152587890625</AltitudeMeters>
            <DistanceMeters>NAN</DistanceMeters>
          </Trackpoint>
          <Trackpoint>
            <Time>2022-07-12T14:50:19.000Z</Time>
            <Position>
              <LatitudeDegrees>43.34829233586788177490234375</LatitudeDegrees>
              <LongitudeDegrees>-3.11354569159448146820068359375</LongitudeDegrees>
            </Position>
            <AltitudeMeters>-59.40000152587890625</AltitudeMeters>
            <DistanceMeters>NAN</DistanceMeters>
          </Trackpoint>
          <Trackpoint>
            <Time>2022-07-12T14:50:23.000Z</Time>
            <Position>
              <LatitudeDegrees>43.34813182242214679718017578125</LatitudeDegrees>
              <LongitudeDegrees>-3.11369723640382289886474609375</LongitudeDegrees>
            </Position>
            <AltitudeMeters>-59.59999847412109375</AltitudeMeters>
            <DistanceMeters>NAN</DistanceMeters>
          </Trackpoint>
          <Trackpoint>
            <Time>2022-07-12T14:50:27.000Z</Time>
            <Position>
              <LatitudeDegrees>43.3479719795286655426025390625</LatitudeDegrees>
              <LongitudeDegrees>-3.113849870860576629638671875</LongitudeDegrees>
            </Position>
            <AltitudeMeters>-60</AltitudeMeters>
            <DistanceMeters>NAN</DistanceMeters>
          </Trackpoint>
          <Trackpoint>
            <Time>2022-07-12T14:50:33.000Z</Time>
            <Position>
              <LatitudeDegrees>43.3477506972849369049072265625</LatitudeDegrees>
              <LongitudeDegrees>-3.11404131352901458740234375</LongitudeDegrees>
            </Position>
            <AltitudeMeters>-60.40000152587890625</AltitudeMeters>
            <DistanceMeters>NAN</DistanceMeters>
          </Trackpoint>
          <Trackpoint>
            <Time>2022-07-12T14:50:35.000Z</Time>
            <Position>
              <LatitudeDegrees>43.34768489934504032135009765625</LatitudeDegrees>
              <LongitudeDegrees>-3.114104010164737701416015625</LongitudeDegrees>
            </Position>
            <AltitudeMeters>-60.59999847412109375</AltitudeMeters>
            <DistanceMeters>NAN</DistanceMeters>
          </Trackpoint>
          <Trackpoint>
            <Time>2022-07-12T14:50:37.000Z</Time>
            <Position>
              <LatitudeDegrees>43.3476212806999683380126953125</LatitudeDegrees>
              <LongitudeDegrees>-3.11415396630764007568359375</LongitudeDegrees>
            </Position>
            <AltitudeMeters>-60.59999847412109375</AltitudeMeters>
            <DistanceMeters>NAN</DistanceMeters>
          </Trackpoint>
          <Trackpoint>
            <Time>2022-07-12T14:50:40.000Z</Time>
            <Position>
              <LatitudeDegrees>43.3475406467914581298828125</LatitudeDegrees>
              <LongitudeDegrees>-3.1142456643283367156982421875</LongitudeDegrees>
            </Position>
            <AltitudeMeters>-60.799999237060546875</AltitudeMeters>
            <DistanceMeters>NAN</DistanceMeters>
          </Trackpoint>
          <Trackpoint>
            <Time>2022-07-12T14:50:41.000Z</Time>
            <Position>
              <LatitudeDegrees>43.34751340560615062713623046875</LatitudeDegrees>
              <LongitudeDegrees>-3.11426871456205844879150390625</LongitudeDegrees>
            </Position>
            <AltitudeMeters>-60.799999237060546875</AltitudeMeters>
            <DistanceMeters>NAN</DistanceMeters>
          </Trackpoint>
          <Trackpoint>
            <Time>2022-07-12T14:50:43.000Z</Time>
            <Position>
              <LatitudeDegrees>43.34745758213102817535400390625</LatitudeDegrees>
              <LongitudeDegrees>-3.1143100373446941375732421875</LongitudeDegrees>
            </Position>
            <AltitudeMeters>-60.799999237060546875</AltitudeMeters>
            <DistanceMeters>NAN</DistanceMeters>
          </Trackpoint>
          <Trackpoint>
            <Time>2022-07-12T14:50:45.000Z</Time>
            <Position>
              <LatitudeDegrees>43.3474080450832843780517578125</LatitudeDegrees>
              <LongitudeDegrees>-3.114353455603122711181640625</LongitudeDegrees>
            </Position>
            <AltitudeMeters>-61</AltitudeMeters>
            <DistanceMeters>NAN</DistanceMeters>
          </Trackpoint>
          <Trackpoint>
            <Time>2022-07-12T14:50:47.000Z</Time>
            <Position>
              <LatitudeDegrees>43.3473587594926357269287109375</LatitudeDegrees>
              <LongitudeDegrees>-3.11439402401447296142578125</LongitudeDegrees>
            </Position>
            <AltitudeMeters>-61.200000762939453125</AltitudeMeters>
            <DistanceMeters>NAN</DistanceMeters>
          </Trackpoint>
          <Trackpoint>
            <Time>2022-07-12T14:50:49.000Z</Time>
            <Position>
              <LatitudeDegrees>43.3473054505884647369384765625</LatitudeDegrees>
              <LongitudeDegrees>-3.11442797072231769561767578125</LongitudeDegrees>
            </Position>
            <AltitudeMeters>-61.40000152587890625</AltitudeMeters>
            <DistanceMeters>NAN</DistanceMeters>
          </Trackpoint>
          <Trackpoint>
            <Time>2022-07-12T14:50:51.000Z</Time>
            <Position>
              <LatitudeDegrees>43.34724954329431056976318359375</LatitudeDegrees>
              <LongitudeDegrees>-3.1144645996391773223876953125</LongitudeDegrees>
            </Position>
            <AltitudeMeters>-61.40000152587890625</AltitudeMeters>
            <DistanceMeters>NAN</DistanceMeters>
          </Trackpoint>
          <Trackpoint>
            <Time>2022-07-12T14:50:56.000Z</Time>
            <Position>
              <LatitudeDegrees>43.34714778698980808258056640625</LatitudeDegrees>
              <LongitudeDegrees>-3.11459460295736789703369140625</LongitudeDegrees>
            </Position>
            <AltitudeMeters>-61.200000762939453125</AltitudeMeters>
            <DistanceMeters>NAN</DistanceMeters>
          </Trackpoint>
          <Trackpoint>
            <Time>2022-07-12T14:50:59.000Z</Time>
            <Position>
              <LatitudeDegrees>43.34719254635274410247802734375</LatitudeDegrees>
              <LongitudeDegrees>-3.11466366983950138092041015625</LongitudeDegrees>
            </Position>
            <AltitudeMeters>-60.799999237060546875</AltitudeMeters>
            <DistanceMeters>NAN</DistanceMeters>
          </Trackpoint>
          <Trackpoint>
            <Time>2022-07-12T14:51:06.000Z</Time>
            <Position>
              <LatitudeDegrees>43.34737024269998073577880859375</LatitudeDegrees>
              <LongitudeDegrees>-3.11477296985685825347900390625</LongitudeDegrees>
            </Position>
            <AltitudeMeters>-60.40000152587890625</AltitudeMeters>
            <DistanceMeters>NAN</DistanceMeters>
          </Trackpoint>
          <Trackpoint>
            <Time>2022-07-12T14:51:10.000Z</Time>
            <Position>
              <LatitudeDegrees>43.34744484163820743560791015625</LatitudeDegrees>
              <LongitudeDegrees>-3.1148629076778888702392578125</LongitudeDegrees>
            </Position>
            <AltitudeMeters>-60.40000152587890625</AltitudeMeters>
            <DistanceMeters>NAN</DistanceMeters>
          </Trackpoint>
          <Trackpoint>
            <Time>2022-07-12T14:51:12.000Z</Time>
            <Position>
              <LatitudeDegrees>43.3474707417190074920654296875</LatitudeDegrees>
              <LongitudeDegrees>-3.1149262748658657073974609375</LongitudeDegrees>
            </Position>
            <AltitudeMeters>-60.200000762939453125</AltitudeMeters>
            <DistanceMeters>NAN</DistanceMeters>
          </Trackpoint>
          <Trackpoint>
            <Time>2022-07-12T14:51:18.000Z</Time>
            <Position>
              <LatitudeDegrees>43.34746831096708774566650390625</LatitudeDegrees>
              <LongitudeDegrees>-3.11515032313764095306396484375</LongitudeDegrees>
            </Position>
            <AltitudeMeters>-60.40000152587890625</AltitudeMeters>
            <DistanceMeters>NAN</DistanceMeters>
          </Trackpoint>
          <Trackpoint>
            <Time>2022-07-12T14:51:22.000Z</Time>
            <Position>
              <LatitudeDegrees>43.347415588796138763427734375</LatitudeDegrees>
              <LongitudeDegrees>-3.11528845690190792083740234375</LongitudeDegrees>
            </Position>
            <AltitudeMeters>-60.40000152587890625</AltitudeMeters>
            <DistanceMeters>NAN</DistanceMeters>
          </Trackpoint>
          <Trackpoint>
            <Time>2022-07-12T14:51:25.000Z</Time>
            <Position>
              <LatitudeDegrees>43.3473797142505645751953125</LatitudeDegrees>
              <LongitudeDegrees>-3.11540253460407257080078125</LongitudeDegrees>
            </Position>
            <AltitudeMeters>-60.40000152587890625</AltitudeMeters>
            <DistanceMeters>NAN</DistanceMeters>
          </Trackpoint>
          <Trackpoint>
            <Time>2022-07-12T14:51:26.000Z</Time>
            <Position>
              <LatitudeDegrees>43.3473711647093296051025390625</LatitudeDegrees>
              <LongitudeDegrees>-3.115444444119930267333984375</LongitudeDegrees>
            </Position>
            <AltitudeMeters>-60.40000152587890625</AltitudeMeters>
            <DistanceMeters>NAN</DistanceMeters>
          </Trackpoint>
          <Trackpoint>
            <Time>2022-07-12T14:51:33.000Z</Time>
            <Position>
              <LatitudeDegrees>43.34733922965824604034423828125</LatitudeDegrees>
              <LongitudeDegrees>-3.11575390398502349853515625</LongitudeDegrees>
            </Position>
            <AltitudeMeters>-60</AltitudeMeters>
            <DistanceMeters>NAN</DistanceMeters>
          </Trackpoint>
          <Trackpoint>
            <Time>2022-07-12T14:51:37.000Z</Time>
            <Position>
              <LatitudeDegrees>43.34735951386392116546630859375</LatitudeDegrees>
              <LongitudeDegrees>-3.11593336053192615509033203125</LongitudeDegrees>
            </Position>
            <AltitudeMeters>-60</AltitudeMeters>
            <DistanceMeters>NAN</DistanceMeters>
          </Trackpoint>
          <Trackpoint>
            <Time>2022-07-12T14:51:40.000Z</Time>
            <Position>
              <LatitudeDegrees>43.34736286662518978118896484375</LatitudeDegrees>
              <LongitudeDegrees>-3.11606864444911479949951171875</LongitudeDegrees>
            </Position>
            <AltitudeMeters>-59.799999237060546875</AltitudeMeters>
            <DistanceMeters>NAN</DistanceMeters>
          </Trackpoint>
          <Trackpoint>
            <Time>2022-07-12T14:51:41.000Z</Time>
            <Position>
              <LatitudeDegrees>43.34736295044422149658203125</LatitudeDegrees>
              <LongitudeDegrees>-3.1161005795001983642578125</LongitudeDegrees>
            </Position>
            <AltitudeMeters>-59.799999237060546875</AltitudeMeters>
            <DistanceMeters>NAN</DistanceMeters>
          </Trackpoint>
          <Trackpoint>
            <Time>2022-07-12T14:51:50.000Z</Time>
            <Position>
              <LatitudeDegrees>43.34733805619180202484130859375</LatitudeDegrees>
              <LongitudeDegrees>-3.1164303235709667205810546875</LongitudeDegrees>
            </Position>
            <AltitudeMeters>-59.59999847412109375</AltitudeMeters>
            <DistanceMeters>NAN</DistanceMeters>
          </Trackpoint>
          <Trackpoint>
            <Time>2022-07-12T14:51:57.000Z</Time>
            <Position>
              <LatitudeDegrees>43.34723562933504581451416015625</LatitudeDegrees>
              <LongitudeDegrees>-3.116648755967617034912109375</LongitudeDegrees>
            </Position>
            <AltitudeMeters>-59.59999847412109375</AltitudeMeters>
            <DistanceMeters>NAN</DistanceMeters>
          </Trackpoint>
          <Trackpoint>
            <Time>2022-07-12T14:51:59.000Z</Time>
            <Position>
              <LatitudeDegrees>43.3471964858472347259521484375</LatitudeDegrees>
              <LongitudeDegrees>-3.11671237461268901824951171875</LongitudeDegrees>
            </Position>
            <AltitudeMeters>-59.799999237060546875</AltitudeMeters>
            <DistanceMeters>NAN</DistanceMeters>
          </Trackpoint>
          <Trackpoint>
            <Time>2022-07-12T14:52:08.000Z</Time>
            <Position>
              <LatitudeDegrees>43.3470251597464084625244140625</LatitudeDegrees>
              <LongitudeDegrees>-3.11695075593888759613037109375</LongitudeDegrees>
            </Position>
            <AltitudeMeters>-60.200000762939453125</AltitudeMeters>
            <DistanceMeters>NAN</DistanceMeters>
          </Trackpoint>
          <Trackpoint>
            <Time>2022-07-12T14:52:15.000Z</Time>
            <Position>
              <LatitudeDegrees>43.3469245769083499908447265625</LatitudeDegrees>
              <LongitudeDegrees>-3.11712107621133327484130859375</LongitudeDegrees>
            </Position>
            <AltitudeMeters>-60</AltitudeMeters>
            <DistanceMeters>NAN</DistanceMeters>
          </Trackpoint>
          <Trackpoint>
            <Time>2022-07-12T14:52:22.000Z</Time>
            <Position>
              <LatitudeDegrees>43.3468513190746307373046875</LatitudeDegrees>
              <LongitudeDegrees>-3.1173449568450450897216796875</LongitudeDegrees>
            </Position>
            <AltitudeMeters>-59.59999847412109375</AltitudeMeters>
            <DistanceMeters>NAN</DistanceMeters>
          </Trackpoint>
          <Trackpoint>
            <Time>2022-07-12T14:52:29.000Z</Time>
            <Position>
              <LatitudeDegrees>43.34681569598615169525146484375</LatitudeDegrees>
              <LongitudeDegrees>-3.11759599484503269195556640625</LongitudeDegrees>
            </Position>
            <AltitudeMeters>-59.799999237060546875</AltitudeMeters>
            <DistanceMeters>NAN</DistanceMeters>
          </Trackpoint>
          <Trackpoint>
            <Time>2022-07-12T14:52:31.000Z</Time>
            <Position>
              <LatitudeDegrees>43.346818797290325164794921875</LatitudeDegrees>
              <LongitudeDegrees>-3.1176711805164813995361328125</LongitudeDegrees>
            </Position>
            <AltitudeMeters>-59.799999237060546875</AltitudeMeters>
            <DistanceMeters>NAN</DistanceMeters>
          </Trackpoint>
          <Trackpoint>
            <Time>2022-07-12T14:52:34.000Z</Time>
            <Position>
              <LatitudeDegrees>43.34681452251970767974853515625</LatitudeDegrees>
              <LongitudeDegrees>-3.117749802768230438232421875</LongitudeDegrees>
            </Position>
            <AltitudeMeters>-60</AltitudeMeters>
            <DistanceMeters>NAN</DistanceMeters>
          </Trackpoint>
          <Trackpoint>
            <Time>2022-07-12T14:52:35.000Z</Time>
            <Position>
              <LatitudeDegrees>43.346805386245250701904296875</LatitudeDegrees>
              <LongitudeDegrees>-3.11776899732649326324462890625</LongitudeDegrees>
            </Position>
            <AltitudeMeters>-60</AltitudeMeters>
            <DistanceMeters>NAN</DistanceMeters>
          </Trackpoint>
          <Trackpoint>
            <Time>2022-07-12T14:52:36.000Z</Time>
            <Position>
              <LatitudeDegrees>43.34680329076945781707763671875</LatitudeDegrees>
              <LongitudeDegrees>-3.11780042946338653564453125</LongitudeDegrees>
            </Position>
            <AltitudeMeters>-60</AltitudeMeters>
            <DistanceMeters>NAN</DistanceMeters>
          </Trackpoint>
          <Trackpoint>
            <Time>2022-07-12T14:52:39.000Z</Time>
            <Position>
              <LatitudeDegrees>43.34682793356478214263916015625</LatitudeDegrees>
              <LongitudeDegrees>-3.11794116161763668060302734375</LongitudeDegrees>
            </Position>
            <AltitudeMeters>-60.40000152587890625</AltitudeMeters>
            <DistanceMeters>NAN</DistanceMeters>
          </Trackpoint>
          <Trackpoint>
            <Time>2022-07-12T14:52:45.000Z</Time>
            <Position>
              <LatitudeDegrees>43.34688023664057254791259765625</LatitudeDegrees>
              <LongitudeDegrees>-3.11828632839024066925048828125</LongitudeDegrees>
            </Position>
            <AltitudeMeters>-61.799999237060546875</AltitudeMeters>
            <DistanceMeters>NAN</DistanceMeters>
          </Trackpoint>
          <Trackpoint>
            <Time>2022-07-12T14:52:47.000Z</Time>
            <Position>
              <LatitudeDegrees>43.3468823321163654327392578125</LatitudeDegrees>
              <LongitudeDegrees>-3.1184097938239574432373046875</LongitudeDegrees>
            </Position>
            <AltitudeMeters>-62.200000762939453125</AltitudeMeters>
            <DistanceMeters>NAN</DistanceMeters>
          </Trackpoint>
          <Trackpoint>
            <Time>2022-07-12T14:52:50.000Z</Time>
            <Position>
              <LatitudeDegrees>43.34691309370100498199462890625</LatitudeDegrees>
              <LongitudeDegrees>-3.11851314269006252288818359375</LongitudeDegrees>
            </Position>
            <AltitudeMeters>-63</AltitudeMeters>
            <DistanceMeters>NAN</DistanceMeters>
          </Trackpoint>
          <Trackpoint>
            <Time>2022-07-12T14:52:51.000Z</Time>
            <Position>
              <LatitudeDegrees>43.3469165302813053131103515625</LatitudeDegrees>
              <LongitudeDegrees>-3.1185382045805454254150390625</LongitudeDegrees>
            </Position>
            <AltitudeMeters>-63.200000762939453125</AltitudeMeters>
            <DistanceMeters>NAN</DistanceMeters>
          </Trackpoint>
          <Trackpoint>
            <Time>2022-07-12T14:52:54.000Z</Time>
            <Position>
              <LatitudeDegrees>43.3469121716916561126708984375</LatitudeDegrees>
              <LongitudeDegrees>-3.1186406314373016357421875</LongitudeDegrees>
            </Position>
            <AltitudeMeters>-63.59999847412109375</AltitudeMeters>
            <DistanceMeters>NAN</DistanceMeters>
          </Trackpoint>
          <Trackpoint>
            <Time>2022-07-12T14:52:58.000Z</Time>
            <Position>
              <LatitudeDegrees>43.3468930609524250030517578125</LatitudeDegrees>
              <LongitudeDegrees>-3.1187881529331207275390625</LongitudeDegrees>
            </Position>
            <AltitudeMeters>-63.59999847412109375</AltitudeMeters>
            <DistanceMeters>NAN</DistanceMeters>
          </Trackpoint>
          <Trackpoint>
            <Time>2022-07-12T14:53:04.000Z</Time>
            <Position>
              <LatitudeDegrees>43.34686598740518093109130859375</LatitudeDegrees>
              <LongitudeDegrees>-3.119035251438617706298828125</LongitudeDegrees>
            </Position>
            <AltitudeMeters>-63.59999847412109375</AltitudeMeters>
            <DistanceMeters>NAN</DistanceMeters>
          </Trackpoint>
          <Trackpoint>
            <Time>2022-07-12T14:53:08.000Z</Time>
            <Position>
              <LatitudeDegrees>43.3468384109437465667724609375</LatitudeDegrees>
              <LongitudeDegrees>-3.119220994412899017333984375</LongitudeDegrees>
            </Position>
            <AltitudeMeters>-63.59999847412109375</AltitudeMeters>
            <DistanceMeters>NAN</DistanceMeters>
          </Trackpoint>
          <Trackpoint>
            <Time>2022-07-12T14:53:10.000Z</Time>
            <Position>
              <LatitudeDegrees>43.3468300290405750274658203125</LatitudeDegrees>
              <LongitudeDegrees>-3.11930808238685131072998046875</LongitudeDegrees>
            </Position>
            <AltitudeMeters>-63.799999237060546875</AltitudeMeters>
            <DistanceMeters>NAN</DistanceMeters>
          </Trackpoint>
          <Trackpoint>
            <Time>2022-07-12T14:53:12.000Z</Time>
            <Position>
              <LatitudeDegrees>43.34682173095643520355224609375</LatitudeDegrees>
              <LongitudeDegrees>-3.11936340294778347015380859375</LongitudeDegrees>
            </Position>
            <AltitudeMeters>-63.799999237060546875</AltitudeMeters>
            <DistanceMeters>NAN</DistanceMeters>
          </Trackpoint>
          <Trackpoint>
            <Time>2022-07-12T14:53:14.000Z</Time>
            <Position>
              <LatitudeDegrees>43.3468151092529296875</LatitudeDegrees>
              <LongitudeDegrees>-3.1194122694432735443115234375</LongitudeDegrees>
            </Position>
            <AltitudeMeters>-64</AltitudeMeters>
            <DistanceMeters>NAN</DistanceMeters>
          </Trackpoint>
          <Trackpoint>
            <Time>2022-07-12T14:53:18.000Z</Time>
            <Position>
              <LatitudeDegrees>43.3468032069504261016845703125</LatitudeDegrees>
              <LongitudeDegrees>-3.11948410235345363616943359375</LongitudeDegrees>
            </Position>
            <AltitudeMeters>-64.1999969482421875</AltitudeMeters>
            <DistanceMeters>NAN</DistanceMeters>
          </Trackpoint>
          <Trackpoint>
            <Time>2022-07-12T14:53:23.000Z</Time>
            <Position>
              <LatitudeDegrees>43.346795327961444854736328125</LatitudeDegrees>
              <LongitudeDegrees>-3.11957144178450107574462890625</LongitudeDegrees>
            </Position>
            <AltitudeMeters>-64.40000152587890625</AltitudeMeters>
            <DistanceMeters>NAN</DistanceMeters>
          </Trackpoint>
          <Trackpoint>
            <Time>2022-07-12T14:53:25.000Z</Time>
            <Position>
              <LatitudeDegrees>43.346786610782146453857421875</LatitudeDegrees>
              <LongitudeDegrees>-3.11960698105394840240478515625</LongitudeDegrees>
            </Position>
            <AltitudeMeters>-64.1999969482421875</AltitudeMeters>
            <DistanceMeters>NAN</DistanceMeters>
          </Trackpoint>
          <Trackpoint>
            <Time>2022-07-12T14:53:26.000Z</Time>
            <Position>
              <LatitudeDegrees>43.346785604953765869140625</LatitudeDegrees>
              <LongitudeDegrees>-3.119615949690341949462890625</LongitudeDegrees>
            </Position>
            <AltitudeMeters>-64.1999969482421875</AltitudeMeters>
            <DistanceMeters>NAN</DistanceMeters>
          </Trackpoint>
          <Trackpoint>
            <Time>2022-07-12T14:53:30.000Z</Time>
            <Position>
              <LatitudeDegrees>43.3467861078679561614990234375</LatitudeDegrees>
              <LongitudeDegrees>-3.11964604072272777557373046875</LongitudeDegrees>
            </Position>
            <AltitudeMeters>-64.40000152587890625</AltitudeMeters>
            <DistanceMeters>NAN</DistanceMeters>
          </Trackpoint>
          <Trackpoint>
            <Time>2022-07-12T14:53:32.000Z</Time>
            <Position>
              <LatitudeDegrees>43.34677948616445064544677734375</LatitudeDegrees>
              <LongitudeDegrees>-3.1196786463260650634765625</LongitudeDegrees>
            </Position>
            <AltitudeMeters>-64.40000152587890625</AltitudeMeters>
            <DistanceMeters>NAN</DistanceMeters>
          </Trackpoint>
          <Trackpoint>
            <Time>2022-07-12T14:53:41.000Z</Time>
            <Position>
              <LatitudeDegrees>43.34674763493239879608154296875</LatitudeDegrees>
              <LongitudeDegrees>-3.11990998685359954833984375</LongitudeDegrees>
            </Position>
            <AltitudeMeters>-64.59999847412109375</AltitudeMeters>
            <DistanceMeters>NAN</DistanceMeters>
          </Trackpoint>
          <Trackpoint>
            <Time>2022-07-12T14:53:46.000Z</Time>
            <Position>
              <LatitudeDegrees>43.34673841483891010284423828125</LatitudeDegrees>
              <LongitudeDegrees>-3.11999984085559844970703125</LongitudeDegrees>
            </Position>
            <AltitudeMeters>-65</AltitudeMeters>
            <DistanceMeters>NAN</DistanceMeters>
          </Trackpoint>
          <Trackpoint>
            <Time>2022-07-12T14:53:48.000Z</Time>
            <Position>
              <LatitudeDegrees>43.34674629382789134979248046875</LatitudeDegrees>
              <LongitudeDegrees>-3.12000076286494731903076171875</LongitudeDegrees>
            </Position>
            <AltitudeMeters>-65.40000152587890625</AltitudeMeters>
            <DistanceMeters>NAN</DistanceMeters>
          </Trackpoint>
          <Trackpoint>
            <Time>2022-07-12T14:53:50.000Z</Time>
            <Position>
              <LatitudeDegrees>43.34676238708198070526123046875</LatitudeDegrees>
              <LongitudeDegrees>-3.1200080551207065582275390625</LongitudeDegrees>
            </Position>
            <AltitudeMeters>-65.59999847412109375</AltitudeMeters>
            <DistanceMeters>NAN</DistanceMeters>
          </Trackpoint>
          <Trackpoint>
            <Time>2022-07-12T14:53:55.000Z</Time>
            <Position>
              <LatitudeDegrees>43.3467790670692920684814453125</LatitudeDegrees>
              <LongitudeDegrees>-3.12001350335776805877685546875</LongitudeDegrees>
            </Position>
            <AltitudeMeters>-65.8000030517578125</AltitudeMeters>
            <DistanceMeters>NAN</DistanceMeters>
          </Trackpoint>
          <Trackpoint>
            <Time>2022-07-12T14:54:04.000Z</Time>
            <Position>
              <LatitudeDegrees>43.346812427043914794921875</LatitudeDegrees>
              <LongitudeDegrees>-3.1200422532856464385986328125</LongitudeDegrees>
            </Position>
            <AltitudeMeters>-65.8000030517578125</AltitudeMeters>
            <DistanceMeters>NAN</DistanceMeters>
          </Trackpoint>
          <Trackpoint>
            <Time>2022-07-12T14:56:45.000Z</Time>
            <Position>
              <LatitudeDegrees>43.3467965014278888702392578125</LatitudeDegrees>
              <LongitudeDegrees>-3.11996606178581714630126953125</LongitudeDegrees>
            </Position>
            <AltitudeMeters>-61.40000152587890625</AltitudeMeters>
            <DistanceMeters>NAN</DistanceMeters>
          </Trackpoint>
          <Trackpoint>
            <Time>2022-07-12T14:56:46.000Z</Time>
            <Position>
              <LatitudeDegrees>43.34679541178047657012939453125</LatitudeDegrees>
              <LongitudeDegrees>-3.11998718418180942535400390625</LongitudeDegrees>
            </Position>
            <AltitudeMeters>-61.200000762939453125</AltitudeMeters>
            <DistanceMeters>NAN</DistanceMeters>
          </Trackpoint>
          <Trackpoint>
            <Time>2022-07-12T14:56:51.000Z</Time>
            <Position>
              <LatitudeDegrees>43.34680144675076007843017578125</LatitudeDegrees>
              <LongitudeDegrees>-3.12003244645893573760986328125</LongitudeDegrees>
            </Position>
            <AltitudeMeters>-60.40000152587890625</AltitudeMeters>
            <DistanceMeters>NAN</DistanceMeters>
          </Trackpoint>
          <Trackpoint>
            <Time>2022-07-12T14:56:52.000Z</Time>
            <Position>
              <LatitudeDegrees>43.3468042127788066864013671875</LatitudeDegrees>
              <LongitudeDegrees>-3.1200368888676166534423828125</LongitudeDegrees>
            </Position>
            <AltitudeMeters>-60.40000152587890625</AltitudeMeters>
            <DistanceMeters>NAN</DistanceMeters>
          </Trackpoint>
          <Trackpoint>
            <Time>2022-07-12T14:56:54.000Z</Time>
            <Position>
              <LatitudeDegrees>43.3468042127788066864013671875</LatitudeDegrees>
              <LongitudeDegrees>-3.1200368888676166534423828125</LongitudeDegrees>
            </Position>
            <AltitudeMeters>-60.40000152587890625</AltitudeMeters>
            <DistanceMeters>NAN</DistanceMeters>
          </Trackpoint>
          <Trackpoint>
            <Time>2022-07-12T15:08:49.000Z</Time>
            <Position>
              <LatitudeDegrees>43.3467753790318965911865234375</LatitudeDegrees>
              <LongitudeDegrees>-3.1200184486806392669677734375</LongitudeDegrees>
            </Position>
            <AltitudeMeters>-54.200000762939453125</AltitudeMeters>
            <DistanceMeters>NAN</DistanceMeters>
          </Trackpoint>
          <Trackpoint>
            <Time>2022-07-12T15:08:50.000Z</Time>
            <Position>
              <LatitudeDegrees>43.3467837609350681304931640625</LatitudeDegrees>
              <LongitudeDegrees>-3.12003345228731632232666015625</LongitudeDegrees>
            </Position>
            <AltitudeMeters>-54.200000762939453125</AltitudeMeters>
            <DistanceMeters>NAN</DistanceMeters>
          </Trackpoint>
          <Trackpoint>
            <Time>2022-07-12T15:08:51.000Z</Time>
            <Position>
              <LatitudeDegrees>43.34679272957146167755126953125</LatitudeDegrees>
              <LongitudeDegrees>-3.12004543840885162353515625</LongitudeDegrees>
            </Position>
            <AltitudeMeters>-54.40000152587890625</AltitudeMeters>
            <DistanceMeters>NAN</DistanceMeters>
          </Trackpoint>
          <Trackpoint>
            <Time>2022-07-12T15:08:55.000Z</Time>
            <Position>
              <LatitudeDegrees>43.34681485779583454132080078125</LatitudeDegrees>
              <LongitudeDegrees>-3.12007033266127109527587890625</LongitudeDegrees>
            </Position>
            <AltitudeMeters>-55.200000762939453125</AltitudeMeters>
            <DistanceMeters>NAN</DistanceMeters>
          </Trackpoint>
          <Trackpoint>
            <Time>2022-07-12T15:08:56.000Z</Time>
            <Position>
              <LatitudeDegrees>43.34681636653840541839599609375</LatitudeDegrees>
              <LongitudeDegrees>-3.12006647698581218719482421875</LongitudeDegrees>
            </Position>
            <AltitudeMeters>-55.59999847412109375</AltitudeMeters>
            <DistanceMeters>NAN</DistanceMeters>
          </Trackpoint>
          <Trackpoint>
            <Time>2022-07-12T15:28:41.000Z</Time>
            <Position>
              <LatitudeDegrees>43.34679155610501766204833984375</LatitudeDegrees>
              <LongitudeDegrees>-3.12005122192203998565673828125</LongitudeDegrees>
            </Position>
            <AltitudeMeters>-56.59999847412109375</AltitudeMeters>
            <DistanceMeters>NAN</DistanceMeters>
          </Trackpoint>
          <Trackpoint>
            <Time>2022-07-12T15:28:43.000Z</Time>
            <Position>
              <LatitudeDegrees>43.3467877842485904693603515625</LatitudeDegrees>
              <LongitudeDegrees>-3.1200546585023403167724609375</LongitudeDegrees>
            </Position>
            <AltitudeMeters>-58</AltitudeMeters>
            <DistanceMeters>NAN</DistanceMeters>
          </Trackpoint>
          <Trackpoint>
            <Time>2022-07-12T15:28:44.000Z</Time>
            <Position>
              <LatitudeDegrees>43.3467877842485904693603515625</LatitudeDegrees>
              <LongitudeDegrees>-3.1200546585023403167724609375</LongitudeDegrees>
            </Position>
            <AltitudeMeters>-58.40000152587890625</AltitudeMeters>
            <DistanceMeters>NAN</DistanceMeters>
          </Trackpoint>
          <Trackpoint>
            <Time>2022-07-12T15:30:48.000Z</Time>
            <Position>
              <LatitudeDegrees>43.34682139568030834197998046875</LatitudeDegrees>
              <LongitudeDegrees>-3.12019002623856067657470703125</LongitudeDegrees>
            </Position>
            <AltitudeMeters>-58.40000152587890625</AltitudeMeters>
            <DistanceMeters>NAN</DistanceMeters>
          </Trackpoint>
          <Trackpoint>
            <Time>2022-07-12T15:30:49.000Z</Time>
            <Position>
              <LatitudeDegrees>43.34682055748999118804931640625</LatitudeDegrees>
              <LongitudeDegrees>-3.12021399848163127899169921875</LongitudeDegrees>
            </Position>
            <AltitudeMeters>-58.200000762939453125</AltitudeMeters>
            <DistanceMeters>NAN</DistanceMeters>
          </Trackpoint>
          <Trackpoint>
            <Time>2022-07-12T15:30:53.000Z</Time>
            <Position>
              <LatitudeDegrees>43.3468206413090229034423828125</LatitudeDegrees>
              <LongitudeDegrees>-3.12025087885558605194091796875</LongitudeDegrees>
            </Position>
            <AltitudeMeters>-58.200000762939453125</AltitudeMeters>
            <DistanceMeters>NAN</DistanceMeters>
          </Trackpoint>
          <Trackpoint>
            <Time>2022-07-12T15:30:59.000Z</Time>
            <Position>
              <LatitudeDegrees>43.3468139357864856719970703125</LatitudeDegrees>
              <LongitudeDegrees>-3.12037141062319278717041015625</LongitudeDegrees>
            </Position>
            <AltitudeMeters>-57.799999237060546875</AltitudeMeters>
            <DistanceMeters>NAN</DistanceMeters>
          </Trackpoint>
          <Trackpoint>
            <Time>2022-07-12T15:31:06.000Z</Time>
            <Position>
              <LatitudeDegrees>43.3468025363981723785400390625</LatitudeDegrees>
              <LongitudeDegrees>-3.120557405054569244384765625</LongitudeDegrees>
            </Position>
            <AltitudeMeters>-57.799999237060546875</AltitudeMeters>
            <DistanceMeters>NAN</DistanceMeters>
          </Trackpoint>
          <Trackpoint>
            <Time>2022-07-12T15:31:13.000Z</Time>
            <Position>
              <LatitudeDegrees>43.34679692052304744720458984375</LatitudeDegrees>
              <LongitudeDegrees>-3.12072403728961944580078125</LongitudeDegrees>
            </Position>
            <AltitudeMeters>-57.200000762939453125</AltitudeMeters>
            <DistanceMeters>NAN</DistanceMeters>
          </Trackpoint>
          <Trackpoint>
            <Time>2022-07-12T15:31:14.000Z</Time>
            <Position>
              <LatitudeDegrees>43.34679692052304744720458984375</LatitudeDegrees>
              <LongitudeDegrees>-3.12074440531432628631591796875</LongitudeDegrees>
            </Position>
            <AltitudeMeters>-57.200000762939453125</AltitudeMeters>
            <DistanceMeters>NAN</DistanceMeters>
          </Trackpoint>
          <Trackpoint>
            <Time>2022-07-12T15:31:17.000Z</Time>
            <Position>
              <LatitudeDegrees>43.3467958308756351470947265625</LatitudeDegrees>
              <LongitudeDegrees>-3.12078899703919887542724609375</LongitudeDegrees>
            </Position>
            <AltitudeMeters>-57.40000152587890625</AltitudeMeters>
            <DistanceMeters>NAN</DistanceMeters>
          </Trackpoint>
          <Trackpoint>
            <Time>2022-07-12T15:31:19.000Z</Time>
            <Position>
              <LatitudeDegrees>43.3467958308756351470947265625</LatitudeDegrees>
              <LongitudeDegrees>-3.12078899703919887542724609375</LongitudeDegrees>
            </Position>
            <AltitudeMeters>-57.40000152587890625</AltitudeMeters>
            <DistanceMeters>NAN</DistanceMeters>
          </Trackpoint>
          <Trackpoint>
            <Time>2022-07-12T15:32:26.000Z</Time>
            <Position>
              <LatitudeDegrees>43.34679306484758853912353515625</LatitudeDegrees>
              <LongitudeDegrees>-3.12085873447358608245849609375</LongitudeDegrees>
            </Position>
            <AltitudeMeters>-55.40000152587890625</AltitudeMeters>
            <DistanceMeters>NAN</DistanceMeters>
          </Trackpoint>
          <Trackpoint>
            <Time>2022-07-12T15:32:27.000Z</Time>
            <Position>
              <LatitudeDegrees>43.34679340012371540069580078125</LatitudeDegrees>
              <LongitudeDegrees>-3.12088052742183208465576171875</LongitudeDegrees>
            </Position>
            <AltitudeMeters>-55.40000152587890625</AltitudeMeters>
            <DistanceMeters>NAN</DistanceMeters>
          </Trackpoint>
          <Trackpoint>
            <Time>2022-07-12T15:32:32.000Z</Time>
            <Position>
              <LatitudeDegrees>43.3467790670692920684814453125</LatitudeDegrees>
              <LongitudeDegrees>-3.1209783442318439483642578125</LongitudeDegrees>
            </Position>
            <AltitudeMeters>-55.40000152587890625</AltitudeMeters>
            <DistanceMeters>NAN</DistanceMeters>
          </Trackpoint>
          <Trackpoint>
            <Time>2022-07-12T15:32:38.000Z</Time>
            <Position>
              <LatitudeDegrees>43.3467720262706279754638671875</LatitudeDegrees>
              <LongitudeDegrees>-3.12108471058309078216552734375</LongitudeDegrees>
            </Position>
            <AltitudeMeters>-55.200000762939453125</AltitudeMeters>
            <DistanceMeters>NAN</DistanceMeters>
          </Trackpoint>
          <Trackpoint>
            <Time>2022-07-12T15:32:39.000Z</Time>
            <Position>
              <LatitudeDegrees>43.34676884114742279052734375</LatitudeDegrees>
              <LongitudeDegrees>-3.12110097147524356842041015625</LongitudeDegrees>
            </Position>
            <AltitudeMeters>-55.200000762939453125</AltitudeMeters>
            <DistanceMeters>NAN</DistanceMeters>
          </Trackpoint>
          <Trackpoint>
            <Time>2022-07-12T15:32:40.000Z</Time>
            <Position>
              <LatitudeDegrees>43.3467680029571056365966796875</LatitudeDegrees>
              <LongitudeDegrees>-3.12111387960612773895263671875</LongitudeDegrees>
            </Position>
            <AltitudeMeters>-55.200000762939453125</AltitudeMeters>
            <DistanceMeters>NAN</DistanceMeters>
          </Trackpoint>
          <Trackpoint>
            <Time>2022-07-12T15:32:44.000Z</Time>
            <Position>
              <LatitudeDegrees>43.3467740379273891448974609375</LatitudeDegrees>
              <LongitudeDegrees>-3.12122183851897716522216796875</LongitudeDegrees>
            </Position>
            <AltitudeMeters>-55</AltitudeMeters>
            <DistanceMeters>NAN</DistanceMeters>
          </Trackpoint>
          <Trackpoint>
            <Time>2022-07-12T15:32:52.000Z</Time>
            <Position>
              <LatitudeDegrees>43.34675417281687259674072265625</LatitudeDegrees>
              <LongitudeDegrees>-3.12146566808223724365234375</LongitudeDegrees>
            </Position>
            <AltitudeMeters>-55.59999847412109375</AltitudeMeters>
            <DistanceMeters>NAN</DistanceMeters>
          </Trackpoint>
          <Trackpoint>
            <Time>2022-07-12T15:32:57.000Z</Time>
            <Position>
              <LatitudeDegrees>43.34673204459249973297119140625</LatitudeDegrees>
              <LongitudeDegrees>-3.1216395087540149688720703125</LongitudeDegrees>
            </Position>
            <AltitudeMeters>-56.40000152587890625</AltitudeMeters>
            <DistanceMeters>NAN</DistanceMeters>
          </Trackpoint>
          <Trackpoint>
            <Time>2022-07-12T15:33:00.000Z</Time>
            <Position>
              <LatitudeDegrees>43.34672592580318450927734375</LatitudeDegrees>
              <LongitudeDegrees>-3.12168854288756847381591796875</LongitudeDegrees>
            </Position>
            <AltitudeMeters>-56.799999237060546875</AltitudeMeters>
            <DistanceMeters>NAN</DistanceMeters>
          </Trackpoint>
          <Trackpoint>
            <Time>2022-07-12T15:33:05.000Z</Time>
            <Position>
              <LatitudeDegrees>43.346710167825222015380859375</LatitudeDegrees>
              <LongitudeDegrees>-3.121812008321285247802734375</LongitudeDegrees>
            </Position>
            <AltitudeMeters>-57</AltitudeMeters>
            <DistanceMeters>NAN</DistanceMeters>
          </Trackpoint>
          <Trackpoint>
            <Time>2022-07-12T15:33:08.000Z</Time>
            <Position>
              <LatitudeDegrees>43.34670237265527248382568359375</LatitudeDegrees>
              <LongitudeDegrees>-3.1219181232154369354248046875</LongitudeDegrees>
            </Position>
            <AltitudeMeters>-57.40000152587890625</AltitudeMeters>
            <DistanceMeters>NAN</DistanceMeters>
          </Trackpoint>
          <Trackpoint>
            <Time>2022-07-12T15:33:10.000Z</Time>
            <Position>
              <LatitudeDegrees>43.3466774784028530120849609375</LatitudeDegrees>
              <LongitudeDegrees>-3.1219969131052494049072265625</LongitudeDegrees>
            </Position>
            <AltitudeMeters>-57.799999237060546875</AltitudeMeters>
            <DistanceMeters>NAN</DistanceMeters>
          </Trackpoint>
          <Trackpoint>
            <Time>2022-07-12T15:33:15.000Z</Time>
            <Position>
              <LatitudeDegrees>43.3466281928122043609619140625</LatitudeDegrees>
              <LongitudeDegrees>-3.1221907027065753936767578125</LongitudeDegrees>
            </Position>
            <AltitudeMeters>-58.200000762939453125</AltitudeMeters>
            <DistanceMeters>NAN</DistanceMeters>
          </Trackpoint>
          <Trackpoint>
            <Time>2022-07-12T15:33:21.000Z</Time>
            <Position>
              <LatitudeDegrees>43.346610255539417266845703125</LatitudeDegrees>
              <LongitudeDegrees>-3.12240905128419399261474609375</LongitudeDegrees>
            </Position>
            <AltitudeMeters>-58.40000152587890625</AltitudeMeters>
            <DistanceMeters>NAN</DistanceMeters>
          </Trackpoint>
          <Trackpoint>
            <Time>2022-07-12T15:33:23.000Z</Time>
            <Position>
              <LatitudeDegrees>43.34657547064125537872314453125</LatitudeDegrees>
              <LongitudeDegrees>-3.12246370129287242889404296875</LongitudeDegrees>
            </Position>
            <AltitudeMeters>-58.799999237060546875</AltitudeMeters>
            <DistanceMeters>NAN</DistanceMeters>
          </Trackpoint>
          <Trackpoint>
            <Time>2022-07-12T15:33:25.000Z</Time>
            <Position>
              <LatitudeDegrees>43.34653775207698345184326171875</LatitudeDegrees>
              <LongitudeDegrees>-3.122519440948963165283203125</LongitudeDegrees>
            </Position>
            <AltitudeMeters>-59.200000762939453125</AltitudeMeters>
            <DistanceMeters>NAN</DistanceMeters>
          </Trackpoint>
          <Trackpoint>
            <Time>2022-07-12T15:33:31.000Z</Time>
            <Position>
              <LatitudeDegrees>43.3464853651821613311767578125</LatitudeDegrees>
              <LongitudeDegrees>-3.12277324497699737548828125</LongitudeDegrees>
            </Position>
            <AltitudeMeters>-59</AltitudeMeters>
            <DistanceMeters>NAN</DistanceMeters>
          </Trackpoint>
          <Trackpoint>
            <Time>2022-07-12T15:33:36.000Z</Time>
            <Position>
              <LatitudeDegrees>43.3465447090566158294677734375</LatitudeDegrees>
              <LongitudeDegrees>-3.1229628436267375946044921875</LongitudeDegrees>
            </Position>
            <AltitudeMeters>-59</AltitudeMeters>
            <DistanceMeters>NAN</DistanceMeters>
          </Trackpoint>
          <Trackpoint>
            <Time>2022-07-12T15:33:43.000Z</Time>
            <Position>
              <LatitudeDegrees>43.3465178869664669036865234375</LatitudeDegrees>
              <LongitudeDegrees>-3.1232146359980106353759765625</LongitudeDegrees>
            </Position>
            <AltitudeMeters>-59</AltitudeMeters>
            <DistanceMeters>NAN</DistanceMeters>
          </Trackpoint>
          <Trackpoint>
            <Time>2022-07-12T15:33:45.000Z</Time>
            <Position>
              <LatitudeDegrees>43.34648997522890567779541015625</LatitudeDegrees>
              <LongitudeDegrees>-3.12329493463039398193359375</LongitudeDegrees>
            </Position>
            <AltitudeMeters>-59</AltitudeMeters>
            <DistanceMeters>NAN</DistanceMeters>
          </Trackpoint>
          <Trackpoint>
            <Time>2022-07-12T15:33:53.000Z</Time>
            <Position>
              <LatitudeDegrees>43.34638721309602260589599609375</LatitudeDegrees>
              <LongitudeDegrees>-3.12357983551919460296630859375</LongitudeDegrees>
            </Position>
            <AltitudeMeters>-59.200000762939453125</AltitudeMeters>
            <DistanceMeters>NAN</DistanceMeters>
          </Trackpoint>
          <Trackpoint>
            <Time>2022-07-12T15:33:57.000Z</Time>
            <Position>
              <LatitudeDegrees>43.346383273601531982421875</LatitudeDegrees>
              <LongitudeDegrees>-3.123659379780292510986328125</LongitudeDegrees>
            </Position>
            <AltitudeMeters>-59.59999847412109375</AltitudeMeters>
            <DistanceMeters>NAN</DistanceMeters>
          </Trackpoint>
          <Trackpoint>
            <Time>2022-07-12T15:33:58.000Z</Time>
            <Position>
              <LatitudeDegrees>43.34639123640954494476318359375</LatitudeDegrees>
              <LongitudeDegrees>-3.1236806698143482208251953125</LongitudeDegrees>
            </Position>
            <AltitudeMeters>-59.59999847412109375</AltitudeMeters>
            <DistanceMeters>NAN</DistanceMeters>
          </Trackpoint>
          <Trackpoint>
            <Time>2022-07-12T15:34:00.000Z</Time>
            <Position>
              <LatitudeDegrees>43.34641621448099613189697265625</LatitudeDegrees>
              <LongitudeDegrees>-3.12367983162403106689453125</LongitudeDegrees>
            </Position>
            <AltitudeMeters>-59.59999847412109375</AltitudeMeters>
            <DistanceMeters>NAN</DistanceMeters>
          </Trackpoint>
          <Trackpoint>
            <Time>2022-07-12T15:34:01.000Z</Time>
            <Position>
              <LatitudeDegrees>43.346423842012882232666015625</LatitudeDegrees>
              <LongitudeDegrees>-3.1236592121422290802001953125</LongitudeDegrees>
            </Position>
            <AltitudeMeters>-59.59999847412109375</AltitudeMeters>
            <DistanceMeters>NAN</DistanceMeters>
          </Trackpoint>
          <Trackpoint>
            <Time>2022-07-12T15:34:06.000Z</Time>
            <Position>
              <LatitudeDegrees>43.34642828442156314849853515625</LatitudeDegrees>
              <LongitudeDegrees>-3.12347908504307270050048828125</LongitudeDegrees>
            </Position>
            <AltitudeMeters>-59.59999847412109375</AltitudeMeters>
            <DistanceMeters>NAN</DistanceMeters>
          </Trackpoint>
          <Trackpoint>
            <Time>2022-07-12T15:34:14.000Z</Time>
            <Position>
              <LatitudeDegrees>43.34651227109134197235107421875</LatitudeDegrees>
              <LongitudeDegrees>-3.12313760630786418914794921875</LongitudeDegrees>
            </Position>
            <AltitudeMeters>-59.59999847412109375</AltitudeMeters>
            <DistanceMeters>NAN</DistanceMeters>
          </Trackpoint>
          <Trackpoint>
            <Time>2022-07-12T15:34:17.000Z</Time>
            <Position>
              <LatitudeDegrees>43.3465162105858325958251953125</LatitudeDegrees>
              <LongitudeDegrees>-3.1229977123439311981201171875</LongitudeDegrees>
            </Position>
            <AltitudeMeters>-59.40000152587890625</AltitudeMeters>
            <DistanceMeters>NAN</DistanceMeters>
          </Trackpoint>
          <Trackpoint>
            <Time>2022-07-12T15:34:19.000Z</Time>
            <Position>
              <LatitudeDegrees>43.3465021289885044097900390625</LatitudeDegrees>
              <LongitudeDegrees>-3.1229098699986934661865234375</LongitudeDegrees>
            </Position>
            <AltitudeMeters>-59.40000152587890625</AltitudeMeters>
            <DistanceMeters>NAN</DistanceMeters>
          </Trackpoint>
          <Trackpoint>
            <Time>2022-07-12T15:34:27.000Z</Time>
            <Position>
              <LatitudeDegrees>43.34639475680887699127197265625</LatitudeDegrees>
              <LongitudeDegrees>-3.12254366464912891387939453125</LongitudeDegrees>
            </Position>
            <AltitudeMeters>-59.200000762939453125</AltitudeMeters>
            <DistanceMeters>NAN</DistanceMeters>
          </Trackpoint>
          <Trackpoint>
            <Time>2022-07-12T15:34:32.000Z</Time>
            <Position>
              <LatitudeDegrees>43.3462443016469478607177734375</LatitudeDegrees>
              <LongitudeDegrees>-3.1224099732935428619384765625</LongitudeDegrees>
            </Position>
            <AltitudeMeters>-59.40000152587890625</AltitudeMeters>
            <DistanceMeters>NAN</DistanceMeters>
          </Trackpoint>
          <Trackpoint>
            <Time>2022-07-12T15:34:33.000Z</Time>
            <Position>
              <LatitudeDegrees>43.3462211675941944122314453125</LatitudeDegrees>
              <LongitudeDegrees>-3.122391365468502044677734375</LongitudeDegrees>
            </Position>
            <AltitudeMeters>-59.40000152587890625</AltitudeMeters>
            <DistanceMeters>NAN</DistanceMeters>
          </Trackpoint>
          <Trackpoint>
            <Time>2022-07-12T15:34:36.000Z</Time>
            <Position>
              <LatitudeDegrees>43.34620867855846881866455078125</LatitudeDegrees>
              <LongitudeDegrees>-3.122379966080188751220703125</LongitudeDegrees>
            </Position>
            <AltitudeMeters>-59.40000152587890625</AltitudeMeters>
            <DistanceMeters>NAN</DistanceMeters>
          </Trackpoint>
          <Trackpoint>
            <Time>2022-07-12T15:35:02.000Z</Time>
            <Position>
              <LatitudeDegrees>43.34626651369035243988037109375</LatitudeDegrees>
              <LongitudeDegrees>-3.12242648564279079437255859375</LongitudeDegrees>
            </Position>
            <AltitudeMeters>-59.40000152587890625</AltitudeMeters>
            <DistanceMeters>NAN</DistanceMeters>
          </Trackpoint>
          <Trackpoint>
            <Time>2022-07-12T15:35:03.000Z</Time>
            <Position>
              <LatitudeDegrees>43.34629283286631107330322265625</LatitudeDegrees>
              <LongitudeDegrees>-3.1224468536674976348876953125</LongitudeDegrees>
            </Position>
            <AltitudeMeters>-59.40000152587890625</AltitudeMeters>
            <DistanceMeters>NAN</DistanceMeters>
          </Trackpoint>
          <Trackpoint>
            <Time>2022-07-12T15:35:04.000Z</Time>
            <Position>
              <LatitudeDegrees>43.34632351063191890716552734375</LatitudeDegrees>
              <LongitudeDegrees>-3.12246906571090221405029296875</LongitudeDegrees>
            </Position>
            <AltitudeMeters>-59.200000762939453125</AltitudeMeters>
            <DistanceMeters>NAN</DistanceMeters>
          </Trackpoint>
          <Trackpoint>
            <Time>2022-07-12T15:35:08.000Z</Time>
            <Position>
              <LatitudeDegrees>43.34645058028399944305419921875</LatitudeDegrees>
              <LongitudeDegrees>-3.12255539931356906890869140625</LongitudeDegrees>
            </Position>
            <AltitudeMeters>-59.200000762939453125</AltitudeMeters>
            <DistanceMeters>NAN</DistanceMeters>
          </Trackpoint>
          <Trackpoint>
            <Time>2022-07-12T15:35:09.000Z</Time>
            <Position>
              <LatitudeDegrees>43.3464783243834972381591796875</LatitudeDegrees>
              <LongitudeDegrees>-3.1225474365055561065673828125</LongitudeDegrees>
            </Position>
            <AltitudeMeters>-59.200000762939453125</AltitudeMeters>
            <DistanceMeters>NAN</DistanceMeters>
          </Trackpoint>
          <Trackpoint>
            <Time>2022-07-12T15:35:13.000Z</Time>
            <Position>
              <LatitudeDegrees>43.34659189917147159576416015625</LatitudeDegrees>
              <LongitudeDegrees>-3.12245632521808147430419921875</LongitudeDegrees>
            </Position>
            <AltitudeMeters>-59</AltitudeMeters>
            <DistanceMeters>NAN</DistanceMeters>
          </Trackpoint>
          <Trackpoint>
            <Time>2022-07-12T15:35:14.000Z</Time>
            <Position>
              <LatitudeDegrees>43.3466124348342418670654296875</LatitudeDegrees>
              <LongitudeDegrees>-3.12244107015430927276611328125</LongitudeDegrees>
            </Position>
            <AltitudeMeters>-59.200000762939453125</AltitudeMeters>
            <DistanceMeters>NAN</DistanceMeters>
          </Trackpoint>
          <Trackpoint>
            <Time>2022-07-12T15:35:15.000Z</Time>
            <Position>
              <LatitudeDegrees>43.3466389216482639312744140625</LatitudeDegrees>
              <LongitudeDegrees>-3.122430257499217987060546875</LongitudeDegrees>
            </Position>
            <AltitudeMeters>-59.200000762939453125</AltitudeMeters>
            <DistanceMeters>NAN</DistanceMeters>
          </Trackpoint>
          <Trackpoint>
            <Time>2022-07-12T15:35:18.000Z</Time>
            <Position>
              <LatitudeDegrees>43.34671544842422008514404296875</LatitudeDegrees>
              <LongitudeDegrees>-3.12245565466582775115966796875</LongitudeDegrees>
            </Position>
            <AltitudeMeters>-59.200000762939453125</AltitudeMeters>
            <DistanceMeters>NAN</DistanceMeters>
          </Trackpoint>
          <Trackpoint>
            <Time>2022-07-12T15:35:23.000Z</Time>
            <Position>
              <LatitudeDegrees>43.34677697159349918365478515625</LatitudeDegrees>
              <LongitudeDegrees>-3.12253260053694248199462890625</LongitudeDegrees>
            </Position>
            <AltitudeMeters>-59.200000762939453125</AltitudeMeters>
            <DistanceMeters>NAN</DistanceMeters>
          </Trackpoint>
          <Trackpoint>
            <Time>2022-07-12T15:35:27.000Z</Time>
            <Position>
              <LatitudeDegrees>43.3468162827193737030029296875</LatitudeDegrees>
              <LongitudeDegrees>-3.12257451005280017852783203125</LongitudeDegrees>
            </Position>
            <AltitudeMeters>-59.40000152587890625</AltitudeMeters>
            <DistanceMeters>NAN</DistanceMeters>
          </Trackpoint>
          <Trackpoint>
            <Time>2022-07-12T15:35:28.000Z</Time>
            <Position>
              <LatitudeDegrees>43.346831537783145904541015625</LatitudeDegrees>
              <LongitudeDegrees>-3.12257953919470310211181640625</LongitudeDegrees>
            </Position>
            <AltitudeMeters>-59.40000152587890625</AltitudeMeters>
            <DistanceMeters>NAN</DistanceMeters>
          </Trackpoint>
          <Trackpoint>
            <Time>2022-07-12T15:35:33.000Z</Time>
            <Position>
              <LatitudeDegrees>43.346957601606845855712890625</LatitudeDegrees>
              <LongitudeDegrees>-3.1225819699466228485107421875</LongitudeDegrees>
            </Position>
            <AltitudeMeters>-59.40000152587890625</AltitudeMeters>
            <DistanceMeters>NAN</DistanceMeters>
          </Trackpoint>
          <Trackpoint>
            <Time>2022-07-12T15:35:35.000Z</Time>
            <Position>
              <LatitudeDegrees>43.3470124192535877227783203125</LatitudeDegrees>
              <LongitudeDegrees>-3.12260384671390056610107421875</LongitudeDegrees>
            </Position>
            <AltitudeMeters>-59.40000152587890625</AltitudeMeters>
            <DistanceMeters>NAN</DistanceMeters>
          </Trackpoint>
          <Trackpoint>
            <Time>2022-07-12T15:35:39.000Z</Time>
            <Position>
              <LatitudeDegrees>43.34709028713405132293701171875</LatitudeDegrees>
              <LongitudeDegrees>-3.122639469802379608154296875</LongitudeDegrees>
            </Position>
            <AltitudeMeters>-58.799999237060546875</AltitudeMeters>
            <DistanceMeters>NAN</DistanceMeters>
          </Trackpoint>
          <Trackpoint>
            <Time>2022-07-12T15:35:45.000Z</Time>
            <Position>
              <LatitudeDegrees>43.34717125631868839263916015625</LatitudeDegrees>
              <LongitudeDegrees>-3.12267375178635120391845703125</LongitudeDegrees>
            </Position>
            <AltitudeMeters>-58.40000152587890625</AltitudeMeters>
            <DistanceMeters>NAN</DistanceMeters>
          </Trackpoint>
          <Trackpoint>
            <Time>2022-07-12T15:35:50.000Z</Time>
            <Position>
              <LatitudeDegrees>43.34717125631868839263916015625</LatitudeDegrees>
              <LongitudeDegrees>-3.12267375178635120391845703125</LongitudeDegrees>
            </Position>
            <AltitudeMeters>-58.200000762939453125</AltitudeMeters>
            <DistanceMeters>NAN</DistanceMeters>
          </Trackpoint>
          <Trackpoint>
            <Time>2022-07-12T15:35:51.000Z</Time>
            <Position>
              <LatitudeDegrees>43.34717125631868839263916015625</LatitudeDegrees>
              <LongitudeDegrees>-3.12267375178635120391845703125</LongitudeDegrees>
            </Position>
            <AltitudeMeters>-58</AltitudeMeters>
            <DistanceMeters>NAN</DistanceMeters>
          </Trackpoint>
          <Trackpoint>
            <Time>2022-07-12T15:37:05.000Z</Time>
            <Position>
              <LatitudeDegrees>43.34710051305592060089111328125</LatitudeDegrees>
              <LongitudeDegrees>-3.1226765178143978118896484375</LongitudeDegrees>
            </Position>
            <AltitudeMeters>-58.200000762939453125</AltitudeMeters>
            <DistanceMeters>NAN</DistanceMeters>
          </Trackpoint>
          <Trackpoint>
            <Time>2022-07-12T15:37:06.000Z</Time>
            <Position>
              <LatitudeDegrees>43.34707654081284999847412109375</LatitudeDegrees>
              <LongitudeDegrees>-3.12266905792057514190673828125</LongitudeDegrees>
            </Position>
            <AltitudeMeters>-58.200000762939453125</AltitudeMeters>
            <DistanceMeters>NAN</DistanceMeters>
          </Trackpoint>
          <Trackpoint>
            <Time>2022-07-12T15:37:14.000Z</Time>
            <Position>
              <LatitudeDegrees>43.3468940667808055877685546875</LatitudeDegrees>
              <LongitudeDegrees>-3.1226108036935329437255859375</LongitudeDegrees>
            </Position>
            <AltitudeMeters>-59.200000762939453125</AltitudeMeters>
            <DistanceMeters>NAN</DistanceMeters>
          </Trackpoint>
          <Trackpoint>
            <Time>2022-07-12T15:37:17.000Z</Time>
            <Position>
              <LatitudeDegrees>43.346844278275966644287109375</LatitudeDegrees>
              <LongitudeDegrees>-3.12262974679470062255859375</LongitudeDegrees>
            </Position>
            <AltitudeMeters>-59.59999847412109375</AltitudeMeters>
            <DistanceMeters>NAN</DistanceMeters>
          </Trackpoint>
          <Trackpoint>
            <Time>2022-07-12T15:37:19.000Z</Time>
            <Position>
              <LatitudeDegrees>43.3468169532716274261474609375</LatitudeDegrees>
              <LongitudeDegrees>-3.122619688510894775390625</LongitudeDegrees>
            </Position>
            <AltitudeMeters>-59.59999847412109375</AltitudeMeters>
            <DistanceMeters>NAN</DistanceMeters>
          </Trackpoint>
          <Trackpoint>
            <Time>2022-07-12T15:37:24.000Z</Time>
            <Position>
              <LatitudeDegrees>43.3467857725918292999267578125</LatitudeDegrees>
              <LongitudeDegrees>-3.12258758582174777984619140625</LongitudeDegrees>
            </Position>
            <AltitudeMeters>-59.59999847412109375</AltitudeMeters>
            <DistanceMeters>NAN</DistanceMeters>
          </Trackpoint>
          <Trackpoint>
            <Time>2022-07-12T15:37:25.000Z</Time>
            <Position>
              <LatitudeDegrees>43.3467857725918292999267578125</LatitudeDegrees>
              <LongitudeDegrees>-3.12258758582174777984619140625</LongitudeDegrees>
            </Position>
            <AltitudeMeters>-59.59999847412109375</AltitudeMeters>
            <DistanceMeters>NAN</DistanceMeters>
          </Trackpoint>
          <Trackpoint>
            <Time>2022-07-12T15:37:41.000Z</Time>
            <Position>
              <LatitudeDegrees>43.34674227051436901092529296875</LatitudeDegrees>
              <LongitudeDegrees>-3.1225330196321010589599609375</LongitudeDegrees>
            </Position>
            <AltitudeMeters>-59.200000762939453125</AltitudeMeters>
            <DistanceMeters>NAN</DistanceMeters>
          </Trackpoint>
          <Trackpoint>
            <Time>2022-07-12T15:37:43.000Z</Time>
            <Position>
              <LatitudeDegrees>43.34670572541654109954833984375</LatitudeDegrees>
              <LongitudeDegrees>-3.122487254440784454345703125</LongitudeDegrees>
            </Position>
            <AltitudeMeters>-59.200000762939453125</AltitudeMeters>
            <DistanceMeters>NAN</DistanceMeters>
          </Trackpoint>
          <Trackpoint>
            <Time>2022-07-12T15:37:44.000Z</Time>
            <Position>
              <LatitudeDegrees>43.34668426774442195892333984375</LatitudeDegrees>
              <LongitudeDegrees>-3.12247124500572681427001953125</LongitudeDegrees>
            </Position>
            <AltitudeMeters>-59.200000762939453125</AltitudeMeters>
            <DistanceMeters>NAN</DistanceMeters>
          </Trackpoint>
          <Trackpoint>
            <Time>2022-07-12T15:37:47.000Z</Time>
            <Position>
              <LatitudeDegrees>43.34661067463457584381103515625</LatitudeDegrees>
              <LongitudeDegrees>-3.122490942478179931640625</LongitudeDegrees>
            </Position>
            <AltitudeMeters>-59.200000762939453125</AltitudeMeters>
            <DistanceMeters>NAN</DistanceMeters>
          </Trackpoint>
          <Trackpoint>
            <Time>2022-07-12T15:37:52.000Z</Time>
            <Position>
              <LatitudeDegrees>43.3465507440268993377685546875</LatitudeDegrees>
              <LongitudeDegrees>-3.12263184227049350738525390625</LongitudeDegrees>
            </Position>
            <AltitudeMeters>-59</AltitudeMeters>
            <DistanceMeters>NAN</DistanceMeters>
          </Trackpoint>
          <Trackpoint>
            <Time>2022-07-12T15:38:00.000Z</Time>
            <Position>
              <LatitudeDegrees>43.34655133076012134552001953125</LatitudeDegrees>
              <LongitudeDegrees>-3.1229551322758197784423828125</LongitudeDegrees>
            </Position>
            <AltitudeMeters>-59.200000762939453125</AltitudeMeters>
            <DistanceMeters>NAN</DistanceMeters>
          </Trackpoint>
          <Trackpoint>
            <Time>2022-07-12T15:38:05.000Z</Time>
            <Position>
              <LatitudeDegrees>43.34653037600219249725341796875</LatitudeDegrees>
              <LongitudeDegrees>-3.12315252609550952911376953125</LongitudeDegrees>
            </Position>
            <AltitudeMeters>-59.40000152587890625</AltitudeMeters>
            <DistanceMeters>NAN</DistanceMeters>
          </Trackpoint>
          <Trackpoint>
            <Time>2022-07-12T15:38:07.000Z</Time>
            <Position>
              <LatitudeDegrees>43.3465141989290714263916015625</LatitudeDegrees>
              <LongitudeDegrees>-3.12322125770151615142822265625</LongitudeDegrees>
            </Position>
            <AltitudeMeters>-59.40000152587890625</AltitudeMeters>
            <DistanceMeters>NAN</DistanceMeters>
          </Trackpoint>
          <Trackpoint>
            <Time>2022-07-12T15:38:11.000Z</Time>
            <Position>
              <LatitudeDegrees>43.3464731276035308837890625</LatitudeDegrees>
              <LongitudeDegrees>-3.123349249362945556640625</LongitudeDegrees>
            </Position>
            <AltitudeMeters>-59.59999847412109375</AltitudeMeters>
            <DistanceMeters>NAN</DistanceMeters>
          </Trackpoint>
          <Trackpoint>
            <Time>2022-07-12T15:38:15.000Z</Time>
            <Position>
              <LatitudeDegrees>43.346435241401195526123046875</LatitudeDegrees>
              <LongitudeDegrees>-3.12348512001335620880126953125</LongitudeDegrees>
            </Position>
            <AltitudeMeters>-59.40000152587890625</AltitudeMeters>
            <DistanceMeters>NAN</DistanceMeters>
          </Trackpoint>
          <Trackpoint>
            <Time>2022-07-12T15:38:16.000Z</Time>
            <Position>
              <LatitudeDegrees>43.3464260213077068328857421875</LatitudeDegrees>
              <LongitudeDegrees>-3.1235147081315517425537109375</LongitudeDegrees>
            </Position>
            <AltitudeMeters>-59.40000152587890625</AltitudeMeters>
            <DistanceMeters>NAN</DistanceMeters>
          </Trackpoint>
          <Trackpoint>
            <Time>2022-07-12T15:38:23.000Z</Time>
            <Position>
              <LatitudeDegrees>43.3463951759040355682373046875</LatitudeDegrees>
              <LongitudeDegrees>-3.12366231344640254974365234375</LongitudeDegrees>
            </Position>
            <AltitudeMeters>-59.40000152587890625</AltitudeMeters>
            <DistanceMeters>NAN</DistanceMeters>
          </Trackpoint>
          <Trackpoint>
            <Time>2022-07-12T15:38:24.000Z</Time>
            <Position>
              <LatitudeDegrees>43.3464015461504459381103515625</LatitudeDegrees>
              <LongitudeDegrees>-3.12367119826376438140869140625</LongitudeDegrees>
            </Position>
            <AltitudeMeters>-59.40000152587890625</AltitudeMeters>
            <DistanceMeters>NAN</DistanceMeters>
          </Trackpoint>
          <Trackpoint>
            <Time>2022-07-12T15:38:26.000Z</Time>
            <Position>
              <LatitudeDegrees>43.34642660804092884063720703125</LatitudeDegrees>
              <LongitudeDegrees>-3.123657703399658203125</LongitudeDegrees>
            </Position>
            <AltitudeMeters>-59.40000152587890625</AltitudeMeters>
            <DistanceMeters>NAN</DistanceMeters>
          </Trackpoint>
          <Trackpoint>
            <Time>2022-07-12T15:38:31.000Z</Time>
            <Position>
              <LatitudeDegrees>43.3464649133384227752685546875</LatitudeDegrees>
              <LongitudeDegrees>-3.1234989501535892486572265625</LongitudeDegrees>
            </Position>
            <AltitudeMeters>-59.40000152587890625</AltitudeMeters>
            <DistanceMeters>NAN</DistanceMeters>
          </Trackpoint>
          <Trackpoint>
            <Time>2022-07-12T15:38:35.000Z</Time>
            <Position>
              <LatitudeDegrees>43.34646751172840595245361328125</LatitudeDegrees>
              <LongitudeDegrees>-3.123480342328548431396484375</LongitudeDegrees>
            </Position>
            <AltitudeMeters>-59.40000152587890625</AltitudeMeters>
            <DistanceMeters>NAN</DistanceMeters>
          </Trackpoint>
          <Trackpoint>
            <Time>2022-07-12T15:39:12.000Z</Time>
            <Position>
              <LatitudeDegrees>43.3464384265244007110595703125</LatitudeDegrees>
              <LongitudeDegrees>-3.12356541864573955535888671875</LongitudeDegrees>
            </Position>
            <AltitudeMeters>-59.200000762939453125</AltitudeMeters>
            <DistanceMeters>NAN</DistanceMeters>
          </Trackpoint>
          <Trackpoint>
            <Time>2022-07-12T15:39:13.000Z</Time>
            <Position>
              <LatitudeDegrees>43.3464340679347515106201171875</LatitudeDegrees>
              <LongitudeDegrees>-3.12359089963138103485107421875</LongitudeDegrees>
            </Position>
            <AltitudeMeters>-59.200000762939453125</AltitudeMeters>
            <DistanceMeters>NAN</DistanceMeters>
          </Trackpoint>
          <Trackpoint>
            <Time>2022-07-12T15:39:15.000Z</Time>
            <Position>
              <LatitudeDegrees>43.3464105986058712005615234375</LatitudeDegrees>
              <LongitudeDegrees>-3.1236454658210277557373046875</LongitudeDegrees>
            </Position>
            <AltitudeMeters>-59.200000762939453125</AltitudeMeters>
            <DistanceMeters>NAN</DistanceMeters>
          </Trackpoint>
          <Trackpoint>
            <Time>2022-07-12T15:39:17.000Z</Time>
            <Position>
              <LatitudeDegrees>43.34636810235679149627685546875</LatitudeDegrees>
              <LongitudeDegrees>-3.12369550578296184539794921875</LongitudeDegrees>
            </Position>
            <AltitudeMeters>-60</AltitudeMeters>
            <DistanceMeters>NAN</DistanceMeters>
          </Trackpoint>
          <Trackpoint>
            <Time>2022-07-12T15:39:21.000Z</Time>
            <Position>
              <LatitudeDegrees>43.3462650887668132781982421875</LatitudeDegrees>
              <LongitudeDegrees>-3.12380195595324039459228515625</LongitudeDegrees>
            </Position>
            <AltitudeMeters>-60.59999847412109375</AltitudeMeters>
            <DistanceMeters>NAN</DistanceMeters>
          </Trackpoint>
          <Trackpoint>
            <Time>2022-07-12T15:39:27.000Z</Time>
            <Position>
              <LatitudeDegrees>43.3460880629718303680419921875</LatitudeDegrees>
              <LongitudeDegrees>-3.123976886272430419921875</LongitudeDegrees>
            </Position>
            <AltitudeMeters>-59.799999237060546875</AltitudeMeters>
            <DistanceMeters>NAN</DistanceMeters>
          </Trackpoint>
          <Trackpoint>
            <Time>2022-07-12T15:39:31.000Z</Time>
            <Position>
              <LatitudeDegrees>43.34596778266131877899169921875</LatitudeDegrees>
              <LongitudeDegrees>-3.12410169281065464019775390625</LongitudeDegrees>
            </Position>
            <AltitudeMeters>-60</AltitudeMeters>
            <DistanceMeters>NAN</DistanceMeters>
          </Trackpoint>
          <Trackpoint>
            <Time>2022-07-12T15:39:39.000Z</Time>
            <Position>
              <LatitudeDegrees>43.3457490988075733184814453125</LatitudeDegrees>
              <LongitudeDegrees>-3.1244323588907718658447265625</LongitudeDegrees>
            </Position>
            <AltitudeMeters>-60</AltitudeMeters>
            <DistanceMeters>NAN</DistanceMeters>
          </Trackpoint>
          <Trackpoint>
            <Time>2022-07-12T15:39:44.000Z</Time>
            <Position>
              <LatitudeDegrees>43.345628567039966583251953125</LatitudeDegrees>
              <LongitudeDegrees>-3.12462254427373409271240234375</LongitudeDegrees>
            </Position>
            <AltitudeMeters>-60</AltitudeMeters>
            <DistanceMeters>NAN</DistanceMeters>
          </Trackpoint>
          <Trackpoint>
            <Time>2022-07-12T15:39:48.000Z</Time>
            <Position>
              <LatitudeDegrees>43.3455472625792026519775390625</LatitudeDegrees>
              <LongitudeDegrees>-3.1247823871672153472900390625</LongitudeDegrees>
            </Position>
            <AltitudeMeters>-60</AltitudeMeters>
            <DistanceMeters>NAN</DistanceMeters>
          </Trackpoint>
          <Trackpoint>
            <Time>2022-07-12T15:39:56.000Z</Time>
            <Position>
              <LatitudeDegrees>43.34541876800358295440673828125</LatitudeDegrees>
              <LongitudeDegrees>-3.125136606395244598388671875</LongitudeDegrees>
            </Position>
            <AltitudeMeters>-59.799999237060546875</AltitudeMeters>
            <DistanceMeters>NAN</DistanceMeters>
          </Trackpoint>
          <Trackpoint>
            <Time>2022-07-12T15:40:03.000Z</Time>
            <Position>
              <LatitudeDegrees>43.345381133258342742919921875</LatitudeDegrees>
              <LongitudeDegrees>-3.12545402906835079193115234375</LongitudeDegrees>
            </Position>
            <AltitudeMeters>-59.59999847412109375</AltitudeMeters>
            <DistanceMeters>NAN</DistanceMeters>
          </Trackpoint>
          <Trackpoint>
            <Time>2022-07-12T15:40:04.000Z</Time>
            <Position>
              <LatitudeDegrees>43.34539211355149745941162109375</LatitudeDegrees>
              <LongitudeDegrees>-3.12549375928938388824462890625</LongitudeDegrees>
            </Position>
            <AltitudeMeters>-59.59999847412109375</AltitudeMeters>
            <DistanceMeters>NAN</DistanceMeters>
          </Trackpoint>
          <Trackpoint>
            <Time>2022-07-12T15:40:08.000Z</Time>
            <Position>
              <LatitudeDegrees>43.34546864032745361328125</LatitudeDegrees>
              <LongitudeDegrees>-3.1256453879177570343017578125</LongitudeDegrees>
            </Position>
            <AltitudeMeters>-60</AltitudeMeters>
            <DistanceMeters>NAN</DistanceMeters>
          </Trackpoint>
          <Trackpoint>
            <Time>2022-07-12T15:40:18.000Z</Time>
            <Position>
              <LatitudeDegrees>43.3456830494105815887451171875</LatitudeDegrees>
              <LongitudeDegrees>-3.12607236206531524658203125</LongitudeDegrees>
            </Position>
            <AltitudeMeters>-59.200000762939453125</AltitudeMeters>
            <DistanceMeters>NAN</DistanceMeters>
          </Trackpoint>
          <Trackpoint>
            <Time>2022-07-12T15:40:23.000Z</Time>
            <Position>
              <LatitudeDegrees>43.34574222564697265625</LatitudeDegrees>
              <LongitudeDegrees>-3.1262455321848392486572265625</LongitudeDegrees>
            </Position>
            <AltitudeMeters>-59.200000762939453125</AltitudeMeters>
            <DistanceMeters>NAN</DistanceMeters>
          </Trackpoint>
          <Trackpoint>
            <Time>2022-07-12T15:40:24.000Z</Time>
            <Position>
              <LatitudeDegrees>43.345755636692047119140625</LatitudeDegrees>
              <LongitudeDegrees>-3.126274533569812774658203125</LongitudeDegrees>
            </Position>
            <AltitudeMeters>-59</AltitudeMeters>
            <DistanceMeters>NAN</DistanceMeters>
          </Trackpoint>
          <Trackpoint>
            <Time>2022-07-12T15:40:28.000Z</Time>
            <Position>
              <LatitudeDegrees>43.34581322036683559417724609375</LatitudeDegrees>
              <LongitudeDegrees>-3.12636279501020908355712890625</LongitudeDegrees>
            </Position>
            <AltitudeMeters>-58.59999847412109375</AltitudeMeters>
            <DistanceMeters>NAN</DistanceMeters>
          </Trackpoint>
          <Trackpoint>
            <Time>2022-07-12T15:40:32.000Z</Time>
            <Position>
              <LatitudeDegrees>43.34589779376983642578125</LatitudeDegrees>
              <LongitudeDegrees>-3.126454241573810577392578125</LongitudeDegrees>
            </Position>
            <AltitudeMeters>-58.59999847412109375</AltitudeMeters>
            <DistanceMeters>NAN</DistanceMeters>
          </Trackpoint>
          <Trackpoint>
            <Time>2022-07-12T15:40:33.000Z</Time>
            <Position>
              <LatitudeDegrees>43.34591321647167205810546875</LatitudeDegrees>
              <LongitudeDegrees>-3.12648818828165531158447265625</LongitudeDegrees>
            </Position>
            <AltitudeMeters>-58.59999847412109375</AltitudeMeters>
            <DistanceMeters>NAN</DistanceMeters>
          </Trackpoint>
          <Trackpoint>
            <Time>2022-07-12T15:40:37.000Z</Time>
            <Position>
              <LatitudeDegrees>43.345994688570499420166015625</LatitudeDegrees>
              <LongitudeDegrees>-3.12661492265760898590087890625</LongitudeDegrees>
            </Position>
            <AltitudeMeters>-58</AltitudeMeters>
            <DistanceMeters>NAN</DistanceMeters>
          </Trackpoint>
          <Trackpoint>
            <Time>2022-07-12T15:40:40.000Z</Time>
            <Position>
              <LatitudeDegrees>43.34604036994278430938720703125</LatitudeDegrees>
              <LongitudeDegrees>-3.126707375049591064453125</LongitudeDegrees>
            </Position>
            <AltitudeMeters>-57.799999237060546875</AltitudeMeters>
            <DistanceMeters>NAN</DistanceMeters>
          </Trackpoint>
          <Trackpoint>
            <Time>2022-07-12T15:40:48.000Z</Time>
            <Position>
              <LatitudeDegrees>43.34619350731372833251953125</LatitudeDegrees>
              <LongitudeDegrees>-3.12696746550500392913818359375</LongitudeDegrees>
            </Position>
            <AltitudeMeters>-57.59999847412109375</AltitudeMeters>
            <DistanceMeters>NAN</DistanceMeters>
          </Trackpoint>
          <Trackpoint>
            <Time>2022-07-12T15:40:51.000Z</Time>
            <Position>
              <LatitudeDegrees>43.34623382426798343658447265625</LatitudeDegrees>
              <LongitudeDegrees>-3.12706033699214458465576171875</LongitudeDegrees>
            </Position>
            <AltitudeMeters>-57.40000152587890625</AltitudeMeters>
            <DistanceMeters>NAN</DistanceMeters>
          </Trackpoint>
          <Trackpoint>
            <Time>2022-07-12T15:40:53.000Z</Time>
            <Position>
              <LatitudeDegrees>43.3462627418339252471923828125</LatitudeDegrees>
              <LongitudeDegrees>-3.12711079604923725128173828125</LongitudeDegrees>
            </Position>
            <AltitudeMeters>-57.200000762939453125</AltitudeMeters>
            <DistanceMeters>NAN</DistanceMeters>
          </Trackpoint>
          <Trackpoint>
            <Time>2022-07-12T15:40:55.000Z</Time>
            <Position>
              <LatitudeDegrees>43.34628746844828128814697265625</LatitudeDegrees>
              <LongitudeDegrees>-3.12716133892536163330078125</LongitudeDegrees>
            </Position>
            <AltitudeMeters>-57</AltitudeMeters>
            <DistanceMeters>NAN</DistanceMeters>
          </Trackpoint>
          <Trackpoint>
            <Time>2022-07-12T15:40:58.000Z</Time>
            <Position>
              <LatitudeDegrees>43.346311859786510467529296875</LatitudeDegrees>
              <LongitudeDegrees>-3.1272371113300323486328125</LongitudeDegrees>
            </Position>
            <AltitudeMeters>-57</AltitudeMeters>
            <DistanceMeters>NAN</DistanceMeters>
          </Trackpoint>
          <Trackpoint>
            <Time>2022-07-12T15:41:01.000Z</Time>
            <Position>
              <LatitudeDegrees>43.3463244326412677764892578125</LatitudeDegrees>
              <LongitudeDegrees>-3.1273066811263561248779296875</LongitudeDegrees>
            </Position>
            <AltitudeMeters>-57</AltitudeMeters>
            <DistanceMeters>NAN</DistanceMeters>
          </Trackpoint>
          <Trackpoint>
            <Time>2022-07-12T15:41:03.000Z</Time>
            <Position>
              <LatitudeDegrees>43.34634312428534030914306640625</LatitudeDegrees>
              <LongitudeDegrees>-3.12736225314438343048095703125</LongitudeDegrees>
            </Position>
            <AltitudeMeters>-56.799999237060546875</AltitudeMeters>
            <DistanceMeters>NAN</DistanceMeters>
          </Trackpoint>
          <Trackpoint>
            <Time>2022-07-12T15:41:04.000Z</Time>
            <Position>
              <LatitudeDegrees>43.34635603241622447967529296875</LatitudeDegrees>
              <LongitudeDegrees>-3.12738337554037570953369140625</LongitudeDegrees>
            </Position>
            <AltitudeMeters>-56.799999237060546875</AltitudeMeters>
            <DistanceMeters>NAN</DistanceMeters>
          </Trackpoint>
          <Trackpoint>
            <Time>2022-07-12T15:41:07.000Z</Time>
            <Position>
              <LatitudeDegrees>43.34638603962957859039306640625</LatitudeDegrees>
              <LongitudeDegrees>-3.12743886373937129974365234375</LongitudeDegrees>
            </Position>
            <AltitudeMeters>-56.40000152587890625</AltitudeMeters>
            <DistanceMeters>NAN</DistanceMeters>
          </Trackpoint>
          <Trackpoint>
            <Time>2022-07-12T15:41:08.000Z</Time>
            <Position>
              <LatitudeDegrees>43.34639064967632293701171875</LatitudeDegrees>
              <LongitudeDegrees>-3.12744959257543087005615234375</LongitudeDegrees>
            </Position>
            <AltitudeMeters>-56.40000152587890625</AltitudeMeters>
            <DistanceMeters>NAN</DistanceMeters>
          </Trackpoint>
          <Trackpoint>
            <Time>2022-07-12T15:41:09.000Z</Time>
            <Position>
              <LatitudeDegrees>43.34639928303658962249755859375</LatitudeDegrees>
              <LongitudeDegrees>-3.12746317125856876373291015625</LongitudeDegrees>
            </Position>
            <AltitudeMeters>-56.200000762939453125</AltitudeMeters>
            <DistanceMeters>NAN</DistanceMeters>
          </Trackpoint>
          <Trackpoint>
            <Time>2022-07-12T15:41:10.000Z</Time>
            <Position>
              <LatitudeDegrees>43.34640414454042911529541015625</LatitudeDegrees>
              <LongitudeDegrees>-3.12747792340815067291259765625</LongitudeDegrees>
            </Position>
            <AltitudeMeters>-56</AltitudeMeters>
            <DistanceMeters>NAN</DistanceMeters>
          </Trackpoint>
          <Trackpoint>
            <Time>2022-07-12T15:41:13.000Z</Time>
            <Position>
              <LatitudeDegrees>43.34643901325762271881103515625</LatitudeDegrees>
              <LongitudeDegrees>-3.12752469442784786224365234375</LongitudeDegrees>
            </Position>
            <AltitudeMeters>-55.59999847412109375</AltitudeMeters>
            <DistanceMeters>NAN</DistanceMeters>
          </Trackpoint>
          <Trackpoint>
            <Time>2022-07-12T15:41:14.000Z</Time>
            <Position>
              <LatitudeDegrees>43.3464516699314117431640625</LatitudeDegrees>
              <LongitudeDegrees>-3.12753416597843170166015625</LongitudeDegrees>
            </Position>
            <AltitudeMeters>-55.59999847412109375</AltitudeMeters>
            <DistanceMeters>NAN</DistanceMeters>
          </Trackpoint>
          <Trackpoint>
            <Time>2022-07-12T15:41:17.000Z</Time>
            <Position>
              <LatitudeDegrees>43.34649483673274517059326171875</LatitudeDegrees>
              <LongitudeDegrees>-3.12755696475505828857421875</LongitudeDegrees>
            </Position>
            <AltitudeMeters>-55</AltitudeMeters>
            <DistanceMeters>NAN</DistanceMeters>
          </Trackpoint>
          <Trackpoint>
            <Time>2022-07-12T15:41:22.000Z</Time>
            <Position>
              <LatitudeDegrees>43.3465383388102054595947265625</LatitudeDegrees>
              <LongitudeDegrees>-3.12762158922851085662841796875</LongitudeDegrees>
            </Position>
            <AltitudeMeters>-54</AltitudeMeters>
            <DistanceMeters>NAN</DistanceMeters>
          </Trackpoint>
          <Trackpoint>
            <Time>2022-07-12T15:41:23.000Z</Time>
            <Position>
              <LatitudeDegrees>43.34654462523758411407470703125</LatitudeDegrees>
              <LongitudeDegrees>-3.12763835303485393524169921875</LongitudeDegrees>
            </Position>
            <AltitudeMeters>-53.799999237060546875</AltitudeMeters>
            <DistanceMeters>NAN</DistanceMeters>
          </Trackpoint>
          <Trackpoint>
            <Time>2022-07-12T15:41:26.000Z</Time>
            <Position>
              <LatitudeDegrees>43.34656775929033756256103515625</LatitudeDegrees>
              <LongitudeDegrees>-3.12768445350229740142822265625</LongitudeDegrees>
            </Position>
            <AltitudeMeters>-52.799999237060546875</AltitudeMeters>
            <DistanceMeters>NAN</DistanceMeters>
          </Trackpoint>
          <Trackpoint>
            <Time>2022-07-12T15:41:29.000Z</Time>
            <Position>
              <LatitudeDegrees>43.34658318199217319488525390625</LatitudeDegrees>
              <LongitudeDegrees>-3.12772887758910655975341796875</LongitudeDegrees>
            </Position>
            <AltitudeMeters>-52</AltitudeMeters>
            <DistanceMeters>NAN</DistanceMeters>
          </Trackpoint>
          <Trackpoint>
            <Time>2022-07-12T15:41:30.000Z</Time>
            <Position>
              <LatitudeDegrees>43.34658334963023662567138671875</LatitudeDegrees>
              <LongitudeDegrees>-3.127746395766735076904296875</LongitudeDegrees>
            </Position>
            <AltitudeMeters>-51.59999847412109375</AltitudeMeters>
            <DistanceMeters>NAN</DistanceMeters>
          </Trackpoint>
          <Trackpoint>
            <Time>2022-07-12T15:41:31.000Z</Time>
            <Position>
              <LatitudeDegrees>43.34658200852572917938232421875</LatitudeDegrees>
              <LongitudeDegrees>-3.12776642851531505584716796875</LongitudeDegrees>
            </Position>
            <AltitudeMeters>-51.40000152587890625</AltitudeMeters>
            <DistanceMeters>NAN</DistanceMeters>
          </Trackpoint>
          <Trackpoint>
            <Time>2022-07-12T15:41:32.000Z</Time>
            <Position>
              <LatitudeDegrees>43.346582762897014617919921875</LatitudeDegrees>
              <LongitudeDegrees>-3.127785958349704742431640625</LongitudeDegrees>
            </Position>
            <AltitudeMeters>-51.40000152587890625</AltitudeMeters>
            <DistanceMeters>NAN</DistanceMeters>
          </Trackpoint>
          <Trackpoint>
            <Time>2022-07-12T15:41:35.000Z</Time>
            <Position>
              <LatitudeDegrees>43.34659776650369167327880859375</LatitudeDegrees>
              <LongitudeDegrees>-3.12780817039310932159423828125</LongitudeDegrees>
            </Position>
            <AltitudeMeters>-50.59999847412109375</AltitudeMeters>
            <DistanceMeters>NAN</DistanceMeters>
          </Trackpoint>
          <Trackpoint>
            <Time>2022-07-12T15:41:36.000Z</Time>
            <Position>
              <LatitudeDegrees>43.3465970121324062347412109375</LatitudeDegrees>
              <LongitudeDegrees>-3.12781588174402713775634765625</LongitudeDegrees>
            </Position>
            <AltitudeMeters>-50</AltitudeMeters>
            <DistanceMeters>NAN</DistanceMeters>
          </Trackpoint>
          <Trackpoint>
            <Time>2022-07-12T15:41:37.000Z</Time>
            <Position>
              <LatitudeDegrees>43.3465960063040256500244140625</LatitudeDegrees>
              <LongitudeDegrees>-3.12783096916973590850830078125</LongitudeDegrees>
            </Position>
            <AltitudeMeters>-49.200000762939453125</AltitudeMeters>
            <DistanceMeters>NAN</DistanceMeters>
          </Trackpoint>
          <Trackpoint>
            <Time>2022-07-12T15:41:40.000Z</Time>
            <Position>
              <LatitudeDegrees>43.34661461412906646728515625</LatitudeDegrees>
              <LongitudeDegrees>-3.12788411043584346771240234375</LongitudeDegrees>
            </Position>
            <AltitudeMeters>-48.40000152587890625</AltitudeMeters>
            <DistanceMeters>NAN</DistanceMeters>
          </Trackpoint>
          <Trackpoint>
            <Time>2022-07-12T15:41:41.000Z</Time>
            <Position>
              <LatitudeDegrees>43.3466198109090328216552734375</LatitudeDegrees>
              <LongitudeDegrees>-3.1278987787663936614990234375</LongitudeDegrees>
            </Position>
            <AltitudeMeters>-48.40000152587890625</AltitudeMeters>
            <DistanceMeters>NAN</DistanceMeters>
          </Trackpoint>
          <Trackpoint>
            <Time>2022-07-12T15:41:42.000Z</Time>
            <Position>
              <LatitudeDegrees>43.34662240929901599884033203125</LatitudeDegrees>
              <LongitudeDegrees>-3.1279188953340053558349609375</LongitudeDegrees>
            </Position>
            <AltitudeMeters>-48.200000762939453125</AltitudeMeters>
            <DistanceMeters>NAN</DistanceMeters>
          </Trackpoint>
          <Trackpoint>
            <Time>2022-07-12T15:41:49.000Z</Time>
            <Position>
              <LatitudeDegrees>43.346674628555774688720703125</LatitudeDegrees>
              <LongitudeDegrees>-3.128040768206119537353515625</LongitudeDegrees>
            </Position>
            <AltitudeMeters>-47.200000762939453125</AltitudeMeters>
            <DistanceMeters>NAN</DistanceMeters>
          </Trackpoint>
          <Trackpoint>
            <Time>2022-07-12T15:41:50.000Z</Time>
            <Position>
              <LatitudeDegrees>43.3466811664402484893798828125</LatitudeDegrees>
              <LongitudeDegrees>-3.128055520355701446533203125</LongitudeDegrees>
            </Position>
            <AltitudeMeters>-47</AltitudeMeters>
            <DistanceMeters>NAN</DistanceMeters>
          </Trackpoint>
          <Trackpoint>
            <Time>2022-07-12T15:41:56.000Z</Time>
            <Position>
              <LatitudeDegrees>43.34673263132572174072265625</LatitudeDegrees>
              <LongitudeDegrees>-3.12814797274768352508544921875</LongitudeDegrees>
            </Position>
            <AltitudeMeters>-46.59999847412109375</AltitudeMeters>
            <DistanceMeters>NAN</DistanceMeters>
          </Trackpoint>
          <Trackpoint>
            <Time>2022-07-12T15:42:01.000Z</Time>
            <Position>
              <LatitudeDegrees>43.346775881946086883544921875</LatitudeDegrees>
              <LongitudeDegrees>-3.1282313726842403411865234375</LongitudeDegrees>
            </Position>
            <AltitudeMeters>-46</AltitudeMeters>
            <DistanceMeters>NAN</DistanceMeters>
          </Trackpoint>
          <Trackpoint>
            <Time>2022-07-12T15:42:05.000Z</Time>
            <Position>
              <LatitudeDegrees>43.34681577980518341064453125</LatitudeDegrees>
              <LongitudeDegrees>-3.12827386893332004547119140625</LongitudeDegrees>
            </Position>
            <AltitudeMeters>-45.200000762939453125</AltitudeMeters>
            <DistanceMeters>NAN</DistanceMeters>
          </Trackpoint>
          <Trackpoint>
            <Time>2022-07-12T15:42:07.000Z</Time>
            <Position>
              <LatitudeDegrees>43.34684167988598346710205078125</LatitudeDegrees>
              <LongitudeDegrees>-3.1282789818942546844482421875</LongitudeDegrees>
            </Position>
            <AltitudeMeters>-44.799999237060546875</AltitudeMeters>
            <DistanceMeters>NAN</DistanceMeters>
          </Trackpoint>
          <Trackpoint>
            <Time>2022-07-12T15:42:11.000Z</Time>
            <Position>
              <LatitudeDegrees>43.346890546381473541259765625</LatitudeDegrees>
              <LongitudeDegrees>-3.128245957195758819580078125</LongitudeDegrees>
            </Position>
            <AltitudeMeters>-44.200000762939453125</AltitudeMeters>
            <DistanceMeters>NAN</DistanceMeters>
          </Trackpoint>
          <Trackpoint>
            <Time>2022-07-12T15:42:13.000Z</Time>
            <Position>
              <LatitudeDegrees>43.34691007621586322784423828125</LatitudeDegrees>
              <LongitudeDegrees>-3.1282340548932552337646484375</LongitudeDegrees>
            </Position>
            <AltitudeMeters>-43.59999847412109375</AltitudeMeters>
            <DistanceMeters>NAN</DistanceMeters>
          </Trackpoint>
          <Trackpoint>
            <Time>2022-07-12T15:42:16.000Z</Time>
            <Position>
              <LatitudeDegrees>43.3469161950051784515380859375</LatitudeDegrees>
              <LongitudeDegrees>-3.12823229469358921051025390625</LongitudeDegrees>
            </Position>
            <AltitudeMeters>-43.200000762939453125</AltitudeMeters>
            <DistanceMeters>NAN</DistanceMeters>
          </Trackpoint>
          <Trackpoint>
            <Time>2022-07-12T15:42:35.000Z</Time>
            <Position>
              <LatitudeDegrees>43.3469376526772975921630859375</LatitudeDegrees>
              <LongitudeDegrees>-3.12821947038173675537109375</LongitudeDegrees>
            </Position>
            <AltitudeMeters>-42.799999237060546875</AltitudeMeters>
            <DistanceMeters>NAN</DistanceMeters>
          </Trackpoint>
          <Trackpoint>
            <Time>2022-07-12T15:42:36.000Z</Time>
            <Position>
              <LatitudeDegrees>43.3469460345804691314697265625</LatitudeDegrees>
              <LongitudeDegrees>-3.12821603380143642425537109375</LongitudeDegrees>
            </Position>
            <AltitudeMeters>-42.799999237060546875</AltitudeMeters>
            <DistanceMeters>NAN</DistanceMeters>
          </Trackpoint>
          <Trackpoint>
            <Time>2022-07-12T15:42:37.000Z</Time>
            <Position>
              <LatitudeDegrees>43.346951901912689208984375</LatitudeDegrees>
              <LongitudeDegrees>-3.12821452505886554718017578125</LongitudeDegrees>
            </Position>
            <AltitudeMeters>-42.59999847412109375</AltitudeMeters>
            <DistanceMeters>NAN</DistanceMeters>
          </Trackpoint>
          <Trackpoint>
            <Time>2022-07-12T15:42:39.000Z</Time>
            <Position>
              <LatitudeDegrees>43.346951901912689208984375</LatitudeDegrees>
              <LongitudeDegrees>-3.12821452505886554718017578125</LongitudeDegrees>
            </Position>
            <AltitudeMeters>-42.59999847412109375</AltitudeMeters>
            <DistanceMeters>NAN</DistanceMeters>
          </Trackpoint>
          <Trackpoint>
            <Time>2022-07-12T15:44:29.000Z</Time>
            <Position>
              <LatitudeDegrees>43.34724267013370990753173828125</LatitudeDegrees>
              <LongitudeDegrees>-3.12808678485453128814697265625</LongitudeDegrees>
            </Position>
            <AltitudeMeters>-36.59999847412109375</AltitudeMeters>
            <DistanceMeters>NAN</DistanceMeters>
          </Trackpoint>
          <Trackpoint>
            <Time>2022-07-12T15:44:32.000Z</Time>
            <Position>
              <LatitudeDegrees>43.347290195524692535400390625</LatitudeDegrees>
              <LongitudeDegrees>-3.128077983856201171875</LongitudeDegrees>
            </Position>
            <AltitudeMeters>-36.200000762939453125</AltitudeMeters>
            <DistanceMeters>NAN</DistanceMeters>
          </Trackpoint>
          <Trackpoint>
            <Time>2022-07-12T15:44:35.000Z</Time>
            <Position>
              <LatitudeDegrees>43.3473346196115016937255859375</LatitudeDegrees>
              <LongitudeDegrees>-3.1280607171356678009033203125</LongitudeDegrees>
            </Position>
            <AltitudeMeters>-35.59999847412109375</AltitudeMeters>
            <DistanceMeters>NAN</DistanceMeters>
          </Trackpoint>
          <Trackpoint>
            <Time>2022-07-12T15:44:36.000Z</Time>
            <Position>
              <LatitudeDegrees>43.34734685719013214111328125</LatitudeDegrees>
              <LongitudeDegrees>-3.1280516646802425384521484375</LongitudeDegrees>
            </Position>
            <AltitudeMeters>-35.40000152587890625</AltitudeMeters>
            <DistanceMeters>NAN</DistanceMeters>
          </Trackpoint>
          <Trackpoint>
            <Time>2022-07-12T15:44:37.000Z</Time>
            <Position>
              <LatitudeDegrees>43.34735750220715999603271484375</LatitudeDegrees>
              <LongitudeDegrees>-3.12804822809994220733642578125</LongitudeDegrees>
            </Position>
            <AltitudeMeters>-35.200000762939453125</AltitudeMeters>
            <DistanceMeters>NAN</DistanceMeters>
          </Trackpoint>
          <Trackpoint>
            <Time>2022-07-12T15:44:40.000Z</Time>
            <Position>
              <LatitudeDegrees>43.34739781916141510009765625</LatitudeDegrees>
              <LongitudeDegrees>-3.128046132624149322509765625</LongitudeDegrees>
            </Position>
            <AltitudeMeters>-34.59999847412109375</AltitudeMeters>
            <DistanceMeters>NAN</DistanceMeters>
          </Trackpoint>
          <Trackpoint>
            <Time>2022-07-12T15:44:41.000Z</Time>
            <Position>
              <LatitudeDegrees>43.3474092185497283935546875</LatitudeDegrees>
              <LongitudeDegrees>-3.12804018147289752960205078125</LongitudeDegrees>
            </Position>
            <AltitudeMeters>-34.40000152587890625</AltitudeMeters>
            <DistanceMeters>NAN</DistanceMeters>
          </Trackpoint>
          <Trackpoint>
            <Time>2022-07-12T15:44:42.000Z</Time>
            <Position>
              <LatitudeDegrees>43.3474214561283588409423828125</LatitudeDegrees>
              <LongitudeDegrees>-3.12802911736071109771728515625</LongitudeDegrees>
            </Position>
            <AltitudeMeters>-34.200000762939453125</AltitudeMeters>
            <DistanceMeters>NAN</DistanceMeters>
          </Trackpoint>
          <Trackpoint>
            <Time>2022-07-12T15:44:48.000Z</Time>
            <Position>
              <LatitudeDegrees>43.34750804118812084197998046875</LatitudeDegrees>
              <LongitudeDegrees>-3.12800598330795764923095703125</LongitudeDegrees>
            </Position>
            <AltitudeMeters>-33.200000762939453125</AltitudeMeters>
            <DistanceMeters>NAN</DistanceMeters>
          </Trackpoint>
          <Trackpoint>
            <Time>2022-07-12T15:44:50.000Z</Time>
            <Position>
              <LatitudeDegrees>43.34753067232668399810791015625</LatitudeDegrees>
              <LongitudeDegrees>-3.12800145708024501800537109375</LongitudeDegrees>
            </Position>
            <AltitudeMeters>-33</AltitudeMeters>
            <DistanceMeters>NAN</DistanceMeters>
          </Trackpoint>
          <Trackpoint>
            <Time>2022-07-12T15:44:51.000Z</Time>
            <Position>
              <LatitudeDegrees>43.34753997623920440673828125</LatitudeDegrees>
              <LongitudeDegrees>-3.12800531275570392608642578125</LongitudeDegrees>
            </Position>
            <AltitudeMeters>-33</AltitudeMeters>
            <DistanceMeters>NAN</DistanceMeters>
          </Trackpoint>
          <Trackpoint>
            <Time>2022-07-12T15:44:55.000Z</Time>
            <Position>
              <LatitudeDegrees>43.3475944586098194122314453125</LatitudeDegrees>
              <LongitudeDegrees>-3.127989135682582855224609375</LongitudeDegrees>
            </Position>
            <AltitudeMeters>-32.799999237060546875</AltitudeMeters>
            <DistanceMeters>NAN</DistanceMeters>
          </Trackpoint>
          <Trackpoint>
            <Time>2022-07-12T15:44:58.000Z</Time>
            <Position>
              <LatitudeDegrees>43.34762354381382465362548828125</LatitudeDegrees>
              <LongitudeDegrees>-3.127987124025821685791015625</LongitudeDegrees>
            </Position>
            <AltitudeMeters>-32.200000762939453125</AltitudeMeters>
            <DistanceMeters>NAN</DistanceMeters>
          </Trackpoint>
          <Trackpoint>
            <Time>2022-07-12T15:44:59.000Z</Time>
            <Position>
              <LatitudeDegrees>43.3476296626031398773193359375</LatitudeDegrees>
              <LongitudeDegrees>-3.12798419035971164703369140625</LongitudeDegrees>
            </Position>
            <AltitudeMeters>-32</AltitudeMeters>
            <DistanceMeters>NAN</DistanceMeters>
          </Trackpoint>
          <Trackpoint>
            <Time>2022-07-12T15:45:01.000Z</Time>
            <Position>
              <LatitudeDegrees>43.34765371866524219512939453125</LatitudeDegrees>
              <LongitudeDegrees>-3.12797480262815952301025390625</LongitudeDegrees>
            </Position>
            <AltitudeMeters>-31.799999237060546875</AltitudeMeters>
            <DistanceMeters>NAN</DistanceMeters>
          </Trackpoint>
          <Trackpoint>
            <Time>2022-07-12T15:45:02.000Z</Time>
            <Position>
              <LatitudeDegrees>43.3476672135293483734130859375</LatitudeDegrees>
              <LongitudeDegrees>-3.12796826474368572235107421875</LongitudeDegrees>
            </Position>
            <AltitudeMeters>-31.6000003814697265625</AltitudeMeters>
            <DistanceMeters>NAN</DistanceMeters>
          </Trackpoint>
          <Trackpoint>
            <Time>2022-07-12T15:45:03.000Z</Time>
            <Position>
              <LatitudeDegrees>43.34768406115472316741943359375</LatitudeDegrees>
              <LongitudeDegrees>-3.12796524725854396820068359375</LongitudeDegrees>
            </Position>
            <AltitudeMeters>-31.6000003814697265625</AltitudeMeters>
            <DistanceMeters>NAN</DistanceMeters>
          </Trackpoint>
          <Trackpoint>
            <Time>2022-07-12T15:45:05.000Z</Time>
            <Position>
              <LatitudeDegrees>43.347711302340030670166015625</LatitudeDegrees>
              <LongitudeDegrees>-3.12795870937407016754150390625</LongitudeDegrees>
            </Position>
            <AltitudeMeters>-31.200000762939453125</AltitudeMeters>
            <DistanceMeters>NAN</DistanceMeters>
          </Trackpoint>
          <Trackpoint>
            <Time>2022-07-12T15:45:07.000Z</Time>
            <Position>
              <LatitudeDegrees>43.34774021990597248077392578125</LatitudeDegrees>
              <LongitudeDegrees>-3.12795787118375301361083984375</LongitudeDegrees>
            </Position>
            <AltitudeMeters>-30.799999237060546875</AltitudeMeters>
            <DistanceMeters>NAN</DistanceMeters>
          </Trackpoint>
          <Trackpoint>
            <Time>2022-07-12T15:45:13.000Z</Time>
            <Position>
              <LatitudeDegrees>43.347764275968074798583984375</LatitudeDegrees>
              <LongitudeDegrees>-3.1279487349092960357666015625</LongitudeDegrees>
            </Position>
            <AltitudeMeters>-30</AltitudeMeters>
            <DistanceMeters>NAN</DistanceMeters>
          </Trackpoint>
          <Trackpoint>
            <Time>2022-07-12T15:46:04.000Z</Time>
            <Position>
              <LatitudeDegrees>43.34797793067991733551025390625</LatitudeDegrees>
              <LongitudeDegrees>-3.1279765628278255462646484375</LongitudeDegrees>
            </Position>
            <AltitudeMeters>-27.3999996185302734375</AltitudeMeters>
            <DistanceMeters>NAN</DistanceMeters>
          </Trackpoint>
          <Trackpoint>
            <Time>2022-07-12T15:46:08.000Z</Time>
            <Position>
              <LatitudeDegrees>43.34801212884485721588134765625</LatitudeDegrees>
              <LongitudeDegrees>-3.12800221145153045654296875</LongitudeDegrees>
            </Position>
            <AltitudeMeters>-26.200000762939453125</AltitudeMeters>
            <DistanceMeters>NAN</DistanceMeters>
          </Trackpoint>
          <Trackpoint>
            <Time>2022-07-12T15:46:09.000Z</Time>
            <Position>
              <LatitudeDegrees>43.348019085824489593505859375</LatitudeDegrees>
              <LongitudeDegrees>-3.12801017425954341888427734375</LongitudeDegrees>
            </Position>
            <AltitudeMeters>-25.799999237060546875</AltitudeMeters>
            <DistanceMeters>NAN</DistanceMeters>
          </Trackpoint>
          <Trackpoint>
            <Time>2022-07-12T15:46:10.000Z</Time>
            <Position>
              <LatitudeDegrees>43.34802704863250255584716796875</LatitudeDegrees>
              <LongitudeDegrees>-3.12801872380077838897705078125</LongitudeDegrees>
            </Position>
            <AltitudeMeters>-25.6000003814697265625</AltitudeMeters>
            <DistanceMeters>NAN</DistanceMeters>
          </Trackpoint>
          <Trackpoint>
            <Time>2022-07-12T15:46:12.000Z</Time>
            <Position>
              <LatitudeDegrees>43.34804096259176731109619140625</LatitudeDegrees>
              <LongitudeDegrees>-3.128026016056537628173828125</LongitudeDegrees>
            </Position>
            <AltitudeMeters>-25</AltitudeMeters>
            <DistanceMeters>NAN</DistanceMeters>
          </Trackpoint>
          <Trackpoint>
            <Time>2022-07-12T15:46:16.000Z</Time>
            <Position>
              <LatitudeDegrees>43.34808303974568843841552734375</LatitudeDegrees>
              <LongitudeDegrees>-3.12804856337606906890869140625</LongitudeDegrees>
            </Position>
            <AltitudeMeters>-24</AltitudeMeters>
            <DistanceMeters>NAN</DistanceMeters>
          </Trackpoint>
          <Trackpoint>
            <Time>2022-07-12T15:46:17.000Z</Time>
            <Position>
              <LatitudeDegrees>43.348100893199443817138671875</LatitudeDegrees>
              <LongitudeDegrees>-3.12805451452732086181640625</LongitudeDegrees>
            </Position>
            <AltitudeMeters>-23.799999237060546875</AltitudeMeters>
            <DistanceMeters>NAN</DistanceMeters>
          </Trackpoint>
          <Trackpoint>
            <Time>2022-07-12T15:46:19.000Z</Time>
            <Position>
              <LatitudeDegrees>43.3481319062411785125732421875</LatitudeDegrees>
              <LongitudeDegrees>-3.128064908087253570556640625</LongitudeDegrees>
            </Position>
            <AltitudeMeters>-23.6000003814697265625</AltitudeMeters>
            <DistanceMeters>NAN</DistanceMeters>
          </Trackpoint>
          <Trackpoint>
            <Time>2022-07-12T15:46:22.000Z</Time>
            <Position>
              <LatitudeDegrees>43.34817029535770416259765625</LatitudeDegrees>
              <LongitudeDegrees>-3.12807806767523288726806640625</LongitudeDegrees>
            </Position>
            <AltitudeMeters>-23</AltitudeMeters>
            <DistanceMeters>NAN</DistanceMeters>
          </Trackpoint>
          <Trackpoint>
            <Time>2022-07-12T15:46:24.000Z</Time>
            <Position>
              <LatitudeDegrees>43.3481969498097896575927734375</LatitudeDegrees>
              <LongitudeDegrees>-3.12809499911963939666748046875</LongitudeDegrees>
            </Position>
            <AltitudeMeters>-22.6000003814697265625</AltitudeMeters>
            <DistanceMeters>NAN</DistanceMeters>
          </Trackpoint>
          <Trackpoint>
            <Time>2022-07-12T15:46:27.000Z</Time>
            <Position>
              <LatitudeDegrees>43.3482462354004383087158203125</LatitudeDegrees>
              <LongitudeDegrees>-3.12812131829559803009033203125</LongitudeDegrees>
            </Position>
            <AltitudeMeters>-21.799999237060546875</AltitudeMeters>
            <DistanceMeters>NAN</DistanceMeters>
          </Trackpoint>
          <Trackpoint>
            <Time>2022-07-12T15:46:31.000Z</Time>
            <Position>
              <LatitudeDegrees>43.34827800281345844268798828125</LatitudeDegrees>
              <LongitudeDegrees>-3.1281388364732265472412109375</LongitudeDegrees>
            </Position>
            <AltitudeMeters>-20.799999237060546875</AltitudeMeters>
            <DistanceMeters>NAN</DistanceMeters>
          </Trackpoint>
          <Trackpoint>
            <Time>2022-07-12T15:46:32.000Z</Time>
            <Position>
              <LatitudeDegrees>43.34828956983983516693115234375</LatitudeDegrees>
              <LongitudeDegrees>-3.12815400771796703338623046875</LongitudeDegrees>
            </Position>
            <AltitudeMeters>-20.799999237060546875</AltitudeMeters>
            <DistanceMeters>NAN</DistanceMeters>
          </Trackpoint>
          <Trackpoint>
            <Time>2022-07-12T15:46:33.000Z</Time>
            <Position>
              <LatitudeDegrees>43.34830063395202159881591796875</LatitudeDegrees>
              <LongitudeDegrees>-3.1281646527349948883056640625</LongitudeDegrees>
            </Position>
            <AltitudeMeters>-20.3999996185302734375</AltitudeMeters>
            <DistanceMeters>NAN</DistanceMeters>
          </Trackpoint>
          <Trackpoint>
            <Time>2022-07-12T15:46:34.000Z</Time>
            <Position>
              <LatitudeDegrees>43.348314799368381500244140625</LatitudeDegrees>
              <LongitudeDegrees>-3.1281750462949275970458984375</LongitudeDegrees>
            </Position>
            <AltitudeMeters>-20.3999996185302734375</AltitudeMeters>
            <DistanceMeters>NAN</DistanceMeters>
          </Trackpoint>
          <Trackpoint>
            <Time>2022-07-12T15:46:38.000Z</Time>
            <Position>
              <LatitudeDegrees>43.34838026203215122222900390625</LatitudeDegrees>
              <LongitudeDegrees>-3.12820379622280597686767578125</LongitudeDegrees>
            </Position>
            <AltitudeMeters>-19.3999996185302734375</AltitudeMeters>
            <DistanceMeters>NAN</DistanceMeters>
          </Trackpoint>
          <Trackpoint>
            <Time>2022-07-12T15:46:41.000Z</Time>
            <Position>
              <LatitudeDegrees>43.348416723310947418212890625</LatitudeDegrees>
              <LongitudeDegrees>-3.1282313726842403411865234375</LongitudeDegrees>
            </Position>
            <AltitudeMeters>-18.799999237060546875</AltitudeMeters>
            <DistanceMeters>NAN</DistanceMeters>
          </Trackpoint>
          <Trackpoint>
            <Time>2022-07-12T15:46:43.000Z</Time>
            <Position>
              <LatitudeDegrees>43.34844379685819149017333984375</LatitudeDegrees>
              <LongitudeDegrees>-3.12827135436236858367919921875</LongitudeDegrees>
            </Position>
            <AltitudeMeters>-18.3999996185302734375</AltitudeMeters>
            <DistanceMeters>NAN</DistanceMeters>
          </Trackpoint>
          <Trackpoint>
            <Time>2022-07-12T15:46:46.000Z</Time>
            <Position>
              <LatitudeDegrees>43.3484658412635326385498046875</LatitudeDegrees>
              <LongitudeDegrees>-3.12829465605318546295166015625</LongitudeDegrees>
            </Position>
            <AltitudeMeters>-17.799999237060546875</AltitudeMeters>
            <DistanceMeters>NAN</DistanceMeters>
          </Trackpoint>
          <Trackpoint>
            <Time>2022-07-12T15:46:47.000Z</Time>
            <Position>
              <LatitudeDegrees>43.34847112186253070831298828125</LatitudeDegrees>
              <LongitudeDegrees>-3.1282947398722171783447265625</LongitudeDegrees>
            </Position>
            <AltitudeMeters>-17.799999237060546875</AltitudeMeters>
            <DistanceMeters>NAN</DistanceMeters>
          </Trackpoint>
          <Trackpoint>
            <Time>2022-07-12T15:46:48.000Z</Time>
            <Position>
              <LatitudeDegrees>43.34847447462379932403564453125</LatitudeDegrees>
              <LongitudeDegrees>-3.12829616479575634002685546875</LongitudeDegrees>
            </Position>
            <AltitudeMeters>-17.3999996185302734375</AltitudeMeters>
            <DistanceMeters>NAN</DistanceMeters>
          </Trackpoint>
          <Trackpoint>
            <Time>2022-07-12T15:46:49.000Z</Time>
            <Position>
              <LatitudeDegrees>43.3484789170324802398681640625</LatitudeDegrees>
              <LongitudeDegrees>-3.128300271928310394287109375</LongitudeDegrees>
            </Position>
            <AltitudeMeters>-17.200000762939453125</AltitudeMeters>
            <DistanceMeters>NAN</DistanceMeters>
          </Trackpoint>
          <Trackpoint>
            <Time>2022-07-12T15:46:51.000Z</Time>
            <Position>
              <LatitudeDegrees>43.34849677048623561859130859375</LatitudeDegrees>
              <LongitudeDegrees>-3.12830119393765926361083984375</LongitudeDegrees>
            </Position>
            <AltitudeMeters>-17</AltitudeMeters>
            <DistanceMeters>NAN</DistanceMeters>
          </Trackpoint>
          <Trackpoint>
            <Time>2022-07-12T15:46:53.000Z</Time>
            <Position>
              <LatitudeDegrees>43.3485201559960842132568359375</LatitudeDegrees>
              <LongitudeDegrees>-3.1282937340438365936279296875</LongitudeDegrees>
            </Position>
            <AltitudeMeters>-16.799999237060546875</AltitudeMeters>
            <DistanceMeters>NAN</DistanceMeters>
          </Trackpoint>
          <Trackpoint>
            <Time>2022-07-12T15:46:55.000Z</Time>
            <Position>
              <LatitudeDegrees>43.3485231734812259674072265625</LatitudeDegrees>
              <LongitudeDegrees>-3.1282917223870754241943359375</LongitudeDegrees>
            </Position>
            <AltitudeMeters>-16.799999237060546875</AltitudeMeters>
            <DistanceMeters>NAN</DistanceMeters>
          </Trackpoint>
          <Trackpoint>
            <Time>2022-07-12T15:47:12.000Z</Time>
            <Position>
              <LatitudeDegrees>43.34865753538906574249267578125</LatitudeDegrees>
              <LongitudeDegrees>-3.128353245556354522705078125</LongitudeDegrees>
            </Position>
            <AltitudeMeters>-14.80000019073486328125</AltitudeMeters>
            <DistanceMeters>NAN</DistanceMeters>
          </Trackpoint>
          <Trackpoint>
            <Time>2022-07-12T15:47:13.000Z</Time>
            <Position>
              <LatitudeDegrees>43.348667509853839874267578125</LatitudeDegrees>
              <LongitudeDegrees>-3.12835693359375</LongitudeDegrees>
            </Position>
            <AltitudeMeters>-14.3999996185302734375</AltitudeMeters>
            <DistanceMeters>NAN</DistanceMeters>
          </Trackpoint>
          <Trackpoint>
            <Time>2022-07-12T15:47:17.000Z</Time>
            <Position>
              <LatitudeDegrees>43.34871478378772735595703125</LatitudeDegrees>
              <LongitudeDegrees>-3.12836674042046070098876953125</LongitudeDegrees>
            </Position>
            <AltitudeMeters>-13.80000019073486328125</AltitudeMeters>
            <DistanceMeters>NAN</DistanceMeters>
          </Trackpoint>
          <Trackpoint>
            <Time>2022-07-12T15:47:19.000Z</Time>
            <Position>
              <LatitudeDegrees>43.3487343974411487579345703125</LatitudeDegrees>
              <LongitudeDegrees>-3.128367997705936431884765625</LongitudeDegrees>
            </Position>
            <AltitudeMeters>-13.6000003814697265625</AltitudeMeters>
            <DistanceMeters>NAN</DistanceMeters>
          </Trackpoint>
          <Trackpoint>
            <Time>2022-07-12T15:47:20.000Z</Time>
            <Position>
              <LatitudeDegrees>43.34874336607754230499267578125</LatitudeDegrees>
              <LongitudeDegrees>-3.12836699187755584716796875</LongitudeDegrees>
            </Position>
            <AltitudeMeters>-13.3999996185302734375</AltitudeMeters>
            <DistanceMeters>NAN</DistanceMeters>
          </Trackpoint>
          <Trackpoint>
            <Time>2022-07-12T15:47:24.000Z</Time>
            <Position>
              <LatitudeDegrees>43.3487836830317974090576171875</LatitudeDegrees>
              <LongitudeDegrees>-3.12839004211127758026123046875</LongitudeDegrees>
            </Position>
            <AltitudeMeters>-12.6000003814697265625</AltitudeMeters>
            <DistanceMeters>NAN</DistanceMeters>
          </Trackpoint>
          <Trackpoint>
            <Time>2022-07-12T15:47:29.000Z</Time>
            <Position>
              <LatitudeDegrees>43.34884352982044219970703125</LatitudeDegrees>
              <LongitudeDegrees>-3.12841502018272876739501953125</LongitudeDegrees>
            </Position>
            <AltitudeMeters>-11.6000003814697265625</AltitudeMeters>
            <DistanceMeters>NAN</DistanceMeters>
          </Trackpoint>
          <Trackpoint>
            <Time>2022-07-12T15:47:30.000Z</Time>
            <Position>
              <LatitudeDegrees>43.34885291755199432373046875</LatitudeDegrees>
              <LongitudeDegrees>-3.12842004932463169097900390625</LongitudeDegrees>
            </Position>
            <AltitudeMeters>-11.6000003814697265625</AltitudeMeters>
            <DistanceMeters>NAN</DistanceMeters>
          </Trackpoint>
          <Trackpoint>
            <Time>2022-07-12T15:47:34.000Z</Time>
            <Position>
              <LatitudeDegrees>43.348891474306583404541015625</LatitudeDegrees>
              <LongitudeDegrees>-3.12843538820743560791015625</LongitudeDegrees>
            </Position>
            <AltitudeMeters>-11</AltitudeMeters>
            <DistanceMeters>NAN</DistanceMeters>
          </Trackpoint>
          <Trackpoint>
            <Time>2022-07-12T15:47:36.000Z</Time>
            <Position>
              <LatitudeDegrees>43.348917625844478607177734375</LatitudeDegrees>
              <LongitudeDegrees>-3.1284452788531780242919921875</LongitudeDegrees>
            </Position>
            <AltitudeMeters>-10.3999996185302734375</AltitudeMeters>
            <DistanceMeters>NAN</DistanceMeters>
          </Trackpoint>
          <Trackpoint>
            <Time>2022-07-12T15:47:42.000Z</Time>
            <Position>
              <LatitudeDegrees>43.34900043904781341552734375</LatitudeDegrees>
              <LongitudeDegrees>-3.128475286066532135009765625</LongitudeDegrees>
            </Position>
            <AltitudeMeters>-9.3999996185302734375</AltitudeMeters>
            <DistanceMeters>NAN</DistanceMeters>
          </Trackpoint>
          <Trackpoint>
            <Time>2022-07-12T15:47:44.000Z</Time>
            <Position>
              <LatitudeDegrees>43.34902700968086719512939453125</LatitudeDegrees>
              <LongitudeDegrees>-3.1284831650555133819580078125</LongitudeDegrees>
            </Position>
            <AltitudeMeters>-9.19999980926513671875</AltitudeMeters>
            <DistanceMeters>NAN</DistanceMeters>
          </Trackpoint>
          <Trackpoint>
            <Time>2022-07-12T15:47:48.000Z</Time>
            <Position>
              <LatitudeDegrees>43.34907478652894496917724609375</LatitudeDegrees>
              <LongitudeDegrees>-3.12850738875567913055419921875</LongitudeDegrees>
            </Position>
            <AltitudeMeters>-8.80000019073486328125</AltitudeMeters>
            <DistanceMeters>NAN</DistanceMeters>
          </Trackpoint>
          <Trackpoint>
            <Time>2022-07-12T15:47:51.000Z</Time>
            <Position>
              <LatitudeDegrees>43.34910772740840911865234375</LatitudeDegrees>
              <LongitudeDegrees>-3.12854292802512645721435546875</LongitudeDegrees>
            </Position>
            <AltitudeMeters>-8.19999980926513671875</AltitudeMeters>
            <DistanceMeters>NAN</DistanceMeters>
          </Trackpoint>
          <Trackpoint>
            <Time>2022-07-12T15:47:58.000Z</Time>
            <Position>
              <LatitudeDegrees>43.34923655726015567779541015625</LatitudeDegrees>
              <LongitudeDegrees>-3.12858265824615955352783203125</LongitudeDegrees>
            </Position>
            <AltitudeMeters>-7</AltitudeMeters>
            <DistanceMeters>NAN</DistanceMeters>
          </Trackpoint>
          <Trackpoint>
            <Time>2022-07-12T15:47:59.000Z</Time>
            <Position>
              <LatitudeDegrees>43.34924183785915374755859375</LatitudeDegrees>
              <LongitudeDegrees>-3.1285901181399822235107421875</LongitudeDegrees>
            </Position>
            <AltitudeMeters>-7</AltitudeMeters>
            <DistanceMeters>NAN</DistanceMeters>
          </Trackpoint>
          <Trackpoint>
            <Time>2022-07-12T15:48:07.000Z</Time>
            <Position>
              <LatitudeDegrees>43.349341414868831634521484375</LatitudeDegrees>
              <LongitudeDegrees>-3.1286548264324665069580078125</LongitudeDegrees>
            </Position>
            <AltitudeMeters>-6.400000095367431640625</AltitudeMeters>
            <DistanceMeters>NAN</DistanceMeters>
          </Trackpoint>
          <Trackpoint>
            <Time>2022-07-12T15:48:09.000Z</Time>
            <Position>
              <LatitudeDegrees>43.3493586815893650054931640625</LatitudeDegrees>
              <LongitudeDegrees>-3.128667734563350677490234375</LongitudeDegrees>
            </Position>
            <AltitudeMeters>-6.19999980926513671875</AltitudeMeters>
            <DistanceMeters>NAN</DistanceMeters>
          </Trackpoint>
          <Trackpoint>
            <Time>2022-07-12T15:48:11.000Z</Time>
            <Position>
              <LatitudeDegrees>43.34938877262175083160400390625</LatitudeDegrees>
              <LongitudeDegrees>-3.12868005596101284027099609375</LongitudeDegrees>
            </Position>
            <AltitudeMeters>-6.19999980926513671875</AltitudeMeters>
            <DistanceMeters>NAN</DistanceMeters>
          </Trackpoint>
          <Trackpoint>
            <Time>2022-07-12T15:48:12.000Z</Time>
            <Position>
              <LatitudeDegrees>43.34940553642809391021728515625</LatitudeDegrees>
              <LongitudeDegrees>-3.12868491746485233306884765625</LongitudeDegrees>
            </Position>
            <AltitudeMeters>-6</AltitudeMeters>
            <DistanceMeters>NAN</DistanceMeters>
          </Trackpoint>
          <Trackpoint>
            <Time>2022-07-12T15:48:15.000Z</Time>
            <Position>
              <LatitudeDegrees>43.349452726542949676513671875</LatitudeDegrees>
              <LongitudeDegrees>-3.1287041120231151580810546875</LongitudeDegrees>
            </Position>
            <AltitudeMeters>-5.80000019073486328125</AltitudeMeters>
            <DistanceMeters>NAN</DistanceMeters>
          </Trackpoint>
          <Trackpoint>
            <Time>2022-07-12T15:48:20.000Z</Time>
            <Position>
              <LatitudeDegrees>43.34954031743109226226806640625</LatitudeDegrees>
              <LongitudeDegrees>-3.12872179783880710601806640625</LongitudeDegrees>
            </Position>
            <AltitudeMeters>-5.400000095367431640625</AltitudeMeters>
            <DistanceMeters>NAN</DistanceMeters>
          </Trackpoint>
          <Trackpoint>
            <Time>2022-07-12T15:48:22.000Z</Time>
            <Position>
              <LatitudeDegrees>43.34957686252892017364501953125</LatitudeDegrees>
              <LongitudeDegrees>-3.12872297130525112152099609375</LongitudeDegrees>
            </Position>
            <AltitudeMeters>-5.19999980926513671875</AltitudeMeters>
            <DistanceMeters>NAN</DistanceMeters>
          </Trackpoint>
          <Trackpoint>
            <Time>2022-07-12T15:48:24.000Z</Time>
            <Position>
              <LatitudeDegrees>43.34959932602941989898681640625</LatitudeDegrees>
              <LongitudeDegrees>-3.12871810980141162872314453125</LongitudeDegrees>
            </Position>
            <AltitudeMeters>-4.80000019073486328125</AltitudeMeters>
            <DistanceMeters>NAN</DistanceMeters>
          </Trackpoint>
          <Trackpoint>
            <Time>2022-07-12T15:48:25.000Z</Time>
            <Position>
              <LatitudeDegrees>43.349612653255462646484375</LatitudeDegrees>
              <LongitudeDegrees>-3.1287205405533313751220703125</LongitudeDegrees>
            </Position>
            <AltitudeMeters>-4.599999904632568359375</AltitudeMeters>
            <DistanceMeters>NAN</DistanceMeters>
          </Trackpoint>
          <Trackpoint>
            <Time>2022-07-12T15:48:27.000Z</Time>
            <Position>
              <LatitudeDegrees>43.349643833935260772705078125</LatitudeDegrees>
              <LongitudeDegrees>-3.1287230551242828369140625</LongitudeDegrees>
            </Position>
            <AltitudeMeters>-4.19999980926513671875</AltitudeMeters>
            <DistanceMeters>NAN</DistanceMeters>
          </Trackpoint>
          <Trackpoint>
            <Time>2022-07-12T15:48:30.000Z</Time>
            <Position>
              <LatitudeDegrees>43.34969873540103435516357421875</LatitudeDegrees>
              <LongitudeDegrees>-3.12873168848454952239990234375</LongitudeDegrees>
            </Position>
            <AltitudeMeters>-3.7999999523162841796875</AltitudeMeters>
            <DistanceMeters>NAN</DistanceMeters>
          </Trackpoint>
          <Trackpoint>
            <Time>2022-07-12T15:48:34.000Z</Time>
            <Position>
              <LatitudeDegrees>43.34975489415228366851806640625</LatitudeDegrees>
              <LongitudeDegrees>-3.12871157191693782806396484375</LongitudeDegrees>
            </Position>
            <AltitudeMeters>-3.2000000476837158203125</AltitudeMeters>
            <DistanceMeters>NAN</DistanceMeters>
          </Trackpoint>
          <Trackpoint>
            <Time>2022-07-12T15:48:36.000Z</Time>
            <Position>
              <LatitudeDegrees>43.3497761003673076629638671875</LatitudeDegrees>
              <LongitudeDegrees>-3.12870201654732227325439453125</LongitudeDegrees>
            </Position>
            <AltitudeMeters>-2.599999904632568359375</AltitudeMeters>
            <DistanceMeters>NAN</DistanceMeters>
          </Trackpoint>
          <Trackpoint>
            <Time>2022-07-12T15:48:39.000Z</Time>
            <Position>
              <LatitudeDegrees>43.34981717169284820556640625</LatitudeDegrees>
              <LongitudeDegrees>-3.128702938556671142578125</LongitudeDegrees>
            </Position>
            <AltitudeMeters>-2.2000000476837158203125</AltitudeMeters>
            <DistanceMeters>NAN</DistanceMeters>
          </Trackpoint>
          <Trackpoint>
            <Time>2022-07-12T15:48:41.000Z</Time>
            <Position>
              <LatitudeDegrees>43.3498339354991912841796875</LatitudeDegrees>
              <LongitudeDegrees>-3.12871458940207958221435546875</LongitudeDegrees>
            </Position>
            <AltitudeMeters>-1.7999999523162841796875</AltitudeMeters>
            <DistanceMeters>NAN</DistanceMeters>
          </Trackpoint>
          <Trackpoint>
            <Time>2022-07-12T15:48:42.000Z</Time>
            <Position>
              <LatitudeDegrees>43.3498428203165531158447265625</LatitudeDegrees>
              <LongitudeDegrees>-3.128729760646820068359375</LongitudeDegrees>
            </Position>
            <AltitudeMeters>-1.60000002384185791015625</AltitudeMeters>
            <DistanceMeters>NAN</DistanceMeters>
          </Trackpoint>
          <Trackpoint>
            <Time>2022-07-12T15:48:50.000Z</Time>
            <Position>
              <LatitudeDegrees>43.349897973239421844482421875</LatitudeDegrees>
              <LongitudeDegrees>-3.12886881642043590545654296875</LongitudeDegrees>
            </Position>
            <AltitudeMeters>-0.4000000059604644775390625</AltitudeMeters>
            <DistanceMeters>NAN</DistanceMeters>
          </Trackpoint>
          <Trackpoint>
            <Time>2022-07-12T15:48:51.000Z</Time>
            <Position>
              <LatitudeDegrees>43.3499115519225597381591796875</LatitudeDegrees>
              <LongitudeDegrees>-3.128881640732288360595703125</LongitudeDegrees>
            </Position>
            <AltitudeMeters>-0.4000000059604644775390625</AltitudeMeters>
            <DistanceMeters>NAN</DistanceMeters>
          </Trackpoint>
          <Trackpoint>
            <Time>2022-07-12T15:48:57.000Z</Time>
            <Position>
              <LatitudeDegrees>43.3499678783118724822998046875</LatitudeDegrees>
              <LongitudeDegrees>-3.12894442118704319000244140625</LongitudeDegrees>
            </Position>
            <AltitudeMeters>0.4000000059604644775390625</AltitudeMeters>
            <DistanceMeters>NAN</DistanceMeters>
          </Trackpoint>
          <Trackpoint>
            <Time>2022-07-12T15:48:59.000Z</Time>
            <Position>
              <LatitudeDegrees>43.3499970473349094390869140625</LatitudeDegrees>
              <LongitudeDegrees>-3.12896990217268466949462890625</LongitudeDegrees>
            </Position>
            <AltitudeMeters>0.60000002384185791015625</AltitudeMeters>
            <DistanceMeters>NAN</DistanceMeters>
          </Trackpoint>
          <Trackpoint>
            <Time>2022-07-12T15:49:06.000Z</Time>
            <Position>
              <LatitudeDegrees>43.35007357411086559295654296875</LatitudeDegrees>
              <LongitudeDegrees>-3.129086829721927642822265625</LongitudeDegrees>
            </Position>
            <AltitudeMeters>1.7999999523162841796875</AltitudeMeters>
            <DistanceMeters>NAN</DistanceMeters>
          </Trackpoint>
          <Trackpoint>
            <Time>2022-07-12T15:49:07.000Z</Time>
            <Position>
              <LatitudeDegrees>43.35007843561470508575439453125</LatitudeDegrees>
              <LongitudeDegrees>-3.1291014142334461212158203125</LongitudeDegrees>
            </Position>
            <AltitudeMeters>2</AltitudeMeters>
            <DistanceMeters>NAN</DistanceMeters>
          </Trackpoint>
          <Trackpoint>
            <Time>2022-07-12T15:49:08.000Z</Time>
            <Position>
              <LatitudeDegrees>43.350079022347927093505859375</LatitudeDegrees>
              <LongitudeDegrees>-3.129117004573345184326171875</LongitudeDegrees>
            </Position>
            <AltitudeMeters>2</AltitudeMeters>
            <DistanceMeters>NAN</DistanceMeters>
          </Trackpoint>
          <Trackpoint>
            <Time>2022-07-12T15:49:14.000Z</Time>
            <Position>
              <LatitudeDegrees>43.35006929934024810791015625</LatitudeDegrees>
              <LongitudeDegrees>-3.12924449332058429718017578125</LongitudeDegrees>
            </Position>
            <AltitudeMeters>3</AltitudeMeters>
            <DistanceMeters>NAN</DistanceMeters>
          </Trackpoint>
          <Trackpoint>
            <Time>2022-07-12T15:49:15.000Z</Time>
            <Position>
              <LatitudeDegrees>43.350073657929897308349609375</LatitudeDegrees>
              <LongitudeDegrees>-3.12926561571657657623291015625</LongitudeDegrees>
            </Position>
            <AltitudeMeters>3.2000000476837158203125</AltitudeMeters>
            <DistanceMeters>NAN</DistanceMeters>
          </Trackpoint>
          <Trackpoint>
            <Time>2022-07-12T15:49:21.000Z</Time>
            <Position>
              <LatitudeDegrees>43.35009218193590641021728515625</LatitudeDegrees>
              <LongitudeDegrees>-3.1293642707169055938720703125</LongitudeDegrees>
            </Position>
            <AltitudeMeters>4.19999980926513671875</AltitudeMeters>
            <DistanceMeters>NAN</DistanceMeters>
          </Trackpoint>
          <Trackpoint>
            <Time>2022-07-12T15:49:23.000Z</Time>
            <Position>
              <LatitudeDegrees>43.35010039620101451873779296875</LatitudeDegrees>
              <LongitudeDegrees>-3.12939553521573543548583984375</LongitudeDegrees>
            </Position>
            <AltitudeMeters>4.400000095367431640625</AltitudeMeters>
            <DistanceMeters>NAN</DistanceMeters>
          </Trackpoint>
          <Trackpoint>
            <Time>2022-07-12T15:49:29.000Z</Time>
            <Position>
              <LatitudeDegrees>43.35011850111186504364013671875</LatitudeDegrees>
              <LongitudeDegrees>-3.1295017339289188385009765625</LongitudeDegrees>
            </Position>
            <AltitudeMeters>5.400000095367431640625</AltitudeMeters>
            <DistanceMeters>NAN</DistanceMeters>
          </Trackpoint>
          <Trackpoint>
            <Time>2022-07-12T15:49:33.000Z</Time>
            <Position>
              <LatitudeDegrees>43.35013928823173046112060546875</LatitudeDegrees>
              <LongitudeDegrees>-3.12956602312624454498291015625</LongitudeDegrees>
            </Position>
            <AltitudeMeters>6.19999980926513671875</AltitudeMeters>
            <DistanceMeters>NAN</DistanceMeters>
          </Trackpoint>
          <Trackpoint>
            <Time>2022-07-12T15:49:35.000Z</Time>
            <Position>
              <LatitudeDegrees>43.35014565847814083099365234375</LatitudeDegrees>
              <LongitudeDegrees>-3.1295972876250743865966796875</LongitudeDegrees>
            </Position>
            <AltitudeMeters>6.400000095367431640625</AltitudeMeters>
            <DistanceMeters>NAN</DistanceMeters>
          </Trackpoint>
          <Trackpoint>
            <Time>2022-07-12T15:49:37.000Z</Time>
            <Position>
              <LatitudeDegrees>43.35016208700835704803466796875</LatitudeDegrees>
              <LongitudeDegrees>-3.12963224016129970550537109375</LongitudeDegrees>
            </Position>
            <AltitudeMeters>6.80000019073486328125</AltitudeMeters>
            <DistanceMeters>NAN</DistanceMeters>
          </Trackpoint>
          <Trackpoint>
            <Time>2022-07-12T15:49:40.000Z</Time>
            <Position>
              <LatitudeDegrees>43.35018186829984188079833984375</LatitudeDegrees>
              <LongitudeDegrees>-3.129680939018726348876953125</LongitudeDegrees>
            </Position>
            <AltitudeMeters>7.400000095367431640625</AltitudeMeters>
            <DistanceMeters>NAN</DistanceMeters>
          </Trackpoint>
          <Trackpoint>
            <Time>2022-07-12T15:49:41.000Z</Time>
            <Position>
              <LatitudeDegrees>43.35018823854625225067138671875</LatitudeDegrees>
              <LongitudeDegrees>-3.12969828955829143524169921875</LongitudeDegrees>
            </Position>
            <AltitudeMeters>7.599999904632568359375</AltitudeMeters>
            <DistanceMeters>NAN</DistanceMeters>
          </Trackpoint>
          <Trackpoint>
            <Time>2022-07-12T15:49:47.000Z</Time>
            <Position>
              <LatitudeDegrees>43.35020466707646846771240234375</LatitudeDegrees>
              <LongitudeDegrees>-3.12978663481771945953369140625</LongitudeDegrees>
            </Position>
            <AltitudeMeters>8.6000003814697265625</AltitudeMeters>
            <DistanceMeters>NAN</DistanceMeters>
          </Trackpoint>
          <Trackpoint>
            <Time>2022-07-12T15:49:48.000Z</Time>
            <Position>
              <LatitudeDegrees>43.350205086171627044677734375</LatitudeDegrees>
              <LongitudeDegrees>-3.129804320633411407470703125</LongitudeDegrees>
            </Position>
            <AltitudeMeters>8.80000019073486328125</AltitudeMeters>
            <DistanceMeters>NAN</DistanceMeters>
          </Trackpoint>
          <Trackpoint>
            <Time>2022-07-12T15:49:54.000Z</Time>
            <Position>
              <LatitudeDegrees>43.35022612474858760833740234375</LatitudeDegrees>
              <LongitudeDegrees>-3.129903562366962432861328125</LongitudeDegrees>
            </Position>
            <AltitudeMeters>9.6000003814697265625</AltitudeMeters>
            <DistanceMeters>NAN</DistanceMeters>
          </Trackpoint>
          <Trackpoint>
            <Time>2022-07-12T15:50:00.000Z</Time>
            <Position>
              <LatitudeDegrees>43.350236602127552032470703125</LatitudeDegrees>
              <LongitudeDegrees>-3.130000121891498565673828125</LongitudeDegrees>
            </Position>
            <AltitudeMeters>10.6000003814697265625</AltitudeMeters>
            <DistanceMeters>NAN</DistanceMeters>
          </Trackpoint>
          <Trackpoint>
            <Time>2022-07-12T15:50:01.000Z</Time>
            <Position>
              <LatitudeDegrees>43.35023936815559864044189453125</LatitudeDegrees>
              <LongitudeDegrees>-3.1300137005746364593505859375</LongitudeDegrees>
            </Position>
            <AltitudeMeters>10.80000019073486328125</AltitudeMeters>
            <DistanceMeters>NAN</DistanceMeters>
          </Trackpoint>
          <Trackpoint>
            <Time>2022-07-12T15:50:03.000Z</Time>
            <Position>
              <LatitudeDegrees>43.35023769177496433258056640625</LatitudeDegrees>
              <LongitudeDegrees>-3.13005141913890838623046875</LongitudeDegrees>
            </Position>
            <AltitudeMeters>11</AltitudeMeters>
            <DistanceMeters>NAN</DistanceMeters>
          </Trackpoint>
          <Trackpoint>
            <Time>2022-07-12T15:50:07.000Z</Time>
            <Position>
              <LatitudeDegrees>43.3502200059592723846435546875</LatitudeDegrees>
              <LongitudeDegrees>-3.13011151738464832305908203125</LongitudeDegrees>
            </Position>
            <AltitudeMeters>11.6000003814697265625</AltitudeMeters>
            <DistanceMeters>NAN</DistanceMeters>
          </Trackpoint>
          <Trackpoint>
            <Time>2022-07-12T15:50:08.000Z</Time>
            <Position>
              <LatitudeDegrees>43.35021547973155975341796875</LatitudeDegrees>
              <LongitudeDegrees>-3.1301283650100231170654296875</LongitudeDegrees>
            </Position>
            <AltitudeMeters>11.80000019073486328125</AltitudeMeters>
            <DistanceMeters>NAN</DistanceMeters>
          </Trackpoint>
          <Trackpoint>
            <Time>2022-07-12T15:50:14.000Z</Time>
            <Position>
              <LatitudeDegrees>43.35019025020301342010498046875</LatitudeDegrees>
              <LongitudeDegrees>-3.13022039830684661865234375</LongitudeDegrees>
            </Position>
            <AltitudeMeters>12.80000019073486328125</AltitudeMeters>
            <DistanceMeters>NAN</DistanceMeters>
          </Trackpoint>
          <Trackpoint>
            <Time>2022-07-12T15:50:15.000Z</Time>
            <Position>
              <LatitudeDegrees>43.350191675126552581787109375</LatitudeDegrees>
              <LongitudeDegrees>-3.13023607246577739715576171875</LongitudeDegrees>
            </Position>
            <AltitudeMeters>13</AltitudeMeters>
            <DistanceMeters>NAN</DistanceMeters>
          </Trackpoint>
          <Trackpoint>
            <Time>2022-07-12T15:50:18.000Z</Time>
            <Position>
              <LatitudeDegrees>43.35018320940434932708740234375</LatitudeDegrees>
              <LongitudeDegrees>-3.1302926503121852874755859375</LongitudeDegrees>
            </Position>
            <AltitudeMeters>13.6000003814697265625</AltitudeMeters>
            <DistanceMeters>NAN</DistanceMeters>
          </Trackpoint>
          <Trackpoint>
            <Time>2022-07-12T15:50:20.000Z</Time>
            <Position>
              <LatitudeDegrees>43.35018203593790531158447265625</LatitudeDegrees>
              <LongitudeDegrees>-3.13032978214323520660400390625</LongitudeDegrees>
            </Position>
            <AltitudeMeters>14.19999980926513671875</AltitudeMeters>
            <DistanceMeters>NAN</DistanceMeters>
          </Trackpoint>
          <Trackpoint>
            <Time>2022-07-12T15:50:21.000Z</Time>
            <Position>
              <LatitudeDegrees>43.35018404759466648101806640625</LatitudeDegrees>
              <LongitudeDegrees>-3.13034554012119770050048828125</LongitudeDegrees>
            </Position>
            <AltitudeMeters>14.3999996185302734375</AltitudeMeters>
            <DistanceMeters>NAN</DistanceMeters>
          </Trackpoint>
          <Trackpoint>
            <Time>2022-07-12T15:50:22.000Z</Time>
            <Position>
              <LatitudeDegrees>43.35018723271787166595458984375</LatitudeDegrees>
              <LongitudeDegrees>-3.13036330975592136383056640625</LongitudeDegrees>
            </Position>
            <AltitudeMeters>14.6000003814697265625</AltitudeMeters>
            <DistanceMeters>NAN</DistanceMeters>
          </Trackpoint>
          <Trackpoint>
            <Time>2022-07-12T15:50:24.000Z</Time>
            <Position>
              <LatitudeDegrees>43.3501898311078548431396484375</LatitudeDegrees>
              <LongitudeDegrees>-3.130387701094150543212890625</LongitudeDegrees>
            </Position>
            <AltitudeMeters>15.19999980926513671875</AltitudeMeters>
            <DistanceMeters>NAN</DistanceMeters>
          </Trackpoint>
          <Trackpoint>
            <Time>2022-07-12T15:50:25.000Z</Time>
            <Position>
              <LatitudeDegrees>43.35019393824040889739990234375</LatitudeDegrees>
              <LongitudeDegrees>-3.130395747721195220947265625</LongitudeDegrees>
            </Position>
            <AltitudeMeters>15.19999980926513671875</AltitudeMeters>
            <DistanceMeters>NAN</DistanceMeters>
          </Trackpoint>
          <Trackpoint>
            <Time>2022-07-12T15:50:26.000Z</Time>
            <Position>
              <LatitudeDegrees>43.35019410587847232818603515625</LatitudeDegrees>
              <LongitudeDegrees>-3.130403459072113037109375</LongitudeDegrees>
            </Position>
            <AltitudeMeters>15.6000003814697265625</AltitudeMeters>
            <DistanceMeters>NAN</DistanceMeters>
          </Trackpoint>
          <Trackpoint>
            <Time>2022-07-12T15:50:30.000Z</Time>
            <Position>
              <LatitudeDegrees>43.35019879974424839019775390625</LatitudeDegrees>
              <LongitudeDegrees>-3.1304633058607578277587890625</LongitudeDegrees>
            </Position>
            <AltitudeMeters>16.3999996185302734375</AltitudeMeters>
            <DistanceMeters>NAN</DistanceMeters>
          </Trackpoint>
          <Trackpoint>
            <Time>2022-07-12T15:50:34.000Z</Time>
            <Position>
              <LatitudeDegrees>43.3501874841749668121337890625</LatitudeDegrees>
              <LongitudeDegrees>-3.1305363960564136505126953125</LongitudeDegrees>
            </Position>
            <AltitudeMeters>17.3999996185302734375</AltitudeMeters>
            <DistanceMeters>NAN</DistanceMeters>
          </Trackpoint>
          <Trackpoint>
            <Time>2022-07-12T15:50:35.000Z</Time>
            <Position>
              <LatitudeDegrees>43.35018589161336421966552734375</LatitudeDegrees>
              <LongitudeDegrees>-3.130549304187297821044921875</LongitudeDegrees>
            </Position>
            <AltitudeMeters>17.6000003814697265625</AltitudeMeters>
            <DistanceMeters>NAN</DistanceMeters>
          </Trackpoint>
          <Trackpoint>
            <Time>2022-07-12T15:50:41.000Z</Time>
            <Position>
              <LatitudeDegrees>43.35018203593790531158447265625</LatitudeDegrees>
              <LongitudeDegrees>-3.1306302733719348907470703125</LongitudeDegrees>
            </Position>
            <AltitudeMeters>18.3999996185302734375</AltitudeMeters>
            <DistanceMeters>NAN</DistanceMeters>
          </Trackpoint>
          <Trackpoint>
            <Time>2022-07-12T15:50:44.000Z</Time>
            <Position>
              <LatitudeDegrees>43.35017533041536808013916015625</LatitudeDegrees>
              <LongitudeDegrees>-3.1306708417832851409912109375</LongitudeDegrees>
            </Position>
            <AltitudeMeters>18.799999237060546875</AltitudeMeters>
            <DistanceMeters>NAN</DistanceMeters>
          </Trackpoint>
          <Trackpoint>
            <Time>2022-07-12T15:50:50.000Z</Time>
            <Position>
              <LatitudeDegrees>43.35016678087413311004638671875</LatitudeDegrees>
              <LongitudeDegrees>-3.1307251565158367156982421875</LongitudeDegrees>
            </Position>
            <AltitudeMeters>19</AltitudeMeters>
            <DistanceMeters>NAN</DistanceMeters>
          </Trackpoint>
          <Trackpoint>
            <Time>2022-07-12T15:51:11.000Z</Time>
            <Position>
              <LatitudeDegrees>43.3501569740474224090576171875</LatitudeDegrees>
              <LongitudeDegrees>-3.13080721534788608551025390625</LongitudeDegrees>
            </Position>
            <AltitudeMeters>19.3999996185302734375</AltitudeMeters>
            <DistanceMeters>NAN</DistanceMeters>
          </Trackpoint>
          <Trackpoint>
            <Time>2022-07-12T15:51:16.000Z</Time>
            <Position>
              <LatitudeDegrees>43.350150100886821746826171875</LatitudeDegrees>
              <LongitudeDegrees>-3.13091450370848178863525390625</LongitudeDegrees>
            </Position>
            <AltitudeMeters>20</AltitudeMeters>
            <DistanceMeters>NAN</DistanceMeters>
          </Trackpoint>
          <Trackpoint>
            <Time>2022-07-12T15:51:18.000Z</Time>
            <Position>
              <LatitudeDegrees>43.35015404038131237030029296875</LatitudeDegrees>
              <LongitudeDegrees>-3.130954988300800323486328125</LongitudeDegrees>
            </Position>
            <AltitudeMeters>20.3999996185302734375</AltitudeMeters>
            <DistanceMeters>NAN</DistanceMeters>
          </Trackpoint>
          <Trackpoint>
            <Time>2022-07-12T15:51:19.000Z</Time>
            <Position>
              <LatitudeDegrees>43.350158818066120147705078125</LatitudeDegrees>
              <LongitudeDegrees>-3.13096596859395503997802734375</LongitudeDegrees>
            </Position>
            <AltitudeMeters>20.3999996185302734375</AltitudeMeters>
            <DistanceMeters>NAN</DistanceMeters>
          </Trackpoint>
          <Trackpoint>
            <Time>2022-07-12T15:51:23.000Z</Time>
            <Position>
              <LatitudeDegrees>43.3501853048801422119140625</LatitudeDegrees>
              <LongitudeDegrees>-3.13104542903602123260498046875</LongitudeDegrees>
            </Position>
            <AltitudeMeters>20.799999237060546875</AltitudeMeters>
            <DistanceMeters>NAN</DistanceMeters>
          </Trackpoint>
          <Trackpoint>
            <Time>2022-07-12T15:51:24.000Z</Time>
            <Position>
              <LatitudeDegrees>43.35018991492688655853271484375</LatitudeDegrees>
              <LongitudeDegrees>-3.13106336630880832672119140625</LongitudeDegrees>
            </Position>
            <AltitudeMeters>21</AltitudeMeters>
            <DistanceMeters>NAN</DistanceMeters>
          </Trackpoint>
          <Trackpoint>
            <Time>2022-07-12T15:51:27.000Z</Time>
            <Position>
              <LatitudeDegrees>43.350193016231060028076171875</LatitudeDegrees>
              <LongitudeDegrees>-3.13111550174653530120849609375</LongitudeDegrees>
            </Position>
            <AltitudeMeters>21.200000762939453125</AltitudeMeters>
            <DistanceMeters>NAN</DistanceMeters>
          </Trackpoint>
          <Trackpoint>
            <Time>2022-07-12T15:51:29.000Z</Time>
            <Position>
              <LatitudeDegrees>43.35019133985042572021484375</LatitudeDegrees>
              <LongitudeDegrees>-3.13115456141531467437744140625</LongitudeDegrees>
            </Position>
            <AltitudeMeters>21.3999996185302734375</AltitudeMeters>
            <DistanceMeters>NAN</DistanceMeters>
          </Trackpoint>
          <Trackpoint>
            <Time>2022-07-12T15:51:34.000Z</Time>
            <Position>
              <LatitudeDegrees>43.35019276477396488189697265625</LatitudeDegrees>
              <LongitudeDegrees>-3.1312555633485317230224609375</LongitudeDegrees>
            </Position>
            <AltitudeMeters>21.6000003814697265625</AltitudeMeters>
            <DistanceMeters>NAN</DistanceMeters>
          </Trackpoint>
          <Trackpoint>
            <Time>2022-07-12T15:51:35.000Z</Time>
            <Position>
              <LatitudeDegrees>43.3501945249736309051513671875</LatitudeDegrees>
              <LongitudeDegrees>-3.13128096051514148712158203125</LongitudeDegrees>
            </Position>
            <AltitudeMeters>21.6000003814697265625</AltitudeMeters>
            <DistanceMeters>NAN</DistanceMeters>
          </Trackpoint>
          <Trackpoint>
            <Time>2022-07-12T15:51:43.000Z</Time>
            <Position>
              <LatitudeDegrees>43.3502190001308917999267578125</LatitudeDegrees>
              <LongitudeDegrees>-3.13146435655653476715087890625</LongitudeDegrees>
            </Position>
            <AltitudeMeters>21.6000003814697265625</AltitudeMeters>
            <DistanceMeters>NAN</DistanceMeters>
          </Trackpoint>
          <Trackpoint>
            <Time>2022-07-12T15:51:47.000Z</Time>
            <Position>
              <LatitudeDegrees>43.35022981278598308563232421875</LatitudeDegrees>
              <LongitudeDegrees>-3.13154750503599643707275390625</LongitudeDegrees>
            </Position>
            <AltitudeMeters>22</AltitudeMeters>
            <DistanceMeters>NAN</DistanceMeters>
          </Trackpoint>
          <Trackpoint>
            <Time>2022-07-12T15:51:51.000Z</Time>
            <Position>
              <LatitudeDegrees>43.35023668594658374786376953125</LatitudeDegrees>
              <LongitudeDegrees>-3.13162051141262054443359375</LongitudeDegrees>
            </Position>
            <AltitudeMeters>22</AltitudeMeters>
            <DistanceMeters>NAN</DistanceMeters>
          </Trackpoint>
          <Trackpoint>
            <Time>2022-07-12T15:51:53.000Z</Time>
            <Position>
              <LatitudeDegrees>43.35023718886077404022216796875</LatitudeDegrees>
              <LongitudeDegrees>-3.13164532184600830078125</LongitudeDegrees>
            </Position>
            <AltitudeMeters>22</AltitudeMeters>
            <DistanceMeters>NAN</DistanceMeters>
          </Trackpoint>
          <Trackpoint>
            <Time>2022-07-12T15:51:55.000Z</Time>
            <Position>
              <LatitudeDegrees>43.35023568011820316314697265625</LatitudeDegrees>
              <LongitudeDegrees>-3.131649680435657501220703125</LongitudeDegrees>
            </Position>
            <AltitudeMeters>22</AltitudeMeters>
            <DistanceMeters>NAN</DistanceMeters>
          </Trackpoint>
          <Trackpoint>
            <Time>2022-07-12T15:52:07.000Z</Time>
            <Position>
              <LatitudeDegrees>43.35023936815559864044189453125</LatitudeDegrees>
              <LongitudeDegrees>-3.13179041258990764617919921875</LongitudeDegrees>
            </Position>
            <AltitudeMeters>22.200000762939453125</AltitudeMeters>
            <DistanceMeters>NAN</DistanceMeters>
          </Trackpoint>
          <Trackpoint>
            <Time>2022-07-12T15:52:08.000Z</Time>
            <Position>
              <LatitudeDegrees>43.35024020634591579437255859375</LatitudeDegrees>
              <LongitudeDegrees>-3.13180315308272838592529296875</LongitudeDegrees>
            </Position>
            <AltitudeMeters>22.200000762939453125</AltitudeMeters>
            <DistanceMeters>NAN</DistanceMeters>
          </Trackpoint>
          <Trackpoint>
            <Time>2022-07-12T15:52:10.000Z</Time>
            <Position>
              <LatitudeDegrees>43.35023559629917144775390625</LatitudeDegrees>
              <LongitudeDegrees>-3.131852187216281890869140625</LongitudeDegrees>
            </Position>
            <AltitudeMeters>22.3999996185302734375</AltitudeMeters>
            <DistanceMeters>NAN</DistanceMeters>
          </Trackpoint>
          <Trackpoint>
            <Time>2022-07-12T15:52:12.000Z</Time>
            <Position>
              <LatitudeDegrees>43.35023718886077404022216796875</LatitudeDegrees>
              <LongitudeDegrees>-3.131896443665027618408203125</LongitudeDegrees>
            </Position>
            <AltitudeMeters>22.6000003814697265625</AltitudeMeters>
            <DistanceMeters>NAN</DistanceMeters>
          </Trackpoint>
          <Trackpoint>
            <Time>2022-07-12T15:52:15.000Z</Time>
            <Position>
              <LatitudeDegrees>43.3502431400120258331298828125</LatitudeDegrees>
              <LongitudeDegrees>-3.13195553608238697052001953125</LongitudeDegrees>
            </Position>
            <AltitudeMeters>22.6000003814697265625</AltitudeMeters>
            <DistanceMeters>NAN</DistanceMeters>
          </Trackpoint>
          <Trackpoint>
            <Time>2022-07-12T15:52:16.000Z</Time>
            <Position>
              <LatitudeDegrees>43.3502458222210407257080078125</LatitudeDegrees>
              <LongitudeDegrees>-3.13197263516485691070556640625</LongitudeDegrees>
            </Position>
            <AltitudeMeters>22.799999237060546875</AltitudeMeters>
            <DistanceMeters>NAN</DistanceMeters>
          </Trackpoint>
          <Trackpoint>
            <Time>2022-07-12T15:52:20.000Z</Time>
            <Position>
              <LatitudeDegrees>43.35023886524140834808349609375</LatitudeDegrees>
              <LongitudeDegrees>-3.13202376477420330047607421875</LongitudeDegrees>
            </Position>
            <AltitudeMeters>22.799999237060546875</AltitudeMeters>
            <DistanceMeters>NAN</DistanceMeters>
          </Trackpoint>
          <Trackpoint>
            <Time>2022-07-12T15:52:22.000Z</Time>
            <Position>
              <LatitudeDegrees>43.3502347581088542938232421875</LatitudeDegrees>
              <LongitudeDegrees>-3.13206835649907588958740234375</LongitudeDegrees>
            </Position>
            <AltitudeMeters>22.799999237060546875</AltitudeMeters>
            <DistanceMeters>NAN</DistanceMeters>
          </Trackpoint>
          <Trackpoint>
            <Time>2022-07-12T15:52:27.000Z</Time>
            <Position>
              <LatitudeDegrees>43.3502303995192050933837890625</LatitudeDegrees>
              <LongitudeDegrees>-3.13218939118087291717529296875</LongitudeDegrees>
            </Position>
            <AltitudeMeters>22.6000003814697265625</AltitudeMeters>
            <DistanceMeters>NAN</DistanceMeters>
          </Trackpoint>
          <Trackpoint>
            <Time>2022-07-12T15:52:29.000Z</Time>
            <Position>
              <LatitudeDegrees>43.3502416312694549560546875</LatitudeDegrees>
              <LongitudeDegrees>-3.1322432868182659149169921875</LongitudeDegrees>
            </Position>
            <AltitudeMeters>22.3999996185302734375</AltitudeMeters>
            <DistanceMeters>NAN</DistanceMeters>
          </Trackpoint>
          <Trackpoint>
            <Time>2022-07-12T15:52:31.000Z</Time>
            <Position>
              <LatitudeDegrees>43.35024758242070674896240234375</LatitudeDegrees>
              <LongitudeDegrees>-3.13229550607502460479736328125</LongitudeDegrees>
            </Position>
            <AltitudeMeters>22.3999996185302734375</AltitudeMeters>
            <DistanceMeters>NAN</DistanceMeters>
          </Trackpoint>
          <Trackpoint>
            <Time>2022-07-12T15:52:34.000Z</Time>
            <Position>
              <LatitudeDegrees>43.35024674423038959503173828125</LatitudeDegrees>
              <LongitudeDegrees>-3.132375217974185943603515625</LongitudeDegrees>
            </Position>
            <AltitudeMeters>22.799999237060546875</AltitudeMeters>
            <DistanceMeters>NAN</DistanceMeters>
          </Trackpoint>
          <Trackpoint>
            <Time>2022-07-12T15:52:36.000Z</Time>
            <Position>
              <LatitudeDegrees>43.35025026462972164154052734375</LatitudeDegrees>
              <LongitudeDegrees>-3.13246079720556735992431640625</LongitudeDegrees>
            </Position>
            <AltitudeMeters>22.799999237060546875</AltitudeMeters>
            <DistanceMeters>NAN</DistanceMeters>
          </Trackpoint>
          <Trackpoint>
            <Time>2022-07-12T15:52:41.000Z</Time>
            <Position>
              <LatitudeDegrees>43.350249342620372772216796875</LatitudeDegrees>
              <LongitudeDegrees>-3.13262625597417354583740234375</LongitudeDegrees>
            </Position>
            <AltitudeMeters>22.799999237060546875</AltitudeMeters>
            <DistanceMeters>NAN</DistanceMeters>
          </Trackpoint>
          <Trackpoint>
            <Time>2022-07-12T15:52:42.000Z</Time>
            <Position>
              <LatitudeDegrees>43.35025294683873653411865234375</LatitudeDegrees>
              <LongitudeDegrees>-3.13266313634812831878662109375</LongitudeDegrees>
            </Position>
            <AltitudeMeters>23</AltitudeMeters>
            <DistanceMeters>NAN</DistanceMeters>
          </Trackpoint>
          <Trackpoint>
            <Time>2022-07-12T15:52:45.000Z</Time>
            <Position>
              <LatitudeDegrees>43.3502496778964996337890625</LatitudeDegrees>
              <LongitudeDegrees>-3.1327570974826812744140625</LongitudeDegrees>
            </Position>
            <AltitudeMeters>23</AltitudeMeters>
            <DistanceMeters>NAN</DistanceMeters>
          </Trackpoint>
          <Trackpoint>
            <Time>2022-07-12T15:52:48.000Z</Time>
            <Position>
              <LatitudeDegrees>43.35024238564074039459228515625</LatitudeDegrees>
              <LongitudeDegrees>-3.1328313611447811126708984375</LongitudeDegrees>
            </Position>
            <AltitudeMeters>23</AltitudeMeters>
            <DistanceMeters>NAN</DistanceMeters>
          </Trackpoint>
          <Trackpoint>
            <Time>2022-07-12T15:52:52.000Z</Time>
            <Position>
              <LatitudeDegrees>43.35022260434925556182861328125</LatitudeDegrees>
              <LongitudeDegrees>-3.13297192566096782684326171875</LongitudeDegrees>
            </Position>
            <AltitudeMeters>23.200000762939453125</AltitudeMeters>
            <DistanceMeters>NAN</DistanceMeters>
          </Trackpoint>
          <Trackpoint>
            <Time>2022-07-12T15:52:55.000Z</Time>
            <Position>
              <LatitudeDegrees>43.3502169884741306304931640625</LatitudeDegrees>
              <LongitudeDegrees>-3.133035711944103240966796875</LongitudeDegrees>
            </Position>
            <AltitudeMeters>23.6000003814697265625</AltitudeMeters>
            <DistanceMeters>NAN</DistanceMeters>
          </Trackpoint>
          <Trackpoint>
            <Time>2022-07-12T15:53:02.000Z</Time>
            <Position>
              <LatitudeDegrees>43.3502283878624439239501953125</LatitudeDegrees>
              <LongitudeDegrees>-3.13316672109067440032958984375</LongitudeDegrees>
            </Position>
            <AltitudeMeters>24.6000003814697265625</AltitudeMeters>
            <DistanceMeters>NAN</DistanceMeters>
          </Trackpoint>
          <Trackpoint>
            <Time>2022-07-12T15:53:03.000Z</Time>
            <Position>
              <LatitudeDegrees>43.3502270467579364776611328125</LatitudeDegrees>
              <LongitudeDegrees>-3.133185245096683502197265625</LongitudeDegrees>
            </Position>
            <AltitudeMeters>24.6000003814697265625</AltitudeMeters>
            <DistanceMeters>NAN</DistanceMeters>
          </Trackpoint>
          <Trackpoint>
            <Time>2022-07-12T15:53:08.000Z</Time>
            <Position>
              <LatitudeDegrees>43.3502119593322277069091796875</LatitudeDegrees>
              <LongitudeDegrees>-3.13326344825327396392822265625</LongitudeDegrees>
            </Position>
            <AltitudeMeters>25.6000003814697265625</AltitudeMeters>
            <DistanceMeters>NAN</DistanceMeters>
          </Trackpoint>
          <Trackpoint>
            <Time>2022-07-12T15:53:11.000Z</Time>
            <Position>
              <LatitudeDegrees>43.35020952858030796051025390625</LatitudeDegrees>
              <LongitudeDegrees>-3.1333148293197154998779296875</LongitudeDegrees>
            </Position>
            <AltitudeMeters>26.200000762939453125</AltitudeMeters>
            <DistanceMeters>NAN</DistanceMeters>
          </Trackpoint>
          <Trackpoint>
            <Time>2022-07-12T15:53:14.000Z</Time>
            <Position>
              <LatitudeDegrees>43.3501918427646160125732421875</LatitudeDegrees>
              <LongitudeDegrees>-3.133372999727725982666015625</LongitudeDegrees>
            </Position>
            <AltitudeMeters>26.799999237060546875</AltitudeMeters>
            <DistanceMeters>NAN</DistanceMeters>
          </Trackpoint>
          <Trackpoint>
            <Time>2022-07-12T15:53:18.000Z</Time>
            <Position>
              <LatitudeDegrees>43.3501750789582729339599609375</LatitudeDegrees>
              <LongitudeDegrees>-3.13344667665660381317138671875</LongitudeDegrees>
            </Position>
            <AltitudeMeters>27.6000003814697265625</AltitudeMeters>
            <DistanceMeters>NAN</DistanceMeters>
          </Trackpoint>
          <Trackpoint>
            <Time>2022-07-12T15:53:19.000Z</Time>
            <Position>
              <LatitudeDegrees>43.35016661323606967926025390625</LatitudeDegrees>
              <LongitudeDegrees>-3.1334653683006763458251953125</LongitudeDegrees>
            </Position>
            <AltitudeMeters>27.799999237060546875</AltitudeMeters>
            <DistanceMeters>NAN</DistanceMeters>
          </Trackpoint>
          <Trackpoint>
            <Time>2022-07-12T15:53:20.000Z</Time>
            <Position>
              <LatitudeDegrees>43.35015923716127872467041015625</LatitudeDegrees>
              <LongitudeDegrees>-3.133488334715366363525390625</LongitudeDegrees>
            </Position>
            <AltitudeMeters>28</AltitudeMeters>
            <DistanceMeters>NAN</DistanceMeters>
          </Trackpoint>
          <Trackpoint>
            <Time>2022-07-12T15:53:23.000Z</Time>
            <Position>
              <LatitudeDegrees>43.3501517772674560546875</LatitudeDegrees>
              <LongitudeDegrees>-3.13354767858982086181640625</LongitudeDegrees>
            </Position>
            <AltitudeMeters>28.200000762939453125</AltitudeMeters>
            <DistanceMeters>NAN</DistanceMeters>
          </Trackpoint>
          <Trackpoint>
            <Time>2022-07-12T15:53:24.000Z</Time>
            <Position>
              <LatitudeDegrees>43.35014934651553630828857421875</LatitudeDegrees>
              <LongitudeDegrees>-3.13357022590935230255126953125</LongitudeDegrees>
            </Position>
            <AltitudeMeters>28.3999996185302734375</AltitudeMeters>
            <DistanceMeters>NAN</DistanceMeters>
          </Trackpoint>
          <Trackpoint>
            <Time>2022-07-12T15:53:25.000Z</Time>
            <Position>
              <LatitudeDegrees>43.35014649666845798492431640625</LatitudeDegrees>
              <LongitudeDegrees>-3.13359352760016918182373046875</LongitudeDegrees>
            </Position>
            <AltitudeMeters>28.799999237060546875</AltitudeMeters>
            <DistanceMeters>NAN</DistanceMeters>
          </Trackpoint>
          <Trackpoint>
            <Time>2022-07-12T15:53:27.000Z</Time>
            <Position>
              <LatitudeDegrees>43.35014280863106250762939453125</LatitudeDegrees>
              <LongitudeDegrees>-3.13363627530634403228759765625</LongitudeDegrees>
            </Position>
            <AltitudeMeters>29.200000762939453125</AltitudeMeters>
            <DistanceMeters>NAN</DistanceMeters>
          </Trackpoint>
          <Trackpoint>
            <Time>2022-07-12T15:53:30.000Z</Time>
            <Position>
              <LatitudeDegrees>43.3501408807933330535888671875</LatitudeDegrees>
              <LongitudeDegrees>-3.13369176350533962249755859375</LongitudeDegrees>
            </Position>
            <AltitudeMeters>30</AltitudeMeters>
            <DistanceMeters>NAN</DistanceMeters>
          </Trackpoint>
          <Trackpoint>
            <Time>2022-07-12T15:53:31.000Z</Time>
            <Position>
              <LatitudeDegrees>43.35013308562338352203369140625</LatitudeDegrees>
              <LongitudeDegrees>-3.133710287511348724365234375</LongitudeDegrees>
            </Position>
            <AltitudeMeters>30.200000762939453125</AltitudeMeters>
            <DistanceMeters>NAN</DistanceMeters>
          </Trackpoint>
          <Trackpoint>
            <Time>2022-07-12T15:53:32.000Z</Time>
            <Position>
              <LatitudeDegrees>43.35012671537697315216064453125</LatitudeDegrees>
              <LongitudeDegrees>-3.13371665775775909423828125</LongitudeDegrees>
            </Position>
            <AltitudeMeters>30.200000762939453125</AltitudeMeters>
            <DistanceMeters>NAN</DistanceMeters>
          </Trackpoint>
          <Trackpoint>
            <Time>2022-07-12T15:53:39.000Z</Time>
            <Position>
              <LatitudeDegrees>43.35006569512188434600830078125</LatitudeDegrees>
              <LongitudeDegrees>-3.1338348425924777984619140625</LongitudeDegrees>
            </Position>
            <AltitudeMeters>31.200000762939453125</AltitudeMeters>
            <DistanceMeters>NAN</DistanceMeters>
          </Trackpoint>
          <Trackpoint>
            <Time>2022-07-12T15:53:45.000Z</Time>
            <Position>
              <LatitudeDegrees>43.35005681030452251434326171875</LatitudeDegrees>
              <LongitudeDegrees>-3.13397817313671112060546875</LongitudeDegrees>
            </Position>
            <AltitudeMeters>31</AltitudeMeters>
            <DistanceMeters>NAN</DistanceMeters>
          </Trackpoint>
          <Trackpoint>
            <Time>2022-07-12T15:53:50.000Z</Time>
            <Position>
              <LatitudeDegrees>43.35007189773023128509521484375</LatitudeDegrees>
              <LongitudeDegrees>-3.13417070545256137847900390625</LongitudeDegrees>
            </Position>
            <AltitudeMeters>31</AltitudeMeters>
            <DistanceMeters>NAN</DistanceMeters>
          </Trackpoint>
          <Trackpoint>
            <Time>2022-07-12T15:53:52.000Z</Time>
            <Position>
              <LatitudeDegrees>43.35005345754325389862060546875</LatitudeDegrees>
              <LongitudeDegrees>-3.1342468969523906707763671875</LongitudeDegrees>
            </Position>
            <AltitudeMeters>31</AltitudeMeters>
            <DistanceMeters>NAN</DistanceMeters>
          </Trackpoint>
          <Trackpoint>
            <Time>2022-07-12T15:53:55.000Z</Time>
            <Position>
              <LatitudeDegrees>43.35003602318465709686279296875</LatitudeDegrees>
              <LongitudeDegrees>-3.13435577787458896636962890625</LongitudeDegrees>
            </Position>
            <AltitudeMeters>31.200000762939453125</AltitudeMeters>
            <DistanceMeters>NAN</DistanceMeters>
          </Trackpoint>
          <Trackpoint>
            <Time>2022-07-12T15:53:56.000Z</Time>
            <Position>
              <LatitudeDegrees>43.350026719272136688232421875</LatitudeDegrees>
              <LongitudeDegrees>-3.13439123332500457763671875</LongitudeDegrees>
            </Position>
            <AltitudeMeters>31.3999996185302734375</AltitudeMeters>
            <DistanceMeters>NAN</DistanceMeters>
          </Trackpoint>
          <Trackpoint>
            <Time>2022-07-12T15:54:02.000Z</Time>
            <Position>
              <LatitudeDegrees>43.34998137317597866058349609375</LatitudeDegrees>
              <LongitudeDegrees>-3.134589381515979766845703125</LongitudeDegrees>
            </Position>
            <AltitudeMeters>32.200000762939453125</AltitudeMeters>
            <DistanceMeters>NAN</DistanceMeters>
          </Trackpoint>
          <Trackpoint>
            <Time>2022-07-12T15:54:04.000Z</Time>
            <Position>
              <LatitudeDegrees>43.349971063435077667236328125</LatitudeDegrees>
              <LongitudeDegrees>-3.13465350307524204254150390625</LongitudeDegrees>
            </Position>
            <AltitudeMeters>32.59999847412109375</AltitudeMeters>
            <DistanceMeters>NAN</DistanceMeters>
          </Trackpoint>
          <Trackpoint>
            <Time>2022-07-12T15:54:10.000Z</Time>
            <Position>
              <LatitudeDegrees>43.3499393798410892486572265625</LatitudeDegrees>
              <LongitudeDegrees>-3.13482684083282947540283203125</LongitudeDegrees>
            </Position>
            <AltitudeMeters>32.59999847412109375</AltitudeMeters>
            <DistanceMeters>NAN</DistanceMeters>
          </Trackpoint>
          <Trackpoint>
            <Time>2022-07-12T15:54:12.000Z</Time>
            <Position>
              <LatitudeDegrees>43.34992940537631511688232421875</LatitudeDegrees>
              <LongitudeDegrees>-3.13487964682281017303466796875</LongitudeDegrees>
            </Position>
            <AltitudeMeters>30</AltitudeMeters>
            <DistanceMeters>NAN</DistanceMeters>
          </Trackpoint>
          <Trackpoint>
            <Time>2022-07-12T15:54:13.000Z</Time>
            <Position>
              <LatitudeDegrees>43.349926471710205078125</LatitudeDegrees>
              <LongitudeDegrees>-3.134905882179737091064453125</LongitudeDegrees>
            </Position>
            <AltitudeMeters>28.799999237060546875</AltitudeMeters>
            <DistanceMeters>NAN</DistanceMeters>
          </Trackpoint>
          <Trackpoint>
            <Time>2022-07-12T15:54:14.000Z</Time>
            <Position>
              <LatitudeDegrees>43.349928818643093109130859375</LatitudeDegrees>
              <LongitudeDegrees>-3.1349342130124568939208984375</LongitudeDegrees>
            </Position>
            <AltitudeMeters>28</AltitudeMeters>
            <DistanceMeters>NAN</DistanceMeters>
          </Trackpoint>
          <Trackpoint>
            <Time>2022-07-12T15:54:15.000Z</Time>
            <Position>
              <LatitudeDegrees>43.34993250668048858642578125</LatitudeDegrees>
              <LongitudeDegrees>-3.134959526360034942626953125</LongitudeDegrees>
            </Position>
            <AltitudeMeters>27.3999996185302734375</AltitudeMeters>
            <DistanceMeters>NAN</DistanceMeters>
          </Trackpoint>
          <Trackpoint>
            <Time>2022-07-12T15:54:16.000Z</Time>
            <Position>
              <LatitudeDegrees>43.3499330095946788787841796875</LatitudeDegrees>
              <LongitudeDegrees>-3.13499364070594310760498046875</LongitudeDegrees>
            </Position>
            <AltitudeMeters>27.200000762939453125</AltitudeMeters>
            <DistanceMeters>NAN</DistanceMeters>
          </Trackpoint>
          <Trackpoint>
            <Time>2022-07-12T15:54:22.000Z</Time>
            <Position>
              <LatitudeDegrees>43.34989705123007297515869140625</LatitudeDegrees>
              <LongitudeDegrees>-3.13518675975501537322998046875</LongitudeDegrees>
            </Position>
            <AltitudeMeters>27.200000762939453125</AltitudeMeters>
            <DistanceMeters>NAN</DistanceMeters>
          </Trackpoint>
          <Trackpoint>
            <Time>2022-07-12T15:54:29.000Z</Time>
            <Position>
              <LatitudeDegrees>43.3498820476233959197998046875</LatitudeDegrees>
              <LongitudeDegrees>-3.135420866310596466064453125</LongitudeDegrees>
            </Position>
            <AltitudeMeters>27.3999996185302734375</AltitudeMeters>
            <DistanceMeters>NAN</DistanceMeters>
          </Trackpoint>
          <Trackpoint>
            <Time>2022-07-12T15:54:33.000Z</Time>
            <Position>
              <LatitudeDegrees>43.34987081587314605712890625</LatitudeDegrees>
              <LongitudeDegrees>-3.13556671142578125</LongitudeDegrees>
            </Position>
            <AltitudeMeters>27.6000003814697265625</AltitudeMeters>
            <DistanceMeters>NAN</DistanceMeters>
          </Trackpoint>
          <Trackpoint>
            <Time>2022-07-12T15:54:37.000Z</Time>
            <Position>
              <LatitudeDegrees>43.34985564462840557098388671875</LatitudeDegrees>
              <LongitudeDegrees>-3.13570325262844562530517578125</LongitudeDegrees>
            </Position>
            <AltitudeMeters>27.799999237060546875</AltitudeMeters>
            <DistanceMeters>NAN</DistanceMeters>
          </Trackpoint>
          <Trackpoint>
            <Time>2022-07-12T15:54:44.000Z</Time>
            <Position>
              <LatitudeDegrees>43.34985078312456607818603515625</LatitudeDegrees>
              <LongitudeDegrees>-3.135955631732940673828125</LongitudeDegrees>
            </Position>
            <AltitudeMeters>28</AltitudeMeters>
            <DistanceMeters>NAN</DistanceMeters>
          </Trackpoint>
          <Trackpoint>
            <Time>2022-07-12T15:54:49.000Z</Time>
            <Position>
              <LatitudeDegrees>43.34984441287815570831298828125</LatitudeDegrees>
              <LongitudeDegrees>-3.1361076794564723968505859375</LongitudeDegrees>
            </Position>
            <AltitudeMeters>28.3999996185302734375</AltitudeMeters>
            <DistanceMeters>NAN</DistanceMeters>
          </Trackpoint>
          <Trackpoint>
            <Time>2022-07-12T15:54:51.000Z</Time>
            <Position>
              <LatitudeDegrees>43.349840641021728515625</LatitudeDegrees>
              <LongitudeDegrees>-3.13616325147449970245361328125</LongitudeDegrees>
            </Position>
            <AltitudeMeters>28.3999996185302734375</AltitudeMeters>
            <DistanceMeters>NAN</DistanceMeters>
          </Trackpoint>
          <Trackpoint>
            <Time>2022-07-12T15:54:56.000Z</Time>
            <Position>
              <LatitudeDegrees>43.34983200766146183013916015625</LatitudeDegrees>
              <LongitudeDegrees>-3.13629182986915111541748046875</LongitudeDegrees>
            </Position>
            <AltitudeMeters>29.200000762939453125</AltitudeMeters>
            <DistanceMeters>NAN</DistanceMeters>
          </Trackpoint>
          <Trackpoint>
            <Time>2022-07-12T15:54:59.000Z</Time>
            <Position>
              <LatitudeDegrees>43.34983385168015956878662109375</LatitudeDegrees>
              <LongitudeDegrees>-3.13637338578701019287109375</LongitudeDegrees>
            </Position>
            <AltitudeMeters>29.6000003814697265625</AltitudeMeters>
            <DistanceMeters>NAN</DistanceMeters>
          </Trackpoint>
          <Trackpoint>
            <Time>2022-07-12T15:55:02.000Z</Time>
            <Position>
              <LatitudeDegrees>43.34983066655695438385009765625</LatitudeDegrees>
              <LongitudeDegrees>-3.1364493258297443389892578125</LongitudeDegrees>
            </Position>
            <AltitudeMeters>30</AltitudeMeters>
            <DistanceMeters>NAN</DistanceMeters>
          </Trackpoint>
          <Trackpoint>
            <Time>2022-07-12T15:55:07.000Z</Time>
            <Position>
              <LatitudeDegrees>43.34983804263174533843994140625</LatitudeDegrees>
              <LongitudeDegrees>-3.13654236495494842529296875</LongitudeDegrees>
            </Position>
            <AltitudeMeters>30.200000762939453125</AltitudeMeters>
            <DistanceMeters>NAN</DistanceMeters>
          </Trackpoint>
          <Trackpoint>
            <Time>2022-07-12T15:55:08.000Z</Time>
            <Position>
              <LatitudeDegrees>43.34984877146780490875244140625</LatitudeDegrees>
              <LongitudeDegrees>-3.13654144294559955596923828125</LongitudeDegrees>
            </Position>
            <AltitudeMeters>30.200000762939453125</AltitudeMeters>
            <DistanceMeters>NAN</DistanceMeters>
          </Trackpoint>
          <Trackpoint>
            <Time>2022-07-12T15:55:11.000Z</Time>
            <Position>
              <LatitudeDegrees>43.34985564462840557098388671875</LatitudeDegrees>
              <LongitudeDegrees>-3.13651311211287975311279296875</LongitudeDegrees>
            </Position>
            <AltitudeMeters>30.3999996185302734375</AltitudeMeters>
            <DistanceMeters>NAN</DistanceMeters>
          </Trackpoint>
          <Trackpoint>
            <Time>2022-07-12T15:55:13.000Z</Time>
            <Position>
              <LatitudeDegrees>43.34985212422907352447509765625</LatitudeDegrees>
              <LongitudeDegrees>-3.13650690950453281402587890625</LongitudeDegrees>
            </Position>
            <AltitudeMeters>30.200000762939453125</AltitudeMeters>
            <DistanceMeters>NAN</DistanceMeters>
          </Trackpoint>
          <Trackpoint>
            <Time>2022-07-12T15:55:18.000Z</Time>
            <Position>
              <LatitudeDegrees>43.34982027299702167510986328125</LatitudeDegrees>
              <LongitudeDegrees>-3.13651277683675289154052734375</LongitudeDegrees>
            </Position>
            <AltitudeMeters>30.3999996185302734375</AltitudeMeters>
            <DistanceMeters>NAN</DistanceMeters>
          </Trackpoint>
          <Trackpoint>
            <Time>2022-07-12T15:55:22.000Z</Time>
            <Position>
              <LatitudeDegrees>43.3498109690845012664794921875</LatitudeDegrees>
              <LongitudeDegrees>-3.1365247629582881927490234375</LongitudeDegrees>
            </Position>
            <AltitudeMeters>30.6000003814697265625</AltitudeMeters>
            <DistanceMeters>NAN</DistanceMeters>
          </Trackpoint>
          <Trackpoint>
            <Time>2022-07-12T15:55:25.000Z</Time>
            <Position>
              <LatitudeDegrees>43.34981658495962619781494140625</LatitudeDegrees>
              <LongitudeDegrees>-3.13656876794993877410888671875</LongitudeDegrees>
            </Position>
            <AltitudeMeters>30.799999237060546875</AltitudeMeters>
            <DistanceMeters>NAN</DistanceMeters>
          </Trackpoint>
          <Trackpoint>
            <Time>2022-07-12T15:55:26.000Z</Time>
            <Position>
              <LatitudeDegrees>43.3498151600360870361328125</LatitudeDegrees>
              <LongitudeDegrees>-3.13660246320068836212158203125</LongitudeDegrees>
            </Position>
            <AltitudeMeters>30.799999237060546875</AltitudeMeters>
            <DistanceMeters>NAN</DistanceMeters>
          </Trackpoint>
          <Trackpoint>
            <Time>2022-07-12T15:55:32.000Z</Time>
            <Position>
              <LatitudeDegrees>43.34979613311588764190673828125</LatitudeDegrees>
              <LongitudeDegrees>-3.13678904436528682708740234375</LongitudeDegrees>
            </Position>
            <AltitudeMeters>31.3999996185302734375</AltitudeMeters>
            <DistanceMeters>NAN</DistanceMeters>
          </Trackpoint>
          <Trackpoint>
            <Time>2022-07-12T15:55:39.000Z</Time>
            <Position>
              <LatitudeDegrees>43.34971466101706027984619140625</LatitudeDegrees>
              <LongitudeDegrees>-3.136978559195995330810546875</LongitudeDegrees>
            </Position>
            <AltitudeMeters>31.3999996185302734375</AltitudeMeters>
            <DistanceMeters>NAN</DistanceMeters>
          </Trackpoint>
          <Trackpoint>
            <Time>2022-07-12T15:55:47.000Z</Time>
            <Position>
              <LatitudeDegrees>43.34951005876064300537109375</LatitudeDegrees>
              <LongitudeDegrees>-3.13719011843204498291015625</LongitudeDegrees>
            </Position>
            <AltitudeMeters>31</AltitudeMeters>
            <DistanceMeters>NAN</DistanceMeters>
          </Trackpoint>
          <Trackpoint>
            <Time>2022-07-12T15:55:50.000Z</Time>
            <Position>
              <LatitudeDegrees>43.3494170196354389190673828125</LatitudeDegrees>
              <LongitudeDegrees>-3.13728860579431056976318359375</LongitudeDegrees>
            </Position>
            <AltitudeMeters>30.799999237060546875</AltitudeMeters>
            <DistanceMeters>NAN</DistanceMeters>
          </Trackpoint>
          <Trackpoint>
            <Time>2022-07-12T15:55:52.000Z</Time>
            <Position>
              <LatitudeDegrees>43.349364213645458221435546875</LatitudeDegrees>
              <LongitudeDegrees>-3.137346021831035614013671875</LongitudeDegrees>
            </Position>
            <AltitudeMeters>30.6000003814697265625</AltitudeMeters>
            <DistanceMeters>NAN</DistanceMeters>
          </Trackpoint>
          <Trackpoint>
            <Time>2022-07-12T15:55:54.000Z</Time>
            <Position>
              <LatitudeDegrees>43.3493093959987163543701171875</LatitudeDegrees>
              <LongitudeDegrees>-3.13740964047610759735107421875</LongitudeDegrees>
            </Position>
            <AltitudeMeters>30.6000003814697265625</AltitudeMeters>
            <DistanceMeters>NAN</DistanceMeters>
          </Trackpoint>
          <Trackpoint>
            <Time>2022-07-12T15:55:55.000Z</Time>
            <Position>
              <LatitudeDegrees>43.3492835797369480133056640625</LatitudeDegrees>
              <LongitudeDegrees>-3.13743730075657367706298828125</LongitudeDegrees>
            </Position>
            <AltitudeMeters>30.6000003814697265625</AltitudeMeters>
            <DistanceMeters>NAN</DistanceMeters>
          </Trackpoint>
          <Trackpoint>
            <Time>2022-07-12T15:56:04.000Z</Time>
            <Position>
              <LatitudeDegrees>43.34905676543712615966796875</LatitudeDegrees>
              <LongitudeDegrees>-3.13769680447876453399658203125</LongitudeDegrees>
            </Position>
            <AltitudeMeters>31.200000762939453125</AltitudeMeters>
            <DistanceMeters>NAN</DistanceMeters>
          </Trackpoint>
          <Trackpoint>
            <Time>2022-07-12T15:56:08.000Z</Time>
            <Position>
              <LatitudeDegrees>43.349006474018096923828125</LatitudeDegrees>
              <LongitudeDegrees>-3.13778716139495372772216796875</LongitudeDegrees>
            </Position>
            <AltitudeMeters>31.799999237060546875</AltitudeMeters>
            <DistanceMeters>NAN</DistanceMeters>
          </Trackpoint>
          <Trackpoint>
            <Time>2022-07-12T15:56:10.000Z</Time>
            <Position>
              <LatitudeDegrees>43.348980657756328582763671875</LatitudeDegrees>
              <LongitudeDegrees>-3.13782387413084506988525390625</LongitudeDegrees>
            </Position>
            <AltitudeMeters>32</AltitudeMeters>
            <DistanceMeters>NAN</DistanceMeters>
          </Trackpoint>
          <Trackpoint>
            <Time>2022-07-12T15:56:16.000Z</Time>
            <Position>
              <LatitudeDegrees>43.34891284815967082977294921875</LatitudeDegrees>
              <LongitudeDegrees>-3.13793711364269256591796875</LongitudeDegrees>
            </Position>
            <AltitudeMeters>32.799999237060546875</AltitudeMeters>
            <DistanceMeters>NAN</DistanceMeters>
          </Trackpoint>
          <Trackpoint>
            <Time>2022-07-12T15:56:17.000Z</Time>
            <Position>
              <LatitudeDegrees>43.34890278987586498260498046875</LatitudeDegrees>
              <LongitudeDegrees>-3.13795848749577999114990234375</LongitudeDegrees>
            </Position>
            <AltitudeMeters>32.799999237060546875</AltitudeMeters>
            <DistanceMeters>NAN</DistanceMeters>
          </Trackpoint>
          <Trackpoint>
            <Time>2022-07-12T15:56:18.000Z</Time>
            <Position>
              <LatitudeDegrees>43.3488956652581691741943359375</LatitudeDegrees>
              <LongitudeDegrees>-3.1379788555204868316650390625</LongitudeDegrees>
            </Position>
            <AltitudeMeters>33</AltitudeMeters>
            <DistanceMeters>NAN</DistanceMeters>
          </Trackpoint>
          <Trackpoint>
            <Time>2022-07-12T15:56:21.000Z</Time>
            <Position>
              <LatitudeDegrees>43.3488597907125949859619140625</LatitudeDegrees>
              <LongitudeDegrees>-3.138031661510467529296875</LongitudeDegrees>
            </Position>
            <AltitudeMeters>33.40000152587890625</AltitudeMeters>
            <DistanceMeters>NAN</DistanceMeters>
          </Trackpoint>
          <Trackpoint>
            <Time>2022-07-12T15:56:24.000Z</Time>
            <Position>
              <LatitudeDegrees>43.34882567636668682098388671875</LatitudeDegrees>
              <LongitudeDegrees>-3.13807549886405467987060546875</LongitudeDegrees>
            </Position>
            <AltitudeMeters>33.799999237060546875</AltitudeMeters>
            <DistanceMeters>NAN</DistanceMeters>
          </Trackpoint>
          <Trackpoint>
            <Time>2022-07-12T15:56:25.000Z</Time>
            <Position>
              <LatitudeDegrees>43.34881209768354892730712890625</LatitudeDegrees>
              <LongitudeDegrees>-3.1380905024707317352294921875</LongitudeDegrees>
            </Position>
            <AltitudeMeters>34</AltitudeMeters>
            <DistanceMeters>NAN</DistanceMeters>
          </Trackpoint>
          <Trackpoint>
            <Time>2022-07-12T15:56:26.000Z</Time>
            <Position>
              <LatitudeDegrees>43.3488021232187747955322265625</LatitudeDegrees>
              <LongitudeDegrees>-3.13810248859226703643798828125</LongitudeDegrees>
            </Position>
            <AltitudeMeters>34</AltitudeMeters>
            <DistanceMeters>NAN</DistanceMeters>
          </Trackpoint>
          <Trackpoint>
            <Time>2022-07-12T15:56:33.000Z</Time>
            <Position>
              <LatitudeDegrees>43.34871872328221797943115234375</LatitudeDegrees>
              <LongitudeDegrees>-3.13819334842264652252197265625</LongitudeDegrees>
            </Position>
            <AltitudeMeters>34.799999237060546875</AltitudeMeters>
            <DistanceMeters>NAN</DistanceMeters>
          </Trackpoint>
          <Trackpoint>
            <Time>2022-07-12T15:56:34.000Z</Time>
            <Position>
              <LatitudeDegrees>43.34870128892362117767333984375</LatitudeDegrees>
              <LongitudeDegrees>-3.13820667564868927001953125</LongitudeDegrees>
            </Position>
            <AltitudeMeters>35</AltitudeMeters>
            <DistanceMeters>NAN</DistanceMeters>
          </Trackpoint>
          <Trackpoint>
            <Time>2022-07-12T15:56:35.000Z</Time>
            <Position>
              <LatitudeDegrees>43.34868402220308780670166015625</LatitudeDegrees>
              <LongitudeDegrees>-3.1382189132273197174072265625</LongitudeDegrees>
            </Position>
            <AltitudeMeters>35.200000762939453125</AltitudeMeters>
            <DistanceMeters>NAN</DistanceMeters>
          </Trackpoint>
          <Trackpoint>
            <Time>2022-07-12T15:56:39.000Z</Time>
            <Position>
              <LatitudeDegrees>43.34862903691828250885009765625</LatitudeDegrees>
              <LongitudeDegrees>-3.138257972896099090576171875</LongitudeDegrees>
            </Position>
            <AltitudeMeters>35.40000152587890625</AltitudeMeters>
            <DistanceMeters>NAN</DistanceMeters>
          </Trackpoint>
          <Trackpoint>
            <Time>2022-07-12T15:56:44.000Z</Time>
            <Position>
              <LatitudeDegrees>43.3485439606010913848876953125</LatitudeDegrees>
              <LongitudeDegrees>-3.13828823156654834747314453125</LongitudeDegrees>
            </Position>
            <AltitudeMeters>35.799999237060546875</AltitudeMeters>
            <DistanceMeters>NAN</DistanceMeters>
          </Trackpoint>
          <Trackpoint>
            <Time>2022-07-12T15:56:48.000Z</Time>
            <Position>
              <LatitudeDegrees>43.3484805934131145477294921875</LatitudeDegrees>
              <LongitudeDegrees>-3.13830231316387653350830078125</LongitudeDegrees>
            </Position>
            <AltitudeMeters>36</AltitudeMeters>
            <DistanceMeters>NAN</DistanceMeters>
          </Trackpoint>
          <Trackpoint>
            <Time>2022-07-12T15:56:53.000Z</Time>
            <Position>
              <LatitudeDegrees>43.34837137721478939056396484375</LatitudeDegrees>
              <LongitudeDegrees>-3.13832938671112060546875</LongitudeDegrees>
            </Position>
            <AltitudeMeters>36.59999847412109375</AltitudeMeters>
            <DistanceMeters>NAN</DistanceMeters>
          </Trackpoint>
          <Trackpoint>
            <Time>2022-07-12T15:57:01.000Z</Time>
            <Position>
              <LatitudeDegrees>43.34817892871797084808349609375</LatitudeDegrees>
              <LongitudeDegrees>-3.13843290321528911590576171875</LongitudeDegrees>
            </Position>
            <AltitudeMeters>36.59999847412109375</AltitudeMeters>
            <DistanceMeters>NAN</DistanceMeters>
          </Trackpoint>
          <Trackpoint>
            <Time>2022-07-12T15:57:07.000Z</Time>
            <Position>
              <LatitudeDegrees>43.34803073666989803314208984375</LatitudeDegrees>
              <LongitudeDegrees>-3.1385307200253009796142578125</LongitudeDegrees>
            </Position>
            <AltitudeMeters>36.200000762939453125</AltitudeMeters>
            <DistanceMeters>NAN</DistanceMeters>
          </Trackpoint>
          <Trackpoint>
            <Time>2022-07-12T15:57:08.000Z</Time>
            <Position>
              <LatitudeDegrees>43.34800743497908115386962890625</LatitudeDegrees>
              <LongitudeDegrees>-3.13854354433715343475341796875</LongitudeDegrees>
            </Position>
            <AltitudeMeters>36.40000152587890625</AltitudeMeters>
            <DistanceMeters>NAN</DistanceMeters>
          </Trackpoint>
          <Trackpoint>
            <Time>2022-07-12T15:57:11.000Z</Time>
            <Position>
              <LatitudeDegrees>43.347940631210803985595703125</LatitudeDegrees>
              <LongitudeDegrees>-3.13857489265501499176025390625</LongitudeDegrees>
            </Position>
            <AltitudeMeters>36.59999847412109375</AltitudeMeters>
            <DistanceMeters>NAN</DistanceMeters>
          </Trackpoint>
          <Trackpoint>
            <Time>2022-07-12T15:57:16.000Z</Time>
            <Position>
              <LatitudeDegrees>43.34785002283751964569091796875</LatitudeDegrees>
              <LongitudeDegrees>-3.1386336497962474822998046875</LongitudeDegrees>
            </Position>
            <AltitudeMeters>37</AltitudeMeters>
            <DistanceMeters>NAN</DistanceMeters>
          </Trackpoint>
          <Trackpoint>
            <Time>2022-07-12T15:57:21.000Z</Time>
            <Position>
              <LatitudeDegrees>43.3477731607854366302490234375</LatitudeDegrees>
              <LongitudeDegrees>-3.13866399228572845458984375</LongitudeDegrees>
            </Position>
            <AltitudeMeters>37.799999237060546875</AltitudeMeters>
            <DistanceMeters>NAN</DistanceMeters>
          </Trackpoint>
          <Trackpoint>
            <Time>2022-07-12T15:57:22.000Z</Time>
            <Position>
              <LatitudeDegrees>43.34775798954069614410400390625</LatitudeDegrees>
              <LongitudeDegrees>-3.13867195509374141693115234375</LongitudeDegrees>
            </Position>
            <AltitudeMeters>38</AltitudeMeters>
            <DistanceMeters>NAN</DistanceMeters>
          </Trackpoint>
          <Trackpoint>
            <Time>2022-07-12T15:57:27.000Z</Time>
            <Position>
              <LatitudeDegrees>43.3476869948208332061767578125</LatitudeDegrees>
              <LongitudeDegrees>-3.13870900310575962066650390625</LongitudeDegrees>
            </Position>
            <AltitudeMeters>39.200000762939453125</AltitudeMeters>
            <DistanceMeters>NAN</DistanceMeters>
          </Trackpoint>
          <Trackpoint>
            <Time>2022-07-12T15:57:29.000Z</Time>
            <Position>
              <LatitudeDegrees>43.3476559817790985107421875</LatitudeDegrees>
              <LongitudeDegrees>-3.1387255154550075531005859375</LongitudeDegrees>
            </Position>
            <AltitudeMeters>39.59999847412109375</AltitudeMeters>
            <DistanceMeters>NAN</DistanceMeters>
          </Trackpoint>
          <Trackpoint>
            <Time>2022-07-12T15:57:33.000Z</Time>
            <Position>
              <LatitudeDegrees>43.3475877530872821807861328125</LatitudeDegrees>
              <LongitudeDegrees>-3.13873280771076679229736328125</LongitudeDegrees>
            </Position>
            <AltitudeMeters>40</AltitudeMeters>
            <DistanceMeters>NAN</DistanceMeters>
          </Trackpoint>
          <Trackpoint>
            <Time>2022-07-12T15:57:35.000Z</Time>
            <Position>
              <LatitudeDegrees>43.34755699150264263153076171875</LatitudeDegrees>
              <LongitudeDegrees>-3.1387349031865596771240234375</LongitudeDegrees>
            </Position>
            <AltitudeMeters>40.200000762939453125</AltitudeMeters>
            <DistanceMeters>NAN</DistanceMeters>
          </Trackpoint>
          <Trackpoint>
            <Time>2022-07-12T15:57:36.000Z</Time>
            <Position>
              <LatitudeDegrees>43.34754039533436298370361328125</LatitudeDegrees>
              <LongitudeDegrees>-3.1387335620820522308349609375</LongitudeDegrees>
            </Position>
            <AltitudeMeters>40.200000762939453125</AltitudeMeters>
            <DistanceMeters>NAN</DistanceMeters>
          </Trackpoint>
          <Trackpoint>
            <Time>2022-07-12T15:57:40.000Z</Time>
            <Position>
              <LatitudeDegrees>43.34747401066124439239501953125</LatitudeDegrees>
              <LongitudeDegrees>-3.13871570862829685211181640625</LongitudeDegrees>
            </Position>
            <AltitudeMeters>40.59999847412109375</AltitudeMeters>
            <DistanceMeters>NAN</DistanceMeters>
          </Trackpoint>
          <Trackpoint>
            <Time>2022-07-12T15:57:44.000Z</Time>
            <Position>
              <LatitudeDegrees>43.3474207855761051177978515625</LatitudeDegrees>
              <LongitudeDegrees>-3.13866692595183849334716796875</LongitudeDegrees>
            </Position>
            <AltitudeMeters>40.799999237060546875</AltitudeMeters>
            <DistanceMeters>NAN</DistanceMeters>
          </Trackpoint>
          <Trackpoint>
            <Time>2022-07-12T15:57:51.000Z</Time>
            <Position>
              <LatitudeDegrees>43.347301594913005828857421875</LatitudeDegrees>
              <LongitudeDegrees>-3.138564415276050567626953125</LongitudeDegrees>
            </Position>
            <AltitudeMeters>41</AltitudeMeters>
            <DistanceMeters>NAN</DistanceMeters>
          </Trackpoint>
          <Trackpoint>
            <Time>2022-07-12T15:57:55.000Z</Time>
            <Position>
              <LatitudeDegrees>43.34714996628463268280029296875</LatitudeDegrees>
              <LongitudeDegrees>-3.138634152710437774658203125</LongitudeDegrees>
            </Position>
            <AltitudeMeters>40</AltitudeMeters>
            <DistanceMeters>NAN</DistanceMeters>
          </Trackpoint>
          <Trackpoint>
            <Time>2022-07-12T15:57:59.000Z</Time>
            <Position>
              <LatitudeDegrees>43.34696103818714618682861328125</LatitudeDegrees>
              <LongitudeDegrees>-3.13876323401927947998046875</LongitudeDegrees>
            </Position>
            <AltitudeMeters>38.799999237060546875</AltitudeMeters>
            <DistanceMeters>NAN</DistanceMeters>
          </Trackpoint>
          <Trackpoint>
            <Time>2022-07-12T15:58:00.000Z</Time>
            <Position>
              <LatitudeDegrees>43.346907310187816619873046875</LatitudeDegrees>
              <LongitudeDegrees>-3.13879868946969509124755859375</LongitudeDegrees>
            </Position>
            <AltitudeMeters>38.40000152587890625</AltitudeMeters>
            <DistanceMeters>NAN</DistanceMeters>
          </Trackpoint>
          <Trackpoint>
            <Time>2022-07-12T15:58:01.000Z</Time>
            <Position>
              <LatitudeDegrees>43.34685425274074077606201171875</LatitudeDegrees>
              <LongitudeDegrees>-3.1388371624052524566650390625</LongitudeDegrees>
            </Position>
            <AltitudeMeters>37.799999237060546875</AltitudeMeters>
            <DistanceMeters>NAN</DistanceMeters>
          </Trackpoint>
          <Trackpoint>
            <Time>2022-07-12T15:58:02.000Z</Time>
            <Position>
              <LatitudeDegrees>43.3468038775026798248291015625</LatitudeDegrees>
              <LongitudeDegrees>-3.13888535834848880767822265625</LongitudeDegrees>
            </Position>
            <AltitudeMeters>37</AltitudeMeters>
            <DistanceMeters>NAN</DistanceMeters>
          </Trackpoint>
          <Trackpoint>
            <Time>2022-07-12T15:58:03.000Z</Time>
            <Position>
              <LatitudeDegrees>43.34675685502588748931884765625</LatitudeDegrees>
              <LongitudeDegrees>-3.1389462947845458984375</LongitudeDegrees>
            </Position>
            <AltitudeMeters>36.40000152587890625</AltitudeMeters>
            <DistanceMeters>NAN</DistanceMeters>
          </Trackpoint>
          <Trackpoint>
            <Time>2022-07-12T15:58:04.000Z</Time>
            <Position>
              <LatitudeDegrees>43.34671611897647380828857421875</LatitudeDegrees>
              <LongitudeDegrees>-3.139017708599567413330078125</LongitudeDegrees>
            </Position>
            <AltitudeMeters>35.799999237060546875</AltitudeMeters>
            <DistanceMeters>NAN</DistanceMeters>
          </Trackpoint>
          <Trackpoint>
            <Time>2022-07-12T15:58:05.000Z</Time>
            <Position>
              <LatitudeDegrees>43.34668292663991451263427734375</LatitudeDegrees>
              <LongitudeDegrees>-3.13909909687936305999755859375</LongitudeDegrees>
            </Position>
            <AltitudeMeters>35</AltitudeMeters>
            <DistanceMeters>NAN</DistanceMeters>
          </Trackpoint>
          <Trackpoint>
            <Time>2022-07-12T15:58:06.000Z</Time>
            <Position>
              <LatitudeDegrees>43.3466580323874950408935546875</LatitudeDegrees>
              <LongitudeDegrees>-3.1391959078609943389892578125</LongitudeDegrees>
            </Position>
            <AltitudeMeters>34</AltitudeMeters>
            <DistanceMeters>NAN</DistanceMeters>
          </Trackpoint>
          <Trackpoint>
            <Time>2022-07-12T15:58:07.000Z</Time>
            <Position>
              <LatitudeDegrees>43.34664143621921539306640625</LatitudeDegrees>
              <LongitudeDegrees>-3.13930034637451171875</LongitudeDegrees>
            </Position>
            <AltitudeMeters>33.40000152587890625</AltitudeMeters>
            <DistanceMeters>NAN</DistanceMeters>
          </Trackpoint>
          <Trackpoint>
            <Time>2022-07-12T15:58:08.000Z</Time>
            <Position>
              <LatitudeDegrees>43.3466322161257266998291015625</LatitudeDegrees>
              <LongitudeDegrees>-3.13940294086933135986328125</LongitudeDegrees>
            </Position>
            <AltitudeMeters>32.799999237060546875</AltitudeMeters>
            <DistanceMeters>NAN</DistanceMeters>
          </Trackpoint>
          <Trackpoint>
            <Time>2022-07-12T15:58:09.000Z</Time>
            <Position>
              <LatitudeDegrees>43.34662827663123607635498046875</LatitudeDegrees>
              <LongitudeDegrees>-3.13952724449336528778076171875</LongitudeDegrees>
            </Position>
            <AltitudeMeters>32</AltitudeMeters>
            <DistanceMeters>NAN</DistanceMeters>
          </Trackpoint>
          <Trackpoint>
            <Time>2022-07-12T15:58:10.000Z</Time>
            <Position>
              <LatitudeDegrees>43.34663548506796360015869140625</LatitudeDegrees>
              <LongitudeDegrees>-3.13961156643927097320556640625</LongitudeDegrees>
            </Position>
            <AltitudeMeters>31.200000762939453125</AltitudeMeters>
            <DistanceMeters>NAN</DistanceMeters>
          </Trackpoint>
          <Trackpoint>
            <Time>2022-07-12T15:58:11.000Z</Time>
            <Position>
              <LatitudeDegrees>43.34664856083691120147705078125</LatitudeDegrees>
              <LongitudeDegrees>-3.1397120654582977294921875</LongitudeDegrees>
            </Position>
            <AltitudeMeters>30.200000762939453125</AltitudeMeters>
            <DistanceMeters>NAN</DistanceMeters>
          </Trackpoint>
          <Trackpoint>
            <Time>2022-07-12T15:58:13.000Z</Time>
            <Position>
              <LatitudeDegrees>43.34667823277413845062255859375</LatitudeDegrees>
              <LongitudeDegrees>-3.13990929163992404937744140625</LongitudeDegrees>
            </Position>
            <AltitudeMeters>28.799999237060546875</AltitudeMeters>
            <DistanceMeters>NAN</DistanceMeters>
          </Trackpoint>
          <Trackpoint>
            <Time>2022-07-12T15:58:14.000Z</Time>
            <Position>
              <LatitudeDegrees>43.3466895483434200286865234375</LatitudeDegrees>
              <LongitudeDegrees>-3.14000400714576244354248046875</LongitudeDegrees>
            </Position>
            <AltitudeMeters>28</AltitudeMeters>
            <DistanceMeters>NAN</DistanceMeters>
          </Trackpoint>
          <Trackpoint>
            <Time>2022-07-12T15:58:15.000Z</Time>
            <Position>
              <LatitudeDegrees>43.3466932363808155059814453125</LatitudeDegrees>
              <LongitudeDegrees>-3.14009252004325389862060546875</LongitudeDegrees>
            </Position>
            <AltitudeMeters>27.3999996185302734375</AltitudeMeters>
            <DistanceMeters>NAN</DistanceMeters>
          </Trackpoint>
          <Trackpoint>
            <Time>2022-07-12T15:58:16.000Z</Time>
            <Position>
              <LatitudeDegrees>43.346686027944087982177734375</LatitudeDegrees>
              <LongitudeDegrees>-3.14017533324658870697021484375</LongitudeDegrees>
            </Position>
            <AltitudeMeters>26.6000003814697265625</AltitudeMeters>
            <DistanceMeters>NAN</DistanceMeters>
          </Trackpoint>
          <Trackpoint>
            <Time>2022-07-12T15:58:17.000Z</Time>
            <Position>
              <LatitudeDegrees>43.3466687612235546112060546875</LatitudeDegrees>
              <LongitudeDegrees>-3.14026124775409698486328125</LongitudeDegrees>
            </Position>
            <AltitudeMeters>25.799999237060546875</AltitudeMeters>
            <DistanceMeters>NAN</DistanceMeters>
          </Trackpoint>
          <Trackpoint>
            <Time>2022-07-12T15:58:18.000Z</Time>
            <Position>
              <LatitudeDegrees>43.346633724868297576904296875</LatitudeDegrees>
              <LongitudeDegrees>-3.140360154211521148681640625</LongitudeDegrees>
            </Position>
            <AltitudeMeters>25.3999996185302734375</AltitudeMeters>
            <DistanceMeters>NAN</DistanceMeters>
          </Trackpoint>
          <Trackpoint>
            <Time>2022-07-12T15:58:19.000Z</Time>
            <Position>
              <LatitudeDegrees>43.34659583866596221923828125</LatitudeDegrees>
              <LongitudeDegrees>-3.14043827354907989501953125</LongitudeDegrees>
            </Position>
            <AltitudeMeters>24.799999237060546875</AltitudeMeters>
            <DistanceMeters>NAN</DistanceMeters>
          </Trackpoint>
          <Trackpoint>
            <Time>2022-07-12T15:58:20.000Z</Time>
            <Position>
              <LatitudeDegrees>43.34655300714075565338134765625</LatitudeDegrees>
              <LongitudeDegrees>-3.140514381229877471923828125</LongitudeDegrees>
            </Position>
            <AltitudeMeters>24.3999996185302734375</AltitudeMeters>
            <DistanceMeters>NAN</DistanceMeters>
          </Trackpoint>
          <Trackpoint>
            <Time>2022-07-12T15:58:22.000Z</Time>
            <Position>
              <LatitudeDegrees>43.3464622311294078826904296875</LatitudeDegrees>
              <LongitudeDegrees>-3.140622675418853759765625</LongitudeDegrees>
            </Position>
            <AltitudeMeters>24</AltitudeMeters>
            <DistanceMeters>NAN</DistanceMeters>
          </Trackpoint>
          <Trackpoint>
            <Time>2022-07-12T15:58:24.000Z</Time>
            <Position>
              <LatitudeDegrees>43.34636382758617401123046875</LatitudeDegrees>
              <LongitudeDegrees>-3.140690736472606658935546875</LongitudeDegrees>
            </Position>
            <AltitudeMeters>23.3999996185302734375</AltitudeMeters>
            <DistanceMeters>NAN</DistanceMeters>
          </Trackpoint>
          <Trackpoint>
            <Time>2022-07-12T15:58:26.000Z</Time>
            <Position>
              <LatitudeDegrees>43.34628411568701267242431640625</LatitudeDegrees>
              <LongitudeDegrees>-3.14074681140482425689697265625</LongitudeDegrees>
            </Position>
            <AltitudeMeters>23</AltitudeMeters>
            <DistanceMeters>NAN</DistanceMeters>
          </Trackpoint>
          <Trackpoint>
            <Time>2022-07-12T15:58:27.000Z</Time>
            <Position>
              <LatitudeDegrees>43.34626466967165470123291015625</LatitudeDegrees>
              <LongitudeDegrees>-3.14078587107360363006591796875</LongitudeDegrees>
            </Position>
            <AltitudeMeters>22.799999237060546875</AltitudeMeters>
            <DistanceMeters>NAN</DistanceMeters>
          </Trackpoint>
          <Trackpoint>
            <Time>2022-07-12T15:58:28.000Z</Time>
            <Position>
              <LatitudeDegrees>43.34626517258584499359130859375</LatitudeDegrees>
              <LongitudeDegrees>-3.14082920551300048828125</LongitudeDegrees>
            </Position>
            <AltitudeMeters>22.6000003814697265625</AltitudeMeters>
            <DistanceMeters>NAN</DistanceMeters>
          </Trackpoint>
          <Trackpoint>
            <Time>2022-07-12T15:58:30.000Z</Time>
            <Position>
              <LatitudeDegrees>43.34630976431071758270263671875</LatitudeDegrees>
              <LongitudeDegrees>-3.14091126434504985809326171875</LongitudeDegrees>
            </Position>
            <AltitudeMeters>22.200000762939453125</AltitudeMeters>
            <DistanceMeters>NAN</DistanceMeters>
          </Trackpoint>
          <Trackpoint>
            <Time>2022-07-12T15:58:32.000Z</Time>
            <Position>
              <LatitudeDegrees>43.34638033993542194366455078125</LatitudeDegrees>
              <LongitudeDegrees>-3.14099709503352642059326171875</LongitudeDegrees>
            </Position>
            <AltitudeMeters>21.3999996185302734375</AltitudeMeters>
            <DistanceMeters>NAN</DistanceMeters>
          </Trackpoint>
          <Trackpoint>
            <Time>2022-07-12T15:58:33.000Z</Time>
            <Position>
              <LatitudeDegrees>43.3464196510612964630126953125</LatitudeDegrees>
              <LongitudeDegrees>-3.14104923047125339508056640625</LongitudeDegrees>
            </Position>
            <AltitudeMeters>20.799999237060546875</AltitudeMeters>
            <DistanceMeters>NAN</DistanceMeters>
          </Trackpoint>
          <Trackpoint>
            <Time>2022-07-12T15:58:35.000Z</Time>
            <Position>
              <LatitudeDegrees>43.34650933742523193359375</LatitudeDegrees>
              <LongitudeDegrees>-3.141194321215152740478515625</LongitudeDegrees>
            </Position>
            <AltitudeMeters>19.799999237060546875</AltitudeMeters>
            <DistanceMeters>NAN</DistanceMeters>
          </Trackpoint>
          <Trackpoint>
            <Time>2022-07-12T15:58:36.000Z</Time>
            <Position>
              <LatitudeDegrees>43.346545211970806121826171875</LatitudeDegrees>
              <LongitudeDegrees>-3.1412461213767528533935546875</LongitudeDegrees>
            </Position>
            <AltitudeMeters>19.3999996185302734375</AltitudeMeters>
            <DistanceMeters>NAN</DistanceMeters>
          </Trackpoint>
          <Trackpoint>
            <Time>2022-07-12T15:58:37.000Z</Time>
            <Position>
              <LatitudeDegrees>43.34659843705594539642333984375</LatitudeDegrees>
              <LongitudeDegrees>-3.14129699952900409698486328125</LongitudeDegrees>
            </Position>
            <AltitudeMeters>18.799999237060546875</AltitudeMeters>
            <DistanceMeters>NAN</DistanceMeters>
          </Trackpoint>
          <Trackpoint>
            <Time>2022-07-12T15:58:38.000Z</Time>
            <Position>
              <LatitudeDegrees>43.34666616283357143402099609375</LatitudeDegrees>
              <LongitudeDegrees>-3.14134494401514530181884765625</LongitudeDegrees>
            </Position>
            <AltitudeMeters>18.200000762939453125</AltitudeMeters>
            <DistanceMeters>NAN</DistanceMeters>
          </Trackpoint>
          <Trackpoint>
            <Time>2022-07-12T15:58:39.000Z</Time>
            <Position>
              <LatitudeDegrees>43.3467281050980091094970703125</LatitudeDegrees>
              <LongitudeDegrees>-3.141371347010135650634765625</LongitudeDegrees>
            </Position>
            <AltitudeMeters>17.3999996185302734375</AltitudeMeters>
            <DistanceMeters>NAN</DistanceMeters>
          </Trackpoint>
          <Trackpoint>
            <Time>2022-07-12T15:58:40.000Z</Time>
            <Position>
              <LatitudeDegrees>43.3467894606292247772216796875</LatitudeDegrees>
              <LongitudeDegrees>-3.14139439724385738372802734375</LongitudeDegrees>
            </Position>
            <AltitudeMeters>16.799999237060546875</AltitudeMeters>
            <DistanceMeters>NAN</DistanceMeters>
          </Trackpoint>
          <Trackpoint>
            <Time>2022-07-12T15:58:41.000Z</Time>
            <Position>
              <LatitudeDegrees>43.3468370698392391204833984375</LatitudeDegrees>
              <LongitudeDegrees>-3.14141568727791309356689453125</LongitudeDegrees>
            </Position>
            <AltitudeMeters>15.80000019073486328125</AltitudeMeters>
            <DistanceMeters>NAN</DistanceMeters>
          </Trackpoint>
          <Trackpoint>
            <Time>2022-07-12T15:58:42.000Z</Time>
            <Position>
              <LatitudeDegrees>43.34690471179783344268798828125</LatitudeDegrees>
              <LongitudeDegrees>-3.14146145246922969818115234375</LongitudeDegrees>
            </Position>
            <AltitudeMeters>14.6000003814697265625</AltitudeMeters>
            <DistanceMeters>NAN</DistanceMeters>
          </Trackpoint>
          <Trackpoint>
            <Time>2022-07-12T15:58:44.000Z</Time>
            <Position>
              <LatitudeDegrees>43.3469859324395656585693359375</LatitudeDegrees>
              <LongitudeDegrees>-3.1415735185146331787109375</LongitudeDegrees>
            </Position>
            <AltitudeMeters>13.19999980926513671875</AltitudeMeters>
            <DistanceMeters>NAN</DistanceMeters>
          </Trackpoint>
          <Trackpoint>
            <Time>2022-07-12T15:58:46.000Z</Time>
            <Position>
              <LatitudeDegrees>43.34702524356544017791748046875</LatitudeDegrees>
              <LongitudeDegrees>-3.14171542413532733917236328125</LongitudeDegrees>
            </Position>
            <AltitudeMeters>12.3999996185302734375</AltitudeMeters>
            <DistanceMeters>NAN</DistanceMeters>
          </Trackpoint>
          <Trackpoint>
            <Time>2022-07-12T15:58:47.000Z</Time>
            <Position>
              <LatitudeDegrees>43.34703647531569004058837890625</LatitudeDegrees>
              <LongitudeDegrees>-3.14181801863014698028564453125</LongitudeDegrees>
            </Position>
            <AltitudeMeters>11.6000003814697265625</AltitudeMeters>
            <DistanceMeters>NAN</DistanceMeters>
          </Trackpoint>
          <Trackpoint>
            <Time>2022-07-12T15:58:49.000Z</Time>
            <Position>
              <LatitudeDegrees>43.34705650806427001953125</LatitudeDegrees>
              <LongitudeDegrees>-3.14199370332062244415283203125</LongitudeDegrees>
            </Position>
            <AltitudeMeters>9.80000019073486328125</AltitudeMeters>
            <DistanceMeters>NAN</DistanceMeters>
          </Trackpoint>
          <Trackpoint>
            <Time>2022-07-12T15:58:51.000Z</Time>
            <Position>
              <LatitudeDegrees>43.3470861800014972686767578125</LatitudeDegrees>
              <LongitudeDegrees>-3.14215849153697490692138671875</LongitudeDegrees>
            </Position>
            <AltitudeMeters>8.80000019073486328125</AltitudeMeters>
            <DistanceMeters>NAN</DistanceMeters>
          </Trackpoint>
          <Trackpoint>
            <Time>2022-07-12T15:58:54.000Z</Time>
            <Position>
              <LatitudeDegrees>43.34711660631000995635986328125</LatitudeDegrees>
              <LongitudeDegrees>-3.1424050033092498779296875</LongitudeDegrees>
            </Position>
            <AltitudeMeters>7.599999904632568359375</AltitudeMeters>
            <DistanceMeters>NAN</DistanceMeters>
          </Trackpoint>
          <Trackpoint>
            <Time>2022-07-12T15:58:55.000Z</Time>
            <Position>
              <LatitudeDegrees>43.347130604088306427001953125</LatitudeDegrees>
              <LongitudeDegrees>-3.14247884787619113922119140625</LongitudeDegrees>
            </Position>
            <AltitudeMeters>6.400000095367431640625</AltitudeMeters>
            <DistanceMeters>NAN</DistanceMeters>
          </Trackpoint>
          <Trackpoint>
            <Time>2022-07-12T15:58:57.000Z</Time>
            <Position>
              <LatitudeDegrees>43.3471693284809589385986328125</LatitudeDegrees>
              <LongitudeDegrees>-3.14259602688252925872802734375</LongitudeDegrees>
            </Position>
            <AltitudeMeters>4.80000019073486328125</AltitudeMeters>
            <DistanceMeters>NAN</DistanceMeters>
          </Trackpoint>
          <Trackpoint>
            <Time>2022-07-12T15:58:58.000Z</Time>
            <Position>
              <LatitudeDegrees>43.3471817336976528167724609375</LatitudeDegrees>
              <LongitudeDegrees>-3.142640702426433563232421875</LongitudeDegrees>
            </Position>
            <AltitudeMeters>3.599999904632568359375</AltitudeMeters>
            <DistanceMeters>NAN</DistanceMeters>
          </Trackpoint>
          <Trackpoint>
            <Time>2022-07-12T15:58:59.000Z</Time>
            <Position>
              <LatitudeDegrees>43.34719070233404636383056640625</LatitudeDegrees>
              <LongitudeDegrees>-3.14268168993294239044189453125</LongitudeDegrees>
            </Position>
            <AltitudeMeters>2.599999904632568359375</AltitudeMeters>
            <DistanceMeters>NAN</DistanceMeters>
          </Trackpoint>
          <Trackpoint>
            <Time>2022-07-12T15:59:01.000Z</Time>
            <Position>
              <LatitudeDegrees>43.3472149260342121124267578125</LatitudeDegrees>
              <LongitudeDegrees>-3.1427451409399509429931640625</LongitudeDegrees>
            </Position>
            <AltitudeMeters>1.2000000476837158203125</AltitudeMeters>
            <DistanceMeters>NAN</DistanceMeters>
          </Trackpoint>
          <Trackpoint>
            <Time>2022-07-12T15:59:02.000Z</Time>
            <Position>
              <LatitudeDegrees>43.3472404070198535919189453125</LatitudeDegrees>
              <LongitudeDegrees>-3.14278461970388889312744140625</LongitudeDegrees>
            </Position>
            <AltitudeMeters>0.4000000059604644775390625</AltitudeMeters>
            <DistanceMeters>NAN</DistanceMeters>
          </Trackpoint>
          <Trackpoint>
            <Time>2022-07-12T15:59:03.000Z</Time>
            <Position>
              <LatitudeDegrees>43.34726194851100444793701171875</LatitudeDegrees>
              <LongitudeDegrees>-3.14281580038368701934814453125</LongitudeDegrees>
            </Position>
            <AltitudeMeters>-0.20000000298023223876953125</AltitudeMeters>
            <DistanceMeters>NAN</DistanceMeters>
          </Trackpoint>
          <Trackpoint>
            <Time>2022-07-12T15:59:05.000Z</Time>
            <Position>
              <LatitudeDegrees>43.34729732014238834381103515625</LatitudeDegrees>
              <LongitudeDegrees>-3.14287095330655574798583984375</LongitudeDegrees>
            </Position>
            <AltitudeMeters>-1.2000000476837158203125</AltitudeMeters>
            <DistanceMeters>NAN</DistanceMeters>
          </Trackpoint>
          <Trackpoint>
            <Time>2022-07-12T15:59:08.000Z</Time>
            <Position>
              <LatitudeDegrees>43.34738063625991344451904296875</LatitudeDegrees>
              <LongitudeDegrees>-3.14299735240638256072998046875</LongitudeDegrees>
            </Position>
            <AltitudeMeters>-2.2000000476837158203125</AltitudeMeters>
            <DistanceMeters>NAN</DistanceMeters>
          </Trackpoint>
          <Trackpoint>
            <Time>2022-07-12T15:59:09.000Z</Time>
            <Position>
              <LatitudeDegrees>43.347410224378108978271484375</LatitudeDegrees>
              <LongitudeDegrees>-3.1430368311703205108642578125</LongitudeDegrees>
            </Position>
            <AltitudeMeters>-2.599999904632568359375</AltitudeMeters>
            <DistanceMeters>NAN</DistanceMeters>
          </Trackpoint>
          <Trackpoint>
            <Time>2022-07-12T15:59:11.000Z</Time>
            <Position>
              <LatitudeDegrees>43.347473256289958953857421875</LatitudeDegrees>
              <LongitudeDegrees>-3.14310380257666110992431640625</LongitudeDegrees>
            </Position>
            <AltitudeMeters>-3.400000095367431640625</AltitudeMeters>
            <DistanceMeters>NAN</DistanceMeters>
          </Trackpoint>
          <Trackpoint>
            <Time>2022-07-12T15:59:14.000Z</Time>
            <Position>
              <LatitudeDegrees>43.3475719951093196868896484375</LatitudeDegrees>
              <LongitudeDegrees>-3.14319198019802570343017578125</LongitudeDegrees>
            </Position>
            <AltitudeMeters>-4.400000095367431640625</AltitudeMeters>
            <DistanceMeters>NAN</DistanceMeters>
          </Trackpoint>
          <Trackpoint>
            <Time>2022-07-12T15:59:15.000Z</Time>
            <Position>
              <LatitudeDegrees>43.34760175086557865142822265625</LatitudeDegrees>
              <LongitudeDegrees>-3.14322081394493579864501953125</LongitudeDegrees>
            </Position>
            <AltitudeMeters>-4.599999904632568359375</AltitudeMeters>
            <DistanceMeters>NAN</DistanceMeters>
          </Trackpoint>
          <Trackpoint>
            <Time>2022-07-12T15:59:19.000Z</Time>
            <Position>
              <LatitudeDegrees>43.3477235399186611175537109375</LatitudeDegrees>
              <LongitudeDegrees>-3.1433201394975185394287109375</LongitudeDegrees>
            </Position>
            <AltitudeMeters>-5.80000019073486328125</AltitudeMeters>
            <DistanceMeters>NAN</DistanceMeters>
          </Trackpoint>
          <Trackpoint>
            <Time>2022-07-12T15:59:20.000Z</Time>
            <Position>
              <LatitudeDegrees>43.3477460034191608428955078125</LatitudeDegrees>
              <LongitudeDegrees>-3.14334184862673282623291015625</LongitudeDegrees>
            </Position>
            <AltitudeMeters>-6.19999980926513671875</AltitudeMeters>
            <DistanceMeters>NAN</DistanceMeters>
          </Trackpoint>
          <Trackpoint>
            <Time>2022-07-12T15:59:22.000Z</Time>
            <Position>
              <LatitudeDegrees>43.34778112359344959259033203125</LatitudeDegrees>
              <LongitudeDegrees>-3.14338711090385913848876953125</LongitudeDegrees>
            </Position>
            <AltitudeMeters>-6.80000019073486328125</AltitudeMeters>
            <DistanceMeters>NAN</DistanceMeters>
          </Trackpoint>
          <Trackpoint>
            <Time>2022-07-12T15:59:25.000Z</Time>
            <Position>
              <LatitudeDegrees>43.34782856516540050506591796875</LatitudeDegrees>
              <LongitudeDegrees>-3.1434679962694644927978515625</LongitudeDegrees>
            </Position>
            <AltitudeMeters>-8</AltitudeMeters>
            <DistanceMeters>NAN</DistanceMeters>
          </Trackpoint>
          <Trackpoint>
            <Time>2022-07-12T15:59:26.000Z</Time>
            <Position>
              <LatitudeDegrees>43.3478422276675701141357421875</LatitudeDegrees>
              <LongitudeDegrees>-3.14349993132054805755615234375</LongitudeDegrees>
            </Position>
            <AltitudeMeters>-8.3999996185302734375</AltitudeMeters>
            <DistanceMeters>NAN</DistanceMeters>
          </Trackpoint>
          <Trackpoint>
            <Time>2022-07-12T15:59:29.000Z</Time>
            <Position>
              <LatitudeDegrees>43.34788606502115726470947265625</LatitudeDegrees>
              <LongitudeDegrees>-3.14357704482972621917724609375</LongitudeDegrees>
            </Position>
            <AltitudeMeters>-9.3999996185302734375</AltitudeMeters>
            <DistanceMeters>NAN</DistanceMeters>
          </Trackpoint>
          <Trackpoint>
            <Time>2022-07-12T15:59:32.000Z</Time>
            <Position>
              <LatitudeDegrees>43.3479176647961139678955078125</LatitudeDegrees>
              <LongitudeDegrees>-3.1436376459896564483642578125</LongitudeDegrees>
            </Position>
            <AltitudeMeters>-10.80000019073486328125</AltitudeMeters>
            <DistanceMeters>NAN</DistanceMeters>
          </Trackpoint>
          <Trackpoint>
            <Time>2022-07-12T15:59:33.000Z</Time>
            <Position>
              <LatitudeDegrees>43.347923867404460906982421875</LatitudeDegrees>
              <LongitudeDegrees>-3.1436584331095218658447265625</LongitudeDegrees>
            </Position>
            <AltitudeMeters>-11.19999980926513671875</AltitudeMeters>
            <DistanceMeters>NAN</DistanceMeters>
          </Trackpoint>
          <Trackpoint>
            <Time>2022-07-12T15:59:35.000Z</Time>
            <Position>
              <LatitudeDegrees>43.34794037975370883941650390625</LatitudeDegrees>
              <LongitudeDegrees>-3.14371333457529544830322265625</LongitudeDegrees>
            </Position>
            <AltitudeMeters>-12.19999980926513671875</AltitudeMeters>
            <DistanceMeters>NAN</DistanceMeters>
          </Trackpoint>
          <Trackpoint>
            <Time>2022-07-12T15:59:38.000Z</Time>
            <Position>
              <LatitudeDegrees>43.34795697592198848724365234375</LatitudeDegrees>
              <LongitudeDegrees>-3.143798410892486572265625</LongitudeDegrees>
            </Position>
            <AltitudeMeters>-13.19999980926513671875</AltitudeMeters>
            <DistanceMeters>NAN</DistanceMeters>
          </Trackpoint>
          <Trackpoint>
            <Time>2022-07-12T15:59:40.000Z</Time>
            <Position>
              <LatitudeDegrees>43.34796284325420856475830078125</LatitudeDegrees>
              <LongitudeDegrees>-3.1438533961772918701171875</LongitudeDegrees>
            </Position>
            <AltitudeMeters>-14</AltitudeMeters>
            <DistanceMeters>NAN</DistanceMeters>
          </Trackpoint>
          <Trackpoint>
            <Time>2022-07-12T15:59:43.000Z</Time>
            <Position>
              <LatitudeDegrees>43.34796116687357425689697265625</LatitudeDegrees>
              <LongitudeDegrees>-3.143880553543567657470703125</LongitudeDegrees>
            </Position>
            <AltitudeMeters>-14.3999996185302734375</AltitudeMeters>
            <DistanceMeters>NAN</DistanceMeters>
          </Trackpoint>
          <Trackpoint>
            <Time>2022-07-12T15:59:44.000Z</Time>
            <Position>
              <LatitudeDegrees>43.347954712808132171630859375</LatitudeDegrees>
              <LongitudeDegrees>-3.14389027655124664306640625</LongitudeDegrees>
            </Position>
            <AltitudeMeters>-14.3999996185302734375</AltitudeMeters>
            <DistanceMeters>NAN</DistanceMeters>
          </Trackpoint>
          <Trackpoint>
            <Time>2022-07-12T15:59:49.000Z</Time>
            <Position>
              <LatitudeDegrees>43.34788556210696697235107421875</LatitudeDegrees>
              <LongitudeDegrees>-3.1439893506467342376708984375</LongitudeDegrees>
            </Position>
            <AltitudeMeters>-14</AltitudeMeters>
            <DistanceMeters>NAN</DistanceMeters>
          </Trackpoint>
          <Trackpoint>
            <Time>2022-07-12T15:59:53.000Z</Time>
            <Position>
              <LatitudeDegrees>43.3478335104882717132568359375</LatitudeDegrees>
              <LongitudeDegrees>-3.14409337006509304046630859375</LongitudeDegrees>
            </Position>
            <AltitudeMeters>-13.80000019073486328125</AltitudeMeters>
            <DistanceMeters>NAN</DistanceMeters>
          </Trackpoint>
          <Trackpoint>
            <Time>2022-07-12T15:59:56.000Z</Time>
            <Position>
              <LatitudeDegrees>43.34779478609561920166015625</LatitudeDegrees>
              <LongitudeDegrees>-3.14416428096592426300048828125</LongitudeDegrees>
            </Position>
            <AltitudeMeters>-13.6000003814697265625</AltitudeMeters>
            <DistanceMeters>NAN</DistanceMeters>
          </Trackpoint>
          <Trackpoint>
            <Time>2022-07-12T15:59:58.000Z</Time>
            <Position>
              <LatitudeDegrees>43.3477657847106456756591796875</LatitudeDegrees>
              <LongitudeDegrees>-3.14421457238495349884033203125</LongitudeDegrees>
            </Position>
            <AltitudeMeters>-13.3999996185302734375</AltitudeMeters>
            <DistanceMeters>NAN</DistanceMeters>
          </Trackpoint>
          <Trackpoint>
            <Time>2022-07-12T15:59:59.000Z</Time>
            <Position>
              <LatitudeDegrees>43.34774943999946117401123046875</LatitudeDegrees>
              <LongitudeDegrees>-3.14424156211316585540771484375</LongitudeDegrees>
            </Position>
            <AltitudeMeters>-13.19999980926513671875</AltitudeMeters>
            <DistanceMeters>NAN</DistanceMeters>
          </Trackpoint>
          <Trackpoint>
            <Time>2022-07-12T16:00:02.000Z</Time>
            <Position>
              <LatitudeDegrees>43.347701914608478546142578125</LatitudeDegrees>
              <LongitudeDegrees>-3.1443169154226779937744140625</LongitudeDegrees>
            </Position>
            <AltitudeMeters>-12.80000019073486328125</AltitudeMeters>
            <DistanceMeters>NAN</DistanceMeters>
          </Trackpoint>
          <Trackpoint>
            <Time>2022-07-12T16:00:06.000Z</Time>
            <Position>
              <LatitudeDegrees>43.347640894353389739990234375</LatitudeDegrees>
              <LongitudeDegrees>-3.144415654242038726806640625</LongitudeDegrees>
            </Position>
            <AltitudeMeters>-12.3999996185302734375</AltitudeMeters>
            <DistanceMeters>NAN</DistanceMeters>
          </Trackpoint>
          <Trackpoint>
            <Time>2022-07-12T16:00:07.000Z</Time>
            <Position>
              <LatitudeDegrees>43.347633518278598785400390625</LatitudeDegrees>
              <LongitudeDegrees>-3.1444407999515533447265625</LongitudeDegrees>
            </Position>
            <AltitudeMeters>-12.19999980926513671875</AltitudeMeters>
            <DistanceMeters>NAN</DistanceMeters>
          </Trackpoint>
          <Trackpoint>
            <Time>2022-07-12T16:00:11.000Z</Time>
            <Position>
              <LatitudeDegrees>43.34765933454036712646484375</LatitudeDegrees>
              <LongitudeDegrees>-3.14454280771315097808837890625</LongitudeDegrees>
            </Position>
            <AltitudeMeters>-11.3999996185302734375</AltitudeMeters>
            <DistanceMeters>NAN</DistanceMeters>
          </Trackpoint>
          <Trackpoint>
            <Time>2022-07-12T16:00:14.000Z</Time>
            <Position>
              <LatitudeDegrees>43.347721360623836517333984375</LatitudeDegrees>
              <LongitudeDegrees>-3.1446186639368534088134765625</LongitudeDegrees>
            </Position>
            <AltitudeMeters>-11.3999996185302734375</AltitudeMeters>
            <DistanceMeters>NAN</DistanceMeters>
          </Trackpoint>
          <Trackpoint>
            <Time>2022-07-12T16:00:19.000Z</Time>
            <Position>
              <LatitudeDegrees>43.34783057682216167449951171875</LatitudeDegrees>
              <LongitudeDegrees>-3.14474045298993587493896484375</LongitudeDegrees>
            </Position>
            <AltitudeMeters>-11.3999996185302734375</AltitudeMeters>
            <DistanceMeters>NAN</DistanceMeters>
          </Trackpoint>
          <Trackpoint>
            <Time>2022-07-12T16:00:24.000Z</Time>
            <Position>
              <LatitudeDegrees>43.3479538746178150177001953125</LatitudeDegrees>
              <LongitudeDegrees>-3.1448888964951038360595703125</LongitudeDegrees>
            </Position>
            <AltitudeMeters>-11.19999980926513671875</AltitudeMeters>
            <DistanceMeters>NAN</DistanceMeters>
          </Trackpoint>
          <Trackpoint>
            <Time>2022-07-12T16:00:27.000Z</Time>
            <Position>
              <LatitudeDegrees>43.3480386994779109954833984375</LatitudeDegrees>
              <LongitudeDegrees>-3.144997023046016693115234375</LongitudeDegrees>
            </Position>
            <AltitudeMeters>-11.3999996185302734375</AltitudeMeters>
            <DistanceMeters>NAN</DistanceMeters>
          </Trackpoint>
          <Trackpoint>
            <Time>2022-07-12T16:00:33.000Z</Time>
            <Position>
              <LatitudeDegrees>43.34819619543850421905517578125</LatitudeDegrees>
              <LongitudeDegrees>-3.145257532596588134765625</LongitudeDegrees>
            </Position>
            <AltitudeMeters>-11.80000019073486328125</AltitudeMeters>
            <DistanceMeters>NAN</DistanceMeters>
          </Trackpoint>
          <Trackpoint>
            <Time>2022-07-12T16:00:35.000Z</Time>
            <Position>
              <LatitudeDegrees>43.34824112243950366973876953125</LatitudeDegrees>
              <LongitudeDegrees>-3.14535467885434627532958984375</LongitudeDegrees>
            </Position>
            <AltitudeMeters>-12</AltitudeMeters>
            <DistanceMeters>NAN</DistanceMeters>
          </Trackpoint>
          <Trackpoint>
            <Time>2022-07-12T16:00:37.000Z</Time>
            <Position>
              <LatitudeDegrees>43.34828085266053676605224609375</LatitudeDegrees>
              <LongitudeDegrees>-3.145472444593906402587890625</LongitudeDegrees>
            </Position>
            <AltitudeMeters>-12.19999980926513671875</AltitudeMeters>
            <DistanceMeters>NAN</DistanceMeters>
          </Trackpoint>
          <Trackpoint>
            <Time>2022-07-12T16:00:40.000Z</Time>
            <Position>
              <LatitudeDegrees>43.34835997782647609710693359375</LatitudeDegrees>
              <LongitudeDegrees>-3.145672269165515899658203125</LongitudeDegrees>
            </Position>
            <AltitudeMeters>-13</AltitudeMeters>
            <DistanceMeters>NAN</DistanceMeters>
          </Trackpoint>
          <Trackpoint>
            <Time>2022-07-12T16:00:41.000Z</Time>
            <Position>
              <LatitudeDegrees>43.3483974449336528778076171875</LatitudeDegrees>
              <LongitudeDegrees>-3.1457294337451457977294921875</LongitudeDegrees>
            </Position>
            <AltitudeMeters>-13</AltitudeMeters>
            <DistanceMeters>NAN</DistanceMeters>
          </Trackpoint>
          <Trackpoint>
            <Time>2022-07-12T16:00:42.000Z</Time>
            <Position>
              <LatitudeDegrees>43.34845217876136302947998046875</LatitudeDegrees>
              <LongitudeDegrees>-3.145780898630619049072265625</LongitudeDegrees>
            </Position>
            <AltitudeMeters>-13.19999980926513671875</AltitudeMeters>
            <DistanceMeters>NAN</DistanceMeters>
          </Trackpoint>
          <Trackpoint>
            <Time>2022-07-12T16:00:43.000Z</Time>
            <Position>
              <LatitudeDegrees>43.3485142886638641357421875</LatitudeDegrees>
              <LongitudeDegrees>-3.145815096795558929443359375</LongitudeDegrees>
            </Position>
            <AltitudeMeters>-13.19999980926513671875</AltitudeMeters>
            <DistanceMeters>NAN</DistanceMeters>
          </Trackpoint>
          <Trackpoint>
            <Time>2022-07-12T16:00:44.000Z</Time>
            <Position>
              <LatitudeDegrees>43.34855787456035614013671875</LatitudeDegrees>
              <LongitudeDegrees>-3.14582976512610912322998046875</LongitudeDegrees>
            </Position>
            <AltitudeMeters>-13.6000003814697265625</AltitudeMeters>
            <DistanceMeters>NAN</DistanceMeters>
          </Trackpoint>
          <Trackpoint>
            <Time>2022-07-12T16:00:46.000Z</Time>
            <Position>
              <LatitudeDegrees>43.3486686833202838897705078125</LatitudeDegrees>
              <LongitudeDegrees>-3.1458668969571590423583984375</LongitudeDegrees>
            </Position>
            <AltitudeMeters>-14</AltitudeMeters>
            <DistanceMeters>NAN</DistanceMeters>
          </Trackpoint>
          <Trackpoint>
            <Time>2022-07-12T16:00:48.000Z</Time>
            <Position>
              <LatitudeDegrees>43.34874772466719150543212890625</LatitudeDegrees>
              <LongitudeDegrees>-3.145911656320095062255859375</LongitudeDegrees>
            </Position>
            <AltitudeMeters>-14.3999996185302734375</AltitudeMeters>
            <DistanceMeters>NAN</DistanceMeters>
          </Trackpoint>
          <Trackpoint>
            <Time>2022-07-12T16:00:51.000Z</Time>
            <Position>
              <LatitudeDegrees>43.348904885351657867431640625</LatitudeDegrees>
              <LongitudeDegrees>-3.1459909491240978240966796875</LongitudeDegrees>
            </Position>
            <AltitudeMeters>-15</AltitudeMeters>
            <DistanceMeters>NAN</DistanceMeters>
          </Trackpoint>
          <Trackpoint>
            <Time>2022-07-12T16:00:53.000Z</Time>
            <Position>
              <LatitudeDegrees>43.348985016345977783203125</LatitudeDegrees>
              <LongitudeDegrees>-3.14607585780322551727294921875</LongitudeDegrees>
            </Position>
            <AltitudeMeters>-15.3999996185302734375</AltitudeMeters>
            <DistanceMeters>NAN</DistanceMeters>
          </Trackpoint>
          <Trackpoint>
            <Time>2022-07-12T16:00:54.000Z</Time>
            <Position>
              <LatitudeDegrees>43.34901393391191959381103515625</LatitudeDegrees>
              <LongitudeDegrees>-3.14614425413310527801513671875</LongitudeDegrees>
            </Position>
            <AltitudeMeters>-15.6000003814697265625</AltitudeMeters>
            <DistanceMeters>NAN</DistanceMeters>
          </Trackpoint>
          <Trackpoint>
            <Time>2022-07-12T16:00:57.000Z</Time>
            <Position>
              <LatitudeDegrees>43.34907981567084789276123046875</LatitudeDegrees>
              <LongitudeDegrees>-3.14637190662324428558349609375</LongitudeDegrees>
            </Position>
            <AltitudeMeters>-16.200000762939453125</AltitudeMeters>
            <DistanceMeters>NAN</DistanceMeters>
          </Trackpoint>
          <Trackpoint>
            <Time>2022-07-12T16:00:58.000Z</Time>
            <Position>
              <LatitudeDegrees>43.3490948192775249481201171875</LatitudeDegrees>
              <LongitudeDegrees>-3.14647458493709564208984375</LongitudeDegrees>
            </Position>
            <AltitudeMeters>-16.799999237060546875</AltitudeMeters>
            <DistanceMeters>NAN</DistanceMeters>
          </Trackpoint>
          <Trackpoint>
            <Time>2022-07-12T16:01:01.000Z</Time>
            <Position>
              <LatitudeDegrees>43.349118791520595550537109375</LatitudeDegrees>
              <LongitudeDegrees>-3.1467260420322418212890625</LongitudeDegrees>
            </Position>
            <AltitudeMeters>-17.799999237060546875</AltitudeMeters>
            <DistanceMeters>NAN</DistanceMeters>
          </Trackpoint>
          <Trackpoint>
            <Time>2022-07-12T16:01:02.000Z</Time>
            <Position>
              <LatitudeDegrees>43.34913362748920917510986328125</LatitudeDegrees>
              <LongitudeDegrees>-3.14678345806896686553955078125</LongitudeDegrees>
            </Position>
            <AltitudeMeters>-18</AltitudeMeters>
            <DistanceMeters>NAN</DistanceMeters>
          </Trackpoint>
          <Trackpoint>
            <Time>2022-07-12T16:01:03.000Z</Time>
            <Position>
              <LatitudeDegrees>43.34915332496166229248046875</LatitudeDegrees>
              <LongitudeDegrees>-3.14685151912271976470947265625</LongitudeDegrees>
            </Position>
            <AltitudeMeters>-18.200000762939453125</AltitudeMeters>
            <DistanceMeters>NAN</DistanceMeters>
          </Trackpoint>
          <Trackpoint>
            <Time>2022-07-12T16:01:07.000Z</Time>
            <Position>
              <LatitudeDegrees>43.34924519062042236328125</LatitudeDegrees>
              <LongitudeDegrees>-3.1470645032823085784912109375</LongitudeDegrees>
            </Position>
            <AltitudeMeters>-19.200000762939453125</AltitudeMeters>
            <DistanceMeters>NAN</DistanceMeters>
          </Trackpoint>
          <Trackpoint>
            <Time>2022-07-12T16:01:10.000Z</Time>
            <Position>
              <LatitudeDegrees>43.3492564223706722259521484375</LatitudeDegrees>
              <LongitudeDegrees>-3.14708688296377658843994140625</LongitudeDegrees>
            </Position>
            <AltitudeMeters>-19.6000003814697265625</AltitudeMeters>
            <DistanceMeters>NAN</DistanceMeters>
          </Trackpoint>
          <Trackpoint>
            <Time>2022-07-12T16:01:11.000Z</Time>
            <Position>
              <LatitudeDegrees>43.3492564223706722259521484375</LatitudeDegrees>
              <LongitudeDegrees>-3.14708688296377658843994140625</LongitudeDegrees>
            </Position>
            <AltitudeMeters>-19.6000003814697265625</AltitudeMeters>
            <DistanceMeters>NAN</DistanceMeters>
          </Trackpoint>
          <Trackpoint>
            <Time>2022-07-12T16:01:26.000Z</Time>
            <Position>
              <LatitudeDegrees>43.34931249730288982391357421875</LatitudeDegrees>
              <LongitudeDegrees>-3.14707146026194095611572265625</LongitudeDegrees>
            </Position>
            <AltitudeMeters>-19.3999996185302734375</AltitudeMeters>
            <DistanceMeters>NAN</DistanceMeters>
          </Trackpoint>
          <Trackpoint>
            <Time>2022-07-12T16:01:28.000Z</Time>
            <Position>
              <LatitudeDegrees>43.3493523113429546356201171875</LatitudeDegrees>
              <LongitudeDegrees>-3.14708017744123935699462890625</LongitudeDegrees>
            </Position>
            <AltitudeMeters>-19.3999996185302734375</AltitudeMeters>
            <DistanceMeters>NAN</DistanceMeters>
          </Trackpoint>
          <Trackpoint>
            <Time>2022-07-12T16:01:33.000Z</Time>
            <Position>
              <LatitudeDegrees>43.3494884334504604339599609375</LatitudeDegrees>
              <LongitudeDegrees>-3.14715762622654438018798828125</LongitudeDegrees>
            </Position>
            <AltitudeMeters>-19</AltitudeMeters>
            <DistanceMeters>NAN</DistanceMeters>
          </Trackpoint>
          <Trackpoint>
            <Time>2022-07-12T16:01:37.000Z</Time>
            <Position>
              <LatitudeDegrees>43.34964215755462646484375</LatitudeDegrees>
              <LongitudeDegrees>-3.14728151075541973114013671875</LongitudeDegrees>
            </Position>
            <AltitudeMeters>-18.799999237060546875</AltitudeMeters>
            <DistanceMeters>NAN</DistanceMeters>
          </Trackpoint>
          <Trackpoint>
            <Time>2022-07-12T16:01:39.000Z</Time>
            <Position>
              <LatitudeDegrees>43.34973511286079883575439453125</LatitudeDegrees>
              <LongitudeDegrees>-3.14733465202152729034423828125</LongitudeDegrees>
            </Position>
            <AltitudeMeters>-18.799999237060546875</AltitudeMeters>
            <DistanceMeters>NAN</DistanceMeters>
          </Trackpoint>
          <Trackpoint>
            <Time>2022-07-12T16:01:43.000Z</Time>
            <Position>
              <LatitudeDegrees>43.34989353083074092864990234375</LatitudeDegrees>
              <LongitudeDegrees>-3.147457279264926910400390625</LongitudeDegrees>
            </Position>
            <AltitudeMeters>-19.200000762939453125</AltitudeMeters>
            <DistanceMeters>NAN</DistanceMeters>
          </Trackpoint>
          <Trackpoint>
            <Time>2022-07-12T16:01:44.000Z</Time>
            <Position>
              <LatitudeDegrees>43.34992035292088985443115234375</LatitudeDegrees>
              <LongitudeDegrees>-3.14750681631267070770263671875</LongitudeDegrees>
            </Position>
            <AltitudeMeters>-19.200000762939453125</AltitudeMeters>
            <DistanceMeters>NAN</DistanceMeters>
          </Trackpoint>
          <Trackpoint>
            <Time>2022-07-12T16:01:46.000Z</Time>
            <Position>
              <LatitudeDegrees>43.34996092133224010467529296875</LatitudeDegrees>
              <LongitudeDegrees>-3.14761477522552013397216796875</LongitudeDegrees>
            </Position>
            <AltitudeMeters>-19.3999996185302734375</AltitudeMeters>
            <DistanceMeters>NAN</DistanceMeters>
          </Trackpoint>
          <Trackpoint>
            <Time>2022-07-12T16:01:49.000Z</Time>
            <Position>
              <LatitudeDegrees>43.3499953709542751312255859375</LatitudeDegrees>
              <LongitudeDegrees>-3.147812001407146453857421875</LongitudeDegrees>
            </Position>
            <AltitudeMeters>-19.3999996185302734375</AltitudeMeters>
            <DistanceMeters>NAN</DistanceMeters>
          </Trackpoint>
          <Trackpoint>
            <Time>2022-07-12T16:01:52.000Z</Time>
            <Position>
              <LatitudeDegrees>43.35003769956529140472412109375</LatitudeDegrees>
              <LongitudeDegrees>-3.14800755120813846588134765625</LongitudeDegrees>
            </Position>
            <AltitudeMeters>-19.3999996185302734375</AltitudeMeters>
            <DistanceMeters>NAN</DistanceMeters>
          </Trackpoint>
          <Trackpoint>
            <Time>2022-07-12T16:01:54.000Z</Time>
            <Position>
              <LatitudeDegrees>43.35009972564876079559326171875</LatitudeDegrees>
              <LongitudeDegrees>-3.14811215735971927642822265625</LongitudeDegrees>
            </Position>
            <AltitudeMeters>-19.3999996185302734375</AltitudeMeters>
            <DistanceMeters>NAN</DistanceMeters>
          </Trackpoint>
          <Trackpoint>
            <Time>2022-07-12T16:02:01.000Z</Time>
            <Position>
              <LatitudeDegrees>43.35031480528414249420166015625</LatitudeDegrees>
              <LongitudeDegrees>-3.148440979421138763427734375</LongitudeDegrees>
            </Position>
            <AltitudeMeters>-19.6000003814697265625</AltitudeMeters>
            <DistanceMeters>NAN</DistanceMeters>
          </Trackpoint>
          <Trackpoint>
            <Time>2022-07-12T16:02:04.000Z</Time>
            <Position>
              <LatitudeDegrees>43.35041153244674205780029296875</LatitudeDegrees>
              <LongitudeDegrees>-3.14858950674533843994140625</LongitudeDegrees>
            </Position>
            <AltitudeMeters>-19.799999237060546875</AltitudeMeters>
            <DistanceMeters>NAN</DistanceMeters>
          </Trackpoint>
          <Trackpoint>
            <Time>2022-07-12T16:02:08.000Z</Time>
            <Position>
              <LatitudeDegrees>43.3505408652126789093017578125</LatitudeDegrees>
              <LongitudeDegrees>-3.148773573338985443115234375</LongitudeDegrees>
            </Position>
            <AltitudeMeters>-20</AltitudeMeters>
            <DistanceMeters>NAN</DistanceMeters>
          </Trackpoint>
          <Trackpoint>
            <Time>2022-07-12T16:02:13.000Z</Time>
            <Position>
              <LatitudeDegrees>43.35070774890482425689697265625</LatitudeDegrees>
              <LongitudeDegrees>-3.14899611286818981170654296875</LongitudeDegrees>
            </Position>
            <AltitudeMeters>-19.799999237060546875</AltitudeMeters>
            <DistanceMeters>NAN</DistanceMeters>
          </Trackpoint>
          <Trackpoint>
            <Time>2022-07-12T16:02:17.000Z</Time>
            <Position>
              <LatitudeDegrees>43.3508322201669216156005859375</LatitudeDegrees>
              <LongitudeDegrees>-3.1491743959486484527587890625</LongitudeDegrees>
            </Position>
            <AltitudeMeters>-20</AltitudeMeters>
            <DistanceMeters>NAN</DistanceMeters>
          </Trackpoint>
          <Trackpoint>
            <Time>2022-07-12T16:02:18.000Z</Time>
            <Position>
              <LatitudeDegrees>43.35086189210414886474609375</LatitudeDegrees>
              <LongitudeDegrees>-3.14922116696834564208984375</LongitudeDegrees>
            </Position>
            <AltitudeMeters>-20</AltitudeMeters>
            <DistanceMeters>NAN</DistanceMeters>
          </Trackpoint>
          <Trackpoint>
            <Time>2022-07-12T16:02:21.000Z</Time>
            <Position>
              <LatitudeDegrees>43.3509606309235095977783203125</LatitudeDegrees>
              <LongitudeDegrees>-3.14936332404613494873046875</LongitudeDegrees>
            </Position>
            <AltitudeMeters>-20.200000762939453125</AltitudeMeters>
            <DistanceMeters>NAN</DistanceMeters>
          </Trackpoint>
          <Trackpoint>
            <Time>2022-07-12T16:02:26.000Z</Time>
            <Position>
              <LatitudeDegrees>43.3511185459792613983154296875</LatitudeDegrees>
              <LongitudeDegrees>-3.1496107578277587890625</LongitudeDegrees>
            </Position>
            <AltitudeMeters>-20.200000762939453125</AltitudeMeters>
            <DistanceMeters>NAN</DistanceMeters>
          </Trackpoint>
          <Trackpoint>
            <Time>2022-07-12T16:02:35.000Z</Time>
            <Position>
              <LatitudeDegrees>43.35136991925537586212158203125</LatitudeDegrees>
              <LongitudeDegrees>-3.1501158513128757476806640625</LongitudeDegrees>
            </Position>
            <AltitudeMeters>-20.200000762939453125</AltitudeMeters>
            <DistanceMeters>NAN</DistanceMeters>
          </Trackpoint>
          <Trackpoint>
            <Time>2022-07-12T16:02:43.000Z</Time>
            <Position>
              <LatitudeDegrees>43.35156488232314586639404296875</LatitudeDegrees>
              <LongitudeDegrees>-3.1505268998444080352783203125</LongitudeDegrees>
            </Position>
            <AltitudeMeters>-20.200000762939453125</AltitudeMeters>
            <DistanceMeters>NAN</DistanceMeters>
          </Trackpoint>
          <Trackpoint>
            <Time>2022-07-12T16:02:45.000Z</Time>
            <Position>
              <LatitudeDegrees>43.35160092450678348541259765625</LatitudeDegrees>
              <LongitudeDegrees>-3.15063024871051311492919921875</LongitudeDegrees>
            </Position>
            <AltitudeMeters>-20.3999996185302734375</AltitudeMeters>
            <DistanceMeters>NAN</DistanceMeters>
          </Trackpoint>
          <Trackpoint>
            <Time>2022-07-12T16:02:47.000Z</Time>
            <Position>
              <LatitudeDegrees>43.35162498056888580322265625</LatitudeDegrees>
              <LongitudeDegrees>-3.15074390731751918792724609375</LongitudeDegrees>
            </Position>
            <AltitudeMeters>-20.3999996185302734375</AltitudeMeters>
            <DistanceMeters>NAN</DistanceMeters>
          </Trackpoint>
          <Trackpoint>
            <Time>2022-07-12T16:02:49.000Z</Time>
            <Position>
              <LatitudeDegrees>43.35162900388240814208984375</LatitudeDegrees>
              <LongitudeDegrees>-3.15085957758128643035888671875</LongitudeDegrees>
            </Position>
            <AltitudeMeters>-20.3999996185302734375</AltitudeMeters>
            <DistanceMeters>NAN</DistanceMeters>
          </Trackpoint>
          <Trackpoint>
            <Time>2022-07-12T16:02:50.000Z</Time>
            <Position>
              <LatitudeDegrees>43.351624310016632080078125</LatitudeDegrees>
              <LongitudeDegrees>-3.15091489814221858978271484375</LongitudeDegrees>
            </Position>
            <AltitudeMeters>-20.3999996185302734375</AltitudeMeters>
            <DistanceMeters>NAN</DistanceMeters>
          </Trackpoint>
          <Trackpoint>
            <Time>2022-07-12T16:02:53.000Z</Time>
            <Position>
              <LatitudeDegrees>43.351597487926483154296875</LatitudeDegrees>
              <LongitudeDegrees>-3.1510670296847820281982421875</LongitudeDegrees>
            </Position>
            <AltitudeMeters>-20.6000003814697265625</AltitudeMeters>
            <DistanceMeters>NAN</DistanceMeters>
          </Trackpoint>
          <Trackpoint>
            <Time>2022-07-12T16:02:57.000Z</Time>
            <Position>
              <LatitudeDegrees>43.35153453983366489410400390625</LatitudeDegrees>
              <LongitudeDegrees>-3.15127062611281871795654296875</LongitudeDegrees>
            </Position>
            <AltitudeMeters>-20.6000003814697265625</AltitudeMeters>
            <DistanceMeters>NAN</DistanceMeters>
          </Trackpoint>
          <Trackpoint>
            <Time>2022-07-12T16:03:02.000Z</Time>
            <Position>
              <LatitudeDegrees>43.3514018543064594268798828125</LatitudeDegrees>
              <LongitudeDegrees>-3.15146743319928646087646484375</LongitudeDegrees>
            </Position>
            <AltitudeMeters>-20.6000003814697265625</AltitudeMeters>
            <DistanceMeters>NAN</DistanceMeters>
          </Trackpoint>
          <Trackpoint>
            <Time>2022-07-12T16:03:04.000Z</Time>
            <Position>
              <LatitudeDegrees>43.35133320651948451995849609375</LatitudeDegrees>
              <LongitudeDegrees>-3.1515307165682315826416015625</LongitudeDegrees>
            </Position>
            <AltitudeMeters>-20.6000003814697265625</AltitudeMeters>
            <DistanceMeters>NAN</DistanceMeters>
          </Trackpoint>
          <Trackpoint>
            <Time>2022-07-12T16:03:06.000Z</Time>
            <Position>
              <LatitudeDegrees>43.35126497782766819000244140625</LatitudeDegrees>
              <LongitudeDegrees>-3.15158477984368801116943359375</LongitudeDegrees>
            </Position>
            <AltitudeMeters>-20.799999237060546875</AltitudeMeters>
            <DistanceMeters>NAN</DistanceMeters>
          </Trackpoint>
          <Trackpoint>
            <Time>2022-07-12T16:03:12.000Z</Time>
            <Position>
              <LatitudeDegrees>43.351049982011318206787109375</LatitudeDegrees>
              <LongitudeDegrees>-3.15176951698958873748779296875</LongitudeDegrees>
            </Position>
            <AltitudeMeters>-20.6000003814697265625</AltitudeMeters>
            <DistanceMeters>NAN</DistanceMeters>
          </Trackpoint>
          <Trackpoint>
            <Time>2022-07-12T16:03:18.000Z</Time>
            <Position>
              <LatitudeDegrees>43.35081403143703937530517578125</LatitudeDegrees>
              <LongitudeDegrees>-3.1519697606563568115234375</LongitudeDegrees>
            </Position>
            <AltitudeMeters>-20.6000003814697265625</AltitudeMeters>
            <DistanceMeters>NAN</DistanceMeters>
          </Trackpoint>
          <Trackpoint>
            <Time>2022-07-12T16:03:19.000Z</Time>
            <Position>
              <LatitudeDegrees>43.35077865980565547943115234375</LatitudeDegrees>
              <LongitudeDegrees>-3.1520104967057704925537109375</LongitudeDegrees>
            </Position>
            <AltitudeMeters>-20.6000003814697265625</AltitudeMeters>
            <DistanceMeters>NAN</DistanceMeters>
          </Trackpoint>
          <Trackpoint>
            <Time>2022-07-12T16:03:24.000Z</Time>
            <Position>
              <LatitudeDegrees>43.35065796039998531341552734375</LatitudeDegrees>
              <LongitudeDegrees>-3.15225047059357166290283203125</LongitudeDegrees>
            </Position>
            <AltitudeMeters>-20.6000003814697265625</AltitudeMeters>
            <DistanceMeters>NAN</DistanceMeters>
          </Trackpoint>
          <Trackpoint>
            <Time>2022-07-12T16:03:25.000Z</Time>
            <Position>
              <LatitudeDegrees>43.3506412804126739501953125</LatitudeDegrees>
              <LongitudeDegrees>-3.1523015163838863372802734375</LongitudeDegrees>
            </Position>
            <AltitudeMeters>-20.6000003814697265625</AltitudeMeters>
            <DistanceMeters>NAN</DistanceMeters>
          </Trackpoint>
          <Trackpoint>
            <Time>2022-07-12T16:03:26.000Z</Time>
            <Position>
              <LatitudeDegrees>43.35062719881534576416015625</LatitudeDegrees>
              <LongitudeDegrees>-3.15235222689807415008544921875</LongitudeDegrees>
            </Position>
            <AltitudeMeters>-20.6000003814697265625</AltitudeMeters>
            <DistanceMeters>NAN</DistanceMeters>
          </Trackpoint>
          <Trackpoint>
            <Time>2022-07-12T16:03:28.000Z</Time>
            <Position>
              <LatitudeDegrees>43.350613117218017578125</LatitudeDegrees>
              <LongitudeDegrees>-3.15245985053479671478271484375</LongitudeDegrees>
            </Position>
            <AltitudeMeters>-20.6000003814697265625</AltitudeMeters>
            <DistanceMeters>NAN</DistanceMeters>
          </Trackpoint>
          <Trackpoint>
            <Time>2022-07-12T16:03:30.000Z</Time>
            <Position>
              <LatitudeDegrees>43.350607417523860931396484375</LatitudeDegrees>
              <LongitudeDegrees>-3.152569569647312164306640625</LongitudeDegrees>
            </Position>
            <AltitudeMeters>-20.3999996185302734375</AltitudeMeters>
            <DistanceMeters>NAN</DistanceMeters>
          </Trackpoint>
          <Trackpoint>
            <Time>2022-07-12T16:03:34.000Z</Time>
            <Position>
              <LatitudeDegrees>43.350626528263092041015625</LatitudeDegrees>
              <LongitudeDegrees>-3.15280267037451267242431640625</LongitudeDegrees>
            </Position>
            <AltitudeMeters>-20.6000003814697265625</AltitudeMeters>
            <DistanceMeters>NAN</DistanceMeters>
          </Trackpoint>
          <Trackpoint>
            <Time>2022-07-12T16:03:37.000Z</Time>
            <Position>
              <LatitudeDegrees>43.3506466448307037353515625</LatitudeDegrees>
              <LongitudeDegrees>-3.152959160506725311279296875</LongitudeDegrees>
            </Position>
            <AltitudeMeters>-20.6000003814697265625</AltitudeMeters>
            <DistanceMeters>NAN</DistanceMeters>
          </Trackpoint>
          <Trackpoint>
            <Time>2022-07-12T16:03:45.000Z</Time>
            <Position>
              <LatitudeDegrees>43.3506793342530727386474609375</LatitudeDegrees>
              <LongitudeDegrees>-3.15340700559318065643310546875</LongitudeDegrees>
            </Position>
            <AltitudeMeters>-20.6000003814697265625</AltitudeMeters>
            <DistanceMeters>NAN</DistanceMeters>
          </Trackpoint>
          <Trackpoint>
            <Time>2022-07-12T16:03:48.000Z</Time>
            <Position>
              <LatitudeDegrees>43.35069433785974979400634765625</LatitudeDegrees>
              <LongitudeDegrees>-3.15357129089534282684326171875</LongitudeDegrees>
            </Position>
            <AltitudeMeters>-20.3999996185302734375</AltitudeMeters>
            <DistanceMeters>NAN</DistanceMeters>
          </Trackpoint>
          <Trackpoint>
            <Time>2022-07-12T16:03:51.000Z</Time>
            <Position>
              <LatitudeDegrees>43.3506974391639232635498046875</LatitudeDegrees>
              <LongitudeDegrees>-3.15373532474040985107421875</LongitudeDegrees>
            </Position>
            <AltitudeMeters>-20.200000762939453125</AltitudeMeters>
            <DistanceMeters>NAN</DistanceMeters>
          </Trackpoint>
          <Trackpoint>
            <Time>2022-07-12T16:03:55.000Z</Time>
            <Position>
              <LatitudeDegrees>43.35070431232452392578125</LatitudeDegrees>
              <LongitudeDegrees>-3.15395803190767765045166015625</LongitudeDegrees>
            </Position>
            <AltitudeMeters>-20.200000762939453125</AltitudeMeters>
            <DistanceMeters>NAN</DistanceMeters>
          </Trackpoint>
          <Trackpoint>
            <Time>2022-07-12T16:04:02.000Z</Time>
            <Position>
              <LatitudeDegrees>43.35065527819097042083740234375</LatitudeDegrees>
              <LongitudeDegrees>-3.1543031148612499237060546875</LongitudeDegrees>
            </Position>
            <AltitudeMeters>-20</AltitudeMeters>
            <DistanceMeters>NAN</DistanceMeters>
          </Trackpoint>
          <Trackpoint>
            <Time>2022-07-12T16:04:10.000Z</Time>
            <Position>
              <LatitudeDegrees>43.350585289299488067626953125</LatitudeDegrees>
              <LongitudeDegrees>-3.1547074578702449798583984375</LongitudeDegrees>
            </Position>
            <AltitudeMeters>-20.200000762939453125</AltitudeMeters>
            <DistanceMeters>NAN</DistanceMeters>
          </Trackpoint>
          <Trackpoint>
            <Time>2022-07-12T16:04:15.000Z</Time>
            <Position>
              <LatitudeDegrees>43.35062242113053798675537109375</LatitudeDegrees>
              <LongitudeDegrees>-3.154966123402118682861328125</LongitudeDegrees>
            </Position>
            <AltitudeMeters>-20</AltitudeMeters>
            <DistanceMeters>NAN</DistanceMeters>
          </Trackpoint>
          <Trackpoint>
            <Time>2022-07-12T16:04:21.000Z</Time>
            <Position>
              <LatitudeDegrees>43.350740186870098114013671875</LatitudeDegrees>
              <LongitudeDegrees>-3.15521481446921825408935546875</LongitudeDegrees>
            </Position>
            <AltitudeMeters>-19.799999237060546875</AltitudeMeters>
            <DistanceMeters>NAN</DistanceMeters>
          </Trackpoint>
          <Trackpoint>
            <Time>2022-07-12T16:04:28.000Z</Time>
            <Position>
              <LatitudeDegrees>43.3509488962590694427490234375</LatitudeDegrees>
              <LongitudeDegrees>-3.1554259546101093292236328125</LongitudeDegrees>
            </Position>
            <AltitudeMeters>-19.799999237060546875</AltitudeMeters>
            <DistanceMeters>NAN</DistanceMeters>
          </Trackpoint>
          <Trackpoint>
            <Time>2022-07-12T16:04:38.000Z</Time>
            <Position>
              <LatitudeDegrees>43.35130219347774982452392578125</LatitudeDegrees>
              <LongitudeDegrees>-3.15565587021410465240478515625</LongitudeDegrees>
            </Position>
            <AltitudeMeters>-19.799999237060546875</AltitudeMeters>
            <DistanceMeters>NAN</DistanceMeters>
          </Trackpoint>
          <Trackpoint>
            <Time>2022-07-12T16:04:46.000Z</Time>
            <Position>
              <LatitudeDegrees>43.351609893143177032470703125</LatitudeDegrees>
              <LongitudeDegrees>-3.15583792515099048614501953125</LongitudeDegrees>
            </Position>
            <AltitudeMeters>-20.200000762939453125</AltitudeMeters>
            <DistanceMeters>NAN</DistanceMeters>
          </Trackpoint>
          <Trackpoint>
            <Time>2022-07-12T16:04:53.000Z</Time>
            <Position>
              <LatitudeDegrees>43.3518588356673717498779296875</LatitudeDegrees>
              <LongitudeDegrees>-3.15601075999438762664794921875</LongitudeDegrees>
            </Position>
            <AltitudeMeters>-20</AltitudeMeters>
            <DistanceMeters>NAN</DistanceMeters>
          </Trackpoint>
          <Trackpoint>
            <Time>2022-07-12T16:04:55.000Z</Time>
            <Position>
              <LatitudeDegrees>43.35192413069307804107666015625</LatitudeDegrees>
              <LongitudeDegrees>-3.15607915632426738739013671875</LongitudeDegrees>
            </Position>
            <AltitudeMeters>-20</AltitudeMeters>
            <DistanceMeters>NAN</DistanceMeters>
          </Trackpoint>
          <Trackpoint>
            <Time>2022-07-12T16:04:57.000Z</Time>
            <Position>
              <LatitudeDegrees>43.3519828878343105316162109375</LatitudeDegrees>
              <LongitudeDegrees>-3.15615291707217693328857421875</LongitudeDegrees>
            </Position>
            <AltitudeMeters>-20</AltitudeMeters>
            <DistanceMeters>NAN</DistanceMeters>
          </Trackpoint>
          <Trackpoint>
            <Time>2022-07-12T16:05:01.000Z</Time>
            <Position>
              <LatitudeDegrees>43.3520750887691974639892578125</LatitudeDegrees>
              <LongitudeDegrees>-3.1563258357346057891845703125</LongitudeDegrees>
            </Position>
            <AltitudeMeters>-20.200000762939453125</AltitudeMeters>
            <DistanceMeters>NAN</DistanceMeters>
          </Trackpoint>
          <Trackpoint>
            <Time>2022-07-12T16:05:05.000Z</Time>
            <Position>
              <LatitudeDegrees>43.35211171768605709075927734375</LatitudeDegrees>
              <LongitudeDegrees>-3.156380988657474517822265625</LongitudeDegrees>
            </Position>
            <AltitudeMeters>-20.6000003814697265625</AltitudeMeters>
            <DistanceMeters>NAN</DistanceMeters>
          </Trackpoint>
          <Trackpoint>
            <Time>2022-07-12T16:05:06.000Z</Time>
            <Position>
              <LatitudeDegrees>43.35211171768605709075927734375</LatitudeDegrees>
              <LongitudeDegrees>-3.156380988657474517822265625</LongitudeDegrees>
            </Position>
            <AltitudeMeters>-20.6000003814697265625</AltitudeMeters>
            <DistanceMeters>NAN</DistanceMeters>
          </Trackpoint>
          <Trackpoint>
            <Time>2022-07-12T16:05:55.000Z</Time>
            <Position>
              <LatitudeDegrees>43.35210048593580722808837890625</LatitudeDegrees>
              <LongitudeDegrees>-3.15640236251056194305419921875</LongitudeDegrees>
            </Position>
            <AltitudeMeters>-20.799999237060546875</AltitudeMeters>
            <DistanceMeters>NAN</DistanceMeters>
          </Trackpoint>
          <Trackpoint>
            <Time>2022-07-12T16:05:56.000Z</Time>
            <Position>
              <LatitudeDegrees>43.352096043527126312255859375</LatitudeDegrees>
              <LongitudeDegrees>-3.15643253736197948455810546875</LongitudeDegrees>
            </Position>
            <AltitudeMeters>-20.799999237060546875</AltitudeMeters>
            <DistanceMeters>NAN</DistanceMeters>
          </Trackpoint>
          <Trackpoint>
            <Time>2022-07-12T16:05:57.000Z</Time>
            <Position>
              <LatitudeDegrees>43.35210316814482212066650390625</LatitudeDegrees>
              <LongitudeDegrees>-3.15646556206047534942626953125</LongitudeDegrees>
            </Position>
            <AltitudeMeters>-20.799999237060546875</AltitudeMeters>
            <DistanceMeters>NAN</DistanceMeters>
          </Trackpoint>
          <Trackpoint>
            <Time>2022-07-12T16:06:04.000Z</Time>
            <Position>
              <LatitudeDegrees>43.352175839245319366455078125</LatitudeDegrees>
              <LongitudeDegrees>-3.15673696808516979217529296875</LongitudeDegrees>
            </Position>
            <AltitudeMeters>-21.200000762939453125</AltitudeMeters>
            <DistanceMeters>NAN</DistanceMeters>
          </Trackpoint>
          <Trackpoint>
            <Time>2022-07-12T16:06:12.000Z</Time>
            <Position>
              <LatitudeDegrees>43.35226862691342830657958984375</LatitudeDegrees>
              <LongitudeDegrees>-3.1570879183709621429443359375</LongitudeDegrees>
            </Position>
            <AltitudeMeters>-21.200000762939453125</AltitudeMeters>
            <DistanceMeters>NAN</DistanceMeters>
          </Trackpoint>
          <Trackpoint>
            <Time>2022-07-12T16:06:15.000Z</Time>
            <Position>
              <LatitudeDegrees>43.352285809814929962158203125</LatitudeDegrees>
              <LongitudeDegrees>-3.1572270579636096954345703125</LongitudeDegrees>
            </Position>
            <AltitudeMeters>-21.3999996185302734375</AltitudeMeters>
            <DistanceMeters>NAN</DistanceMeters>
          </Trackpoint>
          <Trackpoint>
            <Time>2022-07-12T16:06:18.000Z</Time>
            <Position>
              <LatitudeDegrees>43.35227080620825290679931640625</LatitudeDegrees>
              <LongitudeDegrees>-3.15736343152821063995361328125</LongitudeDegrees>
            </Position>
            <AltitudeMeters>-21.6000003814697265625</AltitudeMeters>
            <DistanceMeters>NAN</DistanceMeters>
          </Trackpoint>
          <Trackpoint>
            <Time>2022-07-12T16:06:22.000Z</Time>
            <Position>
              <LatitudeDegrees>43.35222906433045864105224609375</LatitudeDegrees>
              <LongitudeDegrees>-3.15754448063671588897705078125</LongitudeDegrees>
            </Position>
            <AltitudeMeters>-21.799999237060546875</AltitudeMeters>
            <DistanceMeters>NAN</DistanceMeters>
          </Trackpoint>
          <Trackpoint>
            <Time>2022-07-12T16:06:25.000Z</Time>
            <Position>
              <LatitudeDegrees>43.35218447260558605194091796875</LatitudeDegrees>
              <LongitudeDegrees>-3.15766735933721065521240234375</LongitudeDegrees>
            </Position>
            <AltitudeMeters>-21.799999237060546875</AltitudeMeters>
            <DistanceMeters>NAN</DistanceMeters>
          </Trackpoint>
          <Trackpoint>
            <Time>2022-07-12T16:06:41.000Z</Time>
            <Position>
              <LatitudeDegrees>43.35197559557855129241943359375</LatitudeDegrees>
              <LongitudeDegrees>-3.15862499177455902099609375</LongitudeDegrees>
            </Position>
            <AltitudeMeters>-22.200000762939453125</AltitudeMeters>
            <DistanceMeters>NAN</DistanceMeters>
          </Trackpoint>
          <Trackpoint>
            <Time>2022-07-12T16:06:44.000Z</Time>
            <Position>
              <LatitudeDegrees>43.3518732525408267974853515625</LatitudeDegrees>
              <LongitudeDegrees>-3.15871459431946277618408203125</LongitudeDegrees>
            </Position>
            <AltitudeMeters>-22.3999996185302734375</AltitudeMeters>
            <DistanceMeters>NAN</DistanceMeters>
          </Trackpoint>
          <Trackpoint>
            <Time>2022-07-12T16:06:46.000Z</Time>
            <Position>
              <LatitudeDegrees>43.3518548123538494110107421875</LatitudeDegrees>
              <LongitudeDegrees>-3.158823810517787933349609375</LongitudeDegrees>
            </Position>
            <AltitudeMeters>-22.3999996185302734375</AltitudeMeters>
            <DistanceMeters>NAN</DistanceMeters>
          </Trackpoint>
          <Trackpoint>
            <Time>2022-07-12T16:06:49.000Z</Time>
            <Position>
              <LatitudeDegrees>43.35180527530610561370849609375</LatitudeDegrees>
              <LongitudeDegrees>-3.15900879912078380584716796875</LongitudeDegrees>
            </Position>
            <AltitudeMeters>-22.3999996185302734375</AltitudeMeters>
            <DistanceMeters>NAN</DistanceMeters>
          </Trackpoint>
          <Trackpoint>
            <Time>2022-07-12T16:06:54.000Z</Time>
            <Position>
              <LatitudeDegrees>43.3517176844179630279541015625</LatitudeDegrees>
              <LongitudeDegrees>-3.15919521264731884002685546875</LongitudeDegrees>
            </Position>
            <AltitudeMeters>-22.200000762939453125</AltitudeMeters>
            <DistanceMeters>NAN</DistanceMeters>
          </Trackpoint>
          <Trackpoint>
            <Time>2022-07-12T16:07:00.000Z</Time>
            <Position>
              <LatitudeDegrees>43.35171307437121868133544921875</LatitudeDegrees>
              <LongitudeDegrees>-3.1594308279454708099365234375</LongitudeDegrees>
            </Position>
            <AltitudeMeters>-22.200000762939453125</AltitudeMeters>
            <DistanceMeters>NAN</DistanceMeters>
          </Trackpoint>
          <Trackpoint>
            <Time>2022-07-12T16:07:06.000Z</Time>
            <Position>
              <LatitudeDegrees>43.351633362472057342529296875</LatitudeDegrees>
              <LongitudeDegrees>-3.1597060896456241607666015625</LongitudeDegrees>
            </Position>
            <AltitudeMeters>-22.3999996185302734375</AltitudeMeters>
            <DistanceMeters>NAN</DistanceMeters>
          </Trackpoint>
          <Trackpoint>
            <Time>2022-07-12T16:07:10.000Z</Time>
            <Position>
              <LatitudeDegrees>43.35151425562798976898193359375</LatitudeDegrees>
              <LongitudeDegrees>-3.15982536412775516510009765625</LongitudeDegrees>
            </Position>
            <AltitudeMeters>-22.799999237060546875</AltitudeMeters>
            <DistanceMeters>NAN</DistanceMeters>
          </Trackpoint>
          <Trackpoint>
            <Time>2022-07-12T16:07:16.000Z</Time>
            <Position>
              <LatitudeDegrees>43.35127470083534717559814453125</LatitudeDegrees>
              <LongitudeDegrees>-3.15981077961623668670654296875</LongitudeDegrees>
            </Position>
            <AltitudeMeters>-23</AltitudeMeters>
            <DistanceMeters>NAN</DistanceMeters>
          </Trackpoint>
          <Trackpoint>
            <Time>2022-07-12T16:07:21.000Z</Time>
            <Position>
              <LatitudeDegrees>43.3510972559452056884765625</LatitudeDegrees>
              <LongitudeDegrees>-3.1598371826112270355224609375</LongitudeDegrees>
            </Position>
            <AltitudeMeters>-23</AltitudeMeters>
            <DistanceMeters>NAN</DistanceMeters>
          </Trackpoint>
          <Trackpoint>
            <Time>2022-07-12T16:07:25.000Z</Time>
            <Position>
              <LatitudeDegrees>43.35094227455556392669677734375</LatitudeDegrees>
              <LongitudeDegrees>-3.15997925586998462677001953125</LongitudeDegrees>
            </Position>
            <AltitudeMeters>-22.799999237060546875</AltitudeMeters>
            <DistanceMeters>NAN</DistanceMeters>
          </Trackpoint>
          <Trackpoint>
            <Time>2022-07-12T16:07:26.000Z</Time>
            <Position>
              <LatitudeDegrees>43.35091612301766872406005859375</LatitudeDegrees>
              <LongitudeDegrees>-3.16003574989736080169677734375</LongitudeDegrees>
            </Position>
            <AltitudeMeters>-22.799999237060546875</AltitudeMeters>
            <DistanceMeters>NAN</DistanceMeters>
          </Trackpoint>
          <Trackpoint>
            <Time>2022-07-12T16:07:31.000Z</Time>
            <Position>
              <LatitudeDegrees>43.350821323692798614501953125</LatitudeDegrees>
              <LongitudeDegrees>-3.160307072103023529052734375</LongitudeDegrees>
            </Position>
            <AltitudeMeters>-23</AltitudeMeters>
            <DistanceMeters>NAN</DistanceMeters>
          </Trackpoint>
          <Trackpoint>
            <Time>2022-07-12T16:07:33.000Z</Time>
            <Position>
              <LatitudeDegrees>43.35078469477593898773193359375</LatitudeDegrees>
              <LongitudeDegrees>-3.160402961075305938720703125</LongitudeDegrees>
            </Position>
            <AltitudeMeters>-23.200000762939453125</AltitudeMeters>
            <DistanceMeters>NAN</DistanceMeters>
          </Trackpoint>
          <Trackpoint>
            <Time>2022-07-12T16:07:38.000Z</Time>
            <Position>
              <LatitudeDegrees>43.35067774169147014617919921875</LatitudeDegrees>
              <LongitudeDegrees>-3.16065148450434207916259765625</LongitudeDegrees>
            </Position>
            <AltitudeMeters>-23.3999996185302734375</AltitudeMeters>
            <DistanceMeters>NAN</DistanceMeters>
          </Trackpoint>
          <Trackpoint>
            <Time>2022-07-12T16:07:42.000Z</Time>
            <Position>
              <LatitudeDegrees>43.3505790866911411285400390625</LatitudeDegrees>
              <LongitudeDegrees>-3.160879723727703094482421875</LongitudeDegrees>
            </Position>
            <AltitudeMeters>-23.6000003814697265625</AltitudeMeters>
            <DistanceMeters>NAN</DistanceMeters>
          </Trackpoint>
          <Trackpoint>
            <Time>2022-07-12T16:07:43.000Z</Time>
            <Position>
              <LatitudeDegrees>43.35055771283805370330810546875</LatitudeDegrees>
              <LongitudeDegrees>-3.1609399057924747467041015625</LongitudeDegrees>
            </Position>
            <AltitudeMeters>-23.6000003814697265625</AltitudeMeters>
            <DistanceMeters>NAN</DistanceMeters>
          </Trackpoint>
          <Trackpoint>
            <Time>2022-07-12T16:07:46.000Z</Time>
            <Position>
              <LatitudeDegrees>43.3504875563085079193115234375</LatitudeDegrees>
              <LongitudeDegrees>-3.16112455911934375762939453125</LongitudeDegrees>
            </Position>
            <AltitudeMeters>-23.799999237060546875</AltitudeMeters>
            <DistanceMeters>NAN</DistanceMeters>
          </Trackpoint>
          <Trackpoint>
            <Time>2022-07-12T16:07:48.000Z</Time>
            <Position>
              <LatitudeDegrees>43.35046333260834217071533203125</LatitudeDegrees>
              <LongitudeDegrees>-3.1612493656575679779052734375</LongitudeDegrees>
            </Position>
            <AltitudeMeters>-23.799999237060546875</AltitudeMeters>
            <DistanceMeters>NAN</DistanceMeters>
          </Trackpoint>
          <Trackpoint>
            <Time>2022-07-12T16:07:55.000Z</Time>
            <Position>
              <LatitudeDegrees>43.35044707171618938446044921875</LatitudeDegrees>
              <LongitudeDegrees>-3.16169167868793010711669921875</LongitudeDegrees>
            </Position>
            <AltitudeMeters>-24.3999996185302734375</AltitudeMeters>
            <DistanceMeters>NAN</DistanceMeters>
          </Trackpoint>
          <Trackpoint>
            <Time>2022-07-12T16:07:56.000Z</Time>
            <Position>
              <LatitudeDegrees>43.35044807754456996917724609375</LatitudeDegrees>
              <LongitudeDegrees>-3.16174448467791080474853515625</LongitudeDegrees>
            </Position>
            <AltitudeMeters>-24.3999996185302734375</AltitudeMeters>
            <DistanceMeters>NAN</DistanceMeters>
          </Trackpoint>
          <Trackpoint>
            <Time>2022-07-12T16:07:59.000Z</Time>
            <Position>
              <LatitudeDegrees>43.3504697866737842559814453125</LatitudeDegrees>
              <LongitudeDegrees>-3.16192142665386199951171875</LongitudeDegrees>
            </Position>
            <AltitudeMeters>-24.6000003814697265625</AltitudeMeters>
            <DistanceMeters>NAN</DistanceMeters>
          </Trackpoint>
          <Trackpoint>
            <Time>2022-07-12T16:08:01.000Z</Time>
            <Position>
              <LatitudeDegrees>43.35048898123204708099365234375</LatitudeDegrees>
              <LongitudeDegrees>-3.16203676164150238037109375</LongitudeDegrees>
            </Position>
            <AltitudeMeters>-24.799999237060546875</AltitudeMeters>
            <DistanceMeters>NAN</DistanceMeters>
          </Trackpoint>
          <Trackpoint>
            <Time>2022-07-12T16:08:04.000Z</Time>
            <Position>
              <LatitudeDegrees>43.3505106903612613677978515625</LatitudeDegrees>
              <LongitudeDegrees>-3.1622049026191234588623046875</LongitudeDegrees>
            </Position>
            <AltitudeMeters>-25</AltitudeMeters>
            <DistanceMeters>NAN</DistanceMeters>
          </Trackpoint>
          <Trackpoint>
            <Time>2022-07-12T16:08:06.000Z</Time>
            <Position>
              <LatitudeDegrees>43.35052234120666980743408203125</LatitudeDegrees>
              <LongitudeDegrees>-3.162316046655178070068359375</LongitudeDegrees>
            </Position>
            <AltitudeMeters>-25</AltitudeMeters>
            <DistanceMeters>NAN</DistanceMeters>
          </Trackpoint>
          <Trackpoint>
            <Time>2022-07-12T16:08:07.000Z</Time>
            <Position>
              <LatitudeDegrees>43.35053474642336368560791015625</LatitudeDegrees>
              <LongitudeDegrees>-3.1623809225857257843017578125</LongitudeDegrees>
            </Position>
            <AltitudeMeters>-25</AltitudeMeters>
            <DistanceMeters>NAN</DistanceMeters>
          </Trackpoint>
          <Trackpoint>
            <Time>2022-07-12T16:08:09.000Z</Time>
            <Position>
              <LatitudeDegrees>43.3505767397582530975341796875</LatitudeDegrees>
              <LongitudeDegrees>-3.162502460181713104248046875</LongitudeDegrees>
            </Position>
            <AltitudeMeters>-25.200000762939453125</AltitudeMeters>
            <DistanceMeters>NAN</DistanceMeters>
          </Trackpoint>
          <Trackpoint>
            <Time>2022-07-12T16:08:12.000Z</Time>
            <Position>
              <LatitudeDegrees>43.35066835395991802215576171875</LatitudeDegrees>
              <LongitudeDegrees>-3.16265693865716457366943359375</LongitudeDegrees>
            </Position>
            <AltitudeMeters>-25.3999996185302734375</AltitudeMeters>
            <DistanceMeters>NAN</DistanceMeters>
          </Trackpoint>
          <Trackpoint>
            <Time>2022-07-12T16:08:13.000Z</Time>
            <Position>
              <LatitudeDegrees>43.35069148801267147064208984375</LatitudeDegrees>
              <LongitudeDegrees>-3.16269926726818084716796875</LongitudeDegrees>
            </Position>
            <AltitudeMeters>-25.6000003814697265625</AltitudeMeters>
            <DistanceMeters>NAN</DistanceMeters>
          </Trackpoint>
          <Trackpoint>
            <Time>2022-07-12T16:08:16.000Z</Time>
            <Position>
              <LatitudeDegrees>43.35077446885406970977783203125</LatitudeDegrees>
              <LongitudeDegrees>-3.16288878209888935089111328125</LongitudeDegrees>
            </Position>
            <AltitudeMeters>-25.6000003814697265625</AltitudeMeters>
            <DistanceMeters>NAN</DistanceMeters>
          </Trackpoint>
          <Trackpoint>
            <Time>2022-07-12T16:08:23.000Z</Time>
            <Position>
              <LatitudeDegrees>43.3509535901248455047607421875</LatitudeDegrees>
              <LongitudeDegrees>-3.163327239453792572021484375</LongitudeDegrees>
            </Position>
            <AltitudeMeters>-26.200000762939453125</AltitudeMeters>
            <DistanceMeters>NAN</DistanceMeters>
          </Trackpoint>
          <Trackpoint>
            <Time>2022-07-12T16:08:27.000Z</Time>
            <Position>
              <LatitudeDegrees>43.351044952869415283203125</LatitudeDegrees>
              <LongitudeDegrees>-3.16359353251755237579345703125</LongitudeDegrees>
            </Position>
            <AltitudeMeters>-26.200000762939453125</AltitudeMeters>
            <DistanceMeters>NAN</DistanceMeters>
          </Trackpoint>
          <Trackpoint>
            <Time>2022-07-12T16:08:29.000Z</Time>
            <Position>
              <LatitudeDegrees>43.35107018239796161651611328125</LatitudeDegrees>
              <LongitudeDegrees>-3.16371406428515911102294921875</LongitudeDegrees>
            </Position>
            <AltitudeMeters>-26.200000762939453125</AltitudeMeters>
            <DistanceMeters>NAN</DistanceMeters>
          </Trackpoint>
          <Trackpoint>
            <Time>2022-07-12T16:08:30.000Z</Time>
            <Position>
              <LatitudeDegrees>43.3510799892246723175048828125</LatitudeDegrees>
              <LongitudeDegrees>-3.16377357579767704010009765625</LongitudeDegrees>
            </Position>
            <AltitudeMeters>-26.200000762939453125</AltitudeMeters>
            <DistanceMeters>NAN</DistanceMeters>
          </Trackpoint>
          <Trackpoint>
            <Time>2022-07-12T16:08:31.000Z</Time>
            <Position>
              <LatitudeDegrees>43.351099602878093719482421875</LatitudeDegrees>
              <LongitudeDegrees>-3.16383677534759044647216796875</LongitudeDegrees>
            </Position>
            <AltitudeMeters>-26.200000762939453125</AltitudeMeters>
            <DistanceMeters>NAN</DistanceMeters>
          </Trackpoint>
          <Trackpoint>
            <Time>2022-07-12T16:08:33.000Z</Time>
            <Position>
              <LatitudeDegrees>43.35115802474319934844970703125</LatitudeDegrees>
              <LongitudeDegrees>-3.1639476679265499114990234375</LongitudeDegrees>
            </Position>
            <AltitudeMeters>-26.3999996185302734375</AltitudeMeters>
            <DistanceMeters>NAN</DistanceMeters>
          </Trackpoint>
          <Trackpoint>
            <Time>2022-07-12T16:08:34.000Z</Time>
            <Position>
              <LatitudeDegrees>43.3511899597942829132080078125</LatitudeDegrees>
              <LongitudeDegrees>-3.16399603150784969329833984375</LongitudeDegrees>
            </Position>
            <AltitudeMeters>-26.200000762939453125</AltitudeMeters>
            <DistanceMeters>NAN</DistanceMeters>
          </Trackpoint>
          <Trackpoint>
            <Time>2022-07-12T16:08:37.000Z</Time>
            <Position>
              <LatitudeDegrees>43.351280987262725830078125</LatitudeDegrees>
              <LongitudeDegrees>-3.16411622799932956695556640625</LongitudeDegrees>
            </Position>
            <AltitudeMeters>-26.200000762939453125</AltitudeMeters>
            <DistanceMeters>NAN</DistanceMeters>
          </Trackpoint>
          <Trackpoint>
            <Time>2022-07-12T16:08:40.000Z</Time>
            <Position>
              <LatitudeDegrees>43.35139053873717784881591796875</LatitudeDegrees>
              <LongitudeDegrees>-3.1642105244100093841552734375</LongitudeDegrees>
            </Position>
            <AltitudeMeters>-26.200000762939453125</AltitudeMeters>
            <DistanceMeters>NAN</DistanceMeters>
          </Trackpoint>
          <Trackpoint>
            <Time>2022-07-12T16:08:46.000Z</Time>
            <Position>
              <LatitudeDegrees>43.35155784152448177337646484375</LatitudeDegrees>
              <LongitudeDegrees>-3.16433985717594623565673828125</LongitudeDegrees>
            </Position>
            <AltitudeMeters>-26.200000762939453125</AltitudeMeters>
            <DistanceMeters>NAN</DistanceMeters>
          </Trackpoint>
          <Trackpoint>
            <Time>2022-07-12T16:08:47.000Z</Time>
            <Position>
              <LatitudeDegrees>43.35155784152448177337646484375</LatitudeDegrees>
              <LongitudeDegrees>-3.16433985717594623565673828125</LongitudeDegrees>
            </Position>
            <AltitudeMeters>-26.3999996185302734375</AltitudeMeters>
            <DistanceMeters>NAN</DistanceMeters>
          </Trackpoint>
          <Trackpoint>
            <Time>2022-07-12T16:09:25.000Z</Time>
            <Position>
              <LatitudeDegrees>43.35158432833850383758544921875</LatitudeDegrees>
              <LongitudeDegrees>-3.164364583790302276611328125</LongitudeDegrees>
            </Position>
            <AltitudeMeters>-27</AltitudeMeters>
            <DistanceMeters>NAN</DistanceMeters>
          </Trackpoint>
          <Trackpoint>
            <Time>2022-07-12T16:09:26.000Z</Time>
            <Position>
              <LatitudeDegrees>43.35161115042865276336669921875</LatitudeDegrees>
              <LongitudeDegrees>-3.1643878854811191558837890625</LongitudeDegrees>
            </Position>
            <AltitudeMeters>-26.799999237060546875</AltitudeMeters>
            <DistanceMeters>NAN</DistanceMeters>
          </Trackpoint>
          <Trackpoint>
            <Time>2022-07-12T16:09:27.000Z</Time>
            <Position>
              <LatitudeDegrees>43.351644091308116912841796875</LatitudeDegrees>
              <LongitudeDegrees>-3.16441311500966548919677734375</LongitudeDegrees>
            </Position>
            <AltitudeMeters>-26.799999237060546875</AltitudeMeters>
            <DistanceMeters>NAN</DistanceMeters>
          </Trackpoint>
          <Trackpoint>
            <Time>2022-07-12T16:09:33.000Z</Time>
            <Position>
              <LatitudeDegrees>43.35186637938022613525390625</LatitudeDegrees>
              <LongitudeDegrees>-3.16459634341299533843994140625</LongitudeDegrees>
            </Position>
            <AltitudeMeters>-26.6000003814697265625</AltitudeMeters>
            <DistanceMeters>NAN</DistanceMeters>
          </Trackpoint>
          <Trackpoint>
            <Time>2022-07-12T16:09:42.000Z</Time>
            <Position>
              <LatitudeDegrees>43.35220626555383205413818359375</LatitudeDegrees>
              <LongitudeDegrees>-3.164893649518489837646484375</LongitudeDegrees>
            </Position>
            <AltitudeMeters>-26.200000762939453125</AltitudeMeters>
            <DistanceMeters>NAN</DistanceMeters>
          </Trackpoint>
          <Trackpoint>
            <Time>2022-07-12T16:09:50.000Z</Time>
            <Position>
              <LatitudeDegrees>43.35250801406800746917724609375</LatitudeDegrees>
              <LongitudeDegrees>-3.16517335362732410430908203125</LongitudeDegrees>
            </Position>
            <AltitudeMeters>-26.3999996185302734375</AltitudeMeters>
            <DistanceMeters>NAN</DistanceMeters>
          </Trackpoint>
          <Trackpoint>
            <Time>2022-07-12T16:09:51.000Z</Time>
            <Position>
              <LatitudeDegrees>43.35254187695682048797607421875</LatitudeDegrees>
              <LongitudeDegrees>-3.1652133353054523468017578125</LongitudeDegrees>
            </Position>
            <AltitudeMeters>-26.3999996185302734375</AltitudeMeters>
            <DistanceMeters>NAN</DistanceMeters>
          </Trackpoint>
          <Trackpoint>
            <Time>2022-07-12T16:09:55.000Z</Time>
            <Position>
              <LatitudeDegrees>43.35265251807868480682373046875</LatitudeDegrees>
              <LongitudeDegrees>-3.1654101423919200897216796875</LongitudeDegrees>
            </Position>
            <AltitudeMeters>-26.3999996185302734375</AltitudeMeters>
            <DistanceMeters>NAN</DistanceMeters>
          </Trackpoint>
          <Trackpoint>
            <Time>2022-07-12T16:09:56.000Z</Time>
            <Position>
              <LatitudeDegrees>43.35267774760723114013671875</LatitudeDegrees>
              <LongitudeDegrees>-3.1654755212366580963134765625</LongitudeDegrees>
            </Position>
            <AltitudeMeters>-26.3999996185302734375</AltitudeMeters>
            <DistanceMeters>NAN</DistanceMeters>
          </Trackpoint>
          <Trackpoint>
            <Time>2022-07-12T16:09:58.000Z</Time>
            <Position>
              <LatitudeDegrees>43.35270046256482601165771484375</LatitudeDegrees>
              <LongitudeDegrees>-3.16558624617755413055419921875</LongitudeDegrees>
            </Position>
            <AltitudeMeters>-26.3999996185302734375</AltitudeMeters>
            <DistanceMeters>NAN</DistanceMeters>
          </Trackpoint>
          <Trackpoint>
            <Time>2022-07-12T16:09:59.000Z</Time>
            <Position>
              <LatitudeDegrees>43.352704234421253204345703125</LatitudeDegrees>
              <LongitudeDegrees>-3.16563670523464679718017578125</LongitudeDegrees>
            </Position>
            <AltitudeMeters>-26.3999996185302734375</AltitudeMeters>
            <DistanceMeters>NAN</DistanceMeters>
          </Trackpoint>
          <Trackpoint>
            <Time>2022-07-12T16:10:06.000Z</Time>
            <Position>
              <LatitudeDegrees>43.3527275361120700836181640625</LatitudeDegrees>
              <LongitudeDegrees>-3.16601858474314212799072265625</LongitudeDegrees>
            </Position>
            <AltitudeMeters>-26.6000003814697265625</AltitudeMeters>
            <DistanceMeters>NAN</DistanceMeters>
          </Trackpoint>
          <Trackpoint>
            <Time>2022-07-12T16:10:07.000Z</Time>
            <Position>
              <LatitudeDegrees>43.35273767821490764617919921875</LatitudeDegrees>
              <LongitudeDegrees>-3.1660696305334568023681640625</LongitudeDegrees>
            </Position>
            <AltitudeMeters>-26.6000003814697265625</AltitudeMeters>
            <DistanceMeters>NAN</DistanceMeters>
          </Trackpoint>
          <Trackpoint>
            <Time>2022-07-12T16:10:10.000Z</Time>
            <Position>
              <LatitudeDegrees>43.3527999557554721832275390625</LatitudeDegrees>
              <LongitudeDegrees>-3.16620851866900920867919921875</LongitudeDegrees>
            </Position>
            <AltitudeMeters>-26.6000003814697265625</AltitudeMeters>
            <DistanceMeters>NAN</DistanceMeters>
          </Trackpoint>
          <Trackpoint>
            <Time>2022-07-12T16:10:11.000Z</Time>
            <Position>
              <LatitudeDegrees>43.3528271131217479705810546875</LatitudeDegrees>
              <LongitudeDegrees>-3.16625294275581836700439453125</LongitudeDegrees>
            </Position>
            <AltitudeMeters>-26.3999996185302734375</AltitudeMeters>
            <DistanceMeters>NAN</DistanceMeters>
          </Trackpoint>
          <Trackpoint>
            <Time>2022-07-12T16:10:12.000Z</Time>
            <Position>
              <LatitudeDegrees>43.352855108678340911865234375</LatitudeDegrees>
              <LongitudeDegrees>-3.16629501990973949432373046875</LongitudeDegrees>
            </Position>
            <AltitudeMeters>-26.3999996185302734375</AltitudeMeters>
            <DistanceMeters>NAN</DistanceMeters>
          </Trackpoint>
          <Trackpoint>
            <Time>2022-07-12T16:10:14.000Z</Time>
            <Position>
              <LatitudeDegrees>43.352914117276668548583984375</LatitudeDegrees>
              <LongitudeDegrees>-3.1663626618683338165283203125</LongitudeDegrees>
            </Position>
            <AltitudeMeters>-26.3999996185302734375</AltitudeMeters>
            <DistanceMeters>NAN</DistanceMeters>
          </Trackpoint>
          <Trackpoint>
            <Time>2022-07-12T16:10:19.000Z</Time>
            <Position>
              <LatitudeDegrees>43.3531231619417667388916015625</LatitudeDegrees>
              <LongitudeDegrees>-3.16656156443059444427490234375</LongitudeDegrees>
            </Position>
            <AltitudeMeters>-26.200000762939453125</AltitudeMeters>
            <DistanceMeters>NAN</DistanceMeters>
          </Trackpoint>
          <Trackpoint>
            <Time>2022-07-12T16:10:20.000Z</Time>
            <Position>
              <LatitudeDegrees>43.353152833878993988037109375</LatitudeDegrees>
              <LongitudeDegrees>-3.16659240983426570892333984375</LongitudeDegrees>
            </Position>
            <AltitudeMeters>-26.200000762939453125</AltitudeMeters>
            <DistanceMeters>NAN</DistanceMeters>
          </Trackpoint>
          <Trackpoint>
            <Time>2022-07-12T16:10:23.000Z</Time>
            <Position>
              <LatitudeDegrees>43.35323992185294628143310546875</LatitudeDegrees>
              <LongitudeDegrees>-3.1667294539511203765869140625</LongitudeDegrees>
            </Position>
            <AltitudeMeters>-26.3999996185302734375</AltitudeMeters>
            <DistanceMeters>NAN</DistanceMeters>
          </Trackpoint>
          <Trackpoint>
            <Time>2022-07-12T16:10:25.000Z</Time>
            <Position>
              <LatitudeDegrees>43.3532690070569515228271484375</LatitudeDegrees>
              <LongitudeDegrees>-3.16680430434644222259521484375</LongitudeDegrees>
            </Position>
            <AltitudeMeters>-26.3999996185302734375</AltitudeMeters>
            <DistanceMeters>NAN</DistanceMeters>
          </Trackpoint>
          <Trackpoint>
            <Time>2022-07-12T16:10:29.000Z</Time>
            <Position>
              <LatitudeDegrees>43.35325844585895538330078125</LatitudeDegrees>
              <LongitudeDegrees>-3.16696892492473125457763671875</LongitudeDegrees>
            </Position>
            <AltitudeMeters>-26.3999996185302734375</AltitudeMeters>
            <DistanceMeters>NAN</DistanceMeters>
          </Trackpoint>
          <Trackpoint>
            <Time>2022-07-12T16:10:32.000Z</Time>
            <Position>
              <LatitudeDegrees>43.3532277680933475494384765625</LatitudeDegrees>
              <LongitudeDegrees>-3.1670506484806537628173828125</LongitudeDegrees>
            </Position>
            <AltitudeMeters>-26.3999996185302734375</AltitudeMeters>
            <DistanceMeters>NAN</DistanceMeters>
          </Trackpoint>
          <Trackpoint>
            <Time>2022-07-12T16:10:33.000Z</Time>
            <Position>
              <LatitudeDegrees>43.3532126806676387786865234375</LatitudeDegrees>
              <LongitudeDegrees>-3.1670801527798175811767578125</LongitudeDegrees>
            </Position>
            <AltitudeMeters>-26.200000762939453125</AltitudeMeters>
            <DistanceMeters>NAN</DistanceMeters>
          </Trackpoint>
          <Trackpoint>
            <Time>2022-07-12T16:10:38.000Z</Time>
            <Position>
              <LatitudeDegrees>43.35309105925261974334716796875</LatitudeDegrees>
              <LongitudeDegrees>-3.16724603064358234405517578125</LongitudeDegrees>
            </Position>
            <AltitudeMeters>-26.200000762939453125</AltitudeMeters>
            <DistanceMeters>NAN</DistanceMeters>
          </Trackpoint>
          <Trackpoint>
            <Time>2022-07-12T16:10:42.000Z</Time>
            <Position>
              <LatitudeDegrees>43.3529444597661495208740234375</LatitudeDegrees>
              <LongitudeDegrees>-3.16747762262821197509765625</LongitudeDegrees>
            </Position>
            <AltitudeMeters>-27.200000762939453125</AltitudeMeters>
            <DistanceMeters>NAN</DistanceMeters>
          </Trackpoint>
          <Trackpoint>
            <Time>2022-07-12T16:10:44.000Z</Time>
            <Position>
              <LatitudeDegrees>43.35286944173276424407958984375</LatitudeDegrees>
              <LongitudeDegrees>-3.1676233001053333282470703125</LongitudeDegrees>
            </Position>
            <AltitudeMeters>-27.6000003814697265625</AltitudeMeters>
            <DistanceMeters>NAN</DistanceMeters>
          </Trackpoint>
          <Trackpoint>
            <Time>2022-07-12T16:10:46.000Z</Time>
            <Position>
              <LatitudeDegrees>43.35282702930271625518798828125</LatitudeDegrees>
              <LongitudeDegrees>-3.16779278218746185302734375</LongitudeDegrees>
            </Position>
            <AltitudeMeters>-28.200000762939453125</AltitudeMeters>
            <DistanceMeters>NAN</DistanceMeters>
          </Trackpoint>
          <Trackpoint>
            <Time>2022-07-12T16:10:48.000Z</Time>
            <Position>
              <LatitudeDegrees>43.352867178618907928466796875</LatitudeDegrees>
              <LongitudeDegrees>-3.16796268336474895477294921875</LongitudeDegrees>
            </Position>
            <AltitudeMeters>-28.3999996185302734375</AltitudeMeters>
            <DistanceMeters>NAN</DistanceMeters>
          </Trackpoint>
          <Trackpoint>
            <Time>2022-07-12T16:10:49.000Z</Time>
            <Position>
              <LatitudeDegrees>43.35291135124862194061279296875</LatitudeDegrees>
              <LongitudeDegrees>-3.16803418099880218505859375</LongitudeDegrees>
            </Position>
            <AltitudeMeters>-28.6000003814697265625</AltitudeMeters>
            <DistanceMeters>NAN</DistanceMeters>
          </Trackpoint>
          <Trackpoint>
            <Time>2022-07-12T16:10:51.000Z</Time>
            <Position>
              <LatitudeDegrees>43.3529900573194026947021484375</LatitudeDegrees>
              <LongitudeDegrees>-3.168163597583770751953125</LongitudeDegrees>
            </Position>
            <AltitudeMeters>-29.3999996185302734375</AltitudeMeters>
            <DistanceMeters>NAN</DistanceMeters>
          </Trackpoint>
          <Trackpoint>
            <Time>2022-07-12T16:10:53.000Z</Time>
            <Position>
              <LatitudeDegrees>43.353018052875995635986328125</LatitudeDegrees>
              <LongitudeDegrees>-3.16830650903284549713134765625</LongitudeDegrees>
            </Position>
            <AltitudeMeters>-30.3999996185302734375</AltitudeMeters>
            <DistanceMeters>NAN</DistanceMeters>
          </Trackpoint>
          <Trackpoint>
            <Time>2022-07-12T16:10:54.000Z</Time>
            <Position>
              <LatitudeDegrees>43.35300900042057037353515625</LatitudeDegrees>
              <LongitudeDegrees>-3.1683862209320068359375</LongitudeDegrees>
            </Position>
            <AltitudeMeters>-31</AltitudeMeters>
            <DistanceMeters>NAN</DistanceMeters>
          </Trackpoint>
          <Trackpoint>
            <Time>2022-07-12T16:10:55.000Z</Time>
            <Position>
              <LatitudeDegrees>43.3529739640653133392333984375</LatitudeDegrees>
              <LongitudeDegrees>-3.16847733221948146820068359375</LongitudeDegrees>
            </Position>
            <AltitudeMeters>-31.6000003814697265625</AltitudeMeters>
            <DistanceMeters>NAN</DistanceMeters>
          </Trackpoint>
          <Trackpoint>
            <Time>2022-07-12T16:10:56.000Z</Time>
            <Position>
              <LatitudeDegrees>43.35293767042458057403564453125</LatitudeDegrees>
              <LongitudeDegrees>-3.16854111850261688232421875</LongitudeDegrees>
            </Position>
            <AltitudeMeters>-32</AltitudeMeters>
            <DistanceMeters>NAN</DistanceMeters>
          </Trackpoint>
          <Trackpoint>
            <Time>2022-07-12T16:10:57.000Z</Time>
            <Position>
              <LatitudeDegrees>43.352904058992862701416015625</LatitudeDegrees>
              <LongitudeDegrees>-3.1686009652912616729736328125</LongitudeDegrees>
            </Position>
            <AltitudeMeters>-32.200000762939453125</AltitudeMeters>
            <DistanceMeters>NAN</DistanceMeters>
          </Trackpoint>
          <Trackpoint>
            <Time>2022-07-12T16:10:58.000Z</Time>
            <Position>
              <LatitudeDegrees>43.3528693579137325286865234375</LatitudeDegrees>
              <LongitudeDegrees>-3.1686495803296566009521484375</LongitudeDegrees>
            </Position>
            <AltitudeMeters>-32.40000152587890625</AltitudeMeters>
            <DistanceMeters>NAN</DistanceMeters>
          </Trackpoint>
          <Trackpoint>
            <Time>2022-07-12T16:11:00.000Z</Time>
            <Position>
              <LatitudeDegrees>43.352803476154804229736328125</LatitudeDegrees>
              <LongitudeDegrees>-3.16868587397038936614990234375</LongitudeDegrees>
            </Position>
            <AltitudeMeters>-33.200000762939453125</AltitudeMeters>
            <DistanceMeters>NAN</DistanceMeters>
          </Trackpoint>
          <Trackpoint>
            <Time>2022-07-12T16:11:01.000Z</Time>
            <Position>
              <LatitudeDegrees>43.35277606733143329620361328125</LatitudeDegrees>
              <LongitudeDegrees>-3.16869911737740039825439453125</LongitudeDegrees>
            </Position>
            <AltitudeMeters>-33.40000152587890625</AltitudeMeters>
            <DistanceMeters>NAN</DistanceMeters>
          </Trackpoint>
          <Trackpoint>
            <Time>2022-07-12T16:11:02.000Z</Time>
            <Position>
              <LatitudeDegrees>43.35275980643928050994873046875</LatitudeDegrees>
              <LongitudeDegrees>-3.168715126812458038330078125</LongitudeDegrees>
            </Position>
            <AltitudeMeters>-33.40000152587890625</AltitudeMeters>
            <DistanceMeters>NAN</DistanceMeters>
          </Trackpoint>
          <Trackpoint>
            <Time>2022-07-12T16:11:04.000Z</Time>
            <Position>
              <LatitudeDegrees>43.3527553640305995941162109375</LatitudeDegrees>
              <LongitudeDegrees>-3.16872208379209041595458984375</LongitudeDegrees>
            </Position>
            <AltitudeMeters>-33.59999847412109375</AltitudeMeters>
            <DistanceMeters>NAN</DistanceMeters>
          </Trackpoint>
          <Trackpoint>
            <Time>2022-07-12T16:11:05.000Z</Time>
            <Position>
              <LatitudeDegrees>43.3527553640305995941162109375</LatitudeDegrees>
              <LongitudeDegrees>-3.16872208379209041595458984375</LongitudeDegrees>
            </Position>
            <AltitudeMeters>-33.59999847412109375</AltitudeMeters>
            <DistanceMeters>NAN</DistanceMeters>
          </Trackpoint>
          <Trackpoint>
            <Time>2022-07-12T16:11:06.000Z</Time>
            <Position>
              <LatitudeDegrees>43.3527553640305995941162109375</LatitudeDegrees>
              <LongitudeDegrees>-3.16872208379209041595458984375</LongitudeDegrees>
            </Position>
            <AltitudeMeters>-33.59999847412109375</AltitudeMeters>
            <DistanceMeters>NAN</DistanceMeters>
          </Trackpoint>
          <Trackpoint>
            <Time>2022-07-12T16:11:25.000Z</Time>
            <Position>
              <LatitudeDegrees>43.3527969382703304290771484375</LatitudeDegrees>
              <LongitudeDegrees>-3.16877086646854877471923828125</LongitudeDegrees>
            </Position>
            <AltitudeMeters>-33.59999847412109375</AltitudeMeters>
            <DistanceMeters>NAN</DistanceMeters>
          </Trackpoint>
          <Trackpoint>
            <Time>2022-07-12T16:11:26.000Z</Time>
            <Position>
              <LatitudeDegrees>43.35281898267567157745361328125</LatitudeDegrees>
              <LongitudeDegrees>-3.16878897137939929962158203125</LongitudeDegrees>
            </Position>
            <AltitudeMeters>-33.799999237060546875</AltitudeMeters>
            <DistanceMeters>NAN</DistanceMeters>
          </Trackpoint>
          <Trackpoint>
            <Time>2022-07-12T16:11:28.000Z</Time>
            <Position>
              <LatitudeDegrees>43.3528636582195758819580078125</LatitudeDegrees>
              <LongitudeDegrees>-3.168824426829814910888671875</LongitudeDegrees>
            </Position>
            <AltitudeMeters>-34.40000152587890625</AltitudeMeters>
            <DistanceMeters>NAN</DistanceMeters>
          </Trackpoint>
          <Trackpoint>
            <Time>2022-07-12T16:11:30.000Z</Time>
            <Position>
              <LatitudeDegrees>43.35291436873376369476318359375</LatitudeDegrees>
              <LongitudeDegrees>-3.1688447110354900360107421875</LongitudeDegrees>
            </Position>
            <AltitudeMeters>-35.59999847412109375</AltitudeMeters>
            <DistanceMeters>NAN</DistanceMeters>
          </Trackpoint>
          <Trackpoint>
            <Time>2022-07-12T16:11:32.000Z</Time>
            <Position>
              <LatitudeDegrees>43.3529531769454479217529296875</LatitudeDegrees>
              <LongitudeDegrees>-3.16886440850794315338134765625</LongitudeDegrees>
            </Position>
            <AltitudeMeters>-37</AltitudeMeters>
            <DistanceMeters>NAN</DistanceMeters>
          </Trackpoint>
          <Trackpoint>
            <Time>2022-07-12T16:11:34.000Z</Time>
            <Position>
              <LatitudeDegrees>43.35299558937549591064453125</LatitudeDegrees>
              <LongitudeDegrees>-3.1688722036778926849365234375</LongitudeDegrees>
            </Position>
            <AltitudeMeters>-38.40000152587890625</AltitudeMeters>
            <DistanceMeters>NAN</DistanceMeters>
          </Trackpoint>
          <Trackpoint>
            <Time>2022-07-12T16:11:36.000Z</Time>
            <Position>
              <LatitudeDegrees>43.3530198968946933746337890625</LatitudeDegrees>
              <LongitudeDegrees>-3.168898858129978179931640625</LongitudeDegrees>
            </Position>
            <AltitudeMeters>-39</AltitudeMeters>
            <DistanceMeters>NAN</DistanceMeters>
          </Trackpoint>
          <Trackpoint>
            <Time>2022-07-12T16:11:38.000Z</Time>
            <Position>
              <LatitudeDegrees>43.353067003190517425537109375</LatitudeDegrees>
              <LongitudeDegrees>-3.16891604103147983551025390625</LongitudeDegrees>
            </Position>
            <AltitudeMeters>-39.40000152587890625</AltitudeMeters>
            <DistanceMeters>NAN</DistanceMeters>
          </Trackpoint>
          <Trackpoint>
            <Time>2022-07-12T16:11:41.000Z</Time>
            <Position>
              <LatitudeDegrees>43.3530906401574611663818359375</LatitudeDegrees>
              <LongitudeDegrees>-3.1689302064478397369384765625</LongitudeDegrees>
            </Position>
            <AltitudeMeters>-40.59999847412109375</AltitudeMeters>
            <DistanceMeters>NAN</DistanceMeters>
          </Trackpoint>
          <Trackpoint>
            <Time>2022-07-12T16:11:43.000Z</Time>
            <Position>
              <LatitudeDegrees>43.3530906401574611663818359375</LatitudeDegrees>
              <LongitudeDegrees>-3.1689302064478397369384765625</LongitudeDegrees>
            </Position>
            <AltitudeMeters>-41</AltitudeMeters>
            <DistanceMeters>NAN</DistanceMeters>
          </Trackpoint>
          <Trackpoint>
            <Time>2022-07-12T16:11:44.000Z</Time>
            <Position>
              <LatitudeDegrees>43.3530906401574611663818359375</LatitudeDegrees>
              <LongitudeDegrees>-3.1689302064478397369384765625</LongitudeDegrees>
            </Position>
            <AltitudeMeters>-41</AltitudeMeters>
            <DistanceMeters>NAN</DistanceMeters>
          </Trackpoint>
          <Trackpoint>
            <Time>2022-07-12T16:13:08.000Z</Time>
            <Position>
              <LatitudeDegrees>43.35264178924262523651123046875</LatitudeDegrees>
              <LongitudeDegrees>-3.16859819926321506500244140625</LongitudeDegrees>
            </Position>
            <AltitudeMeters>-34.799999237060546875</AltitudeMeters>
            <DistanceMeters>NAN</DistanceMeters>
          </Trackpoint>
          <Trackpoint>
            <Time>2022-07-12T16:13:09.000Z</Time>
            <Position>
              <LatitudeDegrees>43.35261831991374492645263671875</LatitudeDegrees>
              <LongitudeDegrees>-3.16859283484518527984619140625</LongitudeDegrees>
            </Position>
            <AltitudeMeters>-34.799999237060546875</AltitudeMeters>
            <DistanceMeters>NAN</DistanceMeters>
          </Trackpoint>
          <Trackpoint>
            <Time>2022-07-12T16:13:10.000Z</Time>
            <Position>
              <LatitudeDegrees>43.352595604956150054931640625</LatitudeDegrees>
              <LongitudeDegrees>-3.16858445294201374053955078125</LongitudeDegrees>
            </Position>
            <AltitudeMeters>-34.799999237060546875</AltitudeMeters>
            <DistanceMeters>NAN</DistanceMeters>
          </Trackpoint>
          <Trackpoint>
            <Time>2022-07-12T16:13:16.000Z</Time>
            <Position>
              <LatitudeDegrees>43.3524703793227672576904296875</LatitudeDegrees>
              <LongitudeDegrees>-3.16850356757640838623046875</LongitudeDegrees>
            </Position>
            <AltitudeMeters>-34.200000762939453125</AltitudeMeters>
            <DistanceMeters>NAN</DistanceMeters>
          </Trackpoint>
          <Trackpoint>
            <Time>2022-07-12T16:13:18.000Z</Time>
            <Position>
              <LatitudeDegrees>43.35242838598787784576416015625</LatitudeDegrees>
              <LongitudeDegrees>-3.16846928559243679046630859375</LongitudeDegrees>
            </Position>
            <AltitudeMeters>-34</AltitudeMeters>
            <DistanceMeters>NAN</DistanceMeters>
          </Trackpoint>
          <Trackpoint>
            <Time>2022-07-12T16:13:19.000Z</Time>
            <Position>
              <LatitudeDegrees>43.352404497563838958740234375</LatitudeDegrees>
              <LongitudeDegrees>-3.1684494204819202423095703125</LongitudeDegrees>
            </Position>
            <AltitudeMeters>-34</AltitudeMeters>
            <DistanceMeters>NAN</DistanceMeters>
          </Trackpoint>
          <Trackpoint>
            <Time>2022-07-12T16:13:21.000Z</Time>
            <Position>
              <LatitudeDegrees>43.3523537032306194305419921875</LatitudeDegrees>
              <LongitudeDegrees>-3.16840675659477710723876953125</LongitudeDegrees>
            </Position>
            <AltitudeMeters>-33.799999237060546875</AltitudeMeters>
            <DistanceMeters>NAN</DistanceMeters>
          </Trackpoint>
          <Trackpoint>
            <Time>2022-07-12T16:13:22.000Z</Time>
            <Position>
              <LatitudeDegrees>43.3523258753120899200439453125</LatitudeDegrees>
              <LongitudeDegrees>-3.168389908969402313232421875</LongitudeDegrees>
            </Position>
            <AltitudeMeters>-33.799999237060546875</AltitudeMeters>
            <DistanceMeters>NAN</DistanceMeters>
          </Trackpoint>
          <Trackpoint>
            <Time>2022-07-12T16:13:27.000Z</Time>
            <Position>
              <LatitudeDegrees>43.35218966938555240631103515625</LatitudeDegrees>
              <LongitudeDegrees>-3.168297372758388519287109375</LongitudeDegrees>
            </Position>
            <AltitudeMeters>-33.59999847412109375</AltitudeMeters>
            <DistanceMeters>NAN</DistanceMeters>
          </Trackpoint>
          <Trackpoint>
            <Time>2022-07-12T16:13:34.000Z</Time>
            <Position>
              <LatitudeDegrees>43.35195765830576419830322265625</LatitudeDegrees>
              <LongitudeDegrees>-3.16813015379011631011962890625</LongitudeDegrees>
            </Position>
            <AltitudeMeters>-33.799999237060546875</AltitudeMeters>
            <DistanceMeters>NAN</DistanceMeters>
          </Trackpoint>
          <Trackpoint>
            <Time>2022-07-12T16:13:35.000Z</Time>
            <Position>
              <LatitudeDegrees>43.35192136466503143310546875</LatitudeDegrees>
              <LongitudeDegrees>-3.16810618154704570770263671875</LongitudeDegrees>
            </Position>
            <AltitudeMeters>-33.799999237060546875</AltitudeMeters>
            <DistanceMeters>NAN</DistanceMeters>
          </Trackpoint>
          <Trackpoint>
            <Time>2022-07-12T16:13:39.000Z</Time>
            <Position>
              <LatitudeDegrees>43.35177945904433727264404296875</LatitudeDegrees>
              <LongitudeDegrees>-3.1680279783904552459716796875</LongitudeDegrees>
            </Position>
            <AltitudeMeters>-34.200000762939453125</AltitudeMeters>
            <DistanceMeters>NAN</DistanceMeters>
          </Trackpoint>
          <Trackpoint>
            <Time>2022-07-12T16:13:41.000Z</Time>
            <Position>
              <LatitudeDegrees>43.35168063640594482421875</LatitudeDegrees>
              <LongitudeDegrees>-3.16799101419746875762939453125</LongitudeDegrees>
            </Position>
            <AltitudeMeters>-34.40000152587890625</AltitudeMeters>
            <DistanceMeters>NAN</DistanceMeters>
          </Trackpoint>
          <Trackpoint>
            <Time>2022-07-12T16:13:47.000Z</Time>
            <Position>
              <LatitudeDegrees>43.35137360729277133941650390625</LatitudeDegrees>
              <LongitudeDegrees>-3.16779202781617641448974609375</LongitudeDegrees>
            </Position>
            <AltitudeMeters>-35</AltitudeMeters>
            <DistanceMeters>NAN</DistanceMeters>
          </Trackpoint>
          <Trackpoint>
            <Time>2022-07-12T16:13:54.000Z</Time>
            <Position>
              <LatitudeDegrees>43.35103011690080165863037109375</LatitudeDegrees>
              <LongitudeDegrees>-3.1675381399691104888916015625</LongitudeDegrees>
            </Position>
            <AltitudeMeters>-36</AltitudeMeters>
            <DistanceMeters>NAN</DistanceMeters>
          </Trackpoint>
          <Trackpoint>
            <Time>2022-07-12T16:13:56.000Z</Time>
            <Position>
              <LatitudeDegrees>43.350918553769588470458984375</LatitudeDegrees>
              <LongitudeDegrees>-3.16744744777679443359375</LongitudeDegrees>
            </Position>
            <AltitudeMeters>-36.200000762939453125</AltitudeMeters>
            <DistanceMeters>NAN</DistanceMeters>
          </Trackpoint>
          <Trackpoint>
            <Time>2022-07-12T16:13:58.000Z</Time>
            <Position>
              <LatitudeDegrees>43.3508102595806121826171875</LatitudeDegrees>
              <LongitudeDegrees>-3.1673460267484188079833984375</LongitudeDegrees>
            </Position>
            <AltitudeMeters>-36.40000152587890625</AltitudeMeters>
            <DistanceMeters>NAN</DistanceMeters>
          </Trackpoint>
          <Trackpoint>
            <Time>2022-07-12T16:14:01.000Z</Time>
            <Position>
              <LatitudeDegrees>43.3506642468273639678955078125</LatitudeDegrees>
              <LongitudeDegrees>-3.16722105257213115692138671875</LongitudeDegrees>
            </Position>
            <AltitudeMeters>-36.799999237060546875</AltitudeMeters>
            <DistanceMeters>NAN</DistanceMeters>
          </Trackpoint>
          <Trackpoint>
            <Time>2022-07-12T16:14:04.000Z</Time>
            <Position>
              <LatitudeDegrees>43.3505018055438995361328125</LatitudeDegrees>
              <LongitudeDegrees>-3.16705173812806606292724609375</LongitudeDegrees>
            </Position>
            <AltitudeMeters>-37</AltitudeMeters>
            <DistanceMeters>NAN</DistanceMeters>
          </Trackpoint>
          <Trackpoint>
            <Time>2022-07-12T16:14:06.000Z</Time>
            <Position>
              <LatitudeDegrees>43.35040247999131679534912109375</LatitudeDegrees>
              <LongitudeDegrees>-3.16694260574877262115478515625</LongitudeDegrees>
            </Position>
            <AltitudeMeters>-37</AltitudeMeters>
            <DistanceMeters>NAN</DistanceMeters>
          </Trackpoint>
          <Trackpoint>
            <Time>2022-07-12T16:14:10.000Z</Time>
            <Position>
              <LatitudeDegrees>43.35017750971019268035888671875</LatitudeDegrees>
              <LongitudeDegrees>-3.16678066737949848175048828125</LongitudeDegrees>
            </Position>
            <AltitudeMeters>-37.200000762939453125</AltitudeMeters>
            <DistanceMeters>NAN</DistanceMeters>
          </Trackpoint>
          <Trackpoint>
            <Time>2022-07-12T16:14:11.000Z</Time>
            <Position>
              <LatitudeDegrees>43.35012353025376796722412109375</LatitudeDegrees>
              <LongitudeDegrees>-3.1667492352426052093505859375</LongitudeDegrees>
            </Position>
            <AltitudeMeters>-37.200000762939453125</AltitudeMeters>
            <DistanceMeters>NAN</DistanceMeters>
          </Trackpoint>
          <Trackpoint>
            <Time>2022-07-12T16:14:12.000Z</Time>
            <Position>
              <LatitudeDegrees>43.3500704728066921234130859375</LatitudeDegrees>
              <LongitudeDegrees>-3.1667204014956951141357421875</LongitudeDegrees>
            </Position>
            <AltitudeMeters>-37.200000762939453125</AltitudeMeters>
            <DistanceMeters>NAN</DistanceMeters>
          </Trackpoint>
          <Trackpoint>
            <Time>2022-07-12T16:14:19.000Z</Time>
            <Position>
              <LatitudeDegrees>43.3497325144708156585693359375</LatitudeDegrees>
              <LongitudeDegrees>-3.16652451641857624053955078125</LongitudeDegrees>
            </Position>
            <AltitudeMeters>-37.59999847412109375</AltitudeMeters>
            <DistanceMeters>NAN</DistanceMeters>
          </Trackpoint>
          <Trackpoint>
            <Time>2022-07-12T16:14:21.000Z</Time>
            <Position>
              <LatitudeDegrees>43.34965196438133716583251953125</LatitudeDegrees>
              <LongitudeDegrees>-3.1664860434830188751220703125</LongitudeDegrees>
            </Position>
            <AltitudeMeters>-37</AltitudeMeters>
            <DistanceMeters>NAN</DistanceMeters>
          </Trackpoint>
          <Trackpoint>
            <Time>2022-07-12T16:14:24.000Z</Time>
            <Position>
              <LatitudeDegrees>43.3495538122951984405517578125</LatitudeDegrees>
              <LongitudeDegrees>-3.16647891886532306671142578125</LongitudeDegrees>
            </Position>
            <AltitudeMeters>-36.59999847412109375</AltitudeMeters>
            <DistanceMeters>NAN</DistanceMeters>
          </Trackpoint>
          <Trackpoint>
            <Time>2022-07-12T16:14:28.000Z</Time>
            <Position>
              <LatitudeDegrees>43.3494649641215801239013671875</LatitudeDegrees>
              <LongitudeDegrees>-3.1665329821407794952392578125</LongitudeDegrees>
            </Position>
            <AltitudeMeters>-36.200000762939453125</AltitudeMeters>
            <DistanceMeters>NAN</DistanceMeters>
          </Trackpoint>
          <Trackpoint>
            <Time>2022-07-12T16:14:29.000Z</Time>
            <Position>
              <LatitudeDegrees>43.3494475297629833221435546875</LatitudeDegrees>
              <LongitudeDegrees>-3.16654094494879245758056640625</LongitudeDegrees>
            </Position>
            <AltitudeMeters>-36</AltitudeMeters>
            <DistanceMeters>NAN</DistanceMeters>
          </Trackpoint>
          <Trackpoint>
            <Time>2022-07-12T16:14:35.000Z</Time>
            <Position>
              <LatitudeDegrees>43.349376283586025238037109375</LatitudeDegrees>
              <LongitudeDegrees>-3.166594840586185455322265625</LongitudeDegrees>
            </Position>
            <AltitudeMeters>-35</AltitudeMeters>
            <DistanceMeters>NAN</DistanceMeters>
          </Trackpoint>
          <Trackpoint>
            <Time>2022-07-12T16:14:36.000Z</Time>
            <Position>
              <LatitudeDegrees>43.3493653871119022369384765625</LatitudeDegrees>
              <LongitudeDegrees>-3.16660582087934017181396484375</LongitudeDegrees>
            </Position>
            <AltitudeMeters>-35</AltitudeMeters>
            <DistanceMeters>NAN</DistanceMeters>
          </Trackpoint>
          <Trackpoint>
            <Time>2022-07-12T16:14:42.000Z</Time>
            <Position>
              <LatitudeDegrees>43.349296487867832183837890625</LatitudeDegrees>
              <LongitudeDegrees>-3.166700117290019989013671875</LongitudeDegrees>
            </Position>
            <AltitudeMeters>-33.799999237060546875</AltitudeMeters>
            <DistanceMeters>NAN</DistanceMeters>
          </Trackpoint>
          <Trackpoint>
            <Time>2022-07-12T16:14:43.000Z</Time>
            <Position>
              <LatitudeDegrees>43.3492916263639926910400390625</LatitudeDegrees>
              <LongitudeDegrees>-3.16672065295279026031494140625</LongitudeDegrees>
            </Position>
            <AltitudeMeters>-33.59999847412109375</AltitudeMeters>
            <DistanceMeters>NAN</DistanceMeters>
          </Trackpoint>
          <Trackpoint>
            <Time>2022-07-12T16:14:47.000Z</Time>
            <Position>
              <LatitudeDegrees>43.3492520637810230255126953125</LatitudeDegrees>
              <LongitudeDegrees>-3.1667809188365936279296875</LongitudeDegrees>
            </Position>
            <AltitudeMeters>-32.59999847412109375</AltitudeMeters>
            <DistanceMeters>NAN</DistanceMeters>
          </Trackpoint>
          <Trackpoint>
            <Time>2022-07-12T16:14:50.000Z</Time>
            <Position>
              <LatitudeDegrees>43.34923186339437961578369140625</LatitudeDegrees>
              <LongitudeDegrees>-3.1668323837220668792724609375</LongitudeDegrees>
            </Position>
            <AltitudeMeters>-31.799999237060546875</AltitudeMeters>
            <DistanceMeters>NAN</DistanceMeters>
          </Trackpoint>
          <Trackpoint>
            <Time>2022-07-12T16:14:52.000Z</Time>
            <Position>
              <LatitudeDegrees>43.3492252416908740997314453125</LatitudeDegrees>
              <LongitudeDegrees>-3.16686348058283329010009765625</LongitudeDegrees>
            </Position>
            <AltitudeMeters>-31.3999996185302734375</AltitudeMeters>
            <DistanceMeters>NAN</DistanceMeters>
          </Trackpoint>
          <Trackpoint>
            <Time>2022-07-12T16:14:54.000Z</Time>
            <Position>
              <LatitudeDegrees>43.349216021597385406494140625</LatitudeDegrees>
              <LongitudeDegrees>-3.16689365543425083160400390625</LongitudeDegrees>
            </Position>
            <AltitudeMeters>-31</AltitudeMeters>
            <DistanceMeters>NAN</DistanceMeters>
          </Trackpoint>
          <Trackpoint>
            <Time>2022-07-12T16:14:56.000Z</Time>
            <Position>
              <LatitudeDegrees>43.3492074720561504364013671875</LatitudeDegrees>
              <LongitudeDegrees>-3.166927434504032135009765625</LongitudeDegrees>
            </Position>
            <AltitudeMeters>-30.3999996185302734375</AltitudeMeters>
            <DistanceMeters>NAN</DistanceMeters>
          </Trackpoint>
          <Trackpoint>
            <Time>2022-07-12T16:14:57.000Z</Time>
            <Position>
              <LatitudeDegrees>43.3492054603993892669677734375</LatitudeDegrees>
              <LongitudeDegrees>-3.1669487245380878448486328125</LongitudeDegrees>
            </Position>
            <AltitudeMeters>-30.200000762939453125</AltitudeMeters>
            <DistanceMeters>NAN</DistanceMeters>
          </Trackpoint>
          <Trackpoint>
            <Time>2022-07-12T16:14:59.000Z</Time>
            <Position>
              <LatitudeDegrees>43.3492098189890384674072265625</LatitudeDegrees>
              <LongitudeDegrees>-3.16698585636913776397705078125</LongitudeDegrees>
            </Position>
            <AltitudeMeters>-29.799999237060546875</AltitudeMeters>
            <DistanceMeters>NAN</DistanceMeters>
          </Trackpoint>
          <Trackpoint>
            <Time>2022-07-12T16:15:01.000Z</Time>
            <Position>
              <LatitudeDegrees>43.34921124391257762908935546875</LatitudeDegrees>
              <LongitudeDegrees>-3.1670330464839935302734375</LongitudeDegrees>
            </Position>
            <AltitudeMeters>-29.3999996185302734375</AltitudeMeters>
            <DistanceMeters>NAN</DistanceMeters>
          </Trackpoint>
          <Trackpoint>
            <Time>2022-07-12T16:15:02.000Z</Time>
            <Position>
              <LatitudeDegrees>43.34920789115130901336669921875</LatitudeDegrees>
              <LongitudeDegrees>-3.16705089993774890899658203125</LongitudeDegrees>
            </Position>
            <AltitudeMeters>-29.200000762939453125</AltitudeMeters>
            <DistanceMeters>NAN</DistanceMeters>
          </Trackpoint>
          <Trackpoint>
            <Time>2022-07-12T16:15:04.000Z</Time>
            <Position>
              <LatitudeDegrees>43.34920428693294525146484375</LatitudeDegrees>
              <LongitudeDegrees>-3.16709046252071857452392578125</LongitudeDegrees>
            </Position>
            <AltitudeMeters>-28.799999237060546875</AltitudeMeters>
            <DistanceMeters>NAN</DistanceMeters>
          </Trackpoint>
          <Trackpoint>
            <Time>2022-07-12T16:15:06.000Z</Time>
            <Position>
              <LatitudeDegrees>43.34920621477067470550537109375</LatitudeDegrees>
              <LongitudeDegrees>-3.16712935455143451690673828125</LongitudeDegrees>
            </Position>
            <AltitudeMeters>-28.200000762939453125</AltitudeMeters>
            <DistanceMeters>NAN</DistanceMeters>
          </Trackpoint>
          <Trackpoint>
            <Time>2022-07-12T16:15:07.000Z</Time>
            <Position>
              <LatitudeDegrees>43.3492084778845310211181640625</LatitudeDegrees>
              <LongitudeDegrees>-3.1671465374529361724853515625</LongitudeDegrees>
            </Position>
            <AltitudeMeters>-28</AltitudeMeters>
            <DistanceMeters>NAN</DistanceMeters>
          </Trackpoint>
          <Trackpoint>
            <Time>2022-07-12T16:15:10.000Z</Time>
            <Position>
              <LatitudeDegrees>43.34921635687351226806640625</LatitudeDegrees>
              <LongitudeDegrees>-3.1671941466629505157470703125</LongitudeDegrees>
            </Position>
            <AltitudeMeters>-27.200000762939453125</AltitudeMeters>
            <DistanceMeters>NAN</DistanceMeters>
          </Trackpoint>
          <Trackpoint>
            <Time>2022-07-12T16:15:12.000Z</Time>
            <Position>
              <LatitudeDegrees>43.34922079928219318389892578125</LatitudeDegrees>
              <LongitudeDegrees>-3.167237229645252227783203125</LongitudeDegrees>
            </Position>
            <AltitudeMeters>-26.799999237060546875</AltitudeMeters>
            <DistanceMeters>NAN</DistanceMeters>
          </Trackpoint>
          <Trackpoint>
            <Time>2022-07-12T16:15:15.000Z</Time>
            <Position>
              <LatitudeDegrees>43.34923236630856990814208984375</LatitudeDegrees>
              <LongitudeDegrees>-3.1672913767397403717041015625</LongitudeDegrees>
            </Position>
            <AltitudeMeters>-26</AltitudeMeters>
            <DistanceMeters>NAN</DistanceMeters>
          </Trackpoint>
          <Trackpoint>
            <Time>2022-07-12T16:15:17.000Z</Time>
            <Position>
              <LatitudeDegrees>43.3492450229823589324951171875</LatitudeDegrees>
              <LongitudeDegrees>-3.167332448065280914306640625</LongitudeDegrees>
            </Position>
            <AltitudeMeters>-25.6000003814697265625</AltitudeMeters>
            <DistanceMeters>NAN</DistanceMeters>
          </Trackpoint>
          <Trackpoint>
            <Time>2022-07-12T16:15:22.000Z</Time>
            <Position>
              <LatitudeDegrees>43.3492604456841945648193359375</LatitudeDegrees>
              <LongitudeDegrees>-3.16741450689733028411865234375</LongitudeDegrees>
            </Position>
            <AltitudeMeters>-24.6000003814697265625</AltitudeMeters>
            <DistanceMeters>NAN</DistanceMeters>
          </Trackpoint>
          <Trackpoint>
            <Time>2022-07-12T16:15:24.000Z</Time>
            <Position>
              <LatitudeDegrees>43.3492554165422916412353515625</LatitudeDegrees>
              <LongitudeDegrees>-3.16745021380484104156494140625</LongitudeDegrees>
            </Position>
            <AltitudeMeters>-24.200000762939453125</AltitudeMeters>
            <DistanceMeters>NAN</DistanceMeters>
          </Trackpoint>
          <Trackpoint>
            <Time>2022-07-12T16:15:27.000Z</Time>
            <Position>
              <LatitudeDegrees>43.349264971911907196044921875</LatitudeDegrees>
              <LongitudeDegrees>-3.1674995832145214080810546875</LongitudeDegrees>
            </Position>
            <AltitudeMeters>-23.6000003814697265625</AltitudeMeters>
            <DistanceMeters>NAN</DistanceMeters>
          </Trackpoint>
          <Trackpoint>
            <Time>2022-07-12T16:15:31.000Z</Time>
            <Position>
              <LatitudeDegrees>43.349279053509235382080078125</LatitudeDegrees>
              <LongitudeDegrees>-3.16756839863955974578857421875</LongitudeDegrees>
            </Position>
            <AltitudeMeters>-22.6000003814697265625</AltitudeMeters>
            <DistanceMeters>NAN</DistanceMeters>
          </Trackpoint>
          <Trackpoint>
            <Time>2022-07-12T16:15:32.000Z</Time>
            <Position>
              <LatitudeDegrees>43.34927964024245738983154296875</LatitudeDegrees>
              <LongitudeDegrees>-3.1675874255597591400146484375</LongitudeDegrees>
            </Position>
            <AltitudeMeters>-22.3999996185302734375</AltitudeMeters>
            <DistanceMeters>NAN</DistanceMeters>
          </Trackpoint>
          <Trackpoint>
            <Time>2022-07-12T16:15:37.000Z</Time>
            <Position>
              <LatitudeDegrees>43.34927377291023731231689453125</LatitudeDegrees>
              <LongitudeDegrees>-3.1676695682108402252197265625</LongitudeDegrees>
            </Position>
            <AltitudeMeters>-21.3999996185302734375</AltitudeMeters>
            <DistanceMeters>NAN</DistanceMeters>
          </Trackpoint>
          <Trackpoint>
            <Time>2022-07-12T16:15:38.000Z</Time>
            <Position>
              <LatitudeDegrees>43.349262960255146026611328125</LatitudeDegrees>
              <LongitudeDegrees>-3.16768088378012180328369140625</LongitudeDegrees>
            </Position>
            <AltitudeMeters>-21</AltitudeMeters>
            <DistanceMeters>NAN</DistanceMeters>
          </Trackpoint>
          <Trackpoint>
            <Time>2022-07-12T16:15:39.000Z</Time>
            <Position>
              <LatitudeDegrees>43.349253572523593902587890625</LatitudeDegrees>
              <LongitudeDegrees>-3.167690522968769073486328125</LongitudeDegrees>
            </Position>
            <AltitudeMeters>-20.799999237060546875</AltitudeMeters>
            <DistanceMeters>NAN</DistanceMeters>
          </Trackpoint>
          <Trackpoint>
            <Time>2022-07-12T16:15:41.000Z</Time>
            <Position>
              <LatitudeDegrees>43.3492545783519744873046875</LatitudeDegrees>
              <LongitudeDegrees>-3.16772966645658016204833984375</LongitudeDegrees>
            </Position>
            <AltitudeMeters>-20.6000003814697265625</AltitudeMeters>
            <DistanceMeters>NAN</DistanceMeters>
          </Trackpoint>
          <Trackpoint>
            <Time>2022-07-12T16:15:42.000Z</Time>
            <Position>
              <LatitudeDegrees>43.34926572628319263458251953125</LatitudeDegrees>
              <LongitudeDegrees>-3.16775380633771419525146484375</LongitudeDegrees>
            </Position>
            <AltitudeMeters>-20.6000003814697265625</AltitudeMeters>
            <DistanceMeters>NAN</DistanceMeters>
          </Trackpoint>
          <Trackpoint>
            <Time>2022-07-12T16:15:48.000Z</Time>
            <Position>
              <LatitudeDegrees>43.34937636740505695343017578125</LatitudeDegrees>
              <LongitudeDegrees>-3.16796855069696903228759765625</LongitudeDegrees>
            </Position>
            <AltitudeMeters>-20.799999237060546875</AltitudeMeters>
            <DistanceMeters>NAN</DistanceMeters>
          </Trackpoint>
          <Trackpoint>
            <Time>2022-07-12T16:15:53.000Z</Time>
            <Position>
              <LatitudeDegrees>43.34953151643276214599609375</LatitudeDegrees>
              <LongitudeDegrees>-3.1682455725967884063720703125</LongitudeDegrees>
            </Position>
            <AltitudeMeters>-21.3999996185302734375</AltitudeMeters>
            <DistanceMeters>NAN</DistanceMeters>
          </Trackpoint>
          <Trackpoint>
            <Time>2022-07-12T16:15:56.000Z</Time>
            <Position>
              <LatitudeDegrees>43.34964240901172161102294921875</LatitudeDegrees>
              <LongitudeDegrees>-3.16843609325587749481201171875</LongitudeDegrees>
            </Position>
            <AltitudeMeters>-22.3999996185302734375</AltitudeMeters>
            <DistanceMeters>NAN</DistanceMeters>
          </Trackpoint>
          <Trackpoint>
            <Time>2022-07-12T16:15:57.000Z</Time>
            <Position>
              <LatitudeDegrees>43.34967342205345630645751953125</LatitudeDegrees>
              <LongitudeDegrees>-3.16848319955170154571533203125</LongitudeDegrees>
            </Position>
            <AltitudeMeters>-22.6000003814697265625</AltitudeMeters>
            <DistanceMeters>NAN</DistanceMeters>
          </Trackpoint>
          <Trackpoint>
            <Time>2022-07-12T16:15:59.000Z</Time>
            <Position>
              <LatitudeDegrees>43.3497695624828338623046875</LatitudeDegrees>
              <LongitudeDegrees>-3.16862083040177822113037109375</LongitudeDegrees>
            </Position>
            <AltitudeMeters>-23.200000762939453125</AltitudeMeters>
            <DistanceMeters>NAN</DistanceMeters>
          </Trackpoint>
          <Trackpoint>
            <Time>2022-07-12T16:16:01.000Z</Time>
            <Position>
              <LatitudeDegrees>43.34985916502773761749267578125</LatitudeDegrees>
              <LongitudeDegrees>-3.16874857060611248016357421875</LongitudeDegrees>
            </Position>
            <AltitudeMeters>-23.799999237060546875</AltitudeMeters>
            <DistanceMeters>NAN</DistanceMeters>
          </Trackpoint>
          <Trackpoint>
            <Time>2022-07-12T16:16:04.000Z</Time>
            <Position>
              <LatitudeDegrees>43.35000249557197093963623046875</LatitudeDegrees>
              <LongitudeDegrees>-3.16894420422613620758056640625</LongitudeDegrees>
            </Position>
            <AltitudeMeters>-24.799999237060546875</AltitudeMeters>
            <DistanceMeters>NAN</DistanceMeters>
          </Trackpoint>
          <Trackpoint>
            <Time>2022-07-12T16:16:07.000Z</Time>
            <Position>
              <LatitudeDegrees>43.350153453648090362548828125</LatitudeDegrees>
              <LongitudeDegrees>-3.169140256941318511962890625</LongitudeDegrees>
            </Position>
            <AltitudeMeters>-26.200000762939453125</AltitudeMeters>
            <DistanceMeters>NAN</DistanceMeters>
          </Trackpoint>
          <Trackpoint>
            <Time>2022-07-12T16:16:10.000Z</Time>
            <Position>
              <LatitudeDegrees>43.35030290298163890838623046875</LatitudeDegrees>
              <LongitudeDegrees>-3.16934217698872089385986328125</LongitudeDegrees>
            </Position>
            <AltitudeMeters>-27.200000762939453125</AltitudeMeters>
            <DistanceMeters>NAN</DistanceMeters>
          </Trackpoint>
          <Trackpoint>
            <Time>2022-07-12T16:16:13.000Z</Time>
            <Position>
              <LatitudeDegrees>43.3504453115165233612060546875</LatitudeDegrees>
              <LongitudeDegrees>-3.16953546367585659027099609375</LongitudeDegrees>
            </Position>
            <AltitudeMeters>-28.3999996185302734375</AltitudeMeters>
            <DistanceMeters>NAN</DistanceMeters>
          </Trackpoint>
          <Trackpoint>
            <Time>2022-07-12T16:16:16.000Z</Time>
            <Position>
              <LatitudeDegrees>43.35056819021701812744140625</LatitudeDegrees>
              <LongitudeDegrees>-3.16976043395698070526123046875</LongitudeDegrees>
            </Position>
            <AltitudeMeters>-29.200000762939453125</AltitudeMeters>
            <DistanceMeters>NAN</DistanceMeters>
          </Trackpoint>
          <Trackpoint>
            <Time>2022-07-12T16:16:17.000Z</Time>
            <Position>
              <LatitudeDegrees>43.35059878416359424591064453125</LatitudeDegrees>
              <LongitudeDegrees>-3.1698488630354404449462890625</LongitudeDegrees>
            </Position>
            <AltitudeMeters>-29.6000003814697265625</AltitudeMeters>
            <DistanceMeters>NAN</DistanceMeters>
          </Trackpoint>
          <Trackpoint>
            <Time>2022-07-12T16:16:18.000Z</Time>
            <Position>
              <LatitudeDegrees>43.35062024183571338653564453125</LatitudeDegrees>
              <LongitudeDegrees>-3.16994718275964260101318359375</LongitudeDegrees>
            </Position>
            <AltitudeMeters>-30</AltitudeMeters>
            <DistanceMeters>NAN</DistanceMeters>
          </Trackpoint>
          <Trackpoint>
            <Time>2022-07-12T16:16:20.000Z</Time>
            <Position>
              <LatitudeDegrees>43.3506350778043270111083984375</LatitudeDegrees>
              <LongitudeDegrees>-3.17016075365245342254638671875</LongitudeDegrees>
            </Position>
            <AltitudeMeters>-30.799999237060546875</AltitudeMeters>
            <DistanceMeters>NAN</DistanceMeters>
          </Trackpoint>
          <Trackpoint>
            <Time>2022-07-12T16:16:22.000Z</Time>
            <Position>
              <LatitudeDegrees>43.35061118938028812408447265625</LatitudeDegrees>
              <LongitudeDegrees>-3.17039360292255878448486328125</LongitudeDegrees>
            </Position>
            <AltitudeMeters>-31.3999996185302734375</AltitudeMeters>
            <DistanceMeters>NAN</DistanceMeters>
          </Trackpoint>
          <Trackpoint>
            <Time>2022-07-12T16:16:23.000Z</Time>
            <Position>
              <LatitudeDegrees>43.35058604367077350616455078125</LatitudeDegrees>
              <LongitudeDegrees>-3.17050726152956485748291015625</LongitudeDegrees>
            </Position>
            <AltitudeMeters>-31.799999237060546875</AltitudeMeters>
            <DistanceMeters>NAN</DistanceMeters>
          </Trackpoint>
          <Trackpoint>
            <Time>2022-07-12T16:16:25.000Z</Time>
            <Position>
              <LatitudeDegrees>43.350522927939891815185546875</LatitudeDegrees>
              <LongitudeDegrees>-3.170732147991657257080078125</LongitudeDegrees>
            </Position>
            <AltitudeMeters>-33</AltitudeMeters>
            <DistanceMeters>NAN</DistanceMeters>
          </Trackpoint>
          <Trackpoint>
            <Time>2022-07-12T16:16:27.000Z</Time>
            <Position>
              <LatitudeDegrees>43.350463919341564178466796875</LatitudeDegrees>
              <LongitudeDegrees>-3.17095820792019367218017578125</LongitudeDegrees>
            </Position>
            <AltitudeMeters>-34.200000762939453125</AltitudeMeters>
            <DistanceMeters>NAN</DistanceMeters>
          </Trackpoint>
          <Trackpoint>
            <Time>2022-07-12T16:16:28.000Z</Time>
            <Position>
              <LatitudeDegrees>43.35045059211552143096923828125</LatitudeDegrees>
              <LongitudeDegrees>-3.1710732914507389068603515625</LongitudeDegrees>
            </Position>
            <AltitudeMeters>-34.799999237060546875</AltitudeMeters>
            <DistanceMeters>NAN</DistanceMeters>
          </Trackpoint>
          <Trackpoint>
            <Time>2022-07-12T16:16:29.000Z</Time>
            <Position>
              <LatitudeDegrees>43.35045059211552143096923828125</LatitudeDegrees>
              <LongitudeDegrees>-3.171193487942218780517578125</LongitudeDegrees>
            </Position>
            <AltitudeMeters>-35</AltitudeMeters>
            <DistanceMeters>NAN</DistanceMeters>
          </Trackpoint>
          <Trackpoint>
            <Time>2022-07-12T16:16:30.000Z</Time>
            <Position>
              <LatitudeDegrees>43.3504573814570903778076171875</LatitudeDegrees>
              <LongitudeDegrees>-3.1712908856570720672607421875</LongitudeDegrees>
            </Position>
            <AltitudeMeters>-35.40000152587890625</AltitudeMeters>
            <DistanceMeters>NAN</DistanceMeters>
          </Trackpoint>
          <Trackpoint>
            <Time>2022-07-12T16:16:32.000Z</Time>
            <Position>
              <LatitudeDegrees>43.35047707892954349517822265625</LatitudeDegrees>
              <LongitudeDegrees>-3.17155265249311923980712890625</LongitudeDegrees>
            </Position>
            <AltitudeMeters>-36.40000152587890625</AltitudeMeters>
            <DistanceMeters>NAN</DistanceMeters>
          </Trackpoint>
          <Trackpoint>
            <Time>2022-07-12T16:16:34.000Z</Time>
            <Position>
              <LatitudeDegrees>43.35048780776560306549072265625</LatitudeDegrees>
              <LongitudeDegrees>-3.17179405130445957183837890625</LongitudeDegrees>
            </Position>
            <AltitudeMeters>-37.59999847412109375</AltitudeMeters>
            <DistanceMeters>NAN</DistanceMeters>
          </Trackpoint>
          <Trackpoint>
            <Time>2022-07-12T16:16:36.000Z</Time>
            <Position>
              <LatitudeDegrees>43.35046718828380107879638671875</LatitudeDegrees>
              <LongitudeDegrees>-3.17201332189142704010009765625</LongitudeDegrees>
            </Position>
            <AltitudeMeters>-38.59999847412109375</AltitudeMeters>
            <DistanceMeters>NAN</DistanceMeters>
          </Trackpoint>
          <Trackpoint>
            <Time>2022-07-12T16:16:38.000Z</Time>
            <Position>
              <LatitudeDegrees>43.35037532262504100799560546875</LatitudeDegrees>
              <LongitudeDegrees>-3.17222203128039836883544921875</LongitudeDegrees>
            </Position>
            <AltitudeMeters>-39.40000152587890625</AltitudeMeters>
            <DistanceMeters>NAN</DistanceMeters>
          </Trackpoint>
          <Trackpoint>
            <Time>2022-07-12T16:16:39.000Z</Time>
            <Position>
              <LatitudeDegrees>43.35030960850417613983154296875</LatitudeDegrees>
              <LongitudeDegrees>-3.1723035871982574462890625</LongitudeDegrees>
            </Position>
            <AltitudeMeters>-39.59999847412109375</AltitudeMeters>
            <DistanceMeters>NAN</DistanceMeters>
          </Trackpoint>
          <Trackpoint>
            <Time>2022-07-12T16:16:40.000Z</Time>
            <Position>
              <LatitudeDegrees>43.35023827850818634033203125</LatitudeDegrees>
              <LongitudeDegrees>-3.17237399518489837646484375</LongitudeDegrees>
            </Position>
            <AltitudeMeters>-39.59999847412109375</AltitudeMeters>
            <DistanceMeters>NAN</DistanceMeters>
          </Trackpoint>
          <Trackpoint>
            <Time>2022-07-12T16:16:43.000Z</Time>
            <Position>
              <LatitudeDegrees>43.35001708008348941802978515625</LatitudeDegrees>
              <LongitudeDegrees>-3.17253216169774532318115234375</LongitudeDegrees>
            </Position>
            <AltitudeMeters>-40.59999847412109375</AltitudeMeters>
            <DistanceMeters>NAN</DistanceMeters>
          </Trackpoint>
          <Trackpoint>
            <Time>2022-07-12T16:16:44.000Z</Time>
            <Position>
              <LatitudeDegrees>43.3499487675726413726806640625</LatitudeDegrees>
              <LongitudeDegrees>-3.17258396185934543609619140625</LongitudeDegrees>
            </Position>
            <AltitudeMeters>-41.200000762939453125</AltitudeMeters>
            <DistanceMeters>NAN</DistanceMeters>
          </Trackpoint>
          <Trackpoint>
            <Time>2022-07-12T16:16:45.000Z</Time>
            <Position>
              <LatitudeDegrees>43.3498800359666347503662109375</LatitudeDegrees>
              <LongitudeDegrees>-3.1726517714560031890869140625</LongitudeDegrees>
            </Position>
            <AltitudeMeters>-41.40000152587890625</AltitudeMeters>
            <DistanceMeters>NAN</DistanceMeters>
          </Trackpoint>
          <Trackpoint>
            <Time>2022-07-12T16:16:46.000Z</Time>
            <Position>
              <LatitudeDegrees>43.34983536042273044586181640625</LatitudeDegrees>
              <LongitudeDegrees>-3.172718323767185211181640625</LongitudeDegrees>
            </Position>
            <AltitudeMeters>-41.59999847412109375</AltitudeMeters>
            <DistanceMeters>NAN</DistanceMeters>
          </Trackpoint>
          <Trackpoint>
            <Time>2022-07-12T16:16:47.000Z</Time>
            <Position>
              <LatitudeDegrees>43.3498072810471057891845703125</LatitudeDegrees>
              <LongitudeDegrees>-3.172782026231288909912109375</LongitudeDegrees>
            </Position>
            <AltitudeMeters>-42</AltitudeMeters>
            <DistanceMeters>NAN</DistanceMeters>
          </Trackpoint>
          <Trackpoint>
            <Time>2022-07-12T16:16:48.000Z</Time>
            <Position>
              <LatitudeDegrees>43.3497908525168895721435546875</LatitudeDegrees>
              <LongitudeDegrees>-3.1728311441838741302490234375</LongitudeDegrees>
            </Position>
            <AltitudeMeters>-42.200000762939453125</AltitudeMeters>
            <DistanceMeters>NAN</DistanceMeters>
          </Trackpoint>
          <Trackpoint>
            <Time>2022-07-12T16:16:49.000Z</Time>
            <Position>
              <LatitudeDegrees>43.34978490136563777923583984375</LatitudeDegrees>
              <LongitudeDegrees>-3.17287414334714412689208984375</LongitudeDegrees>
            </Position>
            <AltitudeMeters>-42.40000152587890625</AltitudeMeters>
            <DistanceMeters>NAN</DistanceMeters>
          </Trackpoint>
          <Trackpoint>
            <Time>2022-07-12T16:16:51.000Z</Time>
            <Position>
              <LatitudeDegrees>43.3497660420835018157958984375</LatitudeDegrees>
              <LongitudeDegrees>-3.1729285418987274169921875</LongitudeDegrees>
            </Position>
            <AltitudeMeters>-42.799999237060546875</AltitudeMeters>
            <DistanceMeters>NAN</DistanceMeters>
          </Trackpoint>
          <Trackpoint>
            <Time>2022-07-12T16:16:52.000Z</Time>
            <Position>
              <LatitudeDegrees>43.34975271485745906829833984375</LatitudeDegrees>
              <LongitudeDegrees>-3.1729277037084102630615234375</LongitudeDegrees>
            </Position>
            <AltitudeMeters>-43</AltitudeMeters>
            <DistanceMeters>NAN</DistanceMeters>
          </Trackpoint>
          <Trackpoint>
            <Time>2022-07-12T16:16:57.000Z</Time>
            <Position>
              <LatitudeDegrees>43.349746428430080413818359375</LatitudeDegrees>
              <LongitudeDegrees>-3.17292845807969570159912109375</LongitudeDegrees>
            </Position>
            <AltitudeMeters>-42.799999237060546875</AltitudeMeters>
            <DistanceMeters>NAN</DistanceMeters>
          </Trackpoint>
          <Trackpoint>
            <Time>2022-07-12T16:17:18.000Z</Time>
            <Position>
              <LatitudeDegrees>43.349826894700527191162109375</LatitudeDegrees>
              <LongitudeDegrees>-3.172898702323436737060546875</LongitudeDegrees>
            </Position>
            <AltitudeMeters>-42.59999847412109375</AltitudeMeters>
            <DistanceMeters>NAN</DistanceMeters>
          </Trackpoint>
          <Trackpoint>
            <Time>2022-07-12T16:17:19.000Z</Time>
            <Position>
              <LatitudeDegrees>43.349844999611377716064453125</LatitudeDegrees>
              <LongitudeDegrees>-3.17290046252310276031494140625</LongitudeDegrees>
            </Position>
            <AltitudeMeters>-42.59999847412109375</AltitudeMeters>
            <DistanceMeters>NAN</DistanceMeters>
          </Trackpoint>
          <Trackpoint>
            <Time>2022-07-12T16:17:20.000Z</Time>
            <Position>
              <LatitudeDegrees>43.34985983557999134063720703125</LatitudeDegrees>
              <LongitudeDegrees>-3.17290716804563999176025390625</LongitudeDegrees>
            </Position>
            <AltitudeMeters>-42.59999847412109375</AltitudeMeters>
            <DistanceMeters>NAN</DistanceMeters>
          </Trackpoint>
          <Trackpoint>
            <Time>2022-07-12T16:17:23.000Z</Time>
            <Position>
              <LatitudeDegrees>43.34989738650619983673095703125</LatitudeDegrees>
              <LongitudeDegrees>-3.1729216687381267547607421875</LongitudeDegrees>
            </Position>
            <AltitudeMeters>-42.799999237060546875</AltitudeMeters>
            <DistanceMeters>NAN</DistanceMeters>
          </Trackpoint>
          <Trackpoint>
            <Time>2022-07-12T16:17:24.000Z</Time>
            <Position>
              <LatitudeDegrees>43.349908702075481414794921875</LatitudeDegrees>
              <LongitudeDegrees>-3.17292342893779277801513671875</LongitudeDegrees>
            </Position>
            <AltitudeMeters>-42.799999237060546875</AltitudeMeters>
            <DistanceMeters>NAN</DistanceMeters>
          </Trackpoint>
          <Trackpoint>
            <Time>2022-07-12T16:17:27.000Z</Time>
            <Position>
              <LatitudeDegrees>43.349912725389003753662109375</LatitudeDegrees>
              <LongitudeDegrees>-3.17292653024196624755859375</LongitudeDegrees>
            </Position>
            <AltitudeMeters>-42.799999237060546875</AltitudeMeters>
            <DistanceMeters>NAN</DistanceMeters>
          </Trackpoint>
          <Trackpoint>
            <Time>2022-07-12T16:18:11.000Z</Time>
            <Position>
              <LatitudeDegrees>43.34997232072055339813232421875</LatitudeDegrees>
              <LongitudeDegrees>-3.17295108921825885772705078125</LongitudeDegrees>
            </Position>
            <AltitudeMeters>-41.799999237060546875</AltitudeMeters>
            <DistanceMeters>NAN</DistanceMeters>
          </Trackpoint>
          <Trackpoint>
            <Time>2022-07-12T16:18:12.000Z</Time>
            <Position>
              <LatitudeDegrees>43.3499933592975139617919921875</LatitudeDegrees>
              <LongitudeDegrees>-3.17295896820724010467529296875</LongitudeDegrees>
            </Position>
            <AltitudeMeters>-41.799999237060546875</AltitudeMeters>
            <DistanceMeters>NAN</DistanceMeters>
          </Trackpoint>
          <Trackpoint>
            <Time>2022-07-12T16:18:16.000Z</Time>
            <Position>
              <LatitudeDegrees>43.3500869013369083404541015625</LatitudeDegrees>
              <LongitudeDegrees>-3.17299869842827320098876953125</LongitudeDegrees>
            </Position>
            <AltitudeMeters>-41</AltitudeMeters>
            <DistanceMeters>NAN</DistanceMeters>
          </Trackpoint>
          <Trackpoint>
            <Time>2022-07-12T16:18:23.000Z</Time>
            <Position>
              <LatitudeDegrees>43.35022880695760250091552734375</LatitudeDegrees>
              <LongitudeDegrees>-3.17306944169104099273681640625</LongitudeDegrees>
            </Position>
            <AltitudeMeters>-40.40000152587890625</AltitudeMeters>
            <DistanceMeters>NAN</DistanceMeters>
          </Trackpoint>
          <Trackpoint>
            <Time>2022-07-12T16:18:24.000Z</Time>
            <Position>
              <LatitudeDegrees>43.35024791769683361053466796875</LatitudeDegrees>
              <LongitudeDegrees>-3.17307882942259311676025390625</LongitudeDegrees>
            </Position>
            <AltitudeMeters>-40.200000762939453125</AltitudeMeters>
            <DistanceMeters>NAN</DistanceMeters>
          </Trackpoint>
          <Trackpoint>
            <Time>2022-07-12T16:18:25.000Z</Time>
            <Position>
              <LatitudeDegrees>43.350268118083477020263671875</LatitudeDegrees>
              <LongitudeDegrees>-3.17309081554412841796875</LongitudeDegrees>
            </Position>
            <AltitudeMeters>-39.799999237060546875</AltitudeMeters>
            <DistanceMeters>NAN</DistanceMeters>
          </Trackpoint>
          <Trackpoint>
            <Time>2022-07-12T16:18:27.000Z</Time>
            <Position>
              <LatitudeDegrees>43.35030793212354183197021484375</LatitudeDegrees>
              <LongitudeDegrees>-3.1731104291975498199462890625</LongitudeDegrees>
            </Position>
            <AltitudeMeters>-39.59999847412109375</AltitudeMeters>
            <DistanceMeters>NAN</DistanceMeters>
          </Trackpoint>
          <Trackpoint>
            <Time>2022-07-12T16:18:30.000Z</Time>
            <Position>
              <LatitudeDegrees>43.3503658510744571685791015625</LatitudeDegrees>
              <LongitudeDegrees>-3.17314554937183856964111328125</LongitudeDegrees>
            </Position>
            <AltitudeMeters>-39.200000762939453125</AltitudeMeters>
            <DistanceMeters>NAN</DistanceMeters>
          </Trackpoint>
          <Trackpoint>
            <Time>2022-07-12T16:18:32.000Z</Time>
            <Position>
              <LatitudeDegrees>43.35040398873388767242431640625</LatitudeDegrees>
              <LongitudeDegrees>-3.173164241015911102294921875</LongitudeDegrees>
            </Position>
            <AltitudeMeters>-39</AltitudeMeters>
            <DistanceMeters>NAN</DistanceMeters>
          </Trackpoint>
          <Trackpoint>
            <Time>2022-07-12T16:18:34.000Z</Time>
            <Position>
              <LatitudeDegrees>43.35043583996593952178955078125</LatitudeDegrees>
              <LongitudeDegrees>-3.17319114692509174346923828125</LongitudeDegrees>
            </Position>
            <AltitudeMeters>-38.799999237060546875</AltitudeMeters>
            <DistanceMeters>NAN</DistanceMeters>
          </Trackpoint>
          <Trackpoint>
            <Time>2022-07-12T16:18:41.000Z</Time>
            <Position>
              <LatitudeDegrees>43.35053960792720317840576171875</LatitudeDegrees>
              <LongitudeDegrees>-3.173267841339111328125</LongitudeDegrees>
            </Position>
            <AltitudeMeters>-37.799999237060546875</AltitudeMeters>
            <DistanceMeters>NAN</DistanceMeters>
          </Trackpoint>
          <Trackpoint>
            <Time>2022-07-12T16:18:42.000Z</Time>
            <Position>
              <LatitudeDegrees>43.3505549468100070953369140625</LatitudeDegrees>
              <LongitudeDegrees>-3.17327798344194889068603515625</LongitudeDegrees>
            </Position>
            <AltitudeMeters>-37.59999847412109375</AltitudeMeters>
            <DistanceMeters>NAN</DistanceMeters>
          </Trackpoint>
          <Trackpoint>
            <Time>2022-07-12T16:18:49.000Z</Time>
            <Position>
              <LatitudeDegrees>43.35067103616893291473388671875</LatitudeDegrees>
              <LongitudeDegrees>-3.17338242195546627044677734375</LongitudeDegrees>
            </Position>
            <AltitudeMeters>-37</AltitudeMeters>
            <DistanceMeters>NAN</DistanceMeters>
          </Trackpoint>
          <Trackpoint>
            <Time>2022-07-12T16:18:51.000Z</Time>
            <Position>
              <LatitudeDegrees>43.35070054046809673309326171875</LatitudeDegrees>
              <LongitudeDegrees>-3.173409663140773773193359375</LongitudeDegrees>
            </Position>
            <AltitudeMeters>-36.799999237060546875</AltitudeMeters>
            <DistanceMeters>NAN</DistanceMeters>
          </Trackpoint>
          <Trackpoint>
            <Time>2022-07-12T16:18:52.000Z</Time>
            <Position>
              <LatitudeDegrees>43.35071546025574207305908203125</LatitudeDegrees>
              <LongitudeDegrees>-3.1734235771000385284423828125</LongitudeDegrees>
            </Position>
            <AltitudeMeters>-36.59999847412109375</AltitudeMeters>
            <DistanceMeters>NAN</DistanceMeters>
          </Trackpoint>
          <Trackpoint>
            <Time>2022-07-12T16:19:00.000Z</Time>
            <Position>
              <LatitudeDegrees>43.35084303282201290130615234375</LatitudeDegrees>
              <LongitudeDegrees>-3.17349825985729694366455078125</LongitudeDegrees>
            </Position>
            <AltitudeMeters>-35.799999237060546875</AltitudeMeters>
            <DistanceMeters>NAN</DistanceMeters>
          </Trackpoint>
          <Trackpoint>
            <Time>2022-07-12T16:19:01.000Z</Time>
            <Position>
              <LatitudeDegrees>43.35086683742702007293701171875</LatitudeDegrees>
              <LongitudeDegrees>-3.17351083271205425262451171875</LongitudeDegrees>
            </Position>
            <AltitudeMeters>-35.59999847412109375</AltitudeMeters>
            <DistanceMeters>NAN</DistanceMeters>
          </Trackpoint>
          <Trackpoint>
            <Time>2022-07-12T16:19:10.000Z</Time>
            <Position>
              <LatitudeDegrees>43.35102894343435764312744140625</LatitudeDegrees>
              <LongitudeDegrees>-3.17358341999351978302001953125</LongitudeDegrees>
            </Position>
            <AltitudeMeters>-34.40000152587890625</AltitudeMeters>
            <DistanceMeters>NAN</DistanceMeters>
          </Trackpoint>
          <Trackpoint>
            <Time>2022-07-12T16:19:11.000Z</Time>
            <Position>
              <LatitudeDegrees>43.3510451205074787139892578125</LatitudeDegrees>
              <LongitudeDegrees>-3.17358844913542270660400390625</LongitudeDegrees>
            </Position>
            <AltitudeMeters>-34.40000152587890625</AltitudeMeters>
            <DistanceMeters>NAN</DistanceMeters>
          </Trackpoint>
          <Trackpoint>
            <Time>2022-07-12T16:19:20.000Z</Time>
            <Position>
              <LatitudeDegrees>43.3511731959879398345947265625</LatitudeDegrees>
              <LongitudeDegrees>-3.173637650907039642333984375</LongitudeDegrees>
            </Position>
            <AltitudeMeters>-33.40000152587890625</AltitudeMeters>
            <DistanceMeters>NAN</DistanceMeters>
          </Trackpoint>
          <Trackpoint>
            <Time>2022-07-12T16:19:21.000Z</Time>
            <Position>
              <LatitudeDegrees>43.351183421909809112548828125</LatitudeDegrees>
              <LongitudeDegrees>-3.17365198396146297454833984375</LongitudeDegrees>
            </Position>
            <AltitudeMeters>-33.40000152587890625</AltitudeMeters>
            <DistanceMeters>NAN</DistanceMeters>
          </Trackpoint>
          <Trackpoint>
            <Time>2022-07-12T16:19:25.000Z</Time>
            <Position>
              <LatitudeDegrees>43.351252488791942596435546875</LatitudeDegrees>
              <LongitudeDegrees>-3.17368291318416595458984375</LongitudeDegrees>
            </Position>
            <AltitudeMeters>-32.59999847412109375</AltitudeMeters>
            <DistanceMeters>NAN</DistanceMeters>
          </Trackpoint>
          <Trackpoint>
            <Time>2022-07-12T16:19:30.000Z</Time>
            <Position>
              <LatitudeDegrees>43.351338319480419158935546875</LatitudeDegrees>
              <LongitudeDegrees>-3.17371199838817119598388671875</LongitudeDegrees>
            </Position>
            <AltitudeMeters>-32.200000762939453125</AltitudeMeters>
            <DistanceMeters>NAN</DistanceMeters>
          </Trackpoint>
          <Trackpoint>
            <Time>2022-07-12T16:19:34.000Z</Time>
            <Position>
              <LatitudeDegrees>43.3514003455638885498046875</LatitudeDegrees>
              <LongitudeDegrees>-3.1737420894205570220947265625</LongitudeDegrees>
            </Position>
            <AltitudeMeters>-31.799999237060546875</AltitudeMeters>
            <DistanceMeters>NAN</DistanceMeters>
          </Trackpoint>
          <Trackpoint>
            <Time>2022-07-12T16:19:38.000Z</Time>
            <Position>
              <LatitudeDegrees>43.35146463476121425628662109375</LatitudeDegrees>
              <LongitudeDegrees>-3.1737591885030269622802734375</LongitudeDegrees>
            </Position>
            <AltitudeMeters>-31.200000762939453125</AltitudeMeters>
            <DistanceMeters>NAN</DistanceMeters>
          </Trackpoint>
          <Trackpoint>
            <Time>2022-07-12T16:19:43.000Z</Time>
            <Position>
              <LatitudeDegrees>43.3515282534062862396240234375</LatitudeDegrees>
              <LongitudeDegrees>-3.173785842955112457275390625</LongitudeDegrees>
            </Position>
            <AltitudeMeters>-30.6000003814697265625</AltitudeMeters>
            <DistanceMeters>NAN</DistanceMeters>
          </Trackpoint>
          <Trackpoint>
            <Time>2022-07-12T16:19:47.000Z</Time>
            <Position>
              <LatitudeDegrees>43.3515989966690540313720703125</LatitudeDegrees>
              <LongitudeDegrees>-3.1738336198031902313232421875</LongitudeDegrees>
            </Position>
            <AltitudeMeters>-30</AltitudeMeters>
            <DistanceMeters>NAN</DistanceMeters>
          </Trackpoint>
          <Trackpoint>
            <Time>2022-07-12T16:19:50.000Z</Time>
            <Position>
              <LatitudeDegrees>43.3516425825655460357666015625</LatitudeDegrees>
              <LongitudeDegrees>-3.17387410439550876617431640625</LongitudeDegrees>
            </Position>
            <AltitudeMeters>-29.6000003814697265625</AltitudeMeters>
            <DistanceMeters>NAN</DistanceMeters>
          </Trackpoint>
          <Trackpoint>
            <Time>2022-07-12T16:19:55.000Z</Time>
            <Position>
              <LatitudeDegrees>43.3517086319625377655029296875</LatitudeDegrees>
              <LongitudeDegrees>-3.17393864504992961883544921875</LongitudeDegrees>
            </Position>
            <AltitudeMeters>-29</AltitudeMeters>
            <DistanceMeters>NAN</DistanceMeters>
          </Trackpoint>
          <Trackpoint>
            <Time>2022-07-12T16:19:59.000Z</Time>
            <Position>
              <LatitudeDegrees>43.35174911655485630035400390625</LatitudeDegrees>
              <LongitudeDegrees>-3.173991031944751739501953125</LongitudeDegrees>
            </Position>
            <AltitudeMeters>-28.3999996185302734375</AltitudeMeters>
            <DistanceMeters>NAN</DistanceMeters>
          </Trackpoint>
          <Trackpoint>
            <Time>2022-07-12T16:20:04.000Z</Time>
            <Position>
              <LatitudeDegrees>43.351783566176891326904296875</LatitudeDegrees>
              <LongitudeDegrees>-3.17408666945993900299072265625</LongitudeDegrees>
            </Position>
            <AltitudeMeters>-27.799999237060546875</AltitudeMeters>
            <DistanceMeters>NAN</DistanceMeters>
          </Trackpoint>
          <Trackpoint>
            <Time>2022-07-12T16:20:07.000Z</Time>
            <Position>
              <LatitudeDegrees>43.351802341639995574951171875</LatitudeDegrees>
              <LongitudeDegrees>-3.174160011112689971923828125</LongitudeDegrees>
            </Position>
            <AltitudeMeters>-27.6000003814697265625</AltitudeMeters>
            <DistanceMeters>NAN</DistanceMeters>
          </Trackpoint>
          <Trackpoint>
            <Time>2022-07-12T16:20:15.000Z</Time>
            <Position>
              <LatitudeDegrees>43.3518645353615283966064453125</LatitudeDegrees>
              <LongitudeDegrees>-3.1743408925831317901611328125</LongitudeDegrees>
            </Position>
            <AltitudeMeters>-26.799999237060546875</AltitudeMeters>
            <DistanceMeters>NAN</DistanceMeters>
          </Trackpoint>
          <Trackpoint>
            <Time>2022-07-12T16:20:23.000Z</Time>
            <Position>
              <LatitudeDegrees>43.35190795361995697021484375</LatitudeDegrees>
              <LongitudeDegrees>-3.17451682873070240020751953125</LongitudeDegrees>
            </Position>
            <AltitudeMeters>-25.799999237060546875</AltitudeMeters>
            <DistanceMeters>NAN</DistanceMeters>
          </Trackpoint>
          <Trackpoint>
            <Time>2022-07-12T16:20:31.000Z</Time>
            <Position>
              <LatitudeDegrees>43.35196369327604770660400390625</LatitudeDegrees>
              <LongitudeDegrees>-3.17469402216374874114990234375</LongitudeDegrees>
            </Position>
            <AltitudeMeters>-24.6000003814697265625</AltitudeMeters>
            <DistanceMeters>NAN</DistanceMeters>
          </Trackpoint>
          <Trackpoint>
            <Time>2022-07-12T16:20:40.000Z</Time>
            <Position>
              <LatitudeDegrees>43.3520231209695339202880859375</LatitudeDegrees>
              <LongitudeDegrees>-3.17487892694771289825439453125</LongitudeDegrees>
            </Position>
            <AltitudeMeters>-23.6000003814697265625</AltitudeMeters>
            <DistanceMeters>NAN</DistanceMeters>
          </Trackpoint>
          <Trackpoint>
            <Time>2022-07-12T16:20:41.000Z</Time>
            <Position>
              <LatitudeDegrees>43.3520251326262950897216796875</LatitudeDegrees>
              <LongitudeDegrees>-3.1748971156775951385498046875</LongitudeDegrees>
            </Position>
            <AltitudeMeters>-23.3999996185302734375</AltitudeMeters>
            <DistanceMeters>NAN</DistanceMeters>
          </Trackpoint>
          <Trackpoint>
            <Time>2022-07-12T16:20:49.000Z</Time>
            <Position>
              <LatitudeDegrees>43.35204332135617733001708984375</LatitudeDegrees>
              <LongitudeDegrees>-3.17506651394069194793701171875</LongitudeDegrees>
            </Position>
            <AltitudeMeters>-22.3999996185302734375</AltitudeMeters>
            <DistanceMeters>NAN</DistanceMeters>
          </Trackpoint>
          <Trackpoint>
            <Time>2022-07-12T16:20:56.000Z</Time>
            <Position>
              <LatitudeDegrees>43.35208590142428874969482421875</LatitudeDegrees>
              <LongitudeDegrees>-3.175204060971736907958984375</LongitudeDegrees>
            </Position>
            <AltitudeMeters>-21.6000003814697265625</AltitudeMeters>
            <DistanceMeters>NAN</DistanceMeters>
          </Trackpoint>
          <Trackpoint>
            <Time>2022-07-12T16:20:57.000Z</Time>
            <Position>
              <LatitudeDegrees>43.35209210403263568878173828125</LatitudeDegrees>
              <LongitudeDegrees>-3.17523146979510784149169921875</LongitudeDegrees>
            </Position>
            <AltitudeMeters>-21.3999996185302734375</AltitudeMeters>
            <DistanceMeters>NAN</DistanceMeters>
          </Trackpoint>
          <Trackpoint>
            <Time>2022-07-12T16:21:04.000Z</Time>
            <Position>
              <LatitudeDegrees>43.352145664393901824951171875</LatitudeDegrees>
              <LongitudeDegrees>-3.17536532878875732421875</LongitudeDegrees>
            </Position>
            <AltitudeMeters>-20.6000003814697265625</AltitudeMeters>
            <DistanceMeters>NAN</DistanceMeters>
          </Trackpoint>
          <Trackpoint>
            <Time>2022-07-12T16:21:07.000Z</Time>
            <Position>
              <LatitudeDegrees>43.352173827588558197021484375</LatitudeDegrees>
              <LongitudeDegrees>-3.1754104234278202056884765625</LongitudeDegrees>
            </Position>
            <AltitudeMeters>-20.3999996185302734375</AltitudeMeters>
            <DistanceMeters>NAN</DistanceMeters>
          </Trackpoint>
          <Trackpoint>
            <Time>2022-07-12T16:21:13.000Z</Time>
            <Position>
              <LatitudeDegrees>43.3522296510636806488037109375</LatitudeDegrees>
              <LongitudeDegrees>-3.17549072206020355224609375</LongitudeDegrees>
            </Position>
            <AltitudeMeters>-19.6000003814697265625</AltitudeMeters>
            <DistanceMeters>NAN</DistanceMeters>
          </Trackpoint>
          <Trackpoint>
            <Time>2022-07-12T16:21:15.000Z</Time>
            <Position>
              <LatitudeDegrees>43.3522547967731952667236328125</LatitudeDegrees>
              <LongitudeDegrees>-3.1755063124001026153564453125</LongitudeDegrees>
            </Position>
            <AltitudeMeters>-19.3999996185302734375</AltitudeMeters>
            <DistanceMeters>NAN</DistanceMeters>
          </Trackpoint>
          <Trackpoint>
            <Time>2022-07-12T16:21:20.000Z</Time>
            <Position>
              <LatitudeDegrees>43.35233132354915142059326171875</LatitudeDegrees>
              <LongitudeDegrees>-3.17556071095168590545654296875</LongitudeDegrees>
            </Position>
            <AltitudeMeters>-18.799999237060546875</AltitudeMeters>
            <DistanceMeters>NAN</DistanceMeters>
          </Trackpoint>
          <Trackpoint>
            <Time>2022-07-12T16:21:25.000Z</Time>
            <Position>
              <LatitudeDegrees>43.352407850325107574462890625</LatitudeDegrees>
              <LongitudeDegrees>-3.17558300681412220001220703125</LongitudeDegrees>
            </Position>
            <AltitudeMeters>-18.200000762939453125</AltitudeMeters>
            <DistanceMeters>NAN</DistanceMeters>
          </Trackpoint>
          <Trackpoint>
            <Time>2022-07-12T16:21:29.000Z</Time>
            <Position>
              <LatitudeDegrees>43.3524687029421329498291015625</LatitudeDegrees>
              <LongitudeDegrees>-3.1755908019840717315673828125</LongitudeDegrees>
            </Position>
            <AltitudeMeters>-17.799999237060546875</AltitudeMeters>
            <DistanceMeters>NAN</DistanceMeters>
          </Trackpoint>
          <Trackpoint>
            <Time>2022-07-12T16:21:36.000Z</Time>
            <Position>
              <LatitudeDegrees>43.3525773324072360992431640625</LatitudeDegrees>
              <LongitudeDegrees>-3.17559138871729373931884765625</LongitudeDegrees>
            </Position>
            <AltitudeMeters>-17.200000762939453125</AltitudeMeters>
            <DistanceMeters>NAN</DistanceMeters>
          </Trackpoint>
          <Trackpoint>
            <Time>2022-07-12T16:21:41.000Z</Time>
            <Position>
              <LatitudeDegrees>43.3526601456105709075927734375</LatitudeDegrees>
              <LongitudeDegrees>-3.17559122107923030853271484375</LongitudeDegrees>
            </Position>
            <AltitudeMeters>-16.799999237060546875</AltitudeMeters>
            <DistanceMeters>NAN</DistanceMeters>
          </Trackpoint>
          <Trackpoint>
            <Time>2022-07-12T16:21:48.000Z</Time>
            <Position>
              <LatitudeDegrees>43.35278310813009738922119140625</LatitudeDegrees>
              <LongitudeDegrees>-3.17560764960944652557373046875</LongitudeDegrees>
            </Position>
            <AltitudeMeters>-16.200000762939453125</AltitudeMeters>
            <DistanceMeters>NAN</DistanceMeters>
          </Trackpoint>
          <Trackpoint>
            <Time>2022-07-12T16:21:49.000Z</Time>
            <Position>
              <LatitudeDegrees>43.3527986146509647369384765625</LatitudeDegrees>
              <LongitudeDegrees>-3.175606392323970794677734375</LongitudeDegrees>
            </Position>
            <AltitudeMeters>-16</AltitudeMeters>
            <DistanceMeters>NAN</DistanceMeters>
          </Trackpoint>
          <Trackpoint>
            <Time>2022-07-12T16:21:57.000Z</Time>
            <Position>
              <LatitudeDegrees>43.35294253192842006683349609375</LatitudeDegrees>
              <LongitudeDegrees>-3.1756115891039371490478515625</LongitudeDegrees>
            </Position>
            <AltitudeMeters>-15.6000003814697265625</AltitudeMeters>
            <DistanceMeters>NAN</DistanceMeters>
          </Trackpoint>
          <Trackpoint>
            <Time>2022-07-12T16:22:04.000Z</Time>
            <Position>
              <LatitudeDegrees>43.35304898209869861602783203125</LatitudeDegrees>
              <LongitudeDegrees>-3.17559943534433841705322265625</LongitudeDegrees>
            </Position>
            <AltitudeMeters>-15</AltitudeMeters>
            <DistanceMeters>NAN</DistanceMeters>
          </Trackpoint>
          <Trackpoint>
            <Time>2022-07-12T16:22:05.000Z</Time>
            <Position>
              <LatitudeDegrees>43.35306691937148571014404296875</LatitudeDegrees>
              <LongitudeDegrees>-3.17559457384049892425537109375</LongitudeDegrees>
            </Position>
            <AltitudeMeters>-15</AltitudeMeters>
            <DistanceMeters>NAN</DistanceMeters>
          </Trackpoint>
          <Trackpoint>
            <Time>2022-07-12T16:22:13.000Z</Time>
            <Position>
              <LatitudeDegrees>43.353191725909709930419921875</LatitudeDegrees>
              <LongitudeDegrees>-3.175497092306613922119140625</LongitudeDegrees>
            </Position>
            <AltitudeMeters>-14.6000003814697265625</AltitudeMeters>
            <DistanceMeters>NAN</DistanceMeters>
          </Trackpoint>
          <Trackpoint>
            <Time>2022-07-12T16:22:20.000Z</Time>
            <Position>
              <LatitudeDegrees>43.3532693423330783843994140625</LatitudeDegrees>
              <LongitudeDegrees>-3.17538653500378131866455078125</LongitudeDegrees>
            </Position>
            <AltitudeMeters>-13.80000019073486328125</AltitudeMeters>
            <DistanceMeters>NAN</DistanceMeters>
          </Trackpoint>
          <Trackpoint>
            <Time>2022-07-12T16:22:24.000Z</Time>
            <Position>
              <LatitudeDegrees>43.35330110974609851837158203125</LatitudeDegrees>
              <LongitudeDegrees>-3.1753098405897617340087890625</LongitudeDegrees>
            </Position>
            <AltitudeMeters>-13.3999996185302734375</AltitudeMeters>
            <DistanceMeters>NAN</DistanceMeters>
          </Trackpoint>
          <Trackpoint>
            <Time>2022-07-12T16:22:30.000Z</Time>
            <Position>
              <LatitudeDegrees>43.3533296920359134674072265625</LatitudeDegrees>
              <LongitudeDegrees>-3.17520313896238803863525390625</LongitudeDegrees>
            </Position>
            <AltitudeMeters>-12.80000019073486328125</AltitudeMeters>
            <DistanceMeters>NAN</DistanceMeters>
          </Trackpoint>
          <Trackpoint>
            <Time>2022-07-12T16:22:31.000Z</Time>
            <Position>
              <LatitudeDegrees>43.3533293567597866058349609375</LatitudeDegrees>
              <LongitudeDegrees>-3.17518067546188831329345703125</LongitudeDegrees>
            </Position>
            <AltitudeMeters>-12.80000019073486328125</AltitudeMeters>
            <DistanceMeters>NAN</DistanceMeters>
          </Trackpoint>
          <Trackpoint>
            <Time>2022-07-12T16:22:34.000Z</Time>
            <Position>
              <LatitudeDegrees>43.35334695875644683837890625</LatitudeDegrees>
              <LongitudeDegrees>-3.1751314736902713775634765625</LongitudeDegrees>
            </Position>
            <AltitudeMeters>-12.6000003814697265625</AltitudeMeters>
            <DistanceMeters>NAN</DistanceMeters>
          </Trackpoint>
          <Trackpoint>
            <Time>2022-07-12T16:22:36.000Z</Time>
            <Position>
              <LatitudeDegrees>43.3533484674990177154541015625</LatitudeDegrees>
              <LongitudeDegrees>-3.175087384879589080810546875</LongitudeDegrees>
            </Position>
            <AltitudeMeters>-12.3999996185302734375</AltitudeMeters>
            <DistanceMeters>NAN</DistanceMeters>
          </Trackpoint>
          <Trackpoint>
            <Time>2022-07-12T16:22:42.000Z</Time>
            <Position>
              <LatitudeDegrees>43.3533833362162113189697265625</LatitudeDegrees>
              <LongitudeDegrees>-3.1749755702912807464599609375</LongitudeDegrees>
            </Position>
            <AltitudeMeters>-11.6000003814697265625</AltitudeMeters>
            <DistanceMeters>NAN</DistanceMeters>
          </Trackpoint>
          <Trackpoint>
            <Time>2022-07-12T16:22:44.000Z</Time>
            <Position>
              <LatitudeDegrees>43.35340328514575958251953125</LatitudeDegrees>
              <LongitudeDegrees>-3.174942545592784881591796875</LongitudeDegrees>
            </Position>
            <AltitudeMeters>-11.3999996185302734375</AltitudeMeters>
            <DistanceMeters>NAN</DistanceMeters>
          </Trackpoint>
          <Trackpoint>
            <Time>2022-07-12T16:22:50.000Z</Time>
            <Position>
              <LatitudeDegrees>43.3534681610763072967529296875</LatitudeDegrees>
              <LongitudeDegrees>-3.17484322004020214080810546875</LongitudeDegrees>
            </Position>
            <AltitudeMeters>-11.19999980926513671875</AltitudeMeters>
            <DistanceMeters>NAN</DistanceMeters>
          </Trackpoint>
          <Trackpoint>
            <Time>2022-07-12T16:22:53.000Z</Time>
            <Position>
              <LatitudeDegrees>43.353505544364452362060546875</LatitudeDegrees>
              <LongitudeDegrees>-3.174807764589786529541015625</LongitudeDegrees>
            </Position>
            <AltitudeMeters>-10.80000019073486328125</AltitudeMeters>
            <DistanceMeters>NAN</DistanceMeters>
          </Trackpoint>
          <Trackpoint>
            <Time>2022-07-12T16:22:55.000Z</Time>
            <Position>
              <LatitudeDegrees>43.3535353839397430419921875</LatitudeDegrees>
              <LongitudeDegrees>-3.1747864745557308197021484375</LongitudeDegrees>
            </Position>
            <AltitudeMeters>-10.6000003814697265625</AltitudeMeters>
            <DistanceMeters>NAN</DistanceMeters>
          </Trackpoint>
          <Trackpoint>
            <Time>2022-07-12T16:23:01.000Z</Time>
            <Position>
              <LatitudeDegrees>43.353610821068286895751953125</LatitudeDegrees>
              <LongitudeDegrees>-3.1747415475547313690185546875</LongitudeDegrees>
            </Position>
            <AltitudeMeters>-10</AltitudeMeters>
            <DistanceMeters>NAN</DistanceMeters>
          </Trackpoint>
          <Trackpoint>
            <Time>2022-07-12T16:23:06.000Z</Time>
            <Position>
              <LatitudeDegrees>43.3536790497601032257080078125</LatitudeDegrees>
              <LongitudeDegrees>-3.17472738213837146759033203125</LongitudeDegrees>
            </Position>
            <AltitudeMeters>-9.3999996185302734375</AltitudeMeters>
            <DistanceMeters>NAN</DistanceMeters>
          </Trackpoint>
          <Trackpoint>
            <Time>2022-07-12T16:23:10.000Z</Time>
            <Position>
              <LatitudeDegrees>43.35373495705425739288330078125</LatitudeDegrees>
              <LongitudeDegrees>-3.174739368259906768798828125</LongitudeDegrees>
            </Position>
            <AltitudeMeters>-9</AltitudeMeters>
            <DistanceMeters>NAN</DistanceMeters>
          </Trackpoint>
          <Trackpoint>
            <Time>2022-07-12T16:23:12.000Z</Time>
            <Position>
              <LatitudeDegrees>43.3537588454782962799072265625</LatitudeDegrees>
              <LongitudeDegrees>-3.1747338362038135528564453125</LongitudeDegrees>
            </Position>
            <AltitudeMeters>-9</AltitudeMeters>
            <DistanceMeters>NAN</DistanceMeters>
          </Trackpoint>
          <Trackpoint>
            <Time>2022-07-12T16:23:14.000Z</Time>
            <Position>
              <LatitudeDegrees>43.3537729270756244659423828125</LatitudeDegrees>
              <LongitudeDegrees>-3.1747301481664180755615234375</LongitudeDegrees>
            </Position>
            <AltitudeMeters>-8.80000019073486328125</AltitudeMeters>
            <DistanceMeters>NAN</DistanceMeters>
          </Trackpoint>
          <Trackpoint>
            <Time>2022-07-12T16:23:18.000Z</Time>
            <Position>
              <LatitudeDegrees>43.35380502976477146148681640625</LatitudeDegrees>
              <LongitudeDegrees>-3.1747894920408725738525390625</LongitudeDegrees>
            </Position>
            <AltitudeMeters>-8.3999996185302734375</AltitudeMeters>
            <DistanceMeters>NAN</DistanceMeters>
          </Trackpoint>
          <Trackpoint>
            <Time>2022-07-12T16:23:19.000Z</Time>
            <Position>
              <LatitudeDegrees>43.353820703923702239990234375</LatitudeDegrees>
              <LongitudeDegrees>-3.174767531454563140869140625</LongitudeDegrees>
            </Position>
            <AltitudeMeters>-8.19999980926513671875</AltitudeMeters>
            <DistanceMeters>NAN</DistanceMeters>
          </Trackpoint>
          <Trackpoint>
            <Time>2022-07-12T16:23:20.000Z</Time>
            <Position>
              <LatitudeDegrees>43.35385213606059551239013671875</LatitudeDegrees>
              <LongitudeDegrees>-3.1747267954051494598388671875</LongitudeDegrees>
            </Position>
            <AltitudeMeters>-8</AltitudeMeters>
            <DistanceMeters>NAN</DistanceMeters>
          </Trackpoint>
          <Trackpoint>
            <Time>2022-07-12T16:23:25.000Z</Time>
            <Position>
              <LatitudeDegrees>43.35395322181284427642822265625</LatitudeDegrees>
              <LongitudeDegrees>-3.17464842461049556732177734375</LongitudeDegrees>
            </Position>
            <AltitudeMeters>-7.400000095367431640625</AltitudeMeters>
            <DistanceMeters>NAN</DistanceMeters>
          </Trackpoint>
          <Trackpoint>
            <Time>2022-07-12T16:23:27.000Z</Time>
            <Position>
              <LatitudeDegrees>43.354155980050563812255859375</LatitudeDegrees>
              <LongitudeDegrees>-3.1747016496956348419189453125</LongitudeDegrees>
            </Position>
            <AltitudeMeters>-7.19999980926513671875</AltitudeMeters>
            <DistanceMeters>NAN</DistanceMeters>
          </Trackpoint>
          <Trackpoint>
            <Time>2022-07-12T16:23:31.000Z</Time>
            <Position>
              <LatitudeDegrees>43.35430710576474666595458984375</LatitudeDegrees>
              <LongitudeDegrees>-3.174796365201473236083984375</LongitudeDegrees>
            </Position>
            <AltitudeMeters>-6.80000019073486328125</AltitudeMeters>
            <DistanceMeters>NAN</DistanceMeters>
          </Trackpoint>
          <Trackpoint>
            <Time>2022-07-12T16:23:34.000Z</Time>
            <Position>
              <LatitudeDegrees>43.3540864102542400360107421875</LatitudeDegrees>
              <LongitudeDegrees>-3.1748329102993011474609375</LongitudeDegrees>
            </Position>
            <AltitudeMeters>-6.19999980926513671875</AltitudeMeters>
            <DistanceMeters>NAN</DistanceMeters>
          </Trackpoint>
          <Trackpoint>
            <Time>2022-07-12T16:23:37.000Z</Time>
            <Position>
              <LatitudeDegrees>43.35407258011400699615478515625</LatitudeDegrees>
              <LongitudeDegrees>-3.174903653562068939208984375</LongitudeDegrees>
            </Position>
            <AltitudeMeters>-6</AltitudeMeters>
            <DistanceMeters>NAN</DistanceMeters>
          </Trackpoint>
          <Trackpoint>
            <Time>2022-07-12T16:23:42.000Z</Time>
            <Position>
              <LatitudeDegrees>43.3541092090308666229248046875</LatitudeDegrees>
              <LongitudeDegrees>-3.17486451007425785064697265625</LongitudeDegrees>
            </Position>
            <AltitudeMeters>-5.19999980926513671875</AltitudeMeters>
            <DistanceMeters>NAN</DistanceMeters>
          </Trackpoint>
          <Trackpoint>
            <Time>2022-07-12T16:23:47.000Z</Time>
            <Position>
              <LatitudeDegrees>43.354172408580780029296875</LatitudeDegrees>
              <LongitudeDegrees>-3.17478664219379425048828125</LongitudeDegrees>
            </Position>
            <AltitudeMeters>-4.599999904632568359375</AltitudeMeters>
            <DistanceMeters>NAN</DistanceMeters>
          </Trackpoint>
          <Trackpoint>
            <Time>2022-07-12T16:23:50.000Z</Time>
            <Position>
              <LatitudeDegrees>43.35420819930732250213623046875</LatitudeDegrees>
              <LongitudeDegrees>-3.17474238574504852294921875</LongitudeDegrees>
            </Position>
            <AltitudeMeters>-4</AltitudeMeters>
            <DistanceMeters>NAN</DistanceMeters>
          </Trackpoint>
          <Trackpoint>
            <Time>2022-07-12T16:23:57.000Z</Time>
            <Position>
              <LatitudeDegrees>43.35429386235773563385009765625</LatitudeDegrees>
              <LongitudeDegrees>-3.17466367967426776885986328125</LongitudeDegrees>
            </Position>
            <AltitudeMeters>-3.2000000476837158203125</AltitudeMeters>
            <DistanceMeters>NAN</DistanceMeters>
          </Trackpoint>
          <Trackpoint>
            <Time>2022-07-12T16:23:59.000Z</Time>
            <Position>
              <LatitudeDegrees>43.35432655178010463714599609375</LatitudeDegrees>
              <LongitudeDegrees>-3.1746496818959712982177734375</LongitudeDegrees>
            </Position>
            <AltitudeMeters>-3</AltitudeMeters>
            <DistanceMeters>NAN</DistanceMeters>
          </Trackpoint>
          <Trackpoint>
            <Time>2022-07-12T16:24:06.000Z</Time>
            <Position>
              <LatitudeDegrees>43.3544190041720867156982421875</LatitudeDegrees>
              <LongitudeDegrees>-3.1745943613350391387939453125</LongitudeDegrees>
            </Position>
            <AltitudeMeters>-2.2000000476837158203125</AltitudeMeters>
            <DistanceMeters>NAN</DistanceMeters>
          </Trackpoint>
          <Trackpoint>
            <Time>2022-07-12T16:24:10.000Z</Time>
            <Position>
              <LatitudeDegrees>43.35445982404053211212158203125</LatitudeDegrees>
              <LongitudeDegrees>-3.1745727360248565673828125</LongitudeDegrees>
            </Position>
            <AltitudeMeters>-1.7999999523162841796875</AltitudeMeters>
            <DistanceMeters>NAN</DistanceMeters>
          </Trackpoint>
          <Trackpoint>
            <Time>2022-07-12T16:24:14.000Z</Time>
            <Position>
              <LatitudeDegrees>43.354514054954051971435546875</LatitudeDegrees>
              <LongitudeDegrees>-3.174579106271266937255859375</LongitudeDegrees>
            </Position>
            <AltitudeMeters>-1.60000002384185791015625</AltitudeMeters>
            <DistanceMeters>NAN</DistanceMeters>
          </Trackpoint>
          <Trackpoint>
            <Time>2022-07-12T16:24:21.000Z</Time>
            <Position>
              <LatitudeDegrees>43.35461270995438098907470703125</LatitudeDegrees>
              <LongitudeDegrees>-3.17459545098245143890380859375</LongitudeDegrees>
            </Position>
            <AltitudeMeters>-0.800000011920928955078125</AltitudeMeters>
            <DistanceMeters>NAN</DistanceMeters>
          </Trackpoint>
          <Trackpoint>
            <Time>2022-07-12T16:24:23.000Z</Time>
            <Position>
              <LatitudeDegrees>43.354638777673244476318359375</LatitudeDegrees>
              <LongitudeDegrees>-3.17461020313203334808349609375</LongitudeDegrees>
            </Position>
            <AltitudeMeters>-0.60000002384185791015625</AltitudeMeters>
            <DistanceMeters>NAN</DistanceMeters>
          </Trackpoint>
          <Trackpoint>
            <Time>2022-07-12T16:24:31.000Z</Time>
            <Position>
              <LatitudeDegrees>43.35471748374402523040771484375</LatitudeDegrees>
              <LongitudeDegrees>-3.17472419701516628265380859375</LongitudeDegrees>
            </Position>
            <AltitudeMeters>0.20000000298023223876953125</AltitudeMeters>
            <DistanceMeters>NAN</DistanceMeters>
          </Trackpoint>
          <Trackpoint>
            <Time>2022-07-12T16:24:32.000Z</Time>
            <Position>
              <LatitudeDegrees>43.3547241054475307464599609375</LatitudeDegrees>
              <LongitudeDegrees>-3.17474096082150936126708984375</LongitudeDegrees>
            </Position>
            <AltitudeMeters>0.20000000298023223876953125</AltitudeMeters>
            <DistanceMeters>NAN</DistanceMeters>
          </Trackpoint>
          <Trackpoint>
            <Time>2022-07-12T16:24:39.000Z</Time>
            <Position>
              <LatitudeDegrees>43.3547767437994480133056640625</LatitudeDegrees>
              <LongitudeDegrees>-3.17483785562217235565185546875</LongitudeDegrees>
            </Position>
            <AltitudeMeters>1</AltitudeMeters>
            <DistanceMeters>NAN</DistanceMeters>
          </Trackpoint>
          <Trackpoint>
            <Time>2022-07-12T16:24:44.000Z</Time>
            <Position>
              <LatitudeDegrees>43.35480951704084873199462890625</LatitudeDegrees>
              <LongitudeDegrees>-3.1749214231967926025390625</LongitudeDegrees>
            </Position>
            <AltitudeMeters>1.2000000476837158203125</AltitudeMeters>
            <DistanceMeters>NAN</DistanceMeters>
          </Trackpoint>
          <Trackpoint>
            <Time>2022-07-12T16:24:51.000Z</Time>
            <Position>
              <LatitudeDegrees>43.35485637187957763671875</LatitudeDegrees>
              <LongitudeDegrees>-3.17504321224987506866455078125</LongitudeDegrees>
            </Position>
            <AltitudeMeters>2</AltitudeMeters>
            <DistanceMeters>NAN</DistanceMeters>
          </Trackpoint>
          <Trackpoint>
            <Time>2022-07-12T16:24:54.000Z</Time>
            <Position>
              <LatitudeDegrees>43.3548736386001110076904296875</LatitudeDegrees>
              <LongitudeDegrees>-3.1750939227640628814697265625</LongitudeDegrees>
            </Position>
            <AltitudeMeters>2.2000000476837158203125</AltitudeMeters>
            <DistanceMeters>NAN</DistanceMeters>
          </Trackpoint>
          <Trackpoint>
            <Time>2022-07-12T16:24:59.000Z</Time>
            <Position>
              <LatitudeDegrees>43.35491261444985866546630859375</LatitudeDegrees>
              <LongitudeDegrees>-3.17515385337173938751220703125</LongitudeDegrees>
            </Position>
            <AltitudeMeters>3</AltitudeMeters>
            <DistanceMeters>NAN</DistanceMeters>
          </Trackpoint>
          <Trackpoint>
            <Time>2022-07-12T16:25:02.000Z</Time>
            <Position>
              <LatitudeDegrees>43.3549336530268192291259765625</LatitudeDegrees>
              <LongitudeDegrees>-3.17520565353333950042724609375</LongitudeDegrees>
            </Position>
            <AltitudeMeters>3.2000000476837158203125</AltitudeMeters>
            <DistanceMeters>NAN</DistanceMeters>
          </Trackpoint>
          <Trackpoint>
            <Time>2022-07-12T16:25:09.000Z</Time>
            <Position>
              <LatitudeDegrees>43.3549856208264827728271484375</LatitudeDegrees>
              <LongitudeDegrees>-3.17531344480812549591064453125</LongitudeDegrees>
            </Position>
            <AltitudeMeters>4</AltitudeMeters>
            <DistanceMeters>NAN</DistanceMeters>
          </Trackpoint>
          <Trackpoint>
            <Time>2022-07-12T16:25:11.000Z</Time>
            <Position>
              <LatitudeDegrees>43.3550043962895870208740234375</LatitudeDegrees>
              <LongitudeDegrees>-3.17533993162214756011962890625</LongitudeDegrees>
            </Position>
            <AltitudeMeters>4.400000095367431640625</AltitudeMeters>
            <DistanceMeters>NAN</DistanceMeters>
          </Trackpoint>
          <Trackpoint>
            <Time>2022-07-12T16:25:18.000Z</Time>
            <Position>
              <LatitudeDegrees>43.3550640754401683807373046875</LatitudeDegrees>
              <LongitudeDegrees>-3.175458200275897979736328125</LongitudeDegrees>
            </Position>
            <AltitudeMeters>4.80000019073486328125</AltitudeMeters>
            <DistanceMeters>NAN</DistanceMeters>
          </Trackpoint>
          <Trackpoint>
            <Time>2022-07-12T16:25:25.000Z</Time>
            <Position>
              <LatitudeDegrees>43.3551254309713840484619140625</LatitudeDegrees>
              <LongitudeDegrees>-3.17557294853031635284423828125</LongitudeDegrees>
            </Position>
            <AltitudeMeters>5.400000095367431640625</AltitudeMeters>
            <DistanceMeters>NAN</DistanceMeters>
          </Trackpoint>
          <Trackpoint>
            <Time>2022-07-12T16:25:28.000Z</Time>
            <Position>
              <LatitudeDegrees>43.35515451617538928985595703125</LatitudeDegrees>
              <LongitudeDegrees>-3.17561787553131580352783203125</LongitudeDegrees>
            </Position>
            <AltitudeMeters>5.80000019073486328125</AltitudeMeters>
            <DistanceMeters>NAN</DistanceMeters>
          </Trackpoint>
          <Trackpoint>
            <Time>2022-07-12T16:25:36.000Z</Time>
            <Position>
              <LatitudeDegrees>43.35521511733531951904296875</LatitudeDegrees>
              <LongitudeDegrees>-3.17578350193798542022705078125</LongitudeDegrees>
            </Position>
            <AltitudeMeters>6</AltitudeMeters>
            <DistanceMeters>NAN</DistanceMeters>
          </Trackpoint>
          <Trackpoint>
            <Time>2022-07-12T16:25:41.000Z</Time>
            <Position>
              <LatitudeDegrees>43.35525090806186199188232421875</LatitudeDegrees>
              <LongitudeDegrees>-3.17588425241410732269287109375</LongitudeDegrees>
            </Position>
            <AltitudeMeters>6.19999980926513671875</AltitudeMeters>
            <DistanceMeters>NAN</DistanceMeters>
          </Trackpoint>
          <Trackpoint>
            <Time>2022-07-12T16:25:44.000Z</Time>
            <Position>
              <LatitudeDegrees>43.3552736230194568634033203125</LatitudeDegrees>
              <LongitudeDegrees>-3.1759508885443210601806640625</LongitudeDegrees>
            </Position>
            <AltitudeMeters>6.400000095367431640625</AltitudeMeters>
            <DistanceMeters>NAN</DistanceMeters>
          </Trackpoint>
          <Trackpoint>
            <Time>2022-07-12T16:25:45.000Z</Time>
            <Position>
              <LatitudeDegrees>43.35528158582746982574462890625</LatitudeDegrees>
              <LongitudeDegrees>-3.17597092129290103912353515625</LongitudeDegrees>
            </Position>
            <AltitudeMeters>6.599999904632568359375</AltitudeMeters>
            <DistanceMeters>NAN</DistanceMeters>
          </Trackpoint>
          <Trackpoint>
            <Time>2022-07-12T16:25:46.000Z</Time>
            <Position>
              <LatitudeDegrees>43.35529164411127567291259765625</LatitudeDegrees>
              <LongitudeDegrees>-3.1759917922317981719970703125</LongitudeDegrees>
            </Position>
            <AltitudeMeters>6.599999904632568359375</AltitudeMeters>
            <DistanceMeters>NAN</DistanceMeters>
          </Trackpoint>
          <Trackpoint>
            <Time>2022-07-12T16:25:47.000Z</Time>
            <Position>
              <LatitudeDegrees>43.35530203767120838165283203125</LatitudeDegrees>
              <LongitudeDegrees>-3.17601031623780727386474609375</LongitudeDegrees>
            </Position>
            <AltitudeMeters>6.80000019073486328125</AltitudeMeters>
            <DistanceMeters>NAN</DistanceMeters>
          </Trackpoint>
          <Trackpoint>
            <Time>2022-07-12T16:25:48.000Z</Time>
            <Position>
              <LatitudeDegrees>43.3553141914308071136474609375</LatitudeDegrees>
              <LongitudeDegrees>-3.17602892406284809112548828125</LongitudeDegrees>
            </Position>
            <AltitudeMeters>6.80000019073486328125</AltitudeMeters>
            <DistanceMeters>NAN</DistanceMeters>
          </Trackpoint>
          <Trackpoint>
            <Time>2022-07-12T16:25:49.000Z</Time>
            <Position>
              <LatitudeDegrees>43.35532617755234241485595703125</LatitudeDegrees>
              <LongitudeDegrees>-3.17604769952595233917236328125</LongitudeDegrees>
            </Position>
            <AltitudeMeters>7</AltitudeMeters>
            <DistanceMeters>NAN</DistanceMeters>
          </Trackpoint>
          <Trackpoint>
            <Time>2022-07-12T16:25:50.000Z</Time>
            <Position>
              <LatitudeDegrees>43.35533916950225830078125</LatitudeDegrees>
              <LongitudeDegrees>-3.1760628707706928253173828125</LongitudeDegrees>
            </Position>
            <AltitudeMeters>7</AltitudeMeters>
            <DistanceMeters>NAN</DistanceMeters>
          </Trackpoint>
          <Trackpoint>
            <Time>2022-07-12T16:25:53.000Z</Time>
            <Position>
              <LatitudeDegrees>43.3553782291710376739501953125</LatitudeDegrees>
              <LongitudeDegrees>-3.17610050551593303680419921875</LongitudeDegrees>
            </Position>
            <AltitudeMeters>7.19999980926513671875</AltitudeMeters>
            <DistanceMeters>NAN</DistanceMeters>
          </Trackpoint>
          <Trackpoint>
            <Time>2022-07-12T16:25:59.000Z</Time>
            <Position>
              <LatitudeDegrees>43.35543715395033359527587890625</LatitudeDegrees>
              <LongitudeDegrees>-3.1762026809155941009521484375</LongitudeDegrees>
            </Position>
            <AltitudeMeters>7.599999904632568359375</AltitudeMeters>
            <DistanceMeters>NAN</DistanceMeters>
          </Trackpoint>
          <Trackpoint>
            <Time>2022-07-12T16:26:02.000Z</Time>
            <Position>
              <LatitudeDegrees>43.3554546721279621124267578125</LatitudeDegrees>
              <LongitudeDegrees>-3.176266886293888092041015625</LongitudeDegrees>
            </Position>
            <AltitudeMeters>7.599999904632568359375</AltitudeMeters>
            <DistanceMeters>NAN</DistanceMeters>
          </Trackpoint>
          <Trackpoint>
            <Time>2022-07-12T16:26:10.000Z</Time>
            <Position>
              <LatitudeDegrees>43.35540815256536006927490234375</LatitudeDegrees>
              <LongitudeDegrees>-3.17647299729287624359130859375</LongitudeDegrees>
            </Position>
            <AltitudeMeters>7.80000019073486328125</AltitudeMeters>
            <DistanceMeters>NAN</DistanceMeters>
          </Trackpoint>
          <Trackpoint>
            <Time>2022-07-12T16:26:13.000Z</Time>
            <Position>
              <LatitudeDegrees>43.35537931881844997406005859375</LatitudeDegrees>
              <LongitudeDegrees>-3.17654290236532688140869140625</LongitudeDegrees>
            </Position>
            <AltitudeMeters>8</AltitudeMeters>
            <DistanceMeters>NAN</DistanceMeters>
          </Trackpoint>
          <Trackpoint>
            <Time>2022-07-12T16:26:16.000Z</Time>
            <Position>
              <LatitudeDegrees>43.35534143261611461639404296875</LatitudeDegrees>
              <LongitudeDegrees>-3.17661850713193416595458984375</LongitudeDegrees>
            </Position>
            <AltitudeMeters>8.3999996185302734375</AltitudeMeters>
            <DistanceMeters>NAN</DistanceMeters>
          </Trackpoint>
          <Trackpoint>
            <Time>2022-07-12T16:26:18.000Z</Time>
            <Position>
              <LatitudeDegrees>43.35532399825751781463623046875</LatitudeDegrees>
              <LongitudeDegrees>-3.17667223513126373291015625</LongitudeDegrees>
            </Position>
            <AltitudeMeters>8.6000003814697265625</AltitudeMeters>
            <DistanceMeters>NAN</DistanceMeters>
          </Trackpoint>
          <Trackpoint>
            <Time>2022-07-12T16:26:19.000Z</Time>
            <Position>
              <LatitudeDegrees>43.35531997494399547576904296875</LatitudeDegrees>
              <LongitudeDegrees>-3.17669729702174663543701171875</LongitudeDegrees>
            </Position>
            <AltitudeMeters>8.6000003814697265625</AltitudeMeters>
            <DistanceMeters>NAN</DistanceMeters>
          </Trackpoint>
          <Trackpoint>
            <Time>2022-07-12T16:26:26.000Z</Time>
            <Position>
              <LatitudeDegrees>43.35527873598039150238037109375</LatitudeDegrees>
              <LongitudeDegrees>-3.17685135640203952789306640625</LongitudeDegrees>
            </Position>
            <AltitudeMeters>9.6000003814697265625</AltitudeMeters>
            <DistanceMeters>NAN</DistanceMeters>
          </Trackpoint>
          <Trackpoint>
            <Time>2022-07-12T16:26:33.000Z</Time>
            <Position>
              <LatitudeDegrees>43.355255685746669769287109375</LatitudeDegrees>
              <LongitudeDegrees>-3.1770028173923492431640625</LongitudeDegrees>
            </Position>
            <AltitudeMeters>10.6000003814697265625</AltitudeMeters>
            <DistanceMeters>NAN</DistanceMeters>
          </Trackpoint>
          <Trackpoint>
            <Time>2022-07-12T16:26:34.000Z</Time>
            <Position>
              <LatitudeDegrees>43.35524990223348140716552734375</LatitudeDegrees>
              <LongitudeDegrees>-3.17702385596930980682373046875</LongitudeDegrees>
            </Position>
            <AltitudeMeters>10.6000003814697265625</AltitudeMeters>
            <DistanceMeters>NAN</DistanceMeters>
          </Trackpoint>
          <Trackpoint>
            <Time>2022-07-12T16:26:43.000Z</Time>
            <Position>
              <LatitudeDegrees>43.355175219476222991943359375</LatitudeDegrees>
              <LongitudeDegrees>-3.1771806813776493072509765625</LongitudeDegrees>
            </Position>
            <AltitudeMeters>11.6000003814697265625</AltitudeMeters>
            <DistanceMeters>NAN</DistanceMeters>
          </Trackpoint>
          <Trackpoint>
            <Time>2022-07-12T16:26:44.000Z</Time>
            <Position>
              <LatitudeDegrees>43.35515937767922878265380859375</LatitudeDegrees>
              <LongitudeDegrees>-3.177194930613040924072265625</LongitudeDegrees>
            </Position>
            <AltitudeMeters>11.80000019073486328125</AltitudeMeters>
            <DistanceMeters>NAN</DistanceMeters>
          </Trackpoint>
          <Trackpoint>
            <Time>2022-07-12T16:26:51.000Z</Time>
            <Position>
              <LatitudeDegrees>43.35507698357105255126953125</LatitudeDegrees>
              <LongitudeDegrees>-3.1772983632981777191162109375</LongitudeDegrees>
            </Position>
            <AltitudeMeters>12.19999980926513671875</AltitudeMeters>
            <DistanceMeters>NAN</DistanceMeters>
          </Trackpoint>
          <Trackpoint>
            <Time>2022-07-12T16:26:54.000Z</Time>
            <Position>
              <LatitudeDegrees>43.3550416119396686553955078125</LatitudeDegrees>
              <LongitudeDegrees>-3.17734655924141407012939453125</LongitudeDegrees>
            </Position>
            <AltitudeMeters>12.80000019073486328125</AltitudeMeters>
            <DistanceMeters>NAN</DistanceMeters>
          </Trackpoint>
          <Trackpoint>
            <Time>2022-07-12T16:27:00.000Z</Time>
            <Position>
              <LatitudeDegrees>43.35495837964117527008056640625</LatitudeDegrees>
              <LongitudeDegrees>-3.17742149345576763153076171875</LongitudeDegrees>
            </Position>
            <AltitudeMeters>13.3999996185302734375</AltitudeMeters>
            <DistanceMeters>NAN</DistanceMeters>
          </Trackpoint>
          <Trackpoint>
            <Time>2022-07-12T16:27:04.000Z</Time>
            <Position>
              <LatitudeDegrees>43.35490808822214603424072265625</LatitudeDegrees>
              <LongitudeDegrees>-3.1774696893990039825439453125</LongitudeDegrees>
            </Position>
            <AltitudeMeters>13.80000019073486328125</AltitudeMeters>
            <DistanceMeters>NAN</DistanceMeters>
          </Trackpoint>
          <Trackpoint>
            <Time>2022-07-12T16:27:09.000Z</Time>
            <Position>
              <LatitudeDegrees>43.35484656505286693572998046875</LatitudeDegrees>
              <LongitudeDegrees>-3.1775457970798015594482421875</LongitudeDegrees>
            </Position>
            <AltitudeMeters>14.6000003814697265625</AltitudeMeters>
            <DistanceMeters>NAN</DistanceMeters>
          </Trackpoint>
          <Trackpoint>
            <Time>2022-07-12T16:27:12.000Z</Time>
            <Position>
              <LatitudeDegrees>43.354815803468227386474609375</LatitudeDegrees>
              <LongitudeDegrees>-3.177582509815692901611328125</LongitudeDegrees>
            </Position>
            <AltitudeMeters>15</AltitudeMeters>
            <DistanceMeters>NAN</DistanceMeters>
          </Trackpoint>
          <Trackpoint>
            <Time>2022-07-12T16:27:20.000Z</Time>
            <Position>
              <LatitudeDegrees>43.35472066886723041534423828125</LatitudeDegrees>
              <LongitudeDegrees>-3.1776976771652698516845703125</LongitudeDegrees>
            </Position>
            <AltitudeMeters>15.80000019073486328125</AltitudeMeters>
            <DistanceMeters>NAN</DistanceMeters>
          </Trackpoint>
          <Trackpoint>
            <Time>2022-07-12T16:27:22.000Z</Time>
            <Position>
              <LatitudeDegrees>43.35469250567257404327392578125</LatitudeDegrees>
              <LongitudeDegrees>-3.17772768437862396240234375</LongitudeDegrees>
            </Position>
            <AltitudeMeters>16</AltitudeMeters>
            <DistanceMeters>NAN</DistanceMeters>
          </Trackpoint>
          <Trackpoint>
            <Time>2022-07-12T16:27:29.000Z</Time>
            <Position>
              <LatitudeDegrees>43.35460332222282886505126953125</LatitudeDegrees>
              <LongitudeDegrees>-3.177831284701824188232421875</LongitudeDegrees>
            </Position>
            <AltitudeMeters>17</AltitudeMeters>
            <DistanceMeters>NAN</DistanceMeters>
          </Trackpoint>
          <Trackpoint>
            <Time>2022-07-12T16:27:30.000Z</Time>
            <Position>
              <LatitudeDegrees>43.35459192283451557159423828125</LatitudeDegrees>
              <LongitudeDegrees>-3.177845366299152374267578125</LongitudeDegrees>
            </Position>
            <AltitudeMeters>17</AltitudeMeters>
            <DistanceMeters>NAN</DistanceMeters>
          </Trackpoint>
          <Trackpoint>
            <Time>2022-07-12T16:27:32.000Z</Time>
            <Position>
              <LatitudeDegrees>43.35456744767725467681884765625</LatitudeDegrees>
              <LongitudeDegrees>-3.1778683327138423919677734375</LongitudeDegrees>
            </Position>
            <AltitudeMeters>17.200000762939453125</AltitudeMeters>
            <DistanceMeters>NAN</DistanceMeters>
          </Trackpoint>
          <Trackpoint>
            <Time>2022-07-12T16:27:39.000Z</Time>
            <Position>
              <LatitudeDegrees>43.3544848859310150146484375</LatitudeDegrees>
              <LongitudeDegrees>-3.1779575161635875701904296875</LongitudeDegrees>
            </Position>
            <AltitudeMeters>18</AltitudeMeters>
            <DistanceMeters>NAN</DistanceMeters>
          </Trackpoint>
          <Trackpoint>
            <Time>2022-07-12T16:27:41.000Z</Time>
            <Position>
              <LatitudeDegrees>43.3544602431356906890869140625</LatitudeDegrees>
              <LongitudeDegrees>-3.1779818236827850341796875</LongitudeDegrees>
            </Position>
            <AltitudeMeters>18.200000762939453125</AltitudeMeters>
            <DistanceMeters>NAN</DistanceMeters>
          </Trackpoint>
          <Trackpoint>
            <Time>2022-07-12T16:27:47.000Z</Time>
            <Position>
              <LatitudeDegrees>43.3543891645967960357666015625</LatitudeDegrees>
              <LongitudeDegrees>-3.178055249154567718505859375</LongitudeDegrees>
            </Position>
            <AltitudeMeters>18.6000003814697265625</AltitudeMeters>
            <DistanceMeters>NAN</DistanceMeters>
          </Trackpoint>
          <Trackpoint>
            <Time>2022-07-12T16:27:53.000Z</Time>
            <Position>
              <LatitudeDegrees>43.35433158092200756072998046875</LatitudeDegrees>
              <LongitudeDegrees>-3.17814216949045658111572265625</LongitudeDegrees>
            </Position>
            <AltitudeMeters>19.3999996185302734375</AltitudeMeters>
            <DistanceMeters>NAN</DistanceMeters>
          </Trackpoint>
          <Trackpoint>
            <Time>2022-07-12T16:27:59.000Z</Time>
            <Position>
              <LatitudeDegrees>43.35425279103219509124755859375</LatitudeDegrees>
              <LongitudeDegrees>-3.17822766490280628204345703125</LongitudeDegrees>
            </Position>
            <AltitudeMeters>20.200000762939453125</AltitudeMeters>
            <DistanceMeters>NAN</DistanceMeters>
          </Trackpoint>
          <Trackpoint>
            <Time>2022-07-12T16:28:01.000Z</Time>
            <Position>
              <LatitudeDegrees>43.3542292378842830657958984375</LatitudeDegrees>
              <LongitudeDegrees>-3.1782663054764270782470703125</LongitudeDegrees>
            </Position>
            <AltitudeMeters>20.3999996185302734375</AltitudeMeters>
            <DistanceMeters>NAN</DistanceMeters>
          </Trackpoint>
          <Trackpoint>
            <Time>2022-07-12T16:28:08.000Z</Time>
            <Position>
              <LatitudeDegrees>43.35414449684321880340576171875</LatitudeDegrees>
              <LongitudeDegrees>-3.17837066017091274261474609375</LongitudeDegrees>
            </Position>
            <AltitudeMeters>21.200000762939453125</AltitudeMeters>
            <DistanceMeters>NAN</DistanceMeters>
          </Trackpoint>
          <Trackpoint>
            <Time>2022-07-12T16:28:10.000Z</Time>
            <Position>
              <LatitudeDegrees>43.35412723012268543243408203125</LatitudeDegrees>
              <LongitudeDegrees>-3.17841055803000926971435546875</LongitudeDegrees>
            </Position>
            <AltitudeMeters>21.3999996185302734375</AltitudeMeters>
            <DistanceMeters>NAN</DistanceMeters>
          </Trackpoint>
          <Trackpoint>
            <Time>2022-07-12T16:28:15.000Z</Time>
            <Position>
              <LatitudeDegrees>43.354087583720684051513671875</LatitudeDegrees>
              <LongitudeDegrees>-3.1785127334296703338623046875</LongitudeDegrees>
            </Position>
            <AltitudeMeters>22</AltitudeMeters>
            <DistanceMeters>NAN</DistanceMeters>
          </Trackpoint>
          <Trackpoint>
            <Time>2022-07-12T16:28:17.000Z</Time>
            <Position>
              <LatitudeDegrees>43.35407978855073451995849609375</LatitudeDegrees>
              <LongitudeDegrees>-3.17855875007808208465576171875</LongitudeDegrees>
            </Position>
            <AltitudeMeters>22.200000762939453125</AltitudeMeters>
            <DistanceMeters>NAN</DistanceMeters>
          </Trackpoint>
          <Trackpoint>
            <Time>2022-07-12T16:28:20.000Z</Time>
            <Position>
              <LatitudeDegrees>43.35408565588295459747314453125</LatitudeDegrees>
              <LongitudeDegrees>-3.1786247156560420989990234375</LongitudeDegrees>
            </Position>
            <AltitudeMeters>22.6000003814697265625</AltitudeMeters>
            <DistanceMeters>NAN</DistanceMeters>
          </Trackpoint>
          <Trackpoint>
            <Time>2022-07-12T16:28:26.000Z</Time>
            <Position>
              <LatitudeDegrees>43.35409487597644329071044921875</LatitudeDegrees>
              <LongitudeDegrees>-3.17876678891479969024658203125</LongitudeDegrees>
            </Position>
            <AltitudeMeters>23.6000003814697265625</AltitudeMeters>
            <DistanceMeters>NAN</DistanceMeters>
          </Trackpoint>
          <Trackpoint>
            <Time>2022-07-12T16:28:32.000Z</Time>
            <Position>
              <LatitudeDegrees>43.35413309745490550994873046875</LatitudeDegrees>
              <LongitudeDegrees>-3.178897798061370849609375</LongitudeDegrees>
            </Position>
            <AltitudeMeters>24.3999996185302734375</AltitudeMeters>
            <DistanceMeters>NAN</DistanceMeters>
          </Trackpoint>
          <Trackpoint>
            <Time>2022-07-12T16:28:34.000Z</Time>
            <Position>
              <LatitudeDegrees>43.3541454188525676727294921875</LatitudeDegrees>
              <LongitudeDegrees>-3.1789392046630382537841796875</LongitudeDegrees>
            </Position>
            <AltitudeMeters>24.6000003814697265625</AltitudeMeters>
            <DistanceMeters>NAN</DistanceMeters>
          </Trackpoint>
          <Trackpoint>
            <Time>2022-07-12T16:28:37.000Z</Time>
            <Position>
              <LatitudeDegrees>43.3541605062782764434814453125</LatitudeDegrees>
              <LongitudeDegrees>-3.179004751145839691162109375</LongitudeDegrees>
            </Position>
            <AltitudeMeters>24.799999237060546875</AltitudeMeters>
            <DistanceMeters>NAN</DistanceMeters>
          </Trackpoint>
          <Trackpoint>
            <Time>2022-07-12T16:28:38.000Z</Time>
            <Position>
              <LatitudeDegrees>43.35416511632502079010009765625</LatitudeDegrees>
              <LongitudeDegrees>-3.17902855575084686279296875</LongitudeDegrees>
            </Position>
            <AltitudeMeters>25</AltitudeMeters>
            <DistanceMeters>NAN</DistanceMeters>
          </Trackpoint>
          <Trackpoint>
            <Time>2022-07-12T16:28:43.000Z</Time>
            <Position>
              <LatitudeDegrees>43.354218006134033203125</LatitudeDegrees>
              <LongitudeDegrees>-3.1791272945702075958251953125</LongitudeDegrees>
            </Position>
            <AltitudeMeters>25.200000762939453125</AltitudeMeters>
            <DistanceMeters>NAN</DistanceMeters>
          </Trackpoint>
          <Trackpoint>
            <Time>2022-07-12T16:28:50.000Z</Time>
            <Position>
              <LatitudeDegrees>43.35428078658878803253173828125</LatitudeDegrees>
              <LongitudeDegrees>-3.17926718853414058685302734375</LongitudeDegrees>
            </Position>
            <AltitudeMeters>25.799999237060546875</AltitudeMeters>
            <DistanceMeters>NAN</DistanceMeters>
          </Trackpoint>
          <Trackpoint>
            <Time>2022-07-12T16:28:55.000Z</Time>
            <Position>
              <LatitudeDegrees>43.3543157391250133514404296875</LatitudeDegrees>
              <LongitudeDegrees>-3.1793690286576747894287109375</LongitudeDegrees>
            </Position>
            <AltitudeMeters>26</AltitudeMeters>
            <DistanceMeters>NAN</DistanceMeters>
          </Trackpoint>
          <Trackpoint>
            <Time>2022-07-12T16:28:57.000Z</Time>
            <Position>
              <LatitudeDegrees>43.35434071719646453857421875</LatitudeDegrees>
              <LongitudeDegrees>-3.17941370420157909393310546875</LongitudeDegrees>
            </Position>
            <AltitudeMeters>26</AltitudeMeters>
            <DistanceMeters>NAN</DistanceMeters>
          </Trackpoint>
          <Trackpoint>
            <Time>2022-07-12T16:29:02.000Z</Time>
            <Position>
              <LatitudeDegrees>43.35437818430364131927490234375</LatitudeDegrees>
              <LongitudeDegrees>-3.179500959813594818115234375</LongitudeDegrees>
            </Position>
            <AltitudeMeters>26.3999996185302734375</AltitudeMeters>
            <DistanceMeters>NAN</DistanceMeters>
          </Trackpoint>
          <Trackpoint>
            <Time>2022-07-12T16:29:04.000Z</Time>
            <Position>
              <LatitudeDegrees>43.3543935231864452362060546875</LatitudeDegrees>
              <LongitudeDegrees>-3.17953817546367645263671875</LongitudeDegrees>
            </Position>
            <AltitudeMeters>26.6000003814697265625</AltitudeMeters>
            <DistanceMeters>NAN</DistanceMeters>
          </Trackpoint>
          <Trackpoint>
            <Time>2022-07-12T16:29:06.000Z</Time>
            <Position>
              <LatitudeDegrees>43.35440718568861484527587890625</LatitudeDegrees>
              <LongitudeDegrees>-3.17957782186567783355712890625</LongitudeDegrees>
            </Position>
            <AltitudeMeters>26.799999237060546875</AltitudeMeters>
            <DistanceMeters>NAN</DistanceMeters>
          </Trackpoint>
          <Trackpoint>
            <Time>2022-07-12T16:29:13.000Z</Time>
            <Position>
              <LatitudeDegrees>43.354459740221500396728515625</LatitudeDegrees>
              <LongitudeDegrees>-3.17971394397318363189697265625</LongitudeDegrees>
            </Position>
            <AltitudeMeters>27.200000762939453125</AltitudeMeters>
            <DistanceMeters>NAN</DistanceMeters>
          </Trackpoint>
          <Trackpoint>
            <Time>2022-07-12T16:29:14.000Z</Time>
            <Position>
              <LatitudeDegrees>43.35446250624954700469970703125</LatitudeDegrees>
              <LongitudeDegrees>-3.17973489873111248016357421875</LongitudeDegrees>
            </Position>
            <AltitudeMeters>27.200000762939453125</AltitudeMeters>
            <DistanceMeters>NAN</DistanceMeters>
          </Trackpoint>
          <Trackpoint>
            <Time>2022-07-12T16:29:23.000Z</Time>
            <Position>
              <LatitudeDegrees>43.354495950043201446533203125</LatitudeDegrees>
              <LongitudeDegrees>-3.179930113255977630615234375</LongitudeDegrees>
            </Position>
            <AltitudeMeters>27.799999237060546875</AltitudeMeters>
            <DistanceMeters>NAN</DistanceMeters>
          </Trackpoint>
          <Trackpoint>
            <Time>2022-07-12T16:29:24.000Z</Time>
            <Position>
              <LatitudeDegrees>43.35449703969061374664306640625</LatitudeDegrees>
              <LongitudeDegrees>-3.1799507327377796173095703125</LongitudeDegrees>
            </Position>
            <AltitudeMeters>27.799999237060546875</AltitudeMeters>
            <DistanceMeters>NAN</DistanceMeters>
          </Trackpoint>
          <Trackpoint>
            <Time>2022-07-12T16:29:34.000Z</Time>
            <Position>
              <LatitudeDegrees>43.354454375803470611572265625</LatitudeDegrees>
              <LongitudeDegrees>-3.18016690202057361602783203125</LongitudeDegrees>
            </Position>
            <AltitudeMeters>28.6000003814697265625</AltitudeMeters>
            <DistanceMeters>NAN</DistanceMeters>
          </Trackpoint>
          <Trackpoint>
            <Time>2022-07-12T16:29:36.000Z</Time>
            <Position>
              <LatitudeDegrees>43.3544387854635715484619140625</LatitudeDegrees>
              <LongitudeDegrees>-3.1802152656018733978271484375</LongitudeDegrees>
            </Position>
            <AltitudeMeters>28.799999237060546875</AltitudeMeters>
            <DistanceMeters>NAN</DistanceMeters>
          </Trackpoint>
          <Trackpoint>
            <Time>2022-07-12T16:29:44.000Z</Time>
            <Position>
              <LatitudeDegrees>43.3543791063129901885986328125</LatitudeDegrees>
              <LongitudeDegrees>-3.18040779791772365570068359375</LongitudeDegrees>
            </Position>
            <AltitudeMeters>29.6000003814697265625</AltitudeMeters>
            <DistanceMeters>NAN</DistanceMeters>
          </Trackpoint>
          <Trackpoint>
            <Time>2022-07-12T16:29:48.000Z</Time>
            <Position>
              <LatitudeDegrees>43.3543496020138263702392578125</LatitudeDegrees>
              <LongitudeDegrees>-3.1805019266903400421142578125</LongitudeDegrees>
            </Position>
            <AltitudeMeters>29.799999237060546875</AltitudeMeters>
            <DistanceMeters>NAN</DistanceMeters>
          </Trackpoint>
          <Trackpoint>
            <Time>2022-07-12T16:29:51.000Z</Time>
            <Position>
              <LatitudeDegrees>43.3543288148939609527587890625</LatitudeDegrees>
              <LongitudeDegrees>-3.1805693171918392181396484375</LongitudeDegrees>
            </Position>
            <AltitudeMeters>30.200000762939453125</AltitudeMeters>
            <DistanceMeters>NAN</DistanceMeters>
          </Trackpoint>
          <Trackpoint>
            <Time>2022-07-12T16:29:52.000Z</Time>
            <Position>
              <LatitudeDegrees>43.35432085208594799041748046875</LatitudeDegrees>
              <LongitudeDegrees>-3.18059102632105350494384765625</LongitudeDegrees>
            </Position>
            <AltitudeMeters>30.3999996185302734375</AltitudeMeters>
            <DistanceMeters>NAN</DistanceMeters>
          </Trackpoint>
          <Trackpoint>
            <Time>2022-07-12T16:29:59.000Z</Time>
            <Position>
              <LatitudeDegrees>43.3542637713253498077392578125</LatitudeDegrees>
              <LongitudeDegrees>-3.180733434855937957763671875</LongitudeDegrees>
            </Position>
            <AltitudeMeters>31</AltitudeMeters>
            <DistanceMeters>NAN</DistanceMeters>
          </Trackpoint>
          <Trackpoint>
            <Time>2022-07-12T16:30:03.000Z</Time>
            <Position>
              <LatitudeDegrees>43.354235775768756866455078125</LatitudeDegrees>
              <LongitudeDegrees>-3.180807866156101226806640625</LongitudeDegrees>
            </Position>
            <AltitudeMeters>31.3999996185302734375</AltitudeMeters>
            <DistanceMeters>NAN</DistanceMeters>
          </Trackpoint>
          <Trackpoint>
            <Time>2022-07-12T16:30:09.000Z</Time>
            <Position>
              <LatitudeDegrees>43.3541950397193431854248046875</LatitudeDegrees>
              <LongitudeDegrees>-3.18094432353973388671875</LongitudeDegrees>
            </Position>
            <AltitudeMeters>32</AltitudeMeters>
            <DistanceMeters>NAN</DistanceMeters>
          </Trackpoint>
          <Trackpoint>
            <Time>2022-07-12T16:30:13.000Z</Time>
            <Position>
              <LatitudeDegrees>43.3541625179350376129150390625</LatitudeDegrees>
              <LongitudeDegrees>-3.18102948367595672607421875</LongitudeDegrees>
            </Position>
            <AltitudeMeters>32.40000152587890625</AltitudeMeters>
            <DistanceMeters>NAN</DistanceMeters>
          </Trackpoint>
          <Trackpoint>
            <Time>2022-07-12T16:30:20.000Z</Time>
            <Position>
              <LatitudeDegrees>43.35406939499080181121826171875</LatitudeDegrees>
              <LongitudeDegrees>-3.181243725121021270751953125</LongitudeDegrees>
            </Position>
            <AltitudeMeters>32.59999847412109375</AltitudeMeters>
            <DistanceMeters>NAN</DistanceMeters>
          </Trackpoint>
          <Trackpoint>
            <Time>2022-07-12T16:30:21.000Z</Time>
            <Position>
              <LatitudeDegrees>43.35405782796442508697509765625</LatitudeDegrees>
              <LongitudeDegrees>-3.1812841258943080902099609375</LongitudeDegrees>
            </Position>
            <AltitudeMeters>32.59999847412109375</AltitudeMeters>
            <DistanceMeters>NAN</DistanceMeters>
          </Trackpoint>
          <Trackpoint>
            <Time>2022-07-12T16:30:25.000Z</Time>
            <Position>
              <LatitudeDegrees>43.3539967238903045654296875</LatitudeDegrees>
              <LongitudeDegrees>-3.18144966848194599151611328125</LongitudeDegrees>
            </Position>
            <AltitudeMeters>32.40000152587890625</AltitudeMeters>
            <DistanceMeters>NAN</DistanceMeters>
          </Trackpoint>
          <Trackpoint>
            <Time>2022-07-12T16:30:28.000Z</Time>
            <Position>
              <LatitudeDegrees>43.3539476059377193450927734375</LatitudeDegrees>
              <LongitudeDegrees>-3.181609846651554107666015625</LongitudeDegrees>
            </Position>
            <AltitudeMeters>32.40000152587890625</AltitudeMeters>
            <DistanceMeters>NAN</DistanceMeters>
          </Trackpoint>
          <Trackpoint>
            <Time>2022-07-12T16:30:31.000Z</Time>
            <Position>
              <LatitudeDegrees>43.35389010608196258544921875</LatitudeDegrees>
              <LongitudeDegrees>-3.18173264153301715850830078125</LongitudeDegrees>
            </Position>
            <AltitudeMeters>32.40000152587890625</AltitudeMeters>
            <DistanceMeters>NAN</DistanceMeters>
          </Trackpoint>
          <Trackpoint>
            <Time>2022-07-12T16:30:34.000Z</Time>
            <Position>
              <LatitudeDegrees>43.3538497053086757659912109375</LatitudeDegrees>
              <LongitudeDegrees>-3.1818574480712413787841796875</LongitudeDegrees>
            </Position>
            <AltitudeMeters>32.59999847412109375</AltitudeMeters>
            <DistanceMeters>NAN</DistanceMeters>
          </Trackpoint>
          <Trackpoint>
            <Time>2022-07-12T16:30:38.000Z</Time>
            <Position>
              <LatitudeDegrees>43.35381492041051387786865234375</LatitudeDegrees>
              <LongitudeDegrees>-3.18200589157640933990478515625</LongitudeDegrees>
            </Position>
            <AltitudeMeters>32.799999237060546875</AltitudeMeters>
            <DistanceMeters>NAN</DistanceMeters>
          </Trackpoint>
          <Trackpoint>
            <Time>2022-07-12T16:30:40.000Z</Time>
            <Position>
              <LatitudeDegrees>43.35380251519381999969482421875</LatitudeDegrees>
              <LongitudeDegrees>-3.18207160569727420806884765625</LongitudeDegrees>
            </Position>
            <AltitudeMeters>33</AltitudeMeters>
            <DistanceMeters>NAN</DistanceMeters>
          </Trackpoint>
          <Trackpoint>
            <Time>2022-07-12T16:30:46.000Z</Time>
            <Position>
              <LatitudeDegrees>43.35379220545291900634765625</LatitudeDegrees>
              <LongitudeDegrees>-3.18222977221012115478515625</LongitudeDegrees>
            </Position>
            <AltitudeMeters>33.799999237060546875</AltitudeMeters>
            <DistanceMeters>NAN</DistanceMeters>
          </Trackpoint>
          <Trackpoint>
            <Time>2022-07-12T16:30:48.000Z</Time>
            <Position>
              <LatitudeDegrees>43.35379748605191707611083984375</LatitudeDegrees>
              <LongitudeDegrees>-3.182272352278232574462890625</LongitudeDegrees>
            </Position>
            <AltitudeMeters>34</AltitudeMeters>
            <DistanceMeters>NAN</DistanceMeters>
          </Trackpoint>
          <Trackpoint>
            <Time>2022-07-12T16:30:49.000Z</Time>
            <Position>
              <LatitudeDegrees>43.35380234755575656890869140625</LatitudeDegrees>
              <LongitudeDegrees>-3.1822973303496837615966796875</LongitudeDegrees>
            </Position>
            <AltitudeMeters>34.200000762939453125</AltitudeMeters>
            <DistanceMeters>NAN</DistanceMeters>
          </Trackpoint>
          <Trackpoint>
            <Time>2022-07-12T16:30:53.000Z</Time>
            <Position>
              <LatitudeDegrees>43.3538262359797954559326171875</LatitudeDegrees>
              <LongitudeDegrees>-3.18239246495068073272705078125</LongitudeDegrees>
            </Position>
            <AltitudeMeters>34.799999237060546875</AltitudeMeters>
            <DistanceMeters>NAN</DistanceMeters>
          </Trackpoint>
          <Trackpoint>
            <Time>2022-07-12T16:30:54.000Z</Time>
            <Position>
              <LatitudeDegrees>43.35383520461618900299072265625</LatitudeDegrees>
              <LongitudeDegrees>-3.18240604363381862640380859375</LongitudeDegrees>
            </Position>
            <AltitudeMeters>35</AltitudeMeters>
            <DistanceMeters>NAN</DistanceMeters>
          </Trackpoint>
          <Trackpoint>
            <Time>2022-07-12T16:30:56.000Z</Time>
            <Position>
              <LatitudeDegrees>43.35385615937411785125732421875</LatitudeDegrees>
              <LongitudeDegrees>-3.18244107998907566070556640625</LongitudeDegrees>
            </Position>
            <AltitudeMeters>35.40000152587890625</AltitudeMeters>
            <DistanceMeters>NAN</DistanceMeters>
          </Trackpoint>
          <Trackpoint>
            <Time>2022-07-12T16:31:00.000Z</Time>
            <Position>
              <LatitudeDegrees>43.35389689542353153228759765625</LatitudeDegrees>
              <LongitudeDegrees>-3.1825013458728790283203125</LongitudeDegrees>
            </Position>
            <AltitudeMeters>36.40000152587890625</AltitudeMeters>
            <DistanceMeters>NAN</DistanceMeters>
          </Trackpoint>
          <Trackpoint>
            <Time>2022-07-12T16:31:01.000Z</Time>
            <Position>
              <LatitudeDegrees>43.35390678606927394866943359375</LatitudeDegrees>
              <LongitudeDegrees>-3.182509057223796844482421875</LongitudeDegrees>
            </Position>
            <AltitudeMeters>36.59999847412109375</AltitudeMeters>
            <DistanceMeters>NAN</DistanceMeters>
          </Trackpoint>
          <Trackpoint>
            <Time>2022-07-12T16:31:03.000Z</Time>
            <Position>
              <LatitudeDegrees>43.35392631590366363525390625</LatitudeDegrees>
              <LongitudeDegrees>-3.18252573721110820770263671875</LongitudeDegrees>
            </Position>
            <AltitudeMeters>37</AltitudeMeters>
            <DistanceMeters>NAN</DistanceMeters>
          </Trackpoint>
          <Trackpoint>
            <Time>2022-07-12T16:31:05.000Z</Time>
            <Position>
              <LatitudeDegrees>43.35394643247127532958984375</LatitudeDegrees>
              <LongitudeDegrees>-3.18255088292062282562255859375</LongitudeDegrees>
            </Position>
            <AltitudeMeters>37.40000152587890625</AltitudeMeters>
            <DistanceMeters>NAN</DistanceMeters>
          </Trackpoint>
          <Trackpoint>
            <Time>2022-07-12T16:31:07.000Z</Time>
            <Position>
              <LatitudeDegrees>43.3539730869233608245849609375</LatitudeDegrees>
              <LongitudeDegrees>-3.18257435224950313568115234375</LongitudeDegrees>
            </Position>
            <AltitudeMeters>37.59999847412109375</AltitudeMeters>
            <DistanceMeters>NAN</DistanceMeters>
          </Trackpoint>
          <Trackpoint>
            <Time>2022-07-12T16:31:09.000Z</Time>
            <Position>
              <LatitudeDegrees>43.354007117450237274169921875</LatitudeDegrees>
              <LongitudeDegrees>-3.1825967319309711456298828125</LongitudeDegrees>
            </Position>
            <AltitudeMeters>38.200000762939453125</AltitudeMeters>
            <DistanceMeters>NAN</DistanceMeters>
          </Trackpoint>
          <Trackpoint>
            <Time>2022-07-12T16:31:13.000Z</Time>
            <Position>
              <LatitudeDegrees>43.35405514575541019439697265625</LatitudeDegrees>
              <LongitudeDegrees>-3.1826067902147769927978515625</LongitudeDegrees>
            </Position>
            <AltitudeMeters>38.799999237060546875</AltitudeMeters>
            <DistanceMeters>NAN</DistanceMeters>
          </Trackpoint>
          <Trackpoint>
            <Time>2022-07-12T16:31:15.000Z</Time>
            <Position>
              <LatitudeDegrees>43.3540723286569118499755859375</LatitudeDegrees>
              <LongitudeDegrees>-3.18262313492596149444580078125</LongitudeDegrees>
            </Position>
            <AltitudeMeters>39.40000152587890625</AltitudeMeters>
            <DistanceMeters>NAN</DistanceMeters>
          </Trackpoint>
          <Trackpoint>
            <Time>2022-07-12T16:31:18.000Z</Time>
            <Position>
              <LatitudeDegrees>43.35410459898412227630615234375</LatitudeDegrees>
              <LongitudeDegrees>-3.18264551460742950439453125</LongitudeDegrees>
            </Position>
            <AltitudeMeters>39.799999237060546875</AltitudeMeters>
            <DistanceMeters>NAN</DistanceMeters>
          </Trackpoint>
          <Trackpoint>
            <Time>2022-07-12T16:31:21.000Z</Time>
            <Position>
              <LatitudeDegrees>43.3541373722255229949951171875</LatitudeDegrees>
              <LongitudeDegrees>-3.1826569139957427978515625</LongitudeDegrees>
            </Position>
            <AltitudeMeters>40.40000152587890625</AltitudeMeters>
            <DistanceMeters>NAN</DistanceMeters>
          </Trackpoint>
          <Trackpoint>
            <Time>2022-07-12T16:31:24.000Z</Time>
            <Position>
              <LatitudeDegrees>43.354172743856906890869140625</LatitudeDegrees>
              <LongitudeDegrees>-3.18266638554632663726806640625</LongitudeDegrees>
            </Position>
            <AltitudeMeters>41</AltitudeMeters>
            <DistanceMeters>NAN</DistanceMeters>
          </Trackpoint>
          <Trackpoint>
            <Time>2022-07-12T16:31:25.000Z</Time>
            <Position>
              <LatitudeDegrees>43.3541846461594104766845703125</LatitudeDegrees>
              <LongitudeDegrees>-3.18267074413597583770751953125</LongitudeDegrees>
            </Position>
            <AltitudeMeters>41.200000762939453125</AltitudeMeters>
            <DistanceMeters>NAN</DistanceMeters>
          </Trackpoint>
          <Trackpoint>
            <Time>2022-07-12T16:31:30.000Z</Time>
            <Position>
              <LatitudeDegrees>43.35422462783753871917724609375</LatitudeDegrees>
              <LongitudeDegrees>-3.18267996422946453094482421875</LongitudeDegrees>
            </Position>
            <AltitudeMeters>42</AltitudeMeters>
            <DistanceMeters>NAN</DistanceMeters>
          </Trackpoint>
          <Trackpoint>
            <Time>2022-07-12T16:31:37.000Z</Time>
            <Position>
              <LatitudeDegrees>43.354331664741039276123046875</LatitudeDegrees>
              <LongitudeDegrees>-3.18272422067821025848388671875</LongitudeDegrees>
            </Position>
            <AltitudeMeters>43.200000762939453125</AltitudeMeters>
            <DistanceMeters>NAN</DistanceMeters>
          </Trackpoint>
          <Trackpoint>
            <Time>2022-07-12T16:31:44.000Z</Time>
            <Position>
              <LatitudeDegrees>43.35445471107959747314453125</LatitudeDegrees>
              <LongitudeDegrees>-3.18274601362645626068115234375</LongitudeDegrees>
            </Position>
            <AltitudeMeters>44.40000152587890625</AltitudeMeters>
            <DistanceMeters>NAN</DistanceMeters>
          </Trackpoint>
          <Trackpoint>
            <Time>2022-07-12T16:31:46.000Z</Time>
            <Position>
              <LatitudeDegrees>43.3544833771884441375732421875</LatitudeDegrees>
              <LongitudeDegrees>-3.1827338598668575286865234375</LongitudeDegrees>
            </Position>
            <AltitudeMeters>44.799999237060546875</AltitudeMeters>
            <DistanceMeters>NAN</DistanceMeters>
          </Trackpoint>
          <Trackpoint>
            <Time>2022-07-12T16:31:49.000Z</Time>
            <Position>
              <LatitudeDegrees>43.35453174076974391937255859375</LatitudeDegrees>
              <LongitudeDegrees>-3.18275540135800838470458984375</LongitudeDegrees>
            </Position>
            <AltitudeMeters>45.200000762939453125</AltitudeMeters>
            <DistanceMeters>NAN</DistanceMeters>
          </Trackpoint>
          <Trackpoint>
            <Time>2022-07-12T16:31:50.000Z</Time>
            <Position>
              <LatitudeDegrees>43.35455135442316532135009765625</LatitudeDegrees>
              <LongitudeDegrees>-3.18275791592895984649658203125</LongitudeDegrees>
            </Position>
            <AltitudeMeters>45.40000152587890625</AltitudeMeters>
            <DistanceMeters>NAN</DistanceMeters>
          </Trackpoint>
          <Trackpoint>
            <Time>2022-07-12T16:31:57.000Z</Time>
            <Position>
              <LatitudeDegrees>43.35467171855270862579345703125</LatitudeDegrees>
              <LongitudeDegrees>-3.1827878393232822418212890625</LongitudeDegrees>
            </Position>
            <AltitudeMeters>46.799999237060546875</AltitudeMeters>
            <DistanceMeters>NAN</DistanceMeters>
          </Trackpoint>
          <Trackpoint>
            <Time>2022-07-12T16:31:58.000Z</Time>
            <Position>
              <LatitudeDegrees>43.3546909131109714508056640625</LatitudeDegrees>
              <LongitudeDegrees>-3.18278322927653789520263671875</LongitudeDegrees>
            </Position>
            <AltitudeMeters>47</AltitudeMeters>
            <DistanceMeters>NAN</DistanceMeters>
          </Trackpoint>
          <Trackpoint>
            <Time>2022-07-12T16:31:59.000Z</Time>
            <Position>
              <LatitudeDegrees>43.3547053299844264984130859375</LatitudeDegrees>
              <LongitudeDegrees>-3.18278021179139614105224609375</LongitudeDegrees>
            </Position>
            <AltitudeMeters>47</AltitudeMeters>
            <DistanceMeters>NAN</DistanceMeters>
          </Trackpoint>
          <Trackpoint>
            <Time>2022-07-12T16:32:03.000Z</Time>
            <Position>
              <LatitudeDegrees>43.3547557890415191650390625</LatitudeDegrees>
              <LongitudeDegrees>-3.1827590055763721466064453125</LongitudeDegrees>
            </Position>
            <AltitudeMeters>47.59999847412109375</AltitudeMeters>
            <DistanceMeters>NAN</DistanceMeters>
          </Trackpoint>
          <Trackpoint>
            <Time>2022-07-12T16:32:04.000Z</Time>
            <Position>
              <LatitudeDegrees>43.35476987063884735107421875</LatitudeDegrees>
              <LongitudeDegrees>-3.18277367390692234039306640625</LongitudeDegrees>
            </Position>
            <AltitudeMeters>47.799999237060546875</AltitudeMeters>
            <DistanceMeters>NAN</DistanceMeters>
          </Trackpoint>
          <Trackpoint>
            <Time>2022-07-12T16:32:06.000Z</Time>
            <Position>
              <LatitudeDegrees>43.35478940047323703765869140625</LatitudeDegrees>
              <LongitudeDegrees>-3.18278557620942592620849609375</LongitudeDegrees>
            </Position>
            <AltitudeMeters>48</AltitudeMeters>
            <DistanceMeters>NAN</DistanceMeters>
          </Trackpoint>
          <Trackpoint>
            <Time>2022-07-12T16:32:08.000Z</Time>
            <Position>
              <LatitudeDegrees>43.3548149652779102325439453125</LatitudeDegrees>
              <LongitudeDegrees>-3.1827888451516628265380859375</LongitudeDegrees>
            </Position>
            <AltitudeMeters>48.40000152587890625</AltitudeMeters>
            <DistanceMeters>NAN</DistanceMeters>
          </Trackpoint>
          <Trackpoint>
            <Time>2022-07-12T16:32:11.000Z</Time>
            <Position>
              <LatitudeDegrees>43.35485125891864299774169921875</LatitudeDegrees>
              <LongitudeDegrees>-3.1828002445399761199951171875</LongitudeDegrees>
            </Position>
            <AltitudeMeters>49</AltitudeMeters>
            <DistanceMeters>NAN</DistanceMeters>
          </Trackpoint>
          <Trackpoint>
            <Time>2022-07-12T16:32:16.000Z</Time>
            <Position>
              <LatitudeDegrees>43.35491915233433246612548828125</LatitudeDegrees>
              <LongitudeDegrees>-3.1828232109546661376953125</LongitudeDegrees>
            </Position>
            <AltitudeMeters>49.799999237060546875</AltitudeMeters>
            <DistanceMeters>NAN</DistanceMeters>
          </Trackpoint>
          <Trackpoint>
            <Time>2022-07-12T16:32:17.000Z</Time>
            <Position>
              <LatitudeDegrees>43.35493214428424835205078125</LatitudeDegrees>
              <LongitudeDegrees>-3.18283167667686939239501953125</LongitudeDegrees>
            </Position>
            <AltitudeMeters>50</AltitudeMeters>
            <DistanceMeters>NAN</DistanceMeters>
          </Trackpoint>
          <Trackpoint>
            <Time>2022-07-12T16:32:23.000Z</Time>
            <Position>
              <LatitudeDegrees>43.3550012111663818359375</LatitudeDegrees>
              <LongitudeDegrees>-3.18285983987152576446533203125</LongitudeDegrees>
            </Position>
            <AltitudeMeters>51.200000762939453125</AltitudeMeters>
            <DistanceMeters>NAN</DistanceMeters>
          </Trackpoint>
          <Trackpoint>
            <Time>2022-07-12T16:32:25.000Z</Time>
            <Position>
              <LatitudeDegrees>43.3550282008945941925048828125</LatitudeDegrees>
              <LongitudeDegrees>-3.18286922760307788848876953125</LongitudeDegrees>
            </Position>
            <AltitudeMeters>51.59999847412109375</AltitudeMeters>
            <DistanceMeters>NAN</DistanceMeters>
          </Trackpoint>
          <Trackpoint>
            <Time>2022-07-12T16:32:29.000Z</Time>
            <Position>
              <LatitudeDegrees>43.35507069714367389678955078125</LatitudeDegrees>
              <LongitudeDegrees>-3.1828807108104228973388671875</LongitudeDegrees>
            </Position>
            <AltitudeMeters>52.200000762939453125</AltitudeMeters>
            <DistanceMeters>NAN</DistanceMeters>
          </Trackpoint>
          <Trackpoint>
            <Time>2022-07-12T16:32:30.000Z</Time>
            <Position>
              <LatitudeDegrees>43.35508679039776325225830078125</LatitudeDegrees>
              <LongitudeDegrees>-3.182881884276866912841796875</LongitudeDegrees>
            </Position>
            <AltitudeMeters>52.200000762939453125</AltitudeMeters>
            <DistanceMeters>NAN</DistanceMeters>
          </Trackpoint>
          <Trackpoint>
            <Time>2022-07-12T16:32:31.000Z</Time>
            <Position>
              <LatitudeDegrees>43.35509684868156909942626953125</LatitudeDegrees>
              <LongitudeDegrees>-3.18288230337202548980712890625</LongitudeDegrees>
            </Position>
            <AltitudeMeters>52.40000152587890625</AltitudeMeters>
            <DistanceMeters>NAN</DistanceMeters>
          </Trackpoint>
          <Trackpoint>
            <Time>2022-07-12T16:32:36.000Z</Time>
            <Position>
              <LatitudeDegrees>43.35516147315502166748046875</LatitudeDegrees>
              <LongitudeDegrees>-3.18291013129055500030517578125</LongitudeDegrees>
            </Position>
            <AltitudeMeters>53.200000762939453125</AltitudeMeters>
            <DistanceMeters>NAN</DistanceMeters>
          </Trackpoint>
          <Trackpoint>
            <Time>2022-07-12T16:32:43.000Z</Time>
            <Position>
              <LatitudeDegrees>43.3552514947950839996337890625</LatitudeDegrees>
              <LongitudeDegrees>-3.182931505143642425537109375</LongitudeDegrees>
            </Position>
            <AltitudeMeters>54.200000762939453125</AltitudeMeters>
            <DistanceMeters>NAN</DistanceMeters>
          </Trackpoint>
          <Trackpoint>
            <Time>2022-07-12T16:32:47.000Z</Time>
            <Position>
              <LatitudeDegrees>43.35531578399240970611572265625</LatitudeDegrees>
              <LongitudeDegrees>-3.1829430721700191497802734375</LongitudeDegrees>
            </Position>
            <AltitudeMeters>54.799999237060546875</AltitudeMeters>
            <DistanceMeters>NAN</DistanceMeters>
          </Trackpoint>
          <Trackpoint>
            <Time>2022-07-12T16:32:50.000Z</Time>
            <Position>
              <LatitudeDegrees>43.3553571067750453948974609375</LatitudeDegrees>
              <LongitudeDegrees>-3.182958662509918212890625</LongitudeDegrees>
            </Position>
            <AltitudeMeters>55.40000152587890625</AltitudeMeters>
            <DistanceMeters>NAN</DistanceMeters>
          </Trackpoint>
          <Trackpoint>
            <Time>2022-07-12T16:32:51.000Z</Time>
            <Position>
              <LatitudeDegrees>43.3553651534020900726318359375</LatitudeDegrees>
              <LongitudeDegrees>-3.18296293728053569793701171875</LongitudeDegrees>
            </Position>
            <AltitudeMeters>55.59999847412109375</AltitudeMeters>
            <DistanceMeters>NAN</DistanceMeters>
          </Trackpoint>
          <Trackpoint>
            <Time>2022-07-12T16:32:57.000Z</Time>
            <Position>
              <LatitudeDegrees>43.3554006926715373992919921875</LatitudeDegrees>
              <LongitudeDegrees>-3.18297970108687877655029296875</LongitudeDegrees>
            </Position>
            <AltitudeMeters>56.59999847412109375</AltitudeMeters>
            <DistanceMeters>NAN</DistanceMeters>
          </Trackpoint>
          <Trackpoint>
            <Time>2022-07-12T16:33:03.000Z</Time>
            <Position>
              <LatitudeDegrees>43.3554687537252902984619140625</LatitudeDegrees>
              <LongitudeDegrees>-3.18298741243779659271240234375</LongitudeDegrees>
            </Position>
            <AltitudeMeters>57.59999847412109375</AltitudeMeters>
            <DistanceMeters>NAN</DistanceMeters>
          </Trackpoint>
          <Trackpoint>
            <Time>2022-07-12T16:33:07.000Z</Time>
            <Position>
              <LatitudeDegrees>43.35550881922245025634765625</LatitudeDegrees>
              <LongitudeDegrees>-3.183012306690216064453125</LongitudeDegrees>
            </Position>
            <AltitudeMeters>58.40000152587890625</AltitudeMeters>
            <DistanceMeters>NAN</DistanceMeters>
          </Trackpoint>
          <Trackpoint>
            <Time>2022-07-12T16:33:11.000Z</Time>
            <Position>
              <LatitudeDegrees>43.35556170903146266937255859375</LatitudeDegrees>
              <LongitudeDegrees>-3.183022700250148773193359375</LongitudeDegrees>
            </Position>
            <AltitudeMeters>58.59999847412109375</AltitudeMeters>
            <DistanceMeters>NAN</DistanceMeters>
          </Trackpoint>
          <Trackpoint>
            <Time>2022-07-12T16:33:16.000Z</Time>
            <Position>
              <LatitudeDegrees>43.35562842898070812225341796875</LatitudeDegrees>
              <LongitudeDegrees>-3.183042146265506744384765625</LongitudeDegrees>
            </Position>
            <AltitudeMeters>59.40000152587890625</AltitudeMeters>
            <DistanceMeters>NAN</DistanceMeters>
          </Trackpoint>
          <Trackpoint>
            <Time>2022-07-12T16:33:18.000Z</Time>
            <Position>
              <LatitudeDegrees>43.355651311576366424560546875</LatitudeDegrees>
              <LongitudeDegrees>-3.183046840131282806396484375</LongitudeDegrees>
            </Position>
            <AltitudeMeters>59.799999237060546875</AltitudeMeters>
            <DistanceMeters>NAN</DistanceMeters>
          </Trackpoint>
          <Trackpoint>
            <Time>2022-07-12T16:33:22.000Z</Time>
            <Position>
              <LatitudeDegrees>43.35569296963512897491455078125</LatitudeDegrees>
              <LongitudeDegrees>-3.18304784595966339111328125</LongitudeDegrees>
            </Position>
            <AltitudeMeters>60.59999847412109375</AltitudeMeters>
            <DistanceMeters>NAN</DistanceMeters>
          </Trackpoint>
          <Trackpoint>
            <Time>2022-07-12T16:33:23.000Z</Time>
            <Position>
              <LatitudeDegrees>43.35570453666150569915771484375</LatitudeDegrees>
              <LongitudeDegrees>-3.18305589258670806884765625</LongitudeDegrees>
            </Position>
            <AltitudeMeters>60.59999847412109375</AltitudeMeters>
            <DistanceMeters>NAN</DistanceMeters>
          </Trackpoint>
          <Trackpoint>
            <Time>2022-07-12T16:33:24.000Z</Time>
            <Position>
              <LatitudeDegrees>43.35571945644915103912353515625</LatitudeDegrees>
              <LongitudeDegrees>-3.1830651126801967620849609375</LongitudeDegrees>
            </Position>
            <AltitudeMeters>60.799999237060546875</AltitudeMeters>
            <DistanceMeters>NAN</DistanceMeters>
          </Trackpoint>
          <Trackpoint>
            <Time>2022-07-12T16:33:30.000Z</Time>
            <Position>
              <LatitudeDegrees>43.3557906188070774078369140625</LatitudeDegrees>
              <LongitudeDegrees>-3.1830822117626667022705078125</LongitudeDegrees>
            </Position>
            <AltitudeMeters>62</AltitudeMeters>
            <DistanceMeters>NAN</DistanceMeters>
          </Trackpoint>
          <Trackpoint>
            <Time>2022-07-12T16:33:31.000Z</Time>
            <Position>
              <LatitudeDegrees>43.35580386221408843994140625</LatitudeDegrees>
              <LongitudeDegrees>-3.18308003246784210205078125</LongitudeDegrees>
            </Position>
            <AltitudeMeters>62.200000762939453125</AltitudeMeters>
            <DistanceMeters>NAN</DistanceMeters>
          </Trackpoint>
          <Trackpoint>
            <Time>2022-07-12T16:33:38.000Z</Time>
            <Position>
              <LatitudeDegrees>43.3558962307870388031005859375</LatitudeDegrees>
              <LongitudeDegrees>-3.1830895878374576568603515625</LongitudeDegrees>
            </Position>
            <AltitudeMeters>63</AltitudeMeters>
            <DistanceMeters>NAN</DistanceMeters>
          </Trackpoint>
          <Trackpoint>
            <Time>2022-07-12T16:33:39.000Z</Time>
            <Position>
              <LatitudeDegrees>43.35590955801308155059814453125</LatitudeDegrees>
              <LongitudeDegrees>-3.18309537135064601898193359375</LongitudeDegrees>
            </Position>
            <AltitudeMeters>63.200000762939453125</AltitudeMeters>
            <DistanceMeters>NAN</DistanceMeters>
          </Trackpoint>
          <Trackpoint>
            <Time>2022-07-12T16:33:45.000Z</Time>
            <Position>
              <LatitudeDegrees>43.35598759353160858154296875</LatitudeDegrees>
              <LongitudeDegrees>-3.18314046598970890045166015625</LongitudeDegrees>
            </Position>
            <AltitudeMeters>64.1999969482421875</AltitudeMeters>
            <DistanceMeters>NAN</DistanceMeters>
          </Trackpoint>
          <Trackpoint>
            <Time>2022-07-12T16:33:46.000Z</Time>
            <Position>
              <LatitudeDegrees>43.35599807091057300567626953125</LatitudeDegrees>
              <LongitudeDegrees>-3.18314448930323123931884765625</LongitudeDegrees>
            </Position>
            <AltitudeMeters>64.1999969482421875</AltitudeMeters>
            <DistanceMeters>NAN</DistanceMeters>
          </Trackpoint>
          <Trackpoint>
            <Time>2022-07-12T16:33:51.000Z</Time>
            <Position>
              <LatitudeDegrees>43.35606805980205535888671875</LatitudeDegrees>
              <LongitudeDegrees>-3.183174915611743927001953125</LongitudeDegrees>
            </Position>
            <AltitudeMeters>65.1999969482421875</AltitudeMeters>
            <DistanceMeters>NAN</DistanceMeters>
          </Trackpoint>
          <Trackpoint>
            <Time>2022-07-12T16:33:53.000Z</Time>
            <Position>
              <LatitudeDegrees>43.35608976893126964569091796875</LatitudeDegrees>
              <LongitudeDegrees>-3.18318623118102550506591796875</LongitudeDegrees>
            </Position>
            <AltitudeMeters>65.1999969482421875</AltitudeMeters>
            <DistanceMeters>NAN</DistanceMeters>
          </Trackpoint>
          <Trackpoint>
            <Time>2022-07-12T16:33:59.000Z</Time>
            <Position>
              <LatitudeDegrees>43.3561570756137371063232421875</LatitudeDegrees>
              <LongitudeDegrees>-3.18320902995765209197998046875</LongitudeDegrees>
            </Position>
            <AltitudeMeters>66.1999969482421875</AltitudeMeters>
            <DistanceMeters>NAN</DistanceMeters>
          </Trackpoint>
          <Trackpoint>
            <Time>2022-07-12T16:34:01.000Z</Time>
            <Position>
              <LatitudeDegrees>43.3561859093606472015380859375</LatitudeDegrees>
              <LongitudeDegrees>-3.18322026170790195465087890625</LongitudeDegrees>
            </Position>
            <AltitudeMeters>66.40000152587890625</AltitudeMeters>
            <DistanceMeters>NAN</DistanceMeters>
          </Trackpoint>
          <Trackpoint>
            <Time>2022-07-12T16:34:07.000Z</Time>
            <Position>
              <LatitudeDegrees>43.35625489242374897003173828125</LatitudeDegrees>
              <LongitudeDegrees>-3.18326300941407680511474609375</LongitudeDegrees>
            </Position>
            <AltitudeMeters>67.40000152587890625</AltitudeMeters>
            <DistanceMeters>NAN</DistanceMeters>
          </Trackpoint>
          <Trackpoint>
            <Time>2022-07-12T16:34:08.000Z</Time>
            <Position>
              <LatitudeDegrees>43.35626478306949138641357421875</LatitudeDegrees>
              <LongitudeDegrees>-3.18327021785080432891845703125</LongitudeDegrees>
            </Position>
            <AltitudeMeters>67.59999847412109375</AltitudeMeters>
            <DistanceMeters>NAN</DistanceMeters>
          </Trackpoint>
          <Trackpoint>
            <Time>2022-07-12T16:34:15.000Z</Time>
            <Position>
              <LatitudeDegrees>43.35634340532124042510986328125</LatitudeDegrees>
              <LongitudeDegrees>-3.1833229400217533111572265625</LongitudeDegrees>
            </Position>
            <AltitudeMeters>68.40000152587890625</AltitudeMeters>
            <DistanceMeters>NAN</DistanceMeters>
          </Trackpoint>
          <Trackpoint>
            <Time>2022-07-12T16:34:17.000Z</Time>
            <Position>
              <LatitudeDegrees>43.35636385716497898101806640625</LatitudeDegrees>
              <LongitudeDegrees>-3.18334263749420642852783203125</LongitudeDegrees>
            </Position>
            <AltitudeMeters>68.8000030517578125</AltitudeMeters>
            <DistanceMeters>NAN</DistanceMeters>
          </Trackpoint>
          <Trackpoint>
            <Time>2022-07-12T16:34:18.000Z</Time>
            <Position>
              <LatitudeDegrees>43.356369473040103912353515625</LatitudeDegrees>
              <LongitudeDegrees>-3.1833569705486297607421875</LongitudeDegrees>
            </Position>
            <AltitudeMeters>69</AltitudeMeters>
            <DistanceMeters>NAN</DistanceMeters>
          </Trackpoint>
          <Trackpoint>
            <Time>2022-07-12T16:34:22.000Z</Time>
            <Position>
              <LatitudeDegrees>43.35640694014728069305419921875</LatitudeDegrees>
              <LongitudeDegrees>-3.18337851203978061676025390625</LongitudeDegrees>
            </Position>
            <AltitudeMeters>69.59999847412109375</AltitudeMeters>
            <DistanceMeters>NAN</DistanceMeters>
          </Trackpoint>
          <Trackpoint>
            <Time>2022-07-12T16:34:25.000Z</Time>
            <Position>
              <LatitudeDegrees>43.356439210474491119384765625</LatitudeDegrees>
              <LongitudeDegrees>-3.18339443765580654144287109375</LongitudeDegrees>
            </Position>
            <AltitudeMeters>70</AltitudeMeters>
            <DistanceMeters>NAN</DistanceMeters>
          </Trackpoint>
          <Trackpoint>
            <Time>2022-07-12T16:34:30.000Z</Time>
            <Position>
              <LatitudeDegrees>43.35649712942540645599365234375</LatitudeDegrees>
              <LongitudeDegrees>-3.18343031220138072967529296875</LongitudeDegrees>
            </Position>
            <AltitudeMeters>70.59999847412109375</AltitudeMeters>
            <DistanceMeters>NAN</DistanceMeters>
          </Trackpoint>
          <Trackpoint>
            <Time>2022-07-12T16:34:34.000Z</Time>
            <Position>
              <LatitudeDegrees>43.35653937421739101409912109375</LatitudeDegrees>
              <LongitudeDegrees>-3.18347029387950897216796875</LongitudeDegrees>
            </Position>
            <AltitudeMeters>71.1999969482421875</AltitudeMeters>
            <DistanceMeters>NAN</DistanceMeters>
          </Trackpoint>
          <Trackpoint>
            <Time>2022-07-12T16:34:37.000Z</Time>
            <Position>
              <LatitudeDegrees>43.356567956507205963134765625</LatitudeDegrees>
              <LongitudeDegrees>-3.18349937908351421356201171875</LongitudeDegrees>
            </Position>
            <AltitudeMeters>71.8000030517578125</AltitudeMeters>
            <DistanceMeters>NAN</DistanceMeters>
          </Trackpoint>
          <Trackpoint>
            <Time>2022-07-12T16:34:45.000Z</Time>
            <Position>
              <LatitudeDegrees>43.356639705598354339599609375</LatitudeDegrees>
              <LongitudeDegrees>-3.1835891492664813995361328125</LongitudeDegrees>
            </Position>
            <AltitudeMeters>72.59999847412109375</AltitudeMeters>
            <DistanceMeters>NAN</DistanceMeters>
          </Trackpoint>
          <Trackpoint>
            <Time>2022-07-12T16:34:46.000Z</Time>
            <Position>
              <LatitudeDegrees>43.3566506020724773406982421875</LatitudeDegrees>
              <LongitudeDegrees>-3.18359593860805034637451171875</LongitudeDegrees>
            </Position>
            <AltitudeMeters>72.8000030517578125</AltitudeMeters>
            <DistanceMeters>NAN</DistanceMeters>
          </Trackpoint>
          <Trackpoint>
            <Time>2022-07-12T16:34:53.000Z</Time>
            <Position>
              <LatitudeDegrees>43.35671891458332538604736328125</LatitudeDegrees>
              <LongitudeDegrees>-3.18365746177732944488525390625</LongitudeDegrees>
            </Position>
            <AltitudeMeters>73.59999847412109375</AltitudeMeters>
            <DistanceMeters>NAN</DistanceMeters>
          </Trackpoint>
          <Trackpoint>
            <Time>2022-07-12T16:34:55.000Z</Time>
            <Position>
              <LatitudeDegrees>43.3567379415035247802734375</LatitudeDegrees>
              <LongitudeDegrees>-3.18367288447916507720947265625</LongitudeDegrees>
            </Position>
            <AltitudeMeters>74</AltitudeMeters>
            <DistanceMeters>NAN</DistanceMeters>
          </Trackpoint>
          <Trackpoint>
            <Time>2022-07-12T16:35:02.000Z</Time>
            <Position>
              <LatitudeDegrees>43.3568098582327365875244140625</LatitudeDegrees>
              <LongitudeDegrees>-3.18376441486179828643798828125</LongitudeDegrees>
            </Position>
            <AltitudeMeters>74.8000030517578125</AltitudeMeters>
            <DistanceMeters>NAN</DistanceMeters>
          </Trackpoint>
          <Trackpoint>
            <Time>2022-07-12T16:35:03.000Z</Time>
            <Position>
              <LatitudeDegrees>43.35681949742138385772705078125</LatitudeDegrees>
              <LongitudeDegrees>-3.18377346731722354888916015625</LongitudeDegrees>
            </Position>
            <AltitudeMeters>75</AltitudeMeters>
            <DistanceMeters>NAN</DistanceMeters>
          </Trackpoint>
          <Trackpoint>
            <Time>2022-07-12T16:35:10.000Z</Time>
            <Position>
              <LatitudeDegrees>43.35688286460936069488525390625</LatitudeDegrees>
              <LongitudeDegrees>-3.18384689278900623321533203125</LongitudeDegrees>
            </Position>
            <AltitudeMeters>75.8000030517578125</AltitudeMeters>
            <DistanceMeters>NAN</DistanceMeters>
          </Trackpoint>
          <Trackpoint>
            <Time>2022-07-12T16:35:11.000Z</Time>
            <Position>
              <LatitudeDegrees>43.35689208470284938812255859375</LatitudeDegrees>
              <LongitudeDegrees>-3.18385711871087551116943359375</LongitudeDegrees>
            </Position>
            <AltitudeMeters>76</AltitudeMeters>
            <DistanceMeters>NAN</DistanceMeters>
          </Trackpoint>
          <Trackpoint>
            <Time>2022-07-12T16:35:19.000Z</Time>
            <Position>
              <LatitudeDegrees>43.35695721209049224853515625</LatitudeDegrees>
              <LongitudeDegrees>-3.1839478947222232818603515625</LongitudeDegrees>
            </Position>
            <AltitudeMeters>77</AltitudeMeters>
            <DistanceMeters>NAN</DistanceMeters>
          </Trackpoint>
          <Trackpoint>
            <Time>2022-07-12T16:35:20.000Z</Time>
            <Position>
              <LatitudeDegrees>43.35696433670818805694580078125</LatitudeDegrees>
              <LongitudeDegrees>-3.18395636044442653656005859375</LongitudeDegrees>
            </Position>
            <AltitudeMeters>77</AltitudeMeters>
            <DistanceMeters>NAN</DistanceMeters>
          </Trackpoint>
          <Trackpoint>
            <Time>2022-07-12T16:35:23.000Z</Time>
            <Position>
              <LatitudeDegrees>43.3569942601025104522705078125</LatitudeDegrees>
              <LongitudeDegrees>-3.18397429771721363067626953125</LongitudeDegrees>
            </Position>
            <AltitudeMeters>77.1999969482421875</AltitudeMeters>
            <DistanceMeters>NAN</DistanceMeters>
          </Trackpoint>
          <Trackpoint>
            <Time>2022-07-12T16:35:25.000Z</Time>
            <Position>
              <LatitudeDegrees>43.35700825788080692291259765625</LatitudeDegrees>
              <LongitudeDegrees>-3.1839926540851593017578125</LongitudeDegrees>
            </Position>
            <AltitudeMeters>77.59999847412109375</AltitudeMeters>
            <DistanceMeters>NAN</DistanceMeters>
          </Trackpoint>
          <Trackpoint>
            <Time>2022-07-12T16:35:29.000Z</Time>
            <Position>
              <LatitudeDegrees>43.35704572498798370361328125</LatitudeDegrees>
              <LongitudeDegrees>-3.1840370781719684600830078125</LongitudeDegrees>
            </Position>
            <AltitudeMeters>78</AltitudeMeters>
            <DistanceMeters>NAN</DistanceMeters>
          </Trackpoint>
          <Trackpoint>
            <Time>2022-07-12T16:35:32.000Z</Time>
            <Position>
              <LatitudeDegrees>43.357074558734893798828125</LatitudeDegrees>
              <LongitudeDegrees>-3.18407219834625720977783203125</LongitudeDegrees>
            </Position>
            <AltitudeMeters>78.40000152587890625</AltitudeMeters>
            <DistanceMeters>NAN</DistanceMeters>
          </Trackpoint>
          <Trackpoint>
            <Time>2022-07-12T16:35:33.000Z</Time>
            <Position>
              <LatitudeDegrees>43.3570831082761287689208984375</LatitudeDegrees>
              <LongitudeDegrees>-3.18408175371587276458740234375</LongitudeDegrees>
            </Position>
            <AltitudeMeters>78.59999847412109375</AltitudeMeters>
            <DistanceMeters>NAN</DistanceMeters>
          </Trackpoint>
          <Trackpoint>
            <Time>2022-07-12T16:35:37.000Z</Time>
            <Position>
              <LatitudeDegrees>43.35712459869682788848876953125</LatitudeDegrees>
              <LongitudeDegrees>-3.184125088155269622802734375</LongitudeDegrees>
            </Position>
            <AltitudeMeters>79.1999969482421875</AltitudeMeters>
            <DistanceMeters>NAN</DistanceMeters>
          </Trackpoint>
          <Trackpoint>
            <Time>2022-07-12T16:35:43.000Z</Time>
            <Position>
              <LatitudeDegrees>43.35718444548547267913818359375</LatitudeDegrees>
              <LongitudeDegrees>-3.1841762177646160125732421875</LongitudeDegrees>
            </Position>
            <AltitudeMeters>80</AltitudeMeters>
            <DistanceMeters>NAN</DistanceMeters>
          </Trackpoint>
          <Trackpoint>
            <Time>2022-07-12T16:35:44.000Z</Time>
            <Position>
              <LatitudeDegrees>43.35719752125442028045654296875</LatitudeDegrees>
              <LongitudeDegrees>-3.18418066017329692840576171875</LongitudeDegrees>
            </Position>
            <AltitudeMeters>80.1999969482421875</AltitudeMeters>
            <DistanceMeters>NAN</DistanceMeters>
          </Trackpoint>
          <Trackpoint>
            <Time>2022-07-12T16:35:45.000Z</Time>
            <Position>
              <LatitudeDegrees>43.35721143521368503570556640625</LatitudeDegrees>
              <LongitudeDegrees>-3.1841862760484218597412109375</LongitudeDegrees>
            </Position>
            <AltitudeMeters>80.40000152587890625</AltitudeMeters>
            <DistanceMeters>NAN</DistanceMeters>
          </Trackpoint>
          <Trackpoint>
            <Time>2022-07-12T16:35:47.000Z</Time>
            <Position>
              <LatitudeDegrees>43.357233814895153045654296875</LatitudeDegrees>
              <LongitudeDegrees>-3.184210918843746185302734375</LongitudeDegrees>
            </Position>
            <AltitudeMeters>80.59999847412109375</AltitudeMeters>
            <DistanceMeters>NAN</DistanceMeters>
          </Trackpoint>
          <Trackpoint>
            <Time>2022-07-12T16:35:51.000Z</Time>
            <Position>
              <LatitudeDegrees>43.35727480240166187286376953125</LatitudeDegrees>
              <LongitudeDegrees>-3.18424855358898639678955078125</LongitudeDegrees>
            </Position>
            <AltitudeMeters>81.1999969482421875</AltitudeMeters>
            <DistanceMeters>NAN</DistanceMeters>
          </Trackpoint>
          <Trackpoint>
            <Time>2022-07-12T16:35:55.000Z</Time>
            <Position>
              <LatitudeDegrees>43.357312940061092376708984375</LatitudeDegrees>
              <LongitudeDegrees>-3.18429482169449329376220703125</LongitudeDegrees>
            </Position>
            <AltitudeMeters>81.8000030517578125</AltitudeMeters>
            <DistanceMeters>NAN</DistanceMeters>
          </Trackpoint>
          <Trackpoint>
            <Time>2022-07-12T16:35:58.000Z</Time>
            <Position>
              <LatitudeDegrees>43.35734747350215911865234375</LatitudeDegrees>
              <LongitudeDegrees>-3.18431577645242214202880859375</LongitudeDegrees>
            </Position>
            <AltitudeMeters>82.40000152587890625</AltitudeMeters>
            <DistanceMeters>NAN</DistanceMeters>
          </Trackpoint>
          <Trackpoint>
            <Time>2022-07-12T16:36:04.000Z</Time>
            <Position>
              <LatitudeDegrees>43.35742265917360782623291015625</LatitudeDegrees>
              <LongitudeDegrees>-3.18439054302871227264404296875</LongitudeDegrees>
            </Position>
            <AltitudeMeters>83.40000152587890625</AltitudeMeters>
            <DistanceMeters>NAN</DistanceMeters>
          </Trackpoint>
          <Trackpoint>
            <Time>2022-07-12T16:36:05.000Z</Time>
            <Position>
              <LatitudeDegrees>43.3574353158473968505859375</LatitudeDegrees>
              <LongitudeDegrees>-3.18440244533121585845947265625</LongitudeDegrees>
            </Position>
            <AltitudeMeters>83.59999847412109375</AltitudeMeters>
            <DistanceMeters>NAN</DistanceMeters>
          </Trackpoint>
          <Trackpoint>
            <Time>2022-07-12T16:36:11.000Z</Time>
            <Position>
              <LatitudeDegrees>43.3574988506734371185302734375</LatitudeDegrees>
              <LongitudeDegrees>-3.1844451092183589935302734375</LongitudeDegrees>
            </Position>
            <AltitudeMeters>84.59999847412109375</AltitudeMeters>
            <DistanceMeters>NAN</DistanceMeters>
          </Trackpoint>
          <Trackpoint>
            <Time>2022-07-12T16:36:15.000Z</Time>
            <Position>
              <LatitudeDegrees>43.35752944462001323699951171875</LatitudeDegrees>
              <LongitudeDegrees>-3.1844799779355525970458984375</LongitudeDegrees>
            </Position>
            <AltitudeMeters>85</AltitudeMeters>
            <DistanceMeters>NAN</DistanceMeters>
          </Trackpoint>
          <Trackpoint>
            <Time>2022-07-12T16:36:19.000Z</Time>
            <Position>
              <LatitudeDegrees>43.357567079365253448486328125</LatitudeDegrees>
              <LongitudeDegrees>-3.18451828323304653167724609375</LongitudeDegrees>
            </Position>
            <AltitudeMeters>85.59999847412109375</AltitudeMeters>
            <DistanceMeters>NAN</DistanceMeters>
          </Trackpoint>
          <Trackpoint>
            <Time>2022-07-12T16:36:24.000Z</Time>
            <Position>
              <LatitudeDegrees>43.35761862806975841522216796875</LatitudeDegrees>
              <LongitudeDegrees>-3.18454661406576633453369140625</LongitudeDegrees>
            </Position>
            <AltitudeMeters>86.40000152587890625</AltitudeMeters>
            <DistanceMeters>NAN</DistanceMeters>
          </Trackpoint>
          <Trackpoint>
            <Time>2022-07-12T16:36:26.000Z</Time>
            <Position>
              <LatitudeDegrees>43.35763807408511638641357421875</LatitudeDegrees>
              <LongitudeDegrees>-3.18455650471150875091552734375</LongitudeDegrees>
            </Position>
            <AltitudeMeters>86.8000030517578125</AltitudeMeters>
            <DistanceMeters>NAN</DistanceMeters>
          </Trackpoint>
          <Trackpoint>
            <Time>2022-07-12T16:36:33.000Z</Time>
            <Position>
              <LatitudeDegrees>43.3577167801558971405029296875</LatitudeDegrees>
              <LongitudeDegrees>-3.18462238647043704986572265625</LongitudeDegrees>
            </Position>
            <AltitudeMeters>87.8000030517578125</AltitudeMeters>
            <DistanceMeters>NAN</DistanceMeters>
          </Trackpoint>
          <Trackpoint>
            <Time>2022-07-12T16:36:36.000Z</Time>
            <Position>
              <LatitudeDegrees>43.357747457921504974365234375</LatitudeDegrees>
              <LongitudeDegrees>-3.18464468233287334442138671875</LongitudeDegrees>
            </Position>
            <AltitudeMeters>88.1999969482421875</AltitudeMeters>
            <DistanceMeters>NAN</DistanceMeters>
          </Trackpoint>
          <Trackpoint>
            <Time>2022-07-12T16:36:40.000Z</Time>
            <Position>
              <LatitudeDegrees>43.3577979169785976409912109375</LatitudeDegrees>
              <LongitudeDegrees>-3.184675611555576324462890625</LongitudeDegrees>
            </Position>
            <AltitudeMeters>88.8000030517578125</AltitudeMeters>
            <DistanceMeters>NAN</DistanceMeters>
          </Trackpoint>
          <Trackpoint>
            <Time>2022-07-12T16:36:47.000Z</Time>
            <Position>
              <LatitudeDegrees>43.35788257420063018798828125</LatitudeDegrees>
              <LongitudeDegrees>-3.184741325676441192626953125</LongitudeDegrees>
            </Position>
            <AltitudeMeters>89.8000030517578125</AltitudeMeters>
            <DistanceMeters>NAN</DistanceMeters>
          </Trackpoint>
          <Trackpoint>
            <Time>2022-07-12T16:36:48.000Z</Time>
            <Position>
              <LatitudeDegrees>43.35789238102734088897705078125</LatitudeDegrees>
              <LongitudeDegrees>-3.18474610336124897003173828125</LongitudeDegrees>
            </Position>
            <AltitudeMeters>90</AltitudeMeters>
            <DistanceMeters>NAN</DistanceMeters>
          </Trackpoint>
          <Trackpoint>
            <Time>2022-07-12T16:36:56.000Z</Time>
            <Position>
              <LatitudeDegrees>43.35799765773117542266845703125</LatitudeDegrees>
              <LongitudeDegrees>-3.18481164984405040740966796875</LongitudeDegrees>
            </Position>
            <AltitudeMeters>91</AltitudeMeters>
            <DistanceMeters>NAN</DistanceMeters>
          </Trackpoint>
          <Trackpoint>
            <Time>2022-07-12T16:37:04.000Z</Time>
            <Position>
              <LatitudeDegrees>43.35809555836021900177001953125</LatitudeDegrees>
              <LongitudeDegrees>-3.1848890148103237152099609375</LongitudeDegrees>
            </Position>
            <AltitudeMeters>91.8000030517578125</AltitudeMeters>
            <DistanceMeters>NAN</DistanceMeters>
          </Trackpoint>
          <Trackpoint>
            <Time>2022-07-12T16:37:05.000Z</Time>
            <Position>
              <LatitudeDegrees>43.35810578428208827972412109375</LatitudeDegrees>
              <LongitudeDegrees>-3.1848977319896221160888671875</LongitudeDegrees>
            </Position>
            <AltitudeMeters>92</AltitudeMeters>
            <DistanceMeters>NAN</DistanceMeters>
          </Trackpoint>
          <Trackpoint>
            <Time>2022-07-12T16:37:13.000Z</Time>
            <Position>
              <LatitudeDegrees>43.3581955544650554656982421875</LatitudeDegrees>
              <LongitudeDegrees>-3.1849617697298526763916015625</LongitudeDegrees>
            </Position>
            <AltitudeMeters>92.8000030517578125</AltitudeMeters>
            <DistanceMeters>NAN</DistanceMeters>
          </Trackpoint>
          <Trackpoint>
            <Time>2022-07-12T16:37:14.000Z</Time>
            <Position>
              <LatitudeDegrees>43.35820586420595645904541015625</LatitudeDegrees>
              <LongitudeDegrees>-3.18497275002300739288330078125</LongitudeDegrees>
            </Position>
            <AltitudeMeters>93</AltitudeMeters>
            <DistanceMeters>NAN</DistanceMeters>
          </Trackpoint>
          <Trackpoint>
            <Time>2022-07-12T16:37:21.000Z</Time>
            <Position>
              <LatitudeDegrees>43.35830024443566799163818359375</LatitudeDegrees>
              <LongitudeDegrees>-3.18503092043101787567138671875</LongitudeDegrees>
            </Position>
            <AltitudeMeters>93.8000030517578125</AltitudeMeters>
            <DistanceMeters>NAN</DistanceMeters>
          </Trackpoint>
          <Trackpoint>
            <Time>2022-07-12T16:37:23.000Z</Time>
            <Position>
              <LatitudeDegrees>43.358318768441677093505859375</LatitudeDegrees>
              <LongitudeDegrees>-3.18504743278026580810546875</LongitudeDegrees>
            </Position>
            <AltitudeMeters>94.1999969482421875</AltitudeMeters>
            <DistanceMeters>NAN</DistanceMeters>
          </Trackpoint>
          <Trackpoint>
            <Time>2022-07-12T16:37:33.000Z</Time>
            <Position>
              <LatitudeDegrees>43.35840962827205657958984375</LatitudeDegrees>
              <LongitudeDegrees>-3.185156397521495819091796875</LongitudeDegrees>
            </Position>
            <AltitudeMeters>95.40000152587890625</AltitudeMeters>
            <DistanceMeters>NAN</DistanceMeters>
          </Trackpoint>
          <Trackpoint>
            <Time>2022-07-12T16:37:42.000Z</Time>
            <Position>
              <LatitudeDegrees>43.3585127256810665130615234375</LatitudeDegrees>
              <LongitudeDegrees>-3.185232169926166534423828125</LongitudeDegrees>
            </Position>
            <AltitudeMeters>96.40000152587890625</AltitudeMeters>
            <DistanceMeters>NAN</DistanceMeters>
          </Trackpoint>
          <Trackpoint>
            <Time>2022-07-12T16:37:44.000Z</Time>
            <Position>
              <LatitudeDegrees>43.35853309370577335357666015625</LatitudeDegrees>
              <LongitudeDegrees>-3.18525387905538082122802734375</LongitudeDegrees>
            </Position>
            <AltitudeMeters>96.8000030517578125</AltitudeMeters>
            <DistanceMeters>NAN</DistanceMeters>
          </Trackpoint>
          <Trackpoint>
            <Time>2022-07-12T16:37:52.000Z</Time>
            <Position>
              <LatitudeDegrees>43.35860886611044406890869140625</LatitudeDegrees>
              <LongitudeDegrees>-3.185332752764225006103515625</LongitudeDegrees>
            </Position>
            <AltitudeMeters>97.59999847412109375</AltitudeMeters>
            <DistanceMeters>NAN</DistanceMeters>
          </Trackpoint>
          <Trackpoint>
            <Time>2022-07-12T16:37:55.000Z</Time>
            <Position>
              <LatitudeDegrees>43.35863954387605190277099609375</LatitudeDegrees>
              <LongitudeDegrees>-3.18536720238626003265380859375</LongitudeDegrees>
            </Position>
            <AltitudeMeters>98</AltitudeMeters>
            <DistanceMeters>NAN</DistanceMeters>
          </Trackpoint>
          <Trackpoint>
            <Time>2022-07-12T16:38:00.000Z</Time>
            <Position>
              <LatitudeDegrees>43.35868782363831996917724609375</LatitudeDegrees>
              <LongitudeDegrees>-3.18542017601430416107177734375</LongitudeDegrees>
            </Position>
            <AltitudeMeters>98.59999847412109375</AltitudeMeters>
            <DistanceMeters>NAN</DistanceMeters>
          </Trackpoint>
          <Trackpoint>
            <Time>2022-07-12T16:38:06.000Z</Time>
            <Position>
              <LatitudeDegrees>43.35874901153147220611572265625</LatitudeDegrees>
              <LongitudeDegrees>-3.1854868121445178985595703125</LongitudeDegrees>
            </Position>
            <AltitudeMeters>99.1999969482421875</AltitudeMeters>
            <DistanceMeters>NAN</DistanceMeters>
          </Trackpoint>
          <Trackpoint>
            <Time>2022-07-12T16:38:12.000Z</Time>
            <Position>
              <LatitudeDegrees>43.35881472565233707427978515625</LatitudeDegrees>
              <LongitudeDegrees>-3.18556032143533229827880859375</LongitudeDegrees>
            </Position>
            <AltitudeMeters>99.8000030517578125</AltitudeMeters>
            <DistanceMeters>NAN</DistanceMeters>
          </Trackpoint>
          <Trackpoint>
            <Time>2022-07-12T16:38:16.000Z</Time>
            <Position>
              <LatitudeDegrees>43.35885529406368732452392578125</LatitudeDegrees>
              <LongitudeDegrees>-3.18560742773115634918212890625</LongitudeDegrees>
            </Position>
            <AltitudeMeters>100</AltitudeMeters>
            <DistanceMeters>NAN</DistanceMeters>
          </Trackpoint>
          <Trackpoint>
            <Time>2022-07-12T16:38:19.000Z</Time>
            <Position>
              <LatitudeDegrees>43.35889066569507122039794921875</LatitudeDegrees>
              <LongitudeDegrees>-3.1856252811849117279052734375</LongitudeDegrees>
            </Position>
            <AltitudeMeters>100.1999969482421875</AltitudeMeters>
            <DistanceMeters>NAN</DistanceMeters>
          </Trackpoint>
          <Trackpoint>
            <Time>2022-07-12T16:38:22.000Z</Time>
            <Position>
              <LatitudeDegrees>43.3589334972202777862548828125</LatitudeDegrees>
              <LongitudeDegrees>-3.185667693614959716796875</LongitudeDegrees>
            </Position>
            <AltitudeMeters>100.40000152587890625</AltitudeMeters>
            <DistanceMeters>NAN</DistanceMeters>
          </Trackpoint>
          <Trackpoint>
            <Time>2022-07-12T16:38:24.000Z</Time>
            <Position>
              <LatitudeDegrees>43.3589640073478221893310546875</LatitudeDegrees>
              <LongitudeDegrees>-3.1856990419328212738037109375</LongitudeDegrees>
            </Position>
            <AltitudeMeters>100.40000152587890625</AltitudeMeters>
            <DistanceMeters>NAN</DistanceMeters>
          </Trackpoint>
          <Trackpoint>
            <Time>2022-07-12T16:38:26.000Z</Time>
            <Position>
              <LatitudeDegrees>43.35898697376251220703125</LatitudeDegrees>
              <LongitudeDegrees>-3.18572737276554107666015625</LongitudeDegrees>
            </Position>
            <AltitudeMeters>100.59999847412109375</AltitudeMeters>
            <DistanceMeters>NAN</DistanceMeters>
          </Trackpoint>
          <Trackpoint>
            <Time>2022-07-12T16:38:31.000Z</Time>
            <Position>
              <LatitudeDegrees>43.35907213389873504638671875</LatitudeDegrees>
              <LongitudeDegrees>-3.185816220939159393310546875</LongitudeDegrees>
            </Position>
            <AltitudeMeters>100.8000030517578125</AltitudeMeters>
            <DistanceMeters>NAN</DistanceMeters>
          </Trackpoint>
          <Trackpoint>
            <Time>2022-07-12T16:38:35.000Z</Time>
            <Position>
              <LatitudeDegrees>43.359145224094390869140625</LatitudeDegrees>
              <LongitudeDegrees>-3.185891322791576385498046875</LongitudeDegrees>
            </Position>
            <AltitudeMeters>100.8000030517578125</AltitudeMeters>
            <DistanceMeters>NAN</DistanceMeters>
          </Trackpoint>
          <Trackpoint>
            <Time>2022-07-12T16:38:44.000Z</Time>
            <Position>
              <LatitudeDegrees>43.35933540947735309600830078125</LatitudeDegrees>
              <LongitudeDegrees>-3.1860752217471599578857421875</LongitudeDegrees>
            </Position>
            <AltitudeMeters>100.59999847412109375</AltitudeMeters>
            <DistanceMeters>NAN</DistanceMeters>
          </Trackpoint>
          <Trackpoint>
            <Time>2022-07-12T16:38:46.000Z</Time>
            <Position>
              <LatitudeDegrees>43.359395004808902740478515625</LatitudeDegrees>
              <LongitudeDegrees>-3.18613775074481964111328125</LongitudeDegrees>
            </Position>
            <AltitudeMeters>100.40000152587890625</AltitudeMeters>
            <DistanceMeters>NAN</DistanceMeters>
          </Trackpoint>
          <Trackpoint>
            <Time>2022-07-12T16:38:47.000Z</Time>
            <Position>
              <LatitudeDegrees>43.35942828096449375152587890625</LatitudeDegrees>
              <LongitudeDegrees>-3.186174295842647552490234375</LongitudeDegrees>
            </Position>
            <AltitudeMeters>100.1999969482421875</AltitudeMeters>
            <DistanceMeters>NAN</DistanceMeters>
          </Trackpoint>
          <Trackpoint>
            <Time>2022-07-12T16:38:49.000Z</Time>
            <Position>
              <LatitudeDegrees>43.35950086824595928192138671875</LatitudeDegrees>
              <LongitudeDegrees>-3.18625115789473056793212890625</LongitudeDegrees>
            </Position>
            <AltitudeMeters>100</AltitudeMeters>
            <DistanceMeters>NAN</DistanceMeters>
          </Trackpoint>
          <Trackpoint>
            <Time>2022-07-12T16:38:50.000Z</Time>
            <Position>
              <LatitudeDegrees>43.35954143665730953216552734375</LatitudeDegrees>
              <LongitudeDegrees>-3.18629239685833454132080078125</LongitudeDegrees>
            </Position>
            <AltitudeMeters>100</AltitudeMeters>
            <DistanceMeters>NAN</DistanceMeters>
          </Trackpoint>
          <Trackpoint>
            <Time>2022-07-12T16:38:52.000Z</Time>
            <Position>
              <LatitudeDegrees>43.35962743498384952545166015625</LatitudeDegrees>
              <LongitudeDegrees>-3.1863825023174285888671875</LongitudeDegrees>
            </Position>
            <AltitudeMeters>99.59999847412109375</AltitudeMeters>
            <DistanceMeters>NAN</DistanceMeters>
          </Trackpoint>
          <Trackpoint>
            <Time>2022-07-12T16:38:55.000Z</Time>
            <Position>
              <LatitudeDegrees>43.3597512356936931610107421875</LatitudeDegrees>
              <LongitudeDegrees>-3.18652658723294734954833984375</LongitudeDegrees>
            </Position>
            <AltitudeMeters>98</AltitudeMeters>
            <DistanceMeters>NAN</DistanceMeters>
          </Trackpoint>
          <Trackpoint>
            <Time>2022-07-12T16:38:57.000Z</Time>
            <Position>
              <LatitudeDegrees>43.35982315242290496826171875</LatitudeDegrees>
              <LongitudeDegrees>-3.1866361387073993682861328125</LongitudeDegrees>
            </Position>
            <AltitudeMeters>97</AltitudeMeters>
            <DistanceMeters>NAN</DistanceMeters>
          </Trackpoint>
          <Trackpoint>
            <Time>2022-07-12T16:38:59.000Z</Time>
            <Position>
              <LatitudeDegrees>43.3598788082599639892578125</LatitudeDegrees>
              <LongitudeDegrees>-3.18674300797283649444580078125</LongitudeDegrees>
            </Position>
            <AltitudeMeters>95.8000030517578125</AltitudeMeters>
            <DistanceMeters>NAN</DistanceMeters>
          </Trackpoint>
          <Trackpoint>
            <Time>2022-07-12T16:39:02.000Z</Time>
            <Position>
              <LatitudeDegrees>43.35994385182857513427734375</LatitudeDegrees>
              <LongitudeDegrees>-3.18688449449837207794189453125</LongitudeDegrees>
            </Position>
            <AltitudeMeters>94.1999969482421875</AltitudeMeters>
            <DistanceMeters>NAN</DistanceMeters>
          </Trackpoint>
          <Trackpoint>
            <Time>2022-07-12T16:39:03.000Z</Time>
            <Position>
              <LatitudeDegrees>43.3599584363400936126708984375</LatitudeDegrees>
              <LongitudeDegrees>-3.18691701628267765045166015625</LongitudeDegrees>
            </Position>
            <AltitudeMeters>93.59999847412109375</AltitudeMeters>
            <DistanceMeters>NAN</DistanceMeters>
          </Trackpoint>
          <Trackpoint>
            <Time>2022-07-12T16:39:05.000Z</Time>
            <Position>
              <LatitudeDegrees>43.35996455512940883636474609375</LatitudeDegrees>
              <LongitudeDegrees>-3.1869248114526271820068359375</LongitudeDegrees>
            </Position>
            <AltitudeMeters>93</AltitudeMeters>
            <DistanceMeters>NAN</DistanceMeters>
          </Trackpoint>
          <Trackpoint>
            <Time>2022-07-12T16:39:06.000Z</Time>
            <Position>
              <LatitudeDegrees>43.35996455512940883636474609375</LatitudeDegrees>
              <LongitudeDegrees>-3.1869248114526271820068359375</LongitudeDegrees>
            </Position>
            <AltitudeMeters>92.8000030517578125</AltitudeMeters>
            <DistanceMeters>NAN</DistanceMeters>
          </Trackpoint>
          <Trackpoint>
            <Time>2022-07-12T16:39:36.000Z</Time>
            <Position>
              <LatitudeDegrees>43.35998115129768848419189453125</LatitudeDegrees>
              <LongitudeDegrees>-3.1869948841631412506103515625</LongitudeDegrees>
            </Position>
            <AltitudeMeters>91.59999847412109375</AltitudeMeters>
            <DistanceMeters>NAN</DistanceMeters>
          </Trackpoint>
          <Trackpoint>
            <Time>2022-07-12T16:39:37.000Z</Time>
            <Position>
              <LatitudeDegrees>43.35999506525695323944091796875</LatitudeDegrees>
              <LongitudeDegrees>-3.18704525940120220184326171875</LongitudeDegrees>
            </Position>
            <AltitudeMeters>91.40000152587890625</AltitudeMeters>
            <DistanceMeters>NAN</DistanceMeters>
          </Trackpoint>
          <Trackpoint>
            <Time>2022-07-12T16:39:38.000Z</Time>
            <Position>
              <LatitudeDegrees>43.3600080572068691253662109375</LatitudeDegrees>
              <LongitudeDegrees>-3.1871025077998638153076171875</LongitudeDegrees>
            </Position>
            <AltitudeMeters>91.1999969482421875</AltitudeMeters>
            <DistanceMeters>NAN</DistanceMeters>
          </Trackpoint>
          <Trackpoint>
            <Time>2022-07-12T16:39:40.000Z</Time>
            <Position>
              <LatitudeDegrees>43.3600437641143798828125</LatitudeDegrees>
              <LongitudeDegrees>-3.18724541924893856048583984375</LongitudeDegrees>
            </Position>
            <AltitudeMeters>90.59999847412109375</AltitudeMeters>
            <DistanceMeters>NAN</DistanceMeters>
          </Trackpoint>
          <Trackpoint>
            <Time>2022-07-12T16:39:41.000Z</Time>
            <Position>
              <LatitudeDegrees>43.36005608551204204559326171875</LatitudeDegrees>
              <LongitudeDegrees>-3.1873318366706371307373046875</LongitudeDegrees>
            </Position>
            <AltitudeMeters>89.59999847412109375</AltitudeMeters>
            <DistanceMeters>NAN</DistanceMeters>
          </Trackpoint>
          <Trackpoint>
            <Time>2022-07-12T16:39:42.000Z</Time>
            <Position>
              <LatitudeDegrees>43.360064886510372161865234375</LatitudeDegrees>
              <LongitudeDegrees>-3.18742680363357067108154296875</LongitudeDegrees>
            </Position>
            <AltitudeMeters>89</AltitudeMeters>
            <DistanceMeters>NAN</DistanceMeters>
          </Trackpoint>
          <Trackpoint>
            <Time>2022-07-12T16:39:45.000Z</Time>
            <Position>
              <LatitudeDegrees>43.3600667305290699005126953125</LatitudeDegrees>
              <LongitudeDegrees>-3.18774146027863025665283203125</LongitudeDegrees>
            </Position>
            <AltitudeMeters>87.40000152587890625</AltitudeMeters>
            <DistanceMeters>NAN</DistanceMeters>
          </Trackpoint>
          <Trackpoint>
            <Time>2022-07-12T16:39:47.000Z</Time>
            <Position>
              <LatitudeDegrees>43.3600720949470996856689453125</LatitudeDegrees>
              <LongitudeDegrees>-3.18795268423855304718017578125</LongitudeDegrees>
            </Position>
            <AltitudeMeters>86.1999969482421875</AltitudeMeters>
            <DistanceMeters>NAN</DistanceMeters>
          </Trackpoint>
          <Trackpoint>
            <Time>2022-07-12T16:39:49.000Z</Time>
            <Position>
              <LatitudeDegrees>43.36011894978582859039306640625</LatitudeDegrees>
              <LongitudeDegrees>-3.18812736310064792633056640625</LongitudeDegrees>
            </Position>
            <AltitudeMeters>84.59999847412109375</AltitudeMeters>
            <DistanceMeters>NAN</DistanceMeters>
          </Trackpoint>
          <Trackpoint>
            <Time>2022-07-12T16:39:50.000Z</Time>
            <Position>
              <LatitudeDegrees>43.36016689427196979522705078125</LatitudeDegrees>
              <LongitudeDegrees>-3.18819525651633739471435546875</LongitudeDegrees>
            </Position>
            <AltitudeMeters>83.8000030517578125</AltitudeMeters>
            <DistanceMeters>NAN</DistanceMeters>
          </Trackpoint>
          <Trackpoint>
            <Time>2022-07-12T16:39:51.000Z</Time>
            <Position>
              <LatitudeDegrees>43.3602347038686275482177734375</LatitudeDegrees>
              <LongitudeDegrees>-3.1882481463253498077392578125</LongitudeDegrees>
            </Position>
            <AltitudeMeters>83.40000152587890625</AltitudeMeters>
            <DistanceMeters>NAN</DistanceMeters>
          </Trackpoint>
          <Trackpoint>
            <Time>2022-07-12T16:39:53.000Z</Time>
            <Position>
              <LatitudeDegrees>43.3603899367153644561767578125</LatitudeDegrees>
              <LongitudeDegrees>-3.18832702003419399261474609375</LongitudeDegrees>
            </Position>
            <AltitudeMeters>82.1999969482421875</AltitudeMeters>
            <DistanceMeters>NAN</DistanceMeters>
          </Trackpoint>
          <Trackpoint>
            <Time>2022-07-12T16:39:54.000Z</Time>
            <Position>
              <LatitudeDegrees>43.3604603447020053863525390625</LatitudeDegrees>
              <LongitudeDegrees>-3.188371025025844573974609375</LongitudeDegrees>
            </Position>
            <AltitudeMeters>81.40000152587890625</AltitudeMeters>
            <DistanceMeters>NAN</DistanceMeters>
          </Trackpoint>
          <Trackpoint>
            <Time>2022-07-12T16:39:55.000Z</Time>
            <Position>
              <LatitudeDegrees>43.36052865721285343170166015625</LatitudeDegrees>
              <LongitudeDegrees>-3.18843263201415538787841796875</LongitudeDegrees>
            </Position>
            <AltitudeMeters>80.59999847412109375</AltitudeMeters>
            <DistanceMeters>NAN</DistanceMeters>
          </Trackpoint>
          <Trackpoint>
            <Time>2022-07-12T16:39:56.000Z</Time>
            <Position>
              <LatitudeDegrees>43.36059202440083026885986328125</LatitudeDegrees>
              <LongitudeDegrees>-3.188507817685604095458984375</LongitudeDegrees>
            </Position>
            <AltitudeMeters>79.8000030517578125</AltitudeMeters>
            <DistanceMeters>NAN</DistanceMeters>
          </Trackpoint>
          <Trackpoint>
            <Time>2022-07-12T16:39:57.000Z</Time>
            <Position>
              <LatitudeDegrees>43.36065354757010936737060546875</LatitudeDegrees>
              <LongitudeDegrees>-3.18858870305120944976806640625</LongitudeDegrees>
            </Position>
            <AltitudeMeters>79.1999969482421875</AltitudeMeters>
            <DistanceMeters>NAN</DistanceMeters>
          </Trackpoint>
          <Trackpoint>
            <Time>2022-07-12T16:39:58.000Z</Time>
            <Position>
              <LatitudeDegrees>43.36071632802486419677734375</LatitudeDegrees>
              <LongitudeDegrees>-3.18867352791130542755126953125</LongitudeDegrees>
            </Position>
            <AltitudeMeters>78</AltitudeMeters>
            <DistanceMeters>NAN</DistanceMeters>
          </Trackpoint>
          <Trackpoint>
            <Time>2022-07-12T16:40:00.000Z</Time>
            <Position>
              <LatitudeDegrees>43.360834009945392608642578125</LatitudeDegrees>
              <LongitudeDegrees>-3.18884007632732391357421875</LongitudeDegrees>
            </Position>
            <AltitudeMeters>76</AltitudeMeters>
            <DistanceMeters>NAN</DistanceMeters>
          </Trackpoint>
          <Trackpoint>
            <Time>2022-07-12T16:40:02.000Z</Time>
            <Position>
              <LatitudeDegrees>43.3609833754599094390869140625</LatitudeDegrees>
              <LongitudeDegrees>-3.1889877654612064361572265625</LongitudeDegrees>
            </Position>
            <AltitudeMeters>74.1999969482421875</AltitudeMeters>
            <DistanceMeters>NAN</DistanceMeters>
          </Trackpoint>
          <Trackpoint>
            <Time>2022-07-12T16:40:04.000Z</Time>
            <Position>
              <LatitudeDegrees>43.3611312322318553924560546875</LatitudeDegrees>
              <LongitudeDegrees>-3.1890524737536907196044921875</LongitudeDegrees>
            </Position>
            <AltitudeMeters>72.59999847412109375</AltitudeMeters>
            <DistanceMeters>NAN</DistanceMeters>
          </Trackpoint>
          <Trackpoint>
            <Time>2022-07-12T16:40:05.000Z</Time>
            <Position>
              <LatitudeDegrees>43.36119736544787883758544921875</LatitudeDegrees>
              <LongitudeDegrees>-3.18903051316738128662109375</LongitudeDegrees>
            </Position>
            <AltitudeMeters>72</AltitudeMeters>
            <DistanceMeters>NAN</DistanceMeters>
          </Trackpoint>
          <Trackpoint>
            <Time>2022-07-12T16:40:06.000Z</Time>
            <Position>
              <LatitudeDegrees>43.3612536080181598663330078125</LatitudeDegrees>
              <LongitudeDegrees>-3.18897192366421222686767578125</LongitudeDegrees>
            </Position>
            <AltitudeMeters>71</AltitudeMeters>
            <DistanceMeters>NAN</DistanceMeters>
          </Trackpoint>
          <Trackpoint>
            <Time>2022-07-12T16:40:07.000Z</Time>
            <Position>
              <LatitudeDegrees>43.3612898178398609161376953125</LatitudeDegrees>
              <LongitudeDegrees>-3.18888559006154537200927734375</LongitudeDegrees>
            </Position>
            <AltitudeMeters>70.40000152587890625</AltitudeMeters>
            <DistanceMeters>NAN</DistanceMeters>
          </Trackpoint>
          <Trackpoint>
            <Time>2022-07-12T16:40:08.000Z</Time>
            <Position>
              <LatitudeDegrees>43.3613008819520473480224609375</LatitudeDegrees>
              <LongitudeDegrees>-3.1887835822999477386474609375</LongitudeDegrees>
            </Position>
            <AltitudeMeters>69.59999847412109375</AltitudeMeters>
            <DistanceMeters>NAN</DistanceMeters>
          </Trackpoint>
          <Trackpoint>
            <Time>2022-07-12T16:40:09.000Z</Time>
            <Position>
              <LatitudeDegrees>43.36128537543118000030517578125</LatitudeDegrees>
              <LongitudeDegrees>-3.1886796467006206512451171875</LongitudeDegrees>
            </Position>
            <AltitudeMeters>68.59999847412109375</AltitudeMeters>
            <DistanceMeters>NAN</DistanceMeters>
          </Trackpoint>
          <Trackpoint>
            <Time>2022-07-12T16:40:10.000Z</Time>
            <Position>
              <LatitudeDegrees>43.3612522669136524200439453125</LatitudeDegrees>
              <LongitudeDegrees>-3.1885887868702411651611328125</LongitudeDegrees>
            </Position>
            <AltitudeMeters>67.8000030517578125</AltitudeMeters>
            <DistanceMeters>NAN</DistanceMeters>
          </Trackpoint>
          <Trackpoint>
            <Time>2022-07-12T16:40:11.000Z</Time>
            <Position>
              <LatitudeDegrees>43.361204825341701507568359375</LatitudeDegrees>
              <LongitudeDegrees>-3.1885203905403614044189453125</LongitudeDegrees>
            </Position>
            <AltitudeMeters>66.59999847412109375</AltitudeMeters>
            <DistanceMeters>NAN</DistanceMeters>
          </Trackpoint>
          <Trackpoint>
            <Time>2022-07-12T16:40:12.000Z</Time>
            <Position>
              <LatitudeDegrees>43.361148834228515625</LatitudeDegrees>
              <LongitudeDegrees>-3.18846431560814380645751953125</LongitudeDegrees>
            </Position>
            <AltitudeMeters>65.59999847412109375</AltitudeMeters>
            <DistanceMeters>NAN</DistanceMeters>
          </Trackpoint>
          <Trackpoint>
            <Time>2022-07-12T16:40:14.000Z</Time>
            <Position>
              <LatitudeDegrees>43.361027799546718597412109375</LatitudeDegrees>
              <LongitudeDegrees>-3.18834562785923480987548828125</LongitudeDegrees>
            </Position>
            <AltitudeMeters>64.1999969482421875</AltitudeMeters>
            <DistanceMeters>NAN</DistanceMeters>
          </Trackpoint>
          <Trackpoint>
            <Time>2022-07-12T16:40:16.000Z</Time>
            <Position>
              <LatitudeDegrees>43.36092964746057987213134765625</LatitudeDegrees>
              <LongitudeDegrees>-3.18820531480014324188232421875</LongitudeDegrees>
            </Position>
            <AltitudeMeters>63</AltitudeMeters>
            <DistanceMeters>NAN</DistanceMeters>
          </Trackpoint>
          <Trackpoint>
            <Time>2022-07-12T16:40:17.000Z</Time>
            <Position>
              <LatitudeDegrees>43.36090517230331897735595703125</LatitudeDegrees>
              <LongitudeDegrees>-3.18811294622719287872314453125</LongitudeDegrees>
            </Position>
            <AltitudeMeters>62.59999847412109375</AltitudeMeters>
            <DistanceMeters>NAN</DistanceMeters>
          </Trackpoint>
          <Trackpoint>
            <Time>2022-07-12T16:40:18.000Z</Time>
            <Position>
              <LatitudeDegrees>43.36090047843754291534423828125</LatitudeDegrees>
              <LongitudeDegrees>-3.18802191875874996185302734375</LongitudeDegrees>
            </Position>
            <AltitudeMeters>61.799999237060546875</AltitudeMeters>
            <DistanceMeters>NAN</DistanceMeters>
          </Trackpoint>
          <Trackpoint>
            <Time>2022-07-12T16:40:20.000Z</Time>
            <Position>
              <LatitudeDegrees>43.36095412261784076690673828125</LatitudeDegrees>
              <LongitudeDegrees>-3.18785369396209716796875</LongitudeDegrees>
            </Position>
            <AltitudeMeters>61</AltitudeMeters>
            <DistanceMeters>NAN</DistanceMeters>
          </Trackpoint>
          <Trackpoint>
            <Time>2022-07-12T16:40:21.000Z</Time>
            <Position>
              <LatitudeDegrees>43.361009024083614349365234375</LatitudeDegrees>
              <LongitudeDegrees>-3.18777012638747692108154296875</LongitudeDegrees>
            </Position>
            <AltitudeMeters>60.40000152587890625</AltitudeMeters>
            <DistanceMeters>NAN</DistanceMeters>
          </Trackpoint>
          <Trackpoint>
            <Time>2022-07-12T16:40:23.000Z</Time>
            <Position>
              <LatitudeDegrees>43.3611285500228404998779296875</LatitudeDegrees>
              <LongitudeDegrees>-3.187628723680973052978515625</LongitudeDegrees>
            </Position>
            <AltitudeMeters>59.40000152587890625</AltitudeMeters>
            <DistanceMeters>NAN</DistanceMeters>
          </Trackpoint>
          <Trackpoint>
            <Time>2022-07-12T16:40:24.000Z</Time>
            <Position>
              <LatitudeDegrees>43.36118713952600955963134765625</LatitudeDegrees>
              <LongitudeDegrees>-3.18755052052438259124755859375</LongitudeDegrees>
            </Position>
            <AltitudeMeters>58.799999237060546875</AltitudeMeters>
            <DistanceMeters>NAN</DistanceMeters>
          </Trackpoint>
          <Trackpoint>
            <Time>2022-07-12T16:40:25.000Z</Time>
            <Position>
              <LatitudeDegrees>43.36124748922884464263916015625</LatitudeDegrees>
              <LongitudeDegrees>-3.1874699704349040985107421875</LongitudeDegrees>
            </Position>
            <AltitudeMeters>58.40000152587890625</AltitudeMeters>
            <DistanceMeters>NAN</DistanceMeters>
          </Trackpoint>
          <Trackpoint>
            <Time>2022-07-12T16:40:27.000Z</Time>
            <Position>
              <LatitudeDegrees>43.3613727986812591552734375</LatitudeDegrees>
              <LongitudeDegrees>-3.187306858599185943603515625</LongitudeDegrees>
            </Position>
            <AltitudeMeters>57.200000762939453125</AltitudeMeters>
            <DistanceMeters>NAN</DistanceMeters>
          </Trackpoint>
          <Trackpoint>
            <Time>2022-07-12T16:40:29.000Z</Time>
            <Position>
              <LatitudeDegrees>43.3615003712475299835205078125</LatitudeDegrees>
              <LongitudeDegrees>-3.18710426799952983856201171875</LongitudeDegrees>
            </Position>
            <AltitudeMeters>56.200000762939453125</AltitudeMeters>
            <DistanceMeters>NAN</DistanceMeters>
          </Trackpoint>
          <Trackpoint>
            <Time>2022-07-12T16:40:30.000Z</Time>
            <Position>
              <LatitudeDegrees>43.36156030185520648956298828125</LatitudeDegrees>
              <LongitudeDegrees>-3.18699471652507781982421875</LongitudeDegrees>
            </Position>
            <AltitudeMeters>55.799999237060546875</AltitudeMeters>
            <DistanceMeters>NAN</DistanceMeters>
          </Trackpoint>
          <Trackpoint>
            <Time>2022-07-12T16:40:32.000Z</Time>
            <Position>
              <LatitudeDegrees>43.36170203983783721923828125</LatitudeDegrees>
              <LongitudeDegrees>-3.186797909438610076904296875</LongitudeDegrees>
            </Position>
            <AltitudeMeters>55.200000762939453125</AltitudeMeters>
            <DistanceMeters>NAN</DistanceMeters>
          </Trackpoint>
          <Trackpoint>
            <Time>2022-07-12T16:40:33.000Z</Time>
            <Position>
              <LatitudeDegrees>43.3617709390819072723388671875</LatitudeDegrees>
              <LongitudeDegrees>-3.18670210428535938262939453125</LongitudeDegrees>
            </Position>
            <AltitudeMeters>54.799999237060546875</AltitudeMeters>
            <DistanceMeters>NAN</DistanceMeters>
          </Trackpoint>
          <Trackpoint>
            <Time>2022-07-12T16:40:34.000Z</Time>
            <Position>
              <LatitudeDegrees>43.36184025742113590240478515625</LatitudeDegrees>
              <LongitudeDegrees>-3.18660445511341094970703125</LongitudeDegrees>
            </Position>
            <AltitudeMeters>54.200000762939453125</AltitudeMeters>
            <DistanceMeters>NAN</DistanceMeters>
          </Trackpoint>
          <Trackpoint>
            <Time>2022-07-12T16:40:35.000Z</Time>
            <Position>
              <LatitudeDegrees>43.36191066540777683258056640625</LatitudeDegrees>
              <LongitudeDegrees>-3.186510242521762847900390625</LongitudeDegrees>
            </Position>
            <AltitudeMeters>53.59999847412109375</AltitudeMeters>
            <DistanceMeters>NAN</DistanceMeters>
          </Trackpoint>
          <Trackpoint>
            <Time>2022-07-12T16:40:37.000Z</Time>
            <Position>
              <LatitudeDegrees>43.3620472066104412078857421875</LatitudeDegrees>
              <LongitudeDegrees>-3.18632139824330806732177734375</LongitudeDegrees>
            </Position>
            <AltitudeMeters>52.59999847412109375</AltitudeMeters>
            <DistanceMeters>NAN</DistanceMeters>
          </Trackpoint>
          <Trackpoint>
            <Time>2022-07-12T16:40:40.000Z</Time>
            <Position>
              <LatitudeDegrees>43.362224735319614410400390625</LatitudeDegrees>
              <LongitudeDegrees>-3.18606105633080005645751953125</LongitudeDegrees>
            </Position>
            <AltitudeMeters>51.200000762939453125</AltitudeMeters>
            <DistanceMeters>NAN</DistanceMeters>
          </Trackpoint>
          <Trackpoint>
            <Time>2022-07-12T16:40:42.000Z</Time>
            <Position>
              <LatitudeDegrees>43.36233780719339847564697265625</LatitudeDegrees>
              <LongitudeDegrees>-3.18591303192079067230224609375</LongitudeDegrees>
            </Position>
            <AltitudeMeters>50.200000762939453125</AltitudeMeters>
            <DistanceMeters>NAN</DistanceMeters>
          </Trackpoint>
          <Trackpoint>
            <Time>2022-07-12T16:40:43.000Z</Time>
            <Position>
              <LatitudeDegrees>43.362401425838470458984375</LatitudeDegrees>
              <LongitudeDegrees>-3.1858603097498416900634765625</LongitudeDegrees>
            </Position>
            <AltitudeMeters>49.799999237060546875</AltitudeMeters>
            <DistanceMeters>NAN</DistanceMeters>
          </Trackpoint>
          <Trackpoint>
            <Time>2022-07-12T16:40:44.000Z</Time>
            <Position>
              <LatitudeDegrees>43.36248122155666351318359375</LatitudeDegrees>
              <LongitudeDegrees>-3.1858261115849018096923828125</LongitudeDegrees>
            </Position>
            <AltitudeMeters>49.40000152587890625</AltitudeMeters>
            <DistanceMeters>NAN</DistanceMeters>
          </Trackpoint>
          <Trackpoint>
            <Time>2022-07-12T16:40:45.000Z</Time>
            <Position>
              <LatitudeDegrees>43.362533859908580780029296875</LatitudeDegrees>
              <LongitudeDegrees>-3.1858398579061031341552734375</LongitudeDegrees>
            </Position>
            <AltitudeMeters>49</AltitudeMeters>
            <DistanceMeters>NAN</DistanceMeters>
          </Trackpoint>
          <Trackpoint>
            <Time>2022-07-12T16:40:46.000Z</Time>
            <Position>
              <LatitudeDegrees>43.362584151327610015869140625</LatitudeDegrees>
              <LongitudeDegrees>-3.185886628925800323486328125</LongitudeDegrees>
            </Position>
            <AltitudeMeters>48.799999237060546875</AltitudeMeters>
            <DistanceMeters>NAN</DistanceMeters>
          </Trackpoint>
          <Trackpoint>
            <Time>2022-07-12T16:40:47.000Z</Time>
            <Position>
              <LatitudeDegrees>43.3626104705035686492919921875</LatitudeDegrees>
              <LongitudeDegrees>-3.18597874604165554046630859375</LongitudeDegrees>
            </Position>
            <AltitudeMeters>48</AltitudeMeters>
            <DistanceMeters>NAN</DistanceMeters>
          </Trackpoint>
          <Trackpoint>
            <Time>2022-07-12T16:40:48.000Z</Time>
            <Position>
              <LatitudeDegrees>43.36260301060974597930908203125</LatitudeDegrees>
              <LongitudeDegrees>-3.18605384789407253265380859375</LongitudeDegrees>
            </Position>
            <AltitudeMeters>47.40000152587890625</AltitudeMeters>
            <DistanceMeters>NAN</DistanceMeters>
          </Trackpoint>
          <Trackpoint>
            <Time>2022-07-12T16:40:49.000Z</Time>
            <Position>
              <LatitudeDegrees>43.36257736198604106903076171875</LatitudeDegrees>
              <LongitudeDegrees>-3.18614504300057888031005859375</LongitudeDegrees>
            </Position>
            <AltitudeMeters>47.200000762939453125</AltitudeMeters>
            <DistanceMeters>NAN</DistanceMeters>
          </Trackpoint>
          <Trackpoint>
            <Time>2022-07-12T16:40:50.000Z</Time>
            <Position>
              <LatitudeDegrees>43.36252816021442413330078125</LatitudeDegrees>
              <LongitudeDegrees>-3.18623456172645092010498046875</LongitudeDegrees>
            </Position>
            <AltitudeMeters>46.799999237060546875</AltitudeMeters>
            <DistanceMeters>NAN</DistanceMeters>
          </Trackpoint>
          <Trackpoint>
            <Time>2022-07-12T16:40:51.000Z</Time>
            <Position>
              <LatitudeDegrees>43.36246722377836704254150390625</LatitudeDegrees>
              <LongitudeDegrees>-3.18631771020591259002685546875</LongitudeDegrees>
            </Position>
            <AltitudeMeters>46.200000762939453125</AltitudeMeters>
            <DistanceMeters>NAN</DistanceMeters>
          </Trackpoint>
          <Trackpoint>
            <Time>2022-07-12T16:40:54.000Z</Time>
            <Position>
              <LatitudeDegrees>43.3622711710631847381591796875</LatitudeDegrees>
              <LongitudeDegrees>-3.18655977956950664520263671875</LongitudeDegrees>
            </Position>
            <AltitudeMeters>45.40000152587890625</AltitudeMeters>
            <DistanceMeters>NAN</DistanceMeters>
          </Trackpoint>
          <Trackpoint>
            <Time>2022-07-12T16:40:55.000Z</Time>
            <Position>
              <LatitudeDegrees>43.362205289304256439208984375</LatitudeDegrees>
              <LongitudeDegrees>-3.18664929829537868499755859375</LongitudeDegrees>
            </Position>
            <AltitudeMeters>44.799999237060546875</AltitudeMeters>
            <DistanceMeters>NAN</DistanceMeters>
          </Trackpoint>
          <Trackpoint>
            <Time>2022-07-12T16:40:57.000Z</Time>
            <Position>
              <LatitudeDegrees>43.36208023130893707275390625</LatitudeDegrees>
              <LongitudeDegrees>-3.18684174679219722747802734375</LongitudeDegrees>
            </Position>
            <AltitudeMeters>43.799999237060546875</AltitudeMeters>
            <DistanceMeters>NAN</DistanceMeters>
          </Trackpoint>
          <Trackpoint>
            <Time>2022-07-12T16:40:59.000Z</Time>
            <Position>
              <LatitudeDegrees>43.3619486354291439056396484375</LatitudeDegrees>
              <LongitudeDegrees>-3.18707174621522426605224609375</LongitudeDegrees>
            </Position>
            <AltitudeMeters>42.799999237060546875</AltitudeMeters>
            <DistanceMeters>NAN</DistanceMeters>
          </Trackpoint>
          <Trackpoint>
            <Time>2022-07-12T16:41:00.000Z</Time>
            <Position>
              <LatitudeDegrees>43.36188417859375476837158203125</LatitudeDegrees>
              <LongitudeDegrees>-3.18717551417648792266845703125</LongitudeDegrees>
            </Position>
            <AltitudeMeters>42.40000152587890625</AltitudeMeters>
            <DistanceMeters>NAN</DistanceMeters>
          </Trackpoint>
          <Trackpoint>
            <Time>2022-07-12T16:41:03.000Z</Time>
            <Position>
              <LatitudeDegrees>43.36171813309192657470703125</LatitudeDegrees>
              <LongitudeDegrees>-3.18748421967029571533203125</LongitudeDegrees>
            </Position>
            <AltitudeMeters>41.40000152587890625</AltitudeMeters>
            <DistanceMeters>NAN</DistanceMeters>
          </Trackpoint>
          <Trackpoint>
            <Time>2022-07-12T16:41:04.000Z</Time>
            <Position>
              <LatitudeDegrees>43.361674882471561431884765625</LatitudeDegrees>
              <LongitudeDegrees>-3.187635429203510284423828125</LongitudeDegrees>
            </Position>
            <AltitudeMeters>41</AltitudeMeters>
            <DistanceMeters>NAN</DistanceMeters>
          </Trackpoint>
          <Trackpoint>
            <Time>2022-07-12T16:41:05.000Z</Time>
            <Position>
              <LatitudeDegrees>43.36166088469326496124267578125</LatitudeDegrees>
              <LongitudeDegrees>-3.1877700425684452056884765625</LongitudeDegrees>
            </Position>
            <AltitudeMeters>40.799999237060546875</AltitudeMeters>
            <DistanceMeters>NAN</DistanceMeters>
          </Trackpoint>
          <Trackpoint>
            <Time>2022-07-12T16:41:06.000Z</Time>
            <Position>
              <LatitudeDegrees>43.3616750501096248626708984375</LatitudeDegrees>
              <LongitudeDegrees>-3.1879115290939807891845703125</LongitudeDegrees>
            </Position>
            <AltitudeMeters>40.200000762939453125</AltitudeMeters>
            <DistanceMeters>NAN</DistanceMeters>
          </Trackpoint>
          <Trackpoint>
            <Time>2022-07-12T16:41:07.000Z</Time>
            <Position>
              <LatitudeDegrees>43.36170363239943981170654296875</LatitudeDegrees>
              <LongitudeDegrees>-3.18801286630332469940185546875</LongitudeDegrees>
            </Position>
            <AltitudeMeters>39.799999237060546875</AltitudeMeters>
            <DistanceMeters>NAN</DistanceMeters>
          </Trackpoint>
          <Trackpoint>
            <Time>2022-07-12T16:41:09.000Z</Time>
            <Position>
              <LatitudeDegrees>43.36181779392063617706298828125</LatitudeDegrees>
              <LongitudeDegrees>-3.18827874027192592620849609375</LongitudeDegrees>
            </Position>
            <AltitudeMeters>38.59999847412109375</AltitudeMeters>
            <DistanceMeters>NAN</DistanceMeters>
          </Trackpoint>
          <Trackpoint>
            <Time>2022-07-12T16:41:12.000Z</Time>
            <Position>
              <LatitudeDegrees>43.36200202815234661102294921875</LatitudeDegrees>
              <LongitudeDegrees>-3.18862508051097393035888671875</LongitudeDegrees>
            </Position>
            <AltitudeMeters>37.40000152587890625</AltitudeMeters>
            <DistanceMeters>NAN</DistanceMeters>
          </Trackpoint>
          <Trackpoint>
            <Time>2022-07-12T16:41:14.000Z</Time>
            <Position>
              <LatitudeDegrees>43.362129516899585723876953125</LatitudeDegrees>
              <LongitudeDegrees>-3.18883932195603847503662109375</LongitudeDegrees>
            </Position>
            <AltitudeMeters>36.799999237060546875</AltitudeMeters>
            <DistanceMeters>NAN</DistanceMeters>
          </Trackpoint>
          <Trackpoint>
            <Time>2022-07-12T16:41:15.000Z</Time>
            <Position>
              <LatitudeDegrees>43.3622071333229541778564453125</LatitudeDegrees>
              <LongitudeDegrees>-3.18893529474735260009765625</LongitudeDegrees>
            </Position>
            <AltitudeMeters>36.200000762939453125</AltitudeMeters>
            <DistanceMeters>NAN</DistanceMeters>
          </Trackpoint>
          <Trackpoint>
            <Time>2022-07-12T16:41:18.000Z</Time>
            <Position>
              <LatitudeDegrees>43.36245800368487834930419921875</LatitudeDegrees>
              <LongitudeDegrees>-3.18921650759875774383544921875</LongitudeDegrees>
            </Position>
            <AltitudeMeters>34.799999237060546875</AltitudeMeters>
            <DistanceMeters>NAN</DistanceMeters>
          </Trackpoint>
          <Trackpoint>
            <Time>2022-07-12T16:41:21.000Z</Time>
            <Position>
              <LatitudeDegrees>43.362712562084197998046875</LatitudeDegrees>
              <LongitudeDegrees>-3.18948707543313503265380859375</LongitudeDegrees>
            </Position>
            <AltitudeMeters>33.799999237060546875</AltitudeMeters>
            <DistanceMeters>NAN</DistanceMeters>
          </Trackpoint>
          <Trackpoint>
            <Time>2022-07-12T16:41:23.000Z</Time>
            <Position>
              <LatitudeDegrees>43.362881205976009368896484375</LatitudeDegrees>
              <LongitudeDegrees>-3.18966510705649852752685546875</LongitudeDegrees>
            </Position>
            <AltitudeMeters>32.59999847412109375</AltitudeMeters>
            <DistanceMeters>NAN</DistanceMeters>
          </Trackpoint>
          <Trackpoint>
            <Time>2022-07-12T16:41:25.000Z</Time>
            <Position>
              <LatitudeDegrees>43.363074325025081634521484375</LatitudeDegrees>
              <LongitudeDegrees>-3.1898668594658374786376953125</LongitudeDegrees>
            </Position>
            <AltitudeMeters>31.3999996185302734375</AltitudeMeters>
            <DistanceMeters>NAN</DistanceMeters>
          </Trackpoint>
          <Trackpoint>
            <Time>2022-07-12T16:41:27.000Z</Time>
            <Position>
              <LatitudeDegrees>43.36324221454560756683349609375</LatitudeDegrees>
              <LongitudeDegrees>-3.19004061631858348846435546875</LongitudeDegrees>
            </Position>
            <AltitudeMeters>30.3999996185302734375</AltitudeMeters>
            <DistanceMeters>NAN</DistanceMeters>
          </Trackpoint>
          <Trackpoint>
            <Time>2022-07-12T16:41:29.000Z</Time>
            <Position>
              <LatitudeDegrees>43.363388814032077789306640625</LatitudeDegrees>
              <LongitudeDegrees>-3.1901793368160724639892578125</LongitudeDegrees>
            </Position>
            <AltitudeMeters>28.799999237060546875</AltitudeMeters>
            <DistanceMeters>NAN</DistanceMeters>
          </Trackpoint>
          <Trackpoint>
            <Time>2022-07-12T16:41:30.000Z</Time>
            <Position>
              <LatitudeDegrees>43.36346559226512908935546875</LatitudeDegrees>
              <LongitudeDegrees>-3.1902534328401088714599609375</LongitudeDegrees>
            </Position>
            <AltitudeMeters>28.200000762939453125</AltitudeMeters>
            <DistanceMeters>NAN</DistanceMeters>
          </Trackpoint>
          <Trackpoint>
            <Time>2022-07-12T16:41:31.000Z</Time>
            <Position>
              <LatitudeDegrees>43.3635425381362438201904296875</LatitudeDegrees>
              <LongitudeDegrees>-3.190324343740940093994140625</LongitudeDegrees>
            </Position>
            <AltitudeMeters>27.3999996185302734375</AltitudeMeters>
            <DistanceMeters>NAN</DistanceMeters>
          </Trackpoint>
          <Trackpoint>
            <Time>2022-07-12T16:41:32.000Z</Time>
            <Position>
              <LatitudeDegrees>43.36362359113991260528564453125</LatitudeDegrees>
              <LongitudeDegrees>-3.19041260518133640289306640625</LongitudeDegrees>
            </Position>
            <AltitudeMeters>26.3999996185302734375</AltitudeMeters>
            <DistanceMeters>NAN</DistanceMeters>
          </Trackpoint>
          <Trackpoint>
            <Time>2022-07-12T16:41:33.000Z</Time>
            <Position>
              <LatitudeDegrees>43.36366533301770687103271484375</LatitudeDegrees>
              <LongitudeDegrees>-3.19047412835061550140380859375</LongitudeDegrees>
            </Position>
            <AltitudeMeters>25.799999237060546875</AltitudeMeters>
            <DistanceMeters>NAN</DistanceMeters>
          </Trackpoint>
          <Trackpoint>
            <Time>2022-07-12T16:41:34.000Z</Time>
            <Position>
              <LatitudeDegrees>43.3636960946023464202880859375</LatitudeDegrees>
              <LongitudeDegrees>-3.19055643863976001739501953125</LongitudeDegrees>
            </Position>
            <AltitudeMeters>25</AltitudeMeters>
            <DistanceMeters>NAN</DistanceMeters>
          </Trackpoint>
          <Trackpoint>
            <Time>2022-07-12T16:41:35.000Z</Time>
            <Position>
              <LatitudeDegrees>43.3637014590203762054443359375</LatitudeDegrees>
              <LongitudeDegrees>-3.19064914248883724212646484375</LongitudeDegrees>
            </Position>
            <AltitudeMeters>24.3999996185302734375</AltitudeMeters>
            <DistanceMeters>NAN</DistanceMeters>
          </Trackpoint>
          <Trackpoint>
            <Time>2022-07-12T16:41:36.000Z</Time>
            <Position>
              <LatitudeDegrees>43.3636848628520965576171875</LatitudeDegrees>
              <LongitudeDegrees>-3.190746791660785675048828125</LongitudeDegrees>
            </Position>
            <AltitudeMeters>23.6000003814697265625</AltitudeMeters>
            <DistanceMeters>NAN</DistanceMeters>
          </Trackpoint>
          <Trackpoint>
            <Time>2022-07-12T16:41:37.000Z</Time>
            <Position>
              <LatitudeDegrees>43.36364270187914371490478515625</LatitudeDegrees>
              <LongitudeDegrees>-3.1908324547111988067626953125</LongitudeDegrees>
            </Position>
            <AltitudeMeters>23</AltitudeMeters>
            <DistanceMeters>NAN</DistanceMeters>
          </Trackpoint>
          <Trackpoint>
            <Time>2022-07-12T16:41:38.000Z</Time>
            <Position>
              <LatitudeDegrees>43.363584615290164947509765625</LatitudeDegrees>
              <LongitudeDegrees>-3.19090881384909152984619140625</LongitudeDegrees>
            </Position>
            <AltitudeMeters>22.3999996185302734375</AltitudeMeters>
            <DistanceMeters>NAN</DistanceMeters>
          </Trackpoint>
          <Trackpoint>
            <Time>2022-07-12T16:41:39.000Z</Time>
            <Position>
              <LatitudeDegrees>43.36352284066379070281982421875</LatitudeDegrees>
              <LongitudeDegrees>-3.19098173640668392181396484375</LongitudeDegrees>
            </Position>
            <AltitudeMeters>22</AltitudeMeters>
            <DistanceMeters>NAN</DistanceMeters>
          </Trackpoint>
          <Trackpoint>
            <Time>2022-07-12T16:41:40.000Z</Time>
            <Position>
              <LatitudeDegrees>43.36345897056162357330322265625</LatitudeDegrees>
              <LongitudeDegrees>-3.19105348549783229827880859375</LongitudeDegrees>
            </Position>
            <AltitudeMeters>21.6000003814697265625</AltitudeMeters>
            <DistanceMeters>NAN</DistanceMeters>
          </Trackpoint>
          <Trackpoint>
            <Time>2022-07-12T16:41:42.000Z</Time>
            <Position>
              <LatitudeDegrees>43.363335169851779937744140625</LatitudeDegrees>
              <LongitudeDegrees>-3.19120251573622226715087890625</LongitudeDegrees>
            </Position>
            <AltitudeMeters>20.3999996185302734375</AltitudeMeters>
            <DistanceMeters>NAN</DistanceMeters>
          </Trackpoint>
          <Trackpoint>
            <Time>2022-07-12T16:41:44.000Z</Time>
            <Position>
              <LatitudeDegrees>43.3632055856287479400634765625</LatitudeDegrees>
              <LongitudeDegrees>-3.19136110134422779083251953125</LongitudeDegrees>
            </Position>
            <AltitudeMeters>19.3999996185302734375</AltitudeMeters>
            <DistanceMeters>NAN</DistanceMeters>
          </Trackpoint>
          <Trackpoint>
            <Time>2022-07-12T16:41:45.000Z</Time>
            <Position>
              <LatitudeDegrees>43.36314699612557888031005859375</LatitudeDegrees>
              <LongitudeDegrees>-3.191444166004657745361328125</LongitudeDegrees>
            </Position>
            <AltitudeMeters>19</AltitudeMeters>
            <DistanceMeters>NAN</DistanceMeters>
          </Trackpoint>
          <Trackpoint>
            <Time>2022-07-12T16:41:47.000Z</Time>
            <Position>
              <LatitudeDegrees>43.363029062747955322265625</LatitudeDegrees>
              <LongitudeDegrees>-3.19160786457359790802001953125</LongitudeDegrees>
            </Position>
            <AltitudeMeters>18.200000762939453125</AltitudeMeters>
            <DistanceMeters>NAN</DistanceMeters>
          </Trackpoint>
          <Trackpoint>
            <Time>2022-07-12T16:41:49.000Z</Time>
            <Position>
              <LatitudeDegrees>43.36289017461240291595458984375</LatitudeDegrees>
              <LongitudeDegrees>-3.19174817763268947601318359375</LongitudeDegrees>
            </Position>
            <AltitudeMeters>17.3999996185302734375</AltitudeMeters>
            <DistanceMeters>NAN</DistanceMeters>
          </Trackpoint>
          <Trackpoint>
            <Time>2022-07-12T16:41:50.000Z</Time>
            <Position>
              <LatitudeDegrees>43.36281255818903446197509765625</LatitudeDegrees>
              <LongitudeDegrees>-3.191810958087444305419921875</LongitudeDegrees>
            </Position>
            <AltitudeMeters>17</AltitudeMeters>
            <DistanceMeters>NAN</DistanceMeters>
          </Trackpoint>
          <Trackpoint>
            <Time>2022-07-12T16:41:54.000Z</Time>
            <Position>
              <LatitudeDegrees>43.36248868145048618316650390625</LatitudeDegrees>
              <LongitudeDegrees>-3.19207725115120410919189453125</LongitudeDegrees>
            </Position>
            <AltitudeMeters>15.80000019073486328125</AltitudeMeters>
            <DistanceMeters>NAN</DistanceMeters>
          </Trackpoint>
          <Trackpoint>
            <Time>2022-07-12T16:41:55.000Z</Time>
            <Position>
              <LatitudeDegrees>43.362408466637134552001953125</LatitudeDegrees>
              <LongitudeDegrees>-3.19215352647006511688232421875</LongitudeDegrees>
            </Position>
            <AltitudeMeters>15.3999996185302734375</AltitudeMeters>
            <DistanceMeters>NAN</DistanceMeters>
          </Trackpoint>
          <Trackpoint>
            <Time>2022-07-12T16:41:57.000Z</Time>
            <Position>
              <LatitudeDegrees>43.3622510544955730438232421875</LatitudeDegrees>
              <LongitudeDegrees>-3.19230683147907257080078125</LongitudeDegrees>
            </Position>
            <AltitudeMeters>14.3999996185302734375</AltitudeMeters>
            <DistanceMeters>NAN</DistanceMeters>
          </Trackpoint>
          <Trackpoint>
            <Time>2022-07-12T16:41:58.000Z</Time>
            <Position>
              <LatitudeDegrees>43.36218106560409069061279296875</LatitudeDegrees>
              <LongitudeDegrees>-3.19238972850143909454345703125</LongitudeDegrees>
            </Position>
            <AltitudeMeters>13.80000019073486328125</AltitudeMeters>
            <DistanceMeters>NAN</DistanceMeters>
          </Trackpoint>
          <Trackpoint>
            <Time>2022-07-12T16:41:59.000Z</Time>
            <Position>
              <LatitudeDegrees>43.36211484856903553009033203125</LatitudeDegrees>
              <LongitudeDegrees>-3.19247656501829624176025390625</LongitudeDegrees>
            </Position>
            <AltitudeMeters>13.19999980926513671875</AltitudeMeters>
            <DistanceMeters>NAN</DistanceMeters>
          </Trackpoint>
          <Trackpoint>
            <Time>2022-07-12T16:42:00.000Z</Time>
            <Position>
              <LatitudeDegrees>43.362047709524631500244140625</LatitudeDegrees>
              <LongitudeDegrees>-3.19256809540092945098876953125</LongitudeDegrees>
            </Position>
            <AltitudeMeters>12.6000003814697265625</AltitudeMeters>
            <DistanceMeters>NAN</DistanceMeters>
          </Trackpoint>
          <Trackpoint>
            <Time>2022-07-12T16:42:01.000Z</Time>
            <Position>
              <LatitudeDegrees>43.3619709312915802001953125</LatitudeDegrees>
              <LongitudeDegrees>-3.1926784850656986236572265625</LongitudeDegrees>
            </Position>
            <AltitudeMeters>12</AltitudeMeters>
            <DistanceMeters>NAN</DistanceMeters>
          </Trackpoint>
          <Trackpoint>
            <Time>2022-07-12T16:42:03.000Z</Time>
            <Position>
              <LatitudeDegrees>43.36184126324951648712158203125</LatitudeDegrees>
              <LongitudeDegrees>-3.19286833517253398895263671875</LongitudeDegrees>
            </Position>
            <AltitudeMeters>10.3999996185302734375</AltitudeMeters>
            <DistanceMeters>NAN</DistanceMeters>
          </Trackpoint>
          <Trackpoint>
            <Time>2022-07-12T16:42:05.000Z</Time>
            <Position>
              <LatitudeDegrees>43.3617266826331615447998046875</LatitudeDegrees>
              <LongitudeDegrees>-3.19308333098888397216796875</LongitudeDegrees>
            </Position>
            <AltitudeMeters>8.80000019073486328125</AltitudeMeters>
            <DistanceMeters>NAN</DistanceMeters>
          </Trackpoint>
          <Trackpoint>
            <Time>2022-07-12T16:42:07.000Z</Time>
            <Position>
              <LatitudeDegrees>43.36161159910261631011962890625</LatitudeDegrees>
              <LongitudeDegrees>-3.1933104805648326873779296875</LongitudeDegrees>
            </Position>
            <AltitudeMeters>7.80000019073486328125</AltitudeMeters>
            <DistanceMeters>NAN</DistanceMeters>
          </Trackpoint>
          <Trackpoint>
            <Time>2022-07-12T16:42:08.000Z</Time>
            <Position>
              <LatitudeDegrees>43.3615516684949398040771484375</LatitudeDegrees>
              <LongitudeDegrees>-3.19342665374279022216796875</LongitudeDegrees>
            </Position>
            <AltitudeMeters>7.19999980926513671875</AltitudeMeters>
            <DistanceMeters>NAN</DistanceMeters>
          </Trackpoint>
          <Trackpoint>
            <Time>2022-07-12T16:42:10.000Z</Time>
            <Position>
              <LatitudeDegrees>43.3614400215446949005126953125</LatitudeDegrees>
              <LongitudeDegrees>-3.193639554083347320556640625</LongitudeDegrees>
            </Position>
            <AltitudeMeters>6.599999904632568359375</AltitudeMeters>
            <DistanceMeters>NAN</DistanceMeters>
          </Trackpoint>
          <Trackpoint>
            <Time>2022-07-12T16:42:12.000Z</Time>
            <Position>
              <LatitudeDegrees>43.36130750365555286407470703125</LatitudeDegrees>
              <LongitudeDegrees>-3.19390718825161457061767578125</LongitudeDegrees>
            </Position>
            <AltitudeMeters>5.19999980926513671875</AltitudeMeters>
            <DistanceMeters>NAN</DistanceMeters>
          </Trackpoint>
          <Trackpoint>
            <Time>2022-07-12T16:42:14.000Z</Time>
            <Position>
              <LatitudeDegrees>43.36119837127625942230224609375</LatitudeDegrees>
              <LongitudeDegrees>-3.19417105056345462799072265625</LongitudeDegrees>
            </Position>
            <AltitudeMeters>4</AltitudeMeters>
            <DistanceMeters>NAN</DistanceMeters>
          </Trackpoint>
          <Trackpoint>
            <Time>2022-07-12T16:42:16.000Z</Time>
            <Position>
              <LatitudeDegrees>43.36110399104654788970947265625</LatitudeDegrees>
              <LongitudeDegrees>-3.1944358348846435546875</LongitudeDegrees>
            </Position>
            <AltitudeMeters>2.7999999523162841796875</AltitudeMeters>
            <DistanceMeters>NAN</DistanceMeters>
          </Trackpoint>
          <Trackpoint>
            <Time>2022-07-12T16:42:17.000Z</Time>
            <Position>
              <LatitudeDegrees>43.36104464717209339141845703125</LatitudeDegrees>
              <LongitudeDegrees>-3.19455561228096485137939453125</LongitudeDegrees>
            </Position>
            <AltitudeMeters>2.400000095367431640625</AltitudeMeters>
            <DistanceMeters>NAN</DistanceMeters>
          </Trackpoint>
          <Trackpoint>
            <Time>2022-07-12T16:42:18.000Z</Time>
            <Position>
              <LatitudeDegrees>43.360971473157405853271484375</LatitudeDegrees>
              <LongitudeDegrees>-3.19466709159314632415771484375</LongitudeDegrees>
            </Position>
            <AltitudeMeters>1.60000002384185791015625</AltitudeMeters>
            <DistanceMeters>NAN</DistanceMeters>
          </Trackpoint>
          <Trackpoint>
            <Time>2022-07-12T16:42:20.000Z</Time>
            <Position>
              <LatitudeDegrees>43.3607999794185161590576171875</LatitudeDegrees>
              <LongitudeDegrees>-3.194879405200481414794921875</LongitudeDegrees>
            </Position>
            <AltitudeMeters>0.20000000298023223876953125</AltitudeMeters>
            <DistanceMeters>NAN</DistanceMeters>
          </Trackpoint>
          <Trackpoint>
            <Time>2022-07-12T16:42:22.000Z</Time>
            <Position>
              <LatitudeDegrees>43.3606232888996601104736328125</LatitudeDegrees>
              <LongitudeDegrees>-3.19509029388427734375</LongitudeDegrees>
            </Position>
            <AltitudeMeters>-1.2000000476837158203125</AltitudeMeters>
            <DistanceMeters>NAN</DistanceMeters>
          </Trackpoint>
          <Trackpoint>
            <Time>2022-07-12T16:42:23.000Z</Time>
            <Position>
              <LatitudeDegrees>43.36053536273539066314697265625</LatitudeDegrees>
              <LongitudeDegrees>-3.19519246928393840789794921875</LongitudeDegrees>
            </Position>
            <AltitudeMeters>-1.7999999523162841796875</AltitudeMeters>
            <DistanceMeters>NAN</DistanceMeters>
          </Trackpoint>
          <Trackpoint>
            <Time>2022-07-12T16:42:24.000Z</Time>
            <Position>
              <LatitudeDegrees>43.3604660443961620330810546875</LatitudeDegrees>
              <LongitudeDegrees>-3.19527737796306610107421875</LongitudeDegrees>
            </Position>
            <AltitudeMeters>-2.400000095367431640625</AltitudeMeters>
            <DistanceMeters>NAN</DistanceMeters>
          </Trackpoint>
          <Trackpoint>
            <Time>2022-07-12T16:42:27.000Z</Time>
            <Position>
              <LatitudeDegrees>43.360167481005191802978515625</LatitudeDegrees>
              <LongitudeDegrees>-3.1955910287797451019287109375</LongitudeDegrees>
            </Position>
            <AltitudeMeters>-3.599999904632568359375</AltitudeMeters>
            <DistanceMeters>NAN</DistanceMeters>
          </Trackpoint>
          <Trackpoint>
            <Time>2022-07-12T16:42:29.000Z</Time>
            <Position>
              <LatitudeDegrees>43.35996673442423343658447265625</LatitudeDegrees>
              <LongitudeDegrees>-3.19577157497406005859375</LongitudeDegrees>
            </Position>
            <AltitudeMeters>-5</AltitudeMeters>
            <DistanceMeters>NAN</DistanceMeters>
          </Trackpoint>
          <Trackpoint>
            <Time>2022-07-12T16:42:31.000Z</Time>
            <Position>
              <LatitudeDegrees>43.3597862720489501953125</LatitudeDegrees>
              <LongitudeDegrees>-3.19596762768924236297607421875</LongitudeDegrees>
            </Position>
            <AltitudeMeters>-6.19999980926513671875</AltitudeMeters>
            <DistanceMeters>NAN</DistanceMeters>
          </Trackpoint>
          <Trackpoint>
            <Time>2022-07-12T16:42:33.000Z</Time>
            <Position>
              <LatitudeDegrees>43.35962374694645404815673828125</LatitudeDegrees>
              <LongitudeDegrees>-3.1961606629192829132080078125</LongitudeDegrees>
            </Position>
            <AltitudeMeters>-7.599999904632568359375</AltitudeMeters>
            <DistanceMeters>NAN</DistanceMeters>
          </Trackpoint>
          <Trackpoint>
            <Time>2022-07-12T16:42:35.000Z</Time>
            <Position>
              <LatitudeDegrees>43.359450660645961761474609375</LatitudeDegrees>
              <LongitudeDegrees>-3.19631882943212985992431640625</LongitudeDegrees>
            </Position>
            <AltitudeMeters>-9.19999980926513671875</AltitudeMeters>
            <DistanceMeters>NAN</DistanceMeters>
          </Trackpoint>
          <Trackpoint>
            <Time>2022-07-12T16:42:37.000Z</Time>
            <Position>
              <LatitudeDegrees>43.359287716448307037353515625</LatitudeDegrees>
              <LongitudeDegrees>-3.19646182470023632049560546875</LongitudeDegrees>
            </Position>
            <AltitudeMeters>-10.6000003814697265625</AltitudeMeters>
            <DistanceMeters>NAN</DistanceMeters>
          </Trackpoint>
          <Trackpoint>
            <Time>2022-07-12T16:42:39.000Z</Time>
            <Position>
              <LatitudeDegrees>43.359193168580532073974609375</LatitudeDegrees>
              <LongitudeDegrees>-3.19665075279772281646728515625</LongitudeDegrees>
            </Position>
            <AltitudeMeters>-11.80000019073486328125</AltitudeMeters>
            <DistanceMeters>NAN</DistanceMeters>
          </Trackpoint>
          <Trackpoint>
            <Time>2022-07-12T16:42:41.000Z</Time>
            <Position>
              <LatitudeDegrees>43.35922443307936191558837890625</LatitudeDegrees>
              <LongitudeDegrees>-3.1968426145613193511962890625</LongitudeDegrees>
            </Position>
            <AltitudeMeters>-13.19999980926513671875</AltitudeMeters>
            <DistanceMeters>NAN</DistanceMeters>
          </Trackpoint>
          <Trackpoint>
            <Time>2022-07-12T16:42:43.000Z</Time>
            <Position>
              <LatitudeDegrees>43.359376229345798492431640625</LatitudeDegrees>
              <LongitudeDegrees>-3.19694302976131439208984375</LongitudeDegrees>
            </Position>
            <AltitudeMeters>-14.19999980926513671875</AltitudeMeters>
            <DistanceMeters>NAN</DistanceMeters>
          </Trackpoint>
          <Trackpoint>
            <Time>2022-07-12T16:42:44.000Z</Time>
            <Position>
              <LatitudeDegrees>43.35946985520422458648681640625</LatitudeDegrees>
              <LongitudeDegrees>-3.196955434978008270263671875</LongitudeDegrees>
            </Position>
            <AltitudeMeters>-14.6000003814697265625</AltitudeMeters>
            <DistanceMeters>NAN</DistanceMeters>
          </Trackpoint>
          <Trackpoint>
            <Time>2022-07-12T16:42:47.000Z</Time>
            <Position>
              <LatitudeDegrees>43.3597688376903533935546875</LatitudeDegrees>
              <LongitudeDegrees>-3.19701838307082653045654296875</LongitudeDegrees>
            </Position>
            <AltitudeMeters>-15.80000019073486328125</AltitudeMeters>
            <DistanceMeters>NAN</DistanceMeters>
          </Trackpoint>
          <Trackpoint>
            <Time>2022-07-12T16:42:48.000Z</Time>
            <Position>
              <LatitudeDegrees>43.35986900143325328826904296875</LatitudeDegrees>
              <LongitudeDegrees>-3.19703967310488224029541015625</LongitudeDegrees>
            </Position>
            <AltitudeMeters>-16.200000762939453125</AltitudeMeters>
            <DistanceMeters>NAN</DistanceMeters>
          </Trackpoint>
          <Trackpoint>
            <Time>2022-07-12T16:42:50.000Z</Time>
            <Position>
              <LatitudeDegrees>43.36008106358349323272705078125</LatitudeDegrees>
              <LongitudeDegrees>-3.19708594121038913726806640625</LongitudeDegrees>
            </Position>
            <AltitudeMeters>-17.200000762939453125</AltitudeMeters>
            <DistanceMeters>NAN</DistanceMeters>
          </Trackpoint>
          <Trackpoint>
            <Time>2022-07-12T16:42:53.000Z</Time>
            <Position>
              <LatitudeDegrees>43.36038348264992237091064453125</LatitudeDegrees>
              <LongitudeDegrees>-3.19715416990220546722412109375</LongitudeDegrees>
            </Position>
            <AltitudeMeters>-18.3999996185302734375</AltitudeMeters>
            <DistanceMeters>NAN</DistanceMeters>
          </Trackpoint>
          <Trackpoint>
            <Time>2022-07-12T16:42:54.000Z</Time>
            <Position>
              <LatitudeDegrees>43.3604804612696170806884765625</LatitudeDegrees>
              <LongitudeDegrees>-3.1971970014274120330810546875</LongitudeDegrees>
            </Position>
            <AltitudeMeters>-19</AltitudeMeters>
            <DistanceMeters>NAN</DistanceMeters>
          </Trackpoint>
          <Trackpoint>
            <Time>2022-07-12T16:42:55.000Z</Time>
            <Position>
              <LatitudeDegrees>43.36057819426059722900390625</LatitudeDegrees>
              <LongitudeDegrees>-3.197265230119228363037109375</LongitudeDegrees>
            </Position>
            <AltitudeMeters>-19.6000003814697265625</AltitudeMeters>
            <DistanceMeters>NAN</DistanceMeters>
          </Trackpoint>
          <Trackpoint>
            <Time>2022-07-12T16:42:56.000Z</Time>
            <Position>
              <LatitudeDegrees>43.36064600385725498199462890625</LatitudeDegrees>
              <LongitudeDegrees>-3.1973515637218952178955078125</LongitudeDegrees>
            </Position>
            <AltitudeMeters>-20.200000762939453125</AltitudeMeters>
            <DistanceMeters>NAN</DistanceMeters>
          </Trackpoint>
          <Trackpoint>
            <Time>2022-07-12T16:42:57.000Z</Time>
            <Position>
              <LatitudeDegrees>43.3606833033263683319091796875</LatitudeDegrees>
              <LongitudeDegrees>-3.19745189510285854339599609375</LongitudeDegrees>
            </Position>
            <AltitudeMeters>-21.200000762939453125</AltitudeMeters>
            <DistanceMeters>NAN</DistanceMeters>
          </Trackpoint>
          <Trackpoint>
            <Time>2022-07-12T16:42:58.000Z</Time>
            <Position>
              <LatitudeDegrees>43.36069411598145961761474609375</LatitudeDegrees>
              <LongitudeDegrees>-3.197565637528896331787109375</LongitudeDegrees>
            </Position>
            <AltitudeMeters>-21.799999237060546875</AltitudeMeters>
            <DistanceMeters>NAN</DistanceMeters>
          </Trackpoint>
          <Trackpoint>
            <Time>2022-07-12T16:42:59.000Z</Time>
            <Position>
              <LatitudeDegrees>43.36068673990666866302490234375</LatitudeDegrees>
              <LongitudeDegrees>-3.19769379682838916778564453125</LongitudeDegrees>
            </Position>
            <AltitudeMeters>-22.3999996185302734375</AltitudeMeters>
            <DistanceMeters>NAN</DistanceMeters>
          </Trackpoint>
          <Trackpoint>
            <Time>2022-07-12T16:43:01.000Z</Time>
            <Position>
              <LatitudeDegrees>43.360681794583797454833984375</LatitudeDegrees>
              <LongitudeDegrees>-3.19796897470951080322265625</LongitudeDegrees>
            </Position>
            <AltitudeMeters>-23.3999996185302734375</AltitudeMeters>
            <DistanceMeters>NAN</DistanceMeters>
          </Trackpoint>
          <Trackpoint>
            <Time>2022-07-12T16:43:02.000Z</Time>
            <Position>
              <LatitudeDegrees>43.36068791337311267852783203125</LatitudeDegrees>
              <LongitudeDegrees>-3.19810803048312664031982421875</LongitudeDegrees>
            </Position>
            <AltitudeMeters>-23.799999237060546875</AltitudeMeters>
            <DistanceMeters>NAN</DistanceMeters>
          </Trackpoint>
          <Trackpoint>
            <Time>2022-07-12T16:43:04.000Z</Time>
            <Position>
              <LatitudeDegrees>43.36072278209030628204345703125</LatitudeDegrees>
              <LongitudeDegrees>-3.19841422140598297119140625</LongitudeDegrees>
            </Position>
            <AltitudeMeters>-25</AltitudeMeters>
            <DistanceMeters>NAN</DistanceMeters>
          </Trackpoint>
          <Trackpoint>
            <Time>2022-07-12T16:43:06.000Z</Time>
            <Position>
              <LatitudeDegrees>43.3607612550258636474609375</LatitudeDegrees>
              <LongitudeDegrees>-3.1986839510500431060791015625</LongitudeDegrees>
            </Position>
            <AltitudeMeters>-26</AltitudeMeters>
            <DistanceMeters>NAN</DistanceMeters>
          </Trackpoint>
          <Trackpoint>
            <Time>2022-07-12T16:43:07.000Z</Time>
            <Position>
              <LatitudeDegrees>43.3607919327914714813232421875</LatitudeDegrees>
              <LongitudeDegrees>-3.19882585667073726654052734375</LongitudeDegrees>
            </Position>
            <AltitudeMeters>-26.799999237060546875</AltitudeMeters>
            <DistanceMeters>NAN</DistanceMeters>
          </Trackpoint>
          <Trackpoint>
            <Time>2022-07-12T16:43:08.000Z</Time>
            <Position>
              <LatitudeDegrees>43.36081716232001781463623046875</LatitudeDegrees>
              <LongitudeDegrees>-3.19896650500595569610595703125</LongitudeDegrees>
            </Position>
            <AltitudeMeters>-27.200000762939453125</AltitudeMeters>
            <DistanceMeters>NAN</DistanceMeters>
          </Trackpoint>
          <Trackpoint>
            <Time>2022-07-12T16:43:09.000Z</Time>
            <Position>
              <LatitudeDegrees>43.36082403548061847686767578125</LatitudeDegrees>
              <LongitudeDegrees>-3.19910698570311069488525390625</LongitudeDegrees>
            </Position>
            <AltitudeMeters>-28</AltitudeMeters>
            <DistanceMeters>NAN</DistanceMeters>
          </Trackpoint>
          <Trackpoint>
            <Time>2022-07-12T16:43:10.000Z</Time>
            <Position>
              <LatitudeDegrees>43.3607926033437252044677734375</LatitudeDegrees>
              <LongitudeDegrees>-3.19924528710544109344482421875</LongitudeDegrees>
            </Position>
            <AltitudeMeters>-28.6000003814697265625</AltitudeMeters>
            <DistanceMeters>NAN</DistanceMeters>
          </Trackpoint>
          <Trackpoint>
            <Time>2022-07-12T16:43:11.000Z</Time>
            <Position>
              <LatitudeDegrees>43.3607342652976512908935546875</LatitudeDegrees>
              <LongitudeDegrees>-3.19938241504132747650146484375</LongitudeDegrees>
            </Position>
            <AltitudeMeters>-29.3999996185302734375</AltitudeMeters>
            <DistanceMeters>NAN</DistanceMeters>
          </Trackpoint>
          <Trackpoint>
            <Time>2022-07-12T16:43:12.000Z</Time>
            <Position>
              <LatitudeDegrees>43.3606655336916446685791015625</LatitudeDegrees>
              <LongitudeDegrees>-3.1995120830833911895751953125</LongitudeDegrees>
            </Position>
            <AltitudeMeters>-30.200000762939453125</AltitudeMeters>
            <DistanceMeters>NAN</DistanceMeters>
          </Trackpoint>
          <Trackpoint>
            <Time>2022-07-12T16:43:13.000Z</Time>
            <Position>
              <LatitudeDegrees>43.36060174740850925445556640625</LatitudeDegrees>
              <LongitudeDegrees>-3.19960436783730983734130859375</LongitudeDegrees>
            </Position>
            <AltitudeMeters>-30.6000003814697265625</AltitudeMeters>
            <DistanceMeters>NAN</DistanceMeters>
          </Trackpoint>
          <Trackpoint>
            <Time>2022-07-12T16:43:14.000Z</Time>
            <Position>
              <LatitudeDegrees>43.3604965545237064361572265625</LatitudeDegrees>
              <LongitudeDegrees>-3.19971777498722076416015625</LongitudeDegrees>
            </Position>
            <AltitudeMeters>-31</AltitudeMeters>
            <DistanceMeters>NAN</DistanceMeters>
          </Trackpoint>
          <Trackpoint>
            <Time>2022-07-12T16:43:15.000Z</Time>
            <Position>
              <LatitudeDegrees>43.36040443740785121917724609375</LatitudeDegrees>
              <LongitudeDegrees>-3.19979731924831867218017578125</LongitudeDegrees>
            </Position>
            <AltitudeMeters>-31.6000003814697265625</AltitudeMeters>
            <DistanceMeters>NAN</DistanceMeters>
          </Trackpoint>
          <Trackpoint>
            <Time>2022-07-12T16:43:16.000Z</Time>
            <Position>
              <LatitudeDegrees>43.360310979187488555908203125</LatitudeDegrees>
              <LongitudeDegrees>-3.1998646259307861328125</LongitudeDegrees>
            </Position>
            <AltitudeMeters>-32</AltitudeMeters>
            <DistanceMeters>NAN</DistanceMeters>
          </Trackpoint>
          <Trackpoint>
            <Time>2022-07-12T16:43:17.000Z</Time>
            <Position>
              <LatitudeDegrees>43.36021534167230129241943359375</LatitudeDegrees>
              <LongitudeDegrees>-3.19992522709071636199951171875</LongitudeDegrees>
            </Position>
            <AltitudeMeters>-32.59999847412109375</AltitudeMeters>
            <DistanceMeters>NAN</DistanceMeters>
          </Trackpoint>
          <Trackpoint>
            <Time>2022-07-12T16:43:18.000Z</Time>
            <Position>
              <LatitudeDegrees>43.360132612287998199462890625</LatitudeDegrees>
              <LongitudeDegrees>-3.19995917379856109619140625</LongitudeDegrees>
            </Position>
            <AltitudeMeters>-33.40000152587890625</AltitudeMeters>
            <DistanceMeters>NAN</DistanceMeters>
          </Trackpoint>
          <Trackpoint>
            <Time>2022-07-12T16:43:19.000Z</Time>
            <Position>
              <LatitudeDegrees>43.360008895397186279296875</LatitudeDegrees>
              <LongitudeDegrees>-3.20000435225665569305419921875</LongitudeDegrees>
            </Position>
            <AltitudeMeters>-34.59999847412109375</AltitudeMeters>
            <DistanceMeters>NAN</DistanceMeters>
          </Trackpoint>
          <Trackpoint>
            <Time>2022-07-12T16:43:20.000Z</Time>
            <Position>
              <LatitudeDegrees>43.359906971454620361328125</LatitudeDegrees>
              <LongitudeDegrees>-3.20004508830606937408447265625</LongitudeDegrees>
            </Position>
            <AltitudeMeters>-35.40000152587890625</AltitudeMeters>
            <DistanceMeters>NAN</DistanceMeters>
          </Trackpoint>
          <Trackpoint>
            <Time>2022-07-12T16:43:21.000Z</Time>
            <Position>
              <LatitudeDegrees>43.35980714298784732818603515625</LatitudeDegrees>
              <LongitudeDegrees>-3.20009135641157627105712890625</LongitudeDegrees>
            </Position>
            <AltitudeMeters>-36.200000762939453125</AltitudeMeters>
            <DistanceMeters>NAN</DistanceMeters>
          </Trackpoint>
          <Trackpoint>
            <Time>2022-07-12T16:43:22.000Z</Time>
            <Position>
              <LatitudeDegrees>43.3597197197377681732177734375</LatitudeDegrees>
              <LongitudeDegrees>-3.20014961063861846923828125</LongitudeDegrees>
            </Position>
            <AltitudeMeters>-36.799999237060546875</AltitudeMeters>
            <DistanceMeters>NAN</DistanceMeters>
          </Trackpoint>
          <Trackpoint>
            <Time>2022-07-12T16:43:23.000Z</Time>
            <Position>
              <LatitudeDegrees>43.35965593345463275909423828125</LatitudeDegrees>
              <LongitudeDegrees>-3.20019931532442569732666015625</LongitudeDegrees>
            </Position>
            <AltitudeMeters>-37.200000762939453125</AltitudeMeters>
            <DistanceMeters>NAN</DistanceMeters>
          </Trackpoint>
          <Trackpoint>
            <Time>2022-07-12T16:43:24.000Z</Time>
            <Position>
              <LatitudeDegrees>43.359563313424587249755859375</LatitudeDegrees>
              <LongitudeDegrees>-3.20027835667133331298828125</LongitudeDegrees>
            </Position>
            <AltitudeMeters>-37.799999237060546875</AltitudeMeters>
            <DistanceMeters>NAN</DistanceMeters>
          </Trackpoint>
          <Trackpoint>
            <Time>2022-07-12T16:43:26.000Z</Time>
            <Position>
              <LatitudeDegrees>43.35940732620656490325927734375</LatitudeDegrees>
              <LongitudeDegrees>-3.2003998942673206329345703125</LongitudeDegrees>
            </Position>
            <AltitudeMeters>-39</AltitudeMeters>
            <DistanceMeters>NAN</DistanceMeters>
          </Trackpoint>
          <Trackpoint>
            <Time>2022-07-12T16:43:29.000Z</Time>
            <Position>
              <LatitudeDegrees>43.35916911251842975616455078125</LatitudeDegrees>
              <LongitudeDegrees>-3.20058521814644336700439453125</LongitudeDegrees>
            </Position>
            <AltitudeMeters>-40.200000762939453125</AltitudeMeters>
            <DistanceMeters>NAN</DistanceMeters>
          </Trackpoint>
          <Trackpoint>
            <Time>2022-07-12T16:43:32.000Z</Time>
            <Position>
              <LatitudeDegrees>43.35891447030007839202880859375</LatitudeDegrees>
              <LongitudeDegrees>-3.2007640041410923004150390625</LongitudeDegrees>
            </Position>
            <AltitudeMeters>-41.200000762939453125</AltitudeMeters>
            <DistanceMeters>NAN</DistanceMeters>
          </Trackpoint>
          <Trackpoint>
            <Time>2022-07-12T16:43:33.000Z</Time>
            <Position>
              <LatitudeDegrees>43.35884523577988147735595703125</LatitudeDegrees>
              <LongitudeDegrees>-3.2008347474038600921630859375</LongitudeDegrees>
            </Position>
            <AltitudeMeters>-41.59999847412109375</AltitudeMeters>
            <DistanceMeters>NAN</DistanceMeters>
          </Trackpoint>
          <Trackpoint>
            <Time>2022-07-12T16:43:34.000Z</Time>
            <Position>
              <LatitudeDegrees>43.35879762656986713409423828125</LatitudeDegrees>
              <LongitudeDegrees>-3.2009308040142059326171875</LongitudeDegrees>
            </Position>
            <AltitudeMeters>-41.799999237060546875</AltitudeMeters>
            <DistanceMeters>NAN</DistanceMeters>
          </Trackpoint>
          <Trackpoint>
            <Time>2022-07-12T16:43:35.000Z</Time>
            <Position>
              <LatitudeDegrees>43.35877935402095317840576171875</LatitudeDegrees>
              <LongitudeDegrees>-3.20104152895510196685791015625</LongitudeDegrees>
            </Position>
            <AltitudeMeters>-42</AltitudeMeters>
            <DistanceMeters>NAN</DistanceMeters>
          </Trackpoint>
          <Trackpoint>
            <Time>2022-07-12T16:43:36.000Z</Time>
            <Position>
              <LatitudeDegrees>43.35877717472612857818603515625</LatitudeDegrees>
              <LongitudeDegrees>-3.20115468464791774749755859375</LongitudeDegrees>
            </Position>
            <AltitudeMeters>-42.200000762939453125</AltitudeMeters>
            <DistanceMeters>NAN</DistanceMeters>
          </Trackpoint>
          <Trackpoint>
            <Time>2022-07-12T16:43:37.000Z</Time>
            <Position>
              <LatitudeDegrees>43.3587873168289661407470703125</LatitudeDegrees>
              <LongitudeDegrees>-3.20126616396009922027587890625</LongitudeDegrees>
            </Position>
            <AltitudeMeters>-42.200000762939453125</AltitudeMeters>
            <DistanceMeters>NAN</DistanceMeters>
          </Trackpoint>
          <Trackpoint>
            <Time>2022-07-12T16:43:39.000Z</Time>
            <Position>
              <LatitudeDegrees>43.35882545448839664459228515625</LatitudeDegrees>
              <LongitudeDegrees>-3.20147059857845306396484375</LongitudeDegrees>
            </Position>
            <AltitudeMeters>-42.40000152587890625</AltitudeMeters>
            <DistanceMeters>NAN</DistanceMeters>
          </Trackpoint>
          <Trackpoint>
            <Time>2022-07-12T16:43:43.000Z</Time>
            <Position>
              <LatitudeDegrees>43.358947746455669403076171875</LatitudeDegrees>
              <LongitudeDegrees>-3.20183915086090564727783203125</LongitudeDegrees>
            </Position>
            <AltitudeMeters>-43.40000152587890625</AltitudeMeters>
            <DistanceMeters>NAN</DistanceMeters>
          </Trackpoint>
          <Trackpoint>
            <Time>2022-07-12T16:43:44.000Z</Time>
            <Position>
              <LatitudeDegrees>43.35899225436151027679443359375</LatitudeDegrees>
              <LongitudeDegrees>-3.201950378715991973876953125</LongitudeDegrees>
            </Position>
            <AltitudeMeters>-43.59999847412109375</AltitudeMeters>
            <DistanceMeters>NAN</DistanceMeters>
          </Trackpoint>
          <Trackpoint>
            <Time>2022-07-12T16:43:47.000Z</Time>
            <Position>
              <LatitudeDegrees>43.3590951003134250640869140625</LatitudeDegrees>
              <LongitudeDegrees>-3.20218808948993682861328125</LongitudeDegrees>
            </Position>
            <AltitudeMeters>-44</AltitudeMeters>
            <DistanceMeters>NAN</DistanceMeters>
          </Trackpoint>
          <Trackpoint>
            <Time>2022-07-12T16:43:48.000Z</Time>
            <Position>
              <LatitudeDegrees>43.3591440506279468536376953125</LatitudeDegrees>
              <LongitudeDegrees>-3.20226562209427356719970703125</LongitudeDegrees>
            </Position>
            <AltitudeMeters>-44.40000152587890625</AltitudeMeters>
            <DistanceMeters>NAN</DistanceMeters>
          </Trackpoint>
          <Trackpoint>
            <Time>2022-07-12T16:43:49.000Z</Time>
            <Position>
              <LatitudeDegrees>43.35919643752276897430419921875</LatitudeDegrees>
              <LongitudeDegrees>-3.20234407670795917510986328125</LongitudeDegrees>
            </Position>
            <AltitudeMeters>-45</AltitudeMeters>
            <DistanceMeters>NAN</DistanceMeters>
          </Trackpoint>
          <Trackpoint>
            <Time>2022-07-12T16:43:52.000Z</Time>
            <Position>
              <LatitudeDegrees>43.35934496484696865081787109375</LatitudeDegrees>
              <LongitudeDegrees>-3.20253652520477771759033203125</LongitudeDegrees>
            </Position>
            <AltitudeMeters>-45.40000152587890625</AltitudeMeters>
            <DistanceMeters>NAN</DistanceMeters>
          </Trackpoint>
          <Trackpoint>
            <Time>2022-07-12T16:43:53.000Z</Time>
            <Position>
              <LatitudeDegrees>43.3593995310366153717041015625</LatitudeDegrees>
              <LongitudeDegrees>-3.2025758363306522369384765625</LongitudeDegrees>
            </Position>
            <AltitudeMeters>-45.59999847412109375</AltitudeMeters>
            <DistanceMeters>NAN</DistanceMeters>
          </Trackpoint>
          <Trackpoint>
            <Time>2022-07-12T16:43:54.000Z</Time>
            <Position>
              <LatitudeDegrees>43.35945107974112033843994140625</LatitudeDegrees>
              <LongitudeDegrees>-3.20259804837405681610107421875</LongitudeDegrees>
            </Position>
            <AltitudeMeters>-45.59999847412109375</AltitudeMeters>
            <DistanceMeters>NAN</DistanceMeters>
          </Trackpoint>
          <Trackpoint>
            <Time>2022-07-12T16:43:56.000Z</Time>
            <Position>
              <LatitudeDegrees>43.3595443703234195709228515625</LatitudeDegrees>
              <LongitudeDegrees>-3.20261456072330474853515625</LongitudeDegrees>
            </Position>
            <AltitudeMeters>-45.40000152587890625</AltitudeMeters>
            <DistanceMeters>NAN</DistanceMeters>
          </Trackpoint>
          <Trackpoint>
            <Time>2022-07-12T16:44:02.000Z</Time>
            <Position>
              <LatitudeDegrees>43.35977294482290744781494140625</LatitudeDegrees>
              <LongitudeDegrees>-3.20260056294500827789306640625</LongitudeDegrees>
            </Position>
            <AltitudeMeters>-45</AltitudeMeters>
            <DistanceMeters>NAN</DistanceMeters>
          </Trackpoint>
          <Trackpoint>
            <Time>2022-07-12T16:44:08.000Z</Time>
            <Position>
              <LatitudeDegrees>43.359948210418224334716796875</LatitudeDegrees>
              <LongitudeDegrees>-3.20256535895168781280517578125</LongitudeDegrees>
            </Position>
            <AltitudeMeters>-44.799999237060546875</AltitudeMeters>
            <DistanceMeters>NAN</DistanceMeters>
          </Trackpoint>
          <Trackpoint>
            <Time>2022-07-12T16:44:14.000Z</Time>
            <Position>
              <LatitudeDegrees>43.3601015992462635040283203125</LatitudeDegrees>
              <LongitudeDegrees>-3.20255932398140430450439453125</LongitudeDegrees>
            </Position>
            <AltitudeMeters>-44.200000762939453125</AltitudeMeters>
            <DistanceMeters>NAN</DistanceMeters>
          </Trackpoint>
          <Trackpoint>
            <Time>2022-07-12T16:44:16.000Z</Time>
            <Position>
              <LatitudeDegrees>43.360139988362789154052734375</LatitudeDegrees>
              <LongitudeDegrees>-3.2025557197630405426025390625</LongitudeDegrees>
            </Position>
            <AltitudeMeters>-44</AltitudeMeters>
            <DistanceMeters>NAN</DistanceMeters>
          </Trackpoint>
          <Trackpoint>
            <Time>2022-07-12T16:44:24.000Z</Time>
            <Position>
              <LatitudeDegrees>43.360320031642913818359375</LatitudeDegrees>
              <LongitudeDegrees>-3.2025466673076152801513671875</LongitudeDegrees>
            </Position>
            <AltitudeMeters>-43.40000152587890625</AltitudeMeters>
            <DistanceMeters>NAN</DistanceMeters>
          </Trackpoint>
          <Trackpoint>
            <Time>2022-07-12T16:44:25.000Z</Time>
            <Position>
              <LatitudeDegrees>43.3603386394679546356201171875</LatitudeDegrees>
              <LongitudeDegrees>-3.20254541002213954925537109375</LongitudeDegrees>
            </Position>
            <AltitudeMeters>-43.200000762939453125</AltitudeMeters>
            <DistanceMeters>NAN</DistanceMeters>
          </Trackpoint>
          <Trackpoint>
            <Time>2022-07-12T16:44:30.000Z</Time>
            <Position>
              <LatitudeDegrees>43.3604455925524234771728515625</LatitudeDegrees>
              <LongitudeDegrees>-3.2025268860161304473876953125</LongitudeDegrees>
            </Position>
            <AltitudeMeters>-43</AltitudeMeters>
            <DistanceMeters>NAN</DistanceMeters>
          </Trackpoint>
          <Trackpoint>
            <Time>2022-07-12T16:44:35.000Z</Time>
            <Position>
              <LatitudeDegrees>43.360547013580799102783203125</LatitudeDegrees>
              <LongitudeDegrees>-3.2025305740535259246826171875</LongitudeDegrees>
            </Position>
            <AltitudeMeters>-42.59999847412109375</AltitudeMeters>
            <DistanceMeters>NAN</DistanceMeters>
          </Trackpoint>
          <Trackpoint>
            <Time>2022-07-12T16:44:38.000Z</Time>
            <Position>
              <LatitudeDegrees>43.3606025017797946929931640625</LatitudeDegrees>
              <LongitudeDegrees>-3.20252646692097187042236328125</LongitudeDegrees>
            </Position>
            <AltitudeMeters>-42.200000762939453125</AltitudeMeters>
            <DistanceMeters>NAN</DistanceMeters>
          </Trackpoint>
          <Trackpoint>
            <Time>2022-07-12T16:44:41.000Z</Time>
            <Position>
              <LatitudeDegrees>43.36065505631268024444580078125</LatitudeDegrees>
              <LongitudeDegrees>-3.20252177305519580841064453125</LongitudeDegrees>
            </Position>
            <AltitudeMeters>-42</AltitudeMeters>
            <DistanceMeters>NAN</DistanceMeters>
          </Trackpoint>
          <Trackpoint>
            <Time>2022-07-12T16:44:42.000Z</Time>
            <Position>
              <LatitudeDegrees>43.36066779680550098419189453125</LatitudeDegrees>
              <LongitudeDegrees>-3.20251129567623138427734375</LongitudeDegrees>
            </Position>
            <AltitudeMeters>-41.799999237060546875</AltitudeMeters>
            <DistanceMeters>NAN</DistanceMeters>
          </Trackpoint>
          <Trackpoint>
            <Time>2022-07-12T16:44:44.000Z</Time>
            <Position>
              <LatitudeDegrees>43.36069880984723567962646484375</LatitudeDegrees>
              <LongitudeDegrees>-3.20250031538307666778564453125</LongitudeDegrees>
            </Position>
            <AltitudeMeters>-41.59999847412109375</AltitudeMeters>
            <DistanceMeters>NAN</DistanceMeters>
          </Trackpoint>
          <Trackpoint>
            <Time>2022-07-12T16:44:45.000Z</Time>
            <Position>
              <LatitudeDegrees>43.3607124723494052886962890625</LatitudeDegrees>
              <LongitudeDegrees>-3.202491514384746551513671875</LongitudeDegrees>
            </Position>
            <AltitudeMeters>-41.59999847412109375</AltitudeMeters>
            <DistanceMeters>NAN</DistanceMeters>
          </Trackpoint>
          <Trackpoint>
            <Time>2022-07-12T16:44:47.000Z</Time>
            <Position>
              <LatitudeDegrees>43.36074222810566425323486328125</LatitudeDegrees>
              <LongitudeDegrees>-3.202466033399105072021484375</LongitudeDegrees>
            </Position>
            <AltitudeMeters>-41.200000762939453125</AltitudeMeters>
            <DistanceMeters>NAN</DistanceMeters>
          </Trackpoint>
          <Trackpoint>
            <Time>2022-07-12T16:44:48.000Z</Time>
            <Position>
              <LatitudeDegrees>43.36076016537845134735107421875</LatitudeDegrees>
              <LongitudeDegrees>-3.2024601660668849945068359375</LongitudeDegrees>
            </Position>
            <AltitudeMeters>-41.200000762939453125</AltitudeMeters>
            <DistanceMeters>NAN</DistanceMeters>
          </Trackpoint>
          <Trackpoint>
            <Time>2022-07-12T16:44:50.000Z</Time>
            <Position>
              <LatitudeDegrees>43.36078883148729801177978515625</LatitudeDegrees>
              <LongitudeDegrees>-3.20243728347122669219970703125</LongitudeDegrees>
            </Position>
            <AltitudeMeters>-41</AltitudeMeters>
            <DistanceMeters>NAN</DistanceMeters>
          </Trackpoint>
          <Trackpoint>
            <Time>2022-07-12T16:44:52.000Z</Time>
            <Position>
              <LatitudeDegrees>43.36081632412970066070556640625</LatitudeDegrees>
              <LongitudeDegrees>-3.20240291766822338104248046875</LongitudeDegrees>
            </Position>
            <AltitudeMeters>-40.799999237060546875</AltitudeMeters>
            <DistanceMeters>NAN</DistanceMeters>
          </Trackpoint>
          <Trackpoint>
            <Time>2022-07-12T16:44:53.000Z</Time>
            <Position>
              <LatitudeDegrees>43.360829651355743408203125</LatitudeDegrees>
              <LongitudeDegrees>-3.20238665677607059478759765625</LongitudeDegrees>
            </Position>
            <AltitudeMeters>-40.59999847412109375</AltitudeMeters>
            <DistanceMeters>NAN</DistanceMeters>
          </Trackpoint>
          <Trackpoint>
            <Time>2022-07-12T16:44:57.000Z</Time>
            <Position>
              <LatitudeDegrees>43.3608811162412166595458984375</LatitudeDegrees>
              <LongitudeDegrees>-3.20232848636806011199951171875</LongitudeDegrees>
            </Position>
            <AltitudeMeters>-40.200000762939453125</AltitudeMeters>
            <DistanceMeters>NAN</DistanceMeters>
          </Trackpoint>
          <Trackpoint>
            <Time>2022-07-12T16:44:58.000Z</Time>
            <Position>
              <LatitudeDegrees>43.3608921803534030914306640625</LatitudeDegrees>
              <LongitudeDegrees>-3.20231683552265167236328125</LongitudeDegrees>
            </Position>
            <AltitudeMeters>-40.200000762939453125</AltitudeMeters>
            <DistanceMeters>NAN</DistanceMeters>
          </Trackpoint>
          <Trackpoint>
            <Time>2022-07-12T16:45:01.000Z</Time>
            <Position>
              <LatitudeDegrees>43.36092579178512096405029296875</LatitudeDegrees>
              <LongitudeDegrees>-3.20225757546722888946533203125</LongitudeDegrees>
            </Position>
            <AltitudeMeters>-40</AltitudeMeters>
            <DistanceMeters>NAN</DistanceMeters>
          </Trackpoint>
          <Trackpoint>
            <Time>2022-07-12T16:45:06.000Z</Time>
            <Position>
              <LatitudeDegrees>43.36097725667059421539306640625</LatitudeDegrees>
              <LongitudeDegrees>-3.20216537453234195709228515625</LongitudeDegrees>
            </Position>
            <AltitudeMeters>-39.799999237060546875</AltitudeMeters>
            <DistanceMeters>NAN</DistanceMeters>
          </Trackpoint>
          <Trackpoint>
            <Time>2022-07-12T16:45:14.000Z</Time>
            <Position>
              <LatitudeDegrees>43.36106459610164165496826171875</LatitudeDegrees>
              <LongitudeDegrees>-3.20201718248426914215087890625</LongitudeDegrees>
            </Position>
            <AltitudeMeters>-39.200000762939453125</AltitudeMeters>
            <DistanceMeters>NAN</DistanceMeters>
          </Trackpoint>
          <Trackpoint>
            <Time>2022-07-12T16:45:22.000Z</Time>
            <Position>
              <LatitudeDegrees>43.36112997494637966156005859375</LatitudeDegrees>
              <LongitudeDegrees>-3.20187418721616268157958984375</LongitudeDegrees>
            </Position>
            <AltitudeMeters>-38.59999847412109375</AltitudeMeters>
            <DistanceMeters>NAN</DistanceMeters>
          </Trackpoint>
          <Trackpoint>
            <Time>2022-07-12T16:45:24.000Z</Time>
            <Position>
              <LatitudeDegrees>43.36114774458110332489013671875</LatitudeDegrees>
              <LongitudeDegrees>-3.20184149779379367828369140625</LongitudeDegrees>
            </Position>
            <AltitudeMeters>-38.59999847412109375</AltitudeMeters>
            <DistanceMeters>NAN</DistanceMeters>
          </Trackpoint>
          <Trackpoint>
            <Time>2022-07-12T16:45:31.000Z</Time>
            <Position>
              <LatitudeDegrees>43.36119518615305423736572265625</LatitudeDegrees>
              <LongitudeDegrees>-3.2017037831246852874755859375</LongitudeDegrees>
            </Position>
            <AltitudeMeters>-38</AltitudeMeters>
            <DistanceMeters>NAN</DistanceMeters>
          </Trackpoint>
          <Trackpoint>
            <Time>2022-07-12T16:45:34.000Z</Time>
            <Position>
              <LatitudeDegrees>43.3612066693603992462158203125</LatitudeDegrees>
              <LongitudeDegrees>-3.20163899101316928863525390625</LongitudeDegrees>
            </Position>
            <AltitudeMeters>-38</AltitudeMeters>
            <DistanceMeters>NAN</DistanceMeters>
          </Trackpoint>
          <Trackpoint>
            <Time>2022-07-12T16:45:41.000Z</Time>
            <Position>
              <LatitudeDegrees>43.361269198358058929443359375</LatitudeDegrees>
              <LongitudeDegrees>-3.2015002705156803131103515625</LongitudeDegrees>
            </Position>
            <AltitudeMeters>-37.40000152587890625</AltitudeMeters>
            <DistanceMeters>NAN</DistanceMeters>
          </Trackpoint>
          <Trackpoint>
            <Time>2022-07-12T16:45:47.000Z</Time>
            <Position>
              <LatitudeDegrees>43.36130498908460140228271484375</LatitudeDegrees>
              <LongitudeDegrees>-3.20138719864189624786376953125</LongitudeDegrees>
            </Position>
            <AltitudeMeters>-37</AltitudeMeters>
            <DistanceMeters>NAN</DistanceMeters>
          </Trackpoint>
          <Trackpoint>
            <Time>2022-07-12T16:45:52.000Z</Time>
            <Position>
              <LatitudeDegrees>43.361323177814483642578125</LatitudeDegrees>
              <LongitudeDegrees>-3.2012903876602649688720703125</LongitudeDegrees>
            </Position>
            <AltitudeMeters>-36.59999847412109375</AltitudeMeters>
            <DistanceMeters>NAN</DistanceMeters>
          </Trackpoint>
          <Trackpoint>
            <Time>2022-07-12T16:45:58.000Z</Time>
            <Position>
              <LatitudeDegrees>43.3613888919353485107421875</LatitudeDegrees>
              <LongitudeDegrees>-3.20120799355208873748779296875</LongitudeDegrees>
            </Position>
            <AltitudeMeters>-36.200000762939453125</AltitudeMeters>
            <DistanceMeters>NAN</DistanceMeters>
          </Trackpoint>
          <Trackpoint>
            <Time>2022-07-12T16:45:59.000Z</Time>
            <Position>
              <LatitudeDegrees>43.36140003986656665802001953125</LatitudeDegrees>
              <LongitudeDegrees>-3.20119273848831653594970703125</LongitudeDegrees>
            </Position>
            <AltitudeMeters>-36.200000762939453125</AltitudeMeters>
            <DistanceMeters>NAN</DistanceMeters>
          </Trackpoint>
          <Trackpoint>
            <Time>2022-07-12T16:46:03.000Z</Time>
            <Position>
              <LatitudeDegrees>43.3614333160221576690673828125</LatitudeDegrees>
              <LongitudeDegrees>-3.20113641209900379180908203125</LongitudeDegrees>
            </Position>
            <AltitudeMeters>-36</AltitudeMeters>
            <DistanceMeters>NAN</DistanceMeters>
          </Trackpoint>
          <Trackpoint>
            <Time>2022-07-12T16:46:07.000Z</Time>
            <Position>
              <LatitudeDegrees>43.36143993772566318511962890625</LatitudeDegrees>
              <LongitudeDegrees>-3.20112149231135845184326171875</LongitudeDegrees>
            </Position>
            <AltitudeMeters>-36</AltitudeMeters>
            <DistanceMeters>NAN</DistanceMeters>
          </Trackpoint>
          <Trackpoint>
            <Time>2022-07-12T16:52:22.000Z</Time>
            <Position>
              <LatitudeDegrees>43.36140691302716732025146484375</LatitudeDegrees>
              <LongitudeDegrees>-3.201133646070957183837890625</LongitudeDegrees>
            </Position>
            <AltitudeMeters>-37</AltitudeMeters>
            <DistanceMeters>NAN</DistanceMeters>
          </Trackpoint>
          <Trackpoint>
            <Time>2022-07-12T16:52:23.000Z</Time>
            <Position>
              <LatitudeDegrees>43.361405320465564727783203125</LatitudeDegrees>
              <LongitudeDegrees>-3.20110472850501537322998046875</LongitudeDegrees>
            </Position>
            <AltitudeMeters>-37</AltitudeMeters>
            <DistanceMeters>NAN</DistanceMeters>
          </Trackpoint>
          <Trackpoint>
            <Time>2022-07-12T16:52:25.000Z</Time>
            <Position>
              <LatitudeDegrees>43.36140775121748447418212890625</LatitudeDegrees>
              <LongitudeDegrees>-3.20103633217513561248779296875</LongitudeDegrees>
            </Position>
            <AltitudeMeters>-35.200000762939453125</AltitudeMeters>
            <DistanceMeters>NAN</DistanceMeters>
          </Trackpoint>
          <Trackpoint>
            <Time>2022-07-12T16:52:26.000Z</Time>
            <Position>
              <LatitudeDegrees>43.3614091761410236358642578125</LatitudeDegrees>
              <LongitudeDegrees>-3.2010060735046863555908203125</LongitudeDegrees>
            </Position>
            <AltitudeMeters>-34</AltitudeMeters>
            <DistanceMeters>NAN</DistanceMeters>
          </Trackpoint>
          <Trackpoint>
            <Time>2022-07-12T16:52:28.000Z</Time>
            <Position>
              <LatitudeDegrees>43.36141395382583141326904296875</LatitudeDegrees>
              <LongitudeDegrees>-3.20093357004225254058837890625</LongitudeDegrees>
            </Position>
            <AltitudeMeters>-32.799999237060546875</AltitudeMeters>
            <DistanceMeters>NAN</DistanceMeters>
          </Trackpoint>
          <Trackpoint>
            <Time>2022-07-12T16:52:32.000Z</Time>
            <Position>
              <LatitudeDegrees>43.36143826134502887725830078125</LatitudeDegrees>
              <LongitudeDegrees>-3.2008062489330768585205078125</LongitudeDegrees>
            </Position>
            <AltitudeMeters>-32.200000762939453125</AltitudeMeters>
            <DistanceMeters>NAN</DistanceMeters>
          </Trackpoint>
          <Trackpoint>
            <Time>2022-07-12T16:52:36.000Z</Time>
            <Position>
              <LatitudeDegrees>43.3614598028361797332763671875</LatitudeDegrees>
              <LongitudeDegrees>-3.20069183595478534698486328125</LongitudeDegrees>
            </Position>
            <AltitudeMeters>-31.799999237060546875</AltitudeMeters>
            <DistanceMeters>NAN</DistanceMeters>
          </Trackpoint>
          <Trackpoint>
            <Time>2022-07-12T16:52:37.000Z</Time>
            <Position>
              <LatitudeDegrees>43.36146390996873378753662109375</LatitudeDegrees>
              <LongitudeDegrees>-3.20066484622657299041748046875</LongitudeDegrees>
            </Position>
            <AltitudeMeters>-31.799999237060546875</AltitudeMeters>
            <DistanceMeters>NAN</DistanceMeters>
          </Trackpoint>
          <Trackpoint>
            <Time>2022-07-12T16:52:43.000Z</Time>
            <Position>
              <LatitudeDegrees>43.36149961687624454498291015625</LatitudeDegrees>
              <LongitudeDegrees>-3.20049301721155643463134765625</LongitudeDegrees>
            </Position>
            <AltitudeMeters>-31.200000762939453125</AltitudeMeters>
            <DistanceMeters>NAN</DistanceMeters>
          </Trackpoint>
          <Trackpoint>
            <Time>2022-07-12T16:52:48.000Z</Time>
            <Position>
              <LatitudeDegrees>43.3615362457931041717529296875</LatitudeDegrees>
              <LongitudeDegrees>-3.20038019679486751556396484375</LongitudeDegrees>
            </Position>
            <AltitudeMeters>-30.799999237060546875</AltitudeMeters>
            <DistanceMeters>NAN</DistanceMeters>
          </Trackpoint>
          <Trackpoint>
            <Time>2022-07-12T16:52:53.000Z</Time>
            <Position>
              <LatitudeDegrees>43.36156281642615795135498046875</LatitudeDegrees>
              <LongitudeDegrees>-3.20025748573243618011474609375</LongitudeDegrees>
            </Position>
            <AltitudeMeters>-30.3999996185302734375</AltitudeMeters>
            <DistanceMeters>NAN</DistanceMeters>
          </Trackpoint>
          <Trackpoint>
            <Time>2022-07-12T16:52:57.000Z</Time>
            <Position>
              <LatitudeDegrees>43.36158544756472110748291015625</LatitudeDegrees>
              <LongitudeDegrees>-3.2001591660082340240478515625</LongitudeDegrees>
            </Position>
            <AltitudeMeters>-29.799999237060546875</AltitudeMeters>
            <DistanceMeters>NAN</DistanceMeters>
          </Trackpoint>
          <Trackpoint>
            <Time>2022-07-12T16:53:01.000Z</Time>
            <Position>
              <LatitudeDegrees>43.36158963851630687713623046875</LatitudeDegrees>
              <LongitudeDegrees>-3.2000532187521457672119140625</LongitudeDegrees>
            </Position>
            <AltitudeMeters>-29.3999996185302734375</AltitudeMeters>
            <DistanceMeters>NAN</DistanceMeters>
          </Trackpoint>
          <Trackpoint>
            <Time>2022-07-12T16:53:02.000Z</Time>
            <Position>
              <LatitudeDegrees>43.36158930324018001556396484375</LatitudeDegrees>
              <LongitudeDegrees>-3.20002715103328227996826171875</LongitudeDegrees>
            </Position>
            <AltitudeMeters>-29.200000762939453125</AltitudeMeters>
            <DistanceMeters>NAN</DistanceMeters>
          </Trackpoint>
          <Trackpoint>
            <Time>2022-07-12T16:53:07.000Z</Time>
            <Position>
              <LatitudeDegrees>43.3616053126752376556396484375</LatitudeDegrees>
              <LongitudeDegrees>-3.19989371113479137420654296875</LongitudeDegrees>
            </Position>
            <AltitudeMeters>-28.6000003814697265625</AltitudeMeters>
            <DistanceMeters>NAN</DistanceMeters>
          </Trackpoint>
          <Trackpoint>
            <Time>2022-07-12T16:53:10.000Z</Time>
            <Position>
              <LatitudeDegrees>43.36162031628191471099853515625</LatitudeDegrees>
              <LongitudeDegrees>-3.1998150050640106201171875</LongitudeDegrees>
            </Position>
            <AltitudeMeters>-28.3999996185302734375</AltitudeMeters>
            <DistanceMeters>NAN</DistanceMeters>
          </Trackpoint>
          <Trackpoint>
            <Time>2022-07-12T16:53:12.000Z</Time>
            <Position>
              <LatitudeDegrees>43.361634649336338043212890625</LatitudeDegrees>
              <LongitudeDegrees>-3.1997749395668506622314453125</LongitudeDegrees>
            </Position>
            <AltitudeMeters>-28.200000762939453125</AltitudeMeters>
            <DistanceMeters>NAN</DistanceMeters>
          </Trackpoint>
          <Trackpoint>
            <Time>2022-07-12T16:53:15.000Z</Time>
            <Position>
              <LatitudeDegrees>43.36165233515202999114990234375</LatitudeDegrees>
              <LongitudeDegrees>-3.19969070143997669219970703125</LongitudeDegrees>
            </Position>
            <AltitudeMeters>-28</AltitudeMeters>
            <DistanceMeters>NAN</DistanceMeters>
          </Trackpoint>
          <Trackpoint>
            <Time>2022-07-12T16:53:18.000Z</Time>
            <Position>
              <LatitudeDegrees>43.3616760559380054473876953125</LatitudeDegrees>
              <LongitudeDegrees>-3.19961945526301860809326171875</LongitudeDegrees>
            </Position>
            <AltitudeMeters>-27.6000003814697265625</AltitudeMeters>
            <DistanceMeters>NAN</DistanceMeters>
          </Trackpoint>
          <Trackpoint>
            <Time>2022-07-12T16:53:25.000Z</Time>
            <Position>
              <LatitudeDegrees>43.3617536723613739013671875</LatitudeDegrees>
              <LongitudeDegrees>-3.19946170784533023834228515625</LongitudeDegrees>
            </Position>
            <AltitudeMeters>-27</AltitudeMeters>
            <DistanceMeters>NAN</DistanceMeters>
          </Trackpoint>
          <Trackpoint>
            <Time>2022-07-12T16:53:27.000Z</Time>
            <Position>
              <LatitudeDegrees>43.361778818070888519287109375</LatitudeDegrees>
              <LongitudeDegrees>-3.19941778667271137237548828125</LongitudeDegrees>
            </Position>
            <AltitudeMeters>-26.799999237060546875</AltitudeMeters>
            <DistanceMeters>NAN</DistanceMeters>
          </Trackpoint>
          <Trackpoint>
            <Time>2022-07-12T16:53:30.000Z</Time>
            <Position>
              <LatitudeDegrees>43.36181242950260639190673828125</LatitudeDegrees>
              <LongitudeDegrees>-3.1993451155722141265869140625</LongitudeDegrees>
            </Position>
            <AltitudeMeters>-26.3999996185302734375</AltitudeMeters>
            <DistanceMeters>NAN</DistanceMeters>
          </Trackpoint>
          <Trackpoint>
            <Time>2022-07-12T16:53:35.000Z</Time>
            <Position>
              <LatitudeDegrees>43.36188686080276966094970703125</LatitudeDegrees>
              <LongitudeDegrees>-3.1992395035922527313232421875</LongitudeDegrees>
            </Position>
            <AltitudeMeters>-26</AltitudeMeters>
            <DistanceMeters>NAN</DistanceMeters>
          </Trackpoint>
          <Trackpoint>
            <Time>2022-07-12T16:53:37.000Z</Time>
            <Position>
              <LatitudeDegrees>43.36191988550126552581787109375</LatitudeDegrees>
              <LongitudeDegrees>-3.19920823909342288970947265625</LongitudeDegrees>
            </Position>
            <AltitudeMeters>-25.6000003814697265625</AltitudeMeters>
            <DistanceMeters>NAN</DistanceMeters>
          </Trackpoint>
          <Trackpoint>
            <Time>2022-07-12T16:53:40.000Z</Time>
            <Position>
              <LatitudeDegrees>43.36198040284216403961181640625</LatitudeDegrees>
              <LongitudeDegrees>-3.19916658103466033935546875</LongitudeDegrees>
            </Position>
            <AltitudeMeters>-25.3999996185302734375</AltitudeMeters>
            <DistanceMeters>NAN</DistanceMeters>
          </Trackpoint>
          <Trackpoint>
            <Time>2022-07-12T16:53:44.000Z</Time>
            <Position>
              <LatitudeDegrees>43.362061791121959686279296875</LatitudeDegrees>
              <LongitudeDegrees>-3.19913933984935283660888671875</LongitudeDegrees>
            </Position>
            <AltitudeMeters>-25</AltitudeMeters>
            <DistanceMeters>NAN</DistanceMeters>
          </Trackpoint>
          <Trackpoint>
            <Time>2022-07-12T16:53:51.000Z</Time>
            <Position>
              <LatitudeDegrees>43.36223236285150051116943359375</LatitudeDegrees>
              <LongitudeDegrees>-3.19914110004901885986328125</LongitudeDegrees>
            </Position>
            <AltitudeMeters>-24.3999996185302734375</AltitudeMeters>
            <DistanceMeters>NAN</DistanceMeters>
          </Trackpoint>
          <Trackpoint>
            <Time>2022-07-12T16:54:01.000Z</Time>
            <Position>
              <LatitudeDegrees>43.36244828067719936370849609375</LatitudeDegrees>
              <LongitudeDegrees>-3.19913548417389392852783203125</LongitudeDegrees>
            </Position>
            <AltitudeMeters>-23.799999237060546875</AltitudeMeters>
            <DistanceMeters>NAN</DistanceMeters>
          </Trackpoint>
          <Trackpoint>
            <Time>2022-07-12T16:54:06.000Z</Time>
            <Position>
              <LatitudeDegrees>43.36253662593662738800048828125</LatitudeDegrees>
              <LongitudeDegrees>-3.1990892998874187469482421875</LongitudeDegrees>
            </Position>
            <AltitudeMeters>-23.200000762939453125</AltitudeMeters>
            <DistanceMeters>NAN</DistanceMeters>
          </Trackpoint>
          <Trackpoint>
            <Time>2022-07-12T16:54:09.000Z</Time>
            <Position>
              <LatitudeDegrees>43.36258725263178348541259765625</LatitudeDegrees>
              <LongitudeDegrees>-3.19905652664601802825927734375</LongitudeDegrees>
            </Position>
            <AltitudeMeters>-22.799999237060546875</AltitudeMeters>
            <DistanceMeters>NAN</DistanceMeters>
          </Trackpoint>
          <Trackpoint>
            <Time>2022-07-12T16:54:13.000Z</Time>
            <Position>
              <LatitudeDegrees>43.3626382984220981597900390625</LatitudeDegrees>
              <LongitudeDegrees>-3.1989969313144683837890625</LongitudeDegrees>
            </Position>
            <AltitudeMeters>-22</AltitudeMeters>
            <DistanceMeters>NAN</DistanceMeters>
          </Trackpoint>
          <Trackpoint>
            <Time>2022-07-12T16:54:16.000Z</Time>
            <Position>
              <LatitudeDegrees>43.36267568171024322509765625</LatitudeDegrees>
              <LongitudeDegrees>-3.19895644672214984893798828125</LongitudeDegrees>
            </Position>
            <AltitudeMeters>-21.6000003814697265625</AltitudeMeters>
            <DistanceMeters>NAN</DistanceMeters>
          </Trackpoint>
          <Trackpoint>
            <Time>2022-07-12T16:54:18.000Z</Time>
            <Position>
              <LatitudeDegrees>43.3627040125429630279541015625</LatitudeDegrees>
              <LongitudeDegrees>-3.1989179737865924835205078125</LongitudeDegrees>
            </Position>
            <AltitudeMeters>-21.3999996185302734375</AltitudeMeters>
            <DistanceMeters>NAN</DistanceMeters>
          </Trackpoint>
          <Trackpoint>
            <Time>2022-07-12T16:54:21.000Z</Time>
            <Position>
              <LatitudeDegrees>43.36274416185915470123291015625</LatitudeDegrees>
              <LongitudeDegrees>-3.19888293743133544921875</LongitudeDegrees>
            </Position>
            <AltitudeMeters>-21</AltitudeMeters>
            <DistanceMeters>NAN</DistanceMeters>
          </Trackpoint>
          <Trackpoint>
            <Time>2022-07-12T16:54:22.000Z</Time>
            <Position>
              <LatitudeDegrees>43.36276293732225894927978515625</LatitudeDegrees>
              <LongitudeDegrees>-3.198875226080417633056640625</LongitudeDegrees>
            </Position>
            <AltitudeMeters>-20.799999237060546875</AltitudeMeters>
            <DistanceMeters>NAN</DistanceMeters>
          </Trackpoint>
          <Trackpoint>
            <Time>2022-07-12T16:54:27.000Z</Time>
            <Position>
              <LatitudeDegrees>43.3628532104194164276123046875</LatitudeDegrees>
              <LongitudeDegrees>-3.19883557967841625213623046875</LongitudeDegrees>
            </Position>
            <AltitudeMeters>-20.200000762939453125</AltitudeMeters>
            <DistanceMeters>NAN</DistanceMeters>
          </Trackpoint>
          <Trackpoint>
            <Time>2022-07-12T16:54:31.000Z</Time>
            <Position>
              <LatitudeDegrees>43.3629155717790126800537109375</LatitudeDegrees>
              <LongitudeDegrees>-3.19880171678960323333740234375</LongitudeDegrees>
            </Position>
            <AltitudeMeters>-19.799999237060546875</AltitudeMeters>
            <DistanceMeters>NAN</DistanceMeters>
          </Trackpoint>
          <Trackpoint>
            <Time>2022-07-12T16:54:34.000Z</Time>
            <Position>
              <LatitudeDegrees>43.36296058259904384613037109375</LatitudeDegrees>
              <LongitudeDegrees>-3.1987858749926090240478515625</LongitudeDegrees>
            </Position>
            <AltitudeMeters>-19.6000003814697265625</AltitudeMeters>
            <DistanceMeters>NAN</DistanceMeters>
          </Trackpoint>
          <Trackpoint>
            <Time>2022-07-12T16:54:41.000Z</Time>
            <Position>
              <LatitudeDegrees>43.36309804581105709075927734375</LatitudeDegrees>
              <LongitudeDegrees>-3.19879911839962005615234375</LongitudeDegrees>
            </Position>
            <AltitudeMeters>-18.799999237060546875</AltitudeMeters>
            <DistanceMeters>NAN</DistanceMeters>
          </Trackpoint>
          <Trackpoint>
            <Time>2022-07-12T16:54:42.000Z</Time>
            <Position>
              <LatitudeDegrees>43.3631162345409393310546875</LatitudeDegrees>
              <LongitudeDegrees>-3.19879869930446147918701171875</LongitudeDegrees>
            </Position>
            <AltitudeMeters>-18.799999237060546875</AltitudeMeters>
            <DistanceMeters>NAN</DistanceMeters>
          </Trackpoint>
          <Trackpoint>
            <Time>2022-07-12T16:54:47.000Z</Time>
            <Position>
              <LatitudeDegrees>43.36319913156330585479736328125</LatitudeDegrees>
              <LongitudeDegrees>-3.1988049857318401336669921875</LongitudeDegrees>
            </Position>
            <AltitudeMeters>-18.200000762939453125</AltitudeMeters>
            <DistanceMeters>NAN</DistanceMeters>
          </Trackpoint>
          <Trackpoint>
            <Time>2022-07-12T16:54:50.000Z</Time>
            <Position>
              <LatitudeDegrees>43.36324808187782764434814453125</LatitudeDegrees>
              <LongitudeDegrees>-3.19879232905805110931396484375</LongitudeDegrees>
            </Position>
            <AltitudeMeters>-17.799999237060546875</AltitudeMeters>
            <DistanceMeters>NAN</DistanceMeters>
          </Trackpoint>
          <Trackpoint>
            <Time>2022-07-12T16:54:51.000Z</Time>
            <Position>
              <LatitudeDegrees>43.3632649295032024383544921875</LatitudeDegrees>
              <LongitudeDegrees>-3.19879165850579738616943359375</LongitudeDegrees>
            </Position>
            <AltitudeMeters>-17.799999237060546875</AltitudeMeters>
            <DistanceMeters>NAN</DistanceMeters>
          </Trackpoint>
          <Trackpoint>
            <Time>2022-07-12T16:54:58.000Z</Time>
            <Position>
              <LatitudeDegrees>43.36338973604142665863037109375</LatitudeDegrees>
              <LongitudeDegrees>-3.1987930834293365478515625</LongitudeDegrees>
            </Position>
            <AltitudeMeters>-16.799999237060546875</AltitudeMeters>
            <DistanceMeters>NAN</DistanceMeters>
          </Trackpoint>
          <Trackpoint>
            <Time>2022-07-12T16:54:59.000Z</Time>
            <Position>
              <LatitudeDegrees>43.36340566165745258331298828125</LatitudeDegrees>
              <LongitudeDegrees>-3.19880272261798381805419921875</LongitudeDegrees>
            </Position>
            <AltitudeMeters>-16.799999237060546875</AltitudeMeters>
            <DistanceMeters>NAN</DistanceMeters>
          </Trackpoint>
          <Trackpoint>
            <Time>2022-07-12T16:55:02.000Z</Time>
            <Position>
              <LatitudeDegrees>43.36346718482673168182373046875</LatitudeDegrees>
              <LongitudeDegrees>-3.19882728159427642822265625</LongitudeDegrees>
            </Position>
            <AltitudeMeters>-16.3999996185302734375</AltitudeMeters>
            <DistanceMeters>NAN</DistanceMeters>
          </Trackpoint>
          <Trackpoint>
            <Time>2022-07-12T16:55:08.000Z</Time>
            <Position>
              <LatitudeDegrees>43.36356818675994873046875</LatitudeDegrees>
              <LongitudeDegrees>-3.19885276257991790771484375</LongitudeDegrees>
            </Position>
            <AltitudeMeters>-15.6000003814697265625</AltitudeMeters>
            <DistanceMeters>NAN</DistanceMeters>
          </Trackpoint>
          <Trackpoint>
            <Time>2022-07-12T16:55:09.000Z</Time>
            <Position>
              <LatitudeDegrees>43.36357966996729373931884765625</LatitudeDegrees>
              <LongitudeDegrees>-3.1988492421805858612060546875</LongitudeDegrees>
            </Position>
            <AltitudeMeters>-15.6000003814697265625</AltitudeMeters>
            <DistanceMeters>NAN</DistanceMeters>
          </Trackpoint>
          <Trackpoint>
            <Time>2022-07-12T16:55:15.000Z</Time>
            <Position>
              <LatitudeDegrees>43.36370238102972507476806640625</LatitudeDegrees>
              <LongitudeDegrees>-3.19890649057924747467041015625</LongitudeDegrees>
            </Position>
            <AltitudeMeters>-15</AltitudeMeters>
            <DistanceMeters>NAN</DistanceMeters>
          </Trackpoint>
          <Trackpoint>
            <Time>2022-07-12T16:55:18.000Z</Time>
            <Position>
              <LatitudeDegrees>43.36376197636127471923828125</LatitudeDegrees>
              <LongitudeDegrees>-3.19892962463200092315673828125</LongitudeDegrees>
            </Position>
            <AltitudeMeters>-14.6000003814697265625</AltitudeMeters>
            <DistanceMeters>NAN</DistanceMeters>
          </Trackpoint>
          <Trackpoint>
            <Time>2022-07-12T16:55:24.000Z</Time>
            <Position>
              <LatitudeDegrees>43.36385845206677913665771484375</LatitudeDegrees>
              <LongitudeDegrees>-3.1989732943475246429443359375</LongitudeDegrees>
            </Position>
            <AltitudeMeters>-14</AltitudeMeters>
            <DistanceMeters>NAN</DistanceMeters>
          </Trackpoint>
          <Trackpoint>
            <Time>2022-07-12T16:55:26.000Z</Time>
            <Position>
              <LatitudeDegrees>43.36389617063105106353759765625</LatitudeDegrees>
              <LongitudeDegrees>-3.1989773176610469818115234375</LongitudeDegrees>
            </Position>
            <AltitudeMeters>-13.80000019073486328125</AltitudeMeters>
            <DistanceMeters>NAN</DistanceMeters>
          </Trackpoint>
          <Trackpoint>
            <Time>2022-07-12T16:55:27.000Z</Time>
            <Position>
              <LatitudeDegrees>43.36391352117061614990234375</LatitudeDegrees>
              <LongitudeDegrees>-3.19898259826004505157470703125</LongitudeDegrees>
            </Position>
            <AltitudeMeters>-13.6000003814697265625</AltitudeMeters>
            <DistanceMeters>NAN</DistanceMeters>
          </Trackpoint>
          <Trackpoint>
            <Time>2022-07-12T16:55:31.000Z</Time>
            <Position>
              <LatitudeDegrees>43.36398652754724025726318359375</LatitudeDegrees>
              <LongitudeDegrees>-3.19903171621263027191162109375</LongitudeDegrees>
            </Position>
            <AltitudeMeters>-13.19999980926513671875</AltitudeMeters>
            <DistanceMeters>NAN</DistanceMeters>
          </Trackpoint>
          <Trackpoint>
            <Time>2022-07-12T16:55:33.000Z</Time>
            <Position>
              <LatitudeDegrees>43.364023827016353607177734375</LatitudeDegrees>
              <LongitudeDegrees>-3.19906474091112613677978515625</LongitudeDegrees>
            </Position>
            <AltitudeMeters>-12.80000019073486328125</AltitudeMeters>
            <DistanceMeters>NAN</DistanceMeters>
          </Trackpoint>
          <Trackpoint>
            <Time>2022-07-12T16:55:35.000Z</Time>
            <Position>
              <LatitudeDegrees>43.3640481345355510711669921875</LatitudeDegrees>
              <LongitudeDegrees>-3.1990720331668853759765625</LongitudeDegrees>
            </Position>
            <AltitudeMeters>-12.6000003814697265625</AltitudeMeters>
            <DistanceMeters>NAN</DistanceMeters>
          </Trackpoint>
          <Trackpoint>
            <Time>2022-07-12T16:55:39.000Z</Time>
            <Position>
              <LatitudeDegrees>43.36411644704639911651611328125</LatitudeDegrees>
              <LongitudeDegrees>-3.19909038953483104705810546875</LongitudeDegrees>
            </Position>
            <AltitudeMeters>-12</AltitudeMeters>
            <DistanceMeters>NAN</DistanceMeters>
          </Trackpoint>
          <Trackpoint>
            <Time>2022-07-12T16:55:43.000Z</Time>
            <Position>
              <LatitudeDegrees>43.3641949854791164398193359375</LatitudeDegrees>
              <LongitudeDegrees>-3.19913414306938648223876953125</LongitudeDegrees>
            </Position>
            <AltitudeMeters>-11.6000003814697265625</AltitudeMeters>
            <DistanceMeters>NAN</DistanceMeters>
          </Trackpoint>
          <Trackpoint>
            <Time>2022-07-12T16:55:45.000Z</Time>
            <Position>
              <LatitudeDegrees>43.36422599852085113525390625</LatitudeDegrees>
              <LongitudeDegrees>-3.1991493143141269683837890625</LongitudeDegrees>
            </Position>
            <AltitudeMeters>-11.3999996185302734375</AltitudeMeters>
            <DistanceMeters>NAN</DistanceMeters>
          </Trackpoint>
          <Trackpoint>
            <Time>2022-07-12T16:55:52.000Z</Time>
            <Position>
              <LatitudeDegrees>43.3643274195492267608642578125</LatitudeDegrees>
              <LongitudeDegrees>-3.19917194545269012451171875</LongitudeDegrees>
            </Position>
            <AltitudeMeters>-10.6000003814697265625</AltitudeMeters>
            <DistanceMeters>NAN</DistanceMeters>
          </Trackpoint>
          <Trackpoint>
            <Time>2022-07-12T16:55:53.000Z</Time>
            <Position>
              <LatitudeDegrees>43.36434477008879184722900390625</LatitudeDegrees>
              <LongitudeDegrees>-3.199178986251354217529296875</LongitudeDegrees>
            </Position>
            <AltitudeMeters>-10.3999996185302734375</AltitudeMeters>
            <DistanceMeters>NAN</DistanceMeters>
          </Trackpoint>
          <Trackpoint>
            <Time>2022-07-12T16:56:01.000Z</Time>
            <Position>
              <LatitudeDegrees>43.36446027271449565887451171875</LatitudeDegrees>
              <LongitudeDegrees>-3.1992126815021038055419921875</LongitudeDegrees>
            </Position>
            <AltitudeMeters>-9.6000003814697265625</AltitudeMeters>
            <DistanceMeters>NAN</DistanceMeters>
          </Trackpoint>
          <Trackpoint>
            <Time>2022-07-12T16:56:03.000Z</Time>
            <Position>
              <LatitudeDegrees>43.364481814205646514892578125</LatitudeDegrees>
              <LongitudeDegrees>-3.19922248832881450653076171875</LongitudeDegrees>
            </Position>
            <AltitudeMeters>-9.3999996185302734375</AltitudeMeters>
            <DistanceMeters>NAN</DistanceMeters>
          </Trackpoint>
          <Trackpoint>
            <Time>2022-07-12T16:56:08.000Z</Time>
            <Position>
              <LatitudeDegrees>43.364574350416660308837890625</LatitudeDegrees>
              <LongitudeDegrees>-3.199256099760532379150390625</LongitudeDegrees>
            </Position>
            <AltitudeMeters>-8.6000003814697265625</AltitudeMeters>
            <DistanceMeters>NAN</DistanceMeters>
          </Trackpoint>
          <Trackpoint>
            <Time>2022-07-12T16:56:11.000Z</Time>
            <Position>
              <LatitudeDegrees>43.364625982940196990966796875</LatitudeDegrees>
              <LongitudeDegrees>-3.19927261210978031158447265625</LongitudeDegrees>
            </Position>
            <AltitudeMeters>-8.3999996185302734375</AltitudeMeters>
            <DistanceMeters>NAN</DistanceMeters>
          </Trackpoint>
          <Trackpoint>
            <Time>2022-07-12T16:56:15.000Z</Time>
            <Position>
              <LatitudeDegrees>43.3646898530423641204833984375</LatitudeDegrees>
              <LongitudeDegrees>-3.19928971119225025177001953125</LongitudeDegrees>
            </Position>
            <AltitudeMeters>-8</AltitudeMeters>
            <DistanceMeters>NAN</DistanceMeters>
          </Trackpoint>
          <Trackpoint>
            <Time>2022-07-12T16:56:19.000Z</Time>
            <Position>
              <LatitudeDegrees>43.36476470343768596649169921875</LatitudeDegrees>
              <LongitudeDegrees>-3.19931284524500370025634765625</LongitudeDegrees>
            </Position>
            <AltitudeMeters>-7.400000095367431640625</AltitudeMeters>
            <DistanceMeters>NAN</DistanceMeters>
          </Trackpoint>
          <Trackpoint>
            <Time>2022-07-12T16:56:23.000Z</Time>
            <Position>
              <LatitudeDegrees>43.36482924409210681915283203125</LatitudeDegrees>
              <LongitudeDegrees>-3.1993429362773895263671875</LongitudeDegrees>
            </Position>
            <AltitudeMeters>-7</AltitudeMeters>
            <DistanceMeters>NAN</DistanceMeters>
          </Trackpoint>
          <Trackpoint>
            <Time>2022-07-12T16:56:30.000Z</Time>
            <Position>
              <LatitudeDegrees>43.36494927294552326202392578125</LatitudeDegrees>
              <LongitudeDegrees>-3.1993992626667022705078125</LongitudeDegrees>
            </Position>
            <AltitudeMeters>-6.400000095367431640625</AltitudeMeters>
            <DistanceMeters>NAN</DistanceMeters>
          </Trackpoint>
          <Trackpoint>
            <Time>2022-07-12T16:56:31.000Z</Time>
            <Position>
              <LatitudeDegrees>43.3649667911231517791748046875</LatitudeDegrees>
              <LongitudeDegrees>-3.19940529763698577880859375</LongitudeDegrees>
            </Position>
            <AltitudeMeters>-6.19999980926513671875</AltitudeMeters>
            <DistanceMeters>NAN</DistanceMeters>
          </Trackpoint>
          <Trackpoint>
            <Time>2022-07-12T16:56:38.000Z</Time>
            <Position>
              <LatitudeDegrees>43.36508137173950672149658203125</LatitudeDegrees>
              <LongitudeDegrees>-3.19945014081895351409912109375</LongitudeDegrees>
            </Position>
            <AltitudeMeters>-5.19999980926513671875</AltitudeMeters>
            <DistanceMeters>NAN</DistanceMeters>
          </Trackpoint>
          <Trackpoint>
            <Time>2022-07-12T16:56:39.000Z</Time>
            <Position>
              <LatitudeDegrees>43.36510215885937213897705078125</LatitudeDegrees>
              <LongitudeDegrees>-3.1994597800076007843017578125</LongitudeDegrees>
            </Position>
            <AltitudeMeters>-5</AltitudeMeters>
            <DistanceMeters>NAN</DistanceMeters>
          </Trackpoint>
          <Trackpoint>
            <Time>2022-07-12T16:56:47.000Z</Time>
            <Position>
              <LatitudeDegrees>43.3652283065021038055419921875</LatitudeDegrees>
              <LongitudeDegrees>-3.1994996778666973114013671875</LongitudeDegrees>
            </Position>
            <AltitudeMeters>-4.19999980926513671875</AltitudeMeters>
            <DistanceMeters>NAN</DistanceMeters>
          </Trackpoint>
          <Trackpoint>
            <Time>2022-07-12T16:56:48.000Z</Time>
            <Position>
              <LatitudeDegrees>43.36525135673582553863525390625</LatitudeDegrees>
              <LongitudeDegrees>-3.1995057128369808197021484375</LongitudeDegrees>
            </Position>
            <AltitudeMeters>-4.19999980926513671875</AltitudeMeters>
            <DistanceMeters>NAN</DistanceMeters>
          </Trackpoint>
          <Trackpoint>
            <Time>2022-07-12T16:56:56.000Z</Time>
            <Position>
              <LatitudeDegrees>43.3654063381254673004150390625</LatitudeDegrees>
              <LongitudeDegrees>-3.19955005310475826263427734375</LongitudeDegrees>
            </Position>
            <AltitudeMeters>-3.2000000476837158203125</AltitudeMeters>
            <DistanceMeters>NAN</DistanceMeters>
          </Trackpoint>
          <Trackpoint>
            <Time>2022-07-12T16:56:57.000Z</Time>
            <Position>
              <LatitudeDegrees>43.36542268283665180206298828125</LatitudeDegrees>
              <LongitudeDegrees>-3.1995516456663608551025390625</LongitudeDegrees>
            </Position>
            <AltitudeMeters>-3</AltitudeMeters>
            <DistanceMeters>NAN</DistanceMeters>
          </Trackpoint>
          <Trackpoint>
            <Time>2022-07-12T16:57:05.000Z</Time>
            <Position>
              <LatitudeDegrees>43.36559400893747806549072265625</LatitudeDegrees>
              <LongitudeDegrees>-3.19959430955350399017333984375</LongitudeDegrees>
            </Position>
            <AltitudeMeters>-2</AltitudeMeters>
            <DistanceMeters>NAN</DistanceMeters>
          </Trackpoint>
          <Trackpoint>
            <Time>2022-07-12T16:57:09.000Z</Time>
            <Position>
              <LatitudeDegrees>43.36567078717052936553955078125</LatitudeDegrees>
              <LongitudeDegrees>-3.199606798589229583740234375</LongitudeDegrees>
            </Position>
            <AltitudeMeters>-1.39999997615814208984375</AltitudeMeters>
            <DistanceMeters>NAN</DistanceMeters>
          </Trackpoint>
          <Trackpoint>
            <Time>2022-07-12T16:57:14.000Z</Time>
            <Position>
              <LatitudeDegrees>43.3657717891037464141845703125</LatitudeDegrees>
              <LongitudeDegrees>-3.199617862701416015625</LongitudeDegrees>
            </Position>
            <AltitudeMeters>-1</AltitudeMeters>
            <DistanceMeters>NAN</DistanceMeters>
          </Trackpoint>
          <Trackpoint>
            <Time>2022-07-12T16:57:15.000Z</Time>
            <Position>
              <LatitudeDegrees>43.365793414413928985595703125</LatitudeDegrees>
              <LongitudeDegrees>-3.19962230511009693145751953125</LongitudeDegrees>
            </Position>
            <AltitudeMeters>-0.800000011920928955078125</AltitudeMeters>
            <DistanceMeters>NAN</DistanceMeters>
          </Trackpoint>
          <Trackpoint>
            <Time>2022-07-12T16:57:23.000Z</Time>
            <Position>
              <LatitudeDegrees>43.36596063338220119476318359375</LatitudeDegrees>
              <LongitudeDegrees>-3.199668489396572113037109375</LongitudeDegrees>
            </Position>
            <AltitudeMeters>0.20000000298023223876953125</AltitudeMeters>
            <DistanceMeters>NAN</DistanceMeters>
          </Trackpoint>
          <Trackpoint>
            <Time>2022-07-12T16:57:26.000Z</Time>
            <Position>
              <LatitudeDegrees>43.3660118468105792999267578125</LatitudeDegrees>
              <LongitudeDegrees>-3.1996847502887248992919921875</LongitudeDegrees>
            </Position>
            <AltitudeMeters>0.60000002384185791015625</AltitudeMeters>
            <DistanceMeters>NAN</DistanceMeters>
          </Trackpoint>
          <Trackpoint>
            <Time>2022-07-12T16:57:32.000Z</Time>
            <Position>
              <LatitudeDegrees>43.3661288581788539886474609375</LatitudeDegrees>
              <LongitudeDegrees>-3.1997256539762020111083984375</LongitudeDegrees>
            </Position>
            <AltitudeMeters>1.2000000476837158203125</AltitudeMeters>
            <DistanceMeters>NAN</DistanceMeters>
          </Trackpoint>
          <Trackpoint>
            <Time>2022-07-12T16:57:36.000Z</Time>
            <Position>
              <LatitudeDegrees>43.36621745489537715911865234375</LatitudeDegrees>
              <LongitudeDegrees>-3.19978541694581508636474609375</LongitudeDegrees>
            </Position>
            <AltitudeMeters>1.60000002384185791015625</AltitudeMeters>
            <DistanceMeters>NAN</DistanceMeters>
          </Trackpoint>
          <Trackpoint>
            <Time>2022-07-12T16:57:45.000Z</Time>
            <Position>
              <LatitudeDegrees>43.36643077433109283447265625</LatitudeDegrees>
              <LongitudeDegrees>-3.19995171390473842620849609375</LongitudeDegrees>
            </Position>
            <AltitudeMeters>1.7999999523162841796875</AltitudeMeters>
            <DistanceMeters>NAN</DistanceMeters>
          </Trackpoint>
          <Trackpoint>
            <Time>2022-07-12T16:57:52.000Z</Time>
            <Position>
              <LatitudeDegrees>43.3666237257421016693115234375</LatitudeDegrees>
              <LongitudeDegrees>-3.2001434080302715301513671875</LongitudeDegrees>
            </Position>
            <AltitudeMeters>1</AltitudeMeters>
            <DistanceMeters>NAN</DistanceMeters>
          </Trackpoint>
          <Trackpoint>
            <Time>2022-07-12T16:57:53.000Z</Time>
            <Position>
              <LatitudeDegrees>43.3666616119444370269775390625</LatitudeDegrees>
              <LongitudeDegrees>-3.200178444385528564453125</LongitudeDegrees>
            </Position>
            <AltitudeMeters>1</AltitudeMeters>
            <DistanceMeters>NAN</DistanceMeters>
          </Trackpoint>
          <Trackpoint>
            <Time>2022-07-12T16:57:59.000Z</Time>
            <Position>
              <LatitudeDegrees>43.3669472672045230865478515625</LatitudeDegrees>
              <LongitudeDegrees>-3.200415484607219696044921875</LongitudeDegrees>
            </Position>
            <AltitudeMeters>0</AltitudeMeters>
            <DistanceMeters>NAN</DistanceMeters>
          </Trackpoint>
          <Trackpoint>
            <Time>2022-07-12T16:58:03.000Z</Time>
            <Position>
              <LatitudeDegrees>43.367180787026882171630859375</LatitudeDegrees>
              <LongitudeDegrees>-3.2006138004362583160400390625</LongitudeDegrees>
            </Position>
            <AltitudeMeters>-1.2000000476837158203125</AltitudeMeters>
            <DistanceMeters>NAN</DistanceMeters>
          </Trackpoint>
          <Trackpoint>
            <Time>2022-07-12T16:58:05.000Z</Time>
            <Position>
              <LatitudeDegrees>43.36730559356510639190673828125</LatitudeDegrees>
              <LongitudeDegrees>-3.20071396417915821075439453125</LongitudeDegrees>
            </Position>
            <AltitudeMeters>-1.7999999523162841796875</AltitudeMeters>
            <DistanceMeters>NAN</DistanceMeters>
          </Trackpoint>
          <Trackpoint>
            <Time>2022-07-12T16:58:08.000Z</Time>
            <Position>
              <LatitudeDegrees>43.36750273592770099639892578125</LatitudeDegrees>
              <LongitudeDegrees>-3.2008733041584491729736328125</LongitudeDegrees>
            </Position>
            <AltitudeMeters>-2.2000000476837158203125</AltitudeMeters>
            <DistanceMeters>NAN</DistanceMeters>
          </Trackpoint>
          <Trackpoint>
            <Time>2022-07-12T16:58:12.000Z</Time>
            <Position>
              <LatitudeDegrees>43.3677777461707592010498046875</LatitudeDegrees>
              <LongitudeDegrees>-3.201097436249256134033203125</LongitudeDegrees>
            </Position>
            <AltitudeMeters>-3.2000000476837158203125</AltitudeMeters>
            <DistanceMeters>NAN</DistanceMeters>
          </Trackpoint>
          <Trackpoint>
            <Time>2022-07-12T16:58:14.000Z</Time>
            <Position>
              <LatitudeDegrees>43.36792116053402423858642578125</LatitudeDegrees>
              <LongitudeDegrees>-3.201212771236896514892578125</LongitudeDegrees>
            </Position>
            <AltitudeMeters>-4.400000095367431640625</AltitudeMeters>
            <DistanceMeters>NAN</DistanceMeters>
          </Trackpoint>
          <Trackpoint>
            <Time>2022-07-12T16:58:17.000Z</Time>
            <Position>
              <LatitudeDegrees>43.3681400120258331298828125</LatitudeDegrees>
              <LongitudeDegrees>-3.20139340125024318695068359375</LongitudeDegrees>
            </Position>
            <AltitudeMeters>-5.80000019073486328125</AltitudeMeters>
            <DistanceMeters>NAN</DistanceMeters>
          </Trackpoint>
          <Trackpoint>
            <Time>2022-07-12T16:58:20.000Z</Time>
            <Position>
              <LatitudeDegrees>43.36836598813533782958984375</LatitudeDegrees>
              <LongitudeDegrees>-3.2015753723680973052978515625</LongitudeDegrees>
            </Position>
            <AltitudeMeters>-6.599999904632568359375</AltitudeMeters>
            <DistanceMeters>NAN</DistanceMeters>
          </Trackpoint>
          <Trackpoint>
            <Time>2022-07-12T16:58:21.000Z</Time>
            <Position>
              <LatitudeDegrees>43.36844150908291339874267578125</LatitudeDegrees>
              <LongitudeDegrees>-3.2016373984515666961669921875</LongitudeDegrees>
            </Position>
            <AltitudeMeters>-7</AltitudeMeters>
            <DistanceMeters>NAN</DistanceMeters>
          </Trackpoint>
          <Trackpoint>
            <Time>2022-07-12T16:58:24.000Z</Time>
            <Position>
              <LatitudeDegrees>43.36867117322981357574462890625</LatitudeDegrees>
              <LongitudeDegrees>-3.201820291578769683837890625</LongitudeDegrees>
            </Position>
            <AltitudeMeters>-8</AltitudeMeters>
            <DistanceMeters>NAN</DistanceMeters>
          </Trackpoint>
          <Trackpoint>
            <Time>2022-07-12T16:58:27.000Z</Time>
            <Position>
              <LatitudeDegrees>43.36890083737671375274658203125</LatitudeDegrees>
              <LongitudeDegrees>-3.20200377143919467926025390625</LongitudeDegrees>
            </Position>
            <AltitudeMeters>-9.3999996185302734375</AltitudeMeters>
            <DistanceMeters>NAN</DistanceMeters>
          </Trackpoint>
          <Trackpoint>
            <Time>2022-07-12T16:58:30.000Z</Time>
            <Position>
              <LatitudeDegrees>43.3691403083503246307373046875</LatitudeDegrees>
              <LongitudeDegrees>-3.2021973095834255218505859375</LongitudeDegrees>
            </Position>
            <AltitudeMeters>-10.80000019073486328125</AltitudeMeters>
            <DistanceMeters>NAN</DistanceMeters>
          </Trackpoint>
          <Trackpoint>
            <Time>2022-07-12T16:58:32.000Z</Time>
            <Position>
              <LatitudeDegrees>43.3692972175776958465576171875</LatitudeDegrees>
              <LongitudeDegrees>-3.20232295431196689605712890625</LongitudeDegrees>
            </Position>
            <AltitudeMeters>-12.19999980926513671875</AltitudeMeters>
            <DistanceMeters>NAN</DistanceMeters>
          </Trackpoint>
          <Trackpoint>
            <Time>2022-07-12T16:58:35.000Z</Time>
            <Position>
              <LatitudeDegrees>43.3695312403142452239990234375</LatitudeDegrees>
              <LongitudeDegrees>-3.2025245390832424163818359375</LongitudeDegrees>
            </Position>
            <AltitudeMeters>-13.3999996185302734375</AltitudeMeters>
            <DistanceMeters>NAN</DistanceMeters>
          </Trackpoint>
          <Trackpoint>
            <Time>2022-07-12T16:58:37.000Z</Time>
            <Position>
              <LatitudeDegrees>43.3696693740785121917724609375</LatitudeDegrees>
              <LongitudeDegrees>-3.2026780955493450164794921875</LongitudeDegrees>
            </Position>
            <AltitudeMeters>-14.19999980926513671875</AltitudeMeters>
            <DistanceMeters>NAN</DistanceMeters>
          </Trackpoint>
          <Trackpoint>
            <Time>2022-07-12T16:58:38.000Z</Time>
            <Position>
              <LatitudeDegrees>43.36972679011523723602294921875</LatitudeDegrees>
              <LongitudeDegrees>-3.20276401005685329437255859375</LongitudeDegrees>
            </Position>
            <AltitudeMeters>-14.6000003814697265625</AltitudeMeters>
            <DistanceMeters>NAN</DistanceMeters>
          </Trackpoint>
          <Trackpoint>
            <Time>2022-07-12T16:58:39.000Z</Time>
            <Position>
              <LatitudeDegrees>43.369775824248790740966796875</LatitudeDegrees>
              <LongitudeDegrees>-3.20285688154399394989013671875</LongitudeDegrees>
            </Position>
            <AltitudeMeters>-15</AltitudeMeters>
            <DistanceMeters>NAN</DistanceMeters>
          </Trackpoint>
          <Trackpoint>
            <Time>2022-07-12T16:58:40.000Z</Time>
            <Position>
              <LatitudeDegrees>43.36981379427015781402587890625</LatitudeDegrees>
              <LongitudeDegrees>-3.20295788347721099853515625</LongitudeDegrees>
            </Position>
            <AltitudeMeters>-15.19999980926513671875</AltitudeMeters>
            <DistanceMeters>NAN</DistanceMeters>
          </Trackpoint>
          <Trackpoint>
            <Time>2022-07-12T16:58:41.000Z</Time>
            <Position>
              <LatitudeDegrees>43.3698460645973682403564453125</LatitudeDegrees>
              <LongitudeDegrees>-3.20306726731359958648681640625</LongitudeDegrees>
            </Position>
            <AltitudeMeters>-15.6000003814697265625</AltitudeMeters>
            <DistanceMeters>NAN</DistanceMeters>
          </Trackpoint>
          <Trackpoint>
            <Time>2022-07-12T16:58:42.000Z</Time>
            <Position>
              <LatitudeDegrees>43.36986995302140712738037109375</LatitudeDegrees>
              <LongitudeDegrees>-3.2031826861202716827392578125</LongitudeDegrees>
            </Position>
            <AltitudeMeters>-16.200000762939453125</AltitudeMeters>
            <DistanceMeters>NAN</DistanceMeters>
          </Trackpoint>
          <Trackpoint>
            <Time>2022-07-12T16:58:43.000Z</Time>
            <Position>
              <LatitudeDegrees>43.369875736534595489501953125</LatitudeDegrees>
              <LongitudeDegrees>-3.2032980211079120635986328125</LongitudeDegrees>
            </Position>
            <AltitudeMeters>-16.799999237060546875</AltitudeMeters>
            <DistanceMeters>NAN</DistanceMeters>
          </Trackpoint>
          <Trackpoint>
            <Time>2022-07-12T16:58:44.000Z</Time>
            <Position>
              <LatitudeDegrees>43.3698593080043792724609375</LatitudeDegrees>
              <LongitudeDegrees>-3.20342098362743854522705078125</LongitudeDegrees>
            </Position>
            <AltitudeMeters>-17.200000762939453125</AltitudeMeters>
            <DistanceMeters>NAN</DistanceMeters>
          </Trackpoint>
          <Trackpoint>
            <Time>2022-07-12T16:58:45.000Z</Time>
            <Position>
              <LatitudeDegrees>43.3698333241045475006103515625</LatitudeDegrees>
              <LongitudeDegrees>-3.20354352705180644989013671875</LongitudeDegrees>
            </Position>
            <AltitudeMeters>-17.799999237060546875</AltitudeMeters>
            <DistanceMeters>NAN</DistanceMeters>
          </Trackpoint>
          <Trackpoint>
            <Time>2022-07-12T16:58:46.000Z</Time>
            <Position>
              <LatitudeDegrees>43.369797952473163604736328125</LatitudeDegrees>
              <LongitudeDegrees>-3.203668333590030670166015625</LongitudeDegrees>
            </Position>
            <AltitudeMeters>-18.200000762939453125</AltitudeMeters>
            <DistanceMeters>NAN</DistanceMeters>
          </Trackpoint>
          <Trackpoint>
            <Time>2022-07-12T16:58:47.000Z</Time>
            <Position>
              <LatitudeDegrees>43.3697568811476230621337890625</LatitudeDegrees>
              <LongitudeDegrees>-3.2037710957229137420654296875</LongitudeDegrees>
            </Position>
            <AltitudeMeters>-19</AltitudeMeters>
            <DistanceMeters>NAN</DistanceMeters>
          </Trackpoint>
          <Trackpoint>
            <Time>2022-07-12T16:58:48.000Z</Time>
            <Position>
              <LatitudeDegrees>43.3697005547583103179931640625</LatitudeDegrees>
              <LongitudeDegrees>-3.2039187848567962646484375</LongitudeDegrees>
            </Position>
            <AltitudeMeters>-19.6000003814697265625</AltitudeMeters>
            <DistanceMeters>NAN</DistanceMeters>
          </Trackpoint>
          <Trackpoint>
            <Time>2022-07-12T16:58:49.000Z</Time>
            <Position>
              <LatitudeDegrees>43.36965554393827915191650390625</LatitudeDegrees>
              <LongitudeDegrees>-3.20404057390987873077392578125</LongitudeDegrees>
            </Position>
            <AltitudeMeters>-20.799999237060546875</AltitudeMeters>
            <DistanceMeters>NAN</DistanceMeters>
          </Trackpoint>
          <Trackpoint>
            <Time>2022-07-12T16:58:50.000Z</Time>
            <Position>
              <LatitudeDegrees>43.3696019835770130157470703125</LatitudeDegrees>
              <LongitudeDegrees>-3.2041586749255657196044921875</LongitudeDegrees>
            </Position>
            <AltitudeMeters>-21.799999237060546875</AltitudeMeters>
            <DistanceMeters>NAN</DistanceMeters>
          </Trackpoint>
          <Trackpoint>
            <Time>2022-07-12T16:58:51.000Z</Time>
            <Position>
              <LatitudeDegrees>43.36955747567117214202880859375</LatitudeDegrees>
              <LongitudeDegrees>-3.20425665937364101409912109375</LongitudeDegrees>
            </Position>
            <AltitudeMeters>-22.200000762939453125</AltitudeMeters>
            <DistanceMeters>NAN</DistanceMeters>
          </Trackpoint>
          <Trackpoint>
            <Time>2022-07-12T16:58:52.000Z</Time>
            <Position>
              <LatitudeDegrees>43.3694893307983875274658203125</LatitudeDegrees>
              <LongitudeDegrees>-3.204391859471797943115234375</LongitudeDegrees>
            </Position>
            <AltitudeMeters>-22.6000003814697265625</AltitudeMeters>
            <DistanceMeters>NAN</DistanceMeters>
          </Trackpoint>
          <Trackpoint>
            <Time>2022-07-12T16:58:53.000Z</Time>
            <Position>
              <LatitudeDegrees>43.36942956782877445220947265625</LatitudeDegrees>
              <LongitudeDegrees>-3.2045036740601062774658203125</LongitudeDegrees>
            </Position>
            <AltitudeMeters>-23.3999996185302734375</AltitudeMeters>
            <DistanceMeters>NAN</DistanceMeters>
          </Trackpoint>
          <Trackpoint>
            <Time>2022-07-12T16:58:55.000Z</Time>
            <Position>
              <LatitudeDegrees>43.369309790432453155517578125</LatitudeDegrees>
              <LongitudeDegrees>-3.20473040454089641571044921875</LongitudeDegrees>
            </Position>
            <AltitudeMeters>-24.200000762939453125</AltitudeMeters>
            <DistanceMeters>NAN</DistanceMeters>
          </Trackpoint>
          <Trackpoint>
            <Time>2022-07-12T16:58:56.000Z</Time>
            <Position>
              <LatitudeDegrees>43.36926427669823169708251953125</LatitudeDegrees>
              <LongitudeDegrees>-3.20482193492352962493896484375</LongitudeDegrees>
            </Position>
            <AltitudeMeters>-24.3999996185302734375</AltitudeMeters>
            <DistanceMeters>NAN</DistanceMeters>
          </Trackpoint>
          <Trackpoint>
            <Time>2022-07-12T16:58:58.000Z</Time>
            <Position>
              <LatitudeDegrees>43.369158916175365447998046875</LatitudeDegrees>
              <LongitudeDegrees>-3.20504606701433658599853515625</LongitudeDegrees>
            </Position>
            <AltitudeMeters>-25.799999237060546875</AltitudeMeters>
            <DistanceMeters>NAN</DistanceMeters>
          </Trackpoint>
          <Trackpoint>
            <Time>2022-07-12T16:59:00.000Z</Time>
            <Position>
              <LatitudeDegrees>43.36904349736869335174560546875</LatitudeDegrees>
              <LongitudeDegrees>-3.205287046730518341064453125</LongitudeDegrees>
            </Position>
            <AltitudeMeters>-27.200000762939453125</AltitudeMeters>
            <DistanceMeters>NAN</DistanceMeters>
          </Trackpoint>
          <Trackpoint>
            <Time>2022-07-12T16:59:02.000Z</Time>
            <Position>
              <LatitudeDegrees>43.36896236054599285125732421875</LatitudeDegrees>
              <LongitudeDegrees>-3.205507658421993255615234375</LongitudeDegrees>
            </Position>
            <AltitudeMeters>-28.6000003814697265625</AltitudeMeters>
            <DistanceMeters>NAN</DistanceMeters>
          </Trackpoint>
          <Trackpoint>
            <Time>2022-07-12T16:59:03.000Z</Time>
            <Position>
              <LatitudeDegrees>43.36894400417804718017578125</LatitudeDegrees>
              <LongitudeDegrees>-3.20562475360929965972900390625</LongitudeDegrees>
            </Position>
            <AltitudeMeters>-29.200000762939453125</AltitudeMeters>
            <DistanceMeters>NAN</DistanceMeters>
          </Trackpoint>
          <Trackpoint>
            <Time>2022-07-12T16:59:04.000Z</Time>
            <Position>
              <LatitudeDegrees>43.368936292827129364013671875</LatitudeDegrees>
              <LongitudeDegrees>-3.2057519070804119110107421875</LongitudeDegrees>
            </Position>
            <AltitudeMeters>-29.3999996185302734375</AltitudeMeters>
            <DistanceMeters>NAN</DistanceMeters>
          </Trackpoint>
          <Trackpoint>
            <Time>2022-07-12T16:59:05.000Z</Time>
            <Position>
              <LatitudeDegrees>43.36894626729190349578857421875</LatitudeDegrees>
              <LongitudeDegrees>-3.20587813854217529296875</LongitudeDegrees>
            </Position>
            <AltitudeMeters>-30</AltitudeMeters>
            <DistanceMeters>NAN</DistanceMeters>
          </Trackpoint>
          <Trackpoint>
            <Time>2022-07-12T16:59:06.000Z</Time>
            <Position>
              <LatitudeDegrees>43.3689706586301326751708984375</LatitudeDegrees>
              <LongitudeDegrees>-3.20599573664367198944091796875</LongitudeDegrees>
            </Position>
            <AltitudeMeters>-30.6000003814697265625</AltitudeMeters>
            <DistanceMeters>NAN</DistanceMeters>
          </Trackpoint>
          <Trackpoint>
            <Time>2022-07-12T16:59:07.000Z</Time>
            <Position>
              <LatitudeDegrees>43.3690036833286285400390625</LatitudeDegrees>
              <LongitudeDegrees>-3.20610813796520233154296875</LongitudeDegrees>
            </Position>
            <AltitudeMeters>-31.200000762939453125</AltitudeMeters>
            <DistanceMeters>NAN</DistanceMeters>
          </Trackpoint>
          <Trackpoint>
            <Time>2022-07-12T16:59:10.000Z</Time>
            <Position>
              <LatitudeDegrees>43.36911994032561779022216796875</LatitudeDegrees>
              <LongitudeDegrees>-3.2064534723758697509765625</LongitudeDegrees>
            </Position>
            <AltitudeMeters>-32.40000152587890625</AltitudeMeters>
            <DistanceMeters>NAN</DistanceMeters>
          </Trackpoint>
          <Trackpoint>
            <Time>2022-07-12T16:59:11.000Z</Time>
            <Position>
              <LatitudeDegrees>43.3691567368805408477783203125</LatitudeDegrees>
              <LongitudeDegrees>-3.206569813191890716552734375</LongitudeDegrees>
            </Position>
            <AltitudeMeters>-32.799999237060546875</AltitudeMeters>
            <DistanceMeters>NAN</DistanceMeters>
          </Trackpoint>
          <Trackpoint>
            <Time>2022-07-12T16:59:13.000Z</Time>
            <Position>
              <LatitudeDegrees>43.3692338503897190093994140625</LatitudeDegrees>
              <LongitudeDegrees>-3.20680492557585239410400390625</LongitudeDegrees>
            </Position>
            <AltitudeMeters>-33.40000152587890625</AltitudeMeters>
            <DistanceMeters>NAN</DistanceMeters>
          </Trackpoint>
          <Trackpoint>
            <Time>2022-07-12T16:59:16.000Z</Time>
            <Position>
              <LatitudeDegrees>43.36934088729321956634521484375</LatitudeDegrees>
              <LongitudeDegrees>-3.207166604697704315185546875</LongitudeDegrees>
            </Position>
            <AltitudeMeters>-34.799999237060546875</AltitudeMeters>
            <DistanceMeters>NAN</DistanceMeters>
          </Trackpoint>
          <Trackpoint>
            <Time>2022-07-12T16:59:18.000Z</Time>
            <Position>
              <LatitudeDegrees>43.369394280016422271728515625</LatitudeDegrees>
              <LongitudeDegrees>-3.20741571485996246337890625</LongitudeDegrees>
            </Position>
            <AltitudeMeters>-36</AltitudeMeters>
            <DistanceMeters>NAN</DistanceMeters>
          </Trackpoint>
          <Trackpoint>
            <Time>2022-07-12T16:59:19.000Z</Time>
            <Position>
              <LatitudeDegrees>43.36941883899271488189697265625</LatitudeDegrees>
              <LongitudeDegrees>-3.20756264962255954742431640625</LongitudeDegrees>
            </Position>
            <AltitudeMeters>-36.59999847412109375</AltitudeMeters>
            <DistanceMeters>NAN</DistanceMeters>
          </Trackpoint>
          <Trackpoint>
            <Time>2022-07-12T16:59:20.000Z</Time>
            <Position>
              <LatitudeDegrees>43.3694340102374553680419921875</LatitudeDegrees>
              <LongitudeDegrees>-3.20768527686595916748046875</LongitudeDegrees>
            </Position>
            <AltitudeMeters>-37.200000762939453125</AltitudeMeters>
            <DistanceMeters>NAN</DistanceMeters>
          </Trackpoint>
          <Trackpoint>
            <Time>2022-07-12T16:59:22.000Z</Time>
            <Position>
              <LatitudeDegrees>43.36945722810924053192138671875</LatitudeDegrees>
              <LongitudeDegrees>-3.207908235490322113037109375</LongitudeDegrees>
            </Position>
            <AltitudeMeters>-38.200000762939453125</AltitudeMeters>
            <DistanceMeters>NAN</DistanceMeters>
          </Trackpoint>
          <Trackpoint>
            <Time>2022-07-12T16:59:25.000Z</Time>
            <Position>
              <LatitudeDegrees>43.36950466968119144439697265625</LatitudeDegrees>
              <LongitudeDegrees>-3.20829472504556179046630859375</LongitudeDegrees>
            </Position>
            <AltitudeMeters>-39.799999237060546875</AltitudeMeters>
            <DistanceMeters>NAN</DistanceMeters>
          </Trackpoint>
          <Trackpoint>
            <Time>2022-07-12T16:59:26.000Z</Time>
            <Position>
              <LatitudeDegrees>43.36951741017401218414306640625</LatitudeDegrees>
              <LongitudeDegrees>-3.20840737782418727874755859375</LongitudeDegrees>
            </Position>
            <AltitudeMeters>-40.40000152587890625</AltitudeMeters>
            <DistanceMeters>NAN</DistanceMeters>
          </Trackpoint>
          <Trackpoint>
            <Time>2022-07-12T16:59:27.000Z</Time>
            <Position>
              <LatitudeDegrees>43.36952595971524715423583984375</LatitudeDegrees>
              <LongitudeDegrees>-3.20849689655005931854248046875</LongitudeDegrees>
            </Position>
            <AltitudeMeters>-40.799999237060546875</AltitudeMeters>
            <DistanceMeters>NAN</DistanceMeters>
          </Trackpoint>
          <Trackpoint>
            <Time>2022-07-12T16:59:30.000Z</Time>
            <Position>
              <LatitudeDegrees>43.36955931968986988067626953125</LatitudeDegrees>
              <LongitudeDegrees>-3.20880836807191371917724609375</LongitudeDegrees>
            </Position>
            <AltitudeMeters>-42.40000152587890625</AltitudeMeters>
            <DistanceMeters>NAN</DistanceMeters>
          </Trackpoint>
          <Trackpoint>
            <Time>2022-07-12T16:59:31.000Z</Time>
            <Position>
              <LatitudeDegrees>43.3695677854120731353759765625</LatitudeDegrees>
              <LongitudeDegrees>-3.208862431347370147705078125</LongitudeDegrees>
            </Position>
            <AltitudeMeters>-43</AltitudeMeters>
            <DistanceMeters>NAN</DistanceMeters>
          </Trackpoint>
          <Trackpoint>
            <Time>2022-07-12T16:59:32.000Z</Time>
            <Position>
              <LatitudeDegrees>43.3695708028972148895263671875</LatitudeDegrees>
              <LongitudeDegrees>-3.20888497866690158843994140625</LongitudeDegrees>
            </Position>
            <AltitudeMeters>-43.59999847412109375</AltitudeMeters>
            <DistanceMeters>NAN</DistanceMeters>
          </Trackpoint>
          <Trackpoint>
            <Time>2022-07-12T16:59:34.000Z</Time>
            <Position>
              <LatitudeDegrees>43.36958060972392559051513671875</LatitudeDegrees>
              <LongitudeDegrees>-3.20890258066356182098388671875</LongitudeDegrees>
            </Position>
            <AltitudeMeters>-45</AltitudeMeters>
            <DistanceMeters>NAN</DistanceMeters>
          </Trackpoint>
          <Trackpoint>
            <Time>2022-07-12T16:59:36.000Z</Time>
            <Position>
              <LatitudeDegrees>43.36958060972392559051513671875</LatitudeDegrees>
              <LongitudeDegrees>-3.20890258066356182098388671875</LongitudeDegrees>
            </Position>
            <AltitudeMeters>-45.40000152587890625</AltitudeMeters>
            <DistanceMeters>NAN</DistanceMeters>
          </Trackpoint>
          <Trackpoint>
            <Time>2022-07-12T17:00:09.000Z</Time>
            <Position>
              <LatitudeDegrees>43.369533754885196685791015625</LatitudeDegrees>
              <LongitudeDegrees>-3.20877517573535442352294921875</LongitudeDegrees>
            </Position>
            <AltitudeMeters>-46.200000762939453125</AltitudeMeters>
            <DistanceMeters>NAN</DistanceMeters>
          </Trackpoint>
          <Trackpoint>
            <Time>2022-07-12T17:00:10.000Z</Time>
            <Position>
              <LatitudeDegrees>43.369532413780689239501953125</LatitudeDegrees>
              <LongitudeDegrees>-3.20874013938009738922119140625</LongitudeDegrees>
            </Position>
            <AltitudeMeters>-46.200000762939453125</AltitudeMeters>
            <DistanceMeters>NAN</DistanceMeters>
          </Trackpoint>
          <Trackpoint>
            <Time>2022-07-12T17:00:12.000Z</Time>
            <Position>
              <LatitudeDegrees>43.3695490099489688873291015625</LatitudeDegrees>
              <LongitudeDegrees>-3.2087050192058086395263671875</LongitudeDegrees>
            </Position>
            <AltitudeMeters>-46.200000762939453125</AltitudeMeters>
            <DistanceMeters>NAN</DistanceMeters>
          </Trackpoint>
          <Trackpoint>
            <Time>2022-07-12T17:00:14.000Z</Time>
            <Position>
              <LatitudeDegrees>43.3695889078080654144287109375</LatitudeDegrees>
              <LongitudeDegrees>-3.20872454904019832611083984375</LongitudeDegrees>
            </Position>
            <AltitudeMeters>-46.59999847412109375</AltitudeMeters>
            <DistanceMeters>NAN</DistanceMeters>
          </Trackpoint>
          <Trackpoint>
            <Time>2022-07-12T17:00:16.000Z</Time>
            <Position>
              <LatitudeDegrees>43.36968169547617435455322265625</LatitudeDegrees>
              <LongitudeDegrees>-3.20880803279578685760498046875</LongitudeDegrees>
            </Position>
            <AltitudeMeters>-47.200000762939453125</AltitudeMeters>
            <DistanceMeters>NAN</DistanceMeters>
          </Trackpoint>
          <Trackpoint>
            <Time>2022-07-12T17:00:17.000Z</Time>
            <Position>
              <LatitudeDegrees>43.36973257362842559814453125</LatitudeDegrees>
              <LongitudeDegrees>-3.2088625989854335784912109375</LongitudeDegrees>
            </Position>
            <AltitudeMeters>-47.59999847412109375</AltitudeMeters>
            <DistanceMeters>NAN</DistanceMeters>
          </Trackpoint>
          <Trackpoint>
            <Time>2022-07-12T17:00:19.000Z</Time>
            <Position>
              <LatitudeDegrees>43.3698339946568012237548828125</LatitudeDegrees>
              <LongitudeDegrees>-3.20895203389227390289306640625</LongitudeDegrees>
            </Position>
            <AltitudeMeters>-48.200000762939453125</AltitudeMeters>
            <DistanceMeters>NAN</DistanceMeters>
          </Trackpoint>
          <Trackpoint>
            <Time>2022-07-12T17:00:20.000Z</Time>
            <Position>
              <LatitudeDegrees>43.3698873035609722137451171875</LatitudeDegrees>
              <LongitudeDegrees>-3.2090178318321704864501953125</LongitudeDegrees>
            </Position>
            <AltitudeMeters>-48.59999847412109375</AltitudeMeters>
            <DistanceMeters>NAN</DistanceMeters>
          </Trackpoint>
          <Trackpoint>
            <Time>2022-07-12T17:00:21.000Z</Time>
            <Position>
              <LatitudeDegrees>43.369915969669818878173828125</LatitudeDegrees>
              <LongitudeDegrees>-3.209070302546024322509765625</LongitudeDegrees>
            </Position>
            <AltitudeMeters>-49.200000762939453125</AltitudeMeters>
            <DistanceMeters>NAN</DistanceMeters>
          </Trackpoint>
          <Trackpoint>
            <Time>2022-07-12T17:00:22.000Z</Time>
            <Position>
              <LatitudeDegrees>43.36994639597833156585693359375</LatitudeDegrees>
              <LongitudeDegrees>-3.209137357771396636962890625</LongitudeDegrees>
            </Position>
            <AltitudeMeters>-50</AltitudeMeters>
            <DistanceMeters>NAN</DistanceMeters>
          </Trackpoint>
          <Trackpoint>
            <Time>2022-07-12T17:00:23.000Z</Time>
            <Position>
              <LatitudeDegrees>43.3699795044958591461181640625</LatitudeDegrees>
              <LongitudeDegrees>-3.20921338163316249847412109375</LongitudeDegrees>
            </Position>
            <AltitudeMeters>-50.40000152587890625</AltitudeMeters>
            <DistanceMeters>NAN</DistanceMeters>
          </Trackpoint>
          <Trackpoint>
            <Time>2022-07-12T17:00:26.000Z</Time>
            <Position>
              <LatitudeDegrees>43.37008654139935970306396484375</LatitudeDegrees>
              <LongitudeDegrees>-3.2093484140932559967041015625</LongitudeDegrees>
            </Position>
            <AltitudeMeters>-51.40000152587890625</AltitudeMeters>
            <DistanceMeters>NAN</DistanceMeters>
          </Trackpoint>
          <Trackpoint>
            <Time>2022-07-12T17:00:27.000Z</Time>
            <Position>
              <LatitudeDegrees>43.3701146207749843597412109375</LatitudeDegrees>
              <LongitudeDegrees>-3.2093936763703823089599609375</LongitudeDegrees>
            </Position>
            <AltitudeMeters>-51.59999847412109375</AltitudeMeters>
            <DistanceMeters>NAN</DistanceMeters>
          </Trackpoint>
          <Trackpoint>
            <Time>2022-07-12T17:00:29.000Z</Time>
            <Position>
              <LatitudeDegrees>43.37014286778867244720458984375</LatitudeDegrees>
              <LongitudeDegrees>-3.20951521396636962890625</LongitudeDegrees>
            </Position>
            <AltitudeMeters>-52</AltitudeMeters>
            <DistanceMeters>NAN</DistanceMeters>
          </Trackpoint>
          <Trackpoint>
            <Time>2022-07-12T17:00:30.000Z</Time>
            <Position>
              <LatitudeDegrees>43.370149321854114532470703125</LatitudeDegrees>
              <LongitudeDegrees>-3.2095770724117755889892578125</LongitudeDegrees>
            </Position>
            <AltitudeMeters>-52.200000762939453125</AltitudeMeters>
            <DistanceMeters>NAN</DistanceMeters>
          </Trackpoint>
          <Trackpoint>
            <Time>2022-07-12T17:00:33.000Z</Time>
            <Position>
              <LatitudeDegrees>43.3701784908771514892578125</LatitudeDegrees>
              <LongitudeDegrees>-3.2097534276545047760009765625</LongitudeDegrees>
            </Position>
            <AltitudeMeters>-52.59999847412109375</AltitudeMeters>
            <DistanceMeters>NAN</DistanceMeters>
          </Trackpoint>
          <Trackpoint>
            <Time>2022-07-12T17:00:35.000Z</Time>
            <Position>
              <LatitudeDegrees>43.37019450031220912933349609375</LatitudeDegrees>
              <LongitudeDegrees>-3.20987789891660213470458984375</LongitudeDegrees>
            </Position>
            <AltitudeMeters>-53</AltitudeMeters>
            <DistanceMeters>NAN</DistanceMeters>
          </Trackpoint>
          <Trackpoint>
            <Time>2022-07-12T17:00:39.000Z</Time>
            <Position>
              <LatitudeDegrees>43.37022484280169010162353515625</LatitudeDegrees>
              <LongitudeDegrees>-3.21014226414263248443603515625</LongitudeDegrees>
            </Position>
            <AltitudeMeters>-53.200000762939453125</AltitudeMeters>
            <DistanceMeters>NAN</DistanceMeters>
          </Trackpoint>
          <Trackpoint>
            <Time>2022-07-12T17:00:41.000Z</Time>
            <Position>
              <LatitudeDegrees>43.37025870569050312042236328125</LatitudeDegrees>
              <LongitudeDegrees>-3.2102912105619907379150390625</LongitudeDegrees>
            </Position>
            <AltitudeMeters>-53.200000762939453125</AltitudeMeters>
            <DistanceMeters>NAN</DistanceMeters>
          </Trackpoint>
          <Trackpoint>
            <Time>2022-07-12T17:00:44.000Z</Time>
            <Position>
              <LatitudeDegrees>43.37031134404242038726806640625</LatitudeDegrees>
              <LongitudeDegrees>-3.2105222158133983612060546875</LongitudeDegrees>
            </Position>
            <AltitudeMeters>-53.40000152587890625</AltitudeMeters>
            <DistanceMeters>NAN</DistanceMeters>
          </Trackpoint>
          <Trackpoint>
            <Time>2022-07-12T17:00:45.000Z</Time>
            <Position>
              <LatitudeDegrees>43.370327688753604888916015625</LatitudeDegrees>
              <LongitudeDegrees>-3.2105896063148975372314453125</LongitudeDegrees>
            </Position>
            <AltitudeMeters>-53.59999847412109375</AltitudeMeters>
            <DistanceMeters>NAN</DistanceMeters>
          </Trackpoint>
          <Trackpoint>
            <Time>2022-07-12T17:00:46.000Z</Time>
            <Position>
              <LatitudeDegrees>43.37034017778933048248291015625</LatitudeDegrees>
              <LongitudeDegrees>-3.21064333431422710418701171875</LongitudeDegrees>
            </Position>
            <AltitudeMeters>-53.799999237060546875</AltitudeMeters>
            <DistanceMeters>NAN</DistanceMeters>
          </Trackpoint>
          <Trackpoint>
            <Time>2022-07-12T17:00:48.000Z</Time>
            <Position>
              <LatitudeDegrees>43.37036750279366970062255859375</LatitudeDegrees>
              <LongitudeDegrees>-3.21079052053391933441162109375</LongitudeDegrees>
            </Position>
            <AltitudeMeters>-54.200000762939453125</AltitudeMeters>
            <DistanceMeters>NAN</DistanceMeters>
          </Trackpoint>
          <Trackpoint>
            <Time>2022-07-12T17:00:51.000Z</Time>
            <Position>
              <LatitudeDegrees>43.3703801594674587249755859375</LatitudeDegrees>
              <LongitudeDegrees>-3.2109788618981838226318359375</LongitudeDegrees>
            </Position>
            <AltitudeMeters>-54.799999237060546875</AltitudeMeters>
            <DistanceMeters>NAN</DistanceMeters>
          </Trackpoint>
          <Trackpoint>
            <Time>2022-07-12T17:00:52.000Z</Time>
            <Position>
              <LatitudeDegrees>43.37038996629416942596435546875</LatitudeDegrees>
              <LongitudeDegrees>-3.21102621965110301971435546875</LongitudeDegrees>
            </Position>
            <AltitudeMeters>-54.799999237060546875</AltitudeMeters>
            <DistanceMeters>NAN</DistanceMeters>
          </Trackpoint>
          <Trackpoint>
            <Time>2022-07-12T17:00:55.000Z</Time>
            <Position>
              <LatitudeDegrees>43.37042600847780704498291015625</LatitudeDegrees>
              <LongitudeDegrees>-3.211137950420379638671875</LongitudeDegrees>
            </Position>
            <AltitudeMeters>-55.40000152587890625</AltitudeMeters>
            <DistanceMeters>NAN</DistanceMeters>
          </Trackpoint>
          <Trackpoint>
            <Time>2022-07-12T17:00:58.000Z</Time>
            <Position>
              <LatitudeDegrees>43.3704965002834796905517578125</LatitudeDegrees>
              <LongitudeDegrees>-3.21118145249783992767333984375</LongitudeDegrees>
            </Position>
            <AltitudeMeters>-55.799999237060546875</AltitudeMeters>
            <DistanceMeters>NAN</DistanceMeters>
          </Trackpoint>
          <Trackpoint>
            <Time>2022-07-12T17:00:59.000Z</Time>
            <Position>
              <LatitudeDegrees>43.37051971815526485443115234375</LatitudeDegrees>
              <LongitudeDegrees>-3.211187236011028289794921875</LongitudeDegrees>
            </Position>
            <AltitudeMeters>-56</AltitudeMeters>
            <DistanceMeters>NAN</DistanceMeters>
          </Trackpoint>
          <Trackpoint>
            <Time>2022-07-12T17:01:03.000Z</Time>
            <Position>
              <LatitudeDegrees>43.3706024475395679473876953125</LatitudeDegrees>
              <LongitudeDegrees>-3.2111699692904949188232421875</LongitudeDegrees>
            </Position>
            <AltitudeMeters>-56.200000762939453125</AltitudeMeters>
            <DistanceMeters>NAN</DistanceMeters>
          </Trackpoint>
          <Trackpoint>
            <Time>2022-07-12T17:01:04.000Z</Time>
            <Position>
              <LatitudeDegrees>43.37062415666878223419189453125</LatitudeDegrees>
              <LongitudeDegrees>-3.2111582346260547637939453125</LongitudeDegrees>
            </Position>
            <AltitudeMeters>-56.40000152587890625</AltitudeMeters>
            <DistanceMeters>NAN</DistanceMeters>
          </Trackpoint>
          <Trackpoint>
            <Time>2022-07-12T17:01:09.000Z</Time>
            <Position>
              <LatitudeDegrees>43.37071417830884456634521484375</LatitudeDegrees>
              <LongitudeDegrees>-3.2110911794006824493408203125</LongitudeDegrees>
            </Position>
            <AltitudeMeters>-56.40000152587890625</AltitudeMeters>
            <DistanceMeters>NAN</DistanceMeters>
          </Trackpoint>
          <Trackpoint>
            <Time>2022-07-12T17:01:14.000Z</Time>
            <Position>
              <LatitudeDegrees>43.3708840794861316680908203125</LatitudeDegrees>
              <LongitudeDegrees>-3.21099906228482723236083984375</LongitudeDegrees>
            </Position>
            <AltitudeMeters>-56.40000152587890625</AltitudeMeters>
            <DistanceMeters>NAN</DistanceMeters>
          </Trackpoint>
          <Trackpoint>
            <Time>2022-07-12T17:01:19.000Z</Time>
            <Position>
              <LatitudeDegrees>43.37106018327176570892333984375</LatitudeDegrees>
              <LongitudeDegrees>-3.210864029824733734130859375</LongitudeDegrees>
            </Position>
            <AltitudeMeters>-56.200000762939453125</AltitudeMeters>
            <DistanceMeters>NAN</DistanceMeters>
          </Trackpoint>
          <Trackpoint>
            <Time>2022-07-12T17:01:21.000Z</Time>
            <Position>
              <LatitudeDegrees>43.37112790904939174652099609375</LatitudeDegrees>
              <LongitudeDegrees>-3.21080870926380157470703125</LongitudeDegrees>
            </Position>
            <AltitudeMeters>-56.200000762939453125</AltitudeMeters>
            <DistanceMeters>NAN</DistanceMeters>
          </Trackpoint>
          <Trackpoint>
            <Time>2022-07-12T17:01:24.000Z</Time>
            <Position>
              <LatitudeDegrees>43.37123461067676544189453125</LatitudeDegrees>
              <LongitudeDegrees>-3.2107243873178958892822265625</LongitudeDegrees>
            </Position>
            <AltitudeMeters>-56.200000762939453125</AltitudeMeters>
            <DistanceMeters>NAN</DistanceMeters>
          </Trackpoint>
          <Trackpoint>
            <Time>2022-07-12T17:01:26.000Z</Time>
            <Position>
              <LatitudeDegrees>43.371299989521503448486328125</LatitudeDegrees>
              <LongitudeDegrees>-3.210667558014392852783203125</LongitudeDegrees>
            </Position>
            <AltitudeMeters>-56</AltitudeMeters>
            <DistanceMeters>NAN</DistanceMeters>
          </Trackpoint>
          <Trackpoint>
            <Time>2022-07-12T17:01:28.000Z</Time>
            <Position>
              <LatitudeDegrees>43.37136478163301944732666015625</LatitudeDegrees>
              <LongitudeDegrees>-3.21061517111957073211669921875</LongitudeDegrees>
            </Position>
            <AltitudeMeters>-55.799999237060546875</AltitudeMeters>
            <DistanceMeters>NAN</DistanceMeters>
          </Trackpoint>
          <Trackpoint>
            <Time>2022-07-12T17:01:33.000Z</Time>
            <Position>
              <LatitudeDegrees>43.37151984684169292449951171875</LatitudeDegrees>
              <LongitudeDegrees>-3.21047821082174777984619140625</LongitudeDegrees>
            </Position>
            <AltitudeMeters>-56</AltitudeMeters>
            <DistanceMeters>NAN</DistanceMeters>
          </Trackpoint>
          <Trackpoint>
            <Time>2022-07-12T17:01:34.000Z</Time>
            <Position>
              <LatitudeDegrees>43.37155303917825222015380859375</LatitudeDegrees>
              <LongitudeDegrees>-3.21045323275029659271240234375</LongitudeDegrees>
            </Position>
            <AltitudeMeters>-56</AltitudeMeters>
            <DistanceMeters>NAN</DistanceMeters>
          </Trackpoint>
          <Trackpoint>
            <Time>2022-07-12T17:01:42.000Z</Time>
            <Position>
              <LatitudeDegrees>43.3718174882233142852783203125</LatitudeDegrees>
              <LongitudeDegrees>-3.2102322019636631011962890625</LongitudeDegrees>
            </Position>
            <AltitudeMeters>-56</AltitudeMeters>
            <DistanceMeters>NAN</DistanceMeters>
          </Trackpoint>
          <Trackpoint>
            <Time>2022-07-12T17:01:46.000Z</Time>
            <Position>
              <LatitudeDegrees>43.371935002505779266357421875</LatitudeDegrees>
              <LongitudeDegrees>-3.21013840846717357635498046875</LongitudeDegrees>
            </Position>
            <AltitudeMeters>-55.59999847412109375</AltitudeMeters>
            <DistanceMeters>NAN</DistanceMeters>
          </Trackpoint>
          <Trackpoint>
            <Time>2022-07-12T17:01:51.000Z</Time>
            <Position>
              <LatitudeDegrees>43.37209635414183139801025390625</LatitudeDegrees>
              <LongitudeDegrees>-3.210011757910251617431640625</LongitudeDegrees>
            </Position>
            <AltitudeMeters>-55.200000762939453125</AltitudeMeters>
            <DistanceMeters>NAN</DistanceMeters>
          </Trackpoint>
          <Trackpoint>
            <Time>2022-07-12T17:01:59.000Z</Time>
            <Position>
              <LatitudeDegrees>43.372326605021953582763671875</LatitudeDegrees>
              <LongitudeDegrees>-3.20984713733196258544921875</LongitudeDegrees>
            </Position>
            <AltitudeMeters>-55</AltitudeMeters>
            <DistanceMeters>NAN</DistanceMeters>
          </Trackpoint>
          <Trackpoint>
            <Time>2022-07-12T17:02:02.000Z</Time>
            <Position>
              <LatitudeDegrees>43.37240698747336864471435546875</LatitudeDegrees>
              <LongitudeDegrees>-3.20976608432829380035400390625</LongitudeDegrees>
            </Position>
            <AltitudeMeters>-54.799999237060546875</AltitudeMeters>
            <DistanceMeters>NAN</DistanceMeters>
          </Trackpoint>
          <Trackpoint>
            <Time>2022-07-12T17:02:05.000Z</Time>
            <Position>
              <LatitudeDegrees>43.37248510681092739105224609375</LatitudeDegrees>
              <LongitudeDegrees>-3.209703974425792694091796875</LongitudeDegrees>
            </Position>
            <AltitudeMeters>-54.59999847412109375</AltitudeMeters>
            <DistanceMeters>NAN</DistanceMeters>
          </Trackpoint>
          <Trackpoint>
            <Time>2022-07-12T17:02:06.000Z</Time>
            <Position>
              <LatitudeDegrees>43.3725128509104251861572265625</LatitudeDegrees>
              <LongitudeDegrees>-3.209681846201419830322265625</LongitudeDegrees>
            </Position>
            <AltitudeMeters>-54.59999847412109375</AltitudeMeters>
            <DistanceMeters>NAN</DistanceMeters>
          </Trackpoint>
          <Trackpoint>
            <Time>2022-07-12T17:02:13.000Z</Time>
            <Position>
              <LatitudeDegrees>43.3726918883621692657470703125</LatitudeDegrees>
              <LongitudeDegrees>-3.20954798720777034759521484375</LongitudeDegrees>
            </Position>
            <AltitudeMeters>-54.200000762939453125</AltitudeMeters>
            <DistanceMeters>NAN</DistanceMeters>
          </Trackpoint>
          <Trackpoint>
            <Time>2022-07-12T17:02:17.000Z</Time>
            <Position>
              <LatitudeDegrees>43.3727924712002277374267578125</LatitudeDegrees>
              <LongitudeDegrees>-3.20943231694400310516357421875</LongitudeDegrees>
            </Position>
            <AltitudeMeters>-53.799999237060546875</AltitudeMeters>
            <DistanceMeters>NAN</DistanceMeters>
          </Trackpoint>
          <Trackpoint>
            <Time>2022-07-12T17:02:20.000Z</Time>
            <Position>
              <LatitudeDegrees>43.37287033908069133758544921875</LatitudeDegrees>
              <LongitudeDegrees>-3.20935604162514209747314453125</LongitudeDegrees>
            </Position>
            <AltitudeMeters>-53.59999847412109375</AltitudeMeters>
            <DistanceMeters>NAN</DistanceMeters>
          </Trackpoint>
          <Trackpoint>
            <Time>2022-07-12T17:02:27.000Z</Time>
            <Position>
              <LatitudeDegrees>43.3730388991534709930419921875</LatitudeDegrees>
              <LongitudeDegrees>-3.20921706967055797576904296875</LongitudeDegrees>
            </Position>
            <AltitudeMeters>-53.40000152587890625</AltitudeMeters>
            <DistanceMeters>NAN</DistanceMeters>
          </Trackpoint>
          <Trackpoint>
            <Time>2022-07-12T17:02:32.000Z</Time>
            <Position>
              <LatitudeDegrees>43.37315398268401622772216796875</LatitudeDegrees>
              <LongitudeDegrees>-3.209086395800113677978515625</LongitudeDegrees>
            </Position>
            <AltitudeMeters>-53.59999847412109375</AltitudeMeters>
            <DistanceMeters>NAN</DistanceMeters>
          </Trackpoint>
          <Trackpoint>
            <Time>2022-07-12T17:02:37.000Z</Time>
            <Position>
              <LatitudeDegrees>43.37326638400554656982421875</LatitudeDegrees>
              <LongitudeDegrees>-3.208933174610137939453125</LongitudeDegrees>
            </Position>
            <AltitudeMeters>-53.59999847412109375</AltitudeMeters>
            <DistanceMeters>NAN</DistanceMeters>
          </Trackpoint>
          <Trackpoint>
            <Time>2022-07-12T17:02:41.000Z</Time>
            <Position>
              <LatitudeDegrees>43.373339138925075531005859375</LatitudeDegrees>
              <LongitudeDegrees>-3.20878230035305023193359375</LongitudeDegrees>
            </Position>
            <AltitudeMeters>-53.40000152587890625</AltitudeMeters>
            <DistanceMeters>NAN</DistanceMeters>
          </Trackpoint>
          <Trackpoint>
            <Time>2022-07-12T17:02:42.000Z</Time>
            <Position>
              <LatitudeDegrees>43.37336487136781215667724609375</LatitudeDegrees>
              <LongitudeDegrees>-3.208772577345371246337890625</LongitudeDegrees>
            </Position>
            <AltitudeMeters>-53.40000152587890625</AltitudeMeters>
            <DistanceMeters>NAN</DistanceMeters>
          </Trackpoint>
          <Trackpoint>
            <Time>2022-07-12T17:02:43.000Z</Time>
            <Position>
              <LatitudeDegrees>43.373396806418895721435546875</LatitudeDegrees>
              <LongitudeDegrees>-3.20877584628760814666748046875</LongitudeDegrees>
            </Position>
            <AltitudeMeters>-53.200000762939453125</AltitudeMeters>
            <DistanceMeters>NAN</DistanceMeters>
          </Trackpoint>
          <Trackpoint>
            <Time>2022-07-12T17:02:44.000Z</Time>
            <Position>
              <LatitudeDegrees>43.37342421524226665496826171875</LatitudeDegrees>
              <LongitudeDegrees>-3.2087972201406955718994140625</LongitudeDegrees>
            </Position>
            <AltitudeMeters>-53.200000762939453125</AltitudeMeters>
            <DistanceMeters>NAN</DistanceMeters>
          </Trackpoint>
          <Trackpoint>
            <Time>2022-07-12T17:02:46.000Z</Time>
            <Position>
              <LatitudeDegrees>43.3734727464616298675537109375</LatitudeDegrees>
              <LongitudeDegrees>-3.20887424983084201812744140625</LongitudeDegrees>
            </Position>
            <AltitudeMeters>-53.200000762939453125</AltitudeMeters>
            <DistanceMeters>NAN</DistanceMeters>
          </Trackpoint>
          <Trackpoint>
            <Time>2022-07-12T17:02:47.000Z</Time>
            <Position>
              <LatitudeDegrees>43.37348163127899169921875</LatitudeDegrees>
              <LongitudeDegrees>-3.2089211046695709228515625</LongitudeDegrees>
            </Position>
            <AltitudeMeters>-53.200000762939453125</AltitudeMeters>
            <DistanceMeters>NAN</DistanceMeters>
          </Trackpoint>
          <Trackpoint>
            <Time>2022-07-12T17:02:50.000Z</Time>
            <Position>
              <LatitudeDegrees>43.3734553121030330657958984375</LatitudeDegrees>
              <LongitudeDegrees>-3.2090624235570430755615234375</LongitudeDegrees>
            </Position>
            <AltitudeMeters>-53.59999847412109375</AltitudeMeters>
            <DistanceMeters>NAN</DistanceMeters>
          </Trackpoint>
          <Trackpoint>
            <Time>2022-07-12T17:02:54.000Z</Time>
            <Position>
              <LatitudeDegrees>43.37344902567565441131591796875</LatitudeDegrees>
              <LongitudeDegrees>-3.20929468609392642974853515625</LongitudeDegrees>
            </Position>
            <AltitudeMeters>-53.799999237060546875</AltitudeMeters>
            <DistanceMeters>NAN</DistanceMeters>
          </Trackpoint>
          <Trackpoint>
            <Time>2022-07-12T17:02:57.000Z</Time>
            <Position>
              <LatitudeDegrees>43.37349881418049335479736328125</LatitudeDegrees>
              <LongitudeDegrees>-3.2094151340425014495849609375</LongitudeDegrees>
            </Position>
            <AltitudeMeters>-54.200000762939453125</AltitudeMeters>
            <DistanceMeters>NAN</DistanceMeters>
          </Trackpoint>
          <Trackpoint>
            <Time>2022-07-12T17:03:00.000Z</Time>
            <Position>
              <LatitudeDegrees>43.37353720329701900482177734375</LatitudeDegrees>
              <LongitudeDegrees>-3.20952619425952434539794921875</LongitudeDegrees>
            </Position>
            <AltitudeMeters>-54.200000762939453125</AltitudeMeters>
            <DistanceMeters>NAN</DistanceMeters>
          </Trackpoint>
          <Trackpoint>
            <Time>2022-07-12T17:03:02.000Z</Time>
            <Position>
              <LatitudeDegrees>43.3735636062920093536376953125</LatitudeDegrees>
              <LongitudeDegrees>-3.209612779319286346435546875</LongitudeDegrees>
            </Position>
            <AltitudeMeters>-54.40000152587890625</AltitudeMeters>
            <DistanceMeters>NAN</DistanceMeters>
          </Trackpoint>
          <Trackpoint>
            <Time>2022-07-12T17:03:05.000Z</Time>
            <Position>
              <LatitudeDegrees>43.3735947869718074798583984375</LatitudeDegrees>
              <LongitudeDegrees>-3.20976373739540576934814453125</LongitudeDegrees>
            </Position>
            <AltitudeMeters>-55</AltitudeMeters>
            <DistanceMeters>NAN</DistanceMeters>
          </Trackpoint>
          <Trackpoint>
            <Time>2022-07-12T17:03:07.000Z</Time>
            <Position>
              <LatitudeDegrees>43.373591601848602294921875</LatitudeDegrees>
              <LongitudeDegrees>-3.2098717801272869110107421875</LongitudeDegrees>
            </Position>
            <AltitudeMeters>-55.200000762939453125</AltitudeMeters>
            <DistanceMeters>NAN</DistanceMeters>
          </Trackpoint>
          <Trackpoint>
            <Time>2022-07-12T17:03:11.000Z</Time>
            <Position>
              <LatitudeDegrees>43.37361699901521205902099609375</LatitudeDegrees>
              <LongitudeDegrees>-3.2100149430334568023681640625</LongitudeDegrees>
            </Position>
            <AltitudeMeters>-55.40000152587890625</AltitudeMeters>
            <DistanceMeters>NAN</DistanceMeters>
          </Trackpoint>
          <Trackpoint>
            <Time>2022-07-12T17:03:16.000Z</Time>
            <Position>
              <LatitudeDegrees>43.3736182563006877899169921875</LatitudeDegrees>
              <LongitudeDegrees>-3.2101225666701793670654296875</LongitudeDegrees>
            </Position>
            <AltitudeMeters>-55.59999847412109375</AltitudeMeters>
            <DistanceMeters>NAN</DistanceMeters>
          </Trackpoint>
          <Trackpoint>
            <Time>2022-07-12T17:03:18.000Z</Time>
            <Position>
              <LatitudeDegrees>43.37360878475010395050048828125</LatitudeDegrees>
              <LongitudeDegrees>-3.2101705111563205718994140625</LongitudeDegrees>
            </Position>
            <AltitudeMeters>-55.59999847412109375</AltitudeMeters>
            <DistanceMeters>NAN</DistanceMeters>
          </Trackpoint>
          <Trackpoint>
            <Time>2022-07-12T17:03:21.000Z</Time>
            <Position>
              <LatitudeDegrees>43.37360073812305927276611328125</LatitudeDegrees>
              <LongitudeDegrees>-3.210235722362995147705078125</LongitudeDegrees>
            </Position>
            <AltitudeMeters>-55.59999847412109375</AltitudeMeters>
            <DistanceMeters>NAN</DistanceMeters>
          </Trackpoint>
          <Trackpoint>
            <Time>2022-07-12T17:03:23.000Z</Time>
            <Position>
              <LatitudeDegrees>43.373592607676982879638671875</LatitudeDegrees>
              <LongitudeDegrees>-3.210295401513576507568359375</LongitudeDegrees>
            </Position>
            <AltitudeMeters>-55.59999847412109375</AltitudeMeters>
            <DistanceMeters>NAN</DistanceMeters>
          </Trackpoint>
          <Trackpoint>
            <Time>2022-07-12T17:03:25.000Z</Time>
            <Position>
              <LatitudeDegrees>43.37358330376446247100830078125</LatitudeDegrees>
              <LongitudeDegrees>-3.21036480367183685302734375</LongitudeDegrees>
            </Position>
            <AltitudeMeters>-55.59999847412109375</AltitudeMeters>
            <DistanceMeters>NAN</DistanceMeters>
          </Trackpoint>
          <Trackpoint>
            <Time>2022-07-12T17:03:31.000Z</Time>
            <Position>
              <LatitudeDegrees>43.373591601848602294921875</LatitudeDegrees>
              <LongitudeDegrees>-3.2105916179716587066650390625</LongitudeDegrees>
            </Position>
            <AltitudeMeters>-55.59999847412109375</AltitudeMeters>
            <DistanceMeters>NAN</DistanceMeters>
          </Trackpoint>
          <Trackpoint>
            <Time>2022-07-12T17:03:37.000Z</Time>
            <Position>
              <LatitudeDegrees>43.37359118275344371795654296875</LatitudeDegrees>
              <LongitudeDegrees>-3.2108491100370883941650390625</LongitudeDegrees>
            </Position>
            <AltitudeMeters>-55.59999847412109375</AltitudeMeters>
            <DistanceMeters>NAN</DistanceMeters>
          </Trackpoint>
          <Trackpoint>
            <Time>2022-07-12T17:03:39.000Z</Time>
            <Position>
              <LatitudeDegrees>43.37359738536179065704345703125</LatitudeDegrees>
              <LongitudeDegrees>-3.2109473459422588348388671875</LongitudeDegrees>
            </Position>
            <AltitudeMeters>-55.59999847412109375</AltitudeMeters>
            <DistanceMeters>NAN</DistanceMeters>
          </Trackpoint>
          <Trackpoint>
            <Time>2022-07-12T17:03:44.000Z</Time>
            <Position>
              <LatitudeDegrees>43.37360744364559650421142578125</LatitudeDegrees>
              <LongitudeDegrees>-3.21116770617663860321044921875</LongitudeDegrees>
            </Position>
            <AltitudeMeters>-55.799999237060546875</AltitudeMeters>
            <DistanceMeters>NAN</DistanceMeters>
          </Trackpoint>
          <Trackpoint>
            <Time>2022-07-12T17:03:45.000Z</Time>
            <Position>
              <LatitudeDegrees>43.37361632846295833587646484375</LatitudeDegrees>
              <LongitudeDegrees>-3.2112108729779720306396484375</LongitudeDegrees>
            </Position>
            <AltitudeMeters>-55.799999237060546875</AltitudeMeters>
            <DistanceMeters>NAN</DistanceMeters>
          </Trackpoint>
          <Trackpoint>
            <Time>2022-07-12T17:03:51.000Z</Time>
            <Position>
              <LatitudeDegrees>43.37365672923624515533447265625</LatitudeDegrees>
              <LongitudeDegrees>-3.21147616021335124969482421875</LongitudeDegrees>
            </Position>
            <AltitudeMeters>-55.799999237060546875</AltitudeMeters>
            <DistanceMeters>NAN</DistanceMeters>
          </Trackpoint>
          <Trackpoint>
            <Time>2022-07-12T17:03:53.000Z</Time>
            <Position>
              <LatitudeDegrees>43.37364457547664642333984375</LatitudeDegrees>
              <LongitudeDegrees>-3.2115454785525798797607421875</LongitudeDegrees>
            </Position>
            <AltitudeMeters>-56</AltitudeMeters>
            <DistanceMeters>NAN</DistanceMeters>
          </Trackpoint>
          <Trackpoint>
            <Time>2022-07-12T17:03:56.000Z</Time>
            <Position>
              <LatitudeDegrees>43.37365170009434223175048828125</LatitudeDegrees>
              <LongitudeDegrees>-3.21167766116559505462646484375</LongitudeDegrees>
            </Position>
            <AltitudeMeters>-56</AltitudeMeters>
            <DistanceMeters>NAN</DistanceMeters>
          </Trackpoint>
          <Trackpoint>
            <Time>2022-07-12T17:04:05.000Z</Time>
            <Position>
              <LatitudeDegrees>43.37379419244825839996337890625</LatitudeDegrees>
              <LongitudeDegrees>-3.21212391369044780731201171875</LongitudeDegrees>
            </Position>
            <AltitudeMeters>-56</AltitudeMeters>
            <DistanceMeters>NAN</DistanceMeters>
          </Trackpoint>
          <Trackpoint>
            <Time>2022-07-12T17:04:09.000Z</Time>
            <Position>
              <LatitudeDegrees>43.373848758637905120849609375</LatitudeDegrees>
              <LongitudeDegrees>-3.21225970052182674407958984375</LongitudeDegrees>
            </Position>
            <AltitudeMeters>-56.200000762939453125</AltitudeMeters>
            <DistanceMeters>NAN</DistanceMeters>
          </Trackpoint>
          <Trackpoint>
            <Time>2022-07-12T17:04:10.000Z</Time>
            <Position>
              <LatitudeDegrees>43.3738643489778041839599609375</LatitudeDegrees>
              <LongitudeDegrees>-3.21226623840630054473876953125</LongitudeDegrees>
            </Position>
            <AltitudeMeters>-56.200000762939453125</AltitudeMeters>
            <DistanceMeters>NAN</DistanceMeters>
          </Trackpoint>
          <Trackpoint>
            <Time>2022-07-12T17:04:13.000Z</Time>
            <Position>
              <LatitudeDegrees>43.373907767236232757568359375</LatitudeDegrees>
              <LongitudeDegrees>-3.2122666575014591217041015625</LongitudeDegrees>
            </Position>
            <AltitudeMeters>-56.40000152587890625</AltitudeMeters>
            <DistanceMeters>NAN</DistanceMeters>
          </Trackpoint>
          <Trackpoint>
            <Time>2022-07-12T17:04:15.000Z</Time>
            <Position>
              <LatitudeDegrees>43.3739362657070159912109375</LatitudeDegrees>
              <LongitudeDegrees>-3.2122733630239963531494140625</LongitudeDegrees>
            </Position>
            <AltitudeMeters>-56.40000152587890625</AltitudeMeters>
            <DistanceMeters>NAN</DistanceMeters>
          </Trackpoint>
          <Trackpoint>
            <Time>2022-07-12T17:04:16.000Z</Time>
            <Position>
              <LatitudeDegrees>43.37394976057112216949462890625</LatitudeDegrees>
              <LongitudeDegrees>-3.21228124201297760009765625</LongitudeDegrees>
            </Position>
            <AltitudeMeters>-56.40000152587890625</AltitudeMeters>
            <DistanceMeters>NAN</DistanceMeters>
          </Trackpoint>
          <Trackpoint>
            <Time>2022-07-12T17:04:19.000Z</Time>
            <Position>
              <LatitudeDegrees>43.37396048940718173980712890625</LatitudeDegrees>
              <LongitudeDegrees>-3.21234938688576221466064453125</LongitudeDegrees>
            </Position>
            <AltitudeMeters>-56.59999847412109375</AltitudeMeters>
            <DistanceMeters>NAN</DistanceMeters>
          </Trackpoint>
          <Trackpoint>
            <Time>2022-07-12T17:04:22.000Z</Time>
            <Position>
              <LatitudeDegrees>43.373967446386814117431640625</LatitudeDegrees>
              <LongitudeDegrees>-3.212380819022655487060546875</LongitudeDegrees>
            </Position>
            <AltitudeMeters>-57</AltitudeMeters>
            <DistanceMeters>NAN</DistanceMeters>
          </Trackpoint>
          <Trackpoint>
            <Time>2022-07-12T17:04:23.000Z</Time>
            <Position>
              <LatitudeDegrees>43.373967446386814117431640625</LatitudeDegrees>
              <LongitudeDegrees>-3.212380819022655487060546875</LongitudeDegrees>
            </Position>
            <AltitudeMeters>-57.200000762939453125</AltitudeMeters>
            <DistanceMeters>NAN</DistanceMeters>
          </Trackpoint>
          <Trackpoint>
            <Time>2022-07-12T17:06:09.000Z</Time>
            <Position>
              <LatitudeDegrees>43.374004662036895751953125</LatitudeDegrees>
              <LongitudeDegrees>-3.212443850934505462646484375</LongitudeDegrees>
            </Position>
            <AltitudeMeters>-58</AltitudeMeters>
            <DistanceMeters>NAN</DistanceMeters>
          </Trackpoint>
          <Trackpoint>
            <Time>2022-07-12T17:06:10.000Z</Time>
            <Position>
              <LatitudeDegrees>43.37400742806494235992431640625</LatitudeDegrees>
              <LongitudeDegrees>-3.21245231665670871734619140625</LongitudeDegrees>
            </Position>
            <AltitudeMeters>-58</AltitudeMeters>
            <DistanceMeters>NAN</DistanceMeters>
          </Trackpoint>
          <Trackpoint>
            <Time>2022-07-12T17:06:12.000Z</Time>
            <Position>
              <LatitudeDegrees>43.37400742806494235992431640625</LatitudeDegrees>
              <LongitudeDegrees>-3.21245231665670871734619140625</LongitudeDegrees>
            </Position>
            <AltitudeMeters>-58.200000762939453125</AltitudeMeters>
            <DistanceMeters>NAN</DistanceMeters>
          </Trackpoint>
          <Trackpoint>
            <Time>2022-07-12T17:07:17.000Z</Time>
            <Position>
              <LatitudeDegrees>43.37395370006561279296875</LatitudeDegrees>
              <LongitudeDegrees>-3.2123196311295032501220703125</LongitudeDegrees>
            </Position>
            <AltitudeMeters>-57.40000152587890625</AltitudeMeters>
            <DistanceMeters>NAN</DistanceMeters>
          </Trackpoint>
          <Trackpoint>
            <Time>2022-07-12T17:07:18.000Z</Time>
            <Position>
              <LatitudeDegrees>43.37394624017179012298583984375</LatitudeDegrees>
              <LongitudeDegrees>-3.21229465305805206298828125</LongitudeDegrees>
            </Position>
            <AltitudeMeters>-57.200000762939453125</AltitudeMeters>
            <DistanceMeters>NAN</DistanceMeters>
          </Trackpoint>
          <Trackpoint>
            <Time>2022-07-12T17:07:19.000Z</Time>
            <Position>
              <LatitudeDegrees>43.37394087575376033782958984375</LatitudeDegrees>
              <LongitudeDegrees>-3.2122723571956157684326171875</LongitudeDegrees>
            </Position>
            <AltitudeMeters>-57.200000762939453125</AltitudeMeters>
            <DistanceMeters>NAN</DistanceMeters>
          </Trackpoint>
          <Trackpoint>
            <Time>2022-07-12T17:07:20.000Z</Time>
            <Position>
              <LatitudeDegrees>43.37393282912671566009521484375</LatitudeDegrees>
              <LongitudeDegrees>-3.2122545875608921051025390625</LongitudeDegrees>
            </Position>
            <AltitudeMeters>-57</AltitudeMeters>
            <DistanceMeters>NAN</DistanceMeters>
          </Trackpoint>
          <Trackpoint>
            <Time>2022-07-12T17:07:22.000Z</Time>
            <Position>
              <LatitudeDegrees>43.37391438893973827362060546875</LatitudeDegrees>
              <LongitudeDegrees>-3.2122457027435302734375</LongitudeDegrees>
            </Position>
            <AltitudeMeters>-57</AltitudeMeters>
            <DistanceMeters>NAN</DistanceMeters>
          </Trackpoint>
          <Trackpoint>
            <Time>2022-07-12T17:07:23.000Z</Time>
            <Position>
              <LatitudeDegrees>43.37390835396945476531982421875</LatitudeDegrees>
              <LongitudeDegrees>-3.21224930696189403533935546875</LongitudeDegrees>
            </Position>
            <AltitudeMeters>-57</AltitudeMeters>
            <DistanceMeters>NAN</DistanceMeters>
          </Trackpoint>
          <Trackpoint>
            <Time>2022-07-12T17:07:26.000Z</Time>
            <Position>
              <LatitudeDegrees>43.37391204200685024261474609375</LatitudeDegrees>
              <LongitudeDegrees>-3.21226741187274456024169921875</LongitudeDegrees>
            </Position>
            <AltitudeMeters>-56.799999237060546875</AltitudeMeters>
            <DistanceMeters>NAN</DistanceMeters>
          </Trackpoint>
          <Trackpoint>
            <Time>2022-07-12T17:07:28.000Z</Time>
            <Position>
              <LatitudeDegrees>43.37392679415643215179443359375</LatitudeDegrees>
              <LongitudeDegrees>-3.2122928090393543243408203125</LongitudeDegrees>
            </Position>
            <AltitudeMeters>-56.799999237060546875</AltitudeMeters>
            <DistanceMeters>NAN</DistanceMeters>
          </Trackpoint>
          <Trackpoint>
            <Time>2022-07-12T17:07:33.000Z</Time>
            <Position>
              <LatitudeDegrees>43.37398052215576171875</LatitudeDegrees>
              <LongitudeDegrees>-3.2124081440269947052001953125</LongitudeDegrees>
            </Position>
            <AltitudeMeters>-56.40000152587890625</AltitudeMeters>
            <DistanceMeters>NAN</DistanceMeters>
          </Trackpoint>
          <Trackpoint>
            <Time>2022-07-12T17:07:34.000Z</Time>
            <Position>
              <LatitudeDegrees>43.37399753741919994354248046875</LatitudeDegrees>
              <LongitudeDegrees>-3.2124399952590465545654296875</LongitudeDegrees>
            </Position>
            <AltitudeMeters>-56.40000152587890625</AltitudeMeters>
            <DistanceMeters>NAN</DistanceMeters>
          </Trackpoint>
          <Trackpoint>
            <Time>2022-07-12T17:07:41.000Z</Time>
            <Position>
              <LatitudeDegrees>43.37411421351134777069091796875</LatitudeDegrees>
              <LongitudeDegrees>-3.212698996067047119140625</LongitudeDegrees>
            </Position>
            <AltitudeMeters>-56.200000762939453125</AltitudeMeters>
            <DistanceMeters>NAN</DistanceMeters>
          </Trackpoint>
          <Trackpoint>
            <Time>2022-07-12T17:07:47.000Z</Time>
            <Position>
              <LatitudeDegrees>43.3741857111454010009765625</LatitudeDegrees>
              <LongitudeDegrees>-3.21284173987805843353271484375</LongitudeDegrees>
            </Position>
            <AltitudeMeters>-56.40000152587890625</AltitudeMeters>
            <DistanceMeters>NAN</DistanceMeters>
          </Trackpoint>
          <Trackpoint>
            <Time>2022-07-12T17:07:52.000Z</Time>
            <Position>
              <LatitudeDegrees>43.37425335310399532318115234375</LatitudeDegrees>
              <LongitudeDegrees>-3.2129569910466670989990234375</LongitudeDegrees>
            </Position>
            <AltitudeMeters>-56.40000152587890625</AltitudeMeters>
            <DistanceMeters>NAN</DistanceMeters>
          </Trackpoint>
          <Trackpoint>
            <Time>2022-07-12T17:07:57.000Z</Time>
            <Position>
              <LatitudeDegrees>43.3743297122418880462646484375</LatitudeDegrees>
              <LongitudeDegrees>-3.21311214007437229156494140625</LongitudeDegrees>
            </Position>
            <AltitudeMeters>-56.200000762939453125</AltitudeMeters>
            <DistanceMeters>NAN</DistanceMeters>
          </Trackpoint>
          <Trackpoint>
            <Time>2022-07-12T17:08:00.000Z</Time>
            <Position>
              <LatitudeDegrees>43.3743385970592498779296875</LatitudeDegrees>
              <LongitudeDegrees>-3.21320015005767345428466796875</LongitudeDegrees>
            </Position>
            <AltitudeMeters>-56.200000762939453125</AltitudeMeters>
            <DistanceMeters>NAN</DistanceMeters>
          </Trackpoint>
          <Trackpoint>
            <Time>2022-07-12T17:08:01.000Z</Time>
            <Position>
              <LatitudeDegrees>43.3743545226752758026123046875</LatitudeDegrees>
              <LongitudeDegrees>-3.21323418058454990386962890625</LongitudeDegrees>
            </Position>
            <AltitudeMeters>-56.40000152587890625</AltitudeMeters>
            <DistanceMeters>NAN</DistanceMeters>
          </Trackpoint>
          <Trackpoint>
            <Time>2022-07-12T17:08:07.000Z</Time>
            <Position>
              <LatitudeDegrees>43.37449693121016025543212890625</LatitudeDegrees>
              <LongitudeDegrees>-3.21342729963362216949462890625</LongitudeDegrees>
            </Position>
            <AltitudeMeters>-56.40000152587890625</AltitudeMeters>
            <DistanceMeters>NAN</DistanceMeters>
          </Trackpoint>
          <Trackpoint>
            <Time>2022-07-12T17:08:09.000Z</Time>
            <Position>
              <LatitudeDegrees>43.37457127869129180908203125</LatitudeDegrees>
              <LongitudeDegrees>-3.21347055025398731231689453125</LongitudeDegrees>
            </Position>
            <AltitudeMeters>-56.200000762939453125</AltitudeMeters>
            <DistanceMeters>NAN</DistanceMeters>
          </Trackpoint>
          <Trackpoint>
            <Time>2022-07-12T17:08:11.000Z</Time>
            <Position>
              <LatitudeDegrees>43.37464713491499423980712890625</LatitudeDegrees>
              <LongitudeDegrees>-3.2134565524756908416748046875</LongitudeDegrees>
            </Position>
            <AltitudeMeters>-56</AltitudeMeters>
            <DistanceMeters>NAN</DistanceMeters>
          </Trackpoint>
          <Trackpoint>
            <Time>2022-07-12T17:08:15.000Z</Time>
            <Position>
              <LatitudeDegrees>43.37478451430797576904296875</LatitudeDegrees>
              <LongitudeDegrees>-3.2134270481765270233154296875</LongitudeDegrees>
            </Position>
            <AltitudeMeters>-56</AltitudeMeters>
            <DistanceMeters>NAN</DistanceMeters>
          </Trackpoint>
          <Trackpoint>
            <Time>2022-07-12T17:08:18.000Z</Time>
            <Position>
              <LatitudeDegrees>43.37488870136439800262451171875</LatitudeDegrees>
              <LongitudeDegrees>-3.21338740177452564239501953125</LongitudeDegrees>
            </Position>
            <AltitudeMeters>-56</AltitudeMeters>
            <DistanceMeters>NAN</DistanceMeters>
          </Trackpoint>
          <Trackpoint>
            <Time>2022-07-12T17:08:19.000Z</Time>
            <Position>
              <LatitudeDegrees>43.37492256425321102142333984375</LatitudeDegrees>
              <LongitudeDegrees>-3.2133713923394680023193359375</LongitudeDegrees>
            </Position>
            <AltitudeMeters>-55.799999237060546875</AltitudeMeters>
            <DistanceMeters>NAN</DistanceMeters>
          </Trackpoint>
          <Trackpoint>
            <Time>2022-07-12T17:08:23.000Z</Time>
            <Position>
              <LatitudeDegrees>43.37504762224853038787841796875</LatitudeDegrees>
              <LongitudeDegrees>-3.21335068903863430023193359375</LongitudeDegrees>
            </Position>
            <AltitudeMeters>-55.59999847412109375</AltitudeMeters>
            <DistanceMeters>NAN</DistanceMeters>
          </Trackpoint>
          <Trackpoint>
            <Time>2022-07-12T17:08:26.000Z</Time>
            <Position>
              <LatitudeDegrees>43.37514661252498626708984375</LatitudeDegrees>
              <LongitudeDegrees>-3.21332152001559734344482421875</LongitudeDegrees>
            </Position>
            <AltitudeMeters>-55.40000152587890625</AltitudeMeters>
            <DistanceMeters>NAN</DistanceMeters>
          </Trackpoint>
          <Trackpoint>
            <Time>2022-07-12T17:08:30.000Z</Time>
            <Position>
              <LatitudeDegrees>43.37530042044818401336669921875</LatitudeDegrees>
              <LongitudeDegrees>-3.21326821111142635345458984375</LongitudeDegrees>
            </Position>
            <AltitudeMeters>-55</AltitudeMeters>
            <DistanceMeters>NAN</DistanceMeters>
          </Trackpoint>
          <Trackpoint>
            <Time>2022-07-12T17:08:33.000Z</Time>
            <Position>
              <LatitudeDegrees>43.3754141628742218017578125</LatitudeDegrees>
              <LongitudeDegrees>-3.21324155665934085845947265625</LongitudeDegrees>
            </Position>
            <AltitudeMeters>-55</AltitudeMeters>
            <DistanceMeters>NAN</DistanceMeters>
          </Trackpoint>
          <Trackpoint>
            <Time>2022-07-12T17:08:40.000Z</Time>
            <Position>
              <LatitudeDegrees>43.37567592971026897430419921875</LatitudeDegrees>
              <LongitudeDegrees>-3.21318916976451873779296875</LongitudeDegrees>
            </Position>
            <AltitudeMeters>-54.59999847412109375</AltitudeMeters>
            <DistanceMeters>NAN</DistanceMeters>
          </Trackpoint>
          <Trackpoint>
            <Time>2022-07-12T17:08:45.000Z</Time>
            <Position>
              <LatitudeDegrees>43.3758568949997425079345703125</LatitudeDegrees>
              <LongitudeDegrees>-3.21317651309072971343994140625</LongitudeDegrees>
            </Position>
            <AltitudeMeters>-53.799999237060546875</AltitudeMeters>
            <DistanceMeters>NAN</DistanceMeters>
          </Trackpoint>
          <Trackpoint>
            <Time>2022-07-12T17:08:47.000Z</Time>
            <Position>
              <LatitudeDegrees>43.375923447310924530029296875</LatitudeDegrees>
              <LongitudeDegrees>-3.2131938636302947998046875</LongitudeDegrees>
            </Position>
            <AltitudeMeters>-53.59999847412109375</AltitudeMeters>
            <DistanceMeters>NAN</DistanceMeters>
          </Trackpoint>
          <Trackpoint>
            <Time>2022-07-12T17:08:50.000Z</Time>
            <Position>
              <LatitudeDegrees>43.37602981366217136383056640625</LatitudeDegrees>
              <LongitudeDegrees>-3.21322672069072723388671875</LongitudeDegrees>
            </Position>
            <AltitudeMeters>-53.59999847412109375</AltitudeMeters>
            <DistanceMeters>NAN</DistanceMeters>
          </Trackpoint>
          <Trackpoint>
            <Time>2022-07-12T17:08:52.000Z</Time>
            <Position>
              <LatitudeDegrees>43.3761056698858737945556640625</LatitudeDegrees>
              <LongitudeDegrees>-3.2132567279040813446044921875</LongitudeDegrees>
            </Position>
            <AltitudeMeters>-53.59999847412109375</AltitudeMeters>
            <DistanceMeters>NAN</DistanceMeters>
          </Trackpoint>
          <Trackpoint>
            <Time>2022-07-12T17:08:54.000Z</Time>
            <Position>
              <LatitudeDegrees>43.37617683224380016326904296875</LatitudeDegrees>
              <LongitudeDegrees>-3.2132972963154315948486328125</LongitudeDegrees>
            </Position>
            <AltitudeMeters>-53.40000152587890625</AltitudeMeters>
            <DistanceMeters>NAN</DistanceMeters>
          </Trackpoint>
          <Trackpoint>
            <Time>2022-07-12T17:09:05.000Z</Time>
            <Position>
              <LatitudeDegrees>43.37653675116598606109619140625</LatitudeDegrees>
              <LongitudeDegrees>-3.21350726298987865447998046875</LongitudeDegrees>
            </Position>
            <AltitudeMeters>-53.40000152587890625</AltitudeMeters>
            <DistanceMeters>NAN</DistanceMeters>
          </Trackpoint>
          <Trackpoint>
            <Time>2022-07-12T17:09:16.000Z</Time>
            <Position>
              <LatitudeDegrees>43.376872949302196502685546875</LatitudeDegrees>
              <LongitudeDegrees>-3.213787972927093505859375</LongitudeDegrees>
            </Position>
            <AltitudeMeters>-53.200000762939453125</AltitudeMeters>
            <DistanceMeters>NAN</DistanceMeters>
          </Trackpoint>
          <Trackpoint>
            <Time>2022-07-12T17:09:22.000Z</Time>
            <Position>
              <LatitudeDegrees>43.37703865952789783477783203125</LatitudeDegrees>
              <LongitudeDegrees>-3.21389819495379924774169921875</LongitudeDegrees>
            </Position>
            <AltitudeMeters>-53.200000762939453125</AltitudeMeters>
            <DistanceMeters>NAN</DistanceMeters>
          </Trackpoint>
          <Trackpoint>
            <Time>2022-07-12T17:09:26.000Z</Time>
            <Position>
              <LatitudeDegrees>43.37712968699634075164794921875</LatitudeDegrees>
              <LongitudeDegrees>-3.2139341533184051513671875</LongitudeDegrees>
            </Position>
            <AltitudeMeters>-53.200000762939453125</AltitudeMeters>
            <DistanceMeters>NAN</DistanceMeters>
          </Trackpoint>
          <Trackpoint>
            <Time>2022-07-12T17:09:31.000Z</Time>
            <Position>
              <LatitudeDegrees>43.3772506378591060638427734375</LatitudeDegrees>
              <LongitudeDegrees>-3.21398721076548099517822265625</LongitudeDegrees>
            </Position>
            <AltitudeMeters>-52.799999237060546875</AltitudeMeters>
            <DistanceMeters>NAN</DistanceMeters>
          </Trackpoint>
          <Trackpoint>
            <Time>2022-07-12T17:09:33.000Z</Time>
            <Position>
              <LatitudeDegrees>43.377297408878803253173828125</LatitudeDegrees>
              <LongitudeDegrees>-3.2140318863093852996826171875</LongitudeDegrees>
            </Position>
            <AltitudeMeters>-52.799999237060546875</AltitudeMeters>
            <DistanceMeters>NAN</DistanceMeters>
          </Trackpoint>
          <Trackpoint>
            <Time>2022-07-12T17:09:42.000Z</Time>
            <Position>
              <LatitudeDegrees>43.37754962034523487091064453125</LatitudeDegrees>
              <LongitudeDegrees>-3.21426850743591785430908203125</LongitudeDegrees>
            </Position>
            <AltitudeMeters>-52.59999847412109375</AltitudeMeters>
            <DistanceMeters>NAN</DistanceMeters>
          </Trackpoint>
          <Trackpoint>
            <Time>2022-07-12T17:09:49.000Z</Time>
            <Position>
              <LatitudeDegrees>43.37776185013353824615478515625</LatitudeDegrees>
              <LongitudeDegrees>-3.214439414441585540771484375</LongitudeDegrees>
            </Position>
            <AltitudeMeters>-52.799999237060546875</AltitudeMeters>
            <DistanceMeters>NAN</DistanceMeters>
          </Trackpoint>
          <Trackpoint>
            <Time>2022-07-12T17:09:54.000Z</Time>
            <Position>
              <LatitudeDegrees>43.37791222147643566131591796875</LatitudeDegrees>
              <LongitudeDegrees>-3.21455567143857479095458984375</LongitudeDegrees>
            </Position>
            <AltitudeMeters>-52.59999847412109375</AltitudeMeters>
            <DistanceMeters>NAN</DistanceMeters>
          </Trackpoint>
          <Trackpoint>
            <Time>2022-07-12T17:10:01.000Z</Time>
            <Position>
              <LatitudeDegrees>43.37816921062767505645751953125</LatitudeDegrees>
              <LongitudeDegrees>-3.21476505137979984283447265625</LongitudeDegrees>
            </Position>
            <AltitudeMeters>-52.59999847412109375</AltitudeMeters>
            <DistanceMeters>NAN</DistanceMeters>
          </Trackpoint>
          <Trackpoint>
            <Time>2022-07-12T17:10:04.000Z</Time>
            <Position>
              <LatitudeDegrees>43.3782685361802577972412109375</LatitudeDegrees>
              <LongitudeDegrees>-3.21484333835542201995849609375</LongitudeDegrees>
            </Position>
            <AltitudeMeters>-52.59999847412109375</AltitudeMeters>
            <DistanceMeters>NAN</DistanceMeters>
          </Trackpoint>
          <Trackpoint>
            <Time>2022-07-12T17:10:08.000Z</Time>
            <Position>
              <LatitudeDegrees>43.3783833682537078857421875</LatitudeDegrees>
              <LongitudeDegrees>-3.21495272219181060791015625</LongitudeDegrees>
            </Position>
            <AltitudeMeters>-52.59999847412109375</AltitudeMeters>
            <DistanceMeters>NAN</DistanceMeters>
          </Trackpoint>
          <Trackpoint>
            <Time>2022-07-12T17:10:11.000Z</Time>
            <Position>
              <LatitudeDegrees>43.37847917340695858001708984375</LatitudeDegrees>
              <LongitudeDegrees>-3.21501986123621463775634765625</LongitudeDegrees>
            </Position>
            <AltitudeMeters>-52.40000152587890625</AltitudeMeters>
            <DistanceMeters>NAN</DistanceMeters>
          </Trackpoint>
          <Trackpoint>
            <Time>2022-07-12T17:10:15.000Z</Time>
            <Position>
              <LatitudeDegrees>43.3785952627658843994140625</LatitudeDegrees>
              <LongitudeDegrees>-3.215132765471935272216796875</LongitudeDegrees>
            </Position>
            <AltitudeMeters>-52.40000152587890625</AltitudeMeters>
            <DistanceMeters>NAN</DistanceMeters>
          </Trackpoint>
          <Trackpoint>
            <Time>2022-07-12T17:10:21.000Z</Time>
            <Position>
              <LatitudeDegrees>43.37874018587172031402587890625</LatitudeDegrees>
              <LongitudeDegrees>-3.21532018482685089111328125</LongitudeDegrees>
            </Position>
            <AltitudeMeters>-52.40000152587890625</AltitudeMeters>
            <DistanceMeters>NAN</DistanceMeters>
          </Trackpoint>
          <Trackpoint>
            <Time>2022-07-12T17:10:25.000Z</Time>
            <Position>
              <LatitudeDegrees>43.37884143926203250885009765625</LatitudeDegrees>
              <LongitudeDegrees>-3.21541330777108669281005859375</LongitudeDegrees>
            </Position>
            <AltitudeMeters>-52.59999847412109375</AltitudeMeters>
            <DistanceMeters>NAN</DistanceMeters>
          </Trackpoint>
          <Trackpoint>
            <Time>2022-07-12T17:10:35.000Z</Time>
            <Position>
              <LatitudeDegrees>43.3791164495050907135009765625</LatitudeDegrees>
              <LongitudeDegrees>-3.21566241793334484100341796875</LongitudeDegrees>
            </Position>
            <AltitudeMeters>-52.200000762939453125</AltitudeMeters>
            <DistanceMeters>NAN</DistanceMeters>
          </Trackpoint>
          <Trackpoint>
            <Time>2022-07-12T17:10:42.000Z</Time>
            <Position>
              <LatitudeDegrees>43.37928517721593379974365234375</LatitudeDegrees>
              <LongitudeDegrees>-3.215792588889598846435546875</LongitudeDegrees>
            </Position>
            <AltitudeMeters>-52.200000762939453125</AltitudeMeters>
            <DistanceMeters>NAN</DistanceMeters>
          </Trackpoint>
          <Trackpoint>
            <Time>2022-07-12T17:10:48.000Z</Time>
            <Position>
              <LatitudeDegrees>43.379475362598896026611328125</LatitudeDegrees>
              <LongitudeDegrees>-3.21591488085687160491943359375</LongitudeDegrees>
            </Position>
            <AltitudeMeters>-52.40000152587890625</AltitudeMeters>
            <DistanceMeters>NAN</DistanceMeters>
          </Trackpoint>
          <Trackpoint>
            <Time>2022-07-12T17:10:55.000Z</Time>
            <Position>
              <LatitudeDegrees>43.37965783663094043731689453125</LatitudeDegrees>
              <LongitudeDegrees>-3.216113112866878509521484375</LongitudeDegrees>
            </Position>
            <AltitudeMeters>-52.200000762939453125</AltitudeMeters>
            <DistanceMeters>NAN</DistanceMeters>
          </Trackpoint>
          <Trackpoint>
            <Time>2022-07-12T17:11:01.000Z</Time>
            <Position>
              <LatitudeDegrees>43.37984039448201656341552734375</LatitudeDegrees>
              <LongitudeDegrees>-3.2162435352802276611328125</LongitudeDegrees>
            </Position>
            <AltitudeMeters>-52.40000152587890625</AltitudeMeters>
            <DistanceMeters>NAN</DistanceMeters>
          </Trackpoint>
          <Trackpoint>
            <Time>2022-07-12T17:11:03.000Z</Time>
            <Position>
              <LatitudeDegrees>43.3798926137387752532958984375</LatitudeDegrees>
              <LongitudeDegrees>-3.21630396880209445953369140625</LongitudeDegrees>
            </Position>
            <AltitudeMeters>-52.40000152587890625</AltitudeMeters>
            <DistanceMeters>NAN</DistanceMeters>
          </Trackpoint>
          <Trackpoint>
            <Time>2022-07-12T17:11:07.000Z</Time>
            <Position>
              <LatitudeDegrees>43.37998825125396251678466796875</LatitudeDegrees>
              <LongitudeDegrees>-3.21640622802078723907470703125</LongitudeDegrees>
            </Position>
            <AltitudeMeters>-52.40000152587890625</AltitudeMeters>
            <DistanceMeters>NAN</DistanceMeters>
          </Trackpoint>
          <Trackpoint>
            <Time>2022-07-12T17:11:14.000Z</Time>
            <Position>
              <LatitudeDegrees>43.38015957735478878021240234375</LatitudeDegrees>
              <LongitudeDegrees>-3.21651284582912921905517578125</LongitudeDegrees>
            </Position>
            <AltitudeMeters>-52.40000152587890625</AltitudeMeters>
            <DistanceMeters>NAN</DistanceMeters>
          </Trackpoint>
          <Trackpoint>
            <Time>2022-07-12T17:11:15.000Z</Time>
            <Position>
              <LatitudeDegrees>43.38018388487398624420166015625</LatitudeDegrees>
              <LongitudeDegrees>-3.2165079005062580108642578125</LongitudeDegrees>
            </Position>
            <AltitudeMeters>-52.40000152587890625</AltitudeMeters>
            <DistanceMeters>NAN</DistanceMeters>
          </Trackpoint>
          <Trackpoint>
            <Time>2022-07-12T17:11:19.000Z</Time>
            <Position>
              <LatitudeDegrees>43.3803274668753147125244140625</LatitudeDegrees>
              <LongitudeDegrees>-3.21649155579507350921630859375</LongitudeDegrees>
            </Position>
            <AltitudeMeters>-52.40000152587890625</AltitudeMeters>
            <DistanceMeters>NAN</DistanceMeters>
          </Trackpoint>
          <Trackpoint>
            <Time>2022-07-12T17:11:20.000Z</Time>
            <Position>
              <LatitudeDegrees>43.380366861820220947265625</LatitudeDegrees>
              <LongitudeDegrees>-3.216504044830799102783203125</LongitudeDegrees>
            </Position>
            <AltitudeMeters>-52.59999847412109375</AltitudeMeters>
            <DistanceMeters>NAN</DistanceMeters>
          </Trackpoint>
          <Trackpoint>
            <Time>2022-07-12T17:11:27.000Z</Time>
            <Position>
              <LatitudeDegrees>43.380615971982479095458984375</LatitudeDegrees>
              <LongitudeDegrees>-3.21659381501376628875732421875</LongitudeDegrees>
            </Position>
            <AltitudeMeters>-52.799999237060546875</AltitudeMeters>
            <DistanceMeters>NAN</DistanceMeters>
          </Trackpoint>
          <Trackpoint>
            <Time>2022-07-12T17:11:36.000Z</Time>
            <Position>
              <LatitudeDegrees>43.38095049373805522918701171875</LatitudeDegrees>
              <LongitudeDegrees>-3.21665382944047451019287109375</LongitudeDegrees>
            </Position>
            <AltitudeMeters>-52.799999237060546875</AltitudeMeters>
            <DistanceMeters>NAN</DistanceMeters>
          </Trackpoint>
          <Trackpoint>
            <Time>2022-07-12T17:11:44.000Z</Time>
            <Position>
              <LatitudeDegrees>43.3812571875751018524169921875</LatitudeDegrees>
              <LongitudeDegrees>-3.2167637161910533905029296875</LongitudeDegrees>
            </Position>
            <AltitudeMeters>-52.799999237060546875</AltitudeMeters>
            <DistanceMeters>NAN</DistanceMeters>
          </Trackpoint>
          <Trackpoint>
            <Time>2022-07-12T17:11:52.000Z</Time>
            <Position>
              <LatitudeDegrees>43.38151711039245128631591796875</LatitudeDegrees>
              <LongitudeDegrees>-3.21683404035866260528564453125</LongitudeDegrees>
            </Position>
            <AltitudeMeters>-53.200000762939453125</AltitudeMeters>
            <DistanceMeters>NAN</DistanceMeters>
          </Trackpoint>
          <Trackpoint>
            <Time>2022-07-12T17:11:59.000Z</Time>
            <Position>
              <LatitudeDegrees>43.3817490376532077789306640625</LatitudeDegrees>
              <LongitudeDegrees>-3.21691081859171390533447265625</LongitudeDegrees>
            </Position>
            <AltitudeMeters>-53.200000762939453125</AltitudeMeters>
            <DistanceMeters>NAN</DistanceMeters>
          </Trackpoint>
          <Trackpoint>
            <Time>2022-07-12T17:12:03.000Z</Time>
            <Position>
              <LatitudeDegrees>43.3818694017827510833740234375</LatitudeDegrees>
              <LongitudeDegrees>-3.2169534824788570404052734375</LongitudeDegrees>
            </Position>
            <AltitudeMeters>-53.40000152587890625</AltitudeMeters>
            <DistanceMeters>NAN</DistanceMeters>
          </Trackpoint>
          <Trackpoint>
            <Time>2022-07-12T17:12:06.000Z</Time>
            <Position>
              <LatitudeDegrees>43.38194358162581920623779296875</LatitudeDegrees>
              <LongitudeDegrees>-3.21695029735565185546875</LongitudeDegrees>
            </Position>
            <AltitudeMeters>-53.59999847412109375</AltitudeMeters>
            <DistanceMeters>NAN</DistanceMeters>
          </Trackpoint>
          <Trackpoint>
            <Time>2022-07-12T17:12:08.000Z</Time>
            <Position>
              <LatitudeDegrees>43.38199705816805362701416015625</LatitudeDegrees>
              <LongitudeDegrees>-3.21693445555865764617919921875</LongitudeDegrees>
            </Position>
            <AltitudeMeters>-53.799999237060546875</AltitudeMeters>
            <DistanceMeters>NAN</DistanceMeters>
          </Trackpoint>
          <Trackpoint>
            <Time>2022-07-12T17:12:13.000Z</Time>
            <Position>
              <LatitudeDegrees>43.382060341536998748779296875</LatitudeDegrees>
              <LongitudeDegrees>-3.2169253192842006683349609375</LongitudeDegrees>
            </Position>
            <AltitudeMeters>-53.799999237060546875</AltitudeMeters>
            <DistanceMeters>NAN</DistanceMeters>
          </Trackpoint>
          <Trackpoint>
            <Time>2022-07-12T17:12:14.000Z</Time>
            <Position>
              <LatitudeDegrees>43.382060341536998748779296875</LatitudeDegrees>
              <LongitudeDegrees>-3.2169253192842006683349609375</LongitudeDegrees>
            </Position>
            <AltitudeMeters>-53.799999237060546875</AltitudeMeters>
            <DistanceMeters>NAN</DistanceMeters>
          </Trackpoint>
          <Trackpoint>
            <Time>2022-07-12T17:12:34.000Z</Time>
            <Position>
              <LatitudeDegrees>43.38206293992698192596435546875</LatitudeDegrees>
              <LongitudeDegrees>-3.21700721047818660736083984375</LongitudeDegrees>
            </Position>
            <AltitudeMeters>-54.40000152587890625</AltitudeMeters>
            <DistanceMeters>NAN</DistanceMeters>
          </Trackpoint>
          <Trackpoint>
            <Time>2022-07-12T17:12:36.000Z</Time>
            <Position>
              <LatitudeDegrees>43.3820792846381664276123046875</LatitudeDegrees>
              <LongitudeDegrees>-3.21705901063978672027587890625</LongitudeDegrees>
            </Position>
            <AltitudeMeters>-54.40000152587890625</AltitudeMeters>
            <DistanceMeters>NAN</DistanceMeters>
          </Trackpoint>
          <Trackpoint>
            <Time>2022-07-12T17:12:38.000Z</Time>
            <Position>
              <LatitudeDegrees>43.38210962712764739990234375</LatitudeDegrees>
              <LongitudeDegrees>-3.217084072530269622802734375</LongitudeDegrees>
            </Position>
            <AltitudeMeters>-54.40000152587890625</AltitudeMeters>
            <DistanceMeters>NAN</DistanceMeters>
          </Trackpoint>
          <Trackpoint>
            <Time>2022-07-12T17:12:41.000Z</Time>
            <Position>
              <LatitudeDegrees>43.382168971002101898193359375</LatitudeDegrees>
              <LongitudeDegrees>-3.2171214558184146881103515625</LongitudeDegrees>
            </Position>
            <AltitudeMeters>-54.40000152587890625</AltitudeMeters>
            <DistanceMeters>NAN</DistanceMeters>
          </Trackpoint>
          <Trackpoint>
            <Time>2022-07-12T17:12:46.000Z</Time>
            <Position>
              <LatitudeDegrees>43.38228665292263031005859375</LatitudeDegrees>
              <LongitudeDegrees>-3.21718524210155010223388671875</LongitudeDegrees>
            </Position>
            <AltitudeMeters>-54.59999847412109375</AltitudeMeters>
            <DistanceMeters>NAN</DistanceMeters>
          </Trackpoint>
          <Trackpoint>
            <Time>2022-07-12T17:12:50.000Z</Time>
            <Position>
              <LatitudeDegrees>43.38237877003848552703857421875</LatitudeDegrees>
              <LongitudeDegrees>-3.21725699119269847869873046875</LongitudeDegrees>
            </Position>
            <AltitudeMeters>-54.799999237060546875</AltitudeMeters>
            <DistanceMeters>NAN</DistanceMeters>
          </Trackpoint>
          <Trackpoint>
            <Time>2022-07-12T17:12:52.000Z</Time>
            <Position>
              <LatitudeDegrees>43.38241732679307460784912109375</LatitudeDegrees>
              <LongitudeDegrees>-3.217294625937938690185546875</LongitudeDegrees>
            </Position>
            <AltitudeMeters>-54.799999237060546875</AltitudeMeters>
            <DistanceMeters>NAN</DistanceMeters>
          </Trackpoint>
          <Trackpoint>
            <Time>2022-07-12T17:12:54.000Z</Time>
            <Position>
              <LatitudeDegrees>43.38242352940142154693603515625</LatitudeDegrees>
              <LongitudeDegrees>-3.21736377663910388946533203125</LongitudeDegrees>
            </Position>
            <AltitudeMeters>-54.799999237060546875</AltitudeMeters>
            <DistanceMeters>NAN</DistanceMeters>
          </Trackpoint>
          <Trackpoint>
            <Time>2022-07-12T17:12:58.000Z</Time>
            <Position>
              <LatitudeDegrees>43.3823790214955806732177734375</LatitudeDegrees>
              <LongitudeDegrees>-3.21747441776096820831298828125</LongitudeDegrees>
            </Position>
            <AltitudeMeters>-55</AltitudeMeters>
            <DistanceMeters>NAN</DistanceMeters>
          </Trackpoint>
          <Trackpoint>
            <Time>2022-07-12T17:12:59.000Z</Time>
            <Position>
              <LatitudeDegrees>43.38235613889992237091064453125</LatitudeDegrees>
              <LongitudeDegrees>-3.21749009191989898681640625</LongitudeDegrees>
            </Position>
            <AltitudeMeters>-55</AltitudeMeters>
            <DistanceMeters>NAN</DistanceMeters>
          </Trackpoint>
          <Trackpoint>
            <Time>2022-07-12T17:13:00.000Z</Time>
            <Position>
              <LatitudeDegrees>43.38233493268489837646484375</LatitudeDegrees>
              <LongitudeDegrees>-3.21749470196664333343505859375</LongitudeDegrees>
            </Position>
            <AltitudeMeters>-55</AltitudeMeters>
            <DistanceMeters>NAN</DistanceMeters>
          </Trackpoint>
          <Trackpoint>
            <Time>2022-07-12T17:13:03.000Z</Time>
            <Position>
              <LatitudeDegrees>43.38227500207722187042236328125</LatitudeDegrees>
              <LongitudeDegrees>-3.217477016150951385498046875</LongitudeDegrees>
            </Position>
            <AltitudeMeters>-55</AltitudeMeters>
            <DistanceMeters>NAN</DistanceMeters>
          </Trackpoint>
          <Trackpoint>
            <Time>2022-07-12T17:13:08.000Z</Time>
            <Position>
              <LatitudeDegrees>43.38224465958774089813232421875</LatitudeDegrees>
              <LongitudeDegrees>-3.21746234782040119171142578125</LongitudeDegrees>
            </Position>
            <AltitudeMeters>-55</AltitudeMeters>
            <DistanceMeters>NAN</DistanceMeters>
          </Trackpoint>
          <Trackpoint>
            <Time>2022-07-12T17:17:44.000Z</Time>
            <Position>
              <LatitudeDegrees>43.38223007507622241973876953125</LatitudeDegrees>
              <LongitudeDegrees>-3.217515908181667327880859375</LongitudeDegrees>
            </Position>
            <AltitudeMeters>-54.59999847412109375</AltitudeMeters>
            <DistanceMeters>NAN</DistanceMeters>
          </Trackpoint>
          <Trackpoint>
            <Time>2022-07-12T17:17:45.000Z</Time>
            <Position>
              <LatitudeDegrees>43.3822294883430004119873046875</LatitudeDegrees>
              <LongitudeDegrees>-3.21753376163542270660400390625</LongitudeDegrees>
            </Position>
            <AltitudeMeters>-54.59999847412109375</AltitudeMeters>
            <DistanceMeters>NAN</DistanceMeters>
          </Trackpoint>
          <Trackpoint>
            <Time>2022-07-12T17:17:46.000Z</Time>
            <Position>
              <LatitudeDegrees>43.38222638703882694244384765625</LatitudeDegrees>
              <LongitudeDegrees>-3.2175417244434356689453125</LongitudeDegrees>
            </Position>
            <AltitudeMeters>-54.59999847412109375</AltitudeMeters>
            <DistanceMeters>NAN</DistanceMeters>
          </Trackpoint>
          <Trackpoint>
            <Time>2022-07-12T17:17:51.000Z</Time>
            <Position>
              <LatitudeDegrees>43.38214181363582611083984375</LatitudeDegrees>
              <LongitudeDegrees>-3.2175412215292453765869140625</LongitudeDegrees>
            </Position>
            <AltitudeMeters>-54.59999847412109375</AltitudeMeters>
            <DistanceMeters>NAN</DistanceMeters>
          </Trackpoint>
          <Trackpoint>
            <Time>2022-07-12T17:17:58.000Z</Time>
            <Position>
              <LatitudeDegrees>43.38201977312564849853515625</LatitudeDegrees>
              <LongitudeDegrees>-3.21748632006347179412841796875</LongitudeDegrees>
            </Position>
            <AltitudeMeters>-54.799999237060546875</AltitudeMeters>
            <DistanceMeters>NAN</DistanceMeters>
          </Trackpoint>
          <Trackpoint>
            <Time>2022-07-12T17:18:00.000Z</Time>
            <Position>
              <LatitudeDegrees>43.38207115419209003448486328125</LatitudeDegrees>
              <LongitudeDegrees>-3.21747693233191967010498046875</LongitudeDegrees>
            </Position>
            <AltitudeMeters>-54.799999237060546875</AltitudeMeters>
            <DistanceMeters>NAN</DistanceMeters>
          </Trackpoint>
          <Trackpoint>
            <Time>2022-07-12T17:18:22.000Z</Time>
            <Position>
              <LatitudeDegrees>43.38221666403114795684814453125</LatitudeDegrees>
              <LongitudeDegrees>-3.21776233613491058349609375</LongitudeDegrees>
            </Position>
            <AltitudeMeters>-54.200000762939453125</AltitudeMeters>
            <DistanceMeters>NAN</DistanceMeters>
          </Trackpoint>
          <Trackpoint>
            <Time>2022-07-12T17:18:23.000Z</Time>
            <Position>
              <LatitudeDegrees>43.38222001679241657257080078125</LatitudeDegrees>
              <LongitudeDegrees>-3.21773224510252475738525390625</LongitudeDegrees>
            </Position>
            <AltitudeMeters>-54.200000762939453125</AltitudeMeters>
            <DistanceMeters>NAN</DistanceMeters>
          </Trackpoint>
          <Trackpoint>
            <Time>2022-07-12T17:18:27.000Z</Time>
            <Position>
              <LatitudeDegrees>43.38217341341078281402587890625</LatitudeDegrees>
              <LongitudeDegrees>-3.21755991317331790924072265625</LongitudeDegrees>
            </Position>
            <AltitudeMeters>-54.200000762939453125</AltitudeMeters>
            <DistanceMeters>NAN</DistanceMeters>
          </Trackpoint>
          <Trackpoint>
            <Time>2022-07-12T17:18:35.000Z</Time>
            <Position>
              <LatitudeDegrees>43.38212345726788043975830078125</LatitudeDegrees>
              <LongitudeDegrees>-3.2172914408147335052490234375</LongitudeDegrees>
            </Position>
            <AltitudeMeters>-54.200000762939453125</AltitudeMeters>
            <DistanceMeters>NAN</DistanceMeters>
          </Trackpoint>
          <Trackpoint>
            <Time>2022-07-12T17:18:36.000Z</Time>
            <Position>
              <LatitudeDegrees>43.382125385105609893798828125</LatitudeDegrees>
              <LongitudeDegrees>-3.2173132337629795074462890625</LongitudeDegrees>
            </Position>
            <AltitudeMeters>-54.200000762939453125</AltitudeMeters>
            <DistanceMeters>NAN</DistanceMeters>
          </Trackpoint>
          <Trackpoint>
            <Time>2022-07-12T17:18:39.000Z</Time>
            <Position>
              <LatitudeDegrees>43.3821470104157924652099609375</LatitudeDegrees>
              <LongitudeDegrees>-3.2174265570938587188720703125</LongitudeDegrees>
            </Position>
            <AltitudeMeters>-54.200000762939453125</AltitudeMeters>
            <DistanceMeters>NAN</DistanceMeters>
          </Trackpoint>
          <Trackpoint>
            <Time>2022-07-12T17:18:43.000Z</Time>
            <Position>
              <LatitudeDegrees>43.38206470012664794921875</LatitudeDegrees>
              <LongitudeDegrees>-3.21741901338100433349609375</LongitudeDegrees>
            </Position>
            <AltitudeMeters>-54.200000762939453125</AltitudeMeters>
            <DistanceMeters>NAN</DistanceMeters>
          </Trackpoint>
          <Trackpoint>
            <Time>2022-07-12T17:18:48.000Z</Time>
            <Position>
              <LatitudeDegrees>43.382144160568714141845703125</LatitudeDegrees>
              <LongitudeDegrees>-3.2174919359385967254638671875</LongitudeDegrees>
            </Position>
            <AltitudeMeters>-54.200000762939453125</AltitudeMeters>
            <DistanceMeters>NAN</DistanceMeters>
          </Trackpoint>
          <Trackpoint>
            <Time>2022-07-12T17:18:56.000Z</Time>
            <Position>
              <LatitudeDegrees>43.38224113918840885162353515625</LatitudeDegrees>
              <LongitudeDegrees>-3.217614479362964630126953125</LongitudeDegrees>
            </Position>
            <AltitudeMeters>-54.200000762939453125</AltitudeMeters>
            <DistanceMeters>NAN</DistanceMeters>
          </Trackpoint>
          <Trackpoint>
            <Time>2022-07-12T17:18:58.000Z</Time>
            <Position>
              <LatitudeDegrees>43.3822095394134521484375</LatitudeDegrees>
              <LongitudeDegrees>-3.2175497710704803466796875</LongitudeDegrees>
            </Position>
            <AltitudeMeters>-54.200000762939453125</AltitudeMeters>
            <DistanceMeters>NAN</DistanceMeters>
          </Trackpoint>
          <Trackpoint>
            <Time>2022-07-12T17:19:00.000Z</Time>
            <Position>
              <LatitudeDegrees>43.382206521928310394287109375</LatitudeDegrees>
              <LongitudeDegrees>-3.2174755074083805084228515625</LongitudeDegrees>
            </Position>
            <AltitudeMeters>-54.200000762939453125</AltitudeMeters>
            <DistanceMeters>NAN</DistanceMeters>
          </Trackpoint>
          <Trackpoint>
            <Time>2022-07-12T17:19:01.000Z</Time>
            <Position>
              <LatitudeDegrees>43.38215656578540802001953125</LatitudeDegrees>
              <LongitudeDegrees>-3.2174104638397693634033203125</LongitudeDegrees>
            </Position>
            <AltitudeMeters>-54.200000762939453125</AltitudeMeters>
            <DistanceMeters>NAN</DistanceMeters>
          </Trackpoint>
          <Trackpoint>
            <Time>2022-07-12T17:19:06.000Z</Time>
            <Position>
              <LatitudeDegrees>43.381963782012462615966796875</LatitudeDegrees>
              <LongitudeDegrees>-3.2173380441963672637939453125</LongitudeDegrees>
            </Position>
            <AltitudeMeters>-54.200000762939453125</AltitudeMeters>
            <DistanceMeters>NAN</DistanceMeters>
          </Trackpoint>
          <Trackpoint>
            <Time>2022-07-12T17:19:09.000Z</Time>
            <Position>
              <LatitudeDegrees>43.38194743730127811431884765625</LatitudeDegrees>
              <LongitudeDegrees>-3.2174285687506198883056640625</LongitudeDegrees>
            </Position>
            <AltitudeMeters>-54</AltitudeMeters>
            <DistanceMeters>NAN</DistanceMeters>
          </Trackpoint>
          <Trackpoint>
            <Time>2022-07-12T17:19:10.000Z</Time>
            <Position>
              <LatitudeDegrees>43.381955064833164215087890625</LatitudeDegrees>
              <LongitudeDegrees>-3.2174081169068813323974609375</LongitudeDegrees>
            </Position>
            <AltitudeMeters>-54</AltitudeMeters>
            <DistanceMeters>NAN</DistanceMeters>
          </Trackpoint>
          <Trackpoint>
            <Time>2022-07-12T17:19:13.000Z</Time>
            <Position>
              <LatitudeDegrees>43.38200979866087436676025390625</LatitudeDegrees>
              <LongitudeDegrees>-3.2174714840948581695556640625</LongitudeDegrees>
            </Position>
            <AltitudeMeters>-54</AltitudeMeters>
            <DistanceMeters>NAN</DistanceMeters>
          </Trackpoint>
          <Trackpoint>
            <Time>2022-07-12T17:19:15.000Z</Time>
            <Position>
              <LatitudeDegrees>43.38209110312163829803466796875</LatitudeDegrees>
              <LongitudeDegrees>-3.21750945411622524261474609375</LongitudeDegrees>
            </Position>
            <AltitudeMeters>-54</AltitudeMeters>
            <DistanceMeters>NAN</DistanceMeters>
          </Trackpoint>
          <Trackpoint>
            <Time>2022-07-12T17:19:20.000Z</Time>
            <Position>
              <LatitudeDegrees>43.3822066895663738250732421875</LatitudeDegrees>
              <LongitudeDegrees>-3.21754264645278453826904296875</LongitudeDegrees>
            </Position>
            <AltitudeMeters>-54.200000762939453125</AltitudeMeters>
            <DistanceMeters>NAN</DistanceMeters>
          </Trackpoint>
          <Trackpoint>
            <Time>2022-07-12T17:19:23.000Z</Time>
            <Position>
              <LatitudeDegrees>43.38220861740410327911376953125</LatitudeDegrees>
              <LongitudeDegrees>-3.217498473823070526123046875</LongitudeDegrees>
            </Position>
            <AltitudeMeters>-54</AltitudeMeters>
            <DistanceMeters>NAN</DistanceMeters>
          </Trackpoint>
          <Trackpoint>
            <Time>2022-07-12T17:19:29.000Z</Time>
            <Position>
              <LatitudeDegrees>43.38223745115101337432861328125</LatitudeDegrees>
              <LongitudeDegrees>-3.21738146245479583740234375</LongitudeDegrees>
            </Position>
            <AltitudeMeters>-54</AltitudeMeters>
            <DistanceMeters>NAN</DistanceMeters>
          </Trackpoint>
          <Trackpoint>
            <Time>2022-07-12T17:19:36.000Z</Time>
            <Position>
              <LatitudeDegrees>43.38222253136336803436279296875</LatitudeDegrees>
              <LongitudeDegrees>-3.217561505734920501708984375</LongitudeDegrees>
            </Position>
            <AltitudeMeters>-54</AltitudeMeters>
            <DistanceMeters>NAN</DistanceMeters>
          </Trackpoint>
          <Trackpoint>
            <Time>2022-07-12T17:19:43.000Z</Time>
            <Position>
              <LatitudeDegrees>43.3823347650468349456787109375</LatitudeDegrees>
              <LongitudeDegrees>-3.21793533861637115478515625</LongitudeDegrees>
            </Position>
            <AltitudeMeters>-54</AltitudeMeters>
            <DistanceMeters>NAN</DistanceMeters>
          </Trackpoint>
          <Trackpoint>
            <Time>2022-07-12T17:20:04.000Z</Time>
            <Position>
              <LatitudeDegrees>43.38219889439642429351806640625</LatitudeDegrees>
              <LongitudeDegrees>-3.2176236994564533233642578125</LongitudeDegrees>
            </Position>
            <AltitudeMeters>-53.799999237060546875</AltitudeMeters>
            <DistanceMeters>NAN</DistanceMeters>
          </Trackpoint>
          <Trackpoint>
            <Time>2022-07-12T17:20:06.000Z</Time>
            <Position>
              <LatitudeDegrees>43.382191769778728485107421875</LatitudeDegrees>
              <LongitudeDegrees>-3.21757684461772441864013671875</LongitudeDegrees>
            </Position>
            <AltitudeMeters>-53.799999237060546875</AltitudeMeters>
            <DistanceMeters>NAN</DistanceMeters>
          </Trackpoint>
          <Trackpoint>
            <Time>2022-07-12T17:20:19.000Z</Time>
            <Position>
              <LatitudeDegrees>43.38217936456203460693359375</LatitudeDegrees>
              <LongitudeDegrees>-3.2174235396087169647216796875</LongitudeDegrees>
            </Position>
            <AltitudeMeters>-53.799999237060546875</AltitudeMeters>
            <DistanceMeters>NAN</DistanceMeters>
          </Trackpoint>
          <Trackpoint>
            <Time>2022-07-12T17:20:20.000Z</Time>
            <Position>
              <LatitudeDegrees>43.38220006786286830902099609375</LatitudeDegrees>
              <LongitudeDegrees>-3.21741021238267421722412109375</LongitudeDegrees>
            </Position>
            <AltitudeMeters>-53.799999237060546875</AltitudeMeters>
            <DistanceMeters>NAN</DistanceMeters>
          </Trackpoint>
          <Trackpoint>
            <Time>2022-07-12T17:20:30.000Z</Time>
            <Position>
              <LatitudeDegrees>43.38230534456670284271240234375</LatitudeDegrees>
              <LongitudeDegrees>-3.217432089149951934814453125</LongitudeDegrees>
            </Position>
            <AltitudeMeters>-53.799999237060546875</AltitudeMeters>
            <DistanceMeters>NAN</DistanceMeters>
          </Trackpoint>
          <Trackpoint>
            <Time>2022-07-12T17:20:32.000Z</Time>
            <Position>
              <LatitudeDegrees>43.38227466680109500885009765625</LatitudeDegrees>
              <LongitudeDegrees>-3.21744591929018497467041015625</LongitudeDegrees>
            </Position>
            <AltitudeMeters>-53.59999847412109375</AltitudeMeters>
            <DistanceMeters>NAN</DistanceMeters>
          </Trackpoint>
          <Trackpoint>
            <Time>2022-07-12T17:20:36.000Z</Time>
            <Position>
              <LatitudeDegrees>43.38223225437104701995849609375</LatitudeDegrees>
              <LongitudeDegrees>-3.21747173555195331573486328125</LongitudeDegrees>
            </Position>
            <AltitudeMeters>-53.59999847412109375</AltitudeMeters>
            <DistanceMeters>NAN</DistanceMeters>
          </Trackpoint>
          <Trackpoint>
            <Time>2022-07-12T17:20:37.000Z</Time>
            <Position>
              <LatitudeDegrees>43.38224030099809169769287109375</LatitudeDegrees>
              <LongitudeDegrees>-3.217470645904541015625</LongitudeDegrees>
            </Position>
            <AltitudeMeters>-53.59999847412109375</AltitudeMeters>
            <DistanceMeters>NAN</DistanceMeters>
          </Trackpoint>
          <Trackpoint>
            <Time>2022-07-12T17:20:38.000Z</Time>
            <Position>
              <LatitudeDegrees>43.3822482638061046600341796875</LatitudeDegrees>
              <LongitudeDegrees>-3.21747106499969959259033203125</LongitudeDegrees>
            </Position>
            <AltitudeMeters>-53.59999847412109375</AltitudeMeters>
            <DistanceMeters>NAN</DistanceMeters>
          </Trackpoint>
          <Trackpoint>
            <Time>2022-07-12T17:20:45.000Z</Time>
            <Position>
              <LatitudeDegrees>43.3823428116738796234130859375</LatitudeDegrees>
              <LongitudeDegrees>-3.2175309956073760986328125</LongitudeDegrees>
            </Position>
            <AltitudeMeters>-53.799999237060546875</AltitudeMeters>
            <DistanceMeters>NAN</DistanceMeters>
          </Trackpoint>
          <Trackpoint>
            <Time>2022-07-12T17:20:48.000Z</Time>
            <Position>
              <LatitudeDegrees>43.38236510753631591796875</LatitudeDegrees>
              <LongitudeDegrees>-3.217556811869144439697265625</LongitudeDegrees>
            </Position>
            <AltitudeMeters>-53.799999237060546875</AltitudeMeters>
            <DistanceMeters>NAN</DistanceMeters>
          </Trackpoint>
          <Trackpoint>
            <Time>2022-07-12T17:20:52.000Z</Time>
            <Position>
              <LatitudeDegrees>43.38233954273164272308349609375</LatitudeDegrees>
              <LongitudeDegrees>-3.2175086997449398040771484375</LongitudeDegrees>
            </Position>
            <AltitudeMeters>-53.799999237060546875</AltitudeMeters>
            <DistanceMeters>NAN</DistanceMeters>
          </Trackpoint>
          <Trackpoint>
            <Time>2022-07-12T17:20:57.000Z</Time>
            <Position>
              <LatitudeDegrees>43.38231146335601806640625</LatitudeDegrees>
              <LongitudeDegrees>-3.2175244577229022979736328125</LongitudeDegrees>
            </Position>
            <AltitudeMeters>-53.799999237060546875</AltitudeMeters>
            <DistanceMeters>NAN</DistanceMeters>
          </Trackpoint>
          <Trackpoint>
            <Time>2022-07-12T17:20:58.000Z</Time>
            <Position>
              <LatitudeDegrees>43.38229511864483356475830078125</LatitudeDegrees>
              <LongitudeDegrees>-3.2175257988274097442626953125</LongitudeDegrees>
            </Position>
            <AltitudeMeters>-53.799999237060546875</AltitudeMeters>
            <DistanceMeters>NAN</DistanceMeters>
          </Trackpoint>
          <Trackpoint>
            <Time>2022-07-12T17:20:59.000Z</Time>
            <Position>
              <LatitudeDegrees>43.382268212735652923583984375</LatitudeDegrees>
              <LongitudeDegrees>-3.21751364506781101226806640625</LongitudeDegrees>
            </Position>
            <AltitudeMeters>-53.799999237060546875</AltitudeMeters>
            <DistanceMeters>NAN</DistanceMeters>
          </Trackpoint>
          <Trackpoint>
            <Time>2022-07-12T17:21:02.000Z</Time>
            <Position>
              <LatitudeDegrees>43.382247425615787506103515625</LatitudeDegrees>
              <LongitudeDegrees>-3.21754801087081432342529296875</LongitudeDegrees>
            </Position>
            <AltitudeMeters>-53.59999847412109375</AltitudeMeters>
            <DistanceMeters>NAN</DistanceMeters>
          </Trackpoint>
          <Trackpoint>
            <Time>2022-07-12T17:21:04.000Z</Time>
            <Position>
              <LatitudeDegrees>43.3822724036872386932373046875</LatitudeDegrees>
              <LongitudeDegrees>-3.2175918482244014739990234375</LongitudeDegrees>
            </Position>
            <AltitudeMeters>-53.59999847412109375</AltitudeMeters>
            <DistanceMeters>NAN</DistanceMeters>
          </Trackpoint>
          <Trackpoint>
            <Time>2022-07-12T17:21:10.000Z</Time>
            <Position>
              <LatitudeDegrees>43.38225035928189754486083984375</LatitudeDegrees>
              <LongitudeDegrees>-3.2175978831946849822998046875</LongitudeDegrees>
            </Position>
            <AltitudeMeters>-53.59999847412109375</AltitudeMeters>
            <DistanceMeters>NAN</DistanceMeters>
          </Trackpoint>
          <Trackpoint>
            <Time>2022-07-12T17:21:11.000Z</Time>
            <Position>
              <LatitudeDegrees>43.3822147361934185028076171875</LatitudeDegrees>
              <LongitudeDegrees>-3.2175811193883419036865234375</LongitudeDegrees>
            </Position>
            <AltitudeMeters>-53.59999847412109375</AltitudeMeters>
            <DistanceMeters>NAN</DistanceMeters>
          </Trackpoint>
          <Trackpoint>
            <Time>2022-07-12T17:21:13.000Z</Time>
            <Position>
              <LatitudeDegrees>43.3822274766862392425537109375</LatitudeDegrees>
              <LongitudeDegrees>-3.21756460703909397125244140625</LongitudeDegrees>
            </Position>
            <AltitudeMeters>-53.59999847412109375</AltitudeMeters>
            <DistanceMeters>NAN</DistanceMeters>
          </Trackpoint>
          <Trackpoint>
            <Time>2022-07-12T17:21:14.000Z</Time>
            <Position>
              <LatitudeDegrees>43.3822174184024333953857421875</LatitudeDegrees>
              <LongitudeDegrees>-3.21752554737031459808349609375</LongitudeDegrees>
            </Position>
            <AltitudeMeters>-53.59999847412109375</AltitudeMeters>
            <DistanceMeters>NAN</DistanceMeters>
          </Trackpoint>
          <Trackpoint>
            <Time>2022-07-12T17:21:15.000Z</Time>
            <Position>
              <LatitudeDegrees>43.38222387246787548065185546875</LatitudeDegrees>
              <LongitudeDegrees>-3.21751465089619159698486328125</LongitudeDegrees>
            </Position>
            <AltitudeMeters>-53.59999847412109375</AltitudeMeters>
            <DistanceMeters>NAN</DistanceMeters>
          </Trackpoint>
          <Trackpoint>
            <Time>2022-07-12T17:21:18.000Z</Time>
            <Position>
              <LatitudeDegrees>43.38223594240844249725341796875</LatitudeDegrees>
              <LongitudeDegrees>-3.2175080291926860809326171875</LongitudeDegrees>
            </Position>
            <AltitudeMeters>-53.59999847412109375</AltitudeMeters>
            <DistanceMeters>NAN</DistanceMeters>
          </Trackpoint>
          <Trackpoint>
            <Time>2022-07-12T17:21:25.000Z</Time>
            <Position>
              <LatitudeDegrees>43.38218749500811100006103515625</LatitudeDegrees>
              <LongitudeDegrees>-3.2174563966691493988037109375</LongitudeDegrees>
            </Position>
            <AltitudeMeters>-53.799999237060546875</AltitudeMeters>
            <DistanceMeters>NAN</DistanceMeters>
          </Trackpoint>
          <Trackpoint>
            <Time>2022-07-12T17:21:27.000Z</Time>
            <Position>
              <LatitudeDegrees>43.3822080306708812713623046875</LatitudeDegrees>
              <LongitudeDegrees>-3.2175257988274097442626953125</LongitudeDegrees>
            </Position>
            <AltitudeMeters>-53.799999237060546875</AltitudeMeters>
            <DistanceMeters>NAN</DistanceMeters>
          </Trackpoint>
          <Trackpoint>
            <Time>2022-07-12T17:21:28.000Z</Time>
            <Position>
              <LatitudeDegrees>43.3822462521493434906005859375</LatitudeDegrees>
              <LongitudeDegrees>-3.2175827957689762115478515625</LongitudeDegrees>
            </Position>
            <AltitudeMeters>-53.799999237060546875</AltitudeMeters>
            <DistanceMeters>NAN</DistanceMeters>
          </Trackpoint>
          <Trackpoint>
            <Time>2022-07-12T17:21:30.000Z</Time>
            <Position>
              <LatitudeDegrees>43.3822660334408283233642578125</LatitudeDegrees>
              <LongitudeDegrees>-3.21758790872991085052490234375</LongitudeDegrees>
            </Position>
            <AltitudeMeters>-53.799999237060546875</AltitudeMeters>
            <DistanceMeters>NAN</DistanceMeters>
          </Trackpoint>
          <Trackpoint>
            <Time>2022-07-12T17:21:31.000Z</Time>
            <Position>
              <LatitudeDegrees>43.38226611725986003875732421875</LatitudeDegrees>
              <LongitudeDegrees>-3.21760140359401702880859375</LongitudeDegrees>
            </Position>
            <AltitudeMeters>-53.799999237060546875</AltitudeMeters>
            <DistanceMeters>NAN</DistanceMeters>
          </Trackpoint>
          <Trackpoint>
            <Time>2022-07-12T17:21:35.000Z</Time>
            <Position>
              <LatitudeDegrees>43.3822725713253021240234375</LatitudeDegrees>
              <LongitudeDegrees>-3.21761079132556915283203125</LongitudeDegrees>
            </Position>
            <AltitudeMeters>-53.799999237060546875</AltitudeMeters>
            <DistanceMeters>NAN</DistanceMeters>
          </Trackpoint>
          <Trackpoint>
            <Time>2022-07-12T17:21:37.000Z</Time>
            <Position>
              <LatitudeDegrees>43.3822807855904102325439453125</LatitudeDegrees>
              <LongitudeDegrees>-3.21763182990252971649169921875</LongitudeDegrees>
            </Position>
            <AltitudeMeters>-53.799999237060546875</AltitudeMeters>
            <DistanceMeters>NAN</DistanceMeters>
          </Trackpoint>
          <Trackpoint>
            <Time>2022-07-12T17:21:40.000Z</Time>
            <Position>
              <LatitudeDegrees>43.3822693862020969390869140625</LatitudeDegrees>
              <LongitudeDegrees>-3.217662088572978973388671875</LongitudeDegrees>
            </Position>
            <AltitudeMeters>-53.59999847412109375</AltitudeMeters>
            <DistanceMeters>NAN</DistanceMeters>
          </Trackpoint>
          <Trackpoint>
            <Time>2022-07-12T17:21:41.000Z</Time>
            <Position>
              <LatitudeDegrees>43.3822703920304775238037109375</LatitudeDegrees>
              <LongitudeDegrees>-3.21767793036997318267822265625</LongitudeDegrees>
            </Position>
            <AltitudeMeters>-53.59999847412109375</AltitudeMeters>
            <DistanceMeters>NAN</DistanceMeters>
          </Trackpoint>
          <Trackpoint>
            <Time>2022-07-12T17:21:44.000Z</Time>
            <Position>
              <LatitudeDegrees>43.38227567262947559356689453125</LatitudeDegrees>
              <LongitudeDegrees>-3.2177088595926761627197265625</LongitudeDegrees>
            </Position>
            <AltitudeMeters>-53.59999847412109375</AltitudeMeters>
            <DistanceMeters>NAN</DistanceMeters>
          </Trackpoint>
          <Trackpoint>
            <Time>2022-07-12T17:21:45.000Z</Time>
            <Position>
              <LatitudeDegrees>43.38227852247655391693115234375</LatitudeDegrees>
              <LongitudeDegrees>-3.217725455760955810546875</LongitudeDegrees>
            </Position>
            <AltitudeMeters>-53.59999847412109375</AltitudeMeters>
            <DistanceMeters>NAN</DistanceMeters>
          </Trackpoint>
          <Trackpoint>
            <Time>2022-07-12T17:21:49.000Z</Time>
            <Position>
              <LatitudeDegrees>43.38227458298206329345703125</LatitudeDegrees>
              <LongitudeDegrees>-3.2176890783011913299560546875</LongitudeDegrees>
            </Position>
            <AltitudeMeters>-53.40000152587890625</AltitudeMeters>
            <DistanceMeters>NAN</DistanceMeters>
          </Trackpoint>
          <Trackpoint>
            <Time>2022-07-12T17:21:51.000Z</Time>
            <Position>
              <LatitudeDegrees>43.38226293213665485382080078125</LatitudeDegrees>
              <LongitudeDegrees>-3.21761288680136203765869140625</LongitudeDegrees>
            </Position>
            <AltitudeMeters>-53.40000152587890625</AltitudeMeters>
            <DistanceMeters>NAN</DistanceMeters>
          </Trackpoint>
          <Trackpoint>
            <Time>2022-07-12T17:21:52.000Z</Time>
            <Position>
              <LatitudeDegrees>43.3822511136531829833984375</LatitudeDegrees>
              <LongitudeDegrees>-3.21756175719201564788818359375</LongitudeDegrees>
            </Position>
            <AltitudeMeters>-53.40000152587890625</AltitudeMeters>
            <DistanceMeters>NAN</DistanceMeters>
          </Trackpoint>
          <Trackpoint>
            <Time>2022-07-12T17:21:53.000Z</Time>
            <Position>
              <LatitudeDegrees>43.38224566541612148284912109375</LatitudeDegrees>
              <LongitudeDegrees>-3.21756561286747455596923828125</LongitudeDegrees>
            </Position>
            <AltitudeMeters>-53.40000152587890625</AltitudeMeters>
            <DistanceMeters>NAN</DistanceMeters>
          </Trackpoint>
          <Trackpoint>
            <Time>2022-07-12T17:21:55.000Z</Time>
            <Position>
              <LatitudeDegrees>43.3822231180965900421142578125</LatitudeDegrees>
              <LongitudeDegrees>-3.21756712161004543304443359375</LongitudeDegrees>
            </Position>
            <AltitudeMeters>-53.40000152587890625</AltitudeMeters>
            <DistanceMeters>NAN</DistanceMeters>
          </Trackpoint>
          <Trackpoint>
            <Time>2022-07-12T17:22:44.000Z</Time>
            <Position>
              <LatitudeDegrees>43.3821084536612033843994140625</LatitudeDegrees>
              <LongitudeDegrees>-3.21733460761606693267822265625</LongitudeDegrees>
            </Position>
            <AltitudeMeters>-53</AltitudeMeters>
            <DistanceMeters>NAN</DistanceMeters>
          </Trackpoint>
          <Trackpoint>
            <Time>2022-07-12T17:22:51.000Z</Time>
            <Position>
              <LatitudeDegrees>43.38210954330861568450927734375</LatitudeDegrees>
              <LongitudeDegrees>-3.21734969504177570343017578125</LongitudeDegrees>
            </Position>
            <AltitudeMeters>-52.799999237060546875</AltitudeMeters>
            <DistanceMeters>NAN</DistanceMeters>
          </Trackpoint>
          <Trackpoint>
            <Time>2022-07-12T17:22:53.000Z</Time>
            <Position>
              <LatitudeDegrees>43.38211591355502605438232421875</LatitudeDegrees>
              <LongitudeDegrees>-3.2173303328454494476318359375</LongitudeDegrees>
            </Position>
            <AltitudeMeters>-52.799999237060546875</AltitudeMeters>
            <DistanceMeters>NAN</DistanceMeters>
          </Trackpoint>
          <Trackpoint>
            <Time>2022-07-12T17:22:58.000Z</Time>
            <Position>
              <LatitudeDegrees>43.382074423134326934814453125</LatitudeDegrees>
              <LongitudeDegrees>-3.21711315773427486419677734375</LongitudeDegrees>
            </Position>
            <AltitudeMeters>-53</AltitudeMeters>
            <DistanceMeters>NAN</DistanceMeters>
          </Trackpoint>
          <Trackpoint>
            <Time>2022-07-12T17:23:01.000Z</Time>
            <Position>
              <LatitudeDegrees>43.382044248282909393310546875</LatitudeDegrees>
              <LongitudeDegrees>-3.2170782051980495452880859375</LongitudeDegrees>
            </Position>
            <AltitudeMeters>-53</AltitudeMeters>
            <DistanceMeters>NAN</DistanceMeters>
          </Trackpoint>
          <Trackpoint>
            <Time>2022-07-12T17:23:02.000Z</Time>
            <Position>
              <LatitudeDegrees>43.3820338547229766845703125</LatitudeDegrees>
              <LongitudeDegrees>-3.21705414913594722747802734375</LongitudeDegrees>
            </Position>
            <AltitudeMeters>-53</AltitudeMeters>
            <DistanceMeters>NAN</DistanceMeters>
          </Trackpoint>
          <Trackpoint>
            <Time>2022-07-12T17:23:04.000Z</Time>
            <Position>
              <LatitudeDegrees>43.3821040950715541839599609375</LatitudeDegrees>
              <LongitudeDegrees>-3.21732379496097564697265625</LongitudeDegrees>
            </Position>
            <AltitudeMeters>-53</AltitudeMeters>
            <DistanceMeters>NAN</DistanceMeters>
          </Trackpoint>
          <Trackpoint>
            <Time>2022-07-12T17:23:07.000Z</Time>
            <Position>
              <LatitudeDegrees>43.382109962403774261474609375</LatitudeDegrees>
              <LongitudeDegrees>-3.217497132718563079833984375</LongitudeDegrees>
            </Position>
            <AltitudeMeters>-52.799999237060546875</AltitudeMeters>
            <DistanceMeters>NAN</DistanceMeters>
          </Trackpoint>
          <Trackpoint>
            <Time>2022-07-12T17:23:22.000Z</Time>
            <Position>
              <LatitudeDegrees>43.3822492696344852447509765625</LatitudeDegrees>
              <LongitudeDegrees>-3.21743778884410858154296875</LongitudeDegrees>
            </Position>
            <AltitudeMeters>-52.799999237060546875</AltitudeMeters>
            <DistanceMeters>NAN</DistanceMeters>
          </Trackpoint>
          <Trackpoint>
            <Time>2022-07-12T17:23:23.000Z</Time>
            <Position>
              <LatitudeDegrees>43.3822120539844036102294921875</LatitudeDegrees>
              <LongitudeDegrees>-3.2174299098551273345947265625</LongitudeDegrees>
            </Position>
            <AltitudeMeters>-52.799999237060546875</AltitudeMeters>
            <DistanceMeters>NAN</DistanceMeters>
          </Trackpoint>
          <Trackpoint>
            <Time>2022-07-12T17:23:24.000Z</Time>
            <Position>
              <LatitudeDegrees>43.38219118304550647735595703125</LatitudeDegrees>
              <LongitudeDegrees>-3.21740618906915187835693359375</LongitudeDegrees>
            </Position>
            <AltitudeMeters>-52.799999237060546875</AltitudeMeters>
            <DistanceMeters>NAN</DistanceMeters>
          </Trackpoint>
          <Trackpoint>
            <Time>2022-07-12T17:23:27.000Z</Time>
            <Position>
              <LatitudeDegrees>43.38218498043715953826904296875</LatitudeDegrees>
              <LongitudeDegrees>-3.21741440333425998687744140625</LongitudeDegrees>
            </Position>
            <AltitudeMeters>-52.799999237060546875</AltitudeMeters>
            <DistanceMeters>NAN</DistanceMeters>
          </Trackpoint>
          <Trackpoint>
            <Time>2022-07-12T17:24:18.000Z</Time>
            <Position>
              <LatitudeDegrees>43.38227516971528530120849609375</LatitudeDegrees>
              <LongitudeDegrees>-3.21742513217031955718994140625</LongitudeDegrees>
            </Position>
            <AltitudeMeters>-52.40000152587890625</AltitudeMeters>
            <DistanceMeters>NAN</DistanceMeters>
          </Trackpoint>
          <Trackpoint>
            <Time>2022-07-12T17:24:19.000Z</Time>
            <Position>
              <LatitudeDegrees>43.38230249471962451934814453125</LatitudeDegrees>
              <LongitudeDegrees>-3.2174339331686496734619140625</LongitudeDegrees>
            </Position>
            <AltitudeMeters>-52.40000152587890625</AltitudeMeters>
            <DistanceMeters>NAN</DistanceMeters>
          </Trackpoint>
          <Trackpoint>
            <Time>2022-07-12T17:24:26.000Z</Time>
            <Position>
              <LatitudeDegrees>43.38250332511961460113525390625</LatitudeDegrees>
              <LongitudeDegrees>-3.21754063479602336883544921875</LongitudeDegrees>
            </Position>
            <AltitudeMeters>-52.40000152587890625</AltitudeMeters>
            <DistanceMeters>NAN</DistanceMeters>
          </Trackpoint>
          <Trackpoint>
            <Time>2022-07-12T17:24:31.000Z</Time>
            <Position>
              <LatitudeDegrees>43.3825828693807125091552734375</LatitudeDegrees>
              <LongitudeDegrees>-3.21768145076930522918701171875</LongitudeDegrees>
            </Position>
            <AltitudeMeters>-52.40000152587890625</AltitudeMeters>
            <DistanceMeters>NAN</DistanceMeters>
          </Trackpoint>
          <Trackpoint>
            <Time>2022-07-12T17:24:35.000Z</Time>
            <Position>
              <LatitudeDegrees>43.3826301433145999908447265625</LatitudeDegrees>
              <LongitudeDegrees>-3.21778756566345691680908203125</LongitudeDegrees>
            </Position>
            <AltitudeMeters>-52.200000762939453125</AltitudeMeters>
            <DistanceMeters>NAN</DistanceMeters>
          </Trackpoint>
          <Trackpoint>
            <Time>2022-07-12T17:24:37.000Z</Time>
            <Position>
              <LatitudeDegrees>43.38263173587620258331298828125</LatitudeDegrees>
              <LongitudeDegrees>-3.2178474962711334228515625</LongitudeDegrees>
            </Position>
            <AltitudeMeters>-52.200000762939453125</AltitudeMeters>
            <DistanceMeters>NAN</DistanceMeters>
          </Trackpoint>
          <Trackpoint>
            <Time>2022-07-12T17:24:41.000Z</Time>
            <Position>
              <LatitudeDegrees>43.38267154991626739501953125</LatitudeDegrees>
              <LongitudeDegrees>-3.21794497780501842498779296875</LongitudeDegrees>
            </Position>
            <AltitudeMeters>-52.200000762939453125</AltitudeMeters>
            <DistanceMeters>NAN</DistanceMeters>
          </Trackpoint>
          <Trackpoint>
            <Time>2022-07-12T17:24:45.000Z</Time>
            <Position>
              <LatitudeDegrees>43.38275511749088764190673828125</LatitudeDegrees>
              <LongitudeDegrees>-3.21798403747379779815673828125</LongitudeDegrees>
            </Position>
            <AltitudeMeters>-52.40000152587890625</AltitudeMeters>
            <DistanceMeters>NAN</DistanceMeters>
          </Trackpoint>
          <Trackpoint>
            <Time>2022-07-12T17:24:46.000Z</Time>
            <Position>
              <LatitudeDegrees>43.3827823586761951446533203125</LatitudeDegrees>
              <LongitudeDegrees>-3.21799376048147678375244140625</LongitudeDegrees>
            </Position>
            <AltitudeMeters>-52.40000152587890625</AltitudeMeters>
            <DistanceMeters>NAN</DistanceMeters>
          </Trackpoint>
          <Trackpoint>
            <Time>2022-07-12T17:24:53.000Z</Time>
            <Position>
              <LatitudeDegrees>43.383015207946300506591796875</LatitudeDegrees>
              <LongitudeDegrees>-3.218061737716197967529296875</LongitudeDegrees>
            </Position>
            <AltitudeMeters>-52.40000152587890625</AltitudeMeters>
            <DistanceMeters>NAN</DistanceMeters>
          </Trackpoint>
          <Trackpoint>
            <Time>2022-07-12T17:24:58.000Z</Time>
            <Position>
              <LatitudeDegrees>43.3831407688558101654052734375</LatitudeDegrees>
              <LongitudeDegrees>-3.21798739023506641387939453125</LongitudeDegrees>
            </Position>
            <AltitudeMeters>-52.59999847412109375</AltitudeMeters>
            <DistanceMeters>NAN</DistanceMeters>
          </Trackpoint>
          <Trackpoint>
            <Time>2022-07-12T17:25:04.000Z</Time>
            <Position>
              <LatitudeDegrees>43.383338749408721923828125</LatitudeDegrees>
              <LongitudeDegrees>-3.2178828679025173187255859375</LongitudeDegrees>
            </Position>
            <AltitudeMeters>-52.799999237060546875</AltitudeMeters>
            <DistanceMeters>NAN</DistanceMeters>
          </Trackpoint>
          <Trackpoint>
            <Time>2022-07-12T17:25:06.000Z</Time>
            <Position>
              <LatitudeDegrees>43.3834017813205718994140625</LatitudeDegrees>
              <LongitudeDegrees>-3.21785260923206806182861328125</LongitudeDegrees>
            </Position>
            <AltitudeMeters>-52.799999237060546875</AltitudeMeters>
            <DistanceMeters>NAN</DistanceMeters>
          </Trackpoint>
          <Trackpoint>
            <Time>2022-07-12T17:25:11.000Z</Time>
            <Position>
              <LatitudeDegrees>43.38353379629552364349365234375</LatitudeDegrees>
              <LongitudeDegrees>-3.21776443161070346832275390625</LongitudeDegrees>
            </Position>
            <AltitudeMeters>-53</AltitudeMeters>
            <DistanceMeters>NAN</DistanceMeters>
          </Trackpoint>
          <Trackpoint>
            <Time>2022-07-12T17:25:14.000Z</Time>
            <Position>
              <LatitudeDegrees>43.38360420428216457366943359375</LatitudeDegrees>
              <LongitudeDegrees>-3.217688240110874176025390625</LongitudeDegrees>
            </Position>
            <AltitudeMeters>-53</AltitudeMeters>
            <DistanceMeters>NAN</DistanceMeters>
          </Trackpoint>
          <Trackpoint>
            <Time>2022-07-12T17:25:15.000Z</Time>
            <Position>
              <LatitudeDegrees>43.383630774915218353271484375</LatitudeDegrees>
              <LongitudeDegrees>-3.2176679559051990509033203125</LongitudeDegrees>
            </Position>
            <AltitudeMeters>-53</AltitudeMeters>
            <DistanceMeters>NAN</DistanceMeters>
          </Trackpoint>
          <Trackpoint>
            <Time>2022-07-12T17:25:20.000Z</Time>
            <Position>
              <LatitudeDegrees>43.38375323452055454254150390625</LatitudeDegrees>
              <LongitudeDegrees>-3.21761347353458404541015625</LongitudeDegrees>
            </Position>
            <AltitudeMeters>-53.200000762939453125</AltitudeMeters>
            <DistanceMeters>NAN</DistanceMeters>
          </Trackpoint>
          <Trackpoint>
            <Time>2022-07-12T17:25:23.000Z</Time>
            <Position>
              <LatitudeDegrees>43.38381685316562652587890625</LatitudeDegrees>
              <LongitudeDegrees>-3.2175653614103794097900390625</LongitudeDegrees>
            </Position>
            <AltitudeMeters>-53.200000762939453125</AltitudeMeters>
            <DistanceMeters>NAN</DistanceMeters>
          </Trackpoint>
          <Trackpoint>
            <Time>2022-07-12T17:25:27.000Z</Time>
            <Position>
              <LatitudeDegrees>43.3838770352303981781005859375</LatitudeDegrees>
              <LongitudeDegrees>-3.217524625360965728759765625</LongitudeDegrees>
            </Position>
            <AltitudeMeters>-53.200000762939453125</AltitudeMeters>
            <DistanceMeters>NAN</DistanceMeters>
          </Trackpoint>
          <Trackpoint>
            <Time>2022-07-12T17:25:30.000Z</Time>
            <Position>
              <LatitudeDegrees>43.38393914513289928436279296875</LatitudeDegrees>
              <LongitudeDegrees>-3.217444829642772674560546875</LongitudeDegrees>
            </Position>
            <AltitudeMeters>-53.200000762939453125</AltitudeMeters>
            <DistanceMeters>NAN</DistanceMeters>
          </Trackpoint>
          <Trackpoint>
            <Time>2022-07-12T17:25:34.000Z</Time>
            <Position>
              <LatitudeDegrees>43.383998572826385498046875</LatitudeDegrees>
              <LongitudeDegrees>-3.21736981160938739776611328125</LongitudeDegrees>
            </Position>
            <AltitudeMeters>-53.200000762939453125</AltitudeMeters>
            <DistanceMeters>NAN</DistanceMeters>
          </Trackpoint>
          <Trackpoint>
            <Time>2022-07-12T17:25:37.000Z</Time>
            <Position>
              <LatitudeDegrees>43.38404810987412929534912109375</LatitudeDegrees>
              <LongitudeDegrees>-3.217387497425079345703125</LongitudeDegrees>
            </Position>
            <AltitudeMeters>-53.200000762939453125</AltitudeMeters>
            <DistanceMeters>NAN</DistanceMeters>
          </Trackpoint>
          <Trackpoint>
            <Time>2022-07-12T17:25:39.000Z</Time>
            <Position>
              <LatitudeDegrees>43.38406403549015522003173828125</LatitudeDegrees>
              <LongitudeDegrees>-3.21743435226380825042724609375</LongitudeDegrees>
            </Position>
            <AltitudeMeters>-53</AltitudeMeters>
            <DistanceMeters>NAN</DistanceMeters>
          </Trackpoint>
          <Trackpoint>
            <Time>2022-07-12T17:25:42.000Z</Time>
            <Position>
              <LatitudeDegrees>43.384052552282810211181640625</LatitudeDegrees>
              <LongitudeDegrees>-3.2175157405436038970947265625</LongitudeDegrees>
            </Position>
            <AltitudeMeters>-52.799999237060546875</AltitudeMeters>
            <DistanceMeters>NAN</DistanceMeters>
          </Trackpoint>
          <Trackpoint>
            <Time>2022-07-12T17:25:43.000Z</Time>
            <Position>
              <LatitudeDegrees>43.38404341600835323333740234375</LatitudeDegrees>
              <LongitudeDegrees>-3.21754465810954570770263671875</LongitudeDegrees>
            </Position>
            <AltitudeMeters>-52.799999237060546875</AltitudeMeters>
            <DistanceMeters>NAN</DistanceMeters>
          </Trackpoint>
          <Trackpoint>
            <Time>2022-07-12T17:25:49.000Z</Time>
            <Position>
              <LatitudeDegrees>43.38395632803440093994140625</LatitudeDegrees>
              <LongitudeDegrees>-3.21774481795728206634521484375</LongitudeDegrees>
            </Position>
            <AltitudeMeters>-52.799999237060546875</AltitudeMeters>
            <DistanceMeters>NAN</DistanceMeters>
          </Trackpoint>
          <Trackpoint>
            <Time>2022-07-12T17:25:54.000Z</Time>
            <Position>
              <LatitudeDegrees>43.38389438576996326446533203125</LatitudeDegrees>
              <LongitudeDegrees>-3.217875324189662933349609375</LongitudeDegrees>
            </Position>
            <AltitudeMeters>-52.799999237060546875</AltitudeMeters>
            <DistanceMeters>NAN</DistanceMeters>
          </Trackpoint>
          <Trackpoint>
            <Time>2022-07-12T17:25:55.000Z</Time>
            <Position>
              <LatitudeDegrees>43.38391014374792575836181640625</LatitudeDegrees>
              <LongitudeDegrees>-3.21790625341236591339111328125</LongitudeDegrees>
            </Position>
            <AltitudeMeters>-52.799999237060546875</AltitudeMeters>
            <DistanceMeters>NAN</DistanceMeters>
          </Trackpoint>
          <Trackpoint>
            <Time>2022-07-12T17:25:59.000Z</Time>
            <Position>
              <LatitudeDegrees>43.38393663056194782257080078125</LatitudeDegrees>
              <LongitudeDegrees>-3.2180236838757991790771484375</LongitudeDegrees>
            </Position>
            <AltitudeMeters>-52.40000152587890625</AltitudeMeters>
            <DistanceMeters>NAN</DistanceMeters>
          </Trackpoint>
          <Trackpoint>
            <Time>2022-07-12T17:26:00.000Z</Time>
            <Position>
              <LatitudeDegrees>43.3839243091642856597900390625</LatitudeDegrees>
              <LongitudeDegrees>-3.2180387713015079498291015625</LongitudeDegrees>
            </Position>
            <AltitudeMeters>-52.40000152587890625</AltitudeMeters>
            <DistanceMeters>NAN</DistanceMeters>
          </Trackpoint>
          <Trackpoint>
            <Time>2022-07-12T17:26:03.000Z</Time>
            <Position>
              <LatitudeDegrees>43.3838669769465923309326171875</LatitudeDegrees>
              <LongitudeDegrees>-3.21807271800935268402099609375</LongitudeDegrees>
            </Position>
            <AltitudeMeters>-52.40000152587890625</AltitudeMeters>
            <DistanceMeters>NAN</DistanceMeters>
          </Trackpoint>
          <Trackpoint>
            <Time>2022-07-12T17:26:04.000Z</Time>
            <Position>
              <LatitudeDegrees>43.383829258382320404052734375</LatitudeDegrees>
              <LongitudeDegrees>-3.21807070635259151458740234375</LongitudeDegrees>
            </Position>
            <AltitudeMeters>-52.40000152587890625</AltitudeMeters>
            <DistanceMeters>NAN</DistanceMeters>
          </Trackpoint>
          <Trackpoint>
            <Time>2022-07-12T17:26:06.000Z</Time>
            <Position>
              <LatitudeDegrees>43.38375742547214031219482421875</LatitudeDegrees>
              <LongitudeDegrees>-3.2180608995258808135986328125</LongitudeDegrees>
            </Position>
            <AltitudeMeters>-52.40000152587890625</AltitudeMeters>
            <DistanceMeters>NAN</DistanceMeters>
          </Trackpoint>
          <Trackpoint>
            <Time>2022-07-12T17:26:07.000Z</Time>
            <Position>
              <LatitudeDegrees>43.3837446011602878570556640625</LatitudeDegrees>
              <LongitudeDegrees>-3.21804606355726718902587890625</LongitudeDegrees>
            </Position>
            <AltitudeMeters>-52.40000152587890625</AltitudeMeters>
            <DistanceMeters>NAN</DistanceMeters>
          </Trackpoint>
          <Trackpoint>
            <Time>2022-07-12T17:26:09.000Z</Time>
            <Position>
              <LatitudeDegrees>43.38373898528516292572021484375</LatitudeDegrees>
              <LongitudeDegrees>-3.21798739023506641387939453125</LongitudeDegrees>
            </Position>
            <AltitudeMeters>-52.40000152587890625</AltitudeMeters>
            <DistanceMeters>NAN</DistanceMeters>
          </Trackpoint>
          <Trackpoint>
            <Time>2022-07-12T17:26:11.000Z</Time>
            <Position>
              <LatitudeDegrees>43.3837301842868328094482421875</LatitudeDegrees>
              <LongitudeDegrees>-3.21790583431720733642578125</LongitudeDegrees>
            </Position>
            <AltitudeMeters>-52.40000152587890625</AltitudeMeters>
            <DistanceMeters>NAN</DistanceMeters>
          </Trackpoint>
          <Trackpoint>
            <Time>2022-07-12T17:26:13.000Z</Time>
            <Position>
              <LatitudeDegrees>43.38364946655929088592529296875</LatitudeDegrees>
              <LongitudeDegrees>-3.21781874634325504302978515625</LongitudeDegrees>
            </Position>
            <AltitudeMeters>-52.40000152587890625</AltitudeMeters>
            <DistanceMeters>NAN</DistanceMeters>
          </Trackpoint>
          <Trackpoint>
            <Time>2022-07-12T17:26:14.000Z</Time>
            <Position>
              <LatitudeDegrees>43.38361166417598724365234375</LatitudeDegrees>
              <LongitudeDegrees>-3.21779720485210418701171875</LongitudeDegrees>
            </Position>
            <AltitudeMeters>-52.59999847412109375</AltitudeMeters>
            <DistanceMeters>NAN</DistanceMeters>
          </Trackpoint>
          <Trackpoint>
            <Time>2022-07-12T17:26:15.000Z</Time>
            <Position>
              <LatitudeDegrees>43.38356162421405315399169921875</LatitudeDegrees>
              <LongitudeDegrees>-3.21778647601604461669921875</LongitudeDegrees>
            </Position>
            <AltitudeMeters>-52.59999847412109375</AltitudeMeters>
            <DistanceMeters>NAN</DistanceMeters>
          </Trackpoint>
          <Trackpoint>
            <Time>2022-07-12T17:26:17.000Z</Time>
            <Position>
              <LatitudeDegrees>43.38348266668617725372314453125</LatitudeDegrees>
              <LongitudeDegrees>-3.2177873142063617706298828125</LongitudeDegrees>
            </Position>
            <AltitudeMeters>-52.799999237060546875</AltitudeMeters>
            <DistanceMeters>NAN</DistanceMeters>
          </Trackpoint>
          <Trackpoint>
            <Time>2022-07-12T17:26:18.000Z</Time>
            <Position>
              <LatitudeDegrees>43.38345819152891635894775390625</LatitudeDegrees>
              <LongitudeDegrees>-3.21781053207814693450927734375</LongitudeDegrees>
            </Position>
            <AltitudeMeters>-52.799999237060546875</AltitudeMeters>
            <DistanceMeters>NAN</DistanceMeters>
          </Trackpoint>
          <Trackpoint>
            <Time>2022-07-12T17:26:20.000Z</Time>
            <Position>
              <LatitudeDegrees>43.3833613805472850799560546875</LatitudeDegrees>
              <LongitudeDegrees>-3.217854201793670654296875</LongitudeDegrees>
            </Position>
            <AltitudeMeters>-52.799999237060546875</AltitudeMeters>
            <DistanceMeters>NAN</DistanceMeters>
          </Trackpoint>
          <Trackpoint>
            <Time>2022-07-12T17:26:25.000Z</Time>
            <Position>
              <LatitudeDegrees>43.38320790790021419525146484375</LatitudeDegrees>
              <LongitudeDegrees>-3.217975907027721405029296875</LongitudeDegrees>
            </Position>
            <AltitudeMeters>-53</AltitudeMeters>
            <DistanceMeters>NAN</DistanceMeters>
          </Trackpoint>
          <Trackpoint>
            <Time>2022-07-12T17:26:26.000Z</Time>
            <Position>
              <LatitudeDegrees>43.38317974470555782318115234375</LatitudeDegrees>
              <LongitudeDegrees>-3.21799300611019134521484375</LongitudeDegrees>
            </Position>
            <AltitudeMeters>-53</AltitudeMeters>
            <DistanceMeters>NAN</DistanceMeters>
          </Trackpoint>
          <Trackpoint>
            <Time>2022-07-12T17:26:32.000Z</Time>
            <Position>
              <LatitudeDegrees>43.383032977581024169921875</LatitudeDegrees>
              <LongitudeDegrees>-3.218116723001003265380859375</LongitudeDegrees>
            </Position>
            <AltitudeMeters>-52.59999847412109375</AltitudeMeters>
            <DistanceMeters>NAN</DistanceMeters>
          </Trackpoint>
          <Trackpoint>
            <Time>2022-07-12T17:26:33.000Z</Time>
            <Position>
              <LatitudeDegrees>43.38302819989621639251708984375</LatitudeDegrees>
              <LongitudeDegrees>-3.21815318427979946136474609375</LongitudeDegrees>
            </Position>
            <AltitudeMeters>-52.59999847412109375</AltitudeMeters>
            <DistanceMeters>NAN</DistanceMeters>
          </Trackpoint>
          <Trackpoint>
            <Time>2022-07-12T17:26:35.000Z</Time>
            <Position>
              <LatitudeDegrees>43.38304094038903713226318359375</LatitudeDegrees>
              <LongitudeDegrees>-3.21822233498096466064453125</LongitudeDegrees>
            </Position>
            <AltitudeMeters>-52.59999847412109375</AltitudeMeters>
            <DistanceMeters>NAN</DistanceMeters>
          </Trackpoint>
          <Trackpoint>
            <Time>2022-07-12T17:26:36.000Z</Time>
            <Position>
              <LatitudeDegrees>43.38305510580539703369140625</LatitudeDegrees>
              <LongitudeDegrees>-3.218246810138225555419921875</LongitudeDegrees>
            </Position>
            <AltitudeMeters>-52.59999847412109375</AltitudeMeters>
            <DistanceMeters>NAN</DistanceMeters>
          </Trackpoint>
          <Trackpoint>
            <Time>2022-07-12T17:26:40.000Z</Time>
            <Position>
              <LatitudeDegrees>43.38308729231357574462890625</LatitudeDegrees>
              <LongitudeDegrees>-3.21837848983705043792724609375</LongitudeDegrees>
            </Position>
            <AltitudeMeters>-52.799999237060546875</AltitudeMeters>
            <DistanceMeters>NAN</DistanceMeters>
          </Trackpoint>
          <Trackpoint>
            <Time>2022-07-12T17:26:41.000Z</Time>
            <Position>
              <LatitudeDegrees>43.38308595120906829833984375</LatitudeDegrees>
              <LongitudeDegrees>-3.218436576426029205322265625</LongitudeDegrees>
            </Position>
            <AltitudeMeters>-52.799999237060546875</AltitudeMeters>
            <DistanceMeters>NAN</DistanceMeters>
          </Trackpoint>
          <Trackpoint>
            <Time>2022-07-12T17:26:44.000Z</Time>
            <Position>
              <LatitudeDegrees>43.38309466838836669921875</LatitudeDegrees>
              <LongitudeDegrees>-3.21857026778161525726318359375</LongitudeDegrees>
            </Position>
            <AltitudeMeters>-52.799999237060546875</AltitudeMeters>
            <DistanceMeters>NAN</DistanceMeters>
          </Trackpoint>
          <Trackpoint>
            <Time>2022-07-12T17:26:48.000Z</Time>
            <Position>
              <LatitudeDegrees>43.38313951157033443450927734375</LatitudeDegrees>
              <LongitudeDegrees>-3.2187366485595703125</LongitudeDegrees>
            </Position>
            <AltitudeMeters>-53</AltitudeMeters>
            <DistanceMeters>NAN</DistanceMeters>
          </Trackpoint>
          <Trackpoint>
            <Time>2022-07-12T17:26:49.000Z</Time>
            <Position>
              <LatitudeDegrees>43.38314571417868137359619140625</LatitudeDegrees>
              <LongitudeDegrees>-3.218770511448383331298828125</LongitudeDegrees>
            </Position>
            <AltitudeMeters>-53</AltitudeMeters>
            <DistanceMeters>NAN</DistanceMeters>
          </Trackpoint>
          <Trackpoint>
            <Time>2022-07-12T17:26:53.000Z</Time>
            <Position>
              <LatitudeDegrees>43.38317387737333774566650390625</LatitudeDegrees>
              <LongitudeDegrees>-3.21890638209879398345947265625</LongitudeDegrees>
            </Position>
            <AltitudeMeters>-53.200000762939453125</AltitudeMeters>
            <DistanceMeters>NAN</DistanceMeters>
          </Trackpoint>
          <Trackpoint>
            <Time>2022-07-12T17:26:58.000Z</Time>
            <Position>
              <LatitudeDegrees>43.38324747048318386077880859375</LatitudeDegrees>
              <LongitudeDegrees>-3.21914501488208770751953125</LongitudeDegrees>
            </Position>
            <AltitudeMeters>-53.200000762939453125</AltitudeMeters>
            <DistanceMeters>NAN</DistanceMeters>
          </Trackpoint>
          <Trackpoint>
            <Time>2022-07-12T17:27:02.000Z</Time>
            <Position>
              <LatitudeDegrees>43.38327026925981044769287109375</LatitudeDegrees>
              <LongitudeDegrees>-3.2192932069301605224609375</LongitudeDegrees>
            </Position>
            <AltitudeMeters>-53.200000762939453125</AltitudeMeters>
            <DistanceMeters>NAN</DistanceMeters>
          </Trackpoint>
          <Trackpoint>
            <Time>2022-07-12T17:27:07.000Z</Time>
            <Position>
              <LatitudeDegrees>43.38332542218267917633056640625</LatitudeDegrees>
              <LongitudeDegrees>-3.219494707882404327392578125</LongitudeDegrees>
            </Position>
            <AltitudeMeters>-53.200000762939453125</AltitudeMeters>
            <DistanceMeters>NAN</DistanceMeters>
          </Trackpoint>
          <Trackpoint>
            <Time>2022-07-12T17:27:12.000Z</Time>
            <Position>
              <LatitudeDegrees>43.383329696953296661376953125</LatitudeDegrees>
              <LongitudeDegrees>-3.21974985301494598388671875</LongitudeDegrees>
            </Position>
            <AltitudeMeters>-53.200000762939453125</AltitudeMeters>
            <DistanceMeters>NAN</DistanceMeters>
          </Trackpoint>
          <Trackpoint>
            <Time>2022-07-12T17:27:15.000Z</Time>
            <Position>
              <LatitudeDegrees>43.3832524158060550689697265625</LatitudeDegrees>
              <LongitudeDegrees>-3.2198774255812168121337890625</LongitudeDegrees>
            </Position>
            <AltitudeMeters>-53.200000762939453125</AltitudeMeters>
            <DistanceMeters>NAN</DistanceMeters>
          </Trackpoint>
          <Trackpoint>
            <Time>2022-07-12T17:27:17.000Z</Time>
            <Position>
              <LatitudeDegrees>43.3832661621272563934326171875</LatitudeDegrees>
              <LongitudeDegrees>-3.21996719576418399810791015625</LongitudeDegrees>
            </Position>
            <AltitudeMeters>-53.200000762939453125</AltitudeMeters>
            <DistanceMeters>NAN</DistanceMeters>
          </Trackpoint>
          <Trackpoint>
            <Time>2022-07-12T17:27:19.000Z</Time>
            <Position>
              <LatitudeDegrees>43.3833291940391063690185546875</LatitudeDegrees>
              <LongitudeDegrees>-3.22006073780357837677001953125</LongitudeDegrees>
            </Position>
            <AltitudeMeters>-53.200000762939453125</AltitudeMeters>
            <DistanceMeters>NAN</DistanceMeters>
          </Trackpoint>
          <Trackpoint>
            <Time>2022-07-12T17:27:22.000Z</Time>
            <Position>
              <LatitudeDegrees>43.38340924121439456939697265625</LatitudeDegrees>
              <LongitudeDegrees>-3.22021328844130039215087890625</LongitudeDegrees>
            </Position>
            <AltitudeMeters>-53.200000762939453125</AltitudeMeters>
            <DistanceMeters>NAN</DistanceMeters>
          </Trackpoint>
          <Trackpoint>
            <Time>2022-07-12T17:27:24.000Z</Time>
            <Position>
              <LatitudeDegrees>43.383449055254459381103515625</LatitudeDegrees>
              <LongitudeDegrees>-3.22032384574413299560546875</LongitudeDegrees>
            </Position>
            <AltitudeMeters>-53.200000762939453125</AltitudeMeters>
            <DistanceMeters>NAN</DistanceMeters>
          </Trackpoint>
          <Trackpoint>
            <Time>2022-07-12T17:27:25.000Z</Time>
            <Position>
              <LatitudeDegrees>43.3834733627736568450927734375</LatitudeDegrees>
              <LongitudeDegrees>-3.22037857957184314727783203125</LongitudeDegrees>
            </Position>
            <AltitudeMeters>-53.200000762939453125</AltitudeMeters>
            <DistanceMeters>NAN</DistanceMeters>
          </Trackpoint>
          <Trackpoint>
            <Time>2022-07-12T17:27:32.000Z</Time>
            <Position>
              <LatitudeDegrees>43.3835555054247379302978515625</LatitudeDegrees>
              <LongitudeDegrees>-3.22068057954311370849609375</LongitudeDegrees>
            </Position>
            <AltitudeMeters>-53</AltitudeMeters>
            <DistanceMeters>NAN</DistanceMeters>
          </Trackpoint>
          <Trackpoint>
            <Time>2022-07-12T17:27:36.000Z</Time>
            <Position>
              <LatitudeDegrees>43.3835669048130512237548828125</LatitudeDegrees>
              <LongitudeDegrees>-3.2208376564085483551025390625</LongitudeDegrees>
            </Position>
            <AltitudeMeters>-53</AltitudeMeters>
            <DistanceMeters>NAN</DistanceMeters>
          </Trackpoint>
          <Trackpoint>
            <Time>2022-07-12T17:27:37.000Z</Time>
            <Position>
              <LatitudeDegrees>43.38357754983007907867431640625</LatitudeDegrees>
              <LongitudeDegrees>-3.2208705134689807891845703125</LongitudeDegrees>
            </Position>
            <AltitudeMeters>-53</AltitudeMeters>
            <DistanceMeters>NAN</DistanceMeters>
          </Trackpoint>
          <Trackpoint>
            <Time>2022-07-12T17:27:41.000Z</Time>
            <Position>
              <LatitudeDegrees>43.38363111019134521484375</LatitudeDegrees>
              <LongitudeDegrees>-3.22094720788300037384033203125</LongitudeDegrees>
            </Position>
            <AltitudeMeters>-52.59999847412109375</AltitudeMeters>
            <DistanceMeters>NAN</DistanceMeters>
          </Trackpoint>
          <Trackpoint>
            <Time>2022-07-12T17:27:42.000Z</Time>
            <Position>
              <LatitudeDegrees>43.38363672606647014617919921875</LatitudeDegrees>
              <LongitudeDegrees>-3.22097830474376678466796875</LongitudeDegrees>
            </Position>
            <AltitudeMeters>-52.40000152587890625</AltitudeMeters>
            <DistanceMeters>NAN</DistanceMeters>
          </Trackpoint>
          <Trackpoint>
            <Time>2022-07-12T17:27:46.000Z</Time>
            <Position>
              <LatitudeDegrees>43.38364460505545139312744140625</LatitudeDegrees>
              <LongitudeDegrees>-3.22106036357581615447998046875</LongitudeDegrees>
            </Position>
            <AltitudeMeters>-52.40000152587890625</AltitudeMeters>
            <DistanceMeters>NAN</DistanceMeters>
          </Trackpoint>
          <Trackpoint>
            <Time>2022-07-12T17:27:47.000Z</Time>
            <Position>
              <LatitudeDegrees>43.38364242576062679290771484375</LatitudeDegrees>
              <LongitudeDegrees>-3.2211036980152130126953125</LongitudeDegrees>
            </Position>
            <AltitudeMeters>-52.40000152587890625</AltitudeMeters>
            <DistanceMeters>NAN</DistanceMeters>
          </Trackpoint>
          <Trackpoint>
            <Time>2022-07-12T17:27:48.000Z</Time>
            <Position>
              <LatitudeDegrees>43.38364175520837306976318359375</LatitudeDegrees>
              <LongitudeDegrees>-3.2211494632065296173095703125</LongitudeDegrees>
            </Position>
            <AltitudeMeters>-52.40000152587890625</AltitudeMeters>
            <DistanceMeters>NAN</DistanceMeters>
          </Trackpoint>
          <Trackpoint>
            <Time>2022-07-12T17:27:51.000Z</Time>
            <Position>
              <LatitudeDegrees>43.3836564235389232635498046875</LatitudeDegrees>
              <LongitudeDegrees>-3.2212849147617816925048828125</LongitudeDegrees>
            </Position>
            <AltitudeMeters>-52.40000152587890625</AltitudeMeters>
            <DistanceMeters>NAN</DistanceMeters>
          </Trackpoint>
          <Trackpoint>
            <Time>2022-07-12T17:27:52.000Z</Time>
            <Position>
              <LatitudeDegrees>43.38366530835628509521484375</LatitudeDegrees>
              <LongitudeDegrees>-3.22133059613406658172607421875</LongitudeDegrees>
            </Position>
            <AltitudeMeters>-52.40000152587890625</AltitudeMeters>
            <DistanceMeters>NAN</DistanceMeters>
          </Trackpoint>
          <Trackpoint>
            <Time>2022-07-12T17:27:57.000Z</Time>
            <Position>
              <LatitudeDegrees>43.38371735997498035430908203125</LatitudeDegrees>
              <LongitudeDegrees>-3.22158222086727619171142578125</LongitudeDegrees>
            </Position>
            <AltitudeMeters>-52.200000762939453125</AltitudeMeters>
            <DistanceMeters>NAN</DistanceMeters>
          </Trackpoint>
          <Trackpoint>
            <Time>2022-07-12T17:28:04.000Z</Time>
            <Position>
              <LatitudeDegrees>43.383688442409038543701171875</LatitudeDegrees>
              <LongitudeDegrees>-3.22191481478512287139892578125</LongitudeDegrees>
            </Position>
            <AltitudeMeters>-52</AltitudeMeters>
            <DistanceMeters>NAN</DistanceMeters>
          </Trackpoint>
          <Trackpoint>
            <Time>2022-07-12T17:28:06.000Z</Time>
            <Position>
              <LatitudeDegrees>43.3836959861218929290771484375</LatitudeDegrees>
              <LongitudeDegrees>-3.2219995558261871337890625</LongitudeDegrees>
            </Position>
            <AltitudeMeters>-52</AltitudeMeters>
            <DistanceMeters>NAN</DistanceMeters>
          </Trackpoint>
          <Trackpoint>
            <Time>2022-07-12T17:28:09.000Z</Time>
            <Position>
              <LatitudeDegrees>43.38377703912556171417236328125</LatitudeDegrees>
              <LongitudeDegrees>-3.222192339599132537841796875</LongitudeDegrees>
            </Position>
            <AltitudeMeters>-52</AltitudeMeters>
            <DistanceMeters>NAN</DistanceMeters>
          </Trackpoint>
          <Trackpoint>
            <Time>2022-07-12T17:28:13.000Z</Time>
            <Position>
              <LatitudeDegrees>43.38394953869283199310302734375</LatitudeDegrees>
              <LongitudeDegrees>-3.222426362335681915283203125</LongitudeDegrees>
            </Position>
            <AltitudeMeters>-52</AltitudeMeters>
            <DistanceMeters>NAN</DistanceMeters>
          </Trackpoint>
          <Trackpoint>
            <Time>2022-07-12T17:28:15.000Z</Time>
            <Position>
              <LatitudeDegrees>43.3839481137692928314208984375</LatitudeDegrees>
              <LongitudeDegrees>-3.2225311361253261566162109375</LongitudeDegrees>
            </Position>
            <AltitudeMeters>-52</AltitudeMeters>
            <DistanceMeters>NAN</DistanceMeters>
          </Trackpoint>
          <Trackpoint>
            <Time>2022-07-12T17:28:16.000Z</Time>
            <Position>
              <LatitudeDegrees>43.3839846588671207427978515625</LatitudeDegrees>
              <LongitudeDegrees>-3.2225864566862583160400390625</LongitudeDegrees>
            </Position>
            <AltitudeMeters>-52</AltitudeMeters>
            <DistanceMeters>NAN</DistanceMeters>
          </Trackpoint>
          <Trackpoint>
            <Time>2022-07-12T17:28:17.000Z</Time>
            <Position>
              <LatitudeDegrees>43.38403738103806972503662109375</LatitudeDegrees>
              <LongitudeDegrees>-3.2225951738655567169189453125</LongitudeDegrees>
            </Position>
            <AltitudeMeters>-52</AltitudeMeters>
            <DistanceMeters>NAN</DistanceMeters>
          </Trackpoint>
          <Trackpoint>
            <Time>2022-07-12T17:28:18.000Z</Time>
            <Position>
              <LatitudeDegrees>43.3840550668537616729736328125</LatitudeDegrees>
              <LongitudeDegrees>-3.22263917885720729827880859375</LongitudeDegrees>
            </Position>
            <AltitudeMeters>-52</AltitudeMeters>
            <DistanceMeters>NAN</DistanceMeters>
          </Trackpoint>
          <Trackpoint>
            <Time>2022-07-12T17:28:21.000Z</Time>
            <Position>
              <LatitudeDegrees>43.38403352536261081695556640625</LatitudeDegrees>
              <LongitudeDegrees>-3.2227856107056140899658203125</LongitudeDegrees>
            </Position>
            <AltitudeMeters>-52</AltitudeMeters>
            <DistanceMeters>NAN</DistanceMeters>
          </Trackpoint>
          <Trackpoint>
            <Time>2022-07-12T17:28:25.000Z</Time>
            <Position>
              <LatitudeDegrees>43.38395725004374980926513671875</LatitudeDegrees>
              <LongitudeDegrees>-3.222932629287242889404296875</LongitudeDegrees>
            </Position>
            <AltitudeMeters>-52</AltitudeMeters>
            <DistanceMeters>NAN</DistanceMeters>
          </Trackpoint>
          <Trackpoint>
            <Time>2022-07-12T17:28:31.000Z</Time>
            <Position>
              <LatitudeDegrees>43.38398859836161136627197265625</LatitudeDegrees>
              <LongitudeDegrees>-3.22321593761444091796875</LongitudeDegrees>
            </Position>
            <AltitudeMeters>-52</AltitudeMeters>
            <DistanceMeters>NAN</DistanceMeters>
          </Trackpoint>
          <Trackpoint>
            <Time>2022-07-12T17:28:34.000Z</Time>
            <Position>
              <LatitudeDegrees>43.38400192558765411376953125</LatitudeDegrees>
              <LongitudeDegrees>-3.22335097007453441619873046875</LongitudeDegrees>
            </Position>
            <AltitudeMeters>-52.200000762939453125</AltitudeMeters>
            <DistanceMeters>NAN</DistanceMeters>
          </Trackpoint>
          <Trackpoint>
            <Time>2022-07-12T17:28:36.000Z</Time>
            <Position>
              <LatitudeDegrees>43.3840292505919933319091796875</LatitudeDegrees>
              <LongitudeDegrees>-3.22335742413997650146484375</LongitudeDegrees>
            </Position>
            <AltitudeMeters>-52.200000762939453125</AltitudeMeters>
            <DistanceMeters>NAN</DistanceMeters>
          </Trackpoint>
          <Trackpoint>
            <Time>2022-07-12T17:28:38.000Z</Time>
            <Position>
              <LatitudeDegrees>43.384057581424713134765625</LatitudeDegrees>
              <LongitudeDegrees>-3.22332817129790782928466796875</LongitudeDegrees>
            </Position>
            <AltitudeMeters>-52.40000152587890625</AltitudeMeters>
            <DistanceMeters>NAN</DistanceMeters>
          </Trackpoint>
          <Trackpoint>
            <Time>2022-07-12T17:28:40.000Z</Time>
            <Position>
              <LatitudeDegrees>43.38410309515893459320068359375</LatitudeDegrees>
              <LongitudeDegrees>-3.223322220146656036376953125</LongitudeDegrees>
            </Position>
            <AltitudeMeters>-52.40000152587890625</AltitudeMeters>
            <DistanceMeters>NAN</DistanceMeters>
          </Trackpoint>
          <Trackpoint>
            <Time>2022-07-12T17:28:45.000Z</Time>
            <Position>
              <LatitudeDegrees>43.38417819701135158538818359375</LatitudeDegrees>
              <LongitudeDegrees>-3.22333739139139652252197265625</LongitudeDegrees>
            </Position>
            <AltitudeMeters>-52.799999237060546875</AltitudeMeters>
            <DistanceMeters>NAN</DistanceMeters>
          </Trackpoint>
          <Trackpoint>
            <Time>2022-07-12T17:28:46.000Z</Time>
            <Position>
              <LatitudeDegrees>43.384179286658763885498046875</LatitudeDegrees>
              <LongitudeDegrees>-3.2233431749045848846435546875</LongitudeDegrees>
            </Position>
            <AltitudeMeters>-53</AltitudeMeters>
            <DistanceMeters>NAN</DistanceMeters>
          </Trackpoint>
          <Trackpoint>
            <Time>2022-07-12T17:29:36.000Z</Time>
            <Position>
              <LatitudeDegrees>43.38421038351953029632568359375</LatitudeDegrees>
              <LongitudeDegrees>-3.2234115712344646453857421875</LongitudeDegrees>
            </Position>
            <AltitudeMeters>-52.799999237060546875</AltitudeMeters>
            <DistanceMeters>NAN</DistanceMeters>
          </Trackpoint>
          <Trackpoint>
            <Time>2022-07-12T17:29:38.000Z</Time>
            <Position>
              <LatitudeDegrees>43.3842572383582592010498046875</LatitudeDegrees>
              <LongitudeDegrees>-3.22341718710958957672119140625</LongitudeDegrees>
            </Position>
            <AltitudeMeters>-52.799999237060546875</AltitudeMeters>
            <DistanceMeters>NAN</DistanceMeters>
          </Trackpoint>
          <Trackpoint>
            <Time>2022-07-12T17:29:44.000Z</Time>
            <Position>
              <LatitudeDegrees>43.38441892527043819427490234375</LatitudeDegrees>
              <LongitudeDegrees>-3.22343562729656696319580078125</LongitudeDegrees>
            </Position>
            <AltitudeMeters>-53.200000762939453125</AltitudeMeters>
            <DistanceMeters>NAN</DistanceMeters>
          </Trackpoint>
          <Trackpoint>
            <Time>2022-07-12T17:29:49.000Z</Time>
            <Position>
              <LatitudeDegrees>43.38449335657060146331787109375</LatitudeDegrees>
              <LongitudeDegrees>-3.22346161119639873504638671875</LongitudeDegrees>
            </Position>
            <AltitudeMeters>-53.200000762939453125</AltitudeMeters>
            <DistanceMeters>NAN</DistanceMeters>
          </Trackpoint>
          <Trackpoint>
            <Time>2022-07-12T17:29:54.000Z</Time>
            <Position>
              <LatitudeDegrees>43.38451263494789600372314453125</LatitudeDegrees>
              <LongitudeDegrees>-3.2236197777092456817626953125</LongitudeDegrees>
            </Position>
            <AltitudeMeters>-53</AltitudeMeters>
            <DistanceMeters>NAN</DistanceMeters>
          </Trackpoint>
          <Trackpoint>
            <Time>2022-07-12T17:30:01.000Z</Time>
            <Position>
              <LatitudeDegrees>43.38455722667276859283447265625</LatitudeDegrees>
              <LongitudeDegrees>-3.2238819636404514312744140625</LongitudeDegrees>
            </Position>
            <AltitudeMeters>-52.799999237060546875</AltitudeMeters>
            <DistanceMeters>NAN</DistanceMeters>
          </Trackpoint>
          <Trackpoint>
            <Time>2022-07-12T17:30:02.000Z</Time>
            <Position>
              <LatitudeDegrees>43.38457851670682430267333984375</LatitudeDegrees>
              <LongitudeDegrees>-3.2239111326634883880615234375</LongitudeDegrees>
            </Position>
            <AltitudeMeters>-52.799999237060546875</AltitudeMeters>
            <DistanceMeters>NAN</DistanceMeters>
          </Trackpoint>
          <Trackpoint>
            <Time>2022-07-12T17:30:08.000Z</Time>
            <Position>
              <LatitudeDegrees>43.38470357470214366912841796875</LatitudeDegrees>
              <LongitudeDegrees>-3.22404406964778900146484375</LongitudeDegrees>
            </Position>
            <AltitudeMeters>-53</AltitudeMeters>
            <DistanceMeters>NAN</DistanceMeters>
          </Trackpoint>
          <Trackpoint>
            <Time>2022-07-12T17:30:16.000Z</Time>
            <Position>
              <LatitudeDegrees>43.38483416475355625152587890625</LatitudeDegrees>
              <LongitudeDegrees>-3.22422377765178680419921875</LongitudeDegrees>
            </Position>
            <AltitudeMeters>-53</AltitudeMeters>
            <DistanceMeters>NAN</DistanceMeters>
          </Trackpoint>
          <Trackpoint>
            <Time>2022-07-12T17:30:20.000Z</Time>
            <Position>
              <LatitudeDegrees>43.3848640881478786468505859375</LatitudeDegrees>
              <LongitudeDegrees>-3.2243359275162220001220703125</LongitudeDegrees>
            </Position>
            <AltitudeMeters>-53</AltitudeMeters>
            <DistanceMeters>NAN</DistanceMeters>
          </Trackpoint>
          <Trackpoint>
            <Time>2022-07-12T17:30:24.000Z</Time>
            <Position>
              <LatitudeDegrees>43.38489870540797710418701171875</LatitudeDegrees>
              <LongitudeDegrees>-3.22445771656930446624755859375</LongitudeDegrees>
            </Position>
            <AltitudeMeters>-53</AltitudeMeters>
            <DistanceMeters>NAN</DistanceMeters>
          </Trackpoint>
          <Trackpoint>
            <Time>2022-07-12T17:30:31.000Z</Time>
            <Position>
              <LatitudeDegrees>43.3849681913852691650390625</LatitudeDegrees>
              <LongitudeDegrees>-3.22470850311219692230224609375</LongitudeDegrees>
            </Position>
            <AltitudeMeters>-53</AltitudeMeters>
            <DistanceMeters>NAN</DistanceMeters>
          </Trackpoint>
          <Trackpoint>
            <Time>2022-07-12T17:30:32.000Z</Time>
            <Position>
              <LatitudeDegrees>43.3849764056503772735595703125</LatitudeDegrees>
              <LongitudeDegrees>-3.224743790924549102783203125</LongitudeDegrees>
            </Position>
            <AltitudeMeters>-53</AltitudeMeters>
            <DistanceMeters>NAN</DistanceMeters>
          </Trackpoint>
          <Trackpoint>
            <Time>2022-07-12T17:30:39.000Z</Time>
            <Position>
              <LatitudeDegrees>43.3850706182420253753662109375</LatitudeDegrees>
              <LongitudeDegrees>-3.2249555177986621856689453125</LongitudeDegrees>
            </Position>
            <AltitudeMeters>-53</AltitudeMeters>
            <DistanceMeters>NAN</DistanceMeters>
          </Trackpoint>
          <Trackpoint>
            <Time>2022-07-12T17:30:45.000Z</Time>
            <Position>
              <LatitudeDegrees>43.38517933152616024017333984375</LatitudeDegrees>
              <LongitudeDegrees>-3.22511284612119197845458984375</LongitudeDegrees>
            </Position>
            <AltitudeMeters>-52.799999237060546875</AltitudeMeters>
            <DistanceMeters>NAN</DistanceMeters>
          </Trackpoint>
          <Trackpoint>
            <Time>2022-07-12T17:30:49.000Z</Time>
            <Position>
              <LatitudeDegrees>43.3852533437311649322509765625</LatitudeDegrees>
              <LongitudeDegrees>-3.22512223385274410247802734375</LongitudeDegrees>
            </Position>
            <AltitudeMeters>-53</AltitudeMeters>
            <DistanceMeters>NAN</DistanceMeters>
          </Trackpoint>
          <Trackpoint>
            <Time>2022-07-12T17:30:55.000Z</Time>
            <Position>
              <LatitudeDegrees>43.38540296070277690887451171875</LatitudeDegrees>
              <LongitudeDegrees>-3.2251975871622562408447265625</LongitudeDegrees>
            </Position>
            <AltitudeMeters>-53.200000762939453125</AltitudeMeters>
            <DistanceMeters>NAN</DistanceMeters>
          </Trackpoint>
          <Trackpoint>
            <Time>2022-07-12T17:30:56.000Z</Time>
            <Position>
              <LatitudeDegrees>43.38542123325169086456298828125</LatitudeDegrees>
              <LongitudeDegrees>-3.225220553576946258544921875</LongitudeDegrees>
            </Position>
            <AltitudeMeters>-53.40000152587890625</AltitudeMeters>
            <DistanceMeters>NAN</DistanceMeters>
          </Trackpoint>
          <Trackpoint>
            <Time>2022-07-12T17:30:58.000Z</Time>
            <Position>
              <LatitudeDegrees>43.38547856546938419342041015625</LatitudeDegrees>
              <LongitudeDegrees>-3.225237317383289337158203125</LongitudeDegrees>
            </Position>
            <AltitudeMeters>-53.40000152587890625</AltitudeMeters>
            <DistanceMeters>NAN</DistanceMeters>
          </Trackpoint>
          <Trackpoint>
            <Time>2022-07-12T17:31:00.000Z</Time>
            <Position>
              <LatitudeDegrees>43.38553690351545810699462890625</LatitudeDegrees>
              <LongitudeDegrees>-3.225240670144557952880859375</LongitudeDegrees>
            </Position>
            <AltitudeMeters>-53.59999847412109375</AltitudeMeters>
            <DistanceMeters>NAN</DistanceMeters>
          </Trackpoint>
          <Trackpoint>
            <Time>2022-07-12T17:31:02.000Z</Time>
            <Position>
              <LatitudeDegrees>43.38559993542730808258056640625</LatitudeDegrees>
              <LongitudeDegrees>-3.225207142531871795654296875</LongitudeDegrees>
            </Position>
            <AltitudeMeters>-53.59999847412109375</AltitudeMeters>
            <DistanceMeters>NAN</DistanceMeters>
          </Trackpoint>
          <Trackpoint>
            <Time>2022-07-12T17:31:04.000Z</Time>
            <Position>
              <LatitudeDegrees>43.385653831064701080322265625</LatitudeDegrees>
              <LongitudeDegrees>-3.2251858524978160858154296875</LongitudeDegrees>
            </Position>
            <AltitudeMeters>-53.59999847412109375</AltitudeMeters>
            <DistanceMeters>NAN</DistanceMeters>
          </Trackpoint>
          <Trackpoint>
            <Time>2022-07-12T17:31:06.000Z</Time>
            <Position>
              <LatitudeDegrees>43.38570655323565006256103515625</LatitudeDegrees>
              <LongitudeDegrees>-3.22521560825407505035400390625</LongitudeDegrees>
            </Position>
            <AltitudeMeters>-53.59999847412109375</AltitudeMeters>
            <DistanceMeters>NAN</DistanceMeters>
          </Trackpoint>
          <Trackpoint>
            <Time>2022-07-12T17:31:13.000Z</Time>
            <Position>
              <LatitudeDegrees>43.38590285740792751312255859375</LatitudeDegrees>
              <LongitudeDegrees>-3.22538894601166248321533203125</LongitudeDegrees>
            </Position>
            <AltitudeMeters>-53.40000152587890625</AltitudeMeters>
            <DistanceMeters>NAN</DistanceMeters>
          </Trackpoint>
          <Trackpoint>
            <Time>2022-07-12T17:31:15.000Z</Time>
            <Position>
              <LatitudeDegrees>43.38596186600625514984130859375</LatitudeDegrees>
              <LongitudeDegrees>-3.22543890215456485748291015625</LongitudeDegrees>
            </Position>
            <AltitudeMeters>-53.40000152587890625</AltitudeMeters>
            <DistanceMeters>NAN</DistanceMeters>
          </Trackpoint>
          <Trackpoint>
            <Time>2022-07-12T17:31:20.000Z</Time>
            <Position>
              <LatitudeDegrees>43.38611106388270854949951171875</LatitudeDegrees>
              <LongitudeDegrees>-3.2255338691174983978271484375</LongitudeDegrees>
            </Position>
            <AltitudeMeters>-53.59999847412109375</AltitudeMeters>
            <DistanceMeters>NAN</DistanceMeters>
          </Trackpoint>
          <Trackpoint>
            <Time>2022-07-12T17:31:28.000Z</Time>
            <Position>
              <LatitudeDegrees>43.3863280713558197021484375</LatitudeDegrees>
              <LongitudeDegrees>-3.2257357053458690643310546875</LongitudeDegrees>
            </Position>
            <AltitudeMeters>-53.59999847412109375</AltitudeMeters>
            <DistanceMeters>NAN</DistanceMeters>
          </Trackpoint>
          <Trackpoint>
            <Time>2022-07-12T17:31:33.000Z</Time>
            <Position>
              <LatitudeDegrees>43.38644768111407756805419921875</LatitudeDegrees>
              <LongitudeDegrees>-3.22587476111948490142822265625</LongitudeDegrees>
            </Position>
            <AltitudeMeters>-53.59999847412109375</AltitudeMeters>
            <DistanceMeters>NAN</DistanceMeters>
          </Trackpoint>
          <Trackpoint>
            <Time>2022-07-12T17:31:35.000Z</Time>
            <Position>
              <LatitudeDegrees>43.386491350829601287841796875</LatitudeDegrees>
              <LongitudeDegrees>-3.2259415648877620697021484375</LongitudeDegrees>
            </Position>
            <AltitudeMeters>-53.59999847412109375</AltitudeMeters>
            <DistanceMeters>NAN</DistanceMeters>
          </Trackpoint>
          <Trackpoint>
            <Time>2022-07-12T17:31:40.000Z</Time>
            <Position>
              <LatitudeDegrees>43.38659855537116527557373046875</LatitudeDegrees>
              <LongitudeDegrees>-3.2261058501899242401123046875</LongitudeDegrees>
            </Position>
            <AltitudeMeters>-53.59999847412109375</AltitudeMeters>
            <DistanceMeters>NAN</DistanceMeters>
          </Trackpoint>
          <Trackpoint>
            <Time>2022-07-12T17:31:43.000Z</Time>
            <Position>
              <LatitudeDegrees>43.3866511099040508270263671875</LatitudeDegrees>
              <LongitudeDegrees>-3.226196207106113433837890625</LongitudeDegrees>
            </Position>
            <AltitudeMeters>-53.59999847412109375</AltitudeMeters>
            <DistanceMeters>NAN</DistanceMeters>
          </Trackpoint>
          <Trackpoint>
            <Time>2022-07-12T17:31:44.000Z</Time>
            <Position>
              <LatitudeDegrees>43.3866638503968715667724609375</LatitudeDegrees>
              <LongitudeDegrees>-3.22622613050043582916259765625</LongitudeDegrees>
            </Position>
            <AltitudeMeters>-53.59999847412109375</AltitudeMeters>
            <DistanceMeters>NAN</DistanceMeters>
          </Trackpoint>
          <Trackpoint>
            <Time>2022-07-12T17:31:48.000Z</Time>
            <Position>
              <LatitudeDegrees>43.386759571731090545654296875</LatitudeDegrees>
              <LongitudeDegrees>-3.2263231091201305389404296875</LongitudeDegrees>
            </Position>
            <AltitudeMeters>-53.200000762939453125</AltitudeMeters>
            <DistanceMeters>NAN</DistanceMeters>
          </Trackpoint>
          <Trackpoint>
            <Time>2022-07-12T17:31:51.000Z</Time>
            <Position>
              <LatitudeDegrees>43.38685520924627780914306640625</LatitudeDegrees>
              <LongitudeDegrees>-3.22632201947271823883056640625</LongitudeDegrees>
            </Position>
            <AltitudeMeters>-53.200000762939453125</AltitudeMeters>
            <DistanceMeters>NAN</DistanceMeters>
          </Trackpoint>
          <Trackpoint>
            <Time>2022-07-12T17:31:53.000Z</Time>
            <Position>
              <LatitudeDegrees>43.3869193308055400848388671875</LatitudeDegrees>
              <LongitudeDegrees>-3.22633475996553897857666015625</LongitudeDegrees>
            </Position>
            <AltitudeMeters>-53.40000152587890625</AltitudeMeters>
            <DistanceMeters>NAN</DistanceMeters>
          </Trackpoint>
          <Trackpoint>
            <Time>2022-07-12T17:31:54.000Z</Time>
            <Position>
              <LatitudeDegrees>43.38695310987532138824462890625</LatitudeDegrees>
              <LongitudeDegrees>-3.22634733282029628753662109375</LongitudeDegrees>
            </Position>
            <AltitudeMeters>-53.40000152587890625</AltitudeMeters>
            <DistanceMeters>NAN</DistanceMeters>
          </Trackpoint>
          <Trackpoint>
            <Time>2022-07-12T17:31:57.000Z</Time>
            <Position>
              <LatitudeDegrees>43.38705486617982387542724609375</LatitudeDegrees>
              <LongitudeDegrees>-3.2263988815248012542724609375</LongitudeDegrees>
            </Position>
            <AltitudeMeters>-53.40000152587890625</AltitudeMeters>
            <DistanceMeters>NAN</DistanceMeters>
          </Trackpoint>
          <Trackpoint>
            <Time>2022-07-12T17:32:02.000Z</Time>
            <Position>
              <LatitudeDegrees>43.38718947954475879669189453125</LatitudeDegrees>
              <LongitudeDegrees>-3.22647817432880401611328125</LongitudeDegrees>
            </Position>
            <AltitudeMeters>-54</AltitudeMeters>
            <DistanceMeters>NAN</DistanceMeters>
          </Trackpoint>
          <Trackpoint>
            <Time>2022-07-12T17:32:07.000Z</Time>
            <Position>
              <LatitudeDegrees>43.38728763163089752197265625</LatitudeDegrees>
              <LongitudeDegrees>-3.22657096199691295623779296875</LongitudeDegrees>
            </Position>
            <AltitudeMeters>-54</AltitudeMeters>
            <DistanceMeters>NAN</DistanceMeters>
          </Trackpoint>
          <Trackpoint>
            <Time>2022-07-12T17:32:13.000Z</Time>
            <Position>
              <LatitudeDegrees>43.38741512037813663482666015625</LatitudeDegrees>
              <LongitudeDegrees>-3.2266590557992458343505859375</LongitudeDegrees>
            </Position>
            <AltitudeMeters>-54</AltitudeMeters>
            <DistanceMeters>NAN</DistanceMeters>
          </Trackpoint>
          <Trackpoint>
            <Time>2022-07-12T17:32:18.000Z</Time>
            <Position>
              <LatitudeDegrees>43.38752768933773040771484375</LatitudeDegrees>
              <LongitudeDegrees>-3.22680532000958919525146484375</LongitudeDegrees>
            </Position>
            <AltitudeMeters>-54</AltitudeMeters>
            <DistanceMeters>NAN</DistanceMeters>
          </Trackpoint>
          <Trackpoint>
            <Time>2022-07-12T17:32:21.000Z</Time>
            <Position>
              <LatitudeDegrees>43.38758661411702632904052734375</LatitudeDegrees>
              <LongitudeDegrees>-3.2269014604389667510986328125</LongitudeDegrees>
            </Position>
            <AltitudeMeters>-54</AltitudeMeters>
            <DistanceMeters>NAN</DistanceMeters>
          </Trackpoint>
          <Trackpoint>
            <Time>2022-07-12T17:32:27.000Z</Time>
            <Position>
              <LatitudeDegrees>43.387685604393482208251953125</LatitudeDegrees>
              <LongitudeDegrees>-3.22708225809037685394287109375</LongitudeDegrees>
            </Position>
            <AltitudeMeters>-54.200000762939453125</AltitudeMeters>
            <DistanceMeters>NAN</DistanceMeters>
          </Trackpoint>
          <Trackpoint>
            <Time>2022-07-12T17:32:29.000Z</Time>
            <Position>
              <LatitudeDegrees>43.38771133683621883392333984375</LatitudeDegrees>
              <LongitudeDegrees>-3.227145038545131683349609375</LongitudeDegrees>
            </Position>
            <AltitudeMeters>-54.200000762939453125</AltitudeMeters>
            <DistanceMeters>NAN</DistanceMeters>
          </Trackpoint>
          <Trackpoint>
            <Time>2022-07-12T17:32:35.000Z</Time>
            <Position>
              <LatitudeDegrees>43.38782382197678089141845703125</LatitudeDegrees>
              <LongitudeDegrees>-3.22727504186332225799560546875</LongitudeDegrees>
            </Position>
            <AltitudeMeters>-54.200000762939453125</AltitudeMeters>
            <DistanceMeters>NAN</DistanceMeters>
          </Trackpoint>
          <Trackpoint>
            <Time>2022-07-12T17:32:37.000Z</Time>
            <Position>
              <LatitudeDegrees>43.38785332627594470977783203125</LatitudeDegrees>
              <LongitudeDegrees>-3.22729381732642650604248046875</LongitudeDegrees>
            </Position>
            <AltitudeMeters>-54.200000762939453125</AltitudeMeters>
            <DistanceMeters>NAN</DistanceMeters>
          </Trackpoint>
          <Trackpoint>
            <Time>2022-07-12T17:32:43.000Z</Time>
            <Position>
              <LatitudeDegrees>43.38792331516742706298828125</LatitudeDegrees>
              <LongitudeDegrees>-3.22735366411507129669189453125</LongitudeDegrees>
            </Position>
            <AltitudeMeters>-54.200000762939453125</AltitudeMeters>
            <DistanceMeters>NAN</DistanceMeters>
          </Trackpoint>
          <Trackpoint>
            <Time>2022-07-12T17:32:45.000Z</Time>
            <Position>
              <LatitudeDegrees>43.38792893104255199432373046875</LatitudeDegrees>
              <LongitudeDegrees>-3.2273550890386104583740234375</LongitudeDegrees>
            </Position>
            <AltitudeMeters>-54.40000152587890625</AltitudeMeters>
            <DistanceMeters>NAN</DistanceMeters>
          </Trackpoint>
          <Trackpoint>
            <Time>2022-07-12T17:33:22.000Z</Time>
            <Position>
              <LatitudeDegrees>43.38792465627193450927734375</LatitudeDegrees>
              <LongitudeDegrees>-3.22736321948468685150146484375</LongitudeDegrees>
            </Position>
            <AltitudeMeters>-54.799999237060546875</AltitudeMeters>
            <DistanceMeters>NAN</DistanceMeters>
          </Trackpoint>
          <Trackpoint>
            <Time>2022-07-12T17:33:23.000Z</Time>
            <Position>
              <LatitudeDegrees>43.387947119772434234619140625</LatitudeDegrees>
              <LongitudeDegrees>-3.2273601181805133819580078125</LongitudeDegrees>
            </Position>
            <AltitudeMeters>-54.799999237060546875</AltitudeMeters>
            <DistanceMeters>NAN</DistanceMeters>
          </Trackpoint>
          <Trackpoint>
            <Time>2022-07-12T17:33:28.000Z</Time>
            <Position>
              <LatitudeDegrees>43.38810025714337825775146484375</LatitudeDegrees>
              <LongitudeDegrees>-3.2273812405765056610107421875</LongitudeDegrees>
            </Position>
            <AltitudeMeters>-54.59999847412109375</AltitudeMeters>
            <DistanceMeters>NAN</DistanceMeters>
          </Trackpoint>
          <Trackpoint>
            <Time>2022-07-12T17:33:36.000Z</Time>
            <Position>
              <LatitudeDegrees>43.38839731179177761077880859375</LatitudeDegrees>
              <LongitudeDegrees>-3.227322064340114593505859375</LongitudeDegrees>
            </Position>
            <AltitudeMeters>-54.59999847412109375</AltitudeMeters>
            <DistanceMeters>NAN</DistanceMeters>
          </Trackpoint>
          <Trackpoint>
            <Time>2022-07-12T17:33:39.000Z</Time>
            <Position>
              <LatitudeDegrees>43.38849588297307491302490234375</LatitudeDegrees>
              <LongitudeDegrees>-3.2273004390299320220947265625</LongitudeDegrees>
            </Position>
            <AltitudeMeters>-54.59999847412109375</AltitudeMeters>
            <DistanceMeters>NAN</DistanceMeters>
          </Trackpoint>
          <Trackpoint>
            <Time>2022-07-12T17:33:44.000Z</Time>
            <Position>
              <LatitudeDegrees>43.3886468410491943359375</LatitudeDegrees>
              <LongitudeDegrees>-3.22721737436950206756591796875</LongitudeDegrees>
            </Position>
            <AltitudeMeters>-54.59999847412109375</AltitudeMeters>
            <DistanceMeters>NAN</DistanceMeters>
          </Trackpoint>
          <Trackpoint>
            <Time>2022-07-12T17:33:47.000Z</Time>
            <Position>
              <LatitudeDegrees>43.3887154050171375274658203125</LatitudeDegrees>
              <LongitudeDegrees>-3.227169848978519439697265625</LongitudeDegrees>
            </Position>
            <AltitudeMeters>-54.59999847412109375</AltitudeMeters>
            <DistanceMeters>NAN</DistanceMeters>
          </Trackpoint>
          <Trackpoint>
            <Time>2022-07-12T17:33:50.000Z</Time>
            <Position>
              <LatitudeDegrees>43.38875974528491497039794921875</LatitudeDegrees>
              <LongitudeDegrees>-3.2271264307200908660888671875</LongitudeDegrees>
            </Position>
            <AltitudeMeters>-54.59999847412109375</AltitudeMeters>
            <DistanceMeters>NAN</DistanceMeters>
          </Trackpoint>
          <Trackpoint>
            <Time>2022-07-12T17:33:54.000Z</Time>
            <Position>
              <LatitudeDegrees>43.38885940611362457275390625</LatitudeDegrees>
              <LongitudeDegrees>-3.227047808468341827392578125</LongitudeDegrees>
            </Position>
            <AltitudeMeters>-54.799999237060546875</AltitudeMeters>
            <DistanceMeters>NAN</DistanceMeters>
          </Trackpoint>
          <Trackpoint>
            <Time>2022-07-12T17:33:55.000Z</Time>
            <Position>
              <LatitudeDegrees>43.3888860605657100677490234375</LatitudeDegrees>
              <LongitudeDegrees>-3.22702123783528804779052734375</LongitudeDegrees>
            </Position>
            <AltitudeMeters>-54.799999237060546875</AltitudeMeters>
            <DistanceMeters>NAN</DistanceMeters>
          </Trackpoint>
          <Trackpoint>
            <Time>2022-07-12T17:33:56.000Z</Time>
            <Position>
              <LatitudeDegrees>43.388910032808780670166015625</LatitudeDegrees>
              <LongitudeDegrees>-3.22699408046901226043701171875</LongitudeDegrees>
            </Position>
            <AltitudeMeters>-54.799999237060546875</AltitudeMeters>
            <DistanceMeters>NAN</DistanceMeters>
          </Trackpoint>
          <Trackpoint>
            <Time>2022-07-12T17:34:03.000Z</Time>
            <Position>
              <LatitudeDegrees>43.38905990123748779296875</LatitudeDegrees>
              <LongitudeDegrees>-3.22683063335716724395751953125</LongitudeDegrees>
            </Position>
            <AltitudeMeters>-54.799999237060546875</AltitudeMeters>
            <DistanceMeters>NAN</DistanceMeters>
          </Trackpoint>
          <Trackpoint>
            <Time>2022-07-12T17:34:05.000Z</Time>
            <Position>
              <LatitudeDegrees>43.38910139165818691253662109375</LatitudeDegrees>
              <LongitudeDegrees>-3.22681588120758533477783203125</LongitudeDegrees>
            </Position>
            <AltitudeMeters>-55</AltitudeMeters>
            <DistanceMeters>NAN</DistanceMeters>
          </Trackpoint>
          <Trackpoint>
            <Time>2022-07-12T17:34:09.000Z</Time>
            <Position>
              <LatitudeDegrees>43.3891492523252964019775390625</LatitudeDegrees>
              <LongitudeDegrees>-3.2268236763775348663330078125</LongitudeDegrees>
            </Position>
            <AltitudeMeters>-55</AltitudeMeters>
            <DistanceMeters>NAN</DistanceMeters>
          </Trackpoint>
          <Trackpoint>
            <Time>2022-07-12T17:34:10.000Z</Time>
            <Position>
              <LatitudeDegrees>43.38916023261845111846923828125</LatitudeDegrees>
              <LongitudeDegrees>-3.226823508739471435546875</LongitudeDegrees>
            </Position>
            <AltitudeMeters>-55.200000762939453125</AltitudeMeters>
            <DistanceMeters>NAN</DistanceMeters>
          </Trackpoint>
          <Trackpoint>
            <Time>2022-07-12T17:34:14.000Z</Time>
            <Position>
              <LatitudeDegrees>43.389242626726627349853515625</LatitudeDegrees>
              <LongitudeDegrees>-3.22687405161559581756591796875</LongitudeDegrees>
            </Position>
            <AltitudeMeters>-55.200000762939453125</AltitudeMeters>
            <DistanceMeters>NAN</DistanceMeters>
          </Trackpoint>
          <Trackpoint>
            <Time>2022-07-12T17:34:20.000Z</Time>
            <Position>
              <LatitudeDegrees>43.38937430642545223236083984375</LatitudeDegrees>
              <LongitudeDegrees>-3.227110840380191802978515625</LongitudeDegrees>
            </Position>
            <AltitudeMeters>-55.200000762939453125</AltitudeMeters>
            <DistanceMeters>NAN</DistanceMeters>
          </Trackpoint>
          <Trackpoint>
            <Time>2022-07-12T17:34:27.000Z</Time>
            <Position>
              <LatitudeDegrees>43.38956616818904876708984375</LatitudeDegrees>
              <LongitudeDegrees>-3.22744217701256275177001953125</LongitudeDegrees>
            </Position>
            <AltitudeMeters>-55.59999847412109375</AltitudeMeters>
            <DistanceMeters>NAN</DistanceMeters>
          </Trackpoint>
          <Trackpoint>
            <Time>2022-07-12T17:34:31.000Z</Time>
            <Position>
              <LatitudeDegrees>43.389664404094219207763671875</LatitudeDegrees>
              <LongitudeDegrees>-3.227516524493694305419921875</LongitudeDegrees>
            </Position>
            <AltitudeMeters>-55</AltitudeMeters>
            <DistanceMeters>NAN</DistanceMeters>
          </Trackpoint>
          <Trackpoint>
            <Time>2022-07-12T17:34:33.000Z</Time>
            <Position>
              <LatitudeDegrees>43.389695584774017333984375</LatitudeDegrees>
              <LongitudeDegrees>-3.2275431789457798004150390625</LongitudeDegrees>
            </Position>
            <AltitudeMeters>-54.799999237060546875</AltitudeMeters>
            <DistanceMeters>NAN</DistanceMeters>
          </Trackpoint>
          <Trackpoint>
            <Time>2022-07-12T17:34:36.000Z</Time>
            <Position>
              <LatitudeDegrees>43.3897198922932147979736328125</LatitudeDegrees>
              <LongitudeDegrees>-3.2276139222085475921630859375</LongitudeDegrees>
            </Position>
            <AltitudeMeters>-54.59999847412109375</AltitudeMeters>
            <DistanceMeters>NAN</DistanceMeters>
          </Trackpoint>
          <Trackpoint>
            <Time>2022-07-12T17:34:41.000Z</Time>
            <Position>
              <LatitudeDegrees>43.3897222392261028289794921875</LatitudeDegrees>
              <LongitudeDegrees>-3.22771090082824230194091796875</LongitudeDegrees>
            </Position>
            <AltitudeMeters>-54.40000152587890625</AltitudeMeters>
            <DistanceMeters>NAN</DistanceMeters>
          </Trackpoint>
          <Trackpoint>
            <Time>2022-07-12T17:34:42.000Z</Time>
            <Position>
              <LatitudeDegrees>43.3897237479686737060546875</LatitudeDegrees>
              <LongitudeDegrees>-3.22771743871271610260009765625</LongitudeDegrees>
            </Position>
            <AltitudeMeters>-54.40000152587890625</AltitudeMeters>
            <DistanceMeters>NAN</DistanceMeters>
          </Trackpoint>
          <Trackpoint>
            <Time>2022-07-12T17:35:04.000Z</Time>
            <Position>
              <LatitudeDegrees>43.3897024579346179962158203125</LatitudeDegrees>
              <LongitudeDegrees>-3.22779203765094280242919921875</LongitudeDegrees>
            </Position>
            <AltitudeMeters>-54.59999847412109375</AltitudeMeters>
            <DistanceMeters>NAN</DistanceMeters>
          </Trackpoint>
          <Trackpoint>
            <Time>2022-07-12T17:35:05.000Z</Time>
            <Position>
              <LatitudeDegrees>43.389699272811412811279296875</LatitudeDegrees>
              <LongitudeDegrees>-3.22782338596880435943603515625</LongitudeDegrees>
            </Position>
            <AltitudeMeters>-54.59999847412109375</AltitudeMeters>
            <DistanceMeters>NAN</DistanceMeters>
          </Trackpoint>
          <Trackpoint>
            <Time>2022-07-12T17:35:11.000Z</Time>
            <Position>
              <LatitudeDegrees>43.3896313793957233428955078125</LatitudeDegrees>
              <LongitudeDegrees>-3.2280333526432514190673828125</LongitudeDegrees>
            </Position>
            <AltitudeMeters>-53.799999237060546875</AltitudeMeters>
            <DistanceMeters>NAN</DistanceMeters>
          </Trackpoint>
          <Trackpoint>
            <Time>2022-07-12T17:35:12.000Z</Time>
            <Position>
              <LatitudeDegrees>43.3896129392087459564208984375</LatitudeDegrees>
              <LongitudeDegrees>-3.22806537151336669921875</LongitudeDegrees>
            </Position>
            <AltitudeMeters>-53.59999847412109375</AltitudeMeters>
            <DistanceMeters>NAN</DistanceMeters>
          </Trackpoint>
          <Trackpoint>
            <Time>2022-07-12T17:35:18.000Z</Time>
            <Position>
              <LatitudeDegrees>43.38952786289155483245849609375</LatitudeDegrees>
              <LongitudeDegrees>-3.22825270704925060272216796875</LongitudeDegrees>
            </Position>
            <AltitudeMeters>-53</AltitudeMeters>
            <DistanceMeters>NAN</DistanceMeters>
          </Trackpoint>
          <Trackpoint>
            <Time>2022-07-12T17:35:21.000Z</Time>
            <Position>
              <LatitudeDegrees>43.38947363197803497314453125</LatitudeDegrees>
              <LongitudeDegrees>-3.22830869816243648529052734375</LongitudeDegrees>
            </Position>
            <AltitudeMeters>-52.59999847412109375</AltitudeMeters>
            <DistanceMeters>NAN</DistanceMeters>
          </Trackpoint>
          <Trackpoint>
            <Time>2022-07-12T17:35:25.000Z</Time>
            <Position>
              <LatitudeDegrees>43.38940791785717010498046875</LatitudeDegrees>
              <LongitudeDegrees>-3.2283786870539188385009765625</LongitudeDegrees>
            </Position>
            <AltitudeMeters>-51.799999237060546875</AltitudeMeters>
            <DistanceMeters>NAN</DistanceMeters>
          </Trackpoint>
          <Trackpoint>
            <Time>2022-07-12T17:35:27.000Z</Time>
            <Position>
              <LatitudeDegrees>43.38937112130224704742431640625</LatitudeDegrees>
              <LongitudeDegrees>-3.22840542532503604888916015625</LongitudeDegrees>
            </Position>
            <AltitudeMeters>-51.40000152587890625</AltitudeMeters>
            <DistanceMeters>NAN</DistanceMeters>
          </Trackpoint>
          <Trackpoint>
            <Time>2022-07-12T17:35:29.000Z</Time>
            <Position>
              <LatitudeDegrees>43.38933474384248256683349609375</LatitudeDegrees>
              <LongitudeDegrees>-3.22842814028263092041015625</LongitudeDegrees>
            </Position>
            <AltitudeMeters>-51.200000762939453125</AltitudeMeters>
            <DistanceMeters>NAN</DistanceMeters>
          </Trackpoint>
          <Trackpoint>
            <Time>2022-07-12T17:35:31.000Z</Time>
            <Position>
              <LatitudeDegrees>43.38930322788655757904052734375</LatitudeDegrees>
              <LongitudeDegrees>-3.22845806367695331573486328125</LongitudeDegrees>
            </Position>
            <AltitudeMeters>-51.200000762939453125</AltitudeMeters>
            <DistanceMeters>NAN</DistanceMeters>
          </Trackpoint>
          <Trackpoint>
            <Time>2022-07-12T17:35:36.000Z</Time>
            <Position>
              <LatitudeDegrees>43.38923013769090175628662109375</LatitudeDegrees>
              <LongitudeDegrees>-3.22852847166359424591064453125</LongitudeDegrees>
            </Position>
            <AltitudeMeters>-50.40000152587890625</AltitudeMeters>
            <DistanceMeters>NAN</DistanceMeters>
          </Trackpoint>
          <Trackpoint>
            <Time>2022-07-12T17:35:38.000Z</Time>
            <Position>
              <LatitudeDegrees>43.3892082609236240386962890625</LatitudeDegrees>
              <LongitudeDegrees>-3.22855428792536258697509765625</LongitudeDegrees>
            </Position>
            <AltitudeMeters>-50.200000762939453125</AltitudeMeters>
            <DistanceMeters>NAN</DistanceMeters>
          </Trackpoint>
          <Trackpoint>
            <Time>2022-07-12T17:35:44.000Z</Time>
            <Position>
              <LatitudeDegrees>43.3892210014164447784423828125</LatitudeDegrees>
              <LongitudeDegrees>-3.22870717383921146392822265625</LongitudeDegrees>
            </Position>
            <AltitudeMeters>-49.40000152587890625</AltitudeMeters>
            <DistanceMeters>NAN</DistanceMeters>
          </Trackpoint>
          <Trackpoint>
            <Time>2022-07-12T17:35:49.000Z</Time>
            <Position>
              <LatitudeDegrees>43.38921404443681240081787109375</LatitudeDegrees>
              <LongitudeDegrees>-3.22889090515673160552978515625</LongitudeDegrees>
            </Position>
            <AltitudeMeters>-48.799999237060546875</AltitudeMeters>
            <DistanceMeters>NAN</DistanceMeters>
          </Trackpoint>
          <Trackpoint>
            <Time>2022-07-12T17:35:50.000Z</Time>
            <Position>
              <LatitudeDegrees>43.389210440218448638916015625</LatitudeDegrees>
              <LongitudeDegrees>-3.22891085408627986907958984375</LongitudeDegrees>
            </Position>
            <AltitudeMeters>-48.59999847412109375</AltitudeMeters>
            <DistanceMeters>NAN</DistanceMeters>
          </Trackpoint>
          <Trackpoint>
            <Time>2022-07-12T17:35:52.000Z</Time>
            <Position>
              <LatitudeDegrees>43.38919007219374179840087890625</LatitudeDegrees>
              <LongitudeDegrees>-3.22895728982985019683837890625</LongitudeDegrees>
            </Position>
            <AltitudeMeters>-48.40000152587890625</AltitudeMeters>
            <DistanceMeters>NAN</DistanceMeters>
          </Trackpoint>
          <Trackpoint>
            <Time>2022-07-12T17:35:55.000Z</Time>
            <Position>
              <LatitudeDegrees>43.3891578018665313720703125</LatitudeDegrees>
              <LongitudeDegrees>-3.228999115526676177978515625</LongitudeDegrees>
            </Position>
            <AltitudeMeters>-48</AltitudeMeters>
            <DistanceMeters>NAN</DistanceMeters>
          </Trackpoint>
          <Trackpoint>
            <Time>2022-07-12T17:35:56.000Z</Time>
            <Position>
              <LatitudeDegrees>43.389142714440822601318359375</LatitudeDegrees>
              <LongitudeDegrees>-3.22899945080280303955078125</LongitudeDegrees>
            </Position>
            <AltitudeMeters>-48</AltitudeMeters>
            <DistanceMeters>NAN</DistanceMeters>
          </Trackpoint>
          <Trackpoint>
            <Time>2022-07-12T17:35:57.000Z</Time>
            <Position>
              <LatitudeDegrees>43.3891282975673675537109375</LatitudeDegrees>
              <LongitudeDegrees>-3.22899936698377132415771484375</LongitudeDegrees>
            </Position>
            <AltitudeMeters>-47.799999237060546875</AltitudeMeters>
            <DistanceMeters>NAN</DistanceMeters>
          </Trackpoint>
          <Trackpoint>
            <Time>2022-07-12T17:35:59.000Z</Time>
            <Position>
              <LatitudeDegrees>43.38910139165818691253662109375</LatitudeDegrees>
              <LongitudeDegrees>-3.22901831008493900299072265625</LongitudeDegrees>
            </Position>
            <AltitudeMeters>-47.59999847412109375</AltitudeMeters>
            <DistanceMeters>NAN</DistanceMeters>
          </Trackpoint>
          <Trackpoint>
            <Time>2022-07-12T17:36:01.000Z</Time>
            <Position>
              <LatitudeDegrees>43.38907456956803798675537109375</LatitudeDegrees>
              <LongitudeDegrees>-3.2290532626211643218994140625</LongitudeDegrees>
            </Position>
            <AltitudeMeters>-47.40000152587890625</AltitudeMeters>
            <DistanceMeters>NAN</DistanceMeters>
          </Trackpoint>
          <Trackpoint>
            <Time>2022-07-12T17:36:02.000Z</Time>
            <Position>
              <LatitudeDegrees>43.38906191289424896240234375</LatitudeDegrees>
              <LongitudeDegrees>-3.229073546826839447021484375</LongitudeDegrees>
            </Position>
            <AltitudeMeters>-47.200000762939453125</AltitudeMeters>
            <DistanceMeters>NAN</DistanceMeters>
          </Trackpoint>
          <Trackpoint>
            <Time>2022-07-12T17:36:09.000Z</Time>
            <Position>
              <LatitudeDegrees>43.388982452452182769775390625</LatitudeDegrees>
              <LongitudeDegrees>-3.229218386113643646240234375</LongitudeDegrees>
            </Position>
            <AltitudeMeters>-46.59999847412109375</AltitudeMeters>
            <DistanceMeters>NAN</DistanceMeters>
          </Trackpoint>
          <Trackpoint>
            <Time>2022-07-12T17:36:14.000Z</Time>
            <Position>
              <LatitudeDegrees>43.38892646133899688720703125</LatitudeDegrees>
              <LongitudeDegrees>-3.22930748574435710906982421875</LongitudeDegrees>
            </Position>
            <AltitudeMeters>-46.40000152587890625</AltitudeMeters>
            <DistanceMeters>NAN</DistanceMeters>
          </Trackpoint>
          <Trackpoint>
            <Time>2022-07-12T17:36:15.000Z</Time>
            <Position>
              <LatitudeDegrees>43.38891573250293731689453125</LatitudeDegrees>
              <LongitudeDegrees>-3.2293177954852581024169921875</LongitudeDegrees>
            </Position>
            <AltitudeMeters>-46.200000762939453125</AltitudeMeters>
            <DistanceMeters>NAN</DistanceMeters>
          </Trackpoint>
          <Trackpoint>
            <Time>2022-07-12T17:36:19.000Z</Time>
            <Position>
              <LatitudeDegrees>43.38888580910861492156982421875</LatitudeDegrees>
              <LongitudeDegrees>-3.22938074357807636260986328125</LongitudeDegrees>
            </Position>
            <AltitudeMeters>-45.799999237060546875</AltitudeMeters>
            <DistanceMeters>NAN</DistanceMeters>
          </Trackpoint>
          <Trackpoint>
            <Time>2022-07-12T17:36:20.000Z</Time>
            <Position>
              <LatitudeDegrees>43.38887818157672882080078125</LatitudeDegrees>
              <LongitudeDegrees>-3.229397423565387725830078125</LongitudeDegrees>
            </Position>
            <AltitudeMeters>-45.799999237060546875</AltitudeMeters>
            <DistanceMeters>NAN</DistanceMeters>
          </Trackpoint>
          <Trackpoint>
            <Time>2022-07-12T17:36:24.000Z</Time>
            <Position>
              <LatitudeDegrees>43.3888260461390018463134765625</LatitudeDegrees>
              <LongitudeDegrees>-3.22946322150528430938720703125</LongitudeDegrees>
            </Position>
            <AltitudeMeters>-45.200000762939453125</AltitudeMeters>
            <DistanceMeters>NAN</DistanceMeters>
          </Trackpoint>
          <Trackpoint>
            <Time>2022-07-12T17:36:27.000Z</Time>
            <Position>
              <LatitudeDegrees>43.3887791074812412261962890625</LatitudeDegrees>
              <LongitudeDegrees>-3.22948786430060863494873046875</LongitudeDegrees>
            </Position>
            <AltitudeMeters>-45</AltitudeMeters>
            <DistanceMeters>NAN</DistanceMeters>
          </Trackpoint>
          <Trackpoint>
            <Time>2022-07-12T17:36:28.000Z</Time>
            <Position>
              <LatitudeDegrees>43.38877717964351177215576171875</LatitudeDegrees>
              <LongitudeDegrees>-3.22949565947055816650390625</LongitudeDegrees>
            </Position>
            <AltitudeMeters>-45</AltitudeMeters>
            <DistanceMeters>NAN</DistanceMeters>
          </Trackpoint>
          <Trackpoint>
            <Time>2022-07-12T17:44:38.000Z</Time>
            <Position>
              <LatitudeDegrees>43.3886862359941005706787109375</LatitudeDegrees>
              <LongitudeDegrees>-3.22957880795001983642578125</LongitudeDegrees>
            </Position>
            <AltitudeMeters>-46.59999847412109375</AltitudeMeters>
            <DistanceMeters>NAN</DistanceMeters>
          </Trackpoint>
          <Trackpoint>
            <Time>2022-07-12T17:44:39.000Z</Time>
            <Position>
              <LatitudeDegrees>43.3886714838445186614990234375</LatitudeDegrees>
              <LongitudeDegrees>-3.22960169054567813873291015625</LongitudeDegrees>
            </Position>
            <AltitudeMeters>-46.59999847412109375</AltitudeMeters>
            <DistanceMeters>NAN</DistanceMeters>
          </Trackpoint>
          <Trackpoint>
            <Time>2022-07-12T17:44:40.000Z</Time>
            <Position>
              <LatitudeDegrees>43.38865865953266620635986328125</LatitudeDegrees>
              <LongitudeDegrees>-3.2296255789697170257568359375</LongitudeDegrees>
            </Position>
            <AltitudeMeters>-46.59999847412109375</AltitudeMeters>
            <DistanceMeters>NAN</DistanceMeters>
          </Trackpoint>
          <Trackpoint>
            <Time>2022-07-12T17:44:41.000Z</Time>
            <Position>
              <LatitudeDegrees>43.38865480385720729827880859375</LatitudeDegrees>
              <LongitudeDegrees>-3.22964510880410671234130859375</LongitudeDegrees>
            </Position>
            <AltitudeMeters>-46.59999847412109375</AltitudeMeters>
            <DistanceMeters>NAN</DistanceMeters>
          </Trackpoint>
          <Trackpoint>
            <Time>2022-07-12T17:44:44.000Z</Time>
            <Position>
              <LatitudeDegrees>43.38868330232799053192138671875</LatitudeDegrees>
              <LongitudeDegrees>-3.22970596142113208770751953125</LongitudeDegrees>
            </Position>
            <AltitudeMeters>-46.799999237060546875</AltitudeMeters>
            <DistanceMeters>NAN</DistanceMeters>
          </Trackpoint>
          <Trackpoint>
            <Time>2022-07-12T17:44:49.000Z</Time>
            <Position>
              <LatitudeDegrees>43.3887608349323272705078125</LatitudeDegrees>
              <LongitudeDegrees>-3.22979665361344814300537109375</LongitudeDegrees>
            </Position>
            <AltitudeMeters>-46.40000152587890625</AltitudeMeters>
            <DistanceMeters>NAN</DistanceMeters>
          </Trackpoint>
          <Trackpoint>
            <Time>2022-07-12T17:44:50.000Z</Time>
            <Position>
              <LatitudeDegrees>43.38877567090094089508056640625</LatitudeDegrees>
              <LongitudeDegrees>-3.2298195362091064453125</LongitudeDegrees>
            </Position>
            <AltitudeMeters>-46.40000152587890625</AltitudeMeters>
            <DistanceMeters>NAN</DistanceMeters>
          </Trackpoint>
          <Trackpoint>
            <Time>2022-07-12T17:44:57.000Z</Time>
            <Position>
              <LatitudeDegrees>43.38889502920210361480712890625</LatitudeDegrees>
              <LongitudeDegrees>-3.22992959059774875640869140625</LongitudeDegrees>
            </Position>
            <AltitudeMeters>-46</AltitudeMeters>
            <DistanceMeters>NAN</DistanceMeters>
          </Trackpoint>
          <Trackpoint>
            <Time>2022-07-12T17:44:59.000Z</Time>
            <Position>
              <LatitudeDegrees>43.38893727399408817291259765625</LatitudeDegrees>
              <LongitudeDegrees>-3.22996160946786403656005859375</LongitudeDegrees>
            </Position>
            <AltitudeMeters>-45.799999237060546875</AltitudeMeters>
            <DistanceMeters>NAN</DistanceMeters>
          </Trackpoint>
          <Trackpoint>
            <Time>2022-07-12T17:45:03.000Z</Time>
            <Position>
              <LatitudeDegrees>43.38901631534099578857421875</LatitudeDegrees>
              <LongitudeDegrees>-3.230031095445156097412109375</LongitudeDegrees>
            </Position>
            <AltitudeMeters>-45.59999847412109375</AltitudeMeters>
            <DistanceMeters>NAN</DistanceMeters>
          </Trackpoint>
          <Trackpoint>
            <Time>2022-07-12T17:45:09.000Z</Time>
            <Position>
              <LatitudeDegrees>43.38914045132696628570556640625</LatitudeDegrees>
              <LongitudeDegrees>-3.23009739629924297332763671875</LongitudeDegrees>
            </Position>
            <AltitudeMeters>-45</AltitudeMeters>
            <DistanceMeters>NAN</DistanceMeters>
          </Trackpoint>
          <Trackpoint>
            <Time>2022-07-12T17:45:13.000Z</Time>
            <Position>
              <LatitudeDegrees>43.38921613991260528564453125</LatitudeDegrees>
              <LongitudeDegrees>-3.23015539906919002532958984375</LongitudeDegrees>
            </Position>
            <AltitudeMeters>-44.799999237060546875</AltitudeMeters>
            <DistanceMeters>NAN</DistanceMeters>
          </Trackpoint>
          <Trackpoint>
            <Time>2022-07-12T17:45:18.000Z</Time>
            <Position>
              <LatitudeDegrees>43.38931001722812652587890625</LatitudeDegrees>
              <LongitudeDegrees>-3.23022949509322643280029296875</LongitudeDegrees>
            </Position>
            <AltitudeMeters>-44.59999847412109375</AltitudeMeters>
            <DistanceMeters>NAN</DistanceMeters>
          </Trackpoint>
          <Trackpoint>
            <Time>2022-07-12T17:45:19.000Z</Time>
            <Position>
              <LatitudeDegrees>43.3893279545009136199951171875</LatitudeDegrees>
              <LongitudeDegrees>-3.23024139739573001861572265625</LongitudeDegrees>
            </Position>
            <AltitudeMeters>-44.40000152587890625</AltitudeMeters>
            <DistanceMeters>NAN</DistanceMeters>
          </Trackpoint>
          <Trackpoint>
            <Time>2022-07-12T17:45:21.000Z</Time>
            <Position>
              <LatitudeDegrees>43.38936491869390010833740234375</LatitudeDegrees>
              <LongitudeDegrees>-3.23027039878070354461669921875</LongitudeDegrees>
            </Position>
            <AltitudeMeters>-44.200000762939453125</AltitudeMeters>
            <DistanceMeters>NAN</DistanceMeters>
          </Trackpoint>
          <Trackpoint>
            <Time>2022-07-12T17:45:25.000Z</Time>
            <Position>
              <LatitudeDegrees>43.3894474804401397705078125</LatitudeDegrees>
              <LongitudeDegrees>-3.23032890446484088897705078125</LongitudeDegrees>
            </Position>
            <AltitudeMeters>-43.799999237060546875</AltitudeMeters>
            <DistanceMeters>NAN</DistanceMeters>
          </Trackpoint>
          <Trackpoint>
            <Time>2022-07-12T17:45:30.000Z</Time>
            <Position>
              <LatitudeDegrees>43.38954060338437557220458984375</LatitudeDegrees>
              <LongitudeDegrees>-3.2303997315466403961181640625</LongitudeDegrees>
            </Position>
            <AltitudeMeters>-43.40000152587890625</AltitudeMeters>
            <DistanceMeters>NAN</DistanceMeters>
          </Trackpoint>
          <Trackpoint>
            <Time>2022-07-12T17:45:34.000Z</Time>
            <Position>
              <LatitudeDegrees>43.38961578905582427978515625</LatitudeDegrees>
              <LongitudeDegrees>-3.23046259582042694091796875</LongitudeDegrees>
            </Position>
            <AltitudeMeters>-42.799999237060546875</AltitudeMeters>
            <DistanceMeters>NAN</DistanceMeters>
          </Trackpoint>
          <Trackpoint>
            <Time>2022-07-12T17:45:37.000Z</Time>
            <Position>
              <LatitudeDegrees>43.38967144489288330078125</LatitudeDegrees>
              <LongitudeDegrees>-3.230496458709239959716796875</LongitudeDegrees>
            </Position>
            <AltitudeMeters>-42.40000152587890625</AltitudeMeters>
            <DistanceMeters>NAN</DistanceMeters>
          </Trackpoint>
          <Trackpoint>
            <Time>2022-07-12T17:45:38.000Z</Time>
            <Position>
              <LatitudeDegrees>43.38969114236533641815185546875</LatitudeDegrees>
              <LongitudeDegrees>-3.2305137254297733306884765625</LongitudeDegrees>
            </Position>
            <AltitudeMeters>-42.200000762939453125</AltitudeMeters>
            <DistanceMeters>NAN</DistanceMeters>
          </Trackpoint>
          <Trackpoint>
            <Time>2022-07-12T17:45:39.000Z</Time>
            <Position>
              <LatitudeDegrees>43.38971176184713840484619140625</LatitudeDegrees>
              <LongitudeDegrees>-3.23053107596933841705322265625</LongitudeDegrees>
            </Position>
            <AltitudeMeters>-42.200000762939453125</AltitudeMeters>
            <DistanceMeters>NAN</DistanceMeters>
          </Trackpoint>
          <Trackpoint>
            <Time>2022-07-12T17:45:40.000Z</Time>
            <Position>
              <LatitudeDegrees>43.38973221369087696075439453125</LatitudeDegrees>
              <LongitudeDegrees>-3.2305462472140789031982421875</LongitudeDegrees>
            </Position>
            <AltitudeMeters>-42</AltitudeMeters>
            <DistanceMeters>NAN</DistanceMeters>
          </Trackpoint>
          <Trackpoint>
            <Time>2022-07-12T17:45:47.000Z</Time>
            <Position>
              <LatitudeDegrees>43.38987068273127079010009765625</LatitudeDegrees>
              <LongitudeDegrees>-3.23063920252025127410888671875</LongitudeDegrees>
            </Position>
            <AltitudeMeters>-41.200000762939453125</AltitudeMeters>
            <DistanceMeters>NAN</DistanceMeters>
          </Trackpoint>
          <Trackpoint>
            <Time>2022-07-12T17:45:48.000Z</Time>
            <Position>
              <LatitudeDegrees>43.389888368546962738037109375</LatitudeDegrees>
              <LongitudeDegrees>-3.2306485064327716827392578125</LongitudeDegrees>
            </Position>
            <AltitudeMeters>-41.200000762939453125</AltitudeMeters>
            <DistanceMeters>NAN</DistanceMeters>
          </Trackpoint>
          <Trackpoint>
            <Time>2022-07-12T17:45:56.000Z</Time>
            <Position>
              <LatitudeDegrees>43.39003714732825756072998046875</LatitudeDegrees>
              <LongitudeDegrees>-3.23075721971690654754638671875</LongitudeDegrees>
            </Position>
            <AltitudeMeters>-40.40000152587890625</AltitudeMeters>
            <DistanceMeters>NAN</DistanceMeters>
          </Trackpoint>
          <Trackpoint>
            <Time>2022-07-12T17:45:58.000Z</Time>
            <Position>
              <LatitudeDegrees>43.3900772966444492340087890625</LatitudeDegrees>
              <LongitudeDegrees>-3.23077641427516937255859375</LongitudeDegrees>
            </Position>
            <AltitudeMeters>-40.200000762939453125</AltitudeMeters>
            <DistanceMeters>NAN</DistanceMeters>
          </Trackpoint>
          <Trackpoint>
            <Time>2022-07-12T17:45:59.000Z</Time>
            <Position>
              <LatitudeDegrees>43.39009682647883892059326171875</LatitudeDegrees>
              <LongitudeDegrees>-3.23079007677733898162841796875</LongitudeDegrees>
            </Position>
            <AltitudeMeters>-40.200000762939453125</AltitudeMeters>
            <DistanceMeters>NAN</DistanceMeters>
          </Trackpoint>
          <Trackpoint>
            <Time>2022-07-12T17:46:00.000Z</Time>
            <Position>
              <LatitudeDegrees>43.39011509902775287628173828125</LatitudeDegrees>
              <LongitudeDegrees>-3.230804242193698883056640625</LongitudeDegrees>
            </Position>
            <AltitudeMeters>-40</AltitudeMeters>
            <DistanceMeters>NAN</DistanceMeters>
          </Trackpoint>
          <Trackpoint>
            <Time>2022-07-12T17:46:05.000Z</Time>
            <Position>
              <LatitudeDegrees>43.39019556529819965362548828125</LatitudeDegrees>
              <LongitudeDegrees>-3.23088697157800197601318359375</LongitudeDegrees>
            </Position>
            <AltitudeMeters>-39.40000152587890625</AltitudeMeters>
            <DistanceMeters>NAN</DistanceMeters>
          </Trackpoint>
          <Trackpoint>
            <Time>2022-07-12T17:46:06.000Z</Time>
            <Position>
              <LatitudeDegrees>43.39021232910454273223876953125</LatitudeDegrees>
              <LongitudeDegrees>-3.2309044897556304931640625</LongitudeDegrees>
            </Position>
            <AltitudeMeters>-39.40000152587890625</AltitudeMeters>
            <DistanceMeters>NAN</DistanceMeters>
          </Trackpoint>
          <Trackpoint>
            <Time>2022-07-12T17:46:08.000Z</Time>
            <Position>
              <LatitudeDegrees>43.39025004766881465911865234375</LatitudeDegrees>
              <LongitudeDegrees>-3.23093307204544544219970703125</LongitudeDegrees>
            </Position>
            <AltitudeMeters>-39.200000762939453125</AltitudeMeters>
            <DistanceMeters>NAN</DistanceMeters>
          </Trackpoint>
          <Trackpoint>
            <Time>2022-07-12T17:46:10.000Z</Time>
            <Position>
              <LatitudeDegrees>43.390280641615390777587890625</LatitudeDegrees>
              <LongitudeDegrees>-3.230970203876495361328125</LongitudeDegrees>
            </Position>
            <AltitudeMeters>-38.799999237060546875</AltitudeMeters>
            <DistanceMeters>NAN</DistanceMeters>
          </Trackpoint>
          <Trackpoint>
            <Time>2022-07-12T17:46:16.000Z</Time>
            <Position>
              <LatitudeDegrees>43.39039220474660396575927734375</LatitudeDegrees>
              <LongitudeDegrees>-3.23104798793792724609375</LongitudeDegrees>
            </Position>
            <AltitudeMeters>-38.200000762939453125</AltitudeMeters>
            <DistanceMeters>NAN</DistanceMeters>
          </Trackpoint>
          <Trackpoint>
            <Time>2022-07-12T17:46:17.000Z</Time>
            <Position>
              <LatitudeDegrees>43.39040930382907390594482421875</LatitudeDegrees>
              <LongitudeDegrees>-3.23106475174427032470703125</LongitudeDegrees>
            </Position>
            <AltitudeMeters>-38.200000762939453125</AltitudeMeters>
            <DistanceMeters>NAN</DistanceMeters>
          </Trackpoint>
          <Trackpoint>
            <Time>2022-07-12T17:46:18.000Z</Time>
            <Position>
              <LatitudeDegrees>43.39042522944509983062744140625</LatitudeDegrees>
              <LongitudeDegrees>-3.23108243755996227264404296875</LongitudeDegrees>
            </Position>
            <AltitudeMeters>-38</AltitudeMeters>
            <DistanceMeters>NAN</DistanceMeters>
          </Trackpoint>
          <Trackpoint>
            <Time>2022-07-12T17:46:19.000Z</Time>
            <Position>
              <LatitudeDegrees>43.39044065214693546295166015625</LatitudeDegrees>
              <LongitudeDegrees>-3.2311001233756542205810546875</LongitudeDegrees>
            </Position>
            <AltitudeMeters>-37.799999237060546875</AltitudeMeters>
            <DistanceMeters>NAN</DistanceMeters>
          </Trackpoint>
          <Trackpoint>
            <Time>2022-07-12T17:46:21.000Z</Time>
            <Position>
              <LatitudeDegrees>43.39047434739768505096435546875</LatitudeDegrees>
              <LongitudeDegrees>-3.23112308979034423828125</LongitudeDegrees>
            </Position>
            <AltitudeMeters>-37.59999847412109375</AltitudeMeters>
            <DistanceMeters>NAN</DistanceMeters>
          </Trackpoint>
          <Trackpoint>
            <Time>2022-07-12T17:46:24.000Z</Time>
            <Position>
              <LatitudeDegrees>43.39052866213023662567138671875</LatitudeDegrees>
              <LongitudeDegrees>-3.23115217499434947967529296875</LongitudeDegrees>
            </Position>
            <AltitudeMeters>-37.40000152587890625</AltitudeMeters>
            <DistanceMeters>NAN</DistanceMeters>
          </Trackpoint>
          <Trackpoint>
            <Time>2022-07-12T17:46:27.000Z</Time>
            <Position>
              <LatitudeDegrees>43.39057928882539272308349609375</LatitudeDegrees>
              <LongitudeDegrees>-3.23119081556797027587890625</LongitudeDegrees>
            </Position>
            <AltitudeMeters>-37</AltitudeMeters>
            <DistanceMeters>NAN</DistanceMeters>
          </Trackpoint>
          <Trackpoint>
            <Time>2022-07-12T17:46:28.000Z</Time>
            <Position>
              <LatitudeDegrees>43.390597142279148101806640625</LatitudeDegrees>
              <LongitudeDegrees>-3.23119911365211009979248046875</LongitudeDegrees>
            </Position>
            <AltitudeMeters>-37</AltitudeMeters>
            <DistanceMeters>NAN</DistanceMeters>
          </Trackpoint>
          <Trackpoint>
            <Time>2022-07-12T17:46:30.000Z</Time>
            <Position>
              <LatitudeDegrees>43.39063645340502262115478515625</LatitudeDegrees>
              <LongitudeDegrees>-3.23121151886880397796630859375</LongitudeDegrees>
            </Position>
            <AltitudeMeters>-36.799999237060546875</AltitudeMeters>
            <DistanceMeters>NAN</DistanceMeters>
          </Trackpoint>
          <Trackpoint>
            <Time>2022-07-12T17:46:36.000Z</Time>
            <Position>
              <LatitudeDegrees>43.3907408080995082855224609375</LatitudeDegrees>
              <LongitudeDegrees>-3.2312774844467639923095703125</LongitudeDegrees>
            </Position>
            <AltitudeMeters>-35.799999237060546875</AltitudeMeters>
            <DistanceMeters>NAN</DistanceMeters>
          </Trackpoint>
          <Trackpoint>
            <Time>2022-07-12T17:46:38.000Z</Time>
            <Position>
              <LatitudeDegrees>43.3907763473689556121826171875</LatitudeDegrees>
              <LongitudeDegrees>-3.23130304925143718719482421875</LongitudeDegrees>
            </Position>
            <AltitudeMeters>-35.59999847412109375</AltitudeMeters>
            <DistanceMeters>NAN</DistanceMeters>
          </Trackpoint>
          <Trackpoint>
            <Time>2022-07-12T17:46:44.000Z</Time>
            <Position>
              <LatitudeDegrees>43.390875421464443206787109375</LatitudeDegrees>
              <LongitudeDegrees>-3.23135887272655963897705078125</LongitudeDegrees>
            </Position>
            <AltitudeMeters>-34.799999237060546875</AltitudeMeters>
            <DistanceMeters>NAN</DistanceMeters>
          </Trackpoint>
          <Trackpoint>
            <Time>2022-07-12T17:46:49.000Z</Time>
            <Position>
              <LatitudeDegrees>43.39095965959131717681884765625</LatitudeDegrees>
              <LongitudeDegrees>-3.231407068669795989990234375</LongitudeDegrees>
            </Position>
            <AltitudeMeters>-34.40000152587890625</AltitudeMeters>
            <DistanceMeters>NAN</DistanceMeters>
          </Trackpoint>
          <Trackpoint>
            <Time>2022-07-12T17:46:51.000Z</Time>
            <Position>
              <LatitudeDegrees>43.3909959532320499420166015625</LatitudeDegrees>
              <LongitudeDegrees>-3.2314139418303966522216796875</LongitudeDegrees>
            </Position>
            <AltitudeMeters>-34.200000762939453125</AltitudeMeters>
            <DistanceMeters>NAN</DistanceMeters>
          </Trackpoint>
          <Trackpoint>
            <Time>2022-07-12T17:46:55.000Z</Time>
            <Position>
              <LatitudeDegrees>43.391061164438724517822265625</LatitudeDegrees>
              <LongitudeDegrees>-3.2314447872340679168701171875</LongitudeDegrees>
            </Position>
            <AltitudeMeters>-33.59999847412109375</AltitudeMeters>
            <DistanceMeters>NAN</DistanceMeters>
          </Trackpoint>
          <Trackpoint>
            <Time>2022-07-12T17:46:58.000Z</Time>
            <Position>
              <LatitudeDegrees>43.39111405424773693084716796875</LatitudeDegrees>
              <LongitudeDegrees>-3.231466077268123626708984375</LongitudeDegrees>
            </Position>
            <AltitudeMeters>-33.40000152587890625</AltitudeMeters>
            <DistanceMeters>NAN</DistanceMeters>
          </Trackpoint>
          <Trackpoint>
            <Time>2022-07-12T17:47:04.000Z</Time>
            <Position>
              <LatitudeDegrees>43.3912177383899688720703125</LatitudeDegrees>
              <LongitudeDegrees>-3.23148711584508419036865234375</LongitudeDegrees>
            </Position>
            <AltitudeMeters>-32.59999847412109375</AltitudeMeters>
            <DistanceMeters>NAN</DistanceMeters>
          </Trackpoint>
          <Trackpoint>
            <Time>2022-07-12T17:47:11.000Z</Time>
            <Position>
              <LatitudeDegrees>43.3913560397922992706298828125</LatitudeDegrees>
              <LongitudeDegrees>-3.23144855909049510955810546875</LongitudeDegrees>
            </Position>
            <AltitudeMeters>-32</AltitudeMeters>
            <DistanceMeters>NAN</DistanceMeters>
          </Trackpoint>
          <Trackpoint>
            <Time>2022-07-12T17:47:13.000Z</Time>
            <Position>
              <LatitudeDegrees>43.3913945965468883514404296875</LatitudeDegrees>
              <LongitudeDegrees>-3.231442272663116455078125</LongitudeDegrees>
            </Position>
            <AltitudeMeters>-31.799999237060546875</AltitudeMeters>
            <DistanceMeters>NAN</DistanceMeters>
          </Trackpoint>
          <Trackpoint>
            <Time>2022-07-12T17:47:16.000Z</Time>
            <Position>
              <LatitudeDegrees>43.39144044555723667144775390625</LatitudeDegrees>
              <LongitudeDegrees>-3.231463395059108734130859375</LongitudeDegrees>
            </Position>
            <AltitudeMeters>-31.6000003814697265625</AltitudeMeters>
            <DistanceMeters>NAN</DistanceMeters>
          </Trackpoint>
          <Trackpoint>
            <Time>2022-07-12T17:47:18.000Z</Time>
            <Position>
              <LatitudeDegrees>43.391471542418003082275390625</LatitudeDegrees>
              <LongitudeDegrees>-3.231501281261444091796875</LongitudeDegrees>
            </Position>
            <AltitudeMeters>-31.3999996185302734375</AltitudeMeters>
            <DistanceMeters>NAN</DistanceMeters>
          </Trackpoint>
          <Trackpoint>
            <Time>2022-07-12T17:47:22.000Z</Time>
            <Position>
              <LatitudeDegrees>43.39152644388377666473388671875</LatitudeDegrees>
              <LongitudeDegrees>-3.23158032260835170745849609375</LongitudeDegrees>
            </Position>
            <AltitudeMeters>-31</AltitudeMeters>
            <DistanceMeters>NAN</DistanceMeters>
          </Trackpoint>
          <Trackpoint>
            <Time>2022-07-12T17:47:23.000Z</Time>
            <Position>
              <LatitudeDegrees>43.3915434591472148895263671875</LatitudeDegrees>
              <LongitudeDegrees>-3.23158199898898601531982421875</LongitudeDegrees>
            </Position>
            <AltitudeMeters>-31</AltitudeMeters>
            <DistanceMeters>NAN</DistanceMeters>
          </Trackpoint>
          <Trackpoint>
            <Time>2022-07-12T17:47:24.000Z</Time>
            <Position>
              <LatitudeDegrees>43.391560055315494537353515625</LatitudeDegrees>
              <LongitudeDegrees>-3.2315708510577678680419921875</LongitudeDegrees>
            </Position>
            <AltitudeMeters>-30.799999237060546875</AltitudeMeters>
            <DistanceMeters>NAN</DistanceMeters>
          </Trackpoint>
          <Trackpoint>
            <Time>2022-07-12T17:47:26.000Z</Time>
            <Position>
              <LatitudeDegrees>43.391594588756561279296875</LatitudeDegrees>
              <LongitudeDegrees>-3.2315309531986713409423828125</LongitudeDegrees>
            </Position>
            <AltitudeMeters>-30.799999237060546875</AltitudeMeters>
            <DistanceMeters>NAN</DistanceMeters>
          </Trackpoint>
          <Trackpoint>
            <Time>2022-07-12T17:47:28.000Z</Time>
            <Position>
              <LatitudeDegrees>43.39163205586373805999755859375</LatitudeDegrees>
              <LongitudeDegrees>-3.2314957492053508758544921875</LongitudeDegrees>
            </Position>
            <AltitudeMeters>-30.6000003814697265625</AltitudeMeters>
            <DistanceMeters>NAN</DistanceMeters>
          </Trackpoint>
          <Trackpoint>
            <Time>2022-07-12T17:47:31.000Z</Time>
            <Position>
              <LatitudeDegrees>43.39168335311114788055419921875</LatitudeDegrees>
              <LongitudeDegrees>-3.23147873394191265106201171875</LongitudeDegrees>
            </Position>
            <AltitudeMeters>-30.200000762939453125</AltitudeMeters>
            <DistanceMeters>NAN</DistanceMeters>
          </Trackpoint>
          <Trackpoint>
            <Time>2022-07-12T17:47:35.000Z</Time>
            <Position>
              <LatitudeDegrees>43.3917593769729137420654296875</LatitudeDegrees>
              <LongitudeDegrees>-3.23146440088748931884765625</LongitudeDegrees>
            </Position>
            <AltitudeMeters>-29.799999237060546875</AltitudeMeters>
            <DistanceMeters>NAN</DistanceMeters>
          </Trackpoint>
          <Trackpoint>
            <Time>2022-07-12T17:47:37.000Z</Time>
            <Position>
              <LatitudeDegrees>43.39179265312850475311279296875</LatitudeDegrees>
              <LongitudeDegrees>-3.23146213777363300323486328125</LongitudeDegrees>
            </Position>
            <AltitudeMeters>-29.6000003814697265625</AltitudeMeters>
            <DistanceMeters>NAN</DistanceMeters>
          </Trackpoint>
          <Trackpoint>
            <Time>2022-07-12T17:47:38.000Z</Time>
            <Position>
              <LatitudeDegrees>43.39180874638259410858154296875</LatitudeDegrees>
              <LongitudeDegrees>-3.23146171867847442626953125</LongitudeDegrees>
            </Position>
            <AltitudeMeters>-29.6000003814697265625</AltitudeMeters>
            <DistanceMeters>NAN</DistanceMeters>
          </Trackpoint>
          <Trackpoint>
            <Time>2022-07-12T17:47:42.000Z</Time>
            <Position>
              <LatitudeDegrees>43.391880579292774200439453125</LatitudeDegrees>
              <LongitudeDegrees>-3.23146096430718898773193359375</LongitudeDegrees>
            </Position>
            <AltitudeMeters>-29</AltitudeMeters>
            <DistanceMeters>NAN</DistanceMeters>
          </Trackpoint>
          <Trackpoint>
            <Time>2022-07-12T17:47:45.000Z</Time>
            <Position>
              <LatitudeDegrees>43.391926176846027374267578125</LatitudeDegrees>
              <LongitudeDegrees>-3.23146984912455081939697265625</LongitudeDegrees>
            </Position>
            <AltitudeMeters>-28.6000003814697265625</AltitudeMeters>
            <DistanceMeters>NAN</DistanceMeters>
          </Trackpoint>
          <Trackpoint>
            <Time>2022-07-12T17:47:47.000Z</Time>
            <Position>
              <LatitudeDegrees>43.39196079410612583160400390625</LatitudeDegrees>
              <LongitudeDegrees>-3.23147806338965892791748046875</LongitudeDegrees>
            </Position>
            <AltitudeMeters>-28.3999996185302734375</AltitudeMeters>
            <DistanceMeters>NAN</DistanceMeters>
          </Trackpoint>
          <Trackpoint>
            <Time>2022-07-12T17:47:57.000Z</Time>
            <Position>
              <LatitudeDegrees>43.39215056039392948150634765625</LatitudeDegrees>
              <LongitudeDegrees>-3.2314903847873210906982421875</LongitudeDegrees>
            </Position>
            <AltitudeMeters>-27.6000003814697265625</AltitudeMeters>
            <DistanceMeters>NAN</DistanceMeters>
          </Trackpoint>
          <Trackpoint>
            <Time>2022-07-12T17:47:58.000Z</Time>
            <Position>
              <LatitudeDegrees>43.39216833002865314483642578125</LatitudeDegrees>
              <LongitudeDegrees>-3.23149197734892368316650390625</LongitudeDegrees>
            </Position>
            <AltitudeMeters>-27.3999996185302734375</AltitudeMeters>
            <DistanceMeters>NAN</DistanceMeters>
          </Trackpoint>
          <Trackpoint>
            <Time>2022-07-12T17:47:59.000Z</Time>
            <Position>
              <LatitudeDegrees>43.39218526147305965423583984375</LatitudeDegrees>
              <LongitudeDegrees>-3.23149415664374828338623046875</LongitudeDegrees>
            </Position>
            <AltitudeMeters>-27.3999996185302734375</AltitudeMeters>
            <DistanceMeters>NAN</DistanceMeters>
          </Trackpoint>
          <Trackpoint>
            <Time>2022-07-12T17:48:04.000Z</Time>
            <Position>
              <LatitudeDegrees>43.3922817371785640716552734375</LatitudeDegrees>
              <LongitudeDegrees>-3.2315084896981716156005859375</LongitudeDegrees>
            </Position>
            <AltitudeMeters>-26.6000003814697265625</AltitudeMeters>
            <DistanceMeters>NAN</DistanceMeters>
          </Trackpoint>
          <Trackpoint>
            <Time>2022-07-12T17:48:06.000Z</Time>
            <Position>
              <LatitudeDegrees>43.392323814332485198974609375</LatitudeDegrees>
              <LongitudeDegrees>-3.2315192185342311859130859375</LongitudeDegrees>
            </Position>
            <AltitudeMeters>-26.3999996185302734375</AltitudeMeters>
            <DistanceMeters>NAN</DistanceMeters>
          </Trackpoint>
          <Trackpoint>
            <Time>2022-07-12T17:48:07.000Z</Time>
            <Position>
              <LatitudeDegrees>43.392343260347843170166015625</LatitudeDegrees>
              <LongitudeDegrees>-3.23152231983840465545654296875</LongitudeDegrees>
            </Position>
            <AltitudeMeters>-26.3999996185302734375</AltitudeMeters>
            <DistanceMeters>NAN</DistanceMeters>
          </Trackpoint>
          <Trackpoint>
            <Time>2022-07-12T17:48:15.000Z</Time>
            <Position>
              <LatitudeDegrees>43.39248239994049072265625</LatitudeDegrees>
              <LongitudeDegrees>-3.2315644808113574981689453125</LongitudeDegrees>
            </Position>
            <AltitudeMeters>-25.3999996185302734375</AltitudeMeters>
            <DistanceMeters>NAN</DistanceMeters>
          </Trackpoint>
          <Trackpoint>
            <Time>2022-07-12T17:48:18.000Z</Time>
            <Position>
              <LatitudeDegrees>43.3925335295498371124267578125</LatitudeDegrees>
              <LongitudeDegrees>-3.2315809093415737152099609375</LongitudeDegrees>
            </Position>
            <AltitudeMeters>-25</AltitudeMeters>
            <DistanceMeters>NAN</DistanceMeters>
          </Trackpoint>
          <Trackpoint>
            <Time>2022-07-12T17:48:25.000Z</Time>
            <Position>
              <LatitudeDegrees>43.392670154571533203125</LatitudeDegrees>
              <LongitudeDegrees>-3.2316260039806365966796875</LongitudeDegrees>
            </Position>
            <AltitudeMeters>-24.3999996185302734375</AltitudeMeters>
            <DistanceMeters>NAN</DistanceMeters>
          </Trackpoint>
          <Trackpoint>
            <Time>2022-07-12T17:48:28.000Z</Time>
            <Position>
              <LatitudeDegrees>43.3927259780466556549072265625</LatitudeDegrees>
              <LongitudeDegrees>-3.2316523231565952301025390625</LongitudeDegrees>
            </Position>
            <AltitudeMeters>-24</AltitudeMeters>
            <DistanceMeters>NAN</DistanceMeters>
          </Trackpoint>
          <Trackpoint>
            <Time>2022-07-12T17:48:33.000Z</Time>
            <Position>
              <LatitudeDegrees>43.39282396249473094940185546875</LatitudeDegrees>
              <LongitudeDegrees>-3.23170638643205165863037109375</LongitudeDegrees>
            </Position>
            <AltitudeMeters>-23.200000762939453125</AltitudeMeters>
            <DistanceMeters>NAN</DistanceMeters>
          </Trackpoint>
          <Trackpoint>
            <Time>2022-07-12T17:48:34.000Z</Time>
            <Position>
              <LatitudeDegrees>43.39284307323396205902099609375</LatitudeDegrees>
              <LongitudeDegrees>-3.231720216572284698486328125</LongitudeDegrees>
            </Position>
            <AltitudeMeters>-23.200000762939453125</AltitudeMeters>
            <DistanceMeters>NAN</DistanceMeters>
          </Trackpoint>
          <Trackpoint>
            <Time>2022-07-12T17:48:40.000Z</Time>
            <Position>
              <LatitudeDegrees>43.392957486212253570556640625</LatitudeDegrees>
              <LongitudeDegrees>-3.23178886435925960540771484375</LongitudeDegrees>
            </Position>
            <AltitudeMeters>-22.6000003814697265625</AltitudeMeters>
            <DistanceMeters>NAN</DistanceMeters>
          </Trackpoint>
          <Trackpoint>
            <Time>2022-07-12T17:48:45.000Z</Time>
            <Position>
              <LatitudeDegrees>43.3930441550910472869873046875</LatitudeDegrees>
              <LongitudeDegrees>-3.231854327023029327392578125</LongitudeDegrees>
            </Position>
            <AltitudeMeters>-22.200000762939453125</AltitudeMeters>
            <DistanceMeters>NAN</DistanceMeters>
          </Trackpoint>
          <Trackpoint>
            <Time>2022-07-12T17:48:49.000Z</Time>
            <Position>
              <LatitudeDegrees>43.3931115455925464630126953125</LatitudeDegrees>
              <LongitudeDegrees>-3.2319228909909725189208984375</LongitudeDegrees>
            </Position>
            <AltitudeMeters>-21.799999237060546875</AltitudeMeters>
            <DistanceMeters>NAN</DistanceMeters>
          </Trackpoint>
          <Trackpoint>
            <Time>2022-07-12T17:49:01.000Z</Time>
            <Position>
              <LatitudeDegrees>43.39331480674445629119873046875</LatitudeDegrees>
              <LongitudeDegrees>-3.2321327738463878631591796875</LongitudeDegrees>
            </Position>
            <AltitudeMeters>-21.200000762939453125</AltitudeMeters>
            <DistanceMeters>NAN</DistanceMeters>
          </Trackpoint>
          <Trackpoint>
            <Time>2022-07-12T17:49:05.000Z</Time>
            <Position>
              <LatitudeDegrees>43.3933847956359386444091796875</LatitudeDegrees>
              <LongitudeDegrees>-3.2322222925722599029541015625</LongitudeDegrees>
            </Position>
            <AltitudeMeters>-21</AltitudeMeters>
            <DistanceMeters>NAN</DistanceMeters>
          </Trackpoint>
          <Trackpoint>
            <Time>2022-07-12T17:49:12.000Z</Time>
            <Position>
              <LatitudeDegrees>43.39349853806197643280029296875</LatitudeDegrees>
              <LongitudeDegrees>-3.23237827979028224945068359375</LongitudeDegrees>
            </Position>
            <AltitudeMeters>-20.6000003814697265625</AltitudeMeters>
            <DistanceMeters>NAN</DistanceMeters>
          </Trackpoint>
          <Trackpoint>
            <Time>2022-07-12T17:49:15.000Z</Time>
            <Position>
              <LatitudeDegrees>43.39354849420487880706787109375</LatitudeDegrees>
              <LongitudeDegrees>-3.232440054416656494140625</LongitudeDegrees>
            </Position>
            <AltitudeMeters>-20.6000003814697265625</AltitudeMeters>
            <DistanceMeters>NAN</DistanceMeters>
          </Trackpoint>
          <Trackpoint>
            <Time>2022-07-12T17:49:19.000Z</Time>
            <Position>
              <LatitudeDegrees>43.3936087600886821746826171875</LatitudeDegrees>
              <LongitudeDegrees>-3.2325237058103084564208984375</LongitudeDegrees>
            </Position>
            <AltitudeMeters>-20.3999996185302734375</AltitudeMeters>
            <DistanceMeters>NAN</DistanceMeters>
          </Trackpoint>
          <Trackpoint>
            <Time>2022-07-12T17:49:21.000Z</Time>
            <Position>
              <LatitudeDegrees>43.39363734237849712371826171875</LatitudeDegrees>
              <LongitudeDegrees>-3.23256167583167552947998046875</LongitudeDegrees>
            </Position>
            <AltitudeMeters>-20.200000762939453125</AltitudeMeters>
            <DistanceMeters>NAN</DistanceMeters>
          </Trackpoint>
          <Trackpoint>
            <Time>2022-07-12T17:49:22.000Z</Time>
            <Position>
              <LatitudeDegrees>43.39365008287131786346435546875</LatitudeDegrees>
              <LongitudeDegrees>-3.232584893703460693359375</LongitudeDegrees>
            </Position>
            <AltitudeMeters>-20.200000762939453125</AltitudeMeters>
            <DistanceMeters>NAN</DistanceMeters>
          </Trackpoint>
          <Trackpoint>
            <Time>2022-07-12T17:49:31.000Z</Time>
            <Position>
              <LatitudeDegrees>43.39377983473241329193115234375</LatitudeDegrees>
              <LongitudeDegrees>-3.23278144933283329010009765625</LongitudeDegrees>
            </Position>
            <AltitudeMeters>-19.6000003814697265625</AltitudeMeters>
            <DistanceMeters>NAN</DistanceMeters>
          </Trackpoint>
          <Trackpoint>
            <Time>2022-07-12T17:49:37.000Z</Time>
            <Position>
              <LatitudeDegrees>43.39385946281254291534423828125</LatitudeDegrees>
              <LongitudeDegrees>-3.23291145265102386474609375</LongitudeDegrees>
            </Position>
            <AltitudeMeters>-19.200000762939453125</AltitudeMeters>
            <DistanceMeters>NAN</DistanceMeters>
          </Trackpoint>
          <Trackpoint>
            <Time>2022-07-12T17:49:39.000Z</Time>
            <Position>
              <LatitudeDegrees>43.39388720691204071044921875</LatitudeDegrees>
              <LongitudeDegrees>-3.2329555414617061614990234375</LongitudeDegrees>
            </Position>
            <AltitudeMeters>-19.200000762939453125</AltitudeMeters>
            <DistanceMeters>NAN</DistanceMeters>
          </Trackpoint>
          <Trackpoint>
            <Time>2022-07-12T17:49:41.000Z</Time>
            <Position>
              <LatitudeDegrees>43.3939131908118724822998046875</LatitudeDegrees>
              <LongitudeDegrees>-3.23299585841596126556396484375</LongitudeDegrees>
            </Position>
            <AltitudeMeters>-19</AltitudeMeters>
            <DistanceMeters>NAN</DistanceMeters>
          </Trackpoint>
          <Trackpoint>
            <Time>2022-07-12T17:49:46.000Z</Time>
            <Position>
              <LatitudeDegrees>43.3939815871417522430419921875</LatitudeDegrees>
              <LongitudeDegrees>-3.23309359140694141387939453125</LongitudeDegrees>
            </Position>
            <AltitudeMeters>-18.6000003814697265625</AltitudeMeters>
            <DistanceMeters>NAN</DistanceMeters>
          </Trackpoint>
          <Trackpoint>
            <Time>2022-07-12T17:49:51.000Z</Time>
            <Position>
              <LatitudeDegrees>43.39405274949967861175537109375</LatitudeDegrees>
              <LongitudeDegrees>-3.23319870047271251678466796875</LongitudeDegrees>
            </Position>
            <AltitudeMeters>-18.3999996185302734375</AltitudeMeters>
            <DistanceMeters>NAN</DistanceMeters>
          </Trackpoint>
          <Trackpoint>
            <Time>2022-07-12T17:49:54.000Z</Time>
            <Position>
              <LatitudeDegrees>43.394099436700344085693359375</LatitudeDegrees>
              <LongitudeDegrees>-3.233261145651340484619140625</LongitudeDegrees>
            </Position>
            <AltitudeMeters>-18.200000762939453125</AltitudeMeters>
            <DistanceMeters>NAN</DistanceMeters>
          </Trackpoint>
          <Trackpoint>
            <Time>2022-07-12T17:49:57.000Z</Time>
            <Position>
              <LatitudeDegrees>43.39414796791970729827880859375</LatitudeDegrees>
              <LongitudeDegrees>-3.23332224972546100616455078125</LongitudeDegrees>
            </Position>
            <AltitudeMeters>-18</AltitudeMeters>
            <DistanceMeters>NAN</DistanceMeters>
          </Trackpoint>
          <Trackpoint>
            <Time>2022-07-12T17:49:58.000Z</Time>
            <Position>
              <LatitudeDegrees>43.394164480268955230712890625</LatitudeDegrees>
              <LongitudeDegrees>-3.23334001936018466949462890625</LongitudeDegrees>
            </Position>
            <AltitudeMeters>-18</AltitudeMeters>
            <DistanceMeters>NAN</DistanceMeters>
          </Trackpoint>
          <Trackpoint>
            <Time>2022-07-12T17:50:07.000Z</Time>
            <Position>
              <LatitudeDegrees>43.39433874003589153289794921875</LatitudeDegrees>
              <LongitudeDegrees>-3.23348955251276493072509765625</LongitudeDegrees>
            </Position>
            <AltitudeMeters>-17.6000003814697265625</AltitudeMeters>
            <DistanceMeters>NAN</DistanceMeters>
          </Trackpoint>
          <Trackpoint>
            <Time>2022-07-12T17:50:16.000Z</Time>
            <Position>
              <LatitudeDegrees>43.39449279941618442535400390625</LatitudeDegrees>
              <LongitudeDegrees>-3.23377068154513835906982421875</LongitudeDegrees>
            </Position>
            <AltitudeMeters>-17.3999996185302734375</AltitudeMeters>
            <DistanceMeters>NAN</DistanceMeters>
          </Trackpoint>
          <Trackpoint>
            <Time>2022-07-12T17:50:21.000Z</Time>
            <Position>
              <LatitudeDegrees>43.39457645080983638763427734375</LatitudeDegrees>
              <LongitudeDegrees>-3.2339648902416229248046875</LongitudeDegrees>
            </Position>
            <AltitudeMeters>-17.3999996185302734375</AltitudeMeters>
            <DistanceMeters>NAN</DistanceMeters>
          </Trackpoint>
          <Trackpoint>
            <Time>2022-07-12T17:50:24.000Z</Time>
            <Position>
              <LatitudeDegrees>43.39463629759848117828369140625</LatitudeDegrees>
              <LongitudeDegrees>-3.23408399708569049835205078125</LongitudeDegrees>
            </Position>
            <AltitudeMeters>-17.3999996185302734375</AltitudeMeters>
            <DistanceMeters>NAN</DistanceMeters>
          </Trackpoint>
          <Trackpoint>
            <Time>2022-07-12T17:50:34.000Z</Time>
            <Position>
              <LatitudeDegrees>43.39485573582351207733154296875</LatitudeDegrees>
              <LongitudeDegrees>-3.2345460914075374603271484375</LongitudeDegrees>
            </Position>
            <AltitudeMeters>-17.799999237060546875</AltitudeMeters>
            <DistanceMeters>NAN</DistanceMeters>
          </Trackpoint>
          <Trackpoint>
            <Time>2022-07-12T17:50:39.000Z</Time>
            <Position>
              <LatitudeDegrees>43.394985236227512359619140625</LatitudeDegrees>
              <LongitudeDegrees>-3.2348495163023471832275390625</LongitudeDegrees>
            </Position>
            <AltitudeMeters>-18</AltitudeMeters>
            <DistanceMeters>NAN</DistanceMeters>
          </Trackpoint>
          <Trackpoint>
            <Time>2022-07-12T17:50:50.000Z</Time>
            <Position>
              <LatitudeDegrees>43.39528153650462627410888671875</LatitudeDegrees>
              <LongitudeDegrees>-3.2355425320565700531005859375</LongitudeDegrees>
            </Position>
            <AltitudeMeters>-19</AltitudeMeters>
            <DistanceMeters>NAN</DistanceMeters>
          </Trackpoint>
          <Trackpoint>
            <Time>2022-07-12T17:50:51.000Z</Time>
            <Position>
              <LatitudeDegrees>43.39530768804252147674560546875</LatitudeDegrees>
              <LongitudeDegrees>-3.23560439050197601318359375</LongitudeDegrees>
            </Position>
            <AltitudeMeters>-19</AltitudeMeters>
            <DistanceMeters>NAN</DistanceMeters>
          </Trackpoint>
          <Trackpoint>
            <Time>2022-07-12T17:51:01.000Z</Time>
            <Position>
              <LatitudeDegrees>43.39560189284384250640869140625</LatitudeDegrees>
              <LongitudeDegrees>-3.2362516410648822784423828125</LongitudeDegrees>
            </Position>
            <AltitudeMeters>-19.6000003814697265625</AltitudeMeters>
            <DistanceMeters>NAN</DistanceMeters>
          </Trackpoint>
          <Trackpoint>
            <Time>2022-07-12T17:51:06.000Z</Time>
            <Position>
              <LatitudeDegrees>43.3957853727042675018310546875</LatitudeDegrees>
              <LongitudeDegrees>-3.23655188083648681640625</LongitudeDegrees>
            </Position>
            <AltitudeMeters>-20</AltitudeMeters>
            <DistanceMeters>NAN</DistanceMeters>
          </Trackpoint>
          <Trackpoint>
            <Time>2022-07-12T17:51:07.000Z</Time>
            <Position>
              <LatitudeDegrees>43.39582334272563457489013671875</LatitudeDegrees>
              <LongitudeDegrees>-3.2366107217967510223388671875</LongitudeDegrees>
            </Position>
            <AltitudeMeters>-20.200000762939453125</AltitudeMeters>
            <DistanceMeters>NAN</DistanceMeters>
          </Trackpoint>
          <Trackpoint>
            <Time>2022-07-12T17:51:09.000Z</Time>
            <Position>
              <LatitudeDegrees>43.39589961804449558258056640625</LatitudeDegrees>
              <LongitudeDegrees>-3.23672957718372344970703125</LongitudeDegrees>
            </Position>
            <AltitudeMeters>-20.6000003814697265625</AltitudeMeters>
            <DistanceMeters>NAN</DistanceMeters>
          </Trackpoint>
          <Trackpoint>
            <Time>2022-07-12T17:51:10.000Z</Time>
            <Position>
              <LatitudeDegrees>43.39593716897070407867431640625</LatitudeDegrees>
              <LongitudeDegrees>-3.236786909401416778564453125</LongitudeDegrees>
            </Position>
            <AltitudeMeters>-20.6000003814697265625</AltitudeMeters>
            <DistanceMeters>NAN</DistanceMeters>
          </Trackpoint>
          <Trackpoint>
            <Time>2022-07-12T17:51:14.000Z</Time>
            <Position>
              <LatitudeDegrees>43.39608217589557170867919921875</LatitudeDegrees>
              <LongitudeDegrees>-3.23701481334865093231201171875</LongitudeDegrees>
            </Position>
            <AltitudeMeters>-21.200000762939453125</AltitudeMeters>
            <DistanceMeters>NAN</DistanceMeters>
          </Trackpoint>
          <Trackpoint>
            <Time>2022-07-12T17:51:17.000Z</Time>
            <Position>
              <LatitudeDegrees>43.3961773104965686798095703125</LatitudeDegrees>
              <LongitudeDegrees>-3.2371981255710124969482421875</LongitudeDegrees>
            </Position>
            <AltitudeMeters>-21.3999996185302734375</AltitudeMeters>
            <DistanceMeters>NAN</DistanceMeters>
          </Trackpoint>
          <Trackpoint>
            <Time>2022-07-12T17:51:19.000Z</Time>
            <Position>
              <LatitudeDegrees>43.3962388336658477783203125</LatitudeDegrees>
              <LongitudeDegrees>-3.23732561431825160980224609375</LongitudeDegrees>
            </Position>
            <AltitudeMeters>-21.6000003814697265625</AltitudeMeters>
            <DistanceMeters>NAN</DistanceMeters>
          </Trackpoint>
          <Trackpoint>
            <Time>2022-07-12T17:51:24.000Z</Time>
            <Position>
              <LatitudeDegrees>43.39638828299939632415771484375</LatitudeDegrees>
              <LongitudeDegrees>-3.23767212219536304473876953125</LongitudeDegrees>
            </Position>
            <AltitudeMeters>-22.200000762939453125</AltitudeMeters>
            <DistanceMeters>NAN</DistanceMeters>
          </Trackpoint>
          <Trackpoint>
            <Time>2022-07-12T17:51:26.000Z</Time>
            <Position>
              <LatitudeDegrees>43.3964425139129161834716796875</LatitudeDegrees>
              <LongitudeDegrees>-3.2378291152417659759521484375</LongitudeDegrees>
            </Position>
            <AltitudeMeters>-22.3999996185302734375</AltitudeMeters>
            <DistanceMeters>NAN</DistanceMeters>
          </Trackpoint>
          <Trackpoint>
            <Time>2022-07-12T17:51:27.000Z</Time>
            <Position>
              <LatitudeDegrees>43.39646891690790653228759765625</LatitudeDegrees>
              <LongitudeDegrees>-3.2379115931689739227294921875</LongitudeDegrees>
            </Position>
            <AltitudeMeters>-22.6000003814697265625</AltitudeMeters>
            <DistanceMeters>NAN</DistanceMeters>
          </Trackpoint>
          <Trackpoint>
            <Time>2022-07-12T17:51:32.000Z</Time>
            <Position>
              <LatitudeDegrees>43.39659766294062137603759765625</LatitudeDegrees>
              <LongitudeDegrees>-3.2383565045893192291259765625</LongitudeDegrees>
            </Position>
            <AltitudeMeters>-23.3999996185302734375</AltitudeMeters>
            <DistanceMeters>NAN</DistanceMeters>
          </Trackpoint>
          <Trackpoint>
            <Time>2022-07-12T17:51:33.000Z</Time>
            <Position>
              <LatitudeDegrees>43.3966242335736751556396484375</LatitudeDegrees>
              <LongitudeDegrees>-3.23844795115292072296142578125</LongitudeDegrees>
            </Position>
            <AltitudeMeters>-23.6000003814697265625</AltitudeMeters>
            <DistanceMeters>NAN</DistanceMeters>
          </Trackpoint>
          <Trackpoint>
            <Time>2022-07-12T17:51:37.000Z</Time>
            <Position>
              <LatitudeDegrees>43.39673462323844432830810546875</LatitudeDegrees>
              <LongitudeDegrees>-3.23881105519831180572509765625</LongitudeDegrees>
            </Position>
            <AltitudeMeters>-24.3999996185302734375</AltitudeMeters>
            <DistanceMeters>NAN</DistanceMeters>
          </Trackpoint>
          <Trackpoint>
            <Time>2022-07-12T17:51:43.000Z</Time>
            <Position>
              <LatitudeDegrees>43.3968991599977016448974609375</LatitudeDegrees>
              <LongitudeDegrees>-3.2393690384924411773681640625</LongitudeDegrees>
            </Position>
            <AltitudeMeters>-25.3999996185302734375</AltitudeMeters>
            <DistanceMeters>NAN</DistanceMeters>
          </Trackpoint>
          <Trackpoint>
            <Time>2022-07-12T17:51:44.000Z</Time>
            <Position>
              <LatitudeDegrees>43.3969279937446117401123046875</LatitudeDegrees>
              <LongitudeDegrees>-3.23946517892181873321533203125</LongitudeDegrees>
            </Position>
            <AltitudeMeters>-25.3999996185302734375</AltitudeMeters>
            <DistanceMeters>NAN</DistanceMeters>
          </Trackpoint>
          <Trackpoint>
            <Time>2022-07-12T17:51:52.000Z</Time>
            <Position>
              <LatitudeDegrees>43.39715145528316497802734375</LatitudeDegrees>
              <LongitudeDegrees>-3.24023254215717315673828125</LongitudeDegrees>
            </Position>
            <AltitudeMeters>-26.3999996185302734375</AltitudeMeters>
            <DistanceMeters>NAN</DistanceMeters>
          </Trackpoint>
          <Trackpoint>
            <Time>2022-07-12T17:51:53.000Z</Time>
            <Position>
              <LatitudeDegrees>43.39718154631555080413818359375</LatitudeDegrees>
              <LongitudeDegrees>-3.2403270900249481201171875</LongitudeDegrees>
            </Position>
            <AltitudeMeters>-26.3999996185302734375</AltitudeMeters>
            <DistanceMeters>NAN</DistanceMeters>
          </Trackpoint>
          <Trackpoint>
            <Time>2022-07-12T17:51:59.000Z</Time>
            <Position>
              <LatitudeDegrees>43.3973423950374126434326171875</LatitudeDegrees>
              <LongitudeDegrees>-3.24087820015847682952880859375</LongitudeDegrees>
            </Position>
            <AltitudeMeters>-26.799999237060546875</AltitudeMeters>
            <DistanceMeters>NAN</DistanceMeters>
          </Trackpoint>
          <Trackpoint>
            <Time>2022-07-12T17:52:02.000Z</Time>
            <Position>
              <LatitudeDegrees>43.39741230010986328125</LatitudeDegrees>
              <LongitudeDegrees>-3.2411332614719867706298828125</LongitudeDegrees>
            </Position>
            <AltitudeMeters>-27</AltitudeMeters>
            <DistanceMeters>NAN</DistanceMeters>
          </Trackpoint>
          <Trackpoint>
            <Time>2022-07-12T17:52:05.000Z</Time>
            <Position>
              <LatitudeDegrees>43.3974738232791423797607421875</LatitudeDegrees>
              <LongitudeDegrees>-3.2413575612008571624755859375</LongitudeDegrees>
            </Position>
            <AltitudeMeters>-27</AltitudeMeters>
            <DistanceMeters>NAN</DistanceMeters>
          </Trackpoint>
          <Trackpoint>
            <Time>2022-07-12T17:52:08.000Z</Time>
            <Position>
              <LatitudeDegrees>43.3975262939929962158203125</LatitudeDegrees>
              <LongitudeDegrees>-3.24157171882688999176025390625</LongitudeDegrees>
            </Position>
            <AltitudeMeters>-27</AltitudeMeters>
            <DistanceMeters>NAN</DistanceMeters>
          </Trackpoint>
          <Trackpoint>
            <Time>2022-07-12T17:52:17.000Z</Time>
            <Position>
              <LatitudeDegrees>43.39764188043773174285888671875</LatitudeDegrees>
              <LongitudeDegrees>-3.24215828441083431243896484375</LongitudeDegrees>
            </Position>
            <AltitudeMeters>-26.6000003814697265625</AltitudeMeters>
            <DistanceMeters>NAN</DistanceMeters>
          </Trackpoint>
          <Trackpoint>
            <Time>2022-07-12T17:52:26.000Z</Time>
            <Position>
              <LatitudeDegrees>43.39772653765976428985595703125</LatitudeDegrees>
              <LongitudeDegrees>-3.24271601624786853790283203125</LongitudeDegrees>
            </Position>
            <AltitudeMeters>-26.3999996185302734375</AltitudeMeters>
            <DistanceMeters>NAN</DistanceMeters>
          </Trackpoint>
          <Trackpoint>
            <Time>2022-07-12T17:52:27.000Z</Time>
            <Position>
              <LatitudeDegrees>43.3977328240871429443359375</LatitudeDegrees>
              <LongitudeDegrees>-3.2427781261503696441650390625</LongitudeDegrees>
            </Position>
            <AltitudeMeters>-26.3999996185302734375</AltitudeMeters>
            <DistanceMeters>NAN</DistanceMeters>
          </Trackpoint>
          <Trackpoint>
            <Time>2022-07-12T17:52:31.000Z</Time>
            <Position>
              <LatitudeDegrees>43.39775972999632358551025390625</LatitudeDegrees>
              <LongitudeDegrees>-3.2430374622344970703125</LongitudeDegrees>
            </Position>
            <AltitudeMeters>-26.200000762939453125</AltitudeMeters>
            <DistanceMeters>NAN</DistanceMeters>
          </Trackpoint>
          <Trackpoint>
            <Time>2022-07-12T17:52:36.000Z</Time>
            <Position>
              <LatitudeDegrees>43.397786803543567657470703125</LatitudeDegrees>
              <LongitudeDegrees>-3.24336594901978969573974609375</LongitudeDegrees>
            </Position>
            <AltitudeMeters>-26.6000003814697265625</AltitudeMeters>
            <DistanceMeters>NAN</DistanceMeters>
          </Trackpoint>
          <Trackpoint>
            <Time>2022-07-12T17:52:38.000Z</Time>
            <Position>
              <LatitudeDegrees>43.3977971971035003662109375</LatitudeDegrees>
              <LongitudeDegrees>-3.243501149117946624755859375</LongitudeDegrees>
            </Position>
            <AltitudeMeters>-26.799999237060546875</AltitudeMeters>
            <DistanceMeters>NAN</DistanceMeters>
          </Trackpoint>
          <Trackpoint>
            <Time>2022-07-12T17:52:39.000Z</Time>
            <Position>
              <LatitudeDegrees>43.39779996313154697418212890625</LatitudeDegrees>
              <LongitudeDegrees>-3.24357247911393642425537109375</LongitudeDegrees>
            </Position>
            <AltitudeMeters>-26.799999237060546875</AltitudeMeters>
            <DistanceMeters>NAN</DistanceMeters>
          </Trackpoint>
          <Trackpoint>
            <Time>2022-07-12T17:52:47.000Z</Time>
            <Position>
              <LatitudeDegrees>43.39783608913421630859375</LatitudeDegrees>
              <LongitudeDegrees>-3.24414546601474285125732421875</LongitudeDegrees>
            </Position>
            <AltitudeMeters>-26.799999237060546875</AltitudeMeters>
            <DistanceMeters>NAN</DistanceMeters>
          </Trackpoint>
          <Trackpoint>
            <Time>2022-07-12T17:52:57.000Z</Time>
            <Position>
              <LatitudeDegrees>43.39787699282169342041015625</LatitudeDegrees>
              <LongitudeDegrees>-3.24488483369350433349609375</LongitudeDegrees>
            </Position>
            <AltitudeMeters>-27.200000762939453125</AltitudeMeters>
            <DistanceMeters>NAN</DistanceMeters>
          </Trackpoint>
          <Trackpoint>
            <Time>2022-07-12T17:52:59.000Z</Time>
            <Position>
              <LatitudeDegrees>43.39788378216326236724853515625</LatitudeDegrees>
              <LongitudeDegrees>-3.24503503739833831787109375</LongitudeDegrees>
            </Position>
            <AltitudeMeters>-27.3999996185302734375</AltitudeMeters>
            <DistanceMeters>NAN</DistanceMeters>
          </Trackpoint>
          <Trackpoint>
            <Time>2022-07-12T17:53:02.000Z</Time>
            <Position>
              <LatitudeDegrees>43.397898115217685699462890625</LatitudeDegrees>
              <LongitudeDegrees>-3.2452571578323841094970703125</LongitudeDegrees>
            </Position>
            <AltitudeMeters>-27.6000003814697265625</AltitudeMeters>
            <DistanceMeters>NAN</DistanceMeters>
          </Trackpoint>
          <Trackpoint>
            <Time>2022-07-12T17:53:10.000Z</Time>
            <Position>
              <LatitudeDegrees>43.39792954735457897186279296875</LatitudeDegrees>
              <LongitudeDegrees>-3.24584665708243846893310546875</LongitudeDegrees>
            </Position>
            <AltitudeMeters>-27.6000003814697265625</AltitudeMeters>
            <DistanceMeters>NAN</DistanceMeters>
          </Trackpoint>
          <Trackpoint>
            <Time>2022-07-12T17:53:16.000Z</Time>
            <Position>
              <LatitudeDegrees>43.39795217849314212799072265625</LatitudeDegrees>
              <LongitudeDegrees>-3.2462824322283267974853515625</LongitudeDegrees>
            </Position>
            <AltitudeMeters>-27.799999237060546875</AltitudeMeters>
            <DistanceMeters>NAN</DistanceMeters>
          </Trackpoint>
          <Trackpoint>
            <Time>2022-07-12T17:53:20.000Z</Time>
            <Position>
              <LatitudeDegrees>43.39797514490783214569091796875</LatitudeDegrees>
              <LongitudeDegrees>-3.24657051824033260345458984375</LongitudeDegrees>
            </Position>
            <AltitudeMeters>-28.200000762939453125</AltitudeMeters>
            <DistanceMeters>NAN</DistanceMeters>
          </Trackpoint>
          <Trackpoint>
            <Time>2022-07-12T17:53:22.000Z</Time>
            <Position>
              <LatitudeDegrees>43.39798520319163799285888671875</LatitudeDegrees>
              <LongitudeDegrees>-3.24671418406069278717041015625</LongitudeDegrees>
            </Position>
            <AltitudeMeters>-28.200000762939453125</AltitudeMeters>
            <DistanceMeters>NAN</DistanceMeters>
          </Trackpoint>
          <Trackpoint>
            <Time>2022-07-12T17:53:25.000Z</Time>
            <Position>
              <LatitudeDegrees>43.39801252819597721099853515625</LatitudeDegrees>
              <LongitudeDegrees>-3.24691484682261943817138671875</LongitudeDegrees>
            </Position>
            <AltitudeMeters>-28.3999996185302734375</AltitudeMeters>
            <DistanceMeters>NAN</DistanceMeters>
          </Trackpoint>
          <Trackpoint>
            <Time>2022-07-12T17:53:29.000Z</Time>
            <Position>
              <LatitudeDegrees>43.3980588801205158233642578125</LatitudeDegrees>
              <LongitudeDegrees>-3.2471699081361293792724609375</LongitudeDegrees>
            </Position>
            <AltitudeMeters>-28.3999996185302734375</AltitudeMeters>
            <DistanceMeters>NAN</DistanceMeters>
          </Trackpoint>
          <Trackpoint>
            <Time>2022-07-12T17:53:36.000Z</Time>
            <Position>
              <LatitudeDegrees>43.3981302939355373382568359375</LatitudeDegrees>
              <LongitudeDegrees>-3.24756209738552570343017578125</LongitudeDegrees>
            </Position>
            <AltitudeMeters>-28</AltitudeMeters>
            <DistanceMeters>NAN</DistanceMeters>
          </Trackpoint>
          <Trackpoint>
            <Time>2022-07-12T17:53:37.000Z</Time>
            <Position>
              <LatitudeDegrees>43.39813976548612117767333984375</LatitudeDegrees>
              <LongitudeDegrees>-3.24761406518518924713134765625</LongitudeDegrees>
            </Position>
            <AltitudeMeters>-27.799999237060546875</AltitudeMeters>
            <DistanceMeters>NAN</DistanceMeters>
          </Trackpoint>
          <Trackpoint>
            <Time>2022-07-12T17:53:42.000Z</Time>
            <Position>
              <LatitudeDegrees>43.39818854816257953643798828125</LatitudeDegrees>
              <LongitudeDegrees>-3.24784691445529460906982421875</LongitudeDegrees>
            </Position>
            <AltitudeMeters>-27.6000003814697265625</AltitudeMeters>
            <DistanceMeters>NAN</DistanceMeters>
          </Trackpoint>
          <Trackpoint>
            <Time>2022-07-12T17:53:45.000Z</Time>
            <Position>
              <LatitudeDegrees>43.39821226894855499267578125</LatitudeDegrees>
              <LongitudeDegrees>-3.24797666631639003753662109375</LongitudeDegrees>
            </Position>
            <AltitudeMeters>-27.3999996185302734375</AltitudeMeters>
            <DistanceMeters>NAN</DistanceMeters>
          </Trackpoint>
          <Trackpoint>
            <Time>2022-07-12T17:53:53.000Z</Time>
            <Position>
              <LatitudeDegrees>43.39826163835823535919189453125</LatitudeDegrees>
              <LongitudeDegrees>-3.24825259856879711151123046875</LongitudeDegrees>
            </Position>
            <AltitudeMeters>-26.6000003814697265625</AltitudeMeters>
            <DistanceMeters>NAN</DistanceMeters>
          </Trackpoint>
          <Trackpoint>
            <Time>2022-07-12T17:53:56.000Z</Time>
            <Position>
              <LatitudeDegrees>43.3982821740210056304931640625</LatitudeDegrees>
              <LongitudeDegrees>-3.2483433745801448822021484375</LongitudeDegrees>
            </Position>
            <AltitudeMeters>-26.3999996185302734375</AltitudeMeters>
            <DistanceMeters>NAN</DistanceMeters>
          </Trackpoint>
          <Trackpoint>
            <Time>2022-07-12T17:53:59.000Z</Time>
            <Position>
              <LatitudeDegrees>43.39830338023602962493896484375</LatitudeDegrees>
              <LongitudeDegrees>-3.2484318874776363372802734375</LongitudeDegrees>
            </Position>
            <AltitudeMeters>-25.799999237060546875</AltitudeMeters>
            <DistanceMeters>NAN</DistanceMeters>
          </Trackpoint>
          <Trackpoint>
            <Time>2022-07-12T17:54:03.000Z</Time>
            <Position>
              <LatitudeDegrees>43.39832483790814876556396484375</LatitudeDegrees>
              <LongitudeDegrees>-3.248551078140735626220703125</LongitudeDegrees>
            </Position>
            <AltitudeMeters>-25.6000003814697265625</AltitudeMeters>
            <DistanceMeters>NAN</DistanceMeters>
          </Trackpoint>
          <Trackpoint>
            <Time>2022-07-12T17:54:05.000Z</Time>
            <Position>
              <LatitudeDegrees>43.39833539910614490509033203125</LatitudeDegrees>
              <LongitudeDegrees>-3.24861167930066585540771484375</LongitudeDegrees>
            </Position>
            <AltitudeMeters>-25.3999996185302734375</AltitudeMeters>
            <DistanceMeters>NAN</DistanceMeters>
          </Trackpoint>
          <Trackpoint>
            <Time>2022-07-12T17:54:06.000Z</Time>
            <Position>
              <LatitudeDegrees>43.3983415178954601287841796875</LatitudeDegrees>
              <LongitudeDegrees>-3.24864068068563938140869140625</LongitudeDegrees>
            </Position>
            <AltitudeMeters>-25.200000762939453125</AltitudeMeters>
            <DistanceMeters>NAN</DistanceMeters>
          </Trackpoint>
          <Trackpoint>
            <Time>2022-07-12T17:54:08.000Z</Time>
            <Position>
              <LatitudeDegrees>43.39835601858794689178466796875</LatitudeDegrees>
              <LongitudeDegrees>-3.248697258532047271728515625</LongitudeDegrees>
            </Position>
            <AltitudeMeters>-25.200000762939453125</AltitudeMeters>
            <DistanceMeters>NAN</DistanceMeters>
          </Trackpoint>
          <Trackpoint>
            <Time>2022-07-12T17:54:14.000Z</Time>
            <Position>
              <LatitudeDegrees>43.39838736690580844879150390625</LatitudeDegrees>
              <LongitudeDegrees>-3.24884377419948577880859375</LongitudeDegrees>
            </Position>
            <AltitudeMeters>-24.6000003814697265625</AltitudeMeters>
            <DistanceMeters>NAN</DistanceMeters>
          </Trackpoint>
          <Trackpoint>
            <Time>2022-07-12T17:54:16.000Z</Time>
            <Position>
              <LatitudeDegrees>43.39839734137058258056640625</LatitudeDegrees>
              <LongitudeDegrees>-3.24889901094138622283935546875</LongitudeDegrees>
            </Position>
            <AltitudeMeters>-24.200000762939453125</AltitudeMeters>
            <DistanceMeters>NAN</DistanceMeters>
          </Trackpoint>
          <Trackpoint>
            <Time>2022-07-12T17:54:23.000Z</Time>
            <Position>
              <LatitudeDegrees>43.3984377421438694000244140625</LatitudeDegrees>
              <LongitudeDegrees>-3.249069750308990478515625</LongitudeDegrees>
            </Position>
            <AltitudeMeters>-23.3999996185302734375</AltitudeMeters>
            <DistanceMeters>NAN</DistanceMeters>
          </Trackpoint>
          <Trackpoint>
            <Time>2022-07-12T17:54:25.000Z</Time>
            <Position>
              <LatitudeDegrees>43.39844889007508754730224609375</LatitudeDegrees>
              <LongitudeDegrees>-3.24912280775606632232666015625</LongitudeDegrees>
            </Position>
            <AltitudeMeters>-23.200000762939453125</AltitudeMeters>
            <DistanceMeters>NAN</DistanceMeters>
          </Trackpoint>
          <Trackpoint>
            <Time>2022-07-12T17:54:36.000Z</Time>
            <Position>
              <LatitudeDegrees>43.39851778931915760040283203125</LatitudeDegrees>
              <LongitudeDegrees>-3.2493917830288410186767578125</LongitudeDegrees>
            </Position>
            <AltitudeMeters>-22.200000762939453125</AltitudeMeters>
            <DistanceMeters>NAN</DistanceMeters>
          </Trackpoint>
          <Trackpoint>
            <Time>2022-07-12T17:54:37.000Z</Time>
            <Position>
              <LatitudeDegrees>43.3985245786607265472412109375</LatitudeDegrees>
              <LongitudeDegrees>-3.2494152523577213287353515625</LongitudeDegrees>
            </Position>
            <AltitudeMeters>-22.200000762939453125</AltitudeMeters>
            <DistanceMeters>NAN</DistanceMeters>
          </Trackpoint>
          <Trackpoint>
            <Time>2022-07-12T17:54:47.000Z</Time>
            <Position>
              <LatitudeDegrees>43.3985889516770839691162109375</LatitudeDegrees>
              <LongitudeDegrees>-3.24964835308492183685302734375</LongitudeDegrees>
            </Position>
            <AltitudeMeters>-21.200000762939453125</AltitudeMeters>
            <DistanceMeters>NAN</DistanceMeters>
          </Trackpoint>
          <Trackpoint>
            <Time>2022-07-12T17:54:48.000Z</Time>
            <Position>
              <LatitudeDegrees>43.3985946513712406158447265625</LatitudeDegrees>
              <LongitudeDegrees>-3.2496717385947704315185546875</LongitudeDegrees>
            </Position>
            <AltitudeMeters>-21.200000762939453125</AltitudeMeters>
            <DistanceMeters>NAN</DistanceMeters>
          </Trackpoint>
          <Trackpoint>
            <Time>2022-07-12T17:54:52.000Z</Time>
            <Position>
              <LatitudeDegrees>43.3986191265285015106201171875</LatitudeDegrees>
              <LongitudeDegrees>-3.249764107167720794677734375</LongitudeDegrees>
            </Position>
            <AltitudeMeters>-20.6000003814697265625</AltitudeMeters>
            <DistanceMeters>NAN</DistanceMeters>
          </Trackpoint>
          <Trackpoint>
            <Time>2022-07-12T17:54:57.000Z</Time>
            <Position>
              <LatitudeDegrees>43.39865743182599544525146484375</LatitudeDegrees>
              <LongitudeDegrees>-3.249875418841838836669921875</LongitudeDegrees>
            </Position>
            <AltitudeMeters>-20.200000762939453125</AltitudeMeters>
            <DistanceMeters>NAN</DistanceMeters>
          </Trackpoint>
          <Trackpoint>
            <Time>2022-07-12T17:54:58.000Z</Time>
            <Position>
              <LatitudeDegrees>43.3986627124249935150146484375</LatitudeDegrees>
              <LongitudeDegrees>-3.24990048073232173919677734375</LongitudeDegrees>
            </Position>
            <AltitudeMeters>-20</AltitudeMeters>
            <DistanceMeters>NAN</DistanceMeters>
          </Trackpoint>
          <Trackpoint>
            <Time>2022-07-12T17:55:08.000Z</Time>
            <Position>
              <LatitudeDegrees>43.398740999400615692138671875</LatitudeDegrees>
              <LongitudeDegrees>-3.25012846849858760833740234375</LongitudeDegrees>
            </Position>
            <AltitudeMeters>-19.200000762939453125</AltitudeMeters>
            <DistanceMeters>NAN</DistanceMeters>
          </Trackpoint>
          <Trackpoint>
            <Time>2022-07-12T17:55:10.000Z</Time>
            <Position>
              <LatitudeDegrees>43.39875415898859500885009765625</LatitudeDegrees>
              <LongitudeDegrees>-3.25017373077571392059326171875</LongitudeDegrees>
            </Position>
            <AltitudeMeters>-19</AltitudeMeters>
            <DistanceMeters>NAN</DistanceMeters>
          </Trackpoint>
          <Trackpoint>
            <Time>2022-07-12T17:55:16.000Z</Time>
            <Position>
              <LatitudeDegrees>43.39880059473216533660888671875</LatitudeDegrees>
              <LongitudeDegrees>-3.25031203217804431915283203125</LongitudeDegrees>
            </Position>
            <AltitudeMeters>-18.6000003814697265625</AltitudeMeters>
            <DistanceMeters>NAN</DistanceMeters>
          </Trackpoint>
          <Trackpoint>
            <Time>2022-07-12T17:55:21.000Z</Time>
            <Position>
              <LatitudeDegrees>43.398845605552196502685546875</LatitudeDegrees>
              <LongitudeDegrees>-3.25042585842311382293701171875</LongitudeDegrees>
            </Position>
            <AltitudeMeters>-18.3999996185302734375</AltitudeMeters>
            <DistanceMeters>NAN</DistanceMeters>
          </Trackpoint>
          <Trackpoint>
            <Time>2022-07-12T17:55:24.000Z</Time>
            <Position>
              <LatitudeDegrees>43.3988739363849163055419921875</LatitudeDegrees>
              <LongitudeDegrees>-3.25049090199172496795654296875</LongitudeDegrees>
            </Position>
            <AltitudeMeters>-18.200000762939453125</AltitudeMeters>
            <DistanceMeters>NAN</DistanceMeters>
          </Trackpoint>
          <Trackpoint>
            <Time>2022-07-12T17:55:26.000Z</Time>
            <Position>
              <LatitudeDegrees>43.3988943882286548614501953125</LatitudeDegrees>
              <LongitudeDegrees>-3.250542618334293365478515625</LongitudeDegrees>
            </Position>
            <AltitudeMeters>-18</AltitudeMeters>
            <DistanceMeters>NAN</DistanceMeters>
          </Trackpoint>
          <Trackpoint>
            <Time>2022-07-12T17:55:33.000Z</Time>
            <Position>
              <LatitudeDegrees>43.3989567495882511138916015625</LatitudeDegrees>
              <LongitudeDegrees>-3.250693492591381072998046875</LongitudeDegrees>
            </Position>
            <AltitudeMeters>-17.3999996185302734375</AltitudeMeters>
            <DistanceMeters>NAN</DistanceMeters>
          </Trackpoint>
          <Trackpoint>
            <Time>2022-07-12T17:55:36.000Z</Time>
            <Position>
              <LatitudeDegrees>43.39898231439292430877685546875</LatitudeDegrees>
              <LongitudeDegrees>-3.2507593743503093719482421875</LongitudeDegrees>
            </Position>
            <AltitudeMeters>-17.200000762939453125</AltitudeMeters>
            <DistanceMeters>NAN</DistanceMeters>
          </Trackpoint>
          <Trackpoint>
            <Time>2022-07-12T17:55:40.000Z</Time>
            <Position>
              <LatitudeDegrees>43.39901936240494251251220703125</LatitudeDegrees>
              <LongitudeDegrees>-3.2508539222180843353271484375</LongitudeDegrees>
            </Position>
            <AltitudeMeters>-17</AltitudeMeters>
            <DistanceMeters>NAN</DistanceMeters>
          </Trackpoint>
          <Trackpoint>
            <Time>2022-07-12T17:55:46.000Z</Time>
            <Position>
              <LatitudeDegrees>43.39907451532781124114990234375</LatitudeDegrees>
              <LongitudeDegrees>-3.25100135989487171173095703125</LongitudeDegrees>
            </Position>
            <AltitudeMeters>-16.6000003814697265625</AltitudeMeters>
            <DistanceMeters>NAN</DistanceMeters>
          </Trackpoint>
          <Trackpoint>
            <Time>2022-07-12T17:55:47.000Z</Time>
            <Position>
              <LatitudeDegrees>43.39908423833549022674560546875</LatitudeDegrees>
              <LongitudeDegrees>-3.2510306127369403839111328125</LongitudeDegrees>
            </Position>
            <AltitudeMeters>-16.3999996185302734375</AltitudeMeters>
            <DistanceMeters>NAN</DistanceMeters>
          </Trackpoint>
          <Trackpoint>
            <Time>2022-07-12T17:55:53.000Z</Time>
            <Position>
              <LatitudeDegrees>43.39914274401962757110595703125</LatitudeDegrees>
              <LongitudeDegrees>-3.25118794105947017669677734375</LongitudeDegrees>
            </Position>
            <AltitudeMeters>-16.200000762939453125</AltitudeMeters>
            <DistanceMeters>NAN</DistanceMeters>
          </Trackpoint>
          <Trackpoint>
            <Time>2022-07-12T17:55:54.000Z</Time>
            <Position>
              <LatitudeDegrees>43.3991569094359874725341796875</LatitudeDegrees>
              <LongitudeDegrees>-3.25120872817933559417724609375</LongitudeDegrees>
            </Position>
            <AltitudeMeters>-16</AltitudeMeters>
            <DistanceMeters>NAN</DistanceMeters>
          </Trackpoint>
          <Trackpoint>
            <Time>2022-07-12T17:55:55.000Z</Time>
            <Position>
              <LatitudeDegrees>43.39917115867137908935546875</LatitudeDegrees>
              <LongitudeDegrees>-3.25122884474694728851318359375</LongitudeDegrees>
            </Position>
            <AltitudeMeters>-16</AltitudeMeters>
            <DistanceMeters>NAN</DistanceMeters>
          </Trackpoint>
          <Trackpoint>
            <Time>2022-07-12T17:55:56.000Z</Time>
            <Position>
              <LatitudeDegrees>43.39918331243097782135009765625</LatitudeDegrees>
              <LongitudeDegrees>-3.25125508010387420654296875</LongitudeDegrees>
            </Position>
            <AltitudeMeters>-15.80000019073486328125</AltitudeMeters>
            <DistanceMeters>NAN</DistanceMeters>
          </Trackpoint>
          <Trackpoint>
            <Time>2022-07-12T17:56:01.000Z</Time>
            <Position>
              <LatitudeDegrees>43.39923310093581676483154296875</LatitudeDegrees>
              <LongitudeDegrees>-3.25138340704143047332763671875</LongitudeDegrees>
            </Position>
            <AltitudeMeters>-15.6000003814697265625</AltitudeMeters>
            <DistanceMeters>NAN</DistanceMeters>
          </Trackpoint>
          <Trackpoint>
            <Time>2022-07-12T17:56:03.000Z</Time>
            <Position>
              <LatitudeDegrees>43.39925388805568218231201171875</LatitudeDegrees>
              <LongitudeDegrees>-3.25143269263207912445068359375</LongitudeDegrees>
            </Position>
            <AltitudeMeters>-15.3999996185302734375</AltitudeMeters>
            <DistanceMeters>NAN</DistanceMeters>
          </Trackpoint>
          <Trackpoint>
            <Time>2022-07-12T17:56:09.000Z</Time>
            <Position>
              <LatitudeDegrees>43.39931733906269073486328125</LatitudeDegrees>
              <LongitudeDegrees>-3.25160368345677852630615234375</LongitudeDegrees>
            </Position>
            <AltitudeMeters>-15</AltitudeMeters>
            <DistanceMeters>NAN</DistanceMeters>
          </Trackpoint>
          <Trackpoint>
            <Time>2022-07-12T17:56:10.000Z</Time>
            <Position>
              <LatitudeDegrees>43.39932345785200595855712890625</LatitudeDegrees>
              <LongitudeDegrees>-3.2516300864517688751220703125</LongitudeDegrees>
            </Position>
            <AltitudeMeters>-14.80000019073486328125</AltitudeMeters>
            <DistanceMeters>NAN</DistanceMeters>
          </Trackpoint>
          <Trackpoint>
            <Time>2022-07-12T17:56:20.000Z</Time>
            <Position>
              <LatitudeDegrees>43.39941632933914661407470703125</LatitudeDegrees>
              <LongitudeDegrees>-3.25194616802036762237548828125</LongitudeDegrees>
            </Position>
            <AltitudeMeters>-14.19999980926513671875</AltitudeMeters>
            <DistanceMeters>NAN</DistanceMeters>
          </Trackpoint>
          <Trackpoint>
            <Time>2022-07-12T17:56:23.000Z</Time>
            <Position>
              <LatitudeDegrees>43.399445749819278717041015625</LatitudeDegrees>
              <LongitudeDegrees>-3.25202143751084804534912109375</LongitudeDegrees>
            </Position>
            <AltitudeMeters>-14</AltitudeMeters>
            <DistanceMeters>NAN</DistanceMeters>
          </Trackpoint>
          <Trackpoint>
            <Time>2022-07-12T17:56:26.000Z</Time>
            <Position>
              <LatitudeDegrees>43.3994633518159389495849609375</LatitudeDegrees>
              <LongitudeDegrees>-3.25207650661468505859375</LongitudeDegrees>
            </Position>
            <AltitudeMeters>-14</AltitudeMeters>
            <DistanceMeters>NAN</DistanceMeters>
          </Trackpoint>
          <Trackpoint>
            <Time>2022-07-12T17:56:29.000Z</Time>
            <Position>
              <LatitudeDegrees>43.39946561492979526519775390625</LatitudeDegrees>
              <LongitudeDegrees>-3.25208254158496856689453125</LongitudeDegrees>
            </Position>
            <AltitudeMeters>-14</AltitudeMeters>
            <DistanceMeters>NAN</DistanceMeters>
          </Trackpoint>
          <Trackpoint>
            <Time>2022-07-12T17:56:58.000Z</Time>
            <Position>
              <LatitudeDegrees>43.3994995616376399993896484375</LatitudeDegrees>
              <LongitudeDegrees>-3.25210525654256343841552734375</LongitudeDegrees>
            </Position>
            <AltitudeMeters>-14.6000003814697265625</AltitudeMeters>
            <DistanceMeters>NAN</DistanceMeters>
          </Trackpoint>
          <Trackpoint>
            <Time>2022-07-12T17:57:04.000Z</Time>
            <Position>
              <LatitudeDegrees>43.39961430989205837249755859375</LatitudeDegrees>
              <LongitudeDegrees>-3.2522620819509029388427734375</LongitudeDegrees>
            </Position>
            <AltitudeMeters>-14.80000019073486328125</AltitudeMeters>
            <DistanceMeters>NAN</DistanceMeters>
          </Trackpoint>
          <Trackpoint>
            <Time>2022-07-12T17:57:08.000Z</Time>
            <Position>
              <LatitudeDegrees>43.39969217777252197265625</LatitudeDegrees>
              <LongitudeDegrees>-3.25238504447042942047119140625</LongitudeDegrees>
            </Position>
            <AltitudeMeters>-15</AltitudeMeters>
            <DistanceMeters>NAN</DistanceMeters>
          </Trackpoint>
          <Trackpoint>
            <Time>2022-07-12T17:57:12.000Z</Time>
            <Position>
              <LatitudeDegrees>43.399770967662334442138671875</LatitudeDegrees>
              <LongitudeDegrees>-3.2525353319942951202392578125</LongitudeDegrees>
            </Position>
            <AltitudeMeters>-15.3999996185302734375</AltitudeMeters>
            <DistanceMeters>NAN</DistanceMeters>
          </Trackpoint>
          <Trackpoint>
            <Time>2022-07-12T17:57:17.000Z</Time>
            <Position>
              <LatitudeDegrees>43.39985202066600322723388671875</LatitudeDegrees>
              <LongitudeDegrees>-3.25277379713952541351318359375</LongitudeDegrees>
            </Position>
            <AltitudeMeters>-15.80000019073486328125</AltitudeMeters>
            <DistanceMeters>NAN</DistanceMeters>
          </Trackpoint>
          <Trackpoint>
            <Time>2022-07-12T17:57:18.000Z</Time>
            <Position>
              <LatitudeDegrees>43.39986576698720455169677734375</LatitudeDegrees>
              <LongitudeDegrees>-3.25282006524503231048583984375</LongitudeDegrees>
            </Position>
            <AltitudeMeters>-16</AltitudeMeters>
            <DistanceMeters>NAN</DistanceMeters>
          </Trackpoint>
          <Trackpoint>
            <Time>2022-07-12T17:57:29.000Z</Time>
            <Position>
              <LatitudeDegrees>43.4000048227608203887939453125</LatitudeDegrees>
              <LongitudeDegrees>-3.25332063250243663787841796875</LongitudeDegrees>
            </Position>
            <AltitudeMeters>-16.6000003814697265625</AltitudeMeters>
            <DistanceMeters>NAN</DistanceMeters>
          </Trackpoint>
          <Trackpoint>
            <Time>2022-07-12T17:57:40.000Z</Time>
            <Position>
              <LatitudeDegrees>43.40012895874679088592529296875</LatitudeDegrees>
              <LongitudeDegrees>-3.25376571156084537506103515625</LongitudeDegrees>
            </Position>
            <AltitudeMeters>-16.6000003814697265625</AltitudeMeters>
            <DistanceMeters>NAN</DistanceMeters>
          </Trackpoint>
          <Trackpoint>
            <Time>2022-07-12T17:57:46.000Z</Time>
            <Position>
              <LatitudeDegrees>43.40019634924829006195068359375</LatitudeDegrees>
              <LongitudeDegrees>-3.25401063077151775360107421875</LongitudeDegrees>
            </Position>
            <AltitudeMeters>-16.6000003814697265625</AltitudeMeters>
            <DistanceMeters>NAN</DistanceMeters>
          </Trackpoint>
          <Trackpoint>
            <Time>2022-07-12T17:57:48.000Z</Time>
            <Position>
              <LatitudeDegrees>43.40021227486431598663330078125</LatitudeDegrees>
              <LongitudeDegrees>-3.25408690609037876129150390625</LongitudeDegrees>
            </Position>
            <AltitudeMeters>-16.6000003814697265625</AltitudeMeters>
            <DistanceMeters>NAN</DistanceMeters>
          </Trackpoint>
          <Trackpoint>
            <Time>2022-07-12T17:57:51.000Z</Time>
            <Position>
              <LatitudeDegrees>43.40023867785930633544921875</LatitudeDegrees>
              <LongitudeDegrees>-3.25418832711875438690185546875</LongitudeDegrees>
            </Position>
            <AltitudeMeters>-16.6000003814697265625</AltitudeMeters>
            <DistanceMeters>NAN</DistanceMeters>
          </Trackpoint>
          <Trackpoint>
            <Time>2022-07-12T17:57:58.000Z</Time>
            <Position>
              <LatitudeDegrees>43.40031084604561328887939453125</LatitudeDegrees>
              <LongitudeDegrees>-3.25446560047566890716552734375</LongitudeDegrees>
            </Position>
            <AltitudeMeters>-16.6000003814697265625</AltitudeMeters>
            <DistanceMeters>NAN</DistanceMeters>
          </Trackpoint>
          <Trackpoint>
            <Time>2022-07-12T17:58:04.000Z</Time>
            <Position>
              <LatitudeDegrees>43.4003612212836742401123046875</LatitudeDegrees>
              <LongitudeDegrees>-3.25475309975445270538330078125</LongitudeDegrees>
            </Position>
            <AltitudeMeters>-17</AltitudeMeters>
            <DistanceMeters>NAN</DistanceMeters>
          </Trackpoint>
          <Trackpoint>
            <Time>2022-07-12T17:58:06.000Z</Time>
            <Position>
              <LatitudeDegrees>43.4003702737390995025634765625</LatitudeDegrees>
              <LongitudeDegrees>-3.25484496541321277618408203125</LongitudeDegrees>
            </Position>
            <AltitudeMeters>-17.200000762939453125</AltitudeMeters>
            <DistanceMeters>NAN</DistanceMeters>
          </Trackpoint>
          <Trackpoint>
            <Time>2022-07-12T17:58:11.000Z</Time>
            <Position>
              <LatitudeDegrees>43.4003615565598011016845703125</LatitudeDegrees>
              <LongitudeDegrees>-3.25498871505260467529296875</LongitudeDegrees>
            </Position>
            <AltitudeMeters>-17.3999996185302734375</AltitudeMeters>
            <DistanceMeters>NAN</DistanceMeters>
          </Trackpoint>
          <Trackpoint>
            <Time>2022-07-12T17:58:12.000Z</Time>
            <Position>
              <LatitudeDegrees>43.400355018675327301025390625</LatitudeDegrees>
              <LongitudeDegrees>-3.2549949176609516143798828125</LongitudeDegrees>
            </Position>
            <AltitudeMeters>-17.3999996185302734375</AltitudeMeters>
            <DistanceMeters>NAN</DistanceMeters>
          </Trackpoint>
          <Trackpoint>
            <Time>2022-07-12T17:58:15.000Z</Time>
            <Position>
              <LatitudeDegrees>43.4003494866192340850830078125</LatitudeDegrees>
              <LongitudeDegrees>-3.2549975998699665069580078125</LongitudeDegrees>
            </Position>
            <AltitudeMeters>-17</AltitudeMeters>
            <DistanceMeters>NAN</DistanceMeters>
          </Trackpoint>
          <Trackpoint>
            <Time>2022-07-12T17:58:43.000Z</Time>
            <Position>
              <LatitudeDegrees>43.400173299014568328857421875</LatitudeDegrees>
              <LongitudeDegrees>-3.25513355433940887451171875</LongitudeDegrees>
            </Position>
            <AltitudeMeters>-13.6000003814697265625</AltitudeMeters>
            <DistanceMeters>NAN</DistanceMeters>
          </Trackpoint>
          <Trackpoint>
            <Time>2022-07-12T17:58:45.000Z</Time>
            <Position>
              <LatitudeDegrees>43.40017740614712238311767578125</LatitudeDegrees>
              <LongitudeDegrees>-3.255204297602176666259765625</LongitudeDegrees>
            </Position>
            <AltitudeMeters>-13.6000003814697265625</AltitudeMeters>
            <DistanceMeters>NAN</DistanceMeters>
          </Trackpoint>
          <Trackpoint>
            <Time>2022-07-12T17:58:52.000Z</Time>
            <Position>
              <LatitudeDegrees>43.4002043120563030242919921875</LatitudeDegrees>
              <LongitudeDegrees>-3.25551576912403106689453125</LongitudeDegrees>
            </Position>
            <AltitudeMeters>-14</AltitudeMeters>
            <DistanceMeters>NAN</DistanceMeters>
          </Trackpoint>
          <Trackpoint>
            <Time>2022-07-12T17:58:59.000Z</Time>
            <Position>
              <LatitudeDegrees>43.4002344869077205657958984375</LatitudeDegrees>
              <LongitudeDegrees>-3.255942575633525848388671875</LongitudeDegrees>
            </Position>
            <AltitudeMeters>-14.6000003814697265625</AltitudeMeters>
            <DistanceMeters>NAN</DistanceMeters>
          </Trackpoint>
          <Trackpoint>
            <Time>2022-07-12T17:59:00.000Z</Time>
            <Position>
              <LatitudeDegrees>43.400238342583179473876953125</LatitudeDegrees>
              <LongitudeDegrees>-3.25601072050631046295166015625</LongitudeDegrees>
            </Position>
            <AltitudeMeters>-14.80000019073486328125</AltitudeMeters>
            <DistanceMeters>NAN</DistanceMeters>
          </Trackpoint>
          <Trackpoint>
            <Time>2022-07-12T17:59:03.000Z</Time>
            <Position>
              <LatitudeDegrees>43.4002525918185710906982421875</LatitudeDegrees>
              <LongitudeDegrees>-3.256233595311641693115234375</LongitudeDegrees>
            </Position>
            <AltitudeMeters>-15.19999980926513671875</AltitudeMeters>
            <DistanceMeters>NAN</DistanceMeters>
          </Trackpoint>
          <Trackpoint>
            <Time>2022-07-12T17:59:04.000Z</Time>
            <Position>
              <LatitudeDegrees>43.400259129703044891357421875</LatitudeDegrees>
              <LongitudeDegrees>-3.2563102059066295623779296875</LongitudeDegrees>
            </Position>
            <AltitudeMeters>-15.19999980926513671875</AltitudeMeters>
            <DistanceMeters>NAN</DistanceMeters>
          </Trackpoint>
          <Trackpoint>
            <Time>2022-07-12T17:59:10.000Z</Time>
            <Position>
              <LatitudeDegrees>43.40029123239219188690185546875</LatitudeDegrees>
              <LongitudeDegrees>-3.25679979287087917327880859375</LongitudeDegrees>
            </Position>
            <AltitudeMeters>-15.80000019073486328125</AltitudeMeters>
            <DistanceMeters>NAN</DistanceMeters>
          </Trackpoint>
          <Trackpoint>
            <Time>2022-07-12T17:59:11.000Z</Time>
            <Position>
              <LatitudeDegrees>43.40029676444828510284423828125</LatitudeDegrees>
              <LongitudeDegrees>-3.25688394717872142791748046875</LongitudeDegrees>
            </Position>
            <AltitudeMeters>-16</AltitudeMeters>
            <DistanceMeters>NAN</DistanceMeters>
          </Trackpoint>
          <Trackpoint>
            <Time>2022-07-12T17:59:13.000Z</Time>
            <Position>
              <LatitudeDegrees>43.400313444435596466064453125</LatitudeDegrees>
              <LongitudeDegrees>-3.2570089213550090789794921875</LongitudeDegrees>
            </Position>
            <AltitudeMeters>-16.6000003814697265625</AltitudeMeters>
            <DistanceMeters>NAN</DistanceMeters>
          </Trackpoint>
          <Trackpoint>
            <Time>2022-07-12T17:59:14.000Z</Time>
            <Position>
              <LatitudeDegrees>43.40032123960554599761962890625</LatitudeDegrees>
              <LongitudeDegrees>-3.25704907067120075225830078125</LongitudeDegrees>
            </Position>
            <AltitudeMeters>-17</AltitudeMeters>
            <DistanceMeters>NAN</DistanceMeters>
          </Trackpoint>
          <Trackpoint>
            <Time>2022-07-12T17:59:15.000Z</Time>
            <Position>
              <LatitudeDegrees>43.4003270231187343597412109375</LatitudeDegrees>
              <LongitudeDegrees>-3.25707606039941310882568359375</LongitudeDegrees>
            </Position>
            <AltitudeMeters>-17.3999996185302734375</AltitudeMeters>
            <DistanceMeters>NAN</DistanceMeters>
          </Trackpoint>
          <Trackpoint>
            <Time>2022-07-12T17:59:19.000Z</Time>
            <Position>
              <LatitudeDegrees>43.400365412235260009765625</LatitudeDegrees>
              <LongitudeDegrees>-3.25717161409556865692138671875</LongitudeDegrees>
            </Position>
            <AltitudeMeters>-18.200000762939453125</AltitudeMeters>
            <DistanceMeters>NAN</DistanceMeters>
          </Trackpoint>
          <Trackpoint>
            <Time>2022-07-12T17:59:20.000Z</Time>
            <Position>
              <LatitudeDegrees>43.40037907473742961883544921875</LatitudeDegrees>
              <LongitudeDegrees>-3.25721201486885547637939453125</LongitudeDegrees>
            </Position>
            <AltitudeMeters>-18.3999996185302734375</AltitudeMeters>
            <DistanceMeters>NAN</DistanceMeters>
          </Trackpoint>
          <Trackpoint>
            <Time>2022-07-12T17:59:23.000Z</Time>
            <Position>
              <LatitudeDegrees>43.4004322998225688934326171875</LatitudeDegrees>
              <LongitudeDegrees>-3.25732097961008548736572265625</LongitudeDegrees>
            </Position>
            <AltitudeMeters>-19.6000003814697265625</AltitudeMeters>
            <DistanceMeters>NAN</DistanceMeters>
          </Trackpoint>
          <Trackpoint>
            <Time>2022-07-12T17:59:26.000Z</Time>
            <Position>
              <LatitudeDegrees>43.40047362260520458221435546875</LatitudeDegrees>
              <LongitudeDegrees>-3.257411085069179534912109375</LongitudeDegrees>
            </Position>
            <AltitudeMeters>-20.6000003814697265625</AltitudeMeters>
            <DistanceMeters>NAN</DistanceMeters>
          </Trackpoint>
          <Trackpoint>
            <Time>2022-07-12T17:59:27.000Z</Time>
            <Position>
              <LatitudeDegrees>43.40048016048967838287353515625</LatitudeDegrees>
              <LongitudeDegrees>-3.25744704343378543853759765625</LongitudeDegrees>
            </Position>
            <AltitudeMeters>-20.6000003814697265625</AltitudeMeters>
            <DistanceMeters>NAN</DistanceMeters>
          </Trackpoint>
          <Trackpoint>
            <Time>2022-07-12T17:59:31.000Z</Time>
            <Position>
              <LatitudeDegrees>43.4005010314285755157470703125</LatitudeDegrees>
              <LongitudeDegrees>-3.2576271705329418182373046875</LongitudeDegrees>
            </Position>
            <AltitudeMeters>-20.799999237060546875</AltitudeMeters>
            <DistanceMeters>NAN</DistanceMeters>
          </Trackpoint>
          <Trackpoint>
            <Time>2022-07-12T17:59:32.000Z</Time>
            <Position>
              <LatitudeDegrees>43.400503881275653839111328125</LatitudeDegrees>
              <LongitudeDegrees>-3.25767335481941699981689453125</LongitudeDegrees>
            </Position>
            <AltitudeMeters>-20.799999237060546875</AltitudeMeters>
            <DistanceMeters>NAN</DistanceMeters>
          </Trackpoint>
          <Trackpoint>
            <Time>2022-07-12T17:59:40.000Z</Time>
            <Position>
              <LatitudeDegrees>43.40049684047698974609375</LatitudeDegrees>
              <LongitudeDegrees>-3.25798046775162220001220703125</LongitudeDegrees>
            </Position>
            <AltitudeMeters>-20</AltitudeMeters>
            <DistanceMeters>NAN</DistanceMeters>
          </Trackpoint>
          <Trackpoint>
            <Time>2022-07-12T17:59:44.000Z</Time>
            <Position>
              <LatitudeDegrees>43.40048544108867645263671875</LatitudeDegrees>
              <LongitudeDegrees>-3.2581020891666412353515625</LongitudeDegrees>
            </Position>
            <AltitudeMeters>-19.6000003814697265625</AltitudeMeters>
            <DistanceMeters>NAN</DistanceMeters>
          </Trackpoint>
          <Trackpoint>
            <Time>2022-07-12T17:59:47.000Z</Time>
            <Position>
              <LatitudeDegrees>43.400477059185504913330078125</LatitudeDegrees>
              <LongitudeDegrees>-3.258194960653781890869140625</LongitudeDegrees>
            </Position>
            <AltitudeMeters>-19</AltitudeMeters>
            <DistanceMeters>NAN</DistanceMeters>
          </Trackpoint>
          <Trackpoint>
            <Time>2022-07-12T17:59:50.000Z</Time>
            <Position>
              <LatitudeDegrees>43.40047412551939487457275390625</LatitudeDegrees>
              <LongitudeDegrees>-3.25827601365745067596435546875</LongitudeDegrees>
            </Position>
            <AltitudeMeters>-18.6000003814697265625</AltitudeMeters>
            <DistanceMeters>NAN</DistanceMeters>
          </Trackpoint>
          <Trackpoint>
            <Time>2022-07-12T17:59:51.000Z</Time>
            <Position>
              <LatitudeDegrees>43.400473706424236297607421875</LatitudeDegrees>
              <LongitudeDegrees>-3.258301913738250732421875</LongitudeDegrees>
            </Position>
            <AltitudeMeters>-18.3999996185302734375</AltitudeMeters>
            <DistanceMeters>NAN</DistanceMeters>
          </Trackpoint>
          <Trackpoint>
            <Time>2022-07-12T17:59:55.000Z</Time>
            <Position>
              <LatitudeDegrees>43.40048200450837612152099609375</LatitudeDegrees>
              <LongitudeDegrees>-3.258401490747928619384765625</LongitudeDegrees>
            </Position>
            <AltitudeMeters>-17.799999237060546875</AltitudeMeters>
            <DistanceMeters>NAN</DistanceMeters>
          </Trackpoint>
          <Trackpoint>
            <Time>2022-07-12T17:59:56.000Z</Time>
            <Position>
              <LatitudeDegrees>43.40048636309802532196044921875</LatitudeDegrees>
              <LongitudeDegrees>-3.25842973776161670684814453125</LongitudeDegrees>
            </Position>
            <AltitudeMeters>-17.6000003814697265625</AltitudeMeters>
            <DistanceMeters>NAN</DistanceMeters>
          </Trackpoint>
          <Trackpoint>
            <Time>2022-07-12T17:59:59.000Z</Time>
            <Position>
              <LatitudeDegrees>43.40049440972506999969482421875</LatitudeDegrees>
              <LongitudeDegrees>-3.25851447880268096923828125</LongitudeDegrees>
            </Position>
            <AltitudeMeters>-17.3999996185302734375</AltitudeMeters>
            <DistanceMeters>NAN</DistanceMeters>
          </Trackpoint>
          <Trackpoint>
            <Time>2022-07-12T18:00:03.000Z</Time>
            <Position>
              <LatitudeDegrees>43.4005057252943515777587890625</LatitudeDegrees>
              <LongitudeDegrees>-3.2586346752941608428955078125</LongitudeDegrees>
            </Position>
            <AltitudeMeters>-17.200000762939453125</AltitudeMeters>
            <DistanceMeters>NAN</DistanceMeters>
          </Trackpoint>
          <Trackpoint>
            <Time>2022-07-12T18:00:11.000Z</Time>
            <Position>
              <LatitudeDegrees>43.40051838196814060211181640625</LatitudeDegrees>
              <LongitudeDegrees>-3.25882888399064540863037109375</LongitudeDegrees>
            </Position>
            <AltitudeMeters>-17</AltitudeMeters>
            <DistanceMeters>NAN</DistanceMeters>
          </Trackpoint>
          <Trackpoint>
            <Time>2022-07-12T18:00:14.000Z</Time>
            <Position>
              <LatitudeDegrees>43.40052072890102863311767578125</LatitudeDegrees>
              <LongitudeDegrees>-3.25884933583438396453857421875</LongitudeDegrees>
            </Position>
            <AltitudeMeters>-17</AltitudeMeters>
            <DistanceMeters>NAN</DistanceMeters>
          </Trackpoint>
          <Trackpoint>
            <Time>2022-07-12T18:00:21.000Z</Time>
            <Position>
              <LatitudeDegrees>43.40052709914743900299072265625</LatitudeDegrees>
              <LongitudeDegrees>-3.258912451565265655517578125</LongitudeDegrees>
            </Position>
            <AltitudeMeters>-17.200000762939453125</AltitudeMeters>
            <DistanceMeters>NAN</DistanceMeters>
          </Trackpoint>
          <Trackpoint>
            <Time>2022-07-12T18:00:25.000Z</Time>
            <Position>
              <LatitudeDegrees>43.400532044470310211181640625</LatitudeDegrees>
              <LongitudeDegrees>-3.25904019176959991455078125</LongitudeDegrees>
            </Position>
            <AltitudeMeters>-17.3999996185302734375</AltitudeMeters>
            <DistanceMeters>NAN</DistanceMeters>
          </Trackpoint>
          <Trackpoint>
            <Time>2022-07-12T18:00:27.000Z</Time>
            <Position>
              <LatitudeDegrees>43.4005345590412616729736328125</LatitudeDegrees>
              <LongitudeDegrees>-3.2591097615659236907958984375</LongitudeDegrees>
            </Position>
            <AltitudeMeters>-17.3999996185302734375</AltitudeMeters>
            <DistanceMeters>NAN</DistanceMeters>
          </Trackpoint>
          <Trackpoint>
            <Time>2022-07-12T18:00:31.000Z</Time>
            <Position>
              <LatitudeDegrees>43.40055174194276332855224609375</LatitudeDegrees>
              <LongitudeDegrees>-3.25925317592918872833251953125</LongitudeDegrees>
            </Position>
            <AltitudeMeters>-17.6000003814697265625</AltitudeMeters>
            <DistanceMeters>NAN</DistanceMeters>
          </Trackpoint>
          <Trackpoint>
            <Time>2022-07-12T18:00:33.000Z</Time>
            <Position>
              <LatitudeDegrees>43.4005835093557834625244140625</LatitudeDegrees>
              <LongitudeDegrees>-3.259298019111156463623046875</LongitudeDegrees>
            </Position>
            <AltitudeMeters>-17.799999237060546875</AltitudeMeters>
            <DistanceMeters>NAN</DistanceMeters>
          </Trackpoint>
          <Trackpoint>
            <Time>2022-07-12T18:00:38.000Z</Time>
            <Position>
              <LatitudeDegrees>43.4006260894238948822021484375</LatitudeDegrees>
              <LongitudeDegrees>-3.259410671889781951904296875</LongitudeDegrees>
            </Position>
            <AltitudeMeters>-17.799999237060546875</AltitudeMeters>
            <DistanceMeters>NAN</DistanceMeters>
          </Trackpoint>
          <Trackpoint>
            <Time>2022-07-12T18:00:42.000Z</Time>
            <Position>
              <LatitudeDegrees>43.40070378966629505157470703125</LatitudeDegrees>
              <LongitudeDegrees>-3.25942165218293666839599609375</LongitudeDegrees>
            </Position>
            <AltitudeMeters>-17.6000003814697265625</AltitudeMeters>
            <DistanceMeters>NAN</DistanceMeters>
          </Trackpoint>
          <Trackpoint>
            <Time>2022-07-12T18:00:48.000Z</Time>
            <Position>
              <LatitudeDegrees>43.40077017433941364288330078125</LatitudeDegrees>
              <LongitudeDegrees>-3.25941846705973148345947265625</LongitudeDegrees>
            </Position>
            <AltitudeMeters>-17.3999996185302734375</AltitudeMeters>
            <DistanceMeters>NAN</DistanceMeters>
          </Trackpoint>
          <Trackpoint>
            <Time>2022-07-12T18:01:15.000Z</Time>
            <Position>
              <LatitudeDegrees>43.40071032755076885223388671875</LatitudeDegrees>
              <LongitudeDegrees>-3.25939332135021686553955078125</LongitudeDegrees>
            </Position>
            <AltitudeMeters>-17.200000762939453125</AltitudeMeters>
            <DistanceMeters>NAN</DistanceMeters>
          </Trackpoint>
          <Trackpoint>
            <Time>2022-07-12T18:01:18.000Z</Time>
            <Position>
              <LatitudeDegrees>43.400656096637248992919921875</LatitudeDegrees>
              <LongitudeDegrees>-3.25939449481666088104248046875</LongitudeDegrees>
            </Position>
            <AltitudeMeters>-17.3999996185302734375</AltitudeMeters>
            <DistanceMeters>NAN</DistanceMeters>
          </Trackpoint>
          <Trackpoint>
            <Time>2022-07-12T18:01:19.000Z</Time>
            <Position>
              <LatitudeDegrees>43.40064377523958683013916015625</LatitudeDegrees>
              <LongitudeDegrees>-3.259375803172588348388671875</LongitudeDegrees>
            </Position>
            <AltitudeMeters>-17.3999996185302734375</AltitudeMeters>
            <DistanceMeters>NAN</DistanceMeters>
          </Trackpoint>
          <Trackpoint>
            <Time>2022-07-12T18:01:21.000Z</Time>
            <Position>
              <LatitudeDegrees>43.40061913244426250457763671875</LatitudeDegrees>
              <LongitudeDegrees>-3.259324841201305389404296875</LongitudeDegrees>
            </Position>
            <AltitudeMeters>-17.3999996185302734375</AltitudeMeters>
            <DistanceMeters>NAN</DistanceMeters>
          </Trackpoint>
          <Trackpoint>
            <Time>2022-07-12T18:01:27.000Z</Time>
            <Position>
              <LatitudeDegrees>43.40056297369301319122314453125</LatitudeDegrees>
              <LongitudeDegrees>-3.25916231609880924224853515625</LongitudeDegrees>
            </Position>
            <AltitudeMeters>-17</AltitudeMeters>
            <DistanceMeters>NAN</DistanceMeters>
          </Trackpoint>
          <Trackpoint>
            <Time>2022-07-12T18:01:33.000Z</Time>
            <Position>
              <LatitudeDegrees>43.4005526639521121978759765625</LatitudeDegrees>
              <LongitudeDegrees>-3.2589548639953136444091796875</LongitudeDegrees>
            </Position>
            <AltitudeMeters>-16.3999996185302734375</AltitudeMeters>
            <DistanceMeters>NAN</DistanceMeters>
          </Trackpoint>
          <Trackpoint>
            <Time>2022-07-12T18:01:34.000Z</Time>
            <Position>
              <LatitudeDegrees>43.40054822154343128204345703125</LatitudeDegrees>
              <LongitudeDegrees>-3.25892150402069091796875</LongitudeDegrees>
            </Position>
            <AltitudeMeters>-16.200000762939453125</AltitudeMeters>
            <DistanceMeters>NAN</DistanceMeters>
          </Trackpoint>
          <Trackpoint>
            <Time>2022-07-12T18:01:36.000Z</Time>
            <Position>
              <LatitudeDegrees>43.40053883381187915802001953125</LatitudeDegrees>
              <LongitudeDegrees>-3.2588559575378894805908203125</LongitudeDegrees>
            </Position>
            <AltitudeMeters>-16</AltitudeMeters>
            <DistanceMeters>NAN</DistanceMeters>
          </Trackpoint>
          <Trackpoint>
            <Time>2022-07-12T18:01:39.000Z</Time>
            <Position>
              <LatitudeDegrees>43.400532044470310211181640625</LatitudeDegrees>
              <LongitudeDegrees>-3.2587490044534206390380859375</LongitudeDegrees>
            </Position>
            <AltitudeMeters>-15.80000019073486328125</AltitudeMeters>
            <DistanceMeters>NAN</DistanceMeters>
          </Trackpoint>
          <Trackpoint>
            <Time>2022-07-12T18:01:44.000Z</Time>
            <Position>
              <LatitudeDegrees>43.40051226317882537841796875</LatitudeDegrees>
              <LongitudeDegrees>-3.25856753624975681304931640625</LongitudeDegrees>
            </Position>
            <AltitudeMeters>-15.80000019073486328125</AltitudeMeters>
            <DistanceMeters>NAN</DistanceMeters>
          </Trackpoint>
          <Trackpoint>
            <Time>2022-07-12T18:01:53.000Z</Time>
            <Position>
              <LatitudeDegrees>43.4004740417003631591796875</LatitudeDegrees>
              <LongitudeDegrees>-3.25816000811755657196044921875</LongitudeDegrees>
            </Position>
            <AltitudeMeters>-16.200000762939453125</AltitudeMeters>
            <DistanceMeters>NAN</DistanceMeters>
          </Trackpoint>
          <Trackpoint>
            <Time>2022-07-12T18:01:56.000Z</Time>
            <Position>
              <LatitudeDegrees>43.4004889614880084991455078125</LatitudeDegrees>
              <LongitudeDegrees>-3.25797242112457752227783203125</LongitudeDegrees>
            </Position>
            <AltitudeMeters>-16.799999237060546875</AltitudeMeters>
            <DistanceMeters>NAN</DistanceMeters>
          </Trackpoint>
          <Trackpoint>
            <Time>2022-07-12T18:01:57.000Z</Time>
            <Position>
              <LatitudeDegrees>43.400490470230579376220703125</LatitudeDegrees>
              <LongitudeDegrees>-3.2579104788601398468017578125</LongitudeDegrees>
            </Position>
            <AltitudeMeters>-17</AltitudeMeters>
            <DistanceMeters>NAN</DistanceMeters>
          </Trackpoint>
          <Trackpoint>
            <Time>2022-07-12T18:01:58.000Z</Time>
            <Position>
              <LatitudeDegrees>43.40049088932573795318603515625</LatitudeDegrees>
              <LongitudeDegrees>-3.2578514702618122100830078125</LongitudeDegrees>
            </Position>
            <AltitudeMeters>-17.3999996185302734375</AltitudeMeters>
            <DistanceMeters>NAN</DistanceMeters>
          </Trackpoint>
          <Trackpoint>
            <Time>2022-07-12T18:01:59.000Z</Time>
            <Position>
              <LatitudeDegrees>43.4004899673163890838623046875</LatitudeDegrees>
              <LongitudeDegrees>-3.25779438950121402740478515625</LongitudeDegrees>
            </Position>
            <AltitudeMeters>-17.6000003814697265625</AltitudeMeters>
            <DistanceMeters>NAN</DistanceMeters>
          </Trackpoint>
          <Trackpoint>
            <Time>2022-07-12T18:02:04.000Z</Time>
            <Position>
              <LatitudeDegrees>43.40047747828066349029541015625</LatitudeDegrees>
              <LongitudeDegrees>-3.25747755356132984161376953125</LongitudeDegrees>
            </Position>
            <AltitudeMeters>-18.200000762939453125</AltitudeMeters>
            <DistanceMeters>NAN</DistanceMeters>
          </Trackpoint>
          <Trackpoint>
            <Time>2022-07-12T18:02:06.000Z</Time>
            <Position>
              <LatitudeDegrees>43.400458283722400665283203125</LatitudeDegrees>
              <LongitudeDegrees>-3.2573559321463108062744140625</LongitudeDegrees>
            </Position>
            <AltitudeMeters>-18.6000003814697265625</AltitudeMeters>
            <DistanceMeters>NAN</DistanceMeters>
          </Trackpoint>
          <Trackpoint>
            <Time>2022-07-12T18:02:07.000Z</Time>
            <Position>
              <LatitudeDegrees>43.40044462122023105621337890625</LatitudeDegrees>
              <LongitudeDegrees>-3.25730186887085437774658203125</LongitudeDegrees>
            </Position>
            <AltitudeMeters>-18.6000003814697265625</AltitudeMeters>
            <DistanceMeters>NAN</DistanceMeters>
          </Trackpoint>
          <Trackpoint>
            <Time>2022-07-12T18:02:11.000Z</Time>
            <Position>
              <LatitudeDegrees>43.40037823654711246490478515625</LatitudeDegrees>
              <LongitudeDegrees>-3.25716289691627025604248046875</LongitudeDegrees>
            </Position>
            <AltitudeMeters>-18.6000003814697265625</AltitudeMeters>
            <DistanceMeters>NAN</DistanceMeters>
          </Trackpoint>
          <Trackpoint>
            <Time>2022-07-12T18:02:16.000Z</Time>
            <Position>
              <LatitudeDegrees>43.4003400988876819610595703125</LatitudeDegrees>
              <LongitudeDegrees>-3.2570575363934040069580078125</LongitudeDegrees>
            </Position>
            <AltitudeMeters>-17.3999996185302734375</AltitudeMeters>
            <DistanceMeters>NAN</DistanceMeters>
          </Trackpoint>
          <Trackpoint>
            <Time>2022-07-12T18:02:17.000Z</Time>
            <Position>
              <LatitudeDegrees>43.4003343991935253143310546875</LatitudeDegrees>
              <LongitudeDegrees>-3.2570387609302997589111328125</LongitudeDegrees>
            </Position>
            <AltitudeMeters>-17.200000762939453125</AltitudeMeters>
            <DistanceMeters>NAN</DistanceMeters>
          </Trackpoint>
          <Trackpoint>
            <Time>2022-07-12T18:02:19.000Z</Time>
            <Position>
              <LatitudeDegrees>43.400317132472991943359375</LatitudeDegrees>
              <LongitudeDegrees>-3.25701839290559291839599609375</LongitudeDegrees>
            </Position>
            <AltitudeMeters>-16.6000003814697265625</AltitudeMeters>
            <DistanceMeters>NAN</DistanceMeters>
          </Trackpoint>
          <Trackpoint>
            <Time>2022-07-12T18:02:20.000Z</Time>
            <Position>
              <LatitudeDegrees>43.40030414052307605743408203125</LatitudeDegrees>
              <LongitudeDegrees>-3.2570179738104343414306640625</LongitudeDegrees>
            </Position>
            <AltitudeMeters>-16.200000762939453125</AltitudeMeters>
            <DistanceMeters>NAN</DistanceMeters>
          </Trackpoint>
          <Trackpoint>
            <Time>2022-07-12T18:02:21.000Z</Time>
            <Position>
              <LatitudeDegrees>43.40029140003025531768798828125</LatitudeDegrees>
              <LongitudeDegrees>-3.25703230686485767364501953125</LongitudeDegrees>
            </Position>
            <AltitudeMeters>-15.80000019073486328125</AltitudeMeters>
            <DistanceMeters>NAN</DistanceMeters>
          </Trackpoint>
          <Trackpoint>
            <Time>2022-07-12T18:02:25.000Z</Time>
            <Position>
              <LatitudeDegrees>43.40030799619853496551513671875</LatitudeDegrees>
              <LongitudeDegrees>-3.25718619860708713531494140625</LongitudeDegrees>
            </Position>
            <AltitudeMeters>-15.6000003814697265625</AltitudeMeters>
            <DistanceMeters>NAN</DistanceMeters>
          </Trackpoint>
          <Trackpoint>
            <Time>2022-07-12T18:02:30.000Z</Time>
            <Position>
              <LatitudeDegrees>43.40032878331840038299560546875</LatitudeDegrees>
              <LongitudeDegrees>-3.25745861046016216278076171875</LongitudeDegrees>
            </Position>
            <AltitudeMeters>-16.200000762939453125</AltitudeMeters>
            <DistanceMeters>NAN</DistanceMeters>
          </Trackpoint>
          <Trackpoint>
            <Time>2022-07-12T18:02:31.000Z</Time>
            <Position>
              <LatitudeDegrees>43.400332890450954437255859375</LatitudeDegrees>
              <LongitudeDegrees>-3.25751812197268009185791015625</LongitudeDegrees>
            </Position>
            <AltitudeMeters>-16.200000762939453125</AltitudeMeters>
            <DistanceMeters>NAN</DistanceMeters>
          </Trackpoint>
          <Trackpoint>
            <Time>2022-07-12T18:02:38.000Z</Time>
            <Position>
              <LatitudeDegrees>43.40037639252841472625732421875</LatitudeDegrees>
              <LongitudeDegrees>-3.25801483355462551116943359375</LongitudeDegrees>
            </Position>
            <AltitudeMeters>-16.6000003814697265625</AltitudeMeters>
            <DistanceMeters>NAN</DistanceMeters>
          </Trackpoint>
          <Trackpoint>
            <Time>2022-07-12T18:02:39.000Z</Time>
            <Position>
              <LatitudeDegrees>43.40038477443158626556396484375</LatitudeDegrees>
              <LongitudeDegrees>-3.25809060595929622650146484375</LongitudeDegrees>
            </Position>
            <AltitudeMeters>-16.799999237060546875</AltitudeMeters>
            <DistanceMeters>NAN</DistanceMeters>
          </Trackpoint>
          <Trackpoint>
            <Time>2022-07-12T18:02:42.000Z</Time>
            <Position>
              <LatitudeDegrees>43.40039483271539211273193359375</LatitudeDegrees>
              <LongitudeDegrees>-3.25834994204342365264892578125</LongitudeDegrees>
            </Position>
            <AltitudeMeters>-17.200000762939453125</AltitudeMeters>
            <DistanceMeters>NAN</DistanceMeters>
          </Trackpoint>
          <Trackpoint>
            <Time>2022-07-12T18:02:44.000Z</Time>
            <Position>
              <LatitudeDegrees>43.4004069864749908447265625</LatitudeDegrees>
              <LongitudeDegrees>-3.258533589541912078857421875</LongitudeDegrees>
            </Position>
            <AltitudeMeters>-17.6000003814697265625</AltitudeMeters>
            <DistanceMeters>NAN</DistanceMeters>
          </Trackpoint>
          <Trackpoint>
            <Time>2022-07-12T18:02:47.000Z</Time>
            <Position>
              <LatitudeDegrees>43.40042215771973133087158203125</LatitudeDegrees>
              <LongitudeDegrees>-3.25882754288613796234130859375</LongitudeDegrees>
            </Position>
            <AltitudeMeters>-18.3999996185302734375</AltitudeMeters>
            <DistanceMeters>NAN</DistanceMeters>
          </Trackpoint>
          <Trackpoint>
            <Time>2022-07-12T18:02:51.000Z</Time>
            <Position>
              <LatitudeDegrees>43.400445543229579925537109375</LatitudeDegrees>
              <LongitudeDegrees>-3.2592418603599071502685546875</LongitudeDegrees>
            </Position>
            <AltitudeMeters>-19.6000003814697265625</AltitudeMeters>
            <DistanceMeters>NAN</DistanceMeters>
          </Trackpoint>
          <Trackpoint>
            <Time>2022-07-12T18:02:54.000Z</Time>
            <Position>
              <LatitudeDegrees>43.4004634805023670196533203125</LatitudeDegrees>
              <LongitudeDegrees>-3.2595734484493732452392578125</LongitudeDegrees>
            </Position>
            <AltitudeMeters>-20.6000003814697265625</AltitudeMeters>
            <DistanceMeters>NAN</DistanceMeters>
          </Trackpoint>
          <Trackpoint>
            <Time>2022-07-12T18:02:57.000Z</Time>
            <Position>
              <LatitudeDegrees>43.40048468671739101409912109375</LatitudeDegrees>
              <LongitudeDegrees>-3.25991190969944000244140625</LongitudeDegrees>
            </Position>
            <AltitudeMeters>-21.799999237060546875</AltitudeMeters>
            <DistanceMeters>NAN</DistanceMeters>
          </Trackpoint>
          <Trackpoint>
            <Time>2022-07-12T18:02:58.000Z</Time>
            <Position>
              <LatitudeDegrees>43.4004889614880084991455078125</LatitudeDegrees>
              <LongitudeDegrees>-3.2600225508213043212890625</LongitudeDegrees>
            </Position>
            <AltitudeMeters>-22</AltitudeMeters>
            <DistanceMeters>NAN</DistanceMeters>
          </Trackpoint>
          <Trackpoint>
            <Time>2022-07-12T18:03:00.000Z</Time>
            <Position>
              <LatitudeDegrees>43.40049692429602146148681640625</LatitudeDegrees>
              <LongitudeDegrees>-3.26024584472179412841796875</LongitudeDegrees>
            </Position>
            <AltitudeMeters>-23</AltitudeMeters>
            <DistanceMeters>NAN</DistanceMeters>
          </Trackpoint>
          <Trackpoint>
            <Time>2022-07-12T18:03:02.000Z</Time>
            <Position>
              <LatitudeDegrees>43.40051050297915935516357421875</LatitudeDegrees>
              <LongitudeDegrees>-3.2604726590216159820556640625</LongitudeDegrees>
            </Position>
            <AltitudeMeters>-24</AltitudeMeters>
            <DistanceMeters>NAN</DistanceMeters>
          </Trackpoint>
          <Trackpoint>
            <Time>2022-07-12T18:03:04.000Z</Time>
            <Position>
              <LatitudeDegrees>43.4005228243768215179443359375</LatitudeDegrees>
              <LongitudeDegrees>-3.2607046701014041900634765625</LongitudeDegrees>
            </Position>
            <AltitudeMeters>-24.6000003814697265625</AltitudeMeters>
            <DistanceMeters>NAN</DistanceMeters>
          </Trackpoint>
          <Trackpoint>
            <Time>2022-07-12T18:03:06.000Z</Time>
            <Position>
              <LatitudeDegrees>43.40054000727832317352294921875</LatitudeDegrees>
              <LongitudeDegrees>-3.26094447635114192962646484375</LongitudeDegrees>
            </Position>
            <AltitudeMeters>-25</AltitudeMeters>
            <DistanceMeters>NAN</DistanceMeters>
          </Trackpoint>
          <Trackpoint>
            <Time>2022-07-12T18:03:08.000Z</Time>
            <Position>
              <LatitudeDegrees>43.40055643580853939056396484375</LatitudeDegrees>
              <LongitudeDegrees>-3.26119123958051204681396484375</LongitudeDegrees>
            </Position>
            <AltitudeMeters>-25.6000003814697265625</AltitudeMeters>
            <DistanceMeters>NAN</DistanceMeters>
          </Trackpoint>
          <Trackpoint>
            <Time>2022-07-12T18:03:09.000Z</Time>
            <Position>
              <LatitudeDegrees>43.4005667455494403839111328125</LatitudeDegrees>
              <LongitudeDegrees>-3.26133674941956996917724609375</LongitudeDegrees>
            </Position>
            <AltitudeMeters>-26</AltitudeMeters>
            <DistanceMeters>NAN</DistanceMeters>
          </Trackpoint>
          <Trackpoint>
            <Time>2022-07-12T18:03:10.000Z</Time>
            <Position>
              <LatitudeDegrees>43.4005757980048656463623046875</LatitudeDegrees>
              <LongitudeDegrees>-3.261456191539764404296875</LongitudeDegrees>
            </Position>
            <AltitudeMeters>-26.3999996185302734375</AltitudeMeters>
            <DistanceMeters>NAN</DistanceMeters>
          </Trackpoint>
          <Trackpoint>
            <Time>2022-07-12T18:03:12.000Z</Time>
            <Position>
              <LatitudeDegrees>43.4005905501544475555419921875</LatitudeDegrees>
              <LongitudeDegrees>-3.26167286373674869537353515625</LongitudeDegrees>
            </Position>
            <AltitudeMeters>-27.6000003814697265625</AltitudeMeters>
            <DistanceMeters>NAN</DistanceMeters>
          </Trackpoint>
          <Trackpoint>
            <Time>2022-07-12T18:03:14.000Z</Time>
            <Position>
              <LatitudeDegrees>43.40060890652239322662353515625</LatitudeDegrees>
              <LongitudeDegrees>-3.26193555258214473724365234375</LongitudeDegrees>
            </Position>
            <AltitudeMeters>-28.200000762939453125</AltitudeMeters>
            <DistanceMeters>NAN</DistanceMeters>
          </Trackpoint>
          <Trackpoint>
            <Time>2022-07-12T18:03:16.000Z</Time>
            <Position>
              <LatitudeDegrees>43.400622904300689697265625</LatitudeDegrees>
              <LongitudeDegrees>-3.2621517218649387359619140625</LongitudeDegrees>
            </Position>
            <AltitudeMeters>-29</AltitudeMeters>
            <DistanceMeters>NAN</DistanceMeters>
          </Trackpoint>
          <Trackpoint>
            <Time>2022-07-12T18:03:18.000Z</Time>
            <Position>
              <LatitudeDegrees>43.40064042247831821441650390625</LatitudeDegrees>
              <LongitudeDegrees>-3.26240108348429203033447265625</LongitudeDegrees>
            </Position>
            <AltitudeMeters>-30.200000762939453125</AltitudeMeters>
            <DistanceMeters>NAN</DistanceMeters>
          </Trackpoint>
          <Trackpoint>
            <Time>2022-07-12T18:03:19.000Z</Time>
            <Position>
              <LatitudeDegrees>43.400652408599853515625</LatitudeDegrees>
              <LongitudeDegrees>-3.2625530473887920379638671875</LongitudeDegrees>
            </Position>
            <AltitudeMeters>-30.3999996185302734375</AltitudeMeters>
            <DistanceMeters>NAN</DistanceMeters>
          </Trackpoint>
          <Trackpoint>
            <Time>2022-07-12T18:03:23.000Z</Time>
            <Position>
              <LatitudeDegrees>43.40068635530769824981689453125</LatitudeDegrees>
              <LongitudeDegrees>-3.26304079033434391021728515625</LongitudeDegrees>
            </Position>
            <AltitudeMeters>-31.3999996185302734375</AltitudeMeters>
            <DistanceMeters>NAN</DistanceMeters>
          </Trackpoint>
          <Trackpoint>
            <Time>2022-07-12T18:03:28.000Z</Time>
            <Position>
              <LatitudeDegrees>43.40072658844292163848876953125</LatitudeDegrees>
              <LongitudeDegrees>-3.26364730484783649444580078125</LongitudeDegrees>
            </Position>
            <AltitudeMeters>-31.799999237060546875</AltitudeMeters>
            <DistanceMeters>NAN</DistanceMeters>
          </Trackpoint>
          <Trackpoint>
            <Time>2022-07-12T18:03:34.000Z</Time>
            <Position>
              <LatitudeDegrees>43.40076212771236896514892578125</LatitudeDegrees>
              <LongitudeDegrees>-3.26425029896199703216552734375</LongitudeDegrees>
            </Position>
            <AltitudeMeters>-32</AltitudeMeters>
            <DistanceMeters>NAN</DistanceMeters>
          </Trackpoint>
          <Trackpoint>
            <Time>2022-07-12T18:03:40.000Z</Time>
            <Position>
              <LatitudeDegrees>43.4007863514125347137451171875</LatitudeDegrees>
              <LongitudeDegrees>-3.2646971382200717926025390625</LongitudeDegrees>
            </Position>
            <AltitudeMeters>-31.3999996185302734375</AltitudeMeters>
            <DistanceMeters>NAN</DistanceMeters>
          </Trackpoint>
          <Trackpoint>
            <Time>2022-07-12T18:03:46.000Z</Time>
            <Position>
              <LatitudeDegrees>43.40080998837947845458984375</LatitudeDegrees>
              <LongitudeDegrees>-3.2650086097419261932373046875</LongitudeDegrees>
            </Position>
            <AltitudeMeters>-30.6000003814697265625</AltitudeMeters>
            <DistanceMeters>NAN</DistanceMeters>
          </Trackpoint>
          <Trackpoint>
            <Time>2022-07-12T18:03:49.000Z</Time>
            <Position>
              <LatitudeDegrees>43.40082331560552120208740234375</LatitudeDegrees>
              <LongitudeDegrees>-3.26514246873557567596435546875</LongitudeDegrees>
            </Position>
            <AltitudeMeters>-30.200000762939453125</AltitudeMeters>
            <DistanceMeters>NAN</DistanceMeters>
          </Trackpoint>
          <Trackpoint>
            <Time>2022-07-12T18:03:53.000Z</Time>
            <Position>
              <LatitudeDegrees>43.40083521790802478790283203125</LatitudeDegrees>
              <LongitudeDegrees>-3.26530306600034236907958984375</LongitudeDegrees>
            </Position>
            <AltitudeMeters>-29.6000003814697265625</AltitudeMeters>
            <DistanceMeters>NAN</DistanceMeters>
          </Trackpoint>
          <Trackpoint>
            <Time>2022-07-12T18:03:56.000Z</Time>
            <Position>
              <LatitudeDegrees>43.40083186514675617218017578125</LatitudeDegrees>
              <LongitudeDegrees>-3.26541940681636333465576171875</LongitudeDegrees>
            </Position>
            <AltitudeMeters>-29.200000762939453125</AltitudeMeters>
            <DistanceMeters>NAN</DistanceMeters>
          </Trackpoint>
          <Trackpoint>
            <Time>2022-07-12T18:04:01.000Z</Time>
            <Position>
              <LatitudeDegrees>43.4008396603167057037353515625</LatitudeDegrees>
              <LongitudeDegrees>-3.2655909843742847442626953125</LongitudeDegrees>
            </Position>
            <AltitudeMeters>-28.200000762939453125</AltitudeMeters>
            <DistanceMeters>NAN</DistanceMeters>
          </Trackpoint>
          <Trackpoint>
            <Time>2022-07-12T18:04:03.000Z</Time>
            <Position>
              <LatitudeDegrees>43.40083639137446880340576171875</LatitudeDegrees>
              <LongitudeDegrees>-3.265660218894481658935546875</LongitudeDegrees>
            </Position>
            <AltitudeMeters>-28</AltitudeMeters>
            <DistanceMeters>NAN</DistanceMeters>
          </Trackpoint>
          <Trackpoint>
            <Time>2022-07-12T18:04:07.000Z</Time>
            <Position>
              <LatitudeDegrees>43.40083404444158077239990234375</LatitudeDegrees>
              <LongitudeDegrees>-3.2657971791923046112060546875</LongitudeDegrees>
            </Position>
            <AltitudeMeters>-27.6000003814697265625</AltitudeMeters>
            <DistanceMeters>NAN</DistanceMeters>
          </Trackpoint>
          <Trackpoint>
            <Time>2022-07-12T18:04:10.000Z</Time>
            <Position>
              <LatitudeDegrees>43.40082918293774127960205078125</LatitudeDegrees>
              <LongitudeDegrees>-3.26589323580265045166015625</LongitudeDegrees>
            </Position>
            <AltitudeMeters>-27.3999996185302734375</AltitudeMeters>
            <DistanceMeters>NAN</DistanceMeters>
          </Trackpoint>
          <Trackpoint>
            <Time>2022-07-12T18:04:11.000Z</Time>
            <Position>
              <LatitudeDegrees>43.4008280932903289794921875</LatitudeDegrees>
              <LongitudeDegrees>-3.26592265628278255462646484375</LongitudeDegrees>
            </Position>
            <AltitudeMeters>-27.3999996185302734375</AltitudeMeters>
            <DistanceMeters>NAN</DistanceMeters>
          </Trackpoint>
          <Trackpoint>
            <Time>2022-07-12T18:04:13.000Z</Time>
            <Position>
              <LatitudeDegrees>43.4008225612342357635498046875</LatitudeDegrees>
              <LongitudeDegrees>-3.26598417945206165313720703125</LongitudeDegrees>
            </Position>
            <AltitudeMeters>-27</AltitudeMeters>
            <DistanceMeters>NAN</DistanceMeters>
          </Trackpoint>
          <Trackpoint>
            <Time>2022-07-12T18:04:14.000Z</Time>
            <Position>
              <LatitudeDegrees>43.40082029812037944793701171875</LatitudeDegrees>
              <LongitudeDegrees>-3.26601670123636722564697265625</LongitudeDegrees>
            </Position>
            <AltitudeMeters>-27</AltitudeMeters>
            <DistanceMeters>NAN</DistanceMeters>
          </Trackpoint>
          <Trackpoint>
            <Time>2022-07-12T18:04:17.000Z</Time>
            <Position>
              <LatitudeDegrees>43.4008185379207134246826171875</LatitudeDegrees>
              <LongitudeDegrees>-3.26611451804637908935546875</LongitudeDegrees>
            </Position>
            <AltitudeMeters>-26.799999237060546875</AltitudeMeters>
            <DistanceMeters>NAN</DistanceMeters>
          </Trackpoint>
          <Trackpoint>
            <Time>2022-07-12T18:04:19.000Z</Time>
            <Position>
              <LatitudeDegrees>43.4008133411407470703125</LatitudeDegrees>
              <LongitudeDegrees>-3.2661747001111507415771484375</LongitudeDegrees>
            </Position>
            <AltitudeMeters>-26.3999996185302734375</AltitudeMeters>
            <DistanceMeters>NAN</DistanceMeters>
          </Trackpoint>
          <Trackpoint>
            <Time>2022-07-12T18:04:24.000Z</Time>
            <Position>
              <LatitudeDegrees>43.40079523622989654541015625</LatitudeDegrees>
              <LongitudeDegrees>-3.2662715949118137359619140625</LongitudeDegrees>
            </Position>
            <AltitudeMeters>-26.200000762939453125</AltitudeMeters>
            <DistanceMeters>NAN</DistanceMeters>
          </Trackpoint>
          <Trackpoint>
            <Time>2022-07-12T18:04:25.000Z</Time>
            <Position>
              <LatitudeDegrees>43.40079523622989654541015625</LatitudeDegrees>
              <LongitudeDegrees>-3.2662715949118137359619140625</LongitudeDegrees>
            </Position>
            <AltitudeMeters>-26</AltitudeMeters>
            <DistanceMeters>NAN</DistanceMeters>
          </Trackpoint>
          <Trackpoint>
            <Time>2022-07-12T18:04:41.000Z</Time>
            <Position>
              <LatitudeDegrees>43.400781154632568359375</LatitudeDegrees>
              <LongitudeDegrees>-3.266330771148204803466796875</LongitudeDegrees>
            </Position>
            <AltitudeMeters>-26.200000762939453125</AltitudeMeters>
            <DistanceMeters>NAN</DistanceMeters>
          </Trackpoint>
          <Trackpoint>
            <Time>2022-07-12T18:04:43.000Z</Time>
            <Position>
              <LatitudeDegrees>43.40076950378715991973876953125</LatitudeDegrees>
              <LongitudeDegrees>-3.26638315804302692413330078125</LongitudeDegrees>
            </Position>
            <AltitudeMeters>-26.200000762939453125</AltitudeMeters>
            <DistanceMeters>NAN</DistanceMeters>
          </Trackpoint>
          <Trackpoint>
            <Time>2022-07-12T18:04:46.000Z</Time>
            <Position>
              <LatitudeDegrees>43.40074427425861358642578125</LatitudeDegrees>
              <LongitudeDegrees>-3.26646898873150348663330078125</LongitudeDegrees>
            </Position>
            <AltitudeMeters>-25.799999237060546875</AltitudeMeters>
            <DistanceMeters>NAN</DistanceMeters>
          </Trackpoint>
          <Trackpoint>
            <Time>2022-07-12T18:04:51.000Z</Time>
            <Position>
              <LatitudeDegrees>43.40072206221520900726318359375</LatitudeDegrees>
              <LongitudeDegrees>-3.2666005007922649383544921875</LongitudeDegrees>
            </Position>
            <AltitudeMeters>-25.3999996185302734375</AltitudeMeters>
            <DistanceMeters>NAN</DistanceMeters>
          </Trackpoint>
          <Trackpoint>
            <Time>2022-07-12T18:04:58.000Z</Time>
            <Position>
              <LatitudeDegrees>43.40069121681153774261474609375</LatitudeDegrees>
              <LongitudeDegrees>-3.26675883494317531585693359375</LongitudeDegrees>
            </Position>
            <AltitudeMeters>-25</AltitudeMeters>
            <DistanceMeters>NAN</DistanceMeters>
          </Trackpoint>
          <Trackpoint>
            <Time>2022-07-12T18:05:00.000Z</Time>
            <Position>
              <LatitudeDegrees>43.400675542652606964111328125</LatitudeDegrees>
              <LongitudeDegrees>-3.2668120600283145904541015625</LongitudeDegrees>
            </Position>
            <AltitudeMeters>-24.799999237060546875</AltitudeMeters>
            <DistanceMeters>NAN</DistanceMeters>
          </Trackpoint>
          <Trackpoint>
            <Time>2022-07-12T18:05:06.000Z</Time>
            <Position>
              <LatitudeDegrees>43.40065668337047100067138671875</LatitudeDegrees>
              <LongitudeDegrees>-3.266979195177555084228515625</LongitudeDegrees>
            </Position>
            <AltitudeMeters>-24.6000003814697265625</AltitudeMeters>
            <DistanceMeters>NAN</DistanceMeters>
          </Trackpoint>
          <Trackpoint>
            <Time>2022-07-12T18:05:11.000Z</Time>
            <Position>
              <LatitudeDegrees>43.40072474442422389984130859375</LatitudeDegrees>
              <LongitudeDegrees>-3.26714088208973407745361328125</LongitudeDegrees>
            </Position>
            <AltitudeMeters>-26.200000762939453125</AltitudeMeters>
            <DistanceMeters>NAN</DistanceMeters>
          </Trackpoint>
          <Trackpoint>
            <Time>2022-07-12T18:05:13.000Z</Time>
            <Position>
              <LatitudeDegrees>43.4007498063147068023681640625</LatitudeDegrees>
              <LongitudeDegrees>-3.26722386293113231658935546875</LongitudeDegrees>
            </Position>
            <AltitudeMeters>-26.799999237060546875</AltitudeMeters>
            <DistanceMeters>NAN</DistanceMeters>
          </Trackpoint>
          <Trackpoint>
            <Time>2022-07-12T18:05:14.000Z</Time>
            <Position>
              <LatitudeDegrees>43.40076346881687641143798828125</LatitudeDegrees>
              <LongitudeDegrees>-3.267282284796237945556640625</LongitudeDegrees>
            </Position>
            <AltitudeMeters>-27.6000003814697265625</AltitudeMeters>
            <DistanceMeters>NAN</DistanceMeters>
          </Trackpoint>
          <Trackpoint>
            <Time>2022-07-12T18:05:16.000Z</Time>
            <Position>
              <LatitudeDegrees>43.4007836692035198211669921875</LatitudeDegrees>
              <LongitudeDegrees>-3.2673837058246135711669921875</LongitudeDegrees>
            </Position>
            <AltitudeMeters>-28.799999237060546875</AltitudeMeters>
            <DistanceMeters>NAN</DistanceMeters>
          </Trackpoint>
          <Trackpoint>
            <Time>2022-07-12T18:05:19.000Z</Time>
            <Position>
              <LatitudeDegrees>43.40081945993006229400634765625</LatitudeDegrees>
              <LongitudeDegrees>-3.2675422914326190948486328125</LongitudeDegrees>
            </Position>
            <AltitudeMeters>-30</AltitudeMeters>
            <DistanceMeters>NAN</DistanceMeters>
          </Trackpoint>
          <Trackpoint>
            <Time>2022-07-12T18:05:20.000Z</Time>
            <Position>
              <LatitudeDegrees>43.40083169750869274139404296875</LatitudeDegrees>
              <LongitudeDegrees>-3.26759886927902698516845703125</LongitudeDegrees>
            </Position>
            <AltitudeMeters>-30.799999237060546875</AltitudeMeters>
            <DistanceMeters>NAN</DistanceMeters>
          </Trackpoint>
          <Trackpoint>
            <Time>2022-07-12T18:05:21.000Z</Time>
            <Position>
              <LatitudeDegrees>43.400845192372798919677734375</LatitudeDegrees>
              <LongitudeDegrees>-3.26765368692576885223388671875</LongitudeDegrees>
            </Position>
            <AltitudeMeters>-31.200000762939453125</AltitudeMeters>
            <DistanceMeters>NAN</DistanceMeters>
          </Trackpoint>
          <Trackpoint>
            <Time>2022-07-12T18:05:23.000Z</Time>
            <Position>
              <LatitudeDegrees>43.4008651413023471832275390625</LatitudeDegrees>
              <LongitudeDegrees>-3.267764747142791748046875</LongitudeDegrees>
            </Position>
            <AltitudeMeters>-32.40000152587890625</AltitudeMeters>
            <DistanceMeters>NAN</DistanceMeters>
          </Trackpoint>
          <Trackpoint>
            <Time>2022-07-12T18:05:26.000Z</Time>
            <Position>
              <LatitudeDegrees>43.40089984238147735595703125</LatitudeDegrees>
              <LongitudeDegrees>-3.267936743795871734619140625</LongitudeDegrees>
            </Position>
            <AltitudeMeters>-33.59999847412109375</AltitudeMeters>
            <DistanceMeters>NAN</DistanceMeters>
          </Trackpoint>
          <Trackpoint>
            <Time>2022-07-12T18:05:28.000Z</Time>
            <Position>
              <LatitudeDegrees>43.4009288437664508819580078125</LatitudeDegrees>
              <LongitudeDegrees>-3.26806842349469661712646484375</LongitudeDegrees>
            </Position>
            <AltitudeMeters>-34.59999847412109375</AltitudeMeters>
            <DistanceMeters>NAN</DistanceMeters>
          </Trackpoint>
          <Trackpoint>
            <Time>2022-07-12T18:05:29.000Z</Time>
            <Position>
              <LatitudeDegrees>43.4009419195353984832763671875</LatitudeDegrees>
              <LongitudeDegrees>-3.2681394182145595550537109375</LongitudeDegrees>
            </Position>
            <AltitudeMeters>-35</AltitudeMeters>
            <DistanceMeters>NAN</DistanceMeters>
          </Trackpoint>
          <Trackpoint>
            <Time>2022-07-12T18:05:33.000Z</Time>
            <Position>
              <LatitudeDegrees>43.400994725525379180908203125</LatitudeDegrees>
              <LongitudeDegrees>-3.26843462884426116943359375</LongitudeDegrees>
            </Position>
            <AltitudeMeters>-36.200000762939453125</AltitudeMeters>
            <DistanceMeters>NAN</DistanceMeters>
          </Trackpoint>
          <Trackpoint>
            <Time>2022-07-12T18:05:34.000Z</Time>
            <Position>
              <LatitudeDegrees>43.4010109864175319671630859375</LatitudeDegrees>
              <LongitudeDegrees>-3.26850277371704578399658203125</LongitudeDegrees>
            </Position>
            <AltitudeMeters>-36.59999847412109375</AltitudeMeters>
            <DistanceMeters>NAN</DistanceMeters>
          </Trackpoint>
          <Trackpoint>
            <Time>2022-07-12T18:05:38.000Z</Time>
            <Position>
              <LatitudeDegrees>43.4010632894933223724365234375</LatitudeDegrees>
              <LongitudeDegrees>-3.2687784545123577117919921875</LongitudeDegrees>
            </Position>
            <AltitudeMeters>-37.200000762939453125</AltitudeMeters>
            <DistanceMeters>NAN</DistanceMeters>
          </Trackpoint>
          <Trackpoint>
            <Time>2022-07-12T18:05:39.000Z</Time>
            <Position>
              <LatitudeDegrees>43.40108181349933147430419921875</LatitudeDegrees>
              <LongitudeDegrees>-3.26883955858647823333740234375</LongitudeDegrees>
            </Position>
            <AltitudeMeters>-37.200000762939453125</AltitudeMeters>
            <DistanceMeters>NAN</DistanceMeters>
          </Trackpoint>
          <Trackpoint>
            <Time>2022-07-12T18:05:40.000Z</Time>
            <Position>
              <LatitudeDegrees>43.40111039578914642333984375</LatitudeDegrees>
              <LongitudeDegrees>-3.26888666488230228424072265625</LongitudeDegrees>
            </Position>
            <AltitudeMeters>-37.40000152587890625</AltitudeMeters>
            <DistanceMeters>NAN</DistanceMeters>
          </Trackpoint>
          <Trackpoint>
            <Time>2022-07-12T18:05:41.000Z</Time>
            <Position>
              <LatitudeDegrees>43.4011440910398960113525390625</LatitudeDegrees>
              <LongitudeDegrees>-3.2689165882766246795654296875</LongitudeDegrees>
            </Position>
            <AltitudeMeters>-37.40000152587890625</AltitudeMeters>
            <DistanceMeters>NAN</DistanceMeters>
          </Trackpoint>
          <Trackpoint>
            <Time>2022-07-12T18:05:43.000Z</Time>
            <Position>
              <LatitudeDegrees>43.4012258984148502349853515625</LatitudeDegrees>
              <LongitudeDegrees>-3.26892371289432048797607421875</LongitudeDegrees>
            </Position>
            <AltitudeMeters>-37.59999847412109375</AltitudeMeters>
            <DistanceMeters>NAN</DistanceMeters>
          </Trackpoint>
          <Trackpoint>
            <Time>2022-07-12T18:05:44.000Z</Time>
            <Position>
              <LatitudeDegrees>43.40126956813037395477294921875</LatitudeDegrees>
              <LongitudeDegrees>-3.2689192704856395721435546875</LongitudeDegrees>
            </Position>
            <AltitudeMeters>-38</AltitudeMeters>
            <DistanceMeters>NAN</DistanceMeters>
          </Trackpoint>
          <Trackpoint>
            <Time>2022-07-12T18:05:45.000Z</Time>
            <Position>
              <LatitudeDegrees>43.40131063945591449737548828125</LatitudeDegrees>
              <LongitudeDegrees>-3.26891683973371982574462890625</LongitudeDegrees>
            </Position>
            <AltitudeMeters>-38.40000152587890625</AltitudeMeters>
            <DistanceMeters>NAN</DistanceMeters>
          </Trackpoint>
          <Trackpoint>
            <Time>2022-07-12T18:05:48.000Z</Time>
            <Position>
              <LatitudeDegrees>43.40137752704322338104248046875</LatitudeDegrees>
              <LongitudeDegrees>-3.26891633681952953338623046875</LongitudeDegrees>
            </Position>
            <AltitudeMeters>-39.40000152587890625</AltitudeMeters>
            <DistanceMeters>NAN</DistanceMeters>
          </Trackpoint>
          <Trackpoint>
            <Time>2022-07-12T18:05:50.000Z</Time>
            <Position>
              <LatitudeDegrees>43.40137752704322338104248046875</LatitudeDegrees>
              <LongitudeDegrees>-3.26891633681952953338623046875</LongitudeDegrees>
            </Position>
            <AltitudeMeters>-39.799999237060546875</AltitudeMeters>
            <DistanceMeters>NAN</DistanceMeters>
          </Trackpoint>
          <Trackpoint>
            <Time>2022-07-12T18:06:52.000Z</Time>
            <Position>
              <LatitudeDegrees>43.40140870772302150726318359375</LatitudeDegrees>
              <LongitudeDegrees>-3.26891415752470493316650390625</LongitudeDegrees>
            </Position>
            <AltitudeMeters>-40.799999237060546875</AltitudeMeters>
            <DistanceMeters>NAN</DistanceMeters>
          </Trackpoint>
          <Trackpoint>
            <Time>2022-07-12T18:06:53.000Z</Time>
            <Position>
              <LatitudeDegrees>43.40144173242151737213134765625</LatitudeDegrees>
              <LongitudeDegrees>-3.26891566626727581024169921875</LongitudeDegrees>
            </Position>
            <AltitudeMeters>-40.799999237060546875</AltitudeMeters>
            <DistanceMeters>NAN</DistanceMeters>
          </Trackpoint>
          <Trackpoint>
            <Time>2022-07-12T18:06:57.000Z</Time>
            <Position>
              <LatitudeDegrees>43.40157265774905681610107421875</LatitudeDegrees>
              <LongitudeDegrees>-3.26894961297512054443359375</LongitudeDegrees>
            </Position>
            <AltitudeMeters>-41</AltitudeMeters>
            <DistanceMeters>NAN</DistanceMeters>
          </Trackpoint>
          <Trackpoint>
            <Time>2022-07-12T18:07:03.000Z</Time>
            <Position>
              <LatitudeDegrees>43.4017076902091503143310546875</LatitudeDegrees>
              <LongitudeDegrees>-3.26906251721084117889404296875</LongitudeDegrees>
            </Position>
            <AltitudeMeters>-40.200000762939453125</AltitudeMeters>
            <DistanceMeters>NAN</DistanceMeters>
          </Trackpoint>
          <Trackpoint>
            <Time>2022-07-12T18:07:06.000Z</Time>
            <Position>
              <LatitudeDegrees>43.40174733661115169525146484375</LatitudeDegrees>
              <LongitudeDegrees>-3.26911867596209049224853515625</LongitudeDegrees>
            </Position>
            <AltitudeMeters>-39.59999847412109375</AltitudeMeters>
            <DistanceMeters>NAN</DistanceMeters>
          </Trackpoint>
          <Trackpoint>
            <Time>2022-07-12T18:07:11.000Z</Time>
            <Position>
              <LatitudeDegrees>43.4018267132341861724853515625</LatitudeDegrees>
              <LongitudeDegrees>-3.26918204315006732940673828125</LongitudeDegrees>
            </Position>
            <AltitudeMeters>-39</AltitudeMeters>
            <DistanceMeters>NAN</DistanceMeters>
          </Trackpoint>
          <Trackpoint>
            <Time>2022-07-12T18:07:19.000Z</Time>
            <Position>
              <LatitudeDegrees>43.40191799215972423553466796875</LatitudeDegrees>
              <LongitudeDegrees>-3.26928757131099700927734375</LongitudeDegrees>
            </Position>
            <AltitudeMeters>-39</AltitudeMeters>
            <DistanceMeters>NAN</DistanceMeters>
          </Trackpoint>
          <Trackpoint>
            <Time>2022-07-12T18:07:26.000Z</Time>
            <Position>
              <LatitudeDegrees>43.4020490013062953948974609375</LatitudeDegrees>
              <LongitudeDegrees>-3.26932721771299839019775390625</LongitudeDegrees>
            </Position>
            <AltitudeMeters>-40</AltitudeMeters>
            <DistanceMeters>NAN</DistanceMeters>
          </Trackpoint>
          <Trackpoint>
            <Time>2022-07-12T18:07:32.000Z</Time>
            <Position>
              <LatitudeDegrees>43.40209518559277057647705078125</LatitudeDegrees>
              <LongitudeDegrees>-3.2693410478532314300537109375</LongitudeDegrees>
            </Position>
            <AltitudeMeters>-40.59999847412109375</AltitudeMeters>
            <DistanceMeters>NAN</DistanceMeters>
          </Trackpoint>
          <Trackpoint>
            <Time>2022-07-12T18:10:48.000Z</Time>
            <Position>
              <LatitudeDegrees>43.40208244509994983673095703125</LatitudeDegrees>
              <LongitudeDegrees>-3.26898925937712192535400390625</LongitudeDegrees>
            </Position>
            <AltitudeMeters>-41.40000152587890625</AltitudeMeters>
            <DistanceMeters>NAN</DistanceMeters>
          </Trackpoint>
          <Trackpoint>
            <Time>2022-07-12T18:10:49.000Z</Time>
            <Position>
              <LatitudeDegrees>43.4020919166505336761474609375</LatitudeDegrees>
              <LongitudeDegrees>-3.26897685416042804718017578125</LongitudeDegrees>
            </Position>
            <AltitudeMeters>-41.40000152587890625</AltitudeMeters>
            <DistanceMeters>NAN</DistanceMeters>
          </Trackpoint>
          <Trackpoint>
            <Time>2022-07-12T18:10:51.000Z</Time>
            <Position>
              <LatitudeDegrees>43.40211245231330394744873046875</LatitudeDegrees>
              <LongitudeDegrees>-3.268953301012516021728515625</LongitudeDegrees>
            </Position>
            <AltitudeMeters>-41.59999847412109375</AltitudeMeters>
            <DistanceMeters>NAN</DistanceMeters>
          </Trackpoint>
          <Trackpoint>
            <Time>2022-07-12T18:10:53.000Z</Time>
            <Position>
              <LatitudeDegrees>43.40212351642549037933349609375</LatitudeDegrees>
              <LongitudeDegrees>-3.26893712393939495086669921875</LongitudeDegrees>
            </Position>
            <AltitudeMeters>-41.799999237060546875</AltitudeMeters>
            <DistanceMeters>NAN</DistanceMeters>
          </Trackpoint>
          <Trackpoint>
            <Time>2022-07-12T18:10:56.000Z</Time>
            <Position>
              <LatitudeDegrees>43.40212561190128326416015625</LatitudeDegrees>
              <LongitudeDegrees>-3.26893511228263378143310546875</LongitudeDegrees>
            </Position>
            <AltitudeMeters>-42</AltitudeMeters>
            <DistanceMeters>NAN</DistanceMeters>
          </Trackpoint>
          <Trackpoint>
            <Time>2022-07-12T18:11:28.000Z</Time>
            <Position>
              <LatitudeDegrees>43.4021452255547046661376953125</LatitudeDegrees>
              <LongitudeDegrees>-3.26892270706593990325927734375</LongitudeDegrees>
            </Position>
            <AltitudeMeters>-42.799999237060546875</AltitudeMeters>
            <DistanceMeters>NAN</DistanceMeters>
          </Trackpoint>
          <Trackpoint>
            <Time>2022-07-12T18:11:29.000Z</Time>
            <Position>
              <LatitudeDegrees>43.40215687640011310577392578125</LatitudeDegrees>
              <LongitudeDegrees>-3.268903009593486785888671875</LongitudeDegrees>
            </Position>
            <AltitudeMeters>-42.799999237060546875</AltitudeMeters>
            <DistanceMeters>NAN</DistanceMeters>
          </Trackpoint>
          <Trackpoint>
            <Time>2022-07-12T18:11:30.000Z</Time>
            <Position>
              <LatitudeDegrees>43.40216852724552154541015625</LatitudeDegrees>
              <LongitudeDegrees>-3.2688854075968265533447265625</LongitudeDegrees>
            </Position>
            <AltitudeMeters>-42.799999237060546875</AltitudeMeters>
            <DistanceMeters>NAN</DistanceMeters>
          </Trackpoint>
          <Trackpoint>
            <Time>2022-07-12T18:11:33.000Z</Time>
            <Position>
              <LatitudeDegrees>43.40217397548258304595947265625</LatitudeDegrees>
              <LongitudeDegrees>-3.26887845061719417572021484375</LongitudeDegrees>
            </Position>
            <AltitudeMeters>-43</AltitudeMeters>
            <DistanceMeters>NAN</DistanceMeters>
          </Trackpoint>
          <Trackpoint>
            <Time>2022-07-12T18:11:58.000Z</Time>
            <Position>
              <LatitudeDegrees>43.40218990109860897064208984375</LatitudeDegrees>
              <LongitudeDegrees>-3.2688746787607669830322265625</LongitudeDegrees>
            </Position>
            <AltitudeMeters>-43.40000152587890625</AltitudeMeters>
            <DistanceMeters>NAN</DistanceMeters>
          </Trackpoint>
          <Trackpoint>
            <Time>2022-07-12T18:12:00.000Z</Time>
            <Position>
              <LatitudeDegrees>43.40217079035937786102294921875</LatitudeDegrees>
              <LongitudeDegrees>-3.2689129002392292022705078125</LongitudeDegrees>
            </Position>
            <AltitudeMeters>-43.40000152587890625</AltitudeMeters>
            <DistanceMeters>NAN</DistanceMeters>
          </Trackpoint>
          <Trackpoint>
            <Time>2022-07-12T18:12:01.000Z</Time>
            <Position>
              <LatitudeDegrees>43.4021638333797454833984375</LatitudeDegrees>
              <LongitudeDegrees>-3.2689286582171916961669921875</LongitudeDegrees>
            </Position>
            <AltitudeMeters>-43.40000152587890625</AltitudeMeters>
            <DistanceMeters>NAN</DistanceMeters>
          </Trackpoint>
          <Trackpoint>
            <Time>2022-07-12T18:12:04.000Z</Time>
            <Position>
              <LatitudeDegrees>43.40215100906789302825927734375</LatitudeDegrees>
              <LongitudeDegrees>-3.26895941980183124542236328125</LongitudeDegrees>
            </Position>
            <AltitudeMeters>-43</AltitudeMeters>
            <DistanceMeters>NAN</DistanceMeters>
          </Trackpoint>
          <Trackpoint>
            <Time>2022-07-12T18:12:09.000Z</Time>
            <Position>
              <LatitudeDegrees>43.40213944204151630401611328125</LatitudeDegrees>
              <LongitudeDegrees>-3.26897685416042804718017578125</LongitudeDegrees>
            </Position>
            <AltitudeMeters>-42.799999237060546875</AltitudeMeters>
            <DistanceMeters>NAN</DistanceMeters>
          </Trackpoint>
          <Trackpoint>
            <Time>2022-07-13T05:45:10.000Z</Time>
            <Position>
              <LatitudeDegrees>43.40201555751264095306396484375</LatitudeDegrees>
              <LongitudeDegrees>-3.26900166459381580352783203125</LongitudeDegrees>
            </Position>
            <AltitudeMeters>42.59999847412109375</AltitudeMeters>
            <DistanceMeters>NAN</DistanceMeters>
          </Trackpoint>
          <Trackpoint>
            <Time>2022-07-13T05:45:11.000Z</Time>
            <Position>
              <LatitudeDegrees>43.40201555751264095306396484375</LatitudeDegrees>
              <LongitudeDegrees>-3.26900166459381580352783203125</LongitudeDegrees>
            </Position>
            <AltitudeMeters>42.59999847412109375</AltitudeMeters>
            <DistanceMeters>NAN</DistanceMeters>
          </Trackpoint>
          <Trackpoint>
            <Time>2022-07-13T05:45:21.000Z</Time>
            <Position>
              <LatitudeDegrees>43.40199108235538005828857421875</LatitudeDegrees>
              <LongitudeDegrees>-3.269041143357753753662109375</LongitudeDegrees>
            </Position>
            <AltitudeMeters>42.59999847412109375</AltitudeMeters>
            <DistanceMeters>NAN</DistanceMeters>
          </Trackpoint>
          <Trackpoint>
            <Time>2022-07-13T05:45:24.000Z</Time>
            <Position>
              <LatitudeDegrees>43.40195604600012302398681640625</LatitudeDegrees>
              <LongitudeDegrees>-3.26910040341317653656005859375</LongitudeDegrees>
            </Position>
            <AltitudeMeters>42.59999847412109375</AltitudeMeters>
            <DistanceMeters>NAN</DistanceMeters>
          </Trackpoint>
          <Trackpoint>
            <Time>2022-07-13T05:45:29.000Z</Time>
            <Position>
              <LatitudeDegrees>43.401873148977756500244140625</LatitudeDegrees>
              <LongitudeDegrees>-3.26917215250432491302490234375</LongitudeDegrees>
            </Position>
            <AltitudeMeters>42.40000152587890625</AltitudeMeters>
            <DistanceMeters>NAN</DistanceMeters>
          </Trackpoint>
          <Trackpoint>
            <Time>2022-07-13T05:45:31.000Z</Time>
            <Position>
              <LatitudeDegrees>43.4018350951373577117919921875</LatitudeDegrees>
              <LongitudeDegrees>-3.26916829682886600494384765625</LongitudeDegrees>
            </Position>
            <AltitudeMeters>42.200000762939453125</AltitudeMeters>
            <DistanceMeters>NAN</DistanceMeters>
          </Trackpoint>
          <Trackpoint>
            <Time>2022-07-13T05:45:39.000Z</Time>
            <Position>
              <LatitudeDegrees>43.40171950869262218475341796875</LatitudeDegrees>
              <LongitudeDegrees>-3.269096799194812774658203125</LongitudeDegrees>
            </Position>
            <AltitudeMeters>42.200000762939453125</AltitudeMeters>
            <DistanceMeters>NAN</DistanceMeters>
          </Trackpoint>
          <Trackpoint>
            <Time>2022-07-13T05:45:41.000Z</Time>
            <Position>
              <LatitudeDegrees>43.4016835503280162811279296875</LatitudeDegrees>
              <LongitudeDegrees>-3.26904525049030780792236328125</LongitudeDegrees>
            </Position>
            <AltitudeMeters>42.200000762939453125</AltitudeMeters>
            <DistanceMeters>NAN</DistanceMeters>
          </Trackpoint>
          <Trackpoint>
            <Time>2022-07-13T05:45:45.000Z</Time>
            <Position>
              <LatitudeDegrees>43.4016014076769351959228515625</LatitudeDegrees>
              <LongitudeDegrees>-3.268942572176456451416015625</LongitudeDegrees>
            </Position>
            <AltitudeMeters>41.200000762939453125</AltitudeMeters>
            <DistanceMeters>NAN</DistanceMeters>
          </Trackpoint>
          <Trackpoint>
            <Time>2022-07-13T05:45:50.000Z</Time>
            <Position>
              <LatitudeDegrees>43.4014233760535717010498046875</LatitudeDegrees>
              <LongitudeDegrees>-3.26888331212103366851806640625</LongitudeDegrees>
            </Position>
            <AltitudeMeters>40.200000762939453125</AltitudeMeters>
            <DistanceMeters>NAN</DistanceMeters>
          </Trackpoint>
          <Trackpoint>
            <Time>2022-07-13T05:45:56.000Z</Time>
            <Position>
              <LatitudeDegrees>43.40128012932837009429931640625</LatitudeDegrees>
              <LongitudeDegrees>-3.2688569091260433197021484375</LongitudeDegrees>
            </Position>
            <AltitudeMeters>40.40000152587890625</AltitudeMeters>
            <DistanceMeters>NAN</DistanceMeters>
          </Trackpoint>
          <Trackpoint>
            <Time>2022-07-13T05:46:03.000Z</Time>
            <Position>
              <LatitudeDegrees>43.401170074939727783203125</LatitudeDegrees>
              <LongitudeDegrees>-3.26886302791535854339599609375</LongitudeDegrees>
            </Position>
            <AltitudeMeters>41.200000762939453125</AltitudeMeters>
            <DistanceMeters>NAN</DistanceMeters>
          </Trackpoint>
          <Trackpoint>
            <Time>2022-07-13T05:46:05.000Z</Time>
            <Position>
              <LatitudeDegrees>43.40114132501184940338134765625</LatitudeDegrees>
              <LongitudeDegrees>-3.26886235736310482025146484375</LongitudeDegrees>
            </Position>
            <AltitudeMeters>41.200000762939453125</AltitudeMeters>
            <DistanceMeters>NAN</DistanceMeters>
          </Trackpoint>
          <Trackpoint>
            <Time>2022-07-13T05:46:09.000Z</Time>
            <Position>
              <LatitudeDegrees>43.40109488926827907562255859375</LatitudeDegrees>
              <LongitudeDegrees>-3.26884240843355655670166015625</LongitudeDegrees>
            </Position>
            <AltitudeMeters>41.40000152587890625</AltitudeMeters>
            <DistanceMeters>NAN</DistanceMeters>
          </Trackpoint>
          <Trackpoint>
            <Time>2022-07-13T05:46:11.000Z</Time>
            <Position>
              <LatitudeDegrees>43.4010763652622699737548828125</LatitudeDegrees>
              <LongitudeDegrees>-3.26882178895175457000732421875</LongitudeDegrees>
            </Position>
            <AltitudeMeters>41.40000152587890625</AltitudeMeters>
            <DistanceMeters>NAN</DistanceMeters>
          </Trackpoint>
          <Trackpoint>
            <Time>2022-07-13T05:46:17.000Z</Time>
            <Position>
              <LatitudeDegrees>43.40104074217379093170166015625</LatitudeDegrees>
              <LongitudeDegrees>-3.2687167637050151824951171875</LongitudeDegrees>
            </Position>
            <AltitudeMeters>41.799999237060546875</AltitudeMeters>
            <DistanceMeters>NAN</DistanceMeters>
          </Trackpoint>
          <Trackpoint>
            <Time>2022-07-13T05:46:24.000Z</Time>
            <Position>
              <LatitudeDegrees>43.4010186977684497833251953125</LatitudeDegrees>
              <LongitudeDegrees>-3.26854862272739410400390625</LongitudeDegrees>
            </Position>
            <AltitudeMeters>42.200000762939453125</AltitudeMeters>
            <DistanceMeters>NAN</DistanceMeters>
          </Trackpoint>
          <Trackpoint>
            <Time>2022-07-13T05:46:26.000Z</Time>
            <Position>
              <LatitudeDegrees>43.40101459063589572906494140625</LatitudeDegrees>
              <LongitudeDegrees>-3.2685010135173797607421875</LongitudeDegrees>
            </Position>
            <AltitudeMeters>42.40000152587890625</AltitudeMeters>
            <DistanceMeters>NAN</DistanceMeters>
          </Trackpoint>
          <Trackpoint>
            <Time>2022-07-13T05:46:31.000Z</Time>
            <Position>
              <LatitudeDegrees>43.4010056219995021820068359375</LatitudeDegrees>
              <LongitudeDegrees>-3.26840571127831935882568359375</LongitudeDegrees>
            </Position>
            <AltitudeMeters>42.799999237060546875</AltitudeMeters>
            <DistanceMeters>NAN</DistanceMeters>
          </Trackpoint>
          <Trackpoint>
            <Time>2022-07-13T05:46:33.000Z</Time>
            <Position>
              <LatitudeDegrees>43.4010036103427410125732421875</LatitudeDegrees>
              <LongitudeDegrees>-3.26836380176246166229248046875</LongitudeDegrees>
            </Position>
            <AltitudeMeters>43</AltitudeMeters>
            <DistanceMeters>NAN</DistanceMeters>
          </Trackpoint>
          <Trackpoint>
            <Time>2022-07-13T05:46:36.000Z</Time>
            <Position>
              <LatitudeDegrees>43.4009898640215396881103515625</LatitudeDegrees>
              <LongitudeDegrees>-3.26831384561955928802490234375</LongitudeDegrees>
            </Position>
            <AltitudeMeters>43</AltitudeMeters>
            <DistanceMeters>NAN</DistanceMeters>
          </Trackpoint>
          <Trackpoint>
            <Time>2022-07-13T05:46:41.000Z</Time>
            <Position>
              <LatitudeDegrees>43.4009744413197040557861328125</LatitudeDegrees>
              <LongitudeDegrees>-3.26821728609502315521240234375</LongitudeDegrees>
            </Position>
            <AltitudeMeters>43.200000762939453125</AltitudeMeters>
            <DistanceMeters>NAN</DistanceMeters>
          </Trackpoint>
          <Trackpoint>
            <Time>2022-07-13T05:46:42.000Z</Time>
            <Position>
              <LatitudeDegrees>43.4009674005210399627685546875</LatitudeDegrees>
              <LongitudeDegrees>-3.26819716952741146087646484375</LongitudeDegrees>
            </Position>
            <AltitudeMeters>43.40000152587890625</AltitudeMeters>
            <DistanceMeters>NAN</DistanceMeters>
          </Trackpoint>
          <Trackpoint>
            <Time>2022-07-13T05:46:45.000Z</Time>
            <Position>
              <LatitudeDegrees>43.40095482766628265380859375</LatitudeDegrees>
              <LongitudeDegrees>-3.268137238919734954833984375</LongitudeDegrees>
            </Position>
            <AltitudeMeters>43.59999847412109375</AltitudeMeters>
            <DistanceMeters>NAN</DistanceMeters>
          </Trackpoint>
          <Trackpoint>
            <Time>2022-07-13T05:46:51.000Z</Time>
            <Position>
              <LatitudeDegrees>43.40093496255576610565185546875</LatitudeDegrees>
              <LongitudeDegrees>-3.26800891198217868804931640625</LongitudeDegrees>
            </Position>
            <AltitudeMeters>44</AltitudeMeters>
            <DistanceMeters>NAN</DistanceMeters>
          </Trackpoint>
          <Trackpoint>
            <Time>2022-07-13T05:46:56.000Z</Time>
            <Position>
              <LatitudeDegrees>43.40091467835009098052978515625</LatitudeDegrees>
              <LongitudeDegrees>-3.267922662198543548583984375</LongitudeDegrees>
            </Position>
            <AltitudeMeters>44.40000152587890625</AltitudeMeters>
            <DistanceMeters>NAN</DistanceMeters>
          </Trackpoint>
          <Trackpoint>
            <Time>2022-07-13T05:47:01.000Z</Time>
            <Position>
              <LatitudeDegrees>43.40090881101787090301513671875</LatitudeDegrees>
              <LongitudeDegrees>-3.267828114330768585205078125</LongitudeDegrees>
            </Position>
            <AltitudeMeters>45</AltitudeMeters>
            <DistanceMeters>NAN</DistanceMeters>
          </Trackpoint>
          <Trackpoint>
            <Time>2022-07-13T05:47:06.000Z</Time>
            <Position>
              <LatitudeDegrees>43.4008963219821453094482421875</LatitudeDegrees>
              <LongitudeDegrees>-3.2677471451461315155029296875</LongitudeDegrees>
            </Position>
            <AltitudeMeters>45.59999847412109375</AltitudeMeters>
            <DistanceMeters>NAN</DistanceMeters>
          </Trackpoint>
          <Trackpoint>
            <Time>2022-07-13T05:47:10.000Z</Time>
            <Position>
              <LatitudeDegrees>43.400878719985485076904296875</LatitudeDegrees>
              <LongitudeDegrees>-3.267679922282695770263671875</LongitudeDegrees>
            </Position>
            <AltitudeMeters>46</AltitudeMeters>
            <DistanceMeters>NAN</DistanceMeters>
          </Trackpoint>
          <Trackpoint>
            <Time>2022-07-13T05:47:14.000Z</Time>
            <Position>
              <LatitudeDegrees>43.400866650044918060302734375</LatitudeDegrees>
              <LongitudeDegrees>-3.26761789619922637939453125</LongitudeDegrees>
            </Position>
            <AltitudeMeters>46.59999847412109375</AltitudeMeters>
            <DistanceMeters>NAN</DistanceMeters>
          </Trackpoint>
          <Trackpoint>
            <Time>2022-07-13T05:47:20.000Z</Time>
            <Position>
              <LatitudeDegrees>43.40085156261920928955078125</LatitudeDegrees>
              <LongitudeDegrees>-3.2675332389771938323974609375</LongitudeDegrees>
            </Position>
            <AltitudeMeters>47.40000152587890625</AltitudeMeters>
            <DistanceMeters>NAN</DistanceMeters>
          </Trackpoint>
          <Trackpoint>
            <Time>2022-07-13T05:47:22.000Z</Time>
            <Position>
              <LatitudeDegrees>43.40084619820117950439453125</LatitudeDegrees>
              <LongitudeDegrees>-3.26750968582928180694580078125</LongitudeDegrees>
            </Position>
            <AltitudeMeters>47.59999847412109375</AltitudeMeters>
            <DistanceMeters>NAN</DistanceMeters>
          </Trackpoint>
          <Trackpoint>
            <Time>2022-07-13T05:47:28.000Z</Time>
            <Position>
              <LatitudeDegrees>43.40082381851971149444580078125</LatitudeDegrees>
              <LongitudeDegrees>-3.2674309797585010528564453125</LongitudeDegrees>
            </Position>
            <AltitudeMeters>48.40000152587890625</AltitudeMeters>
            <DistanceMeters>NAN</DistanceMeters>
          </Trackpoint>
          <Trackpoint>
            <Time>2022-07-13T05:47:31.000Z</Time>
            <Position>
              <LatitudeDegrees>43.400809653103351593017578125</LatitudeDegrees>
              <LongitudeDegrees>-3.2673883996903896331787109375</LongitudeDegrees>
            </Position>
            <AltitudeMeters>48.799999237060546875</AltitudeMeters>
            <DistanceMeters>NAN</DistanceMeters>
          </Trackpoint>
          <Trackpoint>
            <Time>2022-07-13T05:47:37.000Z</Time>
            <Position>
              <LatitudeDegrees>43.40078727342188358306884765625</LatitudeDegrees>
              <LongitudeDegrees>-3.26728999614715576171875</LongitudeDegrees>
            </Position>
            <AltitudeMeters>49.40000152587890625</AltitudeMeters>
            <DistanceMeters>NAN</DistanceMeters>
          </Trackpoint>
          <Trackpoint>
            <Time>2022-07-13T05:47:40.000Z</Time>
            <Position>
              <LatitudeDegrees>43.40077377855777740478515625</LatitudeDegrees>
              <LongitudeDegrees>-3.26724146492779254913330078125</LongitudeDegrees>
            </Position>
            <AltitudeMeters>50</AltitudeMeters>
            <DistanceMeters>NAN</DistanceMeters>
          </Trackpoint>
          <Trackpoint>
            <Time>2022-07-13T05:47:45.000Z</Time>
            <Position>
              <LatitudeDegrees>43.40075843967497348785400390625</LatitudeDegrees>
              <LongitudeDegrees>-3.2671704702079296112060546875</LongitudeDegrees>
            </Position>
            <AltitudeMeters>50.799999237060546875</AltitudeMeters>
            <DistanceMeters>NAN</DistanceMeters>
          </Trackpoint>
          <Trackpoint>
            <Time>2022-07-13T05:47:48.000Z</Time>
            <Position>
              <LatitudeDegrees>43.4007518179714679718017578125</LatitudeDegrees>
              <LongitudeDegrees>-3.267118670046329498291015625</LongitudeDegrees>
            </Position>
            <AltitudeMeters>51.200000762939453125</AltitudeMeters>
            <DistanceMeters>NAN</DistanceMeters>
          </Trackpoint>
          <Trackpoint>
            <Time>2022-07-13T05:47:52.000Z</Time>
            <Position>
              <LatitudeDegrees>43.40073161758482456207275390625</LatitudeDegrees>
              <LongitudeDegrees>-3.267056308686733245849609375</LongitudeDegrees>
            </Position>
            <AltitudeMeters>51.799999237060546875</AltitudeMeters>
            <DistanceMeters>NAN</DistanceMeters>
          </Trackpoint>
          <Trackpoint>
            <Time>2022-07-13T05:47:53.000Z</Time>
            <Position>
              <LatitudeDegrees>43.40072675608098506927490234375</LatitudeDegrees>
              <LongitudeDegrees>-3.2670434005558490753173828125</LongitudeDegrees>
            </Position>
            <AltitudeMeters>52</AltitudeMeters>
            <DistanceMeters>NAN</DistanceMeters>
          </Trackpoint>
          <Trackpoint>
            <Time>2022-07-13T05:47:54.000Z</Time>
            <Position>
              <LatitudeDegrees>43.40072013437747955322265625</LatitudeDegrees>
              <LongitudeDegrees>-3.26702470891177654266357421875</LongitudeDegrees>
            </Position>
            <AltitudeMeters>52.200000762939453125</AltitudeMeters>
            <DistanceMeters>NAN</DistanceMeters>
          </Trackpoint>
          <Trackpoint>
            <Time>2022-07-13T05:47:59.000Z</Time>
            <Position>
              <LatitudeDegrees>43.40068300254642963409423828125</LatitudeDegrees>
              <LongitudeDegrees>-3.2669585756957530975341796875</LongitudeDegrees>
            </Position>
            <AltitudeMeters>53.59999847412109375</AltitudeMeters>
            <DistanceMeters>NAN</DistanceMeters>
          </Trackpoint>
          <Trackpoint>
            <Time>2022-07-13T05:48:01.000Z</Time>
            <Position>
              <LatitudeDegrees>43.4006649814546108245849609375</LatitudeDegrees>
              <LongitudeDegrees>-3.266935609281063079833984375</LongitudeDegrees>
            </Position>
            <AltitudeMeters>54</AltitudeMeters>
            <DistanceMeters>NAN</DistanceMeters>
          </Trackpoint>
          <Trackpoint>
            <Time>2022-07-13T05:48:04.000Z</Time>
            <Position>
              <LatitudeDegrees>43.40064209885895252227783203125</LatitudeDegrees>
              <LongitudeDegrees>-3.266905434429645538330078125</LongitudeDegrees>
            </Position>
            <AltitudeMeters>54.799999237060546875</AltitudeMeters>
            <DistanceMeters>NAN</DistanceMeters>
          </Trackpoint>
          <Trackpoint>
            <Time>2022-07-13T05:48:06.000Z</Time>
            <Position>
              <LatitudeDegrees>43.40061661787331104278564453125</LatitudeDegrees>
              <LongitudeDegrees>-3.26691507361829280853271484375</LongitudeDegrees>
            </Position>
            <AltitudeMeters>55</AltitudeMeters>
            <DistanceMeters>NAN</DistanceMeters>
          </Trackpoint>
          <Trackpoint>
            <Time>2022-07-13T05:48:07.000Z</Time>
            <Position>
              <LatitudeDegrees>43.40060479938983917236328125</LatitudeDegrees>
              <LongitudeDegrees>-3.26693904586136341094970703125</LongitudeDegrees>
            </Position>
            <AltitudeMeters>55.200000762939453125</AltitudeMeters>
            <DistanceMeters>NAN</DistanceMeters>
          </Trackpoint>
          <Trackpoint>
            <Time>2022-07-13T05:48:10.000Z</Time>
            <Position>
              <LatitudeDegrees>43.40059348382055759429931640625</LatitudeDegrees>
              <LongitudeDegrees>-3.26701641082763671875</LongitudeDegrees>
            </Position>
            <AltitudeMeters>55.40000152587890625</AltitudeMeters>
            <DistanceMeters>NAN</DistanceMeters>
          </Trackpoint>
          <Trackpoint>
            <Time>2022-07-13T05:48:15.000Z</Time>
            <Position>
              <LatitudeDegrees>43.4005566872656345367431640625</LatitudeDegrees>
              <LongitudeDegrees>-3.2671138085424900054931640625</LongitudeDegrees>
            </Position>
            <AltitudeMeters>55.799999237060546875</AltitudeMeters>
            <DistanceMeters>NAN</DistanceMeters>
          </Trackpoint>
          <Trackpoint>
            <Time>2022-07-13T05:48:20.000Z</Time>
            <Position>
              <LatitudeDegrees>43.4005134366452693939208984375</LatitudeDegrees>
              <LongitudeDegrees>-3.26719888485968112945556640625</LongitudeDegrees>
            </Position>
            <AltitudeMeters>56.200000762939453125</AltitudeMeters>
            <DistanceMeters>NAN</DistanceMeters>
          </Trackpoint>
          <Trackpoint>
            <Time>2022-07-13T05:48:28.000Z</Time>
            <Position>
              <LatitudeDegrees>43.40047026984393596649169921875</LatitudeDegrees>
              <LongitudeDegrees>-3.26734674163162708282470703125</LongitudeDegrees>
            </Position>
            <AltitudeMeters>56.799999237060546875</AltitudeMeters>
            <DistanceMeters>NAN</DistanceMeters>
          </Trackpoint>
          <Trackpoint>
            <Time>2022-07-13T05:48:37.000Z</Time>
            <Position>
              <LatitudeDegrees>43.40039818547666072845458984375</LatitudeDegrees>
              <LongitudeDegrees>-3.267508931457996368408203125</LongitudeDegrees>
            </Position>
            <AltitudeMeters>57.40000152587890625</AltitudeMeters>
            <DistanceMeters>NAN</DistanceMeters>
          </Trackpoint>
          <Trackpoint>
            <Time>2022-07-13T05:48:43.000Z</Time>
            <Position>
              <LatitudeDegrees>43.40035443194210529327392578125</LatitudeDegrees>
              <LongitudeDegrees>-3.26760557480156421661376953125</LongitudeDegrees>
            </Position>
            <AltitudeMeters>57.799999237060546875</AltitudeMeters>
            <DistanceMeters>NAN</DistanceMeters>
          </Trackpoint>
          <Trackpoint>
            <Time>2022-07-13T05:48:46.000Z</Time>
            <Position>
              <LatitudeDegrees>43.4003337286412715911865234375</LatitudeDegrees>
              <LongitudeDegrees>-3.26765653677284717559814453125</LongitudeDegrees>
            </Position>
            <AltitudeMeters>58</AltitudeMeters>
            <DistanceMeters>NAN</DistanceMeters>
          </Trackpoint>
          <Trackpoint>
            <Time>2022-07-13T05:48:52.000Z</Time>
            <Position>
              <LatitudeDegrees>43.4002921544015407562255859375</LatitudeDegrees>
              <LongitudeDegrees>-3.26775133609771728515625</LongitudeDegrees>
            </Position>
            <AltitudeMeters>58.40000152587890625</AltitudeMeters>
            <DistanceMeters>NAN</DistanceMeters>
          </Trackpoint>
          <Trackpoint>
            <Time>2022-07-13T05:48:58.000Z</Time>
            <Position>
              <LatitudeDegrees>43.4002572856843471527099609375</LatitudeDegrees>
              <LongitudeDegrees>-3.26783222146332263946533203125</LongitudeDegrees>
            </Position>
            <AltitudeMeters>58.799999237060546875</AltitudeMeters>
            <DistanceMeters>NAN</DistanceMeters>
          </Trackpoint>
          <Trackpoint>
            <Time>2022-07-13T05:49:01.000Z</Time>
            <Position>
              <LatitudeDegrees>43.40023172087967395782470703125</LatitudeDegrees>
              <LongitudeDegrees>-3.2678814232349395751953125</LongitudeDegrees>
            </Position>
            <AltitudeMeters>59.200000762939453125</AltitudeMeters>
            <DistanceMeters>NAN</DistanceMeters>
          </Trackpoint>
          <Trackpoint>
            <Time>2022-07-13T05:49:05.000Z</Time>
            <Position>
              <LatitudeDegrees>43.40020037256181240081787109375</LatitudeDegrees>
              <LongitudeDegrees>-3.2679332233965396881103515625</LongitudeDegrees>
            </Position>
            <AltitudeMeters>59.40000152587890625</AltitudeMeters>
            <DistanceMeters>NAN</DistanceMeters>
          </Trackpoint>
          <Trackpoint>
            <Time>2022-07-13T05:49:10.000Z</Time>
            <Position>
              <LatitudeDegrees>43.40015946887433528900146484375</LatitudeDegrees>
              <LongitudeDegrees>-3.268016539514064788818359375</LongitudeDegrees>
            </Position>
            <AltitudeMeters>59.799999237060546875</AltitudeMeters>
            <DistanceMeters>NAN</DistanceMeters>
          </Trackpoint>
          <Trackpoint>
            <Time>2022-07-13T05:49:11.000Z</Time>
            <Position>
              <LatitudeDegrees>43.40015209279954433441162109375</LatitudeDegrees>
              <LongitudeDegrees>-3.2680316269397735595703125</LongitudeDegrees>
            </Position>
            <AltitudeMeters>60</AltitudeMeters>
            <DistanceMeters>NAN</DistanceMeters>
          </Trackpoint>
          <Trackpoint>
            <Time>2022-07-13T05:49:13.000Z</Time>
            <Position>
              <LatitudeDegrees>43.4001396037638187408447265625</LatitudeDegrees>
              <LongitudeDegrees>-3.2680592872202396392822265625</LongitudeDegrees>
            </Position>
            <AltitudeMeters>60.200000762939453125</AltitudeMeters>
            <DistanceMeters>NAN</DistanceMeters>
          </Trackpoint>
          <Trackpoint>
            <Time>2022-07-13T05:49:15.000Z</Time>
            <Position>
              <LatitudeDegrees>43.40012828819453716278076171875</LatitudeDegrees>
              <LongitudeDegrees>-3.2680911384522914886474609375</LongitudeDegrees>
            </Position>
            <AltitudeMeters>60.40000152587890625</AltitudeMeters>
            <DistanceMeters>NAN</DistanceMeters>
          </Trackpoint>
          <Trackpoint>
            <Time>2022-07-13T05:49:18.000Z</Time>
            <Position>
              <LatitudeDegrees>43.400106914341449737548828125</LatitudeDegrees>
              <LongitudeDegrees>-3.26814226806163787841796875</LongitudeDegrees>
            </Position>
            <AltitudeMeters>60.59999847412109375</AltitudeMeters>
            <DistanceMeters>NAN</DistanceMeters>
          </Trackpoint>
          <Trackpoint>
            <Time>2022-07-13T05:49:21.000Z</Time>
            <Position>
              <LatitudeDegrees>43.40008336119353771209716796875</LatitudeDegrees>
              <LongitudeDegrees>-3.2681890390813350677490234375</LongitudeDegrees>
            </Position>
            <AltitudeMeters>60.799999237060546875</AltitudeMeters>
            <DistanceMeters>NAN</DistanceMeters>
          </Trackpoint>
          <Trackpoint>
            <Time>2022-07-13T05:49:24.000Z</Time>
            <Position>
              <LatitudeDegrees>43.40006022714078426361083984375</LatitudeDegrees>
              <LongitudeDegrees>-3.26823052950203418731689453125</LongitudeDegrees>
            </Position>
            <AltitudeMeters>61</AltitudeMeters>
            <DistanceMeters>NAN</DistanceMeters>
          </Trackpoint>
          <Trackpoint>
            <Time>2022-07-13T05:49:31.000Z</Time>
            <Position>
              <LatitudeDegrees>43.40000490657985210418701171875</LatitudeDegrees>
              <LongitudeDegrees>-3.268341757357120513916015625</LongitudeDegrees>
            </Position>
            <AltitudeMeters>61.59999847412109375</AltitudeMeters>
            <DistanceMeters>NAN</DistanceMeters>
          </Trackpoint>
          <Trackpoint>
            <Time>2022-07-13T05:49:39.000Z</Time>
            <Position>
              <LatitudeDegrees>43.39994740672409534454345703125</LatitudeDegrees>
              <LongitudeDegrees>-3.26846413314342498779296875</LongitudeDegrees>
            </Position>
            <AltitudeMeters>62</AltitudeMeters>
            <DistanceMeters>NAN</DistanceMeters>
          </Trackpoint>
          <Trackpoint>
            <Time>2022-07-13T05:49:42.000Z</Time>
            <Position>
              <LatitudeDegrees>43.3999246917665004730224609375</LatitudeDegrees>
              <LongitudeDegrees>-3.268511407077312469482421875</LongitudeDegrees>
            </Position>
            <AltitudeMeters>62.200000762939453125</AltitudeMeters>
            <DistanceMeters>NAN</DistanceMeters>
          </Trackpoint>
          <Trackpoint>
            <Time>2022-07-13T05:49:51.000Z</Time>
            <Position>
              <LatitudeDegrees>43.39985503815114498138427734375</LatitudeDegrees>
              <LongitudeDegrees>-3.2686597667634487152099609375</LongitudeDegrees>
            </Position>
            <AltitudeMeters>63</AltitudeMeters>
            <DistanceMeters>NAN</DistanceMeters>
          </Trackpoint>
          <Trackpoint>
            <Time>2022-07-13T05:49:52.000Z</Time>
            <Position>
              <LatitudeDegrees>43.399847410619258880615234375</LatitudeDegrees>
              <LongitudeDegrees>-3.26867393217980861663818359375</LongitudeDegrees>
            </Position>
            <AltitudeMeters>63</AltitudeMeters>
            <DistanceMeters>NAN</DistanceMeters>
          </Trackpoint>
          <Trackpoint>
            <Time>2022-07-13T05:49:53.000Z</Time>
            <Position>
              <LatitudeDegrees>43.39984129182994365692138671875</LatitudeDegrees>
              <LongitudeDegrees>-3.26868616975843906402587890625</LongitudeDegrees>
            </Position>
            <AltitudeMeters>63.200000762939453125</AltitudeMeters>
            <DistanceMeters>NAN</DistanceMeters>
          </Trackpoint>
          <Trackpoint>
            <Time>2022-07-13T05:50:02.000Z</Time>
            <Position>
              <LatitudeDegrees>43.39977909810841083526611328125</LatitudeDegrees>
              <LongitudeDegrees>-3.26881340704858303070068359375</LongitudeDegrees>
            </Position>
            <AltitudeMeters>63.799999237060546875</AltitudeMeters>
            <DistanceMeters>NAN</DistanceMeters>
          </Trackpoint>
          <Trackpoint>
            <Time>2022-07-13T05:50:05.000Z</Time>
            <Position>
              <LatitudeDegrees>43.399751186370849609375</LatitudeDegrees>
              <LongitudeDegrees>-3.26885380782186985015869140625</LongitudeDegrees>
            </Position>
            <AltitudeMeters>64</AltitudeMeters>
            <DistanceMeters>NAN</DistanceMeters>
          </Trackpoint>
          <Trackpoint>
            <Time>2022-07-13T05:50:06.000Z</Time>
            <Position>
              <LatitudeDegrees>43.39974573813378810882568359375</LatitudeDegrees>
              <LongitudeDegrees>-3.26886889524757862091064453125</LongitudeDegrees>
            </Position>
            <AltitudeMeters>64</AltitudeMeters>
            <DistanceMeters>NAN</DistanceMeters>
          </Trackpoint>
          <Trackpoint>
            <Time>2022-07-13T05:50:07.000Z</Time>
            <Position>
              <LatitudeDegrees>43.39973819442093372344970703125</LatitudeDegrees>
              <LongitudeDegrees>-3.2688840664923191070556640625</LongitudeDegrees>
            </Position>
            <AltitudeMeters>64</AltitudeMeters>
            <DistanceMeters>NAN</DistanceMeters>
          </Trackpoint>
          <Trackpoint>
            <Time>2022-07-13T05:50:10.000Z</Time>
            <Position>
              <LatitudeDegrees>43.3997181616723537445068359375</LatitudeDegrees>
              <LongitudeDegrees>-3.26892589218914508819580078125</LongitudeDegrees>
            </Position>
            <AltitudeMeters>64.1999969482421875</AltitudeMeters>
            <DistanceMeters>NAN</DistanceMeters>
          </Trackpoint>
          <Trackpoint>
            <Time>2022-07-13T05:50:13.000Z</Time>
            <Position>
              <LatitudeDegrees>43.39969879947602748870849609375</LatitudeDegrees>
              <LongitudeDegrees>-3.268971405923366546630859375</LongitudeDegrees>
            </Position>
            <AltitudeMeters>64.40000152587890625</AltitudeMeters>
            <DistanceMeters>NAN</DistanceMeters>
          </Trackpoint>
          <Trackpoint>
            <Time>2022-07-13T05:50:15.000Z</Time>
            <Position>
              <LatitudeDegrees>43.3996856398880481719970703125</LatitudeDegrees>
              <LongitudeDegrees>-3.26899864710867404937744140625</LongitudeDegrees>
            </Position>
            <AltitudeMeters>64.59999847412109375</AltitudeMeters>
            <DistanceMeters>NAN</DistanceMeters>
          </Trackpoint>
          <Trackpoint>
            <Time>2022-07-13T05:50:16.000Z</Time>
            <Position>
              <LatitudeDegrees>43.39968170039355754852294921875</LatitudeDegrees>
              <LongitudeDegrees>-3.26900996267795562744140625</LongitudeDegrees>
            </Position>
            <AltitudeMeters>64.8000030517578125</AltitudeMeters>
            <DistanceMeters>NAN</DistanceMeters>
          </Trackpoint>
          <Trackpoint>
            <Time>2022-07-13T05:50:18.000Z</Time>
            <Position>
              <LatitudeDegrees>43.399668373167514801025390625</LatitudeDegrees>
              <LongitudeDegrees>-3.26903854496777057647705078125</LongitudeDegrees>
            </Position>
            <AltitudeMeters>64.8000030517578125</AltitudeMeters>
            <DistanceMeters>NAN</DistanceMeters>
          </Trackpoint>
          <Trackpoint>
            <Time>2022-07-13T05:50:24.000Z</Time>
            <Position>
              <LatitudeDegrees>43.39962252415716648101806640625</LatitudeDegrees>
              <LongitudeDegrees>-3.2691268064081668853759765625</LongitudeDegrees>
            </Position>
            <AltitudeMeters>65.1999969482421875</AltitudeMeters>
            <DistanceMeters>NAN</DistanceMeters>
          </Trackpoint>
          <Trackpoint>
            <Time>2022-07-13T05:50:26.000Z</Time>
            <Position>
              <LatitudeDegrees>43.3996112085878849029541015625</LatitudeDegrees>
              <LongitudeDegrees>-3.26915304176509380340576171875</LongitudeDegrees>
            </Position>
            <AltitudeMeters>65.1999969482421875</AltitudeMeters>
            <DistanceMeters>NAN</DistanceMeters>
          </Trackpoint>
          <Trackpoint>
            <Time>2022-07-13T05:50:38.000Z</Time>
            <Position>
              <LatitudeDegrees>43.39951850473880767822265625</LatitudeDegrees>
              <LongitudeDegrees>-3.26931774616241455078125</LongitudeDegrees>
            </Position>
            <AltitudeMeters>66.1999969482421875</AltitudeMeters>
            <DistanceMeters>NAN</DistanceMeters>
          </Trackpoint>
          <Trackpoint>
            <Time>2022-07-13T05:50:39.000Z</Time>
            <Position>
              <LatitudeDegrees>43.3995096199214458465576171875</LatitudeDegrees>
              <LongitudeDegrees>-3.26933057047426700592041015625</LongitudeDegrees>
            </Position>
            <AltitudeMeters>66.1999969482421875</AltitudeMeters>
            <DistanceMeters>NAN</DistanceMeters>
          </Trackpoint>
          <Trackpoint>
            <Time>2022-07-13T05:50:49.000Z</Time>
            <Position>
              <LatitudeDegrees>43.3994546346366405487060546875</LatitudeDegrees>
              <LongitudeDegrees>-3.26947130262851715087890625</LongitudeDegrees>
            </Position>
            <AltitudeMeters>67</AltitudeMeters>
            <DistanceMeters>NAN</DistanceMeters>
          </Trackpoint>
          <Trackpoint>
            <Time>2022-07-13T05:50:51.000Z</Time>
            <Position>
              <LatitudeDegrees>43.3994392119348049163818359375</LatitudeDegrees>
              <LongitudeDegrees>-3.2695122063159942626953125</LongitudeDegrees>
            </Position>
            <AltitudeMeters>67.1999969482421875</AltitudeMeters>
            <DistanceMeters>NAN</DistanceMeters>
          </Trackpoint>
          <Trackpoint>
            <Time>2022-07-13T05:50:55.000Z</Time>
            <Position>
              <LatitudeDegrees>43.39941113255918025970458984375</LatitudeDegrees>
              <LongitudeDegrees>-3.26956861652433872222900390625</LongitudeDegrees>
            </Position>
            <AltitudeMeters>67.59999847412109375</AltitudeMeters>
            <DistanceMeters>NAN</DistanceMeters>
          </Trackpoint>
          <Trackpoint>
            <Time>2022-07-13T05:51:01.000Z</Time>
            <Position>
              <LatitudeDegrees>43.39935983531177043914794921875</LatitudeDegrees>
              <LongitudeDegrees>-3.26966098509728908538818359375</LongitudeDegrees>
            </Position>
            <AltitudeMeters>68</AltitudeMeters>
            <DistanceMeters>NAN</DistanceMeters>
          </Trackpoint>
          <Trackpoint>
            <Time>2022-07-13T05:51:05.000Z</Time>
            <Position>
              <LatitudeDegrees>43.39933284558355808258056640625</LatitudeDegrees>
              <LongitudeDegrees>-3.26971429400146007537841796875</LongitudeDegrees>
            </Position>
            <AltitudeMeters>68.1999969482421875</AltitudeMeters>
            <DistanceMeters>NAN</DistanceMeters>
          </Trackpoint>
          <Trackpoint>
            <Time>2022-07-13T05:51:10.000Z</Time>
            <Position>
              <LatitudeDegrees>43.39929319918155670166015625</LatitudeDegrees>
              <LongitudeDegrees>-3.26979207806289196014404296875</LongitudeDegrees>
            </Position>
            <AltitudeMeters>68.59999847412109375</AltitudeMeters>
            <DistanceMeters>NAN</DistanceMeters>
          </Trackpoint>
          <Trackpoint>
            <Time>2022-07-13T05:51:11.000Z</Time>
            <Position>
              <LatitudeDegrees>43.39928456582129001617431640625</LatitudeDegrees>
              <LongitudeDegrees>-3.26981135644018650054931640625</LongitudeDegrees>
            </Position>
            <AltitudeMeters>68.59999847412109375</AltitudeMeters>
            <DistanceMeters>NAN</DistanceMeters>
          </Trackpoint>
          <Trackpoint>
            <Time>2022-07-13T05:51:19.000Z</Time>
            <Position>
              <LatitudeDegrees>43.39925858192145824432373046875</LatitudeDegrees>
              <LongitudeDegrees>-3.26997379772365093231201171875</LongitudeDegrees>
            </Position>
            <AltitudeMeters>69.1999969482421875</AltitudeMeters>
            <DistanceMeters>NAN</DistanceMeters>
          </Trackpoint>
          <Trackpoint>
            <Time>2022-07-13T05:51:22.000Z</Time>
            <Position>
              <LatitudeDegrees>43.39927115477621555328369140625</LatitudeDegrees>
              <LongitudeDegrees>-3.270125091075897216796875</LongitudeDegrees>
            </Position>
            <AltitudeMeters>69</AltitudeMeters>
            <DistanceMeters>NAN</DistanceMeters>
          </Trackpoint>
          <Trackpoint>
            <Time>2022-07-13T05:51:23.000Z</Time>
            <Position>
              <LatitudeDegrees>43.399284817278385162353515625</LatitudeDegrees>
              <LongitudeDegrees>-3.27019013464450836181640625</LongitudeDegrees>
            </Position>
            <AltitudeMeters>68.8000030517578125</AltitudeMeters>
            <DistanceMeters>NAN</DistanceMeters>
          </Trackpoint>
          <Trackpoint>
            <Time>2022-07-13T05:51:26.000Z</Time>
            <Position>
              <LatitudeDegrees>43.399317003786563873291015625</LatitudeDegrees>
              <LongitudeDegrees>-3.27042474411427974700927734375</LongitudeDegrees>
            </Position>
            <AltitudeMeters>67.59999847412109375</AltitudeMeters>
            <DistanceMeters>NAN</DistanceMeters>
          </Trackpoint>
          <Trackpoint>
            <Time>2022-07-13T05:51:27.000Z</Time>
            <Position>
              <LatitudeDegrees>43.3993154950439929962158203125</LatitudeDegrees>
              <LongitudeDegrees>-3.2705192081630229949951171875</LongitudeDegrees>
            </Position>
            <AltitudeMeters>67.1999969482421875</AltitudeMeters>
            <DistanceMeters>NAN</DistanceMeters>
          </Trackpoint>
          <Trackpoint>
            <Time>2022-07-13T05:51:30.000Z</Time>
            <Position>
              <LatitudeDegrees>43.399286158382892608642578125</LatitudeDegrees>
              <LongitudeDegrees>-3.27084082178771495819091796875</LongitudeDegrees>
            </Position>
            <AltitudeMeters>65.59999847412109375</AltitudeMeters>
            <DistanceMeters>NAN</DistanceMeters>
          </Trackpoint>
          <Trackpoint>
            <Time>2022-07-13T05:51:32.000Z</Time>
            <Position>
              <LatitudeDegrees>43.3992678858339786529541015625</LatitudeDegrees>
              <LongitudeDegrees>-3.27105137519538402557373046875</LongitudeDegrees>
            </Position>
            <AltitudeMeters>64.8000030517578125</AltitudeMeters>
            <DistanceMeters>NAN</DistanceMeters>
          </Trackpoint>
          <Trackpoint>
            <Time>2022-07-13T05:51:34.000Z</Time>
            <Position>
              <LatitudeDegrees>43.3992410637438297271728515625</LatitudeDegrees>
              <LongitudeDegrees>-3.2712615095078945159912109375</LongitudeDegrees>
            </Position>
            <AltitudeMeters>64.1999969482421875</AltitudeMeters>
            <DistanceMeters>NAN</DistanceMeters>
          </Trackpoint>
          <Trackpoint>
            <Time>2022-07-13T05:51:36.000Z</Time>
            <Position>
              <LatitudeDegrees>43.39922555722296237945556640625</LatitudeDegrees>
              <LongitudeDegrees>-3.27147013507783412933349609375</LongitudeDegrees>
            </Position>
            <AltitudeMeters>63.59999847412109375</AltitudeMeters>
            <DistanceMeters>NAN</DistanceMeters>
          </Trackpoint>
          <Trackpoint>
            <Time>2022-07-13T05:51:37.000Z</Time>
            <Position>
              <LatitudeDegrees>43.39922614395618438720703125</LatitudeDegrees>
              <LongitudeDegrees>-3.2715763337910175323486328125</LongitudeDegrees>
            </Position>
            <AltitudeMeters>63.200000762939453125</AltitudeMeters>
            <DistanceMeters>NAN</DistanceMeters>
          </Trackpoint>
          <Trackpoint>
            <Time>2022-07-13T05:51:38.000Z</Time>
            <Position>
              <LatitudeDegrees>43.399231843650341033935546875</LatitudeDegrees>
              <LongitudeDegrees>-3.2716977037489414215087890625</LongitudeDegrees>
            </Position>
            <AltitudeMeters>62.799999237060546875</AltitudeMeters>
            <DistanceMeters>NAN</DistanceMeters>
          </Trackpoint>
          <Trackpoint>
            <Time>2022-07-13T05:51:41.000Z</Time>
            <Position>
              <LatitudeDegrees>43.39924097992479801177978515625</LatitudeDegrees>
              <LongitudeDegrees>-3.27196802012622356414794921875</LongitudeDegrees>
            </Position>
            <AltitudeMeters>62</AltitudeMeters>
            <DistanceMeters>NAN</DistanceMeters>
          </Trackpoint>
          <Trackpoint>
            <Time>2022-07-13T05:51:42.000Z</Time>
            <Position>
              <LatitudeDegrees>43.3992387168109416961669921875</LatitudeDegrees>
              <LongitudeDegrees>-3.2720634900033473968505859375</LongitudeDegrees>
            </Position>
            <AltitudeMeters>61</AltitudeMeters>
            <DistanceMeters>NAN</DistanceMeters>
          </Trackpoint>
          <Trackpoint>
            <Time>2022-07-13T05:51:43.000Z</Time>
            <Position>
              <LatitudeDegrees>43.39923460967838764190673828125</LatitudeDegrees>
              <LongitudeDegrees>-3.2721577025949954986572265625</LongitudeDegrees>
            </Position>
            <AltitudeMeters>60.40000152587890625</AltitudeMeters>
            <DistanceMeters>NAN</DistanceMeters>
          </Trackpoint>
          <Trackpoint>
            <Time>2022-07-13T05:51:44.000Z</Time>
            <Position>
              <LatitudeDegrees>43.39923511259257793426513671875</LatitudeDegrees>
              <LongitudeDegrees>-3.27226775698363780975341796875</LongitudeDegrees>
            </Position>
            <AltitudeMeters>60.200000762939453125</AltitudeMeters>
            <DistanceMeters>NAN</DistanceMeters>
          </Trackpoint>
          <Trackpoint>
            <Time>2022-07-13T05:51:46.000Z</Time>
            <Position>
              <LatitudeDegrees>43.3992316760122776031494140625</LatitudeDegrees>
              <LongitudeDegrees>-3.27244327403604984283447265625</LongitudeDegrees>
            </Position>
            <AltitudeMeters>60</AltitudeMeters>
            <DistanceMeters>NAN</DistanceMeters>
          </Trackpoint>
          <Trackpoint>
            <Time>2022-07-13T05:51:48.000Z</Time>
            <Position>
              <LatitudeDegrees>43.39920225553214550018310546875</LatitudeDegrees>
              <LongitudeDegrees>-3.2725925557315349578857421875</LongitudeDegrees>
            </Position>
            <AltitudeMeters>59.799999237060546875</AltitudeMeters>
            <DistanceMeters>NAN</DistanceMeters>
          </Trackpoint>
          <Trackpoint>
            <Time>2022-07-13T05:51:52.000Z</Time>
            <Position>
              <LatitudeDegrees>43.399135954678058624267578125</LatitudeDegrees>
              <LongitudeDegrees>-3.2728869281709194183349609375</LongitudeDegrees>
            </Position>
            <AltitudeMeters>59.799999237060546875</AltitudeMeters>
            <DistanceMeters>NAN</DistanceMeters>
          </Trackpoint>
          <Trackpoint>
            <Time>2022-07-13T05:51:53.000Z</Time>
            <Position>
              <LatitudeDegrees>43.39912044815719127655029296875</LatitudeDegrees>
              <LongitudeDegrees>-3.27295809052884578704833984375</LongitudeDegrees>
            </Position>
            <AltitudeMeters>59.799999237060546875</AltitudeMeters>
            <DistanceMeters>NAN</DistanceMeters>
          </Trackpoint>
          <Trackpoint>
            <Time>2022-07-13T05:51:55.000Z</Time>
            <Position>
              <LatitudeDegrees>43.399082310497760772705078125</LatitudeDegrees>
              <LongitudeDegrees>-3.27309153042733669281005859375</LongitudeDegrees>
            </Position>
            <AltitudeMeters>59.799999237060546875</AltitudeMeters>
            <DistanceMeters>NAN</DistanceMeters>
          </Trackpoint>
          <Trackpoint>
            <Time>2022-07-13T05:51:57.000Z</Time>
            <Position>
              <LatitudeDegrees>43.3990385569632053375244140625</LatitudeDegrees>
              <LongitudeDegrees>-3.27318674884736537933349609375</LongitudeDegrees>
            </Position>
            <AltitudeMeters>59.799999237060546875</AltitudeMeters>
            <DistanceMeters>NAN</DistanceMeters>
          </Trackpoint>
          <Trackpoint>
            <Time>2022-07-13T05:51:58.000Z</Time>
            <Position>
              <LatitudeDegrees>43.3990214578807353973388671875</LatitudeDegrees>
              <LongitudeDegrees>-3.27321164309978485107421875</LongitudeDegrees>
            </Position>
            <AltitudeMeters>59.799999237060546875</AltitudeMeters>
            <DistanceMeters>NAN</DistanceMeters>
          </Trackpoint>
          <Trackpoint>
            <Time>2022-07-13T05:52:01.000Z</Time>
            <Position>
              <LatitudeDegrees>43.39896370656788349151611328125</LatitudeDegrees>
              <LongitudeDegrees>-3.27328062616288661956787109375</LongitudeDegrees>
            </Position>
            <AltitudeMeters>60</AltitudeMeters>
            <DistanceMeters>NAN</DistanceMeters>
          </Trackpoint>
          <Trackpoint>
            <Time>2022-07-13T05:52:04.000Z</Time>
            <Position>
              <LatitudeDegrees>43.39892229996621608734130859375</LatitudeDegrees>
              <LongitudeDegrees>-3.27333234250545501708984375</LongitudeDegrees>
            </Position>
            <AltitudeMeters>60.59999847412109375</AltitudeMeters>
            <DistanceMeters>NAN</DistanceMeters>
          </Trackpoint>
          <Trackpoint>
            <Time>2022-07-13T05:52:08.000Z</Time>
            <Position>
              <LatitudeDegrees>43.39887485839426517486572265625</LatitudeDegrees>
              <LongitudeDegrees>-3.2734099589288234710693359375</LongitudeDegrees>
            </Position>
            <AltitudeMeters>61</AltitudeMeters>
            <DistanceMeters>NAN</DistanceMeters>
          </Trackpoint>
          <Trackpoint>
            <Time>2022-07-13T05:52:11.000Z</Time>
            <Position>
              <LatitudeDegrees>43.39884066022932529449462890625</LatitudeDegrees>
              <LongitudeDegrees>-3.27347374521195888519287109375</LongitudeDegrees>
            </Position>
            <AltitudeMeters>61.40000152587890625</AltitudeMeters>
            <DistanceMeters>NAN</DistanceMeters>
          </Trackpoint>
          <Trackpoint>
            <Time>2022-07-13T05:52:15.000Z</Time>
            <Position>
              <LatitudeDegrees>43.39879539795219898223876953125</LatitudeDegrees>
              <LongitudeDegrees>-3.27354683540761470794677734375</LongitudeDegrees>
            </Position>
            <AltitudeMeters>61.59999847412109375</AltitudeMeters>
            <DistanceMeters>NAN</DistanceMeters>
          </Trackpoint>
          <Trackpoint>
            <Time>2022-07-13T05:52:17.000Z</Time>
            <Position>
              <LatitudeDegrees>43.3987622894346714019775390625</LatitudeDegrees>
              <LongitudeDegrees>-3.27358991838991641998291015625</LongitudeDegrees>
            </Position>
            <AltitudeMeters>61.799999237060546875</AltitudeMeters>
            <DistanceMeters>NAN</DistanceMeters>
          </Trackpoint>
          <Trackpoint>
            <Time>2022-07-13T05:52:19.000Z</Time>
            <Position>
              <LatitudeDegrees>43.3987448550760746002197265625</LatitudeDegrees>
              <LongitudeDegrees>-3.27363082207739353179931640625</LongitudeDegrees>
            </Position>
            <AltitudeMeters>61.799999237060546875</AltitudeMeters>
            <DistanceMeters>NAN</DistanceMeters>
          </Trackpoint>
          <Trackpoint>
            <Time>2022-07-13T05:52:22.000Z</Time>
            <Position>
              <LatitudeDegrees>43.39872415177524089813232421875</LatitudeDegrees>
              <LongitudeDegrees>-3.27370508573949337005615234375</LongitudeDegrees>
            </Position>
            <AltitudeMeters>62</AltitudeMeters>
            <DistanceMeters>NAN</DistanceMeters>
          </Trackpoint>
          <Trackpoint>
            <Time>2022-07-13T05:52:26.000Z</Time>
            <Position>
              <LatitudeDegrees>43.39871526695787906646728515625</LatitudeDegrees>
              <LongitudeDegrees>-3.2737995497882366180419921875</LongitudeDegrees>
            </Position>
            <AltitudeMeters>62.59999847412109375</AltitudeMeters>
            <DistanceMeters>NAN</DistanceMeters>
          </Trackpoint>
          <Trackpoint>
            <Time>2022-07-13T05:52:31.000Z</Time>
            <Position>
              <LatitudeDegrees>43.39874795638024806976318359375</LatitudeDegrees>
              <LongitudeDegrees>-3.27389284037053585052490234375</LongitudeDegrees>
            </Position>
            <AltitudeMeters>63.200000762939453125</AltitudeMeters>
            <DistanceMeters>NAN</DistanceMeters>
          </Trackpoint>
          <Trackpoint>
            <Time>2022-07-13T05:52:33.000Z</Time>
            <Position>
              <LatitudeDegrees>43.398779220879077911376953125</LatitudeDegrees>
              <LongitudeDegrees>-3.27393625862896442413330078125</LongitudeDegrees>
            </Position>
            <AltitudeMeters>63.40000152587890625</AltitudeMeters>
            <DistanceMeters>NAN</DistanceMeters>
          </Trackpoint>
          <Trackpoint>
            <Time>2022-07-13T05:52:39.000Z</Time>
            <Position>
              <LatitudeDegrees>43.39881568215787410736083984375</LatitudeDegrees>
              <LongitudeDegrees>-3.274079672992229461669921875</LongitudeDegrees>
            </Position>
            <AltitudeMeters>63.59999847412109375</AltitudeMeters>
            <DistanceMeters>NAN</DistanceMeters>
          </Trackpoint>
          <Trackpoint>
            <Time>2022-07-13T05:52:43.000Z</Time>
            <Position>
              <LatitudeDegrees>43.3988410793244838714599609375</LatitudeDegrees>
              <LongitudeDegrees>-3.2742511667311191558837890625</LongitudeDegrees>
            </Position>
            <AltitudeMeters>63.200000762939453125</AltitudeMeters>
            <DistanceMeters>NAN</DistanceMeters>
          </Trackpoint>
          <Trackpoint>
            <Time>2022-07-13T05:52:49.000Z</Time>
            <Position>
              <LatitudeDegrees>43.39885532855987548828125</LatitudeDegrees>
              <LongitudeDegrees>-3.2744872011244297027587890625</LongitudeDegrees>
            </Position>
            <AltitudeMeters>63.40000152587890625</AltitudeMeters>
            <DistanceMeters>NAN</DistanceMeters>
          </Trackpoint>
          <Trackpoint>
            <Time>2022-07-13T05:52:56.000Z</Time>
            <Position>
              <LatitudeDegrees>43.39889765717089176177978515625</LatitudeDegrees>
              <LongitudeDegrees>-3.2746873609721660614013671875</LongitudeDegrees>
            </Position>
            <AltitudeMeters>63.799999237060546875</AltitudeMeters>
            <DistanceMeters>NAN</DistanceMeters>
          </Trackpoint>
          <Trackpoint>
            <Time>2022-07-13T05:52:58.000Z</Time>
            <Position>
              <LatitudeDegrees>43.3989285863935947418212890625</LatitudeDegrees>
              <LongitudeDegrees>-3.27470362186431884765625</LongitudeDegrees>
            </Position>
            <AltitudeMeters>63.799999237060546875</AltitudeMeters>
            <DistanceMeters>NAN</DistanceMeters>
          </Trackpoint>
          <Trackpoint>
            <Time>2022-07-13T05:53:00.000Z</Time>
            <Position>
              <LatitudeDegrees>43.39896739460527896881103515625</LatitudeDegrees>
              <LongitudeDegrees>-3.27469213865697383880615234375</LongitudeDegrees>
            </Position>
            <AltitudeMeters>63.799999237060546875</AltitudeMeters>
            <DistanceMeters>NAN</DistanceMeters>
          </Trackpoint>
          <Trackpoint>
            <Time>2022-07-13T05:53:07.000Z</Time>
            <Position>
              <LatitudeDegrees>43.3991679735481739044189453125</LatitudeDegrees>
              <LongitudeDegrees>-3.2746702618896961212158203125</LongitudeDegrees>
            </Position>
            <AltitudeMeters>63.40000152587890625</AltitudeMeters>
            <DistanceMeters>NAN</DistanceMeters>
          </Trackpoint>
          <Trackpoint>
            <Time>2022-07-13T05:53:14.000Z</Time>
            <Position>
              <LatitudeDegrees>43.39935882948338985443115234375</LatitudeDegrees>
              <LongitudeDegrees>-3.27473673038184642791748046875</LongitudeDegrees>
            </Position>
            <AltitudeMeters>63.200000762939453125</AltitudeMeters>
            <DistanceMeters>NAN</DistanceMeters>
          </Trackpoint>
          <Trackpoint>
            <Time>2022-07-13T05:53:19.000Z</Time>
            <Position>
              <LatitudeDegrees>43.39945404790341854095458984375</LatitudeDegrees>
              <LongitudeDegrees>-3.27477327547967433929443359375</LongitudeDegrees>
            </Position>
            <AltitudeMeters>63.200000762939453125</AltitudeMeters>
            <DistanceMeters>NAN</DistanceMeters>
          </Trackpoint>
          <Trackpoint>
            <Time>2022-07-13T05:53:26.000Z</Time>
            <Position>
              <LatitudeDegrees>43.39957256801426410675048828125</LatitudeDegrees>
              <LongitudeDegrees>-3.27477998100221157073974609375</LongitudeDegrees>
            </Position>
            <AltitudeMeters>64</AltitudeMeters>
            <DistanceMeters>NAN</DistanceMeters>
          </Trackpoint>
          <Trackpoint>
            <Time>2022-07-13T05:53:30.000Z</Time>
            <Position>
              <LatitudeDegrees>43.39961632154881954193115234375</LatitudeDegrees>
              <LongitudeDegrees>-3.2747835852205753326416015625</LongitudeDegrees>
            </Position>
            <AltitudeMeters>64.1999969482421875</AltitudeMeters>
            <DistanceMeters>NAN</DistanceMeters>
          </Trackpoint>
          <Trackpoint>
            <Time>2022-07-13T05:53:34.000Z</Time>
            <Position>
              <LatitudeDegrees>43.39966560713946819305419921875</LatitudeDegrees>
              <LongitudeDegrees>-3.274792470037937164306640625</LongitudeDegrees>
            </Position>
            <AltitudeMeters>64.59999847412109375</AltitudeMeters>
            <DistanceMeters>NAN</DistanceMeters>
          </Trackpoint>
          <Trackpoint>
            <Time>2022-07-13T05:53:40.000Z</Time>
            <Position>
              <LatitudeDegrees>43.399770297110080718994140625</LatitudeDegrees>
              <LongitudeDegrees>-3.27476925216615200042724609375</LongitudeDegrees>
            </Position>
            <AltitudeMeters>64.40000152587890625</AltitudeMeters>
            <DistanceMeters>NAN</DistanceMeters>
          </Trackpoint>
          <Trackpoint>
            <Time>2022-07-13T05:53:44.000Z</Time>
            <Position>
              <LatitudeDegrees>43.39982603676617145538330078125</LatitudeDegrees>
              <LongitudeDegrees>-3.27472851611673831939697265625</LongitudeDegrees>
            </Position>
            <AltitudeMeters>64.40000152587890625</AltitudeMeters>
            <DistanceMeters>NAN</DistanceMeters>
          </Trackpoint>
          <Trackpoint>
            <Time>2022-07-13T05:53:46.000Z</Time>
            <Position>
              <LatitudeDegrees>43.39985512197017669677734375</LatitudeDegrees>
              <LongitudeDegrees>-3.27472147531807422637939453125</LongitudeDegrees>
            </Position>
            <AltitudeMeters>64.40000152587890625</AltitudeMeters>
            <DistanceMeters>NAN</DistanceMeters>
          </Trackpoint>
          <Trackpoint>
            <Time>2022-07-13T05:53:50.000Z</Time>
            <Position>
              <LatitudeDegrees>43.39992544613778591156005859375</LatitudeDegrees>
              <LongitudeDegrees>-3.2746995985507965087890625</LongitudeDegrees>
            </Position>
            <AltitudeMeters>64.59999847412109375</AltitudeMeters>
            <DistanceMeters>NAN</DistanceMeters>
          </Trackpoint>
          <Trackpoint>
            <Time>2022-07-13T05:53:53.000Z</Time>
            <Position>
              <LatitudeDegrees>43.39997741393744945526123046875</LatitudeDegrees>
              <LongitudeDegrees>-3.2746726088225841522216796875</LongitudeDegrees>
            </Position>
            <AltitudeMeters>64.8000030517578125</AltitudeMeters>
            <DistanceMeters>NAN</DistanceMeters>
          </Trackpoint>
          <Trackpoint>
            <Time>2022-07-13T05:53:54.000Z</Time>
            <Position>
              <LatitudeDegrees>43.39998965151607990264892578125</LatitudeDegrees>
              <LongitudeDegrees>-3.274668417870998382568359375</LongitudeDegrees>
            </Position>
            <AltitudeMeters>64.8000030517578125</AltitudeMeters>
            <DistanceMeters>NAN</DistanceMeters>
          </Trackpoint>
          <Trackpoint>
            <Time>2022-07-13T05:53:56.000Z</Time>
            <Position>
              <LatitudeDegrees>43.399998955428600311279296875</LatitudeDegrees>
              <LongitudeDegrees>-3.2746669091284275054931640625</LongitudeDegrees>
            </Position>
            <AltitudeMeters>64.8000030517578125</AltitudeMeters>
            <DistanceMeters>NAN</DistanceMeters>
          </Trackpoint>
          <Trackpoint>
            <Time>2022-07-13T05:53:57.000Z</Time>
            <Position>
              <LatitudeDegrees>43.4000024758279323577880859375</LatitudeDegrees>
              <LongitudeDegrees>-3.2746674120426177978515625</LongitudeDegrees>
            </Position>
            <AltitudeMeters>65</AltitudeMeters>
            <DistanceMeters>NAN</DistanceMeters>
          </Trackpoint>
          <Trackpoint>
            <Time>2022-07-13T05:53:59.000Z</Time>
            <Position>
              <LatitudeDegrees>43.4000024758279323577880859375</LatitudeDegrees>
              <LongitudeDegrees>-3.2746674120426177978515625</LongitudeDegrees>
            </Position>
            <AltitudeMeters>65.1999969482421875</AltitudeMeters>
            <DistanceMeters>NAN</DistanceMeters>
          </Trackpoint>
          <Trackpoint>
            <Time>2022-07-13T05:55:40.000Z</Time>
            <Position>
              <LatitudeDegrees>43.400343954563140869140625</LatitudeDegrees>
              <LongitudeDegrees>-3.27446029521524906158447265625</LongitudeDegrees>
            </Position>
            <AltitudeMeters>68.1999969482421875</AltitudeMeters>
            <DistanceMeters>NAN</DistanceMeters>
          </Trackpoint>
          <Trackpoint>
            <Time>2022-07-13T05:55:43.000Z</Time>
            <Position>
              <LatitudeDegrees>43.40042031370103359222412109375</LatitudeDegrees>
              <LongitudeDegrees>-3.2743830978870391845703125</LongitudeDegrees>
            </Position>
            <AltitudeMeters>67.40000152587890625</AltitudeMeters>
            <DistanceMeters>NAN</DistanceMeters>
          </Trackpoint>
          <Trackpoint>
            <Time>2022-07-13T05:55:44.000Z</Time>
            <Position>
              <LatitudeDegrees>43.40044059790670871734619140625</LatitudeDegrees>
              <LongitudeDegrees>-3.2743762247264385223388671875</LongitudeDegrees>
            </Position>
            <AltitudeMeters>67.1999969482421875</AltitudeMeters>
            <DistanceMeters>NAN</DistanceMeters>
          </Trackpoint>
          <Trackpoint>
            <Time>2022-07-13T05:55:49.000Z</Time>
            <Position>
              <LatitudeDegrees>43.400528691709041595458984375</LatitudeDegrees>
              <LongitudeDegrees>-3.27433322556316852569580078125</LongitudeDegrees>
            </Position>
            <AltitudeMeters>66.40000152587890625</AltitudeMeters>
            <DistanceMeters>NAN</DistanceMeters>
          </Trackpoint>
          <Trackpoint>
            <Time>2022-07-13T05:55:52.000Z</Time>
            <Position>
              <LatitudeDegrees>43.40056951157748699188232421875</LatitudeDegrees>
              <LongitudeDegrees>-3.27429232187569141387939453125</LongitudeDegrees>
            </Position>
            <AltitudeMeters>66.1999969482421875</AltitudeMeters>
            <DistanceMeters>NAN</DistanceMeters>
          </Trackpoint>
          <Trackpoint>
            <Time>2022-07-13T05:55:55.000Z</Time>
            <Position>
              <LatitudeDegrees>43.40060639195144176483154296875</LatitudeDegrees>
              <LongitudeDegrees>-3.27425611205399036407470703125</LongitudeDegrees>
            </Position>
            <AltitudeMeters>66.1999969482421875</AltitudeMeters>
            <DistanceMeters>NAN</DistanceMeters>
          </Trackpoint>
          <Trackpoint>
            <Time>2022-07-13T05:55:56.000Z</Time>
            <Position>
              <LatitudeDegrees>43.4006254188716411590576171875</LatitudeDegrees>
              <LongitudeDegrees>-3.274248652160167694091796875</LongitudeDegrees>
            </Position>
            <AltitudeMeters>66</AltitudeMeters>
            <DistanceMeters>NAN</DistanceMeters>
          </Trackpoint>
          <Trackpoint>
            <Time>2022-07-13T05:55:57.000Z</Time>
            <Position>
              <LatitudeDegrees>43.40063673444092273712158203125</LatitudeDegrees>
              <LongitudeDegrees>-3.27424119226634502410888671875</LongitudeDegrees>
            </Position>
            <AltitudeMeters>65.8000030517578125</AltitudeMeters>
            <DistanceMeters>NAN</DistanceMeters>
          </Trackpoint>
          <Trackpoint>
            <Time>2022-07-13T05:56:01.000Z</Time>
            <Position>
              <LatitudeDegrees>43.4006483852863311767578125</LatitudeDegrees>
              <LongitudeDegrees>-3.27421889640390872955322265625</LongitudeDegrees>
            </Position>
            <AltitudeMeters>65.40000152587890625</AltitudeMeters>
            <DistanceMeters>NAN</DistanceMeters>
          </Trackpoint>
          <Trackpoint>
            <Time>2022-07-13T05:56:03.000Z</Time>
            <Position>
              <LatitudeDegrees>43.40066271834075450897216796875</LatitudeDegrees>
              <LongitudeDegrees>-3.27417832799255847930908203125</LongitudeDegrees>
            </Position>
            <AltitudeMeters>65.1999969482421875</AltitudeMeters>
            <DistanceMeters>NAN</DistanceMeters>
          </Trackpoint>
          <Trackpoint>
            <Time>2022-07-13T05:56:04.000Z</Time>
            <Position>
              <LatitudeDegrees>43.400670178234577178955078125</LatitudeDegrees>
              <LongitudeDegrees>-3.27416240237653255462646484375</LongitudeDegrees>
            </Position>
            <AltitudeMeters>65</AltitudeMeters>
            <DistanceMeters>NAN</DistanceMeters>
          </Trackpoint>
          <Trackpoint>
            <Time>2022-07-13T05:56:07.000Z</Time>
            <Position>
              <LatitudeDegrees>43.40072675608098506927490234375</LatitudeDegrees>
              <LongitudeDegrees>-3.27410121448338031768798828125</LongitudeDegrees>
            </Position>
            <AltitudeMeters>64.40000152587890625</AltitudeMeters>
            <DistanceMeters>NAN</DistanceMeters>
          </Trackpoint>
          <Trackpoint>
            <Time>2022-07-13T05:56:08.000Z</Time>
            <Position>
              <LatitudeDegrees>43.40074963867664337158203125</LatitudeDegrees>
              <LongitudeDegrees>-3.2740848697721958160400390625</LongitudeDegrees>
            </Position>
            <AltitudeMeters>64.1999969482421875</AltitudeMeters>
            <DistanceMeters>NAN</DistanceMeters>
          </Trackpoint>
          <Trackpoint>
            <Time>2022-07-13T05:56:09.000Z</Time>
            <Position>
              <LatitudeDegrees>43.4007648937404155731201171875</LatitudeDegrees>
              <LongitudeDegrees>-3.27407606877386569976806640625</LongitudeDegrees>
            </Position>
            <AltitudeMeters>64</AltitudeMeters>
            <DistanceMeters>NAN</DistanceMeters>
          </Trackpoint>
          <Trackpoint>
            <Time>2022-07-13T05:56:13.000Z</Time>
            <Position>
              <LatitudeDegrees>43.4008242376148700714111328125</LatitudeDegrees>
              <LongitudeDegrees>-3.27402829192578792572021484375</LongitudeDegrees>
            </Position>
            <AltitudeMeters>63.200000762939453125</AltitudeMeters>
            <DistanceMeters>NAN</DistanceMeters>
          </Trackpoint>
          <Trackpoint>
            <Time>2022-07-13T05:56:14.000Z</Time>
            <Position>
              <LatitudeDegrees>43.4008423425257205963134765625</LatitudeDegrees>
              <LongitudeDegrees>-3.27400230802595615386962890625</LongitudeDegrees>
            </Position>
            <AltitudeMeters>63</AltitudeMeters>
            <DistanceMeters>NAN</DistanceMeters>
          </Trackpoint>
          <Trackpoint>
            <Time>2022-07-13T05:56:19.000Z</Time>
            <Position>
              <LatitudeDegrees>43.40089179575443267822265625</LatitudeDegrees>
              <LongitudeDegrees>-3.2739728875458240509033203125</LongitudeDegrees>
            </Position>
            <AltitudeMeters>61.799999237060546875</AltitudeMeters>
            <DistanceMeters>NAN</DistanceMeters>
          </Trackpoint>
          <Trackpoint>
            <Time>2022-07-13T05:56:22.000Z</Time>
            <Position>
              <LatitudeDegrees>43.4009355492889881134033203125</LatitudeDegrees>
              <LongitudeDegrees>-3.27396324835717678070068359375</LongitudeDegrees>
            </Position>
            <AltitudeMeters>61.200000762939453125</AltitudeMeters>
            <DistanceMeters>NAN</DistanceMeters>
          </Trackpoint>
          <Trackpoint>
            <Time>2022-07-13T05:56:24.000Z</Time>
            <Position>
              <LatitudeDegrees>43.40096564032137393951416015625</LatitudeDegrees>
              <LongitudeDegrees>-3.273960314691066741943359375</LongitudeDegrees>
            </Position>
            <AltitudeMeters>60.799999237060546875</AltitudeMeters>
            <DistanceMeters>NAN</DistanceMeters>
          </Trackpoint>
          <Trackpoint>
            <Time>2022-07-13T05:56:25.000Z</Time>
            <Position>
              <LatitudeDegrees>43.4009782969951629638671875</LatitudeDegrees>
              <LongitudeDegrees>-3.27395788393914699554443359375</LongitudeDegrees>
            </Position>
            <AltitudeMeters>60.799999237060546875</AltitudeMeters>
            <DistanceMeters>NAN</DistanceMeters>
          </Trackpoint>
          <Trackpoint>
            <Time>2022-07-13T05:56:28.000Z</Time>
            <Position>
              <LatitudeDegrees>43.401002772152423858642578125</LatitudeDegrees>
              <LongitudeDegrees>-3.27395603992044925689697265625</LongitudeDegrees>
            </Position>
            <AltitudeMeters>60.40000152587890625</AltitudeMeters>
            <DistanceMeters>NAN</DistanceMeters>
          </Trackpoint>
          <Trackpoint>
            <Time>2022-07-13T05:56:31.000Z</Time>
            <Position>
              <LatitudeDegrees>43.40104225091636180877685546875</LatitudeDegrees>
              <LongitudeDegrees>-3.27393047511577606201171875</LongitudeDegrees>
            </Position>
            <AltitudeMeters>60</AltitudeMeters>
            <DistanceMeters>NAN</DistanceMeters>
          </Trackpoint>
          <Trackpoint>
            <Time>2022-07-13T05:56:32.000Z</Time>
            <Position>
              <LatitudeDegrees>43.40105884708464145660400390625</LatitudeDegrees>
              <LongitudeDegrees>-3.27391840517520904541015625</LongitudeDegrees>
            </Position>
            <AltitudeMeters>59.799999237060546875</AltitudeMeters>
            <DistanceMeters>NAN</DistanceMeters>
          </Trackpoint>
          <Trackpoint>
            <Time>2022-07-13T05:56:34.000Z</Time>
            <Position>
              <LatitudeDegrees>43.4010880999267101287841796875</LatitudeDegrees>
              <LongitudeDegrees>-3.273895941674709320068359375</LongitudeDegrees>
            </Position>
            <AltitudeMeters>59.40000152587890625</AltitudeMeters>
            <DistanceMeters>NAN</DistanceMeters>
          </Trackpoint>
          <Trackpoint>
            <Time>2022-07-13T05:56:35.000Z</Time>
            <Position>
              <LatitudeDegrees>43.40109807439148426055908203125</LatitudeDegrees>
              <LongitudeDegrees>-3.27389552257955074310302734375</LongitudeDegrees>
            </Position>
            <AltitudeMeters>59.40000152587890625</AltitudeMeters>
            <DistanceMeters>NAN</DistanceMeters>
          </Trackpoint>
          <Trackpoint>
            <Time>2022-07-13T05:56:40.000Z</Time>
            <Position>
              <LatitudeDegrees>43.401158340275287628173828125</LatitudeDegrees>
              <LongitudeDegrees>-3.27389200218021869659423828125</LongitudeDegrees>
            </Position>
            <AltitudeMeters>58.799999237060546875</AltitudeMeters>
            <DistanceMeters>NAN</DistanceMeters>
          </Trackpoint>
          <Trackpoint>
            <Time>2022-07-13T05:56:41.000Z</Time>
            <Position>
              <LatitudeDegrees>43.4011722542345523834228515625</LatitudeDegrees>
              <LongitudeDegrees>-3.2738900743424892425537109375</LongitudeDegrees>
            </Position>
            <AltitudeMeters>58.59999847412109375</AltitudeMeters>
            <DistanceMeters>NAN</DistanceMeters>
          </Trackpoint>
          <Trackpoint>
            <Time>2022-07-13T05:56:45.000Z</Time>
            <Position>
              <LatitudeDegrees>43.4011973999440670013427734375</LatitudeDegrees>
              <LongitudeDegrees>-3.2738833688199520111083984375</LongitudeDegrees>
            </Position>
            <AltitudeMeters>58.40000152587890625</AltitudeMeters>
            <DistanceMeters>NAN</DistanceMeters>
          </Trackpoint>
          <Trackpoint>
            <Time>2022-07-13T05:56:47.000Z</Time>
            <Position>
              <LatitudeDegrees>43.4012223780155181884765625</LatitudeDegrees>
              <LongitudeDegrees>-3.2738868892192840576171875</LongitudeDegrees>
            </Position>
            <AltitudeMeters>58.200000762939453125</AltitudeMeters>
            <DistanceMeters>NAN</DistanceMeters>
          </Trackpoint>
          <Trackpoint>
            <Time>2022-07-13T05:56:56.000Z</Time>
            <Position>
              <LatitudeDegrees>43.40133578516542911529541015625</LatitudeDegrees>
              <LongitudeDegrees>-3.273930810391902923583984375</LongitudeDegrees>
            </Position>
            <AltitudeMeters>57.59999847412109375</AltitudeMeters>
            <DistanceMeters>NAN</DistanceMeters>
          </Trackpoint>
          <Trackpoint>
            <Time>2022-07-13T05:57:02.000Z</Time>
            <Position>
              <LatitudeDegrees>43.401368223130702972412109375</LatitudeDegrees>
              <LongitudeDegrees>-3.27399057336151599884033203125</LongitudeDegrees>
            </Position>
            <AltitudeMeters>56.799999237060546875</AltitudeMeters>
            <DistanceMeters>NAN</DistanceMeters>
          </Trackpoint>
          <Trackpoint>
            <Time>2022-07-13T05:57:03.000Z</Time>
            <Position>
              <LatitudeDegrees>43.401368223130702972412109375</LatitudeDegrees>
              <LongitudeDegrees>-3.27399057336151599884033203125</LongitudeDegrees>
            </Position>
            <AltitudeMeters>56.59999847412109375</AltitudeMeters>
            <DistanceMeters>NAN</DistanceMeters>
          </Trackpoint>
          <Trackpoint>
            <Time>2022-07-13T05:57:11.000Z</Time>
            <Position>
              <LatitudeDegrees>43.4014877490699291229248046875</LatitudeDegrees>
              <LongitudeDegrees>-3.2739940099418163299560546875</LongitudeDegrees>
            </Position>
            <AltitudeMeters>55.799999237060546875</AltitudeMeters>
            <DistanceMeters>NAN</DistanceMeters>
          </Trackpoint>
          <Trackpoint>
            <Time>2022-07-13T05:57:13.000Z</Time>
            <Position>
              <LatitudeDegrees>43.40152538381516933441162109375</LatitudeDegrees>
              <LongitudeDegrees>-3.27402376569807529449462890625</LongitudeDegrees>
            </Position>
            <AltitudeMeters>55.799999237060546875</AltitudeMeters>
            <DistanceMeters>NAN</DistanceMeters>
          </Trackpoint>
          <Trackpoint>
            <Time>2022-07-13T05:57:15.000Z</Time>
            <Position>
              <LatitudeDegrees>43.40155539102852344512939453125</LatitudeDegrees>
              <LongitudeDegrees>-3.27403776347637176513671875</LongitudeDegrees>
            </Position>
            <AltitudeMeters>55.59999847412109375</AltitudeMeters>
            <DistanceMeters>NAN</DistanceMeters>
          </Trackpoint>
          <Trackpoint>
            <Time>2022-07-13T05:57:19.000Z</Time>
            <Position>
              <LatitudeDegrees>43.40156980790197849273681640625</LatitudeDegrees>
              <LongitudeDegrees>-3.27405653893947601318359375</LongitudeDegrees>
            </Position>
            <AltitudeMeters>55.40000152587890625</AltitudeMeters>
            <DistanceMeters>NAN</DistanceMeters>
          </Trackpoint>
          <Trackpoint>
            <Time>2022-07-13T05:57:20.000Z</Time>
            <Position>
              <LatitudeDegrees>43.40156980790197849273681640625</LatitudeDegrees>
              <LongitudeDegrees>-3.27405653893947601318359375</LongitudeDegrees>
            </Position>
            <AltitudeMeters>55.40000152587890625</AltitudeMeters>
            <DistanceMeters>NAN</DistanceMeters>
          </Trackpoint>
          <Trackpoint>
            <Time>2022-07-13T05:57:31.000Z</Time>
            <Position>
              <LatitudeDegrees>43.40160350315272808074951171875</LatitudeDegrees>
              <LongitudeDegrees>-3.2741012983024120330810546875</LongitudeDegrees>
            </Position>
            <AltitudeMeters>55.200000762939453125</AltitudeMeters>
            <DistanceMeters>NAN</DistanceMeters>
          </Trackpoint>
          <Trackpoint>
            <Time>2022-07-13T05:57:34.000Z</Time>
            <Position>
              <LatitudeDegrees>43.4016040898859500885009765625</LatitudeDegrees>
              <LongitudeDegrees>-3.27412937767803668975830078125</LongitudeDegrees>
            </Position>
            <AltitudeMeters>55</AltitudeMeters>
            <DistanceMeters>NAN</DistanceMeters>
          </Trackpoint>
          <Trackpoint>
            <Time>2022-07-13T05:57:35.000Z</Time>
            <Position>
              <LatitudeDegrees>43.4016024135053157806396484375</LatitudeDegrees>
              <LongitudeDegrees>-3.27413021586835384368896484375</LongitudeDegrees>
            </Position>
            <AltitudeMeters>54.799999237060546875</AltitudeMeters>
            <DistanceMeters>NAN</DistanceMeters>
          </Trackpoint>
          <Trackpoint>
            <Time>2022-07-13T05:57:38.000Z</Time>
            <Position>
              <LatitudeDegrees>43.40158321894705295562744140625</LatitudeDegrees>
              <LongitudeDegrees>-3.27416273765265941619873046875</LongitudeDegrees>
            </Position>
            <AltitudeMeters>54.799999237060546875</AltitudeMeters>
            <DistanceMeters>NAN</DistanceMeters>
          </Trackpoint>
          <Trackpoint>
            <Time>2022-07-13T05:57:39.000Z</Time>
            <Position>
              <LatitudeDegrees>43.401571400463581085205078125</LatitudeDegrees>
              <LongitudeDegrees>-3.274174220860004425048828125</LongitudeDegrees>
            </Position>
            <AltitudeMeters>54.799999237060546875</AltitudeMeters>
            <DistanceMeters>NAN</DistanceMeters>
          </Trackpoint>
          <Trackpoint>
            <Time>2022-07-13T05:57:44.000Z</Time>
            <Position>
              <LatitudeDegrees>43.4015273116528987884521484375</LatitudeDegrees>
              <LongitudeDegrees>-3.27426977455615997314453125</LongitudeDegrees>
            </Position>
            <AltitudeMeters>54.59999847412109375</AltitudeMeters>
            <DistanceMeters>NAN</DistanceMeters>
          </Trackpoint>
          <Trackpoint>
            <Time>2022-07-13T05:57:46.000Z</Time>
            <Position>
              <LatitudeDegrees>43.40150325559079647064208984375</LatitudeDegrees>
              <LongitudeDegrees>-3.27432333491742610931396484375</LongitudeDegrees>
            </Position>
            <AltitudeMeters>54.200000762939453125</AltitudeMeters>
            <DistanceMeters>NAN</DistanceMeters>
          </Trackpoint>
          <Trackpoint>
            <Time>2022-07-13T05:57:47.000Z</Time>
            <Position>
              <LatitudeDegrees>43.40149856172502040863037109375</LatitudeDegrees>
              <LongitudeDegrees>-3.2743504084646701812744140625</LongitudeDegrees>
            </Position>
            <AltitudeMeters>54.200000762939453125</AltitudeMeters>
            <DistanceMeters>NAN</DistanceMeters>
          </Trackpoint>
          <Trackpoint>
            <Time>2022-07-13T05:57:50.000Z</Time>
            <Position>
              <LatitudeDegrees>43.401526473462581634521484375</LatitudeDegrees>
              <LongitudeDegrees>-3.27442291192710399627685546875</LongitudeDegrees>
            </Position>
            <AltitudeMeters>54</AltitudeMeters>
            <DistanceMeters>NAN</DistanceMeters>
          </Trackpoint>
          <Trackpoint>
            <Time>2022-07-13T05:57:55.000Z</Time>
            <Position>
              <LatitudeDegrees>43.40154935605823993682861328125</LatitudeDegrees>
              <LongitudeDegrees>-3.2744580321013927459716796875</LongitudeDegrees>
            </Position>
            <AltitudeMeters>54.40000152587890625</AltitudeMeters>
            <DistanceMeters>NAN</DistanceMeters>
          </Trackpoint>
          <Trackpoint>
            <Time>2022-07-13T05:58:23.000Z</Time>
            <Position>
              <LatitudeDegrees>43.401631079614162445068359375</LatitudeDegrees>
              <LongitudeDegrees>-3.27463991940021514892578125</LongitudeDegrees>
            </Position>
            <AltitudeMeters>56.200000762939453125</AltitudeMeters>
            <DistanceMeters>NAN</DistanceMeters>
          </Trackpoint>
          <Trackpoint>
            <Time>2022-07-13T05:58:24.000Z</Time>
            <Position>
              <LatitudeDegrees>43.401641137897968292236328125</LatitudeDegrees>
              <LongitudeDegrees>-3.2746615447103977203369140625</LongitudeDegrees>
            </Position>
            <AltitudeMeters>56.200000762939453125</AltitudeMeters>
            <DistanceMeters>NAN</DistanceMeters>
          </Trackpoint>
          <Trackpoint>
            <Time>2022-07-13T05:58:26.000Z</Time>
            <Position>
              <LatitudeDegrees>43.401655890047550201416015625</LatitudeDegrees>
              <LongitudeDegrees>-3.27470035292208194732666015625</LongitudeDegrees>
            </Position>
            <AltitudeMeters>56.59999847412109375</AltitudeMeters>
            <DistanceMeters>NAN</DistanceMeters>
          </Trackpoint>
          <Trackpoint>
            <Time>2022-07-13T05:58:30.000Z</Time>
            <Position>
              <LatitudeDegrees>43.40169000439345836639404296875</LatitudeDegrees>
              <LongitudeDegrees>-3.2747755385935306549072265625</LongitudeDegrees>
            </Position>
            <AltitudeMeters>57.200000762939453125</AltitudeMeters>
            <DistanceMeters>NAN</DistanceMeters>
          </Trackpoint>
          <Trackpoint>
            <Time>2022-07-13T05:58:32.000Z</Time>
            <Position>
              <LatitudeDegrees>43.40170106850564479827880859375</LatitudeDegrees>
              <LongitudeDegrees>-3.27480227686464786529541015625</LongitudeDegrees>
            </Position>
            <AltitudeMeters>57.200000762939453125</AltitudeMeters>
            <DistanceMeters>NAN</DistanceMeters>
          </Trackpoint>
          <Trackpoint>
            <Time>2022-07-13T05:58:33.000Z</Time>
            <Position>
              <LatitudeDegrees>43.4017023257911205291748046875</LatitudeDegrees>
              <LongitudeDegrees>-3.2748238183557987213134765625</LongitudeDegrees>
            </Position>
            <AltitudeMeters>57.40000152587890625</AltitudeMeters>
            <DistanceMeters>NAN</DistanceMeters>
          </Trackpoint>
          <Trackpoint>
            <Time>2022-07-13T05:58:37.000Z</Time>
            <Position>
              <LatitudeDegrees>43.40175203047692775726318359375</LatitudeDegrees>
              <LongitudeDegrees>-3.2749034464359283447265625</LongitudeDegrees>
            </Position>
            <AltitudeMeters>57.200000762939453125</AltitudeMeters>
            <DistanceMeters>NAN</DistanceMeters>
          </Trackpoint>
          <Trackpoint>
            <Time>2022-07-13T05:58:38.000Z</Time>
            <Position>
              <LatitudeDegrees>43.40178002603352069854736328125</LatitudeDegrees>
              <LongitudeDegrees>-3.274914510548114776611328125</LongitudeDegrees>
            </Position>
            <AltitudeMeters>57</AltitudeMeters>
            <DistanceMeters>NAN</DistanceMeters>
          </Trackpoint>
          <Trackpoint>
            <Time>2022-07-13T05:58:39.000Z</Time>
            <Position>
              <LatitudeDegrees>43.4018059261143207550048828125</LatitudeDegrees>
              <LongitudeDegrees>-3.27493638731539249420166015625</LongitudeDegrees>
            </Position>
            <AltitudeMeters>56.799999237060546875</AltitudeMeters>
            <DistanceMeters>NAN</DistanceMeters>
          </Trackpoint>
          <Trackpoint>
            <Time>2022-07-13T05:58:42.000Z</Time>
            <Position>
              <LatitudeDegrees>43.40184875763952732086181640625</LatitudeDegrees>
              <LongitudeDegrees>-3.27504166401922702789306640625</LongitudeDegrees>
            </Position>
            <AltitudeMeters>56.200000762939453125</AltitudeMeters>
            <DistanceMeters>NAN</DistanceMeters>
          </Trackpoint>
          <Trackpoint>
            <Time>2022-07-13T05:58:43.000Z</Time>
            <Position>
              <LatitudeDegrees>43.4018602408468723297119140625</LatitudeDegrees>
              <LongitudeDegrees>-3.275078795850276947021484375</LongitudeDegrees>
            </Position>
            <AltitudeMeters>56.200000762939453125</AltitudeMeters>
            <DistanceMeters>NAN</DistanceMeters>
          </Trackpoint>
          <Trackpoint>
            <Time>2022-07-13T05:58:47.000Z</Time>
            <Position>
              <LatitudeDegrees>43.4018951095640659332275390625</LatitudeDegrees>
              <LongitudeDegrees>-3.2751580886542797088623046875</LongitudeDegrees>
            </Position>
            <AltitudeMeters>56.40000152587890625</AltitudeMeters>
            <DistanceMeters>NAN</DistanceMeters>
          </Trackpoint>
          <Trackpoint>
            <Time>2022-07-13T05:58:49.000Z</Time>
            <Position>
              <LatitudeDegrees>43.40190508402884006500244140625</LatitudeDegrees>
              <LongitudeDegrees>-3.275191783905029296875</LongitudeDegrees>
            </Position>
            <AltitudeMeters>56.59999847412109375</AltitudeMeters>
            <DistanceMeters>NAN</DistanceMeters>
          </Trackpoint>
          <Trackpoint>
            <Time>2022-07-13T05:58:52.000Z</Time>
            <Position>
              <LatitudeDegrees>43.4019068442285060882568359375</LatitudeDegrees>
              <LongitudeDegrees>-3.27524031512439250946044921875</LongitudeDegrees>
            </Position>
            <AltitudeMeters>56.799999237060546875</AltitudeMeters>
            <DistanceMeters>NAN</DistanceMeters>
          </Trackpoint>
          <Trackpoint>
            <Time>2022-07-13T05:58:54.000Z</Time>
            <Position>
              <LatitudeDegrees>43.4019142203032970428466796875</LatitudeDegrees>
              <LongitudeDegrees>-3.275288008153438568115234375</LongitudeDegrees>
            </Position>
            <AltitudeMeters>57.40000152587890625</AltitudeMeters>
            <DistanceMeters>NAN</DistanceMeters>
          </Trackpoint>
          <Trackpoint>
            <Time>2022-07-13T05:58:57.000Z</Time>
            <Position>
              <LatitudeDegrees>43.4019316546618938446044921875</LatitudeDegrees>
              <LongitudeDegrees>-3.2753347791731357574462890625</LongitudeDegrees>
            </Position>
            <AltitudeMeters>58</AltitudeMeters>
            <DistanceMeters>NAN</DistanceMeters>
          </Trackpoint>
          <Trackpoint>
            <Time>2022-07-13T05:58:59.000Z</Time>
            <Position>
              <LatitudeDegrees>43.401946239173412322998046875</LatitudeDegrees>
              <LongitudeDegrees>-3.27536855824291706085205078125</LongitudeDegrees>
            </Position>
            <AltitudeMeters>58.59999847412109375</AltitudeMeters>
            <DistanceMeters>NAN</DistanceMeters>
          </Trackpoint>
          <Trackpoint>
            <Time>2022-07-13T05:59:02.000Z</Time>
            <Position>
              <LatitudeDegrees>43.401960991322994232177734375</LatitudeDegrees>
              <LongitudeDegrees>-3.2753900997340679168701171875</LongitudeDegrees>
            </Position>
            <AltitudeMeters>59</AltitudeMeters>
            <DistanceMeters>NAN</DistanceMeters>
          </Trackpoint>
          <Trackpoint>
            <Time>2022-07-13T05:59:28.000Z</Time>
            <Position>
              <LatitudeDegrees>43.401991166174411773681640625</LatitudeDegrees>
              <LongitudeDegrees>-3.27555446885526180267333984375</LongitudeDegrees>
            </Position>
            <AltitudeMeters>60.40000152587890625</AltitudeMeters>
            <DistanceMeters>NAN</DistanceMeters>
          </Trackpoint>
          <Trackpoint>
            <Time>2022-07-13T05:59:33.000Z</Time>
            <Position>
              <LatitudeDegrees>43.4020181559026241302490234375</LatitudeDegrees>
              <LongitudeDegrees>-3.27564440667629241943359375</LongitudeDegrees>
            </Position>
            <AltitudeMeters>61.59999847412109375</AltitudeMeters>
            <DistanceMeters>NAN</DistanceMeters>
          </Trackpoint>
          <Trackpoint>
            <Time>2022-07-13T05:59:35.000Z</Time>
            <Position>
              <LatitudeDegrees>43.4020231850445270538330078125</LatitudeDegrees>
              <LongitudeDegrees>-3.27567164786159992218017578125</LongitudeDegrees>
            </Position>
            <AltitudeMeters>62</AltitudeMeters>
            <DistanceMeters>NAN</DistanceMeters>
          </Trackpoint>
          <Trackpoint>
            <Time>2022-07-13T05:59:38.000Z</Time>
            <Position>
              <LatitudeDegrees>43.40204179286956787109375</LatitudeDegrees>
              <LongitudeDegrees>-3.275708444416522979736328125</LongitudeDegrees>
            </Position>
            <AltitudeMeters>62.799999237060546875</AltitudeMeters>
            <DistanceMeters>NAN</DistanceMeters>
          </Trackpoint>
          <Trackpoint>
            <Time>2022-07-13T05:59:39.000Z</Time>
            <Position>
              <LatitudeDegrees>43.40204514563083648681640625</LatitudeDegrees>
              <LongitudeDegrees>-3.2757081091403961181640625</LongitudeDegrees>
            </Position>
            <AltitudeMeters>62.799999237060546875</AltitudeMeters>
            <DistanceMeters>NAN</DistanceMeters>
          </Trackpoint>
          <Trackpoint>
            <Time>2022-07-13T05:59:42.000Z</Time>
            <Position>
              <LatitudeDegrees>43.4020805172622203826904296875</LatitudeDegrees>
              <LongitudeDegrees>-3.2757179997861385345458984375</LongitudeDegrees>
            </Position>
            <AltitudeMeters>63</AltitudeMeters>
            <DistanceMeters>NAN</DistanceMeters>
          </Trackpoint>
          <Trackpoint>
            <Time>2022-07-13T05:59:43.000Z</Time>
            <Position>
              <LatitudeDegrees>43.4020915813744068145751953125</LatitudeDegrees>
              <LongitudeDegrees>-3.27572344802320003509521484375</LongitudeDegrees>
            </Position>
            <AltitudeMeters>63.200000762939453125</AltitudeMeters>
            <DistanceMeters>NAN</DistanceMeters>
          </Trackpoint>
          <Trackpoint>
            <Time>2022-07-13T05:59:48.000Z</Time>
            <Position>
              <LatitudeDegrees>43.4021358378231525421142578125</LatitudeDegrees>
              <LongitudeDegrees>-3.27580408193171024322509765625</LongitudeDegrees>
            </Position>
            <AltitudeMeters>63.40000152587890625</AltitudeMeters>
            <DistanceMeters>NAN</DistanceMeters>
          </Trackpoint>
          <Trackpoint>
            <Time>2022-07-13T05:59:53.000Z</Time>
            <Position>
              <LatitudeDegrees>43.40216106735169887542724609375</LatitudeDegrees>
              <LongitudeDegrees>-3.275886140763759613037109375</LongitudeDegrees>
            </Position>
            <AltitudeMeters>64</AltitudeMeters>
            <DistanceMeters>NAN</DistanceMeters>
          </Trackpoint>
          <Trackpoint>
            <Time>2022-07-13T05:59:55.000Z</Time>
            <Position>
              <LatitudeDegrees>43.402154110372066497802734375</LatitudeDegrees>
              <LongitudeDegrees>-3.27591489069163799285888671875</LongitudeDegrees>
            </Position>
            <AltitudeMeters>64.1999969482421875</AltitudeMeters>
            <DistanceMeters>NAN</DistanceMeters>
          </Trackpoint>
          <Trackpoint>
            <Time>2022-07-13T05:59:58.000Z</Time>
            <Position>
              <LatitudeDegrees>43.40213525108993053436279296875</LatitudeDegrees>
              <LongitudeDegrees>-3.27595327980816364288330078125</LongitudeDegrees>
            </Position>
            <AltitudeMeters>65</AltitudeMeters>
            <DistanceMeters>NAN</DistanceMeters>
          </Trackpoint>
          <Trackpoint>
            <Time>2022-07-13T06:00:02.000Z</Time>
            <Position>
              <LatitudeDegrees>43.40210189111530780792236328125</LatitudeDegrees>
              <LongitudeDegrees>-3.2760019786655902862548828125</LongitudeDegrees>
            </Position>
            <AltitudeMeters>65.59999847412109375</AltitudeMeters>
            <DistanceMeters>NAN</DistanceMeters>
          </Trackpoint>
          <Trackpoint>
            <Time>2022-07-13T06:00:03.000Z</Time>
            <Position>
              <LatitudeDegrees>43.4020979516208171844482421875</LatitudeDegrees>
              <LongitudeDegrees>-3.27600994147360324859619140625</LongitudeDegrees>
            </Position>
            <AltitudeMeters>65.8000030517578125</AltitudeMeters>
            <DistanceMeters>NAN</DistanceMeters>
          </Trackpoint>
          <Trackpoint>
            <Time>2022-07-13T06:00:05.000Z</Time>
            <Position>
              <LatitudeDegrees>43.4020791761577129364013671875</LatitudeDegrees>
              <LongitudeDegrees>-3.27604380436241626739501953125</LongitudeDegrees>
            </Position>
            <AltitudeMeters>66.1999969482421875</AltitudeMeters>
            <DistanceMeters>NAN</DistanceMeters>
          </Trackpoint>
          <Trackpoint>
            <Time>2022-07-13T06:00:09.000Z</Time>
            <Position>
              <LatitudeDegrees>43.4020862169563770294189453125</LatitudeDegrees>
              <LongitudeDegrees>-3.2761156372725963592529296875</LongitudeDegrees>
            </Position>
            <AltitudeMeters>66.8000030517578125</AltitudeMeters>
            <DistanceMeters>NAN</DistanceMeters>
          </Trackpoint>
          <Trackpoint>
            <Time>2022-07-13T06:00:15.000Z</Time>
            <Position>
              <LatitudeDegrees>43.40209635905921459197998046875</LatitudeDegrees>
              <LongitudeDegrees>-3.27621747739613056182861328125</LongitudeDegrees>
            </Position>
            <AltitudeMeters>67.1999969482421875</AltitudeMeters>
            <DistanceMeters>NAN</DistanceMeters>
          </Trackpoint>
          <Trackpoint>
            <Time>2022-07-13T06:00:18.000Z</Time>
            <Position>
              <LatitudeDegrees>43.40209753252565860748291015625</LatitudeDegrees>
              <LongitudeDegrees>-3.27627279795706272125244140625</LongitudeDegrees>
            </Position>
            <AltitudeMeters>67.40000152587890625</AltitudeMeters>
            <DistanceMeters>NAN</DistanceMeters>
          </Trackpoint>
          <Trackpoint>
            <Time>2022-07-13T06:00:25.000Z</Time>
            <Position>
              <LatitudeDegrees>43.4020771645009517669677734375</LatitudeDegrees>
              <LongitudeDegrees>-3.27641688287258148193359375</LongitudeDegrees>
            </Position>
            <AltitudeMeters>68</AltitudeMeters>
            <DistanceMeters>NAN</DistanceMeters>
          </Trackpoint>
          <Trackpoint>
            <Time>2022-07-13T06:00:32.000Z</Time>
            <Position>
              <LatitudeDegrees>43.40201756916940212249755859375</LatitudeDegrees>
              <LongitudeDegrees>-3.2766039669513702392578125</LongitudeDegrees>
            </Position>
            <AltitudeMeters>67</AltitudeMeters>
            <DistanceMeters>NAN</DistanceMeters>
          </Trackpoint>
          <Trackpoint>
            <Time>2022-07-13T06:00:36.000Z</Time>
            <Position>
              <LatitudeDegrees>43.40199552476406097412109375</LatitudeDegrees>
              <LongitudeDegrees>-3.27667010016739368438720703125</LongitudeDegrees>
            </Position>
            <AltitudeMeters>66.1999969482421875</AltitudeMeters>
            <DistanceMeters>NAN</DistanceMeters>
          </Trackpoint>
          <Trackpoint>
            <Time>2022-07-13T06:00:37.000Z</Time>
            <Position>
              <LatitudeDegrees>43.401990830898284912109375</LatitudeDegrees>
              <LongitudeDegrees>-3.27668108046054840087890625</LongitudeDegrees>
            </Position>
            <AltitudeMeters>66</AltitudeMeters>
            <DistanceMeters>NAN</DistanceMeters>
          </Trackpoint>
          <Trackpoint>
            <Time>2022-07-13T06:00:41.000Z</Time>
            <Position>
              <LatitudeDegrees>43.40198814868927001953125</LatitudeDegrees>
              <LongitudeDegrees>-3.27668569050729274749755859375</LongitudeDegrees>
            </Position>
            <AltitudeMeters>65.40000152587890625</AltitudeMeters>
            <DistanceMeters>NAN</DistanceMeters>
          </Trackpoint>
          <Trackpoint>
            <Time>2022-07-13T06:02:06.000Z</Time>
            <Position>
              <LatitudeDegrees>43.40202008374035358428955078125</LatitudeDegrees>
              <LongitudeDegrees>-3.2767895422875881195068359375</LongitudeDegrees>
            </Position>
            <AltitudeMeters>65</AltitudeMeters>
            <DistanceMeters>NAN</DistanceMeters>
          </Trackpoint>
          <Trackpoint>
            <Time>2022-07-13T06:02:07.000Z</Time>
            <Position>
              <LatitudeDegrees>43.40202100574970245361328125</LatitudeDegrees>
              <LongitudeDegrees>-3.2768183760344982147216796875</LongitudeDegrees>
            </Position>
            <AltitudeMeters>65</AltitudeMeters>
            <DistanceMeters>NAN</DistanceMeters>
          </Trackpoint>
          <Trackpoint>
            <Time>2022-07-13T06:02:12.000Z</Time>
            <Position>
              <LatitudeDegrees>43.4020614065229892730712890625</LatitudeDegrees>
              <LongitudeDegrees>-3.27696665190160274505615234375</LongitudeDegrees>
            </Position>
            <AltitudeMeters>64.8000030517578125</AltitudeMeters>
            <DistanceMeters>NAN</DistanceMeters>
          </Trackpoint>
          <Trackpoint>
            <Time>2022-07-13T06:02:16.000Z</Time>
            <Position>
              <LatitudeDegrees>43.4021489135921001434326171875</LatitudeDegrees>
              <LongitudeDegrees>-3.27713303267955780029296875</LongitudeDegrees>
            </Position>
            <AltitudeMeters>64.40000152587890625</AltitudeMeters>
            <DistanceMeters>NAN</DistanceMeters>
          </Trackpoint>
          <Trackpoint>
            <Time>2022-07-13T06:02:18.000Z</Time>
            <Position>
              <LatitudeDegrees>43.4021871350705623626708984375</LatitudeDegrees>
              <LongitudeDegrees>-3.27723571099340915679931640625</LongitudeDegrees>
            </Position>
            <AltitudeMeters>64</AltitudeMeters>
            <DistanceMeters>NAN</DistanceMeters>
          </Trackpoint>
          <Trackpoint>
            <Time>2022-07-13T06:02:21.000Z</Time>
            <Position>
              <LatitudeDegrees>43.40222711674869060516357421875</LatitudeDegrees>
              <LongitudeDegrees>-3.27735163271427154541015625</LongitudeDegrees>
            </Position>
            <AltitudeMeters>64</AltitudeMeters>
            <DistanceMeters>NAN</DistanceMeters>
          </Trackpoint>
          <Trackpoint>
            <Time>2022-07-13T06:02:23.000Z</Time>
            <Position>
              <LatitudeDegrees>43.40224505402147769927978515625</LatitudeDegrees>
              <LongitudeDegrees>-3.27738909982144832611083984375</LongitudeDegrees>
            </Position>
            <AltitudeMeters>64.1999969482421875</AltitudeMeters>
            <DistanceMeters>NAN</DistanceMeters>
          </Trackpoint>
          <Trackpoint>
            <Time>2022-07-13T06:02:25.000Z</Time>
            <Position>
              <LatitudeDegrees>43.4022575430572032928466796875</LatitudeDegrees>
              <LongitudeDegrees>-3.27741826884448528289794921875</LongitudeDegrees>
            </Position>
            <AltitudeMeters>64.40000152587890625</AltitudeMeters>
            <DistanceMeters>NAN</DistanceMeters>
          </Trackpoint>
          <Trackpoint>
            <Time>2022-07-13T06:02:27.000Z</Time>
            <Position>
              <LatitudeDegrees>43.40225930325686931610107421875</LatitudeDegrees>
              <LongitudeDegrees>-3.27744576148688793182373046875</LongitudeDegrees>
            </Position>
            <AltitudeMeters>65</AltitudeMeters>
            <DistanceMeters>NAN</DistanceMeters>
          </Trackpoint>
          <Trackpoint>
            <Time>2022-07-13T06:02:31.000Z</Time>
            <Position>
              <LatitudeDegrees>43.4022550284862518310546875</LatitudeDegrees>
              <LongitudeDegrees>-3.2774916104972362518310546875</LongitudeDegrees>
            </Position>
            <AltitudeMeters>66</AltitudeMeters>
            <DistanceMeters>NAN</DistanceMeters>
          </Trackpoint>
          <Trackpoint>
            <Time>2022-07-13T06:02:32.000Z</Time>
            <Position>
              <LatitudeDegrees>43.4022550284862518310546875</LatitudeDegrees>
              <LongitudeDegrees>-3.2774916104972362518310546875</LongitudeDegrees>
            </Position>
            <AltitudeMeters>66</AltitudeMeters>
            <DistanceMeters>NAN</DistanceMeters>
          </Trackpoint>
          <Trackpoint>
            <Time>2022-07-13T06:02:50.000Z</Time>
            <Position>
              <LatitudeDegrees>43.40228478424251079559326171875</LatitudeDegrees>
              <LongitudeDegrees>-3.27762798406183719635009765625</LongitudeDegrees>
            </Position>
            <AltitudeMeters>67.59999847412109375</AltitudeMeters>
            <DistanceMeters>NAN</DistanceMeters>
          </Trackpoint>
          <Trackpoint>
            <Time>2022-07-13T06:02:53.000Z</Time>
            <Position>
              <LatitudeDegrees>43.40230104513466358184814453125</LatitudeDegrees>
              <LongitudeDegrees>-3.2776766829192638397216796875</LongitudeDegrees>
            </Position>
            <AltitudeMeters>68</AltitudeMeters>
            <DistanceMeters>NAN</DistanceMeters>
          </Trackpoint>
          <Trackpoint>
            <Time>2022-07-13T06:02:58.000Z</Time>
            <Position>
              <LatitudeDegrees>43.4023336507380008697509765625</LatitudeDegrees>
              <LongitudeDegrees>-3.2777573168277740478515625</LongitudeDegrees>
            </Position>
            <AltitudeMeters>68.59999847412109375</AltitudeMeters>
            <DistanceMeters>NAN</DistanceMeters>
          </Trackpoint>
          <Trackpoint>
            <Time>2022-07-13T06:03:00.000Z</Time>
            <Position>
              <LatitudeDegrees>43.402341865003108978271484375</LatitudeDegrees>
              <LongitudeDegrees>-3.2777896709740161895751953125</LongitudeDegrees>
            </Position>
            <AltitudeMeters>68.8000030517578125</AltitudeMeters>
            <DistanceMeters>NAN</DistanceMeters>
          </Trackpoint>
          <Trackpoint>
            <Time>2022-07-13T06:03:05.000Z</Time>
            <Position>
              <LatitudeDegrees>43.40238201431930065155029296875</LatitudeDegrees>
              <LongitudeDegrees>-3.2778493501245975494384765625</LongitudeDegrees>
            </Position>
            <AltitudeMeters>69.8000030517578125</AltitudeMeters>
            <DistanceMeters>NAN</DistanceMeters>
          </Trackpoint>
          <Trackpoint>
            <Time>2022-07-13T06:03:08.000Z</Time>
            <Position>
              <LatitudeDegrees>43.40240992605686187744140625</LatitudeDegrees>
              <LongitudeDegrees>-3.27788296155631542205810546875</LongitudeDegrees>
            </Position>
            <AltitudeMeters>70.40000152587890625</AltitudeMeters>
            <DistanceMeters>NAN</DistanceMeters>
          </Trackpoint>
          <Trackpoint>
            <Time>2022-07-13T06:03:11.000Z</Time>
            <Position>
              <LatitudeDegrees>43.40243616141378879547119140625</LatitudeDegrees>
              <LongitudeDegrees>-3.27791833318769931793212890625</LongitudeDegrees>
            </Position>
            <AltitudeMeters>70.8000030517578125</AltitudeMeters>
            <DistanceMeters>NAN</DistanceMeters>
          </Trackpoint>
          <Trackpoint>
            <Time>2022-07-13T06:03:12.000Z</Time>
            <Position>
              <LatitudeDegrees>43.4024416096508502960205078125</LatitudeDegrees>
              <LongitudeDegrees>-3.27793501317501068115234375</LongitudeDegrees>
            </Position>
            <AltitudeMeters>70.8000030517578125</AltitudeMeters>
            <DistanceMeters>NAN</DistanceMeters>
          </Trackpoint>
          <Trackpoint>
            <Time>2022-07-13T06:03:16.000Z</Time>
            <Position>
              <LatitudeDegrees>43.40245845727622509002685546875</LatitudeDegrees>
              <LongitudeDegrees>-3.27799511142075061798095703125</LongitudeDegrees>
            </Position>
            <AltitudeMeters>71.40000152587890625</AltitudeMeters>
            <DistanceMeters>NAN</DistanceMeters>
          </Trackpoint>
          <Trackpoint>
            <Time>2022-07-13T06:03:25.000Z</Time>
            <Position>
              <LatitudeDegrees>43.40248025022447109222412109375</LatitudeDegrees>
              <LongitudeDegrees>-3.2781430520117282867431640625</LongitudeDegrees>
            </Position>
            <AltitudeMeters>71.8000030517578125</AltitudeMeters>
            <DistanceMeters>NAN</DistanceMeters>
          </Trackpoint>
          <Trackpoint>
            <Time>2022-07-13T06:03:30.000Z</Time>
            <Position>
              <LatitudeDegrees>43.40248947031795978546142578125</LatitudeDegrees>
              <LongitudeDegrees>-3.27822737395763397216796875</LongitudeDegrees>
            </Position>
            <AltitudeMeters>71.8000030517578125</AltitudeMeters>
            <DistanceMeters>NAN</DistanceMeters>
          </Trackpoint>
          <Trackpoint>
            <Time>2022-07-13T06:03:33.000Z</Time>
            <Position>
              <LatitudeDegrees>43.40248863212764263153076171875</LatitudeDegrees>
              <LongitudeDegrees>-3.27831027098000049591064453125</LongitudeDegrees>
            </Position>
            <AltitudeMeters>71.8000030517578125</AltitudeMeters>
            <DistanceMeters>NAN</DistanceMeters>
          </Trackpoint>
          <Trackpoint>
            <Time>2022-07-13T06:03:42.000Z</Time>
            <Position>
              <LatitudeDegrees>43.40247270651161670684814453125</LatitudeDegrees>
              <LongitudeDegrees>-3.27855753712356090545654296875</LongitudeDegrees>
            </Position>
            <AltitudeMeters>71.8000030517578125</AltitudeMeters>
            <DistanceMeters>NAN</DistanceMeters>
          </Trackpoint>
          <Trackpoint>
            <Time>2022-07-13T06:03:43.000Z</Time>
            <Position>
              <LatitudeDegrees>43.40247035957872867584228515625</LatitudeDegrees>
              <LongitudeDegrees>-3.2785765640437602996826171875</LongitudeDegrees>
            </Position>
            <AltitudeMeters>71.8000030517578125</AltitudeMeters>
            <DistanceMeters>NAN</DistanceMeters>
          </Trackpoint>
          <Trackpoint>
            <Time>2022-07-13T06:03:50.000Z</Time>
            <Position>
              <LatitudeDegrees>43.40248905122280120849609375</LatitudeDegrees>
              <LongitudeDegrees>-3.27873690985143184661865234375</LongitudeDegrees>
            </Position>
            <AltitudeMeters>71.59999847412109375</AltitudeMeters>
            <DistanceMeters>NAN</DistanceMeters>
          </Trackpoint>
          <Trackpoint>
            <Time>2022-07-13T06:03:57.000Z</Time>
            <Position>
              <LatitudeDegrees>43.40249986387789249420166015625</LatitudeDegrees>
              <LongitudeDegrees>-3.27885911799967288970947265625</LongitudeDegrees>
            </Position>
            <AltitudeMeters>71.40000152587890625</AltitudeMeters>
            <DistanceMeters>NAN</DistanceMeters>
          </Trackpoint>
          <Trackpoint>
            <Time>2022-07-13T06:03:59.000Z</Time>
            <Position>
              <LatitudeDegrees>43.40249986387789249420166015625</LatitudeDegrees>
              <LongitudeDegrees>-3.27885911799967288970947265625</LongitudeDegrees>
            </Position>
            <AltitudeMeters>71.1999969482421875</AltitudeMeters>
            <DistanceMeters>NAN</DistanceMeters>
          </Trackpoint>
          <Trackpoint>
            <Time>2022-07-13T06:04:57.000Z</Time>
            <Position>
              <LatitudeDegrees>43.4024680964648723602294921875</LatitudeDegrees>
              <LongitudeDegrees>-3.27894545160233974456787109375</LongitudeDegrees>
            </Position>
            <AltitudeMeters>71.40000152587890625</AltitudeMeters>
            <DistanceMeters>NAN</DistanceMeters>
          </Trackpoint>
          <Trackpoint>
            <Time>2022-07-13T06:04:58.000Z</Time>
            <Position>
              <LatitudeDegrees>43.4024630673229694366455078125</LatitudeDegrees>
              <LongitudeDegrees>-3.2789634726941585540771484375</LongitudeDegrees>
            </Position>
            <AltitudeMeters>71.59999847412109375</AltitudeMeters>
            <DistanceMeters>NAN</DistanceMeters>
          </Trackpoint>
          <Trackpoint>
            <Time>2022-07-13T06:05:04.000Z</Time>
            <Position>
              <LatitudeDegrees>43.40239475481212139129638671875</LatitudeDegrees>
              <LongitudeDegrees>-3.279062211513519287109375</LongitudeDegrees>
            </Position>
            <AltitudeMeters>72</AltitudeMeters>
            <DistanceMeters>NAN</DistanceMeters>
          </Trackpoint>
          <Trackpoint>
            <Time>2022-07-13T06:05:07.000Z</Time>
            <Position>
              <LatitudeDegrees>43.4023581258952617645263671875</LatitudeDegrees>
              <LongitudeDegrees>-3.2791217230260372161865234375</LongitudeDegrees>
            </Position>
            <AltitudeMeters>72.1999969482421875</AltitudeMeters>
            <DistanceMeters>NAN</DistanceMeters>
          </Trackpoint>
          <Trackpoint>
            <Time>2022-07-13T06:05:10.000Z</Time>
            <Position>
              <LatitudeDegrees>43.4023487381637096405029296875</LatitudeDegrees>
              <LongitudeDegrees>-3.27918517403304576873779296875</LongitudeDegrees>
            </Position>
            <AltitudeMeters>72.40000152587890625</AltitudeMeters>
            <DistanceMeters>NAN</DistanceMeters>
          </Trackpoint>
          <Trackpoint>
            <Time>2022-07-13T06:05:19.000Z</Time>
            <Position>
              <LatitudeDegrees>43.40232820250093936920166015625</LatitudeDegrees>
              <LongitudeDegrees>-3.27939321286976337432861328125</LongitudeDegrees>
            </Position>
            <AltitudeMeters>72.8000030517578125</AltitudeMeters>
            <DistanceMeters>NAN</DistanceMeters>
          </Trackpoint>
          <Trackpoint>
            <Time>2022-07-13T06:05:22.000Z</Time>
            <Position>
              <LatitudeDegrees>43.4023235924541950225830078125</LatitudeDegrees>
              <LongitudeDegrees>-3.279476277530193328857421875</LongitudeDegrees>
            </Position>
            <AltitudeMeters>72.8000030517578125</AltitudeMeters>
            <DistanceMeters>NAN</DistanceMeters>
          </Trackpoint>
          <Trackpoint>
            <Time>2022-07-13T06:05:26.000Z</Time>
            <Position>
              <LatitudeDegrees>43.40231747366487979888916015625</LatitudeDegrees>
              <LongitudeDegrees>-3.27958348207175731658935546875</LongitudeDegrees>
            </Position>
            <AltitudeMeters>73</AltitudeMeters>
            <DistanceMeters>NAN</DistanceMeters>
          </Trackpoint>
          <Trackpoint>
            <Time>2022-07-13T06:05:34.000Z</Time>
            <Position>
              <LatitudeDegrees>43.40229970403015613555908203125</LatitudeDegrees>
              <LongitudeDegrees>-3.2797724939882755279541015625</LongitudeDegrees>
            </Position>
            <AltitudeMeters>73.1999969482421875</AltitudeMeters>
            <DistanceMeters>NAN</DistanceMeters>
          </Trackpoint>
          <Trackpoint>
            <Time>2022-07-13T06:05:43.000Z</Time>
            <Position>
              <LatitudeDegrees>43.4022964350879192352294921875</LatitudeDegrees>
              <LongitudeDegrees>-3.27999486587941646575927734375</LongitudeDegrees>
            </Position>
            <AltitudeMeters>73.40000152587890625</AltitudeMeters>
            <DistanceMeters>NAN</DistanceMeters>
          </Trackpoint>
          <Trackpoint>
            <Time>2022-07-13T06:05:44.000Z</Time>
            <Position>
              <LatitudeDegrees>43.40229383669793605804443359375</LatitudeDegrees>
              <LongitudeDegrees>-3.2800192572176456451416015625</LongitudeDegrees>
            </Position>
            <AltitudeMeters>73.40000152587890625</AltitudeMeters>
            <DistanceMeters>NAN</DistanceMeters>
          </Trackpoint>
          <Trackpoint>
            <Time>2022-07-13T06:05:51.000Z</Time>
            <Position>
              <LatitudeDegrees>43.40230054222047328948974609375</LatitudeDegrees>
              <LongitudeDegrees>-3.28021891415119171142578125</LongitudeDegrees>
            </Position>
            <AltitudeMeters>73.1999969482421875</AltitudeMeters>
            <DistanceMeters>NAN</DistanceMeters>
          </Trackpoint>
          <Trackpoint>
            <Time>2022-07-13T06:05:57.000Z</Time>
            <Position>
              <LatitudeDegrees>43.4023028053343296051025390625</LatitudeDegrees>
              <LongitudeDegrees>-3.2804467342793941497802734375</LongitudeDegrees>
            </Position>
            <AltitudeMeters>72.8000030517578125</AltitudeMeters>
            <DistanceMeters>NAN</DistanceMeters>
          </Trackpoint>
          <Trackpoint>
            <Time>2022-07-13T06:06:02.000Z</Time>
            <Position>
              <LatitudeDegrees>43.40228428132832050323486328125</LatitudeDegrees>
              <LongitudeDegrees>-3.280573301017284393310546875</LongitudeDegrees>
            </Position>
            <AltitudeMeters>72.40000152587890625</AltitudeMeters>
            <DistanceMeters>NAN</DistanceMeters>
          </Trackpoint>
          <Trackpoint>
            <Time>2022-07-13T06:06:04.000Z</Time>
            <Position>
              <LatitudeDegrees>43.40228428132832050323486328125</LatitudeDegrees>
              <LongitudeDegrees>-3.280573301017284393310546875</LongitudeDegrees>
            </Position>
            <AltitudeMeters>72.40000152587890625</AltitudeMeters>
            <DistanceMeters>NAN</DistanceMeters>
          </Trackpoint>
          <Trackpoint>
            <Time>2022-07-13T06:06:31.000Z</Time>
            <Position>
              <LatitudeDegrees>43.4022987820208072662353515625</LatitudeDegrees>
              <LongitudeDegrees>-3.28063599765300750732421875</LongitudeDegrees>
            </Position>
            <AltitudeMeters>72.1999969482421875</AltitudeMeters>
            <DistanceMeters>NAN</DistanceMeters>
          </Trackpoint>
          <Trackpoint>
            <Time>2022-07-13T06:06:32.000Z</Time>
            <Position>
              <LatitudeDegrees>43.40230129659175872802734375</LatitudeDegrees>
              <LongitudeDegrees>-3.28066357411444187164306640625</LongitudeDegrees>
            </Position>
            <AltitudeMeters>72.1999969482421875</AltitudeMeters>
            <DistanceMeters>NAN</DistanceMeters>
          </Trackpoint>
          <Trackpoint>
            <Time>2022-07-13T06:06:37.000Z</Time>
            <Position>
              <LatitudeDegrees>43.4023101814091205596923828125</LatitudeDegrees>
              <LongitudeDegrees>-3.2808239199221134185791015625</LongitudeDegrees>
            </Position>
            <AltitudeMeters>72</AltitudeMeters>
            <DistanceMeters>NAN</DistanceMeters>
          </Trackpoint>
          <Trackpoint>
            <Time>2022-07-13T06:06:40.000Z</Time>
            <Position>
              <LatitudeDegrees>43.40231596492230892181396484375</LatitudeDegrees>
              <LongitudeDegrees>-3.2809261791408061981201171875</LongitudeDegrees>
            </Position>
            <AltitudeMeters>72</AltitudeMeters>
            <DistanceMeters>NAN</DistanceMeters>
          </Trackpoint>
          <Trackpoint>
            <Time>2022-07-13T06:06:41.000Z</Time>
            <Position>
              <LatitudeDegrees>43.40231495909392833709716796875</LatitudeDegrees>
              <LongitudeDegrees>-3.28097571618854999542236328125</LongitudeDegrees>
            </Position>
            <AltitudeMeters>71.8000030517578125</AltitudeMeters>
            <DistanceMeters>NAN</DistanceMeters>
          </Trackpoint>
          <Trackpoint>
            <Time>2022-07-13T06:06:46.000Z</Time>
            <Position>
              <LatitudeDegrees>43.40232501737773418426513671875</LatitudeDegrees>
              <LongitudeDegrees>-3.28118191100656986236572265625</LongitudeDegrees>
            </Position>
            <AltitudeMeters>70.8000030517578125</AltitudeMeters>
            <DistanceMeters>NAN</DistanceMeters>
          </Trackpoint>
          <Trackpoint>
            <Time>2022-07-13T06:06:47.000Z</Time>
            <Position>
              <LatitudeDegrees>43.4023301303386688232421875</LatitudeDegrees>
              <LongitudeDegrees>-3.28121225349605083465576171875</LongitudeDegrees>
            </Position>
            <AltitudeMeters>70.40000152587890625</AltitudeMeters>
            <DistanceMeters>NAN</DistanceMeters>
          </Trackpoint>
          <Trackpoint>
            <Time>2022-07-13T06:06:50.000Z</Time>
            <Position>
              <LatitudeDegrees>43.402340523898601531982421875</LatitudeDegrees>
              <LongitudeDegrees>-3.281293474137783050537109375</LongitudeDegrees>
            </Position>
            <AltitudeMeters>69.40000152587890625</AltitudeMeters>
            <DistanceMeters>NAN</DistanceMeters>
          </Trackpoint>
          <Trackpoint>
            <Time>2022-07-13T06:06:51.000Z</Time>
            <Position>
              <LatitudeDegrees>43.40233893133699893951416015625</LatitudeDegrees>
              <LongitudeDegrees>-3.28133605420589447021484375</LongitudeDegrees>
            </Position>
            <AltitudeMeters>69.40000152587890625</AltitudeMeters>
            <DistanceMeters>NAN</DistanceMeters>
          </Trackpoint>
          <Trackpoint>
            <Time>2022-07-13T06:06:57.000Z</Time>
            <Position>
              <LatitudeDegrees>43.40232484973967075347900390625</LatitudeDegrees>
              <LongitudeDegrees>-3.28152171336114406585693359375</LongitudeDegrees>
            </Position>
            <AltitudeMeters>68.40000152587890625</AltitudeMeters>
            <DistanceMeters>NAN</DistanceMeters>
          </Trackpoint>
          <Trackpoint>
            <Time>2022-07-13T06:06:58.000Z</Time>
            <Position>
              <LatitudeDegrees>43.402321077883243560791015625</LatitudeDegrees>
              <LongitudeDegrees>-3.28155792318284511566162109375</LongitudeDegrees>
            </Position>
            <AltitudeMeters>68.1999969482421875</AltitudeMeters>
            <DistanceMeters>NAN</DistanceMeters>
          </Trackpoint>
          <Trackpoint>
            <Time>2022-07-13T06:07:04.000Z</Time>
            <Position>
              <LatitudeDegrees>43.40229953639209270477294921875</LatitudeDegrees>
              <LongitudeDegrees>-3.2817610166966915130615234375</LongitudeDegrees>
            </Position>
            <AltitudeMeters>67.40000152587890625</AltitudeMeters>
            <DistanceMeters>NAN</DistanceMeters>
          </Trackpoint>
          <Trackpoint>
            <Time>2022-07-13T06:07:05.000Z</Time>
            <Position>
              <LatitudeDegrees>43.40230523608624935150146484375</LatitudeDegrees>
              <LongitudeDegrees>-3.281794376671314239501953125</LongitudeDegrees>
            </Position>
            <AltitudeMeters>67.1999969482421875</AltitudeMeters>
            <DistanceMeters>NAN</DistanceMeters>
          </Trackpoint>
          <Trackpoint>
            <Time>2022-07-13T06:07:11.000Z</Time>
            <Position>
              <LatitudeDegrees>43.4023467265069484710693359375</LatitudeDegrees>
              <LongitudeDegrees>-3.28203879296779632568359375</LongitudeDegrees>
            </Position>
            <AltitudeMeters>66.40000152587890625</AltitudeMeters>
            <DistanceMeters>NAN</DistanceMeters>
          </Trackpoint>
          <Trackpoint>
            <Time>2022-07-13T06:07:16.000Z</Time>
            <Position>
              <LatitudeDegrees>43.4023541025817394256591796875</LatitudeDegrees>
              <LongitudeDegrees>-3.2821881584823131561279296875</LongitudeDegrees>
            </Position>
            <AltitudeMeters>66.1999969482421875</AltitudeMeters>
            <DistanceMeters>NAN</DistanceMeters>
          </Trackpoint>
          <Trackpoint>
            <Time>2022-07-13T06:07:17.000Z</Time>
            <Position>
              <LatitudeDegrees>43.40235217474400997161865234375</LatitudeDegrees>
              <LongitudeDegrees>-3.28220634721219539642333984375</LongitudeDegrees>
            </Position>
            <AltitudeMeters>66.1999969482421875</AltitudeMeters>
            <DistanceMeters>NAN</DistanceMeters>
          </Trackpoint>
          <Trackpoint>
            <Time>2022-07-13T06:07:23.000Z</Time>
            <Position>
              <LatitudeDegrees>43.40234295465052127838134765625</LatitudeDegrees>
              <LongitudeDegrees>-3.282345570623874664306640625</LongitudeDegrees>
            </Position>
            <AltitudeMeters>66.8000030517578125</AltitudeMeters>
            <DistanceMeters>NAN</DistanceMeters>
          </Trackpoint>
          <Trackpoint>
            <Time>2022-07-13T06:07:24.000Z</Time>
            <Position>
              <LatitudeDegrees>43.4023393504321575164794921875</LatitudeDegrees>
              <LongitudeDegrees>-3.28237599693238735198974609375</LongitudeDegrees>
            </Position>
            <AltitudeMeters>66.8000030517578125</AltitudeMeters>
            <DistanceMeters>NAN</DistanceMeters>
          </Trackpoint>
          <Trackpoint>
            <Time>2022-07-13T06:07:32.000Z</Time>
            <Position>
              <LatitudeDegrees>43.40234194882214069366455078125</LatitudeDegrees>
              <LongitudeDegrees>-3.28260281123220920562744140625</LongitudeDegrees>
            </Position>
            <AltitudeMeters>67</AltitudeMeters>
            <DistanceMeters>NAN</DistanceMeters>
          </Trackpoint>
          <Trackpoint>
            <Time>2022-07-13T06:07:34.000Z</Time>
            <Position>
              <LatitudeDegrees>43.40235234238207340240478515625</LatitudeDegrees>
              <LongitudeDegrees>-3.28265444375574588775634765625</LongitudeDegrees>
            </Position>
            <AltitudeMeters>67</AltitudeMeters>
            <DistanceMeters>NAN</DistanceMeters>
          </Trackpoint>
          <Trackpoint>
            <Time>2022-07-13T06:07:41.000Z</Time>
            <Position>
              <LatitudeDegrees>43.4023738838732242584228515625</LatitudeDegrees>
              <LongitudeDegrees>-3.282885365188121795654296875</LongitudeDegrees>
            </Position>
            <AltitudeMeters>66.8000030517578125</AltitudeMeters>
            <DistanceMeters>NAN</DistanceMeters>
          </Trackpoint>
          <Trackpoint>
            <Time>2022-07-13T06:07:48.000Z</Time>
            <Position>
              <LatitudeDegrees>43.40243901126086711883544921875</LatitudeDegrees>
              <LongitudeDegrees>-3.283137492835521697998046875</LongitudeDegrees>
            </Position>
            <AltitudeMeters>66.40000152587890625</AltitudeMeters>
            <DistanceMeters>NAN</DistanceMeters>
          </Trackpoint>
          <Trackpoint>
            <Time>2022-07-13T06:07:49.000Z</Time>
            <Position>
              <LatitudeDegrees>43.40245091356337070465087890625</LatitudeDegrees>
              <LongitudeDegrees>-3.2831700146198272705078125</LongitudeDegrees>
            </Position>
            <AltitudeMeters>66.1999969482421875</AltitudeMeters>
            <DistanceMeters>NAN</DistanceMeters>
          </Trackpoint>
          <Trackpoint>
            <Time>2022-07-13T06:07:54.000Z</Time>
            <Position>
              <LatitudeDegrees>43.40247429907321929931640625</LatitudeDegrees>
              <LongitudeDegrees>-3.28334561549127101898193359375</LongitudeDegrees>
            </Position>
            <AltitudeMeters>65</AltitudeMeters>
            <DistanceMeters>NAN</DistanceMeters>
          </Trackpoint>
          <Trackpoint>
            <Time>2022-07-13T06:07:57.000Z</Time>
            <Position>
              <LatitudeDegrees>43.40247706510126590728759765625</LatitudeDegrees>
              <LongitudeDegrees>-3.28336589969694614410400390625</LongitudeDegrees>
            </Position>
            <AltitudeMeters>64.8000030517578125</AltitudeMeters>
            <DistanceMeters>NAN</DistanceMeters>
          </Trackpoint>
          <Trackpoint>
            <Time>2022-07-13T06:08:04.000Z</Time>
            <Position>
              <LatitudeDegrees>43.4024821780622005462646484375</LatitudeDegrees>
              <LongitudeDegrees>-3.28336271457374095916748046875</LongitudeDegrees>
            </Position>
            <AltitudeMeters>64.8000030517578125</AltitudeMeters>
            <DistanceMeters>NAN</DistanceMeters>
          </Trackpoint>
          <Trackpoint>
            <Time>2022-07-13T06:08:09.000Z</Time>
            <Position>
              <LatitudeDegrees>43.402480669319629669189453125</LatitudeDegrees>
              <LongitudeDegrees>-3.2833686657249927520751953125</LongitudeDegrees>
            </Position>
            <AltitudeMeters>65</AltitudeMeters>
            <DistanceMeters>NAN</DistanceMeters>
          </Trackpoint>
          <Trackpoint>
            <Time>2022-07-13T06:08:27.000Z</Time>
            <Position>
              <LatitudeDegrees>43.402502797544002532958984375</LatitudeDegrees>
              <LongitudeDegrees>-3.28343664295971393585205078125</LongitudeDegrees>
            </Position>
            <AltitudeMeters>65</AltitudeMeters>
            <DistanceMeters>NAN</DistanceMeters>
          </Trackpoint>
          <Trackpoint>
            <Time>2022-07-13T06:08:33.000Z</Time>
            <Position>
              <LatitudeDegrees>43.40250204317271709442138671875</LatitudeDegrees>
              <LongitudeDegrees>-3.28358567319810390472412109375</LongitudeDegrees>
            </Position>
            <AltitudeMeters>66</AltitudeMeters>
            <DistanceMeters>NAN</DistanceMeters>
          </Trackpoint>
          <Trackpoint>
            <Time>2022-07-13T06:08:34.000Z</Time>
            <Position>
              <LatitudeDegrees>43.40250137262046337127685546875</LatitudeDegrees>
              <LongitudeDegrees>-3.28361182473599910736083984375</LongitudeDegrees>
            </Position>
            <AltitudeMeters>66</AltitudeMeters>
            <DistanceMeters>NAN</DistanceMeters>
          </Trackpoint>
          <Trackpoint>
            <Time>2022-07-13T06:08:38.000Z</Time>
            <Position>
              <LatitudeDegrees>43.40250246226787567138671875</LatitudeDegrees>
              <LongitudeDegrees>-3.28370369039475917816162109375</LongitudeDegrees>
            </Position>
            <AltitudeMeters>66.59999847412109375</AltitudeMeters>
            <DistanceMeters>NAN</DistanceMeters>
          </Trackpoint>
          <Trackpoint>
            <Time>2022-07-13T06:08:42.000Z</Time>
            <Position>
              <LatitudeDegrees>43.4025177173316478729248046875</LatitudeDegrees>
              <LongitudeDegrees>-3.283814750611782073974609375</LongitudeDegrees>
            </Position>
            <AltitudeMeters>66.59999847412109375</AltitudeMeters>
            <DistanceMeters>NAN</DistanceMeters>
          </Trackpoint>
          <Trackpoint>
            <Time>2022-07-13T06:08:53.000Z</Time>
            <Position>
              <LatitudeDegrees>43.402561806142330169677734375</LatitudeDegrees>
              <LongitudeDegrees>-3.28412949107587337493896484375</LongitudeDegrees>
            </Position>
            <AltitudeMeters>66.8000030517578125</AltitudeMeters>
            <DistanceMeters>NAN</DistanceMeters>
          </Trackpoint>
          <Trackpoint>
            <Time>2022-07-13T06:08:57.000Z</Time>
            <Position>
              <LatitudeDegrees>43.4025797434151172637939453125</LatitudeDegrees>
              <LongitudeDegrees>-3.28425454907119274139404296875</LongitudeDegrees>
            </Position>
            <AltitudeMeters>67.1999969482421875</AltitudeMeters>
            <DistanceMeters>NAN</DistanceMeters>
          </Trackpoint>
          <Trackpoint>
            <Time>2022-07-13T06:09:04.000Z</Time>
            <Position>
              <LatitudeDegrees>43.40260631404817104339599609375</LatitudeDegrees>
              <LongitudeDegrees>-3.2845102809369564056396484375</LongitudeDegrees>
            </Position>
            <AltitudeMeters>67</AltitudeMeters>
            <DistanceMeters>NAN</DistanceMeters>
          </Trackpoint>
          <Trackpoint>
            <Time>2022-07-13T06:09:11.000Z</Time>
            <Position>
              <LatitudeDegrees>43.40264939703047275543212890625</LatitudeDegrees>
              <LongitudeDegrees>-3.28475746326148509979248046875</LongitudeDegrees>
            </Position>
            <AltitudeMeters>66.40000152587890625</AltitudeMeters>
            <DistanceMeters>NAN</DistanceMeters>
          </Trackpoint>
          <Trackpoint>
            <Time>2022-07-13T06:09:13.000Z</Time>
            <Position>
              <LatitudeDegrees>43.40265040285885334014892578125</LatitudeDegrees>
              <LongitudeDegrees>-3.284807167947292327880859375</LongitudeDegrees>
            </Position>
            <AltitudeMeters>66</AltitudeMeters>
            <DistanceMeters>NAN</DistanceMeters>
          </Trackpoint>
          <Trackpoint>
            <Time>2022-07-13T06:09:16.000Z</Time>
            <Position>
              <LatitudeDegrees>43.40264939703047275543212890625</LatitudeDegrees>
              <LongitudeDegrees>-3.28481295146048069000244140625</LongitudeDegrees>
            </Position>
            <AltitudeMeters>65.59999847412109375</AltitudeMeters>
            <DistanceMeters>NAN</DistanceMeters>
          </Trackpoint>
          <Trackpoint>
            <Time>2022-07-13T06:09:43.000Z</Time>
            <Position>
              <LatitudeDegrees>43.402671106159687042236328125</LatitudeDegrees>
              <LongitudeDegrees>-3.2849032245576381683349609375</LongitudeDegrees>
            </Position>
            <AltitudeMeters>65.40000152587890625</AltitudeMeters>
            <DistanceMeters>NAN</DistanceMeters>
          </Trackpoint>
          <Trackpoint>
            <Time>2022-07-13T06:09:44.000Z</Time>
            <Position>
              <LatitudeDegrees>43.402682505548000335693359375</LatitudeDegrees>
              <LongitudeDegrees>-3.28493583016097545623779296875</LongitudeDegrees>
            </Position>
            <AltitudeMeters>65.1999969482421875</AltitudeMeters>
            <DistanceMeters>NAN</DistanceMeters>
          </Trackpoint>
          <Trackpoint>
            <Time>2022-07-13T06:09:45.000Z</Time>
            <Position>
              <LatitudeDegrees>43.4026897139847278594970703125</LatitudeDegrees>
              <LongitudeDegrees>-3.28496910631656646728515625</LongitudeDegrees>
            </Position>
            <AltitudeMeters>65</AltitudeMeters>
            <DistanceMeters>NAN</DistanceMeters>
          </Trackpoint>
          <Trackpoint>
            <Time>2022-07-13T06:09:52.000Z</Time>
            <Position>
              <LatitudeDegrees>43.4027445316314697265625</LatitudeDegrees>
              <LongitudeDegrees>-3.28527328558266162872314453125</LongitudeDegrees>
            </Position>
            <AltitudeMeters>64</AltitudeMeters>
            <DistanceMeters>NAN</DistanceMeters>
          </Trackpoint>
          <Trackpoint>
            <Time>2022-07-13T06:09:53.000Z</Time>
            <Position>
              <LatitudeDegrees>43.4027500636875629425048828125</LatitudeDegrees>
              <LongitudeDegrees>-3.28531108796596527099609375</LongitudeDegrees>
            </Position>
            <AltitudeMeters>63.799999237060546875</AltitudeMeters>
            <DistanceMeters>NAN</DistanceMeters>
          </Trackpoint>
          <Trackpoint>
            <Time>2022-07-13T06:09:56.000Z</Time>
            <Position>
              <LatitudeDegrees>43.40278275310993194580078125</LatitudeDegrees>
              <LongitudeDegrees>-3.28544595278799533843994140625</LongitudeDegrees>
            </Position>
            <AltitudeMeters>63.59999847412109375</AltitudeMeters>
            <DistanceMeters>NAN</DistanceMeters>
          </Trackpoint>
          <Trackpoint>
            <Time>2022-07-13T06:10:03.000Z</Time>
            <Position>
              <LatitudeDegrees>43.40281737037003040313720703125</LatitudeDegrees>
              <LongitudeDegrees>-3.285804279148578643798828125</LongitudeDegrees>
            </Position>
            <AltitudeMeters>62.799999237060546875</AltitudeMeters>
            <DistanceMeters>NAN</DistanceMeters>
          </Trackpoint>
          <Trackpoint>
            <Time>2022-07-13T06:10:05.000Z</Time>
            <Position>
              <LatitudeDegrees>43.40282860212028026580810546875</LatitudeDegrees>
              <LongitudeDegrees>-3.2859150879085063934326171875</LongitudeDegrees>
            </Position>
            <AltitudeMeters>62.40000152587890625</AltitudeMeters>
            <DistanceMeters>NAN</DistanceMeters>
          </Trackpoint>
          <Trackpoint>
            <Time>2022-07-13T06:10:09.000Z</Time>
            <Position>
              <LatitudeDegrees>43.4028539992868900299072265625</LatitudeDegrees>
              <LongitudeDegrees>-3.286107368767261505126953125</LongitudeDegrees>
            </Position>
            <AltitudeMeters>62</AltitudeMeters>
            <DistanceMeters>NAN</DistanceMeters>
          </Trackpoint>
          <Trackpoint>
            <Time>2022-07-13T06:10:14.000Z</Time>
            <Position>
              <LatitudeDegrees>43.402878977358341217041015625</LatitudeDegrees>
              <LongitudeDegrees>-3.2863338477909564971923828125</LongitudeDegrees>
            </Position>
            <AltitudeMeters>61.799999237060546875</AltitudeMeters>
            <DistanceMeters>NAN</DistanceMeters>
          </Trackpoint>
          <Trackpoint>
            <Time>2022-07-13T06:10:16.000Z</Time>
            <Position>
              <LatitudeDegrees>43.40289062820374965667724609375</LatitudeDegrees>
              <LongitudeDegrees>-3.286437280476093292236328125</LongitudeDegrees>
            </Position>
            <AltitudeMeters>61.200000762939453125</AltitudeMeters>
            <DistanceMeters>NAN</DistanceMeters>
          </Trackpoint>
          <Trackpoint>
            <Time>2022-07-13T06:10:17.000Z</Time>
            <Position>
              <LatitudeDegrees>43.402897082269191741943359375</LatitudeDegrees>
              <LongitudeDegrees>-3.286494277417659759521484375</LongitudeDegrees>
            </Position>
            <AltitudeMeters>61</AltitudeMeters>
            <DistanceMeters>NAN</DistanceMeters>
          </Trackpoint>
          <Trackpoint>
            <Time>2022-07-13T06:10:19.000Z</Time>
            <Position>
              <LatitudeDegrees>43.40291426517069339752197265625</LatitudeDegrees>
              <LongitudeDegrees>-3.28663098625838756561279296875</LongitudeDegrees>
            </Position>
            <AltitudeMeters>60.40000152587890625</AltitudeMeters>
            <DistanceMeters>NAN</DistanceMeters>
          </Trackpoint>
          <Trackpoint>
            <Time>2022-07-13T06:10:21.000Z</Time>
            <Position>
              <LatitudeDegrees>43.40294846333563327789306640625</LatitudeDegrees>
              <LongitudeDegrees>-3.28679543919861316680908203125</LongitudeDegrees>
            </Position>
            <AltitudeMeters>60</AltitudeMeters>
            <DistanceMeters>NAN</DistanceMeters>
          </Trackpoint>
          <Trackpoint>
            <Time>2022-07-13T06:10:22.000Z</Time>
            <Position>
              <LatitudeDegrees>43.40297092683613300323486328125</LatitudeDegrees>
              <LongitudeDegrees>-3.28688479028642177581787109375</LongitudeDegrees>
            </Position>
            <AltitudeMeters>59.40000152587890625</AltitudeMeters>
            <DistanceMeters>NAN</DistanceMeters>
          </Trackpoint>
          <Trackpoint>
            <Time>2022-07-13T06:10:27.000Z</Time>
            <Position>
              <LatitudeDegrees>43.4030642174184322357177734375</LatitudeDegrees>
              <LongitudeDegrees>-3.28723649494349956512451171875</LongitudeDegrees>
            </Position>
            <AltitudeMeters>58.59999847412109375</AltitudeMeters>
            <DistanceMeters>NAN</DistanceMeters>
          </Trackpoint>
          <Trackpoint>
            <Time>2022-07-13T06:10:31.000Z</Time>
            <Position>
              <LatitudeDegrees>43.40308927930891513824462890625</LatitudeDegrees>
              <LongitudeDegrees>-3.2873866148293018341064453125</LongitudeDegrees>
            </Position>
            <AltitudeMeters>58.799999237060546875</AltitudeMeters>
            <DistanceMeters>NAN</DistanceMeters>
          </Trackpoint>
          <Trackpoint>
            <Time>2022-07-13T06:10:39.000Z</Time>
            <Position>
              <LatitudeDegrees>43.40314141474664211273193359375</LatitudeDegrees>
              <LongitudeDegrees>-3.287682831287384033203125</LongitudeDegrees>
            </Position>
            <AltitudeMeters>59.40000152587890625</AltitudeMeters>
            <DistanceMeters>NAN</DistanceMeters>
          </Trackpoint>
          <Trackpoint>
            <Time>2022-07-13T06:10:40.000Z</Time>
            <Position>
              <LatitudeDegrees>43.40314761735498905181884765625</LatitudeDegrees>
              <LongitudeDegrees>-3.28770973719656467437744140625</LongitudeDegrees>
            </Position>
            <AltitudeMeters>59.59999847412109375</AltitudeMeters>
            <DistanceMeters>NAN</DistanceMeters>
          </Trackpoint>
          <Trackpoint>
            <Time>2022-07-13T06:10:46.000Z</Time>
            <Position>
              <LatitudeDegrees>43.4031862579286098480224609375</LatitudeDegrees>
              <LongitudeDegrees>-3.28784686513245105743408203125</LongitudeDegrees>
            </Position>
            <AltitudeMeters>60.200000762939453125</AltitudeMeters>
            <DistanceMeters>NAN</DistanceMeters>
          </Trackpoint>
          <Trackpoint>
            <Time>2022-07-13T06:10:47.000Z</Time>
            <Position>
              <LatitudeDegrees>43.40319019742310047149658203125</LatitudeDegrees>
              <LongitudeDegrees>-3.28786882571876049041748046875</LongitudeDegrees>
            </Position>
            <AltitudeMeters>60.40000152587890625</AltitudeMeters>
            <DistanceMeters>NAN</DistanceMeters>
          </Trackpoint>
          <Trackpoint>
            <Time>2022-07-13T06:10:53.000Z</Time>
            <Position>
              <LatitudeDegrees>43.4032160975039005279541015625</LatitudeDegrees>
              <LongitudeDegrees>-3.2879921235144138336181640625</LongitudeDegrees>
            </Position>
            <AltitudeMeters>61</AltitudeMeters>
            <DistanceMeters>NAN</DistanceMeters>
          </Trackpoint>
          <Trackpoint>
            <Time>2022-07-13T06:10:57.000Z</Time>
            <Position>
              <LatitudeDegrees>43.4032288379967212677001953125</LatitudeDegrees>
              <LongitudeDegrees>-3.28808859921991825103759765625</LongitudeDegrees>
            </Position>
            <AltitudeMeters>61.40000152587890625</AltitudeMeters>
            <DistanceMeters>NAN</DistanceMeters>
          </Trackpoint>
          <Trackpoint>
            <Time>2022-07-13T06:10:59.000Z</Time>
            <Position>
              <LatitudeDegrees>43.40323428623378276824951171875</LatitudeDegrees>
              <LongitudeDegrees>-3.288132436573505401611328125</LongitudeDegrees>
            </Position>
            <AltitudeMeters>61.59999847412109375</AltitudeMeters>
            <DistanceMeters>NAN</DistanceMeters>
          </Trackpoint>
          <Trackpoint>
            <Time>2022-07-13T06:11:02.000Z</Time>
            <Position>
              <LatitudeDegrees>43.403247781097888946533203125</LatitudeDegrees>
              <LongitudeDegrees>-3.28819270245730876922607421875</LongitudeDegrees>
            </Position>
            <AltitudeMeters>62</AltitudeMeters>
            <DistanceMeters>NAN</DistanceMeters>
          </Trackpoint>
          <Trackpoint>
            <Time>2022-07-13T06:11:07.000Z</Time>
            <Position>
              <LatitudeDegrees>43.40327351354062557220458984375</LatitudeDegrees>
              <LongitudeDegrees>-3.28831289894878864288330078125</LongitudeDegrees>
            </Position>
            <AltitudeMeters>62.40000152587890625</AltitudeMeters>
            <DistanceMeters>NAN</DistanceMeters>
          </Trackpoint>
          <Trackpoint>
            <Time>2022-07-13T06:11:10.000Z</Time>
            <Position>
              <LatitudeDegrees>43.40329212136566638946533203125</LatitudeDegrees>
              <LongitudeDegrees>-3.288387916982173919677734375</LongitudeDegrees>
            </Position>
            <AltitudeMeters>62.59999847412109375</AltitudeMeters>
            <DistanceMeters>NAN</DistanceMeters>
          </Trackpoint>
          <Trackpoint>
            <Time>2022-07-13T06:11:19.000Z</Time>
            <Position>
              <LatitudeDegrees>43.40333931148052215576171875</LatitudeDegrees>
              <LongitudeDegrees>-3.2886053435504436492919921875</LongitudeDegrees>
            </Position>
            <AltitudeMeters>63.59999847412109375</AltitudeMeters>
            <DistanceMeters>NAN</DistanceMeters>
          </Trackpoint>
          <Trackpoint>
            <Time>2022-07-13T06:11:21.000Z</Time>
            <Position>
              <LatitudeDegrees>43.40335347689688205718994140625</LatitudeDegrees>
              <LongitudeDegrees>-3.28865177929401397705078125</LongitudeDegrees>
            </Position>
            <AltitudeMeters>63.59999847412109375</AltitudeMeters>
            <DistanceMeters>NAN</DistanceMeters>
          </Trackpoint>
          <Trackpoint>
            <Time>2022-07-13T06:11:30.000Z</Time>
            <Position>
              <LatitudeDegrees>43.4033971466124057769775390625</LatitudeDegrees>
              <LongitudeDegrees>-3.28889041207730770111083984375</LongitudeDegrees>
            </Position>
            <AltitudeMeters>64</AltitudeMeters>
            <DistanceMeters>NAN</DistanceMeters>
          </Trackpoint>
          <Trackpoint>
            <Time>2022-07-13T06:11:38.000Z</Time>
            <Position>
              <LatitudeDegrees>43.40346780605614185333251953125</LatitudeDegrees>
              <LongitudeDegrees>-3.2891781628131866455078125</LongitudeDegrees>
            </Position>
            <AltitudeMeters>64</AltitudeMeters>
            <DistanceMeters>NAN</DistanceMeters>
          </Trackpoint>
          <Trackpoint>
            <Time>2022-07-13T06:11:46.000Z</Time>
            <Position>
              <LatitudeDegrees>43.40351893566548824310302734375</LatitudeDegrees>
              <LongitudeDegrees>-3.28951167874038219451904296875</LongitudeDegrees>
            </Position>
            <AltitudeMeters>63.799999237060546875</AltitudeMeters>
            <DistanceMeters>NAN</DistanceMeters>
          </Trackpoint>
          <Trackpoint>
            <Time>2022-07-13T06:11:56.000Z</Time>
            <Position>
              <LatitudeDegrees>43.40359889902174472808837890625</LatitudeDegrees>
              <LongitudeDegrees>-3.289933539927005767822265625</LongitudeDegrees>
            </Position>
            <AltitudeMeters>64</AltitudeMeters>
            <DistanceMeters>NAN</DistanceMeters>
          </Trackpoint>
          <Trackpoint>
            <Time>2022-07-13T06:12:00.000Z</Time>
            <Position>
              <LatitudeDegrees>43.4036170877516269683837890625</LatitudeDegrees>
              <LongitudeDegrees>-3.2900084741413593292236328125</LongitudeDegrees>
            </Position>
            <AltitudeMeters>63.59999847412109375</AltitudeMeters>
            <DistanceMeters>NAN</DistanceMeters>
          </Trackpoint>
          <Trackpoint>
            <Time>2022-07-13T06:12:03.000Z</Time>
            <Position>
              <LatitudeDegrees>43.4036170877516269683837890625</LatitudeDegrees>
              <LongitudeDegrees>-3.2900084741413593292236328125</LongitudeDegrees>
            </Position>
            <AltitudeMeters>63.59999847412109375</AltitudeMeters>
            <DistanceMeters>NAN</DistanceMeters>
          </Trackpoint>
          <Trackpoint>
            <Time>2022-07-13T06:12:50.000Z</Time>
            <Position>
              <LatitudeDegrees>43.40360543690621852874755859375</LatitudeDegrees>
              <LongitudeDegrees>-3.28992976807057857513427734375</LongitudeDegrees>
            </Position>
            <AltitudeMeters>63.59999847412109375</AltitudeMeters>
            <DistanceMeters>NAN</DistanceMeters>
          </Trackpoint>
          <Trackpoint>
            <Time>2022-07-13T06:12:55.000Z</Time>
            <Position>
              <LatitudeDegrees>43.4035491943359375</LatitudeDegrees>
              <LongitudeDegrees>-3.2896289415657520294189453125</LongitudeDegrees>
            </Position>
            <AltitudeMeters>64</AltitudeMeters>
            <DistanceMeters>NAN</DistanceMeters>
          </Trackpoint>
          <Trackpoint>
            <Time>2022-07-13T06:13:02.000Z</Time>
            <Position>
              <LatitudeDegrees>43.40349311940371990203857421875</LatitudeDegrees>
              <LongitudeDegrees>-3.28928134404122829437255859375</LongitudeDegrees>
            </Position>
            <AltitudeMeters>63.799999237060546875</AltitudeMeters>
            <DistanceMeters>NAN</DistanceMeters>
          </Trackpoint>
          <Trackpoint>
            <Time>2022-07-13T06:13:04.000Z</Time>
            <Position>
              <LatitudeDegrees>43.4034886769950389862060546875</LatitudeDegrees>
              <LongitudeDegrees>-3.28920037485659122467041015625</LongitudeDegrees>
            </Position>
            <AltitudeMeters>63.59999847412109375</AltitudeMeters>
            <DistanceMeters>NAN</DistanceMeters>
          </Trackpoint>
          <Trackpoint>
            <Time>2022-07-13T06:13:05.000Z</Time>
            <Position>
              <LatitudeDegrees>43.403482474386692047119140625</LatitudeDegrees>
              <LongitudeDegrees>-3.28917346894741058349609375</LongitudeDegrees>
            </Position>
            <AltitudeMeters>63.59999847412109375</AltitudeMeters>
            <DistanceMeters>NAN</DistanceMeters>
          </Trackpoint>
          <Trackpoint>
            <Time>2022-07-13T06:13:06.000Z</Time>
            <Position>
              <LatitudeDegrees>43.40346981771290302276611328125</LatitudeDegrees>
              <LongitudeDegrees>-3.28916667960584163665771484375</LongitudeDegrees>
            </Position>
            <AltitudeMeters>63.59999847412109375</AltitudeMeters>
            <DistanceMeters>NAN</DistanceMeters>
          </Trackpoint>
          <Trackpoint>
            <Time>2022-07-13T06:13:07.000Z</Time>
            <Position>
              <LatitudeDegrees>43.40345866978168487548828125</LatitudeDegrees>
              <LongitudeDegrees>-3.28917707316577434539794921875</LongitudeDegrees>
            </Position>
            <AltitudeMeters>63.59999847412109375</AltitudeMeters>
            <DistanceMeters>NAN</DistanceMeters>
          </Trackpoint>
          <Trackpoint>
            <Time>2022-07-13T06:13:10.000Z</Time>
            <Position>
              <LatitudeDegrees>43.40347484685480594635009765625</LatitudeDegrees>
              <LongitudeDegrees>-3.28925150446593761444091796875</LongitudeDegrees>
            </Position>
            <AltitudeMeters>63.59999847412109375</AltitudeMeters>
            <DistanceMeters>NAN</DistanceMeters>
          </Trackpoint>
          <Trackpoint>
            <Time>2022-07-13T06:13:15.000Z</Time>
            <Position>
              <LatitudeDegrees>43.4035305865108966827392578125</LatitudeDegrees>
              <LongitudeDegrees>-3.28949877060949802398681640625</LongitudeDegrees>
            </Position>
            <AltitudeMeters>63.799999237060546875</AltitudeMeters>
            <DistanceMeters>NAN</DistanceMeters>
          </Trackpoint>
          <Trackpoint>
            <Time>2022-07-13T06:13:23.000Z</Time>
            <Position>
              <LatitudeDegrees>43.40360946021974086761474609375</LatitudeDegrees>
              <LongitudeDegrees>-3.28993261791765689849853515625</LongitudeDegrees>
            </Position>
            <AltitudeMeters>64</AltitudeMeters>
            <DistanceMeters>NAN</DistanceMeters>
          </Trackpoint>
          <Trackpoint>
            <Time>2022-07-13T06:13:27.000Z</Time>
            <Position>
              <LatitudeDegrees>43.403629325330257415771484375</LatitudeDegrees>
              <LongitudeDegrees>-3.29001559875905513763427734375</LongitudeDegrees>
            </Position>
            <AltitudeMeters>63.799999237060546875</AltitudeMeters>
            <DistanceMeters>NAN</DistanceMeters>
          </Trackpoint>
          <Trackpoint>
            <Time>2022-07-13T06:13:28.000Z</Time>
            <Position>
              <LatitudeDegrees>43.403629325330257415771484375</LatitudeDegrees>
              <LongitudeDegrees>-3.29001559875905513763427734375</LongitudeDegrees>
            </Position>
            <AltitudeMeters>63.799999237060546875</AltitudeMeters>
            <DistanceMeters>NAN</DistanceMeters>
          </Trackpoint>
          <Trackpoint>
            <Time>2022-07-13T06:14:23.000Z</Time>
            <Position>
              <LatitudeDegrees>43.403638713061809539794921875</LatitudeDegrees>
              <LongitudeDegrees>-3.29008298926055431365966796875</LongitudeDegrees>
            </Position>
            <AltitudeMeters>63.40000152587890625</AltitudeMeters>
            <DistanceMeters>NAN</DistanceMeters>
          </Trackpoint>
          <Trackpoint>
            <Time>2022-07-13T06:14:24.000Z</Time>
            <Position>
              <LatitudeDegrees>43.403645418584346771240234375</LatitudeDegrees>
              <LongitudeDegrees>-3.29011618159711360931396484375</LongitudeDegrees>
            </Position>
            <AltitudeMeters>63.40000152587890625</AltitudeMeters>
            <DistanceMeters>NAN</DistanceMeters>
          </Trackpoint>
          <Trackpoint>
            <Time>2022-07-13T06:14:25.000Z</Time>
            <Position>
              <LatitudeDegrees>43.4036551415920257568359375</LatitudeDegrees>
              <LongitudeDegrees>-3.2901502959430217742919921875</LongitudeDegrees>
            </Position>
            <AltitudeMeters>63.40000152587890625</AltitudeMeters>
            <DistanceMeters>NAN</DistanceMeters>
          </Trackpoint>
          <Trackpoint>
            <Time>2022-07-13T06:14:34.000Z</Time>
            <Position>
              <LatitudeDegrees>43.4037377871572971343994140625</LatitudeDegrees>
              <LongitudeDegrees>-3.29047509469091892242431640625</LongitudeDegrees>
            </Position>
            <AltitudeMeters>63.799999237060546875</AltitudeMeters>
            <DistanceMeters>NAN</DistanceMeters>
          </Trackpoint>
          <Trackpoint>
            <Time>2022-07-13T06:14:39.000Z</Time>
            <Position>
              <LatitudeDegrees>43.40379017405211925506591796875</LatitudeDegrees>
              <LongitudeDegrees>-3.29074029810726642608642578125</LongitudeDegrees>
            </Position>
            <AltitudeMeters>63</AltitudeMeters>
            <DistanceMeters>NAN</DistanceMeters>
          </Trackpoint>
          <Trackpoint>
            <Time>2022-07-13T06:14:42.000Z</Time>
            <Position>
              <LatitudeDegrees>43.40383627451956272125244140625</LatitudeDegrees>
              <LongitudeDegrees>-3.2909643463790416717529296875</LongitudeDegrees>
            </Position>
            <AltitudeMeters>62.200000762939453125</AltitudeMeters>
            <DistanceMeters>NAN</DistanceMeters>
          </Trackpoint>
          <Trackpoint>
            <Time>2022-07-13T06:14:44.000Z</Time>
            <Position>
              <LatitudeDegrees>43.4038655273616313934326171875</LatitudeDegrees>
              <LongitudeDegrees>-3.29113022424280643463134765625</LongitudeDegrees>
            </Position>
            <AltitudeMeters>61.59999847412109375</AltitudeMeters>
            <DistanceMeters>NAN</DistanceMeters>
          </Trackpoint>
          <Trackpoint>
            <Time>2022-07-13T06:14:47.000Z</Time>
            <Position>
              <LatitudeDegrees>43.4039124660193920135498046875</LatitudeDegrees>
              <LongitudeDegrees>-3.2913883030414581298828125</LongitudeDegrees>
            </Position>
            <AltitudeMeters>61.200000762939453125</AltitudeMeters>
            <DistanceMeters>NAN</DistanceMeters>
          </Trackpoint>
          <Trackpoint>
            <Time>2022-07-13T06:14:49.000Z</Time>
            <Position>
              <LatitudeDegrees>43.4039359353482723236083984375</LatitudeDegrees>
              <LongitudeDegrees>-3.29153976403176784515380859375</LongitudeDegrees>
            </Position>
            <AltitudeMeters>61</AltitudeMeters>
            <DistanceMeters>NAN</DistanceMeters>
          </Trackpoint>
          <Trackpoint>
            <Time>2022-07-13T06:14:50.000Z</Time>
            <Position>
              <LatitudeDegrees>43.40395010076463222503662109375</LatitudeDegrees>
              <LongitudeDegrees>-3.291613943874835968017578125</LongitudeDegrees>
            </Position>
            <AltitudeMeters>60.799999237060546875</AltitudeMeters>
            <DistanceMeters>NAN</DistanceMeters>
          </Trackpoint>
          <Trackpoint>
            <Time>2022-07-13T06:14:57.000Z</Time>
            <Position>
              <LatitudeDegrees>43.40404431335628032684326171875</LatitudeDegrees>
              <LongitudeDegrees>-3.2922152616083621978759765625</LongitudeDegrees>
            </Position>
            <AltitudeMeters>60.59999847412109375</AltitudeMeters>
            <DistanceMeters>NAN</DistanceMeters>
          </Trackpoint>
          <Trackpoint>
            <Time>2022-07-13T06:14:58.000Z</Time>
            <Position>
              <LatitudeDegrees>43.40406007133424282073974609375</LatitudeDegrees>
              <LongitudeDegrees>-3.2923054508864879608154296875</LongitudeDegrees>
            </Position>
            <AltitudeMeters>60.59999847412109375</AltitudeMeters>
            <DistanceMeters>NAN</DistanceMeters>
          </Trackpoint>
          <Trackpoint>
            <Time>2022-07-13T06:15:01.000Z</Time>
            <Position>
              <LatitudeDegrees>43.40410030446946620941162109375</LatitudeDegrees>
              <LongitudeDegrees>-3.29256269149482250213623046875</LongitudeDegrees>
            </Position>
            <AltitudeMeters>60.200000762939453125</AltitudeMeters>
            <DistanceMeters>NAN</DistanceMeters>
          </Trackpoint>
          <Trackpoint>
            <Time>2022-07-13T06:15:02.000Z</Time>
            <Position>
              <LatitudeDegrees>43.40411388315260410308837890625</LatitudeDegrees>
              <LongitudeDegrees>-3.2926464267075061798095703125</LongitudeDegrees>
            </Position>
            <AltitudeMeters>60</AltitudeMeters>
            <DistanceMeters>NAN</DistanceMeters>
          </Trackpoint>
          <Trackpoint>
            <Time>2022-07-13T06:15:09.000Z</Time>
            <Position>
              <LatitudeDegrees>43.4041780047118663787841796875</LatitudeDegrees>
              <LongitudeDegrees>-3.29322067089378833770751953125</LongitudeDegrees>
            </Position>
            <AltitudeMeters>59.200000762939453125</AltitudeMeters>
            <DistanceMeters>NAN</DistanceMeters>
          </Trackpoint>
          <Trackpoint>
            <Time>2022-07-13T06:15:12.000Z</Time>
            <Position>
              <LatitudeDegrees>43.40419066138565540313720703125</LatitudeDegrees>
              <LongitudeDegrees>-3.293488137423992156982421875</LongitudeDegrees>
            </Position>
            <AltitudeMeters>59</AltitudeMeters>
            <DistanceMeters>NAN</DistanceMeters>
          </Trackpoint>
          <Trackpoint>
            <Time>2022-07-13T06:15:16.000Z</Time>
            <Position>
              <LatitudeDegrees>43.4042142145335674285888671875</LatitudeDegrees>
              <LongitudeDegrees>-3.29388468526303768157958984375</LongitudeDegrees>
            </Position>
            <AltitudeMeters>57.799999237060546875</AltitudeMeters>
            <DistanceMeters>NAN</DistanceMeters>
          </Trackpoint>
          <Trackpoint>
            <Time>2022-07-13T06:15:17.000Z</Time>
            <Position>
              <LatitudeDegrees>43.40422184206545352935791015625</LatitudeDegrees>
              <LongitudeDegrees>-3.29399348236620426177978515625</LongitudeDegrees>
            </Position>
            <AltitudeMeters>57.40000152587890625</AltitudeMeters>
            <DistanceMeters>NAN</DistanceMeters>
          </Trackpoint>
          <Trackpoint>
            <Time>2022-07-13T06:15:19.000Z</Time>
            <Position>
              <LatitudeDegrees>43.40423441492021083831787109375</LatitudeDegrees>
              <LongitudeDegrees>-3.2942208833992481231689453125</LongitudeDegrees>
            </Position>
            <AltitudeMeters>56.59999847412109375</AltitudeMeters>
            <DistanceMeters>NAN</DistanceMeters>
          </Trackpoint>
          <Trackpoint>
            <Time>2022-07-13T06:15:22.000Z</Time>
            <Position>
              <LatitudeDegrees>43.40425218455493450164794921875</LatitudeDegrees>
              <LongitudeDegrees>-3.2945715822279453277587890625</LongitudeDegrees>
            </Position>
            <AltitudeMeters>55.200000762939453125</AltitudeMeters>
            <DistanceMeters>NAN</DistanceMeters>
          </Trackpoint>
          <Trackpoint>
            <Time>2022-07-13T06:15:23.000Z</Time>
            <Position>
              <LatitudeDegrees>43.40425771661102771759033203125</LatitudeDegrees>
              <LongitudeDegrees>-3.294690437614917755126953125</LongitudeDegrees>
            </Position>
            <AltitudeMeters>55</AltitudeMeters>
            <DistanceMeters>NAN</DistanceMeters>
          </Trackpoint>
          <Trackpoint>
            <Time>2022-07-13T06:15:24.000Z</Time>
            <Position>
              <LatitudeDegrees>43.40426173992455005645751953125</LatitudeDegrees>
              <LongitudeDegrees>-3.2948102988302707672119140625</LongitudeDegrees>
            </Position>
            <AltitudeMeters>54.59999847412109375</AltitudeMeters>
            <DistanceMeters>NAN</DistanceMeters>
          </Trackpoint>
          <Trackpoint>
            <Time>2022-07-13T06:15:26.000Z</Time>
            <Position>
              <LatitudeDegrees>43.4042812697589397430419921875</LatitudeDegrees>
              <LongitudeDegrees>-3.295053206384181976318359375</LongitudeDegrees>
            </Position>
            <AltitudeMeters>53.799999237060546875</AltitudeMeters>
            <DistanceMeters>NAN</DistanceMeters>
          </Trackpoint>
          <Trackpoint>
            <Time>2022-07-13T06:15:28.000Z</Time>
            <Position>
              <LatitudeDegrees>43.4043077565729618072509765625</LatitudeDegrees>
              <LongitudeDegrees>-3.29528496600687503814697265625</LongitudeDegrees>
            </Position>
            <AltitudeMeters>53.200000762939453125</AltitudeMeters>
            <DistanceMeters>NAN</DistanceMeters>
          </Trackpoint>
          <Trackpoint>
            <Time>2022-07-13T06:15:29.000Z</Time>
            <Position>
              <LatitudeDegrees>43.40432695113122463226318359375</LatitudeDegrees>
              <LongitudeDegrees>-3.29539711587131023406982421875</LongitudeDegrees>
            </Position>
            <AltitudeMeters>52.799999237060546875</AltitudeMeters>
            <DistanceMeters>NAN</DistanceMeters>
          </Trackpoint>
          <Trackpoint>
            <Time>2022-07-13T06:15:32.000Z</Time>
            <Position>
              <LatitudeDegrees>43.40438763611018657684326171875</LatitudeDegrees>
              <LongitudeDegrees>-3.29572878777980804443359375</LongitudeDegrees>
            </Position>
            <AltitudeMeters>52</AltitudeMeters>
            <DistanceMeters>NAN</DistanceMeters>
          </Trackpoint>
          <Trackpoint>
            <Time>2022-07-13T06:15:34.000Z</Time>
            <Position>
              <LatitudeDegrees>43.4044116921722888946533203125</LatitudeDegrees>
              <LongitudeDegrees>-3.2959522493183612823486328125</LongitudeDegrees>
            </Position>
            <AltitudeMeters>51.59999847412109375</AltitudeMeters>
            <DistanceMeters>NAN</DistanceMeters>
          </Trackpoint>
          <Trackpoint>
            <Time>2022-07-13T06:15:38.000Z</Time>
            <Position>
              <LatitudeDegrees>43.40446810238063335418701171875</LatitudeDegrees>
              <LongitudeDegrees>-3.29636522568762302398681640625</LongitudeDegrees>
            </Position>
            <AltitudeMeters>50.200000762939453125</AltitudeMeters>
            <DistanceMeters>NAN</DistanceMeters>
          </Trackpoint>
          <Trackpoint>
            <Time>2022-07-13T06:15:39.000Z</Time>
            <Position>
              <LatitudeDegrees>43.40448553673923015594482421875</LatitudeDegrees>
              <LongitudeDegrees>-3.2964625395834445953369140625</LongitudeDegrees>
            </Position>
            <AltitudeMeters>50.200000762939453125</AltitudeMeters>
            <DistanceMeters>NAN</DistanceMeters>
          </Trackpoint>
          <Trackpoint>
            <Time>2022-07-13T06:15:42.000Z</Time>
            <Position>
              <LatitudeDegrees>43.4045295417308807373046875</LatitudeDegrees>
              <LongitudeDegrees>-3.2967555709183216094970703125</LongitudeDegrees>
            </Position>
            <AltitudeMeters>49.59999847412109375</AltitudeMeters>
            <DistanceMeters>NAN</DistanceMeters>
          </Trackpoint>
          <Trackpoint>
            <Time>2022-07-13T06:15:45.000Z</Time>
            <Position>
              <LatitudeDegrees>43.40456214733421802520751953125</LatitudeDegrees>
              <LongitudeDegrees>-3.297036029398441314697265625</LongitudeDegrees>
            </Position>
            <AltitudeMeters>49.40000152587890625</AltitudeMeters>
            <DistanceMeters>NAN</DistanceMeters>
          </Trackpoint>
          <Trackpoint>
            <Time>2022-07-13T06:15:47.000Z</Time>
            <Position>
              <LatitudeDegrees>43.40458511374890804290771484375</LatitudeDegrees>
              <LongitudeDegrees>-3.29721012152731418609619140625</LongitudeDegrees>
            </Position>
            <AltitudeMeters>49.200000762939453125</AltitudeMeters>
            <DistanceMeters>NAN</DistanceMeters>
          </Trackpoint>
          <Trackpoint>
            <Time>2022-07-13T06:15:50.000Z</Time>
            <Position>
              <LatitudeDegrees>43.40462484396994113922119140625</LatitudeDegrees>
              <LongitudeDegrees>-3.29745135270059108734130859375</LongitudeDegrees>
            </Position>
            <AltitudeMeters>49</AltitudeMeters>
            <DistanceMeters>NAN</DistanceMeters>
          </Trackpoint>
          <Trackpoint>
            <Time>2022-07-13T06:15:58.000Z</Time>
            <Position>
              <LatitudeDegrees>43.404723666608333587646484375</LatitudeDegrees>
              <LongitudeDegrees>-3.29808401875197887420654296875</LongitudeDegrees>
            </Position>
            <AltitudeMeters>48.200000762939453125</AltitudeMeters>
            <DistanceMeters>NAN</DistanceMeters>
          </Trackpoint>
          <Trackpoint>
            <Time>2022-07-13T06:16:00.000Z</Time>
            <Position>
              <LatitudeDegrees>43.4047432802617549896240234375</LatitudeDegrees>
              <LongitudeDegrees>-3.29824210144579410552978515625</LongitudeDegrees>
            </Position>
            <AltitudeMeters>48</AltitudeMeters>
            <DistanceMeters>NAN</DistanceMeters>
          </Trackpoint>
          <Trackpoint>
            <Time>2022-07-13T06:16:03.000Z</Time>
            <Position>
              <LatitudeDegrees>43.4047761373221874237060546875</LatitudeDegrees>
              <LongitudeDegrees>-3.29847578890621662139892578125</LongitudeDegrees>
            </Position>
            <AltitudeMeters>47.59999847412109375</AltitudeMeters>
            <DistanceMeters>NAN</DistanceMeters>
          </Trackpoint>
          <Trackpoint>
            <Time>2022-07-13T06:16:08.000Z</Time>
            <Position>
              <LatitudeDegrees>43.40483070351183414459228515625</LatitudeDegrees>
              <LongitudeDegrees>-3.29885850660502910614013671875</LongitudeDegrees>
            </Position>
            <AltitudeMeters>47.200000762939453125</AltitudeMeters>
            <DistanceMeters>NAN</DistanceMeters>
          </Trackpoint>
          <Trackpoint>
            <Time>2022-07-13T06:16:11.000Z</Time>
            <Position>
              <LatitudeDegrees>43.40485618449747562408447265625</LatitudeDegrees>
              <LongitudeDegrees>-3.29905548132956027984619140625</LongitudeDegrees>
            </Position>
            <AltitudeMeters>46.799999237060546875</AltitudeMeters>
            <DistanceMeters>NAN</DistanceMeters>
          </Trackpoint>
          <Trackpoint>
            <Time>2022-07-13T06:16:12.000Z</Time>
            <Position>
              <LatitudeDegrees>43.4048659913241863250732421875</LatitudeDegrees>
              <LongitudeDegrees>-3.29910644330084323883056640625</LongitudeDegrees>
            </Position>
            <AltitudeMeters>46.799999237060546875</AltitudeMeters>
            <DistanceMeters>NAN</DistanceMeters>
          </Trackpoint>
          <Trackpoint>
            <Time>2022-07-13T06:16:14.000Z</Time>
            <Position>
              <LatitudeDegrees>43.4049132652580738067626953125</LatitudeDegrees>
              <LongitudeDegrees>-3.29916536808013916015625</LongitudeDegrees>
            </Position>
            <AltitudeMeters>46.59999847412109375</AltitudeMeters>
            <DistanceMeters>NAN</DistanceMeters>
          </Trackpoint>
          <Trackpoint>
            <Time>2022-07-13T06:16:18.000Z</Time>
            <Position>
              <LatitudeDegrees>43.40504427440464496612548828125</LatitudeDegrees>
              <LongitudeDegrees>-3.299156315624713897705078125</LongitudeDegrees>
            </Position>
            <AltitudeMeters>46.200000762939453125</AltitudeMeters>
            <DistanceMeters>NAN</DistanceMeters>
          </Trackpoint>
          <Trackpoint>
            <Time>2022-07-13T06:16:22.000Z</Time>
            <Position>
              <LatitudeDegrees>43.4051544964313507080078125</LatitudeDegrees>
              <LongitudeDegrees>-3.29917542636394500732421875</LongitudeDegrees>
            </Position>
            <AltitudeMeters>45.799999237060546875</AltitudeMeters>
            <DistanceMeters>NAN</DistanceMeters>
          </Trackpoint>
          <Trackpoint>
            <Time>2022-07-13T06:16:24.000Z</Time>
            <Position>
              <LatitudeDegrees>43.405192382633686065673828125</LatitudeDegrees>
              <LongitudeDegrees>-3.29921641387045383453369140625</LongitudeDegrees>
            </Position>
            <AltitudeMeters>45.59999847412109375</AltitudeMeters>
            <DistanceMeters>NAN</DistanceMeters>
          </Trackpoint>
          <Trackpoint>
            <Time>2022-07-13T06:16:28.000Z</Time>
            <Position>
              <LatitudeDegrees>43.4052150137722492218017578125</LatitudeDegrees>
              <LongitudeDegrees>-3.29931364394724369049072265625</LongitudeDegrees>
            </Position>
            <AltitudeMeters>45.40000152587890625</AltitudeMeters>
            <DistanceMeters>NAN</DistanceMeters>
          </Trackpoint>
          <Trackpoint>
            <Time>2022-07-13T06:16:35.000Z</Time>
            <Position>
              <LatitudeDegrees>43.4052012674510478973388671875</LatitudeDegrees>
              <LongitudeDegrees>-3.299531154334545135498046875</LongitudeDegrees>
            </Position>
            <AltitudeMeters>45.59999847412109375</AltitudeMeters>
            <DistanceMeters>NAN</DistanceMeters>
          </Trackpoint>
          <Trackpoint>
            <Time>2022-07-13T06:16:42.000Z</Time>
            <Position>
              <LatitudeDegrees>43.40516380034387111663818359375</LatitudeDegrees>
              <LongitudeDegrees>-3.29972787760198116302490234375</LongitudeDegrees>
            </Position>
            <AltitudeMeters>45.59999847412109375</AltitudeMeters>
            <DistanceMeters>NAN</DistanceMeters>
          </Trackpoint>
          <Trackpoint>
            <Time>2022-07-13T06:16:48.000Z</Time>
            <Position>
              <LatitudeDegrees>43.4050450287759304046630859375</LatitudeDegrees>
              <LongitudeDegrees>-3.29993306659162044525146484375</LongitudeDegrees>
            </Position>
            <AltitudeMeters>45.59999847412109375</AltitudeMeters>
            <DistanceMeters>NAN</DistanceMeters>
          </Trackpoint>
          <Trackpoint>
            <Time>2022-07-13T06:16:53.000Z</Time>
            <Position>
              <LatitudeDegrees>43.404967747628688812255859375</LatitudeDegrees>
              <LongitudeDegrees>-3.30001185648143291473388671875</LongitudeDegrees>
            </Position>
            <AltitudeMeters>45</AltitudeMeters>
            <DistanceMeters>NAN</DistanceMeters>
          </Trackpoint>
          <Trackpoint>
            <Time>2022-07-13T06:16:56.000Z</Time>
            <Position>
              <LatitudeDegrees>43.40494939126074314117431640625</LatitudeDegrees>
              <LongitudeDegrees>-3.30002778209745883941650390625</LongitudeDegrees>
            </Position>
            <AltitudeMeters>44.799999237060546875</AltitudeMeters>
            <DistanceMeters>NAN</DistanceMeters>
          </Trackpoint>
          <Trackpoint>
            <Time>2022-07-13T06:16:59.000Z</Time>
            <Position>
              <LatitudeDegrees>43.40494939126074314117431640625</LatitudeDegrees>
              <LongitudeDegrees>-3.30002778209745883941650390625</LongitudeDegrees>
            </Position>
            <AltitudeMeters>44.799999237060546875</AltitudeMeters>
            <DistanceMeters>NAN</DistanceMeters>
          </Trackpoint>
          <Trackpoint>
            <Time>2022-07-13T06:17:06.000Z</Time>
            <Position>
              <LatitudeDegrees>43.404882587492465972900390625</LatitudeDegrees>
              <LongitudeDegrees>-3.30002476461231708526611328125</LongitudeDegrees>
            </Position>
            <AltitudeMeters>44.59999847412109375</AltitudeMeters>
            <DistanceMeters>NAN</DistanceMeters>
          </Trackpoint>
          <Trackpoint>
            <Time>2022-07-13T06:17:08.000Z</Time>
            <Position>
              <LatitudeDegrees>43.4048609621822834014892578125</LatitudeDegrees>
              <LongitudeDegrees>-3.30001168884336948394775390625</LongitudeDegrees>
            </Position>
            <AltitudeMeters>44.799999237060546875</AltitudeMeters>
            <DistanceMeters>NAN</DistanceMeters>
          </Trackpoint>
          <Trackpoint>
            <Time>2022-07-13T06:17:11.000Z</Time>
            <Position>
              <LatitudeDegrees>43.40483464300632476806640625</LatitudeDegrees>
              <LongitudeDegrees>-3.300000540912151336669921875</LongitudeDegrees>
            </Position>
            <AltitudeMeters>44.799999237060546875</AltitudeMeters>
            <DistanceMeters>NAN</DistanceMeters>
          </Trackpoint>
          <Trackpoint>
            <Time>2022-07-13T06:17:14.000Z</Time>
            <Position>
              <LatitudeDegrees>43.404777310788631439208984375</LatitudeDegrees>
              <LongitudeDegrees>-3.30000179819762706756591796875</LongitudeDegrees>
            </Position>
            <AltitudeMeters>44.799999237060546875</AltitudeMeters>
            <DistanceMeters>NAN</DistanceMeters>
          </Trackpoint>
          <Trackpoint>
            <Time>2022-07-13T06:17:18.000Z</Time>
            <Position>
              <LatitudeDegrees>43.40468033216893672943115234375</LatitudeDegrees>
              <LongitudeDegrees>-3.300020992755889892578125</LongitudeDegrees>
            </Position>
            <AltitudeMeters>45</AltitudeMeters>
            <DistanceMeters>NAN</DistanceMeters>
          </Trackpoint>
          <Trackpoint>
            <Time>2022-07-13T06:17:20.000Z</Time>
            <Position>
              <LatitudeDegrees>43.40463406406342983245849609375</LatitudeDegrees>
              <LongitudeDegrees>-3.300017304718494415283203125</LongitudeDegrees>
            </Position>
            <AltitudeMeters>45.200000762939453125</AltitudeMeters>
            <DistanceMeters>NAN</DistanceMeters>
          </Trackpoint>
          <Trackpoint>
            <Time>2022-07-13T06:17:27.000Z</Time>
            <Position>
              <LatitudeDegrees>43.40450741350650787353515625</LatitudeDegrees>
              <LongitudeDegrees>-3.29998034052550792694091796875</LongitudeDegrees>
            </Position>
            <AltitudeMeters>45.799999237060546875</AltitudeMeters>
            <DistanceMeters>NAN</DistanceMeters>
          </Trackpoint>
          <Trackpoint>
            <Time>2022-07-13T06:17:28.000Z</Time>
            <Position>
              <LatitudeDegrees>43.40448888950049877166748046875</LatitudeDegrees>
              <LongitudeDegrees>-3.29998008906841278076171875</LongitudeDegrees>
            </Position>
            <AltitudeMeters>46</AltitudeMeters>
            <DistanceMeters>NAN</DistanceMeters>
          </Trackpoint>
          <Trackpoint>
            <Time>2022-07-13T06:17:35.000Z</Time>
            <Position>
              <LatitudeDegrees>43.40434757061302661895751953125</LatitudeDegrees>
              <LongitudeDegrees>-3.29998352564871311187744140625</LongitudeDegrees>
            </Position>
            <AltitudeMeters>47</AltitudeMeters>
            <DistanceMeters>NAN</DistanceMeters>
          </Trackpoint>
          <Trackpoint>
            <Time>2022-07-13T06:17:36.000Z</Time>
            <Position>
              <LatitudeDegrees>43.40432636439800262451171875</LatitudeDegrees>
              <LongitudeDegrees>-3.29998587258160114288330078125</LongitudeDegrees>
            </Position>
            <AltitudeMeters>47</AltitudeMeters>
            <DistanceMeters>NAN</DistanceMeters>
          </Trackpoint>
          <Trackpoint>
            <Time>2022-07-13T06:17:44.000Z</Time>
            <Position>
              <LatitudeDegrees>43.40415428392589092254638671875</LatitudeDegrees>
              <LongitudeDegrees>-3.30004421062767505645751953125</LongitudeDegrees>
            </Position>
            <AltitudeMeters>47.59999847412109375</AltitudeMeters>
            <DistanceMeters>NAN</DistanceMeters>
          </Trackpoint>
          <Trackpoint>
            <Time>2022-07-13T06:17:49.000Z</Time>
            <Position>
              <LatitudeDegrees>43.4040190838277339935302734375</LatitudeDegrees>
              <LongitudeDegrees>-3.30003105103969573974609375</LongitudeDegrees>
            </Position>
            <AltitudeMeters>47.40000152587890625</AltitudeMeters>
            <DistanceMeters>NAN</DistanceMeters>
          </Trackpoint>
          <Trackpoint>
            <Time>2022-07-13T06:17:52.000Z</Time>
            <Position>
              <LatitudeDegrees>43.403992764651775360107421875</LatitudeDegrees>
              <LongitudeDegrees>-3.2999655045568943023681640625</LongitudeDegrees>
            </Position>
            <AltitudeMeters>47.799999237060546875</AltitudeMeters>
            <DistanceMeters>NAN</DistanceMeters>
          </Trackpoint>
          <Trackpoint>
            <Time>2022-07-13T06:17:53.000Z</Time>
            <Position>
              <LatitudeDegrees>43.403998129069805145263671875</LatitudeDegrees>
              <LongitudeDegrees>-3.29994044266641139984130859375</LongitudeDegrees>
            </Position>
            <AltitudeMeters>47.799999237060546875</AltitudeMeters>
            <DistanceMeters>NAN</DistanceMeters>
          </Trackpoint>
          <Trackpoint>
            <Time>2022-07-13T06:17:54.000Z</Time>
            <Position>
              <LatitudeDegrees>43.40400290675461292266845703125</LatitudeDegrees>
              <LongitudeDegrees>-3.29992183484137058258056640625</LongitudeDegrees>
            </Position>
            <AltitudeMeters>48</AltitudeMeters>
            <DistanceMeters>NAN</DistanceMeters>
          </Trackpoint>
          <Trackpoint>
            <Time>2022-07-13T06:17:57.000Z</Time>
            <Position>
              <LatitudeDegrees>43.40402352623641490936279296875</LatitudeDegrees>
              <LongitudeDegrees>-3.29985327087342739105224609375</LongitudeDegrees>
            </Position>
            <AltitudeMeters>48.40000152587890625</AltitudeMeters>
            <DistanceMeters>NAN</DistanceMeters>
          </Trackpoint>
          <Trackpoint>
            <Time>2022-07-13T06:17:59.000Z</Time>
            <Position>
              <LatitudeDegrees>43.40404129587113857269287109375</LatitudeDegrees>
              <LongitudeDegrees>-3.29981102608144283294677734375</LongitudeDegrees>
            </Position>
            <AltitudeMeters>48.59999847412109375</AltitudeMeters>
            <DistanceMeters>NAN</DistanceMeters>
          </Trackpoint>
          <Trackpoint>
            <Time>2022-07-13T06:18:03.000Z</Time>
            <Position>
              <LatitudeDegrees>43.40410298667848110198974609375</LatitudeDegrees>
              <LongitudeDegrees>-3.299732990562915802001953125</LongitudeDegrees>
            </Position>
            <AltitudeMeters>48.59999847412109375</AltitudeMeters>
            <DistanceMeters>NAN</DistanceMeters>
          </Trackpoint>
          <Trackpoint>
            <Time>2022-07-13T06:18:06.000Z</Time>
            <Position>
              <LatitudeDegrees>43.40410483069717884063720703125</LatitudeDegrees>
              <LongitudeDegrees>-3.29973106272518634796142578125</LongitudeDegrees>
            </Position>
            <AltitudeMeters>48.59999847412109375</AltitudeMeters>
            <DistanceMeters>NAN</DistanceMeters>
          </Trackpoint>
          <Trackpoint>
            <Time>2022-07-13T06:19:03.000Z</Time>
            <Position>
              <LatitudeDegrees>43.40408622287213802337646484375</LatitudeDegrees>
              <LongitudeDegrees>-3.29976224340498447418212890625</LongitudeDegrees>
            </Position>
            <AltitudeMeters>47.59999847412109375</AltitudeMeters>
            <DistanceMeters>NAN</DistanceMeters>
          </Trackpoint>
          <Trackpoint>
            <Time>2022-07-13T06:19:04.000Z</Time>
            <Position>
              <LatitudeDegrees>43.4040697105228900909423828125</LatitudeDegrees>
              <LongitudeDegrees>-3.29976727254688739776611328125</LongitudeDegrees>
            </Position>
            <AltitudeMeters>47.59999847412109375</AltitudeMeters>
            <DistanceMeters>NAN</DistanceMeters>
          </Trackpoint>
          <Trackpoint>
            <Time>2022-07-13T06:19:05.000Z</Time>
            <Position>
              <LatitudeDegrees>43.40404934249818325042724609375</LatitudeDegrees>
              <LongitudeDegrees>-3.2997800968587398529052734375</LongitudeDegrees>
            </Position>
            <AltitudeMeters>47.59999847412109375</AltitudeMeters>
            <DistanceMeters>NAN</DistanceMeters>
          </Trackpoint>
          <Trackpoint>
            <Time>2022-07-13T06:19:10.000Z</Time>
            <Position>
              <LatitudeDegrees>43.40398899279534816741943359375</LatitudeDegrees>
              <LongitudeDegrees>-3.29990942962467670440673828125</LongitudeDegrees>
            </Position>
            <AltitudeMeters>47.40000152587890625</AltitudeMeters>
            <DistanceMeters>NAN</DistanceMeters>
          </Trackpoint>
          <Trackpoint>
            <Time>2022-07-13T06:19:15.000Z</Time>
            <Position>
              <LatitudeDegrees>43.40403802692890167236328125</LatitudeDegrees>
              <LongitudeDegrees>-3.30006198026239871978759765625</LongitudeDegrees>
            </Position>
            <AltitudeMeters>46.799999237060546875</AltitudeMeters>
            <DistanceMeters>NAN</DistanceMeters>
          </Trackpoint>
          <Trackpoint>
            <Time>2022-07-13T06:19:19.000Z</Time>
            <Position>
              <LatitudeDegrees>43.40412813238799571990966796875</LatitudeDegrees>
              <LongitudeDegrees>-3.3000627346336841583251953125</LongitudeDegrees>
            </Position>
            <AltitudeMeters>46.200000762939453125</AltitudeMeters>
            <DistanceMeters>NAN</DistanceMeters>
          </Trackpoint>
          <Trackpoint>
            <Time>2022-07-13T06:19:26.000Z</Time>
            <Position>
              <LatitudeDegrees>43.4043047390878200531005859375</LatitudeDegrees>
              <LongitudeDegrees>-3.29997262917459011077880859375</LongitudeDegrees>
            </Position>
            <AltitudeMeters>47.40000152587890625</AltitudeMeters>
            <DistanceMeters>NAN</DistanceMeters>
          </Trackpoint>
          <Trackpoint>
            <Time>2022-07-13T06:19:30.000Z</Time>
            <Position>
              <LatitudeDegrees>43.40446106158196926116943359375</LatitudeDegrees>
              <LongitudeDegrees>-3.2999591343104839324951171875</LongitudeDegrees>
            </Position>
            <AltitudeMeters>47</AltitudeMeters>
            <DistanceMeters>NAN</DistanceMeters>
          </Trackpoint>
          <Trackpoint>
            <Time>2022-07-13T06:19:34.000Z</Time>
            <Position>
              <LatitudeDegrees>43.40464781038463115692138671875</LatitudeDegrees>
              <LongitudeDegrees>-3.29999157227575778961181640625</LongitudeDegrees>
            </Position>
            <AltitudeMeters>46.40000152587890625</AltitudeMeters>
            <DistanceMeters>NAN</DistanceMeters>
          </Trackpoint>
          <Trackpoint>
            <Time>2022-07-13T06:19:36.000Z</Time>
            <Position>
              <LatitudeDegrees>43.404748141765594482421875</LatitudeDegrees>
              <LongitudeDegrees>-3.299999870359897613525390625</LongitudeDegrees>
            </Position>
            <AltitudeMeters>45.799999237060546875</AltitudeMeters>
            <DistanceMeters>NAN</DistanceMeters>
          </Trackpoint>
          <Trackpoint>
            <Time>2022-07-13T06:19:39.000Z</Time>
            <Position>
              <LatitudeDegrees>43.4048626385629177093505859375</LatitudeDegrees>
              <LongitudeDegrees>-3.30000557005405426025390625</LongitudeDegrees>
            </Position>
            <AltitudeMeters>44.799999237060546875</AltitudeMeters>
            <DistanceMeters>NAN</DistanceMeters>
          </Trackpoint>
          <Trackpoint>
            <Time>2022-07-13T06:19:42.000Z</Time>
            <Position>
              <LatitudeDegrees>43.40497923083603382110595703125</LatitudeDegrees>
              <LongitudeDegrees>-3.30000380985438823699951171875</LongitudeDegrees>
            </Position>
            <AltitudeMeters>44.799999237060546875</AltitudeMeters>
            <DistanceMeters>NAN</DistanceMeters>
          </Trackpoint>
          <Trackpoint>
            <Time>2022-07-13T06:19:45.000Z</Time>
            <Position>
              <LatitudeDegrees>43.40505550615489482879638671875</LatitudeDegrees>
              <LongitudeDegrees>-3.300080001354217529296875</LongitudeDegrees>
            </Position>
            <AltitudeMeters>44.40000152587890625</AltitudeMeters>
            <DistanceMeters>NAN</DistanceMeters>
          </Trackpoint>
          <Trackpoint>
            <Time>2022-07-13T06:19:49.000Z</Time>
            <Position>
              <LatitudeDegrees>43.40504175983369350433349609375</LatitudeDegrees>
              <LongitudeDegrees>-3.30028728581964969635009765625</LongitudeDegrees>
            </Position>
            <AltitudeMeters>44</AltitudeMeters>
            <DistanceMeters>NAN</DistanceMeters>
          </Trackpoint>
          <Trackpoint>
            <Time>2022-07-13T06:19:55.000Z</Time>
            <Position>
              <LatitudeDegrees>43.404987864196300506591796875</LatitudeDegrees>
              <LongitudeDegrees>-3.3006258308887481689453125</LongitudeDegrees>
            </Position>
            <AltitudeMeters>43.59999847412109375</AltitudeMeters>
            <DistanceMeters>NAN</DistanceMeters>
          </Trackpoint>
          <Trackpoint>
            <Time>2022-07-13T06:19:57.000Z</Time>
            <Position>
              <LatitudeDegrees>43.4049640595912933349609375</LatitudeDegrees>
              <LongitudeDegrees>-3.300761282444000244140625</LongitudeDegrees>
            </Position>
            <AltitudeMeters>43.40000152587890625</AltitudeMeters>
            <DistanceMeters>NAN</DistanceMeters>
          </Trackpoint>
          <Trackpoint>
            <Time>2022-07-13T06:19:58.000Z</Time>
            <Position>
              <LatitudeDegrees>43.40494939126074314117431640625</LatitudeDegrees>
              <LongitudeDegrees>-3.30083034932613372802734375</LongitudeDegrees>
            </Position>
            <AltitudeMeters>43.200000762939453125</AltitudeMeters>
            <DistanceMeters>NAN</DistanceMeters>
          </Trackpoint>
          <Trackpoint>
            <Time>2022-07-13T06:20:03.000Z</Time>
            <Position>
              <LatitudeDegrees>43.4048782289028167724609375</LatitudeDegrees>
              <LongitudeDegrees>-3.3011845685541629791259765625</LongitudeDegrees>
            </Position>
            <AltitudeMeters>42.59999847412109375</AltitudeMeters>
            <DistanceMeters>NAN</DistanceMeters>
          </Trackpoint>
          <Trackpoint>
            <Time>2022-07-13T06:20:05.000Z</Time>
            <Position>
              <LatitudeDegrees>43.40484562329947948455810546875</LatitudeDegrees>
              <LongitudeDegrees>-3.30134441144764423370361328125</LongitudeDegrees>
            </Position>
            <AltitudeMeters>42.40000152587890625</AltitudeMeters>
            <DistanceMeters>NAN</DistanceMeters>
          </Trackpoint>
          <Trackpoint>
            <Time>2022-07-13T06:20:09.000Z</Time>
            <Position>
              <LatitudeDegrees>43.404790721833705902099609375</LatitudeDegrees>
              <LongitudeDegrees>-3.30167734064161777496337890625</LongitudeDegrees>
            </Position>
            <AltitudeMeters>41.200000762939453125</AltitudeMeters>
            <DistanceMeters>NAN</DistanceMeters>
          </Trackpoint>
          <Trackpoint>
            <Time>2022-07-13T06:20:12.000Z</Time>
            <Position>
              <LatitudeDegrees>43.40474856086075305938720703125</LatitudeDegrees>
              <LongitudeDegrees>-3.301919661462306976318359375</LongitudeDegrees>
            </Position>
            <AltitudeMeters>40.40000152587890625</AltitudeMeters>
            <DistanceMeters>NAN</DistanceMeters>
          </Trackpoint>
          <Trackpoint>
            <Time>2022-07-13T06:20:13.000Z</Time>
            <Position>
              <LatitudeDegrees>43.40473540127277374267578125</LatitudeDegrees>
              <LongitudeDegrees>-3.30199887044727802276611328125</LongitudeDegrees>
            </Position>
            <AltitudeMeters>40.200000762939453125</AltitudeMeters>
            <DistanceMeters>NAN</DistanceMeters>
          </Trackpoint>
          <Trackpoint>
            <Time>2022-07-13T06:20:17.000Z</Time>
            <Position>
              <LatitudeDegrees>43.4046792425215244293212890625</LatitudeDegrees>
              <LongitudeDegrees>-3.30233364365994930267333984375</LongitudeDegrees>
            </Position>
            <AltitudeMeters>39</AltitudeMeters>
            <DistanceMeters>NAN</DistanceMeters>
          </Trackpoint>
          <Trackpoint>
            <Time>2022-07-13T06:20:21.000Z</Time>
            <Position>
              <LatitudeDegrees>43.40461646206676959991455078125</LatitudeDegrees>
              <LongitudeDegrees>-3.3026939816772937774658203125</LongitudeDegrees>
            </Position>
            <AltitudeMeters>37.799999237060546875</AltitudeMeters>
            <DistanceMeters>NAN</DistanceMeters>
          </Trackpoint>
          <Trackpoint>
            <Time>2022-07-13T06:20:25.000Z</Time>
            <Position>
              <LatitudeDegrees>43.40455711819231510162353515625</LatitudeDegrees>
              <LongitudeDegrees>-3.3030453510582447052001953125</LongitudeDegrees>
            </Position>
            <AltitudeMeters>36.59999847412109375</AltitudeMeters>
            <DistanceMeters>NAN</DistanceMeters>
          </Trackpoint>
          <Trackpoint>
            <Time>2022-07-13T06:20:30.000Z</Time>
            <Position>
              <LatitudeDegrees>43.40447413735091686248779296875</LatitudeDegrees>
              <LongitudeDegrees>-3.303486406803131103515625</LongitudeDegrees>
            </Position>
            <AltitudeMeters>35.40000152587890625</AltitudeMeters>
            <DistanceMeters>NAN</DistanceMeters>
          </Trackpoint>
          <Trackpoint>
            <Time>2022-07-13T06:20:31.000Z</Time>
            <Position>
              <LatitudeDegrees>43.40446240268647670745849609375</LatitudeDegrees>
              <LongitudeDegrees>-3.30357181839644908905029296875</LongitudeDegrees>
            </Position>
            <AltitudeMeters>35.200000762939453125</AltitudeMeters>
            <DistanceMeters>NAN</DistanceMeters>
          </Trackpoint>
          <Trackpoint>
            <Time>2022-07-13T06:20:36.000Z</Time>
            <Position>
              <LatitudeDegrees>43.4044100157916545867919921875</LatitudeDegrees>
              <LongitudeDegrees>-3.30395721830427646636962890625</LongitudeDegrees>
            </Position>
            <AltitudeMeters>34.200000762939453125</AltitudeMeters>
            <DistanceMeters>NAN</DistanceMeters>
          </Trackpoint>
          <Trackpoint>
            <Time>2022-07-13T06:20:40.000Z</Time>
            <Position>
              <LatitudeDegrees>43.4043697826564311981201171875</LatitudeDegrees>
              <LongitudeDegrees>-3.3042795024812221527099609375</LongitudeDegrees>
            </Position>
            <AltitudeMeters>33.59999847412109375</AltitudeMeters>
            <DistanceMeters>NAN</DistanceMeters>
          </Trackpoint>
          <Trackpoint>
            <Time>2022-07-13T06:20:43.000Z</Time>
            <Position>
              <LatitudeDegrees>43.4043600596487522125244140625</LatitudeDegrees>
              <LongitudeDegrees>-3.30452064983546733856201171875</LongitudeDegrees>
            </Position>
            <AltitudeMeters>33</AltitudeMeters>
            <DistanceMeters>NAN</DistanceMeters>
          </Trackpoint>
          <Trackpoint>
            <Time>2022-07-13T06:20:49.000Z</Time>
            <Position>
              <LatitudeDegrees>43.4043674357235431671142578125</LatitudeDegrees>
              <LongitudeDegrees>-3.30502021126449108123779296875</LongitudeDegrees>
            </Position>
            <AltitudeMeters>31.799999237060546875</AltitudeMeters>
            <DistanceMeters>NAN</DistanceMeters>
          </Trackpoint>
          <Trackpoint>
            <Time>2022-07-13T06:20:56.000Z</Time>
            <Position>
              <LatitudeDegrees>43.40437623672187328338623046875</LatitudeDegrees>
              <LongitudeDegrees>-3.30561649985611438751220703125</LongitudeDegrees>
            </Position>
            <AltitudeMeters>30.6000003814697265625</AltitudeMeters>
            <DistanceMeters>NAN</DistanceMeters>
          </Trackpoint>
          <Trackpoint>
            <Time>2022-07-13T06:20:59.000Z</Time>
            <Position>
              <LatitudeDegrees>43.4043808467686176300048828125</LatitudeDegrees>
              <LongitudeDegrees>-3.30587156116962432861328125</LongitudeDegrees>
            </Position>
            <AltitudeMeters>30.200000762939453125</AltitudeMeters>
            <DistanceMeters>NAN</DistanceMeters>
          </Trackpoint>
          <Trackpoint>
            <Time>2022-07-13T06:21:05.000Z</Time>
            <Position>
              <LatitudeDegrees>43.40439132414758205413818359375</LatitudeDegrees>
              <LongitudeDegrees>-3.306372128427028656005859375</LongitudeDegrees>
            </Position>
            <AltitudeMeters>29.3999996185302734375</AltitudeMeters>
            <DistanceMeters>NAN</DistanceMeters>
          </Trackpoint>
          <Trackpoint>
            <Time>2022-07-13T06:21:09.000Z</Time>
            <Position>
              <LatitudeDegrees>43.404395096004009246826171875</LatitudeDegrees>
              <LongitudeDegrees>-3.30669675953686237335205078125</LongitudeDegrees>
            </Position>
            <AltitudeMeters>29</AltitudeMeters>
            <DistanceMeters>NAN</DistanceMeters>
          </Trackpoint>
          <Trackpoint>
            <Time>2022-07-13T06:21:11.000Z</Time>
            <Position>
              <LatitudeDegrees>43.404370956122875213623046875</LatitudeDegrees>
              <LongitudeDegrees>-3.30685031600296497344970703125</LongitudeDegrees>
            </Position>
            <AltitudeMeters>28.799999237060546875</AltitudeMeters>
            <DistanceMeters>NAN</DistanceMeters>
          </Trackpoint>
          <Trackpoint>
            <Time>2022-07-13T06:21:13.000Z</Time>
            <Position>
              <LatitudeDegrees>43.4043225087225437164306640625</LatitudeDegrees>
              <LongitudeDegrees>-3.30695341341197490692138671875</LongitudeDegrees>
            </Position>
            <AltitudeMeters>28.6000003814697265625</AltitudeMeters>
            <DistanceMeters>NAN</DistanceMeters>
          </Trackpoint>
          <Trackpoint>
            <Time>2022-07-13T06:21:14.000Z</Time>
            <Position>
              <LatitudeDegrees>43.40429577045142650604248046875</LatitudeDegrees>
              <LongitudeDegrees>-3.30698291771113872528076171875</LongitudeDegrees>
            </Position>
            <AltitudeMeters>28.3999996185302734375</AltitudeMeters>
            <DistanceMeters>NAN</DistanceMeters>
          </Trackpoint>
          <Trackpoint>
            <Time>2022-07-13T06:21:17.000Z</Time>
            <Position>
              <LatitudeDegrees>43.40420021675527095794677734375</LatitudeDegrees>
              <LongitudeDegrees>-3.30701041035354137420654296875</LongitudeDegrees>
            </Position>
            <AltitudeMeters>27.799999237060546875</AltitudeMeters>
            <DistanceMeters>NAN</DistanceMeters>
          </Trackpoint>
          <Trackpoint>
            <Time>2022-07-13T06:21:24.000Z</Time>
            <Position>
              <LatitudeDegrees>43.40397633612155914306640625</LatitudeDegrees>
              <LongitudeDegrees>-3.30700873397290706634521484375</LongitudeDegrees>
            </Position>
            <AltitudeMeters>28.200000762939453125</AltitudeMeters>
            <DistanceMeters>NAN</DistanceMeters>
          </Trackpoint>
          <Trackpoint>
            <Time>2022-07-13T06:21:27.000Z</Time>
            <Position>
              <LatitudeDegrees>43.4038957022130489349365234375</LatitudeDegrees>
              <LongitudeDegrees>-3.30706338398158550262451171875</LongitudeDegrees>
            </Position>
            <AltitudeMeters>28.3999996185302734375</AltitudeMeters>
            <DistanceMeters>NAN</DistanceMeters>
          </Trackpoint>
          <Trackpoint>
            <Time>2022-07-13T06:21:28.000Z</Time>
            <Position>
              <LatitudeDegrees>43.4038886614143848419189453125</LatitudeDegrees>
              <LongitudeDegrees>-3.3071033656597137451171875</LongitudeDegrees>
            </Position>
            <AltitudeMeters>28.3999996185302734375</AltitudeMeters>
            <DistanceMeters>NAN</DistanceMeters>
          </Trackpoint>
          <Trackpoint>
            <Time>2022-07-13T06:21:35.000Z</Time>
            <Position>
              <LatitudeDegrees>43.403883464634418487548828125</LatitudeDegrees>
              <LongitudeDegrees>-3.307405449450016021728515625</LongitudeDegrees>
            </Position>
            <AltitudeMeters>28.3999996185302734375</AltitudeMeters>
            <DistanceMeters>NAN</DistanceMeters>
          </Trackpoint>
          <Trackpoint>
            <Time>2022-07-13T06:21:44.000Z</Time>
            <Position>
              <LatitudeDegrees>43.40383359231054782867431640625</LatitudeDegrees>
              <LongitudeDegrees>-3.30788078717887401580810546875</LongitudeDegrees>
            </Position>
            <AltitudeMeters>27.6000003814697265625</AltitudeMeters>
            <DistanceMeters>NAN</DistanceMeters>
          </Trackpoint>
          <Trackpoint>
            <Time>2022-07-13T06:21:49.000Z</Time>
            <Position>
              <LatitudeDegrees>43.40379671193659305572509765625</LatitudeDegrees>
              <LongitudeDegrees>-3.308185972273349761962890625</LongitudeDegrees>
            </Position>
            <AltitudeMeters>27.200000762939453125</AltitudeMeters>
            <DistanceMeters>NAN</DistanceMeters>
          </Trackpoint>
          <Trackpoint>
            <Time>2022-07-13T06:21:51.000Z</Time>
            <Position>
              <LatitudeDegrees>43.4037677943706512451171875</LatitudeDegrees>
              <LongitudeDegrees>-3.3083185739815235137939453125</LongitudeDegrees>
            </Position>
            <AltitudeMeters>27.200000762939453125</AltitudeMeters>
            <DistanceMeters>NAN</DistanceMeters>
          </Trackpoint>
          <Trackpoint>
            <Time>2022-07-13T06:21:52.000Z</Time>
            <Position>
              <LatitudeDegrees>43.40375237166881561279296875</LatitudeDegrees>
              <LongitudeDegrees>-3.30838789232075214385986328125</LongitudeDegrees>
            </Position>
            <AltitudeMeters>27</AltitudeMeters>
            <DistanceMeters>NAN</DistanceMeters>
          </Trackpoint>
          <Trackpoint>
            <Time>2022-07-13T06:21:55.000Z</Time>
            <Position>
              <LatitudeDegrees>43.4037263877689838409423828125</LatitudeDegrees>
              <LongitudeDegrees>-3.3085958473384380340576171875</LongitudeDegrees>
            </Position>
            <AltitudeMeters>26.200000762939453125</AltitudeMeters>
            <DistanceMeters>NAN</DistanceMeters>
          </Trackpoint>
          <Trackpoint>
            <Time>2022-07-13T06:21:57.000Z</Time>
            <Position>
              <LatitudeDegrees>43.40371104888617992401123046875</LatitudeDegrees>
              <LongitudeDegrees>-3.30872886814177036285400390625</LongitudeDegrees>
            </Position>
            <AltitudeMeters>26</AltitudeMeters>
            <DistanceMeters>NAN</DistanceMeters>
          </Trackpoint>
          <Trackpoint>
            <Time>2022-07-13T06:22:03.000Z</Time>
            <Position>
              <LatitudeDegrees>43.4036931954324245452880859375</LatitudeDegrees>
              <LongitudeDegrees>-3.30904922448098659515380859375</LongitudeDegrees>
            </Position>
            <AltitudeMeters>25.6000003814697265625</AltitudeMeters>
            <DistanceMeters>NAN</DistanceMeters>
          </Trackpoint>
          <Trackpoint>
            <Time>2022-07-13T06:22:11.000Z</Time>
            <Position>
              <LatitudeDegrees>43.40364910662174224853515625</LatitudeDegrees>
              <LongitudeDegrees>-3.3093166910111904144287109375</LongitudeDegrees>
            </Position>
            <AltitudeMeters>25.6000003814697265625</AltitudeMeters>
            <DistanceMeters>NAN</DistanceMeters>
          </Trackpoint>
          <Trackpoint>
            <Time>2022-07-13T06:22:17.000Z</Time>
            <Position>
              <LatitudeDegrees>43.40360258705914020538330078125</LatitudeDegrees>
              <LongitudeDegrees>-3.3095041103661060333251953125</LongitudeDegrees>
            </Position>
            <AltitudeMeters>26.200000762939453125</AltitudeMeters>
            <DistanceMeters>NAN</DistanceMeters>
          </Trackpoint>
          <Trackpoint>
            <Time>2022-07-13T06:22:23.000Z</Time>
            <Position>
              <LatitudeDegrees>43.40358934365212917327880859375</LatitudeDegrees>
              <LongitudeDegrees>-3.30974592827260494232177734375</LongitudeDegrees>
            </Position>
            <AltitudeMeters>26</AltitudeMeters>
            <DistanceMeters>NAN</DistanceMeters>
          </Trackpoint>
          <Trackpoint>
            <Time>2022-07-13T06:22:24.000Z</Time>
            <Position>
              <LatitudeDegrees>43.40358817018568515777587890625</LatitudeDegrees>
              <LongitudeDegrees>-3.309788592159748077392578125</LongitudeDegrees>
            </Position>
            <AltitudeMeters>26</AltitudeMeters>
            <DistanceMeters>NAN</DistanceMeters>
          </Trackpoint>
          <Trackpoint>
            <Time>2022-07-13T06:22:31.000Z</Time>
            <Position>
              <LatitudeDegrees>43.40357777662575244903564453125</LatitudeDegrees>
              <LongitudeDegrees>-3.31006829626858234405517578125</LongitudeDegrees>
            </Position>
            <AltitudeMeters>26.200000762939453125</AltitudeMeters>
            <DistanceMeters>NAN</DistanceMeters>
          </Trackpoint>
          <Trackpoint>
            <Time>2022-07-13T06:22:34.000Z</Time>
            <Position>
              <LatitudeDegrees>43.403578698635101318359375</LatitudeDegrees>
              <LongitudeDegrees>-3.31017692573368549346923828125</LongitudeDegrees>
            </Position>
            <AltitudeMeters>26.200000762939453125</AltitudeMeters>
            <DistanceMeters>NAN</DistanceMeters>
          </Trackpoint>
          <Trackpoint>
            <Time>2022-07-13T06:22:44.000Z</Time>
            <Position>
              <LatitudeDegrees>43.4036100469529628753662109375</LatitudeDegrees>
              <LongitudeDegrees>-3.3104593120515346527099609375</LongitudeDegrees>
            </Position>
            <AltitudeMeters>26.200000762939453125</AltitudeMeters>
            <DistanceMeters>NAN</DistanceMeters>
          </Trackpoint>
          <Trackpoint>
            <Time>2022-07-13T06:22:51.000Z</Time>
            <Position>
              <LatitudeDegrees>43.40361717157065868377685546875</LatitudeDegrees>
              <LongitudeDegrees>-3.31060658209025859832763671875</LongitudeDegrees>
            </Position>
            <AltitudeMeters>26.799999237060546875</AltitudeMeters>
            <DistanceMeters>NAN</DistanceMeters>
          </Trackpoint>
          <Trackpoint>
            <Time>2022-07-13T06:22:56.000Z</Time>
            <Position>
              <LatitudeDegrees>43.4036133997142314910888671875</LatitudeDegrees>
              <LongitudeDegrees>-3.31065888516604900360107421875</LongitudeDegrees>
            </Position>
            <AltitudeMeters>27</AltitudeMeters>
            <DistanceMeters>NAN</DistanceMeters>
          </Trackpoint>
          <Trackpoint>
            <Time>2022-07-13T06:23:43.000Z</Time>
            <Position>
              <LatitudeDegrees>43.403621613979339599609375</LatitudeDegrees>
              <LongitudeDegrees>-3.31074555404484272003173828125</LongitudeDegrees>
            </Position>
            <AltitudeMeters>27.3999996185302734375</AltitudeMeters>
            <DistanceMeters>NAN</DistanceMeters>
          </Trackpoint>
          <Trackpoint>
            <Time>2022-07-13T06:23:44.000Z</Time>
            <Position>
              <LatitudeDegrees>43.40362404473125934600830078125</LatitudeDegrees>
              <LongitudeDegrees>-3.3107613958418369293212890625</LongitudeDegrees>
            </Position>
            <AltitudeMeters>27.6000003814697265625</AltitudeMeters>
            <DistanceMeters>NAN</DistanceMeters>
          </Trackpoint>
          <Trackpoint>
            <Time>2022-07-13T06:23:47.000Z</Time>
            <Position>
              <LatitudeDegrees>43.403621278703212738037109375</LatitudeDegrees>
              <LongitudeDegrees>-3.31082426011562347412109375</LongitudeDegrees>
            </Position>
            <AltitudeMeters>28.3999996185302734375</AltitudeMeters>
            <DistanceMeters>NAN</DistanceMeters>
          </Trackpoint>
          <Trackpoint>
            <Time>2022-07-13T06:23:51.000Z</Time>
            <Position>
              <LatitudeDegrees>43.40362438000738620758056640625</LatitudeDegrees>
              <LongitudeDegrees>-3.3108938299119472503662109375</LongitudeDegrees>
            </Position>
            <AltitudeMeters>29.3999996185302734375</AltitudeMeters>
            <DistanceMeters>NAN</DistanceMeters>
          </Trackpoint>
          <Trackpoint>
            <Time>2022-07-13T06:23:52.000Z</Time>
            <Position>
              <LatitudeDegrees>43.4036261402070522308349609375</LatitudeDegrees>
              <LongitudeDegrees>-3.31091151572763919830322265625</LongitudeDegrees>
            </Position>
            <AltitudeMeters>29.6000003814697265625</AltitudeMeters>
            <DistanceMeters>NAN</DistanceMeters>
          </Trackpoint>
          <Trackpoint>
            <Time>2022-07-13T06:23:58.000Z</Time>
            <Position>
              <LatitudeDegrees>43.403622619807720184326171875</LatitudeDegrees>
              <LongitudeDegrees>-3.31100656650960445404052734375</LongitudeDegrees>
            </Position>
            <AltitudeMeters>30.799999237060546875</AltitudeMeters>
            <DistanceMeters>NAN</DistanceMeters>
          </Trackpoint>
          <Trackpoint>
            <Time>2022-07-13T06:23:59.000Z</Time>
            <Position>
              <LatitudeDegrees>43.403624631464481353759765625</LatitudeDegrees>
              <LongitudeDegrees>-3.31102081574499607086181640625</LongitudeDegrees>
            </Position>
            <AltitudeMeters>30.799999237060546875</AltitudeMeters>
            <DistanceMeters>NAN</DistanceMeters>
          </Trackpoint>
          <Trackpoint>
            <Time>2022-07-13T06:24:04.000Z</Time>
            <Position>
              <LatitudeDegrees>43.403725884854793548583984375</LatitudeDegrees>
              <LongitudeDegrees>-3.3111305348575115203857421875</LongitudeDegrees>
            </Position>
            <AltitudeMeters>31</AltitudeMeters>
            <DistanceMeters>NAN</DistanceMeters>
          </Trackpoint>
          <Trackpoint>
            <Time>2022-07-13T06:24:09.000Z</Time>
            <Position>
              <LatitudeDegrees>43.40389276854693889617919921875</LatitudeDegrees>
              <LongitudeDegrees>-3.3113052137196063995361328125</LongitudeDegrees>
            </Position>
            <AltitudeMeters>29.3999996185302734375</AltitudeMeters>
            <DistanceMeters>NAN</DistanceMeters>
          </Trackpoint>
          <Trackpoint>
            <Time>2022-07-13T06:24:10.000Z</Time>
            <Position>
              <LatitudeDegrees>43.403925709426403045654296875</LatitudeDegrees>
              <LongitudeDegrees>-3.31133882515132427215576171875</LongitudeDegrees>
            </Position>
            <AltitudeMeters>28.799999237060546875</AltitudeMeters>
            <DistanceMeters>NAN</DistanceMeters>
          </Trackpoint>
          <Trackpoint>
            <Time>2022-07-13T06:24:12.000Z</Time>
            <Position>
              <LatitudeDegrees>43.40398698113858699798583984375</LatitudeDegrees>
              <LongitudeDegrees>-3.3114041201770305633544921875</LongitudeDegrees>
            </Position>
            <AltitudeMeters>28</AltitudeMeters>
            <DistanceMeters>NAN</DistanceMeters>
          </Trackpoint>
          <Trackpoint>
            <Time>2022-07-13T06:24:16.000Z</Time>
            <Position>
              <LatitudeDegrees>43.4040811099112033843994140625</LatitudeDegrees>
              <LongitudeDegrees>-3.3115093968808650970458984375</LongitudeDegrees>
            </Position>
            <AltitudeMeters>27</AltitudeMeters>
            <DistanceMeters>NAN</DistanceMeters>
          </Trackpoint>
          <Trackpoint>
            <Time>2022-07-13T06:24:17.000Z</Time>
            <Position>
              <LatitudeDegrees>43.40409426949918270111083984375</LatitudeDegrees>
              <LongitudeDegrees>-3.31152859143912792205810546875</LongitudeDegrees>
            </Position>
            <AltitudeMeters>26.799999237060546875</AltitudeMeters>
            <DistanceMeters>NAN</DistanceMeters>
          </Trackpoint>
          <Trackpoint>
            <Time>2022-07-13T06:24:19.000Z</Time>
            <Position>
              <LatitudeDegrees>43.40412025339901447296142578125</LatitudeDegrees>
              <LongitudeDegrees>-3.3115667290985584259033203125</LongitudeDegrees>
            </Position>
            <AltitudeMeters>26.6000003814697265625</AltitudeMeters>
            <DistanceMeters>NAN</DistanceMeters>
          </Trackpoint>
          <Trackpoint>
            <Time>2022-07-13T06:24:23.000Z</Time>
            <Position>
              <LatitudeDegrees>43.40418420732021331787109375</LatitudeDegrees>
              <LongitudeDegrees>-3.311626575887203216552734375</LongitudeDegrees>
            </Position>
            <AltitudeMeters>26.6000003814697265625</AltitudeMeters>
            <DistanceMeters>NAN</DistanceMeters>
          </Trackpoint>
          <Trackpoint>
            <Time>2022-07-13T06:24:25.000Z</Time>
            <Position>
              <LatitudeDegrees>43.40420859865844249725341796875</LatitudeDegrees>
              <LongitudeDegrees>-3.3116455189883708953857421875</LongitudeDegrees>
            </Position>
            <AltitudeMeters>26.3999996185302734375</AltitudeMeters>
            <DistanceMeters>NAN</DistanceMeters>
          </Trackpoint>
          <Trackpoint>
            <Time>2022-07-13T06:24:29.000Z</Time>
            <Position>
              <LatitudeDegrees>43.40424933470785617828369140625</LatitudeDegrees>
              <LongitudeDegrees>-3.31171609461307525634765625</LongitudeDegrees>
            </Position>
            <AltitudeMeters>26.3999996185302734375</AltitudeMeters>
            <DistanceMeters>NAN</DistanceMeters>
          </Trackpoint>
          <Trackpoint>
            <Time>2022-07-13T06:24:31.000Z</Time>
            <Position>
              <LatitudeDegrees>43.4042725525796413421630859375</LatitudeDegrees>
              <LongitudeDegrees>-3.31175641156733036041259765625</LongitudeDegrees>
            </Position>
            <AltitudeMeters>26.3999996185302734375</AltitudeMeters>
            <DistanceMeters>NAN</DistanceMeters>
          </Trackpoint>
          <Trackpoint>
            <Time>2022-07-13T06:24:33.000Z</Time>
            <Position>
              <LatitudeDegrees>43.40429241769015789031982421875</LatitudeDegrees>
              <LongitudeDegrees>-3.31180435605347156524658203125</LongitudeDegrees>
            </Position>
            <AltitudeMeters>26.3999996185302734375</AltitudeMeters>
            <DistanceMeters>NAN</DistanceMeters>
          </Trackpoint>
          <Trackpoint>
            <Time>2022-07-13T06:24:38.000Z</Time>
            <Position>
              <LatitudeDegrees>43.40434187091886997222900390625</LatitudeDegrees>
              <LongitudeDegrees>-3.31191734410822391510009765625</LongitudeDegrees>
            </Position>
            <AltitudeMeters>26.6000003814697265625</AltitudeMeters>
            <DistanceMeters>NAN</DistanceMeters>
          </Trackpoint>
          <Trackpoint>
            <Time>2022-07-13T06:24:48.000Z</Time>
            <Position>
              <LatitudeDegrees>43.40443423949182033538818359375</LatitudeDegrees>
              <LongitudeDegrees>-3.312077857553958892822265625</LongitudeDegrees>
            </Position>
            <AltitudeMeters>27.3999996185302734375</AltitudeMeters>
            <DistanceMeters>NAN</DistanceMeters>
          </Trackpoint>
          <Trackpoint>
            <Time>2022-07-13T06:24:57.000Z</Time>
            <Position>
              <LatitudeDegrees>43.40449961833655834197998046875</LatitudeDegrees>
              <LongitudeDegrees>-3.3121809549629688262939453125</LongitudeDegrees>
            </Position>
            <AltitudeMeters>28</AltitudeMeters>
            <DistanceMeters>NAN</DistanceMeters>
          </Trackpoint>
          <Trackpoint>
            <Time>2022-07-13T06:24:58.000Z</Time>
            <Position>
              <LatitudeDegrees>43.40451722033321857452392578125</LatitudeDegrees>
              <LongitudeDegrees>-3.3121856488287448883056640625</LongitudeDegrees>
            </Position>
            <AltitudeMeters>28</AltitudeMeters>
            <DistanceMeters>NAN</DistanceMeters>
          </Trackpoint>
          <Trackpoint>
            <Time>2022-07-13T06:25:04.000Z</Time>
            <Position>
              <LatitudeDegrees>43.40459953062236309051513671875</LatitudeDegrees>
              <LongitudeDegrees>-3.31223485060036182403564453125</LongitudeDegrees>
            </Position>
            <AltitudeMeters>28.3999996185302734375</AltitudeMeters>
            <DistanceMeters>NAN</DistanceMeters>
          </Trackpoint>
          <Trackpoint>
            <Time>2022-07-13T06:25:05.000Z</Time>
            <Position>
              <LatitudeDegrees>43.40461310930550098419189453125</LatitudeDegrees>
              <LongitudeDegrees>-3.31224859692156314849853515625</LongitudeDegrees>
            </Position>
            <AltitudeMeters>28.3999996185302734375</AltitudeMeters>
            <DistanceMeters>NAN</DistanceMeters>
          </Trackpoint>
          <Trackpoint>
            <Time>2022-07-13T06:25:06.000Z</Time>
            <Position>
              <LatitudeDegrees>43.40462517924606800079345703125</LatitudeDegrees>
              <LongitudeDegrees>-3.3122667856514453887939453125</LongitudeDegrees>
            </Position>
            <AltitudeMeters>28.3999996185302734375</AltitudeMeters>
            <DistanceMeters>NAN</DistanceMeters>
          </Trackpoint>
          <Trackpoint>
            <Time>2022-07-13T06:25:09.000Z</Time>
            <Position>
              <LatitudeDegrees>43.404667340219020843505859375</LatitudeDegrees>
              <LongitudeDegrees>-3.31234331242740154266357421875</LongitudeDegrees>
            </Position>
            <AltitudeMeters>28.3999996185302734375</AltitudeMeters>
            <DistanceMeters>NAN</DistanceMeters>
          </Trackpoint>
          <Trackpoint>
            <Time>2022-07-13T06:25:11.000Z</Time>
            <Position>
              <LatitudeDegrees>43.4046953357756137847900390625</LatitudeDegrees>
              <LongitudeDegrees>-3.31240131519734859466552734375</LongitudeDegrees>
            </Position>
            <AltitudeMeters>28.200000762939453125</AltitudeMeters>
            <DistanceMeters>NAN</DistanceMeters>
          </Trackpoint>
          <Trackpoint>
            <Time>2022-07-13T06:25:18.000Z</Time>
            <Position>
              <LatitudeDegrees>43.40474789030849933624267578125</LatitudeDegrees>
              <LongitudeDegrees>-3.3126134611666202545166015625</LongitudeDegrees>
            </Position>
            <AltitudeMeters>27.3999996185302734375</AltitudeMeters>
            <DistanceMeters>NAN</DistanceMeters>
          </Trackpoint>
          <Trackpoint>
            <Time>2022-07-13T06:25:24.000Z</Time>
            <Position>
              <LatitudeDegrees>43.404767252504825592041015625</LatitudeDegrees>
              <LongitudeDegrees>-3.31272318027913570404052734375</LongitudeDegrees>
            </Position>
            <AltitudeMeters>27.200000762939453125</AltitudeMeters>
            <DistanceMeters>NAN</DistanceMeters>
          </Trackpoint>
          <Trackpoint>
            <Time>2022-07-13T06:25:25.000Z</Time>
            <Position>
              <LatitudeDegrees>43.404767252504825592041015625</LatitudeDegrees>
              <LongitudeDegrees>-3.31272318027913570404052734375</LongitudeDegrees>
            </Position>
            <AltitudeMeters>27.200000762939453125</AltitudeMeters>
            <DistanceMeters>NAN</DistanceMeters>
          </Trackpoint>
          <Trackpoint>
            <Time>2022-07-13T06:33:31.000Z</Time>
            <Position>
              <LatitudeDegrees>43.4047543443739414215087890625</LatitudeDegrees>
              <LongitudeDegrees>-3.3127331547439098358154296875</LongitudeDegrees>
            </Position>
            <AltitudeMeters>27.200000762939453125</AltitudeMeters>
            <DistanceMeters>NAN</DistanceMeters>
          </Trackpoint>
          <Trackpoint>
            <Time>2022-07-13T06:33:34.000Z</Time>
            <Position>
              <LatitudeDegrees>43.4047566913068294525146484375</LatitudeDegrees>
              <LongitudeDegrees>-3.3127257786691188812255859375</LongitudeDegrees>
            </Position>
            <AltitudeMeters>25</AltitudeMeters>
            <DistanceMeters>NAN</DistanceMeters>
          </Trackpoint>
          <Trackpoint>
            <Time>2022-07-13T06:33:35.000Z</Time>
            <Position>
              <LatitudeDegrees>43.4047566913068294525146484375</LatitudeDegrees>
              <LongitudeDegrees>-3.3127257786691188812255859375</LongitudeDegrees>
            </Position>
            <AltitudeMeters>23.799999237060546875</AltitudeMeters>
            <DistanceMeters>NAN</DistanceMeters>
          </Trackpoint>
          <Trackpoint>
            <Time>2022-07-13T06:41:54.000Z</Time>
            <Position>
              <LatitudeDegrees>43.4046292863786220550537109375</LatitudeDegrees>
              <LongitudeDegrees>-3.313005231320858001708984375</LongitudeDegrees>
            </Position>
            <AltitudeMeters>22.6000003814697265625</AltitudeMeters>
            <DistanceMeters>NAN</DistanceMeters>
          </Trackpoint>
          <Trackpoint>
            <Time>2022-07-13T06:41:55.000Z</Time>
            <Position>
              <LatitudeDegrees>43.40463087894022464752197265625</LatitudeDegrees>
              <LongitudeDegrees>-3.31298804841935634613037109375</LongitudeDegrees>
            </Position>
            <AltitudeMeters>22.6000003814697265625</AltitudeMeters>
            <DistanceMeters>NAN</DistanceMeters>
          </Trackpoint>
          <Trackpoint>
            <Time>2022-07-13T06:41:57.000Z</Time>
            <Position>
              <LatitudeDegrees>43.404629118740558624267578125</LatitudeDegrees>
              <LongitudeDegrees>-3.312950916588306427001953125</LongitudeDegrees>
            </Position>
            <AltitudeMeters>22.3999996185302734375</AltitudeMeters>
            <DistanceMeters>NAN</DistanceMeters>
          </Trackpoint>
          <Trackpoint>
            <Time>2022-07-13T06:41:59.000Z</Time>
            <Position>
              <LatitudeDegrees>43.40462920255959033966064453125</LatitudeDegrees>
              <LongitudeDegrees>-3.312923423945903778076171875</LongitudeDegrees>
            </Position>
            <AltitudeMeters>22.3999996185302734375</AltitudeMeters>
            <DistanceMeters>NAN</DistanceMeters>
          </Trackpoint>
          <Trackpoint>
            <Time>2022-07-13T06:42:05.000Z</Time>
            <Position>
              <LatitudeDegrees>43.40462685562670230865478515625</LatitudeDegrees>
              <LongitudeDegrees>-3.312853015959262847900390625</LongitudeDegrees>
            </Position>
            <AltitudeMeters>22.3999996185302734375</AltitudeMeters>
            <DistanceMeters>NAN</DistanceMeters>
          </Trackpoint>
          <Trackpoint>
            <Time>2022-07-13T06:42:07.000Z</Time>
            <Position>
              <LatitudeDegrees>43.4046336449682712554931640625</LatitudeDegrees>
              <LongitudeDegrees>-3.31282493658363819122314453125</LongitudeDegrees>
            </Position>
            <AltitudeMeters>22.3999996185302734375</AltitudeMeters>
            <DistanceMeters>NAN</DistanceMeters>
          </Trackpoint>
          <Trackpoint>
            <Time>2022-07-13T06:42:09.000Z</Time>
            <Position>
              <LatitudeDegrees>43.4046480618417263031005859375</LatitudeDegrees>
              <LongitudeDegrees>-3.31280884332954883575439453125</LongitudeDegrees>
            </Position>
            <AltitudeMeters>22.3999996185302734375</AltitudeMeters>
            <DistanceMeters>NAN</DistanceMeters>
          </Trackpoint>
          <Trackpoint>
            <Time>2022-07-13T06:42:12.000Z</Time>
            <Position>
              <LatitudeDegrees>43.404674716293811798095703125</LatitudeDegrees>
              <LongitudeDegrees>-3.312800712883472442626953125</LongitudeDegrees>
            </Position>
            <AltitudeMeters>22.200000762939453125</AltitudeMeters>
            <DistanceMeters>NAN</DistanceMeters>
          </Trackpoint>
          <Trackpoint>
            <Time>2022-07-13T06:42:13.000Z</Time>
            <Position>
              <LatitudeDegrees>43.40468485839664936065673828125</LatitudeDegrees>
              <LongitudeDegrees>-3.3127928338944911956787109375</LongitudeDegrees>
            </Position>
            <AltitudeMeters>22.200000762939453125</AltitudeMeters>
            <DistanceMeters>NAN</DistanceMeters>
          </Trackpoint>
          <Trackpoint>
            <Time>2022-07-13T06:42:17.000Z</Time>
            <Position>
              <LatitudeDegrees>43.404725678265094757080078125</LatitudeDegrees>
              <LongitudeDegrees>-3.31275880336761474609375</LongitudeDegrees>
            </Position>
            <AltitudeMeters>21.799999237060546875</AltitudeMeters>
            <DistanceMeters>NAN</DistanceMeters>
          </Trackpoint>
          <Trackpoint>
            <Time>2022-07-13T06:42:19.000Z</Time>
            <Position>
              <LatitudeDegrees>43.4047288633882999420166015625</LatitudeDegrees>
              <LongitudeDegrees>-3.3127579651772975921630859375</LongitudeDegrees>
            </Position>
            <AltitudeMeters>21.6000003814697265625</AltitudeMeters>
            <DistanceMeters>NAN</DistanceMeters>
          </Trackpoint>
          <Trackpoint>
            <Time>2022-07-13T06:47:56.000Z</Time>
            <Position>
              <LatitudeDegrees>43.404704220592975616455078125</LatitudeDegrees>
              <LongitudeDegrees>-3.31263341009616851806640625</LongitudeDegrees>
            </Position>
            <AltitudeMeters>20.6000003814697265625</AltitudeMeters>
            <DistanceMeters>NAN</DistanceMeters>
          </Trackpoint>
          <Trackpoint>
            <Time>2022-07-13T06:47:57.000Z</Time>
            <Position>
              <LatitudeDegrees>43.4047000296413898468017578125</LatitudeDegrees>
              <LongitudeDegrees>-3.31260600127279758453369140625</LongitudeDegrees>
            </Position>
            <AltitudeMeters>20.799999237060546875</AltitudeMeters>
            <DistanceMeters>NAN</DistanceMeters>
          </Trackpoint>
          <Trackpoint>
            <Time>2022-07-13T06:48:03.000Z</Time>
            <Position>
              <LatitudeDegrees>43.40467915870249271392822265625</LatitudeDegrees>
              <LongitudeDegrees>-3.3124555461108684539794921875</LongitudeDegrees>
            </Position>
            <AltitudeMeters>21.200000762939453125</AltitudeMeters>
            <DistanceMeters>NAN</DistanceMeters>
          </Trackpoint>
          <Trackpoint>
            <Time>2022-07-13T06:48:07.000Z</Time>
            <Position>
              <LatitudeDegrees>43.40464814566075801849365234375</LatitudeDegrees>
              <LongitudeDegrees>-3.31236376427114009857177734375</LongitudeDegrees>
            </Position>
            <AltitudeMeters>21.799999237060546875</AltitudeMeters>
            <DistanceMeters>NAN</DistanceMeters>
          </Trackpoint>
          <Trackpoint>
            <Time>2022-07-13T06:48:11.000Z</Time>
            <Position>
              <LatitudeDegrees>43.404608666896820068359375</LatitudeDegrees>
              <LongitudeDegrees>-3.31229050643742084503173828125</LongitudeDegrees>
            </Position>
            <AltitudeMeters>22</AltitudeMeters>
            <DistanceMeters>NAN</DistanceMeters>
          </Trackpoint>
          <Trackpoint>
            <Time>2022-07-13T06:48:16.000Z</Time>
            <Position>
              <LatitudeDegrees>43.40455912984907627105712890625</LatitudeDegrees>
              <LongitudeDegrees>-3.31219595856964588165283203125</LongitudeDegrees>
            </Position>
            <AltitudeMeters>22</AltitudeMeters>
            <DistanceMeters>NAN</DistanceMeters>
          </Trackpoint>
          <Trackpoint>
            <Time>2022-07-13T06:48:19.000Z</Time>
            <Position>
              <LatitudeDegrees>43.40450875461101531982421875</LatitudeDegrees>
              <LongitudeDegrees>-3.31214717589318752288818359375</LongitudeDegrees>
            </Position>
            <AltitudeMeters>22</AltitudeMeters>
            <DistanceMeters>NAN</DistanceMeters>
          </Trackpoint>
          <Trackpoint>
            <Time>2022-07-13T06:48:20.000Z</Time>
            <Position>
              <LatitudeDegrees>43.4044847823679447174072265625</LatitudeDegrees>
              <LongitudeDegrees>-3.31213443540036678314208984375</LongitudeDegrees>
            </Position>
            <AltitudeMeters>22</AltitudeMeters>
            <DistanceMeters>NAN</DistanceMeters>
          </Trackpoint>
          <Trackpoint>
            <Time>2022-07-13T06:48:25.000Z</Time>
            <Position>
              <LatitudeDegrees>43.404366262257099151611328125</LatitudeDegrees>
              <LongitudeDegrees>-3.3119737543165683746337890625</LongitudeDegrees>
            </Position>
            <AltitudeMeters>21.6000003814697265625</AltitudeMeters>
            <DistanceMeters>NAN</DistanceMeters>
          </Trackpoint>
          <Trackpoint>
            <Time>2022-07-13T06:48:30.000Z</Time>
            <Position>
              <LatitudeDegrees>43.40422016568481922149658203125</LatitudeDegrees>
              <LongitudeDegrees>-3.311708383262157440185546875</LongitudeDegrees>
            </Position>
            <AltitudeMeters>20.799999237060546875</AltitudeMeters>
            <DistanceMeters>NAN</DistanceMeters>
          </Trackpoint>
          <Trackpoint>
            <Time>2022-07-13T06:48:31.000Z</Time>
            <Position>
              <LatitudeDegrees>43.40418697334825992584228515625</LatitudeDegrees>
              <LongitudeDegrees>-3.3116609416902065277099609375</LongitudeDegrees>
            </Position>
            <AltitudeMeters>20.6000003814697265625</AltitudeMeters>
            <DistanceMeters>NAN</DistanceMeters>
          </Trackpoint>
          <Trackpoint>
            <Time>2022-07-13T06:48:34.000Z</Time>
            <Position>
              <LatitudeDegrees>43.4040911681950092315673828125</LatitudeDegrees>
              <LongitudeDegrees>-3.31153747625648975372314453125</LongitudeDegrees>
            </Position>
            <AltitudeMeters>20</AltitudeMeters>
            <DistanceMeters>NAN</DistanceMeters>
          </Trackpoint>
          <Trackpoint>
            <Time>2022-07-13T06:48:36.000Z</Time>
            <Position>
              <LatitudeDegrees>43.4040324948728084564208984375</LatitudeDegrees>
              <LongitudeDegrees>-3.31146522425115108489990234375</LongitudeDegrees>
            </Position>
            <AltitudeMeters>20</AltitudeMeters>
            <DistanceMeters>NAN</DistanceMeters>
          </Trackpoint>
          <Trackpoint>
            <Time>2022-07-13T06:48:40.000Z</Time>
            <Position>
              <LatitudeDegrees>43.40394909493625164031982421875</LatitudeDegrees>
              <LongitudeDegrees>-3.31137738190591335296630859375</LongitudeDegrees>
            </Position>
            <AltitudeMeters>20.200000762939453125</AltitudeMeters>
            <DistanceMeters>NAN</DistanceMeters>
          </Trackpoint>
          <Trackpoint>
            <Time>2022-07-13T06:48:46.000Z</Time>
            <Position>
              <LatitudeDegrees>43.40386678464710712432861328125</LatitudeDegrees>
              <LongitudeDegrees>-3.3113010227680206298828125</LongitudeDegrees>
            </Position>
            <AltitudeMeters>20.799999237060546875</AltitudeMeters>
            <DistanceMeters>NAN</DistanceMeters>
          </Trackpoint>
          <Trackpoint>
            <Time>2022-07-13T06:48:47.000Z</Time>
            <Position>
              <LatitudeDegrees>43.403859995305538177490234375</LatitudeDegrees>
              <LongitudeDegrees>-3.311289958655834197998046875</LongitudeDegrees>
            </Position>
            <AltitudeMeters>21</AltitudeMeters>
            <DistanceMeters>NAN</DistanceMeters>
          </Trackpoint>
          <Trackpoint>
            <Time>2022-07-13T06:48:51.000Z</Time>
            <Position>
              <LatitudeDegrees>43.40381833724677562713623046875</LatitudeDegrees>
              <LongitudeDegrees>-3.3112418465316295623779296875</LongitudeDegrees>
            </Position>
            <AltitudeMeters>21.3999996185302734375</AltitudeMeters>
            <DistanceMeters>NAN</DistanceMeters>
          </Trackpoint>
          <Trackpoint>
            <Time>2022-07-13T06:48:53.000Z</Time>
            <Position>
              <LatitudeDegrees>43.40379470027983188629150390625</LatitudeDegrees>
              <LongitudeDegrees>-3.31121091730892658233642578125</LongitudeDegrees>
            </Position>
            <AltitudeMeters>21.6000003814697265625</AltitudeMeters>
            <DistanceMeters>NAN</DistanceMeters>
          </Trackpoint>
          <Trackpoint>
            <Time>2022-07-13T06:48:55.000Z</Time>
            <Position>
              <LatitudeDegrees>43.403774164617061614990234375</LatitudeDegrees>
              <LongitudeDegrees>-3.31118166446685791015625</LongitudeDegrees>
            </Position>
            <AltitudeMeters>22</AltitudeMeters>
            <DistanceMeters>NAN</DistanceMeters>
          </Trackpoint>
          <Trackpoint>
            <Time>2022-07-13T06:49:01.000Z</Time>
            <Position>
              <LatitudeDegrees>43.40370937250554561614990234375</LatitudeDegrees>
              <LongitudeDegrees>-3.3111285232007503509521484375</LongitudeDegrees>
            </Position>
            <AltitudeMeters>22.6000003814697265625</AltitudeMeters>
            <DistanceMeters>NAN</DistanceMeters>
          </Trackpoint>
          <Trackpoint>
            <Time>2022-07-13T06:49:02.000Z</Time>
            <Position>
              <LatitudeDegrees>43.40369696728885173797607421875</LatitudeDegrees>
              <LongitudeDegrees>-3.31111368723213672637939453125</LongitudeDegrees>
            </Position>
            <AltitudeMeters>22.799999237060546875</AltitudeMeters>
            <DistanceMeters>NAN</DistanceMeters>
          </Trackpoint>
          <Trackpoint>
            <Time>2022-07-13T06:49:09.000Z</Time>
            <Position>
              <LatitudeDegrees>43.40359923429787158966064453125</LatitudeDegrees>
              <LongitudeDegrees>-3.311077393591403961181640625</LongitudeDegrees>
            </Position>
            <AltitudeMeters>23.799999237060546875</AltitudeMeters>
            <DistanceMeters>NAN</DistanceMeters>
          </Trackpoint>
          <Trackpoint>
            <Time>2022-07-13T06:49:13.000Z</Time>
            <Position>
              <LatitudeDegrees>43.40355061925947666168212890625</LatitudeDegrees>
              <LongitudeDegrees>-3.31110849045217037200927734375</LongitudeDegrees>
            </Position>
            <AltitudeMeters>24.6000003814697265625</AltitudeMeters>
            <DistanceMeters>NAN</DistanceMeters>
          </Trackpoint>
          <Trackpoint>
            <Time>2022-07-13T06:49:14.000Z</Time>
            <Position>
              <LatitudeDegrees>43.40354123152792453765869140625</LatitudeDegrees>
              <LongitudeDegrees>-3.31112676300108432769775390625</LongitudeDegrees>
            </Position>
            <AltitudeMeters>24.799999237060546875</AltitudeMeters>
            <DistanceMeters>NAN</DistanceMeters>
          </Trackpoint>
          <Trackpoint>
            <Time>2022-07-13T06:49:15.000Z</Time>
            <Position>
              <LatitudeDegrees>43.40353318490087985992431640625</LatitudeDegrees>
              <LongitudeDegrees>-3.31113933585584163665771484375</LongitudeDegrees>
            </Position>
            <AltitudeMeters>25</AltitudeMeters>
            <DistanceMeters>NAN</DistanceMeters>
          </Trackpoint>
          <Trackpoint>
            <Time>2022-07-13T06:49:16.000Z</Time>
            <Position>
              <LatitudeDegrees>43.4035282395780086517333984375</LatitudeDegrees>
              <LongitudeDegrees>-3.311157524585723876953125</LongitudeDegrees>
            </Position>
            <AltitudeMeters>25.200000762939453125</AltitudeMeters>
            <DistanceMeters>NAN</DistanceMeters>
          </Trackpoint>
          <Trackpoint>
            <Time>2022-07-13T06:49:19.000Z</Time>
            <Position>
              <LatitudeDegrees>43.40353184379637241363525390625</LatitudeDegrees>
              <LongitudeDegrees>-3.31121007911860942840576171875</LongitudeDegrees>
            </Position>
            <AltitudeMeters>25.6000003814697265625</AltitudeMeters>
            <DistanceMeters>NAN</DistanceMeters>
          </Trackpoint>
          <Trackpoint>
            <Time>2022-07-13T06:49:21.000Z</Time>
            <Position>
              <LatitudeDegrees>43.40352865867316722869873046875</LatitudeDegrees>
              <LongitudeDegrees>-3.31124612130224704742431640625</LongitudeDegrees>
            </Position>
            <AltitudeMeters>26</AltitudeMeters>
            <DistanceMeters>NAN</DistanceMeters>
          </Trackpoint>
          <Trackpoint>
            <Time>2022-07-13T06:49:22.000Z</Time>
            <Position>
              <LatitudeDegrees>43.40352714993059635162353515625</LatitudeDegrees>
              <LongitudeDegrees>-3.3112693391740322113037109375</LongitudeDegrees>
            </Position>
            <AltitudeMeters>26.200000762939453125</AltitudeMeters>
            <DistanceMeters>NAN</DistanceMeters>
          </Trackpoint>
          <Trackpoint>
            <Time>2022-07-13T06:49:31.000Z</Time>
            <Position>
              <LatitudeDegrees>43.40355028398334980010986328125</LatitudeDegrees>
              <LongitudeDegrees>-3.3114296011626720428466796875</LongitudeDegrees>
            </Position>
            <AltitudeMeters>27</AltitudeMeters>
            <DistanceMeters>NAN</DistanceMeters>
          </Trackpoint>
          <Trackpoint>
            <Time>2022-07-13T06:49:32.000Z</Time>
            <Position>
              <LatitudeDegrees>43.40354944579303264617919921875</LatitudeDegrees>
              <LongitudeDegrees>-3.31145047210156917572021484375</LongitudeDegrees>
            </Position>
            <AltitudeMeters>27</AltitudeMeters>
            <DistanceMeters>NAN</DistanceMeters>
          </Trackpoint>
          <Trackpoint>
            <Time>2022-07-13T06:49:40.000Z</Time>
            <Position>
              <LatitudeDegrees>43.40354911051690578460693359375</LatitudeDegrees>
              <LongitudeDegrees>-3.31159866414964199066162109375</LongitudeDegrees>
            </Position>
            <AltitudeMeters>28.200000762939453125</AltitudeMeters>
            <DistanceMeters>NAN</DistanceMeters>
          </Trackpoint>
          <Trackpoint>
            <Time>2022-07-13T06:49:46.000Z</Time>
            <Position>
              <LatitudeDegrees>43.40354307554662227630615234375</LatitudeDegrees>
              <LongitudeDegrees>-3.311704359948635101318359375</LongitudeDegrees>
            </Position>
            <AltitudeMeters>29.200000762939453125</AltitudeMeters>
            <DistanceMeters>NAN</DistanceMeters>
          </Trackpoint>
          <Trackpoint>
            <Time>2022-07-13T06:49:51.000Z</Time>
            <Position>
              <LatitudeDegrees>43.4035168401896953582763671875</LatitudeDegrees>
              <LongitudeDegrees>-3.311782144010066986083984375</LongitudeDegrees>
            </Position>
            <AltitudeMeters>30</AltitudeMeters>
            <DistanceMeters>NAN</DistanceMeters>
          </Trackpoint>
          <Trackpoint>
            <Time>2022-07-13T06:49:52.000Z</Time>
            <Position>
              <LatitudeDegrees>43.4035101346671581268310546875</LatitudeDegrees>
              <LongitudeDegrees>-3.311797566711902618408203125</LongitudeDegrees>
            </Position>
            <AltitudeMeters>30.3999996185302734375</AltitudeMeters>
            <DistanceMeters>NAN</DistanceMeters>
          </Trackpoint>
          <Trackpoint>
            <Time>2022-07-13T06:49:57.000Z</Time>
            <Position>
              <LatitudeDegrees>43.4034735895693302154541015625</LatitudeDegrees>
              <LongitudeDegrees>-3.3118785358965396881103515625</LongitudeDegrees>
            </Position>
            <AltitudeMeters>31</AltitudeMeters>
            <DistanceMeters>NAN</DistanceMeters>
          </Trackpoint>
          <Trackpoint>
            <Time>2022-07-13T06:49:59.000Z</Time>
            <Position>
              <LatitudeDegrees>43.40346227400004863739013671875</LatitudeDegrees>
              <LongitudeDegrees>-3.31191265024244785308837890625</LongitudeDegrees>
            </Position>
            <AltitudeMeters>31.200000762939453125</AltitudeMeters>
            <DistanceMeters>NAN</DistanceMeters>
          </Trackpoint>
          <Trackpoint>
            <Time>2022-07-13T06:50:02.000Z</Time>
            <Position>
              <LatitudeDegrees>43.40344819240272045135498046875</LatitudeDegrees>
              <LongitudeDegrees>-3.31195858307182788848876953125</LongitudeDegrees>
            </Position>
            <AltitudeMeters>31.3999996185302734375</AltitudeMeters>
            <DistanceMeters>NAN</DistanceMeters>
          </Trackpoint>
          <Trackpoint>
            <Time>2022-07-13T06:50:06.000Z</Time>
            <Position>
              <LatitudeDegrees>43.40342002920806407928466796875</LatitudeDegrees>
              <LongitudeDegrees>-3.31204525195062160491943359375</LongitudeDegrees>
            </Position>
            <AltitudeMeters>31.3999996185302734375</AltitudeMeters>
            <DistanceMeters>NAN</DistanceMeters>
          </Trackpoint>
          <Trackpoint>
            <Time>2022-07-13T06:50:07.000Z</Time>
            <Position>
              <LatitudeDegrees>43.4034165926277637481689453125</LatitudeDegrees>
              <LongitudeDegrees>-3.31206704489886760711669921875</LongitudeDegrees>
            </Position>
            <AltitudeMeters>31.6000003814697265625</AltitudeMeters>
            <DistanceMeters>NAN</DistanceMeters>
          </Trackpoint>
          <Trackpoint>
            <Time>2022-07-13T06:50:17.000Z</Time>
            <Position>
              <LatitudeDegrees>43.40334492735564708709716796875</LatitudeDegrees>
              <LongitudeDegrees>-3.31237499602138996124267578125</LongitudeDegrees>
            </Position>
            <AltitudeMeters>31.799999237060546875</AltitudeMeters>
            <DistanceMeters>NAN</DistanceMeters>
          </Trackpoint>
          <Trackpoint>
            <Time>2022-07-13T06:50:25.000Z</Time>
            <Position>
              <LatitudeDegrees>43.403272591531276702880859375</LatitudeDegrees>
              <LongitudeDegrees>-3.31267758272588253021240234375</LongitudeDegrees>
            </Position>
            <AltitudeMeters>31.799999237060546875</AltitudeMeters>
            <DistanceMeters>NAN</DistanceMeters>
          </Trackpoint>
          <Trackpoint>
            <Time>2022-07-13T06:50:30.000Z</Time>
            <Position>
              <LatitudeDegrees>43.40320587158203125</LatitudeDegrees>
              <LongitudeDegrees>-3.3128575421869754791259765625</LongitudeDegrees>
            </Position>
            <AltitudeMeters>31.6000003814697265625</AltitudeMeters>
            <DistanceMeters>NAN</DistanceMeters>
          </Trackpoint>
          <Trackpoint>
            <Time>2022-07-13T06:50:33.000Z</Time>
            <Position>
              <LatitudeDegrees>43.403172679245471954345703125</LatitudeDegrees>
              <LongitudeDegrees>-3.31296592019498348236083984375</LongitudeDegrees>
            </Position>
            <AltitudeMeters>31.6000003814697265625</AltitudeMeters>
            <DistanceMeters>NAN</DistanceMeters>
          </Trackpoint>
          <Trackpoint>
            <Time>2022-07-13T06:50:38.000Z</Time>
            <Position>
              <LatitudeDegrees>43.40308793820440769195556640625</LatitudeDegrees>
              <LongitudeDegrees>-3.3131056465208530426025390625</LongitudeDegrees>
            </Position>
            <AltitudeMeters>31.799999237060546875</AltitudeMeters>
            <DistanceMeters>NAN</DistanceMeters>
          </Trackpoint>
          <Trackpoint>
            <Time>2022-07-13T06:50:40.000Z</Time>
            <Position>
              <LatitudeDegrees>43.40305323712527751922607421875</LatitudeDegrees>
              <LongitudeDegrees>-3.31316038034856319427490234375</LongitudeDegrees>
            </Position>
            <AltitudeMeters>31.6000003814697265625</AltitudeMeters>
            <DistanceMeters>NAN</DistanceMeters>
          </Trackpoint>
          <Trackpoint>
            <Time>2022-07-13T06:50:44.000Z</Time>
            <Position>
              <LatitudeDegrees>43.4029884450137615203857421875</LatitudeDegrees>
              <LongitudeDegrees>-3.3132615499198436737060546875</LongitudeDegrees>
            </Position>
            <AltitudeMeters>31.6000003814697265625</AltitudeMeters>
            <DistanceMeters>NAN</DistanceMeters>
          </Trackpoint>
          <Trackpoint>
            <Time>2022-07-13T06:50:48.000Z</Time>
            <Position>
              <LatitudeDegrees>43.40293823741376399993896484375</LatitudeDegrees>
              <LongitudeDegrees>-3.3133705146610736846923828125</LongitudeDegrees>
            </Position>
            <AltitudeMeters>31.6000003814697265625</AltitudeMeters>
            <DistanceMeters>NAN</DistanceMeters>
          </Trackpoint>
          <Trackpoint>
            <Time>2022-07-13T06:50:55.000Z</Time>
            <Position>
              <LatitudeDegrees>43.4028466232120990753173828125</LatitudeDegrees>
              <LongitudeDegrees>-3.31352951936423778533935546875</LongitudeDegrees>
            </Position>
            <AltitudeMeters>31.3999996185302734375</AltitudeMeters>
            <DistanceMeters>NAN</DistanceMeters>
          </Trackpoint>
          <Trackpoint>
            <Time>2022-07-13T06:50:56.000Z</Time>
            <Position>
              <LatitudeDegrees>43.4028466232120990753173828125</LatitudeDegrees>
              <LongitudeDegrees>-3.31352951936423778533935546875</LongitudeDegrees>
            </Position>
            <AltitudeMeters>31.3999996185302734375</AltitudeMeters>
            <DistanceMeters>NAN</DistanceMeters>
          </Trackpoint>
          <Trackpoint>
            <Time>2022-07-13T06:51:48.000Z</Time>
            <Position>
              <LatitudeDegrees>43.40281720273196697235107421875</LatitudeDegrees>
              <LongitudeDegrees>-3.31356992013752460479736328125</LongitudeDegrees>
            </Position>
            <AltitudeMeters>32.200000762939453125</AltitudeMeters>
            <DistanceMeters>NAN</DistanceMeters>
          </Trackpoint>
          <Trackpoint>
            <Time>2022-07-13T06:51:50.000Z</Time>
            <Position>
              <LatitudeDegrees>43.40278753079473972320556640625</LatitudeDegrees>
              <LongitudeDegrees>-3.31361719407141208648681640625</LongitudeDegrees>
            </Position>
            <AltitudeMeters>32.200000762939453125</AltitudeMeters>
            <DistanceMeters>NAN</DistanceMeters>
          </Trackpoint>
          <Trackpoint>
            <Time>2022-07-13T06:51:56.000Z</Time>
            <Position>
              <LatitudeDegrees>43.40266339480876922607421875</LatitudeDegrees>
              <LongitudeDegrees>-3.31380679272115230560302734375</LongitudeDegrees>
            </Position>
            <AltitudeMeters>32.59999847412109375</AltitudeMeters>
            <DistanceMeters>NAN</DistanceMeters>
          </Trackpoint>
          <Trackpoint>
            <Time>2022-07-13T06:52:04.000Z</Time>
            <Position>
              <LatitudeDegrees>43.40253808535635471343994140625</LatitudeDegrees>
              <LongitudeDegrees>-3.314092196524143218994140625</LongitudeDegrees>
            </Position>
            <AltitudeMeters>32.40000152587890625</AltitudeMeters>
            <DistanceMeters>NAN</DistanceMeters>
          </Trackpoint>
          <Trackpoint>
            <Time>2022-07-13T06:52:11.000Z</Time>
            <Position>
              <LatitudeDegrees>43.40243406593799591064453125</LatitudeDegrees>
              <LongitudeDegrees>-3.31438631750643253326416015625</LongitudeDegrees>
            </Position>
            <AltitudeMeters>32.40000152587890625</AltitudeMeters>
            <DistanceMeters>NAN</DistanceMeters>
          </Trackpoint>
          <Trackpoint>
            <Time>2022-07-13T06:52:14.000Z</Time>
            <Position>
              <LatitudeDegrees>43.402377068996429443359375</LatitudeDegrees>
              <LongitudeDegrees>-3.3145124651491641998291015625</LongitudeDegrees>
            </Position>
            <AltitudeMeters>32.59999847412109375</AltitudeMeters>
            <DistanceMeters>NAN</DistanceMeters>
          </Trackpoint>
          <Trackpoint>
            <Time>2022-07-13T06:52:21.000Z</Time>
            <Position>
              <LatitudeDegrees>43.40227187611162662506103515625</LatitudeDegrees>
              <LongitudeDegrees>-3.3148192428052425384521484375</LongitudeDegrees>
            </Position>
            <AltitudeMeters>33</AltitudeMeters>
            <DistanceMeters>NAN</DistanceMeters>
          </Trackpoint>
          <Trackpoint>
            <Time>2022-07-13T06:52:26.000Z</Time>
            <Position>
              <LatitudeDegrees>43.4022018872201442718505859375</LatitudeDegrees>
              <LongitudeDegrees>-3.31504630856215953826904296875</LongitudeDegrees>
            </Position>
            <AltitudeMeters>33.200000762939453125</AltitudeMeters>
            <DistanceMeters>NAN</DistanceMeters>
          </Trackpoint>
          <Trackpoint>
            <Time>2022-07-13T06:52:29.000Z</Time>
            <Position>
              <LatitudeDegrees>43.4021556191146373748779296875</LatitudeDegrees>
              <LongitudeDegrees>-3.3151753060519695281982421875</LongitudeDegrees>
            </Position>
            <AltitudeMeters>33</AltitudeMeters>
            <DistanceMeters>NAN</DistanceMeters>
          </Trackpoint>
          <Trackpoint>
            <Time>2022-07-13T06:52:34.000Z</Time>
            <Position>
              <LatitudeDegrees>43.40206836350262165069580078125</LatitudeDegrees>
              <LongitudeDegrees>-3.31539616920053958892822265625</LongitudeDegrees>
            </Position>
            <AltitudeMeters>33.200000762939453125</AltitudeMeters>
            <DistanceMeters>NAN</DistanceMeters>
          </Trackpoint>
          <Trackpoint>
            <Time>2022-07-13T06:52:39.000Z</Time>
            <Position>
              <LatitudeDegrees>43.401986472308635711669921875</LatitudeDegrees>
              <LongitudeDegrees>-3.3155925571918487548828125</LongitudeDegrees>
            </Position>
            <AltitudeMeters>33.799999237060546875</AltitudeMeters>
            <DistanceMeters>NAN</DistanceMeters>
          </Trackpoint>
          <Trackpoint>
            <Time>2022-07-13T06:52:41.000Z</Time>
            <Position>
              <LatitudeDegrees>43.4019412100315093994140625</LatitudeDegrees>
              <LongitudeDegrees>-3.31565148197114467620849609375</LongitudeDegrees>
            </Position>
            <AltitudeMeters>33.799999237060546875</AltitudeMeters>
            <DistanceMeters>NAN</DistanceMeters>
          </Trackpoint>
          <Trackpoint>
            <Time>2022-07-13T06:52:45.000Z</Time>
            <Position>
              <LatitudeDegrees>43.40183367021381855010986328125</LatitudeDegrees>
              <LongitudeDegrees>-3.3157781325280666351318359375</LongitudeDegrees>
            </Position>
            <AltitudeMeters>32.799999237060546875</AltitudeMeters>
            <DistanceMeters>NAN</DistanceMeters>
          </Trackpoint>
          <Trackpoint>
            <Time>2022-07-13T06:52:46.000Z</Time>
            <Position>
              <LatitudeDegrees>43.4018055908381938934326171875</LatitudeDegrees>
              <LongitudeDegrees>-3.3158111572265625</LongitudeDegrees>
            </Position>
            <AltitudeMeters>32.59999847412109375</AltitudeMeters>
            <DistanceMeters>NAN</DistanceMeters>
          </Trackpoint>
          <Trackpoint>
            <Time>2022-07-13T06:52:51.000Z</Time>
            <Position>
              <LatitudeDegrees>43.40165295638144016265869140625</LatitudeDegrees>
              <LongitudeDegrees>-3.3159521408379077911376953125</LongitudeDegrees>
            </Position>
            <AltitudeMeters>33</AltitudeMeters>
            <DistanceMeters>NAN</DistanceMeters>
          </Trackpoint>
          <Trackpoint>
            <Time>2022-07-13T06:53:01.000Z</Time>
            <Position>
              <LatitudeDegrees>43.4012892656028270721435546875</LatitudeDegrees>
              <LongitudeDegrees>-3.31618457101285457611083984375</LongitudeDegrees>
            </Position>
            <AltitudeMeters>33</AltitudeMeters>
            <DistanceMeters>NAN</DistanceMeters>
          </Trackpoint>
          <Trackpoint>
            <Time>2022-07-13T06:53:12.000Z</Time>
            <Position>
              <LatitudeDegrees>43.40088752098381519317626953125</LatitudeDegrees>
              <LongitudeDegrees>-3.31635707058012485504150390625</LongitudeDegrees>
            </Position>
            <AltitudeMeters>32.40000152587890625</AltitudeMeters>
            <DistanceMeters>NAN</DistanceMeters>
          </Trackpoint>
          <Trackpoint>
            <Time>2022-07-13T06:53:21.000Z</Time>
            <Position>
              <LatitudeDegrees>43.4005600400269031524658203125</LatitudeDegrees>
              <LongitudeDegrees>-3.3164696395397186279296875</LongitudeDegrees>
            </Position>
            <AltitudeMeters>31.6000003814697265625</AltitudeMeters>
            <DistanceMeters>NAN</DistanceMeters>
          </Trackpoint>
          <Trackpoint>
            <Time>2022-07-13T06:53:22.000Z</Time>
            <Position>
              <LatitudeDegrees>43.4005295298993587493896484375</LatitudeDegrees>
              <LongitudeDegrees>-3.316479027271270751953125</LongitudeDegrees>
            </Position>
            <AltitudeMeters>31.3999996185302734375</AltitudeMeters>
            <DistanceMeters>NAN</DistanceMeters>
          </Trackpoint>
          <Trackpoint>
            <Time>2022-07-13T06:53:32.000Z</Time>
            <Position>
              <LatitudeDegrees>43.4001164697110652923583984375</LatitudeDegrees>
              <LongitudeDegrees>-3.31655086018145084381103515625</LongitudeDegrees>
            </Position>
            <AltitudeMeters>30.6000003814697265625</AltitudeMeters>
            <DistanceMeters>NAN</DistanceMeters>
          </Trackpoint>
          <Trackpoint>
            <Time>2022-07-13T06:53:34.000Z</Time>
            <Position>
              <LatitudeDegrees>43.400024436414241790771484375</LatitudeDegrees>
              <LongitudeDegrees>-3.3165554702281951904296875</LongitudeDegrees>
            </Position>
            <AltitudeMeters>30.200000762939453125</AltitudeMeters>
            <DistanceMeters>NAN</DistanceMeters>
          </Trackpoint>
          <Trackpoint>
            <Time>2022-07-13T06:53:43.000Z</Time>
            <Position>
              <LatitudeDegrees>43.39961699210107326507568359375</LatitudeDegrees>
              <LongitudeDegrees>-3.31655287183821201324462890625</LongitudeDegrees>
            </Position>
            <AltitudeMeters>29.200000762939453125</AltitudeMeters>
            <DistanceMeters>NAN</DistanceMeters>
          </Trackpoint>
          <Trackpoint>
            <Time>2022-07-13T06:53:44.000Z</Time>
            <Position>
              <LatitudeDegrees>43.3995709754526615142822265625</LatitudeDegrees>
              <LongitudeDegrees>-3.31654985435307025909423828125</LongitudeDegrees>
            </Position>
            <AltitudeMeters>29</AltitudeMeters>
            <DistanceMeters>NAN</DistanceMeters>
          </Trackpoint>
          <Trackpoint>
            <Time>2022-07-13T06:53:55.000Z</Time>
            <Position>
              <LatitudeDegrees>43.3990643732249736785888671875</LatitudeDegrees>
              <LongitudeDegrees>-3.3164704777300357818603515625</LongitudeDegrees>
            </Position>
            <AltitudeMeters>28.200000762939453125</AltitudeMeters>
            <DistanceMeters>NAN</DistanceMeters>
          </Trackpoint>
          <Trackpoint>
            <Time>2022-07-13T06:53:58.000Z</Time>
            <Position>
              <LatitudeDegrees>43.39894493110477924346923828125</LatitudeDegrees>
              <LongitudeDegrees>-3.3164191804826259613037109375</LongitudeDegrees>
            </Position>
            <AltitudeMeters>28</AltitudeMeters>
            <DistanceMeters>NAN</DistanceMeters>
          </Trackpoint>
          <Trackpoint>
            <Time>2022-07-13T06:54:01.000Z</Time>
            <Position>
              <LatitudeDegrees>43.398826159536838531494140625</LatitudeDegrees>
              <LongitudeDegrees>-3.31635623238980770111083984375</LongitudeDegrees>
            </Position>
            <AltitudeMeters>27.3999996185302734375</AltitudeMeters>
            <DistanceMeters>NAN</DistanceMeters>
          </Trackpoint>
          <Trackpoint>
            <Time>2022-07-13T06:54:10.000Z</Time>
            <Position>
              <LatitudeDegrees>43.39843983761966228485107421875</LatitudeDegrees>
              <LongitudeDegrees>-3.31610259599983692169189453125</LongitudeDegrees>
            </Position>
            <AltitudeMeters>27.200000762939453125</AltitudeMeters>
            <DistanceMeters>NAN</DistanceMeters>
          </Trackpoint>
          <Trackpoint>
            <Time>2022-07-13T06:54:11.000Z</Time>
            <Position>
              <LatitudeDegrees>43.3983897976577281951904296875</LatitudeDegrees>
              <LongitudeDegrees>-3.31607493571937084197998046875</LongitudeDegrees>
            </Position>
            <AltitudeMeters>27</AltitudeMeters>
            <DistanceMeters>NAN</DistanceMeters>
          </Trackpoint>
          <Trackpoint>
            <Time>2022-07-13T06:54:19.000Z</Time>
            <Position>
              <LatitudeDegrees>43.39800565503537654876708984375</LatitudeDegrees>
              <LongitudeDegrees>-3.31583990715444087982177734375</LongitudeDegrees>
            </Position>
            <AltitudeMeters>26.200000762939453125</AltitudeMeters>
            <DistanceMeters>NAN</DistanceMeters>
          </Trackpoint>
          <Trackpoint>
            <Time>2022-07-13T06:54:21.000Z</Time>
            <Position>
              <LatitudeDegrees>43.39790507219731807708740234375</LatitudeDegrees>
              <LongitudeDegrees>-3.31578559242188930511474609375</LongitudeDegrees>
            </Position>
            <AltitudeMeters>26</AltitudeMeters>
            <DistanceMeters>NAN</DistanceMeters>
          </Trackpoint>
          <Trackpoint>
            <Time>2022-07-13T06:54:31.000Z</Time>
            <Position>
              <LatitudeDegrees>43.39744607917964458465576171875</LatitudeDegrees>
              <LongitudeDegrees>-3.31551770679652690887451171875</LongitudeDegrees>
            </Position>
            <AltitudeMeters>25.3999996185302734375</AltitudeMeters>
            <DistanceMeters>NAN</DistanceMeters>
          </Trackpoint>
          <Trackpoint>
            <Time>2022-07-13T06:54:33.000Z</Time>
            <Position>
              <LatitudeDegrees>43.397347927093505859375</LatitudeDegrees>
              <LongitudeDegrees>-3.3154713548719882965087890625</LongitudeDegrees>
            </Position>
            <AltitudeMeters>25.3999996185302734375</AltitudeMeters>
            <DistanceMeters>NAN</DistanceMeters>
          </Trackpoint>
          <Trackpoint>
            <Time>2022-07-13T06:54:37.000Z</Time>
            <Position>
              <LatitudeDegrees>43.3971331827342510223388671875</LatitudeDegrees>
              <LongitudeDegrees>-3.31541611813008785247802734375</LongitudeDegrees>
            </Position>
            <AltitudeMeters>25.3999996185302734375</AltitudeMeters>
            <DistanceMeters>NAN</DistanceMeters>
          </Trackpoint>
          <Trackpoint>
            <Time>2022-07-13T06:54:45.000Z</Time>
            <Position>
              <LatitudeDegrees>43.3967774547636508941650390625</LatitudeDegrees>
              <LongitudeDegrees>-3.31531922332942485809326171875</LongitudeDegrees>
            </Position>
            <AltitudeMeters>25.200000762939453125</AltitudeMeters>
            <DistanceMeters>NAN</DistanceMeters>
          </Trackpoint>
          <Trackpoint>
            <Time>2022-07-13T06:54:46.000Z</Time>
            <Position>
              <LatitudeDegrees>43.3967323601245880126953125</LatitudeDegrees>
              <LongitudeDegrees>-3.31530514173209667205810546875</LongitudeDegrees>
            </Position>
            <AltitudeMeters>25</AltitudeMeters>
            <DistanceMeters>NAN</DistanceMeters>
          </Trackpoint>
          <Trackpoint>
            <Time>2022-07-13T06:54:53.000Z</Time>
            <Position>
              <LatitudeDegrees>43.39638710953295230865478515625</LatitudeDegrees>
              <LongitudeDegrees>-3.3152031339704990386962890625</LongitudeDegrees>
            </Position>
            <AltitudeMeters>24.3999996185302734375</AltitudeMeters>
            <DistanceMeters>NAN</DistanceMeters>
          </Trackpoint>
          <Trackpoint>
            <Time>2022-07-13T06:54:58.000Z</Time>
            <Position>
              <LatitudeDegrees>43.39612224139273166656494140625</LatitudeDegrees>
              <LongitudeDegrees>-3.31513197161257266998291015625</LongitudeDegrees>
            </Position>
            <AltitudeMeters>23.799999237060546875</AltitudeMeters>
            <DistanceMeters>NAN</DistanceMeters>
          </Trackpoint>
          <Trackpoint>
            <Time>2022-07-13T06:55:03.000Z</Time>
            <Position>
              <LatitudeDegrees>43.395870365202426910400390625</LatitudeDegrees>
              <LongitudeDegrees>-3.31500858999788761138916015625</LongitudeDegrees>
            </Position>
            <AltitudeMeters>23.3999996185302734375</AltitudeMeters>
            <DistanceMeters>NAN</DistanceMeters>
          </Trackpoint>
          <Trackpoint>
            <Time>2022-07-13T06:55:04.000Z</Time>
            <Position>
              <LatitudeDegrees>43.395820073783397674560546875</LatitudeDegrees>
              <LongitudeDegrees>-3.31498168408870697021484375</LongitudeDegrees>
            </Position>
            <AltitudeMeters>23.3999996185302734375</AltitudeMeters>
            <DistanceMeters>NAN</DistanceMeters>
          </Trackpoint>
          <Trackpoint>
            <Time>2022-07-13T06:55:08.000Z</Time>
            <Position>
              <LatitudeDegrees>43.3956311456859111785888671875</LatitudeDegrees>
              <LongitudeDegrees>-3.314870707690715789794921875</LongitudeDegrees>
            </Position>
            <AltitudeMeters>23.6000003814697265625</AltitudeMeters>
            <DistanceMeters>NAN</DistanceMeters>
          </Trackpoint>
          <Trackpoint>
            <Time>2022-07-13T06:55:14.000Z</Time>
            <Position>
              <LatitudeDegrees>43.39536451734602451324462890625</LatitudeDegrees>
              <LongitudeDegrees>-3.31471287645399570465087890625</LongitudeDegrees>
            </Position>
            <AltitudeMeters>23.6000003814697265625</AltitudeMeters>
            <DistanceMeters>NAN</DistanceMeters>
          </Trackpoint>
          <Trackpoint>
            <Time>2022-07-13T06:55:23.000Z</Time>
            <Position>
              <LatitudeDegrees>43.3949753455817699432373046875</LatitudeDegrees>
              <LongitudeDegrees>-3.31454523839056491851806640625</LongitudeDegrees>
            </Position>
            <AltitudeMeters>23.6000003814697265625</AltitudeMeters>
            <DistanceMeters>NAN</DistanceMeters>
          </Trackpoint>
          <Trackpoint>
            <Time>2022-07-13T06:55:24.000Z</Time>
            <Position>
              <LatitudeDegrees>43.394933603703975677490234375</LatitudeDegrees>
              <LongitudeDegrees>-3.31454473547637462615966796875</LongitudeDegrees>
            </Position>
            <AltitudeMeters>23.6000003814697265625</AltitudeMeters>
            <DistanceMeters>NAN</DistanceMeters>
          </Trackpoint>
          <Trackpoint>
            <Time>2022-07-13T06:55:30.000Z</Time>
            <Position>
              <LatitudeDegrees>43.39465297758579254150390625</LatitudeDegrees>
              <LongitudeDegrees>-3.3145191706717014312744140625</LongitudeDegrees>
            </Position>
            <AltitudeMeters>23.799999237060546875</AltitudeMeters>
            <DistanceMeters>NAN</DistanceMeters>
          </Trackpoint>
          <Trackpoint>
            <Time>2022-07-13T06:55:38.000Z</Time>
            <Position>
              <LatitudeDegrees>43.3942816592752933502197265625</LatitudeDegrees>
              <LongitudeDegrees>-3.314544148743152618408203125</LongitudeDegrees>
            </Position>
            <AltitudeMeters>23.799999237060546875</AltitudeMeters>
            <DistanceMeters>NAN</DistanceMeters>
          </Trackpoint>
          <Trackpoint>
            <Time>2022-07-13T06:55:48.000Z</Time>
            <Position>
              <LatitudeDegrees>43.3938256837427616119384765625</LatitudeDegrees>
              <LongitudeDegrees>-3.3146323263645172119140625</LongitudeDegrees>
            </Position>
            <AltitudeMeters>23.799999237060546875</AltitudeMeters>
            <DistanceMeters>NAN</DistanceMeters>
          </Trackpoint>
          <Trackpoint>
            <Time>2022-07-13T06:55:58.000Z</Time>
            <Position>
              <LatitudeDegrees>43.39341572485864162445068359375</LatitudeDegrees>
              <LongitudeDegrees>-3.31470868550240993499755859375</LongitudeDegrees>
            </Position>
            <AltitudeMeters>23.799999237060546875</AltitudeMeters>
            <DistanceMeters>NAN</DistanceMeters>
          </Trackpoint>
          <Trackpoint>
            <Time>2022-07-13T06:56:09.000Z</Time>
            <Position>
              <LatitudeDegrees>43.39296075515449047088623046875</LatitudeDegrees>
              <LongitudeDegrees>-3.314701057970523834228515625</LongitudeDegrees>
            </Position>
            <AltitudeMeters>24.200000762939453125</AltitudeMeters>
            <DistanceMeters>NAN</DistanceMeters>
          </Trackpoint>
          <Trackpoint>
            <Time>2022-07-13T06:56:17.000Z</Time>
            <Position>
              <LatitudeDegrees>43.39267124421894550323486328125</LatitudeDegrees>
              <LongitudeDegrees>-3.314662165939807891845703125</LongitudeDegrees>
            </Position>
            <AltitudeMeters>24.3999996185302734375</AltitudeMeters>
            <DistanceMeters>NAN</DistanceMeters>
          </Trackpoint>
          <Trackpoint>
            <Time>2022-07-13T06:56:18.000Z</Time>
            <Position>
              <LatitudeDegrees>43.3926378004252910614013671875</LatitudeDegrees>
              <LongitudeDegrees>-3.31465872935950756072998046875</LongitudeDegrees>
            </Position>
            <AltitudeMeters>24.3999996185302734375</AltitudeMeters>
            <DistanceMeters>NAN</DistanceMeters>
          </Trackpoint>
          <Trackpoint>
            <Time>2022-07-13T06:56:22.000Z</Time>
            <Position>
              <LatitudeDegrees>43.39251525700092315673828125</LatitudeDegrees>
              <LongitudeDegrees>-3.31465437076985836029052734375</LongitudeDegrees>
            </Position>
            <AltitudeMeters>24.6000003814697265625</AltitudeMeters>
            <DistanceMeters>NAN</DistanceMeters>
          </Trackpoint>
          <Trackpoint>
            <Time>2022-07-13T06:56:26.000Z</Time>
            <Position>
              <LatitudeDegrees>43.39240570552647113800048828125</LatitudeDegrees>
              <LongitudeDegrees>-3.3146304823458194732666015625</LongitudeDegrees>
            </Position>
            <AltitudeMeters>25</AltitudeMeters>
            <DistanceMeters>NAN</DistanceMeters>
          </Trackpoint>
          <Trackpoint>
            <Time>2022-07-13T06:56:27.000Z</Time>
            <Position>
              <LatitudeDegrees>43.392378129065036773681640625</LatitudeDegrees>
              <LongitudeDegrees>-3.31462562084197998046875</LongitudeDegrees>
            </Position>
            <AltitudeMeters>25</AltitudeMeters>
            <DistanceMeters>NAN</DistanceMeters>
          </Trackpoint>
          <Trackpoint>
            <Time>2022-07-13T06:56:36.000Z</Time>
            <Position>
              <LatitudeDegrees>43.39212843216955661773681640625</LatitudeDegrees>
              <LongitudeDegrees>-3.3146066777408123016357421875</LongitudeDegrees>
            </Position>
            <AltitudeMeters>25.6000003814697265625</AltitudeMeters>
            <DistanceMeters>NAN</DistanceMeters>
          </Trackpoint>
          <Trackpoint>
            <Time>2022-07-13T06:56:40.000Z</Time>
            <Position>
              <LatitudeDegrees>43.392018042504787445068359375</LatitudeDegrees>
              <LongitudeDegrees>-3.3146019838750362396240234375</LongitudeDegrees>
            </Position>
            <AltitudeMeters>25.799999237060546875</AltitudeMeters>
            <DistanceMeters>NAN</DistanceMeters>
          </Trackpoint>
          <Trackpoint>
            <Time>2022-07-13T06:56:42.000Z</Time>
            <Position>
              <LatitudeDegrees>43.39195559732615947723388671875</LatitudeDegrees>
              <LongitudeDegrees>-3.3146026544272899627685546875</LongitudeDegrees>
            </Position>
            <AltitudeMeters>26</AltitudeMeters>
            <DistanceMeters>NAN</DistanceMeters>
          </Trackpoint>
          <Trackpoint>
            <Time>2022-07-13T06:56:45.000Z</Time>
            <Position>
              <LatitudeDegrees>43.391867168247699737548828125</LatitudeDegrees>
              <LongitudeDegrees>-3.31461690366268157958984375</LongitudeDegrees>
            </Position>
            <AltitudeMeters>26</AltitudeMeters>
            <DistanceMeters>NAN</DistanceMeters>
          </Trackpoint>
          <Trackpoint>
            <Time>2022-07-13T06:56:46.000Z</Time>
            <Position>
              <LatitudeDegrees>43.39183741249144077301025390625</LatitudeDegrees>
              <LongitudeDegrees>-3.31462268717586994171142578125</LongitudeDegrees>
            </Position>
            <AltitudeMeters>26</AltitudeMeters>
            <DistanceMeters>NAN</DistanceMeters>
          </Trackpoint>
          <Trackpoint>
            <Time>2022-07-13T06:56:49.000Z</Time>
            <Position>
              <LatitudeDegrees>43.3917395956814289093017578125</LatitudeDegrees>
              <LongitudeDegrees>-3.3146462403237819671630859375</LongitudeDegrees>
            </Position>
            <AltitudeMeters>26</AltitudeMeters>
            <DistanceMeters>NAN</DistanceMeters>
          </Trackpoint>
          <Trackpoint>
            <Time>2022-07-13T06:56:54.000Z</Time>
            <Position>
              <LatitudeDegrees>43.3915932476520538330078125</LatitudeDegrees>
              <LongitudeDegrees>-3.31470432691276073455810546875</LongitudeDegrees>
            </Position>
            <AltitudeMeters>26.3999996185302734375</AltitudeMeters>
            <DistanceMeters>NAN</DistanceMeters>
          </Trackpoint>
          <Trackpoint>
            <Time>2022-07-13T06:57:01.000Z</Time>
            <Position>
              <LatitudeDegrees>43.39143030345439910888671875</LatitudeDegrees>
              <LongitudeDegrees>-3.31488152034580707550048828125</LongitudeDegrees>
            </Position>
            <AltitudeMeters>26.3999996185302734375</AltitudeMeters>
            <DistanceMeters>NAN</DistanceMeters>
          </Trackpoint>
          <Trackpoint>
            <Time>2022-07-13T06:57:07.000Z</Time>
            <Position>
              <LatitudeDegrees>43.391293175518512725830078125</LatitudeDegrees>
              <LongitudeDegrees>-3.3150774054229259490966796875</LongitudeDegrees>
            </Position>
            <AltitudeMeters>26.3999996185302734375</AltitudeMeters>
            <DistanceMeters>NAN</DistanceMeters>
          </Trackpoint>
          <Trackpoint>
            <Time>2022-07-13T06:57:12.000Z</Time>
            <Position>
              <LatitudeDegrees>43.39117457158863544464111328125</LatitudeDegrees>
              <LongitudeDegrees>-3.31522216089069843292236328125</LongitudeDegrees>
            </Position>
            <AltitudeMeters>26.6000003814697265625</AltitudeMeters>
            <DistanceMeters>NAN</DistanceMeters>
          </Trackpoint>
          <Trackpoint>
            <Time>2022-07-13T06:57:19.000Z</Time>
            <Position>
              <LatitudeDegrees>43.39100626297295093536376953125</LatitudeDegrees>
              <LongitudeDegrees>-3.31544168293476104736328125</LongitudeDegrees>
            </Position>
            <AltitudeMeters>26.799999237060546875</AltitudeMeters>
            <DistanceMeters>NAN</DistanceMeters>
          </Trackpoint>
          <Trackpoint>
            <Time>2022-07-13T06:57:21.000Z</Time>
            <Position>
              <LatitudeDegrees>43.39094976894557476043701171875</LatitudeDegrees>
              <LongitudeDegrees>-3.3155072294175624847412109375</LongitudeDegrees>
            </Position>
            <AltitudeMeters>26.799999237060546875</AltitudeMeters>
            <DistanceMeters>NAN</DistanceMeters>
          </Trackpoint>
          <Trackpoint>
            <Time>2022-07-13T06:57:26.000Z</Time>
            <Position>
              <LatitudeDegrees>43.3908175863325595855712890625</LatitudeDegrees>
              <LongitudeDegrees>-3.31566304899752140045166015625</LongitudeDegrees>
            </Position>
            <AltitudeMeters>27</AltitudeMeters>
            <DistanceMeters>NAN</DistanceMeters>
          </Trackpoint>
          <Trackpoint>
            <Time>2022-07-13T06:57:29.000Z</Time>
            <Position>
              <LatitudeDegrees>43.39074499905109405517578125</LatitudeDegrees>
              <LongitudeDegrees>-3.3157405816018581390380859375</LongitudeDegrees>
            </Position>
            <AltitudeMeters>27.200000762939453125</AltitudeMeters>
            <DistanceMeters>NAN</DistanceMeters>
          </Trackpoint>
          <Trackpoint>
            <Time>2022-07-13T06:57:36.000Z</Time>
            <Position>
              <LatitudeDegrees>43.3905842341482639312744140625</LatitudeDegrees>
              <LongitudeDegrees>-3.315915428102016448974609375</LongitudeDegrees>
            </Position>
            <AltitudeMeters>27.200000762939453125</AltitudeMeters>
            <DistanceMeters>NAN</DistanceMeters>
          </Trackpoint>
          <Trackpoint>
            <Time>2022-07-13T06:57:46.000Z</Time>
            <Position>
              <LatitudeDegrees>43.39032389223575592041015625</LatitudeDegrees>
              <LongitudeDegrees>-3.3161217905580997467041015625</LongitudeDegrees>
            </Position>
            <AltitudeMeters>27.3999996185302734375</AltitudeMeters>
            <DistanceMeters>NAN</DistanceMeters>
          </Trackpoint>
          <Trackpoint>
            <Time>2022-07-13T06:57:50.000Z</Time>
            <Position>
              <LatitudeDegrees>43.3901798911392688751220703125</LatitudeDegrees>
              <LongitudeDegrees>-3.3161933720111846923828125</LongitudeDegrees>
            </Position>
            <AltitudeMeters>27.3999996185302734375</AltitudeMeters>
            <DistanceMeters>NAN</DistanceMeters>
          </Trackpoint>
          <Trackpoint>
            <Time>2022-07-13T06:57:52.000Z</Time>
            <Position>
              <LatitudeDegrees>43.39010990224778652191162109375</LatitudeDegrees>
              <LongitudeDegrees>-3.316227905452251434326171875</LongitudeDegrees>
            </Position>
            <AltitudeMeters>27.6000003814697265625</AltitudeMeters>
            <DistanceMeters>NAN</DistanceMeters>
          </Trackpoint>
          <Trackpoint>
            <Time>2022-07-13T06:57:58.000Z</Time>
            <Position>
              <LatitudeDegrees>43.3898684196174144744873046875</LatitudeDegrees>
              <LongitudeDegrees>-3.31632220186293125152587890625</LongitudeDegrees>
            </Position>
            <AltitudeMeters>27.200000762939453125</AltitudeMeters>
            <DistanceMeters>NAN</DistanceMeters>
          </Trackpoint>
          <Trackpoint>
            <Time>2022-07-13T06:58:00.000Z</Time>
            <Position>
              <LatitudeDegrees>43.3897959999740123748779296875</LatitudeDegrees>
              <LongitudeDegrees>-3.31635287962853908538818359375</LongitudeDegrees>
            </Position>
            <AltitudeMeters>27.200000762939453125</AltitudeMeters>
            <DistanceMeters>NAN</DistanceMeters>
          </Trackpoint>
          <Trackpoint>
            <Time>2022-07-13T06:58:04.000Z</Time>
            <Position>
              <LatitudeDegrees>43.38966004550457000732421875</LatitudeDegrees>
              <LongitudeDegrees>-3.3164798654615879058837890625</LongitudeDegrees>
            </Position>
            <AltitudeMeters>27.200000762939453125</AltitudeMeters>
            <DistanceMeters>NAN</DistanceMeters>
          </Trackpoint>
          <Trackpoint>
            <Time>2022-07-13T06:58:05.000Z</Time>
            <Position>
              <LatitudeDegrees>43.38962542824447154998779296875</LatitudeDegrees>
              <LongitudeDegrees>-3.31651565618813037872314453125</LongitudeDegrees>
            </Position>
            <AltitudeMeters>27.200000762939453125</AltitudeMeters>
            <DistanceMeters>NAN</DistanceMeters>
          </Trackpoint>
          <Trackpoint>
            <Time>2022-07-13T06:58:12.000Z</Time>
            <Position>
              <LatitudeDegrees>43.38940649293363094329833984375</LatitudeDegrees>
              <LongitudeDegrees>-3.31682310439646244049072265625</LongitudeDegrees>
            </Position>
            <AltitudeMeters>27.200000762939453125</AltitudeMeters>
            <DistanceMeters>NAN</DistanceMeters>
          </Trackpoint>
          <Trackpoint>
            <Time>2022-07-13T06:58:15.000Z</Time>
            <Position>
              <LatitudeDegrees>43.38934161700308322906494140625</LatitudeDegrees>
              <LongitudeDegrees>-3.31696744076907634735107421875</LongitudeDegrees>
            </Position>
            <AltitudeMeters>27.200000762939453125</AltitudeMeters>
            <DistanceMeters>NAN</DistanceMeters>
          </Trackpoint>
          <Trackpoint>
            <Time>2022-07-13T06:58:17.000Z</Time>
            <Position>
              <LatitudeDegrees>43.3893048204481601715087890625</LatitudeDegrees>
              <LongitudeDegrees>-3.3170696161687374114990234375</LongitudeDegrees>
            </Position>
            <AltitudeMeters>27.200000762939453125</AltitudeMeters>
            <DistanceMeters>NAN</DistanceMeters>
          </Trackpoint>
          <Trackpoint>
            <Time>2022-07-13T06:58:20.000Z</Time>
            <Position>
              <LatitudeDegrees>43.38925310410559177398681640625</LatitudeDegrees>
              <LongitudeDegrees>-3.31722266972064971923828125</LongitudeDegrees>
            </Position>
            <AltitudeMeters>27.3999996185302734375</AltitudeMeters>
            <DistanceMeters>NAN</DistanceMeters>
          </Trackpoint>
          <Trackpoint>
            <Time>2022-07-13T06:58:24.000Z</Time>
            <Position>
              <LatitudeDegrees>43.38921437971293926239013671875</LatitudeDegrees>
              <LongitudeDegrees>-3.31740950234234333038330078125</LongitudeDegrees>
            </Position>
            <AltitudeMeters>27.3999996185302734375</AltitudeMeters>
            <DistanceMeters>NAN</DistanceMeters>
          </Trackpoint>
          <Trackpoint>
            <Time>2022-07-13T06:58:28.000Z</Time>
            <Position>
              <LatitudeDegrees>43.389176242053508758544921875</LatitudeDegrees>
              <LongitudeDegrees>-3.31757714040577411651611328125</LongitudeDegrees>
            </Position>
            <AltitudeMeters>27.6000003814697265625</AltitudeMeters>
            <DistanceMeters>NAN</DistanceMeters>
          </Trackpoint>
          <Trackpoint>
            <Time>2022-07-13T06:58:35.000Z</Time>
            <Position>
              <LatitudeDegrees>43.38909066282212734222412109375</LatitudeDegrees>
              <LongitudeDegrees>-3.31782910041511058807373046875</LongitudeDegrees>
            </Position>
            <AltitudeMeters>28</AltitudeMeters>
            <DistanceMeters>NAN</DistanceMeters>
          </Trackpoint>
          <Trackpoint>
            <Time>2022-07-13T06:58:43.000Z</Time>
            <Position>
              <LatitudeDegrees>43.388902656733989715576171875</LatitudeDegrees>
              <LongitudeDegrees>-3.31808567047119140625</LongitudeDegrees>
            </Position>
            <AltitudeMeters>28.200000762939453125</AltitudeMeters>
            <DistanceMeters>NAN</DistanceMeters>
          </Trackpoint>
          <Trackpoint>
            <Time>2022-07-13T06:58:51.000Z</Time>
            <Position>
              <LatitudeDegrees>43.3886825479567050933837890625</LatitudeDegrees>
              <LongitudeDegrees>-3.318335451185703277587890625</LongitudeDegrees>
            </Position>
            <AltitudeMeters>28.200000762939453125</AltitudeMeters>
            <DistanceMeters>NAN</DistanceMeters>
          </Trackpoint>
          <Trackpoint>
            <Time>2022-07-13T06:59:00.000Z</Time>
            <Position>
              <LatitudeDegrees>43.3884035982191562652587890625</LatitudeDegrees>
              <LongitudeDegrees>-3.3185672946274280548095703125</LongitudeDegrees>
            </Position>
            <AltitudeMeters>28.799999237060546875</AltitudeMeters>
            <DistanceMeters>NAN</DistanceMeters>
          </Trackpoint>
          <Trackpoint>
            <Time>2022-07-13T06:59:02.000Z</Time>
            <Position>
              <LatitudeDegrees>43.388342075049877166748046875</LatitudeDegrees>
              <LongitudeDegrees>-3.318605013191699981689453125</LongitudeDegrees>
            </Position>
            <AltitudeMeters>28.799999237060546875</AltitudeMeters>
            <DistanceMeters>NAN</DistanceMeters>
          </Trackpoint>
          <Trackpoint>
            <Time>2022-07-13T06:59:06.000Z</Time>
            <Position>
              <LatitudeDegrees>43.3882088027894496917724609375</LatitudeDegrees>
              <LongitudeDegrees>-3.31864398904144763946533203125</LongitudeDegrees>
            </Position>
            <AltitudeMeters>29</AltitudeMeters>
            <DistanceMeters>NAN</DistanceMeters>
          </Trackpoint>
          <Trackpoint>
            <Time>2022-07-13T06:59:11.000Z</Time>
            <Position>
              <LatitudeDegrees>43.3880277536809444427490234375</LatitudeDegrees>
              <LongitudeDegrees>-3.3186851441860198974609375</LongitudeDegrees>
            </Position>
            <AltitudeMeters>29.200000762939453125</AltitudeMeters>
            <DistanceMeters>NAN</DistanceMeters>
          </Trackpoint>
          <Trackpoint>
            <Time>2022-07-13T06:59:21.000Z</Time>
            <Position>
              <LatitudeDegrees>43.38765182532370090484619140625</LatitudeDegrees>
              <LongitudeDegrees>-3.31870048306882381439208984375</LongitudeDegrees>
            </Position>
            <AltitudeMeters>29.3999996185302734375</AltitudeMeters>
            <DistanceMeters>NAN</DistanceMeters>
          </Trackpoint>
          <Trackpoint>
            <Time>2022-07-13T06:59:30.000Z</Time>
            <Position>
              <LatitudeDegrees>43.38735845871269702911376953125</LatitudeDegrees>
              <LongitudeDegrees>-3.31870014779269695281982421875</LongitudeDegrees>
            </Position>
            <AltitudeMeters>29.200000762939453125</AltitudeMeters>
            <DistanceMeters>NAN</DistanceMeters>
          </Trackpoint>
          <Trackpoint>
            <Time>2022-07-13T06:59:31.000Z</Time>
            <Position>
              <LatitudeDegrees>43.38732928968966007232666015625</LatitudeDegrees>
              <LongitudeDegrees>-3.318698219954967498779296875</LongitudeDegrees>
            </Position>
            <AltitudeMeters>29.200000762939453125</AltitudeMeters>
            <DistanceMeters>NAN</DistanceMeters>
          </Trackpoint>
          <Trackpoint>
            <Time>2022-07-13T06:59:40.000Z</Time>
            <Position>
              <LatitudeDegrees>43.38700373657047748565673828125</LatitudeDegrees>
              <LongitudeDegrees>-3.3186423964798450469970703125</LongitudeDegrees>
            </Position>
            <AltitudeMeters>29.200000762939453125</AltitudeMeters>
            <DistanceMeters>NAN</DistanceMeters>
          </Trackpoint>
          <Trackpoint>
            <Time>2022-07-13T06:59:51.000Z</Time>
            <Position>
              <LatitudeDegrees>43.38665991090238094329833984375</LatitudeDegrees>
              <LongitudeDegrees>-3.31852211616933345794677734375</LongitudeDegrees>
            </Position>
            <AltitudeMeters>29.200000762939453125</AltitudeMeters>
            <DistanceMeters>NAN</DistanceMeters>
          </Trackpoint>
          <Trackpoint>
            <Time>2022-07-13T06:59:56.000Z</Time>
            <Position>
              <LatitudeDegrees>43.38650115765631198883056640625</LatitudeDegrees>
              <LongitudeDegrees>-3.31846495158970355987548828125</LongitudeDegrees>
            </Position>
            <AltitudeMeters>29</AltitudeMeters>
            <DistanceMeters>NAN</DistanceMeters>
          </Trackpoint>
          <Trackpoint>
            <Time>2022-07-13T06:59:58.000Z</Time>
            <Position>
              <LatitudeDegrees>43.38643561117351055145263671875</LatitudeDegrees>
              <LongitudeDegrees>-3.31844014115631580352783203125</LongitudeDegrees>
            </Position>
            <AltitudeMeters>29</AltitudeMeters>
            <DistanceMeters>NAN</DistanceMeters>
          </Trackpoint>
          <Trackpoint>
            <Time>2022-07-13T07:00:02.000Z</Time>
            <Position>
              <LatitudeDegrees>43.3862990699708461761474609375</LatitudeDegrees>
              <LongitudeDegrees>-3.31839035265147686004638671875</LongitudeDegrees>
            </Position>
            <AltitudeMeters>29.200000762939453125</AltitudeMeters>
            <DistanceMeters>NAN</DistanceMeters>
          </Trackpoint>
          <Trackpoint>
            <Time>2022-07-13T07:00:06.000Z</Time>
            <Position>
              <LatitudeDegrees>43.38618130423128604888916015625</LatitudeDegrees>
              <LongitudeDegrees>-3.318345844745635986328125</LongitudeDegrees>
            </Position>
            <AltitudeMeters>29.3999996185302734375</AltitudeMeters>
            <DistanceMeters>NAN</DistanceMeters>
          </Trackpoint>
          <Trackpoint>
            <Time>2022-07-13T07:00:14.000Z</Time>
            <Position>
              <LatitudeDegrees>43.3859339542686939239501953125</LatitudeDegrees>
              <LongitudeDegrees>-3.3182474412024021148681640625</LongitudeDegrees>
            </Position>
            <AltitudeMeters>29.6000003814697265625</AltitudeMeters>
            <DistanceMeters>NAN</DistanceMeters>
          </Trackpoint>
          <Trackpoint>
            <Time>2022-07-13T07:00:16.000Z</Time>
            <Position>
              <LatitudeDegrees>43.38587544858455657958984375</LatitudeDegrees>
              <LongitudeDegrees>-3.318229503929615020751953125</LongitudeDegrees>
            </Position>
            <AltitudeMeters>29.6000003814697265625</AltitudeMeters>
            <DistanceMeters>NAN</DistanceMeters>
          </Trackpoint>
          <Trackpoint>
            <Time>2022-07-13T07:00:23.000Z</Time>
            <Position>
              <LatitudeDegrees>43.385646454989910125732421875</LatitudeDegrees>
              <LongitudeDegrees>-3.31817275844514369964599609375</LongitudeDegrees>
            </Position>
            <AltitudeMeters>30.200000762939453125</AltitudeMeters>
            <DistanceMeters>NAN</DistanceMeters>
          </Trackpoint>
          <Trackpoint>
            <Time>2022-07-13T07:00:24.000Z</Time>
            <Position>
              <LatitudeDegrees>43.385613597929477691650390625</LatitudeDegrees>
              <LongitudeDegrees>-3.3181632868945598602294921875</LongitudeDegrees>
            </Position>
            <AltitudeMeters>30.200000762939453125</AltitudeMeters>
            <DistanceMeters>NAN</DistanceMeters>
          </Trackpoint>
          <Trackpoint>
            <Time>2022-07-13T07:00:29.000Z</Time>
            <Position>
              <LatitudeDegrees>43.3854846842586994171142578125</LatitudeDegrees>
              <LongitudeDegrees>-3.31815205514430999755859375</LongitudeDegrees>
            </Position>
            <AltitudeMeters>29.6000003814697265625</AltitudeMeters>
            <DistanceMeters>NAN</DistanceMeters>
          </Trackpoint>
          <Trackpoint>
            <Time>2022-07-13T07:00:32.000Z</Time>
            <Position>
              <LatitudeDegrees>43.38539776392281055450439453125</LatitudeDegrees>
              <LongitudeDegrees>-3.31814157776534557342529296875</LongitudeDegrees>
            </Position>
            <AltitudeMeters>29.3999996185302734375</AltitudeMeters>
            <DistanceMeters>NAN</DistanceMeters>
          </Trackpoint>
          <Trackpoint>
            <Time>2022-07-13T07:00:34.000Z</Time>
            <Position>
              <LatitudeDegrees>43.3853143639862537384033203125</LatitudeDegrees>
              <LongitudeDegrees>-3.31812120974063873291015625</LongitudeDegrees>
            </Position>
            <AltitudeMeters>29.3999996185302734375</AltitudeMeters>
            <DistanceMeters>NAN</DistanceMeters>
          </Trackpoint>
          <Trackpoint>
            <Time>2022-07-13T07:00:40.000Z</Time>
            <Position>
              <LatitudeDegrees>43.3850696124136447906494140625</LatitudeDegrees>
              <LongitudeDegrees>-3.31808273680508136749267578125</LongitudeDegrees>
            </Position>
            <AltitudeMeters>29.3999996185302734375</AltitudeMeters>
            <DistanceMeters>NAN</DistanceMeters>
          </Trackpoint>
          <Trackpoint>
            <Time>2022-07-13T07:00:46.000Z</Time>
            <Position>
              <LatitudeDegrees>43.38483315892517566680908203125</LatitudeDegrees>
              <LongitudeDegrees>-3.31806362606585025787353515625</LongitudeDegrees>
            </Position>
            <AltitudeMeters>29.200000762939453125</AltitudeMeters>
            <DistanceMeters>NAN</DistanceMeters>
          </Trackpoint>
          <Trackpoint>
            <Time>2022-07-13T07:00:49.000Z</Time>
            <Position>
              <LatitudeDegrees>43.38472704403102397918701171875</LatitudeDegrees>
              <LongitudeDegrees>-3.31805792637169361114501953125</LongitudeDegrees>
            </Position>
            <AltitudeMeters>29.3999996185302734375</AltitudeMeters>
            <DistanceMeters>NAN</DistanceMeters>
          </Trackpoint>
          <Trackpoint>
            <Time>2022-07-13T07:00:55.000Z</Time>
            <Position>
              <LatitudeDegrees>43.3845133893191814422607421875</LatitudeDegrees>
              <LongitudeDegrees>-3.31805541180074214935302734375</LongitudeDegrees>
            </Position>
            <AltitudeMeters>29.200000762939453125</AltitudeMeters>
            <DistanceMeters>NAN</DistanceMeters>
          </Trackpoint>
          <Trackpoint>
            <Time>2022-07-13T07:00:56.000Z</Time>
            <Position>
              <LatitudeDegrees>43.38447441346943378448486328125</LatitudeDegrees>
              <LongitudeDegrees>-3.31805272959172725677490234375</LongitudeDegrees>
            </Position>
            <AltitudeMeters>29</AltitudeMeters>
            <DistanceMeters>NAN</DistanceMeters>
          </Trackpoint>
          <Trackpoint>
            <Time>2022-07-13T07:01:02.000Z</Time>
            <Position>
              <LatitudeDegrees>43.38429034687578678131103515625</LatitudeDegrees>
              <LongitudeDegrees>-3.31807133741676807403564453125</LongitudeDegrees>
            </Position>
            <AltitudeMeters>28.799999237060546875</AltitudeMeters>
            <DistanceMeters>NAN</DistanceMeters>
          </Trackpoint>
          <Trackpoint>
            <Time>2022-07-13T07:01:07.000Z</Time>
            <Position>
              <LatitudeDegrees>43.38416461832821369171142578125</LatitudeDegrees>
              <LongitudeDegrees>-3.31813219003379344940185546875</LongitudeDegrees>
            </Position>
            <AltitudeMeters>28.3999996185302734375</AltitudeMeters>
            <DistanceMeters>NAN</DistanceMeters>
          </Trackpoint>
          <Trackpoint>
            <Time>2022-07-13T07:01:13.000Z</Time>
            <Position>
              <LatitudeDegrees>43.38398692198097705841064453125</LatitudeDegrees>
              <LongitudeDegrees>-3.318257667124271392822265625</LongitudeDegrees>
            </Position>
            <AltitudeMeters>28.6000003814697265625</AltitudeMeters>
            <DistanceMeters>NAN</DistanceMeters>
          </Trackpoint>
          <Trackpoint>
            <Time>2022-07-13T07:01:15.000Z</Time>
            <Position>
              <LatitudeDegrees>43.38393193669617176055908203125</LatitudeDegrees>
              <LongitudeDegrees>-3.31831240095198154449462890625</LongitudeDegrees>
            </Position>
            <AltitudeMeters>28.799999237060546875</AltitudeMeters>
            <DistanceMeters>NAN</DistanceMeters>
          </Trackpoint>
          <Trackpoint>
            <Time>2022-07-13T07:01:25.000Z</Time>
            <Position>
              <LatitudeDegrees>43.38362775743007659912109375</LatitudeDegrees>
              <LongitudeDegrees>-3.318583555519580841064453125</LongitudeDegrees>
            </Position>
            <AltitudeMeters>29</AltitudeMeters>
            <DistanceMeters>NAN</DistanceMeters>
          </Trackpoint>
          <Trackpoint>
            <Time>2022-07-13T07:01:31.000Z</Time>
            <Position>
              <LatitudeDegrees>43.38343857787549495697021484375</LatitudeDegrees>
              <LongitudeDegrees>-3.31874054856598377227783203125</LongitudeDegrees>
            </Position>
            <AltitudeMeters>29</AltitudeMeters>
            <DistanceMeters>NAN</DistanceMeters>
          </Trackpoint>
          <Trackpoint>
            <Time>2022-07-13T07:01:36.000Z</Time>
            <Position>
              <LatitudeDegrees>43.383311592042446136474609375</LatitudeDegrees>
              <LongitudeDegrees>-3.318836353719234466552734375</LongitudeDegrees>
            </Position>
            <AltitudeMeters>29.200000762939453125</AltitudeMeters>
            <DistanceMeters>NAN</DistanceMeters>
          </Trackpoint>
          <Trackpoint>
            <Time>2022-07-13T07:01:37.000Z</Time>
            <Position>
              <LatitudeDegrees>43.38327915407717227935791015625</LatitudeDegrees>
              <LongitudeDegrees>-3.3188563026487827301025390625</LongitudeDegrees>
            </Position>
            <AltitudeMeters>29.3999996185302734375</AltitudeMeters>
            <DistanceMeters>NAN</DistanceMeters>
          </Trackpoint>
          <Trackpoint>
            <Time>2022-07-13T07:01:43.000Z</Time>
            <Position>
              <LatitudeDegrees>43.38302954100072383880615234375</LatitudeDegrees>
              <LongitudeDegrees>-3.319028802216053009033203125</LongitudeDegrees>
            </Position>
            <AltitudeMeters>29.200000762939453125</AltitudeMeters>
            <DistanceMeters>NAN</DistanceMeters>
          </Trackpoint>
          <Trackpoint>
            <Time>2022-07-13T07:01:44.000Z</Time>
            <Position>
              <LatitudeDegrees>43.38299743831157684326171875</LatitudeDegrees>
              <LongitudeDegrees>-3.31905822269618511199951171875</LongitudeDegrees>
            </Position>
            <AltitudeMeters>29.200000762939453125</AltitudeMeters>
            <DistanceMeters>NAN</DistanceMeters>
          </Trackpoint>
          <Trackpoint>
            <Time>2022-07-13T07:01:51.000Z</Time>
            <Position>
              <LatitudeDegrees>43.38274992071092128753662109375</LatitudeDegrees>
              <LongitudeDegrees>-3.31923474557697772979736328125</LongitudeDegrees>
            </Position>
            <AltitudeMeters>29</AltitudeMeters>
            <DistanceMeters>NAN</DistanceMeters>
          </Trackpoint>
          <Trackpoint>
            <Time>2022-07-13T07:01:58.000Z</Time>
            <Position>
              <LatitudeDegrees>43.38249159045517444610595703125</LatitudeDegrees>
              <LongitudeDegrees>-3.3193920738995075225830078125</LongitudeDegrees>
            </Position>
            <AltitudeMeters>29.200000762939453125</AltitudeMeters>
            <DistanceMeters>NAN</DistanceMeters>
          </Trackpoint>
          <Trackpoint>
            <Time>2022-07-13T07:02:07.000Z</Time>
            <Position>
              <LatitudeDegrees>43.3821637742221355438232421875</LatitudeDegrees>
              <LongitudeDegrees>-3.3195100910961627960205078125</LongitudeDegrees>
            </Position>
            <AltitudeMeters>29</AltitudeMeters>
            <DistanceMeters>NAN</DistanceMeters>
          </Trackpoint>
          <Trackpoint>
            <Time>2022-07-13T07:02:12.000Z</Time>
            <Position>
              <LatitudeDegrees>43.3819699846208095550537109375</LatitudeDegrees>
              <LongitudeDegrees>-3.31959432922303676605224609375</LongitudeDegrees>
            </Position>
            <AltitudeMeters>29</AltitudeMeters>
            <DistanceMeters>NAN</DistanceMeters>
          </Trackpoint>
          <Trackpoint>
            <Time>2022-07-13T07:02:18.000Z</Time>
            <Position>
              <LatitudeDegrees>43.38176739402115345001220703125</LatitudeDegrees>
              <LongitudeDegrees>-3.31967563368380069732666015625</LongitudeDegrees>
            </Position>
            <AltitudeMeters>29.200000762939453125</AltitudeMeters>
            <DistanceMeters>NAN</DistanceMeters>
          </Trackpoint>
          <Trackpoint>
            <Time>2022-07-13T07:02:24.000Z</Time>
            <Position>
              <LatitudeDegrees>43.3815778791904449462890625</LatitudeDegrees>
              <LongitudeDegrees>-3.31975073553621768951416015625</LongitudeDegrees>
            </Position>
            <AltitudeMeters>29.200000762939453125</AltitudeMeters>
            <DistanceMeters>NAN</DistanceMeters>
          </Trackpoint>
          <Trackpoint>
            <Time>2022-07-13T07:02:27.000Z</Time>
            <Position>
              <LatitudeDegrees>43.38148509152233600616455078125</LatitudeDegrees>
              <LongitudeDegrees>-3.31979549489915370941162109375</LongitudeDegrees>
            </Position>
            <AltitudeMeters>29.200000762939453125</AltitudeMeters>
            <DistanceMeters>NAN</DistanceMeters>
          </Trackpoint>
          <Trackpoint>
            <Time>2022-07-13T07:02:38.000Z</Time>
            <Position>
              <LatitudeDegrees>43.38108929805457592010498046875</LatitudeDegrees>
              <LongitudeDegrees>-3.31995173357427120208740234375</LongitudeDegrees>
            </Position>
            <AltitudeMeters>28.799999237060546875</AltitudeMeters>
            <DistanceMeters>NAN</DistanceMeters>
          </Trackpoint>
          <Trackpoint>
            <Time>2022-07-13T07:02:41.000Z</Time>
            <Position>
              <LatitudeDegrees>43.38097597472369670867919921875</LatitudeDegrees>
              <LongitudeDegrees>-3.32000076770782470703125</LongitudeDegrees>
            </Position>
            <AltitudeMeters>28.799999237060546875</AltitudeMeters>
            <DistanceMeters>NAN</DistanceMeters>
          </Trackpoint>
          <Trackpoint>
            <Time>2022-07-13T07:02:48.000Z</Time>
            <Position>
              <LatitudeDegrees>43.38069367222487926483154296875</LatitudeDegrees>
              <LongitudeDegrees>-3.32012540660798549652099609375</LongitudeDegrees>
            </Position>
            <AltitudeMeters>28.200000762939453125</AltitudeMeters>
            <DistanceMeters>NAN</DistanceMeters>
          </Trackpoint>
          <Trackpoint>
            <Time>2022-07-13T07:02:49.000Z</Time>
            <Position>
              <LatitudeDegrees>43.38065377436578273773193359375</LatitudeDegrees>
              <LongitudeDegrees>-3.32014359533786773681640625</LongitudeDegrees>
            </Position>
            <AltitudeMeters>28</AltitudeMeters>
            <DistanceMeters>NAN</DistanceMeters>
          </Trackpoint>
          <Trackpoint>
            <Time>2022-07-13T07:02:57.000Z</Time>
            <Position>
              <LatitudeDegrees>43.380351103842258453369140625</LatitudeDegrees>
              <LongitudeDegrees>-3.3203382231295108795166015625</LongitudeDegrees>
            </Position>
            <AltitudeMeters>28</AltitudeMeters>
            <DistanceMeters>NAN</DistanceMeters>
          </Trackpoint>
          <Trackpoint>
            <Time>2022-07-13T07:03:00.000Z</Time>
            <Position>
              <LatitudeDegrees>43.38023618794977664947509765625</LatitudeDegrees>
              <LongitudeDegrees>-3.3203962258994579315185546875</LongitudeDegrees>
            </Position>
            <AltitudeMeters>28</AltitudeMeters>
            <DistanceMeters>NAN</DistanceMeters>
          </Trackpoint>
          <Trackpoint>
            <Time>2022-07-13T07:03:05.000Z</Time>
            <Position>
              <LatitudeDegrees>43.38003418408334255218505859375</LatitudeDegrees>
              <LongitudeDegrees>-3.32047216594219207763671875</LongitudeDegrees>
            </Position>
            <AltitudeMeters>27.799999237060546875</AltitudeMeters>
            <DistanceMeters>NAN</DistanceMeters>
          </Trackpoint>
          <Trackpoint>
            <Time>2022-07-13T07:03:13.000Z</Time>
            <Position>
              <LatitudeDegrees>43.3797253109514713287353515625</LatitudeDegrees>
              <LongitudeDegrees>-3.32066553644835948944091796875</LongitudeDegrees>
            </Position>
            <AltitudeMeters>27.799999237060546875</AltitudeMeters>
            <DistanceMeters>NAN</DistanceMeters>
          </Trackpoint>
          <Trackpoint>
            <Time>2022-07-13T07:03:19.000Z</Time>
            <Position>
              <LatitudeDegrees>43.3794983290135860443115234375</LatitudeDegrees>
              <LongitudeDegrees>-3.3208032511174678802490234375</LongitudeDegrees>
            </Position>
            <AltitudeMeters>27.799999237060546875</AltitudeMeters>
            <DistanceMeters>NAN</DistanceMeters>
          </Trackpoint>
          <Trackpoint>
            <Time>2022-07-13T07:03:20.000Z</Time>
            <Position>
              <LatitudeDegrees>43.3794621191918849945068359375</LatitudeDegrees>
              <LongitudeDegrees>-3.32082663662731647491455078125</LongitudeDegrees>
            </Position>
            <AltitudeMeters>27.799999237060546875</AltitudeMeters>
            <DistanceMeters>NAN</DistanceMeters>
          </Trackpoint>
          <Trackpoint>
            <Time>2022-07-13T07:03:23.000Z</Time>
            <Position>
              <LatitudeDegrees>43.3793608658015727996826171875</LatitudeDegrees>
              <LongitudeDegrees>-3.3209289796650409698486328125</LongitudeDegrees>
            </Position>
            <AltitudeMeters>27.6000003814697265625</AltitudeMeters>
            <DistanceMeters>NAN</DistanceMeters>
          </Trackpoint>
          <Trackpoint>
            <Time>2022-07-13T07:03:27.000Z</Time>
            <Position>
              <LatitudeDegrees>43.3792653121054172515869140625</LatitudeDegrees>
              <LongitudeDegrees>-3.3210946060717105865478515625</LongitudeDegrees>
            </Position>
            <AltitudeMeters>27</AltitudeMeters>
            <DistanceMeters>NAN</DistanceMeters>
          </Trackpoint>
          <Trackpoint>
            <Time>2022-07-13T07:03:29.000Z</Time>
            <Position>
              <LatitudeDegrees>43.3792163617908954620361328125</LatitudeDegrees>
              <LongitudeDegrees>-3.3211975358426570892333984375</LongitudeDegrees>
            </Position>
            <AltitudeMeters>26.6000003814697265625</AltitudeMeters>
            <DistanceMeters>NAN</DistanceMeters>
          </Trackpoint>
          <Trackpoint>
            <Time>2022-07-13T07:03:30.000Z</Time>
            <Position>
              <LatitudeDegrees>43.37919699959456920623779296875</LatitudeDegrees>
              <LongitudeDegrees>-3.32125042565166950225830078125</LongitudeDegrees>
            </Position>
            <AltitudeMeters>26.6000003814697265625</AltitudeMeters>
            <DistanceMeters>NAN</DistanceMeters>
          </Trackpoint>
          <Trackpoint>
            <Time>2022-07-13T07:03:36.000Z</Time>
            <Position>
              <LatitudeDegrees>43.3791201375424861907958984375</LatitudeDegrees>
              <LongitudeDegrees>-3.32161922939121723175048828125</LongitudeDegrees>
            </Position>
            <AltitudeMeters>26</AltitudeMeters>
            <DistanceMeters>NAN</DistanceMeters>
          </Trackpoint>
          <Trackpoint>
            <Time>2022-07-13T07:03:37.000Z</Time>
            <Position>
              <LatitudeDegrees>43.37911318056285381317138671875</LatitudeDegrees>
              <LongitudeDegrees>-3.321676813066005706787109375</LongitudeDegrees>
            </Position>
            <AltitudeMeters>25.799999237060546875</AltitudeMeters>
            <DistanceMeters>NAN</DistanceMeters>
          </Trackpoint>
          <Trackpoint>
            <Time>2022-07-13T07:03:38.000Z</Time>
            <Position>
              <LatitudeDegrees>43.3791117556393146514892578125</LatitudeDegrees>
              <LongitudeDegrees>-3.3217428624629974365234375</LongitudeDegrees>
            </Position>
            <AltitudeMeters>25.6000003814697265625</AltitudeMeters>
            <DistanceMeters>NAN</DistanceMeters>
          </Trackpoint>
          <Trackpoint>
            <Time>2022-07-13T07:03:43.000Z</Time>
            <Position>
              <LatitudeDegrees>43.37913815863430500030517578125</LatitudeDegrees>
              <LongitudeDegrees>-3.32206808030605316162109375</LongitudeDegrees>
            </Position>
            <AltitudeMeters>25.6000003814697265625</AltitudeMeters>
            <DistanceMeters>NAN</DistanceMeters>
          </Trackpoint>
          <Trackpoint>
            <Time>2022-07-13T07:03:45.000Z</Time>
            <Position>
              <LatitudeDegrees>43.3791674114763736724853515625</LatitudeDegrees>
              <LongitudeDegrees>-3.32220680080354213714599609375</LongitudeDegrees>
            </Position>
            <AltitudeMeters>25.799999237060546875</AltitudeMeters>
            <DistanceMeters>NAN</DistanceMeters>
          </Trackpoint>
          <Trackpoint>
            <Time>2022-07-13T07:03:47.000Z</Time>
            <Position>
              <LatitudeDegrees>43.37920186109840869903564453125</LatitudeDegrees>
              <LongitudeDegrees>-3.322307802736759185791015625</LongitudeDegrees>
            </Position>
            <AltitudeMeters>25.6000003814697265625</AltitudeMeters>
            <DistanceMeters>NAN</DistanceMeters>
          </Trackpoint>
          <Trackpoint>
            <Time>2022-07-13T07:03:49.000Z</Time>
            <Position>
              <LatitudeDegrees>43.37926019914448261260986328125</LatitudeDegrees>
              <LongitudeDegrees>-3.32242640666663646697998046875</LongitudeDegrees>
            </Position>
            <AltitudeMeters>25.6000003814697265625</AltitudeMeters>
            <DistanceMeters>NAN</DistanceMeters>
          </Trackpoint>
          <Trackpoint>
            <Time>2022-07-13T07:03:57.000Z</Time>
            <Position>
              <LatitudeDegrees>43.379455916583538055419921875</LatitudeDegrees>
              <LongitudeDegrees>-3.32273033447563648223876953125</LongitudeDegrees>
            </Position>
            <AltitudeMeters>26.200000762939453125</AltitudeMeters>
            <DistanceMeters>NAN</DistanceMeters>
          </Trackpoint>
          <Trackpoint>
            <Time>2022-07-13T07:04:03.000Z</Time>
            <Position>
              <LatitudeDegrees>43.37959882803261280059814453125</LatitudeDegrees>
              <LongitudeDegrees>-3.32286880351603031158447265625</LongitudeDegrees>
            </Position>
            <AltitudeMeters>26.6000003814697265625</AltitudeMeters>
            <DistanceMeters>NAN</DistanceMeters>
          </Trackpoint>
          <Trackpoint>
            <Time>2022-07-13T07:04:04.000Z</Time>
            <Position>
              <LatitudeDegrees>43.3796274103224277496337890625</LatitudeDegrees>
              <LongitudeDegrees>-3.322888500988483428955078125</LongitudeDegrees>
            </Position>
            <AltitudeMeters>26.799999237060546875</AltitudeMeters>
            <DistanceMeters>NAN</DistanceMeters>
          </Trackpoint>
          <Trackpoint>
            <Time>2022-07-13T07:04:10.000Z</Time>
            <Position>
              <LatitudeDegrees>43.3797585032880306243896484375</LatitudeDegrees>
              <LongitudeDegrees>-3.32295564003288745880126953125</LongitudeDegrees>
            </Position>
            <AltitudeMeters>27.200000762939453125</AltitudeMeters>
            <DistanceMeters>NAN</DistanceMeters>
          </Trackpoint>
          <Trackpoint>
            <Time>2022-07-13T07:04:16.000Z</Time>
            <Position>
              <LatitudeDegrees>43.3798746764659881591796875</LatitudeDegrees>
              <LongitudeDegrees>-3.322991095483303070068359375</LongitudeDegrees>
            </Position>
            <AltitudeMeters>27.799999237060546875</AltitudeMeters>
            <DistanceMeters>NAN</DistanceMeters>
          </Trackpoint>
          <Trackpoint>
            <Time>2022-07-13T07:04:17.000Z</Time>
            <Position>
              <LatitudeDegrees>43.3798926137387752532958984375</LatitudeDegrees>
              <LongitudeDegrees>-3.3229926042258739471435546875</LongitudeDegrees>
            </Position>
            <AltitudeMeters>27.799999237060546875</AltitudeMeters>
            <DistanceMeters>NAN</DistanceMeters>
          </Trackpoint>
          <Trackpoint>
            <Time>2022-07-13T07:04:24.000Z</Time>
            <Position>
              <LatitudeDegrees>43.38001876138150691986083984375</LatitudeDegrees>
              <LongitudeDegrees>-3.32298564724624156951904296875</LongitudeDegrees>
            </Position>
            <AltitudeMeters>28.799999237060546875</AltitudeMeters>
            <DistanceMeters>NAN</DistanceMeters>
          </Trackpoint>
          <Trackpoint>
            <Time>2022-07-13T07:04:27.000Z</Time>
            <Position>
              <LatitudeDegrees>43.38007005862891674041748046875</LatitudeDegrees>
              <LongitudeDegrees>-3.32298011519014835357666015625</LongitudeDegrees>
            </Position>
            <AltitudeMeters>29.200000762939453125</AltitudeMeters>
            <DistanceMeters>NAN</DistanceMeters>
          </Trackpoint>
          <Trackpoint>
            <Time>2022-07-13T07:04:30.000Z</Time>
            <Position>
              <LatitudeDegrees>43.3801174163818359375</LatitudeDegrees>
              <LongitudeDegrees>-3.3229620940983295440673828125</LongitudeDegrees>
            </Position>
            <AltitudeMeters>29.6000003814697265625</AltitudeMeters>
            <DistanceMeters>NAN</DistanceMeters>
          </Trackpoint>
          <Trackpoint>
            <Time>2022-07-13T07:04:33.000Z</Time>
            <Position>
              <LatitudeDegrees>43.38016443885862827301025390625</LatitudeDegrees>
              <LongitudeDegrees>-3.32297542132437229156494140625</LongitudeDegrees>
            </Position>
            <AltitudeMeters>29.799999237060546875</AltitudeMeters>
            <DistanceMeters>NAN</DistanceMeters>
          </Trackpoint>
          <Trackpoint>
            <Time>2022-07-13T07:04:34.000Z</Time>
            <Position>
              <LatitudeDegrees>43.38017885573208332061767578125</LatitudeDegrees>
              <LongitudeDegrees>-3.32296938635408878326416015625</LongitudeDegrees>
            </Position>
            <AltitudeMeters>29.799999237060546875</AltitudeMeters>
            <DistanceMeters>NAN</DistanceMeters>
          </Trackpoint>
          <Trackpoint>
            <Time>2022-07-13T07:04:36.000Z</Time>
            <Position>
              <LatitudeDegrees>43.38020785711705684661865234375</LatitudeDegrees>
              <LongitudeDegrees>-3.32296368665993213653564453125</LongitudeDegrees>
            </Position>
            <AltitudeMeters>30</AltitudeMeters>
            <DistanceMeters>NAN</DistanceMeters>
          </Trackpoint>
          <Trackpoint>
            <Time>2022-07-13T07:04:41.000Z</Time>
            <Position>
              <LatitudeDegrees>43.38027826510369777679443359375</LatitudeDegrees>
              <LongitudeDegrees>-3.32294926978647708892822265625</LongitudeDegrees>
            </Position>
            <AltitudeMeters>30.799999237060546875</AltitudeMeters>
            <DistanceMeters>NAN</DistanceMeters>
          </Trackpoint>
          <Trackpoint>
            <Time>2022-07-13T07:04:43.000Z</Time>
            <Position>
              <LatitudeDegrees>43.3803123794496059417724609375</LatitudeDegrees>
              <LongitudeDegrees>-3.32294625230133533477783203125</LongitudeDegrees>
            </Position>
            <AltitudeMeters>31</AltitudeMeters>
            <DistanceMeters>NAN</DistanceMeters>
          </Trackpoint>
          <Trackpoint>
            <Time>2022-07-13T07:04:47.000Z</Time>
            <Position>
              <LatitudeDegrees>43.380365855991840362548828125</LatitudeDegrees>
              <LongitudeDegrees>-3.32295128144323825836181640625</LongitudeDegrees>
            </Position>
            <AltitudeMeters>31.6000003814697265625</AltitudeMeters>
            <DistanceMeters>NAN</DistanceMeters>
          </Trackpoint>
          <Trackpoint>
            <Time>2022-07-13T07:04:49.000Z</Time>
            <Position>
              <LatitudeDegrees>43.3803955279290676116943359375</LatitudeDegrees>
              <LongitudeDegrees>-3.3229423128068447113037109375</LongitudeDegrees>
            </Position>
            <AltitudeMeters>31.6000003814697265625</AltitudeMeters>
            <DistanceMeters>NAN</DistanceMeters>
          </Trackpoint>
          <Trackpoint>
            <Time>2022-07-13T07:04:52.000Z</Time>
            <Position>
              <LatitudeDegrees>43.38044020347297191619873046875</LatitudeDegrees>
              <LongitudeDegrees>-3.32294139079749584197998046875</LongitudeDegrees>
            </Position>
            <AltitudeMeters>31.799999237060546875</AltitudeMeters>
            <DistanceMeters>NAN</DistanceMeters>
          </Trackpoint>
          <Trackpoint>
            <Time>2022-07-13T07:04:54.000Z</Time>
            <Position>
              <LatitudeDegrees>43.380483202636241912841796875</LatitudeDegrees>
              <LongitudeDegrees>-3.32294843159615993499755859375</LongitudeDegrees>
            </Position>
            <AltitudeMeters>32</AltitudeMeters>
            <DistanceMeters>NAN</DistanceMeters>
          </Trackpoint>
          <Trackpoint>
            <Time>2022-07-13T07:04:58.000Z</Time>
            <Position>
              <LatitudeDegrees>43.3805460669100284576416015625</LatitudeDegrees>
              <LongitudeDegrees>-3.32294390536844730377197265625</LongitudeDegrees>
            </Position>
            <AltitudeMeters>32.40000152587890625</AltitudeMeters>
            <DistanceMeters>NAN</DistanceMeters>
          </Trackpoint>
          <Trackpoint>
            <Time>2022-07-13T07:05:05.000Z</Time>
            <Position>
              <LatitudeDegrees>43.38065452873706817626953125</LatitudeDegrees>
              <LongitudeDegrees>-3.32294323481619358062744140625</LongitudeDegrees>
            </Position>
            <AltitudeMeters>33.200000762939453125</AltitudeMeters>
            <DistanceMeters>NAN</DistanceMeters>
          </Trackpoint>
          <Trackpoint>
            <Time>2022-07-13T07:05:07.000Z</Time>
            <Position>
              <LatitudeDegrees>43.380690403282642364501953125</LatitudeDegrees>
              <LongitudeDegrees>-3.322948515415191650390625</LongitudeDegrees>
            </Position>
            <AltitudeMeters>33.40000152587890625</AltitudeMeters>
            <DistanceMeters>NAN</DistanceMeters>
          </Trackpoint>
          <Trackpoint>
            <Time>2022-07-13T07:05:09.000Z</Time>
            <Position>
              <LatitudeDegrees>43.38072560727596282958984375</LatitudeDegrees>
              <LongitudeDegrees>-3.32295865751802921295166015625</LongitudeDegrees>
            </Position>
            <AltitudeMeters>33.40000152587890625</AltitudeMeters>
            <DistanceMeters>NAN</DistanceMeters>
          </Trackpoint>
          <Trackpoint>
            <Time>2022-07-13T07:05:13.000Z</Time>
            <Position>
              <LatitudeDegrees>43.38078327476978302001953125</LatitudeDegrees>
              <LongitudeDegrees>-3.32291163504123687744140625</LongitudeDegrees>
            </Position>
            <AltitudeMeters>33.799999237060546875</AltitudeMeters>
            <DistanceMeters>NAN</DistanceMeters>
          </Trackpoint>
          <Trackpoint>
            <Time>2022-07-13T07:05:17.000Z</Time>
            <Position>
              <LatitudeDegrees>43.3808390982449054718017578125</LatitudeDegrees>
              <LongitudeDegrees>-3.32289948128163814544677734375</LongitudeDegrees>
            </Position>
            <AltitudeMeters>34.200000762939453125</AltitudeMeters>
            <DistanceMeters>NAN</DistanceMeters>
          </Trackpoint>
          <Trackpoint>
            <Time>2022-07-13T07:05:20.000Z</Time>
            <Position>
              <LatitudeDegrees>43.38089567609131336212158203125</LatitudeDegrees>
              <LongitudeDegrees>-3.3229050971567630767822265625</LongitudeDegrees>
            </Position>
            <AltitudeMeters>34.40000152587890625</AltitudeMeters>
            <DistanceMeters>NAN</DistanceMeters>
          </Trackpoint>
          <Trackpoint>
            <Time>2022-07-13T07:05:27.000Z</Time>
            <Position>
              <LatitudeDegrees>43.38101620785892009735107421875</LatitudeDegrees>
              <LongitudeDegrees>-3.32287064753472805023193359375</LongitudeDegrees>
            </Position>
            <AltitudeMeters>35.200000762939453125</AltitudeMeters>
            <DistanceMeters>NAN</DistanceMeters>
          </Trackpoint>
          <Trackpoint>
            <Time>2022-07-13T07:05:28.000Z</Time>
            <Position>
              <LatitudeDegrees>43.3810293674468994140625</LatitudeDegrees>
              <LongitudeDegrees>-3.322867043316364288330078125</LongitudeDegrees>
            </Position>
            <AltitudeMeters>35.200000762939453125</AltitudeMeters>
            <DistanceMeters>NAN</DistanceMeters>
          </Trackpoint>
          <Trackpoint>
            <Time>2022-07-13T07:05:29.000Z</Time>
            <Position>
              <LatitudeDegrees>43.3810441195964813232421875</LatitudeDegrees>
              <LongitudeDegrees>-3.3228665404021739959716796875</LongitudeDegrees>
            </Position>
            <AltitudeMeters>35.200000762939453125</AltitudeMeters>
            <DistanceMeters>NAN</DistanceMeters>
          </Trackpoint>
          <Trackpoint>
            <Time>2022-07-13T07:05:31.000Z</Time>
            <Position>
              <LatitudeDegrees>43.3810747973620891571044921875</LatitudeDegrees>
              <LongitudeDegrees>-3.322856314480304718017578125</LongitudeDegrees>
            </Position>
            <AltitudeMeters>35.40000152587890625</AltitudeMeters>
            <DistanceMeters>NAN</DistanceMeters>
          </Trackpoint>
          <Trackpoint>
            <Time>2022-07-13T07:05:38.000Z</Time>
            <Position>
              <LatitudeDegrees>43.3811720274388790130615234375</LatitudeDegrees>
              <LongitudeDegrees>-3.32284399308264255523681640625</LongitudeDegrees>
            </Position>
            <AltitudeMeters>36</AltitudeMeters>
            <DistanceMeters>NAN</DistanceMeters>
          </Trackpoint>
          <Trackpoint>
            <Time>2022-07-13T07:05:41.000Z</Time>
            <Position>
              <LatitudeDegrees>43.38122206740081310272216796875</LatitudeDegrees>
              <LongitudeDegrees>-3.32283653318881988525390625</LongitudeDegrees>
            </Position>
            <AltitudeMeters>36.200000762939453125</AltitudeMeters>
            <DistanceMeters>NAN</DistanceMeters>
          </Trackpoint>
          <Trackpoint>
            <Time>2022-07-13T07:05:46.000Z</Time>
            <Position>
              <LatitudeDegrees>43.3813004381954669952392578125</LatitudeDegrees>
              <LongitudeDegrees>-3.32282974384725093841552734375</LongitudeDegrees>
            </Position>
            <AltitudeMeters>36.799999237060546875</AltitudeMeters>
            <DistanceMeters>NAN</DistanceMeters>
          </Trackpoint>
          <Trackpoint>
            <Time>2022-07-13T07:05:51.000Z</Time>
            <Position>
              <LatitudeDegrees>43.38137160055339336395263671875</LatitudeDegrees>
              <LongitudeDegrees>-3.32281750626862049102783203125</LongitudeDegrees>
            </Position>
            <AltitudeMeters>37.200000762939453125</AltitudeMeters>
            <DistanceMeters>NAN</DistanceMeters>
          </Trackpoint>
          <Trackpoint>
            <Time>2022-07-13T07:05:53.000Z</Time>
            <Position>
              <LatitudeDegrees>43.38139406405389308929443359375</LatitudeDegrees>
              <LongitudeDegrees>-3.32280258648097515106201171875</LongitudeDegrees>
            </Position>
            <AltitudeMeters>37.40000152587890625</AltitudeMeters>
            <DistanceMeters>NAN</DistanceMeters>
          </Trackpoint>
          <Trackpoint>
            <Time>2022-07-13T07:06:00.000Z</Time>
            <Position>
              <LatitudeDegrees>43.38148307986557483673095703125</LatitudeDegrees>
              <LongitudeDegrees>-3.322799988090991973876953125</LongitudeDegrees>
            </Position>
            <AltitudeMeters>38</AltitudeMeters>
            <DistanceMeters>NAN</DistanceMeters>
          </Trackpoint>
          <Trackpoint>
            <Time>2022-07-13T07:06:03.000Z</Time>
            <Position>
              <LatitudeDegrees>43.38151778094470500946044921875</LatitudeDegrees>
              <LongitudeDegrees>-3.3227916061878204345703125</LongitudeDegrees>
            </Position>
            <AltitudeMeters>38.40000152587890625</AltitudeMeters>
            <DistanceMeters>NAN</DistanceMeters>
          </Trackpoint>
          <Trackpoint>
            <Time>2022-07-13T07:06:10.000Z</Time>
            <Position>
              <LatitudeDegrees>43.3816303499042987823486328125</LatitudeDegrees>
              <LongitudeDegrees>-3.322779871523380279541015625</LongitudeDegrees>
            </Position>
            <AltitudeMeters>39</AltitudeMeters>
            <DistanceMeters>NAN</DistanceMeters>
          </Trackpoint>
          <Trackpoint>
            <Time>2022-07-13T07:06:16.000Z</Time>
            <Position>
              <LatitudeDegrees>43.38171911425888538360595703125</LatitudeDegrees>
              <LongitudeDegrees>-3.32277677021920680999755859375</LongitudeDegrees>
            </Position>
            <AltitudeMeters>39.40000152587890625</AltitudeMeters>
            <DistanceMeters>NAN</DistanceMeters>
          </Trackpoint>
          <Trackpoint>
            <Time>2022-07-13T07:06:17.000Z</Time>
            <Position>
              <LatitudeDegrees>43.38173235766589641571044921875</LatitudeDegrees>
              <LongitudeDegrees>-3.32277827896177768707275390625</LongitudeDegrees>
            </Position>
            <AltitudeMeters>39.59999847412109375</AltitudeMeters>
            <DistanceMeters>NAN</DistanceMeters>
          </Trackpoint>
          <Trackpoint>
            <Time>2022-07-13T07:06:25.000Z</Time>
            <Position>
              <LatitudeDegrees>43.38187552057206630706787109375</LatitudeDegrees>
              <LongitudeDegrees>-3.3227674663066864013671875</LongitudeDegrees>
            </Position>
            <AltitudeMeters>40.200000762939453125</AltitudeMeters>
            <DistanceMeters>NAN</DistanceMeters>
          </Trackpoint>
          <Trackpoint>
            <Time>2022-07-13T07:06:28.000Z</Time>
            <Position>
              <LatitudeDegrees>43.38192681781947612762451171875</LatitudeDegrees>
              <LongitudeDegrees>-3.3227478526532649993896484375</LongitudeDegrees>
            </Position>
            <AltitudeMeters>40.40000152587890625</AltitudeMeters>
            <DistanceMeters>NAN</DistanceMeters>
          </Trackpoint>
          <Trackpoint>
            <Time>2022-07-13T07:06:33.000Z</Time>
            <Position>
              <LatitudeDegrees>43.381989262998104095458984375</LatitudeDegrees>
              <LongitudeDegrees>-3.32273703999817371368408203125</LongitudeDegrees>
            </Position>
            <AltitudeMeters>40.799999237060546875</AltitudeMeters>
            <DistanceMeters>NAN</DistanceMeters>
          </Trackpoint>
          <Trackpoint>
            <Time>2022-07-13T07:06:35.000Z</Time>
            <Position>
              <LatitudeDegrees>43.381989262998104095458984375</LatitudeDegrees>
              <LongitudeDegrees>-3.32273703999817371368408203125</LongitudeDegrees>
            </Position>
            <AltitudeMeters>40.799999237060546875</AltitudeMeters>
            <DistanceMeters>NAN</DistanceMeters>
          </Trackpoint>
          <Trackpoint>
            <Time>2022-07-13T07:07:17.000Z</Time>
            <Position>
              <LatitudeDegrees>43.38202245533466339111328125</LatitudeDegrees>
              <LongitudeDegrees>-3.3227193541824817657470703125</LongitudeDegrees>
            </Position>
            <AltitudeMeters>40.59999847412109375</AltitudeMeters>
            <DistanceMeters>NAN</DistanceMeters>
          </Trackpoint>
          <Trackpoint>
            <Time>2022-07-13T07:07:18.000Z</Time>
            <Position>
              <LatitudeDegrees>43.38203796185553073883056640625</LatitudeDegrees>
              <LongitudeDegrees>-3.32271046936511993408203125</LongitudeDegrees>
            </Position>
            <AltitudeMeters>40.59999847412109375</AltitudeMeters>
            <DistanceMeters>NAN</DistanceMeters>
          </Trackpoint>
          <Trackpoint>
            <Time>2022-07-13T07:07:25.000Z</Time>
            <Position>
              <LatitudeDegrees>43.3821664564311504364013671875</LatitudeDegrees>
              <LongitudeDegrees>-3.32268037833273410797119140625</LongitudeDegrees>
            </Position>
            <AltitudeMeters>41.200000762939453125</AltitudeMeters>
            <DistanceMeters>NAN</DistanceMeters>
          </Trackpoint>
          <Trackpoint>
            <Time>2022-07-13T07:07:29.000Z</Time>
            <Position>
              <LatitudeDegrees>43.38222420774400234222412109375</LatitudeDegrees>
              <LongitudeDegrees>-3.32266193814575672149658203125</LongitudeDegrees>
            </Position>
            <AltitudeMeters>41.40000152587890625</AltitudeMeters>
            <DistanceMeters>NAN</DistanceMeters>
          </Trackpoint>
          <Trackpoint>
            <Time>2022-07-13T07:07:32.000Z</Time>
            <Position>
              <LatitudeDegrees>43.382268212735652923583984375</LatitudeDegrees>
              <LongitudeDegrees>-3.32265472970902919769287109375</LongitudeDegrees>
            </Position>
            <AltitudeMeters>41.59999847412109375</AltitudeMeters>
            <DistanceMeters>NAN</DistanceMeters>
          </Trackpoint>
          <Trackpoint>
            <Time>2022-07-13T07:07:36.000Z</Time>
            <Position>
              <LatitudeDegrees>43.3823324181139469146728515625</LatitudeDegrees>
              <LongitudeDegrees>-3.32264735363423824310302734375</LongitudeDegrees>
            </Position>
            <AltitudeMeters>42.200000762939453125</AltitudeMeters>
            <DistanceMeters>NAN</DistanceMeters>
          </Trackpoint>
          <Trackpoint>
            <Time>2022-07-13T07:07:38.000Z</Time>
            <Position>
              <LatitudeDegrees>43.3823753334581851959228515625</LatitudeDegrees>
              <LongitudeDegrees>-3.32264081574976444244384765625</LongitudeDegrees>
            </Position>
            <AltitudeMeters>42.40000152587890625</AltitudeMeters>
            <DistanceMeters>NAN</DistanceMeters>
          </Trackpoint>
          <Trackpoint>
            <Time>2022-07-13T07:07:40.000Z</Time>
            <Position>
              <LatitudeDegrees>43.38240408338606357574462890625</LatitudeDegrees>
              <LongitudeDegrees>-3.3226362057030200958251953125</LongitudeDegrees>
            </Position>
            <AltitudeMeters>42.59999847412109375</AltitudeMeters>
            <DistanceMeters>NAN</DistanceMeters>
          </Trackpoint>
          <Trackpoint>
            <Time>2022-07-13T07:07:46.000Z</Time>
            <Position>
              <LatitudeDegrees>43.38248471729457378387451171875</LatitudeDegrees>
              <LongitudeDegrees>-3.3225973136723041534423828125</LongitudeDegrees>
            </Position>
            <AltitudeMeters>43.200000762939453125</AltitudeMeters>
            <DistanceMeters>NAN</DistanceMeters>
          </Trackpoint>
          <Trackpoint>
            <Time>2022-07-13T07:07:49.000Z</Time>
            <Position>
              <LatitudeDegrees>43.38252377696335315704345703125</LatitudeDegrees>
              <LongitudeDegrees>-3.3225852437317371368408203125</LongitudeDegrees>
            </Position>
            <AltitudeMeters>43.59999847412109375</AltitudeMeters>
            <DistanceMeters>NAN</DistanceMeters>
          </Trackpoint>
          <Trackpoint>
            <Time>2022-07-13T07:07:56.000Z</Time>
            <Position>
              <LatitudeDegrees>43.38264363817870616912841796875</LatitudeDegrees>
              <LongitudeDegrees>-3.32254861481487751007080078125</LongitudeDegrees>
            </Position>
            <AltitudeMeters>44.200000762939453125</AltitudeMeters>
            <DistanceMeters>NAN</DistanceMeters>
          </Trackpoint>
          <Trackpoint>
            <Time>2022-07-13T07:08:00.000Z</Time>
            <Position>
              <LatitudeDegrees>43.38269476778805255889892578125</LatitudeDegrees>
              <LongitudeDegrees>-3.3225429989397525787353515625</LongitudeDegrees>
            </Position>
            <AltitudeMeters>44.59999847412109375</AltitudeMeters>
            <DistanceMeters>NAN</DistanceMeters>
          </Trackpoint>
          <Trackpoint>
            <Time>2022-07-13T07:08:03.000Z</Time>
            <Position>
              <LatitudeDegrees>43.38274857960641384124755859375</LatitudeDegrees>
              <LongitudeDegrees>-3.32254358567297458648681640625</LongitudeDegrees>
            </Position>
            <AltitudeMeters>45</AltitudeMeters>
            <DistanceMeters>NAN</DistanceMeters>
          </Trackpoint>
          <Trackpoint>
            <Time>2022-07-13T07:08:10.000Z</Time>
            <Position>
              <LatitudeDegrees>43.38286735117435455322265625</LatitudeDegrees>
              <LongitudeDegrees>-3.32253134809434413909912109375</LongitudeDegrees>
            </Position>
            <AltitudeMeters>45.59999847412109375</AltitudeMeters>
            <DistanceMeters>NAN</DistanceMeters>
          </Trackpoint>
          <Trackpoint>
            <Time>2022-07-13T07:08:11.000Z</Time>
            <Position>
              <LatitudeDegrees>43.38288344442844390869140625</LatitudeDegrees>
              <LongitudeDegrees>-3.322533778846263885498046875</LongitudeDegrees>
            </Position>
            <AltitudeMeters>45.799999237060546875</AltitudeMeters>
            <DistanceMeters>NAN</DistanceMeters>
          </Trackpoint>
          <Trackpoint>
            <Time>2022-07-13T07:08:16.000Z</Time>
            <Position>
              <LatitudeDegrees>43.38296986185014247894287109375</LatitudeDegrees>
              <LongitudeDegrees>-3.322513997554779052734375</LongitudeDegrees>
            </Position>
            <AltitudeMeters>46.40000152587890625</AltitudeMeters>
            <DistanceMeters>NAN</DistanceMeters>
          </Trackpoint>
          <Trackpoint>
            <Time>2022-07-13T07:08:19.000Z</Time>
            <Position>
              <LatitudeDegrees>43.38301328010857105255126953125</LatitudeDegrees>
              <LongitudeDegrees>-3.3225118182599544525146484375</LongitudeDegrees>
            </Position>
            <AltitudeMeters>46.799999237060546875</AltitudeMeters>
            <DistanceMeters>NAN</DistanceMeters>
          </Trackpoint>
          <Trackpoint>
            <Time>2022-07-13T07:08:21.000Z</Time>
            <Position>
              <LatitudeDegrees>43.38304295204579830169677734375</LatitudeDegrees>
              <LongitudeDegrees>-3.322529084980487823486328125</LongitudeDegrees>
            </Position>
            <AltitudeMeters>46.799999237060546875</AltitudeMeters>
            <DistanceMeters>NAN</DistanceMeters>
          </Trackpoint>
          <Trackpoint>
            <Time>2022-07-13T07:08:30.000Z</Time>
            <Position>
              <LatitudeDegrees>43.38319030590355396270751953125</LatitudeDegrees>
              <LongitudeDegrees>-3.32259505055844783782958984375</LongitudeDegrees>
            </Position>
            <AltitudeMeters>47.59999847412109375</AltitudeMeters>
            <DistanceMeters>NAN</DistanceMeters>
          </Trackpoint>
          <Trackpoint>
            <Time>2022-07-13T07:08:31.000Z</Time>
            <Position>
              <LatitudeDegrees>43.3831997774541378021240234375</LatitudeDegrees>
              <LongitudeDegrees>-3.32259756512939929962158203125</LongitudeDegrees>
            </Position>
            <AltitudeMeters>47.799999237060546875</AltitudeMeters>
            <DistanceMeters>NAN</DistanceMeters>
          </Trackpoint>
          <Trackpoint>
            <Time>2022-07-13T07:08:39.000Z</Time>
            <Position>
              <LatitudeDegrees>43.3833174593746662139892578125</LatitudeDegrees>
              <LongitudeDegrees>-3.32262120209634304046630859375</LongitudeDegrees>
            </Position>
            <AltitudeMeters>48.59999847412109375</AltitudeMeters>
            <DistanceMeters>NAN</DistanceMeters>
          </Trackpoint>
          <Trackpoint>
            <Time>2022-07-13T07:08:42.000Z</Time>
            <Position>
              <LatitudeDegrees>43.383355177938938140869140625</LatitudeDegrees>
              <LongitudeDegrees>-3.3226234652101993560791015625</LongitudeDegrees>
            </Position>
            <AltitudeMeters>48.799999237060546875</AltitudeMeters>
            <DistanceMeters>NAN</DistanceMeters>
          </Trackpoint>
          <Trackpoint>
            <Time>2022-07-13T07:08:47.000Z</Time>
            <Position>
              <LatitudeDegrees>43.38344025425612926483154296875</LatitudeDegrees>
              <LongitudeDegrees>-3.322658836841583251953125</LongitudeDegrees>
            </Position>
            <AltitudeMeters>49.40000152587890625</AltitudeMeters>
            <DistanceMeters>NAN</DistanceMeters>
          </Trackpoint>
          <Trackpoint>
            <Time>2022-07-13T07:08:54.000Z</Time>
            <Position>
              <LatitudeDegrees>43.3835508115589618682861328125</LatitudeDegrees>
              <LongitudeDegrees>-3.32268507219851016998291015625</LongitudeDegrees>
            </Position>
            <AltitudeMeters>50</AltitudeMeters>
            <DistanceMeters>NAN</DistanceMeters>
          </Trackpoint>
          <Trackpoint>
            <Time>2022-07-13T07:08:58.000Z</Time>
            <Position>
              <LatitudeDegrees>43.383603282272815704345703125</LatitudeDegrees>
              <LongitudeDegrees>-3.322682641446590423583984375</LongitudeDegrees>
            </Position>
            <AltitudeMeters>50.40000152587890625</AltitudeMeters>
            <DistanceMeters>NAN</DistanceMeters>
          </Trackpoint>
          <Trackpoint>
            <Time>2022-07-13T07:09:01.000Z</Time>
            <Position>
              <LatitudeDegrees>43.3836339600384235382080078125</LatitudeDegrees>
              <LongitudeDegrees>-3.3226843178272247314453125</LongitudeDegrees>
            </Position>
            <AltitudeMeters>50.799999237060546875</AltitudeMeters>
            <DistanceMeters>NAN</DistanceMeters>
          </Trackpoint>
          <Trackpoint>
            <Time>2022-07-13T07:09:04.000Z</Time>
            <Position>
              <LatitudeDegrees>43.38367360644042491912841796875</LatitudeDegrees>
              <LongitudeDegrees>-3.3226898498833179473876953125</LongitudeDegrees>
            </Position>
            <AltitudeMeters>51</AltitudeMeters>
            <DistanceMeters>NAN</DistanceMeters>
          </Trackpoint>
          <Trackpoint>
            <Time>2022-07-13T07:09:05.000Z</Time>
            <Position>
              <LatitudeDegrees>43.3836892805993556976318359375</LatitudeDegrees>
              <LongitudeDegrees>-3.32269177772104740142822265625</LongitudeDegrees>
            </Position>
            <AltitudeMeters>51</AltitudeMeters>
            <DistanceMeters>NAN</DistanceMeters>
          </Trackpoint>
          <Trackpoint>
            <Time>2022-07-13T07:09:11.000Z</Time>
            <Position>
              <LatitudeDegrees>43.38379313237965106964111328125</LatitudeDegrees>
              <LongitudeDegrees>-3.322740979492664337158203125</LongitudeDegrees>
            </Position>
            <AltitudeMeters>51.59999847412109375</AltitudeMeters>
            <DistanceMeters>NAN</DistanceMeters>
          </Trackpoint>
          <Trackpoint>
            <Time>2022-07-13T07:09:15.000Z</Time>
            <Position>
              <LatitudeDegrees>43.3838445134460926055908203125</LatitudeDegrees>
              <LongitudeDegrees>-3.32277291454374790191650390625</LongitudeDegrees>
            </Position>
            <AltitudeMeters>52</AltitudeMeters>
            <DistanceMeters>NAN</DistanceMeters>
          </Trackpoint>
          <Trackpoint>
            <Time>2022-07-13T07:09:19.000Z</Time>
            <Position>
              <LatitudeDegrees>43.3839041925966739654541015625</LatitudeDegrees>
              <LongitudeDegrees>-3.32277744077146053314208984375</LongitudeDegrees>
            </Position>
            <AltitudeMeters>52.40000152587890625</AltitudeMeters>
            <DistanceMeters>NAN</DistanceMeters>
          </Trackpoint>
          <Trackpoint>
            <Time>2022-07-13T07:09:26.000Z</Time>
            <Position>
              <LatitudeDegrees>43.38400754146277904510498046875</LatitudeDegrees>
              <LongitudeDegrees>-3.3227961324155330657958984375</LongitudeDegrees>
            </Position>
            <AltitudeMeters>53</AltitudeMeters>
            <DistanceMeters>NAN</DistanceMeters>
          </Trackpoint>
          <Trackpoint>
            <Time>2022-07-13T07:09:30.000Z</Time>
            <Position>
              <LatitudeDegrees>43.3840728364884853363037109375</LatitudeDegrees>
              <LongitudeDegrees>-3.322814740240573883056640625</LongitudeDegrees>
            </Position>
            <AltitudeMeters>53.59999847412109375</AltitudeMeters>
            <DistanceMeters>NAN</DistanceMeters>
          </Trackpoint>
          <Trackpoint>
            <Time>2022-07-13T07:09:35.000Z</Time>
            <Position>
              <LatitudeDegrees>43.38415154255926609039306640625</LatitudeDegrees>
              <LongitudeDegrees>-3.3228333480656147003173828125</LongitudeDegrees>
            </Position>
            <AltitudeMeters>54</AltitudeMeters>
            <DistanceMeters>NAN</DistanceMeters>
          </Trackpoint>
          <Trackpoint>
            <Time>2022-07-13T07:09:37.000Z</Time>
            <Position>
              <LatitudeDegrees>43.3841823041439056396484375</LatitudeDegrees>
              <LongitudeDegrees>-3.322839550673961639404296875</LongitudeDegrees>
            </Position>
            <AltitudeMeters>54.40000152587890625</AltitudeMeters>
            <DistanceMeters>NAN</DistanceMeters>
          </Trackpoint>
          <Trackpoint>
            <Time>2022-07-13T07:09:38.000Z</Time>
            <Position>
              <LatitudeDegrees>43.38420384563505649566650390625</LatitudeDegrees>
              <LongitudeDegrees>-3.32284994423389434814453125</LongitudeDegrees>
            </Position>
            <AltitudeMeters>54.59999847412109375</AltitudeMeters>
            <DistanceMeters>NAN</DistanceMeters>
          </Trackpoint>
          <Trackpoint>
            <Time>2022-07-13T07:09:41.000Z</Time>
            <Position>
              <LatitudeDegrees>43.38424592278897762298583984375</LatitudeDegrees>
              <LongitudeDegrees>-3.32287140190601348876953125</LongitudeDegrees>
            </Position>
            <AltitudeMeters>54.799999237060546875</AltitudeMeters>
            <DistanceMeters>NAN</DistanceMeters>
          </Trackpoint>
          <Trackpoint>
            <Time>2022-07-13T07:09:45.000Z</Time>
            <Position>
              <LatitudeDegrees>43.384306691586971282958984375</LatitudeDegrees>
              <LongitudeDegrees>-3.3229067735373973846435546875</LongitudeDegrees>
            </Position>
            <AltitudeMeters>55.200000762939453125</AltitudeMeters>
            <DistanceMeters>NAN</DistanceMeters>
          </Trackpoint>
          <Trackpoint>
            <Time>2022-07-13T07:09:49.000Z</Time>
            <Position>
              <LatitudeDegrees>43.38436243124306201934814453125</LatitudeDegrees>
              <LongitudeDegrees>-3.3229553885757923126220703125</LongitudeDegrees>
            </Position>
            <AltitudeMeters>55.59999847412109375</AltitudeMeters>
            <DistanceMeters>NAN</DistanceMeters>
          </Trackpoint>
          <Trackpoint>
            <Time>2022-07-13T07:09:56.000Z</Time>
            <Position>
              <LatitudeDegrees>43.38442571461200714111328125</LatitudeDegrees>
              <LongitudeDegrees>-3.32305655814707279205322265625</LongitudeDegrees>
            </Position>
            <AltitudeMeters>56.200000762939453125</AltitudeMeters>
            <DistanceMeters>NAN</DistanceMeters>
          </Trackpoint>
          <Trackpoint>
            <Time>2022-07-13T07:09:58.000Z</Time>
            <Position>
              <LatitudeDegrees>43.38443786837160587310791015625</LatitudeDegrees>
              <LongitudeDegrees>-3.3230801112949848175048828125</LongitudeDegrees>
            </Position>
            <AltitudeMeters>56.200000762939453125</AltitudeMeters>
            <DistanceMeters>NAN</DistanceMeters>
          </Trackpoint>
          <Trackpoint>
            <Time>2022-07-13T07:10:07.000Z</Time>
            <Position>
              <LatitudeDegrees>43.38448681868612766265869140625</LatitudeDegrees>
              <LongitudeDegrees>-3.32318999804556369781494140625</LongitudeDegrees>
            </Position>
            <AltitudeMeters>56.799999237060546875</AltitudeMeters>
            <DistanceMeters>NAN</DistanceMeters>
          </Trackpoint>
          <Trackpoint>
            <Time>2022-07-13T07:10:24.000Z</Time>
            <Position>
              <LatitudeDegrees>43.3845107071101665496826171875</LatitudeDegrees>
              <LongitudeDegrees>-3.323259986937046051025390625</LongitudeDegrees>
            </Position>
            <AltitudeMeters>57.200000762939453125</AltitudeMeters>
            <DistanceMeters>NAN</DistanceMeters>
          </Trackpoint>
          <Trackpoint>
            <Time>2022-07-13T07:10:27.000Z</Time>
            <Position>
              <LatitudeDegrees>43.38453811593353748321533203125</LatitudeDegrees>
              <LongitudeDegrees>-3.32332058809697628021240234375</LongitudeDegrees>
            </Position>
            <AltitudeMeters>57.40000152587890625</AltitudeMeters>
            <DistanceMeters>NAN</DistanceMeters>
          </Trackpoint>
          <Trackpoint>
            <Time>2022-07-13T07:10:33.000Z</Time>
            <Position>
              <LatitudeDegrees>43.3845734037458896636962890625</LatitudeDegrees>
              <LongitudeDegrees>-3.32343089394271373748779296875</LongitudeDegrees>
            </Position>
            <AltitudeMeters>58.200000762939453125</AltitudeMeters>
            <DistanceMeters>NAN</DistanceMeters>
          </Trackpoint>
          <Trackpoint>
            <Time>2022-07-13T07:10:35.000Z</Time>
            <Position>
              <LatitudeDegrees>43.38458287529647350311279296875</LatitudeDegrees>
              <LongitudeDegrees>-3.323472552001476287841796875</LongitudeDegrees>
            </Position>
            <AltitudeMeters>58.40000152587890625</AltitudeMeters>
            <DistanceMeters>NAN</DistanceMeters>
          </Trackpoint>
          <Trackpoint>
            <Time>2022-07-13T07:10:37.000Z</Time>
            <Position>
              <LatitudeDegrees>43.384594023227691650390625</LatitudeDegrees>
              <LongitudeDegrees>-3.3235037326812744140625</LongitudeDegrees>
            </Position>
            <AltitudeMeters>58.59999847412109375</AltitudeMeters>
            <DistanceMeters>NAN</DistanceMeters>
          </Trackpoint>
          <Trackpoint>
            <Time>2022-07-13T07:10:38.000Z</Time>
            <Position>
              <LatitudeDegrees>43.38459192775189876556396484375</LatitudeDegrees>
              <LongitudeDegrees>-3.323515467345714569091796875</LongitudeDegrees>
            </Position>
            <AltitudeMeters>58.59999847412109375</AltitudeMeters>
            <DistanceMeters>NAN</DistanceMeters>
          </Trackpoint>
          <Trackpoint>
            <Time>2022-07-13T07:10:40.000Z</Time>
            <Position>
              <LatitudeDegrees>43.38458706624805927276611328125</LatitudeDegrees>
              <LongitudeDegrees>-3.3235370926558971405029296875</LongitudeDegrees>
            </Position>
            <AltitudeMeters>58.799999237060546875</AltitudeMeters>
            <DistanceMeters>NAN</DistanceMeters>
          </Trackpoint>
          <Trackpoint>
            <Time>2022-07-13T07:10:42.000Z</Time>
            <Position>
              <LatitudeDegrees>43.38458857499063014984130859375</LatitudeDegrees>
              <LongitudeDegrees>-3.3235612325370311737060546875</LongitudeDegrees>
            </Position>
            <AltitudeMeters>59.200000762939453125</AltitudeMeters>
            <DistanceMeters>NAN</DistanceMeters>
          </Trackpoint>
          <Trackpoint>
            <Time>2022-07-13T07:10:43.000Z</Time>
            <Position>
              <LatitudeDegrees>43.38458924554288387298583984375</LatitudeDegrees>
              <LongitudeDegrees>-3.323577828705310821533203125</LongitudeDegrees>
            </Position>
            <AltitudeMeters>59.200000762939453125</AltitudeMeters>
            <DistanceMeters>NAN</DistanceMeters>
          </Trackpoint>
          <Trackpoint>
            <Time>2022-07-13T07:10:47.000Z</Time>
            <Position>
              <LatitudeDegrees>43.38458287529647350311279296875</LatitudeDegrees>
              <LongitudeDegrees>-3.32364865578711032867431640625</LongitudeDegrees>
            </Position>
            <AltitudeMeters>59.40000152587890625</AltitudeMeters>
            <DistanceMeters>NAN</DistanceMeters>
          </Trackpoint>
          <Trackpoint>
            <Time>2022-07-13T07:10:54.000Z</Time>
            <Position>
              <LatitudeDegrees>43.38460651226341724395751953125</LatitudeDegrees>
              <LongitudeDegrees>-3.3237976022064685821533203125</LongitudeDegrees>
            </Position>
            <AltitudeMeters>60</AltitudeMeters>
            <DistanceMeters>NAN</DistanceMeters>
          </Trackpoint>
          <Trackpoint>
            <Time>2022-07-13T07:10:56.000Z</Time>
            <Position>
              <LatitudeDegrees>43.384601064026355743408203125</LatitudeDegrees>
              <LongitudeDegrees>-3.32381176762282848358154296875</LongitudeDegrees>
            </Position>
            <AltitudeMeters>60.200000762939453125</AltitudeMeters>
            <DistanceMeters>NAN</DistanceMeters>
          </Trackpoint>
          <Trackpoint>
            <Time>2022-07-13T07:11:00.000Z</Time>
            <Position>
              <LatitudeDegrees>43.38459595106542110443115234375</LatitudeDegrees>
              <LongitudeDegrees>-3.32386105321347713470458984375</LongitudeDegrees>
            </Position>
            <AltitudeMeters>60.40000152587890625</AltitudeMeters>
            <DistanceMeters>NAN</DistanceMeters>
          </Trackpoint>
          <Trackpoint>
            <Time>2022-07-13T07:11:08.000Z</Time>
            <Position>
              <LatitudeDegrees>43.38461271487176418304443359375</LatitudeDegrees>
              <LongitudeDegrees>-3.3240131847560405731201171875</LongitudeDegrees>
            </Position>
            <AltitudeMeters>61.40000152587890625</AltitudeMeters>
            <DistanceMeters>NAN</DistanceMeters>
          </Trackpoint>
          <Trackpoint>
            <Time>2022-07-13T07:11:09.000Z</Time>
            <Position>
              <LatitudeDegrees>43.38461003266274929046630859375</LatitudeDegrees>
              <LongitudeDegrees>-3.32402768544852733612060546875</LongitudeDegrees>
            </Position>
            <AltitudeMeters>61.59999847412109375</AltitudeMeters>
            <DistanceMeters>NAN</DistanceMeters>
          </Trackpoint>
          <Trackpoint>
            <Time>2022-07-13T07:11:15.000Z</Time>
            <Position>
              <LatitudeDegrees>43.3846247009932994842529296875</LatitudeDegrees>
              <LongitudeDegrees>-3.3241479657590389251708984375</LongitudeDegrees>
            </Position>
            <AltitudeMeters>62.200000762939453125</AltitudeMeters>
            <DistanceMeters>NAN</DistanceMeters>
          </Trackpoint>
          <Trackpoint>
            <Time>2022-07-13T07:11:17.000Z</Time>
            <Position>
              <LatitudeDegrees>43.38464121334254741668701171875</LatitudeDegrees>
              <LongitudeDegrees>-3.3241999335587024688720703125</LongitudeDegrees>
            </Position>
            <AltitudeMeters>62.40000152587890625</AltitudeMeters>
            <DistanceMeters>NAN</DistanceMeters>
          </Trackpoint>
          <Trackpoint>
            <Time>2022-07-13T07:11:19.000Z</Time>
            <Position>
              <LatitudeDegrees>43.38465931825339794158935546875</LatitudeDegrees>
              <LongitudeDegrees>-3.3242378197610378265380859375</LongitudeDegrees>
            </Position>
            <AltitudeMeters>62.799999237060546875</AltitudeMeters>
            <DistanceMeters>NAN</DistanceMeters>
          </Trackpoint>
          <Trackpoint>
            <Time>2022-07-13T07:11:24.000Z</Time>
            <Position>
              <LatitudeDegrees>43.38463350199162960052490234375</LatitudeDegrees>
              <LongitudeDegrees>-3.3243300206959247589111328125</LongitudeDegrees>
            </Position>
            <AltitudeMeters>63.200000762939453125</AltitudeMeters>
            <DistanceMeters>NAN</DistanceMeters>
          </Trackpoint>
          <Trackpoint>
            <Time>2022-07-13T07:11:25.000Z</Time>
            <Position>
              <LatitudeDegrees>43.3846337534487247467041015625</LatitudeDegrees>
              <LongitudeDegrees>-3.32434971816837787628173828125</LongitudeDegrees>
            </Position>
            <AltitudeMeters>63.40000152587890625</AltitudeMeters>
            <DistanceMeters>NAN</DistanceMeters>
          </Trackpoint>
          <Trackpoint>
            <Time>2022-07-13T07:11:30.000Z</Time>
            <Position>
              <LatitudeDegrees>43.3846243657171726226806640625</LatitudeDegrees>
              <LongitudeDegrees>-3.3244352973997592926025390625</LongitudeDegrees>
            </Position>
            <AltitudeMeters>63.799999237060546875</AltitudeMeters>
            <DistanceMeters>NAN</DistanceMeters>
          </Trackpoint>
          <Trackpoint>
            <Time>2022-07-13T07:11:31.000Z</Time>
            <Position>
              <LatitudeDegrees>43.3846263773739337921142578125</LatitudeDegrees>
              <LongitudeDegrees>-3.3244438469409942626953125</LongitudeDegrees>
            </Position>
            <AltitudeMeters>63.799999237060546875</AltitudeMeters>
            <DistanceMeters>NAN</DistanceMeters>
          </Trackpoint>
          <Trackpoint>
            <Time>2022-07-13T07:11:33.000Z</Time>
            <Position>
              <LatitudeDegrees>43.3846236951649188995361328125</LatitudeDegrees>
              <LongitudeDegrees>-3.32447947002947330474853515625</LongitudeDegrees>
            </Position>
            <AltitudeMeters>64</AltitudeMeters>
            <DistanceMeters>NAN</DistanceMeters>
          </Trackpoint>
          <Trackpoint>
            <Time>2022-07-13T07:11:36.000Z</Time>
            <Position>
              <LatitudeDegrees>43.3846210129559040069580078125</LatitudeDegrees>
              <LongitudeDegrees>-3.32454451359808444976806640625</LongitudeDegrees>
            </Position>
            <AltitudeMeters>64.1999969482421875</AltitudeMeters>
            <DistanceMeters>NAN</DistanceMeters>
          </Trackpoint>
          <Trackpoint>
            <Time>2022-07-13T07:11:37.000Z</Time>
            <Position>
              <LatitudeDegrees>43.38461271487176418304443359375</LatitudeDegrees>
              <LongitudeDegrees>-3.3245640434324741363525390625</LongitudeDegrees>
            </Position>
            <AltitudeMeters>64.1999969482421875</AltitudeMeters>
            <DistanceMeters>NAN</DistanceMeters>
          </Trackpoint>
          <Trackpoint>
            <Time>2022-07-13T07:11:42.000Z</Time>
            <Position>
              <LatitudeDegrees>43.38459863327443599700927734375</LatitudeDegrees>
              <LongitudeDegrees>-3.3246609382331371307373046875</LongitudeDegrees>
            </Position>
            <AltitudeMeters>64.59999847412109375</AltitudeMeters>
            <DistanceMeters>NAN</DistanceMeters>
          </Trackpoint>
          <Trackpoint>
            <Time>2022-07-13T07:11:43.000Z</Time>
            <Position>
              <LatitudeDegrees>43.38460005819797515869140625</LatitudeDegrees>
              <LongitudeDegrees>-3.324681222438812255859375</LongitudeDegrees>
            </Position>
            <AltitudeMeters>64.8000030517578125</AltitudeMeters>
            <DistanceMeters>NAN</DistanceMeters>
          </Trackpoint>
          <Trackpoint>
            <Time>2022-07-13T07:11:51.000Z</Time>
            <Position>
              <LatitudeDegrees>43.38463098742067813873291015625</LatitudeDegrees>
              <LongitudeDegrees>-3.32481860183179378509521484375</LongitudeDegrees>
            </Position>
            <AltitudeMeters>65.8000030517578125</AltitudeMeters>
            <DistanceMeters>NAN</DistanceMeters>
          </Trackpoint>
          <Trackpoint>
            <Time>2022-07-13T07:11:52.000Z</Time>
            <Position>
              <LatitudeDegrees>43.3846434764564037322998046875</LatitudeDegrees>
              <LongitudeDegrees>-3.3248396404087543487548828125</LongitudeDegrees>
            </Position>
            <AltitudeMeters>65.8000030517578125</AltitudeMeters>
            <DistanceMeters>NAN</DistanceMeters>
          </Trackpoint>
          <Trackpoint>
            <Time>2022-07-13T07:12:00.000Z</Time>
            <Position>
              <LatitudeDegrees>43.384722769260406494140625</LatitudeDegrees>
              <LongitudeDegrees>-3.32497852854430675506591796875</LongitudeDegrees>
            </Position>
            <AltitudeMeters>66.59999847412109375</AltitudeMeters>
            <DistanceMeters>NAN</DistanceMeters>
          </Trackpoint>
          <Trackpoint>
            <Time>2022-07-13T07:12:04.000Z</Time>
            <Position>
              <LatitudeDegrees>43.38476208038628101348876953125</LatitudeDegrees>
              <LongitudeDegrees>-3.325033597648143768310546875</LongitudeDegrees>
            </Position>
            <AltitudeMeters>67</AltitudeMeters>
            <DistanceMeters>NAN</DistanceMeters>
          </Trackpoint>
          <Trackpoint>
            <Time>2022-07-13T07:12:09.000Z</Time>
            <Position>
              <LatitudeDegrees>43.38482259772717952728271484375</LatitudeDegrees>
              <LongitudeDegrees>-3.325110375881195068359375</LongitudeDegrees>
            </Position>
            <AltitudeMeters>67.59999847412109375</AltitudeMeters>
            <DistanceMeters>NAN</DistanceMeters>
          </Trackpoint>
          <Trackpoint>
            <Time>2022-07-13T07:12:15.000Z</Time>
            <Position>
              <LatitudeDegrees>43.38489166460931301116943359375</LatitudeDegrees>
              <LongitudeDegrees>-3.32520450465381145477294921875</LongitudeDegrees>
            </Position>
            <AltitudeMeters>68</AltitudeMeters>
            <DistanceMeters>NAN</DistanceMeters>
          </Trackpoint>
          <Trackpoint>
            <Time>2022-07-13T07:12:16.000Z</Time>
            <Position>
              <LatitudeDegrees>43.38490507565438747406005859375</LatitudeDegrees>
              <LongitudeDegrees>-3.32522210665047168731689453125</LongitudeDegrees>
            </Position>
            <AltitudeMeters>68</AltitudeMeters>
            <DistanceMeters>NAN</DistanceMeters>
          </Trackpoint>
          <Trackpoint>
            <Time>2022-07-13T07:12:19.000Z</Time>
            <Position>
              <LatitudeDegrees>43.38494681753218173980712890625</LatitudeDegrees>
              <LongitudeDegrees>-3.32527063786983489990234375</LongitudeDegrees>
            </Position>
            <AltitudeMeters>68.40000152587890625</AltitudeMeters>
            <DistanceMeters>NAN</DistanceMeters>
          </Trackpoint>
          <Trackpoint>
            <Time>2022-07-13T07:12:22.000Z</Time>
            <Position>
              <LatitudeDegrees>43.384978584945201873779296875</LatitudeDegrees>
              <LongitudeDegrees>-3.32531346939504146575927734375</LongitudeDegrees>
            </Position>
            <AltitudeMeters>68.8000030517578125</AltitudeMeters>
            <DistanceMeters>NAN</DistanceMeters>
          </Trackpoint>
          <Trackpoint>
            <Time>2022-07-13T07:12:26.000Z</Time>
            <Position>
              <LatitudeDegrees>43.3850189857184886932373046875</LatitudeDegrees>
              <LongitudeDegrees>-3.32535915076732635498046875</LongitudeDegrees>
            </Position>
            <AltitudeMeters>69</AltitudeMeters>
            <DistanceMeters>NAN</DistanceMeters>
          </Trackpoint>
          <Trackpoint>
            <Time>2022-07-13T07:12:28.000Z</Time>
            <Position>
              <LatitudeDegrees>43.38503968901932239532470703125</LatitudeDegrees>
              <LongitudeDegrees>-3.32538102753460407257080078125</LongitudeDegrees>
            </Position>
            <AltitudeMeters>69.1999969482421875</AltitudeMeters>
            <DistanceMeters>NAN</DistanceMeters>
          </Trackpoint>
          <Trackpoint>
            <Time>2022-07-13T07:12:35.000Z</Time>
            <Position>
              <LatitudeDegrees>43.3851105161011219024658203125</LatitudeDegrees>
              <LongitudeDegrees>-3.32547825761139392852783203125</LongitudeDegrees>
            </Position>
            <AltitudeMeters>70</AltitudeMeters>
            <DistanceMeters>NAN</DistanceMeters>
          </Trackpoint>
          <Trackpoint>
            <Time>2022-07-13T07:12:36.000Z</Time>
            <Position>
              <LatitudeDegrees>43.38512283749878406524658203125</LatitudeDegrees>
              <LongitudeDegrees>-3.32549502141773700714111328125</LongitudeDegrees>
            </Position>
            <AltitudeMeters>70.1999969482421875</AltitudeMeters>
            <DistanceMeters>NAN</DistanceMeters>
          </Trackpoint>
          <Trackpoint>
            <Time>2022-07-13T07:12:45.000Z</Time>
            <Position>
              <LatitudeDegrees>43.38520699180662631988525390625</LatitudeDegrees>
              <LongitudeDegrees>-3.32562343217432498931884765625</LongitudeDegrees>
            </Position>
            <AltitudeMeters>70.8000030517578125</AltitudeMeters>
            <DistanceMeters>NAN</DistanceMeters>
          </Trackpoint>
          <Trackpoint>
            <Time>2022-07-13T07:12:49.000Z</Time>
            <Position>
              <LatitudeDegrees>43.385239429771900177001953125</LatitudeDegrees>
              <LongitudeDegrees>-3.3256912417709827423095703125</LongitudeDegrees>
            </Position>
            <AltitudeMeters>71.1999969482421875</AltitudeMeters>
            <DistanceMeters>NAN</DistanceMeters>
          </Trackpoint>
          <Trackpoint>
            <Time>2022-07-13T07:12:52.000Z</Time>
            <Position>
              <LatitudeDegrees>43.3852543495595455169677734375</LatitudeDegrees>
              <LongitudeDegrees>-3.325743377208709716796875</LongitudeDegrees>
            </Position>
            <AltitudeMeters>71.59999847412109375</AltitudeMeters>
            <DistanceMeters>NAN</DistanceMeters>
          </Trackpoint>
          <Trackpoint>
            <Time>2022-07-13T07:12:53.000Z</Time>
            <Position>
              <LatitudeDegrees>43.38525342755019664764404296875</LatitudeDegrees>
              <LongitudeDegrees>-3.32576357759535312652587890625</LongitudeDegrees>
            </Position>
            <AltitudeMeters>71.59999847412109375</AltitudeMeters>
            <DistanceMeters>NAN</DistanceMeters>
          </Trackpoint>
          <Trackpoint>
            <Time>2022-07-13T07:13:01.000Z</Time>
            <Position>
              <LatitudeDegrees>43.38528863154351711273193359375</LatitudeDegrees>
              <LongitudeDegrees>-3.325922079384326934814453125</LongitudeDegrees>
            </Position>
            <AltitudeMeters>72.1999969482421875</AltitudeMeters>
            <DistanceMeters>NAN</DistanceMeters>
          </Trackpoint>
          <Trackpoint>
            <Time>2022-07-13T07:13:06.000Z</Time>
            <Position>
              <LatitudeDegrees>43.3853120170533657073974609375</LatitudeDegrees>
              <LongitudeDegrees>-3.32601738162338733673095703125</LongitudeDegrees>
            </Position>
            <AltitudeMeters>72.8000030517578125</AltitudeMeters>
            <DistanceMeters>NAN</DistanceMeters>
          </Trackpoint>
          <Trackpoint>
            <Time>2022-07-13T07:13:10.000Z</Time>
            <Position>
              <LatitudeDegrees>43.3853210695087909698486328125</LatitudeDegrees>
              <LongitudeDegrees>-3.32608795724809169769287109375</LongitudeDegrees>
            </Position>
            <AltitudeMeters>73</AltitudeMeters>
            <DistanceMeters>NAN</DistanceMeters>
          </Trackpoint>
          <Trackpoint>
            <Time>2022-07-13T07:13:13.000Z</Time>
            <Position>
              <LatitudeDegrees>43.3853388391435146331787109375</LatitudeDegrees>
              <LongitudeDegrees>-3.3261524140834808349609375</LongitudeDegrees>
            </Position>
            <AltitudeMeters>73.40000152587890625</AltitudeMeters>
            <DistanceMeters>NAN</DistanceMeters>
          </Trackpoint>
          <Trackpoint>
            <Time>2022-07-13T07:13:18.000Z</Time>
            <Position>
              <LatitudeDegrees>43.38536448776721954345703125</LatitudeDegrees>
              <LongitudeDegrees>-3.3262508176267147064208984375</LongitudeDegrees>
            </Position>
            <AltitudeMeters>74</AltitudeMeters>
            <DistanceMeters>NAN</DistanceMeters>
          </Trackpoint>
          <Trackpoint>
            <Time>2022-07-13T07:13:21.000Z</Time>
            <Position>
              <LatitudeDegrees>43.3853636495769023895263671875</LatitudeDegrees>
              <LongitudeDegrees>-3.32632516510784626007080078125</LongitudeDegrees>
            </Position>
            <AltitudeMeters>74.40000152587890625</AltitudeMeters>
            <DistanceMeters>NAN</DistanceMeters>
          </Trackpoint>
          <Trackpoint>
            <Time>2022-07-13T07:13:24.000Z</Time>
            <Position>
              <LatitudeDegrees>43.3853716962039470672607421875</LatitudeDegrees>
              <LongitudeDegrees>-3.32637612707912921905517578125</LongitudeDegrees>
            </Position>
            <AltitudeMeters>74.8000030517578125</AltitudeMeters>
            <DistanceMeters>NAN</DistanceMeters>
          </Trackpoint>
          <Trackpoint>
            <Time>2022-07-13T07:13:25.000Z</Time>
            <Position>
              <LatitudeDegrees>43.38537781499326229095458984375</LatitudeDegrees>
              <LongitudeDegrees>-3.32638819701969623565673828125</LongitudeDegrees>
            </Position>
            <AltitudeMeters>74.8000030517578125</AltitudeMeters>
            <DistanceMeters>NAN</DistanceMeters>
          </Trackpoint>
          <Trackpoint>
            <Time>2022-07-13T07:13:27.000Z</Time>
            <Position>
              <LatitudeDegrees>43.38539089076220989227294921875</LatitudeDegrees>
              <LongitudeDegrees>-3.326419293880462646484375</LongitudeDegrees>
            </Position>
            <AltitudeMeters>75</AltitudeMeters>
            <DistanceMeters>NAN</DistanceMeters>
          </Trackpoint>
          <Trackpoint>
            <Time>2022-07-13T07:13:31.000Z</Time>
            <Position>
              <LatitudeDegrees>43.3853978477418422698974609375</LatitudeDegrees>
              <LongitudeDegrees>-3.3265064656734466552734375</LongitudeDegrees>
            </Position>
            <AltitudeMeters>75.1999969482421875</AltitudeMeters>
            <DistanceMeters>NAN</DistanceMeters>
          </Trackpoint>
          <Trackpoint>
            <Time>2022-07-13T07:13:33.000Z</Time>
            <Position>
              <LatitudeDegrees>43.38539793156087398529052734375</LatitudeDegrees>
              <LongitudeDegrees>-3.3265472017228603363037109375</LongitudeDegrees>
            </Position>
            <AltitudeMeters>75.40000152587890625</AltitudeMeters>
            <DistanceMeters>NAN</DistanceMeters>
          </Trackpoint>
          <Trackpoint>
            <Time>2022-07-13T07:13:34.000Z</Time>
            <Position>
              <LatitudeDegrees>43.38540296070277690887451171875</LatitudeDegrees>
              <LongitudeDegrees>-3.3265619538724422454833984375</LongitudeDegrees>
            </Position>
            <AltitudeMeters>75.59999847412109375</AltitudeMeters>
            <DistanceMeters>NAN</DistanceMeters>
          </Trackpoint>
          <Trackpoint>
            <Time>2022-07-13T07:13:35.000Z</Time>
            <Position>
              <LatitudeDegrees>43.38540916331112384796142578125</LatitudeDegrees>
              <LongitudeDegrees>-3.3265763707458972930908203125</LongitudeDegrees>
            </Position>
            <AltitudeMeters>75.59999847412109375</AltitudeMeters>
            <DistanceMeters>NAN</DistanceMeters>
          </Trackpoint>
          <Trackpoint>
            <Time>2022-07-13T07:13:41.000Z</Time>
            <Position>
              <LatitudeDegrees>43.385388292372226715087890625</LatitudeDegrees>
              <LongitudeDegrees>-3.326685838401317596435546875</LongitudeDegrees>
            </Position>
            <AltitudeMeters>76.1999969482421875</AltitudeMeters>
            <DistanceMeters>NAN</DistanceMeters>
          </Trackpoint>
          <Trackpoint>
            <Time>2022-07-13T07:13:44.000Z</Time>
            <Position>
              <LatitudeDegrees>43.38538460433483123779296875</LatitudeDegrees>
              <LongitudeDegrees>-3.32675750367343425750732421875</LongitudeDegrees>
            </Position>
            <AltitudeMeters>76.59999847412109375</AltitudeMeters>
            <DistanceMeters>NAN</DistanceMeters>
          </Trackpoint>
          <Trackpoint>
            <Time>2022-07-13T07:13:49.000Z</Time>
            <Position>
              <LatitudeDegrees>43.385390974581241607666015625</LatitudeDegrees>
              <LongitudeDegrees>-3.3268466033041477203369140625</LongitudeDegrees>
            </Position>
            <AltitudeMeters>77.1999969482421875</AltitudeMeters>
            <DistanceMeters>NAN</DistanceMeters>
          </Trackpoint>
          <Trackpoint>
            <Time>2022-07-13T07:13:53.000Z</Time>
            <Position>
              <LatitudeDegrees>43.385401703417301177978515625</LatitudeDegrees>
              <LongitudeDegrees>-3.32691843621432781219482421875</LongitudeDegrees>
            </Position>
            <AltitudeMeters>77.59999847412109375</AltitudeMeters>
            <DistanceMeters>NAN</DistanceMeters>
          </Trackpoint>
          <Trackpoint>
            <Time>2022-07-13T07:13:54.000Z</Time>
            <Position>
              <LatitudeDegrees>43.3853985182940959930419921875</LatitudeDegrees>
              <LongitudeDegrees>-3.32693251781165599822998046875</LongitudeDegrees>
            </Position>
            <AltitudeMeters>77.59999847412109375</AltitudeMeters>
            <DistanceMeters>NAN</DistanceMeters>
          </Trackpoint>
          <Trackpoint>
            <Time>2022-07-13T07:13:59.000Z</Time>
            <Position>
              <LatitudeDegrees>43.38539265096187591552734375</LatitudeDegrees>
              <LongitudeDegrees>-3.327036537230014801025390625</LongitudeDegrees>
            </Position>
            <AltitudeMeters>78.1999969482421875</AltitudeMeters>
            <DistanceMeters>NAN</DistanceMeters>
          </Trackpoint>
          <Trackpoint>
            <Time>2022-07-13T07:14:01.000Z</Time>
            <Position>
              <LatitudeDegrees>43.385397009551525115966796875</LatitudeDegrees>
              <LongitudeDegrees>-3.3270777761936187744140625</LongitudeDegrees>
            </Position>
            <AltitudeMeters>78.59999847412109375</AltitudeMeters>
            <DistanceMeters>NAN</DistanceMeters>
          </Trackpoint>
          <Trackpoint>
            <Time>2022-07-13T07:14:02.000Z</Time>
            <Position>
              <LatitudeDegrees>43.38539667427539825439453125</LatitudeDegrees>
              <LongitudeDegrees>-3.32709512673318386077880859375</LongitudeDegrees>
            </Position>
            <AltitudeMeters>78.59999847412109375</AltitudeMeters>
            <DistanceMeters>NAN</DistanceMeters>
          </Trackpoint>
          <Trackpoint>
            <Time>2022-07-13T07:14:08.000Z</Time>
            <Position>
              <LatitudeDegrees>43.3853931538760662078857421875</LatitudeDegrees>
              <LongitudeDegrees>-3.32721968181431293487548828125</LongitudeDegrees>
            </Position>
            <AltitudeMeters>79.1999969482421875</AltitudeMeters>
            <DistanceMeters>NAN</DistanceMeters>
          </Trackpoint>
          <Trackpoint>
            <Time>2022-07-13T07:14:11.000Z</Time>
            <Position>
              <LatitudeDegrees>43.38539089076220989227294921875</LatitudeDegrees>
              <LongitudeDegrees>-3.3272660337388515472412109375</LongitudeDegrees>
            </Position>
            <AltitudeMeters>79.59999847412109375</AltitudeMeters>
            <DistanceMeters>NAN</DistanceMeters>
          </Trackpoint>
          <Trackpoint>
            <Time>2022-07-13T07:14:12.000Z</Time>
            <Position>
              <LatitudeDegrees>43.38539072312414646148681640625</LatitudeDegrees>
              <LongitudeDegrees>-3.32728003151714801788330078125</LongitudeDegrees>
            </Position>
            <AltitudeMeters>79.59999847412109375</AltitudeMeters>
            <DistanceMeters>NAN</DistanceMeters>
          </Trackpoint>
          <Trackpoint>
            <Time>2022-07-13T07:14:18.000Z</Time>
            <Position>
              <LatitudeDegrees>43.38538954965770244598388671875</LatitudeDegrees>
              <LongitudeDegrees>-3.32738514058291912078857421875</LongitudeDegrees>
            </Position>
            <AltitudeMeters>80.1999969482421875</AltitudeMeters>
            <DistanceMeters>NAN</DistanceMeters>
          </Trackpoint>
          <Trackpoint>
            <Time>2022-07-13T07:14:21.000Z</Time>
            <Position>
              <LatitudeDegrees>43.38540178723633289337158203125</LatitudeDegrees>
              <LongitudeDegrees>-3.3274303190410137176513671875</LongitudeDegrees>
            </Position>
            <AltitudeMeters>80.59999847412109375</AltitudeMeters>
            <DistanceMeters>NAN</DistanceMeters>
          </Trackpoint>
          <Trackpoint>
            <Time>2022-07-13T07:14:27.000Z</Time>
            <Position>
              <LatitudeDegrees>43.3854615502059459686279296875</LatitudeDegrees>
              <LongitudeDegrees>-3.3275117911398410797119140625</LongitudeDegrees>
            </Position>
            <AltitudeMeters>81.1999969482421875</AltitudeMeters>
            <DistanceMeters>NAN</DistanceMeters>
          </Trackpoint>
          <Trackpoint>
            <Time>2022-07-13T07:14:31.000Z</Time>
            <Position>
              <LatitudeDegrees>43.38551863096654415130615234375</LatitudeDegrees>
              <LongitudeDegrees>-3.327540121972560882568359375</LongitudeDegrees>
            </Position>
            <AltitudeMeters>81.59999847412109375</AltitudeMeters>
            <DistanceMeters>NAN</DistanceMeters>
          </Trackpoint>
          <Trackpoint>
            <Time>2022-07-13T07:14:32.000Z</Time>
            <Position>
              <LatitudeDegrees>43.38553690351545810699462890625</LatitudeDegrees>
              <LongitudeDegrees>-3.3275453187525272369384765625</LongitudeDegrees>
            </Position>
            <AltitudeMeters>81.8000030517578125</AltitudeMeters>
            <DistanceMeters>NAN</DistanceMeters>
          </Trackpoint>
          <Trackpoint>
            <Time>2022-07-13T07:14:35.000Z</Time>
            <Position>
              <LatitudeDegrees>43.385584093630313873291015625</LatitudeDegrees>
              <LongitudeDegrees>-3.3275510184466838836669921875</LongitudeDegrees>
            </Position>
            <AltitudeMeters>82</AltitudeMeters>
            <DistanceMeters>NAN</DistanceMeters>
          </Trackpoint>
          <Trackpoint>
            <Time>2022-07-13T07:14:42.000Z</Time>
            <Position>
              <LatitudeDegrees>43.3856841735541820526123046875</LatitudeDegrees>
              <LongitudeDegrees>-3.3275632560253143310546875</LongitudeDegrees>
            </Position>
            <AltitudeMeters>82.8000030517578125</AltitudeMeters>
            <DistanceMeters>NAN</DistanceMeters>
          </Trackpoint>
          <Trackpoint>
            <Time>2022-07-13T07:14:44.000Z</Time>
            <Position>
              <LatitudeDegrees>43.3857143484055995941162109375</LatitudeDegrees>
              <LongitudeDegrees>-3.32756971009075641632080078125</LongitudeDegrees>
            </Position>
            <AltitudeMeters>83</AltitudeMeters>
            <DistanceMeters>NAN</DistanceMeters>
          </Trackpoint>
          <Trackpoint>
            <Time>2022-07-13T07:14:48.000Z</Time>
            <Position>
              <LatitudeDegrees>43.38576489128172397613525390625</LatitudeDegrees>
              <LongitudeDegrees>-3.3275677822530269622802734375</LongitudeDegrees>
            </Position>
            <AltitudeMeters>83.1999969482421875</AltitudeMeters>
            <DistanceMeters>NAN</DistanceMeters>
          </Trackpoint>
          <Trackpoint>
            <Time>2022-07-13T07:14:52.000Z</Time>
            <Position>
              <LatitudeDegrees>43.38580311276018619537353515625</LatitudeDegrees>
              <LongitudeDegrees>-3.32756132818758487701416015625</LongitudeDegrees>
            </Position>
            <AltitudeMeters>83.8000030517578125</AltitudeMeters>
            <DistanceMeters>NAN</DistanceMeters>
          </Trackpoint>
          <Trackpoint>
            <Time>2022-07-13T07:14:53.000Z</Time>
            <Position>
              <LatitudeDegrees>43.38581618852913379669189453125</LatitudeDegrees>
              <LongitudeDegrees>-3.32756250165402889251708984375</LongitudeDegrees>
            </Position>
            <AltitudeMeters>83.8000030517578125</AltitudeMeters>
            <DistanceMeters>NAN</DistanceMeters>
          </Trackpoint>
          <Trackpoint>
            <Time>2022-07-13T07:15:01.000Z</Time>
            <Position>
              <LatitudeDegrees>43.3859218843281269073486328125</LatitudeDegrees>
              <LongitudeDegrees>-3.3275506831705570220947265625</LongitudeDegrees>
            </Position>
            <AltitudeMeters>84.8000030517578125</AltitudeMeters>
            <DistanceMeters>NAN</DistanceMeters>
          </Trackpoint>
          <Trackpoint>
            <Time>2022-07-13T07:15:02.000Z</Time>
            <Position>
              <LatitudeDegrees>43.38593152351677417755126953125</LatitudeDegrees>
              <LongitudeDegrees>-3.3275449834764003753662109375</LongitudeDegrees>
            </Position>
            <AltitudeMeters>85</AltitudeMeters>
            <DistanceMeters>NAN</DistanceMeters>
          </Trackpoint>
          <Trackpoint>
            <Time>2022-07-13T07:15:08.000Z</Time>
            <Position>
              <LatitudeDegrees>43.38599120266735553741455078125</LatitudeDegrees>
              <LongitudeDegrees>-3.3275248669087886810302734375</LongitudeDegrees>
            </Position>
            <AltitudeMeters>85.59999847412109375</AltitudeMeters>
            <DistanceMeters>NAN</DistanceMeters>
          </Trackpoint>
          <Trackpoint>
            <Time>2022-07-13T07:15:10.000Z</Time>
            <Position>
              <LatitudeDegrees>43.38601936586201190948486328125</LatitudeDegrees>
              <LongitudeDegrees>-3.327528722584247589111328125</LongitudeDegrees>
            </Position>
            <AltitudeMeters>86</AltitudeMeters>
            <DistanceMeters>NAN</DistanceMeters>
          </Trackpoint>
          <Trackpoint>
            <Time>2022-07-13T07:15:17.000Z</Time>
            <Position>
              <LatitudeDegrees>43.3861170150339603424072265625</LatitudeDegrees>
              <LongitudeDegrees>-3.32752813585102558135986328125</LongitudeDegrees>
            </Position>
            <AltitudeMeters>87</AltitudeMeters>
            <DistanceMeters>NAN</DistanceMeters>
          </Trackpoint>
          <Trackpoint>
            <Time>2022-07-13T07:15:18.000Z</Time>
            <Position>
              <LatitudeDegrees>43.38613118045032024383544921875</LatitudeDegrees>
              <LongitudeDegrees>-3.3275275491178035736083984375</LongitudeDegrees>
            </Position>
            <AltitudeMeters>87</AltitudeMeters>
            <DistanceMeters>NAN</DistanceMeters>
          </Trackpoint>
          <Trackpoint>
            <Time>2022-07-13T07:15:25.000Z</Time>
            <Position>
              <LatitudeDegrees>43.38621877133846282958984375</LatitudeDegrees>
              <LongitudeDegrees>-3.327554874122142791748046875</LongitudeDegrees>
            </Position>
            <AltitudeMeters>87.59999847412109375</AltitudeMeters>
            <DistanceMeters>NAN</DistanceMeters>
          </Trackpoint>
          <Trackpoint>
            <Time>2022-07-13T07:15:30.000Z</Time>
            <Position>
              <LatitudeDegrees>43.3862598426640033721923828125</LatitudeDegrees>
              <LongitudeDegrees>-3.327633999288082122802734375</LongitudeDegrees>
            </Position>
            <AltitudeMeters>88</AltitudeMeters>
            <DistanceMeters>NAN</DistanceMeters>
          </Trackpoint>
          <Trackpoint>
            <Time>2022-07-13T07:15:32.000Z</Time>
            <Position>
              <LatitudeDegrees>43.3862732537090778350830078125</LatitudeDegrees>
              <LongitudeDegrees>-3.32768169231712818145751953125</LongitudeDegrees>
            </Position>
            <AltitudeMeters>88.1999969482421875</AltitudeMeters>
            <DistanceMeters>NAN</DistanceMeters>
          </Trackpoint>
          <Trackpoint>
            <Time>2022-07-13T07:15:40.000Z</Time>
            <Position>
              <LatitudeDegrees>43.38630015961825847625732421875</LatitudeDegrees>
              <LongitudeDegrees>-3.327872715890407562255859375</LongitudeDegrees>
            </Position>
            <AltitudeMeters>89</AltitudeMeters>
            <DistanceMeters>NAN</DistanceMeters>
          </Trackpoint>
          <Trackpoint>
            <Time>2022-07-13T07:15:42.000Z</Time>
            <Position>
              <LatitudeDegrees>43.3863074518740177154541015625</LatitudeDegrees>
              <LongitudeDegrees>-3.3279151283204555511474609375</LongitudeDegrees>
            </Position>
            <AltitudeMeters>89.1999969482421875</AltitudeMeters>
            <DistanceMeters>NAN</DistanceMeters>
          </Trackpoint>
          <Trackpoint>
            <Time>2022-07-13T07:15:49.000Z</Time>
            <Position>
              <LatitudeDegrees>43.3863091282546520233154296875</LatitudeDegrees>
              <LongitudeDegrees>-3.32805250771343708038330078125</LongitudeDegrees>
            </Position>
            <AltitudeMeters>89.59999847412109375</AltitudeMeters>
            <DistanceMeters>NAN</DistanceMeters>
          </Trackpoint>
          <Trackpoint>
            <Time>2022-07-13T07:15:55.000Z</Time>
            <Position>
              <LatitudeDegrees>43.3862797915935516357421875</LatitudeDegrees>
              <LongitudeDegrees>-3.32816541194915771484375</LongitudeDegrees>
            </Position>
            <AltitudeMeters>90</AltitudeMeters>
            <DistanceMeters>NAN</DistanceMeters>
          </Trackpoint>
          <Trackpoint>
            <Time>2022-07-13T07:15:59.000Z</Time>
            <Position>
              <LatitudeDegrees>43.38626411743462085723876953125</LatitudeDegrees>
              <LongitudeDegrees>-3.3282279409468173980712890625</LongitudeDegrees>
            </Position>
            <AltitudeMeters>90.1999969482421875</AltitudeMeters>
            <DistanceMeters>NAN</DistanceMeters>
          </Trackpoint>
          <Trackpoint>
            <Time>2022-07-13T07:16:00.000Z</Time>
            <Position>
              <LatitudeDegrees>43.38624819181859493255615234375</LatitudeDegrees>
              <LongitudeDegrees>-3.32824478857219219207763671875</LongitudeDegrees>
            </Position>
            <AltitudeMeters>90.1999969482421875</AltitudeMeters>
            <DistanceMeters>NAN</DistanceMeters>
          </Trackpoint>
          <Trackpoint>
            <Time>2022-07-13T07:16:07.000Z</Time>
            <Position>
              <LatitudeDegrees>43.38620393536984920501708984375</LatitudeDegrees>
              <LongitudeDegrees>-3.3283412642776966094970703125</LongitudeDegrees>
            </Position>
            <AltitudeMeters>90.59999847412109375</AltitudeMeters>
            <DistanceMeters>NAN</DistanceMeters>
          </Trackpoint>
          <Trackpoint>
            <Time>2022-07-13T07:16:13.000Z</Time>
            <Position>
              <LatitudeDegrees>43.3861602656543254852294921875</LatitudeDegrees>
              <LongitudeDegrees>-3.3284576050937175750732421875</LongitudeDegrees>
            </Position>
            <AltitudeMeters>91</AltitudeMeters>
            <DistanceMeters>NAN</DistanceMeters>
          </Trackpoint>
          <Trackpoint>
            <Time>2022-07-13T07:16:14.000Z</Time>
            <Position>
              <LatitudeDegrees>43.38615573942661285400390625</LatitudeDegrees>
              <LongitudeDegrees>-3.32847721874713897705078125</LongitudeDegrees>
            </Position>
            <AltitudeMeters>91</AltitudeMeters>
            <DistanceMeters>NAN</DistanceMeters>
          </Trackpoint>
          <Trackpoint>
            <Time>2022-07-13T07:16:18.000Z</Time>
            <Position>
              <LatitudeDegrees>43.38614190928637981414794921875</LatitudeDegrees>
              <LongitudeDegrees>-3.32854016683995723724365234375</LongitudeDegrees>
            </Position>
            <AltitudeMeters>91.1999969482421875</AltitudeMeters>
            <DistanceMeters>NAN</DistanceMeters>
          </Trackpoint>
          <Trackpoint>
            <Time>2022-07-13T07:16:19.000Z</Time>
            <Position>
              <LatitudeDegrees>43.386147022247314453125</LatitudeDegrees>
              <LongitudeDegrees>-3.328559696674346923828125</LongitudeDegrees>
            </Position>
            <AltitudeMeters>91.40000152587890625</AltitudeMeters>
            <DistanceMeters>NAN</DistanceMeters>
          </Trackpoint>
          <Trackpoint>
            <Time>2022-07-13T07:16:20.000Z</Time>
            <Position>
              <LatitudeDegrees>43.3861465193331241607666015625</LatitudeDegrees>
              <LongitudeDegrees>-3.32857050932943820953369140625</LongitudeDegrees>
            </Position>
            <AltitudeMeters>91.40000152587890625</AltitudeMeters>
            <DistanceMeters>NAN</DistanceMeters>
          </Trackpoint>
          <Trackpoint>
            <Time>2022-07-13T07:16:21.000Z</Time>
            <Position>
              <LatitudeDegrees>43.3861418254673480987548828125</LatitudeDegrees>
              <LongitudeDegrees>-3.3285880275070667266845703125</LongitudeDegrees>
            </Position>
            <AltitudeMeters>91.40000152587890625</AltitudeMeters>
            <DistanceMeters>NAN</DistanceMeters>
          </Trackpoint>
          <Trackpoint>
            <Time>2022-07-13T07:16:26.000Z</Time>
            <Position>
              <LatitudeDegrees>43.38613235391676425933837890625</LatitudeDegrees>
              <LongitudeDegrees>-3.3286607824265956878662109375</LongitudeDegrees>
            </Position>
            <AltitudeMeters>92</AltitudeMeters>
            <DistanceMeters>NAN</DistanceMeters>
          </Trackpoint>
          <Trackpoint>
            <Time>2022-07-13T07:16:29.000Z</Time>
            <Position>
              <LatitudeDegrees>43.38613721542060375213623046875</LatitudeDegrees>
              <LongitudeDegrees>-3.328716270625591278076171875</LongitudeDegrees>
            </Position>
            <AltitudeMeters>92.1999969482421875</AltitudeMeters>
            <DistanceMeters>NAN</DistanceMeters>
          </Trackpoint>
          <Trackpoint>
            <Time>2022-07-13T07:16:33.000Z</Time>
            <Position>
              <LatitudeDegrees>43.3861629478633403778076171875</LatitudeDegrees>
              <LongitudeDegrees>-3.32880713045597076416015625</LongitudeDegrees>
            </Position>
            <AltitudeMeters>92.8000030517578125</AltitudeMeters>
            <DistanceMeters>NAN</DistanceMeters>
          </Trackpoint>
          <Trackpoint>
            <Time>2022-07-13T07:16:36.000Z</Time>
            <Position>
              <LatitudeDegrees>43.386168815195560455322265625</LatitudeDegrees>
              <LongitudeDegrees>-3.32885943353176116943359375</LongitudeDegrees>
            </Position>
            <AltitudeMeters>93.1999969482421875</AltitudeMeters>
            <DistanceMeters>NAN</DistanceMeters>
          </Trackpoint>
          <Trackpoint>
            <Time>2022-07-13T07:16:37.000Z</Time>
            <Position>
              <LatitudeDegrees>43.38616202585399150848388671875</LatitudeDegrees>
              <LongitudeDegrees>-3.32887359894812107086181640625</LongitudeDegrees>
            </Position>
            <AltitudeMeters>93.40000152587890625</AltitudeMeters>
            <DistanceMeters>NAN</DistanceMeters>
          </Trackpoint>
          <Trackpoint>
            <Time>2022-07-13T07:16:38.000Z</Time>
            <Position>
              <LatitudeDegrees>43.38614760898053646087646484375</LatitudeDegrees>
              <LongitudeDegrees>-3.3289028517901897430419921875</LongitudeDegrees>
            </Position>
            <AltitudeMeters>93.40000152587890625</AltitudeMeters>
            <DistanceMeters>NAN</DistanceMeters>
          </Trackpoint>
          <Trackpoint>
            <Time>2022-07-13T07:16:44.000Z</Time>
            <Position>
              <LatitudeDegrees>43.38616739027202129364013671875</LatitudeDegrees>
              <LongitudeDegrees>-3.3290098048746585845947265625</LongitudeDegrees>
            </Position>
            <AltitudeMeters>94.1999969482421875</AltitudeMeters>
            <DistanceMeters>NAN</DistanceMeters>
          </Trackpoint>
          <Trackpoint>
            <Time>2022-07-13T07:16:45.000Z</Time>
            <Position>
              <LatitudeDegrees>43.38617543689906597137451171875</LatitudeDegrees>
              <LongitudeDegrees>-3.3290185220539569854736328125</LongitudeDegrees>
            </Position>
            <AltitudeMeters>94.40000152587890625</AltitudeMeters>
            <DistanceMeters>NAN</DistanceMeters>
          </Trackpoint>
          <Trackpoint>
            <Time>2022-07-13T07:16:51.000Z</Time>
            <Position>
              <LatitudeDegrees>43.3862273208796977996826171875</LatitudeDegrees>
              <LongitudeDegrees>-3.329054228961467742919921875</LongitudeDegrees>
            </Position>
            <AltitudeMeters>95</AltitudeMeters>
            <DistanceMeters>NAN</DistanceMeters>
          </Trackpoint>
          <Trackpoint>
            <Time>2022-07-13T07:16:55.000Z</Time>
            <Position>
              <LatitudeDegrees>43.3862583339214324951171875</LatitudeDegrees>
              <LongitudeDegrees>-3.32907107658684253692626953125</LongitudeDegrees>
            </Position>
            <AltitudeMeters>95.40000152587890625</AltitudeMeters>
            <DistanceMeters>NAN</DistanceMeters>
          </Trackpoint>
          <Trackpoint>
            <Time>2022-07-13T07:17:01.000Z</Time>
            <Position>
              <LatitudeDegrees>43.3863433264195919036865234375</LatitudeDegrees>
              <LongitudeDegrees>-3.32909354008734226226806640625</LongitudeDegrees>
            </Position>
            <AltitudeMeters>96.1999969482421875</AltitudeMeters>
            <DistanceMeters>NAN</DistanceMeters>
          </Trackpoint>
          <Trackpoint>
            <Time>2022-07-13T07:17:05.000Z</Time>
            <Position>
              <LatitudeDegrees>43.386406861245632171630859375</LatitudeDegrees>
              <LongitudeDegrees>-3.32910309545695781707763671875</LongitudeDegrees>
            </Position>
            <AltitudeMeters>96.40000152587890625</AltitudeMeters>
            <DistanceMeters>NAN</DistanceMeters>
          </Trackpoint>
          <Trackpoint>
            <Time>2022-07-13T07:17:10.000Z</Time>
            <Position>
              <LatitudeDegrees>43.3864700607955455780029296875</LatitudeDegrees>
              <LongitudeDegrees>-3.32910946570336818695068359375</LongitudeDegrees>
            </Position>
            <AltitudeMeters>96.8000030517578125</AltitudeMeters>
            <DistanceMeters>NAN</DistanceMeters>
          </Trackpoint>
          <Trackpoint>
            <Time>2022-07-13T07:17:19.000Z</Time>
            <Position>
              <LatitudeDegrees>43.38659184984862804412841796875</LatitudeDegrees>
              <LongitudeDegrees>-3.32911851815879344940185546875</LongitudeDegrees>
            </Position>
            <AltitudeMeters>97.40000152587890625</AltitudeMeters>
            <DistanceMeters>NAN</DistanceMeters>
          </Trackpoint>
          <Trackpoint>
            <Time>2022-07-13T07:17:20.000Z</Time>
            <Position>
              <LatitudeDegrees>43.3866061829030513763427734375</LatitudeDegrees>
              <LongitudeDegrees>-3.32912069745361804962158203125</LongitudeDegrees>
            </Position>
            <AltitudeMeters>97.59999847412109375</AltitudeMeters>
            <DistanceMeters>NAN</DistanceMeters>
          </Trackpoint>
          <Trackpoint>
            <Time>2022-07-13T07:17:27.000Z</Time>
            <Position>
              <LatitudeDegrees>43.38670265860855579376220703125</LatitudeDegrees>
              <LongitudeDegrees>-3.32914249040186405181884765625</LongitudeDegrees>
            </Position>
            <AltitudeMeters>98.1999969482421875</AltitudeMeters>
            <DistanceMeters>NAN</DistanceMeters>
          </Trackpoint>
          <Trackpoint>
            <Time>2022-07-13T07:17:30.000Z</Time>
            <Position>
              <LatitudeDegrees>43.386744149029254913330078125</LatitudeDegrees>
              <LongitudeDegrees>-3.3291486091911792755126953125</LongitudeDegrees>
            </Position>
            <AltitudeMeters>98.40000152587890625</AltitudeMeters>
            <DistanceMeters>NAN</DistanceMeters>
          </Trackpoint>
          <Trackpoint>
            <Time>2022-07-13T07:17:31.000Z</Time>
            <Position>
              <LatitudeDegrees>43.386756889522075653076171875</LatitudeDegrees>
              <LongitudeDegrees>-3.32914701662957668304443359375</LongitudeDegrees>
            </Position>
            <AltitudeMeters>98.59999847412109375</AltitudeMeters>
            <DistanceMeters>NAN</DistanceMeters>
          </Trackpoint>
          <Trackpoint>
            <Time>2022-07-13T07:17:38.000Z</Time>
            <Position>
              <LatitudeDegrees>43.38686157949268817901611328125</LatitudeDegrees>
              <LongitudeDegrees>-3.3291489444673061370849609375</LongitudeDegrees>
            </Position>
            <AltitudeMeters>99</AltitudeMeters>
            <DistanceMeters>NAN</DistanceMeters>
          </Trackpoint>
          <Trackpoint>
            <Time>2022-07-13T07:17:42.000Z</Time>
            <Position>
              <LatitudeDegrees>43.38692075572907924652099609375</LatitudeDegrees>
              <LongitudeDegrees>-3.3291442506015300750732421875</LongitudeDegrees>
            </Position>
            <AltitudeMeters>99.59999847412109375</AltitudeMeters>
            <DistanceMeters>NAN</DistanceMeters>
          </Trackpoint>
          <Trackpoint>
            <Time>2022-07-13T07:17:45.000Z</Time>
            <Position>
              <LatitudeDegrees>43.38695545680820941925048828125</LatitudeDegrees>
              <LongitudeDegrees>-3.3291489444673061370849609375</LongitudeDegrees>
            </Position>
            <AltitudeMeters>100</AltitudeMeters>
            <DistanceMeters>NAN</DistanceMeters>
          </Trackpoint>
          <Trackpoint>
            <Time>2022-07-13T07:17:50.000Z</Time>
            <Position>
              <LatitudeDegrees>43.38701463304460048675537109375</LatitudeDegrees>
              <LongitudeDegrees>-3.32914114929735660552978515625</LongitudeDegrees>
            </Position>
            <AltitudeMeters>100.8000030517578125</AltitudeMeters>
            <DistanceMeters>NAN</DistanceMeters>
          </Trackpoint>
          <Trackpoint>
            <Time>2022-07-13T07:17:55.000Z</Time>
            <Position>
              <LatitudeDegrees>43.38708403520286083221435546875</LatitudeDegrees>
              <LongitudeDegrees>-3.3291323482990264892578125</LongitudeDegrees>
            </Position>
            <AltitudeMeters>101.1999969482421875</AltitudeMeters>
            <DistanceMeters>NAN</DistanceMeters>
          </Trackpoint>
          <Trackpoint>
            <Time>2022-07-13T07:18:00.000Z</Time>
            <Position>
              <LatitudeDegrees>43.38715477846562862396240234375</LatitudeDegrees>
              <LongitudeDegrees>-3.3291335217654705047607421875</LongitudeDegrees>
            </Position>
            <AltitudeMeters>101.8000030517578125</AltitudeMeters>
            <DistanceMeters>NAN</DistanceMeters>
          </Trackpoint>
          <Trackpoint>
            <Time>2022-07-13T07:18:03.000Z</Time>
            <Position>
              <LatitudeDegrees>43.38720641098916530609130859375</LatitudeDegrees>
              <LongitudeDegrees>-3.32914098165929317474365234375</LongitudeDegrees>
            </Position>
            <AltitudeMeters>102.1999969482421875</AltitudeMeters>
            <DistanceMeters>NAN</DistanceMeters>
          </Trackpoint>
          <Trackpoint>
            <Time>2022-07-13T07:18:10.000Z</Time>
            <Position>
              <LatitudeDegrees>43.38729760609567165374755859375</LatitudeDegrees>
              <LongitudeDegrees>-3.32915456034243106842041015625</LongitudeDegrees>
            </Position>
            <AltitudeMeters>102.8000030517578125</AltitudeMeters>
            <DistanceMeters>NAN</DistanceMeters>
          </Trackpoint>
          <Trackpoint>
            <Time>2022-07-13T07:18:13.000Z</Time>
            <Position>
              <LatitudeDegrees>43.38733834214508533477783203125</LatitudeDegrees>
              <LongitudeDegrees>-3.3291610144078731536865234375</LongitudeDegrees>
            </Position>
            <AltitudeMeters>103</AltitudeMeters>
            <DistanceMeters>NAN</DistanceMeters>
          </Trackpoint>
          <Trackpoint>
            <Time>2022-07-13T07:18:19.000Z</Time>
            <Position>
              <LatitudeDegrees>43.38739969767630100250244140625</LatitudeDegrees>
              <LongitudeDegrees>-3.32918121479451656341552734375</LongitudeDegrees>
            </Position>
            <AltitudeMeters>103.8000030517578125</AltitudeMeters>
            <DistanceMeters>NAN</DistanceMeters>
          </Trackpoint>
          <Trackpoint>
            <Time>2022-07-13T07:18:22.000Z</Time>
            <Position>
              <LatitudeDegrees>43.3874326385557651519775390625</LatitudeDegrees>
              <LongitudeDegrees>-3.32919814623892307281494140625</LongitudeDegrees>
            </Position>
            <AltitudeMeters>104.1999969482421875</AltitudeMeters>
            <DistanceMeters>NAN</DistanceMeters>
          </Trackpoint>
          <Trackpoint>
            <Time>2022-07-13T07:18:30.000Z</Time>
            <Position>
              <LatitudeDegrees>43.38748401962220668792724609375</LatitudeDegrees>
              <LongitudeDegrees>-3.32923251204192638397216796875</LongitudeDegrees>
            </Position>
            <AltitudeMeters>104.8000030517578125</AltitudeMeters>
            <DistanceMeters>NAN</DistanceMeters>
          </Trackpoint>
          <Trackpoint>
            <Time>2022-07-13T07:19:00.000Z</Time>
            <Position>
              <LatitudeDegrees>43.3874933235347270965576171875</LatitudeDegrees>
              <LongitudeDegrees>-3.3292666263878345489501953125</LongitudeDegrees>
            </Position>
            <AltitudeMeters>105</AltitudeMeters>
            <DistanceMeters>NAN</DistanceMeters>
          </Trackpoint>
          <Trackpoint>
            <Time>2022-07-13T07:19:02.000Z</Time>
            <Position>
              <LatitudeDegrees>43.3875184692442417144775390625</LatitudeDegrees>
              <LongitudeDegrees>-3.32931331358850002288818359375</LongitudeDegrees>
            </Position>
            <AltitudeMeters>105.1999969482421875</AltitudeMeters>
            <DistanceMeters>NAN</DistanceMeters>
          </Trackpoint>
          <Trackpoint>
            <Time>2022-07-13T07:19:05.000Z</Time>
            <Position>
              <LatitudeDegrees>43.38755786418914794921875</LatitudeDegrees>
              <LongitudeDegrees>-3.32937181927263736724853515625</LongitudeDegrees>
            </Position>
            <AltitudeMeters>105.40000152587890625</AltitudeMeters>
            <DistanceMeters>NAN</DistanceMeters>
          </Trackpoint>
          <Trackpoint>
            <Time>2022-07-13T07:19:10.000Z</Time>
            <Position>
              <LatitudeDegrees>43.387612514197826385498046875</LatitudeDegrees>
              <LongitudeDegrees>-3.32949453033506870269775390625</LongitudeDegrees>
            </Position>
            <AltitudeMeters>105.59999847412109375</AltitudeMeters>
            <DistanceMeters>NAN</DistanceMeters>
          </Trackpoint>
          <Trackpoint>
            <Time>2022-07-13T07:19:17.000Z</Time>
            <Position>
              <LatitudeDegrees>43.38768904097378253936767578125</LatitudeDegrees>
              <LongitudeDegrees>-3.32959033548831939697265625</LongitudeDegrees>
            </Position>
            <AltitudeMeters>106</AltitudeMeters>
            <DistanceMeters>NAN</DistanceMeters>
          </Trackpoint>
          <Trackpoint>
            <Time>2022-07-13T07:19:19.000Z</Time>
            <Position>
              <LatitudeDegrees>43.38771167211234569549560546875</LatitudeDegrees>
              <LongitudeDegrees>-3.32961405627429485321044921875</LongitudeDegrees>
            </Position>
            <AltitudeMeters>106</AltitudeMeters>
            <DistanceMeters>NAN</DistanceMeters>
          </Trackpoint>
          <Trackpoint>
            <Time>2022-07-13T07:19:23.000Z</Time>
            <Position>
              <LatitudeDegrees>43.38776598684489727020263671875</LatitudeDegrees>
              <LongitudeDegrees>-3.32967055030167102813720703125</LongitudeDegrees>
            </Position>
            <AltitudeMeters>106.40000152587890625</AltitudeMeters>
            <DistanceMeters>NAN</DistanceMeters>
          </Trackpoint>
          <Trackpoint>
            <Time>2022-07-13T07:19:24.000Z</Time>
            <Position>
              <LatitudeDegrees>43.3877809904515743255615234375</LatitudeDegrees>
              <LongitudeDegrees>-3.32967474125325679779052734375</LongitudeDegrees>
            </Position>
            <AltitudeMeters>106.59999847412109375</AltitudeMeters>
            <DistanceMeters>NAN</DistanceMeters>
          </Trackpoint>
          <Trackpoint>
            <Time>2022-07-13T07:19:28.000Z</Time>
            <Position>
              <LatitudeDegrees>43.38782516308128833770751953125</LatitudeDegrees>
              <LongitudeDegrees>-3.32969452254474163055419921875</LongitudeDegrees>
            </Position>
            <AltitudeMeters>107</AltitudeMeters>
            <DistanceMeters>NAN</DistanceMeters>
          </Trackpoint>
          <Trackpoint>
            <Time>2022-07-13T07:19:30.000Z</Time>
            <Position>
              <LatitudeDegrees>43.38785651139914989471435546875</LatitudeDegrees>
              <LongitudeDegrees>-3.3296987973153591156005859375</LongitudeDegrees>
            </Position>
            <AltitudeMeters>107.1999969482421875</AltitudeMeters>
            <DistanceMeters>NAN</DistanceMeters>
          </Trackpoint>
          <Trackpoint>
            <Time>2022-07-13T07:19:31.000Z</Time>
            <Position>
              <LatitudeDegrees>43.3878711797297000885009765625</LatitudeDegrees>
              <LongitudeDegrees>-3.3296982944011688232421875</LongitudeDegrees>
            </Position>
            <AltitudeMeters>107.1999969482421875</AltitudeMeters>
            <DistanceMeters>NAN</DistanceMeters>
          </Trackpoint>
          <Trackpoint>
            <Time>2022-07-13T07:19:33.000Z</Time>
            <Position>
              <LatitudeDegrees>43.387893140316009521484375</LatitudeDegrees>
              <LongitudeDegrees>-3.3297143876552581787109375</LongitudeDegrees>
            </Position>
            <AltitudeMeters>107.40000152587890625</AltitudeMeters>
            <DistanceMeters>NAN</DistanceMeters>
          </Trackpoint>
          <Trackpoint>
            <Time>2022-07-13T07:19:35.000Z</Time>
            <Position>
              <LatitudeDegrees>43.3879186213016510009765625</LatitudeDegrees>
              <LongitudeDegrees>-3.32973592914640903472900390625</LongitudeDegrees>
            </Position>
            <AltitudeMeters>107.59999847412109375</AltitudeMeters>
            <DistanceMeters>NAN</DistanceMeters>
          </Trackpoint>
          <Trackpoint>
            <Time>2022-07-13T07:19:39.000Z</Time>
            <Position>
              <LatitudeDegrees>43.38797369040548801422119140625</LatitudeDegrees>
              <LongitudeDegrees>-3.3297534473240375518798828125</LongitudeDegrees>
            </Position>
            <AltitudeMeters>108.1999969482421875</AltitudeMeters>
            <DistanceMeters>NAN</DistanceMeters>
          </Trackpoint>
          <Trackpoint>
            <Time>2022-07-13T07:19:40.000Z</Time>
            <Position>
              <LatitudeDegrees>43.387986682355403900146484375</LatitudeDegrees>
              <LongitudeDegrees>-3.3297521062195301055908203125</LongitudeDegrees>
            </Position>
            <AltitudeMeters>108.1999969482421875</AltitudeMeters>
            <DistanceMeters>NAN</DistanceMeters>
          </Trackpoint>
          <Trackpoint>
            <Time>2022-07-13T07:19:43.000Z</Time>
            <Position>
              <LatitudeDegrees>43.38803051970899105072021484375</LatitudeDegrees>
              <LongitudeDegrees>-3.3297460712492465972900390625</LongitudeDegrees>
            </Position>
            <AltitudeMeters>108.40000152587890625</AltitudeMeters>
            <DistanceMeters>NAN</DistanceMeters>
          </Trackpoint>
          <Trackpoint>
            <Time>2022-07-13T07:19:47.000Z</Time>
            <Position>
              <LatitudeDegrees>43.38809053413569927215576171875</LatitudeDegrees>
              <LongitudeDegrees>-3.32970558665692806243896484375</LongitudeDegrees>
            </Position>
            <AltitudeMeters>109</AltitudeMeters>
            <DistanceMeters>NAN</DistanceMeters>
          </Trackpoint>
          <Trackpoint>
            <Time>2022-07-13T07:19:48.000Z</Time>
            <Position>
              <LatitudeDegrees>43.388104699552059173583984375</LatitudeDegrees>
              <LongitudeDegrees>-3.32970022223889827728271484375</LongitudeDegrees>
            </Position>
            <AltitudeMeters>109</AltitudeMeters>
            <DistanceMeters>NAN</DistanceMeters>
          </Trackpoint>
          <Trackpoint>
            <Time>2022-07-13T07:19:49.000Z</Time>
            <Position>
              <LatitudeDegrees>43.3881196193397045135498046875</LatitudeDegrees>
              <LongitudeDegrees>-3.32969502545893192291259765625</LongitudeDegrees>
            </Position>
            <AltitudeMeters>109</AltitudeMeters>
            <DistanceMeters>NAN</DistanceMeters>
          </Trackpoint>
          <Trackpoint>
            <Time>2022-07-13T07:19:51.000Z</Time>
            <Position>
              <LatitudeDegrees>43.3881424181163311004638671875</LatitudeDegrees>
              <LongitudeDegrees>-3.329677842557430267333984375</LongitudeDegrees>
            </Position>
            <AltitudeMeters>109.1999969482421875</AltitudeMeters>
            <DistanceMeters>NAN</DistanceMeters>
          </Trackpoint>
          <Trackpoint>
            <Time>2022-07-13T07:19:53.000Z</Time>
            <Position>
              <LatitudeDegrees>43.3881739340722560882568359375</LatitudeDegrees>
              <LongitudeDegrees>-3.3296714723110198974609375</LongitudeDegrees>
            </Position>
            <AltitudeMeters>109.40000152587890625</AltitudeMeters>
            <DistanceMeters>NAN</DistanceMeters>
          </Trackpoint>
          <Trackpoint>
            <Time>2022-07-13T07:19:55.000Z</Time>
            <Position>
              <LatitudeDegrees>43.388205282390117645263671875</LatitudeDegrees>
              <LongitudeDegrees>-3.3296713046729564666748046875</LongitudeDegrees>
            </Position>
            <AltitudeMeters>109.40000152587890625</AltitudeMeters>
            <DistanceMeters>NAN</DistanceMeters>
          </Trackpoint>
          <Trackpoint>
            <Time>2022-07-13T07:19:58.000Z</Time>
            <Position>
              <LatitudeDegrees>43.3882423304021358489990234375</LatitudeDegrees>
              <LongitudeDegrees>-3.32966267131268978118896484375</LongitudeDegrees>
            </Position>
            <AltitudeMeters>109.8000030517578125</AltitudeMeters>
            <DistanceMeters>NAN</DistanceMeters>
          </Trackpoint>
          <Trackpoint>
            <Time>2022-07-13T07:20:00.000Z</Time>
            <Position>
              <LatitudeDegrees>43.3882704935967922210693359375</LatitudeDegrees>
              <LongitudeDegrees>-3.32965160720050334930419921875</LongitudeDegrees>
            </Position>
            <AltitudeMeters>110</AltitudeMeters>
            <DistanceMeters>NAN</DistanceMeters>
          </Trackpoint>
          <Trackpoint>
            <Time>2022-07-13T07:20:02.000Z</Time>
            <Position>
              <LatitudeDegrees>43.38829807005822658538818359375</LatitudeDegrees>
              <LongitudeDegrees>-3.3296401239931583404541015625</LongitudeDegrees>
            </Position>
            <AltitudeMeters>110.1999969482421875</AltitudeMeters>
            <DistanceMeters>NAN</DistanceMeters>
          </Trackpoint>
          <Trackpoint>
            <Time>2022-07-13T07:20:03.000Z</Time>
            <Position>
              <LatitudeDegrees>43.388312570750713348388671875</LatitudeDegrees>
              <LongitudeDegrees>-3.32963065244257450103759765625</LongitudeDegrees>
            </Position>
            <AltitudeMeters>110.40000152587890625</AltitudeMeters>
            <DistanceMeters>NAN</DistanceMeters>
          </Trackpoint>
          <Trackpoint>
            <Time>2022-07-13T07:20:08.000Z</Time>
            <Position>
              <LatitudeDegrees>43.38837501592934131622314453125</LatitudeDegrees>
              <LongitudeDegrees>-3.32961070351302623748779296875</LongitudeDegrees>
            </Position>
            <AltitudeMeters>111</AltitudeMeters>
            <DistanceMeters>NAN</DistanceMeters>
          </Trackpoint>
          <Trackpoint>
            <Time>2022-07-13T07:20:09.000Z</Time>
            <Position>
              <LatitudeDegrees>43.3883908577263355255126953125</LatitudeDegrees>
              <LongitudeDegrees>-3.32961187697947025299072265625</LongitudeDegrees>
            </Position>
            <AltitudeMeters>111</AltitudeMeters>
            <DistanceMeters>NAN</DistanceMeters>
          </Trackpoint>
          <Trackpoint>
            <Time>2022-07-13T07:20:13.000Z</Time>
            <Position>
              <LatitudeDegrees>43.388446010649204254150390625</LatitudeDegrees>
              <LongitudeDegrees>-3.3296191692352294921875</LongitudeDegrees>
            </Position>
            <AltitudeMeters>111.40000152587890625</AltitudeMeters>
            <DistanceMeters>NAN</DistanceMeters>
          </Trackpoint>
          <Trackpoint>
            <Time>2022-07-13T07:20:18.000Z</Time>
            <Position>
              <LatitudeDegrees>43.3885209448635578155517578125</LatitudeDegrees>
              <LongitudeDegrees>-3.329643309116363525390625</LongitudeDegrees>
            </Position>
            <AltitudeMeters>111.8000030517578125</AltitudeMeters>
            <DistanceMeters>NAN</DistanceMeters>
          </Trackpoint>
          <Trackpoint>
            <Time>2022-07-13T07:20:20.000Z</Time>
            <Position>
              <LatitudeDegrees>43.38854282163083553314208984375</LatitudeDegrees>
              <LongitudeDegrees>-3.32965739071369171142578125</LongitudeDegrees>
            </Position>
            <AltitudeMeters>112</AltitudeMeters>
            <DistanceMeters>NAN</DistanceMeters>
          </Trackpoint>
          <Trackpoint>
            <Time>2022-07-13T07:20:24.000Z</Time>
            <Position>
              <LatitudeDegrees>43.38857953436672687530517578125</LatitudeDegrees>
              <LongitudeDegrees>-3.3296837098896503448486328125</LongitudeDegrees>
            </Position>
            <AltitudeMeters>112.40000152587890625</AltitudeMeters>
            <DistanceMeters>NAN</DistanceMeters>
          </Trackpoint>
          <Trackpoint>
            <Time>2022-07-13T07:20:25.000Z</Time>
            <Position>
              <LatitudeDegrees>43.38858783245086669921875</LatitudeDegrees>
              <LongitudeDegrees>-3.32969083450734615325927734375</LongitudeDegrees>
            </Position>
            <AltitudeMeters>112.40000152587890625</AltitudeMeters>
            <DistanceMeters>NAN</DistanceMeters>
          </Trackpoint>
          <Trackpoint>
            <Time>2022-07-13T07:20:26.000Z</Time>
            <Position>
              <LatitudeDegrees>43.38859797455370426177978515625</LatitudeDegrees>
              <LongitudeDegrees>-3.32970273680984973907470703125</LongitudeDegrees>
            </Position>
            <AltitudeMeters>112.59999847412109375</AltitudeMeters>
            <DistanceMeters>NAN</DistanceMeters>
          </Trackpoint>
          <Trackpoint>
            <Time>2022-07-13T07:20:34.000Z</Time>
            <Position>
              <LatitudeDegrees>43.3886929415166378021240234375</LatitudeDegrees>
              <LongitudeDegrees>-3.3298134617507457733154296875</LongitudeDegrees>
            </Position>
            <AltitudeMeters>113.1999969482421875</AltitudeMeters>
            <DistanceMeters>NAN</DistanceMeters>
          </Trackpoint>
          <Trackpoint>
            <Time>2022-07-13T07:20:37.000Z</Time>
            <Position>
              <LatitudeDegrees>43.388724625110626220703125</LatitudeDegrees>
              <LongitudeDegrees>-3.32986853085458278656005859375</LongitudeDegrees>
            </Position>
            <AltitudeMeters>113.59999847412109375</AltitudeMeters>
            <DistanceMeters>NAN</DistanceMeters>
          </Trackpoint>
          <Trackpoint>
            <Time>2022-07-13T07:20:38.000Z</Time>
            <Position>
              <LatitudeDegrees>43.388728313148021697998046875</LatitudeDegrees>
              <LongitudeDegrees>-3.329884707927703857421875</LongitudeDegrees>
            </Position>
            <AltitudeMeters>113.59999847412109375</AltitudeMeters>
            <DistanceMeters>NAN</DistanceMeters>
          </Trackpoint>
          <Trackpoint>
            <Time>2022-07-13T07:20:42.000Z</Time>
            <Position>
              <LatitudeDegrees>43.3887402154505252838134765625</LatitudeDegrees>
              <LongitudeDegrees>-3.32996760495007038116455078125</LongitudeDegrees>
            </Position>
            <AltitudeMeters>113.8000030517578125</AltitudeMeters>
            <DistanceMeters>NAN</DistanceMeters>
          </Trackpoint>
          <Trackpoint>
            <Time>2022-07-13T07:20:53.000Z</Time>
            <Position>
              <LatitudeDegrees>43.3887978829443454742431640625</LatitudeDegrees>
              <LongitudeDegrees>-3.330173380672931671142578125</LongitudeDegrees>
            </Position>
            <AltitudeMeters>114.40000152587890625</AltitudeMeters>
            <DistanceMeters>NAN</DistanceMeters>
          </Trackpoint>
          <Trackpoint>
            <Time>2022-07-13T07:20:56.000Z</Time>
            <Position>
              <LatitudeDegrees>43.38881825096905231475830078125</LatitudeDegrees>
              <LongitudeDegrees>-3.33022375591099262237548828125</LongitudeDegrees>
            </Position>
            <AltitudeMeters>114.59999847412109375</AltitudeMeters>
            <DistanceMeters>NAN</DistanceMeters>
          </Trackpoint>
          <Trackpoint>
            <Time>2022-07-13T07:20:58.000Z</Time>
            <Position>
              <LatitudeDegrees>43.3888304047286510467529296875</LatitudeDegrees>
              <LongitudeDegrees>-3.3302590437233448028564453125</LongitudeDegrees>
            </Position>
            <AltitudeMeters>115</AltitudeMeters>
            <DistanceMeters>NAN</DistanceMeters>
          </Trackpoint>
          <Trackpoint>
            <Time>2022-07-13T07:21:03.000Z</Time>
            <Position>
              <LatitudeDegrees>43.3888495154678821563720703125</LatitudeDegrees>
              <LongitudeDegrees>-3.330347724258899688720703125</LongitudeDegrees>
            </Position>
            <AltitudeMeters>115.1999969482421875</AltitudeMeters>
            <DistanceMeters>NAN</DistanceMeters>
          </Trackpoint>
          <Trackpoint>
            <Time>2022-07-13T07:21:07.000Z</Time>
            <Position>
              <LatitudeDegrees>43.38886451907455921173095703125</LatitudeDegrees>
              <LongitudeDegrees>-3.33041704259812831878662109375</LongitudeDegrees>
            </Position>
            <AltitudeMeters>115.59999847412109375</AltitudeMeters>
            <DistanceMeters>NAN</DistanceMeters>
          </Trackpoint>
          <Trackpoint>
            <Time>2022-07-13T07:21:09.000Z</Time>
            <Position>
              <LatitudeDegrees>43.3888780139386653900146484375</LatitudeDegrees>
              <LongitudeDegrees>-3.330456353724002838134765625</LongitudeDegrees>
            </Position>
            <AltitudeMeters>115.59999847412109375</AltitudeMeters>
            <DistanceMeters>NAN</DistanceMeters>
          </Trackpoint>
          <Trackpoint>
            <Time>2022-07-13T07:21:12.000Z</Time>
            <Position>
              <LatitudeDegrees>43.3888957835733890533447265625</LatitudeDegrees>
              <LongitudeDegrees>-3.33049750886857509613037109375</LongitudeDegrees>
            </Position>
            <AltitudeMeters>115.8000030517578125</AltitudeMeters>
            <DistanceMeters>NAN</DistanceMeters>
          </Trackpoint>
          <Trackpoint>
            <Time>2022-07-13T07:21:20.000Z</Time>
            <Position>
              <LatitudeDegrees>43.38893677107989788055419921875</LatitudeDegrees>
              <LongitudeDegrees>-3.3306397497653961181640625</LongitudeDegrees>
            </Position>
            <AltitudeMeters>116.59999847412109375</AltitudeMeters>
            <DistanceMeters>NAN</DistanceMeters>
          </Trackpoint>
          <Trackpoint>
            <Time>2022-07-13T07:21:22.000Z</Time>
            <Position>
              <LatitudeDegrees>43.38895328342914581298828125</LatitudeDegrees>
              <LongitudeDegrees>-3.33067528903484344482421875</LongitudeDegrees>
            </Position>
            <AltitudeMeters>116.59999847412109375</AltitudeMeters>
            <DistanceMeters>NAN</DistanceMeters>
          </Trackpoint>
          <Trackpoint>
            <Time>2022-07-13T07:21:27.000Z</Time>
            <Position>
              <LatitudeDegrees>43.38898873887956142425537109375</LatitudeDegrees>
              <LongitudeDegrees>-3.33075332455337047576904296875</LongitudeDegrees>
            </Position>
            <AltitudeMeters>117</AltitudeMeters>
            <DistanceMeters>NAN</DistanceMeters>
          </Trackpoint>
          <Trackpoint>
            <Time>2022-07-13T07:21:35.000Z</Time>
            <Position>
              <LatitudeDegrees>43.389035761356353759765625</LatitudeDegrees>
              <LongitudeDegrees>-3.33086664788424968719482421875</LongitudeDegrees>
            </Position>
            <AltitudeMeters>117.8000030517578125</AltitudeMeters>
            <DistanceMeters>NAN</DistanceMeters>
          </Trackpoint>
          <Trackpoint>
            <Time>2022-07-13T07:21:37.000Z</Time>
            <Position>
              <LatitudeDegrees>43.3890503458678722381591796875</LatitudeDegrees>
              <LongitudeDegrees>-3.33089481107890605926513671875</LongitudeDegrees>
            </Position>
            <AltitudeMeters>118</AltitudeMeters>
            <DistanceMeters>NAN</DistanceMeters>
          </Trackpoint>
          <Trackpoint>
            <Time>2022-07-13T07:21:45.000Z</Time>
            <Position>
              <LatitudeDegrees>43.38910080492496490478515625</LatitudeDegrees>
              <LongitudeDegrees>-3.33102690987288951873779296875</LongitudeDegrees>
            </Position>
            <AltitudeMeters>118.8000030517578125</AltitudeMeters>
            <DistanceMeters>NAN</DistanceMeters>
          </Trackpoint>
          <Trackpoint>
            <Time>2022-07-13T07:21:47.000Z</Time>
            <Position>
              <LatitudeDegrees>43.38911731727421283721923828125</LatitudeDegrees>
              <LongitudeDegrees>-3.33106144331395626068115234375</LongitudeDegrees>
            </Position>
            <AltitudeMeters>119</AltitudeMeters>
            <DistanceMeters>NAN</DistanceMeters>
          </Trackpoint>
          <Trackpoint>
            <Time>2022-07-13T07:21:57.000Z</Time>
            <Position>
              <LatitudeDegrees>43.38919200003147125244140625</LatitudeDegrees>
              <LongitudeDegrees>-3.33123025484383106231689453125</LongitudeDegrees>
            </Position>
            <AltitudeMeters>120</AltitudeMeters>
            <DistanceMeters>NAN</DistanceMeters>
          </Trackpoint>
          <Trackpoint>
            <Time>2022-07-13T07:21:58.000Z</Time>
            <Position>
              <LatitudeDegrees>43.3892005495727062225341796875</LatitudeDegrees>
              <LongitudeDegrees>-3.331251628696918487548828125</LongitudeDegrees>
            </Position>
            <AltitudeMeters>120</AltitudeMeters>
            <DistanceMeters>NAN</DistanceMeters>
          </Trackpoint>
          <Trackpoint>
            <Time>2022-07-13T07:22:06.000Z</Time>
            <Position>
              <LatitudeDegrees>43.3892494998872280120849609375</LatitudeDegrees>
              <LongitudeDegrees>-3.33139755763113498687744140625</LongitudeDegrees>
            </Position>
            <AltitudeMeters>120.59999847412109375</AltitudeMeters>
            <DistanceMeters>NAN</DistanceMeters>
          </Trackpoint>
          <Trackpoint>
            <Time>2022-07-13T07:22:07.000Z</Time>
            <Position>
              <LatitudeDegrees>43.389255367219448089599609375</LatitudeDegrees>
              <LongitudeDegrees>-3.3314122259616851806640625</LongitudeDegrees>
            </Position>
            <AltitudeMeters>120.8000030517578125</AltitudeMeters>
            <DistanceMeters>NAN</DistanceMeters>
          </Trackpoint>
          <Trackpoint>
            <Time>2022-07-13T07:22:09.000Z</Time>
            <Position>
              <LatitudeDegrees>43.3892692811787128448486328125</LatitudeDegrees>
              <LongitudeDegrees>-3.33144105970859527587890625</LongitudeDegrees>
            </Position>
            <AltitudeMeters>121</AltitudeMeters>
            <DistanceMeters>NAN</DistanceMeters>
          </Trackpoint>
          <Trackpoint>
            <Time>2022-07-13T07:22:13.000Z</Time>
            <Position>
              <LatitudeDegrees>43.38929526507854461669921875</LatitudeDegrees>
              <LongitudeDegrees>-3.3315052650868892669677734375</LongitudeDegrees>
            </Position>
            <AltitudeMeters>121.1999969482421875</AltitudeMeters>
            <DistanceMeters>NAN</DistanceMeters>
          </Trackpoint>
          <Trackpoint>
            <Time>2022-07-13T07:22:15.000Z</Time>
            <Position>
              <LatitudeDegrees>43.38931177742779254913330078125</LatitudeDegrees>
              <LongitudeDegrees>-3.3315394632518291473388671875</LongitudeDegrees>
            </Position>
            <AltitudeMeters>121.59999847412109375</AltitudeMeters>
            <DistanceMeters>NAN</DistanceMeters>
          </Trackpoint>
          <Trackpoint>
            <Time>2022-07-13T07:22:21.000Z</Time>
            <Position>
              <LatitudeDegrees>43.38934698142111301422119140625</LatitudeDegrees>
              <LongitudeDegrees>-3.3316428959369659423828125</LongitudeDegrees>
            </Position>
            <AltitudeMeters>121.8000030517578125</AltitudeMeters>
            <DistanceMeters>NAN</DistanceMeters>
          </Trackpoint>
          <Trackpoint>
            <Time>2022-07-13T07:22:23.000Z</Time>
            <Position>
              <LatitudeDegrees>43.38935988955199718475341796875</LatitudeDegrees>
              <LongitudeDegrees>-3.3316750824451446533203125</LongitudeDegrees>
            </Position>
            <AltitudeMeters>122</AltitudeMeters>
            <DistanceMeters>NAN</DistanceMeters>
          </Trackpoint>
          <Trackpoint>
            <Time>2022-07-13T07:22:25.000Z</Time>
            <Position>
              <LatitudeDegrees>43.3893748931586742401123046875</LatitudeDegrees>
              <LongitudeDegrees>-3.331704251468181610107421875</LongitudeDegrees>
            </Position>
            <AltitudeMeters>122.1999969482421875</AltitudeMeters>
            <DistanceMeters>NAN</DistanceMeters>
          </Trackpoint>
          <Trackpoint>
            <Time>2022-07-13T07:22:31.000Z</Time>
            <Position>
              <LatitudeDegrees>43.38942308910191059112548828125</LatitudeDegrees>
              <LongitudeDegrees>-3.3318023197352886199951171875</LongitudeDegrees>
            </Position>
            <AltitudeMeters>122.8000030517578125</AltitudeMeters>
            <DistanceMeters>NAN</DistanceMeters>
          </Trackpoint>
          <Trackpoint>
            <Time>2022-07-13T07:22:34.000Z</Time>
            <Position>
              <LatitudeDegrees>43.38944622315466403961181640625</LatitudeDegrees>
              <LongitudeDegrees>-3.33185537718236446380615234375</LongitudeDegrees>
            </Position>
            <AltitudeMeters>123</AltitudeMeters>
            <DistanceMeters>NAN</DistanceMeters>
          </Trackpoint>
          <Trackpoint>
            <Time>2022-07-13T07:22:42.000Z</Time>
            <Position>
              <LatitudeDegrees>43.3895016275346279144287109375</LatitudeDegrees>
              <LongitudeDegrees>-3.3319776691496372222900390625</LongitudeDegrees>
            </Position>
            <AltitudeMeters>123.59999847412109375</AltitudeMeters>
            <DistanceMeters>NAN</DistanceMeters>
          </Trackpoint>
          <Trackpoint>
            <Time>2022-07-13T07:22:44.000Z</Time>
            <Position>
              <LatitudeDegrees>43.38951864279806613922119140625</LatitudeDegrees>
              <LongitudeDegrees>-3.3320101909339427947998046875</LongitudeDegrees>
            </Position>
            <AltitudeMeters>123.8000030517578125</AltitudeMeters>
            <DistanceMeters>NAN</DistanceMeters>
          </Trackpoint>
          <Trackpoint>
            <Time>2022-07-13T07:22:48.000Z</Time>
            <Position>
              <LatitudeDegrees>43.38954194448888301849365234375</LatitudeDegrees>
              <LongitudeDegrees>-3.33207003772258758544921875</LongitudeDegrees>
            </Position>
            <AltitudeMeters>124.1999969482421875</AltitudeMeters>
            <DistanceMeters>NAN</DistanceMeters>
          </Trackpoint>
          <Trackpoint>
            <Time>2022-07-13T07:22:54.000Z</Time>
            <Position>
              <LatitudeDegrees>43.389583937823772430419921875</LatitudeDegrees>
              <LongitudeDegrees>-3.33216257393360137939453125</LongitudeDegrees>
            </Position>
            <AltitudeMeters>124.59999847412109375</AltitudeMeters>
            <DistanceMeters>NAN</DistanceMeters>
          </Trackpoint>
          <Trackpoint>
            <Time>2022-07-13T07:23:03.000Z</Time>
            <Position>
              <LatitudeDegrees>43.38965811766684055328369140625</LatitudeDegrees>
              <LongitudeDegrees>-3.33228738047182559967041015625</LongitudeDegrees>
            </Position>
            <AltitudeMeters>125.1999969482421875</AltitudeMeters>
            <DistanceMeters>NAN</DistanceMeters>
          </Trackpoint>
          <Trackpoint>
            <Time>2022-07-13T07:23:13.000Z</Time>
            <Position>
              <LatitudeDegrees>43.3897571079432964324951171875</LatitudeDegrees>
              <LongitudeDegrees>-3.33242551423609256744384765625</LongitudeDegrees>
            </Position>
            <AltitudeMeters>126</AltitudeMeters>
            <DistanceMeters>NAN</DistanceMeters>
          </Trackpoint>
          <Trackpoint>
            <Time>2022-07-13T07:23:14.000Z</Time>
            <Position>
              <LatitudeDegrees>43.38976540602743625640869140625</LatitudeDegrees>
              <LongitudeDegrees>-3.33243775181472301483154296875</LongitudeDegrees>
            </Position>
            <AltitudeMeters>126</AltitudeMeters>
            <DistanceMeters>NAN</DistanceMeters>
          </Trackpoint>
          <Trackpoint>
            <Time>2022-07-13T07:23:16.000Z</Time>
            <Position>
              <LatitudeDegrees>43.38978652842342853546142578125</LatitudeDegrees>
              <LongitudeDegrees>-3.3324591256678104400634765625</LongitudeDegrees>
            </Position>
            <AltitudeMeters>126.1999969482421875</AltitudeMeters>
            <DistanceMeters>NAN</DistanceMeters>
          </Trackpoint>
          <Trackpoint>
            <Time>2022-07-13T07:23:25.000Z</Time>
            <Position>
              <LatitudeDegrees>43.38987939991056919097900390625</LatitudeDegrees>
              <LongitudeDegrees>-3.3325714431703090667724609375</LongitudeDegrees>
            </Position>
            <AltitudeMeters>127</AltitudeMeters>
            <DistanceMeters>NAN</DistanceMeters>
          </Trackpoint>
          <Trackpoint>
            <Time>2022-07-13T07:23:28.000Z</Time>
            <Position>
              <LatitudeDegrees>43.38990991003811359405517578125</LatitudeDegrees>
              <LongitudeDegrees>-3.33261075429618358612060546875</LongitudeDegrees>
            </Position>
            <AltitudeMeters>127.1999969482421875</AltitudeMeters>
            <DistanceMeters>NAN</DistanceMeters>
          </Trackpoint>
          <Trackpoint>
            <Time>2022-07-13T07:23:38.000Z</Time>
            <Position>
              <LatitudeDegrees>43.3900246582925319671630859375</LatitudeDegrees>
              <LongitudeDegrees>-3.3327694237232208251953125</LongitudeDegrees>
            </Position>
            <AltitudeMeters>128.1999969482421875</AltitudeMeters>
            <DistanceMeters>NAN</DistanceMeters>
          </Trackpoint>
          <Trackpoint>
            <Time>2022-07-13T07:23:40.000Z</Time>
            <Position>
              <LatitudeDegrees>43.3900427632033824920654296875</LatitudeDegrees>
              <LongitudeDegrees>-3.3327962458133697509765625</LongitudeDegrees>
            </Position>
            <AltitudeMeters>128.399993896484375</AltitudeMeters>
            <DistanceMeters>NAN</DistanceMeters>
          </Trackpoint>
          <Trackpoint>
            <Time>2022-07-13T07:23:47.000Z</Time>
            <Position>
              <LatitudeDegrees>43.39010059833526611328125</LatitudeDegrees>
              <LongitudeDegrees>-3.332889787852764129638671875</LongitudeDegrees>
            </Position>
            <AltitudeMeters>129</AltitudeMeters>
            <DistanceMeters>NAN</DistanceMeters>
          </Trackpoint>
          <Trackpoint>
            <Time>2022-07-13T07:23:53.000Z</Time>
            <Position>
              <LatitudeDegrees>43.39014627970755100250244140625</LatitudeDegrees>
              <LongitudeDegrees>-3.3329784683883190155029296875</LongitudeDegrees>
            </Position>
            <AltitudeMeters>129.399993896484375</AltitudeMeters>
            <DistanceMeters>NAN</DistanceMeters>
          </Trackpoint>
          <Trackpoint>
            <Time>2022-07-13T07:24:00.000Z</Time>
            <Position>
              <LatitudeDegrees>43.39020461775362491607666015625</LatitudeDegrees>
              <LongitudeDegrees>-3.33308919332921504974365234375</LongitudeDegrees>
            </Position>
            <AltitudeMeters>130</AltitudeMeters>
            <DistanceMeters>NAN</DistanceMeters>
          </Trackpoint>
          <Trackpoint>
            <Time>2022-07-13T07:24:07.000Z</Time>
            <Position>
              <LatitudeDegrees>43.39026312343776226043701171875</LatitudeDegrees>
              <LongitudeDegrees>-3.33318273536860942840576171875</LongitudeDegrees>
            </Position>
            <AltitudeMeters>130.399993896484375</AltitudeMeters>
            <DistanceMeters>NAN</DistanceMeters>
          </Trackpoint>
          <Trackpoint>
            <Time>2022-07-13T07:24:11.000Z</Time>
            <Position>
              <LatitudeDegrees>43.39029530994594097137451171875</LatitudeDegrees>
              <LongitudeDegrees>-3.333249874413013458251953125</LongitudeDegrees>
            </Position>
            <AltitudeMeters>130.8000030517578125</AltitudeMeters>
            <DistanceMeters>NAN</DistanceMeters>
          </Trackpoint>
          <Trackpoint>
            <Time>2022-07-13T07:24:12.000Z</Time>
            <Position>
              <LatitudeDegrees>43.3903057873249053955078125</LatitudeDegrees>
              <LongitudeDegrees>-3.33326688967645168304443359375</LongitudeDegrees>
            </Position>
            <AltitudeMeters>130.8000030517578125</AltitudeMeters>
            <DistanceMeters>NAN</DistanceMeters>
          </Trackpoint>
          <Trackpoint>
            <Time>2022-07-13T07:24:15.000Z</Time>
            <Position>
              <LatitudeDegrees>43.390328250825405120849609375</LatitudeDegrees>
              <LongitudeDegrees>-3.333310894668102264404296875</LongitudeDegrees>
            </Position>
            <AltitudeMeters>131.1999969482421875</AltitudeMeters>
            <DistanceMeters>NAN</DistanceMeters>
          </Trackpoint>
          <Trackpoint>
            <Time>2022-07-13T07:24:19.000Z</Time>
            <Position>
              <LatitudeDegrees>43.39035850949585437774658203125</LatitudeDegrees>
              <LongitudeDegrees>-3.333376608788967132568359375</LongitudeDegrees>
            </Position>
            <AltitudeMeters>131.399993896484375</AltitudeMeters>
            <DistanceMeters>NAN</DistanceMeters>
          </Trackpoint>
          <Trackpoint>
            <Time>2022-07-13T07:24:21.000Z</Time>
            <Position>
              <LatitudeDegrees>43.3903703279793262481689453125</LatitudeDegrees>
              <LongitudeDegrees>-3.33340175449848175048828125</LongitudeDegrees>
            </Position>
            <AltitudeMeters>131.8000030517578125</AltitudeMeters>
            <DistanceMeters>NAN</DistanceMeters>
          </Trackpoint>
          <Trackpoint>
            <Time>2022-07-13T07:24:23.000Z</Time>
            <Position>
              <LatitudeDegrees>43.3903870917856693267822265625</LatitudeDegrees>
              <LongitudeDegrees>-3.33342798985540866851806640625</LongitudeDegrees>
            </Position>
            <AltitudeMeters>131.8000030517578125</AltitudeMeters>
            <DistanceMeters>NAN</DistanceMeters>
          </Trackpoint>
          <Trackpoint>
            <Time>2022-07-13T07:24:28.000Z</Time>
            <Position>
              <LatitudeDegrees>43.39041852392256259918212890625</LatitudeDegrees>
              <LongitudeDegrees>-3.33351599983870983123779296875</LongitudeDegrees>
            </Position>
            <AltitudeMeters>132.1999969482421875</AltitudeMeters>
            <DistanceMeters>NAN</DistanceMeters>
          </Trackpoint>
          <Trackpoint>
            <Time>2022-07-13T07:24:32.000Z</Time>
            <Position>
              <LatitudeDegrees>43.39044601656496524810791015625</LatitudeDegrees>
              <LongitudeDegrees>-3.3335866592824459075927734375</LongitudeDegrees>
            </Position>
            <AltitudeMeters>132.600006103515625</AltitudeMeters>
            <DistanceMeters>NAN</DistanceMeters>
          </Trackpoint>
          <Trackpoint>
            <Time>2022-07-13T07:24:35.000Z</Time>
            <Position>
              <LatitudeDegrees>43.390461690723896026611328125</LatitudeDegrees>
              <LongitudeDegrees>-3.33363736979663372039794921875</LongitudeDegrees>
            </Position>
            <AltitudeMeters>132.8000030517578125</AltitudeMeters>
            <DistanceMeters>NAN</DistanceMeters>
          </Trackpoint>
          <Trackpoint>
            <Time>2022-07-13T07:24:44.000Z</Time>
            <Position>
              <LatitudeDegrees>43.39051793329417705535888671875</LatitudeDegrees>
              <LongitudeDegrees>-3.3338243700563907623291015625</LongitudeDegrees>
            </Position>
            <AltitudeMeters>133.600006103515625</AltitudeMeters>
            <DistanceMeters>NAN</DistanceMeters>
          </Trackpoint>
          <Trackpoint>
            <Time>2022-07-13T07:24:46.000Z</Time>
            <Position>
              <LatitudeDegrees>43.39053251780569553375244140625</LatitudeDegrees>
              <LongitudeDegrees>-3.33387105725705623626708984375</LongitudeDegrees>
            </Position>
            <AltitudeMeters>133.600006103515625</AltitudeMeters>
            <DistanceMeters>NAN</DistanceMeters>
          </Trackpoint>
          <Trackpoint>
            <Time>2022-07-13T07:24:55.000Z</Time>
            <Position>
              <LatitudeDegrees>43.39056872762739658355712890625</LatitudeDegrees>
              <LongitudeDegrees>-3.3340895734727382659912109375</LongitudeDegrees>
            </Position>
            <AltitudeMeters>134.399993896484375</AltitudeMeters>
            <DistanceMeters>NAN</DistanceMeters>
          </Trackpoint>
          <Trackpoint>
            <Time>2022-07-13T07:24:56.000Z</Time>
            <Position>
              <LatitudeDegrees>43.3905711583793163299560546875</LatitudeDegrees>
              <LongitudeDegrees>-3.33411228843033313751220703125</LongitudeDegrees>
            </Position>
            <AltitudeMeters>134.399993896484375</AltitudeMeters>
            <DistanceMeters>NAN</DistanceMeters>
          </Trackpoint>
          <Trackpoint>
            <Time>2022-07-13T07:24:59.000Z</Time>
            <Position>
              <LatitudeDegrees>43.39058431796729564666748046875</LatitudeDegrees>
              <LongitudeDegrees>-3.334185965359210968017578125</LongitudeDegrees>
            </Position>
            <AltitudeMeters>134.600006103515625</AltitudeMeters>
            <DistanceMeters>NAN</DistanceMeters>
          </Trackpoint>
          <Trackpoint>
            <Time>2022-07-13T07:25:03.000Z</Time>
            <Position>
              <LatitudeDegrees>43.39059772901237010955810546875</LatitudeDegrees>
              <LongitudeDegrees>-3.33427690900862216949462890625</LongitudeDegrees>
            </Position>
            <AltitudeMeters>134.8000030517578125</AltitudeMeters>
            <DistanceMeters>NAN</DistanceMeters>
          </Trackpoint>
          <Trackpoint>
            <Time>2022-07-13T07:25:04.000Z</Time>
            <Position>
              <LatitudeDegrees>43.39059747755527496337890625</LatitudeDegrees>
              <LongitudeDegrees>-3.334297947585582733154296875</LongitudeDegrees>
            </Position>
            <AltitudeMeters>135</AltitudeMeters>
            <DistanceMeters>NAN</DistanceMeters>
          </Trackpoint>
          <Trackpoint>
            <Time>2022-07-13T07:25:12.000Z</Time>
            <Position>
              <LatitudeDegrees>43.3905956335365772247314453125</LatitudeDegrees>
              <LongitudeDegrees>-3.33449198864400386810302734375</LongitudeDegrees>
            </Position>
            <AltitudeMeters>135.399993896484375</AltitudeMeters>
            <DistanceMeters>NAN</DistanceMeters>
          </Trackpoint>
          <Trackpoint>
            <Time>2022-07-13T07:25:17.000Z</Time>
            <Position>
              <LatitudeDegrees>43.39060829021036624908447265625</LatitudeDegrees>
              <LongitudeDegrees>-3.33460749126970767974853515625</LongitudeDegrees>
            </Position>
            <AltitudeMeters>135.399993896484375</AltitudeMeters>
            <DistanceMeters>NAN</DistanceMeters>
          </Trackpoint>
          <Trackpoint>
            <Time>2022-07-13T07:25:21.000Z</Time>
            <Position>
              <LatitudeDegrees>43.39062421582639217376708984375</LatitudeDegrees>
              <LongitudeDegrees>-3.3347205631434917449951171875</LongitudeDegrees>
            </Position>
            <AltitudeMeters>135.399993896484375</AltitudeMeters>
            <DistanceMeters>NAN</DistanceMeters>
          </Trackpoint>
          <Trackpoint>
            <Time>2022-07-13T07:25:22.000Z</Time>
            <Position>
              <LatitudeDegrees>43.3906308375298976898193359375</LatitudeDegrees>
              <LongitudeDegrees>-3.33475400693714618682861328125</LongitudeDegrees>
            </Position>
            <AltitudeMeters>135.399993896484375</AltitudeMeters>
            <DistanceMeters>NAN</DistanceMeters>
          </Trackpoint>
          <Trackpoint>
            <Time>2022-07-13T07:25:25.000Z</Time>
            <Position>
              <LatitudeDegrees>43.390621952712535858154296875</LatitudeDegrees>
              <LongitudeDegrees>-3.3348347246646881103515625</LongitudeDegrees>
            </Position>
            <AltitudeMeters>135.399993896484375</AltitudeMeters>
            <DistanceMeters>NAN</DistanceMeters>
          </Trackpoint>
          <Trackpoint>
            <Time>2022-07-13T07:25:28.000Z</Time>
            <Position>
              <LatitudeDegrees>43.39062505401670932769775390625</LatitudeDegrees>
              <LongitudeDegrees>-3.33491644822061061859130859375</LongitudeDegrees>
            </Position>
            <AltitudeMeters>135.600006103515625</AltitudeMeters>
            <DistanceMeters>NAN</DistanceMeters>
          </Trackpoint>
          <Trackpoint>
            <Time>2022-07-13T07:25:31.000Z</Time>
            <Position>
              <LatitudeDegrees>43.390628993511199951171875</LatitudeDegrees>
              <LongitudeDegrees>-3.33499758504331111907958984375</LongitudeDegrees>
            </Position>
            <AltitudeMeters>136</AltitudeMeters>
            <DistanceMeters>NAN</DistanceMeters>
          </Trackpoint>
          <Trackpoint>
            <Time>2022-07-13T07:25:34.000Z</Time>
            <Position>
              <LatitudeDegrees>43.3906294964253902435302734375</LatitudeDegrees>
              <LongitudeDegrees>-3.33508224226534366607666015625</LongitudeDegrees>
            </Position>
            <AltitudeMeters>136</AltitudeMeters>
            <DistanceMeters>NAN</DistanceMeters>
          </Trackpoint>
          <Trackpoint>
            <Time>2022-07-13T07:25:39.000Z</Time>
            <Position>
              <LatitudeDegrees>43.39064684696495532989501953125</LatitudeDegrees>
              <LongitudeDegrees>-3.335225991904735565185546875</LongitudeDegrees>
            </Position>
            <AltitudeMeters>136.1999969482421875</AltitudeMeters>
            <DistanceMeters>NAN</DistanceMeters>
          </Trackpoint>
          <Trackpoint>
            <Time>2022-07-13T07:25:44.000Z</Time>
            <Position>
              <LatitudeDegrees>43.39066528715193271636962890625</LatitudeDegrees>
              <LongitudeDegrees>-3.33536890335381031036376953125</LongitudeDegrees>
            </Position>
            <AltitudeMeters>136.399993896484375</AltitudeMeters>
            <DistanceMeters>NAN</DistanceMeters>
          </Trackpoint>
          <Trackpoint>
            <Time>2022-07-13T07:25:46.000Z</Time>
            <Position>
              <LatitudeDegrees>43.39066461659967899322509765625</LatitudeDegrees>
              <LongitudeDegrees>-3.33541600964963436126708984375</LongitudeDegrees>
            </Position>
            <AltitudeMeters>136.399993896484375</AltitudeMeters>
            <DistanceMeters>NAN</DistanceMeters>
          </Trackpoint>
          <Trackpoint>
            <Time>2022-07-13T07:25:51.000Z</Time>
            <Position>
              <LatitudeDegrees>43.3906710706651210784912109375</LatitudeDegrees>
              <LongitudeDegrees>-3.3355540595948696136474609375</LongitudeDegrees>
            </Position>
            <AltitudeMeters>136.600006103515625</AltitudeMeters>
            <DistanceMeters>NAN</DistanceMeters>
          </Trackpoint>
          <Trackpoint>
            <Time>2022-07-13T07:25:54.000Z</Time>
            <Position>
              <LatitudeDegrees>43.39067433960735797882080078125</LatitudeDegrees>
              <LongitudeDegrees>-3.33563469350337982177734375</LongitudeDegrees>
            </Position>
            <AltitudeMeters>136.8000030517578125</AltitudeMeters>
            <DistanceMeters>NAN</DistanceMeters>
          </Trackpoint>
          <Trackpoint>
            <Time>2022-07-13T07:26:02.000Z</Time>
            <Position>
              <LatitudeDegrees>43.3906972222030162811279296875</LatitudeDegrees>
              <LongitudeDegrees>-3.33586595021188259124755859375</LongitudeDegrees>
            </Position>
            <AltitudeMeters>137.1999969482421875</AltitudeMeters>
            <DistanceMeters>NAN</DistanceMeters>
          </Trackpoint>
          <Trackpoint>
            <Time>2022-07-13T07:26:03.000Z</Time>
            <Position>
              <LatitudeDegrees>43.39069948531687259674072265625</LatitudeDegrees>
              <LongitudeDegrees>-3.33589260466396808624267578125</LongitudeDegrees>
            </Position>
            <AltitudeMeters>137.1999969482421875</AltitudeMeters>
            <DistanceMeters>NAN</DistanceMeters>
          </Trackpoint>
          <Trackpoint>
            <Time>2022-07-13T07:26:10.000Z</Time>
            <Position>
              <LatitudeDegrees>43.39073351584374904632568359375</LatitudeDegrees>
              <LongitudeDegrees>-3.33607935346662998199462890625</LongitudeDegrees>
            </Position>
            <AltitudeMeters>137.399993896484375</AltitudeMeters>
            <DistanceMeters>NAN</DistanceMeters>
          </Trackpoint>
          <Trackpoint>
            <Time>2022-07-13T07:26:16.000Z</Time>
            <Position>
              <LatitudeDegrees>43.39076804928481578826904296875</LatitudeDegrees>
              <LongitudeDegrees>-3.33623190410435199737548828125</LongitudeDegrees>
            </Position>
            <AltitudeMeters>137.600006103515625</AltitudeMeters>
            <DistanceMeters>NAN</DistanceMeters>
          </Trackpoint>
          <Trackpoint>
            <Time>2022-07-13T07:26:23.000Z</Time>
            <Position>
              <LatitudeDegrees>43.390824459493160247802734375</LatitudeDegrees>
              <LongitudeDegrees>-3.3364023081958293914794921875</LongitudeDegrees>
            </Position>
            <AltitudeMeters>138.1999969482421875</AltitudeMeters>
            <DistanceMeters>NAN</DistanceMeters>
          </Trackpoint>
          <Trackpoint>
            <Time>2022-07-13T07:26:32.000Z</Time>
            <Position>
              <LatitudeDegrees>43.390943147242069244384765625</LatitudeDegrees>
              <LongitudeDegrees>-3.33659551106393337249755859375</LongitudeDegrees>
            </Position>
            <AltitudeMeters>138.600006103515625</AltitudeMeters>
            <DistanceMeters>NAN</DistanceMeters>
          </Trackpoint>
          <Trackpoint>
            <Time>2022-07-13T07:26:33.000Z</Time>
            <Position>
              <LatitudeDegrees>43.390947841107845306396484375</LatitudeDegrees>
              <LongitudeDegrees>-3.33661680109798908233642578125</LongitudeDegrees>
            </Position>
            <AltitudeMeters>138.8000030517578125</AltitudeMeters>
            <DistanceMeters>NAN</DistanceMeters>
          </Trackpoint>
          <Trackpoint>
            <Time>2022-07-13T07:26:38.000Z</Time>
            <Position>
              <LatitudeDegrees>43.39100115001201629638671875</LatitudeDegrees>
              <LongitudeDegrees>-3.33671587519347667694091796875</LongitudeDegrees>
            </Position>
            <AltitudeMeters>139</AltitudeMeters>
            <DistanceMeters>NAN</DistanceMeters>
          </Trackpoint>
          <Trackpoint>
            <Time>2022-07-13T07:26:39.000Z</Time>
            <Position>
              <LatitudeDegrees>43.391014225780963897705078125</LatitudeDegrees>
              <LongitudeDegrees>-3.33673448301851749420166015625</LongitudeDegrees>
            </Position>
            <AltitudeMeters>139.1999969482421875</AltitudeMeters>
            <DistanceMeters>NAN</DistanceMeters>
          </Trackpoint>
          <Trackpoint>
            <Time>2022-07-13T07:26:46.000Z</Time>
            <Position>
              <LatitudeDegrees>43.3911132998764514923095703125</LatitudeDegrees>
              <LongitudeDegrees>-3.33686993457376956939697265625</LongitudeDegrees>
            </Position>
            <AltitudeMeters>139.600006103515625</AltitudeMeters>
            <DistanceMeters>NAN</DistanceMeters>
          </Trackpoint>
          <Trackpoint>
            <Time>2022-07-13T07:26:49.000Z</Time>
            <Position>
              <LatitudeDegrees>43.39115344919264316558837890625</LatitudeDegrees>
              <LongitudeDegrees>-3.3369216509163379669189453125</LongitudeDegrees>
            </Position>
            <AltitudeMeters>139.8000030517578125</AltitudeMeters>
            <DistanceMeters>NAN</DistanceMeters>
          </Trackpoint>
          <Trackpoint>
            <Time>2022-07-13T07:26:50.000Z</Time>
            <Position>
              <LatitudeDegrees>43.39117012917995452880859375</LatitudeDegrees>
              <LongitudeDegrees>-3.33694201894104480743408203125</LongitudeDegrees>
            </Position>
            <AltitudeMeters>139.8000030517578125</AltitudeMeters>
            <DistanceMeters>NAN</DistanceMeters>
          </Trackpoint>
          <Trackpoint>
            <Time>2022-07-13T07:26:59.000Z</Time>
            <Position>
              <LatitudeDegrees>43.391274400055408477783203125</LatitudeDegrees>
              <LongitudeDegrees>-3.33710831589996814727783203125</LongitudeDegrees>
            </Position>
            <AltitudeMeters>140.399993896484375</AltitudeMeters>
            <DistanceMeters>NAN</DistanceMeters>
          </Trackpoint>
          <Trackpoint>
            <Time>2022-07-13T07:27:05.000Z</Time>
            <Position>
              <LatitudeDegrees>43.391342125833034515380859375</LatitudeDegrees>
              <LongitudeDegrees>-3.337236978113651275634765625</LongitudeDegrees>
            </Position>
            <AltitudeMeters>141</AltitudeMeters>
            <DistanceMeters>NAN</DistanceMeters>
          </Trackpoint>
          <Trackpoint>
            <Time>2022-07-13T07:27:10.000Z</Time>
            <Position>
              <LatitudeDegrees>43.39138613082468509674072265625</LatitudeDegrees>
              <LongitudeDegrees>-3.3373635448515415191650390625</LongitudeDegrees>
            </Position>
            <AltitudeMeters>141.1999969482421875</AltitudeMeters>
            <DistanceMeters>NAN</DistanceMeters>
          </Trackpoint>
          <Trackpoint>
            <Time>2022-07-13T07:27:18.000Z</Time>
            <Position>
              <LatitudeDegrees>43.3914596401154994964599609375</LatitudeDegrees>
              <LongitudeDegrees>-3.337568230926990509033203125</LongitudeDegrees>
            </Position>
            <AltitudeMeters>141.8000030517578125</AltitudeMeters>
            <DistanceMeters>NAN</DistanceMeters>
          </Trackpoint>
          <Trackpoint>
            <Time>2022-07-13T07:27:21.000Z</Time>
            <Position>
              <LatitudeDegrees>43.39147648774087429046630859375</LatitudeDegrees>
              <LongitudeDegrees>-3.3376481942832469940185546875</LongitudeDegrees>
            </Position>
            <AltitudeMeters>142</AltitudeMeters>
            <DistanceMeters>NAN</DistanceMeters>
          </Trackpoint>
          <Trackpoint>
            <Time>2022-07-13T07:27:28.000Z</Time>
            <Position>
              <LatitudeDegrees>43.3915132842957973480224609375</LatitudeDegrees>
              <LongitudeDegrees>-3.33785397000610828399658203125</LongitudeDegrees>
            </Position>
            <AltitudeMeters>142.399993896484375</AltitudeMeters>
            <DistanceMeters>NAN</DistanceMeters>
          </Trackpoint>
          <Trackpoint>
            <Time>2022-07-13T07:27:37.000Z</Time>
            <Position>
              <LatitudeDegrees>43.3915261924266815185546875</LatitudeDegrees>
              <LongitudeDegrees>-3.33817340433597564697265625</LongitudeDegrees>
            </Position>
            <AltitudeMeters>142.8000030517578125</AltitudeMeters>
            <DistanceMeters>NAN</DistanceMeters>
          </Trackpoint>
          <Trackpoint>
            <Time>2022-07-13T07:27:45.000Z</Time>
            <Position>
              <LatitudeDegrees>43.39148973114788532257080078125</LatitudeDegrees>
              <LongitudeDegrees>-3.3384645916521549224853515625</LongitudeDegrees>
            </Position>
            <AltitudeMeters>142.8000030517578125</AltitudeMeters>
            <DistanceMeters>NAN</DistanceMeters>
          </Trackpoint>
          <Trackpoint>
            <Time>2022-07-13T07:27:51.000Z</Time>
            <Position>
              <LatitudeDegrees>43.39140255935490131378173828125</LatitudeDegrees>
              <LongitudeDegrees>-3.33872585557401180267333984375</LongitudeDegrees>
            </Position>
            <AltitudeMeters>142.8000030517578125</AltitudeMeters>
            <DistanceMeters>NAN</DistanceMeters>
          </Trackpoint>
          <Trackpoint>
            <Time>2022-07-13T07:27:57.000Z</Time>
            <Position>
              <LatitudeDegrees>43.3913080953061580657958984375</LatitudeDegrees>
              <LongitudeDegrees>-3.33899374119937419891357421875</LongitudeDegrees>
            </Position>
            <AltitudeMeters>142.600006103515625</AltitudeMeters>
            <DistanceMeters>NAN</DistanceMeters>
          </Trackpoint>
          <Trackpoint>
            <Time>2022-07-13T07:28:04.000Z</Time>
            <Position>
              <LatitudeDegrees>43.39115411974489688873291015625</LatitudeDegrees>
              <LongitudeDegrees>-3.3392695896327495574951171875</LongitudeDegrees>
            </Position>
            <AltitudeMeters>142.399993896484375</AltitudeMeters>
            <DistanceMeters>NAN</DistanceMeters>
          </Trackpoint>
          <Trackpoint>
            <Time>2022-07-13T07:28:07.000Z</Time>
            <Position>
              <LatitudeDegrees>43.3911079354584217071533203125</LatitudeDegrees>
              <LongitudeDegrees>-3.33940110169351100921630859375</LongitudeDegrees>
            </Position>
            <AltitudeMeters>142.399993896484375</AltitudeMeters>
            <DistanceMeters>NAN</DistanceMeters>
          </Trackpoint>
          <Trackpoint>
            <Time>2022-07-13T07:28:13.000Z</Time>
            <Position>
              <LatitudeDegrees>43.3910165727138519287109375</LatitudeDegrees>
              <LongitudeDegrees>-3.339659012854099273681640625</LongitudeDegrees>
            </Position>
            <AltitudeMeters>142.399993896484375</AltitudeMeters>
            <DistanceMeters>NAN</DistanceMeters>
          </Trackpoint>
          <Trackpoint>
            <Time>2022-07-13T07:28:20.000Z</Time>
            <Position>
              <LatitudeDegrees>43.39092914946377277374267578125</LatitudeDegrees>
              <LongitudeDegrees>-3.34002052433788776397705078125</LongitudeDegrees>
            </Position>
            <AltitudeMeters>142.600006103515625</AltitudeMeters>
            <DistanceMeters>NAN</DistanceMeters>
          </Trackpoint>
          <Trackpoint>
            <Time>2022-07-13T07:28:27.000Z</Time>
            <Position>
              <LatitudeDegrees>43.3909081108868122100830078125</LatitudeDegrees>
              <LongitudeDegrees>-3.3404118753969669342041015625</LongitudeDegrees>
            </Position>
            <AltitudeMeters>142.8000030517578125</AltitudeMeters>
            <DistanceMeters>NAN</DistanceMeters>
          </Trackpoint>
          <Trackpoint>
            <Time>2022-07-13T07:28:33.000Z</Time>
            <Position>
              <LatitudeDegrees>43.39093987829983234405517578125</LatitudeDegrees>
              <LongitudeDegrees>-3.34072393365204334259033203125</LongitudeDegrees>
            </Position>
            <AltitudeMeters>143</AltitudeMeters>
            <DistanceMeters>NAN</DistanceMeters>
          </Trackpoint>
          <Trackpoint>
            <Time>2022-07-13T07:28:35.000Z</Time>
            <Position>
              <LatitudeDegrees>43.3909523673355579376220703125</LatitudeDegrees>
              <LongitudeDegrees>-3.340816386044025421142578125</LongitudeDegrees>
            </Position>
            <AltitudeMeters>143</AltitudeMeters>
            <DistanceMeters>NAN</DistanceMeters>
          </Trackpoint>
          <Trackpoint>
            <Time>2022-07-13T07:28:39.000Z</Time>
            <Position>
              <LatitudeDegrees>43.39098430238664150238037109375</LatitudeDegrees>
              <LongitudeDegrees>-3.3409811742603778839111328125</LongitudeDegrees>
            </Position>
            <AltitudeMeters>143.1999969482421875</AltitudeMeters>
            <DistanceMeters>NAN</DistanceMeters>
          </Trackpoint>
          <Trackpoint>
            <Time>2022-07-13T07:28:47.000Z</Time>
            <Position>
              <LatitudeDegrees>43.39109024964272975921630859375</LatitudeDegrees>
              <LongitudeDegrees>-3.341318629682064056396484375</LongitudeDegrees>
            </Position>
            <AltitudeMeters>143.399993896484375</AltitudeMeters>
            <DistanceMeters>NAN</DistanceMeters>
          </Trackpoint>
          <Trackpoint>
            <Time>2022-07-13T07:28:52.000Z</Time>
            <Position>
              <LatitudeDegrees>43.391166441142559051513671875</LatitudeDegrees>
              <LongitudeDegrees>-3.34152691997587680816650390625</LongitudeDegrees>
            </Position>
            <AltitudeMeters>143.600006103515625</AltitudeMeters>
            <DistanceMeters>NAN</DistanceMeters>
          </Trackpoint>
          <Trackpoint>
            <Time>2022-07-13T07:28:55.000Z</Time>
            <Position>
              <LatitudeDegrees>43.39120591990649700164794921875</LatitudeDegrees>
              <LongitudeDegrees>-3.341651894152164459228515625</LongitudeDegrees>
            </Position>
            <AltitudeMeters>143.600006103515625</AltitudeMeters>
            <DistanceMeters>NAN</DistanceMeters>
          </Trackpoint>
          <Trackpoint>
            <Time>2022-07-13T07:29:04.000Z</Time>
            <Position>
              <LatitudeDegrees>43.39134003035724163055419921875</LatitudeDegrees>
              <LongitudeDegrees>-3.34200904704630374908447265625</LongitudeDegrees>
            </Position>
            <AltitudeMeters>144</AltitudeMeters>
            <DistanceMeters>NAN</DistanceMeters>
          </Trackpoint>
          <Trackpoint>
            <Time>2022-07-13T07:29:09.000Z</Time>
            <Position>
              <LatitudeDegrees>43.39144061319530010223388671875</LatitudeDegrees>
              <LongitudeDegrees>-3.34222530014812946319580078125</LongitudeDegrees>
            </Position>
            <AltitudeMeters>144</AltitudeMeters>
            <DistanceMeters>NAN</DistanceMeters>
          </Trackpoint>
          <Trackpoint>
            <Time>2022-07-13T07:29:12.000Z</Time>
            <Position>
              <LatitudeDegrees>43.39150783605873584747314453125</LatitudeDegrees>
              <LongitudeDegrees>-3.3423521183431148529052734375</LongitudeDegrees>
            </Position>
            <AltitudeMeters>144.1999969482421875</AltitudeMeters>
            <DistanceMeters>NAN</DistanceMeters>
          </Trackpoint>
          <Trackpoint>
            <Time>2022-07-13T07:29:19.000Z</Time>
            <Position>
              <LatitudeDegrees>43.39165301062166690826416015625</LatitudeDegrees>
              <LongitudeDegrees>-3.34259393624961376190185546875</LongitudeDegrees>
            </Position>
            <AltitudeMeters>144.399993896484375</AltitudeMeters>
            <DistanceMeters>NAN</DistanceMeters>
          </Trackpoint>
          <Trackpoint>
            <Time>2022-07-13T07:29:26.000Z</Time>
            <Position>
              <LatitudeDegrees>43.39183741249144077301025390625</LatitudeDegrees>
              <LongitudeDegrees>-3.34276844747364521026611328125</LongitudeDegrees>
            </Position>
            <AltitudeMeters>144.600006103515625</AltitudeMeters>
            <DistanceMeters>NAN</DistanceMeters>
          </Trackpoint>
          <Trackpoint>
            <Time>2022-07-13T07:29:32.000Z</Time>
            <Position>
              <LatitudeDegrees>43.39198526926338672637939453125</LatitudeDegrees>
              <LongitudeDegrees>-3.34292418323457241058349609375</LongitudeDegrees>
            </Position>
            <AltitudeMeters>144.8000030517578125</AltitudeMeters>
            <DistanceMeters>NAN</DistanceMeters>
          </Trackpoint>
          <Trackpoint>
            <Time>2022-07-13T07:29:38.000Z</Time>
            <Position>
              <LatitudeDegrees>43.39216346852481365203857421875</LatitudeDegrees>
              <LongitudeDegrees>-3.34303130395710468292236328125</LongitudeDegrees>
            </Position>
            <AltitudeMeters>145</AltitudeMeters>
            <DistanceMeters>NAN</DistanceMeters>
          </Trackpoint>
          <Trackpoint>
            <Time>2022-07-13T07:29:41.000Z</Time>
            <Position>
              <LatitudeDegrees>43.39223085902631282806396484375</LatitudeDegrees>
              <LongitudeDegrees>-3.34308645687997341156005859375</LongitudeDegrees>
            </Position>
            <AltitudeMeters>145</AltitudeMeters>
            <DistanceMeters>NAN</DistanceMeters>
          </Trackpoint>
          <Trackpoint>
            <Time>2022-07-13T07:29:44.000Z</Time>
            <Position>
              <LatitudeDegrees>43.3923166058957576751708984375</LatitudeDegrees>
              <LongitudeDegrees>-3.34314219653606414794921875</LongitudeDegrees>
            </Position>
            <AltitudeMeters>145.1999969482421875</AltitudeMeters>
            <DistanceMeters>NAN</DistanceMeters>
          </Trackpoint>
          <Trackpoint>
            <Time>2022-07-13T07:29:52.000Z</Time>
            <Position>
              <LatitudeDegrees>43.392540402710437774658203125</LatitudeDegrees>
              <LongitudeDegrees>-3.34324403665959835052490234375</LongitudeDegrees>
            </Position>
            <AltitudeMeters>145.8000030517578125</AltitudeMeters>
            <DistanceMeters>NAN</DistanceMeters>
          </Trackpoint>
          <Trackpoint>
            <Time>2022-07-13T07:29:57.000Z</Time>
            <Position>
              <LatitudeDegrees>43.39267912320792675018310546875</LatitudeDegrees>
              <LongitudeDegrees>-3.34334780462086200714111328125</LongitudeDegrees>
            </Position>
            <AltitudeMeters>146.1999969482421875</AltitudeMeters>
            <DistanceMeters>NAN</DistanceMeters>
          </Trackpoint>
          <Trackpoint>
            <Time>2022-07-13T07:30:00.000Z</Time>
            <Position>
              <LatitudeDegrees>43.39277409017086029052734375</LatitudeDegrees>
              <LongitudeDegrees>-3.34340882487595081329345703125</LongitudeDegrees>
            </Position>
            <AltitudeMeters>146.1999969482421875</AltitudeMeters>
            <DistanceMeters>NAN</DistanceMeters>
          </Trackpoint>
          <Trackpoint>
            <Time>2022-07-13T07:30:06.000Z</Time>
            <Position>
              <LatitudeDegrees>43.3929397165775299072265625</LatitudeDegrees>
              <LongitudeDegrees>-3.3435275964438915252685546875</LongitudeDegrees>
            </Position>
            <AltitudeMeters>146.600006103515625</AltitudeMeters>
            <DistanceMeters>NAN</DistanceMeters>
          </Trackpoint>
          <Trackpoint>
            <Time>2022-07-13T07:30:15.000Z</Time>
            <Position>
              <LatitudeDegrees>43.39316929690539836883544921875</LatitudeDegrees>
              <LongitudeDegrees>-3.3437730185687541961669921875</LongitudeDegrees>
            </Position>
            <AltitudeMeters>146.8000030517578125</AltitudeMeters>
            <DistanceMeters>NAN</DistanceMeters>
          </Trackpoint>
          <Trackpoint>
            <Time>2022-07-13T07:30:24.000Z</Time>
            <Position>
              <LatitudeDegrees>43.393379934132099151611328125</LatitudeDegrees>
              <LongitudeDegrees>-3.34402657113969326019287109375</LongitudeDegrees>
            </Position>
            <AltitudeMeters>147</AltitudeMeters>
            <DistanceMeters>NAN</DistanceMeters>
          </Trackpoint>
          <Trackpoint>
            <Time>2022-07-13T07:30:26.000Z</Time>
            <Position>
              <LatitudeDegrees>43.3934216760098934173583984375</LatitudeDegrees>
              <LongitudeDegrees>-3.344104103744029998779296875</LongitudeDegrees>
            </Position>
            <AltitudeMeters>147.1999969482421875</AltitudeMeters>
            <DistanceMeters>NAN</DistanceMeters>
          </Trackpoint>
          <Trackpoint>
            <Time>2022-07-13T07:30:32.000Z</Time>
            <Position>
              <LatitudeDegrees>43.3935510925948619842529296875</LatitudeDegrees>
              <LongitudeDegrees>-3.344291858375072479248046875</LongitudeDegrees>
            </Position>
            <AltitudeMeters>147.600006103515625</AltitudeMeters>
            <DistanceMeters>NAN</DistanceMeters>
          </Trackpoint>
          <Trackpoint>
            <Time>2022-07-13T07:30:38.000Z</Time>
            <Position>
              <LatitudeDegrees>43.393668271601200103759765625</LatitudeDegrees>
              <LongitudeDegrees>-3.34447701461613178253173828125</LongitudeDegrees>
            </Position>
            <AltitudeMeters>148</AltitudeMeters>
            <DistanceMeters>NAN</DistanceMeters>
          </Trackpoint>
          <Trackpoint>
            <Time>2022-07-13T07:30:43.000Z</Time>
            <Position>
              <LatitudeDegrees>43.3937324769794940948486328125</LatitudeDegrees>
              <LongitudeDegrees>-3.34464381448924541473388671875</LongitudeDegrees>
            </Position>
            <AltitudeMeters>148.1999969482421875</AltitudeMeters>
            <DistanceMeters>NAN</DistanceMeters>
          </Trackpoint>
          <Trackpoint>
            <Time>2022-07-13T07:30:44.000Z</Time>
            <Position>
              <LatitudeDegrees>43.3937438763678073883056640625</LatitudeDegrees>
              <LongitudeDegrees>-3.344686813652515411376953125</LongitudeDegrees>
            </Position>
            <AltitudeMeters>148.1999969482421875</AltitudeMeters>
            <DistanceMeters>NAN</DistanceMeters>
          </Trackpoint>
          <Trackpoint>
            <Time>2022-07-13T07:30:51.000Z</Time>
            <Position>
              <LatitudeDegrees>43.39377145282924175262451171875</LatitudeDegrees>
              <LongitudeDegrees>-3.34498361684381961822509765625</LongitudeDegrees>
            </Position>
            <AltitudeMeters>148.600006103515625</AltitudeMeters>
            <DistanceMeters>NAN</DistanceMeters>
          </Trackpoint>
          <Trackpoint>
            <Time>2022-07-13T07:30:59.000Z</Time>
            <Position>
              <LatitudeDegrees>43.3937401883304119110107421875</LatitudeDegrees>
              <LongitudeDegrees>-3.34534973837435245513916015625</LongitudeDegrees>
            </Position>
            <AltitudeMeters>148.8000030517578125</AltitudeMeters>
            <DistanceMeters>NAN</DistanceMeters>
          </Trackpoint>
          <Trackpoint>
            <Time>2022-07-13T07:31:06.000Z</Time>
            <Position>
              <LatitudeDegrees>43.39364890940487384796142578125</LatitudeDegrees>
              <LongitudeDegrees>-3.3456582762300968170166015625</LongitudeDegrees>
            </Position>
            <AltitudeMeters>149</AltitudeMeters>
            <DistanceMeters>NAN</DistanceMeters>
          </Trackpoint>
          <Trackpoint>
            <Time>2022-07-13T07:31:12.000Z</Time>
            <Position>
              <LatitudeDegrees>43.393524773418903350830078125</LatitudeDegrees>
              <LongitudeDegrees>-3.3458961546421051025390625</LongitudeDegrees>
            </Position>
            <AltitudeMeters>149</AltitudeMeters>
            <DistanceMeters>NAN</DistanceMeters>
          </Trackpoint>
          <Trackpoint>
            <Time>2022-07-13T07:31:19.000Z</Time>
            <Position>
              <LatitudeDegrees>43.393376581370830535888671875</LatitudeDegrees>
              <LongitudeDegrees>-3.3462336100637912750244140625</LongitudeDegrees>
            </Position>
            <AltitudeMeters>149</AltitudeMeters>
            <DistanceMeters>NAN</DistanceMeters>
          </Trackpoint>
          <Trackpoint>
            <Time>2022-07-13T07:31:22.000Z</Time>
            <Position>
              <LatitudeDegrees>43.3933259546756744384765625</LatitudeDegrees>
              <LongitudeDegrees>-3.34636143408715724945068359375</LongitudeDegrees>
            </Position>
            <AltitudeMeters>149.1999969482421875</AltitudeMeters>
            <DistanceMeters>NAN</DistanceMeters>
          </Trackpoint>
          <Trackpoint>
            <Time>2022-07-13T07:31:23.000Z</Time>
            <Position>
              <LatitudeDegrees>43.39331245981156826019287109375</LatitudeDegrees>
              <LongitudeDegrees>-3.34640317596495151519775390625</LongitudeDegrees>
            </Position>
            <AltitudeMeters>149.1999969482421875</AltitudeMeters>
            <DistanceMeters>NAN</DistanceMeters>
          </Trackpoint>
          <Trackpoint>
            <Time>2022-07-13T07:31:29.000Z</Time>
            <Position>
              <LatitudeDegrees>43.3931958675384521484375</LatitudeDegrees>
              <LongitudeDegrees>-3.34663443267345428466796875</LongitudeDegrees>
            </Position>
            <AltitudeMeters>149.399993896484375</AltitudeMeters>
            <DistanceMeters>NAN</DistanceMeters>
          </Trackpoint>
          <Trackpoint>
            <Time>2022-07-13T07:31:33.000Z</Time>
            <Position>
              <LatitudeDegrees>43.39311984367668628692626953125</LatitudeDegrees>
              <LongitudeDegrees>-3.34678958170115947723388671875</LongitudeDegrees>
            </Position>
            <AltitudeMeters>149.399993896484375</AltitudeMeters>
            <DistanceMeters>NAN</DistanceMeters>
          </Trackpoint>
          <Trackpoint>
            <Time>2022-07-13T07:31:35.000Z</Time>
            <Position>
              <LatitudeDegrees>43.3930813707411289215087890625</LatitudeDegrees>
              <LongitudeDegrees>-3.34686577320098876953125</LongitudeDegrees>
            </Position>
            <AltitudeMeters>149.600006103515625</AltitudeMeters>
            <DistanceMeters>NAN</DistanceMeters>
          </Trackpoint>
          <Trackpoint>
            <Time>2022-07-13T07:31:42.000Z</Time>
            <Position>
              <LatitudeDegrees>43.39293879456818103790283203125</LatitudeDegrees>
              <LongitudeDegrees>-3.3471110276877880096435546875</LongitudeDegrees>
            </Position>
            <AltitudeMeters>149.399993896484375</AltitudeMeters>
            <DistanceMeters>NAN</DistanceMeters>
          </Trackpoint>
          <Trackpoint>
            <Time>2022-07-13T07:31:43.000Z</Time>
            <Position>
              <LatitudeDegrees>43.3929209411144256591796875</LatitudeDegrees>
              <LongitudeDegrees>-3.34714941680431365966796875</LongitudeDegrees>
            </Position>
            <AltitudeMeters>149.399993896484375</AltitudeMeters>
            <DistanceMeters>NAN</DistanceMeters>
          </Trackpoint>
          <Trackpoint>
            <Time>2022-07-13T07:31:46.000Z</Time>
            <Position>
              <LatitudeDegrees>43.39286394417285919189453125</LatitudeDegrees>
              <LongitudeDegrees>-3.3472548611462116241455078125</LongitudeDegrees>
            </Position>
            <AltitudeMeters>149.600006103515625</AltitudeMeters>
            <DistanceMeters>NAN</DistanceMeters>
          </Trackpoint>
          <Trackpoint>
            <Time>2022-07-13T07:31:49.000Z</Time>
            <Position>
              <LatitudeDegrees>43.3928044326603412628173828125</LatitudeDegrees>
              <LongitudeDegrees>-3.34733541123569011688232421875</LongitudeDegrees>
            </Position>
            <AltitudeMeters>149.600006103515625</AltitudeMeters>
            <DistanceMeters>NAN</DistanceMeters>
          </Trackpoint>
          <Trackpoint>
            <Time>2022-07-13T07:31:51.000Z</Time>
            <Position>
              <LatitudeDegrees>43.39276134967803955078125</LatitudeDegrees>
              <LongitudeDegrees>-3.34738637320697307586669921875</LongitudeDegrees>
            </Position>
            <AltitudeMeters>149.399993896484375</AltitudeMeters>
            <DistanceMeters>NAN</DistanceMeters>
          </Trackpoint>
          <Trackpoint>
            <Time>2022-07-13T07:31:53.000Z</Time>
            <Position>
              <LatitudeDegrees>43.39271105825901031494140625</LatitudeDegrees>
              <LongitudeDegrees>-3.34744186140596866607666015625</LongitudeDegrees>
            </Position>
            <AltitudeMeters>149.1999969482421875</AltitudeMeters>
            <DistanceMeters>NAN</DistanceMeters>
          </Trackpoint>
          <Trackpoint>
            <Time>2022-07-13T07:32:02.000Z</Time>
            <Position>
              <LatitudeDegrees>43.392581641674041748046875</LatitudeDegrees>
              <LongitudeDegrees>-3.34784385748207569122314453125</LongitudeDegrees>
            </Position>
            <AltitudeMeters>149.8000030517578125</AltitudeMeters>
            <DistanceMeters>NAN</DistanceMeters>
          </Trackpoint>
          <Trackpoint>
            <Time>2022-07-13T07:32:07.000Z</Time>
            <Position>
              <LatitudeDegrees>43.39250721037387847900390625</LatitudeDegrees>
              <LongitudeDegrees>-3.3480511419475078582763671875</LongitudeDegrees>
            </Position>
            <AltitudeMeters>150</AltitudeMeters>
            <DistanceMeters>NAN</DistanceMeters>
          </Trackpoint>
          <Trackpoint>
            <Time>2022-07-13T07:32:10.000Z</Time>
            <Position>
              <LatitudeDegrees>43.3924507163465023040771484375</LatitudeDegrees>
              <LongitudeDegrees>-3.34813646972179412841796875</LongitudeDegrees>
            </Position>
            <AltitudeMeters>150.1999969482421875</AltitudeMeters>
            <DistanceMeters>NAN</DistanceMeters>
          </Trackpoint>
          <Trackpoint>
            <Time>2022-07-13T07:32:14.000Z</Time>
            <Position>
              <LatitudeDegrees>43.39238382875919342041015625</LatitudeDegrees>
              <LongitudeDegrees>-3.34828608669340610504150390625</LongitudeDegrees>
            </Position>
            <AltitudeMeters>150.1999969482421875</AltitudeMeters>
            <DistanceMeters>NAN</DistanceMeters>
          </Trackpoint>
          <Trackpoint>
            <Time>2022-07-13T07:32:16.000Z</Time>
            <Position>
              <LatitudeDegrees>43.3923442661762237548828125</LatitudeDegrees>
              <LongitudeDegrees>-3.34836387075483798980712890625</LongitudeDegrees>
            </Position>
            <AltitudeMeters>150.1999969482421875</AltitudeMeters>
            <DistanceMeters>NAN</DistanceMeters>
          </Trackpoint>
          <Trackpoint>
            <Time>2022-07-13T07:32:19.000Z</Time>
            <Position>
              <LatitudeDegrees>43.392274864017963409423828125</LatitudeDegrees>
              <LongitudeDegrees>-3.34848490543663501739501953125</LongitudeDegrees>
            </Position>
            <AltitudeMeters>150.1999969482421875</AltitudeMeters>
            <DistanceMeters>NAN</DistanceMeters>
          </Trackpoint>
          <Trackpoint>
            <Time>2022-07-13T07:32:26.000Z</Time>
            <Position>
              <LatitudeDegrees>43.3920679986476898193359375</LatitudeDegrees>
              <LongitudeDegrees>-3.34870652295649051666259765625</LongitudeDegrees>
            </Position>
            <AltitudeMeters>150.1999969482421875</AltitudeMeters>
            <DistanceMeters>NAN</DistanceMeters>
          </Trackpoint>
          <Trackpoint>
            <Time>2022-07-13T07:32:30.000Z</Time>
            <Position>
              <LatitudeDegrees>43.391945622861385345458984375</LatitudeDegrees>
              <LongitudeDegrees>-3.3488326705992221832275390625</LongitudeDegrees>
            </Position>
            <AltitudeMeters>150</AltitudeMeters>
            <DistanceMeters>NAN</DistanceMeters>
          </Trackpoint>
          <Trackpoint>
            <Time>2022-07-13T07:32:33.000Z</Time>
            <Position>
              <LatitudeDegrees>43.39185534976422786712646484375</LatitudeDegrees>
              <LongitudeDegrees>-3.34893442690372467041015625</LongitudeDegrees>
            </Position>
            <AltitudeMeters>150</AltitudeMeters>
            <DistanceMeters>NAN</DistanceMeters>
          </Trackpoint>
          <Trackpoint>
            <Time>2022-07-13T07:32:39.000Z</Time>
            <Position>
              <LatitudeDegrees>43.3916805870831012725830078125</LatitudeDegrees>
              <LongitudeDegrees>-3.3491669408977031707763671875</LongitudeDegrees>
            </Position>
            <AltitudeMeters>149.8000030517578125</AltitudeMeters>
            <DistanceMeters>NAN</DistanceMeters>
          </Trackpoint>
          <Trackpoint>
            <Time>2022-07-13T07:32:40.000Z</Time>
            <Position>
              <LatitudeDegrees>43.39165032841265201568603515625</LatitudeDegrees>
              <LongitudeDegrees>-3.34920239634811878204345703125</LongitudeDegrees>
            </Position>
            <AltitudeMeters>149.8000030517578125</AltitudeMeters>
            <DistanceMeters>NAN</DistanceMeters>
          </Trackpoint>
          <Trackpoint>
            <Time>2022-07-13T07:32:43.000Z</Time>
            <Position>
              <LatitudeDegrees>43.39156701229512691497802734375</LatitudeDegrees>
              <LongitudeDegrees>-3.349294848740100860595703125</LongitudeDegrees>
            </Position>
            <AltitudeMeters>149.8000030517578125</AltitudeMeters>
            <DistanceMeters>NAN</DistanceMeters>
          </Trackpoint>
          <Trackpoint>
            <Time>2022-07-13T07:32:48.000Z</Time>
            <Position>
              <LatitudeDegrees>43.391408510506153106689453125</LatitudeDegrees>
              <LongitudeDegrees>-3.3494321443140506744384765625</LongitudeDegrees>
            </Position>
            <AltitudeMeters>149.8000030517578125</AltitudeMeters>
            <DistanceMeters>NAN</DistanceMeters>
          </Trackpoint>
          <Trackpoint>
            <Time>2022-07-13T07:32:55.000Z</Time>
            <Position>
              <LatitudeDegrees>43.391206003725528717041015625</LatitudeDegrees>
              <LongitudeDegrees>-3.3496859483420848846435546875</LongitudeDegrees>
            </Position>
            <AltitudeMeters>149.600006103515625</AltitudeMeters>
            <DistanceMeters>NAN</DistanceMeters>
          </Trackpoint>
          <Trackpoint>
            <Time>2022-07-13T07:33:00.000Z</Time>
            <Position>
              <LatitudeDegrees>43.39109226129949092864990234375</LatitudeDegrees>
              <LongitudeDegrees>-3.34992910735309123992919921875</LongitudeDegrees>
            </Position>
            <AltitudeMeters>149.399993896484375</AltitudeMeters>
            <DistanceMeters>NAN</DistanceMeters>
          </Trackpoint>
          <Trackpoint>
            <Time>2022-07-13T07:33:08.000Z</Time>
            <Position>
              <LatitudeDegrees>43.39098078198730945587158203125</LatitudeDegrees>
              <LongitudeDegrees>-3.35037636570632457733154296875</LongitudeDegrees>
            </Position>
            <AltitudeMeters>149.1999969482421875</AltitudeMeters>
            <DistanceMeters>NAN</DistanceMeters>
          </Trackpoint>
          <Trackpoint>
            <Time>2022-07-13T07:33:15.000Z</Time>
            <Position>
              <LatitudeDegrees>43.39093753136694431304931640625</LatitudeDegrees>
              <LongitudeDegrees>-3.35074701346457004547119140625</LongitudeDegrees>
            </Position>
            <AltitudeMeters>149.399993896484375</AltitudeMeters>
            <DistanceMeters>NAN</DistanceMeters>
          </Trackpoint>
          <Trackpoint>
            <Time>2022-07-13T07:33:24.000Z</Time>
            <Position>
              <LatitudeDegrees>43.39095178060233592987060546875</LatitudeDegrees>
              <LongitudeDegrees>-3.35120500065386295318603515625</LongitudeDegrees>
            </Position>
            <AltitudeMeters>149.399993896484375</AltitudeMeters>
            <DistanceMeters>NAN</DistanceMeters>
          </Trackpoint>
          <Trackpoint>
            <Time>2022-07-13T07:33:33.000Z</Time>
            <Position>
              <LatitudeDegrees>43.39097424410283565521240234375</LatitudeDegrees>
              <LongitudeDegrees>-3.3516624011099338531494140625</LongitudeDegrees>
            </Position>
            <AltitudeMeters>149.600006103515625</AltitudeMeters>
            <DistanceMeters>NAN</DistanceMeters>
          </Trackpoint>
          <Trackpoint>
            <Time>2022-07-13T07:33:41.000Z</Time>
            <Position>
              <LatitudeDegrees>43.3909889124333858489990234375</LatitudeDegrees>
              <LongitudeDegrees>-3.35207252763211727142333984375</LongitudeDegrees>
            </Position>
            <AltitudeMeters>149.8000030517578125</AltitudeMeters>
            <DistanceMeters>NAN</DistanceMeters>
          </Trackpoint>
          <Trackpoint>
            <Time>2022-07-13T07:33:48.000Z</Time>
            <Position>
              <LatitudeDegrees>43.3910730667412281036376953125</LatitudeDegrees>
              <LongitudeDegrees>-3.35246765054762363433837890625</LongitudeDegrees>
            </Position>
            <AltitudeMeters>149.399993896484375</AltitudeMeters>
            <DistanceMeters>NAN</DistanceMeters>
          </Trackpoint>
          <Trackpoint>
            <Time>2022-07-13T07:33:50.000Z</Time>
            <Position>
              <LatitudeDegrees>43.39111648499965667724609375</LatitudeDegrees>
              <LongitudeDegrees>-3.35259270854294300079345703125</LongitudeDegrees>
            </Position>
            <AltitudeMeters>149.1999969482421875</AltitudeMeters>
            <DistanceMeters>NAN</DistanceMeters>
          </Trackpoint>
          <Trackpoint>
            <Time>2022-07-13T07:33:53.000Z</Time>
            <Position>
              <LatitudeDegrees>43.39120876975357532501220703125</LatitudeDegrees>
              <LongitudeDegrees>-3.35278783924877643585205078125</LongitudeDegrees>
            </Position>
            <AltitudeMeters>149</AltitudeMeters>
            <DistanceMeters>NAN</DistanceMeters>
          </Trackpoint>
          <Trackpoint>
            <Time>2022-07-13T07:33:58.000Z</Time>
            <Position>
              <LatitudeDegrees>43.3914549462497234344482421875</LatitudeDegrees>
              <LongitudeDegrees>-3.3531439863145351409912109375</LongitudeDegrees>
            </Position>
            <AltitudeMeters>147.8000030517578125</AltitudeMeters>
            <DistanceMeters>NAN</DistanceMeters>
          </Trackpoint>
          <Trackpoint>
            <Time>2022-07-13T07:34:01.000Z</Time>
            <Position>
              <LatitudeDegrees>43.39163289405405521392822265625</LatitudeDegrees>
              <LongitudeDegrees>-3.3533803559839725494384765625</LongitudeDegrees>
            </Position>
            <AltitudeMeters>146.600006103515625</AltitudeMeters>
            <DistanceMeters>NAN</DistanceMeters>
          </Trackpoint>
          <Trackpoint>
            <Time>2022-07-13T07:34:04.000Z</Time>
            <Position>
              <LatitudeDegrees>43.3918391726911067962646484375</LatitudeDegrees>
              <LongitudeDegrees>-3.35364832542836666107177734375</LongitudeDegrees>
            </Position>
            <AltitudeMeters>145.399993896484375</AltitudeMeters>
            <DistanceMeters>NAN</DistanceMeters>
          </Trackpoint>
          <Trackpoint>
            <Time>2022-07-13T07:34:05.000Z</Time>
            <Position>
              <LatitudeDegrees>43.391911424696445465087890625</LatitudeDegrees>
              <LongitudeDegrees>-3.3537335693836212158203125</LongitudeDegrees>
            </Position>
            <AltitudeMeters>145</AltitudeMeters>
            <DistanceMeters>NAN</DistanceMeters>
          </Trackpoint>
          <Trackpoint>
            <Time>2022-07-13T07:34:07.000Z</Time>
            <Position>
              <LatitudeDegrees>43.39205970056354999542236328125</LatitudeDegrees>
              <LongitudeDegrees>-3.3539208211004734039306640625</LongitudeDegrees>
            </Position>
            <AltitudeMeters>143.8000030517578125</AltitudeMeters>
            <DistanceMeters>NAN</DistanceMeters>
          </Trackpoint>
          <Trackpoint>
            <Time>2022-07-13T07:34:08.000Z</Time>
            <Position>
              <LatitudeDegrees>43.39213379658758640289306640625</LatitudeDegrees>
              <LongitudeDegrees>-3.35402048192918300628662109375</LongitudeDegrees>
            </Position>
            <AltitudeMeters>142.399993896484375</AltitudeMeters>
            <DistanceMeters>NAN</DistanceMeters>
          </Trackpoint>
          <Trackpoint>
            <Time>2022-07-13T07:34:09.000Z</Time>
            <Position>
              <LatitudeDegrees>43.3922153525054454803466796875</LatitudeDegrees>
              <LongitudeDegrees>-3.35411821492016315460205078125</LongitudeDegrees>
            </Position>
            <AltitudeMeters>140.600006103515625</AltitudeMeters>
            <DistanceMeters>NAN</DistanceMeters>
          </Trackpoint>
          <Trackpoint>
            <Time>2022-07-13T07:34:11.000Z</Time>
            <Position>
              <LatitudeDegrees>43.39238709770143032073974609375</LatitudeDegrees>
              <LongitudeDegrees>-3.3543161116540431976318359375</LongitudeDegrees>
            </Position>
            <AltitudeMeters>139.399993896484375</AltitudeMeters>
            <DistanceMeters>NAN</DistanceMeters>
          </Trackpoint>
          <Trackpoint>
            <Time>2022-07-13T07:34:13.000Z</Time>
            <Position>
              <LatitudeDegrees>43.3925720863044261932373046875</LatitudeDegrees>
              <LongitudeDegrees>-3.3545216359198093414306640625</LongitudeDegrees>
            </Position>
            <AltitudeMeters>139.600006103515625</AltitudeMeters>
            <DistanceMeters>NAN</DistanceMeters>
          </Trackpoint>
          <Trackpoint>
            <Time>2022-07-13T07:34:15.000Z</Time>
            <Position>
              <LatitudeDegrees>43.39276813901960849761962890625</LatitudeDegrees>
              <LongitudeDegrees>-3.35473537445068359375</LongitudeDegrees>
            </Position>
            <AltitudeMeters>137.399993896484375</AltitudeMeters>
            <DistanceMeters>NAN</DistanceMeters>
          </Trackpoint>
          <Trackpoint>
            <Time>2022-07-13T07:34:17.000Z</Time>
            <Position>
              <LatitudeDegrees>43.392970226705074310302734375</LatitudeDegrees>
              <LongitudeDegrees>-3.3549028448760509490966796875</LongitudeDegrees>
            </Position>
            <AltitudeMeters>136</AltitudeMeters>
            <DistanceMeters>NAN</DistanceMeters>
          </Trackpoint>
          <Trackpoint>
            <Time>2022-07-13T07:34:20.000Z</Time>
            <Position>
              <LatitudeDegrees>43.39328362606465816497802734375</LatitudeDegrees>
              <LongitudeDegrees>-3.3551184274256229400634765625</LongitudeDegrees>
            </Position>
            <AltitudeMeters>134.399993896484375</AltitudeMeters>
            <DistanceMeters>NAN</DistanceMeters>
          </Trackpoint>
          <Trackpoint>
            <Time>2022-07-13T07:34:21.000Z</Time>
            <Position>
              <LatitudeDegrees>43.393393345177173614501953125</LatitudeDegrees>
              <LongitudeDegrees>-3.35516989231109619140625</LongitudeDegrees>
            </Position>
            <AltitudeMeters>133.600006103515625</AltitudeMeters>
            <DistanceMeters>NAN</DistanceMeters>
          </Trackpoint>
          <Trackpoint>
            <Time>2022-07-13T07:34:22.000Z</Time>
            <Position>
              <LatitudeDegrees>43.3935108594596385955810546875</LatitudeDegrees>
              <LongitudeDegrees>-3.3552277274429798126220703125</LongitudeDegrees>
            </Position>
            <AltitudeMeters>132.8000030517578125</AltitudeMeters>
            <DistanceMeters>NAN</DistanceMeters>
          </Trackpoint>
          <Trackpoint>
            <Time>2022-07-13T07:34:24.000Z</Time>
            <Position>
              <LatitudeDegrees>43.39375670067965984344482421875</LatitudeDegrees>
              <LongitudeDegrees>-3.35534985177218914031982421875</LongitudeDegrees>
            </Position>
            <AltitudeMeters>131</AltitudeMeters>
            <DistanceMeters>NAN</DistanceMeters>
          </Trackpoint>
          <Trackpoint>
            <Time>2022-07-13T07:34:26.000Z</Time>
            <Position>
              <LatitudeDegrees>43.3940260112285614013671875</LatitudeDegrees>
              <LongitudeDegrees>-3.355452530086040496826171875</LongitudeDegrees>
            </Position>
            <AltitudeMeters>128.8000030517578125</AltitudeMeters>
            <DistanceMeters>NAN</DistanceMeters>
          </Trackpoint>
          <Trackpoint>
            <Time>2022-07-13T07:34:27.000Z</Time>
            <Position>
              <LatitudeDegrees>43.394162468612194061279296875</LatitudeDegrees>
              <LongitudeDegrees>-3.3554770052433013916015625</LongitudeDegrees>
            </Position>
            <AltitudeMeters>127.1999969482421875</AltitudeMeters>
            <DistanceMeters>NAN</DistanceMeters>
          </Trackpoint>
          <Trackpoint>
            <Time>2022-07-13T07:34:29.000Z</Time>
            <Position>
              <LatitudeDegrees>43.394424654543399810791015625</LatitudeDegrees>
              <LongitudeDegrees>-3.35550206713378429412841796875</LongitudeDegrees>
            </Position>
            <AltitudeMeters>125.8000030517578125</AltitudeMeters>
            <DistanceMeters>NAN</DistanceMeters>
          </Trackpoint>
          <Trackpoint>
            <Time>2022-07-13T07:34:31.000Z</Time>
            <Position>
              <LatitudeDegrees>43.39469161815941333770751953125</LatitudeDegrees>
              <LongitudeDegrees>-3.35549402050673961639404296875</LongitudeDegrees>
            </Position>
            <AltitudeMeters>124.59999847412109375</AltitudeMeters>
            <DistanceMeters>NAN</DistanceMeters>
          </Trackpoint>
          <Trackpoint>
            <Time>2022-07-13T07:34:32.000Z</Time>
            <Position>
              <LatitudeDegrees>43.39482891373336315155029296875</LatitudeDegrees>
              <LongitudeDegrees>-3.35553324781358242034912109375</LongitudeDegrees>
            </Position>
            <AltitudeMeters>123.59999847412109375</AltitudeMeters>
            <DistanceMeters>NAN</DistanceMeters>
          </Trackpoint>
          <Trackpoint>
            <Time>2022-07-13T07:34:34.000Z</Time>
            <Position>
              <LatitudeDegrees>43.39509956538677215576171875</LatitudeDegrees>
              <LongitudeDegrees>-3.3556431345641613006591796875</LongitudeDegrees>
            </Position>
            <AltitudeMeters>121.8000030517578125</AltitudeMeters>
            <DistanceMeters>NAN</DistanceMeters>
          </Trackpoint>
          <Trackpoint>
            <Time>2022-07-13T07:34:35.000Z</Time>
            <Position>
              <LatitudeDegrees>43.39523007161915302276611328125</LatitudeDegrees>
              <LongitudeDegrees>-3.35570222698152065277099609375</LongitudeDegrees>
            </Position>
            <AltitudeMeters>120.40000152587890625</AltitudeMeters>
            <DistanceMeters>NAN</DistanceMeters>
          </Trackpoint>
          <Trackpoint>
            <Time>2022-07-13T07:34:36.000Z</Time>
            <Position>
              <LatitudeDegrees>43.3953589014708995819091796875</LatitudeDegrees>
              <LongitudeDegrees>-3.35577062331140041351318359375</LongitudeDegrees>
            </Position>
            <AltitudeMeters>119.40000152587890625</AltitudeMeters>
            <DistanceMeters>NAN</DistanceMeters>
          </Trackpoint>
          <Trackpoint>
            <Time>2022-07-13T07:34:37.000Z</Time>
            <Position>
              <LatitudeDegrees>43.39551128447055816650390625</LatitudeDegrees>
              <LongitudeDegrees>-3.35587439127266407012939453125</LongitudeDegrees>
            </Position>
            <AltitudeMeters>118</AltitudeMeters>
            <DistanceMeters>NAN</DistanceMeters>
          </Trackpoint>
          <Trackpoint>
            <Time>2022-07-13T07:34:38.000Z</Time>
            <Position>
              <LatitudeDegrees>43.39560876600444316864013671875</LatitudeDegrees>
              <LongitudeDegrees>-3.35595737211406230926513671875</LongitudeDegrees>
            </Position>
            <AltitudeMeters>117</AltitudeMeters>
            <DistanceMeters>NAN</DistanceMeters>
          </Trackpoint>
          <Trackpoint>
            <Time>2022-07-13T07:34:39.000Z</Time>
            <Position>
              <LatitudeDegrees>43.39572611264884471893310546875</LatitudeDegrees>
              <LongitudeDegrees>-3.35605979897081851959228515625</LongitudeDegrees>
            </Position>
            <AltitudeMeters>115.8000030517578125</AltitudeMeters>
            <DistanceMeters>NAN</DistanceMeters>
          </Trackpoint>
          <Trackpoint>
            <Time>2022-07-13T07:34:41.000Z</Time>
            <Position>
              <LatitudeDegrees>43.3959518373012542724609375</LatitudeDegrees>
              <LongitudeDegrees>-3.356255181133747100830078125</LongitudeDegrees>
            </Position>
            <AltitudeMeters>113.8000030517578125</AltitudeMeters>
            <DistanceMeters>NAN</DistanceMeters>
          </Trackpoint>
          <Trackpoint>
            <Time>2022-07-13T07:34:42.000Z</Time>
            <Position>
              <LatitudeDegrees>43.39608200825750827789306640625</LatitudeDegrees>
              <LongitudeDegrees>-3.35636976175010204315185546875</LongitudeDegrees>
            </Position>
            <AltitudeMeters>112.40000152587890625</AltitudeMeters>
            <DistanceMeters>NAN</DistanceMeters>
          </Trackpoint>
          <Trackpoint>
            <Time>2022-07-13T07:34:43.000Z</Time>
            <Position>
              <LatitudeDegrees>43.396167755126953125</LatitudeDegrees>
              <LongitudeDegrees>-3.3564488030970096588134765625</LongitudeDegrees>
            </Position>
            <AltitudeMeters>111.40000152587890625</AltitudeMeters>
            <DistanceMeters>NAN</DistanceMeters>
          </Trackpoint>
          <Trackpoint>
            <Time>2022-07-13T07:34:44.000Z</Time>
            <Position>
              <LatitudeDegrees>43.39626892469823360443115234375</LatitudeDegrees>
              <LongitudeDegrees>-3.35654527880251407623291015625</LongitudeDegrees>
            </Position>
            <AltitudeMeters>110.1999969482421875</AltitudeMeters>
            <DistanceMeters>NAN</DistanceMeters>
          </Trackpoint>
          <Trackpoint>
            <Time>2022-07-13T07:34:45.000Z</Time>
            <Position>
              <LatitudeDegrees>43.39636330492794513702392578125</LatitudeDegrees>
              <LongitudeDegrees>-3.356639407575130462646484375</LongitudeDegrees>
            </Position>
            <AltitudeMeters>109</AltitudeMeters>
            <DistanceMeters>NAN</DistanceMeters>
          </Trackpoint>
          <Trackpoint>
            <Time>2022-07-13T07:34:47.000Z</Time>
            <Position>
              <LatitudeDegrees>43.3965337090194225311279296875</LatitudeDegrees>
              <LongitudeDegrees>-3.35683428682386875152587890625</LongitudeDegrees>
            </Position>
            <AltitudeMeters>107.40000152587890625</AltitudeMeters>
            <DistanceMeters>NAN</DistanceMeters>
          </Trackpoint>
          <Trackpoint>
            <Time>2022-07-13T07:34:49.000Z</Time>
            <Position>
              <LatitudeDegrees>43.396693132817745208740234375</LatitudeDegrees>
              <LongitudeDegrees>-3.357018940150737762451171875</LongitudeDegrees>
            </Position>
            <AltitudeMeters>105.40000152587890625</AltitudeMeters>
            <DistanceMeters>NAN</DistanceMeters>
          </Trackpoint>
          <Trackpoint>
            <Time>2022-07-13T07:34:51.000Z</Time>
            <Position>
              <LatitudeDegrees>43.39683621190488338470458984375</LatitudeDegrees>
              <LongitudeDegrees>-3.35717291571199893951416015625</LongitudeDegrees>
            </Position>
            <AltitudeMeters>103.59999847412109375</AltitudeMeters>
            <DistanceMeters>NAN</DistanceMeters>
          </Trackpoint>
          <Trackpoint>
            <Time>2022-07-13T07:34:53.000Z</Time>
            <Position>
              <LatitudeDegrees>43.39694894850254058837890625</LatitudeDegrees>
              <LongitudeDegrees>-3.357323370873928070068359375</LongitudeDegrees>
            </Position>
            <AltitudeMeters>101.59999847412109375</AltitudeMeters>
            <DistanceMeters>NAN</DistanceMeters>
          </Trackpoint>
          <Trackpoint>
            <Time>2022-07-13T07:34:55.000Z</Time>
            <Position>
              <LatitudeDegrees>43.39705849997699260711669921875</LatitudeDegrees>
              <LongitudeDegrees>-3.3574623428285121917724609375</LongitudeDegrees>
            </Position>
            <AltitudeMeters>100.40000152587890625</AltitudeMeters>
            <DistanceMeters>NAN</DistanceMeters>
          </Trackpoint>
          <Trackpoint>
            <Time>2022-07-13T07:34:57.000Z</Time>
            <Position>
              <LatitudeDegrees>43.39713175781071186065673828125</LatitudeDegrees>
              <LongitudeDegrees>-3.3575578965246677398681640625</LongitudeDegrees>
            </Position>
            <AltitudeMeters>99.1999969482421875</AltitudeMeters>
            <DistanceMeters>NAN</DistanceMeters>
          </Trackpoint>
          <Trackpoint>
            <Time>2022-07-13T07:34:58.000Z</Time>
            <Position>
              <LatitudeDegrees>43.39716830290853977203369140625</LatitudeDegrees>
              <LongitudeDegrees>-3.357600308954715728759765625</LongitudeDegrees>
            </Position>
            <AltitudeMeters>98.59999847412109375</AltitudeMeters>
            <DistanceMeters>NAN</DistanceMeters>
          </Trackpoint>
          <Trackpoint>
            <Time>2022-07-13T07:34:59.000Z</Time>
            <Position>
              <LatitudeDegrees>43.39719839394092559814453125</LatitudeDegrees>
              <LongitudeDegrees>-3.3576360158622264862060546875</LongitudeDegrees>
            </Position>
            <AltitudeMeters>98</AltitudeMeters>
            <DistanceMeters>NAN</DistanceMeters>
          </Trackpoint>
          <Trackpoint>
            <Time>2022-07-13T07:35:00.000Z</Time>
            <Position>
              <LatitudeDegrees>43.3972210250794887542724609375</LatitudeDegrees>
              <LongitudeDegrees>-3.35766795091331005096435546875</LongitudeDegrees>
            </Position>
            <AltitudeMeters>97.59999847412109375</AltitudeMeters>
            <DistanceMeters>NAN</DistanceMeters>
          </Trackpoint>
          <Trackpoint>
            <Time>2022-07-13T07:35:01.000Z</Time>
            <Position>
              <LatitudeDegrees>43.397238962352275848388671875</LatitudeDegrees>
              <LongitudeDegrees>-3.35769594646990299224853515625</LongitudeDegrees>
            </Position>
            <AltitudeMeters>97.1999969482421875</AltitudeMeters>
            <DistanceMeters>NAN</DistanceMeters>
          </Trackpoint>
          <Trackpoint>
            <Time>2022-07-13T07:35:03.000Z</Time>
            <Position>
              <LatitudeDegrees>43.3972582407295703887939453125</LatitudeDegrees>
              <LongitudeDegrees>-3.3577434718608856201171875</LongitudeDegrees>
            </Position>
            <AltitudeMeters>96.8000030517578125</AltitudeMeters>
            <DistanceMeters>NAN</DistanceMeters>
          </Trackpoint>
          <Trackpoint>
            <Time>2022-07-13T07:35:06.000Z</Time>
            <Position>
              <LatitudeDegrees>43.39727408252656459808349609375</LatitudeDegrees>
              <LongitudeDegrees>-3.35775814019143581390380859375</LongitudeDegrees>
            </Position>
            <AltitudeMeters>96.8000030517578125</AltitudeMeters>
            <DistanceMeters>NAN</DistanceMeters>
          </Trackpoint>
          <Trackpoint>
            <Time>2022-07-13T07:35:07.000Z</Time>
            <Position>
              <LatitudeDegrees>43.3972827158868312835693359375</LatitudeDegrees>
              <LongitudeDegrees>-3.3577490039169788360595703125</LongitudeDegrees>
            </Position>
            <AltitudeMeters>96.8000030517578125</AltitudeMeters>
            <DistanceMeters>NAN</DistanceMeters>
          </Trackpoint>
          <Trackpoint>
            <Time>2022-07-13T07:35:10.000Z</Time>
            <Position>
              <LatitudeDegrees>43.39732672087848186492919921875</LatitudeDegrees>
              <LongitudeDegrees>-3.3577144704759120941162109375</LongitudeDegrees>
            </Position>
            <AltitudeMeters>97.40000152587890625</AltitudeMeters>
            <DistanceMeters>NAN</DistanceMeters>
          </Trackpoint>
          <Trackpoint>
            <Time>2022-07-13T07:35:12.000Z</Time>
            <Position>
              <LatitudeDegrees>43.39734147302806377410888671875</LatitudeDegrees>
              <LongitudeDegrees>-3.35768354125320911407470703125</LongitudeDegrees>
            </Position>
            <AltitudeMeters>98</AltitudeMeters>
            <DistanceMeters>NAN</DistanceMeters>
          </Trackpoint>
          <Trackpoint>
            <Time>2022-07-13T07:35:13.000Z</Time>
            <Position>
              <LatitudeDegrees>43.3973574824631214141845703125</LatitudeDegrees>
              <LongitudeDegrees>-3.3576665259897708892822265625</LongitudeDegrees>
            </Position>
            <AltitudeMeters>98.1999969482421875</AltitudeMeters>
            <DistanceMeters>NAN</DistanceMeters>
          </Trackpoint>
          <Trackpoint>
            <Time>2022-07-13T07:35:17.000Z</Time>
            <Position>
              <LatitudeDegrees>43.397408612072467803955078125</LatitudeDegrees>
              <LongitudeDegrees>-3.35764355957508087158203125</LongitudeDegrees>
            </Position>
            <AltitudeMeters>99</AltitudeMeters>
            <DistanceMeters>NAN</DistanceMeters>
          </Trackpoint>
          <Trackpoint>
            <Time>2022-07-13T07:35:19.000Z</Time>
            <Position>
              <LatitudeDegrees>43.39745680801570415496826171875</LatitudeDegrees>
              <LongitudeDegrees>-3.35763744078576564788818359375</LongitudeDegrees>
            </Position>
            <AltitudeMeters>99.40000152587890625</AltitudeMeters>
            <DistanceMeters>NAN</DistanceMeters>
          </Trackpoint>
          <Trackpoint>
            <Time>2022-07-13T07:35:23.000Z</Time>
            <Position>
              <LatitudeDegrees>43.3975370228290557861328125</LatitudeDegrees>
              <LongitudeDegrees>-3.35765521042048931121826171875</LongitudeDegrees>
            </Position>
            <AltitudeMeters>100.1999969482421875</AltitudeMeters>
            <DistanceMeters>NAN</DistanceMeters>
          </Trackpoint>
          <Trackpoint>
            <Time>2022-07-13T07:35:25.000Z</Time>
            <Position>
              <LatitudeDegrees>43.39756694622337818145751953125</LatitudeDegrees>
              <LongitudeDegrees>-3.3576789312064647674560546875</LongitudeDegrees>
            </Position>
            <AltitudeMeters>100.40000152587890625</AltitudeMeters>
            <DistanceMeters>NAN</DistanceMeters>
          </Trackpoint>
          <Trackpoint>
            <Time>2022-07-13T07:35:31.000Z</Time>
            <Position>
              <LatitudeDegrees>43.39764053933322429656982421875</LatitudeDegrees>
              <LongitudeDegrees>-3.35776350460946559906005859375</LongitudeDegrees>
            </Position>
            <AltitudeMeters>101.40000152587890625</AltitudeMeters>
            <DistanceMeters>NAN</DistanceMeters>
          </Trackpoint>
          <Trackpoint>
            <Time>2022-07-13T07:35:33.000Z</Time>
            <Position>
              <LatitudeDegrees>43.397646658122539520263671875</LatitudeDegrees>
              <LongitudeDegrees>-3.35780038498342037200927734375</LongitudeDegrees>
            </Position>
            <AltitudeMeters>101.59999847412109375</AltitudeMeters>
            <DistanceMeters>NAN</DistanceMeters>
          </Trackpoint>
          <Trackpoint>
            <Time>2022-07-13T07:35:41.000Z</Time>
            <Position>
              <LatitudeDegrees>43.397693932056427001953125</LatitudeDegrees>
              <LongitudeDegrees>-3.35791940800845623016357421875</LongitudeDegrees>
            </Position>
            <AltitudeMeters>102.40000152587890625</AltitudeMeters>
            <DistanceMeters>NAN</DistanceMeters>
          </Trackpoint>
          <Trackpoint>
            <Time>2022-07-13T07:35:45.000Z</Time>
            <Position>
              <LatitudeDegrees>43.397749923169612884521484375</LatitudeDegrees>
              <LongitudeDegrees>-3.35792720317840576171875</LongitudeDegrees>
            </Position>
            <AltitudeMeters>103</AltitudeMeters>
            <DistanceMeters>NAN</DistanceMeters>
          </Trackpoint>
          <Trackpoint>
            <Time>2022-07-13T07:35:48.000Z</Time>
            <Position>
              <LatitudeDegrees>43.39776090346276760101318359375</LatitudeDegrees>
              <LongitudeDegrees>-3.35793432779610157012939453125</LongitudeDegrees>
            </Position>
            <AltitudeMeters>103.1999969482421875</AltitudeMeters>
            <DistanceMeters>NAN</DistanceMeters>
          </Trackpoint>
          <Trackpoint>
            <Time>2022-07-13T07:35:50.000Z</Time>
            <Position>
              <LatitudeDegrees>43.39776090346276760101318359375</LatitudeDegrees>
              <LongitudeDegrees>-3.35793432779610157012939453125</LongitudeDegrees>
            </Position>
            <AltitudeMeters>103.1999969482421875</AltitudeMeters>
            <DistanceMeters>NAN</DistanceMeters>
          </Trackpoint>
          <Trackpoint>
            <Time>2022-07-13T07:35:58.000Z</Time>
            <Position>
              <LatitudeDegrees>43.3977189101278781890869140625</LatitudeDegrees>
              <LongitudeDegrees>-3.35790884681046009063720703125</LongitudeDegrees>
            </Position>
            <AltitudeMeters>103.40000152587890625</AltitudeMeters>
            <DistanceMeters>NAN</DistanceMeters>
          </Trackpoint>
          <Trackpoint>
            <Time>2022-07-13T07:36:00.000Z</Time>
            <Position>
              <LatitudeDegrees>43.39769133366644382476806640625</LatitudeDegrees>
              <LongitudeDegrees>-3.35790775716304779052734375</LongitudeDegrees>
            </Position>
            <AltitudeMeters>103.40000152587890625</AltitudeMeters>
            <DistanceMeters>NAN</DistanceMeters>
          </Trackpoint>
          <Trackpoint>
            <Time>2022-07-13T07:36:01.000Z</Time>
            <Position>
              <LatitudeDegrees>43.3976816944777965545654296875</LatitudeDegrees>
              <LongitudeDegrees>-3.35790482349693775177001953125</LongitudeDegrees>
            </Position>
            <AltitudeMeters>103.40000152587890625</AltitudeMeters>
            <DistanceMeters>NAN</DistanceMeters>
          </Trackpoint>
          <Trackpoint>
            <Time>2022-07-13T07:36:04.000Z</Time>
            <Position>
              <LatitudeDegrees>43.39765973389148712158203125</LatitudeDegrees>
              <LongitudeDegrees>-3.35785235278308391571044921875</LongitudeDegrees>
            </Position>
            <AltitudeMeters>103</AltitudeMeters>
            <DistanceMeters>NAN</DistanceMeters>
          </Trackpoint>
          <Trackpoint>
            <Time>2022-07-13T07:36:07.000Z</Time>
            <Position>
              <LatitudeDegrees>43.3976116217672824859619140625</LatitudeDegrees>
              <LongitudeDegrees>-3.3577255345880985260009765625</LongitudeDegrees>
            </Position>
            <AltitudeMeters>102.8000030517578125</AltitudeMeters>
            <DistanceMeters>NAN</DistanceMeters>
          </Trackpoint>
          <Trackpoint>
            <Time>2022-07-13T07:36:08.000Z</Time>
            <Position>
              <LatitudeDegrees>43.397579602897167205810546875</LatitudeDegrees>
              <LongitudeDegrees>-3.357686139643192291259765625</LongitudeDegrees>
            </Position>
            <AltitudeMeters>102.8000030517578125</AltitudeMeters>
            <DistanceMeters>NAN</DistanceMeters>
          </Trackpoint>
          <Trackpoint>
            <Time>2022-07-13T07:36:09.000Z</Time>
            <Position>
              <LatitudeDegrees>43.39754599146544933319091796875</LatitudeDegrees>
              <LongitudeDegrees>-3.3576557971537113189697265625</LongitudeDegrees>
            </Position>
            <AltitudeMeters>102.59999847412109375</AltitudeMeters>
            <DistanceMeters>NAN</DistanceMeters>
          </Trackpoint>
          <Trackpoint>
            <Time>2022-07-13T07:36:10.000Z</Time>
            <Position>
              <LatitudeDegrees>43.3975102007389068603515625</LatitudeDegrees>
              <LongitudeDegrees>-3.35763593204319477081298828125</LongitudeDegrees>
            </Position>
            <AltitudeMeters>102.40000152587890625</AltitudeMeters>
            <DistanceMeters>NAN</DistanceMeters>
          </Trackpoint>
          <Trackpoint>
            <Time>2022-07-13T07:36:11.000Z</Time>
            <Position>
              <LatitudeDegrees>43.39747156016528606414794921875</LatitudeDegrees>
              <LongitudeDegrees>-3.357618413865566253662109375</LongitudeDegrees>
            </Position>
            <AltitudeMeters>102.1999969482421875</AltitudeMeters>
            <DistanceMeters>NAN</DistanceMeters>
          </Trackpoint>
          <Trackpoint>
            <Time>2022-07-13T07:36:12.000Z</Time>
            <Position>
              <LatitudeDegrees>43.3974325843155384063720703125</LatitudeDegrees>
              <LongitudeDegrees>-3.35760659538209438323974609375</LongitudeDegrees>
            </Position>
            <AltitudeMeters>102</AltitudeMeters>
            <DistanceMeters>NAN</DistanceMeters>
          </Trackpoint>
          <Trackpoint>
            <Time>2022-07-13T07:36:13.000Z</Time>
            <Position>
              <LatitudeDegrees>43.3973957039415836334228515625</LatitudeDegrees>
              <LongitudeDegrees>-3.35760508663952350616455078125</LongitudeDegrees>
            </Position>
            <AltitudeMeters>101.59999847412109375</AltitudeMeters>
            <DistanceMeters>NAN</DistanceMeters>
          </Trackpoint>
          <Trackpoint>
            <Time>2022-07-13T07:36:14.000Z</Time>
            <Position>
              <LatitudeDegrees>43.39735840447247028350830078125</LatitudeDegrees>
              <LongitudeDegrees>-3.357615061104297637939453125</LongitudeDegrees>
            </Position>
            <AltitudeMeters>101.1999969482421875</AltitudeMeters>
            <DistanceMeters>NAN</DistanceMeters>
          </Trackpoint>
          <Trackpoint>
            <Time>2022-07-13T07:36:15.000Z</Time>
            <Position>
              <LatitudeDegrees>43.39732185937464237213134765625</LatitudeDegrees>
              <LongitudeDegrees>-3.35763509385287761688232421875</LongitudeDegrees>
            </Position>
            <AltitudeMeters>100.8000030517578125</AltitudeMeters>
            <DistanceMeters>NAN</DistanceMeters>
          </Trackpoint>
          <Trackpoint>
            <Time>2022-07-13T07:36:16.000Z</Time>
            <Position>
              <LatitudeDegrees>43.3972835540771484375</LatitudeDegrees>
              <LongitudeDegrees>-3.35766426287591457366943359375</LongitudeDegrees>
            </Position>
            <AltitudeMeters>100.1999969482421875</AltitudeMeters>
            <DistanceMeters>NAN</DistanceMeters>
          </Trackpoint>
          <Trackpoint>
            <Time>2022-07-13T07:36:17.000Z</Time>
            <Position>
              <LatitudeDegrees>43.39724843390285968780517578125</LatitudeDegrees>
              <LongitudeDegrees>-3.35769695229828357696533203125</LongitudeDegrees>
            </Position>
            <AltitudeMeters>99.8000030517578125</AltitudeMeters>
            <DistanceMeters>NAN</DistanceMeters>
          </Trackpoint>
          <Trackpoint>
            <Time>2022-07-13T07:36:19.000Z</Time>
            <Position>
              <LatitudeDegrees>43.39718774892389774322509765625</LatitudeDegrees>
              <LongitudeDegrees>-3.35778328590095043182373046875</LongitudeDegrees>
            </Position>
            <AltitudeMeters>98.8000030517578125</AltitudeMeters>
            <DistanceMeters>NAN</DistanceMeters>
          </Trackpoint>
          <Trackpoint>
            <Time>2022-07-13T07:36:21.000Z</Time>
            <Position>
              <LatitudeDegrees>43.39713267982006072998046875</LatitudeDegrees>
              <LongitudeDegrees>-3.3579204976558685302734375</LongitudeDegrees>
            </Position>
            <AltitudeMeters>97.40000152587890625</AltitudeMeters>
            <DistanceMeters>NAN</DistanceMeters>
          </Trackpoint>
          <Trackpoint>
            <Time>2022-07-13T07:36:22.000Z</Time>
            <Position>
              <LatitudeDegrees>43.397096805274486541748046875</LatitudeDegrees>
              <LongitudeDegrees>-3.357987217605113983154296875</LongitudeDegrees>
            </Position>
            <AltitudeMeters>96.8000030517578125</AltitudeMeters>
            <DistanceMeters>NAN</DistanceMeters>
          </Trackpoint>
          <Trackpoint>
            <Time>2022-07-13T07:36:24.000Z</Time>
            <Position>
              <LatitudeDegrees>43.39700485579669475555419921875</LatitudeDegrees>
              <LongitudeDegrees>-3.3580956794321537017822265625</LongitudeDegrees>
            </Position>
            <AltitudeMeters>96.1999969482421875</AltitudeMeters>
            <DistanceMeters>NAN</DistanceMeters>
          </Trackpoint>
          <Trackpoint>
            <Time>2022-07-13T07:36:28.000Z</Time>
            <Position>
              <LatitudeDegrees>43.39679874479770660400390625</LatitudeDegrees>
              <LongitudeDegrees>-3.35829273797571659088134765625</LongitudeDegrees>
            </Position>
            <AltitudeMeters>95.1999969482421875</AltitudeMeters>
            <DistanceMeters>NAN</DistanceMeters>
          </Trackpoint>
          <Trackpoint>
            <Time>2022-07-13T07:36:30.000Z</Time>
            <Position>
              <LatitudeDegrees>43.39669145643711090087890625</LatitudeDegrees>
              <LongitudeDegrees>-3.35838443599641323089599609375</LongitudeDegrees>
            </Position>
            <AltitudeMeters>94.8000030517578125</AltitudeMeters>
            <DistanceMeters>NAN</DistanceMeters>
          </Trackpoint>
          <Trackpoint>
            <Time>2022-07-13T07:36:35.000Z</Time>
            <Position>
              <LatitudeDegrees>43.396426253020763397216796875</LatitudeDegrees>
              <LongitudeDegrees>-3.35860915482044219970703125</LongitudeDegrees>
            </Position>
            <AltitudeMeters>94.1999969482421875</AltitudeMeters>
            <DistanceMeters>NAN</DistanceMeters>
          </Trackpoint>
          <Trackpoint>
            <Time>2022-07-13T07:36:36.000Z</Time>
            <Position>
              <LatitudeDegrees>43.396357186138629913330078125</LatitudeDegrees>
              <LongitudeDegrees>-3.35864938795566558837890625</LongitudeDegrees>
            </Position>
            <AltitudeMeters>93.8000030517578125</AltitudeMeters>
            <DistanceMeters>NAN</DistanceMeters>
          </Trackpoint>
          <Trackpoint>
            <Time>2022-07-13T07:36:40.000Z</Time>
            <Position>
              <LatitudeDegrees>43.39603473432362079620361328125</LatitudeDegrees>
              <LongitudeDegrees>-3.35872256197035312652587890625</LongitudeDegrees>
            </Position>
            <AltitudeMeters>92.59999847412109375</AltitudeMeters>
            <DistanceMeters>NAN</DistanceMeters>
          </Trackpoint>
          <Trackpoint>
            <Time>2022-07-13T07:36:42.000Z</Time>
            <Position>
              <LatitudeDegrees>43.39585854671895503997802734375</LatitudeDegrees>
              <LongitudeDegrees>-3.35868819616734981536865234375</LongitudeDegrees>
            </Position>
            <AltitudeMeters>91.8000030517578125</AltitudeMeters>
            <DistanceMeters>NAN</DistanceMeters>
          </Trackpoint>
          <Trackpoint>
            <Time>2022-07-13T07:36:43.000Z</Time>
            <Position>
              <LatitudeDegrees>43.39577506296336650848388671875</LatitudeDegrees>
              <LongitudeDegrees>-3.3586512319743633270263671875</LongitudeDegrees>
            </Position>
            <AltitudeMeters>91.1999969482421875</AltitudeMeters>
            <DistanceMeters>NAN</DistanceMeters>
          </Trackpoint>
          <Trackpoint>
            <Time>2022-07-13T07:36:44.000Z</Time>
            <Position>
              <LatitudeDegrees>43.39569124393165111541748046875</LatitudeDegrees>
              <LongitudeDegrees>-3.35860169492661952972412109375</LongitudeDegrees>
            </Position>
            <AltitudeMeters>90.8000030517578125</AltitudeMeters>
            <DistanceMeters>NAN</DistanceMeters>
          </Trackpoint>
          <Trackpoint>
            <Time>2022-07-13T07:36:46.000Z</Time>
            <Position>
              <LatitudeDegrees>43.39552461169660091400146484375</LatitudeDegrees>
              <LongitudeDegrees>-3.35847613401710987091064453125</LongitudeDegrees>
            </Position>
            <AltitudeMeters>90</AltitudeMeters>
            <DistanceMeters>NAN</DistanceMeters>
          </Trackpoint>
          <Trackpoint>
            <Time>2022-07-13T07:36:48.000Z</Time>
            <Position>
              <LatitudeDegrees>43.39536217041313648223876953125</LatitudeDegrees>
              <LongitudeDegrees>-3.35831679403781890869140625</LongitudeDegrees>
            </Position>
            <AltitudeMeters>88.59999847412109375</AltitudeMeters>
            <DistanceMeters>NAN</DistanceMeters>
          </Trackpoint>
          <Trackpoint>
            <Time>2022-07-13T07:36:50.000Z</Time>
            <Position>
              <LatitudeDegrees>43.39519838802516460418701171875</LatitudeDegrees>
              <LongitudeDegrees>-3.35813951678574085235595703125</LongitudeDegrees>
            </Position>
            <AltitudeMeters>86.8000030517578125</AltitudeMeters>
            <DistanceMeters>NAN</DistanceMeters>
          </Trackpoint>
          <Trackpoint>
            <Time>2022-07-13T07:36:52.000Z</Time>
            <Position>
              <LatitudeDegrees>43.39503427036106586456298828125</LatitudeDegrees>
              <LongitudeDegrees>-3.35794321261346340179443359375</LongitudeDegrees>
            </Position>
            <AltitudeMeters>85.1999969482421875</AltitudeMeters>
            <DistanceMeters>NAN</DistanceMeters>
          </Trackpoint>
          <Trackpoint>
            <Time>2022-07-13T07:36:54.000Z</Time>
            <Position>
              <LatitudeDegrees>43.394885323941707611083984375</LatitudeDegrees>
              <LongitudeDegrees>-3.35775713436305522918701171875</LongitudeDegrees>
            </Position>
            <AltitudeMeters>84</AltitudeMeters>
            <DistanceMeters>NAN</DistanceMeters>
          </Trackpoint>
          <Trackpoint>
            <Time>2022-07-13T07:36:57.000Z</Time>
            <Position>
              <LatitudeDegrees>43.39459086768329143524169921875</LatitudeDegrees>
              <LongitudeDegrees>-3.3574874885380268096923828125</LongitudeDegrees>
            </Position>
            <AltitudeMeters>82.59999847412109375</AltitudeMeters>
            <DistanceMeters>NAN</DistanceMeters>
          </Trackpoint>
          <Trackpoint>
            <Time>2022-07-13T07:36:58.000Z</Time>
            <Position>
              <LatitudeDegrees>43.39448592625558376312255859375</LatitudeDegrees>
              <LongitudeDegrees>-3.35743661038577556610107421875</LongitudeDegrees>
            </Position>
            <AltitudeMeters>82</AltitudeMeters>
            <DistanceMeters>NAN</DistanceMeters>
          </Trackpoint>
          <Trackpoint>
            <Time>2022-07-13T07:36:59.000Z</Time>
            <Position>
              <LatitudeDegrees>43.39437562040984630584716796875</LatitudeDegrees>
              <LongitudeDegrees>-3.3574036695063114166259765625</LongitudeDegrees>
            </Position>
            <AltitudeMeters>81</AltitudeMeters>
            <DistanceMeters>NAN</DistanceMeters>
          </Trackpoint>
          <Trackpoint>
            <Time>2022-07-13T07:37:00.000Z</Time>
            <Position>
              <LatitudeDegrees>43.3942625485360622406005859375</LatitudeDegrees>
              <LongitudeDegrees>-3.35739101283252239227294921875</LongitudeDegrees>
            </Position>
            <AltitudeMeters>80</AltitudeMeters>
            <DistanceMeters>NAN</DistanceMeters>
          </Trackpoint>
          <Trackpoint>
            <Time>2022-07-13T07:37:01.000Z</Time>
            <Position>
              <LatitudeDegrees>43.3941438607871532440185546875</LatitudeDegrees>
              <LongitudeDegrees>-3.35739637725055217742919921875</LongitudeDegrees>
            </Position>
            <AltitudeMeters>78.8000030517578125</AltitudeMeters>
            <DistanceMeters>NAN</DistanceMeters>
          </Trackpoint>
          <Trackpoint>
            <Time>2022-07-13T07:37:03.000Z</Time>
            <Position>
              <LatitudeDegrees>43.393913023173809051513671875</LatitudeDegrees>
              <LongitudeDegrees>-3.35750081576406955718994140625</LongitudeDegrees>
            </Position>
            <AltitudeMeters>77.40000152587890625</AltitudeMeters>
            <DistanceMeters>NAN</DistanceMeters>
          </Trackpoint>
          <Trackpoint>
            <Time>2022-07-13T07:37:05.000Z</Time>
            <Position>
              <LatitudeDegrees>43.39371898211538791656494140625</LatitudeDegrees>
              <LongitudeDegrees>-3.35770667530596256256103515625</LongitudeDegrees>
            </Position>
            <AltitudeMeters>75.59999847412109375</AltitudeMeters>
            <DistanceMeters>NAN</DistanceMeters>
          </Trackpoint>
          <Trackpoint>
            <Time>2022-07-13T07:37:06.000Z</Time>
            <Position>
              <LatitudeDegrees>43.393650166690349578857421875</LatitudeDegrees>
              <LongitudeDegrees>-3.35785034112632274627685546875</LongitudeDegrees>
            </Position>
            <AltitudeMeters>74.59999847412109375</AltitudeMeters>
            <DistanceMeters>NAN</DistanceMeters>
          </Trackpoint>
          <Trackpoint>
            <Time>2022-07-13T07:37:07.000Z</Time>
            <Position>
              <LatitudeDegrees>43.3935983665287494659423828125</LatitudeDegrees>
              <LongitudeDegrees>-3.3580034784972667694091796875</LongitudeDegrees>
            </Position>
            <AltitudeMeters>73.59999847412109375</AltitudeMeters>
            <DistanceMeters>NAN</DistanceMeters>
          </Trackpoint>
          <Trackpoint>
            <Time>2022-07-13T07:37:08.000Z</Time>
            <Position>
              <LatitudeDegrees>43.3935675211250782012939453125</LatitudeDegrees>
              <LongitudeDegrees>-3.358168266713619232177734375</LongitudeDegrees>
            </Position>
            <AltitudeMeters>72.59999847412109375</AltitudeMeters>
            <DistanceMeters>NAN</DistanceMeters>
          </Trackpoint>
          <Trackpoint>
            <Time>2022-07-13T07:37:09.000Z</Time>
            <Position>
              <LatitudeDegrees>43.393552936613559722900390625</LatitudeDegrees>
              <LongitudeDegrees>-3.35834101773798465728759765625</LongitudeDegrees>
            </Position>
            <AltitudeMeters>71.59999847412109375</AltitudeMeters>
            <DistanceMeters>NAN</DistanceMeters>
          </Trackpoint>
          <Trackpoint>
            <Time>2022-07-13T07:37:10.000Z</Time>
            <Position>
              <LatitudeDegrees>43.39355771429836750030517578125</LatitudeDegrees>
              <LongitudeDegrees>-3.35851066745817661285400390625</LongitudeDegrees>
            </Position>
            <AltitudeMeters>70.59999847412109375</AltitudeMeters>
            <DistanceMeters>NAN</DistanceMeters>
          </Trackpoint>
          <Trackpoint>
            <Time>2022-07-13T07:37:11.000Z</Time>
            <Position>
              <LatitudeDegrees>43.3935805968940258026123046875</LatitudeDegrees>
              <LongitudeDegrees>-3.35867495276033878326416015625</LongitudeDegrees>
            </Position>
            <AltitudeMeters>69.59999847412109375</AltitudeMeters>
            <DistanceMeters>NAN</DistanceMeters>
          </Trackpoint>
          <Trackpoint>
            <Time>2022-07-13T07:37:13.000Z</Time>
            <Position>
              <LatitudeDegrees>43.3936835266649723052978515625</LatitudeDegrees>
              <LongitudeDegrees>-3.358984328806400299072265625</LongitudeDegrees>
            </Position>
            <AltitudeMeters>67.59999847412109375</AltitudeMeters>
            <DistanceMeters>NAN</DistanceMeters>
          </Trackpoint>
          <Trackpoint>
            <Time>2022-07-13T07:37:14.000Z</Time>
            <Position>
              <LatitudeDegrees>43.39375753886997699737548828125</LatitudeDegrees>
              <LongitudeDegrees>-3.3591259829699993133544921875</LongitudeDegrees>
            </Position>
            <AltitudeMeters>66.59999847412109375</AltitudeMeters>
            <DistanceMeters>NAN</DistanceMeters>
          </Trackpoint>
          <Trackpoint>
            <Time>2022-07-13T07:37:15.000Z</Time>
            <Position>
              <LatitudeDegrees>43.39384353719651699066162109375</LatitudeDegrees>
              <LongitudeDegrees>-3.3592535555362701416015625</LongitudeDegrees>
            </Position>
            <AltitudeMeters>66.1999969482421875</AltitudeMeters>
            <DistanceMeters>NAN</DistanceMeters>
          </Trackpoint>
          <Trackpoint>
            <Time>2022-07-13T07:37:17.000Z</Time>
            <Position>
              <LatitudeDegrees>43.39403850026428699493408203125</LatitudeDegrees>
              <LongitudeDegrees>-3.35948665626347064971923828125</LongitudeDegrees>
            </Position>
            <AltitudeMeters>64.8000030517578125</AltitudeMeters>
            <DistanceMeters>NAN</DistanceMeters>
          </Trackpoint>
          <Trackpoint>
            <Time>2022-07-13T07:37:19.000Z</Time>
            <Position>
              <LatitudeDegrees>43.3942548371851444244384765625</LatitudeDegrees>
              <LongitudeDegrees>-3.3596879057586193084716796875</LongitudeDegrees>
            </Position>
            <AltitudeMeters>63</AltitudeMeters>
            <DistanceMeters>NAN</DistanceMeters>
          </Trackpoint>
          <Trackpoint>
            <Time>2022-07-13T07:37:21.000Z</Time>
            <Position>
              <LatitudeDegrees>43.39446379803121089935302734375</LatitudeDegrees>
              <LongitudeDegrees>-3.359891586005687713623046875</LongitudeDegrees>
            </Position>
            <AltitudeMeters>61.40000152587890625</AltitudeMeters>
            <DistanceMeters>NAN</DistanceMeters>
          </Trackpoint>
          <Trackpoint>
            <Time>2022-07-13T07:37:23.000Z</Time>
            <Position>
              <LatitudeDegrees>43.39466865174472332000732421875</LatitudeDegrees>
              <LongitudeDegrees>-3.3600915782153606414794921875</LongitudeDegrees>
            </Position>
            <AltitudeMeters>60</AltitudeMeters>
            <DistanceMeters>NAN</DistanceMeters>
          </Trackpoint>
          <Trackpoint>
            <Time>2022-07-13T07:37:24.000Z</Time>
            <Position>
              <LatitudeDegrees>43.3947684802114963531494140625</LatitudeDegrees>
              <LongitudeDegrees>-3.3601810969412326812744140625</LongitudeDegrees>
            </Position>
            <AltitudeMeters>59</AltitudeMeters>
            <DistanceMeters>NAN</DistanceMeters>
          </Trackpoint>
          <Trackpoint>
            <Time>2022-07-13T07:37:26.000Z</Time>
            <Position>
              <LatitudeDegrees>43.39498112909495830535888671875</LatitudeDegrees>
              <LongitudeDegrees>-3.36037647910416126251220703125</LongitudeDegrees>
            </Position>
            <AltitudeMeters>57</AltitudeMeters>
            <DistanceMeters>NAN</DistanceMeters>
          </Trackpoint>
          <Trackpoint>
            <Time>2022-07-13T07:37:28.000Z</Time>
            <Position>
              <LatitudeDegrees>43.3952143974602222442626953125</LatitudeDegrees>
              <LongitudeDegrees>-3.36057999171316623687744140625</LongitudeDegrees>
            </Position>
            <AltitudeMeters>56</AltitudeMeters>
            <DistanceMeters>NAN</DistanceMeters>
          </Trackpoint>
          <Trackpoint>
            <Time>2022-07-13T07:37:30.000Z</Time>
            <Position>
              <LatitudeDegrees>43.3954353444278240203857421875</LatitudeDegrees>
              <LongitudeDegrees>-3.3607497252523899078369140625</LongitudeDegrees>
            </Position>
            <AltitudeMeters>54.59999847412109375</AltitudeMeters>
            <DistanceMeters>NAN</DistanceMeters>
          </Trackpoint>
          <Trackpoint>
            <Time>2022-07-13T07:37:31.000Z</Time>
            <Position>
              <LatitudeDegrees>43.39555009268224239349365234375</LatitudeDegrees>
              <LongitudeDegrees>-3.36082206107676029205322265625</LongitudeDegrees>
            </Position>
            <AltitudeMeters>53.59999847412109375</AltitudeMeters>
            <DistanceMeters>NAN</DistanceMeters>
          </Trackpoint>
          <Trackpoint>
            <Time>2022-07-13T07:37:33.000Z</Time>
            <Position>
              <LatitudeDegrees>43.3957712911069393157958984375</LatitudeDegrees>
              <LongitudeDegrees>-3.36098156869411468505859375</LongitudeDegrees>
            </Position>
            <AltitudeMeters>51.799999237060546875</AltitudeMeters>
            <DistanceMeters>NAN</DistanceMeters>
          </Trackpoint>
          <Trackpoint>
            <Time>2022-07-13T07:37:35.000Z</Time>
            <Position>
              <LatitudeDegrees>43.395999111235141754150390625</LatitudeDegrees>
              <LongitudeDegrees>-3.3611480332911014556884765625</LongitudeDegrees>
            </Position>
            <AltitudeMeters>50.200000762939453125</AltitudeMeters>
            <DistanceMeters>NAN</DistanceMeters>
          </Trackpoint>
          <Trackpoint>
            <Time>2022-07-13T07:37:36.000Z</Time>
            <Position>
              <LatitudeDegrees>43.39610941708087921142578125</LatitudeDegrees>
              <LongitudeDegrees>-3.36122095584869384765625</LongitudeDegrees>
            </Position>
            <AltitudeMeters>48.799999237060546875</AltitudeMeters>
            <DistanceMeters>NAN</DistanceMeters>
          </Trackpoint>
          <Trackpoint>
            <Time>2022-07-13T07:37:38.000Z</Time>
            <Position>
              <LatitudeDegrees>43.39631267823278903961181640625</LatitudeDegrees>
              <LongitudeDegrees>-3.3613964729011058807373046875</LongitudeDegrees>
            </Position>
            <AltitudeMeters>47</AltitudeMeters>
            <DistanceMeters>NAN</DistanceMeters>
          </Trackpoint>
          <Trackpoint>
            <Time>2022-07-13T07:37:40.000Z</Time>
            <Position>
              <LatitudeDegrees>43.39649439789354801177978515625</LatitudeDegrees>
              <LongitudeDegrees>-3.361612223088741302490234375</LongitudeDegrees>
            </Position>
            <AltitudeMeters>45.40000152587890625</AltitudeMeters>
            <DistanceMeters>NAN</DistanceMeters>
          </Trackpoint>
          <Trackpoint>
            <Time>2022-07-13T07:37:41.000Z</Time>
            <Position>
              <LatitudeDegrees>43.3965736068785190582275390625</LatitudeDegrees>
              <LongitudeDegrees>-3.3617233671247959136962890625</LongitudeDegrees>
            </Position>
            <AltitudeMeters>44.799999237060546875</AltitudeMeters>
            <DistanceMeters>NAN</DistanceMeters>
          </Trackpoint>
          <Trackpoint>
            <Time>2022-07-13T07:37:42.000Z</Time>
            <Position>
              <LatitudeDegrees>43.39664828963577747344970703125</LatitudeDegrees>
              <LongitudeDegrees>-3.36183409206569194793701171875</LongitudeDegrees>
            </Position>
            <AltitudeMeters>44.200000762939453125</AltitudeMeters>
            <DistanceMeters>NAN</DistanceMeters>
          </Trackpoint>
          <Trackpoint>
            <Time>2022-07-13T07:37:45.000Z</Time>
            <Position>
              <LatitudeDegrees>43.3968455158174037933349609375</LatitudeDegrees>
              <LongitudeDegrees>-3.362184204161167144775390625</LongitudeDegrees>
            </Position>
            <AltitudeMeters>43.200000762939453125</AltitudeMeters>
            <DistanceMeters>NAN</DistanceMeters>
          </Trackpoint>
          <Trackpoint>
            <Time>2022-07-13T07:37:46.000Z</Time>
            <Position>
              <LatitudeDegrees>43.3969085477292537689208984375</LatitudeDegrees>
              <LongitudeDegrees>-3.36229660548269748687744140625</LongitudeDegrees>
            </Position>
            <AltitudeMeters>43</AltitudeMeters>
            <DistanceMeters>NAN</DistanceMeters>
          </Trackpoint>
          <Trackpoint>
            <Time>2022-07-13T07:37:50.000Z</Time>
            <Position>
              <LatitudeDegrees>43.3971362002193927764892578125</LatitudeDegrees>
              <LongitudeDegrees>-3.36270681582391262054443359375</LongitudeDegrees>
            </Position>
            <AltitudeMeters>42.40000152587890625</AltitudeMeters>
            <DistanceMeters>NAN</DistanceMeters>
          </Trackpoint>
          <Trackpoint>
            <Time>2022-07-13T07:37:51.000Z</Time>
            <Position>
              <LatitudeDegrees>43.39718632400035858154296875</LatitudeDegrees>
              <LongitudeDegrees>-3.36279884912073612213134765625</LongitudeDegrees>
            </Position>
            <AltitudeMeters>42.40000152587890625</AltitudeMeters>
            <DistanceMeters>NAN</DistanceMeters>
          </Trackpoint>
          <Trackpoint>
            <Time>2022-07-13T07:37:54.000Z</Time>
            <Position>
              <LatitudeDegrees>43.39732739143073558807373046875</LatitudeDegrees>
              <LongitudeDegrees>-3.36306841112673282623291015625</LongitudeDegrees>
            </Position>
            <AltitudeMeters>42</AltitudeMeters>
            <DistanceMeters>NAN</DistanceMeters>
          </Trackpoint>
          <Trackpoint>
            <Time>2022-07-13T07:37:57.000Z</Time>
            <Position>
              <LatitudeDegrees>43.39745186269283294677734375</LatitudeDegrees>
              <LongitudeDegrees>-3.36328902281820774078369140625</LongitudeDegrees>
            </Position>
            <AltitudeMeters>41.799999237060546875</AltitudeMeters>
            <DistanceMeters>NAN</DistanceMeters>
          </Trackpoint>
          <Trackpoint>
            <Time>2022-07-13T07:38:04.000Z</Time>
            <Position>
              <LatitudeDegrees>43.3976847119629383087158203125</LatitudeDegrees>
              <LongitudeDegrees>-3.36373074911534786224365234375</LongitudeDegrees>
            </Position>
            <AltitudeMeters>41.59999847412109375</AltitudeMeters>
            <DistanceMeters>NAN</DistanceMeters>
          </Trackpoint>
          <Trackpoint>
            <Time>2022-07-13T07:38:05.000Z</Time>
            <Position>
              <LatitudeDegrees>43.3977071754634380340576171875</LatitudeDegrees>
              <LongitudeDegrees>-3.3637772686779499053955078125</LongitudeDegrees>
            </Position>
            <AltitudeMeters>41.59999847412109375</AltitudeMeters>
            <DistanceMeters>NAN</DistanceMeters>
          </Trackpoint>
          <Trackpoint>
            <Time>2022-07-13T07:38:08.000Z</Time>
            <Position>
              <LatitudeDegrees>43.397748582065105438232421875</LatitudeDegrees>
              <LongitudeDegrees>-3.3639140613377094268798828125</LongitudeDegrees>
            </Position>
            <AltitudeMeters>41.40000152587890625</AltitudeMeters>
            <DistanceMeters>NAN</DistanceMeters>
          </Trackpoint>
          <Trackpoint>
            <Time>2022-07-13T07:38:09.000Z</Time>
            <Position>
              <LatitudeDegrees>43.3977447263896465301513671875</LatitudeDegrees>
              <LongitudeDegrees>-3.36394138634204864501953125</LongitudeDegrees>
            </Position>
            <AltitudeMeters>41.40000152587890625</AltitudeMeters>
            <DistanceMeters>NAN</DistanceMeters>
          </Trackpoint>
          <Trackpoint>
            <Time>2022-07-13T07:38:11.000Z</Time>
            <Position>
              <LatitudeDegrees>43.39772687293589115142822265625</LatitudeDegrees>
              <LongitudeDegrees>-3.3639646880328655242919921875</LongitudeDegrees>
            </Position>
            <AltitudeMeters>41.200000762939453125</AltitudeMeters>
            <DistanceMeters>NAN</DistanceMeters>
          </Trackpoint>
          <Trackpoint>
            <Time>2022-07-13T07:38:13.000Z</Time>
            <Position>
              <LatitudeDegrees>43.39772519655525684356689453125</LatitudeDegrees>
              <LongitudeDegrees>-3.3639822900295257568359375</LongitudeDegrees>
            </Position>
            <AltitudeMeters>41</AltitudeMeters>
            <DistanceMeters>NAN</DistanceMeters>
          </Trackpoint>
          <Trackpoint>
            <Time>2022-07-13T07:38:15.000Z</Time>
            <Position>
              <LatitudeDegrees>43.39772519655525684356689453125</LatitudeDegrees>
              <LongitudeDegrees>-3.3639822900295257568359375</LongitudeDegrees>
            </Position>
            <AltitudeMeters>41</AltitudeMeters>
            <DistanceMeters>NAN</DistanceMeters>
          </Trackpoint>
          <Trackpoint>
            <Time>2022-07-13T07:38:43.000Z</Time>
            <Position>
              <LatitudeDegrees>43.39774061925709247589111328125</LatitudeDegrees>
              <LongitudeDegrees>-3.36398052982985973358154296875</LongitudeDegrees>
            </Position>
            <AltitudeMeters>41.40000152587890625</AltitudeMeters>
            <DistanceMeters>NAN</DistanceMeters>
          </Trackpoint>
          <Trackpoint>
            <Time>2022-07-13T07:38:44.000Z</Time>
            <Position>
              <LatitudeDegrees>43.39775637723505496978759765625</LatitudeDegrees>
              <LongitudeDegrees>-3.36397734470665454864501953125</LongitudeDegrees>
            </Position>
            <AltitudeMeters>41.40000152587890625</AltitudeMeters>
            <DistanceMeters>NAN</DistanceMeters>
          </Trackpoint>
          <Trackpoint>
            <Time>2022-07-13T07:38:46.000Z</Time>
            <Position>
              <LatitudeDegrees>43.39779124595224857330322265625</LatitudeDegrees>
              <LongitudeDegrees>-3.36398472078144550323486328125</LongitudeDegrees>
            </Position>
            <AltitudeMeters>41.40000152587890625</AltitudeMeters>
            <DistanceMeters>NAN</DistanceMeters>
          </Trackpoint>
          <Trackpoint>
            <Time>2022-07-13T07:38:51.000Z</Time>
            <Position>
              <LatitudeDegrees>43.39790171943604946136474609375</LatitudeDegrees>
              <LongitudeDegrees>-3.36410106159746646881103515625</LongitudeDegrees>
            </Position>
            <AltitudeMeters>41.59999847412109375</AltitudeMeters>
            <DistanceMeters>NAN</DistanceMeters>
          </Trackpoint>
          <Trackpoint>
            <Time>2022-07-13T07:38:57.000Z</Time>
            <Position>
              <LatitudeDegrees>43.3980238437652587890625</LatitudeDegrees>
              <LongitudeDegrees>-3.3643229305744171142578125</LongitudeDegrees>
            </Position>
            <AltitudeMeters>41.59999847412109375</AltitudeMeters>
            <DistanceMeters>NAN</DistanceMeters>
          </Trackpoint>
          <Trackpoint>
            <Time>2022-07-13T07:39:05.000Z</Time>
            <Position>
              <LatitudeDegrees>43.39818469248712062835693359375</LatitudeDegrees>
              <LongitudeDegrees>-3.364638425409793853759765625</LongitudeDegrees>
            </Position>
            <AltitudeMeters>41.799999237060546875</AltitudeMeters>
            <DistanceMeters>NAN</DistanceMeters>
          </Trackpoint>
          <Trackpoint>
            <Time>2022-07-13T07:39:06.000Z</Time>
            <Position>
              <LatitudeDegrees>43.39820849709212779998779296875</LatitudeDegrees>
              <LongitudeDegrees>-3.36467756889760494232177734375</LongitudeDegrees>
            </Position>
            <AltitudeMeters>41.799999237060546875</AltitudeMeters>
            <DistanceMeters>NAN</DistanceMeters>
          </Trackpoint>
          <Trackpoint>
            <Time>2022-07-13T07:39:08.000Z</Time>
            <Position>
              <LatitudeDegrees>43.3982469700276851654052734375</LatitudeDegrees>
              <LongitudeDegrees>-3.36474512703716754913330078125</LongitudeDegrees>
            </Position>
            <AltitudeMeters>41.799999237060546875</AltitudeMeters>
            <DistanceMeters>NAN</DistanceMeters>
          </Trackpoint>
          <Trackpoint>
            <Time>2022-07-13T07:39:09.000Z</Time>
            <Position>
              <LatitudeDegrees>43.398267589509487152099609375</LatitudeDegrees>
              <LongitudeDegrees>-3.36478100158274173736572265625</LongitudeDegrees>
            </Position>
            <AltitudeMeters>42</AltitudeMeters>
            <DistanceMeters>NAN</DistanceMeters>
          </Trackpoint>
          <Trackpoint>
            <Time>2022-07-13T07:39:10.000Z</Time>
            <Position>
              <LatitudeDegrees>43.3982935734093189239501953125</LatitudeDegrees>
              <LongitudeDegrees>-3.36482022888958454132080078125</LongitudeDegrees>
            </Position>
            <AltitudeMeters>42</AltitudeMeters>
            <DistanceMeters>NAN</DistanceMeters>
          </Trackpoint>
          <Trackpoint>
            <Time>2022-07-13T07:39:15.000Z</Time>
            <Position>
              <LatitudeDegrees>43.3983914740383625030517578125</LatitudeDegrees>
              <LongitudeDegrees>-3.3650023676455020904541015625</LongitudeDegrees>
            </Position>
            <AltitudeMeters>41.799999237060546875</AltitudeMeters>
            <DistanceMeters>NAN</DistanceMeters>
          </Trackpoint>
          <Trackpoint>
            <Time>2022-07-13T07:39:21.000Z</Time>
            <Position>
              <LatitudeDegrees>43.39853572659194469451904296875</LatitudeDegrees>
              <LongitudeDegrees>-3.3652608655393123626708984375</LongitudeDegrees>
            </Position>
            <AltitudeMeters>42</AltitudeMeters>
            <DistanceMeters>NAN</DistanceMeters>
          </Trackpoint>
          <Trackpoint>
            <Time>2022-07-13T07:39:22.000Z</Time>
            <Position>
              <LatitudeDegrees>43.39856137521564960479736328125</LatitudeDegrees>
              <LongitudeDegrees>-3.36531543172895908355712890625</LongitudeDegrees>
            </Position>
            <AltitudeMeters>42</AltitudeMeters>
            <DistanceMeters>NAN</DistanceMeters>
          </Trackpoint>
          <Trackpoint>
            <Time>2022-07-13T07:39:24.000Z</Time>
            <Position>
              <LatitudeDegrees>43.39861468411982059478759765625</LatitudeDegrees>
              <LongitudeDegrees>-3.36541919969022274017333984375</LongitudeDegrees>
            </Position>
            <AltitudeMeters>42.200000762939453125</AltitudeMeters>
            <DistanceMeters>NAN</DistanceMeters>
          </Trackpoint>
          <Trackpoint>
            <Time>2022-07-13T07:39:28.000Z</Time>
            <Position>
              <LatitudeDegrees>43.39871920645236968994140625</LatitudeDegrees>
              <LongitudeDegrees>-3.36560226045548915863037109375</LongitudeDegrees>
            </Position>
            <AltitudeMeters>42.40000152587890625</AltitudeMeters>
            <DistanceMeters>NAN</DistanceMeters>
          </Trackpoint>
          <Trackpoint>
            <Time>2022-07-13T07:39:31.000Z</Time>
            <Position>
              <LatitudeDegrees>43.3987891115248203277587890625</LatitudeDegrees>
              <LongitudeDegrees>-3.36574592627584934234619140625</LongitudeDegrees>
            </Position>
            <AltitudeMeters>42.40000152587890625</AltitudeMeters>
            <DistanceMeters>NAN</DistanceMeters>
          </Trackpoint>
          <Trackpoint>
            <Time>2022-07-13T07:39:35.000Z</Time>
            <Position>
              <LatitudeDegrees>43.39888952672481536865234375</LatitudeDegrees>
              <LongitudeDegrees>-3.36592680774629116058349609375</LongitudeDegrees>
            </Position>
            <AltitudeMeters>42.59999847412109375</AltitudeMeters>
            <DistanceMeters>NAN</DistanceMeters>
          </Trackpoint>
          <Trackpoint>
            <Time>2022-07-13T07:39:41.000Z</Time>
            <Position>
              <LatitudeDegrees>43.3990207873284816741943359375</LatitudeDegrees>
              <LongitudeDegrees>-3.3661855570971965789794921875</LongitudeDegrees>
            </Position>
            <AltitudeMeters>42.59999847412109375</AltitudeMeters>
            <DistanceMeters>NAN</DistanceMeters>
          </Trackpoint>
          <Trackpoint>
            <Time>2022-07-13T07:39:44.000Z</Time>
            <Position>
              <LatitudeDegrees>43.399082981050014495849609375</LatitudeDegrees>
              <LongitudeDegrees>-3.36631589569151401519775390625</LongitudeDegrees>
            </Position>
            <AltitudeMeters>42.799999237060546875</AltitudeMeters>
            <DistanceMeters>NAN</DistanceMeters>
          </Trackpoint>
          <Trackpoint>
            <Time>2022-07-13T07:39:51.000Z</Time>
            <Position>
              <LatitudeDegrees>43.39927014894783496856689453125</LatitudeDegrees>
              <LongitudeDegrees>-3.366568274796009063720703125</LongitudeDegrees>
            </Position>
            <AltitudeMeters>43</AltitudeMeters>
            <DistanceMeters>NAN</DistanceMeters>
          </Trackpoint>
          <Trackpoint>
            <Time>2022-07-13T07:39:56.000Z</Time>
            <Position>
              <LatitudeDegrees>43.39937634766101837158203125</LatitudeDegrees>
              <LongitudeDegrees>-3.366779498755931854248046875</LongitudeDegrees>
            </Position>
            <AltitudeMeters>43</AltitudeMeters>
            <DistanceMeters>NAN</DistanceMeters>
          </Trackpoint>
          <Trackpoint>
            <Time>2022-07-13T07:39:57.000Z</Time>
            <Position>
              <LatitudeDegrees>43.399391435086727142333984375</LatitudeDegrees>
              <LongitudeDegrees>-3.36682937107980251312255859375</LongitudeDegrees>
            </Position>
            <AltitudeMeters>43</AltitudeMeters>
            <DistanceMeters>NAN</DistanceMeters>
          </Trackpoint>
          <Trackpoint>
            <Time>2022-07-13T07:40:03.000Z</Time>
            <Position>
              <LatitudeDegrees>43.3995066024363040924072265625</LatitudeDegrees>
              <LongitudeDegrees>-3.36708133108913898468017578125</LongitudeDegrees>
            </Position>
            <AltitudeMeters>43.200000762939453125</AltitudeMeters>
            <DistanceMeters>NAN</DistanceMeters>
          </Trackpoint>
          <Trackpoint>
            <Time>2022-07-13T07:40:08.000Z</Time>
            <Position>
              <LatitudeDegrees>43.39960810728371143341064453125</LatitudeDegrees>
              <LongitudeDegrees>-3.36728475987911224365234375</LongitudeDegrees>
            </Position>
            <AltitudeMeters>43.200000762939453125</AltitudeMeters>
            <DistanceMeters>NAN</DistanceMeters>
          </Trackpoint>
          <Trackpoint>
            <Time>2022-07-13T07:40:13.000Z</Time>
            <Position>
              <LatitudeDegrees>43.39972637593746185302734375</LatitudeDegrees>
              <LongitudeDegrees>-3.36750780232250690460205078125</LongitudeDegrees>
            </Position>
            <AltitudeMeters>43.40000152587890625</AltitudeMeters>
            <DistanceMeters>NAN</DistanceMeters>
          </Trackpoint>
          <Trackpoint>
            <Time>2022-07-13T07:40:22.000Z</Time>
            <Position>
              <LatitudeDegrees>43.3998995460569858551025390625</LatitudeDegrees>
              <LongitudeDegrees>-3.36783234961330890655517578125</LongitudeDegrees>
            </Position>
            <AltitudeMeters>43.59999847412109375</AltitudeMeters>
            <DistanceMeters>NAN</DistanceMeters>
          </Trackpoint>
          <Trackpoint>
            <Time>2022-07-13T07:40:26.000Z</Time>
            <Position>
              <LatitudeDegrees>43.399980179965496063232421875</LatitudeDegrees>
              <LongitudeDegrees>-3.36798590607941150665283203125</LongitudeDegrees>
            </Position>
            <AltitudeMeters>43.59999847412109375</AltitudeMeters>
            <DistanceMeters>NAN</DistanceMeters>
          </Trackpoint>
          <Trackpoint>
            <Time>2022-07-13T07:40:28.000Z</Time>
            <Position>
              <LatitudeDegrees>43.40001798234879970550537109375</LatitudeDegrees>
              <LongitudeDegrees>-3.36805631406605243682861328125</LongitudeDegrees>
            </Position>
            <AltitudeMeters>43.59999847412109375</AltitudeMeters>
            <DistanceMeters>NAN</DistanceMeters>
          </Trackpoint>
          <Trackpoint>
            <Time>2022-07-13T07:40:37.000Z</Time>
            <Position>
              <LatitudeDegrees>43.40021445415914058685302734375</LatitudeDegrees>
              <LongitudeDegrees>-3.36840718053281307220458984375</LongitudeDegrees>
            </Position>
            <AltitudeMeters>44</AltitudeMeters>
            <DistanceMeters>NAN</DistanceMeters>
          </Trackpoint>
          <Trackpoint>
            <Time>2022-07-13T07:40:45.000Z</Time>
            <Position>
              <LatitudeDegrees>43.40037203393876552581787109375</LatitudeDegrees>
              <LongitudeDegrees>-3.36868914775550365447998046875</LongitudeDegrees>
            </Position>
            <AltitudeMeters>44.40000152587890625</AltitudeMeters>
            <DistanceMeters>NAN</DistanceMeters>
          </Trackpoint>
          <Trackpoint>
            <Time>2022-07-13T07:40:52.000Z</Time>
            <Position>
              <LatitudeDegrees>43.4005144424736499786376953125</LatitudeDegrees>
              <LongitudeDegrees>-3.3689566142857074737548828125</LongitudeDegrees>
            </Position>
            <AltitudeMeters>44.59999847412109375</AltitudeMeters>
            <DistanceMeters>NAN</DistanceMeters>
          </Trackpoint>
          <Trackpoint>
            <Time>2022-07-13T07:40:55.000Z</Time>
            <Position>
              <LatitudeDegrees>43.40056993067264556884765625</LatitudeDegrees>
              <LongitudeDegrees>-3.3690597116947174072265625</LongitudeDegrees>
            </Position>
            <AltitudeMeters>44.799999237060546875</AltitudeMeters>
            <DistanceMeters>NAN</DistanceMeters>
          </Trackpoint>
          <Trackpoint>
            <Time>2022-07-13T07:41:02.000Z</Time>
            <Position>
              <LatitudeDegrees>43.40070060454308986663818359375</LatitudeDegrees>
              <LongitudeDegrees>-3.36929515935480594635009765625</LongitudeDegrees>
            </Position>
            <AltitudeMeters>45</AltitudeMeters>
            <DistanceMeters>NAN</DistanceMeters>
          </Trackpoint>
          <Trackpoint>
            <Time>2022-07-13T07:41:03.000Z</Time>
            <Position>
              <LatitudeDegrees>43.40072013437747955322265625</LatitudeDegrees>
              <LongitudeDegrees>-3.36932994425296783447265625</LongitudeDegrees>
            </Position>
            <AltitudeMeters>45.200000762939453125</AltitudeMeters>
            <DistanceMeters>NAN</DistanceMeters>
          </Trackpoint>
          <Trackpoint>
            <Time>2022-07-13T07:41:11.000Z</Time>
            <Position>
              <LatitudeDegrees>43.40086589567363262176513671875</LatitudeDegrees>
              <LongitudeDegrees>-3.36958416737616062164306640625</LongitudeDegrees>
            </Position>
            <AltitudeMeters>45.59999847412109375</AltitudeMeters>
            <DistanceMeters>NAN</DistanceMeters>
          </Trackpoint>
          <Trackpoint>
            <Time>2022-07-13T07:41:17.000Z</Time>
            <Position>
              <LatitudeDegrees>43.40096019208431243896484375</LatitudeDegrees>
              <LongitudeDegrees>-3.36976270191371440887451171875</LongitudeDegrees>
            </Position>
            <AltitudeMeters>45.799999237060546875</AltitudeMeters>
            <DistanceMeters>NAN</DistanceMeters>
          </Trackpoint>
          <Trackpoint>
            <Time>2022-07-13T07:41:19.000Z</Time>
            <Position>
              <LatitudeDegrees>43.4009975753724575042724609375</LatitudeDegrees>
              <LongitudeDegrees>-3.36982925422489643096923828125</LongitudeDegrees>
            </Position>
            <AltitudeMeters>45.799999237060546875</AltitudeMeters>
            <DistanceMeters>NAN</DistanceMeters>
          </Trackpoint>
          <Trackpoint>
            <Time>2022-07-13T07:41:22.000Z</Time>
            <Position>
              <LatitudeDegrees>43.401043675839900970458984375</LatitudeDegrees>
              <LongitudeDegrees>-3.36991525255143642425537109375</LongitudeDegrees>
            </Position>
            <AltitudeMeters>46.200000762939453125</AltitudeMeters>
            <DistanceMeters>NAN</DistanceMeters>
          </Trackpoint>
          <Trackpoint>
            <Time>2022-07-13T07:41:26.000Z</Time>
            <Position>
              <LatitudeDegrees>43.40110193006694316864013671875</LatitudeDegrees>
              <LongitudeDegrees>-3.37003679014742374420166015625</LongitudeDegrees>
            </Position>
            <AltitudeMeters>46.40000152587890625</AltitudeMeters>
            <DistanceMeters>NAN</DistanceMeters>
          </Trackpoint>
          <Trackpoint>
            <Time>2022-07-13T07:41:30.000Z</Time>
            <Position>
              <LatitudeDegrees>43.40116663835942745208740234375</LatitudeDegrees>
              <LongitudeDegrees>-3.37013184092938899993896484375</LongitudeDegrees>
            </Position>
            <AltitudeMeters>46.59999847412109375</AltitudeMeters>
            <DistanceMeters>NAN</DistanceMeters>
          </Trackpoint>
          <Trackpoint>
            <Time>2022-07-13T07:41:34.000Z</Time>
            <Position>
              <LatitudeDegrees>43.4012118168175220489501953125</LatitudeDegrees>
              <LongitudeDegrees>-3.370233513414859771728515625</LongitudeDegrees>
            </Position>
            <AltitudeMeters>47</AltitudeMeters>
            <DistanceMeters>NAN</DistanceMeters>
          </Trackpoint>
          <Trackpoint>
            <Time>2022-07-13T07:41:35.000Z</Time>
            <Position>
              <LatitudeDegrees>43.401221372187137603759765625</LatitudeDegrees>
              <LongitudeDegrees>-3.370262682437896728515625</LongitudeDegrees>
            </Position>
            <AltitudeMeters>47</AltitudeMeters>
            <DistanceMeters>NAN</DistanceMeters>
          </Trackpoint>
          <Trackpoint>
            <Time>2022-07-13T07:41:37.000Z</Time>
            <Position>
              <LatitudeDegrees>43.40125096030533313751220703125</LatitudeDegrees>
              <LongitudeDegrees>-3.370320014655590057373046875</LongitudeDegrees>
            </Position>
            <AltitudeMeters>47</AltitudeMeters>
            <DistanceMeters>NAN</DistanceMeters>
          </Trackpoint>
          <Trackpoint>
            <Time>2022-07-13T07:41:38.000Z</Time>
            <Position>
              <LatitudeDegrees>43.40128247626125812530517578125</LatitudeDegrees>
              <LongitudeDegrees>-3.37036971934139728546142578125</LongitudeDegrees>
            </Position>
            <AltitudeMeters>47.200000762939453125</AltitudeMeters>
            <DistanceMeters>NAN</DistanceMeters>
          </Trackpoint>
          <Trackpoint>
            <Time>2022-07-13T07:41:39.000Z</Time>
            <Position>
              <LatitudeDegrees>43.401317596435546875</LatitudeDegrees>
              <LongitudeDegrees>-3.37042839266359806060791015625</LongitudeDegrees>
            </Position>
            <AltitudeMeters>47.200000762939453125</AltitudeMeters>
            <DistanceMeters>NAN</DistanceMeters>
          </Trackpoint>
          <Trackpoint>
            <Time>2022-07-13T07:41:41.000Z</Time>
            <Position>
              <LatitudeDegrees>43.40135137550532817840576171875</LatitudeDegrees>
              <LongitudeDegrees>-3.370481617748737335205078125</LongitudeDegrees>
            </Position>
            <AltitudeMeters>47.40000152587890625</AltitudeMeters>
            <DistanceMeters>NAN</DistanceMeters>
          </Trackpoint>
          <Trackpoint>
            <Time>2022-07-13T07:41:42.000Z</Time>
            <Position>
              <LatitudeDegrees>43.4013720788061618804931640625</LatitudeDegrees>
              <LongitudeDegrees>-3.37051271460950374603271484375</LongitudeDegrees>
            </Position>
            <AltitudeMeters>47.40000152587890625</AltitudeMeters>
            <DistanceMeters>NAN</DistanceMeters>
          </Trackpoint>
          <Trackpoint>
            <Time>2022-07-13T07:41:48.000Z</Time>
            <Position>
              <LatitudeDegrees>43.4014892578125</LatitudeDegrees>
              <LongitudeDegrees>-3.37072595022618770599365234375</LongitudeDegrees>
            </Position>
            <AltitudeMeters>47.59999847412109375</AltitudeMeters>
            <DistanceMeters>NAN</DistanceMeters>
          </Trackpoint>
          <Trackpoint>
            <Time>2022-07-13T07:41:53.000Z</Time>
            <Position>
              <LatitudeDegrees>43.401565365493297576904296875</LatitudeDegrees>
              <LongitudeDegrees>-3.37088185362517833709716796875</LongitudeDegrees>
            </Position>
            <AltitudeMeters>47.59999847412109375</AltitudeMeters>
            <DistanceMeters>NAN</DistanceMeters>
          </Trackpoint>
          <Trackpoint>
            <Time>2022-07-13T07:41:59.000Z</Time>
            <Position>
              <LatitudeDegrees>43.4016607515513896942138671875</LatitudeDegrees>
              <LongitudeDegrees>-3.37108142673969268798828125</LongitudeDegrees>
            </Position>
            <AltitudeMeters>48.200000762939453125</AltitudeMeters>
            <DistanceMeters>NAN</DistanceMeters>
          </Trackpoint>
          <Trackpoint>
            <Time>2022-07-13T07:42:02.000Z</Time>
            <Position>
              <LatitudeDegrees>43.401706516742706298828125</LatitudeDegrees>
              <LongitudeDegrees>-3.3711714483797550201416015625</LongitudeDegrees>
            </Position>
            <AltitudeMeters>48.40000152587890625</AltitudeMeters>
            <DistanceMeters>NAN</DistanceMeters>
          </Trackpoint>
          <Trackpoint>
            <Time>2022-07-13T07:42:09.000Z</Time>
            <Position>
              <LatitudeDegrees>43.40184540487825870513916015625</LatitudeDegrees>
              <LongitudeDegrees>-3.37141091935336589813232421875</LongitudeDegrees>
            </Position>
            <AltitudeMeters>48.59999847412109375</AltitudeMeters>
            <DistanceMeters>NAN</DistanceMeters>
          </Trackpoint>
          <Trackpoint>
            <Time>2022-07-13T07:42:12.000Z</Time>
            <Position>
              <LatitudeDegrees>43.4018956124782562255859375</LatitudeDegrees>
              <LongitudeDegrees>-3.37149524129927158355712890625</LongitudeDegrees>
            </Position>
            <AltitudeMeters>48.799999237060546875</AltitudeMeters>
            <DistanceMeters>NAN</DistanceMeters>
          </Trackpoint>
          <Trackpoint>
            <Time>2022-07-13T07:42:18.000Z</Time>
            <Position>
              <LatitudeDegrees>43.40199108235538005828857421875</LatitudeDegrees>
              <LongitudeDegrees>-3.37160605005919933319091796875</LongitudeDegrees>
            </Position>
            <AltitudeMeters>48.799999237060546875</AltitudeMeters>
            <DistanceMeters>NAN</DistanceMeters>
          </Trackpoint>
          <Trackpoint>
            <Time>2022-07-13T07:42:24.000Z</Time>
            <Position>
              <LatitudeDegrees>43.40210071764886379241943359375</LatitudeDegrees>
              <LongitudeDegrees>-3.37168534286320209503173828125</LongitudeDegrees>
            </Position>
            <AltitudeMeters>48.40000152587890625</AltitudeMeters>
            <DistanceMeters>NAN</DistanceMeters>
          </Trackpoint>
          <Trackpoint>
            <Time>2022-07-13T07:42:27.000Z</Time>
            <Position>
              <LatitudeDegrees>43.40212636627256870269775390625</LatitudeDegrees>
              <LongitudeDegrees>-3.37170948274433612823486328125</LongitudeDegrees>
            </Position>
            <AltitudeMeters>48.40000152587890625</AltitudeMeters>
            <DistanceMeters>NAN</DistanceMeters>
          </Trackpoint>
          <Trackpoint>
            <Time>2022-07-13T07:42:29.000Z</Time>
            <Position>
              <LatitudeDegrees>43.40212636627256870269775390625</LatitudeDegrees>
              <LongitudeDegrees>-3.37170948274433612823486328125</LongitudeDegrees>
            </Position>
            <AltitudeMeters>48.200000762939453125</AltitudeMeters>
            <DistanceMeters>NAN</DistanceMeters>
          </Trackpoint>
          <Trackpoint>
            <Time>2022-07-13T07:43:19.000Z</Time>
            <Position>
              <LatitudeDegrees>43.40215452946722507476806640625</LatitudeDegrees>
              <LongitudeDegrees>-3.371747620403766632080078125</LongitudeDegrees>
            </Position>
            <AltitudeMeters>47.59999847412109375</AltitudeMeters>
            <DistanceMeters>NAN</DistanceMeters>
          </Trackpoint>
          <Trackpoint>
            <Time>2022-07-13T07:43:20.000Z</Time>
            <Position>
              <LatitudeDegrees>43.40216140262782573699951171875</LatitudeDegrees>
              <LongitudeDegrees>-3.37177469395101070404052734375</LongitudeDegrees>
            </Position>
            <AltitudeMeters>47.59999847412109375</AltitudeMeters>
            <DistanceMeters>NAN</DistanceMeters>
          </Trackpoint>
          <Trackpoint>
            <Time>2022-07-13T07:43:21.000Z</Time>
            <Position>
              <LatitudeDegrees>43.40216106735169887542724609375</LatitudeDegrees>
              <LongitudeDegrees>-3.3718027733266353607177734375</LongitudeDegrees>
            </Position>
            <AltitudeMeters>47.799999237060546875</AltitudeMeters>
            <DistanceMeters>NAN</DistanceMeters>
          </Trackpoint>
          <Trackpoint>
            <Time>2022-07-13T07:43:24.000Z</Time>
            <Position>
              <LatitudeDegrees>43.40214514173567295074462890625</LatitudeDegrees>
              <LongitudeDegrees>-3.37188852019608020782470703125</LongitudeDegrees>
            </Position>
            <AltitudeMeters>48</AltitudeMeters>
            <DistanceMeters>NAN</DistanceMeters>
          </Trackpoint>
          <Trackpoint>
            <Time>2022-07-13T07:43:28.000Z</Time>
            <Position>
              <LatitudeDegrees>43.402147404849529266357421875</LatitudeDegrees>
              <LongitudeDegrees>-3.372002430260181427001953125</LongitudeDegrees>
            </Position>
            <AltitudeMeters>48.59999847412109375</AltitudeMeters>
            <DistanceMeters>NAN</DistanceMeters>
          </Trackpoint>
          <Trackpoint>
            <Time>2022-07-13T07:43:29.000Z</Time>
            <Position>
              <LatitudeDegrees>43.40215737931430339813232421875</LatitudeDegrees>
              <LongitudeDegrees>-3.372028581798076629638671875</LongitudeDegrees>
            </Position>
            <AltitudeMeters>48.799999237060546875</AltitudeMeters>
            <DistanceMeters>NAN</DistanceMeters>
          </Trackpoint>
          <Trackpoint>
            <Time>2022-07-13T07:43:33.000Z</Time>
            <Position>
              <LatitudeDegrees>43.4022112749516963958740234375</LatitudeDegrees>
              <LongitudeDegrees>-3.3721410669386386871337890625</LongitudeDegrees>
            </Position>
            <AltitudeMeters>49</AltitudeMeters>
            <DistanceMeters>NAN</DistanceMeters>
          </Trackpoint>
          <Trackpoint>
            <Time>2022-07-13T07:43:37.000Z</Time>
            <Position>
              <LatitudeDegrees>43.40227338485419750213623046875</LatitudeDegrees>
              <LongitudeDegrees>-3.372238464653491973876953125</LongitudeDegrees>
            </Position>
            <AltitudeMeters>49</AltitudeMeters>
            <DistanceMeters>NAN</DistanceMeters>
          </Trackpoint>
          <Trackpoint>
            <Time>2022-07-13T07:43:39.000Z</Time>
            <Position>
              <LatitudeDegrees>43.40230221860110759735107421875</LatitudeDegrees>
              <LongitudeDegrees>-3.37228565476834774017333984375</LongitudeDegrees>
            </Position>
            <AltitudeMeters>49.200000762939453125</AltitudeMeters>
            <DistanceMeters>NAN</DistanceMeters>
          </Trackpoint>
          <Trackpoint>
            <Time>2022-07-13T07:43:44.000Z</Time>
            <Position>
              <LatitudeDegrees>43.4023675136268138885498046875</LatitudeDegrees>
              <LongitudeDegrees>-3.3724002353847026824951171875</LongitudeDegrees>
            </Position>
            <AltitudeMeters>49.40000152587890625</AltitudeMeters>
            <DistanceMeters>NAN</DistanceMeters>
          </Trackpoint>
          <Trackpoint>
            <Time>2022-07-13T07:43:45.000Z</Time>
            <Position>
              <LatitudeDegrees>43.40238251723349094390869140625</LatitudeDegrees>
              <LongitudeDegrees>-3.3724273927509784698486328125</LongitudeDegrees>
            </Position>
            <AltitudeMeters>49.40000152587890625</AltitudeMeters>
            <DistanceMeters>NAN</DistanceMeters>
          </Trackpoint>
          <Trackpoint>
            <Time>2022-07-13T07:43:48.000Z</Time>
            <Position>
              <LatitudeDegrees>43.4024194814264774322509765625</LatitudeDegrees>
              <LongitudeDegrees>-3.37250207550823688507080078125</LongitudeDegrees>
            </Position>
            <AltitudeMeters>49.59999847412109375</AltitudeMeters>
            <DistanceMeters>NAN</DistanceMeters>
          </Trackpoint>
          <Trackpoint>
            <Time>2022-07-13T07:43:52.000Z</Time>
            <Position>
              <LatitudeDegrees>43.402477316558361053466796875</LatitudeDegrees>
              <LongitudeDegrees>-3.3725920133292675018310546875</LongitudeDegrees>
            </Position>
            <AltitudeMeters>49.799999237060546875</AltitudeMeters>
            <DistanceMeters>NAN</DistanceMeters>
          </Trackpoint>
          <Trackpoint>
            <Time>2022-07-13T07:43:54.000Z</Time>
            <Position>
              <LatitudeDegrees>43.4025103412568569183349609375</LatitudeDegrees>
              <LongitudeDegrees>-3.37263635359704494476318359375</LongitudeDegrees>
            </Position>
            <AltitudeMeters>50</AltitudeMeters>
            <DistanceMeters>NAN</DistanceMeters>
          </Trackpoint>
          <Trackpoint>
            <Time>2022-07-13T07:43:55.000Z</Time>
            <Position>
              <LatitudeDegrees>43.4025244228541851043701171875</LatitudeDegrees>
              <LongitudeDegrees>-3.37266066111624240875244140625</LongitudeDegrees>
            </Position>
            <AltitudeMeters>50</AltitudeMeters>
            <DistanceMeters>NAN</DistanceMeters>
          </Trackpoint>
          <Trackpoint>
            <Time>2022-07-13T07:43:57.000Z</Time>
            <Position>
              <LatitudeDegrees>43.40253490023314952850341796875</LatitudeDegrees>
              <LongitudeDegrees>-3.37269745767116546630859375</LongitudeDegrees>
            </Position>
            <AltitudeMeters>50.200000762939453125</AltitudeMeters>
            <DistanceMeters>NAN</DistanceMeters>
          </Trackpoint>
          <Trackpoint>
            <Time>2022-07-13T07:44:00.000Z</Time>
            <Position>
              <LatitudeDegrees>43.402563817799091339111328125</LatitudeDegrees>
              <LongitudeDegrees>-3.37275520898401737213134765625</LongitudeDegrees>
            </Position>
            <AltitudeMeters>50.40000152587890625</AltitudeMeters>
            <DistanceMeters>NAN</DistanceMeters>
          </Trackpoint>
          <Trackpoint>
            <Time>2022-07-13T07:44:06.000Z</Time>
            <Position>
              <LatitudeDegrees>43.40262508951127529144287109375</LatitudeDegrees>
              <LongitudeDegrees>-3.372856713831424713134765625</LongitudeDegrees>
            </Position>
            <AltitudeMeters>51</AltitudeMeters>
            <DistanceMeters>NAN</DistanceMeters>
          </Trackpoint>
          <Trackpoint>
            <Time>2022-07-13T07:44:08.000Z</Time>
            <Position>
              <LatitudeDegrees>43.40264403261244297027587890625</LatitudeDegrees>
              <LongitudeDegrees>-3.3729034848511219024658203125</LongitudeDegrees>
            </Position>
            <AltitudeMeters>51.200000762939453125</AltitudeMeters>
            <DistanceMeters>NAN</DistanceMeters>
          </Trackpoint>
          <Trackpoint>
            <Time>2022-07-13T07:44:09.000Z</Time>
            <Position>
              <LatitudeDegrees>43.40265132486820220947265625</LatitudeDegrees>
              <LongitudeDegrees>-3.37291899137198925018310546875</LongitudeDegrees>
            </Position>
            <AltitudeMeters>51.200000762939453125</AltitudeMeters>
            <DistanceMeters>NAN</DistanceMeters>
          </Trackpoint>
          <Trackpoint>
            <Time>2022-07-13T07:44:14.000Z</Time>
            <Position>
              <LatitudeDegrees>43.40269625186920166015625</LatitudeDegrees>
              <LongitudeDegrees>-3.3730151318013668060302734375</LongitudeDegrees>
            </Position>
            <AltitudeMeters>51.59999847412109375</AltitudeMeters>
            <DistanceMeters>NAN</DistanceMeters>
          </Trackpoint>
          <Trackpoint>
            <Time>2022-07-13T07:44:15.000Z</Time>
            <Position>
              <LatitudeDegrees>43.40270706452429294586181640625</LatitudeDegrees>
              <LongitudeDegrees>-3.37303264997899532318115234375</LongitudeDegrees>
            </Position>
            <AltitudeMeters>51.799999237060546875</AltitudeMeters>
            <DistanceMeters>NAN</DistanceMeters>
          </Trackpoint>
          <Trackpoint>
            <Time>2022-07-13T07:44:16.000Z</Time>
            <Position>
              <LatitudeDegrees>43.40272014029324054718017578125</LatitudeDegrees>
              <LongitudeDegrees>-3.3730526827275753021240234375</LongitudeDegrees>
            </Position>
            <AltitudeMeters>51.799999237060546875</AltitudeMeters>
            <DistanceMeters>NAN</DistanceMeters>
          </Trackpoint>
          <Trackpoint>
            <Time>2022-07-13T07:44:22.000Z</Time>
            <Position>
              <LatitudeDegrees>43.40279859490692615509033203125</LatitudeDegrees>
              <LongitudeDegrees>-3.37316659279167652130126953125</LongitudeDegrees>
            </Position>
            <AltitudeMeters>52.200000762939453125</AltitudeMeters>
            <DistanceMeters>NAN</DistanceMeters>
          </Trackpoint>
          <Trackpoint>
            <Time>2022-07-13T07:44:25.000Z</Time>
            <Position>
              <LatitudeDegrees>43.40282508172094821929931640625</LatitudeDegrees>
              <LongitudeDegrees>-3.3732171356678009033203125</LongitudeDegrees>
            </Position>
            <AltitudeMeters>52.59999847412109375</AltitudeMeters>
            <DistanceMeters>NAN</DistanceMeters>
          </Trackpoint>
          <Trackpoint>
            <Time>2022-07-13T07:44:31.000Z</Time>
            <Position>
              <LatitudeDegrees>43.40288777835667133331298828125</LatitudeDegrees>
              <LongitudeDegrees>-3.37332333438098430633544921875</LongitudeDegrees>
            </Position>
            <AltitudeMeters>53.200000762939453125</AltitudeMeters>
            <DistanceMeters>NAN</DistanceMeters>
          </Trackpoint>
          <Trackpoint>
            <Time>2022-07-13T07:44:32.000Z</Time>
            <Position>
              <LatitudeDegrees>43.40289699845016002655029296875</LatitudeDegrees>
              <LongitudeDegrees>-3.3733467198908329010009765625</LongitudeDegrees>
            </Position>
            <AltitudeMeters>53.200000762939453125</AltitudeMeters>
            <DistanceMeters>NAN</DistanceMeters>
          </Trackpoint>
          <Trackpoint>
            <Time>2022-07-13T07:44:33.000Z</Time>
            <Position>
              <LatitudeDegrees>43.40290118940174579620361328125</LatitudeDegrees>
              <LongitudeDegrees>-3.37336977012455463409423828125</LongitudeDegrees>
            </Position>
            <AltitudeMeters>53.40000152587890625</AltitudeMeters>
            <DistanceMeters>NAN</DistanceMeters>
          </Trackpoint>
          <Trackpoint>
            <Time>2022-07-13T07:44:40.000Z</Time>
            <Position>
              <LatitudeDegrees>43.4029451943933963775634765625</LatitudeDegrees>
              <LongitudeDegrees>-3.37350890971720218658447265625</LongitudeDegrees>
            </Position>
            <AltitudeMeters>53.799999237060546875</AltitudeMeters>
            <DistanceMeters>NAN</DistanceMeters>
          </Trackpoint>
          <Trackpoint>
            <Time>2022-07-13T07:44:41.000Z</Time>
            <Position>
              <LatitudeDegrees>43.40295307338237762451171875</LatitudeDegrees>
              <LongitudeDegrees>-3.37353120557963848114013671875</LongitudeDegrees>
            </Position>
            <AltitudeMeters>53.799999237060546875</AltitudeMeters>
            <DistanceMeters>NAN</DistanceMeters>
          </Trackpoint>
          <Trackpoint>
            <Time>2022-07-13T07:44:46.000Z</Time>
            <Position>
              <LatitudeDegrees>43.4029639698565006256103515625</LatitudeDegrees>
              <LongitudeDegrees>-3.3736504800617694854736328125</LongitudeDegrees>
            </Position>
            <AltitudeMeters>54.200000762939453125</AltitudeMeters>
            <DistanceMeters>NAN</DistanceMeters>
          </Trackpoint>
          <Trackpoint>
            <Time>2022-07-13T07:44:47.000Z</Time>
            <Position>
              <LatitudeDegrees>43.40295969508588314056396484375</LatitudeDegrees>
              <LongitudeDegrees>-3.37368090637028217315673828125</LongitudeDegrees>
            </Position>
            <AltitudeMeters>54.40000152587890625</AltitudeMeters>
            <DistanceMeters>NAN</DistanceMeters>
          </Trackpoint>
          <Trackpoint>
            <Time>2022-07-13T07:44:48.000Z</Time>
            <Position>
              <LatitudeDegrees>43.40296237729489803314208984375</LatitudeDegrees>
              <LongitudeDegrees>-3.37371175177395343780517578125</LongitudeDegrees>
            </Position>
            <AltitudeMeters>54.40000152587890625</AltitudeMeters>
            <DistanceMeters>NAN</DistanceMeters>
          </Trackpoint>
          <Trackpoint>
            <Time>2022-07-13T07:44:56.000Z</Time>
            <Position>
              <LatitudeDegrees>43.40299691073596477508544921875</LatitudeDegrees>
              <LongitudeDegrees>-3.37391040287911891937255859375</LongitudeDegrees>
            </Position>
            <AltitudeMeters>55.200000762939453125</AltitudeMeters>
            <DistanceMeters>NAN</DistanceMeters>
          </Trackpoint>
          <Trackpoint>
            <Time>2022-07-13T07:44:57.000Z</Time>
            <Position>
              <LatitudeDegrees>43.4029998444020748138427734375</LatitudeDegrees>
              <LongitudeDegrees>-3.37393353693187236785888671875</LongitudeDegrees>
            </Position>
            <AltitudeMeters>55.40000152587890625</AltitudeMeters>
            <DistanceMeters>NAN</DistanceMeters>
          </Trackpoint>
          <Trackpoint>
            <Time>2022-07-13T07:45:04.000Z</Time>
            <Position>
              <LatitudeDegrees>43.40301610529422760009765625</LatitudeDegrees>
              <LongitudeDegrees>-3.374109975993633270263671875</LongitudeDegrees>
            </Position>
            <AltitudeMeters>56.200000762939453125</AltitudeMeters>
            <DistanceMeters>NAN</DistanceMeters>
          </Trackpoint>
          <Trackpoint>
            <Time>2022-07-13T07:45:06.000Z</Time>
            <Position>
              <LatitudeDegrees>43.40301786549389362335205078125</LatitudeDegrees>
              <LongitudeDegrees>-3.37416018359363079071044921875</LongitudeDegrees>
            </Position>
            <AltitudeMeters>56.200000762939453125</AltitudeMeters>
            <DistanceMeters>NAN</DistanceMeters>
          </Trackpoint>
          <Trackpoint>
            <Time>2022-07-13T07:45:08.000Z</Time>
            <Position>
              <LatitudeDegrees>43.40301970951259136199951171875</LatitudeDegrees>
              <LongitudeDegrees>-3.37420628406107425689697265625</LongitudeDegrees>
            </Position>
            <AltitudeMeters>56.59999847412109375</AltitudeMeters>
            <DistanceMeters>NAN</DistanceMeters>
          </Trackpoint>
          <Trackpoint>
            <Time>2022-07-13T07:45:14.000Z</Time>
            <Position>
              <LatitudeDegrees>43.40300814248621463775634765625</LatitudeDegrees>
              <LongitudeDegrees>-3.37434710003435611724853515625</LongitudeDegrees>
            </Position>
            <AltitudeMeters>57.40000152587890625</AltitudeMeters>
            <DistanceMeters>NAN</DistanceMeters>
          </Trackpoint>
          <Trackpoint>
            <Time>2022-07-13T07:45:17.000Z</Time>
            <Position>
              <LatitudeDegrees>43.40299674309790134429931640625</LatitudeDegrees>
              <LongitudeDegrees>-3.3744236268103122711181640625</LongitudeDegrees>
            </Position>
            <AltitudeMeters>57.59999847412109375</AltitudeMeters>
            <DistanceMeters>NAN</DistanceMeters>
          </Trackpoint>
          <Trackpoint>
            <Time>2022-07-13T07:45:22.000Z</Time>
            <Position>
              <LatitudeDegrees>43.402969837188720703125</LatitudeDegrees>
              <LongitudeDegrees>-3.37453284300863742828369140625</LongitudeDegrees>
            </Position>
            <AltitudeMeters>58</AltitudeMeters>
            <DistanceMeters>NAN</DistanceMeters>
          </Trackpoint>
          <Trackpoint>
            <Time>2022-07-13T07:45:28.000Z</Time>
            <Position>
              <LatitudeDegrees>43.4029277600347995758056640625</LatitudeDegrees>
              <LongitudeDegrees>-3.3746633492410182952880859375</LongitudeDegrees>
            </Position>
            <AltitudeMeters>58.799999237060546875</AltitudeMeters>
            <DistanceMeters>NAN</DistanceMeters>
          </Trackpoint>
          <Trackpoint>
            <Time>2022-07-13T07:45:37.000Z</Time>
            <Position>
              <LatitudeDegrees>43.40286732651293277740478515625</LatitudeDegrees>
              <LongitudeDegrees>-3.37488706223666667938232421875</LongitudeDegrees>
            </Position>
            <AltitudeMeters>59.59999847412109375</AltitudeMeters>
            <DistanceMeters>NAN</DistanceMeters>
          </Trackpoint>
          <Trackpoint>
            <Time>2022-07-13T07:45:38.000Z</Time>
            <Position>
              <LatitudeDegrees>43.40285961516201496124267578125</LatitudeDegrees>
              <LongitudeDegrees>-3.37490533478558063507080078125</LongitudeDegrees>
            </Position>
            <AltitudeMeters>59.799999237060546875</AltitudeMeters>
            <DistanceMeters>NAN</DistanceMeters>
          </Trackpoint>
          <Trackpoint>
            <Time>2022-07-13T07:45:44.000Z</Time>
            <Position>
              <LatitudeDegrees>43.4028057195246219635009765625</LatitudeDegrees>
              <LongitudeDegrees>-3.37504112161695957183837890625</LongitudeDegrees>
            </Position>
            <AltitudeMeters>60.200000762939453125</AltitudeMeters>
            <DistanceMeters>NAN</DistanceMeters>
          </Trackpoint>
          <Trackpoint>
            <Time>2022-07-13T07:45:50.000Z</Time>
            <Position>
              <LatitudeDegrees>43.4027631394565105438232421875</LatitudeDegrees>
              <LongitudeDegrees>-3.3751619048416614532470703125</LongitudeDegrees>
            </Position>
            <AltitudeMeters>60.799999237060546875</AltitudeMeters>
            <DistanceMeters>NAN</DistanceMeters>
          </Trackpoint>
          <Trackpoint>
            <Time>2022-07-13T07:45:54.000Z</Time>
            <Position>
              <LatitudeDegrees>43.4027302823960781097412109375</LatitudeDegrees>
              <LongitudeDegrees>-3.375256620347499847412109375</LongitudeDegrees>
            </Position>
            <AltitudeMeters>61</AltitudeMeters>
            <DistanceMeters>NAN</DistanceMeters>
          </Trackpoint>
          <Trackpoint>
            <Time>2022-07-13T07:46:01.000Z</Time>
            <Position>
              <LatitudeDegrees>43.402670435607433319091796875</LatitudeDegrees>
              <LongitudeDegrees>-3.3754029683768749237060546875</LongitudeDegrees>
            </Position>
            <AltitudeMeters>61.799999237060546875</AltitudeMeters>
            <DistanceMeters>NAN</DistanceMeters>
          </Trackpoint>
          <Trackpoint>
            <Time>2022-07-13T07:46:02.000Z</Time>
            <Position>
              <LatitudeDegrees>43.402665071189403533935546875</LatitudeDegrees>
              <LongitudeDegrees>-3.37542283348739147186279296875</LongitudeDegrees>
            </Position>
            <AltitudeMeters>61.799999237060546875</AltitudeMeters>
            <DistanceMeters>NAN</DistanceMeters>
          </Trackpoint>
          <Trackpoint>
            <Time>2022-07-13T07:46:09.000Z</Time>
            <Position>
              <LatitudeDegrees>43.4025981836020946502685546875</LatitudeDegrees>
              <LongitudeDegrees>-3.3755481429398059844970703125</LongitudeDegrees>
            </Position>
            <AltitudeMeters>62.59999847412109375</AltitudeMeters>
            <DistanceMeters>NAN</DistanceMeters>
          </Trackpoint>
          <Trackpoint>
            <Time>2022-07-13T07:46:13.000Z</Time>
            <Position>
              <LatitudeDegrees>43.40256876312196254730224609375</LatitudeDegrees>
              <LongitudeDegrees>-3.37562399916350841522216796875</LongitudeDegrees>
            </Position>
            <AltitudeMeters>62.799999237060546875</AltitudeMeters>
            <DistanceMeters>NAN</DistanceMeters>
          </Trackpoint>
          <Trackpoint>
            <Time>2022-07-13T07:46:16.000Z</Time>
            <Position>
              <LatitudeDegrees>43.40255266986787319183349609375</LatitudeDegrees>
              <LongitudeDegrees>-3.3756701834499835968017578125</LongitudeDegrees>
            </Position>
            <AltitudeMeters>63.200000762939453125</AltitudeMeters>
            <DistanceMeters>NAN</DistanceMeters>
          </Trackpoint>
          <Trackpoint>
            <Time>2022-07-13T07:46:25.000Z</Time>
            <Position>
              <LatitudeDegrees>43.40245292522013187408447265625</LatitudeDegrees>
              <LongitudeDegrees>-3.37580622173845767974853515625</LongitudeDegrees>
            </Position>
            <AltitudeMeters>63.799999237060546875</AltitudeMeters>
            <DistanceMeters>NAN</DistanceMeters>
          </Trackpoint>
          <Trackpoint>
            <Time>2022-07-13T07:46:27.000Z</Time>
            <Position>
              <LatitudeDegrees>43.40244789607822895050048828125</LatitudeDegrees>
              <LongitudeDegrees>-3.375853411853313446044921875</LongitudeDegrees>
            </Position>
            <AltitudeMeters>64</AltitudeMeters>
            <DistanceMeters>NAN</DistanceMeters>
          </Trackpoint>
          <Trackpoint>
            <Time>2022-07-13T07:46:36.000Z</Time>
            <Position>
              <LatitudeDegrees>43.40235619805753231048583984375</LatitudeDegrees>
              <LongitudeDegrees>-3.37601124309003353118896484375</LongitudeDegrees>
            </Position>
            <AltitudeMeters>64.59999847412109375</AltitudeMeters>
            <DistanceMeters>NAN</DistanceMeters>
          </Trackpoint>
          <Trackpoint>
            <Time>2022-07-13T07:46:38.000Z</Time>
            <Position>
              <LatitudeDegrees>43.402339518070220947265625</LatitudeDegrees>
              <LongitudeDegrees>-3.3760470338165760040283203125</LongitudeDegrees>
            </Position>
            <AltitudeMeters>65</AltitudeMeters>
            <DistanceMeters>NAN</DistanceMeters>
          </Trackpoint>
          <Trackpoint>
            <Time>2022-07-13T07:46:47.000Z</Time>
            <Position>
              <LatitudeDegrees>43.40226802043616771697998046875</LatitudeDegrees>
              <LongitudeDegrees>-3.3762150071561336517333984375</LongitudeDegrees>
            </Position>
            <AltitudeMeters>65.59999847412109375</AltitudeMeters>
            <DistanceMeters>NAN</DistanceMeters>
          </Trackpoint>
          <Trackpoint>
            <Time>2022-07-13T07:46:50.000Z</Time>
            <Position>
              <LatitudeDegrees>43.4022510051727294921875</LatitudeDegrees>
              <LongitudeDegrees>-3.376274518668651580810546875</LongitudeDegrees>
            </Position>
            <AltitudeMeters>66</AltitudeMeters>
            <DistanceMeters>NAN</DistanceMeters>
          </Trackpoint>
          <Trackpoint>
            <Time>2022-07-13T07:46:57.000Z</Time>
            <Position>
              <LatitudeDegrees>43.4022002108395099639892578125</LatitudeDegrees>
              <LongitudeDegrees>-3.37639463134109973907470703125</LongitudeDegrees>
            </Position>
            <AltitudeMeters>66.40000152587890625</AltitudeMeters>
            <DistanceMeters>NAN</DistanceMeters>
          </Trackpoint>
          <Trackpoint>
            <Time>2022-07-13T07:47:04.000Z</Time>
            <Position>
              <LatitudeDegrees>43.4021557867527008056640625</LatitudeDegrees>
              <LongitudeDegrees>-3.37649923749268054962158203125</LongitudeDegrees>
            </Position>
            <AltitudeMeters>67</AltitudeMeters>
            <DistanceMeters>NAN</DistanceMeters>
          </Trackpoint>
          <Trackpoint>
            <Time>2022-07-13T07:47:13.000Z</Time>
            <Position>
              <LatitudeDegrees>43.4021294675767421722412109375</LatitudeDegrees>
              <LongitudeDegrees>-3.3766418136656284332275390625</LongitudeDegrees>
            </Position>
            <AltitudeMeters>68</AltitudeMeters>
            <DistanceMeters>NAN</DistanceMeters>
          </Trackpoint>
          <Trackpoint>
            <Time>2022-07-13T07:47:15.000Z</Time>
            <Position>
              <LatitudeDegrees>43.40210876427590847015380859375</LatitudeDegrees>
              <LongitudeDegrees>-3.3766796998679637908935546875</LongitudeDegrees>
            </Position>
            <AltitudeMeters>68</AltitudeMeters>
            <DistanceMeters>NAN</DistanceMeters>
          </Trackpoint>
          <Trackpoint>
            <Time>2022-07-13T07:47:17.000Z</Time>
            <Position>
              <LatitudeDegrees>43.402089066803455352783203125</LatitudeDegrees>
              <LongitudeDegrees>-3.37671750225126743316650390625</LongitudeDegrees>
            </Position>
            <AltitudeMeters>68.1999969482421875</AltitudeMeters>
            <DistanceMeters>NAN</DistanceMeters>
          </Trackpoint>
          <Trackpoint>
            <Time>2022-07-13T07:47:19.000Z</Time>
            <Position>
              <LatitudeDegrees>43.402070961892604827880859375</LatitudeDegrees>
              <LongitudeDegrees>-3.37673409841954708099365234375</LongitudeDegrees>
            </Position>
            <AltitudeMeters>68.40000152587890625</AltitudeMeters>
            <DistanceMeters>NAN</DistanceMeters>
          </Trackpoint>
          <Trackpoint>
            <Time>2022-07-13T07:47:20.000Z</Time>
            <Position>
              <LatitudeDegrees>43.402054868638515472412109375</LatitudeDegrees>
              <LongitudeDegrees>-3.37674248032271862030029296875</LongitudeDegrees>
            </Position>
            <AltitudeMeters>68.40000152587890625</AltitudeMeters>
            <DistanceMeters>NAN</DistanceMeters>
          </Trackpoint>
          <Trackpoint>
            <Time>2022-07-13T07:47:26.000Z</Time>
            <Position>
              <LatitudeDegrees>43.40197113342583179473876953125</LatitudeDegrees>
              <LongitudeDegrees>-3.37685060687363147735595703125</LongitudeDegrees>
            </Position>
            <AltitudeMeters>68.8000030517578125</AltitudeMeters>
            <DistanceMeters>NAN</DistanceMeters>
          </Trackpoint>
          <Trackpoint>
            <Time>2022-07-13T07:47:28.000Z</Time>
            <Position>
              <LatitudeDegrees>43.4019474126398563385009765625</LatitudeDegrees>
              <LongitudeDegrees>-3.37689100764691829681396484375</LongitudeDegrees>
            </Position>
            <AltitudeMeters>69.1999969482421875</AltitudeMeters>
            <DistanceMeters>NAN</DistanceMeters>
          </Trackpoint>
          <Trackpoint>
            <Time>2022-07-13T07:47:33.000Z</Time>
            <Position>
              <LatitudeDegrees>43.40191530995070934295654296875</LatitudeDegrees>
              <LongitudeDegrees>-3.37699008174240589141845703125</LongitudeDegrees>
            </Position>
            <AltitudeMeters>69.40000152587890625</AltitudeMeters>
            <DistanceMeters>NAN</DistanceMeters>
          </Trackpoint>
          <Trackpoint>
            <Time>2022-07-13T07:47:41.000Z</Time>
            <Position>
              <LatitudeDegrees>43.40183769352734088897705078125</LatitudeDegrees>
              <LongitudeDegrees>-3.377152942121028900146484375</LongitudeDegrees>
            </Position>
            <AltitudeMeters>70.1999969482421875</AltitudeMeters>
            <DistanceMeters>NAN</DistanceMeters>
          </Trackpoint>
          <Trackpoint>
            <Time>2022-07-13T07:47:50.000Z</Time>
            <Position>
              <LatitudeDegrees>43.4017536230385303497314453125</LatitudeDegrees>
              <LongitudeDegrees>-3.37729954160749912261962890625</LongitudeDegrees>
            </Position>
            <AltitudeMeters>71</AltitudeMeters>
            <DistanceMeters>NAN</DistanceMeters>
          </Trackpoint>
          <Trackpoint>
            <Time>2022-07-13T07:47:55.000Z</Time>
            <Position>
              <LatitudeDegrees>43.40170593000948429107666015625</LatitudeDegrees>
              <LongitudeDegrees>-3.37739543057978153228759765625</LongitudeDegrees>
            </Position>
            <AltitudeMeters>71.1999969482421875</AltitudeMeters>
            <DistanceMeters>NAN</DistanceMeters>
          </Trackpoint>
          <Trackpoint>
            <Time>2022-07-13T07:47:59.000Z</Time>
            <Position>
              <LatitudeDegrees>43.40167156420648097991943359375</LatitudeDegrees>
              <LongitudeDegrees>-3.37746868841350078582763671875</LongitudeDegrees>
            </Position>
            <AltitudeMeters>71.40000152587890625</AltitudeMeters>
            <DistanceMeters>NAN</DistanceMeters>
          </Trackpoint>
          <Trackpoint>
            <Time>2022-07-13T07:48:08.000Z</Time>
            <Position>
              <LatitudeDegrees>43.40158087201416492462158203125</LatitudeDegrees>
              <LongitudeDegrees>-3.37763565592467784881591796875</LongitudeDegrees>
            </Position>
            <AltitudeMeters>72.1999969482421875</AltitudeMeters>
            <DistanceMeters>NAN</DistanceMeters>
          </Trackpoint>
          <Trackpoint>
            <Time>2022-07-13T07:48:09.000Z</Time>
            <Position>
              <LatitudeDegrees>43.40157483704388141632080078125</LatitudeDegrees>
              <LongitudeDegrees>-3.377655185759067535400390625</LongitudeDegrees>
            </Position>
            <AltitudeMeters>72.1999969482421875</AltitudeMeters>
            <DistanceMeters>NAN</DistanceMeters>
          </Trackpoint>
          <Trackpoint>
            <Time>2022-07-13T07:48:10.000Z</Time>
            <Position>
              <LatitudeDegrees>43.40156503021717071533203125</LatitudeDegrees>
              <LongitudeDegrees>-3.377669267356395721435546875</LongitudeDegrees>
            </Position>
            <AltitudeMeters>72.40000152587890625</AltitudeMeters>
            <DistanceMeters>NAN</DistanceMeters>
          </Trackpoint>
          <Trackpoint>
            <Time>2022-07-13T07:48:16.000Z</Time>
            <Position>
              <LatitudeDegrees>43.4014964662492275238037109375</LatitudeDegrees>
              <LongitudeDegrees>-3.37774939835071563720703125</LongitudeDegrees>
            </Position>
            <AltitudeMeters>72.8000030517578125</AltitudeMeters>
            <DistanceMeters>NAN</DistanceMeters>
          </Trackpoint>
          <Trackpoint>
            <Time>2022-07-13T07:48:17.000Z</Time>
            <Position>
              <LatitudeDegrees>43.40148732997477054595947265625</LatitudeDegrees>
              <LongitudeDegrees>-3.3777639828622341156005859375</LongitudeDegrees>
            </Position>
            <AltitudeMeters>72.8000030517578125</AltitudeMeters>
            <DistanceMeters>NAN</DistanceMeters>
          </Trackpoint>
          <Trackpoint>
            <Time>2022-07-13T07:48:22.000Z</Time>
            <Position>
              <LatitudeDegrees>43.40144961141049861907958984375</LatitudeDegrees>
              <LongitudeDegrees>-3.37785936892032623291015625</LongitudeDegrees>
            </Position>
            <AltitudeMeters>73.1999969482421875</AltitudeMeters>
            <DistanceMeters>NAN</DistanceMeters>
          </Trackpoint>
          <Trackpoint>
            <Time>2022-07-13T07:48:24.000Z</Time>
            <Position>
              <LatitudeDegrees>43.401428572833538055419921875</LatitudeDegrees>
              <LongitudeDegrees>-3.37789499200880527496337890625</LongitudeDegrees>
            </Position>
            <AltitudeMeters>73.40000152587890625</AltitudeMeters>
            <DistanceMeters>NAN</DistanceMeters>
          </Trackpoint>
          <Trackpoint>
            <Time>2022-07-13T07:48:30.000Z</Time>
            <Position>
              <LatitudeDegrees>43.401381634175777435302734375</LatitudeDegrees>
              <LongitudeDegrees>-3.37798467837274074554443359375</LongitudeDegrees>
            </Position>
            <AltitudeMeters>73.8000030517578125</AltitudeMeters>
            <DistanceMeters>NAN</DistanceMeters>
          </Trackpoint>
          <Trackpoint>
            <Time>2022-07-13T07:48:36.000Z</Time>
            <Position>
              <LatitudeDegrees>43.40134114958345890045166015625</LatitudeDegrees>
              <LongitudeDegrees>-3.37810210883617401123046875</LongitudeDegrees>
            </Position>
            <AltitudeMeters>74.40000152587890625</AltitudeMeters>
            <DistanceMeters>NAN</DistanceMeters>
          </Trackpoint>
          <Trackpoint>
            <Time>2022-07-13T07:48:41.000Z</Time>
            <Position>
              <LatitudeDegrees>43.40130242519080638885498046875</LatitudeDegrees>
              <LongitudeDegrees>-3.378196321427822113037109375</LongitudeDegrees>
            </Position>
            <AltitudeMeters>74.8000030517578125</AltitudeMeters>
            <DistanceMeters>NAN</DistanceMeters>
          </Trackpoint>
          <Trackpoint>
            <Time>2022-07-13T07:48:49.000Z</Time>
            <Position>
              <LatitudeDegrees>43.40122195892035961151123046875</LatitudeDegrees>
              <LongitudeDegrees>-3.37833118624985218048095703125</LongitudeDegrees>
            </Position>
            <AltitudeMeters>75.40000152587890625</AltitudeMeters>
            <DistanceMeters>NAN</DistanceMeters>
          </Trackpoint>
          <Trackpoint>
            <Time>2022-07-13T07:48:56.000Z</Time>
            <Position>
              <LatitudeDegrees>43.40115222148597240447998046875</LatitudeDegrees>
              <LongitudeDegrees>-3.3784683980047702789306640625</LongitudeDegrees>
            </Position>
            <AltitudeMeters>76</AltitudeMeters>
            <DistanceMeters>NAN</DistanceMeters>
          </Trackpoint>
          <Trackpoint>
            <Time>2022-07-13T07:48:58.000Z</Time>
            <Position>
              <LatitudeDegrees>43.40113311074674129486083984375</LatitudeDegrees>
              <LongitudeDegrees>-3.37850888259708881378173828125</LongitudeDegrees>
            </Position>
            <AltitudeMeters>76.40000152587890625</AltitudeMeters>
            <DistanceMeters>NAN</DistanceMeters>
          </Trackpoint>
          <Trackpoint>
            <Time>2022-07-13T07:49:02.000Z</Time>
            <Position>
              <LatitudeDegrees>43.40106940828263759613037109375</LatitudeDegrees>
              <LongitudeDegrees>-3.37855406105518341064453125</LongitudeDegrees>
            </Position>
            <AltitudeMeters>76.8000030517578125</AltitudeMeters>
            <DistanceMeters>NAN</DistanceMeters>
          </Trackpoint>
          <Trackpoint>
            <Time>2022-07-13T07:49:08.000Z</Time>
            <Position>
              <LatitudeDegrees>43.40101056732237339019775390625</LatitudeDegrees>
              <LongitudeDegrees>-3.37860996834933757781982421875</LongitudeDegrees>
            </Position>
            <AltitudeMeters>77.59999847412109375</AltitudeMeters>
            <DistanceMeters>NAN</DistanceMeters>
          </Trackpoint>
          <Trackpoint>
            <Time>2022-07-13T07:49:16.000Z</Time>
            <Position>
              <LatitudeDegrees>43.4009218029677867889404296875</LatitudeDegrees>
              <LongitudeDegrees>-3.37874944321811199188232421875</LongitudeDegrees>
            </Position>
            <AltitudeMeters>78.40000152587890625</AltitudeMeters>
            <DistanceMeters>NAN</DistanceMeters>
          </Trackpoint>
          <Trackpoint>
            <Time>2022-07-13T07:49:19.000Z</Time>
            <Position>
              <LatitudeDegrees>43.400884754955768585205078125</LatitudeDegrees>
              <LongitudeDegrees>-3.37879872880876064300537109375</LongitudeDegrees>
            </Position>
            <AltitudeMeters>78.59999847412109375</AltitudeMeters>
            <DistanceMeters>NAN</DistanceMeters>
          </Trackpoint>
          <Trackpoint>
            <Time>2022-07-13T07:49:20.000Z</Time>
            <Position>
              <LatitudeDegrees>43.40087092481553554534912109375</LatitudeDegrees>
              <LongitudeDegrees>-3.378809876739978790283203125</LongitudeDegrees>
            </Position>
            <AltitudeMeters>78.8000030517578125</AltitudeMeters>
            <DistanceMeters>NAN</DistanceMeters>
          </Trackpoint>
          <Trackpoint>
            <Time>2022-07-13T07:49:23.000Z</Time>
            <Position>
              <LatitudeDegrees>43.40083010494709014892578125</LatitudeDegrees>
              <LongitudeDegrees>-3.37885689921677112579345703125</LongitudeDegrees>
            </Position>
            <AltitudeMeters>79</AltitudeMeters>
            <DistanceMeters>NAN</DistanceMeters>
          </Trackpoint>
          <Trackpoint>
            <Time>2022-07-13T07:49:30.000Z</Time>
            <Position>
              <LatitudeDegrees>43.40079917572438716888427734375</LatitudeDegrees>
              <LongitudeDegrees>-3.3790346793830394744873046875</LongitudeDegrees>
            </Position>
            <AltitudeMeters>79.59999847412109375</AltitudeMeters>
            <DistanceMeters>NAN</DistanceMeters>
          </Trackpoint>
          <Trackpoint>
            <Time>2022-07-13T07:49:38.000Z</Time>
            <Position>
              <LatitudeDegrees>43.4007545001804828643798828125</LatitudeDegrees>
              <LongitudeDegrees>-3.37915227748453617095947265625</LongitudeDegrees>
            </Position>
            <AltitudeMeters>80.40000152587890625</AltitudeMeters>
            <DistanceMeters>NAN</DistanceMeters>
          </Trackpoint>
          <Trackpoint>
            <Time>2022-07-13T07:49:42.000Z</Time>
            <Position>
              <LatitudeDegrees>43.40073966421186923980712890625</LatitudeDegrees>
              <LongitudeDegrees>-3.3792334981262683868408203125</LongitudeDegrees>
            </Position>
            <AltitudeMeters>80.8000030517578125</AltitudeMeters>
            <DistanceMeters>NAN</DistanceMeters>
          </Trackpoint>
          <Trackpoint>
            <Time>2022-07-13T07:49:43.000Z</Time>
            <Position>
              <LatitudeDegrees>43.400736562907695770263671875</LatitudeDegrees>
              <LongitudeDegrees>-3.3792479149997234344482421875</LongitudeDegrees>
            </Position>
            <AltitudeMeters>80.8000030517578125</AltitudeMeters>
            <DistanceMeters>NAN</DistanceMeters>
          </Trackpoint>
          <Trackpoint>
            <Time>2022-07-13T07:49:44.000Z</Time>
            <Position>
              <LatitudeDegrees>43.40072440914809703826904296875</LatitudeDegrees>
              <LongitudeDegrees>-3.37926610372960567474365234375</LongitudeDegrees>
            </Position>
            <AltitudeMeters>81</AltitudeMeters>
            <DistanceMeters>NAN</DistanceMeters>
          </Trackpoint>
          <Trackpoint>
            <Time>2022-07-13T07:49:51.000Z</Time>
            <Position>
              <LatitudeDegrees>43.4006716869771480560302734375</LatitudeDegrees>
              <LongitudeDegrees>-3.379409350454807281494140625</LongitudeDegrees>
            </Position>
            <AltitudeMeters>81.59999847412109375</AltitudeMeters>
            <DistanceMeters>NAN</DistanceMeters>
          </Trackpoint>
          <Trackpoint>
            <Time>2022-07-13T07:49:52.000Z</Time>
            <Position>
              <LatitudeDegrees>43.40065919794142246246337890625</LatitudeDegrees>
              <LongitudeDegrees>-3.3794282935559749603271484375</LongitudeDegrees>
            </Position>
            <AltitudeMeters>81.59999847412109375</AltitudeMeters>
            <DistanceMeters>NAN</DistanceMeters>
          </Trackpoint>
          <Trackpoint>
            <Time>2022-07-13T07:49:53.000Z</Time>
            <Position>
              <LatitudeDegrees>43.40065081603825092315673828125</LatitudeDegrees>
              <LongitudeDegrees>-3.37944463826715946197509765625</LongitudeDegrees>
            </Position>
            <AltitudeMeters>81.8000030517578125</AltitudeMeters>
            <DistanceMeters>NAN</DistanceMeters>
          </Trackpoint>
          <Trackpoint>
            <Time>2022-07-13T07:49:54.000Z</Time>
            <Position>
              <LatitudeDegrees>43.40064142830669879913330078125</LatitudeDegrees>
              <LongitudeDegrees>-3.379455618560314178466796875</LongitudeDegrees>
            </Position>
            <AltitudeMeters>81.8000030517578125</AltitudeMeters>
            <DistanceMeters>NAN</DistanceMeters>
          </Trackpoint>
          <Trackpoint>
            <Time>2022-07-13T07:49:59.000Z</Time>
            <Position>
              <LatitudeDegrees>43.40060605667531490325927734375</LatitudeDegrees>
              <LongitudeDegrees>-3.37955879978835582733154296875</LongitudeDegrees>
            </Position>
            <AltitudeMeters>82.1999969482421875</AltitudeMeters>
            <DistanceMeters>NAN</DistanceMeters>
          </Trackpoint>
          <Trackpoint>
            <Time>2022-07-13T07:50:07.000Z</Time>
            <Position>
              <LatitudeDegrees>43.40053481049835681915283203125</LatitudeDegrees>
              <LongitudeDegrees>-3.3797223307192325592041015625</LongitudeDegrees>
            </Position>
            <AltitudeMeters>82.59999847412109375</AltitudeMeters>
            <DistanceMeters>NAN</DistanceMeters>
          </Trackpoint>
          <Trackpoint>
            <Time>2022-07-13T07:50:10.000Z</Time>
            <Position>
              <LatitudeDegrees>43.4005110897123813629150390625</LatitudeDegrees>
              <LongitudeDegrees>-3.37976985611021518707275390625</LongitudeDegrees>
            </Position>
            <AltitudeMeters>82.8000030517578125</AltitudeMeters>
            <DistanceMeters>NAN</DistanceMeters>
          </Trackpoint>
          <Trackpoint>
            <Time>2022-07-13T07:50:14.000Z</Time>
            <Position>
              <LatitudeDegrees>43.40047898702323436737060546875</LatitudeDegrees>
              <LongitudeDegrees>-3.37984898127615451812744140625</LongitudeDegrees>
            </Position>
            <AltitudeMeters>83.1999969482421875</AltitudeMeters>
            <DistanceMeters>NAN</DistanceMeters>
          </Trackpoint>
          <Trackpoint>
            <Time>2022-07-13T07:50:21.000Z</Time>
            <Position>
              <LatitudeDegrees>43.4003882110118865966796875</LatitudeDegrees>
              <LongitudeDegrees>-3.3799717761576175689697265625</LongitudeDegrees>
            </Position>
            <AltitudeMeters>83.59999847412109375</AltitudeMeters>
            <DistanceMeters>NAN</DistanceMeters>
          </Trackpoint>
          <Trackpoint>
            <Time>2022-07-13T07:50:27.000Z</Time>
            <Position>
              <LatitudeDegrees>43.4003229998052120208740234375</LatitudeDegrees>
              <LongitudeDegrees>-3.38007210753858089447021484375</LongitudeDegrees>
            </Position>
            <AltitudeMeters>83.8000030517578125</AltitudeMeters>
            <DistanceMeters>NAN</DistanceMeters>
          </Trackpoint>
          <Trackpoint>
            <Time>2022-07-13T07:50:30.000Z</Time>
            <Position>
              <LatitudeDegrees>43.4002862870693206787109375</LatitudeDegrees>
              <LongitudeDegrees>-3.380117118358612060546875</LongitudeDegrees>
            </Position>
            <AltitudeMeters>84</AltitudeMeters>
            <DistanceMeters>NAN</DistanceMeters>
          </Trackpoint>
          <Trackpoint>
            <Time>2022-07-13T07:50:35.000Z</Time>
            <Position>
              <LatitudeDegrees>43.40021797455847263336181640625</LatitudeDegrees>
              <LongitudeDegrees>-3.380169756710529327392578125</LongitudeDegrees>
            </Position>
            <AltitudeMeters>84.1999969482421875</AltitudeMeters>
            <DistanceMeters>NAN</DistanceMeters>
          </Trackpoint>
          <Trackpoint>
            <Time>2022-07-13T07:50:37.000Z</Time>
            <Position>
              <LatitudeDegrees>43.4001919068396091461181640625</LatitudeDegrees>
              <LongitudeDegrees>-3.38020152412354946136474609375</LongitudeDegrees>
            </Position>
            <AltitudeMeters>84.40000152587890625</AltitudeMeters>
            <DistanceMeters>NAN</DistanceMeters>
          </Trackpoint>
          <Trackpoint>
            <Time>2022-07-13T07:50:46.000Z</Time>
            <Position>
              <LatitudeDegrees>43.40006324462592601776123046875</LatitudeDegrees>
              <LongitudeDegrees>-3.38031048886477947235107421875</LongitudeDegrees>
            </Position>
            <AltitudeMeters>84.8000030517578125</AltitudeMeters>
            <DistanceMeters>NAN</DistanceMeters>
          </Trackpoint>
          <Trackpoint>
            <Time>2022-07-13T07:50:48.000Z</Time>
            <Position>
              <LatitudeDegrees>43.4000346623361110687255859375</LatitudeDegrees>
              <LongitudeDegrees>-3.38032607920467853546142578125</LongitudeDegrees>
            </Position>
            <AltitudeMeters>85</AltitudeMeters>
            <DistanceMeters>NAN</DistanceMeters>
          </Trackpoint>
          <Trackpoint>
            <Time>2022-07-13T07:50:53.000Z</Time>
            <Position>
              <LatitudeDegrees>43.39997707866132259368896484375</LatitudeDegrees>
              <LongitudeDegrees>-3.3803875185549259185791015625</LongitudeDegrees>
            </Position>
            <AltitudeMeters>85.1999969482421875</AltitudeMeters>
            <DistanceMeters>NAN</DistanceMeters>
          </Trackpoint>
          <Trackpoint>
            <Time>2022-07-13T07:50:56.000Z</Time>
            <Position>
              <LatitudeDegrees>43.399933911859989166259765625</LatitudeDegrees>
              <LongitudeDegrees>-3.38041593320667743682861328125</LongitudeDegrees>
            </Position>
            <AltitudeMeters>85.40000152587890625</AltitudeMeters>
            <DistanceMeters>NAN</DistanceMeters>
          </Trackpoint>
          <Trackpoint>
            <Time>2022-07-13T07:51:02.000Z</Time>
            <Position>
              <LatitudeDegrees>43.399826623499393463134765625</LatitudeDegrees>
              <LongitudeDegrees>-3.38044761680066585540771484375</LongitudeDegrees>
            </Position>
            <AltitudeMeters>85.8000030517578125</AltitudeMeters>
            <DistanceMeters>NAN</DistanceMeters>
          </Trackpoint>
          <Trackpoint>
            <Time>2022-07-13T07:51:08.000Z</Time>
            <Position>
              <LatitudeDegrees>43.399732410907745361328125</LatitudeDegrees>
              <LongitudeDegrees>-3.38050260208547115325927734375</LongitudeDegrees>
            </Position>
            <AltitudeMeters>86</AltitudeMeters>
            <DistanceMeters>NAN</DistanceMeters>
          </Trackpoint>
          <Trackpoint>
            <Time>2022-07-13T07:51:09.000Z</Time>
            <Position>
              <LatitudeDegrees>43.39971455745398998260498046875</LatitudeDegrees>
              <LongitudeDegrees>-3.3805145882070064544677734375</LongitudeDegrees>
            </Position>
            <AltitudeMeters>86</AltitudeMeters>
            <DistanceMeters>NAN</DistanceMeters>
          </Trackpoint>
          <Trackpoint>
            <Time>2022-07-13T07:51:13.000Z</Time>
            <Position>
              <LatitudeDegrees>43.3996477536857128143310546875</LatitudeDegrees>
              <LongitudeDegrees>-3.38054317049682140350341796875</LongitudeDegrees>
            </Position>
            <AltitudeMeters>86.40000152587890625</AltitudeMeters>
            <DistanceMeters>NAN</DistanceMeters>
          </Trackpoint>
          <Trackpoint>
            <Time>2022-07-13T07:51:17.000Z</Time>
            <Position>
              <LatitudeDegrees>43.39957625605165958404541015625</LatitudeDegrees>
              <LongitudeDegrees>-3.3805766142904758453369140625</LongitudeDegrees>
            </Position>
            <AltitudeMeters>86.59999847412109375</AltitudeMeters>
            <DistanceMeters>NAN</DistanceMeters>
          </Trackpoint>
          <Trackpoint>
            <Time>2022-07-13T07:51:18.000Z</Time>
            <Position>
              <LatitudeDegrees>43.39956142008304595947265625</LatitudeDegrees>
              <LongitudeDegrees>-3.38057535700500011444091796875</LongitudeDegrees>
            </Position>
            <AltitudeMeters>86.59999847412109375</AltitudeMeters>
            <DistanceMeters>NAN</DistanceMeters>
          </Trackpoint>
          <Trackpoint>
            <Time>2022-07-13T07:51:21.000Z</Time>
            <Position>
              <LatitudeDegrees>43.3995186723768711090087890625</LatitudeDegrees>
              <LongitudeDegrees>-3.380617685616016387939453125</LongitudeDegrees>
            </Position>
            <AltitudeMeters>86.8000030517578125</AltitudeMeters>
            <DistanceMeters>NAN</DistanceMeters>
          </Trackpoint>
          <Trackpoint>
            <Time>2022-07-13T07:51:22.000Z</Time>
            <Position>
              <LatitudeDegrees>43.39950333349406719207763671875</LatitudeDegrees>
              <LongitudeDegrees>-3.38063101284205913543701171875</LongitudeDegrees>
            </Position>
            <AltitudeMeters>86.8000030517578125</AltitudeMeters>
            <DistanceMeters>NAN</DistanceMeters>
          </Trackpoint>
          <Trackpoint>
            <Time>2022-07-13T07:51:26.000Z</Time>
            <Position>
              <LatitudeDegrees>43.399442732334136962890625</LatitudeDegrees>
              <LongitudeDegrees>-3.380661271512508392333984375</LongitudeDegrees>
            </Position>
            <AltitudeMeters>87</AltitudeMeters>
            <DistanceMeters>NAN</DistanceMeters>
          </Trackpoint>
          <Trackpoint>
            <Time>2022-07-13T07:51:27.000Z</Time>
            <Position>
              <LatitudeDegrees>43.39942772872745990753173828125</LatitudeDegrees>
              <LongitudeDegrees>-3.3806664682924747467041015625</LongitudeDegrees>
            </Position>
            <AltitudeMeters>87</AltitudeMeters>
            <DistanceMeters>NAN</DistanceMeters>
          </Trackpoint>
          <Trackpoint>
            <Time>2022-07-13T07:51:29.000Z</Time>
            <Position>
              <LatitudeDegrees>43.39939780533313751220703125</LatitudeDegrees>
              <LongitudeDegrees>-3.38067895732820034027099609375</LongitudeDegrees>
            </Position>
            <AltitudeMeters>87.1999969482421875</AltitudeMeters>
            <DistanceMeters>NAN</DistanceMeters>
          </Trackpoint>
          <Trackpoint>
            <Time>2022-07-13T07:51:36.000Z</Time>
            <Position>
              <LatitudeDegrees>43.39931868016719818115234375</LatitudeDegrees>
              <LongitudeDegrees>-3.38077166117727756500244140625</LongitudeDegrees>
            </Position>
            <AltitudeMeters>87.59999847412109375</AltitudeMeters>
            <DistanceMeters>NAN</DistanceMeters>
          </Trackpoint>
          <Trackpoint>
            <Time>2022-07-13T07:51:37.000Z</Time>
            <Position>
              <LatitudeDegrees>43.39931088499724864959716796875</LatitudeDegrees>
              <LongitudeDegrees>-3.38078825734555721282958984375</LongitudeDegrees>
            </Position>
            <AltitudeMeters>87.8000030517578125</AltitudeMeters>
            <DistanceMeters>NAN</DistanceMeters>
          </Trackpoint>
          <Trackpoint>
            <Time>2022-07-13T07:51:43.000Z</Time>
            <Position>
              <LatitudeDegrees>43.399254642426967620849609375</LatitudeDegrees>
              <LongitudeDegrees>-3.38086922653019428253173828125</LongitudeDegrees>
            </Position>
            <AltitudeMeters>88</AltitudeMeters>
            <DistanceMeters>NAN</DistanceMeters>
          </Trackpoint>
          <Trackpoint>
            <Time>2022-07-13T07:51:45.000Z</Time>
            <Position>
              <LatitudeDegrees>43.3992390520870685577392578125</LatitudeDegrees>
              <LongitudeDegrees>-3.3808974735438823699951171875</LongitudeDegrees>
            </Position>
            <AltitudeMeters>88.1999969482421875</AltitudeMeters>
            <DistanceMeters>NAN</DistanceMeters>
          </Trackpoint>
          <Trackpoint>
            <Time>2022-07-13T07:51:56.000Z</Time>
            <Position>
              <LatitudeDegrees>43.39914777316153049468994140625</LatitudeDegrees>
              <LongitudeDegrees>-3.38108162395656108856201171875</LongitudeDegrees>
            </Position>
            <AltitudeMeters>89</AltitudeMeters>
            <DistanceMeters>NAN</DistanceMeters>
          </Trackpoint>
          <Trackpoint>
            <Time>2022-07-13T07:52:05.000Z</Time>
            <Position>
              <LatitudeDegrees>43.3990846574306488037109375</LatitudeDegrees>
              <LongitudeDegrees>-3.3812394551932811737060546875</LongitudeDegrees>
            </Position>
            <AltitudeMeters>89.59999847412109375</AltitudeMeters>
            <DistanceMeters>NAN</DistanceMeters>
          </Trackpoint>
          <Trackpoint>
            <Time>2022-07-13T07:52:13.000Z</Time>
            <Position>
              <LatitudeDegrees>43.39902757667005062103271484375</LatitudeDegrees>
              <LongitudeDegrees>-3.381380774080753326416015625</LongitudeDegrees>
            </Position>
            <AltitudeMeters>90.1999969482421875</AltitudeMeters>
            <DistanceMeters>NAN</DistanceMeters>
          </Trackpoint>
          <Trackpoint>
            <Time>2022-07-13T07:52:18.000Z</Time>
            <Position>
              <LatitudeDegrees>43.39900645427405834197998046875</LatitudeDegrees>
              <LongitudeDegrees>-3.38147255592048168182373046875</LongitudeDegrees>
            </Position>
            <AltitudeMeters>90.59999847412109375</AltitudeMeters>
            <DistanceMeters>NAN</DistanceMeters>
          </Trackpoint>
          <Trackpoint>
            <Time>2022-07-13T07:52:25.000Z</Time>
            <Position>
              <LatitudeDegrees>43.39896672405302524566650390625</LatitudeDegrees>
              <LongitudeDegrees>-3.38159962557256221771240234375</LongitudeDegrees>
            </Position>
            <AltitudeMeters>91.1999969482421875</AltitudeMeters>
            <DistanceMeters>NAN</DistanceMeters>
          </Trackpoint>
          <Trackpoint>
            <Time>2022-07-13T07:52:28.000Z</Time>
            <Position>
              <LatitudeDegrees>43.398954905569553375244140625</LatitudeDegrees>
              <LongitudeDegrees>-3.38165427558124065399169921875</LongitudeDegrees>
            </Position>
            <AltitudeMeters>91.40000152587890625</AltitudeMeters>
            <DistanceMeters>NAN</DistanceMeters>
          </Trackpoint>
          <Trackpoint>
            <Time>2022-07-13T07:52:38.000Z</Time>
            <Position>
              <LatitudeDegrees>43.39892850257456302642822265625</LatitudeDegrees>
              <LongitudeDegrees>-3.38184085674583911895751953125</LongitudeDegrees>
            </Position>
            <AltitudeMeters>92.1999969482421875</AltitudeMeters>
            <DistanceMeters>NAN</DistanceMeters>
          </Trackpoint>
          <Trackpoint>
            <Time>2022-07-13T07:52:47.000Z</Time>
            <Position>
              <LatitudeDegrees>43.398914001882076263427734375</LatitudeDegrees>
              <LongitudeDegrees>-3.3820079080760478973388671875</LongitudeDegrees>
            </Position>
            <AltitudeMeters>93</AltitudeMeters>
            <DistanceMeters>NAN</DistanceMeters>
          </Trackpoint>
          <Trackpoint>
            <Time>2022-07-13T07:52:49.000Z</Time>
            <Position>
              <LatitudeDegrees>43.39891768991947174072265625</LatitudeDegrees>
              <LongitudeDegrees>-3.38204763829708099365234375</LongitudeDegrees>
            </Position>
            <AltitudeMeters>93.1999969482421875</AltitudeMeters>
            <DistanceMeters>NAN</DistanceMeters>
          </Trackpoint>
          <Trackpoint>
            <Time>2022-07-13T07:52:56.000Z</Time>
            <Position>
              <LatitudeDegrees>43.3989373035728931427001953125</LatitudeDegrees>
              <LongitudeDegrees>-3.382180742919445037841796875</LongitudeDegrees>
            </Position>
            <AltitudeMeters>94</AltitudeMeters>
            <DistanceMeters>NAN</DistanceMeters>
          </Trackpoint>
          <Trackpoint>
            <Time>2022-07-13T07:53:01.000Z</Time>
            <Position>
              <LatitudeDegrees>43.39895012788474559783935546875</LatitudeDegrees>
              <LongitudeDegrees>-3.38227671571075916290283203125</LongitudeDegrees>
            </Position>
            <AltitudeMeters>94.40000152587890625</AltitudeMeters>
            <DistanceMeters>NAN</DistanceMeters>
          </Trackpoint>
          <Trackpoint>
            <Time>2022-07-13T07:53:10.000Z</Time>
            <Position>
              <LatitudeDegrees>43.39895666576921939849853515625</LatitudeDegrees>
              <LongitudeDegrees>-3.38243781588971614837646484375</LongitudeDegrees>
            </Position>
            <AltitudeMeters>95</AltitudeMeters>
            <DistanceMeters>NAN</DistanceMeters>
          </Trackpoint>
          <Trackpoint>
            <Time>2022-07-13T07:53:13.000Z</Time>
            <Position>
              <LatitudeDegrees>43.3989621140062808990478515625</LatitudeDegrees>
              <LongitudeDegrees>-3.38249095715582370758056640625</LongitudeDegrees>
            </Position>
            <AltitudeMeters>95.40000152587890625</AltitudeMeters>
            <DistanceMeters>NAN</DistanceMeters>
          </Trackpoint>
          <Trackpoint>
            <Time>2022-07-13T07:53:21.000Z</Time>
            <Position>
              <LatitudeDegrees>43.3989704959094524383544921875</LatitudeDegrees>
              <LongitudeDegrees>-3.3826543204486370086669921875</LongitudeDegrees>
            </Position>
            <AltitudeMeters>96.1999969482421875</AltitudeMeters>
            <DistanceMeters>NAN</DistanceMeters>
          </Trackpoint>
          <Trackpoint>
            <Time>2022-07-13T07:53:24.000Z</Time>
            <Position>
              <LatitudeDegrees>43.3989641256630420684814453125</LatitudeDegrees>
              <LongitudeDegrees>-3.38270620442926883697509765625</LongitudeDegrees>
            </Position>
            <AltitudeMeters>96.40000152587890625</AltitudeMeters>
            <DistanceMeters>NAN</DistanceMeters>
          </Trackpoint>
          <Trackpoint>
            <Time>2022-07-13T07:53:28.000Z</Time>
            <Position>
              <LatitudeDegrees>43.39897175319492816925048828125</LatitudeDegrees>
              <LongitudeDegrees>-3.3827800489962100982666015625</LongitudeDegrees>
            </Position>
            <AltitudeMeters>97</AltitudeMeters>
            <DistanceMeters>NAN</DistanceMeters>
          </Trackpoint>
          <Trackpoint>
            <Time>2022-07-13T07:53:33.000Z</Time>
            <Position>
              <LatitudeDegrees>43.3989800512790679931640625</LatitudeDegrees>
              <LongitudeDegrees>-3.38287602178752422332763671875</LongitudeDegrees>
            </Position>
            <AltitudeMeters>97.40000152587890625</AltitudeMeters>
            <DistanceMeters>NAN</DistanceMeters>
          </Trackpoint>
          <Trackpoint>
            <Time>2022-07-13T07:53:34.000Z</Time>
            <Position>
              <LatitudeDegrees>43.39897762052714824676513671875</LatitudeDegrees>
              <LongitudeDegrees>-3.38288909755647182464599609375</LongitudeDegrees>
            </Position>
            <AltitudeMeters>97.59999847412109375</AltitudeMeters>
            <DistanceMeters>NAN</DistanceMeters>
          </Trackpoint>
          <Trackpoint>
            <Time>2022-07-13T07:53:36.000Z</Time>
            <Position>
              <LatitudeDegrees>43.3989748544991016387939453125</LatitudeDegrees>
              <LongitudeDegrees>-3.3829282410442829132080078125</LongitudeDegrees>
            </Position>
            <AltitudeMeters>97.8000030517578125</AltitudeMeters>
            <DistanceMeters>NAN</DistanceMeters>
          </Trackpoint>
          <Trackpoint>
            <Time>2022-07-13T07:53:43.000Z</Time>
            <Position>
              <LatitudeDegrees>43.3989812247455120086669921875</LatitudeDegrees>
              <LongitudeDegrees>-3.38306612335145473480224609375</LongitudeDegrees>
            </Position>
            <AltitudeMeters>98.40000152587890625</AltitudeMeters>
            <DistanceMeters>NAN</DistanceMeters>
          </Trackpoint>
          <Trackpoint>
            <Time>2022-07-13T07:53:44.000Z</Time>
            <Position>
              <LatitudeDegrees>43.39898047037422657012939453125</LatitudeDegrees>
              <LongitudeDegrees>-3.38308489881455898284912109375</LongitudeDegrees>
            </Position>
            <AltitudeMeters>98.59999847412109375</AltitudeMeters>
            <DistanceMeters>NAN</DistanceMeters>
          </Trackpoint>
          <Trackpoint>
            <Time>2022-07-13T07:53:47.000Z</Time>
            <Position>
              <LatitudeDegrees>43.39898164384067058563232421875</LatitudeDegrees>
              <LongitudeDegrees>-3.38314223103225231170654296875</LongitudeDegrees>
            </Position>
            <AltitudeMeters>99</AltitudeMeters>
            <DistanceMeters>NAN</DistanceMeters>
          </Trackpoint>
          <Trackpoint>
            <Time>2022-07-13T07:53:52.000Z</Time>
            <Position>
              <LatitudeDegrees>43.39898072183132171630859375</LatitudeDegrees>
              <LongitudeDegrees>-3.383236192166805267333984375</LongitudeDegrees>
            </Position>
            <AltitudeMeters>99.1999969482421875</AltitudeMeters>
            <DistanceMeters>NAN</DistanceMeters>
          </Trackpoint>
          <Trackpoint>
            <Time>2022-07-13T07:53:53.000Z</Time>
            <Position>
              <LatitudeDegrees>43.39898080565035343170166015625</LatitudeDegrees>
              <LongitudeDegrees>-3.3832601644098758697509765625</LongitudeDegrees>
            </Position>
            <AltitudeMeters>99.40000152587890625</AltitudeMeters>
            <DistanceMeters>NAN</DistanceMeters>
          </Trackpoint>
          <Trackpoint>
            <Time>2022-07-13T07:53:55.000Z</Time>
            <Position>
              <LatitudeDegrees>43.39897979982197284698486328125</LatitudeDegrees>
              <LongitudeDegrees>-3.38329478166997432708740234375</LongitudeDegrees>
            </Position>
            <AltitudeMeters>99.59999847412109375</AltitudeMeters>
            <DistanceMeters>NAN</DistanceMeters>
          </Trackpoint>
          <Trackpoint>
            <Time>2022-07-13T07:53:56.000Z</Time>
            <Position>
              <LatitudeDegrees>43.398978710174560546875</LatitudeDegrees>
              <LongitudeDegrees>-3.383313305675983428955078125</LongitudeDegrees>
            </Position>
            <AltitudeMeters>99.59999847412109375</AltitudeMeters>
            <DistanceMeters>NAN</DistanceMeters>
          </Trackpoint>
          <Trackpoint>
            <Time>2022-07-13T07:54:03.000Z</Time>
            <Position>
              <LatitudeDegrees>43.39896672405302524566650390625</LatitudeDegrees>
              <LongitudeDegrees>-3.3834363520145416259765625</LongitudeDegrees>
            </Position>
            <AltitudeMeters>100.1999969482421875</AltitudeMeters>
            <DistanceMeters>NAN</DistanceMeters>
          </Trackpoint>
          <Trackpoint>
            <Time>2022-07-13T07:54:04.000Z</Time>
            <Position>
              <LatitudeDegrees>43.39896194636821746826171875</LatitudeDegrees>
              <LongitudeDegrees>-3.383453786373138427734375</LongitudeDegrees>
            </Position>
            <AltitudeMeters>100.40000152587890625</AltitudeMeters>
            <DistanceMeters>NAN</DistanceMeters>
          </Trackpoint>
          <Trackpoint>
            <Time>2022-07-13T07:54:07.000Z</Time>
            <Position>
              <LatitudeDegrees>43.39895834214985370635986328125</LatitudeDegrees>
              <LongitudeDegrees>-3.3835099451243877410888671875</LongitudeDegrees>
            </Position>
            <AltitudeMeters>100.59999847412109375</AltitudeMeters>
            <DistanceMeters>NAN</DistanceMeters>
          </Trackpoint>
          <Trackpoint>
            <Time>2022-07-13T07:54:10.000Z</Time>
            <Position>
              <LatitudeDegrees>43.3989425003528594970703125</LatitudeDegrees>
              <LongitudeDegrees>-3.38356937281787395477294921875</LongitudeDegrees>
            </Position>
            <AltitudeMeters>101</AltitudeMeters>
            <DistanceMeters>NAN</DistanceMeters>
          </Trackpoint>
          <Trackpoint>
            <Time>2022-07-13T07:54:20.000Z</Time>
            <Position>
              <LatitudeDegrees>43.3989309333264827728271484375</LatitudeDegrees>
              <LongitudeDegrees>-3.3837684430181980133056640625</LongitudeDegrees>
            </Position>
            <AltitudeMeters>101.59999847412109375</AltitudeMeters>
            <DistanceMeters>NAN</DistanceMeters>
          </Trackpoint>
          <Trackpoint>
            <Time>2022-07-13T07:54:21.000Z</Time>
            <Position>
              <LatitudeDegrees>43.3989312686026096343994140625</LatitudeDegrees>
              <LongitudeDegrees>-3.3837855421006679534912109375</LongitudeDegrees>
            </Position>
            <AltitudeMeters>101.8000030517578125</AltitudeMeters>
            <DistanceMeters>NAN</DistanceMeters>
          </Trackpoint>
          <Trackpoint>
            <Time>2022-07-13T07:54:30.000Z</Time>
            <Position>
              <LatitudeDegrees>43.39890201576054096221923828125</LatitudeDegrees>
              <LongitudeDegrees>-3.3839352428913116455078125</LongitudeDegrees>
            </Position>
            <AltitudeMeters>102.40000152587890625</AltitudeMeters>
            <DistanceMeters>NAN</DistanceMeters>
          </Trackpoint>
          <Trackpoint>
            <Time>2022-07-13T07:54:31.000Z</Time>
            <Position>
              <LatitudeDegrees>43.3989004231989383697509765625</LatitudeDegrees>
              <LongitudeDegrees>-3.38394907303154468536376953125</LongitudeDegrees>
            </Position>
            <AltitudeMeters>102.40000152587890625</AltitudeMeters>
            <DistanceMeters>NAN</DistanceMeters>
          </Trackpoint>
          <Trackpoint>
            <Time>2022-07-13T07:54:33.000Z</Time>
            <Position>
              <LatitudeDegrees>43.39888391084969043731689453125</LatitudeDegrees>
              <LongitudeDegrees>-3.38398042134940624237060546875</LongitudeDegrees>
            </Position>
            <AltitudeMeters>102.59999847412109375</AltitudeMeters>
            <DistanceMeters>NAN</DistanceMeters>
          </Trackpoint>
          <Trackpoint>
            <Time>2022-07-13T07:54:35.000Z</Time>
            <Position>
              <LatitudeDegrees>43.398875109851360321044921875</LatitudeDegrees>
              <LongitudeDegrees>-3.38401093147695064544677734375</LongitudeDegrees>
            </Position>
            <AltitudeMeters>102.59999847412109375</AltitudeMeters>
            <DistanceMeters>NAN</DistanceMeters>
          </Trackpoint>
          <Trackpoint>
            <Time>2022-07-13T07:54:41.000Z</Time>
            <Position>
              <LatitudeDegrees>43.398869074881076812744140625</LatitudeDegrees>
              <LongitudeDegrees>-3.38411972858011722564697265625</LongitudeDegrees>
            </Position>
            <AltitudeMeters>103.1999969482421875</AltitudeMeters>
            <DistanceMeters>NAN</DistanceMeters>
          </Trackpoint>
          <Trackpoint>
            <Time>2022-07-13T07:54:43.000Z</Time>
            <Position>
              <LatitudeDegrees>43.39886412955820560455322265625</LatitudeDegrees>
              <LongitudeDegrees>-3.38416381739079952239990234375</LongitudeDegrees>
            </Position>
            <AltitudeMeters>103.40000152587890625</AltitudeMeters>
            <DistanceMeters>NAN</DistanceMeters>
          </Trackpoint>
          <Trackpoint>
            <Time>2022-07-13T07:54:47.000Z</Time>
            <Position>
              <LatitudeDegrees>43.39886127971112728118896484375</LatitudeDegrees>
              <LongitudeDegrees>-3.38424243964254856109619140625</LongitudeDegrees>
            </Position>
            <AltitudeMeters>103.59999847412109375</AltitudeMeters>
            <DistanceMeters>NAN</DistanceMeters>
          </Trackpoint>
          <Trackpoint>
            <Time>2022-07-13T07:54:51.000Z</Time>
            <Position>
              <LatitudeDegrees>43.39885289780795574188232421875</LatitudeDegrees>
              <LongitudeDegrees>-3.3843357302248477935791015625</LongitudeDegrees>
            </Position>
            <AltitudeMeters>104.1999969482421875</AltitudeMeters>
            <DistanceMeters>NAN</DistanceMeters>
          </Trackpoint>
          <Trackpoint>
            <Time>2022-07-13T07:54:55.000Z</Time>
            <Position>
              <LatitudeDegrees>43.39885038323700428009033203125</LatitudeDegrees>
              <LongitudeDegrees>-3.3844265900552272796630859375</LongitudeDegrees>
            </Position>
            <AltitudeMeters>104.40000152587890625</AltitudeMeters>
            <DistanceMeters>NAN</DistanceMeters>
          </Trackpoint>
          <Trackpoint>
            <Time>2022-07-13T07:54:57.000Z</Time>
            <Position>
              <LatitudeDegrees>43.3988551609218120574951171875</LatitudeDegrees>
              <LongitudeDegrees>-3.3844661526381969451904296875</LongitudeDegrees>
            </Position>
            <AltitudeMeters>104.59999847412109375</AltitudeMeters>
            <DistanceMeters>NAN</DistanceMeters>
          </Trackpoint>
          <Trackpoint>
            <Time>2022-07-13T07:54:59.000Z</Time>
            <Position>
              <LatitudeDegrees>43.39884929358959197998046875</LatitudeDegrees>
              <LongitudeDegrees>-3.38450722396373748779296875</LongitudeDegrees>
            </Position>
            <AltitudeMeters>104.8000030517578125</AltitudeMeters>
            <DistanceMeters>NAN</DistanceMeters>
          </Trackpoint>
          <Trackpoint>
            <Time>2022-07-13T07:55:00.000Z</Time>
            <Position>
              <LatitudeDegrees>43.39884619228541851043701171875</LatitudeDegrees>
              <LongitudeDegrees>-3.3845271728932857513427734375</LongitudeDegrees>
            </Position>
            <AltitudeMeters>104.8000030517578125</AltitudeMeters>
            <DistanceMeters>NAN</DistanceMeters>
          </Trackpoint>
          <Trackpoint>
            <Time>2022-07-13T07:55:02.000Z</Time>
            <Position>
              <LatitudeDegrees>43.39884149841964244842529296875</LatitudeDegrees>
              <LongitudeDegrees>-3.3845615386962890625</LongitudeDegrees>
            </Position>
            <AltitudeMeters>105</AltitudeMeters>
            <DistanceMeters>NAN</DistanceMeters>
          </Trackpoint>
          <Trackpoint>
            <Time>2022-07-13T07:55:07.000Z</Time>
            <Position>
              <LatitudeDegrees>43.39884116314351558685302734375</LatitudeDegrees>
              <LongitudeDegrees>-3.38464393280446529388427734375</LongitudeDegrees>
            </Position>
            <AltitudeMeters>105.1999969482421875</AltitudeMeters>
            <DistanceMeters>NAN</DistanceMeters>
          </Trackpoint>
          <Trackpoint>
            <Time>2022-07-13T07:55:13.000Z</Time>
            <Position>
              <LatitudeDegrees>43.398818112909793853759765625</LatitudeDegrees>
              <LongitudeDegrees>-3.384730517864227294921875</LongitudeDegrees>
            </Position>
            <AltitudeMeters>105.8000030517578125</AltitudeMeters>
            <DistanceMeters>NAN</DistanceMeters>
          </Trackpoint>
          <Trackpoint>
            <Time>2022-07-13T07:55:16.000Z</Time>
            <Position>
              <LatitudeDegrees>43.39880361221730709075927734375</LatitudeDegrees>
              <LongitudeDegrees>-3.384769074618816375732421875</LongitudeDegrees>
            </Position>
            <AltitudeMeters>106</AltitudeMeters>
            <DistanceMeters>NAN</DistanceMeters>
          </Trackpoint>
          <Trackpoint>
            <Time>2022-07-13T07:55:19.000Z</Time>
            <Position>
              <LatitudeDegrees>43.39879221282899379730224609375</LatitudeDegrees>
              <LongitudeDegrees>-3.38481433689594268798828125</LongitudeDegrees>
            </Position>
            <AltitudeMeters>106.1999969482421875</AltitudeMeters>
            <DistanceMeters>NAN</DistanceMeters>
          </Trackpoint>
          <Trackpoint>
            <Time>2022-07-13T07:55:21.000Z</Time>
            <Position>
              <LatitudeDegrees>43.39878366328775882720947265625</LatitudeDegrees>
              <LongitudeDegrees>-3.38484995998442173004150390625</LongitudeDegrees>
            </Position>
            <AltitudeMeters>106.40000152587890625</AltitudeMeters>
            <DistanceMeters>NAN</DistanceMeters>
          </Trackpoint>
          <Trackpoint>
            <Time>2022-07-13T07:55:23.000Z</Time>
            <Position>
              <LatitudeDegrees>43.39876639656722545623779296875</LatitudeDegrees>
              <LongitudeDegrees>-3.384881727397441864013671875</LongitudeDegrees>
            </Position>
            <AltitudeMeters>106.40000152587890625</AltitudeMeters>
            <DistanceMeters>NAN</DistanceMeters>
          </Trackpoint>
          <Trackpoint>
            <Time>2022-07-13T07:55:25.000Z</Time>
            <Position>
              <LatitudeDegrees>43.39875415898859500885009765625</LatitudeDegrees>
              <LongitudeDegrees>-3.3849097229540348052978515625</LongitudeDegrees>
            </Position>
            <AltitudeMeters>106.59999847412109375</AltitudeMeters>
            <DistanceMeters>NAN</DistanceMeters>
          </Trackpoint>
          <Trackpoint>
            <Time>2022-07-13T07:55:27.000Z</Time>
            <Position>
              <LatitudeDegrees>43.39875541627407073974609375</LatitudeDegrees>
              <LongitudeDegrees>-3.38495054282248020172119140625</LongitudeDegrees>
            </Position>
            <AltitudeMeters>106.8000030517578125</AltitudeMeters>
            <DistanceMeters>NAN</DistanceMeters>
          </Trackpoint>
          <Trackpoint>
            <Time>2022-07-13T07:55:28.000Z</Time>
            <Position>
              <LatitudeDegrees>43.39875382371246814727783203125</LatitudeDegrees>
              <LongitudeDegrees>-3.38496864773333072662353515625</LongitudeDegrees>
            </Position>
            <AltitudeMeters>107</AltitudeMeters>
            <DistanceMeters>NAN</DistanceMeters>
          </Trackpoint>
          <Trackpoint>
            <Time>2022-07-13T07:55:30.000Z</Time>
            <Position>
              <LatitudeDegrees>43.39875876903533935546875</LatitudeDegrees>
              <LongitudeDegrees>-3.38500603102147579193115234375</LongitudeDegrees>
            </Position>
            <AltitudeMeters>107</AltitudeMeters>
            <DistanceMeters>NAN</DistanceMeters>
          </Trackpoint>
          <Trackpoint>
            <Time>2022-07-13T07:55:32.000Z</Time>
            <Position>
              <LatitudeDegrees>43.39875407516956329345703125</LatitudeDegrees>
              <LongitudeDegrees>-3.38502815924584865570068359375</LongitudeDegrees>
            </Position>
            <AltitudeMeters>107</AltitudeMeters>
            <DistanceMeters>NAN</DistanceMeters>
          </Trackpoint>
          <Trackpoint>
            <Time>2022-07-13T07:55:34.000Z</Time>
            <Position>
              <LatitudeDegrees>43.39875382371246814727783203125</LatitudeDegrees>
              <LongitudeDegrees>-3.385047353804111480712890625</LongitudeDegrees>
            </Position>
            <AltitudeMeters>107.1999969482421875</AltitudeMeters>
            <DistanceMeters>NAN</DistanceMeters>
          </Trackpoint>
          <Trackpoint>
            <Time>2022-07-13T07:55:35.000Z</Time>
            <Position>
              <LatitudeDegrees>43.3987482078373432159423828125</LatitudeDegrees>
              <LongitudeDegrees>-3.38506202213466167449951171875</LongitudeDegrees>
            </Position>
            <AltitudeMeters>107.40000152587890625</AltitudeMeters>
            <DistanceMeters>NAN</DistanceMeters>
          </Trackpoint>
          <Trackpoint>
            <Time>2022-07-13T07:55:40.000Z</Time>
            <Position>
              <LatitudeDegrees>43.398739993572235107421875</LatitudeDegrees>
              <LongitudeDegrees>-3.3851477690041065216064453125</LongitudeDegrees>
            </Position>
            <AltitudeMeters>107.8000030517578125</AltitudeMeters>
            <DistanceMeters>NAN</DistanceMeters>
          </Trackpoint>
          <Trackpoint>
            <Time>2022-07-13T07:55:42.000Z</Time>
            <Position>
              <LatitudeDegrees>43.398738987743854522705078125</LatitudeDegrees>
              <LongitudeDegrees>-3.38519294746220111846923828125</LongitudeDegrees>
            </Position>
            <AltitudeMeters>108</AltitudeMeters>
            <DistanceMeters>NAN</DistanceMeters>
          </Trackpoint>
          <Trackpoint>
            <Time>2022-07-13T07:55:43.000Z</Time>
            <Position>
              <LatitudeDegrees>43.39873219840228557586669921875</LatitudeDegrees>
              <LongitudeDegrees>-3.3852097950875759124755859375</LongitudeDegrees>
            </Position>
            <AltitudeMeters>108</AltitudeMeters>
            <DistanceMeters>NAN</DistanceMeters>
          </Trackpoint>
          <Trackpoint>
            <Time>2022-07-13T07:55:50.000Z</Time>
            <Position>
              <LatitudeDegrees>43.3987113274633884429931640625</LatitudeDegrees>
              <LongitudeDegrees>-3.38533937931060791015625</LongitudeDegrees>
            </Position>
            <AltitudeMeters>108.8000030517578125</AltitudeMeters>
            <DistanceMeters>NAN</DistanceMeters>
          </Trackpoint>
          <Trackpoint>
            <Time>2022-07-13T07:55:53.000Z</Time>
            <Position>
              <LatitudeDegrees>43.3987104892730712890625</LatitudeDegrees>
              <LongitudeDegrees>-3.38540308177471160888671875</LongitudeDegrees>
            </Position>
            <AltitudeMeters>109</AltitudeMeters>
            <DistanceMeters>NAN</DistanceMeters>
          </Trackpoint>
          <Trackpoint>
            <Time>2022-07-13T07:55:58.000Z</Time>
            <Position>
              <LatitudeDegrees>43.3986876904964447021484375</LatitudeDegrees>
              <LongitudeDegrees>-3.38551246561110019683837890625</LongitudeDegrees>
            </Position>
            <AltitudeMeters>109.1999969482421875</AltitudeMeters>
            <DistanceMeters>NAN</DistanceMeters>
          </Trackpoint>
          <Trackpoint>
            <Time>2022-07-13T07:56:08.000Z</Time>
            <Position>
              <LatitudeDegrees>43.398673273622989654541015625</LatitudeDegrees>
              <LongitudeDegrees>-3.38569200597703456878662109375</LongitudeDegrees>
            </Position>
            <AltitudeMeters>110</AltitudeMeters>
            <DistanceMeters>NAN</DistanceMeters>
          </Trackpoint>
          <Trackpoint>
            <Time>2022-07-13T07:56:18.000Z</Time>
            <Position>
              <LatitudeDegrees>43.39866028167307376861572265625</LatitudeDegrees>
              <LongitudeDegrees>-3.38590272702276706695556640625</LongitudeDegrees>
            </Position>
            <AltitudeMeters>110.8000030517578125</AltitudeMeters>
            <DistanceMeters>NAN</DistanceMeters>
          </Trackpoint>
          <Trackpoint>
            <Time>2022-07-13T07:56:22.000Z</Time>
            <Position>
              <LatitudeDegrees>43.3986489661037921905517578125</LatitudeDegrees>
              <LongitudeDegrees>-3.3859737217426300048828125</LongitudeDegrees>
            </Position>
            <AltitudeMeters>111.1999969482421875</AltitudeMeters>
            <DistanceMeters>NAN</DistanceMeters>
          </Trackpoint>
          <Trackpoint>
            <Time>2022-07-13T07:56:26.000Z</Time>
            <Position>
              <LatitudeDegrees>43.39864888228476047515869140625</LatitudeDegrees>
              <LongitudeDegrees>-3.38604471646249294281005859375</LongitudeDegrees>
            </Position>
            <AltitudeMeters>111.40000152587890625</AltitudeMeters>
            <DistanceMeters>NAN</DistanceMeters>
          </Trackpoint>
          <Trackpoint>
            <Time>2022-07-13T07:56:34.000Z</Time>
            <Position>
              <LatitudeDegrees>43.3986313641071319580078125</LatitudeDegrees>
              <LongitudeDegrees>-3.38618695735931396484375</LongitudeDegrees>
            </Position>
            <AltitudeMeters>112.1999969482421875</AltitudeMeters>
            <DistanceMeters>NAN</DistanceMeters>
          </Trackpoint>
          <Trackpoint>
            <Time>2022-07-13T07:56:44.000Z</Time>
            <Position>
              <LatitudeDegrees>43.3985664881765842437744140625</LatitudeDegrees>
              <LongitudeDegrees>-3.3863661624491214752197265625</LongitudeDegrees>
            </Position>
            <AltitudeMeters>113</AltitudeMeters>
            <DistanceMeters>NAN</DistanceMeters>
          </Trackpoint>
          <Trackpoint>
            <Time>2022-07-13T07:56:47.000Z</Time>
            <Position>
              <LatitudeDegrees>43.3985460363328456878662109375</LatitudeDegrees>
              <LongitudeDegrees>-3.38640815578401088714599609375</LongitudeDegrees>
            </Position>
            <AltitudeMeters>113.1999969482421875</AltitudeMeters>
            <DistanceMeters>NAN</DistanceMeters>
          </Trackpoint>
          <Trackpoint>
            <Time>2022-07-13T07:56:54.000Z</Time>
            <Position>
              <LatitudeDegrees>43.39849800802767276763916015625</LatitudeDegrees>
              <LongitudeDegrees>-3.38652558624744415283203125</LongitudeDegrees>
            </Position>
            <AltitudeMeters>113.59999847412109375</AltitudeMeters>
            <DistanceMeters>NAN</DistanceMeters>
          </Trackpoint>
          <Trackpoint>
            <Time>2022-07-13T07:57:01.000Z</Time>
            <Position>
              <LatitudeDegrees>43.39846749790012836456298828125</LatitudeDegrees>
              <LongitudeDegrees>-3.3866605348885059356689453125</LongitudeDegrees>
            </Position>
            <AltitudeMeters>114.1999969482421875</AltitudeMeters>
            <DistanceMeters>NAN</DistanceMeters>
          </Trackpoint>
          <Trackpoint>
            <Time>2022-07-13T07:57:02.000Z</Time>
            <Position>
              <LatitudeDegrees>43.39846230112016201019287109375</LatitudeDegrees>
              <LongitudeDegrees>-3.386678136885166168212890625</LongitudeDegrees>
            </Position>
            <AltitudeMeters>114.1999969482421875</AltitudeMeters>
            <DistanceMeters>NAN</DistanceMeters>
          </Trackpoint>
          <Trackpoint>
            <Time>2022-07-13T07:57:09.000Z</Time>
            <Position>
              <LatitudeDegrees>43.398425839841365814208984375</LatitudeDegrees>
              <LongitudeDegrees>-3.3868000097572803497314453125</LongitudeDegrees>
            </Position>
            <AltitudeMeters>115</AltitudeMeters>
            <DistanceMeters>NAN</DistanceMeters>
          </Trackpoint>
          <Trackpoint>
            <Time>2022-07-13T07:57:15.000Z</Time>
            <Position>
              <LatitudeDegrees>43.398383595049381256103515625</LatitudeDegrees>
              <LongitudeDegrees>-3.38690101169049739837646484375</LongitudeDegrees>
            </Position>
            <AltitudeMeters>115.40000152587890625</AltitudeMeters>
            <DistanceMeters>NAN</DistanceMeters>
          </Trackpoint>
          <Trackpoint>
            <Time>2022-07-13T07:57:17.000Z</Time>
            <Position>
              <LatitudeDegrees>43.3983693458139896392822265625</LatitudeDegrees>
              <LongitudeDegrees>-3.3869393169879913330078125</LongitudeDegrees>
            </Position>
            <AltitudeMeters>115.59999847412109375</AltitudeMeters>
            <DistanceMeters>NAN</DistanceMeters>
          </Trackpoint>
          <Trackpoint>
            <Time>2022-07-13T07:57:25.000Z</Time>
            <Position>
              <LatitudeDegrees>43.39833020232617855072021484375</LatitudeDegrees>
              <LongitudeDegrees>-3.38707921095192432403564453125</LongitudeDegrees>
            </Position>
            <AltitudeMeters>116</AltitudeMeters>
            <DistanceMeters>NAN</DistanceMeters>
          </Trackpoint>
          <Trackpoint>
            <Time>2022-07-13T07:57:30.000Z</Time>
            <Position>
              <LatitudeDegrees>43.39830757118761539459228515625</LatitudeDegrees>
              <LongitudeDegrees>-3.38717761449515819549560546875</LongitudeDegrees>
            </Position>
            <AltitudeMeters>116.40000152587890625</AltitudeMeters>
            <DistanceMeters>NAN</DistanceMeters>
          </Trackpoint>
          <Trackpoint>
            <Time>2022-07-13T07:57:33.000Z</Time>
            <Position>
              <LatitudeDegrees>43.39828762225806713104248046875</LatitudeDegrees>
              <LongitudeDegrees>-3.38724366389214992523193359375</LongitudeDegrees>
            </Position>
            <AltitudeMeters>116.59999847412109375</AltitudeMeters>
            <DistanceMeters>NAN</DistanceMeters>
          </Trackpoint>
          <Trackpoint>
            <Time>2022-07-13T07:57:38.000Z</Time>
            <Position>
              <LatitudeDegrees>43.39827354066073894500732421875</LatitudeDegrees>
              <LongitudeDegrees>-3.387332260608673095703125</LongitudeDegrees>
            </Position>
            <AltitudeMeters>117</AltitudeMeters>
            <DistanceMeters>NAN</DistanceMeters>
          </Trackpoint>
          <Trackpoint>
            <Time>2022-07-13T07:57:43.000Z</Time>
            <Position>
              <LatitudeDegrees>43.39824286289513111114501953125</LatitudeDegrees>
              <LongitudeDegrees>-3.38741348125040531158447265625</LongitudeDegrees>
            </Position>
            <AltitudeMeters>117.40000152587890625</AltitudeMeters>
            <DistanceMeters>NAN</DistanceMeters>
          </Trackpoint>
          <Trackpoint>
            <Time>2022-07-13T07:57:44.000Z</Time>
            <Position>
              <LatitudeDegrees>43.3982355706393718719482421875</LatitudeDegrees>
              <LongitudeDegrees>-3.38743510656058788299560546875</LongitudeDegrees>
            </Position>
            <AltitudeMeters>117.59999847412109375</AltitudeMeters>
            <DistanceMeters>NAN</DistanceMeters>
          </Trackpoint>
          <Trackpoint>
            <Time>2022-07-13T07:57:53.000Z</Time>
            <Position>
              <LatitudeDegrees>43.3981829322874546051025390625</LatitudeDegrees>
              <LongitudeDegrees>-3.38756955228745937347412109375</LongitudeDegrees>
            </Position>
            <AltitudeMeters>118.1999969482421875</AltitudeMeters>
            <DistanceMeters>NAN</DistanceMeters>
          </Trackpoint>
          <Trackpoint>
            <Time>2022-07-13T07:57:54.000Z</Time>
            <Position>
              <LatitudeDegrees>43.39817740023136138916015625</LatitudeDegrees>
              <LongitudeDegrees>-3.38758480735123157501220703125</LongitudeDegrees>
            </Position>
            <AltitudeMeters>118.40000152587890625</AltitudeMeters>
            <DistanceMeters>NAN</DistanceMeters>
          </Trackpoint>
          <Trackpoint>
            <Time>2022-07-13T07:57:56.000Z</Time>
            <Position>
              <LatitudeDegrees>43.39817077852785587310791015625</LatitudeDegrees>
              <LongitudeDegrees>-3.38762587867677211761474609375</LongitudeDegrees>
            </Position>
            <AltitudeMeters>118.59999847412109375</AltitudeMeters>
            <DistanceMeters>NAN</DistanceMeters>
          </Trackpoint>
          <Trackpoint>
            <Time>2022-07-13T07:57:59.000Z</Time>
            <Position>
              <LatitudeDegrees>43.398162983357906341552734375</LatitudeDegrees>
              <LongitudeDegrees>-3.38768832385540008544921875</LongitudeDegrees>
            </Position>
            <AltitudeMeters>118.8000030517578125</AltitudeMeters>
            <DistanceMeters>NAN</DistanceMeters>
          </Trackpoint>
          <Trackpoint>
            <Time>2022-07-13T07:58:06.000Z</Time>
            <Position>
              <LatitudeDegrees>43.39814915321767330169677734375</LatitudeDegrees>
              <LongitudeDegrees>-3.3878190815448760986328125</LongitudeDegrees>
            </Position>
            <AltitudeMeters>119.1999969482421875</AltitudeMeters>
            <DistanceMeters>NAN</DistanceMeters>
          </Trackpoint>
          <Trackpoint>
            <Time>2022-07-13T07:58:09.000Z</Time>
            <Position>
              <LatitudeDegrees>43.3981359936296939849853515625</LatitudeDegrees>
              <LongitudeDegrees>-3.38786560110747814178466796875</LongitudeDegrees>
            </Position>
            <AltitudeMeters>119.40000152587890625</AltitudeMeters>
            <DistanceMeters>NAN</DistanceMeters>
          </Trackpoint>
          <Trackpoint>
            <Time>2022-07-13T07:58:10.000Z</Time>
            <Position>
              <LatitudeDegrees>43.3981336466968059539794921875</LatitudeDegrees>
              <LongitudeDegrees>-3.3878839574754238128662109375</LongitudeDegrees>
            </Position>
            <AltitudeMeters>119.59999847412109375</AltitudeMeters>
            <DistanceMeters>NAN</DistanceMeters>
          </Trackpoint>
          <Trackpoint>
            <Time>2022-07-13T07:58:12.000Z</Time>
            <Position>
              <LatitudeDegrees>43.39813624508678913116455078125</LatitudeDegrees>
              <LongitudeDegrees>-3.3879265375435352325439453125</LongitudeDegrees>
            </Position>
            <AltitudeMeters>119.59999847412109375</AltitudeMeters>
            <DistanceMeters>NAN</DistanceMeters>
          </Trackpoint>
          <Trackpoint>
            <Time>2022-07-13T07:58:19.000Z</Time>
            <Position>
              <LatitudeDegrees>43.39814177714288234710693359375</LatitudeDegrees>
              <LongitudeDegrees>-3.3881033957004547119140625</LongitudeDegrees>
            </Position>
            <AltitudeMeters>120.40000152587890625</AltitudeMeters>
            <DistanceMeters>NAN</DistanceMeters>
          </Trackpoint>
          <Trackpoint>
            <Time>2022-07-13T07:58:20.000Z</Time>
            <Position>
              <LatitudeDegrees>43.39814295060932636260986328125</LatitudeDegrees>
              <LongitudeDegrees>-3.3881260268390178680419921875</LongitudeDegrees>
            </Position>
            <AltitudeMeters>120.40000152587890625</AltitudeMeters>
            <DistanceMeters>NAN</DistanceMeters>
          </Trackpoint>
          <Trackpoint>
            <Time>2022-07-13T07:58:23.000Z</Time>
            <Position>
              <LatitudeDegrees>43.39815200306475162506103515625</LatitudeDegrees>
              <LongitudeDegrees>-3.38820272125303745269775390625</LongitudeDegrees>
            </Position>
            <AltitudeMeters>120.59999847412109375</AltitudeMeters>
            <DistanceMeters>NAN</DistanceMeters>
          </Trackpoint>
          <Trackpoint>
            <Time>2022-07-13T07:58:29.000Z</Time>
            <Position>
              <LatitudeDegrees>43.3981839381158351898193359375</LatitudeDegrees>
              <LongitudeDegrees>-3.3883474767208099365234375</LongitudeDegrees>
            </Position>
            <AltitudeMeters>121.40000152587890625</AltitudeMeters>
            <DistanceMeters>NAN</DistanceMeters>
          </Trackpoint>
          <Trackpoint>
            <Time>2022-07-13T07:58:33.000Z</Time>
            <Position>
              <LatitudeDegrees>43.398193158209323883056640625</LatitudeDegrees>
              <LongitudeDegrees>-3.388434983789920806884765625</LongitudeDegrees>
            </Position>
            <AltitudeMeters>121.8000030517578125</AltitudeMeters>
            <DistanceMeters>NAN</DistanceMeters>
          </Trackpoint>
          <Trackpoint>
            <Time>2022-07-13T07:58:40.000Z</Time>
            <Position>
              <LatitudeDegrees>43.3982075750827789306640625</LatitudeDegrees>
              <LongitudeDegrees>-3.3885786496102809906005859375</LongitudeDegrees>
            </Position>
            <AltitudeMeters>122.40000152587890625</AltitudeMeters>
            <DistanceMeters>NAN</DistanceMeters>
          </Trackpoint>
          <Trackpoint>
            <Time>2022-07-13T07:58:43.000Z</Time>
            <Position>
              <LatitudeDegrees>43.398214280605316162109375</LatitudeDegrees>
              <LongitudeDegrees>-3.38864411227405071258544921875</LongitudeDegrees>
            </Position>
            <AltitudeMeters>122.8000030517578125</AltitudeMeters>
            <DistanceMeters>NAN</DistanceMeters>
          </Trackpoint>
          <Trackpoint>
            <Time>2022-07-13T07:58:49.000Z</Time>
            <Position>
              <LatitudeDegrees>43.39823632501065731048583984375</LatitudeDegrees>
              <LongitudeDegrees>-3.388775624334812164306640625</LongitudeDegrees>
            </Position>
            <AltitudeMeters>123.40000152587890625</AltitudeMeters>
            <DistanceMeters>NAN</DistanceMeters>
          </Trackpoint>
          <Trackpoint>
            <Time>2022-07-13T07:58:55.000Z</Time>
            <Position>
              <LatitudeDegrees>43.398251496255397796630859375</LatitudeDegrees>
              <LongitudeDegrees>-3.388883583247661590576171875</LongitudeDegrees>
            </Position>
            <AltitudeMeters>123.8000030517578125</AltitudeMeters>
            <DistanceMeters>NAN</DistanceMeters>
          </Trackpoint>
          <Trackpoint>
            <Time>2022-07-13T07:58:59.000Z</Time>
            <Position>
              <LatitudeDegrees>43.39825660921633243560791015625</LatitudeDegrees>
              <LongitudeDegrees>-3.38896161876618862152099609375</LongitudeDegrees>
            </Position>
            <AltitudeMeters>124.1999969482421875</AltitudeMeters>
            <DistanceMeters>NAN</DistanceMeters>
          </Trackpoint>
          <Trackpoint>
            <Time>2022-07-13T07:59:06.000Z</Time>
            <Position>
              <LatitudeDegrees>43.39826817624270915985107421875</LatitudeDegrees>
              <LongitudeDegrees>-3.3890845812857151031494140625</LongitudeDegrees>
            </Position>
            <AltitudeMeters>125</AltitudeMeters>
            <DistanceMeters>NAN</DistanceMeters>
          </Trackpoint>
          <Trackpoint>
            <Time>2022-07-13T07:59:08.000Z</Time>
            <Position>
              <LatitudeDegrees>43.3982692658901214599609375</LatitudeDegrees>
              <LongitudeDegrees>-3.38912003673613071441650390625</LongitudeDegrees>
            </Position>
            <AltitudeMeters>125.1999969482421875</AltitudeMeters>
            <DistanceMeters>NAN</DistanceMeters>
          </Trackpoint>
          <Trackpoint>
            <Time>2022-07-13T07:59:15.000Z</Time>
            <Position>
              <LatitudeDegrees>43.39828602969646453857421875</LatitudeDegrees>
              <LongitudeDegrees>-3.38924626819789409637451171875</LongitudeDegrees>
            </Position>
            <AltitudeMeters>125.8000030517578125</AltitudeMeters>
            <DistanceMeters>NAN</DistanceMeters>
          </Trackpoint>
          <Trackpoint>
            <Time>2022-07-13T07:59:16.000Z</Time>
            <Position>
              <LatitudeDegrees>43.398289717733860015869140625</LatitudeDegrees>
              <LongitudeDegrees>-3.38926487602293491363525390625</LongitudeDegrees>
            </Position>
            <AltitudeMeters>126</AltitudeMeters>
            <DistanceMeters>NAN</DistanceMeters>
          </Trackpoint>
          <Trackpoint>
            <Time>2022-07-13T07:59:19.000Z</Time>
            <Position>
              <LatitudeDegrees>43.39829231612384319305419921875</LatitudeDegrees>
              <LongitudeDegrees>-3.3893068693578243255615234375</LongitudeDegrees>
            </Position>
            <AltitudeMeters>126.1999969482421875</AltitudeMeters>
            <DistanceMeters>NAN</DistanceMeters>
          </Trackpoint>
          <Trackpoint>
            <Time>2022-07-13T07:59:21.000Z</Time>
            <Position>
              <LatitudeDegrees>43.39829164557158946990966796875</LatitudeDegrees>
              <LongitudeDegrees>-3.38931147940456867218017578125</LongitudeDegrees>
            </Position>
            <AltitudeMeters>126.1999969482421875</AltitudeMeters>
            <DistanceMeters>NAN</DistanceMeters>
          </Trackpoint>
          <Trackpoint>
            <Time>2022-07-13T08:01:04.000Z</Time>
            <Position>
              <LatitudeDegrees>43.39828309603035449981689453125</LatitudeDegrees>
              <LongitudeDegrees>-3.38936612941324710845947265625</LongitudeDegrees>
            </Position>
            <AltitudeMeters>127.8000030517578125</AltitudeMeters>
            <DistanceMeters>NAN</DistanceMeters>
          </Trackpoint>
          <Trackpoint>
            <Time>2022-07-13T08:01:05.000Z</Time>
            <Position>
              <LatitudeDegrees>43.3982799947261810302734375</LatitudeDegrees>
              <LongitudeDegrees>-3.3893930353224277496337890625</LongitudeDegrees>
            </Position>
            <AltitudeMeters>127.8000030517578125</AltitudeMeters>
            <DistanceMeters>NAN</DistanceMeters>
          </Trackpoint>
          <Trackpoint>
            <Time>2022-07-13T08:01:11.000Z</Time>
            <Position>
              <LatitudeDegrees>43.398268260061740875244140625</LatitudeDegrees>
              <LongitudeDegrees>-3.3895075321197509765625</LongitudeDegrees>
            </Position>
            <AltitudeMeters>128.399993896484375</AltitudeMeters>
            <DistanceMeters>NAN</DistanceMeters>
          </Trackpoint>
          <Trackpoint>
            <Time>2022-07-13T08:01:15.000Z</Time>
            <Position>
              <LatitudeDegrees>43.39824940077960491180419921875</LatitudeDegrees>
              <LongitudeDegrees>-3.389566205441951751708984375</LongitudeDegrees>
            </Position>
            <AltitudeMeters>128.8000030517578125</AltitudeMeters>
            <DistanceMeters>NAN</DistanceMeters>
          </Trackpoint>
          <Trackpoint>
            <Time>2022-07-13T08:01:19.000Z</Time>
            <Position>
              <LatitudeDegrees>43.39823364280164241790771484375</LatitudeDegrees>
              <LongitudeDegrees>-3.38964943774044513702392578125</LongitudeDegrees>
            </Position>
            <AltitudeMeters>129</AltitudeMeters>
            <DistanceMeters>NAN</DistanceMeters>
          </Trackpoint>
          <Trackpoint>
            <Time>2022-07-13T08:01:26.000Z</Time>
            <Position>
              <LatitudeDegrees>43.39820866473019123077392578125</LatitudeDegrees>
              <LongitudeDegrees>-3.38980852626264095306396484375</LongitudeDegrees>
            </Position>
            <AltitudeMeters>129.600006103515625</AltitudeMeters>
            <DistanceMeters>NAN</DistanceMeters>
          </Trackpoint>
          <Trackpoint>
            <Time>2022-07-13T08:01:29.000Z</Time>
            <Position>
              <LatitudeDegrees>43.3981990255415439605712890625</LatitudeDegrees>
              <LongitudeDegrees>-3.3898687921464443206787109375</LongitudeDegrees>
            </Position>
            <AltitudeMeters>129.8000030517578125</AltitudeMeters>
            <DistanceMeters>NAN</DistanceMeters>
          </Trackpoint>
          <Trackpoint>
            <Time>2022-07-13T08:01:34.000Z</Time>
            <Position>
              <LatitudeDegrees>43.39817731641232967376708984375</LatitudeDegrees>
              <LongitudeDegrees>-3.38996677659451961517333984375</LongitudeDegrees>
            </Position>
            <AltitudeMeters>130.1999969482421875</AltitudeMeters>
            <DistanceMeters>NAN</DistanceMeters>
          </Trackpoint>
          <Trackpoint>
            <Time>2022-07-13T08:01:36.000Z</Time>
            <Position>
              <LatitudeDegrees>43.3981648273766040802001953125</LatitudeDegrees>
              <LongitudeDegrees>-3.39000642299652099609375</LongitudeDegrees>
            </Position>
            <AltitudeMeters>130.399993896484375</AltitudeMeters>
            <DistanceMeters>NAN</DistanceMeters>
          </Trackpoint>
          <Trackpoint>
            <Time>2022-07-13T08:01:40.000Z</Time>
            <Position>
              <LatitudeDegrees>43.39814814738929271697998046875</LatitudeDegrees>
              <LongitudeDegrees>-3.39007976464927196502685546875</LongitudeDegrees>
            </Position>
            <AltitudeMeters>130.8000030517578125</AltitudeMeters>
            <DistanceMeters>NAN</DistanceMeters>
          </Trackpoint>
          <Trackpoint>
            <Time>2022-07-13T08:01:45.000Z</Time>
            <Position>
              <LatitudeDegrees>43.39810389094054698944091796875</LatitudeDegrees>
              <LongitudeDegrees>-3.390143215656280517578125</LongitudeDegrees>
            </Position>
            <AltitudeMeters>131</AltitudeMeters>
            <DistanceMeters>NAN</DistanceMeters>
          </Trackpoint>
          <Trackpoint>
            <Time>2022-07-13T08:01:53.000Z</Time>
            <Position>
              <LatitudeDegrees>43.39805427007377147674560546875</LatitudeDegrees>
              <LongitudeDegrees>-3.39029274880886077880859375</LongitudeDegrees>
            </Position>
            <AltitudeMeters>131.8000030517578125</AltitudeMeters>
            <DistanceMeters>NAN</DistanceMeters>
          </Trackpoint>
          <Trackpoint>
            <Time>2022-07-13T08:02:03.000Z</Time>
            <Position>
              <LatitudeDegrees>43.39797128923237323760986328125</LatitudeDegrees>
              <LongitudeDegrees>-3.3904692716896533966064453125</LongitudeDegrees>
            </Position>
            <AltitudeMeters>132.600006103515625</AltitudeMeters>
            <DistanceMeters>NAN</DistanceMeters>
          </Trackpoint>
          <Trackpoint>
            <Time>2022-07-13T08:02:09.000Z</Time>
            <Position>
              <LatitudeDegrees>43.39791630394756793975830078125</LatitudeDegrees>
              <LongitudeDegrees>-3.3905705250799655914306640625</LongitudeDegrees>
            </Position>
            <AltitudeMeters>132.8000030517578125</AltitudeMeters>
            <DistanceMeters>NAN</DistanceMeters>
          </Trackpoint>
          <Trackpoint>
            <Time>2022-07-13T08:02:12.000Z</Time>
            <Position>
              <LatitudeDegrees>43.3978949300944805145263671875</LatitudeDegrees>
              <LongitudeDegrees>-3.3906241692602634429931640625</LongitudeDegrees>
            </Position>
            <AltitudeMeters>133</AltitudeMeters>
            <DistanceMeters>NAN</DistanceMeters>
          </Trackpoint>
          <Trackpoint>
            <Time>2022-07-13T08:02:17.000Z</Time>
            <Position>
              <LatitudeDegrees>43.3978463150560855865478515625</LatitudeDegrees>
              <LongitudeDegrees>-3.3906861953437328338623046875</LongitudeDegrees>
            </Position>
            <AltitudeMeters>133.399993896484375</AltitudeMeters>
            <DistanceMeters>NAN</DistanceMeters>
          </Trackpoint>
          <Trackpoint>
            <Time>2022-07-13T08:02:24.000Z</Time>
            <Position>
              <LatitudeDegrees>43.39778839610517024993896484375</LatitudeDegrees>
              <LongitudeDegrees>-3.39076741598546504974365234375</LongitudeDegrees>
            </Position>
            <AltitudeMeters>133.8000030517578125</AltitudeMeters>
            <DistanceMeters>NAN</DistanceMeters>
          </Trackpoint>
          <Trackpoint>
            <Time>2022-07-13T08:02:29.000Z</Time>
            <Position>
              <LatitudeDegrees>43.3977521024644374847412109375</LatitudeDegrees>
              <LongitudeDegrees>-3.39085869491100311279296875</LongitudeDegrees>
            </Position>
            <AltitudeMeters>134.1999969482421875</AltitudeMeters>
            <DistanceMeters>NAN</DistanceMeters>
          </Trackpoint>
          <Trackpoint>
            <Time>2022-07-13T08:02:33.000Z</Time>
            <Position>
              <LatitudeDegrees>43.39772016741335391998291015625</LatitudeDegrees>
              <LongitudeDegrees>-3.3909074775874614715576171875</LongitudeDegrees>
            </Position>
            <AltitudeMeters>134.399993896484375</AltitudeMeters>
            <DistanceMeters>NAN</DistanceMeters>
          </Trackpoint>
          <Trackpoint>
            <Time>2022-07-13T08:02:40.000Z</Time>
            <Position>
              <LatitudeDegrees>43.39766618795692920684814453125</LatitudeDegrees>
              <LongitudeDegrees>-3.3909876085817813873291015625</LongitudeDegrees>
            </Position>
            <AltitudeMeters>134.600006103515625</AltitudeMeters>
            <DistanceMeters>NAN</DistanceMeters>
          </Trackpoint>
          <Trackpoint>
            <Time>2022-07-13T08:02:46.000Z</Time>
            <Position>
              <LatitudeDegrees>43.3976143039762973785400390625</LatitudeDegrees>
              <LongitudeDegrees>-3.39108425192534923553466796875</LongitudeDegrees>
            </Position>
            <AltitudeMeters>135</AltitudeMeters>
            <DistanceMeters>NAN</DistanceMeters>
          </Trackpoint>
          <Trackpoint>
            <Time>2022-07-13T08:02:48.000Z</Time>
            <Position>
              <LatitudeDegrees>43.397599719464778900146484375</LatitudeDegrees>
              <LongitudeDegrees>-3.39112423360347747802734375</LongitudeDegrees>
            </Position>
            <AltitudeMeters>135.1999969482421875</AltitudeMeters>
            <DistanceMeters>NAN</DistanceMeters>
          </Trackpoint>
          <Trackpoint>
            <Time>2022-07-13T08:02:50.000Z</Time>
            <Position>
              <LatitudeDegrees>43.39758220128715038299560546875</LatitudeDegrees>
              <LongitudeDegrees>-3.391156755387783050537109375</LongitudeDegrees>
            </Position>
            <AltitudeMeters>135.1999969482421875</AltitudeMeters>
            <DistanceMeters>NAN</DistanceMeters>
          </Trackpoint>
          <Trackpoint>
            <Time>2022-07-13T08:03:00.000Z</Time>
            <Position>
              <LatitudeDegrees>43.39749880135059356689453125</LatitudeDegrees>
              <LongitudeDegrees>-3.391309641301631927490234375</LongitudeDegrees>
            </Position>
            <AltitudeMeters>135.8000030517578125</AltitudeMeters>
            <DistanceMeters>NAN</DistanceMeters>
          </Trackpoint>
          <Trackpoint>
            <Time>2022-07-13T08:03:03.000Z</Time>
            <Position>
              <LatitudeDegrees>43.3974780142307281494140625</LatitudeDegrees>
              <LongitudeDegrees>-3.39135414920747280120849609375</LongitudeDegrees>
            </Position>
            <AltitudeMeters>136</AltitudeMeters>
            <DistanceMeters>NAN</DistanceMeters>
          </Trackpoint>
          <Trackpoint>
            <Time>2022-07-13T08:03:05.000Z</Time>
            <Position>
              <LatitudeDegrees>43.39746653102338314056396484375</LatitudeDegrees>
              <LongitudeDegrees>-3.391382396221160888671875</LongitudeDegrees>
            </Position>
            <AltitudeMeters>136.1999969482421875</AltitudeMeters>
            <DistanceMeters>NAN</DistanceMeters>
          </Trackpoint>
          <Trackpoint>
            <Time>2022-07-13T08:03:09.000Z</Time>
            <Position>
              <LatitudeDegrees>43.39743719436228275299072265625</LatitudeDegrees>
              <LongitudeDegrees>-3.39143578894436359405517578125</LongitudeDegrees>
            </Position>
            <AltitudeMeters>136.399993896484375</AltitudeMeters>
            <DistanceMeters>NAN</DistanceMeters>
          </Trackpoint>
          <Trackpoint>
            <Time>2022-07-13T08:03:12.000Z</Time>
            <Position>
              <LatitudeDegrees>43.39741691015660762786865234375</LatitudeDegrees>
              <LongitudeDegrees>-3.39147702790796756744384765625</LongitudeDegrees>
            </Position>
            <AltitudeMeters>136.600006103515625</AltitudeMeters>
            <DistanceMeters>NAN</DistanceMeters>
          </Trackpoint>
          <Trackpoint>
            <Time>2022-07-13T08:03:13.000Z</Time>
            <Position>
              <LatitudeDegrees>43.39741431176662445068359375</LatitudeDegrees>
              <LongitudeDegrees>-3.3914905227720737457275390625</LongitudeDegrees>
            </Position>
            <AltitudeMeters>136.600006103515625</AltitudeMeters>
            <DistanceMeters>NAN</DistanceMeters>
          </Trackpoint>
          <Trackpoint>
            <Time>2022-07-13T08:03:17.000Z</Time>
            <Position>
              <LatitudeDegrees>43.39738204143941402435302734375</LatitudeDegrees>
              <LongitudeDegrees>-3.39156537316739559173583984375</LongitudeDegrees>
            </Position>
            <AltitudeMeters>136.8000030517578125</AltitudeMeters>
            <DistanceMeters>NAN</DistanceMeters>
          </Trackpoint>
          <Trackpoint>
            <Time>2022-07-13T08:03:23.000Z</Time>
            <Position>
              <LatitudeDegrees>43.3973380364477634429931640625</LatitudeDegrees>
              <LongitudeDegrees>-3.3916749246418476104736328125</LongitudeDegrees>
            </Position>
            <AltitudeMeters>137.1999969482421875</AltitudeMeters>
            <DistanceMeters>NAN</DistanceMeters>
          </Trackpoint>
          <Trackpoint>
            <Time>2022-07-13T08:03:25.000Z</Time>
            <Position>
              <LatitudeDegrees>43.39732772670686244964599609375</LatitudeDegrees>
              <LongitudeDegrees>-3.3917056024074554443359375</LongitudeDegrees>
            </Position>
            <AltitudeMeters>137.399993896484375</AltitudeMeters>
            <DistanceMeters>NAN</DistanceMeters>
          </Trackpoint>
          <Trackpoint>
            <Time>2022-07-13T08:03:34.000Z</Time>
            <Position>
              <LatitudeDegrees>43.39727223850786685943603515625</LatitudeDegrees>
              <LongitudeDegrees>-3.3918764255940914154052734375</LongitudeDegrees>
            </Position>
            <AltitudeMeters>137.8000030517578125</AltitudeMeters>
            <DistanceMeters>NAN</DistanceMeters>
          </Trackpoint>
          <Trackpoint>
            <Time>2022-07-13T08:03:41.000Z</Time>
            <Position>
              <LatitudeDegrees>43.39722513221204280853271484375</LatitudeDegrees>
              <LongitudeDegrees>-3.39200324378907680511474609375</LongitudeDegrees>
            </Position>
            <AltitudeMeters>138.1999969482421875</AltitudeMeters>
            <DistanceMeters>NAN</DistanceMeters>
          </Trackpoint>
          <Trackpoint>
            <Time>2022-07-13T08:03:42.000Z</Time>
            <Position>
              <LatitudeDegrees>43.39721448719501495361328125</LatitudeDegrees>
              <LongitudeDegrees>-3.3920249529182910919189453125</LongitudeDegrees>
            </Position>
            <AltitudeMeters>138.399993896484375</AltitudeMeters>
            <DistanceMeters>NAN</DistanceMeters>
          </Trackpoint>
          <Trackpoint>
            <Time>2022-07-13T08:03:44.000Z</Time>
            <Position>
              <LatitudeDegrees>43.3972032554447650909423828125</LatitudeDegrees>
              <LongitudeDegrees>-3.39205898344516754150390625</LongitudeDegrees>
            </Position>
            <AltitudeMeters>138.399993896484375</AltitudeMeters>
            <DistanceMeters>NAN</DistanceMeters>
          </Trackpoint>
          <Trackpoint>
            <Time>2022-07-13T08:03:54.000Z</Time>
            <Position>
              <LatitudeDegrees>43.3971459232270717620849609375</LatitudeDegrees>
              <LongitudeDegrees>-3.39223760180175304412841796875</LongitudeDegrees>
            </Position>
            <AltitudeMeters>139</AltitudeMeters>
            <DistanceMeters>NAN</DistanceMeters>
          </Trackpoint>
          <Trackpoint>
            <Time>2022-07-13T08:04:01.000Z</Time>
            <Position>
              <LatitudeDegrees>43.39710007421672344207763671875</LatitudeDegrees>
              <LongitudeDegrees>-3.39235209859907627105712890625</LongitudeDegrees>
            </Position>
            <AltitudeMeters>139.399993896484375</AltitudeMeters>
            <DistanceMeters>NAN</DistanceMeters>
          </Trackpoint>
          <Trackpoint>
            <Time>2022-07-13T08:04:06.000Z</Time>
            <Position>
              <LatitudeDegrees>43.397070653736591339111328125</LatitudeDegrees>
              <LongitudeDegrees>-3.392438851296901702880859375</LongitudeDegrees>
            </Position>
            <AltitudeMeters>139.600006103515625</AltitudeMeters>
            <DistanceMeters>NAN</DistanceMeters>
          </Trackpoint>
          <Trackpoint>
            <Time>2022-07-13T08:04:07.000Z</Time>
            <Position>
              <LatitudeDegrees>43.3970647864043712615966796875</LatitudeDegrees>
              <LongitudeDegrees>-3.392454944550991058349609375</LongitudeDegrees>
            </Position>
            <AltitudeMeters>139.600006103515625</AltitudeMeters>
            <DistanceMeters>NAN</DistanceMeters>
          </Trackpoint>
          <Trackpoint>
            <Time>2022-07-13T08:04:11.000Z</Time>
            <Position>
              <LatitudeDegrees>43.3970443345606327056884765625</LatitudeDegrees>
              <LongitudeDegrees>-3.392521329224109649658203125</LongitudeDegrees>
            </Position>
            <AltitudeMeters>139.8000030517578125</AltitudeMeters>
            <DistanceMeters>NAN</DistanceMeters>
          </Trackpoint>
          <Trackpoint>
            <Time>2022-07-13T08:04:17.000Z</Time>
            <Position>
              <LatitudeDegrees>43.39701055549085140228271484375</LatitudeDegrees>
              <LongitudeDegrees>-3.39261394925415515899658203125</LongitudeDegrees>
            </Position>
            <AltitudeMeters>140.399993896484375</AltitudeMeters>
            <DistanceMeters>NAN</DistanceMeters>
          </Trackpoint>
          <Trackpoint>
            <Time>2022-07-13T08:04:26.000Z</Time>
            <Position>
              <LatitudeDegrees>43.39696965180337429046630859375</LatitudeDegrees>
              <LongitudeDegrees>-3.3927682600915431976318359375</LongitudeDegrees>
            </Position>
            <AltitudeMeters>141</AltitudeMeters>
            <DistanceMeters>NAN</DistanceMeters>
          </Trackpoint>
          <Trackpoint>
            <Time>2022-07-13T08:04:27.000Z</Time>
            <Position>
              <LatitudeDegrees>43.39696328155696392059326171875</LatitudeDegrees>
              <LongitudeDegrees>-3.39279013685882091522216796875</LongitudeDegrees>
            </Position>
            <AltitudeMeters>141</AltitudeMeters>
            <DistanceMeters>NAN</DistanceMeters>
          </Trackpoint>
          <Trackpoint>
            <Time>2022-07-13T08:04:34.000Z</Time>
            <Position>
              <LatitudeDegrees>43.3969326876103878021240234375</LatitudeDegrees>
              <LongitudeDegrees>-3.3929260075092315673828125</LongitudeDegrees>
            </Position>
            <AltitudeMeters>141.399993896484375</AltitudeMeters>
            <DistanceMeters>NAN</DistanceMeters>
          </Trackpoint>
          <Trackpoint>
            <Time>2022-07-13T08:04:39.000Z</Time>
            <Position>
              <LatitudeDegrees>43.39690963737666606903076171875</LatitudeDegrees>
              <LongitudeDegrees>-3.39300454594194889068603515625</LongitudeDegrees>
            </Position>
            <AltitudeMeters>141.600006103515625</AltitudeMeters>
            <DistanceMeters>NAN</DistanceMeters>
          </Trackpoint>
          <Trackpoint>
            <Time>2022-07-13T08:04:47.000Z</Time>
            <Position>
              <LatitudeDegrees>43.3968693204224109649658203125</LatitudeDegrees>
              <LongitudeDegrees>-3.3931414224207401275634765625</LongitudeDegrees>
            </Position>
            <AltitudeMeters>142</AltitudeMeters>
            <DistanceMeters>NAN</DistanceMeters>
          </Trackpoint>
          <Trackpoint>
            <Time>2022-07-13T08:04:49.000Z</Time>
            <Position>
              <LatitudeDegrees>43.39686118997633457183837890625</LatitudeDegrees>
              <LongitudeDegrees>-3.39318676851689815521240234375</LongitudeDegrees>
            </Position>
            <AltitudeMeters>142.1999969482421875</AltitudeMeters>
            <DistanceMeters>NAN</DistanceMeters>
          </Trackpoint>
          <Trackpoint>
            <Time>2022-07-13T08:04:50.000Z</Time>
            <Position>
              <LatitudeDegrees>43.39685683138668537139892578125</LatitudeDegrees>
              <LongitudeDegrees>-3.393204621970653533935546875</LongitudeDegrees>
            </Position>
            <AltitudeMeters>142.1999969482421875</AltitudeMeters>
            <DistanceMeters>NAN</DistanceMeters>
          </Trackpoint>
          <Trackpoint>
            <Time>2022-07-13T08:04:51.000Z</Time>
            <Position>
              <LatitudeDegrees>43.39685238897800445556640625</LatitudeDegrees>
              <LongitudeDegrees>-3.39322264306247234344482421875</LongitudeDegrees>
            </Position>
            <AltitudeMeters>142.1999969482421875</AltitudeMeters>
            <DistanceMeters>NAN</DistanceMeters>
          </Trackpoint>
          <Trackpoint>
            <Time>2022-07-13T08:04:55.000Z</Time>
            <Position>
              <LatitudeDegrees>43.39683688245713710784912109375</LatitudeDegrees>
              <LongitudeDegrees>-3.39329858310520648956298828125</LongitudeDegrees>
            </Position>
            <AltitudeMeters>142.399993896484375</AltitudeMeters>
            <DistanceMeters>NAN</DistanceMeters>
          </Trackpoint>
          <Trackpoint>
            <Time>2022-07-13T08:04:59.000Z</Time>
            <Position>
              <LatitudeDegrees>43.39681743644177913665771484375</LatitudeDegrees>
              <LongitudeDegrees>-3.39336664415895938873291015625</LongitudeDegrees>
            </Position>
            <AltitudeMeters>142.8000030517578125</AltitudeMeters>
            <DistanceMeters>NAN</DistanceMeters>
          </Trackpoint>
          <Trackpoint>
            <Time>2022-07-13T08:05:10.000Z</Time>
            <Position>
              <LatitudeDegrees>43.39676924049854278564453125</LatitudeDegrees>
              <LongitudeDegrees>-3.393541909754276275634765625</LongitudeDegrees>
            </Position>
            <AltitudeMeters>143.399993896484375</AltitudeMeters>
            <DistanceMeters>NAN</DistanceMeters>
          </Trackpoint>
          <Trackpoint>
            <Time>2022-07-13T08:05:12.000Z</Time>
            <Position>
              <LatitudeDegrees>43.396759517490863800048828125</LatitudeDegrees>
              <LongitudeDegrees>-3.39357786811888217926025390625</LongitudeDegrees>
            </Position>
            <AltitudeMeters>143.600006103515625</AltitudeMeters>
            <DistanceMeters>NAN</DistanceMeters>
          </Trackpoint>
          <Trackpoint>
            <Time>2022-07-13T08:05:14.000Z</Time>
            <Position>
              <LatitudeDegrees>43.396756164729595184326171875</LatitudeDegrees>
              <LongitudeDegrees>-3.3936064504086971282958984375</LongitudeDegrees>
            </Position>
            <AltitudeMeters>143.8000030517578125</AltitudeMeters>
            <DistanceMeters>NAN</DistanceMeters>
          </Trackpoint>
          <Trackpoint>
            <Time>2022-07-13T08:05:21.000Z</Time>
            <Position>
              <LatitudeDegrees>43.39674753136932849884033203125</LatitudeDegrees>
              <LongitudeDegrees>-3.39373980648815631866455078125</LongitudeDegrees>
            </Position>
            <AltitudeMeters>144</AltitudeMeters>
            <DistanceMeters>NAN</DistanceMeters>
          </Trackpoint>
          <Trackpoint>
            <Time>2022-07-13T08:05:24.000Z</Time>
            <Position>
              <LatitudeDegrees>43.39675155468285083770751953125</LatitudeDegrees>
              <LongitudeDegrees>-3.393794037401676177978515625</LongitudeDegrees>
            </Position>
            <AltitudeMeters>144.1999969482421875</AltitudeMeters>
            <DistanceMeters>NAN</DistanceMeters>
          </Trackpoint>
          <Trackpoint>
            <Time>2022-07-13T08:05:29.000Z</Time>
            <Position>
              <LatitudeDegrees>43.39675339870154857635498046875</LatitudeDegrees>
              <LongitudeDegrees>-3.39388833381235599517822265625</LongitudeDegrees>
            </Position>
            <AltitudeMeters>144.600006103515625</AltitudeMeters>
            <DistanceMeters>NAN</DistanceMeters>
          </Trackpoint>
          <Trackpoint>
            <Time>2022-07-13T08:05:32.000Z</Time>
            <Position>
              <LatitudeDegrees>43.3967482857406139373779296875</LatitudeDegrees>
              <LongitudeDegrees>-3.39395128190517425537109375</LongitudeDegrees>
            </Position>
            <AltitudeMeters>145</AltitudeMeters>
            <DistanceMeters>NAN</DistanceMeters>
          </Trackpoint>
          <Trackpoint>
            <Time>2022-07-13T08:05:36.000Z</Time>
            <Position>
              <LatitudeDegrees>43.3967506326735019683837890625</LatitudeDegrees>
              <LongitudeDegrees>-3.39402881450951099395751953125</LongitudeDegrees>
            </Position>
            <AltitudeMeters>145</AltitudeMeters>
            <DistanceMeters>NAN</DistanceMeters>
          </Trackpoint>
          <Trackpoint>
            <Time>2022-07-13T08:05:42.000Z</Time>
            <Position>
              <LatitudeDegrees>43.3967603556811809539794921875</LatitudeDegrees>
              <LongitudeDegrees>-3.39414565823972225189208984375</LongitudeDegrees>
            </Position>
            <AltitudeMeters>145.8000030517578125</AltitudeMeters>
            <DistanceMeters>NAN</DistanceMeters>
          </Trackpoint>
          <Trackpoint>
            <Time>2022-07-13T08:05:43.000Z</Time>
            <Position>
              <LatitudeDegrees>43.39676463045179843902587890625</LatitudeDegrees>
              <LongitudeDegrees>-3.394162170588970184326171875</LongitudeDegrees>
            </Position>
            <AltitudeMeters>145.8000030517578125</AltitudeMeters>
            <DistanceMeters>NAN</DistanceMeters>
          </Trackpoint>
          <Trackpoint>
            <Time>2022-07-13T08:05:52.000Z</Time>
            <Position>
              <LatitudeDegrees>43.3968039415776729583740234375</LatitudeDegrees>
              <LongitudeDegrees>-3.39433257468044757843017578125</LongitudeDegrees>
            </Position>
            <AltitudeMeters>146.399993896484375</AltitudeMeters>
            <DistanceMeters>NAN</DistanceMeters>
          </Trackpoint>
          <Trackpoint>
            <Time>2022-07-13T08:05:53.000Z</Time>
            <Position>
              <LatitudeDegrees>43.39680737815797328948974609375</LatitudeDegrees>
              <LongitudeDegrees>-3.394351266324520111083984375</LongitudeDegrees>
            </Position>
            <AltitudeMeters>146.399993896484375</AltitudeMeters>
            <DistanceMeters>NAN</DistanceMeters>
          </Trackpoint>
          <Trackpoint>
            <Time>2022-07-13T08:05:58.000Z</Time>
            <Position>
              <LatitudeDegrees>43.39683000929653644561767578125</LatitudeDegrees>
              <LongitudeDegrees>-3.39443835429847240447998046875</LongitudeDegrees>
            </Position>
            <AltitudeMeters>146.8000030517578125</AltitudeMeters>
            <DistanceMeters>NAN</DistanceMeters>
          </Trackpoint>
          <Trackpoint>
            <Time>2022-07-13T08:06:01.000Z</Time>
            <Position>
              <LatitudeDegrees>43.39684727601706981658935546875</LatitudeDegrees>
              <LongitudeDegrees>-3.39449149556457996368408203125</LongitudeDegrees>
            </Position>
            <AltitudeMeters>147.1999969482421875</AltitudeMeters>
            <DistanceMeters>NAN</DistanceMeters>
          </Trackpoint>
          <Trackpoint>
            <Time>2022-07-13T08:06:03.000Z</Time>
            <Position>
              <LatitudeDegrees>43.3968666382133960723876953125</LatitudeDegrees>
              <LongitudeDegrees>-3.3945160545408725738525390625</LongitudeDegrees>
            </Position>
            <AltitudeMeters>147.399993896484375</AltitudeMeters>
            <DistanceMeters>NAN</DistanceMeters>
          </Trackpoint>
          <Trackpoint>
            <Time>2022-07-13T08:06:09.000Z</Time>
            <Position>
              <LatitudeDegrees>43.39689890854060649871826171875</LatitudeDegrees>
              <LongitudeDegrees>-3.3946139551699161529541015625</LongitudeDegrees>
            </Position>
            <AltitudeMeters>147.8000030517578125</AltitudeMeters>
            <DistanceMeters>NAN</DistanceMeters>
          </Trackpoint>
          <Trackpoint>
            <Time>2022-07-13T08:06:14.000Z</Time>
            <Position>
              <LatitudeDegrees>43.39694735594093799591064453125</LatitudeDegrees>
              <LongitudeDegrees>-3.39469450525939464569091796875</LongitudeDegrees>
            </Position>
            <AltitudeMeters>148.1999969482421875</AltitudeMeters>
            <DistanceMeters>NAN</DistanceMeters>
          </Trackpoint>
          <Trackpoint>
            <Time>2022-07-13T08:06:21.000Z</Time>
            <Position>
              <LatitudeDegrees>43.397005610167980194091796875</LatitudeDegrees>
              <LongitudeDegrees>-3.39479458518326282501220703125</LongitudeDegrees>
            </Position>
            <AltitudeMeters>148.8000030517578125</AltitudeMeters>
            <DistanceMeters>NAN</DistanceMeters>
          </Trackpoint>
          <Trackpoint>
            <Time>2022-07-13T08:06:25.000Z</Time>
            <Position>
              <LatitudeDegrees>43.3970476873219013214111328125</LatitudeDegrees>
              <LongitudeDegrees>-3.3948469720780849456787109375</LongitudeDegrees>
            </Position>
            <AltitudeMeters>149.1999969482421875</AltitudeMeters>
            <DistanceMeters>NAN</DistanceMeters>
          </Trackpoint>
          <Trackpoint>
            <Time>2022-07-13T08:06:33.000Z</Time>
            <Position>
              <LatitudeDegrees>43.39713133871555328369140625</LatitudeDegrees>
              <LongitudeDegrees>-3.3949430286884307861328125</LongitudeDegrees>
            </Position>
            <AltitudeMeters>150</AltitudeMeters>
            <DistanceMeters>NAN</DistanceMeters>
          </Trackpoint>
          <Trackpoint>
            <Time>2022-07-13T08:06:35.000Z</Time>
            <Position>
              <LatitudeDegrees>43.3971539698541164398193359375</LatitudeDegrees>
              <LongitudeDegrees>-3.39495819993317127227783203125</LongitudeDegrees>
            </Position>
            <AltitudeMeters>150</AltitudeMeters>
            <DistanceMeters>NAN</DistanceMeters>
          </Trackpoint>
          <Trackpoint>
            <Time>2022-07-13T08:06:44.000Z</Time>
            <Position>
              <LatitudeDegrees>43.397249691188335418701171875</LatitudeDegrees>
              <LongitudeDegrees>-3.3950476348400115966796875</LongitudeDegrees>
            </Position>
            <AltitudeMeters>150.8000030517578125</AltitudeMeters>
            <DistanceMeters>NAN</DistanceMeters>
          </Trackpoint>
          <Trackpoint>
            <Time>2022-07-13T08:06:45.000Z</Time>
            <Position>
              <LatitudeDegrees>43.39725765399634838104248046875</LatitudeDegrees>
              <LongitudeDegrees>-3.39505501091480255126953125</LongitudeDegrees>
            </Position>
            <AltitudeMeters>151</AltitudeMeters>
            <DistanceMeters>NAN</DistanceMeters>
          </Trackpoint>
          <Trackpoint>
            <Time>2022-07-13T08:06:53.000Z</Time>
            <Position>
              <LatitudeDegrees>43.39735656045377254486083984375</LatitudeDegrees>
              <LongitudeDegrees>-3.3951457031071186065673828125</LongitudeDegrees>
            </Position>
            <AltitudeMeters>151.399993896484375</AltitudeMeters>
            <DistanceMeters>NAN</DistanceMeters>
          </Trackpoint>
          <Trackpoint>
            <Time>2022-07-13T08:07:00.000Z</Time>
            <Position>
              <LatitudeDegrees>43.3974091149866580963134765625</LatitudeDegrees>
              <LongitudeDegrees>-3.39516456238925457000732421875</LongitudeDegrees>
            </Position>
            <AltitudeMeters>151.8000030517578125</AltitudeMeters>
            <DistanceMeters>NAN</DistanceMeters>
          </Trackpoint>
          <Trackpoint>
            <Time>2022-07-13T08:07:33.000Z</Time>
            <Position>
              <LatitudeDegrees>43.3974309079349040985107421875</LatitudeDegrees>
              <LongitudeDegrees>-3.39518065564334392547607421875</LongitudeDegrees>
            </Position>
            <AltitudeMeters>152.1999969482421875</AltitudeMeters>
            <DistanceMeters>NAN</DistanceMeters>
          </Trackpoint>
          <Trackpoint>
            <Time>2022-07-13T08:07:34.000Z</Time>
            <Position>
              <LatitudeDegrees>43.39745161123573780059814453125</LatitudeDegrees>
              <LongitudeDegrees>-3.3951906301081180572509765625</LongitudeDegrees>
            </Position>
            <AltitudeMeters>152.1999969482421875</AltitudeMeters>
            <DistanceMeters>NAN</DistanceMeters>
          </Trackpoint>
          <Trackpoint>
            <Time>2022-07-13T08:07:36.000Z</Time>
            <Position>
              <LatitudeDegrees>43.39749343693256378173828125</LatitudeDegrees>
              <LongitudeDegrees>-3.3952060528099536895751953125</LongitudeDegrees>
            </Position>
            <AltitudeMeters>152.399993896484375</AltitudeMeters>
            <DistanceMeters>NAN</DistanceMeters>
          </Trackpoint>
          <Trackpoint>
            <Time>2022-07-13T08:07:42.000Z</Time>
            <Position>
              <LatitudeDegrees>43.3976201713085174560546875</LatitudeDegrees>
              <LongitudeDegrees>-3.395247794687747955322265625</LongitudeDegrees>
            </Position>
            <AltitudeMeters>153</AltitudeMeters>
            <DistanceMeters>NAN</DistanceMeters>
          </Trackpoint>
          <Trackpoint>
            <Time>2022-07-13T08:07:44.000Z</Time>
            <Position>
              <LatitudeDegrees>43.3976552076637744903564453125</LatitudeDegrees>
              <LongitudeDegrees>-3.395249806344509124755859375</LongitudeDegrees>
            </Position>
            <AltitudeMeters>153.1999969482421875</AltitudeMeters>
            <DistanceMeters>NAN</DistanceMeters>
          </Trackpoint>
          <Trackpoint>
            <Time>2022-07-13T08:07:45.000Z</Time>
            <Position>
              <LatitudeDegrees>43.3976723067462444305419921875</LatitudeDegrees>
              <LongitudeDegrees>-3.39525290764868259429931640625</LongitudeDegrees>
            </Position>
            <AltitudeMeters>153.1999969482421875</AltitudeMeters>
            <DistanceMeters>NAN</DistanceMeters>
          </Trackpoint>
          <Trackpoint>
            <Time>2022-07-13T08:07:53.000Z</Time>
            <Position>
              <LatitudeDegrees>43.3978168107569217681884765625</LatitudeDegrees>
              <LongitudeDegrees>-3.3952905423939228057861328125</LongitudeDegrees>
            </Position>
            <AltitudeMeters>153.8000030517578125</AltitudeMeters>
            <DistanceMeters>NAN</DistanceMeters>
          </Trackpoint>
          <Trackpoint>
            <Time>2022-07-13T08:07:59.000Z</Time>
            <Position>
              <LatitudeDegrees>43.3979140408337116241455078125</LatitudeDegrees>
              <LongitudeDegrees>-3.39529984630644321441650390625</LongitudeDegrees>
            </Position>
            <AltitudeMeters>154.1999969482421875</AltitudeMeters>
            <DistanceMeters>NAN</DistanceMeters>
          </Trackpoint>
          <Trackpoint>
            <Time>2022-07-13T08:08:05.000Z</Time>
            <Position>
              <LatitudeDegrees>43.39801856316626071929931640625</LatitudeDegrees>
              <LongitudeDegrees>-3.39531158097088336944580078125</LongitudeDegrees>
            </Position>
            <AltitudeMeters>154.600006103515625</AltitudeMeters>
            <DistanceMeters>NAN</DistanceMeters>
          </Trackpoint>
          <Trackpoint>
            <Time>2022-07-13T08:08:11.000Z</Time>
            <Position>
              <LatitudeDegrees>43.3981192298233509063720703125</LatitudeDegrees>
              <LongitudeDegrees>-3.39533287100493907928466796875</LongitudeDegrees>
            </Position>
            <AltitudeMeters>155</AltitudeMeters>
            <DistanceMeters>NAN</DistanceMeters>
          </Trackpoint>
          <Trackpoint>
            <Time>2022-07-13T08:08:13.000Z</Time>
            <Position>
              <LatitudeDegrees>43.39815862476825714111328125</LatitudeDegrees>
              <LongitudeDegrees>-3.39533220045268535614013671875</LongitudeDegrees>
            </Position>
            <AltitudeMeters>155.1999969482421875</AltitudeMeters>
            <DistanceMeters>NAN</DistanceMeters>
          </Trackpoint>
          <Trackpoint>
            <Time>2022-07-13T08:08:15.000Z</Time>
            <Position>
              <LatitudeDegrees>43.3981960080564022064208984375</LatitudeDegrees>
              <LongitudeDegrees>-3.39533337391912937164306640625</LongitudeDegrees>
            </Position>
            <AltitudeMeters>155.399993896484375</AltitudeMeters>
            <DistanceMeters>NAN</DistanceMeters>
          </Trackpoint>
          <Trackpoint>
            <Time>2022-07-13T08:08:17.000Z</Time>
            <Position>
              <LatitudeDegrees>43.39822777546942234039306640625</LatitudeDegrees>
              <LongitudeDegrees>-3.39534913189709186553955078125</LongitudeDegrees>
            </Position>
            <AltitudeMeters>155.600006103515625</AltitudeMeters>
            <DistanceMeters>NAN</DistanceMeters>
          </Trackpoint>
          <Trackpoint>
            <Time>2022-07-13T08:08:20.000Z</Time>
            <Position>
              <LatitudeDegrees>43.39828661642968654632568359375</LatitudeDegrees>
              <LongitudeDegrees>-3.3953780494630336761474609375</LongitudeDegrees>
            </Position>
            <AltitudeMeters>156</AltitudeMeters>
            <DistanceMeters>NAN</DistanceMeters>
          </Trackpoint>
          <Trackpoint>
            <Time>2022-07-13T08:08:22.000Z</Time>
            <Position>
              <LatitudeDegrees>43.39832399971783161163330078125</LatitudeDegrees>
              <LongitudeDegrees>-3.39539070613682270050048828125</LongitudeDegrees>
            </Position>
            <AltitudeMeters>156</AltitudeMeters>
            <DistanceMeters>NAN</DistanceMeters>
          </Trackpoint>
          <Trackpoint>
            <Time>2022-07-13T08:08:28.000Z</Time>
            <Position>
              <LatitudeDegrees>43.39845274575054645538330078125</LatitudeDegrees>
              <LongitudeDegrees>-3.39545591734349727630615234375</LongitudeDegrees>
            </Position>
            <AltitudeMeters>156.399993896484375</AltitudeMeters>
            <DistanceMeters>NAN</DistanceMeters>
          </Trackpoint>
          <Trackpoint>
            <Time>2022-07-13T08:08:31.000Z</Time>
            <Position>
              <LatitudeDegrees>43.3985151909291744232177734375</LatitudeDegrees>
              <LongitudeDegrees>-3.3954957313835620880126953125</LongitudeDegrees>
            </Position>
            <AltitudeMeters>156.600006103515625</AltitudeMeters>
            <DistanceMeters>NAN</DistanceMeters>
          </Trackpoint>
          <Trackpoint>
            <Time>2022-07-13T08:08:37.000Z</Time>
            <Position>
              <LatitudeDegrees>43.39866229332983493804931640625</LatitudeDegrees>
              <LongitudeDegrees>-3.39558064006268978118896484375</LongitudeDegrees>
            </Position>
            <AltitudeMeters>157</AltitudeMeters>
            <DistanceMeters>NAN</DistanceMeters>
          </Trackpoint>
          <Trackpoint>
            <Time>2022-07-13T08:08:46.000Z</Time>
            <Position>
              <LatitudeDegrees>43.3988638781011104583740234375</LatitudeDegrees>
              <LongitudeDegrees>-3.39581164531409740447998046875</LongitudeDegrees>
            </Position>
            <AltitudeMeters>157.399993896484375</AltitudeMeters>
            <DistanceMeters>NAN</DistanceMeters>
          </Trackpoint>
          <Trackpoint>
            <Time>2022-07-13T08:08:47.000Z</Time>
            <Position>
              <LatitudeDegrees>43.3988834917545318603515625</LatitudeDegrees>
              <LongitudeDegrees>-3.39584332890808582305908203125</LongitudeDegrees>
            </Position>
            <AltitudeMeters>157.399993896484375</AltitudeMeters>
            <DistanceMeters>NAN</DistanceMeters>
          </Trackpoint>
          <Trackpoint>
            <Time>2022-07-13T08:08:55.000Z</Time>
            <Position>
              <LatitudeDegrees>43.3990207873284816741943359375</LatitudeDegrees>
              <LongitudeDegrees>-3.39607466943562030792236328125</LongitudeDegrees>
            </Position>
            <AltitudeMeters>157.600006103515625</AltitudeMeters>
            <DistanceMeters>NAN</DistanceMeters>
          </Trackpoint>
          <Trackpoint>
            <Time>2022-07-13T08:09:04.000Z</Time>
            <Position>
              <LatitudeDegrees>43.39914701879024505615234375</LatitudeDegrees>
              <LongitudeDegrees>-3.396435678005218505859375</LongitudeDegrees>
            </Position>
            <AltitudeMeters>158.1999969482421875</AltitudeMeters>
            <DistanceMeters>NAN</DistanceMeters>
          </Trackpoint>
          <Trackpoint>
            <Time>2022-07-13T08:09:12.000Z</Time>
            <Position>
              <LatitudeDegrees>43.39919789694249629974365234375</LatitudeDegrees>
              <LongitudeDegrees>-3.3968147076666355133056640625</LongitudeDegrees>
            </Position>
            <AltitudeMeters>158.399993896484375</AltitudeMeters>
            <DistanceMeters>NAN</DistanceMeters>
          </Trackpoint>
          <Trackpoint>
            <Time>2022-07-13T08:09:14.000Z</Time>
            <Position>
              <LatitudeDegrees>43.39919923804700374603271484375</LatitudeDegrees>
              <LongitudeDegrees>-3.39692358858883380889892578125</LongitudeDegrees>
            </Position>
            <AltitudeMeters>158.399993896484375</AltitudeMeters>
            <DistanceMeters>NAN</DistanceMeters>
          </Trackpoint>
          <Trackpoint>
            <Time>2022-07-13T08:09:21.000Z</Time>
            <Position>
              <LatitudeDegrees>43.39919487945735454559326171875</LatitudeDegrees>
              <LongitudeDegrees>-3.3973457850515842437744140625</LongitudeDegrees>
            </Position>
            <AltitudeMeters>158.399993896484375</AltitudeMeters>
            <DistanceMeters>NAN</DistanceMeters>
          </Trackpoint>
          <Trackpoint>
            <Time>2022-07-13T08:09:25.000Z</Time>
            <Position>
              <LatitudeDegrees>43.39918985031545162200927734375</LatitudeDegrees>
              <LongitudeDegrees>-3.3976103179156780242919921875</LongitudeDegrees>
            </Position>
            <AltitudeMeters>158.399993896484375</AltitudeMeters>
            <DistanceMeters>NAN</DistanceMeters>
          </Trackpoint>
          <Trackpoint>
            <Time>2022-07-13T08:09:29.000Z</Time>
            <Position>
              <LatitudeDegrees>43.39920460246503353118896484375</LatitudeDegrees>
              <LongitudeDegrees>-3.397862613201141357421875</LongitudeDegrees>
            </Position>
            <AltitudeMeters>158</AltitudeMeters>
            <DistanceMeters>NAN</DistanceMeters>
          </Trackpoint>
          <Trackpoint>
            <Time>2022-07-13T08:09:33.000Z</Time>
            <Position>
              <LatitudeDegrees>43.39923108927905559539794921875</LatitudeDegrees>
              <LongitudeDegrees>-3.3981447480618953704833984375</LongitudeDegrees>
            </Position>
            <AltitudeMeters>158</AltitudeMeters>
            <DistanceMeters>NAN</DistanceMeters>
          </Trackpoint>
          <Trackpoint>
            <Time>2022-07-13T08:09:35.000Z</Time>
            <Position>
              <LatitudeDegrees>43.399262689054012298583984375</LatitudeDegrees>
              <LongitudeDegrees>-3.39829780161380767822265625</LongitudeDegrees>
            </Position>
            <AltitudeMeters>157.8000030517578125</AltitudeMeters>
            <DistanceMeters>NAN</DistanceMeters>
          </Trackpoint>
          <Trackpoint>
            <Time>2022-07-13T08:09:36.000Z</Time>
            <Position>
              <LatitudeDegrees>43.3992836438119411468505859375</LatitudeDegrees>
              <LongitudeDegrees>-3.3983640186488628387451171875</LongitudeDegrees>
            </Position>
            <AltitudeMeters>157.8000030517578125</AltitudeMeters>
            <DistanceMeters>NAN</DistanceMeters>
          </Trackpoint>
          <Trackpoint>
            <Time>2022-07-13T08:09:38.000Z</Time>
            <Position>
              <LatitudeDegrees>43.39932194910943508148193359375</LatitudeDegrees>
              <LongitudeDegrees>-3.39849368669092655181884765625</LongitudeDegrees>
            </Position>
            <AltitudeMeters>157.600006103515625</AltitudeMeters>
            <DistanceMeters>NAN</DistanceMeters>
          </Trackpoint>
          <Trackpoint>
            <Time>2022-07-13T08:09:40.000Z</Time>
            <Position>
              <LatitudeDegrees>43.3993614278733730316162109375</LatitudeDegrees>
              <LongitudeDegrees>-3.3986137993633747100830078125</LongitudeDegrees>
            </Position>
            <AltitudeMeters>157.600006103515625</AltitudeMeters>
            <DistanceMeters>NAN</DistanceMeters>
          </Trackpoint>
          <Trackpoint>
            <Time>2022-07-13T08:09:43.000Z</Time>
            <Position>
              <LatitudeDegrees>43.39943627826869487762451171875</LatitudeDegrees>
              <LongitudeDegrees>-3.39878018014132976531982421875</LongitudeDegrees>
            </Position>
            <AltitudeMeters>157.399993896484375</AltitudeMeters>
            <DistanceMeters>NAN</DistanceMeters>
          </Trackpoint>
          <Trackpoint>
            <Time>2022-07-13T08:09:46.000Z</Time>
            <Position>
              <LatitudeDegrees>43.39951607398688793182373046875</LatitudeDegrees>
              <LongitudeDegrees>-3.39894010685384273529052734375</LongitudeDegrees>
            </Position>
            <AltitudeMeters>157.399993896484375</AltitudeMeters>
            <DistanceMeters>NAN</DistanceMeters>
          </Trackpoint>
          <Trackpoint>
            <Time>2022-07-13T08:09:50.000Z</Time>
            <Position>
              <LatitudeDegrees>43.39963115751743316650390625</LatitudeDegrees>
              <LongitudeDegrees>-3.399161137640476226806640625</LongitudeDegrees>
            </Position>
            <AltitudeMeters>157.1999969482421875</AltitudeMeters>
            <DistanceMeters>NAN</DistanceMeters>
          </Trackpoint>
          <Trackpoint>
            <Time>2022-07-13T08:09:51.000Z</Time>
            <Position>
              <LatitudeDegrees>43.399662338197231292724609375</LatitudeDegrees>
              <LongitudeDegrees>-3.39922182261943817138671875</LongitudeDegrees>
            </Position>
            <AltitudeMeters>157.1999969482421875</AltitudeMeters>
            <DistanceMeters>NAN</DistanceMeters>
          </Trackpoint>
          <Trackpoint>
            <Time>2022-07-13T08:09:58.000Z</Time>
            <Position>
              <LatitudeDegrees>43.399897702038288116455078125</LatitudeDegrees>
              <LongitudeDegrees>-3.3996786363422870635986328125</LongitudeDegrees>
            </Position>
            <AltitudeMeters>156.399993896484375</AltitudeMeters>
            <DistanceMeters>NAN</DistanceMeters>
          </Trackpoint>
          <Trackpoint>
            <Time>2022-07-13T08:09:59.000Z</Time>
            <Position>
              <LatitudeDegrees>43.399930559098720550537109375</LatitudeDegrees>
              <LongitudeDegrees>-3.39974745176732540130615234375</LongitudeDegrees>
            </Position>
            <AltitudeMeters>156.1999969482421875</AltitudeMeters>
            <DistanceMeters>NAN</DistanceMeters>
          </Trackpoint>
          <Trackpoint>
            <Time>2022-07-13T08:10:01.000Z</Time>
            <Position>
              <LatitudeDegrees>43.40000071562826633453369140625</LatitudeDegrees>
              <LongitudeDegrees>-3.39990268461406230926513671875</LongitudeDegrees>
            </Position>
            <AltitudeMeters>156</AltitudeMeters>
            <DistanceMeters>NAN</DistanceMeters>
          </Trackpoint>
          <Trackpoint>
            <Time>2022-07-13T08:10:03.000Z</Time>
            <Position>
              <LatitudeDegrees>43.40007900260388851165771484375</LatitudeDegrees>
              <LongitudeDegrees>-3.4000605158507823944091796875</LongitudeDegrees>
            </Position>
            <AltitudeMeters>155.8000030517578125</AltitudeMeters>
            <DistanceMeters>NAN</DistanceMeters>
          </Trackpoint>
          <Trackpoint>
            <Time>2022-07-13T08:10:04.000Z</Time>
            <Position>
              <LatitudeDegrees>43.40011236257851123809814453125</LatitudeDegrees>
              <LongitudeDegrees>-3.40012581087648868560791015625</LongitudeDegrees>
            </Position>
            <AltitudeMeters>155.8000030517578125</AltitudeMeters>
            <DistanceMeters>NAN</DistanceMeters>
          </Trackpoint>
          <Trackpoint>
            <Time>2022-07-13T08:10:05.000Z</Time>
            <Position>
              <LatitudeDegrees>43.40015695430338382720947265625</LatitudeDegrees>
              <LongitudeDegrees>-3.400203846395015716552734375</LongitudeDegrees>
            </Position>
            <AltitudeMeters>155.600006103515625</AltitudeMeters>
            <DistanceMeters>NAN</DistanceMeters>
          </Trackpoint>
          <Trackpoint>
            <Time>2022-07-13T08:10:06.000Z</Time>
            <Position>
              <LatitudeDegrees>43.40020104311406612396240234375</LatitudeDegrees>
              <LongitudeDegrees>-3.400286324322223663330078125</LongitudeDegrees>
            </Position>
            <AltitudeMeters>155.1999969482421875</AltitudeMeters>
            <DistanceMeters>NAN</DistanceMeters>
          </Trackpoint>
          <Trackpoint>
            <Time>2022-07-13T08:10:10.000Z</Time>
            <Position>
              <LatitudeDegrees>43.400369770824909210205078125</LatitudeDegrees>
              <LongitudeDegrees>-3.4006492607295513153076171875</LongitudeDegrees>
            </Position>
            <AltitudeMeters>154.399993896484375</AltitudeMeters>
            <DistanceMeters>NAN</DistanceMeters>
          </Trackpoint>
          <Trackpoint>
            <Time>2022-07-13T08:10:11.000Z</Time>
            <Position>
              <LatitudeDegrees>43.4004145301878452301025390625</LatitudeDegrees>
              <LongitudeDegrees>-3.40073584578931331634521484375</LongitudeDegrees>
            </Position>
            <AltitudeMeters>154</AltitudeMeters>
            <DistanceMeters>NAN</DistanceMeters>
          </Trackpoint>
          <Trackpoint>
            <Time>2022-07-13T08:10:16.000Z</Time>
            <Position>
              <LatitudeDegrees>43.4006676636636257171630859375</LatitudeDegrees>
              <LongitudeDegrees>-3.40124311856925487518310546875</LongitudeDegrees>
            </Position>
            <AltitudeMeters>153</AltitudeMeters>
            <DistanceMeters>NAN</DistanceMeters>
          </Trackpoint>
          <Trackpoint>
            <Time>2022-07-13T08:10:17.000Z</Time>
            <Position>
              <LatitudeDegrees>43.40072155930101871490478515625</LatitudeDegrees>
              <LongitudeDegrees>-3.40135417878627777099609375</LongitudeDegrees>
            </Position>
            <AltitudeMeters>152.600006103515625</AltitudeMeters>
            <DistanceMeters>NAN</DistanceMeters>
          </Trackpoint>
          <Trackpoint>
            <Time>2022-07-13T08:10:19.000Z</Time>
            <Position>
              <LatitudeDegrees>43.40084460563957691192626953125</LatitudeDegrees>
              <LongitudeDegrees>-3.4015830047428607940673828125</LongitudeDegrees>
            </Position>
            <AltitudeMeters>151.8000030517578125</AltitudeMeters>
            <DistanceMeters>NAN</DistanceMeters>
          </Trackpoint>
          <Trackpoint>
            <Time>2022-07-13T08:10:21.000Z</Time>
            <Position>
              <LatitudeDegrees>43.40097536332905292510986328125</LatitudeDegrees>
              <LongitudeDegrees>-3.4018176980316638946533203125</LongitudeDegrees>
            </Position>
            <AltitudeMeters>150.600006103515625</AltitudeMeters>
            <DistanceMeters>NAN</DistanceMeters>
          </Trackpoint>
          <Trackpoint>
            <Time>2022-07-13T08:10:23.000Z</Time>
            <Position>
              <LatitudeDegrees>43.40109673328697681427001953125</LatitudeDegrees>
              <LongitudeDegrees>-3.40204895474016666412353515625</LongitudeDegrees>
            </Position>
            <AltitudeMeters>149.8000030517578125</AltitudeMeters>
            <DistanceMeters>NAN</DistanceMeters>
          </Trackpoint>
          <Trackpoint>
            <Time>2022-07-13T08:10:24.000Z</Time>
            <Position>
              <LatitudeDegrees>43.40116127394139766693115234375</LatitudeDegrees>
              <LongitudeDegrees>-3.402164876461029052734375</LongitudeDegrees>
            </Position>
            <AltitudeMeters>149.1999969482421875</AltitudeMeters>
            <DistanceMeters>NAN</DistanceMeters>
          </Trackpoint>
          <Trackpoint>
            <Time>2022-07-13T08:10:26.000Z</Time>
            <Position>
              <LatitudeDegrees>43.401290439069271087646484375</LatitudeDegrees>
              <LongitudeDegrees>-3.40240216813981533050537109375</LongitudeDegrees>
            </Position>
            <AltitudeMeters>148</AltitudeMeters>
            <DistanceMeters>NAN</DistanceMeters>
          </Trackpoint>
          <Trackpoint>
            <Time>2022-07-13T08:10:29.000Z</Time>
            <Position>
              <LatitudeDegrees>43.401480205357074737548828125</LatitudeDegrees>
              <LongitudeDegrees>-3.4027772583067417144775390625</LongitudeDegrees>
            </Position>
            <AltitudeMeters>146</AltitudeMeters>
            <DistanceMeters>NAN</DistanceMeters>
          </Trackpoint>
          <Trackpoint>
            <Time>2022-07-13T08:10:31.000Z</Time>
            <Position>
              <LatitudeDegrees>43.401615656912326812744140625</LatitudeDegrees>
              <LongitudeDegrees>-3.403034247457981109619140625</LongitudeDegrees>
            </Position>
            <AltitudeMeters>144.8000030517578125</AltitudeMeters>
            <DistanceMeters>NAN</DistanceMeters>
          </Trackpoint>
          <Trackpoint>
            <Time>2022-07-13T08:10:33.000Z</Time>
            <Position>
              <LatitudeDegrees>43.40173845179378986358642578125</LatitudeDegrees>
              <LongitudeDegrees>-3.403268270194530487060546875</LongitudeDegrees>
            </Position>
            <AltitudeMeters>143.1999969482421875</AltitudeMeters>
            <DistanceMeters>NAN</DistanceMeters>
          </Trackpoint>
          <Trackpoint>
            <Time>2022-07-13T08:10:35.000Z</Time>
            <Position>
              <LatitudeDegrees>43.40189368464052677154541015625</LatitudeDegrees>
              <LongitudeDegrees>-3.40356105007231235504150390625</LongitudeDegrees>
            </Position>
            <AltitudeMeters>142</AltitudeMeters>
            <DistanceMeters>NAN</DistanceMeters>
          </Trackpoint>
          <Trackpoint>
            <Time>2022-07-13T08:10:39.000Z</Time>
            <Position>
              <LatitudeDegrees>43.40217380784451961517333984375</LatitudeDegrees>
              <LongitudeDegrees>-3.40410185046494007110595703125</LongitudeDegrees>
            </Position>
            <AltitudeMeters>140.8000030517578125</AltitudeMeters>
            <DistanceMeters>NAN</DistanceMeters>
          </Trackpoint>
          <Trackpoint>
            <Time>2022-07-13T08:10:41.000Z</Time>
            <Position>
              <LatitudeDegrees>43.4023105166852474212646484375</LatitudeDegrees>
              <LongitudeDegrees>-3.40437568724155426025390625</LongitudeDegrees>
            </Position>
            <AltitudeMeters>139.1999969482421875</AltitudeMeters>
            <DistanceMeters>NAN</DistanceMeters>
          </Trackpoint>
          <Trackpoint>
            <Time>2022-07-13T08:10:42.000Z</Time>
            <Position>
              <LatitudeDegrees>43.40238201431930065155029296875</LatitudeDegrees>
              <LongitudeDegrees>-3.40451004914939403533935546875</LongitudeDegrees>
            </Position>
            <AltitudeMeters>138.8000030517578125</AltitudeMeters>
            <DistanceMeters>NAN</DistanceMeters>
          </Trackpoint>
          <Trackpoint>
            <Time>2022-07-13T08:10:44.000Z</Time>
            <Position>
              <LatitudeDegrees>43.40252417139708995819091796875</LatitudeDegrees>
              <LongitudeDegrees>-3.40478296391665935516357421875</LongitudeDegrees>
            </Position>
            <AltitudeMeters>137.600006103515625</AltitudeMeters>
            <DistanceMeters>NAN</DistanceMeters>
          </Trackpoint>
          <Trackpoint>
            <Time>2022-07-13T08:10:45.000Z</Time>
            <Position>
              <LatitudeDegrees>43.40257815085351467132568359375</LatitudeDegrees>
              <LongitudeDegrees>-3.4048938564956188201904296875</LongitudeDegrees>
            </Position>
            <AltitudeMeters>136.600006103515625</AltitudeMeters>
            <DistanceMeters>NAN</DistanceMeters>
          </Trackpoint>
          <Trackpoint>
            <Time>2022-07-13T08:10:46.000Z</Time>
            <Position>
              <LatitudeDegrees>43.40265912003815174102783203125</LatitudeDegrees>
              <LongitudeDegrees>-3.40506409294903278350830078125</LongitudeDegrees>
            </Position>
            <AltitudeMeters>135.399993896484375</AltitudeMeters>
            <DistanceMeters>NAN</DistanceMeters>
          </Trackpoint>
          <Trackpoint>
            <Time>2022-07-13T08:10:48.000Z</Time>
            <Position>
              <LatitudeDegrees>43.40278887189924716949462890625</LatitudeDegrees>
              <LongitudeDegrees>-3.4053565375506877899169921875</LongitudeDegrees>
            </Position>
            <AltitudeMeters>133.8000030517578125</AltitudeMeters>
            <DistanceMeters>NAN</DistanceMeters>
          </Trackpoint>
          <Trackpoint>
            <Time>2022-07-13T08:10:49.000Z</Time>
            <Position>
              <LatitudeDegrees>43.40285140089690685272216796875</LatitudeDegrees>
              <LongitudeDegrees>-3.40550514869391918182373046875</LongitudeDegrees>
            </Position>
            <AltitudeMeters>133.1999969482421875</AltitudeMeters>
            <DistanceMeters>NAN</DistanceMeters>
          </Trackpoint>
          <Trackpoint>
            <Time>2022-07-13T08:10:50.000Z</Time>
            <Position>
              <LatitudeDegrees>43.40291728265583515167236328125</LatitudeDegrees>
              <LongitudeDegrees>-3.4056512452661991119384765625</LongitudeDegrees>
            </Position>
            <AltitudeMeters>132.1999969482421875</AltitudeMeters>
            <DistanceMeters>NAN</DistanceMeters>
          </Trackpoint>
          <Trackpoint>
            <Time>2022-07-13T08:10:52.000Z</Time>
            <Position>
              <LatitudeDegrees>43.40304234065115451812744140625</LatitudeDegrees>
              <LongitudeDegrees>-3.40595056302845478057861328125</LongitudeDegrees>
            </Position>
            <AltitudeMeters>130.399993896484375</AltitudeMeters>
            <DistanceMeters>NAN</DistanceMeters>
          </Trackpoint>
          <Trackpoint>
            <Time>2022-07-13T08:10:54.000Z</Time>
            <Position>
              <LatitudeDegrees>43.40315759181976318359375</LatitudeDegrees>
              <LongitudeDegrees>-3.4062646329402923583984375</LongitudeDegrees>
            </Position>
            <AltitudeMeters>128.8000030517578125</AltitudeMeters>
            <DistanceMeters>NAN</DistanceMeters>
          </Trackpoint>
          <Trackpoint>
            <Time>2022-07-13T08:10:55.000Z</Time>
            <Position>
              <LatitudeDegrees>43.40321383439004421234130859375</LatitudeDegrees>
              <LongitudeDegrees>-3.40642581693828105926513671875</LongitudeDegrees>
            </Position>
            <AltitudeMeters>128.1999969482421875</AltitudeMeters>
            <DistanceMeters>NAN</DistanceMeters>
          </Trackpoint>
          <Trackpoint>
            <Time>2022-07-13T08:10:57.000Z</Time>
            <Position>
              <LatitudeDegrees>43.403326235711574554443359375</LatitudeDegrees>
              <LongitudeDegrees>-3.4067489393055438995361328125</LongitudeDegrees>
            </Position>
            <AltitudeMeters>127.1999969482421875</AltitudeMeters>
            <DistanceMeters>NAN</DistanceMeters>
          </Trackpoint>
          <Trackpoint>
            <Time>2022-07-13T08:10:59.000Z</Time>
            <Position>
              <LatitudeDegrees>43.4034303389489650726318359375</LatitudeDegrees>
              <LongitudeDegrees>-3.4070808626711368560791015625</LongitudeDegrees>
            </Position>
            <AltitudeMeters>125.59999847412109375</AltitudeMeters>
            <DistanceMeters>NAN</DistanceMeters>
          </Trackpoint>
          <Trackpoint>
            <Time>2022-07-13T08:11:01.000Z</Time>
            <Position>
              <LatitudeDegrees>43.403527401387691497802734375</LatitudeDegrees>
              <LongitudeDegrees>-3.40741940774023532867431640625</LongitudeDegrees>
            </Position>
            <AltitudeMeters>124</AltitudeMeters>
            <DistanceMeters>NAN</DistanceMeters>
          </Trackpoint>
          <Trackpoint>
            <Time>2022-07-13T08:11:02.000Z</Time>
            <Position>
              <LatitudeDegrees>43.40357626788318157196044921875</LatitudeDegrees>
              <LongitudeDegrees>-3.4075911529362201690673828125</LongitudeDegrees>
            </Position>
            <AltitudeMeters>123.1999969482421875</AltitudeMeters>
            <DistanceMeters>NAN</DistanceMeters>
          </Trackpoint>
          <Trackpoint>
            <Time>2022-07-13T08:11:03.000Z</Time>
            <Position>
              <LatitudeDegrees>43.40363007970154285430908203125</LatitudeDegrees>
              <LongitudeDegrees>-3.407758958637714385986328125</LongitudeDegrees>
            </Position>
            <AltitudeMeters>122.40000152587890625</AltitudeMeters>
            <DistanceMeters>NAN</DistanceMeters>
          </Trackpoint>
          <Trackpoint>
            <Time>2022-07-13T08:11:05.000Z</Time>
            <Position>
              <LatitudeDegrees>43.40373652987182140350341796875</LatitudeDegrees>
              <LongitudeDegrees>-3.40809934772551059722900390625</LongitudeDegrees>
            </Position>
            <AltitudeMeters>121</AltitudeMeters>
            <DistanceMeters>NAN</DistanceMeters>
          </Trackpoint>
          <Trackpoint>
            <Time>2022-07-13T08:11:07.000Z</Time>
            <Position>
              <LatitudeDegrees>43.40384566225111484527587890625</LatitudeDegrees>
              <LongitudeDegrees>-3.40844199992716312408447265625</LongitudeDegrees>
            </Position>
            <AltitudeMeters>119.8000030517578125</AltitudeMeters>
            <DistanceMeters>NAN</DistanceMeters>
          </Trackpoint>
          <Trackpoint>
            <Time>2022-07-13T08:11:09.000Z</Time>
            <Position>
              <LatitudeDegrees>43.40395680628716945648193359375</LatitudeDegrees>
              <LongitudeDegrees>-3.40878280811011791229248046875</LongitudeDegrees>
            </Position>
            <AltitudeMeters>118.40000152587890625</AltitudeMeters>
            <DistanceMeters>NAN</DistanceMeters>
          </Trackpoint>
          <Trackpoint>
            <Time>2022-07-13T08:11:10.000Z</Time>
            <Position>
              <LatitudeDegrees>43.40401950292289257049560546875</LatitudeDegrees>
              <LongitudeDegrees>-3.40894659049808979034423828125</LongitudeDegrees>
            </Position>
            <AltitudeMeters>117.8000030517578125</AltitudeMeters>
            <DistanceMeters>NAN</DistanceMeters>
          </Trackpoint>
          <Trackpoint>
            <Time>2022-07-13T08:11:12.000Z</Time>
            <Position>
              <LatitudeDegrees>43.4041515178978443145751953125</LatitudeDegrees>
              <LongitudeDegrees>-3.40927314944565296173095703125</LongitudeDegrees>
            </Position>
            <AltitudeMeters>116.59999847412109375</AltitudeMeters>
            <DistanceMeters>NAN</DistanceMeters>
          </Trackpoint>
          <Trackpoint>
            <Time>2022-07-13T08:11:14.000Z</Time>
            <Position>
              <LatitudeDegrees>43.40429057367146015167236328125</LatitudeDegrees>
              <LongitudeDegrees>-3.4095863811671733856201171875</LongitudeDegrees>
            </Position>
            <AltitudeMeters>115.1999969482421875</AltitudeMeters>
            <DistanceMeters>NAN</DistanceMeters>
          </Trackpoint>
          <Trackpoint>
            <Time>2022-07-13T08:11:16.000Z</Time>
            <Position>
              <LatitudeDegrees>43.40442904271185398101806640625</LatitudeDegrees>
              <LongitudeDegrees>-3.4099015407264232635498046875</LongitudeDegrees>
            </Position>
            <AltitudeMeters>113.8000030517578125</AltitudeMeters>
            <DistanceMeters>NAN</DistanceMeters>
          </Trackpoint>
          <Trackpoint>
            <Time>2022-07-13T08:11:18.000Z</Time>
            <Position>
              <LatitudeDegrees>43.40455628000199794769287109375</LatitudeDegrees>
              <LongitudeDegrees>-3.4102173708379268646240234375</LongitudeDegrees>
            </Position>
            <AltitudeMeters>112</AltitudeMeters>
            <DistanceMeters>NAN</DistanceMeters>
          </Trackpoint>
          <Trackpoint>
            <Time>2022-07-13T08:11:20.000Z</Time>
            <Position>
              <LatitudeDegrees>43.404670022428035736083984375</LatitudeDegrees>
              <LongitudeDegrees>-3.4105362184345722198486328125</LongitudeDegrees>
            </Position>
            <AltitudeMeters>110.59999847412109375</AltitudeMeters>
            <DistanceMeters>NAN</DistanceMeters>
          </Trackpoint>
          <Trackpoint>
            <Time>2022-07-13T08:11:22.000Z</Time>
            <Position>
              <LatitudeDegrees>43.40476767159998416900634765625</LatitudeDegrees>
              <LongitudeDegrees>-3.410819359123706817626953125</LongitudeDegrees>
            </Position>
            <AltitudeMeters>109.1999969482421875</AltitudeMeters>
            <DistanceMeters>NAN</DistanceMeters>
          </Trackpoint>
          <Trackpoint>
            <Time>2022-07-13T08:11:24.000Z</Time>
            <Position>
              <LatitudeDegrees>43.404888622462749481201171875</LatitudeDegrees>
              <LongitudeDegrees>-3.411159329116344451904296875</LongitudeDegrees>
            </Position>
            <AltitudeMeters>108</AltitudeMeters>
            <DistanceMeters>NAN</DistanceMeters>
          </Trackpoint>
          <Trackpoint>
            <Time>2022-07-13T08:11:27.000Z</Time>
            <Position>
              <LatitudeDegrees>43.40505014173686504364013671875</LatitudeDegrees>
              <LongitudeDegrees>-3.41156610287725925445556640625</LongitudeDegrees>
            </Position>
            <AltitudeMeters>106.8000030517578125</AltitudeMeters>
            <DistanceMeters>NAN</DistanceMeters>
          </Trackpoint>
          <Trackpoint>
            <Time>2022-07-13T08:11:28.000Z</Time>
            <Position>
              <LatitudeDegrees>43.40510278008878231048583984375</LatitudeDegrees>
              <LongitudeDegrees>-3.41166727244853973388671875</LongitudeDegrees>
            </Position>
            <AltitudeMeters>106.1999969482421875</AltitudeMeters>
            <DistanceMeters>NAN</DistanceMeters>
          </Trackpoint>
          <Trackpoint>
            <Time>2022-07-13T08:11:30.000Z</Time>
            <Position>
              <LatitudeDegrees>43.40520822443068027496337890625</LatitudeDegrees>
              <LongitudeDegrees>-3.411814458668231964111328125</LongitudeDegrees>
            </Position>
            <AltitudeMeters>105.1999969482421875</AltitudeMeters>
            <DistanceMeters>NAN</DistanceMeters>
          </Trackpoint>
          <Trackpoint>
            <Time>2022-07-13T08:11:31.000Z</Time>
            <Position>
              <LatitudeDegrees>43.40526245534420013427734375</LatitudeDegrees>
              <LongitudeDegrees>-3.41186181642115116119384765625</LongitudeDegrees>
            </Position>
            <AltitudeMeters>104.59999847412109375</AltitudeMeters>
            <DistanceMeters>NAN</DistanceMeters>
          </Trackpoint>
          <Trackpoint>
            <Time>2022-07-13T08:11:32.000Z</Time>
            <Position>
              <LatitudeDegrees>43.40532305650413036346435546875</LatitudeDegrees>
              <LongitudeDegrees>-3.41189450584352016448974609375</LongitudeDegrees>
            </Position>
            <AltitudeMeters>104.1999969482421875</AltitudeMeters>
            <DistanceMeters>NAN</DistanceMeters>
          </Trackpoint>
          <Trackpoint>
            <Time>2022-07-13T08:11:34.000Z</Time>
            <Position>
              <LatitudeDegrees>43.405433110892772674560546875</LatitudeDegrees>
              <LongitudeDegrees>-3.4119695238769054412841796875</LongitudeDegrees>
            </Position>
            <AltitudeMeters>103.1999969482421875</AltitudeMeters>
            <DistanceMeters>NAN</DistanceMeters>
          </Trackpoint>
          <Trackpoint>
            <Time>2022-07-13T08:11:35.000Z</Time>
            <Position>
              <LatitudeDegrees>43.40548248030245304107666015625</LatitudeDegrees>
              <LongitudeDegrees>-3.41202643699944019317626953125</LongitudeDegrees>
            </Position>
            <AltitudeMeters>102.8000030517578125</AltitudeMeters>
            <DistanceMeters>NAN</DistanceMeters>
          </Trackpoint>
          <Trackpoint>
            <Time>2022-07-13T08:11:38.000Z</Time>
            <Position>
              <LatitudeDegrees>43.4056384675204753875732421875</LatitudeDegrees>
              <LongitudeDegrees>-3.4122038818895816802978515625</LongitudeDegrees>
            </Position>
            <AltitudeMeters>101.59999847412109375</AltitudeMeters>
            <DistanceMeters>NAN</DistanceMeters>
          </Trackpoint>
          <Trackpoint>
            <Time>2022-07-13T08:11:39.000Z</Time>
            <Position>
              <LatitudeDegrees>43.4057014994323253631591796875</LatitudeDegrees>
              <LongitudeDegrees>-3.41225040145218372344970703125</LongitudeDegrees>
            </Position>
            <AltitudeMeters>101.1999969482421875</AltitudeMeters>
            <DistanceMeters>NAN</DistanceMeters>
          </Trackpoint>
          <Trackpoint>
            <Time>2022-07-13T08:11:40.000Z</Time>
            <Position>
              <LatitudeDegrees>43.40576997958123683929443359375</LatitudeDegrees>
              <LongitudeDegrees>-3.4122806601226329803466796875</LongitudeDegrees>
            </Position>
            <AltitudeMeters>101</AltitudeMeters>
            <DistanceMeters>NAN</DistanceMeters>
          </Trackpoint>
          <Trackpoint>
            <Time>2022-07-13T08:11:42.000Z</Time>
            <Position>
              <LatitudeDegrees>43.40592227876186370849609375</LatitudeDegrees>
              <LongitudeDegrees>-3.41230588965117931365966796875</LongitudeDegrees>
            </Position>
            <AltitudeMeters>100.40000152587890625</AltitudeMeters>
            <DistanceMeters>NAN</DistanceMeters>
          </Trackpoint>
          <Trackpoint>
            <Time>2022-07-13T08:11:43.000Z</Time>
            <Position>
              <LatitudeDegrees>43.406003080308437347412109375</LatitudeDegrees>
              <LongitudeDegrees>-3.4123084880411624908447265625</LongitudeDegrees>
            </Position>
            <AltitudeMeters>100</AltitudeMeters>
            <DistanceMeters>NAN</DistanceMeters>
          </Trackpoint>
          <Trackpoint>
            <Time>2022-07-13T08:11:45.000Z</Time>
            <Position>
              <LatitudeDegrees>43.40617801062762737274169921875</LatitudeDegrees>
              <LongitudeDegrees>-3.4123014472424983978271484375</LongitudeDegrees>
            </Position>
            <AltitudeMeters>99</AltitudeMeters>
            <DistanceMeters>NAN</DistanceMeters>
          </Trackpoint>
          <Trackpoint>
            <Time>2022-07-13T08:11:47.000Z</Time>
            <Position>
              <LatitudeDegrees>43.4063596464693546295166015625</LatitudeDegrees>
              <LongitudeDegrees>-3.412257693707942962646484375</LongitudeDegrees>
            </Position>
            <AltitudeMeters>98</AltitudeMeters>
            <DistanceMeters>NAN</DistanceMeters>
          </Trackpoint>
          <Trackpoint>
            <Time>2022-07-13T08:11:48.000Z</Time>
            <Position>
              <LatitudeDegrees>43.40645343996584415435791015625</LatitudeDegrees>
              <LongitudeDegrees>-3.4122270159423351287841796875</LongitudeDegrees>
            </Position>
            <AltitudeMeters>97.8000030517578125</AltitudeMeters>
            <DistanceMeters>NAN</DistanceMeters>
          </Trackpoint>
          <Trackpoint>
            <Time>2022-07-13T08:11:50.000Z</Time>
            <Position>
              <LatitudeDegrees>43.4066489897668361663818359375</LatitudeDegrees>
              <LongitudeDegrees>-3.41215887106955051422119140625</LongitudeDegrees>
            </Position>
            <AltitudeMeters>96.40000152587890625</AltitudeMeters>
            <DistanceMeters>NAN</DistanceMeters>
          </Trackpoint>
          <Trackpoint>
            <Time>2022-07-13T08:11:52.000Z</Time>
            <Position>
              <LatitudeDegrees>43.4068442881107330322265625</LatitudeDegrees>
              <LongitudeDegrees>-3.41210556216537952423095703125</LongitudeDegrees>
            </Position>
            <AltitudeMeters>95.40000152587890625</AltitudeMeters>
            <DistanceMeters>NAN</DistanceMeters>
          </Trackpoint>
          <Trackpoint>
            <Time>2022-07-13T08:11:53.000Z</Time>
            <Position>
              <LatitudeDegrees>43.4069483913481235504150390625</LatitudeDegrees>
              <LongitudeDegrees>-3.4120872057974338531494140625</LongitudeDegrees>
            </Position>
            <AltitudeMeters>95</AltitudeMeters>
            <DistanceMeters>NAN</DistanceMeters>
          </Trackpoint>
          <Trackpoint>
            <Time>2022-07-13T08:11:55.000Z</Time>
            <Position>
              <LatitudeDegrees>43.4071602858603000640869140625</LatitudeDegrees>
              <LongitudeDegrees>-3.41204470954835414886474609375</LongitudeDegrees>
            </Position>
            <AltitudeMeters>93.8000030517578125</AltitudeMeters>
            <DistanceMeters>NAN</DistanceMeters>
          </Trackpoint>
          <Trackpoint>
            <Time>2022-07-13T08:11:58.000Z</Time>
            <Position>
              <LatitudeDegrees>43.40748843736946582794189453125</LatitudeDegrees>
              <LongitudeDegrees>-3.411976732313632965087890625</LongitudeDegrees>
            </Position>
            <AltitudeMeters>92.40000152587890625</AltitudeMeters>
            <DistanceMeters>NAN</DistanceMeters>
          </Trackpoint>
          <Trackpoint>
            <Time>2022-07-13T08:12:01.000Z</Time>
            <Position>
              <LatitudeDegrees>43.40783628635108470916748046875</LatitudeDegrees>
              <LongitudeDegrees>-3.411901630461215972900390625</LongitudeDegrees>
            </Position>
            <AltitudeMeters>90.59999847412109375</AltitudeMeters>
            <DistanceMeters>NAN</DistanceMeters>
          </Trackpoint>
          <Trackpoint>
            <Time>2022-07-13T08:12:02.000Z</Time>
            <Position>
              <LatitudeDegrees>43.4079542197287082672119140625</LatitudeDegrees>
              <LongitudeDegrees>-3.41186734847724437713623046875</LongitudeDegrees>
            </Position>
            <AltitudeMeters>89</AltitudeMeters>
            <DistanceMeters>NAN</DistanceMeters>
          </Trackpoint>
          <Trackpoint>
            <Time>2022-07-13T08:12:03.000Z</Time>
            <Position>
              <LatitudeDegrees>43.4080722369253635406494140625</LatitudeDegrees>
              <LongitudeDegrees>-3.4118340723216533660888671875</LongitudeDegrees>
            </Position>
            <AltitudeMeters>87.59999847412109375</AltitudeMeters>
            <DistanceMeters>NAN</DistanceMeters>
          </Trackpoint>
          <Trackpoint>
            <Time>2022-07-13T08:12:05.000Z</Time>
            <Position>
              <LatitudeDegrees>43.40831078588962554931640625</LatitudeDegrees>
              <LongitudeDegrees>-3.411782942712306976318359375</LongitudeDegrees>
            </Position>
            <AltitudeMeters>86.1999969482421875</AltitudeMeters>
            <DistanceMeters>NAN</DistanceMeters>
          </Trackpoint>
          <Trackpoint>
            <Time>2022-07-13T08:12:07.000Z</Time>
            <Position>
              <LatitudeDegrees>43.40855143032968044281005859375</LatitudeDegrees>
              <LongitudeDegrees>-3.411732651293277740478515625</LongitudeDegrees>
            </Position>
            <AltitudeMeters>84.40000152587890625</AltitudeMeters>
            <DistanceMeters>NAN</DistanceMeters>
          </Trackpoint>
          <Trackpoint>
            <Time>2022-07-13T08:12:09.000Z</Time>
            <Position>
              <LatitudeDegrees>43.40878310613334178924560546875</LatitudeDegrees>
              <LongitudeDegrees>-3.41166668571531772613525390625</LongitudeDegrees>
            </Position>
            <AltitudeMeters>83</AltitudeMeters>
            <DistanceMeters>NAN</DistanceMeters>
          </Trackpoint>
          <Trackpoint>
            <Time>2022-07-13T08:12:10.000Z</Time>
            <Position>
              <LatitudeDegrees>43.40886876918375492095947265625</LatitudeDegrees>
              <LongitudeDegrees>-3.411645479500293731689453125</LongitudeDegrees>
            </Position>
            <AltitudeMeters>82.1999969482421875</AltitudeMeters>
            <DistanceMeters>NAN</DistanceMeters>
          </Trackpoint>
          <Trackpoint>
            <Time>2022-07-13T08:12:11.000Z</Time>
            <Position>
              <LatitudeDegrees>43.408919982612133026123046875</LatitudeDegrees>
              <LongitudeDegrees>-3.4116342477500438690185546875</LongitudeDegrees>
            </Position>
            <AltitudeMeters>81</AltitudeMeters>
            <DistanceMeters>NAN</DistanceMeters>
          </Trackpoint>
          <Trackpoint>
            <Time>2022-07-13T08:12:12.000Z</Time>
            <Position>
              <LatitudeDegrees>43.40894353576004505157470703125</LatitudeDegrees>
              <LongitudeDegrees>-3.41163885779678821563720703125</LongitudeDegrees>
            </Position>
            <AltitudeMeters>79.59999847412109375</AltitudeMeters>
            <DistanceMeters>NAN</DistanceMeters>
          </Trackpoint>
          <Trackpoint>
            <Time>2022-07-13T08:12:13.000Z</Time>
            <Position>
              <LatitudeDegrees>43.40894789434969425201416015625</LatitudeDegrees>
              <LongitudeDegrees>-3.41165394522249698638916015625</LongitudeDegrees>
            </Position>
            <AltitudeMeters>78.1999969482421875</AltitudeMeters>
            <DistanceMeters>NAN</DistanceMeters>
          </Trackpoint>
          <Trackpoint>
            <Time>2022-07-13T08:12:14.000Z</Time>
            <Position>
              <LatitudeDegrees>43.40894085355103015899658203125</LatitudeDegrees>
              <LongitudeDegrees>-3.41167205013334751129150390625</LongitudeDegrees>
            </Position>
            <AltitudeMeters>77.40000152587890625</AltitudeMeters>
            <DistanceMeters>NAN</DistanceMeters>
          </Trackpoint>
          <Trackpoint>
            <Time>2022-07-13T08:12:15.000Z</Time>
            <Position>
              <LatitudeDegrees>43.40892911888659000396728515625</LatitudeDegrees>
              <LongitudeDegrees>-3.41168831102550029754638671875</LongitudeDegrees>
            </Position>
            <AltitudeMeters>77</AltitudeMeters>
            <DistanceMeters>NAN</DistanceMeters>
          </Trackpoint>
          <Trackpoint>
            <Time>2022-07-13T08:12:19.000Z</Time>
            <Position>
              <LatitudeDegrees>43.4088960103690624237060546875</LatitudeDegrees>
              <LongitudeDegrees>-3.4117162227630615234375</LongitudeDegrees>
            </Position>
            <AltitudeMeters>77</AltitudeMeters>
            <DistanceMeters>NAN</DistanceMeters>
          </Trackpoint>
          <Trackpoint>
            <Time>2022-07-13T08:12:23.000Z</Time>
            <Position>
              <LatitudeDegrees>43.40887564234435558319091796875</LatitudeDegrees>
              <LongitudeDegrees>-3.4117438830435276031494140625</LongitudeDegrees>
            </Position>
            <AltitudeMeters>77.40000152587890625</AltitudeMeters>
            <DistanceMeters>NAN</DistanceMeters>
          </Trackpoint>
          <Trackpoint>
            <Time>2022-07-13T08:12:26.000Z</Time>
            <Position>
              <LatitudeDegrees>43.408860974013805389404296875</LatitudeDegrees>
              <LongitudeDegrees>-3.41178956441581249237060546875</LongitudeDegrees>
            </Position>
            <AltitudeMeters>77.1999969482421875</AltitudeMeters>
            <DistanceMeters>NAN</DistanceMeters>
          </Trackpoint>
          <Trackpoint>
            <Time>2022-07-13T08:12:31.000Z</Time>
            <Position>
              <LatitudeDegrees>43.40883390046656131744384765625</LatitudeDegrees>
              <LongitudeDegrees>-3.41182912699878215789794921875</LongitudeDegrees>
            </Position>
            <AltitudeMeters>77.1999969482421875</AltitudeMeters>
            <DistanceMeters>NAN</DistanceMeters>
          </Trackpoint>
          <Trackpoint>
            <Time>2022-07-13T08:12:33.000Z</Time>
            <Position>
              <LatitudeDegrees>43.40883390046656131744384765625</LatitudeDegrees>
              <LongitudeDegrees>-3.41182912699878215789794921875</LongitudeDegrees>
            </Position>
            <AltitudeMeters>77.1999969482421875</AltitudeMeters>
            <DistanceMeters>NAN</DistanceMeters>
          </Trackpoint>
          <Trackpoint>
            <Time>2022-07-13T08:15:18.000Z</Time>
            <Position>
              <LatitudeDegrees>43.40888335369527339935302734375</LatitudeDegrees>
              <LongitudeDegrees>-3.411656878888607025146484375</LongitudeDegrees>
            </Position>
            <AltitudeMeters>75.8000030517578125</AltitudeMeters>
            <DistanceMeters>NAN</DistanceMeters>
          </Trackpoint>
          <Trackpoint>
            <Time>2022-07-13T08:15:19.000Z</Time>
            <Position>
              <LatitudeDegrees>43.40889760293066501617431640625</LatitudeDegrees>
              <LongitudeDegrees>-3.4116161428391933441162109375</LongitudeDegrees>
            </Position>
            <AltitudeMeters>75.8000030517578125</AltitudeMeters>
            <DistanceMeters>NAN</DistanceMeters>
          </Trackpoint>
          <Trackpoint>
            <Time>2022-07-13T08:15:22.000Z</Time>
            <Position>
              <LatitudeDegrees>43.40899164788424968719482421875</LatitudeDegrees>
              <LongitudeDegrees>-3.41152167879045009613037109375</LongitudeDegrees>
            </Position>
            <AltitudeMeters>75.40000152587890625</AltitudeMeters>
            <DistanceMeters>NAN</DistanceMeters>
          </Trackpoint>
          <Trackpoint>
            <Time>2022-07-13T08:15:23.000Z</Time>
            <Position>
              <LatitudeDegrees>43.40903439559042453765869140625</LatitudeDegrees>
              <LongitudeDegrees>-3.411487229168415069580078125</LongitudeDegrees>
            </Position>
            <AltitudeMeters>75.1999969482421875</AltitudeMeters>
            <DistanceMeters>NAN</DistanceMeters>
          </Trackpoint>
          <Trackpoint>
            <Time>2022-07-13T08:15:24.000Z</Time>
            <Position>
              <LatitudeDegrees>43.4090797416865825653076171875</LatitudeDegrees>
              <LongitudeDegrees>-3.41144330799579620361328125</LongitudeDegrees>
            </Position>
            <AltitudeMeters>75</AltitudeMeters>
            <DistanceMeters>NAN</DistanceMeters>
          </Trackpoint>
          <Trackpoint>
            <Time>2022-07-13T08:15:26.000Z</Time>
            <Position>
              <LatitudeDegrees>43.40915408916771411895751953125</LatitudeDegrees>
              <LongitudeDegrees>-3.411332331597805023193359375</LongitudeDegrees>
            </Position>
            <AltitudeMeters>74.8000030517578125</AltitudeMeters>
            <DistanceMeters>NAN</DistanceMeters>
          </Trackpoint>
          <Trackpoint>
            <Time>2022-07-13T08:15:27.000Z</Time>
            <Position>
              <LatitudeDegrees>43.409192897379398345947265625</LatitudeDegrees>
              <LongitudeDegrees>-3.41125798411667346954345703125</LongitudeDegrees>
            </Position>
            <AltitudeMeters>74.59999847412109375</AltitudeMeters>
            <DistanceMeters>NAN</DistanceMeters>
          </Trackpoint>
          <Trackpoint>
            <Time>2022-07-13T08:15:28.000Z</Time>
            <Position>
              <LatitudeDegrees>43.4092316217720508575439453125</LatitudeDegrees>
              <LongitudeDegrees>-3.4111789427697658538818359375</LongitudeDegrees>
            </Position>
            <AltitudeMeters>74.40000152587890625</AltitudeMeters>
            <DistanceMeters>NAN</DistanceMeters>
          </Trackpoint>
          <Trackpoint>
            <Time>2022-07-13T08:15:30.000Z</Time>
            <Position>
              <LatitudeDegrees>43.40929775498807430267333984375</LatitudeDegrees>
              <LongitudeDegrees>-3.410991691052913665771484375</LongitudeDegrees>
            </Position>
            <AltitudeMeters>73.8000030517578125</AltitudeMeters>
            <DistanceMeters>NAN</DistanceMeters>
          </Trackpoint>
          <Trackpoint>
            <Time>2022-07-13T08:15:31.000Z</Time>
            <Position>
              <LatitudeDegrees>43.40933136641979217529296875</LatitudeDegrees>
              <LongitudeDegrees>-3.410868309438228607177734375</LongitudeDegrees>
            </Position>
            <AltitudeMeters>73.40000152587890625</AltitudeMeters>
            <DistanceMeters>NAN</DistanceMeters>
          </Trackpoint>
          <Trackpoint>
            <Time>2022-07-13T08:15:35.000Z</Time>
            <Position>
              <LatitudeDegrees>43.4094113297760486602783203125</LatitudeDegrees>
              <LongitudeDegrees>-3.4104507230222225189208984375</LongitudeDegrees>
            </Position>
            <AltitudeMeters>72.1999969482421875</AltitudeMeters>
            <DistanceMeters>NAN</DistanceMeters>
          </Trackpoint>
          <Trackpoint>
            <Time>2022-07-13T08:15:36.000Z</Time>
            <Position>
              <LatitudeDegrees>43.40943329036235809326171875</LatitudeDegrees>
              <LongitudeDegrees>-3.41035055927932262420654296875</LongitudeDegrees>
            </Position>
            <AltitudeMeters>71.8000030517578125</AltitudeMeters>
            <DistanceMeters>NAN</DistanceMeters>
          </Trackpoint>
          <Trackpoint>
            <Time>2022-07-13T08:15:37.000Z</Time>
            <Position>
              <LatitudeDegrees>43.40946991927921772003173828125</LatitudeDegrees>
              <LongitudeDegrees>-3.4102609567344188690185546875</LongitudeDegrees>
            </Position>
            <AltitudeMeters>71</AltitudeMeters>
            <DistanceMeters>NAN</DistanceMeters>
          </Trackpoint>
          <Trackpoint>
            <Time>2022-07-13T08:15:38.000Z</Time>
            <Position>
              <LatitudeDegrees>43.40952289290726184844970703125</LatitudeDegrees>
              <LongitudeDegrees>-3.41018401086330413818359375</LongitudeDegrees>
            </Position>
            <AltitudeMeters>70.40000152587890625</AltitudeMeters>
            <DistanceMeters>NAN</DistanceMeters>
          </Trackpoint>
          <Trackpoint>
            <Time>2022-07-13T08:15:39.000Z</Time>
            <Position>
              <LatitudeDegrees>43.40959154069423675537109375</LatitudeDegrees>
              <LongitudeDegrees>-3.4101144410669803619384765625</LongitudeDegrees>
            </Position>
            <AltitudeMeters>69.8000030517578125</AltitudeMeters>
            <DistanceMeters>NAN</DistanceMeters>
          </Trackpoint>
          <Trackpoint>
            <Time>2022-07-13T08:15:40.000Z</Time>
            <Position>
              <LatitudeDegrees>43.40966588817536830902099609375</LatitudeDegrees>
              <LongitudeDegrees>-3.41005585156381130218505859375</LongitudeDegrees>
            </Position>
            <AltitudeMeters>69.40000152587890625</AltitudeMeters>
            <DistanceMeters>NAN</DistanceMeters>
          </Trackpoint>
          <Trackpoint>
            <Time>2022-07-13T08:15:42.000Z</Time>
            <Position>
              <LatitudeDegrees>43.40982564724981784820556640625</LatitudeDegrees>
              <LongitudeDegrees>-3.40994604863226413726806640625</LongitudeDegrees>
            </Position>
            <AltitudeMeters>68.40000152587890625</AltitudeMeters>
            <DistanceMeters>NAN</DistanceMeters>
          </Trackpoint>
          <Trackpoint>
            <Time>2022-07-13T08:15:43.000Z</Time>
            <Position>
              <LatitudeDegrees>43.40990670025348663330078125</LatitudeDegrees>
              <LongitudeDegrees>-3.409876562654972076416015625</LongitudeDegrees>
            </Position>
            <AltitudeMeters>67.59999847412109375</AltitudeMeters>
            <DistanceMeters>NAN</DistanceMeters>
          </Trackpoint>
          <Trackpoint>
            <Time>2022-07-13T08:15:44.000Z</Time>
            <Position>
              <LatitudeDegrees>43.40998372994363307952880859375</LatitudeDegrees>
              <LongitudeDegrees>-3.4097962640225887298583984375</LongitudeDegrees>
            </Position>
            <AltitudeMeters>67</AltitudeMeters>
            <DistanceMeters>NAN</DistanceMeters>
          </Trackpoint>
          <Trackpoint>
            <Time>2022-07-13T08:15:46.000Z</Time>
            <Position>
              <LatitudeDegrees>43.41012404300272464752197265625</LatitudeDegrees>
              <LongitudeDegrees>-3.4096155501902103424072265625</LongitudeDegrees>
            </Position>
            <AltitudeMeters>65.59999847412109375</AltitudeMeters>
            <DistanceMeters>NAN</DistanceMeters>
          </Trackpoint>
          <Trackpoint>
            <Time>2022-07-13T08:15:48.000Z</Time>
            <Position>
              <LatitudeDegrees>43.4102399647235870361328125</LatitudeDegrees>
              <LongitudeDegrees>-3.40941379778087139129638671875</LongitudeDegrees>
            </Position>
            <AltitudeMeters>64.1999969482421875</AltitudeMeters>
            <DistanceMeters>NAN</DistanceMeters>
          </Trackpoint>
          <Trackpoint>
            <Time>2022-07-13T08:15:50.000Z</Time>
            <Position>
              <LatitudeDegrees>43.41033459641039371490478515625</LatitudeDegrees>
              <LongitudeDegrees>-3.40920391492545604705810546875</LongitudeDegrees>
            </Position>
            <AltitudeMeters>63</AltitudeMeters>
            <DistanceMeters>NAN</DistanceMeters>
          </Trackpoint>
          <Trackpoint>
            <Time>2022-07-13T08:15:52.000Z</Time>
            <Position>
              <LatitudeDegrees>43.41037667356431484222412109375</LatitudeDegrees>
              <LongitudeDegrees>-3.4089698083698749542236328125</LongitudeDegrees>
            </Position>
            <AltitudeMeters>61.40000152587890625</AltitudeMeters>
            <DistanceMeters>NAN</DistanceMeters>
          </Trackpoint>
          <Trackpoint>
            <Time>2022-07-13T08:15:54.000Z</Time>
            <Position>
              <LatitudeDegrees>43.410354293882846832275390625</LatitudeDegrees>
              <LongitudeDegrees>-3.40871826745569705963134765625</LongitudeDegrees>
            </Position>
            <AltitudeMeters>59.59999847412109375</AltitudeMeters>
            <DistanceMeters>NAN</DistanceMeters>
          </Trackpoint>
          <Trackpoint>
            <Time>2022-07-13T08:15:55.000Z</Time>
            <Position>
              <LatitudeDegrees>43.41032621450722217559814453125</LatitudeDegrees>
              <LongitudeDegrees>-3.4085919521749019622802734375</LongitudeDegrees>
            </Position>
            <AltitudeMeters>58.59999847412109375</AltitudeMeters>
            <DistanceMeters>NAN</DistanceMeters>
          </Trackpoint>
          <Trackpoint>
            <Time>2022-07-13T08:15:57.000Z</Time>
            <Position>
              <LatitudeDegrees>43.41025195084512233734130859375</LatitudeDegrees>
              <LongitudeDegrees>-3.40834979899227619171142578125</LongitudeDegrees>
            </Position>
            <AltitudeMeters>57.59999847412109375</AltitudeMeters>
            <DistanceMeters>NAN</DistanceMeters>
          </Trackpoint>
          <Trackpoint>
            <Time>2022-07-13T08:15:59.000Z</Time>
            <Position>
              <LatitudeDegrees>43.4101727418601512908935546875</LatitudeDegrees>
              <LongitudeDegrees>-3.4081014432013034820556640625</LongitudeDegrees>
            </Position>
            <AltitudeMeters>55.59999847412109375</AltitudeMeters>
            <DistanceMeters>NAN</DistanceMeters>
          </Trackpoint>
          <Trackpoint>
            <Time>2022-07-13T08:16:00.000Z</Time>
            <Position>
              <LatitudeDegrees>43.41015052981674671173095703125</LatitudeDegrees>
              <LongitudeDegrees>-3.4080152772367000579833984375</LongitudeDegrees>
            </Position>
            <AltitudeMeters>54.799999237060546875</AltitudeMeters>
            <DistanceMeters>NAN</DistanceMeters>
          </Trackpoint>
          <Trackpoint>
            <Time>2022-07-13T08:16:01.000Z</Time>
            <Position>
              <LatitudeDegrees>43.410134017467498779296875</LatitudeDegrees>
              <LongitudeDegrees>-3.4079116769134998321533203125</LongitudeDegrees>
            </Position>
            <AltitudeMeters>54.200000762939453125</AltitudeMeters>
            <DistanceMeters>NAN</DistanceMeters>
          </Trackpoint>
          <Trackpoint>
            <Time>2022-07-13T08:16:03.000Z</Time>
            <Position>
              <LatitudeDegrees>43.41017567552626132965087890625</LatitudeDegrees>
              <LongitudeDegrees>-3.40774361975491046905517578125</LongitudeDegrees>
            </Position>
            <AltitudeMeters>52.799999237060546875</AltitudeMeters>
            <DistanceMeters>NAN</DistanceMeters>
          </Trackpoint>
          <Trackpoint>
            <Time>2022-07-13T08:16:05.000Z</Time>
            <Position>
              <LatitudeDegrees>43.410305678844451904296875</LatitudeDegrees>
              <LongitudeDegrees>-3.407684862613677978515625</LongitudeDegrees>
            </Position>
            <AltitudeMeters>51.40000152587890625</AltitudeMeters>
            <DistanceMeters>NAN</DistanceMeters>
          </Trackpoint>
          <Trackpoint>
            <Time>2022-07-13T08:16:07.000Z</Time>
            <Position>
              <LatitudeDegrees>43.41045680455863475799560546875</LatitudeDegrees>
              <LongitudeDegrees>-3.40776373632252216339111328125</LongitudeDegrees>
            </Position>
            <AltitudeMeters>50.200000762939453125</AltitudeMeters>
            <DistanceMeters>NAN</DistanceMeters>
          </Trackpoint>
          <Trackpoint>
            <Time>2022-07-13T08:16:09.000Z</Time>
            <Position>
              <LatitudeDegrees>43.41061237268149852752685546875</LatitudeDegrees>
              <LongitudeDegrees>-3.40794998221099376678466796875</LongitudeDegrees>
            </Position>
            <AltitudeMeters>48.799999237060546875</AltitudeMeters>
            <DistanceMeters>NAN</DistanceMeters>
          </Trackpoint>
          <Trackpoint>
            <Time>2022-07-13T08:16:10.000Z</Time>
            <Position>
              <LatitudeDegrees>43.41067188419401645660400390625</LatitudeDegrees>
              <LongitudeDegrees>-3.4080270119011402130126953125</LongitudeDegrees>
            </Position>
            <AltitudeMeters>48.200000762939453125</AltitudeMeters>
            <DistanceMeters>NAN</DistanceMeters>
          </Trackpoint>
          <Trackpoint>
            <Time>2022-07-13T08:16:11.000Z</Time>
            <Position>
              <LatitudeDegrees>43.41074765659868717193603515625</LatitudeDegrees>
              <LongitudeDegrees>-3.4081192128360271453857421875</LongitudeDegrees>
            </Position>
            <AltitudeMeters>47.59999847412109375</AltitudeMeters>
            <DistanceMeters>NAN</DistanceMeters>
          </Trackpoint>
          <Trackpoint>
            <Time>2022-07-13T08:16:12.000Z</Time>
            <Position>
              <LatitudeDegrees>43.41084991581737995147705078125</LatitudeDegrees>
              <LongitudeDegrees>-3.4082157723605632781982421875</LongitudeDegrees>
            </Position>
            <AltitudeMeters>47</AltitudeMeters>
            <DistanceMeters>NAN</DistanceMeters>
          </Trackpoint>
          <Trackpoint>
            <Time>2022-07-13T08:16:13.000Z</Time>
            <Position>
              <LatitudeDegrees>43.41094605624675750732421875</LatitudeDegrees>
              <LongitudeDegrees>-3.408284001052379608154296875</LongitudeDegrees>
            </Position>
            <AltitudeMeters>46.40000152587890625</AltitudeMeters>
            <DistanceMeters>NAN</DistanceMeters>
          </Trackpoint>
          <Trackpoint>
            <Time>2022-07-13T08:16:14.000Z</Time>
            <Position>
              <LatitudeDegrees>43.4110488183796405792236328125</LatitudeDegrees>
              <LongitudeDegrees>-3.40832792222499847412109375</LongitudeDegrees>
            </Position>
            <AltitudeMeters>45.40000152587890625</AltitudeMeters>
            <DistanceMeters>NAN</DistanceMeters>
          </Trackpoint>
          <Trackpoint>
            <Time>2022-07-13T08:16:15.000Z</Time>
            <Position>
              <LatitudeDegrees>43.41113540343940258026123046875</LatitudeDegrees>
              <LongitudeDegrees>-3.408350385725498199462890625</LongitudeDegrees>
            </Position>
            <AltitudeMeters>44.59999847412109375</AltitudeMeters>
            <DistanceMeters>NAN</DistanceMeters>
          </Trackpoint>
          <Trackpoint>
            <Time>2022-07-13T08:16:16.000Z</Time>
            <Position>
              <LatitudeDegrees>43.411235399544239044189453125</LatitudeDegrees>
              <LongitudeDegrees>-3.40835885144770145416259765625</LongitudeDegrees>
            </Position>
            <AltitudeMeters>43.799999237060546875</AltitudeMeters>
            <DistanceMeters>NAN</DistanceMeters>
          </Trackpoint>
          <Trackpoint>
            <Time>2022-07-13T08:16:17.000Z</Time>
            <Position>
              <LatitudeDegrees>43.41135534457862377166748046875</LatitudeDegrees>
              <LongitudeDegrees>-3.408340997993946075439453125</LongitudeDegrees>
            </Position>
            <AltitudeMeters>43</AltitudeMeters>
            <DistanceMeters>NAN</DistanceMeters>
          </Trackpoint>
          <Trackpoint>
            <Time>2022-07-13T08:16:18.000Z</Time>
            <Position>
              <LatitudeDegrees>43.41145165264606475830078125</LatitudeDegrees>
              <LongitudeDegrees>-3.4083009324967861175537109375</LongitudeDegrees>
            </Position>
            <AltitudeMeters>42.200000762939453125</AltitudeMeters>
            <DistanceMeters>NAN</DistanceMeters>
          </Trackpoint>
          <Trackpoint>
            <Time>2022-07-13T08:16:19.000Z</Time>
            <Position>
              <LatitudeDegrees>43.41154477559030055999755859375</LatitudeDegrees>
              <LongitudeDegrees>-3.4082258306443691253662109375</LongitudeDegrees>
            </Position>
            <AltitudeMeters>41.40000152587890625</AltitudeMeters>
            <DistanceMeters>NAN</DistanceMeters>
          </Trackpoint>
          <Trackpoint>
            <Time>2022-07-13T08:16:20.000Z</Time>
            <Position>
              <LatitudeDegrees>43.41161970980465412139892578125</LatitudeDegrees>
              <LongitudeDegrees>-3.40813505463302135467529296875</LongitudeDegrees>
            </Position>
            <AltitudeMeters>40.40000152587890625</AltitudeMeters>
            <DistanceMeters>NAN</DistanceMeters>
          </Trackpoint>
          <Trackpoint>
            <Time>2022-07-13T08:16:21.000Z</Time>
            <Position>
              <LatitudeDegrees>43.41166983358561992645263671875</LatitudeDegrees>
              <LongitudeDegrees>-3.4080528281629085540771484375</LongitudeDegrees>
            </Position>
            <AltitudeMeters>39.40000152587890625</AltitudeMeters>
            <DistanceMeters>NAN</DistanceMeters>
          </Trackpoint>
          <Trackpoint>
            <Time>2022-07-13T08:16:22.000Z</Time>
            <Position>
              <LatitudeDegrees>43.41172163374722003936767578125</LatitudeDegrees>
              <LongitudeDegrees>-3.40794679708778858184814453125</LongitudeDegrees>
            </Position>
            <AltitudeMeters>38.799999237060546875</AltitudeMeters>
            <DistanceMeters>NAN</DistanceMeters>
          </Trackpoint>
          <Trackpoint>
            <Time>2022-07-13T08:16:23.000Z</Time>
            <Position>
              <LatitudeDegrees>43.41176454909145832061767578125</LatitudeDegrees>
              <LongitudeDegrees>-3.40783917345106601715087890625</LongitudeDegrees>
            </Position>
            <AltitudeMeters>38</AltitudeMeters>
            <DistanceMeters>NAN</DistanceMeters>
          </Trackpoint>
          <Trackpoint>
            <Time>2022-07-13T08:16:24.000Z</Time>
            <Position>
              <LatitudeDegrees>43.411827497184276580810546875</LatitudeDegrees>
              <LongitudeDegrees>-3.4077215753495693206787109375</LongitudeDegrees>
            </Position>
            <AltitudeMeters>37.40000152587890625</AltitudeMeters>
            <DistanceMeters>NAN</DistanceMeters>
          </Trackpoint>
          <Trackpoint>
            <Time>2022-07-13T08:16:25.000Z</Time>
            <Position>
              <LatitudeDegrees>43.41188189573585987091064453125</LatitudeDegrees>
              <LongitudeDegrees>-3.40765728615224361419677734375</LongitudeDegrees>
            </Position>
            <AltitudeMeters>36.799999237060546875</AltitudeMeters>
            <DistanceMeters>NAN</DistanceMeters>
          </Trackpoint>
          <Trackpoint>
            <Time>2022-07-13T08:16:26.000Z</Time>
            <Position>
              <LatitudeDegrees>43.41194786131381988525390625</LatitudeDegrees>
              <LongitudeDegrees>-3.40759442187845706939697265625</LongitudeDegrees>
            </Position>
            <AltitudeMeters>36</AltitudeMeters>
            <DistanceMeters>NAN</DistanceMeters>
          </Trackpoint>
          <Trackpoint>
            <Time>2022-07-13T08:16:27.000Z</Time>
            <Position>
              <LatitudeDegrees>43.412034027278423309326171875</LatitudeDegrees>
              <LongitudeDegrees>-3.40755117125809192657470703125</LongitudeDegrees>
            </Position>
            <AltitudeMeters>35.40000152587890625</AltitudeMeters>
            <DistanceMeters>NAN</DistanceMeters>
          </Trackpoint>
          <Trackpoint>
            <Time>2022-07-13T08:16:28.000Z</Time>
            <Position>
              <LatitudeDegrees>43.412109129130840301513671875</LatitudeDegrees>
              <LongitudeDegrees>-3.40755402110517024993896484375</LongitudeDegrees>
            </Position>
            <AltitudeMeters>34.59999847412109375</AltitudeMeters>
            <DistanceMeters>NAN</DistanceMeters>
          </Trackpoint>
          <Trackpoint>
            <Time>2022-07-13T08:16:29.000Z</Time>
            <Position>
              <LatitudeDegrees>43.4121763519942760467529296875</LatitudeDegrees>
              <LongitudeDegrees>-3.40758168138563632965087890625</LongitudeDegrees>
            </Position>
            <AltitudeMeters>33.799999237060546875</AltitudeMeters>
            <DistanceMeters>NAN</DistanceMeters>
          </Trackpoint>
          <Trackpoint>
            <Time>2022-07-13T08:16:30.000Z</Time>
            <Position>
              <LatitudeDegrees>43.41221365146338939666748046875</LatitudeDegrees>
              <LongitudeDegrees>-3.4076298773288726806640625</LongitudeDegrees>
            </Position>
            <AltitudeMeters>33.40000152587890625</AltitudeMeters>
            <DistanceMeters>NAN</DistanceMeters>
          </Trackpoint>
          <Trackpoint>
            <Time>2022-07-13T08:16:31.000Z</Time>
            <Position>
              <LatitudeDegrees>43.4122487716376781463623046875</LatitudeDegrees>
              <LongitudeDegrees>-3.4077049791812896728515625</LongitudeDegrees>
            </Position>
            <AltitudeMeters>33</AltitudeMeters>
            <DistanceMeters>NAN</DistanceMeters>
          </Trackpoint>
          <Trackpoint>
            <Time>2022-07-13T08:16:32.000Z</Time>
            <Position>
              <LatitudeDegrees>43.4122772701084613800048828125</LatitudeDegrees>
              <LongitudeDegrees>-3.40780447237193584442138671875</LongitudeDegrees>
            </Position>
            <AltitudeMeters>32.799999237060546875</AltitudeMeters>
            <DistanceMeters>NAN</DistanceMeters>
          </Trackpoint>
          <Trackpoint>
            <Time>2022-07-13T08:16:34.000Z</Time>
            <Position>
              <LatitudeDegrees>43.41227509081363677978515625</LatitudeDegrees>
              <LongitudeDegrees>-3.40799256227910518646240234375</LongitudeDegrees>
            </Position>
            <AltitudeMeters>31.6000003814697265625</AltitudeMeters>
            <DistanceMeters>NAN</DistanceMeters>
          </Trackpoint>
          <Trackpoint>
            <Time>2022-07-13T08:16:36.000Z</Time>
            <Position>
              <LatitudeDegrees>43.4122538007795810699462890625</LatitudeDegrees>
              <LongitudeDegrees>-3.40818266384303569793701171875</LongitudeDegrees>
            </Position>
            <AltitudeMeters>30.6000003814697265625</AltitudeMeters>
            <DistanceMeters>NAN</DistanceMeters>
          </Trackpoint>
          <Trackpoint>
            <Time>2022-07-13T08:16:39.000Z</Time>
            <Position>
              <LatitudeDegrees>43.412213735282421112060546875</LatitudeDegrees>
              <LongitudeDegrees>-3.40844317339360713958740234375</LongitudeDegrees>
            </Position>
            <AltitudeMeters>29.6000003814697265625</AltitudeMeters>
            <DistanceMeters>NAN</DistanceMeters>
          </Trackpoint>
          <Trackpoint>
            <Time>2022-07-13T08:16:41.000Z</Time>
            <Position>
              <LatitudeDegrees>43.4121773578226566314697265625</LatitudeDegrees>
              <LongitudeDegrees>-3.40862170793116092681884765625</LongitudeDegrees>
            </Position>
            <AltitudeMeters>29.200000762939453125</AltitudeMeters>
            <DistanceMeters>NAN</DistanceMeters>
          </Trackpoint>
          <Trackpoint>
            <Time>2022-07-13T08:16:44.000Z</Time>
            <Position>
              <LatitudeDegrees>43.4121374599635601043701171875</LatitudeDegrees>
              <LongitudeDegrees>-3.4088155813515186309814453125</LongitudeDegrees>
            </Position>
            <AltitudeMeters>28.6000003814697265625</AltitudeMeters>
            <DistanceMeters>NAN</DistanceMeters>
          </Trackpoint>
          <Trackpoint>
            <Time>2022-07-13T08:16:46.000Z</Time>
            <Position>
              <LatitudeDegrees>43.412117846310138702392578125</LatitudeDegrees>
              <LongitudeDegrees>-3.408934772014617919921875</LongitudeDegrees>
            </Position>
            <AltitudeMeters>27.799999237060546875</AltitudeMeters>
            <DistanceMeters>NAN</DistanceMeters>
          </Trackpoint>
          <Trackpoint>
            <Time>2022-07-13T08:16:49.000Z</Time>
            <Position>
              <LatitudeDegrees>43.4121066145598888397216796875</LatitudeDegrees>
              <LongitudeDegrees>-3.40907181613147258758544921875</LongitudeDegrees>
            </Position>
            <AltitudeMeters>27.3999996185302734375</AltitudeMeters>
            <DistanceMeters>NAN</DistanceMeters>
          </Trackpoint>
          <Trackpoint>
            <Time>2022-07-13T08:16:50.000Z</Time>
            <Position>
              <LatitudeDegrees>43.4121046029031276702880859375</LatitudeDegrees>
              <LongitudeDegrees>-3.40911808423697948455810546875</LongitudeDegrees>
            </Position>
            <AltitudeMeters>27.200000762939453125</AltitudeMeters>
            <DistanceMeters>NAN</DistanceMeters>
          </Trackpoint>
          <Trackpoint>
            <Time>2022-07-13T08:16:56.000Z</Time>
            <Position>
              <LatitudeDegrees>43.4120633639395236968994140625</LatitudeDegrees>
              <LongitudeDegrees>-3.4094831161201000213623046875</LongitudeDegrees>
            </Position>
            <AltitudeMeters>26.6000003814697265625</AltitudeMeters>
            <DistanceMeters>NAN</DistanceMeters>
          </Trackpoint>
          <Trackpoint>
            <Time>2022-07-13T08:16:58.000Z</Time>
            <Position>
              <LatitudeDegrees>43.4120512939989566802978515625</LatitudeDegrees>
              <LongitudeDegrees>-3.40962083078920841217041015625</LongitudeDegrees>
            </Position>
            <AltitudeMeters>26.3999996185302734375</AltitudeMeters>
            <DistanceMeters>NAN</DistanceMeters>
          </Trackpoint>
          <Trackpoint>
            <Time>2022-07-13T08:17:01.000Z</Time>
            <Position>
              <LatitudeDegrees>43.41203176416456699371337890625</LatitudeDegrees>
              <LongitudeDegrees>-3.40979835949838161468505859375</LongitudeDegrees>
            </Position>
            <AltitudeMeters>26</AltitudeMeters>
            <DistanceMeters>NAN</DistanceMeters>
          </Trackpoint>
          <Trackpoint>
            <Time>2022-07-13T08:17:02.000Z</Time>
            <Position>
              <LatitudeDegrees>43.41202405281364917755126953125</LatitudeDegrees>
              <LongitudeDegrees>-3.409880585968494415283203125</LongitudeDegrees>
            </Position>
            <AltitudeMeters>26</AltitudeMeters>
            <DistanceMeters>NAN</DistanceMeters>
          </Trackpoint>
          <Trackpoint>
            <Time>2022-07-13T08:17:05.000Z</Time>
            <Position>
              <LatitudeDegrees>43.4119926206767559051513671875</LatitudeDegrees>
              <LongitudeDegrees>-3.41004897840321063995361328125</LongitudeDegrees>
            </Position>
            <AltitudeMeters>25.6000003814697265625</AltitudeMeters>
            <DistanceMeters>NAN</DistanceMeters>
          </Trackpoint>
          <Trackpoint>
            <Time>2022-07-13T08:17:07.000Z</Time>
            <Position>
              <LatitudeDegrees>43.41198767535388469696044921875</LatitudeDegrees>
              <LongitudeDegrees>-3.4101550094783306121826171875</LongitudeDegrees>
            </Position>
            <AltitudeMeters>25.3999996185302734375</AltitudeMeters>
            <DistanceMeters>NAN</DistanceMeters>
          </Trackpoint>
          <Trackpoint>
            <Time>2022-07-13T08:17:09.000Z</Time>
            <Position>
              <LatitudeDegrees>43.41196353547275066375732421875</LatitudeDegrees>
              <LongitudeDegrees>-3.41023757122457027435302734375</LongitudeDegrees>
            </Position>
            <AltitudeMeters>25</AltitudeMeters>
            <DistanceMeters>NAN</DistanceMeters>
          </Trackpoint>
          <Trackpoint>
            <Time>2022-07-13T08:17:11.000Z</Time>
            <Position>
              <LatitudeDegrees>43.411941491067409515380859375</LatitudeDegrees>
              <LongitudeDegrees>-3.41030881740152835845947265625</LongitudeDegrees>
            </Position>
            <AltitudeMeters>24.6000003814697265625</AltitudeMeters>
            <DistanceMeters>NAN</DistanceMeters>
          </Trackpoint>
          <Trackpoint>
            <Time>2022-07-13T08:17:14.000Z</Time>
            <Position>
              <LatitudeDegrees>43.41190922074019908905029296875</LatitudeDegrees>
              <LongitudeDegrees>-3.41040336526930332183837890625</LongitudeDegrees>
            </Position>
            <AltitudeMeters>24.3999996185302734375</AltitudeMeters>
            <DistanceMeters>NAN</DistanceMeters>
          </Trackpoint>
          <Trackpoint>
            <Time>2022-07-13T08:17:15.000Z</Time>
            <Position>
              <LatitudeDegrees>43.411900587379932403564453125</LatitudeDegrees>
              <LongitudeDegrees>-3.41042515821754932403564453125</LongitudeDegrees>
            </Position>
            <AltitudeMeters>24.200000762939453125</AltitudeMeters>
            <DistanceMeters>NAN</DistanceMeters>
          </Trackpoint>
          <Trackpoint>
            <Time>2022-07-13T08:17:16.000Z</Time>
            <Position>
              <LatitudeDegrees>43.41188591904938220977783203125</LatitudeDegrees>
              <LongitudeDegrees>-3.41045013628900051116943359375</LongitudeDegrees>
            </Position>
            <AltitudeMeters>24.200000762939453125</AltitudeMeters>
            <DistanceMeters>NAN</DistanceMeters>
          </Trackpoint>
          <Trackpoint>
            <Time>2022-07-13T08:17:22.000Z</Time>
            <Position>
              <LatitudeDegrees>43.4118286706507205963134765625</LatitudeDegrees>
              <LongitudeDegrees>-3.4106592647731304168701171875</LongitudeDegrees>
            </Position>
            <AltitudeMeters>23.6000003814697265625</AltitudeMeters>
            <DistanceMeters>NAN</DistanceMeters>
          </Trackpoint>
          <Trackpoint>
            <Time>2022-07-13T08:17:29.000Z</Time>
            <Position>
              <LatitudeDegrees>43.411751724779605865478515625</LatitudeDegrees>
              <LongitudeDegrees>-3.41090929694473743438720703125</LongitudeDegrees>
            </Position>
            <AltitudeMeters>23</AltitudeMeters>
            <DistanceMeters>NAN</DistanceMeters>
          </Trackpoint>
          <Trackpoint>
            <Time>2022-07-13T08:17:30.000Z</Time>
            <Position>
              <LatitudeDegrees>43.411743342876434326171875</LatitudeDegrees>
              <LongitudeDegrees>-3.41094248928129673004150390625</LongitudeDegrees>
            </Position>
            <AltitudeMeters>23</AltitudeMeters>
            <DistanceMeters>NAN</DistanceMeters>
          </Trackpoint>
          <Trackpoint>
            <Time>2022-07-13T08:17:35.000Z</Time>
            <Position>
              <LatitudeDegrees>43.41167067177593708038330078125</LatitudeDegrees>
              <LongitudeDegrees>-3.4111745841801166534423828125</LongitudeDegrees>
            </Position>
            <AltitudeMeters>22.6000003814697265625</AltitudeMeters>
            <DistanceMeters>NAN</DistanceMeters>
          </Trackpoint>
          <Trackpoint>
            <Time>2022-07-13T08:17:39.000Z</Time>
            <Position>
              <LatitudeDegrees>43.411610238254070281982421875</LatitudeDegrees>
              <LongitudeDegrees>-3.41132663190364837646484375</LongitudeDegrees>
            </Position>
            <AltitudeMeters>22.3999996185302734375</AltitudeMeters>
            <DistanceMeters>NAN</DistanceMeters>
          </Trackpoint>
          <Trackpoint>
            <Time>2022-07-13T08:17:40.000Z</Time>
            <Position>
              <LatitudeDegrees>43.41160864569246768951416015625</LatitudeDegrees>
              <LongitudeDegrees>-3.4113687090575695037841796875</LongitudeDegrees>
            </Position>
            <AltitudeMeters>22.200000762939453125</AltitudeMeters>
            <DistanceMeters>NAN</DistanceMeters>
          </Trackpoint>
          <Trackpoint>
            <Time>2022-07-13T08:17:43.000Z</Time>
            <Position>
              <LatitudeDegrees>43.4115795604884624481201171875</LatitudeDegrees>
              <LongitudeDegrees>-3.4114974550902843475341796875</LongitudeDegrees>
            </Position>
            <AltitudeMeters>22</AltitudeMeters>
            <DistanceMeters>NAN</DistanceMeters>
          </Trackpoint>
          <Trackpoint>
            <Time>2022-07-13T08:17:45.000Z</Time>
            <Position>
              <LatitudeDegrees>43.411523737013339996337890625</LatitudeDegrees>
              <LongitudeDegrees>-3.4115685336291790008544921875</LongitudeDegrees>
            </Position>
            <AltitudeMeters>21.799999237060546875</AltitudeMeters>
            <DistanceMeters>NAN</DistanceMeters>
          </Trackpoint>
          <Trackpoint>
            <Time>2022-07-13T08:17:50.000Z</Time>
            <Position>
              <LatitudeDegrees>43.41142508201301097869873046875</LatitudeDegrees>
              <LongitudeDegrees>-3.41175653971731662750244140625</LongitudeDegrees>
            </Position>
            <AltitudeMeters>21.3999996185302734375</AltitudeMeters>
            <DistanceMeters>NAN</DistanceMeters>
          </Trackpoint>
          <Trackpoint>
            <Time>2022-07-13T08:17:52.000Z</Time>
            <Position>
              <LatitudeDegrees>43.41139909811317920684814453125</LatitudeDegrees>
              <LongitudeDegrees>-3.41181605122983455657958984375</LongitudeDegrees>
            </Position>
            <AltitudeMeters>21</AltitudeMeters>
            <DistanceMeters>NAN</DistanceMeters>
          </Trackpoint>
          <Trackpoint>
            <Time>2022-07-13T08:17:54.000Z</Time>
            <Position>
              <LatitudeDegrees>43.4113908000290393829345703125</LatitudeDegrees>
              <LongitudeDegrees>-3.41183625161647796630859375</LongitudeDegrees>
            </Position>
            <AltitudeMeters>20.799999237060546875</AltitudeMeters>
            <DistanceMeters>NAN</DistanceMeters>
          </Trackpoint>
          <Trackpoint>
            <Time>2022-07-13T08:18:00.000Z</Time>
            <Position>
              <LatitudeDegrees>43.411365486681461334228515625</LatitudeDegrees>
              <LongitudeDegrees>-3.411895595490932464599609375</LongitudeDegrees>
            </Position>
            <AltitudeMeters>20.799999237060546875</AltitudeMeters>
            <DistanceMeters>NAN</DistanceMeters>
          </Trackpoint>
          <Trackpoint>
            <Time>2022-07-13T08:18:04.000Z</Time>
            <Position>
              <LatitudeDegrees>43.4113468788564205169677734375</LatitudeDegrees>
              <LongitudeDegrees>-3.41203465126454830169677734375</LongitudeDegrees>
            </Position>
            <AltitudeMeters>20.799999237060546875</AltitudeMeters>
            <DistanceMeters>NAN</DistanceMeters>
          </Trackpoint>
          <Trackpoint>
            <Time>2022-07-13T08:18:11.000Z</Time>
            <Position>
              <LatitudeDegrees>43.41129231266677379608154296875</LatitudeDegrees>
              <LongitudeDegrees>-3.4122447855770587921142578125</LongitudeDegrees>
            </Position>
            <AltitudeMeters>20.6000003814697265625</AltitudeMeters>
            <DistanceMeters>NAN</DistanceMeters>
          </Trackpoint>
          <Trackpoint>
            <Time>2022-07-13T08:18:18.000Z</Time>
            <Position>
              <LatitudeDegrees>43.41118209064006805419921875</LatitudeDegrees>
              <LongitudeDegrees>-3.412421308457851409912109375</LongitudeDegrees>
            </Position>
            <AltitudeMeters>20.3999996185302734375</AltitudeMeters>
            <DistanceMeters>NAN</DistanceMeters>
          </Trackpoint>
          <Trackpoint>
            <Time>2022-07-13T08:18:23.000Z</Time>
            <Position>
              <LatitudeDegrees>43.4110551886260509490966796875</LatitudeDegrees>
              <LongitudeDegrees>-3.4124938957393169403076171875</LongitudeDegrees>
            </Position>
            <AltitudeMeters>20.200000762939453125</AltitudeMeters>
            <DistanceMeters>NAN</DistanceMeters>
          </Trackpoint>
          <Trackpoint>
            <Time>2022-07-13T08:18:24.000Z</Time>
            <Position>
              <LatitudeDegrees>43.41103993356227874755859375</LatitudeDegrees>
              <LongitudeDegrees>-3.4125203825533390045166015625</LongitudeDegrees>
            </Position>
            <AltitudeMeters>20</AltitudeMeters>
            <DistanceMeters>NAN</DistanceMeters>
          </Trackpoint>
          <Trackpoint>
            <Time>2022-07-13T08:18:25.000Z</Time>
            <Position>
              <LatitudeDegrees>43.411020152270793914794921875</LatitudeDegrees>
              <LongitudeDegrees>-3.412562794983386993408203125</LongitudeDegrees>
            </Position>
            <AltitudeMeters>20</AltitudeMeters>
            <DistanceMeters>NAN</DistanceMeters>
          </Trackpoint>
          <Trackpoint>
            <Time>2022-07-13T08:18:28.000Z</Time>
            <Position>
              <LatitudeDegrees>43.41098419390618801116943359375</LatitudeDegrees>
              <LongitudeDegrees>-3.412677459418773651123046875</LongitudeDegrees>
            </Position>
            <AltitudeMeters>20</AltitudeMeters>
            <DistanceMeters>NAN</DistanceMeters>
          </Trackpoint>
          <Trackpoint>
            <Time>2022-07-13T08:18:29.000Z</Time>
            <Position>
              <LatitudeDegrees>43.41098084114491939544677734375</LatitudeDegrees>
              <LongitudeDegrees>-3.41270796954631805419921875</LongitudeDegrees>
            </Position>
            <AltitudeMeters>20</AltitudeMeters>
            <DistanceMeters>NAN</DistanceMeters>
          </Trackpoint>
          <Trackpoint>
            <Time>2022-07-13T08:18:35.000Z</Time>
            <Position>
              <LatitudeDegrees>43.41096055693924427032470703125</LatitudeDegrees>
              <LongitudeDegrees>-3.41297862119972705841064453125</LongitudeDegrees>
            </Position>
            <AltitudeMeters>20</AltitudeMeters>
            <DistanceMeters>NAN</DistanceMeters>
          </Trackpoint>
          <Trackpoint>
            <Time>2022-07-13T08:18:41.000Z</Time>
            <Position>
              <LatitudeDegrees>43.41095368377864360809326171875</LatitudeDegrees>
              <LongitudeDegrees>-3.41327517293393611907958984375</LongitudeDegrees>
            </Position>
            <AltitudeMeters>20</AltitudeMeters>
            <DistanceMeters>NAN</DistanceMeters>
          </Trackpoint>
          <Trackpoint>
            <Time>2022-07-13T08:18:43.000Z</Time>
            <Position>
              <LatitudeDegrees>43.4109495766460895538330078125</LatitudeDegrees>
              <LongitudeDegrees>-3.4133689664304256439208984375</LongitudeDegrees>
            </Position>
            <AltitudeMeters>20</AltitudeMeters>
            <DistanceMeters>NAN</DistanceMeters>
          </Trackpoint>
          <Trackpoint>
            <Time>2022-07-13T08:18:48.000Z</Time>
            <Position>
              <LatitudeDegrees>43.41095066629350185394287109375</LatitudeDegrees>
              <LongitudeDegrees>-3.4135925956070423126220703125</LongitudeDegrees>
            </Position>
            <AltitudeMeters>20</AltitudeMeters>
            <DistanceMeters>NAN</DistanceMeters>
          </Trackpoint>
          <Trackpoint>
            <Time>2022-07-13T08:18:50.000Z</Time>
            <Position>
              <LatitudeDegrees>43.41096508316695690155029296875</LatitudeDegrees>
              <LongitudeDegrees>-3.41367364861071109771728515625</LongitudeDegrees>
            </Position>
            <AltitudeMeters>20</AltitudeMeters>
            <DistanceMeters>NAN</DistanceMeters>
          </Trackpoint>
          <Trackpoint>
            <Time>2022-07-13T08:18:55.000Z</Time>
            <Position>
              <LatitudeDegrees>43.41098050586879253387451171875</LatitudeDegrees>
              <LongitudeDegrees>-3.4138805978000164031982421875</LongitudeDegrees>
            </Position>
            <AltitudeMeters>19.6000003814697265625</AltitudeMeters>
            <DistanceMeters>NAN</DistanceMeters>
          </Trackpoint>
          <Trackpoint>
            <Time>2022-07-13T08:18:59.000Z</Time>
            <Position>
              <LatitudeDegrees>43.41101445257663726806640625</LatitudeDegrees>
              <LongitudeDegrees>-3.41394706629216670989990234375</LongitudeDegrees>
            </Position>
            <AltitudeMeters>19.6000003814697265625</AltitudeMeters>
            <DistanceMeters>NAN</DistanceMeters>
          </Trackpoint>
          <Trackpoint>
            <Time>2022-07-13T08:19:04.000Z</Time>
            <Position>
              <LatitudeDegrees>43.41101520694792270660400390625</LatitudeDegrees>
              <LongitudeDegrees>-3.4139989502727985382080078125</LongitudeDegrees>
            </Position>
            <AltitudeMeters>19.3999996185302734375</AltitudeMeters>
            <DistanceMeters>NAN</DistanceMeters>
          </Trackpoint>
          <Trackpoint>
            <Time>2022-07-13T08:19:07.000Z</Time>
            <Position>
              <LatitudeDegrees>43.41101353056728839874267578125</LatitudeDegrees>
              <LongitudeDegrees>-3.41409978456795215606689453125</LongitudeDegrees>
            </Position>
            <AltitudeMeters>19.6000003814697265625</AltitudeMeters>
            <DistanceMeters>NAN</DistanceMeters>
          </Trackpoint>
          <Trackpoint>
            <Time>2022-07-13T08:19:08.000Z</Time>
            <Position>
              <LatitudeDegrees>43.41101311147212982177734375</LatitudeDegrees>
              <LongitudeDegrees>-3.41413985006511211395263671875</LongitudeDegrees>
            </Position>
            <AltitudeMeters>19.6000003814697265625</AltitudeMeters>
            <DistanceMeters>NAN</DistanceMeters>
          </Trackpoint>
          <Trackpoint>
            <Time>2022-07-13T08:19:16.000Z</Time>
            <Position>
              <LatitudeDegrees>43.41100104153156280517578125</LatitudeDegrees>
              <LongitudeDegrees>-3.41438946314156055450439453125</LongitudeDegrees>
            </Position>
            <AltitudeMeters>19.6000003814697265625</AltitudeMeters>
            <DistanceMeters>NAN</DistanceMeters>
          </Trackpoint>
          <Trackpoint>
            <Time>2022-07-13T08:19:18.000Z</Time>
            <Position>
              <LatitudeDegrees>43.4109841100871562957763671875</LatitudeDegrees>
              <LongitudeDegrees>-3.41441452503204345703125</LongitudeDegrees>
            </Position>
            <AltitudeMeters>19.6000003814697265625</AltitudeMeters>
            <DistanceMeters>NAN</DistanceMeters>
          </Trackpoint>
          <Trackpoint>
            <Time>2022-07-13T08:19:20.000Z</Time>
            <Position>
              <LatitudeDegrees>43.4109599702060222625732421875</LatitudeDegrees>
              <LongitudeDegrees>-3.41443321667611598968505859375</LongitudeDegrees>
            </Position>
            <AltitudeMeters>19.6000003814697265625</AltitudeMeters>
            <DistanceMeters>NAN</DistanceMeters>
          </Trackpoint>
          <Trackpoint>
            <Time>2022-07-13T08:19:22.000Z</Time>
            <Position>
              <LatitudeDegrees>43.4109328128397464752197265625</LatitudeDegrees>
              <LongitudeDegrees>-3.41446422971785068511962890625</LongitudeDegrees>
            </Position>
            <AltitudeMeters>19.6000003814697265625</AltitudeMeters>
            <DistanceMeters>NAN</DistanceMeters>
          </Trackpoint>
          <Trackpoint>
            <Time>2022-07-13T08:19:25.000Z</Time>
            <Position>
              <LatitudeDegrees>43.4108962677419185638427734375</LatitudeDegrees>
              <LongitudeDegrees>-3.4144371561706066131591796875</LongitudeDegrees>
            </Position>
            <AltitudeMeters>19.6000003814697265625</AltitudeMeters>
            <DistanceMeters>NAN</DistanceMeters>
          </Trackpoint>
          <Trackpoint>
            <Time>2022-07-13T08:19:27.000Z</Time>
            <Position>
              <LatitudeDegrees>43.41086617670953273773193359375</LatitudeDegrees>
              <LongitudeDegrees>-3.4144167043268680572509765625</LongitudeDegrees>
            </Position>
            <AltitudeMeters>19.6000003814697265625</AltitudeMeters>
            <DistanceMeters>NAN</DistanceMeters>
          </Trackpoint>
          <Trackpoint>
            <Time>2022-07-13T08:19:29.000Z</Time>
            <Position>
              <LatitudeDegrees>43.41082678176462650299072265625</LatitudeDegrees>
              <LongitudeDegrees>-3.4144153632223606109619140625</LongitudeDegrees>
            </Position>
            <AltitudeMeters>19.799999237060546875</AltitudeMeters>
            <DistanceMeters>NAN</DistanceMeters>
          </Trackpoint>
          <Trackpoint>
            <Time>2022-07-13T08:19:30.000Z</Time>
            <Position>
              <LatitudeDegrees>43.41081588529050350189208984375</LatitudeDegrees>
              <LongitudeDegrees>-3.41442701406776905059814453125</LongitudeDegrees>
            </Position>
            <AltitudeMeters>19.799999237060546875</AltitudeMeters>
            <DistanceMeters>NAN</DistanceMeters>
          </Trackpoint>
          <Trackpoint>
            <Time>2022-07-13T08:19:35.000Z</Time>
            <Position>
              <LatitudeDegrees>43.410793505609035491943359375</LatitudeDegrees>
              <LongitudeDegrees>-3.41451670043170452117919921875</LongitudeDegrees>
            </Position>
            <AltitudeMeters>20</AltitudeMeters>
            <DistanceMeters>NAN</DistanceMeters>
          </Trackpoint>
          <Trackpoint>
            <Time>2022-07-13T08:19:37.000Z</Time>
            <Position>
              <LatitudeDegrees>43.41078839264810085296630859375</LatitudeDegrees>
              <LongitudeDegrees>-3.41454955749213695526123046875</LongitudeDegrees>
            </Position>
            <AltitudeMeters>20</AltitudeMeters>
            <DistanceMeters>NAN</DistanceMeters>
          </Trackpoint>
          <Trackpoint>
            <Time>2022-07-13T08:19:40.000Z</Time>
            <Position>
              <LatitudeDegrees>43.4107879735529422760009765625</LatitudeDegrees>
              <LongitudeDegrees>-3.41455399990081787109375</LongitudeDegrees>
            </Position>
            <AltitudeMeters>20</AltitudeMeters>
            <DistanceMeters>NAN</DistanceMeters>
          </Trackpoint>
          <Trackpoint>
            <Time>2022-07-13T08:24:49.000Z</Time>
            <Position>
              <LatitudeDegrees>43.41077833436429500579833984375</LatitudeDegrees>
              <LongitudeDegrees>-3.41453447006642818450927734375</LongitudeDegrees>
            </Position>
            <AltitudeMeters>18.3999996185302734375</AltitudeMeters>
            <DistanceMeters>NAN</DistanceMeters>
          </Trackpoint>
          <Trackpoint>
            <Time>2022-07-13T08:24:50.000Z</Time>
            <Position>
              <LatitudeDegrees>43.410786129534244537353515625</LatitudeDegrees>
              <LongitudeDegrees>-3.41450194828212261199951171875</LongitudeDegrees>
            </Position>
            <AltitudeMeters>18.3999996185302734375</AltitudeMeters>
            <DistanceMeters>NAN</DistanceMeters>
          </Trackpoint>
          <Trackpoint>
            <Time>2022-07-13T08:24:53.000Z</Time>
            <Position>
              <LatitudeDegrees>43.41081286780536174774169921875</LatitudeDegrees>
              <LongitudeDegrees>-3.41442466713488101959228515625</LongitudeDegrees>
            </Position>
            <AltitudeMeters>18.3999996185302734375</AltitudeMeters>
            <DistanceMeters>NAN</DistanceMeters>
          </Trackpoint>
          <Trackpoint>
            <Time>2022-07-13T08:24:54.000Z</Time>
            <Position>
              <LatitudeDegrees>43.41083432547748088836669921875</LatitudeDegrees>
              <LongitudeDegrees>-3.41441108845174312591552734375</LongitudeDegrees>
            </Position>
            <AltitudeMeters>18.200000762939453125</AltitudeMeters>
            <DistanceMeters>NAN</DistanceMeters>
          </Trackpoint>
          <Trackpoint>
            <Time>2022-07-13T08:24:56.000Z</Time>
            <Position>
              <LatitudeDegrees>43.41086315922439098358154296875</LatitudeDegrees>
              <LongitudeDegrees>-3.41441930271685123443603515625</LongitudeDegrees>
            </Position>
            <AltitudeMeters>18</AltitudeMeters>
            <DistanceMeters>NAN</DistanceMeters>
          </Trackpoint>
          <Trackpoint>
            <Time>2022-07-13T08:24:59.000Z</Time>
            <Position>
              <LatitudeDegrees>43.4108868800103664398193359375</LatitudeDegrees>
              <LongitudeDegrees>-3.41446909122169017791748046875</LongitudeDegrees>
            </Position>
            <AltitudeMeters>18</AltitudeMeters>
            <DistanceMeters>NAN</DistanceMeters>
          </Trackpoint>
          <Trackpoint>
            <Time>2022-07-13T08:25:05.000Z</Time>
            <Position>
              <LatitudeDegrees>43.41090808622539043426513671875</LatitudeDegrees>
              <LongitudeDegrees>-3.4145377390086650848388671875</LongitudeDegrees>
            </Position>
            <AltitudeMeters>18</AltitudeMeters>
            <DistanceMeters>NAN</DistanceMeters>
          </Trackpoint>
          <Trackpoint>
            <Time>2022-07-13T08:25:07.000Z</Time>
            <Position>
              <LatitudeDegrees>43.41093130409717559814453125</LatitudeDegrees>
              <LongitudeDegrees>-3.4145709313452243804931640625</LongitudeDegrees>
            </Position>
            <AltitudeMeters>17.799999237060546875</AltitudeMeters>
            <DistanceMeters>NAN</DistanceMeters>
          </Trackpoint>
          <Trackpoint>
            <Time>2022-07-13T08:25:10.000Z</Time>
            <Position>
              <LatitudeDegrees>43.41094605624675750732421875</LatitudeDegrees>
              <LongitudeDegrees>-3.41465868987143039703369140625</LongitudeDegrees>
            </Position>
            <AltitudeMeters>18</AltitudeMeters>
            <DistanceMeters>NAN</DistanceMeters>
          </Trackpoint>
          <Trackpoint>
            <Time>2022-07-13T08:25:14.000Z</Time>
            <Position>
              <LatitudeDegrees>43.41095116920769214630126953125</LatitudeDegrees>
              <LongitudeDegrees>-3.41481040231883525848388671875</LongitudeDegrees>
            </Position>
            <AltitudeMeters>18.200000762939453125</AltitudeMeters>
            <DistanceMeters>NAN</DistanceMeters>
          </Trackpoint>
          <Trackpoint>
            <Time>2022-07-13T08:25:17.000Z</Time>
            <Position>
              <LatitudeDegrees>43.41094597242772579193115234375</LatitudeDegrees>
              <LongitudeDegrees>-3.414947278797626495361328125</LongitudeDegrees>
            </Position>
            <AltitudeMeters>18.200000762939453125</AltitudeMeters>
            <DistanceMeters>NAN</DistanceMeters>
          </Trackpoint>
          <Trackpoint>
            <Time>2022-07-13T08:25:19.000Z</Time>
            <Position>
              <LatitudeDegrees>43.41094605624675750732421875</LatitudeDegrees>
              <LongitudeDegrees>-3.4150128252804279327392578125</LongitudeDegrees>
            </Position>
            <AltitudeMeters>18.200000762939453125</AltitudeMeters>
            <DistanceMeters>NAN</DistanceMeters>
          </Trackpoint>
          <Trackpoint>
            <Time>2022-07-13T08:25:24.000Z</Time>
            <Position>
              <LatitudeDegrees>43.41094479896128177642822265625</LatitudeDegrees>
              <LongitudeDegrees>-3.4152062796056270599365234375</LongitudeDegrees>
            </Position>
            <AltitudeMeters>18.200000762939453125</AltitudeMeters>
            <DistanceMeters>NAN</DistanceMeters>
          </Trackpoint>
          <Trackpoint>
            <Time>2022-07-13T08:25:32.000Z</Time>
            <Position>
              <LatitudeDegrees>43.41094580478966236114501953125</LatitudeDegrees>
              <LongitudeDegrees>-3.4155556373298168182373046875</LongitudeDegrees>
            </Position>
            <AltitudeMeters>18</AltitudeMeters>
            <DistanceMeters>NAN</DistanceMeters>
          </Trackpoint>
          <Trackpoint>
            <Time>2022-07-13T08:25:38.000Z</Time>
            <Position>
              <LatitudeDegrees>43.4109623171389102935791015625</LatitudeDegrees>
              <LongitudeDegrees>-3.41579007916152477264404296875</LongitudeDegrees>
            </Position>
            <AltitudeMeters>18</AltitudeMeters>
            <DistanceMeters>NAN</DistanceMeters>
          </Trackpoint>
          <Trackpoint>
            <Time>2022-07-13T08:25:46.000Z</Time>
            <Position>
              <LatitudeDegrees>43.4109452180564403533935546875</LatitudeDegrees>
              <LongitudeDegrees>-3.4160930849611759185791015625</LongitudeDegrees>
            </Position>
            <AltitudeMeters>18</AltitudeMeters>
            <DistanceMeters>NAN</DistanceMeters>
          </Trackpoint>
          <Trackpoint>
            <Time>2022-07-13T08:25:50.000Z</Time>
            <Position>
              <LatitudeDegrees>43.41096541844308376312255859375</LatitudeDegrees>
              <LongitudeDegrees>-3.41625493951141834259033203125</LongitudeDegrees>
            </Position>
            <AltitudeMeters>18</AltitudeMeters>
            <DistanceMeters>NAN</DistanceMeters>
          </Trackpoint>
          <Trackpoint>
            <Time>2022-07-13T08:25:51.000Z</Time>
            <Position>
              <LatitudeDegrees>43.4109710343182086944580078125</LatitudeDegrees>
              <LongitudeDegrees>-3.41629282571375370025634765625</LongitudeDegrees>
            </Position>
            <AltitudeMeters>18</AltitudeMeters>
            <DistanceMeters>NAN</DistanceMeters>
          </Trackpoint>
          <Trackpoint>
            <Time>2022-07-13T08:25:53.000Z</Time>
            <Position>
              <LatitudeDegrees>43.4109670110046863555908203125</LatitudeDegrees>
              <LongitudeDegrees>-3.41634915210306644439697265625</LongitudeDegrees>
            </Position>
            <AltitudeMeters>18</AltitudeMeters>
            <DistanceMeters>NAN</DistanceMeters>
          </Trackpoint>
          <Trackpoint>
            <Time>2022-07-13T08:25:57.000Z</Time>
            <Position>
              <LatitudeDegrees>43.41096751391887664794921875</LatitudeDegrees>
              <LongitudeDegrees>-3.41649918816983699798583984375</LongitudeDegrees>
            </Position>
            <AltitudeMeters>18</AltitudeMeters>
            <DistanceMeters>NAN</DistanceMeters>
          </Trackpoint>
          <Trackpoint>
            <Time>2022-07-13T08:26:04.000Z</Time>
            <Position>
              <LatitudeDegrees>43.4109975211322307586669921875</LatitudeDegrees>
              <LongitudeDegrees>-3.4167857654392719268798828125</LongitudeDegrees>
            </Position>
            <AltitudeMeters>18.200000762939453125</AltitudeMeters>
            <DistanceMeters>NAN</DistanceMeters>
          </Trackpoint>
          <Trackpoint>
            <Time>2022-07-13T08:26:09.000Z</Time>
            <Position>
              <LatitudeDegrees>43.411013782024383544921875</LatitudeDegrees>
              <LongitudeDegrees>-3.4169827401638031005859375</LongitudeDegrees>
            </Position>
            <AltitudeMeters>18.200000762939453125</AltitudeMeters>
            <DistanceMeters>NAN</DistanceMeters>
          </Trackpoint>
          <Trackpoint>
            <Time>2022-07-13T08:26:10.000Z</Time>
            <Position>
              <LatitudeDegrees>43.41101135127246379852294921875</LatitudeDegrees>
              <LongitudeDegrees>-3.4170248173177242279052734375</LongitudeDegrees>
            </Position>
            <AltitudeMeters>18.200000762939453125</AltitudeMeters>
            <DistanceMeters>NAN</DistanceMeters>
          </Trackpoint>
          <Trackpoint>
            <Time>2022-07-13T08:26:12.000Z</Time>
            <Position>
              <LatitudeDegrees>43.41100933961570262908935546875</LatitudeDegrees>
              <LongitudeDegrees>-3.41711307875812053680419921875</LongitudeDegrees>
            </Position>
            <AltitudeMeters>18</AltitudeMeters>
            <DistanceMeters>NAN</DistanceMeters>
          </Trackpoint>
          <Trackpoint>
            <Time>2022-07-13T08:26:20.000Z</Time>
            <Position>
              <LatitudeDegrees>43.41103247366845607757568359375</LatitudeDegrees>
              <LongitudeDegrees>-3.41740225441753864288330078125</LongitudeDegrees>
            </Position>
            <AltitudeMeters>18</AltitudeMeters>
            <DistanceMeters>NAN</DistanceMeters>
          </Trackpoint>
          <Trackpoint>
            <Time>2022-07-13T08:26:22.000Z</Time>
            <Position>
              <LatitudeDegrees>43.41105141676962375640869140625</LatitudeDegrees>
              <LongitudeDegrees>-3.41744567267596721649169921875</LongitudeDegrees>
            </Position>
            <AltitudeMeters>18</AltitudeMeters>
            <DistanceMeters>NAN</DistanceMeters>
          </Trackpoint>
          <Trackpoint>
            <Time>2022-07-13T08:26:24.000Z</Time>
            <Position>
              <LatitudeDegrees>43.41106063686311244964599609375</LatitudeDegrees>
              <LongitudeDegrees>-3.41754524968564510345458984375</LongitudeDegrees>
            </Position>
            <AltitudeMeters>18</AltitudeMeters>
            <DistanceMeters>NAN</DistanceMeters>
          </Trackpoint>
          <Trackpoint>
            <Time>2022-07-13T08:26:30.000Z</Time>
            <Position>
              <LatitudeDegrees>43.41103733517229557037353515625</LatitudeDegrees>
              <LongitudeDegrees>-3.41779218055307865142822265625</LongitudeDegrees>
            </Position>
            <AltitudeMeters>18.200000762939453125</AltitudeMeters>
            <DistanceMeters>NAN</DistanceMeters>
          </Trackpoint>
          <Trackpoint>
            <Time>2022-07-13T08:26:37.000Z</Time>
            <Position>
              <LatitudeDegrees>43.41100095771253108978271484375</LatitudeDegrees>
              <LongitudeDegrees>-3.4180075116455554962158203125</LongitudeDegrees>
            </Position>
            <AltitudeMeters>18.3999996185302734375</AltitudeMeters>
            <DistanceMeters>NAN</DistanceMeters>
          </Trackpoint>
          <Trackpoint>
            <Time>2022-07-13T08:26:39.000Z</Time>
            <Position>
              <LatitudeDegrees>43.41100598685443401336669921875</LatitudeDegrees>
              <LongitudeDegrees>-3.418080098927021026611328125</LongitudeDegrees>
            </Position>
            <AltitudeMeters>18.3999996185302734375</AltitudeMeters>
            <DistanceMeters>NAN</DistanceMeters>
          </Trackpoint>
          <Trackpoint>
            <Time>2022-07-13T08:26:46.000Z</Time>
            <Position>
              <LatitudeDegrees>43.411017470061779022216796875</LatitudeDegrees>
              <LongitudeDegrees>-3.418344967067241668701171875</LongitudeDegrees>
            </Position>
            <AltitudeMeters>18.6000003814697265625</AltitudeMeters>
            <DistanceMeters>NAN</DistanceMeters>
          </Trackpoint>
          <Trackpoint>
            <Time>2022-07-13T08:26:48.000Z</Time>
            <Position>
              <LatitudeDegrees>43.411014787852764129638671875</LatitudeDegrees>
              <LongitudeDegrees>-3.41840338893234729766845703125</LongitudeDegrees>
            </Position>
            <AltitudeMeters>18.3999996185302734375</AltitudeMeters>
            <DistanceMeters>NAN</DistanceMeters>
          </Trackpoint>
          <Trackpoint>
            <Time>2022-07-13T08:26:50.000Z</Time>
            <Position>
              <LatitudeDegrees>43.410992324352264404296875</LatitudeDegrees>
              <LongitudeDegrees>-3.41843758709728717803955078125</LongitudeDegrees>
            </Position>
            <AltitudeMeters>18.200000762939453125</AltitudeMeters>
            <DistanceMeters>NAN</DistanceMeters>
          </Trackpoint>
          <Trackpoint>
            <Time>2022-07-13T08:26:52.000Z</Time>
            <Position>
              <LatitudeDegrees>43.41097162105143070220947265625</LatitudeDegrees>
              <LongitudeDegrees>-3.41844789683818817138671875</LongitudeDegrees>
            </Position>
            <AltitudeMeters>18.200000762939453125</AltitudeMeters>
            <DistanceMeters>NAN</DistanceMeters>
          </Trackpoint>
          <Trackpoint>
            <Time>2022-07-13T08:26:58.000Z</Time>
            <Position>
              <LatitudeDegrees>43.41094069182872772216796875</LatitudeDegrees>
              <LongitudeDegrees>-3.4184678457677364349365234375</LongitudeDegrees>
            </Position>
            <AltitudeMeters>18.200000762939453125</AltitudeMeters>
            <DistanceMeters>NAN</DistanceMeters>
          </Trackpoint>
          <Trackpoint>
            <Time>2022-07-13T08:27:03.000Z</Time>
            <Position>
              <LatitudeDegrees>43.410922922194004058837890625</LatitudeDegrees>
              <LongitudeDegrees>-3.41854655183851718902587890625</LongitudeDegrees>
            </Position>
            <AltitudeMeters>18.3999996185302734375</AltitudeMeters>
            <DistanceMeters>NAN</DistanceMeters>
          </Trackpoint>
          <Trackpoint>
            <Time>2022-07-13T08:27:06.000Z</Time>
            <Position>
              <LatitudeDegrees>43.410951755940914154052734375</LatitudeDegrees>
              <LongitudeDegrees>-3.41862349770963191986083984375</LongitudeDegrees>
            </Position>
            <AltitudeMeters>18.6000003814697265625</AltitudeMeters>
            <DistanceMeters>NAN</DistanceMeters>
          </Trackpoint>
          <Trackpoint>
            <Time>2022-07-13T08:27:12.000Z</Time>
            <Position>
              <LatitudeDegrees>43.41099877841770648956298828125</LatitudeDegrees>
              <LongitudeDegrees>-3.4187957458198070526123046875</LongitudeDegrees>
            </Position>
            <AltitudeMeters>18.6000003814697265625</AltitudeMeters>
            <DistanceMeters>NAN</DistanceMeters>
          </Trackpoint>
          <Trackpoint>
            <Time>2022-07-13T08:27:18.000Z</Time>
            <Position>
              <LatitudeDegrees>43.41095586307346820831298828125</LatitudeDegrees>
              <LongitudeDegrees>-3.418986015021800994873046875</LongitudeDegrees>
            </Position>
            <AltitudeMeters>18.799999237060546875</AltitudeMeters>
            <DistanceMeters>NAN</DistanceMeters>
          </Trackpoint>
          <Trackpoint>
            <Time>2022-07-13T08:27:19.000Z</Time>
            <Position>
              <LatitudeDegrees>43.41094546951353549957275390625</LatitudeDegrees>
              <LongitudeDegrees>-3.4190230630338191986083984375</LongitudeDegrees>
            </Position>
            <AltitudeMeters>18.799999237060546875</AltitudeMeters>
            <DistanceMeters>NAN</DistanceMeters>
          </Trackpoint>
          <Trackpoint>
            <Time>2022-07-13T08:27:25.000Z</Time>
            <Position>
              <LatitudeDegrees>43.41090087778866291046142578125</LatitudeDegrees>
              <LongitudeDegrees>-3.4192094765603542327880859375</LongitudeDegrees>
            </Position>
            <AltitudeMeters>19</AltitudeMeters>
            <DistanceMeters>NAN</DistanceMeters>
          </Trackpoint>
          <Trackpoint>
            <Time>2022-07-13T08:27:31.000Z</Time>
            <Position>
              <LatitudeDegrees>43.41086248867213726043701171875</LatitudeDegrees>
              <LongitudeDegrees>-3.41939262114465236663818359375</LongitudeDegrees>
            </Position>
            <AltitudeMeters>19.3999996185302734375</AltitudeMeters>
            <DistanceMeters>NAN</DistanceMeters>
          </Trackpoint>
          <Trackpoint>
            <Time>2022-07-13T08:27:40.000Z</Time>
            <Position>
              <LatitudeDegrees>43.41080046258866786956787109375</LatitudeDegrees>
              <LongitudeDegrees>-3.419717587530612945556640625</LongitudeDegrees>
            </Position>
            <AltitudeMeters>19.6000003814697265625</AltitudeMeters>
            <DistanceMeters>NAN</DistanceMeters>
          </Trackpoint>
          <Trackpoint>
            <Time>2022-07-13T08:27:42.000Z</Time>
            <Position>
              <LatitudeDegrees>43.4107852913439273834228515625</LatitudeDegrees>
              <LongitudeDegrees>-3.41978874988853931427001953125</LongitudeDegrees>
            </Position>
            <AltitudeMeters>19.3999996185302734375</AltitudeMeters>
            <DistanceMeters>NAN</DistanceMeters>
          </Trackpoint>
          <Trackpoint>
            <Time>2022-07-13T08:27:43.000Z</Time>
            <Position>
              <LatitudeDegrees>43.41077649034559726715087890625</LatitudeDegrees>
              <LongitudeDegrees>-3.41981716454029083251953125</LongitudeDegrees>
            </Position>
            <AltitudeMeters>19.3999996185302734375</AltitudeMeters>
            <DistanceMeters>NAN</DistanceMeters>
          </Trackpoint>
          <Trackpoint>
            <Time>2022-07-13T08:27:44.000Z</Time>
            <Position>
              <LatitudeDegrees>43.41076324693858623504638671875</LatitudeDegrees>
              <LongitudeDegrees>-3.4198411367833614349365234375</LongitudeDegrees>
            </Position>
            <AltitudeMeters>19.3999996185302734375</AltitudeMeters>
            <DistanceMeters>NAN</DistanceMeters>
          </Trackpoint>
          <Trackpoint>
            <Time>2022-07-13T08:27:46.000Z</Time>
            <Position>
              <LatitudeDegrees>43.41072301380336284637451171875</LatitudeDegrees>
              <LongitudeDegrees>-3.41988681815564632415771484375</LongitudeDegrees>
            </Position>
            <AltitudeMeters>19.3999996185302734375</AltitudeMeters>
            <DistanceMeters>NAN</DistanceMeters>
          </Trackpoint>
          <Trackpoint>
            <Time>2022-07-13T08:27:47.000Z</Time>
            <Position>
              <LatitudeDegrees>43.4107108600437641143798828125</LatitudeDegrees>
              <LongitudeDegrees>-3.41992118395864963531494140625</LongitudeDegrees>
            </Position>
            <AltitudeMeters>19.3999996185302734375</AltitudeMeters>
            <DistanceMeters>NAN</DistanceMeters>
          </Trackpoint>
          <Trackpoint>
            <Time>2022-07-13T08:27:50.000Z</Time>
            <Position>
              <LatitudeDegrees>43.41070541180670261383056640625</LatitudeDegrees>
              <LongitudeDegrees>-3.4200436435639858245849609375</LongitudeDegrees>
            </Position>
            <AltitudeMeters>19.799999237060546875</AltitudeMeters>
            <DistanceMeters>NAN</DistanceMeters>
          </Trackpoint>
          <Trackpoint>
            <Time>2022-07-13T08:27:55.000Z</Time>
            <Position>
              <LatitudeDegrees>43.41067154891788959503173828125</LatitudeDegrees>
              <LongitudeDegrees>-3.420215137302875518798828125</LongitudeDegrees>
            </Position>
            <AltitudeMeters>19.6000003814697265625</AltitudeMeters>
            <DistanceMeters>NAN</DistanceMeters>
          </Trackpoint>
          <Trackpoint>
            <Time>2022-07-13T08:27:59.000Z</Time>
            <Position>
              <LatitudeDegrees>43.4106478281319141387939453125</LatitudeDegrees>
              <LongitudeDegrees>-3.42036458663642406463623046875</LongitudeDegrees>
            </Position>
            <AltitudeMeters>19.6000003814697265625</AltitudeMeters>
            <DistanceMeters>NAN</DistanceMeters>
          </Trackpoint>
          <Trackpoint>
            <Time>2022-07-13T08:28:03.000Z</Time>
            <Position>
              <LatitudeDegrees>43.41065495274960994720458984375</LatitudeDegrees>
              <LongitudeDegrees>-3.42051613144576549530029296875</LongitudeDegrees>
            </Position>
            <AltitudeMeters>19.6000003814697265625</AltitudeMeters>
            <DistanceMeters>NAN</DistanceMeters>
          </Trackpoint>
          <Trackpoint>
            <Time>2022-07-13T08:28:04.000Z</Time>
            <Position>
              <LatitudeDegrees>43.4106719680130481719970703125</LatitudeDegrees>
              <LongitudeDegrees>-3.420543372631072998046875</LongitudeDegrees>
            </Position>
            <AltitudeMeters>19.6000003814697265625</AltitudeMeters>
            <DistanceMeters>NAN</DistanceMeters>
          </Trackpoint>
          <Trackpoint>
            <Time>2022-07-13T08:28:06.000Z</Time>
            <Position>
              <LatitudeDegrees>43.41068831272423267364501953125</LatitudeDegrees>
              <LongitudeDegrees>-3.42059232294559478759765625</LongitudeDegrees>
            </Position>
            <AltitudeMeters>19.6000003814697265625</AltitudeMeters>
            <DistanceMeters>NAN</DistanceMeters>
          </Trackpoint>
          <Trackpoint>
            <Time>2022-07-13T08:28:08.000Z</Time>
            <Position>
              <LatitudeDegrees>43.41067783534526824951171875</LatitudeDegrees>
              <LongitudeDegrees>-3.4206561930477619171142578125</LongitudeDegrees>
            </Position>
            <AltitudeMeters>19.6000003814697265625</AltitudeMeters>
            <DistanceMeters>NAN</DistanceMeters>
          </Trackpoint>
          <Trackpoint>
            <Time>2022-07-13T08:28:19.000Z</Time>
            <Position>
              <LatitudeDegrees>43.41057448647916316986083984375</LatitudeDegrees>
              <LongitudeDegrees>-3.4210310317575931549072265625</LongitudeDegrees>
            </Position>
            <AltitudeMeters>20</AltitudeMeters>
            <DistanceMeters>NAN</DistanceMeters>
          </Trackpoint>
          <Trackpoint>
            <Time>2022-07-13T08:28:23.000Z</Time>
            <Position>
              <LatitudeDegrees>43.41054565273225307464599609375</LatitudeDegrees>
              <LongitudeDegrees>-3.42116572894155979156494140625</LongitudeDegrees>
            </Position>
            <AltitudeMeters>20</AltitudeMeters>
            <DistanceMeters>NAN</DistanceMeters>
          </Trackpoint>
          <Trackpoint>
            <Time>2022-07-13T08:28:28.000Z</Time>
            <Position>
              <LatitudeDegrees>43.4105014801025390625</LatitudeDegrees>
              <LongitudeDegrees>-3.421358764171600341796875</LongitudeDegrees>
            </Position>
            <AltitudeMeters>20</AltitudeMeters>
            <DistanceMeters>NAN</DistanceMeters>
          </Trackpoint>
          <Trackpoint>
            <Time>2022-07-13T08:28:36.000Z</Time>
            <Position>
              <LatitudeDegrees>43.4104530327022075653076171875</LatitudeDegrees>
              <LongitudeDegrees>-3.4216553159058094024658203125</LongitudeDegrees>
            </Position>
            <AltitudeMeters>20</AltitudeMeters>
            <DistanceMeters>NAN</DistanceMeters>
          </Trackpoint>
          <Trackpoint>
            <Time>2022-07-13T08:28:38.000Z</Time>
            <Position>
              <LatitudeDegrees>43.41045009903609752655029296875</LatitudeDegrees>
              <LongitudeDegrees>-3.42174139805138111114501953125</LongitudeDegrees>
            </Position>
            <AltitudeMeters>20</AltitudeMeters>
            <DistanceMeters>NAN</DistanceMeters>
          </Trackpoint>
          <Trackpoint>
            <Time>2022-07-13T08:28:43.000Z</Time>
            <Position>
              <LatitudeDegrees>43.4104392863810062408447265625</LatitudeDegrees>
              <LongitudeDegrees>-3.42195195145905017852783203125</LongitudeDegrees>
            </Position>
            <AltitudeMeters>20.200000762939453125</AltitudeMeters>
            <DistanceMeters>NAN</DistanceMeters>
          </Trackpoint>
          <Trackpoint>
            <Time>2022-07-13T08:28:48.000Z</Time>
            <Position>
              <LatitudeDegrees>43.41040466912090778350830078125</LatitudeDegrees>
              <LongitudeDegrees>-3.4221532009541988372802734375</LongitudeDegrees>
            </Position>
            <AltitudeMeters>20</AltitudeMeters>
            <DistanceMeters>NAN</DistanceMeters>
          </Trackpoint>
          <Trackpoint>
            <Time>2022-07-13T08:28:53.000Z</Time>
            <Position>
              <LatitudeDegrees>43.4103702194988727569580078125</LatitudeDegrees>
              <LongitudeDegrees>-3.4223694540560245513916015625</LongitudeDegrees>
            </Position>
            <AltitudeMeters>20</AltitudeMeters>
            <DistanceMeters>NAN</DistanceMeters>
          </Trackpoint>
          <Trackpoint>
            <Time>2022-07-13T08:28:59.000Z</Time>
            <Position>
              <LatitudeDegrees>43.410381786525249481201171875</LatitudeDegrees>
              <LongitudeDegrees>-3.42260289005935192108154296875</LongitudeDegrees>
            </Position>
            <AltitudeMeters>19.6000003814697265625</AltitudeMeters>
            <DistanceMeters>NAN</DistanceMeters>
          </Trackpoint>
          <Trackpoint>
            <Time>2022-07-13T08:29:00.000Z</Time>
            <Position>
              <LatitudeDegrees>43.41038723476231098175048828125</LatitudeDegrees>
              <LongitudeDegrees>-3.42261998914182186126708984375</LongitudeDegrees>
            </Position>
            <AltitudeMeters>19.6000003814697265625</AltitudeMeters>
            <DistanceMeters>NAN</DistanceMeters>
          </Trackpoint>
          <Trackpoint>
            <Time>2022-07-13T08:29:02.000Z</Time>
            <Position>
              <LatitudeDegrees>43.41040953062474727630615234375</LatitudeDegrees>
              <LongitudeDegrees>-3.4226467274129390716552734375</LongitudeDegrees>
            </Position>
            <AltitudeMeters>19.3999996185302734375</AltitudeMeters>
            <DistanceMeters>NAN</DistanceMeters>
          </Trackpoint>
          <Trackpoint>
            <Time>2022-07-13T08:29:06.000Z</Time>
            <Position>
              <LatitudeDegrees>43.410444818437099456787109375</LatitudeDegrees>
              <LongitudeDegrees>-3.422683775424957275390625</LongitudeDegrees>
            </Position>
            <AltitudeMeters>19.3999996185302734375</AltitudeMeters>
            <DistanceMeters>NAN</DistanceMeters>
          </Trackpoint>
          <Trackpoint>
            <Time>2022-07-13T08:29:07.000Z</Time>
            <Position>
              <LatitudeDegrees>43.4104469977319240570068359375</LatitudeDegrees>
              <LongitudeDegrees>-3.4226846136152744293212890625</LongitudeDegrees>
            </Position>
            <AltitudeMeters>19.3999996185302734375</AltitudeMeters>
            <DistanceMeters>NAN</DistanceMeters>
          </Trackpoint>
          <Trackpoint>
            <Time>2022-07-13T08:29:09.000Z</Time>
            <Position>
              <LatitudeDegrees>43.4104469977319240570068359375</LatitudeDegrees>
              <LongitudeDegrees>-3.4226846136152744293212890625</LongitudeDegrees>
            </Position>
            <AltitudeMeters>19.200000762939453125</AltitudeMeters>
            <DistanceMeters>NAN</DistanceMeters>
          </Trackpoint>
          <Trackpoint>
            <Time>2022-07-13T08:33:07.000Z</Time>
            <Position>
              <LatitudeDegrees>43.41043652035295963287353515625</LatitudeDegrees>
              <LongitudeDegrees>-3.422725014388561248779296875</LongitudeDegrees>
            </Position>
            <AltitudeMeters>18.799999237060546875</AltitudeMeters>
            <DistanceMeters>NAN</DistanceMeters>
          </Trackpoint>
          <Trackpoint>
            <Time>2022-07-13T08:33:08.000Z</Time>
            <Position>
              <LatitudeDegrees>43.41043467633426189422607421875</LatitudeDegrees>
              <LongitudeDegrees>-3.4227556921541690826416015625</LongitudeDegrees>
            </Position>
            <AltitudeMeters>18.799999237060546875</AltitudeMeters>
            <DistanceMeters>NAN</DistanceMeters>
          </Trackpoint>
          <Trackpoint>
            <Time>2022-07-13T08:33:09.000Z</Time>
            <Position>
              <LatitudeDegrees>43.410434424877166748046875</LatitudeDegrees>
              <LongitudeDegrees>-3.42278796248137950897216796875</LongitudeDegrees>
            </Position>
            <AltitudeMeters>18.799999237060546875</AltitudeMeters>
            <DistanceMeters>NAN</DistanceMeters>
          </Trackpoint>
          <Trackpoint>
            <Time>2022-07-13T08:33:11.000Z</Time>
            <Position>
              <LatitudeDegrees>43.41043107211589813232421875</LatitudeDegrees>
              <LongitudeDegrees>-3.42286289669573307037353515625</LongitudeDegrees>
            </Position>
            <AltitudeMeters>18.200000762939453125</AltitudeMeters>
            <DistanceMeters>NAN</DistanceMeters>
          </Trackpoint>
          <Trackpoint>
            <Time>2022-07-13T08:33:15.000Z</Time>
            <Position>
              <LatitudeDegrees>43.41043367050588130950927734375</LatitudeDegrees>
              <LongitudeDegrees>-3.42303581535816192626953125</LongitudeDegrees>
            </Position>
            <AltitudeMeters>17.799999237060546875</AltitudeMeters>
            <DistanceMeters>NAN</DistanceMeters>
          </Trackpoint>
          <Trackpoint>
            <Time>2022-07-13T08:33:25.000Z</Time>
            <Position>
              <LatitudeDegrees>43.4104493446648120880126953125</LatitudeDegrees>
              <LongitudeDegrees>-3.4235201217234134674072265625</LongitudeDegrees>
            </Position>
            <AltitudeMeters>17.6000003814697265625</AltitudeMeters>
            <DistanceMeters>NAN</DistanceMeters>
          </Trackpoint>
          <Trackpoint>
            <Time>2022-07-13T08:33:34.000Z</Time>
            <Position>
              <LatitudeDegrees>43.41043635271489620208740234375</LatitudeDegrees>
              <LongitudeDegrees>-3.4239429049193859100341796875</LongitudeDegrees>
            </Position>
            <AltitudeMeters>17.6000003814697265625</AltitudeMeters>
            <DistanceMeters>NAN</DistanceMeters>
          </Trackpoint>
          <Trackpoint>
            <Time>2022-07-13T08:33:41.000Z</Time>
            <Position>
              <LatitudeDegrees>43.4104402922093868255615234375</LatitudeDegrees>
              <LongitudeDegrees>-3.42426267452538013458251953125</LongitudeDegrees>
            </Position>
            <AltitudeMeters>17.799999237060546875</AltitudeMeters>
            <DistanceMeters>NAN</DistanceMeters>
          </Trackpoint>
          <Trackpoint>
            <Time>2022-07-13T08:33:42.000Z</Time>
            <Position>
              <LatitudeDegrees>43.410441465675830841064453125</LatitudeDegrees>
              <LongitudeDegrees>-3.42430986464023590087890625</LongitudeDegrees>
            </Position>
            <AltitudeMeters>17.799999237060546875</AltitudeMeters>
            <DistanceMeters>NAN</DistanceMeters>
          </Trackpoint>
          <Trackpoint>
            <Time>2022-07-13T08:33:44.000Z</Time>
            <Position>
              <LatitudeDegrees>43.4104464948177337646484375</LatitudeDegrees>
              <LongitudeDegrees>-3.4244044125080108642578125</LongitudeDegrees>
            </Position>
            <AltitudeMeters>17.799999237060546875</AltitudeMeters>
            <DistanceMeters>NAN</DistanceMeters>
          </Trackpoint>
          <Trackpoint>
            <Time>2022-07-13T08:33:52.000Z</Time>
            <Position>
              <LatitudeDegrees>43.41047105379402637481689453125</LatitudeDegrees>
              <LongitudeDegrees>-3.42478729784488677978515625</LongitudeDegrees>
            </Position>
            <AltitudeMeters>17.799999237060546875</AltitudeMeters>
            <DistanceMeters>NAN</DistanceMeters>
          </Trackpoint>
          <Trackpoint>
            <Time>2022-07-13T08:33:54.000Z</Time>
            <Position>
              <LatitudeDegrees>43.4104875661432743072509765625</LatitudeDegrees>
              <LongitudeDegrees>-3.42487622983753681182861328125</LongitudeDegrees>
            </Position>
            <AltitudeMeters>17.799999237060546875</AltitudeMeters>
            <DistanceMeters>NAN</DistanceMeters>
          </Trackpoint>
          <Trackpoint>
            <Time>2022-07-13T08:33:58.000Z</Time>
            <Position>
              <LatitudeDegrees>43.41053928248584270477294921875</LatitudeDegrees>
              <LongitudeDegrees>-3.42503364197909832000732421875</LongitudeDegrees>
            </Position>
            <AltitudeMeters>17.799999237060546875</AltitudeMeters>
            <DistanceMeters>NAN</DistanceMeters>
          </Trackpoint>
          <Trackpoint>
            <Time>2022-07-13T08:34:02.000Z</Time>
            <Position>
              <LatitudeDegrees>43.4105915017426013946533203125</LatitudeDegrees>
              <LongitudeDegrees>-3.42518786899745464324951171875</LongitudeDegrees>
            </Position>
            <AltitudeMeters>17.6000003814697265625</AltitudeMeters>
            <DistanceMeters>NAN</DistanceMeters>
          </Trackpoint>
          <Trackpoint>
            <Time>2022-07-13T08:34:03.000Z</Time>
            <Position>
              <LatitudeDegrees>43.410591669380664825439453125</LatitudeDegrees>
              <LongitudeDegrees>-3.4252169542014598846435546875</LongitudeDegrees>
            </Position>
            <AltitudeMeters>17.3999996185302734375</AltitudeMeters>
            <DistanceMeters>NAN</DistanceMeters>
          </Trackpoint>
          <Trackpoint>
            <Time>2022-07-13T08:34:04.000Z</Time>
            <Position>
              <LatitudeDegrees>43.41057859361171722412109375</LatitudeDegrees>
              <LongitudeDegrees>-3.4252390824258327484130859375</LongitudeDegrees>
            </Position>
            <AltitudeMeters>17.3999996185302734375</AltitudeMeters>
            <DistanceMeters>NAN</DistanceMeters>
          </Trackpoint>
          <Trackpoint>
            <Time>2022-07-13T08:34:06.000Z</Time>
            <Position>
              <LatitudeDegrees>43.4105324931442737579345703125</LatitudeDegrees>
              <LongitudeDegrees>-3.42524402774870395660400390625</LongitudeDegrees>
            </Position>
            <AltitudeMeters>17.3999996185302734375</AltitudeMeters>
            <DistanceMeters>NAN</DistanceMeters>
          </Trackpoint>
          <Trackpoint>
            <Time>2022-07-13T08:34:11.000Z</Time>
            <Position>
              <LatitudeDegrees>43.410377763211727142333984375</LatitudeDegrees>
              <LongitudeDegrees>-3.42514344491064548492431640625</LongitudeDegrees>
            </Position>
            <AltitudeMeters>17.6000003814697265625</AltitudeMeters>
            <DistanceMeters>NAN</DistanceMeters>
          </Trackpoint>
          <Trackpoint>
            <Time>2022-07-13T08:34:18.000Z</Time>
            <Position>
              <LatitudeDegrees>43.4101351909339427947998046875</LatitudeDegrees>
              <LongitudeDegrees>-3.425048477947711944580078125</LongitudeDegrees>
            </Position>
            <AltitudeMeters>17.799999237060546875</AltitudeMeters>
            <DistanceMeters>NAN</DistanceMeters>
          </Trackpoint>
          <Trackpoint>
            <Time>2022-07-13T08:34:28.000Z</Time>
            <Position>
              <LatitudeDegrees>43.4097342006862163543701171875</LatitudeDegrees>
              <LongitudeDegrees>-3.42492316849529743194580078125</LongitudeDegrees>
            </Position>
            <AltitudeMeters>17.3999996185302734375</AltitudeMeters>
            <DistanceMeters>NAN</DistanceMeters>
          </Trackpoint>
          <Trackpoint>
            <Time>2022-07-13T08:34:29.000Z</Time>
            <Position>
              <LatitudeDegrees>43.40968751348555088043212890625</LatitudeDegrees>
              <LongitudeDegrees>-3.42494378797709941864013671875</LongitudeDegrees>
            </Position>
            <AltitudeMeters>17.3999996185302734375</AltitudeMeters>
            <DistanceMeters>NAN</DistanceMeters>
          </Trackpoint>
          <Trackpoint>
            <Time>2022-07-13T08:34:31.000Z</Time>
            <Position>
              <LatitudeDegrees>43.40962414629757404327392578125</LatitudeDegrees>
              <LongitudeDegrees>-3.42502492479979991912841796875</LongitudeDegrees>
            </Position>
            <AltitudeMeters>17.3999996185302734375</AltitudeMeters>
            <DistanceMeters>NAN</DistanceMeters>
          </Trackpoint>
          <Trackpoint>
            <Time>2022-07-13T08:34:36.000Z</Time>
            <Position>
              <LatitudeDegrees>43.40956471860408782958984375</LatitudeDegrees>
              <LongitudeDegrees>-3.42529616318643093109130859375</LongitudeDegrees>
            </Position>
            <AltitudeMeters>17.3999996185302734375</AltitudeMeters>
            <DistanceMeters>NAN</DistanceMeters>
          </Trackpoint>
          <Trackpoint>
            <Time>2022-07-13T08:34:44.000Z</Time>
            <Position>
              <LatitudeDegrees>43.40950394980609416961669921875</LatitudeDegrees>
              <LongitudeDegrees>-3.42570729553699493408203125</LongitudeDegrees>
            </Position>
            <AltitudeMeters>17.799999237060546875</AltitudeMeters>
            <DistanceMeters>NAN</DistanceMeters>
          </Trackpoint>
          <Trackpoint>
            <Time>2022-07-13T08:34:46.000Z</Time>
            <Position>
              <LatitudeDegrees>43.40948550961911678314208984375</LatitudeDegrees>
              <LongitudeDegrees>-3.4258083812892436981201171875</LongitudeDegrees>
            </Position>
            <AltitudeMeters>17.799999237060546875</AltitudeMeters>
            <DistanceMeters>NAN</DistanceMeters>
          </Trackpoint>
          <Trackpoint>
            <Time>2022-07-13T08:34:53.000Z</Time>
            <Position>
              <LatitudeDegrees>43.40942013077437877655029296875</LatitudeDegrees>
              <LongitudeDegrees>-3.426189087331295013427734375</LongitudeDegrees>
            </Position>
            <AltitudeMeters>17.799999237060546875</AltitudeMeters>
            <DistanceMeters>NAN</DistanceMeters>
          </Trackpoint>
          <Trackpoint>
            <Time>2022-07-13T08:35:04.000Z</Time>
            <Position>
              <LatitudeDegrees>43.40931971557438373565673828125</LatitudeDegrees>
              <LongitudeDegrees>-3.42678395099937915802001953125</LongitudeDegrees>
            </Position>
            <AltitudeMeters>18</AltitudeMeters>
            <DistanceMeters>NAN</DistanceMeters>
          </Trackpoint>
          <Trackpoint>
            <Time>2022-07-13T08:35:07.000Z</Time>
            <Position>
              <LatitudeDegrees>43.4092852659523487091064453125</LatitudeDegrees>
              <LongitudeDegrees>-3.4269375912845134735107421875</LongitudeDegrees>
            </Position>
            <AltitudeMeters>18</AltitudeMeters>
            <DistanceMeters>NAN</DistanceMeters>
          </Trackpoint>
          <Trackpoint>
            <Time>2022-07-13T08:35:09.000Z</Time>
            <Position>
              <LatitudeDegrees>43.40926456265151500701904296875</LatitudeDegrees>
              <LongitudeDegrees>-3.4270415268838405609130859375</LongitudeDegrees>
            </Position>
            <AltitudeMeters>18</AltitudeMeters>
            <DistanceMeters>NAN</DistanceMeters>
          </Trackpoint>
          <Trackpoint>
            <Time>2022-07-13T08:35:15.000Z</Time>
            <Position>
              <LatitudeDegrees>43.409216366708278656005859375</LatitudeDegrees>
              <LongitudeDegrees>-3.4273387491703033447265625</LongitudeDegrees>
            </Position>
            <AltitudeMeters>18.200000762939453125</AltitudeMeters>
            <DistanceMeters>NAN</DistanceMeters>
          </Trackpoint>
          <Trackpoint>
            <Time>2022-07-13T08:35:16.000Z</Time>
            <Position>
              <LatitudeDegrees>43.40920974500477313995361328125</LatitudeDegrees>
              <LongitudeDegrees>-3.427388705313205718994140625</LongitudeDegrees>
            </Position>
            <AltitudeMeters>18.200000762939453125</AltitudeMeters>
            <DistanceMeters>NAN</DistanceMeters>
          </Trackpoint>
          <Trackpoint>
            <Time>2022-07-13T08:35:25.000Z</Time>
            <Position>
              <LatitudeDegrees>43.4091447852551937103271484375</LatitudeDegrees>
              <LongitudeDegrees>-3.4278438426554203033447265625</LongitudeDegrees>
            </Position>
            <AltitudeMeters>18.200000762939453125</AltitudeMeters>
            <DistanceMeters>NAN</DistanceMeters>
          </Trackpoint>
          <Trackpoint>
            <Time>2022-07-13T08:35:33.000Z</Time>
            <Position>
              <LatitudeDegrees>43.40909306891262531280517578125</LatitudeDegrees>
              <LongitudeDegrees>-3.4282077848911285400390625</LongitudeDegrees>
            </Position>
            <AltitudeMeters>18.200000762939453125</AltitudeMeters>
            <DistanceMeters>NAN</DistanceMeters>
          </Trackpoint>
          <Trackpoint>
            <Time>2022-07-13T08:35:39.000Z</Time>
            <Position>
              <LatitudeDegrees>43.40908133424818515777587890625</LatitudeDegrees>
              <LongitudeDegrees>-3.42846133746206760406494140625</LongitudeDegrees>
            </Position>
            <AltitudeMeters>18.3999996185302734375</AltitudeMeters>
            <DistanceMeters>NAN</DistanceMeters>
          </Trackpoint>
          <Trackpoint>
            <Time>2022-07-13T08:35:45.000Z</Time>
            <Position>
              <LatitudeDegrees>43.40908183716237545013427734375</LatitudeDegrees>
              <LongitudeDegrees>-3.4287388622760772705078125</LongitudeDegrees>
            </Position>
            <AltitudeMeters>18.3999996185302734375</AltitudeMeters>
            <DistanceMeters>NAN</DistanceMeters>
          </Trackpoint>
          <Trackpoint>
            <Time>2022-07-13T08:35:47.000Z</Time>
            <Position>
              <LatitudeDegrees>43.40908326208591461181640625</LatitudeDegrees>
              <LongitudeDegrees>-3.42883751727640628814697265625</LongitudeDegrees>
            </Position>
            <AltitudeMeters>18.3999996185302734375</AltitudeMeters>
            <DistanceMeters>NAN</DistanceMeters>
          </Trackpoint>
          <Trackpoint>
            <Time>2022-07-13T08:35:54.000Z</Time>
            <Position>
              <LatitudeDegrees>43.4090502373874187469482421875</LatitudeDegrees>
              <LongitudeDegrees>-3.42912836931645870208740234375</LongitudeDegrees>
            </Position>
            <AltitudeMeters>18.200000762939453125</AltitudeMeters>
            <DistanceMeters>NAN</DistanceMeters>
          </Trackpoint>
          <Trackpoint>
            <Time>2022-07-13T08:36:00.000Z</Time>
            <Position>
              <LatitudeDegrees>43.40895007364451885223388671875</LatitudeDegrees>
              <LongitudeDegrees>-3.429301790893077850341796875</LongitudeDegrees>
            </Position>
            <AltitudeMeters>18.200000762939453125</AltitudeMeters>
            <DistanceMeters>NAN</DistanceMeters>
          </Trackpoint>
          <Trackpoint>
            <Time>2022-07-13T08:36:08.000Z</Time>
            <Position>
              <LatitudeDegrees>43.4087360836565494537353515625</LatitudeDegrees>
              <LongitudeDegrees>-3.4293879568576812744140625</LongitudeDegrees>
            </Position>
            <AltitudeMeters>18</AltitudeMeters>
            <DistanceMeters>NAN</DistanceMeters>
          </Trackpoint>
          <Trackpoint>
            <Time>2022-07-13T08:36:13.000Z</Time>
            <Position>
              <LatitudeDegrees>43.40864597819745540618896484375</LatitudeDegrees>
              <LongitudeDegrees>-3.42949499376118183135986328125</LongitudeDegrees>
            </Position>
            <AltitudeMeters>18</AltitudeMeters>
            <DistanceMeters>NAN</DistanceMeters>
          </Trackpoint>
          <Trackpoint>
            <Time>2022-07-13T08:36:14.000Z</Time>
            <Position>
              <LatitudeDegrees>43.40864497236907482147216796875</LatitudeDegrees>
              <LongitudeDegrees>-3.4295232407748699188232421875</LongitudeDegrees>
            </Position>
            <AltitudeMeters>18</AltitudeMeters>
            <DistanceMeters>NAN</DistanceMeters>
          </Trackpoint>
          <Trackpoint>
            <Time>2022-07-13T08:36:15.000Z</Time>
            <Position>
              <LatitudeDegrees>43.40864882804453372955322265625</LatitudeDegrees>
              <LongitudeDegrees>-3.42954411171376705169677734375</LongitudeDegrees>
            </Position>
            <AltitudeMeters>18</AltitudeMeters>
            <DistanceMeters>NAN</DistanceMeters>
          </Trackpoint>
          <Trackpoint>
            <Time>2022-07-13T08:36:18.000Z</Time>
            <Position>
              <LatitudeDegrees>43.4086542762815952301025390625</LatitudeDegrees>
              <LongitudeDegrees>-3.42955735512077808380126953125</LongitudeDegrees>
            </Position>
            <AltitudeMeters>18</AltitudeMeters>
            <DistanceMeters>NAN</DistanceMeters>
          </Trackpoint>
          <Trackpoint>
            <Time>2022-07-13T08:36:19.000Z</Time>
            <Position>
              <LatitudeDegrees>43.4086542762815952301025390625</LatitudeDegrees>
              <LongitudeDegrees>-3.42955735512077808380126953125</LongitudeDegrees>
            </Position>
            <AltitudeMeters>18</AltitudeMeters>
            <DistanceMeters>NAN</DistanceMeters>
          </Trackpoint>
          <Trackpoint>
            <Time>2022-07-13T08:37:24.000Z</Time>
            <Position>
              <LatitudeDegrees>43.4086639992892742156982421875</LatitudeDegrees>
              <LongitudeDegrees>-3.4295783936977386474609375</LongitudeDegrees>
            </Position>
            <AltitudeMeters>17</AltitudeMeters>
            <DistanceMeters>NAN</DistanceMeters>
          </Trackpoint>
          <Trackpoint>
            <Time>2022-07-13T08:37:26.000Z</Time>
            <Position>
              <LatitudeDegrees>43.40864631347358226776123046875</LatitudeDegrees>
              <LongitudeDegrees>-3.42957495711743831634521484375</LongitudeDegrees>
            </Position>
            <AltitudeMeters>17</AltitudeMeters>
            <DistanceMeters>NAN</DistanceMeters>
          </Trackpoint>
          <Trackpoint>
            <Time>2022-07-13T08:37:30.000Z</Time>
            <Position>
              <LatitudeDegrees>43.40863826684653759002685546875</LatitudeDegrees>
              <LongitudeDegrees>-3.42959356494247913360595703125</LongitudeDegrees>
            </Position>
            <AltitudeMeters>17</AltitudeMeters>
            <DistanceMeters>NAN</DistanceMeters>
          </Trackpoint>
          <Trackpoint>
            <Time>2022-07-13T08:37:32.000Z</Time>
            <Position>
              <LatitudeDegrees>43.40865385718643665313720703125</LatitudeDegrees>
              <LongitudeDegrees>-3.42958970926702022552490234375</LongitudeDegrees>
            </Position>
            <AltitudeMeters>17</AltitudeMeters>
            <DistanceMeters>NAN</DistanceMeters>
          </Trackpoint>
          <Trackpoint>
            <Time>2022-07-13T08:37:34.000Z</Time>
            <Position>
              <LatitudeDegrees>43.40865385718643665313720703125</LatitudeDegrees>
              <LongitudeDegrees>-3.42958970926702022552490234375</LongitudeDegrees>
            </Position>
            <AltitudeMeters>16.799999237060546875</AltitudeMeters>
            <DistanceMeters>NAN</DistanceMeters>
          </Trackpoint>
          <Trackpoint>
            <Time>2022-07-13T08:41:57.000Z</Time>
            <Position>
              <LatitudeDegrees>43.4087008796632289886474609375</LatitudeDegrees>
              <LongitudeDegrees>-3.42968660406768321990966796875</LongitudeDegrees>
            </Position>
            <AltitudeMeters>15.80000019073486328125</AltitudeMeters>
            <DistanceMeters>NAN</DistanceMeters>
          </Trackpoint>
          <Trackpoint>
            <Time>2022-07-13T08:42:48.000Z</Time>
            <Position>
              <LatitudeDegrees>43.4087069146335124969482421875</LatitudeDegrees>
              <LongitudeDegrees>-3.4294699318706989288330078125</LongitudeDegrees>
            </Position>
            <AltitudeMeters>15.6000003814697265625</AltitudeMeters>
            <DistanceMeters>NAN</DistanceMeters>
          </Trackpoint>
          <Trackpoint>
            <Time>2022-07-13T08:42:51.000Z</Time>
            <Position>
              <LatitudeDegrees>43.40899944305419921875</LatitudeDegrees>
              <LongitudeDegrees>-3.42958468012511730194091796875</LongitudeDegrees>
            </Position>
            <AltitudeMeters>15.6000003814697265625</AltitudeMeters>
            <DistanceMeters>NAN</DistanceMeters>
          </Trackpoint>
          <Trackpoint>
            <Time>2022-07-13T09:00:12.000Z</Time>
            <Position>
              <LatitudeDegrees>43.40871320106089115142822265625</LatitudeDegrees>
              <LongitudeDegrees>-3.42962742783129215240478515625</LongitudeDegrees>
            </Position>
            <AltitudeMeters>16</AltitudeMeters>
            <DistanceMeters>NAN</DistanceMeters>
          </Trackpoint>
          <Trackpoint>
            <Time>2022-07-13T09:00:13.000Z</Time>
            <Position>
              <LatitudeDegrees>43.40871470980346202850341796875</LatitudeDegrees>
              <LongitudeDegrees>-3.42964880168437957763671875</LongitudeDegrees>
            </Position>
            <AltitudeMeters>16</AltitudeMeters>
            <DistanceMeters>NAN</DistanceMeters>
          </Trackpoint>
          <Trackpoint>
            <Time>2022-07-13T09:00:17.000Z</Time>
            <Position>
              <LatitudeDegrees>43.40871823020279407501220703125</LatitudeDegrees>
              <LongitudeDegrees>-3.4296694211661815643310546875</LongitudeDegrees>
            </Position>
            <AltitudeMeters>16</AltitudeMeters>
            <DistanceMeters>NAN</DistanceMeters>
          </Trackpoint>
          <Trackpoint>
            <Time>2022-07-13T09:11:34.000Z</Time>
            <Position>
              <LatitudeDegrees>43.40871177613735198974609375</LatitudeDegrees>
              <LongitudeDegrees>-3.42956724576652050018310546875</LongitudeDegrees>
            </Position>
            <AltitudeMeters>15.6000003814697265625</AltitudeMeters>
            <DistanceMeters>NAN</DistanceMeters>
          </Trackpoint>
          <Trackpoint>
            <Time>2022-07-13T09:11:36.000Z</Time>
            <Position>
              <LatitudeDegrees>43.40875527821481227874755859375</LatitudeDegrees>
              <LongitudeDegrees>-3.42953774146735668182373046875</LongitudeDegrees>
            </Position>
            <AltitudeMeters>15.6000003814697265625</AltitudeMeters>
            <DistanceMeters>NAN</DistanceMeters>
          </Trackpoint>
          <Trackpoint>
            <Time>2022-07-13T09:11:39.000Z</Time>
            <Position>
              <LatitudeDegrees>43.40881177224218845367431640625</LatitudeDegrees>
              <LongitudeDegrees>-3.42948921024799346923828125</LongitudeDegrees>
            </Position>
            <AltitudeMeters>15</AltitudeMeters>
            <DistanceMeters>NAN</DistanceMeters>
          </Trackpoint>
          <Trackpoint>
            <Time>2022-07-13T09:11:44.000Z</Time>
            <Position>
              <LatitudeDegrees>43.40892811305820941925048828125</LatitudeDegrees>
              <LongitudeDegrees>-3.4294239990413188934326171875</LongitudeDegrees>
            </Position>
            <AltitudeMeters>15.19999980926513671875</AltitudeMeters>
            <DistanceMeters>NAN</DistanceMeters>
          </Trackpoint>
          <Trackpoint>
            <Time>2022-07-13T09:11:47.000Z</Time>
            <Position>
              <LatitudeDegrees>43.4089848585426807403564453125</LatitudeDegrees>
              <LongitudeDegrees>-3.4294018708169460296630859375</LongitudeDegrees>
            </Position>
            <AltitudeMeters>15.3999996185302734375</AltitudeMeters>
            <DistanceMeters>NAN</DistanceMeters>
          </Trackpoint>
          <Trackpoint>
            <Time>2022-07-13T09:11:49.000Z</Time>
            <Position>
              <LatitudeDegrees>43.40901059098541736602783203125</LatitudeDegrees>
              <LongitudeDegrees>-3.429397679865360260009765625</LongitudeDegrees>
            </Position>
            <AltitudeMeters>15.6000003814697265625</AltitudeMeters>
            <DistanceMeters>NAN</DistanceMeters>
          </Trackpoint>
          <Trackpoint>
            <Time>2022-07-13T09:11:53.000Z</Time>
            <Position>
              <LatitudeDegrees>43.40909625403583049774169921875</LatitudeDegrees>
              <LongitudeDegrees>-3.42941888608038425445556640625</LongitudeDegrees>
            </Position>
            <AltitudeMeters>15.6000003814697265625</AltitudeMeters>
            <DistanceMeters>NAN</DistanceMeters>
          </Trackpoint>
          <Trackpoint>
            <Time>2022-07-13T09:11:57.000Z</Time>
            <Position>
              <LatitudeDegrees>43.4091778099536895751953125</LatitudeDegrees>
              <LongitudeDegrees>-3.4294568561017513275146484375</LongitudeDegrees>
            </Position>
            <AltitudeMeters>15.3999996185302734375</AltitudeMeters>
            <DistanceMeters>NAN</DistanceMeters>
          </Trackpoint>
          <Trackpoint>
            <Time>2022-07-13T09:11:58.000Z</Time>
            <Position>
              <LatitudeDegrees>43.40920052491128444671630859375</LatitudeDegrees>
              <LongitudeDegrees>-3.429438583552837371826171875</LongitudeDegrees>
            </Position>
            <AltitudeMeters>15.3999996185302734375</AltitudeMeters>
            <DistanceMeters>NAN</DistanceMeters>
          </Trackpoint>
          <Trackpoint>
            <Time>2022-07-13T09:11:59.000Z</Time>
            <Position>
              <LatitudeDegrees>43.40921879746019840240478515625</LatitudeDegrees>
              <LongitudeDegrees>-3.42941033653914928436279296875</LongitudeDegrees>
            </Position>
            <AltitudeMeters>15.3999996185302734375</AltitudeMeters>
            <DistanceMeters>NAN</DistanceMeters>
          </Trackpoint>
          <Trackpoint>
            <Time>2022-07-13T09:12:01.000Z</Time>
            <Position>
              <LatitudeDegrees>43.4092316217720508575439453125</LatitudeDegrees>
              <LongitudeDegrees>-3.42933691106736660003662109375</LongitudeDegrees>
            </Position>
            <AltitudeMeters>15.19999980926513671875</AltitudeMeters>
            <DistanceMeters>NAN</DistanceMeters>
          </Trackpoint>
          <Trackpoint>
            <Time>2022-07-13T09:12:06.000Z</Time>
            <Position>
              <LatitudeDegrees>43.40919180773198604583740234375</LatitudeDegrees>
              <LongitudeDegrees>-3.4291473962366580963134765625</LongitudeDegrees>
            </Position>
            <AltitudeMeters>15</AltitudeMeters>
            <DistanceMeters>NAN</DistanceMeters>
          </Trackpoint>
          <Trackpoint>
            <Time>2022-07-13T09:12:07.000Z</Time>
            <Position>
              <LatitudeDegrees>43.40917152352631092071533203125</LatitudeDegrees>
              <LongitudeDegrees>-3.429108671844005584716796875</LongitudeDegrees>
            </Position>
            <AltitudeMeters>15</AltitudeMeters>
            <DistanceMeters>NAN</DistanceMeters>
          </Trackpoint>
          <Trackpoint>
            <Time>2022-07-13T09:12:11.000Z</Time>
            <Position>
              <LatitudeDegrees>43.409152664244174957275390625</LatitudeDegrees>
              <LongitudeDegrees>-3.4289609827101230621337890625</LongitudeDegrees>
            </Position>
            <AltitudeMeters>15.3999996185302734375</AltitudeMeters>
            <DistanceMeters>NAN</DistanceMeters>
          </Trackpoint>
          <Trackpoint>
            <Time>2022-07-13T09:12:17.000Z</Time>
            <Position>
              <LatitudeDegrees>43.4091778099536895751953125</LatitudeDegrees>
              <LongitudeDegrees>-3.4287621639668941497802734375</LongitudeDegrees>
            </Position>
            <AltitudeMeters>15.3999996185302734375</AltitudeMeters>
            <DistanceMeters>NAN</DistanceMeters>
          </Trackpoint>
          <Trackpoint>
            <Time>2022-07-13T09:12:18.000Z</Time>
            <Position>
              <LatitudeDegrees>43.40919331647455692291259765625</LatitudeDegrees>
              <LongitudeDegrees>-3.42874565161764621734619140625</LongitudeDegrees>
            </Position>
            <AltitudeMeters>15.3999996185302734375</AltitudeMeters>
            <DistanceMeters>NAN</DistanceMeters>
          </Trackpoint>
          <Trackpoint>
            <Time>2022-07-13T09:12:21.000Z</Time>
            <Position>
              <LatitudeDegrees>43.40925752185285091400146484375</LatitudeDegrees>
              <LongitudeDegrees>-3.4287011437118053436279296875</LongitudeDegrees>
            </Position>
            <AltitudeMeters>15.6000003814697265625</AltitudeMeters>
            <DistanceMeters>NAN</DistanceMeters>
          </Trackpoint>
          <Trackpoint>
            <Time>2022-07-13T09:12:23.000Z</Time>
            <Position>
              <LatitudeDegrees>43.40929557569324970245361328125</LatitudeDegrees>
              <LongitudeDegrees>-3.42868060804903507232666015625</LongitudeDegrees>
            </Position>
            <AltitudeMeters>15.3999996185302734375</AltitudeMeters>
            <DistanceMeters>NAN</DistanceMeters>
          </Trackpoint>
          <Trackpoint>
            <Time>2022-07-13T09:12:26.000Z</Time>
            <Position>
              <LatitudeDegrees>43.40938040055334568023681640625</LatitudeDegrees>
              <LongitudeDegrees>-3.428696282207965850830078125</LongitudeDegrees>
            </Position>
            <AltitudeMeters>15.3999996185302734375</AltitudeMeters>
            <DistanceMeters>NAN</DistanceMeters>
          </Trackpoint>
          <Trackpoint>
            <Time>2022-07-13T09:12:33.000Z</Time>
            <Position>
              <LatitudeDegrees>43.40960939414799213409423828125</LatitudeDegrees>
              <LongitudeDegrees>-3.428691923618316650390625</LongitudeDegrees>
            </Position>
            <AltitudeMeters>15.6000003814697265625</AltitudeMeters>
            <DistanceMeters>NAN</DistanceMeters>
          </Trackpoint>
          <Trackpoint>
            <Time>2022-07-13T09:12:41.000Z</Time>
            <Position>
              <LatitudeDegrees>43.40981860645115375518798828125</LatitudeDegrees>
              <LongitudeDegrees>-3.42860315926373004913330078125</LongitudeDegrees>
            </Position>
            <AltitudeMeters>15.3999996185302734375</AltitudeMeters>
            <DistanceMeters>NAN</DistanceMeters>
          </Trackpoint>
          <Trackpoint>
            <Time>2022-07-13T09:12:42.000Z</Time>
            <Position>
              <LatitudeDegrees>43.4098300896584987640380859375</LatitudeDegrees>
              <LongitudeDegrees>-3.428586311638355255126953125</LongitudeDegrees>
            </Position>
            <AltitudeMeters>15.3999996185302734375</AltitudeMeters>
            <DistanceMeters>NAN</DistanceMeters>
          </Trackpoint>
          <Trackpoint>
            <Time>2022-07-13T09:12:44.000Z</Time>
            <Position>
              <LatitudeDegrees>43.40987778268754482269287109375</LatitudeDegrees>
              <LongitudeDegrees>-3.4285130538046360015869140625</LongitudeDegrees>
            </Position>
            <AltitudeMeters>15.19999980926513671875</AltitudeMeters>
            <DistanceMeters>NAN</DistanceMeters>
          </Trackpoint>
          <Trackpoint>
            <Time>2022-07-13T09:12:45.000Z</Time>
            <Position>
              <LatitudeDegrees>43.4098966419696807861328125</LatitudeDegrees>
              <LongitudeDegrees>-3.42850525863468647003173828125</LongitudeDegrees>
            </Position>
            <AltitudeMeters>15.19999980926513671875</AltitudeMeters>
            <DistanceMeters>NAN</DistanceMeters>
          </Trackpoint>
          <Trackpoint>
            <Time>2022-07-13T09:12:51.000Z</Time>
            <Position>
              <LatitudeDegrees>43.410026393830776214599609375</LatitudeDegrees>
              <LongitudeDegrees>-3.428429067134857177734375</LongitudeDegrees>
            </Position>
            <AltitudeMeters>15.6000003814697265625</AltitudeMeters>
            <DistanceMeters>NAN</DistanceMeters>
          </Trackpoint>
          <Trackpoint>
            <Time>2022-07-13T09:12:55.000Z</Time>
            <Position>
              <LatitudeDegrees>43.410065285861492156982421875</LatitudeDegrees>
              <LongitudeDegrees>-3.42839210294187068939208984375</LongitudeDegrees>
            </Position>
            <AltitudeMeters>15.3999996185302734375</AltitudeMeters>
            <DistanceMeters>NAN</DistanceMeters>
          </Trackpoint>
          <Trackpoint>
            <Time>2022-07-13T09:12:56.000Z</Time>
            <Position>
              <LatitudeDegrees>43.41006436385214328765869140625</LatitudeDegrees>
              <LongitudeDegrees>-3.42838740907609462738037109375</LongitudeDegrees>
            </Position>
            <AltitudeMeters>15.3999996185302734375</AltitudeMeters>
            <DistanceMeters>NAN</DistanceMeters>
          </Trackpoint>
          <Trackpoint>
            <Time>2022-07-13T09:12:57.000Z</Time>
            <Position>
              <LatitudeDegrees>43.41006763279438018798828125</LatitudeDegrees>
              <LongitudeDegrees>-3.42838288284838199615478515625</LongitudeDegrees>
            </Position>
            <AltitudeMeters>15.3999996185302734375</AltitudeMeters>
            <DistanceMeters>NAN</DistanceMeters>
          </Trackpoint>
          <Trackpoint>
            <Time>2022-07-13T09:13:05.000Z</Time>
            <Position>
              <LatitudeDegrees>43.41015589423477649688720703125</LatitudeDegrees>
              <LongitudeDegrees>-3.4283957071602344512939453125</LongitudeDegrees>
            </Position>
            <AltitudeMeters>15.6000003814697265625</AltitudeMeters>
            <DistanceMeters>NAN</DistanceMeters>
          </Trackpoint>
          <Trackpoint>
            <Time>2022-07-13T09:13:07.000Z</Time>
            <Position>
              <LatitudeDegrees>43.41017894446849822998046875</LatitudeDegrees>
              <LongitudeDegrees>-3.42840559780597686767578125</LongitudeDegrees>
            </Position>
            <AltitudeMeters>16</AltitudeMeters>
            <DistanceMeters>NAN</DistanceMeters>
          </Trackpoint>
          <Trackpoint>
            <Time>2022-07-13T09:13:14.000Z</Time>
            <Position>
              <LatitudeDegrees>43.410348258912563323974609375</LatitudeDegrees>
              <LongitudeDegrees>-3.428548760712146759033203125</LongitudeDegrees>
            </Position>
            <AltitudeMeters>16</AltitudeMeters>
            <DistanceMeters>NAN</DistanceMeters>
          </Trackpoint>
          <Trackpoint>
            <Time>2022-07-13T09:13:16.000Z</Time>
            <Position>
              <LatitudeDegrees>43.41040282510221004486083984375</LatitudeDegrees>
              <LongitudeDegrees>-3.428569547832012176513671875</LongitudeDegrees>
            </Position>
            <AltitudeMeters>16.200000762939453125</AltitudeMeters>
            <DistanceMeters>NAN</DistanceMeters>
          </Trackpoint>
          <Trackpoint>
            <Time>2022-07-13T09:13:18.000Z</Time>
            <Position>
              <LatitudeDegrees>43.41044607572257518768310546875</LatitudeDegrees>
              <LongitudeDegrees>-3.4285599924623966217041015625</LongitudeDegrees>
            </Position>
            <AltitudeMeters>16.200000762939453125</AltitudeMeters>
            <DistanceMeters>NAN</DistanceMeters>
          </Trackpoint>
          <Trackpoint>
            <Time>2022-07-13T09:13:24.000Z</Time>
            <Position>
              <LatitudeDegrees>43.41057549230754375457763671875</LatitudeDegrees>
              <LongitudeDegrees>-3.42860600911080837249755859375</LongitudeDegrees>
            </Position>
            <AltitudeMeters>16.200000762939453125</AltitudeMeters>
            <DistanceMeters>NAN</DistanceMeters>
          </Trackpoint>
          <Trackpoint>
            <Time>2022-07-13T09:13:27.000Z</Time>
            <Position>
              <LatitudeDegrees>43.4106283821165561676025390625</LatitudeDegrees>
              <LongitudeDegrees>-3.428653366863727569580078125</LongitudeDegrees>
            </Position>
            <AltitudeMeters>16.200000762939453125</AltitudeMeters>
            <DistanceMeters>NAN</DistanceMeters>
          </Trackpoint>
          <Trackpoint>
            <Time>2022-07-13T09:13:29.000Z</Time>
            <Position>
              <LatitudeDegrees>43.410644643008708953857421875</LatitudeDegrees>
              <LongitudeDegrees>-3.42868329025804996490478515625</LongitudeDegrees>
            </Position>
            <AltitudeMeters>16.3999996185302734375</AltitudeMeters>
            <DistanceMeters>NAN</DistanceMeters>
          </Trackpoint>
          <Trackpoint>
            <Time>2022-07-13T09:13:34.000Z</Time>
            <Position>
              <LatitudeDegrees>43.410772718489170074462890625</LatitudeDegrees>
              <LongitudeDegrees>-3.42876677401363849639892578125</LongitudeDegrees>
            </Position>
            <AltitudeMeters>16.6000003814697265625</AltitudeMeters>
            <DistanceMeters>NAN</DistanceMeters>
          </Trackpoint>
          <Trackpoint>
            <Time>2022-07-13T09:13:36.000Z</Time>
            <Position>
              <LatitudeDegrees>43.410846479237079620361328125</LatitudeDegrees>
              <LongitudeDegrees>-3.428844474256038665771484375</LongitudeDegrees>
            </Position>
            <AltitudeMeters>16.6000003814697265625</AltitudeMeters>
            <DistanceMeters>NAN</DistanceMeters>
          </Trackpoint>
          <Trackpoint>
            <Time>2022-07-13T09:13:38.000Z</Time>
            <Position>
              <LatitudeDegrees>43.41086064465343952178955078125</LatitudeDegrees>
              <LongitudeDegrees>-3.42888227663934230804443359375</LongitudeDegrees>
            </Position>
            <AltitudeMeters>16.6000003814697265625</AltitudeMeters>
            <DistanceMeters>NAN</DistanceMeters>
          </Trackpoint>
          <Trackpoint>
            <Time>2022-07-13T09:13:47.000Z</Time>
            <Position>
              <LatitudeDegrees>43.41097346507012844085693359375</LatitudeDegrees>
              <LongitudeDegrees>-3.4293250925838947296142578125</LongitudeDegrees>
            </Position>
            <AltitudeMeters>16.3999996185302734375</AltitudeMeters>
            <DistanceMeters>NAN</DistanceMeters>
          </Trackpoint>
          <Trackpoint>
            <Time>2022-07-13T09:13:56.000Z</Time>
            <Position>
              <LatitudeDegrees>43.41111109592020511627197265625</LatitudeDegrees>
              <LongitudeDegrees>-3.4297264181077480316162109375</LongitudeDegrees>
            </Position>
            <AltitudeMeters>16.6000003814697265625</AltitudeMeters>
            <DistanceMeters>NAN</DistanceMeters>
          </Trackpoint>
          <Trackpoint>
            <Time>2022-07-13T09:14:05.000Z</Time>
            <Position>
              <LatitudeDegrees>43.41125861741602420806884765625</LatitudeDegrees>
              <LongitudeDegrees>-3.43014023266732692718505859375</LongitudeDegrees>
            </Position>
            <AltitudeMeters>16.6000003814697265625</AltitudeMeters>
            <DistanceMeters>NAN</DistanceMeters>
          </Trackpoint>
          <Trackpoint>
            <Time>2022-07-13T09:14:13.000Z</Time>
            <Position>
              <LatitudeDegrees>43.4113820828497409820556640625</LatitudeDegrees>
              <LongitudeDegrees>-3.43049059621989727020263671875</LongitudeDegrees>
            </Position>
            <AltitudeMeters>16.3999996185302734375</AltitudeMeters>
            <DistanceMeters>NAN</DistanceMeters>
          </Trackpoint>
          <Trackpoint>
            <Time>2022-07-13T09:14:14.000Z</Time>
            <Position>
              <LatitudeDegrees>43.4114052169024944305419921875</LatitudeDegrees>
              <LongitudeDegrees>-3.43053937889635562896728515625</LongitudeDegrees>
            </Position>
            <AltitudeMeters>16.3999996185302734375</AltitudeMeters>
            <DistanceMeters>NAN</DistanceMeters>
          </Trackpoint>
          <Trackpoint>
            <Time>2022-07-13T09:14:20.000Z</Time>
            <Position>
              <LatitudeDegrees>43.4114957414567470550537109375</LatitudeDegrees>
              <LongitudeDegrees>-3.43077993951737880706787109375</LongitudeDegrees>
            </Position>
            <AltitudeMeters>16.6000003814697265625</AltitudeMeters>
            <DistanceMeters>NAN</DistanceMeters>
          </Trackpoint>
          <Trackpoint>
            <Time>2022-07-13T09:14:22.000Z</Time>
            <Position>
              <LatitudeDegrees>43.41151510365307331085205078125</LatitudeDegrees>
              <LongitudeDegrees>-3.4308489225804805755615234375</LongitudeDegrees>
            </Position>
            <AltitudeMeters>16.3999996185302734375</AltitudeMeters>
            <DistanceMeters>NAN</DistanceMeters>
          </Trackpoint>
          <Trackpoint>
            <Time>2022-07-13T09:14:25.000Z</Time>
            <Position>
              <LatitudeDegrees>43.41157025657594203948974609375</LatitudeDegrees>
              <LongitudeDegrees>-3.43097054399549961090087890625</LongitudeDegrees>
            </Position>
            <AltitudeMeters>16.6000003814697265625</AltitudeMeters>
            <DistanceMeters>NAN</DistanceMeters>
          </Trackpoint>
          <Trackpoint>
            <Time>2022-07-13T09:14:28.000Z</Time>
            <Position>
              <LatitudeDegrees>43.41162599623203277587890625</LatitudeDegrees>
              <LongitudeDegrees>-3.43107749707996845245361328125</LongitudeDegrees>
            </Position>
            <AltitudeMeters>16.6000003814697265625</AltitudeMeters>
            <DistanceMeters>NAN</DistanceMeters>
          </Trackpoint>
          <Trackpoint>
            <Time>2022-07-13T09:14:29.000Z</Time>
            <Position>
              <LatitudeDegrees>43.41164703480899333953857421875</LatitudeDegrees>
              <LongitudeDegrees>-3.43110968358814716339111328125</LongitudeDegrees>
            </Position>
            <AltitudeMeters>16.6000003814697265625</AltitudeMeters>
            <DistanceMeters>NAN</DistanceMeters>
          </Trackpoint>
          <Trackpoint>
            <Time>2022-07-13T09:14:38.000Z</Time>
            <Position>
              <LatitudeDegrees>43.41182657517492771148681640625</LatitudeDegrees>
              <LongitudeDegrees>-3.431466333568096160888671875</LongitudeDegrees>
            </Position>
            <AltitudeMeters>16.6000003814697265625</AltitudeMeters>
            <DistanceMeters>NAN</DistanceMeters>
          </Trackpoint>
          <Trackpoint>
            <Time>2022-07-13T09:14:42.000Z</Time>
            <Position>
              <LatitudeDegrees>43.411902599036693572998046875</LatitudeDegrees>
              <LongitudeDegrees>-3.43163472600281238555908203125</LongitudeDegrees>
            </Position>
            <AltitudeMeters>16.799999237060546875</AltitudeMeters>
            <DistanceMeters>NAN</DistanceMeters>
          </Trackpoint>
          <Trackpoint>
            <Time>2022-07-13T09:14:48.000Z</Time>
            <Position>
              <LatitudeDegrees>43.4120281599462032318115234375</LatitudeDegrees>
              <LongitudeDegrees>-3.43188199214637279510498046875</LongitudeDegrees>
            </Position>
            <AltitudeMeters>16.6000003814697265625</AltitudeMeters>
            <DistanceMeters>NAN</DistanceMeters>
          </Trackpoint>
          <Trackpoint>
            <Time>2022-07-13T09:14:57.000Z</Time>
            <Position>
              <LatitudeDegrees>43.41221272945404052734375</LatitudeDegrees>
              <LongitudeDegrees>-3.43226437456905841827392578125</LongitudeDegrees>
            </Position>
            <AltitudeMeters>17</AltitudeMeters>
            <DistanceMeters>NAN</DistanceMeters>
          </Trackpoint>
          <Trackpoint>
            <Time>2022-07-13T09:15:01.000Z</Time>
            <Position>
              <LatitudeDegrees>43.4123024158179759979248046875</LatitudeDegrees>
              <LongitudeDegrees>-3.43242899514734745025634765625</LongitudeDegrees>
            </Position>
            <AltitudeMeters>17.3999996185302734375</AltitudeMeters>
            <DistanceMeters>NAN</DistanceMeters>
          </Trackpoint>
          <Trackpoint>
            <Time>2022-07-13T09:15:02.000Z</Time>
            <Position>
              <LatitudeDegrees>43.41232680715620517730712890625</LatitudeDegrees>
              <LongitudeDegrees>-3.43247241340577602386474609375</LongitudeDegrees>
            </Position>
            <AltitudeMeters>17.200000762939453125</AltitudeMeters>
            <DistanceMeters>NAN</DistanceMeters>
          </Trackpoint>
          <Trackpoint>
            <Time>2022-07-13T09:15:04.000Z</Time>
            <Position>
              <LatitudeDegrees>43.4123711474239826202392578125</LatitudeDegrees>
              <LongitudeDegrees>-3.4325792826712131500244140625</LongitudeDegrees>
            </Position>
            <AltitudeMeters>17.200000762939453125</AltitudeMeters>
            <DistanceMeters>NAN</DistanceMeters>
          </Trackpoint>
          <Trackpoint>
            <Time>2022-07-13T09:15:05.000Z</Time>
            <Position>
              <LatitudeDegrees>43.41238833032548427581787109375</LatitudeDegrees>
              <LongitudeDegrees>-3.43262462876737117767333984375</LongitudeDegrees>
            </Position>
            <AltitudeMeters>17.200000762939453125</AltitudeMeters>
            <DistanceMeters>NAN</DistanceMeters>
          </Trackpoint>
          <Trackpoint>
            <Time>2022-07-13T09:15:13.000Z</Time>
            <Position>
              <LatitudeDegrees>43.4125629253685474395751953125</LatitudeDegrees>
              <LongitudeDegrees>-3.43291330151259899139404296875</LongitudeDegrees>
            </Position>
            <AltitudeMeters>16.799999237060546875</AltitudeMeters>
            <DistanceMeters>NAN</DistanceMeters>
          </Trackpoint>
          <Trackpoint>
            <Time>2022-07-13T09:15:22.000Z</Time>
            <Position>
              <LatitudeDegrees>43.4127865545451641082763671875</LatitudeDegrees>
              <LongitudeDegrees>-3.43322091735899448394775390625</LongitudeDegrees>
            </Position>
            <AltitudeMeters>17.6000003814697265625</AltitudeMeters>
            <DistanceMeters>NAN</DistanceMeters>
          </Trackpoint>
          <Trackpoint>
            <Time>2022-07-13T09:15:31.000Z</Time>
            <Position>
              <LatitudeDegrees>43.41299937106668949127197265625</LatitudeDegrees>
              <LongitudeDegrees>-3.4334855340421199798583984375</LongitudeDegrees>
            </Position>
            <AltitudeMeters>17.3999996185302734375</AltitudeMeters>
            <DistanceMeters>NAN</DistanceMeters>
          </Trackpoint>
          <Trackpoint>
            <Time>2022-07-13T09:15:32.000Z</Time>
            <Position>
              <LatitudeDegrees>43.413019068539142608642578125</LatitudeDegrees>
              <LongitudeDegrees>-3.4335096739232540130615234375</LongitudeDegrees>
            </Position>
            <AltitudeMeters>17.3999996185302734375</AltitudeMeters>
            <DistanceMeters>NAN</DistanceMeters>
          </Trackpoint>
          <Trackpoint>
            <Time>2022-07-13T09:15:38.000Z</Time>
            <Position>
              <LatitudeDegrees>43.41313750483095645904541015625</LatitudeDegrees>
              <LongitudeDegrees>-3.43368845991790294647216796875</LongitudeDegrees>
            </Position>
            <AltitudeMeters>17.799999237060546875</AltitudeMeters>
            <DistanceMeters>NAN</DistanceMeters>
          </Trackpoint>
          <Trackpoint>
            <Time>2022-07-13T09:15:40.000Z</Time>
            <Position>
              <LatitudeDegrees>43.41319240629673004150390625</LatitudeDegrees>
              <LongitudeDegrees>-3.4337591193616390228271484375</LongitudeDegrees>
            </Position>
            <AltitudeMeters>17.799999237060546875</AltitudeMeters>
            <DistanceMeters>NAN</DistanceMeters>
          </Trackpoint>
          <Trackpoint>
            <Time>2022-07-13T09:15:48.000Z</Time>
            <Position>
              <LatitudeDegrees>43.41336884535849094390869140625</LatitudeDegrees>
              <LongitudeDegrees>-3.43401099555194377899169921875</LongitudeDegrees>
            </Position>
            <AltitudeMeters>17.6000003814697265625</AltitudeMeters>
            <DistanceMeters>NAN</DistanceMeters>
          </Trackpoint>
          <Trackpoint>
            <Time>2022-07-13T09:15:57.000Z</Time>
            <Position>
              <LatitudeDegrees>43.41360907070338726043701171875</LatitudeDegrees>
              <LongitudeDegrees>-3.43431743793189525604248046875</LongitudeDegrees>
            </Position>
            <AltitudeMeters>18.200000762939453125</AltitudeMeters>
            <DistanceMeters>NAN</DistanceMeters>
          </Trackpoint>
          <Trackpoint>
            <Time>2022-07-13T09:16:05.000Z</Time>
            <Position>
              <LatitudeDegrees>43.41380772180855274200439453125</LatitudeDegrees>
              <LongitudeDegrees>-3.43458808958530426025390625</LongitudeDegrees>
            </Position>
            <AltitudeMeters>17.6000003814697265625</AltitudeMeters>
            <DistanceMeters>NAN</DistanceMeters>
          </Trackpoint>
          <Trackpoint>
            <Time>2022-07-13T09:16:17.000Z</Time>
            <Position>
              <LatitudeDegrees>43.41414869762957096099853515625</LatitudeDegrees>
              <LongitudeDegrees>-3.4350033290684223175048828125</LongitudeDegrees>
            </Position>
            <AltitudeMeters>18</AltitudeMeters>
            <DistanceMeters>NAN</DistanceMeters>
          </Trackpoint>
          <Trackpoint>
            <Time>2022-07-13T09:16:23.000Z</Time>
            <Position>
              <LatitudeDegrees>43.414317257702350616455078125</LatitudeDegrees>
              <LongitudeDegrees>-3.43522888608276844024658203125</LongitudeDegrees>
            </Position>
            <AltitudeMeters>18</AltitudeMeters>
            <DistanceMeters>NAN</DistanceMeters>
          </Trackpoint>
          <Trackpoint>
            <Time>2022-07-13T09:16:29.000Z</Time>
            <Position>
              <LatitudeDegrees>43.4144696407020092010498046875</LatitudeDegrees>
              <LongitudeDegrees>-3.4354294650256633758544921875</LongitudeDegrees>
            </Position>
            <AltitudeMeters>18.200000762939453125</AltitudeMeters>
            <DistanceMeters>NAN</DistanceMeters>
          </Trackpoint>
          <Trackpoint>
            <Time>2022-07-13T09:16:38.000Z</Time>
            <Position>
              <LatitudeDegrees>43.41469201259315013885498046875</LatitudeDegrees>
              <LongitudeDegrees>-3.4356879629194736480712890625</LongitudeDegrees>
            </Position>
            <AltitudeMeters>18</AltitudeMeters>
            <DistanceMeters>NAN</DistanceMeters>
          </Trackpoint>
          <Trackpoint>
            <Time>2022-07-13T09:16:40.000Z</Time>
            <Position>
              <LatitudeDegrees>43.41473476029932498931884765625</LatitudeDegrees>
              <LongitudeDegrees>-3.4356584586203098297119140625</LongitudeDegrees>
            </Position>
            <AltitudeMeters>18</AltitudeMeters>
            <DistanceMeters>NAN</DistanceMeters>
          </Trackpoint>
          <Trackpoint>
            <Time>2022-07-13T09:16:41.000Z</Time>
            <Position>
              <LatitudeDegrees>43.4147475846111774444580078125</LatitudeDegrees>
              <LongitudeDegrees>-3.435630463063716888427734375</LongitudeDegrees>
            </Position>
            <AltitudeMeters>18</AltitudeMeters>
            <DistanceMeters>NAN</DistanceMeters>
          </Trackpoint>
          <Trackpoint>
            <Time>2022-07-13T09:16:42.000Z</Time>
            <Position>
              <LatitudeDegrees>43.414754457771778106689453125</LatitudeDegrees>
              <LongitudeDegrees>-3.43560154549777507781982421875</LongitudeDegrees>
            </Position>
            <AltitudeMeters>18</AltitudeMeters>
            <DistanceMeters>NAN</DistanceMeters>
          </Trackpoint>
          <Trackpoint>
            <Time>2022-07-13T09:16:45.000Z</Time>
            <Position>
              <LatitudeDegrees>43.4147526137530803680419921875</LatitudeDegrees>
              <LongitudeDegrees>-3.4355538524687290191650390625</LongitudeDegrees>
            </Position>
            <AltitudeMeters>18</AltitudeMeters>
            <DistanceMeters>NAN</DistanceMeters>
          </Trackpoint>
          <Trackpoint>
            <Time>2022-07-13T09:16:50.000Z</Time>
            <Position>
              <LatitudeDegrees>43.41472956351935863494873046875</LatitudeDegrees>
              <LongitudeDegrees>-3.43553784303367137908935546875</LongitudeDegrees>
            </Position>
            <AltitudeMeters>17.3999996185302734375</AltitudeMeters>
            <DistanceMeters>NAN</DistanceMeters>
          </Trackpoint>
          <Trackpoint>
            <Time>2022-07-13T09:19:20.000Z</Time>
            <Position>
              <LatitudeDegrees>43.4147594869136810302734375</LatitudeDegrees>
              <LongitudeDegrees>-3.43563574366271495819091796875</LongitudeDegrees>
            </Position>
            <AltitudeMeters>17</AltitudeMeters>
            <DistanceMeters>NAN</DistanceMeters>
          </Trackpoint>
          <Trackpoint>
            <Time>2022-07-13T09:19:22.000Z</Time>
            <Position>
              <LatitudeDegrees>43.4147599898278713226318359375</LatitudeDegrees>
              <LongitudeDegrees>-3.43569106422364711761474609375</LongitudeDegrees>
            </Position>
            <AltitudeMeters>17</AltitudeMeters>
            <DistanceMeters>NAN</DistanceMeters>
          </Trackpoint>
          <Trackpoint>
            <Time>2022-07-13T09:19:23.000Z</Time>
            <Position>
              <LatitudeDegrees>43.41475990600883960723876953125</LatitudeDegrees>
              <LongitudeDegrees>-3.43572459183633327484130859375</LongitudeDegrees>
            </Position>
            <AltitudeMeters>16.200000762939453125</AltitudeMeters>
            <DistanceMeters>NAN</DistanceMeters>
          </Trackpoint>
          <Trackpoint>
            <Time>2022-07-13T09:19:27.000Z</Time>
            <Position>
              <LatitudeDegrees>43.4148132987320423126220703125</LatitudeDegrees>
              <LongitudeDegrees>-3.43584629707038402557373046875</LongitudeDegrees>
            </Position>
            <AltitudeMeters>15.3999996185302734375</AltitudeMeters>
            <DistanceMeters>NAN</DistanceMeters>
          </Trackpoint>
          <Trackpoint>
            <Time>2022-07-13T09:19:31.000Z</Time>
            <Position>
              <LatitudeDegrees>43.4149041585624217987060546875</LatitudeDegrees>
              <LongitudeDegrees>-3.43594352714717388153076171875</LongitudeDegrees>
            </Position>
            <AltitudeMeters>15.3999996185302734375</AltitudeMeters>
            <DistanceMeters>NAN</DistanceMeters>
          </Trackpoint>
          <Trackpoint>
            <Time>2022-07-13T09:19:33.000Z</Time>
            <Position>
              <LatitudeDegrees>43.41494950465857982635498046875</LatitudeDegrees>
              <LongitudeDegrees>-3.4359997697174549102783203125</LongitudeDegrees>
            </Position>
            <AltitudeMeters>15.3999996185302734375</AltitudeMeters>
            <DistanceMeters>NAN</DistanceMeters>
          </Trackpoint>
          <Trackpoint>
            <Time>2022-07-13T09:19:38.000Z</Time>
            <Position>
              <LatitudeDegrees>43.41509216465055942535400390625</LatitudeDegrees>
              <LongitudeDegrees>-3.4361764602363109588623046875</LongitudeDegrees>
            </Position>
            <AltitudeMeters>15.3999996185302734375</AltitudeMeters>
            <DistanceMeters>NAN</DistanceMeters>
          </Trackpoint>
          <Trackpoint>
            <Time>2022-07-13T09:19:40.000Z</Time>
            <Position>
              <LatitudeDegrees>43.41514371335506439208984375</LatitudeDegrees>
              <LongitudeDegrees>-3.4362378157675266265869140625</LongitudeDegrees>
            </Position>
            <AltitudeMeters>15.3999996185302734375</AltitudeMeters>
            <DistanceMeters>NAN</DistanceMeters>
          </Trackpoint>
          <Trackpoint>
            <Time>2022-07-13T09:19:49.000Z</Time>
            <Position>
              <LatitudeDegrees>43.415382094681262969970703125</LatitudeDegrees>
              <LongitudeDegrees>-3.43654920347034931182861328125</LongitudeDegrees>
            </Position>
            <AltitudeMeters>15.80000019073486328125</AltitudeMeters>
            <DistanceMeters>NAN</DistanceMeters>
          </Trackpoint>
          <Trackpoint>
            <Time>2022-07-13T09:19:52.000Z</Time>
            <Position>
              <LatitudeDegrees>43.41546356678009033203125</LatitudeDegrees>
              <LongitudeDegrees>-3.43665112741291522979736328125</LongitudeDegrees>
            </Position>
            <AltitudeMeters>16</AltitudeMeters>
            <DistanceMeters>NAN</DistanceMeters>
          </Trackpoint>
          <Trackpoint>
            <Time>2022-07-13T09:19:57.000Z</Time>
            <Position>
              <LatitudeDegrees>43.415589965879917144775390625</LatitudeDegrees>
              <LongitudeDegrees>-3.43682513572275638580322265625</LongitudeDegrees>
            </Position>
            <AltitudeMeters>15.80000019073486328125</AltitudeMeters>
            <DistanceMeters>NAN</DistanceMeters>
          </Trackpoint>
          <Trackpoint>
            <Time>2022-07-13T09:20:01.000Z</Time>
            <Position>
              <LatitudeDegrees>43.41569398529827594757080078125</LatitudeDegrees>
              <LongitudeDegrees>-3.436973579227924346923828125</LongitudeDegrees>
            </Position>
            <AltitudeMeters>15.80000019073486328125</AltitudeMeters>
            <DistanceMeters>NAN</DistanceMeters>
          </Trackpoint>
          <Trackpoint>
            <Time>2022-07-13T09:20:10.000Z</Time>
            <Position>
              <LatitudeDegrees>43.41592901386320590972900390625</LatitudeDegrees>
              <LongitudeDegrees>-3.437298126518726348876953125</LongitudeDegrees>
            </Position>
            <AltitudeMeters>15.80000019073486328125</AltitudeMeters>
            <DistanceMeters>NAN</DistanceMeters>
          </Trackpoint>
          <Trackpoint>
            <Time>2022-07-13T09:20:21.000Z</Time>
            <Position>
              <LatitudeDegrees>43.41622606851160526275634765625</LatitudeDegrees>
              <LongitudeDegrees>-3.43769148923456668853759765625</LongitudeDegrees>
            </Position>
            <AltitudeMeters>16</AltitudeMeters>
            <DistanceMeters>NAN</DistanceMeters>
          </Trackpoint>
          <Trackpoint>
            <Time>2022-07-13T09:20:24.000Z</Time>
            <Position>
              <LatitudeDegrees>43.41631642542779445648193359375</LatitudeDegrees>
              <LongitudeDegrees>-3.43779844231903553009033203125</LongitudeDegrees>
            </Position>
            <AltitudeMeters>16.200000762939453125</AltitudeMeters>
            <DistanceMeters>NAN</DistanceMeters>
          </Trackpoint>
          <Trackpoint>
            <Time>2022-07-13T09:20:27.000Z</Time>
            <Position>
              <LatitudeDegrees>43.416397310793399810791015625</LatitudeDegrees>
              <LongitudeDegrees>-3.43791000545024871826171875</LongitudeDegrees>
            </Position>
            <AltitudeMeters>16.200000762939453125</AltitudeMeters>
            <DistanceMeters>NAN</DistanceMeters>
          </Trackpoint>
          <Trackpoint>
            <Time>2022-07-13T09:20:29.000Z</Time>
            <Position>
              <LatitudeDegrees>43.416448943316936492919921875</LatitudeDegrees>
              <LongitudeDegrees>-3.43798535875976085662841796875</LongitudeDegrees>
            </Position>
            <AltitudeMeters>16</AltitudeMeters>
            <DistanceMeters>NAN</DistanceMeters>
          </Trackpoint>
          <Trackpoint>
            <Time>2022-07-13T09:20:32.000Z</Time>
            <Position>
              <LatitudeDegrees>43.416531421244144439697265625</LatitudeDegrees>
              <LongitudeDegrees>-3.4380932338535785675048828125</LongitudeDegrees>
            </Position>
            <AltitudeMeters>16</AltitudeMeters>
            <DistanceMeters>NAN</DistanceMeters>
          </Trackpoint>
          <Trackpoint>
            <Time>2022-07-13T09:20:33.000Z</Time>
            <Position>
              <LatitudeDegrees>43.41656151227653026580810546875</LatitudeDegrees>
              <LongitudeDegrees>-3.4381207264959812164306640625</LongitudeDegrees>
            </Position>
            <AltitudeMeters>16</AltitudeMeters>
            <DistanceMeters>NAN</DistanceMeters>
          </Trackpoint>
          <Trackpoint>
            <Time>2022-07-13T09:20:41.000Z</Time>
            <Position>
              <LatitudeDegrees>43.41678480617702007293701171875</LatitudeDegrees>
              <LongitudeDegrees>-3.4384134225547313690185546875</LongitudeDegrees>
            </Position>
            <AltitudeMeters>16</AltitudeMeters>
            <DistanceMeters>NAN</DistanceMeters>
          </Trackpoint>
          <Trackpoint>
            <Time>2022-07-13T09:20:42.000Z</Time>
            <Position>
              <LatitudeDegrees>43.416813053190708160400390625</LatitudeDegrees>
              <LongitudeDegrees>-3.43844787217676639556884765625</LongitudeDegrees>
            </Position>
            <AltitudeMeters>16</AltitudeMeters>
            <DistanceMeters>NAN</DistanceMeters>
          </Trackpoint>
          <Trackpoint>
            <Time>2022-07-13T09:20:51.000Z</Time>
            <Position>
              <LatitudeDegrees>43.4170754067599773406982421875</LatitudeDegrees>
              <LongitudeDegrees>-3.43869463540613651275634765625</LongitudeDegrees>
            </Position>
            <AltitudeMeters>16.3999996185302734375</AltitudeMeters>
            <DistanceMeters>NAN</DistanceMeters>
          </Trackpoint>
          <Trackpoint>
            <Time>2022-07-13T09:20:57.000Z</Time>
            <Position>
              <LatitudeDegrees>43.41723382472991943359375</LatitudeDegrees>
              <LongitudeDegrees>-3.438851796090602874755859375</LongitudeDegrees>
            </Position>
            <AltitudeMeters>17</AltitudeMeters>
            <DistanceMeters>NAN</DistanceMeters>
          </Trackpoint>
          <Trackpoint>
            <Time>2022-07-13T09:20:58.000Z</Time>
            <Position>
              <LatitudeDegrees>43.4172588028013706207275390625</LatitudeDegrees>
              <LongitudeDegrees>-3.43888205476105213165283203125</LongitudeDegrees>
            </Position>
            <AltitudeMeters>17</AltitudeMeters>
            <DistanceMeters>NAN</DistanceMeters>
          </Trackpoint>
          <Trackpoint>
            <Time>2022-07-13T09:20:59.000Z</Time>
            <Position>
              <LatitudeDegrees>43.417285121977329254150390625</LatitudeDegrees>
              <LongitudeDegrees>-3.4389153309166431427001953125</LongitudeDegrees>
            </Position>
            <AltitudeMeters>17.200000762939453125</AltitudeMeters>
            <DistanceMeters>NAN</DistanceMeters>
          </Trackpoint>
          <Trackpoint>
            <Time>2022-07-13T09:21:03.000Z</Time>
            <Position>
              <LatitudeDegrees>43.41738880611956119537353515625</LatitudeDegrees>
              <LongitudeDegrees>-3.43902689404785633087158203125</LongitudeDegrees>
            </Position>
            <AltitudeMeters>17.6000003814697265625</AltitudeMeters>
            <DistanceMeters>NAN</DistanceMeters>
          </Trackpoint>
          <Trackpoint>
            <Time>2022-07-13T09:21:06.000Z</Time>
            <Position>
              <LatitudeDegrees>43.41743993572890758514404296875</LatitudeDegrees>
              <LongitudeDegrees>-3.4391081146895885467529296875</LongitudeDegrees>
            </Position>
            <AltitudeMeters>17.3999996185302734375</AltitudeMeters>
            <DistanceMeters>NAN</DistanceMeters>
          </Trackpoint>
          <Trackpoint>
            <Time>2022-07-13T09:21:08.000Z</Time>
            <Position>
              <LatitudeDegrees>43.417450748383998870849609375</LatitudeDegrees>
              <LongitudeDegrees>-3.43914189375936985015869140625</LongitudeDegrees>
            </Position>
            <AltitudeMeters>17.3999996185302734375</AltitudeMeters>
            <DistanceMeters>NAN</DistanceMeters>
          </Trackpoint>
          <Trackpoint>
            <Time>2022-07-13T09:21:10.000Z</Time>
            <Position>
              <LatitudeDegrees>43.41749601066112518310546875</LatitudeDegrees>
              <LongitudeDegrees>-3.43917734920978546142578125</LongitudeDegrees>
            </Position>
            <AltitudeMeters>17.3999996185302734375</AltitudeMeters>
            <DistanceMeters>NAN</DistanceMeters>
          </Trackpoint>
          <Trackpoint>
            <Time>2022-07-13T09:21:13.000Z</Time>
            <Position>
              <LatitudeDegrees>43.41758796013891696929931640625</LatitudeDegrees>
              <LongitudeDegrees>-3.439245410263538360595703125</LongitudeDegrees>
            </Position>
            <AltitudeMeters>17.6000003814697265625</AltitudeMeters>
            <DistanceMeters>NAN</DistanceMeters>
          </Trackpoint>
          <Trackpoint>
            <Time>2022-07-13T09:21:18.000Z</Time>
            <Position>
              <LatitudeDegrees>43.41776045970618724822998046875</LatitudeDegrees>
              <LongitudeDegrees>-3.4394055046141147613525390625</LongitudeDegrees>
            </Position>
            <AltitudeMeters>17.200000762939453125</AltitudeMeters>
            <DistanceMeters>NAN</DistanceMeters>
          </Trackpoint>
          <Trackpoint>
            <Time>2022-07-13T09:21:23.000Z</Time>
            <Position>
              <LatitudeDegrees>43.4179377369582653045654296875</LatitudeDegrees>
              <LongitudeDegrees>-3.43957808800041675567626953125</LongitudeDegrees>
            </Position>
            <AltitudeMeters>16.3999996185302734375</AltitudeMeters>
            <DistanceMeters>NAN</DistanceMeters>
          </Trackpoint>
          <Trackpoint>
            <Time>2022-07-13T09:21:25.000Z</Time>
            <Position>
              <LatitudeDegrees>43.41800697147846221923828125</LatitudeDegrees>
              <LongitudeDegrees>-3.4396485798060894012451171875</LongitudeDegrees>
            </Position>
            <AltitudeMeters>16.3999996185302734375</AltitudeMeters>
            <DistanceMeters>NAN</DistanceMeters>
          </Trackpoint>
          <Trackpoint>
            <Time>2022-07-13T09:21:36.000Z</Time>
            <Position>
              <LatitudeDegrees>43.41839211992919445037841796875</LatitudeDegrees>
              <LongitudeDegrees>-3.44001352787017822265625</LongitudeDegrees>
            </Position>
            <AltitudeMeters>16.799999237060546875</AltitudeMeters>
            <DistanceMeters>NAN</DistanceMeters>
          </Trackpoint>
          <Trackpoint>
            <Time>2022-07-13T09:21:38.000Z</Time>
            <Position>
              <LatitudeDegrees>43.41845800168812274932861328125</LatitudeDegrees>
              <LongitudeDegrees>-3.44008066691458225250244140625</LongitudeDegrees>
            </Position>
            <AltitudeMeters>16.799999237060546875</AltitudeMeters>
            <DistanceMeters>NAN</DistanceMeters>
          </Trackpoint>
          <Trackpoint>
            <Time>2022-07-13T09:21:40.000Z</Time>
            <Position>
              <LatitudeDegrees>43.418531008064746856689453125</LatitudeDegrees>
              <LongitudeDegrees>-3.4401558525860309600830078125</LongitudeDegrees>
            </Position>
            <AltitudeMeters>17</AltitudeMeters>
            <DistanceMeters>NAN</DistanceMeters>
          </Trackpoint>
          <Trackpoint>
            <Time>2022-07-13T09:21:44.000Z</Time>
            <Position>
              <LatitudeDegrees>43.4186755120754241943359375</LatitudeDegrees>
              <LongitudeDegrees>-3.4402902983129024505615234375</LongitudeDegrees>
            </Position>
            <AltitudeMeters>17.200000762939453125</AltitudeMeters>
            <DistanceMeters>NAN</DistanceMeters>
          </Trackpoint>
          <Trackpoint>
            <Time>2022-07-13T09:21:46.000Z</Time>
            <Position>
              <LatitudeDegrees>43.418746255338191986083984375</LatitudeDegrees>
              <LongitudeDegrees>-3.44035961665213108062744140625</LongitudeDegrees>
            </Position>
            <AltitudeMeters>17.200000762939453125</AltitudeMeters>
            <DistanceMeters>NAN</DistanceMeters>
          </Trackpoint>
          <Trackpoint>
            <Time>2022-07-13T09:21:57.000Z</Time>
            <Position>
              <LatitudeDegrees>43.419106341898441314697265625</LatitudeDegrees>
              <LongitudeDegrees>-3.44073244370520114898681640625</LongitudeDegrees>
            </Position>
            <AltitudeMeters>17.3999996185302734375</AltitudeMeters>
            <DistanceMeters>NAN</DistanceMeters>
          </Trackpoint>
          <Trackpoint>
            <Time>2022-07-13T09:22:05.000Z</Time>
            <Position>
              <LatitudeDegrees>43.4193774126470088958740234375</LatitudeDegrees>
              <LongitudeDegrees>-3.44100737012922763824462890625</LongitudeDegrees>
            </Position>
            <AltitudeMeters>17.200000762939453125</AltitudeMeters>
            <DistanceMeters>NAN</DistanceMeters>
          </Trackpoint>
          <Trackpoint>
            <Time>2022-07-13T09:22:15.000Z</Time>
            <Position>
              <LatitudeDegrees>43.4197193942964076995849609375</LatitudeDegrees>
              <LongitudeDegrees>-3.44135798513889312744140625</LongitudeDegrees>
            </Position>
            <AltitudeMeters>17.3999996185302734375</AltitudeMeters>
            <DistanceMeters>NAN</DistanceMeters>
          </Trackpoint>
          <Trackpoint>
            <Time>2022-07-13T09:22:19.000Z</Time>
            <Position>
              <LatitudeDegrees>43.41985191218554973602294921875</LatitudeDegrees>
              <LongitudeDegrees>-3.4414993040263652801513671875</LongitudeDegrees>
            </Position>
            <AltitudeMeters>17.6000003814697265625</AltitudeMeters>
            <DistanceMeters>NAN</DistanceMeters>
          </Trackpoint>
          <Trackpoint>
            <Time>2022-07-13T09:22:27.000Z</Time>
            <Position>
              <LatitudeDegrees>43.42013672925531864166259765625</LatitudeDegrees>
              <LongitudeDegrees>-3.44176811166107654571533203125</LongitudeDegrees>
            </Position>
            <AltitudeMeters>17.799999237060546875</AltitudeMeters>
            <DistanceMeters>NAN</DistanceMeters>
          </Trackpoint>
          <Trackpoint>
            <Time>2022-07-13T09:22:35.000Z</Time>
            <Position>
              <LatitudeDegrees>43.42040897347033023834228515625</LatitudeDegrees>
              <LongitudeDegrees>-3.44202275387942790985107421875</LongitudeDegrees>
            </Position>
            <AltitudeMeters>18</AltitudeMeters>
            <DistanceMeters>NAN</DistanceMeters>
          </Trackpoint>
          <Trackpoint>
            <Time>2022-07-13T09:22:37.000Z</Time>
            <Position>
              <LatitudeDegrees>43.4204650484025478363037109375</LatitudeDegrees>
              <LongitudeDegrees>-3.4420893900096416473388671875</LongitudeDegrees>
            </Position>
            <AltitudeMeters>18</AltitudeMeters>
            <DistanceMeters>NAN</DistanceMeters>
          </Trackpoint>
          <Trackpoint>
            <Time>2022-07-13T09:22:47.000Z</Time>
            <Position>
              <LatitudeDegrees>43.420776017010211944580078125</LatitudeDegrees>
              <LongitudeDegrees>-3.4424020349979400634765625</LongitudeDegrees>
            </Position>
            <AltitudeMeters>17.799999237060546875</AltitudeMeters>
            <DistanceMeters>NAN</DistanceMeters>
          </Trackpoint>
          <Trackpoint>
            <Time>2022-07-13T09:22:51.000Z</Time>
            <Position>
              <LatitudeDegrees>43.4209072776138782501220703125</LatitudeDegrees>
              <LongitudeDegrees>-3.44252130948007106781005859375</LongitudeDegrees>
            </Position>
            <AltitudeMeters>18</AltitudeMeters>
            <DistanceMeters>NAN</DistanceMeters>
          </Trackpoint>
          <Trackpoint>
            <Time>2022-07-13T09:22:56.000Z</Time>
            <Position>
              <LatitudeDegrees>43.4210775978863239288330078125</LatitudeDegrees>
              <LongitudeDegrees>-3.4426777996122837066650390625</LongitudeDegrees>
            </Position>
            <AltitudeMeters>17.799999237060546875</AltitudeMeters>
            <DistanceMeters>NAN</DistanceMeters>
          </Trackpoint>
          <Trackpoint>
            <Time>2022-07-13T09:23:09.000Z</Time>
            <Position>
              <LatitudeDegrees>43.42151186428964138031005859375</LatitudeDegrees>
              <LongitudeDegrees>-3.44311055727303028106689453125</LongitudeDegrees>
            </Position>
            <AltitudeMeters>17.799999237060546875</AltitudeMeters>
            <DistanceMeters>NAN</DistanceMeters>
          </Trackpoint>
          <Trackpoint>
            <Time>2022-07-13T09:23:16.000Z</Time>
            <Position>
              <LatitudeDegrees>43.42173390090465545654296875</LatitudeDegrees>
              <LongitudeDegrees>-3.4433671273291110992431640625</LongitudeDegrees>
            </Position>
            <AltitudeMeters>18</AltitudeMeters>
            <DistanceMeters>NAN</DistanceMeters>
          </Trackpoint>
          <Trackpoint>
            <Time>2022-07-13T09:23:18.000Z</Time>
            <Position>
              <LatitudeDegrees>43.42179349623620510101318359375</LatitudeDegrees>
              <LongitudeDegrees>-3.443435020744800567626953125</LongitudeDegrees>
            </Position>
            <AltitudeMeters>18.3999996185302734375</AltitudeMeters>
            <DistanceMeters>NAN</DistanceMeters>
          </Trackpoint>
          <Trackpoint>
            <Time>2022-07-13T09:23:26.000Z</Time>
            <Position>
              <LatitudeDegrees>43.4220807440578937530517578125</LatitudeDegrees>
              <LongitudeDegrees>-3.44371740706264972686767578125</LongitudeDegrees>
            </Position>
            <AltitudeMeters>18.6000003814697265625</AltitudeMeters>
            <DistanceMeters>NAN</DistanceMeters>
          </Trackpoint>
          <Trackpoint>
            <Time>2022-07-13T09:23:32.000Z</Time>
            <Position>
              <LatitudeDegrees>43.42227377928793430328369140625</LatitudeDegrees>
              <LongitudeDegrees>-3.4439290501177310943603515625</LongitudeDegrees>
            </Position>
            <AltitudeMeters>18.3999996185302734375</AltitudeMeters>
            <DistanceMeters>NAN</DistanceMeters>
          </Trackpoint>
          <Trackpoint>
            <Time>2022-07-13T09:23:34.000Z</Time>
            <Position>
              <LatitudeDegrees>43.42232977040112018585205078125</LatitudeDegrees>
              <LongitudeDegrees>-3.44401580281555652618408203125</LongitudeDegrees>
            </Position>
            <AltitudeMeters>18.3999996185302734375</AltitudeMeters>
            <DistanceMeters>NAN</DistanceMeters>
          </Trackpoint>
          <Trackpoint>
            <Time>2022-07-13T09:23:41.000Z</Time>
            <Position>
              <LatitudeDegrees>43.4225162677466869354248046875</LatitudeDegrees>
              <LongitudeDegrees>-3.44427228905260562896728515625</LongitudeDegrees>
            </Position>
            <AltitudeMeters>18.3999996185302734375</AltitudeMeters>
            <DistanceMeters>NAN</DistanceMeters>
          </Trackpoint>
          <Trackpoint>
            <Time>2022-07-13T09:23:44.000Z</Time>
            <Position>
              <LatitudeDegrees>43.4225953929126262664794921875</LatitudeDegrees>
              <LongitudeDegrees>-3.4444110095500946044921875</LongitudeDegrees>
            </Position>
            <AltitudeMeters>18.3999996185302734375</AltitudeMeters>
            <DistanceMeters>NAN</DistanceMeters>
          </Trackpoint>
          <Trackpoint>
            <Time>2022-07-13T09:23:47.000Z</Time>
            <Position>
              <LatitudeDegrees>43.422646187245845794677734375</LatitudeDegrees>
              <LongitudeDegrees>-3.4445478022098541259765625</LongitudeDegrees>
            </Position>
            <AltitudeMeters>18.3999996185302734375</AltitudeMeters>
            <DistanceMeters>NAN</DistanceMeters>
          </Trackpoint>
          <Trackpoint>
            <Time>2022-07-13T09:23:49.000Z</Time>
            <Position>
              <LatitudeDegrees>43.4227154217660427093505859375</LatitudeDegrees>
              <LongitudeDegrees>-3.4446287713944911956787109375</LongitudeDegrees>
            </Position>
            <AltitudeMeters>18.3999996185302734375</AltitudeMeters>
            <DistanceMeters>NAN</DistanceMeters>
          </Trackpoint>
          <Trackpoint>
            <Time>2022-07-13T09:23:50.000Z</Time>
            <Position>
              <LatitudeDegrees>43.4227445907890796661376953125</LatitudeDegrees>
              <LongitudeDegrees>-3.44464637339115142822265625</LongitudeDegrees>
            </Position>
            <AltitudeMeters>18.3999996185302734375</AltitudeMeters>
            <DistanceMeters>NAN</DistanceMeters>
          </Trackpoint>
          <Trackpoint>
            <Time>2022-07-13T09:24:02.000Z</Time>
            <Position>
              <LatitudeDegrees>43.423198722302913665771484375</LatitudeDegrees>
              <LongitudeDegrees>-3.44484083354473114013671875</LongitudeDegrees>
            </Position>
            <AltitudeMeters>18.6000003814697265625</AltitudeMeters>
            <DistanceMeters>NAN</DistanceMeters>
          </Trackpoint>
          <Trackpoint>
            <Time>2022-07-13T09:24:10.000Z</Time>
            <Position>
              <LatitudeDegrees>43.42350910417735576629638671875</LatitudeDegrees>
              <LongitudeDegrees>-3.4449657239019870758056640625</LongitudeDegrees>
            </Position>
            <AltitudeMeters>18.799999237060546875</AltitudeMeters>
            <DistanceMeters>NAN</DistanceMeters>
          </Trackpoint>
          <Trackpoint>
            <Time>2022-07-13T09:24:11.000Z</Time>
            <Position>
              <LatitudeDegrees>43.42354581691324710845947265625</LatitudeDegrees>
              <LongitudeDegrees>-3.44498441554605960845947265625</LongitudeDegrees>
            </Position>
            <AltitudeMeters>18.799999237060546875</AltitudeMeters>
            <DistanceMeters>NAN</DistanceMeters>
          </Trackpoint>
          <Trackpoint>
            <Time>2022-07-13T09:24:22.000Z</Time>
            <Position>
              <LatitudeDegrees>43.423956446349620819091796875</LatitudeDegrees>
              <LongitudeDegrees>-3.445171080529689788818359375</LongitudeDegrees>
            </Position>
            <AltitudeMeters>18.799999237060546875</AltitudeMeters>
            <DistanceMeters>NAN</DistanceMeters>
          </Trackpoint>
          <Trackpoint>
            <Time>2022-07-13T09:24:33.000Z</Time>
            <Position>
              <LatitudeDegrees>43.4243874438107013702392578125</LatitudeDegrees>
              <LongitudeDegrees>-3.44535623677074909210205078125</LongitudeDegrees>
            </Position>
            <AltitudeMeters>19.200000762939453125</AltitudeMeters>
            <DistanceMeters>NAN</DistanceMeters>
          </Trackpoint>
          <Trackpoint>
            <Time>2022-07-13T09:24:35.000Z</Time>
            <Position>
              <LatitudeDegrees>43.42446480877697467803955078125</LatitudeDegrees>
              <LongitudeDegrees>-3.44538666307926177978515625</LongitudeDegrees>
            </Position>
            <AltitudeMeters>19.3999996185302734375</AltitudeMeters>
            <DistanceMeters>NAN</DistanceMeters>
          </Trackpoint>
          <Trackpoint>
            <Time>2022-07-13T09:24:45.000Z</Time>
            <Position>
              <LatitudeDegrees>43.42484769411385059356689453125</LatitudeDegrees>
              <LongitudeDegrees>-3.4455544687807559967041015625</LongitudeDegrees>
            </Position>
            <AltitudeMeters>19.799999237060546875</AltitudeMeters>
            <DistanceMeters>NAN</DistanceMeters>
          </Trackpoint>
          <Trackpoint>
            <Time>2022-07-13T09:24:56.000Z</Time>
            <Position>
              <LatitudeDegrees>43.42528237961232662200927734375</LatitudeDegrees>
              <LongitudeDegrees>-3.44574339687824249267578125</LongitudeDegrees>
            </Position>
            <AltitudeMeters>19.799999237060546875</AltitudeMeters>
            <DistanceMeters>NAN</DistanceMeters>
          </Trackpoint>
          <Trackpoint>
            <Time>2022-07-13T09:25:05.000Z</Time>
            <Position>
              <LatitudeDegrees>43.4256189130246639251708984375</LatitudeDegrees>
              <LongitudeDegrees>-3.44589033164083957672119140625</LongitudeDegrees>
            </Position>
            <AltitudeMeters>20.3999996185302734375</AltitudeMeters>
            <DistanceMeters>NAN</DistanceMeters>
          </Trackpoint>
          <Trackpoint>
            <Time>2022-07-13T09:25:07.000Z</Time>
            <Position>
              <LatitudeDegrees>43.425704576075077056884765625</LatitudeDegrees>
              <LongitudeDegrees>-3.44592268578708171844482421875</LongitudeDegrees>
            </Position>
            <AltitudeMeters>20.3999996185302734375</AltitudeMeters>
            <DistanceMeters>NAN</DistanceMeters>
          </Trackpoint>
          <Trackpoint>
            <Time>2022-07-13T09:25:15.000Z</Time>
            <Position>
              <LatitudeDegrees>43.42599718831479549407958984375</LatitudeDegrees>
              <LongitudeDegrees>-3.44604791142046451568603515625</LongitudeDegrees>
            </Position>
            <AltitudeMeters>20.200000762939453125</AltitudeMeters>
            <DistanceMeters>NAN</DistanceMeters>
          </Trackpoint>
          <Trackpoint>
            <Time>2022-07-13T09:25:16.000Z</Time>
            <Position>
              <LatitudeDegrees>43.42604060657322406768798828125</LatitudeDegrees>
              <LongitudeDegrees>-3.446066267788410186767578125</LongitudeDegrees>
            </Position>
            <AltitudeMeters>20</AltitudeMeters>
            <DistanceMeters>NAN</DistanceMeters>
          </Trackpoint>
          <Trackpoint>
            <Time>2022-07-13T09:25:25.000Z</Time>
            <Position>
              <LatitudeDegrees>43.42637940309941768646240234375</LatitudeDegrees>
              <LongitudeDegrees>-3.44622074626386165618896484375</LongitudeDegrees>
            </Position>
            <AltitudeMeters>20.3999996185302734375</AltitudeMeters>
            <DistanceMeters>NAN</DistanceMeters>
          </Trackpoint>
          <Trackpoint>
            <Time>2022-07-13T09:25:35.000Z</Time>
            <Position>
              <LatitudeDegrees>43.42675038613379001617431640625</LatitudeDegrees>
              <LongitudeDegrees>-3.44639173708856105804443359375</LongitudeDegrees>
            </Position>
            <AltitudeMeters>19.799999237060546875</AltitudeMeters>
            <DistanceMeters>NAN</DistanceMeters>
          </Trackpoint>
          <Trackpoint>
            <Time>2022-07-13T09:25:44.000Z</Time>
            <Position>
              <LatitudeDegrees>43.42709404416382312774658203125</LatitudeDegrees>
              <LongitudeDegrees>-3.4465462155640125274658203125</LongitudeDegrees>
            </Position>
            <AltitudeMeters>20.3999996185302734375</AltitudeMeters>
            <DistanceMeters>NAN</DistanceMeters>
          </Trackpoint>
          <Trackpoint>
            <Time>2022-07-13T09:25:47.000Z</Time>
            <Position>
              <LatitudeDegrees>43.427212648093700408935546875</LatitudeDegrees>
              <LongitudeDegrees>-3.4465931542217731475830078125</LongitudeDegrees>
            </Position>
            <AltitudeMeters>20.3999996185302734375</AltitudeMeters>
            <DistanceMeters>NAN</DistanceMeters>
          </Trackpoint>
          <Trackpoint>
            <Time>2022-07-13T09:25:52.000Z</Time>
            <Position>
              <LatitudeDegrees>43.42740132473409175872802734375</LatitudeDegrees>
              <LongitudeDegrees>-3.44668778590857982635498046875</LongitudeDegrees>
            </Position>
            <AltitudeMeters>20.3999996185302734375</AltitudeMeters>
            <DistanceMeters>NAN</DistanceMeters>
          </Trackpoint>
          <Trackpoint>
            <Time>2022-07-13T09:25:57.000Z</Time>
            <Position>
              <LatitudeDegrees>43.427589498460292816162109375</LatitudeDegrees>
              <LongitudeDegrees>-3.44678568653762340545654296875</LongitudeDegrees>
            </Position>
            <AltitudeMeters>20.3999996185302734375</AltitudeMeters>
            <DistanceMeters>NAN</DistanceMeters>
          </Trackpoint>
          <Trackpoint>
            <Time>2022-07-13T09:26:00.000Z</Time>
            <Position>
              <LatitudeDegrees>43.42769787646830081939697265625</LatitudeDegrees>
              <LongitudeDegrees>-3.44685793854296207427978515625</LongitudeDegrees>
            </Position>
            <AltitudeMeters>20.200000762939453125</AltitudeMeters>
            <DistanceMeters>NAN</DistanceMeters>
          </Trackpoint>
          <Trackpoint>
            <Time>2022-07-13T09:26:02.000Z</Time>
            <Position>
              <LatitudeDegrees>43.4277733974158763885498046875</LatitudeDegrees>
              <LongitudeDegrees>-3.44689582474529743194580078125</LongitudeDegrees>
            </Position>
            <AltitudeMeters>20.200000762939453125</AltitudeMeters>
            <DistanceMeters>NAN</DistanceMeters>
          </Trackpoint>
          <Trackpoint>
            <Time>2022-07-13T09:26:04.000Z</Time>
            <Position>
              <LatitudeDegrees>43.42785579152405261993408203125</LatitudeDegrees>
              <LongitudeDegrees>-3.4469242393970489501953125</LongitudeDegrees>
            </Position>
            <AltitudeMeters>20.200000762939453125</AltitudeMeters>
            <DistanceMeters>NAN</DistanceMeters>
          </Trackpoint>
          <Trackpoint>
            <Time>2022-07-13T09:26:13.000Z</Time>
            <Position>
              <LatitudeDegrees>43.428211770951747894287109375</LatitudeDegrees>
              <LongitudeDegrees>-3.44705508090555667877197265625</LongitudeDegrees>
            </Position>
            <AltitudeMeters>20</AltitudeMeters>
            <DistanceMeters>NAN</DistanceMeters>
          </Trackpoint>
          <Trackpoint>
            <Time>2022-07-13T09:26:14.000Z</Time>
            <Position>
              <LatitudeDegrees>43.42825091443955898284912109375</LatitudeDegrees>
              <LongitudeDegrees>-3.44707150943577289581298828125</LongitudeDegrees>
            </Position>
            <AltitudeMeters>20</AltitudeMeters>
            <DistanceMeters>NAN</DistanceMeters>
          </Trackpoint>
          <Trackpoint>
            <Time>2022-07-13T09:26:19.000Z</Time>
            <Position>
              <LatitudeDegrees>43.42845492996275424957275390625</LatitudeDegrees>
              <LongitudeDegrees>-3.44715465791523456573486328125</LongitudeDegrees>
            </Position>
            <AltitudeMeters>20.200000762939453125</AltitudeMeters>
            <DistanceMeters>NAN</DistanceMeters>
          </Trackpoint>
          <Trackpoint>
            <Time>2022-07-13T09:26:22.000Z</Time>
            <Position>
              <LatitudeDegrees>43.42856724746525287628173828125</LatitudeDegrees>
              <LongitudeDegrees>-3.44720696099102497100830078125</LongitudeDegrees>
            </Position>
            <AltitudeMeters>20.200000762939453125</AltitudeMeters>
            <DistanceMeters>NAN</DistanceMeters>
          </Trackpoint>
          <Trackpoint>
            <Time>2022-07-13T09:26:28.000Z</Time>
            <Position>
              <LatitudeDegrees>43.42879573814570903778076171875</LatitudeDegrees>
              <LongitudeDegrees>-3.447303436696529388427734375</LongitudeDegrees>
            </Position>
            <AltitudeMeters>20.3999996185302734375</AltitudeMeters>
            <DistanceMeters>NAN</DistanceMeters>
          </Trackpoint>
          <Trackpoint>
            <Time>2022-07-13T09:26:31.000Z</Time>
            <Position>
              <LatitudeDegrees>43.42890151776373386383056640625</LatitudeDegrees>
              <LongitudeDegrees>-3.44734811224043369293212890625</LongitudeDegrees>
            </Position>
            <AltitudeMeters>20.6000003814697265625</AltitudeMeters>
            <DistanceMeters>NAN</DistanceMeters>
          </Trackpoint>
          <Trackpoint>
            <Time>2022-07-13T09:26:35.000Z</Time>
            <Position>
              <LatitudeDegrees>43.42903487384319305419921875</LatitudeDegrees>
              <LongitudeDegrees>-3.447470404207706451416015625</LongitudeDegrees>
            </Position>
            <AltitudeMeters>20.6000003814697265625</AltitudeMeters>
            <DistanceMeters>NAN</DistanceMeters>
          </Trackpoint>
          <Trackpoint>
            <Time>2022-07-13T09:26:38.000Z</Time>
            <Position>
              <LatitudeDegrees>43.42905021272599697113037109375</LatitudeDegrees>
              <LongitudeDegrees>-3.44762773253023624420166015625</LongitudeDegrees>
            </Position>
            <AltitudeMeters>20.799999237060546875</AltitudeMeters>
            <DistanceMeters>NAN</DistanceMeters>
          </Trackpoint>
          <Trackpoint>
            <Time>2022-07-13T09:26:41.000Z</Time>
            <Position>
              <LatitudeDegrees>43.4290172718465328216552734375</LatitudeDegrees>
              <LongitudeDegrees>-3.4477865695953369140625</LongitudeDegrees>
            </Position>
            <AltitudeMeters>20.799999237060546875</AltitudeMeters>
            <DistanceMeters>NAN</DistanceMeters>
          </Trackpoint>
          <Trackpoint>
            <Time>2022-07-13T09:26:46.000Z</Time>
            <Position>
              <LatitudeDegrees>43.42895449139177799224853515625</LatitudeDegrees>
              <LongitudeDegrees>-3.44806409440934658050537109375</LongitudeDegrees>
            </Position>
            <AltitudeMeters>21.200000762939453125</AltitudeMeters>
            <DistanceMeters>NAN</DistanceMeters>
          </Trackpoint>
          <Trackpoint>
            <Time>2022-07-13T09:26:49.000Z</Time>
            <Position>
              <LatitudeDegrees>43.42890805564820766448974609375</LatitudeDegrees>
              <LongitudeDegrees>-3.4482242725789546966552734375</LongitudeDegrees>
            </Position>
            <AltitudeMeters>20.799999237060546875</AltitudeMeters>
            <DistanceMeters>NAN</DistanceMeters>
          </Trackpoint>
          <Trackpoint>
            <Time>2022-07-13T09:26:53.000Z</Time>
            <Position>
              <LatitudeDegrees>43.428861200809478759765625</LatitudeDegrees>
              <LongitudeDegrees>-3.44840959645807743072509765625</LongitudeDegrees>
            </Position>
            <AltitudeMeters>20.799999237060546875</AltitudeMeters>
            <DistanceMeters>NAN</DistanceMeters>
          </Trackpoint>
          <Trackpoint>
            <Time>2022-07-13T09:26:57.000Z</Time>
            <Position>
              <LatitudeDegrees>43.428901098668575286865234375</LatitudeDegrees>
              <LongitudeDegrees>-3.44860238023102283477783203125</LongitudeDegrees>
            </Position>
            <AltitudeMeters>21</AltitudeMeters>
            <DistanceMeters>NAN</DistanceMeters>
          </Trackpoint>
          <Trackpoint>
            <Time>2022-07-13T09:27:00.000Z</Time>
            <Position>
              <LatitudeDegrees>43.428996317088603973388671875</LatitudeDegrees>
              <LongitudeDegrees>-3.448703549802303314208984375</LongitudeDegrees>
            </Position>
            <AltitudeMeters>21.3999996185302734375</AltitudeMeters>
            <DistanceMeters>NAN</DistanceMeters>
          </Trackpoint>
          <Trackpoint>
            <Time>2022-07-13T09:27:01.000Z</Time>
            <Position>
              <LatitudeDegrees>43.429032526910305023193359375</LatitudeDegrees>
              <LongitudeDegrees>-3.44872022978961467742919921875</LongitudeDegrees>
            </Position>
            <AltitudeMeters>21.6000003814697265625</AltitudeMeters>
            <DistanceMeters>NAN</DistanceMeters>
          </Trackpoint>
          <Trackpoint>
            <Time>2022-07-13T09:27:10.000Z</Time>
            <Position>
              <LatitudeDegrees>43.42939487658441066741943359375</LatitudeDegrees>
              <LongitudeDegrees>-3.4488715231418609619140625</LongitudeDegrees>
            </Position>
            <AltitudeMeters>22</AltitudeMeters>
            <DistanceMeters>NAN</DistanceMeters>
          </Trackpoint>
          <Trackpoint>
            <Time>2022-07-13T09:27:18.000Z</Time>
            <Position>
              <LatitudeDegrees>43.429735600948333740234375</LatitudeDegrees>
              <LongitudeDegrees>-3.4490111656486988067626953125</LongitudeDegrees>
            </Position>
            <AltitudeMeters>22</AltitudeMeters>
            <DistanceMeters>NAN</DistanceMeters>
          </Trackpoint>
          <Trackpoint>
            <Time>2022-07-13T09:27:25.000Z</Time>
            <Position>
              <LatitudeDegrees>43.43000474385917186737060546875</LatitudeDegrees>
              <LongitudeDegrees>-3.4491053782403469085693359375</LongitudeDegrees>
            </Position>
            <AltitudeMeters>22</AltitudeMeters>
            <DistanceMeters>NAN</DistanceMeters>
          </Trackpoint>
          <Trackpoint>
            <Time>2022-07-13T09:27:31.000Z</Time>
            <Position>
              <LatitudeDegrees>43.43024111352860927581787109375</LatitudeDegrees>
              <LongitudeDegrees>-3.44923554919660091400146484375</LongitudeDegrees>
            </Position>
            <AltitudeMeters>21.799999237060546875</AltitudeMeters>
            <DistanceMeters>NAN</DistanceMeters>
          </Trackpoint>
          <Trackpoint>
            <Time>2022-07-13T09:27:34.000Z</Time>
            <Position>
              <LatitudeDegrees>43.43037555925548076629638671875</LatitudeDegrees>
              <LongitudeDegrees>-3.449288941919803619384765625</LongitudeDegrees>
            </Position>
            <AltitudeMeters>21.6000003814697265625</AltitudeMeters>
            <DistanceMeters>NAN</DistanceMeters>
          </Trackpoint>
          <Trackpoint>
            <Time>2022-07-13T09:27:42.000Z</Time>
            <Position>
              <LatitudeDegrees>43.43071552924811840057373046875</LatitudeDegrees>
              <LongitudeDegrees>-3.449457250535488128662109375</LongitudeDegrees>
            </Position>
            <AltitudeMeters>22</AltitudeMeters>
            <DistanceMeters>NAN</DistanceMeters>
          </Trackpoint>
          <Trackpoint>
            <Time>2022-07-13T09:27:52.000Z</Time>
            <Position>
              <LatitudeDegrees>43.43114702962338924407958984375</LatitudeDegrees>
              <LongitudeDegrees>-3.44964944757521152496337890625</LongitudeDegrees>
            </Position>
            <AltitudeMeters>21.799999237060546875</AltitudeMeters>
            <DistanceMeters>NAN</DistanceMeters>
          </Trackpoint>
          <Trackpoint>
            <Time>2022-07-13T09:28:00.000Z</Time>
            <Position>
              <LatitudeDegrees>43.43149043619632720947265625</LatitudeDegrees>
              <LongitudeDegrees>-3.44980828464031219482421875</LongitudeDegrees>
            </Position>
            <AltitudeMeters>22.6000003814697265625</AltitudeMeters>
            <DistanceMeters>NAN</DistanceMeters>
          </Trackpoint>
          <Trackpoint>
            <Time>2022-07-13T09:28:04.000Z</Time>
            <Position>
              <LatitudeDegrees>43.4316558949649333953857421875</LatitudeDegrees>
              <LongitudeDegrees>-3.44987399876117706298828125</LongitudeDegrees>
            </Position>
            <AltitudeMeters>22.799999237060546875</AltitudeMeters>
            <DistanceMeters>NAN</DistanceMeters>
          </Trackpoint>
          <Trackpoint>
            <Time>2022-07-13T09:28:13.000Z</Time>
            <Position>
              <LatitudeDegrees>43.4320248663425445556640625</LatitudeDegrees>
              <LongitudeDegrees>-3.45003384165465831756591796875</LongitudeDegrees>
            </Position>
            <AltitudeMeters>22.6000003814697265625</AltitudeMeters>
            <DistanceMeters>NAN</DistanceMeters>
          </Trackpoint>
          <Trackpoint>
            <Time>2022-07-13T09:28:24.000Z</Time>
            <Position>
              <LatitudeDegrees>43.43245913274586200714111328125</LatitudeDegrees>
              <LongitudeDegrees>-3.450237102806568145751953125</LongitudeDegrees>
            </Position>
            <AltitudeMeters>22.3999996185302734375</AltitudeMeters>
            <DistanceMeters>NAN</DistanceMeters>
          </Trackpoint>
          <Trackpoint>
            <Time>2022-07-13T09:28:30.000Z</Time>
            <Position>
              <LatitudeDegrees>43.432678319513797760009765625</LatitudeDegrees>
              <LongitudeDegrees>-3.4502979554235935211181640625</LongitudeDegrees>
            </Position>
            <AltitudeMeters>22.3999996185302734375</AltitudeMeters>
            <DistanceMeters>NAN</DistanceMeters>
          </Trackpoint>
          <Trackpoint>
            <Time>2022-07-13T09:28:34.000Z</Time>
            <Position>
              <LatitudeDegrees>43.4328092448413372039794921875</LatitudeDegrees>
              <LongitudeDegrees>-3.45026216469705104827880859375</LongitudeDegrees>
            </Position>
            <AltitudeMeters>22.6000003814697265625</AltitudeMeters>
            <DistanceMeters>NAN</DistanceMeters>
          </Trackpoint>
          <Trackpoint>
            <Time>2022-07-13T09:28:36.000Z</Time>
            <Position>
              <LatitudeDegrees>43.4328702650964260101318359375</LatitudeDegrees>
              <LongitudeDegrees>-3.450206257402896881103515625</LongitudeDegrees>
            </Position>
            <AltitudeMeters>22.799999237060546875</AltitudeMeters>
            <DistanceMeters>NAN</DistanceMeters>
          </Trackpoint>
          <Trackpoint>
            <Time>2022-07-13T09:28:38.000Z</Time>
            <Position>
              <LatitudeDegrees>43.4329108335077762603759765625</LatitudeDegrees>
              <LongitudeDegrees>-3.45015604980289936065673828125</LongitudeDegrees>
            </Position>
            <AltitudeMeters>23</AltitudeMeters>
            <DistanceMeters>NAN</DistanceMeters>
          </Trackpoint>
          <Trackpoint>
            <Time>2022-07-13T09:28:40.000Z</Time>
            <Position>
              <LatitudeDegrees>43.43295735307037830352783203125</LatitudeDegrees>
              <LongitudeDegrees>-3.4501329995691776275634765625</LongitudeDegrees>
            </Position>
            <AltitudeMeters>22.6000003814697265625</AltitudeMeters>
            <DistanceMeters>NAN</DistanceMeters>
          </Trackpoint>
          <Trackpoint>
            <Time>2022-07-13T09:28:41.000Z</Time>
            <Position>
              <LatitudeDegrees>43.43297109939157962799072265625</LatitudeDegrees>
              <LongitudeDegrees>-3.45014582388103008270263671875</LongitudeDegrees>
            </Position>
            <AltitudeMeters>22.6000003814697265625</AltitudeMeters>
            <DistanceMeters>NAN</DistanceMeters>
          </Trackpoint>
          <Trackpoint>
            <Time>2022-07-13T09:28:45.000Z</Time>
            <Position>
              <LatitudeDegrees>43.433021642267704010009765625</LatitudeDegrees>
              <LongitudeDegrees>-3.4502205066382884979248046875</LongitudeDegrees>
            </Position>
            <AltitudeMeters>21.799999237060546875</AltitudeMeters>
            <DistanceMeters>NAN</DistanceMeters>
          </Trackpoint>
          <Trackpoint>
            <Time>2022-07-13T09:28:46.000Z</Time>
            <Position>
              <LatitudeDegrees>43.43303848989307880401611328125</LatitudeDegrees>
              <LongitudeDegrees>-3.4502305649220943450927734375</LongitudeDegrees>
            </Position>
            <AltitudeMeters>21.6000003814697265625</AltitudeMeters>
            <DistanceMeters>NAN</DistanceMeters>
          </Trackpoint>
          <Trackpoint>
            <Time>2022-07-13T09:28:47.000Z</Time>
            <Position>
              <LatitudeDegrees>43.43304586596786975860595703125</LatitudeDegrees>
              <LongitudeDegrees>-3.45023609697818756103515625</LongitudeDegrees>
            </Position>
            <AltitudeMeters>21.6000003814697265625</AltitudeMeters>
            <DistanceMeters>NAN</DistanceMeters>
          </Trackpoint>
          <Trackpoint>
            <Time>2022-07-13T09:28:51.000Z</Time>
            <Position>
              <LatitudeDegrees>43.43308844603598117828369140625</LatitudeDegrees>
              <LongitudeDegrees>-3.45028513111174106597900390625</LongitudeDegrees>
            </Position>
            <AltitudeMeters>22</AltitudeMeters>
            <DistanceMeters>NAN</DistanceMeters>
          </Trackpoint>
          <Trackpoint>
            <Time>2022-07-13T09:28:57.000Z</Time>
            <Position>
              <LatitudeDegrees>43.43319036997854709625244140625</LatitudeDegrees>
              <LongitudeDegrees>-3.45043784938752651214599609375</LongitudeDegrees>
            </Position>
            <AltitudeMeters>21.799999237060546875</AltitudeMeters>
            <DistanceMeters>NAN</DistanceMeters>
          </Trackpoint>
          <Trackpoint>
            <Time>2022-07-13T09:29:01.000Z</Time>
            <Position>
              <LatitudeDegrees>43.433224819600582122802734375</LatitudeDegrees>
              <LongitudeDegrees>-3.45050775445997714996337890625</LongitudeDegrees>
            </Position>
            <AltitudeMeters>21.3999996185302734375</AltitudeMeters>
            <DistanceMeters>NAN</DistanceMeters>
          </Trackpoint>
          <Trackpoint>
            <Time>2022-07-13T09:29:07.000Z</Time>
            <Position>
              <LatitudeDegrees>43.4332725964486598968505859375</LatitudeDegrees>
              <LongitudeDegrees>-3.4505852870643138885498046875</LongitudeDegrees>
            </Position>
            <AltitudeMeters>21.3999996185302734375</AltitudeMeters>
            <DistanceMeters>NAN</DistanceMeters>
          </Trackpoint>
          <Trackpoint>
            <Time>2022-07-13T09:29:08.000Z</Time>
            <Position>
              <LatitudeDegrees>43.43328039161860942840576171875</LatitudeDegrees>
              <LongitudeDegrees>-3.45059542916715145111083984375</LongitudeDegrees>
            </Position>
            <AltitudeMeters>21.3999996185302734375</AltitudeMeters>
            <DistanceMeters>NAN</DistanceMeters>
          </Trackpoint>
          <Trackpoint>
            <Time>2022-07-13T09:29:11.000Z</Time>
            <Position>
              <LatitudeDegrees>43.43328357674181461334228515625</LatitudeDegrees>
              <LongitudeDegrees>-3.4505973570048809051513671875</LongitudeDegrees>
            </Position>
            <AltitudeMeters>21.3999996185302734375</AltitudeMeters>
            <DistanceMeters>NAN</DistanceMeters>
          </Trackpoint>
          <Trackpoint>
            <Time>2022-07-13T09:29:17.000Z</Time>
            <Position>
              <LatitudeDegrees>43.43334476463496685028076171875</LatitudeDegrees>
              <LongitudeDegrees>-3.4506416134536266326904296875</LongitudeDegrees>
            </Position>
            <AltitudeMeters>21.6000003814697265625</AltitudeMeters>
            <DistanceMeters>NAN</DistanceMeters>
          </Trackpoint>
          <Trackpoint>
            <Time>2022-07-13T09:29:22.000Z</Time>
            <Position>
              <LatitudeDegrees>43.43342372216284275054931640625</LatitudeDegrees>
              <LongitudeDegrees>-3.45069014467298984527587890625</LongitudeDegrees>
            </Position>
            <AltitudeMeters>22</AltitudeMeters>
            <DistanceMeters>NAN</DistanceMeters>
          </Trackpoint>
          <Trackpoint>
            <Time>2022-07-13T09:29:24.000Z</Time>
            <Position>
              <LatitudeDegrees>43.43342741020023822784423828125</LatitudeDegrees>
              <LongitudeDegrees>-3.450691066682338714599609375</LongitudeDegrees>
            </Position>
            <AltitudeMeters>22</AltitudeMeters>
            <DistanceMeters>NAN</DistanceMeters>
          </Trackpoint>
          <Trackpoint>
            <Time>2022-07-13T09:29:25.000Z</Time>
            <Position>
              <LatitudeDegrees>43.43342741020023822784423828125</LatitudeDegrees>
              <LongitudeDegrees>-3.450691066682338714599609375</LongitudeDegrees>
            </Position>
            <AltitudeMeters>22</AltitudeMeters>
            <DistanceMeters>NAN</DistanceMeters>
          </Trackpoint>
          <Trackpoint>
            <Time>2022-07-13T09:29:29.000Z</Time>
            <Position>
              <LatitudeDegrees>43.43346043489873409271240234375</LatitudeDegrees>
              <LongitudeDegrees>-3.45072702504694461822509765625</LongitudeDegrees>
            </Position>
            <AltitudeMeters>22.200000762939453125</AltitudeMeters>
            <DistanceMeters>NAN</DistanceMeters>
          </Trackpoint>
          <Trackpoint>
            <Time>2022-07-13T09:29:32.000Z</Time>
            <Position>
              <LatitudeDegrees>43.4335062839090824127197265625</LatitudeDegrees>
              <LongitudeDegrees>-3.45077790319919586181640625</LongitudeDegrees>
            </Position>
            <AltitudeMeters>22.3999996185302734375</AltitudeMeters>
            <DistanceMeters>NAN</DistanceMeters>
          </Trackpoint>
          <Trackpoint>
            <Time>2022-07-13T09:29:35.000Z</Time>
            <Position>
              <LatitudeDegrees>43.4335475228726863861083984375</LatitudeDegrees>
              <LongitudeDegrees>-3.45083246938884258270263671875</LongitudeDegrees>
            </Position>
            <AltitudeMeters>22.6000003814697265625</AltitudeMeters>
            <DistanceMeters>NAN</DistanceMeters>
          </Trackpoint>
          <Trackpoint>
            <Time>2022-07-13T09:29:39.000Z</Time>
            <Position>
              <LatitudeDegrees>43.433610387146472930908203125</LatitudeDegrees>
              <LongitudeDegrees>-3.45088225789368152618408203125</LongitudeDegrees>
            </Position>
            <AltitudeMeters>23</AltitudeMeters>
            <DistanceMeters>NAN</DistanceMeters>
          </Trackpoint>
          <Trackpoint>
            <Time>2022-07-13T09:29:43.000Z</Time>
            <Position>
              <LatitudeDegrees>43.4336447529494762420654296875</LatitudeDegrees>
              <LongitudeDegrees>-3.45093992538750171661376953125</LongitudeDegrees>
            </Position>
            <AltitudeMeters>23.200000762939453125</AltitudeMeters>
            <DistanceMeters>NAN</DistanceMeters>
          </Trackpoint>
          <Trackpoint>
            <Time>2022-07-13T09:29:47.000Z</Time>
            <Position>
              <LatitudeDegrees>43.4336878359317779541015625</LatitudeDegrees>
              <LongitudeDegrees>-3.45102558843791484832763671875</LongitudeDegrees>
            </Position>
            <AltitudeMeters>23.200000762939453125</AltitudeMeters>
            <DistanceMeters>NAN</DistanceMeters>
          </Trackpoint>
          <Trackpoint>
            <Time>2022-07-13T09:29:51.000Z</Time>
            <Position>
              <LatitudeDegrees>43.433723039925098419189453125</LatitudeDegrees>
              <LongitudeDegrees>-3.451140336692333221435546875</LongitudeDegrees>
            </Position>
            <AltitudeMeters>23.200000762939453125</AltitudeMeters>
            <DistanceMeters>NAN</DistanceMeters>
          </Trackpoint>
          <Trackpoint>
            <Time>2022-07-13T09:29:55.000Z</Time>
            <Position>
              <LatitudeDegrees>43.433737121522426605224609375</LatitudeDegrees>
              <LongitudeDegrees>-3.4512417577207088470458984375</LongitudeDegrees>
            </Position>
            <AltitudeMeters>23.200000762939453125</AltitudeMeters>
            <DistanceMeters>NAN</DistanceMeters>
          </Trackpoint>
          <Trackpoint>
            <Time>2022-07-13T09:29:58.000Z</Time>
            <Position>
              <LatitudeDegrees>43.43373552896082401275634765625</LatitudeDegrees>
              <LongitudeDegrees>-3.45133236609399318695068359375</LongitudeDegrees>
            </Position>
            <AltitudeMeters>23.200000762939453125</AltitudeMeters>
            <DistanceMeters>NAN</DistanceMeters>
          </Trackpoint>
          <Trackpoint>
            <Time>2022-07-13T09:30:02.000Z</Time>
            <Position>
              <LatitudeDegrees>43.433742485940456390380859375</LatitudeDegrees>
              <LongitudeDegrees>-3.4514115750789642333984375</LongitudeDegrees>
            </Position>
            <AltitudeMeters>23.200000762939453125</AltitudeMeters>
            <DistanceMeters>NAN</DistanceMeters>
          </Trackpoint>
          <Trackpoint>
            <Time>2022-07-13T09:30:05.000Z</Time>
            <Position>
              <LatitudeDegrees>43.433742485940456390380859375</LatitudeDegrees>
              <LongitudeDegrees>-3.4514115750789642333984375</LongitudeDegrees>
            </Position>
            <AltitudeMeters>23</AltitudeMeters>
            <DistanceMeters>NAN</DistanceMeters>
          </Trackpoint>
          <Trackpoint>
            <Time>2022-07-13T09:31:27.000Z</Time>
            <Position>
              <LatitudeDegrees>43.4338366985321044921875</LatitudeDegrees>
              <LongitudeDegrees>-3.45188708044588565826416015625</LongitudeDegrees>
            </Position>
            <AltitudeMeters>20.799999237060546875</AltitudeMeters>
            <DistanceMeters>NAN</DistanceMeters>
          </Trackpoint>
          <Trackpoint>
            <Time>2022-07-13T09:31:28.000Z</Time>
            <Position>
              <LatitudeDegrees>43.43384005129337310791015625</LatitudeDegrees>
              <LongitudeDegrees>-3.45190099440515041351318359375</LongitudeDegrees>
            </Position>
            <AltitudeMeters>20.799999237060546875</AltitudeMeters>
            <DistanceMeters>NAN</DistanceMeters>
          </Trackpoint>
          <Trackpoint>
            <Time>2022-07-13T09:31:40.000Z</Time>
            <Position>
              <LatitudeDegrees>43.43389361165463924407958984375</LatitudeDegrees>
              <LongitudeDegrees>-3.45207215286791324615478515625</LongitudeDegrees>
            </Position>
            <AltitudeMeters>20.799999237060546875</AltitudeMeters>
            <DistanceMeters>NAN</DistanceMeters>
          </Trackpoint>
          <Trackpoint>
            <Time>2022-07-13T09:31:50.000Z</Time>
            <Position>
              <LatitudeDegrees>43.43391020782291889190673828125</LatitudeDegrees>
              <LongitudeDegrees>-3.45221749506890773773193359375</LongitudeDegrees>
            </Position>
            <AltitudeMeters>21.200000762939453125</AltitudeMeters>
            <DistanceMeters>NAN</DistanceMeters>
          </Trackpoint>
          <Trackpoint>
            <Time>2022-07-13T09:31:53.000Z</Time>
            <Position>
              <LatitudeDegrees>43.43391423113644123077392578125</LatitudeDegrees>
              <LongitudeDegrees>-3.45226041041314601898193359375</LongitudeDegrees>
            </Position>
            <AltitudeMeters>21.200000762939453125</AltitudeMeters>
            <DistanceMeters>NAN</DistanceMeters>
          </Trackpoint>
          <Trackpoint>
            <Time>2022-07-13T09:31:59.000Z</Time>
            <Position>
              <LatitudeDegrees>43.43392093665897846221923828125</LatitudeDegrees>
              <LongitudeDegrees>-3.4523133002221584320068359375</LongitudeDegrees>
            </Position>
            <AltitudeMeters>20.799999237060546875</AltitudeMeters>
            <DistanceMeters>NAN</DistanceMeters>
          </Trackpoint>
          <Trackpoint>
            <Time>2022-07-13T09:32:08.000Z</Time>
            <Position>
              <LatitudeDegrees>43.433936946094036102294921875</LatitudeDegrees>
              <LongitudeDegrees>-3.45243525691330432891845703125</LongitudeDegrees>
            </Position>
            <AltitudeMeters>20.200000762939453125</AltitudeMeters>
            <DistanceMeters>NAN</DistanceMeters>
          </Trackpoint>
          <Trackpoint>
            <Time>2022-07-13T09:32:15.000Z</Time>
            <Position>
              <LatitudeDegrees>43.43394859693944454193115234375</LatitudeDegrees>
              <LongitudeDegrees>-3.452525027096271514892578125</LongitudeDegrees>
            </Position>
            <AltitudeMeters>20.200000762939453125</AltitudeMeters>
            <DistanceMeters>NAN</DistanceMeters>
          </Trackpoint>
          <Trackpoint>
            <Time>2022-07-13T09:32:16.000Z</Time>
            <Position>
              <LatitudeDegrees>43.4339485131204128265380859375</LatitudeDegrees>
              <LongitudeDegrees>-3.45252879895269870758056640625</LongitudeDegrees>
            </Position>
            <AltitudeMeters>20.200000762939453125</AltitudeMeters>
            <DistanceMeters>NAN</DistanceMeters>
          </Trackpoint>
          <Trackpoint>
            <Time>2022-07-13T09:32:20.000Z</Time>
            <Position>
              <LatitudeDegrees>43.4339506924152374267578125</LatitudeDegrees>
              <LongitudeDegrees>-3.45257875509560108184814453125</LongitudeDegrees>
            </Position>
            <AltitudeMeters>19.799999237060546875</AltitudeMeters>
            <DistanceMeters>NAN</DistanceMeters>
          </Trackpoint>
          <Trackpoint>
            <Time>2022-07-13T09:32:23.000Z</Time>
            <Position>
              <LatitudeDegrees>43.4339515306055545806884765625</LatitudeDegrees>
              <LongitudeDegrees>-3.452637679874897003173828125</LongitudeDegrees>
            </Position>
            <AltitudeMeters>19.6000003814697265625</AltitudeMeters>
            <DistanceMeters>NAN</DistanceMeters>
          </Trackpoint>
          <Trackpoint>
            <Time>2022-07-13T09:32:33.000Z</Time>
            <Position>
              <LatitudeDegrees>43.43394490890204906463623046875</LatitudeDegrees>
              <LongitudeDegrees>-3.45277304761111736297607421875</LongitudeDegrees>
            </Position>
            <AltitudeMeters>19.6000003814697265625</AltitudeMeters>
            <DistanceMeters>NAN</DistanceMeters>
          </Trackpoint>
          <Trackpoint>
            <Time>2022-07-13T09:32:35.000Z</Time>
            <Position>
              <LatitudeDegrees>43.4339454956352710723876953125</LatitudeDegrees>
              <LongitudeDegrees>-3.45277749001979827880859375</LongitudeDegrees>
            </Position>
            <AltitudeMeters>19.6000003814697265625</AltitudeMeters>
            <DistanceMeters>NAN</DistanceMeters>
          </Trackpoint>
          <Trackpoint>
            <Time>2022-07-13T09:32:50.000Z</Time>
            <Position>
              <LatitudeDegrees>43.433977849781513214111328125</LatitudeDegrees>
              <LongitudeDegrees>-3.452842198312282562255859375</LongitudeDegrees>
            </Position>
            <AltitudeMeters>19.6000003814697265625</AltitudeMeters>
            <DistanceMeters>NAN</DistanceMeters>
          </Trackpoint>
          <Trackpoint>
            <Time>2022-07-13T09:32:51.000Z</Time>
            <Position>
              <LatitudeDegrees>43.43398346565663814544677734375</LatitudeDegrees>
              <LongitudeDegrees>-3.4528557769954204559326171875</LongitudeDegrees>
            </Position>
            <AltitudeMeters>19.6000003814697265625</AltitudeMeters>
            <DistanceMeters>NAN</DistanceMeters>
          </Trackpoint>
          <Trackpoint>
            <Time>2022-07-13T09:32:58.000Z</Time>
            <Position>
              <LatitudeDegrees>43.43405001796782016754150390625</LatitudeDegrees>
              <LongitudeDegrees>-3.452925346791744232177734375</LongitudeDegrees>
            </Position>
            <AltitudeMeters>18.799999237060546875</AltitudeMeters>
            <DistanceMeters>NAN</DistanceMeters>
          </Trackpoint>
          <Trackpoint>
            <Time>2022-07-13T09:32:59.000Z</Time>
            <Position>
              <LatitudeDegrees>43.4340591542422771453857421875</LatitudeDegrees>
              <LongitudeDegrees>-3.4529322199523448944091796875</LongitudeDegrees>
            </Position>
            <AltitudeMeters>18.6000003814697265625</AltitudeMeters>
            <DistanceMeters>NAN</DistanceMeters>
          </Trackpoint>
          <Trackpoint>
            <Time>2022-07-13T09:33:00.000Z</Time>
            <Position>
              <LatitudeDegrees>43.43406644649803638458251953125</LatitudeDegrees>
              <LongitudeDegrees>-3.452939093112945556640625</LongitudeDegrees>
            </Position>
            <AltitudeMeters>18.6000003814697265625</AltitudeMeters>
            <DistanceMeters>NAN</DistanceMeters>
          </Trackpoint>
          <Trackpoint>
            <Time>2022-07-13T09:33:07.000Z</Time>
            <Position>
              <LatitudeDegrees>43.43412193469703197479248046875</LatitudeDegrees>
              <LongitudeDegrees>-3.45297941006720066070556640625</LongitudeDegrees>
            </Position>
            <AltitudeMeters>18.6000003814697265625</AltitudeMeters>
            <DistanceMeters>NAN</DistanceMeters>
          </Trackpoint>
          <Trackpoint>
            <Time>2022-07-13T09:33:10.000Z</Time>
            <Position>
              <LatitudeDegrees>43.43412461690604686737060546875</LatitudeDegrees>
              <LongitudeDegrees>-3.4529861994087696075439453125</LongitudeDegrees>
            </Position>
            <AltitudeMeters>18.6000003814697265625</AltitudeMeters>
            <DistanceMeters>NAN</DistanceMeters>
          </Trackpoint>
          <Trackpoint>
            <Time>2022-07-13T09:43:57.000Z</Time>
            <Position>
              <LatitudeDegrees>43.434838838875293731689453125</LatitudeDegrees>
              <LongitudeDegrees>-3.4537157602608203887939453125</LongitudeDegrees>
            </Position>
            <AltitudeMeters>17.3999996185302734375</AltitudeMeters>
            <DistanceMeters>NAN</DistanceMeters>
          </Trackpoint>
          <Trackpoint>
            <Time>2022-07-13T09:43:59.000Z</Time>
            <Position>
              <LatitudeDegrees>43.43486691825091838836669921875</LatitudeDegrees>
              <LongitudeDegrees>-3.45372037030756473541259765625</LongitudeDegrees>
            </Position>
            <AltitudeMeters>17.3999996185302734375</AltitudeMeters>
            <DistanceMeters>NAN</DistanceMeters>
          </Trackpoint>
          <Trackpoint>
            <Time>2022-07-13T09:44:01.000Z</Time>
            <Position>
              <LatitudeDegrees>43.43489273451268672943115234375</LatitudeDegrees>
              <LongitudeDegrees>-3.4537241421639919281005859375</LongitudeDegrees>
            </Position>
            <AltitudeMeters>17.3999996185302734375</AltitudeMeters>
            <DistanceMeters>NAN</DistanceMeters>
          </Trackpoint>
          <Trackpoint>
            <Time>2022-07-13T09:44:08.000Z</Time>
            <Position>
              <LatitudeDegrees>43.43498996458947658538818359375</LatitudeDegrees>
              <LongitudeDegrees>-3.45373579300940036773681640625</LongitudeDegrees>
            </Position>
            <AltitudeMeters>17.799999237060546875</AltitudeMeters>
            <DistanceMeters>NAN</DistanceMeters>
          </Trackpoint>
          <Trackpoint>
            <Time>2022-07-13T09:44:15.000Z</Time>
            <Position>
              <LatitudeDegrees>43.43509322963654994964599609375</LatitudeDegrees>
              <LongitudeDegrees>-3.453737385571002960205078125</LongitudeDegrees>
            </Position>
            <AltitudeMeters>18.200000762939453125</AltitudeMeters>
            <DistanceMeters>NAN</DistanceMeters>
          </Trackpoint>
          <Trackpoint>
            <Time>2022-07-13T09:44:16.000Z</Time>
            <Position>
              <LatitudeDegrees>43.43510831706225872039794921875</LatitudeDegrees>
              <LongitudeDegrees>-3.453736715018749237060546875</LongitudeDegrees>
            </Position>
            <AltitudeMeters>18.3999996185302734375</AltitudeMeters>
            <DistanceMeters>NAN</DistanceMeters>
          </Trackpoint>
          <Trackpoint>
            <Time>2022-07-13T09:44:28.000Z</Time>
            <Position>
              <LatitudeDegrees>43.43528115190565586090087890625</LatitudeDegrees>
              <LongitudeDegrees>-3.45374400727450847625732421875</LongitudeDegrees>
            </Position>
            <AltitudeMeters>18</AltitudeMeters>
            <DistanceMeters>NAN</DistanceMeters>
          </Trackpoint>
          <Trackpoint>
            <Time>2022-07-13T09:44:39.000Z</Time>
            <Position>
              <LatitudeDegrees>43.4354460239410400390625</LatitudeDegrees>
              <LongitudeDegrees>-3.45374383963644504547119140625</LongitudeDegrees>
            </Position>
            <AltitudeMeters>17.6000003814697265625</AltitudeMeters>
            <DistanceMeters>NAN</DistanceMeters>
          </Trackpoint>
          <Trackpoint>
            <Time>2022-07-13T09:44:46.000Z</Time>
            <Position>
              <LatitudeDegrees>43.43553428538143634796142578125</LatitudeDegrees>
              <LongitudeDegrees>-3.453743755817413330078125</LongitudeDegrees>
            </Position>
            <AltitudeMeters>18.200000762939453125</AltitudeMeters>
            <DistanceMeters>NAN</DistanceMeters>
          </Trackpoint>
          <Trackpoint>
            <Time>2022-07-13T09:44:55.000Z</Time>
            <Position>
              <LatitudeDegrees>43.43567200005054473876953125</LatitudeDegrees>
              <LongitudeDegrees>-3.453727997839450836181640625</LongitudeDegrees>
            </Position>
            <AltitudeMeters>18.3999996185302734375</AltitudeMeters>
            <DistanceMeters>NAN</DistanceMeters>
          </Trackpoint>
          <Trackpoint>
            <Time>2022-07-13T09:44:56.000Z</Time>
            <Position>
              <LatitudeDegrees>43.43567929230630397796630859375</LatitudeDegrees>
              <LongitudeDegrees>-3.45372841693460941314697265625</LongitudeDegrees>
            </Position>
            <AltitudeMeters>18.3999996185302734375</AltitudeMeters>
            <DistanceMeters>NAN</DistanceMeters>
          </Trackpoint>
          <Trackpoint>
            <Time>2022-07-13T09:45:02.000Z</Time>
            <Position>
              <LatitudeDegrees>43.43575690872967243194580078125</LatitudeDegrees>
              <LongitudeDegrees>-3.4537251479923725128173828125</LongitudeDegrees>
            </Position>
            <AltitudeMeters>17.6000003814697265625</AltitudeMeters>
            <DistanceMeters>NAN</DistanceMeters>
          </Trackpoint>
          <Trackpoint>
            <Time>2022-07-13T09:45:07.000Z</Time>
            <Position>
              <LatitudeDegrees>43.43582597561180591583251953125</LatitudeDegrees>
              <LongitudeDegrees>-3.4537144191563129425048828125</LongitudeDegrees>
            </Position>
            <AltitudeMeters>17.6000003814697265625</AltitudeMeters>
            <DistanceMeters>NAN</DistanceMeters>
          </Trackpoint>
          <Trackpoint>
            <Time>2022-07-13T09:45:14.000Z</Time>
            <Position>
              <LatitudeDegrees>43.435948602855205535888671875</LatitudeDegrees>
              <LongitudeDegrees>-3.4537107311189174652099609375</LongitudeDegrees>
            </Position>
            <AltitudeMeters>17.200000762939453125</AltitudeMeters>
            <DistanceMeters>NAN</DistanceMeters>
          </Trackpoint>
          <Trackpoint>
            <Time>2022-07-13T09:45:16.000Z</Time>
            <Position>
              <LatitudeDegrees>43.43597785569727420806884765625</LatitudeDegrees>
              <LongitudeDegrees>-3.45371358096599578857421875</LongitudeDegrees>
            </Position>
            <AltitudeMeters>17</AltitudeMeters>
            <DistanceMeters>NAN</DistanceMeters>
          </Trackpoint>
          <Trackpoint>
            <Time>2022-07-13T09:45:26.000Z</Time>
            <Position>
              <LatitudeDegrees>43.436123616993427276611328125</LatitudeDegrees>
              <LongitudeDegrees>-3.4537402354180812835693359375</LongitudeDegrees>
            </Position>
            <AltitudeMeters>17.3999996185302734375</AltitudeMeters>
            <DistanceMeters>NAN</DistanceMeters>
          </Trackpoint>
          <Trackpoint>
            <Time>2022-07-13T09:45:35.000Z</Time>
            <Position>
              <LatitudeDegrees>43.436259068548679351806640625</LatitudeDegrees>
              <LongitudeDegrees>-3.45378625206649303436279296875</LongitudeDegrees>
            </Position>
            <AltitudeMeters>17.6000003814697265625</AltitudeMeters>
            <DistanceMeters>NAN</DistanceMeters>
          </Trackpoint>
          <Trackpoint>
            <Time>2022-07-13T09:45:38.000Z</Time>
            <Position>
              <LatitudeDegrees>43.43630542047321796417236328125</LatitudeDegrees>
              <LongitudeDegrees>-3.4538025967776775360107421875</LongitudeDegrees>
            </Position>
            <AltitudeMeters>18.3999996185302734375</AltitudeMeters>
            <DistanceMeters>NAN</DistanceMeters>
          </Trackpoint>
          <Trackpoint>
            <Time>2022-07-13T09:45:43.000Z</Time>
            <Position>
              <LatitudeDegrees>43.436393849551677703857421875</LatitudeDegrees>
              <LongitudeDegrees>-3.4538126550614833831787109375</LongitudeDegrees>
            </Position>
            <AltitudeMeters>17.799999237060546875</AltitudeMeters>
            <DistanceMeters>NAN</DistanceMeters>
          </Trackpoint>
          <Trackpoint>
            <Time>2022-07-13T09:45:50.000Z</Time>
            <Position>
              <LatitudeDegrees>43.43649954535067081451416015625</LatitudeDegrees>
              <LongitudeDegrees>-3.45382397063076496124267578125</LongitudeDegrees>
            </Position>
            <AltitudeMeters>17.799999237060546875</AltitudeMeters>
            <DistanceMeters>NAN</DistanceMeters>
          </Trackpoint>
          <Trackpoint>
            <Time>2022-07-13T09:45:52.000Z</Time>
            <Position>
              <LatitudeDegrees>43.43652536161243915557861328125</LatitudeDegrees>
              <LongitudeDegrees>-3.45383226871490478515625</LongitudeDegrees>
            </Position>
            <AltitudeMeters>17</AltitudeMeters>
            <DistanceMeters>NAN</DistanceMeters>
          </Trackpoint>
          <Trackpoint>
            <Time>2022-07-13T09:45:58.000Z</Time>
            <Position>
              <LatitudeDegrees>43.43661236576735973358154296875</LatitudeDegrees>
              <LongitudeDegrees>-3.4538535587489604949951171875</LongitudeDegrees>
            </Position>
            <AltitudeMeters>16.3999996185302734375</AltitudeMeters>
            <DistanceMeters>NAN</DistanceMeters>
          </Trackpoint>
          <Trackpoint>
            <Time>2022-07-13T09:46:00.000Z</Time>
            <Position>
              <LatitudeDegrees>43.436644636094570159912109375</LatitudeDegrees>
              <LongitudeDegrees>-3.45386085100471973419189453125</LongitudeDegrees>
            </Position>
            <AltitudeMeters>18.200000762939453125</AltitudeMeters>
            <DistanceMeters>NAN</DistanceMeters>
          </Trackpoint>
          <Trackpoint>
            <Time>2022-07-13T09:46:03.000Z</Time>
            <Position>
              <LatitudeDegrees>43.4366910718381404876708984375</LatitudeDegrees>
              <LongitudeDegrees>-3.453874178230762481689453125</LongitudeDegrees>
            </Position>
            <AltitudeMeters>19.200000762939453125</AltitudeMeters>
            <DistanceMeters>NAN</DistanceMeters>
          </Trackpoint>
          <Trackpoint>
            <Time>2022-07-13T09:46:06.000Z</Time>
            <Position>
              <LatitudeDegrees>43.4367380104959011077880859375</LatitudeDegrees>
              <LongitudeDegrees>-3.45389328896999359130859375</LongitudeDegrees>
            </Position>
            <AltitudeMeters>19.200000762939453125</AltitudeMeters>
            <DistanceMeters>NAN</DistanceMeters>
          </Trackpoint>
          <Trackpoint>
            <Time>2022-07-13T09:46:09.000Z</Time>
            <Position>
              <LatitudeDegrees>43.43677665106952190399169921875</LatitudeDegrees>
              <LongitudeDegrees>-3.45391198061406612396240234375</LongitudeDegrees>
            </Position>
            <AltitudeMeters>18.6000003814697265625</AltitudeMeters>
            <DistanceMeters>NAN</DistanceMeters>
          </Trackpoint>
          <Trackpoint>
            <Time>2022-07-13T09:46:11.000Z</Time>
            <Position>
              <LatitudeDegrees>43.436808250844478607177734375</LatitudeDegrees>
              <LongitudeDegrees>-3.45392388291656970977783203125</LongitudeDegrees>
            </Position>
            <AltitudeMeters>18.200000762939453125</AltitudeMeters>
            <DistanceMeters>NAN</DistanceMeters>
          </Trackpoint>
          <Trackpoint>
            <Time>2022-07-13T09:46:13.000Z</Time>
            <Position>
              <LatitudeDegrees>43.436839766800403594970703125</LatitudeDegrees>
              <LongitudeDegrees>-3.45394064672291278839111328125</LongitudeDegrees>
            </Position>
            <AltitudeMeters>16.799999237060546875</AltitudeMeters>
            <DistanceMeters>NAN</DistanceMeters>
          </Trackpoint>
          <Trackpoint>
            <Time>2022-07-13T09:46:17.000Z</Time>
            <Position>
              <LatitudeDegrees>43.4369036369025707244873046875</LatitudeDegrees>
              <LongitudeDegrees>-3.4539569914340972900390625</LongitudeDegrees>
            </Position>
            <AltitudeMeters>16.799999237060546875</AltitudeMeters>
            <DistanceMeters>NAN</DistanceMeters>
          </Trackpoint>
          <Trackpoint>
            <Time>2022-07-13T09:46:25.000Z</Time>
            <Position>
              <LatitudeDegrees>43.437025509774684906005859375</LatitudeDegrees>
              <LongitudeDegrees>-3.45400728285312652587890625</LongitudeDegrees>
            </Position>
            <AltitudeMeters>17.3999996185302734375</AltitudeMeters>
            <DistanceMeters>NAN</DistanceMeters>
          </Trackpoint>
          <Trackpoint>
            <Time>2022-07-13T09:46:26.000Z</Time>
            <Position>
              <LatitudeDegrees>43.43704705126583576202392578125</LatitudeDegrees>
              <LongitudeDegrees>-3.45401507802307605743408203125</LongitudeDegrees>
            </Position>
            <AltitudeMeters>17.3999996185302734375</AltitudeMeters>
            <DistanceMeters>NAN</DistanceMeters>
          </Trackpoint>
          <Trackpoint>
            <Time>2022-07-13T09:46:28.000Z</Time>
            <Position>
              <LatitudeDegrees>43.43707705847918987274169921875</LatitudeDegrees>
              <LongitudeDegrees>-3.45402848906815052032470703125</LongitudeDegrees>
            </Position>
            <AltitudeMeters>17.200000762939453125</AltitudeMeters>
            <DistanceMeters>NAN</DistanceMeters>
          </Trackpoint>
          <Trackpoint>
            <Time>2022-07-13T09:46:30.000Z</Time>
            <Position>
              <LatitudeDegrees>43.43711058609187602996826171875</LatitudeDegrees>
              <LongitudeDegrees>-3.45404391176998615264892578125</LongitudeDegrees>
            </Position>
            <AltitudeMeters>17.200000762939453125</AltitudeMeters>
            <DistanceMeters>NAN</DistanceMeters>
          </Trackpoint>
          <Trackpoint>
            <Time>2022-07-13T09:46:39.000Z</Time>
            <Position>
              <LatitudeDegrees>43.43725760467350482940673828125</LatitudeDegrees>
              <LongitudeDegrees>-3.45410644076764583587646484375</LongitudeDegrees>
            </Position>
            <AltitudeMeters>17</AltitudeMeters>
            <DistanceMeters>NAN</DistanceMeters>
          </Trackpoint>
          <Trackpoint>
            <Time>2022-07-13T09:46:47.000Z</Time>
            <Position>
              <LatitudeDegrees>43.43739389441907405853271484375</LatitudeDegrees>
              <LongitudeDegrees>-3.45415421761572360992431640625</LongitudeDegrees>
            </Position>
            <AltitudeMeters>17</AltitudeMeters>
            <DistanceMeters>NAN</DistanceMeters>
          </Trackpoint>
          <Trackpoint>
            <Time>2022-07-13T09:46:51.000Z</Time>
            <Position>
              <LatitudeDegrees>43.43746329657733440399169921875</LatitudeDegrees>
              <LongitudeDegrees>-3.4541688859462738037109375</LongitudeDegrees>
            </Position>
            <AltitudeMeters>17</AltitudeMeters>
            <DistanceMeters>NAN</DistanceMeters>
          </Trackpoint>
          <Trackpoint>
            <Time>2022-07-13T09:46:54.000Z</Time>
            <Position>
              <LatitudeDegrees>43.43751057051122188568115234375</LatitudeDegrees>
              <LongitudeDegrees>-3.45417567528784275054931640625</LongitudeDegrees>
            </Position>
            <AltitudeMeters>16.799999237060546875</AltitudeMeters>
            <DistanceMeters>NAN</DistanceMeters>
          </Trackpoint>
          <Trackpoint>
            <Time>2022-07-13T09:47:01.000Z</Time>
            <Position>
              <LatitudeDegrees>43.43763981945812702178955078125</LatitudeDegrees>
              <LongitudeDegrees>-3.454220853745937347412109375</LongitudeDegrees>
            </Position>
            <AltitudeMeters>16.799999237060546875</AltitudeMeters>
            <DistanceMeters>NAN</DistanceMeters>
          </Trackpoint>
          <Trackpoint>
            <Time>2022-07-13T09:47:05.000Z</Time>
            <Position>
              <LatitudeDegrees>43.4377079643309116363525390625</LatitudeDegrees>
              <LongitudeDegrees>-3.4542458318173885345458984375</LongitudeDegrees>
            </Position>
            <AltitudeMeters>16.3999996185302734375</AltitudeMeters>
            <DistanceMeters>NAN</DistanceMeters>
          </Trackpoint>
          <Trackpoint>
            <Time>2022-07-13T09:47:12.000Z</Time>
            <Position>
              <LatitudeDegrees>43.43783411197364330291748046875</LatitudeDegrees>
              <LongitudeDegrees>-3.4542904235422611236572265625</LongitudeDegrees>
            </Position>
            <AltitudeMeters>16.6000003814697265625</AltitudeMeters>
            <DistanceMeters>NAN</DistanceMeters>
          </Trackpoint>
          <Trackpoint>
            <Time>2022-07-13T09:47:22.000Z</Time>
            <Position>
              <LatitudeDegrees>43.43800778500735759735107421875</LatitudeDegrees>
              <LongitudeDegrees>-3.45431841909885406494140625</LongitudeDegrees>
            </Position>
            <AltitudeMeters>16.3999996185302734375</AltitudeMeters>
            <DistanceMeters>NAN</DistanceMeters>
          </Trackpoint>
          <Trackpoint>
            <Time>2022-07-13T09:47:32.000Z</Time>
            <Position>
              <LatitudeDegrees>43.43818313442170619964599609375</LatitudeDegrees>
              <LongitudeDegrees>-3.45433124341070652008056640625</LongitudeDegrees>
            </Position>
            <AltitudeMeters>16.799999237060546875</AltitudeMeters>
            <DistanceMeters>NAN</DistanceMeters>
          </Trackpoint>
          <Trackpoint>
            <Time>2022-07-13T09:47:43.000Z</Time>
            <Position>
              <LatitudeDegrees>43.43837558291852474212646484375</LatitudeDegrees>
              <LongitudeDegrees>-3.45437206327915191650390625</LongitudeDegrees>
            </Position>
            <AltitudeMeters>16.3999996185302734375</AltitudeMeters>
            <DistanceMeters>NAN</DistanceMeters>
          </Trackpoint>
          <Trackpoint>
            <Time>2022-07-13T09:47:50.000Z</Time>
            <Position>
              <LatitudeDegrees>43.43849728815257549285888671875</LatitudeDegrees>
              <LongitudeDegrees>-3.45441229641437530517578125</LongitudeDegrees>
            </Position>
            <AltitudeMeters>16.6000003814697265625</AltitudeMeters>
            <DistanceMeters>NAN</DistanceMeters>
          </Trackpoint>
          <Trackpoint>
            <Time>2022-07-13T09:47:51.000Z</Time>
            <Position>
              <LatitudeDegrees>43.4385102801024913787841796875</LatitudeDegrees>
              <LongitudeDegrees>-3.45442277379333972930908203125</LongitudeDegrees>
            </Position>
            <AltitudeMeters>16.6000003814697265625</AltitudeMeters>
            <DistanceMeters>NAN</DistanceMeters>
          </Trackpoint>
          <Trackpoint>
            <Time>2022-07-13T09:47:59.000Z</Time>
            <Position>
              <LatitudeDegrees>43.4386333264410495758056640625</LatitudeDegrees>
              <LongitudeDegrees>-3.4544946067035198211669921875</LongitudeDegrees>
            </Position>
            <AltitudeMeters>16.200000762939453125</AltitudeMeters>
            <DistanceMeters>NAN</DistanceMeters>
          </Trackpoint>
          <Trackpoint>
            <Time>2022-07-13T09:48:00.000Z</Time>
            <Position>
              <LatitudeDegrees>43.4386537782847881317138671875</LatitudeDegrees>
              <LongitudeDegrees>-3.45450458116829395294189453125</LongitudeDegrees>
            </Position>
            <AltitudeMeters>16.200000762939453125</AltitudeMeters>
            <DistanceMeters>NAN</DistanceMeters>
          </Trackpoint>
          <Trackpoint>
            <Time>2022-07-13T09:48:11.000Z</Time>
            <Position>
              <LatitudeDegrees>43.4388110227882862091064453125</LatitudeDegrees>
              <LongitudeDegrees>-3.45462947152554988861083984375</LongitudeDegrees>
            </Position>
            <AltitudeMeters>15.80000019073486328125</AltitudeMeters>
            <DistanceMeters>NAN</DistanceMeters>
          </Trackpoint>
          <Trackpoint>
            <Time>2022-07-13T09:48:12.000Z</Time>
            <Position>
              <LatitudeDegrees>43.4388224221765995025634765625</LatitudeDegrees>
              <LongitudeDegrees>-3.45464305020868778228759765625</LongitudeDegrees>
            </Position>
            <AltitudeMeters>15.80000019073486328125</AltitudeMeters>
            <DistanceMeters>NAN</DistanceMeters>
          </Trackpoint>
          <Trackpoint>
            <Time>2022-07-13T09:48:13.000Z</Time>
            <Position>
              <LatitudeDegrees>43.4388277865946292877197265625</LatitudeDegrees>
              <LongitudeDegrees>-3.45465998165309429168701171875</LongitudeDegrees>
            </Position>
            <AltitudeMeters>15.80000019073486328125</AltitudeMeters>
            <DistanceMeters>NAN</DistanceMeters>
          </Trackpoint>
          <Trackpoint>
            <Time>2022-07-13T09:48:15.000Z</Time>
            <Position>
              <LatitudeDegrees>43.438841365277767181396484375</LatitudeDegrees>
              <LongitudeDegrees>-3.45470189116895198822021484375</LongitudeDegrees>
            </Position>
            <AltitudeMeters>16</AltitudeMeters>
            <DistanceMeters>NAN</DistanceMeters>
          </Trackpoint>
          <Trackpoint>
            <Time>2022-07-13T09:48:17.000Z</Time>
            <Position>
              <LatitudeDegrees>43.43886709772050380706787109375</LatitudeDegrees>
              <LongitudeDegrees>-3.4547179006040096282958984375</LongitudeDegrees>
            </Position>
            <AltitudeMeters>16</AltitudeMeters>
            <DistanceMeters>NAN</DistanceMeters>
          </Trackpoint>
          <Trackpoint>
            <Time>2022-07-13T09:48:25.000Z</Time>
            <Position>
              <LatitudeDegrees>43.438951335847377777099609375</LatitudeDegrees>
              <LongitudeDegrees>-3.4548023901879787445068359375</LongitudeDegrees>
            </Position>
            <AltitudeMeters>16</AltitudeMeters>
            <DistanceMeters>NAN</DistanceMeters>
          </Trackpoint>
          <Trackpoint>
            <Time>2022-07-13T09:48:35.000Z</Time>
            <Position>
              <LatitudeDegrees>43.43904244713485240936279296875</LatitudeDegrees>
              <LongitudeDegrees>-3.45491512678563594818115234375</LongitudeDegrees>
            </Position>
            <AltitudeMeters>15.80000019073486328125</AltitudeMeters>
            <DistanceMeters>NAN</DistanceMeters>
          </Trackpoint>
          <Trackpoint>
            <Time>2022-07-13T09:48:41.000Z</Time>
            <Position>
              <LatitudeDegrees>43.439075388014316558837890625</LatitudeDegrees>
              <LongitudeDegrees>-3.4549603052437305450439453125</LongitudeDegrees>
            </Position>
            <AltitudeMeters>16</AltitudeMeters>
            <DistanceMeters>NAN</DistanceMeters>
          </Trackpoint>
          <Trackpoint>
            <Time>2022-07-13T09:48:44.000Z</Time>
            <Position>
              <LatitudeDegrees>43.439076058566570281982421875</LatitudeDegrees>
              <LongitudeDegrees>-3.45496541820466518402099609375</LongitudeDegrees>
            </Position>
            <AltitudeMeters>16.200000762939453125</AltitudeMeters>
            <DistanceMeters>NAN</DistanceMeters>
          </Trackpoint>
          <Trackpoint>
            <Time>2022-07-13T09:50:57.000Z</Time>
            <Position>
              <LatitudeDegrees>43.43942097388207912445068359375</LatitudeDegrees>
              <LongitudeDegrees>-3.4551654942333698272705078125</LongitudeDegrees>
            </Position>
            <AltitudeMeters>17.3999996185302734375</AltitudeMeters>
            <DistanceMeters>NAN</DistanceMeters>
          </Trackpoint>
          <Trackpoint>
            <Time>2022-07-13T09:50:58.000Z</Time>
            <Position>
              <LatitudeDegrees>43.43942575156688690185546875</LatitudeDegrees>
              <LongitudeDegrees>-3.45518401823937892913818359375</LongitudeDegrees>
            </Position>
            <AltitudeMeters>17.3999996185302734375</AltitudeMeters>
            <DistanceMeters>NAN</DistanceMeters>
          </Trackpoint>
          <Trackpoint>
            <Time>2022-07-13T09:50:59.000Z</Time>
            <Position>
              <LatitudeDegrees>43.4394331276416778564453125</LatitudeDegrees>
              <LongitudeDegrees>-3.45520447008311748504638671875</LongitudeDegrees>
            </Position>
            <AltitudeMeters>17</AltitudeMeters>
            <DistanceMeters>NAN</DistanceMeters>
          </Trackpoint>
          <Trackpoint>
            <Time>2022-07-13T09:51:04.000Z</Time>
            <Position>
              <LatitudeDegrees>43.43947662971913814544677734375</LatitudeDegrees>
              <LongitudeDegrees>-3.45528292469680309295654296875</LongitudeDegrees>
            </Position>
            <AltitudeMeters>16.3999996185302734375</AltitudeMeters>
            <DistanceMeters>NAN</DistanceMeters>
          </Trackpoint>
          <Trackpoint>
            <Time>2022-07-13T09:51:06.000Z</Time>
            <Position>
              <LatitudeDegrees>43.439510576426982879638671875</LatitudeDegrees>
              <LongitudeDegrees>-3.45529885031282901763916015625</LongitudeDegrees>
            </Position>
            <AltitudeMeters>16.6000003814697265625</AltitudeMeters>
            <DistanceMeters>NAN</DistanceMeters>
          </Trackpoint>
          <Trackpoint>
            <Time>2022-07-13T09:51:13.000Z</Time>
            <Position>
              <LatitudeDegrees>43.4395895339548587799072265625</LatitudeDegrees>
              <LongitudeDegrees>-3.45528225414454936981201171875</LongitudeDegrees>
            </Position>
            <AltitudeMeters>17</AltitudeMeters>
            <DistanceMeters>NAN</DistanceMeters>
          </Trackpoint>
          <Trackpoint>
            <Time>2022-07-13T09:51:14.000Z</Time>
            <Position>
              <LatitudeDegrees>43.43960436992347240447998046875</LatitudeDegrees>
              <LongitudeDegrees>-3.45528610982000827789306640625</LongitudeDegrees>
            </Position>
            <AltitudeMeters>17</AltitudeMeters>
            <DistanceMeters>NAN</DistanceMeters>
          </Trackpoint>
          <Trackpoint>
            <Time>2022-07-13T09:51:17.000Z</Time>
            <Position>
              <LatitudeDegrees>43.43965482898056507110595703125</LatitudeDegrees>
              <LongitudeDegrees>-3.45527370460331439971923828125</LongitudeDegrees>
            </Position>
            <AltitudeMeters>16.6000003814697265625</AltitudeMeters>
            <DistanceMeters>NAN</DistanceMeters>
          </Trackpoint>
          <Trackpoint>
            <Time>2022-07-13T09:51:20.000Z</Time>
            <Position>
              <LatitudeDegrees>43.43969288282096385955810546875</LatitudeDegrees>
              <LongitudeDegrees>-3.45526733435690402984619140625</LongitudeDegrees>
            </Position>
            <AltitudeMeters>16.6000003814697265625</AltitudeMeters>
            <DistanceMeters>NAN</DistanceMeters>
          </Trackpoint>
          <Trackpoint>
            <Time>2022-07-13T09:51:21.000Z</Time>
            <Position>
              <LatitudeDegrees>43.43970595858991146087646484375</LatitudeDegrees>
              <LongitudeDegrees>-3.4552704356610774993896484375</LongitudeDegrees>
            </Position>
            <AltitudeMeters>16.6000003814697265625</AltitudeMeters>
            <DistanceMeters>NAN</DistanceMeters>
          </Trackpoint>
          <Trackpoint>
            <Time>2022-07-13T09:51:23.000Z</Time>
            <Position>
              <LatitudeDegrees>43.43973152339458465576171875</LatitudeDegrees>
              <LongitudeDegrees>-3.455283008515834808349609375</LongitudeDegrees>
            </Position>
            <AltitudeMeters>16.6000003814697265625</AltitudeMeters>
            <DistanceMeters>NAN</DistanceMeters>
          </Trackpoint>
          <Trackpoint>
            <Time>2022-07-13T09:51:26.000Z</Time>
            <Position>
              <LatitudeDegrees>43.4397454373538494110107421875</LatitudeDegrees>
              <LongitudeDegrees>-3.45532181672751903533935546875</LongitudeDegrees>
            </Position>
            <AltitudeMeters>16.3999996185302734375</AltitudeMeters>
            <DistanceMeters>NAN</DistanceMeters>
          </Trackpoint>
          <Trackpoint>
            <Time>2022-07-13T09:51:27.000Z</Time>
            <Position>
              <LatitudeDegrees>43.43974317423999309539794921875</LatitudeDegrees>
              <LongitudeDegrees>-3.45533631742000579833984375</LongitudeDegrees>
            </Position>
            <AltitudeMeters>16.200000762939453125</AltitudeMeters>
            <DistanceMeters>NAN</DistanceMeters>
          </Trackpoint>
          <Trackpoint>
            <Time>2022-07-13T09:51:30.000Z</Time>
            <Position>
              <LatitudeDegrees>43.439735881984233856201171875</LatitudeDegrees>
              <LongitudeDegrees>-3.455365486443042755126953125</LongitudeDegrees>
            </Position>
            <AltitudeMeters>16</AltitudeMeters>
            <DistanceMeters>NAN</DistanceMeters>
          </Trackpoint>
          <Trackpoint>
            <Time>2022-07-13T09:51:32.000Z</Time>
            <Position>
              <LatitudeDegrees>43.439721800386905670166015625</LatitudeDegrees>
              <LongitudeDegrees>-3.45536406151950359344482421875</LongitudeDegrees>
            </Position>
            <AltitudeMeters>16</AltitudeMeters>
            <DistanceMeters>NAN</DistanceMeters>
          </Trackpoint>
          <Trackpoint>
            <Time>2022-07-13T09:51:37.000Z</Time>
            <Position>
              <LatitudeDegrees>43.4396914578974246978759765625</LatitudeDegrees>
              <LongitudeDegrees>-3.45531242899596691131591796875</LongitudeDegrees>
            </Position>
            <AltitudeMeters>16.200000762939453125</AltitudeMeters>
            <DistanceMeters>NAN</DistanceMeters>
          </Trackpoint>
          <Trackpoint>
            <Time>2022-07-13T09:51:38.000Z</Time>
            <Position>
              <LatitudeDegrees>43.43968014232814311981201171875</LatitudeDegrees>
              <LongitudeDegrees>-3.45530035905539989471435546875</LongitudeDegrees>
            </Position>
            <AltitudeMeters>16.200000762939453125</AltitudeMeters>
            <DistanceMeters>NAN</DistanceMeters>
          </Trackpoint>
          <Trackpoint>
            <Time>2022-07-13T09:51:40.000Z</Time>
            <Position>
              <LatitudeDegrees>43.43964879401028156280517578125</LatitudeDegrees>
              <LongitudeDegrees>-3.4552781470119953155517578125</LongitudeDegrees>
            </Position>
            <AltitudeMeters>16</AltitudeMeters>
            <DistanceMeters>NAN</DistanceMeters>
          </Trackpoint>
          <Trackpoint>
            <Time>2022-07-13T09:51:41.000Z</Time>
            <Position>
              <LatitudeDegrees>43.43963135965168476104736328125</LatitudeDegrees>
              <LongitudeDegrees>-3.45527605153620243072509765625</LongitudeDegrees>
            </Position>
            <AltitudeMeters>16</AltitudeMeters>
            <DistanceMeters>NAN</DistanceMeters>
          </Trackpoint>
          <Trackpoint>
            <Time>2022-07-13T09:51:46.000Z</Time>
            <Position>
              <LatitudeDegrees>43.439556844532489776611328125</LatitudeDegrees>
              <LongitudeDegrees>-3.45532357692718505859375</LongitudeDegrees>
            </Position>
            <AltitudeMeters>15.3999996185302734375</AltitudeMeters>
            <DistanceMeters>NAN</DistanceMeters>
          </Trackpoint>
          <Trackpoint>
            <Time>2022-07-13T09:51:47.000Z</Time>
            <Position>
              <LatitudeDegrees>43.43953647650778293609619140625</LatitudeDegrees>
              <LongitudeDegrees>-3.4553384967148303985595703125</LongitudeDegrees>
            </Position>
            <AltitudeMeters>15.19999980926513671875</AltitudeMeters>
            <DistanceMeters>NAN</DistanceMeters>
          </Trackpoint>
          <Trackpoint>
            <Time>2022-07-13T09:51:48.000Z</Time>
            <Position>
              <LatitudeDegrees>43.4395201317965984344482421875</LatitudeDegrees>
              <LongitudeDegrees>-3.45534277148544788360595703125</LongitudeDegrees>
            </Position>
            <AltitudeMeters>15</AltitudeMeters>
            <DistanceMeters>NAN</DistanceMeters>
          </Trackpoint>
          <Trackpoint>
            <Time>2022-07-13T09:51:50.000Z</Time>
            <Position>
              <LatitudeDegrees>43.43949104659259319305419921875</LatitudeDegrees>
              <LongitudeDegrees>-3.45532885752618312835693359375</LongitudeDegrees>
            </Position>
            <AltitudeMeters>14.80000019073486328125</AltitudeMeters>
            <DistanceMeters>NAN</DistanceMeters>
          </Trackpoint>
          <Trackpoint>
            <Time>2022-07-13T09:51:51.000Z</Time>
            <Position>
              <LatitudeDegrees>43.4394819103181362152099609375</LatitudeDegrees>
              <LongitudeDegrees>-3.4553130157291889190673828125</LongitudeDegrees>
            </Position>
            <AltitudeMeters>14.80000019073486328125</AltitudeMeters>
            <DistanceMeters>NAN</DistanceMeters>
          </Trackpoint>
          <Trackpoint>
            <Time>2022-07-13T09:51:57.000Z</Time>
            <Position>
              <LatitudeDegrees>43.43946975655853748321533203125</LatitudeDegrees>
              <LongitudeDegrees>-3.45519189722836017608642578125</LongitudeDegrees>
            </Position>
            <AltitudeMeters>16</AltitudeMeters>
            <DistanceMeters>NAN</DistanceMeters>
          </Trackpoint>
          <Trackpoint>
            <Time>2022-07-13T09:51:59.000Z</Time>
            <Position>
              <LatitudeDegrees>43.4394641406834125518798828125</LatitudeDegrees>
              <LongitudeDegrees>-3.455154597759246826171875</LongitudeDegrees>
            </Position>
            <AltitudeMeters>16.200000762939453125</AltitudeMeters>
            <DistanceMeters>NAN</DistanceMeters>
          </Trackpoint>
          <Trackpoint>
            <Time>2022-07-13T09:52:00.000Z</Time>
            <Position>
              <LatitudeDegrees>43.4394674934446811676025390625</LatitudeDegrees>
              <LongitudeDegrees>-3.455137498676776885986328125</LongitudeDegrees>
            </Position>
            <AltitudeMeters>16.200000762939453125</AltitudeMeters>
            <DistanceMeters>NAN</DistanceMeters>
          </Trackpoint>
          <Trackpoint>
            <Time>2022-07-13T09:52:03.000Z</Time>
            <Position>
              <LatitudeDegrees>43.43948450870811939239501953125</LatitudeDegrees>
              <LongitudeDegrees>-3.455105312168598175048828125</LongitudeDegrees>
            </Position>
            <AltitudeMeters>16.3999996185302734375</AltitudeMeters>
            <DistanceMeters>NAN</DistanceMeters>
          </Trackpoint>
          <Trackpoint>
            <Time>2022-07-13T09:52:10.000Z</Time>
            <Position>
              <LatitudeDegrees>43.43958408571779727935791015625</LatitudeDegrees>
              <LongitudeDegrees>-3.45509248785674571990966796875</LongitudeDegrees>
            </Position>
            <AltitudeMeters>15.6000003814697265625</AltitudeMeters>
            <DistanceMeters>NAN</DistanceMeters>
          </Trackpoint>
          <Trackpoint>
            <Time>2022-07-13T09:52:15.000Z</Time>
            <Position>
              <LatitudeDegrees>43.43961275182664394378662109375</LatitudeDegrees>
              <LongitudeDegrees>-3.45508687198162078857421875</LongitudeDegrees>
            </Position>
            <AltitudeMeters>15.3999996185302734375</AltitudeMeters>
            <DistanceMeters>NAN</DistanceMeters>
          </Trackpoint>
          <Trackpoint>
            <Time>2022-07-13T09:53:56.000Z</Time>
            <Position>
              <LatitudeDegrees>43.43957059085369110107421875</LatitudeDegrees>
              <LongitudeDegrees>-3.4551001153886318206787109375</LongitudeDegrees>
            </Position>
            <AltitudeMeters>13.19999980926513671875</AltitudeMeters>
            <DistanceMeters>NAN</DistanceMeters>
          </Trackpoint>
          <Trackpoint>
            <Time>2022-07-13T09:53:57.000Z</Time>
            <Position>
              <LatitudeDegrees>43.43955047428607940673828125</LatitudeDegrees>
              <LongitudeDegrees>-3.4550927393138408660888671875</LongitudeDegrees>
            </Position>
            <AltitudeMeters>13.19999980926513671875</AltitudeMeters>
            <DistanceMeters>NAN</DistanceMeters>
          </Trackpoint>
          <Trackpoint>
            <Time>2022-07-13T09:53:59.000Z</Time>
            <Position>
              <LatitudeDegrees>43.43951619230210781097412109375</LatitudeDegrees>
              <LongitudeDegrees>-3.45505879260599613189697265625</LongitudeDegrees>
            </Position>
            <AltitudeMeters>13.19999980926513671875</AltitudeMeters>
            <DistanceMeters>NAN</DistanceMeters>
          </Trackpoint>
          <Trackpoint>
            <Time>2022-07-13T09:54:01.000Z</Time>
            <Position>
              <LatitudeDegrees>43.43949087895452976226806640625</LatitudeDegrees>
              <LongitudeDegrees>-3.45500749535858631134033203125</LongitudeDegrees>
            </Position>
            <AltitudeMeters>13.80000019073486328125</AltitudeMeters>
            <DistanceMeters>NAN</DistanceMeters>
          </Trackpoint>
          <Trackpoint>
            <Time>2022-07-13T09:54:03.000Z</Time>
            <Position>
              <LatitudeDegrees>43.43947914429008960723876953125</LatitudeDegrees>
              <LongitudeDegrees>-3.45494479872286319732666015625</LongitudeDegrees>
            </Position>
            <AltitudeMeters>14.19999980926513671875</AltitudeMeters>
            <DistanceMeters>NAN</DistanceMeters>
          </Trackpoint>
          <Trackpoint>
            <Time>2022-07-13T09:54:06.000Z</Time>
            <Position>
              <LatitudeDegrees>43.43949255533516407012939453125</LatitudeDegrees>
              <LongitudeDegrees>-3.45483600161969661712646484375</LongitudeDegrees>
            </Position>
            <AltitudeMeters>15</AltitudeMeters>
            <DistanceMeters>NAN</DistanceMeters>
          </Trackpoint>
          <Trackpoint>
            <Time>2022-07-13T09:54:09.000Z</Time>
            <Position>
              <LatitudeDegrees>43.43951283954083919525146484375</LatitudeDegrees>
              <LongitudeDegrees>-3.45473508350551128387451171875</LongitudeDegrees>
            </Position>
            <AltitudeMeters>15.3999996185302734375</AltitudeMeters>
            <DistanceMeters>NAN</DistanceMeters>
          </Trackpoint>
          <Trackpoint>
            <Time>2022-07-13T09:54:10.000Z</Time>
            <Position>
              <LatitudeDegrees>43.43951694667339324951171875</LatitudeDegrees>
              <LongitudeDegrees>-3.45469887368381023406982421875</LongitudeDegrees>
            </Position>
            <AltitudeMeters>15.3999996185302734375</AltitudeMeters>
            <DistanceMeters>NAN</DistanceMeters>
          </Trackpoint>
          <Trackpoint>
            <Time>2022-07-13T09:54:13.000Z</Time>
            <Position>
              <LatitudeDegrees>43.43952742405235767364501953125</LatitudeDegrees>
              <LongitudeDegrees>-3.4546018950641155242919921875</LongitudeDegrees>
            </Position>
            <AltitudeMeters>15.3999996185302734375</AltitudeMeters>
            <DistanceMeters>NAN</DistanceMeters>
          </Trackpoint>
          <Trackpoint>
            <Time>2022-07-13T09:54:21.000Z</Time>
            <Position>
              <LatitudeDegrees>43.43952675350010395050048828125</LatitudeDegrees>
              <LongitudeDegrees>-3.4543363563716411590576171875</LongitudeDegrees>
            </Position>
            <AltitudeMeters>14.6000003814697265625</AltitudeMeters>
            <DistanceMeters>NAN</DistanceMeters>
          </Trackpoint>
          <Trackpoint>
            <Time>2022-07-13T09:54:26.000Z</Time>
            <Position>
              <LatitudeDegrees>43.43956128694117069244384765625</LatitudeDegrees>
              <LongitudeDegrees>-3.45422479324042797088623046875</LongitudeDegrees>
            </Position>
            <AltitudeMeters>14.19999980926513671875</AltitudeMeters>
            <DistanceMeters>NAN</DistanceMeters>
          </Trackpoint>
          <Trackpoint>
            <Time>2022-07-13T09:54:27.000Z</Time>
            <Position>
              <LatitudeDegrees>43.439568579196929931640625</LatitudeDegrees>
              <LongitudeDegrees>-3.45421917736530303955078125</LongitudeDegrees>
            </Position>
            <AltitudeMeters>14</AltitudeMeters>
            <DistanceMeters>NAN</DistanceMeters>
          </Trackpoint>
          <Trackpoint>
            <Time>2022-07-13T09:54:32.000Z</Time>
            <Position>
              <LatitudeDegrees>43.43958307988941669464111328125</LatitudeDegrees>
              <LongitudeDegrees>-3.454220853745937347412109375</LongitudeDegrees>
            </Position>
            <AltitudeMeters>13.6000003814697265625</AltitudeMeters>
            <DistanceMeters>NAN</DistanceMeters>
          </Trackpoint>
          <Trackpoint>
            <Time>2022-07-13T09:58:40.000Z</Time>
            <Position>
              <LatitudeDegrees>43.43957595527172088623046875</LatitudeDegrees>
              <LongitudeDegrees>-3.45420517958700656890869140625</LongitudeDegrees>
            </Position>
            <AltitudeMeters>17.6000003814697265625</AltitudeMeters>
            <DistanceMeters>NAN</DistanceMeters>
          </Trackpoint>
          <Trackpoint>
            <Time>2022-07-13T09:58:41.000Z</Time>
            <Position>
              <LatitudeDegrees>43.4395643882453441619873046875</LatitudeDegrees>
              <LongitudeDegrees>-3.45419629476964473724365234375</LongitudeDegrees>
            </Position>
            <AltitudeMeters>17.3999996185302734375</AltitudeMeters>
            <DistanceMeters>NAN</DistanceMeters>
          </Trackpoint>
          <Trackpoint>
            <Time>2022-07-13T09:58:44.000Z</Time>
            <Position>
              <LatitudeDegrees>43.4395446069538593292236328125</LatitudeDegrees>
              <LongitudeDegrees>-3.4541425667703151702880859375</LongitudeDegrees>
            </Position>
            <AltitudeMeters>17.200000762939453125</AltitudeMeters>
            <DistanceMeters>NAN</DistanceMeters>
          </Trackpoint>
          <Trackpoint>
            <Time>2022-07-13T09:58:45.000Z</Time>
            <Position>
              <LatitudeDegrees>43.4395449422299861907958984375</LatitudeDegrees>
              <LongitudeDegrees>-3.4541167505085468292236328125</LongitudeDegrees>
            </Position>
            <AltitudeMeters>17.799999237060546875</AltitudeMeters>
            <DistanceMeters>NAN</DistanceMeters>
          </Trackpoint>
          <Trackpoint>
            <Time>2022-07-13T09:58:52.000Z</Time>
            <Position>
              <LatitudeDegrees>43.43953798525035381317138671875</LatitudeDegrees>
              <LongitudeDegrees>-3.4539430774748325347900390625</LongitudeDegrees>
            </Position>
            <AltitudeMeters>18.6000003814697265625</AltitudeMeters>
            <DistanceMeters>NAN</DistanceMeters>
          </Trackpoint>
          <Trackpoint>
            <Time>2022-07-13T09:58:53.000Z</Time>
            <Position>
              <LatitudeDegrees>43.43953882344067096710205078125</LatitudeDegrees>
              <LongitudeDegrees>-3.45392388291656970977783203125</LongitudeDegrees>
            </Position>
            <AltitudeMeters>18.6000003814697265625</AltitudeMeters>
            <DistanceMeters>NAN</DistanceMeters>
          </Trackpoint>
          <Trackpoint>
            <Time>2022-07-13T09:59:00.000Z</Time>
            <Position>
              <LatitudeDegrees>43.43952558003365993499755859375</LatitudeDegrees>
              <LongitudeDegrees>-3.45374618656933307647705078125</LongitudeDegrees>
            </Position>
            <AltitudeMeters>18.799999237060546875</AltitudeMeters>
            <DistanceMeters>NAN</DistanceMeters>
          </Trackpoint>
          <Trackpoint>
            <Time>2022-07-13T09:59:10.000Z</Time>
            <Position>
              <LatitudeDegrees>43.43953312374651432037353515625</LatitudeDegrees>
              <LongitudeDegrees>-3.45345206558704376220703125</LongitudeDegrees>
            </Position>
            <AltitudeMeters>19</AltitudeMeters>
            <DistanceMeters>NAN</DistanceMeters>
          </Trackpoint>
          <Trackpoint>
            <Time>2022-07-13T09:59:20.000Z</Time>
            <Position>
              <LatitudeDegrees>43.43952809460461139678955078125</LatitudeDegrees>
              <LongitudeDegrees>-3.4531415998935699462890625</LongitudeDegrees>
            </Position>
            <AltitudeMeters>19.200000762939453125</AltitudeMeters>
            <DistanceMeters>NAN</DistanceMeters>
          </Trackpoint>
          <Trackpoint>
            <Time>2022-07-13T09:59:24.000Z</Time>
            <Position>
              <LatitudeDegrees>43.43954016454517841339111328125</LatitudeDegrees>
              <LongitudeDegrees>-3.4529979340732097625732421875</LongitudeDegrees>
            </Position>
            <AltitudeMeters>19</AltitudeMeters>
            <DistanceMeters>NAN</DistanceMeters>
          </Trackpoint>
          <Trackpoint>
            <Time>2022-07-13T09:59:27.000Z</Time>
            <Position>
              <LatitudeDegrees>43.4395436011254787445068359375</LatitudeDegrees>
              <LongitudeDegrees>-3.45289827324450016021728515625</LongitudeDegrees>
            </Position>
            <AltitudeMeters>19.6000003814697265625</AltitudeMeters>
            <DistanceMeters>NAN</DistanceMeters>
          </Trackpoint>
          <Trackpoint>
            <Time>2022-07-13T09:59:31.000Z</Time>
            <Position>
              <LatitudeDegrees>43.4395496360957622528076171875</LatitudeDegrees>
              <LongitudeDegrees>-3.4527779929339885711669921875</LongitudeDegrees>
            </Position>
            <AltitudeMeters>20</AltitudeMeters>
            <DistanceMeters>NAN</DistanceMeters>
          </Trackpoint>
          <Trackpoint>
            <Time>2022-07-13T09:59:40.000Z</Time>
            <Position>
              <LatitudeDegrees>43.43954016454517841339111328125</LatitudeDegrees>
              <LongitudeDegrees>-3.45246308483183383941650390625</LongitudeDegrees>
            </Position>
            <AltitudeMeters>19</AltitudeMeters>
            <DistanceMeters>NAN</DistanceMeters>
          </Trackpoint>
          <Trackpoint>
            <Time>2022-07-13T09:59:48.000Z</Time>
            <Position>
              <LatitudeDegrees>43.43954267911612987518310546875</LatitudeDegrees>
              <LongitudeDegrees>-3.45218061469495296478271484375</LongitudeDegrees>
            </Position>
            <AltitudeMeters>19.200000762939453125</AltitudeMeters>
            <DistanceMeters>NAN</DistanceMeters>
          </Trackpoint>
          <Trackpoint>
            <Time>2022-07-13T09:59:54.000Z</Time>
            <Position>
              <LatitudeDegrees>43.4395833313465118408203125</LatitudeDegrees>
              <LongitudeDegrees>-3.4519974701106548309326171875</LongitudeDegrees>
            </Position>
            <AltitudeMeters>19.200000762939453125</AltitudeMeters>
            <DistanceMeters>NAN</DistanceMeters>
          </Trackpoint>
          <Trackpoint>
            <Time>2022-07-13T09:59:58.000Z</Time>
            <Position>
              <LatitudeDegrees>43.4395848400890827178955078125</LatitudeDegrees>
              <LongitudeDegrees>-3.4518851526081562042236328125</LongitudeDegrees>
            </Position>
            <AltitudeMeters>18.6000003814697265625</AltitudeMeters>
            <DistanceMeters>NAN</DistanceMeters>
          </Trackpoint>
          <Trackpoint>
            <Time>2022-07-13T10:00:02.000Z</Time>
            <Position>
              <LatitudeDegrees>43.43957729637622833251953125</LatitudeDegrees>
              <LongitudeDegrees>-3.4517580829560756683349609375</LongitudeDegrees>
            </Position>
            <AltitudeMeters>18.3999996185302734375</AltitudeMeters>
            <DistanceMeters>NAN</DistanceMeters>
          </Trackpoint>
          <Trackpoint>
            <Time>2022-07-13T10:00:08.000Z</Time>
            <Position>
              <LatitudeDegrees>43.4395838342607021331787109375</LatitudeDegrees>
              <LongitudeDegrees>-3.45154828391969203948974609375</LongitudeDegrees>
            </Position>
            <AltitudeMeters>18.200000762939453125</AltitudeMeters>
            <DistanceMeters>NAN</DistanceMeters>
          </Trackpoint>
          <Trackpoint>
            <Time>2022-07-13T10:00:15.000Z</Time>
            <Position>
              <LatitudeDegrees>43.43958844430744647979736328125</LatitudeDegrees>
              <LongitudeDegrees>-3.45133177936077117919921875</LongitudeDegrees>
            </Position>
            <AltitudeMeters>17.799999237060546875</AltitudeMeters>
            <DistanceMeters>NAN</DistanceMeters>
          </Trackpoint>
          <Trackpoint>
            <Time>2022-07-13T10:00:16.000Z</Time>
            <Position>
              <LatitudeDegrees>43.43960252590477466583251953125</LatitudeDegrees>
              <LongitudeDegrees>-3.45131342299282550811767578125</LongitudeDegrees>
            </Position>
            <AltitudeMeters>17.799999237060546875</AltitudeMeters>
            <DistanceMeters>NAN</DistanceMeters>
          </Trackpoint>
          <Trackpoint>
            <Time>2022-07-13T10:00:21.000Z</Time>
            <Position>
              <LatitudeDegrees>43.4397092275321483612060546875</LatitudeDegrees>
              <LongitudeDegrees>-3.45127168111503124237060546875</LongitudeDegrees>
            </Position>
            <AltitudeMeters>18</AltitudeMeters>
            <DistanceMeters>NAN</DistanceMeters>
          </Trackpoint>
          <Trackpoint>
            <Time>2022-07-13T10:00:24.000Z</Time>
            <Position>
              <LatitudeDegrees>43.43976505100727081298828125</LatitudeDegrees>
              <LongitudeDegrees>-3.45130336470901966094970703125</LongitudeDegrees>
            </Position>
            <AltitudeMeters>17.6000003814697265625</AltitudeMeters>
            <DistanceMeters>NAN</DistanceMeters>
          </Trackpoint>
          <Trackpoint>
            <Time>2022-07-13T10:00:27.000Z</Time>
            <Position>
              <LatitudeDegrees>43.4397737681865692138671875</LatitudeDegrees>
              <LongitudeDegrees>-3.45130705274641513824462890625</LongitudeDegrees>
            </Position>
            <AltitudeMeters>17.200000762939453125</AltitudeMeters>
            <DistanceMeters>NAN</DistanceMeters>
          </Trackpoint>
          <Trackpoint>
            <Time>2022-07-13T10:01:24.000Z</Time>
            <Position>
              <LatitudeDegrees>43.43964292667806148529052734375</LatitudeDegrees>
              <LongitudeDegrees>-3.4512479603290557861328125</LongitudeDegrees>
            </Position>
            <AltitudeMeters>14.80000019073486328125</AltitudeMeters>
            <DistanceMeters>NAN</DistanceMeters>
          </Trackpoint>
          <Trackpoint>
            <Time>2022-07-13T10:01:25.000Z</Time>
            <Position>
              <LatitudeDegrees>43.439638651907444000244140625</LatitudeDegrees>
              <LongitudeDegrees>-3.45128056593239307403564453125</LongitudeDegrees>
            </Position>
            <AltitudeMeters>15</AltitudeMeters>
            <DistanceMeters>NAN</DistanceMeters>
          </Trackpoint>
          <Trackpoint>
            <Time>2022-07-13T10:01:26.000Z</Time>
            <Position>
              <LatitudeDegrees>43.43964225612580776214599609375</LatitudeDegrees>
              <LongitudeDegrees>-3.451316691935062408447265625</LongitudeDegrees>
            </Position>
            <AltitudeMeters>15.19999980926513671875</AltitudeMeters>
            <DistanceMeters>NAN</DistanceMeters>
          </Trackpoint>
          <Trackpoint>
            <Time>2022-07-13T10:01:30.000Z</Time>
            <Position>
              <LatitudeDegrees>43.43970729969441890716552734375</LatitudeDegrees>
              <LongitudeDegrees>-3.4514383971691131591796875</LongitudeDegrees>
            </Position>
            <AltitudeMeters>15.3999996185302734375</AltitudeMeters>
            <DistanceMeters>NAN</DistanceMeters>
          </Trackpoint>
          <Trackpoint>
            <Time>2022-07-13T10:01:37.000Z</Time>
            <Position>
              <LatitudeDegrees>43.4398664720356464385986328125</LatitudeDegrees>
              <LongitudeDegrees>-3.45153587870299816131591796875</LongitudeDegrees>
            </Position>
            <AltitudeMeters>15.3999996185302734375</AltitudeMeters>
            <DistanceMeters>NAN</DistanceMeters>
          </Trackpoint>
          <Trackpoint>
            <Time>2022-07-13T10:01:44.000Z</Time>
            <Position>
              <LatitudeDegrees>43.44002497382462024688720703125</LatitudeDegrees>
              <LongitudeDegrees>-3.4515917859971523284912109375</LongitudeDegrees>
            </Position>
            <AltitudeMeters>15.3999996185302734375</AltitudeMeters>
            <DistanceMeters>NAN</DistanceMeters>
          </Trackpoint>
          <Trackpoint>
            <Time>2022-07-13T10:01:45.000Z</Time>
            <Position>
              <LatitudeDegrees>43.4400438331067562103271484375</LatitudeDegrees>
              <LongitudeDegrees>-3.45160980708897113800048828125</LongitudeDegrees>
            </Position>
            <AltitudeMeters>15.19999980926513671875</AltitudeMeters>
            <DistanceMeters>NAN</DistanceMeters>
          </Trackpoint>
          <Trackpoint>
            <Time>2022-07-13T10:01:48.000Z</Time>
            <Position>
              <LatitudeDegrees>43.4400642849504947662353515625</LatitudeDegrees>
              <LongitudeDegrees>-3.45169798471033573150634765625</LongitudeDegrees>
            </Position>
            <AltitudeMeters>15</AltitudeMeters>
            <DistanceMeters>NAN</DistanceMeters>
          </Trackpoint>
          <Trackpoint>
            <Time>2022-07-13T10:01:55.000Z</Time>
            <Position>
              <LatitudeDegrees>43.4400740079581737518310546875</LatitudeDegrees>
              <LongitudeDegrees>-3.451938629150390625</LongitudeDegrees>
            </Position>
            <AltitudeMeters>14.80000019073486328125</AltitudeMeters>
            <DistanceMeters>NAN</DistanceMeters>
          </Trackpoint>
          <Trackpoint>
            <Time>2022-07-13T10:01:56.000Z</Time>
            <Position>
              <LatitudeDegrees>43.4400857426226139068603515625</LatitudeDegrees>
              <LongitudeDegrees>-3.45196134410798549652099609375</LongitudeDegrees>
            </Position>
            <AltitudeMeters>15</AltitudeMeters>
            <DistanceMeters>NAN</DistanceMeters>
          </Trackpoint>
          <Trackpoint>
            <Time>2022-07-13T10:01:59.000Z</Time>
            <Position>
              <LatitudeDegrees>43.44014433212578296661376953125</LatitudeDegrees>
              <LongitudeDegrees>-3.451997973024845123291015625</LongitudeDegrees>
            </Position>
            <AltitudeMeters>15</AltitudeMeters>
            <DistanceMeters>NAN</DistanceMeters>
          </Trackpoint>
          <Trackpoint>
            <Time>2022-07-13T10:02:01.000Z</Time>
            <Position>
              <LatitudeDegrees>43.44019294716417789459228515625</LatitudeDegrees>
              <LongitudeDegrees>-3.45198892056941986083984375</LongitudeDegrees>
            </Position>
            <AltitudeMeters>15.19999980926513671875</AltitudeMeters>
            <DistanceMeters>NAN</DistanceMeters>
          </Trackpoint>
          <Trackpoint>
            <Time>2022-07-13T10:02:10.000Z</Time>
            <Position>
              <LatitudeDegrees>43.44047055579721927642822265625</LatitudeDegrees>
              <LongitudeDegrees>-3.452010713517665863037109375</LongitudeDegrees>
            </Position>
            <AltitudeMeters>15</AltitudeMeters>
            <DistanceMeters>NAN</DistanceMeters>
          </Trackpoint>
          <Trackpoint>
            <Time>2022-07-13T10:02:18.000Z</Time>
            <Position>
              <LatitudeDegrees>43.4407029859721660614013671875</LatitudeDegrees>
              <LongitudeDegrees>-3.45200660638511180877685546875</LongitudeDegrees>
            </Position>
            <AltitudeMeters>15.19999980926513671875</AltitudeMeters>
            <DistanceMeters>NAN</DistanceMeters>
          </Trackpoint>
          <Trackpoint>
            <Time>2022-07-13T10:02:24.000Z</Time>
            <Position>
              <LatitudeDegrees>43.440826199948787689208984375</LatitudeDegrees>
              <LongitudeDegrees>-3.45198883675038814544677734375</LongitudeDegrees>
            </Position>
            <AltitudeMeters>15</AltitudeMeters>
            <DistanceMeters>NAN</DistanceMeters>
          </Trackpoint>
          <Trackpoint>
            <Time>2022-07-13T10:02:28.000Z</Time>
            <Position>
              <LatitudeDegrees>43.44085494987666606903076171875</LatitudeDegrees>
              <LongitudeDegrees>-3.451965115964412689208984375</LongitudeDegrees>
            </Position>
            <AltitudeMeters>14.80000019073486328125</AltitudeMeters>
            <DistanceMeters>NAN</DistanceMeters>
          </Trackpoint>
          <Trackpoint>
            <Time>2022-07-13T10:03:27.000Z</Time>
            <Position>
              <LatitudeDegrees>43.44080683775246143341064453125</LatitudeDegrees>
              <LongitudeDegrees>-3.45193368382751941680908203125</LongitudeDegrees>
            </Position>
            <AltitudeMeters>14.6000003814697265625</AltitudeMeters>
            <DistanceMeters>NAN</DistanceMeters>
          </Trackpoint>
          <Trackpoint>
            <Time>2022-07-13T10:03:30.000Z</Time>
            <Position>
              <LatitudeDegrees>43.4407740645110607147216796875</LatitudeDegrees>
              <LongitudeDegrees>-3.4518814645707607269287109375</LongitudeDegrees>
            </Position>
            <AltitudeMeters>14.6000003814697265625</AltitudeMeters>
            <DistanceMeters>NAN</DistanceMeters>
          </Trackpoint>
          <Trackpoint>
            <Time>2022-07-13T10:03:34.000Z</Time>
            <Position>
              <LatitudeDegrees>43.440751098096370697021484375</LatitudeDegrees>
              <LongitudeDegrees>-3.45191557891666889190673828125</LongitudeDegrees>
            </Position>
            <AltitudeMeters>14.3999996185302734375</AltitudeMeters>
            <DistanceMeters>NAN</DistanceMeters>
          </Trackpoint>
          <Trackpoint>
            <Time>2022-07-13T10:03:39.000Z</Time>
            <Position>
              <LatitudeDegrees>43.44084464013576507568359375</LatitudeDegrees>
              <LongitudeDegrees>-3.451937623322010040283203125</LongitudeDegrees>
            </Position>
            <AltitudeMeters>14.3999996185302734375</AltitudeMeters>
            <DistanceMeters>NAN</DistanceMeters>
          </Trackpoint>
          <Trackpoint>
            <Time>2022-07-13T10:03:45.000Z</Time>
            <Position>
              <LatitudeDegrees>43.4409822709858417510986328125</LatitudeDegrees>
              <LongitudeDegrees>-3.451976515352725982666015625</LongitudeDegrees>
            </Position>
            <AltitudeMeters>14.80000019073486328125</AltitudeMeters>
            <DistanceMeters>NAN</DistanceMeters>
          </Trackpoint>
          <Trackpoint>
            <Time>2022-07-13T10:03:51.000Z</Time>
            <Position>
              <LatitudeDegrees>43.44113691709935665130615234375</LatitudeDegrees>
              <LongitudeDegrees>-3.4520097076892852783203125</LongitudeDegrees>
            </Position>
            <AltitudeMeters>14</AltitudeMeters>
            <DistanceMeters>NAN</DistanceMeters>
          </Trackpoint>
          <Trackpoint>
            <Time>2022-07-13T10:03:57.000Z</Time>
            <Position>
              <LatitudeDegrees>43.4412970952689647674560546875</LatitudeDegrees>
              <LongitudeDegrees>-3.4520752541720867156982421875</LongitudeDegrees>
            </Position>
            <AltitudeMeters>14</AltitudeMeters>
            <DistanceMeters>NAN</DistanceMeters>
          </Trackpoint>
          <Trackpoint>
            <Time>2022-07-13T10:04:00.000Z</Time>
            <Position>
              <LatitudeDegrees>43.44137093983590602874755859375</LatitudeDegrees>
              <LongitudeDegrees>-3.4521057642996311187744140625</LongitudeDegrees>
            </Position>
            <AltitudeMeters>14</AltitudeMeters>
            <DistanceMeters>NAN</DistanceMeters>
          </Trackpoint>
          <Trackpoint>
            <Time>2022-07-13T10:04:06.000Z</Time>
            <Position>
              <LatitudeDegrees>43.44153505750000476837158203125</LatitudeDegrees>
              <LongitudeDegrees>-3.45207366161048412322998046875</LongitudeDegrees>
            </Position>
            <AltitudeMeters>14.3999996185302734375</AltitudeMeters>
            <DistanceMeters>NAN</DistanceMeters>
          </Trackpoint>
          <Trackpoint>
            <Time>2022-07-13T10:04:11.000Z</Time>
            <Position>
              <LatitudeDegrees>43.44168174080550670623779296875</LatitudeDegrees>
              <LongitudeDegrees>-3.4520631842315196990966796875</LongitudeDegrees>
            </Position>
            <AltitudeMeters>14.3999996185302734375</AltitudeMeters>
            <DistanceMeters>NAN</DistanceMeters>
          </Trackpoint>
          <Trackpoint>
            <Time>2022-07-13T10:04:17.000Z</Time>
            <Position>
              <LatitudeDegrees>43.44186656177043914794921875</LatitudeDegrees>
              <LongitudeDegrees>-3.4521114639937877655029296875</LongitudeDegrees>
            </Position>
            <AltitudeMeters>14.6000003814697265625</AltitudeMeters>
            <DistanceMeters>NAN</DistanceMeters>
          </Trackpoint>
          <Trackpoint>
            <Time>2022-07-13T10:04:24.000Z</Time>
            <Position>
              <LatitudeDegrees>43.44208189286291599273681640625</LatitudeDegrees>
              <LongitudeDegrees>-3.45223291777074337005615234375</LongitudeDegrees>
            </Position>
            <AltitudeMeters>14.6000003814697265625</AltitudeMeters>
            <DistanceMeters>NAN</DistanceMeters>
          </Trackpoint>
          <Trackpoint>
            <Time>2022-07-13T10:04:31.000Z</Time>
            <Position>
              <LatitudeDegrees>43.44230099581182003021240234375</LatitudeDegrees>
              <LongitudeDegrees>-3.4523652680218219757080078125</LongitudeDegrees>
            </Position>
            <AltitudeMeters>14.80000019073486328125</AltitudeMeters>
            <DistanceMeters>NAN</DistanceMeters>
          </Trackpoint>
          <Trackpoint>
            <Time>2022-07-13T10:04:38.000Z</Time>
            <Position>
              <LatitudeDegrees>43.442509286105632781982421875</LatitudeDegrees>
              <LongitudeDegrees>-3.452492170035839080810546875</LongitudeDegrees>
            </Position>
            <AltitudeMeters>14.6000003814697265625</AltitudeMeters>
            <DistanceMeters>NAN</DistanceMeters>
          </Trackpoint>
          <Trackpoint>
            <Time>2022-07-13T10:04:39.000Z</Time>
            <Position>
              <LatitudeDegrees>43.442523367702960968017578125</LatitudeDegrees>
              <LongitudeDegrees>-3.45252259634435176849365234375</LongitudeDegrees>
            </Position>
            <AltitudeMeters>14.6000003814697265625</AltitudeMeters>
            <DistanceMeters>NAN</DistanceMeters>
          </Trackpoint>
          <Trackpoint>
            <Time>2022-07-13T10:04:41.000Z</Time>
            <Position>
              <LatitudeDegrees>43.44252630136907100677490234375</LatitudeDegrees>
              <LongitudeDegrees>-3.45258294604718685150146484375</LongitudeDegrees>
            </Position>
            <AltitudeMeters>14.6000003814697265625</AltitudeMeters>
            <DistanceMeters>NAN</DistanceMeters>
          </Trackpoint>
          <Trackpoint>
            <Time>2022-07-13T10:04:45.000Z</Time>
            <Position>
              <LatitudeDegrees>43.442502580583095550537109375</LatitudeDegrees>
              <LongitudeDegrees>-3.452778495848178863525390625</LongitudeDegrees>
            </Position>
            <AltitudeMeters>14.3999996185302734375</AltitudeMeters>
            <DistanceMeters>NAN</DistanceMeters>
          </Trackpoint>
          <Trackpoint>
            <Time>2022-07-13T10:04:47.000Z</Time>
            <Position>
              <LatitudeDegrees>43.442492187023162841796875</LatitudeDegrees>
              <LongitudeDegrees>-3.4528572857379913330078125</LongitudeDegrees>
            </Position>
            <AltitudeMeters>14.3999996185302734375</AltitudeMeters>
            <DistanceMeters>NAN</DistanceMeters>
          </Trackpoint>
          <Trackpoint>
            <Time>2022-07-13T10:04:53.000Z</Time>
            <Position>
              <LatitudeDegrees>43.44248078763484954833984375</LatitudeDegrees>
              <LongitudeDegrees>-3.45314403064548969268798828125</LongitudeDegrees>
            </Position>
            <AltitudeMeters>14.3999996185302734375</AltitudeMeters>
            <DistanceMeters>NAN</DistanceMeters>
          </Trackpoint>
          <Trackpoint>
            <Time>2022-07-13T10:04:59.000Z</Time>
            <Position>
              <LatitudeDegrees>43.44247114844620227813720703125</LatitudeDegrees>
              <LongitudeDegrees>-3.4534364752471446990966796875</LongitudeDegrees>
            </Position>
            <AltitudeMeters>14.3999996185302734375</AltitudeMeters>
            <DistanceMeters>NAN</DistanceMeters>
          </Trackpoint>
          <Trackpoint>
            <Time>2022-07-13T10:05:04.000Z</Time>
            <Position>
              <LatitudeDegrees>43.4424561448395252227783203125</LatitudeDegrees>
              <LongitudeDegrees>-3.453671000897884368896484375</LongitudeDegrees>
            </Position>
            <AltitudeMeters>14.3999996185302734375</AltitudeMeters>
            <DistanceMeters>NAN</DistanceMeters>
          </Trackpoint>
          <Trackpoint>
            <Time>2022-07-13T10:05:09.000Z</Time>
            <Position>
              <LatitudeDegrees>43.44242739491164684295654296875</LatitudeDegrees>
              <LongitudeDegrees>-3.453927151858806610107421875</LongitudeDegrees>
            </Position>
            <AltitudeMeters>14.19999980926513671875</AltitudeMeters>
            <DistanceMeters>NAN</DistanceMeters>
          </Trackpoint>
          <Trackpoint>
            <Time>2022-07-13T10:05:15.000Z</Time>
            <Position>
              <LatitudeDegrees>43.442427478730678558349609375</LatitudeDegrees>
              <LongitudeDegrees>-3.45418221317231655120849609375</LongitudeDegrees>
            </Position>
            <AltitudeMeters>14.19999980926513671875</AltitudeMeters>
            <DistanceMeters>NAN</DistanceMeters>
          </Trackpoint>
          <Trackpoint>
            <Time>2022-07-13T10:05:17.000Z</Time>
            <Position>
              <LatitudeDegrees>43.44246176071465015411376953125</LatitudeDegrees>
              <LongitudeDegrees>-3.45422194339334964752197265625</LongitudeDegrees>
            </Position>
            <AltitudeMeters>14.3999996185302734375</AltitudeMeters>
            <DistanceMeters>NAN</DistanceMeters>
          </Trackpoint>
          <Trackpoint>
            <Time>2022-07-13T10:05:18.000Z</Time>
            <Position>
              <LatitudeDegrees>43.4424876607954502105712890625</LatitudeDegrees>
              <LongitudeDegrees>-3.4542225301265716552734375</LongitudeDegrees>
            </Position>
            <AltitudeMeters>14.6000003814697265625</AltitudeMeters>
            <DistanceMeters>NAN</DistanceMeters>
          </Trackpoint>
          <Trackpoint>
            <Time>2022-07-13T10:05:26.000Z</Time>
            <Position>
              <LatitudeDegrees>43.4426772594451904296875</LatitudeDegrees>
              <LongitudeDegrees>-3.45423317514359951019287109375</LongitudeDegrees>
            </Position>
            <AltitudeMeters>14.80000019073486328125</AltitudeMeters>
            <DistanceMeters>NAN</DistanceMeters>
          </Trackpoint>
          <Trackpoint>
            <Time>2022-07-13T10:05:31.000Z</Time>
            <Position>
              <LatitudeDegrees>43.44280960969626903533935546875</LatitudeDegrees>
              <LongitudeDegrees>-3.45425010658800601959228515625</LongitudeDegrees>
            </Position>
            <AltitudeMeters>14.80000019073486328125</AltitudeMeters>
            <DistanceMeters>NAN</DistanceMeters>
          </Trackpoint>
          <Trackpoint>
            <Time>2022-07-13T10:05:34.000Z</Time>
            <Position>
              <LatitudeDegrees>43.442906253039836883544921875</LatitudeDegrees>
              <LongitudeDegrees>-3.45423636026680469512939453125</LongitudeDegrees>
            </Position>
            <AltitudeMeters>14.6000003814697265625</AltitudeMeters>
            <DistanceMeters>NAN</DistanceMeters>
          </Trackpoint>
          <Trackpoint>
            <Time>2022-07-13T10:05:40.000Z</Time>
            <Position>
              <LatitudeDegrees>43.4430445544421672821044921875</LatitudeDegrees>
              <LongitudeDegrees>-3.45421406440436840057373046875</LongitudeDegrees>
            </Position>
            <AltitudeMeters>14.19999980926513671875</AltitudeMeters>
            <DistanceMeters>NAN</DistanceMeters>
          </Trackpoint>
          <Trackpoint>
            <Time>2022-07-13T10:05:41.000Z</Time>
            <Position>
              <LatitudeDegrees>43.443065173923969268798828125</LatitudeDegrees>
              <LongitudeDegrees>-3.4542332589626312255859375</LongitudeDegrees>
            </Position>
            <AltitudeMeters>14</AltitudeMeters>
            <DistanceMeters>NAN</DistanceMeters>
          </Trackpoint>
          <Trackpoint>
            <Time>2022-07-13T10:05:44.000Z</Time>
            <Position>
              <LatitudeDegrees>43.44310448504984378814697265625</LatitudeDegrees>
              <LongitudeDegrees>-3.4543564729392528533935546875</LongitudeDegrees>
            </Position>
            <AltitudeMeters>14.19999980926513671875</AltitudeMeters>
            <DistanceMeters>NAN</DistanceMeters>
          </Trackpoint>
          <Trackpoint>
            <Time>2022-07-13T10:05:47.000Z</Time>
            <Position>
              <LatitudeDegrees>43.44312258996069431304931640625</LatitudeDegrees>
              <LongitudeDegrees>-3.45448764972388744354248046875</LongitudeDegrees>
            </Position>
            <AltitudeMeters>14</AltitudeMeters>
            <DistanceMeters>NAN</DistanceMeters>
          </Trackpoint>
          <Trackpoint>
            <Time>2022-07-13T10:05:50.000Z</Time>
            <Position>
              <LatitudeDegrees>43.44313801266252994537353515625</LatitudeDegrees>
              <LongitudeDegrees>-3.4545951895415782928466796875</LongitudeDegrees>
            </Position>
            <AltitudeMeters>14.19999980926513671875</AltitudeMeters>
            <DistanceMeters>NAN</DistanceMeters>
          </Trackpoint>
          <Trackpoint>
            <Time>2022-07-13T10:05:57.000Z</Time>
            <Position>
              <LatitudeDegrees>43.44317204318940639495849609375</LatitudeDegrees>
              <LongitudeDegrees>-3.4548416174948215484619140625</LongitudeDegrees>
            </Position>
            <AltitudeMeters>14.19999980926513671875</AltitudeMeters>
            <DistanceMeters>NAN</DistanceMeters>
          </Trackpoint>
          <Trackpoint>
            <Time>2022-07-13T10:06:06.000Z</Time>
            <Position>
              <LatitudeDegrees>43.4431826882064342498779296875</LatitudeDegrees>
              <LongitudeDegrees>-3.45521586947143077850341796875</LongitudeDegrees>
            </Position>
            <AltitudeMeters>14.19999980926513671875</AltitudeMeters>
            <DistanceMeters>NAN</DistanceMeters>
          </Trackpoint>
          <Trackpoint>
            <Time>2022-07-13T10:06:10.000Z</Time>
            <Position>
              <LatitudeDegrees>43.4431786648929119110107421875</LatitudeDegrees>
              <LongitudeDegrees>-3.45527756027877330780029296875</LongitudeDegrees>
            </Position>
            <AltitudeMeters>14</AltitudeMeters>
            <DistanceMeters>NAN</DistanceMeters>
          </Trackpoint>
          <Trackpoint>
            <Time>2022-07-13T10:06:11.000Z</Time>
            <Position>
              <LatitudeDegrees>43.443176485598087310791015625</LatitudeDegrees>
              <LongitudeDegrees>-3.45528401434421539306640625</LongitudeDegrees>
            </Position>
            <AltitudeMeters>14</AltitudeMeters>
            <DistanceMeters>NAN</DistanceMeters>
          </Trackpoint>
          <Trackpoint>
            <Time>2022-07-13T10:06:13.000Z</Time>
            <Position>
              <LatitudeDegrees>43.44317254610359668731689453125</LatitudeDegrees>
              <LongitudeDegrees>-3.455291055142879486083984375</LongitudeDegrees>
            </Position>
            <AltitudeMeters>13.80000019073486328125</AltitudeMeters>
            <DistanceMeters>NAN</DistanceMeters>
          </Trackpoint>
          <Trackpoint>
            <Time>2022-07-13T10:14:56.000Z</Time>
            <Position>
              <LatitudeDegrees>43.44328142702579498291015625</LatitudeDegrees>
              <LongitudeDegrees>-3.45579204149544239044189453125</LongitudeDegrees>
            </Position>
            <AltitudeMeters>19.6000003814697265625</AltitudeMeters>
            <DistanceMeters>NAN</DistanceMeters>
          </Trackpoint>
          <Trackpoint>
            <Time>2022-07-13T10:14:57.000Z</Time>
            <Position>
              <LatitudeDegrees>43.44315879978239536285400390625</LatitudeDegrees>
              <LongitudeDegrees>-3.4555071406066417694091796875</LongitudeDegrees>
            </Position>
            <AltitudeMeters>19.6000003814697265625</AltitudeMeters>
            <DistanceMeters>NAN</DistanceMeters>
          </Trackpoint>
          <Trackpoint>
            <Time>2022-07-13T10:15:00.000Z</Time>
            <Position>
              <LatitudeDegrees>43.44308026134967803955078125</LatitudeDegrees>
              <LongitudeDegrees>-3.4557807259261608123779296875</LongitudeDegrees>
            </Position>
            <AltitudeMeters>20</AltitudeMeters>
            <DistanceMeters>NAN</DistanceMeters>
          </Trackpoint>
          <Trackpoint>
            <Time>2022-07-13T10:15:02.000Z</Time>
            <Position>
              <LatitudeDegrees>43.44313256442546844482421875</LatitudeDegrees>
              <LongitudeDegrees>-3.45571962185204029083251953125</LongitudeDegrees>
            </Position>
            <AltitudeMeters>20</AltitudeMeters>
            <DistanceMeters>NAN</DistanceMeters>
          </Trackpoint>
          <Trackpoint>
            <Time>2022-07-13T10:15:05.000Z</Time>
            <Position>
              <LatitudeDegrees>43.44317573122680187225341796875</LatitudeDegrees>
              <LongitudeDegrees>-3.455692045390605926513671875</LongitudeDegrees>
            </Position>
            <AltitudeMeters>19.799999237060546875</AltitudeMeters>
            <DistanceMeters>NAN</DistanceMeters>
          </Trackpoint>
          <Trackpoint>
            <Time>2022-07-13T10:15:07.000Z</Time>
            <Position>
              <LatitudeDegrees>43.44321009702980518341064453125</LatitudeDegrees>
              <LongitudeDegrees>-3.4556275047361850738525390625</LongitudeDegrees>
            </Position>
            <AltitudeMeters>19.6000003814697265625</AltitudeMeters>
            <DistanceMeters>NAN</DistanceMeters>
          </Trackpoint>
          <Trackpoint>
            <Time>2022-07-13T10:15:09.000Z</Time>
            <Position>
              <LatitudeDegrees>43.44321437180042266845703125</LatitudeDegrees>
              <LongitudeDegrees>-3.4556107409298419952392578125</LongitudeDegrees>
            </Position>
            <AltitudeMeters>19.3999996185302734375</AltitudeMeters>
            <DistanceMeters>NAN</DistanceMeters>
          </Trackpoint>
          <Trackpoint>
            <Time>2022-07-13T10:15:13.000Z</Time>
            <Position>
              <LatitudeDegrees>43.4431116096675395965576171875</LatitudeDegrees>
              <LongitudeDegrees>-3.4555413387715816497802734375</LongitudeDegrees>
            </Position>
            <AltitudeMeters>19</AltitudeMeters>
            <DistanceMeters>NAN</DistanceMeters>
          </Trackpoint>
          <Trackpoint>
            <Time>2022-07-13T10:15:16.000Z</Time>
            <Position>
              <LatitudeDegrees>43.44305536709725856781005859375</LatitudeDegrees>
              <LongitudeDegrees>-3.45553991384804248809814453125</LongitudeDegrees>
            </Position>
            <AltitudeMeters>19.200000762939453125</AltitudeMeters>
            <DistanceMeters>NAN</DistanceMeters>
          </Trackpoint>
          <Trackpoint>
            <Time>2022-07-13T10:15:18.000Z</Time>
            <Position>
              <LatitudeDegrees>43.44307623803615570068359375</LatitudeDegrees>
              <LongitudeDegrees>-3.45551426522433757781982421875</LongitudeDegrees>
            </Position>
            <AltitudeMeters>19.3999996185302734375</AltitudeMeters>
            <DistanceMeters>NAN</DistanceMeters>
          </Trackpoint>
          <Trackpoint>
            <Time>2022-07-13T10:15:20.000Z</Time>
            <Position>
              <LatitudeDegrees>43.443029634654521942138671875</LatitudeDegrees>
              <LongitudeDegrees>-3.455434553325176239013671875</LongitudeDegrees>
            </Position>
            <AltitudeMeters>19.3999996185302734375</AltitudeMeters>
            <DistanceMeters>NAN</DistanceMeters>
          </Trackpoint>
          <Trackpoint>
            <Time>2022-07-13T10:15:22.000Z</Time>
            <Position>
              <LatitudeDegrees>43.44301999546587467193603515625</LatitudeDegrees>
              <LongitudeDegrees>-3.455433882772922515869140625</LongitudeDegrees>
            </Position>
            <AltitudeMeters>19.3999996185302734375</AltitudeMeters>
            <DistanceMeters>NAN</DistanceMeters>
          </Trackpoint>
          <Trackpoint>
            <Time>2022-07-13T10:15:25.000Z</Time>
            <Position>
              <LatitudeDegrees>43.4429835341870784759521484375</LatitudeDegrees>
              <LongitudeDegrees>-3.4555446915328502655029296875</LongitudeDegrees>
            </Position>
            <AltitudeMeters>19.200000762939453125</AltitudeMeters>
            <DistanceMeters>NAN</DistanceMeters>
          </Trackpoint>
          <Trackpoint>
            <Time>2022-07-13T10:15:26.000Z</Time>
            <Position>
              <LatitudeDegrees>43.44297724775969982147216796875</LatitudeDegrees>
              <LongitudeDegrees>-3.455578386783599853515625</LongitudeDegrees>
            </Position>
            <AltitudeMeters>19.200000762939453125</AltitudeMeters>
            <DistanceMeters>NAN</DistanceMeters>
          </Trackpoint>
          <Trackpoint>
            <Time>2022-07-13T10:15:27.000Z</Time>
            <Position>
              <LatitudeDegrees>43.4430096857249736785888671875</LatitudeDegrees>
              <LongitudeDegrees>-3.455588780343532562255859375</LongitudeDegrees>
            </Position>
            <AltitudeMeters>19.200000762939453125</AltitudeMeters>
            <DistanceMeters>NAN</DistanceMeters>
          </Trackpoint>
          <Trackpoint>
            <Time>2022-07-13T10:15:29.000Z</Time>
            <Position>
              <LatitudeDegrees>43.4430375136435031890869140625</LatitudeDegrees>
              <LongitudeDegrees>-3.45558383502066135406494140625</LongitudeDegrees>
            </Position>
            <AltitudeMeters>19</AltitudeMeters>
            <DistanceMeters>NAN</DistanceMeters>
          </Trackpoint>
          <Trackpoint>
            <Time>2022-07-13T10:15:35.000Z</Time>
            <Position>
              <LatitudeDegrees>43.44285101629793643951416015625</LatitudeDegrees>
              <LongitudeDegrees>-3.4557099826633930206298828125</LongitudeDegrees>
            </Position>
            <AltitudeMeters>19</AltitudeMeters>
            <DistanceMeters>NAN</DistanceMeters>
          </Trackpoint>
          <Trackpoint>
            <Time>2022-07-13T10:15:37.000Z</Time>
            <Position>
              <LatitudeDegrees>43.44279385171830654144287109375</LatitudeDegrees>
              <LongitudeDegrees>-3.4557473659515380859375</LongitudeDegrees>
            </Position>
            <AltitudeMeters>19</AltitudeMeters>
            <DistanceMeters>NAN</DistanceMeters>
          </Trackpoint>
          <Trackpoint>
            <Time>2022-07-13T10:15:39.000Z</Time>
            <Position>
              <LatitudeDegrees>43.44271204434335231781005859375</LatitudeDegrees>
              <LongitudeDegrees>-3.45577997155487537384033203125</LongitudeDegrees>
            </Position>
            <AltitudeMeters>19</AltitudeMeters>
            <DistanceMeters>NAN</DistanceMeters>
          </Trackpoint>
          <Trackpoint>
            <Time>2022-07-13T10:15:42.000Z</Time>
            <Position>
              <LatitudeDegrees>43.442485816776752471923828125</LatitudeDegrees>
              <LongitudeDegrees>-3.4558052010834217071533203125</LongitudeDegrees>
            </Position>
            <AltitudeMeters>18.799999237060546875</AltitudeMeters>
            <DistanceMeters>NAN</DistanceMeters>
          </Trackpoint>
          <Trackpoint>
            <Time>2022-07-13T10:15:44.000Z</Time>
            <Position>
              <LatitudeDegrees>43.4424169175326824188232421875</LatitudeDegrees>
              <LongitudeDegrees>-3.45584082417190074920654296875</LongitudeDegrees>
            </Position>
            <AltitudeMeters>18.799999237060546875</AltitudeMeters>
            <DistanceMeters>NAN</DistanceMeters>
          </Trackpoint>
          <Trackpoint>
            <Time>2022-07-13T10:15:45.000Z</Time>
            <Position>
              <LatitudeDegrees>43.44237643294036388397216796875</LatitudeDegrees>
              <LongitudeDegrees>-3.45586798153817653656005859375</LongitudeDegrees>
            </Position>
            <AltitudeMeters>18.799999237060546875</AltitudeMeters>
            <DistanceMeters>NAN</DistanceMeters>
          </Trackpoint>
          <Trackpoint>
            <Time>2022-07-13T10:15:46.000Z</Time>
            <Position>
              <LatitudeDegrees>43.442357070744037628173828125</LatitudeDegrees>
              <LongitudeDegrees>-3.45590150915086269378662109375</LongitudeDegrees>
            </Position>
            <AltitudeMeters>18.799999237060546875</AltitudeMeters>
            <DistanceMeters>NAN</DistanceMeters>
          </Trackpoint>
          <Trackpoint>
            <Time>2022-07-13T10:15:49.000Z</Time>
            <Position>
              <LatitudeDegrees>43.4423046000301837921142578125</LatitudeDegrees>
              <LongitudeDegrees>-3.45595917664468288421630859375</LongitudeDegrees>
            </Position>
            <AltitudeMeters>18.6000003814697265625</AltitudeMeters>
            <DistanceMeters>NAN</DistanceMeters>
          </Trackpoint>
          <Trackpoint>
            <Time>2022-07-13T10:15:50.000Z</Time>
            <Position>
              <LatitudeDegrees>43.4422888420522212982177734375</LatitudeDegrees>
              <LongitudeDegrees>-3.45598080195486545562744140625</LongitudeDegrees>
            </Position>
            <AltitudeMeters>18.6000003814697265625</AltitudeMeters>
            <DistanceMeters>NAN</DistanceMeters>
          </Trackpoint>
          <Trackpoint>
            <Time>2022-07-13T10:15:54.000Z</Time>
            <Position>
              <LatitudeDegrees>43.44226663000881671905517578125</LatitudeDegrees>
              <LongitudeDegrees>-3.456099070608615875244140625</LongitudeDegrees>
            </Position>
            <AltitudeMeters>18.3999996185302734375</AltitudeMeters>
            <DistanceMeters>NAN</DistanceMeters>
          </Trackpoint>
          <Trackpoint>
            <Time>2022-07-13T10:15:57.000Z</Time>
            <Position>
              <LatitudeDegrees>43.44226025976240634918212890625</LatitudeDegrees>
              <LongitudeDegrees>-3.4561984799802303314208984375</LongitudeDegrees>
            </Position>
            <AltitudeMeters>18.3999996185302734375</AltitudeMeters>
            <DistanceMeters>NAN</DistanceMeters>
          </Trackpoint>
          <Trackpoint>
            <Time>2022-07-13T10:16:00.000Z</Time>
            <Position>
              <LatitudeDegrees>43.442253805696964263916015625</LatitudeDegrees>
              <LongitudeDegrees>-3.45630333758890628814697265625</LongitudeDegrees>
            </Position>
            <AltitudeMeters>18.200000762939453125</AltitudeMeters>
            <DistanceMeters>NAN</DistanceMeters>
          </Trackpoint>
          <Trackpoint>
            <Time>2022-07-13T10:16:03.000Z</Time>
            <Position>
              <LatitudeDegrees>43.4422442503273487091064453125</LatitudeDegrees>
              <LongitudeDegrees>-3.45637525431811809539794921875</LongitudeDegrees>
            </Position>
            <AltitudeMeters>18</AltitudeMeters>
            <DistanceMeters>NAN</DistanceMeters>
          </Trackpoint>
          <Trackpoint>
            <Time>2022-07-13T10:16:05.000Z</Time>
            <Position>
              <LatitudeDegrees>43.44224064610898494720458984375</LatitudeDegrees>
              <LongitudeDegrees>-3.456378690898418426513671875</LongitudeDegrees>
            </Position>
            <AltitudeMeters>17.799999237060546875</AltitudeMeters>
            <DistanceMeters>NAN</DistanceMeters>
          </Trackpoint>
          <Trackpoint>
            <Time>2022-07-13T10:16:08.000Z</Time>
            <Position>
              <LatitudeDegrees>43.44223159365355968475341796875</LatitudeDegrees>
              <LongitudeDegrees>-3.45639788545668125152587890625</LongitudeDegrees>
            </Position>
            <AltitudeMeters>17.799999237060546875</AltitudeMeters>
            <DistanceMeters>NAN</DistanceMeters>
          </Trackpoint>
          <Trackpoint>
            <Time>2022-07-13T10:16:11.000Z</Time>
            <Position>
              <LatitudeDegrees>43.4422472678124904632568359375</LatitudeDegrees>
              <LongitudeDegrees>-3.4564187563955783843994140625</LongitudeDegrees>
            </Position>
            <AltitudeMeters>17.6000003814697265625</AltitudeMeters>
            <DistanceMeters>NAN</DistanceMeters>
          </Trackpoint>
          <Trackpoint>
            <Time>2022-07-13T10:16:12.000Z</Time>
            <Position>
              <LatitudeDegrees>43.44225388951599597930908203125</LatitudeDegrees>
              <LongitudeDegrees>-3.456412889063358306884765625</LongitudeDegrees>
            </Position>
            <AltitudeMeters>17.6000003814697265625</AltitudeMeters>
            <DistanceMeters>NAN</DistanceMeters>
          </Trackpoint>
          <Trackpoint>
            <Time>2022-07-13T10:16:15.000Z</Time>
            <Position>
              <LatitudeDegrees>43.442276604473590850830078125</LatitudeDegrees>
              <LongitudeDegrees>-3.4564284794032573699951171875</LongitudeDegrees>
            </Position>
            <AltitudeMeters>17.3999996185302734375</AltitudeMeters>
            <DistanceMeters>NAN</DistanceMeters>
          </Trackpoint>
          <Trackpoint>
            <Time>2022-07-13T10:16:21.000Z</Time>
            <Position>
              <LatitudeDegrees>43.442305438220500946044921875</LatitudeDegrees>
              <LongitudeDegrees>-3.45644499175250530242919921875</LongitudeDegrees>
            </Position>
            <AltitudeMeters>17.3999996185302734375</AltitudeMeters>
            <DistanceMeters>NAN</DistanceMeters>
          </Trackpoint>
          <Trackpoint>
            <Time>2022-07-13T10:16:27.000Z</Time>
            <Position>
              <LatitudeDegrees>43.4423173405230045318603515625</LatitudeDegrees>
              <LongitudeDegrees>-3.4564422257244586944580078125</LongitudeDegrees>
            </Position>
            <AltitudeMeters>16.799999237060546875</AltitudeMeters>
            <DistanceMeters>NAN</DistanceMeters>
          </Trackpoint>
          <Trackpoint>
            <Time>2022-07-13T10:16:32.000Z</Time>
            <Position>
              <LatitudeDegrees>43.4423441626131534576416015625</LatitudeDegrees>
              <LongitudeDegrees>-3.4564499370753765106201171875</LongitudeDegrees>
            </Position>
            <AltitudeMeters>16.3999996185302734375</AltitudeMeters>
            <DistanceMeters>NAN</DistanceMeters>
          </Trackpoint>
          <Trackpoint>
            <Time>2022-07-13T10:16:35.000Z</Time>
            <Position>
              <LatitudeDegrees>43.442366123199462890625</LatitudeDegrees>
              <LongitudeDegrees>-3.4564418904483318328857421875</LongitudeDegrees>
            </Position>
            <AltitudeMeters>16.200000762939453125</AltitudeMeters>
            <DistanceMeters>NAN</DistanceMeters>
          </Trackpoint>
          <Trackpoint>
            <Time>2022-07-13T10:16:45.000Z</Time>
            <Position>
              <LatitudeDegrees>43.44239973463118076324462890625</LatitudeDegrees>
              <LongitudeDegrees>-3.45642906613647937774658203125</LongitudeDegrees>
            </Position>
            <AltitudeMeters>16.200000762939453125</AltitudeMeters>
            <DistanceMeters>NAN</DistanceMeters>
          </Trackpoint>
          <Trackpoint>
            <Time>2022-07-13T10:16:50.000Z</Time>
            <Position>
              <LatitudeDegrees>43.4424494393169879913330078125</LatitudeDegrees>
              <LongitudeDegrees>-3.45638229511678218841552734375</LongitudeDegrees>
            </Position>
            <AltitudeMeters>16.200000762939453125</AltitudeMeters>
            <DistanceMeters>NAN</DistanceMeters>
          </Trackpoint>
          <Trackpoint>
            <Time>2022-07-13T10:16:51.000Z</Time>
            <Position>
              <LatitudeDegrees>43.44246092252433300018310546875</LatitudeDegrees>
              <LongitudeDegrees>-3.45636955462396144866943359375</LongitudeDegrees>
            </Position>
            <AltitudeMeters>16.200000762939453125</AltitudeMeters>
            <DistanceMeters>NAN</DistanceMeters>
          </Trackpoint>
          <Trackpoint>
            <Time>2022-07-13T10:17:02.000Z</Time>
            <Position>
              <LatitudeDegrees>43.442881107330322265625</LatitudeDegrees>
              <LongitudeDegrees>-3.45565072260797023773193359375</LongitudeDegrees>
            </Position>
            <AltitudeMeters>16.200000762939453125</AltitudeMeters>
            <DistanceMeters>NAN</DistanceMeters>
          </Trackpoint>
          <Trackpoint>
            <Time>2022-07-13T10:17:03.000Z</Time>
            <Position>
              <LatitudeDegrees>43.44286895357072353363037109375</LatitudeDegrees>
              <LongitudeDegrees>-3.45560663379728794097900390625</LongitudeDegrees>
            </Position>
            <AltitudeMeters>16.200000762939453125</AltitudeMeters>
            <DistanceMeters>NAN</DistanceMeters>
          </Trackpoint>
          <Trackpoint>
            <Time>2022-07-13T10:17:04.000Z</Time>
            <Position>
              <LatitudeDegrees>43.44287482090294361114501953125</LatitudeDegrees>
              <LongitudeDegrees>-3.4556023590266704559326171875</LongitudeDegrees>
            </Position>
            <AltitudeMeters>16.3999996185302734375</AltitudeMeters>
            <DistanceMeters>NAN</DistanceMeters>
          </Trackpoint>
          <Trackpoint>
            <Time>2022-07-13T10:17:08.000Z</Time>
            <Position>
              <LatitudeDegrees>43.4429037384688854217529296875</LatitudeDegrees>
              <LongitudeDegrees>-3.45564820803701877593994140625</LongitudeDegrees>
            </Position>
            <AltitudeMeters>16.200000762939453125</AltitudeMeters>
            <DistanceMeters>NAN</DistanceMeters>
          </Trackpoint>
          <Trackpoint>
            <Time>2022-07-13T10:17:13.000Z</Time>
            <Position>
              <LatitudeDegrees>43.4429738111793994903564453125</LatitudeDegrees>
              <LongitudeDegrees>-3.45564099960029125213623046875</LongitudeDegrees>
            </Position>
            <AltitudeMeters>16.200000762939453125</AltitudeMeters>
            <DistanceMeters>NAN</DistanceMeters>
          </Trackpoint>
          <Trackpoint>
            <Time>2022-07-13T10:19:32.000Z</Time>
            <Position>
              <LatitudeDegrees>43.44294858165085315704345703125</LatitudeDegrees>
              <LongitudeDegrees>-3.45572465099394321441650390625</LongitudeDegrees>
            </Position>
            <AltitudeMeters>15.80000019073486328125</AltitudeMeters>
            <DistanceMeters>NAN</DistanceMeters>
          </Trackpoint>
          <Trackpoint>
            <Time>2022-07-13T10:19:33.000Z</Time>
            <Position>
              <LatitudeDegrees>43.4429399482905864715576171875</LatitudeDegrees>
              <LongitudeDegrees>-3.4557471983134746551513671875</LongitudeDegrees>
            </Position>
            <AltitudeMeters>15.80000019073486328125</AltitudeMeters>
            <DistanceMeters>NAN</DistanceMeters>
          </Trackpoint>
          <Trackpoint>
            <Time>2022-07-13T10:19:34.000Z</Time>
            <Position>
              <LatitudeDegrees>43.44294237904250621795654296875</LatitudeDegrees>
              <LongitudeDegrees>-3.455762453377246856689453125</LongitudeDegrees>
            </Position>
            <AltitudeMeters>15.80000019073486328125</AltitudeMeters>
            <DistanceMeters>NAN</DistanceMeters>
          </Trackpoint>
          <Trackpoint>
            <Time>2022-07-13T10:19:37.000Z</Time>
            <Position>
              <LatitudeDegrees>43.44294606707990169525146484375</LatitudeDegrees>
              <LongitudeDegrees>-3.45578550361096858978271484375</LongitudeDegrees>
            </Position>
            <AltitudeMeters>15.6000003814697265625</AltitudeMeters>
            <DistanceMeters>NAN</DistanceMeters>
          </Trackpoint>
          <Trackpoint>
            <Time>2022-07-13T10:19:39.000Z</Time>
            <Position>
              <LatitudeDegrees>43.44295193441212177276611328125</LatitudeDegrees>
              <LongitudeDegrees>-3.45577930100262165069580078125</LongitudeDegrees>
            </Position>
            <AltitudeMeters>15.3999996185302734375</AltitudeMeters>
            <DistanceMeters>NAN</DistanceMeters>
          </Trackpoint>
          <Trackpoint>
            <Time>2022-07-13T10:29:16.000Z</Time>
            <Position>
              <LatitudeDegrees>43.4430462308228015899658203125</LatitudeDegrees>
              <LongitudeDegrees>-3.455736972391605377197265625</LongitudeDegrees>
            </Position>
            <AltitudeMeters>15</AltitudeMeters>
            <DistanceMeters>NAN</DistanceMeters>
          </Trackpoint>
          <Trackpoint>
            <Time>2022-07-13T10:29:17.000Z</Time>
            <Position>
              <LatitudeDegrees>43.4430690295994281768798828125</LatitudeDegrees>
              <LongitudeDegrees>-3.4557468630373477935791015625</LongitudeDegrees>
            </Position>
            <AltitudeMeters>15.19999980926513671875</AltitudeMeters>
            <DistanceMeters>NAN</DistanceMeters>
          </Trackpoint>
          <Trackpoint>
            <Time>2022-07-13T10:29:24.000Z</Time>
            <Position>
              <LatitudeDegrees>43.4432366676628589630126953125</LatitudeDegrees>
              <LongitudeDegrees>-3.45574258826673030853271484375</LongitudeDegrees>
            </Position>
            <AltitudeMeters>16</AltitudeMeters>
            <DistanceMeters>NAN</DistanceMeters>
          </Trackpoint>
          <Trackpoint>
            <Time>2022-07-13T10:29:29.000Z</Time>
            <Position>
              <LatitudeDegrees>43.4433459676802158355712890625</LatitudeDegrees>
              <LongitudeDegrees>-3.45570914447307586669921875</LongitudeDegrees>
            </Position>
            <AltitudeMeters>16</AltitudeMeters>
            <DistanceMeters>NAN</DistanceMeters>
          </Trackpoint>
          <Trackpoint>
            <Time>2022-07-13T10:29:30.000Z</Time>
            <Position>
              <LatitudeDegrees>43.44336918555200099945068359375</LatitudeDegrees>
              <LongitudeDegrees>-3.45572196878492832183837890625</LongitudeDegrees>
            </Position>
            <AltitudeMeters>16</AltitudeMeters>
            <DistanceMeters>NAN</DistanceMeters>
          </Trackpoint>
          <Trackpoint>
            <Time>2022-07-13T10:29:33.000Z</Time>
            <Position>
              <LatitudeDegrees>43.4434304572641849517822265625</LatitudeDegrees>
              <LongitudeDegrees>-3.45570151694118976593017578125</LongitudeDegrees>
            </Position>
            <AltitudeMeters>15.80000019073486328125</AltitudeMeters>
            <DistanceMeters>NAN</DistanceMeters>
          </Trackpoint>
          <Trackpoint>
            <Time>2022-07-13T10:29:35.000Z</Time>
            <Position>
              <LatitudeDegrees>43.44348661601543426513671875</LatitudeDegrees>
              <LongitudeDegrees>-3.4556687436997890472412109375</LongitudeDegrees>
            </Position>
            <AltitudeMeters>15.80000019073486328125</AltitudeMeters>
            <DistanceMeters>NAN</DistanceMeters>
          </Trackpoint>
          <Trackpoint>
            <Time>2022-07-13T10:29:36.000Z</Time>
            <Position>
              <LatitudeDegrees>43.4435142762959003448486328125</LatitudeDegrees>
              <LongitudeDegrees>-3.45567586831748485565185546875</LongitudeDegrees>
            </Position>
            <AltitudeMeters>15.80000019073486328125</AltitudeMeters>
            <DistanceMeters>NAN</DistanceMeters>
          </Trackpoint>
          <Trackpoint>
            <Time>2022-07-13T10:29:39.000Z</Time>
            <Position>
              <LatitudeDegrees>43.4435940720140933990478515625</LatitudeDegrees>
              <LongitudeDegrees>-3.45571258105337619781494140625</LongitudeDegrees>
            </Position>
            <AltitudeMeters>15.80000019073486328125</AltitudeMeters>
            <DistanceMeters>NAN</DistanceMeters>
          </Trackpoint>
          <Trackpoint>
            <Time>2022-07-13T10:29:42.000Z</Time>
            <Position>
              <LatitudeDegrees>43.4436487220227718353271484375</LatitudeDegrees>
              <LongitudeDegrees>-3.4557133354246616363525390625</LongitudeDegrees>
            </Position>
            <AltitudeMeters>15.80000019073486328125</AltitudeMeters>
            <DistanceMeters>NAN</DistanceMeters>
          </Trackpoint>
          <Trackpoint>
            <Time>2022-07-13T10:29:44.000Z</Time>
            <Position>
              <LatitudeDegrees>43.44370915554463863372802734375</LatitudeDegrees>
              <LongitudeDegrees>-3.455736637115478515625</LongitudeDegrees>
            </Position>
            <AltitudeMeters>15.80000019073486328125</AltitudeMeters>
            <DistanceMeters>NAN</DistanceMeters>
          </Trackpoint>
          <Trackpoint>
            <Time>2022-07-13T10:29:47.000Z</Time>
            <Position>
              <LatitudeDegrees>43.4438244067132472991943359375</LatitudeDegrees>
              <LongitudeDegrees>-3.45574342645704746246337890625</LongitudeDegrees>
            </Position>
            <AltitudeMeters>16</AltitudeMeters>
            <DistanceMeters>NAN</DistanceMeters>
          </Trackpoint>
          <Trackpoint>
            <Time>2022-07-13T10:29:53.000Z</Time>
            <Position>
              <LatitudeDegrees>43.4439866803586483001708984375</LatitudeDegrees>
              <LongitudeDegrees>-3.45570302568376064300537109375</LongitudeDegrees>
            </Position>
            <AltitudeMeters>16</AltitudeMeters>
            <DistanceMeters>NAN</DistanceMeters>
          </Trackpoint>
          <Trackpoint>
            <Time>2022-07-13T10:29:55.000Z</Time>
            <Position>
              <LatitudeDegrees>43.4440339542925357818603515625</LatitudeDegrees>
              <LongitudeDegrees>-3.45571861602365970611572265625</LongitudeDegrees>
            </Position>
            <AltitudeMeters>16</AltitudeMeters>
            <DistanceMeters>NAN</DistanceMeters>
          </Trackpoint>
          <Trackpoint>
            <Time>2022-07-13T10:30:00.000Z</Time>
            <Position>
              <LatitudeDegrees>43.44418977387249469757080078125</LatitudeDegrees>
              <LongitudeDegrees>-3.45571844838559627532958984375</LongitudeDegrees>
            </Position>
            <AltitudeMeters>16.3999996185302734375</AltitudeMeters>
            <DistanceMeters>NAN</DistanceMeters>
          </Trackpoint>
          <Trackpoint>
            <Time>2022-07-13T10:30:07.000Z</Time>
            <Position>
              <LatitudeDegrees>43.44440770335495471954345703125</LatitudeDegrees>
              <LongitudeDegrees>-3.45574141480028629302978515625</LongitudeDegrees>
            </Position>
            <AltitudeMeters>16</AltitudeMeters>
            <DistanceMeters>NAN</DistanceMeters>
          </Trackpoint>
          <Trackpoint>
            <Time>2022-07-13T10:30:09.000Z</Time>
            <Position>
              <LatitudeDegrees>43.4444711543619632720947265625</LatitudeDegrees>
              <LongitudeDegrees>-3.45574560575187206268310546875</LongitudeDegrees>
            </Position>
            <AltitudeMeters>16</AltitudeMeters>
            <DistanceMeters>NAN</DistanceMeters>
          </Trackpoint>
          <Trackpoint>
            <Time>2022-07-13T10:30:12.000Z</Time>
            <Position>
              <LatitudeDegrees>43.44457953236997127532958984375</LatitudeDegrees>
              <LongitudeDegrees>-3.45574057660996913909912109375</LongitudeDegrees>
            </Position>
            <AltitudeMeters>16</AltitudeMeters>
            <DistanceMeters>NAN</DistanceMeters>
          </Trackpoint>
          <Trackpoint>
            <Time>2022-07-13T10:30:15.000Z</Time>
            <Position>
              <LatitudeDegrees>43.44468430615961551666259765625</LatitudeDegrees>
              <LongitudeDegrees>-3.45573236234486103057861328125</LongitudeDegrees>
            </Position>
            <AltitudeMeters>16</AltitudeMeters>
            <DistanceMeters>NAN</DistanceMeters>
          </Trackpoint>
          <Trackpoint>
            <Time>2022-07-13T10:30:16.000Z</Time>
            <Position>
              <LatitudeDegrees>43.4447143971920013427734375</LatitudeDegrees>
              <LongitudeDegrees>-3.45573487691581249237060546875</LongitudeDegrees>
            </Position>
            <AltitudeMeters>16</AltitudeMeters>
            <DistanceMeters>NAN</DistanceMeters>
          </Trackpoint>
          <Trackpoint>
            <Time>2022-07-13T10:30:18.000Z</Time>
            <Position>
              <LatitudeDegrees>43.44477499835193157196044921875</LatitudeDegrees>
              <LongitudeDegrees>-3.4557294286787509918212890625</LongitudeDegrees>
            </Position>
            <AltitudeMeters>16</AltitudeMeters>
            <DistanceMeters>NAN</DistanceMeters>
          </Trackpoint>
          <Trackpoint>
            <Time>2022-07-13T10:30:25.000Z</Time>
            <Position>
              <LatitudeDegrees>43.4450240246951580047607421875</LatitudeDegrees>
              <LongitudeDegrees>-3.45570109784603118896484375</LongitudeDegrees>
            </Position>
            <AltitudeMeters>15.6000003814697265625</AltitudeMeters>
            <DistanceMeters>NAN</DistanceMeters>
          </Trackpoint>
          <Trackpoint>
            <Time>2022-07-13T10:30:28.000Z</Time>
            <Position>
              <LatitudeDegrees>43.4450790099799633026123046875</LatitudeDegrees>
              <LongitudeDegrees>-3.4556124173104763031005859375</LongitudeDegrees>
            </Position>
            <AltitudeMeters>15.80000019073486328125</AltitudeMeters>
            <DistanceMeters>NAN</DistanceMeters>
          </Trackpoint>
          <Trackpoint>
            <Time>2022-07-13T10:30:29.000Z</Time>
            <Position>
              <LatitudeDegrees>43.4450872242450714111328125</LatitudeDegrees>
              <LongitudeDegrees>-3.4555904567241668701171875</LongitudeDegrees>
            </Position>
            <AltitudeMeters>15.80000019073486328125</AltitudeMeters>
            <DistanceMeters>NAN</DistanceMeters>
          </Trackpoint>
          <Trackpoint>
            <Time>2022-07-13T10:30:32.000Z</Time>
            <Position>
              <LatitudeDegrees>43.44507054425776004791259765625</LatitudeDegrees>
              <LongitudeDegrees>-3.45553454943001270294189453125</LongitudeDegrees>
            </Position>
            <AltitudeMeters>15.6000003814697265625</AltitudeMeters>
            <DistanceMeters>NAN</DistanceMeters>
          </Trackpoint>
          <Trackpoint>
            <Time>2022-07-13T10:30:33.000Z</Time>
            <Position>
              <LatitudeDegrees>43.44507448375225067138671875</LatitudeDegrees>
              <LongitudeDegrees>-3.4555235691368579864501953125</LongitudeDegrees>
            </Position>
            <AltitudeMeters>15.6000003814697265625</AltitudeMeters>
            <DistanceMeters>NAN</DistanceMeters>
          </Trackpoint>
          <Trackpoint>
            <Time>2022-07-13T10:30:34.000Z</Time>
            <Position>
              <LatitudeDegrees>43.44508177600800991058349609375</LatitudeDegrees>
              <LongitudeDegrees>-3.455510325729846954345703125</LongitudeDegrees>
            </Position>
            <AltitudeMeters>15.3999996185302734375</AltitudeMeters>
            <DistanceMeters>NAN</DistanceMeters>
          </Trackpoint>
          <Trackpoint>
            <Time>2022-07-13T10:30:37.000Z</Time>
            <Position>
              <LatitudeDegrees>43.44508789479732513427734375</LatitudeDegrees>
              <LongitudeDegrees>-3.45551979728043079376220703125</LongitudeDegrees>
            </Position>
            <AltitudeMeters>15.19999980926513671875</AltitudeMeters>
            <DistanceMeters>NAN</DistanceMeters>
          </Trackpoint>
          <Trackpoint>
            <Time>2022-07-13T10:33:31.000Z</Time>
            <Position>
              <LatitudeDegrees>43.44516878016293048858642578125</LatitudeDegrees>
              <LongitudeDegrees>-3.455574698746204376220703125</LongitudeDegrees>
            </Position>
            <AltitudeMeters>12</AltitudeMeters>
            <DistanceMeters>NAN</DistanceMeters>
          </Trackpoint>
          <Trackpoint>
            <Time>2022-07-13T10:33:36.000Z</Time>
            <Position>
              <LatitudeDegrees>43.44525880180299282073974609375</LatitudeDegrees>
              <LongitudeDegrees>-3.455674946308135986328125</LongitudeDegrees>
            </Position>
            <AltitudeMeters>12</AltitudeMeters>
            <DistanceMeters>NAN</DistanceMeters>
          </Trackpoint>
          <Trackpoint>
            <Time>2022-07-13T10:33:41.000Z</Time>
            <Position>
              <LatitudeDegrees>43.4454122744500637054443359375</LatitudeDegrees>
              <LongitudeDegrees>-3.45570285804569721221923828125</LongitudeDegrees>
            </Position>
            <AltitudeMeters>12</AltitudeMeters>
            <DistanceMeters>NAN</DistanceMeters>
          </Trackpoint>
          <Trackpoint>
            <Time>2022-07-13T10:33:43.000Z</Time>
            <Position>
              <LatitudeDegrees>43.4454726241528987884521484375</LatitudeDegrees>
              <LongitudeDegrees>-3.45570218749344348907470703125</LongitudeDegrees>
            </Position>
            <AltitudeMeters>12</AltitudeMeters>
            <DistanceMeters>NAN</DistanceMeters>
          </Trackpoint>
          <Trackpoint>
            <Time>2022-07-13T10:33:45.000Z</Time>
            <Position>
              <LatitudeDegrees>43.44553582370281219482421875</LatitudeDegrees>
              <LongitudeDegrees>-3.45571048557758331298828125</LongitudeDegrees>
            </Position>
            <AltitudeMeters>12</AltitudeMeters>
            <DistanceMeters>NAN</DistanceMeters>
          </Trackpoint>
          <Trackpoint>
            <Time>2022-07-13T10:33:49.000Z</Time>
            <Position>
              <LatitudeDegrees>43.4456758014857769012451171875</LatitudeDegrees>
              <LongitudeDegrees>-3.45571626909077167510986328125</LongitudeDegrees>
            </Position>
            <AltitudeMeters>11.6000003814697265625</AltitudeMeters>
            <DistanceMeters>NAN</DistanceMeters>
          </Trackpoint>
          <Trackpoint>
            <Time>2022-07-13T10:33:50.000Z</Time>
            <Position>
              <LatitudeDegrees>43.4457133524119853973388671875</LatitudeDegrees>
              <LongitudeDegrees>-3.4557193703949451446533203125</LongitudeDegrees>
            </Position>
            <AltitudeMeters>11.6000003814697265625</AltitudeMeters>
            <DistanceMeters>NAN</DistanceMeters>
          </Trackpoint>
          <Trackpoint>
            <Time>2022-07-13T10:33:51.000Z</Time>
            <Position>
              <LatitudeDegrees>43.44575132243335247039794921875</LatitudeDegrees>
              <LongitudeDegrees>-3.45569363795220851898193359375</LongitudeDegrees>
            </Position>
            <AltitudeMeters>11.6000003814697265625</AltitudeMeters>
            <DistanceMeters>NAN</DistanceMeters>
          </Trackpoint>
          <Trackpoint>
            <Time>2022-07-13T10:33:53.000Z</Time>
            <Position>
              <LatitudeDegrees>43.44580211676657199859619140625</LatitudeDegrees>
              <LongitudeDegrees>-3.45565021969377994537353515625</LongitudeDegrees>
            </Position>
            <AltitudeMeters>11.6000003814697265625</AltitudeMeters>
            <DistanceMeters>NAN</DistanceMeters>
          </Trackpoint>
          <Trackpoint>
            <Time>2022-07-13T10:33:58.000Z</Time>
            <Position>
              <LatitudeDegrees>43.44589632935822010040283203125</LatitudeDegrees>
              <LongitudeDegrees>-3.4555446915328502655029296875</LongitudeDegrees>
            </Position>
            <AltitudeMeters>11.3999996185302734375</AltitudeMeters>
            <DistanceMeters>NAN</DistanceMeters>
          </Trackpoint>
          <Trackpoint>
            <Time>2022-07-13T10:34:03.000Z</Time>
            <Position>
              <LatitudeDegrees>43.44605105929076671600341796875</LatitudeDegrees>
              <LongitudeDegrees>-3.45555500127375125885009765625</LongitudeDegrees>
            </Position>
            <AltitudeMeters>11.19999980926513671875</AltitudeMeters>
            <DistanceMeters>NAN</DistanceMeters>
          </Trackpoint>
          <Trackpoint>
            <Time>2022-07-13T10:34:09.000Z</Time>
            <Position>
              <LatitudeDegrees>43.4462813101708889007568359375</LatitudeDegrees>
              <LongitudeDegrees>-3.455492891371250152587890625</LongitudeDegrees>
            </Position>
            <AltitudeMeters>11.80000019073486328125</AltitudeMeters>
            <DistanceMeters>NAN</DistanceMeters>
          </Trackpoint>
          <Trackpoint>
            <Time>2022-07-13T10:34:17.000Z</Time>
            <Position>
              <LatitudeDegrees>43.44658850692212581634521484375</LatitudeDegrees>
              <LongitudeDegrees>-3.45536489970982074737548828125</LongitudeDegrees>
            </Position>
            <AltitudeMeters>12</AltitudeMeters>
            <DistanceMeters>NAN</DistanceMeters>
          </Trackpoint>
          <Trackpoint>
            <Time>2022-07-13T10:34:21.000Z</Time>
            <Position>
              <LatitudeDegrees>43.446731753647327423095703125</LatitudeDegrees>
              <LongitudeDegrees>-3.4552927315235137939453125</LongitudeDegrees>
            </Position>
            <AltitudeMeters>12.19999980926513671875</AltitudeMeters>
            <DistanceMeters>NAN</DistanceMeters>
          </Trackpoint>
          <Trackpoint>
            <Time>2022-07-13T10:34:25.000Z</Time>
            <Position>
              <LatitudeDegrees>43.4468670375645160675048828125</LatitudeDegrees>
              <LongitudeDegrees>-3.4552177973091602325439453125</LongitudeDegrees>
            </Position>
            <AltitudeMeters>12.80000019073486328125</AltitudeMeters>
            <DistanceMeters>NAN</DistanceMeters>
          </Trackpoint>
          <Trackpoint>
            <Time>2022-07-13T10:34:27.000Z</Time>
            <Position>
              <LatitudeDegrees>43.4469304047524929046630859375</LatitudeDegrees>
              <LongitudeDegrees>-3.4551685117185115814208984375</LongitudeDegrees>
            </Position>
            <AltitudeMeters>12.6000003814697265625</AltitudeMeters>
            <DistanceMeters>NAN</DistanceMeters>
          </Trackpoint>
          <Trackpoint>
            <Time>2022-07-13T10:34:31.000Z</Time>
            <Position>
              <LatitudeDegrees>43.447013385593891143798828125</LatitudeDegrees>
              <LongitudeDegrees>-3.45503129996359348297119140625</LongitudeDegrees>
            </Position>
            <AltitudeMeters>12.19999980926513671875</AltitudeMeters>
            <DistanceMeters>NAN</DistanceMeters>
          </Trackpoint>
          <Trackpoint>
            <Time>2022-07-13T10:34:36.000Z</Time>
            <Position>
              <LatitudeDegrees>43.447077758610248565673828125</LatitudeDegrees>
              <LongitudeDegrees>-3.45485377125442028045654296875</LongitudeDegrees>
            </Position>
            <AltitudeMeters>12</AltitudeMeters>
            <DistanceMeters>NAN</DistanceMeters>
          </Trackpoint>
          <Trackpoint>
            <Time>2022-07-13T10:34:38.000Z</Time>
            <Position>
              <LatitudeDegrees>43.44711455516517162322998046875</LatitudeDegrees>
              <LongitudeDegrees>-3.4547748975455760955810546875</LongitudeDegrees>
            </Position>
            <AltitudeMeters>12.19999980926513671875</AltitudeMeters>
            <DistanceMeters>NAN</DistanceMeters>
          </Trackpoint>
          <Trackpoint>
            <Time>2022-07-13T10:34:42.000Z</Time>
            <Position>
              <LatitudeDegrees>43.44724145717918872833251953125</LatitudeDegrees>
              <LongitudeDegrees>-3.454726450145244598388671875</LongitudeDegrees>
            </Position>
            <AltitudeMeters>12.19999980926513671875</AltitudeMeters>
            <DistanceMeters>NAN</DistanceMeters>
          </Trackpoint>
          <Trackpoint>
            <Time>2022-07-13T10:34:47.000Z</Time>
            <Position>
              <LatitudeDegrees>43.447393588721752166748046875</LatitudeDegrees>
              <LongitudeDegrees>-3.4548020549118518829345703125</LongitudeDegrees>
            </Position>
            <AltitudeMeters>12.6000003814697265625</AltitudeMeters>
            <DistanceMeters>NAN</DistanceMeters>
          </Trackpoint>
          <Trackpoint>
            <Time>2022-07-13T10:34:53.000Z</Time>
            <Position>
              <LatitudeDegrees>43.44758863560855388641357421875</LatitudeDegrees>
              <LongitudeDegrees>-3.4548556990921497344970703125</LongitudeDegrees>
            </Position>
            <AltitudeMeters>12.80000019073486328125</AltitudeMeters>
            <DistanceMeters>NAN</DistanceMeters>
          </Trackpoint>
          <Trackpoint>
            <Time>2022-07-13T10:35:00.000Z</Time>
            <Position>
              <LatitudeDegrees>43.44779692590236663818359375</LatitudeDegrees>
              <LongitudeDegrees>-3.45492535270750522613525390625</LongitudeDegrees>
            </Position>
            <AltitudeMeters>12.80000019073486328125</AltitudeMeters>
            <DistanceMeters>NAN</DistanceMeters>
          </Trackpoint>
          <Trackpoint>
            <Time>2022-07-13T10:35:07.000Z</Time>
            <Position>
              <LatitudeDegrees>43.44798292033374309539794921875</LatitudeDegrees>
              <LongitudeDegrees>-3.4550152905285358428955078125</LongitudeDegrees>
            </Position>
            <AltitudeMeters>12.19999980926513671875</AltitudeMeters>
            <DistanceMeters>NAN</DistanceMeters>
          </Trackpoint>
          <Trackpoint>
            <Time>2022-07-13T10:35:14.000Z</Time>
            <Position>
              <LatitudeDegrees>43.44817620702087879180908203125</LatitudeDegrees>
              <LongitudeDegrees>-3.45511159859597682952880859375</LongitudeDegrees>
            </Position>
            <AltitudeMeters>12.3999996185302734375</AltitudeMeters>
            <DistanceMeters>NAN</DistanceMeters>
          </Trackpoint>
          <Trackpoint>
            <Time>2022-07-13T10:35:20.000Z</Time>
            <Position>
              <LatitudeDegrees>43.4483372233808040618896484375</LatitudeDegrees>
              <LongitudeDegrees>-3.45517999492585659027099609375</LongitudeDegrees>
            </Position>
            <AltitudeMeters>11.80000019073486328125</AltitudeMeters>
            <DistanceMeters>NAN</DistanceMeters>
          </Trackpoint>
          <Trackpoint>
            <Time>2022-07-13T10:35:25.000Z</Time>
            <Position>
              <LatitudeDegrees>43.44846705906093120574951171875</LatitudeDegrees>
              <LongitudeDegrees>-3.455237410962581634521484375</LongitudeDegrees>
            </Position>
            <AltitudeMeters>11.80000019073486328125</AltitudeMeters>
            <DistanceMeters>NAN</DistanceMeters>
          </Trackpoint>
          <Trackpoint>
            <Time>2022-07-13T10:35:30.000Z</Time>
            <Position>
              <LatitudeDegrees>43.44865933991968631744384765625</LatitudeDegrees>
              <LongitudeDegrees>-3.45530211925506591796875</LongitudeDegrees>
            </Position>
            <AltitudeMeters>11.80000019073486328125</AltitudeMeters>
            <DistanceMeters>NAN</DistanceMeters>
          </Trackpoint>
          <Trackpoint>
            <Time>2022-07-13T10:35:31.000Z</Time>
            <Position>
              <LatitudeDegrees>43.44869554974138736724853515625</LatitudeDegrees>
              <LongitudeDegrees>-3.4553120099008083343505859375</LongitudeDegrees>
            </Position>
            <AltitudeMeters>12</AltitudeMeters>
            <DistanceMeters>NAN</DistanceMeters>
          </Trackpoint>
          <Trackpoint>
            <Time>2022-07-13T10:35:35.000Z</Time>
            <Position>
              <LatitudeDegrees>43.44881759025156497955322265625</LatitudeDegrees>
              <LongitudeDegrees>-3.45537252724170684814453125</LongitudeDegrees>
            </Position>
            <AltitudeMeters>12.3999996185302734375</AltitudeMeters>
            <DistanceMeters>NAN</DistanceMeters>
          </Trackpoint>
          <Trackpoint>
            <Time>2022-07-13T10:35:36.000Z</Time>
            <Position>
              <LatitudeDegrees>43.4488424845039844512939453125</LatitudeDegrees>
              <LongitudeDegrees>-3.45539624802768230438232421875</LongitudeDegrees>
            </Position>
            <AltitudeMeters>12.3999996185302734375</AltitudeMeters>
            <DistanceMeters>NAN</DistanceMeters>
          </Trackpoint>
          <Trackpoint>
            <Time>2022-07-13T10:35:43.000Z</Time>
            <Position>
              <LatitudeDegrees>43.44902663491666316986083984375</LatitudeDegrees>
              <LongitudeDegrees>-3.45558467321097850799560546875</LongitudeDegrees>
            </Position>
            <AltitudeMeters>11.80000019073486328125</AltitudeMeters>
            <DistanceMeters>NAN</DistanceMeters>
          </Trackpoint>
          <Trackpoint>
            <Time>2022-07-13T10:35:51.000Z</Time>
            <Position>
              <LatitudeDegrees>43.44926903955638408660888671875</LatitudeDegrees>
              <LongitudeDegrees>-3.45576136372983455657958984375</LongitudeDegrees>
            </Position>
            <AltitudeMeters>12</AltitudeMeters>
            <DistanceMeters>NAN</DistanceMeters>
          </Trackpoint>
          <Trackpoint>
            <Time>2022-07-13T10:35:58.000Z</Time>
            <Position>
              <LatitudeDegrees>43.44949954189360141754150390625</LatitudeDegrees>
              <LongitudeDegrees>-3.45590000040829181671142578125</LongitudeDegrees>
            </Position>
            <AltitudeMeters>12.3999996185302734375</AltitudeMeters>
            <DistanceMeters>NAN</DistanceMeters>
          </Trackpoint>
          <Trackpoint>
            <Time>2022-07-13T10:36:02.000Z</Time>
            <Position>
              <LatitudeDegrees>43.44963700510561466217041015625</LatitudeDegrees>
              <LongitudeDegrees>-3.45591005869209766387939453125</LongitudeDegrees>
            </Position>
            <AltitudeMeters>12.3999996185302734375</AltitudeMeters>
            <DistanceMeters>NAN</DistanceMeters>
          </Trackpoint>
          <Trackpoint>
            <Time>2022-07-13T10:36:05.000Z</Time>
            <Position>
              <LatitudeDegrees>43.44974211417138576507568359375</LatitudeDegrees>
              <LongitudeDegrees>-3.45594190992414951324462890625</LongitudeDegrees>
            </Position>
            <AltitudeMeters>12.80000019073486328125</AltitudeMeters>
            <DistanceMeters>NAN</DistanceMeters>
          </Trackpoint>
          <Trackpoint>
            <Time>2022-07-13T10:36:06.000Z</Time>
            <Position>
              <LatitudeDegrees>43.44977463595569133758544921875</LatitudeDegrees>
              <LongitudeDegrees>-3.45595682971179485321044921875</LongitudeDegrees>
            </Position>
            <AltitudeMeters>13</AltitudeMeters>
            <DistanceMeters>NAN</DistanceMeters>
          </Trackpoint>
          <Trackpoint>
            <Time>2022-07-13T10:36:07.000Z</Time>
            <Position>
              <LatitudeDegrees>43.4498064033687114715576171875</LatitudeDegrees>
              <LongitudeDegrees>-3.4559726715087890625</LongitudeDegrees>
            </Position>
            <AltitudeMeters>13</AltitudeMeters>
            <DistanceMeters>NAN</DistanceMeters>
          </Trackpoint>
          <Trackpoint>
            <Time>2022-07-13T10:36:09.000Z</Time>
            <Position>
              <LatitudeDegrees>43.44987220130860805511474609375</LatitudeDegrees>
              <LongitudeDegrees>-3.45600494183599948883056640625</LongitudeDegrees>
            </Position>
            <AltitudeMeters>13.3999996185302734375</AltitudeMeters>
            <DistanceMeters>NAN</DistanceMeters>
          </Trackpoint>
          <Trackpoint>
            <Time>2022-07-13T10:36:11.000Z</Time>
            <Position>
              <LatitudeDegrees>43.44993707723915576934814453125</LatitudeDegrees>
              <LongitudeDegrees>-3.4560355357825756072998046875</LongitudeDegrees>
            </Position>
            <AltitudeMeters>13.6000003814697265625</AltitudeMeters>
            <DistanceMeters>NAN</DistanceMeters>
          </Trackpoint>
          <Trackpoint>
            <Time>2022-07-13T10:36:13.000Z</Time>
            <Position>
              <LatitudeDegrees>43.44999776221811771392822265625</LatitudeDegrees>
              <LongitudeDegrees>-3.4560737572610378265380859375</LongitudeDegrees>
            </Position>
            <AltitudeMeters>13.6000003814697265625</AltitudeMeters>
            <DistanceMeters>NAN</DistanceMeters>
          </Trackpoint>
          <Trackpoint>
            <Time>2022-07-13T10:36:16.000Z</Time>
            <Position>
              <LatitudeDegrees>43.450094573199748992919921875</LatitudeDegrees>
              <LongitudeDegrees>-3.45612681470811367034912109375</LongitudeDegrees>
            </Position>
            <AltitudeMeters>14</AltitudeMeters>
            <DistanceMeters>NAN</DistanceMeters>
          </Trackpoint>
          <Trackpoint>
            <Time>2022-07-13T10:36:19.000Z</Time>
            <Position>
              <LatitudeDegrees>43.45019255764782428741455078125</LatitudeDegrees>
              <LongitudeDegrees>-3.45618280582129955291748046875</LongitudeDegrees>
            </Position>
            <AltitudeMeters>14.19999980926513671875</AltitudeMeters>
            <DistanceMeters>NAN</DistanceMeters>
          </Trackpoint>
          <Trackpoint>
            <Time>2022-07-13T10:36:22.000Z</Time>
            <Position>
              <LatitudeDegrees>43.45026858150959014892578125</LatitudeDegrees>
              <LongitudeDegrees>-3.45622538588941097259521484375</LongitudeDegrees>
            </Position>
            <AltitudeMeters>14.3999996185302734375</AltitudeMeters>
            <DistanceMeters>NAN</DistanceMeters>
          </Trackpoint>
          <Trackpoint>
            <Time>2022-07-13T10:36:24.000Z</Time>
            <Position>
              <LatitudeDegrees>43.45032549463212490081787109375</LatitudeDegrees>
              <LongitudeDegrees>-3.4562380425631999969482421875</LongitudeDegrees>
            </Position>
            <AltitudeMeters>14.6000003814697265625</AltitudeMeters>
            <DistanceMeters>NAN</DistanceMeters>
          </Trackpoint>
          <Trackpoint>
            <Time>2022-07-13T10:36:25.000Z</Time>
            <Position>
              <LatitudeDegrees>43.4503512270748615264892578125</LatitudeDegrees>
              <LongitudeDegrees>-3.45623678527772426605224609375</LongitudeDegrees>
            </Position>
            <AltitudeMeters>14.80000019073486328125</AltitudeMeters>
            <DistanceMeters>NAN</DistanceMeters>
          </Trackpoint>
          <Trackpoint>
            <Time>2022-07-13T10:36:29.000Z</Time>
            <Position>
              <LatitudeDegrees>43.45045474357903003692626953125</LatitudeDegrees>
              <LongitudeDegrees>-3.45624684356153011322021484375</LongitudeDegrees>
            </Position>
            <AltitudeMeters>15</AltitudeMeters>
            <DistanceMeters>NAN</DistanceMeters>
          </Trackpoint>
          <Trackpoint>
            <Time>2022-07-13T10:36:31.000Z</Time>
            <Position>
              <LatitudeDegrees>43.4505017660558223724365234375</LatitudeDegrees>
              <LongitudeDegrees>-3.45625455491244792938232421875</LongitudeDegrees>
            </Position>
            <AltitudeMeters>15.19999980926513671875</AltitudeMeters>
            <DistanceMeters>NAN</DistanceMeters>
          </Trackpoint>
          <Trackpoint>
            <Time>2022-07-13T10:36:33.000Z</Time>
            <Position>
              <LatitudeDegrees>43.45054560340940952301025390625</LatitudeDegrees>
              <LongitudeDegrees>-3.4562638588249683380126953125</LongitudeDegrees>
            </Position>
            <AltitudeMeters>15.80000019073486328125</AltitudeMeters>
            <DistanceMeters>NAN</DistanceMeters>
          </Trackpoint>
          <Trackpoint>
            <Time>2022-07-13T10:36:37.000Z</Time>
            <Position>
              <LatitudeDegrees>43.4506224654614925384521484375</LatitudeDegrees>
              <LongitudeDegrees>-3.4562809579074382781982421875</LongitudeDegrees>
            </Position>
            <AltitudeMeters>16.200000762939453125</AltitudeMeters>
            <DistanceMeters>NAN</DistanceMeters>
          </Trackpoint>
          <Trackpoint>
            <Time>2022-07-13T10:36:39.000Z</Time>
            <Position>
              <LatitudeDegrees>43.45067619346082210540771484375</LatitudeDegrees>
              <LongitudeDegrees>-3.45630467869341373443603515625</LongitudeDegrees>
            </Position>
            <AltitudeMeters>16.6000003814697265625</AltitudeMeters>
            <DistanceMeters>NAN</DistanceMeters>
          </Trackpoint>
          <Trackpoint>
            <Time>2022-07-13T10:36:43.000Z</Time>
            <Position>
              <LatitudeDegrees>43.45078314654529094696044921875</LatitudeDegrees>
              <LongitudeDegrees>-3.456330411136150360107421875</LongitudeDegrees>
            </Position>
            <AltitudeMeters>17.3999996185302734375</AltitudeMeters>
            <DistanceMeters>NAN</DistanceMeters>
          </Trackpoint>
          <Trackpoint>
            <Time>2022-07-13T10:36:44.000Z</Time>
            <Position>
              <LatitudeDegrees>43.450812064111232757568359375</LatitudeDegrees>
              <LongitudeDegrees>-3.456343151628971099853515625</LongitudeDegrees>
            </Position>
            <AltitudeMeters>17.6000003814697265625</AltitudeMeters>
            <DistanceMeters>NAN</DistanceMeters>
          </Trackpoint>
          <Trackpoint>
            <Time>2022-07-13T10:36:45.000Z</Time>
            <Position>
              <LatitudeDegrees>43.45083913765847682952880859375</LatitudeDegrees>
              <LongitudeDegrees>-3.456353880465030670166015625</LongitudeDegrees>
            </Position>
            <AltitudeMeters>17.799999237060546875</AltitudeMeters>
            <DistanceMeters>NAN</DistanceMeters>
          </Trackpoint>
          <Trackpoint>
            <Time>2022-07-13T10:36:48.000Z</Time>
            <Position>
              <LatitudeDegrees>43.4509170055389404296875</LatitudeDegrees>
              <LongitudeDegrees>-3.4563882462680339813232421875</LongitudeDegrees>
            </Position>
            <AltitudeMeters>18.200000762939453125</AltitudeMeters>
            <DistanceMeters>NAN</DistanceMeters>
          </Trackpoint>
          <Trackpoint>
            <Time>2022-07-13T10:36:49.000Z</Time>
            <Position>
              <LatitudeDegrees>43.4509460069239139556884765625</LatitudeDegrees>
              <LongitudeDegrees>-3.45640249550342559814453125</LongitudeDegrees>
            </Position>
            <AltitudeMeters>18.200000762939453125</AltitudeMeters>
            <DistanceMeters>NAN</DistanceMeters>
          </Trackpoint>
          <Trackpoint>
            <Time>2022-07-13T10:36:50.000Z</Time>
            <Position>
              <LatitudeDegrees>43.45097375102341175079345703125</LatitudeDegrees>
              <LongitudeDegrees>-3.456418924033641815185546875</LongitudeDegrees>
            </Position>
            <AltitudeMeters>18.200000762939453125</AltitudeMeters>
            <DistanceMeters>NAN</DistanceMeters>
          </Trackpoint>
          <Trackpoint>
            <Time>2022-07-13T10:36:52.000Z</Time>
            <Position>
              <LatitudeDegrees>43.4510315023362636566162109375</LatitudeDegrees>
              <LongitudeDegrees>-3.4564554691314697265625</LongitudeDegrees>
            </Position>
            <AltitudeMeters>18.200000762939453125</AltitudeMeters>
            <DistanceMeters>NAN</DistanceMeters>
          </Trackpoint>
          <Trackpoint>
            <Time>2022-07-13T10:36:54.000Z</Time>
            <Position>
              <LatitudeDegrees>43.45109277404844760894775390625</LatitudeDegrees>
              <LongitudeDegrees>-3.4564908407628536224365234375</LongitudeDegrees>
            </Position>
            <AltitudeMeters>18.200000762939453125</AltitudeMeters>
            <DistanceMeters>NAN</DistanceMeters>
          </Trackpoint>
          <Trackpoint>
            <Time>2022-07-13T10:36:55.000Z</Time>
            <Position>
              <LatitudeDegrees>43.45112479291856288909912109375</LatitudeDegrees>
              <LongitudeDegrees>-3.45651087351143360137939453125</LongitudeDegrees>
            </Position>
            <AltitudeMeters>18.200000762939453125</AltitudeMeters>
            <DistanceMeters>NAN</DistanceMeters>
          </Trackpoint>
          <Trackpoint>
            <Time>2022-07-13T10:36:57.000Z</Time>
            <Position>
              <LatitudeDegrees>43.45118547789752483367919921875</LatitudeDegrees>
              <LongitudeDegrees>-3.4565498493611812591552734375</LongitudeDegrees>
            </Position>
            <AltitudeMeters>18.200000762939453125</AltitudeMeters>
            <DistanceMeters>NAN</DistanceMeters>
          </Trackpoint>
          <Trackpoint>
            <Time>2022-07-13T10:36:58.000Z</Time>
            <Position>
              <LatitudeDegrees>43.45121716149151325225830078125</LatitudeDegrees>
              <LongitudeDegrees>-3.45657415688037872314453125</LongitudeDegrees>
            </Position>
            <AltitudeMeters>18.200000762939453125</AltitudeMeters>
            <DistanceMeters>NAN</DistanceMeters>
          </Trackpoint>
          <Trackpoint>
            <Time>2022-07-13T10:37:00.000Z</Time>
            <Position>
              <LatitudeDegrees>43.45127901993691921234130859375</LatitudeDegrees>
              <LongitudeDegrees>-3.4566259570419788360595703125</LongitudeDegrees>
            </Position>
            <AltitudeMeters>18.200000762939453125</AltitudeMeters>
            <DistanceMeters>NAN</DistanceMeters>
          </Trackpoint>
          <Trackpoint>
            <Time>2022-07-13T10:37:07.000Z</Time>
            <Position>
              <LatitudeDegrees>43.4515079297125339508056640625</LatitudeDegrees>
              <LongitudeDegrees>-3.45683458261191844940185546875</LongitudeDegrees>
            </Position>
            <AltitudeMeters>17.799999237060546875</AltitudeMeters>
            <DistanceMeters>NAN</DistanceMeters>
          </Trackpoint>
          <Trackpoint>
            <Time>2022-07-13T10:37:14.000Z</Time>
            <Position>
              <LatitudeDegrees>43.45173700712621212005615234375</LatitudeDegrees>
              <LongitudeDegrees>-3.45706156454980373382568359375</LongitudeDegrees>
            </Position>
            <AltitudeMeters>17.6000003814697265625</AltitudeMeters>
            <DistanceMeters>NAN</DistanceMeters>
          </Trackpoint>
          <Trackpoint>
            <Time>2022-07-13T10:37:17.000Z</Time>
            <Position>
              <LatitudeDegrees>43.45185737125575542449951171875</LatitudeDegrees>
              <LongitudeDegrees>-3.45714546740055084228515625</LongitudeDegrees>
            </Position>
            <AltitudeMeters>17.799999237060546875</AltitudeMeters>
            <DistanceMeters>NAN</DistanceMeters>
          </Trackpoint>
          <Trackpoint>
            <Time>2022-07-13T10:37:22.000Z</Time>
            <Position>
              <LatitudeDegrees>43.45203741453588008880615234375</LatitudeDegrees>
              <LongitudeDegrees>-3.45723272301256656646728515625</LongitudeDegrees>
            </Position>
            <AltitudeMeters>18.200000762939453125</AltitudeMeters>
            <DistanceMeters>NAN</DistanceMeters>
          </Trackpoint>
          <Trackpoint>
            <Time>2022-07-13T10:37:30.000Z</Time>
            <Position>
              <LatitudeDegrees>43.45232776366174221038818359375</LatitudeDegrees>
              <LongitudeDegrees>-3.45736163668334484100341796875</LongitudeDegrees>
            </Position>
            <AltitudeMeters>18.200000762939453125</AltitudeMeters>
            <DistanceMeters>NAN</DistanceMeters>
          </Trackpoint>
          <Trackpoint>
            <Time>2022-07-13T10:37:38.000Z</Time>
            <Position>
              <LatitudeDegrees>43.4525667317211627960205078125</LatitudeDegrees>
              <LongitudeDegrees>-3.4575431048870086669921875</LongitudeDegrees>
            </Position>
            <AltitudeMeters>17.6000003814697265625</AltitudeMeters>
            <DistanceMeters>NAN</DistanceMeters>
          </Trackpoint>
          <Trackpoint>
            <Time>2022-07-13T10:37:39.000Z</Time>
            <Position>
              <LatitudeDegrees>43.4526016004383563995361328125</LatitudeDegrees>
              <LongitudeDegrees>-3.45757327973842620849609375</LongitudeDegrees>
            </Position>
            <AltitudeMeters>17.6000003814697265625</AltitudeMeters>
            <DistanceMeters>NAN</DistanceMeters>
          </Trackpoint>
          <Trackpoint>
            <Time>2022-07-13T10:37:41.000Z</Time>
            <Position>
              <LatitudeDegrees>43.45267930068075656890869140625</LatitudeDegrees>
              <LongitudeDegrees>-3.4576304443180561065673828125</LongitudeDegrees>
            </Position>
            <AltitudeMeters>17.3999996185302734375</AltitudeMeters>
            <DistanceMeters>NAN</DistanceMeters>
          </Trackpoint>
          <Trackpoint>
            <Time>2022-07-13T10:37:43.000Z</Time>
            <Position>
              <LatitudeDegrees>43.45276462845504283905029296875</LatitudeDegrees>
              <LongitudeDegrees>-3.4576844237744808197021484375</LongitudeDegrees>
            </Position>
            <AltitudeMeters>17</AltitudeMeters>
            <DistanceMeters>NAN</DistanceMeters>
          </Trackpoint>
          <Trackpoint>
            <Time>2022-07-13T10:37:46.000Z</Time>
            <Position>
              <LatitudeDegrees>43.4529056958854198455810546875</LatitudeDegrees>
              <LongitudeDegrees>-3.45775441266596317291259765625</LongitudeDegrees>
            </Position>
            <AltitudeMeters>16.3999996185302734375</AltitudeMeters>
            <DistanceMeters>NAN</DistanceMeters>
          </Trackpoint>
          <Trackpoint>
            <Time>2022-07-13T10:37:48.000Z</Time>
            <Position>
              <LatitudeDegrees>43.453017510473728179931640625</LatitudeDegrees>
              <LongitudeDegrees>-3.457778804004192352294921875</LongitudeDegrees>
            </Position>
            <AltitudeMeters>16.200000762939453125</AltitudeMeters>
            <DistanceMeters>NAN</DistanceMeters>
          </Trackpoint>
          <Trackpoint>
            <Time>2022-07-13T10:37:51.000Z</Time>
            <Position>
              <LatitudeDegrees>43.4532024152576923370361328125</LatitudeDegrees>
              <LongitudeDegrees>-3.45782699994742870330810546875</LongitudeDegrees>
            </Position>
            <AltitudeMeters>15.19999980926513671875</AltitudeMeters>
            <DistanceMeters>NAN</DistanceMeters>
          </Trackpoint>
          <Trackpoint>
            <Time>2022-07-13T10:37:52.000Z</Time>
            <Position>
              <LatitudeDegrees>43.4532664529979228973388671875</LatitudeDegrees>
              <LongitudeDegrees>-3.4578483738005161285400390625</LongitudeDegrees>
            </Position>
            <AltitudeMeters>15</AltitudeMeters>
            <DistanceMeters>NAN</DistanceMeters>
          </Trackpoint>
          <Trackpoint>
            <Time>2022-07-13T10:37:54.000Z</Time>
            <Position>
              <LatitudeDegrees>43.4533931873738765716552734375</LatitudeDegrees>
              <LongitudeDegrees>-3.45788215287029743194580078125</LongitudeDegrees>
            </Position>
            <AltitudeMeters>15</AltitudeMeters>
            <DistanceMeters>NAN</DistanceMeters>
          </Trackpoint>
          <Trackpoint>
            <Time>2022-07-13T10:38:01.000Z</Time>
            <Position>
              <LatitudeDegrees>43.45382125116884708404541015625</LatitudeDegrees>
              <LongitudeDegrees>-3.4579305164515972137451171875</LongitudeDegrees>
            </Position>
            <AltitudeMeters>14.3999996185302734375</AltitudeMeters>
            <DistanceMeters>NAN</DistanceMeters>
          </Trackpoint>
          <Trackpoint>
            <Time>2022-07-13T10:38:04.000Z</Time>
            <Position>
              <LatitudeDegrees>43.45397279597818851470947265625</LatitudeDegrees>
              <LongitudeDegrees>-3.457935713231563568115234375</LongitudeDegrees>
            </Position>
            <AltitudeMeters>14.19999980926513671875</AltitudeMeters>
            <DistanceMeters>NAN</DistanceMeters>
          </Trackpoint>
          <Trackpoint>
            <Time>2022-07-13T10:38:05.000Z</Time>
            <Position>
              <LatitudeDegrees>43.45401286147534847259521484375</LatitudeDegrees>
              <LongitudeDegrees>-3.457933031022548675537109375</LongitudeDegrees>
            </Position>
            <AltitudeMeters>14.19999980926513671875</AltitudeMeters>
            <DistanceMeters>NAN</DistanceMeters>
          </Trackpoint>
          <Trackpoint>
            <Time>2022-07-13T10:38:07.000Z</Time>
            <Position>
              <LatitudeDegrees>43.45408729277551174163818359375</LatitudeDegrees>
              <LongitudeDegrees>-3.4579347074031829833984375</LongitudeDegrees>
            </Position>
            <AltitudeMeters>14</AltitudeMeters>
            <DistanceMeters>NAN</DistanceMeters>
          </Trackpoint>
          <Trackpoint>
            <Time>2022-07-13T10:38:10.000Z</Time>
            <Position>
              <LatitudeDegrees>43.45419189892709255218505859375</LatitudeDegrees>
              <LongitudeDegrees>-3.45794300548732280731201171875</LongitudeDegrees>
            </Position>
            <AltitudeMeters>13.6000003814697265625</AltitudeMeters>
            <DistanceMeters>NAN</DistanceMeters>
          </Trackpoint>
          <Trackpoint>
            <Time>2022-07-13T10:38:13.000Z</Time>
            <Position>
              <LatitudeDegrees>43.45429248176515102386474609375</LatitudeDegrees>
              <LongitudeDegrees>-3.457931019365787506103515625</LongitudeDegrees>
            </Position>
            <AltitudeMeters>13.3999996185302734375</AltitudeMeters>
            <DistanceMeters>NAN</DistanceMeters>
          </Trackpoint>
          <Trackpoint>
            <Time>2022-07-13T10:38:16.000Z</Time>
            <Position>
              <LatitudeDegrees>43.4544030390679836273193359375</LatitudeDegrees>
              <LongitudeDegrees>-3.45790428109467029571533203125</LongitudeDegrees>
            </Position>
            <AltitudeMeters>13.3999996185302734375</AltitudeMeters>
            <DistanceMeters>NAN</DistanceMeters>
          </Trackpoint>
          <Trackpoint>
            <Time>2022-07-13T10:38:17.000Z</Time>
            <Position>
              <LatitudeDegrees>43.454443104565143585205078125</LatitudeDegrees>
              <LongitudeDegrees>-3.45789992250502109527587890625</LongitudeDegrees>
            </Position>
            <AltitudeMeters>13.3999996185302734375</AltitudeMeters>
            <DistanceMeters>NAN</DistanceMeters>
          </Trackpoint>
          <Trackpoint>
            <Time>2022-07-13T10:38:22.000Z</Time>
            <Position>
              <LatitudeDegrees>43.45466949976980686187744140625</LatitudeDegrees>
              <LongitudeDegrees>-3.457905538380146026611328125</LongitudeDegrees>
            </Position>
            <AltitudeMeters>13.6000003814697265625</AltitudeMeters>
            <DistanceMeters>NAN</DistanceMeters>
          </Trackpoint>
          <Trackpoint>
            <Time>2022-07-13T10:38:24.000Z</Time>
            <Position>
              <LatitudeDegrees>43.454761616885662078857421875</LatitudeDegrees>
              <LongitudeDegrees>-3.45789271406829357147216796875</LongitudeDegrees>
            </Position>
            <AltitudeMeters>13.6000003814697265625</AltitudeMeters>
            <DistanceMeters>NAN</DistanceMeters>
          </Trackpoint>
          <Trackpoint>
            <Time>2022-07-13T10:38:25.000Z</Time>
            <Position>
              <LatitudeDegrees>43.45480478368699550628662109375</LatitudeDegrees>
              <LongitudeDegrees>-3.45789120532572269439697265625</LongitudeDegrees>
            </Position>
            <AltitudeMeters>13.6000003814697265625</AltitudeMeters>
            <DistanceMeters>NAN</DistanceMeters>
          </Trackpoint>
          <Trackpoint>
            <Time>2022-07-13T10:38:29.000Z</Time>
            <Position>
              <LatitudeDegrees>43.4549512155354022979736328125</LatitudeDegrees>
              <LongitudeDegrees>-3.45789673738181591033935546875</LongitudeDegrees>
            </Position>
            <AltitudeMeters>13.80000019073486328125</AltitudeMeters>
            <DistanceMeters>NAN</DistanceMeters>
          </Trackpoint>
          <Trackpoint>
            <Time>2022-07-13T10:38:30.000Z</Time>
            <Position>
              <LatitudeDegrees>43.45498817972838878631591796875</LatitudeDegrees>
              <LongitudeDegrees>-3.45790922641754150390625</LongitudeDegrees>
            </Position>
            <AltitudeMeters>14</AltitudeMeters>
            <DistanceMeters>NAN</DistanceMeters>
          </Trackpoint>
          <Trackpoint>
            <Time>2022-07-13T10:38:32.000Z</Time>
            <Position>
              <LatitudeDegrees>43.45506705343723297119140625</LatitudeDegrees>
              <LongitudeDegrees>-3.45794686116278171539306640625</LongitudeDegrees>
            </Position>
            <AltitudeMeters>14</AltitudeMeters>
            <DistanceMeters>NAN</DistanceMeters>
          </Trackpoint>
          <Trackpoint>
            <Time>2022-07-13T10:38:38.000Z</Time>
            <Position>
              <LatitudeDegrees>43.45529680140316486358642578125</LatitudeDegrees>
              <LongitudeDegrees>-3.4580902755260467529296875</LongitudeDegrees>
            </Position>
            <AltitudeMeters>13.6000003814697265625</AltitudeMeters>
            <DistanceMeters>NAN</DistanceMeters>
          </Trackpoint>
          <Trackpoint>
            <Time>2022-07-13T10:38:40.000Z</Time>
            <Position>
              <LatitudeDegrees>43.45537642948329448699951171875</LatitudeDegrees>
              <LongitudeDegrees>-3.458119444549083709716796875</LongitudeDegrees>
            </Position>
            <AltitudeMeters>13.6000003814697265625</AltitudeMeters>
            <DistanceMeters>NAN</DistanceMeters>
          </Trackpoint>
          <Trackpoint>
            <Time>2022-07-13T10:38:41.000Z</Time>
            <Position>
              <LatitudeDegrees>43.45541632734239101409912109375</LatitudeDegrees>
              <LongitudeDegrees>-3.4581233002245426177978515625</LongitudeDegrees>
            </Position>
            <AltitudeMeters>13.6000003814697265625</AltitudeMeters>
            <DistanceMeters>NAN</DistanceMeters>
          </Trackpoint>
          <Trackpoint>
            <Time>2022-07-13T10:38:44.000Z</Time>
            <Position>
              <LatitudeDegrees>43.45554004423320293426513671875</LatitudeDegrees>
              <LongitudeDegrees>-3.45814484171569347381591796875</LongitudeDegrees>
            </Position>
            <AltitudeMeters>13.6000003814697265625</AltitudeMeters>
            <DistanceMeters>NAN</DistanceMeters>
          </Trackpoint>
          <Trackpoint>
            <Time>2022-07-13T10:38:46.000Z</Time>
            <Position>
              <LatitudeDegrees>43.455606512725353240966796875</LatitudeDegrees>
              <LongitudeDegrees>-3.45819697715342044830322265625</LongitudeDegrees>
            </Position>
            <AltitudeMeters>13.6000003814697265625</AltitudeMeters>
            <DistanceMeters>NAN</DistanceMeters>
          </Trackpoint>
          <Trackpoint>
            <Time>2022-07-13T10:38:51.000Z</Time>
            <Position>
              <LatitudeDegrees>43.45582234673202037811279296875</LatitudeDegrees>
              <LongitudeDegrees>-3.45838355831801891326904296875</LongitudeDegrees>
            </Position>
            <AltitudeMeters>14.19999980926513671875</AltitudeMeters>
            <DistanceMeters>NAN</DistanceMeters>
          </Trackpoint>
          <Trackpoint>
            <Time>2022-07-13T10:38:57.000Z</Time>
            <Position>
              <LatitudeDegrees>43.456061817705631256103515625</LatitudeDegrees>
              <LongitudeDegrees>-3.45858237706124782562255859375</LongitudeDegrees>
            </Position>
            <AltitudeMeters>15</AltitudeMeters>
            <DistanceMeters>NAN</DistanceMeters>
          </Trackpoint>
          <Trackpoint>
            <Time>2022-07-13T10:38:59.000Z</Time>
            <Position>
              <LatitudeDegrees>43.4561565332114696502685546875</LatitudeDegrees>
              <LongitudeDegrees>-3.45866887830197811126708984375</LongitudeDegrees>
            </Position>
            <AltitudeMeters>15</AltitudeMeters>
            <DistanceMeters>NAN</DistanceMeters>
          </Trackpoint>
          <Trackpoint>
            <Time>2022-07-13T10:39:03.000Z</Time>
            <Position>
              <LatitudeDegrees>43.4563231654465198516845703125</LatitudeDegrees>
              <LongitudeDegrees>-3.4588149748742580413818359375</LongitudeDegrees>
            </Position>
            <AltitudeMeters>14.6000003814697265625</AltitudeMeters>
            <DistanceMeters>NAN</DistanceMeters>
          </Trackpoint>
          <Trackpoint>
            <Time>2022-07-13T10:39:07.000Z</Time>
            <Position>
              <LatitudeDegrees>43.4564988501369953155517578125</LatitudeDegrees>
              <LongitudeDegrees>-3.45895989798009395599365234375</LongitudeDegrees>
            </Position>
            <AltitudeMeters>14.3999996185302734375</AltitudeMeters>
            <DistanceMeters>NAN</DistanceMeters>
          </Trackpoint>
          <Trackpoint>
            <Time>2022-07-13T10:39:15.000Z</Time>
            <Position>
              <LatitudeDegrees>43.456883914768695831298828125</LatitudeDegrees>
              <LongitudeDegrees>-3.45927505753934383392333984375</LongitudeDegrees>
            </Position>
            <AltitudeMeters>15</AltitudeMeters>
            <DistanceMeters>NAN</DistanceMeters>
          </Trackpoint>
          <Trackpoint>
            <Time>2022-07-13T10:39:16.000Z</Time>
            <Position>
              <LatitudeDegrees>43.45693076960742473602294921875</LatitudeDegrees>
              <LongitudeDegrees>-3.45931478776037693023681640625</LongitudeDegrees>
            </Position>
            <AltitudeMeters>15</AltitudeMeters>
            <DistanceMeters>NAN</DistanceMeters>
          </Trackpoint>
          <Trackpoint>
            <Time>2022-07-13T10:39:18.000Z</Time>
            <Position>
              <LatitudeDegrees>43.45702414400875568389892578125</LatitudeDegrees>
              <LongitudeDegrees>-3.4593980200588703155517578125</LongitudeDegrees>
            </Position>
            <AltitudeMeters>15.19999980926513671875</AltitudeMeters>
            <DistanceMeters>NAN</DistanceMeters>
          </Trackpoint>
          <Trackpoint>
            <Time>2022-07-13T10:39:21.000Z</Time>
            <Position>
              <LatitudeDegrees>43.45715909264981746673583984375</LatitudeDegrees>
              <LongitudeDegrees>-3.45951913855969905853271484375</LongitudeDegrees>
            </Position>
            <AltitudeMeters>15.19999980926513671875</AltitudeMeters>
            <DistanceMeters>NAN</DistanceMeters>
          </Trackpoint>
          <Trackpoint>
            <Time>2022-07-13T10:39:23.000Z</Time>
            <Position>
              <LatitudeDegrees>43.4572538919746875762939453125</LatitudeDegrees>
              <LongitudeDegrees>-3.4595958329737186431884765625</LongitudeDegrees>
            </Position>
            <AltitudeMeters>15.3999996185302734375</AltitudeMeters>
            <DistanceMeters>NAN</DistanceMeters>
          </Trackpoint>
          <Trackpoint>
            <Time>2022-07-13T10:39:25.000Z</Time>
            <Position>
              <LatitudeDegrees>43.4573481045663356781005859375</LatitudeDegrees>
              <LongitudeDegrees>-3.459671437740325927734375</LongitudeDegrees>
            </Position>
            <AltitudeMeters>15.3999996185302734375</AltitudeMeters>
            <DistanceMeters>NAN</DistanceMeters>
          </Trackpoint>
          <Trackpoint>
            <Time>2022-07-13T10:39:26.000Z</Time>
            <Position>
              <LatitudeDegrees>43.45739386975765228271484375</LatitudeDegrees>
              <LongitudeDegrees>-3.4597071446478366851806640625</LongitudeDegrees>
            </Position>
            <AltitudeMeters>15.3999996185302734375</AltitudeMeters>
            <DistanceMeters>NAN</DistanceMeters>
          </Trackpoint>
          <Trackpoint>
            <Time>2022-07-13T10:39:30.000Z</Time>
            <Position>
              <LatitudeDegrees>43.45757097937166690826416015625</LatitudeDegrees>
              <LongitudeDegrees>-3.45985449850559234619140625</LongitudeDegrees>
            </Position>
            <AltitudeMeters>15</AltitudeMeters>
            <DistanceMeters>NAN</DistanceMeters>
          </Trackpoint>
          <Trackpoint>
            <Time>2022-07-13T10:39:31.000Z</Time>
            <Position>
              <LatitudeDegrees>43.45761389471590518951416015625</LatitudeDegrees>
              <LongitudeDegrees>-3.4598954021930694580078125</LongitudeDegrees>
            </Position>
            <AltitudeMeters>15</AltitudeMeters>
            <DistanceMeters>NAN</DistanceMeters>
          </Trackpoint>
          <Trackpoint>
            <Time>2022-07-13T10:39:36.000Z</Time>
            <Position>
              <LatitudeDegrees>43.4578211791813373565673828125</LatitudeDegrees>
              <LongitudeDegrees>-3.46006915904581546783447265625</LongitudeDegrees>
            </Position>
            <AltitudeMeters>15</AltitudeMeters>
            <DistanceMeters>NAN</DistanceMeters>
          </Trackpoint>
          <Trackpoint>
            <Time>2022-07-13T10:39:37.000Z</Time>
            <Position>
              <LatitudeDegrees>43.45786216668784618377685546875</LatitudeDegrees>
              <LongitudeDegrees>-3.4601051174104213714599609375</LongitudeDegrees>
            </Position>
            <AltitudeMeters>15</AltitudeMeters>
            <DistanceMeters>NAN</DistanceMeters>
          </Trackpoint>
          <Trackpoint>
            <Time>2022-07-13T10:39:42.000Z</Time>
            <Position>
              <LatitudeDegrees>43.45807238481938838958740234375</LatitudeDegrees>
              <LongitudeDegrees>-3.4602816402912139892578125</LongitudeDegrees>
            </Position>
            <AltitudeMeters>15</AltitudeMeters>
            <DistanceMeters>NAN</DistanceMeters>
          </Trackpoint>
          <Trackpoint>
            <Time>2022-07-13T10:39:44.000Z</Time>
            <Position>
              <LatitudeDegrees>43.45815972425043582916259765625</LatitudeDegrees>
              <LongitudeDegrees>-3.46035263501107692718505859375</LongitudeDegrees>
            </Position>
            <AltitudeMeters>14.80000019073486328125</AltitudeMeters>
            <DistanceMeters>NAN</DistanceMeters>
          </Trackpoint>
          <Trackpoint>
            <Time>2022-07-13T10:39:52.000Z</Time>
            <Position>
              <LatitudeDegrees>43.458493910729885101318359375</LatitudeDegrees>
              <LongitudeDegrees>-3.46064709126949310302734375</LongitudeDegrees>
            </Position>
            <AltitudeMeters>14.80000019073486328125</AltitudeMeters>
            <DistanceMeters>NAN</DistanceMeters>
          </Trackpoint>
          <Trackpoint>
            <Time>2022-07-13T10:40:01.000Z</Time>
            <Position>
              <LatitudeDegrees>43.45887520350515842437744140625</LatitudeDegrees>
              <LongitudeDegrees>-3.4609788469970226287841796875</LongitudeDegrees>
            </Position>
            <AltitudeMeters>15.19999980926513671875</AltitudeMeters>
            <DistanceMeters>NAN</DistanceMeters>
          </Trackpoint>
          <Trackpoint>
            <Time>2022-07-13T10:40:03.000Z</Time>
            <Position>
              <LatitudeDegrees>43.45896556042134761810302734375</LatitudeDegrees>
              <LongitudeDegrees>-3.46104598604142665863037109375</LongitudeDegrees>
            </Position>
            <AltitudeMeters>15</AltitudeMeters>
            <DistanceMeters>NAN</DistanceMeters>
          </Trackpoint>
          <Trackpoint>
            <Time>2022-07-13T10:40:09.000Z</Time>
            <Position>
              <LatitudeDegrees>43.4592340327799320220947265625</LatitudeDegrees>
              <LongitudeDegrees>-3.46125989221036434173583984375</LongitudeDegrees>
            </Position>
            <AltitudeMeters>14.3999996185302734375</AltitudeMeters>
            <DistanceMeters>NAN</DistanceMeters>
          </Trackpoint>
          <Trackpoint>
            <Time>2022-07-13T10:40:12.000Z</Time>
            <Position>
              <LatitudeDegrees>43.45937040634453296661376953125</LatitudeDegrees>
              <LongitudeDegrees>-3.461371958255767822265625</LongitudeDegrees>
            </Position>
            <AltitudeMeters>14.3999996185302734375</AltitudeMeters>
            <DistanceMeters>NAN</DistanceMeters>
          </Trackpoint>
          <Trackpoint>
            <Time>2022-07-13T10:40:13.000Z</Time>
            <Position>
              <LatitudeDegrees>43.459419943392276763916015625</LatitudeDegrees>
              <LongitudeDegrees>-3.4614120237529277801513671875</LongitudeDegrees>
            </Position>
            <AltitudeMeters>14.3999996185302734375</AltitudeMeters>
            <DistanceMeters>NAN</DistanceMeters>
          </Trackpoint>
          <Trackpoint>
            <Time>2022-07-13T10:40:17.000Z</Time>
            <Position>
              <LatitudeDegrees>43.45960627309978008270263671875</LatitudeDegrees>
              <LongitudeDegrees>-3.461547307670116424560546875</LongitudeDegrees>
            </Position>
            <AltitudeMeters>14.3999996185302734375</AltitudeMeters>
            <DistanceMeters>NAN</DistanceMeters>
          </Trackpoint>
          <Trackpoint>
            <Time>2022-07-13T10:40:18.000Z</Time>
            <Position>
              <LatitudeDegrees>43.459653966128826141357421875</LatitudeDegrees>
              <LongitudeDegrees>-3.461586870253086090087890625</LongitudeDegrees>
            </Position>
            <AltitudeMeters>14.3999996185302734375</AltitudeMeters>
            <DistanceMeters>NAN</DistanceMeters>
          </Trackpoint>
          <Trackpoint>
            <Time>2022-07-13T10:40:20.000Z</Time>
            <Position>
              <LatitudeDegrees>43.459743820130825042724609375</LatitudeDegrees>
              <LongitudeDegrees>-3.4616631455719470977783203125</LongitudeDegrees>
            </Position>
            <AltitudeMeters>14.3999996185302734375</AltitudeMeters>
            <DistanceMeters>NAN</DistanceMeters>
          </Trackpoint>
          <Trackpoint>
            <Time>2022-07-13T10:40:25.000Z</Time>
            <Position>
              <LatitudeDegrees>43.459951691329479217529296875</LatitudeDegrees>
              <LongitudeDegrees>-3.46183589659631252288818359375</LongitudeDegrees>
            </Position>
            <AltitudeMeters>14.6000003814697265625</AltitudeMeters>
            <DistanceMeters>NAN</DistanceMeters>
          </Trackpoint>
          <Trackpoint>
            <Time>2022-07-13T10:40:32.000Z</Time>
            <Position>
              <LatitudeDegrees>43.460251428186893463134765625</LatitudeDegrees>
              <LongitudeDegrees>-3.4620936401188373565673828125</LongitudeDegrees>
            </Position>
            <AltitudeMeters>15</AltitudeMeters>
            <DistanceMeters>NAN</DistanceMeters>
          </Trackpoint>
          <Trackpoint>
            <Time>2022-07-13T10:40:33.000Z</Time>
            <Position>
              <LatitudeDegrees>43.46029493026435375213623046875</LatitudeDegrees>
              <LongitudeDegrees>-3.4621335379779338836669921875</LongitudeDegrees>
            </Position>
            <AltitudeMeters>15</AltitudeMeters>
            <DistanceMeters>NAN</DistanceMeters>
          </Trackpoint>
          <Trackpoint>
            <Time>2022-07-13T10:40:35.000Z</Time>
            <Position>
              <LatitudeDegrees>43.4603838622570037841796875</LatitudeDegrees>
              <LongitudeDegrees>-3.4622083045542240142822265625</LongitudeDegrees>
            </Position>
            <AltitudeMeters>15</AltitudeMeters>
            <DistanceMeters>NAN</DistanceMeters>
          </Trackpoint>
          <Trackpoint>
            <Time>2022-07-13T10:40:45.000Z</Time>
            <Position>
              <LatitudeDegrees>43.4607893787324428558349609375</LatitudeDegrees>
              <LongitudeDegrees>-3.462544418871402740478515625</LongitudeDegrees>
            </Position>
            <AltitudeMeters>15</AltitudeMeters>
            <DistanceMeters>NAN</DistanceMeters>
          </Trackpoint>
          <Trackpoint>
            <Time>2022-07-13T10:40:46.000Z</Time>
            <Position>
              <LatitudeDegrees>43.46083137206733226776123046875</LatitudeDegrees>
              <LongitudeDegrees>-3.46257149241864681243896484375</LongitudeDegrees>
            </Position>
            <AltitudeMeters>15</AltitudeMeters>
            <DistanceMeters>NAN</DistanceMeters>
          </Trackpoint>
          <Trackpoint>
            <Time>2022-07-13T10:40:48.000Z</Time>
            <Position>
              <LatitudeDegrees>43.460916616022586822509765625</LatitudeDegrees>
              <LongitudeDegrees>-3.4626273997128009796142578125</LongitudeDegrees>
            </Position>
            <AltitudeMeters>15</AltitudeMeters>
            <DistanceMeters>NAN</DistanceMeters>
          </Trackpoint>
          <Trackpoint>
            <Time>2022-07-13T10:40:50.000Z</Time>
            <Position>
              <LatitudeDegrees>43.46098140813410282135009765625</LatitudeDegrees>
              <LongitudeDegrees>-3.46268598921597003936767578125</LongitudeDegrees>
            </Position>
            <AltitudeMeters>14.80000019073486328125</AltitudeMeters>
            <DistanceMeters>NAN</DistanceMeters>
          </Trackpoint>
          <Trackpoint>
            <Time>2022-07-13T10:40:51.000Z</Time>
            <Position>
              <LatitudeDegrees>43.4610141813755035400390625</LatitudeDegrees>
              <LongitudeDegrees>-3.4627242945134639739990234375</LongitudeDegrees>
            </Position>
            <AltitudeMeters>14.80000019073486328125</AltitudeMeters>
            <DistanceMeters>NAN</DistanceMeters>
          </Trackpoint>
          <Trackpoint>
            <Time>2022-07-13T10:40:53.000Z</Time>
            <Position>
              <LatitudeDegrees>43.461085259914398193359375</LatitudeDegrees>
              <LongitudeDegrees>-3.46279830671846866607666015625</LongitudeDegrees>
            </Position>
            <AltitudeMeters>15</AltitudeMeters>
            <DistanceMeters>NAN</DistanceMeters>
          </Trackpoint>
          <Trackpoint>
            <Time>2022-07-13T10:40:54.000Z</Time>
            <Position>
              <LatitudeDegrees>43.4611243195831775665283203125</LatitudeDegrees>
              <LongitudeDegrees>-3.4628268890082836151123046875</LongitudeDegrees>
            </Position>
            <AltitudeMeters>15.19999980926513671875</AltitudeMeters>
            <DistanceMeters>NAN</DistanceMeters>
          </Trackpoint>
          <Trackpoint>
            <Time>2022-07-13T10:40:59.000Z</Time>
            <Position>
              <LatitudeDegrees>43.461316935718059539794921875</LatitudeDegrees>
              <LongitudeDegrees>-3.462948761880397796630859375</LongitudeDegrees>
            </Position>
            <AltitudeMeters>16</AltitudeMeters>
            <DistanceMeters>NAN</DistanceMeters>
          </Trackpoint>
          <Trackpoint>
            <Time>2022-07-13T10:41:03.000Z</Time>
            <Position>
              <LatitudeDegrees>43.4614455141127109527587890625</LatitudeDegrees>
              <LongitudeDegrees>-3.46305496059358119964599609375</LongitudeDegrees>
            </Position>
            <AltitudeMeters>16</AltitudeMeters>
            <DistanceMeters>NAN</DistanceMeters>
          </Trackpoint>
          <Trackpoint>
            <Time>2022-07-13T10:41:04.000Z</Time>
            <Position>
              <LatitudeDegrees>43.46147661097347736358642578125</LatitudeDegrees>
              <LongitudeDegrees>-3.46308312378823757171630859375</LongitudeDegrees>
            </Position>
            <AltitudeMeters>16</AltitudeMeters>
            <DistanceMeters>NAN</DistanceMeters>
          </Trackpoint>
          <Trackpoint>
            <Time>2022-07-13T10:41:07.000Z</Time>
            <Position>
              <LatitudeDegrees>43.4615720808506011962890625</LatitudeDegrees>
              <LongitudeDegrees>-3.4631611593067646026611328125</LongitudeDegrees>
            </Position>
            <AltitudeMeters>15.19999980926513671875</AltitudeMeters>
            <DistanceMeters>NAN</DistanceMeters>
          </Trackpoint>
          <Trackpoint>
            <Time>2022-07-13T10:41:11.000Z</Time>
            <Position>
              <LatitudeDegrees>43.4617023356258869171142578125</LatitudeDegrees>
              <LongitudeDegrees>-3.46325931139290332794189453125</LongitudeDegrees>
            </Position>
            <AltitudeMeters>15</AltitudeMeters>
            <DistanceMeters>NAN</DistanceMeters>
          </Trackpoint>
          <Trackpoint>
            <Time>2022-07-13T10:41:15.000Z</Time>
            <Position>
              <LatitudeDegrees>43.46182093955576419830322265625</LatitudeDegrees>
              <LongitudeDegrees>-3.463359139859676361083984375</LongitudeDegrees>
            </Position>
            <AltitudeMeters>15</AltitudeMeters>
            <DistanceMeters>NAN</DistanceMeters>
          </Trackpoint>
          <Trackpoint>
            <Time>2022-07-13T10:41:19.000Z</Time>
            <Position>
              <LatitudeDegrees>43.461938537657260894775390625</LatitudeDegrees>
              <LongitudeDegrees>-3.463464081287384033203125</LongitudeDegrees>
            </Position>
            <AltitudeMeters>15</AltitudeMeters>
            <DistanceMeters>NAN</DistanceMeters>
          </Trackpoint>
          <Trackpoint>
            <Time>2022-07-13T10:41:25.000Z</Time>
            <Position>
              <LatitudeDegrees>43.46208161674439907073974609375</LatitudeDegrees>
              <LongitudeDegrees>-3.46362375654280185699462890625</LongitudeDegrees>
            </Position>
            <AltitudeMeters>15.80000019073486328125</AltitudeMeters>
            <DistanceMeters>NAN</DistanceMeters>
          </Trackpoint>
          <Trackpoint>
            <Time>2022-07-13T10:41:33.000Z</Time>
            <Position>
              <LatitudeDegrees>43.46224305219948291778564453125</LatitudeDegrees>
              <LongitudeDegrees>-3.46387269906699657440185546875</LongitudeDegrees>
            </Position>
            <AltitudeMeters>15.6000003814697265625</AltitudeMeters>
            <DistanceMeters>NAN</DistanceMeters>
          </Trackpoint>
          <Trackpoint>
            <Time>2022-07-13T10:41:38.000Z</Time>
            <Position>
              <LatitudeDegrees>43.46230499446392059326171875</LatitudeDegrees>
              <LongitudeDegrees>-3.46403740346431732177734375</LongitudeDegrees>
            </Position>
            <AltitudeMeters>15.19999980926513671875</AltitudeMeters>
            <DistanceMeters>NAN</DistanceMeters>
          </Trackpoint>
          <Trackpoint>
            <Time>2022-07-13T10:41:39.000Z</Time>
            <Position>
              <LatitudeDegrees>43.46231496892869472503662109375</LatitudeDegrees>
              <LongitudeDegrees>-3.4640420973300933837890625</LongitudeDegrees>
            </Position>
            <AltitudeMeters>15.19999980926513671875</AltitudeMeters>
            <DistanceMeters>NAN</DistanceMeters>
          </Trackpoint>
          <Trackpoint>
            <Time>2022-07-13T10:41:43.000Z</Time>
            <Position>
              <LatitudeDegrees>43.46239107660949230194091796875</LatitudeDegrees>
              <LongitudeDegrees>-3.46397311426699161529541015625</LongitudeDegrees>
            </Position>
            <AltitudeMeters>15.19999980926513671875</AltitudeMeters>
            <DistanceMeters>NAN</DistanceMeters>
          </Trackpoint>
          <Trackpoint>
            <Time>2022-07-13T10:41:47.000Z</Time>
            <Position>
              <LatitudeDegrees>43.46252015791833400726318359375</LatitudeDegrees>
              <LongitudeDegrees>-3.46403027884662151336669921875</LongitudeDegrees>
            </Position>
            <AltitudeMeters>15.19999980926513671875</AltitudeMeters>
            <DistanceMeters>NAN</DistanceMeters>
          </Trackpoint>
          <Trackpoint>
            <Time>2022-07-13T10:41:56.000Z</Time>
            <Position>
              <LatitudeDegrees>43.4628234989941120147705078125</LatitudeDegrees>
              <LongitudeDegrees>-3.46425692550837993621826171875</LongitudeDegrees>
            </Position>
            <AltitudeMeters>15.19999980926513671875</AltitudeMeters>
            <DistanceMeters>NAN</DistanceMeters>
          </Trackpoint>
          <Trackpoint>
            <Time>2022-07-13T10:41:59.000Z</Time>
            <Position>
              <LatitudeDegrees>43.46290656365454196929931640625</LatitudeDegrees>
              <LongitudeDegrees>-3.46433990634977817535400390625</LongitudeDegrees>
            </Position>
            <AltitudeMeters>15.19999980926513671875</AltitudeMeters>
            <DistanceMeters>NAN</DistanceMeters>
          </Trackpoint>
          <Trackpoint>
            <Time>2022-07-13T10:42:02.000Z</Time>
            <Position>
              <LatitudeDegrees>43.4629847668111324310302734375</LatitudeDegrees>
              <LongitudeDegrees>-3.4644202888011932373046875</LongitudeDegrees>
            </Position>
            <AltitudeMeters>15.3999996185302734375</AltitudeMeters>
            <DistanceMeters>NAN</DistanceMeters>
          </Trackpoint>
          <Trackpoint>
            <Time>2022-07-13T10:42:09.000Z</Time>
            <Position>
              <LatitudeDegrees>43.46317495219409465789794921875</LatitudeDegrees>
              <LongitudeDegrees>-3.46454056911170482635498046875</LongitudeDegrees>
            </Position>
            <AltitudeMeters>15.3999996185302734375</AltitudeMeters>
            <DistanceMeters>NAN</DistanceMeters>
          </Trackpoint>
          <Trackpoint>
            <Time>2022-07-13T10:42:14.000Z</Time>
            <Position>
              <LatitudeDegrees>43.463279306888580322265625</LatitudeDegrees>
              <LongitudeDegrees>-3.46456571482121944427490234375</LongitudeDegrees>
            </Position>
            <AltitudeMeters>15.3999996185302734375</AltitudeMeters>
            <DistanceMeters>NAN</DistanceMeters>
          </Trackpoint>
          <Trackpoint>
            <Time>2022-07-13T10:42:15.000Z</Time>
            <Position>
              <LatitudeDegrees>43.46328458748757839202880859375</LatitudeDegrees>
              <LongitudeDegrees>-3.46456672064960002899169921875</LongitudeDegrees>
            </Position>
            <AltitudeMeters>15.19999980926513671875</AltitudeMeters>
            <DistanceMeters>NAN</DistanceMeters>
          </Trackpoint>
          <Trackpoint>
            <Time>2022-07-13T10:42:17.000Z</Time>
            <Position>
              <LatitudeDegrees>43.46328458748757839202880859375</LatitudeDegrees>
              <LongitudeDegrees>-3.46456672064960002899169921875</LongitudeDegrees>
            </Position>
            <AltitudeMeters>15</AltitudeMeters>
            <DistanceMeters>NAN</DistanceMeters>
          </Trackpoint>
          <Trackpoint>
            <Time>2022-07-13T10:43:07.000Z</Time>
            <Position>
              <LatitudeDegrees>43.4632270038127899169921875</LatitudeDegrees>
              <LongitudeDegrees>-3.464568816125392913818359375</LongitudeDegrees>
            </Position>
            <AltitudeMeters>15.19999980926513671875</AltitudeMeters>
            <DistanceMeters>NAN</DistanceMeters>
          </Trackpoint>
          <Trackpoint>
            <Time>2022-07-13T10:43:08.000Z</Time>
            <Position>
              <LatitudeDegrees>43.463205881416797637939453125</LatitudeDegrees>
              <LongitudeDegrees>-3.46456135623157024383544921875</LongitudeDegrees>
            </Position>
            <AltitudeMeters>15.19999980926513671875</AltitudeMeters>
            <DistanceMeters>NAN</DistanceMeters>
          </Trackpoint>
          <Trackpoint>
            <Time>2022-07-13T10:43:13.000Z</Time>
            <Position>
              <LatitudeDegrees>43.463063053786754608154296875</LatitudeDegrees>
              <LongitudeDegrees>-3.464517183601856231689453125</LongitudeDegrees>
            </Position>
            <AltitudeMeters>14</AltitudeMeters>
            <DistanceMeters>NAN</DistanceMeters>
          </Trackpoint>
          <Trackpoint>
            <Time>2022-07-13T10:43:14.000Z</Time>
            <Position>
              <LatitudeDegrees>43.463034890592098236083984375</LatitudeDegrees>
              <LongitudeDegrees>-3.46449673175811767578125</LongitudeDegrees>
            </Position>
            <AltitudeMeters>14</AltitudeMeters>
            <DistanceMeters>NAN</DistanceMeters>
          </Trackpoint>
          <Trackpoint>
            <Time>2022-07-13T10:43:21.000Z</Time>
            <Position>
              <LatitudeDegrees>43.462848477065563201904296875</LatitudeDegrees>
              <LongitudeDegrees>-3.46427612006664276123046875</LongitudeDegrees>
            </Position>
            <AltitudeMeters>14.6000003814697265625</AltitudeMeters>
            <DistanceMeters>NAN</DistanceMeters>
          </Trackpoint>
          <Trackpoint>
            <Time>2022-07-13T10:43:26.000Z</Time>
            <Position>
              <LatitudeDegrees>43.46268997527658939361572265625</LatitudeDegrees>
              <LongitudeDegrees>-3.4641435183584690093994140625</LongitudeDegrees>
            </Position>
            <AltitudeMeters>15</AltitudeMeters>
            <DistanceMeters>NAN</DistanceMeters>
          </Trackpoint>
          <Trackpoint>
            <Time>2022-07-13T10:43:33.000Z</Time>
            <Position>
              <LatitudeDegrees>43.46244371496140956878662109375</LatitudeDegrees>
              <LongitudeDegrees>-3.463997505605220794677734375</LongitudeDegrees>
            </Position>
            <AltitudeMeters>15.3999996185302734375</AltitudeMeters>
            <DistanceMeters>NAN</DistanceMeters>
          </Trackpoint>
          <Trackpoint>
            <Time>2022-07-13T10:43:35.000Z</Time>
            <Position>
              <LatitudeDegrees>43.46236676909029483795166015625</LatitudeDegrees>
              <LongitudeDegrees>-3.4639701806008815765380859375</LongitudeDegrees>
            </Position>
            <AltitudeMeters>15.3999996185302734375</AltitudeMeters>
            <DistanceMeters>NAN</DistanceMeters>
          </Trackpoint>
          <Trackpoint>
            <Time>2022-07-13T10:43:36.000Z</Time>
            <Position>
              <LatitudeDegrees>43.46234313212335109710693359375</LatitudeDegrees>
              <LongitudeDegrees>-3.46397831104695796966552734375</LongitudeDegrees>
            </Position>
            <AltitudeMeters>15.3999996185302734375</AltitudeMeters>
            <DistanceMeters>NAN</DistanceMeters>
          </Trackpoint>
          <Trackpoint>
            <Time>2022-07-13T10:43:38.000Z</Time>
            <Position>
              <LatitudeDegrees>43.46228764392435550689697265625</LatitudeDegrees>
              <LongitudeDegrees>-3.4640385769307613372802734375</LongitudeDegrees>
            </Position>
            <AltitudeMeters>15.19999980926513671875</AltitudeMeters>
            <DistanceMeters>NAN</DistanceMeters>
          </Trackpoint>
          <Trackpoint>
            <Time>2022-07-13T10:43:41.000Z</Time>
            <Position>
              <LatitudeDegrees>43.462300635874271392822265625</LatitudeDegrees>
              <LongitudeDegrees>-3.4641850925981998443603515625</LongitudeDegrees>
            </Position>
            <AltitudeMeters>15.19999980926513671875</AltitudeMeters>
            <DistanceMeters>NAN</DistanceMeters>
          </Trackpoint>
          <Trackpoint>
            <Time>2022-07-13T10:43:49.000Z</Time>
            <Position>
              <LatitudeDegrees>43.4623601473867893218994140625</LatitudeDegrees>
              <LongitudeDegrees>-3.46464701928198337554931640625</LongitudeDegrees>
            </Position>
            <AltitudeMeters>14.80000019073486328125</AltitudeMeters>
            <DistanceMeters>NAN</DistanceMeters>
          </Trackpoint>
          <Trackpoint>
            <Time>2022-07-13T10:43:56.000Z</Time>
            <Position>
              <LatitudeDegrees>43.46240733750164508819580078125</LatitudeDegrees>
              <LongitudeDegrees>-3.465061001479625701904296875</LongitudeDegrees>
            </Position>
            <AltitudeMeters>14.19999980926513671875</AltitudeMeters>
            <DistanceMeters>NAN</DistanceMeters>
          </Trackpoint>
          <Trackpoint>
            <Time>2022-07-13T10:43:57.000Z</Time>
            <Position>
              <LatitudeDegrees>43.46240733750164508819580078125</LatitudeDegrees>
              <LongitudeDegrees>-3.465061001479625701904296875</LongitudeDegrees>
            </Position>
            <AltitudeMeters>14.19999980926513671875</AltitudeMeters>
            <DistanceMeters>NAN</DistanceMeters>
          </Trackpoint>
          <Trackpoint>
            <Time>2022-07-13T10:44:04.000Z</Time>
            <Position>
              <LatitudeDegrees>43.46244715154170989990234375</LatitudeDegrees>
              <LongitudeDegrees>-3.4654480777680873870849609375</LongitudeDegrees>
            </Position>
            <AltitudeMeters>14.19999980926513671875</AltitudeMeters>
            <DistanceMeters>NAN</DistanceMeters>
          </Trackpoint>
          <Trackpoint>
            <Time>2022-07-13T10:44:09.000Z</Time>
            <Position>
              <LatitudeDegrees>43.46248998306691646575927734375</LatitudeDegrees>
              <LongitudeDegrees>-3.46573214046657085418701171875</LongitudeDegrees>
            </Position>
            <AltitudeMeters>14.19999980926513671875</AltitudeMeters>
            <DistanceMeters>NAN</DistanceMeters>
          </Trackpoint>
          <Trackpoint>
            <Time>2022-07-13T10:44:10.000Z</Time>
            <Position>
              <LatitudeDegrees>43.46250674687325954437255859375</LatitudeDegrees>
              <LongitudeDegrees>-3.46584999002516269683837890625</LongitudeDegrees>
            </Position>
            <AltitudeMeters>14</AltitudeMeters>
            <DistanceMeters>NAN</DistanceMeters>
          </Trackpoint>
          <Trackpoint>
            <Time>2022-07-13T10:44:14.000Z</Time>
            <Position>
              <LatitudeDegrees>43.462521247565746307373046875</LatitudeDegrees>
              <LongitudeDegrees>-3.46602517180144786834716796875</LongitudeDegrees>
            </Position>
            <AltitudeMeters>14</AltitudeMeters>
            <DistanceMeters>NAN</DistanceMeters>
          </Trackpoint>
          <Trackpoint>
            <Time>2022-07-13T10:44:15.000Z</Time>
            <Position>
              <LatitudeDegrees>43.46253256313502788543701171875</LatitudeDegrees>
              <LongitudeDegrees>-3.46614637412130832672119140625</LongitudeDegrees>
            </Position>
            <AltitudeMeters>14</AltitudeMeters>
            <DistanceMeters>NAN</DistanceMeters>
          </Trackpoint>
          <Trackpoint>
            <Time>2022-07-13T10:44:20.000Z</Time>
            <Position>
              <LatitudeDegrees>43.46255972050130367279052734375</LatitudeDegrees>
              <LongitudeDegrees>-3.46637318842113018035888671875</LongitudeDegrees>
            </Position>
            <AltitudeMeters>13.6000003814697265625</AltitudeMeters>
            <DistanceMeters>NAN</DistanceMeters>
          </Trackpoint>
          <Trackpoint>
            <Time>2022-07-13T10:44:24.000Z</Time>
            <Position>
              <LatitudeDegrees>43.46259676851332187652587890625</LatitudeDegrees>
              <LongitudeDegrees>-3.4666054509580135345458984375</LongitudeDegrees>
            </Position>
            <AltitudeMeters>13.3999996185302734375</AltitudeMeters>
            <DistanceMeters>NAN</DistanceMeters>
          </Trackpoint>
          <Trackpoint>
            <Time>2022-07-13T10:44:26.000Z</Time>
            <Position>
              <LatitudeDegrees>43.4625894762575626373291015625</LatitudeDegrees>
              <LongitudeDegrees>-3.46676378510892391204833984375</LongitudeDegrees>
            </Position>
            <AltitudeMeters>13.3999996185302734375</AltitudeMeters>
            <DistanceMeters>NAN</DistanceMeters>
          </Trackpoint>
          <Trackpoint>
            <Time>2022-07-13T10:44:29.000Z</Time>
            <Position>
              <LatitudeDegrees>43.4625800885260105133056640625</LatitudeDegrees>
              <LongitudeDegrees>-3.46686520613729953765869140625</LongitudeDegrees>
            </Position>
            <AltitudeMeters>13.19999980926513671875</AltitudeMeters>
            <DistanceMeters>NAN</DistanceMeters>
          </Trackpoint>
          <Trackpoint>
            <Time>2022-07-13T10:44:32.000Z</Time>
            <Position>
              <LatitudeDegrees>43.46257966943085193634033203125</LatitudeDegrees>
              <LongitudeDegrees>-3.46700803376734256744384765625</LongitudeDegrees>
            </Position>
            <AltitudeMeters>13.19999980926513671875</AltitudeMeters>
            <DistanceMeters>NAN</DistanceMeters>
          </Trackpoint>
          <Trackpoint>
            <Time>2022-07-13T10:44:33.000Z</Time>
            <Position>
              <LatitudeDegrees>43.46257966943085193634033203125</LatitudeDegrees>
              <LongitudeDegrees>-3.46700803376734256744384765625</LongitudeDegrees>
            </Position>
            <AltitudeMeters>13</AltitudeMeters>
            <DistanceMeters>NAN</DistanceMeters>
          </Trackpoint>
          <Trackpoint>
            <Time>2022-07-13T10:44:36.000Z</Time>
            <Position>
              <LatitudeDegrees>43.46258134581148624420166015625</LatitudeDegrees>
              <LongitudeDegrees>-3.4670124761760234832763671875</LongitudeDegrees>
            </Position>
            <AltitudeMeters>13</AltitudeMeters>
            <DistanceMeters>NAN</DistanceMeters>
          </Trackpoint>
          <Trackpoint>
            <Time>2022-07-13T10:47:08.000Z</Time>
            <Position>
              <LatitudeDegrees>43.46262744627892971038818359375</LatitudeDegrees>
              <LongitudeDegrees>-3.4670810401439666748046875</LongitudeDegrees>
            </Position>
            <AltitudeMeters>15</AltitudeMeters>
            <DistanceMeters>NAN</DistanceMeters>
          </Trackpoint>
          <Trackpoint>
            <Time>2022-07-13T10:47:14.000Z</Time>
            <Position>
              <LatitudeDegrees>43.462686203420162200927734375</LatitudeDegrees>
              <LongitudeDegrees>-3.46734456717967987060546875</LongitudeDegrees>
            </Position>
            <AltitudeMeters>15</AltitudeMeters>
            <DistanceMeters>NAN</DistanceMeters>
          </Trackpoint>
          <Trackpoint>
            <Time>2022-07-13T10:47:18.000Z</Time>
            <Position>
              <LatitudeDegrees>43.46271629445254802703857421875</LatitudeDegrees>
              <LongitudeDegrees>-3.4675378538668155670166015625</LongitudeDegrees>
            </Position>
            <AltitudeMeters>14.80000019073486328125</AltitudeMeters>
            <DistanceMeters>NAN</DistanceMeters>
          </Trackpoint>
          <Trackpoint>
            <Time>2022-07-13T10:47:20.000Z</Time>
            <Position>
              <LatitudeDegrees>43.46272367052733898162841796875</LatitudeDegrees>
              <LongitudeDegrees>-3.467625193297863006591796875</LongitudeDegrees>
            </Position>
            <AltitudeMeters>15</AltitudeMeters>
            <DistanceMeters>NAN</DistanceMeters>
          </Trackpoint>
          <Trackpoint>
            <Time>2022-07-13T10:47:22.000Z</Time>
            <Position>
              <LatitudeDegrees>43.462737165391445159912109375</LatitudeDegrees>
              <LongitudeDegrees>-3.4677400253713130950927734375</LongitudeDegrees>
            </Position>
            <AltitudeMeters>15</AltitudeMeters>
            <DistanceMeters>NAN</DistanceMeters>
          </Trackpoint>
          <Trackpoint>
            <Time>2022-07-13T10:47:33.000Z</Time>
            <Position>
              <LatitudeDegrees>43.46279726363718509674072265625</LatitudeDegrees>
              <LongitudeDegrees>-3.468346707522869110107421875</LongitudeDegrees>
            </Position>
            <AltitudeMeters>15.19999980926513671875</AltitudeMeters>
            <DistanceMeters>NAN</DistanceMeters>
          </Trackpoint>
          <Trackpoint>
            <Time>2022-07-13T10:47:40.000Z</Time>
            <Position>
              <LatitudeDegrees>43.46284738741815090179443359375</LatitudeDegrees>
              <LongitudeDegrees>-3.46877108328044414520263671875</LongitudeDegrees>
            </Position>
            <AltitudeMeters>15.19999980926513671875</AltitudeMeters>
            <DistanceMeters>NAN</DistanceMeters>
          </Trackpoint>
          <Trackpoint>
            <Time>2022-07-13T10:47:41.000Z</Time>
            <Position>
              <LatitudeDegrees>43.4628546796739101409912109375</LatitudeDegrees>
              <LongitudeDegrees>-3.46883051097393035888671875</LongitudeDegrees>
            </Position>
            <AltitudeMeters>15.19999980926513671875</AltitudeMeters>
            <DistanceMeters>NAN</DistanceMeters>
          </Trackpoint>
          <Trackpoint>
            <Time>2022-07-13T10:47:49.000Z</Time>
            <Position>
              <LatitudeDegrees>43.46291561610996723175048828125</LatitudeDegrees>
              <LongitudeDegrees>-3.469353877007961273193359375</LongitudeDegrees>
            </Position>
            <AltitudeMeters>15.3999996185302734375</AltitudeMeters>
            <DistanceMeters>NAN</DistanceMeters>
          </Trackpoint>
          <Trackpoint>
            <Time>2022-07-13T10:47:56.000Z</Time>
            <Position>
              <LatitudeDegrees>43.46297328360378742218017578125</LatitudeDegrees>
              <LongitudeDegrees>-3.4698214195668697357177734375</LongitudeDegrees>
            </Position>
            <AltitudeMeters>15.19999980926513671875</AltitudeMeters>
            <DistanceMeters>NAN</DistanceMeters>
          </Trackpoint>
          <Trackpoint>
            <Time>2022-07-13T10:48:00.000Z</Time>
            <Position>
              <LatitudeDegrees>43.46300982870161533355712890625</LatitudeDegrees>
              <LongitudeDegrees>-3.47008134238421916961669921875</LongitudeDegrees>
            </Position>
            <AltitudeMeters>15.19999980926513671875</AltitudeMeters>
            <DistanceMeters>NAN</DistanceMeters>
          </Trackpoint>
          <Trackpoint>
            <Time>2022-07-13T10:48:04.000Z</Time>
            <Position>
              <LatitudeDegrees>43.46303832717239856719970703125</LatitudeDegrees>
              <LongitudeDegrees>-3.4703608788549900054931640625</LongitudeDegrees>
            </Position>
            <AltitudeMeters>15.19999980926513671875</AltitudeMeters>
            <DistanceMeters>NAN</DistanceMeters>
          </Trackpoint>
          <Trackpoint>
            <Time>2022-07-13T10:48:05.000Z</Time>
            <Position>
              <LatitudeDegrees>43.46304285340011119842529296875</LatitudeDegrees>
              <LongitudeDegrees>-3.47042449750006198883056640625</LongitudeDegrees>
            </Position>
            <AltitudeMeters>15.19999980926513671875</AltitudeMeters>
            <DistanceMeters>NAN</DistanceMeters>
          </Trackpoint>
          <Trackpoint>
            <Time>2022-07-13T10:48:14.000Z</Time>
            <Position>
              <LatitudeDegrees>43.463110662996768951416015625</LatitudeDegrees>
              <LongitudeDegrees>-3.4709985740482807159423828125</LongitudeDegrees>
            </Position>
            <AltitudeMeters>14.19999980926513671875</AltitudeMeters>
            <DistanceMeters>NAN</DistanceMeters>
          </Trackpoint>
          <Trackpoint>
            <Time>2022-07-13T10:48:21.000Z</Time>
            <Position>
              <LatitudeDegrees>43.463164977729320526123046875</LatitudeDegrees>
              <LongitudeDegrees>-3.47145278938114643096923828125</LongitudeDegrees>
            </Position>
            <AltitudeMeters>14</AltitudeMeters>
            <DistanceMeters>NAN</DistanceMeters>
          </Trackpoint>
          <Trackpoint>
            <Time>2022-07-13T10:48:23.000Z</Time>
            <Position>
              <LatitudeDegrees>43.463180065155029296875</LatitudeDegrees>
              <LongitudeDegrees>-3.47158337943255901336669921875</LongitudeDegrees>
            </Position>
            <AltitudeMeters>13.80000019073486328125</AltitudeMeters>
            <DistanceMeters>NAN</DistanceMeters>
          </Trackpoint>
          <Trackpoint>
            <Time>2022-07-13T10:48:24.000Z</Time>
            <Position>
              <LatitudeDegrees>43.46318584866821765899658203125</LatitudeDegrees>
              <LongitudeDegrees>-3.471645154058933258056640625</LongitudeDegrees>
            </Position>
            <AltitudeMeters>13.80000019073486328125</AltitudeMeters>
            <DistanceMeters>NAN</DistanceMeters>
          </Trackpoint>
          <Trackpoint>
            <Time>2022-07-13T10:48:28.000Z</Time>
            <Position>
              <LatitudeDegrees>43.463208563625812530517578125</LatitudeDegrees>
              <LongitudeDegrees>-3.4718920849263668060302734375</LongitudeDegrees>
            </Position>
            <AltitudeMeters>13.6000003814697265625</AltitudeMeters>
            <DistanceMeters>NAN</DistanceMeters>
          </Trackpoint>
          <Trackpoint>
            <Time>2022-07-13T10:48:31.000Z</Time>
            <Position>
              <LatitudeDegrees>43.46322591416537761688232421875</LatitudeDegrees>
              <LongitudeDegrees>-3.47206123173236846923828125</LongitudeDegrees>
            </Position>
            <AltitudeMeters>13.19999980926513671875</AltitudeMeters>
            <DistanceMeters>NAN</DistanceMeters>
          </Trackpoint>
          <Trackpoint>
            <Time>2022-07-13T10:48:35.000Z</Time>
            <Position>
              <LatitudeDegrees>43.463256172835826873779296875</LatitudeDegrees>
              <LongitudeDegrees>-3.47232668660581111907958984375</LongitudeDegrees>
            </Position>
            <AltitudeMeters>12.80000019073486328125</AltitudeMeters>
            <DistanceMeters>NAN</DistanceMeters>
          </Trackpoint>
          <Trackpoint>
            <Time>2022-07-13T10:48:43.000Z</Time>
            <Position>
              <LatitudeDegrees>43.4633093141019344329833984375</LatitudeDegrees>
              <LongitudeDegrees>-3.4728617034852504730224609375</LongitudeDegrees>
            </Position>
            <AltitudeMeters>12.3999996185302734375</AltitudeMeters>
            <DistanceMeters>NAN</DistanceMeters>
          </Trackpoint>
          <Trackpoint>
            <Time>2022-07-13T10:48:47.000Z</Time>
            <Position>
              <LatitudeDegrees>43.4633451886475086212158203125</LatitudeDegrees>
              <LongitudeDegrees>-3.47310720942914485931396484375</LongitudeDegrees>
            </Position>
            <AltitudeMeters>12.3999996185302734375</AltitudeMeters>
            <DistanceMeters>NAN</DistanceMeters>
          </Trackpoint>
          <Trackpoint>
            <Time>2022-07-13T10:48:49.000Z</Time>
            <Position>
              <LatitudeDegrees>43.46336555667221546173095703125</LatitudeDegrees>
              <LongitudeDegrees>-3.47322204150259494781494140625</LongitudeDegrees>
            </Position>
            <AltitudeMeters>12.3999996185302734375</AltitudeMeters>
            <DistanceMeters>NAN</DistanceMeters>
          </Trackpoint>
          <Trackpoint>
            <Time>2022-07-13T10:48:53.000Z</Time>
            <Position>
              <LatitudeDegrees>43.46338148228824138641357421875</LatitudeDegrees>
              <LongitudeDegrees>-3.473456986248493194580078125</LongitudeDegrees>
            </Position>
            <AltitudeMeters>12.3999996185302734375</AltitudeMeters>
            <DistanceMeters>NAN</DistanceMeters>
          </Trackpoint>
          <Trackpoint>
            <Time>2022-07-13T10:48:57.000Z</Time>
            <Position>
              <LatitudeDegrees>43.4634075500071048736572265625</LatitudeDegrees>
              <LongitudeDegrees>-3.47371573559939861297607421875</LongitudeDegrees>
            </Position>
            <AltitudeMeters>12.19999980926513671875</AltitudeMeters>
            <DistanceMeters>NAN</DistanceMeters>
          </Trackpoint>
          <Trackpoint>
            <Time>2022-07-13T10:49:00.000Z</Time>
            <Position>
              <LatitudeDegrees>43.4634290076792240142822265625</LatitudeDegrees>
              <LongitudeDegrees>-3.473915643990039825439453125</LongitudeDegrees>
            </Position>
            <AltitudeMeters>12.19999980926513671875</AltitudeMeters>
            <DistanceMeters>NAN</DistanceMeters>
          </Trackpoint>
          <Trackpoint>
            <Time>2022-07-13T10:49:05.000Z</Time>
            <Position>
              <LatitudeDegrees>43.463466055691242218017578125</LatitudeDegrees>
              <LongitudeDegrees>-3.47423918545246124267578125</LongitudeDegrees>
            </Position>
            <AltitudeMeters>12</AltitudeMeters>
            <DistanceMeters>NAN</DistanceMeters>
          </Trackpoint>
          <Trackpoint>
            <Time>2022-07-13T10:49:08.000Z</Time>
            <Position>
              <LatitudeDegrees>43.46348860301077365875244140625</LatitudeDegrees>
              <LongitudeDegrees>-3.474439680576324462890625</LongitudeDegrees>
            </Position>
            <AltitudeMeters>12</AltitudeMeters>
            <DistanceMeters>NAN</DistanceMeters>
          </Trackpoint>
          <Trackpoint>
            <Time>2022-07-13T10:49:10.000Z</Time>
            <Position>
              <LatitudeDegrees>43.4634937159717082977294921875</LatitudeDegrees>
              <LongitudeDegrees>-3.474574126303195953369140625</LongitudeDegrees>
            </Position>
            <AltitudeMeters>12.19999980926513671875</AltitudeMeters>
            <DistanceMeters>NAN</DistanceMeters>
          </Trackpoint>
          <Trackpoint>
            <Time>2022-07-13T10:49:11.000Z</Time>
            <Position>
              <LatitudeDegrees>43.463499248027801513671875</LatitudeDegrees>
              <LongitudeDegrees>-3.47463875077664852142333984375</LongitudeDegrees>
            </Position>
            <AltitudeMeters>12</AltitudeMeters>
            <DistanceMeters>NAN</DistanceMeters>
          </Trackpoint>
          <Trackpoint>
            <Time>2022-07-13T10:49:12.000Z</Time>
            <Position>
              <LatitudeDegrees>43.46350452862679958343505859375</LatitudeDegrees>
              <LongitudeDegrees>-3.4747040458023548126220703125</LongitudeDegrees>
            </Position>
            <AltitudeMeters>11.80000019073486328125</AltitudeMeters>
            <DistanceMeters>NAN</DistanceMeters>
          </Trackpoint>
          <Trackpoint>
            <Time>2022-07-13T10:49:17.000Z</Time>
            <Position>
              <LatitudeDegrees>43.46354844979941844940185546875</LatitudeDegrees>
              <LongitudeDegrees>-3.4750238992273807525634765625</LongitudeDegrees>
            </Position>
            <AltitudeMeters>11.6000003814697265625</AltitudeMeters>
            <DistanceMeters>NAN</DistanceMeters>
          </Trackpoint>
          <Trackpoint>
            <Time>2022-07-13T10:49:24.000Z</Time>
            <Position>
              <LatitudeDegrees>43.46361793577671051025390625</LatitudeDegrees>
              <LongitudeDegrees>-3.47546101547777652740478515625</LongitudeDegrees>
            </Position>
            <AltitudeMeters>11.80000019073486328125</AltitudeMeters>
            <DistanceMeters>NAN</DistanceMeters>
          </Trackpoint>
          <Trackpoint>
            <Time>2022-07-13T10:49:25.000Z</Time>
            <Position>
              <LatitudeDegrees>43.46362573094666004180908203125</LatitudeDegrees>
              <LongitudeDegrees>-3.47552304156124591827392578125</LongitudeDegrees>
            </Position>
            <AltitudeMeters>11.6000003814697265625</AltitudeMeters>
            <DistanceMeters>NAN</DistanceMeters>
          </Trackpoint>
          <Trackpoint>
            <Time>2022-07-13T10:49:31.000Z</Time>
            <Position>
              <LatitudeDegrees>43.4636660479009151458740234375</LatitudeDegrees>
              <LongitudeDegrees>-3.4758956171572208404541015625</LongitudeDegrees>
            </Position>
            <AltitudeMeters>11.3999996185302734375</AltitudeMeters>
            <DistanceMeters>NAN</DistanceMeters>
          </Trackpoint>
          <Trackpoint>
            <Time>2022-07-13T10:49:33.000Z</Time>
            <Position>
              <LatitudeDegrees>43.463673926889896392822265625</LatitudeDegrees>
              <LongitudeDegrees>-3.47602025605738162994384765625</LongitudeDegrees>
            </Position>
            <AltitudeMeters>11.3999996185302734375</AltitudeMeters>
            <DistanceMeters>NAN</DistanceMeters>
          </Trackpoint>
          <Trackpoint>
            <Time>2022-07-13T10:49:39.000Z</Time>
            <Position>
              <LatitudeDegrees>43.46372388303279876708984375</LatitudeDegrees>
              <LongitudeDegrees>-3.4763593040406703948974609375</LongitudeDegrees>
            </Position>
            <AltitudeMeters>11.19999980926513671875</AltitudeMeters>
            <DistanceMeters>NAN</DistanceMeters>
          </Trackpoint>
          <Trackpoint>
            <Time>2022-07-13T10:49:40.000Z</Time>
            <Position>
              <LatitudeDegrees>43.46373368985950946807861328125</LatitudeDegrees>
              <LongitudeDegrees>-3.4764258563518524169921875</LongitudeDegrees>
            </Position>
            <AltitudeMeters>11</AltitudeMeters>
            <DistanceMeters>NAN</DistanceMeters>
          </Trackpoint>
          <Trackpoint>
            <Time>2022-07-13T10:49:41.000Z</Time>
            <Position>
              <LatitudeDegrees>43.46374492160975933074951171875</LatitudeDegrees>
              <LongitudeDegrees>-3.47648662514984607696533203125</LongitudeDegrees>
            </Position>
            <AltitudeMeters>11</AltitudeMeters>
            <DistanceMeters>NAN</DistanceMeters>
          </Trackpoint>
          <Trackpoint>
            <Time>2022-07-13T10:49:46.000Z</Time>
            <Position>
              <LatitudeDegrees>43.4637807123363018035888671875</LatitudeDegrees>
              <LongitudeDegrees>-3.4767904691398143768310546875</LongitudeDegrees>
            </Position>
            <AltitudeMeters>10.80000019073486328125</AltitudeMeters>
            <DistanceMeters>NAN</DistanceMeters>
          </Trackpoint>
          <Trackpoint>
            <Time>2022-07-13T10:49:47.000Z</Time>
            <Position>
              <LatitudeDegrees>43.463785909116268157958984375</LatitudeDegrees>
              <LongitudeDegrees>-3.4768454544246196746826171875</LongitudeDegrees>
            </Position>
            <AltitudeMeters>10.80000019073486328125</AltitudeMeters>
            <DistanceMeters>NAN</DistanceMeters>
          </Trackpoint>
          <Trackpoint>
            <Time>2022-07-13T10:49:48.000Z</Time>
            <Position>
              <LatitudeDegrees>43.46379454247653484344482421875</LatitudeDegrees>
              <LongitudeDegrees>-3.4769001044332981109619140625</LongitudeDegrees>
            </Position>
            <AltitudeMeters>10.6000003814697265625</AltitudeMeters>
            <DistanceMeters>NAN</DistanceMeters>
          </Trackpoint>
          <Trackpoint>
            <Time>2022-07-13T10:49:52.000Z</Time>
            <Position>
              <LatitudeDegrees>43.4638259746134281158447265625</LatitudeDegrees>
              <LongitudeDegrees>-3.4771192073822021484375</LongitudeDegrees>
            </Position>
            <AltitudeMeters>10.80000019073486328125</AltitudeMeters>
            <DistanceMeters>NAN</DistanceMeters>
          </Trackpoint>
          <Trackpoint>
            <Time>2022-07-13T10:49:54.000Z</Time>
            <Position>
              <LatitudeDegrees>43.4638373740017414093017578125</LatitudeDegrees>
              <LongitudeDegrees>-3.477230854332447052001953125</LongitudeDegrees>
            </Position>
            <AltitudeMeters>10.80000019073486328125</AltitudeMeters>
            <DistanceMeters>NAN</DistanceMeters>
          </Trackpoint>
          <Trackpoint>
            <Time>2022-07-13T10:50:01.000Z</Time>
            <Position>
              <LatitudeDegrees>43.46387417055666446685791015625</LatitudeDegrees>
              <LongitudeDegrees>-3.477615751326084136962890625</LongitudeDegrees>
            </Position>
            <AltitudeMeters>10.80000019073486328125</AltitudeMeters>
            <DistanceMeters>NAN</DistanceMeters>
          </Trackpoint>
          <Trackpoint>
            <Time>2022-07-13T10:50:04.000Z</Time>
            <Position>
              <LatitudeDegrees>43.46388037316501140594482421875</LatitudeDegrees>
              <LongitudeDegrees>-3.4777631051838397979736328125</LongitudeDegrees>
            </Position>
            <AltitudeMeters>10.6000003814697265625</AltitudeMeters>
            <DistanceMeters>NAN</DistanceMeters>
          </Trackpoint>
          <Trackpoint>
            <Time>2022-07-13T10:50:09.000Z</Time>
            <Position>
              <LatitudeDegrees>43.46387199126183986663818359375</LatitudeDegrees>
              <LongitudeDegrees>-3.47796988673508167266845703125</LongitudeDegrees>
            </Position>
            <AltitudeMeters>10.19999980926513671875</AltitudeMeters>
            <DistanceMeters>NAN</DistanceMeters>
          </Trackpoint>
          <Trackpoint>
            <Time>2022-07-13T10:50:15.000Z</Time>
            <Position>
              <LatitudeDegrees>43.4638108871877193450927734375</LatitudeDegrees>
              <LongitudeDegrees>-3.47821530885994434356689453125</LongitudeDegrees>
            </Position>
            <AltitudeMeters>10</AltitudeMeters>
            <DistanceMeters>NAN</DistanceMeters>
          </Trackpoint>
          <Trackpoint>
            <Time>2022-07-13T10:50:20.000Z</Time>
            <Position>
              <LatitudeDegrees>43.46367769874632358551025390625</LatitudeDegrees>
              <LongitudeDegrees>-3.47842452116310596466064453125</LongitudeDegrees>
            </Position>
            <AltitudeMeters>9.80000019073486328125</AltitudeMeters>
            <DistanceMeters>NAN</DistanceMeters>
          </Trackpoint>
          <Trackpoint>
            <Time>2022-07-13T10:50:26.000Z</Time>
            <Position>
              <LatitudeDegrees>43.4634732641279697418212890625</LatitudeDegrees>
              <LongitudeDegrees>-3.47857237793505191802978515625</LongitudeDegrees>
            </Position>
            <AltitudeMeters>9.6000003814697265625</AltitudeMeters>
            <DistanceMeters>NAN</DistanceMeters>
          </Trackpoint>
          <Trackpoint>
            <Time>2022-07-13T10:50:29.000Z</Time>
            <Position>
              <LatitudeDegrees>43.4633636288344860076904296875</LatitudeDegrees>
              <LongitudeDegrees>-3.4786359965801239013671875</LongitudeDegrees>
            </Position>
            <AltitudeMeters>9.3999996185302734375</AltitudeMeters>
            <DistanceMeters>NAN</DistanceMeters>
          </Trackpoint>
          <Trackpoint>
            <Time>2022-07-13T10:50:34.000Z</Time>
            <Position>
              <LatitudeDegrees>43.46318878233432769775390625</LatitudeDegrees>
              <LongitudeDegrees>-3.4787230007350444793701171875</LongitudeDegrees>
            </Position>
            <AltitudeMeters>9.3999996185302734375</AltitudeMeters>
            <DistanceMeters>NAN</DistanceMeters>
          </Trackpoint>
          <Trackpoint>
            <Time>2022-07-13T10:50:42.000Z</Time>
            <Position>
              <LatitudeDegrees>43.4629163704812526702880859375</LatitudeDegrees>
              <LongitudeDegrees>-3.47885920666158199310302734375</LongitudeDegrees>
            </Position>
            <AltitudeMeters>9.80000019073486328125</AltitudeMeters>
            <DistanceMeters>NAN</DistanceMeters>
          </Trackpoint>
          <Trackpoint>
            <Time>2022-07-13T10:50:49.000Z</Time>
            <Position>
              <LatitudeDegrees>43.46267187036573886871337890625</LatitudeDegrees>
              <LongitudeDegrees>-3.47897487692534923553466796875</LongitudeDegrees>
            </Position>
            <AltitudeMeters>9.80000019073486328125</AltitudeMeters>
            <DistanceMeters>NAN</DistanceMeters>
          </Trackpoint>
          <Trackpoint>
            <Time>2022-07-13T10:50:56.000Z</Time>
            <Position>
              <LatitudeDegrees>43.46242678351700305938720703125</LatitudeDegrees>
              <LongitudeDegrees>-3.4791095741093158721923828125</LongitudeDegrees>
            </Position>
            <AltitudeMeters>10.19999980926513671875</AltitudeMeters>
            <DistanceMeters>NAN</DistanceMeters>
          </Trackpoint>
          <Trackpoint>
            <Time>2022-07-13T10:51:02.000Z</Time>
            <Position>
              <LatitudeDegrees>43.4622251987457275390625</LatitudeDegrees>
              <LongitudeDegrees>-3.4792502224445343017578125</LongitudeDegrees>
            </Position>
            <AltitudeMeters>10.6000003814697265625</AltitudeMeters>
            <DistanceMeters>NAN</DistanceMeters>
          </Trackpoint>
          <Trackpoint>
            <Time>2022-07-13T10:51:05.000Z</Time>
            <Position>
              <LatitudeDegrees>43.46212537027895450592041015625</LatitudeDegrees>
              <LongitudeDegrees>-3.47930612973868846893310546875</LongitudeDegrees>
            </Position>
            <AltitudeMeters>10.80000019073486328125</AltitudeMeters>
            <DistanceMeters>NAN</DistanceMeters>
          </Trackpoint>
          <Trackpoint>
            <Time>2022-07-13T10:51:07.000Z</Time>
            <Position>
              <LatitudeDegrees>43.4620573930442333221435546875</LatitudeDegrees>
              <LongitudeDegrees>-3.47934099845588207244873046875</LongitudeDegrees>
            </Position>
            <AltitudeMeters>10.80000019073486328125</AltitudeMeters>
            <DistanceMeters>NAN</DistanceMeters>
          </Trackpoint>
          <Trackpoint>
            <Time>2022-07-13T10:51:09.000Z</Time>
            <Position>
              <LatitudeDegrees>43.4619869850575923919677734375</LatitudeDegrees>
              <LongitudeDegrees>-3.47937762737274169921875</LongitudeDegrees>
            </Position>
            <AltitudeMeters>11</AltitudeMeters>
            <DistanceMeters>NAN</DistanceMeters>
          </Trackpoint>
          <Trackpoint>
            <Time>2022-07-13T10:51:10.000Z</Time>
            <Position>
              <LatitudeDegrees>43.46195270307362079620361328125</LatitudeDegrees>
              <LongitudeDegrees>-3.47939581610262393951416015625</LongitudeDegrees>
            </Position>
            <AltitudeMeters>11</AltitudeMeters>
            <DistanceMeters>NAN</DistanceMeters>
          </Trackpoint>
          <Trackpoint>
            <Time>2022-07-13T10:51:11.000Z</Time>
            <Position>
              <LatitudeDegrees>43.46192009747028350830078125</LatitudeDegrees>
              <LongitudeDegrees>-3.47941425628960132598876953125</LongitudeDegrees>
            </Position>
            <AltitudeMeters>11</AltitudeMeters>
            <DistanceMeters>NAN</DistanceMeters>
          </Trackpoint>
          <Trackpoint>
            <Time>2022-07-13T10:51:12.000Z</Time>
            <Position>
              <LatitudeDegrees>43.46188950352370738983154296875</LatitudeDegrees>
              <LongitudeDegrees>-3.479430936276912689208984375</LongitudeDegrees>
            </Position>
            <AltitudeMeters>11.19999980926513671875</AltitudeMeters>
            <DistanceMeters>NAN</DistanceMeters>
          </Trackpoint>
          <Trackpoint>
            <Time>2022-07-13T10:51:13.000Z</Time>
            <Position>
              <LatitudeDegrees>43.461858071386814117431640625</LatitudeDegrees>
              <LongitudeDegrees>-3.47944577224552631378173828125</LongitudeDegrees>
            </Position>
            <AltitudeMeters>11.19999980926513671875</AltitudeMeters>
            <DistanceMeters>NAN</DistanceMeters>
          </Trackpoint>
          <Trackpoint>
            <Time>2022-07-13T10:51:22.000Z</Time>
            <Position>
              <LatitudeDegrees>43.46158423461019992828369140625</LatitudeDegrees>
              <LongitudeDegrees>-3.47960234619677066802978515625</LongitudeDegrees>
            </Position>
            <AltitudeMeters>11.3999996185302734375</AltitudeMeters>
            <DistanceMeters>NAN</DistanceMeters>
          </Trackpoint>
          <Trackpoint>
            <Time>2022-07-13T10:51:24.000Z</Time>
            <Position>
              <LatitudeDegrees>43.46151784993708133697509765625</LatitudeDegrees>
              <LongitudeDegrees>-3.47964442335069179534912109375</LongitudeDegrees>
            </Position>
            <AltitudeMeters>11.80000019073486328125</AltitudeMeters>
            <DistanceMeters>NAN</DistanceMeters>
          </Trackpoint>
          <Trackpoint>
            <Time>2022-07-13T10:51:26.000Z</Time>
            <Position>
              <LatitudeDegrees>43.46144962124526500701904296875</LatitudeDegrees>
              <LongitudeDegrees>-3.479681722819805145263671875</LongitudeDegrees>
            </Position>
            <AltitudeMeters>12</AltitudeMeters>
            <DistanceMeters>NAN</DistanceMeters>
          </Trackpoint>
          <Trackpoint>
            <Time>2022-07-13T10:51:28.000Z</Time>
            <Position>
              <LatitudeDegrees>43.461379967629909515380859375</LatitudeDegrees>
              <LongitudeDegrees>-3.47971717827022075653076171875</LongitudeDegrees>
            </Position>
            <AltitudeMeters>12</AltitudeMeters>
            <DistanceMeters>NAN</DistanceMeters>
          </Trackpoint>
          <Trackpoint>
            <Time>2022-07-13T10:51:30.000Z</Time>
            <Position>
              <LatitudeDegrees>43.4613080509006977081298828125</LatitudeDegrees>
              <LongitudeDegrees>-3.47975724376738071441650390625</LongitudeDegrees>
            </Position>
            <AltitudeMeters>12</AltitudeMeters>
            <DistanceMeters>NAN</DistanceMeters>
          </Trackpoint>
          <Trackpoint>
            <Time>2022-07-13T10:51:39.000Z</Time>
            <Position>
              <LatitudeDegrees>43.46095927990972995758056640625</LatitudeDegrees>
              <LongitudeDegrees>-3.47992354072630405426025390625</LongitudeDegrees>
            </Position>
            <AltitudeMeters>12.6000003814697265625</AltitudeMeters>
            <DistanceMeters>NAN</DistanceMeters>
          </Trackpoint>
          <Trackpoint>
            <Time>2022-07-13T10:51:40.000Z</Time>
            <Position>
              <LatitudeDegrees>43.46091904677450656890869140625</LatitudeDegrees>
              <LongitudeDegrees>-3.479953967034816741943359375</LongitudeDegrees>
            </Position>
            <AltitudeMeters>12.6000003814697265625</AltitudeMeters>
            <DistanceMeters>NAN</DistanceMeters>
          </Trackpoint>
          <Trackpoint>
            <Time>2022-07-13T10:51:47.000Z</Time>
            <Position>
              <LatitudeDegrees>43.46059617586433887481689453125</LatitudeDegrees>
              <LongitudeDegrees>-3.4801754169166088104248046875</LongitudeDegrees>
            </Position>
            <AltitudeMeters>11.80000019073486328125</AltitudeMeters>
            <DistanceMeters>NAN</DistanceMeters>
          </Trackpoint>
          <Trackpoint>
            <Time>2022-07-13T10:51:48.000Z</Time>
            <Position>
              <LatitudeDegrees>43.4605513326823711395263671875</LatitudeDegrees>
              <LongitudeDegrees>-3.4802143089473247528076171875</LongitudeDegrees>
            </Position>
            <AltitudeMeters>11.6000003814697265625</AltitudeMeters>
            <DistanceMeters>NAN</DistanceMeters>
          </Trackpoint>
          <Trackpoint>
            <Time>2022-07-13T10:51:50.000Z</Time>
            <Position>
              <LatitudeDegrees>43.46047882921993732452392578125</LatitudeDegrees>
              <LongitudeDegrees>-3.48030500113964080810546875</LongitudeDegrees>
            </Position>
            <AltitudeMeters>11.19999980926513671875</AltitudeMeters>
            <DistanceMeters>NAN</DistanceMeters>
          </Trackpoint>
          <Trackpoint>
            <Time>2022-07-13T10:51:52.000Z</Time>
            <Position>
              <LatitudeDegrees>43.46042736433446407318115234375</LatitudeDegrees>
              <LongitudeDegrees>-3.48038923926651477813720703125</LongitudeDegrees>
            </Position>
            <AltitudeMeters>11.19999980926513671875</AltitudeMeters>
            <DistanceMeters>NAN</DistanceMeters>
          </Trackpoint>
          <Trackpoint>
            <Time>2022-07-13T10:51:54.000Z</Time>
            <Position>
              <LatitudeDegrees>43.46036332659423351287841796875</LatitudeDegrees>
              <LongitudeDegrees>-3.4804912470281124114990234375</LongitudeDegrees>
            </Position>
            <AltitudeMeters>11.19999980926513671875</AltitudeMeters>
            <DistanceMeters>NAN</DistanceMeters>
          </Trackpoint>
          <Trackpoint>
            <Time>2022-07-13T10:52:01.000Z</Time>
            <Position>
              <LatitudeDegrees>43.46016987226903438568115234375</LatitudeDegrees>
              <LongitudeDegrees>-3.4808744676411151885986328125</LongitudeDegrees>
            </Position>
            <AltitudeMeters>11.19999980926513671875</AltitudeMeters>
            <DistanceMeters>NAN</DistanceMeters>
          </Trackpoint>
          <Trackpoint>
            <Time>2022-07-13T10:52:05.000Z</Time>
            <Position>
              <LatitudeDegrees>43.46006426028907299041748046875</LatitudeDegrees>
              <LongitudeDegrees>-3.481092564761638641357421875</LongitudeDegrees>
            </Position>
            <AltitudeMeters>10.80000019073486328125</AltitudeMeters>
            <DistanceMeters>NAN</DistanceMeters>
          </Trackpoint>
          <Trackpoint>
            <Time>2022-07-13T10:52:09.000Z</Time>
            <Position>
              <LatitudeDegrees>43.4599485062062740325927734375</LatitudeDegrees>
              <LongitudeDegrees>-3.48128358833491802215576171875</LongitudeDegrees>
            </Position>
            <AltitudeMeters>10.19999980926513671875</AltitudeMeters>
            <DistanceMeters>NAN</DistanceMeters>
          </Trackpoint>
          <Trackpoint>
            <Time>2022-07-13T10:52:13.000Z</Time>
            <Position>
              <LatitudeDegrees>43.45985035412013530731201171875</LatitudeDegrees>
              <LongitudeDegrees>-3.48148726858198642730712890625</LongitudeDegrees>
            </Position>
            <AltitudeMeters>10.19999980926513671875</AltitudeMeters>
            <DistanceMeters>NAN</DistanceMeters>
          </Trackpoint>
          <Trackpoint>
            <Time>2022-07-13T10:52:15.000Z</Time>
            <Position>
              <LatitudeDegrees>43.45980257727205753326416015625</LatitudeDegrees>
              <LongitudeDegrees>-3.4815735183656215667724609375</LongitudeDegrees>
            </Position>
            <AltitudeMeters>10</AltitudeMeters>
            <DistanceMeters>NAN</DistanceMeters>
          </Trackpoint>
          <Trackpoint>
            <Time>2022-07-13T10:52:18.000Z</Time>
            <Position>
              <LatitudeDegrees>43.45972001552581787109375</LatitudeDegrees>
              <LongitudeDegrees>-3.4817151725292205810546875</LongitudeDegrees>
            </Position>
            <AltitudeMeters>10</AltitudeMeters>
            <DistanceMeters>NAN</DistanceMeters>
          </Trackpoint>
          <Trackpoint>
            <Time>2022-07-13T10:52:20.000Z</Time>
            <Position>
              <LatitudeDegrees>43.45966033637523651123046875</LatitudeDegrees>
              <LongitudeDegrees>-3.4818155877292156219482421875</LongitudeDegrees>
            </Position>
            <AltitudeMeters>10</AltitudeMeters>
            <DistanceMeters>NAN</DistanceMeters>
          </Trackpoint>
          <Trackpoint>
            <Time>2022-07-13T10:52:27.000Z</Time>
            <Position>
              <LatitudeDegrees>43.459436707198619842529296875</LatitudeDegrees>
              <LongitudeDegrees>-3.4821793623268604278564453125</LongitudeDegrees>
            </Position>
            <AltitudeMeters>10</AltitudeMeters>
            <DistanceMeters>NAN</DistanceMeters>
          </Trackpoint>
          <Trackpoint>
            <Time>2022-07-13T10:52:30.000Z</Time>
            <Position>
              <LatitudeDegrees>43.4593440033495426177978515625</LatitudeDegrees>
              <LongitudeDegrees>-3.48233484663069248199462890625</LongitudeDegrees>
            </Position>
            <AltitudeMeters>9.6000003814697265625</AltitudeMeters>
            <DistanceMeters>NAN</DistanceMeters>
          </Trackpoint>
          <Trackpoint>
            <Time>2022-07-13T10:52:32.000Z</Time>
            <Position>
              <LatitudeDegrees>43.45928189344704151153564453125</LatitudeDegrees>
              <LongitudeDegrees>-3.48244029097259044647216796875</LongitudeDegrees>
            </Position>
            <AltitudeMeters>9.3999996185302734375</AltitudeMeters>
            <DistanceMeters>NAN</DistanceMeters>
          </Trackpoint>
          <Trackpoint>
            <Time>2022-07-13T10:52:35.000Z</Time>
            <Position>
              <LatitudeDegrees>43.45918449573218822479248046875</LatitudeDegrees>
              <LongitudeDegrees>-3.4825880639255046844482421875</LongitudeDegrees>
            </Position>
            <AltitudeMeters>9</AltitudeMeters>
            <DistanceMeters>NAN</DistanceMeters>
          </Trackpoint>
          <Trackpoint>
            <Time>2022-07-13T10:52:40.000Z</Time>
            <Position>
              <LatitudeDegrees>43.459079973399639129638671875</LatitudeDegrees>
              <LongitudeDegrees>-3.48279668949544429779052734375</LongitudeDegrees>
            </Position>
            <AltitudeMeters>9</AltitudeMeters>
            <DistanceMeters>NAN</DistanceMeters>
          </Trackpoint>
          <Trackpoint>
            <Time>2022-07-13T10:52:44.000Z</Time>
            <Position>
              <LatitudeDegrees>43.459045775234699249267578125</LatitudeDegrees>
              <LongitudeDegrees>-3.48285418935120105743408203125</LongitudeDegrees>
            </Position>
            <AltitudeMeters>9</AltitudeMeters>
            <DistanceMeters>NAN</DistanceMeters>
          </Trackpoint>
          <Trackpoint>
            <Time>2022-07-13T10:52:49.000Z</Time>
            <Position>
              <LatitudeDegrees>43.45902867615222930908203125</LatitudeDegrees>
              <LongitudeDegrees>-3.4828727133572101593017578125</LongitudeDegrees>
            </Position>
            <AltitudeMeters>9</AltitudeMeters>
            <DistanceMeters>NAN</DistanceMeters>
          </Trackpoint>
          <Trackpoint>
            <Time>2022-07-13T10:53:27.000Z</Time>
            <Position>
              <LatitudeDegrees>43.458975367248058319091796875</LatitudeDegrees>
              <LongitudeDegrees>-3.48294471390545368194580078125</LongitudeDegrees>
            </Position>
            <AltitudeMeters>8.6000003814697265625</AltitudeMeters>
            <DistanceMeters>NAN</DistanceMeters>
          </Trackpoint>
          <Trackpoint>
            <Time>2022-07-13T10:53:28.000Z</Time>
            <Position>
              <LatitudeDegrees>43.4589587710797786712646484375</LatitudeDegrees>
              <LongitudeDegrees>-3.48296977579593658447265625</LongitudeDegrees>
            </Position>
            <AltitudeMeters>8.6000003814697265625</AltitudeMeters>
            <DistanceMeters>NAN</DistanceMeters>
          </Trackpoint>
          <Trackpoint>
            <Time>2022-07-13T10:53:33.000Z</Time>
            <Position>
              <LatitudeDegrees>43.45884184353053569793701171875</LatitudeDegrees>
              <LongitudeDegrees>-3.4831674210727214813232421875</LongitudeDegrees>
            </Position>
            <AltitudeMeters>8.3999996185302734375</AltitudeMeters>
            <DistanceMeters>NAN</DistanceMeters>
          </Trackpoint>
          <Trackpoint>
            <Time>2022-07-13T10:53:37.000Z</Time>
            <Position>
              <LatitudeDegrees>43.4587378241121768951416015625</LatitudeDegrees>
              <LongitudeDegrees>-3.48332072608172893524169921875</LongitudeDegrees>
            </Position>
            <AltitudeMeters>8.3999996185302734375</AltitudeMeters>
            <DistanceMeters>NAN</DistanceMeters>
          </Trackpoint>
          <Trackpoint>
            <Time>2022-07-13T10:53:39.000Z</Time>
            <Position>
              <LatitudeDegrees>43.4586841799318790435791015625</LatitudeDegrees>
              <LongitudeDegrees>-3.4833990968763828277587890625</LongitudeDegrees>
            </Position>
            <AltitudeMeters>8.3999996185302734375</AltitudeMeters>
            <DistanceMeters>NAN</DistanceMeters>
          </Trackpoint>
          <Trackpoint>
            <Time>2022-07-13T10:53:41.000Z</Time>
            <Position>
              <LatitudeDegrees>43.4586318768560886383056640625</LatitudeDegrees>
              <LongitudeDegrees>-3.4834802336990833282470703125</LongitudeDegrees>
            </Position>
            <AltitudeMeters>8.3999996185302734375</AltitudeMeters>
            <DistanceMeters>NAN</DistanceMeters>
          </Trackpoint>
          <Trackpoint>
            <Time>2022-07-13T10:53:47.000Z</Time>
            <Position>
              <LatitudeDegrees>43.4584840200841426849365234375</LatitudeDegrees>
              <LongitudeDegrees>-3.48371501080691814422607421875</LongitudeDegrees>
            </Position>
            <AltitudeMeters>8.3999996185302734375</AltitudeMeters>
            <DistanceMeters>NAN</DistanceMeters>
          </Trackpoint>
          <Trackpoint>
            <Time>2022-07-13T10:53:51.000Z</Time>
            <Position>
              <LatitudeDegrees>43.45838896930217742919921875</LatitudeDegrees>
              <LongitudeDegrees>-3.4838661365211009979248046875</LongitudeDegrees>
            </Position>
            <AltitudeMeters>8.19999980926513671875</AltitudeMeters>
            <DistanceMeters>NAN</DistanceMeters>
          </Trackpoint>
          <Trackpoint>
            <Time>2022-07-13T10:54:01.000Z</Time>
            <Position>
              <LatitudeDegrees>43.45814329572021961212158203125</LatitudeDegrees>
              <LongitudeDegrees>-3.484255559742450714111328125</LongitudeDegrees>
            </Position>
            <AltitudeMeters>8</AltitudeMeters>
            <DistanceMeters>NAN</DistanceMeters>
          </Trackpoint>
          <Trackpoint>
            <Time>2022-07-13T10:54:11.000Z</Time>
            <Position>
              <LatitudeDegrees>43.457874990999698638916015625</LatitudeDegrees>
              <LongitudeDegrees>-3.48467163741588592529296875</LongitudeDegrees>
            </Position>
            <AltitudeMeters>8</AltitudeMeters>
            <DistanceMeters>NAN</DistanceMeters>
          </Trackpoint>
          <Trackpoint>
            <Time>2022-07-13T10:54:15.000Z</Time>
            <Position>
              <LatitudeDegrees>43.4577687084674835205078125</LatitudeDegrees>
              <LongitudeDegrees>-3.4848528541624546051025390625</LongitudeDegrees>
            </Position>
            <AltitudeMeters>7.80000019073486328125</AltitudeMeters>
            <DistanceMeters>NAN</DistanceMeters>
          </Trackpoint>
          <Trackpoint>
            <Time>2022-07-13T10:54:18.000Z</Time>
            <Position>
              <LatitudeDegrees>43.45768849365413188934326171875</LatitudeDegrees>
              <LongitudeDegrees>-3.4849933348596096038818359375</LongitudeDegrees>
            </Position>
            <AltitudeMeters>7.599999904632568359375</AltitudeMeters>
            <DistanceMeters>NAN</DistanceMeters>
          </Trackpoint>
          <Trackpoint>
            <Time>2022-07-13T10:54:20.000Z</Time>
            <Position>
              <LatitudeDegrees>43.457634262740612030029296875</LatitudeDegrees>
              <LongitudeDegrees>-3.485084362328052520751953125</LongitudeDegrees>
            </Position>
            <AltitudeMeters>7.599999904632568359375</AltitudeMeters>
            <DistanceMeters>NAN</DistanceMeters>
          </Trackpoint>
          <Trackpoint>
            <Time>2022-07-13T10:54:24.000Z</Time>
            <Position>
              <LatitudeDegrees>43.4574952907860279083251953125</LatitudeDegrees>
              <LongitudeDegrees>-3.4852639026939868927001953125</LongitudeDegrees>
            </Position>
            <AltitudeMeters>7.599999904632568359375</AltitudeMeters>
            <DistanceMeters>NAN</DistanceMeters>
          </Trackpoint>
          <Trackpoint>
            <Time>2022-07-13T10:54:28.000Z</Time>
            <Position>
              <LatitudeDegrees>43.457388170063495635986328125</LatitudeDegrees>
              <LongitudeDegrees>-3.485442437231540679931640625</LongitudeDegrees>
            </Position>
            <AltitudeMeters>7.400000095367431640625</AltitudeMeters>
            <DistanceMeters>NAN</DistanceMeters>
          </Trackpoint>
          <Trackpoint>
            <Time>2022-07-13T10:54:34.000Z</Time>
            <Position>
              <LatitudeDegrees>43.45724458806216716766357421875</LatitudeDegrees>
              <LongitudeDegrees>-3.48573521710932254791259765625</LongitudeDegrees>
            </Position>
            <AltitudeMeters>7.599999904632568359375</AltitudeMeters>
            <DistanceMeters>NAN</DistanceMeters>
          </Trackpoint>
          <Trackpoint>
            <Time>2022-07-13T10:54:35.000Z</Time>
            <Position>
              <LatitudeDegrees>43.457231931388378143310546875</LatitudeDegrees>
              <LongitudeDegrees>-3.48579472862184047698974609375</LongitudeDegrees>
            </Position>
            <AltitudeMeters>7.599999904632568359375</AltitudeMeters>
            <DistanceMeters>NAN</DistanceMeters>
          </Trackpoint>
          <Trackpoint>
            <Time>2022-07-13T10:54:37.000Z</Time>
            <Position>
              <LatitudeDegrees>43.4572108089923858642578125</LatitudeDegrees>
              <LongitudeDegrees>-3.48591140471398830413818359375</LongitudeDegrees>
            </Position>
            <AltitudeMeters>7.599999904632568359375</AltitudeMeters>
            <DistanceMeters>NAN</DistanceMeters>
          </Trackpoint>
          <Trackpoint>
            <Time>2022-07-13T10:54:41.000Z</Time>
            <Position>
              <LatitudeDegrees>43.4572025947272777557373046875</LatitudeDegrees>
              <LongitudeDegrees>-3.48613671027123928070068359375</LongitudeDegrees>
            </Position>
            <AltitudeMeters>7.19999980926513671875</AltitudeMeters>
            <DistanceMeters>NAN</DistanceMeters>
          </Trackpoint>
          <Trackpoint>
            <Time>2022-07-13T10:54:47.000Z</Time>
            <Position>
              <LatitudeDegrees>43.4572679735720157623291015625</LatitudeDegrees>
              <LongitudeDegrees>-3.48646896891295909881591796875</LongitudeDegrees>
            </Position>
            <AltitudeMeters>7.19999980926513671875</AltitudeMeters>
            <DistanceMeters>NAN</DistanceMeters>
          </Trackpoint>
          <Trackpoint>
            <Time>2022-07-13T10:54:54.000Z</Time>
            <Position>
              <LatitudeDegrees>43.4573615156114101409912109375</LatitudeDegrees>
              <LongitudeDegrees>-3.48683374933898448944091796875</LongitudeDegrees>
            </Position>
            <AltitudeMeters>6.599999904632568359375</AltitudeMeters>
            <DistanceMeters>NAN</DistanceMeters>
          </Trackpoint>
          <Trackpoint>
            <Time>2022-07-13T10:54:56.000Z</Time>
            <Position>
              <LatitudeDegrees>43.45738708041608333587646484375</LatitudeDegrees>
              <LongitudeDegrees>-3.48693005740642547607421875</LongitudeDegrees>
            </Position>
            <AltitudeMeters>6.400000095367431640625</AltitudeMeters>
            <DistanceMeters>NAN</DistanceMeters>
          </Trackpoint>
          <Trackpoint>
            <Time>2022-07-13T10:55:05.000Z</Time>
            <Position>
              <LatitudeDegrees>43.457502163946628570556640625</LatitudeDegrees>
              <LongitudeDegrees>-3.487372957170009613037109375</LongitudeDegrees>
            </Position>
            <AltitudeMeters>7.599999904632568359375</AltitudeMeters>
            <DistanceMeters>NAN</DistanceMeters>
          </Trackpoint>
          <Trackpoint>
            <Time>2022-07-13T10:55:09.000Z</Time>
            <Position>
              <LatitudeDegrees>43.457539379596710205078125</LatitudeDegrees>
              <LongitudeDegrees>-3.4875789843499660491943359375</LongitudeDegrees>
            </Position>
            <AltitudeMeters>7.599999904632568359375</AltitudeMeters>
            <DistanceMeters>NAN</DistanceMeters>
          </Trackpoint>
          <Trackpoint>
            <Time>2022-07-13T10:55:14.000Z</Time>
            <Position>
              <LatitudeDegrees>43.4575675427913665771484375</LatitudeDegrees>
              <LongitudeDegrees>-3.48787662573158740997314453125</LongitudeDegrees>
            </Position>
            <AltitudeMeters>8</AltitudeMeters>
            <DistanceMeters>NAN</DistanceMeters>
          </Trackpoint>
          <Trackpoint>
            <Time>2022-07-13T10:55:22.000Z</Time>
            <Position>
              <LatitudeDegrees>43.45751247368752956390380859375</LatitudeDegrees>
              <LongitudeDegrees>-3.4883139096200466156005859375</LongitudeDegrees>
            </Position>
            <AltitudeMeters>8.3999996185302734375</AltitudeMeters>
            <DistanceMeters>NAN</DistanceMeters>
          </Trackpoint>
          <Trackpoint>
            <Time>2022-07-13T10:55:27.000Z</Time>
            <Position>
              <LatitudeDegrees>43.45745958387851715087890625</LatitudeDegrees>
              <LongitudeDegrees>-3.48859260790050029754638671875</LongitudeDegrees>
            </Position>
            <AltitudeMeters>8.19999980926513671875</AltitudeMeters>
            <DistanceMeters>NAN</DistanceMeters>
          </Trackpoint>
          <Trackpoint>
            <Time>2022-07-13T10:55:29.000Z</Time>
            <Position>
              <LatitudeDegrees>43.45743837766349315643310546875</LatitudeDegrees>
              <LongitudeDegrees>-3.48868958652019500732421875</LongitudeDegrees>
            </Position>
            <AltitudeMeters>8.3999996185302734375</AltitudeMeters>
            <DistanceMeters>NAN</DistanceMeters>
          </Trackpoint>
          <Trackpoint>
            <Time>2022-07-13T10:55:31.000Z</Time>
            <Position>
              <LatitudeDegrees>43.45741490833461284637451171875</LatitudeDegrees>
              <LongitudeDegrees>-3.4888014011085033416748046875</LongitudeDegrees>
            </Position>
            <AltitudeMeters>8.6000003814697265625</AltitudeMeters>
            <DistanceMeters>NAN</DistanceMeters>
          </Trackpoint>
          <Trackpoint>
            <Time>2022-07-13T10:55:32.000Z</Time>
            <Position>
              <LatitudeDegrees>43.4574067778885364532470703125</LatitudeDegrees>
              <LongitudeDegrees>-3.4888399578630924224853515625</LongitudeDegrees>
            </Position>
            <AltitudeMeters>8.6000003814697265625</AltitudeMeters>
            <DistanceMeters>NAN</DistanceMeters>
          </Trackpoint>
          <Trackpoint>
            <Time>2022-07-13T10:55:38.000Z</Time>
            <Position>
              <LatitudeDegrees>43.457348607480525970458984375</LatitudeDegrees>
              <LongitudeDegrees>-3.48914799280464649200439453125</LongitudeDegrees>
            </Position>
            <AltitudeMeters>9.19999980926513671875</AltitudeMeters>
            <DistanceMeters>NAN</DistanceMeters>
          </Trackpoint>
          <Trackpoint>
            <Time>2022-07-13T10:55:39.000Z</Time>
            <Position>
              <LatitudeDegrees>43.45734030939638614654541015625</LatitudeDegrees>
              <LongitudeDegrees>-3.48919778130948543548583984375</LongitudeDegrees>
            </Position>
            <AltitudeMeters>9.3999996185302734375</AltitudeMeters>
            <DistanceMeters>NAN</DistanceMeters>
          </Trackpoint>
          <Trackpoint>
            <Time>2022-07-13T10:55:48.000Z</Time>
            <Position>
              <LatitudeDegrees>43.457275517284870147705078125</LatitudeDegrees>
              <LongitudeDegrees>-3.48963364027440547943115234375</LongitudeDegrees>
            </Position>
            <AltitudeMeters>9.6000003814697265625</AltitudeMeters>
            <DistanceMeters>NAN</DistanceMeters>
          </Trackpoint>
          <Trackpoint>
            <Time>2022-07-13T10:55:52.000Z</Time>
            <Position>
              <LatitudeDegrees>43.45724098384380340576171875</LatitudeDegrees>
              <LongitudeDegrees>-3.4898035414516925811767578125</LongitudeDegrees>
            </Position>
            <AltitudeMeters>9.6000003814697265625</AltitudeMeters>
            <DistanceMeters>NAN</DistanceMeters>
          </Trackpoint>
          <Trackpoint>
            <Time>2022-07-13T10:55:54.000Z</Time>
            <Position>
              <LatitudeDegrees>43.45722514204680919647216796875</LatitudeDegrees>
              <LongitudeDegrees>-3.4898932278156280517578125</LongitudeDegrees>
            </Position>
            <AltitudeMeters>9.80000019073486328125</AltitudeMeters>
            <DistanceMeters>NAN</DistanceMeters>
          </Trackpoint>
          <Trackpoint>
            <Time>2022-07-13T10:56:00.000Z</Time>
            <Position>
              <LatitudeDegrees>43.45717065967619419097900390625</LatitudeDegrees>
              <LongitudeDegrees>-3.4901666454970836639404296875</LongitudeDegrees>
            </Position>
            <AltitudeMeters>10.3999996185302734375</AltitudeMeters>
            <DistanceMeters>NAN</DistanceMeters>
          </Trackpoint>
          <Trackpoint>
            <Time>2022-07-13T10:56:07.000Z</Time>
            <Position>
              <LatitudeDegrees>43.45709656365215778350830078125</LatitudeDegrees>
              <LongitudeDegrees>-3.4904851578176021575927734375</LongitudeDegrees>
            </Position>
            <AltitudeMeters>10.80000019073486328125</AltitudeMeters>
            <DistanceMeters>NAN</DistanceMeters>
          </Trackpoint>
          <Trackpoint>
            <Time>2022-07-13T10:56:09.000Z</Time>
            <Position>
              <LatitudeDegrees>43.45707929693162441253662109375</LatitudeDegrees>
              <LongitudeDegrees>-3.49056218750774860382080078125</LongitudeDegrees>
            </Position>
            <AltitudeMeters>10.80000019073486328125</AltitudeMeters>
            <DistanceMeters>NAN</DistanceMeters>
          </Trackpoint>
          <Trackpoint>
            <Time>2022-07-13T10:56:19.000Z</Time>
            <Position>
              <LatitudeDegrees>43.4569742716848850250244140625</LatitudeDegrees>
              <LongitudeDegrees>-3.49096544086933135986328125</LongitudeDegrees>
            </Position>
            <AltitudeMeters>11.3999996185302734375</AltitudeMeters>
            <DistanceMeters>NAN</DistanceMeters>
          </Trackpoint>
          <Trackpoint>
            <Time>2022-07-13T10:56:27.000Z</Time>
            <Position>
              <LatitudeDegrees>43.45688634552061557769775390625</LatitudeDegrees>
              <LongitudeDegrees>-3.4912636689841747283935546875</LongitudeDegrees>
            </Position>
            <AltitudeMeters>11.80000019073486328125</AltitudeMeters>
            <DistanceMeters>NAN</DistanceMeters>
          </Trackpoint>
          <Trackpoint>
            <Time>2022-07-13T10:56:32.000Z</Time>
            <Position>
              <LatitudeDegrees>43.456847034394741058349609375</LatitudeDegrees>
              <LongitudeDegrees>-3.49144681356847286224365234375</LongitudeDegrees>
            </Position>
            <AltitudeMeters>12.3999996185302734375</AltitudeMeters>
            <DistanceMeters>NAN</DistanceMeters>
          </Trackpoint>
          <Trackpoint>
            <Time>2022-07-13T10:56:41.000Z</Time>
            <Position>
              <LatitudeDegrees>43.45680487342178821563720703125</LatitudeDegrees>
              <LongitudeDegrees>-3.49180765450000762939453125</LongitudeDegrees>
            </Position>
            <AltitudeMeters>12.80000019073486328125</AltitudeMeters>
            <DistanceMeters>NAN</DistanceMeters>
          </Trackpoint>
          <Trackpoint>
            <Time>2022-07-13T10:56:47.000Z</Time>
            <Position>
              <LatitudeDegrees>43.456802777945995330810546875</LatitudeDegrees>
              <LongitudeDegrees>-3.492036648094654083251953125</LongitudeDegrees>
            </Position>
            <AltitudeMeters>13.19999980926513671875</AltitudeMeters>
            <DistanceMeters>NAN</DistanceMeters>
          </Trackpoint>
          <Trackpoint>
            <Time>2022-07-13T10:56:51.000Z</Time>
            <Position>
              <LatitudeDegrees>43.45681895501911640167236328125</LatitudeDegrees>
              <LongitudeDegrees>-3.49219967611134052276611328125</LongitudeDegrees>
            </Position>
            <AltitudeMeters>13.3999996185302734375</AltitudeMeters>
            <DistanceMeters>NAN</DistanceMeters>
          </Trackpoint>
          <Trackpoint>
            <Time>2022-07-13T10:56:58.000Z</Time>
            <Position>
              <LatitudeDegrees>43.45683102495968341827392578125</LatitudeDegrees>
              <LongitudeDegrees>-3.4924683161079883575439453125</LongitudeDegrees>
            </Position>
            <AltitudeMeters>13.80000019073486328125</AltitudeMeters>
            <DistanceMeters>NAN</DistanceMeters>
          </Trackpoint>
          <Trackpoint>
            <Time>2022-07-13T10:57:01.000Z</Time>
            <Position>
              <LatitudeDegrees>43.45683370716869831085205078125</LatitudeDegrees>
              <LongitudeDegrees>-3.4925833158195018768310546875</LongitudeDegrees>
            </Position>
            <AltitudeMeters>14</AltitudeMeters>
            <DistanceMeters>NAN</DistanceMeters>
          </Trackpoint>
          <Trackpoint>
            <Time>2022-07-13T10:57:04.000Z</Time>
            <Position>
              <LatitudeDegrees>43.45684259198606014251708984375</LatitudeDegrees>
              <LongitudeDegrees>-3.492691777646541595458984375</LongitudeDegrees>
            </Position>
            <AltitudeMeters>14.19999980926513671875</AltitudeMeters>
            <DistanceMeters>NAN</DistanceMeters>
          </Trackpoint>
          <Trackpoint>
            <Time>2022-07-13T10:57:11.000Z</Time>
            <Position>
              <LatitudeDegrees>43.45683186315000057220458984375</LatitudeDegrees>
              <LongitudeDegrees>-3.4929306618869304656982421875</LongitudeDegrees>
            </Position>
            <AltitudeMeters>14.6000003814697265625</AltitudeMeters>
            <DistanceMeters>NAN</DistanceMeters>
          </Trackpoint>
          <Trackpoint>
            <Time>2022-07-13T10:57:13.000Z</Time>
            <Position>
              <LatitudeDegrees>43.45681996084749698638916015625</LatitudeDegrees>
              <LongitudeDegrees>-3.49298556335270404815673828125</LongitudeDegrees>
            </Position>
            <AltitudeMeters>14.80000019073486328125</AltitudeMeters>
            <DistanceMeters>NAN</DistanceMeters>
          </Trackpoint>
          <Trackpoint>
            <Time>2022-07-13T10:57:23.000Z</Time>
            <Position>
              <LatitudeDegrees>43.45674502663314342498779296875</LatitudeDegrees>
              <LongitudeDegrees>-3.4933142177760601043701171875</LongitudeDegrees>
            </Position>
            <AltitudeMeters>15.3999996185302734375</AltitudeMeters>
            <DistanceMeters>NAN</DistanceMeters>
          </Trackpoint>
          <Trackpoint>
            <Time>2022-07-13T10:57:31.000Z</Time>
            <Position>
              <LatitudeDegrees>43.45672943629324436187744140625</LatitudeDegrees>
              <LongitudeDegrees>-3.493601381778717041015625</LongitudeDegrees>
            </Position>
            <AltitudeMeters>15.3999996185302734375</AltitudeMeters>
            <DistanceMeters>NAN</DistanceMeters>
          </Trackpoint>
          <Trackpoint>
            <Time>2022-07-13T10:57:38.000Z</Time>
            <Position>
              <LatitudeDegrees>43.4567690826952457427978515625</LatitudeDegrees>
              <LongitudeDegrees>-3.4938441216945648193359375</LongitudeDegrees>
            </Position>
            <AltitudeMeters>15.80000019073486328125</AltitudeMeters>
            <DistanceMeters>NAN</DistanceMeters>
          </Trackpoint>
          <Trackpoint>
            <Time>2022-07-13T10:57:39.000Z</Time>
            <Position>
              <LatitudeDegrees>43.45677821896970272064208984375</LatitudeDegrees>
              <LongitudeDegrees>-3.493879325687885284423828125</LongitudeDegrees>
            </Position>
            <AltitudeMeters>16</AltitudeMeters>
            <DistanceMeters>NAN</DistanceMeters>
          </Trackpoint>
          <Trackpoint>
            <Time>2022-07-13T10:57:47.000Z</Time>
            <Position>
              <LatitudeDegrees>43.45687008462846279144287109375</LatitudeDegrees>
              <LongitudeDegrees>-3.49412131123244762420654296875</LongitudeDegrees>
            </Position>
            <AltitudeMeters>16.6000003814697265625</AltitudeMeters>
            <DistanceMeters>NAN</DistanceMeters>
          </Trackpoint>
          <Trackpoint>
            <Time>2022-07-13T10:57:54.000Z</Time>
            <Position>
              <LatitudeDegrees>43.45696295611560344696044921875</LatitudeDegrees>
              <LongitudeDegrees>-3.4943180344998836517333984375</LongitudeDegrees>
            </Position>
            <AltitudeMeters>17</AltitudeMeters>
            <DistanceMeters>NAN</DistanceMeters>
          </Trackpoint>
          <Trackpoint>
            <Time>2022-07-13T10:57:57.000Z</Time>
            <Position>
              <LatitudeDegrees>43.45699346624314785003662109375</LatitudeDegrees>
              <LongitudeDegrees>-3.49439422599971294403076171875</LongitudeDegrees>
            </Position>
            <AltitudeMeters>17.3999996185302734375</AltitudeMeters>
            <DistanceMeters>NAN</DistanceMeters>
          </Trackpoint>
          <Trackpoint>
            <Time>2022-07-13T10:58:04.000Z</Time>
            <Position>
              <LatitudeDegrees>43.45708281733095645904541015625</LatitudeDegrees>
              <LongitudeDegrees>-3.49459581077098846435546875</LongitudeDegrees>
            </Position>
            <AltitudeMeters>18</AltitudeMeters>
            <DistanceMeters>NAN</DistanceMeters>
          </Trackpoint>
          <Trackpoint>
            <Time>2022-07-13T10:58:06.000Z</Time>
            <Position>
              <LatitudeDegrees>43.45709287561476230621337890625</LatitudeDegrees>
              <LongitudeDegrees>-3.4946526400744915008544921875</LongitudeDegrees>
            </Position>
            <AltitudeMeters>18.200000762939453125</AltitudeMeters>
            <DistanceMeters>NAN</DistanceMeters>
          </Trackpoint>
          <Trackpoint>
            <Time>2022-07-13T10:58:11.000Z</Time>
            <Position>
              <LatitudeDegrees>43.4571040235459804534912109375</LatitudeDegrees>
              <LongitudeDegrees>-3.4948072023689746856689453125</LongitudeDegrees>
            </Position>
            <AltitudeMeters>18.200000762939453125</AltitudeMeters>
            <DistanceMeters>NAN</DistanceMeters>
          </Trackpoint>
          <Trackpoint>
            <Time>2022-07-13T10:58:12.000Z</Time>
            <Position>
              <LatitudeDegrees>43.45710628665983676910400390625</LatitudeDegrees>
              <LongitudeDegrees>-3.49484391510486602783203125</LongitudeDegrees>
            </Position>
            <AltitudeMeters>18.3999996185302734375</AltitudeMeters>
            <DistanceMeters>NAN</DistanceMeters>
          </Trackpoint>
          <Trackpoint>
            <Time>2022-07-13T10:58:19.000Z</Time>
            <Position>
              <LatitudeDegrees>43.45704979263246059417724609375</LatitudeDegrees>
              <LongitudeDegrees>-3.49511574022471904754638671875</LongitudeDegrees>
            </Position>
            <AltitudeMeters>18.3999996185302734375</AltitudeMeters>
            <DistanceMeters>NAN</DistanceMeters>
          </Trackpoint>
          <Trackpoint>
            <Time>2022-07-13T10:58:27.000Z</Time>
            <Position>
              <LatitudeDegrees>43.45697217620909214019775390625</LatitudeDegrees>
              <LongitudeDegrees>-3.49542855285108089447021484375</LongitudeDegrees>
            </Position>
            <AltitudeMeters>18.799999237060546875</AltitudeMeters>
            <DistanceMeters>NAN</DistanceMeters>
          </Trackpoint>
          <Trackpoint>
            <Time>2022-07-13T10:58:30.000Z</Time>
            <Position>
              <LatitudeDegrees>43.45693227834999561309814453125</LatitudeDegrees>
              <LongitudeDegrees>-3.4955500066280364990234375</LongitudeDegrees>
            </Position>
            <AltitudeMeters>19</AltitudeMeters>
            <DistanceMeters>NAN</DistanceMeters>
          </Trackpoint>
          <Trackpoint>
            <Time>2022-07-13T10:58:31.000Z</Time>
            <Position>
              <LatitudeDegrees>43.45692121423780918121337890625</LatitudeDegrees>
              <LongitudeDegrees>-3.49559091031551361083984375</LongitudeDegrees>
            </Position>
            <AltitudeMeters>19</AltitudeMeters>
            <DistanceMeters>NAN</DistanceMeters>
          </Trackpoint>
          <Trackpoint>
            <Time>2022-07-13T10:58:35.000Z</Time>
            <Position>
              <LatitudeDegrees>43.45689053647220134735107421875</LatitudeDegrees>
              <LongitudeDegrees>-3.49575879983603954315185546875</LongitudeDegrees>
            </Position>
            <AltitudeMeters>19.200000762939453125</AltitudeMeters>
            <DistanceMeters>NAN</DistanceMeters>
          </Trackpoint>
          <Trackpoint>
            <Time>2022-07-13T10:58:41.000Z</Time>
            <Position>
              <LatitudeDegrees>43.4568529017269611358642578125</LatitudeDegrees>
              <LongitudeDegrees>-3.4960091672837734222412109375</LongitudeDegrees>
            </Position>
            <AltitudeMeters>20</AltitudeMeters>
            <DistanceMeters>NAN</DistanceMeters>
          </Trackpoint>
          <Trackpoint>
            <Time>2022-07-13T10:58:45.000Z</Time>
            <Position>
              <LatitudeDegrees>43.45684929750859737396240234375</LatitudeDegrees>
              <LongitudeDegrees>-3.4961697645485401153564453125</LongitudeDegrees>
            </Position>
            <AltitudeMeters>19.6000003814697265625</AltitudeMeters>
            <DistanceMeters>NAN</DistanceMeters>
          </Trackpoint>
          <Trackpoint>
            <Time>2022-07-13T10:58:50.000Z</Time>
            <Position>
              <LatitudeDegrees>43.45685214735567569732666015625</LatitudeDegrees>
              <LongitudeDegrees>-3.49635994993150234222412109375</LongitudeDegrees>
            </Position>
            <AltitudeMeters>19.799999237060546875</AltitudeMeters>
            <DistanceMeters>NAN</DistanceMeters>
          </Trackpoint>
          <Trackpoint>
            <Time>2022-07-13T10:58:52.000Z</Time>
            <Position>
              <LatitudeDegrees>43.45685047097504138946533203125</LatitudeDegrees>
              <LongitudeDegrees>-3.496426083147525787353515625</LongitudeDegrees>
            </Position>
            <AltitudeMeters>20</AltitudeMeters>
            <DistanceMeters>NAN</DistanceMeters>
          </Trackpoint>
          <Trackpoint>
            <Time>2022-07-13T10:58:54.000Z</Time>
            <Position>
              <LatitudeDegrees>43.456847034394741058349609375</LatitudeDegrees>
              <LongitudeDegrees>-3.49649372510612010955810546875</LongitudeDegrees>
            </Position>
            <AltitudeMeters>20.200000762939453125</AltitudeMeters>
            <DistanceMeters>NAN</DistanceMeters>
          </Trackpoint>
          <Trackpoint>
            <Time>2022-07-13T10:58:58.000Z</Time>
            <Position>
              <LatitudeDegrees>43.45684544183313846588134765625</LatitudeDegrees>
              <LongitudeDegrees>-3.4966336190700531005859375</LongitudeDegrees>
            </Position>
            <AltitudeMeters>20.3999996185302734375</AltitudeMeters>
            <DistanceMeters>NAN</DistanceMeters>
          </Trackpoint>
          <Trackpoint>
            <Time>2022-07-13T10:59:08.000Z</Time>
            <Position>
              <LatitudeDegrees>43.456847369670867919921875</LatitudeDegrees>
              <LongitudeDegrees>-3.49699915386736392974853515625</LongitudeDegrees>
            </Position>
            <AltitudeMeters>21</AltitudeMeters>
            <DistanceMeters>NAN</DistanceMeters>
          </Trackpoint>
          <Trackpoint>
            <Time>2022-07-13T10:59:13.000Z</Time>
            <Position>
              <LatitudeDegrees>43.4568381495773792266845703125</LatitudeDegrees>
              <LongitudeDegrees>-3.4971849806606769561767578125</LongitudeDegrees>
            </Position>
            <AltitudeMeters>21</AltitudeMeters>
            <DistanceMeters>NAN</DistanceMeters>
          </Trackpoint>
          <Trackpoint>
            <Time>2022-07-13T10:59:16.000Z</Time>
            <Position>
              <LatitudeDegrees>43.45684527419507503509521484375</LatitudeDegrees>
              <LongitudeDegrees>-3.4972989745438098907470703125</LongitudeDegrees>
            </Position>
            <AltitudeMeters>21.6000003814697265625</AltitudeMeters>
            <DistanceMeters>NAN</DistanceMeters>
          </Trackpoint>
          <Trackpoint>
            <Time>2022-07-13T10:59:22.000Z</Time>
            <Position>
              <LatitudeDegrees>43.45686689950525760650634765625</LatitudeDegrees>
              <LongitudeDegrees>-3.49751832894980907440185546875</LongitudeDegrees>
            </Position>
            <AltitudeMeters>22.200000762939453125</AltitudeMeters>
            <DistanceMeters>NAN</DistanceMeters>
          </Trackpoint>
          <Trackpoint>
            <Time>2022-07-13T10:59:25.000Z</Time>
            <Position>
              <LatitudeDegrees>43.456881903111934661865234375</LatitudeDegrees>
              <LongitudeDegrees>-3.4976312331855297088623046875</LongitudeDegrees>
            </Position>
            <AltitudeMeters>22.3999996185302734375</AltitudeMeters>
            <DistanceMeters>NAN</DistanceMeters>
          </Trackpoint>
          <Trackpoint>
            <Time>2022-07-13T10:59:34.000Z</Time>
            <Position>
              <LatitudeDegrees>43.45696798525750637054443359375</LatitudeDegrees>
              <LongitudeDegrees>-3.49790808744728565216064453125</LongitudeDegrees>
            </Position>
            <AltitudeMeters>23.200000762939453125</AltitudeMeters>
            <DistanceMeters>NAN</DistanceMeters>
          </Trackpoint>
          <Trackpoint>
            <Time>2022-07-13T10:59:35.000Z</Time>
            <Position>
              <LatitudeDegrees>43.45697485841810703277587890625</LatitudeDegrees>
              <LongitudeDegrees>-3.49793993867933750152587890625</LongitudeDegrees>
            </Position>
            <AltitudeMeters>23.200000762939453125</AltitudeMeters>
            <DistanceMeters>NAN</DistanceMeters>
          </Trackpoint>
          <Trackpoint>
            <Time>2022-07-13T10:59:43.000Z</Time>
            <Position>
              <LatitudeDegrees>43.457008637487888336181640625</LatitudeDegrees>
              <LongitudeDegrees>-3.49822559393942356109619140625</LongitudeDegrees>
            </Position>
            <AltitudeMeters>23.799999237060546875</AltitudeMeters>
            <DistanceMeters>NAN</DistanceMeters>
          </Trackpoint>
          <Trackpoint>
            <Time>2022-07-13T10:59:50.000Z</Time>
            <Position>
              <LatitudeDegrees>43.45698240213096141815185546875</LatitudeDegrees>
              <LongitudeDegrees>-3.4984845109283924102783203125</LongitudeDegrees>
            </Position>
            <AltitudeMeters>24.200000762939453125</AltitudeMeters>
            <DistanceMeters>NAN</DistanceMeters>
          </Trackpoint>
          <Trackpoint>
            <Time>2022-07-13T10:59:53.000Z</Time>
            <Position>
              <LatitudeDegrees>43.456977121531963348388671875</LatitudeDegrees>
              <LongitudeDegrees>-3.4986082278192043304443359375</LongitudeDegrees>
            </Position>
            <AltitudeMeters>24.3999996185302734375</AltitudeMeters>
            <DistanceMeters>NAN</DistanceMeters>
          </Trackpoint>
          <Trackpoint>
            <Time>2022-07-13T11:00:02.000Z</Time>
            <Position>
              <LatitudeDegrees>43.457026071846485137939453125</LatitudeDegrees>
              <LongitudeDegrees>-3.498950712382793426513671875</LongitudeDegrees>
            </Position>
            <AltitudeMeters>25</AltitudeMeters>
            <DistanceMeters>NAN</DistanceMeters>
          </Trackpoint>
          <Trackpoint>
            <Time>2022-07-13T11:00:09.000Z</Time>
            <Position>
              <LatitudeDegrees>43.4570906125009059906005859375</LatitudeDegrees>
              <LongitudeDegrees>-3.49924399517476558685302734375</LongitudeDegrees>
            </Position>
            <AltitudeMeters>25.200000762939453125</AltitudeMeters>
            <DistanceMeters>NAN</DistanceMeters>
          </Trackpoint>
          <Trackpoint>
            <Time>2022-07-13T11:00:10.000Z</Time>
            <Position>
              <LatitudeDegrees>43.45710092224180698394775390625</LatitudeDegrees>
              <LongitudeDegrees>-3.4992885030806064605712890625</LongitudeDegrees>
            </Position>
            <AltitudeMeters>25.200000762939453125</AltitudeMeters>
            <DistanceMeters>NAN</DistanceMeters>
          </Trackpoint>
          <Trackpoint>
            <Time>2022-07-13T11:00:13.000Z</Time>
            <Position>
              <LatitudeDegrees>43.45712707377970218658447265625</LatitudeDegrees>
              <LongitudeDegrees>-3.4994108788669109344482421875</LongitudeDegrees>
            </Position>
            <AltitudeMeters>25.3999996185302734375</AltitudeMeters>
            <DistanceMeters>NAN</DistanceMeters>
          </Trackpoint>
          <Trackpoint>
            <Time>2022-07-13T11:00:17.000Z</Time>
            <Position>
              <LatitudeDegrees>43.4571653790771961212158203125</LatitudeDegrees>
              <LongitudeDegrees>-3.49958111532032489776611328125</LongitudeDegrees>
            </Position>
            <AltitudeMeters>25.3999996185302734375</AltitudeMeters>
            <DistanceMeters>NAN</DistanceMeters>
          </Trackpoint>
          <Trackpoint>
            <Time>2022-07-13T11:00:26.000Z</Time>
            <Position>
              <LatitudeDegrees>43.45724911428987979888916015625</LatitudeDegrees>
              <LongitudeDegrees>-3.4999453090131282806396484375</LongitudeDegrees>
            </Position>
            <AltitudeMeters>25.799999237060546875</AltitudeMeters>
            <DistanceMeters>NAN</DistanceMeters>
          </Trackpoint>
          <Trackpoint>
            <Time>2022-07-13T11:00:31.000Z</Time>
            <Position>
              <LatitudeDegrees>43.45729135908186435699462890625</LatitudeDegrees>
              <LongitudeDegrees>-3.50013591349124908447265625</LongitudeDegrees>
            </Position>
            <AltitudeMeters>26.200000762939453125</AltitudeMeters>
            <DistanceMeters>NAN</DistanceMeters>
          </Trackpoint>
          <Trackpoint>
            <Time>2022-07-13T11:00:38.000Z</Time>
            <Position>
              <LatitudeDegrees>43.457347936928272247314453125</LatitudeDegrees>
              <LongitudeDegrees>-3.50040413439273834228515625</LongitudeDegrees>
            </Position>
            <AltitudeMeters>26.799999237060546875</AltitudeMeters>
            <DistanceMeters>NAN</DistanceMeters>
          </Trackpoint>
          <Trackpoint>
            <Time>2022-07-13T11:00:47.000Z</Time>
            <Position>
              <LatitudeDegrees>43.45743267796933650970458984375</LatitudeDegrees>
              <LongitudeDegrees>-3.50077386014163494110107421875</LongitudeDegrees>
            </Position>
            <AltitudeMeters>27.200000762939453125</AltitudeMeters>
            <DistanceMeters>NAN</DistanceMeters>
          </Trackpoint>
          <Trackpoint>
            <Time>2022-07-13T11:00:48.000Z</Time>
            <Position>
              <LatitudeDegrees>43.45744156278669834136962890625</LatitudeDegrees>
              <LongitudeDegrees>-3.500815518200397491455078125</LongitudeDegrees>
            </Position>
            <AltitudeMeters>27.3999996185302734375</AltitudeMeters>
            <DistanceMeters>NAN</DistanceMeters>
          </Trackpoint>
          <Trackpoint>
            <Time>2022-07-13T11:00:55.000Z</Time>
            <Position>
              <LatitudeDegrees>43.457491099834442138671875</LatitudeDegrees>
              <LongitudeDegrees>-3.50107862614095211029052734375</LongitudeDegrees>
            </Position>
            <AltitudeMeters>27.799999237060546875</AltitudeMeters>
            <DistanceMeters>NAN</DistanceMeters>
          </Trackpoint>
          <Trackpoint>
            <Time>2022-07-13T11:01:02.000Z</Time>
            <Position>
              <LatitudeDegrees>43.45754675567150115966796875</LatitudeDegrees>
              <LongitudeDegrees>-3.50137467496097087860107421875</LongitudeDegrees>
            </Position>
            <AltitudeMeters>28.3999996185302734375</AltitudeMeters>
            <DistanceMeters>NAN</DistanceMeters>
          </Trackpoint>
          <Trackpoint>
            <Time>2022-07-13T11:01:04.000Z</Time>
            <Position>
              <LatitudeDegrees>43.45756008289754390716552734375</LatitudeDegrees>
              <LongitudeDegrees>-3.50145287811756134033203125</LongitudeDegrees>
            </Position>
            <AltitudeMeters>28.799999237060546875</AltitudeMeters>
            <DistanceMeters>NAN</DistanceMeters>
          </Trackpoint>
          <Trackpoint>
            <Time>2022-07-13T11:01:08.000Z</Time>
            <Position>
              <LatitudeDegrees>43.4575884975492954254150390625</LatitudeDegrees>
              <LongitudeDegrees>-3.50161003880202770233154296875</LongitudeDegrees>
            </Position>
            <AltitudeMeters>28.6000003814697265625</AltitudeMeters>
            <DistanceMeters>NAN</DistanceMeters>
          </Trackpoint>
          <Trackpoint>
            <Time>2022-07-13T11:01:13.000Z</Time>
            <Position>
              <LatitudeDegrees>43.4576220251619815826416015625</LatitudeDegrees>
              <LongitudeDegrees>-3.50181221030652523040771484375</LongitudeDegrees>
            </Position>
            <AltitudeMeters>28.3999996185302734375</AltitudeMeters>
            <DistanceMeters>NAN</DistanceMeters>
          </Trackpoint>
          <Trackpoint>
            <Time>2022-07-13T11:01:14.000Z</Time>
            <Position>
              <LatitudeDegrees>43.45762646757066249847412109375</LatitudeDegrees>
              <LongitudeDegrees>-3.50185252726078033447265625</LongitudeDegrees>
            </Position>
            <AltitudeMeters>28.6000003814697265625</AltitudeMeters>
            <DistanceMeters>NAN</DistanceMeters>
          </Trackpoint>
          <Trackpoint>
            <Time>2022-07-13T11:01:20.000Z</Time>
            <Position>
              <LatitudeDegrees>43.45766921527683734893798828125</LatitudeDegrees>
              <LongitudeDegrees>-3.50210021249949932098388671875</LongitudeDegrees>
            </Position>
            <AltitudeMeters>28.799999237060546875</AltitudeMeters>
            <DistanceMeters>NAN</DistanceMeters>
          </Trackpoint>
          <Trackpoint>
            <Time>2022-07-13T11:01:24.000Z</Time>
            <Position>
              <LatitudeDegrees>43.4576951153576374053955078125</LatitudeDegrees>
              <LongitudeDegrees>-3.50226785056293010711669921875</LongitudeDegrees>
            </Position>
            <AltitudeMeters>29</AltitudeMeters>
            <DistanceMeters>NAN</DistanceMeters>
          </Trackpoint>
          <Trackpoint>
            <Time>2022-07-13T11:01:30.000Z</Time>
            <Position>
              <LatitudeDegrees>43.4577397070825099945068359375</LatitudeDegrees>
              <LongitudeDegrees>-3.50251142866909503936767578125</LongitudeDegrees>
            </Position>
            <AltitudeMeters>29.6000003814697265625</AltitudeMeters>
            <DistanceMeters>NAN</DistanceMeters>
          </Trackpoint>
          <Trackpoint>
            <Time>2022-07-13T11:01:33.000Z</Time>
            <Position>
              <LatitudeDegrees>43.45775454305112361907958984375</LatitudeDegrees>
              <LongitudeDegrees>-3.50263581611216068267822265625</LongitudeDegrees>
            </Position>
            <AltitudeMeters>29.799999237060546875</AltitudeMeters>
            <DistanceMeters>NAN</DistanceMeters>
          </Trackpoint>
          <Trackpoint>
            <Time>2022-07-13T11:01:41.000Z</Time>
            <Position>
              <LatitudeDegrees>43.4578134678304195404052734375</LatitudeDegrees>
              <LongitudeDegrees>-3.50298249162733554840087890625</LongitudeDegrees>
            </Position>
            <AltitudeMeters>30.6000003814697265625</AltitudeMeters>
            <DistanceMeters>NAN</DistanceMeters>
          </Trackpoint>
          <Trackpoint>
            <Time>2022-07-13T11:01:47.000Z</Time>
            <Position>
              <LatitudeDegrees>43.457855544984340667724609375</LatitudeDegrees>
              <LongitudeDegrees>-3.503231517970561981201171875</LongitudeDegrees>
            </Position>
            <AltitudeMeters>30.799999237060546875</AltitudeMeters>
            <DistanceMeters>NAN</DistanceMeters>
          </Trackpoint>
          <Trackpoint>
            <Time>2022-07-13T11:01:56.000Z</Time>
            <Position>
              <LatitudeDegrees>43.45792251639068126678466796875</LatitudeDegrees>
              <LongitudeDegrees>-3.50360342301428318023681640625</LongitudeDegrees>
            </Position>
            <AltitudeMeters>31.6000003814697265625</AltitudeMeters>
            <DistanceMeters>NAN</DistanceMeters>
          </Trackpoint>
          <Trackpoint>
            <Time>2022-07-13T11:02:02.000Z</Time>
            <Position>
              <LatitudeDegrees>43.457961492240428924560546875</LatitudeDegrees>
              <LongitudeDegrees>-3.50385085679590702056884765625</LongitudeDegrees>
            </Position>
            <AltitudeMeters>31.799999237060546875</AltitudeMeters>
            <DistanceMeters>NAN</DistanceMeters>
          </Trackpoint>
          <Trackpoint>
            <Time>2022-07-13T11:02:08.000Z</Time>
            <Position>
              <LatitudeDegrees>43.45800935290753841400146484375</LatitudeDegrees>
              <LongitudeDegrees>-3.50411086343228816986083984375</LongitudeDegrees>
            </Position>
            <AltitudeMeters>32.200000762939453125</AltitudeMeters>
            <DistanceMeters>NAN</DistanceMeters>
          </Trackpoint>
          <Trackpoint>
            <Time>2022-07-13T11:02:17.000Z</Time>
            <Position>
              <LatitudeDegrees>43.45807691104710102081298828125</LatitudeDegrees>
              <LongitudeDegrees>-3.5045077465474605560302734375</LongitudeDegrees>
            </Position>
            <AltitudeMeters>32.200000762939453125</AltitudeMeters>
            <DistanceMeters>NAN</DistanceMeters>
          </Trackpoint>
          <Trackpoint>
            <Time>2022-07-13T11:02:21.000Z</Time>
            <Position>
              <LatitudeDegrees>43.458113037049770355224609375</LatitudeDegrees>
              <LongitudeDegrees>-3.50469374097883701324462890625</LongitudeDegrees>
            </Position>
            <AltitudeMeters>32.40000152587890625</AltitudeMeters>
            <DistanceMeters>NAN</DistanceMeters>
          </Trackpoint>
          <Trackpoint>
            <Time>2022-07-13T11:02:27.000Z</Time>
            <Position>
              <LatitudeDegrees>43.4581822715699672698974609375</LatitudeDegrees>
              <LongitudeDegrees>-3.50497252307832241058349609375</LongitudeDegrees>
            </Position>
            <AltitudeMeters>32.799999237060546875</AltitudeMeters>
            <DistanceMeters>NAN</DistanceMeters>
          </Trackpoint>
          <Trackpoint>
            <Time>2022-07-13T11:02:32.000Z</Time>
            <Position>
              <LatitudeDegrees>43.4582997858524322509765625</LatitudeDegrees>
              <LongitudeDegrees>-3.5051548294723033905029296875</LongitudeDegrees>
            </Position>
            <AltitudeMeters>33</AltitudeMeters>
            <DistanceMeters>NAN</DistanceMeters>
          </Trackpoint>
          <Trackpoint>
            <Time>2022-07-13T11:02:37.000Z</Time>
            <Position>
              <LatitudeDegrees>43.45840849913656711578369140625</LatitudeDegrees>
              <LongitudeDegrees>-3.5053502954542636871337890625</LongitudeDegrees>
            </Position>
            <AltitudeMeters>32.799999237060546875</AltitudeMeters>
            <DistanceMeters>NAN</DistanceMeters>
          </Trackpoint>
          <Trackpoint>
            <Time>2022-07-13T11:02:42.000Z</Time>
            <Position>
              <LatitudeDegrees>43.45836357213556766510009765625</LatitudeDegrees>
              <LongitudeDegrees>-3.50556545890867710113525390625</LongitudeDegrees>
            </Position>
            <AltitudeMeters>32.40000152587890625</AltitudeMeters>
            <DistanceMeters>NAN</DistanceMeters>
          </Trackpoint>
          <Trackpoint>
            <Time>2022-07-13T11:02:46.000Z</Time>
            <Position>
              <LatitudeDegrees>43.458360135555267333984375</LatitudeDegrees>
              <LongitudeDegrees>-3.50572295486927032470703125</LongitudeDegrees>
            </Position>
            <AltitudeMeters>32.59999847412109375</AltitudeMeters>
            <DistanceMeters>NAN</DistanceMeters>
          </Trackpoint>
          <Trackpoint>
            <Time>2022-07-13T11:02:49.000Z</Time>
            <Position>
              <LatitudeDegrees>43.45840145833790302276611328125</LatitudeDegrees>
              <LongitudeDegrees>-3.50585446693003177642822265625</LongitudeDegrees>
            </Position>
            <AltitudeMeters>32.59999847412109375</AltitudeMeters>
            <DistanceMeters>NAN</DistanceMeters>
          </Trackpoint>
          <Trackpoint>
            <Time>2022-07-13T11:02:51.000Z</Time>
            <Position>
              <LatitudeDegrees>43.45843532122671604156494140625</LatitudeDegrees>
              <LongitudeDegrees>-3.50595270283520221710205078125</LongitudeDegrees>
            </Position>
            <AltitudeMeters>32.40000152587890625</AltitudeMeters>
            <DistanceMeters>NAN</DistanceMeters>
          </Trackpoint>
          <Trackpoint>
            <Time>2022-07-13T11:02:56.000Z</Time>
            <Position>
              <LatitudeDegrees>43.45849298872053623199462890625</LatitudeDegrees>
              <LongitudeDegrees>-3.5062018968164920806884765625</LongitudeDegrees>
            </Position>
            <AltitudeMeters>32.59999847412109375</AltitudeMeters>
            <DistanceMeters>NAN</DistanceMeters>
          </Trackpoint>
          <Trackpoint>
            <Time>2022-07-13T11:03:01.000Z</Time>
            <Position>
              <LatitudeDegrees>43.45853892154991626739501953125</LatitudeDegrees>
              <LongitudeDegrees>-3.5063229314982891082763671875</LongitudeDegrees>
            </Position>
            <AltitudeMeters>32.799999237060546875</AltitudeMeters>
            <DistanceMeters>NAN</DistanceMeters>
          </Trackpoint>
          <Trackpoint>
            <Time>2022-07-13T11:03:04.000Z</Time>
            <Position>
              <LatitudeDegrees>43.4585423581302165985107421875</LatitudeDegrees>
              <LongitudeDegrees>-3.5063293017446994781494140625</LongitudeDegrees>
            </Position>
            <AltitudeMeters>32.799999237060546875</AltitudeMeters>
            <DistanceMeters>NAN</DistanceMeters>
          </Trackpoint>
          <Trackpoint>
            <Time>2022-07-13T11:03:22.000Z</Time>
            <Position>
              <LatitudeDegrees>43.458554930984973907470703125</LatitudeDegrees>
              <LongitudeDegrees>-3.50638554431498050689697265625</LongitudeDegrees>
            </Position>
            <AltitudeMeters>32.799999237060546875</AltitudeMeters>
            <DistanceMeters>NAN</DistanceMeters>
          </Trackpoint>
          <Trackpoint>
            <Time>2022-07-13T11:03:23.000Z</Time>
            <Position>
              <LatitudeDegrees>43.4585599601268768310546875</LatitudeDegrees>
              <LongitudeDegrees>-3.50642594508826732635498046875</LongitudeDegrees>
            </Position>
            <AltitudeMeters>32.799999237060546875</AltitudeMeters>
            <DistanceMeters>NAN</DistanceMeters>
          </Trackpoint>
          <Trackpoint>
            <Time>2022-07-13T11:03:27.000Z</Time>
            <Position>
              <LatitudeDegrees>43.458601534366607666015625</LatitudeDegrees>
              <LongitudeDegrees>-3.50660531781613826751708984375</LongitudeDegrees>
            </Position>
            <AltitudeMeters>32.200000762939453125</AltitudeMeters>
            <DistanceMeters>NAN</DistanceMeters>
          </Trackpoint>
          <Trackpoint>
            <Time>2022-07-13T11:03:31.000Z</Time>
            <Position>
              <LatitudeDegrees>43.45866045914590358734130859375</LatitudeDegrees>
              <LongitudeDegrees>-3.506822325289249420166015625</LongitudeDegrees>
            </Position>
            <AltitudeMeters>32.40000152587890625</AltitudeMeters>
            <DistanceMeters>NAN</DistanceMeters>
          </Trackpoint>
          <Trackpoint>
            <Time>2022-07-13T11:03:32.000Z</Time>
            <Position>
              <LatitudeDegrees>43.45867705531418323516845703125</LatitudeDegrees>
              <LongitudeDegrees>-3.50687772966921329498291015625</LongitudeDegrees>
            </Position>
            <AltitudeMeters>32.40000152587890625</AltitudeMeters>
            <DistanceMeters>NAN</DistanceMeters>
          </Trackpoint>
          <Trackpoint>
            <Time>2022-07-13T11:03:34.000Z</Time>
            <Position>
              <LatitudeDegrees>43.45870873890817165374755859375</LatitudeDegrees>
              <LongitudeDegrees>-3.506996333599090576171875</LongitudeDegrees>
            </Position>
            <AltitudeMeters>32.40000152587890625</AltitudeMeters>
            <DistanceMeters>NAN</DistanceMeters>
          </Trackpoint>
          <Trackpoint>
            <Time>2022-07-13T11:03:40.000Z</Time>
            <Position>
              <LatitudeDegrees>43.4588021971285343170166015625</LatitudeDegrees>
              <LongitudeDegrees>-3.50735834799706935882568359375</LongitudeDegrees>
            </Position>
            <AltitudeMeters>32.200000762939453125</AltitudeMeters>
            <DistanceMeters>NAN</DistanceMeters>
          </Trackpoint>
          <Trackpoint>
            <Time>2022-07-13T11:03:46.000Z</Time>
            <Position>
              <LatitudeDegrees>43.45891476608812808990478515625</LatitudeDegrees>
              <LongitudeDegrees>-3.5077471844851970672607421875</LongitudeDegrees>
            </Position>
            <AltitudeMeters>31.799999237060546875</AltitudeMeters>
            <DistanceMeters>NAN</DistanceMeters>
          </Trackpoint>
          <Trackpoint>
            <Time>2022-07-13T11:03:50.000Z</Time>
            <Position>
              <LatitudeDegrees>43.4589922986924648284912109375</LatitudeDegrees>
              <LongitudeDegrees>-3.50802789442241191864013671875</LongitudeDegrees>
            </Position>
            <AltitudeMeters>31.6000003814697265625</AltitudeMeters>
            <DistanceMeters>NAN</DistanceMeters>
          </Trackpoint>
          <Trackpoint>
            <Time>2022-07-13T11:03:57.000Z</Time>
            <Position>
              <LatitudeDegrees>43.45912582240998744964599609375</LatitudeDegrees>
              <LongitudeDegrees>-3.5085458122193813323974609375</LongitudeDegrees>
            </Position>
            <AltitudeMeters>31.200000762939453125</AltitudeMeters>
            <DistanceMeters>NAN</DistanceMeters>
          </Trackpoint>
          <Trackpoint>
            <Time>2022-07-13T11:04:00.000Z</Time>
            <Position>
              <LatitudeDegrees>43.4591884352266788482666015625</LatitudeDegrees>
              <LongitudeDegrees>-3.50876315496861934661865234375</LongitudeDegrees>
            </Position>
            <AltitudeMeters>31</AltitudeMeters>
            <DistanceMeters>NAN</DistanceMeters>
          </Trackpoint>
          <Trackpoint>
            <Time>2022-07-13T11:04:08.000Z</Time>
            <Position>
              <LatitudeDegrees>43.4593530558049678802490234375</LatitudeDegrees>
              <LongitudeDegrees>-3.5093692503869533538818359375</LongitudeDegrees>
            </Position>
            <AltitudeMeters>30.799999237060546875</AltitudeMeters>
            <DistanceMeters>NAN</DistanceMeters>
          </Trackpoint>
          <Trackpoint>
            <Time>2022-07-13T11:04:10.000Z</Time>
            <Position>
              <LatitudeDegrees>43.45938499085605144500732421875</LatitudeDegrees>
              <LongitudeDegrees>-3.50953646935522556304931640625</LongitudeDegrees>
            </Position>
            <AltitudeMeters>30.3999996185302734375</AltitudeMeters>
            <DistanceMeters>NAN</DistanceMeters>
          </Trackpoint>
          <Trackpoint>
            <Time>2022-07-13T11:04:16.000Z</Time>
            <Position>
              <LatitudeDegrees>43.459476940333843231201171875</LatitudeDegrees>
              <LongitudeDegrees>-3.510110042989253997802734375</LongitudeDegrees>
            </Position>
            <AltitudeMeters>30.200000762939453125</AltitudeMeters>
            <DistanceMeters>NAN</DistanceMeters>
          </Trackpoint>
          <Trackpoint>
            <Time>2022-07-13T11:04:24.000Z</Time>
            <Position>
              <LatitudeDegrees>43.45959504134953022003173828125</LatitudeDegrees>
              <LongitudeDegrees>-3.51093591190874576568603515625</LongitudeDegrees>
            </Position>
            <AltitudeMeters>29.799999237060546875</AltitudeMeters>
            <DistanceMeters>NAN</DistanceMeters>
          </Trackpoint>
          <Trackpoint>
            <Time>2022-07-13T11:04:26.000Z</Time>
            <Position>
              <LatitudeDegrees>43.4596249647438526153564453125</LatitudeDegrees>
              <LongitudeDegrees>-3.51115048862993717193603515625</LongitudeDegrees>
            </Position>
            <AltitudeMeters>29.6000003814697265625</AltitudeMeters>
            <DistanceMeters>NAN</DistanceMeters>
          </Trackpoint>
          <Trackpoint>
            <Time>2022-07-13T11:04:33.000Z</Time>
            <Position>
              <LatitudeDegrees>43.45971657894551753997802734375</LatitudeDegrees>
              <LongitudeDegrees>-3.51188239641487598419189453125</LongitudeDegrees>
            </Position>
            <AltitudeMeters>28.799999237060546875</AltitudeMeters>
            <DistanceMeters>NAN</DistanceMeters>
          </Trackpoint>
          <Trackpoint>
            <Time>2022-07-13T11:04:37.000Z</Time>
            <Position>
              <LatitudeDegrees>43.4597734920680522918701171875</LatitudeDegrees>
              <LongitudeDegrees>-3.5122945345938205718994140625</LongitudeDegrees>
            </Position>
            <AltitudeMeters>28.6000003814697265625</AltitudeMeters>
            <DistanceMeters>NAN</DistanceMeters>
          </Trackpoint>
          <Trackpoint>
            <Time>2022-07-13T11:04:38.000Z</Time>
            <Position>
              <LatitudeDegrees>43.45978531055152416229248046875</LatitudeDegrees>
              <LongitudeDegrees>-3.512398302555084228515625</LongitudeDegrees>
            </Position>
            <AltitudeMeters>28.6000003814697265625</AltitudeMeters>
            <DistanceMeters>NAN</DistanceMeters>
          </Trackpoint>
          <Trackpoint>
            <Time>2022-07-13T11:04:41.000Z</Time>
            <Position>
              <LatitudeDegrees>43.4598217718303203582763671875</LatitudeDegrees>
              <LongitudeDegrees>-3.51268085651099681854248046875</LongitudeDegrees>
            </Position>
            <AltitudeMeters>28.200000762939453125</AltitudeMeters>
            <DistanceMeters>NAN</DistanceMeters>
          </Trackpoint>
          <Trackpoint>
            <Time>2022-07-13T11:04:43.000Z</Time>
            <Position>
              <LatitudeDegrees>43.4598532877862453460693359375</LatitudeDegrees>
              <LongitudeDegrees>-3.51291102357208728790283203125</LongitudeDegrees>
            </Position>
            <AltitudeMeters>27.3999996185302734375</AltitudeMeters>
            <DistanceMeters>NAN</DistanceMeters>
          </Trackpoint>
          <Trackpoint>
            <Time>2022-07-13T11:04:45.000Z</Time>
            <Position>
              <LatitudeDegrees>43.45988840796053409576416015625</LatitudeDegrees>
              <LongitudeDegrees>-3.5131260193884372711181640625</LongitudeDegrees>
            </Position>
            <AltitudeMeters>27</AltitudeMeters>
            <DistanceMeters>NAN</DistanceMeters>
          </Trackpoint>
          <Trackpoint>
            <Time>2022-07-13T11:04:49.000Z</Time>
            <Position>
              <LatitudeDegrees>43.45995428971946239471435546875</LatitudeDegrees>
              <LongitudeDegrees>-3.5135746188461780548095703125</LongitudeDegrees>
            </Position>
            <AltitudeMeters>26.3999996185302734375</AltitudeMeters>
            <DistanceMeters>NAN</DistanceMeters>
          </Trackpoint>
          <Trackpoint>
            <Time>2022-07-13T11:04:50.000Z</Time>
            <Position>
              <LatitudeDegrees>43.4599729813635349273681640625</LatitudeDegrees>
              <LongitudeDegrees>-3.51369313895702362060546875</LongitudeDegrees>
            </Position>
            <AltitudeMeters>26.3999996185302734375</AltitudeMeters>
            <DistanceMeters>NAN</DistanceMeters>
          </Trackpoint>
          <Trackpoint>
            <Time>2022-07-13T11:04:55.000Z</Time>
            <Position>
              <LatitudeDegrees>43.4600698761641979217529296875</LatitudeDegrees>
              <LongitudeDegrees>-3.51431566290557384490966796875</LongitudeDegrees>
            </Position>
            <AltitudeMeters>25</AltitudeMeters>
            <DistanceMeters>NAN</DistanceMeters>
          </Trackpoint>
          <Trackpoint>
            <Time>2022-07-13T11:05:01.000Z</Time>
            <Position>
              <LatitudeDegrees>43.46022318117320537567138671875</LatitudeDegrees>
              <LongitudeDegrees>-3.5150625742971897125244140625</LongitudeDegrees>
            </Position>
            <AltitudeMeters>24.200000762939453125</AltitudeMeters>
            <DistanceMeters>NAN</DistanceMeters>
          </Trackpoint>
          <Trackpoint>
            <Time>2022-07-13T11:05:02.000Z</Time>
            <Position>
              <LatitudeDegrees>43.46024765633046627044677734375</LatitudeDegrees>
              <LongitudeDegrees>-3.51518151350319385528564453125</LongitudeDegrees>
            </Position>
            <AltitudeMeters>24.200000762939453125</AltitudeMeters>
            <DistanceMeters>NAN</DistanceMeters>
          </Trackpoint>
          <Trackpoint>
            <Time>2022-07-13T11:05:03.000Z</Time>
            <Position>
              <LatitudeDegrees>43.4602733887732028961181640625</LatitudeDegrees>
              <LongitudeDegrees>-3.515301458537578582763671875</LongitudeDegrees>
            </Position>
            <AltitudeMeters>23.6000003814697265625</AltitudeMeters>
            <DistanceMeters>NAN</DistanceMeters>
          </Trackpoint>
          <Trackpoint>
            <Time>2022-07-13T11:05:07.000Z</Time>
            <Position>
              <LatitudeDegrees>43.4603779949247837066650390625</LatitudeDegrees>
              <LongitudeDegrees>-3.51576841436326503753662109375</LongitudeDegrees>
            </Position>
            <AltitudeMeters>22.3999996185302734375</AltitudeMeters>
            <DistanceMeters>NAN</DistanceMeters>
          </Trackpoint>
          <Trackpoint>
            <Time>2022-07-13T11:05:10.000Z</Time>
            <Position>
              <LatitudeDegrees>43.46045418642461299896240234375</LatitudeDegrees>
              <LongitudeDegrees>-3.5161217115819454193115234375</LongitudeDegrees>
            </Position>
            <AltitudeMeters>22.200000762939453125</AltitudeMeters>
            <DistanceMeters>NAN</DistanceMeters>
          </Trackpoint>
          <Trackpoint>
            <Time>2022-07-13T11:05:16.000Z</Time>
            <Position>
              <LatitudeDegrees>43.46062065102159976959228515625</LatitudeDegrees>
              <LongitudeDegrees>-3.5168066807091236114501953125</LongitudeDegrees>
            </Position>
            <AltitudeMeters>21.799999237060546875</AltitudeMeters>
            <DistanceMeters>NAN</DistanceMeters>
          </Trackpoint>
          <Trackpoint>
            <Time>2022-07-13T11:05:17.000Z</Time>
            <Position>
              <LatitudeDegrees>43.46064738929271697998046875</LatitudeDegrees>
              <LongitudeDegrees>-3.516918160021305084228515625</LongitudeDegrees>
            </Position>
            <AltitudeMeters>21.799999237060546875</AltitudeMeters>
            <DistanceMeters>NAN</DistanceMeters>
          </Trackpoint>
          <Trackpoint>
            <Time>2022-07-13T11:05:21.000Z</Time>
            <Position>
              <LatitudeDegrees>43.46074604429304599761962890625</LatitudeDegrees>
              <LongitudeDegrees>-3.5173659212887287139892578125</LongitudeDegrees>
            </Position>
            <AltitudeMeters>21.3999996185302734375</AltitudeMeters>
            <DistanceMeters>NAN</DistanceMeters>
          </Trackpoint>
          <Trackpoint>
            <Time>2022-07-13T11:05:24.000Z</Time>
            <Position>
              <LatitudeDegrees>43.4608192183077335357666015625</LatitudeDegrees>
              <LongitudeDegrees>-3.51770195178687572479248046875</LongitudeDegrees>
            </Position>
            <AltitudeMeters>20.3999996185302734375</AltitudeMeters>
            <DistanceMeters>NAN</DistanceMeters>
          </Trackpoint>
          <Trackpoint>
            <Time>2022-07-13T11:05:28.000Z</Time>
            <Position>
              <LatitudeDegrees>43.46092558465898036956787109375</LatitudeDegrees>
              <LongitudeDegrees>-3.51815977133810520172119140625</LongitudeDegrees>
            </Position>
            <AltitudeMeters>19.799999237060546875</AltitudeMeters>
            <DistanceMeters>NAN</DistanceMeters>
          </Trackpoint>
          <Trackpoint>
            <Time>2022-07-13T11:05:31.000Z</Time>
            <Position>
              <LatitudeDegrees>43.461005799472332000732421875</LatitudeDegrees>
              <LongitudeDegrees>-3.51850694976747035980224609375</LongitudeDegrees>
            </Position>
            <AltitudeMeters>19</AltitudeMeters>
            <DistanceMeters>NAN</DistanceMeters>
          </Trackpoint>
          <Trackpoint>
            <Time>2022-07-13T11:05:35.000Z</Time>
            <Position>
              <LatitudeDegrees>43.4611065499484539031982421875</LatitudeDegrees>
              <LongitudeDegrees>-3.51896326057612895965576171875</LongitudeDegrees>
            </Position>
            <AltitudeMeters>18</AltitudeMeters>
            <DistanceMeters>NAN</DistanceMeters>
          </Trackpoint>
          <Trackpoint>
            <Time>2022-07-13T11:05:36.000Z</Time>
            <Position>
              <LatitudeDegrees>43.46113429404795169830322265625</LatitudeDegrees>
              <LongitudeDegrees>-3.519080020487308502197265625</LongitudeDegrees>
            </Position>
            <AltitudeMeters>17.799999237060546875</AltitudeMeters>
            <DistanceMeters>NAN</DistanceMeters>
          </Trackpoint>
          <Trackpoint>
            <Time>2022-07-13T11:05:38.000Z</Time>
            <Position>
              <LatitudeDegrees>43.461192548274993896484375</LatitudeDegrees>
              <LongitudeDegrees>-3.51931773126125335693359375</LongitudeDegrees>
            </Position>
            <AltitudeMeters>17.799999237060546875</AltitudeMeters>
            <DistanceMeters>NAN</DistanceMeters>
          </Trackpoint>
          <Trackpoint>
            <Time>2022-07-13T11:05:40.000Z</Time>
            <Position>
              <LatitudeDegrees>43.46124820411205291748046875</LatitudeDegrees>
              <LongitudeDegrees>-3.51954915560781955718994140625</LongitudeDegrees>
            </Position>
            <AltitudeMeters>17.799999237060546875</AltitudeMeters>
            <DistanceMeters>NAN</DistanceMeters>
          </Trackpoint>
          <Trackpoint>
            <Time>2022-07-13T11:05:46.000Z</Time>
            <Position>
              <LatitudeDegrees>43.4614076279103755950927734375</LatitudeDegrees>
              <LongitudeDegrees>-3.5202637128531932830810546875</LongitudeDegrees>
            </Position>
            <AltitudeMeters>17.200000762939453125</AltitudeMeters>
            <DistanceMeters>NAN</DistanceMeters>
          </Trackpoint>
          <Trackpoint>
            <Time>2022-07-13T11:05:47.000Z</Time>
            <Position>
              <LatitudeDegrees>43.4614351205527782440185546875</LatitudeDegrees>
              <LongitudeDegrees>-3.5203820653259754180908203125</LongitudeDegrees>
            </Position>
            <AltitudeMeters>17</AltitudeMeters>
            <DistanceMeters>NAN</DistanceMeters>
          </Trackpoint>
          <Trackpoint>
            <Time>2022-07-13T11:05:50.000Z</Time>
            <Position>
              <LatitudeDegrees>43.46150879748165607452392578125</LatitudeDegrees>
              <LongitudeDegrees>-3.52070317603647708892822265625</LongitudeDegrees>
            </Position>
            <AltitudeMeters>16.799999237060546875</AltitudeMeters>
            <DistanceMeters>NAN</DistanceMeters>
          </Trackpoint>
          <Trackpoint>
            <Time>2022-07-13T11:05:53.000Z</Time>
            <Position>
              <LatitudeDegrees>43.46159043721854686737060546875</LatitudeDegrees>
              <LongitudeDegrees>-3.52103568613529205322265625</LongitudeDegrees>
            </Position>
            <AltitudeMeters>16</AltitudeMeters>
            <DistanceMeters>NAN</DistanceMeters>
          </Trackpoint>
          <Trackpoint>
            <Time>2022-07-13T11:05:54.000Z</Time>
            <Position>
              <LatitudeDegrees>43.46161642111837863922119140625</LatitudeDegrees>
              <LongitudeDegrees>-3.52114624343812465667724609375</LongitudeDegrees>
            </Position>
            <AltitudeMeters>15.80000019073486328125</AltitudeMeters>
            <DistanceMeters>NAN</DistanceMeters>
          </Trackpoint>
          <Trackpoint>
            <Time>2022-07-13T11:05:56.000Z</Time>
            <Position>
              <LatitudeDegrees>43.46167073585093021392822265625</LatitudeDegrees>
              <LongitudeDegrees>-3.52136434055864810943603515625</LongitudeDegrees>
            </Position>
            <AltitudeMeters>15.80000019073486328125</AltitudeMeters>
            <DistanceMeters>NAN</DistanceMeters>
          </Trackpoint>
          <Trackpoint>
            <Time>2022-07-13T11:05:58.000Z</Time>
            <Position>
              <LatitudeDegrees>43.4617311693727970123291015625</LatitudeDegrees>
              <LongitudeDegrees>-3.52160523645579814910888671875</LongitudeDegrees>
            </Position>
            <AltitudeMeters>15.3999996185302734375</AltitudeMeters>
            <DistanceMeters>NAN</DistanceMeters>
          </Trackpoint>
          <Trackpoint>
            <Time>2022-07-13T11:06:05.000Z</Time>
            <Position>
              <LatitudeDegrees>43.46190643496811389923095703125</LatitudeDegrees>
              <LongitudeDegrees>-3.52234996855258941650390625</LongitudeDegrees>
            </Position>
            <AltitudeMeters>15.19999980926513671875</AltitudeMeters>
            <DistanceMeters>NAN</DistanceMeters>
          </Trackpoint>
          <Trackpoint>
            <Time>2022-07-13T11:06:07.000Z</Time>
            <Position>
              <LatitudeDegrees>43.46195387654006481170654296875</LatitudeDegrees>
              <LongitudeDegrees>-3.52255239151418209075927734375</LongitudeDegrees>
            </Position>
            <AltitudeMeters>15.19999980926513671875</AltitudeMeters>
            <DistanceMeters>NAN</DistanceMeters>
          </Trackpoint>
          <Trackpoint>
            <Time>2022-07-13T11:06:08.000Z</Time>
            <Position>
              <LatitudeDegrees>43.4619775973260402679443359375</LatitudeDegrees>
              <LongitudeDegrees>-3.52265029214322566986083984375</LongitudeDegrees>
            </Position>
            <AltitudeMeters>14.80000019073486328125</AltitudeMeters>
            <DistanceMeters>NAN</DistanceMeters>
          </Trackpoint>
          <Trackpoint>
            <Time>2022-07-13T11:06:13.000Z</Time>
            <Position>
              <LatitudeDegrees>43.46208798699080944061279296875</LatitudeDegrees>
              <LongitudeDegrees>-3.52312135510146617889404296875</LongitudeDegrees>
            </Position>
            <AltitudeMeters>14</AltitudeMeters>
            <DistanceMeters>NAN</DistanceMeters>
          </Trackpoint>
          <Trackpoint>
            <Time>2022-07-13T11:06:15.000Z</Time>
            <Position>
              <LatitudeDegrees>43.46212587319314479827880859375</LatitudeDegrees>
              <LongitudeDegrees>-3.52330617606639862060546875</LongitudeDegrees>
            </Position>
            <AltitudeMeters>13.80000019073486328125</AltitudeMeters>
            <DistanceMeters>NAN</DistanceMeters>
          </Trackpoint>
          <Trackpoint>
            <Time>2022-07-13T11:06:20.000Z</Time>
            <Position>
              <LatitudeDegrees>43.46223986707627773284912109375</LatitudeDegrees>
              <LongitudeDegrees>-3.5237361676990985870361328125</LongitudeDegrees>
            </Position>
            <AltitudeMeters>13.80000019073486328125</AltitudeMeters>
            <DistanceMeters>NAN</DistanceMeters>
          </Trackpoint>
          <Trackpoint>
            <Time>2022-07-13T11:06:21.000Z</Time>
            <Position>
              <LatitudeDegrees>43.46226316876709461212158203125</LatitudeDegrees>
              <LongitudeDegrees>-3.52381856180727481842041015625</LongitudeDegrees>
            </Position>
            <AltitudeMeters>13.80000019073486328125</AltitudeMeters>
            <DistanceMeters>NAN</DistanceMeters>
          </Trackpoint>
          <Trackpoint>
            <Time>2022-07-13T11:06:22.000Z</Time>
            <Position>
              <LatitudeDegrees>43.4622900746762752532958984375</LatitudeDegrees>
              <LongitudeDegrees>-3.52390087209641933441162109375</LongitudeDegrees>
            </Position>
            <AltitudeMeters>13.80000019073486328125</AltitudeMeters>
            <DistanceMeters>NAN</DistanceMeters>
          </Trackpoint>
          <Trackpoint>
            <Time>2022-07-13T11:06:27.000Z</Time>
            <Position>
              <LatitudeDegrees>43.46239325590431690216064453125</LatitudeDegrees>
              <LongitudeDegrees>-3.5243027843534946441650390625</LongitudeDegrees>
            </Position>
            <AltitudeMeters>13.19999980926513671875</AltitudeMeters>
            <DistanceMeters>NAN</DistanceMeters>
          </Trackpoint>
          <Trackpoint>
            <Time>2022-07-13T11:06:31.000Z</Time>
            <Position>
              <LatitudeDegrees>43.46246860921382904052734375</LatitudeDegrees>
              <LongitudeDegrees>-3.524632193148136138916015625</LongitudeDegrees>
            </Position>
            <AltitudeMeters>13</AltitudeMeters>
            <DistanceMeters>NAN</DistanceMeters>
          </Trackpoint>
          <Trackpoint>
            <Time>2022-07-13T11:06:33.000Z</Time>
            <Position>
              <LatitudeDegrees>43.46250909380614757537841796875</LatitudeDegrees>
              <LongitudeDegrees>-3.52481382898986339569091796875</LongitudeDegrees>
            </Position>
            <AltitudeMeters>13.19999980926513671875</AltitudeMeters>
            <DistanceMeters>NAN</DistanceMeters>
          </Trackpoint>
          <Trackpoint>
            <Time>2022-07-13T11:06:36.000Z</Time>
            <Position>
              <LatitudeDegrees>43.46256474964320659637451171875</LatitudeDegrees>
              <LongitudeDegrees>-3.52505589835345745086669921875</LongitudeDegrees>
            </Position>
            <AltitudeMeters>13.3999996185302734375</AltitudeMeters>
            <DistanceMeters>NAN</DistanceMeters>
          </Trackpoint>
          <Trackpoint>
            <Time>2022-07-13T11:06:37.000Z</Time>
            <Position>
              <LatitudeDegrees>43.4625831060111522674560546875</LatitudeDegrees>
              <LongitudeDegrees>-3.52513435296714305877685546875</LongitudeDegrees>
            </Position>
            <AltitudeMeters>13.3999996185302734375</AltitudeMeters>
            <DistanceMeters>NAN</DistanceMeters>
          </Trackpoint>
          <Trackpoint>
            <Time>2022-07-13T11:06:39.000Z</Time>
            <Position>
              <LatitudeDegrees>43.46262174658477306365966796875</LatitudeDegrees>
              <LongitudeDegrees>-3.5252928547561168670654296875</LongitudeDegrees>
            </Position>
            <AltitudeMeters>13.3999996185302734375</AltitudeMeters>
            <DistanceMeters>NAN</DistanceMeters>
          </Trackpoint>
          <Trackpoint>
            <Time>2022-07-13T11:06:41.000Z</Time>
            <Position>
              <LatitudeDegrees>43.46267555840313434600830078125</LatitudeDegrees>
              <LongitudeDegrees>-3.52544481866061687469482421875</LongitudeDegrees>
            </Position>
            <AltitudeMeters>13.19999980926513671875</AltitudeMeters>
            <DistanceMeters>NAN</DistanceMeters>
          </Trackpoint>
          <Trackpoint>
            <Time>2022-07-13T11:06:42.000Z</Time>
            <Position>
              <LatitudeDegrees>43.4627011232078075408935546875</LatitudeDegrees>
              <LongitudeDegrees>-3.52552235126495361328125</LongitudeDegrees>
            </Position>
            <AltitudeMeters>13.19999980926513671875</AltitudeMeters>
            <DistanceMeters>NAN</DistanceMeters>
          </Trackpoint>
          <Trackpoint>
            <Time>2022-07-13T11:06:45.000Z</Time>
            <Position>
              <LatitudeDegrees>43.46274596638977527618408203125</LatitudeDegrees>
              <LongitudeDegrees>-3.52576442062854766845703125</LongitudeDegrees>
            </Position>
            <AltitudeMeters>13.19999980926513671875</AltitudeMeters>
            <DistanceMeters>NAN</DistanceMeters>
          </Trackpoint>
          <Trackpoint>
            <Time>2022-07-13T11:06:50.000Z</Time>
            <Position>
              <LatitudeDegrees>43.46283917315304279327392578125</LatitudeDegrees>
              <LongitudeDegrees>-3.526104390621185302734375</LongitudeDegrees>
            </Position>
            <AltitudeMeters>13.6000003814697265625</AltitudeMeters>
            <DistanceMeters>NAN</DistanceMeters>
          </Trackpoint>
          <Trackpoint>
            <Time>2022-07-13T11:06:58.000Z</Time>
            <Position>
              <LatitudeDegrees>43.4629897959530353546142578125</LatitudeDegrees>
              <LongitudeDegrees>-3.526667989790439605712890625</LongitudeDegrees>
            </Position>
            <AltitudeMeters>13.19999980926513671875</AltitudeMeters>
            <DistanceMeters>NAN</DistanceMeters>
          </Trackpoint>
          <Trackpoint>
            <Time>2022-07-13T11:07:00.000Z</Time>
            <Position>
              <LatitudeDegrees>43.46302709542214870452880859375</LatitudeDegrees>
              <LongitudeDegrees>-3.526817522943019866943359375</LongitudeDegrees>
            </Position>
            <AltitudeMeters>13.3999996185302734375</AltitudeMeters>
            <DistanceMeters>NAN</DistanceMeters>
          </Trackpoint>
          <Trackpoint>
            <Time>2022-07-13T11:07:05.000Z</Time>
            <Position>
              <LatitudeDegrees>43.4631151892244815826416015625</LatitudeDegrees>
              <LongitudeDegrees>-3.527152128517627716064453125</LongitudeDegrees>
            </Position>
            <AltitudeMeters>13.3999996185302734375</AltitudeMeters>
            <DistanceMeters>NAN</DistanceMeters>
          </Trackpoint>
          <Trackpoint>
            <Time>2022-07-13T11:07:14.000Z</Time>
            <Position>
              <LatitudeDegrees>43.46326279453933238983154296875</LatitudeDegrees>
              <LongitudeDegrees>-3.52774933911859989166259765625</LongitudeDegrees>
            </Position>
            <AltitudeMeters>13.3999996185302734375</AltitudeMeters>
            <DistanceMeters>NAN</DistanceMeters>
          </Trackpoint>
          <Trackpoint>
            <Time>2022-07-13T11:07:22.000Z</Time>
            <Position>
              <LatitudeDegrees>43.46340076066553592681884765625</LatitudeDegrees>
              <LongitudeDegrees>-3.52824387140572071075439453125</LongitudeDegrees>
            </Position>
            <AltitudeMeters>13.3999996185302734375</AltitudeMeters>
            <DistanceMeters>NAN</DistanceMeters>
          </Trackpoint>
          <Trackpoint>
            <Time>2022-07-13T11:07:31.000Z</Time>
            <Position>
              <LatitudeDegrees>43.46355800516903400421142578125</LatitudeDegrees>
              <LongitudeDegrees>-3.52879975922405719757080078125</LongitudeDegrees>
            </Position>
            <AltitudeMeters>13.3999996185302734375</AltitudeMeters>
            <DistanceMeters>NAN</DistanceMeters>
          </Trackpoint>
          <Trackpoint>
            <Time>2022-07-13T11:07:42.000Z</Time>
            <Position>
              <LatitudeDegrees>43.46374827437102794647216796875</LatitudeDegrees>
              <LongitudeDegrees>-3.5294938646256923675537109375</LongitudeDegrees>
            </Position>
            <AltitudeMeters>13.3999996185302734375</AltitudeMeters>
            <DistanceMeters>NAN</DistanceMeters>
          </Trackpoint>
          <Trackpoint>
            <Time>2022-07-13T11:07:43.000Z</Time>
            <Position>
              <LatitudeDegrees>43.46376369707286357879638671875</LatitudeDegrees>
              <LongitudeDegrees>-3.5295565612614154815673828125</LongitudeDegrees>
            </Position>
            <AltitudeMeters>13.19999980926513671875</AltitudeMeters>
            <DistanceMeters>NAN</DistanceMeters>
          </Trackpoint>
          <Trackpoint>
            <Time>2022-07-13T11:07:51.000Z</Time>
            <Position>
              <LatitudeDegrees>43.46388481557369232177734375</LatitudeDegrees>
              <LongitudeDegrees>-3.5300324857234954833984375</LongitudeDegrees>
            </Position>
            <AltitudeMeters>13</AltitudeMeters>
            <DistanceMeters>NAN</DistanceMeters>
          </Trackpoint>
          <Trackpoint>
            <Time>2022-07-13T11:08:01.000Z</Time>
            <Position>
              <LatitudeDegrees>43.464035354554653167724609375</LatitudeDegrees>
              <LongitudeDegrees>-3.53062248788774013519287109375</LongitudeDegrees>
            </Position>
            <AltitudeMeters>13.3999996185302734375</AltitudeMeters>
            <DistanceMeters>NAN</DistanceMeters>
          </Trackpoint>
          <Trackpoint>
            <Time>2022-07-13T11:08:02.000Z</Time>
            <Position>
              <LatitudeDegrees>43.46405035816133022308349609375</LatitudeDegrees>
              <LongitudeDegrees>-3.53067965246737003326416015625</LongitudeDegrees>
            </Position>
            <AltitudeMeters>13.6000003814697265625</AltitudeMeters>
            <DistanceMeters>NAN</DistanceMeters>
          </Trackpoint>
          <Trackpoint>
            <Time>2022-07-13T11:08:12.000Z</Time>
            <Position>
              <LatitudeDegrees>43.4641890786588191986083984375</LatitudeDegrees>
              <LongitudeDegrees>-3.5311965644359588623046875</LongitudeDegrees>
            </Position>
            <AltitudeMeters>13.6000003814697265625</AltitudeMeters>
            <DistanceMeters>NAN</DistanceMeters>
          </Trackpoint>
          <Trackpoint>
            <Time>2022-07-13T11:08:22.000Z</Time>
            <Position>
              <LatitudeDegrees>43.46433676779270172119140625</LatitudeDegrees>
              <LongitudeDegrees>-3.531709201633930206298828125</LongitudeDegrees>
            </Position>
            <AltitudeMeters>13.80000019073486328125</AltitudeMeters>
            <DistanceMeters>NAN</DistanceMeters>
          </Trackpoint>
          <Trackpoint>
            <Time>2022-07-13T11:08:33.000Z</Time>
            <Position>
              <LatitudeDegrees>43.4644930064678192138671875</LatitudeDegrees>
              <LongitudeDegrees>-3.5322887264192104339599609375</LongitudeDegrees>
            </Position>
            <AltitudeMeters>13.80000019073486328125</AltitudeMeters>
            <DistanceMeters>NAN</DistanceMeters>
          </Trackpoint>
          <Trackpoint>
            <Time>2022-07-13T11:08:47.000Z</Time>
            <Position>
              <LatitudeDegrees>43.46468679606914520263671875</LatitudeDegrees>
              <LongitudeDegrees>-3.53303111158311367034912109375</LongitudeDegrees>
            </Position>
            <AltitudeMeters>14.19999980926513671875</AltitudeMeters>
            <DistanceMeters>NAN</DistanceMeters>
          </Trackpoint>
          <Trackpoint>
            <Time>2022-07-13T11:08:55.000Z</Time>
            <Position>
              <LatitudeDegrees>43.4647992812097072601318359375</LatitudeDegrees>
              <LongitudeDegrees>-3.53341785259544849395751953125</LongitudeDegrees>
            </Position>
            <AltitudeMeters>14.3999996185302734375</AltitudeMeters>
            <DistanceMeters>NAN</DistanceMeters>
          </Trackpoint>
          <Trackpoint>
            <Time>2022-07-13T11:08:57.000Z</Time>
            <Position>
              <LatitudeDegrees>43.4648341499269008636474609375</LatitudeDegrees>
              <LongitudeDegrees>-3.53350569494068622589111328125</LongitudeDegrees>
            </Position>
            <AltitudeMeters>14.3999996185302734375</AltitudeMeters>
            <DistanceMeters>NAN</DistanceMeters>
          </Trackpoint>
          <Trackpoint>
            <Time>2022-07-13T11:09:01.000Z</Time>
            <Position>
              <LatitudeDegrees>43.46489793621003627777099609375</LatitudeDegrees>
              <LongitudeDegrees>-3.5336744226515293121337890625</LongitudeDegrees>
            </Position>
            <AltitudeMeters>14.6000003814697265625</AltitudeMeters>
            <DistanceMeters>NAN</DistanceMeters>
          </Trackpoint>
          <Trackpoint>
            <Time>2022-07-13T11:09:05.000Z</Time>
            <Position>
              <LatitudeDegrees>43.46496105194091796875</LatitudeDegrees>
              <LongitudeDegrees>-3.53381934575736522674560546875</LongitudeDegrees>
            </Position>
            <AltitudeMeters>14.80000019073486328125</AltitudeMeters>
            <DistanceMeters>NAN</DistanceMeters>
          </Trackpoint>
          <Trackpoint>
            <Time>2022-07-13T11:09:06.000Z</Time>
            <Position>
              <LatitudeDegrees>43.4649789892137050628662109375</LatitudeDegrees>
              <LongitudeDegrees>-3.53385136462748050689697265625</LongitudeDegrees>
            </Position>
            <AltitudeMeters>15</AltitudeMeters>
            <DistanceMeters>NAN</DistanceMeters>
          </Trackpoint>
          <Trackpoint>
            <Time>2022-07-13T11:09:10.000Z</Time>
            <Position>
              <LatitudeDegrees>43.46505082212388515472412109375</LatitudeDegrees>
              <LongitudeDegrees>-3.53390282951295375823974609375</LongitudeDegrees>
            </Position>
            <AltitudeMeters>15.19999980926513671875</AltitudeMeters>
            <DistanceMeters>NAN</DistanceMeters>
          </Trackpoint>
          <Trackpoint>
            <Time>2022-07-13T11:09:16.000Z</Time>
            <Position>
              <LatitudeDegrees>43.46518845297396183013916015625</LatitudeDegrees>
              <LongitudeDegrees>-3.53402771987020969390869140625</LongitudeDegrees>
            </Position>
            <AltitudeMeters>15.3999996185302734375</AltitudeMeters>
            <DistanceMeters>NAN</DistanceMeters>
          </Trackpoint>
          <Trackpoint>
            <Time>2022-07-13T11:09:22.000Z</Time>
            <Position>
              <LatitudeDegrees>43.4652654826641082763671875</LatitudeDegrees>
              <LongitudeDegrees>-3.53426299989223480224609375</LongitudeDegrees>
            </Position>
            <AltitudeMeters>15.3999996185302734375</AltitudeMeters>
            <DistanceMeters>NAN</DistanceMeters>
          </Trackpoint>
          <Trackpoint>
            <Time>2022-07-13T11:09:28.000Z</Time>
            <Position>
              <LatitudeDegrees>43.4652301110327243804931640625</LatitudeDegrees>
              <LongitudeDegrees>-3.53451621718704700469970703125</LongitudeDegrees>
            </Position>
            <AltitudeMeters>15.3999996185302734375</AltitudeMeters>
            <DistanceMeters>NAN</DistanceMeters>
          </Trackpoint>
          <Trackpoint>
            <Time>2022-07-13T11:09:35.000Z</Time>
            <Position>
              <LatitudeDegrees>43.46518124453723430633544921875</LatitudeDegrees>
              <LongitudeDegrees>-3.5347566939890384674072265625</LongitudeDegrees>
            </Position>
            <AltitudeMeters>16</AltitudeMeters>
            <DistanceMeters>NAN</DistanceMeters>
          </Trackpoint>
          <Trackpoint>
            <Time>2022-07-13T11:09:36.000Z</Time>
            <Position>
              <LatitudeDegrees>43.46518225036561489105224609375</LatitudeDegrees>
              <LongitudeDegrees>-3.534793071448802947998046875</LongitudeDegrees>
            </Position>
            <AltitudeMeters>16</AltitudeMeters>
            <DistanceMeters>NAN</DistanceMeters>
          </Trackpoint>
          <Trackpoint>
            <Time>2022-07-13T11:09:44.000Z</Time>
            <Position>
              <LatitudeDegrees>43.465214855968952178955078125</LatitudeDegrees>
              <LongitudeDegrees>-3.53504327125847339630126953125</LongitudeDegrees>
            </Position>
            <AltitudeMeters>16.6000003814697265625</AltitudeMeters>
            <DistanceMeters>NAN</DistanceMeters>
          </Trackpoint>
          <Trackpoint>
            <Time>2022-07-13T11:09:50.000Z</Time>
            <Position>
              <LatitudeDegrees>43.46525232307612895965576171875</LatitudeDegrees>
              <LongitudeDegrees>-3.53524267673492431640625</LongitudeDegrees>
            </Position>
            <AltitudeMeters>17</AltitudeMeters>
            <DistanceMeters>NAN</DistanceMeters>
          </Trackpoint>
          <Trackpoint>
            <Time>2022-07-13T11:09:54.000Z</Time>
            <Position>
              <LatitudeDegrees>43.46527461893856525421142578125</LatitudeDegrees>
              <LongitudeDegrees>-3.5353727638721466064453125</LongitudeDegrees>
            </Position>
            <AltitudeMeters>17.200000762939453125</AltitudeMeters>
            <DistanceMeters>NAN</DistanceMeters>
          </Trackpoint>
          <Trackpoint>
            <Time>2022-07-13T11:09:58.000Z</Time>
            <Position>
              <LatitudeDegrees>43.4653001837432384490966796875</LatitudeDegrees>
              <LongitudeDegrees>-3.5354626178741455078125</LongitudeDegrees>
            </Position>
            <AltitudeMeters>17.3999996185302734375</AltitudeMeters>
            <DistanceMeters>NAN</DistanceMeters>
          </Trackpoint>
          <Trackpoint>
            <Time>2022-07-13T11:09:59.000Z</Time>
            <Position>
              <LatitudeDegrees>43.46529993228614330291748046875</LatitudeDegrees>
              <LongitudeDegrees>-3.535470329225063323974609375</LongitudeDegrees>
            </Position>
            <AltitudeMeters>17.3999996185302734375</AltitudeMeters>
            <DistanceMeters>NAN</DistanceMeters>
          </Trackpoint>
          <Trackpoint>
            <Time>2022-07-13T11:10:02.000Z</Time>
            <Position>
              <LatitudeDegrees>43.4652793966233730316162109375</LatitudeDegrees>
              <LongitudeDegrees>-3.5354953072965145111083984375</LongitudeDegrees>
            </Position>
            <AltitudeMeters>17.3999996185302734375</AltitudeMeters>
            <DistanceMeters>NAN</DistanceMeters>
          </Trackpoint>
          <Trackpoint>
            <Time>2022-07-13T11:10:04.000Z</Time>
            <Position>
              <LatitudeDegrees>43.46524209715425968170166015625</LatitudeDegrees>
              <LongitudeDegrees>-3.53550544939935207366943359375</LongitudeDegrees>
            </Position>
            <AltitudeMeters>17.200000762939453125</AltitudeMeters>
            <DistanceMeters>NAN</DistanceMeters>
          </Trackpoint>
          <Trackpoint>
            <Time>2022-07-13T11:10:09.000Z</Time>
            <Position>
              <LatitudeDegrees>43.46510731615126132965087890625</LatitudeDegrees>
              <LongitudeDegrees>-3.5354666411876678466796875</LongitudeDegrees>
            </Position>
            <AltitudeMeters>16.799999237060546875</AltitudeMeters>
            <DistanceMeters>NAN</DistanceMeters>
          </Trackpoint>
          <Trackpoint>
            <Time>2022-07-13T11:10:13.000Z</Time>
            <Position>
              <LatitudeDegrees>43.46503145992755889892578125</LatitudeDegrees>
              <LongitudeDegrees>-3.5354946367442607879638671875</LongitudeDegrees>
            </Position>
            <AltitudeMeters>16.799999237060546875</AltitudeMeters>
            <DistanceMeters>NAN</DistanceMeters>
          </Trackpoint>
          <Trackpoint>
            <Time>2022-07-13T11:10:16.000Z</Time>
            <Position>
              <LatitudeDegrees>43.46503280103206634521484375</LatitudeDegrees>
              <LongitudeDegrees>-3.53548784740269184112548828125</LongitudeDegrees>
            </Position>
            <AltitudeMeters>16.6000003814697265625</AltitudeMeters>
            <DistanceMeters>NAN</DistanceMeters>
          </Trackpoint>
          <Trackpoint>
            <Time>2022-07-13T11:10:17.000Z</Time>
            <Position>
              <LatitudeDegrees>43.46503280103206634521484375</LatitudeDegrees>
              <LongitudeDegrees>-3.53548784740269184112548828125</LongitudeDegrees>
            </Position>
            <AltitudeMeters>16.6000003814697265625</AltitudeMeters>
            <DistanceMeters>NAN</DistanceMeters>
          </Trackpoint>
          <Trackpoint>
            <Time>2022-07-13T11:10:47.000Z</Time>
            <Position>
              <LatitudeDegrees>43.4649722836911678314208984375</LatitudeDegrees>
              <LongitudeDegrees>-3.53550352156162261962890625</LongitudeDegrees>
            </Position>
            <AltitudeMeters>15.80000019073486328125</AltitudeMeters>
            <DistanceMeters>NAN</DistanceMeters>
          </Trackpoint>
          <Trackpoint>
            <Time>2022-07-13T11:10:48.000Z</Time>
            <Position>
              <LatitudeDegrees>43.4649729542434215545654296875</LatitudeDegrees>
              <LongitudeDegrees>-3.53549405001103878021240234375</LongitudeDegrees>
            </Position>
            <AltitudeMeters>15.80000019073486328125</AltitudeMeters>
            <DistanceMeters>NAN</DistanceMeters>
          </Trackpoint>
          <Trackpoint>
            <Time>2022-07-13T11:10:49.000Z</Time>
            <Position>
              <LatitudeDegrees>43.46496733836829662322998046875</LatitudeDegrees>
              <LongitudeDegrees>-3.5354879312217235565185546875</LongitudeDegrees>
            </Position>
            <AltitudeMeters>15.80000019073486328125</AltitudeMeters>
            <DistanceMeters>NAN</DistanceMeters>
          </Trackpoint>
          <Trackpoint>
            <Time>2022-07-13T11:10:50.000Z</Time>
            <Position>
              <LatitudeDegrees>43.4649892151355743408203125</LatitudeDegrees>
              <LongitudeDegrees>-3.535524308681488037109375</LongitudeDegrees>
            </Position>
            <AltitudeMeters>15.80000019073486328125</AltitudeMeters>
            <DistanceMeters>NAN</DistanceMeters>
          </Trackpoint>
          <Trackpoint>
            <Time>2022-07-13T11:10:51.000Z</Time>
            <Position>
              <LatitudeDegrees>43.46499265171587467193603515625</LatitudeDegrees>
              <LongitudeDegrees>-3.535552136600017547607421875</LongitudeDegrees>
            </Position>
            <AltitudeMeters>15.80000019073486328125</AltitudeMeters>
            <DistanceMeters>NAN</DistanceMeters>
          </Trackpoint>
          <Trackpoint>
            <Time>2022-07-13T11:10:52.000Z</Time>
            <Position>
              <LatitudeDegrees>43.4649675898253917694091796875</LatitudeDegrees>
              <LongitudeDegrees>-3.53555909357964992523193359375</LongitudeDegrees>
            </Position>
            <AltitudeMeters>15.80000019073486328125</AltitudeMeters>
            <DistanceMeters>NAN</DistanceMeters>
          </Trackpoint>
          <Trackpoint>
            <Time>2022-07-13T11:10:54.000Z</Time>
            <Position>
              <LatitudeDegrees>43.464988209307193756103515625</LatitudeDegrees>
              <LongitudeDegrees>-3.53554031811654567718505859375</LongitudeDegrees>
            </Position>
            <AltitudeMeters>16</AltitudeMeters>
            <DistanceMeters>NAN</DistanceMeters>
          </Trackpoint>
          <Trackpoint>
            <Time>2022-07-13T11:10:57.000Z</Time>
            <Position>
              <LatitudeDegrees>43.46498477272689342498779296875</LatitudeDegrees>
              <LongitudeDegrees>-3.535545766353607177734375</LongitudeDegrees>
            </Position>
            <AltitudeMeters>16</AltitudeMeters>
            <DistanceMeters>NAN</DistanceMeters>
          </Trackpoint>
          <Trackpoint>
            <Time>2022-07-13T11:10:58.000Z</Time>
            <Position>
              <LatitudeDegrees>43.46498477272689342498779296875</LatitudeDegrees>
              <LongitudeDegrees>-3.535545766353607177734375</LongitudeDegrees>
            </Position>
            <AltitudeMeters>16</AltitudeMeters>
            <DistanceMeters>NAN</DistanceMeters>
          </Trackpoint>
          <Trackpoint>
            <Time>2022-07-13T11:11:24.000Z</Time>
            <Position>
              <LatitudeDegrees>43.46501042135059833526611328125</LatitudeDegrees>
              <LongitudeDegrees>-3.5355509631335735321044921875</LongitudeDegrees>
            </Position>
            <AltitudeMeters>16.6000003814697265625</AltitudeMeters>
            <DistanceMeters>NAN</DistanceMeters>
          </Trackpoint>
          <Trackpoint>
            <Time>2022-07-13T11:11:26.000Z</Time>
            <Position>
              <LatitudeDegrees>43.46501670777797698974609375</LatitudeDegrees>
              <LongitudeDegrees>-3.5355482809245586395263671875</LongitudeDegrees>
            </Position>
            <AltitudeMeters>16.6000003814697265625</AltitudeMeters>
            <DistanceMeters>NAN</DistanceMeters>
          </Trackpoint>
          <Trackpoint>
            <Time>2022-07-13T11:11:27.000Z</Time>
            <Position>
              <LatitudeDegrees>43.46501670777797698974609375</LatitudeDegrees>
              <LongitudeDegrees>-3.5355482809245586395263671875</LongitudeDegrees>
            </Position>
            <AltitudeMeters>16.6000003814697265625</AltitudeMeters>
            <DistanceMeters>NAN</DistanceMeters>
          </Trackpoint>
          <Trackpoint>
            <Time>2022-07-13T11:11:46.000Z</Time>
            <Position>
              <LatitudeDegrees>43.4649934060871601104736328125</LatitudeDegrees>
              <LongitudeDegrees>-3.53551684878766536712646484375</LongitudeDegrees>
            </Position>
            <AltitudeMeters>16.6000003814697265625</AltitudeMeters>
            <DistanceMeters>NAN</DistanceMeters>
          </Trackpoint>
          <Trackpoint>
            <Time>2022-07-13T11:11:49.000Z</Time>
            <Position>
              <LatitudeDegrees>43.4649548493325710296630859375</LatitudeDegrees>
              <LongitudeDegrees>-3.53549941442906856536865234375</LongitudeDegrees>
            </Position>
            <AltitudeMeters>16.6000003814697265625</AltitudeMeters>
            <DistanceMeters>NAN</DistanceMeters>
          </Trackpoint>
          <Trackpoint>
            <Time>2022-07-13T11:11:53.000Z</Time>
            <Position>
              <LatitudeDegrees>43.46491034142673015594482421875</LatitudeDegrees>
              <LongitudeDegrees>-3.5354456864297389984130859375</LongitudeDegrees>
            </Position>
            <AltitudeMeters>16.799999237060546875</AltitudeMeters>
            <DistanceMeters>NAN</DistanceMeters>
          </Trackpoint>
          <Trackpoint>
            <Time>2022-07-13T11:11:58.000Z</Time>
            <Position>
              <LatitudeDegrees>43.46491185016930103302001953125</LatitudeDegrees>
              <LongitudeDegrees>-3.5354081355035305023193359375</LongitudeDegrees>
            </Position>
            <AltitudeMeters>16.799999237060546875</AltitudeMeters>
            <DistanceMeters>NAN</DistanceMeters>
          </Trackpoint>
          <Trackpoint>
            <Time>2022-07-13T11:11:59.000Z</Time>
            <Position>
              <LatitudeDegrees>43.46491855569183826446533203125</LatitudeDegrees>
              <LongitudeDegrees>-3.53540386073291301727294921875</LongitudeDegrees>
            </Position>
            <AltitudeMeters>16.799999237060546875</AltitudeMeters>
            <DistanceMeters>NAN</DistanceMeters>
          </Trackpoint>
          <Trackpoint>
            <Time>2022-07-13T11:12:00.000Z</Time>
            <Position>
              <LatitudeDegrees>43.46491855569183826446533203125</LatitudeDegrees>
              <LongitudeDegrees>-3.53540386073291301727294921875</LongitudeDegrees>
            </Position>
            <AltitudeMeters>16.799999237060546875</AltitudeMeters>
            <DistanceMeters>NAN</DistanceMeters>
          </Trackpoint>
          <Trackpoint>
            <Time>2022-07-13T11:12:27.000Z</Time>
            <Position>
              <LatitudeDegrees>43.4649193100631237030029296875</LatitudeDegrees>
              <LongitudeDegrees>-3.535136394202709197998046875</LongitudeDegrees>
            </Position>
            <AltitudeMeters>17.799999237060546875</AltitudeMeters>
            <DistanceMeters>NAN</DistanceMeters>
          </Trackpoint>
          <Trackpoint>
            <Time>2022-07-13T11:12:30.000Z</Time>
            <Position>
              <LatitudeDegrees>43.464897684752941131591796875</LatitudeDegrees>
              <LongitudeDegrees>-3.53516019880771636962890625</LongitudeDegrees>
            </Position>
            <AltitudeMeters>17.799999237060546875</AltitudeMeters>
            <DistanceMeters>NAN</DistanceMeters>
          </Trackpoint>
          <Trackpoint>
            <Time>2022-07-13T11:12:33.000Z</Time>
            <Position>
              <LatitudeDegrees>43.46487991511821746826171875</LatitudeDegrees>
              <LongitudeDegrees>-3.53524259291589260101318359375</LongitudeDegrees>
            </Position>
            <AltitudeMeters>18</AltitudeMeters>
            <DistanceMeters>NAN</DistanceMeters>
          </Trackpoint>
          <Trackpoint>
            <Time>2022-07-13T11:12:34.000Z</Time>
            <Position>
              <LatitudeDegrees>43.46489022485911846160888671875</LatitudeDegrees>
              <LongitudeDegrees>-3.53527109138667583465576171875</LongitudeDegrees>
            </Position>
            <AltitudeMeters>18.200000762939453125</AltitudeMeters>
            <DistanceMeters>NAN</DistanceMeters>
          </Trackpoint>
          <Trackpoint>
            <Time>2022-07-13T11:12:35.000Z</Time>
            <Position>
              <LatitudeDegrees>43.46491235308349132537841796875</LatitudeDegrees>
              <LongitudeDegrees>-3.535283915698528289794921875</LongitudeDegrees>
            </Position>
            <AltitudeMeters>18.200000762939453125</AltitudeMeters>
            <DistanceMeters>NAN</DistanceMeters>
          </Trackpoint>
          <Trackpoint>
            <Time>2022-07-13T11:12:36.000Z</Time>
            <Position>
              <LatitudeDegrees>43.46495225094258785247802734375</LatitudeDegrees>
              <LongitudeDegrees>-3.53533563204109668731689453125</LongitudeDegrees>
            </Position>
            <AltitudeMeters>18.200000762939453125</AltitudeMeters>
            <DistanceMeters>NAN</DistanceMeters>
          </Trackpoint>
          <Trackpoint>
            <Time>2022-07-13T11:12:38.000Z</Time>
            <Position>
              <LatitudeDegrees>43.46497890539467334747314453125</LatitudeDegrees>
              <LongitudeDegrees>-3.53539095260202884674072265625</LongitudeDegrees>
            </Position>
            <AltitudeMeters>18.200000762939453125</AltitudeMeters>
            <DistanceMeters>NAN</DistanceMeters>
          </Trackpoint>
          <Trackpoint>
            <Time>2022-07-13T11:12:40.000Z</Time>
            <Position>
              <LatitudeDegrees>43.46500405110418796539306640625</LatitudeDegrees>
              <LongitudeDegrees>-3.5354666411876678466796875</LongitudeDegrees>
            </Position>
            <AltitudeMeters>18.3999996185302734375</AltitudeMeters>
            <DistanceMeters>NAN</DistanceMeters>
          </Trackpoint>
          <Trackpoint>
            <Time>2022-07-13T11:12:41.000Z</Time>
            <Position>
              <LatitudeDegrees>43.464970774948596954345703125</LatitudeDegrees>
              <LongitudeDegrees>-3.53543940000236034393310546875</LongitudeDegrees>
            </Position>
            <AltitudeMeters>18.3999996185302734375</AltitudeMeters>
            <DistanceMeters>NAN</DistanceMeters>
          </Trackpoint>
          <Trackpoint>
            <Time>2022-07-13T11:12:43.000Z</Time>
            <Position>
              <LatitudeDegrees>43.46492190845310688018798828125</LatitudeDegrees>
              <LongitudeDegrees>-3.53544007055461406707763671875</LongitudeDegrees>
            </Position>
            <AltitudeMeters>18.200000762939453125</AltitudeMeters>
            <DistanceMeters>NAN</DistanceMeters>
          </Trackpoint>
          <Trackpoint>
            <Time>2022-07-13T11:12:45.000Z</Time>
            <Position>
              <LatitudeDegrees>43.46492006443440914154052734375</LatitudeDegrees>
              <LongitudeDegrees>-3.535458929836750030517578125</LongitudeDegrees>
            </Position>
            <AltitudeMeters>18.200000762939453125</AltitudeMeters>
            <DistanceMeters>NAN</DistanceMeters>
          </Trackpoint>
          <Trackpoint>
            <Time>2022-07-13T11:12:46.000Z</Time>
            <Position>
              <LatitudeDegrees>43.464947640895843505859375</LatitudeDegrees>
              <LongitudeDegrees>-3.53546286933124065399169921875</LongitudeDegrees>
            </Position>
            <AltitudeMeters>18.200000762939453125</AltitudeMeters>
            <DistanceMeters>NAN</DistanceMeters>
          </Trackpoint>
          <Trackpoint>
            <Time>2022-07-13T11:12:47.000Z</Time>
            <Position>
              <LatitudeDegrees>43.4649918973445892333984375</LatitudeDegrees>
              <LongitudeDegrees>-3.535459935665130615234375</LongitudeDegrees>
            </Position>
            <AltitudeMeters>18.3999996185302734375</AltitudeMeters>
            <DistanceMeters>NAN</DistanceMeters>
          </Trackpoint>
          <Trackpoint>
            <Time>2022-07-13T11:12:48.000Z</Time>
            <Position>
              <LatitudeDegrees>43.46504143439233303070068359375</LatitudeDegrees>
              <LongitudeDegrees>-3.53539983741939067840576171875</LongitudeDegrees>
            </Position>
            <AltitudeMeters>18.3999996185302734375</AltitudeMeters>
            <DistanceMeters>NAN</DistanceMeters>
          </Trackpoint>
          <Trackpoint>
            <Time>2022-07-13T11:12:49.000Z</Time>
            <Position>
              <LatitudeDegrees>43.46506808884441852569580078125</LatitudeDegrees>
              <LongitudeDegrees>-3.53537016548216342926025390625</LongitudeDegrees>
            </Position>
            <AltitudeMeters>18.3999996185302734375</AltitudeMeters>
            <DistanceMeters>NAN</DistanceMeters>
          </Trackpoint>
          <Trackpoint>
            <Time>2022-07-13T11:12:52.000Z</Time>
            <Position>
              <LatitudeDegrees>43.465080745518207550048828125</LatitudeDegrees>
              <LongitudeDegrees>-3.53536949492990970611572265625</LongitudeDegrees>
            </Position>
            <AltitudeMeters>18.6000003814697265625</AltitudeMeters>
            <DistanceMeters>NAN</DistanceMeters>
          </Trackpoint>
          <Trackpoint>
            <Time>2022-07-13T11:12:53.000Z</Time>
            <Position>
              <LatitudeDegrees>43.46507714129984378814697265625</LatitudeDegrees>
              <LongitudeDegrees>-3.5353615321218967437744140625</LongitudeDegrees>
            </Position>
            <AltitudeMeters>18.6000003814697265625</AltitudeMeters>
            <DistanceMeters>NAN</DistanceMeters>
          </Trackpoint>
          <Trackpoint>
            <Time>2022-07-13T11:13:08.000Z</Time>
            <Position>
              <LatitudeDegrees>43.46515526063740253448486328125</LatitudeDegrees>
              <LongitudeDegrees>-3.53558625094592571258544921875</LongitudeDegrees>
            </Position>
            <AltitudeMeters>18.6000003814697265625</AltitudeMeters>
            <DistanceMeters>NAN</DistanceMeters>
          </Trackpoint>
          <Trackpoint>
            <Time>2022-07-13T11:13:21.000Z</Time>
            <Position>
              <LatitudeDegrees>43.46559874713420867919921875</LatitudeDegrees>
              <LongitudeDegrees>-3.53536731563508510589599609375</LongitudeDegrees>
            </Position>
            <AltitudeMeters>19</AltitudeMeters>
            <DistanceMeters>NAN</DistanceMeters>
          </Trackpoint>
          <Trackpoint>
            <Time>2022-07-13T11:13:24.000Z</Time>
            <Position>
              <LatitudeDegrees>43.46552230417728424072265625</LatitudeDegrees>
              <LongitudeDegrees>-3.5354518890380859375</LongitudeDegrees>
            </Position>
            <AltitudeMeters>19.200000762939453125</AltitudeMeters>
            <DistanceMeters>NAN</DistanceMeters>
          </Trackpoint>
          <Trackpoint>
            <Time>2022-07-13T11:13:26.000Z</Time>
            <Position>
              <LatitudeDegrees>43.46543152816593647003173828125</LatitudeDegrees>
              <LongitudeDegrees>-3.53541056625545024871826171875</LongitudeDegrees>
            </Position>
            <AltitudeMeters>19.3999996185302734375</AltitudeMeters>
            <DistanceMeters>NAN</DistanceMeters>
          </Trackpoint>
          <Trackpoint>
            <Time>2022-07-13T11:13:28.000Z</Time>
            <Position>
              <LatitudeDegrees>43.46534284763038158416748046875</LatitudeDegrees>
              <LongitudeDegrees>-3.53537972085177898406982421875</LongitudeDegrees>
            </Position>
            <AltitudeMeters>19.6000003814697265625</AltitudeMeters>
            <DistanceMeters>NAN</DistanceMeters>
          </Trackpoint>
          <Trackpoint>
            <Time>2022-07-13T11:13:30.000Z</Time>
            <Position>
              <LatitudeDegrees>43.465282581746578216552734375</LatitudeDegrees>
              <LongitudeDegrees>-3.535400927066802978515625</LongitudeDegrees>
            </Position>
            <AltitudeMeters>19.799999237060546875</AltitudeMeters>
            <DistanceMeters>NAN</DistanceMeters>
          </Trackpoint>
          <Trackpoint>
            <Time>2022-07-13T11:13:31.000Z</Time>
            <Position>
              <LatitudeDegrees>43.4652703441679477691650390625</LatitudeDegrees>
              <LongitudeDegrees>-3.53541408665478229522705078125</LongitudeDegrees>
            </Position>
            <AltitudeMeters>19.799999237060546875</AltitudeMeters>
            <DistanceMeters>NAN</DistanceMeters>
          </Trackpoint>
          <Trackpoint>
            <Time>2022-07-13T11:13:33.000Z</Time>
            <Position>
              <LatitudeDegrees>43.46531904302537441253662109375</LatitudeDegrees>
              <LongitudeDegrees>-3.53552556596696376800537109375</LongitudeDegrees>
            </Position>
            <AltitudeMeters>20</AltitudeMeters>
            <DistanceMeters>NAN</DistanceMeters>
          </Trackpoint>
          <Trackpoint>
            <Time>2022-07-13T11:13:34.000Z</Time>
            <Position>
              <LatitudeDegrees>43.46528719179332256317138671875</LatitudeDegrees>
              <LongitudeDegrees>-3.5355476103723049163818359375</LongitudeDegrees>
            </Position>
            <AltitudeMeters>20</AltitudeMeters>
            <DistanceMeters>NAN</DistanceMeters>
          </Trackpoint>
          <Trackpoint>
            <Time>2022-07-13T11:13:35.000Z</Time>
            <Position>
              <LatitudeDegrees>43.4652629680931568145751953125</LatitudeDegrees>
              <LongitudeDegrees>-3.53549907915294170379638671875</LongitudeDegrees>
            </Position>
            <AltitudeMeters>20</AltitudeMeters>
            <DistanceMeters>NAN</DistanceMeters>
          </Trackpoint>
          <Trackpoint>
            <Time>2022-07-13T11:13:38.000Z</Time>
            <Position>
              <LatitudeDegrees>43.46514872275292873382568359375</LatitudeDegrees>
              <LongitudeDegrees>-3.53541366755962371826171875</LongitudeDegrees>
            </Position>
            <AltitudeMeters>20</AltitudeMeters>
            <DistanceMeters>NAN</DistanceMeters>
          </Trackpoint>
          <Trackpoint>
            <Time>2022-07-13T11:13:42.000Z</Time>
            <Position>
              <LatitudeDegrees>43.4651177935302257537841796875</LatitudeDegrees>
              <LongitudeDegrees>-3.535464964807033538818359375</LongitudeDegrees>
            </Position>
            <AltitudeMeters>20.200000762939453125</AltitudeMeters>
            <DistanceMeters>NAN</DistanceMeters>
          </Trackpoint>
          <Trackpoint>
            <Time>2022-07-13T11:13:47.000Z</Time>
            <Position>
              <LatitudeDegrees>43.4650286100804805755615234375</LatitudeDegrees>
              <LongitudeDegrees>-3.5353632085025310516357421875</LongitudeDegrees>
            </Position>
            <AltitudeMeters>20.3999996185302734375</AltitudeMeters>
            <DistanceMeters>NAN</DistanceMeters>
          </Trackpoint>
          <Trackpoint>
            <Time>2022-07-13T11:13:50.000Z</Time>
            <Position>
              <LatitudeDegrees>43.4649736247956752777099609375</LatitudeDegrees>
              <LongitudeDegrees>-3.535406291484832763671875</LongitudeDegrees>
            </Position>
            <AltitudeMeters>20.200000762939453125</AltitudeMeters>
            <DistanceMeters>NAN</DistanceMeters>
          </Trackpoint>
          <Trackpoint>
            <Time>2022-07-13T11:13:53.000Z</Time>
            <Position>
              <LatitudeDegrees>43.46506557427346706390380859375</LatitudeDegrees>
              <LongitudeDegrees>-3.53533345274627208709716796875</LongitudeDegrees>
            </Position>
            <AltitudeMeters>20</AltitudeMeters>
            <DistanceMeters>NAN</DistanceMeters>
          </Trackpoint>
          <Trackpoint>
            <Time>2022-07-13T11:13:56.000Z</Time>
            <Position>
              <LatitudeDegrees>43.46509541384875774383544921875</LatitudeDegrees>
              <LongitudeDegrees>-3.53533194400370121002197265625</LongitudeDegrees>
            </Position>
            <AltitudeMeters>20</AltitudeMeters>
            <DistanceMeters>NAN</DistanceMeters>
          </Trackpoint>
          <Trackpoint>
            <Time>2022-07-13T11:13:59.000Z</Time>
            <Position>
              <LatitudeDegrees>43.46513950265944004058837890625</LatitudeDegrees>
              <LongitudeDegrees>-3.53532054461538791656494140625</LongitudeDegrees>
            </Position>
            <AltitudeMeters>20</AltitudeMeters>
            <DistanceMeters>NAN</DistanceMeters>
          </Trackpoint>
          <Trackpoint>
            <Time>2022-07-13T11:14:03.000Z</Time>
            <Position>
              <LatitudeDegrees>43.46513480879366397857666015625</LatitudeDegrees>
              <LongitudeDegrees>-3.53531668893992900848388671875</LongitudeDegrees>
            </Position>
            <AltitudeMeters>20.200000762939453125</AltitudeMeters>
            <DistanceMeters>NAN</DistanceMeters>
          </Trackpoint>
          <Trackpoint>
            <Time>2022-07-13T11:14:36.000Z</Time>
            <Position>
              <LatitudeDegrees>43.465200774371623992919921875</LatitudeDegrees>
              <LongitudeDegrees>-3.5352815687656402587890625</LongitudeDegrees>
            </Position>
            <AltitudeMeters>20.6000003814697265625</AltitudeMeters>
            <DistanceMeters>NAN</DistanceMeters>
          </Trackpoint>
          <Trackpoint>
            <Time>2022-07-13T11:14:38.000Z</Time>
            <Position>
              <LatitudeDegrees>43.46522860229015350341796875</LatitudeDegrees>
              <LongitudeDegrees>-3.5352706722915172576904296875</LongitudeDegrees>
            </Position>
            <AltitudeMeters>20.6000003814697265625</AltitudeMeters>
            <DistanceMeters>NAN</DistanceMeters>
          </Trackpoint>
          <Trackpoint>
            <Time>2022-07-13T11:14:39.000Z</Time>
            <Position>
              <LatitudeDegrees>43.465322144329547882080078125</LatitudeDegrees>
              <LongitudeDegrees>-3.5352669842541217803955078125</LongitudeDegrees>
            </Position>
            <AltitudeMeters>20.6000003814697265625</AltitudeMeters>
            <DistanceMeters>NAN</DistanceMeters>
          </Trackpoint>
          <Trackpoint>
            <Time>2022-07-13T11:14:40.000Z</Time>
            <Position>
              <LatitudeDegrees>43.46537411212921142578125</LatitudeDegrees>
              <LongitudeDegrees>-3.5352700017392635345458984375</LongitudeDegrees>
            </Position>
            <AltitudeMeters>20.6000003814697265625</AltitudeMeters>
            <DistanceMeters>NAN</DistanceMeters>
          </Trackpoint>
          <Trackpoint>
            <Time>2022-07-13T11:14:41.000Z</Time>
            <Position>
              <LatitudeDegrees>43.465450890362262725830078125</LatitudeDegrees>
              <LongitudeDegrees>-3.53527494706213474273681640625</LongitudeDegrees>
            </Position>
            <AltitudeMeters>20.6000003814697265625</AltitudeMeters>
            <DistanceMeters>NAN</DistanceMeters>
          </Trackpoint>
          <Trackpoint>
            <Time>2022-07-13T11:14:43.000Z</Time>
            <Position>
              <LatitudeDegrees>43.4651099145412445068359375</LatitudeDegrees>
              <LongitudeDegrees>-3.53531836532056331634521484375</LongitudeDegrees>
            </Position>
            <AltitudeMeters>20.6000003814697265625</AltitudeMeters>
            <DistanceMeters>NAN</DistanceMeters>
          </Trackpoint>
          <Trackpoint>
            <Time>2022-07-13T11:14:46.000Z</Time>
            <Position>
              <LatitudeDegrees>43.46518778242170810699462890625</LatitudeDegrees>
              <LongitudeDegrees>-3.53529053740203380584716796875</LongitudeDegrees>
            </Position>
            <AltitudeMeters>20.799999237060546875</AltitudeMeters>
            <DistanceMeters>NAN</DistanceMeters>
          </Trackpoint>
          <Trackpoint>
            <Time>2022-07-13T11:14:48.000Z</Time>
            <Position>
              <LatitudeDegrees>43.46522265113890171051025390625</LatitudeDegrees>
              <LongitudeDegrees>-3.53528517298400402069091796875</LongitudeDegrees>
            </Position>
            <AltitudeMeters>20.799999237060546875</AltitudeMeters>
            <DistanceMeters>NAN</DistanceMeters>
          </Trackpoint>
          <Trackpoint>
            <Time>2022-07-13T11:14:49.000Z</Time>
            <Position>
              <LatitudeDegrees>43.46518593840301036834716796875</LatitudeDegrees>
              <LongitudeDegrees>-3.5352480411529541015625</LongitudeDegrees>
            </Position>
            <AltitudeMeters>20.799999237060546875</AltitudeMeters>
            <DistanceMeters>NAN</DistanceMeters>
          </Trackpoint>
          <Trackpoint>
            <Time>2022-07-13T11:14:51.000Z</Time>
            <Position>
              <LatitudeDegrees>43.46511804498732089996337890625</LatitudeDegrees>
              <LongitudeDegrees>-3.535202778875827789306640625</LongitudeDegrees>
            </Position>
            <AltitudeMeters>21</AltitudeMeters>
            <DistanceMeters>NAN</DistanceMeters>
          </Trackpoint>
          <Trackpoint>
            <Time>2022-07-13T11:14:53.000Z</Time>
            <Position>
              <LatitudeDegrees>43.46503682434558868408203125</LatitudeDegrees>
              <LongitudeDegrees>-3.53526824153959751129150390625</LongitudeDegrees>
            </Position>
            <AltitudeMeters>20.799999237060546875</AltitudeMeters>
            <DistanceMeters>NAN</DistanceMeters>
          </Trackpoint>
          <Trackpoint>
            <Time>2022-07-13T11:14:55.000Z</Time>
            <Position>
              <LatitudeDegrees>43.46499751321971416473388671875</LatitudeDegrees>
              <LongitudeDegrees>-3.53537837974727153778076171875</LongitudeDegrees>
            </Position>
            <AltitudeMeters>21</AltitudeMeters>
            <DistanceMeters>NAN</DistanceMeters>
          </Trackpoint>
          <Trackpoint>
            <Time>2022-07-13T11:14:57.000Z</Time>
            <Position>
              <LatitudeDegrees>43.4651251696050167083740234375</LatitudeDegrees>
              <LongitudeDegrees>-3.5353915393352508544921875</LongitudeDegrees>
            </Position>
            <AltitudeMeters>21</AltitudeMeters>
            <DistanceMeters>NAN</DistanceMeters>
          </Trackpoint>
          <Trackpoint>
            <Time>2022-07-13T11:14:59.000Z</Time>
            <Position>
              <LatitudeDegrees>43.46519867889583110809326171875</LatitudeDegrees>
              <LongitudeDegrees>-3.5353192873299121856689453125</LongitudeDegrees>
            </Position>
            <AltitudeMeters>21.200000762939453125</AltitudeMeters>
            <DistanceMeters>NAN</DistanceMeters>
          </Trackpoint>
          <Trackpoint>
            <Time>2022-07-13T11:15:01.000Z</Time>
            <Position>
              <LatitudeDegrees>43.4652220644056797027587890625</LatitudeDegrees>
              <LongitudeDegrees>-3.53521962650120258331298828125</LongitudeDegrees>
            </Position>
            <AltitudeMeters>21.200000762939453125</AltitudeMeters>
            <DistanceMeters>NAN</DistanceMeters>
          </Trackpoint>
          <Trackpoint>
            <Time>2022-07-13T11:15:03.000Z</Time>
            <Position>
              <LatitudeDegrees>43.46527160145342350006103515625</LatitudeDegrees>
              <LongitudeDegrees>-3.53513731621205806732177734375</LongitudeDegrees>
            </Position>
            <AltitudeMeters>21.3999996185302734375</AltitudeMeters>
            <DistanceMeters>NAN</DistanceMeters>
          </Trackpoint>
          <Trackpoint>
            <Time>2022-07-13T11:15:05.000Z</Time>
            <Position>
              <LatitudeDegrees>43.46523354761302471160888671875</LatitudeDegrees>
              <LongitudeDegrees>-3.5351053811609745025634765625</LongitudeDegrees>
            </Position>
            <AltitudeMeters>21.3999996185302734375</AltitudeMeters>
            <DistanceMeters>NAN</DistanceMeters>
          </Trackpoint>
          <Trackpoint>
            <Time>2022-07-13T11:15:08.000Z</Time>
            <Position>
              <LatitudeDegrees>43.46510798670351505279541015625</LatitudeDegrees>
              <LongitudeDegrees>-3.53540486656129360198974609375</LongitudeDegrees>
            </Position>
            <AltitudeMeters>21.3999996185302734375</AltitudeMeters>
            <DistanceMeters>NAN</DistanceMeters>
          </Trackpoint>
          <Trackpoint>
            <Time>2022-07-13T11:15:10.000Z</Time>
            <Position>
              <LatitudeDegrees>43.4651204757392406463623046875</LatitudeDegrees>
              <LongitudeDegrees>-3.53538609109818935394287109375</LongitudeDegrees>
            </Position>
            <AltitudeMeters>21.3999996185302734375</AltitudeMeters>
            <DistanceMeters>NAN</DistanceMeters>
          </Trackpoint>
          <Trackpoint>
            <Time>2022-07-13T11:15:11.000Z</Time>
            <Position>
              <LatitudeDegrees>43.4651231579482555389404296875</LatitudeDegrees>
              <LongitudeDegrees>-3.53539212606847286224365234375</LongitudeDegrees>
            </Position>
            <AltitudeMeters>21.3999996185302734375</AltitudeMeters>
            <DistanceMeters>NAN</DistanceMeters>
          </Trackpoint>
          <Trackpoint>
            <Time>2022-07-13T11:15:17.000Z</Time>
            <Position>
              <LatitudeDegrees>43.46521493978798389434814453125</LatitudeDegrees>
              <LongitudeDegrees>-3.53544308803975582122802734375</LongitudeDegrees>
            </Position>
            <AltitudeMeters>21</AltitudeMeters>
            <DistanceMeters>NAN</DistanceMeters>
          </Trackpoint>
          <Trackpoint>
            <Time>2022-07-13T11:15:28.000Z</Time>
            <Position>
              <LatitudeDegrees>43.4651218168437480926513671875</LatitudeDegrees>
              <LongitudeDegrees>-3.53554350323975086212158203125</LongitudeDegrees>
            </Position>
            <AltitudeMeters>21.200000762939453125</AltitudeMeters>
            <DistanceMeters>NAN</DistanceMeters>
          </Trackpoint>
          <Trackpoint>
            <Time>2022-07-13T11:15:29.000Z</Time>
            <Position>
              <LatitudeDegrees>43.46511955372989177703857421875</LatitudeDegrees>
              <LongitudeDegrees>-3.5355519689619541168212890625</LongitudeDegrees>
            </Position>
            <AltitudeMeters>21.200000762939453125</AltitudeMeters>
            <DistanceMeters>NAN</DistanceMeters>
          </Trackpoint>
          <Trackpoint>
            <Time>2022-07-13T11:15:30.000Z</Time>
            <Position>
              <LatitudeDegrees>43.4651449508965015411376953125</LatitudeDegrees>
              <LongitudeDegrees>-3.53555523790419101715087890625</LongitudeDegrees>
            </Position>
            <AltitudeMeters>21.200000762939453125</AltitudeMeters>
            <DistanceMeters>NAN</DistanceMeters>
          </Trackpoint>
          <Trackpoint>
            <Time>2022-07-13T11:15:34.000Z</Time>
            <Position>
              <LatitudeDegrees>43.4651908837258815765380859375</LatitudeDegrees>
              <LongitudeDegrees>-3.5355658829212188720703125</LongitudeDegrees>
            </Position>
            <AltitudeMeters>21.3999996185302734375</AltitudeMeters>
            <DistanceMeters>NAN</DistanceMeters>
          </Trackpoint>
          <Trackpoint>
            <Time>2022-07-13T11:15:36.000Z</Time>
            <Position>
              <LatitudeDegrees>43.4651895426213741302490234375</LatitudeDegrees>
              <LongitudeDegrees>-3.5355637036263942718505859375</LongitudeDegrees>
            </Position>
            <AltitudeMeters>21.6000003814697265625</AltitudeMeters>
            <DistanceMeters>NAN</DistanceMeters>
          </Trackpoint>
          <Trackpoint>
            <Time>2022-07-13T11:15:38.000Z</Time>
            <Position>
              <LatitudeDegrees>43.465186692774295806884765625</LatitudeDegrees>
              <LongitudeDegrees>-3.53556814603507518768310546875</LongitudeDegrees>
            </Position>
            <AltitudeMeters>21.799999237060546875</AltitudeMeters>
            <DistanceMeters>NAN</DistanceMeters>
          </Trackpoint>
          <Trackpoint>
            <Time>2022-07-13T11:15:39.000Z</Time>
            <Position>
              <LatitudeDegrees>43.465186692774295806884765625</LatitudeDegrees>
              <LongitudeDegrees>-3.53556814603507518768310546875</LongitudeDegrees>
            </Position>
            <AltitudeMeters>22</AltitudeMeters>
            <DistanceMeters>NAN</DistanceMeters>
          </Trackpoint>
          <Trackpoint>
            <Time>2022-07-13T11:16:05.000Z</Time>
            <Position>
              <LatitudeDegrees>43.465151488780975341796875</LatitudeDegrees>
              <LongitudeDegrees>-3.53552497923374176025390625</LongitudeDegrees>
            </Position>
            <AltitudeMeters>22.6000003814697265625</AltitudeMeters>
            <DistanceMeters>NAN</DistanceMeters>
          </Trackpoint>
          <Trackpoint>
            <Time>2022-07-13T11:16:07.000Z</Time>
            <Position>
              <LatitudeDegrees>43.46515425480902194976806640625</LatitudeDegrees>
              <LongitudeDegrees>-3.53551961481571197509765625</LongitudeDegrees>
            </Position>
            <AltitudeMeters>22.6000003814697265625</AltitudeMeters>
            <DistanceMeters>NAN</DistanceMeters>
          </Trackpoint>
          <Trackpoint>
            <Time>2022-07-13T11:16:14.000Z</Time>
            <Position>
              <LatitudeDegrees>43.46511033363640308380126953125</LatitudeDegrees>
              <LongitudeDegrees>-3.53550578467547893524169921875</LongitudeDegrees>
            </Position>
            <AltitudeMeters>22.6000003814697265625</AltitudeMeters>
            <DistanceMeters>NAN</DistanceMeters>
          </Trackpoint>
          <Trackpoint>
            <Time>2022-07-13T11:21:38.000Z</Time>
            <Position>
              <LatitudeDegrees>43.46508434973657131195068359375</LatitudeDegrees>
              <LongitudeDegrees>-3.5355352051556110382080078125</LongitudeDegrees>
            </Position>
            <AltitudeMeters>22.799999237060546875</AltitudeMeters>
            <DistanceMeters>NAN</DistanceMeters>
          </Trackpoint>
          <Trackpoint>
            <Time>2022-07-13T11:21:39.000Z</Time>
            <Position>
              <LatitudeDegrees>43.46509323455393314361572265625</LatitudeDegrees>
              <LongitudeDegrees>-3.53552766144275665283203125</LongitudeDegrees>
            </Position>
            <AltitudeMeters>22.799999237060546875</AltitudeMeters>
            <DistanceMeters>NAN</DistanceMeters>
          </Trackpoint>
          <Trackpoint>
            <Time>2022-07-13T11:21:41.000Z</Time>
            <Position>
              <LatitudeDegrees>43.46511519514024257659912109375</LatitudeDegrees>
              <LongitudeDegrees>-3.53550142608582973480224609375</LongitudeDegrees>
            </Position>
            <AltitudeMeters>23.799999237060546875</AltitudeMeters>
            <DistanceMeters>NAN</DistanceMeters>
          </Trackpoint>
          <Trackpoint>
            <Time>2022-07-13T11:21:43.000Z</Time>
            <Position>
              <LatitudeDegrees>43.46512977965176105499267578125</LatitudeDegrees>
              <LongitudeDegrees>-3.53548231534659862518310546875</LongitudeDegrees>
            </Position>
            <AltitudeMeters>24.799999237060546875</AltitudeMeters>
            <DistanceMeters>NAN</DistanceMeters>
          </Trackpoint>
          <Trackpoint>
            <Time>2022-07-13T11:21:44.000Z</Time>
            <Position>
              <LatitudeDegrees>43.4651426039636135101318359375</LatitudeDegrees>
              <LongitudeDegrees>-3.53547108359634876251220703125</LongitudeDegrees>
            </Position>
            <AltitudeMeters>25</AltitudeMeters>
            <DistanceMeters>NAN</DistanceMeters>
          </Trackpoint>
          <Trackpoint>
            <Time>2022-07-13T11:21:45.000Z</Time>
            <Position>
              <LatitudeDegrees>43.465155176818370819091796875</LatitudeDegrees>
              <LongitudeDegrees>-3.53546873666346073150634765625</LongitudeDegrees>
            </Position>
            <AltitudeMeters>25</AltitudeMeters>
            <DistanceMeters>NAN</DistanceMeters>
          </Trackpoint>
          <Trackpoint>
            <Time>2022-07-13T11:21:48.000Z</Time>
            <Position>
              <LatitudeDegrees>43.4651707671582698822021484375</LatitudeDegrees>
              <LongitudeDegrees>-3.53547535836696624755859375</LongitudeDegrees>
            </Position>
            <AltitudeMeters>25</AltitudeMeters>
            <DistanceMeters>NAN</DistanceMeters>
          </Trackpoint>
          <Trackpoint>
            <Time>2022-07-13T11:21:50.000Z</Time>
            <Position>
              <LatitudeDegrees>43.4651707671582698822021484375</LatitudeDegrees>
              <LongitudeDegrees>-3.53547535836696624755859375</LongitudeDegrees>
            </Position>
            <AltitudeMeters>25</AltitudeMeters>
            <DistanceMeters>NAN</DistanceMeters>
          </Trackpoint>
          <Trackpoint>
            <Time>2022-07-13T11:21:57.000Z</Time>
            <Position>
              <LatitudeDegrees>43.4652354754507541656494140625</LatitudeDegrees>
              <LongitudeDegrees>-3.53546437807381153106689453125</LongitudeDegrees>
            </Position>
            <AltitudeMeters>25.3999996185302734375</AltitudeMeters>
            <DistanceMeters>NAN</DistanceMeters>
          </Trackpoint>
          <Trackpoint>
            <Time>2022-07-13T11:21:58.000Z</Time>
            <Position>
              <LatitudeDegrees>43.46524964086711406707763671875</LatitudeDegrees>
              <LongitudeDegrees>-3.53547535836696624755859375</LongitudeDegrees>
            </Position>
            <AltitudeMeters>25.3999996185302734375</AltitudeMeters>
            <DistanceMeters>NAN</DistanceMeters>
          </Trackpoint>
          <Trackpoint>
            <Time>2022-07-13T11:21:59.000Z</Time>
            <Position>
              <LatitudeDegrees>43.4652656503021717071533203125</LatitudeDegrees>
              <LongitudeDegrees>-3.5354936309158802032470703125</LongitudeDegrees>
            </Position>
            <AltitudeMeters>25.3999996185302734375</AltitudeMeters>
            <DistanceMeters>NAN</DistanceMeters>
          </Trackpoint>
          <Trackpoint>
            <Time>2022-07-13T11:22:05.000Z</Time>
            <Position>
              <LatitudeDegrees>43.46531015820801258087158203125</LatitudeDegrees>
              <LongitudeDegrees>-3.5355844907462596893310546875</LongitudeDegrees>
            </Position>
            <AltitudeMeters>25.3999996185302734375</AltitudeMeters>
            <DistanceMeters>NAN</DistanceMeters>
          </Trackpoint>
          <Trackpoint>
            <Time>2022-07-13T11:22:07.000Z</Time>
            <Position>
              <LatitudeDegrees>43.46531015820801258087158203125</LatitudeDegrees>
              <LongitudeDegrees>-3.5355844907462596893310546875</LongitudeDegrees>
            </Position>
            <AltitudeMeters>25.6000003814697265625</AltitudeMeters>
            <DistanceMeters>NAN</DistanceMeters>
          </Trackpoint>
          <Trackpoint>
            <Time>2022-07-13T11:22:54.000Z</Time>
            <Position>
              <LatitudeDegrees>43.46532113850116729736328125</LatitudeDegrees>
              <LongitudeDegrees>-3.5356186889111995697021484375</LongitudeDegrees>
            </Position>
            <AltitudeMeters>24.3999996185302734375</AltitudeMeters>
            <DistanceMeters>NAN</DistanceMeters>
          </Trackpoint>
          <Trackpoint>
            <Time>2022-07-13T11:22:55.000Z</Time>
            <Position>
              <LatitudeDegrees>43.46533195115625858306884765625</LatitudeDegrees>
              <LongitudeDegrees>-3.5356538929045200347900390625</LongitudeDegrees>
            </Position>
            <AltitudeMeters>24.3999996185302734375</AltitudeMeters>
            <DistanceMeters>NAN</DistanceMeters>
          </Trackpoint>
          <Trackpoint>
            <Time>2022-07-13T11:22:58.000Z</Time>
            <Position>
              <LatitudeDegrees>43.4653595276176929473876953125</LatitudeDegrees>
              <LongitudeDegrees>-3.53576260618865489959716796875</LongitudeDegrees>
            </Position>
            <AltitudeMeters>24.3999996185302734375</AltitudeMeters>
            <DistanceMeters>NAN</DistanceMeters>
          </Trackpoint>
          <Trackpoint>
            <Time>2022-07-13T11:23:02.000Z</Time>
            <Position>
              <LatitudeDegrees>43.46539917401969432830810546875</LatitudeDegrees>
              <LongitudeDegrees>-3.53590744547545909881591796875</LongitudeDegrees>
            </Position>
            <AltitudeMeters>24.6000003814697265625</AltitudeMeters>
            <DistanceMeters>NAN</DistanceMeters>
          </Trackpoint>
          <Trackpoint>
            <Time>2022-07-13T11:23:03.000Z</Time>
            <Position>
              <LatitudeDegrees>43.4654088132083415985107421875</LatitudeDegrees>
              <LongitudeDegrees>-3.535942733287811279296875</LongitudeDegrees>
            </Position>
            <AltitudeMeters>24.799999237060546875</AltitudeMeters>
            <DistanceMeters>NAN</DistanceMeters>
          </Trackpoint>
          <Trackpoint>
            <Time>2022-07-13T11:23:09.000Z</Time>
            <Position>
              <LatitudeDegrees>43.46545994281768798828125</LatitudeDegrees>
              <LongitudeDegrees>-3.53614850901067256927490234375</LongitudeDegrees>
            </Position>
            <AltitudeMeters>24.799999237060546875</AltitudeMeters>
            <DistanceMeters>NAN</DistanceMeters>
          </Trackpoint>
          <Trackpoint>
            <Time>2022-07-13T11:23:11.000Z</Time>
            <Position>
              <LatitudeDegrees>43.46548148430883884429931640625</LatitudeDegrees>
              <LongitudeDegrees>-3.5362069308757781982421875</LongitudeDegrees>
            </Position>
            <AltitudeMeters>24.799999237060546875</AltitudeMeters>
            <DistanceMeters>NAN</DistanceMeters>
          </Trackpoint>
          <Trackpoint>
            <Time>2022-07-13T11:23:12.000Z</Time>
            <Position>
              <LatitudeDegrees>43.4654936380684375762939453125</LatitudeDegrees>
              <LongitudeDegrees>-3.53623936884105205535888671875</LongitudeDegrees>
            </Position>
            <AltitudeMeters>24.799999237060546875</AltitudeMeters>
            <DistanceMeters>NAN</DistanceMeters>
          </Trackpoint>
          <Trackpoint>
            <Time>2022-07-13T11:23:17.000Z</Time>
            <Position>
              <LatitudeDegrees>43.46553831361234188079833984375</LatitudeDegrees>
              <LongitudeDegrees>-3.53640935383737087249755859375</LongitudeDegrees>
            </Position>
            <AltitudeMeters>25</AltitudeMeters>
            <DistanceMeters>NAN</DistanceMeters>
          </Trackpoint>
          <Trackpoint>
            <Time>2022-07-13T11:23:18.000Z</Time>
            <Position>
              <LatitudeDegrees>43.4655471146106719970703125</LatitudeDegrees>
              <LongitudeDegrees>-3.53644086979329586029052734375</LongitudeDegrees>
            </Position>
            <AltitudeMeters>25</AltitudeMeters>
            <DistanceMeters>NAN</DistanceMeters>
          </Trackpoint>
          <Trackpoint>
            <Time>2022-07-13T11:23:19.000Z</Time>
            <Position>
              <LatitudeDegrees>43.46555558033287525177001953125</LatitudeDegrees>
              <LongitudeDegrees>-3.5364724695682525634765625</LongitudeDegrees>
            </Position>
            <AltitudeMeters>25.200000762939453125</AltitudeMeters>
            <DistanceMeters>NAN</DistanceMeters>
          </Trackpoint>
          <Trackpoint>
            <Time>2022-07-13T11:23:26.000Z</Time>
            <Position>
              <LatitudeDegrees>43.46561358310282230377197265625</LatitudeDegrees>
              <LongitudeDegrees>-3.53670422919094562530517578125</LongitudeDegrees>
            </Position>
            <AltitudeMeters>25.3999996185302734375</AltitudeMeters>
            <DistanceMeters>NAN</DistanceMeters>
          </Trackpoint>
          <Trackpoint>
            <Time>2022-07-13T11:23:32.000Z</Time>
            <Position>
              <LatitudeDegrees>43.46566722728312015533447265625</LatitudeDegrees>
              <LongitudeDegrees>-3.53689315728843212127685546875</LongitudeDegrees>
            </Position>
            <AltitudeMeters>25.3999996185302734375</AltitudeMeters>
            <DistanceMeters>NAN</DistanceMeters>
          </Trackpoint>
          <Trackpoint>
            <Time>2022-07-13T11:23:38.000Z</Time>
            <Position>
              <LatitudeDegrees>43.46571802161633968353271484375</LatitudeDegrees>
              <LongitudeDegrees>-3.5370704345405101776123046875</LongitudeDegrees>
            </Position>
            <AltitudeMeters>26</AltitudeMeters>
            <DistanceMeters>NAN</DistanceMeters>
          </Trackpoint>
          <Trackpoint>
            <Time>2022-07-13T11:23:39.000Z</Time>
            <Position>
              <LatitudeDegrees>43.46572640351951122283935546875</LatitudeDegrees>
              <LongitudeDegrees>-3.53709398768842220306396484375</LongitudeDegrees>
            </Position>
            <AltitudeMeters>26</AltitudeMeters>
            <DistanceMeters>NAN</DistanceMeters>
          </Trackpoint>
          <Trackpoint>
            <Time>2022-07-13T11:23:45.000Z</Time>
            <Position>
              <LatitudeDegrees>43.46575054340064525604248046875</LatitudeDegrees>
              <LongitudeDegrees>-3.5372943989932537078857421875</LongitudeDegrees>
            </Position>
            <AltitudeMeters>26.200000762939453125</AltitudeMeters>
            <DistanceMeters>NAN</DistanceMeters>
          </Trackpoint>
          <Trackpoint>
            <Time>2022-07-13T11:23:53.000Z</Time>
            <Position>
              <LatitudeDegrees>43.46581156365573406219482421875</LatitudeDegrees>
              <LongitudeDegrees>-3.53755868040025234222412109375</LongitudeDegrees>
            </Position>
            <AltitudeMeters>25.799999237060546875</AltitudeMeters>
            <DistanceMeters>NAN</DistanceMeters>
          </Trackpoint>
          <Trackpoint>
            <Time>2022-07-13T11:23:56.000Z</Time>
            <Position>
              <LatitudeDegrees>43.46582497470080852508544921875</LatitudeDegrees>
              <LongitudeDegrees>-3.5376511327922344207763671875</LongitudeDegrees>
            </Position>
            <AltitudeMeters>25.799999237060546875</AltitudeMeters>
            <DistanceMeters>NAN</DistanceMeters>
          </Trackpoint>
          <Trackpoint>
            <Time>2022-07-13T11:23:59.000Z</Time>
            <Position>
              <LatitudeDegrees>43.465841151773929595947265625</LatitudeDegrees>
              <LongitudeDegrees>-3.53774853050708770751953125</LongitudeDegrees>
            </Position>
            <AltitudeMeters>26</AltitudeMeters>
            <DistanceMeters>NAN</DistanceMeters>
          </Trackpoint>
          <Trackpoint>
            <Time>2022-07-13T11:24:00.000Z</Time>
            <Position>
              <LatitudeDegrees>43.465833775699138641357421875</LatitudeDegrees>
              <LongitudeDegrees>-3.537775017321109771728515625</LongitudeDegrees>
            </Position>
            <AltitudeMeters>25.799999237060546875</AltitudeMeters>
            <DistanceMeters>NAN</DistanceMeters>
          </Trackpoint>
          <Trackpoint>
            <Time>2022-07-13T11:24:02.000Z</Time>
            <Position>
              <LatitudeDegrees>43.465790189802646636962890625</LatitudeDegrees>
              <LongitudeDegrees>-3.5378080420196056365966796875</LongitudeDegrees>
            </Position>
            <AltitudeMeters>25.6000003814697265625</AltitudeMeters>
            <DistanceMeters>NAN</DistanceMeters>
          </Trackpoint>
          <Trackpoint>
            <Time>2022-07-13T11:24:04.000Z</Time>
            <Position>
              <LatitudeDegrees>43.46572573296725749969482421875</LatitudeDegrees>
              <LongitudeDegrees>-3.53781784884631633758544921875</LongitudeDegrees>
            </Position>
            <AltitudeMeters>25.3999996185302734375</AltitudeMeters>
            <DistanceMeters>NAN</DistanceMeters>
          </Trackpoint>
          <Trackpoint>
            <Time>2022-07-13T11:24:11.000Z</Time>
            <Position>
              <LatitudeDegrees>43.4655429236590862274169921875</LatitudeDegrees>
              <LongitudeDegrees>-3.53789797984063625335693359375</LongitudeDegrees>
            </Position>
            <AltitudeMeters>25.799999237060546875</AltitudeMeters>
            <DistanceMeters>NAN</DistanceMeters>
          </Trackpoint>
          <Trackpoint>
            <Time>2022-07-13T11:24:19.000Z</Time>
            <Position>
              <LatitudeDegrees>43.46538492478430271148681640625</LatitudeDegrees>
              <LongitudeDegrees>-3.53801004588603973388671875</LongitudeDegrees>
            </Position>
            <AltitudeMeters>26.200000762939453125</AltitudeMeters>
            <DistanceMeters>NAN</DistanceMeters>
          </Trackpoint>
          <Trackpoint>
            <Time>2022-07-13T11:24:26.000Z</Time>
            <Position>
              <LatitudeDegrees>43.46526908688247203826904296875</LatitudeDegrees>
              <LongitudeDegrees>-3.53811800479888916015625</LongitudeDegrees>
            </Position>
            <AltitudeMeters>27</AltitudeMeters>
            <DistanceMeters>NAN</DistanceMeters>
          </Trackpoint>
          <Trackpoint>
            <Time>2022-07-13T11:24:27.000Z</Time>
            <Position>
              <LatitudeDegrees>43.4652525745332241058349609375</LatitudeDegrees>
              <LongitudeDegrees>-3.53813082911074161529541015625</LongitudeDegrees>
            </Position>
            <AltitudeMeters>27.200000762939453125</AltitudeMeters>
            <DistanceMeters>NAN</DistanceMeters>
          </Trackpoint>
          <Trackpoint>
            <Time>2022-07-13T11:24:33.000Z</Time>
            <Position>
              <LatitudeDegrees>43.4651536680757999420166015625</LatitudeDegrees>
              <LongitudeDegrees>-3.53815915994346141815185546875</LongitudeDegrees>
            </Position>
            <AltitudeMeters>27.3999996185302734375</AltitudeMeters>
            <DistanceMeters>NAN</DistanceMeters>
          </Trackpoint>
          <Trackpoint>
            <Time>2022-07-13T11:24:37.000Z</Time>
            <Position>
              <LatitudeDegrees>43.46507395617663860321044921875</LatitudeDegrees>
              <LongitudeDegrees>-3.5381962917745113372802734375</LongitudeDegrees>
            </Position>
            <AltitudeMeters>27.6000003814697265625</AltitudeMeters>
            <DistanceMeters>NAN</DistanceMeters>
          </Trackpoint>
          <Trackpoint>
            <Time>2022-07-13T11:24:40.000Z</Time>
            <Position>
              <LatitudeDegrees>43.46501394174993038177490234375</LatitudeDegrees>
              <LongitudeDegrees>-3.53823526762425899505615234375</LongitudeDegrees>
            </Position>
            <AltitudeMeters>27.6000003814697265625</AltitudeMeters>
            <DistanceMeters>NAN</DistanceMeters>
          </Trackpoint>
          <Trackpoint>
            <Time>2022-07-13T11:24:45.000Z</Time>
            <Position>
              <LatitudeDegrees>43.46492660231888294219970703125</LatitudeDegrees>
              <LongitudeDegrees>-3.53828455321490764617919921875</LongitudeDegrees>
            </Position>
            <AltitudeMeters>28</AltitudeMeters>
            <DistanceMeters>NAN</DistanceMeters>
          </Trackpoint>
          <Trackpoint>
            <Time>2022-07-13T11:24:47.000Z</Time>
            <Position>
              <LatitudeDegrees>43.46491721458733081817626953125</LatitudeDegrees>
              <LongitudeDegrees>-3.538286648690700531005859375</LongitudeDegrees>
            </Position>
            <AltitudeMeters>28.200000762939453125</AltitudeMeters>
            <DistanceMeters>NAN</DistanceMeters>
          </Trackpoint>
          <Trackpoint>
            <Time>2022-07-13T11:24:49.000Z</Time>
            <Position>
              <LatitudeDegrees>43.464915119111537933349609375</LatitudeDegrees>
              <LongitudeDegrees>-3.53828824125230312347412109375</LongitudeDegrees>
            </Position>
            <AltitudeMeters>28.3999996185302734375</AltitudeMeters>
            <DistanceMeters>NAN</DistanceMeters>
          </Trackpoint>
          <Trackpoint>
            <Time>2022-07-13T11:24:50.000Z</Time>
            <Position>
              <LatitudeDegrees>43.464915119111537933349609375</LatitudeDegrees>
              <LongitudeDegrees>-3.53828824125230312347412109375</LongitudeDegrees>
            </Position>
            <AltitudeMeters>28.3999996185302734375</AltitudeMeters>
            <DistanceMeters>NAN</DistanceMeters>
          </Trackpoint>
          <Trackpoint>
            <Time>2022-07-13T11:26:04.000Z</Time>
            <Position>
              <LatitudeDegrees>43.46487865783274173736572265625</LatitudeDegrees>
              <LongitudeDegrees>-3.538319170475006103515625</LongitudeDegrees>
            </Position>
            <AltitudeMeters>27.6000003814697265625</AltitudeMeters>
            <DistanceMeters>NAN</DistanceMeters>
          </Trackpoint>
          <Trackpoint>
            <Time>2022-07-13T11:26:06.000Z</Time>
            <Position>
              <LatitudeDegrees>43.46484110690653324127197265625</LatitudeDegrees>
              <LongitudeDegrees>-3.538361079990863800048828125</LongitudeDegrees>
            </Position>
            <AltitudeMeters>27.6000003814697265625</AltitudeMeters>
            <DistanceMeters>NAN</DistanceMeters>
          </Trackpoint>
          <Trackpoint>
            <Time>2022-07-13T11:26:11.000Z</Time>
            <Position>
              <LatitudeDegrees>43.46477488987147808074951171875</LatitudeDegrees>
              <LongitudeDegrees>-3.5384494252502918243408203125</LongitudeDegrees>
            </Position>
            <AltitudeMeters>27.3999996185302734375</AltitudeMeters>
            <DistanceMeters>NAN</DistanceMeters>
          </Trackpoint>
          <Trackpoint>
            <Time>2022-07-13T11:26:15.000Z</Time>
            <Position>
              <LatitudeDegrees>43.46470649354159832000732421875</LatitudeDegrees>
              <LongitudeDegrees>-3.538582026958465576171875</LongitudeDegrees>
            </Position>
            <AltitudeMeters>27.3999996185302734375</AltitudeMeters>
            <DistanceMeters>NAN</DistanceMeters>
          </Trackpoint>
          <Trackpoint>
            <Time>2022-07-13T11:26:25.000Z</Time>
            <Position>
              <LatitudeDegrees>43.464580513536930084228515625</LatitudeDegrees>
              <LongitudeDegrees>-3.53880154900252819061279296875</LongitudeDegrees>
            </Position>
            <AltitudeMeters>27.200000762939453125</AltitudeMeters>
            <DistanceMeters>NAN</DistanceMeters>
          </Trackpoint>
          <Trackpoint>
            <Time>2022-07-13T11:26:26.000Z</Time>
            <Position>
              <LatitudeDegrees>43.46456073224544525146484375</LatitudeDegrees>
              <LongitudeDegrees>-3.53882434777915477752685546875</LongitudeDegrees>
            </Position>
            <AltitudeMeters>27.200000762939453125</AltitudeMeters>
            <DistanceMeters>NAN</DistanceMeters>
          </Trackpoint>
          <Trackpoint>
            <Time>2022-07-13T11:26:30.000Z</Time>
            <Position>
              <LatitudeDegrees>43.46446509473025798797607421875</LatitudeDegrees>
              <LongitudeDegrees>-3.53890632279217243194580078125</LongitudeDegrees>
            </Position>
            <AltitudeMeters>26.799999237060546875</AltitudeMeters>
            <DistanceMeters>NAN</DistanceMeters>
          </Trackpoint>
          <Trackpoint>
            <Time>2022-07-13T11:26:34.000Z</Time>
            <Position>
              <LatitudeDegrees>43.46440340392291545867919921875</LatitudeDegrees>
              <LongitudeDegrees>-3.538988046348094940185546875</LongitudeDegrees>
            </Position>
            <AltitudeMeters>26.6000003814697265625</AltitudeMeters>
            <DistanceMeters>NAN</DistanceMeters>
          </Trackpoint>
          <Trackpoint>
            <Time>2022-07-13T11:26:37.000Z</Time>
            <Position>
              <LatitudeDegrees>43.46431807614862918853759765625</LatitudeDegrees>
              <LongitudeDegrees>-3.53909122757613658905029296875</LongitudeDegrees>
            </Position>
            <AltitudeMeters>26</AltitudeMeters>
            <DistanceMeters>NAN</DistanceMeters>
          </Trackpoint>
          <Trackpoint>
            <Time>2022-07-13T11:26:38.000Z</Time>
            <Position>
              <LatitudeDegrees>43.46430131234228610992431640625</LatitudeDegrees>
              <LongitudeDegrees>-3.53912123478949069976806640625</LongitudeDegrees>
            </Position>
            <AltitudeMeters>26</AltitudeMeters>
            <DistanceMeters>NAN</DistanceMeters>
          </Trackpoint>
          <Trackpoint>
            <Time>2022-07-13T11:26:46.000Z</Time>
            <Position>
              <LatitudeDegrees>43.46413987688720226287841796875</LatitudeDegrees>
              <LongitudeDegrees>-3.53939867578446865081787109375</LongitudeDegrees>
            </Position>
            <AltitudeMeters>25</AltitudeMeters>
            <DistanceMeters>NAN</DistanceMeters>
          </Trackpoint>
          <Trackpoint>
            <Time>2022-07-13T11:26:47.000Z</Time>
            <Position>
              <LatitudeDegrees>43.464123196899890899658203125</LatitudeDegrees>
              <LongitudeDegrees>-3.53944209404289722442626953125</LongitudeDegrees>
            </Position>
            <AltitudeMeters>25</AltitudeMeters>
            <DistanceMeters>NAN</DistanceMeters>
          </Trackpoint>
          <Trackpoint>
            <Time>2022-07-13T11:26:51.000Z</Time>
            <Position>
              <LatitudeDegrees>43.46406024880707263946533203125</LatitudeDegrees>
              <LongitudeDegrees>-3.53964108042418956756591796875</LongitudeDegrees>
            </Position>
            <AltitudeMeters>24.6000003814697265625</AltitudeMeters>
            <DistanceMeters>NAN</DistanceMeters>
          </Trackpoint>
          <Trackpoint>
            <Time>2022-07-13T11:26:52.000Z</Time>
            <Position>
              <LatitudeDegrees>43.46404784359037876129150390625</LatitudeDegrees>
              <LongitudeDegrees>-3.53969472460448741912841796875</LongitudeDegrees>
            </Position>
            <AltitudeMeters>24.6000003814697265625</AltitudeMeters>
            <DistanceMeters>NAN</DistanceMeters>
          </Trackpoint>
          <Trackpoint>
            <Time>2022-07-13T11:26:57.000Z</Time>
            <Position>
              <LatitudeDegrees>43.4639641083776950836181640625</LatitudeDegrees>
              <LongitudeDegrees>-3.5400091297924518585205078125</LongitudeDegrees>
            </Position>
            <AltitudeMeters>23.799999237060546875</AltitudeMeters>
            <DistanceMeters>NAN</DistanceMeters>
          </Trackpoint>
          <Trackpoint>
            <Time>2022-07-13T11:27:03.000Z</Time>
            <Position>
              <LatitudeDegrees>43.4638709016144275665283203125</LatitudeDegrees>
              <LongitudeDegrees>-3.54037449695169925689697265625</LongitudeDegrees>
            </Position>
            <AltitudeMeters>23</AltitudeMeters>
            <DistanceMeters>NAN</DistanceMeters>
          </Trackpoint>
          <Trackpoint>
            <Time>2022-07-13T11:27:07.000Z</Time>
            <Position>
              <LatitudeDegrees>43.463781215250492095947265625</LatitudeDegrees>
              <LongitudeDegrees>-3.5405509360134601593017578125</LongitudeDegrees>
            </Position>
            <AltitudeMeters>22.799999237060546875</AltitudeMeters>
            <DistanceMeters>NAN</DistanceMeters>
          </Trackpoint>
          <Trackpoint>
            <Time>2022-07-13T11:27:08.000Z</Time>
            <Position>
              <LatitudeDegrees>43.46375866793096065521240234375</LatitudeDegrees>
              <LongitudeDegrees>-3.54058790020644664764404296875</LongitudeDegrees>
            </Position>
            <AltitudeMeters>22.799999237060546875</AltitudeMeters>
            <DistanceMeters>NAN</DistanceMeters>
          </Trackpoint>
          <Trackpoint>
            <Time>2022-07-13T11:27:14.000Z</Time>
            <Position>
              <LatitudeDegrees>43.46364534460008144378662109375</LatitudeDegrees>
              <LongitudeDegrees>-3.54081991128623485565185546875</LongitudeDegrees>
            </Position>
            <AltitudeMeters>22.799999237060546875</AltitudeMeters>
            <DistanceMeters>NAN</DistanceMeters>
          </Trackpoint>
          <Trackpoint>
            <Time>2022-07-13T11:27:20.000Z</Time>
            <Position>
              <LatitudeDegrees>43.46350050531327724456787109375</LatitudeDegrees>
              <LongitudeDegrees>-3.5410045646131038665771484375</LongitudeDegrees>
            </Position>
            <AltitudeMeters>23</AltitudeMeters>
            <DistanceMeters>NAN</DistanceMeters>
          </Trackpoint>
          <Trackpoint>
            <Time>2022-07-13T11:27:28.000Z</Time>
            <Position>
              <LatitudeDegrees>43.4632337093353271484375</LatitudeDegrees>
              <LongitudeDegrees>-3.54118938557803630828857421875</LongitudeDegrees>
            </Position>
            <AltitudeMeters>23</AltitudeMeters>
            <DistanceMeters>NAN</DistanceMeters>
          </Trackpoint>
          <Trackpoint>
            <Time>2022-07-13T11:27:34.000Z</Time>
            <Position>
              <LatitudeDegrees>43.463085182011127471923828125</LatitudeDegrees>
              <LongitudeDegrees>-3.54143296368420124053955078125</LongitudeDegrees>
            </Position>
            <AltitudeMeters>22.799999237060546875</AltitudeMeters>
            <DistanceMeters>NAN</DistanceMeters>
          </Trackpoint>
          <Trackpoint>
            <Time>2022-07-13T11:27:38.000Z</Time>
            <Position>
              <LatitudeDegrees>43.4630642272531986236572265625</LatitudeDegrees>
              <LongitudeDegrees>-3.54165592230856418609619140625</LongitudeDegrees>
            </Position>
            <AltitudeMeters>22.799999237060546875</AltitudeMeters>
            <DistanceMeters>NAN</DistanceMeters>
          </Trackpoint>
          <Trackpoint>
            <Time>2022-07-13T11:27:40.000Z</Time>
            <Position>
              <LatitudeDegrees>43.46307068131864070892333984375</LatitudeDegrees>
              <LongitudeDegrees>-3.54174745269119739532470703125</LongitudeDegrees>
            </Position>
            <AltitudeMeters>23</AltitudeMeters>
            <DistanceMeters>NAN</DistanceMeters>
          </Trackpoint>
          <Trackpoint>
            <Time>2022-07-13T11:27:46.000Z</Time>
            <Position>
              <LatitudeDegrees>43.46307705156505107879638671875</LatitudeDegrees>
              <LongitudeDegrees>-3.5420157574117183685302734375</LongitudeDegrees>
            </Position>
            <AltitudeMeters>23.3999996185302734375</AltitudeMeters>
            <DistanceMeters>NAN</DistanceMeters>
          </Trackpoint>
          <Trackpoint>
            <Time>2022-07-13T11:27:53.000Z</Time>
            <Position>
              <LatitudeDegrees>43.4629767201840877532958984375</LatitudeDegrees>
              <LongitudeDegrees>-3.5422715730965137481689453125</LongitudeDegrees>
            </Position>
            <AltitudeMeters>24</AltitudeMeters>
            <DistanceMeters>NAN</DistanceMeters>
          </Trackpoint>
          <Trackpoint>
            <Time>2022-07-13T11:27:57.000Z</Time>
            <Position>
              <LatitudeDegrees>43.4628756344318389892578125</LatitudeDegrees>
              <LongitudeDegrees>-3.5423848964273929595947265625</LongitudeDegrees>
            </Position>
            <AltitudeMeters>24.200000762939453125</AltitudeMeters>
            <DistanceMeters>NAN</DistanceMeters>
          </Trackpoint>
          <Trackpoint>
            <Time>2022-07-13T11:28:04.000Z</Time>
            <Position>
              <LatitudeDegrees>43.46269366331398487091064453125</LatitudeDegrees>
              <LongitudeDegrees>-3.5426148958504199981689453125</LongitudeDegrees>
            </Position>
            <AltitudeMeters>24</AltitudeMeters>
            <DistanceMeters>NAN</DistanceMeters>
          </Trackpoint>
          <Trackpoint>
            <Time>2022-07-13T11:28:11.000Z</Time>
            <Position>
              <LatitudeDegrees>43.4626092575490474700927734375</LatitudeDegrees>
              <LongitudeDegrees>-3.54293483309447765350341796875</LongitudeDegrees>
            </Position>
            <AltitudeMeters>24.200000762939453125</AltitudeMeters>
            <DistanceMeters>NAN</DistanceMeters>
          </Trackpoint>
          <Trackpoint>
            <Time>2022-07-13T11:28:13.000Z</Time>
            <Position>
              <LatitudeDegrees>43.46258922480046749114990234375</LatitudeDegrees>
              <LongitudeDegrees>-3.5430199094116687774658203125</LongitudeDegrees>
            </Position>
            <AltitudeMeters>24.200000762939453125</AltitudeMeters>
            <DistanceMeters>NAN</DistanceMeters>
          </Trackpoint>
          <Trackpoint>
            <Time>2022-07-13T11:28:15.000Z</Time>
            <Position>
              <LatitudeDegrees>43.46257581375539302825927734375</LatitudeDegrees>
              <LongitudeDegrees>-3.5431074164807796478271484375</LongitudeDegrees>
            </Position>
            <AltitudeMeters>24.200000762939453125</AltitudeMeters>
            <DistanceMeters>NAN</DistanceMeters>
          </Trackpoint>
          <Trackpoint>
            <Time>2022-07-13T11:28:17.000Z</Time>
            <Position>
              <LatitudeDegrees>43.46256340853869915008544921875</LatitudeDegrees>
              <LongitudeDegrees>-3.543184362351894378662109375</LongitudeDegrees>
            </Position>
            <AltitudeMeters>24</AltitudeMeters>
            <DistanceMeters>NAN</DistanceMeters>
          </Trackpoint>
          <Trackpoint>
            <Time>2022-07-13T11:28:19.000Z</Time>
            <Position>
              <LatitudeDegrees>43.46256692893803119659423828125</LatitudeDegrees>
              <LongitudeDegrees>-3.5432485677301883697509765625</LongitudeDegrees>
            </Position>
            <AltitudeMeters>23.799999237060546875</AltitudeMeters>
            <DistanceMeters>NAN</DistanceMeters>
          </Trackpoint>
          <Trackpoint>
            <Time>2022-07-13T11:28:22.000Z</Time>
            <Position>
              <LatitudeDegrees>43.46256910823285579681396484375</LatitudeDegrees>
              <LongitudeDegrees>-3.54331604205071926116943359375</LongitudeDegrees>
            </Position>
            <AltitudeMeters>23.799999237060546875</AltitudeMeters>
            <DistanceMeters>NAN</DistanceMeters>
          </Trackpoint>
          <Trackpoint>
            <Time>2022-07-13T11:28:23.000Z</Time>
            <Position>
              <LatitudeDegrees>43.4625685214996337890625</LatitudeDegrees>
              <LongitudeDegrees>-3.54333330877125263214111328125</LongitudeDegrees>
            </Position>
            <AltitudeMeters>24</AltitudeMeters>
            <DistanceMeters>NAN</DistanceMeters>
          </Trackpoint>
          <Trackpoint>
            <Time>2022-07-13T11:28:25.000Z</Time>
            <Position>
              <LatitudeDegrees>43.462581932544708251953125</LatitudeDegrees>
              <LongitudeDegrees>-3.54334898293018341064453125</LongitudeDegrees>
            </Position>
            <AltitudeMeters>24</AltitudeMeters>
            <DistanceMeters>NAN</DistanceMeters>
          </Trackpoint>
          <Trackpoint>
            <Time>2022-07-13T11:28:26.000Z</Time>
            <Position>
              <LatitudeDegrees>43.462593667209148406982421875</LatitudeDegrees>
              <LongitudeDegrees>-3.54334495961666107177734375</LongitudeDegrees>
            </Position>
            <AltitudeMeters>24</AltitudeMeters>
            <DistanceMeters>NAN</DistanceMeters>
          </Trackpoint>
          <Trackpoint>
            <Time>2022-07-13T11:28:28.000Z</Time>
            <Position>
              <LatitudeDegrees>43.462592326104640960693359375</LatitudeDegrees>
              <LongitudeDegrees>-3.5433176346123218536376953125</LongitudeDegrees>
            </Position>
            <AltitudeMeters>24</AltitudeMeters>
            <DistanceMeters>NAN</DistanceMeters>
          </Trackpoint>
          <Trackpoint>
            <Time>2022-07-13T11:28:30.000Z</Time>
            <Position>
              <LatitudeDegrees>43.46258067525923252105712890625</LatitudeDegrees>
              <LongitudeDegrees>-3.5432706959545612335205078125</LongitudeDegrees>
            </Position>
            <AltitudeMeters>24</AltitudeMeters>
            <DistanceMeters>NAN</DistanceMeters>
          </Trackpoint>
          <Trackpoint>
            <Time>2022-07-13T11:28:33.000Z</Time>
            <Position>
              <LatitudeDegrees>43.4625381790101528167724609375</LatitudeDegrees>
              <LongitudeDegrees>-3.54317690245807170867919921875</LongitudeDegrees>
            </Position>
            <AltitudeMeters>24</AltitudeMeters>
            <DistanceMeters>NAN</DistanceMeters>
          </Trackpoint>
          <Trackpoint>
            <Time>2022-07-13T11:28:34.000Z</Time>
            <Position>
              <LatitudeDegrees>43.46251110546290874481201171875</LatitudeDegrees>
              <LongitudeDegrees>-3.543164245784282684326171875</LongitudeDegrees>
            </Position>
            <AltitudeMeters>23.799999237060546875</AltitudeMeters>
            <DistanceMeters>NAN</DistanceMeters>
          </Trackpoint>
          <Trackpoint>
            <Time>2022-07-13T11:28:38.000Z</Time>
            <Position>
              <LatitudeDegrees>43.4623859636485576629638671875</LatitudeDegrees>
              <LongitudeDegrees>-3.543196432292461395263671875</LongitudeDegrees>
            </Position>
            <AltitudeMeters>23</AltitudeMeters>
            <DistanceMeters>NAN</DistanceMeters>
          </Trackpoint>
          <Trackpoint>
            <Time>2022-07-13T11:28:42.000Z</Time>
            <Position>
              <LatitudeDegrees>43.46224707551300525665283203125</LatitudeDegrees>
              <LongitudeDegrees>-3.543171621859073638916015625</LongitudeDegrees>
            </Position>
            <AltitudeMeters>22.799999237060546875</AltitudeMeters>
            <DistanceMeters>NAN</DistanceMeters>
          </Trackpoint>
          <Trackpoint>
            <Time>2022-07-13T11:28:46.000Z</Time>
            <Position>
              <LatitudeDegrees>43.46211581490933895111083984375</LatitudeDegrees>
              <LongitudeDegrees>-3.54314136318862438201904296875</LongitudeDegrees>
            </Position>
            <AltitudeMeters>22.799999237060546875</AltitudeMeters>
            <DistanceMeters>NAN</DistanceMeters>
          </Trackpoint>
          <Trackpoint>
            <Time>2022-07-13T11:28:48.000Z</Time>
            <Position>
              <LatitudeDegrees>43.46205462701618671417236328125</LatitudeDegrees>
              <LongitudeDegrees>-3.54311319999396800994873046875</LongitudeDegrees>
            </Position>
            <AltitudeMeters>22.799999237060546875</AltitudeMeters>
            <DistanceMeters>NAN</DistanceMeters>
          </Trackpoint>
          <Trackpoint>
            <Time>2022-07-13T11:28:51.000Z</Time>
            <Position>
              <LatitudeDegrees>43.46196192316710948944091796875</LatitudeDegrees>
              <LongitudeDegrees>-3.54307003319263458251953125</LongitudeDegrees>
            </Position>
            <AltitudeMeters>22.6000003814697265625</AltitudeMeters>
            <DistanceMeters>NAN</DistanceMeters>
          </Trackpoint>
          <Trackpoint>
            <Time>2022-07-13T11:28:55.000Z</Time>
            <Position>
              <LatitudeDegrees>43.4618371166288852691650390625</LatitudeDegrees>
              <LongitudeDegrees>-3.5430628247559070587158203125</LongitudeDegrees>
            </Position>
            <AltitudeMeters>22.3999996185302734375</AltitudeMeters>
            <DistanceMeters>NAN</DistanceMeters>
          </Trackpoint>
          <Trackpoint>
            <Time>2022-07-13T11:29:01.000Z</Time>
            <Position>
              <LatitudeDegrees>43.46164525486528873443603515625</LatitudeDegrees>
              <LongitudeDegrees>-3.54316055774688720703125</LongitudeDegrees>
            </Position>
            <AltitudeMeters>22.3999996185302734375</AltitudeMeters>
            <DistanceMeters>NAN</DistanceMeters>
          </Trackpoint>
          <Trackpoint>
            <Time>2022-07-13T11:29:08.000Z</Time>
            <Position>
              <LatitudeDegrees>43.46146278083324432373046875</LatitudeDegrees>
              <LongitudeDegrees>-3.5433491505682468414306640625</LongitudeDegrees>
            </Position>
            <AltitudeMeters>23</AltitudeMeters>
            <DistanceMeters>NAN</DistanceMeters>
          </Trackpoint>
          <Trackpoint>
            <Time>2022-07-13T11:29:09.000Z</Time>
            <Position>
              <LatitudeDegrees>43.46143956296145915985107421875</LatitudeDegrees>
              <LongitudeDegrees>-3.5433850251138210296630859375</LongitudeDegrees>
            </Position>
            <AltitudeMeters>23</AltitudeMeters>
            <DistanceMeters>NAN</DistanceMeters>
          </Trackpoint>
          <Trackpoint>
            <Time>2022-07-13T11:29:13.000Z</Time>
            <Position>
              <LatitudeDegrees>43.4613744355738162994384765625</LatitudeDegrees>
              <LongitudeDegrees>-3.54353313334286212921142578125</LongitudeDegrees>
            </Position>
            <AltitudeMeters>23.3999996185302734375</AltitudeMeters>
            <DistanceMeters>NAN</DistanceMeters>
          </Trackpoint>
          <Trackpoint>
            <Time>2022-07-13T11:29:15.000Z</Time>
            <Position>
              <LatitudeDegrees>43.4613521397113800048828125</LatitudeDegrees>
              <LongitudeDegrees>-3.54362122714519500732421875</LongitudeDegrees>
            </Position>
            <AltitudeMeters>23.3999996185302734375</AltitudeMeters>
            <DistanceMeters>NAN</DistanceMeters>
          </Trackpoint>
          <Trackpoint>
            <Time>2022-07-13T11:29:18.000Z</Time>
            <Position>
              <LatitudeDegrees>43.4613191150128841400146484375</LatitudeDegrees>
              <LongitudeDegrees>-3.5437561757862567901611328125</LongitudeDegrees>
            </Position>
            <AltitudeMeters>23.799999237060546875</AltitudeMeters>
            <DistanceMeters>NAN</DistanceMeters>
          </Trackpoint>
          <Trackpoint>
            <Time>2022-07-13T11:29:21.000Z</Time>
            <Position>
              <LatitudeDegrees>43.46133713610470294952392578125</LatitudeDegrees>
              <LongitudeDegrees>-3.54388802312314510345458984375</LongitudeDegrees>
            </Position>
            <AltitudeMeters>24.200000762939453125</AltitudeMeters>
            <DistanceMeters>NAN</DistanceMeters>
          </Trackpoint>
          <Trackpoint>
            <Time>2022-07-13T11:29:25.000Z</Time>
            <Position>
              <LatitudeDegrees>43.46141173504292964935302734375</LatitudeDegrees>
              <LongitudeDegrees>-3.5440247319638729095458984375</LongitudeDegrees>
            </Position>
            <AltitudeMeters>24.6000003814697265625</AltitudeMeters>
            <DistanceMeters>NAN</DistanceMeters>
          </Trackpoint>
          <Trackpoint>
            <Time>2022-07-13T11:29:28.000Z</Time>
            <Position>
              <LatitudeDegrees>43.46147476695477962493896484375</LatitudeDegrees>
              <LongitudeDegrees>-3.54412288405001163482666015625</LongitudeDegrees>
            </Position>
            <AltitudeMeters>24.799999237060546875</AltitudeMeters>
            <DistanceMeters>NAN</DistanceMeters>
          </Trackpoint>
          <Trackpoint>
            <Time>2022-07-13T11:29:33.000Z</Time>
            <Position>
              <LatitudeDegrees>43.4615511260926723480224609375</LatitudeDegrees>
              <LongitudeDegrees>-3.54432824067771434783935546875</LongitudeDegrees>
            </Position>
            <AltitudeMeters>24.799999237060546875</AltitudeMeters>
            <DistanceMeters>NAN</DistanceMeters>
          </Trackpoint>
          <Trackpoint>
            <Time>2022-07-13T11:29:34.000Z</Time>
            <Position>
              <LatitudeDegrees>43.46155858598649501800537109375</LatitudeDegrees>
              <LongitudeDegrees>-3.544370569288730621337890625</LongitudeDegrees>
            </Position>
            <AltitudeMeters>24.799999237060546875</AltitudeMeters>
            <DistanceMeters>NAN</DistanceMeters>
          </Trackpoint>
          <Trackpoint>
            <Time>2022-07-13T11:29:41.000Z</Time>
            <Position>
              <LatitudeDegrees>43.461545594036579132080078125</LatitudeDegrees>
              <LongitudeDegrees>-3.5446617566049098968505859375</LongitudeDegrees>
            </Position>
            <AltitudeMeters>25.200000762939453125</AltitudeMeters>
            <DistanceMeters>NAN</DistanceMeters>
          </Trackpoint>
          <Trackpoint>
            <Time>2022-07-13T11:29:42.000Z</Time>
            <Position>
              <LatitudeDegrees>43.4615410678088665008544921875</LatitudeDegrees>
              <LongitudeDegrees>-3.54469721205532550811767578125</LongitudeDegrees>
            </Position>
            <AltitudeMeters>25.3999996185302734375</AltitudeMeters>
            <DistanceMeters>NAN</DistanceMeters>
          </Trackpoint>
          <Trackpoint>
            <Time>2022-07-13T11:29:45.000Z</Time>
            <Position>
              <LatitudeDegrees>43.4615343622863292694091796875</LatitudeDegrees>
              <LongitudeDegrees>-3.54480785317718982696533203125</LongitudeDegrees>
            </Position>
            <AltitudeMeters>25.6000003814697265625</AltitudeMeters>
            <DistanceMeters>NAN</DistanceMeters>
          </Trackpoint>
          <Trackpoint>
            <Time>2022-07-13T11:29:46.000Z</Time>
            <Position>
              <LatitudeDegrees>43.46153511665761470794677734375</LatitudeDegrees>
              <LongitudeDegrees>-3.5448391176760196685791015625</LongitudeDegrees>
            </Position>
            <AltitudeMeters>26</AltitudeMeters>
            <DistanceMeters>NAN</DistanceMeters>
          </Trackpoint>
          <Trackpoint>
            <Time>2022-07-13T11:29:49.000Z</Time>
            <Position>
              <LatitudeDegrees>43.46153947524726390838623046875</LatitudeDegrees>
              <LongitudeDegrees>-3.54492209851741790771484375</LongitudeDegrees>
            </Position>
            <AltitudeMeters>26.200000762939453125</AltitudeMeters>
            <DistanceMeters>NAN</DistanceMeters>
          </Trackpoint>
          <Trackpoint>
            <Time>2022-07-13T11:29:58.000Z</Time>
            <Position>
              <LatitudeDegrees>43.46153511665761470794677734375</LatitudeDegrees>
              <LongitudeDegrees>-3.54519694112241268157958984375</LongitudeDegrees>
            </Position>
            <AltitudeMeters>27</AltitudeMeters>
            <DistanceMeters>NAN</DistanceMeters>
          </Trackpoint>
          <Trackpoint>
            <Time>2022-07-13T11:30:08.000Z</Time>
            <Position>
              <LatitudeDegrees>43.46151600591838359832763671875</LatitudeDegrees>
              <LongitudeDegrees>-3.54549885727465152740478515625</LongitudeDegrees>
            </Position>
            <AltitudeMeters>27.3999996185302734375</AltitudeMeters>
            <DistanceMeters>NAN</DistanceMeters>
          </Trackpoint>
          <Trackpoint>
            <Time>2022-07-13T11:30:16.000Z</Time>
            <Position>
              <LatitudeDegrees>43.4615232981741428375244140625</LatitudeDegrees>
              <LongitudeDegrees>-3.5457359813153743743896484375</LongitudeDegrees>
            </Position>
            <AltitudeMeters>28</AltitudeMeters>
            <DistanceMeters>NAN</DistanceMeters>
          </Trackpoint>
          <Trackpoint>
            <Time>2022-07-13T11:30:22.000Z</Time>
            <Position>
              <LatitudeDegrees>43.461493290960788726806640625</LatitudeDegrees>
              <LongitudeDegrees>-3.545900769531726837158203125</LongitudeDegrees>
            </Position>
            <AltitudeMeters>29</AltitudeMeters>
            <DistanceMeters>NAN</DistanceMeters>
          </Trackpoint>
          <Trackpoint>
            <Time>2022-07-13T11:30:23.000Z</Time>
            <Position>
              <LatitudeDegrees>43.461492955684661865234375</LatitudeDegrees>
              <LongitudeDegrees>-3.54592331685125827789306640625</LongitudeDegrees>
            </Position>
            <AltitudeMeters>29.200000762939453125</AltitudeMeters>
            <DistanceMeters>NAN</DistanceMeters>
          </Trackpoint>
          <Trackpoint>
            <Time>2022-07-13T11:30:32.000Z</Time>
            <Position>
              <LatitudeDegrees>43.46146571449935436248779296875</LatitudeDegrees>
              <LongitudeDegrees>-3.5461364686489105224609375</LongitudeDegrees>
            </Position>
            <AltitudeMeters>29.6000003814697265625</AltitudeMeters>
            <DistanceMeters>NAN</DistanceMeters>
          </Trackpoint>
          <Trackpoint>
            <Time>2022-07-13T11:30:33.000Z</Time>
            <Position>
              <LatitudeDegrees>43.4614595957100391387939453125</LatitudeDegrees>
              <LongitudeDegrees>-3.54615465737879276275634765625</LongitudeDegrees>
            </Position>
            <AltitudeMeters>29.6000003814697265625</AltitudeMeters>
            <DistanceMeters>NAN</DistanceMeters>
          </Trackpoint>
          <Trackpoint>
            <Time>2022-07-13T11:30:35.000Z</Time>
            <Position>
              <LatitudeDegrees>43.46145213581621646881103515625</LatitudeDegrees>
              <LongitudeDegrees>-3.546183407306671142578125</LongitudeDegrees>
            </Position>
            <AltitudeMeters>30</AltitudeMeters>
            <DistanceMeters>NAN</DistanceMeters>
          </Trackpoint>
          <Trackpoint>
            <Time>2022-07-13T11:30:36.000Z</Time>
            <Position>
              <LatitudeDegrees>43.46144844777882099151611328125</LatitudeDegrees>
              <LongitudeDegrees>-3.546197824180126190185546875</LongitudeDegrees>
            </Position>
            <AltitudeMeters>30.3999996185302734375</AltitudeMeters>
            <DistanceMeters>NAN</DistanceMeters>
          </Trackpoint>
          <Trackpoint>
            <Time>2022-07-13T11:30:37.000Z</Time>
            <Position>
              <LatitudeDegrees>43.46143336035311222076416015625</LatitudeDegrees>
              <LongitudeDegrees>-3.54622120968997478485107421875</LongitudeDegrees>
            </Position>
            <AltitudeMeters>30.3999996185302734375</AltitudeMeters>
            <DistanceMeters>NAN</DistanceMeters>
          </Trackpoint>
          <Trackpoint>
            <Time>2022-07-13T11:30:39.000Z</Time>
            <Position>
              <LatitudeDegrees>43.461406789720058441162109375</LatitudeDegrees>
              <LongitudeDegrees>-3.54626052081584930419921875</LongitudeDegrees>
            </Position>
            <AltitudeMeters>30.6000003814697265625</AltitudeMeters>
            <DistanceMeters>NAN</DistanceMeters>
          </Trackpoint>
          <Trackpoint>
            <Time>2022-07-13T11:30:44.000Z</Time>
            <Position>
              <LatitudeDegrees>43.46133177168667316436767578125</LatitudeDegrees>
              <LongitudeDegrees>-3.54635045863687992095947265625</LongitudeDegrees>
            </Position>
            <AltitudeMeters>31</AltitudeMeters>
            <DistanceMeters>NAN</DistanceMeters>
          </Trackpoint>
          <Trackpoint>
            <Time>2022-07-13T11:30:47.000Z</Time>
            <Position>
              <LatitudeDegrees>43.4612916223704814910888671875</LatitudeDegrees>
              <LongitudeDegrees>-3.546429835259914398193359375</LongitudeDegrees>
            </Position>
            <AltitudeMeters>31.3999996185302734375</AltitudeMeters>
            <DistanceMeters>NAN</DistanceMeters>
          </Trackpoint>
          <Trackpoint>
            <Time>2022-07-13T11:30:52.000Z</Time>
            <Position>
              <LatitudeDegrees>43.461232446134090423583984375</LatitudeDegrees>
              <LongitudeDegrees>-3.5465624369680881500244140625</LongitudeDegrees>
            </Position>
            <AltitudeMeters>31.799999237060546875</AltitudeMeters>
            <DistanceMeters>NAN</DistanceMeters>
          </Trackpoint>
          <Trackpoint>
            <Time>2022-07-13T11:30:57.000Z</Time>
            <Position>
              <LatitudeDegrees>43.4611912071704864501953125</LatitudeDegrees>
              <LongitudeDegrees>-3.5467149876058101654052734375</LongitudeDegrees>
            </Position>
            <AltitudeMeters>31.799999237060546875</AltitudeMeters>
            <DistanceMeters>NAN</DistanceMeters>
          </Trackpoint>
          <Trackpoint>
            <Time>2022-07-13T11:31:02.000Z</Time>
            <Position>
              <LatitudeDegrees>43.461101017892360687255859375</LatitudeDegrees>
              <LongitudeDegrees>-3.54690751992166042327880859375</LongitudeDegrees>
            </Position>
            <AltitudeMeters>31.6000003814697265625</AltitudeMeters>
            <DistanceMeters>NAN</DistanceMeters>
          </Trackpoint>
          <Trackpoint>
            <Time>2022-07-13T11:31:06.000Z</Time>
            <Position>
              <LatitudeDegrees>43.4610374830663204193115234375</LatitudeDegrees>
              <LongitudeDegrees>-3.54708538390696048736572265625</LongitudeDegrees>
            </Position>
            <AltitudeMeters>31.6000003814697265625</AltitudeMeters>
            <DistanceMeters>NAN</DistanceMeters>
          </Trackpoint>
          <Trackpoint>
            <Time>2022-07-13T11:31:10.000Z</Time>
            <Position>
              <LatitudeDegrees>43.46101057715713977813720703125</LatitudeDegrees>
              <LongitudeDegrees>-3.547264672815799713134765625</LongitudeDegrees>
            </Position>
            <AltitudeMeters>31.6000003814697265625</AltitudeMeters>
            <DistanceMeters>NAN</DistanceMeters>
          </Trackpoint>
          <Trackpoint>
            <Time>2022-07-13T11:31:13.000Z</Time>
            <Position>
              <LatitudeDegrees>43.46101644448935985565185546875</LatitudeDegrees>
              <LongitudeDegrees>-3.54739182628691196441650390625</LongitudeDegrees>
            </Position>
            <AltitudeMeters>32</AltitudeMeters>
            <DistanceMeters>NAN</DistanceMeters>
          </Trackpoint>
          <Trackpoint>
            <Time>2022-07-13T11:31:15.000Z</Time>
            <Position>
              <LatitudeDegrees>43.4610302746295928955078125</LatitudeDegrees>
              <LongitudeDegrees>-3.5474599711596965789794921875</LongitudeDegrees>
            </Position>
            <AltitudeMeters>32.40000152587890625</AltitudeMeters>
            <DistanceMeters>NAN</DistanceMeters>
          </Trackpoint>
          <Trackpoint>
            <Time>2022-07-13T11:31:20.000Z</Time>
            <Position>
              <LatitudeDegrees>43.46106170676648616790771484375</LatitudeDegrees>
              <LongitudeDegrees>-3.54762978851795196533203125</LongitudeDegrees>
            </Position>
            <AltitudeMeters>33</AltitudeMeters>
            <DistanceMeters>NAN</DistanceMeters>
          </Trackpoint>
          <Trackpoint>
            <Time>2022-07-13T11:31:21.000Z</Time>
            <Position>
              <LatitudeDegrees>43.46107176505029201507568359375</LatitudeDegrees>
              <LongitudeDegrees>-3.5476631484925746917724609375</LongitudeDegrees>
            </Position>
            <AltitudeMeters>33</AltitudeMeters>
            <DistanceMeters>NAN</DistanceMeters>
          </Trackpoint>
          <Trackpoint>
            <Time>2022-07-13T11:31:25.000Z</Time>
            <Position>
              <LatitudeDegrees>43.46109858714044094085693359375</LatitudeDegrees>
              <LongitudeDegrees>-3.54779449291527271270751953125</LongitudeDegrees>
            </Position>
            <AltitudeMeters>33.40000152587890625</AltitudeMeters>
            <DistanceMeters>NAN</DistanceMeters>
          </Trackpoint>
          <Trackpoint>
            <Time>2022-07-13T11:31:31.000Z</Time>
            <Position>
              <LatitudeDegrees>43.46112591214478015899658203125</LatitudeDegrees>
              <LongitudeDegrees>-3.547977469861507415771484375</LongitudeDegrees>
            </Position>
            <AltitudeMeters>34.200000762939453125</AltitudeMeters>
            <DistanceMeters>NAN</DistanceMeters>
          </Trackpoint>
          <Trackpoint>
            <Time>2022-07-13T11:31:33.000Z</Time>
            <Position>
              <LatitudeDegrees>43.46114234067499637603759765625</LatitudeDegrees>
              <LongitudeDegrees>-3.54803455062210559844970703125</LongitudeDegrees>
            </Position>
            <AltitudeMeters>34.40000152587890625</AltitudeMeters>
            <DistanceMeters>NAN</DistanceMeters>
          </Trackpoint>
          <Trackpoint>
            <Time>2022-07-13T11:31:38.000Z</Time>
            <Position>
              <LatitudeDegrees>43.46117905341088771820068359375</LatitudeDegrees>
              <LongitudeDegrees>-3.5481722652912139892578125</LongitudeDegrees>
            </Position>
            <AltitudeMeters>34.799999237060546875</AltitudeMeters>
            <DistanceMeters>NAN</DistanceMeters>
          </Trackpoint>
          <Trackpoint>
            <Time>2022-07-13T11:31:44.000Z</Time>
            <Position>
              <LatitudeDegrees>43.46123722381889820098876953125</LatitudeDegrees>
              <LongitudeDegrees>-3.54833076708018779754638671875</LongitudeDegrees>
            </Position>
            <AltitudeMeters>34.799999237060546875</AltitudeMeters>
            <DistanceMeters>NAN</DistanceMeters>
          </Trackpoint>
          <Trackpoint>
            <Time>2022-07-13T11:31:46.000Z</Time>
            <Position>
              <LatitudeDegrees>43.4612544067203998565673828125</LatitudeDegrees>
              <LongitudeDegrees>-3.54838508181273937225341796875</LongitudeDegrees>
            </Position>
            <AltitudeMeters>34.799999237060546875</AltitudeMeters>
            <DistanceMeters>NAN</DistanceMeters>
          </Trackpoint>
          <Trackpoint>
            <Time>2022-07-13T11:31:51.000Z</Time>
            <Position>
              <LatitudeDegrees>43.46131634898483753204345703125</LatitudeDegrees>
              <LongitudeDegrees>-3.54848868213593959808349609375</LongitudeDegrees>
            </Position>
            <AltitudeMeters>35.40000152587890625</AltitudeMeters>
            <DistanceMeters>NAN</DistanceMeters>
          </Trackpoint>
          <Trackpoint>
            <Time>2022-07-13T11:31:53.000Z</Time>
            <Position>
              <LatitudeDegrees>43.46133545972406864166259765625</LatitudeDegrees>
              <LongitudeDegrees>-3.5485422424972057342529296875</LongitudeDegrees>
            </Position>
            <AltitudeMeters>35.799999237060546875</AltitudeMeters>
            <DistanceMeters>NAN</DistanceMeters>
          </Trackpoint>
          <Trackpoint>
            <Time>2022-07-13T11:32:01.000Z</Time>
            <Position>
              <LatitudeDegrees>43.4613449312746524810791015625</LatitudeDegrees>
              <LongitudeDegrees>-3.5487393848598003387451171875</LongitudeDegrees>
            </Position>
            <AltitudeMeters>36.799999237060546875</AltitudeMeters>
            <DistanceMeters>NAN</DistanceMeters>
          </Trackpoint>
          <Trackpoint>
            <Time>2022-07-13T11:32:11.000Z</Time>
            <Position>
              <LatitudeDegrees>43.46135943196713924407958984375</LatitudeDegrees>
              <LongitudeDegrees>-3.54905898682773113250732421875</LongitudeDegrees>
            </Position>
            <AltitudeMeters>36.59999847412109375</AltitudeMeters>
            <DistanceMeters>NAN</DistanceMeters>
          </Trackpoint>
          <Trackpoint>
            <Time>2022-07-13T11:32:18.000Z</Time>
            <Position>
              <LatitudeDegrees>43.46135071478784084320068359375</LatitudeDegrees>
              <LongitudeDegrees>-3.549226708710193634033203125</LongitudeDegrees>
            </Position>
            <AltitudeMeters>37.59999847412109375</AltitudeMeters>
            <DistanceMeters>NAN</DistanceMeters>
          </Trackpoint>
          <Trackpoint>
            <Time>2022-07-13T11:32:21.000Z</Time>
            <Position>
              <LatitudeDegrees>43.4613274969160556793212890625</LatitudeDegrees>
              <LongitudeDegrees>-3.54930373840034008026123046875</LongitudeDegrees>
            </Position>
            <AltitudeMeters>38</AltitudeMeters>
            <DistanceMeters>NAN</DistanceMeters>
          </Trackpoint>
          <Trackpoint>
            <Time>2022-07-13T11:32:22.000Z</Time>
            <Position>
              <LatitudeDegrees>43.4613164328038692474365234375</LatitudeDegrees>
              <LongitudeDegrees>-3.5493256151676177978515625</LongitudeDegrees>
            </Position>
            <AltitudeMeters>38</AltitudeMeters>
            <DistanceMeters>NAN</DistanceMeters>
          </Trackpoint>
          <Trackpoint>
            <Time>2022-07-13T11:32:24.000Z</Time>
            <Position>
              <LatitudeDegrees>43.46129355020821094512939453125</LatitudeDegrees>
              <LongitudeDegrees>-3.54939979501068592071533203125</LongitudeDegrees>
            </Position>
            <AltitudeMeters>38</AltitudeMeters>
            <DistanceMeters>NAN</DistanceMeters>
          </Trackpoint>
          <Trackpoint>
            <Time>2022-07-13T11:32:30.000Z</Time>
            <Position>
              <LatitudeDegrees>43.46115407533943653106689453125</LatitudeDegrees>
              <LongitudeDegrees>-3.5495081730186939239501953125</LongitudeDegrees>
            </Position>
            <AltitudeMeters>39</AltitudeMeters>
            <DistanceMeters>NAN</DistanceMeters>
          </Trackpoint>
          <Trackpoint>
            <Time>2022-07-13T11:32:31.000Z</Time>
            <Position>
              <LatitudeDegrees>43.461130522191524505615234375</LatitudeDegrees>
              <LongitudeDegrees>-3.54952250607311725616455078125</LongitudeDegrees>
            </Position>
            <AltitudeMeters>39</AltitudeMeters>
            <DistanceMeters>NAN</DistanceMeters>
          </Trackpoint>
          <Trackpoint>
            <Time>2022-07-13T11:32:40.000Z</Time>
            <Position>
              <LatitudeDegrees>43.46090965904295444488525390625</LatitudeDegrees>
              <LongitudeDegrees>-3.54968410916626453399658203125</LongitudeDegrees>
            </Position>
            <AltitudeMeters>39.40000152587890625</AltitudeMeters>
            <DistanceMeters>NAN</DistanceMeters>
          </Trackpoint>
          <Trackpoint>
            <Time>2022-07-13T11:32:45.000Z</Time>
            <Position>
              <LatitudeDegrees>43.46077957190573215484619140625</LatitudeDegrees>
              <LongitudeDegrees>-3.54980983771383762359619140625</LongitudeDegrees>
            </Position>
            <AltitudeMeters>39.200000762939453125</AltitudeMeters>
            <DistanceMeters>NAN</DistanceMeters>
          </Trackpoint>
          <Trackpoint>
            <Time>2022-07-13T11:32:49.000Z</Time>
            <Position>
              <LatitudeDegrees>43.46068116836249828338623046875</LatitudeDegrees>
              <LongitudeDegrees>-3.54991192929446697235107421875</LongitudeDegrees>
            </Position>
            <AltitudeMeters>39.200000762939453125</AltitudeMeters>
            <DistanceMeters>NAN</DistanceMeters>
          </Trackpoint>
          <Trackpoint>
            <Time>2022-07-13T11:32:51.000Z</Time>
            <Position>
              <LatitudeDegrees>43.46063959412276744842529296875</LatitudeDegrees>
              <LongitudeDegrees>-3.54996926151216030120849609375</LongitudeDegrees>
            </Position>
            <AltitudeMeters>39.200000762939453125</AltitudeMeters>
            <DistanceMeters>NAN</DistanceMeters>
          </Trackpoint>
          <Trackpoint>
            <Time>2022-07-13T11:32:54.000Z</Time>
            <Position>
              <LatitudeDegrees>43.460593409836292266845703125</LatitudeDegrees>
              <LongitudeDegrees>-3.55007336474955081939697265625</LongitudeDegrees>
            </Position>
            <AltitudeMeters>39.59999847412109375</AltitudeMeters>
            <DistanceMeters>NAN</DistanceMeters>
          </Trackpoint>
          <Trackpoint>
            <Time>2022-07-13T11:32:57.000Z</Time>
            <Position>
              <LatitudeDegrees>43.46054387278854846954345703125</LatitudeDegrees>
              <LongitudeDegrees>-3.55017964728176593780517578125</LongitudeDegrees>
            </Position>
            <AltitudeMeters>39.40000152587890625</AltitudeMeters>
            <DistanceMeters>NAN</DistanceMeters>
          </Trackpoint>
          <Trackpoint>
            <Time>2022-07-13T11:33:03.000Z</Time>
            <Position>
              <LatitudeDegrees>43.460413701832294464111328125</LatitudeDegrees>
              <LongitudeDegrees>-3.5504140891134738922119140625</LongitudeDegrees>
            </Position>
            <AltitudeMeters>39.59999847412109375</AltitudeMeters>
            <DistanceMeters>NAN</DistanceMeters>
          </Trackpoint>
          <Trackpoint>
            <Time>2022-07-13T11:33:05.000Z</Time>
            <Position>
              <LatitudeDegrees>43.46038855612277984619140625</LatitudeDegrees>
              <LongitudeDegrees>-3.55045725591480731964111328125</LongitudeDegrees>
            </Position>
            <AltitudeMeters>39.59999847412109375</AltitudeMeters>
            <DistanceMeters>NAN</DistanceMeters>
          </Trackpoint>
          <Trackpoint>
            <Time>2022-07-13T11:33:12.000Z</Time>
            <Position>
              <LatitudeDegrees>43.46022100187838077545166015625</LatitudeDegrees>
              <LongitudeDegrees>-3.55081491172313690185546875</LongitudeDegrees>
            </Position>
            <AltitudeMeters>39.40000152587890625</AltitudeMeters>
            <DistanceMeters>NAN</DistanceMeters>
          </Trackpoint>
          <Trackpoint>
            <Time>2022-07-13T11:33:18.000Z</Time>
            <Position>
              <LatitudeDegrees>43.4601022303104400634765625</LatitudeDegrees>
              <LongitudeDegrees>-3.55110182426869869232177734375</LongitudeDegrees>
            </Position>
            <AltitudeMeters>39.40000152587890625</AltitudeMeters>
            <DistanceMeters>NAN</DistanceMeters>
          </Trackpoint>
          <Trackpoint>
            <Time>2022-07-13T11:33:22.000Z</Time>
            <Position>
              <LatitudeDegrees>43.4600323252379894256591796875</LatitudeDegrees>
              <LongitudeDegrees>-3.55131505988538265228271484375</LongitudeDegrees>
            </Position>
            <AltitudeMeters>39.40000152587890625</AltitudeMeters>
            <DistanceMeters>NAN</DistanceMeters>
          </Trackpoint>
          <Trackpoint>
            <Time>2022-07-13T11:33:25.000Z</Time>
            <Position>
              <LatitudeDegrees>43.45999603159725666046142578125</LatitudeDegrees>
              <LongitudeDegrees>-3.55148772709071636199951171875</LongitudeDegrees>
            </Position>
            <AltitudeMeters>39.40000152587890625</AltitudeMeters>
            <DistanceMeters>NAN</DistanceMeters>
          </Trackpoint>
          <Trackpoint>
            <Time>2022-07-13T11:33:27.000Z</Time>
            <Position>
              <LatitudeDegrees>43.45997474156320095062255859375</LatitudeDegrees>
              <LongitudeDegrees>-3.5516039840877056121826171875</LongitudeDegrees>
            </Position>
            <AltitudeMeters>39.40000152587890625</AltitudeMeters>
            <DistanceMeters>NAN</DistanceMeters>
          </Trackpoint>
          <Trackpoint>
            <Time>2022-07-13T11:33:29.000Z</Time>
            <Position>
              <LatitudeDegrees>43.45996317453682422637939453125</LatitudeDegrees>
              <LongitudeDegrees>-3.55171470902860164642333984375</LongitudeDegrees>
            </Position>
            <AltitudeMeters>39.200000762939453125</AltitudeMeters>
            <DistanceMeters>NAN</DistanceMeters>
          </Trackpoint>
          <Trackpoint>
            <Time>2022-07-13T11:33:33.000Z</Time>
            <Position>
              <LatitudeDegrees>43.459930904209613800048828125</LatitudeDegrees>
              <LongitudeDegrees>-3.55192802846431732177734375</LongitudeDegrees>
            </Position>
            <AltitudeMeters>39.200000762939453125</AltitudeMeters>
            <DistanceMeters>NAN</DistanceMeters>
          </Trackpoint>
          <Trackpoint>
            <Time>2022-07-13T11:33:38.000Z</Time>
            <Position>
              <LatitudeDegrees>43.45987164415419101715087890625</LatitudeDegrees>
              <LongitudeDegrees>-3.55216934345662593841552734375</LongitudeDegrees>
            </Position>
            <AltitudeMeters>39</AltitudeMeters>
            <DistanceMeters>NAN</DistanceMeters>
          </Trackpoint>
          <Trackpoint>
            <Time>2022-07-13T11:33:44.000Z</Time>
            <Position>
              <LatitudeDegrees>43.45974960364401340484619140625</LatitudeDegrees>
              <LongitudeDegrees>-3.552403785288333892822265625</LongitudeDegrees>
            </Position>
            <AltitudeMeters>39.40000152587890625</AltitudeMeters>
            <DistanceMeters>NAN</DistanceMeters>
          </Trackpoint>
          <Trackpoint>
            <Time>2022-07-13T11:33:49.000Z</Time>
            <Position>
              <LatitudeDegrees>43.459662683308124542236328125</LatitudeDegrees>
              <LongitudeDegrees>-3.55250931344926357269287109375</LongitudeDegrees>
            </Position>
            <AltitudeMeters>39.59999847412109375</AltitudeMeters>
            <DistanceMeters>NAN</DistanceMeters>
          </Trackpoint>
          <Trackpoint>
            <Time>2022-07-13T11:33:52.000Z</Time>
            <Position>
              <LatitudeDegrees>43.45961364917457103729248046875</LatitudeDegrees>
              <LongitudeDegrees>-3.55254636146128177642822265625</LongitudeDegrees>
            </Position>
            <AltitudeMeters>40</AltitudeMeters>
            <DistanceMeters>NAN</DistanceMeters>
          </Trackpoint>
          <Trackpoint>
            <Time>2022-07-13T11:33:54.000Z</Time>
            <Position>
              <LatitudeDegrees>43.4595790319144725799560546875</LatitudeDegrees>
              <LongitudeDegrees>-3.552567400038242340087890625</LongitudeDegrees>
            </Position>
            <AltitudeMeters>40.200000762939453125</AltitudeMeters>
            <DistanceMeters>NAN</DistanceMeters>
          </Trackpoint>
          <Trackpoint>
            <Time>2022-07-13T11:33:56.000Z</Time>
            <Position>
              <LatitudeDegrees>43.45954273827373981475830078125</LatitudeDegrees>
              <LongitudeDegrees>-3.5525910370051860809326171875</LongitudeDegrees>
            </Position>
            <AltitudeMeters>40.799999237060546875</AltitudeMeters>
            <DistanceMeters>NAN</DistanceMeters>
          </Trackpoint>
          <Trackpoint>
            <Time>2022-07-13T11:33:57.000Z</Time>
            <Position>
              <LatitudeDegrees>43.4595253877341747283935546875</LatitudeDegrees>
              <LongitudeDegrees>-3.552601598203182220458984375</LongitudeDegrees>
            </Position>
            <AltitudeMeters>41</AltitudeMeters>
            <DistanceMeters>NAN</DistanceMeters>
          </Trackpoint>
          <Trackpoint>
            <Time>2022-07-13T11:33:59.000Z</Time>
            <Position>
              <LatitudeDegrees>43.459489010274410247802734375</LatitudeDegrees>
              <LongitudeDegrees>-3.552609980106353759765625</LongitudeDegrees>
            </Position>
            <AltitudeMeters>41.799999237060546875</AltitudeMeters>
            <DistanceMeters>NAN</DistanceMeters>
          </Trackpoint>
          <Trackpoint>
            <Time>2022-07-13T11:34:00.000Z</Time>
            <Position>
              <LatitudeDegrees>43.4594734199345111846923828125</LatitudeDegrees>
              <LongitudeDegrees>-3.55261626653373241424560546875</LongitudeDegrees>
            </Position>
            <AltitudeMeters>42</AltitudeMeters>
            <DistanceMeters>NAN</DistanceMeters>
          </Trackpoint>
          <Trackpoint>
            <Time>2022-07-13T11:34:01.000Z</Time>
            <Position>
              <LatitudeDegrees>43.4594593383371829986572265625</LatitudeDegrees>
              <LongitudeDegrees>-3.55262598954141139984130859375</LongitudeDegrees>
            </Position>
            <AltitudeMeters>42.40000152587890625</AltitudeMeters>
            <DistanceMeters>NAN</DistanceMeters>
          </Trackpoint>
          <Trackpoint>
            <Time>2022-07-13T11:34:04.000Z</Time>
            <Position>
              <LatitudeDegrees>43.4594103880226612091064453125</LatitudeDegrees>
              <LongitudeDegrees>-3.552633784711360931396484375</LongitudeDegrees>
            </Position>
            <AltitudeMeters>43.200000762939453125</AltitudeMeters>
            <DistanceMeters>NAN</DistanceMeters>
          </Trackpoint>
          <Trackpoint>
            <Time>2022-07-13T11:34:08.000Z</Time>
            <Position>
              <LatitudeDegrees>43.45933486707508563995361328125</LatitudeDegrees>
              <LongitudeDegrees>-3.5526453517377376556396484375</LongitudeDegrees>
            </Position>
            <AltitudeMeters>44</AltitudeMeters>
            <DistanceMeters>NAN</DistanceMeters>
          </Trackpoint>
          <Trackpoint>
            <Time>2022-07-13T11:34:09.000Z</Time>
            <Position>
              <LatitudeDegrees>43.45931701362133026123046875</LatitudeDegrees>
              <LongitudeDegrees>-3.55264979414641857147216796875</LongitudeDegrees>
            </Position>
            <AltitudeMeters>44.200000762939453125</AltitudeMeters>
            <DistanceMeters>NAN</DistanceMeters>
          </Trackpoint>
          <Trackpoint>
            <Time>2022-07-13T11:34:15.000Z</Time>
            <Position>
              <LatitudeDegrees>43.45921131782233715057373046875</LatitudeDegrees>
              <LongitudeDegrees>-3.552682735025882720947265625</LongitudeDegrees>
            </Position>
            <AltitudeMeters>45.200000762939453125</AltitudeMeters>
            <DistanceMeters>NAN</DistanceMeters>
          </Trackpoint>
          <Trackpoint>
            <Time>2022-07-13T11:34:22.000Z</Time>
            <Position>
              <LatitudeDegrees>43.4591069631278514862060546875</LatitudeDegrees>
              <LongitudeDegrees>-3.55277652852237224578857421875</LongitudeDegrees>
            </Position>
            <AltitudeMeters>46.40000152587890625</AltitudeMeters>
            <DistanceMeters>NAN</DistanceMeters>
          </Trackpoint>
          <Trackpoint>
            <Time>2022-07-13T11:34:24.000Z</Time>
            <Position>
              <LatitudeDegrees>43.459076620638370513916015625</LatitudeDegrees>
              <LongitudeDegrees>-3.55280050076544284820556640625</LongitudeDegrees>
            </Position>
            <AltitudeMeters>46.59999847412109375</AltitudeMeters>
            <DistanceMeters>NAN</DistanceMeters>
          </Trackpoint>
          <Trackpoint>
            <Time>2022-07-13T11:34:29.000Z</Time>
            <Position>
              <LatitudeDegrees>43.45899472944438457489013671875</LatitudeDegrees>
              <LongitudeDegrees>-3.5528703220188617706298828125</LongitudeDegrees>
            </Position>
            <AltitudeMeters>47.40000152587890625</AltitudeMeters>
            <DistanceMeters>NAN</DistanceMeters>
          </Trackpoint>
          <Trackpoint>
            <Time>2022-07-13T11:34:30.000Z</Time>
            <Position>
              <LatitudeDegrees>43.4589805640280246734619140625</LatitudeDegrees>
              <LongitudeDegrees>-3.552886582911014556884765625</LongitudeDegrees>
            </Position>
            <AltitudeMeters>47.59999847412109375</AltitudeMeters>
            <DistanceMeters>NAN</DistanceMeters>
          </Trackpoint>
          <Trackpoint>
            <Time>2022-07-13T11:34:33.000Z</Time>
            <Position>
              <LatitudeDegrees>43.45893639139831066131591796875</LatitudeDegrees>
              <LongitudeDegrees>-3.55293863452970981597900390625</LongitudeDegrees>
            </Position>
            <AltitudeMeters>48.200000762939453125</AltitudeMeters>
            <DistanceMeters>NAN</DistanceMeters>
          </Trackpoint>
          <Trackpoint>
            <Time>2022-07-13T11:34:36.000Z</Time>
            <Position>
              <LatitudeDegrees>43.45889464952051639556884765625</LatitudeDegrees>
              <LongitudeDegrees>-3.55299529619514942169189453125</LongitudeDegrees>
            </Position>
            <AltitudeMeters>48.59999847412109375</AltitudeMeters>
            <DistanceMeters>NAN</DistanceMeters>
          </Trackpoint>
          <Trackpoint>
            <Time>2022-07-13T11:34:40.000Z</Time>
            <Position>
              <LatitudeDegrees>43.45882952213287353515625</LatitudeDegrees>
              <LongitudeDegrees>-3.55306821875274181365966796875</LongitudeDegrees>
            </Position>
            <AltitudeMeters>49.59999847412109375</AltitudeMeters>
            <DistanceMeters>NAN</DistanceMeters>
          </Trackpoint>
          <Trackpoint>
            <Time>2022-07-13T11:34:41.000Z</Time>
            <Position>
              <LatitudeDegrees>43.4588159434497356414794921875</LatitudeDegrees>
              <LongitudeDegrees>-3.5530916042625904083251953125</LongitudeDegrees>
            </Position>
            <AltitudeMeters>49.799999237060546875</AltitudeMeters>
            <DistanceMeters>NAN</DistanceMeters>
          </Trackpoint>
          <Trackpoint>
            <Time>2022-07-13T11:34:47.000Z</Time>
            <Position>
              <LatitudeDegrees>43.458749391138553619384765625</LatitudeDegrees>
              <LongitudeDegrees>-3.55323200114071369171142578125</LongitudeDegrees>
            </Position>
            <AltitudeMeters>50.200000762939453125</AltitudeMeters>
            <DistanceMeters>NAN</DistanceMeters>
          </Trackpoint>
          <Trackpoint>
            <Time>2022-07-13T11:34:50.000Z</Time>
            <Position>
              <LatitudeDegrees>43.45871485769748687744140625</LatitudeDegrees>
              <LongitudeDegrees>-3.5532924346625804901123046875</LongitudeDegrees>
            </Position>
            <AltitudeMeters>50.59999847412109375</AltitudeMeters>
            <DistanceMeters>NAN</DistanceMeters>
          </Trackpoint>
          <Trackpoint>
            <Time>2022-07-13T11:34:51.000Z</Time>
            <Position>
              <LatitudeDegrees>43.45870337449014186859130859375</LatitudeDegrees>
              <LongitudeDegrees>-3.553314395248889923095703125</LongitudeDegrees>
            </Position>
            <AltitudeMeters>50.59999847412109375</AltitudeMeters>
            <DistanceMeters>NAN</DistanceMeters>
          </Trackpoint>
          <Trackpoint>
            <Time>2022-07-13T11:34:54.000Z</Time>
            <Position>
              <LatitudeDegrees>43.45867286436259746551513671875</LatitudeDegrees>
              <LongitudeDegrees>-3.5533757507801055908203125</LongitudeDegrees>
            </Position>
            <AltitudeMeters>51</AltitudeMeters>
            <DistanceMeters>NAN</DistanceMeters>
          </Trackpoint>
          <Trackpoint>
            <Time>2022-07-13T11:34:58.000Z</Time>
            <Position>
              <LatitudeDegrees>43.45863615162670612335205078125</LatitudeDegrees>
              <LongitudeDegrees>-3.55345613323152065277099609375</LongitudeDegrees>
            </Position>
            <AltitudeMeters>51.799999237060546875</AltitudeMeters>
            <DistanceMeters>NAN</DistanceMeters>
          </Trackpoint>
          <Trackpoint>
            <Time>2022-07-13T11:35:02.000Z</Time>
            <Position>
              <LatitudeDegrees>43.4585869498550891876220703125</LatitudeDegrees>
              <LongitudeDegrees>-3.55354540050029754638671875</LongitudeDegrees>
            </Position>
            <AltitudeMeters>52.40000152587890625</AltitudeMeters>
            <DistanceMeters>NAN</DistanceMeters>
          </Trackpoint>
          <Trackpoint>
            <Time>2022-07-13T11:35:05.000Z</Time>
            <Position>
              <LatitudeDegrees>43.45855685882270336151123046875</LatitudeDegrees>
              <LongitudeDegrees>-3.55360717512667179107666015625</LongitudeDegrees>
            </Position>
            <AltitudeMeters>52.59999847412109375</AltitudeMeters>
            <DistanceMeters>NAN</DistanceMeters>
          </Trackpoint>
          <Trackpoint>
            <Time>2022-07-13T11:35:07.000Z</Time>
            <Position>
              <LatitudeDegrees>43.4585386700928211212158203125</LatitudeDegrees>
              <LongitudeDegrees>-3.5536468215286731719970703125</LongitudeDegrees>
            </Position>
            <AltitudeMeters>52.799999237060546875</AltitudeMeters>
            <DistanceMeters>NAN</DistanceMeters>
          </Trackpoint>
          <Trackpoint>
            <Time>2022-07-13T11:35:09.000Z</Time>
            <Position>
              <LatitudeDegrees>43.45851863734424114227294921875</LatitudeDegrees>
              <LongitudeDegrees>-3.55368831194937229156494140625</LongitudeDegrees>
            </Position>
            <AltitudeMeters>52.799999237060546875</AltitudeMeters>
            <DistanceMeters>NAN</DistanceMeters>
          </Trackpoint>
          <Trackpoint>
            <Time>2022-07-13T11:35:12.000Z</Time>
            <Position>
              <LatitudeDegrees>43.45848108641803264617919921875</LatitudeDegrees>
              <LongitudeDegrees>-3.5537440516054630279541015625</LongitudeDegrees>
            </Position>
            <AltitudeMeters>53</AltitudeMeters>
            <DistanceMeters>NAN</DistanceMeters>
          </Trackpoint>
          <Trackpoint>
            <Time>2022-07-13T11:35:21.000Z</Time>
            <Position>
              <LatitudeDegrees>43.4583763964474201202392578125</LatitudeDegrees>
              <LongitudeDegrees>-3.55389215983450412750244140625</LongitudeDegrees>
            </Position>
            <AltitudeMeters>53.40000152587890625</AltitudeMeters>
            <DistanceMeters>NAN</DistanceMeters>
          </Trackpoint>
          <Trackpoint>
            <Time>2022-07-13T11:35:24.000Z</Time>
            <Position>
              <LatitudeDegrees>43.45833322964608669281005859375</LatitudeDegrees>
              <LongitudeDegrees>-3.5539363324642181396484375</LongitudeDegrees>
            </Position>
            <AltitudeMeters>53.799999237060546875</AltitudeMeters>
            <DistanceMeters>NAN</DistanceMeters>
          </Trackpoint>
          <Trackpoint>
            <Time>2022-07-13T11:35:27.000Z</Time>
            <Position>
              <LatitudeDegrees>43.458280004560947418212890625</LatitudeDegrees>
              <LongitudeDegrees>-3.55397849343717098236083984375</LongitudeDegrees>
            </Position>
            <AltitudeMeters>54.200000762939453125</AltitudeMeters>
            <DistanceMeters>NAN</DistanceMeters>
          </Trackpoint>
          <Trackpoint>
            <Time>2022-07-13T11:35:29.000Z</Time>
            <Position>
              <LatitudeDegrees>43.4582459740340709686279296875</LatitudeDegrees>
              <LongitudeDegrees>-3.5540022142231464385986328125</LongitudeDegrees>
            </Position>
            <AltitudeMeters>54.40000152587890625</AltitudeMeters>
            <DistanceMeters>NAN</DistanceMeters>
          </Trackpoint>
          <Trackpoint>
            <Time>2022-07-13T11:35:30.000Z</Time>
            <Position>
              <LatitudeDegrees>43.458230383694171905517578125</LatitudeDegrees>
              <LongitudeDegrees>-3.55401202104985713958740234375</LongitudeDegrees>
            </Position>
            <AltitudeMeters>54.59999847412109375</AltitudeMeters>
            <DistanceMeters>NAN</DistanceMeters>
          </Trackpoint>
          <Trackpoint>
            <Time>2022-07-13T11:35:31.000Z</Time>
            <Position>
              <LatitudeDegrees>43.45821018330752849578857421875</LatitudeDegrees>
              <LongitudeDegrees>-3.55402995832264423370361328125</LongitudeDegrees>
            </Position>
            <AltitudeMeters>54.799999237060546875</AltitudeMeters>
            <DistanceMeters>NAN</DistanceMeters>
          </Trackpoint>
          <Trackpoint>
            <Time>2022-07-13T11:35:32.000Z</Time>
            <Position>
              <LatitudeDegrees>43.45819291658699512481689453125</LatitudeDegrees>
              <LongitudeDegrees>-3.554047979414463043212890625</LongitudeDegrees>
            </Position>
            <AltitudeMeters>55</AltitudeMeters>
            <DistanceMeters>NAN</DistanceMeters>
          </Trackpoint>
          <Trackpoint>
            <Time>2022-07-13T11:35:33.000Z</Time>
            <Position>
              <LatitudeDegrees>43.4581799246370792388916015625</LatitudeDegrees>
              <LongitudeDegrees>-3.554067425429821014404296875</LongitudeDegrees>
            </Position>
            <AltitudeMeters>55</AltitudeMeters>
            <DistanceMeters>NAN</DistanceMeters>
          </Trackpoint>
          <Trackpoint>
            <Time>2022-07-13T11:35:40.000Z</Time>
            <Position>
              <LatitudeDegrees>43.4580900706350803375244140625</LatitudeDegrees>
              <LongitudeDegrees>-3.554244451224803924560546875</LongitudeDegrees>
            </Position>
            <AltitudeMeters>55.799999237060546875</AltitudeMeters>
            <DistanceMeters>NAN</DistanceMeters>
          </Trackpoint>
          <Trackpoint>
            <Time>2022-07-13T11:35:46.000Z</Time>
            <Position>
              <LatitudeDegrees>43.45799057744443416595458984375</LatitudeDegrees>
              <LongitudeDegrees>-3.55437898077070713043212890625</LongitudeDegrees>
            </Position>
            <AltitudeMeters>55.799999237060546875</AltitudeMeters>
            <DistanceMeters>NAN</DistanceMeters>
          </Trackpoint>
          <Trackpoint>
            <Time>2022-07-13T11:35:48.000Z</Time>
            <Position>
              <LatitudeDegrees>43.4579465724527835845947265625</LatitudeDegrees>
              <LongitudeDegrees>-3.55441703461110591888427734375</LongitudeDegrees>
            </Position>
            <AltitudeMeters>55.799999237060546875</AltitudeMeters>
            <DistanceMeters>NAN</DistanceMeters>
          </Trackpoint>
          <Trackpoint>
            <Time>2022-07-13T11:35:55.000Z</Time>
            <Position>
              <LatitudeDegrees>43.45777432434260845184326171875</LatitudeDegrees>
              <LongitudeDegrees>-3.5544826649129390716552734375</LongitudeDegrees>
            </Position>
            <AltitudeMeters>55.799999237060546875</AltitudeMeters>
            <DistanceMeters>NAN</DistanceMeters>
          </Trackpoint>
          <Trackpoint>
            <Time>2022-07-13T11:36:01.000Z</Time>
            <Position>
              <LatitudeDegrees>43.457555808126926422119140625</LatitudeDegrees>
              <LongitudeDegrees>-3.5545289330184459686279296875</LongitudeDegrees>
            </Position>
            <AltitudeMeters>56</AltitudeMeters>
            <DistanceMeters>NAN</DistanceMeters>
          </Trackpoint>
          <Trackpoint>
            <Time>2022-07-13T11:36:03.000Z</Time>
            <Position>
              <LatitudeDegrees>43.45749386586248874664306640625</LatitudeDegrees>
              <LongitudeDegrees>-3.55454259552061557769775390625</LongitudeDegrees>
            </Position>
            <AltitudeMeters>56</AltitudeMeters>
            <DistanceMeters>NAN</DistanceMeters>
          </Trackpoint>
          <Trackpoint>
            <Time>2022-07-13T11:36:09.000Z</Time>
            <Position>
              <LatitudeDegrees>43.4573330171406269073486328125</LatitudeDegrees>
              <LongitudeDegrees>-3.554569669067859649658203125</LongitudeDegrees>
            </Position>
            <AltitudeMeters>56.40000152587890625</AltitudeMeters>
            <DistanceMeters>NAN</DistanceMeters>
          </Trackpoint>
          <Trackpoint>
            <Time>2022-07-13T11:36:11.000Z</Time>
            <Position>
              <LatitudeDegrees>43.4572870843112468719482421875</LatitudeDegrees>
              <LongitudeDegrees>-3.554577715694904327392578125</LongitudeDegrees>
            </Position>
            <AltitudeMeters>56.40000152587890625</AltitudeMeters>
            <DistanceMeters>NAN</DistanceMeters>
          </Trackpoint>
          <Trackpoint>
            <Time>2022-07-13T11:36:15.000Z</Time>
            <Position>
              <LatitudeDegrees>43.45720251090824604034423828125</LatitudeDegrees>
              <LongitudeDegrees>-3.55459908954799175262451171875</LongitudeDegrees>
            </Position>
            <AltitudeMeters>56.40000152587890625</AltitudeMeters>
            <DistanceMeters>NAN</DistanceMeters>
          </Trackpoint>
          <Trackpoint>
            <Time>2022-07-13T11:36:18.000Z</Time>
            <Position>
              <LatitudeDegrees>43.457132689654827117919921875</LatitudeDegrees>
              <LongitudeDegrees>-3.5545946471393108367919921875</LongitudeDegrees>
            </Position>
            <AltitudeMeters>56.200000762939453125</AltitudeMeters>
            <DistanceMeters>NAN</DistanceMeters>
          </Trackpoint>
          <Trackpoint>
            <Time>2022-07-13T11:36:21.000Z</Time>
            <Position>
              <LatitudeDegrees>43.45710092224180698394775390625</LatitudeDegrees>
              <LongitudeDegrees>-3.55458785779774188995361328125</LongitudeDegrees>
            </Position>
            <AltitudeMeters>56.200000762939453125</AltitudeMeters>
            <DistanceMeters>NAN</DistanceMeters>
          </Trackpoint>
          <Trackpoint>
            <Time>2022-07-13T11:36:22.000Z</Time>
            <Position>
              <LatitudeDegrees>43.45710108987987041473388671875</LatitudeDegrees>
              <LongitudeDegrees>-3.55459204874932765960693359375</LongitudeDegrees>
            </Position>
            <AltitudeMeters>56.200000762939453125</AltitudeMeters>
            <DistanceMeters>NAN</DistanceMeters>
          </Trackpoint>
          <Trackpoint>
            <Time>2022-07-13T11:36:23.000Z</Time>
            <Position>
              <LatitudeDegrees>43.45710712485015392303466796875</LatitudeDegrees>
              <LongitudeDegrees>-3.55461082421243190765380859375</LongitudeDegrees>
            </Position>
            <AltitudeMeters>56.200000762939453125</AltitudeMeters>
            <DistanceMeters>NAN</DistanceMeters>
          </Trackpoint>
          <Trackpoint>
            <Time>2022-07-13T11:36:26.000Z</Time>
            <Position>
              <LatitudeDegrees>43.4571573324501514434814453125</LatitudeDegrees>
              <LongitudeDegrees>-3.55460814200341701507568359375</LongitudeDegrees>
            </Position>
            <AltitudeMeters>56.200000762939453125</AltitudeMeters>
            <DistanceMeters>NAN</DistanceMeters>
          </Trackpoint>
          <Trackpoint>
            <Time>2022-07-13T11:36:31.000Z</Time>
            <Position>
              <LatitudeDegrees>43.45728431828320026397705078125</LatitudeDegrees>
              <LongitudeDegrees>-3.5545708425343036651611328125</LongitudeDegrees>
            </Position>
            <AltitudeMeters>56.59999847412109375</AltitudeMeters>
            <DistanceMeters>NAN</DistanceMeters>
          </Trackpoint>
          <Trackpoint>
            <Time>2022-07-13T11:36:32.000Z</Time>
            <Position>
              <LatitudeDegrees>43.45731675624847412109375</LatitudeDegrees>
              <LongitudeDegrees>-3.55456539429724216461181640625</LongitudeDegrees>
            </Position>
            <AltitudeMeters>56.59999847412109375</AltitudeMeters>
            <DistanceMeters>NAN</DistanceMeters>
          </Trackpoint>
          <Trackpoint>
            <Time>2022-07-13T11:36:38.000Z</Time>
            <Position>
              <LatitudeDegrees>43.457523286342620849609375</LatitudeDegrees>
              <LongitudeDegrees>-3.5545212216675281524658203125</LongitudeDegrees>
            </Position>
            <AltitudeMeters>56.59999847412109375</AltitudeMeters>
            <DistanceMeters>NAN</DistanceMeters>
          </Trackpoint>
          <Trackpoint>
            <Time>2022-07-13T11:36:46.000Z</Time>
            <Position>
              <LatitudeDegrees>43.4578158147633075714111328125</LatitudeDegrees>
              <LongitudeDegrees>-3.5544501431286334991455078125</LongitudeDegrees>
            </Position>
            <AltitudeMeters>56.799999237060546875</AltitudeMeters>
            <DistanceMeters>NAN</DistanceMeters>
          </Trackpoint>
          <Trackpoint>
            <Time>2022-07-13T11:36:47.000Z</Time>
            <Position>
              <LatitudeDegrees>43.45785328187048435211181640625</LatitudeDegrees>
              <LongitudeDegrees>-3.55443698354065418243408203125</LongitudeDegrees>
            </Position>
            <AltitudeMeters>56.59999847412109375</AltitudeMeters>
            <DistanceMeters>NAN</DistanceMeters>
          </Trackpoint>
          <Trackpoint>
            <Time>2022-07-13T11:36:53.000Z</Time>
            <Position>
              <LatitudeDegrees>43.4580159746110439300537109375</LatitudeDegrees>
              <LongitudeDegrees>-3.55435064993798732757568359375</LongitudeDegrees>
            </Position>
            <AltitudeMeters>56</AltitudeMeters>
            <DistanceMeters>NAN</DistanceMeters>
          </Trackpoint>
          <Trackpoint>
            <Time>2022-07-13T11:36:56.000Z</Time>
            <Position>
              <LatitudeDegrees>43.45807171426713466644287109375</LatitudeDegrees>
              <LongitudeDegrees>-3.55432885698974132537841796875</LongitudeDegrees>
            </Position>
            <AltitudeMeters>56.200000762939453125</AltitudeMeters>
            <DistanceMeters>NAN</DistanceMeters>
          </Trackpoint>
          <Trackpoint>
            <Time>2022-07-13T11:36:57.000Z</Time>
            <Position>
              <LatitudeDegrees>43.4580826945602893829345703125</LatitudeDegrees>
              <LongitudeDegrees>-3.55431276373565196990966796875</LongitudeDegrees>
            </Position>
            <AltitudeMeters>56.40000152587890625</AltitudeMeters>
            <DistanceMeters>NAN</DistanceMeters>
          </Trackpoint>
          <Trackpoint>
            <Time>2022-07-13T11:36:59.000Z</Time>
            <Position>
              <LatitudeDegrees>43.45809820108115673065185546875</LatitudeDegrees>
              <LongitudeDegrees>-3.55426230467855930328369140625</LongitudeDegrees>
            </Position>
            <AltitudeMeters>56.40000152587890625</AltitudeMeters>
            <DistanceMeters>NAN</DistanceMeters>
          </Trackpoint>
          <Trackpoint>
            <Time>2022-07-13T11:37:03.000Z</Time>
            <Position>
              <LatitudeDegrees>43.45815519802272319793701171875</LatitudeDegrees>
              <LongitudeDegrees>-3.5541202314198017120361328125</LongitudeDegrees>
            </Position>
            <AltitudeMeters>57</AltitudeMeters>
            <DistanceMeters>NAN</DistanceMeters>
          </Trackpoint>
          <Trackpoint>
            <Time>2022-07-13T11:37:04.000Z</Time>
            <Position>
              <LatitudeDegrees>43.45817715860903263092041015625</LatitudeDegrees>
              <LongitudeDegrees>-3.55408678762614727020263671875</LongitudeDegrees>
            </Position>
            <AltitudeMeters>57.200000762939453125</AltitudeMeters>
            <DistanceMeters>NAN</DistanceMeters>
          </Trackpoint>
          <Trackpoint>
            <Time>2022-07-13T11:37:09.000Z</Time>
            <Position>
              <LatitudeDegrees>43.45831462182104587554931640625</LatitudeDegrees>
              <LongitudeDegrees>-3.55396541766822338104248046875</LongitudeDegrees>
            </Position>
            <AltitudeMeters>56.59999847412109375</AltitudeMeters>
            <DistanceMeters>NAN</DistanceMeters>
          </Trackpoint>
          <Trackpoint>
            <Time>2022-07-13T11:37:10.000Z</Time>
            <Position>
              <LatitudeDegrees>43.458350412547588348388671875</LatitudeDegrees>
              <LongitudeDegrees>-3.553954102098941802978515625</LongitudeDegrees>
            </Position>
            <AltitudeMeters>56.40000152587890625</AltitudeMeters>
            <DistanceMeters>NAN</DistanceMeters>
          </Trackpoint>
          <Trackpoint>
            <Time>2022-07-13T11:37:13.000Z</Time>
            <Position>
              <LatitudeDegrees>43.45846314914524555206298828125</LatitudeDegrees>
              <LongitudeDegrees>-3.55393641628324985504150390625</LongitudeDegrees>
            </Position>
            <AltitudeMeters>55.799999237060546875</AltitudeMeters>
            <DistanceMeters>NAN</DistanceMeters>
          </Trackpoint>
          <Trackpoint>
            <Time>2022-07-13T11:37:16.000Z</Time>
            <Position>
              <LatitudeDegrees>43.45855928957462310791015625</LatitudeDegrees>
              <LongitudeDegrees>-3.55395485647022724151611328125</LongitudeDegrees>
            </Position>
            <AltitudeMeters>55.200000762939453125</AltitudeMeters>
            <DistanceMeters>NAN</DistanceMeters>
          </Trackpoint>
          <Trackpoint>
            <Time>2022-07-13T11:37:21.000Z</Time>
            <Position>
              <LatitudeDegrees>43.458713851869106292724609375</LatitudeDegrees>
              <LongitudeDegrees>-3.55398167856037616729736328125</LongitudeDegrees>
            </Position>
            <AltitudeMeters>55.59999847412109375</AltitudeMeters>
            <DistanceMeters>NAN</DistanceMeters>
          </Trackpoint>
          <Trackpoint>
            <Time>2022-07-13T11:37:24.000Z</Time>
            <Position>
              <LatitudeDegrees>43.458815775811672210693359375</LatitudeDegrees>
              <LongitudeDegrees>-3.5539888031780719757080078125</LongitudeDegrees>
            </Position>
            <AltitudeMeters>56.200000762939453125</AltitudeMeters>
            <DistanceMeters>NAN</DistanceMeters>
          </Trackpoint>
          <Trackpoint>
            <Time>2022-07-13T11:37:27.000Z</Time>
            <Position>
              <LatitudeDegrees>43.4589161910116672515869140625</LatitudeDegrees>
              <LongitudeDegrees>-3.55398369021713733673095703125</LongitudeDegrees>
            </Position>
            <AltitudeMeters>56.40000152587890625</AltitudeMeters>
            <DistanceMeters>NAN</DistanceMeters>
          </Trackpoint>
          <Trackpoint>
            <Time>2022-07-13T11:37:33.000Z</Time>
            <Position>
              <LatitudeDegrees>43.459096737205982208251953125</LatitudeDegrees>
              <LongitudeDegrees>-3.55405460111796855926513671875</LongitudeDegrees>
            </Position>
            <AltitudeMeters>56.59999847412109375</AltitudeMeters>
            <DistanceMeters>NAN</DistanceMeters>
          </Trackpoint>
          <Trackpoint>
            <Time>2022-07-13T11:37:36.000Z</Time>
            <Position>
              <LatitudeDegrees>43.45914074219763278961181640625</LatitudeDegrees>
              <LongitudeDegrees>-3.55416675098240375518798828125</LongitudeDegrees>
            </Position>
            <AltitudeMeters>56.799999237060546875</AltitudeMeters>
            <DistanceMeters>NAN</DistanceMeters>
          </Trackpoint>
          <Trackpoint>
            <Time>2022-07-13T11:37:38.000Z</Time>
            <Position>
              <LatitudeDegrees>43.4591446816921234130859375</LatitudeDegrees>
              <LongitudeDegrees>-3.5542595386505126953125</LongitudeDegrees>
            </Position>
            <AltitudeMeters>56.799999237060546875</AltitudeMeters>
            <DistanceMeters>NAN</DistanceMeters>
          </Trackpoint>
          <Trackpoint>
            <Time>2022-07-13T11:37:42.000Z</Time>
            <Position>
              <LatitudeDegrees>43.45913864672183990478515625</LatitudeDegrees>
              <LongitudeDegrees>-3.55442759580910205841064453125</LongitudeDegrees>
            </Position>
            <AltitudeMeters>57.200000762939453125</AltitudeMeters>
            <DistanceMeters>NAN</DistanceMeters>
          </Trackpoint>
          <Trackpoint>
            <Time>2022-07-13T11:37:46.000Z</Time>
            <Position>
              <LatitudeDegrees>43.4591445140540599822998046875</LatitudeDegrees>
              <LongitudeDegrees>-3.55455047450959682464599609375</LongitudeDegrees>
            </Position>
            <AltitudeMeters>57.799999237060546875</AltitudeMeters>
            <DistanceMeters>NAN</DistanceMeters>
          </Trackpoint>
          <Trackpoint>
            <Time>2022-07-13T11:37:49.000Z</Time>
            <Position>
              <LatitudeDegrees>43.4591421671211719512939453125</LatitudeDegrees>
              <LongitudeDegrees>-3.55466530658304691314697265625</LongitudeDegrees>
            </Position>
            <AltitudeMeters>58</AltitudeMeters>
            <DistanceMeters>NAN</DistanceMeters>
          </Trackpoint>
          <Trackpoint>
            <Time>2022-07-13T11:37:55.000Z</Time>
            <Position>
              <LatitudeDegrees>43.4591378085315227508544921875</LatitudeDegrees>
              <LongitudeDegrees>-3.55488524772226810455322265625</LongitudeDegrees>
            </Position>
            <AltitudeMeters>58.59999847412109375</AltitudeMeters>
            <DistanceMeters>NAN</DistanceMeters>
          </Trackpoint>
          <Trackpoint>
            <Time>2022-07-13T11:37:56.000Z</Time>
            <Position>
              <LatitudeDegrees>43.459142334759235382080078125</LatitudeDegrees>
              <LongitudeDegrees>-3.55491559021174907684326171875</LongitudeDegrees>
            </Position>
            <AltitudeMeters>58.799999237060546875</AltitudeMeters>
            <DistanceMeters>NAN</DistanceMeters>
          </Trackpoint>
          <Trackpoint>
            <Time>2022-07-13T11:38:03.000Z</Time>
            <Position>
              <LatitudeDegrees>43.45918751321732997894287109375</LatitudeDegrees>
              <LongitudeDegrees>-3.55516185052692890167236328125</LongitudeDegrees>
            </Position>
            <AltitudeMeters>59.59999847412109375</AltitudeMeters>
            <DistanceMeters>NAN</DistanceMeters>
          </Trackpoint>
          <Trackpoint>
            <Time>2022-07-13T11:38:05.000Z</Time>
            <Position>
              <LatitudeDegrees>43.45919606275856494903564453125</LatitudeDegrees>
              <LongitudeDegrees>-3.5552313365042209625244140625</LongitudeDegrees>
            </Position>
            <AltitudeMeters>59.799999237060546875</AltitudeMeters>
            <DistanceMeters>NAN</DistanceMeters>
          </Trackpoint>
          <Trackpoint>
            <Time>2022-07-13T11:38:10.000Z</Time>
            <Position>
              <LatitudeDegrees>43.4592211246490478515625</LatitudeDegrees>
              <LongitudeDegrees>-3.55539168231189250946044921875</LongitudeDegrees>
            </Position>
            <AltitudeMeters>60</AltitudeMeters>
            <DistanceMeters>NAN</DistanceMeters>
          </Trackpoint>
          <Trackpoint>
            <Time>2022-07-13T11:38:11.000Z</Time>
            <Position>
              <LatitudeDegrees>43.45921902917325496673583984375</LatitudeDegrees>
              <LongitudeDegrees>-3.555431328713893890380859375</LongitudeDegrees>
            </Position>
            <AltitudeMeters>60</AltitudeMeters>
            <DistanceMeters>NAN</DistanceMeters>
          </Trackpoint>
          <Trackpoint>
            <Time>2022-07-13T11:38:18.000Z</Time>
            <Position>
              <LatitudeDegrees>43.4591850824654102325439453125</LatitudeDegrees>
              <LongitudeDegrees>-3.55562201701104640960693359375</LongitudeDegrees>
            </Position>
            <AltitudeMeters>60.200000762939453125</AltitudeMeters>
            <DistanceMeters>NAN</DistanceMeters>
          </Trackpoint>
          <Trackpoint>
            <Time>2022-07-13T11:38:21.000Z</Time>
            <Position>
              <LatitudeDegrees>43.4591760300099849700927734375</LatitudeDegrees>
              <LongitudeDegrees>-3.55569661594927310943603515625</LongitudeDegrees>
            </Position>
            <AltitudeMeters>60.59999847412109375</AltitudeMeters>
            <DistanceMeters>NAN</DistanceMeters>
          </Trackpoint>
          <Trackpoint>
            <Time>2022-07-13T11:38:24.000Z</Time>
            <Position>
              <LatitudeDegrees>43.459161780774593353271484375</LatitudeDegrees>
              <LongitudeDegrees>-3.555801808834075927734375</LongitudeDegrees>
            </Position>
            <AltitudeMeters>60.799999237060546875</AltitudeMeters>
            <DistanceMeters>NAN</DistanceMeters>
          </Trackpoint>
          <Trackpoint>
            <Time>2022-07-13T11:38:25.000Z</Time>
            <Position>
              <LatitudeDegrees>43.45915381796658039093017578125</LatitudeDegrees>
              <LongitudeDegrees>-3.5558368451893329620361328125</LongitudeDegrees>
            </Position>
            <AltitudeMeters>60.799999237060546875</AltitudeMeters>
            <DistanceMeters>NAN</DistanceMeters>
          </Trackpoint>
          <Trackpoint>
            <Time>2022-07-13T11:38:27.000Z</Time>
            <Position>
              <LatitudeDegrees>43.45914057455956935882568359375</LatitudeDegrees>
              <LongitudeDegrees>-3.55591513216495513916015625</LongitudeDegrees>
            </Position>
            <AltitudeMeters>60.799999237060546875</AltitudeMeters>
            <DistanceMeters>NAN</DistanceMeters>
          </Trackpoint>
          <Trackpoint>
            <Time>2022-07-13T11:38:33.000Z</Time>
            <Position>
              <LatitudeDegrees>43.45908340997993946075439453125</LatitudeDegrees>
              <LongitudeDegrees>-3.55613817460834980010986328125</LongitudeDegrees>
            </Position>
            <AltitudeMeters>61</AltitudeMeters>
            <DistanceMeters>NAN</DistanceMeters>
          </Trackpoint>
          <Trackpoint>
            <Time>2022-07-13T11:38:36.000Z</Time>
            <Position>
              <LatitudeDegrees>43.459056504070758819580078125</LatitudeDegrees>
              <LongitudeDegrees>-3.5562448762357234954833984375</LongitudeDegrees>
            </Position>
            <AltitudeMeters>61</AltitudeMeters>
            <DistanceMeters>NAN</DistanceMeters>
          </Trackpoint>
          <Trackpoint>
            <Time>2022-07-13T11:38:38.000Z</Time>
            <Position>
              <LatitudeDegrees>43.459030687808990478515625</LatitudeDegrees>
              <LongitudeDegrees>-3.5563126020133495330810546875</LongitudeDegrees>
            </Position>
            <AltitudeMeters>61</AltitudeMeters>
            <DistanceMeters>NAN</DistanceMeters>
          </Trackpoint>
          <Trackpoint>
            <Time>2022-07-13T11:38:42.000Z</Time>
            <Position>
              <LatitudeDegrees>43.4589641354978084564208984375</LatitudeDegrees>
              <LongitudeDegrees>-3.55646900832653045654296875</LongitudeDegrees>
            </Position>
            <AltitudeMeters>61</AltitudeMeters>
            <DistanceMeters>NAN</DistanceMeters>
          </Trackpoint>
          <Trackpoint>
            <Time>2022-07-13T11:38:48.000Z</Time>
            <Position>
              <LatitudeDegrees>43.45887118019163608551025390625</LatitudeDegrees>
              <LongitudeDegrees>-3.55669456534087657928466796875</LongitudeDegrees>
            </Position>
            <AltitudeMeters>60.59999847412109375</AltitudeMeters>
            <DistanceMeters>NAN</DistanceMeters>
          </Trackpoint>
          <Trackpoint>
            <Time>2022-07-13T11:38:50.000Z</Time>
            <Position>
              <LatitudeDegrees>43.45883958041667938232421875</LatitudeDegrees>
              <LongitudeDegrees>-3.55678617954254150390625</LongitudeDegrees>
            </Position>
            <AltitudeMeters>60.59999847412109375</AltitudeMeters>
            <DistanceMeters>NAN</DistanceMeters>
          </Trackpoint>
          <Trackpoint>
            <Time>2022-07-13T11:38:53.000Z</Time>
            <Position>
              <LatitudeDegrees>43.45880806446075439453125</LatitudeDegrees>
              <LongitudeDegrees>-3.55691249482333660125732421875</LongitudeDegrees>
            </Position>
            <AltitudeMeters>61.40000152587890625</AltitudeMeters>
            <DistanceMeters>NAN</DistanceMeters>
          </Trackpoint>
          <Trackpoint>
            <Time>2022-07-13T11:38:59.000Z</Time>
            <Position>
              <LatitudeDegrees>43.45875081606209278106689453125</LatitudeDegrees>
              <LongitudeDegrees>-3.55719127692282199859619140625</LongitudeDegrees>
            </Position>
            <AltitudeMeters>61.799999237060546875</AltitudeMeters>
            <DistanceMeters>NAN</DistanceMeters>
          </Trackpoint>
          <Trackpoint>
            <Time>2022-07-13T11:39:03.000Z</Time>
            <Position>
              <LatitudeDegrees>43.4587156958878040313720703125</LatitudeDegrees>
              <LongitudeDegrees>-3.5573626868426799774169921875</LongitudeDegrees>
            </Position>
            <AltitudeMeters>61.40000152587890625</AltitudeMeters>
            <DistanceMeters>NAN</DistanceMeters>
          </Trackpoint>
          <Trackpoint>
            <Time>2022-07-13T11:39:09.000Z</Time>
            <Position>
              <LatitudeDegrees>43.45866079442203044891357421875</LatitudeDegrees>
              <LongitudeDegrees>-3.55761456303298473358154296875</LongitudeDegrees>
            </Position>
            <AltitudeMeters>61.799999237060546875</AltitudeMeters>
            <DistanceMeters>NAN</DistanceMeters>
          </Trackpoint>
          <Trackpoint>
            <Time>2022-07-13T11:39:10.000Z</Time>
            <Position>
              <LatitudeDegrees>43.45865450799465179443359375</LatitudeDegrees>
              <LongitudeDegrees>-3.557656891644001007080078125</LongitudeDegrees>
            </Position>
            <AltitudeMeters>62</AltitudeMeters>
            <DistanceMeters>NAN</DistanceMeters>
          </Trackpoint>
          <Trackpoint>
            <Time>2022-07-13T11:39:16.000Z</Time>
            <Position>
              <LatitudeDegrees>43.458615280687808990478515625</LatitudeDegrees>
              <LongitudeDegrees>-3.55787775479257106781005859375</LongitudeDegrees>
            </Position>
            <AltitudeMeters>62.799999237060546875</AltitudeMeters>
            <DistanceMeters>NAN</DistanceMeters>
          </Trackpoint>
          <Trackpoint>
            <Time>2022-07-13T11:39:19.000Z</Time>
            <Position>
              <LatitudeDegrees>43.45859491266310214996337890625</LatitudeDegrees>
              <LongitudeDegrees>-3.55799040757119655609130859375</LongitudeDegrees>
            </Position>
            <AltitudeMeters>63</AltitudeMeters>
            <DistanceMeters>NAN</DistanceMeters>
          </Trackpoint>
          <Trackpoint>
            <Time>2022-07-13T11:39:23.000Z</Time>
            <Position>
              <LatitudeDegrees>43.45855585299432277679443359375</LatitudeDegrees>
              <LongitudeDegrees>-3.5581318102777004241943359375</LongitudeDegrees>
            </Position>
            <AltitudeMeters>63</AltitudeMeters>
            <DistanceMeters>NAN</DistanceMeters>
          </Trackpoint>
          <Trackpoint>
            <Time>2022-07-13T11:39:32.000Z</Time>
            <Position>
              <LatitudeDegrees>43.45846381969749927520751953125</LatitudeDegrees>
              <LongitudeDegrees>-3.55840899981558322906494140625</LongitudeDegrees>
            </Position>
            <AltitudeMeters>63.40000152587890625</AltitudeMeters>
            <DistanceMeters>NAN</DistanceMeters>
          </Trackpoint>
          <Trackpoint>
            <Time>2022-07-13T11:39:40.000Z</Time>
            <Position>
              <LatitudeDegrees>43.458404056727886199951171875</LatitudeDegrees>
              <LongitudeDegrees>-3.55867789126932621002197265625</LongitudeDegrees>
            </Position>
            <AltitudeMeters>63.59999847412109375</AltitudeMeters>
            <DistanceMeters>NAN</DistanceMeters>
          </Trackpoint>
          <Trackpoint>
            <Time>2022-07-13T11:39:45.000Z</Time>
            <Position>
              <LatitudeDegrees>43.45837019383907318115234375</LatitudeDegrees>
              <LongitudeDegrees>-3.55883111245930194854736328125</LongitudeDegrees>
            </Position>
            <AltitudeMeters>64</AltitudeMeters>
            <DistanceMeters>NAN</DistanceMeters>
          </Trackpoint>
          <Trackpoint>
            <Time>2022-07-13T11:39:46.000Z</Time>
            <Position>
              <LatitudeDegrees>43.45836156047880649566650390625</LatitudeDegrees>
              <LongitudeDegrees>-3.55885994620621204376220703125</LongitudeDegrees>
            </Position>
            <AltitudeMeters>64.1999969482421875</AltitudeMeters>
            <DistanceMeters>NAN</DistanceMeters>
          </Trackpoint>
          <Trackpoint>
            <Time>2022-07-13T11:39:54.000Z</Time>
            <Position>
              <LatitudeDegrees>43.45830255188047885894775390625</LatitudeDegrees>
              <LongitudeDegrees>-3.55913587845861911773681640625</LongitudeDegrees>
            </Position>
            <AltitudeMeters>64.8000030517578125</AltitudeMeters>
            <DistanceMeters>NAN</DistanceMeters>
          </Trackpoint>
          <Trackpoint>
            <Time>2022-07-13T11:39:58.000Z</Time>
            <Position>
              <LatitudeDegrees>43.45828763209283351898193359375</LatitudeDegrees>
              <LongitudeDegrees>-3.5593119822442531585693359375</LongitudeDegrees>
            </Position>
            <AltitudeMeters>64.59999847412109375</AltitudeMeters>
            <DistanceMeters>NAN</DistanceMeters>
          </Trackpoint>
          <Trackpoint>
            <Time>2022-07-13T11:40:00.000Z</Time>
            <Position>
              <LatitudeDegrees>43.45827807672321796417236328125</LatitudeDegrees>
              <LongitudeDegrees>-3.559400327503681182861328125</LongitudeDegrees>
            </Position>
            <AltitudeMeters>64.59999847412109375</AltitudeMeters>
            <DistanceMeters>NAN</DistanceMeters>
          </Trackpoint>
          <Trackpoint>
            <Time>2022-07-13T11:40:02.000Z</Time>
            <Position>
              <LatitudeDegrees>43.45827556215226650238037109375</LatitudeDegrees>
              <LongitudeDegrees>-3.55948372744023799896240234375</LongitudeDegrees>
            </Position>
            <AltitudeMeters>64.59999847412109375</AltitudeMeters>
            <DistanceMeters>NAN</DistanceMeters>
          </Trackpoint>
          <Trackpoint>
            <Time>2022-07-13T11:40:05.000Z</Time>
            <Position>
              <LatitudeDegrees>43.4582622349262237548828125</LatitudeDegrees>
              <LongitudeDegrees>-3.55961297638714313507080078125</LongitudeDegrees>
            </Position>
            <AltitudeMeters>64.59999847412109375</AltitudeMeters>
            <DistanceMeters>NAN</DistanceMeters>
          </Trackpoint>
          <Trackpoint>
            <Time>2022-07-13T11:40:07.000Z</Time>
            <Position>
              <LatitudeDegrees>43.458247147500514984130859375</LatitudeDegrees>
              <LongitudeDegrees>-3.559701740741729736328125</LongitudeDegrees>
            </Position>
            <AltitudeMeters>64.59999847412109375</AltitudeMeters>
            <DistanceMeters>NAN</DistanceMeters>
          </Trackpoint>
          <Trackpoint>
            <Time>2022-07-13T11:40:15.000Z</Time>
            <Position>
              <LatitudeDegrees>43.4581645019352436065673828125</LatitudeDegrees>
              <LongitudeDegrees>-3.56009527109563350677490234375</LongitudeDegrees>
            </Position>
            <AltitudeMeters>64.59999847412109375</AltitudeMeters>
            <DistanceMeters>NAN</DistanceMeters>
          </Trackpoint>
          <Trackpoint>
            <Time>2022-07-13T11:40:18.000Z</Time>
            <Position>
              <LatitudeDegrees>43.458133824169635772705078125</LatitudeDegrees>
              <LongitudeDegrees>-3.5602457262575626373291015625</LongitudeDegrees>
            </Position>
            <AltitudeMeters>64.40000152587890625</AltitudeMeters>
            <DistanceMeters>NAN</DistanceMeters>
          </Trackpoint>
          <Trackpoint>
            <Time>2022-07-13T11:40:21.000Z</Time>
            <Position>
              <LatitudeDegrees>43.458116389811038970947265625</LatitudeDegrees>
              <LongitudeDegrees>-3.5603805072605609893798828125</LongitudeDegrees>
            </Position>
            <AltitudeMeters>64.40000152587890625</AltitudeMeters>
            <DistanceMeters>NAN</DistanceMeters>
          </Trackpoint>
          <Trackpoint>
            <Time>2022-07-13T11:40:23.000Z</Time>
            <Position>
              <LatitudeDegrees>43.4581093490123748779296875</LatitudeDegrees>
              <LongitudeDegrees>-3.560474552214145660400390625</LongitudeDegrees>
            </Position>
            <AltitudeMeters>64.59999847412109375</AltitudeMeters>
            <DistanceMeters>NAN</DistanceMeters>
          </Trackpoint>
          <Trackpoint>
            <Time>2022-07-13T11:40:30.000Z</Time>
            <Position>
              <LatitudeDegrees>43.45806031487882137298583984375</LatitudeDegrees>
              <LongitudeDegrees>-3.56081024743616580963134765625</LongitudeDegrees>
            </Position>
            <AltitudeMeters>64.40000152587890625</AltitudeMeters>
            <DistanceMeters>NAN</DistanceMeters>
          </Trackpoint>
          <Trackpoint>
            <Time>2022-07-13T11:40:34.000Z</Time>
            <Position>
              <LatitudeDegrees>43.45803081057965755462646484375</LatitudeDegrees>
              <LongitudeDegrees>-3.5610195435583591461181640625</LongitudeDegrees>
            </Position>
            <AltitudeMeters>64.1999969482421875</AltitudeMeters>
            <DistanceMeters>NAN</DistanceMeters>
          </Trackpoint>
          <Trackpoint>
            <Time>2022-07-13T11:40:38.000Z</Time>
            <Position>
              <LatitudeDegrees>43.458011783659458160400390625</LatitudeDegrees>
              <LongitudeDegrees>-3.56122531928122043609619140625</LongitudeDegrees>
            </Position>
            <AltitudeMeters>64.1999969482421875</AltitudeMeters>
            <DistanceMeters>NAN</DistanceMeters>
          </Trackpoint>
          <Trackpoint>
            <Time>2022-07-13T11:40:45.000Z</Time>
            <Position>
              <LatitudeDegrees>43.45795185305178165435791015625</LatitudeDegrees>
              <LongitudeDegrees>-3.56156411580741405487060546875</LongitudeDegrees>
            </Position>
            <AltitudeMeters>64.8000030517578125</AltitudeMeters>
            <DistanceMeters>NAN</DistanceMeters>
          </Trackpoint>
          <Trackpoint>
            <Time>2022-07-13T11:40:47.000Z</Time>
            <Position>
              <LatitudeDegrees>43.4579388611018657684326171875</LatitudeDegrees>
              <LongitudeDegrees>-3.5616589151322841644287109375</LongitudeDegrees>
            </Position>
            <AltitudeMeters>64.8000030517578125</AltitudeMeters>
            <DistanceMeters>NAN</DistanceMeters>
          </Trackpoint>
          <Trackpoint>
            <Time>2022-07-13T11:40:48.000Z</Time>
            <Position>
              <LatitudeDegrees>43.457936346530914306640625</LatitudeDegrees>
              <LongitudeDegrees>-3.5616921074688434600830078125</LongitudeDegrees>
            </Position>
            <AltitudeMeters>64.8000030517578125</AltitudeMeters>
            <DistanceMeters>NAN</DistanceMeters>
          </Trackpoint>
          <Trackpoint>
            <Time>2022-07-13T11:40:53.000Z</Time>
            <Position>
              <LatitudeDegrees>43.45792788080871105194091796875</LatitudeDegrees>
              <LongitudeDegrees>-3.56185195036232471466064453125</LongitudeDegrees>
            </Position>
            <AltitudeMeters>65</AltitudeMeters>
            <DistanceMeters>NAN</DistanceMeters>
          </Trackpoint>
          <Trackpoint>
            <Time>2022-07-13T11:40:56.000Z</Time>
            <Position>
              <LatitudeDegrees>43.4579251147806644439697265625</LatitudeDegrees>
              <LongitudeDegrees>-3.5618630982935428619384765625</LongitudeDegrees>
            </Position>
            <AltitudeMeters>65.1999969482421875</AltitudeMeters>
            <DistanceMeters>NAN</DistanceMeters>
          </Trackpoint>
          <Trackpoint>
            <Time>2022-07-13T11:41:15.000Z</Time>
            <Position>
              <LatitudeDegrees>43.457922600209712982177734375</LatitudeDegrees>
              <LongitudeDegrees>-3.56194264255464076995849609375</LongitudeDegrees>
            </Position>
            <AltitudeMeters>64.8000030517578125</AltitudeMeters>
            <DistanceMeters>NAN</DistanceMeters>
          </Trackpoint>
          <Trackpoint>
            <Time>2022-07-13T11:41:17.000Z</Time>
            <Position>
              <LatitudeDegrees>43.45790843479335308074951171875</LatitudeDegrees>
              <LongitudeDegrees>-3.56202679686248302459716796875</LongitudeDegrees>
            </Position>
            <AltitudeMeters>64.59999847412109375</AltitudeMeters>
            <DistanceMeters>NAN</DistanceMeters>
          </Trackpoint>
          <Trackpoint>
            <Time>2022-07-13T11:41:21.000Z</Time>
            <Position>
              <LatitudeDegrees>43.4578895755112171173095703125</LatitudeDegrees>
              <LongitudeDegrees>-3.56220197863876819610595703125</LongitudeDegrees>
            </Position>
            <AltitudeMeters>64.40000152587890625</AltitudeMeters>
            <DistanceMeters>NAN</DistanceMeters>
          </Trackpoint>
          <Trackpoint>
            <Time>2022-07-13T11:41:28.000Z</Time>
            <Position>
              <LatitudeDegrees>43.4578604064881801605224609375</LatitudeDegrees>
              <LongitudeDegrees>-3.56254421174526214599609375</LongitudeDegrees>
            </Position>
            <AltitudeMeters>64.1999969482421875</AltitudeMeters>
            <DistanceMeters>NAN</DistanceMeters>
          </Trackpoint>
          <Trackpoint>
            <Time>2022-07-13T11:41:32.000Z</Time>
            <Position>
              <LatitudeDegrees>43.457839787006378173828125</LatitudeDegrees>
              <LongitudeDegrees>-3.56275183148682117462158203125</LongitudeDegrees>
            </Position>
            <AltitudeMeters>64</AltitudeMeters>
            <DistanceMeters>NAN</DistanceMeters>
          </Trackpoint>
          <Trackpoint>
            <Time>2022-07-13T11:41:36.000Z</Time>
            <Position>
              <LatitudeDegrees>43.45781807787716388702392578125</LatitudeDegrees>
              <LongitudeDegrees>-3.56298987753689289093017578125</LongitudeDegrees>
            </Position>
            <AltitudeMeters>63</AltitudeMeters>
            <DistanceMeters>NAN</DistanceMeters>
          </Trackpoint>
          <Trackpoint>
            <Time>2022-07-13T11:41:41.000Z</Time>
            <Position>
              <LatitudeDegrees>43.45778840593993663787841796875</LatitudeDegrees>
              <LongitudeDegrees>-3.56336488388478755950927734375</LongitudeDegrees>
            </Position>
            <AltitudeMeters>62.200000762939453125</AltitudeMeters>
            <DistanceMeters>NAN</DistanceMeters>
          </Trackpoint>
          <Trackpoint>
            <Time>2022-07-13T11:41:44.000Z</Time>
            <Position>
              <LatitudeDegrees>43.4577863104641437530517578125</LatitudeDegrees>
              <LongitudeDegrees>-3.563586585223674774169921875</LongitudeDegrees>
            </Position>
            <AltitudeMeters>61.799999237060546875</AltitudeMeters>
            <DistanceMeters>NAN</DistanceMeters>
          </Trackpoint>
          <Trackpoint>
            <Time>2022-07-13T11:41:48.000Z</Time>
            <Position>
              <LatitudeDegrees>43.45777197740972042083740234375</LatitudeDegrees>
              <LongitudeDegrees>-3.5638636909425258636474609375</LongitudeDegrees>
            </Position>
            <AltitudeMeters>61</AltitudeMeters>
            <DistanceMeters>NAN</DistanceMeters>
          </Trackpoint>
          <Trackpoint>
            <Time>2022-07-13T11:41:49.000Z</Time>
            <Position>
              <LatitudeDegrees>43.45776401460170745849609375</LatitudeDegrees>
              <LongitudeDegrees>-3.5639248788356781005859375</LongitudeDegrees>
            </Position>
            <AltitudeMeters>61</AltitudeMeters>
            <DistanceMeters>NAN</DistanceMeters>
          </Trackpoint>
          <Trackpoint>
            <Time>2022-07-13T11:41:55.000Z</Time>
            <Position>
              <LatitudeDegrees>43.457769043743610382080078125</LatitudeDegrees>
              <LongitudeDegrees>-3.56422352604568004608154296875</LongitudeDegrees>
            </Position>
            <AltitudeMeters>61.40000152587890625</AltitudeMeters>
            <DistanceMeters>NAN</DistanceMeters>
          </Trackpoint>
          <Trackpoint>
            <Time>2022-07-13T11:42:00.000Z</Time>
            <Position>
              <LatitudeDegrees>43.45777097158133983612060546875</LatitudeDegrees>
              <LongitudeDegrees>-3.56441463343799114227294921875</LongitudeDegrees>
            </Position>
            <AltitudeMeters>62.200000762939453125</AltitudeMeters>
            <DistanceMeters>NAN</DistanceMeters>
          </Trackpoint>
          <Trackpoint>
            <Time>2022-07-13T11:42:06.000Z</Time>
            <Position>
              <LatitudeDegrees>43.45776141621172428131103515625</LatitudeDegrees>
              <LongitudeDegrees>-3.56467916630208492279052734375</LongitudeDegrees>
            </Position>
            <AltitudeMeters>62.40000152587890625</AltitudeMeters>
            <DistanceMeters>NAN</DistanceMeters>
          </Trackpoint>
          <Trackpoint>
            <Time>2022-07-13T11:42:13.000Z</Time>
            <Position>
              <LatitudeDegrees>43.45774834044277667999267578125</LatitudeDegrees>
              <LongitudeDegrees>-3.56501377187669277191162109375</LongitudeDegrees>
            </Position>
            <AltitudeMeters>62</AltitudeMeters>
            <DistanceMeters>NAN</DistanceMeters>
          </Trackpoint>
          <Trackpoint>
            <Time>2022-07-13T11:42:19.000Z</Time>
            <Position>
              <LatitudeDegrees>43.45770240761339664459228515625</LatitudeDegrees>
              <LongitudeDegrees>-3.5652976669371128082275390625</LongitudeDegrees>
            </Position>
            <AltitudeMeters>61.59999847412109375</AltitudeMeters>
            <DistanceMeters>NAN</DistanceMeters>
          </Trackpoint>
          <Trackpoint>
            <Time>2022-07-13T11:42:24.000Z</Time>
            <Position>
              <LatitudeDegrees>43.45766988582909107208251953125</LatitudeDegrees>
              <LongitudeDegrees>-3.565540574491024017333984375</LongitudeDegrees>
            </Position>
            <AltitudeMeters>62</AltitudeMeters>
            <DistanceMeters>NAN</DistanceMeters>
          </Trackpoint>
          <Trackpoint>
            <Time>2022-07-13T11:42:28.000Z</Time>
            <Position>
              <LatitudeDegrees>43.457630574703216552734375</LatitudeDegrees>
              <LongitudeDegrees>-3.565725982189178466796875</LongitudeDegrees>
            </Position>
            <AltitudeMeters>61.59999847412109375</AltitudeMeters>
            <DistanceMeters>NAN</DistanceMeters>
          </Trackpoint>
          <Trackpoint>
            <Time>2022-07-13T11:42:36.000Z</Time>
            <Position>
              <LatitudeDegrees>43.4575361944735050201416015625</LatitudeDegrees>
              <LongitudeDegrees>-3.56611683033406734466552734375</LongitudeDegrees>
            </Position>
            <AltitudeMeters>61.200000762939453125</AltitudeMeters>
            <DistanceMeters>NAN</DistanceMeters>
          </Trackpoint>
          <Trackpoint>
            <Time>2022-07-13T11:42:40.000Z</Time>
            <Position>
              <LatitudeDegrees>43.45750962384045124053955078125</LatitudeDegrees>
              <LongitudeDegrees>-3.56634381227195262908935546875</LongitudeDegrees>
            </Position>
            <AltitudeMeters>60.59999847412109375</AltitudeMeters>
            <DistanceMeters>NAN</DistanceMeters>
          </Trackpoint>
          <Trackpoint>
            <Time>2022-07-13T11:42:41.000Z</Time>
            <Position>
              <LatitudeDegrees>43.4575045108795166015625</LatitudeDegrees>
              <LongitudeDegrees>-3.56640399433672428131103515625</LongitudeDegrees>
            </Position>
            <AltitudeMeters>60.59999847412109375</AltitudeMeters>
            <DistanceMeters>NAN</DistanceMeters>
          </Trackpoint>
          <Trackpoint>
            <Time>2022-07-13T11:42:45.000Z</Time>
            <Position>
              <LatitudeDegrees>43.45747207291424274444580078125</LatitudeDegrees>
              <LongitudeDegrees>-3.56667171232402324676513671875</LongitudeDegrees>
            </Position>
            <AltitudeMeters>59.59999847412109375</AltitudeMeters>
            <DistanceMeters>NAN</DistanceMeters>
          </Trackpoint>
          <Trackpoint>
            <Time>2022-07-13T11:42:46.000Z</Time>
            <Position>
              <LatitudeDegrees>43.457453884184360504150390625</LatitudeDegrees>
              <LongitudeDegrees>-3.5667406953871250152587890625</LongitudeDegrees>
            </Position>
            <AltitudeMeters>59.40000152587890625</AltitudeMeters>
            <DistanceMeters>NAN</DistanceMeters>
          </Trackpoint>
          <Trackpoint>
            <Time>2022-07-13T11:42:49.000Z</Time>
            <Position>
              <LatitudeDegrees>43.45739529468119144439697265625</LatitudeDegrees>
              <LongitudeDegrees>-3.566921241581439971923828125</LongitudeDegrees>
            </Position>
            <AltitudeMeters>58.59999847412109375</AltitudeMeters>
            <DistanceMeters>NAN</DistanceMeters>
          </Trackpoint>
          <Trackpoint>
            <Time>2022-07-13T11:42:50.000Z</Time>
            <Position>
              <LatitudeDegrees>43.4573672153055667877197265625</LatitudeDegrees>
              <LongitudeDegrees>-3.56697211973369121551513671875</LongitudeDegrees>
            </Position>
            <AltitudeMeters>58.59999847412109375</AltitudeMeters>
            <DistanceMeters>NAN</DistanceMeters>
          </Trackpoint>
          <Trackpoint>
            <Time>2022-07-13T11:42:52.000Z</Time>
            <Position>
              <LatitudeDegrees>43.4573092125356197357177734375</LatitudeDegrees>
              <LongitudeDegrees>-3.56707102619111537933349609375</LongitudeDegrees>
            </Position>
            <AltitudeMeters>58</AltitudeMeters>
            <DistanceMeters>NAN</DistanceMeters>
          </Trackpoint>
          <Trackpoint>
            <Time>2022-07-13T11:42:53.000Z</Time>
            <Position>
              <LatitudeDegrees>43.45727694220840930938720703125</LatitudeDegrees>
              <LongitudeDegrees>-3.56711846776306629180908203125</LongitudeDegrees>
            </Position>
            <AltitudeMeters>57.799999237060546875</AltitudeMeters>
            <DistanceMeters>NAN</DistanceMeters>
          </Trackpoint>
          <Trackpoint>
            <Time>2022-07-13T11:42:55.000Z</Time>
            <Position>
              <LatitudeDegrees>43.45721642486751079559326171875</LatitudeDegrees>
              <LongitudeDegrees>-3.56721485964953899383544921875</LongitudeDegrees>
            </Position>
            <AltitudeMeters>57.59999847412109375</AltitudeMeters>
            <DistanceMeters>NAN</DistanceMeters>
          </Trackpoint>
          <Trackpoint>
            <Time>2022-07-13T11:42:57.000Z</Time>
            <Position>
              <LatitudeDegrees>43.457156158983707427978515625</LatitudeDegrees>
              <LongitudeDegrees>-3.56731929816305637359619140625</LongitudeDegrees>
            </Position>
            <AltitudeMeters>57.200000762939453125</AltitudeMeters>
            <DistanceMeters>NAN</DistanceMeters>
          </Trackpoint>
          <Trackpoint>
            <Time>2022-07-13T11:43:00.000Z</Time>
            <Position>
              <LatitudeDegrees>43.45707594417035579681396484375</LatitudeDegrees>
              <LongitudeDegrees>-3.5675051249563694000244140625</LongitudeDegrees>
            </Position>
            <AltitudeMeters>56.59999847412109375</AltitudeMeters>
            <DistanceMeters>NAN</DistanceMeters>
          </Trackpoint>
          <Trackpoint>
            <Time>2022-07-13T11:43:01.000Z</Time>
            <Position>
              <LatitudeDegrees>43.4570507146418094635009765625</LatitudeDegrees>
              <LongitudeDegrees>-3.56756740249693393707275390625</LongitudeDegrees>
            </Position>
            <AltitudeMeters>56.40000152587890625</AltitudeMeters>
            <DistanceMeters>NAN</DistanceMeters>
          </Trackpoint>
          <Trackpoint>
            <Time>2022-07-13T11:43:09.000Z</Time>
            <Position>
              <LatitudeDegrees>43.45684762112796306610107421875</LatitudeDegrees>
              <LongitudeDegrees>-3.56812379322946071624755859375</LongitudeDegrees>
            </Position>
            <AltitudeMeters>55.59999847412109375</AltitudeMeters>
            <DistanceMeters>NAN</DistanceMeters>
          </Trackpoint>
          <Trackpoint>
            <Time>2022-07-13T11:43:10.000Z</Time>
            <Position>
              <LatitudeDegrees>43.45682800747454166412353515625</LatitudeDegrees>
              <LongitudeDegrees>-3.5682008229196071624755859375</LongitudeDegrees>
            </Position>
            <AltitudeMeters>55.200000762939453125</AltitudeMeters>
            <DistanceMeters>NAN</DistanceMeters>
          </Trackpoint>
          <Trackpoint>
            <Time>2022-07-13T11:43:11.000Z</Time>
            <Position>
              <LatitudeDegrees>43.4568166919052600860595703125</LatitudeDegrees>
              <LongitudeDegrees>-3.56827449984848499298095703125</LongitudeDegrees>
            </Position>
            <AltitudeMeters>55</AltitudeMeters>
            <DistanceMeters>NAN</DistanceMeters>
          </Trackpoint>
          <Trackpoint>
            <Time>2022-07-13T11:43:13.000Z</Time>
            <Position>
              <LatitudeDegrees>43.456804789602756500244140625</LatitudeDegrees>
              <LongitudeDegrees>-3.568413555622100830078125</LongitudeDegrees>
            </Position>
            <AltitudeMeters>55</AltitudeMeters>
            <DistanceMeters>NAN</DistanceMeters>
          </Trackpoint>
          <Trackpoint>
            <Time>2022-07-13T11:43:14.000Z</Time>
            <Position>
              <LatitudeDegrees>43.45679464749991893768310546875</LatitudeDegrees>
              <LongitudeDegrees>-3.56848019175231456756591796875</LongitudeDegrees>
            </Position>
            <AltitudeMeters>55</AltitudeMeters>
            <DistanceMeters>NAN</DistanceMeters>
          </Trackpoint>
          <Trackpoint>
            <Time>2022-07-13T11:43:16.000Z</Time>
            <Position>
              <LatitudeDegrees>43.45675910823047161102294921875</LatitudeDegrees>
              <LongitudeDegrees>-3.5685977898538112640380859375</LongitudeDegrees>
            </Position>
            <AltitudeMeters>55</AltitudeMeters>
            <DistanceMeters>NAN</DistanceMeters>
          </Trackpoint>
          <Trackpoint>
            <Time>2022-07-13T11:43:17.000Z</Time>
            <Position>
              <LatitudeDegrees>43.45673211850225925445556640625</LatitudeDegrees>
              <LongitudeDegrees>-3.568653948605060577392578125</LongitudeDegrees>
            </Position>
            <AltitudeMeters>55</AltitudeMeters>
            <DistanceMeters>NAN</DistanceMeters>
          </Trackpoint>
          <Trackpoint>
            <Time>2022-07-13T11:43:21.000Z</Time>
            <Position>
              <LatitudeDegrees>43.4566343016922473907470703125</LatitudeDegrees>
              <LongitudeDegrees>-3.5688713751733303070068359375</LongitudeDegrees>
            </Position>
            <AltitudeMeters>54.40000152587890625</AltitudeMeters>
            <DistanceMeters>NAN</DistanceMeters>
          </Trackpoint>
          <Trackpoint>
            <Time>2022-07-13T11:43:22.000Z</Time>
            <Position>
              <LatitudeDegrees>43.45661292783915996551513671875</LatitudeDegrees>
              <LongitudeDegrees>-3.5689280368387699127197265625</LongitudeDegrees>
            </Position>
            <AltitudeMeters>54.200000762939453125</AltitudeMeters>
            <DistanceMeters>NAN</DistanceMeters>
          </Trackpoint>
          <Trackpoint>
            <Time>2022-07-13T11:43:24.000Z</Time>
            <Position>
              <LatitudeDegrees>43.45659398473799228668212890625</LatitudeDegrees>
              <LongitudeDegrees>-3.56898193247616291046142578125</LongitudeDegrees>
            </Position>
            <AltitudeMeters>54</AltitudeMeters>
            <DistanceMeters>NAN</DistanceMeters>
          </Trackpoint>
          <Trackpoint>
            <Time>2022-07-13T11:43:25.000Z</Time>
            <Position>
              <LatitudeDegrees>43.4565628878772258758544921875</LatitudeDegrees>
              <LongitudeDegrees>-3.56909408234059810638427734375</LongitudeDegrees>
            </Position>
            <AltitudeMeters>54</AltitudeMeters>
            <DistanceMeters>NAN</DistanceMeters>
          </Trackpoint>
          <Trackpoint>
            <Time>2022-07-13T11:43:27.000Z</Time>
            <Position>
              <LatitudeDegrees>43.4565481357276439666748046875</LatitudeDegrees>
              <LongitudeDegrees>-3.569224588572978973388671875</LongitudeDegrees>
            </Position>
            <AltitudeMeters>53.799999237060546875</AltitudeMeters>
            <DistanceMeters>NAN</DistanceMeters>
          </Trackpoint>
          <Trackpoint>
            <Time>2022-07-13T11:43:32.000Z</Time>
            <Position>
              <LatitudeDegrees>43.4565484710037708282470703125</LatitudeDegrees>
              <LongitudeDegrees>-3.5695902071893215179443359375</LongitudeDegrees>
            </Position>
            <AltitudeMeters>53.200000762939453125</AltitudeMeters>
            <DistanceMeters>NAN</DistanceMeters>
          </Trackpoint>
          <Trackpoint>
            <Time>2022-07-13T11:43:34.000Z</Time>
            <Position>
              <LatitudeDegrees>43.4565427713096141815185546875</LatitudeDegrees>
              <LongitudeDegrees>-3.56974300928413867950439453125</LongitudeDegrees>
            </Position>
            <AltitudeMeters>52.59999847412109375</AltitudeMeters>
            <DistanceMeters>NAN</DistanceMeters>
          </Trackpoint>
          <Trackpoint>
            <Time>2022-07-13T11:43:36.000Z</Time>
            <Position>
              <LatitudeDegrees>43.45653044991195201873779296875</LatitudeDegrees>
              <LongitudeDegrees>-3.5699021816253662109375</LongitudeDegrees>
            </Position>
            <AltitudeMeters>51.799999237060546875</AltitudeMeters>
            <DistanceMeters>NAN</DistanceMeters>
          </Trackpoint>
          <Trackpoint>
            <Time>2022-07-13T11:43:38.000Z</Time>
            <Position>
              <LatitudeDegrees>43.45651754178106784820556640625</LatitudeDegrees>
              <LongitudeDegrees>-3.57005280442535877227783203125</LongitudeDegrees>
            </Position>
            <AltitudeMeters>51.200000762939453125</AltitudeMeters>
            <DistanceMeters>NAN</DistanceMeters>
          </Trackpoint>
          <Trackpoint>
            <Time>2022-07-13T11:43:39.000Z</Time>
            <Position>
              <LatitudeDegrees>43.45652089454233646392822265625</LatitudeDegrees>
              <LongitudeDegrees>-3.5701261460781097412109375</LongitudeDegrees>
            </Position>
            <AltitudeMeters>50.799999237060546875</AltitudeMeters>
            <DistanceMeters>NAN</DistanceMeters>
          </Trackpoint>
          <Trackpoint>
            <Time>2022-07-13T11:43:40.000Z</Time>
            <Position>
              <LatitudeDegrees>43.45653556287288665771484375</LatitudeDegrees>
              <LongitudeDegrees>-3.570190854370594024658203125</LongitudeDegrees>
            </Position>
            <AltitudeMeters>50.59999847412109375</AltitudeMeters>
            <DistanceMeters>NAN</DistanceMeters>
          </Trackpoint>
          <Trackpoint>
            <Time>2022-07-13T11:43:42.000Z</Time>
            <Position>
              <LatitudeDegrees>43.45659616403281688690185546875</LatitudeDegrees>
              <LongitudeDegrees>-3.57026201672852039337158203125</LongitudeDegrees>
            </Position>
            <AltitudeMeters>50.59999847412109375</AltitudeMeters>
            <DistanceMeters>NAN</DistanceMeters>
          </Trackpoint>
          <Trackpoint>
            <Time>2022-07-13T11:43:46.000Z</Time>
            <Position>
              <LatitudeDegrees>43.45671786926686763763427734375</LatitudeDegrees>
              <LongitudeDegrees>-3.57024349272251129150390625</LongitudeDegrees>
            </Position>
            <AltitudeMeters>51.40000152587890625</AltitudeMeters>
            <DistanceMeters>NAN</DistanceMeters>
          </Trackpoint>
          <Trackpoint>
            <Time>2022-07-13T11:43:50.000Z</Time>
            <Position>
              <LatitudeDegrees>43.4568250738084316253662109375</LatitudeDegrees>
              <LongitudeDegrees>-3.57022681273519992828369140625</LongitudeDegrees>
            </Position>
            <AltitudeMeters>52</AltitudeMeters>
            <DistanceMeters>NAN</DistanceMeters>
          </Trackpoint>
          <Trackpoint>
            <Time>2022-07-13T11:43:54.000Z</Time>
            <Position>
              <LatitudeDegrees>43.4569407440721988677978515625</LatitudeDegrees>
              <LongitudeDegrees>-3.57022815383970737457275390625</LongitudeDegrees>
            </Position>
            <AltitudeMeters>52.799999237060546875</AltitudeMeters>
            <DistanceMeters>NAN</DistanceMeters>
          </Trackpoint>
          <Trackpoint>
            <Time>2022-07-13T11:43:56.000Z</Time>
            <Position>
              <LatitudeDegrees>43.45699229277670383453369140625</LatitudeDegrees>
              <LongitudeDegrees>-3.5702232085168361663818359375</LongitudeDegrees>
            </Position>
            <AltitudeMeters>53.200000762939453125</AltitudeMeters>
            <DistanceMeters>NAN</DistanceMeters>
          </Trackpoint>
          <Trackpoint>
            <Time>2022-07-13T11:44:03.000Z</Time>
            <Position>
              <LatitudeDegrees>43.45715791918337345123291015625</LatitudeDegrees>
              <LongitudeDegrees>-3.5702976398169994354248046875</LongitudeDegrees>
            </Position>
            <AltitudeMeters>53.59999847412109375</AltitudeMeters>
            <DistanceMeters>NAN</DistanceMeters>
          </Trackpoint>
          <Trackpoint>
            <Time>2022-07-13T11:44:08.000Z</Time>
            <Position>
              <LatitudeDegrees>43.45720938406884670257568359375</LatitudeDegrees>
              <LongitudeDegrees>-3.57044843025505542755126953125</LongitudeDegrees>
            </Position>
            <AltitudeMeters>53.799999237060546875</AltitudeMeters>
            <DistanceMeters>NAN</DistanceMeters>
          </Trackpoint>
          <Trackpoint>
            <Time>2022-07-13T11:44:10.000Z</Time>
            <Position>
              <LatitudeDegrees>43.45721860416233539581298828125</LatitudeDegrees>
              <LongitudeDegrees>-3.5705232806503772735595703125</LongitudeDegrees>
            </Position>
            <AltitudeMeters>54.40000152587890625</AltitudeMeters>
            <DistanceMeters>NAN</DistanceMeters>
          </Trackpoint>
          <Trackpoint>
            <Time>2022-07-13T11:44:16.000Z</Time>
            <Position>
              <LatitudeDegrees>43.45724274404346942901611328125</LatitudeDegrees>
              <LongitudeDegrees>-3.57074774801731109619140625</LongitudeDegrees>
            </Position>
            <AltitudeMeters>55.200000762939453125</AltitudeMeters>
            <DistanceMeters>NAN</DistanceMeters>
          </Trackpoint>
          <Trackpoint>
            <Time>2022-07-13T11:44:19.000Z</Time>
            <Position>
              <LatitudeDegrees>43.45726571045815944671630859375</LatitudeDegrees>
              <LongitudeDegrees>-3.5708602331578731536865234375</LongitudeDegrees>
            </Position>
            <AltitudeMeters>55.40000152587890625</AltitudeMeters>
            <DistanceMeters>NAN</DistanceMeters>
          </Trackpoint>
          <Trackpoint>
            <Time>2022-07-13T11:44:23.000Z</Time>
            <Position>
              <LatitudeDegrees>43.45729605294764041900634765625</LatitudeDegrees>
              <LongitudeDegrees>-3.570977747440338134765625</LongitudeDegrees>
            </Position>
            <AltitudeMeters>55.59999847412109375</AltitudeMeters>
            <DistanceMeters>NAN</DistanceMeters>
          </Trackpoint>
          <Trackpoint>
            <Time>2022-07-13T11:44:25.000Z</Time>
            <Position>
              <LatitudeDegrees>43.457311056554317474365234375</LatitudeDegrees>
              <LongitudeDegrees>-3.57102242298424243927001953125</LongitudeDegrees>
            </Position>
            <AltitudeMeters>55.799999237060546875</AltitudeMeters>
            <DistanceMeters>NAN</DistanceMeters>
          </Trackpoint>
          <Trackpoint>
            <Time>2022-07-13T11:44:33.000Z</Time>
            <Position>
              <LatitudeDegrees>43.4573792852461338043212890625</LatitudeDegrees>
              <LongitudeDegrees>-3.57123591005802154541015625</LongitudeDegrees>
            </Position>
            <AltitudeMeters>56.40000152587890625</AltitudeMeters>
            <DistanceMeters>NAN</DistanceMeters>
          </Trackpoint>
          <Trackpoint>
            <Time>2022-07-13T11:44:35.000Z</Time>
            <Position>
              <LatitudeDegrees>43.45738339237868785858154296875</LatitudeDegrees>
              <LongitudeDegrees>-3.57129299081861972808837890625</LongitudeDegrees>
            </Position>
            <AltitudeMeters>56.200000762939453125</AltitudeMeters>
            <DistanceMeters>NAN</DistanceMeters>
          </Trackpoint>
          <Trackpoint>
            <Time>2022-07-13T11:44:39.000Z</Time>
            <Position>
              <LatitudeDegrees>43.4574030898511409759521484375</LatitudeDegrees>
              <LongitudeDegrees>-3.5714090801775455474853515625</LongitudeDegrees>
            </Position>
            <AltitudeMeters>56.40000152587890625</AltitudeMeters>
            <DistanceMeters>NAN</DistanceMeters>
          </Trackpoint>
          <Trackpoint>
            <Time>2022-07-13T11:44:44.000Z</Time>
            <Position>
              <LatitudeDegrees>43.45740065909922122955322265625</LatitudeDegrees>
              <LongitudeDegrees>-3.571584932506084442138671875</LongitudeDegrees>
            </Position>
            <AltitudeMeters>56.799999237060546875</AltitudeMeters>
            <DistanceMeters>NAN</DistanceMeters>
          </Trackpoint>
          <Trackpoint>
            <Time>2022-07-13T11:44:52.000Z</Time>
            <Position>
              <LatitudeDegrees>43.45739613287150859832763671875</LatitudeDegrees>
              <LongitudeDegrees>-3.57190780341625213623046875</LongitudeDegrees>
            </Position>
            <AltitudeMeters>57.200000762939453125</AltitudeMeters>
            <DistanceMeters>NAN</DistanceMeters>
          </Trackpoint>
          <Trackpoint>
            <Time>2022-07-13T11:44:58.000Z</Time>
            <Position>
              <LatitudeDegrees>43.4574039280414581298828125</LatitudeDegrees>
              <LongitudeDegrees>-3.572187088429927825927734375</LongitudeDegrees>
            </Position>
            <AltitudeMeters>57</AltitudeMeters>
            <DistanceMeters>NAN</DistanceMeters>
          </Trackpoint>
          <Trackpoint>
            <Time>2022-07-13T11:45:03.000Z</Time>
            <Position>
              <LatitudeDegrees>43.45747056417167186737060546875</LatitudeDegrees>
              <LongitudeDegrees>-3.5724320076406002044677734375</LongitudeDegrees>
            </Position>
            <AltitudeMeters>57.200000762939453125</AltitudeMeters>
            <DistanceMeters>NAN</DistanceMeters>
          </Trackpoint>
          <Trackpoint>
            <Time>2022-07-13T11:45:06.000Z</Time>
            <Position>
              <LatitudeDegrees>43.45754382200539112091064453125</LatitudeDegrees>
              <LongitudeDegrees>-3.57254357077181339263916015625</LongitudeDegrees>
            </Position>
            <AltitudeMeters>57.200000762939453125</AltitudeMeters>
            <DistanceMeters>NAN</DistanceMeters>
          </Trackpoint>
          <Trackpoint>
            <Time>2022-07-13T11:45:08.000Z</Time>
            <Position>
              <LatitudeDegrees>43.45758489333093166351318359375</LatitudeDegrees>
              <LongitudeDegrees>-3.57260643504559993743896484375</LongitudeDegrees>
            </Position>
            <AltitudeMeters>57.40000152587890625</AltitudeMeters>
            <DistanceMeters>NAN</DistanceMeters>
          </Trackpoint>
          <Trackpoint>
            <Time>2022-07-13T11:45:11.000Z</Time>
            <Position>
              <LatitudeDegrees>43.45763518474996089935302734375</LatitudeDegrees>
              <LongitudeDegrees>-3.572696708142757415771484375</LongitudeDegrees>
            </Position>
            <AltitudeMeters>57.40000152587890625</AltitudeMeters>
            <DistanceMeters>NAN</DistanceMeters>
          </Trackpoint>
          <Trackpoint>
            <Time>2022-07-13T11:45:17.000Z</Time>
            <Position>
              <LatitudeDegrees>43.4577740728855133056640625</LatitudeDegrees>
              <LongitudeDegrees>-3.572898544371128082275390625</LongitudeDegrees>
            </Position>
            <AltitudeMeters>57.200000762939453125</AltitudeMeters>
            <DistanceMeters>NAN</DistanceMeters>
          </Trackpoint>
          <Trackpoint>
            <Time>2022-07-13T11:45:19.000Z</Time>
            <Position>
              <LatitudeDegrees>43.45782704651355743408203125</LatitudeDegrees>
              <LongitudeDegrees>-3.57298739254474639892578125</LongitudeDegrees>
            </Position>
            <AltitudeMeters>57.200000762939453125</AltitudeMeters>
            <DistanceMeters>NAN</DistanceMeters>
          </Trackpoint>
          <Trackpoint>
            <Time>2022-07-13T11:45:22.000Z</Time>
            <Position>
              <LatitudeDegrees>43.45792436040937900543212890625</LatitudeDegrees>
              <LongitudeDegrees>-3.57314555905759334564208984375</LongitudeDegrees>
            </Position>
            <AltitudeMeters>57.200000762939453125</AltitudeMeters>
            <DistanceMeters>NAN</DistanceMeters>
          </Trackpoint>
          <Trackpoint>
            <Time>2022-07-13T11:45:27.000Z</Time>
            <Position>
              <LatitudeDegrees>43.45807288773357868194580078125</LatitudeDegrees>
              <LongitudeDegrees>-3.57337974943220615386962890625</LongitudeDegrees>
            </Position>
            <AltitudeMeters>56.40000152587890625</AltitudeMeters>
            <DistanceMeters>NAN</DistanceMeters>
          </Trackpoint>
          <Trackpoint>
            <Time>2022-07-13T11:45:33.000Z</Time>
            <Position>
              <LatitudeDegrees>43.45817732624709606170654296875</LatitudeDegrees>
              <LongitudeDegrees>-3.57353833504021167755126953125</LongitudeDegrees>
            </Position>
            <AltitudeMeters>57.200000762939453125</AltitudeMeters>
            <DistanceMeters>NAN</DistanceMeters>
          </Trackpoint>
          <Trackpoint>
            <Time>2022-07-13T11:45:36.000Z</Time>
            <Position>
              <LatitudeDegrees>43.4582174755632877349853515625</LatitudeDegrees>
              <LongitudeDegrees>-3.5735816694796085357666015625</LongitudeDegrees>
            </Position>
            <AltitudeMeters>57.40000152587890625</AltitudeMeters>
            <DistanceMeters>NAN</DistanceMeters>
          </Trackpoint>
          <Trackpoint>
            <Time>2022-07-13T11:45:40.000Z</Time>
            <Position>
              <LatitudeDegrees>43.4582613967359066009521484375</LatitudeDegrees>
              <LongitudeDegrees>-3.57365165837109088897705078125</LongitudeDegrees>
            </Position>
            <AltitudeMeters>58</AltitudeMeters>
            <DistanceMeters>NAN</DistanceMeters>
          </Trackpoint>
          <Trackpoint>
            <Time>2022-07-13T11:45:43.000Z</Time>
            <Position>
              <LatitudeDegrees>43.45828947611153125762939453125</LatitudeDegrees>
              <LongitudeDegrees>-3.57370396144688129425048828125</LongitudeDegrees>
            </Position>
            <AltitudeMeters>58.59999847412109375</AltitudeMeters>
            <DistanceMeters>NAN</DistanceMeters>
          </Trackpoint>
          <Trackpoint>
            <Time>2022-07-13T11:45:47.000Z</Time>
            <Position>
              <LatitudeDegrees>43.45830355770885944366455078125</LatitudeDegrees>
              <LongitudeDegrees>-3.57374235056340694427490234375</LongitudeDegrees>
            </Position>
            <AltitudeMeters>59</AltitudeMeters>
            <DistanceMeters>NAN</DistanceMeters>
          </Trackpoint>
          <Trackpoint>
            <Time>2022-07-13T11:46:29.000Z</Time>
            <Position>
              <LatitudeDegrees>43.45832216553390026092529296875</LatitudeDegrees>
              <LongitudeDegrees>-3.5737578570842742919921875</LongitudeDegrees>
            </Position>
            <AltitudeMeters>59.200000762939453125</AltitudeMeters>
            <DistanceMeters>NAN</DistanceMeters>
          </Trackpoint>
          <Trackpoint>
            <Time>2022-07-13T11:46:31.000Z</Time>
            <Position>
              <LatitudeDegrees>43.458357788622379302978515625</LatitudeDegrees>
              <LongitudeDegrees>-3.5737915523350238800048828125</LongitudeDegrees>
            </Position>
            <AltitudeMeters>59.40000152587890625</AltitudeMeters>
            <DistanceMeters>NAN</DistanceMeters>
          </Trackpoint>
          <Trackpoint>
            <Time>2022-07-13T11:46:32.000Z</Time>
            <Position>
              <LatitudeDegrees>43.4583750553429126739501953125</LatitudeDegrees>
              <LongitudeDegrees>-3.57380571775138378143310546875</LongitudeDegrees>
            </Position>
            <AltitudeMeters>59.59999847412109375</AltitudeMeters>
            <DistanceMeters>NAN</DistanceMeters>
          </Trackpoint>
          <Trackpoint>
            <Time>2022-07-13T11:46:39.000Z</Time>
            <Position>
              <LatitudeDegrees>43.45847471617162227630615234375</LatitudeDegrees>
              <LongitudeDegrees>-3.57390202581882476806640625</LongitudeDegrees>
            </Position>
            <AltitudeMeters>60.59999847412109375</AltitudeMeters>
            <DistanceMeters>NAN</DistanceMeters>
          </Trackpoint>
          <Trackpoint>
            <Time>2022-07-13T11:46:43.000Z</Time>
            <Position>
              <LatitudeDegrees>43.45851830206811428070068359375</LatitudeDegrees>
              <LongitudeDegrees>-3.57396497391164302825927734375</LongitudeDegrees>
            </Position>
            <AltitudeMeters>61.200000762939453125</AltitudeMeters>
            <DistanceMeters>NAN</DistanceMeters>
          </Trackpoint>
          <Trackpoint>
            <Time>2022-07-13T11:46:47.000Z</Time>
            <Position>
              <LatitudeDegrees>43.45855702646076679229736328125</LatitudeDegrees>
              <LongitudeDegrees>-3.57401895336806774139404296875</LongitudeDegrees>
            </Position>
            <AltitudeMeters>61.799999237060546875</AltitudeMeters>
            <DistanceMeters>NAN</DistanceMeters>
          </Trackpoint>
          <Trackpoint>
            <Time>2022-07-13T11:46:52.000Z</Time>
            <Position>
              <LatitudeDegrees>43.4586003609001636505126953125</LatitudeDegrees>
              <LongitudeDegrees>-3.57407645322382450103759765625</LongitudeDegrees>
            </Position>
            <AltitudeMeters>62.59999847412109375</AltitudeMeters>
            <DistanceMeters>NAN</DistanceMeters>
          </Trackpoint>
          <Trackpoint>
            <Time>2022-07-13T11:46:53.000Z</Time>
            <Position>
              <LatitudeDegrees>43.4586107544600963592529296875</LatitudeDegrees>
              <LongitudeDegrees>-3.57408248819410800933837890625</LongitudeDegrees>
            </Position>
            <AltitudeMeters>62.799999237060546875</AltitudeMeters>
            <DistanceMeters>NAN</DistanceMeters>
          </Trackpoint>
          <Trackpoint>
            <Time>2022-07-13T11:46:55.000Z</Time>
            <Position>
              <LatitudeDegrees>43.4586335532367229461669921875</LatitudeDegrees>
              <LongitudeDegrees>-3.57410411350429058074951171875</LongitudeDegrees>
            </Position>
            <AltitudeMeters>63.200000762939453125</AltitudeMeters>
            <DistanceMeters>NAN</DistanceMeters>
          </Trackpoint>
          <Trackpoint>
            <Time>2022-07-13T11:46:59.000Z</Time>
            <Position>
              <LatitudeDegrees>43.45866389572620391845703125</LatitudeDegrees>
              <LongitudeDegrees>-3.57417016290128231048583984375</LongitudeDegrees>
            </Position>
            <AltitudeMeters>63.799999237060546875</AltitudeMeters>
            <DistanceMeters>NAN</DistanceMeters>
          </Trackpoint>
          <Trackpoint>
            <Time>2022-07-13T11:47:00.000Z</Time>
            <Position>
              <LatitudeDegrees>43.45867219381034374237060546875</LatitudeDegrees>
              <LongitudeDegrees>-3.57418499886989593505859375</LongitudeDegrees>
            </Position>
            <AltitudeMeters>63.799999237060546875</AltitudeMeters>
            <DistanceMeters>NAN</DistanceMeters>
          </Trackpoint>
          <Trackpoint>
            <Time>2022-07-13T11:47:05.000Z</Time>
            <Position>
              <LatitudeDegrees>43.45871997065842151641845703125</LatitudeDegrees>
              <LongitudeDegrees>-3.5742592625319957733154296875</LongitudeDegrees>
            </Position>
            <AltitudeMeters>64.8000030517578125</AltitudeMeters>
            <DistanceMeters>NAN</DistanceMeters>
          </Trackpoint>
          <Trackpoint>
            <Time>2022-07-13T11:47:06.000Z</Time>
            <Position>
              <LatitudeDegrees>43.45872634090483188629150390625</LatitudeDegrees>
              <LongitudeDegrees>-3.5742743499577045440673828125</LongitudeDegrees>
            </Position>
            <AltitudeMeters>65</AltitudeMeters>
            <DistanceMeters>NAN</DistanceMeters>
          </Trackpoint>
          <Trackpoint>
            <Time>2022-07-13T11:47:13.000Z</Time>
            <Position>
              <LatitudeDegrees>43.45878166146576404571533203125</LatitudeDegrees>
              <LongitudeDegrees>-3.57439295388758182525634765625</LongitudeDegrees>
            </Position>
            <AltitudeMeters>65.59999847412109375</AltitudeMeters>
            <DistanceMeters>NAN</DistanceMeters>
          </Trackpoint>
          <Trackpoint>
            <Time>2022-07-13T11:47:16.000Z</Time>
            <Position>
              <LatitudeDegrees>43.4588119201362133026123046875</LatitudeDegrees>
              <LongitudeDegrees>-3.5744496993720531463623046875</LongitudeDegrees>
            </Position>
            <AltitudeMeters>65.8000030517578125</AltitudeMeters>
            <DistanceMeters>NAN</DistanceMeters>
          </Trackpoint>
          <Trackpoint>
            <Time>2022-07-13T11:47:17.000Z</Time>
            <Position>
              <LatitudeDegrees>43.45881334505975246429443359375</LatitudeDegrees>
              <LongitudeDegrees>-3.574473001062870025634765625</LongitudeDegrees>
            </Position>
            <AltitudeMeters>66</AltitudeMeters>
            <DistanceMeters>NAN</DistanceMeters>
          </Trackpoint>
          <Trackpoint>
            <Time>2022-07-13T11:47:18.000Z</Time>
            <Position>
              <LatitudeDegrees>43.45881678164005279541015625</LatitudeDegrees>
              <LongitudeDegrees>-3.5744919441640377044677734375</LongitudeDegrees>
            </Position>
            <AltitudeMeters>66</AltitudeMeters>
            <DistanceMeters>NAN</DistanceMeters>
          </Trackpoint>
          <Trackpoint>
            <Time>2022-07-13T11:47:25.000Z</Time>
            <Position>
              <LatitudeDegrees>43.4588737785816192626953125</LatitudeDegrees>
              <LongitudeDegrees>-3.57465866021811962127685546875</LongitudeDegrees>
            </Position>
            <AltitudeMeters>66.1999969482421875</AltitudeMeters>
            <DistanceMeters>NAN</DistanceMeters>
          </Trackpoint>
          <Trackpoint>
            <Time>2022-07-13T11:47:29.000Z</Time>
            <Position>
              <LatitudeDegrees>43.4588930569589138031005859375</LatitudeDegrees>
              <LongitudeDegrees>-3.57478388585150241851806640625</LongitudeDegrees>
            </Position>
            <AltitudeMeters>66.1999969482421875</AltitudeMeters>
            <DistanceMeters>NAN</DistanceMeters>
          </Trackpoint>
          <Trackpoint>
            <Time>2022-07-13T11:47:32.000Z</Time>
            <Position>
              <LatitudeDegrees>43.4589094854891300201416015625</LatitudeDegrees>
              <LongitudeDegrees>-3.574884049594402313232421875</LongitudeDegrees>
            </Position>
            <AltitudeMeters>66.40000152587890625</AltitudeMeters>
            <DistanceMeters>NAN</DistanceMeters>
          </Trackpoint>
          <Trackpoint>
            <Time>2022-07-13T11:47:34.000Z</Time>
            <Position>
              <LatitudeDegrees>43.45892884768545627593994140625</LatitudeDegrees>
              <LongitudeDegrees>-3.57496711425483226776123046875</LongitudeDegrees>
            </Position>
            <AltitudeMeters>66.40000152587890625</AltitudeMeters>
            <DistanceMeters>NAN</DistanceMeters>
          </Trackpoint>
          <Trackpoint>
            <Time>2022-07-13T11:47:36.000Z</Time>
            <Position>
              <LatitudeDegrees>43.458947204053401947021484375</LatitudeDegrees>
              <LongitudeDegrees>-3.5750498436391353607177734375</LongitudeDegrees>
            </Position>
            <AltitudeMeters>66.40000152587890625</AltitudeMeters>
            <DistanceMeters>NAN</DistanceMeters>
          </Trackpoint>
          <Trackpoint>
            <Time>2022-07-13T11:47:39.000Z</Time>
            <Position>
              <LatitudeDegrees>43.4589694999158382415771484375</LatitudeDegrees>
              <LongitudeDegrees>-3.57515419833362102508544921875</LongitudeDegrees>
            </Position>
            <AltitudeMeters>66.40000152587890625</AltitudeMeters>
            <DistanceMeters>NAN</DistanceMeters>
          </Trackpoint>
          <Trackpoint>
            <Time>2022-07-13T11:47:45.000Z</Time>
            <Position>
              <LatitudeDegrees>43.45901417545974254608154296875</LatitudeDegrees>
              <LongitudeDegrees>-3.5753438808023929595947265625</LongitudeDegrees>
            </Position>
            <AltitudeMeters>67</AltitudeMeters>
            <DistanceMeters>NAN</DistanceMeters>
          </Trackpoint>
          <Trackpoint>
            <Time>2022-07-13T11:47:46.000Z</Time>
            <Position>
              <LatitudeDegrees>43.45902406610548496246337890625</LatitudeDegrees>
              <LongitudeDegrees>-3.5753794200718402862548828125</LongitudeDegrees>
            </Position>
            <AltitudeMeters>67</AltitudeMeters>
            <DistanceMeters>NAN</DistanceMeters>
          </Trackpoint>
          <Trackpoint>
            <Time>2022-07-13T11:47:47.000Z</Time>
            <Position>
              <LatitudeDegrees>43.45903135836124420166015625</LatitudeDegrees>
              <LongitudeDegrees>-3.57541705481708049774169921875</LongitudeDegrees>
            </Position>
            <AltitudeMeters>67</AltitudeMeters>
            <DistanceMeters>NAN</DistanceMeters>
          </Trackpoint>
          <Trackpoint>
            <Time>2022-07-13T11:47:53.000Z</Time>
            <Position>
              <LatitudeDegrees>43.45908625982701778411865234375</LatitudeDegrees>
              <LongitudeDegrees>-3.575635068118572235107421875</LongitudeDegrees>
            </Position>
            <AltitudeMeters>67.40000152587890625</AltitudeMeters>
            <DistanceMeters>NAN</DistanceMeters>
          </Trackpoint>
          <Trackpoint>
            <Time>2022-07-13T11:47:59.000Z</Time>
            <Position>
              <LatitudeDegrees>43.4591227211058139801025390625</LatitudeDegrees>
              <LongitudeDegrees>-3.57594897039234638214111328125</LongitudeDegrees>
            </Position>
            <AltitudeMeters>67.59999847412109375</AltitudeMeters>
            <DistanceMeters>NAN</DistanceMeters>
          </Trackpoint>
          <Trackpoint>
            <Time>2022-07-13T11:48:03.000Z</Time>
            <Position>
              <LatitudeDegrees>43.45917225815355777740478515625</LatitudeDegrees>
              <LongitudeDegrees>-3.57626329176127910614013671875</LongitudeDegrees>
            </Position>
            <AltitudeMeters>66.59999847412109375</AltitudeMeters>
            <DistanceMeters>NAN</DistanceMeters>
          </Trackpoint>
          <Trackpoint>
            <Time>2022-07-13T11:48:04.000Z</Time>
            <Position>
              <LatitudeDegrees>43.459202013909816741943359375</LatitudeDegrees>
              <LongitudeDegrees>-3.5763493739068508148193359375</LongitudeDegrees>
            </Position>
            <AltitudeMeters>66</AltitudeMeters>
            <DistanceMeters>NAN</DistanceMeters>
          </Trackpoint>
          <Trackpoint>
            <Time>2022-07-13T11:48:05.000Z</Time>
            <Position>
              <LatitudeDegrees>43.45923897810280323028564453125</LatitudeDegrees>
              <LongitudeDegrees>-3.576430343091487884521484375</LongitudeDegrees>
            </Position>
            <AltitudeMeters>65.40000152587890625</AltitudeMeters>
            <DistanceMeters>NAN</DistanceMeters>
          </Trackpoint>
          <Trackpoint>
            <Time>2022-07-13T11:48:06.000Z</Time>
            <Position>
              <LatitudeDegrees>43.45927887596189975738525390625</LatitudeDegrees>
              <LongitudeDegrees>-3.5765046067535877227783203125</LongitudeDegrees>
            </Position>
            <AltitudeMeters>64.59999847412109375</AltitudeMeters>
            <DistanceMeters>NAN</DistanceMeters>
          </Trackpoint>
          <Trackpoint>
            <Time>2022-07-13T11:48:07.000Z</Time>
            <Position>
              <LatitudeDegrees>43.4593208692967891693115234375</LatitudeDegrees>
              <LongitudeDegrees>-3.57656856067478656768798828125</LongitudeDegrees>
            </Position>
            <AltitudeMeters>63.799999237060546875</AltitudeMeters>
            <DistanceMeters>NAN</DistanceMeters>
          </Trackpoint>
          <Trackpoint>
            <Time>2022-07-13T11:48:08.000Z</Time>
            <Position>
              <LatitudeDegrees>43.45935883931815624237060546875</LatitudeDegrees>
              <LongitudeDegrees>-3.57662840746343135833740234375</LongitudeDegrees>
            </Position>
            <AltitudeMeters>63.200000762939453125</AltitudeMeters>
            <DistanceMeters>NAN</DistanceMeters>
          </Trackpoint>
          <Trackpoint>
            <Time>2022-07-13T11:48:10.000Z</Time>
            <Position>
              <LatitudeDegrees>43.4594043530523777008056640625</LatitudeDegrees>
              <LongitudeDegrees>-3.57674072496592998504638671875</LongitudeDegrees>
            </Position>
            <AltitudeMeters>62.40000152587890625</AltitudeMeters>
            <DistanceMeters>NAN</DistanceMeters>
          </Trackpoint>
          <Trackpoint>
            <Time>2022-07-13T11:48:11.000Z</Time>
            <Position>
              <LatitudeDegrees>43.4594026766717433929443359375</LatitudeDegrees>
              <LongitudeDegrees>-3.57680208049714565277099609375</LongitudeDegrees>
            </Position>
            <AltitudeMeters>62.200000762939453125</AltitudeMeters>
            <DistanceMeters>NAN</DistanceMeters>
          </Trackpoint>
          <Trackpoint>
            <Time>2022-07-13T11:48:12.000Z</Time>
            <Position>
              <LatitudeDegrees>43.45938599668443202972412109375</LatitudeDegrees>
              <LongitudeDegrees>-3.57686544768512248992919921875</LongitudeDegrees>
            </Position>
            <AltitudeMeters>62</AltitudeMeters>
            <DistanceMeters>NAN</DistanceMeters>
          </Trackpoint>
          <Trackpoint>
            <Time>2022-07-13T11:48:15.000Z</Time>
            <Position>
              <LatitudeDegrees>43.45932799391448497772216796875</LatitudeDegrees>
              <LongitudeDegrees>-3.57708404771983623504638671875</LongitudeDegrees>
            </Position>
            <AltitudeMeters>61</AltitudeMeters>
            <DistanceMeters>NAN</DistanceMeters>
          </Trackpoint>
          <Trackpoint>
            <Time>2022-07-13T11:48:17.000Z</Time>
            <Position>
              <LatitudeDegrees>43.4592843241989612579345703125</LatitudeDegrees>
              <LongitudeDegrees>-3.57725403271615505218505859375</LongitudeDegrees>
            </Position>
            <AltitudeMeters>60.40000152587890625</AltitudeMeters>
            <DistanceMeters>NAN</DistanceMeters>
          </Trackpoint>
          <Trackpoint>
            <Time>2022-07-13T11:48:18.000Z</Time>
            <Position>
              <LatitudeDegrees>43.45926764421164989471435546875</LatitudeDegrees>
              <LongitudeDegrees>-3.57734824530780315399169921875</LongitudeDegrees>
            </Position>
            <AltitudeMeters>60</AltitudeMeters>
            <DistanceMeters>NAN</DistanceMeters>
          </Trackpoint>
          <Trackpoint>
            <Time>2022-07-13T11:48:19.000Z</Time>
            <Position>
              <LatitudeDegrees>43.4592519700527191162109375</LatitudeDegrees>
              <LongitudeDegrees>-3.57745033688843250274658203125</LongitudeDegrees>
            </Position>
            <AltitudeMeters>59.40000152587890625</AltitudeMeters>
            <DistanceMeters>NAN</DistanceMeters>
          </Trackpoint>
          <Trackpoint>
            <Time>2022-07-13T11:48:20.000Z</Time>
            <Position>
              <LatitudeDegrees>43.45923788845539093017578125</LatitudeDegrees>
              <LongitudeDegrees>-3.57755184173583984375</LongitudeDegrees>
            </Position>
            <AltitudeMeters>58.799999237060546875</AltitudeMeters>
            <DistanceMeters>NAN</DistanceMeters>
          </Trackpoint>
          <Trackpoint>
            <Time>2022-07-13T11:48:22.000Z</Time>
            <Position>
              <LatitudeDegrees>43.45922422595322132110595703125</LatitudeDegrees>
              <LongitudeDegrees>-3.57775636017322540283203125</LongitudeDegrees>
            </Position>
            <AltitudeMeters>57.200000762939453125</AltitudeMeters>
            <DistanceMeters>NAN</DistanceMeters>
          </Trackpoint>
          <Trackpoint>
            <Time>2022-07-13T11:48:24.000Z</Time>
            <Position>
              <LatitudeDegrees>43.45921969972550868988037109375</LatitudeDegrees>
              <LongitudeDegrees>-3.57795693911612033843994140625</LongitudeDegrees>
            </Position>
            <AltitudeMeters>56.200000762939453125</AltitudeMeters>
            <DistanceMeters>NAN</DistanceMeters>
          </Trackpoint>
          <Trackpoint>
            <Time>2022-07-13T11:48:25.000Z</Time>
            <Position>
              <LatitudeDegrees>43.459225483238697052001953125</LatitudeDegrees>
              <LongitudeDegrees>-3.57804645784199237823486328125</LongitudeDegrees>
            </Position>
            <AltitudeMeters>55.200000762939453125</AltitudeMeters>
            <DistanceMeters>NAN</DistanceMeters>
          </Trackpoint>
          <Trackpoint>
            <Time>2022-07-13T11:48:26.000Z</Time>
            <Position>
              <LatitudeDegrees>43.4592316858470439910888671875</LatitudeDegrees>
              <LongitudeDegrees>-3.57812692411243915557861328125</LongitudeDegrees>
            </Position>
            <AltitudeMeters>54</AltitudeMeters>
            <DistanceMeters>NAN</DistanceMeters>
          </Trackpoint>
          <Trackpoint>
            <Time>2022-07-13T11:48:27.000Z</Time>
            <Position>
              <LatitudeDegrees>43.459244258701801300048828125</LatitudeDegrees>
              <LongitudeDegrees>-3.57819917611777782440185546875</LongitudeDegrees>
            </Position>
            <AltitudeMeters>52.799999237060546875</AltitudeMeters>
            <DistanceMeters>NAN</DistanceMeters>
          </Trackpoint>
          <Trackpoint>
            <Time>2022-07-13T11:48:28.000Z</Time>
            <Position>
              <LatitudeDegrees>43.45925490371882915496826171875</LatitudeDegrees>
              <LongitudeDegrees>-3.57826489023864269256591796875</LongitudeDegrees>
            </Position>
            <AltitudeMeters>51.799999237060546875</AltitudeMeters>
            <DistanceMeters>NAN</DistanceMeters>
          </Trackpoint>
          <Trackpoint>
            <Time>2022-07-13T11:48:29.000Z</Time>
            <Position>
              <LatitudeDegrees>43.45927250571548938751220703125</LatitudeDegrees>
              <LongitudeDegrees>-3.57831937260925769805908203125</LongitudeDegrees>
            </Position>
            <AltitudeMeters>51.200000762939453125</AltitudeMeters>
            <DistanceMeters>NAN</DistanceMeters>
          </Trackpoint>
          <Trackpoint>
            <Time>2022-07-13T11:48:31.000Z</Time>
            <Position>
              <LatitudeDegrees>43.45932246185839176177978515625</LatitudeDegrees>
              <LongitudeDegrees>-3.57839732430875301361083984375</LongitudeDegrees>
            </Position>
            <AltitudeMeters>50.59999847412109375</AltitudeMeters>
            <DistanceMeters>NAN</DistanceMeters>
          </Trackpoint>
          <Trackpoint>
            <Time>2022-07-13T11:48:33.000Z</Time>
            <Position>
              <LatitudeDegrees>43.4593808837234973907470703125</LatitudeDegrees>
              <LongitudeDegrees>-3.5784528963267803192138671875</LongitudeDegrees>
            </Position>
            <AltitudeMeters>50.40000152587890625</AltitudeMeters>
            <DistanceMeters>NAN</DistanceMeters>
          </Trackpoint>
          <Trackpoint>
            <Time>2022-07-13T11:48:37.000Z</Time>
            <Position>
              <LatitudeDegrees>43.45943930558860301971435546875</LatitudeDegrees>
              <LongitudeDegrees>-3.5786272399127483367919921875</LongitudeDegrees>
            </Position>
            <AltitudeMeters>50.40000152587890625</AltitudeMeters>
            <DistanceMeters>NAN</DistanceMeters>
          </Trackpoint>
          <Trackpoint>
            <Time>2022-07-13T11:48:45.000Z</Time>
            <Position>
              <LatitudeDegrees>43.45952798612415790557861328125</LatitudeDegrees>
              <LongitudeDegrees>-3.57903686352074146270751953125</LongitudeDegrees>
            </Position>
            <AltitudeMeters>50.59999847412109375</AltitudeMeters>
            <DistanceMeters>NAN</DistanceMeters>
          </Trackpoint>
          <Trackpoint>
            <Time>2022-07-13T11:48:46.000Z</Time>
            <Position>
              <LatitudeDegrees>43.4595267288386821746826171875</LatitudeDegrees>
              <LongitudeDegrees>-3.57910559512674808502197265625</LongitudeDegrees>
            </Position>
            <AltitudeMeters>50.40000152587890625</AltitudeMeters>
            <DistanceMeters>NAN</DistanceMeters>
          </Trackpoint>
          <Trackpoint>
            <Time>2022-07-13T11:48:48.000Z</Time>
            <Position>
              <LatitudeDegrees>43.459481298923492431640625</LatitudeDegrees>
              <LongitudeDegrees>-3.5792260430753231048583984375</LongitudeDegrees>
            </Position>
            <AltitudeMeters>50.200000762939453125</AltitudeMeters>
            <DistanceMeters>NAN</DistanceMeters>
          </Trackpoint>
          <Trackpoint>
            <Time>2022-07-13T11:48:50.000Z</Time>
            <Position>
              <LatitudeDegrees>43.45940477214753627777099609375</LatitudeDegrees>
              <LongitudeDegrees>-3.57934146188199520111083984375</LongitudeDegrees>
            </Position>
            <AltitudeMeters>49.200000762939453125</AltitudeMeters>
            <DistanceMeters>NAN</DistanceMeters>
          </Trackpoint>
          <Trackpoint>
            <Time>2022-07-13T11:48:52.000Z</Time>
            <Position>
              <LatitudeDegrees>43.45935456454753875732421875</LatitudeDegrees>
              <LongitudeDegrees>-3.57946082018315792083740234375</LongitudeDegrees>
            </Position>
            <AltitudeMeters>48</AltitudeMeters>
            <DistanceMeters>NAN</DistanceMeters>
          </Trackpoint>
          <Trackpoint>
            <Time>2022-07-13T11:48:54.000Z</Time>
            <Position>
              <LatitudeDegrees>43.4593171812593936920166015625</LatitudeDegrees>
              <LongitudeDegrees>-3.57957179658114910125732421875</LongitudeDegrees>
            </Position>
            <AltitudeMeters>46.799999237060546875</AltitudeMeters>
            <DistanceMeters>NAN</DistanceMeters>
          </Trackpoint>
          <Trackpoint>
            <Time>2022-07-13T11:48:56.000Z</Time>
            <Position>
              <LatitudeDegrees>43.45930016599595546722412109375</LatitudeDegrees>
              <LongitudeDegrees>-3.5796887241303920745849609375</LongitudeDegrees>
            </Position>
            <AltitudeMeters>45.40000152587890625</AltitudeMeters>
            <DistanceMeters>NAN</DistanceMeters>
          </Trackpoint>
          <Trackpoint>
            <Time>2022-07-13T11:49:00.000Z</Time>
            <Position>
              <LatitudeDegrees>43.459338806569576263427734375</LatitudeDegrees>
              <LongitudeDegrees>-3.5799418576061725616455078125</LongitudeDegrees>
            </Position>
            <AltitudeMeters>44.200000762939453125</AltitudeMeters>
            <DistanceMeters>NAN</DistanceMeters>
          </Trackpoint>
          <Trackpoint>
            <Time>2022-07-13T11:49:01.000Z</Time>
            <Position>
              <LatitudeDegrees>43.459348864853382110595703125</LatitudeDegrees>
              <LongitudeDegrees>-3.5800069011747837066650390625</LongitudeDegrees>
            </Position>
            <AltitudeMeters>44</AltitudeMeters>
            <DistanceMeters>NAN</DistanceMeters>
          </Trackpoint>
          <Trackpoint>
            <Time>2022-07-13T11:49:03.000Z</Time>
            <Position>
              <LatitudeDegrees>43.45937124453485012054443359375</LatitudeDegrees>
              <LongitudeDegrees>-3.58014176599681377410888671875</LongitudeDegrees>
            </Position>
            <AltitudeMeters>43.799999237060546875</AltitudeMeters>
            <DistanceMeters>NAN</DistanceMeters>
          </Trackpoint>
          <Trackpoint>
            <Time>2022-07-13T11:49:06.000Z</Time>
            <Position>
              <LatitudeDegrees>43.45938482321798801422119140625</LatitudeDegrees>
              <LongitudeDegrees>-3.58035885728895664215087890625</LongitudeDegrees>
            </Position>
            <AltitudeMeters>43.200000762939453125</AltitudeMeters>
            <DistanceMeters>NAN</DistanceMeters>
          </Trackpoint>
          <Trackpoint>
            <Time>2022-07-13T11:49:08.000Z</Time>
            <Position>
              <LatitudeDegrees>43.4593939594924449920654296875</LatitudeDegrees>
              <LongitudeDegrees>-3.58048408292233943939208984375</LongitudeDegrees>
            </Position>
            <AltitudeMeters>42.59999847412109375</AltitudeMeters>
            <DistanceMeters>NAN</DistanceMeters>
          </Trackpoint>
          <Trackpoint>
            <Time>2022-07-13T11:49:10.000Z</Time>
            <Position>
              <LatitudeDegrees>43.4593661315739154815673828125</LatitudeDegrees>
              <LongitudeDegrees>-3.5805792175233364105224609375</LongitudeDegrees>
            </Position>
            <AltitudeMeters>42.200000762939453125</AltitudeMeters>
            <DistanceMeters>NAN</DistanceMeters>
          </Trackpoint>
          <Trackpoint>
            <Time>2022-07-13T11:49:11.000Z</Time>
            <Position>
              <LatitudeDegrees>43.45933469943702220916748046875</LatitudeDegrees>
              <LongitudeDegrees>-3.58060897327959537506103515625</LongitudeDegrees>
            </Position>
            <AltitudeMeters>42</AltitudeMeters>
            <DistanceMeters>NAN</DistanceMeters>
          </Trackpoint>
          <Trackpoint>
            <Time>2022-07-13T11:49:14.000Z</Time>
            <Position>
              <LatitudeDegrees>43.4591840766370296478271484375</LatitudeDegrees>
              <LongitudeDegrees>-3.58069111593067646026611328125</LongitudeDegrees>
            </Position>
            <AltitudeMeters>41.200000762939453125</AltitudeMeters>
            <DistanceMeters>NAN</DistanceMeters>
          </Trackpoint>
          <Trackpoint>
            <Time>2022-07-13T11:49:15.000Z</Time>
            <Position>
              <LatitudeDegrees>43.45912749879062175750732421875</LatitudeDegrees>
              <LongitudeDegrees>-3.580717183649539947509765625</LongitudeDegrees>
            </Position>
            <AltitudeMeters>40.799999237060546875</AltitudeMeters>
            <DistanceMeters>NAN</DistanceMeters>
          </Trackpoint>
          <Trackpoint>
            <Time>2022-07-13T11:49:17.000Z</Time>
            <Position>
              <LatitudeDegrees>43.45900730229914188385009765625</LatitudeDegrees>
              <LongitudeDegrees>-3.58075683005154132843017578125</LongitudeDegrees>
            </Position>
            <AltitudeMeters>39.799999237060546875</AltitudeMeters>
            <DistanceMeters>NAN</DistanceMeters>
          </Trackpoint>
          <Trackpoint>
            <Time>2022-07-13T11:49:19.000Z</Time>
            <Position>
              <LatitudeDegrees>43.45888526178896427154541015625</LatitudeDegrees>
              <LongitudeDegrees>-3.58079890720546245574951171875</LongitudeDegrees>
            </Position>
            <AltitudeMeters>38</AltitudeMeters>
            <DistanceMeters>NAN</DistanceMeters>
          </Trackpoint>
          <Trackpoint>
            <Time>2022-07-13T11:49:20.000Z</Time>
            <Position>
              <LatitudeDegrees>43.45882608555257320404052734375</LatitudeDegrees>
              <LongitudeDegrees>-3.58082614839076995849609375</LongitudeDegrees>
            </Position>
            <AltitudeMeters>37.40000152587890625</AltitudeMeters>
            <DistanceMeters>NAN</DistanceMeters>
          </Trackpoint>
          <Trackpoint>
            <Time>2022-07-13T11:49:21.000Z</Time>
            <Position>
              <LatitudeDegrees>43.4587713517248630523681640625</LatitudeDegrees>
              <LongitudeDegrees>-3.5808576643466949462890625</LongitudeDegrees>
            </Position>
            <AltitudeMeters>36.799999237060546875</AltitudeMeters>
            <DistanceMeters>NAN</DistanceMeters>
          </Trackpoint>
          <Trackpoint>
            <Time>2022-07-13T11:49:22.000Z</Time>
            <Position>
              <LatitudeDegrees>43.45871779136359691619873046875</LatitudeDegrees>
              <LongitudeDegrees>-3.58089429326355457305908203125</LongitudeDegrees>
            </Position>
            <AltitudeMeters>35.799999237060546875</AltitudeMeters>
            <DistanceMeters>NAN</DistanceMeters>
          </Trackpoint>
          <Trackpoint>
            <Time>2022-07-13T11:49:23.000Z</Time>
            <Position>
              <LatitudeDegrees>43.45867387019097805023193359375</LatitudeDegrees>
              <LongitudeDegrees>-3.58093368820846080780029296875</LongitudeDegrees>
            </Position>
            <AltitudeMeters>34.799999237060546875</AltitudeMeters>
            <DistanceMeters>NAN</DistanceMeters>
          </Trackpoint>
          <Trackpoint>
            <Time>2022-07-13T11:49:24.000Z</Time>
            <Position>
              <LatitudeDegrees>43.45863975584506988525390625</LatitudeDegrees>
              <LongitudeDegrees>-3.58097459189593791961669921875</LongitudeDegrees>
            </Position>
            <AltitudeMeters>34</AltitudeMeters>
            <DistanceMeters>NAN</DistanceMeters>
          </Trackpoint>
          <Trackpoint>
            <Time>2022-07-13T11:49:25.000Z</Time>
            <Position>
              <LatitudeDegrees>43.4586151130497455596923828125</LatitudeDegrees>
              <LongitudeDegrees>-3.581018261611461639404296875</LongitudeDegrees>
            </Position>
            <AltitudeMeters>33.40000152587890625</AltitudeMeters>
            <DistanceMeters>NAN</DistanceMeters>
          </Trackpoint>
          <Trackpoint>
            <Time>2022-07-13T11:49:26.000Z</Time>
            <Position>
              <LatitudeDegrees>43.458602540194988250732421875</LatitudeDegrees>
              <LongitudeDegrees>-3.58106243424117565155029296875</LongitudeDegrees>
            </Position>
            <AltitudeMeters>32.799999237060546875</AltitudeMeters>
            <DistanceMeters>NAN</DistanceMeters>
          </Trackpoint>
          <Trackpoint>
            <Time>2022-07-13T11:49:27.000Z</Time>
            <Position>
              <LatitudeDegrees>43.4586033783853054046630859375</LatitudeDegrees>
              <LongitudeDegrees>-3.58110375702381134033203125</LongitudeDegrees>
            </Position>
            <AltitudeMeters>32.200000762939453125</AltitudeMeters>
            <DistanceMeters>NAN</DistanceMeters>
          </Trackpoint>
          <Trackpoint>
            <Time>2022-07-13T11:49:28.000Z</Time>
            <Position>
              <LatitudeDegrees>43.45861100591719150543212890625</LatitudeDegrees>
              <LongitudeDegrees>-3.5811478458344936370849609375</LongitudeDegrees>
            </Position>
            <AltitudeMeters>31.6000003814697265625</AltitudeMeters>
            <DistanceMeters>NAN</DistanceMeters>
          </Trackpoint>
          <Trackpoint>
            <Time>2022-07-13T11:49:30.000Z</Time>
            <Position>
              <LatitudeDegrees>43.45865241251885890960693359375</LatitudeDegrees>
              <LongitudeDegrees>-3.58122152276337146759033203125</LongitudeDegrees>
            </Position>
            <AltitudeMeters>31</AltitudeMeters>
            <DistanceMeters>NAN</DistanceMeters>
          </Trackpoint>
          <Trackpoint>
            <Time>2022-07-13T11:49:33.000Z</Time>
            <Position>
              <LatitudeDegrees>43.4587275981903076171875</LatitudeDegrees>
              <LongitudeDegrees>-3.5813299007713794708251953125</LongitudeDegrees>
            </Position>
            <AltitudeMeters>30.799999237060546875</AltitudeMeters>
            <DistanceMeters>NAN</DistanceMeters>
          </Trackpoint>
          <Trackpoint>
            <Time>2022-07-13T11:49:39.000Z</Time>
            <Position>
              <LatitudeDegrees>43.45888811163604259490966796875</LatitudeDegrees>
              <LongitudeDegrees>-3.58162703923881053924560546875</LongitudeDegrees>
            </Position>
            <AltitudeMeters>30.799999237060546875</AltitudeMeters>
            <DistanceMeters>NAN</DistanceMeters>
          </Trackpoint>
          <Trackpoint>
            <Time>2022-07-13T11:49:41.000Z</Time>
            <Position>
              <LatitudeDegrees>43.4589393250644207000732421875</LatitudeDegrees>
              <LongitudeDegrees>-3.58175410889089107513427734375</LongitudeDegrees>
            </Position>
            <AltitudeMeters>30.6000003814697265625</AltitudeMeters>
            <DistanceMeters>NAN</DistanceMeters>
          </Trackpoint>
          <Trackpoint>
            <Time>2022-07-13T11:49:43.000Z</Time>
            <Position>
              <LatitudeDegrees>43.45900478772819042205810546875</LatitudeDegrees>
              <LongitudeDegrees>-3.581890650093555450439453125</LongitudeDegrees>
            </Position>
            <AltitudeMeters>30</AltitudeMeters>
            <DistanceMeters>NAN</DistanceMeters>
          </Trackpoint>
          <Trackpoint>
            <Time>2022-07-13T11:49:46.000Z</Time>
            <Position>
              <LatitudeDegrees>43.45911509357392787933349609375</LatitudeDegrees>
              <LongitudeDegrees>-3.58209391124546527862548828125</LongitudeDegrees>
            </Position>
            <AltitudeMeters>29.6000003814697265625</AltitudeMeters>
            <DistanceMeters>NAN</DistanceMeters>
          </Trackpoint>
          <Trackpoint>
            <Time>2022-07-13T11:49:48.000Z</Time>
            <Position>
              <LatitudeDegrees>43.459208048880100250244140625</LatitudeDegrees>
              <LongitudeDegrees>-3.58223120681941509246826171875</LongitudeDegrees>
            </Position>
            <AltitudeMeters>28.799999237060546875</AltitudeMeters>
            <DistanceMeters>NAN</DistanceMeters>
          </Trackpoint>
          <Trackpoint>
            <Time>2022-07-13T11:49:51.000Z</Time>
            <Position>
              <LatitudeDegrees>43.45933872275054454803466796875</LatitudeDegrees>
              <LongitudeDegrees>-3.5824587754905223846435546875</LongitudeDegrees>
            </Position>
            <AltitudeMeters>28.6000003814697265625</AltitudeMeters>
            <DistanceMeters>NAN</DistanceMeters>
          </Trackpoint>
          <Trackpoint>
            <Time>2022-07-13T11:49:58.000Z</Time>
            <Position>
              <LatitudeDegrees>43.45961180515587329864501953125</LatitudeDegrees>
              <LongitudeDegrees>-3.58303285203874111175537109375</LongitudeDegrees>
            </Position>
            <AltitudeMeters>27.6000003814697265625</AltitudeMeters>
            <DistanceMeters>NAN</DistanceMeters>
          </Trackpoint>
          <Trackpoint>
            <Time>2022-07-13T11:49:59.000Z</Time>
            <Position>
              <LatitudeDegrees>43.45965287648141384124755859375</LatitudeDegrees>
              <LongitudeDegrees>-3.58311801217496395111083984375</LongitudeDegrees>
            </Position>
            <AltitudeMeters>27.6000003814697265625</AltitudeMeters>
            <DistanceMeters>NAN</DistanceMeters>
          </Trackpoint>
          <Trackpoint>
            <Time>2022-07-13T11:50:00.000Z</Time>
            <Position>
              <LatitudeDegrees>43.45969646237790584564208984375</LatitudeDegrees>
              <LongitudeDegrees>-3.583200238645076751708984375</LongitudeDegrees>
            </Position>
            <AltitudeMeters>27.3999996185302734375</AltitudeMeters>
            <DistanceMeters>NAN</DistanceMeters>
          </Trackpoint>
          <Trackpoint>
            <Time>2022-07-13T11:50:04.000Z</Time>
            <Position>
              <LatitudeDegrees>43.45990299247205257415771484375</LatitudeDegrees>
              <LongitudeDegrees>-3.58350408263504505157470703125</LongitudeDegrees>
            </Position>
            <AltitudeMeters>27</AltitudeMeters>
            <DistanceMeters>NAN</DistanceMeters>
          </Trackpoint>
          <Trackpoint>
            <Time>2022-07-13T11:50:08.000Z</Time>
            <Position>
              <LatitudeDegrees>43.46010952256619930267333984375</LatitudeDegrees>
              <LongitudeDegrees>-3.58374975621700286865234375</LongitudeDegrees>
            </Position>
            <AltitudeMeters>26.799999237060546875</AltitudeMeters>
            <DistanceMeters>NAN</DistanceMeters>
          </Trackpoint>
          <Trackpoint>
            <Time>2022-07-13T11:50:10.000Z</Time>
            <Position>
              <LatitudeDegrees>43.4601945988833904266357421875</LatitudeDegrees>
              <LongitudeDegrees>-3.5838773287832736968994140625</LongitudeDegrees>
            </Position>
            <AltitudeMeters>26.6000003814697265625</AltitudeMeters>
            <DistanceMeters>NAN</DistanceMeters>
          </Trackpoint>
          <Trackpoint>
            <Time>2022-07-13T11:50:14.000Z</Time>
            <Position>
              <LatitudeDegrees>43.46035502851009368896484375</LatitudeDegrees>
              <LongitudeDegrees>-3.5840888880193233489990234375</LongitudeDegrees>
            </Position>
            <AltitudeMeters>26.200000762939453125</AltitudeMeters>
            <DistanceMeters>NAN</DistanceMeters>
          </Trackpoint>
          <Trackpoint>
            <Time>2022-07-13T11:50:16.000Z</Time>
            <Position>
              <LatitudeDegrees>43.4604252688586711883544921875</LatitudeDegrees>
              <LongitudeDegrees>-3.584182262420654296875</LongitudeDegrees>
            </Position>
            <AltitudeMeters>26.200000762939453125</AltitudeMeters>
            <DistanceMeters>NAN</DistanceMeters>
          </Trackpoint>
          <Trackpoint>
            <Time>2022-07-13T11:50:21.000Z</Time>
            <Position>
              <LatitudeDegrees>43.46058511175215244293212890625</LatitudeDegrees>
              <LongitudeDegrees>-3.58441620133817195892333984375</LongitudeDegrees>
            </Position>
            <AltitudeMeters>27.3999996185302734375</AltitudeMeters>
            <DistanceMeters>NAN</DistanceMeters>
          </Trackpoint>
          <Trackpoint>
            <Time>2022-07-13T11:50:24.000Z</Time>
            <Position>
              <LatitudeDegrees>43.46065736375749111175537109375</LatitudeDegrees>
              <LongitudeDegrees>-3.58455031178891658782958984375</LongitudeDegrees>
            </Position>
            <AltitudeMeters>27.6000003814697265625</AltitudeMeters>
            <DistanceMeters>NAN</DistanceMeters>
          </Trackpoint>
          <Trackpoint>
            <Time>2022-07-13T11:50:29.000Z</Time>
            <Position>
              <LatitudeDegrees>43.46076264046132564544677734375</LatitudeDegrees>
              <LongitudeDegrees>-3.58475667424499988555908203125</LongitudeDegrees>
            </Position>
            <AltitudeMeters>27.6000003814697265625</AltitudeMeters>
            <DistanceMeters>NAN</DistanceMeters>
          </Trackpoint>
          <Trackpoint>
            <Time>2022-07-13T11:50:36.000Z</Time>
            <Position>
              <LatitudeDegrees>43.460887782275676727294921875</LatitudeDegrees>
              <LongitudeDegrees>-3.58500964008271694183349609375</LongitudeDegrees>
            </Position>
            <AltitudeMeters>28.6000003814697265625</AltitudeMeters>
            <DistanceMeters>NAN</DistanceMeters>
          </Trackpoint>
          <Trackpoint>
            <Time>2022-07-13T11:50:41.000Z</Time>
            <Position>
              <LatitudeDegrees>43.460957519710063934326171875</LatitudeDegrees>
              <LongitudeDegrees>-3.58518247492611408233642578125</LongitudeDegrees>
            </Position>
            <AltitudeMeters>29.200000762939453125</AltitudeMeters>
            <DistanceMeters>NAN</DistanceMeters>
          </Trackpoint>
          <Trackpoint>
            <Time>2022-07-13T11:50:43.000Z</Time>
            <Position>
              <LatitudeDegrees>43.4609851799905300140380859375</LatitudeDegrees>
              <LongitudeDegrees>-3.5852476023137569427490234375</LongitudeDegrees>
            </Position>
            <AltitudeMeters>29.200000762939453125</AltitudeMeters>
            <DistanceMeters>NAN</DistanceMeters>
          </Trackpoint>
          <Trackpoint>
            <Time>2022-07-13T11:50:49.000Z</Time>
            <Position>
              <LatitudeDegrees>43.4610839188098907470703125</LatitudeDegrees>
              <LongitudeDegrees>-3.5854363627731800079345703125</LongitudeDegrees>
            </Position>
            <AltitudeMeters>29.6000003814697265625</AltitudeMeters>
            <DistanceMeters>NAN</DistanceMeters>
          </Trackpoint>
          <Trackpoint>
            <Time>2022-07-13T11:50:55.000Z</Time>
            <Position>
              <LatitudeDegrees>43.46116933040320873260498046875</LatitudeDegrees>
              <LongitudeDegrees>-3.58559972606599330902099609375</LongitudeDegrees>
            </Position>
            <AltitudeMeters>30</AltitudeMeters>
            <DistanceMeters>NAN</DistanceMeters>
          </Trackpoint>
          <Trackpoint>
            <Time>2022-07-13T11:50:58.000Z</Time>
            <Position>
              <LatitudeDegrees>43.46120822243392467498779296875</LatitudeDegrees>
              <LongitudeDegrees>-3.58568656258285045623779296875</LongitudeDegrees>
            </Position>
            <AltitudeMeters>30.200000762939453125</AltitudeMeters>
            <DistanceMeters>NAN</DistanceMeters>
          </Trackpoint>
          <Trackpoint>
            <Time>2022-07-13T11:51:01.000Z</Time>
            <Position>
              <LatitudeDegrees>43.4612389840185642242431640625</LatitudeDegrees>
              <LongitudeDegrees>-3.58577390201389789581298828125</LongitudeDegrees>
            </Position>
            <AltitudeMeters>30.3999996185302734375</AltitudeMeters>
            <DistanceMeters>NAN</DistanceMeters>
          </Trackpoint>
          <Trackpoint>
            <Time>2022-07-13T11:51:04.000Z</Time>
            <Position>
              <LatitudeDegrees>43.461278714239597320556640625</LatitudeDegrees>
              <LongitudeDegrees>-3.585865013301372528076171875</LongitudeDegrees>
            </Position>
            <AltitudeMeters>30.6000003814697265625</AltitudeMeters>
            <DistanceMeters>NAN</DistanceMeters>
          </Trackpoint>
          <Trackpoint>
            <Time>2022-07-13T11:51:05.000Z</Time>
            <Position>
              <LatitudeDegrees>43.46129539422690868377685546875</LatitudeDegrees>
              <LongitudeDegrees>-3.5858842916786670684814453125</LongitudeDegrees>
            </Position>
            <AltitudeMeters>30.799999237060546875</AltitudeMeters>
            <DistanceMeters>NAN</DistanceMeters>
          </Trackpoint>
          <Trackpoint>
            <Time>2022-07-13T11:51:08.000Z</Time>
            <Position>
              <LatitudeDegrees>43.46134233288466930389404296875</LatitudeDegrees>
              <LongitudeDegrees>-3.5859463177621364593505859375</LongitudeDegrees>
            </Position>
            <AltitudeMeters>31.6000003814697265625</AltitudeMeters>
            <DistanceMeters>NAN</DistanceMeters>
          </Trackpoint>
          <Trackpoint>
            <Time>2022-07-13T11:51:09.000Z</Time>
            <Position>
              <LatitudeDegrees>43.46134970895946025848388671875</LatitudeDegrees>
              <LongitudeDegrees>-3.58595629222691059112548828125</LongitudeDegrees>
            </Position>
            <AltitudeMeters>31.799999237060546875</AltitudeMeters>
            <DistanceMeters>NAN</DistanceMeters>
          </Trackpoint>
          <Trackpoint>
            <Time>2022-07-13T11:51:10.000Z</Time>
            <Position>
              <LatitudeDegrees>43.4614062868058681488037109375</LatitudeDegrees>
              <LongitudeDegrees>-3.58596769161522388458251953125</LongitudeDegrees>
            </Position>
            <AltitudeMeters>32</AltitudeMeters>
            <DistanceMeters>NAN</DistanceMeters>
          </Trackpoint>
          <Trackpoint>
            <Time>2022-07-13T11:51:18.000Z</Time>
            <Position>
              <LatitudeDegrees>43.4616379626095294952392578125</LatitudeDegrees>
              <LongitudeDegrees>-3.58604011125862598419189453125</LongitudeDegrees>
            </Position>
            <AltitudeMeters>32.200000762939453125</AltitudeMeters>
            <DistanceMeters>NAN</DistanceMeters>
          </Trackpoint>
          <Trackpoint>
            <Time>2022-07-13T11:51:23.000Z</Time>
            <Position>
              <LatitudeDegrees>43.46172622404992580413818359375</LatitudeDegrees>
              <LongitudeDegrees>-3.5861612297594547271728515625</LongitudeDegrees>
            </Position>
            <AltitudeMeters>32.40000152587890625</AltitudeMeters>
            <DistanceMeters>NAN</DistanceMeters>
          </Trackpoint>
          <Trackpoint>
            <Time>2022-07-13T11:51:27.000Z</Time>
            <Position>
              <LatitudeDegrees>43.4617026709020137786865234375</LatitudeDegrees>
              <LongitudeDegrees>-3.58634973876178264617919921875</LongitudeDegrees>
            </Position>
            <AltitudeMeters>31.799999237060546875</AltitudeMeters>
            <DistanceMeters>NAN</DistanceMeters>
          </Trackpoint>
          <Trackpoint>
            <Time>2022-07-13T11:51:29.000Z</Time>
            <Position>
              <LatitudeDegrees>43.46165229566395282745361328125</LatitudeDegrees>
              <LongitudeDegrees>-3.58645970933139324188232421875</LongitudeDegrees>
            </Position>
            <AltitudeMeters>30.799999237060546875</AltitudeMeters>
            <DistanceMeters>NAN</DistanceMeters>
          </Trackpoint>
          <Trackpoint>
            <Time>2022-07-13T11:51:30.000Z</Time>
            <Position>
              <LatitudeDegrees>43.4616299159824848175048828125</LatitudeDegrees>
              <LongitudeDegrees>-3.58651653863489627838134765625</LongitudeDegrees>
            </Position>
            <AltitudeMeters>30.3999996185302734375</AltitudeMeters>
            <DistanceMeters>NAN</DistanceMeters>
          </Trackpoint>
          <Trackpoint>
            <Time>2022-07-13T11:51:32.000Z</Time>
            <Position>
              <LatitudeDegrees>43.46160837449133396148681640625</LatitudeDegrees>
              <LongitudeDegrees>-3.5866426862776279449462890625</LongitudeDegrees>
            </Position>
            <AltitudeMeters>29.799999237060546875</AltitudeMeters>
            <DistanceMeters>NAN</DistanceMeters>
          </Trackpoint>
          <Trackpoint>
            <Time>2022-07-13T11:51:34.000Z</Time>
            <Position>
              <LatitudeDegrees>43.461632765829563140869140625</LatitudeDegrees>
              <LongitudeDegrees>-3.58678333461284637451171875</LongitudeDegrees>
            </Position>
            <AltitudeMeters>29.200000762939453125</AltitudeMeters>
            <DistanceMeters>NAN</DistanceMeters>
          </Trackpoint>
          <Trackpoint>
            <Time>2022-07-13T11:51:36.000Z</Time>
            <Position>
              <LatitudeDegrees>43.46167601644992828369140625</LatitudeDegrees>
              <LongitudeDegrees>-3.58692171983420848846435546875</LongitudeDegrees>
            </Position>
            <AltitudeMeters>29</AltitudeMeters>
            <DistanceMeters>NAN</DistanceMeters>
          </Trackpoint>
          <Trackpoint>
            <Time>2022-07-13T11:51:38.000Z</Time>
            <Position>
              <LatitudeDegrees>43.46171750687062740325927734375</LatitudeDegrees>
              <LongitudeDegrees>-3.587061949074268341064453125</LongitudeDegrees>
            </Position>
            <AltitudeMeters>28.6000003814697265625</AltitudeMeters>
            <DistanceMeters>NAN</DistanceMeters>
          </Trackpoint>
          <Trackpoint>
            <Time>2022-07-13T11:51:40.000Z</Time>
            <Position>
              <LatitudeDegrees>43.46177299506962299346923828125</LatitudeDegrees>
              <LongitudeDegrees>-3.5871979035437107086181640625</LongitudeDegrees>
            </Position>
            <AltitudeMeters>28.3999996185302734375</AltitudeMeters>
            <DistanceMeters>NAN</DistanceMeters>
          </Trackpoint>
          <Trackpoint>
            <Time>2022-07-13T11:51:42.000Z</Time>
            <Position>
              <LatitudeDegrees>43.4618434868752956390380859375</LatitudeDegrees>
              <LongitudeDegrees>-3.587321452796459197998046875</LongitudeDegrees>
            </Position>
            <AltitudeMeters>28</AltitudeMeters>
            <DistanceMeters>NAN</DistanceMeters>
          </Trackpoint>
          <Trackpoint>
            <Time>2022-07-13T11:51:43.000Z</Time>
            <Position>
              <LatitudeDegrees>43.46187575720250606536865234375</LatitudeDegrees>
              <LongitudeDegrees>-3.5873839817941188812255859375</LongitudeDegrees>
            </Position>
            <AltitudeMeters>27.799999237060546875</AltitudeMeters>
            <DistanceMeters>NAN</DistanceMeters>
          </Trackpoint>
          <Trackpoint>
            <Time>2022-07-13T11:51:44.000Z</Time>
            <Position>
              <LatitudeDegrees>43.461905010044574737548828125</LatitudeDegrees>
              <LongitudeDegrees>-3.58745346777141094207763671875</LongitudeDegrees>
            </Position>
            <AltitudeMeters>27.3999996185302734375</AltitudeMeters>
            <DistanceMeters>NAN</DistanceMeters>
          </Trackpoint>
          <Trackpoint>
            <Time>2022-07-13T11:51:47.000Z</Time>
            <Position>
              <LatitudeDegrees>43.46196971833705902099609375</LatitudeDegrees>
              <LongitudeDegrees>-3.58766100369393825531005859375</LongitudeDegrees>
            </Position>
            <AltitudeMeters>26</AltitudeMeters>
            <DistanceMeters>NAN</DistanceMeters>
          </Trackpoint>
          <Trackpoint>
            <Time>2022-07-13T11:51:49.000Z</Time>
            <Position>
              <LatitudeDegrees>43.4619893319904804229736328125</LatitudeDegrees>
              <LongitudeDegrees>-3.58777918852865695953369140625</LongitudeDegrees>
            </Position>
            <AltitudeMeters>24.6000003814697265625</AltitudeMeters>
            <DistanceMeters>NAN</DistanceMeters>
          </Trackpoint>
          <Trackpoint>
            <Time>2022-07-13T11:51:51.000Z</Time>
            <Position>
              <LatitudeDegrees>43.46198044717311859130859375</LatitudeDegrees>
              <LongitudeDegrees>-3.58787206001579761505126953125</LongitudeDegrees>
            </Position>
            <AltitudeMeters>23.6000003814697265625</AltitudeMeters>
            <DistanceMeters>NAN</DistanceMeters>
          </Trackpoint>
          <Trackpoint>
            <Time>2022-07-13T11:51:55.000Z</Time>
            <Position>
              <LatitudeDegrees>43.46195521764457225799560546875</LatitudeDegrees>
              <LongitudeDegrees>-3.5879901610314846038818359375</LongitudeDegrees>
            </Position>
            <AltitudeMeters>22.3999996185302734375</AltitudeMeters>
            <DistanceMeters>NAN</DistanceMeters>
          </Trackpoint>
          <Trackpoint>
            <Time>2022-07-13T11:51:56.000Z</Time>
            <Position>
              <LatitudeDegrees>43.4619529545307159423828125</LatitudeDegrees>
              <LongitudeDegrees>-3.58798672445118427276611328125</LongitudeDegrees>
            </Position>
            <AltitudeMeters>22.200000762939453125</AltitudeMeters>
            <DistanceMeters>NAN</DistanceMeters>
          </Trackpoint>
          <Trackpoint>
            <Time>2022-07-13T11:51:58.000Z</Time>
            <Position>
              <LatitudeDegrees>43.46195538528263568878173828125</LatitudeDegrees>
              <LongitudeDegrees>-3.58798488043248653411865234375</LongitudeDegrees>
            </Position>
            <AltitudeMeters>22</AltitudeMeters>
            <DistanceMeters>NAN</DistanceMeters>
          </Trackpoint>
          <Trackpoint>
            <Time>2022-07-13T11:54:00.000Z</Time>
            <Position>
              <LatitudeDegrees>43.46195387654006481170654296875</LatitudeDegrees>
              <LongitudeDegrees>-3.58803726732730865478515625</LongitudeDegrees>
            </Position>
            <AltitudeMeters>23.200000762939453125</AltitudeMeters>
            <DistanceMeters>NAN</DistanceMeters>
          </Trackpoint>
          <Trackpoint>
            <Time>2022-07-13T11:54:01.000Z</Time>
            <Position>
              <LatitudeDegrees>43.46194800920784473419189453125</LatitudeDegrees>
              <LongitudeDegrees>-3.58807071112096309661865234375</LongitudeDegrees>
            </Position>
            <AltitudeMeters>23.200000762939453125</AltitudeMeters>
            <DistanceMeters>NAN</DistanceMeters>
          </Trackpoint>
          <Trackpoint>
            <Time>2022-07-13T11:54:05.000Z</Time>
            <Position>
              <LatitudeDegrees>43.4618817083537578582763671875</LatitudeDegrees>
              <LongitudeDegrees>-3.58827623538672924041748046875</LongitudeDegrees>
            </Position>
            <AltitudeMeters>23</AltitudeMeters>
            <DistanceMeters>NAN</DistanceMeters>
          </Trackpoint>
          <Trackpoint>
            <Time>2022-07-13T11:54:10.000Z</Time>
            <Position>
              <LatitudeDegrees>43.46177534200251102447509765625</LatitudeDegrees>
              <LongitudeDegrees>-3.5886124335229396820068359375</LongitudeDegrees>
            </Position>
            <AltitudeMeters>22.3999996185302734375</AltitudeMeters>
            <DistanceMeters>NAN</DistanceMeters>
          </Trackpoint>
          <Trackpoint>
            <Time>2022-07-13T11:54:12.000Z</Time>
            <Position>
              <LatitudeDegrees>43.4617211110889911651611328125</LatitudeDegrees>
              <LongitudeDegrees>-3.588760457932949066162109375</LongitudeDegrees>
            </Position>
            <AltitudeMeters>22</AltitudeMeters>
            <DistanceMeters>NAN</DistanceMeters>
          </Trackpoint>
          <Trackpoint>
            <Time>2022-07-13T11:54:14.000Z</Time>
            <Position>
              <LatitudeDegrees>43.461633436381816864013671875</LatitudeDegrees>
              <LongitudeDegrees>-3.58891493640840053558349609375</LongitudeDegrees>
            </Position>
            <AltitudeMeters>21.200000762939453125</AltitudeMeters>
            <DistanceMeters>NAN</DistanceMeters>
          </Trackpoint>
          <Trackpoint>
            <Time>2022-07-13T11:54:15.000Z</Time>
            <Position>
              <LatitudeDegrees>43.46158205531537532806396484375</LatitudeDegrees>
              <LongitudeDegrees>-3.5889980010688304901123046875</LongitudeDegrees>
            </Position>
            <AltitudeMeters>20.3999996185302734375</AltitudeMeters>
            <DistanceMeters>NAN</DistanceMeters>
          </Trackpoint>
          <Trackpoint>
            <Time>2022-07-13T11:54:16.000Z</Time>
            <Position>
              <LatitudeDegrees>43.46153209917247295379638671875</LatitudeDegrees>
              <LongitudeDegrees>-3.5890831612050533294677734375</LongitudeDegrees>
            </Position>
            <AltitudeMeters>20</AltitudeMeters>
            <DistanceMeters>NAN</DistanceMeters>
          </Trackpoint>
          <Trackpoint>
            <Time>2022-07-13T11:54:17.000Z</Time>
            <Position>
              <LatitudeDegrees>43.46148851327598094940185546875</LatitudeDegrees>
              <LongitudeDegrees>-3.58917494304478168487548828125</LongitudeDegrees>
            </Position>
            <AltitudeMeters>19.6000003814697265625</AltitudeMeters>
            <DistanceMeters>NAN</DistanceMeters>
          </Trackpoint>
          <Trackpoint>
            <Time>2022-07-13T11:54:19.000Z</Time>
            <Position>
              <LatitudeDegrees>43.4614213742315769195556640625</LatitudeDegrees>
              <LongitudeDegrees>-3.5893822275102138519287109375</LongitudeDegrees>
            </Position>
            <AltitudeMeters>18.799999237060546875</AltitudeMeters>
            <DistanceMeters>NAN</DistanceMeters>
          </Trackpoint>
          <Trackpoint>
            <Time>2022-07-13T11:54:23.000Z</Time>
            <Position>
              <LatitudeDegrees>43.461315594613552093505859375</LatitudeDegrees>
              <LongitudeDegrees>-3.5898003168404102325439453125</LongitudeDegrees>
            </Position>
            <AltitudeMeters>17.6000003814697265625</AltitudeMeters>
            <DistanceMeters>NAN</DistanceMeters>
          </Trackpoint>
          <Trackpoint>
            <Time>2022-07-13T11:54:27.000Z</Time>
            <Position>
              <LatitudeDegrees>43.46119363792240619659423828125</LatitudeDegrees>
              <LongitudeDegrees>-3.59024028293788433074951171875</LongitudeDegrees>
            </Position>
            <AltitudeMeters>16.3999996185302734375</AltitudeMeters>
            <DistanceMeters>NAN</DistanceMeters>
          </Trackpoint>
          <Trackpoint>
            <Time>2022-07-13T11:54:30.000Z</Time>
            <Position>
              <LatitudeDegrees>43.4611021913588047027587890625</LatitudeDegrees>
              <LongitudeDegrees>-3.5905818454921245574951171875</LongitudeDegrees>
            </Position>
            <AltitudeMeters>15.3999996185302734375</AltitudeMeters>
            <DistanceMeters>NAN</DistanceMeters>
          </Trackpoint>
          <Trackpoint>
            <Time>2022-07-13T11:54:34.000Z</Time>
            <Position>
              <LatitudeDegrees>43.46098191104829311370849609375</LatitudeDegrees>
              <LongitudeDegrees>-3.59102935530245304107666015625</LongitudeDegrees>
            </Position>
            <AltitudeMeters>14.6000003814697265625</AltitudeMeters>
            <DistanceMeters>NAN</DistanceMeters>
          </Trackpoint>
          <Trackpoint>
            <Time>2022-07-13T11:54:37.000Z</Time>
            <Position>
              <LatitudeDegrees>43.46091954968869686126708984375</LatitudeDegrees>
              <LongitudeDegrees>-3.5913774557411670684814453125</LongitudeDegrees>
            </Position>
            <AltitudeMeters>14</AltitudeMeters>
            <DistanceMeters>NAN</DistanceMeters>
          </Trackpoint>
          <Trackpoint>
            <Time>2022-07-13T11:54:40.000Z</Time>
            <Position>
              <LatitudeDegrees>43.46088836900889873504638671875</LatitudeDegrees>
              <LongitudeDegrees>-3.59162363223731517791748046875</LongitudeDegrees>
            </Position>
            <AltitudeMeters>13.80000019073486328125</AltitudeMeters>
            <DistanceMeters>NAN</DistanceMeters>
          </Trackpoint>
          <Trackpoint>
            <Time>2022-07-13T11:54:44.000Z</Time>
            <Position>
              <LatitudeDegrees>43.46085685305297374725341796875</LatitudeDegrees>
              <LongitudeDegrees>-3.591854386031627655029296875</LongitudeDegrees>
            </Position>
            <AltitudeMeters>13.80000019073486328125</AltitudeMeters>
            <DistanceMeters>NAN</DistanceMeters>
          </Trackpoint>
          <Trackpoint>
            <Time>2022-07-13T11:54:46.000Z</Time>
            <Position>
              <LatitudeDegrees>43.4608396701514720916748046875</LatitudeDegrees>
              <LongitudeDegrees>-3.5919645242393016815185546875</LongitudeDegrees>
            </Position>
            <AltitudeMeters>13.3999996185302734375</AltitudeMeters>
            <DistanceMeters>NAN</DistanceMeters>
          </Trackpoint>
          <Trackpoint>
            <Time>2022-07-13T11:54:48.000Z</Time>
            <Position>
              <LatitudeDegrees>43.46086808480322360992431640625</LatitudeDegrees>
              <LongitudeDegrees>-3.59209888614714145660400390625</LongitudeDegrees>
            </Position>
            <AltitudeMeters>13.19999980926513671875</AltitudeMeters>
            <DistanceMeters>NAN</DistanceMeters>
          </Trackpoint>
          <Trackpoint>
            <Time>2022-07-13T11:54:50.000Z</Time>
            <Position>
              <LatitudeDegrees>43.4609573520720005035400390625</LatitudeDegrees>
              <LongitudeDegrees>-3.592176251113414764404296875</LongitudeDegrees>
            </Position>
            <AltitudeMeters>13</AltitudeMeters>
            <DistanceMeters>NAN</DistanceMeters>
          </Trackpoint>
          <Trackpoint>
            <Time>2022-07-13T11:54:51.000Z</Time>
            <Position>
              <LatitudeDegrees>43.46101108007133007049560546875</LatitudeDegrees>
              <LongitudeDegrees>-3.59218128025531768798828125</LongitudeDegrees>
            </Position>
            <AltitudeMeters>13</AltitudeMeters>
            <DistanceMeters>NAN</DistanceMeters>
          </Trackpoint>
          <Trackpoint>
            <Time>2022-07-13T11:54:54.000Z</Time>
            <Position>
              <LatitudeDegrees>43.46114921383559703826904296875</LatitudeDegrees>
              <LongitudeDegrees>-3.59218924306333065032958984375</LongitudeDegrees>
            </Position>
            <AltitudeMeters>13</AltitudeMeters>
            <DistanceMeters>NAN</DistanceMeters>
          </Trackpoint>
          <Trackpoint>
            <Time>2022-07-13T11:54:56.000Z</Time>
            <Position>
              <LatitudeDegrees>43.4612175263464450836181640625</LatitudeDegrees>
              <LongitudeDegrees>-3.59220835380256175994873046875</LongitudeDegrees>
            </Position>
            <AltitudeMeters>13</AltitudeMeters>
            <DistanceMeters>NAN</DistanceMeters>
          </Trackpoint>
          <Trackpoint>
            <Time>2022-07-13T11:55:02.000Z</Time>
            <Position>
              <LatitudeDegrees>43.461404107511043548583984375</LatitudeDegrees>
              <LongitudeDegrees>-3.59229602850973606109619140625</LongitudeDegrees>
            </Position>
            <AltitudeMeters>12.6000003814697265625</AltitudeMeters>
            <DistanceMeters>NAN</DistanceMeters>
          </Trackpoint>
          <Trackpoint>
            <Time>2022-07-13T11:55:09.000Z</Time>
            <Position>
              <LatitudeDegrees>43.46155389212071895599365234375</LatitudeDegrees>
              <LongitudeDegrees>-3.592470623552799224853515625</LongitudeDegrees>
            </Position>
            <AltitudeMeters>13.3999996185302734375</AltitudeMeters>
            <DistanceMeters>NAN</DistanceMeters>
          </Trackpoint>
          <Trackpoint>
            <Time>2022-07-13T11:55:14.000Z</Time>
            <Position>
              <LatitudeDegrees>43.46166403032839298248291015625</LatitudeDegrees>
              <LongitudeDegrees>-3.59255854971706867218017578125</LongitudeDegrees>
            </Position>
            <AltitudeMeters>14</AltitudeMeters>
            <DistanceMeters>NAN</DistanceMeters>
          </Trackpoint>
          <Trackpoint>
            <Time>2022-07-13T11:55:22.000Z</Time>
            <Position>
              <LatitudeDegrees>43.46183334477245807647705078125</LatitudeDegrees>
              <LongitudeDegrees>-3.5926434583961963653564453125</LongitudeDegrees>
            </Position>
            <AltitudeMeters>14.80000019073486328125</AltitudeMeters>
            <DistanceMeters>NAN</DistanceMeters>
          </Trackpoint>
          <Trackpoint>
            <Time>2022-07-13T11:55:25.000Z</Time>
            <Position>
              <LatitudeDegrees>43.46188698895275592803955078125</LatitudeDegrees>
              <LongitudeDegrees>-3.5926957614719867706298828125</LongitudeDegrees>
            </Position>
            <AltitudeMeters>15.19999980926513671875</AltitudeMeters>
            <DistanceMeters>NAN</DistanceMeters>
          </Trackpoint>
          <Trackpoint>
            <Time>2022-07-13T11:55:29.000Z</Time>
            <Position>
              <LatitudeDegrees>43.4619462490081787109375</LatitudeDegrees>
              <LongitudeDegrees>-3.5927648283541202545166015625</LongitudeDegrees>
            </Position>
            <AltitudeMeters>15.3999996185302734375</AltitudeMeters>
            <DistanceMeters>NAN</DistanceMeters>
          </Trackpoint>
          <Trackpoint>
            <Time>2022-07-13T11:55:37.000Z</Time>
            <Position>
              <LatitudeDegrees>43.46209469251334667205810546875</LatitudeDegrees>
              <LongitudeDegrees>-3.59289935790002346038818359375</LongitudeDegrees>
            </Position>
            <AltitudeMeters>15.80000019073486328125</AltitudeMeters>
            <DistanceMeters>NAN</DistanceMeters>
          </Trackpoint>
          <Trackpoint>
            <Time>2022-07-13T11:55:44.000Z</Time>
            <Position>
              <LatitudeDegrees>43.46220969222486019134521484375</LatitudeDegrees>
              <LongitudeDegrees>-3.5929866135120391845703125</LongitudeDegrees>
            </Position>
            <AltitudeMeters>16.200000762939453125</AltitudeMeters>
            <DistanceMeters>NAN</DistanceMeters>
          </Trackpoint>
          <Trackpoint>
            <Time>2022-07-13T11:55:45.000Z</Time>
            <Position>
              <LatitudeDegrees>43.4622263722121715545654296875</LatitudeDegrees>
              <LongitudeDegrees>-3.59299373812973499298095703125</LongitudeDegrees>
            </Position>
            <AltitudeMeters>16.200000762939453125</AltitudeMeters>
            <DistanceMeters>NAN</DistanceMeters>
          </Trackpoint>
          <Trackpoint>
            <Time>2022-07-13T11:55:50.000Z</Time>
            <Position>
              <LatitudeDegrees>43.4622810222208499908447265625</LatitudeDegrees>
              <LongitudeDegrees>-3.59306733123958110809326171875</LongitudeDegrees>
            </Position>
            <AltitudeMeters>17.200000762939453125</AltitudeMeters>
            <DistanceMeters>NAN</DistanceMeters>
          </Trackpoint>
          <Trackpoint>
            <Time>2022-07-13T11:55:51.000Z</Time>
            <Position>
              <LatitudeDegrees>43.462293259799480438232421875</LatitudeDegrees>
              <LongitudeDegrees>-3.5930796526372432708740234375</LongitudeDegrees>
            </Position>
            <AltitudeMeters>17.3999996185302734375</AltitudeMeters>
            <DistanceMeters>NAN</DistanceMeters>
          </Trackpoint>
          <Trackpoint>
            <Time>2022-07-13T11:55:53.000Z</Time>
            <Position>
              <LatitudeDegrees>43.4623165614902973175048828125</LatitudeDegrees>
              <LongitudeDegrees>-3.593111336231231689453125</LongitudeDegrees>
            </Position>
            <AltitudeMeters>17.6000003814697265625</AltitudeMeters>
            <DistanceMeters>NAN</DistanceMeters>
          </Trackpoint>
          <Trackpoint>
            <Time>2022-07-13T11:55:55.000Z</Time>
            <Position>
              <LatitudeDegrees>43.46233542077243328094482421875</LatitudeDegrees>
              <LongitudeDegrees>-3.59315584413707256317138671875</LongitudeDegrees>
            </Position>
            <AltitudeMeters>18.200000762939453125</AltitudeMeters>
            <DistanceMeters>NAN</DistanceMeters>
          </Trackpoint>
          <Trackpoint>
            <Time>2022-07-13T11:55:56.000Z</Time>
            <Position>
              <LatitudeDegrees>43.46234832890331745147705078125</LatitudeDegrees>
              <LongitudeDegrees>-3.59317679889500141143798828125</LongitudeDegrees>
            </Position>
            <AltitudeMeters>18.3999996185302734375</AltitudeMeters>
            <DistanceMeters>NAN</DistanceMeters>
          </Trackpoint>
          <Trackpoint>
            <Time>2022-07-13T11:55:57.000Z</Time>
            <Position>
              <LatitudeDegrees>43.462362326681613922119140625</LatitudeDegrees>
              <LongitudeDegrees>-3.59319121576845645904541015625</LongitudeDegrees>
            </Position>
            <AltitudeMeters>18.799999237060546875</AltitudeMeters>
            <DistanceMeters>NAN</DistanceMeters>
          </Trackpoint>
          <Trackpoint>
            <Time>2022-07-13T11:55:59.000Z</Time>
            <Position>
              <LatitudeDegrees>43.462380431592464447021484375</LatitudeDegrees>
              <LongitudeDegrees>-3.5932087339460849761962890625</LongitudeDegrees>
            </Position>
            <AltitudeMeters>19.200000762939453125</AltitudeMeters>
            <DistanceMeters>NAN</DistanceMeters>
          </Trackpoint>
          <Trackpoint>
            <Time>2022-07-13T11:56:02.000Z</Time>
            <Position>
              <LatitudeDegrees>43.46238520927727222442626953125</LatitudeDegrees>
              <LongitudeDegrees>-3.59321116469800472259521484375</LongitudeDegrees>
            </Position>
            <AltitudeMeters>19</AltitudeMeters>
            <DistanceMeters>NAN</DistanceMeters>
          </Trackpoint>
          <Trackpoint>
            <Time>2022-07-13T11:56:41.000Z</Time>
            <Position>
              <LatitudeDegrees>43.46236811019480228424072265625</LatitudeDegrees>
              <LongitudeDegrees>-3.59320311807096004486083984375</LongitudeDegrees>
            </Position>
            <AltitudeMeters>17.799999237060546875</AltitudeMeters>
            <DistanceMeters>NAN</DistanceMeters>
          </Trackpoint>
          <Trackpoint>
            <Time>2022-07-13T11:56:43.000Z</Time>
            <Position>
              <LatitudeDegrees>43.462404906749725341796875</LatitudeDegrees>
              <LongitudeDegrees>-3.59322440810501575469970703125</LongitudeDegrees>
            </Position>
            <AltitudeMeters>17.799999237060546875</AltitudeMeters>
            <DistanceMeters>NAN</DistanceMeters>
          </Trackpoint>
          <Trackpoint>
            <Time>2022-07-13T11:56:44.000Z</Time>
            <Position>
              <LatitudeDegrees>43.46242435276508331298828125</LatitudeDegrees>
              <LongitudeDegrees>-3.5932360589504241943359375</LongitudeDegrees>
            </Position>
            <AltitudeMeters>17.799999237060546875</AltitudeMeters>
            <DistanceMeters>NAN</DistanceMeters>
          </Trackpoint>
          <Trackpoint>
            <Time>2022-07-13T11:56:50.000Z</Time>
            <Position>
              <LatitudeDegrees>43.4625966846942901611328125</LatitudeDegrees>
              <LongitudeDegrees>-3.59330487437546253204345703125</LongitudeDegrees>
            </Position>
            <AltitudeMeters>17.6000003814697265625</AltitudeMeters>
            <DistanceMeters>NAN</DistanceMeters>
          </Trackpoint>
          <Trackpoint>
            <Time>2022-07-13T11:56:55.000Z</Time>
            <Position>
              <LatitudeDegrees>43.46271947957575321197509765625</LatitudeDegrees>
              <LongitudeDegrees>-3.59336413443088531494140625</LongitudeDegrees>
            </Position>
            <AltitudeMeters>17.799999237060546875</AltitudeMeters>
            <DistanceMeters>NAN</DistanceMeters>
          </Trackpoint>
          <Trackpoint>
            <Time>2022-07-13T11:56:57.000Z</Time>
            <Position>
              <LatitudeDegrees>43.46275568939745426177978515625</LatitudeDegrees>
              <LongitudeDegrees>-3.593384586274623870849609375</LongitudeDegrees>
            </Position>
            <AltitudeMeters>18</AltitudeMeters>
            <DistanceMeters>NAN</DistanceMeters>
          </Trackpoint>
          <Trackpoint>
            <Time>2022-07-13T11:57:00.000Z</Time>
            <Position>
              <LatitudeDegrees>43.46281603910028934478759765625</LatitudeDegrees>
              <LongitudeDegrees>-3.5934023559093475341796875</LongitudeDegrees>
            </Position>
            <AltitudeMeters>18</AltitudeMeters>
            <DistanceMeters>NAN</DistanceMeters>
          </Trackpoint>
          <Trackpoint>
            <Time>2022-07-13T11:57:05.000Z</Time>
            <Position>
              <LatitudeDegrees>43.46295115537941455841064453125</LatitudeDegrees>
              <LongitudeDegrees>-3.59346228651702404022216796875</LongitudeDegrees>
            </Position>
            <AltitudeMeters>18.200000762939453125</AltitudeMeters>
            <DistanceMeters>NAN</DistanceMeters>
          </Trackpoint>
          <Trackpoint>
            <Time>2022-07-13T11:57:12.000Z</Time>
            <Position>
              <LatitudeDegrees>43.46316556446254253387451171875</LatitudeDegrees>
              <LongitudeDegrees>-3.5935364663600921630859375</LongitudeDegrees>
            </Position>
            <AltitudeMeters>18.3999996185302734375</AltitudeMeters>
            <DistanceMeters>NAN</DistanceMeters>
          </Trackpoint>
          <Trackpoint>
            <Time>2022-07-13T11:57:22.000Z</Time>
            <Position>
              <LatitudeDegrees>43.46345121972262859344482421875</LatitudeDegrees>
              <LongitudeDegrees>-3.5936060361564159393310546875</LongitudeDegrees>
            </Position>
            <AltitudeMeters>18.200000762939453125</AltitudeMeters>
            <DistanceMeters>NAN</DistanceMeters>
          </Trackpoint>
          <Trackpoint>
            <Time>2022-07-13T11:57:23.000Z</Time>
            <Position>
              <LatitudeDegrees>43.46348508261144161224365234375</LatitudeDegrees>
              <LongitudeDegrees>-3.59360142610967159271240234375</LongitudeDegrees>
            </Position>
            <AltitudeMeters>18.3999996185302734375</AltitudeMeters>
            <DistanceMeters>NAN</DistanceMeters>
          </Trackpoint>
          <Trackpoint>
            <Time>2022-07-13T11:57:29.000Z</Time>
            <Position>
              <LatitudeDegrees>43.46359404735267162322998046875</LatitudeDegrees>
              <LongitudeDegrees>-3.5935590974986553192138671875</LongitudeDegrees>
            </Position>
            <AltitudeMeters>18.799999237060546875</AltitudeMeters>
            <DistanceMeters>NAN</DistanceMeters>
          </Trackpoint>
          <Trackpoint>
            <Time>2022-07-13T11:57:33.000Z</Time>
            <Position>
              <LatitudeDegrees>43.46363930962979793548583984375</LatitudeDegrees>
              <LongitudeDegrees>-3.59349765814840793609619140625</LongitudeDegrees>
            </Position>
            <AltitudeMeters>19.6000003814697265625</AltitudeMeters>
            <DistanceMeters>NAN</DistanceMeters>
          </Trackpoint>
          <Trackpoint>
            <Time>2022-07-13T11:57:35.000Z</Time>
            <Position>
              <LatitudeDegrees>43.4636543132364749908447265625</LatitudeDegrees>
              <LongitudeDegrees>-3.59346681274473667144775390625</LongitudeDegrees>
            </Position>
            <AltitudeMeters>19.799999237060546875</AltitudeMeters>
            <DistanceMeters>NAN</DistanceMeters>
          </Trackpoint>
          <Trackpoint>
            <Time>2022-07-13T11:57:38.000Z</Time>
            <Position>
              <LatitudeDegrees>43.46368574537336826324462890625</LatitudeDegrees>
              <LongitudeDegrees>-3.5934229753911495208740234375</LongitudeDegrees>
            </Position>
            <AltitudeMeters>20</AltitudeMeters>
            <DistanceMeters>NAN</DistanceMeters>
          </Trackpoint>
          <Trackpoint>
            <Time>2022-07-13T11:57:40.000Z</Time>
            <Position>
              <LatitudeDegrees>43.46369328908622264862060546875</LatitudeDegrees>
              <LongitudeDegrees>-3.593387268483638763427734375</LongitudeDegrees>
            </Position>
            <AltitudeMeters>20.799999237060546875</AltitudeMeters>
            <DistanceMeters>NAN</DistanceMeters>
          </Trackpoint>
          <Trackpoint>
            <Time>2022-07-13T11:57:46.000Z</Time>
            <Position>
              <LatitudeDegrees>43.4637320972979068756103515625</LatitudeDegrees>
              <LongitudeDegrees>-3.59329146333038806915283203125</LongitudeDegrees>
            </Position>
            <AltitudeMeters>22.200000762939453125</AltitudeMeters>
            <DistanceMeters>NAN</DistanceMeters>
          </Trackpoint>
          <Trackpoint>
            <Time>2022-07-13T11:57:47.000Z</Time>
            <Position>
              <LatitudeDegrees>43.46374475397169589996337890625</LatitudeDegrees>
              <LongitudeDegrees>-3.5932736098766326904296875</LongitudeDegrees>
            </Position>
            <AltitudeMeters>22.6000003814697265625</AltitudeMeters>
            <DistanceMeters>NAN</DistanceMeters>
          </Trackpoint>
          <Trackpoint>
            <Time>2022-07-13T11:57:48.000Z</Time>
            <Position>
              <LatitudeDegrees>43.4637502022087574005126953125</LatitudeDegrees>
              <LongitudeDegrees>-3.59325860626995563507080078125</LongitudeDegrees>
            </Position>
            <AltitudeMeters>22.799999237060546875</AltitudeMeters>
            <DistanceMeters>NAN</DistanceMeters>
          </Trackpoint>
          <Trackpoint>
            <Time>2022-07-13T11:57:52.000Z</Time>
            <Position>
              <LatitudeDegrees>43.4637676365673542022705078125</LatitudeDegrees>
              <LongitudeDegrees>-3.59319725073873996734619140625</LongitudeDegrees>
            </Position>
            <AltitudeMeters>23.200000762939453125</AltitudeMeters>
            <DistanceMeters>NAN</DistanceMeters>
          </Trackpoint>
          <Trackpoint>
            <Time>2022-07-13T11:57:55.000Z</Time>
            <Position>
              <LatitudeDegrees>43.4637830592691898345947265625</LatitudeDegrees>
              <LongitudeDegrees>-3.59315215609967708587646484375</LongitudeDegrees>
            </Position>
            <AltitudeMeters>24</AltitudeMeters>
            <DistanceMeters>NAN</DistanceMeters>
          </Trackpoint>
          <Trackpoint>
            <Time>2022-07-13T11:57:56.000Z</Time>
            <Position>
              <LatitudeDegrees>43.46379219554364681243896484375</LatitudeDegrees>
              <LongitudeDegrees>-3.5931383259594440460205078125</LongitudeDegrees>
            </Position>
            <AltitudeMeters>24.3999996185302734375</AltitudeMeters>
            <DistanceMeters>NAN</DistanceMeters>
          </Trackpoint>
          <Trackpoint>
            <Time>2022-07-13T11:58:01.000Z</Time>
            <Position>
              <LatitudeDegrees>43.4638333506882190704345703125</LatitudeDegrees>
              <LongitudeDegrees>-3.59306104481220245361328125</LongitudeDegrees>
            </Position>
            <AltitudeMeters>25</AltitudeMeters>
            <DistanceMeters>NAN</DistanceMeters>
          </Trackpoint>
          <Trackpoint>
            <Time>2022-07-13T11:58:03.000Z</Time>
            <Position>
              <LatitudeDegrees>43.46384885720908641815185546875</LatitudeDegrees>
              <LongitudeDegrees>-3.593029864132404327392578125</LongitudeDegrees>
            </Position>
            <AltitudeMeters>25.3999996185302734375</AltitudeMeters>
            <DistanceMeters>NAN</DistanceMeters>
          </Trackpoint>
          <Trackpoint>
            <Time>2022-07-13T11:58:05.000Z</Time>
            <Position>
              <LatitudeDegrees>43.46386712975800037384033203125</LatitudeDegrees>
              <LongitudeDegrees>-3.593004383146762847900390625</LongitudeDegrees>
            </Position>
            <AltitudeMeters>25.6000003814697265625</AltitudeMeters>
            <DistanceMeters>NAN</DistanceMeters>
          </Trackpoint>
          <Trackpoint>
            <Time>2022-07-13T11:58:09.000Z</Time>
            <Position>
              <LatitudeDegrees>43.46390551887452602386474609375</LatitudeDegrees>
              <LongitudeDegrees>-3.5929519124329090118408203125</LongitudeDegrees>
            </Position>
            <AltitudeMeters>25.799999237060546875</AltitudeMeters>
            <DistanceMeters>NAN</DistanceMeters>
          </Trackpoint>
          <Trackpoint>
            <Time>2022-07-13T11:58:12.000Z</Time>
            <Position>
              <LatitudeDegrees>43.46394374035298824310302734375</LatitudeDegrees>
              <LongitudeDegrees>-3.5929153673350811004638671875</LongitudeDegrees>
            </Position>
            <AltitudeMeters>26.3999996185302734375</AltitudeMeters>
            <DistanceMeters>NAN</DistanceMeters>
          </Trackpoint>
          <Trackpoint>
            <Time>2022-07-13T11:58:13.000Z</Time>
            <Position>
              <LatitudeDegrees>43.4639517031610012054443359375</LatitudeDegrees>
              <LongitudeDegrees>-3.59290572814643383026123046875</LongitudeDegrees>
            </Position>
            <AltitudeMeters>26.6000003814697265625</AltitudeMeters>
            <DistanceMeters>NAN</DistanceMeters>
          </Trackpoint>
          <Trackpoint>
            <Time>2022-07-13T11:58:16.000Z</Time>
            <Position>
              <LatitudeDegrees>43.46397844143211841583251953125</LatitudeDegrees>
              <LongitudeDegrees>-3.59287739731371402740478515625</LongitudeDegrees>
            </Position>
            <AltitudeMeters>27.6000003814697265625</AltitudeMeters>
            <DistanceMeters>NAN</DistanceMeters>
          </Trackpoint>
          <Trackpoint>
            <Time>2022-07-13T11:58:21.000Z</Time>
            <Position>
              <LatitudeDegrees>43.4640371985733509063720703125</LatitudeDegrees>
              <LongitudeDegrees>-3.59283615835011005401611328125</LongitudeDegrees>
            </Position>
            <AltitudeMeters>28.200000762939453125</AltitudeMeters>
            <DistanceMeters>NAN</DistanceMeters>
          </Trackpoint>
          <Trackpoint>
            <Time>2022-07-13T11:58:22.000Z</Time>
            <Position>
              <LatitudeDegrees>43.46404935233294963836669921875</LatitudeDegrees>
              <LongitudeDegrees>-3.5928271897137165069580078125</LongitudeDegrees>
            </Position>
            <AltitudeMeters>28.200000762939453125</AltitudeMeters>
            <DistanceMeters>NAN</DistanceMeters>
          </Trackpoint>
          <Trackpoint>
            <Time>2022-07-13T11:58:27.000Z</Time>
            <Position>
              <LatitudeDegrees>43.4641149826347827911376953125</LatitudeDegrees>
              <LongitudeDegrees>-3.592813275754451751708984375</LongitudeDegrees>
            </Position>
            <AltitudeMeters>28.6000003814697265625</AltitudeMeters>
            <DistanceMeters>NAN</DistanceMeters>
          </Trackpoint>
          <Trackpoint>
            <Time>2022-07-13T11:58:28.000Z</Time>
            <Position>
              <LatitudeDegrees>43.4641273878514766693115234375</LatitudeDegrees>
              <LongitudeDegrees>-3.59280464239418506622314453125</LongitudeDegrees>
            </Position>
            <AltitudeMeters>28.799999237060546875</AltitudeMeters>
            <DistanceMeters>NAN</DistanceMeters>
          </Trackpoint>
          <Trackpoint>
            <Time>2022-07-13T11:58:29.000Z</Time>
            <Position>
              <LatitudeDegrees>43.464141301810741424560546875</LatitudeDegrees>
              <LongitudeDegrees>-3.59279223717749118804931640625</LongitudeDegrees>
            </Position>
            <AltitudeMeters>28.799999237060546875</AltitudeMeters>
            <DistanceMeters>NAN</DistanceMeters>
          </Trackpoint>
          <Trackpoint>
            <Time>2022-07-13T11:58:32.000Z</Time>
            <Position>
              <LatitudeDegrees>43.4641877375543117523193359375</LatitudeDegrees>
              <LongitudeDegrees>-3.5927805863320827484130859375</LongitudeDegrees>
            </Position>
            <AltitudeMeters>29.799999237060546875</AltitudeMeters>
            <DistanceMeters>NAN</DistanceMeters>
          </Trackpoint>
          <Trackpoint>
            <Time>2022-07-13T11:58:37.000Z</Time>
            <Position>
              <LatitudeDegrees>43.4642477519810199737548828125</LatitudeDegrees>
              <LongitudeDegrees>-3.592752255499362945556640625</LongitudeDegrees>
            </Position>
            <AltitudeMeters>30.200000762939453125</AltitudeMeters>
            <DistanceMeters>NAN</DistanceMeters>
          </Trackpoint>
          <Trackpoint>
            <Time>2022-07-13T11:58:42.000Z</Time>
            <Position>
              <LatitudeDegrees>43.464316986501216888427734375</LatitudeDegrees>
              <LongitudeDegrees>-3.59272032044827938079833984375</LongitudeDegrees>
            </Position>
            <AltitudeMeters>30.799999237060546875</AltitudeMeters>
            <DistanceMeters>NAN</DistanceMeters>
          </Trackpoint>
          <Trackpoint>
            <Time>2022-07-13T11:58:47.000Z</Time>
            <Position>
              <LatitudeDegrees>43.46438563428819179534912109375</LatitudeDegrees>
              <LongitudeDegrees>-3.5926902294158935546875</LongitudeDegrees>
            </Position>
            <AltitudeMeters>31.200000762939453125</AltitudeMeters>
            <DistanceMeters>NAN</DistanceMeters>
          </Trackpoint>
          <Trackpoint>
            <Time>2022-07-13T11:58:54.000Z</Time>
            <Position>
              <LatitudeDegrees>43.46448219381272792816162109375</LatitudeDegrees>
              <LongitudeDegrees>-3.59265577979385852813720703125</LongitudeDegrees>
            </Position>
            <AltitudeMeters>32</AltitudeMeters>
            <DistanceMeters>NAN</DistanceMeters>
          </Trackpoint>
          <Trackpoint>
            <Time>2022-07-13T11:58:57.000Z</Time>
            <Position>
              <LatitudeDegrees>43.464523516595363616943359375</LatitudeDegrees>
              <LongitudeDegrees>-3.59263683669269084930419921875</LongitudeDegrees>
            </Position>
            <AltitudeMeters>32.200000762939453125</AltitudeMeters>
            <DistanceMeters>NAN</DistanceMeters>
          </Trackpoint>
          <Trackpoint>
            <Time>2022-07-13T11:59:01.000Z</Time>
            <Position>
              <LatitudeDegrees>43.4645719639956951141357421875</LatitudeDegrees>
              <LongitudeDegrees>-3.5926065780222415924072265625</LongitudeDegrees>
            </Position>
            <AltitudeMeters>32.799999237060546875</AltitudeMeters>
            <DistanceMeters>NAN</DistanceMeters>
          </Trackpoint>
          <Trackpoint>
            <Time>2022-07-13T11:59:03.000Z</Time>
            <Position>
              <LatitudeDegrees>43.46459023654460906982421875</LatitudeDegrees>
              <LongitudeDegrees>-3.59259157441556453704833984375</LongitudeDegrees>
            </Position>
            <AltitudeMeters>33</AltitudeMeters>
            <DistanceMeters>NAN</DistanceMeters>
          </Trackpoint>
          <Trackpoint>
            <Time>2022-07-13T11:59:05.000Z</Time>
            <Position>
              <LatitudeDegrees>43.46462083049118518829345703125</LatitudeDegrees>
              <LongitudeDegrees>-3.59257715754210948944091796875</LongitudeDegrees>
            </Position>
            <AltitudeMeters>33.40000152587890625</AltitudeMeters>
            <DistanceMeters>NAN</DistanceMeters>
          </Trackpoint>
          <Trackpoint>
            <Time>2022-07-13T11:59:07.000Z</Time>
            <Position>
              <LatitudeDegrees>43.4646566212177276611328125</LatitudeDegrees>
              <LongitudeDegrees>-3.59256022609770298004150390625</LongitudeDegrees>
            </Position>
            <AltitudeMeters>33.40000152587890625</AltitudeMeters>
            <DistanceMeters>NAN</DistanceMeters>
          </Trackpoint>
          <Trackpoint>
            <Time>2022-07-13T11:59:11.000Z</Time>
            <Position>
              <LatitudeDegrees>43.4647236764430999755859375</LatitudeDegrees>
              <LongitudeDegrees>-3.592517562210559844970703125</LongitudeDegrees>
            </Position>
            <AltitudeMeters>33.59999847412109375</AltitudeMeters>
            <DistanceMeters>NAN</DistanceMeters>
          </Trackpoint>
          <Trackpoint>
            <Time>2022-07-13T11:59:14.000Z</Time>
            <Position>
              <LatitudeDegrees>43.46477019600570201873779296875</LatitudeDegrees>
              <LongitudeDegrees>-3.59249350614845752716064453125</LongitudeDegrees>
            </Position>
            <AltitudeMeters>33.59999847412109375</AltitudeMeters>
            <DistanceMeters>NAN</DistanceMeters>
          </Trackpoint>
          <Trackpoint>
            <Time>2022-07-13T11:59:22.000Z</Time>
            <Position>
              <LatitudeDegrees>43.46488100476562976837158203125</LatitudeDegrees>
              <LongitudeDegrees>-3.5924345813691616058349609375</LongitudeDegrees>
            </Position>
            <AltitudeMeters>34.200000762939453125</AltitudeMeters>
            <DistanceMeters>NAN</DistanceMeters>
          </Trackpoint>
          <Trackpoint>
            <Time>2022-07-13T11:59:26.000Z</Time>
            <Position>
              <LatitudeDegrees>43.464936912059783935546875</LatitudeDegrees>
              <LongitudeDegrees>-3.59238889999687671661376953125</LongitudeDegrees>
            </Position>
            <AltitudeMeters>34.59999847412109375</AltitudeMeters>
            <DistanceMeters>NAN</DistanceMeters>
          </Trackpoint>
          <Trackpoint>
            <Time>2022-07-13T11:59:29.000Z</Time>
            <Position>
              <LatitudeDegrees>43.46497890539467334747314453125</LatitudeDegrees>
              <LongitudeDegrees>-3.59235319308936595916748046875</LongitudeDegrees>
            </Position>
            <AltitudeMeters>35</AltitudeMeters>
            <DistanceMeters>NAN</DistanceMeters>
          </Trackpoint>
          <Trackpoint>
            <Time>2022-07-13T11:59:32.000Z</Time>
            <Position>
              <LatitudeDegrees>43.46501670777797698974609375</LatitudeDegrees>
              <LongitudeDegrees>-3.59232083894312381744384765625</LongitudeDegrees>
            </Position>
            <AltitudeMeters>35.200000762939453125</AltitudeMeters>
            <DistanceMeters>NAN</DistanceMeters>
          </Trackpoint>
          <Trackpoint>
            <Time>2022-07-13T11:59:36.000Z</Time>
            <Position>
              <LatitudeDegrees>43.4650611318647861480712890625</LatitudeDegrees>
              <LongitudeDegrees>-3.59226937405765056610107421875</LongitudeDegrees>
            </Position>
            <AltitudeMeters>35.40000152587890625</AltitudeMeters>
            <DistanceMeters>NAN</DistanceMeters>
          </Trackpoint>
          <Trackpoint>
            <Time>2022-07-13T11:59:43.000Z</Time>
            <Position>
              <LatitudeDegrees>43.46515039913356304168701171875</LatitudeDegrees>
              <LongitudeDegrees>-3.592224530875682830810546875</LongitudeDegrees>
            </Position>
            <AltitudeMeters>36</AltitudeMeters>
            <DistanceMeters>NAN</DistanceMeters>
          </Trackpoint>
          <Trackpoint>
            <Time>2022-07-13T11:59:44.000Z</Time>
            <Position>
              <LatitudeDegrees>43.4651607088744640350341796875</LatitudeDegrees>
              <LongitudeDegrees>-3.59223358333110809326171875</LongitudeDegrees>
            </Position>
            <AltitudeMeters>36.200000762939453125</AltitudeMeters>
            <DistanceMeters>NAN</DistanceMeters>
          </Trackpoint>
          <Trackpoint>
            <Time>2022-07-13T11:59:46.000Z</Time>
            <Position>
              <LatitudeDegrees>43.4651781432330608367919921875</LatitudeDegrees>
              <LongitudeDegrees>-3.59226216562092304229736328125</LongitudeDegrees>
            </Position>
            <AltitudeMeters>36.59999847412109375</AltitudeMeters>
            <DistanceMeters>NAN</DistanceMeters>
          </Trackpoint>
          <Trackpoint>
            <Time>2022-07-13T11:59:49.000Z</Time>
            <Position>
              <LatitudeDegrees>43.4651796519756317138671875</LatitudeDegrees>
              <LongitudeDegrees>-3.5923266224563121795654296875</LongitudeDegrees>
            </Position>
            <AltitudeMeters>37</AltitudeMeters>
            <DistanceMeters>NAN</DistanceMeters>
          </Trackpoint>
          <Trackpoint>
            <Time>2022-07-13T11:59:52.000Z</Time>
            <Position>
              <LatitudeDegrees>43.46516850404441356658935546875</LatitudeDegrees>
              <LongitudeDegrees>-3.59239342622458934783935546875</LongitudeDegrees>
            </Position>
            <AltitudeMeters>37.200000762939453125</AltitudeMeters>
            <DistanceMeters>NAN</DistanceMeters>
          </Trackpoint>
          <Trackpoint>
            <Time>2022-07-13T11:59:56.000Z</Time>
            <Position>
              <LatitudeDegrees>43.46516666002571582794189453125</LatitudeDegrees>
              <LongitudeDegrees>-3.592464588582515716552734375</LongitudeDegrees>
            </Position>
            <AltitudeMeters>38</AltitudeMeters>
            <DistanceMeters>NAN</DistanceMeters>
          </Trackpoint>
          <Trackpoint>
            <Time>2022-07-13T11:59:59.000Z</Time>
            <Position>
              <LatitudeDegrees>43.4651637263596057891845703125</LatitudeDegrees>
              <LongitudeDegrees>-3.59251982532441616058349609375</LongitudeDegrees>
            </Position>
            <AltitudeMeters>38.40000152587890625</AltitudeMeters>
            <DistanceMeters>NAN</DistanceMeters>
          </Trackpoint>
          <Trackpoint>
            <Time>2022-07-13T12:00:05.000Z</Time>
            <Position>
              <LatitudeDegrees>43.465175293385982513427734375</LatitudeDegrees>
              <LongitudeDegrees>-3.5926360823214054107666015625</LongitudeDegrees>
            </Position>
            <AltitudeMeters>39</AltitudeMeters>
            <DistanceMeters>NAN</DistanceMeters>
          </Trackpoint>
          <Trackpoint>
            <Time>2022-07-13T12:00:08.000Z</Time>
            <Position>
              <LatitudeDegrees>43.465169928967952728271484375</LatitudeDegrees>
              <LongitudeDegrees>-3.59270003624260425567626953125</LongitudeDegrees>
            </Position>
            <AltitudeMeters>39</AltitudeMeters>
            <DistanceMeters>NAN</DistanceMeters>
          </Trackpoint>
          <Trackpoint>
            <Time>2022-07-13T12:00:11.000Z</Time>
            <Position>
              <LatitudeDegrees>43.46515953540802001953125</LatitudeDegrees>
              <LongitudeDegrees>-3.59276658855378627777099609375</LongitudeDegrees>
            </Position>
            <AltitudeMeters>39</AltitudeMeters>
            <DistanceMeters>NAN</DistanceMeters>
          </Trackpoint>
          <Trackpoint>
            <Time>2022-07-13T12:00:16.000Z</Time>
            <Position>
              <LatitudeDegrees>43.46515391953289508819580078125</LatitudeDegrees>
              <LongitudeDegrees>-3.59288812614977359771728515625</LongitudeDegrees>
            </Position>
            <AltitudeMeters>39.40000152587890625</AltitudeMeters>
            <DistanceMeters>NAN</DistanceMeters>
          </Trackpoint>
          <Trackpoint>
            <Time>2022-07-13T12:00:20.000Z</Time>
            <Position>
              <LatitudeDegrees>43.465143106877803802490234375</LatitudeDegrees>
              <LongitudeDegrees>-3.59298267401754856109619140625</LongitudeDegrees>
            </Position>
            <AltitudeMeters>39.799999237060546875</AltitudeMeters>
            <DistanceMeters>NAN</DistanceMeters>
          </Trackpoint>
          <Trackpoint>
            <Time>2022-07-13T12:00:28.000Z</Time>
            <Position>
              <LatitudeDegrees>43.4651255048811435699462890625</LatitudeDegrees>
              <LongitudeDegrees>-3.5931716859340667724609375</LongitudeDegrees>
            </Position>
            <AltitudeMeters>41</AltitudeMeters>
            <DistanceMeters>NAN</DistanceMeters>
          </Trackpoint>
          <Trackpoint>
            <Time>2022-07-13T12:00:30.000Z</Time>
            <Position>
              <LatitudeDegrees>43.465130366384983062744140625</LatitudeDegrees>
              <LongitudeDegrees>-3.593210242688655853271484375</LongitudeDegrees>
            </Position>
            <AltitudeMeters>41.40000152587890625</AltitudeMeters>
            <DistanceMeters>NAN</DistanceMeters>
          </Trackpoint>
          <Trackpoint>
            <Time>2022-07-13T12:00:36.000Z</Time>
            <Position>
              <LatitudeDegrees>43.46512936055660247802734375</LatitudeDegrees>
              <LongitudeDegrees>-3.593347370624542236328125</LongitudeDegrees>
            </Position>
            <AltitudeMeters>42</AltitudeMeters>
            <DistanceMeters>NAN</DistanceMeters>
          </Trackpoint>
          <Trackpoint>
            <Time>2022-07-13T12:00:41.000Z</Time>
            <Position>
              <LatitudeDegrees>43.465140759944915771484375</LatitudeDegrees>
              <LongitudeDegrees>-3.59345734119415283203125</LongitudeDegrees>
            </Position>
            <AltitudeMeters>42.40000152587890625</AltitudeMeters>
            <DistanceMeters>NAN</DistanceMeters>
          </Trackpoint>
          <Trackpoint>
            <Time>2022-07-13T12:00:50.000Z</Time>
            <Position>
              <LatitudeDegrees>43.46518074162304401397705078125</LatitudeDegrees>
              <LongitudeDegrees>-3.5936325229704380035400390625</LongitudeDegrees>
            </Position>
            <AltitudeMeters>43</AltitudeMeters>
            <DistanceMeters>NAN</DistanceMeters>
          </Trackpoint>
          <Trackpoint>
            <Time>2022-07-13T12:00:52.000Z</Time>
            <Position>
              <LatitudeDegrees>43.465196751058101654052734375</LatitudeDegrees>
              <LongitudeDegrees>-3.59367124736309051513671875</LongitudeDegrees>
            </Position>
            <AltitudeMeters>43</AltitudeMeters>
            <DistanceMeters>NAN</DistanceMeters>
          </Trackpoint>
          <Trackpoint>
            <Time>2022-07-13T12:01:02.000Z</Time>
            <Position>
              <LatitudeDegrees>43.46529557369649410247802734375</LatitudeDegrees>
              <LongitudeDegrees>-3.59382455237209796905517578125</LongitudeDegrees>
            </Position>
            <AltitudeMeters>44</AltitudeMeters>
            <DistanceMeters>NAN</DistanceMeters>
          </Trackpoint>
          <Trackpoint>
            <Time>2022-07-13T12:01:03.000Z</Time>
            <Position>
              <LatitudeDegrees>43.4653062187135219573974609375</LatitudeDegrees>
              <LongitudeDegrees>-3.59384265728294849395751953125</LongitudeDegrees>
            </Position>
            <AltitudeMeters>44.200000762939453125</AltitudeMeters>
            <DistanceMeters>NAN</DistanceMeters>
          </Trackpoint>
          <Trackpoint>
            <Time>2022-07-13T12:01:11.000Z</Time>
            <Position>
              <LatitudeDegrees>43.46537972800433635711669921875</LatitudeDegrees>
              <LongitudeDegrees>-3.59394013881683349609375</LongitudeDegrees>
            </Position>
            <AltitudeMeters>45.200000762939453125</AltitudeMeters>
            <DistanceMeters>NAN</DistanceMeters>
          </Trackpoint>
          <Trackpoint>
            <Time>2022-07-13T12:01:12.000Z</Time>
            <Position>
              <LatitudeDegrees>43.46539079211652278900146484375</LatitudeDegrees>
              <LongitudeDegrees>-3.5939520411193370819091796875</LongitudeDegrees>
            </Position>
            <AltitudeMeters>45.40000152587890625</AltitudeMeters>
            <DistanceMeters>NAN</DistanceMeters>
          </Trackpoint>
          <Trackpoint>
            <Time>2022-07-13T12:01:20.000Z</Time>
            <Position>
              <LatitudeDegrees>43.46548466943204402923583984375</LatitudeDegrees>
              <LongitudeDegrees>-3.5940123908221721649169921875</LongitudeDegrees>
            </Position>
            <AltitudeMeters>46</AltitudeMeters>
            <DistanceMeters>NAN</DistanceMeters>
          </Trackpoint>
          <Trackpoint>
            <Time>2022-07-13T12:01:21.000Z</Time>
            <Position>
              <LatitudeDegrees>43.46549724228680133819580078125</LatitudeDegrees>
              <LongitudeDegrees>-3.59402152709662914276123046875</LongitudeDegrees>
            </Position>
            <AltitudeMeters>46.200000762939453125</AltitudeMeters>
            <DistanceMeters>NAN</DistanceMeters>
          </Trackpoint>
          <Trackpoint>
            <Time>2022-07-13T12:01:23.000Z</Time>
            <Position>
              <LatitudeDegrees>43.46551828086376190185546875</LatitudeDegrees>
              <LongitudeDegrees>-3.5940418951213359832763671875</LongitudeDegrees>
            </Position>
            <AltitudeMeters>46.40000152587890625</AltitudeMeters>
            <DistanceMeters>NAN</DistanceMeters>
          </Trackpoint>
          <Trackpoint>
            <Time>2022-07-13T12:01:28.000Z</Time>
            <Position>
              <LatitudeDegrees>43.46556966193020343780517578125</LatitudeDegrees>
              <LongitudeDegrees>-3.5940888337790966033935546875</LongitudeDegrees>
            </Position>
            <AltitudeMeters>47.40000152587890625</AltitudeMeters>
            <DistanceMeters>NAN</DistanceMeters>
          </Trackpoint>
          <Trackpoint>
            <Time>2022-07-13T12:01:30.000Z</Time>
            <Position>
              <LatitudeDegrees>43.46558139659464359283447265625</LatitudeDegrees>
              <LongitudeDegrees>-3.59410769306123256683349609375</LongitudeDegrees>
            </Position>
            <AltitudeMeters>47.59999847412109375</AltitudeMeters>
            <DistanceMeters>NAN</DistanceMeters>
          </Trackpoint>
          <Trackpoint>
            <Time>2022-07-13T12:01:31.000Z</Time>
            <Position>
              <LatitudeDegrees>43.46559162251651287078857421875</LatitudeDegrees>
              <LongitudeDegrees>-3.59412026591598987579345703125</LongitudeDegrees>
            </Position>
            <AltitudeMeters>47.799999237060546875</AltitudeMeters>
            <DistanceMeters>NAN</DistanceMeters>
          </Trackpoint>
          <Trackpoint>
            <Time>2022-07-13T12:01:36.000Z</Time>
            <Position>
              <LatitudeDegrees>43.4656438417732715606689453125</LatitudeDegrees>
              <LongitudeDegrees>-3.594167120754718780517578125</LongitudeDegrees>
            </Position>
            <AltitudeMeters>48.59999847412109375</AltitudeMeters>
            <DistanceMeters>NAN</DistanceMeters>
          </Trackpoint>
          <Trackpoint>
            <Time>2022-07-13T12:01:38.000Z</Time>
            <Position>
              <LatitudeDegrees>43.46565348096191883087158203125</LatitudeDegrees>
              <LongitudeDegrees>-3.59420073218643665313720703125</LongitudeDegrees>
            </Position>
            <AltitudeMeters>49</AltitudeMeters>
            <DistanceMeters>NAN</DistanceMeters>
          </Trackpoint>
          <Trackpoint>
            <Time>2022-07-13T12:01:41.000Z</Time>
            <Position>
              <LatitudeDegrees>43.46567627973854541778564453125</LatitudeDegrees>
              <LongitudeDegrees>-3.59425253234803676605224609375</LongitudeDegrees>
            </Position>
            <AltitudeMeters>49.799999237060546875</AltitudeMeters>
            <DistanceMeters>NAN</DistanceMeters>
          </Trackpoint>
          <Trackpoint>
            <Time>2022-07-13T12:01:45.000Z</Time>
            <Position>
              <LatitudeDegrees>43.465702347457408905029296875</LatitudeDegrees>
              <LongitudeDegrees>-3.5942853055894374847412109375</LongitudeDegrees>
            </Position>
            <AltitudeMeters>50.59999847412109375</AltitudeMeters>
            <DistanceMeters>NAN</DistanceMeters>
          </Trackpoint>
          <Trackpoint>
            <Time>2022-07-13T12:01:46.000Z</Time>
            <Position>
              <LatitudeDegrees>43.4657053649425506591796875</LatitudeDegrees>
              <LongitudeDegrees>-3.594297878444194793701171875</LongitudeDegrees>
            </Position>
            <AltitudeMeters>50.799999237060546875</AltitudeMeters>
            <DistanceMeters>NAN</DistanceMeters>
          </Trackpoint>
          <Trackpoint>
            <Time>2022-07-13T12:01:47.000Z</Time>
            <Position>
              <LatitudeDegrees>43.4657085500657558441162109375</LatitudeDegrees>
              <LongitudeDegrees>-3.5943151451647281646728515625</LongitudeDegrees>
            </Position>
            <AltitudeMeters>51.200000762939453125</AltitudeMeters>
            <DistanceMeters>NAN</DistanceMeters>
          </Trackpoint>
          <Trackpoint>
            <Time>2022-07-13T12:01:50.000Z</Time>
            <Position>
              <LatitudeDegrees>43.46573310904204845428466796875</LatitudeDegrees>
              <LongitudeDegrees>-3.594337441027164459228515625</LongitudeDegrees>
            </Position>
            <AltitudeMeters>51.799999237060546875</AltitudeMeters>
            <DistanceMeters>NAN</DistanceMeters>
          </Trackpoint>
          <Trackpoint>
            <Time>2022-07-13T12:01:52.000Z</Time>
            <Position>
              <LatitudeDegrees>43.46574082039296627044677734375</LatitudeDegrees>
              <LongitudeDegrees>-3.5943620838224887847900390625</LongitudeDegrees>
            </Position>
            <AltitudeMeters>52</AltitudeMeters>
            <DistanceMeters>NAN</DistanceMeters>
          </Trackpoint>
          <Trackpoint>
            <Time>2022-07-13T12:01:57.000Z</Time>
            <Position>
              <LatitudeDegrees>43.465769402682781219482421875</LatitudeDegrees>
              <LongitudeDegrees>-3.59444514848291873931884765625</LongitudeDegrees>
            </Position>
            <AltitudeMeters>53</AltitudeMeters>
            <DistanceMeters>NAN</DistanceMeters>
          </Trackpoint>
          <Trackpoint>
            <Time>2022-07-13T12:01:58.000Z</Time>
            <Position>
              <LatitudeDegrees>43.46577200107276439666748046875</LatitudeDegrees>
              <LongitudeDegrees>-3.59446308575570583343505859375</LongitudeDegrees>
            </Position>
            <AltitudeMeters>53.200000762939453125</AltitudeMeters>
            <DistanceMeters>NAN</DistanceMeters>
          </Trackpoint>
          <Trackpoint>
            <Time>2022-07-13T12:02:02.000Z</Time>
            <Position>
              <LatitudeDegrees>43.46577820368111133575439453125</LatitudeDegrees>
              <LongitudeDegrees>-3.59453894197940826416015625</LongitudeDegrees>
            </Position>
            <AltitudeMeters>53.799999237060546875</AltitudeMeters>
            <DistanceMeters>NAN</DistanceMeters>
          </Trackpoint>
          <Trackpoint>
            <Time>2022-07-13T12:02:05.000Z</Time>
            <Position>
              <LatitudeDegrees>43.46578155644237995147705078125</LatitudeDegrees>
              <LongitudeDegrees>-3.594590239226818084716796875</LongitudeDegrees>
            </Position>
            <AltitudeMeters>54</AltitudeMeters>
            <DistanceMeters>NAN</DistanceMeters>
          </Trackpoint>
          <Trackpoint>
            <Time>2022-07-13T12:02:06.000Z</Time>
            <Position>
              <LatitudeDegrees>43.46578105352818965911865234375</LatitudeDegrees>
              <LongitudeDegrees>-3.59460943378508090972900390625</LongitudeDegrees>
            </Position>
            <AltitudeMeters>54.200000762939453125</AltitudeMeters>
            <DistanceMeters>NAN</DistanceMeters>
          </Trackpoint>
          <Trackpoint>
            <Time>2022-07-13T12:02:14.000Z</Time>
            <Position>
              <LatitudeDegrees>43.46580100245773792266845703125</LatitudeDegrees>
              <LongitudeDegrees>-3.59477673657238483428955078125</LongitudeDegrees>
            </Position>
            <AltitudeMeters>55.200000762939453125</AltitudeMeters>
            <DistanceMeters>NAN</DistanceMeters>
          </Trackpoint>
          <Trackpoint>
            <Time>2022-07-13T12:02:15.000Z</Time>
            <Position>
              <LatitudeDegrees>43.4658046066761016845703125</LatitudeDegrees>
              <LongitudeDegrees>-3.59479643404483795166015625</LongitudeDegrees>
            </Position>
            <AltitudeMeters>55.200000762939453125</AltitudeMeters>
            <DistanceMeters>NAN</DistanceMeters>
          </Trackpoint>
          <Trackpoint>
            <Time>2022-07-13T12:02:25.000Z</Time>
            <Position>
              <LatitudeDegrees>43.465845845639705657958984375</LatitudeDegrees>
              <LongitudeDegrees>-3.594983518123626708984375</LongitudeDegrees>
            </Position>
            <AltitudeMeters>55.59999847412109375</AltitudeMeters>
            <DistanceMeters>NAN</DistanceMeters>
          </Trackpoint>
          <Trackpoint>
            <Time>2022-07-13T12:02:31.000Z</Time>
            <Position>
              <LatitudeDegrees>43.46587023697793483734130859375</LatitudeDegrees>
              <LongitudeDegrees>-3.59512626193463802337646484375</LongitudeDegrees>
            </Position>
            <AltitudeMeters>56.200000762939453125</AltitudeMeters>
            <DistanceMeters>NAN</DistanceMeters>
          </Trackpoint>
          <Trackpoint>
            <Time>2022-07-13T12:02:35.000Z</Time>
            <Position>
              <LatitudeDegrees>43.4658931195735931396484375</LatitudeDegrees>
              <LongitudeDegrees>-3.59521619975566864013671875</LongitudeDegrees>
            </Position>
            <AltitudeMeters>56.40000152587890625</AltitudeMeters>
            <DistanceMeters>NAN</DistanceMeters>
          </Trackpoint>
          <Trackpoint>
            <Time>2022-07-13T12:02:41.000Z</Time>
            <Position>
              <LatitudeDegrees>43.46592974849045276641845703125</LatitudeDegrees>
              <LongitudeDegrees>-3.59533513896167278289794921875</LongitudeDegrees>
            </Position>
            <AltitudeMeters>57</AltitudeMeters>
            <DistanceMeters>NAN</DistanceMeters>
          </Trackpoint>
          <Trackpoint>
            <Time>2022-07-13T12:02:42.000Z</Time>
            <Position>
              <LatitudeDegrees>43.465937711298465728759765625</LatitudeDegrees>
              <LongitudeDegrees>-3.59535290859639644622802734375</LongitudeDegrees>
            </Position>
            <AltitudeMeters>57.200000762939453125</AltitudeMeters>
            <DistanceMeters>NAN</DistanceMeters>
          </Trackpoint>
          <Trackpoint>
            <Time>2022-07-13T12:02:44.000Z</Time>
            <Position>
              <LatitudeDegrees>43.46595053561031818389892578125</LatitudeDegrees>
              <LongitudeDegrees>-3.5953871905803680419921875</LongitudeDegrees>
            </Position>
            <AltitudeMeters>57.40000152587890625</AltitudeMeters>
            <DistanceMeters>NAN</DistanceMeters>
          </Trackpoint>
          <Trackpoint>
            <Time>2022-07-13T12:02:46.000Z</Time>
            <Position>
              <LatitudeDegrees>43.465965203940868377685546875</LatitudeDegrees>
              <LongitudeDegrees>-3.59542013145983219146728515625</LongitudeDegrees>
            </Position>
            <AltitudeMeters>57.799999237060546875</AltitudeMeters>
            <DistanceMeters>NAN</DistanceMeters>
          </Trackpoint>
          <Trackpoint>
            <Time>2022-07-13T12:02:49.000Z</Time>
            <Position>
              <LatitudeDegrees>43.46599227748811244964599609375</LatitudeDegrees>
              <LongitudeDegrees>-3.5954617895185947418212890625</LongitudeDegrees>
            </Position>
            <AltitudeMeters>58.200000762939453125</AltitudeMeters>
            <DistanceMeters>NAN</DistanceMeters>
          </Trackpoint>
          <Trackpoint>
            <Time>2022-07-13T12:02:50.000Z</Time>
            <Position>
              <LatitudeDegrees>43.4660059399902820587158203125</LatitudeDegrees>
              <LongitudeDegrees>-3.595471344888210296630859375</LongitudeDegrees>
            </Position>
            <AltitudeMeters>58.40000152587890625</AltitudeMeters>
            <DistanceMeters>NAN</DistanceMeters>
          </Trackpoint>
          <Trackpoint>
            <Time>2022-07-13T12:02:53.000Z</Time>
            <Position>
              <LatitudeDegrees>43.46605430357158184051513671875</LatitudeDegrees>
              <LongitudeDegrees>-3.59547528438270092010498046875</LongitudeDegrees>
            </Position>
            <AltitudeMeters>59.40000152587890625</AltitudeMeters>
            <DistanceMeters>NAN</DistanceMeters>
          </Trackpoint>
          <Trackpoint>
            <Time>2022-07-13T12:02:56.000Z</Time>
            <Position>
              <LatitudeDegrees>43.46609587781131267547607421875</LatitudeDegrees>
              <LongitudeDegrees>-3.59546723775565624237060546875</LongitudeDegrees>
            </Position>
            <AltitudeMeters>60.40000152587890625</AltitudeMeters>
            <DistanceMeters>NAN</DistanceMeters>
          </Trackpoint>
          <Trackpoint>
            <Time>2022-07-13T12:03:01.000Z</Time>
            <Position>
              <LatitudeDegrees>43.46614365465939044952392578125</LatitudeDegrees>
              <LongitudeDegrees>-3.59541761688888072967529296875</LongitudeDegrees>
            </Position>
            <AltitudeMeters>61.40000152587890625</AltitudeMeters>
            <DistanceMeters>NAN</DistanceMeters>
          </Trackpoint>
          <Trackpoint>
            <Time>2022-07-13T12:03:03.000Z</Time>
            <Position>
              <LatitudeDegrees>43.46617232076823711395263671875</LatitudeDegrees>
              <LongitudeDegrees>-3.5954081453382968902587890625</LongitudeDegrees>
            </Position>
            <AltitudeMeters>62</AltitudeMeters>
            <DistanceMeters>NAN</DistanceMeters>
          </Trackpoint>
          <Trackpoint>
            <Time>2022-07-13T12:03:06.000Z</Time>
            <Position>
              <LatitudeDegrees>43.46620786003768444061279296875</LatitudeDegrees>
              <LongitudeDegrees>-3.595371432602405548095703125</LongitudeDegrees>
            </Position>
            <AltitudeMeters>62.59999847412109375</AltitudeMeters>
            <DistanceMeters>NAN</DistanceMeters>
          </Trackpoint>
          <Trackpoint>
            <Time>2022-07-13T12:03:10.000Z</Time>
            <Position>
              <LatitudeDegrees>43.46625748090445995330810546875</LatitudeDegrees>
              <LongitudeDegrees>-3.59534762799739837646484375</LongitudeDegrees>
            </Position>
            <AltitudeMeters>63.200000762939453125</AltitudeMeters>
            <DistanceMeters>NAN</DistanceMeters>
          </Trackpoint>
          <Trackpoint>
            <Time>2022-07-13T12:03:11.000Z</Time>
            <Position>
              <LatitudeDegrees>43.46627022139728069305419921875</LatitudeDegrees>
              <LongitudeDegrees>-3.5953377373516559600830078125</LongitudeDegrees>
            </Position>
            <AltitudeMeters>63.59999847412109375</AltitudeMeters>
            <DistanceMeters>NAN</DistanceMeters>
          </Trackpoint>
          <Trackpoint>
            <Time>2022-07-13T12:03:16.000Z</Time>
            <Position>
              <LatitudeDegrees>43.46632889471948146820068359375</LatitudeDegrees>
              <LongitudeDegrees>-3.5953013598918914794921875</LongitudeDegrees>
            </Position>
            <AltitudeMeters>65</AltitudeMeters>
            <DistanceMeters>NAN</DistanceMeters>
          </Trackpoint>
          <Trackpoint>
            <Time>2022-07-13T12:03:20.000Z</Time>
            <Position>
              <LatitudeDegrees>43.466375581920146942138671875</LatitudeDegrees>
              <LongitudeDegrees>-3.59528501518070697784423828125</LongitudeDegrees>
            </Position>
            <AltitudeMeters>65.59999847412109375</AltitudeMeters>
            <DistanceMeters>NAN</DistanceMeters>
          </Trackpoint>
          <Trackpoint>
            <Time>2022-07-13T12:03:30.000Z</Time>
            <Position>
              <LatitudeDegrees>43.466553278267383575439453125</LatitudeDegrees>
              <LongitudeDegrees>-3.59531368128955364227294921875</LongitudeDegrees>
            </Position>
            <AltitudeMeters>65.8000030517578125</AltitudeMeters>
            <DistanceMeters>NAN</DistanceMeters>
          </Trackpoint>
          <Trackpoint>
            <Time>2022-07-13T12:03:34.000Z</Time>
            <Position>
              <LatitudeDegrees>43.466637097299098968505859375</LatitudeDegrees>
              <LongitudeDegrees>-3.595353327691555023193359375</LongitudeDegrees>
            </Position>
            <AltitudeMeters>66</AltitudeMeters>
            <DistanceMeters>NAN</DistanceMeters>
          </Trackpoint>
          <Trackpoint>
            <Time>2022-07-13T12:03:38.000Z</Time>
            <Position>
              <LatitudeDegrees>43.4667165577411651611328125</LatitudeDegrees>
              <LongitudeDegrees>-3.595393560826778411865234375</LongitudeDegrees>
            </Position>
            <AltitudeMeters>66.40000152587890625</AltitudeMeters>
            <DistanceMeters>NAN</DistanceMeters>
          </Trackpoint>
          <Trackpoint>
            <Time>2022-07-13T12:03:45.000Z</Time>
            <Position>
              <LatitudeDegrees>43.46685125492513179779052734375</LatitudeDegrees>
              <LongitudeDegrees>-3.59545567072927951812744140625</LongitudeDegrees>
            </Position>
            <AltitudeMeters>67</AltitudeMeters>
            <DistanceMeters>NAN</DistanceMeters>
          </Trackpoint>
          <Trackpoint>
            <Time>2022-07-13T12:03:47.000Z</Time>
            <Position>
              <LatitudeDegrees>43.4668934158980846405029296875</LatitudeDegrees>
              <LongitudeDegrees>-3.59547863714396953582763671875</LongitudeDegrees>
            </Position>
            <AltitudeMeters>67</AltitudeMeters>
            <DistanceMeters>NAN</DistanceMeters>
          </Trackpoint>
          <Trackpoint>
            <Time>2022-07-13T12:03:55.000Z</Time>
            <Position>
              <LatitudeDegrees>43.4670620597898960113525390625</LatitudeDegrees>
              <LongitudeDegrees>-3.59560512006282806396484375</LongitudeDegrees>
            </Position>
            <AltitudeMeters>67.40000152587890625</AltitudeMeters>
            <DistanceMeters>NAN</DistanceMeters>
          </Trackpoint>
          <Trackpoint>
            <Time>2022-07-13T12:04:00.000Z</Time>
            <Position>
              <LatitudeDegrees>43.46718317829072475433349609375</LatitudeDegrees>
              <LongitudeDegrees>-3.59572137705981731414794921875</LongitudeDegrees>
            </Position>
            <AltitudeMeters>67.40000152587890625</AltitudeMeters>
            <DistanceMeters>NAN</DistanceMeters>
          </Trackpoint>
          <Trackpoint>
            <Time>2022-07-13T12:04:02.000Z</Time>
            <Position>
              <LatitudeDegrees>43.4672330506145954132080078125</LatitudeDegrees>
              <LongitudeDegrees>-3.59576496295630931854248046875</LongitudeDegrees>
            </Position>
            <AltitudeMeters>67.1999969482421875</AltitudeMeters>
            <DistanceMeters>NAN</DistanceMeters>
          </Trackpoint>
          <Trackpoint>
            <Time>2022-07-13T12:04:03.000Z</Time>
            <Position>
              <LatitudeDegrees>43.46725643612444400787353515625</LatitudeDegrees>
              <LongitudeDegrees>-3.595794551074504852294921875</LongitudeDegrees>
            </Position>
            <AltitudeMeters>67.1999969482421875</AltitudeMeters>
            <DistanceMeters>NAN</DistanceMeters>
          </Trackpoint>
          <Trackpoint>
            <Time>2022-07-13T12:04:05.000Z</Time>
            <Position>
              <LatitudeDegrees>43.4673021174967288970947265625</LatitudeDegrees>
              <LongitudeDegrees>-3.59585213474929332733154296875</LongitudeDegrees>
            </Position>
            <AltitudeMeters>67.1999969482421875</AltitudeMeters>
            <DistanceMeters>NAN</DistanceMeters>
          </Trackpoint>
          <Trackpoint>
            <Time>2022-07-13T12:04:06.000Z</Time>
            <Position>
              <LatitudeDegrees>43.46732474863529205322265625</LatitudeDegrees>
              <LongitudeDegrees>-3.59588767401874065399169921875</LongitudeDegrees>
            </Position>
            <AltitudeMeters>67</AltitudeMeters>
            <DistanceMeters>NAN</DistanceMeters>
          </Trackpoint>
          <Trackpoint>
            <Time>2022-07-13T12:04:07.000Z</Time>
            <Position>
              <LatitudeDegrees>43.46734595485031604766845703125</LatitudeDegrees>
              <LongitudeDegrees>-3.59593125991523265838623046875</LongitudeDegrees>
            </Position>
            <AltitudeMeters>67</AltitudeMeters>
            <DistanceMeters>NAN</DistanceMeters>
          </Trackpoint>
          <Trackpoint>
            <Time>2022-07-13T12:04:08.000Z</Time>
            <Position>
              <LatitudeDegrees>43.4673641435801982879638671875</LatitudeDegrees>
              <LongitudeDegrees>-3.59597803093492984771728515625</LongitudeDegrees>
            </Position>
            <AltitudeMeters>66.8000030517578125</AltitudeMeters>
            <DistanceMeters>NAN</DistanceMeters>
          </Trackpoint>
          <Trackpoint>
            <Time>2022-07-13T12:04:09.000Z</Time>
            <Position>
              <LatitudeDegrees>43.467378728091716766357421875</LatitudeDegrees>
              <LongitudeDegrees>-3.5960280708968639373779296875</LongitudeDegrees>
            </Position>
            <AltitudeMeters>66.8000030517578125</AltitudeMeters>
            <DistanceMeters>NAN</DistanceMeters>
          </Trackpoint>
          <Trackpoint>
            <Time>2022-07-13T12:04:11.000Z</Time>
            <Position>
              <LatitudeDegrees>43.4674013592302799224853515625</LatitudeDegrees>
              <LongitudeDegrees>-3.59613217413425445556640625</LongitudeDegrees>
            </Position>
            <AltitudeMeters>66.59999847412109375</AltitudeMeters>
            <DistanceMeters>NAN</DistanceMeters>
          </Trackpoint>
          <Trackpoint>
            <Time>2022-07-13T12:04:13.000Z</Time>
            <Position>
              <LatitudeDegrees>43.46742239780724048614501953125</LatitudeDegrees>
              <LongitudeDegrees>-3.59624709002673625946044921875</LongitudeDegrees>
            </Position>
            <AltitudeMeters>66.1999969482421875</AltitudeMeters>
            <DistanceMeters>NAN</DistanceMeters>
          </Trackpoint>
          <Trackpoint>
            <Time>2022-07-13T12:04:14.000Z</Time>
            <Position>
              <LatitudeDegrees>43.467437066137790679931640625</LatitudeDegrees>
              <LongitudeDegrees>-3.59630710445344448089599609375</LongitudeDegrees>
            </Position>
            <AltitudeMeters>66</AltitudeMeters>
            <DistanceMeters>NAN</DistanceMeters>
          </Trackpoint>
          <Trackpoint>
            <Time>2022-07-13T12:04:15.000Z</Time>
            <Position>
              <LatitudeDegrees>43.46745911054313182830810546875</LatitudeDegrees>
              <LongitudeDegrees>-3.59636795707046985626220703125</LongitudeDegrees>
            </Position>
            <AltitudeMeters>66</AltitudeMeters>
            <DistanceMeters>NAN</DistanceMeters>
          </Trackpoint>
          <Trackpoint>
            <Time>2022-07-13T12:04:16.000Z</Time>
            <Position>
              <LatitudeDegrees>43.46748844720423221588134765625</LatitudeDegrees>
              <LongitudeDegrees>-3.59642730094492435455322265625</LongitudeDegrees>
            </Position>
            <AltitudeMeters>65.59999847412109375</AltitudeMeters>
            <DistanceMeters>NAN</DistanceMeters>
          </Trackpoint>
          <Trackpoint>
            <Time>2022-07-13T12:04:18.000Z</Time>
            <Position>
              <LatitudeDegrees>43.4675559215247631072998046875</LatitudeDegrees>
              <LongitudeDegrees>-3.5965417139232158660888671875</LongitudeDegrees>
            </Position>
            <AltitudeMeters>65.40000152587890625</AltitudeMeters>
            <DistanceMeters>NAN</DistanceMeters>
          </Trackpoint>
          <Trackpoint>
            <Time>2022-07-13T12:04:20.000Z</Time>
            <Position>
              <LatitudeDegrees>43.46763261593878269195556640625</LatitudeDegrees>
              <LongitudeDegrees>-3.5966290533542633056640625</LongitudeDegrees>
            </Position>
            <AltitudeMeters>65</AltitudeMeters>
            <DistanceMeters>NAN</DistanceMeters>
          </Trackpoint>
          <Trackpoint>
            <Time>2022-07-13T12:04:21.000Z</Time>
            <Position>
              <LatitudeDegrees>43.4676682390272617340087890625</LatitudeDegrees>
              <LongitudeDegrees>-3.596654199063777923583984375</LongitudeDegrees>
            </Position>
            <AltitudeMeters>64.40000152587890625</AltitudeMeters>
            <DistanceMeters>NAN</DistanceMeters>
          </Trackpoint>
          <Trackpoint>
            <Time>2022-07-13T12:04:23.000Z</Time>
            <Position>
              <LatitudeDegrees>43.46772297285497188568115234375</LatitudeDegrees>
              <LongitudeDegrees>-3.596667610108852386474609375</LongitudeDegrees>
            </Position>
            <AltitudeMeters>64</AltitudeMeters>
            <DistanceMeters>NAN</DistanceMeters>
          </Trackpoint>
          <Trackpoint>
            <Time>2022-07-13T12:04:27.000Z</Time>
            <Position>
              <LatitudeDegrees>43.46775398589670658111572265625</LatitudeDegrees>
              <LongitudeDegrees>-3.59665763564407825469970703125</LongitudeDegrees>
            </Position>
            <AltitudeMeters>63.200000762939453125</AltitudeMeters>
            <DistanceMeters>NAN</DistanceMeters>
          </Trackpoint>
          <Trackpoint>
            <Time>2022-07-13T12:04:28.000Z</Time>
            <Position>
              <LatitudeDegrees>43.46775398589670658111572265625</LatitudeDegrees>
              <LongitudeDegrees>-3.59665763564407825469970703125</LongitudeDegrees>
            </Position>
            <AltitudeMeters>63.200000762939453125</AltitudeMeters>
            <DistanceMeters>NAN</DistanceMeters>
          </Trackpoint>
          <Trackpoint>
            <Time>2022-07-13T12:08:46.000Z</Time>
            <Position>
              <LatitudeDegrees>43.4677292592823505401611328125</LatitudeDegrees>
              <LongitudeDegrees>-3.59672150574624538421630859375</LongitudeDegrees>
            </Position>
            <AltitudeMeters>66.59999847412109375</AltitudeMeters>
            <DistanceMeters>NAN</DistanceMeters>
          </Trackpoint>
          <Trackpoint>
            <Time>2022-07-13T12:08:47.000Z</Time>
            <Position>
              <LatitudeDegrees>43.46772062592208385467529296875</LatitudeDegrees>
              <LongitudeDegrees>-3.59675268642604351043701171875</LongitudeDegrees>
            </Position>
            <AltitudeMeters>66.8000030517578125</AltitudeMeters>
            <DistanceMeters>NAN</DistanceMeters>
          </Trackpoint>
          <Trackpoint>
            <Time>2022-07-13T12:08:48.000Z</Time>
            <Position>
              <LatitudeDegrees>43.467718027532100677490234375</LatitudeDegrees>
              <LongitudeDegrees>-3.59678520821034908294677734375</LongitudeDegrees>
            </Position>
            <AltitudeMeters>66.8000030517578125</AltitudeMeters>
            <DistanceMeters>NAN</DistanceMeters>
          </Trackpoint>
          <Trackpoint>
            <Time>2022-07-13T12:08:52.000Z</Time>
            <Position>
              <LatitudeDegrees>43.46774057485163211822509765625</LatitudeDegrees>
              <LongitudeDegrees>-3.5969172231853008270263671875</LongitudeDegrees>
            </Position>
            <AltitudeMeters>67.1999969482421875</AltitudeMeters>
            <DistanceMeters>NAN</DistanceMeters>
          </Trackpoint>
          <Trackpoint>
            <Time>2022-07-13T12:08:54.000Z</Time>
            <Position>
              <LatitudeDegrees>43.46775448881089687347412109375</LatitudeDegrees>
              <LongitudeDegrees>-3.596973717212677001953125</LongitudeDegrees>
            </Position>
            <AltitudeMeters>67.59999847412109375</AltitudeMeters>
            <DistanceMeters>NAN</DistanceMeters>
          </Trackpoint>
          <Trackpoint>
            <Time>2022-07-13T12:08:56.000Z</Time>
            <Position>
              <LatitudeDegrees>43.467769324779510498046875</LatitudeDegrees>
              <LongitudeDegrees>-3.5970355756580829620361328125</LongitudeDegrees>
            </Position>
            <AltitudeMeters>67.8000030517578125</AltitudeMeters>
            <DistanceMeters>NAN</DistanceMeters>
          </Trackpoint>
          <Trackpoint>
            <Time>2022-07-13T12:09:03.000Z</Time>
            <Position>
              <LatitudeDegrees>43.46780846826732158660888671875</LatitudeDegrees>
              <LongitudeDegrees>-3.5972243361175060272216796875</LongitudeDegrees>
            </Position>
            <AltitudeMeters>68.8000030517578125</AltitudeMeters>
            <DistanceMeters>NAN</DistanceMeters>
          </Trackpoint>
          <Trackpoint>
            <Time>2022-07-13T12:09:04.000Z</Time>
            <Position>
              <LatitudeDegrees>43.46781634725630283355712890625</LatitudeDegrees>
              <LongitudeDegrees>-3.597245626151561737060546875</LongitudeDegrees>
            </Position>
            <AltitudeMeters>69</AltitudeMeters>
            <DistanceMeters>NAN</DistanceMeters>
          </Trackpoint>
          <Trackpoint>
            <Time>2022-07-13T12:09:09.000Z</Time>
            <Position>
              <LatitudeDegrees>43.467856831848621368408203125</LatitudeDegrees>
              <LongitudeDegrees>-3.5973624698817729949951171875</LongitudeDegrees>
            </Position>
            <AltitudeMeters>69.59999847412109375</AltitudeMeters>
            <DistanceMeters>NAN</DistanceMeters>
          </Trackpoint>
          <Trackpoint>
            <Time>2022-07-13T12:09:11.000Z</Time>
            <Position>
              <LatitudeDegrees>43.467875607311725616455078125</LatitudeDegrees>
              <LongitudeDegrees>-3.5974097438156604766845703125</LongitudeDegrees>
            </Position>
            <AltitudeMeters>69.8000030517578125</AltitudeMeters>
            <DistanceMeters>NAN</DistanceMeters>
          </Trackpoint>
          <Trackpoint>
            <Time>2022-07-13T12:09:13.000Z</Time>
            <Position>
              <LatitudeDegrees>43.4678881801664829254150390625</LatitudeDegrees>
              <LongitudeDegrees>-3.59745559282600879669189453125</LongitudeDegrees>
            </Position>
            <AltitudeMeters>70</AltitudeMeters>
            <DistanceMeters>NAN</DistanceMeters>
          </Trackpoint>
          <Trackpoint>
            <Time>2022-07-13T12:09:23.000Z</Time>
            <Position>
              <LatitudeDegrees>43.46795146353542804718017578125</LatitudeDegrees>
              <LongitudeDegrees>-3.597682155668735504150390625</LongitudeDegrees>
            </Position>
            <AltitudeMeters>70.8000030517578125</AltitudeMeters>
            <DistanceMeters>NAN</DistanceMeters>
          </Trackpoint>
          <Trackpoint>
            <Time>2022-07-13T12:09:28.000Z</Time>
            <Position>
              <LatitudeDegrees>43.46796621568500995635986328125</LatitudeDegrees>
              <LongitudeDegrees>-3.59780914150178432464599609375</LongitudeDegrees>
            </Position>
            <AltitudeMeters>70.8000030517578125</AltitudeMeters>
            <DistanceMeters>NAN</DistanceMeters>
          </Trackpoint>
          <Trackpoint>
            <Time>2022-07-13T12:09:29.000Z</Time>
            <Position>
              <LatitudeDegrees>43.4679642878472805023193359375</LatitudeDegrees>
              <LongitudeDegrees>-3.5978365503251552581787109375</LongitudeDegrees>
            </Position>
            <AltitudeMeters>71</AltitudeMeters>
            <DistanceMeters>NAN</DistanceMeters>
          </Trackpoint>
          <Trackpoint>
            <Time>2022-07-13T12:09:36.000Z</Time>
            <Position>
              <LatitudeDegrees>43.46797191537916660308837890625</LatitudeDegrees>
              <LongitudeDegrees>-3.59801734797656536102294921875</LongitudeDegrees>
            </Position>
            <AltitudeMeters>71.59999847412109375</AltitudeMeters>
            <DistanceMeters>NAN</DistanceMeters>
          </Trackpoint>
          <Trackpoint>
            <Time>2022-07-13T12:09:40.000Z</Time>
            <Position>
              <LatitudeDegrees>43.4680004976689815521240234375</LatitudeDegrees>
              <LongitudeDegrees>-3.59810535795986652374267578125</LongitudeDegrees>
            </Position>
            <AltitudeMeters>71.8000030517578125</AltitudeMeters>
            <DistanceMeters>NAN</DistanceMeters>
          </Trackpoint>
          <Trackpoint>
            <Time>2022-07-13T12:09:41.000Z</Time>
            <Position>
              <LatitudeDegrees>43.468011729419231414794921875</LatitudeDegrees>
              <LongitudeDegrees>-3.5981190204620361328125</LongitudeDegrees>
            </Position>
            <AltitudeMeters>72</AltitudeMeters>
            <DistanceMeters>NAN</DistanceMeters>
          </Trackpoint>
          <Trackpoint>
            <Time>2022-07-13T12:09:43.000Z</Time>
            <Position>
              <LatitudeDegrees>43.46803486347198486328125</LatitudeDegrees>
              <LongitudeDegrees>-3.5981486923992633819580078125</LongitudeDegrees>
            </Position>
            <AltitudeMeters>72</AltitudeMeters>
            <DistanceMeters>NAN</DistanceMeters>
          </Trackpoint>
          <Trackpoint>
            <Time>2022-07-13T12:09:45.000Z</Time>
            <Position>
              <LatitudeDegrees>43.4680628590285778045654296875</LatitudeDegrees>
              <LongitudeDegrees>-3.59817727468907833099365234375</LongitudeDegrees>
            </Position>
            <AltitudeMeters>72.1999969482421875</AltitudeMeters>
            <DistanceMeters>NAN</DistanceMeters>
          </Trackpoint>
          <Trackpoint>
            <Time>2022-07-13T12:09:52.000Z</Time>
            <Position>
              <LatitudeDegrees>43.46818582154810428619384765625</LatitudeDegrees>
              <LongitudeDegrees>-3.598266206681728363037109375</LongitudeDegrees>
            </Position>
            <AltitudeMeters>72.40000152587890625</AltitudeMeters>
            <DistanceMeters>NAN</DistanceMeters>
          </Trackpoint>
          <Trackpoint>
            <Time>2022-07-13T12:10:00.000Z</Time>
            <Position>
              <LatitudeDegrees>43.468329906463623046875</LatitudeDegrees>
              <LongitudeDegrees>-3.59831859357655048370361328125</LongitudeDegrees>
            </Position>
            <AltitudeMeters>72.40000152587890625</AltitudeMeters>
            <DistanceMeters>NAN</DistanceMeters>
          </Trackpoint>
          <Trackpoint>
            <Time>2022-07-13T12:10:05.000Z</Time>
            <Position>
              <LatitudeDegrees>43.46842068247497081756591796875</LatitudeDegrees>
              <LongitudeDegrees>-3.59832094050943851470947265625</LongitudeDegrees>
            </Position>
            <AltitudeMeters>73</AltitudeMeters>
            <DistanceMeters>NAN</DistanceMeters>
          </Trackpoint>
          <Trackpoint>
            <Time>2022-07-13T12:10:10.000Z</Time>
            <Position>
              <LatitudeDegrees>43.468509614467620849609375</LatitudeDegrees>
              <LongitudeDegrees>-3.59832932241261005401611328125</LongitudeDegrees>
            </Position>
            <AltitudeMeters>73.40000152587890625</AltitudeMeters>
            <DistanceMeters>NAN</DistanceMeters>
          </Trackpoint>
          <Trackpoint>
            <Time>2022-07-13T12:10:16.000Z</Time>
            <Position>
              <LatitudeDegrees>43.468607850372791290283203125</LatitudeDegrees>
              <LongitudeDegrees>-3.59831892885267734527587890625</LongitudeDegrees>
            </Position>
            <AltitudeMeters>73.8000030517578125</AltitudeMeters>
            <DistanceMeters>NAN</DistanceMeters>
          </Trackpoint>
          <Trackpoint>
            <Time>2022-07-13T12:10:18.000Z</Time>
            <Position>
              <LatitudeDegrees>43.46863643266260623931884765625</LatitudeDegrees>
              <LongitudeDegrees>-3.5983270592987537384033203125</LongitudeDegrees>
            </Position>
            <AltitudeMeters>74</AltitudeMeters>
            <DistanceMeters>NAN</DistanceMeters>
          </Trackpoint>
          <Trackpoint>
            <Time>2022-07-13T12:10:22.000Z</Time>
            <Position>
              <LatitudeDegrees>43.4686951898038387298583984375</LatitudeDegrees>
              <LongitudeDegrees>-3.59831306152045726776123046875</LongitudeDegrees>
            </Position>
            <AltitudeMeters>74.40000152587890625</AltitudeMeters>
            <DistanceMeters>NAN</DistanceMeters>
          </Trackpoint>
          <Trackpoint>
            <Time>2022-07-13T12:10:23.000Z</Time>
            <Position>
              <LatitudeDegrees>43.46870985813438892364501953125</LatitudeDegrees>
              <LongitudeDegrees>-3.59831674955785274505615234375</LongitudeDegrees>
            </Position>
            <AltitudeMeters>74.40000152587890625</AltitudeMeters>
            <DistanceMeters>NAN</DistanceMeters>
          </Trackpoint>
          <Trackpoint>
            <Time>2022-07-13T12:10:24.000Z</Time>
            <Position>
              <LatitudeDegrees>43.46872326917946338653564453125</LatitudeDegrees>
              <LongitudeDegrees>-3.59832513146102428436279296875</LongitudeDegrees>
            </Position>
            <AltitudeMeters>74.59999847412109375</AltitudeMeters>
            <DistanceMeters>NAN</DistanceMeters>
          </Trackpoint>
          <Trackpoint>
            <Time>2022-07-13T12:10:27.000Z</Time>
            <Position>
              <LatitudeDegrees>43.46876869909465312957763671875</LatitudeDegrees>
              <LongitudeDegrees>-3.598363436758518218994140625</LongitudeDegrees>
            </Position>
            <AltitudeMeters>75.1999969482421875</AltitudeMeters>
            <DistanceMeters>NAN</DistanceMeters>
          </Trackpoint>
          <Trackpoint>
            <Time>2022-07-13T12:10:32.000Z</Time>
            <Position>
              <LatitudeDegrees>43.4688326530158519744873046875</LatitudeDegrees>
              <LongitudeDegrees>-3.59842420555651187896728515625</LongitudeDegrees>
            </Position>
            <AltitudeMeters>76.1999969482421875</AltitudeMeters>
            <DistanceMeters>NAN</DistanceMeters>
          </Trackpoint>
          <Trackpoint>
            <Time>2022-07-13T12:10:34.000Z</Time>
            <Position>
              <LatitudeDegrees>43.4688641689717769622802734375</LatitudeDegrees>
              <LongitudeDegrees>-3.5984511114656925201416015625</LongitudeDegrees>
            </Position>
            <AltitudeMeters>76.59999847412109375</AltitudeMeters>
            <DistanceMeters>NAN</DistanceMeters>
          </Trackpoint>
          <Trackpoint>
            <Time>2022-07-13T12:10:38.000Z</Time>
            <Position>
              <LatitudeDegrees>43.4688930027186870574951171875</LatitudeDegrees>
              <LongitudeDegrees>-3.59851053915917873382568359375</LongitudeDegrees>
            </Position>
            <AltitudeMeters>77.59999847412109375</AltitudeMeters>
            <DistanceMeters>NAN</DistanceMeters>
          </Trackpoint>
          <Trackpoint>
            <Time>2022-07-13T12:10:40.000Z</Time>
            <Position>
              <LatitudeDegrees>43.46890482120215892791748046875</LatitudeDegrees>
              <LongitudeDegrees>-3.5985359363257884979248046875</LongitudeDegrees>
            </Position>
            <AltitudeMeters>78</AltitudeMeters>
            <DistanceMeters>NAN</DistanceMeters>
          </Trackpoint>
          <Trackpoint>
            <Time>2022-07-13T12:10:41.000Z</Time>
            <Position>
              <LatitudeDegrees>43.4689079225063323974609375</LatitudeDegrees>
              <LongitudeDegrees>-3.5985496826469898223876953125</LongitudeDegrees>
            </Position>
            <AltitudeMeters>78.40000152587890625</AltitudeMeters>
            <DistanceMeters>NAN</DistanceMeters>
          </Trackpoint>
          <Trackpoint>
            <Time>2022-07-13T12:10:42.000Z</Time>
            <Position>
              <LatitudeDegrees>43.4689057432115077972412109375</LatitudeDegrees>
              <LongitudeDegrees>-3.59856837429106235504150390625</LongitudeDegrees>
            </Position>
            <AltitudeMeters>78.59999847412109375</AltitudeMeters>
            <DistanceMeters>NAN</DistanceMeters>
          </Trackpoint>
          <Trackpoint>
            <Time>2022-07-13T12:10:46.000Z</Time>
            <Position>
              <LatitudeDegrees>43.46888923086225986480712890625</LatitudeDegrees>
              <LongitudeDegrees>-3.59864272177219390869140625</LongitudeDegrees>
            </Position>
            <AltitudeMeters>79.1999969482421875</AltitudeMeters>
            <DistanceMeters>NAN</DistanceMeters>
          </Trackpoint>
          <Trackpoint>
            <Time>2022-07-13T12:10:51.000Z</Time>
            <Position>
              <LatitudeDegrees>43.4688541106879711151123046875</LatitudeDegrees>
              <LongitudeDegrees>-3.59873483888804912567138671875</LongitudeDegrees>
            </Position>
            <AltitudeMeters>79.59999847412109375</AltitudeMeters>
            <DistanceMeters>NAN</DistanceMeters>
          </Trackpoint>
          <Trackpoint>
            <Time>2022-07-13T12:10:55.000Z</Time>
            <Position>
              <LatitudeDegrees>43.4688360057771205902099609375</LatitudeDegrees>
              <LongitudeDegrees>-3.5988145507872104644775390625</LongitudeDegrees>
            </Position>
            <AltitudeMeters>80.1999969482421875</AltitudeMeters>
            <DistanceMeters>NAN</DistanceMeters>
          </Trackpoint>
          <Trackpoint>
            <Time>2022-07-13T12:10:59.000Z</Time>
            <Position>
              <LatitudeDegrees>43.46879669465124607086181640625</LatitudeDegrees>
              <LongitudeDegrees>-3.598881103098392486572265625</LongitudeDegrees>
            </Position>
            <AltitudeMeters>80.8000030517578125</AltitudeMeters>
            <DistanceMeters>NAN</DistanceMeters>
          </Trackpoint>
          <Trackpoint>
            <Time>2022-07-13T12:11:06.000Z</Time>
            <Position>
              <LatitudeDegrees>43.4687250293791294097900390625</LatitudeDegrees>
              <LongitudeDegrees>-3.5989969410002231597900390625</LongitudeDegrees>
            </Position>
            <AltitudeMeters>81.40000152587890625</AltitudeMeters>
            <DistanceMeters>NAN</DistanceMeters>
          </Trackpoint>
          <Trackpoint>
            <Time>2022-07-13T12:11:10.000Z</Time>
            <Position>
              <LatitudeDegrees>43.46867213957011699676513671875</LatitudeDegrees>
              <LongitudeDegrees>-3.59908436425030231475830078125</LongitudeDegrees>
            </Position>
            <AltitudeMeters>81.8000030517578125</AltitudeMeters>
            <DistanceMeters>NAN</DistanceMeters>
          </Trackpoint>
          <Trackpoint>
            <Time>2022-07-13T12:11:16.000Z</Time>
            <Position>
              <LatitudeDegrees>43.46859343349933624267578125</LatitudeDegrees>
              <LongitudeDegrees>-3.59919617883861064910888671875</LongitudeDegrees>
            </Position>
            <AltitudeMeters>82.1999969482421875</AltitudeMeters>
            <DistanceMeters>NAN</DistanceMeters>
          </Trackpoint>
          <Trackpoint>
            <Time>2022-07-13T12:11:23.000Z</Time>
            <Position>
              <LatitudeDegrees>43.46850902773439884185791015625</LatitudeDegrees>
              <LongitudeDegrees>-3.599329702556133270263671875</LongitudeDegrees>
            </Position>
            <AltitudeMeters>82.8000030517578125</AltitudeMeters>
            <DistanceMeters>NAN</DistanceMeters>
          </Trackpoint>
          <Trackpoint>
            <Time>2022-07-13T12:11:24.000Z</Time>
            <Position>
              <LatitudeDegrees>43.46849611960351467132568359375</LatitudeDegrees>
              <LongitudeDegrees>-3.5993506573140621185302734375</LongitudeDegrees>
            </Position>
            <AltitudeMeters>82.8000030517578125</AltitudeMeters>
            <DistanceMeters>NAN</DistanceMeters>
          </Trackpoint>
          <Trackpoint>
            <Time>2022-07-13T12:11:25.000Z</Time>
            <Position>
              <LatitudeDegrees>43.46847885288298130035400390625</LatitudeDegrees>
              <LongitudeDegrees>-3.5993756353855133056640625</LongitudeDegrees>
            </Position>
            <AltitudeMeters>82.8000030517578125</AltitudeMeters>
            <DistanceMeters>NAN</DistanceMeters>
          </Trackpoint>
          <Trackpoint>
            <Time>2022-07-13T12:11:33.000Z</Time>
            <Position>
              <LatitudeDegrees>43.4683750011026859283447265625</LatitudeDegrees>
              <LongitudeDegrees>-3.59952625818550586700439453125</LongitudeDegrees>
            </Position>
            <AltitudeMeters>83.40000152587890625</AltitudeMeters>
            <DistanceMeters>NAN</DistanceMeters>
          </Trackpoint>
          <Trackpoint>
            <Time>2022-07-13T12:11:40.000Z</Time>
            <Position>
              <LatitudeDegrees>43.46828875131905078887939453125</LatitudeDegrees>
              <LongitudeDegrees>-3.5996513999998569488525390625</LongitudeDegrees>
            </Position>
            <AltitudeMeters>84</AltitudeMeters>
            <DistanceMeters>NAN</DistanceMeters>
          </Trackpoint>
          <Trackpoint>
            <Time>2022-07-13T12:11:44.000Z</Time>
            <Position>
              <LatitudeDegrees>43.46824097447097301483154296875</LatitudeDegrees>
              <LongitudeDegrees>-3.59972440637648105621337890625</LongitudeDegrees>
            </Position>
            <AltitudeMeters>84.1999969482421875</AltitudeMeters>
            <DistanceMeters>NAN</DistanceMeters>
          </Trackpoint>
          <Trackpoint>
            <Time>2022-07-13T12:11:52.000Z</Time>
            <Position>
              <LatitudeDegrees>43.4681446664035320281982421875</LatitudeDegrees>
              <LongitudeDegrees>-3.5998686589300632476806640625</LongitudeDegrees>
            </Position>
            <AltitudeMeters>85</AltitudeMeters>
            <DistanceMeters>NAN</DistanceMeters>
          </Trackpoint>
          <Trackpoint>
            <Time>2022-07-13T12:11:54.000Z</Time>
            <Position>
              <LatitudeDegrees>43.46811792813241481781005859375</LatitudeDegrees>
              <LongitudeDegrees>-3.5999052040278911590576171875</LongitudeDegrees>
            </Position>
            <AltitudeMeters>85.40000152587890625</AltitudeMeters>
            <DistanceMeters>NAN</DistanceMeters>
          </Trackpoint>
          <Trackpoint>
            <Time>2022-07-13T12:12:01.000Z</Time>
            <Position>
              <LatitudeDegrees>43.4680199436843395233154296875</LatitudeDegrees>
              <LongitudeDegrees>-3.600019700825214385986328125</LongitudeDegrees>
            </Position>
            <AltitudeMeters>86.1999969482421875</AltitudeMeters>
            <DistanceMeters>NAN</DistanceMeters>
          </Trackpoint>
          <Trackpoint>
            <Time>2022-07-13T12:12:04.000Z</Time>
            <Position>
              <LatitudeDegrees>43.46798348240554332733154296875</LatitudeDegrees>
              <LongitudeDegrees>-3.60007175244390964508056640625</LongitudeDegrees>
            </Position>
            <AltitudeMeters>86.59999847412109375</AltitudeMeters>
            <DistanceMeters>NAN</DistanceMeters>
          </Trackpoint>
          <Trackpoint>
            <Time>2022-07-13T12:12:08.000Z</Time>
            <Position>
              <LatitudeDegrees>43.467927910387516021728515625</LatitudeDegrees>
              <LongitudeDegrees>-3.60013646073639392852783203125</LongitudeDegrees>
            </Position>
            <AltitudeMeters>87.1999969482421875</AltitudeMeters>
            <DistanceMeters>NAN</DistanceMeters>
          </Trackpoint>
          <Trackpoint>
            <Time>2022-07-13T12:12:11.000Z</Time>
            <Position>
              <LatitudeDegrees>43.46789396367967128753662109375</LatitudeDegrees>
              <LongitudeDegrees>-3.6001942120492458343505859375</LongitudeDegrees>
            </Position>
            <AltitudeMeters>87.40000152587890625</AltitudeMeters>
            <DistanceMeters>NAN</DistanceMeters>
          </Trackpoint>
          <Trackpoint>
            <Time>2022-07-13T12:12:20.000Z</Time>
            <Position>
              <LatitudeDegrees>43.4678046964108943939208984375</LatitudeDegrees>
              <LongitudeDegrees>-3.60039688646793365478515625</LongitudeDegrees>
            </Position>
            <AltitudeMeters>87.59999847412109375</AltitudeMeters>
            <DistanceMeters>NAN</DistanceMeters>
          </Trackpoint>
          <Trackpoint>
            <Time>2022-07-13T12:12:25.000Z</Time>
            <Position>
              <LatitudeDegrees>43.46777561120688915252685546875</LatitudeDegrees>
              <LongitudeDegrees>-3.60050895251333713531494140625</LongitudeDegrees>
            </Position>
            <AltitudeMeters>87.8000030517578125</AltitudeMeters>
            <DistanceMeters>NAN</DistanceMeters>
          </Trackpoint>
          <Trackpoint>
            <Time>2022-07-13T12:12:27.000Z</Time>
            <Position>
              <LatitudeDegrees>43.46775348298251628875732421875</LatitudeDegrees>
              <LongitudeDegrees>-3.600552119314670562744140625</LongitudeDegrees>
            </Position>
            <AltitudeMeters>88</AltitudeMeters>
            <DistanceMeters>NAN</DistanceMeters>
          </Trackpoint>
          <Trackpoint>
            <Time>2022-07-13T12:12:30.000Z</Time>
            <Position>
              <LatitudeDegrees>43.46772951073944568634033203125</LatitudeDegrees>
              <LongitudeDegrees>-3.60062621533870697021484375</LongitudeDegrees>
            </Position>
            <AltitudeMeters>88</AltitudeMeters>
            <DistanceMeters>NAN</DistanceMeters>
          </Trackpoint>
          <Trackpoint>
            <Time>2022-07-13T12:12:34.000Z</Time>
            <Position>
              <LatitudeDegrees>43.46770352683961391448974609375</LatitudeDegrees>
              <LongitudeDegrees>-3.60070944763720035552978515625</LongitudeDegrees>
            </Position>
            <AltitudeMeters>88.1999969482421875</AltitudeMeters>
            <DistanceMeters>NAN</DistanceMeters>
          </Trackpoint>
          <Trackpoint>
            <Time>2022-07-13T12:12:35.000Z</Time>
            <Position>
              <LatitudeDegrees>43.46769514493644237518310546875</LatitudeDegrees>
              <LongitudeDegrees>-3.60073107294738292694091796875</LongitudeDegrees>
            </Position>
            <AltitudeMeters>88.1999969482421875</AltitudeMeters>
            <DistanceMeters>NAN</DistanceMeters>
          </Trackpoint>
          <Trackpoint>
            <Time>2022-07-13T12:12:43.000Z</Time>
            <Position>
              <LatitudeDegrees>43.4676365554332733154296875</LatitudeDegrees>
              <LongitudeDegrees>-3.600902818143367767333984375</LongitudeDegrees>
            </Position>
            <AltitudeMeters>88.8000030517578125</AltitudeMeters>
            <DistanceMeters>NAN</DistanceMeters>
          </Trackpoint>
          <Trackpoint>
            <Time>2022-07-13T12:12:45.000Z</Time>
            <Position>
              <LatitudeDegrees>43.46762507222592830657958984375</LatitudeDegrees>
              <LongitudeDegrees>-3.60094699077308177947998046875</LongitudeDegrees>
            </Position>
            <AltitudeMeters>89.40000152587890625</AltitudeMeters>
            <DistanceMeters>NAN</DistanceMeters>
          </Trackpoint>
          <Trackpoint>
            <Time>2022-07-13T12:12:51.000Z</Time>
            <Position>
              <LatitudeDegrees>43.46757955849170684814453125</LatitudeDegrees>
              <LongitudeDegrees>-3.60107925720512866973876953125</LongitudeDegrees>
            </Position>
            <AltitudeMeters>89.59999847412109375</AltitudeMeters>
            <DistanceMeters>NAN</DistanceMeters>
          </Trackpoint>
          <Trackpoint>
            <Time>2022-07-13T12:12:59.000Z</Time>
            <Position>
              <LatitudeDegrees>43.46752457320690155029296875</LatitudeDegrees>
              <LongitudeDegrees>-3.60125653445720672607421875</LongitudeDegrees>
            </Position>
            <AltitudeMeters>90.40000152587890625</AltitudeMeters>
            <DistanceMeters>NAN</DistanceMeters>
          </Trackpoint>
          <Trackpoint>
            <Time>2022-07-13T12:13:01.000Z</Time>
            <Position>
              <LatitudeDegrees>43.467510826885700225830078125</LatitudeDegrees>
              <LongitudeDegrees>-3.60129668377339839935302734375</LongitudeDegrees>
            </Position>
            <AltitudeMeters>90.59999847412109375</AltitudeMeters>
            <DistanceMeters>NAN</DistanceMeters>
          </Trackpoint>
          <Trackpoint>
            <Time>2022-07-13T12:13:09.000Z</Time>
            <Position>
              <LatitudeDegrees>43.46746288239955902099609375</LatitudeDegrees>
              <LongitudeDegrees>-3.601474799215793609619140625</LongitudeDegrees>
            </Position>
            <AltitudeMeters>91</AltitudeMeters>
            <DistanceMeters>NAN</DistanceMeters>
          </Trackpoint>
          <Trackpoint>
            <Time>2022-07-13T12:13:16.000Z</Time>
            <Position>
              <LatitudeDegrees>43.4674273431301116943359375</LatitudeDegrees>
              <LongitudeDegrees>-3.60163497738540172576904296875</LongitudeDegrees>
            </Position>
            <AltitudeMeters>91.40000152587890625</AltitudeMeters>
            <DistanceMeters>NAN</DistanceMeters>
          </Trackpoint>
          <Trackpoint>
            <Time>2022-07-13T12:13:17.000Z</Time>
            <Position>
              <LatitudeDegrees>43.4674192965030670166015625</LatitudeDegrees>
              <LongitudeDegrees>-3.60165417194366455078125</LongitudeDegrees>
            </Position>
            <AltitudeMeters>91.40000152587890625</AltitudeMeters>
            <DistanceMeters>NAN</DistanceMeters>
          </Trackpoint>
          <Trackpoint>
            <Time>2022-07-13T12:13:24.000Z</Time>
            <Position>
              <LatitudeDegrees>43.46739071421325206756591796875</LatitudeDegrees>
              <LongitudeDegrees>-3.60181820578873157501220703125</LongitudeDegrees>
            </Position>
            <AltitudeMeters>91.8000030517578125</AltitudeMeters>
            <DistanceMeters>NAN</DistanceMeters>
          </Trackpoint>
          <Trackpoint>
            <Time>2022-07-13T12:13:31.000Z</Time>
            <Position>
              <LatitudeDegrees>43.4673617966473102569580078125</LatitudeDegrees>
              <LongitudeDegrees>-3.60196941532194614410400390625</LongitudeDegrees>
            </Position>
            <AltitudeMeters>92.40000152587890625</AltitudeMeters>
            <DistanceMeters>NAN</DistanceMeters>
          </Trackpoint>
          <Trackpoint>
            <Time>2022-07-13T12:13:32.000Z</Time>
            <Position>
              <LatitudeDegrees>43.46736095845699310302734375</LatitudeDegrees>
              <LongitudeDegrees>-3.6019876040518283843994140625</LongitudeDegrees>
            </Position>
            <AltitudeMeters>92.59999847412109375</AltitudeMeters>
            <DistanceMeters>NAN</DistanceMeters>
          </Trackpoint>
          <Trackpoint>
            <Time>2022-07-13T12:13:40.000Z</Time>
            <Position>
              <LatitudeDegrees>43.4673151932656764984130859375</LatitudeDegrees>
              <LongitudeDegrees>-3.6021539010107517242431640625</LongitudeDegrees>
            </Position>
            <AltitudeMeters>93.59999847412109375</AltitudeMeters>
            <DistanceMeters>NAN</DistanceMeters>
          </Trackpoint>
          <Trackpoint>
            <Time>2022-07-13T12:13:49.000Z</Time>
            <Position>
              <LatitudeDegrees>43.46726439893245697021484375</LatitudeDegrees>
              <LongitudeDegrees>-3.6023279093205928802490234375</LongitudeDegrees>
            </Position>
            <AltitudeMeters>94.1999969482421875</AltitudeMeters>
            <DistanceMeters>NAN</DistanceMeters>
          </Trackpoint>
          <Trackpoint>
            <Time>2022-07-13T12:13:52.000Z</Time>
            <Position>
              <LatitudeDegrees>43.4672377444803714752197265625</LatitudeDegrees>
              <LongitudeDegrees>-3.6023805476725101470947265625</LongitudeDegrees>
            </Position>
            <AltitudeMeters>94.59999847412109375</AltitudeMeters>
            <DistanceMeters>NAN</DistanceMeters>
          </Trackpoint>
          <Trackpoint>
            <Time>2022-07-13T12:13:56.000Z</Time>
            <Position>
              <LatitudeDegrees>43.4672102518379688262939453125</LatitudeDegrees>
              <LongitudeDegrees>-3.60245187766849994659423828125</LongitudeDegrees>
            </Position>
            <AltitudeMeters>95.1999969482421875</AltitudeMeters>
            <DistanceMeters>NAN</DistanceMeters>
          </Trackpoint>
          <Trackpoint>
            <Time>2022-07-13T12:14:02.000Z</Time>
            <Position>
              <LatitudeDegrees>43.467150740325450897216796875</LatitudeDegrees>
              <LongitudeDegrees>-3.60256385989487171173095703125</LongitudeDegrees>
            </Position>
            <AltitudeMeters>95.59999847412109375</AltitudeMeters>
            <DistanceMeters>NAN</DistanceMeters>
          </Trackpoint>
          <Trackpoint>
            <Time>2022-07-13T12:14:03.000Z</Time>
            <Position>
              <LatitudeDegrees>43.467136658728122711181640625</LatitudeDegrees>
              <LongitudeDegrees>-3.6025736667215824127197265625</LongitudeDegrees>
            </Position>
            <AltitudeMeters>95.59999847412109375</AltitudeMeters>
            <DistanceMeters>NAN</DistanceMeters>
          </Trackpoint>
          <Trackpoint>
            <Time>2022-07-13T12:14:04.000Z</Time>
            <Position>
              <LatitudeDegrees>43.46711981110274791717529296875</LatitudeDegrees>
              <LongitudeDegrees>-3.60257743857800960540771484375</LongitudeDegrees>
            </Position>
            <AltitudeMeters>95.59999847412109375</AltitudeMeters>
            <DistanceMeters>NAN</DistanceMeters>
          </Trackpoint>
          <Trackpoint>
            <Time>2022-07-13T12:14:09.000Z</Time>
            <Position>
              <LatitudeDegrees>43.4670882113277912139892578125</LatitudeDegrees>
              <LongitudeDegrees>-3.60259168781340122222900390625</LongitudeDegrees>
            </Position>
            <AltitudeMeters>95.40000152587890625</AltitudeMeters>
            <DistanceMeters>NAN</DistanceMeters>
          </Trackpoint>
          <Trackpoint>
            <Time>2022-07-13T12:14:28.000Z</Time>
            <Position>
              <LatitudeDegrees>43.46708192490041255950927734375</LatitudeDegrees>
              <LongitudeDegrees>-3.60266142524778842926025390625</LongitudeDegrees>
            </Position>
            <AltitudeMeters>95.8000030517578125</AltitudeMeters>
            <DistanceMeters>NAN</DistanceMeters>
          </Trackpoint>
          <Trackpoint>
            <Time>2022-07-13T12:14:30.000Z</Time>
            <Position>
              <LatitudeDegrees>43.4670634008944034576416015625</LatitudeDegrees>
              <LongitudeDegrees>-3.60271632671356201171875</LongitudeDegrees>
            </Position>
            <AltitudeMeters>95.8000030517578125</AltitudeMeters>
            <DistanceMeters>NAN</DistanceMeters>
          </Trackpoint>
          <Trackpoint>
            <Time>2022-07-13T12:14:35.000Z</Time>
            <Position>
              <LatitudeDegrees>43.46699173562228679656982421875</LatitudeDegrees>
              <LongitudeDegrees>-3.602890335023403167724609375</LongitudeDegrees>
            </Position>
            <AltitudeMeters>95.59999847412109375</AltitudeMeters>
            <DistanceMeters>NAN</DistanceMeters>
          </Trackpoint>
          <Trackpoint>
            <Time>2022-07-13T12:14:36.000Z</Time>
            <Position>
              <LatitudeDegrees>43.4669718705117702484130859375</LatitudeDegrees>
              <LongitudeDegrees>-3.602938614785671234130859375</LongitudeDegrees>
            </Position>
            <AltitudeMeters>95.59999847412109375</AltitudeMeters>
            <DistanceMeters>NAN</DistanceMeters>
          </Trackpoint>
          <Trackpoint>
            <Time>2022-07-13T12:14:38.000Z</Time>
            <Position>
              <LatitudeDegrees>43.46693607978522777557373046875</LatitudeDegrees>
              <LongitudeDegrees>-3.6030179075896739959716796875</LongitudeDegrees>
            </Position>
            <AltitudeMeters>95.40000152587890625</AltitudeMeters>
            <DistanceMeters>NAN</DistanceMeters>
          </Trackpoint>
          <Trackpoint>
            <Time>2022-07-13T12:14:41.000Z</Time>
            <Position>
              <LatitudeDegrees>43.46687153913080692291259765625</LatitudeDegrees>
              <LongitudeDegrees>-3.6031520180404186248779296875</LongitudeDegrees>
            </Position>
            <AltitudeMeters>95.1999969482421875</AltitudeMeters>
            <DistanceMeters>NAN</DistanceMeters>
          </Trackpoint>
          <Trackpoint>
            <Time>2022-07-13T12:14:43.000Z</Time>
            <Position>
              <LatitudeDegrees>43.46682510338723659515380859375</LatitudeDegrees>
              <LongitudeDegrees>-3.60324597917497158050537109375</LongitudeDegrees>
            </Position>
            <AltitudeMeters>95.1999969482421875</AltitudeMeters>
            <DistanceMeters>NAN</DistanceMeters>
          </Trackpoint>
          <Trackpoint>
            <Time>2022-07-13T12:14:44.000Z</Time>
            <Position>
              <LatitudeDegrees>43.466804064810276031494140625</LatitudeDegrees>
              <LongitudeDegrees>-3.603293001651763916015625</LongitudeDegrees>
            </Position>
            <AltitudeMeters>95</AltitudeMeters>
            <DistanceMeters>NAN</DistanceMeters>
          </Trackpoint>
          <Trackpoint>
            <Time>2022-07-13T12:14:48.000Z</Time>
            <Position>
              <LatitudeDegrees>43.46671697683632373809814453125</LatitudeDegrees>
              <LongitudeDegrees>-3.60348151065409183502197265625</LongitudeDegrees>
            </Position>
            <AltitudeMeters>94.8000030517578125</AltitudeMeters>
            <DistanceMeters>NAN</DistanceMeters>
          </Trackpoint>
          <Trackpoint>
            <Time>2022-07-13T12:14:51.000Z</Time>
            <Position>
              <LatitudeDegrees>43.4666483290493488311767578125</LatitudeDegrees>
              <LongitudeDegrees>-3.603602461516857147216796875</LongitudeDegrees>
            </Position>
            <AltitudeMeters>94.8000030517578125</AltitudeMeters>
            <DistanceMeters>NAN</DistanceMeters>
          </Trackpoint>
          <Trackpoint>
            <Time>2022-07-13T12:14:52.000Z</Time>
            <Position>
              <LatitudeDegrees>43.46662603318691253662109375</LatitudeDegrees>
              <LongitudeDegrees>-3.60364093445241451263427734375</LongitudeDegrees>
            </Position>
            <AltitudeMeters>94.8000030517578125</AltitudeMeters>
            <DistanceMeters>NAN</DistanceMeters>
          </Trackpoint>
          <Trackpoint>
            <Time>2022-07-13T12:14:57.000Z</Time>
            <Position>
              <LatitudeDegrees>43.4665283001959323883056640625</LatitudeDegrees>
              <LongitudeDegrees>-3.60381846316158771514892578125</LongitudeDegrees>
            </Position>
            <AltitudeMeters>94.8000030517578125</AltitudeMeters>
            <DistanceMeters>NAN</DistanceMeters>
          </Trackpoint>
          <Trackpoint>
            <Time>2022-07-13T12:15:05.000Z</Time>
            <Position>
              <LatitudeDegrees>43.46640500240027904510498046875</LatitudeDegrees>
              <LongitudeDegrees>-3.60407142899930477142333984375</LongitudeDegrees>
            </Position>
            <AltitudeMeters>95.59999847412109375</AltitudeMeters>
            <DistanceMeters>NAN</DistanceMeters>
          </Trackpoint>
          <Trackpoint>
            <Time>2022-07-13T12:15:07.000Z</Time>
            <Position>
              <LatitudeDegrees>43.4663794375956058502197265625</LatitudeDegrees>
              <LongitudeDegrees>-3.60412591136991977691650390625</LongitudeDegrees>
            </Position>
            <AltitudeMeters>95.59999847412109375</AltitudeMeters>
            <DistanceMeters>NAN</DistanceMeters>
          </Trackpoint>
          <Trackpoint>
            <Time>2022-07-13T12:15:09.000Z</Time>
            <Position>
              <LatitudeDegrees>43.46636443398892879486083984375</LatitudeDegrees>
              <LongitudeDegrees>-3.60418684780597686767578125</LongitudeDegrees>
            </Position>
            <AltitudeMeters>95.8000030517578125</AltitudeMeters>
            <DistanceMeters>NAN</DistanceMeters>
          </Trackpoint>
          <Trackpoint>
            <Time>2022-07-13T12:15:12.000Z</Time>
            <Position>
              <LatitudeDegrees>43.46633811481297016143798828125</LatitudeDegrees>
              <LongitudeDegrees>-3.60428181476891040802001953125</LongitudeDegrees>
            </Position>
            <AltitudeMeters>95.8000030517578125</AltitudeMeters>
            <DistanceMeters>NAN</DistanceMeters>
          </Trackpoint>
          <Trackpoint>
            <Time>2022-07-13T12:15:20.000Z</Time>
            <Position>
              <LatitudeDegrees>43.46628673374652862548828125</LatitudeDegrees>
              <LongitudeDegrees>-3.60451131127774715423583984375</LongitudeDegrees>
            </Position>
            <AltitudeMeters>96.8000030517578125</AltitudeMeters>
            <DistanceMeters>NAN</DistanceMeters>
          </Trackpoint>
          <Trackpoint>
            <Time>2022-07-13T12:15:21.000Z</Time>
            <Position>
              <LatitudeDegrees>43.46628229133784770965576171875</LatitudeDegrees>
              <LongitudeDegrees>-3.6045390553772449493408203125</LongitudeDegrees>
            </Position>
            <AltitudeMeters>97</AltitudeMeters>
            <DistanceMeters>NAN</DistanceMeters>
          </Trackpoint>
          <Trackpoint>
            <Time>2022-07-13T12:15:26.000Z</Time>
            <Position>
              <LatitudeDegrees>43.4662620909512042999267578125</LatitudeDegrees>
              <LongitudeDegrees>-3.60466453246772289276123046875</LongitudeDegrees>
            </Position>
            <AltitudeMeters>97.40000152587890625</AltitudeMeters>
            <DistanceMeters>NAN</DistanceMeters>
          </Trackpoint>
          <Trackpoint>
            <Time>2022-07-13T12:15:28.000Z</Time>
            <Position>
              <LatitudeDegrees>43.46625731326639652252197265625</LatitudeDegrees>
              <LongitudeDegrees>-3.60471750609576702117919921875</LongitudeDegrees>
            </Position>
            <AltitudeMeters>97.59999847412109375</AltitudeMeters>
            <DistanceMeters>NAN</DistanceMeters>
          </Trackpoint>
          <Trackpoint>
            <Time>2022-07-13T12:15:30.000Z</Time>
            <Position>
              <LatitudeDegrees>43.4662590734660625457763671875</LatitudeDegrees>
              <LongitudeDegrees>-3.60476444475352764129638671875</LongitudeDegrees>
            </Position>
            <AltitudeMeters>97.8000030517578125</AltitudeMeters>
            <DistanceMeters>NAN</DistanceMeters>
          </Trackpoint>
          <Trackpoint>
            <Time>2022-07-13T12:15:36.000Z</Time>
            <Position>
              <LatitudeDegrees>43.4662413038313388824462890625</LatitudeDegrees>
              <LongitudeDegrees>-3.60491372644901275634765625</LongitudeDegrees>
            </Position>
            <AltitudeMeters>98.59999847412109375</AltitudeMeters>
            <DistanceMeters>NAN</DistanceMeters>
          </Trackpoint>
          <Trackpoint>
            <Time>2022-07-13T12:15:37.000Z</Time>
            <Position>
              <LatitudeDegrees>43.466240130364894866943359375</LatitudeDegrees>
              <LongitudeDegrees>-3.6049360223114490509033203125</LongitudeDegrees>
            </Position>
            <AltitudeMeters>98.8000030517578125</AltitudeMeters>
            <DistanceMeters>NAN</DistanceMeters>
          </Trackpoint>
          <Trackpoint>
            <Time>2022-07-13T12:15:38.000Z</Time>
            <Position>
              <LatitudeDegrees>43.46623786725103855133056640625</LatitudeDegrees>
              <LongitudeDegrees>-3.6049588210880756378173828125</LongitudeDegrees>
            </Position>
            <AltitudeMeters>98.8000030517578125</AltitudeMeters>
            <DistanceMeters>NAN</DistanceMeters>
          </Trackpoint>
          <Trackpoint>
            <Time>2022-07-13T12:15:41.000Z</Time>
            <Position>
              <LatitudeDegrees>43.4662208519876003265380859375</LatitudeDegrees>
              <LongitudeDegrees>-3.60503434203565120697021484375</LongitudeDegrees>
            </Position>
            <AltitudeMeters>99.1999969482421875</AltitudeMeters>
            <DistanceMeters>NAN</DistanceMeters>
          </Trackpoint>
          <Trackpoint>
            <Time>2022-07-13T12:15:47.000Z</Time>
            <Position>
              <LatitudeDegrees>43.46619646064937114715576171875</LatitudeDegrees>
              <LongitudeDegrees>-3.605184964835643768310546875</LongitudeDegrees>
            </Position>
            <AltitudeMeters>99.8000030517578125</AltitudeMeters>
            <DistanceMeters>NAN</DistanceMeters>
          </Trackpoint>
          <Trackpoint>
            <Time>2022-07-13T12:15:49.000Z</Time>
            <Position>
              <LatitudeDegrees>43.4661893360316753387451171875</LatitudeDegrees>
              <LongitudeDegrees>-3.60523383133113384246826171875</LongitudeDegrees>
            </Position>
            <AltitudeMeters>100</AltitudeMeters>
            <DistanceMeters>NAN</DistanceMeters>
          </Trackpoint>
          <Trackpoint>
            <Time>2022-07-13T12:15:59.000Z</Time>
            <Position>
              <LatitudeDegrees>43.4661678783595561981201171875</LatitudeDegrees>
              <LongitudeDegrees>-3.60548847354948520660400390625</LongitudeDegrees>
            </Position>
            <AltitudeMeters>101</AltitudeMeters>
            <DistanceMeters>NAN</DistanceMeters>
          </Trackpoint>
          <Trackpoint>
            <Time>2022-07-13T12:16:03.000Z</Time>
            <Position>
              <LatitudeDegrees>43.466154634952545166015625</LatitudeDegrees>
              <LongitudeDegrees>-3.6055834405124187469482421875</LongitudeDegrees>
            </Position>
            <AltitudeMeters>101</AltitudeMeters>
            <DistanceMeters>NAN</DistanceMeters>
          </Trackpoint>
          <Trackpoint>
            <Time>2022-07-13T12:16:09.000Z</Time>
            <Position>
              <LatitudeDegrees>43.46613594330847263336181640625</LatitudeDegrees>
              <LongitudeDegrees>-3.6057567782700061798095703125</LongitudeDegrees>
            </Position>
            <AltitudeMeters>101.59999847412109375</AltitudeMeters>
            <DistanceMeters>NAN</DistanceMeters>
          </Trackpoint>
          <Trackpoint>
            <Time>2022-07-13T12:16:12.000Z</Time>
            <Position>
              <LatitudeDegrees>43.46612018533051013946533203125</LatitudeDegrees>
              <LongitudeDegrees>-3.60584923066198825836181640625</LongitudeDegrees>
            </Position>
            <AltitudeMeters>101.8000030517578125</AltitudeMeters>
            <DistanceMeters>NAN</DistanceMeters>
          </Trackpoint>
          <Trackpoint>
            <Time>2022-07-13T12:16:14.000Z</Time>
            <Position>
              <LatitudeDegrees>43.46611398272216320037841796875</LatitudeDegrees>
              <LongitudeDegrees>-3.60591779462993144989013671875</LongitudeDegrees>
            </Position>
            <AltitudeMeters>101.8000030517578125</AltitudeMeters>
            <DistanceMeters>NAN</DistanceMeters>
          </Trackpoint>
          <Trackpoint>
            <Time>2022-07-13T12:16:22.000Z</Time>
            <Position>
              <LatitudeDegrees>43.46606754697859287261962890625</LatitudeDegrees>
              <LongitudeDegrees>-3.606198839843273162841796875</LongitudeDegrees>
            </Position>
            <AltitudeMeters>102</AltitudeMeters>
            <DistanceMeters>NAN</DistanceMeters>
          </Trackpoint>
          <Trackpoint>
            <Time>2022-07-13T12:16:24.000Z</Time>
            <Position>
              <LatitudeDegrees>43.466055728495121002197265625</LatitudeDegrees>
              <LongitudeDegrees>-3.6062663979828357696533203125</LongitudeDegrees>
            </Position>
            <AltitudeMeters>102</AltitudeMeters>
            <DistanceMeters>NAN</DistanceMeters>
          </Trackpoint>
          <Trackpoint>
            <Time>2022-07-13T12:16:30.000Z</Time>
            <Position>
              <LatitudeDegrees>43.4660191833972930908203125</LatitudeDegrees>
              <LongitudeDegrees>-3.60646094195544719696044921875</LongitudeDegrees>
            </Position>
            <AltitudeMeters>102.40000152587890625</AltitudeMeters>
            <DistanceMeters>NAN</DistanceMeters>
          </Trackpoint>
          <Trackpoint>
            <Time>2022-07-13T12:16:32.000Z</Time>
            <Position>
              <LatitudeDegrees>43.46600635908544063568115234375</LatitudeDegrees>
              <LongitudeDegrees>-3.60652514733374118804931640625</LongitudeDegrees>
            </Position>
            <AltitudeMeters>102.8000030517578125</AltitudeMeters>
            <DistanceMeters>NAN</DistanceMeters>
          </Trackpoint>
          <Trackpoint>
            <Time>2022-07-13T12:16:37.000Z</Time>
            <Position>
              <LatitudeDegrees>43.46596612595021724700927734375</LatitudeDegrees>
              <LongitudeDegrees>-3.6066794581711292266845703125</LongitudeDegrees>
            </Position>
            <AltitudeMeters>103</AltitudeMeters>
            <DistanceMeters>NAN</DistanceMeters>
          </Trackpoint>
          <Trackpoint>
            <Time>2022-07-13T12:16:38.000Z</Time>
            <Position>
              <LatitudeDegrees>43.46595472656190395355224609375</LatitudeDegrees>
              <LongitudeDegrees>-3.60670971684157848358154296875</LongitudeDegrees>
            </Position>
            <AltitudeMeters>103.1999969482421875</AltitudeMeters>
            <DistanceMeters>NAN</DistanceMeters>
          </Trackpoint>
          <Trackpoint>
            <Time>2022-07-13T12:16:39.000Z</Time>
            <Position>
              <LatitudeDegrees>43.46594114787876605987548828125</LatitudeDegrees>
              <LongitudeDegrees>-3.60674056224524974822998046875</LongitudeDegrees>
            </Position>
            <AltitudeMeters>103.1999969482421875</AltitudeMeters>
            <DistanceMeters>NAN</DistanceMeters>
          </Trackpoint>
          <Trackpoint>
            <Time>2022-07-13T12:16:47.000Z</Time>
            <Position>
              <LatitudeDegrees>43.46581734716892242431640625</LatitudeDegrees>
              <LongitudeDegrees>-3.6069758422672748565673828125</LongitudeDegrees>
            </Position>
            <AltitudeMeters>103.1999969482421875</AltitudeMeters>
            <DistanceMeters>NAN</DistanceMeters>
          </Trackpoint>
          <Trackpoint>
            <Time>2022-07-13T12:16:50.000Z</Time>
            <Position>
              <LatitudeDegrees>43.46576076932251453399658203125</LatitudeDegrees>
              <LongitudeDegrees>-3.6070536263287067413330078125</LongitudeDegrees>
            </Position>
            <AltitudeMeters>103.40000152587890625</AltitudeMeters>
            <DistanceMeters>NAN</DistanceMeters>
          </Trackpoint>
          <Trackpoint>
            <Time>2022-07-13T12:16:55.000Z</Time>
            <Position>
              <LatitudeDegrees>43.46564476378262042999267578125</LatitudeDegrees>
              <LongitudeDegrees>-3.60714725218713283538818359375</LongitudeDegrees>
            </Position>
            <AltitudeMeters>103.40000152587890625</AltitudeMeters>
            <DistanceMeters>NAN</DistanceMeters>
          </Trackpoint>
          <Trackpoint>
            <Time>2022-07-13T12:17:01.000Z</Time>
            <Position>
              <LatitudeDegrees>43.4655176103115081787109375</LatitudeDegrees>
              <LongitudeDegrees>-3.60716879367828369140625</LongitudeDegrees>
            </Position>
            <AltitudeMeters>104.1999969482421875</AltitudeMeters>
            <DistanceMeters>NAN</DistanceMeters>
          </Trackpoint>
          <Trackpoint>
            <Time>2022-07-13T12:17:02.000Z</Time>
            <Position>
              <LatitudeDegrees>43.4654966555535793304443359375</LatitudeDegrees>
              <LongitudeDegrees>-3.60716669820249080657958984375</LongitudeDegrees>
            </Position>
            <AltitudeMeters>104.40000152587890625</AltitudeMeters>
            <DistanceMeters>NAN</DistanceMeters>
          </Trackpoint>
          <Trackpoint>
            <Time>2022-07-13T12:17:07.000Z</Time>
            <Position>
              <LatitudeDegrees>43.46540831029415130615234375</LatitudeDegrees>
              <LongitudeDegrees>-3.60713065601885318756103515625</LongitudeDegrees>
            </Position>
            <AltitudeMeters>105.1999969482421875</AltitudeMeters>
            <DistanceMeters>NAN</DistanceMeters>
          </Trackpoint>
          <Trackpoint>
            <Time>2022-07-13T12:17:11.000Z</Time>
            <Position>
              <LatitudeDegrees>43.4653347171843051910400390625</LatitudeDegrees>
              <LongitudeDegrees>-3.60708841122686862945556640625</LongitudeDegrees>
            </Position>
            <AltitudeMeters>105.59999847412109375</AltitudeMeters>
            <DistanceMeters>NAN</DistanceMeters>
          </Trackpoint>
          <Trackpoint>
            <Time>2022-07-13T12:17:17.000Z</Time>
            <Position>
              <LatitudeDegrees>43.46522516570985317230224609375</LatitudeDegrees>
              <LongitudeDegrees>-3.6070274747908115386962890625</LongitudeDegrees>
            </Position>
            <AltitudeMeters>106.1999969482421875</AltitudeMeters>
            <DistanceMeters>NAN</DistanceMeters>
          </Trackpoint>
          <Trackpoint>
            <Time>2022-07-13T12:17:21.000Z</Time>
            <Position>
              <LatitudeDegrees>43.465151824057102203369140625</LatitudeDegrees>
              <LongitudeDegrees>-3.606992103159427642822265625</LongitudeDegrees>
            </Position>
            <AltitudeMeters>107</AltitudeMeters>
            <DistanceMeters>NAN</DistanceMeters>
          </Trackpoint>
          <Trackpoint>
            <Time>2022-07-13T12:17:24.000Z</Time>
            <Position>
              <LatitudeDegrees>43.4650960005819797515869140625</LatitudeDegrees>
              <LongitudeDegrees>-3.6069823801517486572265625</LongitudeDegrees>
            </Position>
            <AltitudeMeters>107.1999969482421875</AltitudeMeters>
            <DistanceMeters>NAN</DistanceMeters>
          </Trackpoint>
          <Trackpoint>
            <Time>2022-07-13T12:17:26.000Z</Time>
            <Position>
              <LatitudeDegrees>43.46505484543740749359130859375</LatitudeDegrees>
              <LongitudeDegrees>-3.60698196105659008026123046875</LongitudeDegrees>
            </Position>
            <AltitudeMeters>107.40000152587890625</AltitudeMeters>
            <DistanceMeters>NAN</DistanceMeters>
          </Trackpoint>
          <Trackpoint>
            <Time>2022-07-13T12:17:30.000Z</Time>
            <Position>
              <LatitudeDegrees>43.4649677574634552001953125</LatitudeDegrees>
              <LongitudeDegrees>-3.60699386335909366607666015625</LongitudeDegrees>
            </Position>
            <AltitudeMeters>107.59999847412109375</AltitudeMeters>
            <DistanceMeters>NAN</DistanceMeters>
          </Trackpoint>
          <Trackpoint>
            <Time>2022-07-13T12:17:35.000Z</Time>
            <Position>
              <LatitudeDegrees>43.46481244079768657684326171875</LatitudeDegrees>
              <LongitudeDegrees>-3.6071236990392208099365234375</LongitudeDegrees>
            </Position>
            <AltitudeMeters>107.40000152587890625</AltitudeMeters>
            <DistanceMeters>NAN</DistanceMeters>
          </Trackpoint>
          <Trackpoint>
            <Time>2022-07-13T12:17:37.000Z</Time>
            <Position>
              <LatitudeDegrees>43.464748822152614593505859375</LatitudeDegrees>
              <LongitudeDegrees>-3.60722151584923267364501953125</LongitudeDegrees>
            </Position>
            <AltitudeMeters>107</AltitudeMeters>
            <DistanceMeters>NAN</DistanceMeters>
          </Trackpoint>
          <Trackpoint>
            <Time>2022-07-13T12:17:38.000Z</Time>
            <Position>
              <LatitudeDegrees>43.46471286378800868988037109375</LatitudeDegrees>
              <LongitudeDegrees>-3.6072796024382114410400390625</LongitudeDegrees>
            </Position>
            <AltitudeMeters>106.8000030517578125</AltitudeMeters>
            <DistanceMeters>NAN</DistanceMeters>
          </Trackpoint>
          <Trackpoint>
            <Time>2022-07-13T12:17:40.000Z</Time>
            <Position>
              <LatitudeDegrees>43.46462720073759555816650390625</LatitudeDegrees>
              <LongitudeDegrees>-3.6074204184114933013916015625</LongitudeDegrees>
            </Position>
            <AltitudeMeters>106</AltitudeMeters>
            <DistanceMeters>NAN</DistanceMeters>
          </Trackpoint>
          <Trackpoint>
            <Time>2022-07-13T12:17:42.000Z</Time>
            <Position>
              <LatitudeDegrees>43.4645454771816730499267578125</LatitudeDegrees>
              <LongitudeDegrees>-3.6075488291680812835693359375</LongitudeDegrees>
            </Position>
            <AltitudeMeters>105.1999969482421875</AltitudeMeters>
            <DistanceMeters>NAN</DistanceMeters>
          </Trackpoint>
          <Trackpoint>
            <Time>2022-07-13T12:17:44.000Z</Time>
            <Position>
              <LatitudeDegrees>43.464474566280841827392578125</LatitudeDegrees>
              <LongitudeDegrees>-3.6076554469764232635498046875</LongitudeDegrees>
            </Position>
            <AltitudeMeters>105</AltitudeMeters>
            <DistanceMeters>NAN</DistanceMeters>
          </Trackpoint>
          <Trackpoint>
            <Time>2022-07-13T12:17:45.000Z</Time>
            <Position>
              <LatitudeDegrees>43.4644294716417789459228515625</LatitudeDegrees>
              <LongitudeDegrees>-3.6077213287353515625</LongitudeDegrees>
            </Position>
            <AltitudeMeters>104.8000030517578125</AltitudeMeters>
            <DistanceMeters>NAN</DistanceMeters>
          </Trackpoint>
          <Trackpoint>
            <Time>2022-07-13T12:17:47.000Z</Time>
            <Position>
              <LatitudeDegrees>43.46435780636966228485107421875</LatitudeDegrees>
              <LongitudeDegrees>-3.60782635398209095001220703125</LongitudeDegrees>
            </Position>
            <AltitudeMeters>104.40000152587890625</AltitudeMeters>
            <DistanceMeters>NAN</DistanceMeters>
          </Trackpoint>
          <Trackpoint>
            <Time>2022-07-13T12:17:48.000Z</Time>
            <Position>
              <LatitudeDegrees>43.46432746388018131256103515625</LatitudeDegrees>
              <LongitudeDegrees>-3.60786608420312404632568359375</LongitudeDegrees>
            </Position>
            <AltitudeMeters>104.40000152587890625</AltitudeMeters>
            <DistanceMeters>NAN</DistanceMeters>
          </Trackpoint>
          <Trackpoint>
            <Time>2022-07-13T12:17:50.000Z</Time>
            <Position>
              <LatitudeDegrees>43.46425152383744716644287109375</LatitudeDegrees>
              <LongitudeDegrees>-3.60797052271664142608642578125</LongitudeDegrees>
            </Position>
            <AltitudeMeters>104.40000152587890625</AltitudeMeters>
            <DistanceMeters>NAN</DistanceMeters>
          </Trackpoint>
          <Trackpoint>
            <Time>2022-07-13T12:17:55.000Z</Time>
            <Position>
              <LatitudeDegrees>43.4640955366194248199462890625</LatitudeDegrees>
              <LongitudeDegrees>-3.60818761400878429412841796875</LongitudeDegrees>
            </Position>
            <AltitudeMeters>104.59999847412109375</AltitudeMeters>
            <DistanceMeters>NAN</DistanceMeters>
          </Trackpoint>
          <Trackpoint>
            <Time>2022-07-13T12:17:57.000Z</Time>
            <Position>
              <LatitudeDegrees>43.464037366211414337158203125</LatitudeDegrees>
              <LongitudeDegrees>-3.608264140784740447998046875</LongitudeDegrees>
            </Position>
            <AltitudeMeters>105</AltitudeMeters>
            <DistanceMeters>NAN</DistanceMeters>
          </Trackpoint>
          <Trackpoint>
            <Time>2022-07-13T12:17:58.000Z</Time>
            <Position>
              <LatitudeDegrees>43.46400978974997997283935546875</LatitudeDegrees>
              <LongitudeDegrees>-3.6082985065877437591552734375</LongitudeDegrees>
            </Position>
            <AltitudeMeters>105</AltitudeMeters>
            <DistanceMeters>NAN</DistanceMeters>
          </Trackpoint>
          <Trackpoint>
            <Time>2022-07-13T12:18:00.000Z</Time>
            <Position>
              <LatitudeDegrees>43.463962934911251068115234375</LatitudeDegrees>
              <LongitudeDegrees>-3.60836514271795749664306640625</LongitudeDegrees>
            </Position>
            <AltitudeMeters>105.40000152587890625</AltitudeMeters>
            <DistanceMeters>NAN</DistanceMeters>
          </Trackpoint>
          <Trackpoint>
            <Time>2022-07-13T12:18:02.000Z</Time>
            <Position>
              <LatitudeDegrees>43.46392236649990081787109375</LatitudeDegrees>
              <LongitudeDegrees>-3.60842582769691944122314453125</LongitudeDegrees>
            </Position>
            <AltitudeMeters>106</AltitudeMeters>
            <DistanceMeters>NAN</DistanceMeters>
          </Trackpoint>
          <Trackpoint>
            <Time>2022-07-13T12:18:06.000Z</Time>
            <Position>
              <LatitudeDegrees>43.46385003067553043365478515625</LatitudeDegrees>
              <LongitudeDegrees>-3.60853194259107112884521484375</LongitudeDegrees>
            </Position>
            <AltitudeMeters>107</AltitudeMeters>
            <DistanceMeters>NAN</DistanceMeters>
          </Trackpoint>
          <Trackpoint>
            <Time>2022-07-13T12:18:08.000Z</Time>
            <Position>
              <LatitudeDegrees>43.46382915973663330078125</LatitudeDegrees>
              <LongitudeDegrees>-3.60858030617237091064453125</LongitudeDegrees>
            </Position>
            <AltitudeMeters>107.59999847412109375</AltitudeMeters>
            <DistanceMeters>NAN</DistanceMeters>
          </Trackpoint>
          <Trackpoint>
            <Time>2022-07-13T12:18:11.000Z</Time>
            <Position>
              <LatitudeDegrees>43.46380342729389667510986328125</LatitudeDegrees>
              <LongitudeDegrees>-3.6086569167673587799072265625</LongitudeDegrees>
            </Position>
            <AltitudeMeters>108</AltitudeMeters>
            <DistanceMeters>NAN</DistanceMeters>
          </Trackpoint>
          <Trackpoint>
            <Time>2022-07-13T12:18:14.000Z</Time>
            <Position>
              <LatitudeDegrees>43.4637897647917270660400390625</LatitudeDegrees>
              <LongitudeDegrees>-3.60875272192060947418212890625</LongitudeDegrees>
            </Position>
            <AltitudeMeters>108.59999847412109375</AltitudeMeters>
            <DistanceMeters>NAN</DistanceMeters>
          </Trackpoint>
          <Trackpoint>
            <Time>2022-07-13T12:18:17.000Z</Time>
            <Position>
              <LatitudeDegrees>43.46380108036100864410400390625</LatitudeDegrees>
              <LongitudeDegrees>-3.60884827561676502227783203125</LongitudeDegrees>
            </Position>
            <AltitudeMeters>109.1999969482421875</AltitudeMeters>
            <DistanceMeters>NAN</DistanceMeters>
          </Trackpoint>
          <Trackpoint>
            <Time>2022-07-13T12:18:21.000Z</Time>
            <Position>
              <LatitudeDegrees>43.4638055227696895599365234375</LatitudeDegrees>
              <LongitudeDegrees>-3.6089740879833698272705078125</LongitudeDegrees>
            </Position>
            <AltitudeMeters>110</AltitudeMeters>
            <DistanceMeters>NAN</DistanceMeters>
          </Trackpoint>
          <Trackpoint>
            <Time>2022-07-13T12:18:26.000Z</Time>
            <Position>
              <LatitudeDegrees>43.46381197683513164520263671875</LatitudeDegrees>
              <LongitudeDegrees>-3.60912236385047435760498046875</LongitudeDegrees>
            </Position>
            <AltitudeMeters>110.1999969482421875</AltitudeMeters>
            <DistanceMeters>NAN</DistanceMeters>
          </Trackpoint>
          <Trackpoint>
            <Time>2022-07-13T12:18:28.000Z</Time>
            <Position>
              <LatitudeDegrees>43.4638219512999057769775390625</LatitudeDegrees>
              <LongitudeDegrees>-3.60917516984045505523681640625</LongitudeDegrees>
            </Position>
            <AltitudeMeters>110.40000152587890625</AltitudeMeters>
            <DistanceMeters>NAN</DistanceMeters>
          </Trackpoint>
          <Trackpoint>
            <Time>2022-07-13T12:18:33.000Z</Time>
            <Position>
              <LatitudeDegrees>43.46381935290992259979248046875</LatitudeDegrees>
              <LongitudeDegrees>-3.6093174107372760772705078125</LongitudeDegrees>
            </Position>
            <AltitudeMeters>111</AltitudeMeters>
            <DistanceMeters>NAN</DistanceMeters>
          </Trackpoint>
          <Trackpoint>
            <Time>2022-07-13T12:18:35.000Z</Time>
            <Position>
              <LatitudeDegrees>43.46382354386150836944580078125</LatitudeDegrees>
              <LongitudeDegrees>-3.60937893390655517578125</LongitudeDegrees>
            </Position>
            <AltitudeMeters>111.40000152587890625</AltitudeMeters>
            <DistanceMeters>NAN</DistanceMeters>
          </Trackpoint>
          <Trackpoint>
            <Time>2022-07-13T12:18:36.000Z</Time>
            <Position>
              <LatitudeDegrees>43.463824801146984100341796875</LatitudeDegrees>
              <LongitudeDegrees>-3.60940382815897464752197265625</LongitudeDegrees>
            </Position>
            <AltitudeMeters>111.59999847412109375</AltitudeMeters>
            <DistanceMeters>NAN</DistanceMeters>
          </Trackpoint>
          <Trackpoint>
            <Time>2022-07-13T12:18:44.000Z</Time>
            <Position>
              <LatitudeDegrees>43.46382790245115756988525390625</LatitudeDegrees>
              <LongitudeDegrees>-3.609646148979663848876953125</LongitudeDegrees>
            </Position>
            <AltitudeMeters>112.40000152587890625</AltitudeMeters>
            <DistanceMeters>NAN</DistanceMeters>
          </Trackpoint>
          <Trackpoint>
            <Time>2022-07-13T12:18:48.000Z</Time>
            <Position>
              <LatitudeDegrees>43.463837541639804840087890625</LatitudeDegrees>
              <LongitudeDegrees>-3.609750755131244659423828125</LongitudeDegrees>
            </Position>
            <AltitudeMeters>112.8000030517578125</AltitudeMeters>
            <DistanceMeters>NAN</DistanceMeters>
          </Trackpoint>
          <Trackpoint>
            <Time>2022-07-13T12:18:50.000Z</Time>
            <Position>
              <LatitudeDegrees>43.46382790245115756988525390625</LatitudeDegrees>
              <LongitudeDegrees>-3.60981236211955547332763671875</LongitudeDegrees>
            </Position>
            <AltitudeMeters>113</AltitudeMeters>
            <DistanceMeters>NAN</DistanceMeters>
          </Trackpoint>
          <Trackpoint>
            <Time>2022-07-13T12:18:56.000Z</Time>
            <Position>
              <LatitudeDegrees>43.46380912698805332183837890625</LatitudeDegrees>
              <LongitudeDegrees>-3.61000363714993000030517578125</LongitudeDegrees>
            </Position>
            <AltitudeMeters>113.40000152587890625</AltitudeMeters>
            <DistanceMeters>NAN</DistanceMeters>
          </Trackpoint>
          <Trackpoint>
            <Time>2022-07-13T12:19:01.000Z</Time>
            <Position>
              <LatitudeDegrees>43.4637847356498241424560546875</LatitudeDegrees>
              <LongitudeDegrees>-3.61019767820835113525390625</LongitudeDegrees>
            </Position>
            <AltitudeMeters>113.59999847412109375</AltitudeMeters>
            <DistanceMeters>NAN</DistanceMeters>
          </Trackpoint>
          <Trackpoint>
            <Time>2022-07-13T12:19:06.000Z</Time>
            <Position>
              <LatitudeDegrees>43.46375070512294769287109375</LatitudeDegrees>
              <LongitudeDegrees>-3.6103866063058376312255859375</LongitudeDegrees>
            </Position>
            <AltitudeMeters>113.1999969482421875</AltitudeMeters>
            <DistanceMeters>NAN</DistanceMeters>
          </Trackpoint>
          <Trackpoint>
            <Time>2022-07-13T12:19:10.000Z</Time>
            <Position>
              <LatitudeDegrees>43.46370242536067962646484375</LatitudeDegrees>
              <LongitudeDegrees>-3.6105954833328723907470703125</LongitudeDegrees>
            </Position>
            <AltitudeMeters>112.8000030517578125</AltitudeMeters>
            <DistanceMeters>NAN</DistanceMeters>
          </Trackpoint>
          <Trackpoint>
            <Time>2022-07-13T12:19:14.000Z</Time>
            <Position>
              <LatitudeDegrees>43.4636512957513332366943359375</LatitudeDegrees>
              <LongitudeDegrees>-3.61085691489279270172119140625</LongitudeDegrees>
            </Position>
            <AltitudeMeters>112.40000152587890625</AltitudeMeters>
            <DistanceMeters>NAN</DistanceMeters>
          </Trackpoint>
          <Trackpoint>
            <Time>2022-07-13T12:19:16.000Z</Time>
            <Position>
              <LatitudeDegrees>43.4636177681386470794677734375</LatitudeDegrees>
              <LongitudeDegrees>-3.6110058613121509552001953125</LongitudeDegrees>
            </Position>
            <AltitudeMeters>112</AltitudeMeters>
            <DistanceMeters>NAN</DistanceMeters>
          </Trackpoint>
          <Trackpoint>
            <Time>2022-07-13T12:19:19.000Z</Time>
            <Position>
              <LatitudeDegrees>43.4635647945106029510498046875</LatitudeDegrees>
              <LongitudeDegrees>-3.61125036142766475677490234375</LongitudeDegrees>
            </Position>
            <AltitudeMeters>111.40000152587890625</AltitudeMeters>
            <DistanceMeters>NAN</DistanceMeters>
          </Trackpoint>
          <Trackpoint>
            <Time>2022-07-13T12:19:22.000Z</Time>
            <Position>
              <LatitudeDegrees>43.4634880162775516510009765625</LatitudeDegrees>
              <LongitudeDegrees>-3.611507602035999298095703125</LongitudeDegrees>
            </Position>
            <AltitudeMeters>110.40000152587890625</AltitudeMeters>
            <DistanceMeters>NAN</DistanceMeters>
          </Trackpoint>
          <Trackpoint>
            <Time>2022-07-13T12:19:23.000Z</Time>
            <Position>
              <LatitudeDegrees>43.46345457248389720916748046875</LatitudeDegrees>
              <LongitudeDegrees>-3.61159871332347393035888671875</LongitudeDegrees>
            </Position>
            <AltitudeMeters>110</AltitudeMeters>
            <DistanceMeters>NAN</DistanceMeters>
          </Trackpoint>
          <Trackpoint>
            <Time>2022-07-13T12:19:24.000Z</Time>
            <Position>
              <LatitudeDegrees>43.46341517753899097442626953125</LatitudeDegrees>
              <LongitudeDegrees>-3.61168622039258480072021484375</LongitudeDegrees>
            </Position>
            <AltitudeMeters>109.8000030517578125</AltitudeMeters>
            <DistanceMeters>NAN</DistanceMeters>
          </Trackpoint>
          <Trackpoint>
            <Time>2022-07-13T12:19:26.000Z</Time>
            <Position>
              <LatitudeDegrees>43.4633180312812328338623046875</LatitudeDegrees>
              <LongitudeDegrees>-3.61186341382563114166259765625</LongitudeDegrees>
            </Position>
            <AltitudeMeters>109.1999969482421875</AltitudeMeters>
            <DistanceMeters>NAN</DistanceMeters>
          </Trackpoint>
          <Trackpoint>
            <Time>2022-07-13T12:19:27.000Z</Time>
            <Position>
              <LatitudeDegrees>43.46326296217739582061767578125</LatitudeDegrees>
              <LongitudeDegrees>-3.61195343546569347381591796875</LongitudeDegrees>
            </Position>
            <AltitudeMeters>108.8000030517578125</AltitudeMeters>
            <DistanceMeters>NAN</DistanceMeters>
          </Trackpoint>
          <Trackpoint>
            <Time>2022-07-13T12:19:31.000Z</Time>
            <Position>
              <LatitudeDegrees>43.46302676014602184295654296875</LatitudeDegrees>
              <LongitudeDegrees>-3.6123456247150897979736328125</LongitudeDegrees>
            </Position>
            <AltitudeMeters>107.1999969482421875</AltitudeMeters>
            <DistanceMeters>NAN</DistanceMeters>
          </Trackpoint>
          <Trackpoint>
            <Time>2022-07-13T12:19:34.000Z</Time>
            <Position>
              <LatitudeDegrees>43.4628221578896045684814453125</LatitudeDegrees>
              <LongitudeDegrees>-3.61261510290205478668212890625</LongitudeDegrees>
            </Position>
            <AltitudeMeters>106.1999969482421875</AltitudeMeters>
            <DistanceMeters>NAN</DistanceMeters>
          </Trackpoint>
          <Trackpoint>
            <Time>2022-07-13T12:19:35.000Z</Time>
            <Position>
              <LatitudeDegrees>43.46272333525121212005615234375</LatitudeDegrees>
              <LongitudeDegrees>-3.6127223074436187744140625</LongitudeDegrees>
            </Position>
            <AltitudeMeters>106</AltitudeMeters>
            <DistanceMeters>NAN</DistanceMeters>
          </Trackpoint>
          <Trackpoint>
            <Time>2022-07-13T12:19:37.000Z</Time>
            <Position>
              <LatitudeDegrees>43.4625663422048091888427734375</LatitudeDegrees>
              <LongitudeDegrees>-3.61291198991239070892333984375</LongitudeDegrees>
            </Position>
            <AltitudeMeters>105.8000030517578125</AltitudeMeters>
            <DistanceMeters>NAN</DistanceMeters>
          </Trackpoint>
          <Trackpoint>
            <Time>2022-07-13T12:19:38.000Z</Time>
            <Position>
              <LatitudeDegrees>43.46249568276107311248779296875</LatitudeDegrees>
              <LongitudeDegrees>-3.6130227148532867431640625</LongitudeDegrees>
            </Position>
            <AltitudeMeters>105</AltitudeMeters>
            <DistanceMeters>NAN</DistanceMeters>
          </Trackpoint>
          <Trackpoint>
            <Time>2022-07-13T12:19:39.000Z</Time>
            <Position>
              <LatitudeDegrees>43.46243969164788722991943359375</LatitudeDegrees>
              <LongitudeDegrees>-3.613111563026905059814453125</LongitudeDegrees>
            </Position>
            <AltitudeMeters>104.40000152587890625</AltitudeMeters>
            <DistanceMeters>NAN</DistanceMeters>
          </Trackpoint>
          <Trackpoint>
            <Time>2022-07-13T12:19:41.000Z</Time>
            <Position>
              <LatitudeDegrees>43.4622828662395477294921875</LatitudeDegrees>
              <LongitudeDegrees>-3.6132994852960109710693359375</LongitudeDegrees>
            </Position>
            <AltitudeMeters>103.8000030517578125</AltitudeMeters>
            <DistanceMeters>NAN</DistanceMeters>
          </Trackpoint>
          <Trackpoint>
            <Time>2022-07-13T12:19:42.000Z</Time>
            <Position>
              <LatitudeDegrees>43.462193347513675689697265625</LatitudeDegrees>
              <LongitudeDegrees>-3.61336075700819492340087890625</LongitudeDegrees>
            </Position>
            <AltitudeMeters>102.8000030517578125</AltitudeMeters>
            <DistanceMeters>NAN</DistanceMeters>
          </Trackpoint>
          <Trackpoint>
            <Time>2022-07-13T12:19:43.000Z</Time>
            <Position>
              <LatitudeDegrees>43.46210072748363018035888671875</LatitudeDegrees>
              <LongitudeDegrees>-3.61340819858014583587646484375</LongitudeDegrees>
            </Position>
            <AltitudeMeters>102.40000152587890625</AltitudeMeters>
            <DistanceMeters>NAN</DistanceMeters>
          </Trackpoint>
          <Trackpoint>
            <Time>2022-07-13T12:19:46.000Z</Time>
            <Position>
              <LatitudeDegrees>43.46182412467896938323974609375</LatitudeDegrees>
              <LongitudeDegrees>-3.6135794408619403839111328125</LongitudeDegrees>
            </Position>
            <AltitudeMeters>101</AltitudeMeters>
            <DistanceMeters>NAN</DistanceMeters>
          </Trackpoint>
          <Trackpoint>
            <Time>2022-07-13T12:19:48.000Z</Time>
            <Position>
              <LatitudeDegrees>43.46167291514575481414794921875</LatitudeDegrees>
              <LongitudeDegrees>-3.61377046443521976470947265625</LongitudeDegrees>
            </Position>
            <AltitudeMeters>100</AltitudeMeters>
            <DistanceMeters>NAN</DistanceMeters>
          </Trackpoint>
          <Trackpoint>
            <Time>2022-07-13T12:19:49.000Z</Time>
            <Position>
              <LatitudeDegrees>43.4615994058549404144287109375</LatitudeDegrees>
              <LongitudeDegrees>-3.61389401368796825408935546875</LongitudeDegrees>
            </Position>
            <AltitudeMeters>99.1999969482421875</AltitudeMeters>
            <DistanceMeters>NAN</DistanceMeters>
          </Trackpoint>
          <Trackpoint>
            <Time>2022-07-13T12:19:50.000Z</Time>
            <Position>
              <LatitudeDegrees>43.46153059042990207672119140625</LatitudeDegrees>
              <LongitudeDegrees>-3.61402443610131740570068359375</LongitudeDegrees>
            </Position>
            <AltitudeMeters>98.59999847412109375</AltitudeMeters>
            <DistanceMeters>NAN</DistanceMeters>
          </Trackpoint>
          <Trackpoint>
            <Time>2022-07-13T12:19:52.000Z</Time>
            <Position>
              <LatitudeDegrees>43.46139916218817234039306640625</LatitudeDegrees>
              <LongitudeDegrees>-3.61431679688394069671630859375</LongitudeDegrees>
            </Position>
            <AltitudeMeters>97</AltitudeMeters>
            <DistanceMeters>NAN</DistanceMeters>
          </Trackpoint>
          <Trackpoint>
            <Time>2022-07-13T12:19:53.000Z</Time>
            <Position>
              <LatitudeDegrees>43.4613306820392608642578125</LatitudeDegrees>
              <LongitudeDegrees>-3.6144699342548847198486328125</LongitudeDegrees>
            </Position>
            <AltitudeMeters>95.8000030517578125</AltitudeMeters>
            <DistanceMeters>NAN</DistanceMeters>
          </Trackpoint>
          <Trackpoint>
            <Time>2022-07-13T12:19:55.000Z</Time>
            <Position>
              <LatitudeDegrees>43.4611829929053783416748046875</LatitudeDegrees>
              <LongitudeDegrees>-3.6147666536271572113037109375</LongitudeDegrees>
            </Position>
            <AltitudeMeters>94.40000152587890625</AltitudeMeters>
            <DistanceMeters>NAN</DistanceMeters>
          </Trackpoint>
          <Trackpoint>
            <Time>2022-07-13T12:19:58.000Z</Time>
            <Position>
              <LatitudeDegrees>43.4609462879598140716552734375</LatitudeDegrees>
              <LongitudeDegrees>-3.61518985591828823089599609375</LongitudeDegrees>
            </Position>
            <AltitudeMeters>92.40000152587890625</AltitudeMeters>
            <DistanceMeters>NAN</DistanceMeters>
          </Trackpoint>
          <Trackpoint>
            <Time>2022-07-13T12:19:59.000Z</Time>
            <Position>
              <LatitudeDegrees>43.46086733043193817138671875</LatitudeDegrees>
              <LongitudeDegrees>-3.61532882787287235260009765625</LongitudeDegrees>
            </Position>
            <AltitudeMeters>91.59999847412109375</AltitudeMeters>
            <DistanceMeters>NAN</DistanceMeters>
          </Trackpoint>
          <Trackpoint>
            <Time>2022-07-13T12:20:00.000Z</Time>
            <Position>
              <LatitudeDegrees>43.46078543923795223236083984375</LatitudeDegrees>
              <LongitudeDegrees>-3.61546277068555355072021484375</LongitudeDegrees>
            </Position>
            <AltitudeMeters>90.59999847412109375</AltitudeMeters>
            <DistanceMeters>NAN</DistanceMeters>
          </Trackpoint>
          <Trackpoint>
            <Time>2022-07-13T12:20:01.000Z</Time>
            <Position>
              <LatitudeDegrees>43.46067731268703937530517578125</LatitudeDegrees>
              <LongitudeDegrees>-3.61560794524848461151123046875</LongitudeDegrees>
            </Position>
            <AltitudeMeters>89.1999969482421875</AltitudeMeters>
            <DistanceMeters>NAN</DistanceMeters>
          </Trackpoint>
          <Trackpoint>
            <Time>2022-07-13T12:20:02.000Z</Time>
            <Position>
              <LatitudeDegrees>43.46059508621692657470703125</LatitudeDegrees>
              <LongitudeDegrees>-3.61569494940340518951416015625</LongitudeDegrees>
            </Position>
            <AltitudeMeters>88</AltitudeMeters>
            <DistanceMeters>NAN</DistanceMeters>
          </Trackpoint>
          <Trackpoint>
            <Time>2022-07-13T12:20:04.000Z</Time>
            <Position>
              <LatitudeDegrees>43.46038277260959148406982421875</LatitudeDegrees>
              <LongitudeDegrees>-3.61589577980339527130126953125</LongitudeDegrees>
            </Position>
            <AltitudeMeters>86.1999969482421875</AltitudeMeters>
            <DistanceMeters>NAN</DistanceMeters>
          </Trackpoint>
          <Trackpoint>
            <Time>2022-07-13T12:20:05.000Z</Time>
            <Position>
              <LatitudeDegrees>43.4602700360119342803955078125</LatitudeDegrees>
              <LongitudeDegrees>-3.61603592522442340850830078125</LongitudeDegrees>
            </Position>
            <AltitudeMeters>85.59999847412109375</AltitudeMeters>
            <DistanceMeters>NAN</DistanceMeters>
          </Trackpoint>
          <Trackpoint>
            <Time>2022-07-13T12:20:06.000Z</Time>
            <Position>
              <LatitudeDegrees>43.46018915064632892608642578125</LatitudeDegrees>
              <LongitudeDegrees>-3.61617506481707096099853515625</LongitudeDegrees>
            </Position>
            <AltitudeMeters>84.40000152587890625</AltitudeMeters>
            <DistanceMeters>NAN</DistanceMeters>
          </Trackpoint>
          <Trackpoint>
            <Time>2022-07-13T12:20:07.000Z</Time>
            <Position>
              <LatitudeDegrees>43.46012410707771778106689453125</LatitudeDegrees>
              <LongitudeDegrees>-3.6163260228931903839111328125</LongitudeDegrees>
            </Position>
            <AltitudeMeters>83.1999969482421875</AltitudeMeters>
            <DistanceMeters>NAN</DistanceMeters>
          </Trackpoint>
          <Trackpoint>
            <Time>2022-07-13T12:20:08.000Z</Time>
            <Position>
              <LatitudeDegrees>43.46009225584566593170166015625</LatitudeDegrees>
              <LongitudeDegrees>-3.61649190075695514678955078125</LongitudeDegrees>
            </Position>
            <AltitudeMeters>82</AltitudeMeters>
            <DistanceMeters>NAN</DistanceMeters>
          </Trackpoint>
          <Trackpoint>
            <Time>2022-07-13T12:20:09.000Z</Time>
            <Position>
              <LatitudeDegrees>43.460097201168537139892578125</LatitudeDegrees>
              <LongitudeDegrees>-3.6166669987142086029052734375</LongitudeDegrees>
            </Position>
            <AltitudeMeters>80.8000030517578125</AltitudeMeters>
            <DistanceMeters>NAN</DistanceMeters>
          </Trackpoint>
          <Trackpoint>
            <Time>2022-07-13T12:20:10.000Z</Time>
            <Position>
              <LatitudeDegrees>43.46012561582028865814208984375</LatitudeDegrees>
              <LongitudeDegrees>-3.616832792758941650390625</LongitudeDegrees>
            </Position>
            <AltitudeMeters>80</AltitudeMeters>
            <DistanceMeters>NAN</DistanceMeters>
          </Trackpoint>
          <Trackpoint>
            <Time>2022-07-13T12:20:11.000Z</Time>
            <Position>
              <LatitudeDegrees>43.46019082702696323394775390625</LatitudeDegrees>
              <LongitudeDegrees>-3.61698006279766559600830078125</LongitudeDegrees>
            </Position>
            <AltitudeMeters>79.40000152587890625</AltitudeMeters>
            <DistanceMeters>NAN</DistanceMeters>
          </Trackpoint>
          <Trackpoint>
            <Time>2022-07-13T12:20:13.000Z</Time>
            <Position>
              <LatitudeDegrees>43.46037304960191249847412109375</LatitudeDegrees>
              <LongitudeDegrees>-3.61722598783671855926513671875</LongitudeDegrees>
            </Position>
            <AltitudeMeters>78.1999969482421875</AltitudeMeters>
            <DistanceMeters>NAN</DistanceMeters>
          </Trackpoint>
          <Trackpoint>
            <Time>2022-07-13T12:20:15.000Z</Time>
            <Position>
              <LatitudeDegrees>43.460572622716426849365234375</LatitudeDegrees>
              <LongitudeDegrees>-3.6173553206026554107666015625</LongitudeDegrees>
            </Position>
            <AltitudeMeters>76.40000152587890625</AltitudeMeters>
            <DistanceMeters>NAN</DistanceMeters>
          </Trackpoint>
          <Trackpoint>
            <Time>2022-07-13T12:20:16.000Z</Time>
            <Position>
              <LatitudeDegrees>43.460650742053985595703125</LatitudeDegrees>
              <LongitudeDegrees>-3.6174082942306995391845703125</LongitudeDegrees>
            </Position>
            <AltitudeMeters>75</AltitudeMeters>
            <DistanceMeters>NAN</DistanceMeters>
          </Trackpoint>
          <Trackpoint>
            <Time>2022-07-13T12:20:17.000Z</Time>
            <Position>
              <LatitudeDegrees>43.46070631407201290130615234375</LatitudeDegrees>
              <LongitudeDegrees>-3.61748046241700649261474609375</LongitudeDegrees>
            </Position>
            <AltitudeMeters>74</AltitudeMeters>
            <DistanceMeters>NAN</DistanceMeters>
          </Trackpoint>
          <Trackpoint>
            <Time>2022-07-13T12:20:18.000Z</Time>
            <Position>
              <LatitudeDegrees>43.460721485316753387451171875</LatitudeDegrees>
              <LongitudeDegrees>-3.61755070276558399200439453125</LongitudeDegrees>
            </Position>
            <AltitudeMeters>73</AltitudeMeters>
            <DistanceMeters>NAN</DistanceMeters>
          </Trackpoint>
          <Trackpoint>
            <Time>2022-07-13T12:20:19.000Z</Time>
            <Position>
              <LatitudeDegrees>43.46072115004062652587890625</LatitudeDegrees>
              <LongitudeDegrees>-3.6176382936537265777587890625</LongitudeDegrees>
            </Position>
            <AltitudeMeters>72.40000152587890625</AltitudeMeters>
            <DistanceMeters>NAN</DistanceMeters>
          </Trackpoint>
          <Trackpoint>
            <Time>2022-07-13T12:20:20.000Z</Time>
            <Position>
              <LatitudeDegrees>43.46067429520189762115478515625</LatitudeDegrees>
              <LongitudeDegrees>-3.61769621260464191436767578125</LongitudeDegrees>
            </Position>
            <AltitudeMeters>71.59999847412109375</AltitudeMeters>
            <DistanceMeters>NAN</DistanceMeters>
          </Trackpoint>
          <Trackpoint>
            <Time>2022-07-13T12:20:21.000Z</Time>
            <Position>
              <LatitudeDegrees>43.4606022946536540985107421875</LatitudeDegrees>
              <LongitudeDegrees>-3.61772387288510799407958984375</LongitudeDegrees>
            </Position>
            <AltitudeMeters>71.1999969482421875</AltitudeMeters>
            <DistanceMeters>NAN</DistanceMeters>
          </Trackpoint>
          <Trackpoint>
            <Time>2022-07-13T12:20:23.000Z</Time>
            <Position>
              <LatitudeDegrees>43.46045251004397869110107421875</LatitudeDegrees>
              <LongitudeDegrees>-3.617712892591953277587890625</LongitudeDegrees>
            </Position>
            <AltitudeMeters>70.8000030517578125</AltitudeMeters>
            <DistanceMeters>NAN</DistanceMeters>
          </Trackpoint>
          <Trackpoint>
            <Time>2022-07-13T12:20:25.000Z</Time>
            <Position>
              <LatitudeDegrees>43.46029308624565601348876953125</LatitudeDegrees>
              <LongitudeDegrees>-3.6176423169672489166259765625</LongitudeDegrees>
            </Position>
            <AltitudeMeters>70.40000152587890625</AltitudeMeters>
            <DistanceMeters>NAN</DistanceMeters>
          </Trackpoint>
          <Trackpoint>
            <Time>2022-07-13T12:20:26.000Z</Time>
            <Position>
              <LatitudeDegrees>43.4602274559438228607177734375</LatitudeDegrees>
              <LongitudeDegrees>-3.61759722232818603515625</LongitudeDegrees>
            </Position>
            <AltitudeMeters>70</AltitudeMeters>
            <DistanceMeters>NAN</DistanceMeters>
          </Trackpoint>
          <Trackpoint>
            <Time>2022-07-13T12:20:27.000Z</Time>
            <Position>
              <LatitudeDegrees>43.460135422646999359130859375</LatitudeDegrees>
              <LongitudeDegrees>-3.6175249703228473663330078125</LongitudeDegrees>
            </Position>
            <AltitudeMeters>69.8000030517578125</AltitudeMeters>
            <DistanceMeters>NAN</DistanceMeters>
          </Trackpoint>
          <Trackpoint>
            <Time>2022-07-13T12:20:29.000Z</Time>
            <Position>
              <LatitudeDegrees>43.4599820338189601898193359375</LatitudeDegrees>
              <LongitudeDegrees>-3.6173881776630878448486328125</LongitudeDegrees>
            </Position>
            <AltitudeMeters>68.40000152587890625</AltitudeMeters>
            <DistanceMeters>NAN</DistanceMeters>
          </Trackpoint>
          <Trackpoint>
            <Time>2022-07-13T12:20:31.000Z</Time>
            <Position>
              <LatitudeDegrees>43.45982068218290805816650390625</LatitudeDegrees>
              <LongitudeDegrees>-3.61724342219531536102294921875</LongitudeDegrees>
            </Position>
            <AltitudeMeters>67.1999969482421875</AltitudeMeters>
            <DistanceMeters>NAN</DistanceMeters>
          </Trackpoint>
          <Trackpoint>
            <Time>2022-07-13T12:20:33.000Z</Time>
            <Position>
              <LatitudeDegrees>43.4596366994082927703857421875</LatitudeDegrees>
              <LongitudeDegrees>-3.61709087155759334564208984375</LongitudeDegrees>
            </Position>
            <AltitudeMeters>66.1999969482421875</AltitudeMeters>
            <DistanceMeters>NAN</DistanceMeters>
          </Trackpoint>
          <Trackpoint>
            <Time>2022-07-13T12:20:34.000Z</Time>
            <Position>
              <LatitudeDegrees>43.4595401398837566375732421875</LatitudeDegrees>
              <LongitudeDegrees>-3.61702163703739643096923828125</LongitudeDegrees>
            </Position>
            <AltitudeMeters>65.8000030517578125</AltitudeMeters>
            <DistanceMeters>NAN</DistanceMeters>
          </Trackpoint>
          <Trackpoint>
            <Time>2022-07-13T12:20:36.000Z</Time>
            <Position>
              <LatitudeDegrees>43.4593242220580577850341796875</LatitudeDegrees>
              <LongitudeDegrees>-3.6169295199215412139892578125</LongitudeDegrees>
            </Position>
            <AltitudeMeters>64.1999969482421875</AltitudeMeters>
            <DistanceMeters>NAN</DistanceMeters>
          </Trackpoint>
          <Trackpoint>
            <Time>2022-07-13T12:20:38.000Z</Time>
            <Position>
              <LatitudeDegrees>43.45908357761800289154052734375</LatitudeDegrees>
              <LongitudeDegrees>-3.61694200895726680755615234375</LongitudeDegrees>
            </Position>
            <AltitudeMeters>63</AltitudeMeters>
            <DistanceMeters>NAN</DistanceMeters>
          </Trackpoint>
          <Trackpoint>
            <Time>2022-07-13T12:20:39.000Z</Time>
            <Position>
              <LatitudeDegrees>43.45897058956325054168701171875</LatitudeDegrees>
              <LongitudeDegrees>-3.61698458902537822723388671875</LongitudeDegrees>
            </Position>
            <AltitudeMeters>62</AltitudeMeters>
            <DistanceMeters>NAN</DistanceMeters>
          </Trackpoint>
          <Trackpoint>
            <Time>2022-07-13T12:20:40.000Z</Time>
            <Position>
              <LatitudeDegrees>43.4588603675365447998046875</LatitudeDegrees>
              <LongitudeDegrees>-3.6170314438641071319580078125</LongitudeDegrees>
            </Position>
            <AltitudeMeters>61.59999847412109375</AltitudeMeters>
            <DistanceMeters>NAN</DistanceMeters>
          </Trackpoint>
          <Trackpoint>
            <Time>2022-07-13T12:20:44.000Z</Time>
            <Position>
              <LatitudeDegrees>43.45848980359733104705810546875</LatitudeDegrees>
              <LongitudeDegrees>-3.61720017157495021820068359375</LongitudeDegrees>
            </Position>
            <AltitudeMeters>60.59999847412109375</AltitudeMeters>
            <DistanceMeters>NAN</DistanceMeters>
          </Trackpoint>
          <Trackpoint>
            <Time>2022-07-13T12:20:48.000Z</Time>
            <Position>
              <LatitudeDegrees>43.4582349099218845367431640625</LatitudeDegrees>
              <LongitudeDegrees>-3.61732606776058673858642578125</LongitudeDegrees>
            </Position>
            <AltitudeMeters>61.40000152587890625</AltitudeMeters>
            <DistanceMeters>NAN</DistanceMeters>
          </Trackpoint>
          <Trackpoint>
            <Time>2022-07-13T12:20:52.000Z</Time>
            <Position>
              <LatitudeDegrees>43.45808009617030620574951171875</LatitudeDegrees>
              <LongitudeDegrees>-3.61742229200899600982666015625</LongitudeDegrees>
            </Position>
            <AltitudeMeters>62.799999237060546875</AltitudeMeters>
            <DistanceMeters>NAN</DistanceMeters>
          </Trackpoint>
          <Trackpoint>
            <Time>2022-07-13T12:20:56.000Z</Time>
            <Position>
              <LatitudeDegrees>43.4580089338123798370361328125</LatitudeDegrees>
              <LongitudeDegrees>-3.61753678880631923675537109375</LongitudeDegrees>
            </Position>
            <AltitudeMeters>64</AltitudeMeters>
            <DistanceMeters>NAN</DistanceMeters>
          </Trackpoint>
          <Trackpoint>
            <Time>2022-07-13T12:20:57.000Z</Time>
            <Position>
              <LatitudeDegrees>43.457999043166637420654296875</LatitudeDegrees>
              <LongitudeDegrees>-3.61756143160164356231689453125</LongitudeDegrees>
            </Position>
            <AltitudeMeters>64.1999969482421875</AltitudeMeters>
            <DistanceMeters>NAN</DistanceMeters>
          </Trackpoint>
          <Trackpoint>
            <Time>2022-07-13T12:21:03.000Z</Time>
            <Position>
              <LatitudeDegrees>43.45799828879535198211669921875</LatitudeDegrees>
              <LongitudeDegrees>-3.6177120544016361236572265625</LongitudeDegrees>
            </Position>
            <AltitudeMeters>65</AltitudeMeters>
            <DistanceMeters>NAN</DistanceMeters>
          </Trackpoint>
          <Trackpoint>
            <Time>2022-07-13T12:21:09.000Z</Time>
            <Position>
              <LatitudeDegrees>43.4580940939486026763916015625</LatitudeDegrees>
              <LongitudeDegrees>-3.6178703047335147857666015625</LongitudeDegrees>
            </Position>
            <AltitudeMeters>65.40000152587890625</AltitudeMeters>
            <DistanceMeters>NAN</DistanceMeters>
          </Trackpoint>
          <Trackpoint>
            <Time>2022-07-13T12:21:11.000Z</Time>
            <Position>
              <LatitudeDegrees>43.458134829998016357421875</LatitudeDegrees>
              <LongitudeDegrees>-3.61791347153484821319580078125</LongitudeDegrees>
            </Position>
            <AltitudeMeters>65.59999847412109375</AltitudeMeters>
            <DistanceMeters>NAN</DistanceMeters>
          </Trackpoint>
          <Trackpoint>
            <Time>2022-07-13T12:21:14.000Z</Time>
            <Position>
              <LatitudeDegrees>43.45821085385978221893310546875</LatitudeDegrees>
              <LongitudeDegrees>-3.617981784045696258544921875</LongitudeDegrees>
            </Position>
            <AltitudeMeters>65.8000030517578125</AltitudeMeters>
            <DistanceMeters>NAN</DistanceMeters>
          </Trackpoint>
          <Trackpoint>
            <Time>2022-07-13T12:21:17.000Z</Time>
            <Position>
              <LatitudeDegrees>43.4582751430571079254150390625</LatitudeDegrees>
              <LongitudeDegrees>-3.6180332489311695098876953125</LongitudeDegrees>
            </Position>
            <AltitudeMeters>66</AltitudeMeters>
            <DistanceMeters>NAN</DistanceMeters>
          </Trackpoint>
          <Trackpoint>
            <Time>2022-07-13T12:21:21.000Z</Time>
            <Position>
              <LatitudeDegrees>43.4583629854023456573486328125</LatitudeDegrees>
              <LongitudeDegrees>-3.61811161972582340240478515625</LongitudeDegrees>
            </Position>
            <AltitudeMeters>66.40000152587890625</AltitudeMeters>
            <DistanceMeters>NAN</DistanceMeters>
          </Trackpoint>
          <Trackpoint>
            <Time>2022-07-13T12:21:25.000Z</Time>
            <Position>
              <LatitudeDegrees>43.45843364484608173370361328125</LatitudeDegrees>
              <LongitudeDegrees>-3.618201725184917449951171875</LongitudeDegrees>
            </Position>
            <AltitudeMeters>66.8000030517578125</AltitudeMeters>
            <DistanceMeters>NAN</DistanceMeters>
          </Trackpoint>
          <Trackpoint>
            <Time>2022-07-13T12:21:28.000Z</Time>
            <Position>
              <LatitudeDegrees>43.45848494209349155426025390625</LatitudeDegrees>
              <LongitudeDegrees>-3.6182878911495208740234375</LongitudeDegrees>
            </Position>
            <AltitudeMeters>67</AltitudeMeters>
            <DistanceMeters>NAN</DistanceMeters>
          </Trackpoint>
          <Trackpoint>
            <Time>2022-07-13T12:21:31.000Z</Time>
            <Position>
              <LatitudeDegrees>43.45853355713188648223876953125</LatitudeDegrees>
              <LongitudeDegrees>-3.61837347038090229034423828125</LongitudeDegrees>
            </Position>
            <AltitudeMeters>67</AltitudeMeters>
            <DistanceMeters>NAN</DistanceMeters>
          </Trackpoint>
          <Trackpoint>
            <Time>2022-07-13T12:21:32.000Z</Time>
            <Position>
              <LatitudeDegrees>43.45854730345308780670166015625</LatitudeDegrees>
              <LongitudeDegrees>-3.61840364523231983184814453125</LongitudeDegrees>
            </Position>
            <AltitudeMeters>67</AltitudeMeters>
            <DistanceMeters>NAN</DistanceMeters>
          </Trackpoint>
          <Trackpoint>
            <Time>2022-07-13T12:21:36.000Z</Time>
            <Position>
              <LatitudeDegrees>43.45859256573021411895751953125</LatitudeDegrees>
              <LongitudeDegrees>-3.6185438744723796844482421875</LongitudeDegrees>
            </Position>
            <AltitudeMeters>67.40000152587890625</AltitudeMeters>
            <DistanceMeters>NAN</DistanceMeters>
          </Trackpoint>
          <Trackpoint>
            <Time>2022-07-13T12:21:39.000Z</Time>
            <Position>
              <LatitudeDegrees>43.458623997867107391357421875</LatitudeDegrees>
              <LongitudeDegrees>-3.6186397634446620941162109375</LongitudeDegrees>
            </Position>
            <AltitudeMeters>67.59999847412109375</AltitudeMeters>
            <DistanceMeters>NAN</DistanceMeters>
          </Trackpoint>
          <Trackpoint>
            <Time>2022-07-13T12:21:45.000Z</Time>
            <Position>
              <LatitudeDegrees>43.4586902149021625518798828125</LatitudeDegrees>
              <LongitudeDegrees>-3.6188940703868865966796875</LongitudeDegrees>
            </Position>
            <AltitudeMeters>67</AltitudeMeters>
            <DistanceMeters>NAN</DistanceMeters>
          </Trackpoint>
          <Trackpoint>
            <Time>2022-07-13T12:21:50.000Z</Time>
            <Position>
              <LatitudeDegrees>43.4587696753442287445068359375</LatitudeDegrees>
              <LongitudeDegrees>-3.61916405148804187774658203125</LongitudeDegrees>
            </Position>
            <AltitudeMeters>66.1999969482421875</AltitudeMeters>
            <DistanceMeters>NAN</DistanceMeters>
          </Trackpoint>
          <Trackpoint>
            <Time>2022-07-13T12:21:51.000Z</Time>
            <Position>
              <LatitudeDegrees>43.45878853462636470794677734375</LatitudeDegrees>
              <LongitudeDegrees>-3.61923404037952423095703125</LongitudeDegrees>
            </Position>
            <AltitudeMeters>66</AltitudeMeters>
            <DistanceMeters>NAN</DistanceMeters>
          </Trackpoint>
          <Trackpoint>
            <Time>2022-07-13T12:21:55.000Z</Time>
            <Position>
              <LatitudeDegrees>43.45886774361133575439453125</LatitudeDegrees>
              <LongitudeDegrees>-3.6195512115955352783203125</LongitudeDegrees>
            </Position>
            <AltitudeMeters>65</AltitudeMeters>
            <DistanceMeters>NAN</DistanceMeters>
          </Trackpoint>
          <Trackpoint>
            <Time>2022-07-13T12:21:59.000Z</Time>
            <Position>
              <LatitudeDegrees>43.4589534066617488861083984375</LatitudeDegrees>
              <LongitudeDegrees>-3.6198993958532810211181640625</LongitudeDegrees>
            </Position>
            <AltitudeMeters>63.40000152587890625</AltitudeMeters>
            <DistanceMeters>NAN</DistanceMeters>
          </Trackpoint>
          <Trackpoint>
            <Time>2022-07-13T12:22:00.000Z</Time>
            <Position>
              <LatitudeDegrees>43.45899037085473537445068359375</LatitudeDegrees>
              <LongitudeDegrees>-3.62001783214509487152099609375</LongitudeDegrees>
            </Position>
            <AltitudeMeters>63</AltitudeMeters>
            <DistanceMeters>NAN</DistanceMeters>
          </Trackpoint>
          <Trackpoint>
            <Time>2022-07-13T12:22:04.000Z</Time>
            <Position>
              <LatitudeDegrees>43.4591419994831085205078125</LatitudeDegrees>
              <LongitudeDegrees>-3.62039334140717983245849609375</LongitudeDegrees>
            </Position>
            <AltitudeMeters>62.40000152587890625</AltitudeMeters>
            <DistanceMeters>NAN</DistanceMeters>
          </Trackpoint>
          <Trackpoint>
            <Time>2022-07-13T12:22:05.000Z</Time>
            <Position>
              <LatitudeDegrees>43.4591978229582309722900390625</LatitudeDegrees>
              <LongitudeDegrees>-3.62051119096577167510986328125</LongitudeDegrees>
            </Position>
            <AltitudeMeters>62.200000762939453125</AltitudeMeters>
            <DistanceMeters>NAN</DistanceMeters>
          </Trackpoint>
          <Trackpoint>
            <Time>2022-07-13T12:22:10.000Z</Time>
            <Position>
              <LatitudeDegrees>43.45944936387240886688232421875</LatitudeDegrees>
              <LongitudeDegrees>-3.62101946957409381866455078125</LongitudeDegrees>
            </Position>
            <AltitudeMeters>60.799999237060546875</AltitudeMeters>
            <DistanceMeters>NAN</DistanceMeters>
          </Trackpoint>
          <Trackpoint>
            <Time>2022-07-13T12:22:11.000Z</Time>
            <Position>
              <LatitudeDegrees>43.4594824723899364471435546875</LatitudeDegrees>
              <LongitudeDegrees>-3.6211318708956241607666015625</LongitudeDegrees>
            </Position>
            <AltitudeMeters>60.40000152587890625</AltitudeMeters>
            <DistanceMeters>NAN</DistanceMeters>
          </Trackpoint>
          <Trackpoint>
            <Time>2022-07-13T12:22:12.000Z</Time>
            <Position>
              <LatitudeDegrees>43.45951206050813198089599609375</LatitudeDegrees>
              <LongitudeDegrees>-3.62124594859778881072998046875</LongitudeDegrees>
            </Position>
            <AltitudeMeters>59.799999237060546875</AltitudeMeters>
            <DistanceMeters>NAN</DistanceMeters>
          </Trackpoint>
          <Trackpoint>
            <Time>2022-07-13T12:22:17.000Z</Time>
            <Position>
              <LatitudeDegrees>43.45962940715253353118896484375</LatitudeDegrees>
              <LongitudeDegrees>-3.621787168085575103759765625</LongitudeDegrees>
            </Position>
            <AltitudeMeters>59.200000762939453125</AltitudeMeters>
            <DistanceMeters>NAN</DistanceMeters>
          </Trackpoint>
          <Trackpoint>
            <Time>2022-07-13T12:22:21.000Z</Time>
            <Position>
              <LatitudeDegrees>43.459721691906452178955078125</LatitudeDegrees>
              <LongitudeDegrees>-3.6221516132354736328125</LongitudeDegrees>
            </Position>
            <AltitudeMeters>59.40000152587890625</AltitudeMeters>
            <DistanceMeters>NAN</DistanceMeters>
          </Trackpoint>
          <Trackpoint>
            <Time>2022-07-13T12:22:23.000Z</Time>
            <Position>
              <LatitudeDegrees>43.45976720564067363739013671875</LatitudeDegrees>
              <LongitudeDegrees>-3.6222976259887218475341796875</LongitudeDegrees>
            </Position>
            <AltitudeMeters>59.40000152587890625</AltitudeMeters>
            <DistanceMeters>NAN</DistanceMeters>
          </Trackpoint>
          <Trackpoint>
            <Time>2022-07-13T12:22:26.000Z</Time>
            <Position>
              <LatitudeDegrees>43.45984649844467639923095703125</LatitudeDegrees>
              <LongitudeDegrees>-3.62254531122744083404541015625</LongitudeDegrees>
            </Position>
            <AltitudeMeters>59.40000152587890625</AltitudeMeters>
            <DistanceMeters>NAN</DistanceMeters>
          </Trackpoint>
          <Trackpoint>
            <Time>2022-07-13T12:22:29.000Z</Time>
            <Position>
              <LatitudeDegrees>43.45991590060293674468994140625</LatitudeDegrees>
              <LongitudeDegrees>-3.622762821614742279052734375</LongitudeDegrees>
            </Position>
            <AltitudeMeters>59.200000762939453125</AltitudeMeters>
            <DistanceMeters>NAN</DistanceMeters>
          </Trackpoint>
          <Trackpoint>
            <Time>2022-07-13T12:22:30.000Z</Time>
            <Position>
              <LatitudeDegrees>43.4599391184747219085693359375</LatitudeDegrees>
              <LongitudeDegrees>-3.62283515743911266326904296875</LongitudeDegrees>
            </Position>
            <AltitudeMeters>59.200000762939453125</AltitudeMeters>
            <DistanceMeters>NAN</DistanceMeters>
          </Trackpoint>
          <Trackpoint>
            <Time>2022-07-13T12:22:31.000Z</Time>
            <Position>
              <LatitudeDegrees>43.4599615819752216339111328125</LatitudeDegrees>
              <LongitudeDegrees>-3.62290573306381702423095703125</LongitudeDegrees>
            </Position>
            <AltitudeMeters>59.200000762939453125</AltitudeMeters>
            <DistanceMeters>NAN</DistanceMeters>
          </Trackpoint>
          <Trackpoint>
            <Time>2022-07-13T12:22:34.000Z</Time>
            <Position>
              <LatitudeDegrees>43.4600249491631984710693359375</LatitudeDegrees>
              <LongitudeDegrees>-3.62311511300504207611083984375</LongitudeDegrees>
            </Position>
            <AltitudeMeters>59.40000152587890625</AltitudeMeters>
            <DistanceMeters>NAN</DistanceMeters>
          </Trackpoint>
          <Trackpoint>
            <Time>2022-07-13T12:22:36.000Z</Time>
            <Position>
              <LatitudeDegrees>43.4600619971752166748046875</LatitudeDegrees>
              <LongitudeDegrees>-3.62323799170553684234619140625</LongitudeDegrees>
            </Position>
            <AltitudeMeters>59.59999847412109375</AltitudeMeters>
            <DistanceMeters>NAN</DistanceMeters>
          </Trackpoint>
          <Trackpoint>
            <Time>2022-07-13T12:22:38.000Z</Time>
            <Position>
              <LatitudeDegrees>43.46008487977087497711181640625</LatitudeDegrees>
              <LongitudeDegrees>-3.62335198558866977691650390625</LongitudeDegrees>
            </Position>
            <AltitudeMeters>59.40000152587890625</AltitudeMeters>
            <DistanceMeters>NAN</DistanceMeters>
          </Trackpoint>
          <Trackpoint>
            <Time>2022-07-13T12:22:42.000Z</Time>
            <Position>
              <LatitudeDegrees>43.46013383008539676666259765625</LatitudeDegrees>
              <LongitudeDegrees>-3.623627163469791412353515625</LongitudeDegrees>
            </Position>
            <AltitudeMeters>59</AltitudeMeters>
            <DistanceMeters>NAN</DistanceMeters>
          </Trackpoint>
          <Trackpoint>
            <Time>2022-07-13T12:22:45.000Z</Time>
            <Position>
              <LatitudeDegrees>43.46017993055284023284912109375</LatitudeDegrees>
              <LongitudeDegrees>-3.62388675101101398468017578125</LongitudeDegrees>
            </Position>
            <AltitudeMeters>58.799999237060546875</AltitudeMeters>
            <DistanceMeters>NAN</DistanceMeters>
          </Trackpoint>
          <Trackpoint>
            <Time>2022-07-13T12:22:46.000Z</Time>
            <Position>
              <LatitudeDegrees>43.46019468270242214202880859375</LatitudeDegrees>
              <LongitudeDegrees>-3.62395447678864002227783203125</LongitudeDegrees>
            </Position>
            <AltitudeMeters>58.799999237060546875</AltitudeMeters>
            <DistanceMeters>NAN</DistanceMeters>
          </Trackpoint>
          <Trackpoint>
            <Time>2022-07-13T12:22:50.000Z</Time>
            <Position>
              <LatitudeDegrees>43.460257463157176971435546875</LatitudeDegrees>
              <LongitudeDegrees>-3.6243035830557346343994140625</LongitudeDegrees>
            </Position>
            <AltitudeMeters>58.40000152587890625</AltitudeMeters>
            <DistanceMeters>NAN</DistanceMeters>
          </Trackpoint>
          <Trackpoint>
            <Time>2022-07-13T12:22:52.000Z</Time>
            <Position>
              <LatitudeDegrees>43.46027724444866180419921875</LatitudeDegrees>
              <LongitudeDegrees>-3.6244393698871135711669921875</LongitudeDegrees>
            </Position>
            <AltitudeMeters>58.40000152587890625</AltitudeMeters>
            <DistanceMeters>NAN</DistanceMeters>
          </Trackpoint>
          <Trackpoint>
            <Time>2022-07-13T12:22:54.000Z</Time>
            <Position>
              <LatitudeDegrees>43.460290320217609405517578125</LatitudeDegrees>
              <LongitudeDegrees>-3.6245788447558879852294921875</LongitudeDegrees>
            </Position>
            <AltitudeMeters>58.59999847412109375</AltitudeMeters>
            <DistanceMeters>NAN</DistanceMeters>
          </Trackpoint>
          <Trackpoint>
            <Time>2022-07-13T12:22:57.000Z</Time>
            <Position>
              <LatitudeDegrees>43.46028956584632396697998046875</LatitudeDegrees>
              <LongitudeDegrees>-3.6247240193188190460205078125</LongitudeDegrees>
            </Position>
            <AltitudeMeters>59</AltitudeMeters>
            <DistanceMeters>NAN</DistanceMeters>
          </Trackpoint>
          <Trackpoint>
            <Time>2022-07-13T12:23:03.000Z</Time>
            <Position>
              <LatitudeDegrees>43.46026517450809478759765625</LatitudeDegrees>
              <LongitudeDegrees>-3.62499249167740345001220703125</LongitudeDegrees>
            </Position>
            <AltitudeMeters>60</AltitudeMeters>
            <DistanceMeters>NAN</DistanceMeters>
          </Trackpoint>
          <Trackpoint>
            <Time>2022-07-13T12:23:04.000Z</Time>
            <Position>
              <LatitudeDegrees>43.4602551162242889404296875</LatitudeDegrees>
              <LongitudeDegrees>-3.6250318028032779693603515625</LongitudeDegrees>
            </Position>
            <AltitudeMeters>60.200000762939453125</AltitudeMeters>
            <DistanceMeters>NAN</DistanceMeters>
          </Trackpoint>
          <Trackpoint>
            <Time>2022-07-13T12:23:10.000Z</Time>
            <Position>
              <LatitudeDegrees>43.460169620811939239501953125</LatitudeDegrees>
              <LongitudeDegrees>-3.62527680583298206329345703125</LongitudeDegrees>
            </Position>
            <AltitudeMeters>60</AltitudeMeters>
            <DistanceMeters>NAN</DistanceMeters>
          </Trackpoint>
          <Trackpoint>
            <Time>2022-07-13T12:23:17.000Z</Time>
            <Position>
              <LatitudeDegrees>43.4600014798343181610107421875</LatitudeDegrees>
              <LongitudeDegrees>-3.62557956017553806304931640625</LongitudeDegrees>
            </Position>
            <AltitudeMeters>59.40000152587890625</AltitudeMeters>
            <DistanceMeters>NAN</DistanceMeters>
          </Trackpoint>
          <Trackpoint>
            <Time>2022-07-13T12:23:19.000Z</Time>
            <Position>
              <LatitudeDegrees>43.45991388894617557525634765625</LatitudeDegrees>
              <LongitudeDegrees>-3.62570478580892086029052734375</LongitudeDegrees>
            </Position>
            <AltitudeMeters>58.799999237060546875</AltitudeMeters>
            <DistanceMeters>NAN</DistanceMeters>
          </Trackpoint>
          <Trackpoint>
            <Time>2022-07-13T12:23:21.000Z</Time>
            <Position>
              <LatitudeDegrees>43.4598219394683837890625</LatitudeDegrees>
              <LongitudeDegrees>-3.6258327774703502655029296875</LongitudeDegrees>
            </Position>
            <AltitudeMeters>58.200000762939453125</AltitudeMeters>
            <DistanceMeters>NAN</DistanceMeters>
          </Trackpoint>
          <Trackpoint>
            <Time>2022-07-13T12:23:22.000Z</Time>
            <Position>
              <LatitudeDegrees>43.4597530402243137359619140625</LatitudeDegrees>
              <LongitudeDegrees>-3.62592472694814205169677734375</LongitudeDegrees>
            </Position>
            <AltitudeMeters>57.59999847412109375</AltitudeMeters>
            <DistanceMeters>NAN</DistanceMeters>
          </Trackpoint>
          <Trackpoint>
            <Time>2022-07-13T12:23:25.000Z</Time>
            <Position>
              <LatitudeDegrees>43.4595780260860919952392578125</LatitudeDegrees>
              <LongitudeDegrees>-3.62617618404328823089599609375</LongitudeDegrees>
            </Position>
            <AltitudeMeters>56.40000152587890625</AltitudeMeters>
            <DistanceMeters>NAN</DistanceMeters>
          </Trackpoint>
          <Trackpoint>
            <Time>2022-07-13T12:23:27.000Z</Time>
            <Position>
              <LatitudeDegrees>43.4594368748366832733154296875</LatitudeDegrees>
              <LongitudeDegrees>-3.626371733844280242919921875</LongitudeDegrees>
            </Position>
            <AltitudeMeters>55</AltitudeMeters>
            <DistanceMeters>NAN</DistanceMeters>
          </Trackpoint>
          <Trackpoint>
            <Time>2022-07-13T12:23:29.000Z</Time>
            <Position>
              <LatitudeDegrees>43.459293209016323089599609375</LatitudeDegrees>
              <LongitudeDegrees>-3.6265935190021991729736328125</LongitudeDegrees>
            </Position>
            <AltitudeMeters>54.59999847412109375</AltitudeMeters>
            <DistanceMeters>NAN</DistanceMeters>
          </Trackpoint>
          <Trackpoint>
            <Time>2022-07-13T12:23:33.000Z</Time>
            <Position>
              <LatitudeDegrees>43.45908709801733493804931640625</LatitudeDegrees>
              <LongitudeDegrees>-3.62695570103824138641357421875</LongitudeDegrees>
            </Position>
            <AltitudeMeters>54.59999847412109375</AltitudeMeters>
            <DistanceMeters>NAN</DistanceMeters>
          </Trackpoint>
          <Trackpoint>
            <Time>2022-07-13T12:23:34.000Z</Time>
            <Position>
              <LatitudeDegrees>43.45905876718461513519287109375</LatitudeDegrees>
              <LongitudeDegrees>-3.62702560611069202423095703125</LongitudeDegrees>
            </Position>
            <AltitudeMeters>54.59999847412109375</AltitudeMeters>
            <DistanceMeters>NAN</DistanceMeters>
          </Trackpoint>
          <Trackpoint>
            <Time>2022-07-13T12:23:37.000Z</Time>
            <Position>
              <LatitudeDegrees>43.45897712744772434234619140625</LatitudeDegrees>
              <LongitudeDegrees>-3.62729935906827449798583984375</LongitudeDegrees>
            </Position>
            <AltitudeMeters>54.200000762939453125</AltitudeMeters>
            <DistanceMeters>NAN</DistanceMeters>
          </Trackpoint>
          <Trackpoint>
            <Time>2022-07-13T12:23:38.000Z</Time>
            <Position>
              <LatitudeDegrees>43.4589627943933010101318359375</LatitudeDegrees>
              <LongitudeDegrees>-3.6273958347737789154052734375</LongitudeDegrees>
            </Position>
            <AltitudeMeters>54.200000762939453125</AltitudeMeters>
            <DistanceMeters>NAN</DistanceMeters>
          </Trackpoint>
          <Trackpoint>
            <Time>2022-07-13T12:23:39.000Z</Time>
            <Position>
              <LatitudeDegrees>43.45895634032785892486572265625</LatitudeDegrees>
              <LongitudeDegrees>-3.6274920590221881866455078125</LongitudeDegrees>
            </Position>
            <AltitudeMeters>54.200000762939453125</AltitudeMeters>
            <DistanceMeters>NAN</DistanceMeters>
          </Trackpoint>
          <Trackpoint>
            <Time>2022-07-13T12:23:42.000Z</Time>
            <Position>
              <LatitudeDegrees>43.4589668177068233489990234375</LatitudeDegrees>
              <LongitudeDegrees>-3.627791963517665863037109375</LongitudeDegrees>
            </Position>
            <AltitudeMeters>54</AltitudeMeters>
            <DistanceMeters>NAN</DistanceMeters>
          </Trackpoint>
          <Trackpoint>
            <Time>2022-07-13T12:23:43.000Z</Time>
            <Position>
              <LatitudeDegrees>43.45897243358194828033447265625</LatitudeDegrees>
              <LongitudeDegrees>-3.6279108189046382904052734375</LongitudeDegrees>
            </Position>
            <AltitudeMeters>54</AltitudeMeters>
            <DistanceMeters>NAN</DistanceMeters>
          </Trackpoint>
          <Trackpoint>
            <Time>2022-07-13T12:23:48.000Z</Time>
            <Position>
              <LatitudeDegrees>43.45897427760064601898193359375</LatitudeDegrees>
              <LongitudeDegrees>-3.628340475261211395263671875</LongitudeDegrees>
            </Position>
            <AltitudeMeters>53</AltitudeMeters>
            <DistanceMeters>NAN</DistanceMeters>
          </Trackpoint>
          <Trackpoint>
            <Time>2022-07-13T12:23:49.000Z</Time>
            <Position>
              <LatitudeDegrees>43.45896153710782527923583984375</LatitudeDegrees>
              <LongitudeDegrees>-3.6283917725086212158203125</LongitudeDegrees>
            </Position>
            <AltitudeMeters>53</AltitudeMeters>
            <DistanceMeters>NAN</DistanceMeters>
          </Trackpoint>
          <Trackpoint>
            <Time>2022-07-13T12:23:50.000Z</Time>
            <Position>
              <LatitudeDegrees>43.45894158817827701568603515625</LatitudeDegrees>
              <LongitudeDegrees>-3.6284576542675495147705078125</LongitudeDegrees>
            </Position>
            <AltitudeMeters>52.799999237060546875</AltitudeMeters>
            <DistanceMeters>NAN</DistanceMeters>
          </Trackpoint>
          <Trackpoint>
            <Time>2022-07-13T12:23:54.000Z</Time>
            <Position>
              <LatitudeDegrees>43.45881787128746509552001953125</LatitudeDegrees>
              <LongitudeDegrees>-3.6287379451096057891845703125</LongitudeDegrees>
            </Position>
            <AltitudeMeters>52</AltitudeMeters>
            <DistanceMeters>NAN</DistanceMeters>
          </Trackpoint>
          <Trackpoint>
            <Time>2022-07-13T12:23:55.000Z</Time>
            <Position>
              <LatitudeDegrees>43.45878166146576404571533203125</LatitudeDegrees>
              <LongitudeDegrees>-3.6288150586187839508056640625</LongitudeDegrees>
            </Position>
            <AltitudeMeters>51.40000152587890625</AltitudeMeters>
            <DistanceMeters>NAN</DistanceMeters>
          </Trackpoint>
          <Trackpoint>
            <Time>2022-07-13T12:23:58.000Z</Time>
            <Position>
              <LatitudeDegrees>43.45865978859364986419677734375</LatitudeDegrees>
              <LongitudeDegrees>-3.6290906555950641632080078125</LongitudeDegrees>
            </Position>
            <AltitudeMeters>50</AltitudeMeters>
            <DistanceMeters>NAN</DistanceMeters>
          </Trackpoint>
          <Trackpoint>
            <Time>2022-07-13T12:24:00.000Z</Time>
            <Position>
              <LatitudeDegrees>43.4585916437208652496337890625</LatitudeDegrees>
              <LongitudeDegrees>-3.6292532645165920257568359375</LongitudeDegrees>
            </Position>
            <AltitudeMeters>49.40000152587890625</AltitudeMeters>
            <DistanceMeters>NAN</DistanceMeters>
          </Trackpoint>
          <Trackpoint>
            <Time>2022-07-13T12:24:02.000Z</Time>
            <Position>
              <LatitudeDegrees>43.45851981081068515777587890625</LatitudeDegrees>
              <LongitudeDegrees>-3.62943037413060665130615234375</LongitudeDegrees>
            </Position>
            <AltitudeMeters>48.799999237060546875</AltitudeMeters>
            <DistanceMeters>NAN</DistanceMeters>
          </Trackpoint>
          <Trackpoint>
            <Time>2022-07-13T12:24:06.000Z</Time>
            <Position>
              <LatitudeDegrees>43.45839299261569976806640625</LatitudeDegrees>
              <LongitudeDegrees>-3.6298057995736598968505859375</LongitudeDegrees>
            </Position>
            <AltitudeMeters>47.40000152587890625</AltitudeMeters>
            <DistanceMeters>NAN</DistanceMeters>
          </Trackpoint>
          <Trackpoint>
            <Time>2022-07-13T12:24:07.000Z</Time>
            <Position>
              <LatitudeDegrees>43.4583599679172039031982421875</LatitudeDegrees>
              <LongitudeDegrees>-3.62989850342273712158203125</LongitudeDegrees>
            </Position>
            <AltitudeMeters>47</AltitudeMeters>
            <DistanceMeters>NAN</DistanceMeters>
          </Trackpoint>
          <Trackpoint>
            <Time>2022-07-13T12:24:11.000Z</Time>
            <Position>
              <LatitudeDegrees>43.45824287272989749908447265625</LatitudeDegrees>
              <LongitudeDegrees>-3.630250878632068634033203125</LongitudeDegrees>
            </Position>
            <AltitudeMeters>46.40000152587890625</AltitudeMeters>
            <DistanceMeters>NAN</DistanceMeters>
          </Trackpoint>
          <Trackpoint>
            <Time>2022-07-13T12:24:12.000Z</Time>
            <Position>
              <LatitudeDegrees>43.45821051858365535736083984375</LatitudeDegrees>
              <LongitudeDegrees>-3.6303274892270565032958984375</LongitudeDegrees>
            </Position>
            <AltitudeMeters>46.40000152587890625</AltitudeMeters>
            <DistanceMeters>NAN</DistanceMeters>
          </Trackpoint>
          <Trackpoint>
            <Time>2022-07-13T12:24:14.000Z</Time>
            <Position>
              <LatitudeDegrees>43.45813742838799953460693359375</LatitudeDegrees>
              <LongitudeDegrees>-3.63047383725643157958984375</LongitudeDegrees>
            </Position>
            <AltitudeMeters>46.40000152587890625</AltitudeMeters>
            <DistanceMeters>NAN</DistanceMeters>
          </Trackpoint>
          <Trackpoint>
            <Time>2022-07-13T12:24:17.000Z</Time>
            <Position>
              <LatitudeDegrees>43.45797850750386714935302734375</LatitudeDegrees>
              <LongitudeDegrees>-3.63063636235892772674560546875</LongitudeDegrees>
            </Position>
            <AltitudeMeters>46.200000762939453125</AltitudeMeters>
            <DistanceMeters>NAN</DistanceMeters>
          </Trackpoint>
          <Trackpoint>
            <Time>2022-07-13T12:24:18.000Z</Time>
            <Position>
              <LatitudeDegrees>43.457922600209712982177734375</LatitudeDegrees>
              <LongitudeDegrees>-3.63068841397762298583984375</LongitudeDegrees>
            </Position>
            <AltitudeMeters>46</AltitudeMeters>
            <DistanceMeters>NAN</DistanceMeters>
          </Trackpoint>
          <Trackpoint>
            <Time>2022-07-13T12:24:20.000Z</Time>
            <Position>
              <LatitudeDegrees>43.45781229436397552490234375</LatitudeDegrees>
              <LongitudeDegrees>-3.6308003962039947509765625</LongitudeDegrees>
            </Position>
            <AltitudeMeters>45.799999237060546875</AltitudeMeters>
            <DistanceMeters>NAN</DistanceMeters>
          </Trackpoint>
          <Trackpoint>
            <Time>2022-07-13T12:24:23.000Z</Time>
            <Position>
              <LatitudeDegrees>43.45763887278735637664794921875</LatitudeDegrees>
              <LongitudeDegrees>-3.63097230903804302215576171875</LongitudeDegrees>
            </Position>
            <AltitudeMeters>45.200000762939453125</AltitudeMeters>
            <DistanceMeters>NAN</DistanceMeters>
          </Trackpoint>
          <Trackpoint>
            <Time>2022-07-13T12:24:28.000Z</Time>
            <Position>
              <LatitudeDegrees>43.45736436545848846435546875</LatitudeDegrees>
              <LongitudeDegrees>-3.63125712610781192779541015625</LongitudeDegrees>
            </Position>
            <AltitudeMeters>44.59999847412109375</AltitudeMeters>
            <DistanceMeters>NAN</DistanceMeters>
          </Trackpoint>
          <Trackpoint>
            <Time>2022-07-13T12:24:31.000Z</Time>
            <Position>
              <LatitudeDegrees>43.45728247426450252532958984375</LatitudeDegrees>
              <LongitudeDegrees>-3.6313326470553874969482421875</LongitudeDegrees>
            </Position>
            <AltitudeMeters>44.59999847412109375</AltitudeMeters>
            <DistanceMeters>NAN</DistanceMeters>
          </Trackpoint>
          <Trackpoint>
            <Time>2022-07-13T12:24:34.000Z</Time>
            <Position>
              <LatitudeDegrees>43.45726554282009601593017578125</LatitudeDegrees>
              <LongitudeDegrees>-3.6313368380069732666015625</LongitudeDegrees>
            </Position>
            <AltitudeMeters>44.799999237060546875</AltitudeMeters>
            <DistanceMeters>NAN</DistanceMeters>
          </Trackpoint>
          <Trackpoint>
            <Time>2022-07-13T12:24:42.000Z</Time>
            <Position>
              <LatitudeDegrees>43.457253389060497283935546875</LatitudeDegrees>
              <LongitudeDegrees>-3.6313876323401927947998046875</LongitudeDegrees>
            </Position>
            <AltitudeMeters>45.59999847412109375</AltitudeMeters>
            <DistanceMeters>NAN</DistanceMeters>
          </Trackpoint>
          <Trackpoint>
            <Time>2022-07-13T12:24:43.000Z</Time>
            <Position>
              <LatitudeDegrees>43.4572525508701801300048828125</LatitudeDegrees>
              <LongitudeDegrees>-3.631416969001293182373046875</LongitudeDegrees>
            </Position>
            <AltitudeMeters>45.799999237060546875</AltitudeMeters>
            <DistanceMeters>NAN</DistanceMeters>
          </Trackpoint>
          <Trackpoint>
            <Time>2022-07-13T12:24:44.000Z</Time>
            <Position>
              <LatitudeDegrees>43.45724877901375293731689453125</LatitudeDegrees>
              <LongitudeDegrees>-3.631446473300457000732421875</LongitudeDegrees>
            </Position>
            <AltitudeMeters>45.799999237060546875</AltitudeMeters>
            <DistanceMeters>NAN</DistanceMeters>
          </Trackpoint>
          <Trackpoint>
            <Time>2022-07-13T12:24:50.000Z</Time>
            <Position>
              <LatitudeDegrees>43.457201421260833740234375</LatitudeDegrees>
              <LongitudeDegrees>-3.6316327191889286041259765625</LongitudeDegrees>
            </Position>
            <AltitudeMeters>46.200000762939453125</AltitudeMeters>
            <DistanceMeters>NAN</DistanceMeters>
          </Trackpoint>
          <Trackpoint>
            <Time>2022-07-13T12:24:51.000Z</Time>
            <Position>
              <LatitudeDegrees>43.4572005830705165863037109375</LatitudeDegrees>
              <LongitudeDegrees>-3.631659038364887237548828125</LongitudeDegrees>
            </Position>
            <AltitudeMeters>46.40000152587890625</AltitudeMeters>
            <DistanceMeters>NAN</DistanceMeters>
          </Trackpoint>
          <Trackpoint>
            <Time>2022-07-13T12:24:55.000Z</Time>
            <Position>
              <LatitudeDegrees>43.457188345491886138916015625</LatitudeDegrees>
              <LongitudeDegrees>-3.6317695118486881256103515625</LongitudeDegrees>
            </Position>
            <AltitudeMeters>47.40000152587890625</AltitudeMeters>
            <DistanceMeters>NAN</DistanceMeters>
          </Trackpoint>
          <Trackpoint>
            <Time>2022-07-13T12:24:58.000Z</Time>
            <Position>
              <LatitudeDegrees>43.45718725584447383880615234375</LatitudeDegrees>
              <LongitudeDegrees>-3.631841428577899932861328125</LongitudeDegrees>
            </Position>
            <AltitudeMeters>47.799999237060546875</AltitudeMeters>
            <DistanceMeters>NAN</DistanceMeters>
          </Trackpoint>
          <Trackpoint>
            <Time>2022-07-13T12:25:04.000Z</Time>
            <Position>
              <LatitudeDegrees>43.45718063414096832275390625</LatitudeDegrees>
              <LongitudeDegrees>-3.63198383711278438568115234375</LongitudeDegrees>
            </Position>
            <AltitudeMeters>48.40000152587890625</AltitudeMeters>
            <DistanceMeters>NAN</DistanceMeters>
          </Trackpoint>
          <Trackpoint>
            <Time>2022-07-13T12:25:06.000Z</Time>
            <Position>
              <LatitudeDegrees>43.457180969417095184326171875</LatitudeDegrees>
              <LongitudeDegrees>-3.63203010521829128265380859375</LongitudeDegrees>
            </Position>
            <AltitudeMeters>48.799999237060546875</AltitudeMeters>
            <DistanceMeters>NAN</DistanceMeters>
          </Trackpoint>
          <Trackpoint>
            <Time>2022-07-13T12:25:14.000Z</Time>
            <Position>
              <LatitudeDegrees>43.45718625001609325408935546875</LatitudeDegrees>
              <LongitudeDegrees>-3.63218768499791622161865234375</LongitudeDegrees>
            </Position>
            <AltitudeMeters>49.40000152587890625</AltitudeMeters>
            <DistanceMeters>NAN</DistanceMeters>
          </Trackpoint>
          <Trackpoint>
            <Time>2022-07-13T12:25:16.000Z</Time>
            <Position>
              <LatitudeDegrees>43.4571922011673450469970703125</LatitudeDegrees>
              <LongitudeDegrees>-3.63222523592412471771240234375</LongitudeDegrees>
            </Position>
            <AltitudeMeters>49.59999847412109375</AltitudeMeters>
            <DistanceMeters>NAN</DistanceMeters>
          </Trackpoint>
          <Trackpoint>
            <Time>2022-07-13T12:25:21.000Z</Time>
            <Position>
              <LatitudeDegrees>43.457190692424774169921875</LatitudeDegrees>
              <LongitudeDegrees>-3.63231659866869449615478515625</LongitudeDegrees>
            </Position>
            <AltitudeMeters>50.200000762939453125</AltitudeMeters>
            <DistanceMeters>NAN</DistanceMeters>
          </Trackpoint>
          <Trackpoint>
            <Time>2022-07-13T12:25:23.000Z</Time>
            <Position>
              <LatitudeDegrees>43.4571933746337890625</LatitudeDegrees>
              <LongitudeDegrees>-3.63235582597553730010986328125</LongitudeDegrees>
            </Position>
            <AltitudeMeters>50.40000152587890625</AltitudeMeters>
            <DistanceMeters>NAN</DistanceMeters>
          </Trackpoint>
          <Trackpoint>
            <Time>2022-07-13T12:25:26.000Z</Time>
            <Position>
              <LatitudeDegrees>43.45719731412827968597412109375</LatitudeDegrees>
              <LongitudeDegrees>-3.6324155889451503753662109375</LongitudeDegrees>
            </Position>
            <AltitudeMeters>50.40000152587890625</AltitudeMeters>
            <DistanceMeters>NAN</DistanceMeters>
          </Trackpoint>
          <Trackpoint>
            <Time>2022-07-13T12:25:29.000Z</Time>
            <Position>
              <LatitudeDegrees>43.45719999633729457855224609375</LatitudeDegrees>
              <LongitudeDegrees>-3.632474429905414581298828125</LongitudeDegrees>
            </Position>
            <AltitudeMeters>50.59999847412109375</AltitudeMeters>
            <DistanceMeters>NAN</DistanceMeters>
          </Trackpoint>
          <Trackpoint>
            <Time>2022-07-13T12:25:37.000Z</Time>
            <Position>
              <LatitudeDegrees>43.45719999633729457855224609375</LatitudeDegrees>
              <LongitudeDegrees>-3.63265179097652435302734375</LongitudeDegrees>
            </Position>
            <AltitudeMeters>51.200000762939453125</AltitudeMeters>
            <DistanceMeters>NAN</DistanceMeters>
          </Trackpoint>
          <Trackpoint>
            <Time>2022-07-13T12:25:43.000Z</Time>
            <Position>
              <LatitudeDegrees>43.45717870630323886871337890625</LatitudeDegrees>
              <LongitudeDegrees>-3.63278598524630069732666015625</LongitudeDegrees>
            </Position>
            <AltitudeMeters>51.59999847412109375</AltitudeMeters>
            <DistanceMeters>NAN</DistanceMeters>
          </Trackpoint>
          <Trackpoint>
            <Time>2022-07-13T12:25:44.000Z</Time>
            <Position>
              <LatitudeDegrees>43.45717283897101879119873046875</LatitudeDegrees>
              <LongitudeDegrees>-3.63280811347067356109619140625</LongitudeDegrees>
            </Position>
            <AltitudeMeters>51.799999237060546875</AltitudeMeters>
            <DistanceMeters>NAN</DistanceMeters>
          </Trackpoint>
          <Trackpoint>
            <Time>2022-07-13T12:25:46.000Z</Time>
            <Position>
              <LatitudeDegrees>43.45715959556400775909423828125</LatitudeDegrees>
              <LongitudeDegrees>-3.6328517831861972808837890625</LongitudeDegrees>
            </Position>
            <AltitudeMeters>52</AltitudeMeters>
            <DistanceMeters>NAN</DistanceMeters>
          </Trackpoint>
          <Trackpoint>
            <Time>2022-07-13T12:25:51.000Z</Time>
            <Position>
              <LatitudeDegrees>43.4571097232401371002197265625</LatitudeDegrees>
              <LongitudeDegrees>-3.632947169244289398193359375</LongitudeDegrees>
            </Position>
            <AltitudeMeters>52.59999847412109375</AltitudeMeters>
            <DistanceMeters>NAN</DistanceMeters>
          </Trackpoint>
          <Trackpoint>
            <Time>2022-07-13T12:25:52.000Z</Time>
            <Position>
              <LatitudeDegrees>43.45710142515599727630615234375</LatitudeDegrees>
              <LongitudeDegrees>-3.63296535797417163848876953125</LongitudeDegrees>
            </Position>
            <AltitudeMeters>52.799999237060546875</AltitudeMeters>
            <DistanceMeters>NAN</DistanceMeters>
          </Trackpoint>
          <Trackpoint>
            <Time>2022-07-13T12:25:56.000Z</Time>
            <Position>
              <LatitudeDegrees>43.457051217555999755859375</LatitudeDegrees>
              <LongitudeDegrees>-3.63302352838218212127685546875</LongitudeDegrees>
            </Position>
            <AltitudeMeters>53.200000762939453125</AltitudeMeters>
            <DistanceMeters>NAN</DistanceMeters>
          </Trackpoint>
          <Trackpoint>
            <Time>2022-07-13T12:25:59.000Z</Time>
            <Position>
              <LatitudeDegrees>43.45701039768755435943603515625</LatitudeDegrees>
              <LongitudeDegrees>-3.63307331688702106475830078125</LongitudeDegrees>
            </Position>
            <AltitudeMeters>53.200000762939453125</AltitudeMeters>
            <DistanceMeters>NAN</DistanceMeters>
          </Trackpoint>
          <Trackpoint>
            <Time>2022-07-13T12:26:03.000Z</Time>
            <Position>
              <LatitudeDegrees>43.45695440657436847686767578125</LatitudeDegrees>
              <LongitudeDegrees>-3.6331419646739959716796875</LongitudeDegrees>
            </Position>
            <AltitudeMeters>53.59999847412109375</AltitudeMeters>
            <DistanceMeters>NAN</DistanceMeters>
          </Trackpoint>
          <Trackpoint>
            <Time>2022-07-13T12:26:04.000Z</Time>
            <Position>
              <LatitudeDegrees>43.4569394029676914215087890625</LatitudeDegrees>
              <LongitudeDegrees>-3.6331572197377681732177734375</LongitudeDegrees>
            </Position>
            <AltitudeMeters>53.799999237060546875</AltitudeMeters>
            <DistanceMeters>NAN</DistanceMeters>
          </Trackpoint>
          <Trackpoint>
            <Time>2022-07-13T12:26:06.000Z</Time>
            <Position>
              <LatitudeDegrees>43.45690160058438777923583984375</LatitudeDegrees>
              <LongitudeDegrees>-3.633194603025913238525390625</LongitudeDegrees>
            </Position>
            <AltitudeMeters>54.200000762939453125</AltitudeMeters>
            <DistanceMeters>NAN</DistanceMeters>
          </Trackpoint>
          <Trackpoint>
            <Time>2022-07-13T12:26:08.000Z</Time>
            <Position>
              <LatitudeDegrees>43.45686706714332103729248046875</LatitudeDegrees>
              <LongitudeDegrees>-3.63323072902858257293701171875</LongitudeDegrees>
            </Position>
            <AltitudeMeters>54.59999847412109375</AltitudeMeters>
            <DistanceMeters>NAN</DistanceMeters>
          </Trackpoint>
          <Trackpoint>
            <Time>2022-07-13T12:26:11.000Z</Time>
            <Position>
              <LatitudeDegrees>43.456814847886562347412109375</LatitudeDegrees>
              <LongitudeDegrees>-3.633287139236927032470703125</LongitudeDegrees>
            </Position>
            <AltitudeMeters>54.799999237060546875</AltitudeMeters>
            <DistanceMeters>NAN</DistanceMeters>
          </Trackpoint>
          <Trackpoint>
            <Time>2022-07-13T12:26:15.000Z</Time>
            <Position>
              <LatitudeDegrees>43.45674343407154083251953125</LatitudeDegrees>
              <LongitudeDegrees>-3.6333758197724819183349609375</LongitudeDegrees>
            </Position>
            <AltitudeMeters>55.200000762939453125</AltitudeMeters>
            <DistanceMeters>NAN</DistanceMeters>
          </Trackpoint>
          <Trackpoint>
            <Time>2022-07-13T12:26:23.000Z</Time>
            <Position>
              <LatitudeDegrees>43.45661443658173084259033203125</LatitudeDegrees>
              <LongitudeDegrees>-3.63356600515544414520263671875</LongitudeDegrees>
            </Position>
            <AltitudeMeters>55.59999847412109375</AltitudeMeters>
            <DistanceMeters>NAN</DistanceMeters>
          </Trackpoint>
          <Trackpoint>
            <Time>2022-07-13T12:26:24.000Z</Time>
            <Position>
              <LatitudeDegrees>43.45660261809825897216796875</LatitudeDegrees>
              <LongitudeDegrees>-3.63359215669333934783935546875</LongitudeDegrees>
            </Position>
            <AltitudeMeters>55.59999847412109375</AltitudeMeters>
            <DistanceMeters>NAN</DistanceMeters>
          </Trackpoint>
          <Trackpoint>
            <Time>2022-07-13T12:26:29.000Z</Time>
            <Position>
              <LatitudeDegrees>43.45653866417706012725830078125</LatitudeDegrees>
              <LongitudeDegrees>-3.6337178014218807220458984375</LongitudeDegrees>
            </Position>
            <AltitudeMeters>56</AltitudeMeters>
            <DistanceMeters>NAN</DistanceMeters>
          </Trackpoint>
          <Trackpoint>
            <Time>2022-07-13T12:26:32.000Z</Time>
            <Position>
              <LatitudeDegrees>43.45650362782180309295654296875</LatitudeDegrees>
              <LongitudeDegrees>-3.6337925679981708526611328125</LongitudeDegrees>
            </Position>
            <AltitudeMeters>56</AltitudeMeters>
            <DistanceMeters>NAN</DistanceMeters>
          </Trackpoint>
          <Trackpoint>
            <Time>2022-07-13T12:26:37.000Z</Time>
            <Position>
              <LatitudeDegrees>43.45644344575703144073486328125</LatitudeDegrees>
              <LongitudeDegrees>-3.63392475061118602752685546875</LongitudeDegrees>
            </Position>
            <AltitudeMeters>56.59999847412109375</AltitudeMeters>
            <DistanceMeters>NAN</DistanceMeters>
          </Trackpoint>
          <Trackpoint>
            <Time>2022-07-13T12:26:42.000Z</Time>
            <Position>
              <LatitudeDegrees>43.45639315433800220489501953125</LatitudeDegrees>
              <LongitudeDegrees>-3.63407428376376628875732421875</LongitudeDegrees>
            </Position>
            <AltitudeMeters>56.799999237060546875</AltitudeMeters>
            <DistanceMeters>NAN</DistanceMeters>
          </Trackpoint>
          <Trackpoint>
            <Time>2022-07-13T12:26:44.000Z</Time>
            <Position>
              <LatitudeDegrees>43.45637488178908824920654296875</LatitudeDegrees>
              <LongitudeDegrees>-3.6341238208115100860595703125</LongitudeDegrees>
            </Position>
            <AltitudeMeters>57</AltitudeMeters>
            <DistanceMeters>NAN</DistanceMeters>
          </Trackpoint>
          <Trackpoint>
            <Time>2022-07-13T12:26:52.000Z</Time>
            <Position>
              <LatitudeDegrees>43.45629458315670490264892578125</LatitudeDegrees>
              <LongitudeDegrees>-3.634352982044219970703125</LongitudeDegrees>
            </Position>
            <AltitudeMeters>56.59999847412109375</AltitudeMeters>
            <DistanceMeters>NAN</DistanceMeters>
          </Trackpoint>
          <Trackpoint>
            <Time>2022-07-13T12:26:59.000Z</Time>
            <Position>
              <LatitudeDegrees>43.456227444112300872802734375</LatitudeDegrees>
              <LongitudeDegrees>-3.634540736675262451171875</LongitudeDegrees>
            </Position>
            <AltitudeMeters>56.799999237060546875</AltitudeMeters>
            <DistanceMeters>NAN</DistanceMeters>
          </Trackpoint>
          <Trackpoint>
            <Time>2022-07-13T12:27:01.000Z</Time>
            <Position>
              <LatitudeDegrees>43.45620405860245227813720703125</LatitudeDegrees>
              <LongitudeDegrees>-3.634594716131687164306640625</LongitudeDegrees>
            </Position>
            <AltitudeMeters>56.799999237060546875</AltitudeMeters>
            <DistanceMeters>NAN</DistanceMeters>
          </Trackpoint>
          <Trackpoint>
            <Time>2022-07-13T12:27:09.000Z</Time>
            <Position>
              <LatitudeDegrees>43.45614085905253887176513671875</LatitudeDegrees>
              <LongitudeDegrees>-3.6347980611026287078857421875</LongitudeDegrees>
            </Position>
            <AltitudeMeters>57.59999847412109375</AltitudeMeters>
            <DistanceMeters>NAN</DistanceMeters>
          </Trackpoint>
          <Trackpoint>
            <Time>2022-07-13T12:27:12.000Z</Time>
            <Position>
              <LatitudeDegrees>43.45612040720880031585693359375</LatitudeDegrees>
              <LongitudeDegrees>-3.63486872054636478424072265625</LongitudeDegrees>
            </Position>
            <AltitudeMeters>58</AltitudeMeters>
            <DistanceMeters>NAN</DistanceMeters>
          </Trackpoint>
          <Trackpoint>
            <Time>2022-07-13T12:27:15.000Z</Time>
            <Position>
              <LatitudeDegrees>43.4560901485383510589599609375</LatitudeDegrees>
              <LongitudeDegrees>-3.63494063727557659149169921875</LongitudeDegrees>
            </Position>
            <AltitudeMeters>58.200000762939453125</AltitudeMeters>
            <DistanceMeters>NAN</DistanceMeters>
          </Trackpoint>
          <Trackpoint>
            <Time>2022-07-13T12:27:17.000Z</Time>
            <Position>
              <LatitudeDegrees>43.456076569855213165283203125</LatitudeDegrees>
              <LongitudeDegrees>-3.6349952034652233123779296875</LongitudeDegrees>
            </Position>
            <AltitudeMeters>58.59999847412109375</AltitudeMeters>
            <DistanceMeters>NAN</DistanceMeters>
          </Trackpoint>
          <Trackpoint>
            <Time>2022-07-13T12:27:18.000Z</Time>
            <Position>
              <LatitudeDegrees>43.45606760121881961822509765625</LatitudeDegrees>
              <LongitudeDegrees>-3.63501255400478839874267578125</LongitudeDegrees>
            </Position>
            <AltitudeMeters>58.59999847412109375</AltitudeMeters>
            <DistanceMeters>NAN</DistanceMeters>
          </Trackpoint>
          <Trackpoint>
            <Time>2022-07-13T12:27:22.000Z</Time>
            <Position>
              <LatitudeDegrees>43.45603776164352893829345703125</LatitudeDegrees>
              <LongitudeDegrees>-3.63511296920478343963623046875</LongitudeDegrees>
            </Position>
            <AltitudeMeters>59</AltitudeMeters>
            <DistanceMeters>NAN</DistanceMeters>
          </Trackpoint>
          <Trackpoint>
            <Time>2022-07-13T12:27:24.000Z</Time>
            <Position>
              <LatitudeDegrees>43.45602183602750301361083984375</LatitudeDegrees>
              <LongitudeDegrees>-3.63516108132898807525634765625</LongitudeDegrees>
            </Position>
            <AltitudeMeters>59.200000762939453125</AltitudeMeters>
            <DistanceMeters>NAN</DistanceMeters>
          </Trackpoint>
          <Trackpoint>
            <Time>2022-07-13T12:27:28.000Z</Time>
            <Position>
              <LatitudeDegrees>43.45599233172833919525146484375</LatitudeDegrees>
              <LongitudeDegrees>-3.635249845683574676513671875</LongitudeDegrees>
            </Position>
            <AltitudeMeters>59.40000152587890625</AltitudeMeters>
            <DistanceMeters>NAN</DistanceMeters>
          </Trackpoint>
          <Trackpoint>
            <Time>2022-07-13T12:27:32.000Z</Time>
            <Position>
              <LatitudeDegrees>43.45596232451498508453369140625</LatitudeDegrees>
              <LongitudeDegrees>-3.63533534109592437744140625</LongitudeDegrees>
            </Position>
            <AltitudeMeters>59.59999847412109375</AltitudeMeters>
            <DistanceMeters>NAN</DistanceMeters>
          </Trackpoint>
          <Trackpoint>
            <Time>2022-07-13T12:27:35.000Z</Time>
            <Position>
              <LatitudeDegrees>43.45593533478677272796630859375</LatitudeDegrees>
              <LongitudeDegrees>-3.635410107672214508056640625</LongitudeDegrees>
            </Position>
            <AltitudeMeters>60</AltitudeMeters>
            <DistanceMeters>NAN</DistanceMeters>
          </Trackpoint>
          <Trackpoint>
            <Time>2022-07-13T12:27:41.000Z</Time>
            <Position>
              <LatitudeDegrees>43.45589585602283477783203125</LatitudeDegrees>
              <LongitudeDegrees>-3.6355613172054290771484375</LongitudeDegrees>
            </Position>
            <AltitudeMeters>61.200000762939453125</AltitudeMeters>
            <DistanceMeters>NAN</DistanceMeters>
          </Trackpoint>
          <Trackpoint>
            <Time>2022-07-13T12:27:43.000Z</Time>
            <Position>
              <LatitudeDegrees>43.455880768597126007080078125</LatitudeDegrees>
              <LongitudeDegrees>-3.63561470992863178253173828125</LongitudeDegrees>
            </Position>
            <AltitudeMeters>61.40000152587890625</AltitudeMeters>
            <DistanceMeters>NAN</DistanceMeters>
          </Trackpoint>
          <Trackpoint>
            <Time>2022-07-13T12:27:49.000Z</Time>
            <Position>
              <LatitudeDegrees>43.45584598369896411895751953125</LatitudeDegrees>
              <LongitudeDegrees>-3.635764829814434051513671875</LongitudeDegrees>
            </Position>
            <AltitudeMeters>61.799999237060546875</AltitudeMeters>
            <DistanceMeters>NAN</DistanceMeters>
          </Trackpoint>
          <Trackpoint>
            <Time>2022-07-13T12:27:54.000Z</Time>
            <Position>
              <LatitudeDegrees>43.45582569949328899383544921875</LatitudeDegrees>
              <LongitudeDegrees>-3.63588519394397735595703125</LongitudeDegrees>
            </Position>
            <AltitudeMeters>61.799999237060546875</AltitudeMeters>
            <DistanceMeters>NAN</DistanceMeters>
          </Trackpoint>
          <Trackpoint>
            <Time>2022-07-13T12:28:00.000Z</Time>
            <Position>
              <LatitudeDegrees>43.45581798814237117767333984375</LatitudeDegrees>
              <LongitudeDegrees>-3.636037744581699371337890625</LongitudeDegrees>
            </Position>
            <AltitudeMeters>62</AltitudeMeters>
            <DistanceMeters>NAN</DistanceMeters>
          </Trackpoint>
          <Trackpoint>
            <Time>2022-07-13T12:28:02.000Z</Time>
            <Position>
              <LatitudeDegrees>43.45581061206758022308349609375</LatitudeDegrees>
              <LongitudeDegrees>-3.636089377105236053466796875</LongitudeDegrees>
            </Position>
            <AltitudeMeters>62.200000762939453125</AltitudeMeters>
            <DistanceMeters>NAN</DistanceMeters>
          </Trackpoint>
          <Trackpoint>
            <Time>2022-07-13T12:28:09.000Z</Time>
            <Position>
              <LatitudeDegrees>43.4558065049350261688232421875</LatitudeDegrees>
              <LongitudeDegrees>-3.63625743426382541656494140625</LongitudeDegrees>
            </Position>
            <AltitudeMeters>63</AltitudeMeters>
            <DistanceMeters>NAN</DistanceMeters>
          </Trackpoint>
          <Trackpoint>
            <Time>2022-07-13T12:28:11.000Z</Time>
            <Position>
              <LatitudeDegrees>43.45580197870731353759765625</LatitudeDegrees>
              <LongitudeDegrees>-3.6362943984568119049072265625</LongitudeDegrees>
            </Position>
            <AltitudeMeters>63</AltitudeMeters>
            <DistanceMeters>NAN</DistanceMeters>
          </Trackpoint>
          <Trackpoint>
            <Time>2022-07-13T12:28:13.000Z</Time>
            <Position>
              <LatitudeDegrees>43.4557833708822727203369140625</LatitudeDegrees>
              <LongitudeDegrees>-3.6363118328154087066650390625</LongitudeDegrees>
            </Position>
            <AltitudeMeters>63</AltitudeMeters>
            <DistanceMeters>NAN</DistanceMeters>
          </Trackpoint>
          <Trackpoint>
            <Time>2022-07-13T12:28:14.000Z</Time>
            <Position>
              <LatitudeDegrees>43.45577071420848369598388671875</LatitudeDegrees>
              <LongitudeDegrees>-3.6363131739199161529541015625</LongitudeDegrees>
            </Position>
            <AltitudeMeters>63</AltitudeMeters>
            <DistanceMeters>NAN</DistanceMeters>
          </Trackpoint>
          <Trackpoint>
            <Time>2022-07-13T12:28:17.000Z</Time>
            <Position>
              <LatitudeDegrees>43.45573383383452892303466796875</LatitudeDegrees>
              <LongitudeDegrees>-3.63628073595464229583740234375</LongitudeDegrees>
            </Position>
            <AltitudeMeters>63</AltitudeMeters>
            <DistanceMeters>NAN</DistanceMeters>
          </Trackpoint>
          <Trackpoint>
            <Time>2022-07-13T12:28:22.000Z</Time>
            <Position>
              <LatitudeDegrees>43.45570567063987255096435546875</LatitudeDegrees>
              <LongitudeDegrees>-3.636271767318248748779296875</LongitudeDegrees>
            </Position>
            <AltitudeMeters>62.799999237060546875</AltitudeMeters>
            <DistanceMeters>NAN</DistanceMeters>
          </Trackpoint>
          <Trackpoint>
            <Time>2022-07-13T12:30:22.000Z</Time>
            <Position>
              <LatitudeDegrees>43.45566543750464916229248046875</LatitudeDegrees>
              <LongitudeDegrees>-3.63630051724612712860107421875</LongitudeDegrees>
            </Position>
            <AltitudeMeters>66.1999969482421875</AltitudeMeters>
            <DistanceMeters>NAN</DistanceMeters>
          </Trackpoint>
          <Trackpoint>
            <Time>2022-07-13T12:30:23.000Z</Time>
            <Position>
              <LatitudeDegrees>43.455652780830860137939453125</LatitudeDegrees>
              <LongitudeDegrees>-3.63632281310856342315673828125</LongitudeDegrees>
            </Position>
            <AltitudeMeters>66.1999969482421875</AltitudeMeters>
            <DistanceMeters>NAN</DistanceMeters>
          </Trackpoint>
          <Trackpoint>
            <Time>2022-07-13T12:30:24.000Z</Time>
            <Position>
              <LatitudeDegrees>43.45564699731767177581787109375</LatitudeDegrees>
              <LongitudeDegrees>-3.636343181133270263671875</LongitudeDegrees>
            </Position>
            <AltitudeMeters>66.1999969482421875</AltitudeMeters>
            <DistanceMeters>NAN</DistanceMeters>
          </Trackpoint>
          <Trackpoint>
            <Time>2022-07-13T12:30:25.000Z</Time>
            <Position>
              <LatitudeDegrees>43.455644063651561737060546875</LatitudeDegrees>
              <LongitudeDegrees>-3.63637025468051433563232421875</LongitudeDegrees>
            </Position>
            <AltitudeMeters>66.40000152587890625</AltitudeMeters>
            <DistanceMeters>NAN</DistanceMeters>
          </Trackpoint>
          <Trackpoint>
            <Time>2022-07-13T12:30:28.000Z</Time>
            <Position>
              <LatitudeDegrees>43.45567247830331325531005859375</LatitudeDegrees>
              <LongitudeDegrees>-3.63644015975296497344970703125</LongitudeDegrees>
            </Position>
            <AltitudeMeters>66.40000152587890625</AltitudeMeters>
            <DistanceMeters>NAN</DistanceMeters>
          </Trackpoint>
          <Trackpoint>
            <Time>2022-07-13T12:30:30.000Z</Time>
            <Position>
              <LatitudeDegrees>43.4556834585964679718017578125</LatitudeDegrees>
              <LongitudeDegrees>-3.6364834941923618316650390625</LongitudeDegrees>
            </Position>
            <AltitudeMeters>66.40000152587890625</AltitudeMeters>
            <DistanceMeters>NAN</DistanceMeters>
          </Trackpoint>
          <Trackpoint>
            <Time>2022-07-13T12:30:34.000Z</Time>
            <Position>
              <LatitudeDegrees>43.45569008029997348785400390625</LatitudeDegrees>
              <LongitudeDegrees>-3.63658047281205654144287109375</LongitudeDegrees>
            </Position>
            <AltitudeMeters>67</AltitudeMeters>
            <DistanceMeters>NAN</DistanceMeters>
          </Trackpoint>
          <Trackpoint>
            <Time>2022-07-13T12:30:36.000Z</Time>
            <Position>
              <LatitudeDegrees>43.45568438060581684112548828125</LatitudeDegrees>
              <LongitudeDegrees>-3.6366343684494495391845703125</LongitudeDegrees>
            </Position>
            <AltitudeMeters>67.40000152587890625</AltitudeMeters>
            <DistanceMeters>NAN</DistanceMeters>
          </Trackpoint>
          <Trackpoint>
            <Time>2022-07-13T12:30:38.000Z</Time>
            <Position>
              <LatitudeDegrees>43.455677926540374755859375</LatitudeDegrees>
              <LongitudeDegrees>-3.63669614307582378387451171875</LongitudeDegrees>
            </Position>
            <AltitudeMeters>67.59999847412109375</AltitudeMeters>
            <DistanceMeters>NAN</DistanceMeters>
          </Trackpoint>
          <Trackpoint>
            <Time>2022-07-13T12:30:42.000Z</Time>
            <Position>
              <LatitudeDegrees>43.45568337477743625640869140625</LatitudeDegrees>
              <LongitudeDegrees>-3.63681600429117679595947265625</LongitudeDegrees>
            </Position>
            <AltitudeMeters>67.8000030517578125</AltitudeMeters>
            <DistanceMeters>NAN</DistanceMeters>
          </Trackpoint>
          <Trackpoint>
            <Time>2022-07-13T12:30:49.000Z</Time>
            <Position>
              <LatitudeDegrees>43.45567331649363040924072265625</LatitudeDegrees>
              <LongitudeDegrees>-3.6370199359953403472900390625</LongitudeDegrees>
            </Position>
            <AltitudeMeters>68.40000152587890625</AltitudeMeters>
            <DistanceMeters>NAN</DistanceMeters>
          </Trackpoint>
          <Trackpoint>
            <Time>2022-07-13T12:30:52.000Z</Time>
            <Position>
              <LatitudeDegrees>43.45565722323954105377197265625</LatitudeDegrees>
              <LongitudeDegrees>-3.6371114663779735565185546875</LongitudeDegrees>
            </Position>
            <AltitudeMeters>68.40000152587890625</AltitudeMeters>
            <DistanceMeters>NAN</DistanceMeters>
          </Trackpoint>
          <Trackpoint>
            <Time>2022-07-13T12:30:55.000Z</Time>
            <Position>
              <LatitudeDegrees>43.45568371005356311798095703125</LatitudeDegrees>
              <LongitudeDegrees>-3.63718413747847080230712890625</LongitudeDegrees>
            </Position>
            <AltitudeMeters>69.1999969482421875</AltitudeMeters>
            <DistanceMeters>NAN</DistanceMeters>
          </Trackpoint>
          <Trackpoint>
            <Time>2022-07-13T12:30:56.000Z</Time>
            <Position>
              <LatitudeDegrees>43.45569276250898838043212890625</LatitudeDegrees>
              <LongitudeDegrees>-3.63719972781836986541748046875</LongitudeDegrees>
            </Position>
            <AltitudeMeters>69.40000152587890625</AltitudeMeters>
            <DistanceMeters>NAN</DistanceMeters>
          </Trackpoint>
          <Trackpoint>
            <Time>2022-07-13T12:31:02.000Z</Time>
            <Position>
              <LatitudeDegrees>43.4557307325303554534912109375</LatitudeDegrees>
              <LongitudeDegrees>-3.637323863804340362548828125</LongitudeDegrees>
            </Position>
            <AltitudeMeters>69.59999847412109375</AltitudeMeters>
            <DistanceMeters>NAN</DistanceMeters>
          </Trackpoint>
          <Trackpoint>
            <Time>2022-07-13T12:31:04.000Z</Time>
            <Position>
              <LatitudeDegrees>43.4557394497096538543701171875</LatitudeDegrees>
              <LongitudeDegrees>-3.63735512830317020416259765625</LongitudeDegrees>
            </Position>
            <AltitudeMeters>70.1999969482421875</AltitudeMeters>
            <DistanceMeters>NAN</DistanceMeters>
          </Trackpoint>
          <Trackpoint>
            <Time>2022-07-13T12:31:07.000Z</Time>
            <Position>
              <LatitudeDegrees>43.45573961734771728515625</LatitudeDegrees>
              <LongitudeDegrees>-3.63735898397862911224365234375</LongitudeDegrees>
            </Position>
            <AltitudeMeters>69.8000030517578125</AltitudeMeters>
            <DistanceMeters>NAN</DistanceMeters>
          </Trackpoint>
          <Trackpoint>
            <Time>2022-07-13T12:31:09.000Z</Time>
            <Position>
              <LatitudeDegrees>43.45573961734771728515625</LatitudeDegrees>
              <LongitudeDegrees>-3.63735898397862911224365234375</LongitudeDegrees>
            </Position>
            <AltitudeMeters>69.8000030517578125</AltitudeMeters>
            <DistanceMeters>NAN</DistanceMeters>
          </Trackpoint>
          <Trackpoint>
            <Time>2022-07-13T12:36:08.000Z</Time>
            <Position>
              <LatitudeDegrees>43.45572947524487972259521484375</LatitudeDegrees>
              <LongitudeDegrees>-3.63733517937362194061279296875</LongitudeDegrees>
            </Position>
            <AltitudeMeters>75</AltitudeMeters>
            <DistanceMeters>NAN</DistanceMeters>
          </Trackpoint>
          <Trackpoint>
            <Time>2022-07-13T12:36:09.000Z</Time>
            <Position>
              <LatitudeDegrees>43.45574120990931987762451171875</LatitudeDegrees>
              <LongitudeDegrees>-3.63734004087746143341064453125</LongitudeDegrees>
            </Position>
            <AltitudeMeters>75</AltitudeMeters>
            <DistanceMeters>NAN</DistanceMeters>
          </Trackpoint>
          <Trackpoint>
            <Time>2022-07-13T12:36:12.000Z</Time>
            <Position>
              <LatitudeDegrees>43.45579133369028568267822265625</LatitudeDegrees>
              <LongitudeDegrees>-3.6373766697943210601806640625</LongitudeDegrees>
            </Position>
            <AltitudeMeters>74.8000030517578125</AltitudeMeters>
            <DistanceMeters>NAN</DistanceMeters>
          </Trackpoint>
          <Trackpoint>
            <Time>2022-07-13T12:36:13.000Z</Time>
            <Position>
              <LatitudeDegrees>43.4558266215026378631591796875</LatitudeDegrees>
              <LongitudeDegrees>-3.63738614134490489959716796875</LongitudeDegrees>
            </Position>
            <AltitudeMeters>74.59999847412109375</AltitudeMeters>
            <DistanceMeters>NAN</DistanceMeters>
          </Trackpoint>
          <Trackpoint>
            <Time>2022-07-13T12:36:14.000Z</Time>
            <Position>
              <LatitudeDegrees>43.4558524377644062042236328125</LatitudeDegrees>
              <LongitudeDegrees>-3.63738991320133209228515625</LongitudeDegrees>
            </Position>
            <AltitudeMeters>74.40000152587890625</AltitudeMeters>
            <DistanceMeters>NAN</DistanceMeters>
          </Trackpoint>
          <Trackpoint>
            <Time>2022-07-13T12:36:16.000Z</Time>
            <Position>
              <LatitudeDegrees>43.455859310925006866455078125</LatitudeDegrees>
              <LongitudeDegrees>-3.63738630898296833038330078125</LongitudeDegrees>
            </Position>
            <AltitudeMeters>74.1999969482421875</AltitudeMeters>
            <DistanceMeters>NAN</DistanceMeters>
          </Trackpoint>
          <Trackpoint>
            <Time>2022-07-13T12:36:20.000Z</Time>
            <Position>
              <LatitudeDegrees>43.45583475194871425628662109375</LatitudeDegrees>
              <LongitudeDegrees>-3.63738127984106540679931640625</LongitudeDegrees>
            </Position>
            <AltitudeMeters>74.1999969482421875</AltitudeMeters>
            <DistanceMeters>NAN</DistanceMeters>
          </Trackpoint>
          <Trackpoint>
            <Time>2022-07-13T12:36:21.000Z</Time>
            <Position>
              <LatitudeDegrees>43.45581128261983394622802734375</LatitudeDegrees>
              <LongitudeDegrees>-3.63734297454357147216796875</LongitudeDegrees>
            </Position>
            <AltitudeMeters>74.1999969482421875</AltitudeMeters>
            <DistanceMeters>NAN</DistanceMeters>
          </Trackpoint>
          <Trackpoint>
            <Time>2022-07-13T12:36:22.000Z</Time>
            <Position>
              <LatitudeDegrees>43.4557972848415374755859375</LatitudeDegrees>
              <LongitudeDegrees>-3.637339957058429718017578125</LongitudeDegrees>
            </Position>
            <AltitudeMeters>74.1999969482421875</AltitudeMeters>
            <DistanceMeters>NAN</DistanceMeters>
          </Trackpoint>
          <Trackpoint>
            <Time>2022-07-13T12:36:25.000Z</Time>
            <Position>
              <LatitudeDegrees>43.45575772225856781005859375</LatitudeDegrees>
              <LongitudeDegrees>-3.6373337544500827789306640625</LongitudeDegrees>
            </Position>
            <AltitudeMeters>74.1999969482421875</AltitudeMeters>
            <DistanceMeters>NAN</DistanceMeters>
          </Trackpoint>
          <Trackpoint>
            <Time>2022-07-13T12:36:27.000Z</Time>
            <Position>
              <LatitudeDegrees>43.4556978754699230194091796875</LatitudeDegrees>
              <LongitudeDegrees>-3.63730416633188724517822265625</LongitudeDegrees>
            </Position>
            <AltitudeMeters>74.40000152587890625</AltitudeMeters>
            <DistanceMeters>NAN</DistanceMeters>
          </Trackpoint>
          <Trackpoint>
            <Time>2022-07-13T12:36:29.000Z</Time>
            <Position>
              <LatitudeDegrees>43.45568354241549968719482421875</LatitudeDegrees>
              <LongitudeDegrees>-3.6373035795986652374267578125</LongitudeDegrees>
            </Position>
            <AltitudeMeters>74.59999847412109375</AltitudeMeters>
            <DistanceMeters>NAN</DistanceMeters>
          </Trackpoint>
          <Trackpoint>
            <Time>2022-07-13T12:36:30.000Z</Time>
            <Position>
              <LatitudeDegrees>43.455698378384113311767578125</LatitudeDegrees>
              <LongitudeDegrees>-3.63730399869382381439208984375</LongitudeDegrees>
            </Position>
            <AltitudeMeters>74.59999847412109375</AltitudeMeters>
            <DistanceMeters>NAN</DistanceMeters>
          </Trackpoint>
          <Trackpoint>
            <Time>2022-07-13T12:36:31.000Z</Time>
            <Position>
              <LatitudeDegrees>43.45569913275539875030517578125</LatitudeDegrees>
              <LongitudeDegrees>-3.63730299286544322967529296875</LongitudeDegrees>
            </Position>
            <AltitudeMeters>74.59999847412109375</AltitudeMeters>
            <DistanceMeters>NAN</DistanceMeters>
          </Trackpoint>
          <Trackpoint>
            <Time>2022-07-13T12:39:55.000Z</Time>
            <Position>
              <LatitudeDegrees>43.455761410295963287353515625</LatitudeDegrees>
              <LongitudeDegrees>-3.63732956349849700927734375</LongitudeDegrees>
            </Position>
            <AltitudeMeters>75.8000030517578125</AltitudeMeters>
            <DistanceMeters>NAN</DistanceMeters>
          </Trackpoint>
          <Trackpoint>
            <Time>2022-07-13T12:39:56.000Z</Time>
            <Position>
              <LatitudeDegrees>43.4557511843740940093994140625</LatitudeDegrees>
              <LongitudeDegrees>-3.63737625069916248321533203125</LongitudeDegrees>
            </Position>
            <AltitudeMeters>75.8000030517578125</AltitudeMeters>
            <DistanceMeters>NAN</DistanceMeters>
          </Trackpoint>
          <Trackpoint>
            <Time>2022-07-13T12:39:57.000Z</Time>
            <Position>
              <LatitudeDegrees>43.45572427846491336822509765625</LatitudeDegrees>
              <LongitudeDegrees>-3.63743257708847522735595703125</LongitudeDegrees>
            </Position>
            <AltitudeMeters>75.8000030517578125</AltitudeMeters>
            <DistanceMeters>NAN</DistanceMeters>
          </Trackpoint>
          <Trackpoint>
            <Time>2022-07-13T12:39:58.000Z</Time>
            <Position>
              <LatitudeDegrees>43.45572017133235931396484375</LatitudeDegrees>
              <LongitudeDegrees>-3.637447915971279144287109375</LongitudeDegrees>
            </Position>
            <AltitudeMeters>75.8000030517578125</AltitudeMeters>
            <DistanceMeters>NAN</DistanceMeters>
          </Trackpoint>
          <Trackpoint>
            <Time>2022-07-13T12:40:01.000Z</Time>
            <Position>
              <LatitudeDegrees>43.45573919825255870819091796875</LatitudeDegrees>
              <LongitudeDegrees>-3.637487478554248809814453125</LongitudeDegrees>
            </Position>
            <AltitudeMeters>75.8000030517578125</AltitudeMeters>
            <DistanceMeters>NAN</DistanceMeters>
          </Trackpoint>
          <Trackpoint>
            <Time>2022-07-13T12:46:37.000Z</Time>
            <Position>
              <LatitudeDegrees>43.45579124987125396728515625</LatitudeDegrees>
              <LongitudeDegrees>-3.63735596649348735809326171875</LongitudeDegrees>
            </Position>
            <AltitudeMeters>79.1999969482421875</AltitudeMeters>
            <DistanceMeters>NAN</DistanceMeters>
          </Trackpoint>
          <Trackpoint>
            <Time>2022-07-13T12:46:40.000Z</Time>
            <Position>
              <LatitudeDegrees>43.45579317770898342132568359375</LatitudeDegrees>
              <LongitudeDegrees>-3.63733685575425624847412109375</LongitudeDegrees>
            </Position>
            <AltitudeMeters>79.1999969482421875</AltitudeMeters>
            <DistanceMeters>NAN</DistanceMeters>
          </Trackpoint>
          <Trackpoint>
            <Time>2022-07-13T12:46:41.000Z</Time>
            <Position>
              <LatitudeDegrees>43.45578697510063648223876953125</LatitudeDegrees>
              <LongitudeDegrees>-3.63733635284006595611572265625</LongitudeDegrees>
            </Position>
            <AltitudeMeters>79.1999969482421875</AltitudeMeters>
            <DistanceMeters>NAN</DistanceMeters>
          </Trackpoint>
          <Trackpoint>
            <Time>2022-07-13T12:46:45.000Z</Time>
            <Position>
              <LatitudeDegrees>43.45576652325689792633056640625</LatitudeDegrees>
              <LongitudeDegrees>-3.63738681189715862274169921875</LongitudeDegrees>
            </Position>
            <AltitudeMeters>79.40000152587890625</AltitudeMeters>
            <DistanceMeters>NAN</DistanceMeters>
          </Trackpoint>
          <Trackpoint>
            <Time>2022-07-13T12:46:48.000Z</Time>
            <Position>
              <LatitudeDegrees>43.4557632543146610260009765625</LatitudeDegrees>
              <LongitudeDegrees>-3.637431152164936065673828125</LongitudeDegrees>
            </Position>
            <AltitudeMeters>79.40000152587890625</AltitudeMeters>
            <DistanceMeters>NAN</DistanceMeters>
          </Trackpoint>
          <Trackpoint>
            <Time>2022-07-13T12:46:50.000Z</Time>
            <Position>
              <LatitudeDegrees>43.45575763843953609466552734375</LatitudeDegrees>
              <LongitudeDegrees>-3.637427128851413726806640625</LongitudeDegrees>
            </Position>
            <AltitudeMeters>79.40000152587890625</AltitudeMeters>
            <DistanceMeters>NAN</DistanceMeters>
          </Trackpoint>
          <Trackpoint>
            <Time>2022-07-13T12:46:51.000Z</Time>
            <Position>
              <LatitudeDegrees>43.4557518549263477325439453125</LatitudeDegrees>
              <LongitudeDegrees>-3.63742411136627197265625</LongitudeDegrees>
            </Position>
            <AltitudeMeters>79.40000152587890625</AltitudeMeters>
            <DistanceMeters>NAN</DistanceMeters>
          </Trackpoint>
          <Trackpoint>
            <Time>2022-07-13T12:46:53.000Z</Time>
            <Position>
              <LatitudeDegrees>43.45573718659579753875732421875</LatitudeDegrees>
              <LongitudeDegrees>-3.63740977831184864044189453125</LongitudeDegrees>
            </Position>
            <AltitudeMeters>79.1999969482421875</AltitudeMeters>
            <DistanceMeters>NAN</DistanceMeters>
          </Trackpoint>
          <Trackpoint>
            <Time>2022-07-13T12:46:58.000Z</Time>
            <Position>
              <LatitudeDegrees>43.4556955285370349884033203125</LatitudeDegrees>
              <LongitudeDegrees>-3.6373816989362239837646484375</LongitudeDegrees>
            </Position>
            <AltitudeMeters>78.8000030517578125</AltitudeMeters>
            <DistanceMeters>NAN</DistanceMeters>
          </Trackpoint>
          <Trackpoint>
            <Time>2022-07-13T12:47:01.000Z</Time>
            <Position>
              <LatitudeDegrees>43.45567784272134304046630859375</LatitudeDegrees>
              <LongitudeDegrees>-3.6373605765402317047119140625</LongitudeDegrees>
            </Position>
            <AltitudeMeters>79.1999969482421875</AltitudeMeters>
            <DistanceMeters>NAN</DistanceMeters>
          </Trackpoint>
          <Trackpoint>
            <Time>2022-07-13T13:12:02.000Z</Time>
            <Position>
              <LatitudeDegrees>43.455713801085948944091796875</LatitudeDegrees>
              <LongitudeDegrees>-3.63736979663372039794921875</LongitudeDegrees>
            </Position>
            <AltitudeMeters>79.8000030517578125</AltitudeMeters>
            <DistanceMeters>NAN</DistanceMeters>
          </Trackpoint>
          <Trackpoint>
            <Time>2022-07-13T13:12:03.000Z</Time>
            <Position>
              <LatitudeDegrees>43.455719165503978729248046875</LatitudeDegrees>
              <LongitudeDegrees>-3.63738815300166606903076171875</LongitudeDegrees>
            </Position>
            <AltitudeMeters>79.8000030517578125</AltitudeMeters>
            <DistanceMeters>NAN</DistanceMeters>
          </Trackpoint>
          <Trackpoint>
            <Time>2022-07-13T13:12:07.000Z</Time>
            <Position>
              <LatitudeDegrees>43.4557347558438777923583984375</LatitudeDegrees>
              <LongitudeDegrees>-3.6374112032353878021240234375</LongitudeDegrees>
            </Position>
            <AltitudeMeters>79.59999847412109375</AltitudeMeters>
            <DistanceMeters>NAN</DistanceMeters>
          </Trackpoint>
          <Trackpoint>
            <Time>2022-07-13T13:12:11.000Z</Time>
            <Position>
              <LatitudeDegrees>43.45573626458644866943359375</LatitudeDegrees>
              <LongitudeDegrees>-3.6374147236347198486328125</LongitudeDegrees>
            </Position>
            <AltitudeMeters>79.40000152587890625</AltitudeMeters>
            <DistanceMeters>NAN</DistanceMeters>
          </Trackpoint>
          <Trackpoint>
            <Time>2022-07-13T13:12:16.000Z</Time>
            <Position>
              <LatitudeDegrees>43.45572687685489654541015625</LatitudeDegrees>
              <LongitudeDegrees>-3.63737910054624080657958984375</LongitudeDegrees>
            </Position>
            <AltitudeMeters>79.59999847412109375</AltitudeMeters>
            <DistanceMeters>NAN</DistanceMeters>
          </Trackpoint>
          <Trackpoint>
            <Time>2022-07-13T13:12:20.000Z</Time>
            <Position>
              <LatitudeDegrees>43.45570500008761882781982421875</LatitudeDegrees>
              <LongitudeDegrees>-3.6373464949429035186767578125</LongitudeDegrees>
            </Position>
            <AltitudeMeters>79.40000152587890625</AltitudeMeters>
            <DistanceMeters>NAN</DistanceMeters>
          </Trackpoint>
          <Trackpoint>
            <Time>2022-07-13T13:12:26.000Z</Time>
            <Position>
              <LatitudeDegrees>43.45567801035940647125244140625</LatitudeDegrees>
              <LongitudeDegrees>-3.63729176111519336700439453125</LongitudeDegrees>
            </Position>
            <AltitudeMeters>79.59999847412109375</AltitudeMeters>
            <DistanceMeters>NAN</DistanceMeters>
          </Trackpoint>
          <Trackpoint>
            <Time>2022-07-13T13:12:31.000Z</Time>
            <Position>
              <LatitudeDegrees>43.4557223506271839141845703125</LatitudeDegrees>
              <LongitudeDegrees>-3.6373216845095157623291015625</LongitudeDegrees>
            </Position>
            <AltitudeMeters>79.59999847412109375</AltitudeMeters>
            <DistanceMeters>NAN</DistanceMeters>
          </Trackpoint>
          <Trackpoint>
            <Time>2022-07-13T13:12:34.000Z</Time>
            <Position>
              <LatitudeDegrees>43.455709107220172882080078125</LatitudeDegrees>
              <LongitudeDegrees>-3.6373102851212024688720703125</LongitudeDegrees>
            </Position>
            <AltitudeMeters>80</AltitudeMeters>
            <DistanceMeters>NAN</DistanceMeters>
          </Trackpoint>
          <Trackpoint>
            <Time>2022-07-13T13:30:02.000Z</Time>
            <Position>
              <LatitudeDegrees>43.45573215745389461517333984375</LatitudeDegrees>
              <LongitudeDegrees>-3.63752477802336215972900390625</LongitudeDegrees>
            </Position>
            <AltitudeMeters>79.40000152587890625</AltitudeMeters>
            <DistanceMeters>NAN</DistanceMeters>
          </Trackpoint>
          <Trackpoint>
            <Time>2022-07-13T13:30:03.000Z</Time>
            <Position>
              <LatitudeDegrees>43.4557543694972991943359375</LatitudeDegrees>
              <LongitudeDegrees>-3.637473396956920623779296875</LongitudeDegrees>
            </Position>
            <AltitudeMeters>79.40000152587890625</AltitudeMeters>
            <DistanceMeters>NAN</DistanceMeters>
          </Trackpoint>
          <Trackpoint>
            <Time>2022-07-13T13:30:06.000Z</Time>
            <Position>
              <LatitudeDegrees>43.4558014757931232452392578125</LatitudeDegrees>
              <LongitudeDegrees>-3.63731858320534229278564453125</LongitudeDegrees>
            </Position>
            <AltitudeMeters>79.1999969482421875</AltitudeMeters>
            <DistanceMeters>NAN</DistanceMeters>
          </Trackpoint>
          <Trackpoint>
            <Time>2022-07-13T13:30:10.000Z</Time>
            <Position>
              <LatitudeDegrees>43.4557543694972991943359375</LatitudeDegrees>
              <LongitudeDegrees>-3.6373532004654407501220703125</LongitudeDegrees>
            </Position>
            <AltitudeMeters>79.40000152587890625</AltitudeMeters>
            <DistanceMeters>NAN</DistanceMeters>
          </Trackpoint>
          <Trackpoint>
            <Time>2022-07-13T13:30:16.000Z</Time>
            <Position>
              <LatitudeDegrees>43.45575143583118915557861328125</LatitudeDegrees>
              <LongitudeDegrees>-3.63741271197795867919921875</LongitudeDegrees>
            </Position>
            <AltitudeMeters>79.59999847412109375</AltitudeMeters>
            <DistanceMeters>NAN</DistanceMeters>
          </Trackpoint>
          <Trackpoint>
            <Time>2022-07-13T13:30:22.000Z</Time>
            <Position>
              <LatitudeDegrees>43.45587397925555706024169921875</LatitudeDegrees>
              <LongitudeDegrees>-3.637453950941562652587890625</LongitudeDegrees>
            </Position>
            <AltitudeMeters>79.1999969482421875</AltitudeMeters>
            <DistanceMeters>NAN</DistanceMeters>
          </Trackpoint>
          <Trackpoint>
            <Time>2022-07-13T13:30:27.000Z</Time>
            <Position>
              <LatitudeDegrees>43.45581580884754657745361328125</LatitudeDegrees>
              <LongitudeDegrees>-3.6377287097275257110595703125</LongitudeDegrees>
            </Position>
            <AltitudeMeters>79.40000152587890625</AltitudeMeters>
            <DistanceMeters>NAN</DistanceMeters>
          </Trackpoint>
          <Trackpoint>
            <Time>2022-07-13T13:34:34.000Z</Time>
            <Position>
              <LatitudeDegrees>43.455774150788784027099609375</LatitudeDegrees>
              <LongitudeDegrees>-3.63725387491285800933837890625</LongitudeDegrees>
            </Position>
            <AltitudeMeters>79</AltitudeMeters>
            <DistanceMeters>NAN</DistanceMeters>
          </Trackpoint>
          <Trackpoint>
            <Time>2022-07-13T13:34:35.000Z</Time>
            <Position>
              <LatitudeDegrees>43.4554957039654254913330078125</LatitudeDegrees>
              <LongitudeDegrees>-3.637575320899486541748046875</LongitudeDegrees>
            </Position>
            <AltitudeMeters>79</AltitudeMeters>
            <DistanceMeters>NAN</DistanceMeters>
          </Trackpoint>
          <Trackpoint>
            <Time>2022-07-13T13:34:36.000Z</Time>
            <Position>
              <LatitudeDegrees>43.45551908947527408599853515625</LatitudeDegrees>
              <LongitudeDegrees>-3.63758571445941925048828125</LongitudeDegrees>
            </Position>
            <AltitudeMeters>79</AltitudeMeters>
            <DistanceMeters>NAN</DistanceMeters>
          </Trackpoint>
          <Trackpoint>
            <Time>2022-07-13T13:34:37.000Z</Time>
            <Position>
              <LatitudeDegrees>43.45554574392735958099365234375</LatitudeDegrees>
              <LongitudeDegrees>-3.63760842941701412200927734375</LongitudeDegrees>
            </Position>
            <AltitudeMeters>79</AltitudeMeters>
            <DistanceMeters>NAN</DistanceMeters>
          </Trackpoint>
          <Trackpoint>
            <Time>2022-07-13T13:34:39.000Z</Time>
            <Position>
              <LatitudeDegrees>43.455710448324680328369140625</LatitudeDegrees>
              <LongitudeDegrees>-3.6373699642717838287353515625</LongitudeDegrees>
            </Position>
            <AltitudeMeters>80.1999969482421875</AltitudeMeters>
            <DistanceMeters>NAN</DistanceMeters>
          </Trackpoint>
          <Trackpoint>
            <Time>2022-07-13T13:34:40.000Z</Time>
            <Position>
              <LatitudeDegrees>43.4556824527680873870849609375</LatitudeDegrees>
              <LongitudeDegrees>-3.63735772669315338134765625</LongitudeDegrees>
            </Position>
            <AltitudeMeters>80.59999847412109375</AltitudeMeters>
            <DistanceMeters>NAN</DistanceMeters>
          </Trackpoint>
          <Trackpoint>
            <Time>2022-07-13T13:34:44.000Z</Time>
            <Position>
              <LatitudeDegrees>43.455677591264247894287109375</LatitudeDegrees>
              <LongitudeDegrees>-3.6373485065996646881103515625</LongitudeDegrees>
            </Position>
            <AltitudeMeters>81</AltitudeMeters>
            <DistanceMeters>NAN</DistanceMeters>
          </Trackpoint>
          <Trackpoint>
            <Time>2022-07-13T13:37:48.000Z</Time>
            <Position>
              <LatitudeDegrees>43.45575344748795032501220703125</LatitudeDegrees>
              <LongitudeDegrees>-3.6374018155038356781005859375</LongitudeDegrees>
            </Position>
            <AltitudeMeters>81.1999969482421875</AltitudeMeters>
            <DistanceMeters>NAN</DistanceMeters>
          </Trackpoint>
          <Trackpoint>
            <Time>2022-07-13T13:37:49.000Z</Time>
            <Position>
              <LatitudeDegrees>43.455757386982440948486328125</LatitudeDegrees>
              <LongitudeDegrees>-3.6373692937195301055908203125</LongitudeDegrees>
            </Position>
            <AltitudeMeters>81.1999969482421875</AltitudeMeters>
            <DistanceMeters>NAN</DistanceMeters>
          </Trackpoint>
          <Trackpoint>
            <Time>2022-07-13T13:37:50.000Z</Time>
            <Position>
              <LatitudeDegrees>43.45575562678277492523193359375</LatitudeDegrees>
              <LongitudeDegrees>-3.63734892569482326507568359375</LongitudeDegrees>
            </Position>
            <AltitudeMeters>81.1999969482421875</AltitudeMeters>
            <DistanceMeters>NAN</DistanceMeters>
          </Trackpoint>
          <Trackpoint>
            <Time>2022-07-13T13:37:51.000Z</Time>
            <Position>
              <LatitudeDegrees>43.4557672776281833648681640625</LatitudeDegrees>
              <LongitudeDegrees>-3.63733132369816303253173828125</LongitudeDegrees>
            </Position>
            <AltitudeMeters>81.1999969482421875</AltitudeMeters>
            <DistanceMeters>NAN</DistanceMeters>
          </Trackpoint>
          <Trackpoint>
            <Time>2022-07-13T13:37:55.000Z</Time>
            <Position>
              <LatitudeDegrees>43.45572017133235931396484375</LatitudeDegrees>
              <LongitudeDegrees>-3.63733031786978244781494140625</LongitudeDegrees>
            </Position>
            <AltitudeMeters>81</AltitudeMeters>
            <DistanceMeters>NAN</DistanceMeters>
          </Trackpoint>
          <Trackpoint>
            <Time>2022-07-13T13:37:59.000Z</Time>
            <Position>
              <LatitudeDegrees>43.45572511665523052215576171875</LatitudeDegrees>
              <LongitudeDegrees>-3.63733819685876369476318359375</LongitudeDegrees>
            </Position>
            <AltitudeMeters>81.1999969482421875</AltitudeMeters>
            <DistanceMeters>NAN</DistanceMeters>
          </Trackpoint>
          <Trackpoint>
            <Time>2022-07-13T13:39:36.000Z</Time>
            <Position>
              <LatitudeDegrees>43.4556371904909610748291015625</LatitudeDegrees>
              <LongitudeDegrees>-3.63754690624773502349853515625</LongitudeDegrees>
            </Position>
            <AltitudeMeters>77.40000152587890625</AltitudeMeters>
            <DistanceMeters>NAN</DistanceMeters>
          </Trackpoint>
          <Trackpoint>
            <Time>2022-07-13T13:39:37.000Z</Time>
            <Position>
              <LatitudeDegrees>43.4556140564382076263427734375</LatitudeDegrees>
              <LongitudeDegrees>-3.63750516436994075775146484375</LongitudeDegrees>
            </Position>
            <AltitudeMeters>77.40000152587890625</AltitudeMeters>
            <DistanceMeters>NAN</DistanceMeters>
          </Trackpoint>
          <Trackpoint>
            <Time>2022-07-13T13:40:44.000Z</Time>
            <Position>
              <LatitudeDegrees>43.455568291246891021728515625</LatitudeDegrees>
              <LongitudeDegrees>-3.637290336191654205322265625</LongitudeDegrees>
            </Position>
            <AltitudeMeters>76</AltitudeMeters>
            <DistanceMeters>NAN</DistanceMeters>
          </Trackpoint>
          <Trackpoint>
            <Time>2022-07-13T13:40:47.000Z</Time>
            <Position>
              <LatitudeDegrees>43.45559905283153057098388671875</LatitudeDegrees>
              <LongitudeDegrees>-3.6373112909495830535888671875</LongitudeDegrees>
            </Position>
            <AltitudeMeters>76</AltitudeMeters>
            <DistanceMeters>NAN</DistanceMeters>
          </Trackpoint>
          <Trackpoint>
            <Time>2022-07-13T13:41:08.000Z</Time>
            <Position>
              <LatitudeDegrees>43.45585159957408905029296875</LatitudeDegrees>
              <LongitudeDegrees>-3.63770146854221820831298828125</LongitudeDegrees>
            </Position>
            <AltitudeMeters>75.59999847412109375</AltitudeMeters>
            <DistanceMeters>NAN</DistanceMeters>
          </Trackpoint>
          <Trackpoint>
            <Time>2022-07-13T13:41:09.000Z</Time>
            <Position>
              <LatitudeDegrees>43.45588051714003086090087890625</LatitudeDegrees>
              <LongitudeDegrees>-3.6377699486911296844482421875</LongitudeDegrees>
            </Position>
            <AltitudeMeters>75.59999847412109375</AltitudeMeters>
            <DistanceMeters>NAN</DistanceMeters>
          </Trackpoint>
          <Trackpoint>
            <Time>2022-07-13T13:41:13.000Z</Time>
            <Position>
              <LatitudeDegrees>43.45584413968026638031005859375</LatitudeDegrees>
              <LongitudeDegrees>-3.6378011293709278106689453125</LongitudeDegrees>
            </Position>
            <AltitudeMeters>75.59999847412109375</AltitudeMeters>
            <DistanceMeters>NAN</DistanceMeters>
          </Trackpoint>
          <Trackpoint>
            <Time>2022-07-13T13:41:18.000Z</Time>
            <Position>
              <LatitudeDegrees>43.455685637891292572021484375</LatitudeDegrees>
              <LongitudeDegrees>-3.6376777477562427520751953125</LongitudeDegrees>
            </Position>
            <AltitudeMeters>75.59999847412109375</AltitudeMeters>
            <DistanceMeters>NAN</DistanceMeters>
          </Trackpoint>
          <Trackpoint>
            <Time>2022-07-13T13:41:21.000Z</Time>
            <Position>
              <LatitudeDegrees>43.4555547125637531280517578125</LatitudeDegrees>
              <LongitudeDegrees>-3.637527041137218475341796875</LongitudeDegrees>
            </Position>
            <AltitudeMeters>75.40000152587890625</AltitudeMeters>
            <DistanceMeters>NAN</DistanceMeters>
          </Trackpoint>
          <Trackpoint>
            <Time>2022-07-13T13:41:23.000Z</Time>
            <Position>
              <LatitudeDegrees>43.4555644355714321136474609375</LatitudeDegrees>
              <LongitudeDegrees>-3.637436516582965850830078125</LongitudeDegrees>
            </Position>
            <AltitudeMeters>75.40000152587890625</AltitudeMeters>
            <DistanceMeters>NAN</DistanceMeters>
          </Trackpoint>
          <Trackpoint>
            <Time>2022-07-13T13:41:25.000Z</Time>
            <Position>
              <LatitudeDegrees>43.4556093625724315643310546875</LatitudeDegrees>
              <LongitudeDegrees>-3.637473396956920623779296875</LongitudeDegrees>
            </Position>
            <AltitudeMeters>75.40000152587890625</AltitudeMeters>
            <DistanceMeters>NAN</DistanceMeters>
          </Trackpoint>
          <Trackpoint>
            <Time>2022-07-13T13:41:28.000Z</Time>
            <Position>
              <LatitudeDegrees>43.45565252937376499176025390625</LatitudeDegrees>
              <LongitudeDegrees>-3.63754942081868648529052734375</LongitudeDegrees>
            </Position>
            <AltitudeMeters>75.40000152587890625</AltitudeMeters>
            <DistanceMeters>NAN</DistanceMeters>
          </Trackpoint>
          <Trackpoint>
            <Time>2022-07-13T13:41:31.000Z</Time>
            <Position>
              <LatitudeDegrees>43.45565722323954105377197265625</LatitudeDegrees>
              <LongitudeDegrees>-3.63749929703772068023681640625</LongitudeDegrees>
            </Position>
            <AltitudeMeters>75.40000152587890625</AltitudeMeters>
            <DistanceMeters>NAN</DistanceMeters>
          </Trackpoint>
          <Trackpoint>
            <Time>2022-07-13T13:41:32.000Z</Time>
            <Position>
              <LatitudeDegrees>43.45564481802284717559814453125</LatitudeDegrees>
              <LongitudeDegrees>-3.637421429157257080078125</LongitudeDegrees>
            </Position>
            <AltitudeMeters>75.1999969482421875</AltitudeMeters>
            <DistanceMeters>NAN</DistanceMeters>
          </Trackpoint>
          <Trackpoint>
            <Time>2022-07-13T13:41:34.000Z</Time>
            <Position>
              <LatitudeDegrees>43.455661498010158538818359375</LatitudeDegrees>
              <LongitudeDegrees>-3.63741849549114704132080078125</LongitudeDegrees>
            </Position>
            <AltitudeMeters>75.1999969482421875</AltitudeMeters>
            <DistanceMeters>NAN</DistanceMeters>
          </Trackpoint>
          <Trackpoint>
            <Time>2022-07-13T13:41:35.000Z</Time>
            <Position>
              <LatitudeDegrees>43.45564079470932483673095703125</LatitudeDegrees>
              <LongitudeDegrees>-3.63736351020634174346923828125</LongitudeDegrees>
            </Position>
            <AltitudeMeters>75.1999969482421875</AltitudeMeters>
            <DistanceMeters>NAN</DistanceMeters>
          </Trackpoint>
          <Trackpoint>
            <Time>2022-07-13T13:41:36.000Z</Time>
            <Position>
              <LatitudeDegrees>43.4556365199387073516845703125</LatitudeDegrees>
              <LongitudeDegrees>-3.63736309111118316650390625</LongitudeDegrees>
            </Position>
            <AltitudeMeters>75</AltitudeMeters>
            <DistanceMeters>NAN</DistanceMeters>
          </Trackpoint>
          <Trackpoint>
            <Time>2022-07-13T13:41:37.000Z</Time>
            <Position>
              <LatitudeDegrees>43.455641381442546844482421875</LatitudeDegrees>
              <LongitudeDegrees>-3.6373583972454071044921875</LongitudeDegrees>
            </Position>
            <AltitudeMeters>75</AltitudeMeters>
            <DistanceMeters>NAN</DistanceMeters>
          </Trackpoint>
          <Trackpoint>
            <Time>2022-07-13T13:41:39.000Z</Time>
            <Position>
              <LatitudeDegrees>43.4556231088936328887939453125</LatitudeDegrees>
              <LongitudeDegrees>-3.6372274719178676605224609375</LongitudeDegrees>
            </Position>
            <AltitudeMeters>75</AltitudeMeters>
            <DistanceMeters>NAN</DistanceMeters>
          </Trackpoint>
          <Trackpoint>
            <Time>2022-07-13T13:41:42.000Z</Time>
            <Position>
              <LatitudeDegrees>43.45561179332435131072998046875</LatitudeDegrees>
              <LongitudeDegrees>-3.63721079193055629730224609375</LongitudeDegrees>
            </Position>
            <AltitudeMeters>75</AltitudeMeters>
            <DistanceMeters>NAN</DistanceMeters>
          </Trackpoint>
          <Trackpoint>
            <Time>2022-07-13T13:41:44.000Z</Time>
            <Position>
              <LatitudeDegrees>43.4556254558265209197998046875</LatitudeDegrees>
              <LongitudeDegrees>-3.6373334191739559173583984375</LongitudeDegrees>
            </Position>
            <AltitudeMeters>75.1999969482421875</AltitudeMeters>
            <DistanceMeters>NAN</DistanceMeters>
          </Trackpoint>
          <Trackpoint>
            <Time>2022-07-13T13:41:50.000Z</Time>
            <Position>
              <LatitudeDegrees>43.45570935867726802825927734375</LatitudeDegrees>
              <LongitudeDegrees>-3.6374723911285400390625</LongitudeDegrees>
            </Position>
            <AltitudeMeters>75.1999969482421875</AltitudeMeters>
            <DistanceMeters>NAN</DistanceMeters>
          </Trackpoint>
          <Trackpoint>
            <Time>2022-07-13T13:42:39.000Z</Time>
            <Position>
              <LatitudeDegrees>43.45561665482819080352783203125</LatitudeDegrees>
              <LongitudeDegrees>-3.63725806586444377899169921875</LongitudeDegrees>
            </Position>
            <AltitudeMeters>74.8000030517578125</AltitudeMeters>
            <DistanceMeters>NAN</DistanceMeters>
          </Trackpoint>
          <Trackpoint>
            <Time>2022-07-13T13:42:44.000Z</Time>
            <Position>
              <LatitudeDegrees>43.45567683689296245574951171875</LatitudeDegrees>
              <LongitudeDegrees>-3.637337945401668548583984375</LongitudeDegrees>
            </Position>
            <AltitudeMeters>74.8000030517578125</AltitudeMeters>
            <DistanceMeters>NAN</DistanceMeters>
          </Trackpoint>
          <Trackpoint>
            <Time>2022-07-13T13:42:47.000Z</Time>
            <Position>
              <LatitudeDegrees>43.45566920936107635498046875</LatitudeDegrees>
              <LongitudeDegrees>-3.6373203434050083160400390625</LongitudeDegrees>
            </Position>
            <AltitudeMeters>74.8000030517578125</AltitudeMeters>
            <DistanceMeters>NAN</DistanceMeters>
          </Trackpoint>
          <Trackpoint>
            <Time>2022-07-13T13:42:52.000Z</Time>
            <Position>
              <LatitudeDegrees>43.45572561956942081451416015625</LatitudeDegrees>
              <LongitudeDegrees>-3.6373065970838069915771484375</LongitudeDegrees>
            </Position>
            <AltitudeMeters>74.8000030517578125</AltitudeMeters>
            <DistanceMeters>NAN</DistanceMeters>
          </Trackpoint>
          <Trackpoint>
            <Time>2022-07-13T13:42:55.000Z</Time>
            <Position>
              <LatitudeDegrees>43.45572712831199169158935546875</LatitudeDegrees>
              <LongitudeDegrees>-3.6372811160981655120849609375</LongitudeDegrees>
            </Position>
            <AltitudeMeters>74.8000030517578125</AltitudeMeters>
            <DistanceMeters>NAN</DistanceMeters>
          </Trackpoint>
          <Trackpoint>
            <Time>2022-07-13T13:43:09.000Z</Time>
            <Position>
              <LatitudeDegrees>43.4557827003300189971923828125</LatitudeDegrees>
              <LongitudeDegrees>-3.6373880691826343536376953125</LongitudeDegrees>
            </Position>
            <AltitudeMeters>74.59999847412109375</AltitudeMeters>
            <DistanceMeters>NAN</DistanceMeters>
          </Trackpoint>
          <Trackpoint>
            <Time>2022-07-13T13:43:10.000Z</Time>
            <Position>
              <LatitudeDegrees>43.4557910822331905364990234375</LatitudeDegrees>
              <LongitudeDegrees>-3.63739619962871074676513671875</LongitudeDegrees>
            </Position>
            <AltitudeMeters>74.59999847412109375</AltitudeMeters>
            <DistanceMeters>NAN</DistanceMeters>
          </Trackpoint>
          <Trackpoint>
            <Time>2022-07-13T13:46:04.000Z</Time>
            <Position>
              <LatitudeDegrees>43.45588135533034801483154296875</LatitudeDegrees>
              <LongitudeDegrees>-3.6374242790043354034423828125</LongitudeDegrees>
            </Position>
            <AltitudeMeters>74.40000152587890625</AltitudeMeters>
            <DistanceMeters>NAN</DistanceMeters>
          </Trackpoint>
          <Trackpoint>
            <Time>2022-07-13T13:46:08.000Z</Time>
            <Position>
              <LatitudeDegrees>43.4557364322245121002197265625</LatitudeDegrees>
              <LongitudeDegrees>-3.6371530406177043914794921875</LongitudeDegrees>
            </Position>
            <AltitudeMeters>74.40000152587890625</AltitudeMeters>
            <DistanceMeters>NAN</DistanceMeters>
          </Trackpoint>
          <Trackpoint>
            <Time>2022-07-13T13:46:11.000Z</Time>
            <Position>
              <LatitudeDegrees>43.45575780607759952545166015625</LatitudeDegrees>
              <LongitudeDegrees>-3.63730165176093578338623046875</LongitudeDegrees>
            </Position>
            <AltitudeMeters>74.40000152587890625</AltitudeMeters>
            <DistanceMeters>NAN</DistanceMeters>
          </Trackpoint>
          <Trackpoint>
            <Time>2022-07-13T13:46:18.000Z</Time>
            <Position>
              <LatitudeDegrees>43.45574724487960338592529296875</LatitudeDegrees>
              <LongitudeDegrees>-3.63736887462437152862548828125</LongitudeDegrees>
            </Position>
            <AltitudeMeters>74.1999969482421875</AltitudeMeters>
            <DistanceMeters>NAN</DistanceMeters>
          </Trackpoint>
          <Trackpoint>
            <Time>2022-07-13T13:46:19.000Z</Time>
            <Position>
              <LatitudeDegrees>43.45574221573770046234130859375</LatitudeDegrees>
              <LongitudeDegrees>-3.63737759180366992950439453125</LongitudeDegrees>
            </Position>
            <AltitudeMeters>74.1999969482421875</AltitudeMeters>
            <DistanceMeters>NAN</DistanceMeters>
          </Trackpoint>
          <Trackpoint>
            <Time>2022-07-13T14:11:42.000Z</Time>
            <Position>
              <LatitudeDegrees>43.45557759515941143035888671875</LatitudeDegrees>
              <LongitudeDegrees>-3.6372539587318897247314453125</LongitudeDegrees>
            </Position>
            <AltitudeMeters>76.40000152587890625</AltitudeMeters>
            <DistanceMeters>NAN</DistanceMeters>
          </Trackpoint>
          <Trackpoint>
            <Time>2022-07-13T14:11:43.000Z</Time>
            <Position>
              <LatitudeDegrees>43.4555708058178424835205078125</LatitudeDegrees>
              <LongitudeDegrees>-3.6372355185449123382568359375</LongitudeDegrees>
            </Position>
            <AltitudeMeters>78</AltitudeMeters>
            <DistanceMeters>NAN</DistanceMeters>
          </Trackpoint>
          <Trackpoint>
            <Time>2022-07-13T14:11:45.000Z</Time>
            <Position>
              <LatitudeDegrees>43.4555503539741039276123046875</LatitudeDegrees>
              <LongitudeDegrees>-3.6372001469135284423828125</LongitudeDegrees>
            </Position>
            <AltitudeMeters>79.1999969482421875</AltitudeMeters>
            <DistanceMeters>NAN</DistanceMeters>
          </Trackpoint>
          <Trackpoint>
            <Time>2022-07-13T14:11:49.000Z</Time>
            <Position>
              <LatitudeDegrees>43.455506600439548492431640625</LatitudeDegrees>
              <LongitudeDegrees>-3.63717374391853809356689453125</LongitudeDegrees>
            </Position>
            <AltitudeMeters>79.40000152587890625</AltitudeMeters>
            <DistanceMeters>NAN</DistanceMeters>
          </Trackpoint>
          <Trackpoint>
            <Time>2022-07-13T14:11:52.000Z</Time>
            <Position>
              <LatitudeDegrees>43.45546670258045196533203125</LatitudeDegrees>
              <LongitudeDegrees>-3.6371604166924953460693359375</LongitudeDegrees>
            </Position>
            <AltitudeMeters>79.1999969482421875</AltitudeMeters>
            <DistanceMeters>NAN</DistanceMeters>
          </Trackpoint>
          <Trackpoint>
            <Time>2022-07-13T14:11:53.000Z</Time>
            <Position>
              <LatitudeDegrees>43.4554548002779483795166015625</LatitudeDegrees>
              <LongitudeDegrees>-3.637154214084148406982421875</LongitudeDegrees>
            </Position>
            <AltitudeMeters>79</AltitudeMeters>
            <DistanceMeters>NAN</DistanceMeters>
          </Trackpoint>
          <Trackpoint>
            <Time>2022-07-13T14:11:55.000Z</Time>
            <Position>
              <LatitudeDegrees>43.45542638562619686126708984375</LatitudeDegrees>
              <LongitudeDegrees>-3.63714289851486682891845703125</LongitudeDegrees>
            </Position>
            <AltitudeMeters>79.1999969482421875</AltitudeMeters>
            <DistanceMeters>NAN</DistanceMeters>
          </Trackpoint>
          <Trackpoint>
            <Time>2022-07-13T14:11:58.000Z</Time>
            <Position>
              <LatitudeDegrees>43.4553884156048297882080078125</LatitudeDegrees>
              <LongitudeDegrees>-3.63713954575359821319580078125</LongitudeDegrees>
            </Position>
            <AltitudeMeters>79.1999969482421875</AltitudeMeters>
            <DistanceMeters>NAN</DistanceMeters>
          </Trackpoint>
          <Trackpoint>
            <Time>2022-07-13T14:12:02.000Z</Time>
            <Position>
              <LatitudeDegrees>43.4553455002605915069580078125</LatitudeDegrees>
              <LongitudeDegrees>-3.6371491849422454833984375</LongitudeDegrees>
            </Position>
            <AltitudeMeters>78.8000030517578125</AltitudeMeters>
            <DistanceMeters>NAN</DistanceMeters>
          </Trackpoint>
          <Trackpoint>
            <Time>2022-07-13T14:12:04.000Z</Time>
            <Position>
              <LatitudeDegrees>43.455342985689640045166015625</LatitudeDegrees>
              <LongitudeDegrees>-3.63714390434324741363525390625</LongitudeDegrees>
            </Position>
            <AltitudeMeters>78.59999847412109375</AltitudeMeters>
            <DistanceMeters>NAN</DistanceMeters>
          </Trackpoint>
          <Trackpoint>
            <Time>2022-07-13T14:12:09.000Z</Time>
            <Position>
              <LatitudeDegrees>43.45533125102519989013671875</LatitudeDegrees>
              <LongitudeDegrees>-3.63712630234658718109130859375</LongitudeDegrees>
            </Position>
            <AltitudeMeters>78.59999847412109375</AltitudeMeters>
            <DistanceMeters>NAN</DistanceMeters>
          </Trackpoint>
          <Trackpoint>
            <Time>2022-07-13T14:18:05.000Z</Time>
            <Position>
              <LatitudeDegrees>43.45557658933103084564208984375</LatitudeDegrees>
              <LongitudeDegrees>-3.63726577721536159515380859375</LongitudeDegrees>
            </Position>
            <AltitudeMeters>75.40000152587890625</AltitudeMeters>
            <DistanceMeters>NAN</DistanceMeters>
          </Trackpoint>
          <Trackpoint>
            <Time>2022-07-13T14:18:06.000Z</Time>
            <Position>
              <LatitudeDegrees>43.45556996762752532958984375</LatitudeDegrees>
              <LongitudeDegrees>-3.63724683411419391632080078125</LongitudeDegrees>
            </Position>
            <AltitudeMeters>75.40000152587890625</AltitudeMeters>
            <DistanceMeters>NAN</DistanceMeters>
          </Trackpoint>
          <Trackpoint>
            <Time>2022-07-13T14:18:08.000Z</Time>
            <Position>
              <LatitudeDegrees>43.45554758794605731964111328125</LatitudeDegrees>
              <LongitudeDegrees>-3.63720861263573169708251953125</LongitudeDegrees>
            </Position>
            <AltitudeMeters>75.40000152587890625</AltitudeMeters>
            <DistanceMeters>NAN</DistanceMeters>
          </Trackpoint>
          <Trackpoint>
            <Time>2022-07-13T14:18:10.000Z</Time>
            <Position>
              <LatitudeDegrees>43.4555255435407161712646484375</LatitudeDegrees>
              <LongitudeDegrees>-3.63718631677329540252685546875</LongitudeDegrees>
            </Position>
            <AltitudeMeters>77</AltitudeMeters>
            <DistanceMeters>NAN</DistanceMeters>
          </Trackpoint>
          <Trackpoint>
            <Time>2022-07-13T14:18:15.000Z</Time>
            <Position>
              <LatitudeDegrees>43.45546066761016845703125</LatitudeDegrees>
              <LongitudeDegrees>-3.6371403001248836517333984375</LongitudeDegrees>
            </Position>
            <AltitudeMeters>77.40000152587890625</AltitudeMeters>
            <DistanceMeters>NAN</DistanceMeters>
          </Trackpoint>
          <Trackpoint>
            <Time>2022-07-13T14:18:18.000Z</Time>
            <Position>
              <LatitudeDegrees>43.4554249607026576995849609375</LatitudeDegrees>
              <LongitudeDegrees>-3.63712227903306484222412109375</LongitudeDegrees>
            </Position>
            <AltitudeMeters>77</AltitudeMeters>
            <DistanceMeters>NAN</DistanceMeters>
          </Trackpoint>
          <Trackpoint>
            <Time>2022-07-13T14:18:26.000Z</Time>
            <Position>
              <LatitudeDegrees>43.4553304128348827362060546875</LatitudeDegrees>
              <LongitudeDegrees>-3.6370947025716304779052734375</LongitudeDegrees>
            </Position>
            <AltitudeMeters>76.40000152587890625</AltitudeMeters>
            <DistanceMeters>NAN</DistanceMeters>
          </Trackpoint>
          <Trackpoint>
            <Time>2022-07-13T14:18:28.000Z</Time>
            <Position>
              <LatitudeDegrees>43.45533393323421478271484375</LatitudeDegrees>
              <LongitudeDegrees>-3.637101240456104278564453125</LongitudeDegrees>
            </Position>
            <AltitudeMeters>76.1999969482421875</AltitudeMeters>
            <DistanceMeters>NAN</DistanceMeters>
          </Trackpoint>
          <Trackpoint>
            <Time>2022-07-13T14:19:02.000Z</Time>
            <Position>
              <LatitudeDegrees>43.45532278530299663543701171875</LatitudeDegrees>
              <LongitudeDegrees>-3.63708439283072948455810546875</LongitudeDegrees>
            </Position>
            <AltitudeMeters>76.1999969482421875</AltitudeMeters>
            <DistanceMeters>NAN</DistanceMeters>
          </Trackpoint>
          <Trackpoint>
            <Time>2022-07-13T14:19:03.000Z</Time>
            <Position>
              <LatitudeDegrees>43.455359749495983123779296875</LatitudeDegrees>
              <LongitudeDegrees>-3.63709679804742336273193359375</LongitudeDegrees>
            </Position>
            <AltitudeMeters>76.1999969482421875</AltitudeMeters>
            <DistanceMeters>NAN</DistanceMeters>
          </Trackpoint>
          <Trackpoint>
            <Time>2022-07-13T14:19:07.000Z</Time>
            <Position>
              <LatitudeDegrees>43.45542152412235736846923828125</LatitudeDegrees>
              <LongitudeDegrees>-3.63711356185376644134521484375</LongitudeDegrees>
            </Position>
            <AltitudeMeters>76.40000152587890625</AltitudeMeters>
            <DistanceMeters>NAN</DistanceMeters>
          </Trackpoint>
          <Trackpoint>
            <Time>2022-07-13T14:19:09.000Z</Time>
            <Position>
              <LatitudeDegrees>43.45545169897377490997314453125</LatitudeDegrees>
              <LongitudeDegrees>-3.637122027575969696044921875</LongitudeDegrees>
            </Position>
            <AltitudeMeters>76.40000152587890625</AltitudeMeters>
            <DistanceMeters>NAN</DistanceMeters>
          </Trackpoint>
          <Trackpoint>
            <Time>2022-07-13T14:19:13.000Z</Time>
            <Position>
              <LatitudeDegrees>43.45549176447093486785888671875</LatitudeDegrees>
              <LongitudeDegrees>-3.637153543531894683837890625</LongitudeDegrees>
            </Position>
            <AltitudeMeters>76.8000030517578125</AltitudeMeters>
            <DistanceMeters>NAN</DistanceMeters>
          </Trackpoint>
          <Trackpoint>
            <Time>2022-07-13T14:19:16.000Z</Time>
            <Position>
              <LatitudeDegrees>43.4555201791226863861083984375</LatitudeDegrees>
              <LongitudeDegrees>-3.63717994652688503265380859375</LongitudeDegrees>
            </Position>
            <AltitudeMeters>77</AltitudeMeters>
            <DistanceMeters>NAN</DistanceMeters>
          </Trackpoint>
          <Trackpoint>
            <Time>2022-07-13T14:19:22.000Z</Time>
            <Position>
              <LatitudeDegrees>43.455547504127025604248046875</LatitudeDegrees>
              <LongitudeDegrees>-3.6372672021389007568359375</LongitudeDegrees>
            </Position>
            <AltitudeMeters>77.1999969482421875</AltitudeMeters>
            <DistanceMeters>NAN</DistanceMeters>
          </Trackpoint>
          <Trackpoint>
            <Time>2022-07-13T14:19:25.000Z</Time>
            <Position>
              <LatitudeDegrees>43.4555486775934696197509765625</LatitudeDegrees>
              <LongitudeDegrees>-3.63730802200734615325927734375</LongitudeDegrees>
            </Position>
            <AltitudeMeters>77.1999969482421875</AltitudeMeters>
            <DistanceMeters>NAN</DistanceMeters>
          </Trackpoint>
          <Trackpoint>
            <Time>2022-07-13T14:19:28.000Z</Time>
            <Position>
              <LatitudeDegrees>43.45555161125957965850830078125</LatitudeDegrees>
              <LongitudeDegrees>-3.63731422461569309234619140625</LongitudeDegrees>
            </Position>
            <AltitudeMeters>77.1999969482421875</AltitudeMeters>
            <DistanceMeters>NAN</DistanceMeters>
          </Trackpoint>
          <Trackpoint>
            <Time>2022-07-13T14:20:44.000Z</Time>
            <Position>
              <LatitudeDegrees>43.4556884877383708953857421875</LatitudeDegrees>
              <LongitudeDegrees>-3.63729947246611118316650390625</LongitudeDegrees>
            </Position>
            <AltitudeMeters>79.59999847412109375</AltitudeMeters>
            <DistanceMeters>NAN</DistanceMeters>
          </Trackpoint>
          <Trackpoint>
            <Time>2022-07-13T14:20:47.000Z</Time>
            <Position>
              <LatitudeDegrees>43.455716483294963836669921875</LatitudeDegrees>
              <LongitudeDegrees>-3.63734037615358829498291015625</LongitudeDegrees>
            </Position>
            <AltitudeMeters>79.8000030517578125</AltitudeMeters>
            <DistanceMeters>NAN</DistanceMeters>
          </Trackpoint>
          <Trackpoint>
            <Time>2022-07-13T14:20:53.000Z</Time>
            <Position>
              <LatitudeDegrees>43.455719836056232452392578125</LatitudeDegrees>
              <LongitudeDegrees>-3.6375094391405582427978515625</LongitudeDegrees>
            </Position>
            <AltitudeMeters>79.8000030517578125</AltitudeMeters>
            <DistanceMeters>NAN</DistanceMeters>
          </Trackpoint>
          <Trackpoint>
            <Time>2022-07-13T14:20:58.000Z</Time>
            <Position>
              <LatitudeDegrees>43.45570818521082401275634765625</LatitudeDegrees>
              <LongitudeDegrees>-3.637695349752902984619140625</LongitudeDegrees>
            </Position>
            <AltitudeMeters>79.1999969482421875</AltitudeMeters>
            <DistanceMeters>NAN</DistanceMeters>
          </Trackpoint>
          <Trackpoint>
            <Time>2022-07-13T14:21:00.000Z</Time>
            <Position>
              <LatitudeDegrees>43.45570298843085765838623046875</LatitudeDegrees>
              <LongitudeDegrees>-3.63777623511850833892822265625</LongitudeDegrees>
            </Position>
            <AltitudeMeters>79</AltitudeMeters>
            <DistanceMeters>NAN</DistanceMeters>
          </Trackpoint>
          <Trackpoint>
            <Time>2022-07-13T14:21:03.000Z</Time>
            <Position>
              <LatitudeDegrees>43.45568320713937282562255859375</LatitudeDegrees>
              <LongitudeDegrees>-3.63789894618093967437744140625</LongitudeDegrees>
            </Position>
            <AltitudeMeters>79</AltitudeMeters>
            <DistanceMeters>NAN</DistanceMeters>
          </Trackpoint>
          <Trackpoint>
            <Time>2022-07-13T14:21:04.000Z</Time>
            <Position>
              <LatitudeDegrees>43.45567935146391391754150390625</LatitudeDegrees>
              <LongitudeDegrees>-3.63794102333486080169677734375</LongitudeDegrees>
            </Position>
            <AltitudeMeters>79</AltitudeMeters>
            <DistanceMeters>NAN</DistanceMeters>
          </Trackpoint>
          <Trackpoint>
            <Time>2022-07-13T14:21:07.000Z</Time>
            <Position>
              <LatitudeDegrees>43.455672226846218109130859375</LatitudeDegrees>
              <LongitudeDegrees>-3.63806474022567272186279296875</LongitudeDegrees>
            </Position>
            <AltitudeMeters>79</AltitudeMeters>
            <DistanceMeters>NAN</DistanceMeters>
          </Trackpoint>
          <Trackpoint>
            <Time>2022-07-13T14:21:11.000Z</Time>
            <Position>
              <LatitudeDegrees>43.45567247830331325531005859375</LatitudeDegrees>
              <LongitudeDegrees>-3.63820740021765232086181640625</LongitudeDegrees>
            </Position>
            <AltitudeMeters>79</AltitudeMeters>
            <DistanceMeters>NAN</DistanceMeters>
          </Trackpoint>
          <Trackpoint>
            <Time>2022-07-13T14:21:14.000Z</Time>
            <Position>
              <LatitudeDegrees>43.45565018244087696075439453125</LatitudeDegrees>
              <LongitudeDegrees>-3.638324998319149017333984375</LongitudeDegrees>
            </Position>
            <AltitudeMeters>79</AltitudeMeters>
            <DistanceMeters>NAN</DistanceMeters>
          </Trackpoint>
          <Trackpoint>
            <Time>2022-07-13T14:21:22.000Z</Time>
            <Position>
              <LatitudeDegrees>43.45557801425457000732421875</LatitudeDegrees>
              <LongitudeDegrees>-3.6386259086430072784423828125</LongitudeDegrees>
            </Position>
            <AltitudeMeters>79.40000152587890625</AltitudeMeters>
            <DistanceMeters>NAN</DistanceMeters>
          </Trackpoint>
          <Trackpoint>
            <Time>2022-07-13T14:21:29.000Z</Time>
            <Position>
              <LatitudeDegrees>43.4555369429290294647216796875</LatitudeDegrees>
              <LongitudeDegrees>-3.63885867409408092498779296875</LongitudeDegrees>
            </Position>
            <AltitudeMeters>79.8000030517578125</AltitudeMeters>
            <DistanceMeters>NAN</DistanceMeters>
          </Trackpoint>
          <Trackpoint>
            <Time>2022-07-13T14:21:36.000Z</Time>
            <Position>
              <LatitudeDegrees>43.45550358295440673828125</LatitudeDegrees>
              <LongitudeDegrees>-3.63909001462161540985107421875</LongitudeDegrees>
            </Position>
            <AltitudeMeters>80.1999969482421875</AltitudeMeters>
            <DistanceMeters>NAN</DistanceMeters>
          </Trackpoint>
          <Trackpoint>
            <Time>2022-07-13T14:21:44.000Z</Time>
            <Position>
              <LatitudeDegrees>43.45541381277143955230712890625</LatitudeDegrees>
              <LongitudeDegrees>-3.6393561400473117828369140625</LongitudeDegrees>
            </Position>
            <AltitudeMeters>80.1999969482421875</AltitudeMeters>
            <DistanceMeters>NAN</DistanceMeters>
          </Trackpoint>
          <Trackpoint>
            <Time>2022-07-13T14:21:52.000Z</Time>
            <Position>
              <LatitudeDegrees>43.45530786551535129547119140625</LatitudeDegrees>
              <LongitudeDegrees>-3.63965059630572795867919921875</LongitudeDegrees>
            </Position>
            <AltitudeMeters>80</AltitudeMeters>
            <DistanceMeters>NAN</DistanceMeters>
          </Trackpoint>
          <Trackpoint>
            <Time>2022-07-13T14:22:00.000Z</Time>
            <Position>
              <LatitudeDegrees>43.4552492760121822357177734375</LatitudeDegrees>
              <LongitudeDegrees>-3.63994647748768329620361328125</LongitudeDegrees>
            </Position>
            <AltitudeMeters>79.59999847412109375</AltitudeMeters>
            <DistanceMeters>NAN</DistanceMeters>
          </Trackpoint>
          <Trackpoint>
            <Time>2022-07-13T14:22:05.000Z</Time>
            <Position>
              <LatitudeDegrees>43.45519219525158405303955078125</LatitudeDegrees>
              <LongitudeDegrees>-3.6401554383337497711181640625</LongitudeDegrees>
            </Position>
            <AltitudeMeters>79.8000030517578125</AltitudeMeters>
            <DistanceMeters>NAN</DistanceMeters>
          </Trackpoint>
          <Trackpoint>
            <Time>2022-07-13T14:22:06.000Z</Time>
            <Position>
              <LatitudeDegrees>43.45518750138580799102783203125</LatitudeDegrees>
              <LongitudeDegrees>-3.64019550383090972900390625</LongitudeDegrees>
            </Position>
            <AltitudeMeters>79.8000030517578125</AltitudeMeters>
            <DistanceMeters>NAN</DistanceMeters>
          </Trackpoint>
          <Trackpoint>
            <Time>2022-07-13T14:22:08.000Z</Time>
            <Position>
              <LatitudeDegrees>43.455179370939731597900390625</LatitudeDegrees>
              <LongitudeDegrees>-3.6402712762355804443359375</LongitudeDegrees>
            </Position>
            <AltitudeMeters>79.8000030517578125</AltitudeMeters>
            <DistanceMeters>NAN</DistanceMeters>
          </Trackpoint>
          <Trackpoint>
            <Time>2022-07-13T14:22:14.000Z</Time>
            <Position>
              <LatitudeDegrees>43.45512363128364086151123046875</LatitudeDegrees>
              <LongitudeDegrees>-3.6404793150722980499267578125</LongitudeDegrees>
            </Position>
            <AltitudeMeters>80</AltitudeMeters>
            <DistanceMeters>NAN</DistanceMeters>
          </Trackpoint>
          <Trackpoint>
            <Time>2022-07-13T14:22:16.000Z</Time>
            <Position>
              <LatitudeDegrees>43.45510854385793209075927734375</LatitudeDegrees>
              <LongitudeDegrees>-3.64056564867496490478515625</LongitudeDegrees>
            </Position>
            <AltitudeMeters>80</AltitudeMeters>
            <DistanceMeters>NAN</DistanceMeters>
          </Trackpoint>
          <Trackpoint>
            <Time>2022-07-13T14:22:22.000Z</Time>
            <Position>
              <LatitudeDegrees>43.4550524689257144927978515625</LatitudeDegrees>
              <LongitudeDegrees>-3.64084267057478427886962890625</LongitudeDegrees>
            </Position>
            <AltitudeMeters>79.8000030517578125</AltitudeMeters>
            <DistanceMeters>NAN</DistanceMeters>
          </Trackpoint>
          <Trackpoint>
            <Time>2022-07-13T14:22:32.000Z</Time>
            <Position>
              <LatitudeDegrees>43.454915843904018402099609375</LatitudeDegrees>
              <LongitudeDegrees>-3.64127752371132373809814453125</LongitudeDegrees>
            </Position>
            <AltitudeMeters>79.40000152587890625</AltitudeMeters>
            <DistanceMeters>NAN</DistanceMeters>
          </Trackpoint>
          <Trackpoint>
            <Time>2022-07-13T14:22:40.000Z</Time>
            <Position>
              <LatitudeDegrees>43.4548211283981800079345703125</LatitudeDegrees>
              <LongitudeDegrees>-3.64161179400980472564697265625</LongitudeDegrees>
            </Position>
            <AltitudeMeters>79.1999969482421875</AltitudeMeters>
            <DistanceMeters>NAN</DistanceMeters>
          </Trackpoint>
          <Trackpoint>
            <Time>2022-07-13T14:22:49.000Z</Time>
            <Position>
              <LatitudeDegrees>43.4547751955687999725341796875</LatitudeDegrees>
              <LongitudeDegrees>-3.6419396102428436279296875</LongitudeDegrees>
            </Position>
            <AltitudeMeters>79.59999847412109375</AltitudeMeters>
            <DistanceMeters>NAN</DistanceMeters>
          </Trackpoint>
          <Trackpoint>
            <Time>2022-07-13T14:22:57.000Z</Time>
            <Position>
              <LatitudeDegrees>43.4547244012355804443359375</LatitudeDegrees>
              <LongitudeDegrees>-3.64220255054533481597900390625</LongitudeDegrees>
            </Position>
            <AltitudeMeters>79.8000030517578125</AltitudeMeters>
            <DistanceMeters>NAN</DistanceMeters>
          </Trackpoint>
          <Trackpoint>
            <Time>2022-07-13T14:22:59.000Z</Time>
            <Position>
              <LatitudeDegrees>43.45471476204693317413330078125</LatitudeDegrees>
              <LongitudeDegrees>-3.64227262325584888458251953125</LongitudeDegrees>
            </Position>
            <AltitudeMeters>79.8000030517578125</AltitudeMeters>
            <DistanceMeters>NAN</DistanceMeters>
          </Trackpoint>
          <Trackpoint>
            <Time>2022-07-13T14:23:04.000Z</Time>
            <Position>
              <LatitudeDegrees>43.4546796418726444244384765625</LatitudeDegrees>
              <LongitudeDegrees>-3.64243917167186737060546875</LongitudeDegrees>
            </Position>
            <AltitudeMeters>80.1999969482421875</AltitudeMeters>
            <DistanceMeters>NAN</DistanceMeters>
          </Trackpoint>
          <Trackpoint>
            <Time>2022-07-13T14:23:05.000Z</Time>
            <Position>
              <LatitudeDegrees>43.4546749480068683624267578125</LatitudeDegrees>
              <LongitudeDegrees>-3.64247445948421955108642578125</LongitudeDegrees>
            </Position>
            <AltitudeMeters>80.40000152587890625</AltitudeMeters>
            <DistanceMeters>NAN</DistanceMeters>
          </Trackpoint>
          <Trackpoint>
            <Time>2022-07-13T14:23:09.000Z</Time>
            <Position>
              <LatitudeDegrees>43.454653322696685791015625</LatitudeDegrees>
              <LongitudeDegrees>-3.64261074922978878021240234375</LongitudeDegrees>
            </Position>
            <AltitudeMeters>80.59999847412109375</AltitudeMeters>
            <DistanceMeters>NAN</DistanceMeters>
          </Trackpoint>
          <Trackpoint>
            <Time>2022-07-13T14:23:10.000Z</Time>
            <Position>
              <LatitudeDegrees>43.45464770682156085968017578125</LatitudeDegrees>
              <LongitudeDegrees>-3.64264243282377719879150390625</LongitudeDegrees>
            </Position>
            <AltitudeMeters>80.59999847412109375</AltitudeMeters>
            <DistanceMeters>NAN</DistanceMeters>
          </Trackpoint>
          <Trackpoint>
            <Time>2022-07-13T14:23:16.000Z</Time>
            <Position>
              <LatitudeDegrees>43.45460713841021060943603515625</LatitudeDegrees>
              <LongitudeDegrees>-3.64283136092126369476318359375</LongitudeDegrees>
            </Position>
            <AltitudeMeters>81</AltitudeMeters>
            <DistanceMeters>NAN</DistanceMeters>
          </Trackpoint>
          <Trackpoint>
            <Time>2022-07-13T14:23:21.000Z</Time>
            <Position>
              <LatitudeDegrees>43.45458920113742351531982421875</LatitudeDegrees>
              <LongitudeDegrees>-3.64297636784613132476806640625</LongitudeDegrees>
            </Position>
            <AltitudeMeters>81.40000152587890625</AltitudeMeters>
            <DistanceMeters>NAN</DistanceMeters>
          </Trackpoint>
          <Trackpoint>
            <Time>2022-07-13T14:23:22.000Z</Time>
            <Position>
              <LatitudeDegrees>43.45458501018583774566650390625</LatitudeDegrees>
              <LongitudeDegrees>-3.64300436340272426605224609375</LongitudeDegrees>
            </Position>
            <AltitudeMeters>81.40000152587890625</AltitudeMeters>
            <DistanceMeters>NAN</DistanceMeters>
          </Trackpoint>
          <Trackpoint>
            <Time>2022-07-13T14:23:24.000Z</Time>
            <Position>
              <LatitudeDegrees>43.45457847230136394500732421875</LatitudeDegrees>
              <LongitudeDegrees>-3.64305733703076839447021484375</LongitudeDegrees>
            </Position>
            <AltitudeMeters>81.8000030517578125</AltitudeMeters>
            <DistanceMeters>NAN</DistanceMeters>
          </Trackpoint>
          <Trackpoint>
            <Time>2022-07-13T14:23:25.000Z</Time>
            <Position>
              <LatitudeDegrees>43.45457579009234905242919921875</LatitudeDegrees>
              <LongitudeDegrees>-3.64308415912091732025146484375</LongitudeDegrees>
            </Position>
            <AltitudeMeters>82</AltitudeMeters>
            <DistanceMeters>NAN</DistanceMeters>
          </Trackpoint>
          <Trackpoint>
            <Time>2022-07-13T14:23:27.000Z</Time>
            <Position>
              <LatitudeDegrees>43.4545700065791606903076171875</LatitudeDegrees>
              <LongitudeDegrees>-3.643135540187358856201171875</LongitudeDegrees>
            </Position>
            <AltitudeMeters>82.1999969482421875</AltitudeMeters>
            <DistanceMeters>NAN</DistanceMeters>
          </Trackpoint>
          <Trackpoint>
            <Time>2022-07-13T14:23:28.000Z</Time>
            <Position>
              <LatitudeDegrees>43.4545679949223995208740234375</LatitudeDegrees>
              <LongitudeDegrees>-3.64315825514495372772216796875</LongitudeDegrees>
            </Position>
            <AltitudeMeters>82.1999969482421875</AltitudeMeters>
            <DistanceMeters>NAN</DistanceMeters>
          </Trackpoint>
          <Trackpoint>
            <Time>2022-07-13T14:23:32.000Z</Time>
            <Position>
              <LatitudeDegrees>43.4545391611754894256591796875</LatitudeDegrees>
              <LongitudeDegrees>-3.64326152019202709197998046875</LongitudeDegrees>
            </Position>
            <AltitudeMeters>82.40000152587890625</AltitudeMeters>
            <DistanceMeters>NAN</DistanceMeters>
          </Trackpoint>
          <Trackpoint>
            <Time>2022-07-13T14:23:34.000Z</Time>
            <Position>
              <LatitudeDegrees>43.45453388057649135589599609375</LatitudeDegrees>
              <LongitudeDegrees>-3.643305860459804534912109375</LongitudeDegrees>
            </Position>
            <AltitudeMeters>82.40000152587890625</AltitudeMeters>
            <DistanceMeters>NAN</DistanceMeters>
          </Trackpoint>
          <Trackpoint>
            <Time>2022-07-13T14:23:39.000Z</Time>
            <Position>
              <LatitudeDegrees>43.45453597605228424072265625</LatitudeDegrees>
              <LongitudeDegrees>-3.6434166692197322845458984375</LongitudeDegrees>
            </Position>
            <AltitudeMeters>82.8000030517578125</AltitudeMeters>
            <DistanceMeters>NAN</DistanceMeters>
          </Trackpoint>
          <Trackpoint>
            <Time>2022-07-13T14:23:44.000Z</Time>
            <Position>
              <LatitudeDegrees>43.45451728440821170806884765625</LatitudeDegrees>
              <LongitudeDegrees>-3.6435474269092082977294921875</LongitudeDegrees>
            </Position>
            <AltitudeMeters>83.40000152587890625</AltitudeMeters>
            <DistanceMeters>NAN</DistanceMeters>
          </Trackpoint>
          <Trackpoint>
            <Time>2022-07-13T14:23:49.000Z</Time>
            <Position>
              <LatitudeDegrees>43.45450286753475666046142578125</LatitudeDegrees>
              <LongitudeDegrees>-3.643681704998016357421875</LongitudeDegrees>
            </Position>
            <AltitudeMeters>83.8000030517578125</AltitudeMeters>
            <DistanceMeters>NAN</DistanceMeters>
          </Trackpoint>
          <Trackpoint>
            <Time>2022-07-13T14:23:55.000Z</Time>
            <Position>
              <LatitudeDegrees>43.45447654835879802703857421875</LatitudeDegrees>
              <LongitudeDegrees>-3.64382897503674030303955078125</LongitudeDegrees>
            </Position>
            <AltitudeMeters>84.40000152587890625</AltitudeMeters>
            <DistanceMeters>NAN</DistanceMeters>
          </Trackpoint>
          <Trackpoint>
            <Time>2022-07-13T14:24:03.000Z</Time>
            <Position>
              <LatitudeDegrees>43.45445341430604457855224609375</LatitudeDegrees>
              <LongitudeDegrees>-3.64400281570851802825927734375</LongitudeDegrees>
            </Position>
            <AltitudeMeters>84.40000152587890625</AltitudeMeters>
            <DistanceMeters>NAN</DistanceMeters>
          </Trackpoint>
          <Trackpoint>
            <Time>2022-07-13T14:24:09.000Z</Time>
            <Position>
              <LatitudeDegrees>43.45443564467132091522216796875</LatitudeDegrees>
              <LongitudeDegrees>-3.6441133730113506317138671875</LongitudeDegrees>
            </Position>
            <AltitudeMeters>84.8000030517578125</AltitudeMeters>
            <DistanceMeters>NAN</DistanceMeters>
          </Trackpoint>
          <Trackpoint>
            <Time>2022-07-13T14:24:10.000Z</Time>
            <Position>
              <LatitudeDegrees>43.45443011261522769927978515625</LatitudeDegrees>
              <LongitudeDegrees>-3.64413298666477203369140625</LongitudeDegrees>
            </Position>
            <AltitudeMeters>85</AltitudeMeters>
            <DistanceMeters>NAN</DistanceMeters>
          </Trackpoint>
          <Trackpoint>
            <Time>2022-07-13T14:24:17.000Z</Time>
            <Position>
              <LatitudeDegrees>43.4543986804783344268798828125</LatitudeDegrees>
              <LongitudeDegrees>-3.64423901773989200592041015625</LongitudeDegrees>
            </Position>
            <AltitudeMeters>85.59999847412109375</AltitudeMeters>
            <DistanceMeters>NAN</DistanceMeters>
          </Trackpoint>
          <Trackpoint>
            <Time>2022-07-13T14:24:18.000Z</Time>
            <Position>
              <LatitudeDegrees>43.45439113676548004150390625</LatitudeDegrees>
              <LongitudeDegrees>-3.64424790255725383758544921875</LongitudeDegrees>
            </Position>
            <AltitudeMeters>85.59999847412109375</AltitudeMeters>
            <DistanceMeters>NAN</DistanceMeters>
          </Trackpoint>
          <Trackpoint>
            <Time>2022-07-13T14:24:21.000Z</Time>
            <Position>
              <LatitudeDegrees>43.45437713898718357086181640625</LatitudeDegrees>
              <LongitudeDegrees>-3.6442753113806247711181640625</LongitudeDegrees>
            </Position>
            <AltitudeMeters>85.40000152587890625</AltitudeMeters>
            <DistanceMeters>NAN</DistanceMeters>
          </Trackpoint>
          <Trackpoint>
            <Time>2022-07-13T14:24:22.000Z</Time>
            <Position>
              <LatitudeDegrees>43.45437370240688323974609375</LatitudeDegrees>
              <LongitudeDegrees>-3.64427782595157623291015625</LongitudeDegrees>
            </Position>
            <AltitudeMeters>85.40000152587890625</AltitudeMeters>
            <DistanceMeters>NAN</DistanceMeters>
          </Trackpoint>
          <Trackpoint>
            <Time>2022-07-13T14:24:23.000Z</Time>
            <Position>
              <LatitudeDegrees>43.4543691761791706085205078125</LatitudeDegrees>
              <LongitudeDegrees>-3.64427975378930568695068359375</LongitudeDegrees>
            </Position>
            <AltitudeMeters>85.40000152587890625</AltitudeMeters>
            <DistanceMeters>NAN</DistanceMeters>
          </Trackpoint>
          <Trackpoint>
            <Time>2022-07-13T14:24:24.000Z</Time>
            <Position>
              <LatitudeDegrees>43.4543674997985363006591796875</LatitudeDegrees>
              <LongitudeDegrees>-3.6442806757986545562744140625</LongitudeDegrees>
            </Position>
            <AltitudeMeters>85.40000152587890625</AltitudeMeters>
            <DistanceMeters>NAN</DistanceMeters>
          </Trackpoint>
          <Trackpoint>
            <Time>2022-07-13T14:25:01.000Z</Time>
            <Position>
              <LatitudeDegrees>43.45436506904661655426025390625</LatitudeDegrees>
              <LongitudeDegrees>-3.6442934162914752960205078125</LongitudeDegrees>
            </Position>
            <AltitudeMeters>86.59999847412109375</AltitudeMeters>
            <DistanceMeters>NAN</DistanceMeters>
          </Trackpoint>
          <Trackpoint>
            <Time>2022-07-13T14:25:03.000Z</Time>
            <Position>
              <LatitudeDegrees>43.4543685056269168853759765625</LatitudeDegrees>
              <LongitudeDegrees>-3.644361309707164764404296875</LongitudeDegrees>
            </Position>
            <AltitudeMeters>86.8000030517578125</AltitudeMeters>
            <DistanceMeters>NAN</DistanceMeters>
          </Trackpoint>
          <Trackpoint>
            <Time>2022-07-13T14:25:09.000Z</Time>
            <Position>
              <LatitudeDegrees>43.4543805755674839019775390625</LatitudeDegrees>
              <LongitudeDegrees>-3.6445794068276882171630859375</LongitudeDegrees>
            </Position>
            <AltitudeMeters>87.59999847412109375</AltitudeMeters>
            <DistanceMeters>NAN</DistanceMeters>
          </Trackpoint>
          <Trackpoint>
            <Time>2022-07-13T14:25:10.000Z</Time>
            <Position>
              <LatitudeDegrees>43.45437680371105670928955078125</LatitudeDegrees>
              <LongitudeDegrees>-3.64460564218461513519287109375</LongitudeDegrees>
            </Position>
            <AltitudeMeters>87.59999847412109375</AltitudeMeters>
            <DistanceMeters>NAN</DistanceMeters>
          </Trackpoint>
          <Trackpoint>
            <Time>2022-07-13T14:25:17.000Z</Time>
            <Position>
              <LatitudeDegrees>43.45434746704995632171630859375</LatitudeDegrees>
              <LongitudeDegrees>-3.64479674957692623138427734375</LongitudeDegrees>
            </Position>
            <AltitudeMeters>88.8000030517578125</AltitudeMeters>
            <DistanceMeters>NAN</DistanceMeters>
          </Trackpoint>
          <Trackpoint>
            <Time>2022-07-13T14:25:18.000Z</Time>
            <Position>
              <LatitudeDegrees>43.4543369896709918975830078125</LatitudeDegrees>
              <LongitudeDegrees>-3.64481753669679164886474609375</LongitudeDegrees>
            </Position>
            <AltitudeMeters>89</AltitudeMeters>
            <DistanceMeters>NAN</DistanceMeters>
          </Trackpoint>
          <Trackpoint>
            <Time>2022-07-13T14:25:21.000Z</Time>
            <Position>
              <LatitudeDegrees>43.45431595109403133392333984375</LatitudeDegrees>
              <LongitudeDegrees>-3.644879646599292755126953125</LongitudeDegrees>
            </Position>
            <AltitudeMeters>89.8000030517578125</AltitudeMeters>
            <DistanceMeters>NAN</DistanceMeters>
          </Trackpoint>
          <Trackpoint>
            <Time>2022-07-13T14:25:23.000Z</Time>
            <Position>
              <LatitudeDegrees>43.45429868437349796295166015625</LatitudeDegrees>
              <LongitudeDegrees>-3.64492717199027538299560546875</LongitudeDegrees>
            </Position>
            <AltitudeMeters>90</AltitudeMeters>
            <DistanceMeters>NAN</DistanceMeters>
          </Trackpoint>
          <Trackpoint>
            <Time>2022-07-13T14:25:24.000Z</Time>
            <Position>
              <LatitudeDegrees>43.4542944096028804779052734375</LatitudeDegrees>
              <LongitudeDegrees>-3.64495181478559970855712890625</LongitudeDegrees>
            </Position>
            <AltitudeMeters>90.1999969482421875</AltitudeMeters>
            <DistanceMeters>NAN</DistanceMeters>
          </Trackpoint>
          <Trackpoint>
            <Time>2022-07-13T14:25:30.000Z</Time>
            <Position>
              <LatitudeDegrees>43.4542565234005451202392578125</LatitudeDegrees>
              <LongitudeDegrees>-3.64515549503266811370849609375</LongitudeDegrees>
            </Position>
            <AltitudeMeters>90.8000030517578125</AltitudeMeters>
            <DistanceMeters>NAN</DistanceMeters>
          </Trackpoint>
          <Trackpoint>
            <Time>2022-07-13T14:25:31.000Z</Time>
            <Position>
              <LatitudeDegrees>43.45425392501056194305419921875</LatitudeDegrees>
              <LongitudeDegrees>-3.64519556052982807159423828125</LongitudeDegrees>
            </Position>
            <AltitudeMeters>90.8000030517578125</AltitudeMeters>
            <DistanceMeters>NAN</DistanceMeters>
          </Trackpoint>
          <Trackpoint>
            <Time>2022-07-13T14:25:35.000Z</Time>
            <Position>
              <LatitudeDegrees>43.45424084924161434173583984375</LatitudeDegrees>
              <LongitudeDegrees>-3.6453025974333286285400390625</LongitudeDegrees>
            </Position>
            <AltitudeMeters>91.1999969482421875</AltitudeMeters>
            <DistanceMeters>NAN</DistanceMeters>
          </Trackpoint>
          <Trackpoint>
            <Time>2022-07-13T14:25:37.000Z</Time>
            <Position>
              <LatitudeDegrees>43.4542498178780078887939453125</LatitudeDegrees>
              <LongitudeDegrees>-3.64536604844033718109130859375</LongitudeDegrees>
            </Position>
            <AltitudeMeters>91.40000152587890625</AltitudeMeters>
            <DistanceMeters>NAN</DistanceMeters>
          </Trackpoint>
          <Trackpoint>
            <Time>2022-07-13T14:25:38.000Z</Time>
            <Position>
              <LatitudeDegrees>43.454249985516071319580078125</LatitudeDegrees>
              <LongitudeDegrees>-3.64540125243365764617919921875</LongitudeDegrees>
            </Position>
            <AltitudeMeters>91.40000152587890625</AltitudeMeters>
            <DistanceMeters>NAN</DistanceMeters>
          </Trackpoint>
          <Trackpoint>
            <Time>2022-07-13T14:25:39.000Z</Time>
            <Position>
              <LatitudeDegrees>43.4542444534599781036376953125</LatitudeDegrees>
              <LongitudeDegrees>-3.6454350315034389495849609375</LongitudeDegrees>
            </Position>
            <AltitudeMeters>91.59999847412109375</AltitudeMeters>
            <DistanceMeters>NAN</DistanceMeters>
          </Trackpoint>
          <Trackpoint>
            <Time>2022-07-13T14:25:41.000Z</Time>
            <Position>
              <LatitudeDegrees>43.4542411006987094879150390625</LatitudeDegrees>
              <LongitudeDegrees>-3.6454846523702144622802734375</LongitudeDegrees>
            </Position>
            <AltitudeMeters>91.8000030517578125</AltitudeMeters>
            <DistanceMeters>NAN</DistanceMeters>
          </Trackpoint>
          <Trackpoint>
            <Time>2022-07-13T14:25:43.000Z</Time>
            <Position>
              <LatitudeDegrees>43.4542347304522991180419921875</LatitudeDegrees>
              <LongitudeDegrees>-3.6455496959388256072998046875</LongitudeDegrees>
            </Position>
            <AltitudeMeters>92.1999969482421875</AltitudeMeters>
            <DistanceMeters>NAN</DistanceMeters>
          </Trackpoint>
          <Trackpoint>
            <Time>2022-07-13T14:25:48.000Z</Time>
            <Position>
              <LatitudeDegrees>43.45421821810305118560791015625</LatitudeDegrees>
              <LongitudeDegrees>-3.64569327794015407562255859375</LongitudeDegrees>
            </Position>
            <AltitudeMeters>92.59999847412109375</AltitudeMeters>
            <DistanceMeters>NAN</DistanceMeters>
          </Trackpoint>
          <Trackpoint>
            <Time>2022-07-13T14:25:51.000Z</Time>
            <Position>
              <LatitudeDegrees>43.454209081828594207763671875</LatitudeDegrees>
              <LongitudeDegrees>-3.64578782580792903900146484375</LongitudeDegrees>
            </Position>
            <AltitudeMeters>92.8000030517578125</AltitudeMeters>
            <DistanceMeters>NAN</DistanceMeters>
          </Trackpoint>
          <Trackpoint>
            <Time>2022-07-13T14:25:54.000Z</Time>
            <Position>
              <LatitudeDegrees>43.4542005322873592376708984375</LatitudeDegrees>
              <LongitudeDegrees>-3.64587063901126384735107421875</LongitudeDegrees>
            </Position>
            <AltitudeMeters>93.1999969482421875</AltitudeMeters>
            <DistanceMeters>NAN</DistanceMeters>
          </Trackpoint>
          <Trackpoint>
            <Time>2022-07-13T14:25:58.000Z</Time>
            <Position>
              <LatitudeDegrees>43.4541924856603145599365234375</LatitudeDegrees>
              <LongitudeDegrees>-3.64597968757152557373046875</LongitudeDegrees>
            </Position>
            <AltitudeMeters>93.40000152587890625</AltitudeMeters>
            <DistanceMeters>NAN</DistanceMeters>
          </Trackpoint>
          <Trackpoint>
            <Time>2022-07-13T14:26:02.000Z</Time>
            <Position>
              <LatitudeDegrees>43.45417463220655918121337890625</LatitudeDegrees>
              <LongitudeDegrees>-3.64609845913946628570556640625</LongitudeDegrees>
            </Position>
            <AltitudeMeters>93.59999847412109375</AltitudeMeters>
            <DistanceMeters>NAN</DistanceMeters>
          </Trackpoint>
          <Trackpoint>
            <Time>2022-07-13T14:26:04.000Z</Time>
            <Position>
              <LatitudeDegrees>43.454162143170833587646484375</LatitudeDegrees>
              <LongitudeDegrees>-3.64614958874881267547607421875</LongitudeDegrees>
            </Position>
            <AltitudeMeters>93.8000030517578125</AltitudeMeters>
            <DistanceMeters>NAN</DistanceMeters>
          </Trackpoint>
          <Trackpoint>
            <Time>2022-07-13T14:26:10.000Z</Time>
            <Position>
              <LatitudeDegrees>43.45413741655647754669189453125</LatitudeDegrees>
              <LongitudeDegrees>-3.6463384330272674560546875</LongitudeDegrees>
            </Position>
            <AltitudeMeters>94.40000152587890625</AltitudeMeters>
            <DistanceMeters>NAN</DistanceMeters>
          </Trackpoint>
          <Trackpoint>
            <Time>2022-07-13T14:26:17.000Z</Time>
            <Position>
              <LatitudeDegrees>43.45411059446632862091064453125</LatitudeDegrees>
              <LongitudeDegrees>-3.64659952931106090545654296875</LongitudeDegrees>
            </Position>
            <AltitudeMeters>94.59999847412109375</AltitudeMeters>
            <DistanceMeters>NAN</DistanceMeters>
          </Trackpoint>
          <Trackpoint>
            <Time>2022-07-13T14:26:22.000Z</Time>
            <Position>
              <LatitudeDegrees>43.45409282483160495758056640625</LatitudeDegrees>
              <LongitudeDegrees>-3.64678057841956615447998046875</LongitudeDegrees>
            </Position>
            <AltitudeMeters>95</AltitudeMeters>
            <DistanceMeters>NAN</DistanceMeters>
          </Trackpoint>
          <Trackpoint>
            <Time>2022-07-13T14:26:25.000Z</Time>
            <Position>
              <LatitudeDegrees>43.4540912322700023651123046875</LatitudeDegrees>
              <LongitudeDegrees>-3.6468877829611301422119140625</LongitudeDegrees>
            </Position>
            <AltitudeMeters>95</AltitudeMeters>
            <DistanceMeters>NAN</DistanceMeters>
          </Trackpoint>
          <Trackpoint>
            <Time>2022-07-13T14:26:26.000Z</Time>
            <Position>
              <LatitudeDegrees>43.45408947207033634185791015625</LatitudeDegrees>
              <LongitudeDegrees>-3.6469206400215625762939453125</LongitudeDegrees>
            </Position>
            <AltitudeMeters>95.1999969482421875</AltitudeMeters>
            <DistanceMeters>NAN</DistanceMeters>
          </Trackpoint>
          <Trackpoint>
            <Time>2022-07-13T14:26:33.000Z</Time>
            <Position>
              <LatitudeDegrees>43.45407840795814990997314453125</LatitudeDegrees>
              <LongitudeDegrees>-3.6472549103200435638427734375</LongitudeDegrees>
            </Position>
            <AltitudeMeters>94.59999847412109375</AltitudeMeters>
            <DistanceMeters>NAN</DistanceMeters>
          </Trackpoint>
          <Trackpoint>
            <Time>2022-07-13T14:26:39.000Z</Time>
            <Position>
              <LatitudeDegrees>43.4541207365691661834716796875</LatitudeDegrees>
              <LongitudeDegrees>-3.6476528830826282501220703125</LongitudeDegrees>
            </Position>
            <AltitudeMeters>94</AltitudeMeters>
            <DistanceMeters>NAN</DistanceMeters>
          </Trackpoint>
          <Trackpoint>
            <Time>2022-07-13T14:26:40.000Z</Time>
            <Position>
              <LatitudeDegrees>43.4541324712336063385009765625</LatitudeDegrees>
              <LongitudeDegrees>-3.64773242734372615814208984375</LongitudeDegrees>
            </Position>
            <AltitudeMeters>93.8000030517578125</AltitudeMeters>
            <DistanceMeters>NAN</DistanceMeters>
          </Trackpoint>
          <Trackpoint>
            <Time>2022-07-13T14:26:44.000Z</Time>
            <Position>
              <LatitudeDegrees>43.45417320728302001953125</LatitudeDegrees>
              <LongitudeDegrees>-3.64807315170764923095703125</LongitudeDegrees>
            </Position>
            <AltitudeMeters>92.8000030517578125</AltitudeMeters>
            <DistanceMeters>NAN</DistanceMeters>
          </Trackpoint>
          <Trackpoint>
            <Time>2022-07-13T14:26:47.000Z</Time>
            <Position>
              <LatitudeDegrees>43.45418804325163364410400390625</LatitudeDegrees>
              <LongitudeDegrees>-3.64835822023451328277587890625</LongitudeDegrees>
            </Position>
            <AltitudeMeters>92.1999969482421875</AltitudeMeters>
            <DistanceMeters>NAN</DistanceMeters>
          </Trackpoint>
          <Trackpoint>
            <Time>2022-07-13T14:26:49.000Z</Time>
            <Position>
              <LatitudeDegrees>43.45419793389737606048583984375</LatitudeDegrees>
              <LongitudeDegrees>-3.64856609143316745758056640625</LongitudeDegrees>
            </Position>
            <AltitudeMeters>91.8000030517578125</AltitudeMeters>
            <DistanceMeters>NAN</DistanceMeters>
          </Trackpoint>
          <Trackpoint>
            <Time>2022-07-13T14:26:53.000Z</Time>
            <Position>
              <LatitudeDegrees>43.4541857801377773284912109375</LatitudeDegrees>
              <LongitudeDegrees>-3.64902726374566555023193359375</LongitudeDegrees>
            </Position>
            <AltitudeMeters>91</AltitudeMeters>
            <DistanceMeters>NAN</DistanceMeters>
          </Trackpoint>
          <Trackpoint>
            <Time>2022-07-13T14:26:54.000Z</Time>
            <Position>
              <LatitudeDegrees>43.45419810153543949127197265625</LatitudeDegrees>
              <LongitudeDegrees>-3.64915014244616031646728515625</LongitudeDegrees>
            </Position>
            <AltitudeMeters>90.59999847412109375</AltitudeMeters>
            <DistanceMeters>NAN</DistanceMeters>
          </Trackpoint>
          <Trackpoint>
            <Time>2022-07-13T14:26:56.000Z</Time>
            <Position>
              <LatitudeDegrees>43.45425224862992763519287109375</LatitudeDegrees>
              <LongitudeDegrees>-3.64938936196267604827880859375</LongitudeDegrees>
            </Position>
            <AltitudeMeters>89.8000030517578125</AltitudeMeters>
            <DistanceMeters>NAN</DistanceMeters>
          </Trackpoint>
          <Trackpoint>
            <Time>2022-07-13T14:26:57.000Z</Time>
            <Position>
              <LatitudeDegrees>43.45429901964962482452392578125</LatitudeDegrees>
              <LongitudeDegrees>-3.64950570277869701385498046875</LongitudeDegrees>
            </Position>
            <AltitudeMeters>89.59999847412109375</AltitudeMeters>
            <DistanceMeters>NAN</DistanceMeters>
          </Trackpoint>
          <Trackpoint>
            <Time>2022-07-13T14:26:58.000Z</Time>
            <Position>
              <LatitudeDegrees>43.45435819588601589202880859375</LatitudeDegrees>
              <LongitudeDegrees>-3.649614751338958740234375</LongitudeDegrees>
            </Position>
            <AltitudeMeters>89.40000152587890625</AltitudeMeters>
            <DistanceMeters>NAN</DistanceMeters>
          </Trackpoint>
          <Trackpoint>
            <Time>2022-07-13T14:26:59.000Z</Time>
            <Position>
              <LatitudeDegrees>43.45442734658718109130859375</LatitudeDegrees>
              <LongitudeDegrees>-3.64971508271992206573486328125</LongitudeDegrees>
            </Position>
            <AltitudeMeters>88.8000030517578125</AltitudeMeters>
            <DistanceMeters>NAN</DistanceMeters>
          </Trackpoint>
          <Trackpoint>
            <Time>2022-07-13T14:27:00.000Z</Time>
            <Position>
              <LatitudeDegrees>43.4545042924582958221435546875</LatitudeDegrees>
              <LongitudeDegrees>-3.64980560727417469024658203125</LongitudeDegrees>
            </Position>
            <AltitudeMeters>88.40000152587890625</AltitudeMeters>
            <DistanceMeters>NAN</DistanceMeters>
          </Trackpoint>
          <Trackpoint>
            <Time>2022-07-13T14:27:03.000Z</Time>
            <Position>
              <LatitudeDegrees>43.4547544084489345550537109375</LatitudeDegrees>
              <LongitudeDegrees>-3.6500497721135616302490234375</LongitudeDegrees>
            </Position>
            <AltitudeMeters>87.8000030517578125</AltitudeMeters>
            <DistanceMeters>NAN</DistanceMeters>
          </Trackpoint>
          <Trackpoint>
            <Time>2022-07-13T14:27:04.000Z</Time>
            <Position>
              <LatitudeDegrees>43.454831354320049285888671875</LatitudeDegrees>
              <LongitudeDegrees>-3.65014624781906604766845703125</LongitudeDegrees>
            </Position>
            <AltitudeMeters>87.59999847412109375</AltitudeMeters>
            <DistanceMeters>NAN</DistanceMeters>
          </Trackpoint>
          <Trackpoint>
            <Time>2022-07-13T14:27:05.000Z</Time>
            <Position>
              <LatitudeDegrees>43.45490670762956142425537109375</LatitudeDegrees>
              <LongitudeDegrees>-3.65025043487548828125</LongitudeDegrees>
            </Position>
            <AltitudeMeters>87</AltitudeMeters>
            <DistanceMeters>NAN</DistanceMeters>
          </Trackpoint>
          <Trackpoint>
            <Time>2022-07-13T14:27:07.000Z</Time>
            <Position>
              <LatitudeDegrees>43.455047942698001861572265625</LatitudeDegrees>
              <LongitudeDegrees>-3.6504755727946758270263671875</LongitudeDegrees>
            </Position>
            <AltitudeMeters>85.59999847412109375</AltitudeMeters>
            <DistanceMeters>NAN</DistanceMeters>
          </Trackpoint>
          <Trackpoint>
            <Time>2022-07-13T14:27:08.000Z</Time>
            <Position>
              <LatitudeDegrees>43.455117009580135345458984375</LatitudeDegrees>
              <LongitudeDegrees>-3.65058529190719127655029296875</LongitudeDegrees>
            </Position>
            <AltitudeMeters>84.8000030517578125</AltitudeMeters>
            <DistanceMeters>NAN</DistanceMeters>
          </Trackpoint>
          <Trackpoint>
            <Time>2022-07-13T14:27:09.000Z</Time>
            <Position>
              <LatitudeDegrees>43.45518616028130054473876953125</LatitudeDegrees>
              <LongitudeDegrees>-3.65069459192454814910888671875</LongitudeDegrees>
            </Position>
            <AltitudeMeters>84.40000152587890625</AltitudeMeters>
            <DistanceMeters>NAN</DistanceMeters>
          </Trackpoint>
          <Trackpoint>
            <Time>2022-07-13T14:27:11.000Z</Time>
            <Position>
              <LatitudeDegrees>43.4553398005664348602294921875</LatitudeDegrees>
              <LongitudeDegrees>-3.65091134794056415557861328125</LongitudeDegrees>
            </Position>
            <AltitudeMeters>83.59999847412109375</AltitudeMeters>
            <DistanceMeters>NAN</DistanceMeters>
          </Trackpoint>
          <Trackpoint>
            <Time>2022-07-13T14:27:12.000Z</Time>
            <Position>
              <LatitudeDegrees>43.455422781407833099365234375</LatitudeDegrees>
              <LongitudeDegrees>-3.651015870273113250732421875</LongitudeDegrees>
            </Position>
            <AltitudeMeters>83</AltitudeMeters>
            <DistanceMeters>NAN</DistanceMeters>
          </Trackpoint>
          <Trackpoint>
            <Time>2022-07-13T14:27:14.000Z</Time>
            <Position>
              <LatitudeDegrees>43.4555942751467227935791015625</LatitudeDegrees>
              <LongitudeDegrees>-3.651212342083454132080078125</LongitudeDegrees>
            </Position>
            <AltitudeMeters>81.59999847412109375</AltitudeMeters>
            <DistanceMeters>NAN</DistanceMeters>
          </Trackpoint>
          <Trackpoint>
            <Time>2022-07-13T14:27:16.000Z</Time>
            <Position>
              <LatitudeDegrees>43.4557863883674144744873046875</LatitudeDegrees>
              <LongitudeDegrees>-3.6514277569949626922607421875</LongitudeDegrees>
            </Position>
            <AltitudeMeters>80.59999847412109375</AltitudeMeters>
            <DistanceMeters>NAN</DistanceMeters>
          </Trackpoint>
          <Trackpoint>
            <Time>2022-07-13T14:27:17.000Z</Time>
            <Position>
              <LatitudeDegrees>43.45587699674069881439208984375</LatitudeDegrees>
              <LongitudeDegrees>-3.651520796120166778564453125</LongitudeDegrees>
            </Position>
            <AltitudeMeters>80</AltitudeMeters>
            <DistanceMeters>NAN</DistanceMeters>
          </Trackpoint>
          <Trackpoint>
            <Time>2022-07-13T14:27:19.000Z</Time>
            <Position>
              <LatitudeDegrees>43.45605536364018917083740234375</LatitudeDegrees>
              <LongitudeDegrees>-3.6517016775906085968017578125</LongitudeDegrees>
            </Position>
            <AltitudeMeters>78.8000030517578125</AltitudeMeters>
            <DistanceMeters>NAN</DistanceMeters>
          </Trackpoint>
          <Trackpoint>
            <Time>2022-07-13T14:27:21.000Z</Time>
            <Position>
              <LatitudeDegrees>43.456211350858211517333984375</LatitudeDegrees>
              <LongitudeDegrees>-3.65191415883600711822509765625</LongitudeDegrees>
            </Position>
            <AltitudeMeters>78</AltitudeMeters>
            <DistanceMeters>NAN</DistanceMeters>
          </Trackpoint>
          <Trackpoint>
            <Time>2022-07-13T14:27:22.000Z</Time>
            <Position>
              <LatitudeDegrees>43.45627136528491973876953125</LatitudeDegrees>
              <LongitudeDegrees>-3.65199529565870761871337890625</LongitudeDegrees>
            </Position>
            <AltitudeMeters>77.8000030517578125</AltitudeMeters>
            <DistanceMeters>NAN</DistanceMeters>
          </Trackpoint>
          <Trackpoint>
            <Time>2022-07-13T14:27:25.000Z</Time>
            <Position>
              <LatitudeDegrees>43.4564760513603687286376953125</LatitudeDegrees>
              <LongitudeDegrees>-3.65220584906637668609619140625</LongitudeDegrees>
            </Position>
            <AltitudeMeters>77.40000152587890625</AltitudeMeters>
            <DistanceMeters>NAN</DistanceMeters>
          </Trackpoint>
          <Trackpoint>
            <Time>2022-07-13T14:27:28.000Z</Time>
            <Position>
              <LatitudeDegrees>43.45663614571094512939453125</LatitudeDegrees>
              <LongitudeDegrees>-3.652344904839992523193359375</LongitudeDegrees>
            </Position>
            <AltitudeMeters>77.40000152587890625</AltitudeMeters>
            <DistanceMeters>NAN</DistanceMeters>
          </Trackpoint>
          <Trackpoint>
            <Time>2022-07-13T14:27:29.000Z</Time>
            <Position>
              <LatitudeDegrees>43.4566859342157840728759765625</LatitudeDegrees>
              <LongitudeDegrees>-3.65238572470843791961669921875</LongitudeDegrees>
            </Position>
            <AltitudeMeters>77.59999847412109375</AltitudeMeters>
            <DistanceMeters>NAN</DistanceMeters>
          </Trackpoint>
          <Trackpoint>
            <Time>2022-07-13T14:27:32.000Z</Time>
            <Position>
              <LatitudeDegrees>43.456792049109935760498046875</LatitudeDegrees>
              <LongitudeDegrees>-3.65251279436051845550537109375</LongitudeDegrees>
            </Position>
            <AltitudeMeters>78</AltitudeMeters>
            <DistanceMeters>NAN</DistanceMeters>
          </Trackpoint>
          <Trackpoint>
            <Time>2022-07-13T14:27:34.000Z</Time>
            <Position>
              <LatitudeDegrees>43.45686002634465694427490234375</LatitudeDegrees>
              <LongitudeDegrees>-3.65256057120859622955322265625</LongitudeDegrees>
            </Position>
            <AltitudeMeters>78.1999969482421875</AltitudeMeters>
            <DistanceMeters>NAN</DistanceMeters>
          </Trackpoint>
          <Trackpoint>
            <Time>2022-07-13T14:27:39.000Z</Time>
            <Position>
              <LatitudeDegrees>43.45701660029590129852294921875</LatitudeDegrees>
              <LongitudeDegrees>-3.65260072052478790283203125</LongitudeDegrees>
            </Position>
            <AltitudeMeters>78.8000030517578125</AltitudeMeters>
            <DistanceMeters>NAN</DistanceMeters>
          </Trackpoint>
          <Trackpoint>
            <Time>2022-07-13T14:27:45.000Z</Time>
            <Position>
              <LatitudeDegrees>43.457173593342304229736328125</LatitudeDegrees>
              <LongitudeDegrees>-3.652553446590900421142578125</LongitudeDegrees>
            </Position>
            <AltitudeMeters>79.1999969482421875</AltitudeMeters>
            <DistanceMeters>NAN</DistanceMeters>
          </Trackpoint>
          <Trackpoint>
            <Time>2022-07-13T14:27:50.000Z</Time>
            <Position>
              <LatitudeDegrees>43.4572911076247692108154296875</LatitudeDegrees>
              <LongitudeDegrees>-3.65254850126802921295166015625</LongitudeDegrees>
            </Position>
            <AltitudeMeters>80</AltitudeMeters>
            <DistanceMeters>NAN</DistanceMeters>
          </Trackpoint>
          <Trackpoint>
            <Time>2022-07-13T14:27:51.000Z</Time>
            <Position>
              <LatitudeDegrees>43.45731248147785663604736328125</LatitudeDegrees>
              <LongitudeDegrees>-3.65255118347704410552978515625</LongitudeDegrees>
            </Position>
            <AltitudeMeters>80.1999969482421875</AltitudeMeters>
            <DistanceMeters>NAN</DistanceMeters>
          </Trackpoint>
          <Trackpoint>
            <Time>2022-07-13T14:27:54.000Z</Time>
            <Position>
              <LatitudeDegrees>43.45737601630389690399169921875</LatitudeDegrees>
              <LongitudeDegrees>-3.6525975354015827178955078125</LongitudeDegrees>
            </Position>
            <AltitudeMeters>80.8000030517578125</AltitudeMeters>
            <DistanceMeters>NAN</DistanceMeters>
          </Trackpoint>
          <Trackpoint>
            <Time>2022-07-13T14:27:59.000Z</Time>
            <Position>
              <LatitudeDegrees>43.4574594162404537200927734375</LatitudeDegrees>
              <LongitudeDegrees>-3.65275503136217594146728515625</LongitudeDegrees>
            </Position>
            <AltitudeMeters>80.59999847412109375</AltitudeMeters>
            <DistanceMeters>NAN</DistanceMeters>
          </Trackpoint>
          <Trackpoint>
            <Time>2022-07-13T14:28:05.000Z</Time>
            <Position>
              <LatitudeDegrees>43.457515574991703033447265625</LatitudeDegrees>
              <LongitudeDegrees>-3.6530035547912120819091796875</LongitudeDegrees>
            </Position>
            <AltitudeMeters>80.1999969482421875</AltitudeMeters>
            <DistanceMeters>NAN</DistanceMeters>
          </Trackpoint>
          <Trackpoint>
            <Time>2022-07-13T14:28:07.000Z</Time>
            <Position>
              <LatitudeDegrees>43.4575415588915348052978515625</LatitudeDegrees>
              <LongitudeDegrees>-3.653092570602893829345703125</LongitudeDegrees>
            </Position>
            <AltitudeMeters>80</AltitudeMeters>
            <DistanceMeters>NAN</DistanceMeters>
          </Trackpoint>
          <Trackpoint>
            <Time>2022-07-13T14:28:11.000Z</Time>
            <Position>
              <LatitudeDegrees>43.4575804509222507476806640625</LatitudeDegrees>
              <LongitudeDegrees>-3.65329314954578876495361328125</LongitudeDegrees>
            </Position>
            <AltitudeMeters>80.1999969482421875</AltitudeMeters>
            <DistanceMeters>NAN</DistanceMeters>
          </Trackpoint>
          <Trackpoint>
            <Time>2022-07-13T14:28:17.000Z</Time>
            <Position>
              <LatitudeDegrees>43.45771581865847110748291015625</LatitudeDegrees>
              <LongitudeDegrees>-3.65360512398183345794677734375</LongitudeDegrees>
            </Position>
            <AltitudeMeters>80.59999847412109375</AltitudeMeters>
            <DistanceMeters>NAN</DistanceMeters>
          </Trackpoint>
          <Trackpoint>
            <Time>2022-07-13T14:28:18.000Z</Time>
            <Position>
              <LatitudeDegrees>43.45775219611823558807373046875</LatitudeDegrees>
              <LongitudeDegrees>-3.6536472849547863006591796875</LongitudeDegrees>
            </Position>
            <AltitudeMeters>80.40000152587890625</AltitudeMeters>
            <DistanceMeters>NAN</DistanceMeters>
          </Trackpoint>
          <Trackpoint>
            <Time>2022-07-13T14:28:21.000Z</Time>
            <Position>
              <LatitudeDegrees>43.45787054859101772308349609375</LatitudeDegrees>
              <LongitudeDegrees>-3.65374334156513214111328125</LongitudeDegrees>
            </Position>
            <AltitudeMeters>80.1999969482421875</AltitudeMeters>
            <DistanceMeters>NAN</DistanceMeters>
          </Trackpoint>
          <Trackpoint>
            <Time>2022-07-13T14:28:27.000Z</Time>
            <Position>
              <LatitudeDegrees>43.45812519080936908721923828125</LatitudeDegrees>
              <LongitudeDegrees>-3.6538393981754779815673828125</LongitudeDegrees>
            </Position>
            <AltitudeMeters>80.1999969482421875</AltitudeMeters>
            <DistanceMeters>NAN</DistanceMeters>
          </Trackpoint>
          <Trackpoint>
            <Time>2022-07-13T14:28:28.000Z</Time>
            <Position>
              <LatitudeDegrees>43.4581656754016876220703125</LatitudeDegrees>
              <LongitudeDegrees>-3.65385574288666248321533203125</LongitudeDegrees>
            </Position>
            <AltitudeMeters>80.1999969482421875</AltitudeMeters>
            <DistanceMeters>NAN</DistanceMeters>
          </Trackpoint>
          <Trackpoint>
            <Time>2022-07-13T14:28:31.000Z</Time>
            <Position>
              <LatitudeDegrees>43.4582649171352386474609375</LatitudeDegrees>
              <LongitudeDegrees>-3.65397644229233264923095703125</LongitudeDegrees>
            </Position>
            <AltitudeMeters>80</AltitudeMeters>
            <DistanceMeters>NAN</DistanceMeters>
          </Trackpoint>
          <Trackpoint>
            <Time>2022-07-13T14:28:32.000Z</Time>
            <Position>
              <LatitudeDegrees>43.45829777419567108154296875</LatitudeDegrees>
              <LongitudeDegrees>-3.65402229130268096923828125</LongitudeDegrees>
            </Position>
            <AltitudeMeters>80</AltitudeMeters>
            <DistanceMeters>NAN</DistanceMeters>
          </Trackpoint>
          <Trackpoint>
            <Time>2022-07-13T14:28:37.000Z</Time>
            <Position>
              <LatitudeDegrees>43.4584043920040130615234375</LatitudeDegrees>
              <LongitudeDegrees>-3.65430635400116443634033203125</LongitudeDegrees>
            </Position>
            <AltitudeMeters>80.1999969482421875</AltitudeMeters>
            <DistanceMeters>NAN</DistanceMeters>
          </Trackpoint>
          <Trackpoint>
            <Time>2022-07-13T14:28:38.000Z</Time>
            <Position>
              <LatitudeDegrees>43.45842308364808559417724609375</LatitudeDegrees>
              <LongitudeDegrees>-3.65435488522052764892578125</LongitudeDegrees>
            </Position>
            <AltitudeMeters>80.1999969482421875</AltitudeMeters>
            <DistanceMeters>NAN</DistanceMeters>
          </Trackpoint>
          <Trackpoint>
            <Time>2022-07-13T14:28:40.000Z</Time>
            <Position>
              <LatitudeDegrees>43.45849617384374141693115234375</LatitudeDegrees>
              <LongitudeDegrees>-3.6544398777186870574951171875</LongitudeDegrees>
            </Position>
            <AltitudeMeters>80.1999969482421875</AltitudeMeters>
            <DistanceMeters>NAN</DistanceMeters>
          </Trackpoint>
          <Trackpoint>
            <Time>2022-07-13T14:28:43.000Z</Time>
            <Position>
              <LatitudeDegrees>43.4585996903479099273681640625</LatitudeDegrees>
              <LongitudeDegrees>-3.65456946194171905517578125</LongitudeDegrees>
            </Position>
            <AltitudeMeters>80.59999847412109375</AltitudeMeters>
            <DistanceMeters>NAN</DistanceMeters>
          </Trackpoint>
          <Trackpoint>
            <Time>2022-07-13T14:28:45.000Z</Time>
            <Position>
              <LatitudeDegrees>43.45868258737027645111083984375</LatitudeDegrees>
              <LongitudeDegrees>-3.65463358350098133087158203125</LongitudeDegrees>
            </Position>
            <AltitudeMeters>80.59999847412109375</AltitudeMeters>
            <DistanceMeters>NAN</DistanceMeters>
          </Trackpoint>
          <Trackpoint>
            <Time>2022-07-13T14:28:46.000Z</Time>
            <Position>
              <LatitudeDegrees>43.4587220661342144012451171875</LatitudeDegrees>
              <LongitudeDegrees>-3.65463157184422016143798828125</LongitudeDegrees>
            </Position>
            <AltitudeMeters>80.40000152587890625</AltitudeMeters>
            <DistanceMeters>NAN</DistanceMeters>
          </Trackpoint>
          <Trackpoint>
            <Time>2022-07-13T14:28:47.000Z</Time>
            <Position>
              <LatitudeDegrees>43.45878124237060546875</LatitudeDegrees>
              <LongitudeDegrees>-3.6546343378722667694091796875</LongitudeDegrees>
            </Position>
            <AltitudeMeters>80.40000152587890625</AltitudeMeters>
            <DistanceMeters>NAN</DistanceMeters>
          </Trackpoint>
          <Trackpoint>
            <Time>2022-07-13T14:28:50.000Z</Time>
            <Position>
              <LatitudeDegrees>43.45890454016625881195068359375</LatitudeDegrees>
              <LongitudeDegrees>-3.65470751188695430755615234375</LongitudeDegrees>
            </Position>
            <AltitudeMeters>80.1999969482421875</AltitudeMeters>
            <DistanceMeters>NAN</DistanceMeters>
          </Trackpoint>
          <Trackpoint>
            <Time>2022-07-13T14:28:52.000Z</Time>
            <Position>
              <LatitudeDegrees>43.458978720009326934814453125</LatitudeDegrees>
              <LongitudeDegrees>-3.6547771655023097991943359375</LongitudeDegrees>
            </Position>
            <AltitudeMeters>80.1999969482421875</AltitudeMeters>
            <DistanceMeters>NAN</DistanceMeters>
          </Trackpoint>
          <Trackpoint>
            <Time>2022-07-13T14:28:57.000Z</Time>
            <Position>
              <LatitudeDegrees>43.45917510800063610076904296875</LatitudeDegrees>
              <LongitudeDegrees>-3.65493382327258586883544921875</LongitudeDegrees>
            </Position>
            <AltitudeMeters>80.59999847412109375</AltitudeMeters>
            <DistanceMeters>NAN</DistanceMeters>
          </Trackpoint>
          <Trackpoint>
            <Time>2022-07-13T14:28:59.000Z</Time>
            <Position>
              <LatitudeDegrees>43.45925004221498966217041015625</LatitudeDegrees>
              <LongitudeDegrees>-3.6550073325634002685546875</LongitudeDegrees>
            </Position>
            <AltitudeMeters>80.59999847412109375</AltitudeMeters>
            <DistanceMeters>NAN</DistanceMeters>
          </Trackpoint>
          <Trackpoint>
            <Time>2022-07-13T14:29:00.000Z</Time>
            <Position>
              <LatitudeDegrees>43.45928591676056385040283203125</LatitudeDegrees>
              <LongitudeDegrees>-3.6550500802695751190185546875</LongitudeDegrees>
            </Position>
            <AltitudeMeters>80.59999847412109375</AltitudeMeters>
            <DistanceMeters>NAN</DistanceMeters>
          </Trackpoint>
          <Trackpoint>
            <Time>2022-07-13T14:29:01.000Z</Time>
            <Position>
              <LatitudeDegrees>43.45931793563067913055419921875</LatitudeDegrees>
              <LongitudeDegrees>-3.65508017130196094512939453125</LongitudeDegrees>
            </Position>
            <AltitudeMeters>80.59999847412109375</AltitudeMeters>
            <DistanceMeters>NAN</DistanceMeters>
          </Trackpoint>
          <Trackpoint>
            <Time>2022-07-13T14:29:04.000Z</Time>
            <Position>
              <LatitudeDegrees>43.45944399945437908172607421875</LatitudeDegrees>
              <LongitudeDegrees>-3.65514571778476238250732421875</LongitudeDegrees>
            </Position>
            <AltitudeMeters>80.59999847412109375</AltitudeMeters>
            <DistanceMeters>NAN</DistanceMeters>
          </Trackpoint>
          <Trackpoint>
            <Time>2022-07-13T14:29:06.000Z</Time>
            <Position>
              <LatitudeDegrees>43.45953418873250484466552734375</LatitudeDegrees>
              <LongitudeDegrees>-3.6551929078996181488037109375</LongitudeDegrees>
            </Position>
            <AltitudeMeters>80.8000030517578125</AltitudeMeters>
            <DistanceMeters>NAN</DistanceMeters>
          </Trackpoint>
          <Trackpoint>
            <Time>2022-07-13T14:29:09.000Z</Time>
            <Position>
              <LatitudeDegrees>43.45966880209743976593017578125</LatitudeDegrees>
              <LongitudeDegrees>-3.65523758344352245330810546875</LongitudeDegrees>
            </Position>
            <AltitudeMeters>80.8000030517578125</AltitudeMeters>
            <DistanceMeters>NAN</DistanceMeters>
          </Trackpoint>
          <Trackpoint>
            <Time>2022-07-13T14:29:10.000Z</Time>
            <Position>
              <LatitudeDegrees>43.45971674658358097076416015625</LatitudeDegrees>
              <LongitudeDegrees>-3.65525518544018268585205078125</LongitudeDegrees>
            </Position>
            <AltitudeMeters>80.8000030517578125</AltitudeMeters>
            <DistanceMeters>NAN</DistanceMeters>
          </Trackpoint>
          <Trackpoint>
            <Time>2022-07-13T14:29:14.000Z</Time>
            <Position>
              <LatitudeDegrees>43.4599099494516849517822265625</LatitudeDegrees>
              <LongitudeDegrees>-3.65533347241580486297607421875</LongitudeDegrees>
            </Position>
            <AltitudeMeters>80.8000030517578125</AltitudeMeters>
            <DistanceMeters>NAN</DistanceMeters>
          </Trackpoint>
          <Trackpoint>
            <Time>2022-07-13T14:29:16.000Z</Time>
            <Position>
              <LatitudeDegrees>43.459996283054351806640625</LatitudeDegrees>
              <LongitudeDegrees>-3.65541896782815456390380859375</LongitudeDegrees>
            </Position>
            <AltitudeMeters>80.8000030517578125</AltitudeMeters>
            <DistanceMeters>NAN</DistanceMeters>
          </Trackpoint>
          <Trackpoint>
            <Time>2022-07-13T14:29:18.000Z</Time>
            <Position>
              <LatitudeDegrees>43.46008555032312870025634765625</LatitudeDegrees>
              <LongitudeDegrees>-3.65549809299409389495849609375</LongitudeDegrees>
            </Position>
            <AltitudeMeters>80.8000030517578125</AltitudeMeters>
            <DistanceMeters>NAN</DistanceMeters>
          </Trackpoint>
          <Trackpoint>
            <Time>2022-07-13T14:29:20.000Z</Time>
            <Position>
              <LatitudeDegrees>43.4601728059351444244384765625</LatitudeDegrees>
              <LongitudeDegrees>-3.65557721816003322601318359375</LongitudeDegrees>
            </Position>
            <AltitudeMeters>81</AltitudeMeters>
            <DistanceMeters>NAN</DistanceMeters>
          </Trackpoint>
          <Trackpoint>
            <Time>2022-07-13T14:29:21.000Z</Time>
            <Position>
              <LatitudeDegrees>43.4602177329361438751220703125</LatitudeDegrees>
              <LongitudeDegrees>-3.65561141632497310638427734375</LongitudeDegrees>
            </Position>
            <AltitudeMeters>81</AltitudeMeters>
            <DistanceMeters>NAN</DistanceMeters>
          </Trackpoint>
          <Trackpoint>
            <Time>2022-07-13T14:29:22.000Z</Time>
            <Position>
              <LatitudeDegrees>43.46026978455483913421630859375</LatitudeDegrees>
              <LongitudeDegrees>-3.65562893450260162353515625</LongitudeDegrees>
            </Position>
            <AltitudeMeters>81.1999969482421875</AltitudeMeters>
            <DistanceMeters>NAN</DistanceMeters>
          </Trackpoint>
          <Trackpoint>
            <Time>2022-07-13T14:29:24.000Z</Time>
            <Position>
              <LatitudeDegrees>43.46037422306835651397705078125</LatitudeDegrees>
              <LongitudeDegrees>-3.6556257493793964385986328125</LongitudeDegrees>
            </Position>
            <AltitudeMeters>81.1999969482421875</AltitudeMeters>
            <DistanceMeters>NAN</DistanceMeters>
          </Trackpoint>
          <Trackpoint>
            <Time>2022-07-13T14:29:26.000Z</Time>
            <Position>
              <LatitudeDegrees>43.4604641608893871307373046875</LatitudeDegrees>
              <LongitudeDegrees>-3.65562147460877895355224609375</LongitudeDegrees>
            </Position>
            <AltitudeMeters>81.40000152587890625</AltitudeMeters>
            <DistanceMeters>NAN</DistanceMeters>
          </Trackpoint>
          <Trackpoint>
            <Time>2022-07-13T14:29:30.000Z</Time>
            <Position>
              <LatitudeDegrees>43.4606411866843700408935546875</LatitudeDegrees>
              <LongitudeDegrees>-3.65561577491462230682373046875</LongitudeDegrees>
            </Position>
            <AltitudeMeters>81.40000152587890625</AltitudeMeters>
            <DistanceMeters>NAN</DistanceMeters>
          </Trackpoint>
          <Trackpoint>
            <Time>2022-07-13T14:29:33.000Z</Time>
            <Position>
              <LatitudeDegrees>43.46077169291675090789794921875</LatitudeDegrees>
              <LongitudeDegrees>-3.6556244082748889923095703125</LongitudeDegrees>
            </Position>
            <AltitudeMeters>81.40000152587890625</AltitudeMeters>
            <DistanceMeters>NAN</DistanceMeters>
          </Trackpoint>
          <Trackpoint>
            <Time>2022-07-13T14:29:37.000Z</Time>
            <Position>
              <LatitudeDegrees>43.46096296794712543487548828125</LatitudeDegrees>
              <LongitudeDegrees>-3.65576446987688541412353515625</LongitudeDegrees>
            </Position>
            <AltitudeMeters>81.1999969482421875</AltitudeMeters>
            <DistanceMeters>NAN</DistanceMeters>
          </Trackpoint>
          <Trackpoint>
            <Time>2022-07-13T14:29:42.000Z</Time>
            <Position>
              <LatitudeDegrees>43.4611692465841770172119140625</LatitudeDegrees>
              <LongitudeDegrees>-3.65607242099940776824951171875</LongitudeDegrees>
            </Position>
            <AltitudeMeters>81.1999969482421875</AltitudeMeters>
            <DistanceMeters>NAN</DistanceMeters>
          </Trackpoint>
          <Trackpoint>
            <Time>2022-07-13T14:29:46.000Z</Time>
            <Position>
              <LatitudeDegrees>43.46134719438850879669189453125</LatitudeDegrees>
              <LongitudeDegrees>-3.65635170601308345794677734375</LongitudeDegrees>
            </Position>
            <AltitudeMeters>81.1999969482421875</AltitudeMeters>
            <DistanceMeters>NAN</DistanceMeters>
          </Trackpoint>
          <Trackpoint>
            <Time>2022-07-13T14:29:47.000Z</Time>
            <Position>
              <LatitudeDegrees>43.461395390331745147705078125</LatitudeDegrees>
              <LongitudeDegrees>-3.6564206890761852264404296875</LongitudeDegrees>
            </Position>
            <AltitudeMeters>81</AltitudeMeters>
            <DistanceMeters>NAN</DistanceMeters>
          </Trackpoint>
          <Trackpoint>
            <Time>2022-07-13T14:29:51.000Z</Time>
            <Position>
              <LatitudeDegrees>43.46159731037914752960205078125</LatitudeDegrees>
              <LongitudeDegrees>-3.65672218613326549530029296875</LongitudeDegrees>
            </Position>
            <AltitudeMeters>80.1999969482421875</AltitudeMeters>
            <DistanceMeters>NAN</DistanceMeters>
          </Trackpoint>
          <Trackpoint>
            <Time>2022-07-13T14:29:52.000Z</Time>
            <Position>
              <LatitudeDegrees>43.4616552293300628662109375</LatitudeDegrees>
              <LongitudeDegrees>-3.6567931808531284332275390625</LongitudeDegrees>
            </Position>
            <AltitudeMeters>79.8000030517578125</AltitudeMeters>
            <DistanceMeters>NAN</DistanceMeters>
          </Trackpoint>
          <Trackpoint>
            <Time>2022-07-13T14:29:58.000Z</Time>
            <Position>
              <LatitudeDegrees>43.46203417517244815826416015625</LatitudeDegrees>
              <LongitudeDegrees>-3.65722694434225559234619140625</LongitudeDegrees>
            </Position>
            <AltitudeMeters>78.40000152587890625</AltitudeMeters>
            <DistanceMeters>NAN</DistanceMeters>
          </Trackpoint>
          <Trackpoint>
            <Time>2022-07-13T14:30:00.000Z</Time>
            <Position>
              <LatitudeDegrees>43.46213609911501407623291015625</LatitudeDegrees>
              <LongitudeDegrees>-3.65742291323840618133544921875</LongitudeDegrees>
            </Position>
            <AltitudeMeters>77.59999847412109375</AltitudeMeters>
            <DistanceMeters>NAN</DistanceMeters>
          </Trackpoint>
          <Trackpoint>
            <Time>2022-07-13T14:30:01.000Z</Time>
            <Position>
              <LatitudeDegrees>43.46218538470566272735595703125</LatitudeDegrees>
              <LongitudeDegrees>-3.65752634592354297637939453125</LongitudeDegrees>
            </Position>
            <AltitudeMeters>77</AltitudeMeters>
            <DistanceMeters>NAN</DistanceMeters>
          </Trackpoint>
          <Trackpoint>
            <Time>2022-07-13T14:30:02.000Z</Time>
            <Position>
              <LatitudeDegrees>43.4622345864772796630859375</LatitudeDegrees>
              <LongitudeDegrees>-3.65762743167579174041748046875</LongitudeDegrees>
            </Position>
            <AltitudeMeters>76.1999969482421875</AltitudeMeters>
            <DistanceMeters>NAN</DistanceMeters>
          </Trackpoint>
          <Trackpoint>
            <Time>2022-07-13T14:30:03.000Z</Time>
            <Position>
              <LatitudeDegrees>43.4622796811163425445556640625</LatitudeDegrees>
              <LongitudeDegrees>-3.6577416770160198211669921875</LongitudeDegrees>
            </Position>
            <AltitudeMeters>75.8000030517578125</AltitudeMeters>
            <DistanceMeters>NAN</DistanceMeters>
          </Trackpoint>
          <Trackpoint>
            <Time>2022-07-13T14:30:06.000Z</Time>
            <Position>
              <LatitudeDegrees>43.46242058090865612030029296875</LatitudeDegrees>
              <LongitudeDegrees>-3.6580853350460529327392578125</LongitudeDegrees>
            </Position>
            <AltitudeMeters>74.59999847412109375</AltitudeMeters>
            <DistanceMeters>NAN</DistanceMeters>
          </Trackpoint>
          <Trackpoint>
            <Time>2022-07-13T14:30:07.000Z</Time>
            <Position>
              <LatitudeDegrees>43.462473638355731964111328125</LatitudeDegrees>
              <LongitudeDegrees>-3.65819890983402729034423828125</LongitudeDegrees>
            </Position>
            <AltitudeMeters>74</AltitudeMeters>
            <DistanceMeters>NAN</DistanceMeters>
          </Trackpoint>
          <Trackpoint>
            <Time>2022-07-13T14:30:09.000Z</Time>
            <Position>
              <LatitudeDegrees>43.46258369274437427520751953125</LatitudeDegrees>
              <LongitudeDegrees>-3.65840502083301544189453125</LongitudeDegrees>
            </Position>
            <AltitudeMeters>73.59999847412109375</AltitudeMeters>
            <DistanceMeters>NAN</DistanceMeters>
          </Trackpoint>
          <Trackpoint>
            <Time>2022-07-13T14:30:10.000Z</Time>
            <Position>
              <LatitudeDegrees>43.46266038715839385986328125</LatitudeDegrees>
              <LongitudeDegrees>-3.65847802720963954925537109375</LongitudeDegrees>
            </Position>
            <AltitudeMeters>73.40000152587890625</AltitudeMeters>
            <DistanceMeters>NAN</DistanceMeters>
          </Trackpoint>
          <Trackpoint>
            <Time>2022-07-13T14:30:11.000Z</Time>
            <Position>
              <LatitudeDegrees>43.46274479292333126068115234375</LatitudeDegrees>
              <LongitudeDegrees>-3.65853049792349338531494140625</LongitudeDegrees>
            </Position>
            <AltitudeMeters>73.40000152587890625</AltitudeMeters>
            <DistanceMeters>NAN</DistanceMeters>
          </Trackpoint>
          <Trackpoint>
            <Time>2022-07-13T14:30:13.000Z</Time>
            <Position>
              <LatitudeDegrees>43.46292190253734588623046875</LatitudeDegrees>
              <LongitudeDegrees>-3.6585661210119724273681640625</LongitudeDegrees>
            </Position>
            <AltitudeMeters>73</AltitudeMeters>
            <DistanceMeters>NAN</DistanceMeters>
          </Trackpoint>
          <Trackpoint>
            <Time>2022-07-13T14:30:16.000Z</Time>
            <Position>
              <LatitudeDegrees>43.4631782211363315582275390625</LatitudeDegrees>
              <LongitudeDegrees>-3.6585808731615543365478515625</LongitudeDegrees>
            </Position>
            <AltitudeMeters>72.1999969482421875</AltitudeMeters>
            <DistanceMeters>NAN</DistanceMeters>
          </Trackpoint>
          <Trackpoint>
            <Time>2022-07-13T14:30:17.000Z</Time>
            <Position>
              <LatitudeDegrees>43.463254161179065704345703125</LatitudeDegrees>
              <LongitudeDegrees>-3.65861616097390651702880859375</LongitudeDegrees>
            </Position>
            <AltitudeMeters>71.1999969482421875</AltitudeMeters>
            <DistanceMeters>NAN</DistanceMeters>
          </Trackpoint>
          <Trackpoint>
            <Time>2022-07-13T14:30:18.000Z</Time>
            <Position>
              <LatitudeDegrees>43.46332130022346973419189453125</LatitudeDegrees>
              <LongitudeDegrees>-3.6586757563054561614990234375</LongitudeDegrees>
            </Position>
            <AltitudeMeters>70.40000152587890625</AltitudeMeters>
            <DistanceMeters>NAN</DistanceMeters>
          </Trackpoint>
          <Trackpoint>
            <Time>2022-07-13T14:30:19.000Z</Time>
            <Position>
              <LatitudeDegrees>43.463380895555019378662109375</LatitudeDegrees>
              <LongitudeDegrees>-3.658751361072063446044921875</LongitudeDegrees>
            </Position>
            <AltitudeMeters>69.8000030517578125</AltitudeMeters>
            <DistanceMeters>NAN</DistanceMeters>
          </Trackpoint>
          <Trackpoint>
            <Time>2022-07-13T14:30:20.000Z</Time>
            <Position>
              <LatitudeDegrees>43.4634373895823955535888671875</LatitudeDegrees>
              <LongitudeDegrees>-3.65883710794150829315185546875</LongitudeDegrees>
            </Position>
            <AltitudeMeters>69.59999847412109375</AltitudeMeters>
            <DistanceMeters>NAN</DistanceMeters>
          </Trackpoint>
          <Trackpoint>
            <Time>2022-07-13T14:30:21.000Z</Time>
            <Position>
              <LatitudeDegrees>43.463493548333644866943359375</LatitudeDegrees>
              <LongitudeDegrees>-3.658928386867046356201171875</LongitudeDegrees>
            </Position>
            <AltitudeMeters>69.1999969482421875</AltitudeMeters>
            <DistanceMeters>NAN</DistanceMeters>
          </Trackpoint>
          <Trackpoint>
            <Time>2022-07-13T14:30:22.000Z</Time>
            <Position>
              <LatitudeDegrees>43.46355356276035308837890625</LatitudeDegrees>
              <LongitudeDegrees>-3.65902125835418701171875</LongitudeDegrees>
            </Position>
            <AltitudeMeters>68.8000030517578125</AltitudeMeters>
            <DistanceMeters>NAN</DistanceMeters>
          </Trackpoint>
          <Trackpoint>
            <Time>2022-07-13T14:30:25.000Z</Time>
            <Position>
              <LatitudeDegrees>43.46374223940074443817138671875</LatitudeDegrees>
              <LongitudeDegrees>-3.659306578338146209716796875</LongitudeDegrees>
            </Position>
            <AltitudeMeters>67.59999847412109375</AltitudeMeters>
            <DistanceMeters>NAN</DistanceMeters>
          </Trackpoint>
          <Trackpoint>
            <Time>2022-07-13T14:30:28.000Z</Time>
            <Position>
              <LatitudeDegrees>43.46394407562911510467529296875</LatitudeDegrees>
              <LongitudeDegrees>-3.65959801711142063140869140625</LongitudeDegrees>
            </Position>
            <AltitudeMeters>66.59999847412109375</AltitudeMeters>
            <DistanceMeters>NAN</DistanceMeters>
          </Trackpoint>
          <Trackpoint>
            <Time>2022-07-13T14:30:29.000Z</Time>
            <Position>
              <LatitudeDegrees>43.46402202732861042022705078125</LatitudeDegrees>
              <LongitudeDegrees>-3.65967915393412113189697265625</LongitudeDegrees>
            </Position>
            <AltitudeMeters>65.8000030517578125</AltitudeMeters>
            <DistanceMeters>NAN</DistanceMeters>
          </Trackpoint>
          <Trackpoint>
            <Time>2022-07-13T14:30:30.000Z</Time>
            <Position>
              <LatitudeDegrees>43.464110456407070159912109375</LatitudeDegrees>
              <LongitudeDegrees>-3.65974721498787403106689453125</LongitudeDegrees>
            </Position>
            <AltitudeMeters>65</AltitudeMeters>
            <DistanceMeters>NAN</DistanceMeters>
          </Trackpoint>
          <Trackpoint>
            <Time>2022-07-13T14:30:31.000Z</Time>
            <Position>
              <LatitudeDegrees>43.46420668065547943115234375</LatitudeDegrees>
              <LongitudeDegrees>-3.65980303846299648284912109375</LongitudeDegrees>
            </Position>
            <AltitudeMeters>64.1999969482421875</AltitudeMeters>
            <DistanceMeters>NAN</DistanceMeters>
          </Trackpoint>
          <Trackpoint>
            <Time>2022-07-13T14:30:32.000Z</Time>
            <Position>
              <LatitudeDegrees>43.46430994570255279541015625</LatitudeDegrees>
              <LongitudeDegrees>-3.6598455347120761871337890625</LongitudeDegrees>
            </Position>
            <AltitudeMeters>63.59999847412109375</AltitudeMeters>
            <DistanceMeters>NAN</DistanceMeters>
          </Trackpoint>
          <Trackpoint>
            <Time>2022-07-13T14:30:34.000Z</Time>
            <Position>
              <LatitudeDegrees>43.46451471559703350067138671875</LatitudeDegrees>
              <LongitudeDegrees>-3.659927845001220703125</LongitudeDegrees>
            </Position>
            <AltitudeMeters>63.200000762939453125</AltitudeMeters>
            <DistanceMeters>NAN</DistanceMeters>
          </Trackpoint>
          <Trackpoint>
            <Time>2022-07-13T14:30:36.000Z</Time>
            <Position>
              <LatitudeDegrees>43.46471990458667278289794921875</LatitudeDegrees>
              <LongitudeDegrees>-3.66001828573644161224365234375</LongitudeDegrees>
            </Position>
            <AltitudeMeters>62.59999847412109375</AltitudeMeters>
            <DistanceMeters>NAN</DistanceMeters>
          </Trackpoint>
          <Trackpoint>
            <Time>2022-07-13T14:30:37.000Z</Time>
            <Position>
              <LatitudeDegrees>43.46482467837631702423095703125</LatitudeDegrees>
              <LongitudeDegrees>-3.66006396710872650146484375</LongitudeDegrees>
            </Position>
            <AltitudeMeters>61</AltitudeMeters>
            <DistanceMeters>NAN</DistanceMeters>
          </Trackpoint>
          <Trackpoint>
            <Time>2022-07-13T14:30:38.000Z</Time>
            <Position>
              <LatitudeDegrees>43.46492945216596126556396484375</LatitudeDegrees>
              <LongitudeDegrees>-3.6601083911955356597900390625</LongitudeDegrees>
            </Position>
            <AltitudeMeters>59.799999237060546875</AltitudeMeters>
            <DistanceMeters>NAN</DistanceMeters>
          </Trackpoint>
          <Trackpoint>
            <Time>2022-07-13T14:30:40.000Z</Time>
            <Position>
              <LatitudeDegrees>43.46513095311820507049560546875</LatitudeDegrees>
              <LongitudeDegrees>-3.6602116562426090240478515625</LongitudeDegrees>
            </Position>
            <AltitudeMeters>57.799999237060546875</AltitudeMeters>
            <DistanceMeters>NAN</DistanceMeters>
          </Trackpoint>
          <Trackpoint>
            <Time>2022-07-13T14:30:41.000Z</Time>
            <Position>
              <LatitudeDegrees>43.46522265113890171051025390625</LatitudeDegrees>
              <LongitudeDegrees>-3.66028717719018459320068359375</LongitudeDegrees>
            </Position>
            <AltitudeMeters>57</AltitudeMeters>
            <DistanceMeters>NAN</DistanceMeters>
          </Trackpoint>
          <Trackpoint>
            <Time>2022-07-13T14:30:42.000Z</Time>
            <Position>
              <LatitudeDegrees>43.46530378796160221099853515625</LatitudeDegrees>
              <LongitudeDegrees>-3.66038373671472072601318359375</LongitudeDegrees>
            </Position>
            <AltitudeMeters>56</AltitudeMeters>
            <DistanceMeters>NAN</DistanceMeters>
          </Trackpoint>
          <Trackpoint>
            <Time>2022-07-13T14:30:44.000Z</Time>
            <Position>
              <LatitudeDegrees>43.4654413349926471710205078125</LatitudeDegrees>
              <LongitudeDegrees>-3.6606069467961788177490234375</LongitudeDegrees>
            </Position>
            <AltitudeMeters>54.40000152587890625</AltitudeMeters>
            <DistanceMeters>NAN</DistanceMeters>
          </Trackpoint>
          <Trackpoint>
            <Time>2022-07-13T14:30:46.000Z</Time>
            <Position>
              <LatitudeDegrees>43.4655580110847949981689453125</LatitudeDegrees>
              <LongitudeDegrees>-3.66085262037813663482666015625</LongitudeDegrees>
            </Position>
            <AltitudeMeters>52.799999237060546875</AltitudeMeters>
            <DistanceMeters>NAN</DistanceMeters>
          </Trackpoint>
          <Trackpoint>
            <Time>2022-07-13T14:30:47.000Z</Time>
            <Position>
              <LatitudeDegrees>43.465615846216678619384765625</LatitudeDegrees>
              <LongitudeDegrees>-3.66096845827996730804443359375</LongitudeDegrees>
            </Position>
            <AltitudeMeters>51.59999847412109375</AltitudeMeters>
            <DistanceMeters>NAN</DistanceMeters>
          </Trackpoint>
          <Trackpoint>
            <Time>2022-07-13T14:30:49.000Z</Time>
            <Position>
              <LatitudeDegrees>43.4657387249171733856201171875</LatitudeDegrees>
              <LongitudeDegrees>-3.66118848323822021484375</LongitudeDegrees>
            </Position>
            <AltitudeMeters>49.59999847412109375</AltitudeMeters>
            <DistanceMeters>NAN</DistanceMeters>
          </Trackpoint>
          <Trackpoint>
            <Time>2022-07-13T14:30:50.000Z</Time>
            <Position>
              <LatitudeDegrees>43.465808294713497161865234375</LatitudeDegrees>
              <LongitudeDegrees>-3.6612855456769466400146484375</LongitudeDegrees>
            </Position>
            <AltitudeMeters>49</AltitudeMeters>
            <DistanceMeters>NAN</DistanceMeters>
          </Trackpoint>
          <Trackpoint>
            <Time>2022-07-13T14:30:51.000Z</Time>
            <Position>
              <LatitudeDegrees>43.465887419879436492919921875</LatitudeDegrees>
              <LongitudeDegrees>-3.66137020289897918701171875</LongitudeDegrees>
            </Position>
            <AltitudeMeters>47.799999237060546875</AltitudeMeters>
            <DistanceMeters>NAN</DistanceMeters>
          </Trackpoint>
          <Trackpoint>
            <Time>2022-07-13T14:30:53.000Z</Time>
            <Position>
              <LatitudeDegrees>43.46606754697859287261962890625</LatitudeDegrees>
              <LongitudeDegrees>-3.661511354148387908935546875</LongitudeDegrees>
            </Position>
            <AltitudeMeters>46.40000152587890625</AltitudeMeters>
            <DistanceMeters>NAN</DistanceMeters>
          </Trackpoint>
          <Trackpoint>
            <Time>2022-07-13T14:30:56.000Z</Time>
            <Position>
              <LatitudeDegrees>43.46635940484702587127685546875</LatitudeDegrees>
              <LongitudeDegrees>-3.661687374114990234375</LongitudeDegrees>
            </Position>
            <AltitudeMeters>45</AltitudeMeters>
            <DistanceMeters>NAN</DistanceMeters>
          </Trackpoint>
          <Trackpoint>
            <Time>2022-07-13T14:30:59.000Z</Time>
            <Position>
              <LatitudeDegrees>43.4666597284376621246337890625</LatitudeDegrees>
              <LongitudeDegrees>-3.661864735186100006103515625</LongitudeDegrees>
            </Position>
            <AltitudeMeters>43.59999847412109375</AltitudeMeters>
            <DistanceMeters>NAN</DistanceMeters>
          </Trackpoint>
          <Trackpoint>
            <Time>2022-07-13T14:31:01.000Z</Time>
            <Position>
              <LatitudeDegrees>43.466848991811275482177734375</LatitudeDegrees>
              <LongitudeDegrees>-3.6619822494685649871826171875</LongitudeDegrees>
            </Position>
            <AltitudeMeters>42.59999847412109375</AltitudeMeters>
            <DistanceMeters>NAN</DistanceMeters>
          </Trackpoint>
          <Trackpoint>
            <Time>2022-07-13T14:31:02.000Z</Time>
            <Position>
              <LatitudeDegrees>43.46693926490843296051025390625</LatitudeDegrees>
              <LongitudeDegrees>-3.66204251535236835479736328125</LongitudeDegrees>
            </Position>
            <AltitudeMeters>42.40000152587890625</AltitudeMeters>
            <DistanceMeters>NAN</DistanceMeters>
          </Trackpoint>
          <Trackpoint>
            <Time>2022-07-13T14:31:05.000Z</Time>
            <Position>
              <LatitudeDegrees>43.46718384884297847747802734375</LatitudeDegrees>
              <LongitudeDegrees>-3.66219121031463146209716796875</LongitudeDegrees>
            </Position>
            <AltitudeMeters>42</AltitudeMeters>
            <DistanceMeters>NAN</DistanceMeters>
          </Trackpoint>
          <Trackpoint>
            <Time>2022-07-13T14:31:06.000Z</Time>
            <Position>
              <LatitudeDegrees>43.46725660376250743865966796875</LatitudeDegrees>
              <LongitudeDegrees>-3.66225491277873516082763671875</LongitudeDegrees>
            </Position>
            <AltitudeMeters>41.799999237060546875</AltitudeMeters>
            <DistanceMeters>NAN</DistanceMeters>
          </Trackpoint>
          <Trackpoint>
            <Time>2022-07-13T14:31:08.000Z</Time>
            <Position>
              <LatitudeDegrees>43.46739373169839382171630859375</LatitudeDegrees>
              <LongitudeDegrees>-3.6623860895633697509765625</LongitudeDegrees>
            </Position>
            <AltitudeMeters>41.200000762939453125</AltitudeMeters>
            <DistanceMeters>NAN</DistanceMeters>
          </Trackpoint>
          <Trackpoint>
            <Time>2022-07-13T14:31:10.000Z</Time>
            <Position>
              <LatitudeDegrees>43.46750236116349697113037109375</LatitudeDegrees>
              <LongitudeDegrees>-3.66253017447888851165771484375</LongitudeDegrees>
            </Position>
            <AltitudeMeters>40.200000762939453125</AltitudeMeters>
            <DistanceMeters>NAN</DistanceMeters>
          </Trackpoint>
          <Trackpoint>
            <Time>2022-07-13T14:31:12.000Z</Time>
            <Position>
              <LatitudeDegrees>43.46761685796082019805908203125</LatitudeDegrees>
              <LongitudeDegrees>-3.66265523247420787811279296875</LongitudeDegrees>
            </Position>
            <AltitudeMeters>38.59999847412109375</AltitudeMeters>
            <DistanceMeters>NAN</DistanceMeters>
          </Trackpoint>
          <Trackpoint>
            <Time>2022-07-13T14:31:14.000Z</Time>
            <Position>
              <LatitudeDegrees>43.4677316062152385711669921875</LatitudeDegrees>
              <LongitudeDegrees>-3.6627379618585109710693359375</LongitudeDegrees>
            </Position>
            <AltitudeMeters>37.59999847412109375</AltitudeMeters>
            <DistanceMeters>NAN</DistanceMeters>
          </Trackpoint>
          <Trackpoint>
            <Time>2022-07-13T14:31:16.000Z</Time>
            <Position>
              <LatitudeDegrees>43.46781827509403228759765625</LatitudeDegrees>
              <LongitudeDegrees>-3.6627909354865550994873046875</LongitudeDegrees>
            </Position>
            <AltitudeMeters>36.40000152587890625</AltitudeMeters>
            <DistanceMeters>NAN</DistanceMeters>
          </Trackpoint>
          <Trackpoint>
            <Time>2022-07-13T14:31:18.000Z</Time>
            <Position>
              <LatitudeDegrees>43.46785624511539936065673828125</LatitudeDegrees>
              <LongitudeDegrees>-3.662858493626117706298828125</LongitudeDegrees>
            </Position>
            <AltitudeMeters>35.799999237060546875</AltitudeMeters>
            <DistanceMeters>NAN</DistanceMeters>
          </Trackpoint>
          <Trackpoint>
            <Time>2022-07-13T14:31:19.000Z</Time>
            <Position>
              <LatitudeDegrees>43.467852137982845306396484375</LatitudeDegrees>
              <LongitudeDegrees>-3.6629129759967327117919921875</LongitudeDegrees>
            </Position>
            <AltitudeMeters>35.200000762939453125</AltitudeMeters>
            <DistanceMeters>NAN</DistanceMeters>
          </Trackpoint>
          <Trackpoint>
            <Time>2022-07-13T14:31:20.000Z</Time>
            <Position>
              <LatitudeDegrees>43.4678377211093902587890625</LatitudeDegrees>
              <LongitudeDegrees>-3.6629693023860454559326171875</LongitudeDegrees>
            </Position>
            <AltitudeMeters>34.799999237060546875</AltitudeMeters>
            <DistanceMeters>NAN</DistanceMeters>
          </Trackpoint>
          <Trackpoint>
            <Time>2022-07-13T14:31:23.000Z</Time>
            <Position>
              <LatitudeDegrees>43.467788435518741607666015625</LatitudeDegrees>
              <LongitudeDegrees>-3.6631594039499759674072265625</LongitudeDegrees>
            </Position>
            <AltitudeMeters>34.200000762939453125</AltitudeMeters>
            <DistanceMeters>NAN</DistanceMeters>
          </Trackpoint>
          <Trackpoint>
            <Time>2022-07-13T14:31:24.000Z</Time>
            <Position>
              <LatitudeDegrees>43.46778080798685550689697265625</LatitudeDegrees>
              <LongitudeDegrees>-3.663225285708904266357421875</LongitudeDegrees>
            </Position>
            <AltitudeMeters>34.200000762939453125</AltitudeMeters>
            <DistanceMeters>NAN</DistanceMeters>
          </Trackpoint>
          <Trackpoint>
            <Time>2022-07-13T14:31:28.000Z</Time>
            <Position>
              <LatitudeDegrees>43.46774375997483730316162109375</LatitudeDegrees>
              <LongitudeDegrees>-3.66351597011089324951171875</LongitudeDegrees>
            </Position>
            <AltitudeMeters>33.799999237060546875</AltitudeMeters>
            <DistanceMeters>NAN</DistanceMeters>
          </Trackpoint>
          <Trackpoint>
            <Time>2022-07-13T14:31:31.000Z</Time>
            <Position>
              <LatitudeDegrees>43.46768081188201904296875</LatitudeDegrees>
              <LongitudeDegrees>-3.66375963203608989715576171875</LongitudeDegrees>
            </Position>
            <AltitudeMeters>33</AltitudeMeters>
            <DistanceMeters>NAN</DistanceMeters>
          </Trackpoint>
          <Trackpoint>
            <Time>2022-07-13T14:31:34.000Z</Time>
            <Position>
              <LatitudeDegrees>43.46760964952409267425537109375</LatitudeDegrees>
              <LongitudeDegrees>-3.66402969695627689361572265625</LongitudeDegrees>
            </Position>
            <AltitudeMeters>32.40000152587890625</AltitudeMeters>
            <DistanceMeters>NAN</DistanceMeters>
          </Trackpoint>
          <Trackpoint>
            <Time>2022-07-13T14:31:37.000Z</Time>
            <Position>
              <LatitudeDegrees>43.46754334867000579833984375</LatitudeDegrees>
              <LongitudeDegrees>-3.66433245129883289337158203125</LongitudeDegrees>
            </Position>
            <AltitudeMeters>31.799999237060546875</AltitudeMeters>
            <DistanceMeters>NAN</DistanceMeters>
          </Trackpoint>
          <Trackpoint>
            <Time>2022-07-13T14:31:40.000Z</Time>
            <Position>
              <LatitudeDegrees>43.46747771836817264556884765625</LatitudeDegrees>
              <LongitudeDegrees>-3.664660267531871795654296875</LongitudeDegrees>
            </Position>
            <AltitudeMeters>31.6000003814697265625</AltitudeMeters>
            <DistanceMeters>NAN</DistanceMeters>
          </Trackpoint>
          <Trackpoint>
            <Time>2022-07-13T14:31:44.000Z</Time>
            <Position>
              <LatitudeDegrees>43.467381410300731658935546875</LatitudeDegrees>
              <LongitudeDegrees>-3.66512127220630645751953125</LongitudeDegrees>
            </Position>
            <AltitudeMeters>30.799999237060546875</AltitudeMeters>
            <DistanceMeters>NAN</DistanceMeters>
          </Trackpoint>
          <Trackpoint>
            <Time>2022-07-13T14:31:47.000Z</Time>
            <Position>
              <LatitudeDegrees>43.4673252515494823455810546875</LatitudeDegrees>
              <LongitudeDegrees>-3.66547926329076290130615234375</LongitudeDegrees>
            </Position>
            <AltitudeMeters>29.799999237060546875</AltitudeMeters>
            <DistanceMeters>NAN</DistanceMeters>
          </Trackpoint>
          <Trackpoint>
            <Time>2022-07-13T14:31:48.000Z</Time>
            <Position>
              <LatitudeDegrees>43.46730454824864864349365234375</LatitudeDegrees>
              <LongitudeDegrees>-3.665597029030323028564453125</LongitudeDegrees>
            </Position>
            <AltitudeMeters>29.6000003814697265625</AltitudeMeters>
            <DistanceMeters>NAN</DistanceMeters>
          </Trackpoint>
          <Trackpoint>
            <Time>2022-07-13T14:31:50.000Z</Time>
            <Position>
              <LatitudeDegrees>43.467258699238300323486328125</LatitudeDegrees>
              <LongitudeDegrees>-3.66584270261228084564208984375</LongitudeDegrees>
            </Position>
            <AltitudeMeters>29.200000762939453125</AltitudeMeters>
            <DistanceMeters>NAN</DistanceMeters>
          </Trackpoint>
          <Trackpoint>
            <Time>2022-07-13T14:31:53.000Z</Time>
            <Position>
              <LatitudeDegrees>43.46718854270875453948974609375</LatitudeDegrees>
              <LongitudeDegrees>-3.66619222797453403472900390625</LongitudeDegrees>
            </Position>
            <AltitudeMeters>28.799999237060546875</AltitudeMeters>
            <DistanceMeters>NAN</DistanceMeters>
          </Trackpoint>
          <Trackpoint>
            <Time>2022-07-13T14:31:57.000Z</Time>
            <Position>
              <LatitudeDegrees>43.46707857213914394378662109375</LatitudeDegrees>
              <LongitudeDegrees>-3.66663747467100620269775390625</LongitudeDegrees>
            </Position>
            <AltitudeMeters>28.3999996185302734375</AltitudeMeters>
            <DistanceMeters>NAN</DistanceMeters>
          </Trackpoint>
          <Trackpoint>
            <Time>2022-07-13T14:32:02.000Z</Time>
            <Position>
              <LatitudeDegrees>43.46695167012512683868408203125</LatitudeDegrees>
              <LongitudeDegrees>-3.66714105941355228424072265625</LongitudeDegrees>
            </Position>
            <AltitudeMeters>27.799999237060546875</AltitudeMeters>
            <DistanceMeters>NAN</DistanceMeters>
          </Trackpoint>
          <Trackpoint>
            <Time>2022-07-13T14:32:04.000Z</Time>
            <Position>
              <LatitudeDegrees>43.46689484082162380218505859375</LatitudeDegrees>
              <LongitudeDegrees>-3.66732764057815074920654296875</LongitudeDegrees>
            </Position>
            <AltitudeMeters>27.799999237060546875</AltitudeMeters>
            <DistanceMeters>NAN</DistanceMeters>
          </Trackpoint>
          <Trackpoint>
            <Time>2022-07-13T14:32:07.000Z</Time>
            <Position>
              <LatitudeDegrees>43.4668293781578540802001953125</LatitudeDegrees>
              <LongitudeDegrees>-3.66755512543022632598876953125</LongitudeDegrees>
            </Position>
            <AltitudeMeters>27.3999996185302734375</AltitudeMeters>
            <DistanceMeters>NAN</DistanceMeters>
          </Trackpoint>
          <Trackpoint>
            <Time>2022-07-13T14:32:13.000Z</Time>
            <Position>
              <LatitudeDegrees>43.4667133726179599761962890625</LatitudeDegrees>
              <LongitudeDegrees>-3.667971789836883544921875</LongitudeDegrees>
            </Position>
            <AltitudeMeters>27</AltitudeMeters>
            <DistanceMeters>NAN</DistanceMeters>
          </Trackpoint>
          <Trackpoint>
            <Time>2022-07-13T14:32:20.000Z</Time>
            <Position>
              <LatitudeDegrees>43.46661019138991832733154296875</LatitudeDegrees>
              <LongitudeDegrees>-3.668382503092288970947265625</LongitudeDegrees>
            </Position>
            <AltitudeMeters>27.200000762939453125</AltitudeMeters>
            <DistanceMeters>NAN</DistanceMeters>
          </Trackpoint>
          <Trackpoint>
            <Time>2022-07-13T14:32:28.000Z</Time>
            <Position>
              <LatitudeDegrees>43.466523773968219757080078125</LatitudeDegrees>
              <LongitudeDegrees>-3.66880319081246852874755859375</LongitudeDegrees>
            </Position>
            <AltitudeMeters>28</AltitudeMeters>
            <DistanceMeters>NAN</DistanceMeters>
          </Trackpoint>
          <Trackpoint>
            <Time>2022-07-13T14:32:32.000Z</Time>
            <Position>
              <LatitudeDegrees>43.46653156913816928863525390625</LatitudeDegrees>
              <LongitudeDegrees>-3.66899228654801845550537109375</LongitudeDegrees>
            </Position>
            <AltitudeMeters>28.3999996185302734375</AltitudeMeters>
            <DistanceMeters>NAN</DistanceMeters>
          </Trackpoint>
          <Trackpoint>
            <Time>2022-07-13T14:32:36.000Z</Time>
            <Position>
              <LatitudeDegrees>43.46666618250310420989990234375</LatitudeDegrees>
              <LongitudeDegrees>-3.669107370078563690185546875</LongitudeDegrees>
            </Position>
            <AltitudeMeters>28.6000003814697265625</AltitudeMeters>
            <DistanceMeters>NAN</DistanceMeters>
          </Trackpoint>
          <Trackpoint>
            <Time>2022-07-13T14:32:37.000Z</Time>
            <Position>
              <LatitudeDegrees>43.46670239232480525970458984375</LatitudeDegrees>
              <LongitudeDegrees>-3.669135868549346923828125</LongitudeDegrees>
            </Position>
            <AltitudeMeters>28.6000003814697265625</AltitudeMeters>
            <DistanceMeters>NAN</DistanceMeters>
          </Trackpoint>
          <Trackpoint>
            <Time>2022-07-13T14:32:41.000Z</Time>
            <Position>
              <LatitudeDegrees>43.46686097793281078338623046875</LatitudeDegrees>
              <LongitudeDegrees>-3.669226057827472686767578125</LongitudeDegrees>
            </Position>
            <AltitudeMeters>28.3999996185302734375</AltitudeMeters>
            <DistanceMeters>NAN</DistanceMeters>
          </Trackpoint>
          <Trackpoint>
            <Time>2022-07-13T14:32:43.000Z</Time>
            <Position>
              <LatitudeDegrees>43.46694027073681354522705078125</LatitudeDegrees>
              <LongitudeDegrees>-3.66926218383014202117919921875</LongitudeDegrees>
            </Position>
            <AltitudeMeters>28.3999996185302734375</AltitudeMeters>
            <DistanceMeters>NAN</DistanceMeters>
          </Trackpoint>
          <Trackpoint>
            <Time>2022-07-13T14:32:47.000Z</Time>
            <Position>
              <LatitudeDegrees>43.46710287965834140777587890625</LatitudeDegrees>
              <LongitudeDegrees>-3.6693519540131092071533203125</LongitudeDegrees>
            </Position>
            <AltitudeMeters>28.3999996185302734375</AltitudeMeters>
            <DistanceMeters>NAN</DistanceMeters>
          </Trackpoint>
          <Trackpoint>
            <Time>2022-07-13T14:32:49.000Z</Time>
            <Position>
              <LatitudeDegrees>43.46718435175716876983642578125</LatitudeDegrees>
              <LongitudeDegrees>-3.6694025807082653045654296875</LongitudeDegrees>
            </Position>
            <AltitudeMeters>28.6000003814697265625</AltitudeMeters>
            <DistanceMeters>NAN</DistanceMeters>
          </Trackpoint>
          <Trackpoint>
            <Time>2022-07-13T14:32:51.000Z</Time>
            <Position>
              <LatitudeDegrees>43.46725945360958576202392578125</LatitudeDegrees>
              <LongitudeDegrees>-3.66944742389023303985595703125</LongitudeDegrees>
            </Position>
            <AltitudeMeters>28.6000003814697265625</AltitudeMeters>
            <DistanceMeters>NAN</DistanceMeters>
          </Trackpoint>
          <Trackpoint>
            <Time>2022-07-13T14:32:54.000Z</Time>
            <Position>
              <LatitudeDegrees>43.4673638083040714263916015625</LatitudeDegrees>
              <LongitudeDegrees>-3.669517077505588531494140625</LongitudeDegrees>
            </Position>
            <AltitudeMeters>28.799999237060546875</AltitudeMeters>
            <DistanceMeters>NAN</DistanceMeters>
          </Trackpoint>
          <Trackpoint>
            <Time>2022-07-13T14:32:58.000Z</Time>
            <Position>
              <LatitudeDegrees>43.46750303171575069427490234375</LatitudeDegrees>
              <LongitudeDegrees>-3.6695905029773712158203125</LongitudeDegrees>
            </Position>
            <AltitudeMeters>28.3999996185302734375</AltitudeMeters>
            <DistanceMeters>NAN</DistanceMeters>
          </Trackpoint>
          <Trackpoint>
            <Time>2022-07-13T14:33:05.000Z</Time>
            <Position>
              <LatitudeDegrees>43.46771023236215114593505859375</LatitudeDegrees>
              <LongitudeDegrees>-3.6697036586701869964599609375</LongitudeDegrees>
            </Position>
            <AltitudeMeters>27.799999237060546875</AltitudeMeters>
            <DistanceMeters>NAN</DistanceMeters>
          </Trackpoint>
          <Trackpoint>
            <Time>2022-07-13T14:33:11.000Z</Time>
            <Position>
              <LatitudeDegrees>43.46790184266865253448486328125</LatitudeDegrees>
              <LongitudeDegrees>-3.66976082324981689453125</LongitudeDegrees>
            </Position>
            <AltitudeMeters>28</AltitudeMeters>
            <DistanceMeters>NAN</DistanceMeters>
          </Trackpoint>
          <Trackpoint>
            <Time>2022-07-13T14:33:13.000Z</Time>
            <Position>
              <LatitudeDegrees>43.46797049045562744140625</LatitudeDegrees>
              <LongitudeDegrees>-3.669771216809749603271484375</LongitudeDegrees>
            </Position>
            <AltitudeMeters>28</AltitudeMeters>
            <DistanceMeters>NAN</DistanceMeters>
          </Trackpoint>
          <Trackpoint>
            <Time>2022-07-13T14:33:15.000Z</Time>
            <Position>
              <LatitudeDegrees>43.46804047934710979461669921875</LatitudeDegrees>
              <LongitudeDegrees>-3.6697764135897159576416015625</LongitudeDegrees>
            </Position>
            <AltitudeMeters>28</AltitudeMeters>
            <DistanceMeters>NAN</DistanceMeters>
          </Trackpoint>
          <Trackpoint>
            <Time>2022-07-13T14:33:18.000Z</Time>
            <Position>
              <LatitudeDegrees>43.46814609132707118988037109375</LatitudeDegrees>
              <LongitudeDegrees>-3.669798038899898529052734375</LongitudeDegrees>
            </Position>
            <AltitudeMeters>28</AltitudeMeters>
            <DistanceMeters>NAN</DistanceMeters>
          </Trackpoint>
          <Trackpoint>
            <Time>2022-07-13T14:33:22.000Z</Time>
            <Position>
              <LatitudeDegrees>43.46830300055444240570068359375</LatitudeDegrees>
              <LongitudeDegrees>-3.66985000669956207275390625</LongitudeDegrees>
            </Position>
            <AltitudeMeters>27.799999237060546875</AltitudeMeters>
            <DistanceMeters>NAN</DistanceMeters>
          </Trackpoint>
          <Trackpoint>
            <Time>2022-07-13T14:33:23.000Z</Time>
            <Position>
              <LatitudeDegrees>43.46834910102188587188720703125</LatitudeDegrees>
              <LongitudeDegrees>-3.6698505096137523651123046875</LongitudeDegrees>
            </Position>
            <AltitudeMeters>27.6000003814697265625</AltitudeMeters>
            <DistanceMeters>NAN</DistanceMeters>
          </Trackpoint>
          <Trackpoint>
            <Time>2022-07-13T14:33:24.000Z</Time>
            <Position>
              <LatitudeDegrees>43.46839671023190021514892578125</LatitudeDegrees>
              <LongitudeDegrees>-3.6698588915169239044189453125</LongitudeDegrees>
            </Position>
            <AltitudeMeters>27.6000003814697265625</AltitudeMeters>
            <DistanceMeters>NAN</DistanceMeters>
          </Trackpoint>
          <Trackpoint>
            <Time>2022-07-13T14:33:26.000Z</Time>
            <Position>
              <LatitudeDegrees>43.4684787690639495849609375</LatitudeDegrees>
              <LongitudeDegrees>-3.669908009469509124755859375</LongitudeDegrees>
            </Position>
            <AltitudeMeters>27.3999996185302734375</AltitudeMeters>
            <DistanceMeters>NAN</DistanceMeters>
          </Trackpoint>
          <Trackpoint>
            <Time>2022-07-13T14:33:28.000Z</Time>
            <Position>
              <LatitudeDegrees>43.46854590810835361480712890625</LatitudeDegrees>
              <LongitudeDegrees>-3.66997431032359600067138671875</LongitudeDegrees>
            </Position>
            <AltitudeMeters>27.3999996185302734375</AltitudeMeters>
            <DistanceMeters>NAN</DistanceMeters>
          </Trackpoint>
          <Trackpoint>
            <Time>2022-07-13T14:33:34.000Z</Time>
            <Position>
              <LatitudeDegrees>43.468681611120700836181640625</LatitudeDegrees>
              <LongitudeDegrees>-3.67018528282642364501953125</LongitudeDegrees>
            </Position>
            <AltitudeMeters>27.200000762939453125</AltitudeMeters>
            <DistanceMeters>NAN</DistanceMeters>
          </Trackpoint>
          <Trackpoint>
            <Time>2022-07-13T14:33:40.000Z</Time>
            <Position>
              <LatitudeDegrees>43.4687602333724498748779296875</LatitudeDegrees>
              <LongitudeDegrees>-3.670333810150623321533203125</LongitudeDegrees>
            </Position>
            <AltitudeMeters>27.3999996185302734375</AltitudeMeters>
            <DistanceMeters>NAN</DistanceMeters>
          </Trackpoint>
          <Trackpoint>
            <Time>2022-07-13T14:33:46.000Z</Time>
            <Position>
              <LatitudeDegrees>43.4688366763293743133544921875</LatitudeDegrees>
              <LongitudeDegrees>-3.67046414874494075775146484375</LongitudeDegrees>
            </Position>
            <AltitudeMeters>28</AltitudeMeters>
            <DistanceMeters>NAN</DistanceMeters>
          </Trackpoint>
          <Trackpoint>
            <Time>2022-07-13T14:33:47.000Z</Time>
            <Position>
              <LatitudeDegrees>43.4688487462699413299560546875</LatitudeDegrees>
              <LongitudeDegrees>-3.6704848520457744598388671875</LongitudeDegrees>
            </Position>
            <AltitudeMeters>28.200000762939453125</AltitudeMeters>
            <DistanceMeters>NAN</DistanceMeters>
          </Trackpoint>
          <Trackpoint>
            <Time>2022-07-13T14:33:51.000Z</Time>
            <Position>
              <LatitudeDegrees>43.468904234468936920166015625</LatitudeDegrees>
              <LongitudeDegrees>-3.67054763250052928924560546875</LongitudeDegrees>
            </Position>
            <AltitudeMeters>28.799999237060546875</AltitudeMeters>
            <DistanceMeters>NAN</DistanceMeters>
          </Trackpoint>
          <Trackpoint>
            <Time>2022-07-13T14:33:54.000Z</Time>
            <Position>
              <LatitudeDegrees>43.46893005073070526123046875</LatitudeDegrees>
              <LongitudeDegrees>-3.67059909738600254058837890625</LongitudeDegrees>
            </Position>
            <AltitudeMeters>29.200000762939453125</AltitudeMeters>
            <DistanceMeters>NAN</DistanceMeters>
          </Trackpoint>
          <Trackpoint>
            <Time>2022-07-13T14:33:55.000Z</Time>
            <Position>
              <LatitudeDegrees>43.4689416177570819854736328125</LatitudeDegrees>
              <LongitudeDegrees>-3.670614100992679595947265625</LongitudeDegrees>
            </Position>
            <AltitudeMeters>29.6000003814697265625</AltitudeMeters>
            <DistanceMeters>NAN</DistanceMeters>
          </Trackpoint>
          <Trackpoint>
            <Time>2022-07-13T14:33:56.000Z</Time>
            <Position>
              <LatitudeDegrees>43.46895427443087100982666015625</LatitudeDegrees>
              <LongitudeDegrees>-3.67062977515161037445068359375</LongitudeDegrees>
            </Position>
            <AltitudeMeters>30</AltitudeMeters>
            <DistanceMeters>NAN</DistanceMeters>
          </Trackpoint>
          <Trackpoint>
            <Time>2022-07-13T14:33:59.000Z</Time>
            <Position>
              <LatitudeDegrees>43.46898847259581089019775390625</LatitudeDegrees>
              <LongitudeDegrees>-3.6706848442554473876953125</LongitudeDegrees>
            </Position>
            <AltitudeMeters>30.3999996185302734375</AltitudeMeters>
            <DistanceMeters>NAN</DistanceMeters>
          </Trackpoint>
          <Trackpoint>
            <Time>2022-07-13T14:34:04.000Z</Time>
            <Position>
              <LatitudeDegrees>43.46904496662318706512451171875</LatitudeDegrees>
              <LongitudeDegrees>-3.6707721836864948272705078125</LongitudeDegrees>
            </Position>
            <AltitudeMeters>30.6000003814697265625</AltitudeMeters>
            <DistanceMeters>NAN</DistanceMeters>
          </Trackpoint>
          <Trackpoint>
            <Time>2022-07-13T14:34:10.000Z</Time>
            <Position>
              <LatitudeDegrees>43.46910766325891017913818359375</LatitudeDegrees>
              <LongitudeDegrees>-3.6708536557853221893310546875</LongitudeDegrees>
            </Position>
            <AltitudeMeters>31</AltitudeMeters>
            <DistanceMeters>NAN</DistanceMeters>
          </Trackpoint>
          <Trackpoint>
            <Time>2022-07-13T14:34:11.000Z</Time>
            <Position>
              <LatitudeDegrees>43.4691144526004791259765625</LatitudeDegrees>
              <LongitudeDegrees>-3.670871593058109283447265625</LongitudeDegrees>
            </Position>
            <AltitudeMeters>31.200000762939453125</AltitudeMeters>
            <DistanceMeters>NAN</DistanceMeters>
          </Trackpoint>
          <Trackpoint>
            <Time>2022-07-13T14:34:15.000Z</Time>
            <Position>
              <LatitudeDegrees>43.46915845759212970733642578125</LatitudeDegrees>
              <LongitudeDegrees>-3.6709287576377391815185546875</LongitudeDegrees>
            </Position>
            <AltitudeMeters>32.200000762939453125</AltitudeMeters>
            <DistanceMeters>NAN</DistanceMeters>
          </Trackpoint>
          <Trackpoint>
            <Time>2022-07-13T14:34:19.000Z</Time>
            <Position>
              <LatitudeDegrees>43.469199277460575103759765625</LatitudeDegrees>
              <LongitudeDegrees>-3.6709941364824771881103515625</LongitudeDegrees>
            </Position>
            <AltitudeMeters>33</AltitudeMeters>
            <DistanceMeters>NAN</DistanceMeters>
          </Trackpoint>
          <Trackpoint>
            <Time>2022-07-13T14:34:22.000Z</Time>
            <Position>
              <LatitudeDegrees>43.46922819502651691436767578125</LatitudeDegrees>
              <LongitudeDegrees>-3.6710424162447452545166015625</LongitudeDegrees>
            </Position>
            <AltitudeMeters>33.200000762939453125</AltitudeMeters>
            <DistanceMeters>NAN</DistanceMeters>
          </Trackpoint>
          <Trackpoint>
            <Time>2022-07-13T14:34:28.000Z</Time>
            <Position>
              <LatitudeDegrees>43.4692906402051448822021484375</LatitudeDegrees>
              <LongitudeDegrees>-3.67113788612186908721923828125</LongitudeDegrees>
            </Position>
            <AltitudeMeters>34.200000762939453125</AltitudeMeters>
            <DistanceMeters>NAN</DistanceMeters>
          </Trackpoint>
          <Trackpoint>
            <Time>2022-07-13T14:34:29.000Z</Time>
            <Position>
              <LatitudeDegrees>43.46930296160280704498291015625</LatitudeDegrees>
              <LongitudeDegrees>-3.6711520515382289886474609375</LongitudeDegrees>
            </Position>
            <AltitudeMeters>34.200000762939453125</AltitudeMeters>
            <DistanceMeters>NAN</DistanceMeters>
          </Trackpoint>
          <Trackpoint>
            <Time>2022-07-13T14:34:34.000Z</Time>
            <Position>
              <LatitudeDegrees>43.4693462960422039031982421875</LatitudeDegrees>
              <LongitudeDegrees>-3.6712442524731159210205078125</LongitudeDegrees>
            </Position>
            <AltitudeMeters>34.200000762939453125</AltitudeMeters>
            <DistanceMeters>NAN</DistanceMeters>
          </Trackpoint>
          <Trackpoint>
            <Time>2022-07-13T14:34:38.000Z</Time>
            <Position>
              <LatitudeDegrees>43.46936901099979877471923828125</LatitudeDegrees>
              <LongitudeDegrees>-3.6713233776390552520751953125</LongitudeDegrees>
            </Position>
            <AltitudeMeters>34.200000762939453125</AltitudeMeters>
            <DistanceMeters>NAN</DistanceMeters>
          </Trackpoint>
          <Trackpoint>
            <Time>2022-07-13T14:34:46.000Z</Time>
            <Position>
              <LatitudeDegrees>43.46941410563886165618896484375</LatitudeDegrees>
              <LongitudeDegrees>-3.6714957095682621002197265625</LongitudeDegrees>
            </Position>
            <AltitudeMeters>35</AltitudeMeters>
            <DistanceMeters>NAN</DistanceMeters>
          </Trackpoint>
          <Trackpoint>
            <Time>2022-07-13T14:34:52.000Z</Time>
            <Position>
              <LatitudeDegrees>43.46945333294570446014404296875</LatitudeDegrees>
              <LongitudeDegrees>-3.67162336595356464385986328125</LongitudeDegrees>
            </Position>
            <AltitudeMeters>35.200000762939453125</AltitudeMeters>
            <DistanceMeters>NAN</DistanceMeters>
          </Trackpoint>
          <Trackpoint>
            <Time>2022-07-13T14:34:53.000Z</Time>
            <Position>
              <LatitudeDegrees>43.46946439705789089202880859375</LatitudeDegrees>
              <LongitudeDegrees>-3.6716462485492229461669921875</LongitudeDegrees>
            </Position>
            <AltitudeMeters>35.40000152587890625</AltitudeMeters>
            <DistanceMeters>NAN</DistanceMeters>
          </Trackpoint>
          <Trackpoint>
            <Time>2022-07-13T14:34:56.000Z</Time>
            <Position>
              <LatitudeDegrees>43.46949205733835697174072265625</LatitudeDegrees>
              <LongitudeDegrees>-3.67171992547810077667236328125</LongitudeDegrees>
            </Position>
            <AltitudeMeters>35.59999847412109375</AltitudeMeters>
            <DistanceMeters>NAN</DistanceMeters>
          </Trackpoint>
          <Trackpoint>
            <Time>2022-07-13T14:34:58.000Z</Time>
            <Position>
              <LatitudeDegrees>43.4695078991353511810302734375</LatitudeDegrees>
              <LongitudeDegrees>-3.67177256383001804351806640625</LongitudeDegrees>
            </Position>
            <AltitudeMeters>35.799999237060546875</AltitudeMeters>
            <DistanceMeters>NAN</DistanceMeters>
          </Trackpoint>
          <Trackpoint>
            <Time>2022-07-13T14:35:00.000Z</Time>
            <Position>
              <LatitudeDegrees>43.46952273510396480560302734375</LatitudeDegrees>
              <LongitudeDegrees>-3.6718215979635715484619140625</LongitudeDegrees>
            </Position>
            <AltitudeMeters>35.799999237060546875</AltitudeMeters>
            <DistanceMeters>NAN</DistanceMeters>
          </Trackpoint>
          <Trackpoint>
            <Time>2022-07-13T14:35:02.000Z</Time>
            <Position>
              <LatitudeDegrees>43.4695337153971195220947265625</LatitudeDegrees>
              <LongitudeDegrees>-3.67187398485839366912841796875</LongitudeDegrees>
            </Position>
            <AltitudeMeters>36.40000152587890625</AltitudeMeters>
            <DistanceMeters>NAN</DistanceMeters>
          </Trackpoint>
          <Trackpoint>
            <Time>2022-07-13T14:35:06.000Z</Time>
            <Position>
              <LatitudeDegrees>43.46956908702850341796875</LatitudeDegrees>
              <LongitudeDegrees>-3.67198194377124309539794921875</LongitudeDegrees>
            </Position>
            <AltitudeMeters>36.200000762939453125</AltitudeMeters>
            <DistanceMeters>NAN</DistanceMeters>
          </Trackpoint>
          <Trackpoint>
            <Time>2022-07-13T14:35:08.000Z</Time>
            <Position>
              <LatitudeDegrees>43.4695865213871002197265625</LatitudeDegrees>
              <LongitudeDegrees>-3.67203374393284320831298828125</LongitudeDegrees>
            </Position>
            <AltitudeMeters>36</AltitudeMeters>
            <DistanceMeters>NAN</DistanceMeters>
          </Trackpoint>
          <Trackpoint>
            <Time>2022-07-13T14:35:11.000Z</Time>
            <Position>
              <LatitudeDegrees>43.46960823051631450653076171875</LatitudeDegrees>
              <LongitudeDegrees>-3.67211052216589450836181640625</LongitudeDegrees>
            </Position>
            <AltitudeMeters>35.799999237060546875</AltitudeMeters>
            <DistanceMeters>NAN</DistanceMeters>
          </Trackpoint>
          <Trackpoint>
            <Time>2022-07-13T14:35:17.000Z</Time>
            <Position>
              <LatitudeDegrees>43.4696540795266628265380859375</LatitudeDegrees>
              <LongitudeDegrees>-3.672269023954868316650390625</LongitudeDegrees>
            </Position>
            <AltitudeMeters>36.59999847412109375</AltitudeMeters>
            <DistanceMeters>NAN</DistanceMeters>
          </Trackpoint>
          <Trackpoint>
            <Time>2022-07-13T14:35:26.000Z</Time>
            <Position>
              <LatitudeDegrees>43.4697152674198150634765625</LatitudeDegrees>
              <LongitudeDegrees>-3.672508411109447479248046875</LongitudeDegrees>
            </Position>
            <AltitudeMeters>36.59999847412109375</AltitudeMeters>
            <DistanceMeters>NAN</DistanceMeters>
          </Trackpoint>
          <Trackpoint>
            <Time>2022-07-13T14:35:33.000Z</Time>
            <Position>
              <LatitudeDegrees>43.46984828822314739227294921875</LatitudeDegrees>
              <LongitudeDegrees>-3.67265584878623485565185546875</LongitudeDegrees>
            </Position>
            <AltitudeMeters>36.799999237060546875</AltitudeMeters>
            <DistanceMeters>NAN</DistanceMeters>
          </Trackpoint>
          <Trackpoint>
            <Time>2022-07-13T14:35:37.000Z</Time>
            <Position>
              <LatitudeDegrees>43.4699467755854129791259765625</LatitudeDegrees>
              <LongitudeDegrees>-3.672719635069370269775390625</LongitudeDegrees>
            </Position>
            <AltitudeMeters>36.59999847412109375</AltitudeMeters>
            <DistanceMeters>NAN</DistanceMeters>
          </Trackpoint>
          <Trackpoint>
            <Time>2022-07-13T14:35:40.000Z</Time>
            <Position>
              <LatitudeDegrees>43.4700141660869121551513671875</LatitudeDegrees>
              <LongitudeDegrees>-3.67277629673480987548828125</LongitudeDegrees>
            </Position>
            <AltitudeMeters>36.59999847412109375</AltitudeMeters>
            <DistanceMeters>NAN</DistanceMeters>
          </Trackpoint>
          <Trackpoint>
            <Time>2022-07-13T14:35:43.000Z</Time>
            <Position>
              <LatitudeDegrees>43.47010628320276737213134765625</LatitudeDegrees>
              <LongitudeDegrees>-3.6728009395301342010498046875</LongitudeDegrees>
            </Position>
            <AltitudeMeters>36.40000152587890625</AltitudeMeters>
            <DistanceMeters>NAN</DistanceMeters>
          </Trackpoint>
          <Trackpoint>
            <Time>2022-07-13T14:35:46.000Z</Time>
            <Position>
              <LatitudeDegrees>43.47019731067121028900146484375</LatitudeDegrees>
              <LongitudeDegrees>-3.6728374846279621124267578125</LongitudeDegrees>
            </Position>
            <AltitudeMeters>36.40000152587890625</AltitudeMeters>
            <DistanceMeters>NAN</DistanceMeters>
          </Trackpoint>
          <Trackpoint>
            <Time>2022-07-13T14:35:47.000Z</Time>
            <Position>
              <LatitudeDegrees>43.47022295929491519927978515625</LatitudeDegrees>
              <LongitudeDegrees>-3.67285081185400485992431640625</LongitudeDegrees>
            </Position>
            <AltitudeMeters>36.40000152587890625</AltitudeMeters>
            <DistanceMeters>NAN</DistanceMeters>
          </Trackpoint>
          <Trackpoint>
            <Time>2022-07-13T14:35:53.000Z</Time>
            <Position>
              <LatitudeDegrees>43.47040602006018161773681640625</LatitudeDegrees>
              <LongitudeDegrees>-3.67291602306067943572998046875</LongitudeDegrees>
            </Position>
            <AltitudeMeters>36.200000762939453125</AltitudeMeters>
            <DistanceMeters>NAN</DistanceMeters>
          </Trackpoint>
          <Trackpoint>
            <Time>2022-07-13T14:36:04.000Z</Time>
            <Position>
              <LatitudeDegrees>43.47076258622109889984130859375</LatitudeDegrees>
              <LongitudeDegrees>-3.67296832613646984100341796875</LongitudeDegrees>
            </Position>
            <AltitudeMeters>35.59999847412109375</AltitudeMeters>
            <DistanceMeters>NAN</DistanceMeters>
          </Trackpoint>
          <Trackpoint>
            <Time>2022-07-13T14:36:05.000Z</Time>
            <Position>
              <LatitudeDegrees>43.47079577855765819549560546875</LatitudeDegrees>
              <LongitudeDegrees>-3.672963045537471771240234375</LongitudeDegrees>
            </Position>
            <AltitudeMeters>35.40000152587890625</AltitudeMeters>
            <DistanceMeters>NAN</DistanceMeters>
          </Trackpoint>
          <Trackpoint>
            <Time>2022-07-13T14:36:07.000Z</Time>
            <Position>
              <LatitudeDegrees>43.4708617441356182098388671875</LatitudeDegrees>
              <LongitudeDegrees>-3.672954998910427093505859375</LongitudeDegrees>
            </Position>
            <AltitudeMeters>35.59999847412109375</AltitudeMeters>
            <DistanceMeters>NAN</DistanceMeters>
          </Trackpoint>
          <Trackpoint>
            <Time>2022-07-13T14:36:09.000Z</Time>
            <Position>
              <LatitudeDegrees>43.47092016600072383880615234375</LatitudeDegrees>
              <LongitudeDegrees>-3.67294804193079471588134765625</LongitudeDegrees>
            </Position>
            <AltitudeMeters>35.799999237060546875</AltitudeMeters>
            <DistanceMeters>NAN</DistanceMeters>
          </Trackpoint>
          <Trackpoint>
            <Time>2022-07-13T14:36:11.000Z</Time>
            <Position>
              <LatitudeDegrees>43.47098805941641330718994140625</LatitudeDegrees>
              <LongitudeDegrees>-3.67293379269540309906005859375</LongitudeDegrees>
            </Position>
            <AltitudeMeters>35.799999237060546875</AltitudeMeters>
            <DistanceMeters>NAN</DistanceMeters>
          </Trackpoint>
          <Trackpoint>
            <Time>2022-07-13T14:36:15.000Z</Time>
            <Position>
              <LatitudeDegrees>43.4711341559886932373046875</LatitudeDegrees>
              <LongitudeDegrees>-3.67292759008705615997314453125</LongitudeDegrees>
            </Position>
            <AltitudeMeters>35.799999237060546875</AltitudeMeters>
            <DistanceMeters>NAN</DistanceMeters>
          </Trackpoint>
          <Trackpoint>
            <Time>2022-07-13T14:36:18.000Z</Time>
            <Position>
              <LatitudeDegrees>43.47126357257366180419921875</LatitudeDegrees>
              <LongitudeDegrees>-3.67292507551610469818115234375</LongitudeDegrees>
            </Position>
            <AltitudeMeters>35.59999847412109375</AltitudeMeters>
            <DistanceMeters>NAN</DistanceMeters>
          </Trackpoint>
          <Trackpoint>
            <Time>2022-07-13T14:36:21.000Z</Time>
            <Position>
              <LatitudeDegrees>43.471407406032085418701171875</LatitudeDegrees>
              <LongitudeDegrees>-3.67291233502328395843505859375</LongitudeDegrees>
            </Position>
            <AltitudeMeters>35.200000762939453125</AltitudeMeters>
            <DistanceMeters>NAN</DistanceMeters>
          </Trackpoint>
          <Trackpoint>
            <Time>2022-07-13T14:36:23.000Z</Time>
            <Position>
              <LatitudeDegrees>43.47151041962206363677978515625</LatitudeDegrees>
              <LongitudeDegrees>-3.67290998809039592742919921875</LongitudeDegrees>
            </Position>
            <AltitudeMeters>35</AltitudeMeters>
            <DistanceMeters>NAN</DistanceMeters>
          </Trackpoint>
          <Trackpoint>
            <Time>2022-07-13T14:36:26.000Z</Time>
            <Position>
              <LatitudeDegrees>43.47167068161070346832275390625</LatitudeDegrees>
              <LongitudeDegrees>-3.6729145981371402740478515625</LongitudeDegrees>
            </Position>
            <AltitudeMeters>35.200000762939453125</AltitudeMeters>
            <DistanceMeters>NAN</DistanceMeters>
          </Trackpoint>
          <Trackpoint>
            <Time>2022-07-13T14:36:31.000Z</Time>
            <Position>
              <LatitudeDegrees>43.47194879315793514251708984375</LatitudeDegrees>
              <LongitudeDegrees>-3.67289255373179912567138671875</LongitudeDegrees>
            </Position>
            <AltitudeMeters>35.200000762939453125</AltitudeMeters>
            <DistanceMeters>NAN</DistanceMeters>
          </Trackpoint>
          <Trackpoint>
            <Time>2022-07-13T14:36:39.000Z</Time>
            <Position>
              <LatitudeDegrees>43.472345508635044097900390625</LatitudeDegrees>
              <LongitudeDegrees>-3.6728046275675296783447265625</LongitudeDegrees>
            </Position>
            <AltitudeMeters>35.40000152587890625</AltitudeMeters>
            <DistanceMeters>NAN</DistanceMeters>
          </Trackpoint>
          <Trackpoint>
            <Time>2022-07-13T14:36:43.000Z</Time>
            <Position>
              <LatitudeDegrees>43.47252882085740566253662109375</LatitudeDegrees>
              <LongitudeDegrees>-3.672773949801921844482421875</LongitudeDegrees>
            </Position>
            <AltitudeMeters>34.200000762939453125</AltitudeMeters>
            <DistanceMeters>NAN</DistanceMeters>
          </Trackpoint>
          <Trackpoint>
            <Time>2022-07-13T14:36:46.000Z</Time>
            <Position>
              <LatitudeDegrees>43.47267064265906810760498046875</LatitudeDegrees>
              <LongitudeDegrees>-3.67274100892245769500732421875</LongitudeDegrees>
            </Position>
            <AltitudeMeters>34.59999847412109375</AltitudeMeters>
            <DistanceMeters>NAN</DistanceMeters>
          </Trackpoint>
          <Trackpoint>
            <Time>2022-07-13T14:36:47.000Z</Time>
            <Position>
              <LatitudeDegrees>43.472712300717830657958984375</LatitudeDegrees>
              <LongitudeDegrees>-3.67273111827671527862548828125</LongitudeDegrees>
            </Position>
            <AltitudeMeters>34.59999847412109375</AltitudeMeters>
            <DistanceMeters>NAN</DistanceMeters>
          </Trackpoint>
          <Trackpoint>
            <Time>2022-07-13T14:36:49.000Z</Time>
            <Position>
              <LatitudeDegrees>43.47279486246407032012939453125</LatitudeDegrees>
              <LongitudeDegrees>-3.6726976744830608367919921875</LongitudeDegrees>
            </Position>
            <AltitudeMeters>34.799999237060546875</AltitudeMeters>
            <DistanceMeters>NAN</DistanceMeters>
          </Trackpoint>
          <Trackpoint>
            <Time>2022-07-13T14:36:54.000Z</Time>
            <Position>
              <LatitudeDegrees>43.47303877584636211395263671875</LatitudeDegrees>
              <LongitudeDegrees>-3.67264579050242900848388671875</LongitudeDegrees>
            </Position>
            <AltitudeMeters>35</AltitudeMeters>
            <DistanceMeters>NAN</DistanceMeters>
          </Trackpoint>
          <Trackpoint>
            <Time>2022-07-13T14:36:56.000Z</Time>
            <Position>
              <LatitudeDegrees>43.47314086742699146270751953125</LatitudeDegrees>
              <LongitudeDegrees>-3.67262181825935840606689453125</LongitudeDegrees>
            </Position>
            <AltitudeMeters>34.799999237060546875</AltitudeMeters>
            <DistanceMeters>NAN</DistanceMeters>
          </Trackpoint>
          <Trackpoint>
            <Time>2022-07-13T14:36:58.000Z</Time>
            <Position>
              <LatitudeDegrees>43.47324145026504993438720703125</LatitudeDegrees>
              <LongitudeDegrees>-3.67261008359491825103759765625</LongitudeDegrees>
            </Position>
            <AltitudeMeters>34.799999237060546875</AltitudeMeters>
            <DistanceMeters>NAN</DistanceMeters>
          </Trackpoint>
          <Trackpoint>
            <Time>2022-07-13T14:37:02.000Z</Time>
            <Position>
              <LatitudeDegrees>43.47344764508306980133056640625</LatitudeDegrees>
              <LongitudeDegrees>-3.67258275859057903289794921875</LongitudeDegrees>
            </Position>
            <AltitudeMeters>34.200000762939453125</AltitudeMeters>
            <DistanceMeters>NAN</DistanceMeters>
          </Trackpoint>
          <Trackpoint>
            <Time>2022-07-13T14:37:06.000Z</Time>
            <Position>
              <LatitudeDegrees>43.47366356290876865386962890625</LatitudeDegrees>
              <LongitudeDegrees>-3.67255342192947864532470703125</LongitudeDegrees>
            </Position>
            <AltitudeMeters>34</AltitudeMeters>
            <DistanceMeters>NAN</DistanceMeters>
          </Trackpoint>
          <Trackpoint>
            <Time>2022-07-13T14:37:10.000Z</Time>
            <Position>
              <LatitudeDegrees>43.47387864254415035247802734375</LatitudeDegrees>
              <LongitudeDegrees>-3.6725504882633686065673828125</LongitudeDegrees>
            </Position>
            <AltitudeMeters>33.799999237060546875</AltitudeMeters>
            <DistanceMeters>NAN</DistanceMeters>
          </Trackpoint>
          <Trackpoint>
            <Time>2022-07-13T14:37:15.000Z</Time>
            <Position>
              <LatitudeDegrees>43.4741561673581600189208984375</LatitudeDegrees>
              <LongitudeDegrees>-3.67259080521762371063232421875</LongitudeDegrees>
            </Position>
            <AltitudeMeters>33</AltitudeMeters>
            <DistanceMeters>NAN</DistanceMeters>
          </Trackpoint>
          <Trackpoint>
            <Time>2022-07-13T14:37:19.000Z</Time>
            <Position>
              <LatitudeDegrees>43.4743901900947093963623046875</LatitudeDegrees>
              <LongitudeDegrees>-3.672649562358856201171875</LongitudeDegrees>
            </Position>
            <AltitudeMeters>32.59999847412109375</AltitudeMeters>
            <DistanceMeters>NAN</DistanceMeters>
          </Trackpoint>
          <Trackpoint>
            <Time>2022-07-13T14:37:23.000Z</Time>
            <Position>
              <LatitudeDegrees>43.47462530247867107391357421875</LatitudeDegrees>
              <LongitudeDegrees>-3.67272038944065570831298828125</LongitudeDegrees>
            </Position>
            <AltitudeMeters>32.40000152587890625</AltitudeMeters>
            <DistanceMeters>NAN</DistanceMeters>
          </Trackpoint>
          <Trackpoint>
            <Time>2022-07-13T14:37:26.000Z</Time>
            <Position>
              <LatitudeDegrees>43.47479696385562419891357421875</LatitudeDegrees>
              <LongitudeDegrees>-3.6727767996490001678466796875</LongitudeDegrees>
            </Position>
            <AltitudeMeters>32.59999847412109375</AltitudeMeters>
            <DistanceMeters>NAN</DistanceMeters>
          </Trackpoint>
          <Trackpoint>
            <Time>2022-07-13T14:37:29.000Z</Time>
            <Position>
              <LatitudeDegrees>43.474969379603862762451171875</LatitudeDegrees>
              <LongitudeDegrees>-3.672848381102085113525390625</LongitudeDegrees>
            </Position>
            <AltitudeMeters>31.799999237060546875</AltitudeMeters>
            <DistanceMeters>NAN</DistanceMeters>
          </Trackpoint>
          <Trackpoint>
            <Time>2022-07-13T14:37:34.000Z</Time>
            <Position>
              <LatitudeDegrees>43.47525394521653652191162109375</LatitudeDegrees>
              <LongitudeDegrees>-3.67298190481960773468017578125</LongitudeDegrees>
            </Position>
            <AltitudeMeters>30.6000003814697265625</AltitudeMeters>
            <DistanceMeters>NAN</DistanceMeters>
          </Trackpoint>
          <Trackpoint>
            <Time>2022-07-13T14:37:36.000Z</Time>
            <Position>
              <LatitudeDegrees>43.47536860965192317962646484375</LatitudeDegrees>
              <LongitudeDegrees>-3.67303856648504734039306640625</LongitudeDegrees>
            </Position>
            <AltitudeMeters>30.6000003814697265625</AltitudeMeters>
            <DistanceMeters>NAN</DistanceMeters>
          </Trackpoint>
          <Trackpoint>
            <Time>2022-07-13T14:37:39.000Z</Time>
            <Position>
              <LatitudeDegrees>43.47554647363722324371337890625</LatitudeDegrees>
              <LongitudeDegrees>-3.673106543719768524169921875</LongitudeDegrees>
            </Position>
            <AltitudeMeters>30.3999996185302734375</AltitudeMeters>
            <DistanceMeters>NAN</DistanceMeters>
          </Trackpoint>
          <Trackpoint>
            <Time>2022-07-13T14:37:40.000Z</Time>
            <Position>
              <LatitudeDegrees>43.47560405731201171875</LatitudeDegrees>
              <LongitudeDegrees>-3.6731244809925556182861328125</LongitudeDegrees>
            </Position>
            <AltitudeMeters>30.3999996185302734375</AltitudeMeters>
            <DistanceMeters>NAN</DistanceMeters>
          </Trackpoint>
          <Trackpoint>
            <Time>2022-07-13T14:37:42.000Z</Time>
            <Position>
              <LatitudeDegrees>43.47571847029030323028564453125</LatitudeDegrees>
              <LongitudeDegrees>-3.67316110990941524505615234375</LongitudeDegrees>
            </Position>
            <AltitudeMeters>30.3999996185302734375</AltitudeMeters>
            <DistanceMeters>NAN</DistanceMeters>
          </Trackpoint>
          <Trackpoint>
            <Time>2022-07-13T14:37:45.000Z</Time>
            <Position>
              <LatitudeDegrees>43.47587571479380130767822265625</LatitudeDegrees>
              <LongitudeDegrees>-3.67322028614580631256103515625</LongitudeDegrees>
            </Position>
            <AltitudeMeters>29.799999237060546875</AltitudeMeters>
            <DistanceMeters>NAN</DistanceMeters>
          </Trackpoint>
          <Trackpoint>
            <Time>2022-07-13T14:37:46.000Z</Time>
            <Position>
              <LatitudeDegrees>43.475926257669925689697265625</LatitudeDegrees>
              <LongitudeDegrees>-3.67323495447635650634765625</LongitudeDegrees>
            </Position>
            <AltitudeMeters>29.6000003814697265625</AltitudeMeters>
            <DistanceMeters>NAN</DistanceMeters>
          </Trackpoint>
          <Trackpoint>
            <Time>2022-07-13T14:37:49.000Z</Time>
            <Position>
              <LatitudeDegrees>43.47605911083519458770751953125</LatitudeDegrees>
              <LongitudeDegrees>-3.67328633554279804229736328125</LongitudeDegrees>
            </Position>
            <AltitudeMeters>29.799999237060546875</AltitudeMeters>
            <DistanceMeters>NAN</DistanceMeters>
          </Trackpoint>
          <Trackpoint>
            <Time>2022-07-13T14:37:54.000Z</Time>
            <Position>
              <LatitudeDegrees>43.47627536393702030181884765625</LatitudeDegrees>
              <LongitudeDegrees>-3.673358000814914703369140625</LongitudeDegrees>
            </Position>
            <AltitudeMeters>30.3999996185302734375</AltitudeMeters>
            <DistanceMeters>NAN</DistanceMeters>
          </Trackpoint>
          <Trackpoint>
            <Time>2022-07-13T14:37:55.000Z</Time>
            <Position>
              <LatitudeDegrees>43.47631123848259449005126953125</LatitudeDegrees>
              <LongitudeDegrees>-3.67336914874613285064697265625</LongitudeDegrees>
            </Position>
            <AltitudeMeters>30.6000003814697265625</AltitudeMeters>
            <DistanceMeters>NAN</DistanceMeters>
          </Trackpoint>
          <Trackpoint>
            <Time>2022-07-13T14:37:56.000Z</Time>
            <Position>
              <LatitudeDegrees>43.4763443470001220703125</LatitudeDegrees>
              <LongitudeDegrees>-3.67337870411574840545654296875</LongitudeDegrees>
            </Position>
            <AltitudeMeters>30.6000003814697265625</AltitudeMeters>
            <DistanceMeters>NAN</DistanceMeters>
          </Trackpoint>
          <Trackpoint>
            <Time>2022-07-13T14:38:00.000Z</Time>
            <Position>
              <LatitudeDegrees>43.4764663875102996826171875</LatitudeDegrees>
              <LongitudeDegrees>-3.673412986099720001220703125</LongitudeDegrees>
            </Position>
            <AltitudeMeters>31</AltitudeMeters>
            <DistanceMeters>NAN</DistanceMeters>
          </Trackpoint>
          <Trackpoint>
            <Time>2022-07-13T14:38:02.000Z</Time>
            <Position>
              <LatitudeDegrees>43.47652615047991275787353515625</LatitudeDegrees>
              <LongitudeDegrees>-3.67342815734446048736572265625</LongitudeDegrees>
            </Position>
            <AltitudeMeters>31</AltitudeMeters>
            <DistanceMeters>NAN</DistanceMeters>
          </Trackpoint>
          <Trackpoint>
            <Time>2022-07-13T14:38:09.000Z</Time>
            <Position>
              <LatitudeDegrees>43.47671256400644779205322265625</LatitudeDegrees>
              <LongitudeDegrees>-3.6734768562018871307373046875</LongitudeDegrees>
            </Position>
            <AltitudeMeters>31.3999996185302734375</AltitudeMeters>
            <DistanceMeters>NAN</DistanceMeters>
          </Trackpoint>
          <Trackpoint>
            <Time>2022-07-13T14:38:11.000Z</Time>
            <Position>
              <LatitudeDegrees>43.476760089397430419921875</LatitudeDegrees>
              <LongitudeDegrees>-3.67349378764629364013671875</LongitudeDegrees>
            </Position>
            <AltitudeMeters>31.6000003814697265625</AltitudeMeters>
            <DistanceMeters>NAN</DistanceMeters>
          </Trackpoint>
          <Trackpoint>
            <Time>2022-07-13T14:38:15.000Z</Time>
            <Position>
              <LatitudeDegrees>43.4768541343510150909423828125</LatitudeDegrees>
              <LongitudeDegrees>-3.6735127307474613189697265625</LongitudeDegrees>
            </Position>
            <AltitudeMeters>31.200000762939453125</AltitudeMeters>
            <DistanceMeters>NAN</DistanceMeters>
          </Trackpoint>
          <Trackpoint>
            <Time>2022-07-13T14:38:17.000Z</Time>
            <Position>
              <LatitudeDegrees>43.4768990613520145416259765625</LatitudeDegrees>
              <LongitudeDegrees>-3.6735268123447895050048828125</LongitudeDegrees>
            </Position>
            <AltitudeMeters>31</AltitudeMeters>
            <DistanceMeters>NAN</DistanceMeters>
          </Trackpoint>
          <Trackpoint>
            <Time>2022-07-13T14:38:18.000Z</Time>
            <Position>
              <LatitudeDegrees>43.47692160867154598236083984375</LatitudeDegrees>
              <LongitudeDegrees>-3.673533685505390167236328125</LongitudeDegrees>
            </Position>
            <AltitudeMeters>31</AltitudeMeters>
            <DistanceMeters>NAN</DistanceMeters>
          </Trackpoint>
          <Trackpoint>
            <Time>2022-07-13T14:38:23.000Z</Time>
            <Position>
              <LatitudeDegrees>43.477028310298919677734375</LatitudeDegrees>
              <LongitudeDegrees>-3.673569895327091217041015625</LongitudeDegrees>
            </Position>
            <AltitudeMeters>31.799999237060546875</AltitudeMeters>
            <DistanceMeters>NAN</DistanceMeters>
          </Trackpoint>
          <Trackpoint>
            <Time>2022-07-13T14:38:25.000Z</Time>
            <Position>
              <LatitudeDegrees>43.4770663641393184661865234375</LatitudeDegrees>
              <LongitudeDegrees>-3.67358238436281681060791015625</LongitudeDegrees>
            </Position>
            <AltitudeMeters>32</AltitudeMeters>
            <DistanceMeters>NAN</DistanceMeters>
          </Trackpoint>
          <Trackpoint>
            <Time>2022-07-13T14:38:26.000Z</Time>
            <Position>
              <LatitudeDegrees>43.47708388231694698333740234375</LatitudeDegrees>
              <LongitudeDegrees>-3.67358758114278316497802734375</LongitudeDegrees>
            </Position>
            <AltitudeMeters>32</AltitudeMeters>
            <DistanceMeters>NAN</DistanceMeters>
          </Trackpoint>
          <Trackpoint>
            <Time>2022-07-13T14:38:28.000Z</Time>
            <Position>
              <LatitudeDegrees>43.47711749374866485595703125</LatitudeDegrees>
              <LongitudeDegrees>-3.673598058521747589111328125</LongitudeDegrees>
            </Position>
            <AltitudeMeters>32.200000762939453125</AltitudeMeters>
            <DistanceMeters>NAN</DistanceMeters>
          </Trackpoint>
          <Trackpoint>
            <Time>2022-07-13T14:38:31.000Z</Time>
            <Position>
              <LatitudeDegrees>43.47717122174799442291259765625</LatitudeDegrees>
              <LongitudeDegrees>-3.6736173368990421295166015625</LongitudeDegrees>
            </Position>
            <AltitudeMeters>32.799999237060546875</AltitudeMeters>
            <DistanceMeters>NAN</DistanceMeters>
          </Trackpoint>
          <Trackpoint>
            <Time>2022-07-13T14:38:36.000Z</Time>
            <Position>
              <LatitudeDegrees>43.4772670269012451171875</LatitudeDegrees>
              <LongitudeDegrees>-3.67364776320755481719970703125</LongitudeDegrees>
            </Position>
            <AltitudeMeters>33.59999847412109375</AltitudeMeters>
            <DistanceMeters>NAN</DistanceMeters>
          </Trackpoint>
          <Trackpoint>
            <Time>2022-07-13T14:38:43.000Z</Time>
            <Position>
              <LatitudeDegrees>43.477393090724945068359375</LatitudeDegrees>
              <LongitudeDegrees>-3.673677183687686920166015625</LongitudeDegrees>
            </Position>
            <AltitudeMeters>33.799999237060546875</AltitudeMeters>
            <DistanceMeters>NAN</DistanceMeters>
          </Trackpoint>
          <Trackpoint>
            <Time>2022-07-13T14:38:45.000Z</Time>
            <Position>
              <LatitudeDegrees>43.4774264506995677947998046875</LatitudeDegrees>
              <LongitudeDegrees>-3.67368548177182674407958984375</LongitudeDegrees>
            </Position>
            <AltitudeMeters>33.799999237060546875</AltitudeMeters>
            <DistanceMeters>NAN</DistanceMeters>
          </Trackpoint>
          <Trackpoint>
            <Time>2022-07-13T14:38:47.000Z</Time>
            <Position>
              <LatitudeDegrees>43.47745888866484165191650390625</LatitudeDegrees>
              <LongitudeDegrees>-3.67369486950337886810302734375</LongitudeDegrees>
            </Position>
            <AltitudeMeters>34</AltitudeMeters>
            <DistanceMeters>NAN</DistanceMeters>
          </Trackpoint>
          <Trackpoint>
            <Time>2022-07-13T14:38:49.000Z</Time>
            <Position>
              <LatitudeDegrees>43.477490656077861785888671875</LatitudeDegrees>
              <LongitudeDegrees>-3.67370836436748504638671875</LongitudeDegrees>
            </Position>
            <AltitudeMeters>34</AltitudeMeters>
            <DistanceMeters>NAN</DistanceMeters>
          </Trackpoint>
          <Trackpoint>
            <Time>2022-07-13T14:38:53.000Z</Time>
            <Position>
              <LatitudeDegrees>43.477546311914920806884765625</LatitudeDegrees>
              <LongitudeDegrees>-3.67372202686965465545654296875</LongitudeDegrees>
            </Position>
            <AltitudeMeters>34.799999237060546875</AltitudeMeters>
            <DistanceMeters>NAN</DistanceMeters>
          </Trackpoint>
          <Trackpoint>
            <Time>2022-07-13T14:38:54.000Z</Time>
            <Position>
              <LatitudeDegrees>43.47756215371191501617431640625</LatitudeDegrees>
              <LongitudeDegrees>-3.6737263016402721405029296875</LongitudeDegrees>
            </Position>
            <AltitudeMeters>34.799999237060546875</AltitudeMeters>
            <DistanceMeters>NAN</DistanceMeters>
          </Trackpoint>
          <Trackpoint>
            <Time>2022-07-13T14:39:02.000Z</Time>
            <Position>
              <LatitudeDegrees>43.4776894748210906982421875</LatitudeDegrees>
              <LongitudeDegrees>-3.6737775988876819610595703125</LongitudeDegrees>
            </Position>
            <AltitudeMeters>35</AltitudeMeters>
            <DistanceMeters>NAN</DistanceMeters>
          </Trackpoint>
          <Trackpoint>
            <Time>2022-07-13T14:39:08.000Z</Time>
            <Position>
              <LatitudeDegrees>43.47776927053928375244140625</LatitudeDegrees>
              <LongitudeDegrees>-3.6737950332462787628173828125</LongitudeDegrees>
            </Position>
            <AltitudeMeters>35.799999237060546875</AltitudeMeters>
            <DistanceMeters>NAN</DistanceMeters>
          </Trackpoint>
          <Trackpoint>
            <Time>2022-07-13T14:39:10.000Z</Time>
            <Position>
              <LatitudeDegrees>43.47780011594295501708984375</LatitudeDegrees>
              <LongitudeDegrees>-3.6738037504255771636962890625</LongitudeDegrees>
            </Position>
            <AltitudeMeters>36</AltitudeMeters>
            <DistanceMeters>NAN</DistanceMeters>
          </Trackpoint>
          <Trackpoint>
            <Time>2022-07-13T14:39:13.000Z</Time>
            <Position>
              <LatitudeDegrees>43.477839343249797821044921875</LatitudeDegrees>
              <LongitudeDegrees>-3.67381724528968334197998046875</LongitudeDegrees>
            </Position>
            <AltitudeMeters>36.40000152587890625</AltitudeMeters>
            <DistanceMeters>NAN</DistanceMeters>
          </Trackpoint>
          <Trackpoint>
            <Time>2022-07-13T14:39:15.000Z</Time>
            <Position>
              <LatitudeDegrees>43.47786792553961277008056640625</LatitudeDegrees>
              <LongitudeDegrees>-3.67381188087165355682373046875</LongitudeDegrees>
            </Position>
            <AltitudeMeters>36.59999847412109375</AltitudeMeters>
            <DistanceMeters>NAN</DistanceMeters>
          </Trackpoint>
          <Trackpoint>
            <Time>2022-07-13T14:39:19.000Z</Time>
            <Position>
              <LatitudeDegrees>43.47792626358568668365478515625</LatitudeDegrees>
              <LongitudeDegrees>-3.6738020740449428558349609375</LongitudeDegrees>
            </Position>
            <AltitudeMeters>37</AltitudeMeters>
            <DistanceMeters>NAN</DistanceMeters>
          </Trackpoint>
          <Trackpoint>
            <Time>2022-07-13T14:39:23.000Z</Time>
            <Position>
              <LatitudeDegrees>43.47798041068017482757568359375</LatitudeDegrees>
              <LongitudeDegrees>-3.67379260249435901641845703125</LongitudeDegrees>
            </Position>
            <AltitudeMeters>37</AltitudeMeters>
            <DistanceMeters>NAN</DistanceMeters>
          </Trackpoint>
          <Trackpoint>
            <Time>2022-07-13T14:39:25.000Z</Time>
            <Position>
              <LatitudeDegrees>43.4780068136751651763916015625</LatitudeDegrees>
              <LongitudeDegrees>-3.67378623224794864654541015625</LongitudeDegrees>
            </Position>
            <AltitudeMeters>36.799999237060546875</AltitudeMeters>
            <DistanceMeters>NAN</DistanceMeters>
          </Trackpoint>
          <Trackpoint>
            <Time>2022-07-13T14:39:29.000Z</Time>
            <Position>
              <LatitudeDegrees>43.47803489305078983306884765625</LatitudeDegrees>
              <LongitudeDegrees>-3.6738149821758270263671875</LongitudeDegrees>
            </Position>
            <AltitudeMeters>37</AltitudeMeters>
            <DistanceMeters>NAN</DistanceMeters>
          </Trackpoint>
          <Trackpoint>
            <Time>2022-07-13T14:39:31.000Z</Time>
            <Position>
              <LatitudeDegrees>43.47802986390888690948486328125</LatitudeDegrees>
              <LongitudeDegrees>-3.673838786780834197998046875</LongitudeDegrees>
            </Position>
            <AltitudeMeters>36.799999237060546875</AltitudeMeters>
            <DistanceMeters>NAN</DistanceMeters>
          </Trackpoint>
          <Trackpoint>
            <Time>2022-07-13T14:39:34.000Z</Time>
            <Position>
              <LatitudeDegrees>43.47797554917633533477783203125</LatitudeDegrees>
              <LongitudeDegrees>-3.67389536462724208831787109375</LongitudeDegrees>
            </Position>
            <AltitudeMeters>36.799999237060546875</AltitudeMeters>
            <DistanceMeters>NAN</DistanceMeters>
          </Trackpoint>
          <Trackpoint>
            <Time>2022-07-13T14:39:36.000Z</Time>
            <Position>
              <LatitudeDegrees>43.47793330438435077667236328125</LatitudeDegrees>
              <LongitudeDegrees>-3.67394817061722278594970703125</LongitudeDegrees>
            </Position>
            <AltitudeMeters>36.59999847412109375</AltitudeMeters>
            <DistanceMeters>NAN</DistanceMeters>
          </Trackpoint>
          <Trackpoint>
            <Time>2022-07-13T14:39:40.000Z</Time>
            <Position>
              <LatitudeDegrees>43.47784210927784442901611328125</LatitudeDegrees>
              <LongitudeDegrees>-3.67406669072806835174560546875</LongitudeDegrees>
            </Position>
            <AltitudeMeters>36.200000762939453125</AltitudeMeters>
            <DistanceMeters>NAN</DistanceMeters>
          </Trackpoint>
          <Trackpoint>
            <Time>2022-07-13T14:39:41.000Z</Time>
            <Position>
              <LatitudeDegrees>43.47781981341540813446044921875</LatitudeDegrees>
              <LongitudeDegrees>-3.674096278846263885498046875</LongitudeDegrees>
            </Position>
            <AltitudeMeters>36.200000762939453125</AltitudeMeters>
            <DistanceMeters>NAN</DistanceMeters>
          </Trackpoint>
          <Trackpoint>
            <Time>2022-07-13T14:39:46.000Z</Time>
            <Position>
              <LatitudeDegrees>43.47768838517367839813232421875</LatitudeDegrees>
              <LongitudeDegrees>-3.674301803112030029296875</LongitudeDegrees>
            </Position>
            <AltitudeMeters>36.200000762939453125</AltitudeMeters>
            <DistanceMeters>NAN</DistanceMeters>
          </Trackpoint>
          <Trackpoint>
            <Time>2022-07-13T14:39:52.000Z</Time>
            <Position>
              <LatitudeDegrees>43.47756098024547100067138671875</LatitudeDegrees>
              <LongitudeDegrees>-3.67457329295575618743896484375</LongitudeDegrees>
            </Position>
            <AltitudeMeters>37</AltitudeMeters>
            <DistanceMeters>NAN</DistanceMeters>
          </Trackpoint>
          <Trackpoint>
            <Time>2022-07-13T14:39:59.000Z</Time>
            <Position>
              <LatitudeDegrees>43.47752611152827739715576171875</LatitudeDegrees>
              <LongitudeDegrees>-3.6749507300555706024169921875</LongitudeDegrees>
            </Position>
            <AltitudeMeters>37</AltitudeMeters>
            <DistanceMeters>NAN</DistanceMeters>
          </Trackpoint>
          <Trackpoint>
            <Time>2022-07-13T14:40:04.000Z</Time>
            <Position>
              <LatitudeDegrees>43.4774670191109180450439453125</LatitudeDegrees>
              <LongitudeDegrees>-3.67524837143719196319580078125</LongitudeDegrees>
            </Position>
            <AltitudeMeters>36.40000152587890625</AltitudeMeters>
            <DistanceMeters>NAN</DistanceMeters>
          </Trackpoint>
          <Trackpoint>
            <Time>2022-07-13T14:40:07.000Z</Time>
            <Position>
              <LatitudeDegrees>43.47740842960774898529052734375</LatitudeDegrees>
              <LongitudeDegrees>-3.675434701144695281982421875</LongitudeDegrees>
            </Position>
            <AltitudeMeters>36.200000762939453125</AltitudeMeters>
            <DistanceMeters>NAN</DistanceMeters>
          </Trackpoint>
          <Trackpoint>
            <Time>2022-07-13T14:40:08.000Z</Time>
            <Position>
              <LatitudeDegrees>43.4773944318294525146484375</LatitudeDegrees>
              <LongitudeDegrees>-3.67550150491297245025634765625</LongitudeDegrees>
            </Position>
            <AltitudeMeters>36.200000762939453125</AltitudeMeters>
            <DistanceMeters>NAN</DistanceMeters>
          </Trackpoint>
          <Trackpoint>
            <Time>2022-07-13T14:40:10.000Z</Time>
            <Position>
              <LatitudeDegrees>43.47739954479038715362548828125</LatitudeDegrees>
              <LongitudeDegrees>-3.67563662119209766387939453125</LongitudeDegrees>
            </Position>
            <AltitudeMeters>36</AltitudeMeters>
            <DistanceMeters>NAN</DistanceMeters>
          </Trackpoint>
          <Trackpoint>
            <Time>2022-07-13T14:40:11.000Z</Time>
            <Position>
              <LatitudeDegrees>43.47740977071225643157958984375</LatitudeDegrees>
              <LongitudeDegrees>-3.67569948546588420867919921875</LongitudeDegrees>
            </Position>
            <AltitudeMeters>36</AltitudeMeters>
            <DistanceMeters>NAN</DistanceMeters>
          </Trackpoint>
          <Trackpoint>
            <Time>2022-07-13T14:40:13.000Z</Time>
            <Position>
              <LatitudeDegrees>43.4774355031549930572509765625</LatitudeDegrees>
              <LongitudeDegrees>-3.67581834085285663604736328125</LongitudeDegrees>
            </Position>
            <AltitudeMeters>36.200000762939453125</AltitudeMeters>
            <DistanceMeters>NAN</DistanceMeters>
          </Trackpoint>
          <Trackpoint>
            <Time>2022-07-13T14:40:16.000Z</Time>
            <Position>
              <LatitudeDegrees>43.47748705185949802398681640625</LatitudeDegrees>
              <LongitudeDegrees>-3.67595815099775791168212890625</LongitudeDegrees>
            </Position>
            <AltitudeMeters>37</AltitudeMeters>
            <DistanceMeters>NAN</DistanceMeters>
          </Trackpoint>
          <Trackpoint>
            <Time>2022-07-13T14:40:21.000Z</Time>
            <Position>
              <LatitudeDegrees>43.47755871713161468505859375</LatitudeDegrees>
              <LongitudeDegrees>-3.67615411989390850067138671875</LongitudeDegrees>
            </Position>
            <AltitudeMeters>38</AltitudeMeters>
            <DistanceMeters>NAN</DistanceMeters>
          </Trackpoint>
          <Trackpoint>
            <Time>2022-07-13T14:40:22.000Z</Time>
            <Position>
              <LatitudeDegrees>43.4775719605386257171630859375</LatitudeDegrees>
              <LongitudeDegrees>-3.67619954980909824371337890625</LongitudeDegrees>
            </Position>
            <AltitudeMeters>38</AltitudeMeters>
            <DistanceMeters>NAN</DistanceMeters>
          </Trackpoint>
          <Trackpoint>
            <Time>2022-07-13T14:40:24.000Z</Time>
            <Position>
              <LatitudeDegrees>43.4775944240391254425048828125</LatitudeDegrees>
              <LongitudeDegrees>-3.67628806270658969879150390625</LongitudeDegrees>
            </Position>
            <AltitudeMeters>37.59999847412109375</AltitudeMeters>
            <DistanceMeters>NAN</DistanceMeters>
          </Trackpoint>
          <Trackpoint>
            <Time>2022-07-13T14:40:27.000Z</Time>
            <Position>
              <LatitudeDegrees>43.47762200050055980682373046875</LatitudeDegrees>
              <LongitudeDegrees>-3.67641781456768512725830078125</LongitudeDegrees>
            </Position>
            <AltitudeMeters>37.200000762939453125</AltitudeMeters>
            <DistanceMeters>NAN</DistanceMeters>
          </Trackpoint>
          <Trackpoint>
            <Time>2022-07-13T14:40:29.000Z</Time>
            <Position>
              <LatitudeDegrees>43.4776309691369533538818359375</LatitudeDegrees>
              <LongitudeDegrees>-3.67652275599539279937744140625</LongitudeDegrees>
            </Position>
            <AltitudeMeters>36.799999237060546875</AltitudeMeters>
            <DistanceMeters>NAN</DistanceMeters>
          </Trackpoint>
          <Trackpoint>
            <Time>2022-07-13T14:40:30.000Z</Time>
            <Position>
              <LatitudeDegrees>43.4776306338608264923095703125</LatitudeDegrees>
              <LongitudeDegrees>-3.6765613965690135955810546875</LongitudeDegrees>
            </Position>
            <AltitudeMeters>36.59999847412109375</AltitudeMeters>
            <DistanceMeters>NAN</DistanceMeters>
          </Trackpoint>
          <Trackpoint>
            <Time>2022-07-13T14:40:34.000Z</Time>
            <Position>
              <LatitudeDegrees>43.477555029094219207763671875</LatitudeDegrees>
              <LongitudeDegrees>-3.67672861553728580474853515625</LongitudeDegrees>
            </Position>
            <AltitudeMeters>35.59999847412109375</AltitudeMeters>
            <DistanceMeters>NAN</DistanceMeters>
          </Trackpoint>
          <Trackpoint>
            <Time>2022-07-13T14:40:35.000Z</Time>
            <Position>
              <LatitudeDegrees>43.477525524795055389404296875</LatitudeDegrees>
              <LongitudeDegrees>-3.67678209207952022552490234375</LongitudeDegrees>
            </Position>
            <AltitudeMeters>35.40000152587890625</AltitudeMeters>
            <DistanceMeters>NAN</DistanceMeters>
          </Trackpoint>
          <Trackpoint>
            <Time>2022-07-13T14:40:37.000Z</Time>
            <Position>
              <LatitudeDegrees>43.47749526612460613250732421875</LatitudeDegrees>
              <LongitudeDegrees>-3.67690128274261951446533203125</LongitudeDegrees>
            </Position>
            <AltitudeMeters>34.40000152587890625</AltitudeMeters>
            <DistanceMeters>NAN</DistanceMeters>
          </Trackpoint>
          <Trackpoint>
            <Time>2022-07-13T14:40:38.000Z</Time>
            <Position>
              <LatitudeDegrees>43.47750113345682621002197265625</LatitudeDegrees>
              <LongitudeDegrees>-3.67697588168084621429443359375</LongitudeDegrees>
            </Position>
            <AltitudeMeters>33.799999237060546875</AltitudeMeters>
            <DistanceMeters>NAN</DistanceMeters>
          </Trackpoint>
          <Trackpoint>
            <Time>2022-07-13T14:40:39.000Z</Time>
            <Position>
              <LatitudeDegrees>43.4775273688137531280517578125</LatitudeDegrees>
              <LongitudeDegrees>-3.67701007984578609466552734375</LongitudeDegrees>
            </Position>
            <AltitudeMeters>33.200000762939453125</AltitudeMeters>
            <DistanceMeters>NAN</DistanceMeters>
          </Trackpoint>
          <Trackpoint>
            <Time>2022-07-13T14:40:40.000Z</Time>
            <Position>
              <LatitudeDegrees>43.4775531850755214691162109375</LatitudeDegrees>
              <LongitudeDegrees>-3.67703220807015895843505859375</LongitudeDegrees>
            </Position>
            <AltitudeMeters>32.799999237060546875</AltitudeMeters>
            <DistanceMeters>NAN</DistanceMeters>
          </Trackpoint>
          <Trackpoint>
            <Time>2022-07-13T14:40:41.000Z</Time>
            <Position>
              <LatitudeDegrees>43.4775790013372898101806640625</LatitudeDegrees>
              <LongitudeDegrees>-3.67704494856297969818115234375</LongitudeDegrees>
            </Position>
            <AltitudeMeters>32.200000762939453125</AltitudeMeters>
            <DistanceMeters>NAN</DistanceMeters>
          </Trackpoint>
          <Trackpoint>
            <Time>2022-07-13T14:40:47.000Z</Time>
            <Position>
              <LatitudeDegrees>43.47778737545013427734375</LatitudeDegrees>
              <LongitudeDegrees>-3.67703656665980815887451171875</LongitudeDegrees>
            </Position>
            <AltitudeMeters>31.200000762939453125</AltitudeMeters>
            <DistanceMeters>NAN</DistanceMeters>
          </Trackpoint>
          <Trackpoint>
            <Time>2022-07-13T14:40:53.000Z</Time>
            <Position>
              <LatitudeDegrees>43.478047214448451995849609375</LatitudeDegrees>
              <LongitudeDegrees>-3.6769573576748371124267578125</LongitudeDegrees>
            </Position>
            <AltitudeMeters>30.799999237060546875</AltitudeMeters>
            <DistanceMeters>NAN</DistanceMeters>
          </Trackpoint>
          <Trackpoint>
            <Time>2022-07-13T14:40:55.000Z</Time>
            <Position>
              <LatitudeDegrees>43.47815441899001598358154296875</LatitudeDegrees>
              <LongitudeDegrees>-3.67696993052959442138671875</LongitudeDegrees>
            </Position>
            <AltitudeMeters>30</AltitudeMeters>
            <DistanceMeters>NAN</DistanceMeters>
          </Trackpoint>
          <Trackpoint>
            <Time>2022-07-13T14:40:56.000Z</Time>
            <Position>
              <LatitudeDegrees>43.47820672206580638885498046875</LatitudeDegrees>
              <LongitudeDegrees>-3.67700345814228057861328125</LongitudeDegrees>
            </Position>
            <AltitudeMeters>29.6000003814697265625</AltitudeMeters>
            <DistanceMeters>NAN</DistanceMeters>
          </Trackpoint>
          <Trackpoint>
            <Time>2022-07-13T14:40:57.000Z</Time>
            <Position>
              <LatitudeDegrees>43.47825181670486927032470703125</LatitudeDegrees>
              <LongitudeDegrees>-3.67705601267516613006591796875</LongitudeDegrees>
            </Position>
            <AltitudeMeters>29.200000762939453125</AltitudeMeters>
            <DistanceMeters>NAN</DistanceMeters>
          </Trackpoint>
          <Trackpoint>
            <Time>2022-07-13T14:40:58.000Z</Time>
            <Position>
              <LatitudeDegrees>43.4782874397933483123779296875</LatitudeDegrees>
              <LongitudeDegrees>-3.67711636237800121307373046875</LongitudeDegrees>
            </Position>
            <AltitudeMeters>28.6000003814697265625</AltitudeMeters>
            <DistanceMeters>NAN</DistanceMeters>
          </Trackpoint>
          <Trackpoint>
            <Time>2022-07-13T14:41:00.000Z</Time>
            <Position>
              <LatitudeDegrees>43.4783600270748138427734375</LatitudeDegrees>
              <LongitudeDegrees>-3.6772255785763263702392578125</LongitudeDegrees>
            </Position>
            <AltitudeMeters>27.6000003814697265625</AltitudeMeters>
            <DistanceMeters>NAN</DistanceMeters>
          </Trackpoint>
          <Trackpoint>
            <Time>2022-07-13T14:41:01.000Z</Time>
            <Position>
              <LatitudeDegrees>43.4783950634300708770751953125</LatitudeDegrees>
              <LongitudeDegrees>-3.677274696528911590576171875</LongitudeDegrees>
            </Position>
            <AltitudeMeters>27.200000762939453125</AltitudeMeters>
            <DistanceMeters>NAN</DistanceMeters>
          </Trackpoint>
          <Trackpoint>
            <Time>2022-07-13T14:41:03.000Z</Time>
            <Position>
              <LatitudeDegrees>43.47845801152288913726806640625</LatitudeDegrees>
              <LongitudeDegrees>-3.67736010812222957611083984375</LongitudeDegrees>
            </Position>
            <AltitudeMeters>25.799999237060546875</AltitudeMeters>
            <DistanceMeters>NAN</DistanceMeters>
          </Trackpoint>
          <Trackpoint>
            <Time>2022-07-13T14:41:04.000Z</Time>
            <Position>
              <LatitudeDegrees>43.47846890799701213836669921875</LatitudeDegrees>
              <LongitudeDegrees>-3.67740352638065814971923828125</LongitudeDegrees>
            </Position>
            <AltitudeMeters>25</AltitudeMeters>
            <DistanceMeters>NAN</DistanceMeters>
          </Trackpoint>
          <Trackpoint>
            <Time>2022-07-13T14:41:05.000Z</Time>
            <Position>
              <LatitudeDegrees>43.47847200930118560791015625</LatitudeDegrees>
              <LongitudeDegrees>-3.67744761519134044647216796875</LongitudeDegrees>
            </Position>
            <AltitudeMeters>24.3999996185302734375</AltitudeMeters>
            <DistanceMeters>NAN</DistanceMeters>
          </Trackpoint>
          <Trackpoint>
            <Time>2022-07-13T14:41:07.000Z</Time>
            <Position>
              <LatitudeDegrees>43.47843823023140430450439453125</LatitudeDegrees>
              <LongitudeDegrees>-3.67754484526813030242919921875</LongitudeDegrees>
            </Position>
            <AltitudeMeters>23.3999996185302734375</AltitudeMeters>
            <DistanceMeters>NAN</DistanceMeters>
          </Trackpoint>
          <Trackpoint>
            <Time>2022-07-13T14:41:10.000Z</Time>
            <Position>
              <LatitudeDegrees>43.47832792438566684722900390625</LatitudeDegrees>
              <LongitudeDegrees>-3.6777241341769695281982421875</LongitudeDegrees>
            </Position>
            <AltitudeMeters>22</AltitudeMeters>
            <DistanceMeters>NAN</DistanceMeters>
          </Trackpoint>
          <Trackpoint>
            <Time>2022-07-13T14:41:11.000Z</Time>
            <Position>
              <LatitudeDegrees>43.47829842008650302886962890625</LatitudeDegrees>
              <LongitudeDegrees>-3.67778398096561431884765625</LongitudeDegrees>
            </Position>
            <AltitudeMeters>21.799999237060546875</AltitudeMeters>
            <DistanceMeters>NAN</DistanceMeters>
          </Trackpoint>
          <Trackpoint>
            <Time>2022-07-13T14:41:12.000Z</Time>
            <Position>
              <LatitudeDegrees>43.47827612422406673431396484375</LatitudeDegrees>
              <LongitudeDegrees>-3.67785371840000152587890625</LongitudeDegrees>
            </Position>
            <AltitudeMeters>21.6000003814697265625</AltitudeMeters>
            <DistanceMeters>NAN</DistanceMeters>
          </Trackpoint>
          <Trackpoint>
            <Time>2022-07-13T14:41:14.000Z</Time>
            <Position>
              <LatitudeDegrees>43.47827997989952564239501953125</LatitudeDegrees>
              <LongitudeDegrees>-3.677982129156589508056640625</LongitudeDegrees>
            </Position>
            <AltitudeMeters>21.3999996185302734375</AltitudeMeters>
            <DistanceMeters>NAN</DistanceMeters>
          </Trackpoint>
          <Trackpoint>
            <Time>2022-07-13T14:41:17.000Z</Time>
            <Position>
              <LatitudeDegrees>43.47834116779267787933349609375</LatitudeDegrees>
              <LongitudeDegrees>-3.67806284688413143157958984375</LongitudeDegrees>
            </Position>
            <AltitudeMeters>21.6000003814697265625</AltitudeMeters>
            <DistanceMeters>NAN</DistanceMeters>
          </Trackpoint>
          <Trackpoint>
            <Time>2022-07-13T14:41:22.000Z</Time>
            <Position>
              <LatitudeDegrees>43.4784064628183841705322265625</LatitudeDegrees>
              <LongitudeDegrees>-3.6780949495732784271240234375</LongitudeDegrees>
            </Position>
            <AltitudeMeters>23</AltitudeMeters>
            <DistanceMeters>NAN</DistanceMeters>
          </Trackpoint>
          <Trackpoint>
            <Time>2022-07-13T14:41:23.000Z</Time>
            <Position>
              <LatitudeDegrees>43.4784145094454288482666015625</LatitudeDegrees>
              <LongitudeDegrees>-3.6781130544841289520263671875</LongitudeDegrees>
            </Position>
            <AltitudeMeters>23.200000762939453125</AltitudeMeters>
            <DistanceMeters>NAN</DistanceMeters>
          </Trackpoint>
          <Trackpoint>
            <Time>2022-07-13T14:41:25.000Z</Time>
            <Position>
              <LatitudeDegrees>43.4784295968711376190185546875</LatitudeDegrees>
              <LongitudeDegrees>-3.67813996039330959320068359375</LongitudeDegrees>
            </Position>
            <AltitudeMeters>23.799999237060546875</AltitudeMeters>
            <DistanceMeters>NAN</DistanceMeters>
          </Trackpoint>
          <Trackpoint>
            <Time>2022-07-13T14:41:27.000Z</Time>
            <Position>
              <LatitudeDegrees>43.47841911949217319488525390625</LatitudeDegrees>
              <LongitudeDegrees>-3.67817382328212261199951171875</LongitudeDegrees>
            </Position>
            <AltitudeMeters>24.3999996185302734375</AltitudeMeters>
            <DistanceMeters>NAN</DistanceMeters>
          </Trackpoint>
          <Trackpoint>
            <Time>2022-07-13T14:41:28.000Z</Time>
            <Position>
              <LatitudeDegrees>43.4784057922661304473876953125</LatitudeDegrees>
              <LongitudeDegrees>-3.6781905032694339752197265625</LongitudeDegrees>
            </Position>
            <AltitudeMeters>24.6000003814697265625</AltitudeMeters>
            <DistanceMeters>NAN</DistanceMeters>
          </Trackpoint>
          <Trackpoint>
            <Time>2022-07-13T14:41:32.000Z</Time>
            <Position>
              <LatitudeDegrees>43.4783575125038623809814453125</LatitudeDegrees>
              <LongitudeDegrees>-3.67825412191450595855712890625</LongitudeDegrees>
            </Position>
            <AltitudeMeters>25.3999996185302734375</AltitudeMeters>
            <DistanceMeters>NAN</DistanceMeters>
          </Trackpoint>
          <Trackpoint>
            <Time>2022-07-13T14:41:37.000Z</Time>
            <Position>
              <LatitudeDegrees>43.4783224761486053466796875</LatitudeDegrees>
              <LongitudeDegrees>-3.67833651602268218994140625</LongitudeDegrees>
            </Position>
            <AltitudeMeters>26.6000003814697265625</AltitudeMeters>
            <DistanceMeters>NAN</DistanceMeters>
          </Trackpoint>
          <Trackpoint>
            <Time>2022-07-13T14:41:41.000Z</Time>
            <Position>
              <LatitudeDegrees>43.47829540260136127471923828125</LatitudeDegrees>
              <LongitudeDegrees>-3.678407259285449981689453125</LongitudeDegrees>
            </Position>
            <AltitudeMeters>27.6000003814697265625</AltitudeMeters>
            <DistanceMeters>NAN</DistanceMeters>
          </Trackpoint>
          <Trackpoint>
            <Time>2022-07-13T14:41:45.000Z</Time>
            <Position>
              <LatitudeDegrees>43.47828827798366546630859375</LatitudeDegrees>
              <LongitudeDegrees>-3.67849082686007022857666015625</LongitudeDegrees>
            </Position>
            <AltitudeMeters>28.200000762939453125</AltitudeMeters>
            <DistanceMeters>NAN</DistanceMeters>
          </Trackpoint>
          <Trackpoint>
            <Time>2022-07-13T14:41:47.000Z</Time>
            <Position>
              <LatitudeDegrees>43.4782837517559528350830078125</LatitudeDegrees>
              <LongitudeDegrees>-3.67853240109980106353759765625</LongitudeDegrees>
            </Position>
            <AltitudeMeters>28.6000003814697265625</AltitudeMeters>
            <DistanceMeters>NAN</DistanceMeters>
          </Trackpoint>
          <Trackpoint>
            <Time>2022-07-13T14:41:52.000Z</Time>
            <Position>
              <LatitudeDegrees>43.478290624916553497314453125</LatitudeDegrees>
              <LongitudeDegrees>-3.67862091399729251861572265625</LongitudeDegrees>
            </Position>
            <AltitudeMeters>29.200000762939453125</AltitudeMeters>
            <DistanceMeters>NAN</DistanceMeters>
          </Trackpoint>
          <Trackpoint>
            <Time>2022-07-13T14:41:55.000Z</Time>
            <Position>
              <LatitudeDegrees>43.4782941453158855438232421875</LatitudeDegrees>
              <LongitudeDegrees>-3.6786711215972900390625</LongitudeDegrees>
            </Position>
            <AltitudeMeters>29.799999237060546875</AltitudeMeters>
            <DistanceMeters>NAN</DistanceMeters>
          </Trackpoint>
          <Trackpoint>
            <Time>2022-07-13T14:41:57.000Z</Time>
            <Position>
              <LatitudeDegrees>43.478285931050777435302734375</LatitudeDegrees>
              <LongitudeDegrees>-3.67870221845805644989013671875</LongitudeDegrees>
            </Position>
            <AltitudeMeters>30</AltitudeMeters>
            <DistanceMeters>NAN</DistanceMeters>
          </Trackpoint>
          <Trackpoint>
            <Time>2022-07-13T14:41:59.000Z</Time>
            <Position>
              <LatitudeDegrees>43.47827863879501819610595703125</LatitudeDegrees>
              <LongitudeDegrees>-3.67874111048877239227294921875</LongitudeDegrees>
            </Position>
            <AltitudeMeters>30.200000762939453125</AltitudeMeters>
            <DistanceMeters>NAN</DistanceMeters>
          </Trackpoint>
          <Trackpoint>
            <Time>2022-07-13T14:42:02.000Z</Time>
            <Position>
              <LatitudeDegrees>43.47827662713825702667236328125</LatitudeDegrees>
              <LongitudeDegrees>-3.6787966825067996978759765625</LongitudeDegrees>
            </Position>
            <AltitudeMeters>30.6000003814697265625</AltitudeMeters>
            <DistanceMeters>NAN</DistanceMeters>
          </Trackpoint>
          <Trackpoint>
            <Time>2022-07-13T14:42:04.000Z</Time>
            <Position>
              <LatitudeDegrees>43.4782669879496097564697265625</LatitudeDegrees>
              <LongitudeDegrees>-3.67883129976689815521240234375</LongitudeDegrees>
            </Position>
            <AltitudeMeters>30.799999237060546875</AltitudeMeters>
            <DistanceMeters>NAN</DistanceMeters>
          </Trackpoint>
          <Trackpoint>
            <Time>2022-07-13T14:42:06.000Z</Time>
            <Position>
              <LatitudeDegrees>43.47825877368450164794921875</LatitudeDegrees>
              <LongitudeDegrees>-3.67886499501764774322509765625</LongitudeDegrees>
            </Position>
            <AltitudeMeters>31</AltitudeMeters>
            <DistanceMeters>NAN</DistanceMeters>
          </Trackpoint>
          <Trackpoint>
            <Time>2022-07-13T14:42:15.000Z</Time>
            <Position>
              <LatitudeDegrees>43.478236980736255645751953125</LatitudeDegrees>
              <LongitudeDegrees>-3.6790632270276546478271484375</LongitudeDegrees>
            </Position>
            <AltitudeMeters>31.200000762939453125</AltitudeMeters>
            <DistanceMeters>NAN</DistanceMeters>
          </Trackpoint>
          <Trackpoint>
            <Time>2022-07-13T14:42:23.000Z</Time>
            <Position>
              <LatitudeDegrees>43.4781964123249053955078125</LatitudeDegrees>
              <LongitudeDegrees>-3.67925039492547512054443359375</LongitudeDegrees>
            </Position>
            <AltitudeMeters>31.200000762939453125</AltitudeMeters>
            <DistanceMeters>NAN</DistanceMeters>
          </Trackpoint>
          <Trackpoint>
            <Time>2022-07-13T14:42:29.000Z</Time>
            <Position>
              <LatitudeDegrees>43.4781516529619693756103515625</LatitudeDegrees>
              <LongitudeDegrees>-3.67933857254683971405029296875</LongitudeDegrees>
            </Position>
            <AltitudeMeters>31.6000003814697265625</AltitudeMeters>
            <DistanceMeters>NAN</DistanceMeters>
          </Trackpoint>
          <Trackpoint>
            <Time>2022-07-13T14:42:32.000Z</Time>
            <Position>
              <LatitudeDegrees>43.47813094966113567352294921875</LatitudeDegrees>
              <LongitudeDegrees>-3.67936975322663784027099609375</LongitudeDegrees>
            </Position>
            <AltitudeMeters>31.799999237060546875</AltitudeMeters>
            <DistanceMeters>NAN</DistanceMeters>
          </Trackpoint>
          <Trackpoint>
            <Time>2022-07-13T14:42:38.000Z</Time>
            <Position>
              <LatitudeDegrees>43.47806406207382678985595703125</LatitudeDegrees>
              <LongitudeDegrees>-3.67943345569074153900146484375</LongitudeDegrees>
            </Position>
            <AltitudeMeters>32</AltitudeMeters>
            <DistanceMeters>NAN</DistanceMeters>
          </Trackpoint>
          <Trackpoint>
            <Time>2022-07-13T14:42:44.000Z</Time>
            <Position>
              <LatitudeDegrees>43.47797303460538387298583984375</LatitudeDegrees>
              <LongitudeDegrees>-3.6794870160520076751708984375</LongitudeDegrees>
            </Position>
            <AltitudeMeters>32.59999847412109375</AltitudeMeters>
            <DistanceMeters>NAN</DistanceMeters>
          </Trackpoint>
          <Trackpoint>
            <Time>2022-07-13T14:42:46.000Z</Time>
            <Position>
              <LatitudeDegrees>43.47795300185680389404296875</LatitudeDegrees>
              <LongitudeDegrees>-3.67950872518122196197509765625</LongitudeDegrees>
            </Position>
            <AltitudeMeters>33.200000762939453125</AltitudeMeters>
            <DistanceMeters>NAN</DistanceMeters>
          </Trackpoint>
          <Trackpoint>
            <Time>2022-07-13T14:42:47.000Z</Time>
            <Position>
              <LatitudeDegrees>43.477945961058139801025390625</LatitudeDegrees>
              <LongitudeDegrees>-3.6795294284820556640625</LongitudeDegrees>
            </Position>
            <AltitudeMeters>33.40000152587890625</AltitudeMeters>
            <DistanceMeters>NAN</DistanceMeters>
          </Trackpoint>
          <Trackpoint>
            <Time>2022-07-13T14:42:49.000Z</Time>
            <Position>
              <LatitudeDegrees>43.47795425914227962493896484375</LatitudeDegrees>
              <LongitudeDegrees>-3.67957594804465770721435546875</LongitudeDegrees>
            </Position>
            <AltitudeMeters>33.40000152587890625</AltitudeMeters>
            <DistanceMeters>NAN</DistanceMeters>
          </Trackpoint>
          <Trackpoint>
            <Time>2022-07-13T14:42:51.000Z</Time>
            <Position>
              <LatitudeDegrees>43.477970771491527557373046875</LatitudeDegrees>
              <LongitudeDegrees>-3.6796325258910655975341796875</LongitudeDegrees>
            </Position>
            <AltitudeMeters>33</AltitudeMeters>
            <DistanceMeters>NAN</DistanceMeters>
          </Trackpoint>
          <Trackpoint>
            <Time>2022-07-13T14:42:56.000Z</Time>
            <Position>
              <LatitudeDegrees>43.47800455056130886077880859375</LatitudeDegrees>
              <LongitudeDegrees>-3.67979002185165882110595703125</LongitudeDegrees>
            </Position>
            <AltitudeMeters>32.40000152587890625</AltitudeMeters>
            <DistanceMeters>NAN</DistanceMeters>
          </Trackpoint>
          <Trackpoint>
            <Time>2022-07-13T14:42:58.000Z</Time>
            <Position>
              <LatitudeDegrees>43.47802232019603252410888671875</LatitudeDegrees>
              <LongitudeDegrees>-3.6798204481601715087890625</LongitudeDegrees>
            </Position>
            <AltitudeMeters>32.200000762939453125</AltitudeMeters>
            <DistanceMeters>NAN</DistanceMeters>
          </Trackpoint>
          <Trackpoint>
            <Time>2022-07-13T14:43:00.000Z</Time>
            <Position>
              <LatitudeDegrees>43.47805802710354328155517578125</LatitudeDegrees>
              <LongitudeDegrees>-3.67985062301158905029296875</LongitudeDegrees>
            </Position>
            <AltitudeMeters>32</AltitudeMeters>
            <DistanceMeters>NAN</DistanceMeters>
          </Trackpoint>
          <Trackpoint>
            <Time>2022-07-13T14:43:02.000Z</Time>
            <Position>
              <LatitudeDegrees>43.4781073965132236480712890625</LatitudeDegrees>
              <LongitudeDegrees>-3.679859340190887451171875</LongitudeDegrees>
            </Position>
            <AltitudeMeters>32</AltitudeMeters>
            <DistanceMeters>NAN</DistanceMeters>
          </Trackpoint>
          <Trackpoint>
            <Time>2022-07-13T14:43:06.000Z</Time>
            <Position>
              <LatitudeDegrees>43.47817403264343738555908203125</LatitudeDegrees>
              <LongitudeDegrees>-3.67988322861492633819580078125</LongitudeDegrees>
            </Position>
            <AltitudeMeters>31.6000003814697265625</AltitudeMeters>
            <DistanceMeters>NAN</DistanceMeters>
          </Trackpoint>
          <Trackpoint>
            <Time>2022-07-13T14:43:07.000Z</Time>
            <Position>
              <LatitudeDegrees>43.4781804867088794708251953125</LatitudeDegrees>
              <LongitudeDegrees>-3.67990217171609401702880859375</LongitudeDegrees>
            </Position>
            <AltitudeMeters>31.3999996185302734375</AltitudeMeters>
            <DistanceMeters>NAN</DistanceMeters>
          </Trackpoint>
          <Trackpoint>
            <Time>2022-07-13T14:43:08.000Z</Time>
            <Position>
              <LatitudeDegrees>43.4781838394701480865478515625</LatitudeDegrees>
              <LongitudeDegrees>-3.679915331304073333740234375</LongitudeDegrees>
            </Position>
            <AltitudeMeters>31.3999996185302734375</AltitudeMeters>
            <DistanceMeters>NAN</DistanceMeters>
          </Trackpoint>
          <Trackpoint>
            <Time>2022-07-13T14:43:11.000Z</Time>
            <Position>
              <LatitudeDegrees>43.4781871922314167022705078125</LatitudeDegrees>
              <LongitudeDegrees>-3.6799188517034053802490234375</LongitudeDegrees>
            </Position>
            <AltitudeMeters>31.200000762939453125</AltitudeMeters>
            <DistanceMeters>NAN</DistanceMeters>
          </Trackpoint>
          <Trackpoint>
            <Time>2022-07-13T14:44:52.000Z</Time>
            <Position>
              <LatitudeDegrees>43.47814746201038360595703125</LatitudeDegrees>
              <LongitudeDegrees>-3.6798876710236072540283203125</LongitudeDegrees>
            </Position>
            <AltitudeMeters>32.200000762939453125</AltitudeMeters>
            <DistanceMeters>NAN</DistanceMeters>
          </Trackpoint>
          <Trackpoint>
            <Time>2022-07-13T14:44:55.000Z</Time>
            <Position>
              <LatitudeDegrees>43.4780993498861789703369140625</LatitudeDegrees>
              <LongitudeDegrees>-3.67983528412878513336181640625</LongitudeDegrees>
            </Position>
            <AltitudeMeters>32.200000762939453125</AltitudeMeters>
            <DistanceMeters>NAN</DistanceMeters>
          </Trackpoint>
          <Trackpoint>
            <Time>2022-07-13T14:44:57.000Z</Time>
            <Position>
              <LatitudeDegrees>43.478058613836765289306640625</LatitudeDegrees>
              <LongitudeDegrees>-3.67981097660958766937255859375</LongitudeDegrees>
            </Position>
            <AltitudeMeters>32.40000152587890625</AltitudeMeters>
            <DistanceMeters>NAN</DistanceMeters>
          </Trackpoint>
          <Trackpoint>
            <Time>2022-07-13T14:44:59.000Z</Time>
            <Position>
              <LatitudeDegrees>43.4780286066234111785888671875</LatitudeDegrees>
              <LongitudeDegrees>-3.679777197539806365966796875</LongitudeDegrees>
            </Position>
            <AltitudeMeters>33</AltitudeMeters>
            <DistanceMeters>NAN</DistanceMeters>
          </Trackpoint>
          <Trackpoint>
            <Time>2022-07-13T14:45:00.000Z</Time>
            <Position>
              <LatitudeDegrees>43.4780155308544635772705078125</LatitudeDegrees>
              <LongitudeDegrees>-3.6797626130282878875732421875</LongitudeDegrees>
            </Position>
            <AltitudeMeters>33.59999847412109375</AltitudeMeters>
            <DistanceMeters>NAN</DistanceMeters>
          </Trackpoint>
          <Trackpoint>
            <Time>2022-07-13T14:45:01.000Z</Time>
            <Position>
              <LatitudeDegrees>43.4780048020184040069580078125</LatitudeDegrees>
              <LongitudeDegrees>-3.6797502078115940093994140625</LongitudeDegrees>
            </Position>
            <AltitudeMeters>33.799999237060546875</AltitudeMeters>
            <DistanceMeters>NAN</DistanceMeters>
          </Trackpoint>
          <Trackpoint>
            <Time>2022-07-13T14:45:02.000Z</Time>
            <Position>
              <LatitudeDegrees>43.47799834795296192169189453125</LatitudeDegrees>
              <LongitudeDegrees>-3.67972967214882373809814453125</LongitudeDegrees>
            </Position>
            <AltitudeMeters>34</AltitudeMeters>
            <DistanceMeters>NAN</DistanceMeters>
          </Trackpoint>
          <Trackpoint>
            <Time>2022-07-13T14:45:06.000Z</Time>
            <Position>
              <LatitudeDegrees>43.4779662452638149261474609375</LatitudeDegrees>
              <LongitudeDegrees>-3.67965281009674072265625</LongitudeDegrees>
            </Position>
            <AltitudeMeters>34.59999847412109375</AltitudeMeters>
            <DistanceMeters>NAN</DistanceMeters>
          </Trackpoint>
          <Trackpoint>
            <Time>2022-07-13T14:45:10.000Z</Time>
            <Position>
              <LatitudeDegrees>43.4779541753232479095458984375</LatitudeDegrees>
              <LongitudeDegrees>-3.6795869283378124237060546875</LongitudeDegrees>
            </Position>
            <AltitudeMeters>35</AltitudeMeters>
            <DistanceMeters>NAN</DistanceMeters>
          </Trackpoint>
          <Trackpoint>
            <Time>2022-07-13T14:45:12.000Z</Time>
            <Position>
              <LatitudeDegrees>43.47795358859002590179443359375</LatitudeDegrees>
              <LongitudeDegrees>-3.679552562534809112548828125</LongitudeDegrees>
            </Position>
            <AltitudeMeters>35.59999847412109375</AltitudeMeters>
            <DistanceMeters>NAN</DistanceMeters>
          </Trackpoint>
          <Trackpoint>
            <Time>2022-07-13T14:45:17.000Z</Time>
            <Position>
              <LatitudeDegrees>43.4779290296137332916259765625</LatitudeDegrees>
              <LongitudeDegrees>-3.67946572601795196533203125</LongitudeDegrees>
            </Position>
            <AltitudeMeters>36.200000762939453125</AltitudeMeters>
            <DistanceMeters>NAN</DistanceMeters>
          </Trackpoint>
          <Trackpoint>
            <Time>2022-07-13T14:45:22.000Z</Time>
            <Position>
              <LatitudeDegrees>43.47786909900605678558349609375</LatitudeDegrees>
              <LongitudeDegrees>-3.679494224488735198974609375</LongitudeDegrees>
            </Position>
            <AltitudeMeters>35.59999847412109375</AltitudeMeters>
            <DistanceMeters>NAN</DistanceMeters>
          </Trackpoint>
          <Trackpoint>
            <Time>2022-07-13T14:45:29.000Z</Time>
            <Position>
              <LatitudeDegrees>43.477757535874843597412109375</LatitudeDegrees>
              <LongitudeDegrees>-3.6795778758823871612548828125</LongitudeDegrees>
            </Position>
            <AltitudeMeters>35.799999237060546875</AltitudeMeters>
            <DistanceMeters>NAN</DistanceMeters>
          </Trackpoint>
          <Trackpoint>
            <Time>2022-07-13T14:45:31.000Z</Time>
            <Position>
              <LatitudeDegrees>43.47771571017801761627197265625</LatitudeDegrees>
              <LongitudeDegrees>-3.67959924973547458648681640625</LongitudeDegrees>
            </Position>
            <AltitudeMeters>36</AltitudeMeters>
            <DistanceMeters>NAN</DistanceMeters>
          </Trackpoint>
          <Trackpoint>
            <Time>2022-07-13T14:45:34.000Z</Time>
            <Position>
              <LatitudeDegrees>43.47764790058135986328125</LatitudeDegrees>
              <LongitudeDegrees>-3.679634034633636474609375</LongitudeDegrees>
            </Position>
            <AltitudeMeters>36.200000762939453125</AltitudeMeters>
            <DistanceMeters>NAN</DistanceMeters>
          </Trackpoint>
          <Trackpoint>
            <Time>2022-07-13T14:45:37.000Z</Time>
            <Position>
              <LatitudeDegrees>43.4775902330875396728515625</LatitudeDegrees>
              <LongitudeDegrees>-3.679685331881046295166015625</LongitudeDegrees>
            </Position>
            <AltitudeMeters>36.40000152587890625</AltitudeMeters>
            <DistanceMeters>NAN</DistanceMeters>
          </Trackpoint>
          <Trackpoint>
            <Time>2022-07-13T14:45:40.000Z</Time>
            <Position>
              <LatitudeDegrees>43.47751588560640811920166015625</LatitudeDegrees>
              <LongitudeDegrees>-3.67973319254815578460693359375</LongitudeDegrees>
            </Position>
            <AltitudeMeters>36.200000762939453125</AltitudeMeters>
            <DistanceMeters>NAN</DistanceMeters>
          </Trackpoint>
          <Trackpoint>
            <Time>2022-07-13T14:45:43.000Z</Time>
            <Position>
              <LatitudeDegrees>43.477439694106578826904296875</LatitudeDegrees>
              <LongitudeDegrees>-3.67977141402661800384521484375</LongitudeDegrees>
            </Position>
            <AltitudeMeters>36</AltitudeMeters>
            <DistanceMeters>NAN</DistanceMeters>
          </Trackpoint>
          <Trackpoint>
            <Time>2022-07-13T14:45:47.000Z</Time>
            <Position>
              <LatitudeDegrees>43.47734975628554821014404296875</LatitudeDegrees>
              <LongitudeDegrees>-3.67981843650341033935546875</LongitudeDegrees>
            </Position>
            <AltitudeMeters>36</AltitudeMeters>
            <DistanceMeters>NAN</DistanceMeters>
          </Trackpoint>
          <Trackpoint>
            <Time>2022-07-13T14:45:52.000Z</Time>
            <Position>
              <LatitudeDegrees>43.4772316552698612213134765625</LatitudeDegrees>
              <LongitudeDegrees>-3.6798953823745250701904296875</LongitudeDegrees>
            </Position>
            <AltitudeMeters>35.200000762939453125</AltitudeMeters>
            <DistanceMeters>NAN</DistanceMeters>
          </Trackpoint>
          <Trackpoint>
            <Time>2022-07-13T14:45:55.000Z</Time>
            <Position>
              <LatitudeDegrees>43.47716451622545719146728515625</LatitudeDegrees>
              <LongitudeDegrees>-3.679947517812252044677734375</LongitudeDegrees>
            </Position>
            <AltitudeMeters>35</AltitudeMeters>
            <DistanceMeters>NAN</DistanceMeters>
          </Trackpoint>
          <Trackpoint>
            <Time>2022-07-13T14:46:00.000Z</Time>
            <Position>
              <LatitudeDegrees>43.47704985179007053375244140625</LatitudeDegrees>
              <LongitudeDegrees>-3.6800341866910457611083984375</LongitudeDegrees>
            </Position>
            <AltitudeMeters>36.799999237060546875</AltitudeMeters>
            <DistanceMeters>NAN</DistanceMeters>
          </Trackpoint>
          <Trackpoint>
            <Time>2022-07-13T14:46:02.000Z</Time>
            <Position>
              <LatitudeDegrees>43.47702135331928730010986328125</LatitudeDegrees>
              <LongitudeDegrees>-3.6800710670650005340576171875</LongitudeDegrees>
            </Position>
            <AltitudeMeters>37.200000762939453125</AltitudeMeters>
            <DistanceMeters>NAN</DistanceMeters>
          </Trackpoint>
          <Trackpoint>
            <Time>2022-07-13T14:46:03.000Z</Time>
            <Position>
              <LatitudeDegrees>43.4770110435783863067626953125</LatitudeDegrees>
              <LongitudeDegrees>-3.6800918541848659515380859375</LongitudeDegrees>
            </Position>
            <AltitudeMeters>37.59999847412109375</AltitudeMeters>
            <DistanceMeters>NAN</DistanceMeters>
          </Trackpoint>
          <Trackpoint>
            <Time>2022-07-13T14:46:04.000Z</Time>
            <Position>
              <LatitudeDegrees>43.47700743936002254486083984375</LatitudeDegrees>
              <LongitudeDegrees>-3.68011423386633396148681640625</LongitudeDegrees>
            </Position>
            <AltitudeMeters>38</AltitudeMeters>
            <DistanceMeters>NAN</DistanceMeters>
          </Trackpoint>
          <Trackpoint>
            <Time>2022-07-13T14:46:06.000Z</Time>
            <Position>
              <LatitudeDegrees>43.4770143963396549224853515625</LatitudeDegrees>
              <LongitudeDegrees>-3.6801518686115741729736328125</LongitudeDegrees>
            </Position>
            <AltitudeMeters>38.40000152587890625</AltitudeMeters>
            <DistanceMeters>NAN</DistanceMeters>
          </Trackpoint>
          <Trackpoint>
            <Time>2022-07-13T14:46:13.000Z</Time>
            <Position>
              <LatitudeDegrees>43.4771112911403179168701171875</LatitudeDegrees>
              <LongitudeDegrees>-3.68032327853143215179443359375</LongitudeDegrees>
            </Position>
            <AltitudeMeters>38.799999237060546875</AltitudeMeters>
            <DistanceMeters>NAN</DistanceMeters>
          </Trackpoint>
          <Trackpoint>
            <Time>2022-07-13T14:46:17.000Z</Time>
            <Position>
              <LatitudeDegrees>43.4771605767309665679931640625</LatitudeDegrees>
              <LongitudeDegrees>-3.68043760769069194793701171875</LongitudeDegrees>
            </Position>
            <AltitudeMeters>38.799999237060546875</AltitudeMeters>
            <DistanceMeters>NAN</DistanceMeters>
          </Trackpoint>
          <Trackpoint>
            <Time>2022-07-13T14:46:19.000Z</Time>
            <Position>
              <LatitudeDegrees>43.47718915902078151702880859375</LatitudeDegrees>
              <LongitudeDegrees>-3.68050734512507915496826171875</LongitudeDegrees>
            </Position>
            <AltitudeMeters>39</AltitudeMeters>
            <DistanceMeters>NAN</DistanceMeters>
          </Trackpoint>
          <Trackpoint>
            <Time>2022-07-13T14:46:21.000Z</Time>
            <Position>
              <LatitudeDegrees>43.4772081859409809112548828125</LatitudeDegrees>
              <LongitudeDegrees>-3.6805642582476139068603515625</LongitudeDegrees>
            </Position>
            <AltitudeMeters>38.799999237060546875</AltitudeMeters>
            <DistanceMeters>NAN</DistanceMeters>
          </Trackpoint>
          <Trackpoint>
            <Time>2022-07-13T14:46:29.000Z</Time>
            <Position>
              <LatitudeDegrees>43.47730264998972415924072265625</LatitudeDegrees>
              <LongitudeDegrees>-3.680811189115047454833984375</LongitudeDegrees>
            </Position>
            <AltitudeMeters>38.59999847412109375</AltitudeMeters>
            <DistanceMeters>NAN</DistanceMeters>
          </Trackpoint>
          <Trackpoint>
            <Time>2022-07-13T14:46:36.000Z</Time>
            <Position>
              <LatitudeDegrees>43.47735478542745113372802734375</LatitudeDegrees>
              <LongitudeDegrees>-3.681012354791164398193359375</LongitudeDegrees>
            </Position>
            <AltitudeMeters>38.40000152587890625</AltitudeMeters>
            <DistanceMeters>NAN</DistanceMeters>
          </Trackpoint>
          <Trackpoint>
            <Time>2022-07-13T14:46:41.000Z</Time>
            <Position>
              <LatitudeDegrees>43.477301560342311859130859375</LatitudeDegrees>
              <LongitudeDegrees>-3.681190721690654754638671875</LongitudeDegrees>
            </Position>
            <AltitudeMeters>38.200000762939453125</AltitudeMeters>
            <DistanceMeters>NAN</DistanceMeters>
          </Trackpoint>
          <Trackpoint>
            <Time>2022-07-13T14:46:42.000Z</Time>
            <Position>
              <LatitudeDegrees>43.47729007713496685028076171875</LatitudeDegrees>
              <LongitudeDegrees>-3.68121947161853313446044921875</LongitudeDegrees>
            </Position>
            <AltitudeMeters>38</AltitudeMeters>
            <DistanceMeters>NAN</DistanceMeters>
          </Trackpoint>
          <Trackpoint>
            <Time>2022-07-13T14:46:47.000Z</Time>
            <Position>
              <LatitudeDegrees>43.4772226028144359588623046875</LatitudeDegrees>
              <LongitudeDegrees>-3.68140152655541896820068359375</LongitudeDegrees>
            </Position>
            <AltitudeMeters>37.799999237060546875</AltitudeMeters>
            <DistanceMeters>NAN</DistanceMeters>
          </Trackpoint>
          <Trackpoint>
            <Time>2022-07-13T14:46:50.000Z</Time>
            <Position>
              <LatitudeDegrees>43.47719167359173297882080078125</LatitudeDegrees>
              <LongitudeDegrees>-3.681506216526031494140625</LongitudeDegrees>
            </Position>
            <AltitudeMeters>37.799999237060546875</AltitudeMeters>
            <DistanceMeters>NAN</DistanceMeters>
          </Trackpoint>
          <Trackpoint>
            <Time>2022-07-13T14:46:59.000Z</Time>
            <Position>
              <LatitudeDegrees>43.477139286696910858154296875</LatitudeDegrees>
              <LongitudeDegrees>-3.681794218719005584716796875</LongitudeDegrees>
            </Position>
            <AltitudeMeters>38</AltitudeMeters>
            <DistanceMeters>NAN</DistanceMeters>
          </Trackpoint>
          <Trackpoint>
            <Time>2022-07-13T14:47:05.000Z</Time>
            <Position>
              <LatitudeDegrees>43.477122522890567779541015625</LatitudeDegrees>
              <LongitudeDegrees>-3.6819546483457088470458984375</LongitudeDegrees>
            </Position>
            <AltitudeMeters>39</AltitudeMeters>
            <DistanceMeters>NAN</DistanceMeters>
          </Trackpoint>
          <Trackpoint>
            <Time>2022-07-13T14:47:07.000Z</Time>
            <Position>
              <LatitudeDegrees>43.4771173261106014251708984375</LatitudeDegrees>
              <LongitudeDegrees>-3.68200954981148242950439453125</LongitudeDegrees>
            </Position>
            <AltitudeMeters>39.200000762939453125</AltitudeMeters>
            <DistanceMeters>NAN</DistanceMeters>
          </Trackpoint>
          <Trackpoint>
            <Time>2022-07-13T14:47:11.000Z</Time>
            <Position>
              <LatitudeDegrees>43.47710165195167064666748046875</LatitudeDegrees>
              <LongitudeDegrees>-3.6821095459163188934326171875</LongitudeDegrees>
            </Position>
            <AltitudeMeters>39.40000152587890625</AltitudeMeters>
            <DistanceMeters>NAN</DistanceMeters>
          </Trackpoint>
          <Trackpoint>
            <Time>2022-07-13T14:47:14.000Z</Time>
            <Position>
              <LatitudeDegrees>43.47708438523113727569580078125</LatitudeDegrees>
              <LongitudeDegrees>-3.6821915209293365478515625</LongitudeDegrees>
            </Position>
            <AltitudeMeters>39.59999847412109375</AltitudeMeters>
            <DistanceMeters>NAN</DistanceMeters>
          </Trackpoint>
          <Trackpoint>
            <Time>2022-07-13T14:47:16.000Z</Time>
            <Position>
              <LatitudeDegrees>43.4770725667476654052734375</LatitudeDegrees>
              <LongitudeDegrees>-3.6822424829006195068359375</LongitudeDegrees>
            </Position>
            <AltitudeMeters>39.59999847412109375</AltitudeMeters>
            <DistanceMeters>NAN</DistanceMeters>
          </Trackpoint>
          <Trackpoint>
            <Time>2022-07-13T14:47:18.000Z</Time>
            <Position>
              <LatitudeDegrees>43.47706242464482784271240234375</LatitudeDegrees>
              <LongitudeDegrees>-3.68228967301547527313232421875</LongitudeDegrees>
            </Position>
            <AltitudeMeters>39.799999237060546875</AltitudeMeters>
            <DistanceMeters>NAN</DistanceMeters>
          </Trackpoint>
          <Trackpoint>
            <Time>2022-07-13T14:47:19.000Z</Time>
            <Position>
              <LatitudeDegrees>43.47705706022679805755615234375</LatitudeDegrees>
              <LongitudeDegrees>-3.68231247179210186004638671875</LongitudeDegrees>
            </Position>
            <AltitudeMeters>40</AltitudeMeters>
            <DistanceMeters>NAN</DistanceMeters>
          </Trackpoint>
          <Trackpoint>
            <Time>2022-07-13T14:47:26.000Z</Time>
            <Position>
              <LatitudeDegrees>43.47700106911361217498779296875</LatitudeDegrees>
              <LongitudeDegrees>-3.682436607778072357177734375</LongitudeDegrees>
            </Position>
            <AltitudeMeters>41</AltitudeMeters>
            <DistanceMeters>NAN</DistanceMeters>
          </Trackpoint>
          <Trackpoint>
            <Time>2022-07-13T14:47:27.000Z</Time>
            <Position>
              <LatitudeDegrees>43.47698866389691829681396484375</LatitudeDegrees>
              <LongitudeDegrees>-3.6824548803269863128662109375</LongitudeDegrees>
            </Position>
            <AltitudeMeters>41.200000762939453125</AltitudeMeters>
            <DistanceMeters>NAN</DistanceMeters>
          </Trackpoint>
          <Trackpoint>
            <Time>2022-07-13T14:47:35.000Z</Time>
            <Position>
              <LatitudeDegrees>43.47689143382012844085693359375</LatitudeDegrees>
              <LongitudeDegrees>-3.6825648508965969085693359375</LongitudeDegrees>
            </Position>
            <AltitudeMeters>42</AltitudeMeters>
            <DistanceMeters>NAN</DistanceMeters>
          </Trackpoint>
          <Trackpoint>
            <Time>2022-07-13T14:47:36.000Z</Time>
            <Position>
              <LatitudeDegrees>43.47687785513699054718017578125</LatitudeDegrees>
              <LongitudeDegrees>-3.68257851339876651763916015625</LongitudeDegrees>
            </Position>
            <AltitudeMeters>42.200000762939453125</AltitudeMeters>
            <DistanceMeters>NAN</DistanceMeters>
          </Trackpoint>
          <Trackpoint>
            <Time>2022-07-13T14:47:38.000Z</Time>
            <Position>
              <LatitudeDegrees>43.4768541343510150909423828125</LatitudeDegrees>
              <LongitudeDegrees>-3.68260449729859828948974609375</LongitudeDegrees>
            </Position>
            <AltitudeMeters>42.40000152587890625</AltitudeMeters>
            <DistanceMeters>NAN</DistanceMeters>
          </Trackpoint>
          <Trackpoint>
            <Time>2022-07-13T14:47:41.000Z</Time>
            <Position>
              <LatitudeDegrees>43.47681063227355480194091796875</LatitudeDegrees>
              <LongitudeDegrees>-3.68263383395969867706298828125</LongitudeDegrees>
            </Position>
            <AltitudeMeters>42.59999847412109375</AltitudeMeters>
            <DistanceMeters>NAN</DistanceMeters>
          </Trackpoint>
          <Trackpoint>
            <Time>2022-07-13T14:47:44.000Z</Time>
            <Position>
              <LatitudeDegrees>43.4767750091850757598876953125</LatitudeDegrees>
              <LongitudeDegrees>-3.6826704628765583038330078125</LongitudeDegrees>
            </Position>
            <AltitudeMeters>43.200000762939453125</AltitudeMeters>
            <DistanceMeters>NAN</DistanceMeters>
          </Trackpoint>
          <Trackpoint>
            <Time>2022-07-13T14:47:49.000Z</Time>
            <Position>
              <LatitudeDegrees>43.47671055234968662261962890625</LatitudeDegrees>
              <LongitudeDegrees>-3.68271916173398494720458984375</LongitudeDegrees>
            </Position>
            <AltitudeMeters>43.40000152587890625</AltitudeMeters>
            <DistanceMeters>NAN</DistanceMeters>
          </Trackpoint>
          <Trackpoint>
            <Time>2022-07-13T14:47:56.000Z</Time>
            <Position>
              <LatitudeDegrees>43.47661047242581844329833984375</LatitudeDegrees>
              <LongitudeDegrees>-3.6827975325286388397216796875</LongitudeDegrees>
            </Position>
            <AltitudeMeters>44</AltitudeMeters>
            <DistanceMeters>NAN</DistanceMeters>
          </Trackpoint>
          <Trackpoint>
            <Time>2022-07-13T14:47:58.000Z</Time>
            <Position>
              <LatitudeDegrees>43.47658683545887470245361328125</LatitudeDegrees>
              <LongitudeDegrees>-3.682820834219455718994140625</LongitudeDegrees>
            </Position>
            <AltitudeMeters>44.200000762939453125</AltitudeMeters>
            <DistanceMeters>NAN</DistanceMeters>
          </Trackpoint>
          <Trackpoint>
            <Time>2022-07-13T14:48:00.000Z</Time>
            <Position>
              <LatitudeDegrees>43.47656571306288242340087890625</LatitudeDegrees>
              <LongitudeDegrees>-3.682844303548336029052734375</LongitudeDegrees>
            </Position>
            <AltitudeMeters>44.40000152587890625</AltitudeMeters>
            <DistanceMeters>NAN</DistanceMeters>
          </Trackpoint>
          <Trackpoint>
            <Time>2022-07-13T14:48:08.000Z</Time>
            <Position>
              <LatitudeDegrees>43.47643981687724590301513671875</LatitudeDegrees>
              <LongitudeDegrees>-3.6829437129199504852294921875</LongitudeDegrees>
            </Position>
            <AltitudeMeters>44.799999237060546875</AltitudeMeters>
            <DistanceMeters>NAN</DistanceMeters>
          </Trackpoint>
          <Trackpoint>
            <Time>2022-07-13T14:48:15.000Z</Time>
            <Position>
              <LatitudeDegrees>43.47634778358042240142822265625</LatitudeDegrees>
              <LongitudeDegrees>-3.68303951807320117950439453125</LongitudeDegrees>
            </Position>
            <AltitudeMeters>45.59999847412109375</AltitudeMeters>
            <DistanceMeters>NAN</DistanceMeters>
          </Trackpoint>
          <Trackpoint>
            <Time>2022-07-13T14:48:17.000Z</Time>
            <Position>
              <LatitudeDegrees>43.4763287566602230072021484375</LatitudeDegrees>
              <LongitudeDegrees>-3.68307170458137989044189453125</LongitudeDegrees>
            </Position>
            <AltitudeMeters>45.799999237060546875</AltitudeMeters>
            <DistanceMeters>NAN</DistanceMeters>
          </Trackpoint>
          <Trackpoint>
            <Time>2022-07-13T14:48:24.000Z</Time>
            <Position>
              <LatitudeDegrees>43.47625340335071086883544921875</LatitudeDegrees>
              <LongitudeDegrees>-3.6831884644925594329833984375</LongitudeDegrees>
            </Position>
            <AltitudeMeters>46.59999847412109375</AltitudeMeters>
            <DistanceMeters>NAN</DistanceMeters>
          </Trackpoint>
          <Trackpoint>
            <Time>2022-07-13T14:48:26.000Z</Time>
            <Position>
              <LatitudeDegrees>43.4762325324118137359619140625</LatitudeDegrees>
              <LongitudeDegrees>-3.68323464877903461456298828125</LongitudeDegrees>
            </Position>
            <AltitudeMeters>47</AltitudeMeters>
            <DistanceMeters>NAN</DistanceMeters>
          </Trackpoint>
          <Trackpoint>
            <Time>2022-07-13T14:48:31.000Z</Time>
            <Position>
              <LatitudeDegrees>43.47618936561048030853271484375</LatitudeDegrees>
              <LongitudeDegrees>-3.68335300125181674957275390625</LongitudeDegrees>
            </Position>
            <AltitudeMeters>47.59999847412109375</AltitudeMeters>
            <DistanceMeters>NAN</DistanceMeters>
          </Trackpoint>
          <Trackpoint>
            <Time>2022-07-13T14:48:33.000Z</Time>
            <Position>
              <LatitudeDegrees>43.47617696039378643035888671875</LatitudeDegrees>
              <LongitudeDegrees>-3.683392144739627838134765625</LongitudeDegrees>
            </Position>
            <AltitudeMeters>47.799999237060546875</AltitudeMeters>
            <DistanceMeters>NAN</DistanceMeters>
          </Trackpoint>
          <Trackpoint>
            <Time>2022-07-13T14:48:35.000Z</Time>
            <Position>
              <LatitudeDegrees>43.476163633167743682861328125</LatitudeDegrees>
              <LongitudeDegrees>-3.683431036770343780517578125</LongitudeDegrees>
            </Position>
            <AltitudeMeters>48</AltitudeMeters>
            <DistanceMeters>NAN</DistanceMeters>
          </Trackpoint>
          <Trackpoint>
            <Time>2022-07-13T14:48:38.000Z</Time>
            <Position>
              <LatitudeDegrees>43.4761460311710834503173828125</LatitudeDegrees>
              <LongitudeDegrees>-3.68349499069154262542724609375</LongitudeDegrees>
            </Position>
            <AltitudeMeters>48.40000152587890625</AltitudeMeters>
            <DistanceMeters>NAN</DistanceMeters>
          </Trackpoint>
          <Trackpoint>
            <Time>2022-07-13T14:48:40.000Z</Time>
            <Position>
              <LatitudeDegrees>43.47613521851599216461181640625</LatitudeDegrees>
              <LongitudeDegrees>-3.6835420131683349609375</LongitudeDegrees>
            </Position>
            <AltitudeMeters>48.799999237060546875</AltitudeMeters>
            <DistanceMeters>NAN</DistanceMeters>
          </Trackpoint>
          <Trackpoint>
            <Time>2022-07-13T14:48:42.000Z</Time>
            <Position>
              <LatitudeDegrees>43.4761262498795986175537109375</LatitudeDegrees>
              <LongitudeDegrees>-3.68359624408185482025146484375</LongitudeDegrees>
            </Position>
            <AltitudeMeters>49</AltitudeMeters>
            <DistanceMeters>NAN</DistanceMeters>
          </Trackpoint>
          <Trackpoint>
            <Time>2022-07-13T14:48:45.000Z</Time>
            <Position>
              <LatitudeDegrees>43.476110659539699554443359375</LatitudeDegrees>
              <LongitudeDegrees>-3.68367302231490612030029296875</LongitudeDegrees>
            </Position>
            <AltitudeMeters>49.40000152587890625</AltitudeMeters>
            <DistanceMeters>NAN</DistanceMeters>
          </Trackpoint>
          <Trackpoint>
            <Time>2022-07-13T14:48:52.000Z</Time>
            <Position>
              <LatitudeDegrees>43.476044274866580963134765625</LatitudeDegrees>
              <LongitudeDegrees>-3.6838566698133945465087890625</LongitudeDegrees>
            </Position>
            <AltitudeMeters>49.59999847412109375</AltitudeMeters>
            <DistanceMeters>NAN</DistanceMeters>
          </Trackpoint>
          <Trackpoint>
            <Time>2022-07-13T14:48:58.000Z</Time>
            <Position>
              <LatitudeDegrees>43.47597998566925525665283203125</LatitudeDegrees>
              <LongitudeDegrees>-3.68403126485645771026611328125</LongitudeDegrees>
            </Position>
            <AltitudeMeters>49.40000152587890625</AltitudeMeters>
            <DistanceMeters>NAN</DistanceMeters>
          </Trackpoint>
          <Trackpoint>
            <Time>2022-07-13T14:49:00.000Z</Time>
            <Position>
              <LatitudeDegrees>43.47595651634037494659423828125</LatitudeDegrees>
              <LongitudeDegrees>-3.68409295566380023956298828125</LongitudeDegrees>
            </Position>
            <AltitudeMeters>49.200000762939453125</AltitudeMeters>
            <DistanceMeters>NAN</DistanceMeters>
          </Trackpoint>
          <Trackpoint>
            <Time>2022-07-13T14:49:02.000Z</Time>
            <Position>
              <LatitudeDegrees>43.475923240184783935546875</LatitudeDegrees>
              <LongitudeDegrees>-3.68415079079568386077880859375</LongitudeDegrees>
            </Position>
            <AltitudeMeters>49</AltitudeMeters>
            <DistanceMeters>NAN</DistanceMeters>
          </Trackpoint>
          <Trackpoint>
            <Time>2022-07-13T14:49:07.000Z</Time>
            <Position>
              <LatitudeDegrees>43.4758436121046543121337890625</LatitudeDegrees>
              <LongitudeDegrees>-3.68432010523974895477294921875</LongitudeDegrees>
            </Position>
            <AltitudeMeters>49</AltitudeMeters>
            <DistanceMeters>NAN</DistanceMeters>
          </Trackpoint>
          <Trackpoint>
            <Time>2022-07-13T14:49:11.000Z</Time>
            <Position>
              <LatitudeDegrees>43.47577697597444057464599609375</LatitudeDegrees>
              <LongitudeDegrees>-3.6844427324831485748291015625</LongitudeDegrees>
            </Position>
            <AltitudeMeters>49</AltitudeMeters>
            <DistanceMeters>NAN</DistanceMeters>
          </Trackpoint>
          <Trackpoint>
            <Time>2022-07-13T14:49:13.000Z</Time>
            <Position>
              <LatitudeDegrees>43.47574680112302303314208984375</LatitudeDegrees>
              <LongitudeDegrees>-3.68449277244508266448974609375</LongitudeDegrees>
            </Position>
            <AltitudeMeters>48.799999237060546875</AltitudeMeters>
            <DistanceMeters>NAN</DistanceMeters>
          </Trackpoint>
          <Trackpoint>
            <Time>2022-07-13T14:49:19.000Z</Time>
            <Position>
              <LatitudeDegrees>43.47567169927060604095458984375</LatitudeDegrees>
              <LongitudeDegrees>-3.6846884898841381072998046875</LongitudeDegrees>
            </Position>
            <AltitudeMeters>49.200000762939453125</AltitudeMeters>
            <DistanceMeters>NAN</DistanceMeters>
          </Trackpoint>
          <Trackpoint>
            <Time>2022-07-13T14:49:26.000Z</Time>
            <Position>
              <LatitudeDegrees>43.47552769817411899566650390625</LatitudeDegrees>
              <LongitudeDegrees>-3.685003481805324554443359375</LongitudeDegrees>
            </Position>
            <AltitudeMeters>48.59999847412109375</AltitudeMeters>
            <DistanceMeters>NAN</DistanceMeters>
          </Trackpoint>
          <Trackpoint>
            <Time>2022-07-13T14:49:28.000Z</Time>
            <Position>
              <LatitudeDegrees>43.47549048252403736114501953125</LatitudeDegrees>
              <LongitudeDegrees>-3.68511102162301540374755859375</LongitudeDegrees>
            </Position>
            <AltitudeMeters>48.200000762939453125</AltitudeMeters>
            <DistanceMeters>NAN</DistanceMeters>
          </Trackpoint>
          <Trackpoint>
            <Time>2022-07-13T14:49:31.000Z</Time>
            <Position>
              <LatitudeDegrees>43.47545192576944828033447265625</LatitudeDegrees>
              <LongitudeDegrees>-3.68527580983936786651611328125</LongitudeDegrees>
            </Position>
            <AltitudeMeters>48</AltitudeMeters>
            <DistanceMeters>NAN</DistanceMeters>
          </Trackpoint>
          <Trackpoint>
            <Time>2022-07-13T14:49:32.000Z</Time>
            <Position>
              <LatitudeDegrees>43.47543633542954921722412109375</LatitudeDegrees>
              <LongitudeDegrees>-3.68532325141131877899169921875</LongitudeDegrees>
            </Position>
            <AltitudeMeters>47.799999237060546875</AltitudeMeters>
            <DistanceMeters>NAN</DistanceMeters>
          </Trackpoint>
          <Trackpoint>
            <Time>2022-07-13T14:49:39.000Z</Time>
            <Position>
              <LatitudeDegrees>43.475311361253261566162109375</LatitudeDegrees>
              <LongitudeDegrees>-3.6856115050613880157470703125</LongitudeDegrees>
            </Position>
            <AltitudeMeters>47</AltitudeMeters>
            <DistanceMeters>NAN</DistanceMeters>
          </Trackpoint>
          <Trackpoint>
            <Time>2022-07-13T14:49:42.000Z</Time>
            <Position>
              <LatitudeDegrees>43.47526316531002521514892578125</LatitudeDegrees>
              <LongitudeDegrees>-3.685719966888427734375</LongitudeDegrees>
            </Position>
            <AltitudeMeters>46.59999847412109375</AltitudeMeters>
            <DistanceMeters>NAN</DistanceMeters>
          </Trackpoint>
          <Trackpoint>
            <Time>2022-07-13T14:49:48.000Z</Time>
            <Position>
              <LatitudeDegrees>43.47516928799450397491455078125</LatitudeDegrees>
              <LongitudeDegrees>-3.685914091765880584716796875</LongitudeDegrees>
            </Position>
            <AltitudeMeters>46.40000152587890625</AltitudeMeters>
            <DistanceMeters>NAN</DistanceMeters>
          </Trackpoint>
          <Trackpoint>
            <Time>2022-07-13T14:49:57.000Z</Time>
            <Position>
              <LatitudeDegrees>43.47502612508833408355712890625</LatitudeDegrees>
              <LongitudeDegrees>-3.68612556718289852142333984375</LongitudeDegrees>
            </Position>
            <AltitudeMeters>46.59999847412109375</AltitudeMeters>
            <DistanceMeters>NAN</DistanceMeters>
          </Trackpoint>
          <Trackpoint>
            <Time>2022-07-13T14:50:01.000Z</Time>
            <Position>
              <LatitudeDegrees>43.475014977157115936279296875</LatitudeDegrees>
              <LongitudeDegrees>-3.6861424148082733154296875</LongitudeDegrees>
            </Position>
            <AltitudeMeters>46.799999237060546875</AltitudeMeters>
            <DistanceMeters>NAN</DistanceMeters>
          </Trackpoint>
          <Trackpoint>
            <Time>2022-07-13T14:51:01.000Z</Time>
            <Position>
              <LatitudeDegrees>43.474994860589504241943359375</LatitudeDegrees>
              <LongitudeDegrees>-3.6861623637378215789794921875</LongitudeDegrees>
            </Position>
            <AltitudeMeters>46.59999847412109375</AltitudeMeters>
            <DistanceMeters>NAN</DistanceMeters>
          </Trackpoint>
          <Trackpoint>
            <Time>2022-07-13T14:51:04.000Z</Time>
            <Position>
              <LatitudeDegrees>43.4749457426369190216064453125</LatitudeDegrees>
              <LongitudeDegrees>-3.6862243898212909698486328125</LongitudeDegrees>
            </Position>
            <AltitudeMeters>46.59999847412109375</AltitudeMeters>
            <DistanceMeters>NAN</DistanceMeters>
          </Trackpoint>
          <Trackpoint>
            <Time>2022-07-13T14:51:06.000Z</Time>
            <Position>
              <LatitudeDegrees>43.47491716034710407257080078125</LatitudeDegrees>
              <LongitudeDegrees>-3.68626755662262439727783203125</LongitudeDegrees>
            </Position>
            <AltitudeMeters>46.799999237060546875</AltitudeMeters>
            <DistanceMeters>NAN</DistanceMeters>
          </Trackpoint>
          <Trackpoint>
            <Time>2022-07-13T14:51:10.000Z</Time>
            <Position>
              <LatitudeDegrees>43.47485530190169811248779296875</LatitudeDegrees>
              <LongitudeDegrees>-3.686360009014606475830078125</LongitudeDegrees>
            </Position>
            <AltitudeMeters>47</AltitudeMeters>
            <DistanceMeters>NAN</DistanceMeters>
          </Trackpoint>
          <Trackpoint>
            <Time>2022-07-13T14:51:18.000Z</Time>
            <Position>
              <LatitudeDegrees>43.47475036047399044036865234375</LatitudeDegrees>
              <LongitudeDegrees>-3.6866109631955623626708984375</LongitudeDegrees>
            </Position>
            <AltitudeMeters>46.40000152587890625</AltitudeMeters>
            <DistanceMeters>NAN</DistanceMeters>
          </Trackpoint>
          <Trackpoint>
            <Time>2022-07-13T14:51:29.000Z</Time>
            <Position>
              <LatitudeDegrees>43.4746252186596393585205078125</LatitudeDegrees>
              <LongitudeDegrees>-3.6869573034346103668212890625</LongitudeDegrees>
            </Position>
            <AltitudeMeters>46</AltitudeMeters>
            <DistanceMeters>NAN</DistanceMeters>
          </Trackpoint>
          <Trackpoint>
            <Time>2022-07-13T14:51:35.000Z</Time>
            <Position>
              <LatitudeDegrees>43.47458607517182826995849609375</LatitudeDegrees>
              <LongitudeDegrees>-3.687152601778507232666015625</LongitudeDegrees>
            </Position>
            <AltitudeMeters>46.200000762939453125</AltitudeMeters>
            <DistanceMeters>NAN</DistanceMeters>
          </Trackpoint>
          <Trackpoint>
            <Time>2022-07-13T14:51:39.000Z</Time>
            <Position>
              <LatitudeDegrees>43.47456059418618679046630859375</LatitudeDegrees>
              <LongitudeDegrees>-3.6872945912182331085205078125</LongitudeDegrees>
            </Position>
            <AltitudeMeters>46.200000762939453125</AltitudeMeters>
            <DistanceMeters>NAN</DistanceMeters>
          </Trackpoint>
          <Trackpoint>
            <Time>2022-07-13T14:51:40.000Z</Time>
            <Position>
              <LatitudeDegrees>43.47455472685396671295166015625</LatitudeDegrees>
              <LongitudeDegrees>-3.687331639230251312255859375</LongitudeDegrees>
            </Position>
            <AltitudeMeters>46.40000152587890625</AltitudeMeters>
            <DistanceMeters>NAN</DistanceMeters>
          </Trackpoint>
          <Trackpoint>
            <Time>2022-07-13T14:51:47.000Z</Time>
            <Position>
              <LatitudeDegrees>43.4744797088205814361572265625</LatitudeDegrees>
              <LongitudeDegrees>-3.68761637248098850250244140625</LongitudeDegrees>
            </Position>
            <AltitudeMeters>46.200000762939453125</AltitudeMeters>
            <DistanceMeters>NAN</DistanceMeters>
          </Trackpoint>
          <Trackpoint>
            <Time>2022-07-13T14:51:51.000Z</Time>
            <Position>
              <LatitudeDegrees>43.4744304232299327850341796875</LatitudeDegrees>
              <LongitudeDegrees>-3.6878216452896595001220703125</LongitudeDegrees>
            </Position>
            <AltitudeMeters>46.200000762939453125</AltitudeMeters>
            <DistanceMeters>NAN</DistanceMeters>
          </Trackpoint>
          <Trackpoint>
            <Time>2022-07-13T14:51:53.000Z</Time>
            <Position>
              <LatitudeDegrees>43.47441927529871463775634765625</LatitudeDegrees>
              <LongitudeDegrees>-3.6879369802772998809814453125</LongitudeDegrees>
            </Position>
            <AltitudeMeters>45.40000152587890625</AltitudeMeters>
            <DistanceMeters>NAN</DistanceMeters>
          </Trackpoint>
          <Trackpoint>
            <Time>2022-07-13T14:51:57.000Z</Time>
            <Position>
              <LatitudeDegrees>43.4743911959230899810791015625</LatitudeDegrees>
              <LongitudeDegrees>-3.68817661888897418975830078125</LongitudeDegrees>
            </Position>
            <AltitudeMeters>45</AltitudeMeters>
            <DistanceMeters>NAN</DistanceMeters>
          </Trackpoint>
          <Trackpoint>
            <Time>2022-07-13T14:52:00.000Z</Time>
            <Position>
              <LatitudeDegrees>43.47437133081257343292236328125</LatitudeDegrees>
              <LongitudeDegrees>-3.68837392888963222503662109375</LongitudeDegrees>
            </Position>
            <AltitudeMeters>44.40000152587890625</AltitudeMeters>
            <DistanceMeters>NAN</DistanceMeters>
          </Trackpoint>
          <Trackpoint>
            <Time>2022-07-13T14:52:08.000Z</Time>
            <Position>
              <LatitudeDegrees>43.4743179380893707275390625</LatitudeDegrees>
              <LongitudeDegrees>-3.6889464966952800750732421875</LongitudeDegrees>
            </Position>
            <AltitudeMeters>43.40000152587890625</AltitudeMeters>
            <DistanceMeters>NAN</DistanceMeters>
          </Trackpoint>
          <Trackpoint>
            <Time>2022-07-13T14:52:09.000Z</Time>
            <Position>
              <LatitudeDegrees>43.474316261708736419677734375</LatitudeDegrees>
              <LongitudeDegrees>-3.68901304900646209716796875</LongitudeDegrees>
            </Position>
            <AltitudeMeters>43.40000152587890625</AltitudeMeters>
            <DistanceMeters>NAN</DistanceMeters>
          </Trackpoint>
          <Trackpoint>
            <Time>2022-07-13T14:52:14.000Z</Time>
            <Position>
              <LatitudeDegrees>43.474299497902393341064453125</LatitudeDegrees>
              <LongitudeDegrees>-3.68931882083415985107421875</LongitudeDegrees>
            </Position>
            <AltitudeMeters>42</AltitudeMeters>
            <DistanceMeters>NAN</DistanceMeters>
          </Trackpoint>
          <Trackpoint>
            <Time>2022-07-13T14:52:16.000Z</Time>
            <Position>
              <LatitudeDegrees>43.47428516484797000885009765625</LatitudeDegrees>
              <LongitudeDegrees>-3.6894383467733860015869140625</LongitudeDegrees>
            </Position>
            <AltitudeMeters>41.59999847412109375</AltitudeMeters>
            <DistanceMeters>NAN</DistanceMeters>
          </Trackpoint>
          <Trackpoint>
            <Time>2022-07-13T14:52:19.000Z</Time>
            <Position>
              <LatitudeDegrees>43.47426705993711948394775390625</LatitudeDegrees>
              <LongitudeDegrees>-3.68962635286152362823486328125</LongitudeDegrees>
            </Position>
            <AltitudeMeters>41</AltitudeMeters>
            <DistanceMeters>NAN</DistanceMeters>
          </Trackpoint>
          <Trackpoint>
            <Time>2022-07-13T14:52:21.000Z</Time>
            <Position>
              <LatitudeDegrees>43.4742537327110767364501953125</LatitudeDegrees>
              <LongitudeDegrees>-3.68976364843547344207763671875</LongitudeDegrees>
            </Position>
            <AltitudeMeters>40.59999847412109375</AltitudeMeters>
            <DistanceMeters>NAN</DistanceMeters>
          </Trackpoint>
          <Trackpoint>
            <Time>2022-07-13T14:52:25.000Z</Time>
            <Position>
              <LatitudeDegrees>43.474260270595550537109375</LatitudeDegrees>
              <LongitudeDegrees>-3.69000722654163837432861328125</LongitudeDegrees>
            </Position>
            <AltitudeMeters>40.59999847412109375</AltitudeMeters>
            <DistanceMeters>NAN</DistanceMeters>
          </Trackpoint>
          <Trackpoint>
            <Time>2022-07-13T14:52:31.000Z</Time>
            <Position>
              <LatitudeDegrees>43.47428600303828716278076171875</LatitudeDegrees>
              <LongitudeDegrees>-3.69030185043811798095703125</LongitudeDegrees>
            </Position>
            <AltitudeMeters>40.40000152587890625</AltitudeMeters>
            <DistanceMeters>NAN</DistanceMeters>
          </Trackpoint>
          <Trackpoint>
            <Time>2022-07-13T14:52:35.000Z</Time>
            <Position>
              <LatitudeDegrees>43.474316261708736419677734375</LatitudeDegrees>
              <LongitudeDegrees>-3.69043889455497264862060546875</LongitudeDegrees>
            </Position>
            <AltitudeMeters>40</AltitudeMeters>
            <DistanceMeters>NAN</DistanceMeters>
          </Trackpoint>
          <Trackpoint>
            <Time>2022-07-13T14:52:37.000Z</Time>
            <Position>
              <LatitudeDegrees>43.47433495335280895233154296875</LatitudeDegrees>
              <LongitudeDegrees>-3.6905018426477909088134765625</LongitudeDegrees>
            </Position>
            <AltitudeMeters>40</AltitudeMeters>
            <DistanceMeters>NAN</DistanceMeters>
          </Trackpoint>
          <Trackpoint>
            <Time>2022-07-13T14:52:38.000Z</Time>
            <Position>
              <LatitudeDegrees>43.4743452630937099456787109375</LatitudeDegrees>
              <LongitudeDegrees>-3.6905333586037158966064453125</LongitudeDegrees>
            </Position>
            <AltitudeMeters>39.799999237060546875</AltitudeMeters>
            <DistanceMeters>NAN</DistanceMeters>
          </Trackpoint>
          <Trackpoint>
            <Time>2022-07-13T14:52:41.000Z</Time>
            <Position>
              <LatitudeDegrees>43.47437166608870029449462890625</LatitudeDegrees>
              <LongitudeDegrees>-3.69064140133559703826904296875</LongitudeDegrees>
            </Position>
            <AltitudeMeters>39.799999237060546875</AltitudeMeters>
            <DistanceMeters>NAN</DistanceMeters>
          </Trackpoint>
          <Trackpoint>
            <Time>2022-07-13T14:52:46.000Z</Time>
            <Position>
              <LatitudeDegrees>43.474413491785526275634765625</LatitudeDegrees>
              <LongitudeDegrees>-3.6908056028187274932861328125</LongitudeDegrees>
            </Position>
            <AltitudeMeters>39.799999237060546875</AltitudeMeters>
            <DistanceMeters>NAN</DistanceMeters>
          </Trackpoint>
          <Trackpoint>
            <Time>2022-07-13T14:52:53.000Z</Time>
            <Position>
              <LatitudeDegrees>43.47447216510772705078125</LatitudeDegrees>
              <LongitudeDegrees>-3.69093216955661773681640625</LongitudeDegrees>
            </Position>
            <AltitudeMeters>38.799999237060546875</AltitudeMeters>
            <DistanceMeters>NAN</DistanceMeters>
          </Trackpoint>
          <Trackpoint>
            <Time>2022-07-13T14:52:55.000Z</Time>
            <Position>
              <LatitudeDegrees>43.47447216510772705078125</LatitudeDegrees>
              <LongitudeDegrees>-3.69093216955661773681640625</LongitudeDegrees>
            </Position>
            <AltitudeMeters>38.40000152587890625</AltitudeMeters>
            <DistanceMeters>NAN</DistanceMeters>
          </Trackpoint>
          <Trackpoint>
            <Time>2022-07-13T14:53:47.000Z</Time>
            <Position>
              <LatitudeDegrees>43.47445481456816196441650390625</LatitudeDegrees>
              <LongitudeDegrees>-3.69097902439534664154052734375</LongitudeDegrees>
            </Position>
            <AltitudeMeters>37.59999847412109375</AltitudeMeters>
            <DistanceMeters>NAN</DistanceMeters>
          </Trackpoint>
          <Trackpoint>
            <Time>2022-07-13T14:53:48.000Z</Time>
            <Position>
              <LatitudeDegrees>43.47444861195981502532958984375</LatitudeDegrees>
              <LongitudeDegrees>-3.69100718759000301361083984375</LongitudeDegrees>
            </Position>
            <AltitudeMeters>37.40000152587890625</AltitudeMeters>
            <DistanceMeters>NAN</DistanceMeters>
          </Trackpoint>
          <Trackpoint>
            <Time>2022-07-13T14:53:51.000Z</Time>
            <Position>
              <LatitudeDegrees>43.474439643323421478271484375</LatitudeDegrees>
              <LongitudeDegrees>-3.69111782871186733245849609375</LongitudeDegrees>
            </Position>
            <AltitudeMeters>37.200000762939453125</AltitudeMeters>
            <DistanceMeters>NAN</DistanceMeters>
          </Trackpoint>
          <Trackpoint>
            <Time>2022-07-13T14:53:53.000Z</Time>
            <Position>
              <LatitudeDegrees>43.47443972714245319366455078125</LatitudeDegrees>
              <LongitudeDegrees>-3.69121589697897434234619140625</LongitudeDegrees>
            </Position>
            <AltitudeMeters>37</AltitudeMeters>
            <DistanceMeters>NAN</DistanceMeters>
          </Trackpoint>
          <Trackpoint>
            <Time>2022-07-13T14:53:56.000Z</Time>
            <Position>
              <LatitudeDegrees>43.4744347818195819854736328125</LatitudeDegrees>
              <LongitudeDegrees>-3.69138437323272228240966796875</LongitudeDegrees>
            </Position>
            <AltitudeMeters>36.40000152587890625</AltitudeMeters>
            <DistanceMeters>NAN</DistanceMeters>
          </Trackpoint>
          <Trackpoint>
            <Time>2022-07-13T14:53:59.000Z</Time>
            <Position>
              <LatitudeDegrees>43.47442782483994960784912109375</LatitudeDegrees>
              <LongitudeDegrees>-3.69151429273188114166259765625</LongitudeDegrees>
            </Position>
            <AltitudeMeters>36.200000762939453125</AltitudeMeters>
            <DistanceMeters>NAN</DistanceMeters>
          </Trackpoint>
          <Trackpoint>
            <Time>2022-07-13T14:54:06.000Z</Time>
            <Position>
              <LatitudeDegrees>43.47442363388836383819580078125</LatitudeDegrees>
              <LongitudeDegrees>-3.691704310476779937744140625</LongitudeDegrees>
            </Position>
            <AltitudeMeters>36.40000152587890625</AltitudeMeters>
            <DistanceMeters>NAN</DistanceMeters>
          </Trackpoint>
          <Trackpoint>
            <Time>2022-07-13T14:54:11.000Z</Time>
            <Position>
              <LatitudeDegrees>43.47450460307300090789794921875</LatitudeDegrees>
              <LongitudeDegrees>-3.691818304359912872314453125</LongitudeDegrees>
            </Position>
            <AltitudeMeters>36.200000762939453125</AltitudeMeters>
            <DistanceMeters>NAN</DistanceMeters>
          </Trackpoint>
          <Trackpoint>
            <Time>2022-07-13T14:54:17.000Z</Time>
            <Position>
              <LatitudeDegrees>43.4746282361447811126708984375</LatitudeDegrees>
              <LongitudeDegrees>-3.69189365766942501068115234375</LongitudeDegrees>
            </Position>
            <AltitudeMeters>36</AltitudeMeters>
            <DistanceMeters>NAN</DistanceMeters>
          </Trackpoint>
          <Trackpoint>
            <Time>2022-07-13T14:54:21.000Z</Time>
            <Position>
              <LatitudeDegrees>43.47466235049068927764892578125</LatitudeDegrees>
              <LongitudeDegrees>-3.6919579468667507171630859375</LongitudeDegrees>
            </Position>
            <AltitudeMeters>36.200000762939453125</AltitudeMeters>
            <DistanceMeters>NAN</DistanceMeters>
          </Trackpoint>
          <Trackpoint>
            <Time>2022-07-13T14:54:24.000Z</Time>
            <Position>
              <LatitudeDegrees>43.47470484673976898193359375</LatitudeDegrees>
              <LongitudeDegrees>-3.6920132674276828765869140625</LongitudeDegrees>
            </Position>
            <AltitudeMeters>36.40000152587890625</AltitudeMeters>
            <DistanceMeters>NAN</DistanceMeters>
          </Trackpoint>
          <Trackpoint>
            <Time>2022-07-13T14:54:28.000Z</Time>
            <Position>
              <LatitudeDegrees>43.47476209513843059539794921875</LatitudeDegrees>
              <LongitudeDegrees>-3.6921135149896144866943359375</LongitudeDegrees>
            </Position>
            <AltitudeMeters>36.799999237060546875</AltitudeMeters>
            <DistanceMeters>NAN</DistanceMeters>
          </Trackpoint>
          <Trackpoint>
            <Time>2022-07-13T14:54:30.000Z</Time>
            <Position>
              <LatitudeDegrees>43.47477768547832965850830078125</LatitudeDegrees>
              <LongitudeDegrees>-3.692171014845371246337890625</LongitudeDegrees>
            </Position>
            <AltitudeMeters>36.799999237060546875</AltitudeMeters>
            <DistanceMeters>NAN</DistanceMeters>
          </Trackpoint>
          <Trackpoint>
            <Time>2022-07-13T14:54:37.000Z</Time>
            <Position>
              <LatitudeDegrees>43.47484759055078029632568359375</LatitudeDegrees>
              <LongitudeDegrees>-3.69236086495220661163330078125</LongitudeDegrees>
            </Position>
            <AltitudeMeters>36.799999237060546875</AltitudeMeters>
            <DistanceMeters>NAN</DistanceMeters>
          </Trackpoint>
          <Trackpoint>
            <Time>2022-07-13T14:54:39.000Z</Time>
            <Position>
              <LatitudeDegrees>43.47486753948032855987548828125</LatitudeDegrees>
              <LongitudeDegrees>-3.692419789731502532958984375</LongitudeDegrees>
            </Position>
            <AltitudeMeters>36.799999237060546875</AltitudeMeters>
            <DistanceMeters>NAN</DistanceMeters>
          </Trackpoint>
          <Trackpoint>
            <Time>2022-07-13T14:54:45.000Z</Time>
            <Position>
              <LatitudeDegrees>43.47492302767932415008544921875</LatitudeDegrees>
              <LongitudeDegrees>-3.69259220547974109649658203125</LongitudeDegrees>
            </Position>
            <AltitudeMeters>37.40000152587890625</AltitudeMeters>
            <DistanceMeters>NAN</DistanceMeters>
          </Trackpoint>
          <Trackpoint>
            <Time>2022-07-13T14:54:46.000Z</Time>
            <Position>
              <LatitudeDegrees>43.47493643872439861297607421875</LatitudeDegrees>
              <LongitudeDegrees>-3.6926181055605411529541015625</LongitudeDegrees>
            </Position>
            <AltitudeMeters>37.59999847412109375</AltitudeMeters>
            <DistanceMeters>NAN</DistanceMeters>
          </Trackpoint>
          <Trackpoint>
            <Time>2022-07-13T14:54:49.000Z</Time>
            <Position>
              <LatitudeDegrees>43.474970050156116485595703125</LatitudeDegrees>
              <LongitudeDegrees>-3.6926922015845775604248046875</LongitudeDegrees>
            </Position>
            <AltitudeMeters>37.59999847412109375</AltitudeMeters>
            <DistanceMeters>NAN</DistanceMeters>
          </Trackpoint>
          <Trackpoint>
            <Time>2022-07-13T14:54:55.000Z</Time>
            <Position>
              <LatitudeDegrees>43.47504909150302410125732421875</LatitudeDegrees>
              <LongitudeDegrees>-3.69283092208206653594970703125</LongitudeDegrees>
            </Position>
            <AltitudeMeters>37.40000152587890625</AltitudeMeters>
            <DistanceMeters>NAN</DistanceMeters>
          </Trackpoint>
          <Trackpoint>
            <Time>2022-07-13T14:55:01.000Z</Time>
            <Position>
              <LatitudeDegrees>43.475149087607860565185546875</LatitudeDegrees>
              <LongitudeDegrees>-3.69295313023030757904052734375</LongitudeDegrees>
            </Position>
            <AltitudeMeters>37.40000152587890625</AltitudeMeters>
            <DistanceMeters>NAN</DistanceMeters>
          </Trackpoint>
          <Trackpoint>
            <Time>2022-07-13T14:55:04.000Z</Time>
            <Position>
              <LatitudeDegrees>43.4752005524933338165283203125</LatitudeDegrees>
              <LongitudeDegrees>-3.69300660677254199981689453125</LongitudeDegrees>
            </Position>
            <AltitudeMeters>37.59999847412109375</AltitudeMeters>
            <DistanceMeters>NAN</DistanceMeters>
          </Trackpoint>
          <Trackpoint>
            <Time>2022-07-13T14:55:11.000Z</Time>
            <Position>
              <LatitudeDegrees>43.47532200627028942108154296875</LatitudeDegrees>
              <LongitudeDegrees>-3.6931563913822174072265625</LongitudeDegrees>
            </Position>
            <AltitudeMeters>37.799999237060546875</AltitudeMeters>
            <DistanceMeters>NAN</DistanceMeters>
          </Trackpoint>
          <Trackpoint>
            <Time>2022-07-13T14:55:19.000Z</Time>
            <Position>
              <LatitudeDegrees>43.475467264652252197265625</LatitudeDegrees>
              <LongitudeDegrees>-3.6933064274489879608154296875</LongitudeDegrees>
            </Position>
            <AltitudeMeters>37.59999847412109375</AltitudeMeters>
            <DistanceMeters>NAN</DistanceMeters>
          </Trackpoint>
          <Trackpoint>
            <Time>2022-07-13T14:55:21.000Z</Time>
            <Position>
              <LatitudeDegrees>43.47551043145358562469482421875</LatitudeDegrees>
              <LongitudeDegrees>-3.69334640912711620330810546875</LongitudeDegrees>
            </Position>
            <AltitudeMeters>37.59999847412109375</AltitudeMeters>
            <DistanceMeters>NAN</DistanceMeters>
          </Trackpoint>
          <Trackpoint>
            <Time>2022-07-13T14:55:30.000Z</Time>
            <Position>
              <LatitudeDegrees>43.47569718025624752044677734375</LatitudeDegrees>
              <LongitudeDegrees>-3.6934412084519863128662109375</LongitudeDegrees>
            </Position>
            <AltitudeMeters>37.799999237060546875</AltitudeMeters>
            <DistanceMeters>NAN</DistanceMeters>
          </Trackpoint>
          <Trackpoint>
            <Time>2022-07-13T14:55:36.000Z</Time>
            <Position>
              <LatitudeDegrees>43.4758127667009830474853515625</LatitudeDegrees>
              <LongitudeDegrees>-3.69350600056350231170654296875</LongitudeDegrees>
            </Position>
            <AltitudeMeters>38.59999847412109375</AltitudeMeters>
            <DistanceMeters>NAN</DistanceMeters>
          </Trackpoint>
          <Trackpoint>
            <Time>2022-07-13T14:55:39.000Z</Time>
            <Position>
              <LatitudeDegrees>43.475861884653568267822265625</LatitudeDegrees>
              <LongitudeDegrees>-3.693549335002899169921875</LongitudeDegrees>
            </Position>
            <AltitudeMeters>39</AltitudeMeters>
            <DistanceMeters>NAN</DistanceMeters>
          </Trackpoint>
          <Trackpoint>
            <Time>2022-07-13T14:55:40.000Z</Time>
            <Position>
              <LatitudeDegrees>43.4758737869560718536376953125</LatitudeDegrees>
              <LongitudeDegrees>-3.69354866445064544677734375</LongitudeDegrees>
            </Position>
            <AltitudeMeters>39</AltitudeMeters>
            <DistanceMeters>NAN</DistanceMeters>
          </Trackpoint>
          <Trackpoint>
            <Time>2022-07-13T14:55:43.000Z</Time>
            <Position>
              <LatitudeDegrees>43.47588275559246540069580078125</LatitudeDegrees>
              <LongitudeDegrees>-3.69354120455682277679443359375</LongitudeDegrees>
            </Position>
            <AltitudeMeters>39.40000152587890625</AltitudeMeters>
            <DistanceMeters>NAN</DistanceMeters>
          </Trackpoint>
          <Trackpoint>
            <Time>2022-07-13T14:55:44.000Z</Time>
            <Position>
              <LatitudeDegrees>43.47588392905890941619873046875</LatitudeDegrees>
              <LongitudeDegrees>-3.6935387738049030303955078125</LongitudeDegrees>
            </Position>
            <AltitudeMeters>39.40000152587890625</AltitudeMeters>
            <DistanceMeters>NAN</DistanceMeters>
          </Trackpoint>
          <Trackpoint>
            <Time>2022-07-13T14:55:49.000Z</Time>
            <Position>
              <LatitudeDegrees>43.47588233649730682373046875</LatitudeDegrees>
              <LongitudeDegrees>-3.6934757418930530548095703125</LongitudeDegrees>
            </Position>
            <AltitudeMeters>39.40000152587890625</AltitudeMeters>
            <DistanceMeters>NAN</DistanceMeters>
          </Trackpoint>
          <Trackpoint>
            <Time>2022-07-13T14:55:51.000Z</Time>
            <Position>
              <LatitudeDegrees>43.47588233649730682373046875</LatitudeDegrees>
              <LongitudeDegrees>-3.6934757418930530548095703125</LongitudeDegrees>
            </Position>
            <AltitudeMeters>39.200000762939453125</AltitudeMeters>
            <DistanceMeters>NAN</DistanceMeters>
          </Trackpoint>
          <Trackpoint>
            <Time>2022-07-13T14:57:18.000Z</Time>
            <Position>
              <LatitudeDegrees>43.47588443197309970855712890625</LatitudeDegrees>
              <LongitudeDegrees>-3.6935743130743503570556640625</LongitudeDegrees>
            </Position>
            <AltitudeMeters>39.59999847412109375</AltitudeMeters>
            <DistanceMeters>NAN</DistanceMeters>
          </Trackpoint>
          <Trackpoint>
            <Time>2022-07-13T14:57:20.000Z</Time>
            <Position>
              <LatitudeDegrees>43.47590790130198001861572265625</LatitudeDegrees>
              <LongitudeDegrees>-3.6936178989708423614501953125</LongitudeDegrees>
            </Position>
            <AltitudeMeters>39.59999847412109375</AltitudeMeters>
            <DistanceMeters>NAN</DistanceMeters>
          </Trackpoint>
          <Trackpoint>
            <Time>2022-07-13T14:57:21.000Z</Time>
            <Position>
              <LatitudeDegrees>43.4759193845093250274658203125</LatitudeDegrees>
              <LongitudeDegrees>-3.69363826699554920196533203125</LongitudeDegrees>
            </Position>
            <AltitudeMeters>40.200000762939453125</AltitudeMeters>
            <DistanceMeters>NAN</DistanceMeters>
          </Trackpoint>
          <Trackpoint>
            <Time>2022-07-13T14:57:25.000Z</Time>
            <Position>
              <LatitudeDegrees>43.47597445361316204071044921875</LatitudeDegrees>
              <LongitudeDegrees>-3.6937188170850276947021484375</LongitudeDegrees>
            </Position>
            <AltitudeMeters>41.200000762939453125</AltitudeMeters>
            <DistanceMeters>NAN</DistanceMeters>
          </Trackpoint>
          <Trackpoint>
            <Time>2022-07-13T14:57:28.000Z</Time>
            <Position>
              <LatitudeDegrees>43.4760157763957977294921875</LatitudeDegrees>
              <LongitudeDegrees>-3.69378260336816310882568359375</LongitudeDegrees>
            </Position>
            <AltitudeMeters>41.40000152587890625</AltitudeMeters>
            <DistanceMeters>NAN</DistanceMeters>
          </Trackpoint>
          <Trackpoint>
            <Time>2022-07-13T14:57:33.000Z</Time>
            <Position>
              <LatitudeDegrees>43.4761000983417034149169921875</LatitudeDegrees>
              <LongitudeDegrees>-3.69390296749770641326904296875</LongitudeDegrees>
            </Position>
            <AltitudeMeters>40.799999237060546875</AltitudeMeters>
            <DistanceMeters>NAN</DistanceMeters>
          </Trackpoint>
          <Trackpoint>
            <Time>2022-07-13T14:57:40.000Z</Time>
            <Position>
              <LatitudeDegrees>43.47618416883051395416259765625</LatitudeDegrees>
              <LongitudeDegrees>-3.694043867290019989013671875</LongitudeDegrees>
            </Position>
            <AltitudeMeters>41.200000762939453125</AltitudeMeters>
            <DistanceMeters>NAN</DistanceMeters>
          </Trackpoint>
          <Trackpoint>
            <Time>2022-07-13T14:57:47.000Z</Time>
            <Position>
              <LatitudeDegrees>43.47624988295137882232666015625</LatitudeDegrees>
              <LongitudeDegrees>-3.694142438471317291259765625</LongitudeDegrees>
            </Position>
            <AltitudeMeters>40.40000152587890625</AltitudeMeters>
            <DistanceMeters>NAN</DistanceMeters>
          </Trackpoint>
          <Trackpoint>
            <Time>2022-07-13T14:57:49.000Z</Time>
            <Position>
              <LatitudeDegrees>43.4762680716812610626220703125</LatitudeDegrees>
              <LongitudeDegrees>-3.694173954427242279052734375</LongitudeDegrees>
            </Position>
            <AltitudeMeters>40.40000152587890625</AltitudeMeters>
            <DistanceMeters>NAN</DistanceMeters>
          </Trackpoint>
          <Trackpoint>
            <Time>2022-07-13T14:57:54.000Z</Time>
            <Position>
              <LatitudeDegrees>43.4763431735336780548095703125</LatitudeDegrees>
              <LongitudeDegrees>-3.69420706294476985931396484375</LongitudeDegrees>
            </Position>
            <AltitudeMeters>40.200000762939453125</AltitudeMeters>
            <DistanceMeters>NAN</DistanceMeters>
          </Trackpoint>
          <Trackpoint>
            <Time>2022-07-13T14:57:55.000Z</Time>
            <Position>
              <LatitudeDegrees>43.4763579256832599639892578125</LatitudeDegrees>
              <LongitudeDegrees>-3.6941997706890106201171875</LongitudeDegrees>
            </Position>
            <AltitudeMeters>40.200000762939453125</AltitudeMeters>
            <DistanceMeters>NAN</DistanceMeters>
          </Trackpoint>
          <Trackpoint>
            <Time>2022-07-13T14:57:59.000Z</Time>
            <Position>
              <LatitudeDegrees>43.47637376748025417327880859375</LatitudeDegrees>
              <LongitudeDegrees>-3.694186694920063018798828125</LongitudeDegrees>
            </Position>
            <AltitudeMeters>39.799999237060546875</AltitudeMeters>
            <DistanceMeters>NAN</DistanceMeters>
          </Trackpoint>
          <Trackpoint>
            <Time>2022-07-13T14:59:01.000Z</Time>
            <Position>
              <LatitudeDegrees>43.47623043693602085113525390625</LatitudeDegrees>
              <LongitudeDegrees>-3.69423204101622104644775390625</LongitudeDegrees>
            </Position>
            <AltitudeMeters>40.40000152587890625</AltitudeMeters>
            <DistanceMeters>NAN</DistanceMeters>
          </Trackpoint>
          <Trackpoint>
            <Time>2022-07-13T14:59:03.000Z</Time>
            <Position>
              <LatitudeDegrees>43.4762338735163211822509765625</LatitudeDegrees>
              <LongitudeDegrees>-3.69425886310636997222900390625</LongitudeDegrees>
            </Position>
            <AltitudeMeters>40.59999847412109375</AltitudeMeters>
            <DistanceMeters>NAN</DistanceMeters>
          </Trackpoint>
          <Trackpoint>
            <Time>2022-07-13T14:59:08.000Z</Time>
            <Position>
              <LatitudeDegrees>43.476239405572414398193359375</LatitudeDegrees>
              <LongitudeDegrees>-3.69427579455077648162841796875</LongitudeDegrees>
            </Position>
            <AltitudeMeters>40.40000152587890625</AltitudeMeters>
            <DistanceMeters>NAN</DistanceMeters>
          </Trackpoint>
          <Trackpoint>
            <Time>2022-07-13T15:00:53.000Z</Time>
            <Position>
              <LatitudeDegrees>43.4762727655470371246337890625</LatitudeDegrees>
              <LongitudeDegrees>-3.69444242678582668304443359375</LongitudeDegrees>
            </Position>
            <AltitudeMeters>40.59999847412109375</AltitudeMeters>
            <DistanceMeters>NAN</DistanceMeters>
          </Trackpoint>
          <Trackpoint>
            <Time>2022-07-13T15:00:54.000Z</Time>
            <Position>
              <LatitudeDegrees>43.4762727655470371246337890625</LatitudeDegrees>
              <LongitudeDegrees>-3.694483749568462371826171875</LongitudeDegrees>
            </Position>
            <AltitudeMeters>40.59999847412109375</AltitudeMeters>
            <DistanceMeters>NAN</DistanceMeters>
          </Trackpoint>
          <Trackpoint>
            <Time>2022-07-13T15:01:00.000Z</Time>
            <Position>
              <LatitudeDegrees>43.47625373862683773040771484375</LatitudeDegrees>
              <LongitudeDegrees>-3.694747276604175567626953125</LongitudeDegrees>
            </Position>
            <AltitudeMeters>40.40000152587890625</AltitudeMeters>
            <DistanceMeters>NAN</DistanceMeters>
          </Trackpoint>
          <Trackpoint>
            <Time>2022-07-13T15:01:03.000Z</Time>
            <Position>
              <LatitudeDegrees>43.47623261623084545135498046875</LatitudeDegrees>
              <LongitudeDegrees>-3.69484928436577320098876953125</LongitudeDegrees>
            </Position>
            <AltitudeMeters>40.59999847412109375</AltitudeMeters>
            <DistanceMeters>NAN</DistanceMeters>
          </Trackpoint>
          <Trackpoint>
            <Time>2022-07-13T15:01:04.000Z</Time>
            <Position>
              <LatitudeDegrees>43.47622993402183055877685546875</LatitudeDegrees>
              <LongitudeDegrees>-3.69488012976944446563720703125</LongitudeDegrees>
            </Position>
            <AltitudeMeters>41</AltitudeMeters>
            <DistanceMeters>NAN</DistanceMeters>
          </Trackpoint>
          <Trackpoint>
            <Time>2022-07-13T15:01:05.000Z</Time>
            <Position>
              <LatitudeDegrees>43.47622842527925968170166015625</LatitudeDegrees>
              <LongitudeDegrees>-3.6949103884398937225341796875</LongitudeDegrees>
            </Position>
            <AltitudeMeters>41.40000152587890625</AltitudeMeters>
            <DistanceMeters>NAN</DistanceMeters>
          </Trackpoint>
          <Trackpoint>
            <Time>2022-07-13T15:01:07.000Z</Time>
            <Position>
              <LatitudeDegrees>43.476232029497623443603515625</LatitudeDegrees>
              <LongitudeDegrees>-3.69497266598045825958251953125</LongitudeDegrees>
            </Position>
            <AltitudeMeters>42</AltitudeMeters>
            <DistanceMeters>NAN</DistanceMeters>
          </Trackpoint>
          <Trackpoint>
            <Time>2022-07-13T15:01:09.000Z</Time>
            <Position>
              <LatitudeDegrees>43.4762358851730823516845703125</LatitudeDegrees>
              <LongitudeDegrees>-3.6950327642261981964111328125</LongitudeDegrees>
            </Position>
            <AltitudeMeters>42.59999847412109375</AltitudeMeters>
            <DistanceMeters>NAN</DistanceMeters>
          </Trackpoint>
          <Trackpoint>
            <Time>2022-07-13T15:01:14.000Z</Time>
            <Position>
              <LatitudeDegrees>43.47627259790897369384765625</LatitudeDegrees>
              <LongitudeDegrees>-3.695164360105991363525390625</LongitudeDegrees>
            </Position>
            <AltitudeMeters>43.200000762939453125</AltitudeMeters>
            <DistanceMeters>NAN</DistanceMeters>
          </Trackpoint>
          <Trackpoint>
            <Time>2022-07-13T15:01:16.000Z</Time>
            <Position>
              <LatitudeDegrees>43.476301766932010650634765625</LatitudeDegrees>
              <LongitudeDegrees>-3.6951936967670917510986328125</LongitudeDegrees>
            </Position>
            <AltitudeMeters>43.59999847412109375</AltitudeMeters>
            <DistanceMeters>NAN</DistanceMeters>
          </Trackpoint>
          <Trackpoint>
            <Time>2022-07-13T15:01:21.000Z</Time>
            <Position>
              <LatitudeDegrees>43.47636505030095577239990234375</LatitudeDegrees>
              <LongitudeDegrees>-3.695247508585453033447265625</LongitudeDegrees>
            </Position>
            <AltitudeMeters>44.799999237060546875</AltitudeMeters>
            <DistanceMeters>NAN</DistanceMeters>
          </Trackpoint>
          <Trackpoint>
            <Time>2022-07-13T15:01:22.000Z</Time>
            <Position>
              <LatitudeDegrees>43.47637795843183994293212890625</LatitudeDegrees>
              <LongitudeDegrees>-3.6952610872685909271240234375</LongitudeDegrees>
            </Position>
            <AltitudeMeters>45</AltitudeMeters>
            <DistanceMeters>NAN</DistanceMeters>
          </Trackpoint>
          <Trackpoint>
            <Time>2022-07-13T15:01:24.000Z</Time>
            <Position>
              <LatitudeDegrees>43.47640578635036945343017578125</LatitudeDegrees>
              <LongitudeDegrees>-3.6952832154929637908935546875</LongitudeDegrees>
            </Position>
            <AltitudeMeters>45.59999847412109375</AltitudeMeters>
            <DistanceMeters>NAN</DistanceMeters>
          </Trackpoint>
          <Trackpoint>
            <Time>2022-07-13T15:01:25.000Z</Time>
            <Position>
              <LatitudeDegrees>43.47641567699611186981201171875</LatitudeDegrees>
              <LongitudeDegrees>-3.6952932737767696380615234375</LongitudeDegrees>
            </Position>
            <AltitudeMeters>45.799999237060546875</AltitudeMeters>
            <DistanceMeters>NAN</DistanceMeters>
          </Trackpoint>
          <Trackpoint>
            <Time>2022-07-13T15:01:27.000Z</Time>
            <Position>
              <LatitudeDegrees>43.47643428482115268707275390625</LatitudeDegrees>
              <LongitudeDegrees>-3.69531665928661823272705078125</LongitudeDegrees>
            </Position>
            <AltitudeMeters>46.40000152587890625</AltitudeMeters>
            <DistanceMeters>NAN</DistanceMeters>
          </Trackpoint>
          <Trackpoint>
            <Time>2022-07-13T15:01:29.000Z</Time>
            <Position>
              <LatitudeDegrees>43.476449288427829742431640625</LatitudeDegrees>
              <LongitudeDegrees>-3.6953371949493885040283203125</LongitudeDegrees>
            </Position>
            <AltitudeMeters>46.59999847412109375</AltitudeMeters>
            <DistanceMeters>NAN</DistanceMeters>
          </Trackpoint>
          <Trackpoint>
            <Time>2022-07-13T15:01:31.000Z</Time>
            <Position>
              <LatitudeDegrees>43.476462028920650482177734375</LatitudeDegrees>
              <LongitudeDegrees>-3.69535622186958789825439453125</LongitudeDegrees>
            </Position>
            <AltitudeMeters>46.799999237060546875</AltitudeMeters>
            <DistanceMeters>NAN</DistanceMeters>
          </Trackpoint>
          <Trackpoint>
            <Time>2022-07-13T15:01:35.000Z</Time>
            <Position>
              <LatitudeDegrees>43.4764958918094635009765625</LatitudeDegrees>
              <LongitudeDegrees>-3.6953968740999698638916015625</LongitudeDegrees>
            </Position>
            <AltitudeMeters>48</AltitudeMeters>
            <DistanceMeters>NAN</DistanceMeters>
          </Trackpoint>
          <Trackpoint>
            <Time>2022-07-13T15:01:39.000Z</Time>
            <Position>
              <LatitudeDegrees>43.47652346827089786529541015625</LatitudeDegrees>
              <LongitudeDegrees>-3.69544230401515960693359375</LongitudeDegrees>
            </Position>
            <AltitudeMeters>48</AltitudeMeters>
            <DistanceMeters>NAN</DistanceMeters>
          </Trackpoint>
          <Trackpoint>
            <Time>2022-07-13T15:01:42.000Z</Time>
            <Position>
              <LatitudeDegrees>43.47652631811797618865966796875</LatitudeDegrees>
              <LongitudeDegrees>-3.695448338985443115234375</LongitudeDegrees>
            </Position>
            <AltitudeMeters>48.200000762939453125</AltitudeMeters>
            <DistanceMeters>NAN</DistanceMeters>
          </Trackpoint>
          <Trackpoint>
            <Time>2022-07-13T15:11:38.000Z</Time>
            <Position>
              <LatitudeDegrees>43.476561941206455230712890625</LatitudeDegrees>
              <LongitudeDegrees>-3.69549502618610858917236328125</LongitudeDegrees>
            </Position>
            <AltitudeMeters>54</AltitudeMeters>
            <DistanceMeters>NAN</DistanceMeters>
          </Trackpoint>
          <Trackpoint>
            <Time>2022-07-13T15:11:39.000Z</Time>
            <Position>
              <LatitudeDegrees>43.47656789235770702362060546875</LatitudeDegrees>
              <LongitudeDegrees>-3.69551681913435459136962890625</LongitudeDegrees>
            </Position>
            <AltitudeMeters>54</AltitudeMeters>
            <DistanceMeters>NAN</DistanceMeters>
          </Trackpoint>
          <Trackpoint>
            <Time>2022-07-13T15:11:43.000Z</Time>
            <Position>
              <LatitudeDegrees>43.47660519182682037353515625</LatitudeDegrees>
              <LongitudeDegrees>-3.695607595145702362060546875</LongitudeDegrees>
            </Position>
            <AltitudeMeters>55.40000152587890625</AltitudeMeters>
            <DistanceMeters>NAN</DistanceMeters>
          </Trackpoint>
          <Trackpoint>
            <Time>2022-07-13T15:11:45.000Z</Time>
            <Position>
              <LatitudeDegrees>43.47662908025085926055908203125</LatitudeDegrees>
              <LongitudeDegrees>-3.69565545581281185150146484375</LongitudeDegrees>
            </Position>
            <AltitudeMeters>56</AltitudeMeters>
            <DistanceMeters>NAN</DistanceMeters>
          </Trackpoint>
          <Trackpoint>
            <Time>2022-07-13T15:11:47.000Z</Time>
            <Position>
              <LatitudeDegrees>43.47665472887456417083740234375</LatitudeDegrees>
              <LongitudeDegrees>-3.695694096386432647705078125</LongitudeDegrees>
            </Position>
            <AltitudeMeters>56.40000152587890625</AltitudeMeters>
            <DistanceMeters>NAN</DistanceMeters>
          </Trackpoint>
          <Trackpoint>
            <Time>2022-07-13T15:11:52.000Z</Time>
            <Position>
              <LatitudeDegrees>43.476715497672557830810546875</LatitudeDegrees>
              <LongitudeDegrees>-3.695786297321319580078125</LongitudeDegrees>
            </Position>
            <AltitudeMeters>57.59999847412109375</AltitudeMeters>
            <DistanceMeters>NAN</DistanceMeters>
          </Trackpoint>
          <Trackpoint>
            <Time>2022-07-13T15:11:54.000Z</Time>
            <Position>
              <LatitudeDegrees>43.476741313934326171875</LatitudeDegrees>
              <LongitudeDegrees>-3.695827536284923553466796875</LongitudeDegrees>
            </Position>
            <AltitudeMeters>58</AltitudeMeters>
            <DistanceMeters>NAN</DistanceMeters>
          </Trackpoint>
          <Trackpoint>
            <Time>2022-07-13T15:12:01.000Z</Time>
            <Position>
              <LatitudeDegrees>43.4768145717680454254150390625</LatitudeDegrees>
              <LongitudeDegrees>-3.69594966061413288116455078125</LongitudeDegrees>
            </Position>
            <AltitudeMeters>58.59999847412109375</AltitudeMeters>
            <DistanceMeters>NAN</DistanceMeters>
          </Trackpoint>
          <Trackpoint>
            <Time>2022-07-13T15:12:03.000Z</Time>
            <Position>
              <LatitudeDegrees>43.47681968472898006439208984375</LatitudeDegrees>
              <LongitudeDegrees>-3.69595737196505069732666015625</LongitudeDegrees>
            </Position>
            <AltitudeMeters>59.200000762939453125</AltitudeMeters>
            <DistanceMeters>NAN</DistanceMeters>
          </Trackpoint>
          <Trackpoint>
            <Time>2022-07-13T15:12:51.000Z</Time>
            <Position>
              <LatitudeDegrees>43.4768554754555225372314453125</LatitudeDegrees>
              <LongitudeDegrees>-3.6960000358521938323974609375</LongitudeDegrees>
            </Position>
            <AltitudeMeters>58</AltitudeMeters>
            <DistanceMeters>NAN</DistanceMeters>
          </Trackpoint>
          <Trackpoint>
            <Time>2022-07-13T15:12:54.000Z</Time>
            <Position>
              <LatitudeDegrees>43.47689830698072910308837890625</LatitudeDegrees>
              <LongitudeDegrees>-3.6960556916892528533935546875</LongitudeDegrees>
            </Position>
            <AltitudeMeters>58.200000762939453125</AltitudeMeters>
            <DistanceMeters>NAN</DistanceMeters>
          </Trackpoint>
          <Trackpoint>
            <Time>2022-07-13T15:12:56.000Z</Time>
            <Position>
              <LatitudeDegrees>43.47692647017538547515869140625</LatitudeDegrees>
              <LongitudeDegrees>-3.69608628563582897186279296875</LongitudeDegrees>
            </Position>
            <AltitudeMeters>58.59999847412109375</AltitudeMeters>
            <DistanceMeters>NAN</DistanceMeters>
          </Trackpoint>
          <Trackpoint>
            <Time>2022-07-13T15:13:02.000Z</Time>
            <Position>
              <LatitudeDegrees>43.4770242869853973388671875</LatitudeDegrees>
              <LongitudeDegrees>-3.69617228396236896514892578125</LongitudeDegrees>
            </Position>
            <AltitudeMeters>59.59999847412109375</AltitudeMeters>
            <DistanceMeters>NAN</DistanceMeters>
          </Trackpoint>
          <Trackpoint>
            <Time>2022-07-13T15:13:03.000Z</Time>
            <Position>
              <LatitudeDegrees>43.4770405478775501251220703125</LatitudeDegrees>
              <LongitudeDegrees>-3.69618393480777740478515625</LongitudeDegrees>
            </Position>
            <AltitudeMeters>59.59999847412109375</AltitudeMeters>
            <DistanceMeters>NAN</DistanceMeters>
          </Trackpoint>
          <Trackpoint>
            <Time>2022-07-13T15:13:04.000Z</Time>
            <Position>
              <LatitudeDegrees>43.4770591557025909423828125</LatitudeDegrees>
              <LongitudeDegrees>-3.696198351681232452392578125</LongitudeDegrees>
            </Position>
            <AltitudeMeters>59.59999847412109375</AltitudeMeters>
            <DistanceMeters>NAN</DistanceMeters>
          </Trackpoint>
          <Trackpoint>
            <Time>2022-07-13T15:13:06.000Z</Time>
            <Position>
              <LatitudeDegrees>43.4770968742668628692626953125</LatitudeDegrees>
              <LongitudeDegrees>-3.6962240003049373626708984375</LongitudeDegrees>
            </Position>
            <AltitudeMeters>60.200000762939453125</AltitudeMeters>
            <DistanceMeters>NAN</DistanceMeters>
          </Trackpoint>
          <Trackpoint>
            <Time>2022-07-13T15:13:08.000Z</Time>
            <Position>
              <LatitudeDegrees>43.477128557860851287841796875</LatitudeDegrees>
              <LongitudeDegrees>-3.69625342078506946563720703125</LongitudeDegrees>
            </Position>
            <AltitudeMeters>60.40000152587890625</AltitudeMeters>
            <DistanceMeters>NAN</DistanceMeters>
          </Trackpoint>
          <Trackpoint>
            <Time>2022-07-13T15:13:10.000Z</Time>
            <Position>
              <LatitudeDegrees>43.4771635942161083221435546875</LatitudeDegrees>
              <LongitudeDegrees>-3.696287535130977630615234375</LongitudeDegrees>
            </Position>
            <AltitudeMeters>61</AltitudeMeters>
            <DistanceMeters>NAN</DistanceMeters>
          </Trackpoint>
          <Trackpoint>
            <Time>2022-07-13T15:13:13.000Z</Time>
            <Position>
              <LatitudeDegrees>43.47720743156969547271728515625</LatitudeDegrees>
              <LongitudeDegrees>-3.696334473788738250732421875</LongitudeDegrees>
            </Position>
            <AltitudeMeters>61.59999847412109375</AltitudeMeters>
            <DistanceMeters>NAN</DistanceMeters>
          </Trackpoint>
          <Trackpoint>
            <Time>2022-07-13T15:13:15.000Z</Time>
            <Position>
              <LatitudeDegrees>43.477234505116939544677734375</LatitudeDegrees>
              <LongitudeDegrees>-3.69636766612529754638671875</LongitudeDegrees>
            </Position>
            <AltitudeMeters>62.200000762939453125</AltitudeMeters>
            <DistanceMeters>NAN</DistanceMeters>
          </Trackpoint>
          <Trackpoint>
            <Time>2022-07-13T15:13:18.000Z</Time>
            <Position>
              <LatitudeDegrees>43.47724867053329944610595703125</LatitudeDegrees>
              <LongitudeDegrees>-3.69638510048389434814453125</LongitudeDegrees>
            </Position>
            <AltitudeMeters>62.799999237060546875</AltitudeMeters>
            <DistanceMeters>NAN</DistanceMeters>
          </Trackpoint>
          <Trackpoint>
            <Time>2022-07-13T15:14:26.000Z</Time>
            <Position>
              <LatitudeDegrees>43.47727834247052669525146484375</LatitudeDegrees>
              <LongitudeDegrees>-3.6964099109172821044921875</LongitudeDegrees>
            </Position>
            <AltitudeMeters>63.799999237060546875</AltitudeMeters>
            <DistanceMeters>NAN</DistanceMeters>
          </Trackpoint>
          <Trackpoint>
            <Time>2022-07-13T15:14:27.000Z</Time>
            <Position>
              <LatitudeDegrees>43.47729544155299663543701171875</LatitudeDegrees>
              <LongitudeDegrees>-3.69642533361911773681640625</LongitudeDegrees>
            </Position>
            <AltitudeMeters>63.799999237060546875</AltitudeMeters>
            <DistanceMeters>NAN</DistanceMeters>
          </Trackpoint>
          <Trackpoint>
            <Time>2022-07-13T15:14:31.000Z</Time>
            <Position>
              <LatitudeDegrees>43.47736618481576442718505859375</LatitudeDegrees>
              <LongitudeDegrees>-3.69648635387420654296875</LongitudeDegrees>
            </Position>
            <AltitudeMeters>64.8000030517578125</AltitudeMeters>
            <DistanceMeters>NAN</DistanceMeters>
          </Trackpoint>
          <Trackpoint>
            <Time>2022-07-13T15:14:33.000Z</Time>
            <Position>
              <LatitudeDegrees>43.4774066694080829620361328125</LatitudeDegrees>
              <LongitudeDegrees>-3.6965086497366428375244140625</LongitudeDegrees>
            </Position>
            <AltitudeMeters>65.59999847412109375</AltitudeMeters>
            <DistanceMeters>NAN</DistanceMeters>
          </Trackpoint>
          <Trackpoint>
            <Time>2022-07-13T15:14:35.000Z</Time>
            <Position>
              <LatitudeDegrees>43.47744883038103580474853515625</LatitudeDegrees>
              <LongitudeDegrees>-3.696523569524288177490234375</LongitudeDegrees>
            </Position>
            <AltitudeMeters>66</AltitudeMeters>
            <DistanceMeters>NAN</DistanceMeters>
          </Trackpoint>
          <Trackpoint>
            <Time>2022-07-13T15:14:37.000Z</Time>
            <Position>
              <LatitudeDegrees>43.47749191336333751678466796875</LatitudeDegrees>
              <LongitudeDegrees>-3.69652130641043186187744140625</LongitudeDegrees>
            </Position>
            <AltitudeMeters>66.1999969482421875</AltitudeMeters>
            <DistanceMeters>NAN</DistanceMeters>
          </Trackpoint>
          <Trackpoint>
            <Time>2022-07-13T15:14:40.000Z</Time>
            <Position>
              <LatitudeDegrees>43.47755695693194866180419921875</LatitudeDegrees>
              <LongitudeDegrees>-3.69650320149958133697509765625</LongitudeDegrees>
            </Position>
            <AltitudeMeters>66.40000152587890625</AltitudeMeters>
            <DistanceMeters>NAN</DistanceMeters>
          </Trackpoint>
          <Trackpoint>
            <Time>2022-07-13T15:14:42.000Z</Time>
            <Position>
              <LatitudeDegrees>43.477602638304233551025390625</LatitudeDegrees>
              <LongitudeDegrees>-3.696491718292236328125</LongitudeDegrees>
            </Position>
            <AltitudeMeters>66.40000152587890625</AltitudeMeters>
            <DistanceMeters>NAN</DistanceMeters>
          </Trackpoint>
          <Trackpoint>
            <Time>2022-07-13T15:14:44.000Z</Time>
            <Position>
              <LatitudeDegrees>43.4776490740478038787841796875</LatitudeDegrees>
              <LongitudeDegrees>-3.6964754574000835418701171875</LongitudeDegrees>
            </Position>
            <AltitudeMeters>66.59999847412109375</AltitudeMeters>
            <DistanceMeters>NAN</DistanceMeters>
          </Trackpoint>
          <Trackpoint>
            <Time>2022-07-13T15:14:47.000Z</Time>
            <Position>
              <LatitudeDegrees>43.47773062996566295623779296875</LatitudeDegrees>
              <LongitudeDegrees>-3.6964501440525054931640625</LongitudeDegrees>
            </Position>
            <AltitudeMeters>66.59999847412109375</AltitudeMeters>
            <DistanceMeters>NAN</DistanceMeters>
          </Trackpoint>
          <Trackpoint>
            <Time>2022-07-13T15:14:50.000Z</Time>
            <Position>
              <LatitudeDegrees>43.477813191711902618408203125</LatitudeDegrees>
              <LongitudeDegrees>-3.6964258365333080291748046875</LongitudeDegrees>
            </Position>
            <AltitudeMeters>67</AltitudeMeters>
            <DistanceMeters>NAN</DistanceMeters>
          </Trackpoint>
          <Trackpoint>
            <Time>2022-07-13T15:14:51.000Z</Time>
            <Position>
              <LatitudeDegrees>43.47784034907817840576171875</LatitudeDegrees>
              <LongitudeDegrees>-3.69641586206853389739990234375</LongitudeDegrees>
            </Position>
            <AltitudeMeters>67.1999969482421875</AltitudeMeters>
            <DistanceMeters>NAN</DistanceMeters>
          </Trackpoint>
          <Trackpoint>
            <Time>2022-07-13T15:14:54.000Z</Time>
            <Position>
              <LatitudeDegrees>43.4779105894267559051513671875</LatitudeDegrees>
              <LongitudeDegrees>-3.69638769887387752532958984375</LongitudeDegrees>
            </Position>
            <AltitudeMeters>67.1999969482421875</AltitudeMeters>
            <DistanceMeters>NAN</DistanceMeters>
          </Trackpoint>
          <Trackpoint>
            <Time>2022-07-13T15:14:57.000Z</Time>
            <Position>
              <LatitudeDegrees>43.47791821695864200592041015625</LatitudeDegrees>
              <LongitudeDegrees>-3.69638535194098949432373046875</LongitudeDegrees>
            </Position>
            <AltitudeMeters>67.1999969482421875</AltitudeMeters>
            <DistanceMeters>NAN</DistanceMeters>
          </Trackpoint>
          <Trackpoint>
            <Time>2022-07-13T15:17:28.000Z</Time>
            <Position>
              <LatitudeDegrees>43.4779367409646511077880859375</LatitudeDegrees>
              <LongitudeDegrees>-3.6963788978755474090576171875</LongitudeDegrees>
            </Position>
            <AltitudeMeters>66.8000030517578125</AltitudeMeters>
            <DistanceMeters>NAN</DistanceMeters>
          </Trackpoint>
          <Trackpoint>
            <Time>2022-07-13T15:17:29.000Z</Time>
            <Position>
              <LatitudeDegrees>43.477951325476169586181640625</LatitudeDegrees>
              <LongitudeDegrees>-3.69637294672429561614990234375</LongitudeDegrees>
            </Position>
            <AltitudeMeters>66.8000030517578125</AltitudeMeters>
            <DistanceMeters>NAN</DistanceMeters>
          </Trackpoint>
          <Trackpoint>
            <Time>2022-07-13T15:17:32.000Z</Time>
            <Position>
              <LatitudeDegrees>43.47800035960972309112548828125</LatitudeDegrees>
              <LongitudeDegrees>-3.69635132141411304473876953125</LongitudeDegrees>
            </Position>
            <AltitudeMeters>68</AltitudeMeters>
            <DistanceMeters>NAN</DistanceMeters>
          </Trackpoint>
          <Trackpoint>
            <Time>2022-07-13T15:17:33.000Z</Time>
            <Position>
              <LatitudeDegrees>43.47801377065479755401611328125</LatitudeDegrees>
              <LongitudeDegrees>-3.69634796865284442901611328125</LongitudeDegrees>
            </Position>
            <AltitudeMeters>68.59999847412109375</AltitudeMeters>
            <DistanceMeters>NAN</DistanceMeters>
          </Trackpoint>
          <Trackpoint>
            <Time>2022-07-13T15:17:37.000Z</Time>
            <Position>
              <LatitudeDegrees>43.47808049060404300689697265625</LatitudeDegrees>
              <LongitudeDegrees>-3.69632282294332981109619140625</LongitudeDegrees>
            </Position>
            <AltitudeMeters>69.59999847412109375</AltitudeMeters>
            <DistanceMeters>NAN</DistanceMeters>
          </Trackpoint>
          <Trackpoint>
            <Time>2022-07-13T15:17:42.000Z</Time>
            <Position>
              <LatitudeDegrees>43.47815358079969882965087890625</LatitudeDegrees>
              <LongitudeDegrees>-3.6962964199483394622802734375</LongitudeDegrees>
            </Position>
            <AltitudeMeters>69.8000030517578125</AltitudeMeters>
            <DistanceMeters>NAN</DistanceMeters>
          </Trackpoint>
          <Trackpoint>
            <Time>2022-07-13T15:17:46.000Z</Time>
            <Position>
              <LatitudeDegrees>43.478167913854122161865234375</LatitudeDegrees>
              <LongitudeDegrees>-3.69628845714032649993896484375</LongitudeDegrees>
            </Position>
            <AltitudeMeters>69.8000030517578125</AltitudeMeters>
            <DistanceMeters>NAN</DistanceMeters>
          </Trackpoint>
          <Trackpoint>
            <Time>2022-07-13T15:18:25.000Z</Time>
            <Position>
              <LatitudeDegrees>43.47820152528584003448486328125</LatitudeDegrees>
              <LongitudeDegrees>-3.6962763033807277679443359375</LongitudeDegrees>
            </Position>
            <AltitudeMeters>69.40000152587890625</AltitudeMeters>
            <DistanceMeters>NAN</DistanceMeters>
          </Trackpoint>
          <Trackpoint>
            <Time>2022-07-13T15:18:29.000Z</Time>
            <Position>
              <LatitudeDegrees>43.4782679937779903411865234375</LatitudeDegrees>
              <LongitudeDegrees>-3.696252666413784027099609375</LongitudeDegrees>
            </Position>
            <AltitudeMeters>69.40000152587890625</AltitudeMeters>
            <DistanceMeters>NAN</DistanceMeters>
          </Trackpoint>
          <Trackpoint>
            <Time>2022-07-13T15:18:33.000Z</Time>
            <Position>
              <LatitudeDegrees>43.4783330373466014862060546875</LatitudeDegrees>
              <LongitudeDegrees>-3.6962360702455043792724609375</LongitudeDegrees>
            </Position>
            <AltitudeMeters>69.40000152587890625</AltitudeMeters>
            <DistanceMeters>NAN</DistanceMeters>
          </Trackpoint>
          <Trackpoint>
            <Time>2022-07-13T15:18:42.000Z</Time>
            <Position>
              <LatitudeDegrees>43.47842783667147159576416015625</LatitudeDegrees>
              <LongitudeDegrees>-3.6962089128792285919189453125</LongitudeDegrees>
            </Position>
            <AltitudeMeters>69.8000030517578125</AltitudeMeters>
            <DistanceMeters>NAN</DistanceMeters>
          </Trackpoint>
          <Trackpoint>
            <Time>2022-07-13T15:19:15.000Z</Time>
            <Position>
              <LatitudeDegrees>43.47844778560101985931396484375</LatitudeDegrees>
              <LongitudeDegrees>-3.696186281740665435791015625</LongitudeDegrees>
            </Position>
            <AltitudeMeters>69.8000030517578125</AltitudeMeters>
            <DistanceMeters>NAN</DistanceMeters>
          </Trackpoint>
          <Trackpoint>
            <Time>2022-07-13T15:19:16.000Z</Time>
            <Position>
              <LatitudeDegrees>43.47846203483641147613525390625</LatitudeDegrees>
              <LongitudeDegrees>-3.69617915712296962738037109375</LongitudeDegrees>
            </Position>
            <AltitudeMeters>69.8000030517578125</AltitudeMeters>
            <DistanceMeters>NAN</DistanceMeters>
          </Trackpoint>
          <Trackpoint>
            <Time>2022-07-13T15:19:18.000Z</Time>
            <Position>
              <LatitudeDegrees>43.47849338315427303314208984375</LatitudeDegrees>
              <LongitudeDegrees>-3.69616876356303691864013671875</LongitudeDegrees>
            </Position>
            <AltitudeMeters>70</AltitudeMeters>
            <DistanceMeters>NAN</DistanceMeters>
          </Trackpoint>
          <Trackpoint>
            <Time>2022-07-13T15:19:23.000Z</Time>
            <Position>
              <LatitudeDegrees>43.47855926491320133209228515625</LatitudeDegrees>
              <LongitudeDegrees>-3.6961344815790653228759765625</LongitudeDegrees>
            </Position>
            <AltitudeMeters>70.1999969482421875</AltitudeMeters>
            <DistanceMeters>NAN</DistanceMeters>
          </Trackpoint>
          <Trackpoint>
            <Time>2022-07-13T15:19:27.000Z</Time>
            <Position>
              <LatitudeDegrees>43.4786056168377399444580078125</LatitudeDegrees>
              <LongitudeDegrees>-3.69612501002848148345947265625</LongitudeDegrees>
            </Position>
            <AltitudeMeters>70.40000152587890625</AltitudeMeters>
            <DistanceMeters>NAN</DistanceMeters>
          </Trackpoint>
          <Trackpoint>
            <Time>2022-07-13T15:19:37.000Z</Time>
            <Position>
              <LatitudeDegrees>43.47873226739466190338134765625</LatitudeDegrees>
              <LongitudeDegrees>-3.69607203640043735504150390625</LongitudeDegrees>
            </Position>
            <AltitudeMeters>70</AltitudeMeters>
            <DistanceMeters>NAN</DistanceMeters>
          </Trackpoint>
          <Trackpoint>
            <Time>2022-07-13T15:19:40.000Z</Time>
            <Position>
              <LatitudeDegrees>43.478734195232391357421875</LatitudeDegrees>
              <LongitudeDegrees>-3.696070276200771331787109375</LongitudeDegrees>
            </Position>
            <AltitudeMeters>70</AltitudeMeters>
            <DistanceMeters>NAN</DistanceMeters>
          </Trackpoint>
          <Trackpoint>
            <Time>2022-07-13T15:19:59.000Z</Time>
            <Position>
              <LatitudeDegrees>43.47876998595893383026123046875</LatitudeDegrees>
              <LongitudeDegrees>-3.69605493731796741485595703125</LongitudeDegrees>
            </Position>
            <AltitudeMeters>69</AltitudeMeters>
            <DistanceMeters>NAN</DistanceMeters>
          </Trackpoint>
          <Trackpoint>
            <Time>2022-07-13T15:20:00.000Z</Time>
            <Position>
              <LatitudeDegrees>43.478789515793323516845703125</LatitudeDegrees>
              <LongitudeDegrees>-3.69604806415736675262451171875</LongitudeDegrees>
            </Position>
            <AltitudeMeters>68.8000030517578125</AltitudeMeters>
            <DistanceMeters>NAN</DistanceMeters>
          </Trackpoint>
          <Trackpoint>
            <Time>2022-07-13T15:20:03.000Z</Time>
            <Position>
              <LatitudeDegrees>43.478856571018695831298828125</LatitudeDegrees>
              <LongitudeDegrees>-3.69602090679109096527099609375</LongitudeDegrees>
            </Position>
            <AltitudeMeters>68.59999847412109375</AltitudeMeters>
            <DistanceMeters>NAN</DistanceMeters>
          </Trackpoint>
          <Trackpoint>
            <Time>2022-07-13T15:20:07.000Z</Time>
            <Position>
              <LatitudeDegrees>43.478933013975620269775390625</LatitudeDegrees>
              <LongitudeDegrees>-3.69598679244518280029296875</LongitudeDegrees>
            </Position>
            <AltitudeMeters>68.1999969482421875</AltitudeMeters>
            <DistanceMeters>NAN</DistanceMeters>
          </Trackpoint>
          <Trackpoint>
            <Time>2022-07-13T15:20:09.000Z</Time>
            <Position>
              <LatitudeDegrees>43.478933013975620269775390625</LatitudeDegrees>
              <LongitudeDegrees>-3.69598679244518280029296875</LongitudeDegrees>
            </Position>
            <AltitudeMeters>68</AltitudeMeters>
            <DistanceMeters>NAN</DistanceMeters>
          </Trackpoint>
          <Trackpoint>
            <Time>2022-07-13T15:20:18.000Z</Time>
            <Position>
              <LatitudeDegrees>43.478973247110843658447265625</LatitudeDegrees>
              <LongitudeDegrees>-3.69600665755569934844970703125</LongitudeDegrees>
            </Position>
            <AltitudeMeters>68</AltitudeMeters>
            <DistanceMeters>NAN</DistanceMeters>
          </Trackpoint>
          <Trackpoint>
            <Time>2022-07-13T15:20:19.000Z</Time>
            <Position>
              <LatitudeDegrees>43.47898506559431552886962890625</LatitudeDegrees>
              <LongitudeDegrees>-3.69602543301880359649658203125</LongitudeDegrees>
            </Position>
            <AltitudeMeters>68.1999969482421875</AltitudeMeters>
            <DistanceMeters>NAN</DistanceMeters>
          </Trackpoint>
          <Trackpoint>
            <Time>2022-07-13T15:20:25.000Z</Time>
            <Position>
              <LatitudeDegrees>43.4790200181305408477783203125</LatitudeDegrees>
              <LongitudeDegrees>-3.6961187236011028289794921875</LongitudeDegrees>
            </Position>
            <AltitudeMeters>67.59999847412109375</AltitudeMeters>
            <DistanceMeters>NAN</DistanceMeters>
          </Trackpoint>
          <Trackpoint>
            <Time>2022-07-13T15:20:26.000Z</Time>
            <Position>
              <LatitudeDegrees>43.4790200181305408477783203125</LatitudeDegrees>
              <LongitudeDegrees>-3.6961187236011028289794921875</LongitudeDegrees>
            </Position>
            <AltitudeMeters>67.59999847412109375</AltitudeMeters>
            <DistanceMeters>NAN</DistanceMeters>
          </Trackpoint>
          <Trackpoint>
            <Time>2022-07-13T15:29:06.000Z</Time>
            <Position>
              <LatitudeDegrees>43.47900400869548320770263671875</LatitudeDegrees>
              <LongitudeDegrees>-3.6961431987583637237548828125</LongitudeDegrees>
            </Position>
            <AltitudeMeters>69.8000030517578125</AltitudeMeters>
            <DistanceMeters>NAN</DistanceMeters>
          </Trackpoint>
          <Trackpoint>
            <Time>2022-07-13T15:29:08.000Z</Time>
            <Position>
              <LatitudeDegrees>43.4789784438908100128173828125</LatitudeDegrees>
              <LongitudeDegrees>-3.69618820957839488983154296875</LongitudeDegrees>
            </Position>
            <AltitudeMeters>69.8000030517578125</AltitudeMeters>
            <DistanceMeters>NAN</DistanceMeters>
          </Trackpoint>
          <Trackpoint>
            <Time>2022-07-13T15:29:10.000Z</Time>
            <Position>
              <LatitudeDegrees>43.4789536334574222564697265625</LatitudeDegrees>
              <LongitudeDegrees>-3.69622777216136455535888671875</LongitudeDegrees>
            </Position>
            <AltitudeMeters>71</AltitudeMeters>
            <DistanceMeters>NAN</DistanceMeters>
          </Trackpoint>
          <Trackpoint>
            <Time>2022-07-13T15:29:12.000Z</Time>
            <Position>
              <LatitudeDegrees>43.478930331766605377197265625</LatitudeDegrees>
              <LongitudeDegrees>-3.696266077458858489990234375</LongitudeDegrees>
            </Position>
            <AltitudeMeters>72.1999969482421875</AltitudeMeters>
            <DistanceMeters>NAN</DistanceMeters>
          </Trackpoint>
          <Trackpoint>
            <Time>2022-07-13T15:29:16.000Z</Time>
            <Position>
              <LatitudeDegrees>43.47888699732720851898193359375</LatitudeDegrees>
              <LongitudeDegrees>-3.6963359825313091278076171875</LongitudeDegrees>
            </Position>
            <AltitudeMeters>72.8000030517578125</AltitudeMeters>
            <DistanceMeters>NAN</DistanceMeters>
          </Trackpoint>
          <Trackpoint>
            <Time>2022-07-13T15:29:24.000Z</Time>
            <Position>
              <LatitudeDegrees>43.4788108058273792266845703125</LatitudeDegrees>
              <LongitudeDegrees>-3.69647319428622722625732421875</LongitudeDegrees>
            </Position>
            <AltitudeMeters>73</AltitudeMeters>
            <DistanceMeters>NAN</DistanceMeters>
          </Trackpoint>
          <Trackpoint>
            <Time>2022-07-13T15:29:25.000Z</Time>
            <Position>
              <LatitudeDegrees>43.47879881970584392547607421875</LatitudeDegrees>
              <LongitudeDegrees>-3.69649414904415607452392578125</LongitudeDegrees>
            </Position>
            <AltitudeMeters>73.1999969482421875</AltitudeMeters>
            <DistanceMeters>NAN</DistanceMeters>
          </Trackpoint>
          <Trackpoint>
            <Time>2022-07-13T15:29:31.000Z</Time>
            <Position>
              <LatitudeDegrees>43.47875607199966907501220703125</LatitudeDegrees>
              <LongitudeDegrees>-3.69662591256201267242431640625</LongitudeDegrees>
            </Position>
            <AltitudeMeters>74.1999969482421875</AltitudeMeters>
            <DistanceMeters>NAN</DistanceMeters>
          </Trackpoint>
          <Trackpoint>
            <Time>2022-07-13T15:29:33.000Z</Time>
            <Position>
              <LatitudeDegrees>43.478745929896831512451171875</LatitudeDegrees>
              <LongitudeDegrees>-3.69666807353496551513671875</LongitudeDegrees>
            </Position>
            <AltitudeMeters>74.1999969482421875</AltitudeMeters>
            <DistanceMeters>NAN</DistanceMeters>
          </Trackpoint>
          <Trackpoint>
            <Time>2022-07-13T15:29:36.000Z</Time>
            <Position>
              <LatitudeDegrees>43.47873377613723278045654296875</LatitudeDegrees>
              <LongitudeDegrees>-3.69673370383679866790771484375</LongitudeDegrees>
            </Position>
            <AltitudeMeters>74</AltitudeMeters>
            <DistanceMeters>NAN</DistanceMeters>
          </Trackpoint>
          <Trackpoint>
            <Time>2022-07-13T15:29:37.000Z</Time>
            <Position>
              <LatitudeDegrees>43.4787301719188690185546875</LatitudeDegrees>
              <LongitudeDegrees>-3.69675851427018642425537109375</LongitudeDegrees>
            </Position>
            <AltitudeMeters>73.8000030517578125</AltitudeMeters>
            <DistanceMeters>NAN</DistanceMeters>
          </Trackpoint>
          <Trackpoint>
            <Time>2022-07-13T15:29:39.000Z</Time>
            <Position>
              <LatitudeDegrees>43.47872707061469554901123046875</LatitudeDegrees>
              <LongitudeDegrees>-3.69680754840373992919921875</LongitudeDegrees>
            </Position>
            <AltitudeMeters>73.59999847412109375</AltitudeMeters>
            <DistanceMeters>NAN</DistanceMeters>
          </Trackpoint>
          <Trackpoint>
            <Time>2022-07-13T15:29:43.000Z</Time>
            <Position>
              <LatitudeDegrees>43.47871215082705020904541015625</LatitudeDegrees>
              <LongitudeDegrees>-3.6969250626862049102783203125</LongitudeDegrees>
            </Position>
            <AltitudeMeters>73.40000152587890625</AltitudeMeters>
            <DistanceMeters>NAN</DistanceMeters>
          </Trackpoint>
          <Trackpoint>
            <Time>2022-07-13T15:29:45.000Z</Time>
            <Position>
              <LatitudeDegrees>43.47871030680835247039794921875</LatitudeDegrees>
              <LongitudeDegrees>-3.69698365218937397003173828125</LongitudeDegrees>
            </Position>
            <AltitudeMeters>73.59999847412109375</AltitudeMeters>
            <DistanceMeters>NAN</DistanceMeters>
          </Trackpoint>
          <Trackpoint>
            <Time>2022-07-13T15:29:51.000Z</Time>
            <Position>
              <LatitudeDegrees>43.47871583886444568634033203125</LatitudeDegrees>
              <LongitudeDegrees>-3.69718867354094982147216796875</LongitudeDegrees>
            </Position>
            <AltitudeMeters>73.59999847412109375</AltitudeMeters>
            <DistanceMeters>NAN</DistanceMeters>
          </Trackpoint>
          <Trackpoint>
            <Time>2022-07-13T15:29:58.000Z</Time>
            <Position>
              <LatitudeDegrees>43.4787326864898204803466796875</LatitudeDegrees>
              <LongitudeDegrees>-3.69740727357566356658935546875</LongitudeDegrees>
            </Position>
            <AltitudeMeters>72.1999969482421875</AltitudeMeters>
            <DistanceMeters>NAN</DistanceMeters>
          </Trackpoint>
          <Trackpoint>
            <Time>2022-07-13T15:29:59.000Z</Time>
            <Position>
              <LatitudeDegrees>43.47873494960367679595947265625</LatitudeDegrees>
              <LongitudeDegrees>-3.6974179185926914215087890625</LongitudeDegrees>
            </Position>
            <AltitudeMeters>72.1999969482421875</AltitudeMeters>
            <DistanceMeters>NAN</DistanceMeters>
          </Trackpoint>
          <Trackpoint>
            <Time>2022-07-13T15:30:04.000Z</Time>
            <Position>
              <LatitudeDegrees>43.47873352468013763427734375</LatitudeDegrees>
              <LongitudeDegrees>-3.69743040762841701507568359375</LongitudeDegrees>
            </Position>
            <AltitudeMeters>71.8000030517578125</AltitudeMeters>
            <DistanceMeters>NAN</DistanceMeters>
          </Trackpoint>
          <Trackpoint>
            <Time>2022-07-13T15:30:10.000Z</Time>
            <Position>
              <LatitudeDegrees>43.47875070758163928985595703125</LatitudeDegrees>
              <LongitudeDegrees>-3.69751657359302043914794921875</LongitudeDegrees>
            </Position>
            <AltitudeMeters>72</AltitudeMeters>
            <DistanceMeters>NAN</DistanceMeters>
          </Trackpoint>
          <Trackpoint>
            <Time>2022-07-13T15:30:12.000Z</Time>
            <Position>
              <LatitudeDegrees>43.47875556908547878265380859375</LatitudeDegrees>
              <LongitudeDegrees>-3.697577007114887237548828125</LongitudeDegrees>
            </Position>
            <AltitudeMeters>72</AltitudeMeters>
            <DistanceMeters>NAN</DistanceMeters>
          </Trackpoint>
          <Trackpoint>
            <Time>2022-07-13T15:30:17.000Z</Time>
            <Position>
              <LatitudeDegrees>43.47875875420868396759033203125</LatitudeDegrees>
              <LongitudeDegrees>-3.6977746523916721343994140625</LongitudeDegrees>
            </Position>
            <AltitudeMeters>71.40000152587890625</AltitudeMeters>
            <DistanceMeters>NAN</DistanceMeters>
          </Trackpoint>
          <Trackpoint>
            <Time>2022-07-13T15:30:18.000Z</Time>
            <Position>
              <LatitudeDegrees>43.4787628613412380218505859375</LatitudeDegrees>
              <LongitudeDegrees>-3.69779166765511035919189453125</LongitudeDegrees>
            </Position>
            <AltitudeMeters>71</AltitudeMeters>
            <DistanceMeters>NAN</DistanceMeters>
          </Trackpoint>
          <Trackpoint>
            <Time>2022-07-13T15:30:20.000Z</Time>
            <Position>
              <LatitudeDegrees>43.47876328043639659881591796875</LatitudeDegrees>
              <LongitudeDegrees>-3.69779803790152072906494140625</LongitudeDegrees>
            </Position>
            <AltitudeMeters>70</AltitudeMeters>
            <DistanceMeters>NAN</DistanceMeters>
          </Trackpoint>
          <Trackpoint>
            <Time>2022-07-13T15:30:21.000Z</Time>
            <Position>
              <LatitudeDegrees>43.47876328043639659881591796875</LatitudeDegrees>
              <LongitudeDegrees>-3.69779803790152072906494140625</LongitudeDegrees>
            </Position>
            <AltitudeMeters>69.8000030517578125</AltitudeMeters>
            <DistanceMeters>NAN</DistanceMeters>
          </Trackpoint>
          <Trackpoint>
            <Time>2022-07-13T15:30:31.000Z</Time>
            <Position>
              <LatitudeDegrees>43.47879580222070217132568359375</LatitudeDegrees>
              <LongitudeDegrees>-3.697893507778644561767578125</LongitudeDegrees>
            </Position>
            <AltitudeMeters>68.8000030517578125</AltitudeMeters>
            <DistanceMeters>NAN</DistanceMeters>
          </Trackpoint>
          <Trackpoint>
            <Time>2022-07-13T15:30:32.000Z</Time>
            <Position>
              <LatitudeDegrees>43.4788034297525882720947265625</LatitudeDegrees>
              <LongitudeDegrees>-3.69793885387480258941650390625</LongitudeDegrees>
            </Position>
            <AltitudeMeters>68.8000030517578125</AltitudeMeters>
            <DistanceMeters>NAN</DistanceMeters>
          </Trackpoint>
          <Trackpoint>
            <Time>2022-07-13T15:30:33.000Z</Time>
            <Position>
              <LatitudeDegrees>43.4788030944764614105224609375</LatitudeDegrees>
              <LongitudeDegrees>-3.6979870498180389404296875</LongitudeDegrees>
            </Position>
            <AltitudeMeters>68.8000030517578125</AltitudeMeters>
            <DistanceMeters>NAN</DistanceMeters>
          </Trackpoint>
          <Trackpoint>
            <Time>2022-07-13T15:30:36.000Z</Time>
            <Position>
              <LatitudeDegrees>43.4787819720804691314697265625</LatitudeDegrees>
              <LongitudeDegrees>-3.6981411091983318328857421875</LongitudeDegrees>
            </Position>
            <AltitudeMeters>68.1999969482421875</AltitudeMeters>
            <DistanceMeters>NAN</DistanceMeters>
          </Trackpoint>
          <Trackpoint>
            <Time>2022-07-13T15:30:38.000Z</Time>
            <Position>
              <LatitudeDegrees>43.4787601791322231292724609375</LatitudeDegrees>
              <LongitudeDegrees>-3.69824655354022979736328125</LongitudeDegrees>
            </Position>
            <AltitudeMeters>67.59999847412109375</AltitudeMeters>
            <DistanceMeters>NAN</DistanceMeters>
          </Trackpoint>
          <Trackpoint>
            <Time>2022-07-13T15:30:42.000Z</Time>
            <Position>
              <LatitudeDegrees>43.47873830236494541168212890625</LatitudeDegrees>
              <LongitudeDegrees>-3.69848049245774745941162109375</LongitudeDegrees>
            </Position>
            <AltitudeMeters>66.1999969482421875</AltitudeMeters>
            <DistanceMeters>NAN</DistanceMeters>
          </Trackpoint>
          <Trackpoint>
            <Time>2022-07-13T15:30:44.000Z</Time>
            <Position>
              <LatitudeDegrees>43.47872287966310977935791015625</LatitudeDegrees>
              <LongitudeDegrees>-3.698626421391963958740234375</LongitudeDegrees>
            </Position>
            <AltitudeMeters>65.59999847412109375</AltitudeMeters>
            <DistanceMeters>NAN</DistanceMeters>
          </Trackpoint>
          <Trackpoint>
            <Time>2022-07-13T15:30:45.000Z</Time>
            <Position>
              <LatitudeDegrees>43.47870997153222560882568359375</LatitudeDegrees>
              <LongitudeDegrees>-3.69870655238628387451171875</LongitudeDegrees>
            </Position>
            <AltitudeMeters>65.1999969482421875</AltitudeMeters>
            <DistanceMeters>NAN</DistanceMeters>
          </Trackpoint>
          <Trackpoint>
            <Time>2022-07-13T15:30:46.000Z</Time>
            <Position>
              <LatitudeDegrees>43.4786914475262165069580078125</LatitudeDegrees>
              <LongitudeDegrees>-3.69878643192350864410400390625</LongitudeDegrees>
            </Position>
            <AltitudeMeters>64.8000030517578125</AltitudeMeters>
            <DistanceMeters>NAN</DistanceMeters>
          </Trackpoint>
          <Trackpoint>
            <Time>2022-07-13T15:30:48.000Z</Time>
            <Position>
              <LatitudeDegrees>43.47863235510885715484619140625</LatitudeDegrees>
              <LongitudeDegrees>-3.69893864728510379791259765625</LongitudeDegrees>
            </Position>
            <AltitudeMeters>64</AltitudeMeters>
            <DistanceMeters>NAN</DistanceMeters>
          </Trackpoint>
          <Trackpoint>
            <Time>2022-07-13T15:30:52.000Z</Time>
            <Position>
              <LatitudeDegrees>43.47849405370652675628662109375</LatitudeDegrees>
              <LongitudeDegrees>-3.69920150376856327056884765625</LongitudeDegrees>
            </Position>
            <AltitudeMeters>62.799999237060546875</AltitudeMeters>
            <DistanceMeters>NAN</DistanceMeters>
          </Trackpoint>
          <Trackpoint>
            <Time>2022-07-13T15:30:54.000Z</Time>
            <Position>
              <LatitudeDegrees>43.4784798882901668548583984375</LatitudeDegrees>
              <LongitudeDegrees>-3.6993427388370037078857421875</LongitudeDegrees>
            </Position>
            <AltitudeMeters>62.40000152587890625</AltitudeMeters>
            <DistanceMeters>NAN</DistanceMeters>
          </Trackpoint>
          <Trackpoint>
            <Time>2022-07-13T15:30:55.000Z</Time>
            <Position>
              <LatitudeDegrees>43.4784832410514354705810546875</LatitudeDegrees>
              <LongitudeDegrees>-3.6993930302560329437255859375</LongitudeDegrees>
            </Position>
            <AltitudeMeters>62</AltitudeMeters>
            <DistanceMeters>NAN</DistanceMeters>
          </Trackpoint>
          <Trackpoint>
            <Time>2022-07-13T15:30:57.000Z</Time>
            <Position>
              <LatitudeDegrees>43.478494472801685333251953125</LatitudeDegrees>
              <LongitudeDegrees>-3.6994580738246440887451171875</LongitudeDegrees>
            </Position>
            <AltitudeMeters>61.799999237060546875</AltitudeMeters>
            <DistanceMeters>NAN</DistanceMeters>
          </Trackpoint>
          <Trackpoint>
            <Time>2022-07-13T15:30:59.000Z</Time>
            <Position>
              <LatitudeDegrees>43.47850059159100055694580078125</LatitudeDegrees>
              <LongitudeDegrees>-3.6995100416243076324462890625</LongitudeDegrees>
            </Position>
            <AltitudeMeters>61.59999847412109375</AltitudeMeters>
            <DistanceMeters>NAN</DistanceMeters>
          </Trackpoint>
          <Trackpoint>
            <Time>2022-07-13T15:31:03.000Z</Time>
            <Position>
              <LatitudeDegrees>43.47848550416529178619384765625</LatitudeDegrees>
              <LongitudeDegrees>-3.6996206827461719512939453125</LongitudeDegrees>
            </Position>
            <AltitudeMeters>62.799999237060546875</AltitudeMeters>
            <DistanceMeters>NAN</DistanceMeters>
          </Trackpoint>
          <Trackpoint>
            <Time>2022-07-13T15:31:06.000Z</Time>
            <Position>
              <LatitudeDegrees>43.4784708358347415924072265625</LatitudeDegrees>
              <LongitudeDegrees>-3.699716068804264068603515625</LongitudeDegrees>
            </Position>
            <AltitudeMeters>63.200000762939453125</AltitudeMeters>
            <DistanceMeters>NAN</DistanceMeters>
          </Trackpoint>
          <Trackpoint>
            <Time>2022-07-13T15:31:12.000Z</Time>
            <Position>
              <LatitudeDegrees>43.47842507064342498779296875</LatitudeDegrees>
              <LongitudeDegrees>-3.69991363026201725006103515625</LongitudeDegrees>
            </Position>
            <AltitudeMeters>63.799999237060546875</AltitudeMeters>
            <DistanceMeters>NAN</DistanceMeters>
          </Trackpoint>
          <Trackpoint>
            <Time>2022-07-13T15:31:13.000Z</Time>
            <Position>
              <LatitudeDegrees>43.4784181974828243255615234375</LatitudeDegrees>
              <LongitudeDegrees>-3.69994682259857654571533203125</LongitudeDegrees>
            </Position>
            <AltitudeMeters>63.799999237060546875</AltitudeMeters>
            <DistanceMeters>NAN</DistanceMeters>
          </Trackpoint>
          <Trackpoint>
            <Time>2022-07-13T15:31:14.000Z</Time>
            <Position>
              <LatitudeDegrees>43.47840973176062107086181640625</LatitudeDegrees>
              <LongitudeDegrees>-3.69998085312545299530029296875</LongitudeDegrees>
            </Position>
            <AltitudeMeters>63.799999237060546875</AltitudeMeters>
            <DistanceMeters>NAN</DistanceMeters>
          </Trackpoint>
          <Trackpoint>
            <Time>2022-07-13T15:31:16.000Z</Time>
            <Position>
              <LatitudeDegrees>43.4783940576016902923583984375</LatitudeDegrees>
              <LongitudeDegrees>-3.700051009654998779296875</LongitudeDegrees>
            </Position>
            <AltitudeMeters>64</AltitudeMeters>
            <DistanceMeters>NAN</DistanceMeters>
          </Trackpoint>
          <Trackpoint>
            <Time>2022-07-13T15:31:19.000Z</Time>
            <Position>
              <LatitudeDegrees>43.47837947309017181396484375</LatitudeDegrees>
              <LongitudeDegrees>-3.7001393549144268035888671875</LongitudeDegrees>
            </Position>
            <AltitudeMeters>64</AltitudeMeters>
            <DistanceMeters>NAN</DistanceMeters>
          </Trackpoint>
          <Trackpoint>
            <Time>2022-07-13T15:31:25.000Z</Time>
            <Position>
              <LatitudeDegrees>43.47835172899067401885986328125</LatitudeDegrees>
              <LongitudeDegrees>-3.70028595440089702606201171875</LongitudeDegrees>
            </Position>
            <AltitudeMeters>65</AltitudeMeters>
            <DistanceMeters>NAN</DistanceMeters>
          </Trackpoint>
          <Trackpoint>
            <Time>2022-07-13T15:31:26.000Z</Time>
            <Position>
              <LatitudeDegrees>43.47834954969584941864013671875</LatitudeDegrees>
              <LongitudeDegrees>-3.7003120221197605133056640625</LongitudeDegrees>
            </Position>
            <AltitudeMeters>65.1999969482421875</AltitudeMeters>
            <DistanceMeters>NAN</DistanceMeters>
          </Trackpoint>
          <Trackpoint>
            <Time>2022-07-13T15:31:33.000Z</Time>
            <Position>
              <LatitudeDegrees>43.4784007631242275238037109375</LatitudeDegrees>
              <LongitudeDegrees>-3.70048410259187221527099609375</LongitudeDegrees>
            </Position>
            <AltitudeMeters>65.59999847412109375</AltitudeMeters>
            <DistanceMeters>NAN</DistanceMeters>
          </Trackpoint>
          <Trackpoint>
            <Time>2022-07-13T15:31:38.000Z</Time>
            <Position>
              <LatitudeDegrees>43.4784793853759765625</LatitudeDegrees>
              <LongitudeDegrees>-3.70068308897316455841064453125</LongitudeDegrees>
            </Position>
            <AltitudeMeters>64.1999969482421875</AltitudeMeters>
            <DistanceMeters>NAN</DistanceMeters>
          </Trackpoint>
          <Trackpoint>
            <Time>2022-07-13T15:31:40.000Z</Time>
            <Position>
              <LatitudeDegrees>43.47849103622138500213623046875</LatitudeDegrees>
              <LongitudeDegrees>-3.70078367181122303009033203125</LongitudeDegrees>
            </Position>
            <AltitudeMeters>63.59999847412109375</AltitudeMeters>
            <DistanceMeters>NAN</DistanceMeters>
          </Trackpoint>
          <Trackpoint>
            <Time>2022-07-13T15:31:43.000Z</Time>
            <Position>
              <LatitudeDegrees>43.47849388606846332550048828125</LatitudeDegrees>
              <LongitudeDegrees>-3.70092549361288547515869140625</LongitudeDegrees>
            </Position>
            <AltitudeMeters>63.200000762939453125</AltitudeMeters>
            <DistanceMeters>NAN</DistanceMeters>
          </Trackpoint>
          <Trackpoint>
            <Time>2022-07-13T15:31:49.000Z</Time>
            <Position>
              <LatitudeDegrees>43.4784849174320697784423828125</LatitudeDegrees>
              <LongitudeDegrees>-3.70113688521087169647216796875</LongitudeDegrees>
            </Position>
            <AltitudeMeters>63</AltitudeMeters>
            <DistanceMeters>NAN</DistanceMeters>
          </Trackpoint>
          <Trackpoint>
            <Time>2022-07-13T15:31:57.000Z</Time>
            <Position>
              <LatitudeDegrees>43.47850260324776172637939453125</LatitudeDegrees>
              <LongitudeDegrees>-3.70135833509266376495361328125</LongitudeDegrees>
            </Position>
            <AltitudeMeters>63.799999237060546875</AltitudeMeters>
            <DistanceMeters>NAN</DistanceMeters>
          </Trackpoint>
          <Trackpoint>
            <Time>2022-07-13T15:32:04.000Z</Time>
            <Position>
              <LatitudeDegrees>43.47858541645109653472900390625</LatitudeDegrees>
              <LongitudeDegrees>-3.70158783160150051116943359375</LongitudeDegrees>
            </Position>
            <AltitudeMeters>63.799999237060546875</AltitudeMeters>
            <DistanceMeters>NAN</DistanceMeters>
          </Trackpoint>
          <Trackpoint>
            <Time>2022-07-13T15:32:12.000Z</Time>
            <Position>
              <LatitudeDegrees>43.47876965068280696868896484375</LatitudeDegrees>
              <LongitudeDegrees>-3.70186544023454189300537109375</LongitudeDegrees>
            </Position>
            <AltitudeMeters>62.799999237060546875</AltitudeMeters>
            <DistanceMeters>NAN</DistanceMeters>
          </Trackpoint>
          <Trackpoint>
            <Time>2022-07-13T15:32:14.000Z</Time>
            <Position>
              <LatitudeDegrees>43.47881508059799671173095703125</LatitudeDegrees>
              <LongitudeDegrees>-3.7019451521337032318115234375</LongitudeDegrees>
            </Position>
            <AltitudeMeters>62.40000152587890625</AltitudeMeters>
            <DistanceMeters>NAN</DistanceMeters>
          </Trackpoint>
          <Trackpoint>
            <Time>2022-07-13T15:32:17.000Z</Time>
            <Position>
              <LatitudeDegrees>43.47885749302804470062255859375</LatitudeDegrees>
              <LongitudeDegrees>-3.7020614929497241973876953125</LongitudeDegrees>
            </Position>
            <AltitudeMeters>62</AltitudeMeters>
            <DistanceMeters>NAN</DistanceMeters>
          </Trackpoint>
          <Trackpoint>
            <Time>2022-07-13T15:32:22.000Z</Time>
            <Position>
              <LatitudeDegrees>43.478879034519195556640625</LatitudeDegrees>
              <LongitudeDegrees>-3.70224078185856342315673828125</LongitudeDegrees>
            </Position>
            <AltitudeMeters>62</AltitudeMeters>
            <DistanceMeters>NAN</DistanceMeters>
          </Trackpoint>
          <Trackpoint>
            <Time>2022-07-13T15:32:23.000Z</Time>
            <Position>
              <LatitudeDegrees>43.47888247109949588775634765625</LatitudeDegrees>
              <LongitudeDegrees>-3.70226793922483921051025390625</LongitudeDegrees>
            </Position>
            <AltitudeMeters>62.40000152587890625</AltitudeMeters>
            <DistanceMeters>NAN</DistanceMeters>
          </Trackpoint>
          <Trackpoint>
            <Time>2022-07-13T15:32:26.000Z</Time>
            <Position>
              <LatitudeDegrees>43.47888641059398651123046875</LatitudeDegrees>
              <LongitudeDegrees>-3.70235544629395008087158203125</LongitudeDegrees>
            </Position>
            <AltitudeMeters>63.40000152587890625</AltitudeMeters>
            <DistanceMeters>NAN</DistanceMeters>
          </Trackpoint>
          <Trackpoint>
            <Time>2022-07-13T15:32:27.000Z</Time>
            <Position>
              <LatitudeDegrees>43.4788852371275424957275390625</LatitudeDegrees>
              <LongitudeDegrees>-3.7023830227553844451904296875</LongitudeDegrees>
            </Position>
            <AltitudeMeters>63.59999847412109375</AltitudeMeters>
            <DistanceMeters>NAN</DistanceMeters>
          </Trackpoint>
          <Trackpoint>
            <Time>2022-07-13T15:32:31.000Z</Time>
            <Position>
              <LatitudeDegrees>43.478888086974620819091796875</LatitudeDegrees>
              <LongitudeDegrees>-3.70249324478209018707275390625</LongitudeDegrees>
            </Position>
            <AltitudeMeters>64.40000152587890625</AltitudeMeters>
            <DistanceMeters>NAN</DistanceMeters>
          </Trackpoint>
          <Trackpoint>
            <Time>2022-07-13T15:32:34.000Z</Time>
            <Position>
              <LatitudeDegrees>43.4788969717919826507568359375</LatitudeDegrees>
              <LongitudeDegrees>-3.702577315270900726318359375</LongitudeDegrees>
            </Position>
            <AltitudeMeters>64.59999847412109375</AltitudeMeters>
            <DistanceMeters>NAN</DistanceMeters>
          </Trackpoint>
          <Trackpoint>
            <Time>2022-07-13T15:32:38.000Z</Time>
            <Position>
              <LatitudeDegrees>43.4789125621318817138671875</LatitudeDegrees>
              <LongitudeDegrees>-3.70269273407757282257080078125</LongitudeDegrees>
            </Position>
            <AltitudeMeters>64.59999847412109375</AltitudeMeters>
            <DistanceMeters>NAN</DistanceMeters>
          </Trackpoint>
          <Trackpoint>
            <Time>2022-07-13T15:32:40.000Z</Time>
            <Position>
              <LatitudeDegrees>43.47892974503338336944580078125</LatitudeDegrees>
              <LongitudeDegrees>-3.702755682170391082763671875</LongitudeDegrees>
            </Position>
            <AltitudeMeters>64.59999847412109375</AltitudeMeters>
            <DistanceMeters>NAN</DistanceMeters>
          </Trackpoint>
          <Trackpoint>
            <Time>2022-07-13T15:32:43.000Z</Time>
            <Position>
              <LatitudeDegrees>43.478951789438724517822265625</LatitudeDegrees>
              <LongitudeDegrees>-3.7028778903186321258544921875</LongitudeDegrees>
            </Position>
            <AltitudeMeters>64</AltitudeMeters>
            <DistanceMeters>NAN</DistanceMeters>
          </Trackpoint>
          <Trackpoint>
            <Time>2022-07-13T15:32:45.000Z</Time>
            <Position>
              <LatitudeDegrees>43.4789616800844669342041015625</LatitudeDegrees>
              <LongitudeDegrees>-3.70298543013632297515869140625</LongitudeDegrees>
            </Position>
            <AltitudeMeters>63.59999847412109375</AltitudeMeters>
            <DistanceMeters>NAN</DistanceMeters>
          </Trackpoint>
          <Trackpoint>
            <Time>2022-07-13T15:32:46.000Z</Time>
            <Position>
              <LatitudeDegrees>43.4789662063121795654296875</LatitudeDegrees>
              <LongitudeDegrees>-3.7030415050685405731201171875</LongitudeDegrees>
            </Position>
            <AltitudeMeters>63.40000152587890625</AltitudeMeters>
            <DistanceMeters>NAN</DistanceMeters>
          </Trackpoint>
          <Trackpoint>
            <Time>2022-07-13T15:32:51.000Z</Time>
            <Position>
              <LatitudeDegrees>43.47896687686443328857421875</LatitudeDegrees>
              <LongitudeDegrees>-3.70331316255033016204833984375</LongitudeDegrees>
            </Position>
            <AltitudeMeters>62.799999237060546875</AltitudeMeters>
            <DistanceMeters>NAN</DistanceMeters>
          </Trackpoint>
          <Trackpoint>
            <Time>2022-07-13T15:33:00.000Z</Time>
            <Position>
              <LatitudeDegrees>43.47889043390750885009765625</LatitudeDegrees>
              <LongitudeDegrees>-3.70370811782777309417724609375</LongitudeDegrees>
            </Position>
            <AltitudeMeters>62.40000152587890625</AltitudeMeters>
            <DistanceMeters>NAN</DistanceMeters>
          </Trackpoint>
          <Trackpoint>
            <Time>2022-07-13T15:33:04.000Z</Time>
            <Position>
              <LatitudeDegrees>43.47884877584874629974365234375</LatitudeDegrees>
              <LongitudeDegrees>-3.703893609344959259033203125</LongitudeDegrees>
            </Position>
            <AltitudeMeters>62.59999847412109375</AltitudeMeters>
            <DistanceMeters>NAN</DistanceMeters>
          </Trackpoint>
          <Trackpoint>
            <Time>2022-07-13T15:33:07.000Z</Time>
            <Position>
              <LatitudeDegrees>43.478825390338897705078125</LatitudeDegrees>
              <LongitudeDegrees>-3.7040488421916961669921875</LongitudeDegrees>
            </Position>
            <AltitudeMeters>62.40000152587890625</AltitudeMeters>
            <DistanceMeters>NAN</DistanceMeters>
          </Trackpoint>
          <Trackpoint>
            <Time>2022-07-13T15:33:08.000Z</Time>
            <Position>
              <LatitudeDegrees>43.478820361196994781494140625</LatitudeDegrees>
              <LongitudeDegrees>-3.7040976248681545257568359375</LongitudeDegrees>
            </Position>
            <AltitudeMeters>62.200000762939453125</AltitudeMeters>
            <DistanceMeters>NAN</DistanceMeters>
          </Trackpoint>
          <Trackpoint>
            <Time>2022-07-13T15:33:11.000Z</Time>
            <Position>
              <LatitudeDegrees>43.47880938090384006500244140625</LatitudeDegrees>
              <LongitudeDegrees>-3.70424321852624416351318359375</LongitudeDegrees>
            </Position>
            <AltitudeMeters>61.799999237060546875</AltitudeMeters>
            <DistanceMeters>NAN</DistanceMeters>
          </Trackpoint>
          <Trackpoint>
            <Time>2022-07-13T15:33:14.000Z</Time>
            <Position>
              <LatitudeDegrees>43.47879965789616107940673828125</LatitudeDegrees>
              <LongitudeDegrees>-3.70442275889217853546142578125</LongitudeDegrees>
            </Position>
            <AltitudeMeters>61</AltitudeMeters>
            <DistanceMeters>NAN</DistanceMeters>
          </Trackpoint>
          <Trackpoint>
            <Time>2022-07-13T15:33:16.000Z</Time>
            <Position>
              <LatitudeDegrees>43.47879177890717983245849609375</LatitudeDegrees>
              <LongitudeDegrees>-3.70456315577030181884765625</LongitudeDegrees>
            </Position>
            <AltitudeMeters>60.799999237060546875</AltitudeMeters>
            <DistanceMeters>NAN</DistanceMeters>
          </Trackpoint>
          <Trackpoint>
            <Time>2022-07-13T15:33:21.000Z</Time>
            <Position>
              <LatitudeDegrees>43.4787072055041790008544921875</LatitudeDegrees>
              <LongitudeDegrees>-3.7049126811325550079345703125</LongitudeDegrees>
            </Position>
            <AltitudeMeters>59.59999847412109375</AltitudeMeters>
            <DistanceMeters>NAN</DistanceMeters>
          </Trackpoint>
          <Trackpoint>
            <Time>2022-07-13T15:33:22.000Z</Time>
            <Position>
              <LatitudeDegrees>43.47868256270885467529296875</LatitudeDegrees>
              <LongitudeDegrees>-3.70497344993054866790771484375</LongitudeDegrees>
            </Position>
            <AltitudeMeters>59.40000152587890625</AltitudeMeters>
            <DistanceMeters>NAN</DistanceMeters>
          </Trackpoint>
          <Trackpoint>
            <Time>2022-07-13T15:33:24.000Z</Time>
            <Position>
              <LatitudeDegrees>43.47862849943339824676513671875</LatitudeDegrees>
              <LongitudeDegrees>-3.70507411658763885498046875</LongitudeDegrees>
            </Position>
            <AltitudeMeters>59.200000762939453125</AltitudeMeters>
            <DistanceMeters>NAN</DistanceMeters>
          </Trackpoint>
          <Trackpoint>
            <Time>2022-07-13T15:33:26.000Z</Time>
            <Position>
              <LatitudeDegrees>43.47857468761503696441650390625</LatitudeDegrees>
              <LongitudeDegrees>-3.705144859850406646728515625</LongitudeDegrees>
            </Position>
            <AltitudeMeters>59.40000152587890625</AltitudeMeters>
            <DistanceMeters>NAN</DistanceMeters>
          </Trackpoint>
          <Trackpoint>
            <Time>2022-07-13T15:33:32.000Z</Time>
            <Position>
              <LatitudeDegrees>43.47845348529517650604248046875</LatitudeDegrees>
              <LongitudeDegrees>-3.70526899583637714385986328125</LongitudeDegrees>
            </Position>
            <AltitudeMeters>60.40000152587890625</AltitudeMeters>
            <DistanceMeters>NAN</DistanceMeters>
          </Trackpoint>
          <Trackpoint>
            <Time>2022-07-13T15:33:37.000Z</Time>
            <Position>
              <LatitudeDegrees>43.47836413420736789703369140625</LatitudeDegrees>
              <LongitudeDegrees>-3.7053632922470569610595703125</LongitudeDegrees>
            </Position>
            <AltitudeMeters>60.799999237060546875</AltitudeMeters>
            <DistanceMeters>NAN</DistanceMeters>
          </Trackpoint>
          <Trackpoint>
            <Time>2022-07-13T15:33:42.000Z</Time>
            <Position>
              <LatitudeDegrees>43.4782948158681392669677734375</LatitudeDegrees>
              <LongitudeDegrees>-3.7054752744734287261962890625</LongitudeDegrees>
            </Position>
            <AltitudeMeters>61.200000762939453125</AltitudeMeters>
            <DistanceMeters>NAN</DistanceMeters>
          </Trackpoint>
          <Trackpoint>
            <Time>2022-07-13T15:33:48.000Z</Time>
            <Position>
              <LatitudeDegrees>43.4782465361058712005615234375</LatitudeDegrees>
              <LongitudeDegrees>-3.705647774040699005126953125</LongitudeDegrees>
            </Position>
            <AltitudeMeters>61.799999237060546875</AltitudeMeters>
            <DistanceMeters>NAN</DistanceMeters>
          </Trackpoint>
          <Trackpoint>
            <Time>2022-07-13T15:33:51.000Z</Time>
            <Position>
              <LatitudeDegrees>43.47821627743542194366455078125</LatitudeDegrees>
              <LongitudeDegrees>-3.70574777014553546905517578125</LongitudeDegrees>
            </Position>
            <AltitudeMeters>61.799999237060546875</AltitudeMeters>
            <DistanceMeters>NAN</DistanceMeters>
          </Trackpoint>
          <Trackpoint>
            <Time>2022-07-13T15:33:55.000Z</Time>
            <Position>
              <LatitudeDegrees>43.4781731106340885162353515625</LatitudeDegrees>
              <LongitudeDegrees>-3.70589755475521087646484375</LongitudeDegrees>
            </Position>
            <AltitudeMeters>61.799999237060546875</AltitudeMeters>
            <DistanceMeters>NAN</DistanceMeters>
          </Trackpoint>
          <Trackpoint>
            <Time>2022-07-13T15:33:57.000Z</Time>
            <Position>
              <LatitudeDegrees>43.478149473667144775390625</LatitudeDegrees>
              <LongitudeDegrees>-3.70594910345971584320068359375</LongitudeDegrees>
            </Position>
            <AltitudeMeters>62</AltitudeMeters>
            <DistanceMeters>NAN</DistanceMeters>
          </Trackpoint>
          <Trackpoint>
            <Time>2022-07-13T15:33:58.000Z</Time>
            <Position>
              <LatitudeDegrees>43.4781372360885143280029296875</LatitudeDegrees>
              <LongitudeDegrees>-3.70597156696021556854248046875</LongitudeDegrees>
            </Position>
            <AltitudeMeters>62</AltitudeMeters>
            <DistanceMeters>NAN</DistanceMeters>
          </Trackpoint>
          <Trackpoint>
            <Time>2022-07-13T15:34:04.000Z</Time>
            <Position>
              <LatitudeDegrees>43.47805098630487918853759765625</LatitudeDegrees>
              <LongitudeDegrees>-3.706128560006618499755859375</LongitudeDegrees>
            </Position>
            <AltitudeMeters>62.799999237060546875</AltitudeMeters>
            <DistanceMeters>NAN</DistanceMeters>
          </Trackpoint>
          <Trackpoint>
            <Time>2022-07-13T15:34:07.000Z</Time>
            <Position>
              <LatitudeDegrees>43.47799834795296192169189453125</LatitudeDegrees>
              <LongitudeDegrees>-3.706178180873394012451171875</LongitudeDegrees>
            </Position>
            <AltitudeMeters>62.799999237060546875</AltitudeMeters>
            <DistanceMeters>NAN</DistanceMeters>
          </Trackpoint>
          <Trackpoint>
            <Time>2022-07-13T15:34:08.000Z</Time>
            <Position>
              <LatitudeDegrees>43.4779816679656505584716796875</LatitudeDegrees>
              <LongitudeDegrees>-3.70619251392781734466552734375</LongitudeDegrees>
            </Position>
            <AltitudeMeters>63</AltitudeMeters>
            <DistanceMeters>NAN</DistanceMeters>
          </Trackpoint>
          <Trackpoint>
            <Time>2022-07-13T15:34:14.000Z</Time>
            <Position>
              <LatitudeDegrees>43.477858789265155792236328125</LatitudeDegrees>
              <LongitudeDegrees>-3.70623459108173847198486328125</LongitudeDegrees>
            </Position>
            <AltitudeMeters>64.1999969482421875</AltitudeMeters>
            <DistanceMeters>NAN</DistanceMeters>
          </Trackpoint>
          <Trackpoint>
            <Time>2022-07-13T15:34:15.000Z</Time>
            <Position>
              <LatitudeDegrees>43.4778374992311000823974609375</LatitudeDegrees>
              <LongitudeDegrees>-3.70624029077589511871337890625</LongitudeDegrees>
            </Position>
            <AltitudeMeters>64.40000152587890625</AltitudeMeters>
            <DistanceMeters>NAN</DistanceMeters>
          </Trackpoint>
          <Trackpoint>
            <Time>2022-07-13T15:34:16.000Z</Time>
            <Position>
              <LatitudeDegrees>43.47781755030155181884765625</LatitudeDegrees>
              <LongitudeDegrees>-3.7062443979084491729736328125</LongitudeDegrees>
            </Position>
            <AltitudeMeters>64.8000030517578125</AltitudeMeters>
            <DistanceMeters>NAN</DistanceMeters>
          </Trackpoint>
          <Trackpoint>
            <Time>2022-07-13T15:34:18.000Z</Time>
            <Position>
              <LatitudeDegrees>43.47777756862342357635498046875</LatitudeDegrees>
              <LongitudeDegrees>-3.70625470764935016632080078125</LongitudeDegrees>
            </Position>
            <AltitudeMeters>65.40000152587890625</AltitudeMeters>
            <DistanceMeters>NAN</DistanceMeters>
          </Trackpoint>
          <Trackpoint>
            <Time>2022-07-13T15:34:22.000Z</Time>
            <Position>
              <LatitudeDegrees>43.47769291140139102935791015625</LatitudeDegrees>
              <LongitudeDegrees>-3.70627247728407382965087890625</LongitudeDegrees>
            </Position>
            <AltitudeMeters>66.1999969482421875</AltitudeMeters>
            <DistanceMeters>NAN</DistanceMeters>
          </Trackpoint>
          <Trackpoint>
            <Time>2022-07-13T15:34:24.000Z</Time>
            <Position>
              <LatitudeDegrees>43.4776497446000576019287109375</LatitudeDegrees>
              <LongitudeDegrees>-3.7062822841107845306396484375</LongitudeDegrees>
            </Position>
            <AltitudeMeters>66.59999847412109375</AltitudeMeters>
            <DistanceMeters>NAN</DistanceMeters>
          </Trackpoint>
          <Trackpoint>
            <Time>2022-07-13T15:34:33.000Z</Time>
            <Position>
              <LatitudeDegrees>43.47745603881776332855224609375</LatitudeDegrees>
              <LongitudeDegrees>-3.7063925899565219879150390625</LongitudeDegrees>
            </Position>
            <AltitudeMeters>67.40000152587890625</AltitudeMeters>
            <DistanceMeters>NAN</DistanceMeters>
          </Trackpoint>
          <Trackpoint>
            <Time>2022-07-13T15:34:37.000Z</Time>
            <Position>
              <LatitudeDegrees>43.47735696472227573394775390625</LatitudeDegrees>
              <LongitudeDegrees>-3.7064279615879058837890625</LongitudeDegrees>
            </Position>
            <AltitudeMeters>67.40000152587890625</AltitudeMeters>
            <DistanceMeters>NAN</DistanceMeters>
          </Trackpoint>
          <Trackpoint>
            <Time>2022-07-13T15:34:38.000Z</Time>
            <Position>
              <LatitudeDegrees>43.47733383066952228546142578125</LatitudeDegrees>
              <LongitudeDegrees>-3.70645872317254543304443359375</LongitudeDegrees>
            </Position>
            <AltitudeMeters>67.40000152587890625</AltitudeMeters>
            <DistanceMeters>NAN</DistanceMeters>
          </Trackpoint>
          <Trackpoint>
            <Time>2022-07-13T15:34:42.000Z</Time>
            <Position>
              <LatitudeDegrees>43.477272056043148040771484375</LatitudeDegrees>
              <LongitudeDegrees>-3.7065743096172809600830078125</LongitudeDegrees>
            </Position>
            <AltitudeMeters>67.59999847412109375</AltitudeMeters>
            <DistanceMeters>NAN</DistanceMeters>
          </Trackpoint>
          <Trackpoint>
            <Time>2022-07-13T15:34:43.000Z</Time>
            <Position>
              <LatitudeDegrees>43.47725671716034412384033203125</LatitudeDegrees>
              <LongitudeDegrees>-3.706600964069366455078125</LongitudeDegrees>
            </Position>
            <AltitudeMeters>67.8000030517578125</AltitudeMeters>
            <DistanceMeters>NAN</DistanceMeters>
          </Trackpoint>
          <Trackpoint>
            <Time>2022-07-13T15:34:49.000Z</Time>
            <Position>
              <LatitudeDegrees>43.4771451540291309356689453125</LatitudeDegrees>
              <LongitudeDegrees>-3.706803135573863983154296875</LongitudeDegrees>
            </Position>
            <AltitudeMeters>68</AltitudeMeters>
            <DistanceMeters>NAN</DistanceMeters>
          </Trackpoint>
          <Trackpoint>
            <Time>2022-07-13T15:34:52.000Z</Time>
            <Position>
              <LatitudeDegrees>43.47709008492529392242431640625</LatitudeDegrees>
              <LongitudeDegrees>-3.706907741725444793701171875</LongitudeDegrees>
            </Position>
            <AltitudeMeters>67.59999847412109375</AltitudeMeters>
            <DistanceMeters>NAN</DistanceMeters>
          </Trackpoint>
          <Trackpoint>
            <Time>2022-07-13T15:34:59.000Z</Time>
            <Position>
              <LatitudeDegrees>43.47697508521378040313720703125</LatitudeDegrees>
              <LongitudeDegrees>-3.70715416967868804931640625</LongitudeDegrees>
            </Position>
            <AltitudeMeters>66.1999969482421875</AltitudeMeters>
            <DistanceMeters>NAN</DistanceMeters>
          </Trackpoint>
          <Trackpoint>
            <Time>2022-07-13T15:35:03.000Z</Time>
            <Position>
              <LatitudeDegrees>43.4768913500010967254638671875</LatitudeDegrees>
              <LongitudeDegrees>-3.7072512321174144744873046875</LongitudeDegrees>
            </Position>
            <AltitudeMeters>65</AltitudeMeters>
            <DistanceMeters>NAN</DistanceMeters>
          </Trackpoint>
          <Trackpoint>
            <Time>2022-07-13T15:35:06.000Z</Time>
            <Position>
              <LatitudeDegrees>43.476831503212451934814453125</LatitudeDegrees>
              <LongitudeDegrees>-3.7073935568332672119140625</LongitudeDegrees>
            </Position>
            <AltitudeMeters>63.40000152587890625</AltitudeMeters>
            <DistanceMeters>NAN</DistanceMeters>
          </Trackpoint>
          <Trackpoint>
            <Time>2022-07-13T15:35:08.000Z</Time>
            <Position>
              <LatitudeDegrees>43.47680392675101757049560546875</LatitudeDegrees>
              <LongitudeDegrees>-3.7075399048626422882080078125</LongitudeDegrees>
            </Position>
            <AltitudeMeters>62.40000152587890625</AltitudeMeters>
            <DistanceMeters>NAN</DistanceMeters>
          </Trackpoint>
          <Trackpoint>
            <Time>2022-07-13T15:35:09.000Z</Time>
            <Position>
              <LatitudeDegrees>43.47679537720978260040283203125</LatitudeDegrees>
              <LongitudeDegrees>-3.70761374942958354949951171875</LongitudeDegrees>
            </Position>
            <AltitudeMeters>62.200000762939453125</AltitudeMeters>
            <DistanceMeters>NAN</DistanceMeters>
          </Trackpoint>
          <Trackpoint>
            <Time>2022-07-13T15:35:10.000Z</Time>
            <Position>
              <LatitudeDegrees>43.47678900696337223052978515625</LatitudeDegrees>
              <LongitudeDegrees>-3.707685582339763641357421875</LongitudeDegrees>
            </Position>
            <AltitudeMeters>62</AltitudeMeters>
            <DistanceMeters>NAN</DistanceMeters>
          </Trackpoint>
          <Trackpoint>
            <Time>2022-07-13T15:35:14.000Z</Time>
            <Position>
              <LatitudeDegrees>43.47676369361579418182373046875</LatitudeDegrees>
              <LongitudeDegrees>-3.70785766281187534332275390625</LongitudeDegrees>
            </Position>
            <AltitudeMeters>62.200000762939453125</AltitudeMeters>
            <DistanceMeters>NAN</DistanceMeters>
          </Trackpoint>
          <Trackpoint>
            <Time>2022-07-13T15:35:20.000Z</Time>
            <Position>
              <LatitudeDegrees>43.47672496922314167022705078125</LatitudeDegrees>
              <LongitudeDegrees>-3.7080518715083599090576171875</LongitudeDegrees>
            </Position>
            <AltitudeMeters>63.200000762939453125</AltitudeMeters>
            <DistanceMeters>NAN</DistanceMeters>
          </Trackpoint>
          <Trackpoint>
            <Time>2022-07-13T15:35:21.000Z</Time>
            <Position>
              <LatitudeDegrees>43.4767200239002704620361328125</LatitudeDegrees>
              <LongitudeDegrees>-3.7080850638449192047119140625</LongitudeDegrees>
            </Position>
            <AltitudeMeters>63.40000152587890625</AltitudeMeters>
            <DistanceMeters>NAN</DistanceMeters>
          </Trackpoint>
          <Trackpoint>
            <Time>2022-07-13T15:35:27.000Z</Time>
            <Position>
              <LatitudeDegrees>43.4767223708331584930419921875</LatitudeDegrees>
              <LongitudeDegrees>-3.70835387147963047027587890625</LongitudeDegrees>
            </Position>
            <AltitudeMeters>63.200000762939453125</AltitudeMeters>
            <DistanceMeters>NAN</DistanceMeters>
          </Trackpoint>
          <Trackpoint>
            <Time>2022-07-13T15:35:28.000Z</Time>
            <Position>
              <LatitudeDegrees>43.47672999836504459381103515625</LatitudeDegrees>
              <LongitudeDegrees>-3.708417154848575592041015625</LongitudeDegrees>
            </Position>
            <AltitudeMeters>62.799999237060546875</AltitudeMeters>
            <DistanceMeters>NAN</DistanceMeters>
          </Trackpoint>
          <Trackpoint>
            <Time>2022-07-13T15:35:29.000Z</Time>
            <Position>
              <LatitudeDegrees>43.4767314232885837554931640625</LatitudeDegrees>
              <LongitudeDegrees>-3.7084783427417278289794921875</LongitudeDegrees>
            </Position>
            <AltitudeMeters>62.40000152587890625</AltitudeMeters>
            <DistanceMeters>NAN</DistanceMeters>
          </Trackpoint>
          <Trackpoint>
            <Time>2022-07-13T15:35:31.000Z</Time>
            <Position>
              <LatitudeDegrees>43.47671776078641414642333984375</LatitudeDegrees>
              <LongitudeDegrees>-3.70859962888062000274658203125</LongitudeDegrees>
            </Position>
            <AltitudeMeters>61.40000152587890625</AltitudeMeters>
            <DistanceMeters>NAN</DistanceMeters>
          </Trackpoint>
          <Trackpoint>
            <Time>2022-07-13T15:35:32.000Z</Time>
            <Position>
              <LatitudeDegrees>43.47670434974133968353271484375</LatitudeDegrees>
              <LongitudeDegrees>-3.7086473219096660614013671875</LongitudeDegrees>
            </Position>
            <AltitudeMeters>61.200000762939453125</AltitudeMeters>
            <DistanceMeters>NAN</DistanceMeters>
          </Trackpoint>
          <Trackpoint>
            <Time>2022-07-13T15:35:36.000Z</Time>
            <Position>
              <LatitudeDegrees>43.4766392223536968231201171875</LatitudeDegrees>
              <LongitudeDegrees>-3.70873407460749149322509765625</LongitudeDegrees>
            </Position>
            <AltitudeMeters>61.200000762939453125</AltitudeMeters>
            <DistanceMeters>NAN</DistanceMeters>
          </Trackpoint>
          <Trackpoint>
            <Time>2022-07-13T15:35:40.000Z</Time>
            <Position>
              <LatitudeDegrees>43.47657107748091220855712890625</LatitudeDegrees>
              <LongitudeDegrees>-3.70880515314638614654541015625</LongitudeDegrees>
            </Position>
            <AltitudeMeters>62.40000152587890625</AltitudeMeters>
            <DistanceMeters>NAN</DistanceMeters>
          </Trackpoint>
          <Trackpoint>
            <Time>2022-07-13T15:35:43.000Z</Time>
            <Position>
              <LatitudeDegrees>43.4765253961086273193359375</LatitudeDegrees>
              <LongitudeDegrees>-3.70888360776007175445556640625</LongitudeDegrees>
            </Position>
            <AltitudeMeters>62.799999237060546875</AltitudeMeters>
            <DistanceMeters>NAN</DistanceMeters>
          </Trackpoint>
          <Trackpoint>
            <Time>2022-07-13T15:35:50.000Z</Time>
            <Position>
              <LatitudeDegrees>43.47649916075170040130615234375</LatitudeDegrees>
              <LongitudeDegrees>-3.7091562710702419281005859375</LongitudeDegrees>
            </Position>
            <AltitudeMeters>62.799999237060546875</AltitudeMeters>
            <DistanceMeters>NAN</DistanceMeters>
          </Trackpoint>
          <Trackpoint>
            <Time>2022-07-13T15:35:55.000Z</Time>
            <Position>
              <LatitudeDegrees>43.47652472555637359619140625</LatitudeDegrees>
              <LongitudeDegrees>-3.709366656839847564697265625</LongitudeDegrees>
            </Position>
            <AltitudeMeters>62.40000152587890625</AltitudeMeters>
            <DistanceMeters>NAN</DistanceMeters>
          </Trackpoint>
          <Trackpoint>
            <Time>2022-07-13T15:35:59.000Z</Time>
            <Position>
              <LatitudeDegrees>43.4765709936618804931640625</LatitudeDegrees>
              <LongitudeDegrees>-3.70956279337406158447265625</LongitudeDegrees>
            </Position>
            <AltitudeMeters>61.40000152587890625</AltitudeMeters>
            <DistanceMeters>NAN</DistanceMeters>
          </Trackpoint>
          <Trackpoint>
            <Time>2022-07-13T15:36:00.000Z</Time>
            <Position>
              <LatitudeDegrees>43.4765654616057872772216796875</LatitudeDegrees>
              <LongitudeDegrees>-3.709622137248516082763671875</LongitudeDegrees>
            </Position>
            <AltitudeMeters>61</AltitudeMeters>
            <DistanceMeters>NAN</DistanceMeters>
          </Trackpoint>
          <Trackpoint>
            <Time>2022-07-13T15:36:04.000Z</Time>
            <Position>
              <LatitudeDegrees>43.47654073499143123626708984375</LatitudeDegrees>
              <LongitudeDegrees>-3.70985792018473148345947265625</LongitudeDegrees>
            </Position>
            <AltitudeMeters>60</AltitudeMeters>
            <DistanceMeters>NAN</DistanceMeters>
          </Trackpoint>
          <Trackpoint>
            <Time>2022-07-13T15:36:06.000Z</Time>
            <Position>
              <LatitudeDegrees>43.47653905861079692840576171875</LatitudeDegrees>
              <LongitudeDegrees>-3.70988641865551471710205078125</LongitudeDegrees>
            </Position>
            <AltitudeMeters>59.59999847412109375</AltitudeMeters>
            <DistanceMeters>NAN</DistanceMeters>
          </Trackpoint>
          <Trackpoint>
            <Time>2022-07-13T15:36:07.000Z</Time>
            <Position>
              <LatitudeDegrees>43.47653905861079692840576171875</LatitudeDegrees>
              <LongitudeDegrees>-3.70988641865551471710205078125</LongitudeDegrees>
            </Position>
            <AltitudeMeters>59.40000152587890625</AltitudeMeters>
            <DistanceMeters>NAN</DistanceMeters>
          </Trackpoint>
          <Trackpoint>
            <Time>2022-07-13T15:36:19.000Z</Time>
            <Position>
              <LatitudeDegrees>43.47655381076037883758544921875</LatitudeDegrees>
              <LongitudeDegrees>-3.70999672450125217437744140625</LongitudeDegrees>
            </Position>
            <AltitudeMeters>58.799999237060546875</AltitudeMeters>
            <DistanceMeters>NAN</DistanceMeters>
          </Trackpoint>
          <Trackpoint>
            <Time>2022-07-13T15:36:20.000Z</Time>
            <Position>
              <LatitudeDegrees>43.4765634499490261077880859375</LatitudeDegrees>
              <LongitudeDegrees>-3.71004517190158367156982421875</LongitudeDegrees>
            </Position>
            <AltitudeMeters>58.799999237060546875</AltitudeMeters>
            <DistanceMeters>NAN</DistanceMeters>
          </Trackpoint>
          <Trackpoint>
            <Time>2022-07-13T15:36:25.000Z</Time>
            <Position>
              <LatitudeDegrees>43.47655699588358402252197265625</LatitudeDegrees>
              <LongitudeDegrees>-3.7102677114307880401611328125</LongitudeDegrees>
            </Position>
            <AltitudeMeters>58.200000762939453125</AltitudeMeters>
            <DistanceMeters>NAN</DistanceMeters>
          </Trackpoint>
          <Trackpoint>
            <Time>2022-07-13T15:36:29.000Z</Time>
            <Position>
              <LatitudeDegrees>43.4764913655817508697509765625</LatitudeDegrees>
              <LongitudeDegrees>-3.71035915799438953399658203125</LongitudeDegrees>
            </Position>
            <AltitudeMeters>58.200000762939453125</AltitudeMeters>
            <DistanceMeters>NAN</DistanceMeters>
          </Trackpoint>
          <Trackpoint>
            <Time>2022-07-13T15:36:31.000Z</Time>
            <Position>
              <LatitudeDegrees>43.4764467738568782806396484375</LatitudeDegrees>
              <LongitudeDegrees>-3.710388243198394775390625</LongitudeDegrees>
            </Position>
            <AltitudeMeters>58.40000152587890625</AltitudeMeters>
            <DistanceMeters>NAN</DistanceMeters>
          </Trackpoint>
          <Trackpoint>
            <Time>2022-07-13T15:36:37.000Z</Time>
            <Position>
              <LatitudeDegrees>43.4762885235249996185302734375</LatitudeDegrees>
              <LongitudeDegrees>-3.7104504369199275970458984375</LongitudeDegrees>
            </Position>
            <AltitudeMeters>58.59999847412109375</AltitudeMeters>
            <DistanceMeters>NAN</DistanceMeters>
          </Trackpoint>
          <Trackpoint>
            <Time>2022-07-13T15:36:42.000Z</Time>
            <Position>
              <LatitudeDegrees>43.476206548511981964111328125</LatitudeDegrees>
              <LongitudeDegrees>-3.7105181626975536346435546875</LongitudeDegrees>
            </Position>
            <AltitudeMeters>59.40000152587890625</AltitudeMeters>
            <DistanceMeters>NAN</DistanceMeters>
          </Trackpoint>
          <Trackpoint>
            <Time>2022-07-13T15:36:44.000Z</Time>
            <Position>
              <LatitudeDegrees>43.47618131898343563079833984375</LatitudeDegrees>
              <LongitudeDegrees>-3.71054850518703460693359375</LongitudeDegrees>
            </Position>
            <AltitudeMeters>60</AltitudeMeters>
            <DistanceMeters>NAN</DistanceMeters>
          </Trackpoint>
          <Trackpoint>
            <Time>2022-07-13T15:36:45.000Z</Time>
            <Position>
              <LatitudeDegrees>43.47616774030029773712158203125</LatitudeDegrees>
              <LongitudeDegrees>-3.7105634249746799468994140625</LongitudeDegrees>
            </Position>
            <AltitudeMeters>60</AltitudeMeters>
            <DistanceMeters>NAN</DistanceMeters>
          </Trackpoint>
          <Trackpoint>
            <Time>2022-07-13T15:36:51.000Z</Time>
            <Position>
              <LatitudeDegrees>43.4760595299303531646728515625</LatitudeDegrees>
              <LongitudeDegrees>-3.7107203342020511627197265625</LongitudeDegrees>
            </Position>
            <AltitudeMeters>59.59999847412109375</AltitudeMeters>
            <DistanceMeters>NAN</DistanceMeters>
          </Trackpoint>
          <Trackpoint>
            <Time>2022-07-13T15:36:57.000Z</Time>
            <Position>
              <LatitudeDegrees>43.4759002737700939178466796875</LatitudeDegrees>
              <LongitudeDegrees>-3.7108162231743335723876953125</LongitudeDegrees>
            </Position>
            <AltitudeMeters>58.799999237060546875</AltitudeMeters>
            <DistanceMeters>NAN</DistanceMeters>
          </Trackpoint>
          <Trackpoint>
            <Time>2022-07-13T15:37:00.000Z</Time>
            <Position>
              <LatitudeDegrees>43.475850485265254974365234375</LatitudeDegrees>
              <LongitudeDegrees>-3.7108856253325939178466796875</LongitudeDegrees>
            </Position>
            <AltitudeMeters>57.59999847412109375</AltitudeMeters>
            <DistanceMeters>NAN</DistanceMeters>
          </Trackpoint>
          <Trackpoint>
            <Time>2022-07-13T15:37:01.000Z</Time>
            <Position>
              <LatitudeDegrees>43.47584336064755916595458984375</LatitudeDegrees>
              <LongitudeDegrees>-3.71090096421539783477783203125</LongitudeDegrees>
            </Position>
            <AltitudeMeters>57.200000762939453125</AltitudeMeters>
            <DistanceMeters>NAN</DistanceMeters>
          </Trackpoint>
          <Trackpoint>
            <Time>2022-07-13T15:37:06.000Z</Time>
            <Position>
              <LatitudeDegrees>43.47581754438579082489013671875</LatitudeDegrees>
              <LongitudeDegrees>-3.7109402753412723541259765625</LongitudeDegrees>
            </Position>
            <AltitudeMeters>56.799999237060546875</AltitudeMeters>
            <DistanceMeters>NAN</DistanceMeters>
          </Trackpoint>
          <Trackpoint>
            <Time>2022-07-13T15:37:11.000Z</Time>
            <Position>
              <LatitudeDegrees>43.4758084081113338470458984375</LatitudeDegrees>
              <LongitudeDegrees>-3.71095075272023677825927734375</LongitudeDegrees>
            </Position>
            <AltitudeMeters>57</AltitudeMeters>
            <DistanceMeters>NAN</DistanceMeters>
          </Trackpoint>
          <Trackpoint>
            <Time>2022-07-13T15:37:26.000Z</Time>
            <Position>
              <LatitudeDegrees>43.4758084081113338470458984375</LatitudeDegrees>
              <LongitudeDegrees>-3.71097438968718051910400390625</LongitudeDegrees>
            </Position>
            <AltitudeMeters>57.200000762939453125</AltitudeMeters>
            <DistanceMeters>NAN</DistanceMeters>
          </Trackpoint>
          <Trackpoint>
            <Time>2022-07-13T15:37:33.000Z</Time>
            <Position>
              <LatitudeDegrees>43.47584604285657405853271484375</LatitudeDegrees>
              <LongitudeDegrees>-3.71118544600903987884521484375</LongitudeDegrees>
            </Position>
            <AltitudeMeters>57.200000762939453125</AltitudeMeters>
            <DistanceMeters>NAN</DistanceMeters>
          </Trackpoint>
          <Trackpoint>
            <Time>2022-07-13T15:37:37.000Z</Time>
            <Position>
              <LatitudeDegrees>43.475896418094635009765625</LatitudeDegrees>
              <LongitudeDegrees>-3.7113516591489315032958984375</LongitudeDegrees>
            </Position>
            <AltitudeMeters>56.799999237060546875</AltitudeMeters>
            <DistanceMeters>NAN</DistanceMeters>
          </Trackpoint>
          <Trackpoint>
            <Time>2022-07-13T15:37:40.000Z</Time>
            <Position>
              <LatitudeDegrees>43.47592793405055999755859375</LatitudeDegrees>
              <LongitudeDegrees>-3.71146992780268192291259765625</LongitudeDegrees>
            </Position>
            <AltitudeMeters>56.40000152587890625</AltitudeMeters>
            <DistanceMeters>NAN</DistanceMeters>
          </Trackpoint>
          <Trackpoint>
            <Time>2022-07-13T15:37:45.000Z</Time>
            <Position>
              <LatitudeDegrees>43.4759354777634143829345703125</LatitudeDegrees>
              <LongitudeDegrees>-3.71166153810918331146240234375</LongitudeDegrees>
            </Position>
            <AltitudeMeters>56</AltitudeMeters>
            <DistanceMeters>NAN</DistanceMeters>
          </Trackpoint>
          <Trackpoint>
            <Time>2022-07-13T15:37:46.000Z</Time>
            <Position>
              <LatitudeDegrees>43.4759287722408771514892578125</LatitudeDegrees>
              <LongitudeDegrees>-3.7117073871195316314697265625</LongitudeDegrees>
            </Position>
            <AltitudeMeters>55.799999237060546875</AltitudeMeters>
            <DistanceMeters>NAN</DistanceMeters>
          </Trackpoint>
          <Trackpoint>
            <Time>2022-07-13T15:37:50.000Z</Time>
            <Position>
              <LatitudeDegrees>43.47588543780148029327392578125</LatitudeDegrees>
              <LongitudeDegrees>-3.7118401564657688140869140625</LongitudeDegrees>
            </Position>
            <AltitudeMeters>55.799999237060546875</AltitudeMeters>
            <DistanceMeters>NAN</DistanceMeters>
          </Trackpoint>
          <Trackpoint>
            <Time>2022-07-13T15:37:51.000Z</Time>
            <Position>
              <LatitudeDegrees>43.47587605006992816925048828125</LatitudeDegrees>
              <LongitudeDegrees>-3.71187360025942325592041015625</LongitudeDegrees>
            </Position>
            <AltitudeMeters>55.799999237060546875</AltitudeMeters>
            <DistanceMeters>NAN</DistanceMeters>
          </Trackpoint>
          <Trackpoint>
            <Time>2022-07-13T15:37:54.000Z</Time>
            <Position>
              <LatitudeDegrees>43.47585207782685756683349609375</LatitudeDegrees>
              <LongitudeDegrees>-3.7119896896183490753173828125</LongitudeDegrees>
            </Position>
            <AltitudeMeters>55.200000762939453125</AltitudeMeters>
            <DistanceMeters>NAN</DistanceMeters>
          </Trackpoint>
          <Trackpoint>
            <Time>2022-07-13T15:37:57.000Z</Time>
            <Position>
              <LatitudeDegrees>43.47580966539680957794189453125</LatitudeDegrees>
              <LongitudeDegrees>-3.712082393467426300048828125</LongitudeDegrees>
            </Position>
            <AltitudeMeters>54.59999847412109375</AltitudeMeters>
            <DistanceMeters>NAN</DistanceMeters>
          </Trackpoint>
          <Trackpoint>
            <Time>2022-07-13T15:37:58.000Z</Time>
            <Position>
              <LatitudeDegrees>43.47578921355307102203369140625</LatitudeDegrees>
              <LongitudeDegrees>-3.71210728771984577178955078125</LongitudeDegrees>
            </Position>
            <AltitudeMeters>54</AltitudeMeters>
            <DistanceMeters>NAN</DistanceMeters>
          </Trackpoint>
          <Trackpoint>
            <Time>2022-07-13T15:38:03.000Z</Time>
            <Position>
              <LatitudeDegrees>43.4756840206682682037353515625</LatitudeDegrees>
              <LongitudeDegrees>-3.712225891649723052978515625</LongitudeDegrees>
            </Position>
            <AltitudeMeters>53</AltitudeMeters>
            <DistanceMeters>NAN</DistanceMeters>
          </Trackpoint>
          <Trackpoint>
            <Time>2022-07-13T15:38:04.000Z</Time>
            <Position>
              <LatitudeDegrees>43.47566700540482997894287109375</LatitudeDegrees>
              <LongitudeDegrees>-3.71225933544337749481201171875</LongitudeDegrees>
            </Position>
            <AltitudeMeters>53</AltitudeMeters>
            <DistanceMeters>NAN</DistanceMeters>
          </Trackpoint>
          <Trackpoint>
            <Time>2022-07-13T15:38:10.000Z</Time>
            <Position>
              <LatitudeDegrees>43.47557924687862396240234375</LatitudeDegrees>
              <LongitudeDegrees>-3.71245765127241611480712890625</LongitudeDegrees>
            </Position>
            <AltitudeMeters>52</AltitudeMeters>
            <DistanceMeters>NAN</DistanceMeters>
          </Trackpoint>
          <Trackpoint>
            <Time>2022-07-13T15:38:11.000Z</Time>
            <Position>
              <LatitudeDegrees>43.47556290216743946075439453125</LatitudeDegrees>
              <LongitudeDegrees>-3.71248581446707248687744140625</LongitudeDegrees>
            </Position>
            <AltitudeMeters>52</AltitudeMeters>
            <DistanceMeters>NAN</DistanceMeters>
          </Trackpoint>
          <Trackpoint>
            <Time>2022-07-13T15:38:17.000Z</Time>
            <Position>
              <LatitudeDegrees>43.475440107285976409912109375</LatitudeDegrees>
              <LongitudeDegrees>-3.712646998465061187744140625</LongitudeDegrees>
            </Position>
            <AltitudeMeters>51.40000152587890625</AltitudeMeters>
            <DistanceMeters>NAN</DistanceMeters>
          </Trackpoint>
          <Trackpoint>
            <Time>2022-07-13T15:38:22.000Z</Time>
            <Position>
              <LatitudeDegrees>43.475408591330051422119140625</LatitudeDegrees>
              <LongitudeDegrees>-3.7128319032490253448486328125</LongitudeDegrees>
            </Position>
            <AltitudeMeters>51.40000152587890625</AltitudeMeters>
            <DistanceMeters>NAN</DistanceMeters>
          </Trackpoint>
          <Trackpoint>
            <Time>2022-07-13T15:38:28.000Z</Time>
            <Position>
              <LatitudeDegrees>43.47539953887462615966796875</LatitudeDegrees>
              <LongitudeDegrees>-3.71298797428607940673828125</LongitudeDegrees>
            </Position>
            <AltitudeMeters>52.200000762939453125</AltitudeMeters>
            <DistanceMeters>NAN</DistanceMeters>
          </Trackpoint>
          <Trackpoint>
            <Time>2022-07-13T15:38:31.000Z</Time>
            <Position>
              <LatitudeDegrees>43.47536240704357624053955078125</LatitudeDegrees>
              <LongitudeDegrees>-3.7130870483815670013427734375</LongitudeDegrees>
            </Position>
            <AltitudeMeters>52.59999847412109375</AltitudeMeters>
            <DistanceMeters>NAN</DistanceMeters>
          </Trackpoint>
          <Trackpoint>
            <Time>2022-07-13T15:38:32.000Z</Time>
            <Position>
              <LatitudeDegrees>43.4753463976085186004638671875</LatitudeDegrees>
              <LongitudeDegrees>-3.71312635950744152069091796875</LongitudeDegrees>
            </Position>
            <AltitudeMeters>52.40000152587890625</AltitudeMeters>
            <DistanceMeters>NAN</DistanceMeters>
          </Trackpoint>
          <Trackpoint>
            <Time>2022-07-13T15:38:38.000Z</Time>
            <Position>
              <LatitudeDegrees>43.4752897359430789947509765625</LatitudeDegrees>
              <LongitudeDegrees>-3.713365495204925537109375</LongitudeDegrees>
            </Position>
            <AltitudeMeters>52.200000762939453125</AltitudeMeters>
            <DistanceMeters>NAN</DistanceMeters>
          </Trackpoint>
          <Trackpoint>
            <Time>2022-07-13T15:38:45.000Z</Time>
            <Position>
              <LatitudeDegrees>43.4751998819410800933837890625</LatitudeDegrees>
              <LongitudeDegrees>-3.7135182134807109832763671875</LongitudeDegrees>
            </Position>
            <AltitudeMeters>53</AltitudeMeters>
            <DistanceMeters>NAN</DistanceMeters>
          </Trackpoint>
          <Trackpoint>
            <Time>2022-07-13T15:38:47.000Z</Time>
            <Position>
              <LatitudeDegrees>43.47517884336411952972412109375</LatitudeDegrees>
              <LongitudeDegrees>-3.71355593204498291015625</LongitudeDegrees>
            </Position>
            <AltitudeMeters>53.40000152587890625</AltitudeMeters>
            <DistanceMeters>NAN</DistanceMeters>
          </Trackpoint>
          <Trackpoint>
            <Time>2022-07-13T15:38:52.000Z</Time>
            <Position>
              <LatitudeDegrees>43.47512033767998218536376953125</LatitudeDegrees>
              <LongitudeDegrees>-3.71366950683295726776123046875</LongitudeDegrees>
            </Position>
            <AltitudeMeters>53.59999847412109375</AltitudeMeters>
            <DistanceMeters>NAN</DistanceMeters>
          </Trackpoint>
          <Trackpoint>
            <Time>2022-07-13T15:38:56.000Z</Time>
            <Position>
              <LatitudeDegrees>43.47512536682188510894775390625</LatitudeDegrees>
              <LongitudeDegrees>-3.713853657245635986328125</LongitudeDegrees>
            </Position>
            <AltitudeMeters>52.799999237060546875</AltitudeMeters>
            <DistanceMeters>NAN</DistanceMeters>
          </Trackpoint>
          <Trackpoint>
            <Time>2022-07-13T15:39:00.000Z</Time>
            <Position>
              <LatitudeDegrees>43.47513140179216861724853515625</LatitudeDegrees>
              <LongitudeDegrees>-3.71414660476148128509521484375</LongitudeDegrees>
            </Position>
            <AltitudeMeters>51.799999237060546875</AltitudeMeters>
            <DistanceMeters>NAN</DistanceMeters>
          </Trackpoint>
          <Trackpoint>
            <Time>2022-07-13T15:39:01.000Z</Time>
            <Position>
              <LatitudeDegrees>43.4751241095364093780517578125</LatitudeDegrees>
              <LongitudeDegrees>-3.7142196111381053924560546875</LongitudeDegrees>
            </Position>
            <AltitudeMeters>51.59999847412109375</AltitudeMeters>
            <DistanceMeters>NAN</DistanceMeters>
          </Trackpoint>
          <Trackpoint>
            <Time>2022-07-13T15:39:04.000Z</Time>
            <Position>
              <LatitudeDegrees>43.47507608123123645782470703125</LatitudeDegrees>
              <LongitudeDegrees>-3.71440778486430644989013671875</LongitudeDegrees>
            </Position>
            <AltitudeMeters>51</AltitudeMeters>
            <DistanceMeters>NAN</DistanceMeters>
          </Trackpoint>
          <Trackpoint>
            <Time>2022-07-13T15:39:05.000Z</Time>
            <Position>
              <LatitudeDegrees>43.4750510193407535552978515625</LatitudeDegrees>
              <LongitudeDegrees>-3.7144690565764904022216796875</LongitudeDegrees>
            </Position>
            <AltitudeMeters>50.799999237060546875</AltitudeMeters>
            <DistanceMeters>NAN</DistanceMeters>
          </Trackpoint>
          <Trackpoint>
            <Time>2022-07-13T15:39:06.000Z</Time>
            <Position>
              <LatitudeDegrees>43.47503283061087131500244140625</LatitudeDegrees>
              <LongitudeDegrees>-3.714535273611545562744140625</LongitudeDegrees>
            </Position>
            <AltitudeMeters>50.59999847412109375</AltitudeMeters>
            <DistanceMeters>NAN</DistanceMeters>
          </Trackpoint>
          <Trackpoint>
            <Time>2022-07-13T15:39:08.000Z</Time>
            <Position>
              <LatitudeDegrees>43.47501304931938648223876953125</LatitudeDegrees>
              <LongitudeDegrees>-3.71467164717614650726318359375</LongitudeDegrees>
            </Position>
            <AltitudeMeters>50.200000762939453125</AltitudeMeters>
            <DistanceMeters>NAN</DistanceMeters>
          </Trackpoint>
          <Trackpoint>
            <Time>2022-07-13T15:39:10.000Z</Time>
            <Position>
              <LatitudeDegrees>43.47497952170670032501220703125</LatitudeDegrees>
              <LongitudeDegrees>-3.714781366288661956787109375</LongitudeDegrees>
            </Position>
            <AltitudeMeters>50</AltitudeMeters>
            <DistanceMeters>NAN</DistanceMeters>
          </Trackpoint>
          <Trackpoint>
            <Time>2022-07-13T15:39:14.000Z</Time>
            <Position>
              <LatitudeDegrees>43.4748917631804943084716796875</LatitudeDegrees>
              <LongitudeDegrees>-3.71488085947930812835693359375</LongitudeDegrees>
            </Position>
            <AltitudeMeters>50.200000762939453125</AltitudeMeters>
            <DistanceMeters>NAN</DistanceMeters>
          </Trackpoint>
          <Trackpoint>
            <Time>2022-07-13T15:39:20.000Z</Time>
            <Position>
              <LatitudeDegrees>43.47477064467966556549072265625</LatitudeDegrees>
              <LongitudeDegrees>-3.71506392024457454681396484375</LongitudeDegrees>
            </Position>
            <AltitudeMeters>50.40000152587890625</AltitudeMeters>
            <DistanceMeters>NAN</DistanceMeters>
          </Trackpoint>
          <Trackpoint>
            <Time>2022-07-13T15:39:21.000Z</Time>
            <Position>
              <LatitudeDegrees>43.47475270740687847137451171875</LatitudeDegrees>
              <LongitudeDegrees>-3.7151184864342212677001953125</LongitudeDegrees>
            </Position>
            <AltitudeMeters>50.200000762939453125</AltitudeMeters>
            <DistanceMeters>NAN</DistanceMeters>
          </Trackpoint>
          <Trackpoint>
            <Time>2022-07-13T15:39:23.000Z</Time>
            <Position>
              <LatitudeDegrees>43.47472764551639556884765625</LatitudeDegrees>
              <LongitudeDegrees>-3.71523457579314708709716796875</LongitudeDegrees>
            </Position>
            <AltitudeMeters>49.799999237060546875</AltitudeMeters>
            <DistanceMeters>NAN</DistanceMeters>
          </Trackpoint>
          <Trackpoint>
            <Time>2022-07-13T15:39:24.000Z</Time>
            <Position>
              <LatitudeDegrees>43.47472890280187129974365234375</LatitudeDegrees>
              <LongitudeDegrees>-3.7152908183634281158447265625</LongitudeDegrees>
            </Position>
            <AltitudeMeters>49.799999237060546875</AltitudeMeters>
            <DistanceMeters>NAN</DistanceMeters>
          </Trackpoint>
          <Trackpoint>
            <Time>2022-07-13T15:39:25.000Z</Time>
            <Position>
              <LatitudeDegrees>43.4747335128486156463623046875</LatitudeDegrees>
              <LongitudeDegrees>-3.7153436243534088134765625</LongitudeDegrees>
            </Position>
            <AltitudeMeters>49.799999237060546875</AltitudeMeters>
            <DistanceMeters>NAN</DistanceMeters>
          </Trackpoint>
          <Trackpoint>
            <Time>2022-07-13T15:39:30.000Z</Time>
            <Position>
              <LatitudeDegrees>43.47472856752574443817138671875</LatitudeDegrees>
              <LongitudeDegrees>-3.7155161239206790924072265625</LongitudeDegrees>
            </Position>
            <AltitudeMeters>50.59999847412109375</AltitudeMeters>
            <DistanceMeters>NAN</DistanceMeters>
          </Trackpoint>
          <Trackpoint>
            <Time>2022-07-13T15:39:31.000Z</Time>
            <Position>
              <LatitudeDegrees>43.4747264720499515533447265625</LatitudeDegrees>
              <LongitudeDegrees>-3.715538084506988525390625</LongitudeDegrees>
            </Position>
            <AltitudeMeters>50.799999237060546875</AltitudeMeters>
            <DistanceMeters>NAN</DistanceMeters>
          </Trackpoint>
          <Trackpoint>
            <Time>2022-07-13T15:39:37.000Z</Time>
            <Position>
              <LatitudeDegrees>43.474691100418567657470703125</LatitudeDegrees>
              <LongitudeDegrees>-3.7157397530972957611083984375</LongitudeDegrees>
            </Position>
            <AltitudeMeters>51.59999847412109375</AltitudeMeters>
            <DistanceMeters>NAN</DistanceMeters>
          </Trackpoint>
          <Trackpoint>
            <Time>2022-07-13T15:39:42.000Z</Time>
            <Position>
              <LatitudeDegrees>43.47459085285663604736328125</LatitudeDegrees>
              <LongitudeDegrees>-3.7158332951366901397705078125</LongitudeDegrees>
            </Position>
            <AltitudeMeters>51.40000152587890625</AltitudeMeters>
            <DistanceMeters>NAN</DistanceMeters>
          </Trackpoint>
          <Trackpoint>
            <Time>2022-07-13T15:39:46.000Z</Time>
            <Position>
              <LatitudeDegrees>43.47443419508635997772216796875</LatitudeDegrees>
              <LongitudeDegrees>-3.715958185493946075439453125</LongitudeDegrees>
            </Position>
            <AltitudeMeters>50.799999237060546875</AltitudeMeters>
            <DistanceMeters>NAN</DistanceMeters>
          </Trackpoint>
          <Trackpoint>
            <Time>2022-07-13T15:39:47.000Z</Time>
            <Position>
              <LatitudeDegrees>43.47439982928335666656494140625</LatitudeDegrees>
              <LongitudeDegrees>-3.71598995290696620941162109375</LongitudeDegrees>
            </Position>
            <AltitudeMeters>50.799999237060546875</AltitudeMeters>
            <DistanceMeters>NAN</DistanceMeters>
          </Trackpoint>
          <Trackpoint>
            <Time>2022-07-13T15:39:50.000Z</Time>
            <Position>
              <LatitudeDegrees>43.4743258170783519744873046875</LatitudeDegrees>
              <LongitudeDegrees>-3.71602867729961872100830078125</LongitudeDegrees>
            </Position>
            <AltitudeMeters>51</AltitudeMeters>
            <DistanceMeters>NAN</DistanceMeters>
          </Trackpoint>
          <Trackpoint>
            <Time>2022-07-13T15:39:51.000Z</Time>
            <Position>
              <LatitudeDegrees>43.474304191768169403076171875</LatitudeDegrees>
              <LongitudeDegrees>-3.71602557599544525146484375</LongitudeDegrees>
            </Position>
            <AltitudeMeters>51.200000762939453125</AltitudeMeters>
            <DistanceMeters>NAN</DistanceMeters>
          </Trackpoint>
          <Trackpoint>
            <Time>2022-07-13T15:39:54.000Z</Time>
            <Position>
              <LatitudeDegrees>43.474249541759490966796875</LatitudeDegrees>
              <LongitudeDegrees>-3.715970925986766815185546875</LongitudeDegrees>
            </Position>
            <AltitudeMeters>51.59999847412109375</AltitudeMeters>
            <DistanceMeters>NAN</DistanceMeters>
          </Trackpoint>
          <Trackpoint>
            <Time>2022-07-13T15:39:55.000Z</Time>
            <Position>
              <LatitudeDegrees>43.4742285870015621185302734375</LatitudeDegrees>
              <LongitudeDegrees>-3.7159566767513751983642578125</LongitudeDegrees>
            </Position>
            <AltitudeMeters>51.799999237060546875</AltitudeMeters>
            <DistanceMeters>NAN</DistanceMeters>
          </Trackpoint>
          <Trackpoint>
            <Time>2022-07-13T15:39:56.000Z</Time>
            <Position>
              <LatitudeDegrees>43.47420461475849151611328125</LatitudeDegrees>
              <LongitudeDegrees>-3.71595139615237712860107421875</LongitudeDegrees>
            </Position>
            <AltitudeMeters>52</AltitudeMeters>
            <DistanceMeters>NAN</DistanceMeters>
          </Trackpoint>
          <Trackpoint>
            <Time>2022-07-13T15:39:58.000Z</Time>
            <Position>
              <LatitudeDegrees>43.47415407188236713409423828125</LatitudeDegrees>
              <LongitudeDegrees>-3.7159576825797557830810546875</LongitudeDegrees>
            </Position>
            <AltitudeMeters>52.200000762939453125</AltitudeMeters>
            <DistanceMeters>NAN</DistanceMeters>
          </Trackpoint>
          <Trackpoint>
            <Time>2022-07-13T15:40:05.000Z</Time>
            <Position>
              <LatitudeDegrees>43.4740133397281169891357421875</LatitudeDegrees>
              <LongitudeDegrees>-3.7160750292241573333740234375</LongitudeDegrees>
            </Position>
            <AltitudeMeters>52.799999237060546875</AltitudeMeters>
            <DistanceMeters>NAN</DistanceMeters>
          </Trackpoint>
          <Trackpoint>
            <Time>2022-07-13T15:40:09.000Z</Time>
            <Position>
              <LatitudeDegrees>43.47396723926067352294921875</LatitudeDegrees>
              <LongitudeDegrees>-3.7162544019520282745361328125</LongitudeDegrees>
            </Position>
            <AltitudeMeters>52.59999847412109375</AltitudeMeters>
            <DistanceMeters>NAN</DistanceMeters>
          </Trackpoint>
          <Trackpoint>
            <Time>2022-07-13T15:40:13.000Z</Time>
            <Position>
              <LatitudeDegrees>43.47396581433713436126708984375</LatitudeDegrees>
              <LongitudeDegrees>-3.71646638028323650360107421875</LongitudeDegrees>
            </Position>
            <AltitudeMeters>52.200000762939453125</AltitudeMeters>
            <DistanceMeters>NAN</DistanceMeters>
          </Trackpoint>
          <Trackpoint>
            <Time>2022-07-13T15:40:14.000Z</Time>
            <Position>
              <LatitudeDegrees>43.473954498767852783203125</LatitudeDegrees>
              <LongitudeDegrees>-3.71652253903448581695556640625</LongitudeDegrees>
            </Position>
            <AltitudeMeters>52</AltitudeMeters>
            <DistanceMeters>NAN</DistanceMeters>
          </Trackpoint>
          <Trackpoint>
            <Time>2022-07-13T15:40:15.000Z</Time>
            <Position>
              <LatitudeDegrees>43.47393681295216083526611328125</LatitudeDegrees>
              <LongitudeDegrees>-3.71657970361411571502685546875</LongitudeDegrees>
            </Position>
            <AltitudeMeters>52</AltitudeMeters>
            <DistanceMeters>NAN</DistanceMeters>
          </Trackpoint>
          <Trackpoint>
            <Time>2022-07-13T15:40:17.000Z</Time>
            <Position>
              <LatitudeDegrees>43.4738966636359691619873046875</LatitudeDegrees>
              <LongitudeDegrees>-3.71669403277337551116943359375</LongitudeDegrees>
            </Position>
            <AltitudeMeters>51.799999237060546875</AltitudeMeters>
            <DistanceMeters>NAN</DistanceMeters>
          </Trackpoint>
          <Trackpoint>
            <Time>2022-07-13T15:40:20.000Z</Time>
            <Position>
              <LatitudeDegrees>43.47385182045400142669677734375</LatitudeDegrees>
              <LongitudeDegrees>-3.71684901416301727294921875</LongitudeDegrees>
            </Position>
            <AltitudeMeters>51.799999237060546875</AltitudeMeters>
            <DistanceMeters>NAN</DistanceMeters>
          </Trackpoint>
          <Trackpoint>
            <Time>2022-07-13T15:40:25.000Z</Time>
            <Position>
              <LatitudeDegrees>43.47381812520325183868408203125</LatitudeDegrees>
              <LongitudeDegrees>-3.717056214809417724609375</LongitudeDegrees>
            </Position>
            <AltitudeMeters>51.59999847412109375</AltitudeMeters>
            <DistanceMeters>NAN</DistanceMeters>
          </Trackpoint>
          <Trackpoint>
            <Time>2022-07-13T15:40:28.000Z</Time>
            <Position>
              <LatitudeDegrees>43.47377940081059932708740234375</LatitudeDegrees>
              <LongitudeDegrees>-3.71723701246082782745361328125</LongitudeDegrees>
            </Position>
            <AltitudeMeters>50.799999237060546875</AltitudeMeters>
            <DistanceMeters>NAN</DistanceMeters>
          </Trackpoint>
          <Trackpoint>
            <Time>2022-07-13T15:40:29.000Z</Time>
            <Position>
              <LatitudeDegrees>43.473768420517444610595703125</LatitudeDegrees>
              <LongitudeDegrees>-3.71729870326817035675048828125</LongitudeDegrees>
            </Position>
            <AltitudeMeters>50.799999237060546875</AltitudeMeters>
            <DistanceMeters>NAN</DistanceMeters>
          </Trackpoint>
          <Trackpoint>
            <Time>2022-07-13T15:40:31.000Z</Time>
            <Position>
              <LatitudeDegrees>43.47374889068305492401123046875</LatitudeDegrees>
              <LongitudeDegrees>-3.717419989407062530517578125</LongitudeDegrees>
            </Position>
            <AltitudeMeters>50.59999847412109375</AltitudeMeters>
            <DistanceMeters>NAN</DistanceMeters>
          </Trackpoint>
          <Trackpoint>
            <Time>2022-07-13T15:40:38.000Z</Time>
            <Position>
              <LatitudeDegrees>43.47366305999457836151123046875</LatitudeDegrees>
              <LongitudeDegrees>-3.71777446009218692779541015625</LongitudeDegrees>
            </Position>
            <AltitudeMeters>50.40000152587890625</AltitudeMeters>
            <DistanceMeters>NAN</DistanceMeters>
          </Trackpoint>
          <Trackpoint>
            <Time>2022-07-13T15:40:43.000Z</Time>
            <Position>
              <LatitudeDegrees>43.47365476191043853759765625</LatitudeDegrees>
              <LongitudeDegrees>-3.71794008649885654449462890625</LongitudeDegrees>
            </Position>
            <AltitudeMeters>51</AltitudeMeters>
            <DistanceMeters>NAN</DistanceMeters>
          </Trackpoint>
          <Trackpoint>
            <Time>2022-07-13T15:40:47.000Z</Time>
            <Position>
              <LatitudeDegrees>43.4736455418169498443603515625</LatitudeDegrees>
              <LongitudeDegrees>-3.71811493299901485443115234375</LongitudeDegrees>
            </Position>
            <AltitudeMeters>51</AltitudeMeters>
            <DistanceMeters>NAN</DistanceMeters>
          </Trackpoint>
          <Trackpoint>
            <Time>2022-07-13T15:40:49.000Z</Time>
            <Position>
              <LatitudeDegrees>43.47365048713982105255126953125</LatitudeDegrees>
              <LongitudeDegrees>-3.71818877756595611572265625</LongitudeDegrees>
            </Position>
            <AltitudeMeters>51</AltitudeMeters>
            <DistanceMeters>NAN</DistanceMeters>
          </Trackpoint>
          <Trackpoint>
            <Time>2022-07-13T15:40:54.000Z</Time>
            <Position>
              <LatitudeDegrees>43.47366456873714923858642578125</LatitudeDegrees>
              <LongitudeDegrees>-3.71834836900234222412109375</LongitudeDegrees>
            </Position>
            <AltitudeMeters>52</AltitudeMeters>
            <DistanceMeters>NAN</DistanceMeters>
          </Trackpoint>
          <Trackpoint>
            <Time>2022-07-13T15:40:56.000Z</Time>
            <Position>
              <LatitudeDegrees>43.47368015907704830169677734375</LatitudeDegrees>
              <LongitudeDegrees>-3.7183867581188678741455078125</LongitudeDegrees>
            </Position>
            <AltitudeMeters>52.200000762939453125</AltitudeMeters>
            <DistanceMeters>NAN</DistanceMeters>
          </Trackpoint>
          <Trackpoint>
            <Time>2022-07-13T15:40:59.000Z</Time>
            <Position>
              <LatitudeDegrees>43.473697341978549957275390625</LatitudeDegrees>
              <LongitudeDegrees>-3.7184689007699489593505859375</LongitudeDegrees>
            </Position>
            <AltitudeMeters>52.200000762939453125</AltitudeMeters>
            <DistanceMeters>NAN</DistanceMeters>
          </Trackpoint>
          <Trackpoint>
            <Time>2022-07-13T15:41:02.000Z</Time>
            <Position>
              <LatitudeDegrees>43.4737144410610198974609375</LatitudeDegrees>
              <LongitudeDegrees>-3.718592114746570587158203125</LongitudeDegrees>
            </Position>
            <AltitudeMeters>52.200000762939453125</AltitudeMeters>
            <DistanceMeters>NAN</DistanceMeters>
          </Trackpoint>
          <Trackpoint>
            <Time>2022-07-13T15:41:10.000Z</Time>
            <Position>
              <LatitudeDegrees>43.47381209023296833038330078125</LatitudeDegrees>
              <LongitudeDegrees>-3.718939125537872314453125</LongitudeDegrees>
            </Position>
            <AltitudeMeters>51.200000762939453125</AltitudeMeters>
            <DistanceMeters>NAN</DistanceMeters>
          </Trackpoint>
          <Trackpoint>
            <Time>2022-07-13T15:41:13.000Z</Time>
            <Position>
              <LatitudeDegrees>43.47381544299423694610595703125</LatitudeDegrees>
              <LongitudeDegrees>-3.719095028936862945556640625</LongitudeDegrees>
            </Position>
            <AltitudeMeters>50.799999237060546875</AltitudeMeters>
            <DistanceMeters>NAN</DistanceMeters>
          </Trackpoint>
          <Trackpoint>
            <Time>2022-07-13T15:41:16.000Z</Time>
            <Position>
              <LatitudeDegrees>43.4737950749695301055908203125</LatitudeDegrees>
              <LongitudeDegrees>-3.7192380242049694061279296875</LongitudeDegrees>
            </Position>
            <AltitudeMeters>50.59999847412109375</AltitudeMeters>
            <DistanceMeters>NAN</DistanceMeters>
          </Trackpoint>
          <Trackpoint>
            <Time>2022-07-13T15:41:18.000Z</Time>
            <Position>
              <LatitudeDegrees>43.473755680024623870849609375</LatitudeDegrees>
              <LongitudeDegrees>-3.7193262018263339996337890625</LongitudeDegrees>
            </Position>
            <AltitudeMeters>50.40000152587890625</AltitudeMeters>
            <DistanceMeters>NAN</DistanceMeters>
          </Trackpoint>
          <Trackpoint>
            <Time>2022-07-13T15:41:24.000Z</Time>
            <Position>
              <LatitudeDegrees>43.47366775386035442352294921875</LatitudeDegrees>
              <LongitudeDegrees>-3.71955041773617267608642578125</LongitudeDegrees>
            </Position>
            <AltitudeMeters>50.200000762939453125</AltitudeMeters>
            <DistanceMeters>NAN</DistanceMeters>
          </Trackpoint>
          <Trackpoint>
            <Time>2022-07-13T15:41:33.000Z</Time>
            <Position>
              <LatitudeDegrees>43.4735052287578582763671875</LatitudeDegrees>
              <LongitudeDegrees>-3.71986725367605686187744140625</LongitudeDegrees>
            </Position>
            <AltitudeMeters>50.200000762939453125</AltitudeMeters>
            <DistanceMeters>NAN</DistanceMeters>
          </Trackpoint>
          <Trackpoint>
            <Time>2022-07-13T15:41:36.000Z</Time>
            <Position>
              <LatitudeDegrees>43.47345870919525623321533203125</LatitudeDegrees>
              <LongitudeDegrees>-3.7199556827545166015625</LongitudeDegrees>
            </Position>
            <AltitudeMeters>50.40000152587890625</AltitudeMeters>
            <DistanceMeters>NAN</DistanceMeters>
          </Trackpoint>
          <Trackpoint>
            <Time>2022-07-13T15:41:40.000Z</Time>
            <Position>
              <LatitudeDegrees>43.47339081577956676483154296875</LatitudeDegrees>
              <LongitudeDegrees>-3.72005500830709934234619140625</LongitudeDegrees>
            </Position>
            <AltitudeMeters>50.40000152587890625</AltitudeMeters>
            <DistanceMeters>NAN</DistanceMeters>
          </Trackpoint>
          <Trackpoint>
            <Time>2022-07-13T15:41:41.000Z</Time>
            <Position>
              <LatitudeDegrees>43.47337958402931690216064453125</LatitudeDegrees>
              <LongitudeDegrees>-3.7200758792459964752197265625</LongitudeDegrees>
            </Position>
            <AltitudeMeters>50.40000152587890625</AltitudeMeters>
            <DistanceMeters>NAN</DistanceMeters>
          </Trackpoint>
          <Trackpoint>
            <Time>2022-07-13T15:41:47.000Z</Time>
            <Position>
              <LatitudeDegrees>43.473283946514129638671875</LatitudeDegrees>
              <LongitudeDegrees>-3.7202529050409793853759765625</LongitudeDegrees>
            </Position>
            <AltitudeMeters>50.40000152587890625</AltitudeMeters>
            <DistanceMeters>NAN</DistanceMeters>
          </Trackpoint>
          <Trackpoint>
            <Time>2022-07-13T15:41:54.000Z</Time>
            <Position>
              <LatitudeDegrees>43.47318805754184722900390625</LatitudeDegrees>
              <LongitudeDegrees>-3.72050327248871326446533203125</LongitudeDegrees>
            </Position>
            <AltitudeMeters>50.200000762939453125</AltitudeMeters>
            <DistanceMeters>NAN</DistanceMeters>
          </Trackpoint>
          <Trackpoint>
            <Time>2022-07-13T15:42:00.000Z</Time>
            <Position>
              <LatitudeDegrees>43.47317640669643878936767578125</LatitudeDegrees>
              <LongitudeDegrees>-3.7207196094095706939697265625</LongitudeDegrees>
            </Position>
            <AltitudeMeters>50.799999237060546875</AltitudeMeters>
            <DistanceMeters>NAN</DistanceMeters>
          </Trackpoint>
          <Trackpoint>
            <Time>2022-07-13T15:42:07.000Z</Time>
            <Position>
              <LatitudeDegrees>43.47321831621229648590087890625</LatitudeDegrees>
              <LongitudeDegrees>-3.72094399295747280120849609375</LongitudeDegrees>
            </Position>
            <AltitudeMeters>51.40000152587890625</AltitudeMeters>
            <DistanceMeters>NAN</DistanceMeters>
          </Trackpoint>
          <Trackpoint>
            <Time>2022-07-13T15:42:08.000Z</Time>
            <Position>
              <LatitudeDegrees>43.47321756184101104736328125</LatitudeDegrees>
              <LongitudeDegrees>-3.72098674066364765167236328125</LongitudeDegrees>
            </Position>
            <AltitudeMeters>51.200000762939453125</AltitudeMeters>
            <DistanceMeters>NAN</DistanceMeters>
          </Trackpoint>
          <Trackpoint>
            <Time>2022-07-13T15:42:11.000Z</Time>
            <Position>
              <LatitudeDegrees>43.47317037172615528106689453125</LatitudeDegrees>
              <LongitudeDegrees>-3.7211219407618045806884765625</LongitudeDegrees>
            </Position>
            <AltitudeMeters>50.40000152587890625</AltitudeMeters>
            <DistanceMeters>NAN</DistanceMeters>
          </Trackpoint>
          <Trackpoint>
            <Time>2022-07-13T15:42:12.000Z</Time>
            <Position>
              <LatitudeDegrees>43.47314774058759212493896484375</LatitudeDegrees>
              <LongitudeDegrees>-3.72116125188767910003662109375</LongitudeDegrees>
            </Position>
            <AltitudeMeters>50.40000152587890625</AltitudeMeters>
            <DistanceMeters>NAN</DistanceMeters>
          </Trackpoint>
          <Trackpoint>
            <Time>2022-07-13T15:42:16.000Z</Time>
            <Position>
              <LatitudeDegrees>43.473071716725826263427734375</LatitudeDegrees>
              <LongitudeDegrees>-3.72131614945828914642333984375</LongitudeDegrees>
            </Position>
            <AltitudeMeters>49.59999847412109375</AltitudeMeters>
            <DistanceMeters>NAN</DistanceMeters>
          </Trackpoint>
          <Trackpoint>
            <Time>2022-07-13T15:42:18.000Z</Time>
            <Position>
              <LatitudeDegrees>43.47304296679794788360595703125</LatitudeDegrees>
              <LongitudeDegrees>-3.721393682062625885009765625</LongitudeDegrees>
            </Position>
            <AltitudeMeters>49.40000152587890625</AltitudeMeters>
            <DistanceMeters>NAN</DistanceMeters>
          </Trackpoint>
          <Trackpoint>
            <Time>2022-07-13T15:42:22.000Z</Time>
            <Position>
              <LatitudeDegrees>43.47300977446138858795166015625</LatitudeDegrees>
              <LongitudeDegrees>-3.72157246805727481842041015625</LongitudeDegrees>
            </Position>
            <AltitudeMeters>48.200000762939453125</AltitudeMeters>
            <DistanceMeters>NAN</DistanceMeters>
          </Trackpoint>
          <Trackpoint>
            <Time>2022-07-13T15:42:24.000Z</Time>
            <Position>
              <LatitudeDegrees>43.47300441004335880279541015625</LatitudeDegrees>
              <LongitudeDegrees>-3.7216694466769695281982421875</LongitudeDegrees>
            </Position>
            <AltitudeMeters>47.799999237060546875</AltitudeMeters>
            <DistanceMeters>NAN</DistanceMeters>
          </Trackpoint>
          <Trackpoint>
            <Time>2022-07-13T15:42:29.000Z</Time>
            <Position>
              <LatitudeDegrees>43.47299066372215747833251953125</LatitudeDegrees>
              <LongitudeDegrees>-3.7219266034662723541259765625</LongitudeDegrees>
            </Position>
            <AltitudeMeters>47.200000762939453125</AltitudeMeters>
            <DistanceMeters>NAN</DistanceMeters>
          </Trackpoint>
          <Trackpoint>
            <Time>2022-07-13T15:42:32.000Z</Time>
            <Position>
              <LatitudeDegrees>43.47297591157257556915283203125</LatitudeDegrees>
              <LongitudeDegrees>-3.72205425985157489776611328125</LongitudeDegrees>
            </Position>
            <AltitudeMeters>47</AltitudeMeters>
            <DistanceMeters>NAN</DistanceMeters>
          </Trackpoint>
          <Trackpoint>
            <Time>2022-07-13T15:42:33.000Z</Time>
            <Position>
              <LatitudeDegrees>43.4729634225368499755859375</LatitudeDegrees>
              <LongitudeDegrees>-3.722095079720020294189453125</LongitudeDegrees>
            </Position>
            <AltitudeMeters>46.799999237060546875</AltitudeMeters>
            <DistanceMeters>NAN</DistanceMeters>
          </Trackpoint>
          <Trackpoint>
            <Time>2022-07-13T15:42:35.000Z</Time>
            <Position>
              <LatitudeDegrees>43.472940288484096527099609375</LatitudeDegrees>
              <LongitudeDegrees>-3.72217127121984958648681640625</LongitudeDegrees>
            </Position>
            <AltitudeMeters>46.799999237060546875</AltitudeMeters>
            <DistanceMeters>NAN</DistanceMeters>
          </Trackpoint>
          <Trackpoint>
            <Time>2022-07-13T15:42:38.000Z</Time>
            <Position>
              <LatitudeDegrees>43.47293668426573276519775390625</LatitudeDegrees>
              <LongitudeDegrees>-3.7221887893974781036376953125</LongitudeDegrees>
            </Position>
            <AltitudeMeters>46.59999847412109375</AltitudeMeters>
            <DistanceMeters>NAN</DistanceMeters>
          </Trackpoint>
          <Trackpoint>
            <Time>2022-07-13T15:42:40.000Z</Time>
            <Position>
              <LatitudeDegrees>43.4729607403278350830078125</LatitudeDegrees>
              <LongitudeDegrees>-3.7221696786582469940185546875</LongitudeDegrees>
            </Position>
            <AltitudeMeters>46.40000152587890625</AltitudeMeters>
            <DistanceMeters>NAN</DistanceMeters>
          </Trackpoint>
          <Trackpoint>
            <Time>2022-07-13T15:42:42.000Z</Time>
            <Position>
              <LatitudeDegrees>43.4729821979999542236328125</LatitudeDegrees>
              <LongitudeDegrees>-3.7221537530422210693359375</LongitudeDegrees>
            </Position>
            <AltitudeMeters>46.40000152587890625</AltitudeMeters>
            <DistanceMeters>NAN</DistanceMeters>
          </Trackpoint>
          <Trackpoint>
            <Time>2022-07-13T15:42:48.000Z</Time>
            <Position>
              <LatitudeDegrees>43.4730115346610546112060546875</LatitudeDegrees>
              <LongitudeDegrees>-3.72215903364121913909912109375</LongitudeDegrees>
            </Position>
            <AltitudeMeters>46.59999847412109375</AltitudeMeters>
            <DistanceMeters>NAN</DistanceMeters>
          </Trackpoint>
          <Trackpoint>
            <Time>2022-07-13T15:43:34.000Z</Time>
            <Position>
              <LatitudeDegrees>43.4729411266744136810302734375</LatitudeDegrees>
              <LongitudeDegrees>-3.72220806777477264404296875</LongitudeDegrees>
            </Position>
            <AltitudeMeters>46.59999847412109375</AltitudeMeters>
            <DistanceMeters>NAN</DistanceMeters>
          </Trackpoint>
          <Trackpoint>
            <Time>2022-07-13T15:43:35.000Z</Time>
            <Position>
              <LatitudeDegrees>43.472928218543529510498046875</LatitudeDegrees>
              <LongitudeDegrees>-3.7222330458462238311767578125</LongitudeDegrees>
            </Position>
            <AltitudeMeters>46.59999847412109375</AltitudeMeters>
            <DistanceMeters>NAN</DistanceMeters>
          </Trackpoint>
          <Trackpoint>
            <Time>2022-07-13T15:43:36.000Z</Time>
            <Position>
              <LatitudeDegrees>43.4729122929275035858154296875</LatitudeDegrees>
              <LongitudeDegrees>-3.722260706126689910888671875</LongitudeDegrees>
            </Position>
            <AltitudeMeters>46.59999847412109375</AltitudeMeters>
            <DistanceMeters>NAN</DistanceMeters>
          </Trackpoint>
          <Trackpoint>
            <Time>2022-07-13T15:43:41.000Z</Time>
            <Position>
              <LatitudeDegrees>43.47279083915054798126220703125</LatitudeDegrees>
              <LongitudeDegrees>-3.72245457954704761505126953125</LongitudeDegrees>
            </Position>
            <AltitudeMeters>46.40000152587890625</AltitudeMeters>
            <DistanceMeters>NAN</DistanceMeters>
          </Trackpoint>
          <Trackpoint>
            <Time>2022-07-13T15:43:43.000Z</Time>
            <Position>
              <LatitudeDegrees>43.47274951636791229248046875</LatitudeDegrees>
              <LongitudeDegrees>-3.722536973655223846435546875</LongitudeDegrees>
            </Position>
            <AltitudeMeters>46.200000762939453125</AltitudeMeters>
            <DistanceMeters>NAN</DistanceMeters>
          </Trackpoint>
          <Trackpoint>
            <Time>2022-07-13T15:43:46.000Z</Time>
            <Position>
              <LatitudeDegrees>43.47269293852150440216064453125</LatitudeDegrees>
              <LongitudeDegrees>-3.7226575054228305816650390625</LongitudeDegrees>
            </Position>
            <AltitudeMeters>46.200000762939453125</AltitudeMeters>
            <DistanceMeters>NAN</DistanceMeters>
          </Trackpoint>
          <Trackpoint>
            <Time>2022-07-13T15:43:48.000Z</Time>
            <Position>
              <LatitudeDegrees>43.4726594947278499603271484375</LatitudeDegrees>
              <LongitudeDegrees>-3.7227386422455310821533203125</LongitudeDegrees>
            </Position>
            <AltitudeMeters>46.200000762939453125</AltitudeMeters>
            <DistanceMeters>NAN</DistanceMeters>
          </Trackpoint>
          <Trackpoint>
            <Time>2022-07-13T15:43:54.000Z</Time>
            <Position>
              <LatitudeDegrees>43.47256167791783809661865234375</LatitudeDegrees>
              <LongitudeDegrees>-3.7230222858488559722900390625</LongitudeDegrees>
            </Position>
            <AltitudeMeters>45.799999237060546875</AltitudeMeters>
            <DistanceMeters>NAN</DistanceMeters>
          </Trackpoint>
          <Trackpoint>
            <Time>2022-07-13T15:43:59.000Z</Time>
            <Position>
              <LatitudeDegrees>43.4724430739879608154296875</LatitudeDegrees>
              <LongitudeDegrees>-3.72323242016136646270751953125</LongitudeDegrees>
            </Position>
            <AltitudeMeters>45.799999237060546875</AltitudeMeters>
            <DistanceMeters>NAN</DistanceMeters>
          </Trackpoint>
          <Trackpoint>
            <Time>2022-07-13T15:44:01.000Z</Time>
            <Position>
              <LatitudeDegrees>43.47241155803203582763671875</LatitudeDegrees>
              <LongitudeDegrees>-3.72327826917171478271484375</LongitudeDegrees>
            </Position>
            <AltitudeMeters>45.799999237060546875</AltitudeMeters>
            <DistanceMeters>NAN</DistanceMeters>
          </Trackpoint>
          <Trackpoint>
            <Time>2022-07-13T15:44:04.000Z</Time>
            <Position>
              <LatitudeDegrees>43.47239454276859760284423828125</LatitudeDegrees>
              <LongitudeDegrees>-3.72330551035702228546142578125</LongitudeDegrees>
            </Position>
            <AltitudeMeters>45.59999847412109375</AltitudeMeters>
            <DistanceMeters>NAN</DistanceMeters>
          </Trackpoint>
          <Trackpoint>
            <Time>2022-07-13T15:44:05.000Z</Time>
            <Position>
              <LatitudeDegrees>43.47239454276859760284423828125</LatitudeDegrees>
              <LongitudeDegrees>-3.72330551035702228546142578125</LongitudeDegrees>
            </Position>
            <AltitudeMeters>45.799999237060546875</AltitudeMeters>
            <DistanceMeters>NAN</DistanceMeters>
          </Trackpoint>
          <Trackpoint>
            <Time>2022-07-13T15:44:06.000Z</Time>
            <Position>
              <LatitudeDegrees>43.47239454276859760284423828125</LatitudeDegrees>
              <LongitudeDegrees>-3.72330551035702228546142578125</LongitudeDegrees>
            </Position>
            <AltitudeMeters>45.799999237060546875</AltitudeMeters>
            <DistanceMeters>NAN</DistanceMeters>
          </Trackpoint>
          <Trackpoint>
            <Time>2022-07-13T15:44:53.000Z</Time>
            <Position>
              <LatitudeDegrees>43.47235715948045253753662109375</LatitudeDegrees>
              <LongitudeDegrees>-3.72336569242179393768310546875</LongitudeDegrees>
            </Position>
            <AltitudeMeters>46.59999847412109375</AltitudeMeters>
            <DistanceMeters>NAN</DistanceMeters>
          </Trackpoint>
          <Trackpoint>
            <Time>2022-07-13T15:44:54.000Z</Time>
            <Position>
              <LatitudeDegrees>43.4723383001983165740966796875</LatitudeDegrees>
              <LongitudeDegrees>-3.72339469380676746368408203125</LongitudeDegrees>
            </Position>
            <AltitudeMeters>46.59999847412109375</AltitudeMeters>
            <DistanceMeters>NAN</DistanceMeters>
          </Trackpoint>
          <Trackpoint>
            <Time>2022-07-13T15:44:55.000Z</Time>
            <Position>
              <LatitudeDegrees>43.47231768071651458740234375</LatitudeDegrees>
              <LongitudeDegrees>-3.7234259583055973052978515625</LongitudeDegrees>
            </Position>
            <AltitudeMeters>46.59999847412109375</AltitudeMeters>
            <DistanceMeters>NAN</DistanceMeters>
          </Trackpoint>
          <Trackpoint>
            <Time>2022-07-13T15:45:03.000Z</Time>
            <Position>
              <LatitudeDegrees>43.4721391461789608001708984375</LatitudeDegrees>
              <LongitudeDegrees>-3.723687641322612762451171875</LongitudeDegrees>
            </Position>
            <AltitudeMeters>45.40000152587890625</AltitudeMeters>
            <DistanceMeters>NAN</DistanceMeters>
          </Trackpoint>
          <Trackpoint>
            <Time>2022-07-13T15:45:05.000Z</Time>
            <Position>
              <LatitudeDegrees>43.47209698520600795745849609375</LatitudeDegrees>
              <LongitudeDegrees>-3.7237531878054141998291015625</LongitudeDegrees>
            </Position>
            <AltitudeMeters>45</AltitudeMeters>
            <DistanceMeters>NAN</DistanceMeters>
          </Trackpoint>
          <Trackpoint>
            <Time>2022-07-13T15:45:10.000Z</Time>
            <Position>
              <LatitudeDegrees>43.471991457045078277587890625</LatitudeDegrees>
              <LongitudeDegrees>-3.72391470707952976226806640625</LongitudeDegrees>
            </Position>
            <AltitudeMeters>44.799999237060546875</AltitudeMeters>
            <DistanceMeters>NAN</DistanceMeters>
          </Trackpoint>
          <Trackpoint>
            <Time>2022-07-13T15:45:12.000Z</Time>
            <Position>
              <LatitudeDegrees>43.47195021808147430419921875</LatitudeDegrees>
              <LongitudeDegrees>-3.7239805050194263458251953125</LongitudeDegrees>
            </Position>
            <AltitudeMeters>44.59999847412109375</AltitudeMeters>
            <DistanceMeters>NAN</DistanceMeters>
          </Trackpoint>
          <Trackpoint>
            <Time>2022-07-13T15:45:14.000Z</Time>
            <Position>
              <LatitudeDegrees>43.47191174514591693878173828125</LatitudeDegrees>
              <LongitudeDegrees>-3.72404043562710285186767578125</LongitudeDegrees>
            </Position>
            <AltitudeMeters>44.40000152587890625</AltitudeMeters>
            <DistanceMeters>NAN</DistanceMeters>
          </Trackpoint>
          <Trackpoint>
            <Time>2022-07-13T15:45:16.000Z</Time>
            <Position>
              <LatitudeDegrees>43.4718756191432476043701171875</LatitudeDegrees>
              <LongitudeDegrees>-3.7240951694548130035400390625</LongitudeDegrees>
            </Position>
            <AltitudeMeters>44</AltitudeMeters>
            <DistanceMeters>NAN</DistanceMeters>
          </Trackpoint>
          <Trackpoint>
            <Time>2022-07-13T15:45:19.000Z</Time>
            <Position>
              <LatitudeDegrees>43.47179339267313480377197265625</LatitudeDegrees>
              <LongitudeDegrees>-3.72421125881373882293701171875</LongitudeDegrees>
            </Position>
            <AltitudeMeters>43</AltitudeMeters>
            <DistanceMeters>NAN</DistanceMeters>
          </Trackpoint>
          <Trackpoint>
            <Time>2022-07-13T15:45:20.000Z</Time>
            <Position>
              <LatitudeDegrees>43.47176288254559040069580078125</LatitudeDegrees>
              <LongitudeDegrees>-3.72424788773059844970703125</LongitudeDegrees>
            </Position>
            <AltitudeMeters>42.799999237060546875</AltitudeMeters>
            <DistanceMeters>NAN</DistanceMeters>
          </Trackpoint>
          <Trackpoint>
            <Time>2022-07-13T15:45:23.000Z</Time>
            <Position>
              <LatitudeDegrees>43.471691720187664031982421875</LatitudeDegrees>
              <LongitudeDegrees>-3.7243248336017131805419921875</LongitudeDegrees>
            </Position>
            <AltitudeMeters>41.799999237060546875</AltitudeMeters>
            <DistanceMeters>NAN</DistanceMeters>
          </Trackpoint>
          <Trackpoint>
            <Time>2022-07-13T15:45:24.000Z</Time>
            <Position>
              <LatitudeDegrees>43.4716828353703022003173828125</LatitudeDegrees>
              <LongitudeDegrees>-3.72434352524578571319580078125</LongitudeDegrees>
            </Position>
            <AltitudeMeters>41.200000762939453125</AltitudeMeters>
            <DistanceMeters>NAN</DistanceMeters>
          </Trackpoint>
          <Trackpoint>
            <Time>2022-07-13T15:45:26.000Z</Time>
            <Position>
              <LatitudeDegrees>43.4716838411986827850341796875</LatitudeDegrees>
              <LongitudeDegrees>-3.72436816804111003875732421875</LongitudeDegrees>
            </Position>
            <AltitudeMeters>40.59999847412109375</AltitudeMeters>
            <DistanceMeters>NAN</DistanceMeters>
          </Trackpoint>
          <Trackpoint>
            <Time>2022-07-13T15:45:27.000Z</Time>
            <Position>
              <LatitudeDegrees>43.47168090753257274627685546875</LatitudeDegrees>
              <LongitudeDegrees>-3.72437085025012493133544921875</LongitudeDegrees>
            </Position>
            <AltitudeMeters>40.200000762939453125</AltitudeMeters>
            <DistanceMeters>NAN</DistanceMeters>
          </Trackpoint>
          <Trackpoint>
            <Time>2022-07-13T15:45:28.000Z</Time>
            <Position>
              <LatitudeDegrees>43.471673615276813507080078125</LatitudeDegrees>
              <LongitudeDegrees>-3.7243771366775035858154296875</LongitudeDegrees>
            </Position>
            <AltitudeMeters>40</AltitudeMeters>
            <DistanceMeters>NAN</DistanceMeters>
          </Trackpoint>
          <Trackpoint>
            <Time>2022-07-13T15:45:29.000Z</Time>
            <Position>
              <LatitudeDegrees>43.47166565246880054473876953125</LatitudeDegrees>
              <LongitudeDegrees>-3.72438912279903888702392578125</LongitudeDegrees>
            </Position>
            <AltitudeMeters>40</AltitudeMeters>
            <DistanceMeters>NAN</DistanceMeters>
          </Trackpoint>
          <Trackpoint>
            <Time>2022-07-13T15:45:33.000Z</Time>
            <Position>
              <LatitudeDegrees>43.47161033190786838531494140625</LatitudeDegrees>
              <LongitudeDegrees>-3.72445131652057170867919921875</LongitudeDegrees>
            </Position>
            <AltitudeMeters>39.59999847412109375</AltitudeMeters>
            <DistanceMeters>NAN</DistanceMeters>
          </Trackpoint>
          <Trackpoint>
            <Time>2022-07-13T15:45:34.000Z</Time>
            <Position>
              <LatitudeDegrees>43.47161033190786838531494140625</LatitudeDegrees>
              <LongitudeDegrees>-3.72445131652057170867919921875</LongitudeDegrees>
            </Position>
            <AltitudeMeters>39.40000152587890625</AltitudeMeters>
            <DistanceMeters>NAN</DistanceMeters>
          </Trackpoint>
          <Trackpoint>
            <Time>2022-07-13T15:45:36.000Z</Time>
            <Position>
              <LatitudeDegrees>43.47161033190786838531494140625</LatitudeDegrees>
              <LongitudeDegrees>-3.72445131652057170867919921875</LongitudeDegrees>
            </Position>
            <AltitudeMeters>39</AltitudeMeters>
            <DistanceMeters>NAN</DistanceMeters>
          </Trackpoint>
          <Trackpoint>
            <Time>2022-07-13T15:46:16.000Z</Time>
            <Position>
              <LatitudeDegrees>43.47158853895962238311767578125</LatitudeDegrees>
              <LongitudeDegrees>-3.72447243891656398773193359375</LongitudeDegrees>
            </Position>
            <AltitudeMeters>38.200000762939453125</AltitudeMeters>
            <DistanceMeters>NAN</DistanceMeters>
          </Trackpoint>
          <Trackpoint>
            <Time>2022-07-13T15:46:18.000Z</Time>
            <Position>
              <LatitudeDegrees>43.4715418517589569091796875</LatitudeDegrees>
              <LongitudeDegrees>-3.72452340088784694671630859375</LongitudeDegrees>
            </Position>
            <AltitudeMeters>37.799999237060546875</AltitudeMeters>
            <DistanceMeters>NAN</DistanceMeters>
          </Trackpoint>
          <Trackpoint>
            <Time>2022-07-13T15:46:20.000Z</Time>
            <Position>
              <LatitudeDegrees>43.47150438465178012847900390625</LatitudeDegrees>
              <LongitudeDegrees>-3.7245729379355907440185546875</LongitudeDegrees>
            </Position>
            <AltitudeMeters>37</AltitudeMeters>
            <DistanceMeters>NAN</DistanceMeters>
          </Trackpoint>
          <Trackpoint>
            <Time>2022-07-13T15:46:23.000Z</Time>
            <Position>
              <LatitudeDegrees>43.4714618884027004241943359375</LatitudeDegrees>
              <LongitudeDegrees>-3.72461409308016300201416015625</LongitudeDegrees>
            </Position>
            <AltitudeMeters>36</AltitudeMeters>
            <DistanceMeters>NAN</DistanceMeters>
          </Trackpoint>
          <Trackpoint>
            <Time>2022-07-13T15:46:24.000Z</Time>
            <Position>
              <LatitudeDegrees>43.47145006991922855377197265625</LatitudeDegrees>
              <LongitudeDegrees>-3.7246267497539520263671875</LongitudeDegrees>
            </Position>
            <AltitudeMeters>35.799999237060546875</AltitudeMeters>
            <DistanceMeters>NAN</DistanceMeters>
          </Trackpoint>
          <Trackpoint>
            <Time>2022-07-13T15:46:26.000Z</Time>
            <Position>
              <LatitudeDegrees>43.47142576240003108978271484375</LatitudeDegrees>
              <LongitudeDegrees>-3.7246694974601268768310546875</LongitudeDegrees>
            </Position>
            <AltitudeMeters>35.40000152587890625</AltitudeMeters>
            <DistanceMeters>NAN</DistanceMeters>
          </Trackpoint>
          <Trackpoint>
            <Time>2022-07-13T15:46:28.000Z</Time>
            <Position>
              <LatitudeDegrees>43.47138452343642711639404296875</LatitudeDegrees>
              <LongitudeDegrees>-3.72474468313157558441162109375</LongitudeDegrees>
            </Position>
            <AltitudeMeters>34.799999237060546875</AltitudeMeters>
            <DistanceMeters>NAN</DistanceMeters>
          </Trackpoint>
          <Trackpoint>
            <Time>2022-07-13T15:46:29.000Z</Time>
            <Position>
              <LatitudeDegrees>43.4713613055646419525146484375</LatitudeDegrees>
              <LongitudeDegrees>-3.7247888557612895965576171875</LongitudeDegrees>
            </Position>
            <AltitudeMeters>34.799999237060546875</AltitudeMeters>
            <DistanceMeters>NAN</DistanceMeters>
          </Trackpoint>
          <Trackpoint>
            <Time>2022-07-13T15:46:32.000Z</Time>
            <Position>
              <LatitudeDegrees>43.47130246460437774658203125</LatitudeDegrees>
              <LongitudeDegrees>-3.72489790432155132293701171875</LongitudeDegrees>
            </Position>
            <AltitudeMeters>33.799999237060546875</AltitudeMeters>
            <DistanceMeters>NAN</DistanceMeters>
          </Trackpoint>
          <Trackpoint>
            <Time>2022-07-13T15:46:35.000Z</Time>
            <Position>
              <LatitudeDegrees>43.47126759588718414306640625</LatitudeDegrees>
              <LongitudeDegrees>-3.72499563731253147125244140625</LongitudeDegrees>
            </Position>
            <AltitudeMeters>33.40000152587890625</AltitudeMeters>
            <DistanceMeters>NAN</DistanceMeters>
          </Trackpoint>
          <Trackpoint>
            <Time>2022-07-13T15:46:37.000Z</Time>
            <Position>
              <LatitudeDegrees>43.47122727893292903900146484375</LatitudeDegrees>
              <LongitudeDegrees>-3.72505146078765392303466796875</LongitudeDegrees>
            </Position>
            <AltitudeMeters>33</AltitudeMeters>
            <DistanceMeters>NAN</DistanceMeters>
          </Trackpoint>
          <Trackpoint>
            <Time>2022-07-13T15:46:38.000Z</Time>
            <Position>
              <LatitudeDegrees>43.47120188176631927490234375</LatitudeDegrees>
              <LongitudeDegrees>-3.7250775285065174102783203125</LongitudeDegrees>
            </Position>
            <AltitudeMeters>32.799999237060546875</AltitudeMeters>
            <DistanceMeters>NAN</DistanceMeters>
          </Trackpoint>
          <Trackpoint>
            <Time>2022-07-13T15:46:40.000Z</Time>
            <Position>
              <LatitudeDegrees>43.47115091979503631591796875</LatitudeDegrees>
              <LongitudeDegrees>-3.72513569891452789306640625</LongitudeDegrees>
            </Position>
            <AltitudeMeters>32.59999847412109375</AltitudeMeters>
            <DistanceMeters>NAN</DistanceMeters>
          </Trackpoint>
          <Trackpoint>
            <Time>2022-07-13T15:46:45.000Z</Time>
            <Position>
              <LatitudeDegrees>43.471045978367328643798828125</LatitudeDegrees>
              <LongitudeDegrees>-3.72531272470951080322265625</LongitudeDegrees>
            </Position>
            <AltitudeMeters>31.799999237060546875</AltitudeMeters>
            <DistanceMeters>NAN</DistanceMeters>
          </Trackpoint>
          <Trackpoint>
            <Time>2022-07-13T15:46:46.000Z</Time>
            <Position>
              <LatitudeDegrees>43.4710421226918697357177734375</LatitudeDegrees>
              <LongitudeDegrees>-3.72533820569515228271484375</LongitudeDegrees>
            </Position>
            <AltitudeMeters>31.6000003814697265625</AltitudeMeters>
            <DistanceMeters>NAN</DistanceMeters>
          </Trackpoint>
          <Trackpoint>
            <Time>2022-07-13T15:46:49.000Z</Time>
            <Position>
              <LatitudeDegrees>43.47104589454829692840576171875</LatitudeDegrees>
              <LongitudeDegrees>-3.725348599255084991455078125</LongitudeDegrees>
            </Position>
            <AltitudeMeters>31.3999996185302734375</AltitudeMeters>
            <DistanceMeters>NAN</DistanceMeters>
          </Trackpoint>
          <Trackpoint>
            <Time>2022-07-13T15:46:52.000Z</Time>
            <Position>
              <LatitudeDegrees>43.47101144492626190185546875</LatitudeDegrees>
              <LongitudeDegrees>-3.7253879941999912261962890625</LongitudeDegrees>
            </Position>
            <AltitudeMeters>31</AltitudeMeters>
            <DistanceMeters>NAN</DistanceMeters>
          </Trackpoint>
          <Trackpoint>
            <Time>2022-07-13T15:46:54.000Z</Time>
            <Position>
              <LatitudeDegrees>43.47097682766616344451904296875</LatitudeDegrees>
              <LongitudeDegrees>-3.72545211575925350189208984375</LongitudeDegrees>
            </Position>
            <AltitudeMeters>30.799999237060546875</AltitudeMeters>
            <DistanceMeters>NAN</DistanceMeters>
          </Trackpoint>
          <Trackpoint>
            <Time>2022-07-13T15:46:55.000Z</Time>
            <Position>
              <LatitudeDegrees>43.47095922566950321197509765625</LatitudeDegrees>
              <LongitudeDegrees>-3.72549469582736492156982421875</LongitudeDegrees>
            </Position>
            <AltitudeMeters>30.6000003814697265625</AltitudeMeters>
            <DistanceMeters>NAN</DistanceMeters>
          </Trackpoint>
          <Trackpoint>
            <Time>2022-07-13T15:46:59.000Z</Time>
            <Position>
              <LatitudeDegrees>43.47088764421641826629638671875</LatitudeDegrees>
              <LongitudeDegrees>-3.725681863725185394287109375</LongitudeDegrees>
            </Position>
            <AltitudeMeters>30.200000762939453125</AltitudeMeters>
            <DistanceMeters>NAN</DistanceMeters>
          </Trackpoint>
          <Trackpoint>
            <Time>2022-07-13T15:47:03.000Z</Time>
            <Position>
              <LatitudeDegrees>43.470812626183032989501953125</LatitudeDegrees>
              <LongitudeDegrees>-3.72584254480898380279541015625</LongitudeDegrees>
            </Position>
            <AltitudeMeters>29.6000003814697265625</AltitudeMeters>
            <DistanceMeters>NAN</DistanceMeters>
          </Trackpoint>
          <Trackpoint>
            <Time>2022-07-13T15:47:05.000Z</Time>
            <Position>
              <LatitudeDegrees>43.47075889818370342254638671875</LatitudeDegrees>
              <LongitudeDegrees>-3.72593340463936328887939453125</LongitudeDegrees>
            </Position>
            <AltitudeMeters>29.3999996185302734375</AltitudeMeters>
            <DistanceMeters>NAN</DistanceMeters>
          </Trackpoint>
          <Trackpoint>
            <Time>2022-07-13T15:47:09.000Z</Time>
            <Position>
              <LatitudeDegrees>43.47064104862511157989501953125</LatitudeDegrees>
              <LongitudeDegrees>-3.72606986202299594879150390625</LongitudeDegrees>
            </Position>
            <AltitudeMeters>29.200000762939453125</AltitudeMeters>
            <DistanceMeters>NAN</DistanceMeters>
          </Trackpoint>
          <Trackpoint>
            <Time>2022-07-13T15:47:10.000Z</Time>
            <Position>
              <LatitudeDegrees>43.4706065990030765533447265625</LatitudeDegrees>
              <LongitudeDegrees>-3.72607841156423091888427734375</LongitudeDegrees>
            </Position>
            <AltitudeMeters>29.200000762939453125</AltitudeMeters>
            <DistanceMeters>NAN</DistanceMeters>
          </Trackpoint>
          <Trackpoint>
            <Time>2022-07-13T15:47:14.000Z</Time>
            <Position>
              <LatitudeDegrees>43.47048170864582061767578125</LatitudeDegrees>
              <LongitudeDegrees>-3.72602711431682109832763671875</LongitudeDegrees>
            </Position>
            <AltitudeMeters>29.3999996185302734375</AltitudeMeters>
            <DistanceMeters>NAN</DistanceMeters>
          </Trackpoint>
          <Trackpoint>
            <Time>2022-07-13T15:47:20.000Z</Time>
            <Position>
              <LatitudeDegrees>43.47030560486018657684326171875</LatitudeDegrees>
              <LongitudeDegrees>-3.7259985320270061492919921875</LongitudeDegrees>
            </Position>
            <AltitudeMeters>30.799999237060546875</AltitudeMeters>
            <DistanceMeters>NAN</DistanceMeters>
          </Trackpoint>
          <Trackpoint>
            <Time>2022-07-13T15:47:23.000Z</Time>
            <Position>
              <LatitudeDegrees>43.4702230431139469146728515625</LatitudeDegrees>
              <LongitudeDegrees>-3.72603155672550201416015625</LongitudeDegrees>
            </Position>
            <AltitudeMeters>31</AltitudeMeters>
            <DistanceMeters>NAN</DistanceMeters>
          </Trackpoint>
          <Trackpoint>
            <Time>2022-07-13T15:47:26.000Z</Time>
            <Position>
              <LatitudeDegrees>43.4701509587466716766357421875</LatitudeDegrees>
              <LongitudeDegrees>-3.726088218390941619873046875</LongitudeDegrees>
            </Position>
            <AltitudeMeters>31</AltitudeMeters>
            <DistanceMeters>NAN</DistanceMeters>
          </Trackpoint>
          <Trackpoint>
            <Time>2022-07-13T15:47:27.000Z</Time>
            <Position>
              <LatitudeDegrees>43.47012924961745738983154296875</LatitudeDegrees>
              <LongitudeDegrees>-3.72610758058726787567138671875</LongitudeDegrees>
            </Position>
            <AltitudeMeters>30.6000003814697265625</AltitudeMeters>
            <DistanceMeters>NAN</DistanceMeters>
          </Trackpoint>
          <Trackpoint>
            <Time>2022-07-13T15:47:28.000Z</Time>
            <Position>
              <LatitudeDegrees>43.47010360099375247955322265625</LatitudeDegrees>
              <LongitudeDegrees>-3.7261202372610569000244140625</LongitudeDegrees>
            </Position>
            <AltitudeMeters>30.3999996185302734375</AltitudeMeters>
            <DistanceMeters>NAN</DistanceMeters>
          </Trackpoint>
          <Trackpoint>
            <Time>2022-07-13T15:47:30.000Z</Time>
            <Position>
              <LatitudeDegrees>43.47002916969358921051025390625</LatitudeDegrees>
              <LongitudeDegrees>-3.72613322921097278594970703125</LongitudeDegrees>
            </Position>
            <AltitudeMeters>29.3999996185302734375</AltitudeMeters>
            <DistanceMeters>NAN</DistanceMeters>
          </Trackpoint>
          <Trackpoint>
            <Time>2022-07-13T15:47:32.000Z</Time>
            <Position>
              <LatitudeDegrees>43.4699407406151294708251953125</LatitudeDegrees>
              <LongitudeDegrees>-3.72613482177257537841796875</LongitudeDegrees>
            </Position>
            <AltitudeMeters>29</AltitudeMeters>
            <DistanceMeters>NAN</DistanceMeters>
          </Trackpoint>
          <Trackpoint>
            <Time>2022-07-13T15:47:36.000Z</Time>
            <Position>
              <LatitudeDegrees>43.46986605785787105560302734375</LatitudeDegrees>
              <LongitudeDegrees>-3.7261551059782505035400390625</LongitudeDegrees>
            </Position>
            <AltitudeMeters>28.3999996185302734375</AltitudeMeters>
            <DistanceMeters>NAN</DistanceMeters>
          </Trackpoint>
          <Trackpoint>
            <Time>2022-07-13T15:47:37.000Z</Time>
            <Position>
              <LatitudeDegrees>43.4698522277176380157470703125</LatitudeDegrees>
              <LongitudeDegrees>-3.72615921311080455780029296875</LongitudeDegrees>
            </Position>
            <AltitudeMeters>28.200000762939453125</AltitudeMeters>
            <DistanceMeters>NAN</DistanceMeters>
          </Trackpoint>
          <Trackpoint>
            <Time>2022-07-13T15:47:41.000Z</Time>
            <Position>
              <LatitudeDegrees>43.4698046185076236724853515625</LatitudeDegrees>
              <LongitudeDegrees>-3.72623766772449016571044921875</LongitudeDegrees>
            </Position>
            <AltitudeMeters>27.799999237060546875</AltitudeMeters>
            <DistanceMeters>NAN</DistanceMeters>
          </Trackpoint>
          <Trackpoint>
            <Time>2022-07-13T15:47:46.000Z</Time>
            <Position>
              <LatitudeDegrees>43.46973714418709278106689453125</LatitudeDegrees>
              <LongitudeDegrees>-3.72633120976388454437255859375</LongitudeDegrees>
            </Position>
            <AltitudeMeters>28</AltitudeMeters>
            <DistanceMeters>NAN</DistanceMeters>
          </Trackpoint>
          <Trackpoint>
            <Time>2022-07-13T15:47:47.000Z</Time>
            <Position>
              <LatitudeDegrees>43.469718284904956817626953125</LatitudeDegrees>
              <LongitudeDegrees>-3.72633590362966060638427734375</LongitudeDegrees>
            </Position>
            <AltitudeMeters>27.799999237060546875</AltitudeMeters>
            <DistanceMeters>NAN</DistanceMeters>
          </Trackpoint>
          <Trackpoint>
            <Time>2022-07-13T15:47:51.000Z</Time>
            <Position>
              <LatitudeDegrees>43.46969841979444026947021484375</LatitudeDegrees>
              <LongitudeDegrees>-3.72633959166705608367919921875</LongitudeDegrees>
            </Position>
            <AltitudeMeters>27.799999237060546875</AltitudeMeters>
            <DistanceMeters>NAN</DistanceMeters>
          </Trackpoint>
          <Trackpoint>
            <Time>2022-07-13T15:48:36.000Z</Time>
            <Position>
              <LatitudeDegrees>43.469704203307628631591796875</LatitudeDegrees>
              <LongitudeDegrees>-3.7262486480176448822021484375</LongitudeDegrees>
            </Position>
            <AltitudeMeters>28.6000003814697265625</AltitudeMeters>
            <DistanceMeters>NAN</DistanceMeters>
          </Trackpoint>
          <Trackpoint>
            <Time>2022-07-13T15:48:37.000Z</Time>
            <Position>
              <LatitudeDegrees>43.4697023592889308929443359375</LatitudeDegrees>
              <LongitudeDegrees>-3.7262157909572124481201171875</LongitudeDegrees>
            </Position>
            <AltitudeMeters>28.799999237060546875</AltitudeMeters>
            <DistanceMeters>NAN</DistanceMeters>
          </Trackpoint>
          <Trackpoint>
            <Time>2022-07-13T15:48:40.000Z</Time>
            <Position>
              <LatitudeDegrees>43.46970311366021633148193359375</LatitudeDegrees>
              <LongitudeDegrees>-3.72611395083367824554443359375</LongitudeDegrees>
            </Position>
            <AltitudeMeters>29.6000003814697265625</AltitudeMeters>
            <DistanceMeters>NAN</DistanceMeters>
          </Trackpoint>
          <Trackpoint>
            <Time>2022-07-13T15:48:41.000Z</Time>
            <Position>
              <LatitudeDegrees>43.4697187878191471099853515625</LatitudeDegrees>
              <LongitudeDegrees>-3.72608251869678497314453125</LongitudeDegrees>
            </Position>
            <AltitudeMeters>29.799999237060546875</AltitudeMeters>
            <DistanceMeters>NAN</DistanceMeters>
          </Trackpoint>
          <Trackpoint>
            <Time>2022-07-13T15:48:48.000Z</Time>
            <Position>
              <LatitudeDegrees>43.46979464404284954071044921875</LatitudeDegrees>
              <LongitudeDegrees>-3.72590457089245319366455078125</LongitudeDegrees>
            </Position>
            <AltitudeMeters>30.3999996185302734375</AltitudeMeters>
            <DistanceMeters>NAN</DistanceMeters>
          </Trackpoint>
          <Trackpoint>
            <Time>2022-07-13T15:48:52.000Z</Time>
            <Position>
              <LatitudeDegrees>43.4697992540895938873291015625</LatitudeDegrees>
              <LongitudeDegrees>-3.72587858699262142181396484375</LongitudeDegrees>
            </Position>
            <AltitudeMeters>30.200000762939453125</AltitudeMeters>
            <DistanceMeters>NAN</DistanceMeters>
          </Trackpoint>
          <Trackpoint>
            <Time>2022-07-13T15:49:12.000Z</Time>
            <Position>
              <LatitudeDegrees>43.4698143415153026580810546875</LatitudeDegrees>
              <LongitudeDegrees>-3.72581371106207370758056640625</LongitudeDegrees>
            </Position>
            <AltitudeMeters>31</AltitudeMeters>
            <DistanceMeters>NAN</DistanceMeters>
          </Trackpoint>
          <Trackpoint>
            <Time>2022-07-13T15:49:14.000Z</Time>
            <Position>
              <LatitudeDegrees>43.46983931958675384521484375</LatitudeDegrees>
              <LongitudeDegrees>-3.7257524393498897552490234375</LongitudeDegrees>
            </Position>
            <AltitudeMeters>31.799999237060546875</AltitudeMeters>
            <DistanceMeters>NAN</DistanceMeters>
          </Trackpoint>
          <Trackpoint>
            <Time>2022-07-13T15:49:16.000Z</Time>
            <Position>
              <LatitudeDegrees>43.46985340118408203125</LatitudeDegrees>
              <LongitudeDegrees>-3.72569896280765533447265625</LongitudeDegrees>
            </Position>
            <AltitudeMeters>32.40000152587890625</AltitudeMeters>
            <DistanceMeters>NAN</DistanceMeters>
          </Trackpoint>
          <Trackpoint>
            <Time>2022-07-13T15:49:20.000Z</Time>
            <Position>
              <LatitudeDegrees>43.46987594850361347198486328125</LatitudeDegrees>
              <LongitudeDegrees>-3.72560986317694187164306640625</LongitudeDegrees>
            </Position>
            <AltitudeMeters>32.799999237060546875</AltitudeMeters>
            <DistanceMeters>NAN</DistanceMeters>
          </Trackpoint>
          <Trackpoint>
            <Time>2022-07-13T15:49:22.000Z</Time>
            <Position>
              <LatitudeDegrees>43.469887264072895050048828125</LatitudeDegrees>
              <LongitudeDegrees>-3.7255693785846233367919921875</LongitudeDegrees>
            </Position>
            <AltitudeMeters>33.200000762939453125</AltitudeMeters>
            <DistanceMeters>NAN</DistanceMeters>
          </Trackpoint>
          <Trackpoint>
            <Time>2022-07-13T15:49:26.000Z</Time>
            <Position>
              <LatitudeDegrees>43.46988114528357982635498046875</LatitudeDegrees>
              <LongitudeDegrees>-3.72547692619264125823974609375</LongitudeDegrees>
            </Position>
            <AltitudeMeters>33.40000152587890625</AltitudeMeters>
            <DistanceMeters>NAN</DistanceMeters>
          </Trackpoint>
          <Trackpoint>
            <Time>2022-07-13T15:49:31.000Z</Time>
            <Position>
              <LatitudeDegrees>43.46987695433199405670166015625</LatitudeDegrees>
              <LongitudeDegrees>-3.7253273092210292816162109375</LongitudeDegrees>
            </Position>
            <AltitudeMeters>34.40000152587890625</AltitudeMeters>
            <DistanceMeters>NAN</DistanceMeters>
          </Trackpoint>
          <Trackpoint>
            <Time>2022-07-13T15:49:34.000Z</Time>
            <Position>
              <LatitudeDegrees>43.4698807261884212493896484375</LatitudeDegrees>
              <LongitudeDegrees>-3.7252310849726200103759765625</LongitudeDegrees>
            </Position>
            <AltitudeMeters>34.799999237060546875</AltitudeMeters>
            <DistanceMeters>NAN</DistanceMeters>
          </Trackpoint>
          <Trackpoint>
            <Time>2022-07-13T15:49:37.000Z</Time>
            <Position>
              <LatitudeDegrees>43.46988248638808727264404296875</LatitudeDegrees>
              <LongitudeDegrees>-3.7251234613358974456787109375</LongitudeDegrees>
            </Position>
            <AltitudeMeters>35.40000152587890625</AltitudeMeters>
            <DistanceMeters>NAN</DistanceMeters>
          </Trackpoint>
          <Trackpoint>
            <Time>2022-07-13T15:49:43.000Z</Time>
            <Position>
              <LatitudeDegrees>43.469900004565715789794921875</LatitudeDegrees>
              <LongitudeDegrees>-3.7248708307743072509765625</LongitudeDegrees>
            </Position>
            <AltitudeMeters>35.40000152587890625</AltitudeMeters>
            <DistanceMeters>NAN</DistanceMeters>
          </Trackpoint>
          <Trackpoint>
            <Time>2022-07-13T15:49:48.000Z</Time>
            <Position>
              <LatitudeDegrees>43.46991266123950481414794921875</LatitudeDegrees>
              <LongitudeDegrees>-3.72463722713291645050048828125</LongitudeDegrees>
            </Position>
            <AltitudeMeters>34.799999237060546875</AltitudeMeters>
            <DistanceMeters>NAN</DistanceMeters>
          </Trackpoint>
          <Trackpoint>
            <Time>2022-07-13T15:49:50.000Z</Time>
            <Position>
              <LatitudeDegrees>43.46991601400077342987060546875</LatitudeDegrees>
              <LongitudeDegrees>-3.7245256640017032623291015625</LongitudeDegrees>
            </Position>
            <AltitudeMeters>34.799999237060546875</AltitudeMeters>
            <DistanceMeters>NAN</DistanceMeters>
          </Trackpoint>
          <Trackpoint>
            <Time>2022-07-13T15:49:57.000Z</Time>
            <Position>
              <LatitudeDegrees>43.46993051469326019287109375</LatitudeDegrees>
              <LongitudeDegrees>-3.7241404317319393157958984375</LongitudeDegrees>
            </Position>
            <AltitudeMeters>35.200000762939453125</AltitudeMeters>
            <DistanceMeters>NAN</DistanceMeters>
          </Trackpoint>
          <Trackpoint>
            <Time>2022-07-13T15:50:04.000Z</Time>
            <Position>
              <LatitudeDegrees>43.4699605219066143035888671875</LatitudeDegrees>
              <LongitudeDegrees>-3.72375394217669963836669921875</LongitudeDegrees>
            </Position>
            <AltitudeMeters>34.799999237060546875</AltitudeMeters>
            <DistanceMeters>NAN</DistanceMeters>
          </Trackpoint>
          <Trackpoint>
            <Time>2022-07-13T15:50:06.000Z</Time>
            <Position>
              <LatitudeDegrees>43.4699702449142932891845703125</LatitudeDegrees>
              <LongitudeDegrees>-3.72364548034965991973876953125</LongitudeDegrees>
            </Position>
            <AltitudeMeters>34.799999237060546875</AltitudeMeters>
            <DistanceMeters>NAN</DistanceMeters>
          </Trackpoint>
          <Trackpoint>
            <Time>2022-07-13T15:50:14.000Z</Time>
            <Position>
              <LatitudeDegrees>43.470003940165042877197265625</LatitudeDegrees>
              <LongitudeDegrees>-3.7232019938528537750244140625</LongitudeDegrees>
            </Position>
            <AltitudeMeters>34.799999237060546875</AltitudeMeters>
            <DistanceMeters>NAN</DistanceMeters>
          </Trackpoint>
          <Trackpoint>
            <Time>2022-07-13T15:50:16.000Z</Time>
            <Position>
              <LatitudeDegrees>43.4700151719152927398681640625</LatitudeDegrees>
              <LongitudeDegrees>-3.72309386730194091796875</LongitudeDegrees>
            </Position>
            <AltitudeMeters>34</AltitudeMeters>
            <DistanceMeters>NAN</DistanceMeters>
          </Trackpoint>
          <Trackpoint>
            <Time>2022-07-13T15:50:21.000Z</Time>
            <Position>
              <LatitudeDegrees>43.4700326062738895416259765625</LatitudeDegrees>
              <LongitudeDegrees>-3.72282288037240505218505859375</LongitudeDegrees>
            </Position>
            <AltitudeMeters>33.59999847412109375</AltitudeMeters>
            <DistanceMeters>NAN</DistanceMeters>
          </Trackpoint>
          <Trackpoint>
            <Time>2022-07-13T15:50:24.000Z</Time>
            <Position>
              <LatitudeDegrees>43.4700450114905834197998046875</LatitudeDegrees>
              <LongitudeDegrees>-3.72266496531665325164794921875</LongitudeDegrees>
            </Position>
            <AltitudeMeters>33.59999847412109375</AltitudeMeters>
            <DistanceMeters>NAN</DistanceMeters>
          </Trackpoint>
          <Trackpoint>
            <Time>2022-07-13T15:50:28.000Z</Time>
            <Position>
              <LatitudeDegrees>43.47004911862313747406005859375</LatitudeDegrees>
              <LongitudeDegrees>-3.72249464504420757293701171875</LongitudeDegrees>
            </Position>
            <AltitudeMeters>33.59999847412109375</AltitudeMeters>
            <DistanceMeters>NAN</DistanceMeters>
          </Trackpoint>
          <Trackpoint>
            <Time>2022-07-13T15:50:29.000Z</Time>
            <Position>
              <LatitudeDegrees>43.470046855509281158447265625</LatitudeDegrees>
              <LongitudeDegrees>-3.7224731035530567169189453125</LongitudeDegrees>
            </Position>
            <AltitudeMeters>33.59999847412109375</AltitudeMeters>
            <DistanceMeters>NAN</DistanceMeters>
          </Trackpoint>
          <Trackpoint>
            <Time>2022-07-13T15:50:33.000Z</Time>
            <Position>
              <LatitudeDegrees>43.47004584968090057373046875</LatitudeDegrees>
              <LongitudeDegrees>-3.72245424427092075347900390625</LongitudeDegrees>
            </Position>
            <AltitudeMeters>33.799999237060546875</AltitudeMeters>
            <DistanceMeters>NAN</DistanceMeters>
          </Trackpoint>
          <Trackpoint>
            <Time>2022-07-13T15:50:43.000Z</Time>
            <Position>
              <LatitudeDegrees>43.470003269612789154052734375</LatitudeDegrees>
              <LongitudeDegrees>-3.72240680269896984100341796875</LongitudeDegrees>
            </Position>
            <AltitudeMeters>33.799999237060546875</AltitudeMeters>
            <DistanceMeters>NAN</DistanceMeters>
          </Trackpoint>
          <Trackpoint>
            <Time>2022-07-13T15:50:45.000Z</Time>
            <Position>
              <LatitudeDegrees>43.469947613775730133056640625</LatitudeDegrees>
              <LongitudeDegrees>-3.72242306359112262725830078125</LongitudeDegrees>
            </Position>
            <AltitudeMeters>34</AltitudeMeters>
            <DistanceMeters>NAN</DistanceMeters>
          </Trackpoint>
          <Trackpoint>
            <Time>2022-07-13T15:50:51.000Z</Time>
            <Position>
              <LatitudeDegrees>43.46976463682949542999267578125</LatitudeDegrees>
              <LongitudeDegrees>-3.72242541052401065826416015625</LongitudeDegrees>
            </Position>
            <AltitudeMeters>34.799999237060546875</AltitudeMeters>
            <DistanceMeters>NAN</DistanceMeters>
          </Trackpoint>
          <Trackpoint>
            <Time>2022-07-13T15:50:53.000Z</Time>
            <Position>
              <LatitudeDegrees>43.46971149556338787078857421875</LatitudeDegrees>
              <LongitudeDegrees>-3.722422309219837188720703125</LongitudeDegrees>
            </Position>
            <AltitudeMeters>35.200000762939453125</AltitudeMeters>
            <DistanceMeters>NAN</DistanceMeters>
          </Trackpoint>
          <Trackpoint>
            <Time>2022-07-13T15:50:55.000Z</Time>
            <Position>
              <LatitudeDegrees>43.46966455690562725067138671875</LatitudeDegrees>
              <LongitudeDegrees>-3.7224191240966320037841796875</LongitudeDegrees>
            </Position>
            <AltitudeMeters>36</AltitudeMeters>
            <DistanceMeters>NAN</DistanceMeters>
          </Trackpoint>
          <Trackpoint>
            <Time>2022-07-13T15:50:56.000Z</Time>
            <Position>
              <LatitudeDegrees>43.469639830291271209716796875</LatitudeDegrees>
              <LongitudeDegrees>-3.7224139273166656494140625</LongitudeDegrees>
            </Position>
            <AltitudeMeters>36.40000152587890625</AltitudeMeters>
            <DistanceMeters>NAN</DistanceMeters>
          </Trackpoint>
          <Trackpoint>
            <Time>2022-07-13T15:50:57.000Z</Time>
            <Position>
              <LatitudeDegrees>43.4696168638765811920166015625</LatitudeDegrees>
              <LongitudeDegrees>-3.722410239279270172119140625</LongitudeDegrees>
            </Position>
            <AltitudeMeters>36.40000152587890625</AltitudeMeters>
            <DistanceMeters>NAN</DistanceMeters>
          </Trackpoint>
          <Trackpoint>
            <Time>2022-07-13T15:51:01.000Z</Time>
            <Position>
              <LatitudeDegrees>43.46952005289494991302490234375</LatitudeDegrees>
              <LongitudeDegrees>-3.72239221818745136260986328125</LongitudeDegrees>
            </Position>
            <AltitudeMeters>37</AltitudeMeters>
            <DistanceMeters>NAN</DistanceMeters>
          </Trackpoint>
          <Trackpoint>
            <Time>2022-07-13T15:51:05.000Z</Time>
            <Position>
              <LatitudeDegrees>43.46942625939846038818359375</LatitudeDegrees>
              <LongitudeDegrees>-3.72238098643720149993896484375</LongitudeDegrees>
            </Position>
            <AltitudeMeters>37.200000762939453125</AltitudeMeters>
            <DistanceMeters>NAN</DistanceMeters>
          </Trackpoint>
          <Trackpoint>
            <Time>2022-07-13T15:51:07.000Z</Time>
            <Position>
              <LatitudeDegrees>43.469388373196125030517578125</LatitudeDegrees>
              <LongitudeDegrees>-3.72239892370998859405517578125</LongitudeDegrees>
            </Position>
            <AltitudeMeters>37.40000152587890625</AltitudeMeters>
            <DistanceMeters>NAN</DistanceMeters>
          </Trackpoint>
          <Trackpoint>
            <Time>2022-07-13T15:51:11.000Z</Time>
            <Position>
              <LatitudeDegrees>43.46931888721883296966552734375</LatitudeDegrees>
              <LongitudeDegrees>-3.72238417156040668487548828125</LongitudeDegrees>
            </Position>
            <AltitudeMeters>38.200000762939453125</AltitudeMeters>
            <DistanceMeters>NAN</DistanceMeters>
          </Trackpoint>
          <Trackpoint>
            <Time>2022-07-13T15:51:13.000Z</Time>
            <Position>
              <LatitudeDegrees>43.46927546896040439605712890625</LatitudeDegrees>
              <LongitudeDegrees>-3.72238215990364551544189453125</LongitudeDegrees>
            </Position>
            <AltitudeMeters>38.40000152587890625</AltitudeMeters>
            <DistanceMeters>NAN</DistanceMeters>
          </Trackpoint>
          <Trackpoint>
            <Time>2022-07-13T15:51:17.000Z</Time>
            <Position>
              <LatitudeDegrees>43.4691441245377063751220703125</LatitudeDegrees>
              <LongitudeDegrees>-3.7223798967897891998291015625</LongitudeDegrees>
            </Position>
            <AltitudeMeters>39.200000762939453125</AltitudeMeters>
            <DistanceMeters>NAN</DistanceMeters>
          </Trackpoint>
          <Trackpoint>
            <Time>2022-07-13T15:51:19.000Z</Time>
            <Position>
              <LatitudeDegrees>43.46908788196742534637451171875</LatitudeDegrees>
              <LongitudeDegrees>-3.72236237861216068267822265625</LongitudeDegrees>
            </Position>
            <AltitudeMeters>39.59999847412109375</AltitudeMeters>
            <DistanceMeters>NAN</DistanceMeters>
          </Trackpoint>
          <Trackpoint>
            <Time>2022-07-13T15:51:22.000Z</Time>
            <Position>
              <LatitudeDegrees>43.4689976088702678680419921875</LatitudeDegrees>
              <LongitudeDegrees>-3.722315020859241485595703125</LongitudeDegrees>
            </Position>
            <AltitudeMeters>40</AltitudeMeters>
            <DistanceMeters>NAN</DistanceMeters>
          </Trackpoint>
          <Trackpoint>
            <Time>2022-07-13T15:51:24.000Z</Time>
            <Position>
              <LatitudeDegrees>43.4689111076295375823974609375</LatitudeDegrees>
              <LongitudeDegrees>-3.722288198769092559814453125</LongitudeDegrees>
            </Position>
            <AltitudeMeters>40</AltitudeMeters>
            <DistanceMeters>NAN</DistanceMeters>
          </Trackpoint>
          <Trackpoint>
            <Time>2022-07-13T15:51:26.000Z</Time>
            <Position>
              <LatitudeDegrees>43.468802310526371002197265625</LatitudeDegrees>
              <LongitudeDegrees>-3.7222327105700969696044921875</LongitudeDegrees>
            </Position>
            <AltitudeMeters>40</AltitudeMeters>
            <DistanceMeters>NAN</DistanceMeters>
          </Trackpoint>
          <Trackpoint>
            <Time>2022-07-13T15:51:30.000Z</Time>
            <Position>
              <LatitudeDegrees>43.468491844832897186279296875</LatitudeDegrees>
              <LongitudeDegrees>-3.72209080494940280914306640625</LongitudeDegrees>
            </Position>
            <AltitudeMeters>38</AltitudeMeters>
            <DistanceMeters>NAN</DistanceMeters>
          </Trackpoint>
          <Trackpoint>
            <Time>2022-07-13T15:51:33.000Z</Time>
            <Position>
              <LatitudeDegrees>43.46821255981922149658203125</LatitudeDegrees>
              <LongitudeDegrees>-3.7219748832285404205322265625</LongitudeDegrees>
            </Position>
            <AltitudeMeters>37.200000762939453125</AltitudeMeters>
            <DistanceMeters>NAN</DistanceMeters>
          </Trackpoint>
          <Trackpoint>
            <Time>2022-07-13T15:51:34.000Z</Time>
            <Position>
              <LatitudeDegrees>43.46812446601688861846923828125</LatitudeDegrees>
              <LongitudeDegrees>-3.72193573974072933197021484375</LongitudeDegrees>
            </Position>
            <AltitudeMeters>36.40000152587890625</AltitudeMeters>
            <DistanceMeters>NAN</DistanceMeters>
          </Trackpoint>
          <Trackpoint>
            <Time>2022-07-13T15:51:35.000Z</Time>
            <Position>
              <LatitudeDegrees>43.46803955733776092529296875</LatitudeDegrees>
              <LongitudeDegrees>-3.72189684771001338958740234375</LongitudeDegrees>
            </Position>
            <AltitudeMeters>36</AltitudeMeters>
            <DistanceMeters>NAN</DistanceMeters>
          </Trackpoint>
          <Trackpoint>
            <Time>2022-07-13T15:51:37.000Z</Time>
            <Position>
              <LatitudeDegrees>43.4678752720355987548828125</LatitudeDegrees>
              <LongitudeDegrees>-3.7218203209340572357177734375</LongitudeDegrees>
            </Position>
            <AltitudeMeters>35.40000152587890625</AltitudeMeters>
            <DistanceMeters>NAN</DistanceMeters>
          </Trackpoint>
          <Trackpoint>
            <Time>2022-07-13T15:51:40.000Z</Time>
            <Position>
              <LatitudeDegrees>43.46766446717083454132080078125</LatitudeDegrees>
              <LongitudeDegrees>-3.72170984745025634765625</LongitudeDegrees>
            </Position>
            <AltitudeMeters>35</AltitudeMeters>
            <DistanceMeters>NAN</DistanceMeters>
          </Trackpoint>
          <Trackpoint>
            <Time>2022-07-13T15:51:43.000Z</Time>
            <Position>
              <LatitudeDegrees>43.46750051714479923248291015625</LatitudeDegrees>
              <LongitudeDegrees>-3.721644468605518341064453125</LongitudeDegrees>
            </Position>
            <AltitudeMeters>35</AltitudeMeters>
            <DistanceMeters>NAN</DistanceMeters>
          </Trackpoint>
          <Trackpoint>
            <Time>2022-07-13T15:51:45.000Z</Time>
            <Position>
              <LatitudeDegrees>43.4674043767154216766357421875</LatitudeDegrees>
              <LongitudeDegrees>-3.72159945778548717498779296875</LongitudeDegrees>
            </Position>
            <AltitudeMeters>35.40000152587890625</AltitudeMeters>
            <DistanceMeters>NAN</DistanceMeters>
          </Trackpoint>
          <Trackpoint>
            <Time>2022-07-13T15:51:51.000Z</Time>
            <Position>
              <LatitudeDegrees>43.46713858656585216522216796875</LatitudeDegrees>
              <LongitudeDegrees>-3.7214930914342403411865234375</LongitudeDegrees>
            </Position>
            <AltitudeMeters>36</AltitudeMeters>
            <DistanceMeters>NAN</DistanceMeters>
          </Trackpoint>
          <Trackpoint>
            <Time>2022-07-13T15:51:52.000Z</Time>
            <Position>
              <LatitudeDegrees>43.46709273755550384521484375</LatitudeDegrees>
              <LongitudeDegrees>-3.721474818885326385498046875</LongitudeDegrees>
            </Position>
            <AltitudeMeters>36</AltitudeMeters>
            <DistanceMeters>NAN</DistanceMeters>
          </Trackpoint>
          <Trackpoint>
            <Time>2022-07-13T15:51:55.000Z</Time>
            <Position>
              <LatitudeDegrees>43.46695401705801486968994140625</LatitudeDegrees>
              <LongitudeDegrees>-3.72140700928866863250732421875</LongitudeDegrees>
            </Position>
            <AltitudeMeters>36</AltitudeMeters>
            <DistanceMeters>NAN</DistanceMeters>
          </Trackpoint>
          <Trackpoint>
            <Time>2022-07-13T15:51:57.000Z</Time>
            <Position>
              <LatitudeDegrees>43.46685536205768585205078125</LatitudeDegrees>
              <LongitudeDegrees>-3.72134632430970668792724609375</LongitudeDegrees>
            </Position>
            <AltitudeMeters>35.799999237060546875</AltitudeMeters>
            <DistanceMeters>NAN</DistanceMeters>
          </Trackpoint>
          <Trackpoint>
            <Time>2022-07-13T15:52:03.000Z</Time>
            <Position>
              <LatitudeDegrees>43.46648714505136013031005859375</LatitudeDegrees>
              <LongitudeDegrees>-3.72118371538817882537841796875</LongitudeDegrees>
            </Position>
            <AltitudeMeters>34.799999237060546875</AltitudeMeters>
            <DistanceMeters>NAN</DistanceMeters>
          </Trackpoint>
          <Trackpoint>
            <Time>2022-07-13T15:52:05.000Z</Time>
            <Position>
              <LatitudeDegrees>43.46635990776121616363525390625</LatitudeDegrees>
              <LongitudeDegrees>-3.721139542758464813232421875</LongitudeDegrees>
            </Position>
            <AltitudeMeters>34</AltitudeMeters>
            <DistanceMeters>NAN</DistanceMeters>
          </Trackpoint>
          <Trackpoint>
            <Time>2022-07-13T15:52:08.000Z</Time>
            <Position>
              <LatitudeDegrees>43.46613963134586811065673828125</LatitudeDegrees>
              <LongitudeDegrees>-3.72103418223559856414794921875</LongitudeDegrees>
            </Position>
            <AltitudeMeters>33</AltitudeMeters>
            <DistanceMeters>NAN</DistanceMeters>
          </Trackpoint>
          <Trackpoint>
            <Time>2022-07-13T15:52:09.000Z</Time>
            <Position>
              <LatitudeDegrees>43.466064445674419403076171875</LatitudeDegrees>
              <LongitudeDegrees>-3.72099512256681919097900390625</LongitudeDegrees>
            </Position>
            <AltitudeMeters>32.59999847412109375</AltitudeMeters>
            <DistanceMeters>NAN</DistanceMeters>
          </Trackpoint>
          <Trackpoint>
            <Time>2022-07-13T15:52:11.000Z</Time>
            <Position>
              <LatitudeDegrees>43.46593075431883335113525390625</LatitudeDegrees>
              <LongitudeDegrees>-3.72092756442725658416748046875</LongitudeDegrees>
            </Position>
            <AltitudeMeters>32.40000152587890625</AltitudeMeters>
            <DistanceMeters>NAN</DistanceMeters>
          </Trackpoint>
          <Trackpoint>
            <Time>2022-07-13T15:52:15.000Z</Time>
            <Position>
              <LatitudeDegrees>43.46570377238094806671142578125</LatitudeDegrees>
              <LongitudeDegrees>-3.72081935405731201171875</LongitudeDegrees>
            </Position>
            <AltitudeMeters>32.40000152587890625</AltitudeMeters>
            <DistanceMeters>NAN</DistanceMeters>
          </Trackpoint>
          <Trackpoint>
            <Time>2022-07-13T15:52:22.000Z</Time>
            <Position>
              <LatitudeDegrees>43.46528920345008373260498046875</LatitudeDegrees>
              <LongitudeDegrees>-3.72063084505498409271240234375</LongitudeDegrees>
            </Position>
            <AltitudeMeters>32.200000762939453125</AltitudeMeters>
            <DistanceMeters>NAN</DistanceMeters>
          </Trackpoint>
          <Trackpoint>
            <Time>2022-07-13T15:52:24.000Z</Time>
            <Position>
              <LatitudeDegrees>43.46517705358564853668212890625</LatitudeDegrees>
              <LongitudeDegrees>-3.7205751053988933563232421875</LongitudeDegrees>
            </Position>
            <AltitudeMeters>32</AltitudeMeters>
            <DistanceMeters>NAN</DistanceMeters>
          </Trackpoint>
          <Trackpoint>
            <Time>2022-07-13T15:52:25.000Z</Time>
            <Position>
              <LatitudeDegrees>43.465125001966953277587890625</LatitudeDegrees>
              <LongitudeDegrees>-3.7205499596893787384033203125</LongitudeDegrees>
            </Position>
            <AltitudeMeters>31.799999237060546875</AltitudeMeters>
            <DistanceMeters>NAN</DistanceMeters>
          </Trackpoint>
          <Trackpoint>
            <Time>2022-07-13T15:52:30.000Z</Time>
            <Position>
              <LatitudeDegrees>43.4648837707936763763427734375</LatitudeDegrees>
              <LongitudeDegrees>-3.7204477004706859588623046875</LongitudeDegrees>
            </Position>
            <AltitudeMeters>31</AltitudeMeters>
            <DistanceMeters>NAN</DistanceMeters>
          </Trackpoint>
          <Trackpoint>
            <Time>2022-07-13T15:52:32.000Z</Time>
            <Position>
              <LatitudeDegrees>43.4647898934781551361083984375</LatitudeDegrees>
              <LongitudeDegrees>-3.72040252201259136199951171875</LongitudeDegrees>
            </Position>
            <AltitudeMeters>30.799999237060546875</AltitudeMeters>
            <DistanceMeters>NAN</DistanceMeters>
          </Trackpoint>
          <Trackpoint>
            <Time>2022-07-13T15:52:38.000Z</Time>
            <Position>
              <LatitudeDegrees>43.46448906697332859039306640625</LatitudeDegrees>
              <LongitudeDegrees>-3.720290958881378173828125</LongitudeDegrees>
            </Position>
            <AltitudeMeters>31</AltitudeMeters>
            <DistanceMeters>NAN</DistanceMeters>
          </Trackpoint>
          <Trackpoint>
            <Time>2022-07-13T15:52:44.000Z</Time>
            <Position>
              <LatitudeDegrees>43.46419922076165676116943359375</LatitudeDegrees>
              <LongitudeDegrees>-3.72015978209674358367919921875</LongitudeDegrees>
            </Position>
            <AltitudeMeters>30.799999237060546875</AltitudeMeters>
            <DistanceMeters>NAN</DistanceMeters>
          </Trackpoint>
          <Trackpoint>
            <Time>2022-07-13T15:52:45.000Z</Time>
            <Position>
              <LatitudeDegrees>43.46415597014129161834716796875</LatitudeDegrees>
              <LongitudeDegrees>-3.720137737691402435302734375</LongitudeDegrees>
            </Position>
            <AltitudeMeters>30.799999237060546875</AltitudeMeters>
            <DistanceMeters>NAN</DistanceMeters>
          </Trackpoint>
          <Trackpoint>
            <Time>2022-07-13T15:52:49.000Z</Time>
            <Position>
              <LatitudeDegrees>43.46397106535732746124267578125</LatitudeDegrees>
              <LongitudeDegrees>-3.72003103606402873992919921875</LongitudeDegrees>
            </Position>
            <AltitudeMeters>30.799999237060546875</AltitudeMeters>
            <DistanceMeters>NAN</DistanceMeters>
          </Trackpoint>
          <Trackpoint>
            <Time>2022-07-13T15:52:51.000Z</Time>
            <Position>
              <LatitudeDegrees>43.46386360935866832733154296875</LatitudeDegrees>
              <LongitudeDegrees>-3.72001209296286106109619140625</LongitudeDegrees>
            </Position>
            <AltitudeMeters>30.200000762939453125</AltitudeMeters>
            <DistanceMeters>NAN</DistanceMeters>
          </Trackpoint>
          <Trackpoint>
            <Time>2022-07-13T15:52:53.000Z</Time>
            <Position>
              <LatitudeDegrees>43.46374860964715480804443359375</LatitudeDegrees>
              <LongitudeDegrees>-3.7200084887444972991943359375</LongitudeDegrees>
            </Position>
            <AltitudeMeters>29.799999237060546875</AltitudeMeters>
            <DistanceMeters>NAN</DistanceMeters>
          </Trackpoint>
          <Trackpoint>
            <Time>2022-07-13T15:52:56.000Z</Time>
            <Position>
              <LatitudeDegrees>43.46355800516903400421142578125</LatitudeDegrees>
              <LongitudeDegrees>-3.7200148589909076690673828125</LongitudeDegrees>
            </Position>
            <AltitudeMeters>29.6000003814697265625</AltitudeMeters>
            <DistanceMeters>NAN</DistanceMeters>
          </Trackpoint>
          <Trackpoint>
            <Time>2022-07-13T15:52:58.000Z</Time>
            <Position>
              <LatitudeDegrees>43.46343495883047580718994140625</LatitudeDegrees>
              <LongitudeDegrees>-3.72005618177354335784912109375</LongitudeDegrees>
            </Position>
            <AltitudeMeters>29.200000762939453125</AltitudeMeters>
            <DistanceMeters>NAN</DistanceMeters>
          </Trackpoint>
          <Trackpoint>
            <Time>2022-07-13T15:52:59.000Z</Time>
            <Position>
              <LatitudeDegrees>43.4633852541446685791015625</LatitudeDegrees>
              <LongitudeDegrees>-3.72010965831577777862548828125</LongitudeDegrees>
            </Position>
            <AltitudeMeters>29</AltitudeMeters>
            <DistanceMeters>NAN</DistanceMeters>
          </Trackpoint>
          <Trackpoint>
            <Time>2022-07-13T15:53:00.000Z</Time>
            <Position>
              <LatitudeDegrees>43.46334929578006267547607421875</LatitudeDegrees>
              <LongitudeDegrees>-3.720180653035640716552734375</LongitudeDegrees>
            </Position>
            <AltitudeMeters>28.799999237060546875</AltitudeMeters>
            <DistanceMeters>NAN</DistanceMeters>
          </Trackpoint>
          <Trackpoint>
            <Time>2022-07-13T15:53:02.000Z</Time>
            <Position>
              <LatitudeDegrees>43.4633079729974269866943359375</LatitudeDegrees>
              <LongitudeDegrees>-3.72036832384765148162841796875</LongitudeDegrees>
            </Position>
            <AltitudeMeters>28.6000003814697265625</AltitudeMeters>
            <DistanceMeters>NAN</DistanceMeters>
          </Trackpoint>
          <Trackpoint>
            <Time>2022-07-13T15:53:04.000Z</Time>
            <Position>
              <LatitudeDegrees>43.46325843594968318939208984375</LatitudeDegrees>
              <LongitudeDegrees>-3.72053478844463825225830078125</LongitudeDegrees>
            </Position>
            <AltitudeMeters>28.6000003814697265625</AltitudeMeters>
            <DistanceMeters>NAN</DistanceMeters>
          </Trackpoint>
          <Trackpoint>
            <Time>2022-07-13T15:53:06.000Z</Time>
            <Position>
              <LatitudeDegrees>43.463163636624813079833984375</LatitudeDegrees>
              <LongitudeDegrees>-3.72067091055214405059814453125</LongitudeDegrees>
            </Position>
            <AltitudeMeters>28.6000003814697265625</AltitudeMeters>
            <DistanceMeters>NAN</DistanceMeters>
          </Trackpoint>
          <Trackpoint>
            <Time>2022-07-13T15:53:08.000Z</Time>
            <Position>
              <LatitudeDegrees>43.46303078345954418182373046875</LatitudeDegrees>
              <LongitudeDegrees>-3.72074618004262447357177734375</LongitudeDegrees>
            </Position>
            <AltitudeMeters>28.3999996185302734375</AltitudeMeters>
            <DistanceMeters>NAN</DistanceMeters>
          </Trackpoint>
          <Trackpoint>
            <Time>2022-07-13T15:53:09.000Z</Time>
            <Position>
              <LatitudeDegrees>43.462957441806793212890625</LatitudeDegrees>
              <LongitudeDegrees>-3.7207618542015552520751953125</LongitudeDegrees>
            </Position>
            <AltitudeMeters>28</AltitudeMeters>
            <DistanceMeters>NAN</DistanceMeters>
          </Trackpoint>
          <Trackpoint>
            <Time>2022-07-13T15:53:10.000Z</Time>
            <Position>
              <LatitudeDegrees>43.46288393251597881317138671875</LatitudeDegrees>
              <LongitudeDegrees>-3.72077015228569507598876953125</LongitudeDegrees>
            </Position>
            <AltitudeMeters>27.799999237060546875</AltitudeMeters>
            <DistanceMeters>NAN</DistanceMeters>
          </Trackpoint>
          <Trackpoint>
            <Time>2022-07-13T15:53:16.000Z</Time>
            <Position>
              <LatitudeDegrees>43.4624841995537281036376953125</LatitudeDegrees>
              <LongitudeDegrees>-3.7208158336579799652099609375</LongitudeDegrees>
            </Position>
            <AltitudeMeters>27.6000003814697265625</AltitudeMeters>
            <DistanceMeters>NAN</DistanceMeters>
          </Trackpoint>
          <Trackpoint>
            <Time>2022-07-13T15:53:18.000Z</Time>
            <Position>
              <LatitudeDegrees>43.4623601473867893218994140625</LatitudeDegrees>
              <LongitudeDegrees>-3.720835112035274505615234375</LongitudeDegrees>
            </Position>
            <AltitudeMeters>27.799999237060546875</AltitudeMeters>
            <DistanceMeters>NAN</DistanceMeters>
          </Trackpoint>
          <Trackpoint>
            <Time>2022-07-13T15:53:21.000Z</Time>
            <Position>
              <LatitudeDegrees>43.46217230893671512603759765625</LatitudeDegrees>
              <LongitudeDegrees>-3.72091650031507015228271484375</LongitudeDegrees>
            </Position>
            <AltitudeMeters>27.799999237060546875</AltitudeMeters>
            <DistanceMeters>NAN</DistanceMeters>
          </Trackpoint>
          <Trackpoint>
            <Time>2022-07-13T15:53:23.000Z</Time>
            <Position>
              <LatitudeDegrees>43.46206351183354854583740234375</LatitudeDegrees>
              <LongitudeDegrees>-3.7209301628172397613525390625</LongitudeDegrees>
            </Position>
            <AltitudeMeters>27.799999237060546875</AltitudeMeters>
            <DistanceMeters>NAN</DistanceMeters>
          </Trackpoint>
          <Trackpoint>
            <Time>2022-07-13T15:53:24.000Z</Time>
            <Position>
              <LatitudeDegrees>43.46201556734740734100341796875</LatitudeDegrees>
              <LongitudeDegrees>-3.72091432102024555206298828125</LongitudeDegrees>
            </Position>
            <AltitudeMeters>28</AltitudeMeters>
            <DistanceMeters>NAN</DistanceMeters>
          </Trackpoint>
          <Trackpoint>
            <Time>2022-07-13T15:53:25.000Z</Time>
            <Position>
              <LatitudeDegrees>43.46197365783154964447021484375</LatitudeDegrees>
              <LongitudeDegrees>-3.7208882533013820648193359375</LongitudeDegrees>
            </Position>
            <AltitudeMeters>28.3999996185302734375</AltitudeMeters>
            <DistanceMeters>NAN</DistanceMeters>
          </Trackpoint>
          <Trackpoint>
            <Time>2022-07-13T15:53:26.000Z</Time>
            <Position>
              <LatitudeDegrees>43.461938537657260894775390625</LatitudeDegrees>
              <LongitudeDegrees>-3.72086159884929656982421875</LongitudeDegrees>
            </Position>
            <AltitudeMeters>28.799999237060546875</AltitudeMeters>
            <DistanceMeters>NAN</DistanceMeters>
          </Trackpoint>
          <Trackpoint>
            <Time>2022-07-13T15:53:28.000Z</Time>
            <Position>
              <LatitudeDegrees>43.46187726594507694244384765625</LatitudeDegrees>
              <LongitudeDegrees>-3.72081072069704532623291015625</LongitudeDegrees>
            </Position>
            <AltitudeMeters>29.3999996185302734375</AltitudeMeters>
            <DistanceMeters>NAN</DistanceMeters>
          </Trackpoint>
          <Trackpoint>
            <Time>2022-07-13T15:53:29.000Z</Time>
            <Position>
              <LatitudeDegrees>43.46185228787362575531005859375</LatitudeDegrees>
              <LongitudeDegrees>-3.72079630382359027862548828125</LongitudeDegrees>
            </Position>
            <AltitudeMeters>29.799999237060546875</AltitudeMeters>
            <DistanceMeters>NAN</DistanceMeters>
          </Trackpoint>
          <Trackpoint>
            <Time>2022-07-13T15:53:32.000Z</Time>
            <Position>
              <LatitudeDegrees>43.46179411746561527252197265625</LatitudeDegrees>
              <LongitudeDegrees>-3.720762021839618682861328125</LongitudeDegrees>
            </Position>
            <AltitudeMeters>31</AltitudeMeters>
            <DistanceMeters>NAN</DistanceMeters>
          </Trackpoint>
          <Trackpoint>
            <Time>2022-07-13T15:53:34.000Z</Time>
            <Position>
              <LatitudeDegrees>43.46175514161586761474609375</LatitudeDegrees>
              <LongitudeDegrees>-3.72073980979621410369873046875</LongitudeDegrees>
            </Position>
            <AltitudeMeters>31.6000003814697265625</AltitudeMeters>
            <DistanceMeters>NAN</DistanceMeters>
          </Trackpoint>
          <Trackpoint>
            <Time>2022-07-13T15:53:36.000Z</Time>
            <Position>
              <LatitudeDegrees>43.46171331591904163360595703125</LatitudeDegrees>
              <LongitudeDegrees>-3.72072908096015453338623046875</LongitudeDegrees>
            </Position>
            <AltitudeMeters>32.40000152587890625</AltitudeMeters>
            <DistanceMeters>NAN</DistanceMeters>
          </Trackpoint>
          <Trackpoint>
            <Time>2022-07-13T15:53:39.000Z</Time>
            <Position>
              <LatitudeDegrees>43.4616523794829845428466796875</LatitudeDegrees>
              <LongitudeDegrees>-3.720721118152141571044921875</LongitudeDegrees>
            </Position>
            <AltitudeMeters>33.40000152587890625</AltitudeMeters>
            <DistanceMeters>NAN</DistanceMeters>
          </Trackpoint>
          <Trackpoint>
            <Time>2022-07-13T15:53:40.000Z</Time>
            <Position>
              <LatitudeDegrees>43.461634777486324310302734375</LatitudeDegrees>
              <LongitudeDegrees>-3.72072489000856876373291015625</LongitudeDegrees>
            </Position>
            <AltitudeMeters>33.59999847412109375</AltitudeMeters>
            <DistanceMeters>NAN</DistanceMeters>
          </Trackpoint>
          <Trackpoint>
            <Time>2022-07-13T15:53:42.000Z</Time>
            <Position>
              <LatitudeDegrees>43.4615984000265598297119140625</LatitudeDegrees>
              <LongitudeDegrees>-3.7207350321114063262939453125</LongitudeDegrees>
            </Position>
            <AltitudeMeters>34.200000762939453125</AltitudeMeters>
            <DistanceMeters>NAN</DistanceMeters>
          </Trackpoint>
          <Trackpoint>
            <Time>2022-07-13T15:53:44.000Z</Time>
            <Position>
              <LatitudeDegrees>43.46156537532806396484375</LatitudeDegrees>
              <LongitudeDegrees>-3.72075875289738178253173828125</LongitudeDegrees>
            </Position>
            <AltitudeMeters>34.59999847412109375</AltitudeMeters>
            <DistanceMeters>NAN</DistanceMeters>
          </Trackpoint>
          <Trackpoint>
            <Time>2022-07-13T15:53:46.000Z</Time>
            <Position>
              <LatitudeDegrees>43.46153578720986843109130859375</LatitudeDegrees>
              <LongitudeDegrees>-3.72080200351774692535400390625</LongitudeDegrees>
            </Position>
            <AltitudeMeters>34.799999237060546875</AltitudeMeters>
            <DistanceMeters>NAN</DistanceMeters>
          </Trackpoint>
          <Trackpoint>
            <Time>2022-07-13T15:53:47.000Z</Time>
            <Position>
              <LatitudeDegrees>43.46152572892606258392333984375</LatitudeDegrees>
              <LongitudeDegrees>-3.72081541456282138824462890625</LongitudeDegrees>
            </Position>
            <AltitudeMeters>34.799999237060546875</AltitudeMeters>
            <DistanceMeters>NAN</DistanceMeters>
          </Trackpoint>
          <Trackpoint>
            <Time>2022-07-13T15:53:50.000Z</Time>
            <Position>
              <LatitudeDegrees>43.4615209512412548065185546875</LatitudeDegrees>
              <LongitudeDegrees>-3.72082010842859745025634765625</LongitudeDegrees>
            </Position>
            <AltitudeMeters>34.799999237060546875</AltitudeMeters>
            <DistanceMeters>NAN</DistanceMeters>
          </Trackpoint>
          <Trackpoint>
            <Time>2022-07-13T15:53:53.000Z</Time>
            <Position>
              <LatitudeDegrees>43.46148499287664890289306640625</LatitudeDegrees>
              <LongitudeDegrees>-3.72081306762993335723876953125</LongitudeDegrees>
            </Position>
            <AltitudeMeters>34.799999237060546875</AltitudeMeters>
            <DistanceMeters>NAN</DistanceMeters>
          </Trackpoint>
          <Trackpoint>
            <Time>2022-07-13T15:53:55.000Z</Time>
            <Position>
              <LatitudeDegrees>43.4614736773073673248291015625</LatitudeDegrees>
              <LongitudeDegrees>-3.72078943066298961639404296875</LongitudeDegrees>
            </Position>
            <AltitudeMeters>34.799999237060546875</AltitudeMeters>
            <DistanceMeters>NAN</DistanceMeters>
          </Trackpoint>
          <Trackpoint>
            <Time>2022-07-13T15:53:57.000Z</Time>
            <Position>
              <LatitudeDegrees>43.46148482523858547210693359375</LatitudeDegrees>
              <LongitudeDegrees>-3.7207477726042270660400390625</LongitudeDegrees>
            </Position>
            <AltitudeMeters>34.799999237060546875</AltitudeMeters>
            <DistanceMeters>NAN</DistanceMeters>
          </Trackpoint>
          <Trackpoint>
            <Time>2022-07-13T15:54:01.000Z</Time>
            <Position>
              <LatitudeDegrees>43.46148432232439517974853515625</LatitudeDegrees>
              <LongitudeDegrees>-3.72062263078987598419189453125</LongitudeDegrees>
            </Position>
            <AltitudeMeters>35.59999847412109375</AltitudeMeters>
            <DistanceMeters>NAN</DistanceMeters>
          </Trackpoint>
          <Trackpoint>
            <Time>2022-07-13T15:54:03.000Z</Time>
            <Position>
              <LatitudeDegrees>43.46147024072706699371337890625</LatitudeDegrees>
              <LongitudeDegrees>-3.720564208924770355224609375</LongitudeDegrees>
            </Position>
            <AltitudeMeters>36</AltitudeMeters>
            <DistanceMeters>NAN</DistanceMeters>
          </Trackpoint>
          <Trackpoint>
            <Time>2022-07-13T15:54:05.000Z</Time>
            <Position>
              <LatitudeDegrees>43.46145649440586566925048828125</LatitudeDegrees>
              <LongitudeDegrees>-3.72051182202994823455810546875</LongitudeDegrees>
            </Position>
            <AltitudeMeters>36.799999237060546875</AltitudeMeters>
            <DistanceMeters>NAN</DistanceMeters>
          </Trackpoint>
          <Trackpoint>
            <Time>2022-07-13T15:54:10.000Z</Time>
            <Position>
              <LatitudeDegrees>43.4614123217761516571044921875</LatitudeDegrees>
              <LongitudeDegrees>-3.7203772924840450286865234375</LongitudeDegrees>
            </Position>
            <AltitudeMeters>37.799999237060546875</AltitudeMeters>
            <DistanceMeters>NAN</DistanceMeters>
          </Trackpoint>
          <Trackpoint>
            <Time>2022-07-13T15:54:17.000Z</Time>
            <Position>
              <LatitudeDegrees>43.4613378904759883880615234375</LatitudeDegrees>
              <LongitudeDegrees>-3.72027578763663768768310546875</LongitudeDegrees>
            </Position>
            <AltitudeMeters>38.799999237060546875</AltitudeMeters>
            <DistanceMeters>NAN</DistanceMeters>
          </Trackpoint>
          <Trackpoint>
            <Time>2022-07-13T15:54:21.000Z</Time>
            <Position>
              <LatitudeDegrees>43.4612795524299144744873046875</LatitudeDegrees>
              <LongitudeDegrees>-3.72018978931009769439697265625</LongitudeDegrees>
            </Position>
            <AltitudeMeters>40.200000762939453125</AltitudeMeters>
            <DistanceMeters>NAN</DistanceMeters>
          </Trackpoint>
          <Trackpoint>
            <Time>2022-07-13T15:54:25.000Z</Time>
            <Position>
              <LatitudeDegrees>43.461217023432254791259765625</LatitudeDegrees>
              <LongitudeDegrees>-3.720120973885059356689453125</LongitudeDegrees>
            </Position>
            <AltitudeMeters>41</AltitudeMeters>
            <DistanceMeters>NAN</DistanceMeters>
          </Trackpoint>
          <Trackpoint>
            <Time>2022-07-13T15:54:28.000Z</Time>
            <Position>
              <LatitudeDegrees>43.461164049804210662841796875</LatitudeDegrees>
              <LongitudeDegrees>-3.720087446272373199462890625</LongitudeDegrees>
            </Position>
            <AltitudeMeters>41.200000762939453125</AltitudeMeters>
            <DistanceMeters>NAN</DistanceMeters>
          </Trackpoint>
          <Trackpoint>
            <Time>2022-07-13T15:54:30.000Z</Time>
            <Position>
              <LatitudeDegrees>43.46112322993576526641845703125</LatitudeDegrees>
              <LongitudeDegrees>-3.72011384926736354827880859375</LongitudeDegrees>
            </Position>
            <AltitudeMeters>41.59999847412109375</AltitudeMeters>
            <DistanceMeters>NAN</DistanceMeters>
          </Trackpoint>
          <Trackpoint>
            <Time>2022-07-13T15:54:35.000Z</Time>
            <Position>
              <LatitudeDegrees>43.461036980152130126953125</LatitudeDegrees>
              <LongitudeDegrees>-3.7202894501388072967529296875</LongitudeDegrees>
            </Position>
            <AltitudeMeters>41.799999237060546875</AltitudeMeters>
            <DistanceMeters>NAN</DistanceMeters>
          </Trackpoint>
          <Trackpoint>
            <Time>2022-07-13T15:54:43.000Z</Time>
            <Position>
              <LatitudeDegrees>43.46084997989237308502197265625</LatitudeDegrees>
              <LongitudeDegrees>-3.7206143327057361602783203125</LongitudeDegrees>
            </Position>
            <AltitudeMeters>41.799999237060546875</AltitudeMeters>
            <DistanceMeters>NAN</DistanceMeters>
          </Trackpoint>
          <Trackpoint>
            <Time>2022-07-13T15:54:47.000Z</Time>
            <Position>
              <LatitudeDegrees>43.4606810845434665679931640625</LatitudeDegrees>
              <LongitudeDegrees>-3.7206186912953853607177734375</LongitudeDegrees>
            </Position>
            <AltitudeMeters>41.59999847412109375</AltitudeMeters>
            <DistanceMeters>NAN</DistanceMeters>
          </Trackpoint>
          <Trackpoint>
            <Time>2022-07-13T15:54:51.000Z</Time>
            <Position>
              <LatitudeDegrees>43.46048704348504543304443359375</LatitudeDegrees>
              <LongitudeDegrees>-3.72056119143962860107421875</LongitudeDegrees>
            </Position>
            <AltitudeMeters>41.799999237060546875</AltitudeMeters>
            <DistanceMeters>NAN</DistanceMeters>
          </Trackpoint>
          <Trackpoint>
            <Time>2022-07-13T15:54:52.000Z</Time>
            <Position>
              <LatitudeDegrees>43.46043809317052364349365234375</LatitudeDegrees>
              <LongitudeDegrees>-3.72054509818553924560546875</LongitudeDegrees>
            </Position>
            <AltitudeMeters>41.799999237060546875</AltitudeMeters>
            <DistanceMeters>NAN</DistanceMeters>
          </Trackpoint>
          <Trackpoint>
            <Time>2022-07-13T15:54:57.000Z</Time>
            <Position>
              <LatitudeDegrees>43.46017490141093730926513671875</LatitudeDegrees>
              <LongitudeDegrees>-3.72048206627368927001953125</LongitudeDegrees>
            </Position>
            <AltitudeMeters>40</AltitudeMeters>
            <DistanceMeters>NAN</DistanceMeters>
          </Trackpoint>
          <Trackpoint>
            <Time>2022-07-13T15:54:59.000Z</Time>
            <Position>
              <LatitudeDegrees>43.46003794111311435699462890625</LatitudeDegrees>
              <LongitudeDegrees>-3.720442168414592742919921875</LongitudeDegrees>
            </Position>
            <AltitudeMeters>39</AltitudeMeters>
            <DistanceMeters>NAN</DistanceMeters>
          </Trackpoint>
          <Trackpoint>
            <Time>2022-07-13T15:55:00.000Z</Time>
            <Position>
              <LatitudeDegrees>43.45996418036520481109619140625</LatitudeDegrees>
              <LongitudeDegrees>-3.72043110430240631103515625</LongitudeDegrees>
            </Position>
            <AltitudeMeters>38.799999237060546875</AltitudeMeters>
            <DistanceMeters>NAN</DistanceMeters>
          </Trackpoint>
          <Trackpoint>
            <Time>2022-07-13T15:55:03.000Z</Time>
            <Position>
              <LatitudeDegrees>43.45973334275186061859130859375</LatitudeDegrees>
              <LongitudeDegrees>-3.7204396538436412811279296875</LongitudeDegrees>
            </Position>
            <AltitudeMeters>38</AltitudeMeters>
            <DistanceMeters>NAN</DistanceMeters>
          </Trackpoint>
          <Trackpoint>
            <Time>2022-07-13T15:55:04.000Z</Time>
            <Position>
              <LatitudeDegrees>43.459647595882415771484375</LatitudeDegrees>
              <LongitudeDegrees>-3.72047376818954944610595703125</LongitudeDegrees>
            </Position>
            <AltitudeMeters>37.799999237060546875</AltitudeMeters>
            <DistanceMeters>NAN</DistanceMeters>
          </Trackpoint>
          <Trackpoint>
            <Time>2022-07-13T15:55:09.000Z</Time>
            <Position>
              <LatitudeDegrees>43.45923026092350482940673828125</LatitudeDegrees>
              <LongitudeDegrees>-3.7207015044987201690673828125</LongitudeDegrees>
            </Position>
            <AltitudeMeters>36.59999847412109375</AltitudeMeters>
            <DistanceMeters>NAN</DistanceMeters>
          </Trackpoint>
          <Trackpoint>
            <Time>2022-07-13T15:55:10.000Z</Time>
            <Position>
              <LatitudeDegrees>43.4591314382851123809814453125</LatitudeDegrees>
              <LongitudeDegrees>-3.72073209844529628753662109375</LongitudeDegrees>
            </Position>
            <AltitudeMeters>36.40000152587890625</AltitudeMeters>
            <DistanceMeters>NAN</DistanceMeters>
          </Trackpoint>
          <Trackpoint>
            <Time>2022-07-13T15:55:11.000Z</Time>
            <Position>
              <LatitudeDegrees>43.4590486250817775726318359375</LatitudeDegrees>
              <LongitudeDegrees>-3.720746934413909912109375</LongitudeDegrees>
            </Position>
            <AltitudeMeters>35.40000152587890625</AltitudeMeters>
            <DistanceMeters>NAN</DistanceMeters>
          </Trackpoint>
          <Trackpoint>
            <Time>2022-07-13T15:55:13.000Z</Time>
            <Position>
              <LatitudeDegrees>43.4588702581822872161865234375</LatitudeDegrees>
              <LongitudeDegrees>-3.7207598425447940826416015625</LongitudeDegrees>
            </Position>
            <AltitudeMeters>34.200000762939453125</AltitudeMeters>
            <DistanceMeters>NAN</DistanceMeters>
          </Trackpoint>
          <Trackpoint>
            <Time>2022-07-13T15:55:14.000Z</Time>
            <Position>
              <LatitudeDegrees>43.4587747044861316680908203125</LatitudeDegrees>
              <LongitudeDegrees>-3.72075724415481090545654296875</LongitudeDegrees>
            </Position>
            <AltitudeMeters>33.40000152587890625</AltitudeMeters>
            <DistanceMeters>NAN</DistanceMeters>
          </Trackpoint>
          <Trackpoint>
            <Time>2022-07-13T15:55:15.000Z</Time>
            <Position>
              <LatitudeDegrees>43.45867655239999294281005859375</LatitudeDegrees>
              <LongitudeDegrees>-3.7207444198429584503173828125</LongitudeDegrees>
            </Position>
            <AltitudeMeters>33</AltitudeMeters>
            <DistanceMeters>NAN</DistanceMeters>
          </Trackpoint>
          <Trackpoint>
            <Time>2022-07-13T15:55:18.000Z</Time>
            <Position>
              <LatitudeDegrees>43.4583867900073528289794921875</LatitudeDegrees>
              <LongitudeDegrees>-3.7206968106329441070556640625</LongitudeDegrees>
            </Position>
            <AltitudeMeters>31.799999237060546875</AltitudeMeters>
            <DistanceMeters>NAN</DistanceMeters>
          </Trackpoint>
          <Trackpoint>
            <Time>2022-07-13T15:55:19.000Z</Time>
            <Position>
              <LatitudeDegrees>43.4582942537963390350341796875</LatitudeDegrees>
              <LongitudeDegrees>-3.720685578882694244384765625</LongitudeDegrees>
            </Position>
            <AltitudeMeters>31.3999996185302734375</AltitudeMeters>
            <DistanceMeters>NAN</DistanceMeters>
          </Trackpoint>
          <Trackpoint>
            <Time>2022-07-13T15:55:25.000Z</Time>
            <Position>
              <LatitudeDegrees>43.45779812894761562347412109375</LatitudeDegrees>
              <LongitudeDegrees>-3.72066487558186054229736328125</LongitudeDegrees>
            </Position>
            <AltitudeMeters>31</AltitudeMeters>
            <DistanceMeters>NAN</DistanceMeters>
          </Trackpoint>
          <Trackpoint>
            <Time>2022-07-13T15:55:30.000Z</Time>
            <Position>
              <LatitudeDegrees>43.45744424499571323394775390625</LatitudeDegrees>
              <LongitudeDegrees>-3.720639981329441070556640625</LongitudeDegrees>
            </Position>
            <AltitudeMeters>30.799999237060546875</AltitudeMeters>
            <DistanceMeters>NAN</DistanceMeters>
          </Trackpoint>
          <Trackpoint>
            <Time>2022-07-13T15:55:32.000Z</Time>
            <Position>
              <LatitudeDegrees>43.4573113918304443359375</LatitudeDegrees>
              <LongitudeDegrees>-3.72062749229371547698974609375</LongitudeDegrees>
            </Position>
            <AltitudeMeters>30.6000003814697265625</AltitudeMeters>
            <DistanceMeters>NAN</DistanceMeters>
          </Trackpoint>
          <Trackpoint>
            <Time>2022-07-13T15:55:40.000Z</Time>
            <Position>
              <LatitudeDegrees>43.45681442879140377044677734375</LatitudeDegrees>
              <LongitudeDegrees>-3.72060452587902545928955078125</LongitudeDegrees>
            </Position>
            <AltitudeMeters>30</AltitudeMeters>
            <DistanceMeters>NAN</DistanceMeters>
          </Trackpoint>
          <Trackpoint>
            <Time>2022-07-13T15:55:46.000Z</Time>
            <Position>
              <LatitudeDegrees>43.4564797393977642059326171875</LatitudeDegrees>
              <LongitudeDegrees>-3.7205935455858707427978515625</LongitudeDegrees>
            </Position>
            <AltitudeMeters>29.799999237060546875</AltitudeMeters>
            <DistanceMeters>NAN</DistanceMeters>
          </Trackpoint>
          <Trackpoint>
            <Time>2022-07-13T15:55:47.000Z</Time>
            <Position>
              <LatitudeDegrees>43.45643439330160617828369140625</LatitudeDegrees>
              <LongitudeDegrees>-3.72062095440924167633056640625</LongitudeDegrees>
            </Position>
            <AltitudeMeters>29.799999237060546875</AltitudeMeters>
            <DistanceMeters>NAN</DistanceMeters>
          </Trackpoint>
          <Trackpoint>
            <Time>2022-07-13T15:55:48.000Z</Time>
            <Position>
              <LatitudeDegrees>43.45640606246888637542724609375</LatitudeDegrees>
              <LongitudeDegrees>-3.720668144524097442626953125</LongitudeDegrees>
            </Position>
            <AltitudeMeters>29.799999237060546875</AltitudeMeters>
            <DistanceMeters>NAN</DistanceMeters>
          </Trackpoint>
          <Trackpoint>
            <Time>2022-07-13T15:55:50.000Z</Time>
            <Position>
              <LatitudeDegrees>43.45639063976705074310302734375</LatitudeDegrees>
              <LongitudeDegrees>-3.7207782827317714691162109375</LongitudeDegrees>
            </Position>
            <AltitudeMeters>30</AltitudeMeters>
            <DistanceMeters>NAN</DistanceMeters>
          </Trackpoint>
          <Trackpoint>
            <Time>2022-07-13T15:55:57.000Z</Time>
            <Position>
              <LatitudeDegrees>43.45635342411696910858154296875</LatitudeDegrees>
              <LongitudeDegrees>-3.72113920748233795166015625</LongitudeDegrees>
            </Position>
            <AltitudeMeters>31.200000762939453125</AltitudeMeters>
            <DistanceMeters>NAN</DistanceMeters>
          </Trackpoint>
          <Trackpoint>
            <Time>2022-07-13T15:56:00.000Z</Time>
            <Position>
              <LatitudeDegrees>43.45633984543383121490478515625</LatitudeDegrees>
              <LongitudeDegrees>-3.7212681211531162261962890625</LongitudeDegrees>
            </Position>
            <AltitudeMeters>31.799999237060546875</AltitudeMeters>
            <DistanceMeters>NAN</DistanceMeters>
          </Trackpoint>
          <Trackpoint>
            <Time>2022-07-13T15:56:03.000Z</Time>
            <Position>
              <LatitudeDegrees>43.45632635056972503662109375</LatitudeDegrees>
              <LongitudeDegrees>-3.72139938175678253173828125</LongitudeDegrees>
            </Position>
            <AltitudeMeters>32.200000762939453125</AltitudeMeters>
            <DistanceMeters>NAN</DistanceMeters>
          </Trackpoint>
          <Trackpoint>
            <Time>2022-07-13T15:56:09.000Z</Time>
            <Position>
              <LatitudeDegrees>43.45628678798675537109375</LatitudeDegrees>
              <LongitudeDegrees>-3.72170783579349517822265625</LongitudeDegrees>
            </Position>
            <AltitudeMeters>33</AltitudeMeters>
            <DistanceMeters>NAN</DistanceMeters>
          </Trackpoint>
          <Trackpoint>
            <Time>2022-07-13T15:56:10.000Z</Time>
            <Position>
              <LatitudeDegrees>43.4562799148261547088623046875</LatitudeDegrees>
              <LongitudeDegrees>-3.7217562831938266754150390625</LongitudeDegrees>
            </Position>
            <AltitudeMeters>33</AltitudeMeters>
            <DistanceMeters>NAN</DistanceMeters>
          </Trackpoint>
          <Trackpoint>
            <Time>2022-07-13T15:56:15.000Z</Time>
            <Position>
              <LatitudeDegrees>43.45623959787189960479736328125</LatitudeDegrees>
              <LongitudeDegrees>-3.72198184020817279815673828125</LongitudeDegrees>
            </Position>
            <AltitudeMeters>34</AltitudeMeters>
            <DistanceMeters>NAN</DistanceMeters>
          </Trackpoint>
          <Trackpoint>
            <Time>2022-07-13T15:56:18.000Z</Time>
            <Position>
              <LatitudeDegrees>43.4562279470264911651611328125</LatitudeDegrees>
              <LongitudeDegrees>-3.72209885157644748687744140625</LongitudeDegrees>
            </Position>
            <AltitudeMeters>34.40000152587890625</AltitudeMeters>
            <DistanceMeters>NAN</DistanceMeters>
          </Trackpoint>
          <Trackpoint>
            <Time>2022-07-13T15:56:20.000Z</Time>
            <Position>
              <LatitudeDegrees>43.456214703619480133056640625</LatitudeDegrees>
              <LongitudeDegrees>-3.722177557647228240966796875</LongitudeDegrees>
            </Position>
            <AltitudeMeters>34.59999847412109375</AltitudeMeters>
            <DistanceMeters>NAN</DistanceMeters>
          </Trackpoint>
          <Trackpoint>
            <Time>2022-07-13T15:56:21.000Z</Time>
            <Position>
              <LatitudeDegrees>43.45620489679276943206787109375</LatitudeDegrees>
              <LongitudeDegrees>-3.72221536003053188323974609375</LongitudeDegrees>
            </Position>
            <AltitudeMeters>34.799999237060546875</AltitudeMeters>
            <DistanceMeters>NAN</DistanceMeters>
          </Trackpoint>
          <Trackpoint>
            <Time>2022-07-13T15:56:23.000Z</Time>
            <Position>
              <LatitudeDegrees>43.45619232393801212310791015625</LatitudeDegrees>
              <LongitudeDegrees>-3.722289539873600006103515625</LongitudeDegrees>
            </Position>
            <AltitudeMeters>35</AltitudeMeters>
            <DistanceMeters>NAN</DistanceMeters>
          </Trackpoint>
          <Trackpoint>
            <Time>2022-07-13T15:56:24.000Z</Time>
            <Position>
              <LatitudeDegrees>43.45618695951998233795166015625</LatitudeDegrees>
              <LongitudeDegrees>-3.7223269231617450714111328125</LongitudeDegrees>
            </Position>
            <AltitudeMeters>35.200000762939453125</AltitudeMeters>
            <DistanceMeters>NAN</DistanceMeters>
          </Trackpoint>
          <Trackpoint>
            <Time>2022-07-13T15:56:29.000Z</Time>
            <Position>
              <LatitudeDegrees>43.45617036335170269012451171875</LatitudeDegrees>
              <LongitudeDegrees>-3.72251509688794612884521484375</LongitudeDegrees>
            </Position>
            <AltitudeMeters>35.799999237060546875</AltitudeMeters>
            <DistanceMeters>NAN</DistanceMeters>
          </Trackpoint>
          <Trackpoint>
            <Time>2022-07-13T15:56:32.000Z</Time>
            <Position>
              <LatitudeDegrees>43.4561867080628871917724609375</LatitudeDegrees>
              <LongitudeDegrees>-3.7226179428398609161376953125</LongitudeDegrees>
            </Position>
            <AltitudeMeters>36.200000762939453125</AltitudeMeters>
            <DistanceMeters>NAN</DistanceMeters>
          </Trackpoint>
          <Trackpoint>
            <Time>2022-07-13T15:56:35.000Z</Time>
            <Position>
              <LatitudeDegrees>43.45621109940111637115478515625</LatitudeDegrees>
              <LongitudeDegrees>-3.72270771302282810211181640625</LongitudeDegrees>
            </Position>
            <AltitudeMeters>36.59999847412109375</AltitudeMeters>
            <DistanceMeters>NAN</DistanceMeters>
          </Trackpoint>
          <Trackpoint>
            <Time>2022-07-13T15:56:36.000Z</Time>
            <Position>
              <LatitudeDegrees>43.45621529035270214080810546875</LatitudeDegrees>
              <LongitudeDegrees>-3.72273755259811878204345703125</LongitudeDegrees>
            </Position>
            <AltitudeMeters>36.59999847412109375</AltitudeMeters>
            <DistanceMeters>NAN</DistanceMeters>
          </Trackpoint>
          <Trackpoint>
            <Time>2022-07-13T15:56:42.000Z</Time>
            <Position>
              <LatitudeDegrees>43.4562319703400135040283203125</LatitudeDegrees>
              <LongitudeDegrees>-3.72291306965053081512451171875</LongitudeDegrees>
            </Position>
            <AltitudeMeters>37.40000152587890625</AltitudeMeters>
            <DistanceMeters>NAN</DistanceMeters>
          </Trackpoint>
          <Trackpoint>
            <Time>2022-07-13T15:56:49.000Z</Time>
            <Position>
              <LatitudeDegrees>43.45619433559477329254150390625</LatitudeDegrees>
              <LongitudeDegrees>-3.723131753504276275634765625</LongitudeDegrees>
            </Position>
            <AltitudeMeters>38.200000762939453125</AltitudeMeters>
            <DistanceMeters>NAN</DistanceMeters>
          </Trackpoint>
          <Trackpoint>
            <Time>2022-07-13T15:56:50.000Z</Time>
            <Position>
              <LatitudeDegrees>43.45619064755737781524658203125</LatitudeDegrees>
              <LongitudeDegrees>-3.723160587251186370849609375</LongitudeDegrees>
            </Position>
            <AltitudeMeters>38.40000152587890625</AltitudeMeters>
            <DistanceMeters>NAN</DistanceMeters>
          </Trackpoint>
          <Trackpoint>
            <Time>2022-07-13T15:56:51.000Z</Time>
            <Position>
              <LatitudeDegrees>43.45618779771029949188232421875</LatitudeDegrees>
              <LongitudeDegrees>-3.7231875769793987274169921875</LongitudeDegrees>
            </Position>
            <AltitudeMeters>38.59999847412109375</AltitudeMeters>
            <DistanceMeters>NAN</DistanceMeters>
          </Trackpoint>
          <Trackpoint>
            <Time>2022-07-13T15:56:57.000Z</Time>
            <Position>
              <LatitudeDegrees>43.456153012812137603759765625</LatitudeDegrees>
              <LongitudeDegrees>-3.7233592383563518524169921875</LongitudeDegrees>
            </Position>
            <AltitudeMeters>39.200000762939453125</AltitudeMeters>
            <DistanceMeters>NAN</DistanceMeters>
          </Trackpoint>
          <Trackpoint>
            <Time>2022-07-13T15:56:58.000Z</Time>
            <Position>
              <LatitudeDegrees>43.456148989498615264892578125</LatitudeDegrees>
              <LongitudeDegrees>-3.72338932938873767852783203125</LongitudeDegrees>
            </Position>
            <AltitudeMeters>39.200000762939453125</AltitudeMeters>
            <DistanceMeters>NAN</DistanceMeters>
          </Trackpoint>
          <Trackpoint>
            <Time>2022-07-13T15:57:01.000Z</Time>
            <Position>
              <LatitudeDegrees>43.45614186488091945648193359375</LatitudeDegrees>
              <LongitudeDegrees>-3.72348421253263950347900390625</LongitudeDegrees>
            </Position>
            <AltitudeMeters>39.59999847412109375</AltitudeMeters>
            <DistanceMeters>NAN</DistanceMeters>
          </Trackpoint>
          <Trackpoint>
            <Time>2022-07-13T15:57:02.000Z</Time>
            <Position>
              <LatitudeDegrees>43.45614538528025150299072265625</LatitudeDegrees>
              <LongitudeDegrees>-3.72351455502212047576904296875</LongitudeDegrees>
            </Position>
            <AltitudeMeters>39.59999847412109375</AltitudeMeters>
            <DistanceMeters>NAN</DistanceMeters>
          </Trackpoint>
          <Trackpoint>
            <Time>2022-07-13T15:57:05.000Z</Time>
            <Position>
              <LatitudeDegrees>43.456174470484256744384765625</LatitudeDegrees>
              <LongitudeDegrees>-3.72360893525183200836181640625</LongitudeDegrees>
            </Position>
            <AltitudeMeters>40</AltitudeMeters>
            <DistanceMeters>NAN</DistanceMeters>
          </Trackpoint>
          <Trackpoint>
            <Time>2022-07-13T15:57:13.000Z</Time>
            <Position>
              <LatitudeDegrees>43.45618293620645999908447265625</LatitudeDegrees>
              <LongitudeDegrees>-3.72387916781008243560791015625</LongitudeDegrees>
            </Position>
            <AltitudeMeters>40.59999847412109375</AltitudeMeters>
            <DistanceMeters>NAN</DistanceMeters>
          </Trackpoint>
          <Trackpoint>
            <Time>2022-07-13T15:57:15.000Z</Time>
            <Position>
              <LatitudeDegrees>43.45617103390395641326904296875</LatitudeDegrees>
              <LongitudeDegrees>-3.72394354082643985748291015625</LongitudeDegrees>
            </Position>
            <AltitudeMeters>40.59999847412109375</AltitudeMeters>
            <DistanceMeters>NAN</DistanceMeters>
          </Trackpoint>
          <Trackpoint>
            <Time>2022-07-13T15:57:18.000Z</Time>
            <Position>
              <LatitudeDegrees>43.4561766497790813446044921875</LatitudeDegrees>
              <LongitudeDegrees>-3.7240385077893733978271484375</LongitudeDegrees>
            </Position>
            <AltitudeMeters>41</AltitudeMeters>
            <DistanceMeters>NAN</DistanceMeters>
          </Trackpoint>
          <Trackpoint>
            <Time>2022-07-13T15:57:19.000Z</Time>
            <Position>
              <LatitudeDegrees>43.45618142746388912200927734375</LatitudeDegrees>
              <LongitudeDegrees>-3.72407111339271068572998046875</LongitudeDegrees>
            </Position>
            <AltitudeMeters>41</AltitudeMeters>
            <DistanceMeters>NAN</DistanceMeters>
          </Trackpoint>
          <Trackpoint>
            <Time>2022-07-13T15:57:20.000Z</Time>
            <Position>
              <LatitudeDegrees>43.4561863727867603302001953125</LatitudeDegrees>
              <LongitudeDegrees>-3.7241038866341114044189453125</LongitudeDegrees>
            </Position>
            <AltitudeMeters>41.200000762939453125</AltitudeMeters>
            <DistanceMeters>NAN</DistanceMeters>
          </Trackpoint>
          <Trackpoint>
            <Time>2022-07-13T15:57:24.000Z</Time>
            <Position>
              <LatitudeDegrees>43.45619760453701019287109375</LatitudeDegrees>
              <LongitudeDegrees>-3.72422601096332073211669921875</LongitudeDegrees>
            </Position>
            <AltitudeMeters>41.59999847412109375</AltitudeMeters>
            <DistanceMeters>NAN</DistanceMeters>
          </Trackpoint>
          <Trackpoint>
            <Time>2022-07-13T15:57:25.000Z</Time>
            <Position>
              <LatitudeDegrees>43.4561942517757415771484375</LatitudeDegrees>
              <LongitudeDegrees>-3.72425601817667484283447265625</LongitudeDegrees>
            </Position>
            <AltitudeMeters>41.59999847412109375</AltitudeMeters>
            <DistanceMeters>NAN</DistanceMeters>
          </Trackpoint>
          <Trackpoint>
            <Time>2022-07-13T15:57:27.000Z</Time>
            <Position>
              <LatitudeDegrees>43.4561857022345066070556640625</LatitudeDegrees>
              <LongitudeDegrees>-3.724314607679843902587890625</LongitudeDegrees>
            </Position>
            <AltitudeMeters>42</AltitudeMeters>
            <DistanceMeters>NAN</DistanceMeters>
          </Trackpoint>
          <Trackpoint>
            <Time>2022-07-13T15:57:33.000Z</Time>
            <Position>
              <LatitudeDegrees>43.45615913160145282745361328125</LatitudeDegrees>
              <LongitudeDegrees>-3.72449976392090320587158203125</LongitudeDegrees>
            </Position>
            <AltitudeMeters>42.59999847412109375</AltitudeMeters>
            <DistanceMeters>NAN</DistanceMeters>
          </Trackpoint>
          <Trackpoint>
            <Time>2022-07-13T15:57:36.000Z</Time>
            <Position>
              <LatitudeDegrees>43.45613767392933368682861328125</LatitudeDegrees>
              <LongitudeDegrees>-3.72460822574794292449951171875</LongitudeDegrees>
            </Position>
            <AltitudeMeters>43</AltitudeMeters>
            <DistanceMeters>NAN</DistanceMeters>
          </Trackpoint>
          <Trackpoint>
            <Time>2022-07-13T15:57:42.000Z</Time>
            <Position>
              <LatitudeDegrees>43.45608553849160671234130859375</LatitudeDegrees>
              <LongitudeDegrees>-3.72488583438098430633544921875</LongitudeDegrees>
            </Position>
            <AltitudeMeters>43</AltitudeMeters>
            <DistanceMeters>NAN</DistanceMeters>
          </Trackpoint>
          <Trackpoint>
            <Time>2022-07-13T15:57:46.000Z</Time>
            <Position>
              <LatitudeDegrees>43.456036336719989776611328125</LatitudeDegrees>
              <LongitudeDegrees>-3.72520887292921543121337890625</LongitudeDegrees>
            </Position>
            <AltitudeMeters>41.59999847412109375</AltitudeMeters>
            <DistanceMeters>NAN</DistanceMeters>
          </Trackpoint>
          <Trackpoint>
            <Time>2022-07-13T15:57:51.000Z</Time>
            <Position>
              <LatitudeDegrees>43.4559895657002925872802734375</LatitudeDegrees>
              <LongitudeDegrees>-3.7255713902413845062255859375</LongitudeDegrees>
            </Position>
            <AltitudeMeters>41</AltitudeMeters>
            <DistanceMeters>NAN</DistanceMeters>
          </Trackpoint>
          <Trackpoint>
            <Time>2022-07-13T15:57:52.000Z</Time>
            <Position>
              <LatitudeDegrees>43.45598143525421619415283203125</LatitudeDegrees>
              <LongitudeDegrees>-3.72562428005039691925048828125</LongitudeDegrees>
            </Position>
            <AltitudeMeters>41.59999847412109375</AltitudeMeters>
            <DistanceMeters>NAN</DistanceMeters>
          </Trackpoint>
          <Trackpoint>
            <Time>2022-07-13T15:57:58.000Z</Time>
            <Position>
              <LatitudeDegrees>43.45593567006289958953857421875</LatitudeDegrees>
              <LongitudeDegrees>-3.72587104327976703643798828125</LongitudeDegrees>
            </Position>
            <AltitudeMeters>42.59999847412109375</AltitudeMeters>
            <DistanceMeters>NAN</DistanceMeters>
          </Trackpoint>
          <Trackpoint>
            <Time>2022-07-13T15:58:03.000Z</Time>
            <Position>
              <LatitudeDegrees>43.4558930061757564544677734375</LatitudeDegrees>
              <LongitudeDegrees>-3.7260268628597259521484375</LongitudeDegrees>
            </Position>
            <AltitudeMeters>43.799999237060546875</AltitudeMeters>
            <DistanceMeters>NAN</DistanceMeters>
          </Trackpoint>
          <Trackpoint>
            <Time>2022-07-13T15:58:04.000Z</Time>
            <Position>
              <LatitudeDegrees>43.45588588155806064605712890625</LatitudeDegrees>
              <LongitudeDegrees>-3.72605175711214542388916015625</LongitudeDegrees>
            </Position>
            <AltitudeMeters>43.799999237060546875</AltitudeMeters>
            <DistanceMeters>NAN</DistanceMeters>
          </Trackpoint>
          <Trackpoint>
            <Time>2022-07-13T15:58:08.000Z</Time>
            <Position>
              <LatitudeDegrees>43.45586945302784442901611328125</LatitudeDegrees>
              <LongitudeDegrees>-3.72615586034953594207763671875</LongitudeDegrees>
            </Position>
            <AltitudeMeters>44.799999237060546875</AltitudeMeters>
            <DistanceMeters>NAN</DistanceMeters>
          </Trackpoint>
          <Trackpoint>
            <Time>2022-07-13T15:58:11.000Z</Time>
            <Position>
              <LatitudeDegrees>43.45585369504988193511962890625</LatitudeDegrees>
              <LongitudeDegrees>-3.726248480379581451416015625</LongitudeDegrees>
            </Position>
            <AltitudeMeters>45.200000762939453125</AltitudeMeters>
            <DistanceMeters>NAN</DistanceMeters>
          </Trackpoint>
          <Trackpoint>
            <Time>2022-07-13T15:58:14.000Z</Time>
            <Position>
              <LatitudeDegrees>43.45583693124353885650634765625</LatitudeDegrees>
              <LongitudeDegrees>-3.72633154504001140594482421875</LongitudeDegrees>
            </Position>
            <AltitudeMeters>45.799999237060546875</AltitudeMeters>
            <DistanceMeters>NAN</DistanceMeters>
          </Trackpoint>
          <Trackpoint>
            <Time>2022-07-13T15:58:15.000Z</Time>
            <Position>
              <LatitudeDegrees>43.4558309800922870635986328125</LatitudeDegrees>
              <LongitudeDegrees>-3.72635367326438426971435546875</LongitudeDegrees>
            </Position>
            <AltitudeMeters>46</AltitudeMeters>
            <DistanceMeters>NAN</DistanceMeters>
          </Trackpoint>
          <Trackpoint>
            <Time>2022-07-13T15:58:19.000Z</Time>
            <Position>
              <LatitudeDegrees>43.45580474473536014556884765625</LatitudeDegrees>
              <LongitudeDegrees>-3.72645392082631587982177734375</LongitudeDegrees>
            </Position>
            <AltitudeMeters>47.200000762939453125</AltitudeMeters>
            <DistanceMeters>NAN</DistanceMeters>
          </Trackpoint>
          <Trackpoint>
            <Time>2022-07-13T15:58:22.000Z</Time>
            <Position>
              <LatitudeDegrees>43.4558048285543918609619140625</LatitudeDegrees>
              <LongitudeDegrees>-3.72653874568641185760498046875</LongitudeDegrees>
            </Position>
            <AltitudeMeters>47.799999237060546875</AltitudeMeters>
            <DistanceMeters>NAN</DistanceMeters>
          </Trackpoint>
          <Trackpoint>
            <Time>2022-07-13T15:58:26.000Z</Time>
            <Position>
              <LatitudeDegrees>43.45578680746257305145263671875</LatitudeDegrees>
              <LongitudeDegrees>-3.72665810398757457733154296875</LongitudeDegrees>
            </Position>
            <AltitudeMeters>48.40000152587890625</AltitudeMeters>
            <DistanceMeters>NAN</DistanceMeters>
          </Trackpoint>
          <Trackpoint>
            <Time>2022-07-13T15:58:29.000Z</Time>
            <Position>
              <LatitudeDegrees>43.45574674196541309356689453125</LatitudeDegrees>
              <LongitudeDegrees>-3.72673203237354755401611328125</LongitudeDegrees>
            </Position>
            <AltitudeMeters>48.799999237060546875</AltitudeMeters>
            <DistanceMeters>NAN</DistanceMeters>
          </Trackpoint>
          <Trackpoint>
            <Time>2022-07-13T15:58:31.000Z</Time>
            <Position>
              <LatitudeDegrees>43.4557257033884525299072265625</LatitudeDegrees>
              <LongitudeDegrees>-3.7267877720296382904052734375</LongitudeDegrees>
            </Position>
            <AltitudeMeters>49.40000152587890625</AltitudeMeters>
            <DistanceMeters>NAN</DistanceMeters>
          </Trackpoint>
          <Trackpoint>
            <Time>2022-07-13T15:58:36.000Z</Time>
            <Position>
              <LatitudeDegrees>43.455688655376434326171875</LatitudeDegrees>
              <LongitudeDegrees>-3.72692951001226902008056640625</LongitudeDegrees>
            </Position>
            <AltitudeMeters>50.40000152587890625</AltitudeMeters>
            <DistanceMeters>NAN</DistanceMeters>
          </Trackpoint>
          <Trackpoint>
            <Time>2022-07-13T15:58:37.000Z</Time>
            <Position>
              <LatitudeDegrees>43.4556844644248485565185546875</LatitudeDegrees>
              <LongitudeDegrees>-3.72696018777787685394287109375</LongitudeDegrees>
            </Position>
            <AltitudeMeters>50.59999847412109375</AltitudeMeters>
            <DistanceMeters>NAN</DistanceMeters>
          </Trackpoint>
          <Trackpoint>
            <Time>2022-07-13T15:58:44.000Z</Time>
            <Position>
              <LatitudeDegrees>43.45565185882151126861572265625</LatitudeDegrees>
              <LongitudeDegrees>-3.72716587968170642852783203125</LongitudeDegrees>
            </Position>
            <AltitudeMeters>51.40000152587890625</AltitudeMeters>
            <DistanceMeters>NAN</DistanceMeters>
          </Trackpoint>
          <Trackpoint>
            <Time>2022-07-13T15:58:46.000Z</Time>
            <Position>
              <LatitudeDegrees>43.45564012415707111358642578125</LatitudeDegrees>
              <LongitudeDegrees>-3.72722488828003406524658203125</LongitudeDegrees>
            </Position>
            <AltitudeMeters>51.40000152587890625</AltitudeMeters>
            <DistanceMeters>NAN</DistanceMeters>
          </Trackpoint>
          <Trackpoint>
            <Time>2022-07-13T15:58:48.000Z</Time>
            <Position>
              <LatitudeDegrees>43.45563207753002643585205078125</LatitudeDegrees>
              <LongitudeDegrees>-3.72729110531508922576904296875</LongitudeDegrees>
            </Position>
            <AltitudeMeters>51.59999847412109375</AltitudeMeters>
            <DistanceMeters>NAN</DistanceMeters>
          </Trackpoint>
          <Trackpoint>
            <Time>2022-07-13T15:58:54.000Z</Time>
            <Position>
              <LatitudeDegrees>43.45562227070331573486328125</LatitudeDegrees>
              <LongitudeDegrees>-3.72749595902860164642333984375</LongitudeDegrees>
            </Position>
            <AltitudeMeters>52</AltitudeMeters>
            <DistanceMeters>NAN</DistanceMeters>
          </Trackpoint>
          <Trackpoint>
            <Time>2022-07-13T15:58:58.000Z</Time>
            <Position>
              <LatitudeDegrees>43.45560894347727298736572265625</LatitudeDegrees>
              <LongitudeDegrees>-3.72761950828135013580322265625</LongitudeDegrees>
            </Position>
            <AltitudeMeters>52.200000762939453125</AltitudeMeters>
            <DistanceMeters>NAN</DistanceMeters>
          </Trackpoint>
          <Trackpoint>
            <Time>2022-07-13T15:59:05.000Z</Time>
            <Position>
              <LatitudeDegrees>43.455583713948726654052734375</LatitudeDegrees>
              <LongitudeDegrees>-3.72788806445896625518798828125</LongitudeDegrees>
            </Position>
            <AltitudeMeters>52.200000762939453125</AltitudeMeters>
            <DistanceMeters>NAN</DistanceMeters>
          </Trackpoint>
          <Trackpoint>
            <Time>2022-07-13T15:59:11.000Z</Time>
            <Position>
              <LatitudeDegrees>43.45554725266993045806884765625</LatitudeDegrees>
              <LongitudeDegrees>-3.728120326995849609375</LongitudeDegrees>
            </Position>
            <AltitudeMeters>52.200000762939453125</AltitudeMeters>
            <DistanceMeters>NAN</DistanceMeters>
          </Trackpoint>
          <Trackpoint>
            <Time>2022-07-13T15:59:15.000Z</Time>
            <Position>
              <LatitudeDegrees>43.45552512444555759429931640625</LatitudeDegrees>
              <LongitudeDegrees>-3.72826223261654376983642578125</LongitudeDegrees>
            </Position>
            <AltitudeMeters>52.40000152587890625</AltitudeMeters>
            <DistanceMeters>NAN</DistanceMeters>
          </Trackpoint>
          <Trackpoint>
            <Time>2022-07-13T15:59:18.000Z</Time>
            <Position>
              <LatitudeDegrees>43.4555168263614177703857421875</LatitudeDegrees>
              <LongitudeDegrees>-3.7283726222813129425048828125</LongitudeDegrees>
            </Position>
            <AltitudeMeters>52.59999847412109375</AltitudeMeters>
            <DistanceMeters>NAN</DistanceMeters>
          </Trackpoint>
          <Trackpoint>
            <Time>2022-07-13T15:59:23.000Z</Time>
            <Position>
              <LatitudeDegrees>43.45550157129764556884765625</LatitudeDegrees>
              <LongitudeDegrees>-3.7285642325878143310546875</LongitudeDegrees>
            </Position>
            <AltitudeMeters>53</AltitudeMeters>
            <DistanceMeters>NAN</DistanceMeters>
          </Trackpoint>
          <Trackpoint>
            <Time>2022-07-13T15:59:30.000Z</Time>
            <Position>
              <LatitudeDegrees>43.4554886631667613983154296875</LatitudeDegrees>
              <LongitudeDegrees>-3.728878386318683624267578125</LongitudeDegrees>
            </Position>
            <AltitudeMeters>53.200000762939453125</AltitudeMeters>
            <DistanceMeters>NAN</DistanceMeters>
          </Trackpoint>
          <Trackpoint>
            <Time>2022-07-13T15:59:33.000Z</Time>
            <Position>
              <LatitudeDegrees>43.45548355020582675933837890625</LatitudeDegrees>
              <LongitudeDegrees>-3.72903504408895969390869140625</LongitudeDegrees>
            </Position>
            <AltitudeMeters>53.200000762939453125</AltitudeMeters>
            <DistanceMeters>NAN</DistanceMeters>
          </Trackpoint>
          <Trackpoint>
            <Time>2022-07-13T15:59:40.000Z</Time>
            <Position>
              <LatitudeDegrees>43.4554915130138397216796875</LatitudeDegrees>
              <LongitudeDegrees>-3.72941792942583560943603515625</LongitudeDegrees>
            </Position>
            <AltitudeMeters>53.40000152587890625</AltitudeMeters>
            <DistanceMeters>NAN</DistanceMeters>
          </Trackpoint>
          <Trackpoint>
            <Time>2022-07-13T15:59:41.000Z</Time>
            <Position>
              <LatitudeDegrees>43.45548757351934909820556640625</LatitudeDegrees>
              <LongitudeDegrees>-3.729474842548370361328125</LongitudeDegrees>
            </Position>
            <AltitudeMeters>53.40000152587890625</AltitudeMeters>
            <DistanceMeters>NAN</DistanceMeters>
          </Trackpoint>
          <Trackpoint>
            <Time>2022-07-13T15:59:46.000Z</Time>
            <Position>
              <LatitudeDegrees>43.45547650940716266632080078125</LatitudeDegrees>
              <LongitudeDegrees>-3.729748427867889404296875</LongitudeDegrees>
            </Position>
            <AltitudeMeters>53.200000762939453125</AltitudeMeters>
            <DistanceMeters>NAN</DistanceMeters>
          </Trackpoint>
          <Trackpoint>
            <Time>2022-07-13T15:59:49.000Z</Time>
            <Position>
              <LatitudeDegrees>43.45547030679881572723388671875</LatitudeDegrees>
              <LongitudeDegrees>-3.7298954464495182037353515625</LongitudeDegrees>
            </Position>
            <AltitudeMeters>53</AltitudeMeters>
            <DistanceMeters>NAN</DistanceMeters>
          </Trackpoint>
          <Trackpoint>
            <Time>2022-07-13T15:59:54.000Z</Time>
            <Position>
              <LatitudeDegrees>43.4554621763527393341064453125</LatitudeDegrees>
              <LongitudeDegrees>-3.7301252782344818115234375</LongitudeDegrees>
            </Position>
            <AltitudeMeters>53.799999237060546875</AltitudeMeters>
            <DistanceMeters>NAN</DistanceMeters>
          </Trackpoint>
          <Trackpoint>
            <Time>2022-07-13T15:59:58.000Z</Time>
            <Position>
              <LatitudeDegrees>43.4554539620876312255859375</LatitudeDegrees>
              <LongitudeDegrees>-3.73029618524014949798583984375</LongitudeDegrees>
            </Position>
            <AltitudeMeters>53.799999237060546875</AltitudeMeters>
            <DistanceMeters>NAN</DistanceMeters>
          </Trackpoint>
          <Trackpoint>
            <Time>2022-07-13T16:00:07.000Z</Time>
            <Position>
              <LatitudeDegrees>43.45541532151401042938232421875</LatitudeDegrees>
              <LongitudeDegrees>-3.73068326152861118316650390625</LongitudeDegrees>
            </Position>
            <AltitudeMeters>54.40000152587890625</AltitudeMeters>
            <DistanceMeters>NAN</DistanceMeters>
          </Trackpoint>
          <Trackpoint>
            <Time>2022-07-13T16:00:10.000Z</Time>
            <Position>
              <LatitudeDegrees>43.45541113056242465972900390625</LatitudeDegrees>
              <LongitudeDegrees>-3.73081536032259464263916015625</LongitudeDegrees>
            </Position>
            <AltitudeMeters>54.799999237060546875</AltitudeMeters>
            <DistanceMeters>NAN</DistanceMeters>
          </Trackpoint>
          <Trackpoint>
            <Time>2022-07-13T16:00:15.000Z</Time>
            <Position>
              <LatitudeDegrees>43.4554095380008220672607421875</LatitudeDegrees>
              <LongitudeDegrees>-3.73102046549320220947265625</LongitudeDegrees>
            </Position>
            <AltitudeMeters>55.40000152587890625</AltitudeMeters>
            <DistanceMeters>NAN</DistanceMeters>
          </Trackpoint>
          <Trackpoint>
            <Time>2022-07-13T16:00:20.000Z</Time>
            <Position>
              <LatitudeDegrees>43.45542504452168941497802734375</LatitudeDegrees>
              <LongitudeDegrees>-3.73122490011155605316162109375</LongitudeDegrees>
            </Position>
            <AltitudeMeters>55.799999237060546875</AltitudeMeters>
            <DistanceMeters>NAN</DistanceMeters>
          </Trackpoint>
          <Trackpoint>
            <Time>2022-07-13T16:00:26.000Z</Time>
            <Position>
              <LatitudeDegrees>43.45544365234673023223876953125</LatitudeDegrees>
              <LongitudeDegrees>-3.73148172162473201751708984375</LongitudeDegrees>
            </Position>
            <AltitudeMeters>56.59999847412109375</AltitudeMeters>
            <DistanceMeters>NAN</DistanceMeters>
          </Trackpoint>
          <Trackpoint>
            <Time>2022-07-13T16:00:27.000Z</Time>
            <Position>
              <LatitudeDegrees>43.455447591841220855712890625</LatitudeDegrees>
              <LongitudeDegrees>-3.73152798973023891448974609375</LongitudeDegrees>
            </Position>
            <AltitudeMeters>56.59999847412109375</AltitudeMeters>
            <DistanceMeters>NAN</DistanceMeters>
          </Trackpoint>
          <Trackpoint>
            <Time>2022-07-13T16:00:31.000Z</Time>
            <Position>
              <LatitudeDegrees>43.4554544650018215179443359375</LatitudeDegrees>
              <LongitudeDegrees>-3.7317076139152050018310546875</LongitudeDegrees>
            </Position>
            <AltitudeMeters>57</AltitudeMeters>
            <DistanceMeters>NAN</DistanceMeters>
          </Trackpoint>
          <Trackpoint>
            <Time>2022-07-13T16:00:36.000Z</Time>
            <Position>
              <LatitudeDegrees>43.45544968731701374053955078125</LatitudeDegrees>
              <LongitudeDegrees>-3.73192579485476016998291015625</LongitudeDegrees>
            </Position>
            <AltitudeMeters>57</AltitudeMeters>
            <DistanceMeters>NAN</DistanceMeters>
          </Trackpoint>
          <Trackpoint>
            <Time>2022-07-13T16:00:43.000Z</Time>
            <Position>
              <LatitudeDegrees>43.45541297458112239837646484375</LatitudeDegrees>
              <LongitudeDegrees>-3.73224497772753238677978515625</LongitudeDegrees>
            </Position>
            <AltitudeMeters>57.200000762939453125</AltitudeMeters>
            <DistanceMeters>NAN</DistanceMeters>
          </Trackpoint>
          <Trackpoint>
            <Time>2022-07-13T16:00:51.000Z</Time>
            <Position>
              <LatitudeDegrees>43.45539889298379421234130859375</LatitudeDegrees>
              <LongitudeDegrees>-3.73261428438127040863037109375</LongitudeDegrees>
            </Position>
            <AltitudeMeters>57.799999237060546875</AltitudeMeters>
            <DistanceMeters>NAN</DistanceMeters>
          </Trackpoint>
          <Trackpoint>
            <Time>2022-07-13T16:00:52.000Z</Time>
            <Position>
              <LatitudeDegrees>43.45539989881217479705810546875</LatitudeDegrees>
              <LongitudeDegrees>-3.73265887610614299774169921875</LongitudeDegrees>
            </Position>
            <AltitudeMeters>58</AltitudeMeters>
            <DistanceMeters>NAN</DistanceMeters>
          </Trackpoint>
          <Trackpoint>
            <Time>2022-07-13T16:00:56.000Z</Time>
            <Position>
              <LatitudeDegrees>43.45538162626326084136962890625</LatitudeDegrees>
              <LongitudeDegrees>-3.7328381650149822235107421875</LongitudeDegrees>
            </Position>
            <AltitudeMeters>58.200000762939453125</AltitudeMeters>
            <DistanceMeters>NAN</DistanceMeters>
          </Trackpoint>
          <Trackpoint>
            <Time>2022-07-13T16:00:59.000Z</Time>
            <Position>
              <LatitudeDegrees>43.45537726767361164093017578125</LatitudeDegrees>
              <LongitudeDegrees>-3.732969760894775390625</LongitudeDegrees>
            </Position>
            <AltitudeMeters>58.40000152587890625</AltitudeMeters>
            <DistanceMeters>NAN</DistanceMeters>
          </Trackpoint>
          <Trackpoint>
            <Time>2022-07-13T16:01:04.000Z</Time>
            <Position>
              <LatitudeDegrees>43.4553761780261993408203125</LatitudeDegrees>
              <LongitudeDegrees>-3.73318995349109172821044921875</LongitudeDegrees>
            </Position>
            <AltitudeMeters>58.799999237060546875</AltitudeMeters>
            <DistanceMeters>NAN</DistanceMeters>
          </Trackpoint>
          <Trackpoint>
            <Time>2022-07-13T16:01:06.000Z</Time>
            <Position>
              <LatitudeDegrees>43.4553676284849643707275390625</LatitudeDegrees>
              <LongitudeDegrees>-3.73327444307506084442138671875</LongitudeDegrees>
            </Position>
            <AltitudeMeters>58.799999237060546875</AltitudeMeters>
            <DistanceMeters>NAN</DistanceMeters>
          </Trackpoint>
          <Trackpoint>
            <Time>2022-07-13T16:01:09.000Z</Time>
            <Position>
              <LatitudeDegrees>43.45535597763955593109130859375</LatitudeDegrees>
              <LongitudeDegrees>-3.7334109842777252197265625</LongitudeDegrees>
            </Position>
            <AltitudeMeters>59</AltitudeMeters>
            <DistanceMeters>NAN</DistanceMeters>
          </Trackpoint>
          <Trackpoint>
            <Time>2022-07-13T16:01:17.000Z</Time>
            <Position>
              <LatitudeDegrees>43.45533753745257854461669921875</LatitudeDegrees>
              <LongitudeDegrees>-3.73377643525600433349609375</LongitudeDegrees>
            </Position>
            <AltitudeMeters>59.40000152587890625</AltitudeMeters>
            <DistanceMeters>NAN</DistanceMeters>
          </Trackpoint>
          <Trackpoint>
            <Time>2022-07-13T16:01:26.000Z</Time>
            <Position>
              <LatitudeDegrees>43.45531272701919078826904296875</LatitudeDegrees>
              <LongitudeDegrees>-3.73419343493878841400146484375</LongitudeDegrees>
            </Position>
            <AltitudeMeters>59.200000762939453125</AltitudeMeters>
            <DistanceMeters>NAN</DistanceMeters>
          </Trackpoint>
          <Trackpoint>
            <Time>2022-07-13T16:01:34.000Z</Time>
            <Position>
              <LatitudeDegrees>43.45526595599949359893798828125</LatitudeDegrees>
              <LongitudeDegrees>-3.73462812043726444244384765625</LongitudeDegrees>
            </Position>
            <AltitudeMeters>59</AltitudeMeters>
            <DistanceMeters>NAN</DistanceMeters>
          </Trackpoint>
          <Trackpoint>
            <Time>2022-07-13T16:01:35.000Z</Time>
            <Position>
              <LatitudeDegrees>43.4552553109824657440185546875</LatitudeDegrees>
              <LongitudeDegrees>-3.73469173908233642578125</LongitudeDegrees>
            </Position>
            <AltitudeMeters>59</AltitudeMeters>
            <DistanceMeters>NAN</DistanceMeters>
          </Trackpoint>
          <Trackpoint>
            <Time>2022-07-13T16:01:37.000Z</Time>
            <Position>
              <LatitudeDegrees>43.45523242838680744171142578125</LatitudeDegrees>
              <LongitudeDegrees>-3.734817467629909515380859375</LongitudeDegrees>
            </Position>
            <AltitudeMeters>59</AltitudeMeters>
            <DistanceMeters>NAN</DistanceMeters>
          </Trackpoint>
          <Trackpoint>
            <Time>2022-07-13T16:01:41.000Z</Time>
            <Position>
              <LatitudeDegrees>43.455162942409515380859375</LatitudeDegrees>
              <LongitudeDegrees>-3.73508141376078128814697265625</LongitudeDegrees>
            </Position>
            <AltitudeMeters>58.59999847412109375</AltitudeMeters>
            <DistanceMeters>NAN</DistanceMeters>
          </Trackpoint>
          <Trackpoint>
            <Time>2022-07-13T16:01:43.000Z</Time>
            <Position>
              <LatitudeDegrees>43.455131091177463531494140625</LatitudeDegrees>
              <LongitudeDegrees>-3.7352290190756320953369140625</LongitudeDegrees>
            </Position>
            <AltitudeMeters>58.40000152587890625</AltitudeMeters>
            <DistanceMeters>NAN</DistanceMeters>
          </Trackpoint>
          <Trackpoint>
            <Time>2022-07-13T16:01:45.000Z</Time>
            <Position>
              <LatitudeDegrees>43.45509647391736507415771484375</LatitudeDegrees>
              <LongitudeDegrees>-3.7353798933327198028564453125</LongitudeDegrees>
            </Position>
            <AltitudeMeters>57.59999847412109375</AltitudeMeters>
            <DistanceMeters>NAN</DistanceMeters>
          </Trackpoint>
          <Trackpoint>
            <Time>2022-07-13T16:01:47.000Z</Time>
            <Position>
              <LatitudeDegrees>43.45504500903189182281494140625</LatitudeDegrees>
              <LongitudeDegrees>-3.735532946884632110595703125</LongitudeDegrees>
            </Position>
            <AltitudeMeters>56.799999237060546875</AltitudeMeters>
            <DistanceMeters>NAN</DistanceMeters>
          </Trackpoint>
          <Trackpoint>
            <Time>2022-07-13T16:01:48.000Z</Time>
            <Position>
              <LatitudeDegrees>43.4550154209136962890625</LatitudeDegrees>
              <LongitudeDegrees>-3.7356130778789520263671875</LongitudeDegrees>
            </Position>
            <AltitudeMeters>56.40000152587890625</AltitudeMeters>
            <DistanceMeters>NAN</DistanceMeters>
          </Trackpoint>
          <Trackpoint>
            <Time>2022-07-13T16:01:50.000Z</Time>
            <Position>
              <LatitudeDegrees>43.45495465211570262908935546875</LatitudeDegrees>
              <LongitudeDegrees>-3.73577828519046306610107421875</LongitudeDegrees>
            </Position>
            <AltitudeMeters>55.59999847412109375</AltitudeMeters>
            <DistanceMeters>NAN</DistanceMeters>
          </Trackpoint>
          <Trackpoint>
            <Time>2022-07-13T16:01:51.000Z</Time>
            <Position>
              <LatitudeDegrees>43.45492430962622165679931640625</LatitudeDegrees>
              <LongitudeDegrees>-3.73586344532668590545654296875</LongitudeDegrees>
            </Position>
            <AltitudeMeters>54.59999847412109375</AltitudeMeters>
            <DistanceMeters>NAN</DistanceMeters>
          </Trackpoint>
          <Trackpoint>
            <Time>2022-07-13T16:01:52.000Z</Time>
            <Position>
              <LatitudeDegrees>43.4548912011086940765380859375</LatitudeDegrees>
              <LongitudeDegrees>-3.73594592325389385223388671875</LongitudeDegrees>
            </Position>
            <AltitudeMeters>53.799999237060546875</AltitudeMeters>
            <DistanceMeters>NAN</DistanceMeters>
          </Trackpoint>
          <Trackpoint>
            <Time>2022-07-13T16:01:53.000Z</Time>
            <Position>
              <LatitudeDegrees>43.45485792495310306549072265625</LatitudeDegrees>
              <LongitudeDegrees>-3.73603125102818012237548828125</LongitudeDegrees>
            </Position>
            <AltitudeMeters>53.200000762939453125</AltitudeMeters>
            <DistanceMeters>NAN</DistanceMeters>
          </Trackpoint>
          <Trackpoint>
            <Time>2022-07-13T16:01:54.000Z</Time>
            <Position>
              <LatitudeDegrees>43.454826660454273223876953125</LatitudeDegrees>
              <LongitudeDegrees>-3.7361268885433673858642578125</LongitudeDegrees>
            </Position>
            <AltitudeMeters>52.40000152587890625</AltitudeMeters>
            <DistanceMeters>NAN</DistanceMeters>
          </Trackpoint>
          <Trackpoint>
            <Time>2022-07-13T16:01:55.000Z</Time>
            <Position>
              <LatitudeDegrees>43.45480176620185375213623046875</LatitudeDegrees>
              <LongitudeDegrees>-3.7362246215343475341796875</LongitudeDegrees>
            </Position>
            <AltitudeMeters>52.200000762939453125</AltitudeMeters>
            <DistanceMeters>NAN</DistanceMeters>
          </Trackpoint>
          <Trackpoint>
            <Time>2022-07-13T16:01:56.000Z</Time>
            <Position>
              <LatitudeDegrees>43.454783745110034942626953125</LatitudeDegrees>
              <LongitudeDegrees>-3.736326880753040313720703125</LongitudeDegrees>
            </Position>
            <AltitudeMeters>52</AltitudeMeters>
            <DistanceMeters>NAN</DistanceMeters>
          </Trackpoint>
          <Trackpoint>
            <Time>2022-07-13T16:01:58.000Z</Time>
            <Position>
              <LatitudeDegrees>43.45476103015244007110595703125</LatitudeDegrees>
              <LongitudeDegrees>-3.7365322373807430267333984375</LongitudeDegrees>
            </Position>
            <AltitudeMeters>51.59999847412109375</AltitudeMeters>
            <DistanceMeters>NAN</DistanceMeters>
          </Trackpoint>
          <Trackpoint>
            <Time>2022-07-13T16:02:01.000Z</Time>
            <Position>
              <LatitudeDegrees>43.4547510556876659393310546875</LatitudeDegrees>
              <LongitudeDegrees>-3.73681730590760707855224609375</LongitudeDegrees>
            </Position>
            <AltitudeMeters>51.799999237060546875</AltitudeMeters>
            <DistanceMeters>NAN</DistanceMeters>
          </Trackpoint>
          <Trackpoint>
            <Time>2022-07-13T16:02:03.000Z</Time>
            <Position>
              <LatitudeDegrees>43.4547373093664646148681640625</LatitudeDegrees>
              <LongitudeDegrees>-3.737001121044158935546875</LongitudeDegrees>
            </Position>
            <AltitudeMeters>51.40000152587890625</AltitudeMeters>
            <DistanceMeters>NAN</DistanceMeters>
          </Trackpoint>
          <Trackpoint>
            <Time>2022-07-13T16:02:05.000Z</Time>
            <Position>
              <LatitudeDegrees>43.4547346271574497222900390625</LatitudeDegrees>
              <LongitudeDegrees>-3.737195245921611785888671875</LongitudeDegrees>
            </Position>
            <AltitudeMeters>51.200000762939453125</AltitudeMeters>
            <DistanceMeters>NAN</DistanceMeters>
          </Trackpoint>
          <Trackpoint>
            <Time>2022-07-13T16:02:08.000Z</Time>
            <Position>
              <LatitudeDegrees>43.454734124243259429931640625</LatitudeDegrees>
              <LongitudeDegrees>-3.73750445432960987091064453125</LongitudeDegrees>
            </Position>
            <AltitudeMeters>51</AltitudeMeters>
            <DistanceMeters>NAN</DistanceMeters>
          </Trackpoint>
          <Trackpoint>
            <Time>2022-07-13T16:02:11.000Z</Time>
            <Position>
              <LatitudeDegrees>43.454726748168468475341796875</LatitudeDegrees>
              <LongitudeDegrees>-3.737862445414066314697265625</LongitudeDegrees>
            </Position>
            <AltitudeMeters>49.59999847412109375</AltitudeMeters>
            <DistanceMeters>NAN</DistanceMeters>
          </Trackpoint>
          <Trackpoint>
            <Time>2022-07-13T16:02:13.000Z</Time>
            <Position>
              <LatitudeDegrees>43.45472431741654872894287109375</LatitudeDegrees>
              <LongitudeDegrees>-3.73813427053391933441162109375</LongitudeDegrees>
            </Position>
            <AltitudeMeters>47.799999237060546875</AltitudeMeters>
            <DistanceMeters>NAN</DistanceMeters>
          </Trackpoint>
          <Trackpoint>
            <Time>2022-07-13T16:02:15.000Z</Time>
            <Position>
              <LatitudeDegrees>43.45469866879284381866455078125</LatitudeDegrees>
              <LongitudeDegrees>-3.7384010665118694305419921875</LongitudeDegrees>
            </Position>
            <AltitudeMeters>45.799999237060546875</AltitudeMeters>
            <DistanceMeters>NAN</DistanceMeters>
          </Trackpoint>
          <Trackpoint>
            <Time>2022-07-13T16:02:16.000Z</Time>
            <Position>
              <LatitudeDegrees>43.4546786360442638397216796875</LatitudeDegrees>
              <LongitudeDegrees>-3.73852252028882503509521484375</LongitudeDegrees>
            </Position>
            <AltitudeMeters>44.59999847412109375</AltitudeMeters>
            <DistanceMeters>NAN</DistanceMeters>
          </Trackpoint>
          <Trackpoint>
            <Time>2022-07-13T16:02:17.000Z</Time>
            <Position>
              <LatitudeDegrees>43.4546548314392566680908203125</LatitudeDegrees>
              <LongitudeDegrees>-3.73863114975392818450927734375</LongitudeDegrees>
            </Position>
            <AltitudeMeters>43.59999847412109375</AltitudeMeters>
            <DistanceMeters>NAN</DistanceMeters>
          </Trackpoint>
          <Trackpoint>
            <Time>2022-07-13T16:02:20.000Z</Time>
            <Position>
              <LatitudeDegrees>43.4545991756021976470947265625</LatitudeDegrees>
              <LongitudeDegrees>-3.73892233707010746002197265625</LongitudeDegrees>
            </Position>
            <AltitudeMeters>42.200000762939453125</AltitudeMeters>
            <DistanceMeters>NAN</DistanceMeters>
          </Trackpoint>
          <Trackpoint>
            <Time>2022-07-13T16:02:21.000Z</Time>
            <Position>
              <LatitudeDegrees>43.454583249986171722412109375</LatitudeDegrees>
              <LongitudeDegrees>-3.7390168011188507080078125</LongitudeDegrees>
            </Position>
            <AltitudeMeters>42</AltitudeMeters>
            <DistanceMeters>NAN</DistanceMeters>
          </Trackpoint>
          <Trackpoint>
            <Time>2022-07-13T16:02:24.000Z</Time>
            <Position>
              <LatitudeDegrees>43.4545109979808330535888671875</LatitudeDegrees>
              <LongitudeDegrees>-3.73930974863469600677490234375</LongitudeDegrees>
            </Position>
            <AltitudeMeters>40.799999237060546875</AltitudeMeters>
            <DistanceMeters>NAN</DistanceMeters>
          </Trackpoint>
          <Trackpoint>
            <Time>2022-07-13T16:02:26.000Z</Time>
            <Position>
              <LatitudeDegrees>43.4544561803340911865234375</LatitudeDegrees>
              <LongitudeDegrees>-3.7395103275775909423828125</LongitudeDegrees>
            </Position>
            <AltitudeMeters>39.59999847412109375</AltitudeMeters>
            <DistanceMeters>NAN</DistanceMeters>
          </Trackpoint>
          <Trackpoint>
            <Time>2022-07-13T16:02:27.000Z</Time>
            <Position>
              <LatitudeDegrees>43.45443095080554485321044921875</LatitudeDegrees>
              <LongitudeDegrees>-3.73961367644369602203369140625</LongitudeDegrees>
            </Position>
            <AltitudeMeters>39</AltitudeMeters>
            <DistanceMeters>NAN</DistanceMeters>
          </Trackpoint>
          <Trackpoint>
            <Time>2022-07-13T16:02:28.000Z</Time>
            <Position>
              <LatitudeDegrees>43.45440630801022052764892578125</LatitudeDegrees>
              <LongitudeDegrees>-3.73971576802432537078857421875</LongitudeDegrees>
            </Position>
            <AltitudeMeters>37.799999237060546875</AltitudeMeters>
            <DistanceMeters>NAN</DistanceMeters>
          </Trackpoint>
          <Trackpoint>
            <Time>2022-07-13T16:02:29.000Z</Time>
            <Position>
              <LatitudeDegrees>43.45438166521489620208740234375</LatitudeDegrees>
              <LongitudeDegrees>-3.73981014825403690338134765625</LongitudeDegrees>
            </Position>
            <AltitudeMeters>36.799999237060546875</AltitudeMeters>
            <DistanceMeters>NAN</DistanceMeters>
          </Trackpoint>
          <Trackpoint>
            <Time>2022-07-13T16:02:30.000Z</Time>
            <Position>
              <LatitudeDegrees>43.45436037518084049224853515625</LatitudeDegrees>
              <LongitudeDegrees>-3.739896900951862335205078125</LongitudeDegrees>
            </Position>
            <AltitudeMeters>35.799999237060546875</AltitudeMeters>
            <DistanceMeters>NAN</DistanceMeters>
          </Trackpoint>
          <Trackpoint>
            <Time>2022-07-13T16:02:31.000Z</Time>
            <Position>
              <LatitudeDegrees>43.4543463774025440216064453125</LatitudeDegrees>
              <LongitudeDegrees>-3.73998482711613178253173828125</LongitudeDegrees>
            </Position>
            <AltitudeMeters>34.40000152587890625</AltitudeMeters>
            <DistanceMeters>NAN</DistanceMeters>
          </Trackpoint>
          <Trackpoint>
            <Time>2022-07-13T16:02:32.000Z</Time>
            <Position>
              <LatitudeDegrees>43.45434344373643398284912109375</LatitudeDegrees>
              <LongitudeDegrees>-3.7400774471461772918701171875</LongitudeDegrees>
            </Position>
            <AltitudeMeters>33.40000152587890625</AltitudeMeters>
            <DistanceMeters>NAN</DistanceMeters>
          </Trackpoint>
          <Trackpoint>
            <Time>2022-07-13T16:02:33.000Z</Time>
            <Position>
              <LatitudeDegrees>43.454353250563144683837890625</LatitudeDegrees>
              <LongitudeDegrees>-3.74017618596553802490234375</LongitudeDegrees>
            </Position>
            <AltitudeMeters>32.40000152587890625</AltitudeMeters>
            <DistanceMeters>NAN</DistanceMeters>
          </Trackpoint>
          <Trackpoint>
            <Time>2022-07-13T16:02:34.000Z</Time>
            <Position>
              <LatitudeDegrees>43.45437646843492984771728515625</LatitudeDegrees>
              <LongitudeDegrees>-3.7402739189565181732177734375</LongitudeDegrees>
            </Position>
            <AltitudeMeters>31.200000762939453125</AltitudeMeters>
            <DistanceMeters>NAN</DistanceMeters>
          </Trackpoint>
          <Trackpoint>
            <Time>2022-07-13T16:02:35.000Z</Time>
            <Position>
              <LatitudeDegrees>43.4544100798666477203369140625</LatitudeDegrees>
              <LongitudeDegrees>-3.740372993052005767822265625</LongitudeDegrees>
            </Position>
            <AltitudeMeters>30.200000762939453125</AltitudeMeters>
            <DistanceMeters>NAN</DistanceMeters>
          </Trackpoint>
          <Trackpoint>
            <Time>2022-07-13T16:02:36.000Z</Time>
            <Position>
              <LatitudeDegrees>43.45444620586931705474853515625</LatitudeDegrees>
              <LongitudeDegrees>-3.74047265388071537017822265625</LongitudeDegrees>
            </Position>
            <AltitudeMeters>29.200000762939453125</AltitudeMeters>
            <DistanceMeters>NAN</DistanceMeters>
          </Trackpoint>
          <Trackpoint>
            <Time>2022-07-13T16:02:42.000Z</Time>
            <Position>
              <LatitudeDegrees>43.45466027967631816864013671875</LatitudeDegrees>
              <LongitudeDegrees>-3.74105100519955158233642578125</LongitudeDegrees>
            </Position>
            <AltitudeMeters>28.3999996185302734375</AltitudeMeters>
            <DistanceMeters>NAN</DistanceMeters>
          </Trackpoint>
          <Trackpoint>
            <Time>2022-07-13T16:02:45.000Z</Time>
            <Position>
              <LatitudeDegrees>43.45473286695778369903564453125</LatitudeDegrees>
              <LongitudeDegrees>-3.74131704680621623992919921875</LongitudeDegrees>
            </Position>
            <AltitudeMeters>27.799999237060546875</AltitudeMeters>
            <DistanceMeters>NAN</DistanceMeters>
          </Trackpoint>
          <Trackpoint>
            <Time>2022-07-13T16:02:47.000Z</Time>
            <Position>
              <LatitudeDegrees>43.4547785483300685882568359375</LatitudeDegrees>
              <LongitudeDegrees>-3.74149491079151630401611328125</LongitudeDegrees>
            </Position>
            <AltitudeMeters>26.6000003814697265625</AltitudeMeters>
            <DistanceMeters>NAN</DistanceMeters>
          </Trackpoint>
          <Trackpoint>
            <Time>2022-07-13T16:02:48.000Z</Time>
            <Position>
              <LatitudeDegrees>43.45479547977447509765625</LatitudeDegrees>
              <LongitudeDegrees>-3.741574622690677642822265625</LongitudeDegrees>
            </Position>
            <AltitudeMeters>26</AltitudeMeters>
            <DistanceMeters>NAN</DistanceMeters>
          </Trackpoint>
          <Trackpoint>
            <Time>2022-07-13T16:02:49.000Z</Time>
            <Position>
              <LatitudeDegrees>43.454809226095676422119140625</LatitudeDegrees>
              <LongitudeDegrees>-3.74165274202823638916015625</LongitudeDegrees>
            </Position>
            <AltitudeMeters>25.3999996185302734375</AltitudeMeters>
            <DistanceMeters>NAN</DistanceMeters>
          </Trackpoint>
          <Trackpoint>
            <Time>2022-07-13T16:02:51.000Z</Time>
            <Position>
              <LatitudeDegrees>43.45482506789267063140869140625</LatitudeDegrees>
              <LongitudeDegrees>-3.74180554412305355072021484375</LongitudeDegrees>
            </Position>
            <AltitudeMeters>24.200000762939453125</AltitudeMeters>
            <DistanceMeters>NAN</DistanceMeters>
          </Trackpoint>
          <Trackpoint>
            <Time>2022-07-13T16:02:52.000Z</Time>
            <Position>
              <LatitudeDegrees>43.4548264928162097930908203125</LatitudeDegrees>
              <LongitudeDegrees>-3.74187611974775791168212890625</LongitudeDegrees>
            </Position>
            <AltitudeMeters>23.799999237060546875</AltitudeMeters>
            <DistanceMeters>NAN</DistanceMeters>
          </Trackpoint>
          <Trackpoint>
            <Time>2022-07-13T16:02:53.000Z</Time>
            <Position>
              <LatitudeDegrees>43.4548221342265605926513671875</LatitudeDegrees>
              <LongitudeDegrees>-3.741947449743747711181640625</LongitudeDegrees>
            </Position>
            <AltitudeMeters>23.3999996185302734375</AltitudeMeters>
            <DistanceMeters>NAN</DistanceMeters>
          </Trackpoint>
          <Trackpoint>
            <Time>2022-07-13T16:02:54.000Z</Time>
            <Position>
              <LatitudeDegrees>43.45481350086629390716552734375</LatitudeDegrees>
              <LongitudeDegrees>-3.74201408587396144866943359375</LongitudeDegrees>
            </Position>
            <AltitudeMeters>23.200000762939453125</AltitudeMeters>
            <DistanceMeters>NAN</DistanceMeters>
          </Trackpoint>
          <Trackpoint>
            <Time>2022-07-13T16:02:56.000Z</Time>
            <Position>
              <LatitudeDegrees>43.4548070468008518218994140625</LatitudeDegrees>
              <LongitudeDegrees>-3.7421388924121856689453125</LongitudeDegrees>
            </Position>
            <AltitudeMeters>22.6000003814697265625</AltitudeMeters>
            <DistanceMeters>NAN</DistanceMeters>
          </Trackpoint>
          <Trackpoint>
            <Time>2022-07-13T16:02:59.000Z</Time>
            <Position>
              <LatitudeDegrees>43.45482875593006610870361328125</LatitudeDegrees>
              <LongitudeDegrees>-3.74228029511868953704833984375</LongitudeDegrees>
            </Position>
            <AltitudeMeters>22.200000762939453125</AltitudeMeters>
            <DistanceMeters>NAN</DistanceMeters>
          </Trackpoint>
          <Trackpoint>
            <Time>2022-07-13T16:03:01.000Z</Time>
            <Position>
              <LatitudeDegrees>43.45484434626996517181396484375</LatitudeDegrees>
              <LongitudeDegrees>-3.74235506169497966766357421875</LongitudeDegrees>
            </Position>
            <AltitudeMeters>22</AltitudeMeters>
            <DistanceMeters>NAN</DistanceMeters>
          </Trackpoint>
          <Trackpoint>
            <Time>2022-07-13T16:03:02.000Z</Time>
            <Position>
              <LatitudeDegrees>43.45484367571771144866943359375</LatitudeDegrees>
              <LongitudeDegrees>-3.7423797883093357086181640625</LongitudeDegrees>
            </Position>
            <AltitudeMeters>21.799999237060546875</AltitudeMeters>
            <DistanceMeters>NAN</DistanceMeters>
          </Trackpoint>
          <Trackpoint>
            <Time>2022-07-13T16:03:03.000Z</Time>
            <Position>
              <LatitudeDegrees>43.45483546145260334014892578125</LatitudeDegrees>
              <LongitudeDegrees>-3.74239839613437652587890625</LongitudeDegrees>
            </Position>
            <AltitudeMeters>21.799999237060546875</AltitudeMeters>
            <DistanceMeters>NAN</DistanceMeters>
          </Trackpoint>
          <Trackpoint>
            <Time>2022-07-13T16:03:04.000Z</Time>
            <Position>
              <LatitudeDegrees>43.454819954931735992431640625</LatitudeDegrees>
              <LongitudeDegrees>-3.742406107485294342041015625</LongitudeDegrees>
            </Position>
            <AltitudeMeters>21.6000003814697265625</AltitudeMeters>
            <DistanceMeters>NAN</DistanceMeters>
          </Trackpoint>
          <Trackpoint>
            <Time>2022-07-13T16:03:07.000Z</Time>
            <Position>
              <LatitudeDegrees>43.45473504625260829925537109375</LatitudeDegrees>
              <LongitudeDegrees>-3.74237559735774993896484375</LongitudeDegrees>
            </Position>
            <AltitudeMeters>21.6000003814697265625</AltitudeMeters>
            <DistanceMeters>NAN</DistanceMeters>
          </Trackpoint>
          <Trackpoint>
            <Time>2022-07-13T16:03:16.000Z</Time>
            <Position>
              <LatitudeDegrees>43.454431705176830291748046875</LatitudeDegrees>
              <LongitudeDegrees>-3.7422832287847995758056640625</LongitudeDegrees>
            </Position>
            <AltitudeMeters>22.6000003814697265625</AltitudeMeters>
            <DistanceMeters>NAN</DistanceMeters>
          </Trackpoint>
          <Trackpoint>
            <Time>2022-07-13T16:03:23.000Z</Time>
            <Position>
              <LatitudeDegrees>43.4541602991521358489990234375</LatitudeDegrees>
              <LongitudeDegrees>-3.74222195707261562347412109375</LongitudeDegrees>
            </Position>
            <AltitudeMeters>22.6000003814697265625</AltitudeMeters>
            <DistanceMeters>NAN</DistanceMeters>
          </Trackpoint>
          <Trackpoint>
            <Time>2022-07-13T16:03:26.000Z</Time>
            <Position>
              <LatitudeDegrees>43.454056195914745330810546875</LatitudeDegrees>
              <LongitudeDegrees>-3.74224157072603702545166015625</LongitudeDegrees>
            </Position>
            <AltitudeMeters>22.6000003814697265625</AltitudeMeters>
            <DistanceMeters>NAN</DistanceMeters>
          </Trackpoint>
          <Trackpoint>
            <Time>2022-07-13T16:03:27.000Z</Time>
            <Position>
              <LatitudeDegrees>43.454035408794879913330078125</LatitudeDegrees>
              <LongitudeDegrees>-3.7422771938145160675048828125</LongitudeDegrees>
            </Position>
            <AltitudeMeters>22.6000003814697265625</AltitudeMeters>
            <DistanceMeters>NAN</DistanceMeters>
          </Trackpoint>
          <Trackpoint>
            <Time>2022-07-13T16:03:31.000Z</Time>
            <Position>
              <LatitudeDegrees>43.4540067426860332489013671875</LatitudeDegrees>
              <LongitudeDegrees>-3.74246587045490741729736328125</LongitudeDegrees>
            </Position>
            <AltitudeMeters>22.799999237060546875</AltitudeMeters>
            <DistanceMeters>NAN</DistanceMeters>
          </Trackpoint>
          <Trackpoint>
            <Time>2022-07-13T16:03:37.000Z</Time>
            <Position>
              <LatitudeDegrees>43.4539232589304447174072265625</LatitudeDegrees>
              <LongitudeDegrees>-3.742773570120334625244140625</LongitudeDegrees>
            </Position>
            <AltitudeMeters>22.6000003814697265625</AltitudeMeters>
            <DistanceMeters>NAN</DistanceMeters>
          </Trackpoint>
          <Trackpoint>
            <Time>2022-07-13T16:03:42.000Z</Time>
            <Position>
              <LatitudeDegrees>43.45374916680157184600830078125</LatitudeDegrees>
              <LongitudeDegrees>-3.74299342744052410125732421875</LongitudeDegrees>
            </Position>
            <AltitudeMeters>22.200000762939453125</AltitudeMeters>
            <DistanceMeters>NAN</DistanceMeters>
          </Trackpoint>
          <Trackpoint>
            <Time>2022-07-13T16:03:43.000Z</Time>
            <Position>
              <LatitudeDegrees>43.45371262170374393463134765625</LatitudeDegrees>
              <LongitudeDegrees>-3.7430419586598873138427734375</LongitudeDegrees>
            </Position>
            <AltitudeMeters>22.200000762939453125</AltitudeMeters>
            <DistanceMeters>NAN</DistanceMeters>
          </Trackpoint>
          <Trackpoint>
            <Time>2022-07-13T16:03:47.000Z</Time>
            <Position>
              <LatitudeDegrees>43.45361061394214630126953125</LatitudeDegrees>
              <LongitudeDegrees>-3.7432783283293247222900390625</LongitudeDegrees>
            </Position>
            <AltitudeMeters>22</AltitudeMeters>
            <DistanceMeters>NAN</DistanceMeters>
          </Trackpoint>
          <Trackpoint>
            <Time>2022-07-13T16:03:52.000Z</Time>
            <Position>
              <LatitudeDegrees>43.45350977964699268341064453125</LatitudeDegrees>
              <LongitudeDegrees>-3.74359843321144580841064453125</LongitudeDegrees>
            </Position>
            <AltitudeMeters>21.3999996185302734375</AltitudeMeters>
            <DistanceMeters>NAN</DistanceMeters>
          </Trackpoint>
          <Trackpoint>
            <Time>2022-07-13T16:03:54.000Z</Time>
            <Position>
              <LatitudeDegrees>43.45347340218722820281982421875</LatitudeDegrees>
              <LongitudeDegrees>-3.7437296099960803985595703125</LongitudeDegrees>
            </Position>
            <AltitudeMeters>21.3999996185302734375</AltitudeMeters>
            <DistanceMeters>NAN</DistanceMeters>
          </Trackpoint>
          <Trackpoint>
            <Time>2022-07-13T16:03:55.000Z</Time>
            <Position>
              <LatitudeDegrees>43.453452028334140777587890625</LatitudeDegrees>
              <LongitudeDegrees>-3.7437902949750423431396484375</LongitudeDegrees>
            </Position>
            <AltitudeMeters>21.3999996185302734375</AltitudeMeters>
            <DistanceMeters>NAN</DistanceMeters>
          </Trackpoint>
          <Trackpoint>
            <Time>2022-07-13T16:03:58.000Z</Time>
            <Position>
              <LatitudeDegrees>43.45339578576385974884033203125</LatitudeDegrees>
              <LongitudeDegrees>-3.74397947452962398529052734375</LongitudeDegrees>
            </Position>
            <AltitudeMeters>21.200000762939453125</AltitudeMeters>
            <DistanceMeters>NAN</DistanceMeters>
          </Trackpoint>
          <Trackpoint>
            <Time>2022-07-13T16:03:59.000Z</Time>
            <Position>
              <LatitudeDegrees>43.45337717793881893157958984375</LatitudeDegrees>
              <LongitudeDegrees>-3.74403865076601505279541015625</LongitudeDegrees>
            </Position>
            <AltitudeMeters>21.200000762939453125</AltitudeMeters>
            <DistanceMeters>NAN</DistanceMeters>
          </Trackpoint>
          <Trackpoint>
            <Time>2022-07-13T16:04:00.000Z</Time>
            <Position>
              <LatitudeDegrees>43.45335722900927066802978515625</LatitudeDegrees>
              <LongitudeDegrees>-3.74409581534564495086669921875</LongitudeDegrees>
            </Position>
            <AltitudeMeters>21</AltitudeMeters>
            <DistanceMeters>NAN</DistanceMeters>
          </Trackpoint>
          <Trackpoint>
            <Time>2022-07-13T16:04:02.000Z</Time>
            <Position>
              <LatitudeDegrees>43.4533257968723773956298828125</LatitudeDegrees>
              <LongitudeDegrees>-3.744213245809078216552734375</LongitudeDegrees>
            </Position>
            <AltitudeMeters>21</AltitudeMeters>
            <DistanceMeters>NAN</DistanceMeters>
          </Trackpoint>
          <Trackpoint>
            <Time>2022-07-13T16:04:04.000Z</Time>
            <Position>
              <LatitudeDegrees>43.45329939387738704681396484375</LatitudeDegrees>
              <LongitudeDegrees>-3.744337968528270721435546875</LongitudeDegrees>
            </Position>
            <AltitudeMeters>20.799999237060546875</AltitudeMeters>
            <DistanceMeters>NAN</DistanceMeters>
          </Trackpoint>
          <Trackpoint>
            <Time>2022-07-13T16:04:12.000Z</Time>
            <Position>
              <LatitudeDegrees>43.4531794488430023193359375</LatitudeDegrees>
              <LongitudeDegrees>-3.74479687772691249847412109375</LongitudeDegrees>
            </Position>
            <AltitudeMeters>20.6000003814697265625</AltitudeMeters>
            <DistanceMeters>NAN</DistanceMeters>
          </Trackpoint>
          <Trackpoint>
            <Time>2022-07-13T16:04:21.000Z</Time>
            <Position>
              <LatitudeDegrees>43.4530438296496868133544921875</LatitudeDegrees>
              <LongitudeDegrees>-3.74525964260101318359375</LongitudeDegrees>
            </Position>
            <AltitudeMeters>20.6000003814697265625</AltitudeMeters>
            <DistanceMeters>NAN</DistanceMeters>
          </Trackpoint>
          <Trackpoint>
            <Time>2022-07-13T16:04:28.000Z</Time>
            <Position>
              <LatitudeDegrees>43.45298574306070804595947265625</LatitudeDegrees>
              <LongitudeDegrees>-3.7455877102911472320556640625</LongitudeDegrees>
            </Position>
            <AltitudeMeters>20.799999237060546875</AltitudeMeters>
            <DistanceMeters>NAN</DistanceMeters>
          </Trackpoint>
          <Trackpoint>
            <Time>2022-07-13T16:04:33.000Z</Time>
            <Position>
              <LatitudeDegrees>43.452959172427654266357421875</LatitudeDegrees>
              <LongitudeDegrees>-3.745729029178619384765625</LongitudeDegrees>
            </Position>
            <AltitudeMeters>20.6000003814697265625</AltitudeMeters>
            <DistanceMeters>NAN</DistanceMeters>
          </Trackpoint>
          <Trackpoint>
            <Time>2022-07-13T16:04:36.000Z</Time>
            <Position>
              <LatitudeDegrees>43.4529338590800762176513671875</LatitudeDegrees>
              <LongitudeDegrees>-3.74588903971016407012939453125</LongitudeDegrees>
            </Position>
            <AltitudeMeters>20.6000003814697265625</AltitudeMeters>
            <DistanceMeters>NAN</DistanceMeters>
          </Trackpoint>
          <Trackpoint>
            <Time>2022-07-13T16:04:38.000Z</Time>
            <Position>
              <LatitudeDegrees>43.45290360040962696075439453125</LatitudeDegrees>
              <LongitudeDegrees>-3.746003620326519012451171875</LongitudeDegrees>
            </Position>
            <AltitudeMeters>20.6000003814697265625</AltitudeMeters>
            <DistanceMeters>NAN</DistanceMeters>
          </Trackpoint>
          <Trackpoint>
            <Time>2022-07-13T16:04:40.000Z</Time>
            <Position>
              <LatitudeDegrees>43.45287275500595569610595703125</LatitudeDegrees>
              <LongitudeDegrees>-3.7461184523999691009521484375</LongitudeDegrees>
            </Position>
            <AltitudeMeters>20.6000003814697265625</AltitudeMeters>
            <DistanceMeters>NAN</DistanceMeters>
          </Trackpoint>
          <Trackpoint>
            <Time>2022-07-13T16:04:45.000Z</Time>
            <Position>
              <LatitudeDegrees>43.45281693153083324432373046875</LatitudeDegrees>
              <LongitudeDegrees>-3.746379800140857696533203125</LongitudeDegrees>
            </Position>
            <AltitudeMeters>21</AltitudeMeters>
            <DistanceMeters>NAN</DistanceMeters>
          </Trackpoint>
          <Trackpoint>
            <Time>2022-07-13T16:04:50.000Z</Time>
            <Position>
              <LatitudeDegrees>43.4527719207108020782470703125</LatitudeDegrees>
              <LongitudeDegrees>-3.746560513973236083984375</LongitudeDegrees>
            </Position>
            <AltitudeMeters>21</AltitudeMeters>
            <DistanceMeters>NAN</DistanceMeters>
          </Trackpoint>
          <Trackpoint>
            <Time>2022-07-13T16:04:53.000Z</Time>
            <Position>
              <LatitudeDegrees>43.45276043750345706939697265625</LatitudeDegrees>
              <LongitudeDegrees>-3.7466128170490264892578125</LongitudeDegrees>
            </Position>
            <AltitudeMeters>21</AltitudeMeters>
            <DistanceMeters>NAN</DistanceMeters>
          </Trackpoint>
          <Trackpoint>
            <Time>2022-07-13T16:04:56.000Z</Time>
            <Position>
              <LatitudeDegrees>43.45273093320429325103759765625</LatitudeDegrees>
              <LongitudeDegrees>-3.7466396391391754150390625</LongitudeDegrees>
            </Position>
            <AltitudeMeters>21</AltitudeMeters>
            <DistanceMeters>NAN</DistanceMeters>
          </Trackpoint>
          <Trackpoint>
            <Time>2022-07-13T16:04:58.000Z</Time>
            <Position>
              <LatitudeDegrees>43.45273093320429325103759765625</LatitudeDegrees>
              <LongitudeDegrees>-3.7466396391391754150390625</LongitudeDegrees>
            </Position>
            <AltitudeMeters>21</AltitudeMeters>
            <DistanceMeters>NAN</DistanceMeters>
          </Trackpoint>
          <Trackpoint>
            <Time>2022-07-13T16:06:16.000Z</Time>
            <Position>
              <LatitudeDegrees>43.4527320228517055511474609375</LatitudeDegrees>
              <LongitudeDegrees>-3.746584318578243255615234375</LongitudeDegrees>
            </Position>
            <AltitudeMeters>20.200000762939453125</AltitudeMeters>
            <DistanceMeters>NAN</DistanceMeters>
          </Trackpoint>
          <Trackpoint>
            <Time>2022-07-13T16:06:17.000Z</Time>
            <Position>
              <LatitudeDegrees>43.45272422768175601959228515625</LatitudeDegrees>
              <LongitudeDegrees>-3.746566213667392730712890625</LongitudeDegrees>
            </Position>
            <AltitudeMeters>20</AltitudeMeters>
            <DistanceMeters>NAN</DistanceMeters>
          </Trackpoint>
          <Trackpoint>
            <Time>2022-07-13T16:06:20.000Z</Time>
            <Position>
              <LatitudeDegrees>43.452681563794612884521484375</LatitudeDegrees>
              <LongitudeDegrees>-3.7465217895805835723876953125</LongitudeDegrees>
            </Position>
            <AltitudeMeters>20</AltitudeMeters>
            <DistanceMeters>NAN</DistanceMeters>
          </Trackpoint>
          <Trackpoint>
            <Time>2022-07-13T16:06:24.000Z</Time>
            <Position>
              <LatitudeDegrees>43.4526555798947811126708984375</LatitudeDegrees>
              <LongitudeDegrees>-3.746481724083423614501953125</LongitudeDegrees>
            </Position>
            <AltitudeMeters>20</AltitudeMeters>
            <DistanceMeters>NAN</DistanceMeters>
          </Trackpoint>
          <Trackpoint>
            <Time>2022-07-13T16:06:28.000Z</Time>
            <Position>
              <LatitudeDegrees>43.4526207111775875091552734375</LatitudeDegrees>
              <LongitudeDegrees>-3.74646588228642940521240234375</LongitudeDegrees>
            </Position>
            <AltitudeMeters>20</AltitudeMeters>
            <DistanceMeters>NAN</DistanceMeters>
          </Trackpoint>
          <Trackpoint>
            <Time>2022-07-13T16:06:31.000Z</Time>
            <Position>
              <LatitudeDegrees>43.45258777029812335968017578125</LatitudeDegrees>
              <LongitudeDegrees>-3.74644291587173938751220703125</LongitudeDegrees>
            </Position>
            <AltitudeMeters>20</AltitudeMeters>
            <DistanceMeters>NAN</DistanceMeters>
          </Trackpoint>
          <Trackpoint>
            <Time>2022-07-13T16:06:37.000Z</Time>
            <Position>
              <LatitudeDegrees>43.4524809010326862335205078125</LatitudeDegrees>
              <LongitudeDegrees>-3.74637099914252758026123046875</LongitudeDegrees>
            </Position>
            <AltitudeMeters>20</AltitudeMeters>
            <DistanceMeters>NAN</DistanceMeters>
          </Trackpoint>
          <Trackpoint>
            <Time>2022-07-13T16:06:43.000Z</Time>
            <Position>
              <LatitudeDegrees>43.4524148516356945037841796875</LatitudeDegrees>
              <LongitudeDegrees>-3.74631986953318119049072265625</LongitudeDegrees>
            </Position>
            <AltitudeMeters>19.6000003814697265625</AltitudeMeters>
            <DistanceMeters>NAN</DistanceMeters>
          </Trackpoint>
          <Trackpoint>
            <Time>2022-07-13T16:06:47.000Z</Time>
            <Position>
              <LatitudeDegrees>43.452378474175930023193359375</LatitudeDegrees>
              <LongitudeDegrees>-3.74628223478794097900390625</LongitudeDegrees>
            </Position>
            <AltitudeMeters>19.6000003814697265625</AltitudeMeters>
            <DistanceMeters>NAN</DistanceMeters>
          </Trackpoint>
          <Trackpoint>
            <Time>2022-07-13T16:06:48.000Z</Time>
            <Position>
              <LatitudeDegrees>43.452378474175930023193359375</LatitudeDegrees>
              <LongitudeDegrees>-3.74628223478794097900390625</LongitudeDegrees>
            </Position>
            <AltitudeMeters>19.6000003814697265625</AltitudeMeters>
            <DistanceMeters>NAN</DistanceMeters>
          </Trackpoint>
          <Trackpoint>
            <Time>2022-07-13T16:06:58.000Z</Time>
            <Position>
              <LatitudeDegrees>43.4524118341505527496337890625</LatitudeDegrees>
              <LongitudeDegrees>-3.74631433747708797454833984375</LongitudeDegrees>
            </Position>
            <AltitudeMeters>19.6000003814697265625</AltitudeMeters>
            <DistanceMeters>NAN</DistanceMeters>
          </Trackpoint>
          <Trackpoint>
            <Time>2022-07-13T16:07:08.000Z</Time>
            <Position>
              <LatitudeDegrees>43.45253261737525463104248046875</LatitudeDegrees>
              <LongitudeDegrees>-3.7464486993849277496337890625</LongitudeDegrees>
            </Position>
            <AltitudeMeters>19</AltitudeMeters>
            <DistanceMeters>NAN</DistanceMeters>
          </Trackpoint>
          <Trackpoint>
            <Time>2022-07-13T16:07:09.000Z</Time>
            <Position>
              <LatitudeDegrees>43.45254552550613880157470703125</LatitudeDegrees>
              <LongitudeDegrees>-3.74645926058292388916015625</LongitudeDegrees>
            </Position>
            <AltitudeMeters>19</AltitudeMeters>
            <DistanceMeters>NAN</DistanceMeters>
          </Trackpoint>
          <Trackpoint>
            <Time>2022-07-13T16:07:12.000Z</Time>
            <Position>
              <LatitudeDegrees>43.45258106477558612823486328125</LatitudeDegrees>
              <LongitudeDegrees>-3.74648013152182102203369140625</LongitudeDegrees>
            </Position>
            <AltitudeMeters>18.799999237060546875</AltitudeMeters>
            <DistanceMeters>NAN</DistanceMeters>
          </Trackpoint>
          <Trackpoint>
            <Time>2022-07-13T16:07:15.000Z</Time>
            <Position>
              <LatitudeDegrees>43.4526280872523784637451171875</LatitudeDegrees>
              <LongitudeDegrees>-3.7465216219425201416015625</LongitudeDegrees>
            </Position>
            <AltitudeMeters>19</AltitudeMeters>
            <DistanceMeters>NAN</DistanceMeters>
          </Trackpoint>
          <Trackpoint>
            <Time>2022-07-13T16:07:16.000Z</Time>
            <Position>
              <LatitudeDegrees>43.4526441805064678192138671875</LatitudeDegrees>
              <LongitudeDegrees>-3.746532015502452850341796875</LongitudeDegrees>
            </Position>
            <AltitudeMeters>19</AltitudeMeters>
            <DistanceMeters>NAN</DistanceMeters>
          </Trackpoint>
          <Trackpoint>
            <Time>2022-07-13T16:07:18.000Z</Time>
            <Position>
              <LatitudeDegrees>43.45267427153885364532470703125</LatitudeDegrees>
              <LongitudeDegrees>-3.746555484831333160400390625</LongitudeDegrees>
            </Position>
            <AltitudeMeters>19</AltitudeMeters>
            <DistanceMeters>NAN</DistanceMeters>
          </Trackpoint>
          <Trackpoint>
            <Time>2022-07-13T16:07:22.000Z</Time>
            <Position>
              <LatitudeDegrees>43.45272506587207317352294921875</LatitudeDegrees>
              <LongitudeDegrees>-3.7466019205749034881591796875</LongitudeDegrees>
            </Position>
            <AltitudeMeters>19.200000762939453125</AltitudeMeters>
            <DistanceMeters>NAN</DistanceMeters>
          </Trackpoint>
          <Trackpoint>
            <Time>2022-07-13T16:07:25.000Z</Time>
            <Position>
              <LatitudeDegrees>43.45272506587207317352294921875</LatitudeDegrees>
              <LongitudeDegrees>-3.7466019205749034881591796875</LongitudeDegrees>
            </Position>
            <AltitudeMeters>19.799999237060546875</AltitudeMeters>
            <DistanceMeters>NAN</DistanceMeters>
          </Trackpoint>
          <Trackpoint>
            <Time>2022-07-13T16:08:12.000Z</Time>
            <Position>
              <LatitudeDegrees>43.452754318714141845703125</LatitudeDegrees>
              <LongitudeDegrees>-3.74666470102965831756591796875</LongitudeDegrees>
            </Position>
            <AltitudeMeters>20.6000003814697265625</AltitudeMeters>
            <DistanceMeters>NAN</DistanceMeters>
          </Trackpoint>
          <Trackpoint>
            <Time>2022-07-13T16:08:13.000Z</Time>
            <Position>
              <LatitudeDegrees>43.4527682326734066009521484375</LatitudeDegrees>
              <LongitudeDegrees>-3.74667107127606868743896484375</LongitudeDegrees>
            </Position>
            <AltitudeMeters>20</AltitudeMeters>
            <DistanceMeters>NAN</DistanceMeters>
          </Trackpoint>
          <Trackpoint>
            <Time>2022-07-13T16:08:15.000Z</Time>
            <Position>
              <LatitudeDegrees>43.45278357155621051788330078125</LatitudeDegrees>
              <LongitudeDegrees>-3.7466854043304920196533203125</LongitudeDegrees>
            </Position>
            <AltitudeMeters>19.3999996185302734375</AltitudeMeters>
            <DistanceMeters>NAN</DistanceMeters>
          </Trackpoint>
          <Trackpoint>
            <Time>2022-07-13T16:08:18.000Z</Time>
            <Position>
              <LatitudeDegrees>43.45279865898191928863525390625</LatitudeDegrees>
              <LongitudeDegrees>-3.7467239610850811004638671875</LongitudeDegrees>
            </Position>
            <AltitudeMeters>19.200000762939453125</AltitudeMeters>
            <DistanceMeters>NAN</DistanceMeters>
          </Trackpoint>
          <Trackpoint>
            <Time>2022-07-13T16:08:22.000Z</Time>
            <Position>
              <LatitudeDegrees>43.4528272412717342376708984375</LatitudeDegrees>
              <LongitudeDegrees>-3.74677249230444431304931640625</LongitudeDegrees>
            </Position>
            <AltitudeMeters>19.200000762939453125</AltitudeMeters>
            <DistanceMeters>NAN</DistanceMeters>
          </Trackpoint>
          <Trackpoint>
            <Time>2022-07-13T16:08:23.000Z</Time>
            <Position>
              <LatitudeDegrees>43.45283101312816143035888671875</LatitudeDegrees>
              <LongitudeDegrees>-3.74677282758057117462158203125</LongitudeDegrees>
            </Position>
            <AltitudeMeters>19.200000762939453125</AltitudeMeters>
            <DistanceMeters>NAN</DistanceMeters>
          </Trackpoint>
          <Trackpoint>
            <Time>2022-07-13T16:08:25.000Z</Time>
            <Position>
              <LatitudeDegrees>43.45282363705337047576904296875</LatitudeDegrees>
              <LongitudeDegrees>-3.74677416868507862091064453125</LongitudeDegrees>
            </Position>
            <AltitudeMeters>18.799999237060546875</AltitudeMeters>
            <DistanceMeters>NAN</DistanceMeters>
          </Trackpoint>
          <Trackpoint>
            <Time>2022-07-13T16:08:27.000Z</Time>
            <Position>
              <LatitudeDegrees>43.45280201174318790435791015625</LatitudeDegrees>
              <LongitudeDegrees>-3.74677718617022037506103515625</LongitudeDegrees>
            </Position>
            <AltitudeMeters>18.6000003814697265625</AltitudeMeters>
            <DistanceMeters>NAN</DistanceMeters>
          </Trackpoint>
          <Trackpoint>
            <Time>2022-07-13T16:08:29.000Z</Time>
            <Position>
              <LatitudeDegrees>43.45279681496322154998779296875</LatitudeDegrees>
              <LongitudeDegrees>-3.746778108179569244384765625</LongitudeDegrees>
            </Position>
            <AltitudeMeters>18.6000003814697265625</AltitudeMeters>
            <DistanceMeters>NAN</DistanceMeters>
          </Trackpoint>
          <Trackpoint>
            <Time>2022-07-13T16:08:30.000Z</Time>
            <Position>
              <LatitudeDegrees>43.45279329456388950347900390625</LatitudeDegrees>
              <LongitudeDegrees>-3.7467792816460132598876953125</LongitudeDegrees>
            </Position>
            <AltitudeMeters>18.6000003814697265625</AltitudeMeters>
            <DistanceMeters>NAN</DistanceMeters>
          </Trackpoint>
          <Trackpoint>
            <Time>2022-07-13T16:08:59.000Z</Time>
            <Position>
              <LatitudeDegrees>43.45274920575320720672607421875</LatitudeDegrees>
              <LongitudeDegrees>-3.7467563152313232421875</LongitudeDegrees>
            </Position>
            <AltitudeMeters>19.3999996185302734375</AltitudeMeters>
            <DistanceMeters>NAN</DistanceMeters>
          </Trackpoint>
          <Trackpoint>
            <Time>2022-07-13T16:09:01.000Z</Time>
            <Position>
              <LatitudeDegrees>43.45272171311080455780029296875</LatitudeDegrees>
              <LongitudeDegrees>-3.74671398662030696868896484375</LongitudeDegrees>
            </Position>
            <AltitudeMeters>19.6000003814697265625</AltitudeMeters>
            <DistanceMeters>NAN</DistanceMeters>
          </Trackpoint>
          <Trackpoint>
            <Time>2022-07-13T16:09:09.000Z</Time>
            <Position>
              <LatitudeDegrees>43.45262548886239528656005859375</LatitudeDegrees>
              <LongitudeDegrees>-3.74657115899026393890380859375</LongitudeDegrees>
            </Position>
            <AltitudeMeters>19.200000762939453125</AltitudeMeters>
            <DistanceMeters>NAN</DistanceMeters>
          </Trackpoint>
          <Trackpoint>
            <Time>2022-07-13T16:09:10.000Z</Time>
            <Position>
              <LatitudeDegrees>43.45262330956757068634033203125</LatitudeDegrees>
              <LongitudeDegrees>-3.74655338935554027557373046875</LongitudeDegrees>
            </Position>
            <AltitudeMeters>19.200000762939453125</AltitudeMeters>
            <DistanceMeters>NAN</DistanceMeters>
          </Trackpoint>
          <Trackpoint>
            <Time>2022-07-13T16:09:16.000Z</Time>
            <Position>
              <LatitudeDegrees>43.45256262458860874176025390625</LatitudeDegrees>
              <LongitudeDegrees>-3.7464540638029575347900390625</LongitudeDegrees>
            </Position>
            <AltitudeMeters>19.799999237060546875</AltitudeMeters>
            <DistanceMeters>NAN</DistanceMeters>
          </Trackpoint>
          <Trackpoint>
            <Time>2022-07-13T16:09:18.000Z</Time>
            <Position>
              <LatitudeDegrees>43.452539406716823577880859375</LatitudeDegrees>
              <LongitudeDegrees>-3.7464248947799205780029296875</LongitudeDegrees>
            </Position>
            <AltitudeMeters>20</AltitudeMeters>
            <DistanceMeters>NAN</DistanceMeters>
          </Trackpoint>
          <Trackpoint>
            <Time>2022-07-13T16:09:25.000Z</Time>
            <Position>
              <LatitudeDegrees>43.45244645141065120697021484375</LatitudeDegrees>
              <LongitudeDegrees>-3.7463367171585559844970703125</LongitudeDegrees>
            </Position>
            <AltitudeMeters>20</AltitudeMeters>
            <DistanceMeters>NAN</DistanceMeters>
          </Trackpoint>
          <Trackpoint>
            <Time>2022-07-13T16:09:26.000Z</Time>
            <Position>
              <LatitudeDegrees>43.45243689604103565216064453125</LatitudeDegrees>
              <LongitudeDegrees>-3.74632875435054302215576171875</LongitudeDegrees>
            </Position>
            <AltitudeMeters>20.200000762939453125</AltitudeMeters>
            <DistanceMeters>NAN</DistanceMeters>
          </Trackpoint>
          <Trackpoint>
            <Time>2022-07-13T16:09:30.000Z</Time>
            <Position>
              <LatitudeDegrees>43.45238861627876758575439453125</LatitudeDegrees>
              <LongitudeDegrees>-3.7462874315679073333740234375</LongitudeDegrees>
            </Position>
            <AltitudeMeters>20</AltitudeMeters>
            <DistanceMeters>NAN</DistanceMeters>
          </Trackpoint>
          <Trackpoint>
            <Time>2022-07-13T16:09:35.000Z</Time>
            <Position>
              <LatitudeDegrees>43.4523749537765979766845703125</LatitudeDegrees>
              <LongitudeDegrees>-3.7462721765041351318359375</LongitudeDegrees>
            </Position>
            <AltitudeMeters>20</AltitudeMeters>
            <DistanceMeters>NAN</DistanceMeters>
          </Trackpoint>
          <Trackpoint>
            <Time>2022-07-13T16:09:43.000Z</Time>
            <Position>
              <LatitudeDegrees>43.45227948389947414398193359375</LatitudeDegrees>
              <LongitudeDegrees>-3.7462233938276767730712890625</LongitudeDegrees>
            </Position>
            <AltitudeMeters>20</AltitudeMeters>
            <DistanceMeters>NAN</DistanceMeters>
          </Trackpoint>
          <Trackpoint>
            <Time>2022-07-13T16:09:48.000Z</Time>
            <Position>
              <LatitudeDegrees>43.4521801583468914031982421875</LatitudeDegrees>
              <LongitudeDegrees>-3.7461821548640727996826171875</LongitudeDegrees>
            </Position>
            <AltitudeMeters>20</AltitudeMeters>
            <DistanceMeters>NAN</DistanceMeters>
          </Trackpoint>
          <Trackpoint>
            <Time>2022-07-13T16:09:53.000Z</Time>
            <Position>
              <LatitudeDegrees>43.4521090798079967498779296875</LatitudeDegrees>
              <LongitudeDegrees>-3.74624208547174930572509765625</LongitudeDegrees>
            </Position>
            <AltitudeMeters>20</AltitudeMeters>
            <DistanceMeters>NAN</DistanceMeters>
          </Trackpoint>
          <Trackpoint>
            <Time>2022-07-13T16:10:02.000Z</Time>
            <Position>
              <LatitudeDegrees>43.45199567265808582305908203125</LatitudeDegrees>
              <LongitudeDegrees>-3.74644878320395946502685546875</LongitudeDegrees>
            </Position>
            <AltitudeMeters>19.799999237060546875</AltitudeMeters>
            <DistanceMeters>NAN</DistanceMeters>
          </Trackpoint>
          <Trackpoint>
            <Time>2022-07-13T16:10:07.000Z</Time>
            <Position>
              <LatitudeDegrees>43.45197974704205989837646484375</LatitudeDegrees>
              <LongitudeDegrees>-3.74648817814886569976806640625</LongitudeDegrees>
            </Position>
            <AltitudeMeters>19.3999996185302734375</AltitudeMeters>
            <DistanceMeters>NAN</DistanceMeters>
          </Trackpoint>
          <Trackpoint>
            <Time>2022-07-13T16:14:12.000Z</Time>
            <Position>
              <LatitudeDegrees>43.45194420777261257171630859375</LatitudeDegrees>
              <LongitudeDegrees>-3.74657057225704193115234375</LongitudeDegrees>
            </Position>
            <AltitudeMeters>21</AltitudeMeters>
            <DistanceMeters>NAN</DistanceMeters>
          </Trackpoint>
          <Trackpoint>
            <Time>2022-07-13T16:14:14.000Z</Time>
            <Position>
              <LatitudeDegrees>43.45194404013454914093017578125</LatitudeDegrees>
              <LongitudeDegrees>-3.746573589742183685302734375</LongitudeDegrees>
            </Position>
            <AltitudeMeters>21</AltitudeMeters>
            <DistanceMeters>NAN</DistanceMeters>
          </Trackpoint>
          <Trackpoint>
            <Time>2022-07-13T16:14:15.000Z</Time>
            <Position>
              <LatitudeDegrees>43.45194404013454914093017578125</LatitudeDegrees>
              <LongitudeDegrees>-3.746573589742183685302734375</LongitudeDegrees>
            </Position>
            <AltitudeMeters>21</AltitudeMeters>
            <DistanceMeters>NAN</DistanceMeters>
          </Trackpoint>
          <Trackpoint>
            <Time>2022-07-13T16:16:15.000Z</Time>
            <Position>
              <LatitudeDegrees>43.45197438262403011322021484375</LatitudeDegrees>
              <LongitudeDegrees>-3.74650645069777965545654296875</LongitudeDegrees>
            </Position>
            <AltitudeMeters>18.200000762939453125</AltitudeMeters>
            <DistanceMeters>NAN</DistanceMeters>
          </Trackpoint>
          <Trackpoint>
            <Time>2022-07-13T16:16:17.000Z</Time>
            <Position>
              <LatitudeDegrees>43.45197119750082492828369140625</LatitudeDegrees>
              <LongitudeDegrees>-3.7465082108974456787109375</LongitudeDegrees>
            </Position>
            <AltitudeMeters>18.200000762939453125</AltitudeMeters>
            <DistanceMeters>NAN</DistanceMeters>
          </Trackpoint>
          <Trackpoint>
            <Time>2022-07-13T16:16:19.000Z</Time>
            <Position>
              <LatitudeDegrees>43.45197119750082492828369140625</LatitudeDegrees>
              <LongitudeDegrees>-3.7465082108974456787109375</LongitudeDegrees>
            </Position>
            <AltitudeMeters>18.3999996185302734375</AltitudeMeters>
            <DistanceMeters>NAN</DistanceMeters>
          </Trackpoint>
          <Trackpoint>
            <Time>2022-07-13T16:16:27.000Z</Time>
            <Position>
              <LatitudeDegrees>43.4519887156784534454345703125</LatitudeDegrees>
              <LongitudeDegrees>-3.74653059057891368865966796875</LongitudeDegrees>
            </Position>
            <AltitudeMeters>18.3999996185302734375</AltitudeMeters>
            <DistanceMeters>NAN</DistanceMeters>
          </Trackpoint>
          <Trackpoint>
            <Time>2022-07-13T16:16:28.000Z</Time>
            <Position>
              <LatitudeDegrees>43.45199634321033954620361328125</LatitudeDegrees>
              <LongitudeDegrees>-3.7465315125882625579833984375</LongitudeDegrees>
            </Position>
            <AltitudeMeters>18.3999996185302734375</AltitudeMeters>
            <DistanceMeters>NAN</DistanceMeters>
          </Trackpoint>
          <Trackpoint>
            <Time>2022-07-13T16:16:29.000Z</Time>
            <Position>
              <LatitudeDegrees>43.45198729075491428375244140625</LatitudeDegrees>
              <LongitudeDegrees>-3.746507875621318817138671875</LongitudeDegrees>
            </Position>
            <AltitudeMeters>18.3999996185302734375</AltitudeMeters>
            <DistanceMeters>NAN</DistanceMeters>
          </Trackpoint>
          <Trackpoint>
            <Time>2022-07-13T16:16:30.000Z</Time>
            <Position>
              <LatitudeDegrees>43.45197044312953948974609375</LatitudeDegrees>
              <LongitudeDegrees>-3.7464671395719051361083984375</LongitudeDegrees>
            </Position>
            <AltitudeMeters>18.3999996185302734375</AltitudeMeters>
            <DistanceMeters>NAN</DistanceMeters>
          </Trackpoint>
          <Trackpoint>
            <Time>2022-07-13T16:16:34.000Z</Time>
            <Position>
              <LatitudeDegrees>43.451801799237728118896484375</LatitudeDegrees>
              <LongitudeDegrees>-3.74631098471581935882568359375</LongitudeDegrees>
            </Position>
            <AltitudeMeters>18.3999996185302734375</AltitudeMeters>
            <DistanceMeters>NAN</DistanceMeters>
          </Trackpoint>
          <Trackpoint>
            <Time>2022-07-13T16:16:40.000Z</Time>
            <Position>
              <LatitudeDegrees>43.45180557109415531158447265625</LatitudeDegrees>
              <LongitudeDegrees>-3.7463360466063022613525390625</LongitudeDegrees>
            </Position>
            <AltitudeMeters>18.200000762939453125</AltitudeMeters>
            <DistanceMeters>NAN</DistanceMeters>
          </Trackpoint>
          <Trackpoint>
            <Time>2022-07-13T16:16:48.000Z</Time>
            <Position>
              <LatitudeDegrees>43.45196046866476535797119140625</LatitudeDegrees>
              <LongitudeDegrees>-3.7466337718069553375244140625</LongitudeDegrees>
            </Position>
            <AltitudeMeters>17.799999237060546875</AltitudeMeters>
            <DistanceMeters>NAN</DistanceMeters>
          </Trackpoint>
          <Trackpoint>
            <Time>2022-07-13T16:17:04.000Z</Time>
            <Position>
              <LatitudeDegrees>43.4518083371222019195556640625</LatitudeDegrees>
              <LongitudeDegrees>-3.74654333107173442840576171875</LongitudeDegrees>
            </Position>
            <AltitudeMeters>17.6000003814697265625</AltitudeMeters>
            <DistanceMeters>NAN</DistanceMeters>
          </Trackpoint>
          <Trackpoint>
            <Time>2022-07-13T16:17:05.000Z</Time>
            <Position>
              <LatitudeDegrees>43.45181445591151714324951171875</LatitudeDegrees>
              <LongitudeDegrees>-3.7465377151966094970703125</LongitudeDegrees>
            </Position>
            <AltitudeMeters>17.6000003814697265625</AltitudeMeters>
            <DistanceMeters>NAN</DistanceMeters>
          </Trackpoint>
          <Trackpoint>
            <Time>2022-07-13T16:17:08.000Z</Time>
            <Position>
              <LatitudeDegrees>43.45180221833288669586181640625</LatitudeDegrees>
              <LongitudeDegrees>-3.746544755995273590087890625</LongitudeDegrees>
            </Position>
            <AltitudeMeters>17.3999996185302734375</AltitudeMeters>
            <DistanceMeters>NAN</DistanceMeters>
          </Trackpoint>
          <Trackpoint>
            <Time>2022-07-13T16:17:10.000Z</Time>
            <Position>
              <LatitudeDegrees>43.45180892385542392730712890625</LatitudeDegrees>
              <LongitudeDegrees>-3.74653930775821208953857421875</LongitudeDegrees>
            </Position>
            <AltitudeMeters>17.3999996185302734375</AltitudeMeters>
            <DistanceMeters>NAN</DistanceMeters>
          </Trackpoint>
          <Trackpoint>
            <Time>2022-07-13T16:17:12.000Z</Time>
            <Position>
              <LatitudeDegrees>43.4518143720924854278564453125</LatitudeDegrees>
              <LongitudeDegrees>-3.7465355359017848968505859375</LongitudeDegrees>
            </Position>
            <AltitudeMeters>17.200000762939453125</AltitudeMeters>
            <DistanceMeters>NAN</DistanceMeters>
          </Trackpoint>
          <Trackpoint>
            <Time>2022-07-13T16:17:13.000Z</Time>
            <Position>
              <LatitudeDegrees>43.451813198626041412353515625</LatitudeDegrees>
              <LongitudeDegrees>-3.7465403974056243896484375</LongitudeDegrees>
            </Position>
            <AltitudeMeters>17.200000762939453125</AltitudeMeters>
            <DistanceMeters>NAN</DistanceMeters>
          </Trackpoint>
          <Trackpoint>
            <Time>2022-07-13T16:17:14.000Z</Time>
            <Position>
              <LatitudeDegrees>43.4518123604357242584228515625</LatitudeDegrees>
              <LongitudeDegrees>-3.746544755995273590087890625</LongitudeDegrees>
            </Position>
            <AltitudeMeters>17.200000762939453125</AltitudeMeters>
            <DistanceMeters>NAN</DistanceMeters>
          </Trackpoint>
          <Trackpoint>
            <Time>2022-07-13T16:17:16.000Z</Time>
            <Position>
              <LatitudeDegrees>43.45180724747478961944580078125</LatitudeDegrees>
              <LongitudeDegrees>-3.74654618091881275177001953125</LongitudeDegrees>
            </Position>
            <AltitudeMeters>17.200000762939453125</AltitudeMeters>
            <DistanceMeters>NAN</DistanceMeters>
          </Trackpoint>
          <Trackpoint>
            <Time>2022-07-13T16:17:18.000Z</Time>
            <Position>
              <LatitudeDegrees>43.4518016315996646881103515625</LatitudeDegrees>
              <LongitudeDegrees>-3.74654919840395450592041015625</LongitudeDegrees>
            </Position>
            <AltitudeMeters>17.200000762939453125</AltitudeMeters>
            <DistanceMeters>NAN</DistanceMeters>
          </Trackpoint>
          <Trackpoint>
            <Time>2022-07-13T16:17:20.000Z</Time>
            <Position>
              <LatitudeDegrees>43.451807163655757904052734375</LatitudeDegrees>
              <LongitudeDegrees>-3.74653578735888004302978515625</LongitudeDegrees>
            </Position>
            <AltitudeMeters>17.200000762939453125</AltitudeMeters>
            <DistanceMeters>NAN</DistanceMeters>
          </Trackpoint>
          <Trackpoint>
            <Time>2022-07-13T16:17:22.000Z</Time>
            <Position>
              <LatitudeDegrees>43.45183121971786022186279296875</LatitudeDegrees>
              <LongitudeDegrees>-3.74650175683200359344482421875</LongitudeDegrees>
            </Position>
            <AltitudeMeters>17</AltitudeMeters>
            <DistanceMeters>NAN</DistanceMeters>
          </Trackpoint>
          <Trackpoint>
            <Time>2022-07-13T16:17:24.000Z</Time>
            <Position>
              <LatitudeDegrees>43.4518297947943210601806640625</LatitudeDegrees>
              <LongitudeDegrees>-3.74650083482265472412109375</LongitudeDegrees>
            </Position>
            <AltitudeMeters>17</AltitudeMeters>
            <DistanceMeters>NAN</DistanceMeters>
          </Trackpoint>
          <Trackpoint>
            <Time>2022-07-13T16:17:27.000Z</Time>
            <Position>
              <LatitudeDegrees>43.4518281184136867523193359375</LatitudeDegrees>
              <LongitudeDegrees>-3.74650443904101848602294921875</LongitudeDegrees>
            </Position>
            <AltitudeMeters>17</AltitudeMeters>
            <DistanceMeters>NAN</DistanceMeters>
          </Trackpoint>
          <Trackpoint>
            <Time>2022-07-13T16:17:51.000Z</Time>
            <Position>
              <LatitudeDegrees>43.451890982687473297119140625</LatitudeDegrees>
              <LongitudeDegrees>-3.74664290808141231536865234375</LongitudeDegrees>
            </Position>
            <AltitudeMeters>16.6000003814697265625</AltitudeMeters>
            <DistanceMeters>NAN</DistanceMeters>
          </Trackpoint>
          <Trackpoint>
            <Time>2022-07-13T16:17:52.000Z</Time>
            <Position>
              <LatitudeDegrees>43.4518834389746189117431640625</LatitudeDegrees>
              <LongitudeDegrees>-3.74665464274585247039794921875</LongitudeDegrees>
            </Position>
            <AltitudeMeters>16.6000003814697265625</AltitudeMeters>
            <DistanceMeters>NAN</DistanceMeters>
          </Trackpoint>
          <Trackpoint>
            <Time>2022-07-13T16:17:55.000Z</Time>
            <Position>
              <LatitudeDegrees>43.4518794156610965728759765625</LatitudeDegrees>
              <LongitudeDegrees>-3.7466622702777385711669921875</LongitudeDegrees>
            </Position>
            <AltitudeMeters>16.3999996185302734375</AltitudeMeters>
            <DistanceMeters>NAN</DistanceMeters>
          </Trackpoint>
          <Trackpoint>
            <Time>2022-07-13T16:18:30.000Z</Time>
            <Position>
              <LatitudeDegrees>43.45194093883037567138671875</LatitudeDegrees>
              <LongitudeDegrees>-3.7465821392834186553955078125</LongitudeDegrees>
            </Position>
            <AltitudeMeters>15.80000019073486328125</AltitudeMeters>
            <DistanceMeters>NAN</DistanceMeters>
          </Trackpoint>
          <Trackpoint>
            <Time>2022-07-13T16:18:31.000Z</Time>
            <Position>
              <LatitudeDegrees>43.451931215822696685791015625</LatitudeDegrees>
              <LongitudeDegrees>-3.7465824745595455169677734375</LongitudeDegrees>
            </Position>
            <AltitudeMeters>15.80000019073486328125</AltitudeMeters>
            <DistanceMeters>NAN</DistanceMeters>
          </Trackpoint>
          <Trackpoint>
            <Time>2022-07-13T16:18:34.000Z</Time>
            <Position>
              <LatitudeDegrees>43.45190875232219696044921875</LatitudeDegrees>
              <LongitudeDegrees>-3.7465885095298290252685546875</LongitudeDegrees>
            </Position>
            <AltitudeMeters>15.3999996185302734375</AltitudeMeters>
            <DistanceMeters>NAN</DistanceMeters>
          </Trackpoint>
          <Trackpoint>
            <Time>2022-07-13T16:18:36.000Z</Time>
            <Position>
              <LatitudeDegrees>43.4519042260944843292236328125</LatitudeDegrees>
              <LongitudeDegrees>-3.746588341891765594482421875</LongitudeDegrees>
            </Position>
            <AltitudeMeters>15.19999980926513671875</AltitudeMeters>
            <DistanceMeters>NAN</DistanceMeters>
          </Trackpoint>
          <Trackpoint>
            <Time>2022-07-13T16:18:39.000Z</Time>
            <Position>
              <LatitudeDegrees>43.45190045423805713653564453125</LatitudeDegrees>
              <LongitudeDegrees>-3.7465891800820827484130859375</LongitudeDegrees>
            </Position>
            <AltitudeMeters>15.19999980926513671875</AltitudeMeters>
            <DistanceMeters>NAN</DistanceMeters>
          </Trackpoint>
          <Trackpoint>
            <Time>2022-07-13T16:19:28.000Z</Time>
            <Position>
              <LatitudeDegrees>43.45193616114556789398193359375</LatitudeDegrees>
              <LongitudeDegrees>-3.74649588949978351593017578125</LongitudeDegrees>
            </Position>
            <AltitudeMeters>14.80000019073486328125</AltitudeMeters>
            <DistanceMeters>NAN</DistanceMeters>
          </Trackpoint>
          <Trackpoint>
            <Time>2022-07-13T16:19:30.000Z</Time>
            <Position>
              <LatitudeDegrees>43.45192509703338146209716796875</LatitudeDegrees>
              <LongitudeDegrees>-3.74648281373083591461181640625</LongitudeDegrees>
            </Position>
            <AltitudeMeters>14.6000003814697265625</AltitudeMeters>
            <DistanceMeters>NAN</DistanceMeters>
          </Trackpoint>
          <Trackpoint>
            <Time>2022-07-13T16:19:34.000Z</Time>
            <Position>
              <LatitudeDegrees>43.4519337303936481475830078125</LatitudeDegrees>
              <LongitudeDegrees>-3.7464678101241588592529296875</LongitudeDegrees>
            </Position>
            <AltitudeMeters>14.80000019073486328125</AltitudeMeters>
            <DistanceMeters>NAN</DistanceMeters>
          </Trackpoint>
          <Trackpoint>
            <Time>2022-07-13T16:19:35.000Z</Time>
            <Position>
              <LatitudeDegrees>43.4519337303936481475830078125</LatitudeDegrees>
              <LongitudeDegrees>-3.7464678101241588592529296875</LongitudeDegrees>
            </Position>
            <AltitudeMeters>14.80000019073486328125</AltitudeMeters>
            <DistanceMeters>NAN</DistanceMeters>
          </Trackpoint>
          <Trackpoint>
            <Time>2022-07-13T16:20:56.000Z</Time>
            <Position>
              <LatitudeDegrees>43.45202936790883541107177734375</LatitudeDegrees>
              <LongitudeDegrees>-3.7465003319084644317626953125</LongitudeDegrees>
            </Position>
            <AltitudeMeters>13.6000003814697265625</AltitudeMeters>
            <DistanceMeters>NAN</DistanceMeters>
          </Trackpoint>
          <Trackpoint>
            <Time>2022-07-13T16:20:58.000Z</Time>
            <Position>
              <LatitudeDegrees>43.45204018056392669677734375</LatitudeDegrees>
              <LongitudeDegrees>-3.74649823643267154693603515625</LongitudeDegrees>
            </Position>
            <AltitudeMeters>13.6000003814697265625</AltitudeMeters>
            <DistanceMeters>NAN</DistanceMeters>
          </Trackpoint>
          <Trackpoint>
            <Time>2022-07-13T16:20:59.000Z</Time>
            <Position>
              <LatitudeDegrees>43.45204018056392669677734375</LatitudeDegrees>
              <LongitudeDegrees>-3.74649823643267154693603515625</LongitudeDegrees>
            </Position>
            <AltitudeMeters>13.6000003814697265625</AltitudeMeters>
            <DistanceMeters>NAN</DistanceMeters>
          </Trackpoint>
          <Trackpoint>
            <Time>2022-07-13T16:21:27.000Z</Time>
            <Position>
              <LatitudeDegrees>43.45204688608646392822265625</LatitudeDegrees>
              <LongitudeDegrees>-3.74648415483534336090087890625</LongitudeDegrees>
            </Position>
            <AltitudeMeters>13</AltitudeMeters>
            <DistanceMeters>NAN</DistanceMeters>
          </Trackpoint>
          <Trackpoint>
            <Time>2022-07-13T16:21:29.000Z</Time>
            <Position>
              <LatitudeDegrees>43.4520678408443927764892578125</LatitudeDegrees>
              <LongitudeDegrees>-3.746480047702789306640625</LongitudeDegrees>
            </Position>
            <AltitudeMeters>13</AltitudeMeters>
            <DistanceMeters>NAN</DistanceMeters>
          </Trackpoint>
          <Trackpoint>
            <Time>2022-07-13T16:21:32.000Z</Time>
            <Position>
              <LatitudeDegrees>43.4520728699862957000732421875</LatitudeDegrees>
              <LongitudeDegrees>-3.7464785389602184295654296875</LongitudeDegrees>
            </Position>
            <AltitudeMeters>13</AltitudeMeters>
            <DistanceMeters>NAN</DistanceMeters>
          </Trackpoint>
          <Trackpoint>
            <Time>2022-07-13T16:21:46.000Z</Time>
            <Position>
              <LatitudeDegrees>43.45207848586142063140869140625</LatitudeDegrees>
              <LongitudeDegrees>-3.74647594057023525238037109375</LongitudeDegrees>
            </Position>
            <AltitudeMeters>13.19999980926513671875</AltitudeMeters>
            <DistanceMeters>NAN</DistanceMeters>
          </Trackpoint>
          <Trackpoint>
            <Time>2022-07-13T16:21:48.000Z</Time>
            <Position>
              <LatitudeDegrees>43.452105559408664703369140625</LatitudeDegrees>
              <LongitudeDegrees>-3.74647007323801517486572265625</LongitudeDegrees>
            </Position>
            <AltitudeMeters>13.19999980926513671875</AltitudeMeters>
            <DistanceMeters>NAN</DistanceMeters>
          </Trackpoint>
          <Trackpoint>
            <Time>2022-07-13T16:21:50.000Z</Time>
            <Position>
              <LatitudeDegrees>43.4521345607936382293701171875</LatitudeDegrees>
              <LongitudeDegrees>-3.74645783565938472747802734375</LongitudeDegrees>
            </Position>
            <AltitudeMeters>13.19999980926513671875</AltitudeMeters>
            <DistanceMeters>NAN</DistanceMeters>
          </Trackpoint>
          <Trackpoint>
            <Time>2022-07-13T16:21:54.000Z</Time>
            <Position>
              <LatitudeDegrees>43.4521400928497314453125</LatitudeDegrees>
              <LongitudeDegrees>-3.74644719064235687255859375</LongitudeDegrees>
            </Position>
            <AltitudeMeters>13</AltitudeMeters>
            <DistanceMeters>NAN</DistanceMeters>
          </Trackpoint>
          <Trackpoint>
            <Time>2022-07-13T16:22:05.000Z</Time>
            <Position>
              <LatitudeDegrees>43.45214939676225185394287109375</LatitudeDegrees>
              <LongitudeDegrees>-3.74644341878592967987060546875</LongitudeDegrees>
            </Position>
            <AltitudeMeters>13</AltitudeMeters>
            <DistanceMeters>NAN</DistanceMeters>
          </Trackpoint>
          <Trackpoint>
            <Time>2022-07-13T16:22:07.000Z</Time>
            <Position>
              <LatitudeDegrees>43.45214855857193470001220703125</LatitudeDegrees>
              <LongitudeDegrees>-3.7464647926390171051025390625</LongitudeDegrees>
            </Position>
            <AltitudeMeters>13</AltitudeMeters>
            <DistanceMeters>NAN</DistanceMeters>
          </Trackpoint>
          <Trackpoint>
            <Time>2022-07-13T16:22:08.000Z</Time>
            <Position>
              <LatitudeDegrees>43.45213699154555797576904296875</LatitudeDegrees>
              <LongitudeDegrees>-3.7464839033782482147216796875</LongitudeDegrees>
            </Position>
            <AltitudeMeters>13</AltitudeMeters>
            <DistanceMeters>NAN</DistanceMeters>
          </Trackpoint>
          <Trackpoint>
            <Time>2022-07-13T16:22:10.000Z</Time>
            <Position>
              <LatitudeDegrees>43.45210849307477474212646484375</LatitudeDegrees>
              <LongitudeDegrees>-3.74651282094419002532958984375</LongitudeDegrees>
            </Position>
            <AltitudeMeters>12.80000019073486328125</AltitudeMeters>
            <DistanceMeters>NAN</DistanceMeters>
          </Trackpoint>
          <Trackpoint>
            <Time>2022-07-13T16:22:12.000Z</Time>
            <Position>
              <LatitudeDegrees>43.4521060623228549957275390625</LatitudeDegrees>
              <LongitudeDegrees>-3.74652841128408908843994140625</LongitudeDegrees>
            </Position>
            <AltitudeMeters>12.80000019073486328125</AltitudeMeters>
            <DistanceMeters>NAN</DistanceMeters>
          </Trackpoint>
          <Trackpoint>
            <Time>2022-07-13T16:22:14.000Z</Time>
            <Position>
              <LatitudeDegrees>43.4521060623228549957275390625</LatitudeDegrees>
              <LongitudeDegrees>-3.74652841128408908843994140625</LongitudeDegrees>
            </Position>
            <AltitudeMeters>12.80000019073486328125</AltitudeMeters>
            <DistanceMeters>NAN</DistanceMeters>
          </Trackpoint>
          <Trackpoint>
            <Time>2022-07-13T16:23:12.000Z</Time>
            <Position>
              <LatitudeDegrees>43.4520356543362140655517578125</LatitudeDegrees>
              <LongitudeDegrees>-3.74650192447006702423095703125</LongitudeDegrees>
            </Position>
            <AltitudeMeters>12.3999996185302734375</AltitudeMeters>
            <DistanceMeters>NAN</DistanceMeters>
          </Trackpoint>
          <Trackpoint>
            <Time>2022-07-13T16:23:13.000Z</Time>
            <Position>
              <LatitudeDegrees>43.45203339122235774993896484375</LatitudeDegrees>
              <LongitudeDegrees>-3.74652354978024959564208984375</LongitudeDegrees>
            </Position>
            <AltitudeMeters>13.6000003814697265625</AltitudeMeters>
            <DistanceMeters>NAN</DistanceMeters>
          </Trackpoint>
          <Trackpoint>
            <Time>2022-07-13T16:23:16.000Z</Time>
            <Position>
              <LatitudeDegrees>43.4520309604704380035400390625</LatitudeDegrees>
              <LongitudeDegrees>-3.74653394334018230438232421875</LongitudeDegrees>
            </Position>
            <AltitudeMeters>13.6000003814697265625</AltitudeMeters>
            <DistanceMeters>NAN</DistanceMeters>
          </Trackpoint>
          <Trackpoint>
            <Time>2022-07-13T16:27:49.000Z</Time>
            <Position>
              <LatitudeDegrees>43.4520296193659305572509765625</LatitudeDegrees>
              <LongitudeDegrees>-3.74644048511981964111328125</LongitudeDegrees>
            </Position>
            <AltitudeMeters>13</AltitudeMeters>
            <DistanceMeters>NAN</DistanceMeters>
          </Trackpoint>
          <Trackpoint>
            <Time>2022-07-13T16:27:52.000Z</Time>
            <Position>
              <LatitudeDegrees>43.45203087665140628814697265625</LatitudeDegrees>
              <LongitudeDegrees>-3.7464413233101367950439453125</LongitudeDegrees>
            </Position>
            <AltitudeMeters>13</AltitudeMeters>
            <DistanceMeters>NAN</DistanceMeters>
          </Trackpoint>
          <Trackpoint>
            <Time>2022-07-13T16:27:57.000Z</Time>
            <Position>
              <LatitudeDegrees>43.4520302899181842803955078125</LatitudeDegrees>
              <LongitudeDegrees>-3.7464520521461963653564453125</LongitudeDegrees>
            </Position>
            <AltitudeMeters>13</AltitudeMeters>
            <DistanceMeters>NAN</DistanceMeters>
          </Trackpoint>
          <Trackpoint>
            <Time>2022-07-13T16:28:27.000Z</Time>
            <Position>
              <LatitudeDegrees>43.45204562880098819732666015625</LatitudeDegrees>
              <LongitudeDegrees>-3.7464349530637264251708984375</LongitudeDegrees>
            </Position>
            <AltitudeMeters>13</AltitudeMeters>
            <DistanceMeters>NAN</DistanceMeters>
          </Trackpoint>
          <Trackpoint>
            <Time>2022-07-13T16:28:29.000Z</Time>
            <Position>
              <LatitudeDegrees>43.4520426951348781585693359375</LatitudeDegrees>
              <LongitudeDegrees>-3.746445178985595703125</LongitudeDegrees>
            </Position>
            <AltitudeMeters>13</AltitudeMeters>
            <DistanceMeters>NAN</DistanceMeters>
          </Trackpoint>
          <Trackpoint>
            <Time>2022-07-13T16:28:31.000Z</Time>
            <Position>
              <LatitudeDegrees>43.45202316530048847198486328125</LatitudeDegrees>
              <LongitudeDegrees>-3.74647133052349090576171875</LongitudeDegrees>
            </Position>
            <AltitudeMeters>13</AltitudeMeters>
            <DistanceMeters>NAN</DistanceMeters>
          </Trackpoint>
          <Trackpoint>
            <Time>2022-07-13T16:28:34.000Z</Time>
            <Position>
              <LatitudeDegrees>43.4519816748797893524169921875</LatitudeDegrees>
              <LongitudeDegrees>-3.74649186618626117706298828125</LongitudeDegrees>
            </Position>
            <AltitudeMeters>12.6000003814697265625</AltitudeMeters>
            <DistanceMeters>NAN</DistanceMeters>
          </Trackpoint>
          <Trackpoint>
            <Time>2022-07-13T16:28:38.000Z</Time>
            <Position>
              <LatitudeDegrees>43.45196231268346309661865234375</LatitudeDegrees>
              <LongitudeDegrees>-3.74654316343367099761962890625</LongitudeDegrees>
            </Position>
            <AltitudeMeters>12.6000003814697265625</AltitudeMeters>
            <DistanceMeters>NAN</DistanceMeters>
          </Trackpoint>
          <Trackpoint>
            <Time>2022-07-13T16:28:42.000Z</Time>
            <Position>
              <LatitudeDegrees>43.451901711523532867431640625</LatitudeDegrees>
              <LongitudeDegrees>-3.7467128969728946685791015625</LongitudeDegrees>
            </Position>
            <AltitudeMeters>12.6000003814697265625</AltitudeMeters>
            <DistanceMeters>NAN</DistanceMeters>
          </Trackpoint>
          <Trackpoint>
            <Time>2022-07-13T16:28:45.000Z</Time>
            <Position>
              <LatitudeDegrees>43.45191420055925846099853515625</LatitudeDegrees>
              <LongitudeDegrees>-3.74666855670511722564697265625</LongitudeDegrees>
            </Position>
            <AltitudeMeters>12.3999996185302734375</AltitudeMeters>
            <DistanceMeters>NAN</DistanceMeters>
          </Trackpoint>
          <Trackpoint>
            <Time>2022-07-13T16:28:48.000Z</Time>
            <Position>
              <LatitudeDegrees>43.4519347362220287322998046875</LatitudeDegrees>
              <LongitudeDegrees>-3.74648348428308963775634765625</LongitudeDegrees>
            </Position>
            <AltitudeMeters>12.3999996185302734375</AltitudeMeters>
            <DistanceMeters>NAN</DistanceMeters>
          </Trackpoint>
          <Trackpoint>
            <Time>2022-07-13T16:28:50.000Z</Time>
            <Position>
              <LatitudeDegrees>43.45190213061869144439697265625</LatitudeDegrees>
              <LongitudeDegrees>-3.7465519644320011138916015625</LongitudeDegrees>
            </Position>
            <AltitudeMeters>12.6000003814697265625</AltitudeMeters>
            <DistanceMeters>NAN</DistanceMeters>
          </Trackpoint>
          <Trackpoint>
            <Time>2022-07-13T16:28:51.000Z</Time>
            <Position>
              <LatitudeDegrees>43.4519022144377231597900390625</LatitudeDegrees>
              <LongitudeDegrees>-3.74654836021363735198974609375</LongitudeDegrees>
            </Position>
            <AltitudeMeters>12.6000003814697265625</AltitudeMeters>
            <DistanceMeters>NAN</DistanceMeters>
          </Trackpoint>
          <Trackpoint>
            <Time>2022-07-13T16:28:55.000Z</Time>
            <Position>
              <LatitudeDegrees>43.4519022144377231597900390625</LatitudeDegrees>
              <LongitudeDegrees>-3.74654836021363735198974609375</LongitudeDegrees>
            </Position>
            <AltitudeMeters>13</AltitudeMeters>
            <DistanceMeters>NAN</DistanceMeters>
          </Trackpoint>
          <Trackpoint>
            <Time>2022-07-13T16:35:03.000Z</Time>
            <Position>
              <LatitudeDegrees>43.451586551964282989501953125</LatitudeDegrees>
              <LongitudeDegrees>-3.7466951273381710052490234375</LongitudeDegrees>
            </Position>
            <AltitudeMeters>20.6000003814697265625</AltitudeMeters>
            <DistanceMeters>NAN</DistanceMeters>
          </Trackpoint>
          <Trackpoint>
            <Time>2022-07-13T16:35:04.000Z</Time>
            <Position>
              <LatitudeDegrees>43.45157213509082794189453125</LatitudeDegrees>
              <LongitudeDegrees>-3.7467254698276519775390625</LongitudeDegrees>
            </Position>
            <AltitudeMeters>20.6000003814697265625</AltitudeMeters>
            <DistanceMeters>NAN</DistanceMeters>
          </Trackpoint>
          <Trackpoint>
            <Time>2022-07-13T16:35:09.000Z</Time>
            <Position>
              <LatitudeDegrees>43.4514878131449222564697265625</LatitudeDegrees>
              <LongitudeDegrees>-3.7469197623431682586669921875</LongitudeDegrees>
            </Position>
            <AltitudeMeters>20.6000003814697265625</AltitudeMeters>
            <DistanceMeters>NAN</DistanceMeters>
          </Trackpoint>
          <Trackpoint>
            <Time>2022-07-13T16:35:15.000Z</Time>
            <Position>
              <LatitudeDegrees>43.45141178928315639495849609375</LatitudeDegrees>
              <LongitudeDegrees>-3.74714791774749755859375</LongitudeDegrees>
            </Position>
            <AltitudeMeters>21</AltitudeMeters>
            <DistanceMeters>NAN</DistanceMeters>
          </Trackpoint>
          <Trackpoint>
            <Time>2022-07-13T16:35:18.000Z</Time>
            <Position>
              <LatitudeDegrees>43.4513526968657970428466796875</LatitudeDegrees>
              <LongitudeDegrees>-3.7472697906196117401123046875</LongitudeDegrees>
            </Position>
            <AltitudeMeters>21.200000762939453125</AltitudeMeters>
            <DistanceMeters>NAN</DistanceMeters>
          </Trackpoint>
          <Trackpoint>
            <Time>2022-07-13T16:35:22.000Z</Time>
            <Position>
              <LatitudeDegrees>43.4512849710881710052490234375</LatitudeDegrees>
              <LongitudeDegrees>-3.74746399931609630584716796875</LongitudeDegrees>
            </Position>
            <AltitudeMeters>21.3999996185302734375</AltitudeMeters>
            <DistanceMeters>NAN</DistanceMeters>
          </Trackpoint>
          <Trackpoint>
            <Time>2022-07-13T16:35:27.000Z</Time>
            <Position>
              <LatitudeDegrees>43.45119394361972808837890625</LatitudeDegrees>
              <LongitudeDegrees>-3.74767941422760486602783203125</LongitudeDegrees>
            </Position>
            <AltitudeMeters>21.6000003814697265625</AltitudeMeters>
            <DistanceMeters>NAN</DistanceMeters>
          </Trackpoint>
          <Trackpoint>
            <Time>2022-07-13T16:35:28.000Z</Time>
            <Position>
              <LatitudeDegrees>43.4511739946901798248291015625</LatitudeDegrees>
              <LongitudeDegrees>-3.74772869981825351715087890625</LongitudeDegrees>
            </Position>
            <AltitudeMeters>21.799999237060546875</AltitudeMeters>
            <DistanceMeters>NAN</DistanceMeters>
          </Trackpoint>
          <Trackpoint>
            <Time>2022-07-13T16:35:36.000Z</Time>
            <Position>
              <LatitudeDegrees>43.4509929455816745758056640625</LatitudeDegrees>
              <LongitudeDegrees>-3.74806380830705165863037109375</LongitudeDegrees>
            </Position>
            <AltitudeMeters>21.3999996185302734375</AltitudeMeters>
            <DistanceMeters>NAN</DistanceMeters>
          </Trackpoint>
          <Trackpoint>
            <Time>2022-07-13T16:35:43.000Z</Time>
            <Position>
              <LatitudeDegrees>43.45085590146481990814208984375</LatitudeDegrees>
              <LongitudeDegrees>-3.7483450211584568023681640625</LongitudeDegrees>
            </Position>
            <AltitudeMeters>21.200000762939453125</AltitudeMeters>
            <DistanceMeters>NAN</DistanceMeters>
          </Trackpoint>
          <Trackpoint>
            <Time>2022-07-13T16:35:49.000Z</Time>
            <Position>
              <LatitudeDegrees>43.4507555700838565826416015625</LatitudeDegrees>
              <LongitudeDegrees>-3.7486169300973415374755859375</LongitudeDegrees>
            </Position>
            <AltitudeMeters>21.200000762939453125</AltitudeMeters>
            <DistanceMeters>NAN</DistanceMeters>
          </Trackpoint>
          <Trackpoint>
            <Time>2022-07-13T16:35:59.000Z</Time>
            <Position>
              <LatitudeDegrees>43.45061726868152618408203125</LatitudeDegrees>
              <LongitudeDegrees>-3.74907030723989009857177734375</LongitudeDegrees>
            </Position>
            <AltitudeMeters>21.200000762939453125</AltitudeMeters>
            <DistanceMeters>NAN</DistanceMeters>
          </Trackpoint>
          <Trackpoint>
            <Time>2022-07-13T16:36:05.000Z</Time>
            <Position>
              <LatitudeDegrees>43.45053386874496936798095703125</LatitudeDegrees>
              <LongitudeDegrees>-3.74935830943286418914794921875</LongitudeDegrees>
            </Position>
            <AltitudeMeters>21.3999996185302734375</AltitudeMeters>
            <DistanceMeters>NAN</DistanceMeters>
          </Trackpoint>
          <Trackpoint>
            <Time>2022-07-13T16:36:13.000Z</Time>
            <Position>
              <LatitudeDegrees>43.4504269994795322418212890625</LatitudeDegrees>
              <LongitudeDegrees>-3.7497617304325103759765625</LongitudeDegrees>
            </Position>
            <AltitudeMeters>22.3999996185302734375</AltitudeMeters>
            <DistanceMeters>NAN</DistanceMeters>
          </Trackpoint>
          <Trackpoint>
            <Time>2022-07-13T16:36:20.000Z</Time>
            <Position>
              <LatitudeDegrees>43.45033069141209125518798828125</LatitudeDegrees>
              <LongitudeDegrees>-3.75009558163583278656005859375</LongitudeDegrees>
            </Position>
            <AltitudeMeters>22.3999996185302734375</AltitudeMeters>
            <DistanceMeters>NAN</DistanceMeters>
          </Trackpoint>
          <Trackpoint>
            <Time>2022-07-13T16:36:21.000Z</Time>
            <Position>
              <LatitudeDegrees>43.45031945966184139251708984375</LatitudeDegrees>
              <LongitudeDegrees>-3.7501404248178005218505859375</LongitudeDegrees>
            </Position>
            <AltitudeMeters>22.200000762939453125</AltitudeMeters>
            <DistanceMeters>NAN</DistanceMeters>
          </Trackpoint>
          <Trackpoint>
            <Time>2022-07-13T16:36:31.000Z</Time>
            <Position>
              <LatitudeDegrees>43.45014930702745914459228515625</LatitudeDegrees>
              <LongitudeDegrees>-3.75058324076235294342041015625</LongitudeDegrees>
            </Position>
            <AltitudeMeters>21.799999237060546875</AltitudeMeters>
            <DistanceMeters>NAN</DistanceMeters>
          </Trackpoint>
          <Trackpoint>
            <Time>2022-07-13T16:36:36.000Z</Time>
            <Position>
              <LatitudeDegrees>43.45006532035768032073974609375</LatitudeDegrees>
              <LongitudeDegrees>-3.7508022598922252655029296875</LongitudeDegrees>
            </Position>
            <AltitudeMeters>22.799999237060546875</AltitudeMeters>
            <DistanceMeters>NAN</DistanceMeters>
          </Trackpoint>
          <Trackpoint>
            <Time>2022-07-13T16:36:39.000Z</Time>
            <Position>
              <LatitudeDegrees>43.4500219859182834625244140625</LatitudeDegrees>
              <LongitudeDegrees>-3.7509340234100818634033203125</LongitudeDegrees>
            </Position>
            <AltitudeMeters>22.3999996185302734375</AltitudeMeters>
            <DistanceMeters>NAN</DistanceMeters>
          </Trackpoint>
          <Trackpoint>
            <Time>2022-07-13T16:36:46.000Z</Time>
            <Position>
              <LatitudeDegrees>43.4498640708625316619873046875</LatitudeDegrees>
              <LongitudeDegrees>-3.75121079385280609130859375</LongitudeDegrees>
            </Position>
            <AltitudeMeters>22</AltitudeMeters>
            <DistanceMeters>NAN</DistanceMeters>
          </Trackpoint>
          <Trackpoint>
            <Time>2022-07-13T16:36:47.000Z</Time>
            <Position>
              <LatitudeDegrees>43.44984185881912708282470703125</LatitudeDegrees>
              <LongitudeDegrees>-3.751250021159648895263671875</LongitudeDegrees>
            </Position>
            <AltitudeMeters>22</AltitudeMeters>
            <DistanceMeters>NAN</DistanceMeters>
          </Trackpoint>
          <Trackpoint>
            <Time>2022-07-13T16:36:54.000Z</Time>
            <Position>
              <LatitudeDegrees>43.44970992766320705413818359375</LatitudeDegrees>
              <LongitudeDegrees>-3.751547075808048248291015625</LongitudeDegrees>
            </Position>
            <AltitudeMeters>22.6000003814697265625</AltitudeMeters>
            <DistanceMeters>NAN</DistanceMeters>
          </Trackpoint>
          <Trackpoint>
            <Time>2022-07-13T16:37:00.000Z</Time>
            <Position>
              <LatitudeDegrees>43.44961705617606639862060546875</LatitudeDegrees>
              <LongitudeDegrees>-3.75183231197297573089599609375</LongitudeDegrees>
            </Position>
            <AltitudeMeters>22.6000003814697265625</AltitudeMeters>
            <DistanceMeters>NAN</DistanceMeters>
          </Trackpoint>
          <Trackpoint>
            <Time>2022-07-13T16:37:07.000Z</Time>
            <Position>
              <LatitudeDegrees>43.44952736981213092803955078125</LatitudeDegrees>
              <LongitudeDegrees>-3.75217747874557971954345703125</LongitudeDegrees>
            </Position>
            <AltitudeMeters>22.3999996185302734375</AltitudeMeters>
            <DistanceMeters>NAN</DistanceMeters>
          </Trackpoint>
          <Trackpoint>
            <Time>2022-07-13T16:37:15.000Z</Time>
            <Position>
              <LatitudeDegrees>43.44942192547023296356201171875</LatitudeDegrees>
              <LongitudeDegrees>-3.75259104184806346893310546875</LongitudeDegrees>
            </Position>
            <AltitudeMeters>22.3999996185302734375</AltitudeMeters>
            <DistanceMeters>NAN</DistanceMeters>
          </Trackpoint>
          <Trackpoint>
            <Time>2022-07-13T16:37:24.000Z</Time>
            <Position>
              <LatitudeDegrees>43.4493165649473667144775390625</LatitudeDegrees>
              <LongitudeDegrees>-3.75302405096590518951416015625</LongitudeDegrees>
            </Position>
            <AltitudeMeters>22.6000003814697265625</AltitudeMeters>
            <DistanceMeters>NAN</DistanceMeters>
          </Trackpoint>
          <Trackpoint>
            <Time>2022-07-13T16:37:31.000Z</Time>
            <Position>
              <LatitudeDegrees>43.44928697682917118072509765625</LatitudeDegrees>
              <LongitudeDegrees>-3.753361590206623077392578125</LongitudeDegrees>
            </Position>
            <AltitudeMeters>21.6000003814697265625</AltitudeMeters>
            <DistanceMeters>NAN</DistanceMeters>
          </Trackpoint>
          <Trackpoint>
            <Time>2022-07-13T16:37:32.000Z</Time>
            <Position>
              <LatitudeDegrees>43.44928689301013946533203125</LatitudeDegrees>
              <LongitudeDegrees>-3.7534133903682231903076171875</LongitudeDegrees>
            </Position>
            <AltitudeMeters>19.200000762939453125</AltitudeMeters>
            <DistanceMeters>NAN</DistanceMeters>
          </Trackpoint>
          <Trackpoint>
            <Time>2022-07-13T16:37:33.000Z</Time>
            <Position>
              <LatitudeDegrees>43.449287228286266326904296875</LatitudeDegrees>
              <LongitudeDegrees>-3.75346661545336246490478515625</LongitudeDegrees>
            </Position>
            <AltitudeMeters>17.799999237060546875</AltitudeMeters>
            <DistanceMeters>NAN</DistanceMeters>
          </Trackpoint>
          <Trackpoint>
            <Time>2022-07-13T16:37:35.000Z</Time>
            <Position>
              <LatitudeDegrees>43.44928848557174205780029296875</LatitudeDegrees>
              <LongitudeDegrees>-3.75357021577656269073486328125</LongitudeDegrees>
            </Position>
            <AltitudeMeters>16.3999996185302734375</AltitudeMeters>
            <DistanceMeters>NAN</DistanceMeters>
          </Trackpoint>
          <Trackpoint>
            <Time>2022-07-13T16:37:43.000Z</Time>
            <Position>
              <LatitudeDegrees>43.449304997920989990234375</LatitudeDegrees>
              <LongitudeDegrees>-3.75397992320358753204345703125</LongitudeDegrees>
            </Position>
            <AltitudeMeters>20</AltitudeMeters>
            <DistanceMeters>NAN</DistanceMeters>
          </Trackpoint>
          <Trackpoint>
            <Time>2022-07-13T16:37:44.000Z</Time>
            <Position>
              <LatitudeDegrees>43.4493075124919414520263671875</LatitudeDegrees>
              <LongitudeDegrees>-3.7540326453745365142822265625</LongitudeDegrees>
            </Position>
            <AltitudeMeters>21.799999237060546875</AltitudeMeters>
            <DistanceMeters>NAN</DistanceMeters>
          </Trackpoint>
          <Trackpoint>
            <Time>2022-07-13T16:37:46.000Z</Time>
            <Position>
              <LatitudeDegrees>43.44930994324386119842529296875</LatitudeDegrees>
              <LongitudeDegrees>-3.75413817353546619415283203125</LongitudeDegrees>
            </Position>
            <AltitudeMeters>23</AltitudeMeters>
            <DistanceMeters>NAN</DistanceMeters>
          </Trackpoint>
          <Trackpoint>
            <Time>2022-07-13T16:37:53.000Z</Time>
            <Position>
              <LatitudeDegrees>43.44930977560579776763916015625</LatitudeDegrees>
              <LongitudeDegrees>-3.75452223233878612518310546875</LongitudeDegrees>
            </Position>
            <AltitudeMeters>22</AltitudeMeters>
            <DistanceMeters>NAN</DistanceMeters>
          </Trackpoint>
          <Trackpoint>
            <Time>2022-07-13T16:37:54.000Z</Time>
            <Position>
              <LatitudeDegrees>43.4493063390254974365234375</LatitudeDegrees>
              <LongitudeDegrees>-3.754572607576847076416015625</LongitudeDegrees>
            </Position>
            <AltitudeMeters>21.6000003814697265625</AltitudeMeters>
            <DistanceMeters>NAN</DistanceMeters>
          </Trackpoint>
          <Trackpoint>
            <Time>2022-07-13T16:37:56.000Z</Time>
            <Position>
              <LatitudeDegrees>43.4493065066635608673095703125</LatitudeDegrees>
              <LongitudeDegrees>-3.75467578880488872528076171875</LongitudeDegrees>
            </Position>
            <AltitudeMeters>21</AltitudeMeters>
            <DistanceMeters>NAN</DistanceMeters>
          </Trackpoint>
          <Trackpoint>
            <Time>2022-07-13T16:37:59.000Z</Time>
            <Position>
              <LatitudeDegrees>43.44930835068225860595703125</LatitudeDegrees>
              <LongitudeDegrees>-3.7548359669744968414306640625</LongitudeDegrees>
            </Position>
            <AltitudeMeters>21.200000762939453125</AltitudeMeters>
            <DistanceMeters>NAN</DistanceMeters>
          </Trackpoint>
          <Trackpoint>
            <Time>2022-07-13T16:38:03.000Z</Time>
            <Position>
              <LatitudeDegrees>43.44930307008326053619384765625</LatitudeDegrees>
              <LongitudeDegrees>-3.755052052438259124755859375</LongitudeDegrees>
            </Position>
            <AltitudeMeters>22</AltitudeMeters>
            <DistanceMeters>NAN</DistanceMeters>
          </Trackpoint>
          <Trackpoint>
            <Time>2022-07-13T16:38:10.000Z</Time>
            <Position>
              <LatitudeDegrees>43.44931296072900295257568359375</LatitudeDegrees>
              <LongitudeDegrees>-3.75542161054909229278564453125</LongitudeDegrees>
            </Position>
            <AltitudeMeters>21.3999996185302734375</AltitudeMeters>
            <DistanceMeters>NAN</DistanceMeters>
          </Trackpoint>
          <Trackpoint>
            <Time>2022-07-13T16:38:18.000Z</Time>
            <Position>
              <LatitudeDegrees>43.4493277966976165771484375</LatitudeDegrees>
              <LongitudeDegrees>-3.75586467795073986053466796875</LongitudeDegrees>
            </Position>
            <AltitudeMeters>23.6000003814697265625</AltitudeMeters>
            <DistanceMeters>NAN</DistanceMeters>
          </Trackpoint>
          <Trackpoint>
            <Time>2022-07-13T16:38:19.000Z</Time>
            <Position>
              <LatitudeDegrees>43.44932922162115573883056640625</LatitudeDegrees>
              <LongitudeDegrees>-3.7559229321777820587158203125</LongitudeDegrees>
            </Position>
            <AltitudeMeters>24.200000762939453125</AltitudeMeters>
            <DistanceMeters>NAN</DistanceMeters>
          </Trackpoint>
          <Trackpoint>
            <Time>2022-07-13T16:38:21.000Z</Time>
            <Position>
              <LatitudeDegrees>43.449337519705295562744140625</LatitudeDegrees>
              <LongitudeDegrees>-3.7560369260609149932861328125</LongitudeDegrees>
            </Position>
            <AltitudeMeters>24.3999996185302734375</AltitudeMeters>
            <DistanceMeters>NAN</DistanceMeters>
          </Trackpoint>
          <Trackpoint>
            <Time>2022-07-13T16:38:24.000Z</Time>
            <Position>
              <LatitudeDegrees>43.44935352914035320281982421875</LatitudeDegrees>
              <LongitudeDegrees>-3.7562112696468830108642578125</LongitudeDegrees>
            </Position>
            <AltitudeMeters>24.6000003814697265625</AltitudeMeters>
            <DistanceMeters>NAN</DistanceMeters>
          </Trackpoint>
          <Trackpoint>
            <Time>2022-07-13T16:38:25.000Z</Time>
            <Position>
              <LatitudeDegrees>43.44935537315905094146728515625</LatitudeDegrees>
              <LongitudeDegrees>-3.756265081465244293212890625</LongitudeDegrees>
            </Position>
            <AltitudeMeters>24.6000003814697265625</AltitudeMeters>
            <DistanceMeters>NAN</DistanceMeters>
          </Trackpoint>
          <Trackpoint>
            <Time>2022-07-13T16:38:27.000Z</Time>
            <Position>
              <LatitudeDegrees>43.44935688190162181854248046875</LatitudeDegrees>
              <LongitudeDegrees>-3.7563708610832691192626953125</LongitudeDegrees>
            </Position>
            <AltitudeMeters>24.799999237060546875</AltitudeMeters>
            <DistanceMeters>NAN</DistanceMeters>
          </Trackpoint>
          <Trackpoint>
            <Time>2022-07-13T16:38:30.000Z</Time>
            <Position>
              <LatitudeDegrees>43.44935663044452667236328125</LatitudeDegrees>
              <LongitudeDegrees>-3.75653824768960475921630859375</LongitudeDegrees>
            </Position>
            <AltitudeMeters>24.799999237060546875</AltitudeMeters>
            <DistanceMeters>NAN</DistanceMeters>
          </Trackpoint>
          <Trackpoint>
            <Time>2022-07-13T16:38:33.000Z</Time>
            <Position>
              <LatitudeDegrees>43.44935738481581211090087890625</LatitudeDegrees>
              <LongitudeDegrees>-3.75671259127557277679443359375</LongitudeDegrees>
            </Position>
            <AltitudeMeters>24.799999237060546875</AltitudeMeters>
            <DistanceMeters>NAN</DistanceMeters>
          </Trackpoint>
          <Trackpoint>
            <Time>2022-07-13T16:38:34.000Z</Time>
            <Position>
              <LatitudeDegrees>43.44935931265354156494140625</LatitudeDegrees>
              <LongitudeDegrees>-3.7567671574652194976806640625</LongitudeDegrees>
            </Position>
            <AltitudeMeters>24.799999237060546875</AltitudeMeters>
            <DistanceMeters>NAN</DistanceMeters>
          </Trackpoint>
          <Trackpoint>
            <Time>2022-07-13T16:38:39.000Z</Time>
            <Position>
              <LatitudeDegrees>43.44937448389828205108642578125</LatitudeDegrees>
              <LongitudeDegrees>-3.757056333124637603759765625</LongitudeDegrees>
            </Position>
            <AltitudeMeters>24.799999237060546875</AltitudeMeters>
            <DistanceMeters>NAN</DistanceMeters>
          </Trackpoint>
          <Trackpoint>
            <Time>2022-07-13T16:38:45.000Z</Time>
            <Position>
              <LatitudeDegrees>43.44938906840980052947998046875</LatitudeDegrees>
              <LongitudeDegrees>-3.757402002811431884765625</LongitudeDegrees>
            </Position>
            <AltitudeMeters>25</AltitudeMeters>
            <DistanceMeters>NAN</DistanceMeters>
          </Trackpoint>
          <Trackpoint>
            <Time>2022-07-13T16:38:47.000Z</Time>
            <Position>
              <LatitudeDegrees>43.4494027309119701385498046875</LatitudeDegrees>
              <LongitudeDegrees>-3.75751934945583343505859375</LongitudeDegrees>
            </Position>
            <AltitudeMeters>25</AltitudeMeters>
            <DistanceMeters>NAN</DistanceMeters>
          </Trackpoint>
          <Trackpoint>
            <Time>2022-07-13T16:38:55.000Z</Time>
            <Position>
              <LatitudeDegrees>43.4494637511670589447021484375</LatitudeDegrees>
              <LongitudeDegrees>-3.75797624699771404266357421875</LongitudeDegrees>
            </Position>
            <AltitudeMeters>25</AltitudeMeters>
            <DistanceMeters>NAN</DistanceMeters>
          </Trackpoint>
          <Trackpoint>
            <Time>2022-07-13T16:38:57.000Z</Time>
            <Position>
              <LatitudeDegrees>43.44947707839310169219970703125</LatitudeDegrees>
              <LongitudeDegrees>-3.75808420591056346893310546875</LongitudeDegrees>
            </Position>
            <AltitudeMeters>24.799999237060546875</AltitudeMeters>
            <DistanceMeters>NAN</DistanceMeters>
          </Trackpoint>
          <Trackpoint>
            <Time>2022-07-13T16:39:05.000Z</Time>
            <Position>
              <LatitudeDegrees>43.449525274336338043212890625</LatitudeDegrees>
              <LongitudeDegrees>-3.75854051671922206878662109375</LongitudeDegrees>
            </Position>
            <AltitudeMeters>25.200000762939453125</AltitudeMeters>
            <DistanceMeters>NAN</DistanceMeters>
          </Trackpoint>
          <Trackpoint>
            <Time>2022-07-13T16:39:13.000Z</Time>
            <Position>
              <LatitudeDegrees>43.449550755321979522705078125</LatitudeDegrees>
              <LongitudeDegrees>-3.7589756213128566741943359375</LongitudeDegrees>
            </Position>
            <AltitudeMeters>25.200000762939453125</AltitudeMeters>
            <DistanceMeters>NAN</DistanceMeters>
          </Trackpoint>
          <Trackpoint>
            <Time>2022-07-13T16:39:15.000Z</Time>
            <Position>
              <LatitudeDegrees>43.44954363070428371429443359375</LatitudeDegrees>
              <LongitudeDegrees>-3.75909648835659027099609375</LongitudeDegrees>
            </Position>
            <AltitudeMeters>25.200000762939453125</AltitudeMeters>
            <DistanceMeters>NAN</DistanceMeters>
          </Trackpoint>
          <Trackpoint>
            <Time>2022-07-13T16:39:16.000Z</Time>
            <Position>
              <LatitudeDegrees>43.4495398588478565216064453125</LatitudeDegrees>
              <LongitudeDegrees>-3.75913915224373340606689453125</LongitudeDegrees>
            </Position>
            <AltitudeMeters>25.200000762939453125</AltitudeMeters>
            <DistanceMeters>NAN</DistanceMeters>
          </Trackpoint>
          <Trackpoint>
            <Time>2022-07-13T16:39:21.000Z</Time>
            <Position>
              <LatitudeDegrees>43.449501805007457733154296875</LatitudeDegrees>
              <LongitudeDegrees>-3.75940804369747638702392578125</LongitudeDegrees>
            </Position>
            <AltitudeMeters>25.6000003814697265625</AltitudeMeters>
            <DistanceMeters>NAN</DistanceMeters>
          </Trackpoint>
          <Trackpoint>
            <Time>2022-07-13T16:39:30.000Z</Time>
            <Position>
              <LatitudeDegrees>43.44941119663417339324951171875</LatitudeDegrees>
              <LongitudeDegrees>-3.75985982827842235565185546875</LongitudeDegrees>
            </Position>
            <AltitudeMeters>25.3999996185302734375</AltitudeMeters>
            <DistanceMeters>NAN</DistanceMeters>
          </Trackpoint>
          <Trackpoint>
            <Time>2022-07-13T16:39:37.000Z</Time>
            <Position>
              <LatitudeDegrees>43.44933190383017063140869140625</LatitudeDegrees>
              <LongitudeDegrees>-3.7602064199745655059814453125</LongitudeDegrees>
            </Position>
            <AltitudeMeters>23.799999237060546875</AltitudeMeters>
            <DistanceMeters>NAN</DistanceMeters>
          </Trackpoint>
          <Trackpoint>
            <Time>2022-07-13T16:39:39.000Z</Time>
            <Position>
              <LatitudeDegrees>43.449301980435848236083984375</LatitudeDegrees>
              <LongitudeDegrees>-3.760325610637664794921875</LongitudeDegrees>
            </Position>
            <AltitudeMeters>22.6000003814697265625</AltitudeMeters>
            <DistanceMeters>NAN</DistanceMeters>
          </Trackpoint>
          <Trackpoint>
            <Time>2022-07-13T16:39:43.000Z</Time>
            <Position>
              <LatitudeDegrees>43.44925411976873874664306640625</LatitudeDegrees>
              <LongitudeDegrees>-3.76052283681929111480712890625</LongitudeDegrees>
            </Position>
            <AltitudeMeters>23</AltitudeMeters>
            <DistanceMeters>NAN</DistanceMeters>
          </Trackpoint>
          <Trackpoint>
            <Time>2022-07-13T16:39:45.000Z</Time>
            <Position>
              <LatitudeDegrees>43.4492250345647335052490234375</LatitudeDegrees>
              <LongitudeDegrees>-3.76063498668372631072998046875</LongitudeDegrees>
            </Position>
            <AltitudeMeters>23.3999996185302734375</AltitudeMeters>
            <DistanceMeters>NAN</DistanceMeters>
          </Trackpoint>
          <Trackpoint>
            <Time>2022-07-13T16:39:51.000Z</Time>
            <Position>
              <LatitudeDegrees>43.449171222746372222900390625</LatitudeDegrees>
              <LongitudeDegrees>-3.76093438826501369476318359375</LongitudeDegrees>
            </Position>
            <AltitudeMeters>23.799999237060546875</AltitudeMeters>
            <DistanceMeters>NAN</DistanceMeters>
          </Trackpoint>
          <Trackpoint>
            <Time>2022-07-13T16:39:55.000Z</Time>
            <Position>
              <LatitudeDegrees>43.4491145610809326171875</LatitudeDegrees>
              <LongitudeDegrees>-3.761154077947139739990234375</LongitudeDegrees>
            </Position>
            <AltitudeMeters>24</AltitudeMeters>
            <DistanceMeters>NAN</DistanceMeters>
          </Trackpoint>
          <Trackpoint>
            <Time>2022-07-13T16:39:59.000Z</Time>
            <Position>
              <LatitudeDegrees>43.44905890524387359619140625</LatitudeDegrees>
              <LongitudeDegrees>-3.7613192014396190643310546875</LongitudeDegrees>
            </Position>
            <AltitudeMeters>24.3999996185302734375</AltitudeMeters>
            <DistanceMeters>NAN</DistanceMeters>
          </Trackpoint>
          <Trackpoint>
            <Time>2022-07-13T16:40:01.000Z</Time>
            <Position>
              <LatitudeDegrees>43.44902646727859973907470703125</LatitudeDegrees>
              <LongitudeDegrees>-3.76141618005931377410888671875</LongitudeDegrees>
            </Position>
            <AltitudeMeters>25</AltitudeMeters>
            <DistanceMeters>NAN</DistanceMeters>
          </Trackpoint>
          <Trackpoint>
            <Time>2022-07-13T16:40:05.000Z</Time>
            <Position>
              <LatitudeDegrees>43.44894767738878726959228515625</LatitudeDegrees>
              <LongitudeDegrees>-3.761602677404880523681640625</LongitudeDegrees>
            </Position>
            <AltitudeMeters>25.3999996185302734375</AltitudeMeters>
            <DistanceMeters>NAN</DistanceMeters>
          </Trackpoint>
          <Trackpoint>
            <Time>2022-07-13T16:40:07.000Z</Time>
            <Position>
              <LatitudeDegrees>43.4489061869680881500244140625</LatitudeDegrees>
              <LongitudeDegrees>-3.76169865019619464874267578125</LongitudeDegrees>
            </Position>
            <AltitudeMeters>25.6000003814697265625</AltitudeMeters>
            <DistanceMeters>NAN</DistanceMeters>
          </Trackpoint>
          <Trackpoint>
            <Time>2022-07-13T16:40:11.000Z</Time>
            <Position>
              <LatitudeDegrees>43.44881976954638957977294921875</LatitudeDegrees>
              <LongitudeDegrees>-3.7618750892579555511474609375</LongitudeDegrees>
            </Position>
            <AltitudeMeters>26.200000762939453125</AltitudeMeters>
            <DistanceMeters>NAN</DistanceMeters>
          </Trackpoint>
          <Trackpoint>
            <Time>2022-07-13T16:40:15.000Z</Time>
            <Position>
              <LatitudeDegrees>43.4487242996692657470703125</LatitudeDegrees>
              <LongitudeDegrees>-3.7620524503290653228759765625</LongitudeDegrees>
            </Position>
            <AltitudeMeters>26.200000762939453125</AltitudeMeters>
            <DistanceMeters>NAN</DistanceMeters>
          </Trackpoint>
          <Trackpoint>
            <Time>2022-07-13T16:40:19.000Z</Time>
            <Position>
              <LatitudeDegrees>43.4486279077827930450439453125</LatitudeDegrees>
              <LongitudeDegrees>-3.7622179090976715087890625</LongitudeDegrees>
            </Position>
            <AltitudeMeters>24.6000003814697265625</AltitudeMeters>
            <DistanceMeters>NAN</DistanceMeters>
          </Trackpoint>
          <Trackpoint>
            <Time>2022-07-13T16:40:23.000Z</Time>
            <Position>
              <LatitudeDegrees>43.44852455891668796539306640625</LatitudeDegrees>
              <LongitudeDegrees>-3.76238831318914890289306640625</LongitudeDegrees>
            </Position>
            <AltitudeMeters>25.200000762939453125</AltitudeMeters>
            <DistanceMeters>NAN</DistanceMeters>
          </Trackpoint>
          <Trackpoint>
            <Time>2022-07-13T16:40:32.000Z</Time>
            <Position>
              <LatitudeDegrees>43.44829774461686611175537109375</LatitudeDegrees>
              <LongitudeDegrees>-3.76276214607059955596923828125</LongitudeDegrees>
            </Position>
            <AltitudeMeters>25.6000003814697265625</AltitudeMeters>
            <DistanceMeters>NAN</DistanceMeters>
          </Trackpoint>
          <Trackpoint>
            <Time>2022-07-13T16:40:39.000Z</Time>
            <Position>
              <LatitudeDegrees>43.4481404162943363189697265625</LatitudeDegrees>
              <LongitudeDegrees>-3.763075880706310272216796875</LongitudeDegrees>
            </Position>
            <AltitudeMeters>26</AltitudeMeters>
            <DistanceMeters>NAN</DistanceMeters>
          </Trackpoint>
          <Trackpoint>
            <Time>2022-07-13T16:40:42.000Z</Time>
            <Position>
              <LatitudeDegrees>43.4480800665915012359619140625</LatitudeDegrees>
              <LongitudeDegrees>-3.76320672221481800079345703125</LongitudeDegrees>
            </Position>
            <AltitudeMeters>26.3999996185302734375</AltitudeMeters>
            <DistanceMeters>NAN</DistanceMeters>
          </Trackpoint>
          <Trackpoint>
            <Time>2022-07-13T16:40:48.000Z</Time>
            <Position>
              <LatitudeDegrees>43.4479700960218906402587890625</LatitudeDegrees>
              <LongitudeDegrees>-3.76347293145954608917236328125</LongitudeDegrees>
            </Position>
            <AltitudeMeters>25.799999237060546875</AltitudeMeters>
            <DistanceMeters>NAN</DistanceMeters>
          </Trackpoint>
          <Trackpoint>
            <Time>2022-07-13T16:40:49.000Z</Time>
            <Position>
              <LatitudeDegrees>43.44795660115778446197509765625</LatitudeDegrees>
              <LongitudeDegrees>-3.763517774641513824462890625</LongitudeDegrees>
            </Position>
            <AltitudeMeters>26</AltitudeMeters>
            <DistanceMeters>NAN</DistanceMeters>
          </Trackpoint>
          <Trackpoint>
            <Time>2022-07-13T16:40:59.000Z</Time>
            <Position>
              <LatitudeDegrees>43.44779784791171550750732421875</LatitudeDegrees>
              <LongitudeDegrees>-3.7640238739550113677978515625</LongitudeDegrees>
            </Position>
            <AltitudeMeters>24.799999237060546875</AltitudeMeters>
            <DistanceMeters>NAN</DistanceMeters>
          </Trackpoint>
          <Trackpoint>
            <Time>2022-07-13T16:41:02.000Z</Time>
            <Position>
              <LatitudeDegrees>43.44776784069836139678955078125</LatitudeDegrees>
              <LongitudeDegrees>-3.764179609715938568115234375</LongitudeDegrees>
            </Position>
            <AltitudeMeters>24.799999237060546875</AltitudeMeters>
            <DistanceMeters>NAN</DistanceMeters>
          </Trackpoint>
          <Trackpoint>
            <Time>2022-07-13T16:41:07.000Z</Time>
            <Position>
              <LatitudeDegrees>43.4477169625461101531982421875</LatitudeDegrees>
              <LongitudeDegrees>-3.7644074298441410064697265625</LongitudeDegrees>
            </Position>
            <AltitudeMeters>25.6000003814697265625</AltitudeMeters>
            <DistanceMeters>NAN</DistanceMeters>
          </Trackpoint>
          <Trackpoint>
            <Time>2022-07-13T16:41:12.000Z</Time>
            <Position>
              <LatitudeDegrees>43.4476837702095508575439453125</LatitudeDegrees>
              <LongitudeDegrees>-3.76465947367250919342041015625</LongitudeDegrees>
            </Position>
            <AltitudeMeters>25.200000762939453125</AltitudeMeters>
            <DistanceMeters>NAN</DistanceMeters>
          </Trackpoint>
          <Trackpoint>
            <Time>2022-07-13T16:41:18.000Z</Time>
            <Position>
              <LatitudeDegrees>43.447636999189853668212890625</LatitudeDegrees>
              <LongitudeDegrees>-3.764968849718570709228515625</LongitudeDegrees>
            </Position>
            <AltitudeMeters>25.3999996185302734375</AltitudeMeters>
            <DistanceMeters>NAN</DistanceMeters>
          </Trackpoint>
          <Trackpoint>
            <Time>2022-07-13T16:41:24.000Z</Time>
            <Position>
              <LatitudeDegrees>43.4475897252559661865234375</LatitudeDegrees>
              <LongitudeDegrees>-3.765294067561626434326171875</LongitudeDegrees>
            </Position>
            <AltitudeMeters>25.799999237060546875</AltitudeMeters>
            <DistanceMeters>NAN</DistanceMeters>
          </Trackpoint>
          <Trackpoint>
            <Time>2022-07-13T16:41:26.000Z</Time>
            <Position>
              <LatitudeDegrees>43.4475828520953655242919921875</LatitudeDegrees>
              <LongitudeDegrees>-3.765400685369968414306640625</LongitudeDegrees>
            </Position>
            <AltitudeMeters>25.799999237060546875</AltitudeMeters>
            <DistanceMeters>NAN</DistanceMeters>
          </Trackpoint>
          <Trackpoint>
            <Time>2022-07-13T16:41:30.000Z</Time>
            <Position>
              <LatitudeDegrees>43.44756114296615123748779296875</LatitudeDegrees>
              <LongitudeDegrees>-3.76561350189149379730224609375</LongitudeDegrees>
            </Position>
            <AltitudeMeters>26.3999996185302734375</AltitudeMeters>
            <DistanceMeters>NAN</DistanceMeters>
          </Trackpoint>
          <Trackpoint>
            <Time>2022-07-13T16:41:33.000Z</Time>
            <Position>
              <LatitudeDegrees>43.447554521262645721435546875</LatitudeDegrees>
              <LongitudeDegrees>-3.76579396426677703857421875</LongitudeDegrees>
            </Position>
            <AltitudeMeters>26.799999237060546875</AltitudeMeters>
            <DistanceMeters>NAN</DistanceMeters>
          </Trackpoint>
          <Trackpoint>
            <Time>2022-07-13T16:41:34.000Z</Time>
            <Position>
              <LatitudeDegrees>43.44755812548100948333740234375</LatitudeDegrees>
              <LongitudeDegrees>-3.76585557125508785247802734375</LongitudeDegrees>
            </Position>
            <AltitudeMeters>26.799999237060546875</AltitudeMeters>
            <DistanceMeters>NAN</DistanceMeters>
          </Trackpoint>
          <Trackpoint>
            <Time>2022-07-13T16:41:36.000Z</Time>
            <Position>
              <LatitudeDegrees>43.4475664235651493072509765625</LatitudeDegrees>
              <LongitudeDegrees>-3.76596604473888874053955078125</LongitudeDegrees>
            </Position>
            <AltitudeMeters>27</AltitudeMeters>
            <DistanceMeters>NAN</DistanceMeters>
          </Trackpoint>
          <Trackpoint>
            <Time>2022-07-13T16:41:38.000Z</Time>
            <Position>
              <LatitudeDegrees>43.44757555983960628509521484375</LatitudeDegrees>
              <LongitudeDegrees>-3.76607065089046955108642578125</LongitudeDegrees>
            </Position>
            <AltitudeMeters>27.6000003814697265625</AltitudeMeters>
            <DistanceMeters>NAN</DistanceMeters>
          </Trackpoint>
          <Trackpoint>
            <Time>2022-07-13T16:41:41.000Z</Time>
            <Position>
              <LatitudeDegrees>43.4476066567003726959228515625</LatitudeDegrees>
              <LongitudeDegrees>-3.76621129922568798065185546875</LongitudeDegrees>
            </Position>
            <AltitudeMeters>28</AltitudeMeters>
            <DistanceMeters>NAN</DistanceMeters>
          </Trackpoint>
          <Trackpoint>
            <Time>2022-07-13T16:41:47.000Z</Time>
            <Position>
              <LatitudeDegrees>43.447701372206211090087890625</LatitudeDegrees>
              <LongitudeDegrees>-3.76648069359362125396728515625</LongitudeDegrees>
            </Position>
            <AltitudeMeters>28.200000762939453125</AltitudeMeters>
            <DistanceMeters>NAN</DistanceMeters>
          </Trackpoint>
          <Trackpoint>
            <Time>2022-07-13T16:41:50.000Z</Time>
            <Position>
              <LatitudeDegrees>43.44776817597448825836181640625</LatitudeDegrees>
              <LongitudeDegrees>-3.76660172827541828155517578125</LongitudeDegrees>
            </Position>
            <AltitudeMeters>28.200000762939453125</AltitudeMeters>
            <DistanceMeters>NAN</DistanceMeters>
          </Trackpoint>
          <Trackpoint>
            <Time>2022-07-13T16:41:58.000Z</Time>
            <Position>
              <LatitudeDegrees>43.4479563497006893157958984375</LatitudeDegrees>
              <LongitudeDegrees>-3.76687648706138134002685546875</LongitudeDegrees>
            </Position>
            <AltitudeMeters>29.200000762939453125</AltitudeMeters>
            <DistanceMeters>NAN</DistanceMeters>
          </Trackpoint>
          <Trackpoint>
            <Time>2022-07-13T16:42:06.000Z</Time>
            <Position>
              <LatitudeDegrees>43.44816748984158039093017578125</LatitudeDegrees>
              <LongitudeDegrees>-3.7671375833451747894287109375</LongitudeDegrees>
            </Position>
            <AltitudeMeters>29.799999237060546875</AltitudeMeters>
            <DistanceMeters>NAN</DistanceMeters>
          </Trackpoint>
          <Trackpoint>
            <Time>2022-07-13T16:42:11.000Z</Time>
            <Position>
              <LatitudeDegrees>43.44831995666027069091796875</LatitudeDegrees>
              <LongitudeDegrees>-3.76731184311211109161376953125</LongitudeDegrees>
            </Position>
            <AltitudeMeters>30.200000762939453125</AltitudeMeters>
            <DistanceMeters>NAN</DistanceMeters>
          </Trackpoint>
          <Trackpoint>
            <Time>2022-07-13T16:42:16.000Z</Time>
            <Position>
              <LatitudeDegrees>43.448461107909679412841796875</LatitudeDegrees>
              <LongitudeDegrees>-3.76746640540659427642822265625</LongitudeDegrees>
            </Position>
            <AltitudeMeters>30.6000003814697265625</AltitudeMeters>
            <DistanceMeters>NAN</DistanceMeters>
          </Trackpoint>
          <Trackpoint>
            <Time>2022-07-13T16:42:27.000Z</Time>
            <Position>
              <LatitudeDegrees>43.44880971126258373260498046875</LatitudeDegrees>
              <LongitudeDegrees>-3.76779682002961635589599609375</LongitudeDegrees>
            </Position>
            <AltitudeMeters>31</AltitudeMeters>
            <DistanceMeters>NAN</DistanceMeters>
          </Trackpoint>
          <Trackpoint>
            <Time>2022-07-13T16:42:32.000Z</Time>
            <Position>
              <LatitudeDegrees>43.44893728382885456085205078125</LatitudeDegrees>
              <LongitudeDegrees>-3.767984993755817413330078125</LongitudeDegrees>
            </Position>
            <AltitudeMeters>31.200000762939453125</AltitudeMeters>
            <DistanceMeters>NAN</DistanceMeters>
          </Trackpoint>
          <Trackpoint>
            <Time>2022-07-13T16:42:36.000Z</Time>
            <Position>
              <LatitudeDegrees>43.44901255331933498382568359375</LatitudeDegrees>
              <LongitudeDegrees>-3.7681085430085659027099609375</LongitudeDegrees>
            </Position>
            <AltitudeMeters>31.6000003814697265625</AltitudeMeters>
            <DistanceMeters>NAN</DistanceMeters>
          </Trackpoint>
          <Trackpoint>
            <Time>2022-07-13T16:42:37.000Z</Time>
            <Position>
              <LatitudeDegrees>43.4490265510976314544677734375</LatitudeDegrees>
              <LongitudeDegrees>-3.76813863404095172882080078125</LongitudeDegrees>
            </Position>
            <AltitudeMeters>31.6000003814697265625</AltitudeMeters>
            <DistanceMeters>NAN</DistanceMeters>
          </Trackpoint>
          <Trackpoint>
            <Time>2022-07-13T16:42:44.000Z</Time>
            <Position>
              <LatitudeDegrees>43.44909955747425556182861328125</LatitudeDegrees>
              <LongitudeDegrees>-3.76831817440688610076904296875</LongitudeDegrees>
            </Position>
            <AltitudeMeters>31.3999996185302734375</AltitudeMeters>
            <DistanceMeters>NAN</DistanceMeters>
          </Trackpoint>
          <Trackpoint>
            <Time>2022-07-13T16:42:51.000Z</Time>
            <Position>
              <LatitudeDegrees>43.4491365216672420501708984375</LatitudeDegrees>
              <LongitudeDegrees>-3.76838623546063899993896484375</LongitudeDegrees>
            </Position>
            <AltitudeMeters>31.6000003814697265625</AltitudeMeters>
            <DistanceMeters>NAN</DistanceMeters>
          </Trackpoint>
          <Trackpoint>
            <Time>2022-07-13T16:43:00.000Z</Time>
            <Position>
              <LatitudeDegrees>43.44915940426290035247802734375</LatitudeDegrees>
              <LongitudeDegrees>-3.768475838005542755126953125</LongitudeDegrees>
            </Position>
            <AltitudeMeters>31.6000003814697265625</AltitudeMeters>
            <DistanceMeters>NAN</DistanceMeters>
          </Trackpoint>
          <Trackpoint>
            <Time>2022-07-13T16:43:04.000Z</Time>
            <Position>
              <LatitudeDegrees>43.449165523052215576171875</LatitudeDegrees>
              <LongitudeDegrees>-3.768533170223236083984375</LongitudeDegrees>
            </Position>
            <AltitudeMeters>31.6000003814697265625</AltitudeMeters>
            <DistanceMeters>NAN</DistanceMeters>
          </Trackpoint>
          <Trackpoint>
            <Time>2022-07-13T16:43:10.000Z</Time>
            <Position>
              <LatitudeDegrees>43.4491427242755889892578125</LatitudeDegrees>
              <LongitudeDegrees>-3.76861564815044403076171875</LongitudeDegrees>
            </Position>
            <AltitudeMeters>32</AltitudeMeters>
            <DistanceMeters>NAN</DistanceMeters>
          </Trackpoint>
          <Trackpoint>
            <Time>2022-07-13T16:43:18.000Z</Time>
            <Position>
              <LatitudeDegrees>43.44912218861281871795654296875</LatitudeDegrees>
              <LongitudeDegrees>-3.7686952762305736541748046875</LongitudeDegrees>
            </Position>
            <AltitudeMeters>32.200000762939453125</AltitudeMeters>
            <DistanceMeters>NAN</DistanceMeters>
          </Trackpoint>
          <Trackpoint>
            <Time>2022-07-13T16:43:23.000Z</Time>
            <Position>
              <LatitudeDegrees>43.4491247870028018951416015625</LatitudeDegrees>
              <LongitudeDegrees>-3.7687234394252300262451171875</LongitudeDegrees>
            </Position>
            <AltitudeMeters>32.40000152587890625</AltitudeMeters>
            <DistanceMeters>NAN</DistanceMeters>
          </Trackpoint>
          <Trackpoint>
            <Time>2022-07-13T16:43:34.000Z</Time>
            <Position>
              <LatitudeDegrees>43.44911397434771060943603515625</LatitudeDegrees>
              <LongitudeDegrees>-3.76876006834208965301513671875</LongitudeDegrees>
            </Position>
            <AltitudeMeters>33.200000762939453125</AltitudeMeters>
            <DistanceMeters>NAN</DistanceMeters>
          </Trackpoint>
          <Trackpoint>
            <Time>2022-07-13T16:43:37.000Z</Time>
            <Position>
              <LatitudeDegrees>43.4491147287189960479736328125</LatitudeDegrees>
              <LongitudeDegrees>-3.76876451075077056884765625</LongitudeDegrees>
            </Position>
            <AltitudeMeters>33.200000762939453125</AltitudeMeters>
            <DistanceMeters>NAN</DistanceMeters>
          </Trackpoint>
          <Trackpoint>
            <Time>2022-07-13T16:45:06.000Z</Time>
            <Position>
              <LatitudeDegrees>43.44910592772066593170166015625</LatitudeDegrees>
              <LongitudeDegrees>-3.76883097924292087554931640625</LongitudeDegrees>
            </Position>
            <AltitudeMeters>37.799999237060546875</AltitudeMeters>
            <DistanceMeters>NAN</DistanceMeters>
          </Trackpoint>
          <Trackpoint>
            <Time>2022-07-13T16:45:08.000Z</Time>
            <Position>
              <LatitudeDegrees>43.4491237811744213104248046875</LatitudeDegrees>
              <LongitudeDegrees>-3.76887976191937923431396484375</LongitudeDegrees>
            </Position>
            <AltitudeMeters>38</AltitudeMeters>
            <DistanceMeters>NAN</DistanceMeters>
          </Trackpoint>
          <Trackpoint>
            <Time>2022-07-13T16:45:10.000Z</Time>
            <Position>
              <LatitudeDegrees>43.4491512738168239593505859375</LatitudeDegrees>
              <LongitudeDegrees>-3.76892837695777416229248046875</LongitudeDegrees>
            </Position>
            <AltitudeMeters>38.200000762939453125</AltitudeMeters>
            <DistanceMeters>NAN</DistanceMeters>
          </Trackpoint>
          <Trackpoint>
            <Time>2022-07-13T16:45:13.000Z</Time>
            <Position>
              <LatitudeDegrees>43.44921925105154514312744140625</LatitudeDegrees>
              <LongitudeDegrees>-3.7690050713717937469482421875</LongitudeDegrees>
            </Position>
            <AltitudeMeters>38.40000152587890625</AltitudeMeters>
            <DistanceMeters>NAN</DistanceMeters>
          </Trackpoint>
          <Trackpoint>
            <Time>2022-07-13T16:45:14.000Z</Time>
            <Position>
              <LatitudeDegrees>43.44925068318843841552734375</LatitudeDegrees>
              <LongitudeDegrees>-3.769035749137401580810546875</LongitudeDegrees>
            </Position>
            <AltitudeMeters>38.40000152587890625</AltitudeMeters>
            <DistanceMeters>NAN</DistanceMeters>
          </Trackpoint>
          <Trackpoint>
            <Time>2022-07-13T16:45:20.000Z</Time>
            <Position>
              <LatitudeDegrees>43.44941555522382259368896484375</LatitudeDegrees>
              <LongitudeDegrees>-3.76923523843288421630859375</LongitudeDegrees>
            </Position>
            <AltitudeMeters>38.799999237060546875</AltitudeMeters>
            <DistanceMeters>NAN</DistanceMeters>
          </Trackpoint>
          <Trackpoint>
            <Time>2022-07-13T16:45:21.000Z</Time>
            <Position>
              <LatitudeDegrees>43.44944623298943042755126953125</LatitudeDegrees>
              <LongitudeDegrees>-3.76927505247294902801513671875</LongitudeDegrees>
            </Position>
            <AltitudeMeters>39</AltitudeMeters>
            <DistanceMeters>NAN</DistanceMeters>
          </Trackpoint>
          <Trackpoint>
            <Time>2022-07-13T16:45:23.000Z</Time>
            <Position>
              <LatitudeDegrees>43.449505157768726348876953125</LatitudeDegrees>
              <LongitudeDegrees>-3.7693520821630954742431640625</LongitudeDegrees>
            </Position>
            <AltitudeMeters>37.799999237060546875</AltitudeMeters>
            <DistanceMeters>NAN</DistanceMeters>
          </Trackpoint>
          <Trackpoint>
            <Time>2022-07-13T16:45:25.000Z</Time>
            <Position>
              <LatitudeDegrees>43.44956374727189540863037109375</LatitudeDegrees>
              <LongitudeDegrees>-3.76942659728229045867919921875</LongitudeDegrees>
            </Position>
            <AltitudeMeters>36.799999237060546875</AltitudeMeters>
            <DistanceMeters>NAN</DistanceMeters>
          </Trackpoint>
          <Trackpoint>
            <Time>2022-07-13T16:45:31.000Z</Time>
            <Position>
              <LatitudeDegrees>43.4497484005987644195556640625</LatitudeDegrees>
              <LongitudeDegrees>-3.76963698305189609527587890625</LongitudeDegrees>
            </Position>
            <AltitudeMeters>36.799999237060546875</AltitudeMeters>
            <DistanceMeters>NAN</DistanceMeters>
          </Trackpoint>
          <Trackpoint>
            <Time>2022-07-13T16:45:39.000Z</Time>
            <Position>
              <LatitudeDegrees>43.44998602755367755889892578125</LatitudeDegrees>
              <LongitudeDegrees>-3.76994258724153041839599609375</LongitudeDegrees>
            </Position>
            <AltitudeMeters>36.799999237060546875</AltitudeMeters>
            <DistanceMeters>NAN</DistanceMeters>
          </Trackpoint>
          <Trackpoint>
            <Time>2022-07-13T16:45:40.000Z</Time>
            <Position>
              <LatitudeDegrees>43.45001352019608020782470703125</LatitudeDegrees>
              <LongitudeDegrees>-3.7699840776622295379638671875</LongitudeDegrees>
            </Position>
            <AltitudeMeters>36.799999237060546875</AltitudeMeters>
            <DistanceMeters>NAN</DistanceMeters>
          </Trackpoint>
          <Trackpoint>
            <Time>2022-07-13T16:45:48.000Z</Time>
            <Position>
              <LatitudeDegrees>43.45024771057069301605224609375</LatitudeDegrees>
              <LongitudeDegrees>-3.77029739320278167724609375</LongitudeDegrees>
            </Position>
            <AltitudeMeters>37.200000762939453125</AltitudeMeters>
            <DistanceMeters>NAN</DistanceMeters>
          </Trackpoint>
          <Trackpoint>
            <Time>2022-07-13T16:45:50.000Z</Time>
            <Position>
              <LatitudeDegrees>43.45029364340007305145263671875</LatitudeDegrees>
              <LongitudeDegrees>-3.7703753449022769927978515625</LongitudeDegrees>
            </Position>
            <AltitudeMeters>37.40000152587890625</AltitudeMeters>
            <DistanceMeters>NAN</DistanceMeters>
          </Trackpoint>
          <Trackpoint>
            <Time>2022-07-13T16:45:53.000Z</Time>
            <Position>
              <LatitudeDegrees>43.450377546250820159912109375</LatitudeDegrees>
              <LongitudeDegrees>-3.77048791386187076568603515625</LongitudeDegrees>
            </Position>
            <AltitudeMeters>37.799999237060546875</AltitudeMeters>
            <DistanceMeters>NAN</DistanceMeters>
          </Trackpoint>
          <Trackpoint>
            <Time>2022-07-13T16:45:58.000Z</Time>
            <Position>
              <LatitudeDegrees>43.45049849711358547210693359375</LatitudeDegrees>
              <LongitudeDegrees>-3.77065907232463359832763671875</LongitudeDegrees>
            </Position>
            <AltitudeMeters>37.799999237060546875</AltitudeMeters>
            <DistanceMeters>NAN</DistanceMeters>
          </Trackpoint>
          <Trackpoint>
            <Time>2022-07-13T16:46:01.000Z</Time>
            <Position>
              <LatitudeDegrees>43.45058315433561801910400390625</LatitudeDegrees>
              <LongitudeDegrees>-3.77077373676002025604248046875</LongitudeDegrees>
            </Position>
            <AltitudeMeters>36.59999847412109375</AltitudeMeters>
            <DistanceMeters>NAN</DistanceMeters>
          </Trackpoint>
          <Trackpoint>
            <Time>2022-07-13T16:46:04.000Z</Time>
            <Position>
              <LatitudeDegrees>43.45066814683377742767333984375</LatitudeDegrees>
              <LongitudeDegrees>-3.77086258493363857269287109375</LongitudeDegrees>
            </Position>
            <AltitudeMeters>35.59999847412109375</AltitudeMeters>
            <DistanceMeters>NAN</DistanceMeters>
          </Trackpoint>
          <Trackpoint>
            <Time>2022-07-13T16:46:07.000Z</Time>
            <Position>
              <LatitudeDegrees>43.45075096003711223602294921875</LatitudeDegrees>
              <LongitudeDegrees>-3.77096652053296566009521484375</LongitudeDegrees>
            </Position>
            <AltitudeMeters>35.799999237060546875</AltitudeMeters>
            <DistanceMeters>NAN</DistanceMeters>
          </Trackpoint>
          <Trackpoint>
            <Time>2022-07-13T16:46:11.000Z</Time>
            <Position>
              <LatitudeDegrees>43.45083511434495449066162109375</LatitudeDegrees>
              <LongitudeDegrees>-3.77110448665916919708251953125</LongitudeDegrees>
            </Position>
            <AltitudeMeters>36.59999847412109375</AltitudeMeters>
            <DistanceMeters>NAN</DistanceMeters>
          </Trackpoint>
          <Trackpoint>
            <Time>2022-07-13T16:46:17.000Z</Time>
            <Position>
              <LatitudeDegrees>43.450963608920574188232421875</LatitudeDegrees>
              <LongitudeDegrees>-3.77133096568286418914794921875</LongitudeDegrees>
            </Position>
            <AltitudeMeters>37.200000762939453125</AltitudeMeters>
            <DistanceMeters>NAN</DistanceMeters>
          </Trackpoint>
          <Trackpoint>
            <Time>2022-07-13T16:46:25.000Z</Time>
            <Position>
              <LatitudeDegrees>43.4511636011302471160888671875</LatitudeDegrees>
              <LongitudeDegrees>-3.77166121266782283782958984375</LongitudeDegrees>
            </Position>
            <AltitudeMeters>37.40000152587890625</AltitudeMeters>
            <DistanceMeters>NAN</DistanceMeters>
          </Trackpoint>
          <Trackpoint>
            <Time>2022-07-13T16:46:35.000Z</Time>
            <Position>
              <LatitudeDegrees>43.45137373544275760650634765625</LatitudeDegrees>
              <LongitudeDegrees>-3.7720835767686367034912109375</LongitudeDegrees>
            </Position>
            <AltitudeMeters>36.200000762939453125</AltitudeMeters>
            <DistanceMeters>NAN</DistanceMeters>
          </Trackpoint>
          <Trackpoint>
            <Time>2022-07-13T16:46:39.000Z</Time>
            <Position>
              <LatitudeDegrees>43.45145973376929759979248046875</LatitudeDegrees>
              <LongitudeDegrees>-3.77225783653557300567626953125</LongitudeDegrees>
            </Position>
            <AltitudeMeters>35.40000152587890625</AltitudeMeters>
            <DistanceMeters>NAN</DistanceMeters>
          </Trackpoint>
          <Trackpoint>
            <Time>2022-07-13T16:46:43.000Z</Time>
            <Position>
              <LatitudeDegrees>43.45155646093189716339111328125</LatitudeDegrees>
              <LongitudeDegrees>-3.77244986593723297119140625</LongitudeDegrees>
            </Position>
            <AltitudeMeters>36.799999237060546875</AltitudeMeters>
            <DistanceMeters>NAN</DistanceMeters>
          </Trackpoint>
          <Trackpoint>
            <Time>2022-07-13T16:46:46.000Z</Time>
            <Position>
              <LatitudeDegrees>43.45161915756762027740478515625</LatitudeDegrees>
              <LongitudeDegrees>-3.7725925259292125701904296875</LongitudeDegrees>
            </Position>
            <AltitudeMeters>36.59999847412109375</AltitudeMeters>
            <DistanceMeters>NAN</DistanceMeters>
          </Trackpoint>
          <Trackpoint>
            <Time>2022-07-13T16:46:54.000Z</Time>
            <Position>
              <LatitudeDegrees>43.4517868794500827789306640625</LatitudeDegrees>
              <LongitudeDegrees>-3.77295278012752532958984375</LongitudeDegrees>
            </Position>
            <AltitudeMeters>36.799999237060546875</AltitudeMeters>
            <DistanceMeters>NAN</DistanceMeters>
          </Trackpoint>
          <Trackpoint>
            <Time>2022-07-13T16:47:00.000Z</Time>
            <Position>
              <LatitudeDegrees>43.4519451297819614410400390625</LatitudeDegrees>
              <LongitudeDegrees>-3.77318403683602809906005859375</LongitudeDegrees>
            </Position>
            <AltitudeMeters>36.40000152587890625</AltitudeMeters>
            <DistanceMeters>NAN</DistanceMeters>
          </Trackpoint>
          <Trackpoint>
            <Time>2022-07-13T16:47:07.000Z</Time>
            <Position>
              <LatitudeDegrees>43.45212467014789581298828125</LatitudeDegrees>
              <LongitudeDegrees>-3.77345192246139049530029296875</LongitudeDegrees>
            </Position>
            <AltitudeMeters>36.799999237060546875</AltitudeMeters>
            <DistanceMeters>NAN</DistanceMeters>
          </Trackpoint>
          <Trackpoint>
            <Time>2022-07-13T16:47:18.000Z</Time>
            <Position>
              <LatitudeDegrees>43.4524659812450408935546875</LatitudeDegrees>
              <LongitudeDegrees>-3.7738863565027713775634765625</LongitudeDegrees>
            </Position>
            <AltitudeMeters>36.59999847412109375</AltitudeMeters>
            <DistanceMeters>NAN</DistanceMeters>
          </Trackpoint>
          <Trackpoint>
            <Time>2022-07-13T16:47:24.000Z</Time>
            <Position>
              <LatitudeDegrees>43.45263755880296230316162109375</LatitudeDegrees>
              <LongitudeDegrees>-3.7740928865969181060791015625</LongitudeDegrees>
            </Position>
            <AltitudeMeters>36.59999847412109375</AltitudeMeters>
            <DistanceMeters>NAN</DistanceMeters>
          </Trackpoint>
          <Trackpoint>
            <Time>2022-07-13T16:47:34.000Z</Time>
            <Position>
              <LatitudeDegrees>43.45288583077490329742431640625</LatitudeDegrees>
              <LongitudeDegrees>-3.774487674236297607421875</LongitudeDegrees>
            </Position>
            <AltitudeMeters>36.59999847412109375</AltitudeMeters>
            <DistanceMeters>NAN</DistanceMeters>
          </Trackpoint>
          <Trackpoint>
            <Time>2022-07-13T16:47:43.000Z</Time>
            <Position>
              <LatitudeDegrees>43.45306637696921825408935546875</LatitudeDegrees>
              <LongitudeDegrees>-3.77490274608135223388671875</LongitudeDegrees>
            </Position>
            <AltitudeMeters>36</AltitudeMeters>
            <DistanceMeters>NAN</DistanceMeters>
          </Trackpoint>
          <Trackpoint>
            <Time>2022-07-13T16:47:51.000Z</Time>
            <Position>
              <LatitudeDegrees>43.45325211994349956512451171875</LatitudeDegrees>
              <LongitudeDegrees>-3.77526224590837955474853515625</LongitudeDegrees>
            </Position>
            <AltitudeMeters>36.200000762939453125</AltitudeMeters>
            <DistanceMeters>NAN</DistanceMeters>
          </Trackpoint>
          <Trackpoint>
            <Time>2022-07-13T16:47:56.000Z</Time>
            <Position>
              <LatitudeDegrees>43.4533653594553470611572265625</LatitudeDegrees>
              <LongitudeDegrees>-3.775490485131740570068359375</LongitudeDegrees>
            </Position>
            <AltitudeMeters>36.40000152587890625</AltitudeMeters>
            <DistanceMeters>NAN</DistanceMeters>
          </Trackpoint>
          <Trackpoint>
            <Time>2022-07-13T16:47:59.000Z</Time>
            <Position>
              <LatitudeDegrees>43.45343350432813167572021484375</LatitudeDegrees>
              <LongitudeDegrees>-3.7756289541721343994140625</LongitudeDegrees>
            </Position>
            <AltitudeMeters>36.200000762939453125</AltitudeMeters>
            <DistanceMeters>NAN</DistanceMeters>
          </Trackpoint>
          <Trackpoint>
            <Time>2022-07-13T16:48:05.000Z</Time>
            <Position>
              <LatitudeDegrees>43.45356903970241546630859375</LatitudeDegrees>
              <LongitudeDegrees>-3.7758998572826385498046875</LongitudeDegrees>
            </Position>
            <AltitudeMeters>36</AltitudeMeters>
            <DistanceMeters>NAN</DistanceMeters>
          </Trackpoint>
          <Trackpoint>
            <Time>2022-07-13T16:48:06.000Z</Time>
            <Position>
              <LatitudeDegrees>43.45359192229807376861572265625</LatitudeDegrees>
              <LongitudeDegrees>-3.77594470046460628509521484375</LongitudeDegrees>
            </Position>
            <AltitudeMeters>36</AltitudeMeters>
            <DistanceMeters>NAN</DistanceMeters>
          </Trackpoint>
          <Trackpoint>
            <Time>2022-07-13T16:48:08.000Z</Time>
            <Position>
              <LatitudeDegrees>43.45363701693713665008544921875</LatitudeDegrees>
              <LongitudeDegrees>-3.7760371528565883636474609375</LongitudeDegrees>
            </Position>
            <AltitudeMeters>36.200000762939453125</AltitudeMeters>
            <DistanceMeters>NAN</DistanceMeters>
          </Trackpoint>
          <Trackpoint>
            <Time>2022-07-13T16:48:10.000Z</Time>
            <Position>
              <LatitudeDegrees>43.453682027757167816162109375</LatitudeDegrees>
              <LongitudeDegrees>-3.7761330418288707733154296875</LongitudeDegrees>
            </Position>
            <AltitudeMeters>36.200000762939453125</AltitudeMeters>
            <DistanceMeters>NAN</DistanceMeters>
          </Trackpoint>
          <Trackpoint>
            <Time>2022-07-13T16:48:15.000Z</Time>
            <Position>
              <LatitudeDegrees>43.45379593782126903533935546875</LatitudeDegrees>
              <LongitudeDegrees>-3.7763435952365398406982421875</LongitudeDegrees>
            </Position>
            <AltitudeMeters>35.59999847412109375</AltitudeMeters>
            <DistanceMeters>NAN</DistanceMeters>
          </Trackpoint>
          <Trackpoint>
            <Time>2022-07-13T16:48:18.000Z</Time>
            <Position>
              <LatitudeDegrees>43.4538655914366245269775390625</LatitudeDegrees>
              <LongitudeDegrees>-3.776456750929355621337890625</LongitudeDegrees>
            </Position>
            <AltitudeMeters>36</AltitudeMeters>
            <DistanceMeters>NAN</DistanceMeters>
          </Trackpoint>
          <Trackpoint>
            <Time>2022-07-13T16:48:21.000Z</Time>
            <Position>
              <LatitudeDegrees>43.45393742434680461883544921875</LatitudeDegrees>
              <LongitudeDegrees>-3.77658717334270477294921875</LongitudeDegrees>
            </Position>
            <AltitudeMeters>36</AltitudeMeters>
            <DistanceMeters>NAN</DistanceMeters>
          </Trackpoint>
          <Trackpoint>
            <Time>2022-07-13T16:48:23.000Z</Time>
            <Position>
              <LatitudeDegrees>43.4539913199841976165771484375</LatitudeDegrees>
              <LongitudeDegrees>-3.776671327650547027587890625</LongitudeDegrees>
            </Position>
            <AltitudeMeters>36</AltitudeMeters>
            <DistanceMeters>NAN</DistanceMeters>
          </Trackpoint>
          <Trackpoint>
            <Time>2022-07-13T16:48:25.000Z</Time>
            <Position>
              <LatitudeDegrees>43.45404454506933689117431640625</LatitudeDegrees>
              <LongitudeDegrees>-3.77676495350897312164306640625</LongitudeDegrees>
            </Position>
            <AltitudeMeters>36</AltitudeMeters>
            <DistanceMeters>NAN</DistanceMeters>
          </Trackpoint>
          <Trackpoint>
            <Time>2022-07-13T16:48:34.000Z</Time>
            <Position>
              <LatitudeDegrees>43.45424034632742404937744140625</LatitudeDegrees>
              <LongitudeDegrees>-3.77722092904150485992431640625</LongitudeDegrees>
            </Position>
            <AltitudeMeters>36.40000152587890625</AltitudeMeters>
            <DistanceMeters>NAN</DistanceMeters>
          </Trackpoint>
          <Trackpoint>
            <Time>2022-07-13T16:48:38.000Z</Time>
            <Position>
              <LatitudeDegrees>43.4543188847601413726806640625</LatitudeDegrees>
              <LongitudeDegrees>-3.77745226956903934478759765625</LongitudeDegrees>
            </Position>
            <AltitudeMeters>36</AltitudeMeters>
            <DistanceMeters>NAN</DistanceMeters>
          </Trackpoint>
          <Trackpoint>
            <Time>2022-07-13T16:48:44.000Z</Time>
            <Position>
              <LatitudeDegrees>43.45443178899586200714111328125</LatitudeDegrees>
              <LongitudeDegrees>-3.77776843495666980743408203125</LongitudeDegrees>
            </Position>
            <AltitudeMeters>35.799999237060546875</AltitudeMeters>
            <DistanceMeters>NAN</DistanceMeters>
          </Trackpoint>
          <Trackpoint>
            <Time>2022-07-13T16:48:47.000Z</Time>
            <Position>
              <LatitudeDegrees>43.4544848464429378509521484375</LatitudeDegrees>
              <LongitudeDegrees>-3.7779187224805355072021484375</LongitudeDegrees>
            </Position>
            <AltitudeMeters>35.40000152587890625</AltitudeMeters>
            <DistanceMeters>NAN</DistanceMeters>
          </Trackpoint>
          <Trackpoint>
            <Time>2022-07-13T16:48:49.000Z</Time>
            <Position>
              <LatitudeDegrees>43.45451946370303630828857421875</LatitudeDegrees>
              <LongitudeDegrees>-3.7780263461172580718994140625</LongitudeDegrees>
            </Position>
            <AltitudeMeters>35.59999847412109375</AltitudeMeters>
            <DistanceMeters>NAN</DistanceMeters>
          </Trackpoint>
          <Trackpoint>
            <Time>2022-07-13T16:48:51.000Z</Time>
            <Position>
              <LatitudeDegrees>43.45456003211438655853271484375</LatitudeDegrees>
              <LongitudeDegrees>-3.7781275995075702667236328125</LongitudeDegrees>
            </Position>
            <AltitudeMeters>35.799999237060546875</AltitudeMeters>
            <DistanceMeters>NAN</DistanceMeters>
          </Trackpoint>
          <Trackpoint>
            <Time>2022-07-13T16:49:01.000Z</Time>
            <Position>
              <LatitudeDegrees>43.4547446854412555694580078125</LatitudeDegrees>
              <LongitudeDegrees>-3.77865222282707691192626953125</LongitudeDegrees>
            </Position>
            <AltitudeMeters>35.40000152587890625</AltitudeMeters>
            <DistanceMeters>NAN</DistanceMeters>
          </Trackpoint>
          <Trackpoint>
            <Time>2022-07-13T16:49:02.000Z</Time>
            <Position>
              <LatitudeDegrees>43.45476128160953521728515625</LatitudeDegrees>
              <LongitudeDegrees>-3.778701759874820709228515625</LongitudeDegrees>
            </Position>
            <AltitudeMeters>34.59999847412109375</AltitudeMeters>
            <DistanceMeters>NAN</DistanceMeters>
          </Trackpoint>
          <Trackpoint>
            <Time>2022-07-13T16:49:03.000Z</Time>
            <Position>
              <LatitudeDegrees>43.45477494411170482635498046875</LatitudeDegrees>
              <LongitudeDegrees>-3.77875347621738910675048828125</LongitudeDegrees>
            </Position>
            <AltitudeMeters>34.200000762939453125</AltitudeMeters>
            <DistanceMeters>NAN</DistanceMeters>
          </Trackpoint>
          <Trackpoint>
            <Time>2022-07-13T16:49:06.000Z</Time>
            <Position>
              <LatitudeDegrees>43.45482422970235347747802734375</LatitudeDegrees>
              <LongitudeDegrees>-3.77890569157898426055908203125</LongitudeDegrees>
            </Position>
            <AltitudeMeters>33.200000762939453125</AltitudeMeters>
            <DistanceMeters>NAN</DistanceMeters>
          </Trackpoint>
          <Trackpoint>
            <Time>2022-07-13T16:49:09.000Z</Time>
            <Position>
              <LatitudeDegrees>43.454881645739078521728515625</LatitudeDegrees>
              <LongitudeDegrees>-3.77907668240368366241455078125</LongitudeDegrees>
            </Position>
            <AltitudeMeters>33.200000762939453125</AltitudeMeters>
            <DistanceMeters>NAN</DistanceMeters>
          </Trackpoint>
          <Trackpoint>
            <Time>2022-07-13T16:49:17.000Z</Time>
            <Position>
              <LatitudeDegrees>43.4550142474472522735595703125</LatitudeDegrees>
              <LongitudeDegrees>-3.7795208394527435302734375</LongitudeDegrees>
            </Position>
            <AltitudeMeters>33.59999847412109375</AltitudeMeters>
            <DistanceMeters>NAN</DistanceMeters>
          </Trackpoint>
          <Trackpoint>
            <Time>2022-07-13T16:49:27.000Z</Time>
            <Position>
              <LatitudeDegrees>43.4551617689430713653564453125</LatitudeDegrees>
              <LongitudeDegrees>-3.7800681777298450469970703125</LongitudeDegrees>
            </Position>
            <AltitudeMeters>33.799999237060546875</AltitudeMeters>
            <DistanceMeters>NAN</DistanceMeters>
          </Trackpoint>
          <Trackpoint>
            <Time>2022-07-13T16:49:37.000Z</Time>
            <Position>
              <LatitudeDegrees>43.455307781696319580078125</LatitudeDegrees>
              <LongitudeDegrees>-3.78061559982597827911376953125</LongitudeDegrees>
            </Position>
            <AltitudeMeters>33.40000152587890625</AltitudeMeters>
            <DistanceMeters>NAN</DistanceMeters>
          </Trackpoint>
          <Trackpoint>
            <Time>2022-07-13T16:49:44.000Z</Time>
            <Position>
              <LatitudeDegrees>43.455410711467266082763671875</LatitudeDegrees>
              <LongitudeDegrees>-3.781002424657344818115234375</LongitudeDegrees>
            </Position>
            <AltitudeMeters>33</AltitudeMeters>
            <DistanceMeters>NAN</DistanceMeters>
          </Trackpoint>
          <Trackpoint>
            <Time>2022-07-13T16:49:45.000Z</Time>
            <Position>
              <LatitudeDegrees>43.455422110855579376220703125</LatitudeDegrees>
              <LongitudeDegrees>-3.78106218762695789337158203125</LongitudeDegrees>
            </Position>
            <AltitudeMeters>33.200000762939453125</AltitudeMeters>
            <DistanceMeters>NAN</DistanceMeters>
          </Trackpoint>
          <Trackpoint>
            <Time>2022-07-13T16:49:52.000Z</Time>
            <Position>
              <LatitudeDegrees>43.455471731722354888916015625</LatitudeDegrees>
              <LongitudeDegrees>-3.78146753646433353424072265625</LongitudeDegrees>
            </Position>
            <AltitudeMeters>35</AltitudeMeters>
            <DistanceMeters>NAN</DistanceMeters>
          </Trackpoint>
          <Trackpoint>
            <Time>2022-07-13T16:49:54.000Z</Time>
            <Position>
              <LatitudeDegrees>43.455481790006160736083984375</LatitudeDegrees>
              <LongitudeDegrees>-3.78158069215714931488037109375</LongitudeDegrees>
            </Position>
            <AltitudeMeters>36.200000762939453125</AltitudeMeters>
            <DistanceMeters>NAN</DistanceMeters>
          </Trackpoint>
          <Trackpoint>
            <Time>2022-07-13T16:49:59.000Z</Time>
            <Position>
              <LatitudeDegrees>43.45549813471734523773193359375</LatitudeDegrees>
              <LongitudeDegrees>-3.78186182118952274322509765625</LongitudeDegrees>
            </Position>
            <AltitudeMeters>36.799999237060546875</AltitudeMeters>
            <DistanceMeters>NAN</DistanceMeters>
          </Trackpoint>
          <Trackpoint>
            <Time>2022-07-13T16:50:00.000Z</Time>
            <Position>
              <LatitudeDegrees>43.455501906573772430419921875</LatitudeDegrees>
              <LongitudeDegrees>-3.78192200325429439544677734375</LongitudeDegrees>
            </Position>
            <AltitudeMeters>36.799999237060546875</AltitudeMeters>
            <DistanceMeters>NAN</DistanceMeters>
          </Trackpoint>
          <Trackpoint>
            <Time>2022-07-13T16:50:08.000Z</Time>
            <Position>
              <LatitudeDegrees>43.4555305726826190948486328125</LatitudeDegrees>
              <LongitudeDegrees>-3.7823765538632869720458984375</LongitudeDegrees>
            </Position>
            <AltitudeMeters>36.200000762939453125</AltitudeMeters>
            <DistanceMeters>NAN</DistanceMeters>
          </Trackpoint>
          <Trackpoint>
            <Time>2022-07-13T16:50:14.000Z</Time>
            <Position>
              <LatitudeDegrees>43.4555470012128353118896484375</LatitudeDegrees>
              <LongitudeDegrees>-3.78269649110734462738037109375</LongitudeDegrees>
            </Position>
            <AltitudeMeters>36.59999847412109375</AltitudeMeters>
            <DistanceMeters>NAN</DistanceMeters>
          </Trackpoint>
          <Trackpoint>
            <Time>2022-07-13T16:50:17.000Z</Time>
            <Position>
              <LatitudeDegrees>43.4555516950786113739013671875</LatitudeDegrees>
              <LongitudeDegrees>-3.7828548252582550048828125</LongitudeDegrees>
            </Position>
            <AltitudeMeters>36.59999847412109375</AltitudeMeters>
            <DistanceMeters>NAN</DistanceMeters>
          </Trackpoint>
          <Trackpoint>
            <Time>2022-07-13T16:50:26.000Z</Time>
            <Position>
              <LatitudeDegrees>43.45556451939046382904052734375</LatitudeDegrees>
              <LongitudeDegrees>-3.7833558954298496246337890625</LongitudeDegrees>
            </Position>
            <AltitudeMeters>36.200000762939453125</AltitudeMeters>
            <DistanceMeters>NAN</DistanceMeters>
          </Trackpoint>
          <Trackpoint>
            <Time>2022-07-13T16:50:33.000Z</Time>
            <Position>
              <LatitudeDegrees>43.45556049607694149017333984375</LatitudeDegrees>
              <LongitudeDegrees>-3.78372184932231903076171875</LongitudeDegrees>
            </Position>
            <AltitudeMeters>35.40000152587890625</AltitudeMeters>
            <DistanceMeters>NAN</DistanceMeters>
          </Trackpoint>
          <Trackpoint>
            <Time>2022-07-13T16:50:37.000Z</Time>
            <Position>
              <LatitudeDegrees>43.45554943196475505828857421875</LatitudeDegrees>
              <LongitudeDegrees>-3.78394908271729946136474609375</LongitudeDegrees>
            </Position>
            <AltitudeMeters>35.59999847412109375</AltitudeMeters>
            <DistanceMeters>NAN</DistanceMeters>
          </Trackpoint>
          <Trackpoint>
            <Time>2022-07-13T16:50:41.000Z</Time>
            <Position>
              <LatitudeDegrees>43.45553350634872913360595703125</LatitudeDegrees>
              <LongitudeDegrees>-3.78415234386920928955078125</LongitudeDegrees>
            </Position>
            <AltitudeMeters>35.59999847412109375</AltitudeMeters>
            <DistanceMeters>NAN</DistanceMeters>
          </Trackpoint>
          <Trackpoint>
            <Time>2022-07-13T16:50:46.000Z</Time>
            <Position>
              <LatitudeDegrees>43.45552629791200160980224609375</LatitudeDegrees>
              <LongitudeDegrees>-3.78442500717937946319580078125</LongitudeDegrees>
            </Position>
            <AltitudeMeters>35.799999237060546875</AltitudeMeters>
            <DistanceMeters>NAN</DistanceMeters>
          </Trackpoint>
          <Trackpoint>
            <Time>2022-07-13T16:50:49.000Z</Time>
            <Position>
              <LatitudeDegrees>43.45551473088562488555908203125</LatitudeDegrees>
              <LongitudeDegrees>-3.78459063358604907989501953125</LongitudeDegrees>
            </Position>
            <AltitudeMeters>36</AltitudeMeters>
            <DistanceMeters>NAN</DistanceMeters>
          </Trackpoint>
          <Trackpoint>
            <Time>2022-07-13T16:50:50.000Z</Time>
            <Position>
              <LatitudeDegrees>43.455509953200817108154296875</LatitudeDegrees>
              <LongitudeDegrees>-3.78464545123279094696044921875</LongitudeDegrees>
            </Position>
            <AltitudeMeters>36</AltitudeMeters>
            <DistanceMeters>NAN</DistanceMeters>
          </Trackpoint>
          <Trackpoint>
            <Time>2022-07-13T16:50:56.000Z</Time>
            <Position>
              <LatitudeDegrees>43.455493189394474029541015625</LatitudeDegrees>
              <LongitudeDegrees>-3.784953318536281585693359375</LongitudeDegrees>
            </Position>
            <AltitudeMeters>35.799999237060546875</AltitudeMeters>
            <DistanceMeters>NAN</DistanceMeters>
          </Trackpoint>
          <Trackpoint>
            <Time>2022-07-13T16:50:58.000Z</Time>
            <Position>
              <LatitudeDegrees>43.4554879926145076751708984375</LatitudeDegrees>
              <LongitudeDegrees>-3.7850580923259258270263671875</LongitudeDegrees>
            </Position>
            <AltitudeMeters>35.799999237060546875</AltitudeMeters>
            <DistanceMeters>NAN</DistanceMeters>
          </Trackpoint>
          <Trackpoint>
            <Time>2022-07-13T16:51:07.000Z</Time>
            <Position>
              <LatitudeDegrees>43.4554802812635898590087890625</LatitudeDegrees>
              <LongitudeDegrees>-3.78553376533091068267822265625</LongitudeDegrees>
            </Position>
            <AltitudeMeters>35.799999237060546875</AltitudeMeters>
            <DistanceMeters>NAN</DistanceMeters>
          </Trackpoint>
          <Trackpoint>
            <Time>2022-07-13T16:51:16.000Z</Time>
            <Position>
              <LatitudeDegrees>43.45546980388462543487548828125</LatitudeDegrees>
              <LongitudeDegrees>-3.7860109470784664154052734375</LongitudeDegrees>
            </Position>
            <AltitudeMeters>35.799999237060546875</AltitudeMeters>
            <DistanceMeters>NAN</DistanceMeters>
          </Trackpoint>
          <Trackpoint>
            <Time>2022-07-13T16:51:21.000Z</Time>
            <Position>
              <LatitudeDegrees>43.4554621763527393341064453125</LatitudeDegrees>
              <LongitudeDegrees>-3.786262236535549163818359375</LongitudeDegrees>
            </Position>
            <AltitudeMeters>36.200000762939453125</AltitudeMeters>
            <DistanceMeters>NAN</DistanceMeters>
          </Trackpoint>
          <Trackpoint>
            <Time>2022-07-13T16:51:23.000Z</Time>
            <Position>
              <LatitudeDegrees>43.4554584883153438568115234375</LatitudeDegrees>
              <LongitudeDegrees>-3.7863639928400516510009765625</LongitudeDegrees>
            </Position>
            <AltitudeMeters>36.200000762939453125</AltitudeMeters>
            <DistanceMeters>NAN</DistanceMeters>
          </Trackpoint>
          <Trackpoint>
            <Time>2022-07-13T16:51:30.000Z</Time>
            <Position>
              <LatitudeDegrees>43.455465696752071380615234375</LatitudeDegrees>
              <LongitudeDegrees>-3.78672533668577671051025390625</LongitudeDegrees>
            </Position>
            <AltitudeMeters>36.40000152587890625</AltitudeMeters>
            <DistanceMeters>NAN</DistanceMeters>
          </Trackpoint>
          <Trackpoint>
            <Time>2022-07-13T16:51:39.000Z</Time>
            <Position>
              <LatitudeDegrees>43.455511964857578277587890625</LatitudeDegrees>
              <LongitudeDegrees>-3.78719589672982692718505859375</LongitudeDegrees>
            </Position>
            <AltitudeMeters>36</AltitudeMeters>
            <DistanceMeters>NAN</DistanceMeters>
          </Trackpoint>
          <Trackpoint>
            <Time>2022-07-13T16:51:40.000Z</Time>
            <Position>
              <LatitudeDegrees>43.45551741309463977813720703125</LatitudeDegrees>
              <LongitudeDegrees>-3.78725188784301280975341796875</LongitudeDegrees>
            </Position>
            <AltitudeMeters>35.59999847412109375</AltitudeMeters>
            <DistanceMeters>NAN</DistanceMeters>
          </Trackpoint>
          <Trackpoint>
            <Time>2022-07-13T16:51:42.000Z</Time>
            <Position>
              <LatitudeDegrees>43.4555268846452236175537109375</LatitudeDegrees>
              <LongitudeDegrees>-3.787358589470386505126953125</LongitudeDegrees>
            </Position>
            <AltitudeMeters>35.200000762939453125</AltitudeMeters>
            <DistanceMeters>NAN</DistanceMeters>
          </Trackpoint>
          <Trackpoint>
            <Time>2022-07-13T16:51:48.000Z</Time>
            <Position>
              <LatitudeDegrees>43.45556418411433696746826171875</LatitudeDegrees>
              <LongitudeDegrees>-3.7876720726490020751953125</LongitudeDegrees>
            </Position>
            <AltitudeMeters>35.59999847412109375</AltitudeMeters>
            <DistanceMeters>NAN</DistanceMeters>
          </Trackpoint>
          <Trackpoint>
            <Time>2022-07-13T16:51:51.000Z</Time>
            <Position>
              <LatitudeDegrees>43.45557642169296741485595703125</LatitudeDegrees>
              <LongitudeDegrees>-3.78782940097153186798095703125</LongitudeDegrees>
            </Position>
            <AltitudeMeters>36</AltitudeMeters>
            <DistanceMeters>NAN</DistanceMeters>
          </Trackpoint>
          <Trackpoint>
            <Time>2022-07-13T16:51:54.000Z</Time>
            <Position>
              <LatitudeDegrees>43.455589078366756439208984375</LatitudeDegrees>
              <LongitudeDegrees>-3.78798966296017169952392578125</LongitudeDegrees>
            </Position>
            <AltitudeMeters>36.200000762939453125</AltitudeMeters>
            <DistanceMeters>NAN</DistanceMeters>
          </Trackpoint>
          <Trackpoint>
            <Time>2022-07-13T16:51:55.000Z</Time>
            <Position>
              <LatitudeDegrees>43.4555976279079914093017578125</LatitudeDegrees>
              <LongitudeDegrees>-3.7880440615117549896240234375</LongitudeDegrees>
            </Position>
            <AltitudeMeters>36.59999847412109375</AltitudeMeters>
            <DistanceMeters>NAN</DistanceMeters>
          </Trackpoint>
          <Trackpoint>
            <Time>2022-07-13T16:52:01.000Z</Time>
            <Position>
              <LatitudeDegrees>43.45560994930565357208251953125</LatitudeDegrees>
              <LongitudeDegrees>-3.7883479893207550048828125</LongitudeDegrees>
            </Position>
            <AltitudeMeters>37.799999237060546875</AltitudeMeters>
            <DistanceMeters>NAN</DistanceMeters>
          </Trackpoint>
          <Trackpoint>
            <Time>2022-07-13T16:52:09.000Z</Time>
            <Position>
              <LatitudeDegrees>43.45564414747059345245361328125</LatitudeDegrees>
              <LongitudeDegrees>-3.78879256546497344970703125</LongitudeDegrees>
            </Position>
            <AltitudeMeters>37.799999237060546875</AltitudeMeters>
            <DistanceMeters>NAN</DistanceMeters>
          </Trackpoint>
          <Trackpoint>
            <Time>2022-07-13T16:52:17.000Z</Time>
            <Position>
              <LatitudeDegrees>43.455695696175098419189453125</LatitudeDegrees>
              <LongitudeDegrees>-3.7892272509634494781494140625</LongitudeDegrees>
            </Position>
            <AltitudeMeters>38.200000762939453125</AltitudeMeters>
            <DistanceMeters>NAN</DistanceMeters>
          </Trackpoint>
          <Trackpoint>
            <Time>2022-07-13T16:52:22.000Z</Time>
            <Position>
              <LatitudeDegrees>43.4557360969483852386474609375</LatitudeDegrees>
              <LongitudeDegrees>-3.78949656151235103607177734375</LongitudeDegrees>
            </Position>
            <AltitudeMeters>38.59999847412109375</AltitudeMeters>
            <DistanceMeters>NAN</DistanceMeters>
          </Trackpoint>
          <Trackpoint>
            <Time>2022-07-13T16:52:23.000Z</Time>
            <Position>
              <LatitudeDegrees>43.45574565231800079345703125</LatitudeDegrees>
              <LongitudeDegrees>-3.78955221734941005706787109375</LongitudeDegrees>
            </Position>
            <AltitudeMeters>38.799999237060546875</AltitudeMeters>
            <DistanceMeters>NAN</DistanceMeters>
          </Trackpoint>
          <Trackpoint>
            <Time>2022-07-13T16:52:26.000Z</Time>
            <Position>
              <LatitudeDegrees>43.45577037893235683441162109375</LatitudeDegrees>
              <LongitudeDegrees>-3.789712227880954742431640625</LongitudeDegrees>
            </Position>
            <AltitudeMeters>39</AltitudeMeters>
            <DistanceMeters>NAN</DistanceMeters>
          </Trackpoint>
          <Trackpoint>
            <Time>2022-07-13T16:52:32.000Z</Time>
            <Position>
              <LatitudeDegrees>43.45585302449762821197509765625</LatitudeDegrees>
              <LongitudeDegrees>-3.79002529196441173553466796875</LongitudeDegrees>
            </Position>
            <AltitudeMeters>39.200000762939453125</AltitudeMeters>
            <DistanceMeters>NAN</DistanceMeters>
          </Trackpoint>
          <Trackpoint>
            <Time>2022-07-13T16:52:35.000Z</Time>
            <Position>
              <LatitudeDegrees>43.45589526928961277008056640625</LatitudeDegrees>
              <LongitudeDegrees>-3.7901720590889453887939453125</LongitudeDegrees>
            </Position>
            <AltitudeMeters>39</AltitudeMeters>
            <DistanceMeters>NAN</DistanceMeters>
          </Trackpoint>
          <Trackpoint>
            <Time>2022-07-13T16:52:42.000Z</Time>
            <Position>
              <LatitudeDegrees>43.45599509775638580322265625</LatitudeDegrees>
              <LongitudeDegrees>-3.79050373099744319915771484375</LongitudeDegrees>
            </Position>
            <AltitudeMeters>38.40000152587890625</AltitudeMeters>
            <DistanceMeters>NAN</DistanceMeters>
          </Trackpoint>
          <Trackpoint>
            <Time>2022-07-13T16:52:52.000Z</Time>
            <Position>
              <LatitudeDegrees>43.4561461396515369415283203125</LatitudeDegrees>
              <LongitudeDegrees>-3.79098468460142612457275390625</LongitudeDegrees>
            </Position>
            <AltitudeMeters>39.200000762939453125</AltitudeMeters>
            <DistanceMeters>NAN</DistanceMeters>
          </Trackpoint>
          <Trackpoint>
            <Time>2022-07-13T16:52:55.000Z</Time>
            <Position>
              <LatitudeDegrees>43.45618478022515773773193359375</LatitudeDegrees>
              <LongitudeDegrees>-3.79113136790692806243896484375</LongitudeDegrees>
            </Position>
            <AltitudeMeters>39.799999237060546875</AltitudeMeters>
            <DistanceMeters>NAN</DistanceMeters>
          </Trackpoint>
          <Trackpoint>
            <Time>2022-07-13T16:52:59.000Z</Time>
            <Position>
              <LatitudeDegrees>43.4562447108328342437744140625</LatitudeDegrees>
              <LongitudeDegrees>-3.79132800735533237457275390625</LongitudeDegrees>
            </Position>
            <AltitudeMeters>38.40000152587890625</AltitudeMeters>
            <DistanceMeters>NAN</DistanceMeters>
          </Trackpoint>
          <Trackpoint>
            <Time>2022-07-13T16:53:01.000Z</Time>
            <Position>
              <LatitudeDegrees>43.4562795795500278472900390625</LatitudeDegrees>
              <LongitudeDegrees>-3.79142574034631252288818359375</LongitudeDegrees>
            </Position>
            <AltitudeMeters>38</AltitudeMeters>
            <DistanceMeters>NAN</DistanceMeters>
          </Trackpoint>
          <Trackpoint>
            <Time>2022-07-13T16:53:04.000Z</Time>
            <Position>
              <LatitudeDegrees>43.45633783377707004547119140625</LatitudeDegrees>
              <LongitudeDegrees>-3.791554905474185943603515625</LongitudeDegrees>
            </Position>
            <AltitudeMeters>38.59999847412109375</AltitudeMeters>
            <DistanceMeters>NAN</DistanceMeters>
          </Trackpoint>
          <Trackpoint>
            <Time>2022-07-13T16:53:06.000Z</Time>
            <Position>
              <LatitudeDegrees>43.456376977264881134033203125</LatitudeDegrees>
              <LongitudeDegrees>-3.7916444242000579833984375</LongitudeDegrees>
            </Position>
            <AltitudeMeters>38.59999847412109375</AltitudeMeters>
            <DistanceMeters>NAN</DistanceMeters>
          </Trackpoint>
          <Trackpoint>
            <Time>2022-07-13T16:53:07.000Z</Time>
            <Position>
              <LatitudeDegrees>43.456397093832492828369140625</LatitudeDegrees>
              <LongitudeDegrees>-3.79169161431491374969482421875</LongitudeDegrees>
            </Position>
            <AltitudeMeters>38.59999847412109375</AltitudeMeters>
            <DistanceMeters>NAN</DistanceMeters>
          </Trackpoint>
          <Trackpoint>
            <Time>2022-07-13T16:53:09.000Z</Time>
            <Position>
              <LatitudeDegrees>43.45643606968224048614501953125</LatitudeDegrees>
              <LongitudeDegrees>-3.7917860783636569976806640625</LongitudeDegrees>
            </Position>
            <AltitudeMeters>39.200000762939453125</AltitudeMeters>
            <DistanceMeters>NAN</DistanceMeters>
          </Trackpoint>
          <Trackpoint>
            <Time>2022-07-13T16:53:10.000Z</Time>
            <Position>
              <LatitudeDegrees>43.45645643770694732666015625</LatitudeDegrees>
              <LongitudeDegrees>-3.79183293320238590240478515625</LongitudeDegrees>
            </Position>
            <AltitudeMeters>39.40000152587890625</AltitudeMeters>
            <DistanceMeters>NAN</DistanceMeters>
          </Trackpoint>
          <Trackpoint>
            <Time>2022-07-13T16:53:11.000Z</Time>
            <Position>
              <LatitudeDegrees>43.45647630281746387481689453125</LatitudeDegrees>
              <LongitudeDegrees>-3.79187936894595623016357421875</LongitudeDegrees>
            </Position>
            <AltitudeMeters>39.40000152587890625</AltitudeMeters>
            <DistanceMeters>NAN</DistanceMeters>
          </Trackpoint>
          <Trackpoint>
            <Time>2022-07-13T16:53:12.000Z</Time>
            <Position>
              <LatitudeDegrees>43.4564914740622043609619140625</LatitudeDegrees>
              <LongitudeDegrees>-3.79192270338535308837890625</LongitudeDegrees>
            </Position>
            <AltitudeMeters>39.40000152587890625</AltitudeMeters>
            <DistanceMeters>NAN</DistanceMeters>
          </Trackpoint>
          <Trackpoint>
            <Time>2022-07-13T16:53:13.000Z</Time>
            <Position>
              <LatitudeDegrees>43.45651008188724517822265625</LatitudeDegrees>
              <LongitudeDegrees>-3.79197425208985805511474609375</LongitudeDegrees>
            </Position>
            <AltitudeMeters>39.59999847412109375</AltitudeMeters>
            <DistanceMeters>NAN</DistanceMeters>
          </Trackpoint>
          <Trackpoint>
            <Time>2022-07-13T16:53:15.000Z</Time>
            <Position>
              <LatitudeDegrees>43.45655090175569057464599609375</LatitudeDegrees>
              <LongitudeDegrees>-3.79207961261272430419921875</LongitudeDegrees>
            </Position>
            <AltitudeMeters>39.799999237060546875</AltitudeMeters>
            <DistanceMeters>NAN</DistanceMeters>
          </Trackpoint>
          <Trackpoint>
            <Time>2022-07-13T16:53:20.000Z</Time>
            <Position>
              <LatitudeDegrees>43.45663270913064479827880859375</LatitudeDegrees>
              <LongitudeDegrees>-3.792346157133579254150390625</LongitudeDegrees>
            </Position>
            <AltitudeMeters>40.200000762939453125</AltitudeMeters>
            <DistanceMeters>NAN</DistanceMeters>
          </Trackpoint>
          <Trackpoint>
            <Time>2022-07-13T16:53:23.000Z</Time>
            <Position>
              <LatitudeDegrees>43.45666690729558467864990234375</LatitudeDegrees>
              <LongitudeDegrees>-3.7925002165138721466064453125</LongitudeDegrees>
            </Position>
            <AltitudeMeters>40.59999847412109375</AltitudeMeters>
            <DistanceMeters>NAN</DistanceMeters>
          </Trackpoint>
          <Trackpoint>
            <Time>2022-07-13T16:53:27.000Z</Time>
            <Position>
              <LatitudeDegrees>43.45671384595334529876708984375</LatitudeDegrees>
              <LongitudeDegrees>-3.79269308410584926605224609375</LongitudeDegrees>
            </Position>
            <AltitudeMeters>41</AltitudeMeters>
            <DistanceMeters>NAN</DistanceMeters>
          </Trackpoint>
          <Trackpoint>
            <Time>2022-07-13T16:53:30.000Z</Time>
            <Position>
              <LatitudeDegrees>43.4567550010979175567626953125</LatitudeDegrees>
              <LongitudeDegrees>-3.79285166971385478973388671875</LongitudeDegrees>
            </Position>
            <AltitudeMeters>41</AltitudeMeters>
            <DistanceMeters>NAN</DistanceMeters>
          </Trackpoint>
          <Trackpoint>
            <Time>2022-07-13T16:53:32.000Z</Time>
            <Position>
              <LatitudeDegrees>43.4567814879119396209716796875</LatitudeDegrees>
              <LongitudeDegrees>-3.79294320009648799896240234375</LongitudeDegrees>
            </Position>
            <AltitudeMeters>41</AltitudeMeters>
            <DistanceMeters>NAN</DistanceMeters>
          </Trackpoint>
          <Trackpoint>
            <Time>2022-07-13T16:53:35.000Z</Time>
            <Position>
              <LatitudeDegrees>43.45682448707520961761474609375</LatitudeDegrees>
              <LongitudeDegrees>-3.79309491254389286041259765625</LongitudeDegrees>
            </Position>
            <AltitudeMeters>41</AltitudeMeters>
            <DistanceMeters>NAN</DistanceMeters>
          </Trackpoint>
          <Trackpoint>
            <Time>2022-07-13T16:53:37.000Z</Time>
            <Position>
              <LatitudeDegrees>43.45685767941176891326904296875</LatitudeDegrees>
              <LongitudeDegrees>-3.793190382421016693115234375</LongitudeDegrees>
            </Position>
            <AltitudeMeters>41</AltitudeMeters>
            <DistanceMeters>NAN</DistanceMeters>
          </Trackpoint>
          <Trackpoint>
            <Time>2022-07-13T16:53:42.000Z</Time>
            <Position>
              <LatitudeDegrees>43.45694568939507007598876953125</LatitudeDegrees>
              <LongitudeDegrees>-3.7934222258627414703369140625</LongitudeDegrees>
            </Position>
            <AltitudeMeters>40.799999237060546875</AltitudeMeters>
            <DistanceMeters>NAN</DistanceMeters>
          </Trackpoint>
          <Trackpoint>
            <Time>2022-07-13T16:53:47.000Z</Time>
            <Position>
              <LatitudeDegrees>43.45703981816768646240234375</LatitudeDegrees>
              <LongitudeDegrees>-3.79364945925772190093994140625</LongitudeDegrees>
            </Position>
            <AltitudeMeters>39.40000152587890625</AltitudeMeters>
            <DistanceMeters>NAN</DistanceMeters>
          </Trackpoint>
          <Trackpoint>
            <Time>2022-07-13T16:53:51.000Z</Time>
            <Position>
              <LatitudeDegrees>43.45711081288754940032958984375</LatitudeDegrees>
              <LongitudeDegrees>-3.7938339449465274810791015625</LongitudeDegrees>
            </Position>
            <AltitudeMeters>38.200000762939453125</AltitudeMeters>
            <DistanceMeters>NAN</DistanceMeters>
          </Trackpoint>
          <Trackpoint>
            <Time>2022-07-13T16:53:53.000Z</Time>
            <Position>
              <LatitudeDegrees>43.457155488431453704833984375</LatitudeDegrees>
              <LongitudeDegrees>-3.7939248047769069671630859375</LongitudeDegrees>
            </Position>
            <AltitudeMeters>38</AltitudeMeters>
            <DistanceMeters>NAN</DistanceMeters>
          </Trackpoint>
          <Trackpoint>
            <Time>2022-07-13T16:53:57.000Z</Time>
            <Position>
              <LatitudeDegrees>43.45724173821508884429931640625</LatitudeDegrees>
              <LongitudeDegrees>-3.79410275258123874664306640625</LongitudeDegrees>
            </Position>
            <AltitudeMeters>38</AltitudeMeters>
            <DistanceMeters>NAN</DistanceMeters>
          </Trackpoint>
          <Trackpoint>
            <Time>2022-07-13T16:54:02.000Z</Time>
            <Position>
              <LatitudeDegrees>43.45732807181775569915771484375</LatitudeDegrees>
              <LongitudeDegrees>-3.79434532485902309417724609375</LongitudeDegrees>
            </Position>
            <AltitudeMeters>37.59999847412109375</AltitudeMeters>
            <DistanceMeters>NAN</DistanceMeters>
          </Trackpoint>
          <Trackpoint>
            <Time>2022-07-13T16:54:07.000Z</Time>
            <Position>
              <LatitudeDegrees>43.45740635879337787628173828125</LatitudeDegrees>
              <LongitudeDegrees>-3.79459083080291748046875</LongitudeDegrees>
            </Position>
            <AltitudeMeters>37.200000762939453125</AltitudeMeters>
            <DistanceMeters>NAN</DistanceMeters>
          </Trackpoint>
          <Trackpoint>
            <Time>2022-07-13T16:54:11.000Z</Time>
            <Position>
              <LatitudeDegrees>43.45746268518269062042236328125</LatitudeDegrees>
              <LongitudeDegrees>-3.7947888113558292388916015625</LongitudeDegrees>
            </Position>
            <AltitudeMeters>37.40000152587890625</AltitudeMeters>
            <DistanceMeters>NAN</DistanceMeters>
          </Trackpoint>
          <Trackpoint>
            <Time>2022-07-13T16:54:20.000Z</Time>
            <Position>
              <LatitudeDegrees>43.457592017948627471923828125</LatitudeDegrees>
              <LongitudeDegrees>-3.79524864256381988525390625</LongitudeDegrees>
            </Position>
            <AltitudeMeters>37.59999847412109375</AltitudeMeters>
            <DistanceMeters>NAN</DistanceMeters>
          </Trackpoint>
          <Trackpoint>
            <Time>2022-07-13T16:54:29.000Z</Time>
            <Position>
              <LatitudeDegrees>43.45773459412157535552978515625</LatitudeDegrees>
              <LongitudeDegrees>-3.795688189566135406494140625</LongitudeDegrees>
            </Position>
            <AltitudeMeters>37.799999237060546875</AltitudeMeters>
            <DistanceMeters>NAN</DistanceMeters>
          </Trackpoint>
          <Trackpoint>
            <Time>2022-07-13T16:54:35.000Z</Time>
            <Position>
              <LatitudeDegrees>43.4578396193683147430419921875</LatitudeDegrees>
              <LongitudeDegrees>-3.79598599858582019805908203125</LongitudeDegrees>
            </Position>
            <AltitudeMeters>38.40000152587890625</AltitudeMeters>
            <DistanceMeters>NAN</DistanceMeters>
          </Trackpoint>
          <Trackpoint>
            <Time>2022-07-13T16:54:38.000Z</Time>
            <Position>
              <LatitudeDegrees>43.45788069069385528564453125</LatitudeDegrees>
              <LongitudeDegrees>-3.79613368771970272064208984375</LongitudeDegrees>
            </Position>
            <AltitudeMeters>38.799999237060546875</AltitudeMeters>
            <DistanceMeters>NAN</DistanceMeters>
          </Trackpoint>
          <Trackpoint>
            <Time>2022-07-13T16:54:45.000Z</Time>
            <Position>
              <LatitudeDegrees>43.45794900320470333099365234375</LatitudeDegrees>
              <LongitudeDegrees>-3.7964953668415546417236328125</LongitudeDegrees>
            </Position>
            <AltitudeMeters>38.799999237060546875</AltitudeMeters>
            <DistanceMeters>NAN</DistanceMeters>
          </Trackpoint>
          <Trackpoint>
            <Time>2022-07-13T16:54:47.000Z</Time>
            <Position>
              <LatitudeDegrees>43.45796928741037845611572265625</LatitudeDegrees>
              <LongitudeDegrees>-3.7966023199260234832763671875</LongitudeDegrees>
            </Position>
            <AltitudeMeters>38.799999237060546875</AltitudeMeters>
            <DistanceMeters>NAN</DistanceMeters>
          </Trackpoint>
          <Trackpoint>
            <Time>2022-07-13T16:54:55.000Z</Time>
            <Position>
              <LatitudeDegrees>43.45806383527815341949462890625</LatitudeDegrees>
              <LongitudeDegrees>-3.79700574092566967010498046875</LongitudeDegrees>
            </Position>
            <AltitudeMeters>38.799999237060546875</AltitudeMeters>
            <DistanceMeters>NAN</DistanceMeters>
          </Trackpoint>
          <Trackpoint>
            <Time>2022-07-13T16:54:58.000Z</Time>
            <Position>
              <LatitudeDegrees>43.4581088460981845855712890625</LatitudeDegrees>
              <LongitudeDegrees>-3.79715166985988616943359375</LongitudeDegrees>
            </Position>
            <AltitudeMeters>38.799999237060546875</AltitudeMeters>
            <DistanceMeters>NAN</DistanceMeters>
          </Trackpoint>
          <Trackpoint>
            <Time>2022-07-13T16:55:01.000Z</Time>
            <Position>
              <LatitudeDegrees>43.45815335400402545928955078125</LatitudeDegrees>
              <LongitudeDegrees>-3.797305561602115631103515625</LongitudeDegrees>
            </Position>
            <AltitudeMeters>38.799999237060546875</AltitudeMeters>
            <DistanceMeters>NAN</DistanceMeters>
          </Trackpoint>
          <Trackpoint>
            <Time>2022-07-13T16:55:04.000Z</Time>
            <Position>
              <LatitudeDegrees>43.4582027234137058258056640625</LatitudeDegrees>
              <LongitudeDegrees>-3.7974438630044460296630859375</LongitudeDegrees>
            </Position>
            <AltitudeMeters>38.59999847412109375</AltitudeMeters>
            <DistanceMeters>NAN</DistanceMeters>
          </Trackpoint>
          <Trackpoint>
            <Time>2022-07-13T16:55:06.000Z</Time>
            <Position>
              <LatitudeDegrees>43.4582389332354068756103515625</LatitudeDegrees>
              <LongitudeDegrees>-3.7975374050438404083251953125</LongitudeDegrees>
            </Position>
            <AltitudeMeters>38.200000762939453125</AltitudeMeters>
            <DistanceMeters>NAN</DistanceMeters>
          </Trackpoint>
          <Trackpoint>
            <Time>2022-07-13T16:55:15.000Z</Time>
            <Position>
              <LatitudeDegrees>43.45840849913656711578369140625</LatitudeDegrees>
              <LongitudeDegrees>-3.797948621213436126708984375</LongitudeDegrees>
            </Position>
            <AltitudeMeters>38.200000762939453125</AltitudeMeters>
            <DistanceMeters>NAN</DistanceMeters>
          </Trackpoint>
          <Trackpoint>
            <Time>2022-07-13T16:55:21.000Z</Time>
            <Position>
              <LatitudeDegrees>43.45856658183038234710693359375</LatitudeDegrees>
              <LongitudeDegrees>-3.79819077439606189727783203125</LongitudeDegrees>
            </Position>
            <AltitudeMeters>38.200000762939453125</AltitudeMeters>
            <DistanceMeters>NAN</DistanceMeters>
          </Trackpoint>
          <Trackpoint>
            <Time>2022-07-13T16:55:23.000Z</Time>
            <Position>
              <LatitudeDegrees>43.4586151130497455596923828125</LatitudeDegrees>
              <LongitudeDegrees>-3.79826017655432224273681640625</LongitudeDegrees>
            </Position>
            <AltitudeMeters>37</AltitudeMeters>
            <DistanceMeters>NAN</DistanceMeters>
          </Trackpoint>
          <Trackpoint>
            <Time>2022-07-13T16:55:27.000Z</Time>
            <Position>
              <LatitudeDegrees>43.45872634090483188629150390625</LatitudeDegrees>
              <LongitudeDegrees>-3.7984009087085723876953125</LongitudeDegrees>
            </Position>
            <AltitudeMeters>38</AltitudeMeters>
            <DistanceMeters>NAN</DistanceMeters>
          </Trackpoint>
          <Trackpoint>
            <Time>2022-07-13T16:55:29.000Z</Time>
            <Position>
              <LatitudeDegrees>43.45877177082002162933349609375</LatitudeDegrees>
              <LongitudeDegrees>-3.79846184514462947845458984375</LongitudeDegrees>
            </Position>
            <AltitudeMeters>38.59999847412109375</AltitudeMeters>
            <DistanceMeters>NAN</DistanceMeters>
          </Trackpoint>
          <Trackpoint>
            <Time>2022-07-13T16:55:36.000Z</Time>
            <Position>
              <LatitudeDegrees>43.45899841748178005218505859375</LatitudeDegrees>
              <LongitudeDegrees>-3.7986860610544681549072265625</LongitudeDegrees>
            </Position>
            <AltitudeMeters>38.799999237060546875</AltitudeMeters>
            <DistanceMeters>NAN</DistanceMeters>
          </Trackpoint>
          <Trackpoint>
            <Time>2022-07-13T16:55:37.000Z</Time>
            <Position>
              <LatitudeDegrees>43.4590338729321956634521484375</LatitudeDegrees>
              <LongitudeDegrees>-3.798720426857471466064453125</LongitudeDegrees>
            </Position>
            <AltitudeMeters>39</AltitudeMeters>
            <DistanceMeters>NAN</DistanceMeters>
          </Trackpoint>
          <Trackpoint>
            <Time>2022-07-13T16:55:43.000Z</Time>
            <Position>
              <LatitudeDegrees>43.45922824926674365997314453125</LatitudeDegrees>
              <LongitudeDegrees>-3.79890206269919872283935546875</LongitudeDegrees>
            </Position>
            <AltitudeMeters>38.200000762939453125</AltitudeMeters>
            <DistanceMeters>NAN</DistanceMeters>
          </Trackpoint>
          <Trackpoint>
            <Time>2022-07-13T16:55:50.000Z</Time>
            <Position>
              <LatitudeDegrees>43.45945439301431179046630859375</LatitudeDegrees>
              <LongitudeDegrees>-3.7991385161876678466796875</LongitudeDegrees>
            </Position>
            <AltitudeMeters>37.799999237060546875</AltitudeMeters>
            <DistanceMeters>NAN</DistanceMeters>
          </Trackpoint>
          <Trackpoint>
            <Time>2022-07-13T16:55:51.000Z</Time>
            <Position>
              <LatitudeDegrees>43.45948733389377593994140625</LatitudeDegrees>
              <LongitudeDegrees>-3.799173720180988311767578125</LongitudeDegrees>
            </Position>
            <AltitudeMeters>38</AltitudeMeters>
            <DistanceMeters>NAN</DistanceMeters>
          </Trackpoint>
          <Trackpoint>
            <Time>2022-07-13T16:55:53.000Z</Time>
            <Position>
              <LatitudeDegrees>43.45955279655754566192626953125</LatitudeDegrees>
              <LongitudeDegrees>-3.79924957640469074249267578125</LongitudeDegrees>
            </Position>
            <AltitudeMeters>38</AltitudeMeters>
            <DistanceMeters>NAN</DistanceMeters>
          </Trackpoint>
          <Trackpoint>
            <Time>2022-07-13T16:55:56.000Z</Time>
            <Position>
              <LatitudeDegrees>43.459645248949527740478515625</LatitudeDegrees>
              <LongitudeDegrees>-3.799352087080478668212890625</LongitudeDegrees>
            </Position>
            <AltitudeMeters>38.200000762939453125</AltitudeMeters>
            <DistanceMeters>NAN</DistanceMeters>
          </Trackpoint>
          <Trackpoint>
            <Time>2022-07-13T16:55:58.000Z</Time>
            <Position>
              <LatitudeDegrees>43.45970853231847286224365234375</LatitudeDegrees>
              <LongitudeDegrees>-3.79941587336361408233642578125</LongitudeDegrees>
            </Position>
            <AltitudeMeters>38.200000762939453125</AltitudeMeters>
            <DistanceMeters>NAN</DistanceMeters>
          </Trackpoint>
          <Trackpoint>
            <Time>2022-07-13T16:56:01.000Z</Time>
            <Position>
              <LatitudeDegrees>43.45980408601462841033935546875</LatitudeDegrees>
              <LongitudeDegrees>-3.79949365742504596710205078125</LongitudeDegrees>
            </Position>
            <AltitudeMeters>38.40000152587890625</AltitudeMeters>
            <DistanceMeters>NAN</DistanceMeters>
          </Trackpoint>
          <Trackpoint>
            <Time>2022-07-13T16:56:04.000Z</Time>
            <Position>
              <LatitudeDegrees>43.45990902744233608245849609375</LatitudeDegrees>
              <LongitudeDegrees>-3.79957236349582672119140625</LongitudeDegrees>
            </Position>
            <AltitudeMeters>38.59999847412109375</AltitudeMeters>
            <DistanceMeters>NAN</DistanceMeters>
          </Trackpoint>
          <Trackpoint>
            <Time>2022-07-13T16:56:05.000Z</Time>
            <Position>
              <LatitudeDegrees>43.4599454887211322784423828125</LatitudeDegrees>
              <LongitudeDegrees>-3.7996017001569271087646484375</LongitudeDegrees>
            </Position>
            <AltitudeMeters>38.59999847412109375</AltitudeMeters>
            <DistanceMeters>NAN</DistanceMeters>
          </Trackpoint>
          <Trackpoint>
            <Time>2022-07-13T16:56:10.000Z</Time>
            <Position>
              <LatitudeDegrees>43.46011103130877017974853515625</LatitudeDegrees>
              <LongitudeDegrees>-3.79974964074790477752685546875</LongitudeDegrees>
            </Position>
            <AltitudeMeters>38.40000152587890625</AltitudeMeters>
            <DistanceMeters>NAN</DistanceMeters>
          </Trackpoint>
          <Trackpoint>
            <Time>2022-07-13T16:56:16.000Z</Time>
            <Position>
              <LatitudeDegrees>43.4603038989007472991943359375</LatitudeDegrees>
              <LongitudeDegrees>-3.7999537400901317596435546875</LongitudeDegrees>
            </Position>
            <AltitudeMeters>38.40000152587890625</AltitudeMeters>
            <DistanceMeters>NAN</DistanceMeters>
          </Trackpoint>
          <Trackpoint>
            <Time>2022-07-13T16:56:26.000Z</Time>
            <Position>
              <LatitudeDegrees>43.46056549809873104095458984375</LatitudeDegrees>
              <LongitudeDegrees>-3.8002464361488819122314453125</LongitudeDegrees>
            </Position>
            <AltitudeMeters>37.799999237060546875</AltitudeMeters>
            <DistanceMeters>NAN</DistanceMeters>
          </Trackpoint>
          <Trackpoint>
            <Time>2022-07-13T16:56:32.000Z</Time>
            <Position>
              <LatitudeDegrees>43.4607045538723468780517578125</LatitudeDegrees>
              <LongitudeDegrees>-3.800379373133182525634765625</LongitudeDegrees>
            </Position>
            <AltitudeMeters>38.59999847412109375</AltitudeMeters>
            <DistanceMeters>NAN</DistanceMeters>
          </Trackpoint>
          <Trackpoint>
            <Time>2022-07-13T16:56:35.000Z</Time>
            <Position>
              <LatitudeDegrees>43.4607776440680027008056640625</LatitudeDegrees>
              <LongitudeDegrees>-3.8004526309669017791748046875</LongitudeDegrees>
            </Position>
            <AltitudeMeters>38.799999237060546875</AltitudeMeters>
            <DistanceMeters>NAN</DistanceMeters>
          </Trackpoint>
          <Trackpoint>
            <Time>2022-07-13T16:56:39.000Z</Time>
            <Position>
              <LatitudeDegrees>43.4608560986816883087158203125</LatitudeDegrees>
              <LongitudeDegrees>-3.8005428202450275421142578125</LongitudeDegrees>
            </Position>
            <AltitudeMeters>38.799999237060546875</AltitudeMeters>
            <DistanceMeters>NAN</DistanceMeters>
          </Trackpoint>
          <Trackpoint>
            <Time>2022-07-13T16:56:42.000Z</Time>
            <Position>
              <LatitudeDegrees>43.460913933813571929931640625</LatitudeDegrees>
              <LongitudeDegrees>-3.80060342140495777130126953125</LongitudeDegrees>
            </Position>
            <AltitudeMeters>38.59999847412109375</AltitudeMeters>
            <DistanceMeters>NAN</DistanceMeters>
          </Trackpoint>
          <Trackpoint>
            <Time>2022-07-13T16:56:45.000Z</Time>
            <Position>
              <LatitudeDegrees>43.46097193658351898193359375</LatitudeDegrees>
              <LongitudeDegrees>-3.80066930316388607025146484375</LongitudeDegrees>
            </Position>
            <AltitudeMeters>38.200000762939453125</AltitudeMeters>
            <DistanceMeters>NAN</DistanceMeters>
          </Trackpoint>
          <Trackpoint>
            <Time>2022-07-13T16:56:47.000Z</Time>
            <Position>
              <LatitudeDegrees>43.4610153548419475555419921875</LatitudeDegrees>
              <LongitudeDegrees>-3.80071355961263179779052734375</LongitudeDegrees>
            </Position>
            <AltitudeMeters>38.200000762939453125</AltitudeMeters>
            <DistanceMeters>NAN</DistanceMeters>
          </Trackpoint>
          <Trackpoint>
            <Time>2022-07-13T16:56:50.000Z</Time>
            <Position>
              <LatitudeDegrees>43.46107746474444866180419921875</LatitudeDegrees>
              <LongitudeDegrees>-3.800776340067386627197265625</LongitudeDegrees>
            </Position>
            <AltitudeMeters>38.200000762939453125</AltitudeMeters>
            <DistanceMeters>NAN</DistanceMeters>
          </Trackpoint>
          <Trackpoint>
            <Time>2022-07-13T16:56:55.000Z</Time>
            <Position>
              <LatitudeDegrees>43.461177460849285125732421875</LatitudeDegrees>
              <LongitudeDegrees>-3.80088002420961856842041015625</LongitudeDegrees>
            </Position>
            <AltitudeMeters>38.200000762939453125</AltitudeMeters>
            <DistanceMeters>NAN</DistanceMeters>
          </Trackpoint>
          <Trackpoint>
            <Time>2022-07-13T16:56:57.000Z</Time>
            <Position>
              <LatitudeDegrees>43.46121593378484249114990234375</LatitudeDegrees>
              <LongitudeDegrees>-3.8009109534323215484619140625</LongitudeDegrees>
            </Position>
            <AltitudeMeters>38.200000762939453125</AltitudeMeters>
            <DistanceMeters>NAN</DistanceMeters>
          </Trackpoint>
          <Trackpoint>
            <Time>2022-07-13T16:57:00.000Z</Time>
            <Position>
              <LatitudeDegrees>43.4612728469073772430419921875</LatitudeDegrees>
              <LongitudeDegrees>-3.8009699620306491851806640625</LongitudeDegrees>
            </Position>
            <AltitudeMeters>38</AltitudeMeters>
            <DistanceMeters>NAN</DistanceMeters>
          </Trackpoint>
          <Trackpoint>
            <Time>2022-07-13T16:57:01.000Z</Time>
            <Position>
              <LatitudeDegrees>43.461288772523403167724609375</LatitudeDegrees>
              <LongitudeDegrees>-3.800990916788578033447265625</LongitudeDegrees>
            </Position>
            <AltitudeMeters>38</AltitudeMeters>
            <DistanceMeters>NAN</DistanceMeters>
          </Trackpoint>
          <Trackpoint>
            <Time>2022-07-13T16:57:02.000Z</Time>
            <Position>
              <LatitudeDegrees>43.46130310557782649993896484375</LatitudeDegrees>
              <LongitudeDegrees>-3.80101111717522144317626953125</LongitudeDegrees>
            </Position>
            <AltitudeMeters>38</AltitudeMeters>
            <DistanceMeters>NAN</DistanceMeters>
          </Trackpoint>
          <Trackpoint>
            <Time>2022-07-13T16:57:04.000Z</Time>
            <Position>
              <LatitudeDegrees>43.46133537590503692626953125</LatitudeDegrees>
              <LongitudeDegrees>-3.8010524399578571319580078125</LongitudeDegrees>
            </Position>
            <AltitudeMeters>37.799999237060546875</AltitudeMeters>
            <DistanceMeters>NAN</DistanceMeters>
          </Trackpoint>
          <Trackpoint>
            <Time>2022-07-13T16:57:05.000Z</Time>
            <Position>
              <LatitudeDegrees>43.4613499604165554046630859375</LatitudeDegrees>
              <LongitudeDegrees>-3.80107196979224681854248046875</LongitudeDegrees>
            </Position>
            <AltitudeMeters>37.799999237060546875</AltitudeMeters>
            <DistanceMeters>NAN</DistanceMeters>
          </Trackpoint>
          <Trackpoint>
            <Time>2022-07-13T16:57:06.000Z</Time>
            <Position>
              <LatitudeDegrees>43.46136027015745639801025390625</LatitudeDegrees>
              <LongitudeDegrees>-3.80109426565468311309814453125</LongitudeDegrees>
            </Position>
            <AltitudeMeters>37.799999237060546875</AltitudeMeters>
            <DistanceMeters>NAN</DistanceMeters>
          </Trackpoint>
          <Trackpoint>
            <Time>2022-07-13T16:57:08.000Z</Time>
            <Position>
              <LatitudeDegrees>43.46137753687798976898193359375</LatitudeDegrees>
              <LongitudeDegrees>-3.80113801918923854827880859375</LongitudeDegrees>
            </Position>
            <AltitudeMeters>37.59999847412109375</AltitudeMeters>
            <DistanceMeters>NAN</DistanceMeters>
          </Trackpoint>
          <Trackpoint>
            <Time>2022-07-13T16:57:16.000Z</Time>
            <Position>
              <LatitudeDegrees>43.4614606015384197235107421875</LatitudeDegrees>
              <LongitudeDegrees>-3.80130984820425510406494140625</LongitudeDegrees>
            </Position>
            <AltitudeMeters>37.40000152587890625</AltitudeMeters>
            <DistanceMeters>NAN</DistanceMeters>
          </Trackpoint>
          <Trackpoint>
            <Time>2022-07-13T16:57:22.000Z</Time>
            <Position>
              <LatitudeDegrees>43.46148096956312656402587890625</LatitudeDegrees>
              <LongitudeDegrees>-3.801426105201244354248046875</LongitudeDegrees>
            </Position>
            <AltitudeMeters>37.200000762939453125</AltitudeMeters>
            <DistanceMeters>NAN</DistanceMeters>
          </Trackpoint>
          <Trackpoint>
            <Time>2022-07-13T16:57:24.000Z</Time>
            <Position>
              <LatitudeDegrees>43.46148130483925342559814453125</LatitudeDegrees>
              <LongitudeDegrees>-3.8014473952353000640869140625</LongitudeDegrees>
            </Position>
            <AltitudeMeters>37.200000762939453125</AltitudeMeters>
            <DistanceMeters>NAN</DistanceMeters>
          </Trackpoint>
          <Trackpoint>
            <Time>2022-07-13T16:57:26.000Z</Time>
            <Position>
              <LatitudeDegrees>43.46148381941020488739013671875</LatitudeDegrees>
              <LongitudeDegrees>-3.801467679440975189208984375</LongitudeDegrees>
            </Position>
            <AltitudeMeters>37.200000762939453125</AltitudeMeters>
            <DistanceMeters>NAN</DistanceMeters>
          </Trackpoint>
          <Trackpoint>
            <Time>2022-07-13T16:57:32.000Z</Time>
            <Position>
              <LatitudeDegrees>43.46148423850536346435546875</LatitudeDegrees>
              <LongitudeDegrees>-3.80150447599589824676513671875</LongitudeDegrees>
            </Position>
            <AltitudeMeters>37.200000762939453125</AltitudeMeters>
            <DistanceMeters>NAN</DistanceMeters>
          </Trackpoint>
          <Trackpoint>
            <Time>2022-07-13T17:00:01.000Z</Time>
            <Position>
              <LatitudeDegrees>43.4614968113601207733154296875</LatitudeDegrees>
              <LongitudeDegrees>-3.8020120002329349517822265625</LongitudeDegrees>
            </Position>
            <AltitudeMeters>35.200000762939453125</AltitudeMeters>
            <DistanceMeters>NAN</DistanceMeters>
          </Trackpoint>
          <Trackpoint>
            <Time>2022-07-13T17:00:03.000Z</Time>
            <Position>
              <LatitudeDegrees>43.4614894352853298187255859375</LatitudeDegrees>
              <LongitudeDegrees>-3.80206874571740627288818359375</LongitudeDegrees>
            </Position>
            <AltitudeMeters>35.200000762939453125</AltitudeMeters>
            <DistanceMeters>NAN</DistanceMeters>
          </Trackpoint>
          <Trackpoint>
            <Time>2022-07-13T17:00:06.000Z</Time>
            <Position>
              <LatitudeDegrees>43.461451046168804168701171875</LatitudeDegrees>
              <LongitudeDegrees>-3.80216362886130809783935546875</LongitudeDegrees>
            </Position>
            <AltitudeMeters>35</AltitudeMeters>
            <DistanceMeters>NAN</DistanceMeters>
          </Trackpoint>
          <Trackpoint>
            <Time>2022-07-13T17:00:13.000Z</Time>
            <Position>
              <LatitudeDegrees>43.46137837506830692291259765625</LatitudeDegrees>
              <LongitudeDegrees>-3.8023942150175571441650390625</LongitudeDegrees>
            </Position>
            <AltitudeMeters>35</AltitudeMeters>
            <DistanceMeters>NAN</DistanceMeters>
          </Trackpoint>
          <Trackpoint>
            <Time>2022-07-13T17:00:21.000Z</Time>
            <Position>
              <LatitudeDegrees>43.4612560831010341644287109375</LatitudeDegrees>
              <LongitudeDegrees>-3.8026748411357402801513671875</LongitudeDegrees>
            </Position>
            <AltitudeMeters>34.59999847412109375</AltitudeMeters>
            <DistanceMeters>NAN</DistanceMeters>
          </Trackpoint>
          <Trackpoint>
            <Time>2022-07-13T17:00:28.000Z</Time>
            <Position>
              <LatitudeDegrees>43.461132533848285675048828125</LatitudeDegrees>
              <LongitudeDegrees>-3.8029034994542598724365234375</LongitudeDegrees>
            </Position>
            <AltitudeMeters>34.200000762939453125</AltitudeMeters>
            <DistanceMeters>NAN</DistanceMeters>
          </Trackpoint>
          <Trackpoint>
            <Time>2022-07-13T17:00:37.000Z</Time>
            <Position>
              <LatitudeDegrees>43.46102583222091197967529296875</LatitudeDegrees>
              <LongitudeDegrees>-3.80313106812536716461181640625</LongitudeDegrees>
            </Position>
            <AltitudeMeters>34.200000762939453125</AltitudeMeters>
            <DistanceMeters>NAN</DistanceMeters>
          </Trackpoint>
          <Trackpoint>
            <Time>2022-07-13T17:00:38.000Z</Time>
            <Position>
              <LatitudeDegrees>43.46102851442992687225341796875</LatitudeDegrees>
              <LongitudeDegrees>-3.80315721966326236724853515625</LongitudeDegrees>
            </Position>
            <AltitudeMeters>34.200000762939453125</AltitudeMeters>
            <DistanceMeters>NAN</DistanceMeters>
          </Trackpoint>
          <Trackpoint>
            <Time>2022-07-13T17:00:41.000Z</Time>
            <Position>
              <LatitudeDegrees>43.4610545821487903594970703125</LatitudeDegrees>
              <LongitudeDegrees>-3.80323936231434345245361328125</LongitudeDegrees>
            </Position>
            <AltitudeMeters>34</AltitudeMeters>
            <DistanceMeters>NAN</DistanceMeters>
          </Trackpoint>
          <Trackpoint>
            <Time>2022-07-13T17:00:42.000Z</Time>
            <Position>
              <LatitudeDegrees>43.46107025630772113800048828125</LatitudeDegrees>
              <LongitudeDegrees>-3.8032702915370464324951171875</LongitudeDegrees>
            </Position>
            <AltitudeMeters>34</AltitudeMeters>
            <DistanceMeters>NAN</DistanceMeters>
          </Trackpoint>
          <Trackpoint>
            <Time>2022-07-13T17:00:46.000Z</Time>
            <Position>
              <LatitudeDegrees>43.4611598588526248931884765625</LatitudeDegrees>
              <LongitudeDegrees>-3.80336576141417026519775390625</LongitudeDegrees>
            </Position>
            <AltitudeMeters>34</AltitudeMeters>
            <DistanceMeters>NAN</DistanceMeters>
          </Trackpoint>
          <Trackpoint>
            <Time>2022-07-13T17:00:48.000Z</Time>
            <Position>
              <LatitudeDegrees>43.46120319329202175140380859375</LatitudeDegrees>
              <LongitudeDegrees>-3.803352601826190948486328125</LongitudeDegrees>
            </Position>
            <AltitudeMeters>34</AltitudeMeters>
            <DistanceMeters>NAN</DistanceMeters>
          </Trackpoint>
          <Trackpoint>
            <Time>2022-07-13T17:00:50.000Z</Time>
            <Position>
              <LatitudeDegrees>43.46124543808400630950927734375</LatitudeDegrees>
              <LongitudeDegrees>-3.8033765740692615509033203125</LongitudeDegrees>
            </Position>
            <AltitudeMeters>34</AltitudeMeters>
            <DistanceMeters>NAN</DistanceMeters>
          </Trackpoint>
          <Trackpoint>
            <Time>2022-07-13T17:00:51.000Z</Time>
            <Position>
              <LatitudeDegrees>43.4612567536532878875732421875</LatitudeDegrees>
              <LongitudeDegrees>-3.80340364761650562286376953125</LongitudeDegrees>
            </Position>
            <AltitudeMeters>34</AltitudeMeters>
            <DistanceMeters>NAN</DistanceMeters>
          </Trackpoint>
          <Trackpoint>
            <Time>2022-07-13T17:00:54.000Z</Time>
            <Position>
              <LatitudeDegrees>43.46127309836447238922119140625</LatitudeDegrees>
              <LongitudeDegrees>-3.8034996204078197479248046875</LongitudeDegrees>
            </Position>
            <AltitudeMeters>33.59999847412109375</AltitudeMeters>
            <DistanceMeters>NAN</DistanceMeters>
          </Trackpoint>
          <Trackpoint>
            <Time>2022-07-13T17:00:56.000Z</Time>
            <Position>
              <LatitudeDegrees>43.4613010101020336151123046875</LatitudeDegrees>
              <LongitudeDegrees>-3.803575895726680755615234375</LongitudeDegrees>
            </Position>
            <AltitudeMeters>33.200000762939453125</AltitudeMeters>
            <DistanceMeters>NAN</DistanceMeters>
          </Trackpoint>
          <Trackpoint>
            <Time>2022-07-13T17:00:57.000Z</Time>
            <Position>
              <LatitudeDegrees>43.46131869591772556304931640625</LatitudeDegrees>
              <LongitudeDegrees>-3.8036102615296840667724609375</LongitudeDegrees>
            </Position>
            <AltitudeMeters>33.200000762939453125</AltitudeMeters>
            <DistanceMeters>NAN</DistanceMeters>
          </Trackpoint>
          <Trackpoint>
            <Time>2022-07-13T17:01:01.000Z</Time>
            <Position>
              <LatitudeDegrees>43.46139010973274707794189453125</LatitudeDegrees>
              <LongitudeDegrees>-3.80372048355638980865478515625</LongitudeDegrees>
            </Position>
            <AltitudeMeters>33</AltitudeMeters>
            <DistanceMeters>NAN</DistanceMeters>
          </Trackpoint>
          <Trackpoint>
            <Time>2022-07-13T17:01:02.000Z</Time>
            <Position>
              <LatitudeDegrees>43.46140150912106037139892578125</LatitudeDegrees>
              <LongitudeDegrees>-3.8037497363984584808349609375</LongitudeDegrees>
            </Position>
            <AltitudeMeters>32.799999237060546875</AltitudeMeters>
            <DistanceMeters>NAN</DistanceMeters>
          </Trackpoint>
          <Trackpoint>
            <Time>2022-07-13T17:01:04.000Z</Time>
            <Position>
              <LatitudeDegrees>43.461418859660625457763671875</LatitudeDegrees>
              <LongitudeDegrees>-3.80380748771131038665771484375</LongitudeDegrees>
            </Position>
            <AltitudeMeters>32.799999237060546875</AltitudeMeters>
            <DistanceMeters>NAN</DistanceMeters>
          </Trackpoint>
          <Trackpoint>
            <Time>2022-07-13T17:01:07.000Z</Time>
            <Position>
              <LatitudeDegrees>43.4614421613514423370361328125</LatitudeDegrees>
              <LongitudeDegrees>-3.80389197729527950286865234375</LongitudeDegrees>
            </Position>
            <AltitudeMeters>32.799999237060546875</AltitudeMeters>
            <DistanceMeters>NAN</DistanceMeters>
          </Trackpoint>
          <Trackpoint>
            <Time>2022-07-13T17:01:08.000Z</Time>
            <Position>
              <LatitudeDegrees>43.4614594280719757080078125</LatitudeDegrees>
              <LongitudeDegrees>-3.803930617868900299072265625</LongitudeDegrees>
            </Position>
            <AltitudeMeters>32.799999237060546875</AltitudeMeters>
            <DistanceMeters>NAN</DistanceMeters>
          </Trackpoint>
          <Trackpoint>
            <Time>2022-07-13T17:01:14.000Z</Time>
            <Position>
              <LatitudeDegrees>43.461554311215877532958984375</LatitudeDegrees>
              <LongitudeDegrees>-3.80418299697339534759521484375</LongitudeDegrees>
            </Position>
            <AltitudeMeters>32.799999237060546875</AltitudeMeters>
            <DistanceMeters>NAN</DistanceMeters>
          </Trackpoint>
          <Trackpoint>
            <Time>2022-07-13T17:01:18.000Z</Time>
            <Position>
              <LatitudeDegrees>43.4615712426602840423583984375</LatitudeDegrees>
              <LongitudeDegrees>-3.8043270818889141082763671875</LongitudeDegrees>
            </Position>
            <AltitudeMeters>32.59999847412109375</AltitudeMeters>
            <DistanceMeters>NAN</DistanceMeters>
          </Trackpoint>
          <Trackpoint>
            <Time>2022-07-13T17:01:24.000Z</Time>
            <Position>
              <LatitudeDegrees>43.46154400147497653961181640625</LatitudeDegrees>
              <LongitudeDegrees>-3.80457929335534572601318359375</LongitudeDegrees>
            </Position>
            <AltitudeMeters>32.59999847412109375</AltitudeMeters>
            <DistanceMeters>NAN</DistanceMeters>
          </Trackpoint>
          <Trackpoint>
            <Time>2022-07-13T17:01:29.000Z</Time>
            <Position>
              <LatitudeDegrees>43.46148918382823467254638671875</LatitudeDegrees>
              <LongitudeDegrees>-3.8048125617206096649169921875</LongitudeDegrees>
            </Position>
            <AltitudeMeters>32.40000152587890625</AltitudeMeters>
            <DistanceMeters>NAN</DistanceMeters>
          </Trackpoint>
          <Trackpoint>
            <Time>2022-07-13T17:01:31.000Z</Time>
            <Position>
              <LatitudeDegrees>43.46145867370069026947021484375</LatitudeDegrees>
              <LongitudeDegrees>-3.80489311181008815765380859375</LongitudeDegrees>
            </Position>
            <AltitudeMeters>32.40000152587890625</AltitudeMeters>
            <DistanceMeters>NAN</DistanceMeters>
          </Trackpoint>
          <Trackpoint>
            <Time>2022-07-13T17:01:33.000Z</Time>
            <Position>
              <LatitudeDegrees>43.46143637783825397491455078125</LatitudeDegrees>
              <LongitudeDegrees>-3.80495932884514331817626953125</LongitudeDegrees>
            </Position>
            <AltitudeMeters>32.40000152587890625</AltitudeMeters>
            <DistanceMeters>NAN</DistanceMeters>
          </Trackpoint>
          <Trackpoint>
            <Time>2022-07-13T17:01:35.000Z</Time>
            <Position>
              <LatitudeDegrees>43.46145582385361194610595703125</LatitudeDegrees>
              <LongitudeDegrees>-3.805047757923603057861328125</LongitudeDegrees>
            </Position>
            <AltitudeMeters>32.40000152587890625</AltitudeMeters>
            <DistanceMeters>NAN</DistanceMeters>
          </Trackpoint>
          <Trackpoint>
            <Time>2022-07-13T17:01:40.000Z</Time>
            <Position>
              <LatitudeDegrees>43.4614505432546138763427734375</LatitudeDegrees>
              <LongitudeDegrees>-3.80522922612726688385009765625</LongitudeDegrees>
            </Position>
            <AltitudeMeters>32.40000152587890625</AltitudeMeters>
            <DistanceMeters>NAN</DistanceMeters>
          </Trackpoint>
          <Trackpoint>
            <Time>2022-07-13T17:01:41.000Z</Time>
            <Position>
              <LatitudeDegrees>43.4614508785307407379150390625</LatitudeDegrees>
              <LongitudeDegrees>-3.8052383624017238616943359375</LongitudeDegrees>
            </Position>
            <AltitudeMeters>32.40000152587890625</AltitudeMeters>
            <DistanceMeters>NAN</DistanceMeters>
          </Trackpoint>
          <Trackpoint>
            <Time>2022-07-13T17:01:43.000Z</Time>
            <Position>
              <LatitudeDegrees>43.4614713303744792938232421875</LatitudeDegrees>
              <LongitudeDegrees>-3.80526795051991939544677734375</LongitudeDegrees>
            </Position>
            <AltitudeMeters>32.40000152587890625</AltitudeMeters>
            <DistanceMeters>NAN</DistanceMeters>
          </Trackpoint>
          <Trackpoint>
            <Time>2022-07-13T17:01:48.000Z</Time>
            <Position>
              <LatitudeDegrees>43.46151164732873439788818359375</LatitudeDegrees>
              <LongitudeDegrees>-3.8053288869559764862060546875</LongitudeDegrees>
            </Position>
            <AltitudeMeters>32.200000762939453125</AltitudeMeters>
            <DistanceMeters>NAN</DistanceMeters>
          </Trackpoint>
          <Trackpoint>
            <Time>2022-07-13T17:01:49.000Z</Time>
            <Position>
              <LatitudeDegrees>43.46151231788098812103271484375</LatitudeDegrees>
              <LongitudeDegrees>-3.80535696633160114288330078125</LongitudeDegrees>
            </Position>
            <AltitudeMeters>32.200000762939453125</AltitudeMeters>
            <DistanceMeters>NAN</DistanceMeters>
          </Trackpoint>
          <Trackpoint>
            <Time>2022-07-13T17:01:51.000Z</Time>
            <Position>
              <LatitudeDegrees>43.46151030622422695159912109375</LatitudeDegrees>
              <LongitudeDegrees>-3.80539636127650737762451171875</LongitudeDegrees>
            </Position>
            <AltitudeMeters>32</AltitudeMeters>
            <DistanceMeters>NAN</DistanceMeters>
          </Trackpoint>
          <Trackpoint>
            <Time>2022-07-13T17:01:55.000Z</Time>
            <Position>
              <LatitudeDegrees>43.461519777774810791015625</LatitudeDegrees>
              <LongitudeDegrees>-3.805522508919239044189453125</LongitudeDegrees>
            </Position>
            <AltitudeMeters>32</AltitudeMeters>
            <DistanceMeters>NAN</DistanceMeters>
          </Trackpoint>
          <Trackpoint>
            <Time>2022-07-13T17:01:59.000Z</Time>
            <Position>
              <LatitudeDegrees>43.46151349134743213653564453125</LatitudeDegrees>
              <LongitudeDegrees>-3.8056329824030399322509765625</LongitudeDegrees>
            </Position>
            <AltitudeMeters>31.799999237060546875</AltitudeMeters>
            <DistanceMeters>NAN</DistanceMeters>
          </Trackpoint>
          <Trackpoint>
            <Time>2022-07-13T17:02:02.000Z</Time>
            <Position>
              <LatitudeDegrees>43.461517430841922760009765625</LatitudeDegrees>
              <LongitudeDegrees>-3.80571738816797733306884765625</LongitudeDegrees>
            </Position>
            <AltitudeMeters>31.799999237060546875</AltitudeMeters>
            <DistanceMeters>NAN</DistanceMeters>
          </Trackpoint>
          <Trackpoint>
            <Time>2022-07-13T17:02:04.000Z</Time>
            <Position>
              <LatitudeDegrees>43.4615105576813220977783203125</LatitudeDegrees>
              <LongitudeDegrees>-3.8057743012905120849609375</LongitudeDegrees>
            </Position>
            <AltitudeMeters>31.799999237060546875</AltitudeMeters>
            <DistanceMeters>NAN</DistanceMeters>
          </Trackpoint>
          <Trackpoint>
            <Time>2022-07-13T17:02:07.000Z</Time>
            <Position>
              <LatitudeDegrees>43.46149538643658161163330078125</LatitudeDegrees>
              <LongitudeDegrees>-3.80586004815995693206787109375</LongitudeDegrees>
            </Position>
            <AltitudeMeters>31.799999237060546875</AltitudeMeters>
            <DistanceMeters>NAN</DistanceMeters>
          </Trackpoint>
          <Trackpoint>
            <Time>2022-07-13T17:02:09.000Z</Time>
            <Position>
              <LatitudeDegrees>43.461486585438251495361328125</LatitudeDegrees>
              <LongitudeDegrees>-3.80588921718299388885498046875</LongitudeDegrees>
            </Position>
            <AltitudeMeters>31.6000003814697265625</AltitudeMeters>
            <DistanceMeters>NAN</DistanceMeters>
          </Trackpoint>
          <Trackpoint>
            <Time>2022-07-13T17:02:12.000Z</Time>
            <Position>
              <LatitudeDegrees>43.4614867530763149261474609375</LatitudeDegrees>
              <LongitudeDegrees>-3.8058948330581188201904296875</LongitudeDegrees>
            </Position>
            <AltitudeMeters>31.6000003814697265625</AltitudeMeters>
            <DistanceMeters>NAN</DistanceMeters>
          </Trackpoint>
          <Trackpoint>
            <Time>2022-07-13T17:02:34.000Z</Time>
            <Position>
              <LatitudeDegrees>43.46150678582489490509033203125</LatitudeDegrees>
              <LongitudeDegrees>-3.8058472238481044769287109375</LongitudeDegrees>
            </Position>
            <AltitudeMeters>31.3999996185302734375</AltitudeMeters>
            <DistanceMeters>NAN</DistanceMeters>
          </Trackpoint>
          <Trackpoint>
            <Time>2022-07-13T17:02:35.000Z</Time>
            <Position>
              <LatitudeDegrees>43.46151516772806644439697265625</LatitudeDegrees>
              <LongitudeDegrees>-3.8058140315115451812744140625</LongitudeDegrees>
            </Position>
            <AltitudeMeters>31.3999996185302734375</AltitudeMeters>
            <DistanceMeters>NAN</DistanceMeters>
          </Trackpoint>
          <Trackpoint>
            <Time>2022-07-13T17:02:38.000Z</Time>
            <Position>
              <LatitudeDegrees>43.46153109334409236907958984375</LatitudeDegrees>
              <LongitudeDegrees>-3.805719651281833648681640625</LongitudeDegrees>
            </Position>
            <AltitudeMeters>31.200000762939453125</AltitudeMeters>
            <DistanceMeters>NAN</DistanceMeters>
          </Trackpoint>
          <Trackpoint>
            <Time>2022-07-13T17:02:40.000Z</Time>
            <Position>
              <LatitudeDegrees>43.46153712831437587738037109375</LatitudeDegrees>
              <LongitudeDegrees>-3.80565184168517589569091796875</LongitudeDegrees>
            </Position>
            <AltitudeMeters>31.200000762939453125</AltitudeMeters>
            <DistanceMeters>NAN</DistanceMeters>
          </Trackpoint>
          <Trackpoint>
            <Time>2022-07-13T17:02:42.000Z</Time>
            <Position>
              <LatitudeDegrees>43.4615372121334075927734375</LatitudeDegrees>
              <LongitudeDegrees>-3.80557456053793430328369140625</LongitudeDegrees>
            </Position>
            <AltitudeMeters>31.200000762939453125</AltitudeMeters>
            <DistanceMeters>NAN</DistanceMeters>
          </Trackpoint>
          <Trackpoint>
            <Time>2022-07-13T17:02:44.000Z</Time>
            <Position>
              <LatitudeDegrees>43.46153846941888332366943359375</LatitudeDegrees>
              <LongitudeDegrees>-3.805486969649791717529296875</LongitudeDegrees>
            </Position>
            <AltitudeMeters>31</AltitudeMeters>
            <DistanceMeters>NAN</DistanceMeters>
          </Trackpoint>
          <Trackpoint>
            <Time>2022-07-13T17:02:48.000Z</Time>
            <Position>
              <LatitudeDegrees>43.46156344749033451080322265625</LatitudeDegrees>
              <LongitudeDegrees>-3.8053168170154094696044921875</LongitudeDegrees>
            </Position>
            <AltitudeMeters>31</AltitudeMeters>
            <DistanceMeters>NAN</DistanceMeters>
          </Trackpoint>
          <Trackpoint>
            <Time>2022-07-13T17:02:52.000Z</Time>
            <Position>
              <LatitudeDegrees>43.46158456988632678985595703125</LatitudeDegrees>
              <LongitudeDegrees>-3.8051538728177547454833984375</LongitudeDegrees>
            </Position>
            <AltitudeMeters>31</AltitudeMeters>
            <DistanceMeters>NAN</DistanceMeters>
          </Trackpoint>
          <Trackpoint>
            <Time>2022-07-13T17:02:55.000Z</Time>
            <Position>
              <LatitudeDegrees>43.4616101346909999847412109375</LatitudeDegrees>
              <LongitudeDegrees>-3.80504901520907878875732421875</LongitudeDegrees>
            </Position>
            <AltitudeMeters>31</AltitudeMeters>
            <DistanceMeters>NAN</DistanceMeters>
          </Trackpoint>
          <Trackpoint>
            <Time>2022-07-13T17:03:01.000Z</Time>
            <Position>
              <LatitudeDegrees>43.46165455877780914306640625</LatitudeDegrees>
              <LongitudeDegrees>-3.80482655949890613555908203125</LongitudeDegrees>
            </Position>
            <AltitudeMeters>30.799999237060546875</AltitudeMeters>
            <DistanceMeters>NAN</DistanceMeters>
          </Trackpoint>
          <Trackpoint>
            <Time>2022-07-13T17:03:03.000Z</Time>
            <Position>
              <LatitudeDegrees>43.461674340069293975830078125</LatitudeDegrees>
              <LongitudeDegrees>-3.804784230887889862060546875</LongitudeDegrees>
            </Position>
            <AltitudeMeters>30.6000003814697265625</AltitudeMeters>
            <DistanceMeters>NAN</DistanceMeters>
          </Trackpoint>
          <Trackpoint>
            <Time>2022-07-13T17:03:05.000Z</Time>
            <Position>
              <LatitudeDegrees>43.4616758488118648529052734375</LatitudeDegrees>
              <LongitudeDegrees>-3.8047803752124309539794921875</LongitudeDegrees>
            </Position>
            <AltitudeMeters>30.6000003814697265625</AltitudeMeters>
            <DistanceMeters>NAN</DistanceMeters>
          </Trackpoint>
          <Trackpoint>
            <Time>2022-07-13T17:03:06.000Z</Time>
            <Position>
              <LatitudeDegrees>43.4616758488118648529052734375</LatitudeDegrees>
              <LongitudeDegrees>-3.8047803752124309539794921875</LongitudeDegrees>
            </Position>
            <AltitudeMeters>30.6000003814697265625</AltitudeMeters>
            <DistanceMeters>NAN</DistanceMeters>
          </Trackpoint>
          <Trackpoint>
            <Time>2022-07-13T17:03:07.000Z</Time>
            <Position>
              <LatitudeDegrees>43.4616758488118648529052734375</LatitudeDegrees>
              <LongitudeDegrees>-3.8047803752124309539794921875</LongitudeDegrees>
            </Position>
            <AltitudeMeters>30.799999237060546875</AltitudeMeters>
            <DistanceMeters>NAN</DistanceMeters>
          </Trackpoint>
          <Trackpoint>
            <Time>2022-07-13T17:03:47.000Z</Time>
            <Position>
              <LatitudeDegrees>43.46186569891870021820068359375</LatitudeDegrees>
              <LongitudeDegrees>-3.80484826862812042236328125</LongitudeDegrees>
            </Position>
            <AltitudeMeters>30.799999237060546875</AltitudeMeters>
            <DistanceMeters>NAN</DistanceMeters>
          </Trackpoint>
          <Trackpoint>
            <Time>2022-07-13T17:03:49.000Z</Time>
            <Position>
              <LatitudeDegrees>43.46193409524857997894287109375</LatitudeDegrees>
              <LongitudeDegrees>-3.80483091808855533599853515625</LongitudeDegrees>
            </Position>
            <AltitudeMeters>30.799999237060546875</AltitudeMeters>
            <DistanceMeters>NAN</DistanceMeters>
          </Trackpoint>
          <Trackpoint>
            <Time>2022-07-13T17:03:53.000Z</Time>
            <Position>
              <LatitudeDegrees>43.46196846105158329010009765625</LatitudeDegrees>
              <LongitudeDegrees>-3.80473268218338489532470703125</LongitudeDegrees>
            </Position>
            <AltitudeMeters>30.799999237060546875</AltitudeMeters>
            <DistanceMeters>NAN</DistanceMeters>
          </Trackpoint>
          <Trackpoint>
            <Time>2022-07-13T17:03:54.000Z</Time>
            <Position>
              <LatitudeDegrees>43.46193878911435604095458984375</LatitudeDegrees>
              <LongitudeDegrees>-3.804773502051830291748046875</LongitudeDegrees>
            </Position>
            <AltitudeMeters>30.799999237060546875</AltitudeMeters>
            <DistanceMeters>NAN</DistanceMeters>
          </Trackpoint>
          <Trackpoint>
            <Time>2022-07-13T17:03:56.000Z</Time>
            <Position>
              <LatitudeDegrees>43.46191565506160259246826171875</LatitudeDegrees>
              <LongitudeDegrees>-3.80487282760441303253173828125</LongitudeDegrees>
            </Position>
            <AltitudeMeters>30.799999237060546875</AltitudeMeters>
            <DistanceMeters>NAN</DistanceMeters>
          </Trackpoint>
          <Trackpoint>
            <Time>2022-07-13T17:04:00.000Z</Time>
            <Position>
              <LatitudeDegrees>43.4619350172579288482666015625</LatitudeDegrees>
              <LongitudeDegrees>-3.80487869493663311004638671875</LongitudeDegrees>
            </Position>
            <AltitudeMeters>30.799999237060546875</AltitudeMeters>
            <DistanceMeters>NAN</DistanceMeters>
          </Trackpoint>
          <Trackpoint>
            <Time>2022-07-13T17:06:09.000Z</Time>
            <Position>
              <LatitudeDegrees>43.46167660318315029144287109375</LatitudeDegrees>
              <LongitudeDegrees>-3.80489864386618137359619140625</LongitudeDegrees>
            </Position>
            <AltitudeMeters>30.3999996185302734375</AltitudeMeters>
            <DistanceMeters>NAN</DistanceMeters>
          </Trackpoint>
          <Trackpoint>
            <Time>2022-07-13T17:06:13.000Z</Time>
            <Position>
              <LatitudeDegrees>43.4616426564753055572509765625</LatitudeDegrees>
              <LongitudeDegrees>-3.80505069158971309661865234375</LongitudeDegrees>
            </Position>
            <AltitudeMeters>30</AltitudeMeters>
            <DistanceMeters>NAN</DistanceMeters>
          </Trackpoint>
          <Trackpoint>
            <Time>2022-07-13T17:06:15.000Z</Time>
            <Position>
              <LatitudeDegrees>43.4616069495677947998046875</LatitudeDegrees>
              <LongitudeDegrees>-3.80513601936399936676025390625</LongitudeDegrees>
            </Position>
            <AltitudeMeters>30</AltitudeMeters>
            <DistanceMeters>NAN</DistanceMeters>
          </Trackpoint>
          <Trackpoint>
            <Time>2022-07-13T17:06:18.000Z</Time>
            <Position>
              <LatitudeDegrees>43.46157551743090152740478515625</LatitudeDegrees>
              <LongitudeDegrees>-3.80524146370589733123779296875</LongitudeDegrees>
            </Position>
            <AltitudeMeters>30</AltitudeMeters>
            <DistanceMeters>NAN</DistanceMeters>
          </Trackpoint>
          <Trackpoint>
            <Time>2022-07-13T17:06:20.000Z</Time>
            <Position>
              <LatitudeDegrees>43.4615564905107021331787109375</LatitudeDegrees>
              <LongitudeDegrees>-3.805301897227764129638671875</LongitudeDegrees>
            </Position>
            <AltitudeMeters>30</AltitudeMeters>
            <DistanceMeters>NAN</DistanceMeters>
          </Trackpoint>
          <Trackpoint>
            <Time>2022-07-13T17:06:25.000Z</Time>
            <Position>
              <LatitudeDegrees>43.46152673475444316864013671875</LatitudeDegrees>
              <LongitudeDegrees>-3.80546458996832370758056640625</LongitudeDegrees>
            </Position>
            <AltitudeMeters>30.200000762939453125</AltitudeMeters>
            <DistanceMeters>NAN</DistanceMeters>
          </Trackpoint>
          <Trackpoint>
            <Time>2022-07-13T17:06:26.000Z</Time>
            <Position>
              <LatitudeDegrees>43.46153511665761470794677734375</LatitudeDegrees>
              <LongitudeDegrees>-3.80548403598368167877197265625</LongitudeDegrees>
            </Position>
            <AltitudeMeters>30.200000762939453125</AltitudeMeters>
            <DistanceMeters>NAN</DistanceMeters>
          </Trackpoint>
          <Trackpoint>
            <Time>2022-07-13T17:06:30.000Z</Time>
            <Position>
              <LatitudeDegrees>43.46156604588031768798828125</LatitudeDegrees>
              <LongitudeDegrees>-3.8054817728698253631591796875</LongitudeDegrees>
            </Position>
            <AltitudeMeters>30.200000762939453125</AltitudeMeters>
            <DistanceMeters>NAN</DistanceMeters>
          </Trackpoint>
          <Trackpoint>
            <Time>2022-07-13T17:06:34.000Z</Time>
            <Position>
              <LatitudeDegrees>43.46166771836578845977783203125</LatitudeDegrees>
              <LongitudeDegrees>-3.80552208982408046722412109375</LongitudeDegrees>
            </Position>
            <AltitudeMeters>30.6000003814697265625</AltitudeMeters>
            <DistanceMeters>NAN</DistanceMeters>
          </Trackpoint>
          <Trackpoint>
            <Time>2022-07-13T17:06:36.000Z</Time>
            <Position>
              <LatitudeDegrees>43.46168733201920986175537109375</LatitudeDegrees>
              <LongitudeDegrees>-3.80552996881306171417236328125</LongitudeDegrees>
            </Position>
            <AltitudeMeters>30.6000003814697265625</AltitudeMeters>
            <DistanceMeters>NAN</DistanceMeters>
          </Trackpoint>
          <Trackpoint>
            <Time>2022-07-13T17:06:39.000Z</Time>
            <Position>
              <LatitudeDegrees>43.4616704843938350677490234375</LatitudeDegrees>
              <LongitudeDegrees>-3.80556668154895305633544921875</LongitudeDegrees>
            </Position>
            <AltitudeMeters>30.6000003814697265625</AltitudeMeters>
            <DistanceMeters>NAN</DistanceMeters>
          </Trackpoint>
          <Trackpoint>
            <Time>2022-07-13T17:06:44.000Z</Time>
            <Position>
              <LatitudeDegrees>43.46160083077847957611083984375</LatitudeDegrees>
              <LongitudeDegrees>-3.80568268708884716033935546875</LongitudeDegrees>
            </Position>
            <AltitudeMeters>30.3999996185302734375</AltitudeMeters>
            <DistanceMeters>NAN</DistanceMeters>
          </Trackpoint>
          <Trackpoint>
            <Time>2022-07-13T17:06:47.000Z</Time>
            <Position>
              <LatitudeDegrees>43.46158172003924846649169921875</LatitudeDegrees>
              <LongitudeDegrees>-3.80573985166847705841064453125</LongitudeDegrees>
            </Position>
            <AltitudeMeters>30.200000762939453125</AltitudeMeters>
            <DistanceMeters>NAN</DistanceMeters>
          </Trackpoint>
          <Trackpoint>
            <Time>2022-07-13T17:06:49.000Z</Time>
            <Position>
              <LatitudeDegrees>43.4615300036966800689697265625</LatitudeDegrees>
              <LongitudeDegrees>-3.8057764805853366851806640625</LongitudeDegrees>
            </Position>
            <AltitudeMeters>30.200000762939453125</AltitudeMeters>
            <DistanceMeters>NAN</DistanceMeters>
          </Trackpoint>
          <Trackpoint>
            <Time>2022-07-13T17:06:50.000Z</Time>
            <Position>
              <LatitudeDegrees>43.46157903783023357391357421875</LatitudeDegrees>
              <LongitudeDegrees>-3.8058468885719776153564453125</LongitudeDegrees>
            </Position>
            <AltitudeMeters>30.200000762939453125</AltitudeMeters>
            <DistanceMeters>NAN</DistanceMeters>
          </Trackpoint>
          <Trackpoint>
            <Time>2022-07-13T17:06:52.000Z</Time>
            <Position>
              <LatitudeDegrees>43.461705185472965240478515625</LatitudeDegrees>
              <LongitudeDegrees>-3.8059689290821552276611328125</LongitudeDegrees>
            </Position>
            <AltitudeMeters>30.200000762939453125</AltitudeMeters>
            <DistanceMeters>NAN</DistanceMeters>
          </Trackpoint>
          <Trackpoint>
            <Time>2022-07-13T17:06:53.000Z</Time>
            <Position>
              <LatitudeDegrees>43.4617697261273860931396484375</LatitudeDegrees>
              <LongitudeDegrees>-3.8060108385980129241943359375</LongitudeDegrees>
            </Position>
            <AltitudeMeters>30.200000762939453125</AltitudeMeters>
            <DistanceMeters>NAN</DistanceMeters>
          </Trackpoint>
          <Trackpoint>
            <Time>2022-07-13T17:06:56.000Z</Time>
            <Position>
              <LatitudeDegrees>43.4618253819644451141357421875</LatitudeDegrees>
              <LongitudeDegrees>-3.80609306506812572479248046875</LongitudeDegrees>
            </Position>
            <AltitudeMeters>30.200000762939453125</AltitudeMeters>
            <DistanceMeters>NAN</DistanceMeters>
          </Trackpoint>
          <Trackpoint>
            <Time>2022-07-13T17:06:59.000Z</Time>
            <Position>
              <LatitudeDegrees>43.4618951193988323211669921875</LatitudeDegrees>
              <LongitudeDegrees>-3.8061543367803096771240234375</LongitudeDegrees>
            </Position>
            <AltitudeMeters>30.6000003814697265625</AltitudeMeters>
            <DistanceMeters>NAN</DistanceMeters>
          </Trackpoint>
          <Trackpoint>
            <Time>2022-07-13T17:07:00.000Z</Time>
            <Position>
              <LatitudeDegrees>43.46190869808197021484375</LatitudeDegrees>
              <LongitudeDegrees>-3.80617286078631877899169921875</LongitudeDegrees>
            </Position>
            <AltitudeMeters>30.799999237060546875</AltitudeMeters>
            <DistanceMeters>NAN</DistanceMeters>
          </Trackpoint>
          <Trackpoint>
            <Time>2022-07-13T17:07:02.000Z</Time>
            <Position>
              <LatitudeDegrees>43.461920432746410369873046875</LatitudeDegrees>
              <LongitudeDegrees>-3.80617269314825534820556640625</LongitudeDegrees>
            </Position>
            <AltitudeMeters>30.799999237060546875</AltitudeMeters>
            <DistanceMeters>NAN</DistanceMeters>
          </Trackpoint>
          <Trackpoint>
            <Time>2022-07-13T17:07:03.000Z</Time>
            <Position>
              <LatitudeDegrees>43.461913056671619415283203125</LatitudeDegrees>
              <LongitudeDegrees>-3.8061493076384067535400390625</LongitudeDegrees>
            </Position>
            <AltitudeMeters>30.799999237060546875</AltitudeMeters>
            <DistanceMeters>NAN</DistanceMeters>
          </Trackpoint>
          <Trackpoint>
            <Time>2022-07-13T17:07:05.000Z</Time>
            <Position>
              <LatitudeDegrees>43.46188724040985107421875</LatitudeDegrees>
              <LongitudeDegrees>-3.8061310350894927978515625</LongitudeDegrees>
            </Position>
            <AltitudeMeters>30.799999237060546875</AltitudeMeters>
            <DistanceMeters>NAN</DistanceMeters>
          </Trackpoint>
          <Trackpoint>
            <Time>2022-07-13T17:07:28.000Z</Time>
            <Position>
              <LatitudeDegrees>43.462088406085968017578125</LatitudeDegrees>
              <LongitudeDegrees>-3.80710459314286708831787109375</LongitudeDegrees>
            </Position>
            <AltitudeMeters>31.3999996185302734375</AltitudeMeters>
            <DistanceMeters>NAN</DistanceMeters>
          </Trackpoint>
          <Trackpoint>
            <Time>2022-07-13T17:07:30.000Z</Time>
            <Position>
              <LatitudeDegrees>43.46209502778947353363037109375</LatitudeDegrees>
              <LongitudeDegrees>-3.807144574820995330810546875</LongitudeDegrees>
            </Position>
            <AltitudeMeters>31.3999996185302734375</AltitudeMeters>
            <DistanceMeters>NAN</DistanceMeters>
          </Trackpoint>
          <Trackpoint>
            <Time>2022-07-13T17:07:31.000Z</Time>
            <Position>
              <LatitudeDegrees>43.46210659481585025787353515625</LatitudeDegrees>
              <LongitudeDegrees>-3.80716360174119472503662109375</LongitudeDegrees>
            </Position>
            <AltitudeMeters>31.6000003814697265625</AltitudeMeters>
            <DistanceMeters>NAN</DistanceMeters>
          </Trackpoint>
          <Trackpoint>
            <Time>2022-07-13T17:07:32.000Z</Time>
            <Position>
              <LatitudeDegrees>43.46210307441651821136474609375</LatitudeDegrees>
              <LongitudeDegrees>-3.80718857981264591217041015625</LongitudeDegrees>
            </Position>
            <AltitudeMeters>31.6000003814697265625</AltitudeMeters>
            <DistanceMeters>NAN</DistanceMeters>
          </Trackpoint>
          <Trackpoint>
            <Time>2022-07-13T17:07:36.000Z</Time>
            <Position>
              <LatitudeDegrees>43.46215546131134033203125</LatitudeDegrees>
              <LongitudeDegrees>-3.80735705606639385223388671875</LongitudeDegrees>
            </Position>
            <AltitudeMeters>32</AltitudeMeters>
            <DistanceMeters>NAN</DistanceMeters>
          </Trackpoint>
          <Trackpoint>
            <Time>2022-07-13T17:07:38.000Z</Time>
            <Position>
              <LatitudeDegrees>43.4621482528746128082275390625</LatitudeDegrees>
              <LongitudeDegrees>-3.8074324093759059906005859375</LongitudeDegrees>
            </Position>
            <AltitudeMeters>32.200000762939453125</AltitudeMeters>
            <DistanceMeters>NAN</DistanceMeters>
          </Trackpoint>
          <Trackpoint>
            <Time>2022-07-13T17:07:40.000Z</Time>
            <Position>
              <LatitudeDegrees>43.4621541202068328857421875</LatitudeDegrees>
              <LongitudeDegrees>-3.80747976712882518768310546875</LongitudeDegrees>
            </Position>
            <AltitudeMeters>32.200000762939453125</AltitudeMeters>
            <DistanceMeters>NAN</DistanceMeters>
          </Trackpoint>
          <Trackpoint>
            <Time>2022-07-13T17:07:41.000Z</Time>
            <Position>
              <LatitudeDegrees>43.4620825387537479400634765625</LatitudeDegrees>
              <LongitudeDegrees>-3.807497285306453704833984375</LongitudeDegrees>
            </Position>
            <AltitudeMeters>32.200000762939453125</AltitudeMeters>
            <DistanceMeters>NAN</DistanceMeters>
          </Trackpoint>
          <Trackpoint>
            <Time>2022-07-13T17:07:43.000Z</Time>
            <Position>
              <LatitudeDegrees>43.461911045014858245849609375</LatitudeDegrees>
              <LongitudeDegrees>-3.807491250336170196533203125</LongitudeDegrees>
            </Position>
            <AltitudeMeters>32.59999847412109375</AltitudeMeters>
            <DistanceMeters>NAN</DistanceMeters>
          </Trackpoint>
          <Trackpoint>
            <Time>2022-07-13T17:07:47.000Z</Time>
            <Position>
              <LatitudeDegrees>43.461966030299663543701171875</LatitudeDegrees>
              <LongitudeDegrees>-3.8074426352977752685546875</LongitudeDegrees>
            </Position>
            <AltitudeMeters>32.799999237060546875</AltitudeMeters>
            <DistanceMeters>NAN</DistanceMeters>
          </Trackpoint>
          <Trackpoint>
            <Time>2022-07-13T17:07:48.000Z</Time>
            <Position>
              <LatitudeDegrees>43.461992852389812469482421875</LatitudeDegrees>
              <LongitudeDegrees>-3.80744389258325099945068359375</LongitudeDegrees>
            </Position>
            <AltitudeMeters>32.799999237060546875</AltitudeMeters>
            <DistanceMeters>NAN</DistanceMeters>
          </Trackpoint>
          <Trackpoint>
            <Time>2022-07-13T17:07:50.000Z</Time>
            <Position>
              <LatitudeDegrees>43.46204155124723911285400390625</LatitudeDegrees>
              <LongitudeDegrees>-3.8074599020183086395263671875</LongitudeDegrees>
            </Position>
            <AltitudeMeters>33</AltitudeMeters>
            <DistanceMeters>NAN</DistanceMeters>
          </Trackpoint>
          <Trackpoint>
            <Time>2022-07-13T17:07:52.000Z</Time>
            <Position>
              <LatitudeDegrees>43.46207977272570133209228515625</LatitudeDegrees>
              <LongitudeDegrees>-3.8075028173625469207763671875</LongitudeDegrees>
            </Position>
            <AltitudeMeters>33.200000762939453125</AltitudeMeters>
            <DistanceMeters>NAN</DistanceMeters>
          </Trackpoint>
          <Trackpoint>
            <Time>2022-07-13T17:07:54.000Z</Time>
            <Position>
              <LatitudeDegrees>43.462127633392810821533203125</LatitudeDegrees>
              <LongitudeDegrees>-3.8075209222733974456787109375</LongitudeDegrees>
            </Position>
            <AltitudeMeters>33.40000152587890625</AltitudeMeters>
            <DistanceMeters>NAN</DistanceMeters>
          </Trackpoint>
          <Trackpoint>
            <Time>2022-07-13T17:07:56.000Z</Time>
            <Position>
              <LatitudeDegrees>43.46213174052536487579345703125</LatitudeDegrees>
              <LongitudeDegrees>-3.80753357894718647003173828125</LongitudeDegrees>
            </Position>
            <AltitudeMeters>33.59999847412109375</AltitudeMeters>
            <DistanceMeters>NAN</DistanceMeters>
          </Trackpoint>
          <Trackpoint>
            <Time>2022-07-13T17:07:58.000Z</Time>
            <Position>
              <LatitudeDegrees>43.4621408767998218536376953125</LatitudeDegrees>
              <LongitudeDegrees>-3.8075916655361652374267578125</LongitudeDegrees>
            </Position>
            <AltitudeMeters>34</AltitudeMeters>
            <DistanceMeters>NAN</DistanceMeters>
          </Trackpoint>
          <Trackpoint>
            <Time>2022-07-13T17:08:03.000Z</Time>
            <Position>
              <LatitudeDegrees>43.46220298670232295989990234375</LatitudeDegrees>
              <LongitudeDegrees>-3.80784857086837291717529296875</LongitudeDegrees>
            </Position>
            <AltitudeMeters>33.799999237060546875</AltitudeMeters>
            <DistanceMeters>NAN</DistanceMeters>
          </Trackpoint>
          <Trackpoint>
            <Time>2022-07-13T17:08:09.000Z</Time>
            <Position>
              <LatitudeDegrees>43.46218605525791645050048828125</LatitudeDegrees>
              <LongitudeDegrees>-3.80806901492178440093994140625</LongitudeDegrees>
            </Position>
            <AltitudeMeters>33.59999847412109375</AltitudeMeters>
            <DistanceMeters>NAN</DistanceMeters>
          </Trackpoint>
          <Trackpoint>
            <Time>2022-07-13T17:08:12.000Z</Time>
            <Position>
              <LatitudeDegrees>43.46219594590365886688232421875</LatitudeDegrees>
              <LongitudeDegrees>-3.8081882894039154052734375</LongitudeDegrees>
            </Position>
            <AltitudeMeters>33.59999847412109375</AltitudeMeters>
            <DistanceMeters>NAN</DistanceMeters>
          </Trackpoint>
          <Trackpoint>
            <Time>2022-07-13T17:08:14.000Z</Time>
            <Position>
              <LatitudeDegrees>43.46220977604389190673828125</LatitudeDegrees>
              <LongitudeDegrees>-3.808275796473026275634765625</LongitudeDegrees>
            </Position>
            <AltitudeMeters>33.59999847412109375</AltitudeMeters>
            <DistanceMeters>NAN</DistanceMeters>
          </Trackpoint>
          <Trackpoint>
            <Time>2022-07-13T17:08:20.000Z</Time>
            <Position>
              <LatitudeDegrees>43.4622417949140071868896484375</LatitudeDegrees>
              <LongitudeDegrees>-3.80848576314747333526611328125</LongitudeDegrees>
            </Position>
            <AltitudeMeters>33.59999847412109375</AltitudeMeters>
            <DistanceMeters>NAN</DistanceMeters>
          </Trackpoint>
          <Trackpoint>
            <Time>2022-07-13T17:08:21.000Z</Time>
            <Position>
              <LatitudeDegrees>43.46225260756909847259521484375</LatitudeDegrees>
              <LongitudeDegrees>-3.80852155387401580810546875</LongitudeDegrees>
            </Position>
            <AltitudeMeters>33.59999847412109375</AltitudeMeters>
            <DistanceMeters>NAN</DistanceMeters>
          </Trackpoint>
          <Trackpoint>
            <Time>2022-07-13T17:08:23.000Z</Time>
            <Position>
              <LatitudeDegrees>43.4622712992131710052490234375</LatitudeDegrees>
              <LongitudeDegrees>-3.808589279651641845703125</LongitudeDegrees>
            </Position>
            <AltitudeMeters>33.799999237060546875</AltitudeMeters>
            <DistanceMeters>NAN</DistanceMeters>
          </Trackpoint>
          <Trackpoint>
            <Time>2022-07-13T17:08:24.000Z</Time>
            <Position>
              <LatitudeDegrees>43.46226501278579235076904296875</LatitudeDegrees>
              <LongitudeDegrees>-3.8086253218352794647216796875</LongitudeDegrees>
            </Position>
            <AltitudeMeters>33.799999237060546875</AltitudeMeters>
            <DistanceMeters>NAN</DistanceMeters>
          </Trackpoint>
          <Trackpoint>
            <Time>2022-07-13T17:08:27.000Z</Time>
            <Position>
              <LatitudeDegrees>43.46229351125657558441162109375</LatitudeDegrees>
              <LongitudeDegrees>-3.80875716917216777801513671875</LongitudeDegrees>
            </Position>
            <AltitudeMeters>33.59999847412109375</AltitudeMeters>
            <DistanceMeters>NAN</DistanceMeters>
          </Trackpoint>
          <Trackpoint>
            <Time>2022-07-13T17:08:28.000Z</Time>
            <Position>
              <LatitudeDegrees>43.462292589247226715087890625</LatitudeDegrees>
              <LongitudeDegrees>-3.80880176089704036712646484375</LongitudeDegrees>
            </Position>
            <AltitudeMeters>33.59999847412109375</AltitudeMeters>
            <DistanceMeters>NAN</DistanceMeters>
          </Trackpoint>
          <Trackpoint>
            <Time>2022-07-13T17:08:29.000Z</Time>
            <Position>
              <LatitudeDegrees>43.46228328533470630645751953125</LatitudeDegrees>
              <LongitudeDegrees>-3.80884048528969287872314453125</LongitudeDegrees>
            </Position>
            <AltitudeMeters>33.40000152587890625</AltitudeMeters>
            <DistanceMeters>NAN</DistanceMeters>
          </Trackpoint>
          <Trackpoint>
            <Time>2022-07-13T17:08:33.000Z</Time>
            <Position>
              <LatitudeDegrees>43.46222360618412494659423828125</LatitudeDegrees>
              <LongitudeDegrees>-3.80899135954678058624267578125</LongitudeDegrees>
            </Position>
            <AltitudeMeters>33.200000762939453125</AltitudeMeters>
            <DistanceMeters>NAN</DistanceMeters>
          </Trackpoint>
          <Trackpoint>
            <Time>2022-07-13T17:08:34.000Z</Time>
            <Position>
              <LatitudeDegrees>43.46223047934472560882568359375</LatitudeDegrees>
              <LongitudeDegrees>-3.80903117358684539794921875</LongitudeDegrees>
            </Position>
            <AltitudeMeters>33.200000762939453125</AltitudeMeters>
            <DistanceMeters>NAN</DistanceMeters>
          </Trackpoint>
          <Trackpoint>
            <Time>2022-07-13T17:08:36.000Z</Time>
            <Position>
              <LatitudeDegrees>43.46220281906425952911376953125</LatitudeDegrees>
              <LongitudeDegrees>-3.80913251079618930816650390625</LongitudeDegrees>
            </Position>
            <AltitudeMeters>32.799999237060546875</AltitudeMeters>
            <DistanceMeters>NAN</DistanceMeters>
          </Trackpoint>
          <Trackpoint>
            <Time>2022-07-13T17:08:38.000Z</Time>
            <Position>
              <LatitudeDegrees>43.46212034113705158233642578125</LatitudeDegrees>
              <LongitudeDegrees>-3.8092311657965183258056640625</LongitudeDegrees>
            </Position>
            <AltitudeMeters>32.59999847412109375</AltitudeMeters>
            <DistanceMeters>NAN</DistanceMeters>
          </Trackpoint>
          <Trackpoint>
            <Time>2022-07-13T17:08:40.000Z</Time>
            <Position>
              <LatitudeDegrees>43.46209066919982433319091796875</LatitudeDegrees>
              <LongitudeDegrees>-3.80932143889367580413818359375</LongitudeDegrees>
            </Position>
            <AltitudeMeters>32.40000152587890625</AltitudeMeters>
            <DistanceMeters>NAN</DistanceMeters>
          </Trackpoint>
          <Trackpoint>
            <Time>2022-07-13T17:08:41.000Z</Time>
            <Position>
              <LatitudeDegrees>43.46210408024489879608154296875</LatitudeDegrees>
              <LongitudeDegrees>-3.809364102780818939208984375</LongitudeDegrees>
            </Position>
            <AltitudeMeters>32.40000152587890625</AltitudeMeters>
            <DistanceMeters>NAN</DistanceMeters>
          </Trackpoint>
          <Trackpoint>
            <Time>2022-07-13T17:08:44.000Z</Time>
            <Position>
              <LatitudeDegrees>43.4621469117701053619384765625</LatitudeDegrees>
              <LongitudeDegrees>-3.80946309305727481842041015625</LongitudeDegrees>
            </Position>
            <AltitudeMeters>32.40000152587890625</AltitudeMeters>
            <DistanceMeters>NAN</DistanceMeters>
          </Trackpoint>
          <Trackpoint>
            <Time>2022-07-13T17:08:46.000Z</Time>
            <Position>
              <LatitudeDegrees>43.46214565448462963104248046875</LatitudeDegrees>
              <LongitudeDegrees>-3.809516988694667816162109375</LongitudeDegrees>
            </Position>
            <AltitudeMeters>32.59999847412109375</AltitudeMeters>
            <DistanceMeters>NAN</DistanceMeters>
          </Trackpoint>
          <Trackpoint>
            <Time>2022-07-13T17:08:47.000Z</Time>
            <Position>
              <LatitudeDegrees>43.462135009467601776123046875</LatitudeDegrees>
              <LongitudeDegrees>-3.8095298968255519866943359375</LongitudeDegrees>
            </Position>
            <AltitudeMeters>32.59999847412109375</AltitudeMeters>
            <DistanceMeters>NAN</DistanceMeters>
          </Trackpoint>
          <Trackpoint>
            <Time>2022-07-13T17:08:49.000Z</Time>
            <Position>
              <LatitudeDegrees>43.4621100313961505889892578125</LatitudeDegrees>
              <LongitudeDegrees>-3.8095248676836490631103515625</LongitudeDegrees>
            </Position>
            <AltitudeMeters>32.59999847412109375</AltitudeMeters>
            <DistanceMeters>NAN</DistanceMeters>
          </Trackpoint>
          <Trackpoint>
            <Time>2022-07-13T17:08:51.000Z</Time>
            <Position>
              <LatitudeDegrees>43.46203744411468505859375</LatitudeDegrees>
              <LongitudeDegrees>-3.8095535337924957275390625</LongitudeDegrees>
            </Position>
            <AltitudeMeters>32.40000152587890625</AltitudeMeters>
            <DistanceMeters>NAN</DistanceMeters>
          </Trackpoint>
          <Trackpoint>
            <Time>2022-07-13T17:08:52.000Z</Time>
            <Position>
              <LatitudeDegrees>43.46202495507895946502685546875</LatitudeDegrees>
              <LongitudeDegrees>-3.809554539620876312255859375</LongitudeDegrees>
            </Position>
            <AltitudeMeters>32.40000152587890625</AltitudeMeters>
            <DistanceMeters>NAN</DistanceMeters>
          </Trackpoint>
          <Trackpoint>
            <Time>2022-07-13T17:08:53.000Z</Time>
            <Position>
              <LatitudeDegrees>43.462020345032215118408203125</LatitudeDegrees>
              <LongitudeDegrees>-3.809554539620876312255859375</LongitudeDegrees>
            </Position>
            <AltitudeMeters>32.40000152587890625</AltitudeMeters>
            <DistanceMeters>NAN</DistanceMeters>
          </Trackpoint>
          <Trackpoint>
            <Time>2022-07-13T17:08:55.000Z</Time>
            <Position>
              <LatitudeDegrees>43.46198438666760921478271484375</LatitudeDegrees>
              <LongitudeDegrees>-3.80956627428531646728515625</LongitudeDegrees>
            </Position>
            <AltitudeMeters>32.40000152587890625</AltitudeMeters>
            <DistanceMeters>NAN</DistanceMeters>
          </Trackpoint>
          <Trackpoint>
            <Time>2022-07-13T17:08:56.000Z</Time>
            <Position>
              <LatitudeDegrees>43.46197265200316905975341796875</LatitudeDegrees>
              <LongitudeDegrees>-3.80959334783256053924560546875</LongitudeDegrees>
            </Position>
            <AltitudeMeters>32.40000152587890625</AltitudeMeters>
            <DistanceMeters>NAN</DistanceMeters>
          </Trackpoint>
          <Trackpoint>
            <Time>2022-07-13T17:09:01.000Z</Time>
            <Position>
              <LatitudeDegrees>43.46192386932671070098876953125</LatitudeDegrees>
              <LongitudeDegrees>-3.80977540276944637298583984375</LongitudeDegrees>
            </Position>
            <AltitudeMeters>32.40000152587890625</AltitudeMeters>
            <DistanceMeters>NAN</DistanceMeters>
          </Trackpoint>
          <Trackpoint>
            <Time>2022-07-13T17:09:07.000Z</Time>
            <Position>
              <LatitudeDegrees>43.46183937974274158477783203125</LatitudeDegrees>
              <LongitudeDegrees>-3.8099660910665988922119140625</LongitudeDegrees>
            </Position>
            <AltitudeMeters>32.40000152587890625</AltitudeMeters>
            <DistanceMeters>NAN</DistanceMeters>
          </Trackpoint>
          <Trackpoint>
            <Time>2022-07-13T17:09:13.000Z</Time>
            <Position>
              <LatitudeDegrees>43.46176494844257831573486328125</LatitudeDegrees>
              <LongitudeDegrees>-3.8101531751453876495361328125</LongitudeDegrees>
            </Position>
            <AltitudeMeters>32.40000152587890625</AltitudeMeters>
            <DistanceMeters>NAN</DistanceMeters>
          </Trackpoint>
          <Trackpoint>
            <Time>2022-07-13T17:09:15.000Z</Time>
            <Position>
              <LatitudeDegrees>43.4617633558809757232666015625</LatitudeDegrees>
              <LongitudeDegrees>-3.81021444685757160186767578125</LongitudeDegrees>
            </Position>
            <AltitudeMeters>32.40000152587890625</AltitudeMeters>
            <DistanceMeters>NAN</DistanceMeters>
          </Trackpoint>
          <Trackpoint>
            <Time>2022-07-13T17:09:17.000Z</Time>
            <Position>
              <LatitudeDegrees>43.4617693908512592315673828125</LatitudeDegrees>
              <LongitudeDegrees>-3.8102882914245128631591796875</LongitudeDegrees>
            </Position>
            <AltitudeMeters>32.40000152587890625</AltitudeMeters>
            <DistanceMeters>NAN</DistanceMeters>
          </Trackpoint>
          <Trackpoint>
            <Time>2022-07-13T17:09:18.000Z</Time>
            <Position>
              <LatitudeDegrees>43.461771570146083831787109375</LatitudeDegrees>
              <LongitudeDegrees>-3.81032357923686504364013671875</LongitudeDegrees>
            </Position>
            <AltitudeMeters>32.40000152587890625</AltitudeMeters>
            <DistanceMeters>NAN</DistanceMeters>
          </Trackpoint>
          <Trackpoint>
            <Time>2022-07-13T17:09:21.000Z</Time>
            <Position>
              <LatitudeDegrees>43.4617745876312255859375</LatitudeDegrees>
              <LongitudeDegrees>-3.81042466498911380767822265625</LongitudeDegrees>
            </Position>
            <AltitudeMeters>32.200000762939453125</AltitudeMeters>
            <DistanceMeters>NAN</DistanceMeters>
          </Trackpoint>
          <Trackpoint>
            <Time>2022-07-13T17:09:24.000Z</Time>
            <Position>
              <LatitudeDegrees>43.46177735365927219390869140625</LatitudeDegrees>
              <LongitudeDegrees>-3.81050881929695606231689453125</LongitudeDegrees>
            </Position>
            <AltitudeMeters>32.200000762939453125</AltitudeMeters>
            <DistanceMeters>NAN</DistanceMeters>
          </Trackpoint>
          <Trackpoint>
            <Time>2022-07-13T17:09:25.000Z</Time>
            <Position>
              <LatitudeDegrees>43.461780287325382232666015625</LatitudeDegrees>
              <LongitudeDegrees>-3.8105191290378570556640625</LongitudeDegrees>
            </Position>
            <AltitudeMeters>32.200000762939453125</AltitudeMeters>
            <DistanceMeters>NAN</DistanceMeters>
          </Trackpoint>
          <Trackpoint>
            <Time>2022-07-13T17:09:27.000Z</Time>
            <Position>
              <LatitudeDegrees>43.4617804549634456634521484375</LatitudeDegrees>
              <LongitudeDegrees>-3.81052357144653797149658203125</LongitudeDegrees>
            </Position>
            <AltitudeMeters>32.40000152587890625</AltitudeMeters>
            <DistanceMeters>NAN</DistanceMeters>
          </Trackpoint>
          <Trackpoint>
            <Time>2022-07-13T17:09:29.000Z</Time>
            <Position>
              <LatitudeDegrees>43.4617804549634456634521484375</LatitudeDegrees>
              <LongitudeDegrees>-3.81052357144653797149658203125</LongitudeDegrees>
            </Position>
            <AltitudeMeters>32.40000152587890625</AltitudeMeters>
            <DistanceMeters>NAN</DistanceMeters>
          </Trackpoint>
          <Trackpoint>
            <Time>2022-07-13T17:11:36.000Z</Time>
            <Position>
              <LatitudeDegrees>43.461820185184478759765625</LatitudeDegrees>
              <LongitudeDegrees>-3.81046473048627376556396484375</LongitudeDegrees>
            </Position>
            <AltitudeMeters>28.6000003814697265625</AltitudeMeters>
            <DistanceMeters>NAN</DistanceMeters>
          </Trackpoint>
          <Trackpoint>
            <Time>2022-07-13T17:11:40.000Z</Time>
            <Position>
              <LatitudeDegrees>43.461829908192157745361328125</LatitudeDegrees>
              <LongitudeDegrees>-3.81035174243152141571044921875</LongitudeDegrees>
            </Position>
            <AltitudeMeters>28.3999996185302734375</AltitudeMeters>
            <DistanceMeters>NAN</DistanceMeters>
          </Trackpoint>
          <Trackpoint>
            <Time>2022-07-13T17:11:41.000Z</Time>
            <Position>
              <LatitudeDegrees>43.461848013103008270263671875</LatitudeDegrees>
              <LongitudeDegrees>-3.810334391891956329345703125</LongitudeDegrees>
            </Position>
            <AltitudeMeters>28.3999996185302734375</AltitudeMeters>
            <DistanceMeters>NAN</DistanceMeters>
          </Trackpoint>
          <Trackpoint>
            <Time>2022-07-13T17:11:43.000Z</Time>
            <Position>
              <LatitudeDegrees>43.46188732422888278961181640625</LatitudeDegrees>
              <LongitudeDegrees>-3.8102903030812740325927734375</LongitudeDegrees>
            </Position>
            <AltitudeMeters>28.3999996185302734375</AltitudeMeters>
            <DistanceMeters>NAN</DistanceMeters>
          </Trackpoint>
          <Trackpoint>
            <Time>2022-07-13T17:11:44.000Z</Time>
            <Position>
              <LatitudeDegrees>43.46189201809465885162353515625</LatitudeDegrees>
              <LongitudeDegrees>-3.8102765567600727081298828125</LongitudeDegrees>
            </Position>
            <AltitudeMeters>28.200000762939453125</AltitudeMeters>
            <DistanceMeters>NAN</DistanceMeters>
          </Trackpoint>
          <Trackpoint>
            <Time>2022-07-13T17:11:49.000Z</Time>
            <Position>
              <LatitudeDegrees>43.46200014464557170867919921875</LatitudeDegrees>
              <LongitudeDegrees>-3.81034486927092075347900390625</LongitudeDegrees>
            </Position>
            <AltitudeMeters>28.200000762939453125</AltitudeMeters>
            <DistanceMeters>NAN</DistanceMeters>
          </Trackpoint>
          <Trackpoint>
            <Time>2022-07-13T17:11:52.000Z</Time>
            <Position>
              <LatitudeDegrees>43.46200718544423580169677734375</LatitudeDegrees>
              <LongitudeDegrees>-3.8104049675166606903076171875</LongitudeDegrees>
            </Position>
            <AltitudeMeters>28.200000762939453125</AltitudeMeters>
            <DistanceMeters>NAN</DistanceMeters>
          </Trackpoint>
          <Trackpoint>
            <Time>2022-07-13T17:11:54.000Z</Time>
            <Position>
              <LatitudeDegrees>43.46201120875775814056396484375</LatitudeDegrees>
              <LongitudeDegrees>-3.8104612939059734344482421875</LongitudeDegrees>
            </Position>
            <AltitudeMeters>28.200000762939453125</AltitudeMeters>
            <DistanceMeters>NAN</DistanceMeters>
          </Trackpoint>
          <Trackpoint>
            <Time>2022-07-13T17:11:59.000Z</Time>
            <Position>
              <LatitudeDegrees>43.46201640553772449493408203125</LatitudeDegrees>
              <LongitudeDegrees>-3.81057302467525005340576171875</LongitudeDegrees>
            </Position>
            <AltitudeMeters>27.799999237060546875</AltitudeMeters>
            <DistanceMeters>NAN</DistanceMeters>
          </Trackpoint>
          <Trackpoint>
            <Time>2022-07-13T17:12:03.000Z</Time>
            <Position>
              <LatitudeDegrees>43.462016321718692779541015625</LatitudeDegrees>
              <LongitudeDegrees>-3.81067042239010334014892578125</LongitudeDegrees>
            </Position>
            <AltitudeMeters>27.799999237060546875</AltitudeMeters>
            <DistanceMeters>NAN</DistanceMeters>
          </Trackpoint>
          <Trackpoint>
            <Time>2022-07-13T17:12:04.000Z</Time>
            <Position>
              <LatitudeDegrees>43.46201598644256591796875</LatitudeDegrees>
              <LongitudeDegrees>-3.81068701855838298797607421875</LongitudeDegrees>
            </Position>
            <AltitudeMeters>27.799999237060546875</AltitudeMeters>
            <DistanceMeters>NAN</DistanceMeters>
          </Trackpoint>
          <Trackpoint>
            <Time>2022-07-13T17:12:06.000Z</Time>
            <Position>
              <LatitudeDegrees>43.46201472915709018707275390625</LatitudeDegrees>
              <LongitudeDegrees>-3.81071719340980052947998046875</LongitudeDegrees>
            </Position>
            <AltitudeMeters>27.799999237060546875</AltitudeMeters>
            <DistanceMeters>NAN</DistanceMeters>
          </Trackpoint>
          <Trackpoint>
            <Time>2022-07-13T17:12:11.000Z</Time>
            <Position>
              <LatitudeDegrees>43.46200701780617237091064453125</LatitudeDegrees>
              <LongitudeDegrees>-3.8108525611460208892822265625</LongitudeDegrees>
            </Position>
            <AltitudeMeters>28</AltitudeMeters>
            <DistanceMeters>NAN</DistanceMeters>
          </Trackpoint>
          <Trackpoint>
            <Time>2022-07-13T17:12:12.000Z</Time>
            <Position>
              <LatitudeDegrees>43.46200852654874324798583984375</LatitudeDegrees>
              <LongitudeDegrees>-3.8108562491834163665771484375</LongitudeDegrees>
            </Position>
            <AltitudeMeters>28</AltitudeMeters>
            <DistanceMeters>NAN</DistanceMeters>
          </Trackpoint>
          <Trackpoint>
            <Time>2022-07-13T17:12:15.000Z</Time>
            <Position>
              <LatitudeDegrees>43.46201020292937755584716796875</LatitudeDegrees>
              <LongitudeDegrees>-3.81086446344852447509765625</LongitudeDegrees>
            </Position>
            <AltitudeMeters>28</AltitudeMeters>
            <DistanceMeters>NAN</DistanceMeters>
          </Trackpoint>
          <Trackpoint>
            <Time>2022-07-13T17:12:18.000Z</Time>
            <Position>
              <LatitudeDegrees>43.46202109940350055694580078125</LatitudeDegrees>
              <LongitudeDegrees>-3.81093143485486507415771484375</LongitudeDegrees>
            </Position>
            <AltitudeMeters>28.200000762939453125</AltitudeMeters>
            <DistanceMeters>NAN</DistanceMeters>
          </Trackpoint>
          <Trackpoint>
            <Time>2022-07-13T17:12:19.000Z</Time>
            <Position>
              <LatitudeDegrees>43.46202126704156398773193359375</LatitudeDegrees>
              <LongitudeDegrees>-3.81095431745052337646484375</LongitudeDegrees>
            </Position>
            <AltitudeMeters>28.200000762939453125</AltitudeMeters>
            <DistanceMeters>NAN</DistanceMeters>
          </Trackpoint>
          <Trackpoint>
            <Time>2022-07-13T17:12:21.000Z</Time>
            <Position>
              <LatitudeDegrees>43.4620154835283756256103515625</LatitudeDegrees>
              <LongitudeDegrees>-3.8109803013503551483154296875</LongitudeDegrees>
            </Position>
            <AltitudeMeters>28.200000762939453125</AltitudeMeters>
            <DistanceMeters>NAN</DistanceMeters>
          </Trackpoint>
          <Trackpoint>
            <Time>2022-07-13T17:12:23.000Z</Time>
            <Position>
              <LatitudeDegrees>43.46201590262353420257568359375</LatitudeDegrees>
              <LongitudeDegrees>-3.8109903596341609954833984375</LongitudeDegrees>
            </Position>
            <AltitudeMeters>28.200000762939453125</AltitudeMeters>
            <DistanceMeters>NAN</DistanceMeters>
          </Trackpoint>
          <Trackpoint>
            <Time>2022-07-13T17:12:27.000Z</Time>
            <Position>
              <LatitudeDegrees>43.4619940258562564849853515625</LatitudeDegrees>
              <LongitudeDegrees>-3.81105045787990093231201171875</LongitudeDegrees>
            </Position>
            <AltitudeMeters>28.3999996185302734375</AltitudeMeters>
            <DistanceMeters>NAN</DistanceMeters>
          </Trackpoint>
          <Trackpoint>
            <Time>2022-07-13T17:12:29.000Z</Time>
            <Position>
              <LatitudeDegrees>43.46198690123856067657470703125</LatitudeDegrees>
              <LongitudeDegrees>-3.8110728375613689422607421875</LongitudeDegrees>
            </Position>
            <AltitudeMeters>28.3999996185302734375</AltitudeMeters>
            <DistanceMeters>NAN</DistanceMeters>
          </Trackpoint>
          <Trackpoint>
            <Time>2022-07-13T17:12:30.000Z</Time>
            <Position>
              <LatitudeDegrees>43.4619906730949878692626953125</LatitudeDegrees>
              <LongitudeDegrees>-3.81107426248490810394287109375</LongitudeDegrees>
            </Position>
            <AltitudeMeters>28.6000003814697265625</AltitudeMeters>
            <DistanceMeters>NAN</DistanceMeters>
          </Trackpoint>
          <Trackpoint>
            <Time>2022-07-13T17:12:33.000Z</Time>
            <Position>
              <LatitudeDegrees>43.46202378161251544952392578125</LatitudeDegrees>
              <LongitudeDegrees>-3.8111107237637042999267578125</LongitudeDegrees>
            </Position>
            <AltitudeMeters>28.6000003814697265625</AltitudeMeters>
            <DistanceMeters>NAN</DistanceMeters>
          </Trackpoint>
          <Trackpoint>
            <Time>2022-07-13T17:12:34.000Z</Time>
            <Position>
              <LatitudeDegrees>43.46202193759381771087646484375</LatitudeDegrees>
              <LongitudeDegrees>-3.8111231289803981781005859375</LongitudeDegrees>
            </Position>
            <AltitudeMeters>28.6000003814697265625</AltitudeMeters>
            <DistanceMeters>NAN</DistanceMeters>
          </Trackpoint>
          <Trackpoint>
            <Time>2022-07-13T17:12:35.000Z</Time>
            <Position>
              <LatitudeDegrees>43.4620060957968235015869140625</LatitudeDegrees>
              <LongitudeDegrees>-3.81113042123615741729736328125</LongitudeDegrees>
            </Position>
            <AltitudeMeters>26.200000762939453125</AltitudeMeters>
            <DistanceMeters>NAN</DistanceMeters>
          </Trackpoint>
          <Trackpoint>
            <Time>2022-07-13T17:12:36.000Z</Time>
            <Position>
              <LatitudeDegrees>43.46200148575007915496826171875</LatitudeDegrees>
              <LongitudeDegrees>-3.81113997660577297210693359375</LongitudeDegrees>
            </Position>
            <AltitudeMeters>25</AltitudeMeters>
            <DistanceMeters>NAN</DistanceMeters>
          </Trackpoint>
          <Trackpoint>
            <Time>2022-07-13T17:12:37.000Z</Time>
            <Position>
              <LatitudeDegrees>43.46200165338814258575439453125</LatitudeDegrees>
              <LongitudeDegrees>-3.81115171127021312713623046875</LongitudeDegrees>
            </Position>
            <AltitudeMeters>24.200000762939453125</AltitudeMeters>
            <DistanceMeters>NAN</DistanceMeters>
          </Trackpoint>
          <Trackpoint>
            <Time>2022-07-13T17:12:38.000Z</Time>
            <Position>
              <LatitudeDegrees>43.4620064310729503631591796875</LatitudeDegrees>
              <LongitudeDegrees>-3.81116688251495361328125</LongitudeDegrees>
            </Position>
            <AltitudeMeters>24</AltitudeMeters>
            <DistanceMeters>NAN</DistanceMeters>
          </Trackpoint>
          <Trackpoint>
            <Time>2022-07-13T17:12:43.000Z</Time>
            <Position>
              <LatitudeDegrees>43.46201489679515361785888671875</LatitudeDegrees>
              <LongitudeDegrees>-3.811290264129638671875</LongitudeDegrees>
            </Position>
            <AltitudeMeters>23.6000003814697265625</AltitudeMeters>
            <DistanceMeters>NAN</DistanceMeters>
          </Trackpoint>
          <Trackpoint>
            <Time>2022-07-13T17:12:44.000Z</Time>
            <Position>
              <LatitudeDegrees>43.462009616196155548095703125</LatitudeDegrees>
              <LongitudeDegrees>-3.81132052280008792877197265625</LongitudeDegrees>
            </Position>
            <AltitudeMeters>23.6000003814697265625</AltitudeMeters>
            <DistanceMeters>NAN</DistanceMeters>
          </Trackpoint>
          <Trackpoint>
            <Time>2022-07-13T17:12:45.000Z</Time>
            <Position>
              <LatitudeDegrees>43.462007939815521240234375</LatitudeDegrees>
              <LongitudeDegrees>-3.81134985946118831634521484375</LongitudeDegrees>
            </Position>
            <AltitudeMeters>23.6000003814697265625</AltitudeMeters>
            <DistanceMeters>NAN</DistanceMeters>
          </Trackpoint>
          <Trackpoint>
            <Time>2022-07-13T17:12:49.000Z</Time>
            <Position>
              <LatitudeDegrees>43.461996875703334808349609375</LatitudeDegrees>
              <LongitudeDegrees>-3.8114734925329685211181640625</LongitudeDegrees>
            </Position>
            <AltitudeMeters>23.799999237060546875</AltitudeMeters>
            <DistanceMeters>NAN</DistanceMeters>
          </Trackpoint>
          <Trackpoint>
            <Time>2022-07-13T17:12:50.000Z</Time>
            <Position>
              <LatitudeDegrees>43.46200416795909404754638671875</LatitudeDegrees>
              <LongitudeDegrees>-3.81148195825517177581787109375</LongitudeDegrees>
            </Position>
            <AltitudeMeters>23.799999237060546875</AltitudeMeters>
            <DistanceMeters>NAN</DistanceMeters>
          </Trackpoint>
          <Trackpoint>
            <Time>2022-07-13T17:12:51.000Z</Time>
            <Position>
              <LatitudeDegrees>43.4620030783116817474365234375</LatitudeDegrees>
              <LongitudeDegrees>-3.811492435634136199951171875</LongitudeDegrees>
            </Position>
            <AltitudeMeters>23.799999237060546875</AltitudeMeters>
            <DistanceMeters>NAN</DistanceMeters>
          </Trackpoint>
          <Trackpoint>
            <Time>2022-07-13T17:12:54.000Z</Time>
            <Position>
              <LatitudeDegrees>43.46201724372804164886474609375</LatitudeDegrees>
              <LongitudeDegrees>-3.81152520887553691864013671875</LongitudeDegrees>
            </Position>
            <AltitudeMeters>23.799999237060546875</AltitudeMeters>
            <DistanceMeters>NAN</DistanceMeters>
          </Trackpoint>
          <Trackpoint>
            <Time>2022-07-13T17:12:57.000Z</Time>
            <Position>
              <LatitudeDegrees>43.4620600752532482147216796875</LatitudeDegrees>
              <LongitudeDegrees>-3.8115951977670192718505859375</LongitudeDegrees>
            </Position>
            <AltitudeMeters>23.799999237060546875</AltitudeMeters>
            <DistanceMeters>NAN</DistanceMeters>
          </Trackpoint>
          <Trackpoint>
            <Time>2022-07-13T17:12:59.000Z</Time>
            <Position>
              <LatitudeDegrees>43.4620845504105091094970703125</LatitudeDegrees>
              <LongitudeDegrees>-3.81162176840007305145263671875</LongitudeDegrees>
            </Position>
            <AltitudeMeters>24</AltitudeMeters>
            <DistanceMeters>NAN</DistanceMeters>
          </Trackpoint>
          <Trackpoint>
            <Time>2022-07-13T17:13:03.000Z</Time>
            <Position>
              <LatitudeDegrees>43.46210776828229427337646484375</LatitudeDegrees>
              <LongitudeDegrees>-3.8116215169429779052734375</LongitudeDegrees>
            </Position>
            <AltitudeMeters>24.6000003814697265625</AltitudeMeters>
            <DistanceMeters>NAN</DistanceMeters>
          </Trackpoint>
          <Trackpoint>
            <Time>2022-07-13T17:13:04.000Z</Time>
            <Position>
              <LatitudeDegrees>43.46213869750499725341796875</LatitudeDegrees>
              <LongitudeDegrees>-3.81162428297102451324462890625</LongitudeDegrees>
            </Position>
            <AltitudeMeters>24.6000003814697265625</AltitudeMeters>
            <DistanceMeters>NAN</DistanceMeters>
          </Trackpoint>
          <Trackpoint>
            <Time>2022-07-13T17:13:05.000Z</Time>
            <Position>
              <LatitudeDegrees>43.4621844626963138580322265625</LatitudeDegrees>
              <LongitudeDegrees>-3.81161958910524845123291015625</LongitudeDegrees>
            </Position>
            <AltitudeMeters>24.799999237060546875</AltitudeMeters>
            <DistanceMeters>NAN</DistanceMeters>
          </Trackpoint>
          <Trackpoint>
            <Time>2022-07-13T17:13:07.000Z</Time>
            <Position>
              <LatitudeDegrees>43.4622320719063282012939453125</LatitudeDegrees>
              <LongitudeDegrees>-3.81159595213830471038818359375</LongitudeDegrees>
            </Position>
            <AltitudeMeters>24.799999237060546875</AltitudeMeters>
            <DistanceMeters>NAN</DistanceMeters>
          </Trackpoint>
          <Trackpoint>
            <Time>2022-07-13T17:13:08.000Z</Time>
            <Position>
              <LatitudeDegrees>43.4622253663837909698486328125</LatitudeDegrees>
              <LongitudeDegrees>-3.81162126548588275909423828125</LongitudeDegrees>
            </Position>
            <AltitudeMeters>24.799999237060546875</AltitudeMeters>
            <DistanceMeters>NAN</DistanceMeters>
          </Trackpoint>
          <Trackpoint>
            <Time>2022-07-13T17:13:09.000Z</Time>
            <Position>
              <LatitudeDegrees>43.462219499051570892333984375</LatitudeDegrees>
              <LongitudeDegrees>-3.8116431422531604766845703125</LongitudeDegrees>
            </Position>
            <AltitudeMeters>25</AltitudeMeters>
            <DistanceMeters>NAN</DistanceMeters>
          </Trackpoint>
          <Trackpoint>
            <Time>2022-07-13T17:13:12.000Z</Time>
            <Position>
              <LatitudeDegrees>43.4621683694422245025634765625</LatitudeDegrees>
              <LongitudeDegrees>-3.81172503344714641571044921875</LongitudeDegrees>
            </Position>
            <AltitudeMeters>25.200000762939453125</AltitudeMeters>
            <DistanceMeters>NAN</DistanceMeters>
          </Trackpoint>
          <Trackpoint>
            <Time>2022-07-13T17:13:13.000Z</Time>
            <Position>
              <LatitudeDegrees>43.46213811077177524566650390625</LatitudeDegrees>
              <LongitudeDegrees>-3.81173458881676197052001953125</LongitudeDegrees>
            </Position>
            <AltitudeMeters>25.3999996185302734375</AltitudeMeters>
            <DistanceMeters>NAN</DistanceMeters>
          </Trackpoint>
          <Trackpoint>
            <Time>2022-07-13T17:13:14.000Z</Time>
            <Position>
              <LatitudeDegrees>43.46213274635374546051025390625</LatitudeDegrees>
              <LongitudeDegrees>-3.8117457367479801177978515625</LongitudeDegrees>
            </Position>
            <AltitudeMeters>25.3999996185302734375</AltitudeMeters>
            <DistanceMeters>NAN</DistanceMeters>
          </Trackpoint>
          <Trackpoint>
            <Time>2022-07-13T17:13:16.000Z</Time>
            <Position>
              <LatitudeDegrees>43.46213023178279399871826171875</LatitudeDegrees>
              <LongitudeDegrees>-3.81181321106851100921630859375</LongitudeDegrees>
            </Position>
            <AltitudeMeters>25.3999996185302734375</AltitudeMeters>
            <DistanceMeters>NAN</DistanceMeters>
          </Trackpoint>
          <Trackpoint>
            <Time>2022-07-13T17:13:18.000Z</Time>
            <Position>
              <LatitudeDegrees>43.46219477243721485137939453125</LatitudeDegrees>
              <LongitudeDegrees>-3.811878003180027008056640625</LongitudeDegrees>
            </Position>
            <AltitudeMeters>25.3999996185302734375</AltitudeMeters>
            <DistanceMeters>NAN</DistanceMeters>
          </Trackpoint>
          <Trackpoint>
            <Time>2022-07-13T17:13:19.000Z</Time>
            <Position>
              <LatitudeDegrees>43.462211452424526214599609375</LatitudeDegrees>
              <LongitudeDegrees>-3.811928294599056243896484375</LongitudeDegrees>
            </Position>
            <AltitudeMeters>25.3999996185302734375</AltitudeMeters>
            <DistanceMeters>NAN</DistanceMeters>
          </Trackpoint>
          <Trackpoint>
            <Time>2022-07-13T17:13:20.000Z</Time>
            <Position>
              <LatitudeDegrees>43.46220818348228931427001953125</LatitudeDegrees>
              <LongitudeDegrees>-3.81197364069521427154541015625</LongitudeDegrees>
            </Position>
            <AltitudeMeters>25.3999996185302734375</AltitudeMeters>
            <DistanceMeters>NAN</DistanceMeters>
          </Trackpoint>
          <Trackpoint>
            <Time>2022-07-13T17:13:21.000Z</Time>
            <Position>
              <LatitudeDegrees>43.46220047213137149810791015625</LatitudeDegrees>
              <LongitudeDegrees>-3.8120095990598201751708984375</LongitudeDegrees>
            </Position>
            <AltitudeMeters>25.6000003814697265625</AltitudeMeters>
            <DistanceMeters>NAN</DistanceMeters>
          </Trackpoint>
          <Trackpoint>
            <Time>2022-07-13T17:13:22.000Z</Time>
            <Position>
              <LatitudeDegrees>43.46220667473971843719482421875</LatitudeDegrees>
              <LongitudeDegrees>-3.81205075420439243316650390625</LongitudeDegrees>
            </Position>
            <AltitudeMeters>25.6000003814697265625</AltitudeMeters>
            <DistanceMeters>NAN</DistanceMeters>
          </Trackpoint>
          <Trackpoint>
            <Time>2022-07-13T17:13:24.000Z</Time>
            <Position>
              <LatitudeDegrees>43.46222863532602787017822265625</LatitudeDegrees>
              <LongitudeDegrees>-3.81214815191924571990966796875</LongitudeDegrees>
            </Position>
            <AltitudeMeters>25.799999237060546875</AltitudeMeters>
            <DistanceMeters>NAN</DistanceMeters>
          </Trackpoint>
          <Trackpoint>
            <Time>2022-07-13T17:13:28.000Z</Time>
            <Position>
              <LatitudeDegrees>43.46223835833370685577392578125</LatitudeDegrees>
              <LongitudeDegrees>-3.812305144965648651123046875</LongitudeDegrees>
            </Position>
            <AltitudeMeters>26</AltitudeMeters>
            <DistanceMeters>NAN</DistanceMeters>
          </Trackpoint>
          <Trackpoint>
            <Time>2022-07-13T17:13:30.000Z</Time>
            <Position>
              <LatitudeDegrees>43.46225445158779621124267578125</LatitudeDegrees>
              <LongitudeDegrees>-3.8123810850083827972412109375</LongitudeDegrees>
            </Position>
            <AltitudeMeters>26.200000762939453125</AltitudeMeters>
            <DistanceMeters>NAN</DistanceMeters>
          </Trackpoint>
          <Trackpoint>
            <Time>2022-07-13T17:13:32.000Z</Time>
            <Position>
              <LatitudeDegrees>43.462261743843555450439453125</LatitudeDegrees>
              <LongitudeDegrees>-3.81246574223041534423828125</LongitudeDegrees>
            </Position>
            <AltitudeMeters>26.3999996185302734375</AltitudeMeters>
            <DistanceMeters>NAN</DistanceMeters>
          </Trackpoint>
          <Trackpoint>
            <Time>2022-07-13T17:13:34.000Z</Time>
            <Position>
              <LatitudeDegrees>43.46227305941283702850341796875</LatitudeDegrees>
              <LongitudeDegrees>-3.812543191015720367431640625</LongitudeDegrees>
            </Position>
            <AltitudeMeters>26.6000003814697265625</AltitudeMeters>
            <DistanceMeters>NAN</DistanceMeters>
          </Trackpoint>
          <Trackpoint>
            <Time>2022-07-13T17:13:38.000Z</Time>
            <Position>
              <LatitudeDegrees>43.4622505120933055877685546875</LatitudeDegrees>
              <LongitudeDegrees>-3.81266850046813488006591796875</LongitudeDegrees>
            </Position>
            <AltitudeMeters>26.6000003814697265625</AltitudeMeters>
            <DistanceMeters>NAN</DistanceMeters>
          </Trackpoint>
          <Trackpoint>
            <Time>2022-07-13T17:13:44.000Z</Time>
            <Position>
              <LatitudeDegrees>43.46224556677043437957763671875</LatitudeDegrees>
              <LongitudeDegrees>-3.81286111660301685333251953125</LongitudeDegrees>
            </Position>
            <AltitudeMeters>27</AltitudeMeters>
            <DistanceMeters>NAN</DistanceMeters>
          </Trackpoint>
          <Trackpoint>
            <Time>2022-07-13T17:13:49.000Z</Time>
            <Position>
              <LatitudeDegrees>43.46232418902218341827392578125</LatitudeDegrees>
              <LongitudeDegrees>-3.81308533251285552978515625</LongitudeDegrees>
            </Position>
            <AltitudeMeters>27.200000762939453125</AltitudeMeters>
            <DistanceMeters>NAN</DistanceMeters>
          </Trackpoint>
          <Trackpoint>
            <Time>2022-07-13T17:13:50.000Z</Time>
            <Position>
              <LatitudeDegrees>43.46233625896275043487548828125</LatitudeDegrees>
              <LongitudeDegrees>-3.81313554011285305023193359375</LongitudeDegrees>
            </Position>
            <AltitudeMeters>27.200000762939453125</AltitudeMeters>
            <DistanceMeters>NAN</DistanceMeters>
          </Trackpoint>
          <Trackpoint>
            <Time>2022-07-13T17:13:56.000Z</Time>
            <Position>
              <LatitudeDegrees>43.46232553012669086456298828125</LatitudeDegrees>
              <LongitudeDegrees>-3.8133366219699382781982421875</LongitudeDegrees>
            </Position>
            <AltitudeMeters>27.3999996185302734375</AltitudeMeters>
            <DistanceMeters>NAN</DistanceMeters>
          </Trackpoint>
          <Trackpoint>
            <Time>2022-07-13T17:13:58.000Z</Time>
            <Position>
              <LatitudeDegrees>43.462298624217510223388671875</LatitudeDegrees>
              <LongitudeDegrees>-3.81338934414088726043701171875</LongitudeDegrees>
            </Position>
            <AltitudeMeters>27.6000003814697265625</AltitudeMeters>
            <DistanceMeters>NAN</DistanceMeters>
          </Trackpoint>
          <Trackpoint>
            <Time>2022-07-13T17:14:01.000Z</Time>
            <Position>
              <LatitudeDegrees>43.46233986318111419677734375</LatitudeDegrees>
              <LongitudeDegrees>-3.8134999014437198638916015625</LongitudeDegrees>
            </Position>
            <AltitudeMeters>27.6000003814697265625</AltitudeMeters>
            <DistanceMeters>NAN</DistanceMeters>
          </Trackpoint>
          <Trackpoint>
            <Time>2022-07-13T17:14:03.000Z</Time>
            <Position>
              <LatitudeDegrees>43.4623363427817821502685546875</LatitudeDegrees>
              <LongitudeDegrees>-3.81356947124004364013671875</LongitudeDegrees>
            </Position>
            <AltitudeMeters>27.799999237060546875</AltitudeMeters>
            <DistanceMeters>NAN</DistanceMeters>
          </Trackpoint>
          <Trackpoint>
            <Time>2022-07-13T17:14:05.000Z</Time>
            <Position>
              <LatitudeDegrees>43.4622914157807826995849609375</LatitudeDegrees>
              <LongitudeDegrees>-3.8136353529989719390869140625</LongitudeDegrees>
            </Position>
            <AltitudeMeters>27.799999237060546875</AltitudeMeters>
            <DistanceMeters>NAN</DistanceMeters>
          </Trackpoint>
          <Trackpoint>
            <Time>2022-07-13T17:14:09.000Z</Time>
            <Position>
              <LatitudeDegrees>43.46221120096743106842041015625</LatitudeDegrees>
              <LongitudeDegrees>-3.81378547288477420806884765625</LongitudeDegrees>
            </Position>
            <AltitudeMeters>28</AltitudeMeters>
            <DistanceMeters>NAN</DistanceMeters>
          </Trackpoint>
          <Trackpoint>
            <Time>2022-07-13T17:14:11.000Z</Time>
            <Position>
              <LatitudeDegrees>43.46226182766258716583251953125</LatitudeDegrees>
              <LongitudeDegrees>-3.81386577151715755462646484375</LongitudeDegrees>
            </Position>
            <AltitudeMeters>28.200000762939453125</AltitudeMeters>
            <DistanceMeters>NAN</DistanceMeters>
          </Trackpoint>
          <Trackpoint>
            <Time>2022-07-13T17:14:13.000Z</Time>
            <Position>
              <LatitudeDegrees>43.4622706286609172821044921875</LatitudeDegrees>
              <LongitudeDegrees>-3.813915140926837921142578125</LongitudeDegrees>
            </Position>
            <AltitudeMeters>28.200000762939453125</AltitudeMeters>
            <DistanceMeters>NAN</DistanceMeters>
          </Trackpoint>
          <Trackpoint>
            <Time>2022-07-13T17:14:16.000Z</Time>
            <Position>
              <LatitudeDegrees>43.462230898439884185791015625</LatitudeDegrees>
              <LongitudeDegrees>-3.81399351172149181365966796875</LongitudeDegrees>
            </Position>
            <AltitudeMeters>28.6000003814697265625</AltitudeMeters>
            <DistanceMeters>NAN</DistanceMeters>
          </Trackpoint>
          <Trackpoint>
            <Time>2022-07-13T17:14:17.000Z</Time>
            <Position>
              <LatitudeDegrees>43.4622364304959774017333984375</LatitudeDegrees>
              <LongitudeDegrees>-3.814023770391941070556640625</LongitudeDegrees>
            </Position>
            <AltitudeMeters>28.6000003814697265625</AltitudeMeters>
            <DistanceMeters>NAN</DistanceMeters>
          </Trackpoint>
          <Trackpoint>
            <Time>2022-07-13T17:14:20.000Z</Time>
            <Position>
              <LatitudeDegrees>43.46223835833370685577392578125</LatitudeDegrees>
              <LongitudeDegrees>-3.81406945176422595977783203125</LongitudeDegrees>
            </Position>
            <AltitudeMeters>28.799999237060546875</AltitudeMeters>
            <DistanceMeters>NAN</DistanceMeters>
          </Trackpoint>
          <Trackpoint>
            <Time>2022-07-13T17:14:21.000Z</Time>
            <Position>
              <LatitudeDegrees>43.4622345864772796630859375</LatitudeDegrees>
              <LongitudeDegrees>-3.81407263688743114471435546875</LongitudeDegrees>
            </Position>
            <AltitudeMeters>28.6000003814697265625</AltitudeMeters>
            <DistanceMeters>NAN</DistanceMeters>
          </Trackpoint>
          <Trackpoint>
            <Time>2022-07-13T17:14:22.000Z</Time>
            <Position>
              <LatitudeDegrees>43.46222913824021816253662109375</LatitudeDegrees>
              <LongitudeDegrees>-3.81407699547708034515380859375</LongitudeDegrees>
            </Position>
            <AltitudeMeters>28.6000003814697265625</AltitudeMeters>
            <DistanceMeters>NAN</DistanceMeters>
          </Trackpoint>
          <Trackpoint>
            <Time>2022-07-13T17:14:25.000Z</Time>
            <Position>
              <LatitudeDegrees>43.46222997643053531646728515625</LatitudeDegrees>
              <LongitudeDegrees>-3.81412175484001636505126953125</LongitudeDegrees>
            </Position>
            <AltitudeMeters>28.3999996185302734375</AltitudeMeters>
            <DistanceMeters>NAN</DistanceMeters>
          </Trackpoint>
          <Trackpoint>
            <Time>2022-07-13T17:14:26.000Z</Time>
            <Position>
              <LatitudeDegrees>43.462178595364093780517578125</LatitudeDegrees>
              <LongitudeDegrees>-3.8141171447932720184326171875</LongitudeDegrees>
            </Position>
            <AltitudeMeters>28.200000762939453125</AltitudeMeters>
            <DistanceMeters>NAN</DistanceMeters>
          </Trackpoint>
          <Trackpoint>
            <Time>2022-07-13T17:14:28.000Z</Time>
            <Position>
              <LatitudeDegrees>43.4620275534689426422119140625</LatitudeDegrees>
              <LongitudeDegrees>-3.81404665298759937286376953125</LongitudeDegrees>
            </Position>
            <AltitudeMeters>27.799999237060546875</AltitudeMeters>
            <DistanceMeters>NAN</DistanceMeters>
          </Trackpoint>
          <Trackpoint>
            <Time>2022-07-13T17:14:31.000Z</Time>
            <Position>
              <LatitudeDegrees>43.46188011579215526580810546875</LatitudeDegrees>
              <LongitudeDegrees>-3.814023770391941070556640625</LongitudeDegrees>
            </Position>
            <AltitudeMeters>26.799999237060546875</AltitudeMeters>
            <DistanceMeters>NAN</DistanceMeters>
          </Trackpoint>
          <Trackpoint>
            <Time>2022-07-13T17:14:32.000Z</Time>
            <Position>
              <LatitudeDegrees>43.4618582390248775482177734375</LatitudeDegrees>
              <LongitudeDegrees>-3.81402016617357730865478515625</LongitudeDegrees>
            </Position>
            <AltitudeMeters>26.3999996185302734375</AltitudeMeters>
            <DistanceMeters>NAN</DistanceMeters>
          </Trackpoint>
          <Trackpoint>
            <Time>2022-07-13T17:14:34.000Z</Time>
            <Position>
              <LatitudeDegrees>43.46183292567729949951171875</LatitudeDegrees>
              <LongitudeDegrees>-3.81406492553651332855224609375</LongitudeDegrees>
            </Position>
            <AltitudeMeters>26.200000762939453125</AltitudeMeters>
            <DistanceMeters>NAN</DistanceMeters>
          </Trackpoint>
          <Trackpoint>
            <Time>2022-07-13T17:14:35.000Z</Time>
            <Position>
              <LatitudeDegrees>43.46180937252938747406005859375</LatitudeDegrees>
              <LongitudeDegrees>-3.81407062523066997528076171875</LongitudeDegrees>
            </Position>
            <AltitudeMeters>26</AltitudeMeters>
            <DistanceMeters>NAN</DistanceMeters>
          </Trackpoint>
          <Trackpoint>
            <Time>2022-07-13T17:14:37.000Z</Time>
            <Position>
              <LatitudeDegrees>43.46174768172204494476318359375</LatitudeDegrees>
              <LongitudeDegrees>-3.81406207568943500518798828125</LongitudeDegrees>
            </Position>
            <AltitudeMeters>25.799999237060546875</AltitudeMeters>
            <DistanceMeters>NAN</DistanceMeters>
          </Trackpoint>
          <Trackpoint>
            <Time>2022-07-13T17:14:40.000Z</Time>
            <Position>
              <LatitudeDegrees>43.46168917603790760040283203125</LatitudeDegrees>
              <LongitudeDegrees>-3.81401983089745044708251953125</LongitudeDegrees>
            </Position>
            <AltitudeMeters>25.799999237060546875</AltitudeMeters>
            <DistanceMeters>NAN</DistanceMeters>
          </Trackpoint>
          <Trackpoint>
            <Time>2022-07-13T17:14:42.000Z</Time>
            <Position>
              <LatitudeDegrees>43.46163955517113208770751953125</LatitudeDegrees>
              <LongitudeDegrees>-3.8139880634844303131103515625</LongitudeDegrees>
            </Position>
            <AltitudeMeters>26</AltitudeMeters>
            <DistanceMeters>NAN</DistanceMeters>
          </Trackpoint>
          <Trackpoint>
            <Time>2022-07-13T17:14:44.000Z</Time>
            <Position>
              <LatitudeDegrees>43.4615806303918361663818359375</LatitudeDegrees>
              <LongitudeDegrees>-3.8139924220740795135498046875</LongitudeDegrees>
            </Position>
            <AltitudeMeters>26.200000762939453125</AltitudeMeters>
            <DistanceMeters>NAN</DistanceMeters>
          </Trackpoint>
          <Trackpoint>
            <Time>2022-07-13T17:14:46.000Z</Time>
            <Position>
              <LatitudeDegrees>43.4615450911223888397216796875</LatitudeDegrees>
              <LongitudeDegrees>-3.8140561245381832122802734375</LongitudeDegrees>
            </Position>
            <AltitudeMeters>26.200000762939453125</AltitudeMeters>
            <DistanceMeters>NAN</DistanceMeters>
          </Trackpoint>
          <Trackpoint>
            <Time>2022-07-13T17:14:49.000Z</Time>
            <Position>
              <LatitudeDegrees>43.46150745637714862823486328125</LatitudeDegrees>
              <LongitudeDegrees>-3.8141481578350067138671875</LongitudeDegrees>
            </Position>
            <AltitudeMeters>26.200000762939453125</AltitudeMeters>
            <DistanceMeters>NAN</DistanceMeters>
          </Trackpoint>
          <Trackpoint>
            <Time>2022-07-13T17:14:50.000Z</Time>
            <Position>
              <LatitudeDegrees>43.4615186043083667755126953125</LatitudeDegrees>
              <LongitudeDegrees>-3.81418780423700809478759765625</LongitudeDegrees>
            </Position>
            <AltitudeMeters>26.200000762939453125</AltitudeMeters>
            <DistanceMeters>NAN</DistanceMeters>
          </Trackpoint>
          <Trackpoint>
            <Time>2022-07-13T17:14:51.000Z</Time>
            <Position>
              <LatitudeDegrees>43.461525142192840576171875</LatitudeDegrees>
              <LongitudeDegrees>-3.8142318092286586761474609375</LongitudeDegrees>
            </Position>
            <AltitudeMeters>26.200000762939453125</AltitudeMeters>
            <DistanceMeters>NAN</DistanceMeters>
          </Trackpoint>
          <Trackpoint>
            <Time>2022-07-13T17:14:53.000Z</Time>
            <Position>
              <LatitudeDegrees>43.46155464649200439453125</LatitudeDegrees>
              <LongitudeDegrees>-3.81433415226638317108154296875</LongitudeDegrees>
            </Position>
            <AltitudeMeters>26.3999996185302734375</AltitudeMeters>
            <DistanceMeters>NAN</DistanceMeters>
          </Trackpoint>
          <Trackpoint>
            <Time>2022-07-13T17:14:56.000Z</Time>
            <Position>
              <LatitudeDegrees>43.4616458415985107421875</LatitudeDegrees>
              <LongitudeDegrees>-3.81448150612413883209228515625</LongitudeDegrees>
            </Position>
            <AltitudeMeters>26.6000003814697265625</AltitudeMeters>
            <DistanceMeters>NAN</DistanceMeters>
          </Trackpoint>
          <Trackpoint>
            <Time>2022-07-13T17:14:57.000Z</Time>
            <Position>
              <LatitudeDegrees>43.46164408139884471893310546875</LatitudeDegrees>
              <LongitudeDegrees>-3.81452023051679134368896484375</LongitudeDegrees>
            </Position>
            <AltitudeMeters>26.6000003814697265625</AltitudeMeters>
            <DistanceMeters>NAN</DistanceMeters>
          </Trackpoint>
          <Trackpoint>
            <Time>2022-07-13T17:14:59.000Z</Time>
            <Position>
              <LatitudeDegrees>43.4616205282509326934814453125</LatitudeDegrees>
              <LongitudeDegrees>-3.81460505537688732147216796875</LongitudeDegrees>
            </Position>
            <AltitudeMeters>26.6000003814697265625</AltitudeMeters>
            <DistanceMeters>NAN</DistanceMeters>
          </Trackpoint>
          <Trackpoint>
            <Time>2022-07-13T17:15:00.000Z</Time>
            <Position>
              <LatitudeDegrees>43.4616051055490970611572265625</LatitudeDegrees>
              <LongitudeDegrees>-3.814637325704097747802734375</LongitudeDegrees>
            </Position>
            <AltitudeMeters>26.6000003814697265625</AltitudeMeters>
            <DistanceMeters>NAN</DistanceMeters>
          </Trackpoint>
          <Trackpoint>
            <Time>2022-07-13T17:15:04.000Z</Time>
            <Position>
              <LatitudeDegrees>43.46154618076980113983154296875</LatitudeDegrees>
              <LongitudeDegrees>-3.81479582749307155609130859375</LongitudeDegrees>
            </Position>
            <AltitudeMeters>27</AltitudeMeters>
            <DistanceMeters>NAN</DistanceMeters>
          </Trackpoint>
          <Trackpoint>
            <Time>2022-07-13T17:15:10.000Z</Time>
            <Position>
              <LatitudeDegrees>43.46149320714175701141357421875</LatitudeDegrees>
              <LongitudeDegrees>-3.81503932178020477294921875</LongitudeDegrees>
            </Position>
            <AltitudeMeters>27.3999996185302734375</AltitudeMeters>
            <DistanceMeters>NAN</DistanceMeters>
          </Trackpoint>
          <Trackpoint>
            <Time>2022-07-13T17:15:15.000Z</Time>
            <Position>
              <LatitudeDegrees>43.46146571449935436248779296875</LatitudeDegrees>
              <LongitudeDegrees>-3.81523084826767444610595703125</LongitudeDegrees>
            </Position>
            <AltitudeMeters>28</AltitudeMeters>
            <DistanceMeters>NAN</DistanceMeters>
          </Trackpoint>
          <Trackpoint>
            <Time>2022-07-13T17:15:16.000Z</Time>
            <Position>
              <LatitudeDegrees>43.46144744195044040679931640625</LatitudeDegrees>
              <LongitudeDegrees>-3.81526940502226352691650390625</LongitudeDegrees>
            </Position>
            <AltitudeMeters>28.200000762939453125</AltitudeMeters>
            <DistanceMeters>NAN</DistanceMeters>
          </Trackpoint>
          <Trackpoint>
            <Time>2022-07-13T17:15:17.000Z</Time>
            <Position>
              <LatitudeDegrees>43.4614344500005245208740234375</LatitudeDegrees>
              <LongitudeDegrees>-3.8152988255023956298828125</LongitudeDegrees>
            </Position>
            <AltitudeMeters>28.200000762939453125</AltitudeMeters>
            <DistanceMeters>NAN</DistanceMeters>
          </Trackpoint>
          <Trackpoint>
            <Time>2022-07-13T17:15:19.000Z</Time>
            <Position>
              <LatitudeDegrees>43.46137334592640399932861328125</LatitudeDegrees>
              <LongitudeDegrees>-3.81535238586366176605224609375</LongitudeDegrees>
            </Position>
            <AltitudeMeters>28.3999996185302734375</AltitudeMeters>
            <DistanceMeters>NAN</DistanceMeters>
          </Trackpoint>
          <Trackpoint>
            <Time>2022-07-13T17:15:22.000Z</Time>
            <Position>
              <LatitudeDegrees>43.4613360464572906494140625</LatitudeDegrees>
              <LongitudeDegrees>-3.81547627039253711700439453125</LongitudeDegrees>
            </Position>
            <AltitudeMeters>28.6000003814697265625</AltitudeMeters>
            <DistanceMeters>NAN</DistanceMeters>
          </Trackpoint>
          <Trackpoint>
            <Time>2022-07-13T17:15:23.000Z</Time>
            <Position>
              <LatitudeDegrees>43.46127695403993129730224609375</LatitudeDegrees>
              <LongitudeDegrees>-3.8154719956219196319580078125</LongitudeDegrees>
            </Position>
            <AltitudeMeters>28.799999237060546875</AltitudeMeters>
            <DistanceMeters>NAN</DistanceMeters>
          </Trackpoint>
          <Trackpoint>
            <Time>2022-07-13T17:15:26.000Z</Time>
            <Position>
              <LatitudeDegrees>43.46125314943492412567138671875</LatitudeDegrees>
              <LongitudeDegrees>-3.81557148881256580352783203125</LongitudeDegrees>
            </Position>
            <AltitudeMeters>29</AltitudeMeters>
            <DistanceMeters>NAN</DistanceMeters>
          </Trackpoint>
          <Trackpoint>
            <Time>2022-07-13T17:15:28.000Z</Time>
            <Position>
              <LatitudeDegrees>43.4612366370856761932373046875</LatitudeDegrees>
              <LongitudeDegrees>-3.815641812980175018310546875</LongitudeDegrees>
            </Position>
            <AltitudeMeters>29.200000762939453125</AltitudeMeters>
            <DistanceMeters>NAN</DistanceMeters>
          </Trackpoint>
          <Trackpoint>
            <Time>2022-07-13T17:15:31.000Z</Time>
            <Position>
              <LatitudeDegrees>43.4611984156072139739990234375</LatitudeDegrees>
              <LongitudeDegrees>-3.81569352932274341583251953125</LongitudeDegrees>
            </Position>
            <AltitudeMeters>29.6000003814697265625</AltitudeMeters>
            <DistanceMeters>NAN</DistanceMeters>
          </Trackpoint>
          <Trackpoint>
            <Time>2022-07-13T17:15:33.000Z</Time>
            <Position>
              <LatitudeDegrees>43.46117754466831684112548828125</LatitudeDegrees>
              <LongitudeDegrees>-3.81571699865162372589111328125</LongitudeDegrees>
            </Position>
            <AltitudeMeters>29.6000003814697265625</AltitudeMeters>
            <DistanceMeters>NAN</DistanceMeters>
          </Trackpoint>
          <Trackpoint>
            <Time>2022-07-13T17:15:36.000Z</Time>
            <Position>
              <LatitudeDegrees>43.46114954911172389984130859375</LatitudeDegrees>
              <LongitudeDegrees>-3.815756142139434814453125</LongitudeDegrees>
            </Position>
            <AltitudeMeters>29.799999237060546875</AltitudeMeters>
            <DistanceMeters>NAN</DistanceMeters>
          </Trackpoint>
          <Trackpoint>
            <Time>2022-07-13T17:15:38.000Z</Time>
            <Position>
              <LatitudeDegrees>43.46114091575145721435546875</LatitudeDegrees>
              <LongitudeDegrees>-3.81578187458217144012451171875</LongitudeDegrees>
            </Position>
            <AltitudeMeters>30</AltitudeMeters>
            <DistanceMeters>NAN</DistanceMeters>
          </Trackpoint>
          <Trackpoint>
            <Time>2022-07-13T17:15:40.000Z</Time>
            <Position>
              <LatitudeDegrees>43.4611360542476177215576171875</LatitudeDegrees>
              <LongitudeDegrees>-3.8158381171524524688720703125</LongitudeDegrees>
            </Position>
            <AltitudeMeters>30</AltitudeMeters>
            <DistanceMeters>NAN</DistanceMeters>
          </Trackpoint>
          <Trackpoint>
            <Time>2022-07-13T17:15:41.000Z</Time>
            <Position>
              <LatitudeDegrees>43.4611375629901885986328125</LatitudeDegrees>
              <LongitudeDegrees>-3.81587172858417034149169921875</LongitudeDegrees>
            </Position>
            <AltitudeMeters>30</AltitudeMeters>
            <DistanceMeters>NAN</DistanceMeters>
          </Trackpoint>
          <Trackpoint>
            <Time>2022-07-13T17:15:42.000Z</Time>
            <Position>
              <LatitudeDegrees>43.4611404128372669219970703125</LatitudeDegrees>
              <LongitudeDegrees>-3.8159041665494441986083984375</LongitudeDegrees>
            </Position>
            <AltitudeMeters>30.200000762939453125</AltitudeMeters>
            <DistanceMeters>NAN</DistanceMeters>
          </Trackpoint>
          <Trackpoint>
            <Time>2022-07-13T17:15:43.000Z</Time>
            <Position>
              <LatitudeDegrees>43.4611380659043788909912109375</LatitudeDegrees>
              <LongitudeDegrees>-3.81592822261154651641845703125</LongitudeDegrees>
            </Position>
            <AltitudeMeters>30.200000762939453125</AltitudeMeters>
            <DistanceMeters>NAN</DistanceMeters>
          </Trackpoint>
          <Trackpoint>
            <Time>2022-07-13T17:15:45.000Z</Time>
            <Position>
              <LatitudeDegrees>43.4611327014863491058349609375</LatitudeDegrees>
              <LongitudeDegrees>-3.81598337553441524505615234375</LongitudeDegrees>
            </Position>
            <AltitudeMeters>30.200000762939453125</AltitudeMeters>
            <DistanceMeters>NAN</DistanceMeters>
          </Trackpoint>
          <Trackpoint>
            <Time>2022-07-13T17:15:46.000Z</Time>
            <Position>
              <LatitudeDegrees>43.46109255217015743255615234375</LatitudeDegrees>
              <LongitudeDegrees>-3.8160054199397563934326171875</LongitudeDegrees>
            </Position>
            <AltitudeMeters>30.200000762939453125</AltitudeMeters>
            <DistanceMeters>NAN</DistanceMeters>
          </Trackpoint>
          <Trackpoint>
            <Time>2022-07-13T17:15:47.000Z</Time>
            <Position>
              <LatitudeDegrees>43.4610723517835140228271484375</LatitudeDegrees>
              <LongitudeDegrees>-3.81603442132472991943359375</LongitudeDegrees>
            </Position>
            <AltitudeMeters>30.3999996185302734375</AltitudeMeters>
            <DistanceMeters>NAN</DistanceMeters>
          </Trackpoint>
          <Trackpoint>
            <Time>2022-07-13T17:15:49.000Z</Time>
            <Position>
              <LatitudeDegrees>43.4610039554536342620849609375</LatitudeDegrees>
              <LongitudeDegrees>-3.81608270108699798583984375</LongitudeDegrees>
            </Position>
            <AltitudeMeters>30.6000003814697265625</AltitudeMeters>
            <DistanceMeters>NAN</DistanceMeters>
          </Trackpoint>
          <Trackpoint>
            <Time>2022-07-13T17:15:50.000Z</Time>
            <Position>
              <LatitudeDegrees>43.46098341979086399078369140625</LatitudeDegrees>
              <LongitudeDegrees>-3.816115893423557281494140625</LongitudeDegrees>
            </Position>
            <AltitudeMeters>30.6000003814697265625</AltitudeMeters>
            <DistanceMeters>NAN</DistanceMeters>
          </Trackpoint>
          <Trackpoint>
            <Time>2022-07-13T17:15:53.000Z</Time>
            <Position>
              <LatitudeDegrees>43.46093245781958103179931640625</LatitudeDegrees>
              <LongitudeDegrees>-3.816230557858943939208984375</LongitudeDegrees>
            </Position>
            <AltitudeMeters>30.6000003814697265625</AltitudeMeters>
            <DistanceMeters>NAN</DistanceMeters>
          </Trackpoint>
          <Trackpoint>
            <Time>2022-07-13T17:15:54.000Z</Time>
            <Position>
              <LatitudeDegrees>43.46090647391974925994873046875</LatitudeDegrees>
              <LongitudeDegrees>-3.816263414919376373291015625</LongitudeDegrees>
            </Position>
            <AltitudeMeters>30.799999237060546875</AltitudeMeters>
            <DistanceMeters>NAN</DistanceMeters>
          </Trackpoint>
          <Trackpoint>
            <Time>2022-07-13T17:15:55.000Z</Time>
            <Position>
              <LatitudeDegrees>43.460881747305393218994140625</LatitudeDegrees>
              <LongitudeDegrees>-3.81629467941820621490478515625</LongitudeDegrees>
            </Position>
            <AltitudeMeters>31.200000762939453125</AltitudeMeters>
            <DistanceMeters>NAN</DistanceMeters>
          </Trackpoint>
          <Trackpoint>
            <Time>2022-07-13T17:15:57.000Z</Time>
            <Position>
              <LatitudeDegrees>43.46085660159587860107421875</LatitudeDegrees>
              <LongitudeDegrees>-3.81635637022554874420166015625</LongitudeDegrees>
            </Position>
            <AltitudeMeters>31.3999996185302734375</AltitudeMeters>
            <DistanceMeters>NAN</DistanceMeters>
          </Trackpoint>
          <Trackpoint>
            <Time>2022-07-13T17:15:58.000Z</Time>
            <Position>
              <LatitudeDegrees>43.46085182391107082366943359375</LatitudeDegrees>
              <LongitudeDegrees>-3.81637950427830219268798828125</LongitudeDegrees>
            </Position>
            <AltitudeMeters>31.3999996185302734375</AltitudeMeters>
            <DistanceMeters>NAN</DistanceMeters>
          </Trackpoint>
          <Trackpoint>
            <Time>2022-07-13T17:16:00.000Z</Time>
            <Position>
              <LatitudeDegrees>43.46083975397050380706787109375</LatitudeDegrees>
              <LongitudeDegrees>-3.81644924171268939971923828125</LongitudeDegrees>
            </Position>
            <AltitudeMeters>31.6000003814697265625</AltitudeMeters>
            <DistanceMeters>NAN</DistanceMeters>
          </Trackpoint>
          <Trackpoint>
            <Time>2022-07-13T17:16:02.000Z</Time>
            <Position>
              <LatitudeDegrees>43.46084327436983585357666015625</LatitudeDegrees>
              <LongitudeDegrees>-3.81654378958046436309814453125</LongitudeDegrees>
            </Position>
            <AltitudeMeters>31.799999237060546875</AltitudeMeters>
            <DistanceMeters>NAN</DistanceMeters>
          </Trackpoint>
          <Trackpoint>
            <Time>2022-07-13T17:16:03.000Z</Time>
            <Position>
              <LatitudeDegrees>43.46084511838853359222412109375</LatitudeDegrees>
              <LongitudeDegrees>-3.81658938713371753692626953125</LongitudeDegrees>
            </Position>
            <AltitudeMeters>31.799999237060546875</AltitudeMeters>
            <DistanceMeters>NAN</DistanceMeters>
          </Trackpoint>
          <Trackpoint>
            <Time>2022-07-13T17:16:04.000Z</Time>
            <Position>
              <LatitudeDegrees>43.46084444783627986907958984375</LatitudeDegrees>
              <LongitudeDegrees>-3.816617466509342193603515625</LongitudeDegrees>
            </Position>
            <AltitudeMeters>31.799999237060546875</AltitudeMeters>
            <DistanceMeters>NAN</DistanceMeters>
          </Trackpoint>
          <Trackpoint>
            <Time>2022-07-13T17:16:06.000Z</Time>
            <Position>
              <LatitudeDegrees>43.4608279354870319366455078125</LatitudeDegrees>
              <LongitudeDegrees>-3.8166615553200244903564453125</LongitudeDegrees>
            </Position>
            <AltitudeMeters>32</AltitudeMeters>
            <DistanceMeters>NAN</DistanceMeters>
          </Trackpoint>
          <Trackpoint>
            <Time>2022-07-13T17:16:07.000Z</Time>
            <Position>
              <LatitudeDegrees>43.46082433126866817474365234375</LatitudeDegrees>
              <LongitudeDegrees>-3.81670187227427959442138671875</LongitudeDegrees>
            </Position>
            <AltitudeMeters>32.200000762939453125</AltitudeMeters>
            <DistanceMeters>NAN</DistanceMeters>
          </Trackpoint>
          <Trackpoint>
            <Time>2022-07-13T17:16:10.000Z</Time>
            <Position>
              <LatitudeDegrees>43.46080991439521312713623046875</LatitudeDegrees>
              <LongitudeDegrees>-3.8168251700699329376220703125</LongitudeDegrees>
            </Position>
            <AltitudeMeters>32.59999847412109375</AltitudeMeters>
            <DistanceMeters>NAN</DistanceMeters>
          </Trackpoint>
          <Trackpoint>
            <Time>2022-07-13T17:16:11.000Z</Time>
            <Position>
              <LatitudeDegrees>43.4607934020459651947021484375</LatitudeDegrees>
              <LongitudeDegrees>-3.8168519921600818634033203125</LongitudeDegrees>
            </Position>
            <AltitudeMeters>32.59999847412109375</AltitudeMeters>
            <DistanceMeters>NAN</DistanceMeters>
          </Trackpoint>
          <Trackpoint>
            <Time>2022-07-13T17:16:17.000Z</Time>
            <Position>
              <LatitudeDegrees>43.4608773887157440185546875</LatitudeDegrees>
              <LongitudeDegrees>-3.81715692579746246337890625</LongitudeDegrees>
            </Position>
            <AltitudeMeters>33</AltitudeMeters>
            <DistanceMeters>NAN</DistanceMeters>
          </Trackpoint>
          <Trackpoint>
            <Time>2022-07-13T17:16:19.000Z</Time>
            <Position>
              <LatitudeDegrees>43.4608731977641582489013671875</LatitudeDegrees>
              <LongitudeDegrees>-3.81722926162183284759521484375</LongitudeDegrees>
            </Position>
            <AltitudeMeters>33.200000762939453125</AltitudeMeters>
            <DistanceMeters>NAN</DistanceMeters>
          </Trackpoint>
          <Trackpoint>
            <Time>2022-07-13T17:16:20.000Z</Time>
            <Position>
              <LatitudeDegrees>43.46086724661290645599365234375</LatitudeDegrees>
              <LongitudeDegrees>-3.81725348532199859619140625</LongitudeDegrees>
            </Position>
            <AltitudeMeters>33.40000152587890625</AltitudeMeters>
            <DistanceMeters>NAN</DistanceMeters>
          </Trackpoint>
          <Trackpoint>
            <Time>2022-07-13T17:16:23.000Z</Time>
            <Position>
              <LatitudeDegrees>43.46085936762392520904541015625</LatitudeDegrees>
              <LongitudeDegrees>-3.81732850335538387298583984375</LongitudeDegrees>
            </Position>
            <AltitudeMeters>33.59999847412109375</AltitudeMeters>
            <DistanceMeters>NAN</DistanceMeters>
          </Trackpoint>
          <Trackpoint>
            <Time>2022-07-13T17:16:29.000Z</Time>
            <Position>
              <LatitudeDegrees>43.46079717390239238739013671875</LatitudeDegrees>
              <LongitudeDegrees>-3.81745490245521068572998046875</LongitudeDegrees>
            </Position>
            <AltitudeMeters>33.799999237060546875</AltitudeMeters>
            <DistanceMeters>NAN</DistanceMeters>
          </Trackpoint>
          <Trackpoint>
            <Time>2022-07-13T17:16:34.000Z</Time>
            <Position>
              <LatitudeDegrees>43.4607126004993915557861328125</LatitudeDegrees>
              <LongitudeDegrees>-3.8176093809306621551513671875</LongitudeDegrees>
            </Position>
            <AltitudeMeters>34.40000152587890625</AltitudeMeters>
            <DistanceMeters>NAN</DistanceMeters>
          </Trackpoint>
          <Trackpoint>
            <Time>2022-07-13T17:16:40.000Z</Time>
            <Position>
              <LatitudeDegrees>43.46064847894012928009033203125</LatitudeDegrees>
              <LongitudeDegrees>-3.81779001094400882720947265625</LongitudeDegrees>
            </Position>
            <AltitudeMeters>34.799999237060546875</AltitudeMeters>
            <DistanceMeters>NAN</DistanceMeters>
          </Trackpoint>
          <Trackpoint>
            <Time>2022-07-13T17:16:44.000Z</Time>
            <Position>
              <LatitudeDegrees>43.4605892188847064971923828125</LatitudeDegrees>
              <LongitudeDegrees>-3.817917667329311370849609375</LongitudeDegrees>
            </Position>
            <AltitudeMeters>35.200000762939453125</AltitudeMeters>
            <DistanceMeters>NAN</DistanceMeters>
          </Trackpoint>
          <Trackpoint>
            <Time>2022-07-13T17:16:46.000Z</Time>
            <Position>
              <LatitudeDegrees>43.460557200014591217041015625</LatitudeDegrees>
              <LongitudeDegrees>-3.81798497401177883148193359375</LongitudeDegrees>
            </Position>
            <AltitudeMeters>35.40000152587890625</AltitudeMeters>
            <DistanceMeters>NAN</DistanceMeters>
          </Trackpoint>
          <Trackpoint>
            <Time>2022-07-13T17:16:53.000Z</Time>
            <Position>
              <LatitudeDegrees>43.46047162078320980072021484375</LatitudeDegrees>
              <LongitudeDegrees>-3.8181927613914012908935546875</LongitudeDegrees>
            </Position>
            <AltitudeMeters>36</AltitudeMeters>
            <DistanceMeters>NAN</DistanceMeters>
          </Trackpoint>
          <Trackpoint>
            <Time>2022-07-13T17:16:55.000Z</Time>
            <Position>
              <LatitudeDegrees>43.46045804210007190704345703125</LatitudeDegrees>
              <LongitudeDegrees>-3.81824464537203311920166015625</LongitudeDegrees>
            </Position>
            <AltitudeMeters>36.40000152587890625</AltitudeMeters>
            <DistanceMeters>NAN</DistanceMeters>
          </Trackpoint>
          <Trackpoint>
            <Time>2022-07-13T17:16:58.000Z</Time>
            <Position>
              <LatitudeDegrees>43.46043013036251068115234375</LatitudeDegrees>
              <LongitudeDegrees>-3.8183386065065860748291015625</LongitudeDegrees>
            </Position>
            <AltitudeMeters>36.59999847412109375</AltitudeMeters>
            <DistanceMeters>NAN</DistanceMeters>
          </Trackpoint>
          <Trackpoint>
            <Time>2022-07-13T17:17:01.000Z</Time>
            <Position>
              <LatitudeDegrees>43.460421077907085418701171875</LatitudeDegrees>
              <LongitudeDegrees>-3.81841395981609821319580078125</LongitudeDegrees>
            </Position>
            <AltitudeMeters>36.799999237060546875</AltitudeMeters>
            <DistanceMeters>NAN</DistanceMeters>
          </Trackpoint>
          <Trackpoint>
            <Time>2022-07-13T17:17:02.000Z</Time>
            <Position>
              <LatitudeDegrees>43.46040909178555011749267578125</LatitudeDegrees>
              <LongitudeDegrees>-3.81844815798103809356689453125</LongitudeDegrees>
            </Position>
            <AltitudeMeters>36.799999237060546875</AltitudeMeters>
            <DistanceMeters>NAN</DistanceMeters>
          </Trackpoint>
          <Trackpoint>
            <Time>2022-07-13T17:17:04.000Z</Time>
            <Position>
              <LatitudeDegrees>43.46039651893079280853271484375</LatitudeDegrees>
              <LongitudeDegrees>-3.818498365581035614013671875</LongitudeDegrees>
            </Position>
            <AltitudeMeters>37</AltitudeMeters>
            <DistanceMeters>NAN</DistanceMeters>
          </Trackpoint>
          <Trackpoint>
            <Time>2022-07-13T17:17:07.000Z</Time>
            <Position>
              <LatitudeDegrees>43.46041479147970676422119140625</LatitudeDegrees>
              <LongitudeDegrees>-3.81855879910290241241455078125</LongitudeDegrees>
            </Position>
            <AltitudeMeters>37.40000152587890625</AltitudeMeters>
            <DistanceMeters>NAN</DistanceMeters>
          </Trackpoint>
          <Trackpoint>
            <Time>2022-07-13T17:17:10.000Z</Time>
            <Position>
              <LatitudeDegrees>43.46043088473379611968994140625</LatitudeDegrees>
              <LongitudeDegrees>-3.8186420314013957977294921875</LongitudeDegrees>
            </Position>
            <AltitudeMeters>37.59999847412109375</AltitudeMeters>
            <DistanceMeters>NAN</DistanceMeters>
          </Trackpoint>
          <Trackpoint>
            <Time>2022-07-13T17:17:13.000Z</Time>
            <Position>
              <LatitudeDegrees>43.46044379286468029022216796875</LatitudeDegrees>
              <LongitudeDegrees>-3.8187349028885364532470703125</LongitudeDegrees>
            </Position>
            <AltitudeMeters>37.59999847412109375</AltitudeMeters>
            <DistanceMeters>NAN</DistanceMeters>
          </Trackpoint>
          <Trackpoint>
            <Time>2022-07-13T17:17:19.000Z</Time>
            <Position>
              <LatitudeDegrees>43.46037690527737140655517578125</LatitudeDegrees>
              <LongitudeDegrees>-3.8189769722521305084228515625</LongitudeDegrees>
            </Position>
            <AltitudeMeters>37.799999237060546875</AltitudeMeters>
            <DistanceMeters>NAN</DistanceMeters>
          </Trackpoint>
          <Trackpoint>
            <Time>2022-07-13T17:17:21.000Z</Time>
            <Position>
              <LatitudeDegrees>43.46039718948304653167724609375</LatitudeDegrees>
              <LongitudeDegrees>-3.8190292753279209136962890625</LongitudeDegrees>
            </Position>
            <AltitudeMeters>37.799999237060546875</AltitudeMeters>
            <DistanceMeters>NAN</DistanceMeters>
          </Trackpoint>
          <Trackpoint>
            <Time>2022-07-13T17:17:23.000Z</Time>
            <Position>
              <LatitudeDegrees>43.46040892414748668670654296875</LatitudeDegrees>
              <LongitudeDegrees>-3.8190822489559650421142578125</LongitudeDegrees>
            </Position>
            <AltitudeMeters>38</AltitudeMeters>
            <DistanceMeters>NAN</DistanceMeters>
          </Trackpoint>
          <Trackpoint>
            <Time>2022-07-13T17:17:26.000Z</Time>
            <Position>
              <LatitudeDegrees>43.46038210205733776092529296875</LatitudeDegrees>
              <LongitudeDegrees>-3.81917394697666168212890625</LongitudeDegrees>
            </Position>
            <AltitudeMeters>38.40000152587890625</AltitudeMeters>
            <DistanceMeters>NAN</DistanceMeters>
          </Trackpoint>
          <Trackpoint>
            <Time>2022-07-13T17:17:27.000Z</Time>
            <Position>
              <LatitudeDegrees>43.4603779949247837066650390625</LatitudeDegrees>
              <LongitudeDegrees>-3.81920286454260349273681640625</LongitudeDegrees>
            </Position>
            <AltitudeMeters>38.40000152587890625</AltitudeMeters>
            <DistanceMeters>NAN</DistanceMeters>
          </Trackpoint>
          <Trackpoint>
            <Time>2022-07-13T17:17:29.000Z</Time>
            <Position>
              <LatitudeDegrees>43.4603528492152690887451171875</LatitudeDegrees>
              <LongitudeDegrees>-3.81925047375261783599853515625</LongitudeDegrees>
            </Position>
            <AltitudeMeters>38.40000152587890625</AltitudeMeters>
            <DistanceMeters>NAN</DistanceMeters>
          </Trackpoint>
          <Trackpoint>
            <Time>2022-07-13T17:17:30.000Z</Time>
            <Position>
              <LatitudeDegrees>43.46033533103764057159423828125</LatitudeDegrees>
              <LongitudeDegrees>-3.81927662529051303863525390625</LongitudeDegrees>
            </Position>
            <AltitudeMeters>38.59999847412109375</AltitudeMeters>
            <DistanceMeters>NAN</DistanceMeters>
          </Trackpoint>
          <Trackpoint>
            <Time>2022-07-13T17:17:32.000Z</Time>
            <Position>
              <LatitudeDegrees>43.4603186510503292083740234375</LatitudeDegrees>
              <LongitudeDegrees>-3.8193179480731487274169921875</LongitudeDegrees>
            </Position>
            <AltitudeMeters>38.59999847412109375</AltitudeMeters>
            <DistanceMeters>NAN</DistanceMeters>
          </Trackpoint>
          <Trackpoint>
            <Time>2022-07-13T17:17:34.000Z</Time>
            <Position>
              <LatitudeDegrees>43.4603344090282917022705078125</LatitudeDegrees>
              <LongitudeDegrees>-3.81935306824743747711181640625</LongitudeDegrees>
            </Position>
            <AltitudeMeters>38.799999237060546875</AltitudeMeters>
            <DistanceMeters>NAN</DistanceMeters>
          </Trackpoint>
          <Trackpoint>
            <Time>2022-07-13T17:17:40.000Z</Time>
            <Position>
              <LatitudeDegrees>43.46031370572745800018310546875</LatitudeDegrees>
              <LongitudeDegrees>-3.81949447095394134521484375</LongitudeDegrees>
            </Position>
            <AltitudeMeters>39.200000762939453125</AltitudeMeters>
            <DistanceMeters>NAN</DistanceMeters>
          </Trackpoint>
          <Trackpoint>
            <Time>2022-07-13T17:17:42.000Z</Time>
            <Position>
              <LatitudeDegrees>43.4603132866322994232177734375</LatitudeDegrees>
              <LongitudeDegrees>-3.819543421268463134765625</LongitudeDegrees>
            </Position>
            <AltitudeMeters>39.200000762939453125</AltitudeMeters>
            <DistanceMeters>NAN</DistanceMeters>
          </Trackpoint>
          <Trackpoint>
            <Time>2022-07-13T17:17:44.000Z</Time>
            <Position>
              <LatitudeDegrees>43.4603367559611797332763671875</LatitudeDegrees>
              <LongitudeDegrees>-3.81956932134926319122314453125</LongitudeDegrees>
            </Position>
            <AltitudeMeters>39.40000152587890625</AltitudeMeters>
            <DistanceMeters>NAN</DistanceMeters>
          </Trackpoint>
          <Trackpoint>
            <Time>2022-07-13T17:17:46.000Z</Time>
            <Position>
              <LatitudeDegrees>43.46035410650074481964111328125</LatitudeDegrees>
              <LongitudeDegrees>-3.81958256475627422332763671875</LongitudeDegrees>
            </Position>
            <AltitudeMeters>39.59999847412109375</AltitudeMeters>
            <DistanceMeters>NAN</DistanceMeters>
          </Trackpoint>
          <Trackpoint>
            <Time>2022-07-13T17:17:48.000Z</Time>
            <Position>
              <LatitudeDegrees>43.46035410650074481964111328125</LatitudeDegrees>
              <LongitudeDegrees>-3.81958256475627422332763671875</LongitudeDegrees>
            </Position>
            <AltitudeMeters>39.59999847412109375</AltitudeMeters>
            <DistanceMeters>NAN</DistanceMeters>
          </Trackpoint>
          <Trackpoint>
            <Time>2022-07-13T17:17:52.000Z</Time>
            <Position>
              <LatitudeDegrees>43.46043658442795276641845703125</LatitudeDegrees>
              <LongitudeDegrees>-3.8197786174714565277099609375</LongitudeDegrees>
            </Position>
            <AltitudeMeters>39.799999237060546875</AltitudeMeters>
            <DistanceMeters>NAN</DistanceMeters>
          </Trackpoint>
          <Trackpoint>
            <Time>2022-07-13T17:17:54.000Z</Time>
            <Position>
              <LatitudeDegrees>43.4604356624186038970947265625</LatitudeDegrees>
              <LongitudeDegrees>-3.81982614286243915557861328125</LongitudeDegrees>
            </Position>
            <AltitudeMeters>39.799999237060546875</AltitudeMeters>
            <DistanceMeters>NAN</DistanceMeters>
          </Trackpoint>
          <Trackpoint>
            <Time>2022-07-13T17:17:55.000Z</Time>
            <Position>
              <LatitudeDegrees>43.46042568795382976531982421875</LatitudeDegrees>
              <LongitudeDegrees>-3.8198339380323886871337890625</LongitudeDegrees>
            </Position>
            <AltitudeMeters>39.799999237060546875</AltitudeMeters>
            <DistanceMeters>NAN</DistanceMeters>
          </Trackpoint>
          <Trackpoint>
            <Time>2022-07-13T17:17:58.000Z</Time>
            <Position>
              <LatitudeDegrees>43.460409678518772125244140625</LatitudeDegrees>
              <LongitudeDegrees>-3.81987459026277065277099609375</LongitudeDegrees>
            </Position>
            <AltitudeMeters>40</AltitudeMeters>
            <DistanceMeters>NAN</DistanceMeters>
          </Trackpoint>
          <Trackpoint>
            <Time>2022-07-13T17:18:00.000Z</Time>
            <Position>
              <LatitudeDegrees>43.46039685420691967010498046875</LatitudeDegrees>
              <LongitudeDegrees>-3.81995438598096370697021484375</LongitudeDegrees>
            </Position>
            <AltitudeMeters>40.200000762939453125</AltitudeMeters>
            <DistanceMeters>NAN</DistanceMeters>
          </Trackpoint>
          <Trackpoint>
            <Time>2022-07-13T17:18:01.000Z</Time>
            <Position>
              <LatitudeDegrees>43.46038796938955783843994140625</LatitudeDegrees>
              <LongitudeDegrees>-3.81998338736593723297119140625</LongitudeDegrees>
            </Position>
            <AltitudeMeters>40.40000152587890625</AltitudeMeters>
            <DistanceMeters>NAN</DistanceMeters>
          </Trackpoint>
          <Trackpoint>
            <Time>2022-07-13T17:18:05.000Z</Time>
            <Position>
              <LatitudeDegrees>43.460375480353832244873046875</LatitudeDegrees>
              <LongitudeDegrees>-3.82002999074757099151611328125</LongitudeDegrees>
            </Position>
            <AltitudeMeters>40.40000152587890625</AltitudeMeters>
            <DistanceMeters>NAN</DistanceMeters>
          </Trackpoint>
          <Trackpoint>
            <Time>2022-07-13T17:18:06.000Z</Time>
            <Position>
              <LatitudeDegrees>43.4603853709995746612548828125</LatitudeDegrees>
              <LongitudeDegrees>-3.82003317587077617645263671875</LongitudeDegrees>
            </Position>
            <AltitudeMeters>40.40000152587890625</AltitudeMeters>
            <DistanceMeters>NAN</DistanceMeters>
          </Trackpoint>
          <Trackpoint>
            <Time>2022-07-13T17:18:12.000Z</Time>
            <Position>
              <LatitudeDegrees>43.4604416973888874053955078125</LatitudeDegrees>
              <LongitudeDegrees>-3.82007508538663387298583984375</LongitudeDegrees>
            </Position>
            <AltitudeMeters>40.200000762939453125</AltitudeMeters>
            <DistanceMeters>NAN</DistanceMeters>
          </Trackpoint>
          <Trackpoint>
            <Time>2022-07-13T17:18:17.000Z</Time>
            <Position>
              <LatitudeDegrees>43.46047463826835155487060546875</LatitudeDegrees>
              <LongitudeDegrees>-3.8200857304036617279052734375</LongitudeDegrees>
            </Position>
            <AltitudeMeters>40.200000762939453125</AltitudeMeters>
            <DistanceMeters>NAN</DistanceMeters>
          </Trackpoint>
          <Trackpoint>
            <Time>2022-07-13T17:18:22.000Z</Time>
            <Position>
              <LatitudeDegrees>43.46048385836184024810791015625</LatitudeDegrees>
              <LongitudeDegrees>-3.8200545497238636016845703125</LongitudeDegrees>
            </Position>
            <AltitudeMeters>40</AltitudeMeters>
            <DistanceMeters>NAN</DistanceMeters>
          </Trackpoint>
          <Trackpoint>
            <Time>2022-07-13T17:18:29.000Z</Time>
            <Position>
              <LatitudeDegrees>43.46043876372277736663818359375</LatitudeDegrees>
              <LongitudeDegrees>-3.82003066129982471466064453125</LongitudeDegrees>
            </Position>
            <AltitudeMeters>39.799999237060546875</AltitudeMeters>
            <DistanceMeters>NAN</DistanceMeters>
          </Trackpoint>
          <Trackpoint>
            <Time>2022-07-13T17:18:30.000Z</Time>
            <Position>
              <LatitudeDegrees>43.46043876372277736663818359375</LatitudeDegrees>
              <LongitudeDegrees>-3.82003066129982471466064453125</LongitudeDegrees>
            </Position>
            <AltitudeMeters>39.799999237060546875</AltitudeMeters>
            <DistanceMeters>NAN</DistanceMeters>
          </Trackpoint>
          <Trackpoint>
            <Time>2022-07-13T17:18:31.000Z</Time>
            <Position>
              <LatitudeDegrees>43.46043876372277736663818359375</LatitudeDegrees>
              <LongitudeDegrees>-3.82003066129982471466064453125</LongitudeDegrees>
            </Position>
            <AltitudeMeters>40</AltitudeMeters>
            <DistanceMeters>NAN</DistanceMeters>
          </Trackpoint>
          <Trackpoint>
            <Time>2022-07-13T17:18:46.000Z</Time>
            <Position>
              <LatitudeDegrees>43.46042686142027378082275390625</LatitudeDegrees>
              <LongitudeDegrees>-3.82006955333054065704345703125</LongitudeDegrees>
            </Position>
            <AltitudeMeters>39.799999237060546875</AltitudeMeters>
            <DistanceMeters>NAN</DistanceMeters>
          </Trackpoint>
          <Trackpoint>
            <Time>2022-07-13T17:18:49.000Z</Time>
            <Position>
              <LatitudeDegrees>43.46033382229506969451904296875</LatitudeDegrees>
              <LongitudeDegrees>-3.82012319751083850860595703125</LongitudeDegrees>
            </Position>
            <AltitudeMeters>40</AltitudeMeters>
            <DistanceMeters>NAN</DistanceMeters>
          </Trackpoint>
          <Trackpoint>
            <Time>2022-07-13T17:21:40.000Z</Time>
            <Position>
              <LatitudeDegrees>43.4610750339925289154052734375</LatitudeDegrees>
              <LongitudeDegrees>-3.82010408677160739898681640625</LongitudeDegrees>
            </Position>
            <AltitudeMeters>42</AltitudeMeters>
            <DistanceMeters>NAN</DistanceMeters>
          </Trackpoint>
          <Trackpoint>
            <Time>2022-07-13T17:21:44.000Z</Time>
            <Position>
              <LatitudeDegrees>43.460827432572841644287109375</LatitudeDegrees>
              <LongitudeDegrees>-3.82017767988145351409912109375</LongitudeDegrees>
            </Position>
            <AltitudeMeters>42</AltitudeMeters>
            <DistanceMeters>NAN</DistanceMeters>
          </Trackpoint>
          <Trackpoint>
            <Time>2022-07-13T17:21:47.000Z</Time>
            <Position>
              <LatitudeDegrees>43.46072576008737087249755859375</LatitudeDegrees>
              <LongitudeDegrees>-3.8201715610921382904052734375</LongitudeDegrees>
            </Position>
            <AltitudeMeters>42</AltitudeMeters>
            <DistanceMeters>NAN</DistanceMeters>
          </Trackpoint>
          <Trackpoint>
            <Time>2022-07-13T17:21:49.000Z</Time>
            <Position>
              <LatitudeDegrees>43.46066440455615520477294921875</LatitudeDegrees>
              <LongitudeDegrees>-3.8201702199876308441162109375</LongitudeDegrees>
            </Position>
            <AltitudeMeters>42.40000152587890625</AltitudeMeters>
            <DistanceMeters>NAN</DistanceMeters>
          </Trackpoint>
          <Trackpoint>
            <Time>2022-07-13T17:21:50.000Z</Time>
            <Position>
              <LatitudeDegrees>43.460637666285037994384765625</LatitudeDegrees>
              <LongitudeDegrees>-3.82017441093921661376953125</LongitudeDegrees>
            </Position>
            <AltitudeMeters>42.59999847412109375</AltitudeMeters>
            <DistanceMeters>NAN</DistanceMeters>
          </Trackpoint>
          <Trackpoint>
            <Time>2022-07-13T17:22:06.000Z</Time>
            <Position>
              <LatitudeDegrees>43.46040322445333003997802734375</LatitudeDegrees>
              <LongitudeDegrees>-3.82026082836091518402099609375</LongitudeDegrees>
            </Position>
            <AltitudeMeters>43</AltitudeMeters>
            <DistanceMeters>NAN</DistanceMeters>
          </Trackpoint>
          <Trackpoint>
            <Time>2022-07-13T17:22:08.000Z</Time>
            <Position>
              <LatitudeDegrees>43.46037556417286396026611328125</LatitudeDegrees>
              <LongitudeDegrees>-3.82027566432952880859375</LongitudeDegrees>
            </Position>
            <AltitudeMeters>43</AltitudeMeters>
            <DistanceMeters>NAN</DistanceMeters>
          </Trackpoint>
          <Trackpoint>
            <Time>2022-07-13T17:22:09.000Z</Time>
            <Position>
              <LatitudeDegrees>43.46033382229506969451904296875</LatitudeDegrees>
              <LongitudeDegrees>-3.820262253284454345703125</LongitudeDegrees>
            </Position>
            <AltitudeMeters>43</AltitudeMeters>
            <DistanceMeters>NAN</DistanceMeters>
          </Trackpoint>
          <Trackpoint>
            <Time>2022-07-13T17:22:11.000Z</Time>
            <Position>
              <LatitudeDegrees>43.4602160565555095672607421875</LatitudeDegrees>
              <LongitudeDegrees>-3.82024523802101612091064453125</LongitudeDegrees>
            </Position>
            <AltitudeMeters>43</AltitudeMeters>
            <DistanceMeters>NAN</DistanceMeters>
          </Trackpoint>
          <Trackpoint>
            <Time>2022-07-13T17:22:13.000Z</Time>
            <Position>
              <LatitudeDegrees>43.460150174796581268310546875</LatitudeDegrees>
              <LongitudeDegrees>-3.82022797130048274993896484375</LongitudeDegrees>
            </Position>
            <AltitudeMeters>43.200000762939453125</AltitudeMeters>
            <DistanceMeters>NAN</DistanceMeters>
          </Trackpoint>
          <Trackpoint>
            <Time>2022-07-13T17:22:14.000Z</Time>
            <Position>
              <LatitudeDegrees>43.46016853116452693939208984375</LatitudeDegrees>
              <LongitudeDegrees>-3.8202153146266937255859375</LongitudeDegrees>
            </Position>
            <AltitudeMeters>43.200000762939453125</AltitudeMeters>
            <DistanceMeters>NAN</DistanceMeters>
          </Trackpoint>
          <Trackpoint>
            <Time>2022-07-13T17:22:16.000Z</Time>
            <Position>
              <LatitudeDegrees>43.4603463113307952880859375</LatitudeDegrees>
              <LongitudeDegrees>-3.82028597407042980194091796875</LongitudeDegrees>
            </Position>
            <AltitudeMeters>43.200000762939453125</AltitudeMeters>
            <DistanceMeters>NAN</DistanceMeters>
          </Trackpoint>
          <Trackpoint>
            <Time>2022-07-13T17:22:17.000Z</Time>
            <Position>
              <LatitudeDegrees>43.46033231355249881744384765625</LatitudeDegrees>
              <LongitudeDegrees>-3.82033995352685451507568359375</LongitudeDegrees>
            </Position>
            <AltitudeMeters>43.200000762939453125</AltitudeMeters>
            <DistanceMeters>NAN</DistanceMeters>
          </Trackpoint>
          <Trackpoint>
            <Time>2022-07-13T17:22:18.000Z</Time>
            <Position>
              <LatitudeDegrees>43.46038662828505039215087890625</LatitudeDegrees>
              <LongitudeDegrees>-3.82038370706140995025634765625</LongitudeDegrees>
            </Position>
            <AltitudeMeters>43.200000762939453125</AltitudeMeters>
            <DistanceMeters>NAN</DistanceMeters>
          </Trackpoint>
          <Trackpoint>
            <Time>2022-07-13T17:22:19.000Z</Time>
            <Position>
              <LatitudeDegrees>43.46037472598254680633544921875</LatitudeDegrees>
              <LongitudeDegrees>-3.82040164433419704437255859375</LongitudeDegrees>
            </Position>
            <AltitudeMeters>43.200000762939453125</AltitudeMeters>
            <DistanceMeters>NAN</DistanceMeters>
          </Trackpoint>
          <Trackpoint>
            <Time>2022-07-13T17:22:23.000Z</Time>
            <Position>
              <LatitudeDegrees>43.46031345427036285400390625</LatitudeDegrees>
              <LongitudeDegrees>-3.82048152387142181396484375</LongitudeDegrees>
            </Position>
            <AltitudeMeters>43.200000762939453125</AltitudeMeters>
            <DistanceMeters>NAN</DistanceMeters>
          </Trackpoint>
          <Trackpoint>
            <Time>2022-07-13T17:22:25.000Z</Time>
            <Position>
              <LatitudeDegrees>43.46025704406201839447021484375</LatitudeDegrees>
              <LongitudeDegrees>-3.820523433387279510498046875</LongitudeDegrees>
            </Position>
            <AltitudeMeters>43.200000762939453125</AltitudeMeters>
            <DistanceMeters>NAN</DistanceMeters>
          </Trackpoint>
          <Trackpoint>
            <Time>2022-07-13T17:22:27.000Z</Time>
            <Position>
              <LatitudeDegrees>43.460231982171535491943359375</LatitudeDegrees>
              <LongitudeDegrees>-3.8205591402947902679443359375</LongitudeDegrees>
            </Position>
            <AltitudeMeters>43.40000152587890625</AltitudeMeters>
            <DistanceMeters>NAN</DistanceMeters>
          </Trackpoint>
          <Trackpoint>
            <Time>2022-07-13T17:22:28.000Z</Time>
            <Position>
              <LatitudeDegrees>43.46021010540425777435302734375</LatitudeDegrees>
              <LongitudeDegrees>-3.82057582028210163116455078125</LongitudeDegrees>
            </Position>
            <AltitudeMeters>43.59999847412109375</AltitudeMeters>
            <DistanceMeters>NAN</DistanceMeters>
          </Trackpoint>
          <Trackpoint>
            <Time>2022-07-13T17:22:30.000Z</Time>
            <Position>
              <LatitudeDegrees>43.46013064496219158172607421875</LatitudeDegrees>
              <LongitudeDegrees>-3.82059878669679164886474609375</LongitudeDegrees>
            </Position>
            <AltitudeMeters>43.59999847412109375</AltitudeMeters>
            <DistanceMeters>NAN</DistanceMeters>
          </Trackpoint>
          <Trackpoint>
            <Time>2022-07-13T17:22:31.000Z</Time>
            <Position>
              <LatitudeDegrees>43.4600963629782199859619140625</LatitudeDegrees>
              <LongitudeDegrees>-3.82060892879962921142578125</LongitudeDegrees>
            </Position>
            <AltitudeMeters>43.59999847412109375</AltitudeMeters>
            <DistanceMeters>NAN</DistanceMeters>
          </Trackpoint>
          <Trackpoint>
            <Time>2022-07-13T17:22:34.000Z</Time>
            <Position>
              <LatitudeDegrees>43.46007515676319599151611328125</LatitudeDegrees>
              <LongitudeDegrees>-3.8206077553331851959228515625</LongitudeDegrees>
            </Position>
            <AltitudeMeters>43.59999847412109375</AltitudeMeters>
            <DistanceMeters>NAN</DistanceMeters>
          </Trackpoint>
          <Trackpoint>
            <Time>2022-07-13T17:22:37.000Z</Time>
            <Position>
              <LatitudeDegrees>43.46004079096019268035888671875</LatitudeDegrees>
              <LongitudeDegrees>-3.82058185525238513946533203125</LongitudeDegrees>
            </Position>
            <AltitudeMeters>43.59999847412109375</AltitudeMeters>
            <DistanceMeters>NAN</DistanceMeters>
          </Trackpoint>
          <Trackpoint>
            <Time>2022-07-13T17:22:40.000Z</Time>
            <Position>
              <LatitudeDegrees>43.4600068442523479461669921875</LatitudeDegrees>
              <LongitudeDegrees>-3.820567689836025238037109375</LongitudeDegrees>
            </Position>
            <AltitudeMeters>43.59999847412109375</AltitudeMeters>
            <DistanceMeters>NAN</DistanceMeters>
          </Trackpoint>
          <Trackpoint>
            <Time>2022-07-13T17:22:43.000Z</Time>
            <Position>
              <LatitudeDegrees>43.46004514954984188079833984375</LatitudeDegrees>
              <LongitudeDegrees>-3.82048579864203929901123046875</LongitudeDegrees>
            </Position>
            <AltitudeMeters>43.59999847412109375</AltitudeMeters>
            <DistanceMeters>NAN</DistanceMeters>
          </Trackpoint>
          <Trackpoint>
            <Time>2022-07-13T17:22:47.000Z</Time>
            <Position>
              <LatitudeDegrees>43.46008102409541606903076171875</LatitudeDegrees>
              <LongitudeDegrees>-3.8204835355281829833984375</LongitudeDegrees>
            </Position>
            <AltitudeMeters>43.59999847412109375</AltitudeMeters>
            <DistanceMeters>NAN</DistanceMeters>
          </Trackpoint>
          <Trackpoint>
            <Time>2022-07-13T17:22:49.000Z</Time>
            <Position>
              <LatitudeDegrees>43.46004280261695384979248046875</LatitudeDegrees>
              <LongitudeDegrees>-3.82050574757158756256103515625</LongitudeDegrees>
            </Position>
            <AltitudeMeters>43.59999847412109375</AltitudeMeters>
            <DistanceMeters>NAN</DistanceMeters>
          </Trackpoint>
          <Trackpoint>
            <Time>2022-07-13T17:22:51.000Z</Time>
            <Position>
              <LatitudeDegrees>43.460010699927806854248046875</LatitudeDegrees>
              <LongitudeDegrees>-3.820514380931854248046875</LongitudeDegrees>
            </Position>
            <AltitudeMeters>43.59999847412109375</AltitudeMeters>
            <DistanceMeters>NAN</DistanceMeters>
          </Trackpoint>
          <Trackpoint>
            <Time>2022-07-13T17:22:53.000Z</Time>
            <Position>
              <LatitudeDegrees>43.45997356809675693511962890625</LatitudeDegrees>
              <LongitudeDegrees>-3.82053944282233715057373046875</LongitudeDegrees>
            </Position>
            <AltitudeMeters>43.799999237060546875</AltitudeMeters>
            <DistanceMeters>NAN</DistanceMeters>
          </Trackpoint>
          <Trackpoint>
            <Time>2022-07-13T17:22:57.000Z</Time>
            <Position>
              <LatitudeDegrees>43.4599002264440059661865234375</LatitudeDegrees>
              <LongitudeDegrees>-3.82064756937325000762939453125</LongitudeDegrees>
            </Position>
            <AltitudeMeters>44</AltitudeMeters>
            <DistanceMeters>NAN</DistanceMeters>
          </Trackpoint>
          <Trackpoint>
            <Time>2022-07-13T17:22:58.000Z</Time>
            <Position>
              <LatitudeDegrees>43.45988430082798004150390625</LatitudeDegrees>
              <LongitudeDegrees>-3.820673637092113494873046875</LongitudeDegrees>
            </Position>
            <AltitudeMeters>44</AltitudeMeters>
            <DistanceMeters>NAN</DistanceMeters>
          </Trackpoint>
          <Trackpoint>
            <Time>2022-07-13T17:23:00.000Z</Time>
            <Position>
              <LatitudeDegrees>43.4598412178456783294677734375</LatitudeDegrees>
              <LongitudeDegrees>-3.82072015665471553802490234375</LongitudeDegrees>
            </Position>
            <AltitudeMeters>44</AltitudeMeters>
            <DistanceMeters>NAN</DistanceMeters>
          </Trackpoint>
          <Trackpoint>
            <Time>2022-07-13T17:23:03.000Z</Time>
            <Position>
              <LatitudeDegrees>43.45980458892881870269775390625</LatitudeDegrees>
              <LongitudeDegrees>-3.82075779139995574951171875</LongitudeDegrees>
            </Position>
            <AltitudeMeters>44</AltitudeMeters>
            <DistanceMeters>NAN</DistanceMeters>
          </Trackpoint>
          <Trackpoint>
            <Time>2022-07-13T17:23:05.000Z</Time>
            <Position>
              <LatitudeDegrees>43.459803499281406402587890625</LatitudeDegrees>
              <LongitudeDegrees>-3.82078235037624835968017578125</LongitudeDegrees>
            </Position>
            <AltitudeMeters>44</AltitudeMeters>
            <DistanceMeters>NAN</DistanceMeters>
          </Trackpoint>
          <Trackpoint>
            <Time>2022-07-13T17:23:07.000Z</Time>
            <Position>
              <LatitudeDegrees>43.459861837327480316162109375</LatitudeDegrees>
              <LongitudeDegrees>-3.820811770856380462646484375</LongitudeDegrees>
            </Position>
            <AltitudeMeters>44</AltitudeMeters>
            <DistanceMeters>NAN</DistanceMeters>
          </Trackpoint>
          <Trackpoint>
            <Time>2022-07-13T17:23:12.000Z</Time>
            <Position>
              <LatitudeDegrees>43.4597594104707241058349609375</LatitudeDegrees>
              <LongitudeDegrees>-3.82090237922966480255126953125</LongitudeDegrees>
            </Position>
            <AltitudeMeters>44.200000762939453125</AltitudeMeters>
            <DistanceMeters>NAN</DistanceMeters>
          </Trackpoint>
          <Trackpoint>
            <Time>2022-07-13T17:23:17.000Z</Time>
            <Position>
              <LatitudeDegrees>43.459600321948528289794921875</LatitudeDegrees>
              <LongitudeDegrees>-3.8210362382233142852783203125</LongitudeDegrees>
            </Position>
            <AltitudeMeters>44.40000152587890625</AltitudeMeters>
            <DistanceMeters>NAN</DistanceMeters>
          </Trackpoint>
          <Trackpoint>
            <Time>2022-07-13T17:23:19.000Z</Time>
            <Position>
              <LatitudeDegrees>43.4595558978617191314697265625</LatitudeDegrees>
              <LongitudeDegrees>-3.82106448523700237274169921875</LongitudeDegrees>
            </Position>
            <AltitudeMeters>44.40000152587890625</AltitudeMeters>
            <DistanceMeters>NAN</DistanceMeters>
          </Trackpoint>
          <Trackpoint>
            <Time>2022-07-13T17:23:21.000Z</Time>
            <Position>
              <LatitudeDegrees>43.459577858448028564453125</LatitudeDegrees>
              <LongitudeDegrees>-3.82097664289176464080810546875</LongitudeDegrees>
            </Position>
            <AltitudeMeters>44.40000152587890625</AltitudeMeters>
            <DistanceMeters>NAN</DistanceMeters>
          </Trackpoint>
          <Trackpoint>
            <Time>2022-07-13T17:23:25.000Z</Time>
            <Position>
              <LatitudeDegrees>43.4595951251685619354248046875</LatitudeDegrees>
              <LongitudeDegrees>-3.8209125213325023651123046875</LongitudeDegrees>
            </Position>
            <AltitudeMeters>44.59999847412109375</AltitudeMeters>
            <DistanceMeters>NAN</DistanceMeters>
          </Trackpoint>
          <Trackpoint>
            <Time>2022-07-13T17:23:26.000Z</Time>
            <Position>
              <LatitudeDegrees>43.45951843075454235076904296875</LatitudeDegrees>
              <LongitudeDegrees>-3.82094680331647396087646484375</LongitudeDegrees>
            </Position>
            <AltitudeMeters>44.59999847412109375</AltitudeMeters>
            <DistanceMeters>NAN</DistanceMeters>
          </Trackpoint>
          <Trackpoint>
            <Time>2022-07-13T17:23:28.000Z</Time>
            <Position>
              <LatitudeDegrees>43.45952463336288928985595703125</LatitudeDegrees>
              <LongitudeDegrees>-3.8209584541618824005126953125</LongitudeDegrees>
            </Position>
            <AltitudeMeters>44.59999847412109375</AltitudeMeters>
            <DistanceMeters>NAN</DistanceMeters>
          </Trackpoint>
          <Trackpoint>
            <Time>2022-07-13T17:23:30.000Z</Time>
            <Position>
              <LatitudeDegrees>43.45955665223300457000732421875</LatitudeDegrees>
              <LongitudeDegrees>-3.82095317356288433074951171875</LongitudeDegrees>
            </Position>
            <AltitudeMeters>44.59999847412109375</AltitudeMeters>
            <DistanceMeters>NAN</DistanceMeters>
          </Trackpoint>
          <Trackpoint>
            <Time>2022-07-13T17:23:35.000Z</Time>
            <Position>
              <LatitudeDegrees>43.45971205271780490875244140625</LatitudeDegrees>
              <LongitudeDegrees>-3.82092769257724285125732421875</LongitudeDegrees>
            </Position>
            <AltitudeMeters>45</AltitudeMeters>
            <DistanceMeters>NAN</DistanceMeters>
          </Trackpoint>
          <Trackpoint>
            <Time>2022-07-13T17:23:36.000Z</Time>
            <Position>
              <LatitudeDegrees>43.45975966192781925201416015625</LatitudeDegrees>
              <LongitudeDegrees>-3.8209296204149723052978515625</LongitudeDegrees>
            </Position>
            <AltitudeMeters>45</AltitudeMeters>
            <DistanceMeters>NAN</DistanceMeters>
          </Trackpoint>
          <Trackpoint>
            <Time>2022-07-13T17:23:41.000Z</Time>
            <Position>
              <LatitudeDegrees>43.4598358534276485443115234375</LatitudeDegrees>
              <LongitudeDegrees>-3.8209621421992778778076171875</LongitudeDegrees>
            </Position>
            <AltitudeMeters>44.799999237060546875</AltitudeMeters>
            <DistanceMeters>NAN</DistanceMeters>
          </Trackpoint>
          <Trackpoint>
            <Time>2022-07-13T17:23:43.000Z</Time>
            <Position>
              <LatitudeDegrees>43.4598529525101184844970703125</LatitudeDegrees>
              <LongitudeDegrees>-3.8209691829979419708251953125</LongitudeDegrees>
            </Position>
            <AltitudeMeters>44.799999237060546875</AltitudeMeters>
            <DistanceMeters>NAN</DistanceMeters>
          </Trackpoint>
          <Trackpoint>
            <Time>2022-07-13T17:24:03.000Z</Time>
            <Position>
              <LatitudeDegrees>43.45992797054350376129150390625</LatitudeDegrees>
              <LongitudeDegrees>-3.82096004672348499298095703125</LongitudeDegrees>
            </Position>
            <AltitudeMeters>44.799999237060546875</AltitudeMeters>
            <DistanceMeters>NAN</DistanceMeters>
          </Trackpoint>
          <Trackpoint>
            <Time>2022-07-13T17:24:04.000Z</Time>
            <Position>
              <LatitudeDegrees>43.459921516478061676025390625</LatitudeDegrees>
              <LongitudeDegrees>-3.82098284550011157989501953125</LongitudeDegrees>
            </Position>
            <AltitudeMeters>44.799999237060546875</AltitudeMeters>
            <DistanceMeters>NAN</DistanceMeters>
          </Trackpoint>
          <Trackpoint>
            <Time>2022-07-13T17:24:05.000Z</Time>
            <Position>
              <LatitudeDegrees>43.4599223546683788299560546875</LatitudeDegrees>
              <LongitudeDegrees>-3.821011595427989959716796875</LongitudeDegrees>
            </Position>
            <AltitudeMeters>44.799999237060546875</AltitudeMeters>
            <DistanceMeters>NAN</DistanceMeters>
          </Trackpoint>
          <Trackpoint>
            <Time>2022-07-13T17:24:06.000Z</Time>
            <Position>
              <LatitudeDegrees>43.459922187030315399169921875</LatitudeDegrees>
              <LongitudeDegrees>-3.82104420103132724761962890625</LongitudeDegrees>
            </Position>
            <AltitudeMeters>44.799999237060546875</AltitudeMeters>
            <DistanceMeters>NAN</DistanceMeters>
          </Trackpoint>
          <Trackpoint>
            <Time>2022-07-13T17:24:10.000Z</Time>
            <Position>
              <LatitudeDegrees>43.45991455949842929840087890625</LatitudeDegrees>
              <LongitudeDegrees>-3.82122583687305450439453125</LongitudeDegrees>
            </Position>
            <AltitudeMeters>45</AltitudeMeters>
            <DistanceMeters>NAN</DistanceMeters>
          </Trackpoint>
          <Trackpoint>
            <Time>2022-07-13T17:24:16.000Z</Time>
            <Position>
              <LatitudeDegrees>43.45988622866570949554443359375</LatitudeDegrees>
              <LongitudeDegrees>-3.821361958980560302734375</LongitudeDegrees>
            </Position>
            <AltitudeMeters>45.59999847412109375</AltitudeMeters>
            <DistanceMeters>NAN</DistanceMeters>
          </Trackpoint>
          <Trackpoint>
            <Time>2022-07-13T17:24:24.000Z</Time>
            <Position>
              <LatitudeDegrees>43.45980978570878505706787109375</LatitudeDegrees>
              <LongitudeDegrees>-3.821696229279041290283203125</LongitudeDegrees>
            </Position>
            <AltitudeMeters>46</AltitudeMeters>
            <DistanceMeters>NAN</DistanceMeters>
          </Trackpoint>
          <Trackpoint>
            <Time>2022-07-13T17:24:29.000Z</Time>
            <Position>
              <LatitudeDegrees>43.45975555479526519775390625</LatitudeDegrees>
              <LongitudeDegrees>-3.821785412728786468505859375</LongitudeDegrees>
            </Position>
            <AltitudeMeters>46.200000762939453125</AltitudeMeters>
            <DistanceMeters>NAN</DistanceMeters>
          </Trackpoint>
          <Trackpoint>
            <Time>2022-07-13T17:24:30.000Z</Time>
            <Position>
              <LatitudeDegrees>43.459719009697437286376953125</LatitudeDegrees>
              <LongitudeDegrees>-3.82178650237619876861572265625</LongitudeDegrees>
            </Position>
            <AltitudeMeters>46.200000762939453125</AltitudeMeters>
            <DistanceMeters>NAN</DistanceMeters>
          </Trackpoint>
          <Trackpoint>
            <Time>2022-07-13T17:24:31.000Z</Time>
            <Position>
              <LatitudeDegrees>43.45968908630311489105224609375</LatitudeDegrees>
              <LongitudeDegrees>-3.8217812217772006988525390625</LongitudeDegrees>
            </Position>
            <AltitudeMeters>46.40000152587890625</AltitudeMeters>
            <DistanceMeters>NAN</DistanceMeters>
          </Trackpoint>
          <Trackpoint>
            <Time>2022-07-13T17:24:32.000Z</Time>
            <Position>
              <LatitudeDegrees>43.45967106521129608154296875</LatitudeDegrees>
              <LongitudeDegrees>-3.8217963092029094696044921875</LongitudeDegrees>
            </Position>
            <AltitudeMeters>46.40000152587890625</AltitudeMeters>
            <DistanceMeters>NAN</DistanceMeters>
          </Trackpoint>
          <Trackpoint>
            <Time>2022-07-13T17:24:35.000Z</Time>
            <Position>
              <LatitudeDegrees>43.45966729335486888885498046875</LatitudeDegrees>
              <LongitudeDegrees>-3.82186244241893291473388671875</LongitudeDegrees>
            </Position>
            <AltitudeMeters>46.59999847412109375</AltitudeMeters>
            <DistanceMeters>NAN</DistanceMeters>
          </Trackpoint>
          <Trackpoint>
            <Time>2022-07-13T17:24:39.000Z</Time>
            <Position>
              <LatitudeDegrees>43.4596125595271587371826171875</LatitudeDegrees>
              <LongitudeDegrees>-3.8219051063060760498046875</LongitudeDegrees>
            </Position>
            <AltitudeMeters>46.799999237060546875</AltitudeMeters>
            <DistanceMeters>NAN</DistanceMeters>
          </Trackpoint>
          <Trackpoint>
            <Time>2022-07-13T17:24:41.000Z</Time>
            <Position>
              <LatitudeDegrees>43.4595870785415172576904296875</LatitudeDegrees>
              <LongitudeDegrees>-3.82192430086433887481689453125</LongitudeDegrees>
            </Position>
            <AltitudeMeters>47</AltitudeMeters>
            <DistanceMeters>NAN</DistanceMeters>
          </Trackpoint>
          <Trackpoint>
            <Time>2022-07-13T17:24:43.000Z</Time>
            <Position>
              <LatitudeDegrees>43.45957207493484020233154296875</LatitudeDegrees>
              <LongitudeDegrees>-3.82195699028670787811279296875</LongitudeDegrees>
            </Position>
            <AltitudeMeters>47</AltitudeMeters>
            <DistanceMeters>NAN</DistanceMeters>
          </Trackpoint>
          <Trackpoint>
            <Time>2022-07-13T17:24:45.000Z</Time>
            <Position>
              <LatitudeDegrees>43.45958582125604152679443359375</LatitudeDegrees>
              <LongitudeDegrees>-3.82201432250440120697021484375</LongitudeDegrees>
            </Position>
            <AltitudeMeters>47.200000762939453125</AltitudeMeters>
            <DistanceMeters>NAN</DistanceMeters>
          </Trackpoint>
          <Trackpoint>
            <Time>2022-07-13T17:24:46.000Z</Time>
            <Position>
              <LatitudeDegrees>43.45958632417023181915283203125</LatitudeDegrees>
              <LongitudeDegrees>-3.82204785011708736419677734375</LongitudeDegrees>
            </Position>
            <AltitudeMeters>47.200000762939453125</AltitudeMeters>
            <DistanceMeters>NAN</DistanceMeters>
          </Trackpoint>
          <Trackpoint>
            <Time>2022-07-13T17:24:47.000Z</Time>
            <Position>
              <LatitudeDegrees>43.4595951251685619354248046875</LatitudeDegrees>
              <LongitudeDegrees>-3.8220933638513088226318359375</LongitudeDegrees>
            </Position>
            <AltitudeMeters>47.40000152587890625</AltitudeMeters>
            <DistanceMeters>NAN</DistanceMeters>
          </Trackpoint>
          <Trackpoint>
            <Time>2022-07-13T17:24:49.000Z</Time>
            <Position>
              <LatitudeDegrees>43.459586910903453826904296875</LatitudeDegrees>
              <LongitudeDegrees>-3.82218346931040287017822265625</LongitudeDegrees>
            </Position>
            <AltitudeMeters>47.40000152587890625</AltitudeMeters>
            <DistanceMeters>NAN</DistanceMeters>
          </Trackpoint>
          <Trackpoint>
            <Time>2022-07-13T17:24:52.000Z</Time>
            <Position>
              <LatitudeDegrees>43.45954307354986667633056640625</LatitudeDegrees>
              <LongitudeDegrees>-3.82224909961223602294921875</LongitudeDegrees>
            </Position>
            <AltitudeMeters>47.59999847412109375</AltitudeMeters>
            <DistanceMeters>NAN</DistanceMeters>
          </Trackpoint>
          <Trackpoint>
            <Time>2022-07-13T17:24:53.000Z</Time>
            <Position>
              <LatitudeDegrees>43.45953293144702911376953125</LatitudeDegrees>
              <LongitudeDegrees>-3.8223076052963733673095703125</LongitudeDegrees>
            </Position>
            <AltitudeMeters>47.799999237060546875</AltitudeMeters>
            <DistanceMeters>NAN</DistanceMeters>
          </Trackpoint>
          <Trackpoint>
            <Time>2022-07-13T17:24:57.000Z</Time>
            <Position>
              <LatitudeDegrees>43.45948926173150539398193359375</LatitudeDegrees>
              <LongitudeDegrees>-3.822407685220241546630859375</LongitudeDegrees>
            </Position>
            <AltitudeMeters>48</AltitudeMeters>
            <DistanceMeters>NAN</DistanceMeters>
          </Trackpoint>
          <Trackpoint>
            <Time>2022-07-13T17:24:59.000Z</Time>
            <Position>
              <LatitudeDegrees>43.4594469331204891204833984375</LatitudeDegrees>
              <LongitudeDegrees>-3.8224697113037109375</LongitudeDegrees>
            </Position>
            <AltitudeMeters>48.200000762939453125</AltitudeMeters>
            <DistanceMeters>NAN</DistanceMeters>
          </Trackpoint>
          <Trackpoint>
            <Time>2022-07-13T17:25:00.000Z</Time>
            <Position>
              <LatitudeDegrees>43.45938499085605144500732421875</LatitudeDegrees>
              <LongitudeDegrees>-3.82251354865729808807373046875</LongitudeDegrees>
            </Position>
            <AltitudeMeters>48.40000152587890625</AltitudeMeters>
            <DistanceMeters>NAN</DistanceMeters>
          </Trackpoint>
          <Trackpoint>
            <Time>2022-07-13T17:25:02.000Z</Time>
            <Position>
              <LatitudeDegrees>43.459325730800628662109375</LatitudeDegrees>
              <LongitudeDegrees>-3.82257901132106781005859375</LongitudeDegrees>
            </Position>
            <AltitudeMeters>48.59999847412109375</AltitudeMeters>
            <DistanceMeters>NAN</DistanceMeters>
          </Trackpoint>
          <Trackpoint>
            <Time>2022-07-13T17:25:07.000Z</Time>
            <Position>
              <LatitudeDegrees>43.45934920012950897216796875</LatitudeDegrees>
              <LongitudeDegrees>-3.822845555841922760009765625</LongitudeDegrees>
            </Position>
            <AltitudeMeters>49</AltitudeMeters>
            <DistanceMeters>NAN</DistanceMeters>
          </Trackpoint>
          <Trackpoint>
            <Time>2022-07-13T17:25:08.000Z</Time>
            <Position>
              <LatitudeDegrees>43.4593694843351840972900390625</LatitudeDegrees>
              <LongitudeDegrees>-3.82288654334843158721923828125</LongitudeDegrees>
            </Position>
            <AltitudeMeters>49</AltitudeMeters>
            <DistanceMeters>NAN</DistanceMeters>
          </Trackpoint>
          <Trackpoint>
            <Time>2022-07-13T17:25:10.000Z</Time>
            <Position>
              <LatitudeDegrees>43.4594010002911090850830078125</LatitudeDegrees>
              <LongitudeDegrees>-3.82290515117347240447998046875</LongitudeDegrees>
            </Position>
            <AltitudeMeters>49.200000762939453125</AltitudeMeters>
            <DistanceMeters>NAN</DistanceMeters>
          </Trackpoint>
          <Trackpoint>
            <Time>2022-07-13T17:25:11.000Z</Time>
            <Position>
              <LatitudeDegrees>43.459412567317485809326171875</LatitudeDegrees>
              <LongitudeDegrees>-3.8229080848395824432373046875</LongitudeDegrees>
            </Position>
            <AltitudeMeters>49.40000152587890625</AltitudeMeters>
            <DistanceMeters>NAN</DistanceMeters>
          </Trackpoint>
          <Trackpoint>
            <Time>2022-07-13T17:25:13.000Z</Time>
            <Position>
              <LatitudeDegrees>43.45940980128943920135498046875</LatitudeDegrees>
              <LongitudeDegrees>-3.82287732325494289398193359375</LongitudeDegrees>
            </Position>
            <AltitudeMeters>49.40000152587890625</AltitudeMeters>
            <DistanceMeters>NAN</DistanceMeters>
          </Trackpoint>
          <Trackpoint>
            <Time>2022-07-13T17:25:15.000Z</Time>
            <Position>
              <LatitudeDegrees>43.45929748378694057464599609375</LatitudeDegrees>
              <LongitudeDegrees>-3.822907246649265289306640625</LongitudeDegrees>
            </Position>
            <AltitudeMeters>49.59999847412109375</AltitudeMeters>
            <DistanceMeters>NAN</DistanceMeters>
          </Trackpoint>
          <Trackpoint>
            <Time>2022-07-13T17:25:16.000Z</Time>
            <Position>
              <LatitudeDegrees>43.4592719189822673797607421875</LatitudeDegrees>
              <LongitudeDegrees>-3.82293096743524074554443359375</LongitudeDegrees>
            </Position>
            <AltitudeMeters>49.59999847412109375</AltitudeMeters>
            <DistanceMeters>NAN</DistanceMeters>
          </Trackpoint>
          <Trackpoint>
            <Time>2022-07-13T17:25:19.000Z</Time>
            <Position>
              <LatitudeDegrees>43.459250964224338531494140625</LatitudeDegrees>
              <LongitudeDegrees>-3.8229838572442531585693359375</LongitudeDegrees>
            </Position>
            <AltitudeMeters>49.799999237060546875</AltitudeMeters>
            <DistanceMeters>NAN</DistanceMeters>
          </Trackpoint>
          <Trackpoint>
            <Time>2022-07-13T17:25:21.000Z</Time>
            <Position>
              <LatitudeDegrees>43.4592732600867748260498046875</LatitudeDegrees>
              <LongitudeDegrees>-3.82301260717213153839111328125</LongitudeDegrees>
            </Position>
            <AltitudeMeters>50</AltitudeMeters>
            <DistanceMeters>NAN</DistanceMeters>
          </Trackpoint>
          <Trackpoint>
            <Time>2022-07-13T17:25:29.000Z</Time>
            <Position>
              <LatitudeDegrees>43.45920494757592678070068359375</LatitudeDegrees>
              <LongitudeDegrees>-3.82308603264391422271728515625</LongitudeDegrees>
            </Position>
            <AltitudeMeters>50</AltitudeMeters>
            <DistanceMeters>NAN</DistanceMeters>
          </Trackpoint>
          <Trackpoint>
            <Time>2022-07-13T17:25:30.000Z</Time>
            <Position>
              <LatitudeDegrees>43.45920695923268795013427734375</LatitudeDegrees>
              <LongitudeDegrees>-3.823094666004180908203125</LongitudeDegrees>
            </Position>
            <AltitudeMeters>50</AltitudeMeters>
            <DistanceMeters>NAN</DistanceMeters>
          </Trackpoint>
          <Trackpoint>
            <Time>2022-07-13T17:25:34.000Z</Time>
            <Position>
              <LatitudeDegrees>43.459242247045040130615234375</LatitudeDegrees>
              <LongitudeDegrees>-3.823119811713695526123046875</LongitudeDegrees>
            </Position>
            <AltitudeMeters>50</AltitudeMeters>
            <DistanceMeters>NAN</DistanceMeters>
          </Trackpoint>
          <Trackpoint>
            <Time>2022-07-13T17:25:39.000Z</Time>
            <Position>
              <LatitudeDegrees>43.459269739687442779541015625</LatitudeDegrees>
              <LongitudeDegrees>-3.82318996824324131011962890625</LongitudeDegrees>
            </Position>
            <AltitudeMeters>50.200000762939453125</AltitudeMeters>
            <DistanceMeters>NAN</DistanceMeters>
          </Trackpoint>
          <Trackpoint>
            <Time>2022-07-13T17:25:40.000Z</Time>
            <Position>
              <LatitudeDegrees>43.45926194451749324798583984375</LatitudeDegrees>
              <LongitudeDegrees>-3.82321243174374103546142578125</LongitudeDegrees>
            </Position>
            <AltitudeMeters>50.59999847412109375</AltitudeMeters>
            <DistanceMeters>NAN</DistanceMeters>
          </Trackpoint>
          <Trackpoint>
            <Time>2022-07-13T17:25:41.000Z</Time>
            <Position>
              <LatitudeDegrees>43.45924886874854564666748046875</LatitudeDegrees>
              <LongitudeDegrees>-3.8232282735407352447509765625</LongitudeDegrees>
            </Position>
            <AltitudeMeters>50.799999237060546875</AltitudeMeters>
            <DistanceMeters>NAN</DistanceMeters>
          </Trackpoint>
          <Trackpoint>
            <Time>2022-07-13T17:25:42.000Z</Time>
            <Position>
              <LatitudeDegrees>43.459238894283771514892578125</LatitudeDegrees>
              <LongitudeDegrees>-3.823255598545074462890625</LongitudeDegrees>
            </Position>
            <AltitudeMeters>50.799999237060546875</AltitudeMeters>
            <DistanceMeters>NAN</DistanceMeters>
          </Trackpoint>
          <Trackpoint>
            <Time>2022-07-13T17:25:45.000Z</Time>
            <Position>
              <LatitudeDegrees>43.45917745493352413177490234375</LatitudeDegrees>
              <LongitudeDegrees>-3.82333732210099697113037109375</LongitudeDegrees>
            </Position>
            <AltitudeMeters>51</AltitudeMeters>
            <DistanceMeters>NAN</DistanceMeters>
          </Trackpoint>
          <Trackpoint>
            <Time>2022-07-13T17:25:47.000Z</Time>
            <Position>
              <LatitudeDegrees>43.459164798259735107421875</LatitudeDegrees>
              <LongitudeDegrees>-3.82337638176977634429931640625</LongitudeDegrees>
            </Position>
            <AltitudeMeters>50.59999847412109375</AltitudeMeters>
            <DistanceMeters>NAN</DistanceMeters>
          </Trackpoint>
          <Trackpoint>
            <Time>2022-07-13T17:25:49.000Z</Time>
            <Position>
              <LatitudeDegrees>43.45917996950447559356689453125</LatitudeDegrees>
              <LongitudeDegrees>-3.823416531085968017578125</LongitudeDegrees>
            </Position>
            <AltitudeMeters>50.59999847412109375</AltitudeMeters>
            <DistanceMeters>NAN</DistanceMeters>
          </Trackpoint>
          <Trackpoint>
            <Time>2022-07-13T17:25:52.000Z</Time>
            <Position>
              <LatitudeDegrees>43.4591874293982982635498046875</LatitudeDegrees>
              <LongitudeDegrees>-3.823518790304660797119140625</LongitudeDegrees>
            </Position>
            <AltitudeMeters>50.40000152587890625</AltitudeMeters>
            <DistanceMeters>NAN</DistanceMeters>
          </Trackpoint>
          <Trackpoint>
            <Time>2022-07-13T17:25:57.000Z</Time>
            <Position>
              <LatitudeDegrees>43.4591951407492160797119140625</LatitudeDegrees>
              <LongitudeDegrees>-3.823621384799480438232421875</LongitudeDegrees>
            </Position>
            <AltitudeMeters>50.59999847412109375</AltitudeMeters>
            <DistanceMeters>NAN</DistanceMeters>
          </Trackpoint>
          <Trackpoint>
            <Time>2022-07-13T17:25:59.000Z</Time>
            <Position>
              <LatitudeDegrees>43.45918801613152027130126953125</LatitudeDegrees>
              <LongitudeDegrees>-3.82362968288362026214599609375</LongitudeDegrees>
            </Position>
            <AltitudeMeters>50.59999847412109375</AltitudeMeters>
            <DistanceMeters>NAN</DistanceMeters>
          </Trackpoint>
          <Trackpoint>
            <Time>2022-07-13T17:26:02.000Z</Time>
            <Position>
              <LatitudeDegrees>43.45918483100831508636474609375</LatitudeDegrees>
              <LongitudeDegrees>-3.82365248166024684906005859375</LongitudeDegrees>
            </Position>
            <AltitudeMeters>50.799999237060546875</AltitudeMeters>
            <DistanceMeters>NAN</DistanceMeters>
          </Trackpoint>
          <Trackpoint>
            <Time>2022-07-13T17:26:05.000Z</Time>
            <Position>
              <LatitudeDegrees>43.45904317684471607208251953125</LatitudeDegrees>
              <LongitudeDegrees>-3.823700509965419769287109375</LongitudeDegrees>
            </Position>
            <AltitudeMeters>51</AltitudeMeters>
            <DistanceMeters>NAN</DistanceMeters>
          </Trackpoint>
          <Trackpoint>
            <Time>2022-07-13T17:26:08.000Z</Time>
            <Position>
              <LatitudeDegrees>43.4590213000774383544921875</LatitudeDegrees>
              <LongitudeDegrees>-3.823743760585784912109375</LongitudeDegrees>
            </Position>
            <AltitudeMeters>51</AltitudeMeters>
            <DistanceMeters>NAN</DistanceMeters>
          </Trackpoint>
          <Trackpoint>
            <Time>2022-07-13T17:26:15.000Z</Time>
            <Position>
              <LatitudeDegrees>43.4589882753789424896240234375</LatitudeDegrees>
              <LongitudeDegrees>-3.82383101619780063629150390625</LongitudeDegrees>
            </Position>
            <AltitudeMeters>51.200000762939453125</AltitudeMeters>
            <DistanceMeters>NAN</DistanceMeters>
          </Trackpoint>
          <Trackpoint>
            <Time>2022-07-13T17:26:22.000Z</Time>
            <Position>
              <LatitudeDegrees>43.458941839635372161865234375</LatitudeDegrees>
              <LongitudeDegrees>-3.82390494458377361297607421875</LongitudeDegrees>
            </Position>
            <AltitudeMeters>51.59999847412109375</AltitudeMeters>
            <DistanceMeters>NAN</DistanceMeters>
          </Trackpoint>
          <Trackpoint>
            <Time>2022-07-13T17:26:23.000Z</Time>
            <Position>
              <LatitudeDegrees>43.4589356370270252227783203125</LatitudeDegrees>
              <LongitudeDegrees>-3.82391584105789661407470703125</LongitudeDegrees>
            </Position>
            <AltitudeMeters>51.59999847412109375</AltitudeMeters>
            <DistanceMeters>NAN</DistanceMeters>
          </Trackpoint>
          <Trackpoint>
            <Time>2022-07-13T17:26:25.000Z</Time>
            <Position>
              <LatitudeDegrees>43.458927758038043975830078125</LatitudeDegrees>
              <LongitudeDegrees>-3.8239343650639057159423828125</LongitudeDegrees>
            </Position>
            <AltitudeMeters>51.799999237060546875</AltitudeMeters>
            <DistanceMeters>NAN</DistanceMeters>
          </Trackpoint>
          <Trackpoint>
            <Time>2022-07-13T17:26:27.000Z</Time>
            <Position>
              <LatitudeDegrees>43.45893077552318572998046875</LatitudeDegrees>
              <LongitudeDegrees>-3.82395096123218536376953125</LongitudeDegrees>
            </Position>
            <AltitudeMeters>51.799999237060546875</AltitudeMeters>
            <DistanceMeters>NAN</DistanceMeters>
          </Trackpoint>
          <Trackpoint>
            <Time>2022-07-13T17:26:28.000Z</Time>
            <Position>
              <LatitudeDegrees>43.4589301049709320068359375</LatitudeDegrees>
              <LongitudeDegrees>-3.82396328262984752655029296875</LongitudeDegrees>
            </Position>
            <AltitudeMeters>52</AltitudeMeters>
            <DistanceMeters>NAN</DistanceMeters>
          </Trackpoint>
          <Trackpoint>
            <Time>2022-07-13T17:26:29.000Z</Time>
            <Position>
              <LatitudeDegrees>43.458927758038043975830078125</LatitudeDegrees>
              <LongitudeDegrees>-3.82397602312266826629638671875</LongitudeDegrees>
            </Position>
            <AltitudeMeters>52.200000762939453125</AltitudeMeters>
            <DistanceMeters>NAN</DistanceMeters>
          </Trackpoint>
          <Trackpoint>
            <Time>2022-07-13T17:26:31.000Z</Time>
            <Position>
              <LatitudeDegrees>43.45891141332685947418212890625</LatitudeDegrees>
              <LongitudeDegrees>-3.82402229122817516326904296875</LongitudeDegrees>
            </Position>
            <AltitudeMeters>52.40000152587890625</AltitudeMeters>
            <DistanceMeters>NAN</DistanceMeters>
          </Trackpoint>
          <Trackpoint>
            <Time>2022-07-13T17:26:32.000Z</Time>
            <Position>
              <LatitudeDegrees>43.45891342498362064361572265625</LatitudeDegrees>
              <LongitudeDegrees>-3.82406093180179595947265625</LongitudeDegrees>
            </Position>
            <AltitudeMeters>52.59999847412109375</AltitudeMeters>
            <DistanceMeters>NAN</DistanceMeters>
          </Trackpoint>
          <Trackpoint>
            <Time>2022-07-13T17:26:33.000Z</Time>
            <Position>
              <LatitudeDegrees>43.4589121676981449127197265625</LatitudeDegrees>
              <LongitudeDegrees>-3.82409554906189441680908203125</LongitudeDegrees>
            </Position>
            <AltitudeMeters>52.799999237060546875</AltitudeMeters>
            <DistanceMeters>NAN</DistanceMeters>
          </Trackpoint>
          <Trackpoint>
            <Time>2022-07-13T17:26:37.000Z</Time>
            <Position>
              <LatitudeDegrees>43.4588886983692646026611328125</LatitudeDegrees>
              <LongitudeDegrees>-3.8241395540535449981689453125</LongitudeDegrees>
            </Position>
            <AltitudeMeters>52.799999237060546875</AltitudeMeters>
            <DistanceMeters>NAN</DistanceMeters>
          </Trackpoint>
          <Trackpoint>
            <Time>2022-07-13T17:26:40.000Z</Time>
            <Position>
              <LatitudeDegrees>43.45888392068445682525634765625</LatitudeDegrees>
              <LongitudeDegrees>-3.82414701394736766815185546875</LongitudeDegrees>
            </Position>
            <AltitudeMeters>52.59999847412109375</AltitudeMeters>
            <DistanceMeters>NAN</DistanceMeters>
          </Trackpoint>
          <Trackpoint>
            <Time>2022-07-13T17:26:43.000Z</Time>
            <Position>
              <LatitudeDegrees>43.45886363647878170013427734375</LatitudeDegrees>
              <LongitudeDegrees>-3.82415589876472949981689453125</LongitudeDegrees>
            </Position>
            <AltitudeMeters>52.59999847412109375</AltitudeMeters>
            <DistanceMeters>NAN</DistanceMeters>
          </Trackpoint>
          <Trackpoint>
            <Time>2022-07-13T17:26:44.000Z</Time>
            <Position>
              <LatitudeDegrees>43.4588474594056606292724609375</LatitudeDegrees>
              <LongitudeDegrees>-3.82417014800012111663818359375</LongitudeDegrees>
            </Position>
            <AltitudeMeters>52.59999847412109375</AltitudeMeters>
            <DistanceMeters>NAN</DistanceMeters>
          </Trackpoint>
          <Trackpoint>
            <Time>2022-07-13T17:26:48.000Z</Time>
            <Position>
              <LatitudeDegrees>43.45880663953721523284912109375</LatitudeDegrees>
              <LongitudeDegrees>-3.82421515882015228271484375</LongitudeDegrees>
            </Position>
            <AltitudeMeters>52.799999237060546875</AltitudeMeters>
            <DistanceMeters>NAN</DistanceMeters>
          </Trackpoint>
          <Trackpoint>
            <Time>2022-07-13T17:26:49.000Z</Time>
            <Position>
              <LatitudeDegrees>43.45880580134689807891845703125</LatitudeDegrees>
              <LongitudeDegrees>-3.82424541749060153961181640625</LongitudeDegrees>
            </Position>
            <AltitudeMeters>53</AltitudeMeters>
            <DistanceMeters>NAN</DistanceMeters>
          </Trackpoint>
          <Trackpoint>
            <Time>2022-07-13T17:26:50.000Z</Time>
            <Position>
              <LatitudeDegrees>43.45881544053554534912109375</LatitudeDegrees>
              <LongitudeDegrees>-3.82428129203617572784423828125</LongitudeDegrees>
            </Position>
            <AltitudeMeters>53</AltitudeMeters>
            <DistanceMeters>NAN</DistanceMeters>
          </Trackpoint>
          <Trackpoint>
            <Time>2022-07-13T17:26:51.000Z</Time>
            <Position>
              <LatitudeDegrees>43.4588243253529071807861328125</LatitudeDegrees>
              <LongitudeDegrees>-3.824323117733001708984375</LongitudeDegrees>
            </Position>
            <AltitudeMeters>53</AltitudeMeters>
            <DistanceMeters>NAN</DistanceMeters>
          </Trackpoint>
          <Trackpoint>
            <Time>2022-07-13T17:26:53.000Z</Time>
            <Position>
              <LatitudeDegrees>43.458882160484790802001953125</LatitudeDegrees>
              <LongitudeDegrees>-3.8244168274104595184326171875</LongitudeDegrees>
            </Position>
            <AltitudeMeters>53.200000762939453125</AltitudeMeters>
            <DistanceMeters>NAN</DistanceMeters>
          </Trackpoint>
          <Trackpoint>
            <Time>2022-07-13T17:26:54.000Z</Time>
            <Position>
              <LatitudeDegrees>43.45888517796993255615234375</LatitudeDegrees>
              <LongitudeDegrees>-3.824462257325649261474609375</LongitudeDegrees>
            </Position>
            <AltitudeMeters>53.40000152587890625</AltitudeMeters>
            <DistanceMeters>NAN</DistanceMeters>
          </Trackpoint>
          <Trackpoint>
            <Time>2022-07-13T17:26:59.000Z</Time>
            <Position>
              <LatitudeDegrees>43.45886715687811374664306640625</LatitudeDegrees>
              <LongitudeDegrees>-3.8246756605803966522216796875</LongitudeDegrees>
            </Position>
            <AltitudeMeters>53.59999847412109375</AltitudeMeters>
            <DistanceMeters>NAN</DistanceMeters>
          </Trackpoint>
          <Trackpoint>
            <Time>2022-07-13T17:27:01.000Z</Time>
            <Position>
              <LatitudeDegrees>43.45888090319931507110595703125</LatitudeDegrees>
              <LongitudeDegrees>-3.8247038237750530242919921875</LongitudeDegrees>
            </Position>
            <AltitudeMeters>53.59999847412109375</AltitudeMeters>
            <DistanceMeters>NAN</DistanceMeters>
          </Trackpoint>
          <Trackpoint>
            <Time>2022-07-13T17:27:03.000Z</Time>
            <Position>
              <LatitudeDegrees>43.45891342498362064361572265625</LatitudeDegrees>
              <LongitudeDegrees>-3.82475696504116058349609375</LongitudeDegrees>
            </Position>
            <AltitudeMeters>53.799999237060546875</AltitudeMeters>
            <DistanceMeters>NAN</DistanceMeters>
          </Trackpoint>
          <Trackpoint>
            <Time>2022-07-13T17:27:04.000Z</Time>
            <Position>
              <LatitudeDegrees>43.45892407000064849853515625</LatitudeDegrees>
              <LongitudeDegrees>-3.82478018291294574737548828125</LongitudeDegrees>
            </Position>
            <AltitudeMeters>54</AltitudeMeters>
            <DistanceMeters>NAN</DistanceMeters>
          </Trackpoint>
          <Trackpoint>
            <Time>2022-07-13T17:27:05.000Z</Time>
            <Position>
              <LatitudeDegrees>43.45893773250281810760498046875</LatitudeDegrees>
              <LongitudeDegrees>-3.82481371052563190460205078125</LongitudeDegrees>
            </Position>
            <AltitudeMeters>54</AltitudeMeters>
            <DistanceMeters>NAN</DistanceMeters>
          </Trackpoint>
          <Trackpoint>
            <Time>2022-07-13T17:27:07.000Z</Time>
            <Position>
              <LatitudeDegrees>43.458943851292133331298828125</LatitudeDegrees>
              <LongitudeDegrees>-3.82491027005016803741455078125</LongitudeDegrees>
            </Position>
            <AltitudeMeters>54.200000762939453125</AltitudeMeters>
            <DistanceMeters>NAN</DistanceMeters>
          </Trackpoint>
          <Trackpoint>
            <Time>2022-07-13T17:27:09.000Z</Time>
            <Position>
              <LatitudeDegrees>43.4589463658630847930908203125</LatitudeDegrees>
              <LongitudeDegrees>-3.82500238716602325439453125</LongitudeDegrees>
            </Position>
            <AltitudeMeters>54.40000152587890625</AltitudeMeters>
            <DistanceMeters>NAN</DistanceMeters>
          </Trackpoint>
          <Trackpoint>
            <Time>2022-07-13T17:27:12.000Z</Time>
            <Position>
              <LatitudeDegrees>43.45892868004739284515380859375</LatitudeDegrees>
              <LongitudeDegrees>-3.82511411793529987335205078125</LongitudeDegrees>
            </Position>
            <AltitudeMeters>54.59999847412109375</AltitudeMeters>
            <DistanceMeters>NAN</DistanceMeters>
          </Trackpoint>
          <Trackpoint>
            <Time>2022-07-13T17:27:14.000Z</Time>
            <Position>
              <LatitudeDegrees>43.45892583020031452178955078125</LatitudeDegrees>
              <LongitudeDegrees>-3.82515929639339447021484375</LongitudeDegrees>
            </Position>
            <AltitudeMeters>54.799999237060546875</AltitudeMeters>
            <DistanceMeters>NAN</DistanceMeters>
          </Trackpoint>
          <Trackpoint>
            <Time>2022-07-13T17:27:15.000Z</Time>
            <Position>
              <LatitudeDegrees>43.45893521793186664581298828125</LatitudeDegrees>
              <LongitudeDegrees>-3.82516507990658283233642578125</LongitudeDegrees>
            </Position>
            <AltitudeMeters>54.799999237060546875</AltitudeMeters>
            <DistanceMeters>NAN</DistanceMeters>
          </Trackpoint>
          <Trackpoint>
            <Time>2022-07-13T17:27:19.000Z</Time>
            <Position>
              <LatitudeDegrees>43.4589751996099948883056640625</LatitudeDegrees>
              <LongitudeDegrees>-3.82525987923145294189453125</LongitudeDegrees>
            </Position>
            <AltitudeMeters>55.200000762939453125</AltitudeMeters>
            <DistanceMeters>NAN</DistanceMeters>
          </Trackpoint>
          <Trackpoint>
            <Time>2022-07-13T17:27:22.000Z</Time>
            <Position>
              <LatitudeDegrees>43.458944857120513916015625</LatitudeDegrees>
              <LongitudeDegrees>-3.82532165385782718658447265625</LongitudeDegrees>
            </Position>
            <AltitudeMeters>55.200000762939453125</AltitudeMeters>
            <DistanceMeters>NAN</DistanceMeters>
          </Trackpoint>
          <Trackpoint>
            <Time>2022-07-13T17:27:24.000Z</Time>
            <Position>
              <LatitudeDegrees>43.4588947333395481109619140625</LatitudeDegrees>
              <LongitudeDegrees>-3.82538787089288234710693359375</LongitudeDegrees>
            </Position>
            <AltitudeMeters>55.40000152587890625</AltitudeMeters>
            <DistanceMeters>NAN</DistanceMeters>
          </Trackpoint>
          <Trackpoint>
            <Time>2022-07-13T17:27:26.000Z</Time>
            <Position>
              <LatitudeDegrees>43.45885793678462505340576171875</LatitudeDegrees>
              <LongitudeDegrees>-3.82543413899838924407958984375</LongitudeDegrees>
            </Position>
            <AltitudeMeters>55.59999847412109375</AltitudeMeters>
            <DistanceMeters>NAN</DistanceMeters>
          </Trackpoint>
          <Trackpoint>
            <Time>2022-07-13T17:27:30.000Z</Time>
            <Position>
              <LatitudeDegrees>43.458717875182628631591796875</LatitudeDegrees>
              <LongitudeDegrees>-3.8255272619426250457763671875</LongitudeDegrees>
            </Position>
            <AltitudeMeters>55.59999847412109375</AltitudeMeters>
            <DistanceMeters>NAN</DistanceMeters>
          </Trackpoint>
          <Trackpoint>
            <Time>2022-07-13T17:27:35.000Z</Time>
            <Position>
              <LatitudeDegrees>43.45863439142704010009765625</LatitudeDegrees>
              <LongitudeDegrees>-3.82560227997601032257080078125</LongitudeDegrees>
            </Position>
            <AltitudeMeters>55.799999237060546875</AltitudeMeters>
            <DistanceMeters>NAN</DistanceMeters>
          </Trackpoint>
          <Trackpoint>
            <Time>2022-07-13T17:27:36.000Z</Time>
            <Position>
              <LatitudeDegrees>43.4586315415799617767333984375</LatitudeDegrees>
              <LongitudeDegrees>-3.8256151042878627777099609375</LongitudeDegrees>
            </Position>
            <AltitudeMeters>56</AltitudeMeters>
            <DistanceMeters>NAN</DistanceMeters>
          </Trackpoint>
          <Trackpoint>
            <Time>2022-07-13T17:27:38.000Z</Time>
            <Position>
              <LatitudeDegrees>43.4586580283939838409423828125</LatitudeDegrees>
              <LongitudeDegrees>-3.82565642707049846649169921875</LongitudeDegrees>
            </Position>
            <AltitudeMeters>56</AltitudeMeters>
            <DistanceMeters>NAN</DistanceMeters>
          </Trackpoint>
          <Trackpoint>
            <Time>2022-07-13T17:27:44.000Z</Time>
            <Position>
              <LatitudeDegrees>43.45872223377227783203125</LatitudeDegrees>
              <LongitudeDegrees>-3.82572121918201446533203125</LongitudeDegrees>
            </Position>
            <AltitudeMeters>56.200000762939453125</AltitudeMeters>
            <DistanceMeters>NAN</DistanceMeters>
          </Trackpoint>
          <Trackpoint>
            <Time>2022-07-13T17:27:45.000Z</Time>
            <Position>
              <LatitudeDegrees>43.45872181467711925506591796875</LatitudeDegrees>
              <LongitudeDegrees>-3.8257270865142345428466796875</LongitudeDegrees>
            </Position>
            <AltitudeMeters>56.200000762939453125</AltitudeMeters>
            <DistanceMeters>NAN</DistanceMeters>
          </Trackpoint>
          <Trackpoint>
            <Time>2022-07-13T17:27:47.000Z</Time>
            <Position>
              <LatitudeDegrees>43.4587270952761173248291015625</LatitudeDegrees>
              <LongitudeDegrees>-3.82574795745313167572021484375</LongitudeDegrees>
            </Position>
            <AltitudeMeters>56.200000762939453125</AltitudeMeters>
            <DistanceMeters>NAN</DistanceMeters>
          </Trackpoint>
          <Trackpoint>
            <Time>2022-07-13T17:27:48.000Z</Time>
            <Position>
              <LatitudeDegrees>43.458722569048404693603515625</LatitudeDegrees>
              <LongitudeDegrees>-3.82575969211757183074951171875</LongitudeDegrees>
            </Position>
            <AltitudeMeters>56.200000762939453125</AltitudeMeters>
            <DistanceMeters>NAN</DistanceMeters>
          </Trackpoint>
          <Trackpoint>
            <Time>2022-07-13T17:27:49.000Z</Time>
            <Position>
              <LatitudeDegrees>43.45871393568813800811767578125</LatitudeDegrees>
              <LongitudeDegrees>-3.8257808983325958251953125</LongitudeDegrees>
            </Position>
            <AltitudeMeters>56</AltitudeMeters>
            <DistanceMeters>NAN</DistanceMeters>
          </Trackpoint>
          <Trackpoint>
            <Time>2022-07-13T17:27:50.000Z</Time>
            <Position>
              <LatitudeDegrees>43.458659537136554718017578125</LatitudeDegrees>
              <LongitudeDegrees>-3.8258229754865169525146484375</LongitudeDegrees>
            </Position>
            <AltitudeMeters>56</AltitudeMeters>
            <DistanceMeters>NAN</DistanceMeters>
          </Trackpoint>
          <Trackpoint>
            <Time>2022-07-13T17:27:52.000Z</Time>
            <Position>
              <LatitudeDegrees>43.45856130123138427734375</LatitudeDegrees>
              <LongitudeDegrees>-3.82593956775963306427001953125</LongitudeDegrees>
            </Position>
            <AltitudeMeters>56</AltitudeMeters>
            <DistanceMeters>NAN</DistanceMeters>
          </Trackpoint>
          <Trackpoint>
            <Time>2022-07-13T17:27:54.000Z</Time>
            <Position>
              <LatitudeDegrees>43.4584982693195343017578125</LatitudeDegrees>
              <LongitudeDegrees>-3.82601198740303516387939453125</LongitudeDegrees>
            </Position>
            <AltitudeMeters>56.200000762939453125</AltitudeMeters>
            <DistanceMeters>NAN</DistanceMeters>
          </Trackpoint>
          <Trackpoint>
            <Time>2022-07-13T17:27:57.000Z</Time>
            <Position>
              <LatitudeDegrees>43.45841352827847003936767578125</LatitudeDegrees>
              <LongitudeDegrees>-3.82615171372890472412109375</LongitudeDegrees>
            </Position>
            <AltitudeMeters>56.200000762939453125</AltitudeMeters>
            <DistanceMeters>NAN</DistanceMeters>
          </Trackpoint>
          <Trackpoint>
            <Time>2022-07-13T17:27:58.000Z</Time>
            <Position>
              <LatitudeDegrees>43.45840296708047389984130859375</LatitudeDegrees>
              <LongitudeDegrees>-3.8261850737035274505615234375</LongitudeDegrees>
            </Position>
            <AltitudeMeters>56.40000152587890625</AltitudeMeters>
            <DistanceMeters>NAN</DistanceMeters>
          </Trackpoint>
          <Trackpoint>
            <Time>2022-07-13T17:27:59.000Z</Time>
            <Position>
              <LatitudeDegrees>43.4583934955298900604248046875</LatitudeDegrees>
              <LongitudeDegrees>-3.82624718360602855682373046875</LongitudeDegrees>
            </Position>
            <AltitudeMeters>56.40000152587890625</AltitudeMeters>
            <DistanceMeters>NAN</DistanceMeters>
          </Trackpoint>
          <Trackpoint>
            <Time>2022-07-13T17:28:03.000Z</Time>
            <Position>
              <LatitudeDegrees>43.4583529271185398101806640625</LatitudeDegrees>
              <LongitudeDegrees>-3.8264368660748004913330078125</LongitudeDegrees>
            </Position>
            <AltitudeMeters>56.799999237060546875</AltitudeMeters>
            <DistanceMeters>NAN</DistanceMeters>
          </Trackpoint>
          <Trackpoint>
            <Time>2022-07-13T17:28:05.000Z</Time>
            <Position>
              <LatitudeDegrees>43.45835502259433269500732421875</LatitudeDegrees>
              <LongitudeDegrees>-3.82654474116861820220947265625</LongitudeDegrees>
            </Position>
            <AltitudeMeters>56.799999237060546875</AltitudeMeters>
            <DistanceMeters>NAN</DistanceMeters>
          </Trackpoint>
          <Trackpoint>
            <Time>2022-07-13T17:28:12.000Z</Time>
            <Position>
              <LatitudeDegrees>43.45835812389850616455078125</LatitudeDegrees>
              <LongitudeDegrees>-3.82674322463572025299072265625</LongitudeDegrees>
            </Position>
            <AltitudeMeters>56.799999237060546875</AltitudeMeters>
            <DistanceMeters>NAN</DistanceMeters>
          </Trackpoint>
          <Trackpoint>
            <Time>2022-07-13T17:28:13.000Z</Time>
            <Position>
              <LatitudeDegrees>43.458353094756603240966796875</LatitudeDegrees>
              <LongitudeDegrees>-3.82678178139030933380126953125</LongitudeDegrees>
            </Position>
            <AltitudeMeters>57</AltitudeMeters>
            <DistanceMeters>NAN</DistanceMeters>
          </Trackpoint>
          <Trackpoint>
            <Time>2022-07-13T17:28:18.000Z</Time>
            <Position>
              <LatitudeDegrees>43.45833691768348217010498046875</LatitudeDegrees>
              <LongitudeDegrees>-3.82696635089814662933349609375</LongitudeDegrees>
            </Position>
            <AltitudeMeters>57.200000762939453125</AltitudeMeters>
            <DistanceMeters>NAN</DistanceMeters>
          </Trackpoint>
          <Trackpoint>
            <Time>2022-07-13T17:28:25.000Z</Time>
            <Position>
              <LatitudeDegrees>43.458392657339572906494140625</LatitudeDegrees>
              <LongitudeDegrees>-3.82716584019362926483154296875</LongitudeDegrees>
            </Position>
            <AltitudeMeters>57.59999847412109375</AltitudeMeters>
            <DistanceMeters>NAN</DistanceMeters>
          </Trackpoint>
          <Trackpoint>
            <Time>2022-07-13T17:28:29.000Z</Time>
            <Position>
              <LatitudeDegrees>43.4584095887839794158935546875</LatitudeDegrees>
              <LongitudeDegrees>-3.82724739611148834228515625</LongitudeDegrees>
            </Position>
            <AltitudeMeters>58</AltitudeMeters>
            <DistanceMeters>NAN</DistanceMeters>
          </Trackpoint>
          <Trackpoint>
            <Time>2022-07-13T17:28:31.000Z</Time>
            <Position>
              <LatitudeDegrees>43.458427526056766510009765625</LatitudeDegrees>
              <LongitudeDegrees>-3.82732174359261989593505859375</LongitudeDegrees>
            </Position>
            <AltitudeMeters>58.200000762939453125</AltitudeMeters>
            <DistanceMeters>NAN</DistanceMeters>
          </Trackpoint>
          <Trackpoint>
            <Time>2022-07-13T17:28:32.000Z</Time>
            <Position>
              <LatitudeDegrees>43.45844068564474582672119140625</LatitudeDegrees>
              <LongitudeDegrees>-3.8273588754236698150634765625</LongitudeDegrees>
            </Position>
            <AltitudeMeters>58.200000762939453125</AltitudeMeters>
            <DistanceMeters>NAN</DistanceMeters>
          </Trackpoint>
          <Trackpoint>
            <Time>2022-07-13T17:28:37.000Z</Time>
            <Position>
              <LatitudeDegrees>43.45848779194056987762451171875</LatitudeDegrees>
              <LongitudeDegrees>-3.827512264251708984375</LongitudeDegrees>
            </Position>
            <AltitudeMeters>58.799999237060546875</AltitudeMeters>
            <DistanceMeters>NAN</DistanceMeters>
          </Trackpoint>
          <Trackpoint>
            <Time>2022-07-13T17:28:40.000Z</Time>
            <Position>
              <LatitudeDegrees>43.45854696817696094512939453125</LatitudeDegrees>
              <LongitudeDegrees>-3.82766523398458957672119140625</LongitudeDegrees>
            </Position>
            <AltitudeMeters>59.200000762939453125</AltitudeMeters>
            <DistanceMeters>NAN</DistanceMeters>
          </Trackpoint>
          <Trackpoint>
            <Time>2022-07-13T17:28:42.000Z</Time>
            <Position>
              <LatitudeDegrees>43.458627350628376007080078125</LatitudeDegrees>
              <LongitudeDegrees>-3.8277605362236499786376953125</LongitudeDegrees>
            </Position>
            <AltitudeMeters>59.40000152587890625</AltitudeMeters>
            <DistanceMeters>NAN</DistanceMeters>
          </Trackpoint>
          <Trackpoint>
            <Time>2022-07-13T17:28:49.000Z</Time>
            <Position>
              <LatitudeDegrees>43.45877596177160739898681640625</LatitudeDegrees>
              <LongitudeDegrees>-3.827917277812957763671875</LongitudeDegrees>
            </Position>
            <AltitudeMeters>60.200000762939453125</AltitudeMeters>
            <DistanceMeters>NAN</DistanceMeters>
          </Trackpoint>
          <Trackpoint>
            <Time>2022-07-13T17:28:55.000Z</Time>
            <Position>
              <LatitudeDegrees>43.45886514522135257720947265625</LatitudeDegrees>
              <LongitudeDegrees>-3.82801895029842853546142578125</LongitudeDegrees>
            </Position>
            <AltitudeMeters>60.799999237060546875</AltitudeMeters>
            <DistanceMeters>NAN</DistanceMeters>
          </Trackpoint>
          <Trackpoint>
            <Time>2022-07-13T17:28:58.000Z</Time>
            <Position>
              <LatitudeDegrees>43.45891392789781093597412109375</LatitudeDegrees>
              <LongitudeDegrees>-3.82807158865034580230712890625</LongitudeDegrees>
            </Position>
            <AltitudeMeters>61.200000762939453125</AltitudeMeters>
            <DistanceMeters>NAN</DistanceMeters>
          </Trackpoint>
          <Trackpoint>
            <Time>2022-07-13T17:29:02.000Z</Time>
            <Position>
              <LatitudeDegrees>43.45896824263036251068115234375</LatitudeDegrees>
              <LongitudeDegrees>-3.828131854534149169921875</LongitudeDegrees>
            </Position>
            <AltitudeMeters>61.799999237060546875</AltitudeMeters>
            <DistanceMeters>NAN</DistanceMeters>
          </Trackpoint>
          <Trackpoint>
            <Time>2022-07-13T17:29:06.000Z</Time>
            <Position>
              <LatitudeDegrees>43.45898081548511981964111328125</LatitudeDegrees>
              <LongitudeDegrees>-3.8281492888927459716796875</LongitudeDegrees>
            </Position>
            <AltitudeMeters>62</AltitudeMeters>
            <DistanceMeters>NAN</DistanceMeters>
          </Trackpoint>
          <Trackpoint>
            <Time>2022-07-13T17:29:08.000Z</Time>
            <Position>
              <LatitudeDegrees>43.45898182131350040435791015625</LatitudeDegrees>
              <LongitudeDegrees>-3.828155994415283203125</LongitudeDegrees>
            </Position>
            <AltitudeMeters>62</AltitudeMeters>
            <DistanceMeters>NAN</DistanceMeters>
          </Trackpoint>
          <Trackpoint>
            <Time>2022-07-13T17:30:03.000Z</Time>
            <Position>
              <LatitudeDegrees>43.45897729508578777313232421875</LatitudeDegrees>
              <LongitudeDegrees>-3.82820821367204189300537109375</LongitudeDegrees>
            </Position>
            <AltitudeMeters>61.799999237060546875</AltitudeMeters>
            <DistanceMeters>NAN</DistanceMeters>
          </Trackpoint>
          <Trackpoint>
            <Time>2022-07-13T17:30:05.000Z</Time>
            <Position>
              <LatitudeDegrees>43.4590053744614124298095703125</LatitudeDegrees>
              <LongitudeDegrees>-3.82825247012078762054443359375</LongitudeDegrees>
            </Position>
            <AltitudeMeters>62.200000762939453125</AltitudeMeters>
            <DistanceMeters>NAN</DistanceMeters>
          </Trackpoint>
          <Trackpoint>
            <Time>2022-07-13T17:30:07.000Z</Time>
            <Position>
              <LatitudeDegrees>43.459031693637371063232421875</LatitudeDegrees>
              <LongitudeDegrees>-3.82829077541828155517578125</LongitudeDegrees>
            </Position>
            <AltitudeMeters>62.40000152587890625</AltitudeMeters>
            <DistanceMeters>NAN</DistanceMeters>
          </Trackpoint>
          <Trackpoint>
            <Time>2022-07-13T17:30:11.000Z</Time>
            <Position>
              <LatitudeDegrees>43.4590814821422100067138671875</LatitudeDegrees>
              <LongitudeDegrees>-3.8283504545688629150390625</LongitudeDegrees>
            </Position>
            <AltitudeMeters>63</AltitudeMeters>
            <DistanceMeters>NAN</DistanceMeters>
          </Trackpoint>
          <Trackpoint>
            <Time>2022-07-13T17:30:13.000Z</Time>
            <Position>
              <LatitudeDegrees>43.45910780131816864013671875</LatitudeDegrees>
              <LongitudeDegrees>-3.82838331162929534912109375</LongitudeDegrees>
            </Position>
            <AltitudeMeters>63.40000152587890625</AltitudeMeters>
            <DistanceMeters>NAN</DistanceMeters>
          </Trackpoint>
          <Trackpoint>
            <Time>2022-07-13T17:30:17.000Z</Time>
            <Position>
              <LatitudeDegrees>43.45915599726140499114990234375</LatitudeDegrees>
              <LongitudeDegrees>-3.8284347765147686004638671875</LongitudeDegrees>
            </Position>
            <AltitudeMeters>64</AltitudeMeters>
            <DistanceMeters>NAN</DistanceMeters>
          </Trackpoint>
          <Trackpoint>
            <Time>2022-07-13T17:30:19.000Z</Time>
            <Position>
              <LatitudeDegrees>43.4591844119131565093994140625</LatitudeDegrees>
              <LongitudeDegrees>-3.8284555636346340179443359375</LongitudeDegrees>
            </Position>
            <AltitudeMeters>64.40000152587890625</AltitudeMeters>
            <DistanceMeters>NAN</DistanceMeters>
          </Trackpoint>
          <Trackpoint>
            <Time>2022-07-13T17:30:22.000Z</Time>
            <Position>
              <LatitudeDegrees>43.4592300094664096832275390625</LatitudeDegrees>
              <LongitudeDegrees>-3.828482888638973236083984375</LongitudeDegrees>
            </Position>
            <AltitudeMeters>65</AltitudeMeters>
            <DistanceMeters>NAN</DistanceMeters>
          </Trackpoint>
          <Trackpoint>
            <Time>2022-07-13T17:30:25.000Z</Time>
            <Position>
              <LatitudeDegrees>43.4592715837061405181884765625</LatitudeDegrees>
              <LongitudeDegrees>-3.82848096080124378204345703125</LongitudeDegrees>
            </Position>
            <AltitudeMeters>65.59999847412109375</AltitudeMeters>
            <DistanceMeters>NAN</DistanceMeters>
          </Trackpoint>
          <Trackpoint>
            <Time>2022-07-13T17:30:29.000Z</Time>
            <Position>
              <LatitudeDegrees>43.4593243896961212158203125</LatitudeDegrees>
              <LongitudeDegrees>-3.82850132882595062255859375</LongitudeDegrees>
            </Position>
            <AltitudeMeters>66</AltitudeMeters>
            <DistanceMeters>NAN</DistanceMeters>
          </Trackpoint>
          <Trackpoint>
            <Time>2022-07-13T17:30:34.000Z</Time>
            <Position>
              <LatitudeDegrees>43.45938985235989093780517578125</LatitudeDegrees>
              <LongitudeDegrees>-3.828572742640972137451171875</LongitudeDegrees>
            </Position>
            <AltitudeMeters>66.59999847412109375</AltitudeMeters>
            <DistanceMeters>NAN</DistanceMeters>
          </Trackpoint>
          <Trackpoint>
            <Time>2022-07-13T17:30:35.000Z</Time>
            <Position>
              <LatitudeDegrees>43.459406197071075439453125</LatitudeDegrees>
              <LongitudeDegrees>-3.8285930268466472625732421875</LongitudeDegrees>
            </Position>
            <AltitudeMeters>66.8000030517578125</AltitudeMeters>
            <DistanceMeters>NAN</DistanceMeters>
          </Trackpoint>
          <Trackpoint>
            <Time>2022-07-13T17:30:42.000Z</Time>
            <Position>
              <LatitudeDegrees>43.4594895131886005401611328125</LatitudeDegrees>
              <LongitudeDegrees>-3.8286865688860416412353515625</LongitudeDegrees>
            </Position>
            <AltitudeMeters>67.8000030517578125</AltitudeMeters>
            <DistanceMeters>NAN</DistanceMeters>
          </Trackpoint>
          <Trackpoint>
            <Time>2022-07-13T17:30:43.000Z</Time>
            <Position>
              <LatitudeDegrees>43.4595005773007869720458984375</LatitudeDegrees>
              <LongitudeDegrees>-3.82870023138821125030517578125</LongitudeDegrees>
            </Position>
            <AltitudeMeters>68</AltitudeMeters>
            <DistanceMeters>NAN</DistanceMeters>
          </Trackpoint>
          <Trackpoint>
            <Time>2022-07-13T17:30:46.000Z</Time>
            <Position>
              <LatitudeDegrees>43.45954122953116893768310546875</LatitudeDegrees>
              <LongitudeDegrees>-3.828733004629611968994140625</LongitudeDegrees>
            </Position>
            <AltitudeMeters>68.40000152587890625</AltitudeMeters>
            <DistanceMeters>NAN</DistanceMeters>
          </Trackpoint>
          <Trackpoint>
            <Time>2022-07-13T17:30:47.000Z</Time>
            <Position>
              <LatitudeDegrees>43.45955229364335536956787109375</LatitudeDegrees>
              <LongitudeDegrees>-3.8287420570850372314453125</LongitudeDegrees>
            </Position>
            <AltitudeMeters>68.40000152587890625</AltitudeMeters>
            <DistanceMeters>NAN</DistanceMeters>
          </Trackpoint>
          <Trackpoint>
            <Time>2022-07-13T17:30:49.000Z</Time>
            <Position>
              <LatitudeDegrees>43.459575176239013671875</LatitudeDegrees>
              <LongitudeDegrees>-3.8287643529474735260009765625</LongitudeDegrees>
            </Position>
            <AltitudeMeters>68.8000030517578125</AltitudeMeters>
            <DistanceMeters>NAN</DistanceMeters>
          </Trackpoint>
          <Trackpoint>
            <Time>2022-07-13T17:30:52.000Z</Time>
            <Position>
              <LatitudeDegrees>43.45961012877523899078369140625</LatitudeDegrees>
              <LongitudeDegrees>-3.82879913784563541412353515625</LongitudeDegrees>
            </Position>
            <AltitudeMeters>69.1999969482421875</AltitudeMeters>
            <DistanceMeters>NAN</DistanceMeters>
          </Trackpoint>
          <Trackpoint>
            <Time>2022-07-13T17:30:56.000Z</Time>
            <Position>
              <LatitudeDegrees>43.45967181958258152008056640625</LatitudeDegrees>
              <LongitudeDegrees>-3.828828223049640655517578125</LongitudeDegrees>
            </Position>
            <AltitudeMeters>69.59999847412109375</AltitudeMeters>
            <DistanceMeters>NAN</DistanceMeters>
          </Trackpoint>
          <Trackpoint>
            <Time>2022-07-13T17:30:58.000Z</Time>
            <Position>
              <LatitudeDegrees>43.45970031805336475372314453125</LatitudeDegrees>
              <LongitudeDegrees>-3.82884305901825428009033203125</LongitudeDegrees>
            </Position>
            <AltitudeMeters>69.8000030517578125</AltitudeMeters>
            <DistanceMeters>NAN</DistanceMeters>
          </Trackpoint>
          <Trackpoint>
            <Time>2022-07-13T17:31:04.000Z</Time>
            <Position>
              <LatitudeDegrees>43.459778688848018646240234375</LatitudeDegrees>
              <LongitudeDegrees>-3.8288746587932109832763671875</LongitudeDegrees>
            </Position>
            <AltitudeMeters>70.40000152587890625</AltitudeMeters>
            <DistanceMeters>NAN</DistanceMeters>
          </Trackpoint>
          <Trackpoint>
            <Time>2022-07-13T17:31:06.000Z</Time>
            <Position>
              <LatitudeDegrees>43.45980073325335979461669921875</LatitudeDegrees>
              <LongitudeDegrees>-3.828873150050640106201171875</LongitudeDegrees>
            </Position>
            <AltitudeMeters>70.8000030517578125</AltitudeMeters>
            <DistanceMeters>NAN</DistanceMeters>
          </Trackpoint>
          <Trackpoint>
            <Time>2022-07-13T17:31:08.000Z</Time>
            <Position>
              <LatitudeDegrees>43.45983576960861682891845703125</LatitudeDegrees>
              <LongitudeDegrees>-3.82886954583227634429931640625</LongitudeDegrees>
            </Position>
            <AltitudeMeters>71</AltitudeMeters>
            <DistanceMeters>NAN</DistanceMeters>
          </Trackpoint>
          <Trackpoint>
            <Time>2022-07-13T17:31:12.000Z</Time>
            <Position>
              <LatitudeDegrees>43.45992394722998142242431640625</LatitudeDegrees>
              <LongitudeDegrees>-3.82885538041591644287109375</LongitudeDegrees>
            </Position>
            <AltitudeMeters>71.59999847412109375</AltitudeMeters>
            <DistanceMeters>NAN</DistanceMeters>
          </Trackpoint>
          <Trackpoint>
            <Time>2022-07-13T17:31:14.000Z</Time>
            <Position>
              <LatitudeDegrees>43.45994154922664165496826171875</LatitudeDegrees>
              <LongitudeDegrees>-3.8288585655391216278076171875</LongitudeDegrees>
            </Position>
            <AltitudeMeters>71.59999847412109375</AltitudeMeters>
            <DistanceMeters>NAN</DistanceMeters>
          </Trackpoint>
          <Trackpoint>
            <Time>2022-07-13T17:31:18.000Z</Time>
            <Position>
              <LatitudeDegrees>43.45998362638056278228759765625</LatitudeDegrees>
              <LongitudeDegrees>-3.828893266618251800537109375</LongitudeDegrees>
            </Position>
            <AltitudeMeters>72.1999969482421875</AltitudeMeters>
            <DistanceMeters>NAN</DistanceMeters>
          </Trackpoint>
          <Trackpoint>
            <Time>2022-07-13T17:31:23.000Z</Time>
            <Position>
              <LatitudeDegrees>43.46005202271044254302978515625</LatitudeDegrees>
              <LongitudeDegrees>-3.8289591483771800994873046875</LongitudeDegrees>
            </Position>
            <AltitudeMeters>72.8000030517578125</AltitudeMeters>
            <DistanceMeters>NAN</DistanceMeters>
          </Trackpoint>
          <Trackpoint>
            <Time>2022-07-13T17:31:26.000Z</Time>
            <Position>
              <LatitudeDegrees>43.460088483989238739013671875</LatitudeDegrees>
              <LongitudeDegrees>-3.82898203097283840179443359375</LongitudeDegrees>
            </Position>
            <AltitudeMeters>73.1999969482421875</AltitudeMeters>
            <DistanceMeters>NAN</DistanceMeters>
          </Trackpoint>
          <Trackpoint>
            <Time>2022-07-13T17:31:27.000Z</Time>
            <Position>
              <LatitudeDegrees>43.4601008892059326171875</LatitudeDegrees>
              <LongitudeDegrees>-3.82899343036115169525146484375</LongitudeDegrees>
            </Position>
            <AltitudeMeters>73.40000152587890625</AltitudeMeters>
            <DistanceMeters>NAN</DistanceMeters>
          </Trackpoint>
          <Trackpoint>
            <Time>2022-07-13T17:31:32.000Z</Time>
            <Position>
              <LatitudeDegrees>43.4601828642189502716064453125</LatitudeDegrees>
              <LongitudeDegrees>-3.82905042730271816253662109375</LongitudeDegrees>
            </Position>
            <AltitudeMeters>74.1999969482421875</AltitudeMeters>
            <DistanceMeters>NAN</DistanceMeters>
          </Trackpoint>
          <Trackpoint>
            <Time>2022-07-13T17:31:33.000Z</Time>
            <Position>
              <LatitudeDegrees>43.460203148424625396728515625</LatitudeDegrees>
              <LongitudeDegrees>-3.829050846397876739501953125</LongitudeDegrees>
            </Position>
            <AltitudeMeters>74.40000152587890625</AltitudeMeters>
            <DistanceMeters>NAN</DistanceMeters>
          </Trackpoint>
          <Trackpoint>
            <Time>2022-07-13T17:31:35.000Z</Time>
            <Position>
              <LatitudeDegrees>43.460231982171535491943359375</LatitudeDegrees>
              <LongitudeDegrees>-3.82905914448201656341552734375</LongitudeDegrees>
            </Position>
            <AltitudeMeters>74.8000030517578125</AltitudeMeters>
            <DistanceMeters>NAN</DistanceMeters>
          </Trackpoint>
          <Trackpoint>
            <Time>2022-07-13T17:31:38.000Z</Time>
            <Position>
              <LatitudeDegrees>43.46027816645801067352294921875</LatitudeDegrees>
              <LongitudeDegrees>-3.82907959632575511932373046875</LongitudeDegrees>
            </Position>
            <AltitudeMeters>75</AltitudeMeters>
            <DistanceMeters>NAN</DistanceMeters>
          </Trackpoint>
          <Trackpoint>
            <Time>2022-07-13T17:31:39.000Z</Time>
            <Position>
              <LatitudeDegrees>43.46028663218021392822265625</LatitudeDegrees>
              <LongitudeDegrees>-3.82908873260021209716796875</LongitudeDegrees>
            </Position>
            <AltitudeMeters>75</AltitudeMeters>
            <DistanceMeters>NAN</DistanceMeters>
          </Trackpoint>
          <Trackpoint>
            <Time>2022-07-13T17:31:40.000Z</Time>
            <Position>
              <LatitudeDegrees>43.46029593609273433685302734375</LatitudeDegrees>
              <LongitudeDegrees>-3.82909803651273250579833984375</LongitudeDegrees>
            </Position>
            <AltitudeMeters>75.1999969482421875</AltitudeMeters>
            <DistanceMeters>NAN</DistanceMeters>
          </Trackpoint>
          <Trackpoint>
            <Time>2022-07-13T17:31:41.000Z</Time>
            <Position>
              <LatitudeDegrees>43.46030834130942821502685546875</LatitudeDegrees>
              <LongitudeDegrees>-3.82910616695880889892578125</LongitudeDegrees>
            </Position>
            <AltitudeMeters>75.40000152587890625</AltitudeMeters>
            <DistanceMeters>NAN</DistanceMeters>
          </Trackpoint>
          <Trackpoint>
            <Time>2022-07-13T17:31:44.000Z</Time>
            <Position>
              <LatitudeDegrees>43.460342623293399810791015625</LatitudeDegrees>
              <LongitudeDegrees>-3.82914128713309764862060546875</LongitudeDegrees>
            </Position>
            <AltitudeMeters>76</AltitudeMeters>
            <DistanceMeters>NAN</DistanceMeters>
          </Trackpoint>
          <Trackpoint>
            <Time>2022-07-13T17:31:45.000Z</Time>
            <Position>
              <LatitudeDegrees>43.460350669920444488525390625</LatitudeDegrees>
              <LongitudeDegrees>-3.82915335707366466522216796875</LongitudeDegrees>
            </Position>
            <AltitudeMeters>76</AltitudeMeters>
            <DistanceMeters>NAN</DistanceMeters>
          </Trackpoint>
          <Trackpoint>
            <Time>2022-07-13T17:31:48.000Z</Time>
            <Position>
              <LatitudeDegrees>43.46037589944899082183837890625</LatitudeDegrees>
              <LongitudeDegrees>-3.829192332923412322998046875</LongitudeDegrees>
            </Position>
            <AltitudeMeters>76.40000152587890625</AltitudeMeters>
            <DistanceMeters>NAN</DistanceMeters>
          </Trackpoint>
          <Trackpoint>
            <Time>2022-07-13T17:31:49.000Z</Time>
            <Position>
              <LatitudeDegrees>43.4603892266750335693359375</LatitudeDegrees>
              <LongitudeDegrees>-3.829204402863979339599609375</LongitudeDegrees>
            </Position>
            <AltitudeMeters>76.40000152587890625</AltitudeMeters>
            <DistanceMeters>NAN</DistanceMeters>
          </Trackpoint>
          <Trackpoint>
            <Time>2022-07-13T17:31:55.000Z</Time>
            <Position>
              <LatitudeDegrees>43.460461981594562530517578125</LatitudeDegrees>
              <LongitudeDegrees>-3.8292275369167327880859375</LongitudeDegrees>
            </Position>
            <AltitudeMeters>77</AltitudeMeters>
            <DistanceMeters>NAN</DistanceMeters>
          </Trackpoint>
          <Trackpoint>
            <Time>2022-07-13T17:31:57.000Z</Time>
            <Position>
              <LatitudeDegrees>43.460490815341472625732421875</LatitudeDegrees>
              <LongitudeDegrees>-3.8292283751070499420166015625</LongitudeDegrees>
            </Position>
            <AltitudeMeters>77.40000152587890625</AltitudeMeters>
            <DistanceMeters>NAN</DistanceMeters>
          </Trackpoint>
          <Trackpoint>
            <Time>2022-07-13T17:31:58.000Z</Time>
            <Position>
              <LatitudeDegrees>43.46050523221492767333984375</LatitudeDegrees>
              <LongitudeDegrees>-3.82923197932541370391845703125</LongitudeDegrees>
            </Position>
            <AltitudeMeters>77.40000152587890625</AltitudeMeters>
            <DistanceMeters>NAN</DistanceMeters>
          </Trackpoint>
          <Trackpoint>
            <Time>2022-07-13T17:32:00.000Z</Time>
            <Position>
              <LatitudeDegrees>43.46053113229572772979736328125</LatitudeDegrees>
              <LongitudeDegrees>-3.829250335693359375</LongitudeDegrees>
            </Position>
            <AltitudeMeters>77.59999847412109375</AltitudeMeters>
            <DistanceMeters>NAN</DistanceMeters>
          </Trackpoint>
          <Trackpoint>
            <Time>2022-07-13T17:32:01.000Z</Time>
            <Position>
              <LatitudeDegrees>43.46054420806467533111572265625</LatitudeDegrees>
              <LongitudeDegrees>-3.8292555324733257293701171875</LongitudeDegrees>
            </Position>
            <AltitudeMeters>77.8000030517578125</AltitudeMeters>
            <DistanceMeters>NAN</DistanceMeters>
          </Trackpoint>
          <Trackpoint>
            <Time>2022-07-13T17:32:02.000Z</Time>
            <Position>
              <LatitudeDegrees>43.46055644564330577850341796875</LatitudeDegrees>
              <LongitudeDegrees>-3.82927154190838336944580078125</LongitudeDegrees>
            </Position>
            <AltitudeMeters>78</AltitudeMeters>
            <DistanceMeters>NAN</DistanceMeters>
          </Trackpoint>
          <Trackpoint>
            <Time>2022-07-13T17:32:04.000Z</Time>
            <Position>
              <LatitudeDegrees>43.46058594994246959686279296875</LatitudeDegrees>
              <LongitudeDegrees>-3.8293021358549594879150390625</LongitudeDegrees>
            </Position>
            <AltitudeMeters>78.1999969482421875</AltitudeMeters>
            <DistanceMeters>NAN</DistanceMeters>
          </Trackpoint>
          <Trackpoint>
            <Time>2022-07-13T17:32:05.000Z</Time>
            <Position>
              <LatitudeDegrees>43.46060204319655895233154296875</LatitudeDegrees>
              <LongitudeDegrees>-3.82930942811071872711181640625</LongitudeDegrees>
            </Position>
            <AltitudeMeters>78.1999969482421875</AltitudeMeters>
            <DistanceMeters>NAN</DistanceMeters>
          </Trackpoint>
          <Trackpoint>
            <Time>2022-07-13T17:32:07.000Z</Time>
            <Position>
              <LatitudeDegrees>43.4606328047811985015869140625</LatitudeDegrees>
              <LongitudeDegrees>-3.8293534331023693084716796875</LongitudeDegrees>
            </Position>
            <AltitudeMeters>78.59999847412109375</AltitudeMeters>
            <DistanceMeters>NAN</DistanceMeters>
          </Trackpoint>
          <Trackpoint>
            <Time>2022-07-13T17:32:11.000Z</Time>
            <Position>
              <LatitudeDegrees>43.4607030451297760009765625</LatitudeDegrees>
              <LongitudeDegrees>-3.82939961738884449005126953125</LongitudeDegrees>
            </Position>
            <AltitudeMeters>78.8000030517578125</AltitudeMeters>
            <DistanceMeters>NAN</DistanceMeters>
          </Trackpoint>
          <Trackpoint>
            <Time>2022-07-13T17:32:16.000Z</Time>
            <Position>
              <LatitudeDegrees>43.4607501514256000518798828125</LatitudeDegrees>
              <LongitudeDegrees>-3.82953288964927196502685546875</LongitudeDegrees>
            </Position>
            <AltitudeMeters>79.59999847412109375</AltitudeMeters>
            <DistanceMeters>NAN</DistanceMeters>
          </Trackpoint>
          <Trackpoint>
            <Time>2022-07-13T17:32:21.000Z</Time>
            <Position>
              <LatitudeDegrees>43.4607856906950473785400390625</LatitudeDegrees>
              <LongitudeDegrees>-3.8296548463404178619384765625</LongitudeDegrees>
            </Position>
            <AltitudeMeters>80.40000152587890625</AltitudeMeters>
            <DistanceMeters>NAN</DistanceMeters>
          </Trackpoint>
          <Trackpoint>
            <Time>2022-07-13T17:32:23.000Z</Time>
            <Position>
              <LatitudeDegrees>43.4607982635498046875</LatitudeDegrees>
              <LongitudeDegrees>-3.82970564067363739013671875</LongitudeDegrees>
            </Position>
            <AltitudeMeters>80.59999847412109375</AltitudeMeters>
            <DistanceMeters>NAN</DistanceMeters>
          </Trackpoint>
          <Trackpoint>
            <Time>2022-07-13T17:32:24.000Z</Time>
            <Position>
              <LatitudeDegrees>43.46080907620489597320556640625</LatitudeDegrees>
              <LongitudeDegrees>-3.8297249190509319305419921875</LongitudeDegrees>
            </Position>
            <AltitudeMeters>80.59999847412109375</AltitudeMeters>
            <DistanceMeters>NAN</DistanceMeters>
          </Trackpoint>
          <Trackpoint>
            <Time>2022-07-13T17:32:30.000Z</Time>
            <Position>
              <LatitudeDegrees>43.46087403595447540283203125</LatitudeDegrees>
              <LongitudeDegrees>-3.829843439161777496337890625</LongitudeDegrees>
            </Position>
            <AltitudeMeters>81</AltitudeMeters>
            <DistanceMeters>NAN</DistanceMeters>
          </Trackpoint>
          <Trackpoint>
            <Time>2022-07-13T17:32:36.000Z</Time>
            <Position>
              <LatitudeDegrees>43.460974283516407012939453125</LatitudeDegrees>
              <LongitudeDegrees>-3.8299793936312198638916015625</LongitudeDegrees>
            </Position>
            <AltitudeMeters>81.40000152587890625</AltitudeMeters>
            <DistanceMeters>NAN</DistanceMeters>
          </Trackpoint>
          <Trackpoint>
            <Time>2022-07-13T17:32:38.000Z</Time>
            <Position>
              <LatitudeDegrees>43.46100605092942714691162109375</LatitudeDegrees>
              <LongitudeDegrees>-3.8300135917961597442626953125</LongitudeDegrees>
            </Position>
            <AltitudeMeters>81.40000152587890625</AltitudeMeters>
            <DistanceMeters>NAN</DistanceMeters>
          </Trackpoint>
          <Trackpoint>
            <Time>2022-07-13T17:32:43.000Z</Time>
            <Position>
              <LatitudeDegrees>43.461079560220241546630859375</LatitudeDegrees>
              <LongitudeDegrees>-3.83006379939615726470947265625</LongitudeDegrees>
            </Position>
            <AltitudeMeters>81.59999847412109375</AltitudeMeters>
            <DistanceMeters>NAN</DistanceMeters>
          </Trackpoint>
          <Trackpoint>
            <Time>2022-07-13T17:32:44.000Z</Time>
            <Position>
              <LatitudeDegrees>43.46109154634177684783935546875</LatitudeDegrees>
              <LongitudeDegrees>-3.83007084019482135772705078125</LongitudeDegrees>
            </Position>
            <AltitudeMeters>81.59999847412109375</AltitudeMeters>
            <DistanceMeters>NAN</DistanceMeters>
          </Trackpoint>
          <Trackpoint>
            <Time>2022-07-13T17:32:45.000Z</Time>
            <Position>
              <LatitudeDegrees>43.46110143698751926422119140625</LatitudeDegrees>
              <LongitudeDegrees>-3.83008291013538837432861328125</LongitudeDegrees>
            </Position>
            <AltitudeMeters>81.59999847412109375</AltitudeMeters>
            <DistanceMeters>NAN</DistanceMeters>
          </Trackpoint>
          <Trackpoint>
            <Time>2022-07-13T17:32:50.000Z</Time>
            <Position>
              <LatitudeDegrees>43.46120201982557773590087890625</LatitudeDegrees>
              <LongitudeDegrees>-3.8300984166562557220458984375</LongitudeDegrees>
            </Position>
            <AltitudeMeters>81.40000152587890625</AltitudeMeters>
            <DistanceMeters>NAN</DistanceMeters>
          </Trackpoint>
          <Trackpoint>
            <Time>2022-07-13T17:32:55.000Z</Time>
            <Position>
              <LatitudeDegrees>43.46129036508500576019287109375</LatitudeDegrees>
              <LongitudeDegrees>-3.83014418184757232666015625</LongitudeDegrees>
            </Position>
            <AltitudeMeters>81.1999969482421875</AltitudeMeters>
            <DistanceMeters>NAN</DistanceMeters>
          </Trackpoint>
          <Trackpoint>
            <Time>2022-07-13T17:32:57.000Z</Time>
            <Position>
              <LatitudeDegrees>43.461320288479328155517578125</LatitudeDegrees>
              <LongitudeDegrees>-3.83013655431568622589111328125</LongitudeDegrees>
            </Position>
            <AltitudeMeters>81</AltitudeMeters>
            <DistanceMeters>NAN</DistanceMeters>
          </Trackpoint>
          <Trackpoint>
            <Time>2022-07-13T17:33:03.000Z</Time>
            <Position>
              <LatitudeDegrees>43.46140318550169467926025390625</LatitudeDegrees>
              <LongitudeDegrees>-3.83012934587895870208740234375</LongitudeDegrees>
            </Position>
            <AltitudeMeters>80.59999847412109375</AltitudeMeters>
            <DistanceMeters>NAN</DistanceMeters>
          </Trackpoint>
          <Trackpoint>
            <Time>2022-07-13T17:33:06.000Z</Time>
            <Position>
              <LatitudeDegrees>43.4614884294569492340087890625</LatitudeDegrees>
              <LongitudeDegrees>-3.83015885017812252044677734375</LongitudeDegrees>
            </Position>
            <AltitudeMeters>80</AltitudeMeters>
            <DistanceMeters>NAN</DistanceMeters>
          </Trackpoint>
          <Trackpoint>
            <Time>2022-07-13T17:33:08.000Z</Time>
            <Position>
              <LatitudeDegrees>43.46155908890068531036376953125</LatitudeDegrees>
              <LongitudeDegrees>-3.83019673638045787811279296875</LongitudeDegrees>
            </Position>
            <AltitudeMeters>79.40000152587890625</AltitudeMeters>
            <DistanceMeters>NAN</DistanceMeters>
          </Trackpoint>
          <Trackpoint>
            <Time>2022-07-13T17:33:12.000Z</Time>
            <Position>
              <LatitudeDegrees>43.46172572113573551177978515625</LatitudeDegrees>
              <LongitudeDegrees>-3.83030486293137073516845703125</LongitudeDegrees>
            </Position>
            <AltitudeMeters>78.40000152587890625</AltitudeMeters>
            <DistanceMeters>NAN</DistanceMeters>
          </Trackpoint>
          <Trackpoint>
            <Time>2022-07-13T17:33:13.000Z</Time>
            <Position>
              <LatitudeDegrees>43.46176679246127605438232421875</LatitudeDegrees>
              <LongitudeDegrees>-3.83033704943954944610595703125</LongitudeDegrees>
            </Position>
            <AltitudeMeters>77.8000030517578125</AltitudeMeters>
            <DistanceMeters>NAN</DistanceMeters>
          </Trackpoint>
          <Trackpoint>
            <Time>2022-07-13T17:33:14.000Z</Time>
            <Position>
              <LatitudeDegrees>43.46180719323456287384033203125</LatitudeDegrees>
              <LongitudeDegrees>-3.830368481576442718505859375</LongitudeDegrees>
            </Position>
            <AltitudeMeters>77.59999847412109375</AltitudeMeters>
            <DistanceMeters>NAN</DistanceMeters>
          </Trackpoint>
          <Trackpoint>
            <Time>2022-07-13T17:33:15.000Z</Time>
            <Position>
              <LatitudeDegrees>43.4618471749126911163330078125</LatitudeDegrees>
              <LongitudeDegrees>-3.830398656427860260009765625</LongitudeDegrees>
            </Position>
            <AltitudeMeters>77</AltitudeMeters>
            <DistanceMeters>NAN</DistanceMeters>
          </Trackpoint>
          <Trackpoint>
            <Time>2022-07-13T17:33:18.000Z</Time>
            <Position>
              <LatitudeDegrees>43.46196544356644153594970703125</LatitudeDegrees>
              <LongitudeDegrees>-3.83048222400248050689697265625</LongitudeDegrees>
            </Position>
            <AltitudeMeters>75.59999847412109375</AltitudeMeters>
            <DistanceMeters>NAN</DistanceMeters>
          </Trackpoint>
          <Trackpoint>
            <Time>2022-07-13T17:33:20.000Z</Time>
            <Position>
              <LatitudeDegrees>43.4620446525514125823974609375</LatitudeDegrees>
              <LongitudeDegrees>-3.83053368888795375823974609375</LongitudeDegrees>
            </Position>
            <AltitudeMeters>74.8000030517578125</AltitudeMeters>
            <DistanceMeters>NAN</DistanceMeters>
          </Trackpoint>
          <Trackpoint>
            <Time>2022-07-13T17:33:21.000Z</Time>
            <Position>
              <LatitudeDegrees>43.46208798699080944061279296875</LatitudeDegrees>
              <LongitudeDegrees>-3.8305574096739292144775390625</LongitudeDegrees>
            </Position>
            <AltitudeMeters>74.40000152587890625</AltitudeMeters>
            <DistanceMeters>NAN</DistanceMeters>
          </Trackpoint>
          <Trackpoint>
            <Time>2022-07-13T17:33:24.000Z</Time>
            <Position>
              <LatitudeDegrees>43.4622032381594181060791015625</LatitudeDegrees>
              <LongitudeDegrees>-3.8306278176605701446533203125</LongitudeDegrees>
            </Position>
            <AltitudeMeters>73.40000152587890625</AltitudeMeters>
            <DistanceMeters>NAN</DistanceMeters>
          </Trackpoint>
          <Trackpoint>
            <Time>2022-07-13T17:33:25.000Z</Time>
            <Position>
              <LatitudeDegrees>43.46223232336342334747314453125</LatitudeDegrees>
              <LongitudeDegrees>-3.83064852096140384674072265625</LongitudeDegrees>
            </Position>
            <AltitudeMeters>72.8000030517578125</AltitudeMeters>
            <DistanceMeters>NAN</DistanceMeters>
          </Trackpoint>
          <Trackpoint>
            <Time>2022-07-13T17:33:27.000Z</Time>
            <Position>
              <LatitudeDegrees>43.46227775327861309051513671875</LatitudeDegrees>
              <LongitudeDegrees>-3.83068037219345569610595703125</LongitudeDegrees>
            </Position>
            <AltitudeMeters>71.59999847412109375</AltitudeMeters>
            <DistanceMeters>NAN</DistanceMeters>
          </Trackpoint>
          <Trackpoint>
            <Time>2022-07-13T17:33:31.000Z</Time>
            <Position>
              <LatitudeDegrees>43.46231832168996334075927734375</LatitudeDegrees>
              <LongitudeDegrees>-3.8307193480432033538818359375</LongitudeDegrees>
            </Position>
            <AltitudeMeters>70.40000152587890625</AltitudeMeters>
            <DistanceMeters>NAN</DistanceMeters>
          </Trackpoint>
          <Trackpoint>
            <Time>2022-07-13T17:33:32.000Z</Time>
            <Position>
              <LatitudeDegrees>43.4623309783637523651123046875</LatitudeDegrees>
              <LongitudeDegrees>-3.8307273946702480316162109375</LongitudeDegrees>
            </Position>
            <AltitudeMeters>70.40000152587890625</AltitudeMeters>
            <DistanceMeters>NAN</DistanceMeters>
          </Trackpoint>
          <Trackpoint>
            <Time>2022-07-13T17:33:33.000Z</Time>
            <Position>
              <LatitudeDegrees>43.46233290620148181915283203125</LatitudeDegrees>
              <LongitudeDegrees>-3.8307468406856060028076171875</LongitudeDegrees>
            </Position>
            <AltitudeMeters>70.1999969482421875</AltitudeMeters>
            <DistanceMeters>NAN</DistanceMeters>
          </Trackpoint>
          <Trackpoint>
            <Time>2022-07-13T17:33:36.000Z</Time>
            <Position>
              <LatitudeDegrees>43.4622910805046558380126953125</LatitudeDegrees>
              <LongitudeDegrees>-3.83082638494670391082763671875</LongitudeDegrees>
            </Position>
            <AltitudeMeters>70.1999969482421875</AltitudeMeters>
            <DistanceMeters>NAN</DistanceMeters>
          </Trackpoint>
          <Trackpoint>
            <Time>2022-07-13T17:33:43.000Z</Time>
            <Position>
              <LatitudeDegrees>43.46218672581017017364501953125</LatitudeDegrees>
              <LongitudeDegrees>-3.8310635089874267578125</LongitudeDegrees>
            </Position>
            <AltitudeMeters>70.1999969482421875</AltitudeMeters>
            <DistanceMeters>NAN</DistanceMeters>
          </Trackpoint>
          <Trackpoint>
            <Time>2022-07-13T17:33:44.000Z</Time>
            <Position>
              <LatitudeDegrees>43.46217214129865169525146484375</LatitudeDegrees>
              <LongitudeDegrees>-3.83110709488391876220703125</LongitudeDegrees>
            </Position>
            <AltitudeMeters>70.40000152587890625</AltitudeMeters>
            <DistanceMeters>NAN</DistanceMeters>
          </Trackpoint>
          <Trackpoint>
            <Time>2022-07-13T17:33:48.000Z</Time>
            <Position>
              <LatitudeDegrees>43.46212034113705158233642578125</LatitudeDegrees>
              <LongitudeDegrees>-3.831281103193759918212890625</LongitudeDegrees>
            </Position>
            <AltitudeMeters>70.59999847412109375</AltitudeMeters>
            <DistanceMeters>NAN</DistanceMeters>
          </Trackpoint>
          <Trackpoint>
            <Time>2022-07-13T17:33:49.000Z</Time>
            <Position>
              <LatitudeDegrees>43.4621093608438968658447265625</LatitudeDegrees>
              <LongitudeDegrees>-3.83132024668157100677490234375</LongitudeDegrees>
            </Position>
            <AltitudeMeters>70.59999847412109375</AltitudeMeters>
            <DistanceMeters>NAN</DistanceMeters>
          </Trackpoint>
          <Trackpoint>
            <Time>2022-07-13T17:33:53.000Z</Time>
            <Position>
              <LatitudeDegrees>43.46204741857945919036865234375</LatitudeDegrees>
              <LongitudeDegrees>-3.83151118643581867218017578125</LongitudeDegrees>
            </Position>
            <AltitudeMeters>70.59999847412109375</AltitudeMeters>
            <DistanceMeters>NAN</DistanceMeters>
          </Trackpoint>
          <Trackpoint>
            <Time>2022-07-13T17:33:56.000Z</Time>
            <Position>
              <LatitudeDegrees>43.461994864046573638916015625</LatitudeDegrees>
              <LongitudeDegrees>-3.831646554172039031982421875</LongitudeDegrees>
            </Position>
            <AltitudeMeters>70.40000152587890625</AltitudeMeters>
            <DistanceMeters>NAN</DistanceMeters>
          </Trackpoint>
          <Trackpoint>
            <Time>2022-07-13T17:34:00.000Z</Time>
            <Position>
              <LatitudeDegrees>43.4619202651083469390869140625</LatitudeDegrees>
              <LongitudeDegrees>-3.831800110638141632080078125</LongitudeDegrees>
            </Position>
            <AltitudeMeters>70.40000152587890625</AltitudeMeters>
            <DistanceMeters>NAN</DistanceMeters>
          </Trackpoint>
          <Trackpoint>
            <Time>2022-07-13T17:34:06.000Z</Time>
            <Position>
              <LatitudeDegrees>43.4618679620325565338134765625</LatitudeDegrees>
              <LongitudeDegrees>-3.83204863406717777252197265625</LongitudeDegrees>
            </Position>
            <AltitudeMeters>70.1999969482421875</AltitudeMeters>
            <DistanceMeters>NAN</DistanceMeters>
          </Trackpoint>
          <Trackpoint>
            <Time>2022-07-13T17:34:08.000Z</Time>
            <Position>
              <LatitudeDegrees>43.46189729869365692138671875</LatitudeDegrees>
              <LongitudeDegrees>-3.83212742395699024200439453125</LongitudeDegrees>
            </Position>
            <AltitudeMeters>70.1999969482421875</AltitudeMeters>
            <DistanceMeters>NAN</DistanceMeters>
          </Trackpoint>
          <Trackpoint>
            <Time>2022-07-13T17:34:09.000Z</Time>
            <Position>
              <LatitudeDegrees>43.4619229473173618316650390625</LatitudeDegrees>
              <LongitudeDegrees>-3.83215893991291522979736328125</LongitudeDegrees>
            </Position>
            <AltitudeMeters>70.1999969482421875</AltitudeMeters>
            <DistanceMeters>NAN</DistanceMeters>
          </Trackpoint>
          <Trackpoint>
            <Time>2022-07-13T17:34:14.000Z</Time>
            <Position>
              <LatitudeDegrees>43.46211715601384639739990234375</LatitudeDegrees>
              <LongitudeDegrees>-3.8322933018207550048828125</LongitudeDegrees>
            </Position>
            <AltitudeMeters>69.1999969482421875</AltitudeMeters>
            <DistanceMeters>NAN</DistanceMeters>
          </Trackpoint>
          <Trackpoint>
            <Time>2022-07-13T17:34:18.000Z</Time>
            <Position>
              <LatitudeDegrees>43.46228295005857944488525390625</LatitudeDegrees>
              <LongitudeDegrees>-3.832386843860149383544921875</LongitudeDegrees>
            </Position>
            <AltitudeMeters>68.1999969482421875</AltitudeMeters>
            <DistanceMeters>NAN</DistanceMeters>
          </Trackpoint>
          <Trackpoint>
            <Time>2022-07-13T17:34:19.000Z</Time>
            <Position>
              <LatitudeDegrees>43.46232754178345203399658203125</LatitudeDegrees>
              <LongitudeDegrees>-3.8323957286775112152099609375</LongitudeDegrees>
            </Position>
            <AltitudeMeters>67.8000030517578125</AltitudeMeters>
            <DistanceMeters>NAN</DistanceMeters>
          </Trackpoint>
          <Trackpoint>
            <Time>2022-07-13T17:34:20.000Z</Time>
            <Position>
              <LatitudeDegrees>43.4623718820512294769287109375</LatitudeDegrees>
              <LongitudeDegrees>-3.8324188627302646636962890625</LongitudeDegrees>
            </Position>
            <AltitudeMeters>67.1999969482421875</AltitudeMeters>
            <DistanceMeters>NAN</DistanceMeters>
          </Trackpoint>
          <Trackpoint>
            <Time>2022-07-13T17:34:21.000Z</Time>
            <Position>
              <LatitudeDegrees>43.4624198265373706817626953125</LatitudeDegrees>
              <LongitudeDegrees>-3.83244476281106472015380859375</LongitudeDegrees>
            </Position>
            <AltitudeMeters>66.8000030517578125</AltitudeMeters>
            <DistanceMeters>NAN</DistanceMeters>
          </Trackpoint>
          <Trackpoint>
            <Time>2022-07-13T17:34:22.000Z</Time>
            <Position>
              <LatitudeDegrees>43.46245930530130863189697265625</LatitudeDegrees>
              <LongitudeDegrees>-3.83247091434895992279052734375</LongitudeDegrees>
            </Position>
            <AltitudeMeters>65.8000030517578125</AltitudeMeters>
            <DistanceMeters>NAN</DistanceMeters>
          </Trackpoint>
          <Trackpoint>
            <Time>2022-07-13T17:34:24.000Z</Time>
            <Position>
              <LatitudeDegrees>43.46251512877643108367919921875</LatitudeDegrees>
              <LongitudeDegrees>-3.832505531609058380126953125</LongitudeDegrees>
            </Position>
            <AltitudeMeters>63.799999237060546875</AltitudeMeters>
            <DistanceMeters>NAN</DistanceMeters>
          </Trackpoint>
          <Trackpoint>
            <Time>2022-07-13T17:34:25.000Z</Time>
            <Position>
              <LatitudeDegrees>43.46252619288861751556396484375</LatitudeDegrees>
              <LongitudeDegrees>-3.83251969702541828155517578125</LongitudeDegrees>
            </Position>
            <AltitudeMeters>63</AltitudeMeters>
            <DistanceMeters>NAN</DistanceMeters>
          </Trackpoint>
          <Trackpoint>
            <Time>2022-07-13T17:34:26.000Z</Time>
            <Position>
              <LatitudeDegrees>43.462534658610820770263671875</LatitudeDegrees>
              <LongitudeDegrees>-3.8325291685760021209716796875</LongitudeDegrees>
            </Position>
            <AltitudeMeters>62.59999847412109375</AltitudeMeters>
            <DistanceMeters>NAN</DistanceMeters>
          </Trackpoint>
          <Trackpoint>
            <Time>2022-07-13T17:34:29.000Z</Time>
            <Position>
              <LatitudeDegrees>43.46254077740013599395751953125</LatitudeDegrees>
              <LongitudeDegrees>-3.83253931067883968353271484375</LongitudeDegrees>
            </Position>
            <AltitudeMeters>62</AltitudeMeters>
            <DistanceMeters>NAN</DistanceMeters>
          </Trackpoint>
          <Trackpoint>
            <Time>2022-07-13T17:34:31.000Z</Time>
            <Position>
              <LatitudeDegrees>43.46255443990230560302734375</LatitudeDegrees>
              <LongitudeDegrees>-3.83255682885646820068359375</LongitudeDegrees>
            </Position>
            <AltitudeMeters>62</AltitudeMeters>
            <DistanceMeters>NAN</DistanceMeters>
          </Trackpoint>
          <Trackpoint>
            <Time>2022-07-13T17:34:38.000Z</Time>
            <Position>
              <LatitudeDegrees>43.4624758176505565643310546875</LatitudeDegrees>
              <LongitudeDegrees>-3.83260519243776798248291015625</LongitudeDegrees>
            </Position>
            <AltitudeMeters>62</AltitudeMeters>
            <DistanceMeters>NAN</DistanceMeters>
          </Trackpoint>
          <Trackpoint>
            <Time>2022-07-13T17:34:39.000Z</Time>
            <Position>
              <LatitudeDegrees>43.4624598920345306396484375</LatitudeDegrees>
              <LongitudeDegrees>-3.83262396790087223052978515625</LongitudeDegrees>
            </Position>
            <AltitudeMeters>62</AltitudeMeters>
            <DistanceMeters>NAN</DistanceMeters>
          </Trackpoint>
          <Trackpoint>
            <Time>2022-07-13T17:34:43.000Z</Time>
            <Position>
              <LatitudeDegrees>43.46240851096808910369873046875</LatitudeDegrees>
              <LongitudeDegrees>-3.83272890932857990264892578125</LongitudeDegrees>
            </Position>
            <AltitudeMeters>62.799999237060546875</AltitudeMeters>
            <DistanceMeters>NAN</DistanceMeters>
          </Trackpoint>
          <Trackpoint>
            <Time>2022-07-13T17:34:44.000Z</Time>
            <Position>
              <LatitudeDegrees>43.46240557730197906494140625</LatitudeDegrees>
              <LongitudeDegrees>-3.8327595032751560211181640625</LongitudeDegrees>
            </Position>
            <AltitudeMeters>63</AltitudeMeters>
            <DistanceMeters>NAN</DistanceMeters>
          </Trackpoint>
          <Trackpoint>
            <Time>2022-07-13T17:34:51.000Z</Time>
            <Position>
              <LatitudeDegrees>43.46229552291333675384521484375</LatitudeDegrees>
              <LongitudeDegrees>-3.83300199173390865325927734375</LongitudeDegrees>
            </Position>
            <AltitudeMeters>62.799999237060546875</AltitudeMeters>
            <DistanceMeters>NAN</DistanceMeters>
          </Trackpoint>
          <Trackpoint>
            <Time>2022-07-13T17:34:56.000Z</Time>
            <Position>
              <LatitudeDegrees>43.4621898271143436431884765625</LatitudeDegrees>
              <LongitudeDegrees>-3.83321321569383144378662109375</LongitudeDegrees>
            </Position>
            <AltitudeMeters>62.200000762939453125</AltitudeMeters>
            <DistanceMeters>NAN</DistanceMeters>
          </Trackpoint>
          <Trackpoint>
            <Time>2022-07-13T17:34:58.000Z</Time>
            <Position>
              <LatitudeDegrees>43.4621438942849636077880859375</LatitudeDegrees>
              <LongitudeDegrees>-3.83330742828547954559326171875</LongitudeDegrees>
            </Position>
            <AltitudeMeters>62.200000762939453125</AltitudeMeters>
            <DistanceMeters>NAN</DistanceMeters>
          </Trackpoint>
          <Trackpoint>
            <Time>2022-07-13T17:34:59.000Z</Time>
            <Position>
              <LatitudeDegrees>43.4621475823223590850830078125</LatitudeDegrees>
              <LongitudeDegrees>-3.833371214568614959716796875</LongitudeDegrees>
            </Position>
            <AltitudeMeters>62.200000762939453125</AltitudeMeters>
            <DistanceMeters>NAN</DistanceMeters>
          </Trackpoint>
          <Trackpoint>
            <Time>2022-07-13T17:35:03.000Z</Time>
            <Position>
              <LatitudeDegrees>43.46220633946359157562255859375</LatitudeDegrees>
              <LongitudeDegrees>-3.83356072939932346343994140625</LongitudeDegrees>
            </Position>
            <AltitudeMeters>61.59999847412109375</AltitudeMeters>
            <DistanceMeters>NAN</DistanceMeters>
          </Trackpoint>
          <Trackpoint>
            <Time>2022-07-13T17:35:04.000Z</Time>
            <Position>
              <LatitudeDegrees>43.462210111320018768310546875</LatitudeDegrees>
              <LongitudeDegrees>-3.8335983641445636749267578125</LongitudeDegrees>
            </Position>
            <AltitudeMeters>61.40000152587890625</AltitudeMeters>
            <DistanceMeters>NAN</DistanceMeters>
          </Trackpoint>
          <Trackpoint>
            <Time>2022-07-13T17:35:07.000Z</Time>
            <Position>
              <LatitudeDegrees>43.46218152903020381927490234375</LatitudeDegrees>
              <LongitudeDegrees>-3.8337448798120021820068359375</LongitudeDegrees>
            </Position>
            <AltitudeMeters>60.799999237060546875</AltitudeMeters>
            <DistanceMeters>NAN</DistanceMeters>
          </Trackpoint>
          <Trackpoint>
            <Time>2022-07-13T17:35:08.000Z</Time>
            <Position>
              <LatitudeDegrees>43.462179936468601226806640625</LatitudeDegrees>
              <LongitudeDegrees>-3.833782263100147247314453125</LongitudeDegrees>
            </Position>
            <AltitudeMeters>60.40000152587890625</AltitudeMeters>
            <DistanceMeters>NAN</DistanceMeters>
          </Trackpoint>
          <Trackpoint>
            <Time>2022-07-13T17:35:09.000Z</Time>
            <Position>
              <LatitudeDegrees>43.46218354068696498870849609375</LatitudeDegrees>
              <LongitudeDegrees>-3.83381218649446964263916015625</LongitudeDegrees>
            </Position>
            <AltitudeMeters>59.799999237060546875</AltitudeMeters>
            <DistanceMeters>NAN</DistanceMeters>
          </Trackpoint>
          <Trackpoint>
            <Time>2022-07-13T17:35:10.000Z</Time>
            <Position>
              <LatitudeDegrees>43.46218890510499477386474609375</LatitudeDegrees>
              <LongitudeDegrees>-3.8338293693959712982177734375</LongitudeDegrees>
            </Position>
            <AltitudeMeters>59.40000152587890625</AltitudeMeters>
            <DistanceMeters>NAN</DistanceMeters>
          </Trackpoint>
          <Trackpoint>
            <Time>2022-07-13T17:35:11.000Z</Time>
            <Position>
              <LatitudeDegrees>43.46218655817210674285888671875</LatitudeDegrees>
              <LongitudeDegrees>-3.8338302075862884521484375</LongitudeDegrees>
            </Position>
            <AltitudeMeters>59</AltitudeMeters>
            <DistanceMeters>NAN</DistanceMeters>
          </Trackpoint>
          <Trackpoint>
            <Time>2022-07-13T17:35:12.000Z</Time>
            <Position>
              <LatitudeDegrees>43.4621817804872989654541015625</LatitudeDegrees>
              <LongitudeDegrees>-3.83383087813854217529296875</LongitudeDegrees>
            </Position>
            <AltitudeMeters>58.799999237060546875</AltitudeMeters>
            <DistanceMeters>NAN</DistanceMeters>
          </Trackpoint>
          <Trackpoint>
            <Time>2022-07-13T17:35:36.000Z</Time>
            <Position>
              <LatitudeDegrees>43.46219141967594623565673828125</LatitudeDegrees>
              <LongitudeDegrees>-3.8338892161846160888671875</LongitudeDegrees>
            </Position>
            <AltitudeMeters>58.40000152587890625</AltitudeMeters>
            <DistanceMeters>NAN</DistanceMeters>
          </Trackpoint>
          <Trackpoint>
            <Time>2022-07-13T17:35:37.000Z</Time>
            <Position>
              <LatitudeDegrees>43.4621874801814556121826171875</LatitudeDegrees>
              <LongitudeDegrees>-3.83392869494855403900146484375</LongitudeDegrees>
            </Position>
            <AltitudeMeters>58.59999847412109375</AltitudeMeters>
            <DistanceMeters>NAN</DistanceMeters>
          </Trackpoint>
          <Trackpoint>
            <Time>2022-07-13T17:35:40.000Z</Time>
            <Position>
              <LatitudeDegrees>43.46213869750499725341796875</LatitudeDegrees>
              <LongitudeDegrees>-3.83405392058193683624267578125</LongitudeDegrees>
            </Position>
            <AltitudeMeters>58.59999847412109375</AltitudeMeters>
            <DistanceMeters>NAN</DistanceMeters>
          </Trackpoint>
          <Trackpoint>
            <Time>2022-07-13T17:35:43.000Z</Time>
            <Position>
              <LatitudeDegrees>43.46204607747495174407958984375</LatitudeDegrees>
              <LongitudeDegrees>-3.834157101809978485107421875</LongitudeDegrees>
            </Position>
            <AltitudeMeters>59.200000762939453125</AltitudeMeters>
            <DistanceMeters>NAN</DistanceMeters>
          </Trackpoint>
          <Trackpoint>
            <Time>2022-07-13T17:35:46.000Z</Time>
            <Position>
              <LatitudeDegrees>43.46194130368530750274658203125</LatitudeDegrees>
              <LongitudeDegrees>-3.834287188947200775146484375</LongitudeDegrees>
            </Position>
            <AltitudeMeters>59</AltitudeMeters>
            <DistanceMeters>NAN</DistanceMeters>
          </Trackpoint>
          <Trackpoint>
            <Time>2022-07-13T17:35:50.000Z</Time>
            <Position>
              <LatitudeDegrees>43.4618391282856464385986328125</LatitudeDegrees>
              <LongitudeDegrees>-3.83444619365036487579345703125</LongitudeDegrees>
            </Position>
            <AltitudeMeters>59.200000762939453125</AltitudeMeters>
            <DistanceMeters>NAN</DistanceMeters>
          </Trackpoint>
          <Trackpoint>
            <Time>2022-07-13T17:35:53.000Z</Time>
            <Position>
              <LatitudeDegrees>43.46176561899483203887939453125</LatitudeDegrees>
              <LongitudeDegrees>-3.8345490396022796630859375</LongitudeDegrees>
            </Position>
            <AltitudeMeters>59.59999847412109375</AltitudeMeters>
            <DistanceMeters>NAN</DistanceMeters>
          </Trackpoint>
          <Trackpoint>
            <Time>2022-07-13T17:35:55.000Z</Time>
            <Position>
              <LatitudeDegrees>43.46172806806862354278564453125</LatitudeDegrees>
              <LongitudeDegrees>-3.83461651392281055450439453125</LongitudeDegrees>
            </Position>
            <AltitudeMeters>59.59999847412109375</AltitudeMeters>
            <DistanceMeters>NAN</DistanceMeters>
          </Trackpoint>
          <Trackpoint>
            <Time>2022-07-13T17:36:00.000Z</Time>
            <Position>
              <LatitudeDegrees>43.461699150502681732177734375</LatitudeDegrees>
              <LongitudeDegrees>-3.83479638956487178802490234375</LongitudeDegrees>
            </Position>
            <AltitudeMeters>59</AltitudeMeters>
            <DistanceMeters>NAN</DistanceMeters>
          </Trackpoint>
          <Trackpoint>
            <Time>2022-07-13T17:36:05.000Z</Time>
            <Position>
              <LatitudeDegrees>43.4617657028138637542724609375</LatitudeDegrees>
              <LongitudeDegrees>-3.835038207471370697021484375</LongitudeDegrees>
            </Position>
            <AltitudeMeters>58</AltitudeMeters>
            <DistanceMeters>NAN</DistanceMeters>
          </Trackpoint>
          <Trackpoint>
            <Time>2022-07-13T17:36:06.000Z</Time>
            <Position>
              <LatitudeDegrees>43.46178623847663402557373046875</LatitudeDegrees>
              <LongitudeDegrees>-3.8350935280323028564453125</LongitudeDegrees>
            </Position>
            <AltitudeMeters>57.799999237060546875</AltitudeMeters>
            <DistanceMeters>NAN</DistanceMeters>
          </Trackpoint>
          <Trackpoint>
            <Time>2022-07-13T17:36:09.000Z</Time>
            <Position>
              <LatitudeDegrees>43.461841978132724761962890625</LatitudeDegrees>
              <LongitudeDegrees>-3.835277594625949859619140625</LongitudeDegrees>
            </Position>
            <AltitudeMeters>57.200000762939453125</AltitudeMeters>
            <DistanceMeters>NAN</DistanceMeters>
          </Trackpoint>
          <Trackpoint>
            <Time>2022-07-13T17:36:10.000Z</Time>
            <Position>
              <LatitudeDegrees>43.46186737529933452606201171875</LatitudeDegrees>
              <LongitudeDegrees>-3.83532444946467876434326171875</LongitudeDegrees>
            </Position>
            <AltitudeMeters>57</AltitudeMeters>
            <DistanceMeters>NAN</DistanceMeters>
          </Trackpoint>
          <Trackpoint>
            <Time>2022-07-13T17:36:11.000Z</Time>
            <Position>
              <LatitudeDegrees>43.46189084462821483612060546875</LatitudeDegrees>
              <LongitudeDegrees>-3.8353550434112548828125</LongitudeDegrees>
            </Position>
            <AltitudeMeters>56.59999847412109375</AltitudeMeters>
            <DistanceMeters>NAN</DistanceMeters>
          </Trackpoint>
          <Trackpoint>
            <Time>2022-07-13T17:36:14.000Z</Time>
            <Position>
              <LatitudeDegrees>43.46189805306494235992431640625</LatitudeDegrees>
              <LongitudeDegrees>-3.83539401926100254058837890625</LongitudeDegrees>
            </Position>
            <AltitudeMeters>55.799999237060546875</AltitudeMeters>
            <DistanceMeters>NAN</DistanceMeters>
          </Trackpoint>
          <Trackpoint>
            <Time>2022-07-13T17:36:19.000Z</Time>
            <Position>
              <LatitudeDegrees>43.46189956180751323699951171875</LatitudeDegrees>
              <LongitudeDegrees>-3.83538563735783100128173828125</LongitudeDegrees>
            </Position>
            <AltitudeMeters>55.59999847412109375</AltitudeMeters>
            <DistanceMeters>NAN</DistanceMeters>
          </Trackpoint>
          <Trackpoint>
            <Time>2022-07-13T17:36:33.000Z</Time>
            <Position>
              <LatitudeDegrees>43.46189687959849834442138671875</LatitudeDegrees>
              <LongitudeDegrees>-3.83543408475816249847412109375</LongitudeDegrees>
            </Position>
            <AltitudeMeters>55.40000152587890625</AltitudeMeters>
            <DistanceMeters>NAN</DistanceMeters>
          </Trackpoint>
          <Trackpoint>
            <Time>2022-07-13T17:36:38.000Z</Time>
            <Position>
              <LatitudeDegrees>43.46196963451802730560302734375</LatitudeDegrees>
              <LongitudeDegrees>-3.8356368429958820343017578125</LongitudeDegrees>
            </Position>
            <AltitudeMeters>55</AltitudeMeters>
            <DistanceMeters>NAN</DistanceMeters>
          </Trackpoint>
          <Trackpoint>
            <Time>2022-07-13T17:36:41.000Z</Time>
            <Position>
              <LatitudeDegrees>43.46201757900416851043701171875</LatitudeDegrees>
              <LongitudeDegrees>-3.83580707944929599761962890625</LongitudeDegrees>
            </Position>
            <AltitudeMeters>54.59999847412109375</AltitudeMeters>
            <DistanceMeters>NAN</DistanceMeters>
          </Trackpoint>
          <Trackpoint>
            <Time>2022-07-13T17:36:43.000Z</Time>
            <Position>
              <LatitudeDegrees>43.4620495140552520751953125</LatitudeDegrees>
              <LongitudeDegrees>-3.8359127752482891082763671875</LongitudeDegrees>
            </Position>
            <AltitudeMeters>54.200000762939453125</AltitudeMeters>
            <DistanceMeters>NAN</DistanceMeters>
          </Trackpoint>
          <Trackpoint>
            <Time>2022-07-13T17:36:44.000Z</Time>
            <Position>
              <LatitudeDegrees>43.462063260376453399658203125</LatitudeDegrees>
              <LongitudeDegrees>-3.83597287349402904510498046875</LongitudeDegrees>
            </Position>
            <AltitudeMeters>54.200000762939453125</AltitudeMeters>
            <DistanceMeters>NAN</DistanceMeters>
          </Trackpoint>
          <Trackpoint>
            <Time>2022-07-13T17:36:47.000Z</Time>
            <Position>
              <LatitudeDegrees>43.462110869586467742919921875</LatitudeDegrees>
              <LongitudeDegrees>-3.8361518271267414093017578125</LongitudeDegrees>
            </Position>
            <AltitudeMeters>53.799999237060546875</AltitudeMeters>
            <DistanceMeters>NAN</DistanceMeters>
          </Trackpoint>
          <Trackpoint>
            <Time>2022-07-13T17:36:50.000Z</Time>
            <Position>
              <LatitudeDegrees>43.4621750749647617340087890625</LatitudeDegrees>
              <LongitudeDegrees>-3.8363328762352466583251953125</LongitudeDegrees>
            </Position>
            <AltitudeMeters>53.59999847412109375</AltitudeMeters>
            <DistanceMeters>NAN</DistanceMeters>
          </Trackpoint>
          <Trackpoint>
            <Time>2022-07-13T17:36:52.000Z</Time>
            <Position>
              <LatitudeDegrees>43.46221907995641231536865234375</LatitudeDegrees>
              <LongitudeDegrees>-3.83647193200886249542236328125</LongitudeDegrees>
            </Position>
            <AltitudeMeters>53.200000762939453125</AltitudeMeters>
            <DistanceMeters>NAN</DistanceMeters>
          </Trackpoint>
          <Trackpoint>
            <Time>2022-07-13T17:36:56.000Z</Time>
            <Position>
              <LatitudeDegrees>43.4622887335717678070068359375</LatitudeDegrees>
              <LongitudeDegrees>-3.83676865138113498687744140625</LongitudeDegrees>
            </Position>
            <AltitudeMeters>52.40000152587890625</AltitudeMeters>
            <DistanceMeters>NAN</DistanceMeters>
          </Trackpoint>
          <Trackpoint>
            <Time>2022-07-13T17:36:58.000Z</Time>
            <Position>
              <LatitudeDegrees>43.46232905052602291107177734375</LatitudeDegrees>
              <LongitudeDegrees>-3.8369115628302097320556640625</LongitudeDegrees>
            </Position>
            <AltitudeMeters>52</AltitudeMeters>
            <DistanceMeters>NAN</DistanceMeters>
          </Trackpoint>
          <Trackpoint>
            <Time>2022-07-13T17:37:04.000Z</Time>
            <Position>
              <LatitudeDegrees>43.46246860921382904052734375</LatitudeDegrees>
              <LongitudeDegrees>-3.83732252754271030426025390625</LongitudeDegrees>
            </Position>
            <AltitudeMeters>51</AltitudeMeters>
            <DistanceMeters>NAN</DistanceMeters>
          </Trackpoint>
          <Trackpoint>
            <Time>2022-07-13T17:37:11.000Z</Time>
            <Position>
              <LatitudeDegrees>43.46260942518711090087890625</LatitudeDegrees>
              <LongitudeDegrees>-3.83779250085353851318359375</LongitudeDegrees>
            </Position>
            <AltitudeMeters>50</AltitudeMeters>
            <DistanceMeters>NAN</DistanceMeters>
          </Trackpoint>
          <Trackpoint>
            <Time>2022-07-13T17:37:13.000Z</Time>
            <Position>
              <LatitudeDegrees>43.46264605410397052764892578125</LatitudeDegrees>
              <LongitudeDegrees>-3.8379287905991077423095703125</LongitudeDegrees>
            </Position>
            <AltitudeMeters>49.40000152587890625</AltitudeMeters>
            <DistanceMeters>NAN</DistanceMeters>
          </Trackpoint>
          <Trackpoint>
            <Time>2022-07-13T17:37:16.000Z</Time>
            <Position>
              <LatitudeDegrees>43.4627121873199939727783203125</LatitudeDegrees>
              <LongitudeDegrees>-3.8381245918571949005126953125</LongitudeDegrees>
            </Position>
            <AltitudeMeters>49</AltitudeMeters>
            <DistanceMeters>NAN</DistanceMeters>
          </Trackpoint>
          <Trackpoint>
            <Time>2022-07-13T17:37:19.000Z</Time>
            <Position>
              <LatitudeDegrees>43.4627737104892730712890625</LatitudeDegrees>
              <LongitudeDegrees>-3.83833162486553192138671875</LongitudeDegrees>
            </Position>
            <AltitudeMeters>48.799999237060546875</AltitudeMeters>
            <DistanceMeters>NAN</DistanceMeters>
          </Trackpoint>
          <Trackpoint>
            <Time>2022-07-13T17:37:24.000Z</Time>
            <Position>
              <LatitudeDegrees>43.46287203021347522735595703125</LatitudeDegrees>
              <LongitudeDegrees>-3.83866581134498119354248046875</LongitudeDegrees>
            </Position>
            <AltitudeMeters>48.200000762939453125</AltitudeMeters>
            <DistanceMeters>NAN</DistanceMeters>
          </Trackpoint>
          <Trackpoint>
            <Time>2022-07-13T17:37:26.000Z</Time>
            <Position>
              <LatitudeDegrees>43.46291880123317241668701171875</LatitudeDegrees>
              <LongitudeDegrees>-3.83876153267920017242431640625</LongitudeDegrees>
            </Position>
            <AltitudeMeters>48</AltitudeMeters>
            <DistanceMeters>NAN</DistanceMeters>
          </Trackpoint>
          <Trackpoint>
            <Time>2022-07-13T17:37:27.000Z</Time>
            <Position>
              <LatitudeDegrees>43.46294713206589221954345703125</LatitudeDegrees>
              <LongitudeDegrees>-3.83877687156200408935546875</LongitudeDegrees>
            </Position>
            <AltitudeMeters>48</AltitudeMeters>
            <DistanceMeters>NAN</DistanceMeters>
          </Trackpoint>
          <Trackpoint>
            <Time>2022-07-13T17:37:28.000Z</Time>
            <Position>
              <LatitudeDegrees>43.46297445707023143768310546875</LatitudeDegrees>
              <LongitudeDegrees>-3.83876740001142024993896484375</LongitudeDegrees>
            </Position>
            <AltitudeMeters>47.799999237060546875</AltitudeMeters>
            <DistanceMeters>NAN</DistanceMeters>
          </Trackpoint>
          <Trackpoint>
            <Time>2022-07-13T17:37:30.000Z</Time>
            <Position>
              <LatitudeDegrees>43.463014774024486541748046875</LatitudeDegrees>
              <LongitudeDegrees>-3.83868458680808544158935546875</LongitudeDegrees>
            </Position>
            <AltitudeMeters>47.59999847412109375</AltitudeMeters>
            <DistanceMeters>NAN</DistanceMeters>
          </Trackpoint>
          <Trackpoint>
            <Time>2022-07-13T17:37:31.000Z</Time>
            <Position>
              <LatitudeDegrees>43.463034890592098236083984375</LatitudeDegrees>
              <LongitudeDegrees>-3.83863446302711963653564453125</LongitudeDegrees>
            </Position>
            <AltitudeMeters>47.59999847412109375</AltitudeMeters>
            <DistanceMeters>NAN</DistanceMeters>
          </Trackpoint>
          <Trackpoint>
            <Time>2022-07-13T17:37:33.000Z</Time>
            <Position>
              <LatitudeDegrees>43.4630957432091236114501953125</LatitudeDegrees>
              <LongitudeDegrees>-3.8385443575680255889892578125</LongitudeDegrees>
            </Position>
            <AltitudeMeters>47.200000762939453125</AltitudeMeters>
            <DistanceMeters>NAN</DistanceMeters>
          </Trackpoint>
          <Trackpoint>
            <Time>2022-07-13T17:37:38.000Z</Time>
            <Position>
              <LatitudeDegrees>43.463199175894260406494140625</LatitudeDegrees>
              <LongitudeDegrees>-3.83828736841678619384765625</LongitudeDegrees>
            </Position>
            <AltitudeMeters>47</AltitudeMeters>
            <DistanceMeters>NAN</DistanceMeters>
          </Trackpoint>
          <Trackpoint>
            <Time>2022-07-13T17:37:40.000Z</Time>
            <Position>
              <LatitudeDegrees>43.46324351616203784942626953125</LatitudeDegrees>
              <LongitudeDegrees>-3.83818787522614002227783203125</LongitudeDegrees>
            </Position>
            <AltitudeMeters>46.799999237060546875</AltitudeMeters>
            <DistanceMeters>NAN</DistanceMeters>
          </Trackpoint>
          <Trackpoint>
            <Time>2022-07-13T17:37:47.000Z</Time>
            <Position>
              <LatitudeDegrees>43.46339724026620388031005859375</LatitudeDegrees>
              <LongitudeDegrees>-3.83785712532699108123779296875</LongitudeDegrees>
            </Position>
            <AltitudeMeters>47.200000762939453125</AltitudeMeters>
            <DistanceMeters>NAN</DistanceMeters>
          </Trackpoint>
          <Trackpoint>
            <Time>2022-07-13T17:37:52.000Z</Time>
            <Position>
              <LatitudeDegrees>43.4634712524712085723876953125</LatitudeDegrees>
              <LongitudeDegrees>-3.83761958219110965728759765625</LongitudeDegrees>
            </Position>
            <AltitudeMeters>47.200000762939453125</AltitudeMeters>
            <DistanceMeters>NAN</DistanceMeters>
          </Trackpoint>
          <Trackpoint>
            <Time>2022-07-13T17:38:01.000Z</Time>
            <Position>
              <LatitudeDegrees>43.46357141621410846710205078125</LatitudeDegrees>
              <LongitudeDegrees>-3.83715924806892871856689453125</LongitudeDegrees>
            </Position>
            <AltitudeMeters>47.40000152587890625</AltitudeMeters>
            <DistanceMeters>NAN</DistanceMeters>
          </Trackpoint>
          <Trackpoint>
            <Time>2022-07-13T17:38:06.000Z</Time>
            <Position>
              <LatitudeDegrees>43.46361969597637653350830078125</LatitudeDegrees>
              <LongitudeDegrees>-3.836905024945735931396484375</LongitudeDegrees>
            </Position>
            <AltitudeMeters>47.799999237060546875</AltitudeMeters>
            <DistanceMeters>NAN</DistanceMeters>
          </Trackpoint>
          <Trackpoint>
            <Time>2022-07-13T17:38:10.000Z</Time>
            <Position>
              <LatitudeDegrees>43.46365925855934619903564453125</LatitudeDegrees>
              <LongitudeDegrees>-3.83672221563756465911865234375</LongitudeDegrees>
            </Position>
            <AltitudeMeters>48.200000762939453125</AltitudeMeters>
            <DistanceMeters>NAN</DistanceMeters>
          </Trackpoint>
          <Trackpoint>
            <Time>2022-07-13T17:38:16.000Z</Time>
            <Position>
              <LatitudeDegrees>43.463704101741313934326171875</LatitudeDegrees>
              <LongitudeDegrees>-3.83648785762488842010498046875</LongitudeDegrees>
            </Position>
            <AltitudeMeters>48.59999847412109375</AltitudeMeters>
            <DistanceMeters>NAN</DistanceMeters>
          </Trackpoint>
          <Trackpoint>
            <Time>2022-07-13T17:38:21.000Z</Time>
            <Position>
              <LatitudeDegrees>43.46374810673296451568603515625</LatitudeDegrees>
              <LongitudeDegrees>-3.83626791648566722869873046875</LongitudeDegrees>
            </Position>
            <AltitudeMeters>48.59999847412109375</AltitudeMeters>
            <DistanceMeters>NAN</DistanceMeters>
          </Trackpoint>
          <Trackpoint>
            <Time>2022-07-13T17:38:22.000Z</Time>
            <Position>
              <LatitudeDegrees>43.463757745921611785888671875</LatitudeDegrees>
              <LongitudeDegrees>-3.83622466586530208587646484375</LongitudeDegrees>
            </Position>
            <AltitudeMeters>48.59999847412109375</AltitudeMeters>
            <DistanceMeters>NAN</DistanceMeters>
          </Trackpoint>
          <Trackpoint>
            <Time>2022-07-13T17:38:25.000Z</Time>
            <Position>
              <LatitudeDegrees>43.463789932429790496826171875</LatitudeDegrees>
              <LongitudeDegrees>-3.836103044450283050537109375</LongitudeDegrees>
            </Position>
            <AltitudeMeters>48.40000152587890625</AltitudeMeters>
            <DistanceMeters>NAN</DistanceMeters>
          </Trackpoint>
          <Trackpoint>
            <Time>2022-07-13T17:38:33.000Z</Time>
            <Position>
              <LatitudeDegrees>43.4638621844351291656494140625</LatitudeDegrees>
              <LongitudeDegrees>-3.83578361012041568756103515625</LongitudeDegrees>
            </Position>
            <AltitudeMeters>48.799999237060546875</AltitudeMeters>
            <DistanceMeters>NAN</DistanceMeters>
          </Trackpoint>
          <Trackpoint>
            <Time>2022-07-13T17:38:35.000Z</Time>
            <Position>
              <LatitudeDegrees>43.4638792835175991058349609375</LatitudeDegrees>
              <LongitudeDegrees>-3.83570347912609577178955078125</LongitudeDegrees>
            </Position>
            <AltitudeMeters>49.200000762939453125</AltitudeMeters>
            <DistanceMeters>NAN</DistanceMeters>
          </Trackpoint>
          <Trackpoint>
            <Time>2022-07-13T17:38:41.000Z</Time>
            <Position>
              <LatitudeDegrees>43.46395346336066722869873046875</LatitudeDegrees>
              <LongitudeDegrees>-3.835495524108409881591796875</LongitudeDegrees>
            </Position>
            <AltitudeMeters>50</AltitudeMeters>
            <DistanceMeters>NAN</DistanceMeters>
          </Trackpoint>
          <Trackpoint>
            <Time>2022-07-13T17:38:42.000Z</Time>
            <Position>
              <LatitudeDegrees>43.46397659741342067718505859375</LatitudeDegrees>
              <LongitudeDegrees>-3.83547850884497165679931640625</LongitudeDegrees>
            </Position>
            <AltitudeMeters>50</AltitudeMeters>
            <DistanceMeters>NAN</DistanceMeters>
          </Trackpoint>
          <Trackpoint>
            <Time>2022-07-13T17:38:47.000Z</Time>
            <Position>
              <LatitudeDegrees>43.46413618884980678558349609375</LatitudeDegrees>
              <LongitudeDegrees>-3.8354829512536525726318359375</LongitudeDegrees>
            </Position>
            <AltitudeMeters>50</AltitudeMeters>
            <DistanceMeters>NAN</DistanceMeters>
          </Trackpoint>
          <Trackpoint>
            <Time>2022-07-13T17:38:55.000Z</Time>
            <Position>
              <LatitudeDegrees>43.4644232690334320068359375</LatitudeDegrees>
              <LongitudeDegrees>-3.8355855457484722137451171875</LongitudeDegrees>
            </Position>
            <AltitudeMeters>49.799999237060546875</AltitudeMeters>
            <DistanceMeters>NAN</DistanceMeters>
          </Trackpoint>
          <Trackpoint>
            <Time>2022-07-13T17:38:56.000Z</Time>
            <Position>
              <LatitudeDegrees>43.464462496340274810791015625</LatitudeDegrees>
              <LongitudeDegrees>-3.8356004655361175537109375</LongitudeDegrees>
            </Position>
            <AltitudeMeters>49.799999237060546875</AltitudeMeters>
            <DistanceMeters>NAN</DistanceMeters>
          </Trackpoint>
          <Trackpoint>
            <Time>2022-07-13T17:39:02.000Z</Time>
            <Position>
              <LatitudeDegrees>43.46468788571655750274658203125</LatitudeDegrees>
              <LongitudeDegrees>-3.83570331148803234100341796875</LongitudeDegrees>
            </Position>
            <AltitudeMeters>49.799999237060546875</AltitudeMeters>
            <DistanceMeters>NAN</DistanceMeters>
          </Trackpoint>
          <Trackpoint>
            <Time>2022-07-13T17:39:06.000Z</Time>
            <Position>
              <LatitudeDegrees>43.46481394954025745391845703125</LatitudeDegrees>
              <LongitudeDegrees>-3.8357679359614849090576171875</LongitudeDegrees>
            </Position>
            <AltitudeMeters>50.200000762939453125</AltitudeMeters>
            <DistanceMeters>NAN</DistanceMeters>
          </Trackpoint>
          <Trackpoint>
            <Time>2022-07-13T17:39:09.000Z</Time>
            <Position>
              <LatitudeDegrees>43.46488662064075469970703125</LatitudeDegrees>
              <LongitudeDegrees>-3.83581311441957950592041015625</LongitudeDegrees>
            </Position>
            <AltitudeMeters>50.40000152587890625</AltitudeMeters>
            <DistanceMeters>NAN</DistanceMeters>
          </Trackpoint>
          <Trackpoint>
            <Time>2022-07-13T17:39:13.000Z</Time>
            <Position>
              <LatitudeDegrees>43.46489843912422657012939453125</LatitudeDegrees>
              <LongitudeDegrees>-3.83586994372308254241943359375</LongitudeDegrees>
            </Position>
            <AltitudeMeters>50.799999237060546875</AltitudeMeters>
            <DistanceMeters>NAN</DistanceMeters>
          </Trackpoint>
          <Trackpoint>
            <Time>2022-07-13T17:39:14.000Z</Time>
            <Position>
              <LatitudeDegrees>43.4648975171148777008056640625</LatitudeDegrees>
              <LongitudeDegrees>-3.83587815798819065093994140625</LongitudeDegrees>
            </Position>
            <AltitudeMeters>51</AltitudeMeters>
            <DistanceMeters>NAN</DistanceMeters>
          </Trackpoint>
          <Trackpoint>
            <Time>2022-07-13T17:39:16.000Z</Time>
            <Position>
              <LatitudeDegrees>43.46491419710218906402587890625</LatitudeDegrees>
              <LongitudeDegrees>-3.83590900339186191558837890625</LongitudeDegrees>
            </Position>
            <AltitudeMeters>51</AltitudeMeters>
            <DistanceMeters>NAN</DistanceMeters>
          </Trackpoint>
          <Trackpoint>
            <Time>2022-07-13T17:39:18.000Z</Time>
            <Position>
              <LatitudeDegrees>43.46494571305811405181884765625</LatitudeDegrees>
              <LongitudeDegrees>-3.83591872639954090118408203125</LongitudeDegrees>
            </Position>
            <AltitudeMeters>50.799999237060546875</AltitudeMeters>
            <DistanceMeters>NAN</DistanceMeters>
          </Trackpoint>
          <Trackpoint>
            <Time>2022-07-13T17:39:19.000Z</Time>
            <Position>
              <LatitudeDegrees>43.46496096812188625335693359375</LatitudeDegrees>
              <LongitudeDegrees>-3.8359281979501247406005859375</LongitudeDegrees>
            </Position>
            <AltitudeMeters>50.799999237060546875</AltitudeMeters>
            <DistanceMeters>NAN</DistanceMeters>
          </Trackpoint>
          <Trackpoint>
            <Time>2022-07-13T17:59:24.000Z</Time>
            <Position>
              <LatitudeDegrees>43.46481822431087493896484375</LatitudeDegrees>
              <LongitudeDegrees>-3.83591000922024250030517578125</LongitudeDegrees>
            </Position>
            <AltitudeMeters>55.799999237060546875</AltitudeMeters>
            <DistanceMeters>NAN</DistanceMeters>
          </Trackpoint>
          <Trackpoint>
            <Time>2022-07-13T17:59:26.000Z</Time>
            <Position>
              <LatitudeDegrees>43.46483892761170864105224609375</LatitudeDegrees>
              <LongitudeDegrees>-3.83583373390138149261474609375</LongitudeDegrees>
            </Position>
            <AltitudeMeters>55.799999237060546875</AltitudeMeters>
            <DistanceMeters>NAN</DistanceMeters>
          </Trackpoint>
          <Trackpoint>
            <Time>2022-07-13T17:59:37.000Z</Time>
            <Position>
              <LatitudeDegrees>43.46490413881838321685791015625</LatitudeDegrees>
              <LongitudeDegrees>-3.8358105160295963287353515625</LongitudeDegrees>
            </Position>
            <AltitudeMeters>55.59999847412109375</AltitudeMeters>
            <DistanceMeters>NAN</DistanceMeters>
          </Trackpoint>
          <Trackpoint>
            <Time>2022-07-13T17:59:39.000Z</Time>
            <Position>
              <LatitudeDegrees>43.464936912059783935546875</LatitudeDegrees>
              <LongitudeDegrees>-3.83581931702792644500732421875</LongitudeDegrees>
            </Position>
            <AltitudeMeters>55.59999847412109375</AltitudeMeters>
            <DistanceMeters>NAN</DistanceMeters>
          </Trackpoint>
          <Trackpoint>
            <Time>2022-07-13T17:59:42.000Z</Time>
            <Position>
              <LatitudeDegrees>43.465000279247760772705078125</LatitudeDegrees>
              <LongitudeDegrees>-3.83582417853176593780517578125</LongitudeDegrees>
            </Position>
            <AltitudeMeters>55.799999237060546875</AltitudeMeters>
            <DistanceMeters>NAN</DistanceMeters>
          </Trackpoint>
          <Trackpoint>
            <Time>2022-07-13T17:59:45.000Z</Time>
            <Position>
              <LatitudeDegrees>43.465054929256439208984375</LatitudeDegrees>
              <LongitudeDegrees>-3.8358467258512973785400390625</LongitudeDegrees>
            </Position>
            <AltitudeMeters>56.200000762939453125</AltitudeMeters>
            <DistanceMeters>NAN</DistanceMeters>
          </Trackpoint>
          <Trackpoint>
            <Time>2022-07-13T17:59:48.000Z</Time>
            <Position>
              <LatitudeDegrees>43.46512407995760440826416015625</LatitudeDegrees>
              <LongitudeDegrees>-3.8358490727841854095458984375</LongitudeDegrees>
            </Position>
            <AltitudeMeters>56.59999847412109375</AltitudeMeters>
            <DistanceMeters>NAN</DistanceMeters>
          </Trackpoint>
          <Trackpoint>
            <Time>2022-07-13T17:59:53.000Z</Time>
            <Position>
              <LatitudeDegrees>43.46522214822471141815185546875</LatitudeDegrees>
              <LongitudeDegrees>-3.8358976878225803375244140625</LongitudeDegrees>
            </Position>
            <AltitudeMeters>56.799999237060546875</AltitudeMeters>
            <DistanceMeters>NAN</DistanceMeters>
          </Trackpoint>
          <Trackpoint>
            <Time>2022-07-13T17:59:54.000Z</Time>
            <Position>
              <LatitudeDegrees>43.465240336954593658447265625</LatitudeDegrees>
              <LongitudeDegrees>-3.83592090569436550140380859375</LongitudeDegrees>
            </Position>
            <AltitudeMeters>56.799999237060546875</AltitudeMeters>
            <DistanceMeters>NAN</DistanceMeters>
          </Trackpoint>
          <Trackpoint>
            <Time>2022-07-13T17:59:57.000Z</Time>
            <Position>
              <LatitudeDegrees>43.46525668166577816009521484375</LatitudeDegrees>
              <LongitudeDegrees>-3.836026601493358612060546875</LongitudeDegrees>
            </Position>
            <AltitudeMeters>56.799999237060546875</AltitudeMeters>
            <DistanceMeters>NAN</DistanceMeters>
          </Trackpoint>
          <Trackpoint>
            <Time>2022-07-13T18:00:03.000Z</Time>
            <Position>
              <LatitudeDegrees>43.4652440249919891357421875</LatitudeDegrees>
              <LongitudeDegrees>-3.8362762145698070526123046875</LongitudeDegrees>
            </Position>
            <AltitudeMeters>56.59999847412109375</AltitudeMeters>
            <DistanceMeters>NAN</DistanceMeters>
          </Trackpoint>
          <Trackpoint>
            <Time>2022-07-13T18:00:07.000Z</Time>
            <Position>
              <LatitudeDegrees>43.4652193821966648101806640625</LatitudeDegrees>
              <LongitudeDegrees>-3.8364468701183795928955078125</LongitudeDegrees>
            </Position>
            <AltitudeMeters>56.799999237060546875</AltitudeMeters>
            <DistanceMeters>NAN</DistanceMeters>
          </Trackpoint>
          <Trackpoint>
            <Time>2022-07-13T18:00:09.000Z</Time>
            <Position>
              <LatitudeDegrees>43.465211503207683563232421875</LatitudeDegrees>
              <LongitudeDegrees>-3.8365306891500949859619140625</LongitudeDegrees>
            </Position>
            <AltitudeMeters>56.59999847412109375</AltitudeMeters>
            <DistanceMeters>NAN</DistanceMeters>
          </Trackpoint>
          <Trackpoint>
            <Time>2022-07-13T18:00:11.000Z</Time>
            <Position>
              <LatitudeDegrees>43.46520203165709972381591796875</LatitudeDegrees>
              <LongitudeDegrees>-3.83661769330501556396484375</LongitudeDegrees>
            </Position>
            <AltitudeMeters>56.59999847412109375</AltitudeMeters>
            <DistanceMeters>NAN</DistanceMeters>
          </Trackpoint>
          <Trackpoint>
            <Time>2022-07-13T18:00:20.000Z</Time>
            <Position>
              <LatitudeDegrees>43.4651462920010089874267578125</LatitudeDegrees>
              <LongitudeDegrees>-3.8369930349290370941162109375</LongitudeDegrees>
            </Position>
            <AltitudeMeters>56.200000762939453125</AltitudeMeters>
            <DistanceMeters>NAN</DistanceMeters>
          </Trackpoint>
          <Trackpoint>
            <Time>2022-07-13T18:00:27.000Z</Time>
            <Position>
              <LatitudeDegrees>43.46512860618531703948974609375</LatitudeDegrees>
              <LongitudeDegrees>-3.837332166731357574462890625</LongitudeDegrees>
            </Position>
            <AltitudeMeters>55.59999847412109375</AltitudeMeters>
            <DistanceMeters>NAN</DistanceMeters>
          </Trackpoint>
          <Trackpoint>
            <Time>2022-07-13T18:00:30.000Z</Time>
            <Position>
              <LatitudeDegrees>43.465122990310192108154296875</LatitudeDegrees>
              <LongitudeDegrees>-3.83750014007091522216796875</LongitudeDegrees>
            </Position>
            <AltitudeMeters>55.40000152587890625</AltitudeMeters>
            <DistanceMeters>NAN</DistanceMeters>
          </Trackpoint>
          <Trackpoint>
            <Time>2022-07-13T18:00:34.000Z</Time>
            <Position>
              <LatitudeDegrees>43.46511033363640308380126953125</LatitudeDegrees>
              <LongitudeDegrees>-3.83775226771831512451171875</LongitudeDegrees>
            </Position>
            <AltitudeMeters>54.59999847412109375</AltitudeMeters>
            <DistanceMeters>NAN</DistanceMeters>
          </Trackpoint>
          <Trackpoint>
            <Time>2022-07-13T18:00:39.000Z</Time>
            <Position>
              <LatitudeDegrees>43.46509759314358234405517578125</LatitudeDegrees>
              <LongitudeDegrees>-3.83804856799542903900146484375</LongitudeDegrees>
            </Position>
            <AltitudeMeters>54.200000762939453125</AltitudeMeters>
            <DistanceMeters>NAN</DistanceMeters>
          </Trackpoint>
          <Trackpoint>
            <Time>2022-07-13T18:00:43.000Z</Time>
            <Position>
              <LatitudeDegrees>43.46508149988949298858642578125</LatitudeDegrees>
              <LongitudeDegrees>-3.8382784835994243621826171875</LongitudeDegrees>
            </Position>
            <AltitudeMeters>53.40000152587890625</AltitudeMeters>
            <DistanceMeters>NAN</DistanceMeters>
          </Trackpoint>
          <Trackpoint>
            <Time>2022-07-13T18:00:48.000Z</Time>
            <Position>
              <LatitudeDegrees>43.465063311159610748291015625</LatitudeDegrees>
              <LongitudeDegrees>-3.8385772146284580230712890625</LongitudeDegrees>
            </Position>
            <AltitudeMeters>53</AltitudeMeters>
            <DistanceMeters>NAN</DistanceMeters>
          </Trackpoint>
          <Trackpoint>
            <Time>2022-07-13T18:00:49.000Z</Time>
            <Position>
              <LatitudeDegrees>43.46505367197096347808837890625</LatitudeDegrees>
              <LongitudeDegrees>-3.8386405818164348602294921875</LongitudeDegrees>
            </Position>
            <AltitudeMeters>52.799999237060546875</AltitudeMeters>
            <DistanceMeters>NAN</DistanceMeters>
          </Trackpoint>
          <Trackpoint>
            <Time>2022-07-13T18:00:50.000Z</Time>
            <Position>
              <LatitudeDegrees>43.46504218876361846923828125</LatitudeDegrees>
              <LongitudeDegrees>-3.83870537392795085906982421875</LongitudeDegrees>
            </Position>
            <AltitudeMeters>52.59999847412109375</AltitudeMeters>
            <DistanceMeters>NAN</DistanceMeters>
          </Trackpoint>
          <Trackpoint>
            <Time>2022-07-13T18:00:52.000Z</Time>
            <Position>
              <LatitudeDegrees>43.46502198837697505950927734375</LatitudeDegrees>
              <LongitudeDegrees>-3.838835544884204864501953125</LongitudeDegrees>
            </Position>
            <AltitudeMeters>52.40000152587890625</AltitudeMeters>
            <DistanceMeters>NAN</DistanceMeters>
          </Trackpoint>
          <Trackpoint>
            <Time>2022-07-13T18:00:56.000Z</Time>
            <Position>
              <LatitudeDegrees>43.46500061452388763427734375</LatitudeDegrees>
              <LongitudeDegrees>-3.839086331427097320556640625</LongitudeDegrees>
            </Position>
            <AltitudeMeters>51.40000152587890625</AltitudeMeters>
            <DistanceMeters>NAN</DistanceMeters>
          </Trackpoint>
          <Trackpoint>
            <Time>2022-07-13T18:00:57.000Z</Time>
            <Position>
              <LatitudeDegrees>43.46499399282038211822509765625</LatitudeDegrees>
              <LongitudeDegrees>-3.83914433419704437255859375</LongitudeDegrees>
            </Position>
            <AltitudeMeters>51.200000762939453125</AltitudeMeters>
            <DistanceMeters>NAN</DistanceMeters>
          </Trackpoint>
          <Trackpoint>
            <Time>2022-07-13T18:01:02.000Z</Time>
            <Position>
              <LatitudeDegrees>43.4649628959596157073974609375</LatitudeDegrees>
              <LongitudeDegrees>-3.8393859006464481353759765625</LongitudeDegrees>
            </Position>
            <AltitudeMeters>50.59999847412109375</AltitudeMeters>
            <DistanceMeters>NAN</DistanceMeters>
          </Trackpoint>
          <Trackpoint>
            <Time>2022-07-13T18:01:03.000Z</Time>
            <Position>
              <LatitudeDegrees>43.4649570286273956298828125</LatitudeDegrees>
              <LongitudeDegrees>-3.8394291512668132781982421875</LongitudeDegrees>
            </Position>
            <AltitudeMeters>50.59999847412109375</AltitudeMeters>
            <DistanceMeters>NAN</DistanceMeters>
          </Trackpoint>
          <Trackpoint>
            <Time>2022-07-13T18:01:06.000Z</Time>
            <Position>
              <LatitudeDegrees>43.464960716664791107177734375</LatitudeDegrees>
              <LongitudeDegrees>-3.839482963085174560546875</LongitudeDegrees>
            </Position>
            <AltitudeMeters>50.40000152587890625</AltitudeMeters>
            <DistanceMeters>NAN</DistanceMeters>
          </Trackpoint>
          <Trackpoint>
            <Time>2022-07-13T18:01:08.000Z</Time>
            <Position>
              <LatitudeDegrees>43.464960716664791107177734375</LatitudeDegrees>
              <LongitudeDegrees>-3.839482963085174560546875</LongitudeDegrees>
            </Position>
            <AltitudeMeters>50.40000152587890625</AltitudeMeters>
            <DistanceMeters>NAN</DistanceMeters>
          </Trackpoint>
          <Trackpoint>
            <Time>2022-07-13T18:01:59.000Z</Time>
            <Position>
              <LatitudeDegrees>43.46496147103607654571533203125</LatitudeDegrees>
              <LongitudeDegrees>-3.8395297341048717498779296875</LongitudeDegrees>
            </Position>
            <AltitudeMeters>49.200000762939453125</AltitudeMeters>
            <DistanceMeters>NAN</DistanceMeters>
          </Trackpoint>
          <Trackpoint>
            <Time>2022-07-13T18:02:00.000Z</Time>
            <Position>
              <LatitudeDegrees>43.46495929174125194549560546875</LatitudeDegrees>
              <LongitudeDegrees>-3.83956166915595531463623046875</LongitudeDegrees>
            </Position>
            <AltitudeMeters>49.200000762939453125</AltitudeMeters>
            <DistanceMeters>NAN</DistanceMeters>
          </Trackpoint>
          <Trackpoint>
            <Time>2022-07-13T18:02:04.000Z</Time>
            <Position>
              <LatitudeDegrees>43.46491746604442596435546875</LatitudeDegrees>
              <LongitudeDegrees>-3.839755542576313018798828125</LongitudeDegrees>
            </Position>
            <AltitudeMeters>48.799999237060546875</AltitudeMeters>
            <DistanceMeters>NAN</DistanceMeters>
          </Trackpoint>
          <Trackpoint>
            <Time>2022-07-13T18:02:07.000Z</Time>
            <Position>
              <LatitudeDegrees>43.4648512490093708038330078125</LatitudeDegrees>
              <LongitudeDegrees>-3.83996282704174518585205078125</LongitudeDegrees>
            </Position>
            <AltitudeMeters>48</AltitudeMeters>
            <DistanceMeters>NAN</DistanceMeters>
          </Trackpoint>
          <Trackpoint>
            <Time>2022-07-13T18:02:08.000Z</Time>
            <Position>
              <LatitudeDegrees>43.4648351557552814483642578125</LatitudeDegrees>
              <LongitudeDegrees>-3.84003658778965473175048828125</LongitudeDegrees>
            </Position>
            <AltitudeMeters>47.799999237060546875</AltitudeMeters>
            <DistanceMeters>NAN</DistanceMeters>
          </Trackpoint>
          <Trackpoint>
            <Time>2022-07-13T18:02:09.000Z</Time>
            <Position>
              <LatitudeDegrees>43.46483138389885425567626953125</LatitudeDegrees>
              <LongitudeDegrees>-3.84010951034724712371826171875</LongitudeDegrees>
            </Position>
            <AltitudeMeters>47.59999847412109375</AltitudeMeters>
            <DistanceMeters>NAN</DistanceMeters>
          </Trackpoint>
          <Trackpoint>
            <Time>2022-07-13T18:02:11.000Z</Time>
            <Position>
              <LatitudeDegrees>43.46484496258199214935302734375</LatitudeDegrees>
              <LongitudeDegrees>-3.84024580009281635284423828125</LongitudeDegrees>
            </Position>
            <AltitudeMeters>47.59999847412109375</AltitudeMeters>
            <DistanceMeters>NAN</DistanceMeters>
          </Trackpoint>
          <Trackpoint>
            <Time>2022-07-13T18:02:12.000Z</Time>
            <Position>
              <LatitudeDegrees>43.4648572839796543121337890625</LatitudeDegrees>
              <LongitudeDegrees>-3.84029190056025981903076171875</LongitudeDegrees>
            </Position>
            <AltitudeMeters>47.59999847412109375</AltitudeMeters>
            <DistanceMeters>NAN</DistanceMeters>
          </Trackpoint>
          <Trackpoint>
            <Time>2022-07-13T18:02:16.000Z</Time>
            <Position>
              <LatitudeDegrees>43.46493490040302276611328125</LatitudeDegrees>
              <LongitudeDegrees>-3.84037680923938751220703125</LongitudeDegrees>
            </Position>
            <AltitudeMeters>48</AltitudeMeters>
            <DistanceMeters>NAN</DistanceMeters>
          </Trackpoint>
          <Trackpoint>
            <Time>2022-07-13T18:02:20.000Z</Time>
            <Position>
              <LatitudeDegrees>43.46496616490185260772705078125</LatitudeDegrees>
              <LongitudeDegrees>-3.84049616754055023193359375</LongitudeDegrees>
            </Position>
            <AltitudeMeters>48</AltitudeMeters>
            <DistanceMeters>NAN</DistanceMeters>
          </Trackpoint>
          <Trackpoint>
            <Time>2022-07-13T18:02:25.000Z</Time>
            <Position>
              <LatitudeDegrees>43.464889638125896453857421875</LatitudeDegrees>
              <LongitudeDegrees>-3.84071820415556430816650390625</LongitudeDegrees>
            </Position>
            <AltitudeMeters>47.40000152587890625</AltitudeMeters>
            <DistanceMeters>NAN</DistanceMeters>
          </Trackpoint>
          <Trackpoint>
            <Time>2022-07-13T18:02:28.000Z</Time>
            <Position>
              <LatitudeDegrees>43.4648455493152141571044921875</LatitudeDegrees>
              <LongitudeDegrees>-3.84088668040931224822998046875</LongitudeDegrees>
            </Position>
            <AltitudeMeters>47</AltitudeMeters>
            <DistanceMeters>NAN</DistanceMeters>
          </Trackpoint>
          <Trackpoint>
            <Time>2022-07-13T18:02:32.000Z</Time>
            <Position>
              <LatitudeDegrees>43.46476533450186252593994140625</LatitudeDegrees>
              <LongitudeDegrees>-3.8411271572113037109375</LongitudeDegrees>
            </Position>
            <AltitudeMeters>46.40000152587890625</AltitudeMeters>
            <DistanceMeters>NAN</DistanceMeters>
          </Trackpoint>
          <Trackpoint>
            <Time>2022-07-13T18:02:35.000Z</Time>
            <Position>
              <LatitudeDegrees>43.464706242084503173828125</LatitudeDegrees>
              <LongitudeDegrees>-3.84130510501563549041748046875</LongitudeDegrees>
            </Position>
            <AltitudeMeters>46</AltitudeMeters>
            <DistanceMeters>NAN</DistanceMeters>
          </Trackpoint>
          <Trackpoint>
            <Time>2022-07-13T18:02:41.000Z</Time>
            <Position>
              <LatitudeDegrees>43.46459534950554370880126953125</LatitudeDegrees>
              <LongitudeDegrees>-3.84164356626570224761962890625</LongitudeDegrees>
            </Position>
            <AltitudeMeters>45.40000152587890625</AltitudeMeters>
            <DistanceMeters>NAN</DistanceMeters>
          </Trackpoint>
          <Trackpoint>
            <Time>2022-07-13T18:02:43.000Z</Time>
            <Position>
              <LatitudeDegrees>43.4646303020417690277099609375</LatitudeDegrees>
              <LongitudeDegrees>-3.84174113161861896514892578125</LongitudeDegrees>
            </Position>
            <AltitudeMeters>45.40000152587890625</AltitudeMeters>
            <DistanceMeters>NAN</DistanceMeters>
          </Trackpoint>
          <Trackpoint>
            <Time>2022-07-13T18:02:44.000Z</Time>
            <Position>
              <LatitudeDegrees>43.46466089598834514617919921875</LatitudeDegrees>
              <LongitudeDegrees>-3.84178102947771549224853515625</LongitudeDegrees>
            </Position>
            <AltitudeMeters>45.40000152587890625</AltitudeMeters>
            <DistanceMeters>NAN</DistanceMeters>
          </Trackpoint>
          <Trackpoint>
            <Time>2022-07-13T18:02:46.000Z</Time>
            <Position>
              <LatitudeDegrees>43.4647245146334171295166015625</LatitudeDegrees>
              <LongitudeDegrees>-3.8418739847838878631591796875</LongitudeDegrees>
            </Position>
            <AltitudeMeters>45</AltitudeMeters>
            <DistanceMeters>NAN</DistanceMeters>
          </Trackpoint>
          <Trackpoint>
            <Time>2022-07-13T18:02:48.000Z</Time>
            <Position>
              <LatitudeDegrees>43.4647791646420955657958984375</LatitudeDegrees>
              <LongitudeDegrees>-3.841951601207256317138671875</LongitudeDegrees>
            </Position>
            <AltitudeMeters>44.799999237060546875</AltitudeMeters>
            <DistanceMeters>NAN</DistanceMeters>
          </Trackpoint>
          <Trackpoint>
            <Time>2022-07-13T18:02:50.000Z</Time>
            <Position>
              <LatitudeDegrees>43.46482987515628337860107421875</LatitudeDegrees>
              <LongitudeDegrees>-3.8420553691685199737548828125</LongitudeDegrees>
            </Position>
            <AltitudeMeters>44.59999847412109375</AltitudeMeters>
            <DistanceMeters>NAN</DistanceMeters>
          </Trackpoint>
          <Trackpoint>
            <Time>2022-07-13T18:02:51.000Z</Time>
            <Position>
              <LatitudeDegrees>43.46485175192356109619140625</LatitudeDegrees>
              <LongitudeDegrees>-3.84210993535816669464111328125</LongitudeDegrees>
            </Position>
            <AltitudeMeters>44.59999847412109375</AltitudeMeters>
            <DistanceMeters>NAN</DistanceMeters>
          </Trackpoint>
          <Trackpoint>
            <Time>2022-07-13T18:02:54.000Z</Time>
            <Position>
              <LatitudeDegrees>43.46491805277764797210693359375</LatitudeDegrees>
              <LongitudeDegrees>-3.84227505885064601898193359375</LongitudeDegrees>
            </Position>
            <AltitudeMeters>44.59999847412109375</AltitudeMeters>
            <DistanceMeters>NAN</DistanceMeters>
          </Trackpoint>
          <Trackpoint>
            <Time>2022-07-13T18:02:56.000Z</Time>
            <Position>
              <LatitudeDegrees>43.46495945937931537628173828125</LatitudeDegrees>
              <LongitudeDegrees>-3.842388130724430084228515625</LongitudeDegrees>
            </Position>
            <AltitudeMeters>44.59999847412109375</AltitudeMeters>
            <DistanceMeters>NAN</DistanceMeters>
          </Trackpoint>
          <Trackpoint>
            <Time>2022-07-13T18:02:59.000Z</Time>
            <Position>
              <LatitudeDegrees>43.46502215601503849029541015625</LatitudeDegrees>
              <LongitudeDegrees>-3.8425653241574764251708984375</LongitudeDegrees>
            </Position>
            <AltitudeMeters>44.40000152587890625</AltitudeMeters>
            <DistanceMeters>NAN</DistanceMeters>
          </Trackpoint>
          <Trackpoint>
            <Time>2022-07-13T18:03:02.000Z</Time>
            <Position>
              <LatitudeDegrees>43.4651010297238826751708984375</LatitudeDegrees>
              <LongitudeDegrees>-3.84269817732274532318115234375</LongitudeDegrees>
            </Position>
            <AltitudeMeters>44.59999847412109375</AltitudeMeters>
            <DistanceMeters>NAN</DistanceMeters>
          </Trackpoint>
          <Trackpoint>
            <Time>2022-07-13T18:03:08.000Z</Time>
            <Position>
              <LatitudeDegrees>43.46522985957562923431396484375</LatitudeDegrees>
              <LongitudeDegrees>-3.8429773785173892974853515625</LongitudeDegrees>
            </Position>
            <AltitudeMeters>45.200000762939453125</AltitudeMeters>
            <DistanceMeters>NAN</DistanceMeters>
          </Trackpoint>
          <Trackpoint>
            <Time>2022-07-13T18:03:09.000Z</Time>
            <Position>
              <LatitudeDegrees>43.4652508981525897979736328125</LatitudeDegrees>
              <LongitudeDegrees>-3.843017779290676116943359375</LongitudeDegrees>
            </Position>
            <AltitudeMeters>45.200000762939453125</AltitudeMeters>
            <DistanceMeters>NAN</DistanceMeters>
          </Trackpoint>
          <Trackpoint>
            <Time>2022-07-13T18:03:16.000Z</Time>
            <Position>
              <LatitudeDegrees>43.46536941826343536376953125</LatitudeDegrees>
              <LongitudeDegrees>-3.8432694040238857269287109375</LongitudeDegrees>
            </Position>
            <AltitudeMeters>45.799999237060546875</AltitudeMeters>
            <DistanceMeters>NAN</DistanceMeters>
          </Trackpoint>
          <Trackpoint>
            <Time>2022-07-13T18:03:19.000Z</Time>
            <Position>
              <LatitudeDegrees>43.46540822647511959075927734375</LatitudeDegrees>
              <LongitudeDegrees>-3.8433763571083545684814453125</LongitudeDegrees>
            </Position>
            <AltitudeMeters>46</AltitudeMeters>
            <DistanceMeters>NAN</DistanceMeters>
          </Trackpoint>
          <Trackpoint>
            <Time>2022-07-13T18:03:23.000Z</Time>
            <Position>
              <LatitudeDegrees>43.4654668159782886505126953125</LatitudeDegrees>
              <LongitudeDegrees>-3.84350870735943317413330078125</LongitudeDegrees>
            </Position>
            <AltitudeMeters>46.200000762939453125</AltitudeMeters>
            <DistanceMeters>NAN</DistanceMeters>
          </Trackpoint>
          <Trackpoint>
            <Time>2022-07-13T18:03:30.000Z</Time>
            <Position>
              <LatitudeDegrees>43.4655258245766162872314453125</LatitudeDegrees>
              <LongitudeDegrees>-3.84374541230499744415283203125</LongitudeDegrees>
            </Position>
            <AltitudeMeters>47</AltitudeMeters>
            <DistanceMeters>NAN</DistanceMeters>
          </Trackpoint>
          <Trackpoint>
            <Time>2022-07-13T18:03:35.000Z</Time>
            <Position>
              <LatitudeDegrees>43.46555038355290889739990234375</LatitudeDegrees>
              <LongitudeDegrees>-3.843916319310665130615234375</LongitudeDegrees>
            </Position>
            <AltitudeMeters>47</AltitudeMeters>
            <DistanceMeters>NAN</DistanceMeters>
          </Trackpoint>
          <Trackpoint>
            <Time>2022-07-13T18:03:40.000Z</Time>
            <Position>
              <LatitudeDegrees>43.4655382297933101654052734375</LatitudeDegrees>
              <LongitudeDegrees>-3.844085298478603363037109375</LongitudeDegrees>
            </Position>
            <AltitudeMeters>47</AltitudeMeters>
            <DistanceMeters>NAN</DistanceMeters>
          </Trackpoint>
          <Trackpoint>
            <Time>2022-07-13T18:03:46.000Z</Time>
            <Position>
              <LatitudeDegrees>43.46552423201501369476318359375</LatitudeDegrees>
              <LongitudeDegrees>-3.844315297901630401611328125</LongitudeDegrees>
            </Position>
            <AltitudeMeters>47.40000152587890625</AltitudeMeters>
            <DistanceMeters>NAN</DistanceMeters>
          </Trackpoint>
          <Trackpoint>
            <Time>2022-07-13T18:03:49.000Z</Time>
            <Position>
              <LatitudeDegrees>43.4655176103115081787109375</LatitudeDegrees>
              <LongitudeDegrees>-3.8444277830421924591064453125</LongitudeDegrees>
            </Position>
            <AltitudeMeters>47.59999847412109375</AltitudeMeters>
            <DistanceMeters>NAN</DistanceMeters>
          </Trackpoint>
          <Trackpoint>
            <Time>2022-07-13T18:03:56.000Z</Time>
            <Position>
              <LatitudeDegrees>43.4654996730387210845947265625</LatitudeDegrees>
              <LongitudeDegrees>-3.84469474665820598602294921875</LongitudeDegrees>
            </Position>
            <AltitudeMeters>48</AltitudeMeters>
            <DistanceMeters>NAN</DistanceMeters>
          </Trackpoint>
          <Trackpoint>
            <Time>2022-07-13T18:03:57.000Z</Time>
            <Position>
              <LatitudeDegrees>43.46549740992486476898193359375</LatitudeDegrees>
              <LongitudeDegrees>-3.8447345606982707977294921875</LongitudeDegrees>
            </Position>
            <AltitudeMeters>48</AltitudeMeters>
            <DistanceMeters>NAN</DistanceMeters>
          </Trackpoint>
          <Trackpoint>
            <Time>2022-07-13T18:03:59.000Z</Time>
            <Position>
              <LatitudeDegrees>43.465492464601993560791015625</LatitudeDegrees>
              <LongitudeDegrees>-3.84481091983616352081298828125</LongitudeDegrees>
            </Position>
            <AltitudeMeters>48.200000762939453125</AltitudeMeters>
            <DistanceMeters>NAN</DistanceMeters>
          </Trackpoint>
          <Trackpoint>
            <Time>2022-07-13T18:04:00.000Z</Time>
            <Position>
              <LatitudeDegrees>43.465489447116851806640625</LatitudeDegrees>
              <LongitudeDegrees>-3.84484863840043544769287109375</LongitudeDegrees>
            </Position>
            <AltitudeMeters>48.200000762939453125</AltitudeMeters>
            <DistanceMeters>NAN</DistanceMeters>
          </Trackpoint>
          <Trackpoint>
            <Time>2022-07-13T18:04:01.000Z</Time>
            <Position>
              <LatitudeDegrees>43.46548609435558319091796875</LatitudeDegrees>
              <LongitudeDegrees>-3.84488820098340511322021484375</LongitudeDegrees>
            </Position>
            <AltitudeMeters>48.200000762939453125</AltitudeMeters>
            <DistanceMeters>NAN</DistanceMeters>
          </Trackpoint>
          <Trackpoint>
            <Time>2022-07-13T18:04:04.000Z</Time>
            <Position>
              <LatitudeDegrees>43.465473689138889312744140625</LatitudeDegrees>
              <LongitudeDegrees>-3.8450081460177898406982421875</LongitudeDegrees>
            </Position>
            <AltitudeMeters>48.200000762939453125</AltitudeMeters>
            <DistanceMeters>NAN</DistanceMeters>
          </Trackpoint>
          <Trackpoint>
            <Time>2022-07-13T18:04:06.000Z</Time>
            <Position>
              <LatitudeDegrees>43.46546505577862262725830078125</LatitudeDegrees>
              <LongitudeDegrees>-3.845093138515949249267578125</LongitudeDegrees>
            </Position>
            <AltitudeMeters>48.200000762939453125</AltitudeMeters>
            <DistanceMeters>NAN</DistanceMeters>
          </Trackpoint>
          <Trackpoint>
            <Time>2022-07-13T18:04:07.000Z</Time>
            <Position>
              <LatitudeDegrees>43.46546270884573459625244140625</LatitudeDegrees>
              <LongitudeDegrees>-3.8451298512518405914306640625</LongitudeDegrees>
            </Position>
            <AltitudeMeters>48.200000762939453125</AltitudeMeters>
            <DistanceMeters>NAN</DistanceMeters>
          </Trackpoint>
          <Trackpoint>
            <Time>2022-07-13T18:04:08.000Z</Time>
            <Position>
              <LatitudeDegrees>43.4654586017131805419921875</LatitudeDegrees>
              <LongitudeDegrees>-3.845166228711605072021484375</LongitudeDegrees>
            </Position>
            <AltitudeMeters>48.40000152587890625</AltitudeMeters>
            <DistanceMeters>NAN</DistanceMeters>
          </Trackpoint>
          <Trackpoint>
            <Time>2022-07-13T18:04:11.000Z</Time>
            <Position>
              <LatitudeDegrees>43.46544980071485042572021484375</LatitudeDegrees>
              <LongitudeDegrees>-3.84528567083179950714111328125</LongitudeDegrees>
            </Position>
            <AltitudeMeters>48.40000152587890625</AltitudeMeters>
            <DistanceMeters>NAN</DistanceMeters>
          </Trackpoint>
          <Trackpoint>
            <Time>2022-07-13T18:04:16.000Z</Time>
            <Position>
              <LatitudeDegrees>43.46544343046844005584716796875</LatitudeDegrees>
              <LongitudeDegrees>-3.8454835675656795501708984375</LongitudeDegrees>
            </Position>
            <AltitudeMeters>49</AltitudeMeters>
            <DistanceMeters>NAN</DistanceMeters>
          </Trackpoint>
          <Trackpoint>
            <Time>2022-07-13T18:04:17.000Z</Time>
            <Position>
              <LatitudeDegrees>43.46544275991618633270263671875</LatitudeDegrees>
              <LongitudeDegrees>-3.8455246388912200927734375</LongitudeDegrees>
            </Position>
            <AltitudeMeters>49.200000762939453125</AltitudeMeters>
            <DistanceMeters>NAN</DistanceMeters>
          </Trackpoint>
          <Trackpoint>
            <Time>2022-07-13T18:04:26.000Z</Time>
            <Position>
              <LatitudeDegrees>43.4654430113732814788818359375</LatitudeDegrees>
              <LongitudeDegrees>-3.84590945206582546234130859375</LongitudeDegrees>
            </Position>
            <AltitudeMeters>49.40000152587890625</AltitudeMeters>
            <DistanceMeters>NAN</DistanceMeters>
          </Trackpoint>
          <Trackpoint>
            <Time>2022-07-13T18:04:36.000Z</Time>
            <Position>
              <LatitudeDegrees>43.46544074825942516326904296875</LatitudeDegrees>
              <LongitudeDegrees>-3.8463214226067066192626953125</LongitudeDegrees>
            </Position>
            <AltitudeMeters>50.200000762939453125</AltitudeMeters>
            <DistanceMeters>NAN</DistanceMeters>
          </Trackpoint>
          <Trackpoint>
            <Time>2022-07-13T18:04:40.000Z</Time>
            <Position>
              <LatitudeDegrees>43.46543840132653713226318359375</LatitudeDegrees>
              <LongitudeDegrees>-3.8464853726327419281005859375</LongitudeDegrees>
            </Position>
            <AltitudeMeters>50.59999847412109375</AltitudeMeters>
            <DistanceMeters>NAN</DistanceMeters>
          </Trackpoint>
          <Trackpoint>
            <Time>2022-07-13T18:04:45.000Z</Time>
            <Position>
              <LatitudeDegrees>43.465420715510845184326171875</LatitudeDegrees>
              <LongitudeDegrees>-3.84668930433690547943115234375</LongitudeDegrees>
            </Position>
            <AltitudeMeters>50.59999847412109375</AltitudeMeters>
            <DistanceMeters>NAN</DistanceMeters>
          </Trackpoint>
          <Trackpoint>
            <Time>2022-07-13T18:04:52.000Z</Time>
            <Position>
              <LatitudeDegrees>43.4653915464878082275390625</LatitudeDegrees>
              <LongitudeDegrees>-3.84696607477962970733642578125</LongitudeDegrees>
            </Position>
            <AltitudeMeters>51.200000762939453125</AltitudeMeters>
            <DistanceMeters>NAN</DistanceMeters>
          </Trackpoint>
          <Trackpoint>
            <Time>2022-07-13T18:04:54.000Z</Time>
            <Position>
              <LatitudeDegrees>43.46537838689982891082763671875</LatitudeDegrees>
              <LongitudeDegrees>-3.84703614749014377593994140625</LongitudeDegrees>
            </Position>
            <AltitudeMeters>51.40000152587890625</AltitudeMeters>
            <DistanceMeters>NAN</DistanceMeters>
          </Trackpoint>
          <Trackpoint>
            <Time>2022-07-13T18:05:04.000Z</Time>
            <Position>
              <LatitudeDegrees>43.46536816097795963287353515625</LatitudeDegrees>
              <LongitudeDegrees>-3.84748105891048908233642578125</LongitudeDegrees>
            </Position>
            <AltitudeMeters>51.59999847412109375</AltitudeMeters>
            <DistanceMeters>NAN</DistanceMeters>
          </Trackpoint>
          <Trackpoint>
            <Time>2022-07-13T18:05:14.000Z</Time>
            <Position>
              <LatitudeDegrees>43.46538509242236614227294921875</LatitudeDegrees>
              <LongitudeDegrees>-3.8480164110660552978515625</LongitudeDegrees>
            </Position>
            <AltitudeMeters>51.200000762939453125</AltitudeMeters>
            <DistanceMeters>NAN</DistanceMeters>
          </Trackpoint>
          <Trackpoint>
            <Time>2022-07-13T18:05:22.000Z</Time>
            <Position>
              <LatitudeDegrees>43.46539297141134738922119140625</LatitudeDegrees>
              <LongitudeDegrees>-3.8485268689692020416259765625</LongitudeDegrees>
            </Position>
            <AltitudeMeters>50.799999237060546875</AltitudeMeters>
            <DistanceMeters>NAN</DistanceMeters>
          </Trackpoint>
          <Trackpoint>
            <Time>2022-07-13T18:05:26.000Z</Time>
            <Position>
              <LatitudeDegrees>43.4654114954173564910888671875</LatitudeDegrees>
              <LongitudeDegrees>-3.84878578595817089080810546875</LongitudeDegrees>
            </Position>
            <AltitudeMeters>50.40000152587890625</AltitudeMeters>
            <DistanceMeters>NAN</DistanceMeters>
          </Trackpoint>
          <Trackpoint>
            <Time>2022-07-13T18:05:28.000Z</Time>
            <Position>
              <LatitudeDegrees>43.46541945822536945343017578125</LatitudeDegrees>
              <LongitudeDegrees>-3.84893146343529224395751953125</LongitudeDegrees>
            </Position>
            <AltitudeMeters>50.200000762939453125</AltitudeMeters>
            <DistanceMeters>NAN</DistanceMeters>
          </Trackpoint>
          <Trackpoint>
            <Time>2022-07-13T18:05:30.000Z</Time>
            <Position>
              <LatitudeDegrees>43.46542214043438434600830078125</LatitudeDegrees>
              <LongitudeDegrees>-3.8490669988095760345458984375</LongitudeDegrees>
            </Position>
            <AltitudeMeters>50</AltitudeMeters>
            <DistanceMeters>NAN</DistanceMeters>
          </Trackpoint>
          <Trackpoint>
            <Time>2022-07-13T18:05:39.000Z</Time>
            <Position>
              <LatitudeDegrees>43.4654353000223636627197265625</LatitudeDegrees>
              <LongitudeDegrees>-3.8497060351073741912841796875</LongitudeDegrees>
            </Position>
            <AltitudeMeters>49.59999847412109375</AltitudeMeters>
            <DistanceMeters>NAN</DistanceMeters>
          </Trackpoint>
          <Trackpoint>
            <Time>2022-07-13T18:05:46.000Z</Time>
            <Position>
              <LatitudeDegrees>43.46543437801301479339599609375</LatitudeDegrees>
              <LongitudeDegrees>-3.85021959431469440460205078125</LongitudeDegrees>
            </Position>
            <AltitudeMeters>49.59999847412109375</AltitudeMeters>
            <DistanceMeters>NAN</DistanceMeters>
          </Trackpoint>
          <Trackpoint>
            <Time>2022-07-13T18:05:47.000Z</Time>
            <Position>
              <LatitudeDegrees>43.46543504856526851654052734375</LatitudeDegrees>
              <LongitudeDegrees>-3.85029167868196964263916015625</LongitudeDegrees>
            </Position>
            <AltitudeMeters>49.59999847412109375</AltitudeMeters>
            <DistanceMeters>NAN</DistanceMeters>
          </Trackpoint>
          <Trackpoint>
            <Time>2022-07-13T18:05:49.000Z</Time>
            <Position>
              <LatitudeDegrees>43.4654398262500762939453125</LatitudeDegrees>
              <LongitudeDegrees>-3.85043852962553501129150390625</LongitudeDegrees>
            </Position>
            <AltitudeMeters>49.40000152587890625</AltitudeMeters>
            <DistanceMeters>NAN</DistanceMeters>
          </Trackpoint>
          <Trackpoint>
            <Time>2022-07-13T18:05:53.000Z</Time>
            <Position>
              <LatitudeDegrees>43.4654478728771209716796875</LatitudeDegrees>
              <LongitudeDegrees>-3.85073021985590457916259765625</LongitudeDegrees>
            </Position>
            <AltitudeMeters>49.40000152587890625</AltitudeMeters>
            <DistanceMeters>NAN</DistanceMeters>
          </Trackpoint>
          <Trackpoint>
            <Time>2022-07-13T18:05:58.000Z</Time>
            <Position>
              <LatitudeDegrees>43.46545315347611904144287109375</LatitudeDegrees>
              <LongitudeDegrees>-3.85112316347658634185791015625</LongitudeDegrees>
            </Position>
            <AltitudeMeters>49</AltitudeMeters>
            <DistanceMeters>NAN</DistanceMeters>
          </Trackpoint>
          <Trackpoint>
            <Time>2022-07-13T18:06:03.000Z</Time>
            <Position>
              <LatitudeDegrees>43.46545818261802196502685546875</LatitudeDegrees>
              <LongitudeDegrees>-3.85152549482882022857666015625</LongitudeDegrees>
            </Position>
            <AltitudeMeters>48.200000762939453125</AltitudeMeters>
            <DistanceMeters>NAN</DistanceMeters>
          </Trackpoint>
          <Trackpoint>
            <Time>2022-07-13T18:06:04.000Z</Time>
            <Position>
              <LatitudeDegrees>43.46545868553221225738525390625</LatitudeDegrees>
              <LongitudeDegrees>-3.85160663165152072906494140625</LongitudeDegrees>
            </Position>
            <AltitudeMeters>48.200000762939453125</AltitudeMeters>
            <DistanceMeters>NAN</DistanceMeters>
          </Trackpoint>
          <Trackpoint>
            <Time>2022-07-13T18:06:07.000Z</Time>
            <Position>
              <LatitudeDegrees>43.465468324720859527587890625</LatitudeDegrees>
              <LongitudeDegrees>-3.8518491201102733612060546875</LongitudeDegrees>
            </Position>
            <AltitudeMeters>48</AltitudeMeters>
            <DistanceMeters>NAN</DistanceMeters>
          </Trackpoint>
          <Trackpoint>
            <Time>2022-07-13T18:06:15.000Z</Time>
            <Position>
              <LatitudeDegrees>43.4654933027923107147216796875</LatitudeDegrees>
              <LongitudeDegrees>-3.8524903357028961181640625</LongitudeDegrees>
            </Position>
            <AltitudeMeters>47.40000152587890625</AltitudeMeters>
            <DistanceMeters>NAN</DistanceMeters>
          </Trackpoint>
          <Trackpoint>
            <Time>2022-07-13T18:06:22.000Z</Time>
            <Position>
              <LatitudeDegrees>43.465534038841724395751953125</LatitudeDegrees>
              <LongitudeDegrees>-3.85301831178367137908935546875</LongitudeDegrees>
            </Position>
            <AltitudeMeters>47</AltitudeMeters>
            <DistanceMeters>NAN</DistanceMeters>
          </Trackpoint>
          <Trackpoint>
            <Time>2022-07-13T18:06:23.000Z</Time>
            <Position>
              <LatitudeDegrees>43.46553948707878589630126953125</LatitudeDegrees>
              <LongitudeDegrees>-3.853092156350612640380859375</LongitudeDegrees>
            </Position>
            <AltitudeMeters>46.799999237060546875</AltitudeMeters>
            <DistanceMeters>NAN</DistanceMeters>
          </Trackpoint>
          <Trackpoint>
            <Time>2022-07-13T18:06:29.000Z</Time>
            <Position>
              <LatitudeDegrees>43.4655576758086681365966796875</LatitudeDegrees>
              <LongitudeDegrees>-3.85348141193389892578125</LongitudeDegrees>
            </Position>
            <AltitudeMeters>46.40000152587890625</AltitudeMeters>
            <DistanceMeters>NAN</DistanceMeters>
          </Trackpoint>
          <Trackpoint>
            <Time>2022-07-13T18:06:33.000Z</Time>
            <Position>
              <LatitudeDegrees>43.4655744396150112152099609375</LatitudeDegrees>
              <LongitudeDegrees>-3.8537306897342205047607421875</LongitudeDegrees>
            </Position>
            <AltitudeMeters>46.200000762939453125</AltitudeMeters>
            <DistanceMeters>NAN</DistanceMeters>
          </Trackpoint>
          <Trackpoint>
            <Time>2022-07-13T18:06:36.000Z</Time>
            <Position>
              <LatitudeDegrees>43.4655851684510707855224609375</LatitudeDegrees>
              <LongitudeDegrees>-3.85393579490482807159423828125</LongitudeDegrees>
            </Position>
            <AltitudeMeters>46</AltitudeMeters>
            <DistanceMeters>NAN</DistanceMeters>
          </Trackpoint>
          <Trackpoint>
            <Time>2022-07-13T18:06:37.000Z</Time>
            <Position>
              <LatitudeDegrees>43.46558826975524425506591796875</LatitudeDegrees>
              <LongitudeDegrees>-3.85400838218629360198974609375</LongitudeDegrees>
            </Position>
            <AltitudeMeters>45.799999237060546875</AltitudeMeters>
            <DistanceMeters>NAN</DistanceMeters>
          </Trackpoint>
          <Trackpoint>
            <Time>2022-07-13T18:06:39.000Z</Time>
            <Position>
              <LatitudeDegrees>43.46559606492519378662109375</LatitudeDegrees>
              <LongitudeDegrees>-3.85415992699563503265380859375</LongitudeDegrees>
            </Position>
            <AltitudeMeters>45.59999847412109375</AltitudeMeters>
            <DistanceMeters>NAN</DistanceMeters>
          </Trackpoint>
          <Trackpoint>
            <Time>2022-07-13T18:06:42.000Z</Time>
            <Position>
              <LatitudeDegrees>43.46561978571116924285888671875</LatitudeDegrees>
              <LongitudeDegrees>-3.854382298886775970458984375</LongitudeDegrees>
            </Position>
            <AltitudeMeters>45.40000152587890625</AltitudeMeters>
            <DistanceMeters>NAN</DistanceMeters>
          </Trackpoint>
          <Trackpoint>
            <Time>2022-07-13T18:06:49.000Z</Time>
            <Position>
              <LatitudeDegrees>43.46569019369781017303466796875</LatitudeDegrees>
              <LongitudeDegrees>-3.85492284782230854034423828125</LongitudeDegrees>
            </Position>
            <AltitudeMeters>44.799999237060546875</AltitudeMeters>
            <DistanceMeters>NAN</DistanceMeters>
          </Trackpoint>
          <Trackpoint>
            <Time>2022-07-13T18:06:50.000Z</Time>
            <Position>
              <LatitudeDegrees>43.4657080471515655517578125</LatitudeDegrees>
              <LongitudeDegrees>-3.855003230273723602294921875</LongitudeDegrees>
            </Position>
            <AltitudeMeters>44.799999237060546875</AltitudeMeters>
            <DistanceMeters>NAN</DistanceMeters>
          </Trackpoint>
          <Trackpoint>
            <Time>2022-07-13T18:06:55.000Z</Time>
            <Position>
              <LatitudeDegrees>43.46580569632351398468017578125</LatitudeDegrees>
              <LongitudeDegrees>-3.85537882335484027862548828125</LongitudeDegrees>
            </Position>
            <AltitudeMeters>44.200000762939453125</AltitudeMeters>
            <DistanceMeters>NAN</DistanceMeters>
          </Trackpoint>
          <Trackpoint>
            <Time>2022-07-13T18:06:58.000Z</Time>
            <Position>
              <LatitudeDegrees>43.4658714942634105682373046875</LatitudeDegrees>
              <LongitudeDegrees>-3.85560228489339351654052734375</LongitudeDegrees>
            </Position>
            <AltitudeMeters>44</AltitudeMeters>
            <DistanceMeters>NAN</DistanceMeters>
          </Trackpoint>
          <Trackpoint>
            <Time>2022-07-13T18:07:00.000Z</Time>
            <Position>
              <LatitudeDegrees>43.465913571417331695556640625</LatitudeDegrees>
              <LongitudeDegrees>-3.855773694813251495361328125</LongitudeDegrees>
            </Position>
            <AltitudeMeters>43.799999237060546875</AltitudeMeters>
            <DistanceMeters>NAN</DistanceMeters>
          </Trackpoint>
          <Trackpoint>
            <Time>2022-07-13T18:07:01.000Z</Time>
            <Position>
              <LatitudeDegrees>43.4659298323094844818115234375</LatitudeDegrees>
              <LongitudeDegrees>-3.85583731345832347869873046875</LongitudeDegrees>
            </Position>
            <AltitudeMeters>43.59999847412109375</AltitudeMeters>
            <DistanceMeters>NAN</DistanceMeters>
          </Trackpoint>
          <Trackpoint>
            <Time>2022-07-13T18:07:07.000Z</Time>
            <Position>
              <LatitudeDegrees>43.466081209480762481689453125</LatitudeDegrees>
              <LongitudeDegrees>-3.85626160539686679840087890625</LongitudeDegrees>
            </Position>
            <AltitudeMeters>42.799999237060546875</AltitudeMeters>
            <DistanceMeters>NAN</DistanceMeters>
          </Trackpoint>
          <Trackpoint>
            <Time>2022-07-13T18:07:08.000Z</Time>
            <Position>
              <LatitudeDegrees>43.46611817367374897003173828125</LatitudeDegrees>
              <LongitudeDegrees>-3.85632363148033618927001953125</LongitudeDegrees>
            </Position>
            <AltitudeMeters>42.59999847412109375</AltitudeMeters>
            <DistanceMeters>NAN</DistanceMeters>
          </Trackpoint>
          <Trackpoint>
            <Time>2022-07-13T18:07:15.000Z</Time>
            <Position>
              <LatitudeDegrees>43.46642277203500270843505859375</LatitudeDegrees>
              <LongitudeDegrees>-3.856724537909030914306640625</LongitudeDegrees>
            </Position>
            <AltitudeMeters>41.59999847412109375</AltitudeMeters>
            <DistanceMeters>NAN</DistanceMeters>
          </Trackpoint>
          <Trackpoint>
            <Time>2022-07-13T18:07:22.000Z</Time>
            <Position>
              <LatitudeDegrees>43.4667200781404972076416015625</LatitudeDegrees>
              <LongitudeDegrees>-3.85712007991969585418701171875</LongitudeDegrees>
            </Position>
            <AltitudeMeters>41.200000762939453125</AltitudeMeters>
            <DistanceMeters>NAN</DistanceMeters>
          </Trackpoint>
          <Trackpoint>
            <Time>2022-07-13T18:07:27.000Z</Time>
            <Position>
              <LatitudeDegrees>43.4669279493391513824462890625</LatitudeDegrees>
              <LongitudeDegrees>-3.85741663165390491485595703125</LongitudeDegrees>
            </Position>
            <AltitudeMeters>40.40000152587890625</AltitudeMeters>
            <DistanceMeters>NAN</DistanceMeters>
          </Trackpoint>
          <Trackpoint>
            <Time>2022-07-13T18:07:31.000Z</Time>
            <Position>
              <LatitudeDegrees>43.4671160392463207244873046875</LatitudeDegrees>
              <LongitudeDegrees>-3.85765166021883487701416015625</LongitudeDegrees>
            </Position>
            <AltitudeMeters>39.59999847412109375</AltitudeMeters>
            <DistanceMeters>NAN</DistanceMeters>
          </Trackpoint>
          <Trackpoint>
            <Time>2022-07-13T18:07:33.000Z</Time>
            <Position>
              <LatitudeDegrees>43.4672075696289539337158203125</LatitudeDegrees>
              <LongitudeDegrees>-3.85777068324387073516845703125</LongitudeDegrees>
            </Position>
            <AltitudeMeters>39.40000152587890625</AltitudeMeters>
            <DistanceMeters>NAN</DistanceMeters>
          </Trackpoint>
          <Trackpoint>
            <Time>2022-07-13T18:07:37.000Z</Time>
            <Position>
              <LatitudeDegrees>43.467372357845306396484375</LatitudeDegrees>
              <LongitudeDegrees>-3.85807000100612640380859375</LongitudeDegrees>
            </Position>
            <AltitudeMeters>38.59999847412109375</AltitudeMeters>
            <DistanceMeters>NAN</DistanceMeters>
          </Trackpoint>
          <Trackpoint>
            <Time>2022-07-13T18:07:38.000Z</Time>
            <Position>
              <LatitudeDegrees>43.467403538525104522705078125</LatitudeDegrees>
              <LongitudeDegrees>-3.85816329158842563629150390625</LongitudeDegrees>
            </Position>
            <AltitudeMeters>38.200000762939453125</AltitudeMeters>
            <DistanceMeters>NAN</DistanceMeters>
          </Trackpoint>
          <Trackpoint>
            <Time>2022-07-13T18:07:39.000Z</Time>
            <Position>
              <LatitudeDegrees>43.46742457710206508636474609375</LatitudeDegrees>
              <LongitudeDegrees>-3.8582663051784038543701171875</LongitudeDegrees>
            </Position>
            <AltitudeMeters>37.799999237060546875</AltitudeMeters>
            <DistanceMeters>NAN</DistanceMeters>
          </Trackpoint>
          <Trackpoint>
            <Time>2022-07-13T18:07:40.000Z</Time>
            <Position>
              <LatitudeDegrees>43.4674298577010631561279296875</LatitudeDegrees>
              <LongitudeDegrees>-3.85837535373866558074951171875</LongitudeDegrees>
            </Position>
            <AltitudeMeters>37.40000152587890625</AltitudeMeters>
            <DistanceMeters>NAN</DistanceMeters>
          </Trackpoint>
          <Trackpoint>
            <Time>2022-07-13T18:07:41.000Z</Time>
            <Position>
              <LatitudeDegrees>43.467427007853984832763671875</LatitudeDegrees>
              <LongitudeDegrees>-3.858485408127307891845703125</LongitudeDegrees>
            </Position>
            <AltitudeMeters>37</AltitudeMeters>
            <DistanceMeters>NAN</DistanceMeters>
          </Trackpoint>
          <Trackpoint>
            <Time>2022-07-13T18:07:45.000Z</Time>
            <Position>
              <LatitudeDegrees>43.467379398643970489501953125</LatitudeDegrees>
              <LongitudeDegrees>-3.8588778488337993621826171875</LongitudeDegrees>
            </Position>
            <AltitudeMeters>36.40000152587890625</AltitudeMeters>
            <DistanceMeters>NAN</DistanceMeters>
          </Trackpoint>
          <Trackpoint>
            <Time>2022-07-13T18:07:46.000Z</Time>
            <Position>
              <LatitudeDegrees>43.4673738665878772735595703125</LatitudeDegrees>
              <LongitudeDegrees>-3.85896912775933742523193359375</LongitudeDegrees>
            </Position>
            <AltitudeMeters>36.40000152587890625</AltitudeMeters>
            <DistanceMeters>NAN</DistanceMeters>
          </Trackpoint>
          <Trackpoint>
            <Time>2022-07-13T18:07:48.000Z</Time>
            <Position>
              <LatitudeDegrees>43.467386774718761444091796875</LatitudeDegrees>
              <LongitudeDegrees>-3.85912972502410411834716796875</LongitudeDegrees>
            </Position>
            <AltitudeMeters>36.40000152587890625</AltitudeMeters>
            <DistanceMeters>NAN</DistanceMeters>
          </Trackpoint>
          <Trackpoint>
            <Time>2022-07-13T18:07:49.000Z</Time>
            <Position>
              <LatitudeDegrees>43.46740881912410259246826171875</LatitudeDegrees>
              <LongitudeDegrees>-3.8591926731169223785400390625</LongitudeDegrees>
            </Position>
            <AltitudeMeters>36.40000152587890625</AltitudeMeters>
            <DistanceMeters>NAN</DistanceMeters>
          </Trackpoint>
          <Trackpoint>
            <Time>2022-07-13T18:07:50.000Z</Time>
            <Position>
              <LatitudeDegrees>43.4674412570893764495849609375</LatitudeDegrees>
              <LongitudeDegrees>-3.85924153961241245269775390625</LongitudeDegrees>
            </Position>
            <AltitudeMeters>36.200000762939453125</AltitudeMeters>
            <DistanceMeters>NAN</DistanceMeters>
          </Trackpoint>
          <Trackpoint>
            <Time>2022-07-13T18:07:52.000Z</Time>
            <Position>
              <LatitudeDegrees>43.46752348355948925018310546875</LatitudeDegrees>
              <LongitudeDegrees>-3.85930842719972133636474609375</LongitudeDegrees>
            </Position>
            <AltitudeMeters>36.200000762939453125</AltitudeMeters>
            <DistanceMeters>NAN</DistanceMeters>
          </Trackpoint>
          <Trackpoint>
            <Time>2022-07-13T18:07:56.000Z</Time>
            <Position>
              <LatitudeDegrees>43.4677124954760074615478515625</LatitudeDegrees>
              <LongitudeDegrees>-3.85940381325781345367431640625</LongitudeDegrees>
            </Position>
            <AltitudeMeters>36</AltitudeMeters>
            <DistanceMeters>NAN</DistanceMeters>
          </Trackpoint>
          <Trackpoint>
            <Time>2022-07-13T18:07:57.000Z</Time>
            <Position>
              <LatitudeDegrees>43.46775599755346775054931640625</LatitudeDegrees>
              <LongitudeDegrees>-3.8594307191669940948486328125</LongitudeDegrees>
            </Position>
            <AltitudeMeters>36</AltitudeMeters>
            <DistanceMeters>NAN</DistanceMeters>
          </Trackpoint>
          <Trackpoint>
            <Time>2022-07-13T18:07:59.000Z</Time>
            <Position>
              <LatitudeDegrees>43.46783998422324657440185546875</LatitudeDegrees>
              <LongitudeDegrees>-3.85948260314762592315673828125</LongitudeDegrees>
            </Position>
            <AltitudeMeters>36</AltitudeMeters>
            <DistanceMeters>NAN</DistanceMeters>
          </Trackpoint>
          <Trackpoint>
            <Time>2022-07-13T18:08:05.000Z</Time>
            <Position>
              <LatitudeDegrees>43.46811843104660511016845703125</LatitudeDegrees>
              <LongitudeDegrees>-3.859591148793697357177734375</LongitudeDegrees>
            </Position>
            <AltitudeMeters>36</AltitudeMeters>
            <DistanceMeters>NAN</DistanceMeters>
          </Trackpoint>
          <Trackpoint>
            <Time>2022-07-13T18:08:07.000Z</Time>
            <Position>
              <LatitudeDegrees>43.46821297891438007354736328125</LatitudeDegrees>
              <LongitudeDegrees>-3.85961587540805339813232421875</LongitudeDegrees>
            </Position>
            <AltitudeMeters>36</AltitudeMeters>
            <DistanceMeters>NAN</DistanceMeters>
          </Trackpoint>
          <Trackpoint>
            <Time>2022-07-13T18:08:09.000Z</Time>
            <Position>
              <LatitudeDegrees>43.46829780377447605133056640625</LatitudeDegrees>
              <LongitudeDegrees>-3.85964705608785152435302734375</LongitudeDegrees>
            </Position>
            <AltitudeMeters>36</AltitudeMeters>
            <DistanceMeters>NAN</DistanceMeters>
          </Trackpoint>
          <Trackpoint>
            <Time>2022-07-13T18:08:14.000Z</Time>
            <Position>
              <LatitudeDegrees>43.4685141406953334808349609375</LatitudeDegrees>
              <LongitudeDegrees>-3.8596865348517894744873046875</LongitudeDegrees>
            </Position>
            <AltitudeMeters>36</AltitudeMeters>
            <DistanceMeters>NAN</DistanceMeters>
          </Trackpoint>
          <Trackpoint>
            <Time>2022-07-13T18:08:20.000Z</Time>
            <Position>
              <LatitudeDegrees>43.46872410736978054046630859375</LatitudeDegrees>
              <LongitudeDegrees>-3.85973489843308925628662109375</LongitudeDegrees>
            </Position>
            <AltitudeMeters>36.40000152587890625</AltitudeMeters>
            <DistanceMeters>NAN</DistanceMeters>
          </Trackpoint>
          <Trackpoint>
            <Time>2022-07-13T18:08:25.000Z</Time>
            <Position>
              <LatitudeDegrees>43.46883608959615230560302734375</LatitudeDegrees>
              <LongitudeDegrees>-3.859761469066143035888671875</LongitudeDegrees>
            </Position>
            <AltitudeMeters>37</AltitudeMeters>
            <DistanceMeters>NAN</DistanceMeters>
          </Trackpoint>
          <Trackpoint>
            <Time>2022-07-13T18:08:26.000Z</Time>
            <Position>
              <LatitudeDegrees>43.468855284154415130615234375</LatitudeDegrees>
              <LongitudeDegrees>-3.85976607911288738250732421875</LongitudeDegrees>
            </Position>
            <AltitudeMeters>37.200000762939453125</AltitudeMeters>
            <DistanceMeters>NAN</DistanceMeters>
          </Trackpoint>
          <Trackpoint>
            <Time>2022-07-13T18:08:32.000Z</Time>
            <Position>
              <LatitudeDegrees>43.46898528747260570526123046875</LatitudeDegrees>
              <LongitudeDegrees>-3.85981134139001369476318359375</LongitudeDegrees>
            </Position>
            <AltitudeMeters>38</AltitudeMeters>
            <DistanceMeters>NAN</DistanceMeters>
          </Trackpoint>
          <Trackpoint>
            <Time>2022-07-13T18:08:39.000Z</Time>
            <Position>
              <LatitudeDegrees>43.46920154057443141937255859375</LatitudeDegrees>
              <LongitudeDegrees>-3.85987454093992710113525390625</LongitudeDegrees>
            </Position>
            <AltitudeMeters>37.799999237060546875</AltitudeMeters>
            <DistanceMeters>NAN</DistanceMeters>
          </Trackpoint>
          <Trackpoint>
            <Time>2022-07-13T18:08:41.000Z</Time>
            <Position>
              <LatitudeDegrees>43.46928142011165618896484375</LatitudeDegrees>
              <LongitudeDegrees>-3.859897591173648834228515625</LongitudeDegrees>
            </Position>
            <AltitudeMeters>37.59999847412109375</AltitudeMeters>
            <DistanceMeters>NAN</DistanceMeters>
          </Trackpoint>
          <Trackpoint>
            <Time>2022-07-13T18:08:43.000Z</Time>
            <Position>
              <LatitudeDegrees>43.469352833926677703857421875</LatitudeDegrees>
              <LongitudeDegrees>-3.85992097668349742889404296875</LongitudeDegrees>
            </Position>
            <AltitudeMeters>37.59999847412109375</AltitudeMeters>
            <DistanceMeters>NAN</DistanceMeters>
          </Trackpoint>
          <Trackpoint>
            <Time>2022-07-13T18:08:45.000Z</Time>
            <Position>
              <LatitudeDegrees>43.469421230256557464599609375</LatitudeDegrees>
              <LongitudeDegrees>-3.85994511656463146209716796875</LongitudeDegrees>
            </Position>
            <AltitudeMeters>37.59999847412109375</AltitudeMeters>
            <DistanceMeters>NAN</DistanceMeters>
          </Trackpoint>
          <Trackpoint>
            <Time>2022-07-13T18:08:47.000Z</Time>
            <Position>
              <LatitudeDegrees>43.46949339844286441802978515625</LatitudeDegrees>
              <LongitudeDegrees>-3.8599581085145473480224609375</LongitudeDegrees>
            </Position>
            <AltitudeMeters>37.59999847412109375</AltitudeMeters>
            <DistanceMeters>NAN</DistanceMeters>
          </Trackpoint>
          <Trackpoint>
            <Time>2022-07-13T18:08:49.000Z</Time>
            <Position>
              <LatitudeDegrees>43.46956548281013965606689453125</LatitudeDegrees>
              <LongitudeDegrees>-3.85996372438967227935791015625</LongitudeDegrees>
            </Position>
            <AltitudeMeters>37.59999847412109375</AltitudeMeters>
            <DistanceMeters>NAN</DistanceMeters>
          </Trackpoint>
          <Trackpoint>
            <Time>2022-07-13T18:08:51.000Z</Time>
            <Position>
              <LatitudeDegrees>43.46961493603885173797607421875</LatitudeDegrees>
              <LongitudeDegrees>-3.85997227393090724945068359375</LongitudeDegrees>
            </Position>
            <AltitudeMeters>37.799999237060546875</AltitudeMeters>
            <DistanceMeters>NAN</DistanceMeters>
          </Trackpoint>
          <Trackpoint>
            <Time>2022-07-13T18:08:52.000Z</Time>
            <Position>
              <LatitudeDegrees>43.46963941119611263275146484375</LatitudeDegrees>
              <LongitudeDegrees>-3.85997436940670013427734375</LongitudeDegrees>
            </Position>
            <AltitudeMeters>38</AltitudeMeters>
            <DistanceMeters>NAN</DistanceMeters>
          </Trackpoint>
          <Trackpoint>
            <Time>2022-07-13T18:08:53.000Z</Time>
            <Position>
              <LatitudeDegrees>43.46966606564819812774658203125</LatitudeDegrees>
              <LongitudeDegrees>-3.8599782250821590423583984375</LongitudeDegrees>
            </Position>
            <AltitudeMeters>38</AltitudeMeters>
            <DistanceMeters>NAN</DistanceMeters>
          </Trackpoint>
          <Trackpoint>
            <Time>2022-07-13T18:08:54.000Z</Time>
            <Position>
              <LatitudeDegrees>43.46969188190996646881103515625</LatitudeDegrees>
              <LongitudeDegrees>-3.85998618789017200469970703125</LongitudeDegrees>
            </Position>
            <AltitudeMeters>38.200000762939453125</AltitudeMeters>
            <DistanceMeters>NAN</DistanceMeters>
          </Trackpoint>
          <Trackpoint>
            <Time>2022-07-13T18:08:55.000Z</Time>
            <Position>
              <LatitudeDegrees>43.469714932143688201904296875</LatitudeDegrees>
              <LongitudeDegrees>-3.85999725200235843658447265625</LongitudeDegrees>
            </Position>
            <AltitudeMeters>38.200000762939453125</AltitudeMeters>
            <DistanceMeters>NAN</DistanceMeters>
          </Trackpoint>
          <Trackpoint>
            <Time>2022-07-13T18:08:58.000Z</Time>
            <Position>
              <LatitudeDegrees>43.46974887885153293609619140625</LatitudeDegrees>
              <LongitudeDegrees>-3.86006061919033527374267578125</LongitudeDegrees>
            </Position>
            <AltitudeMeters>38.59999847412109375</AltitudeMeters>
            <DistanceMeters>NAN</DistanceMeters>
          </Trackpoint>
          <Trackpoint>
            <Time>2022-07-13T18:09:03.000Z</Time>
            <Position>
              <LatitudeDegrees>43.4696980006992816925048828125</LatitudeDegrees>
              <LongitudeDegrees>-3.86023588478565216064453125</LongitudeDegrees>
            </Position>
            <AltitudeMeters>39</AltitudeMeters>
            <DistanceMeters>NAN</DistanceMeters>
          </Trackpoint>
          <Trackpoint>
            <Time>2022-07-13T18:09:05.000Z</Time>
            <Position>
              <LatitudeDegrees>43.46967830322682857513427734375</LatitudeDegrees>
              <LongitudeDegrees>-3.86030302383005619049072265625</LongitudeDegrees>
            </Position>
            <AltitudeMeters>39</AltitudeMeters>
            <DistanceMeters>NAN</DistanceMeters>
          </Trackpoint>
          <Trackpoint>
            <Time>2022-07-13T18:09:08.000Z</Time>
            <Position>
              <LatitudeDegrees>43.4696353040635585784912109375</LatitudeDegrees>
              <LongitudeDegrees>-3.860403187572956085205078125</LongitudeDegrees>
            </Position>
            <AltitudeMeters>39.200000762939453125</AltitudeMeters>
            <DistanceMeters>NAN</DistanceMeters>
          </Trackpoint>
          <Trackpoint>
            <Time>2022-07-13T18:09:09.000Z</Time>
            <Position>
              <LatitudeDegrees>43.4696259163320064544677734375</LatitudeDegrees>
              <LongitudeDegrees>-3.860433362424373626708984375</LongitudeDegrees>
            </Position>
            <AltitudeMeters>39.40000152587890625</AltitudeMeters>
            <DistanceMeters>NAN</DistanceMeters>
          </Trackpoint>
          <Trackpoint>
            <Time>2022-07-13T18:09:15.000Z</Time>
            <Position>
              <LatitudeDegrees>43.4695806540548801422119140625</LatitudeDegrees>
              <LongitudeDegrees>-3.860586918890476226806640625</LongitudeDegrees>
            </Position>
            <AltitudeMeters>40</AltitudeMeters>
            <DistanceMeters>NAN</DistanceMeters>
          </Trackpoint>
          <Trackpoint>
            <Time>2022-07-13T18:09:17.000Z</Time>
            <Position>
              <LatitudeDegrees>43.46956213004887104034423828125</LatitudeDegrees>
              <LongitudeDegrees>-3.86062740348279476165771484375</LongitudeDegrees>
            </Position>
            <AltitudeMeters>40.200000762939453125</AltitudeMeters>
            <DistanceMeters>NAN</DistanceMeters>
          </Trackpoint>
          <Trackpoint>
            <Time>2022-07-13T18:09:21.000Z</Time>
            <Position>
              <LatitudeDegrees>43.4695410914719104766845703125</LatitudeDegrees>
              <LongitudeDegrees>-3.86072647757828235626220703125</LongitudeDegrees>
            </Position>
            <AltitudeMeters>40.799999237060546875</AltitudeMeters>
            <DistanceMeters>NAN</DistanceMeters>
          </Trackpoint>
          <Trackpoint>
            <Time>2022-07-13T18:09:26.000Z</Time>
            <Position>
              <LatitudeDegrees>43.469549305737018585205078125</LatitudeDegrees>
              <LongitudeDegrees>-3.86086813174188137054443359375</LongitudeDegrees>
            </Position>
            <AltitudeMeters>41.200000762939453125</AltitudeMeters>
            <DistanceMeters>NAN</DistanceMeters>
          </Trackpoint>
          <Trackpoint>
            <Time>2022-07-13T18:09:27.000Z</Time>
            <Position>
              <LatitudeDegrees>43.46954972483217716217041015625</LatitudeDegrees>
              <LongitudeDegrees>-3.8608990609645843505859375</LongitudeDegrees>
            </Position>
            <AltitudeMeters>41.40000152587890625</AltitudeMeters>
            <DistanceMeters>NAN</DistanceMeters>
          </Trackpoint>
          <Trackpoint>
            <Time>2022-07-13T18:09:30.000Z</Time>
            <Position>
              <LatitudeDegrees>43.46954293549060821533203125</LatitudeDegrees>
              <LongitudeDegrees>-3.86098078452050685882568359375</LongitudeDegrees>
            </Position>
            <AltitudeMeters>41.799999237060546875</AltitudeMeters>
            <DistanceMeters>NAN</DistanceMeters>
          </Trackpoint>
          <Trackpoint>
            <Time>2022-07-13T18:09:35.000Z</Time>
            <Position>
              <LatitudeDegrees>43.4695176221430301666259765625</LatitudeDegrees>
              <LongitudeDegrees>-3.86112428270280361175537109375</LongitudeDegrees>
            </Position>
            <AltitudeMeters>42.200000762939453125</AltitudeMeters>
            <DistanceMeters>NAN</DistanceMeters>
          </Trackpoint>
          <Trackpoint>
            <Time>2022-07-13T18:09:36.000Z</Time>
            <Position>
              <LatitudeDegrees>43.46951007843017578125</LatitudeDegrees>
              <LongitudeDegrees>-3.861155547201633453369140625</LongitudeDegrees>
            </Position>
            <AltitudeMeters>42.40000152587890625</AltitudeMeters>
            <DistanceMeters>NAN</DistanceMeters>
          </Trackpoint>
          <Trackpoint>
            <Time>2022-07-13T18:09:40.000Z</Time>
            <Position>
              <LatitudeDegrees>43.46948434598743915557861328125</LatitudeDegrees>
              <LongitudeDegrees>-3.86128756217658519744873046875</LongitudeDegrees>
            </Position>
            <AltitudeMeters>42.59999847412109375</AltitudeMeters>
            <DistanceMeters>NAN</DistanceMeters>
          </Trackpoint>
          <Trackpoint>
            <Time>2022-07-13T18:09:49.000Z</Time>
            <Position>
              <LatitudeDegrees>43.469446711242198944091796875</LatitudeDegrees>
              <LongitudeDegrees>-3.8616405241191387176513671875</LongitudeDegrees>
            </Position>
            <AltitudeMeters>42.59999847412109375</AltitudeMeters>
            <DistanceMeters>NAN</DistanceMeters>
          </Trackpoint>
          <Trackpoint>
            <Time>2022-07-13T18:09:53.000Z</Time>
            <Position>
              <LatitudeDegrees>43.4694113396108150482177734375</LatitudeDegrees>
              <LongitudeDegrees>-3.86184244416654109954833984375</LongitudeDegrees>
            </Position>
            <AltitudeMeters>42.40000152587890625</AltitudeMeters>
            <DistanceMeters>NAN</DistanceMeters>
          </Trackpoint>
          <Trackpoint>
            <Time>2022-07-13T18:09:55.000Z</Time>
            <Position>
              <LatitudeDegrees>43.46938460133969783782958984375</LatitudeDegrees>
              <LongitudeDegrees>-3.86193783022463321685791015625</LongitudeDegrees>
            </Position>
            <AltitudeMeters>42.40000152587890625</AltitudeMeters>
            <DistanceMeters>NAN</DistanceMeters>
          </Trackpoint>
          <Trackpoint>
            <Time>2022-07-13T18:10:01.000Z</Time>
            <Position>
              <LatitudeDegrees>43.46929357387125492095947265625</LatitudeDegrees>
              <LongitudeDegrees>-3.86225684545934200286865234375</LongitudeDegrees>
            </Position>
            <AltitudeMeters>42.40000152587890625</AltitudeMeters>
            <DistanceMeters>NAN</DistanceMeters>
          </Trackpoint>
          <Trackpoint>
            <Time>2022-07-13T18:10:04.000Z</Time>
            <Position>
              <LatitudeDegrees>43.46925057470798492431640625</LatitudeDegrees>
              <LongitudeDegrees>-3.8624037802219390869140625</LongitudeDegrees>
            </Position>
            <AltitudeMeters>42.59999847412109375</AltitudeMeters>
            <DistanceMeters>NAN</DistanceMeters>
          </Trackpoint>
          <Trackpoint>
            <Time>2022-07-13T18:10:09.000Z</Time>
            <Position>
              <LatitudeDegrees>43.46916734240949153900146484375</LatitudeDegrees>
              <LongitudeDegrees>-3.86265448294579982757568359375</LongitudeDegrees>
            </Position>
            <AltitudeMeters>42.59999847412109375</AltitudeMeters>
            <DistanceMeters>NAN</DistanceMeters>
          </Trackpoint>
          <Trackpoint>
            <Time>2022-07-13T18:10:11.000Z</Time>
            <Position>
              <LatitudeDegrees>43.46913389861583709716796875</LatitudeDegrees>
              <LongitudeDegrees>-3.86275087483227252960205078125</LongitudeDegrees>
            </Position>
            <AltitudeMeters>42.59999847412109375</AltitudeMeters>
            <DistanceMeters>NAN</DistanceMeters>
          </Trackpoint>
          <Trackpoint>
            <Time>2022-07-13T18:10:19.000Z</Time>
            <Position>
              <LatitudeDegrees>43.4690254367887973785400390625</LatitudeDegrees>
              <LongitudeDegrees>-3.8630852289497852325439453125</LongitudeDegrees>
            </Position>
            <AltitudeMeters>43</AltitudeMeters>
            <DistanceMeters>NAN</DistanceMeters>
          </Trackpoint>
          <Trackpoint>
            <Time>2022-07-13T18:10:27.000Z</Time>
            <Position>
              <LatitudeDegrees>43.46892426721751689910888671875</LatitudeDegrees>
              <LongitudeDegrees>-3.8634992949664592742919921875</LongitudeDegrees>
            </Position>
            <AltitudeMeters>43.200000762939453125</AltitudeMeters>
            <DistanceMeters>NAN</DistanceMeters>
          </Trackpoint>
          <Trackpoint>
            <Time>2022-07-13T18:10:34.000Z</Time>
            <Position>
              <LatitudeDegrees>43.46885670907795429229736328125</LatitudeDegrees>
              <LongitudeDegrees>-3.86394294910132884979248046875</LongitudeDegrees>
            </Position>
            <AltitudeMeters>42.799999237060546875</AltitudeMeters>
            <DistanceMeters>NAN</DistanceMeters>
          </Trackpoint>
          <Trackpoint>
            <Time>2022-07-13T18:10:35.000Z</Time>
            <Position>
              <LatitudeDegrees>43.4688423760235309600830078125</LatitudeDegrees>
              <LongitudeDegrees>-3.86401788331568241119384765625</LongitudeDegrees>
            </Position>
            <AltitudeMeters>42.59999847412109375</AltitudeMeters>
            <DistanceMeters>NAN</DistanceMeters>
          </Trackpoint>
          <Trackpoint>
            <Time>2022-07-13T18:10:43.000Z</Time>
            <Position>
              <LatitudeDegrees>43.46871756948530673980712890625</LatitudeDegrees>
              <LongitudeDegrees>-3.86458919383585453033447265625</LongitudeDegrees>
            </Position>
            <AltitudeMeters>42.200000762939453125</AltitudeMeters>
            <DistanceMeters>NAN</DistanceMeters>
          </Trackpoint>
          <Trackpoint>
            <Time>2022-07-13T18:10:47.000Z</Time>
            <Position>
              <LatitudeDegrees>43.4686531126499176025390625</LatitudeDegrees>
              <LongitudeDegrees>-3.86484165675938129425048828125</LongitudeDegrees>
            </Position>
            <AltitudeMeters>41.799999237060546875</AltitudeMeters>
            <DistanceMeters>NAN</DistanceMeters>
          </Trackpoint>
          <Trackpoint>
            <Time>2022-07-13T18:10:49.000Z</Time>
            <Position>
              <LatitudeDegrees>43.46862905658781528472900390625</LatitudeDegrees>
              <LongitudeDegrees>-3.86495263315737247467041015625</LongitudeDegrees>
            </Position>
            <AltitudeMeters>41.799999237060546875</AltitudeMeters>
            <DistanceMeters>NAN</DistanceMeters>
          </Trackpoint>
          <Trackpoint>
            <Time>2022-07-13T18:10:53.000Z</Time>
            <Position>
              <LatitudeDegrees>43.468554206192493438720703125</LatitudeDegrees>
              <LongitudeDegrees>-3.8652229495346546173095703125</LongitudeDegrees>
            </Position>
            <AltitudeMeters>41.40000152587890625</AltitudeMeters>
            <DistanceMeters>NAN</DistanceMeters>
          </Trackpoint>
          <Trackpoint>
            <Time>2022-07-13T18:10:57.000Z</Time>
            <Position>
              <LatitudeDegrees>43.468452952802181243896484375</LatitudeDegrees>
              <LongitudeDegrees>-3.86550433002412319183349609375</LongitudeDegrees>
            </Position>
            <AltitudeMeters>41</AltitudeMeters>
            <DistanceMeters>NAN</DistanceMeters>
          </Trackpoint>
          <Trackpoint>
            <Time>2022-07-13T18:11:05.000Z</Time>
            <Position>
              <LatitudeDegrees>43.468306772410869598388671875</LatitudeDegrees>
              <LongitudeDegrees>-3.86600129306316375732421875</LongitudeDegrees>
            </Position>
            <AltitudeMeters>40.799999237060546875</AltitudeMeters>
            <DistanceMeters>NAN</DistanceMeters>
          </Trackpoint>
          <Trackpoint>
            <Time>2022-07-13T18:11:12.000Z</Time>
            <Position>
              <LatitudeDegrees>43.468276597559452056884765625</LatitudeDegrees>
              <LongitudeDegrees>-3.8663949072360992431640625</LongitudeDegrees>
            </Position>
            <AltitudeMeters>40.799999237060546875</AltitudeMeters>
            <DistanceMeters>NAN</DistanceMeters>
          </Trackpoint>
          <Trackpoint>
            <Time>2022-07-13T18:11:14.000Z</Time>
            <Position>
              <LatitudeDegrees>43.4682566486299037933349609375</LatitudeDegrees>
              <LongitudeDegrees>-3.8665094040334224700927734375</LongitudeDegrees>
            </Position>
            <AltitudeMeters>40.799999237060546875</AltitudeMeters>
            <DistanceMeters>NAN</DistanceMeters>
          </Trackpoint>
          <Trackpoint>
            <Time>2022-07-13T18:11:19.000Z</Time>
            <Position>
              <LatitudeDegrees>43.46819688566029071807861328125</LatitudeDegrees>
              <LongitudeDegrees>-3.8667407445609569549560546875</LongitudeDegrees>
            </Position>
            <AltitudeMeters>41.200000762939453125</AltitudeMeters>
            <DistanceMeters>NAN</DistanceMeters>
          </Trackpoint>
          <Trackpoint>
            <Time>2022-07-13T18:11:24.000Z</Time>
            <Position>
              <LatitudeDegrees>43.46815765835344791412353515625</LatitudeDegrees>
              <LongitudeDegrees>-3.86705514974892139434814453125</LongitudeDegrees>
            </Position>
            <AltitudeMeters>41.200000762939453125</AltitudeMeters>
            <DistanceMeters>NAN</DistanceMeters>
          </Trackpoint>
          <Trackpoint>
            <Time>2022-07-13T18:11:28.000Z</Time>
            <Position>
              <LatitudeDegrees>43.46811675466597080230712890625</LatitudeDegrees>
              <LongitudeDegrees>-3.867297135293483734130859375</LongitudeDegrees>
            </Position>
            <AltitudeMeters>40.799999237060546875</AltitudeMeters>
            <DistanceMeters>NAN</DistanceMeters>
          </Trackpoint>
          <Trackpoint>
            <Time>2022-07-13T18:11:32.000Z</Time>
            <Position>
              <LatitudeDegrees>43.46806210465729236602783203125</LatitudeDegrees>
              <LongitudeDegrees>-3.8675635121762752532958984375</LongitudeDegrees>
            </Position>
            <AltitudeMeters>40.799999237060546875</AltitudeMeters>
            <DistanceMeters>NAN</DistanceMeters>
          </Trackpoint>
          <Trackpoint>
            <Time>2022-07-13T18:11:33.000Z</Time>
            <Position>
              <LatitudeDegrees>43.4680504538118839263916015625</LatitudeDegrees>
              <LongitudeDegrees>-3.86761271394789218902587890625</LongitudeDegrees>
            </Position>
            <AltitudeMeters>40.799999237060546875</AltitudeMeters>
            <DistanceMeters>NAN</DistanceMeters>
          </Trackpoint>
          <Trackpoint>
            <Time>2022-07-13T18:11:39.000Z</Time>
            <Position>
              <LatitudeDegrees>43.4679636172950267791748046875</LatitudeDegrees>
              <LongitudeDegrees>-3.86794698424637317657470703125</LongitudeDegrees>
            </Position>
            <AltitudeMeters>40.799999237060546875</AltitudeMeters>
            <DistanceMeters>NAN</DistanceMeters>
          </Trackpoint>
          <Trackpoint>
            <Time>2022-07-13T18:11:40.000Z</Time>
            <Position>
              <LatitudeDegrees>43.46795079298317432403564453125</LatitudeDegrees>
              <LongitudeDegrees>-3.86801772750914096832275390625</LongitudeDegrees>
            </Position>
            <AltitudeMeters>40.59999847412109375</AltitudeMeters>
            <DistanceMeters>NAN</DistanceMeters>
          </Trackpoint>
          <Trackpoint>
            <Time>2022-07-13T18:11:41.000Z</Time>
            <Position>
              <LatitudeDegrees>43.46794408746063709259033203125</LatitudeDegrees>
              <LongitudeDegrees>-3.86806667782366275787353515625</LongitudeDegrees>
            </Position>
            <AltitudeMeters>40.59999847412109375</AltitudeMeters>
            <DistanceMeters>NAN</DistanceMeters>
          </Trackpoint>
          <Trackpoint>
            <Time>2022-07-13T18:11:42.000Z</Time>
            <Position>
              <LatitudeDegrees>43.46793168224394321441650390625</LatitudeDegrees>
              <LongitudeDegrees>-3.86812753044068813323974609375</LongitudeDegrees>
            </Position>
            <AltitudeMeters>40.59999847412109375</AltitudeMeters>
            <DistanceMeters>NAN</DistanceMeters>
          </Trackpoint>
          <Trackpoint>
            <Time>2022-07-13T18:11:48.000Z</Time>
            <Position>
              <LatitudeDegrees>43.46783713437616825103759765625</LatitudeDegrees>
              <LongitudeDegrees>-3.8684493117034435272216796875</LongitudeDegrees>
            </Position>
            <AltitudeMeters>40.799999237060546875</AltitudeMeters>
            <DistanceMeters>NAN</DistanceMeters>
          </Trackpoint>
          <Trackpoint>
            <Time>2022-07-13T18:11:57.000Z</Time>
            <Position>
              <LatitudeDegrees>43.46773051656782627105712890625</LatitudeDegrees>
              <LongitudeDegrees>-3.86887989006936550140380859375</LongitudeDegrees>
            </Position>
            <AltitudeMeters>41.200000762939453125</AltitudeMeters>
            <DistanceMeters>NAN</DistanceMeters>
          </Trackpoint>
          <Trackpoint>
            <Time>2022-07-13T18:12:05.000Z</Time>
            <Position>
              <LatitudeDegrees>43.46759808249771595001220703125</LatitudeDegrees>
              <LongitudeDegrees>-3.8692388869822025299072265625</LongitudeDegrees>
            </Position>
            <AltitudeMeters>41.40000152587890625</AltitudeMeters>
            <DistanceMeters>NAN</DistanceMeters>
          </Trackpoint>
          <Trackpoint>
            <Time>2022-07-13T18:12:12.000Z</Time>
            <Position>
              <LatitudeDegrees>43.4674144349992275238037109375</LatitudeDegrees>
              <LongitudeDegrees>-3.86947383172810077667236328125</LongitudeDegrees>
            </Position>
            <AltitudeMeters>41.59999847412109375</AltitudeMeters>
            <DistanceMeters>NAN</DistanceMeters>
          </Trackpoint>
          <Trackpoint>
            <Time>2022-07-13T18:12:16.000Z</Time>
            <Position>
              <LatitudeDegrees>43.46729985438287258148193359375</LatitudeDegrees>
              <LongitudeDegrees>-3.86958179064095020294189453125</LongitudeDegrees>
            </Position>
            <AltitudeMeters>41.59999847412109375</AltitudeMeters>
            <DistanceMeters>NAN</DistanceMeters>
          </Trackpoint>
          <Trackpoint>
            <Time>2022-07-13T18:12:18.000Z</Time>
            <Position>
              <LatitudeDegrees>43.4672799892723560333251953125</LatitudeDegrees>
              <LongitudeDegrees>-3.869635351002216339111328125</LongitudeDegrees>
            </Position>
            <AltitudeMeters>41.59999847412109375</AltitudeMeters>
            <DistanceMeters>NAN</DistanceMeters>
          </Trackpoint>
          <Trackpoint>
            <Time>2022-07-13T18:12:20.000Z</Time>
            <Position>
              <LatitudeDegrees>43.467297255992889404296875</LatitudeDegrees>
              <LongitudeDegrees>-3.8696873188018798828125</LongitudeDegrees>
            </Position>
            <AltitudeMeters>41.59999847412109375</AltitudeMeters>
            <DistanceMeters>NAN</DistanceMeters>
          </Trackpoint>
          <Trackpoint>
            <Time>2022-07-13T18:12:22.000Z</Time>
            <Position>
              <LatitudeDegrees>43.46733891405165195465087890625</LatitudeDegrees>
              <LongitudeDegrees>-3.86972797103226184844970703125</LongitudeDegrees>
            </Position>
            <AltitudeMeters>41.799999237060546875</AltitudeMeters>
            <DistanceMeters>NAN</DistanceMeters>
          </Trackpoint>
          <Trackpoint>
            <Time>2022-07-13T18:12:26.000Z</Time>
            <Position>
              <LatitudeDegrees>43.4674533270299434661865234375</LatitudeDegrees>
              <LongitudeDegrees>-3.86977960355579853057861328125</LongitudeDegrees>
            </Position>
            <AltitudeMeters>41.799999237060546875</AltitudeMeters>
            <DistanceMeters>NAN</DistanceMeters>
          </Trackpoint>
          <Trackpoint>
            <Time>2022-07-13T18:12:29.000Z</Time>
            <Position>
              <LatitudeDegrees>43.4675472043454647064208984375</LatitudeDegrees>
              <LongitudeDegrees>-3.869831152260303497314453125</LongitudeDegrees>
            </Position>
            <AltitudeMeters>42</AltitudeMeters>
            <DistanceMeters>NAN</DistanceMeters>
          </Trackpoint>
          <Trackpoint>
            <Time>2022-07-13T18:12:36.000Z</Time>
            <Position>
              <LatitudeDegrees>43.46778818406164646148681640625</LatitudeDegrees>
              <LongitudeDegrees>-3.86993802152574062347412109375</LongitudeDegrees>
            </Position>
            <AltitudeMeters>42.40000152587890625</AltitudeMeters>
            <DistanceMeters>NAN</DistanceMeters>
          </Trackpoint>
          <Trackpoint>
            <Time>2022-07-13T18:12:37.000Z</Time>
            <Position>
              <LatitudeDegrees>43.467820622026920318603515625</LatitudeDegrees>
              <LongitudeDegrees>-3.8699568808078765869140625</LongitudeDegrees>
            </Position>
            <AltitudeMeters>42.40000152587890625</AltitudeMeters>
            <DistanceMeters>NAN</DistanceMeters>
          </Trackpoint>
          <Trackpoint>
            <Time>2022-07-13T18:12:45.000Z</Time>
            <Position>
              <LatitudeDegrees>43.4680618532001972198486328125</LatitudeDegrees>
              <LongitudeDegrees>-3.8701146282255649566650390625</LongitudeDegrees>
            </Position>
            <AltitudeMeters>42.799999237060546875</AltitudeMeters>
            <DistanceMeters>NAN</DistanceMeters>
          </Trackpoint>
          <Trackpoint>
            <Time>2022-07-13T18:12:53.000Z</Time>
            <Position>
              <LatitudeDegrees>43.46824617125093936920166015625</LatitudeDegrees>
              <LongitudeDegrees>-3.8702356629073619842529296875</LongitudeDegrees>
            </Position>
            <AltitudeMeters>43.59999847412109375</AltitudeMeters>
            <DistanceMeters>NAN</DistanceMeters>
          </Trackpoint>
          <Trackpoint>
            <Time>2022-07-13T18:12:54.000Z</Time>
            <Position>
              <LatitudeDegrees>43.46825991757214069366455078125</LatitudeDegrees>
              <LongitudeDegrees>-3.87024597264826297760009765625</LongitudeDegrees>
            </Position>
            <AltitudeMeters>43.59999847412109375</AltitudeMeters>
            <DistanceMeters>NAN</DistanceMeters>
          </Trackpoint>
          <Trackpoint>
            <Time>2022-07-13T18:12:59.000Z</Time>
            <Position>
              <LatitudeDegrees>43.468362428247928619384765625</LatitudeDegrees>
              <LongitudeDegrees>-3.87033331207931041717529296875</LongitudeDegrees>
            </Position>
            <AltitudeMeters>44</AltitudeMeters>
            <DistanceMeters>NAN</DistanceMeters>
          </Trackpoint>
          <Trackpoint>
            <Time>2022-07-13T18:13:03.000Z</Time>
            <Position>
              <LatitudeDegrees>43.4683880768716335296630859375</LatitudeDegrees>
              <LongitudeDegrees>-3.8704344816505908966064453125</LongitudeDegrees>
            </Position>
            <AltitudeMeters>44.200000762939453125</AltitudeMeters>
            <DistanceMeters>NAN</DistanceMeters>
          </Trackpoint>
          <Trackpoint>
            <Time>2022-07-13T18:13:09.000Z</Time>
            <Position>
              <LatitudeDegrees>43.4683367796242237091064453125</LatitudeDegrees>
              <LongitudeDegrees>-3.87067026458680629730224609375</LongitudeDegrees>
            </Position>
            <AltitudeMeters>44.59999847412109375</AltitudeMeters>
            <DistanceMeters>NAN</DistanceMeters>
          </Trackpoint>
          <Trackpoint>
            <Time>2022-07-13T18:13:10.000Z</Time>
            <Position>
              <LatitudeDegrees>43.46832898445427417755126953125</LatitudeDegrees>
              <LongitudeDegrees>-3.87071116827428340911865234375</LongitudeDegrees>
            </Position>
            <AltitudeMeters>44.59999847412109375</AltitudeMeters>
            <DistanceMeters>NAN</DistanceMeters>
          </Trackpoint>
          <Trackpoint>
            <Time>2022-07-13T18:13:16.000Z</Time>
            <Position>
              <LatitudeDegrees>43.4682626836001873016357421875</LatitudeDegrees>
              <LongitudeDegrees>-3.87097083963453769683837890625</LongitudeDegrees>
            </Position>
            <AltitudeMeters>45</AltitudeMeters>
            <DistanceMeters>NAN</DistanceMeters>
          </Trackpoint>
          <Trackpoint>
            <Time>2022-07-13T18:13:18.000Z</Time>
            <Position>
              <LatitudeDegrees>43.46824332140386104583740234375</LatitudeDegrees>
              <LongitudeDegrees>-3.871052898466587066650390625</LongitudeDegrees>
            </Position>
            <AltitudeMeters>45</AltitudeMeters>
            <DistanceMeters>NAN</DistanceMeters>
          </Trackpoint>
          <Trackpoint>
            <Time>2022-07-13T18:13:29.000Z</Time>
            <Position>
              <LatitudeDegrees>43.468127734959125518798828125</LatitudeDegrees>
              <LongitudeDegrees>-3.87159168720245361328125</LongitudeDegrees>
            </Position>
            <AltitudeMeters>45.40000152587890625</AltitudeMeters>
            <DistanceMeters>NAN</DistanceMeters>
          </Trackpoint>
          <Trackpoint>
            <Time>2022-07-13T18:13:39.000Z</Time>
            <Position>
              <LatitudeDegrees>43.4680254757404327392578125</LatitudeDegrees>
              <LongitudeDegrees>-3.8721536099910736083984375</LongitudeDegrees>
            </Position>
            <AltitudeMeters>45.200000762939453125</AltitudeMeters>
            <DistanceMeters>NAN</DistanceMeters>
          </Trackpoint>
          <Trackpoint>
            <Time>2022-07-13T18:13:48.000Z</Time>
            <Position>
              <LatitudeDegrees>43.46792296506464481353759765625</LatitudeDegrees>
              <LongitudeDegrees>-3.87268929742276668548583984375</LongitudeDegrees>
            </Position>
            <AltitudeMeters>45.200000762939453125</AltitudeMeters>
            <DistanceMeters>NAN</DistanceMeters>
          </Trackpoint>
          <Trackpoint>
            <Time>2022-07-13T18:13:49.000Z</Time>
            <Position>
              <LatitudeDegrees>43.46791273914277553558349609375</LatitudeDegrees>
              <LongitudeDegrees>-3.872750066220760345458984375</LongitudeDegrees>
            </Position>
            <AltitudeMeters>45</AltitudeMeters>
            <DistanceMeters>NAN</DistanceMeters>
          </Trackpoint>
          <Trackpoint>
            <Time>2022-07-13T18:13:57.000Z</Time>
            <Position>
              <LatitudeDegrees>43.46780461259186267852783203125</LatitudeDegrees>
              <LongitudeDegrees>-3.873230852186679840087890625</LongitudeDegrees>
            </Position>
            <AltitudeMeters>45.200000762939453125</AltitudeMeters>
            <DistanceMeters>NAN</DistanceMeters>
          </Trackpoint>
          <Trackpoint>
            <Time>2022-07-13T18:14:05.000Z</Time>
            <Position>
              <LatitudeDegrees>43.46770226955413818359375</LatitudeDegrees>
              <LongitudeDegrees>-3.87370459735393524169921875</LongitudeDegrees>
            </Position>
            <AltitudeMeters>45.200000762939453125</AltitudeMeters>
            <DistanceMeters>NAN</DistanceMeters>
          </Trackpoint>
          <Trackpoint>
            <Time>2022-07-13T18:14:14.000Z</Time>
            <Position>
              <LatitudeDegrees>43.46759120933711528778076171875</LatitudeDegrees>
              <LongitudeDegrees>-3.87419301085174083709716796875</LongitudeDegrees>
            </Position>
            <AltitudeMeters>45.200000762939453125</AltitudeMeters>
            <DistanceMeters>NAN</DistanceMeters>
          </Trackpoint>
          <Trackpoint>
            <Time>2022-07-13T18:14:25.000Z</Time>
            <Position>
              <LatitudeDegrees>43.46755282022058963775634765625</LatitudeDegrees>
              <LongitudeDegrees>-3.87484126724302768707275390625</LongitudeDegrees>
            </Position>
            <AltitudeMeters>45.40000152587890625</AltitudeMeters>
            <DistanceMeters>NAN</DistanceMeters>
          </Trackpoint>
          <Trackpoint>
            <Time>2022-07-13T18:14:30.000Z</Time>
            <Position>
              <LatitudeDegrees>43.46754477359354496002197265625</LatitudeDegrees>
              <LongitudeDegrees>-3.8750713504850864410400390625</LongitudeDegrees>
            </Position>
            <AltitudeMeters>45.799999237060546875</AltitudeMeters>
            <DistanceMeters>NAN</DistanceMeters>
          </Trackpoint>
          <Trackpoint>
            <Time>2022-07-13T18:14:31.000Z</Time>
            <Position>
              <LatitudeDegrees>43.46754125319421291351318359375</LatitudeDegrees>
              <LongitudeDegrees>-3.8751228153705596923828125</LongitudeDegrees>
            </Position>
            <AltitudeMeters>45.799999237060546875</AltitudeMeters>
            <DistanceMeters>NAN</DistanceMeters>
          </Trackpoint>
          <Trackpoint>
            <Time>2022-07-13T18:14:38.000Z</Time>
            <Position>
              <LatitudeDegrees>43.4675212204456329345703125</LatitudeDegrees>
              <LongitudeDegrees>-3.87540134601294994354248046875</LongitudeDegrees>
            </Position>
            <AltitudeMeters>46.40000152587890625</AltitudeMeters>
            <DistanceMeters>NAN</DistanceMeters>
          </Trackpoint>
          <Trackpoint>
            <Time>2022-07-13T18:14:47.000Z</Time>
            <Position>
              <LatitudeDegrees>43.4675046242773532867431640625</LatitudeDegrees>
              <LongitudeDegrees>-3.8757948763668537139892578125</LongitudeDegrees>
            </Position>
            <AltitudeMeters>46.799999237060546875</AltitudeMeters>
            <DistanceMeters>NAN</DistanceMeters>
          </Trackpoint>
          <Trackpoint>
            <Time>2022-07-13T18:14:50.000Z</Time>
            <Position>
              <LatitudeDegrees>43.46749213524162769317626953125</LatitudeDegrees>
              <LongitudeDegrees>-3.8759360276162624359130859375</LongitudeDegrees>
            </Position>
            <AltitudeMeters>47</AltitudeMeters>
            <DistanceMeters>NAN</DistanceMeters>
          </Trackpoint>
          <Trackpoint>
            <Time>2022-07-13T18:14:58.000Z</Time>
            <Position>
              <LatitudeDegrees>43.46745039336383342742919921875</LatitudeDegrees>
              <LongitudeDegrees>-3.87633718550205230712890625</LongitudeDegrees>
            </Position>
            <AltitudeMeters>47</AltitudeMeters>
            <DistanceMeters>NAN</DistanceMeters>
          </Trackpoint>
          <Trackpoint>
            <Time>2022-07-13T18:15:02.000Z</Time>
            <Position>
              <LatitudeDegrees>43.46744234673678874969482421875</LatitudeDegrees>
              <LongitudeDegrees>-3.87652904726564884185791015625</LongitudeDegrees>
            </Position>
            <AltitudeMeters>47</AltitudeMeters>
            <DistanceMeters>NAN</DistanceMeters>
          </Trackpoint>
          <Trackpoint>
            <Time>2022-07-13T18:15:06.000Z</Time>
            <Position>
              <LatitudeDegrees>43.4674434363842010498046875</LatitudeDegrees>
              <LongitudeDegrees>-3.8767188973724842071533203125</LongitudeDegrees>
            </Position>
            <AltitudeMeters>46.799999237060546875</AltitudeMeters>
            <DistanceMeters>NAN</DistanceMeters>
          </Trackpoint>
          <Trackpoint>
            <Time>2022-07-13T18:15:14.000Z</Time>
            <Position>
              <LatitudeDegrees>43.4675109945237636566162109375</LatitudeDegrees>
              <LongitudeDegrees>-3.8771329633891582489013671875</LongitudeDegrees>
            </Position>
            <AltitudeMeters>47.200000762939453125</AltitudeMeters>
            <DistanceMeters>NAN</DistanceMeters>
          </Trackpoint>
          <Trackpoint>
            <Time>2022-07-13T18:15:22.000Z</Time>
            <Position>
              <LatitudeDegrees>43.46754360012710094451904296875</LatitudeDegrees>
              <LongitudeDegrees>-3.8775557465851306915283203125</LongitudeDegrees>
            </Position>
            <AltitudeMeters>47.40000152587890625</AltitudeMeters>
            <DistanceMeters>NAN</DistanceMeters>
          </Trackpoint>
          <Trackpoint>
            <Time>2022-07-13T18:15:27.000Z</Time>
            <Position>
              <LatitudeDegrees>43.46758282743394374847412109375</LatitudeDegrees>
              <LongitudeDegrees>-3.87778733856976032257080078125</LongitudeDegrees>
            </Position>
            <AltitudeMeters>47.59999847412109375</AltitudeMeters>
            <DistanceMeters>NAN</DistanceMeters>
          </Trackpoint>
          <Trackpoint>
            <Time>2022-07-13T18:15:31.000Z</Time>
            <Position>
              <LatitudeDegrees>43.4677071310579776763916015625</LatitudeDegrees>
              <LongitudeDegrees>-3.87784366495907306671142578125</LongitudeDegrees>
            </Position>
            <AltitudeMeters>47.799999237060546875</AltitudeMeters>
            <DistanceMeters>NAN</DistanceMeters>
          </Trackpoint>
          <Trackpoint>
            <Time>2022-07-13T18:15:39.000Z</Time>
            <Position>
              <LatitudeDegrees>43.46792698837816715240478515625</LatitudeDegrees>
              <LongitudeDegrees>-3.87791021727025508880615234375</LongitudeDegrees>
            </Position>
            <AltitudeMeters>48.40000152587890625</AltitudeMeters>
            <DistanceMeters>NAN</DistanceMeters>
          </Trackpoint>
          <Trackpoint>
            <Time>2022-07-13T18:15:40.000Z</Time>
            <Position>
              <LatitudeDegrees>43.46795313991606235504150390625</LatitudeDegrees>
              <LongitudeDegrees>-3.87791994027793407440185546875</LongitudeDegrees>
            </Position>
            <AltitudeMeters>48.40000152587890625</AltitudeMeters>
            <DistanceMeters>NAN</DistanceMeters>
          </Trackpoint>
          <Trackpoint>
            <Time>2022-07-13T18:15:46.000Z</Time>
            <Position>
              <LatitudeDegrees>43.46811407245695590972900390625</LatitudeDegrees>
              <LongitudeDegrees>-3.87796989642083644866943359375</LongitudeDegrees>
            </Position>
            <AltitudeMeters>48.799999237060546875</AltitudeMeters>
            <DistanceMeters>NAN</DistanceMeters>
          </Trackpoint>
          <Trackpoint>
            <Time>2022-07-13T18:15:49.000Z</Time>
            <Position>
              <LatitudeDegrees>43.46819420345127582550048828125</LatitudeDegrees>
              <LongitudeDegrees>-3.8779902644455432891845703125</LongitudeDegrees>
            </Position>
            <AltitudeMeters>49</AltitudeMeters>
            <DistanceMeters>NAN</DistanceMeters>
          </Trackpoint>
          <Trackpoint>
            <Time>2022-07-13T18:15:56.000Z</Time>
            <Position>
              <LatitudeDegrees>43.46840274520218372344970703125</LatitudeDegrees>
              <LongitudeDegrees>-3.87799185700714588165283203125</LongitudeDegrees>
            </Position>
            <AltitudeMeters>49.59999847412109375</AltitudeMeters>
            <DistanceMeters>NAN</DistanceMeters>
          </Trackpoint>
          <Trackpoint>
            <Time>2022-07-13T18:16:00.000Z</Time>
            <Position>
              <LatitudeDegrees>43.468514643609523773193359375</LatitudeDegrees>
              <LongitudeDegrees>-3.87799370102584362030029296875</LongitudeDegrees>
            </Position>
            <AltitudeMeters>49.799999237060546875</AltitudeMeters>
            <DistanceMeters>NAN</DistanceMeters>
          </Trackpoint>
          <Trackpoint>
            <Time>2022-07-13T18:16:03.000Z</Time>
            <Position>
              <LatitudeDegrees>43.46861061640083789825439453125</LatitudeDegrees>
              <LongitudeDegrees>-3.87800325639545917510986328125</LongitudeDegrees>
            </Position>
            <AltitudeMeters>50.200000762939453125</AltitudeMeters>
            <DistanceMeters>NAN</DistanceMeters>
          </Trackpoint>
          <Trackpoint>
            <Time>2022-07-13T18:16:07.000Z</Time>
            <Position>
              <LatitudeDegrees>43.46872427500784397125244140625</LatitudeDegrees>
              <LongitudeDegrees>-3.87808866798877716064453125</LongitudeDegrees>
            </Position>
            <AltitudeMeters>50.40000152587890625</AltitudeMeters>
            <DistanceMeters>NAN</DistanceMeters>
          </Trackpoint>
          <Trackpoint>
            <Time>2022-07-13T18:16:08.000Z</Time>
            <Position>
              <LatitudeDegrees>43.46873718313872814178466796875</LatitudeDegrees>
              <LongitudeDegrees>-3.87812219560146331787109375</LongitudeDegrees>
            </Position>
            <AltitudeMeters>50.40000152587890625</AltitudeMeters>
            <DistanceMeters>NAN</DistanceMeters>
          </Trackpoint>
          <Trackpoint>
            <Time>2022-07-13T18:16:12.000Z</Time>
            <Position>
              <LatitudeDegrees>43.4687387757003307342529296875</LatitudeDegrees>
              <LongitudeDegrees>-3.87827801518142223358154296875</LongitudeDegrees>
            </Position>
            <AltitudeMeters>50.59999847412109375</AltitudeMeters>
            <DistanceMeters>NAN</DistanceMeters>
          </Trackpoint>
          <Trackpoint>
            <Time>2022-07-13T18:16:13.000Z</Time>
            <Position>
              <LatitudeDegrees>43.46873315982520580291748046875</LatitudeDegrees>
              <LongitudeDegrees>-3.87831933796405792236328125</LongitudeDegrees>
            </Position>
            <AltitudeMeters>50.59999847412109375</AltitudeMeters>
            <DistanceMeters>NAN</DistanceMeters>
          </Trackpoint>
          <Trackpoint>
            <Time>2022-07-13T18:16:23.000Z</Time>
            <Position>
              <LatitudeDegrees>43.46867834217846393585205078125</LatitudeDegrees>
              <LongitudeDegrees>-3.8787349127233028411865234375</LongitudeDegrees>
            </Position>
            <AltitudeMeters>50.59999847412109375</AltitudeMeters>
            <DistanceMeters>NAN</DistanceMeters>
          </Trackpoint>
          <Trackpoint>
            <Time>2022-07-13T18:16:25.000Z</Time>
            <Position>
              <LatitudeDegrees>43.4686770848929882049560546875</LatitudeDegrees>
              <LongitudeDegrees>-3.8788418658077716827392578125</LongitudeDegrees>
            </Position>
            <AltitudeMeters>50.59999847412109375</AltitudeMeters>
            <DistanceMeters>NAN</DistanceMeters>
          </Trackpoint>
          <Trackpoint>
            <Time>2022-07-13T18:16:30.000Z</Time>
            <Position>
              <LatitudeDegrees>43.4686660207808017730712890625</LatitudeDegrees>
              <LongitudeDegrees>-3.87913565151393413543701171875</LongitudeDegrees>
            </Position>
            <AltitudeMeters>50.200000762939453125</AltitudeMeters>
            <DistanceMeters>NAN</DistanceMeters>
          </Trackpoint>
          <Trackpoint>
            <Time>2022-07-13T18:16:36.000Z</Time>
            <Position>
              <LatitudeDegrees>43.4686029888689517974853515625</LatitudeDegrees>
              <LongitudeDegrees>-3.87958223931491374969482421875</LongitudeDegrees>
            </Position>
            <AltitudeMeters>49.200000762939453125</AltitudeMeters>
            <DistanceMeters>NAN</DistanceMeters>
          </Trackpoint>
          <Trackpoint>
            <Time>2022-07-13T18:16:38.000Z</Time>
            <Position>
              <LatitudeDegrees>43.4685815311968326568603515625</LatitudeDegrees>
              <LongitudeDegrees>-3.87975323013961315155029296875</LongitudeDegrees>
            </Position>
            <AltitudeMeters>48.799999237060546875</AltitudeMeters>
            <DistanceMeters>NAN</DistanceMeters>
          </Trackpoint>
          <Trackpoint>
            <Time>2022-07-13T18:16:41.000Z</Time>
            <Position>
              <LatitudeDegrees>43.46857608295977115631103515625</LatitudeDegrees>
              <LongitudeDegrees>-3.880013488233089447021484375</LongitudeDegrees>
            </Position>
            <AltitudeMeters>48.59999847412109375</AltitudeMeters>
            <DistanceMeters>NAN</DistanceMeters>
          </Trackpoint>
          <Trackpoint>
            <Time>2022-07-13T18:16:42.000Z</Time>
            <Position>
              <LatitudeDegrees>43.46858999691903591156005859375</LatitudeDegrees>
              <LongitudeDegrees>-3.88009320013225078582763671875</LongitudeDegrees>
            </Position>
            <AltitudeMeters>48.40000152587890625</AltitudeMeters>
            <DistanceMeters>NAN</DistanceMeters>
          </Trackpoint>
          <Trackpoint>
            <Time>2022-07-13T18:16:43.000Z</Time>
            <Position>
              <LatitudeDegrees>43.46862067468464374542236328125</LatitudeDegrees>
              <LongitudeDegrees>-3.8801707327365875244140625</LongitudeDegrees>
            </Position>
            <AltitudeMeters>48.40000152587890625</AltitudeMeters>
            <DistanceMeters>NAN</DistanceMeters>
          </Trackpoint>
          <Trackpoint>
            <Time>2022-07-13T18:16:45.000Z</Time>
            <Position>
              <LatitudeDegrees>43.4686960279941558837890625</LatitudeDegrees>
              <LongitudeDegrees>-3.8802718184888362884521484375</LongitudeDegrees>
            </Position>
            <AltitudeMeters>48.200000762939453125</AltitudeMeters>
            <DistanceMeters>NAN</DistanceMeters>
          </Trackpoint>
          <Trackpoint>
            <Time>2022-07-13T18:16:50.000Z</Time>
            <Position>
              <LatitudeDegrees>43.468874730169773101806640625</LatitudeDegrees>
              <LongitudeDegrees>-3.880407102406024932861328125</LongitudeDegrees>
            </Position>
            <AltitudeMeters>48.59999847412109375</AltitudeMeters>
            <DistanceMeters>NAN</DistanceMeters>
          </Trackpoint>
          <Trackpoint>
            <Time>2022-07-13T18:16:55.000Z</Time>
            <Position>
              <LatitudeDegrees>43.46901261247694492340087890625</LatitudeDegrees>
              <LongitudeDegrees>-3.88049595057964324951171875</LongitudeDegrees>
            </Position>
            <AltitudeMeters>49.59999847412109375</AltitudeMeters>
            <DistanceMeters>NAN</DistanceMeters>
          </Trackpoint>
          <Trackpoint>
            <Time>2022-07-13T18:16:56.000Z</Time>
            <Position>
              <LatitudeDegrees>43.4690428711473941802978515625</LatitudeDegrees>
              <LongitudeDegrees>-3.88050374574959278106689453125</LongitudeDegrees>
            </Position>
            <AltitudeMeters>49.799999237060546875</AltitudeMeters>
            <DistanceMeters>NAN</DistanceMeters>
          </Trackpoint>
          <Trackpoint>
            <Time>2022-07-13T18:16:59.000Z</Time>
            <Position>
              <LatitudeDegrees>43.46913465298712253570556640625</LatitudeDegrees>
              <LongitudeDegrees>-3.8805449008941650390625</LongitudeDegrees>
            </Position>
            <AltitudeMeters>50</AltitudeMeters>
            <DistanceMeters>NAN</DistanceMeters>
          </Trackpoint>
          <Trackpoint>
            <Time>2022-07-13T18:17:05.000Z</Time>
            <Position>
              <LatitudeDegrees>43.46931201405823230743408203125</LatitudeDegrees>
              <LongitudeDegrees>-3.88065445236861705780029296875</LongitudeDegrees>
            </Position>
            <AltitudeMeters>50</AltitudeMeters>
            <DistanceMeters>NAN</DistanceMeters>
          </Trackpoint>
          <Trackpoint>
            <Time>2022-07-13T18:17:15.000Z</Time>
            <Position>
              <LatitudeDegrees>43.46961225382983684539794921875</LatitudeDegrees>
              <LongitudeDegrees>-3.88086517341434955596923828125</LongitudeDegrees>
            </Position>
            <AltitudeMeters>50.40000152587890625</AltitudeMeters>
            <DistanceMeters>NAN</DistanceMeters>
          </Trackpoint>
          <Trackpoint>
            <Time>2022-07-13T18:17:18.000Z</Time>
            <Position>
              <LatitudeDegrees>43.4696664847433567047119140625</LatitudeDegrees>
              <LongitudeDegrees>-3.88092837296426296234130859375</LongitudeDegrees>
            </Position>
            <AltitudeMeters>50.40000152587890625</AltitudeMeters>
            <DistanceMeters>NAN</DistanceMeters>
          </Trackpoint>
          <Trackpoint>
            <Time>2022-07-13T18:17:20.000Z</Time>
            <Position>
              <LatitudeDegrees>43.46967914141714572906494140625</LatitudeDegrees>
              <LongitudeDegrees>-3.880983106791973114013671875</LongitudeDegrees>
            </Position>
            <AltitudeMeters>50.40000152587890625</AltitudeMeters>
            <DistanceMeters>NAN</DistanceMeters>
          </Trackpoint>
          <Trackpoint>
            <Time>2022-07-13T18:17:24.000Z</Time>
            <Position>
              <LatitudeDegrees>43.46962868236005306243896484375</LatitudeDegrees>
              <LongitudeDegrees>-3.88111512176692485809326171875</LongitudeDegrees>
            </Position>
            <AltitudeMeters>50.59999847412109375</AltitudeMeters>
            <DistanceMeters>NAN</DistanceMeters>
          </Trackpoint>
          <Trackpoint>
            <Time>2022-07-13T18:17:29.000Z</Time>
            <Position>
              <LatitudeDegrees>43.4695424325764179229736328125</LatitudeDegrees>
              <LongitudeDegrees>-3.881274126470088958740234375</LongitudeDegrees>
            </Position>
            <AltitudeMeters>50.799999237060546875</AltitudeMeters>
            <DistanceMeters>NAN</DistanceMeters>
          </Trackpoint>
          <Trackpoint>
            <Time>2022-07-13T18:17:30.000Z</Time>
            <Position>
              <LatitudeDegrees>43.46952642314136028289794921875</LatitudeDegrees>
              <LongitudeDegrees>-3.8813121803104877471923828125</LongitudeDegrees>
            </Position>
            <AltitudeMeters>51</AltitudeMeters>
            <DistanceMeters>NAN</DistanceMeters>
          </Trackpoint>
          <Trackpoint>
            <Time>2022-07-13T18:17:33.000Z</Time>
            <Position>
              <LatitudeDegrees>43.46946992911398410797119140625</LatitudeDegrees>
              <LongitudeDegrees>-3.8814308680593967437744140625</LongitudeDegrees>
            </Position>
            <AltitudeMeters>51</AltitudeMeters>
            <DistanceMeters>NAN</DistanceMeters>
          </Trackpoint>
          <Trackpoint>
            <Time>2022-07-13T18:17:36.000Z</Time>
            <Position>
              <LatitudeDegrees>43.4694053046405315399169921875</LatitudeDegrees>
              <LongitudeDegrees>-3.88160814531147480010986328125</LongitudeDegrees>
            </Position>
            <AltitudeMeters>50.799999237060546875</AltitudeMeters>
            <DistanceMeters>NAN</DistanceMeters>
          </Trackpoint>
          <Trackpoint>
            <Time>2022-07-13T18:17:41.000Z</Time>
            <Position>
              <LatitudeDegrees>43.46926608122885227203369140625</LatitudeDegrees>
              <LongitudeDegrees>-3.88198382221162319183349609375</LongitudeDegrees>
            </Position>
            <AltitudeMeters>49.799999237060546875</AltitudeMeters>
            <DistanceMeters>NAN</DistanceMeters>
          </Trackpoint>
          <Trackpoint>
            <Time>2022-07-13T18:17:42.000Z</Time>
            <Position>
              <LatitudeDegrees>43.46923716366291046142578125</LatitudeDegrees>
              <LongitudeDegrees>-3.88206982053816318511962890625</LongitudeDegrees>
            </Position>
            <AltitudeMeters>49.59999847412109375</AltitudeMeters>
            <DistanceMeters>NAN</DistanceMeters>
          </Trackpoint>
          <Trackpoint>
            <Time>2022-07-13T18:17:46.000Z</Time>
            <Position>
              <LatitudeDegrees>43.46913213841617107391357421875</LatitudeDegrees>
              <LongitudeDegrees>-3.8823916018009185791015625</LongitudeDegrees>
            </Position>
            <AltitudeMeters>48.799999237060546875</AltitudeMeters>
            <DistanceMeters>NAN</DistanceMeters>
          </Trackpoint>
          <Trackpoint>
            <Time>2022-07-13T18:17:48.000Z</Time>
            <Position>
              <LatitudeDegrees>43.4690924920141696929931640625</LatitudeDegrees>
              <LongitudeDegrees>-3.88251825235784053802490234375</LongitudeDegrees>
            </Position>
            <AltitudeMeters>48</AltitudeMeters>
            <DistanceMeters>NAN</DistanceMeters>
          </Trackpoint>
          <Trackpoint>
            <Time>2022-07-13T18:17:49.000Z</Time>
            <Position>
              <LatitudeDegrees>43.4690861217677593231201171875</LatitudeDegrees>
              <LongitudeDegrees>-3.88257659040391445159912109375</LongitudeDegrees>
            </Position>
            <AltitudeMeters>48</AltitudeMeters>
            <DistanceMeters>NAN</DistanceMeters>
          </Trackpoint>
          <Trackpoint>
            <Time>2022-07-13T18:17:50.000Z</Time>
            <Position>
              <LatitudeDegrees>43.4690945036709308624267578125</LatitudeDegrees>
              <LongitudeDegrees>-3.88263375498354434967041015625</LongitudeDegrees>
            </Position>
            <AltitudeMeters>47.799999237060546875</AltitudeMeters>
            <DistanceMeters>NAN</DistanceMeters>
          </Trackpoint>
          <Trackpoint>
            <Time>2022-07-13T18:17:51.000Z</Time>
            <Position>
              <LatitudeDegrees>43.4691146202385425567626953125</LatitudeDegrees>
              <LongitudeDegrees>-3.88268471695482730865478515625</LongitudeDegrees>
            </Position>
            <AltitudeMeters>47.799999237060546875</AltitudeMeters>
            <DistanceMeters>NAN</DistanceMeters>
          </Trackpoint>
          <Trackpoint>
            <Time>2022-07-13T18:17:52.000Z</Time>
            <Position>
              <LatitudeDegrees>43.4691441245377063751220703125</LatitudeDegrees>
              <LongitudeDegrees>-3.88273014687001705169677734375</LongitudeDegrees>
            </Position>
            <AltitudeMeters>47.59999847412109375</AltitudeMeters>
            <DistanceMeters>NAN</DistanceMeters>
          </Trackpoint>
          <Trackpoint>
            <Time>2022-07-13T18:17:55.000Z</Time>
            <Position>
              <LatitudeDegrees>43.46923154778778553009033203125</LatitudeDegrees>
              <LongitudeDegrees>-3.88286274857819080352783203125</LongitudeDegrees>
            </Position>
            <AltitudeMeters>47.59999847412109375</AltitudeMeters>
            <DistanceMeters>NAN</DistanceMeters>
          </Trackpoint>
          <Trackpoint>
            <Time>2022-07-13T18:17:56.000Z</Time>
            <Position>
              <LatitudeDegrees>43.46925803460180759429931640625</LatitudeDegrees>
              <LongitudeDegrees>-3.88290918432176113128662109375</LongitudeDegrees>
            </Position>
            <AltitudeMeters>47.59999847412109375</AltitudeMeters>
            <DistanceMeters>NAN</DistanceMeters>
          </Trackpoint>
          <Trackpoint>
            <Time>2022-07-13T18:17:58.000Z</Time>
            <Position>
              <LatitudeDegrees>43.469294495880603790283203125</LatitudeDegrees>
              <LongitudeDegrees>-3.88302049599587917327880859375</LongitudeDegrees>
            </Position>
            <AltitudeMeters>47.59999847412109375</AltitudeMeters>
            <DistanceMeters>NAN</DistanceMeters>
          </Trackpoint>
          <Trackpoint>
            <Time>2022-07-13T18:17:59.000Z</Time>
            <Position>
              <LatitudeDegrees>43.4693074040114879608154296875</LatitudeDegrees>
              <LongitudeDegrees>-3.88308051042258739471435546875</LongitudeDegrees>
            </Position>
            <AltitudeMeters>47.59999847412109375</AltitudeMeters>
            <DistanceMeters>NAN</DistanceMeters>
          </Trackpoint>
          <Trackpoint>
            <Time>2022-07-13T18:18:02.000Z</Time>
            <Position>
              <LatitudeDegrees>43.46932022832334041595458984375</LatitudeDegrees>
              <LongitudeDegrees>-3.88325787149369716644287109375</LongitudeDegrees>
            </Position>
            <AltitudeMeters>47.59999847412109375</AltitudeMeters>
            <DistanceMeters>NAN</DistanceMeters>
          </Trackpoint>
          <Trackpoint>
            <Time>2022-07-13T18:18:03.000Z</Time>
            <Position>
              <LatitudeDegrees>43.4693191386759281158447265625</LatitudeDegrees>
              <LongitudeDegrees>-3.88331822119653224945068359375</LongitudeDegrees>
            </Position>
            <AltitudeMeters>47.59999847412109375</AltitudeMeters>
            <DistanceMeters>NAN</DistanceMeters>
          </Trackpoint>
          <Trackpoint>
            <Time>2022-07-13T18:18:11.000Z</Time>
            <Position>
              <LatitudeDegrees>43.4692534245550632476806640625</LatitudeDegrees>
              <LongitudeDegrees>-3.88377402909100055694580078125</LongitudeDegrees>
            </Position>
            <AltitudeMeters>47.40000152587890625</AltitudeMeters>
            <DistanceMeters>NAN</DistanceMeters>
          </Trackpoint>
          <Trackpoint>
            <Time>2022-07-13T18:18:12.000Z</Time>
            <Position>
              <LatitudeDegrees>43.46924512647092342376708984375</LatitudeDegrees>
              <LongitudeDegrees>-3.88382683508098125457763671875</LongitudeDegrees>
            </Position>
            <AltitudeMeters>47.40000152587890625</AltitudeMeters>
            <DistanceMeters>NAN</DistanceMeters>
          </Trackpoint>
          <Trackpoint>
            <Time>2022-07-13T18:18:14.000Z</Time>
            <Position>
              <LatitudeDegrees>43.46924428828060626983642578125</LatitudeDegrees>
              <LongitudeDegrees>-3.88393010012805461883544921875</LongitudeDegrees>
            </Position>
            <AltitudeMeters>47.40000152587890625</AltitudeMeters>
            <DistanceMeters>NAN</DistanceMeters>
          </Trackpoint>
          <Trackpoint>
            <Time>2022-07-13T18:18:15.000Z</Time>
            <Position>
              <LatitudeDegrees>43.4692539274692535400390625</LatitudeDegrees>
              <LongitudeDegrees>-3.88397854752838611602783203125</LongitudeDegrees>
            </Position>
            <AltitudeMeters>47.40000152587890625</AltitudeMeters>
            <DistanceMeters>NAN</DistanceMeters>
          </Trackpoint>
          <Trackpoint>
            <Time>2022-07-13T18:18:19.000Z</Time>
            <Position>
              <LatitudeDegrees>43.469311259686946868896484375</LatitudeDegrees>
              <LongitudeDegrees>-3.8841710798442363739013671875</LongitudeDegrees>
            </Position>
            <AltitudeMeters>47.200000762939453125</AltitudeMeters>
            <DistanceMeters>NAN</DistanceMeters>
          </Trackpoint>
          <Trackpoint>
            <Time>2022-07-13T18:18:21.000Z</Time>
            <Position>
              <LatitudeDegrees>43.46935124136507511138916015625</LatitudeDegrees>
              <LongitudeDegrees>-3.88427115976810455322265625</LongitudeDegrees>
            </Position>
            <AltitudeMeters>46.799999237060546875</AltitudeMeters>
            <DistanceMeters>NAN</DistanceMeters>
          </Trackpoint>
          <Trackpoint>
            <Time>2022-07-13T18:18:23.000Z</Time>
            <Position>
              <LatitudeDegrees>43.4693898819386959075927734375</LatitudeDegrees>
              <LongitudeDegrees>-3.8843648694455623626708984375</LongitudeDegrees>
            </Position>
            <AltitudeMeters>46.799999237060546875</AltitudeMeters>
            <DistanceMeters>NAN</DistanceMeters>
          </Trackpoint>
          <Trackpoint>
            <Time>2022-07-13T18:18:26.000Z</Time>
            <Position>
              <LatitudeDegrees>43.46948401071131229400634765625</LatitudeDegrees>
              <LongitudeDegrees>-3.88443988747894763946533203125</LongitudeDegrees>
            </Position>
            <AltitudeMeters>46.59999847412109375</AltitudeMeters>
            <DistanceMeters>NAN</DistanceMeters>
          </Trackpoint>
          <Trackpoint>
            <Time>2022-07-13T18:18:31.000Z</Time>
            <Position>
              <LatitudeDegrees>43.46967310644686222076416015625</LatitudeDegrees>
              <LongitudeDegrees>-3.884572573006153106689453125</LongitudeDegrees>
            </Position>
            <AltitudeMeters>46.40000152587890625</AltitudeMeters>
            <DistanceMeters>NAN</DistanceMeters>
          </Trackpoint>
          <Trackpoint>
            <Time>2022-07-13T18:18:34.000Z</Time>
            <Position>
              <LatitudeDegrees>43.46977896988391876220703125</LatitudeDegrees>
              <LongitudeDegrees>-3.88471565209329128265380859375</LongitudeDegrees>
            </Position>
            <AltitudeMeters>45.59999847412109375</AltitudeMeters>
            <DistanceMeters>NAN</DistanceMeters>
          </Trackpoint>
          <Trackpoint>
            <Time>2022-07-13T18:18:38.000Z</Time>
            <Position>
              <LatitudeDegrees>43.469914756715297698974609375</LatitudeDegrees>
              <LongitudeDegrees>-3.88494213111698627471923828125</LongitudeDegrees>
            </Position>
            <AltitudeMeters>44.799999237060546875</AltitudeMeters>
            <DistanceMeters>NAN</DistanceMeters>
          </Trackpoint>
          <Trackpoint>
            <Time>2022-07-13T18:18:40.000Z</Time>
            <Position>
              <LatitudeDegrees>43.46998952329158782958984375</LatitudeDegrees>
              <LongitudeDegrees>-3.88505394570529460906982421875</LongitudeDegrees>
            </Position>
            <AltitudeMeters>44.59999847412109375</AltitudeMeters>
            <DistanceMeters>NAN</DistanceMeters>
          </Trackpoint>
          <Trackpoint>
            <Time>2022-07-13T18:18:46.000Z</Time>
            <Position>
              <LatitudeDegrees>43.47021482884883880615234375</LatitudeDegrees>
              <LongitudeDegrees>-3.8853864558041095733642578125</LongitudeDegrees>
            </Position>
            <AltitudeMeters>43.59999847412109375</AltitudeMeters>
            <DistanceMeters>NAN</DistanceMeters>
          </Trackpoint>
          <Trackpoint>
            <Time>2022-07-13T18:18:48.000Z</Time>
            <Position>
              <LatitudeDegrees>43.4702874161303043365478515625</LatitudeDegrees>
              <LongitudeDegrees>-3.88551142998039722442626953125</LongitudeDegrees>
            </Position>
            <AltitudeMeters>43.40000152587890625</AltitudeMeters>
            <DistanceMeters>NAN</DistanceMeters>
          </Trackpoint>
          <Trackpoint>
            <Time>2022-07-13T18:18:55.000Z</Time>
            <Position>
              <LatitudeDegrees>43.470526970922946929931640625</LatitudeDegrees>
              <LongitudeDegrees>-3.8858927227556705474853515625</LongitudeDegrees>
            </Position>
            <AltitudeMeters>42.799999237060546875</AltitudeMeters>
            <DistanceMeters>NAN</DistanceMeters>
          </Trackpoint>
          <Trackpoint>
            <Time>2022-07-13T18:19:00.000Z</Time>
            <Position>
              <LatitudeDegrees>43.4706860594451427459716796875</LatitudeDegrees>
              <LongitudeDegrees>-3.886155746877193450927734375</LongitudeDegrees>
            </Position>
            <AltitudeMeters>42.59999847412109375</AltitudeMeters>
            <DistanceMeters>NAN</DistanceMeters>
          </Trackpoint>
          <Trackpoint>
            <Time>2022-07-13T18:19:01.000Z</Time>
            <Position>
              <LatitudeDegrees>43.47071883268654346466064453125</LatitudeDegrees>
              <LongitudeDegrees>-3.88620276935398578643798828125</LongitudeDegrees>
            </Position>
            <AltitudeMeters>42.40000152587890625</AltitudeMeters>
            <DistanceMeters>NAN</DistanceMeters>
          </Trackpoint>
          <Trackpoint>
            <Time>2022-07-13T18:19:02.000Z</Time>
            <Position>
              <LatitudeDegrees>43.4707507677376270294189453125</LatitudeDegrees>
              <LongitudeDegrees>-3.88624954037368297576904296875</LongitudeDegrees>
            </Position>
            <AltitudeMeters>42.40000152587890625</AltitudeMeters>
            <DistanceMeters>NAN</DistanceMeters>
          </Trackpoint>
          <Trackpoint>
            <Time>2022-07-13T18:19:05.000Z</Time>
            <Position>
              <LatitudeDegrees>43.47083668224513530731201171875</LatitudeDegrees>
              <LongitudeDegrees>-3.8863889314234256744384765625</LongitudeDegrees>
            </Position>
            <AltitudeMeters>42.40000152587890625</AltitudeMeters>
            <DistanceMeters>NAN</DistanceMeters>
          </Trackpoint>
          <Trackpoint>
            <Time>2022-07-13T18:19:09.000Z</Time>
            <Position>
              <LatitudeDegrees>43.47095637582242488861083984375</LatitudeDegrees>
              <LongitudeDegrees>-3.88656788505613803863525390625</LongitudeDegrees>
            </Position>
            <AltitudeMeters>42.40000152587890625</AltitudeMeters>
            <DistanceMeters>NAN</DistanceMeters>
          </Trackpoint>
          <Trackpoint>
            <Time>2022-07-13T18:19:17.000Z</Time>
            <Position>
              <LatitudeDegrees>43.47119039855897426605224609375</LatitudeDegrees>
              <LongitudeDegrees>-3.8869065977632999420166015625</LongitudeDegrees>
            </Position>
            <AltitudeMeters>42.40000152587890625</AltitudeMeters>
            <DistanceMeters>NAN</DistanceMeters>
          </Trackpoint>
          <Trackpoint>
            <Time>2022-07-13T18:19:18.000Z</Time>
            <Position>
              <LatitudeDegrees>43.47121973522007465362548828125</LatitudeDegrees>
              <LongitudeDegrees>-3.88694121502339839935302734375</LongitudeDegrees>
            </Position>
            <AltitudeMeters>42.59999847412109375</AltitudeMeters>
            <DistanceMeters>NAN</DistanceMeters>
          </Trackpoint>
          <Trackpoint>
            <Time>2022-07-13T18:19:20.000Z</Time>
            <Position>
              <LatitudeDegrees>43.47128679044544696807861328125</LatitudeDegrees>
              <LongitudeDegrees>-3.886994607746601104736328125</LongitudeDegrees>
            </Position>
            <AltitudeMeters>42.59999847412109375</AltitudeMeters>
            <DistanceMeters>NAN</DistanceMeters>
          </Trackpoint>
          <Trackpoint>
            <Time>2022-07-13T18:19:22.000Z</Time>
            <Position>
              <LatitudeDegrees>43.47135820426046848297119140625</LatitudeDegrees>
              <LongitudeDegrees>-3.8870306499302387237548828125</LongitudeDegrees>
            </Position>
            <AltitudeMeters>42.59999847412109375</AltitudeMeters>
            <DistanceMeters>NAN</DistanceMeters>
          </Trackpoint>
          <Trackpoint>
            <Time>2022-07-13T18:19:23.000Z</Time>
            <Position>
              <LatitudeDegrees>43.47139231860637664794921875</LatitudeDegrees>
              <LongitudeDegrees>-3.8870464079082012176513671875</LongitudeDegrees>
            </Position>
            <AltitudeMeters>42.799999237060546875</AltitudeMeters>
            <DistanceMeters>NAN</DistanceMeters>
          </Trackpoint>
          <Trackpoint>
            <Time>2022-07-13T18:19:29.000Z</Time>
            <Position>
              <LatitudeDegrees>43.4716090746223926544189453125</LatitudeDegrees>
              <LongitudeDegrees>-3.88713969849050045013427734375</LongitudeDegrees>
            </Position>
            <AltitudeMeters>42.40000152587890625</AltitudeMeters>
            <DistanceMeters>NAN</DistanceMeters>
          </Trackpoint>
          <Trackpoint>
            <Time>2022-07-13T18:19:30.000Z</Time>
            <Position>
              <LatitudeDegrees>43.47163371741771697998046875</LatitudeDegrees>
              <LongitudeDegrees>-3.88716970570385456085205078125</LongitudeDegrees>
            </Position>
            <AltitudeMeters>42.40000152587890625</AltitudeMeters>
            <DistanceMeters>NAN</DistanceMeters>
          </Trackpoint>
          <Trackpoint>
            <Time>2022-07-13T18:19:32.000Z</Time>
            <Position>
              <LatitudeDegrees>43.47165157087147235870361328125</LatitudeDegrees>
              <LongitudeDegrees>-3.88725243508815765380859375</LongitudeDegrees>
            </Position>
            <AltitudeMeters>42.40000152587890625</AltitudeMeters>
            <DistanceMeters>NAN</DistanceMeters>
          </Trackpoint>
          <Trackpoint>
            <Time>2022-07-13T18:19:38.000Z</Time>
            <Position>
              <LatitudeDegrees>43.47158988006412982940673828125</LatitudeDegrees>
              <LongitudeDegrees>-3.88755158521234989166259765625</LongitudeDegrees>
            </Position>
            <AltitudeMeters>42.40000152587890625</AltitudeMeters>
            <DistanceMeters>NAN</DistanceMeters>
          </Trackpoint>
          <Trackpoint>
            <Time>2022-07-13T18:19:43.000Z</Time>
            <Position>
              <LatitudeDegrees>43.4715272672474384307861328125</LatitudeDegrees>
              <LongitudeDegrees>-3.8878430239856243133544921875</LongitudeDegrees>
            </Position>
            <AltitudeMeters>42</AltitudeMeters>
            <DistanceMeters>NAN</DistanceMeters>
          </Trackpoint>
          <Trackpoint>
            <Time>2022-07-13T18:19:46.000Z</Time>
            <Position>
              <LatitudeDegrees>43.471495918929576873779296875</LatitudeDegrees>
              <LongitudeDegrees>-3.888041675090789794921875</LongitudeDegrees>
            </Position>
            <AltitudeMeters>41.799999237060546875</AltitudeMeters>
            <DistanceMeters>NAN</DistanceMeters>
          </Trackpoint>
          <Trackpoint>
            <Time>2022-07-13T18:19:49.000Z</Time>
            <Position>
              <LatitudeDegrees>43.4714525006711483001708984375</LatitudeDegrees>
              <LongitudeDegrees>-3.88823948800563812255859375</LongitudeDegrees>
            </Position>
            <AltitudeMeters>41.40000152587890625</AltitudeMeters>
            <DistanceMeters>NAN</DistanceMeters>
          </Trackpoint>
          <Trackpoint>
            <Time>2022-07-13T18:19:53.000Z</Time>
            <Position>
              <LatitudeDegrees>43.47140396945178508758544921875</LatitudeDegrees>
              <LongitudeDegrees>-3.88851282186806201934814453125</LongitudeDegrees>
            </Position>
            <AltitudeMeters>40.799999237060546875</AltitudeMeters>
            <DistanceMeters>NAN</DistanceMeters>
          </Trackpoint>
          <Trackpoint>
            <Time>2022-07-13T18:19:58.000Z</Time>
            <Position>
              <LatitudeDegrees>43.47140782512724399566650390625</LatitudeDegrees>
              <LongitudeDegrees>-3.88885094784200191497802734375</LongitudeDegrees>
            </Position>
            <AltitudeMeters>40.799999237060546875</AltitudeMeters>
            <DistanceMeters>NAN</DistanceMeters>
          </Trackpoint>
          <Trackpoint>
            <Time>2022-07-13T18:19:59.000Z</Time>
            <Position>
              <LatitudeDegrees>43.471414111554622650146484375</LatitudeDegrees>
              <LongitudeDegrees>-3.888914398849010467529296875</LongitudeDegrees>
            </Position>
            <AltitudeMeters>40.799999237060546875</AltitudeMeters>
            <DistanceMeters>NAN</DistanceMeters>
          </Trackpoint>
          <Trackpoint>
            <Time>2022-07-13T18:20:01.000Z</Time>
            <Position>
              <LatitudeDegrees>43.4714265167713165283203125</LatitudeDegrees>
              <LongitudeDegrees>-3.889044485986232757568359375</LongitudeDegrees>
            </Position>
            <AltitudeMeters>40.59999847412109375</AltitudeMeters>
            <DistanceMeters>NAN</DistanceMeters>
          </Trackpoint>
          <Trackpoint>
            <Time>2022-07-13T18:20:03.000Z</Time>
            <Position>
              <LatitudeDegrees>43.4714203141629695892333984375</LatitudeDegrees>
              <LongitudeDegrees>-3.889176584780216217041015625</LongitudeDegrees>
            </Position>
            <AltitudeMeters>40.40000152587890625</AltitudeMeters>
            <DistanceMeters>NAN</DistanceMeters>
          </Trackpoint>
          <Trackpoint>
            <Time>2022-07-13T18:20:04.000Z</Time>
            <Position>
              <LatitudeDegrees>43.47140899859368801116943359375</LatitudeDegrees>
              <LongitudeDegrees>-3.88923970051109790802001953125</LongitudeDegrees>
            </Position>
            <AltitudeMeters>40.200000762939453125</AltitudeMeters>
            <DistanceMeters>NAN</DistanceMeters>
          </Trackpoint>
          <Trackpoint>
            <Time>2022-07-13T18:20:09.000Z</Time>
            <Position>
              <LatitudeDegrees>43.47135879099369049072265625</LatitudeDegrees>
              <LongitudeDegrees>-3.88945846818387508392333984375</LongitudeDegrees>
            </Position>
            <AltitudeMeters>39.799999237060546875</AltitudeMeters>
            <DistanceMeters>NAN</DistanceMeters>
          </Trackpoint>
          <Trackpoint>
            <Time>2022-07-13T18:20:14.000Z</Time>
            <Position>
              <LatitudeDegrees>43.47129249013960361480712890625</LatitudeDegrees>
              <LongitudeDegrees>-3.8896183110773563385009765625</LongitudeDegrees>
            </Position>
            <AltitudeMeters>39.799999237060546875</AltitudeMeters>
            <DistanceMeters>NAN</DistanceMeters>
          </Trackpoint>
          <Trackpoint>
            <Time>2022-07-13T18:20:22.000Z</Time>
            <Position>
              <LatitudeDegrees>43.47118168137967586517333984375</LatitudeDegrees>
              <LongitudeDegrees>-3.88984856195747852325439453125</LongitudeDegrees>
            </Position>
            <AltitudeMeters>39.40000152587890625</AltitudeMeters>
            <DistanceMeters>NAN</DistanceMeters>
          </Trackpoint>
          <Trackpoint>
            <Time>2022-07-13T18:20:30.000Z</Time>
            <Position>
              <LatitudeDegrees>43.471106998622417449951171875</LatitudeDegrees>
              <LongitudeDegrees>-3.89004922471940517425537109375</LongitudeDegrees>
            </Position>
            <AltitudeMeters>39.59999847412109375</AltitudeMeters>
            <DistanceMeters>NAN</DistanceMeters>
          </Trackpoint>
          <Trackpoint>
            <Time>2022-07-13T18:20:38.000Z</Time>
            <Position>
              <LatitudeDegrees>43.47101823426783084869384765625</LatitudeDegrees>
              <LongitudeDegrees>-3.89030386693775653839111328125</LongitudeDegrees>
            </Position>
            <AltitudeMeters>39.59999847412109375</AltitudeMeters>
            <DistanceMeters>NAN</DistanceMeters>
          </Trackpoint>
          <Trackpoint>
            <Time>2022-07-13T18:20:44.000Z</Time>
            <Position>
              <LatitudeDegrees>43.4709784202277660369873046875</LatitudeDegrees>
              <LongitudeDegrees>-3.89043361879885196685791015625</LongitudeDegrees>
            </Position>
            <AltitudeMeters>39.40000152587890625</AltitudeMeters>
            <DistanceMeters>NAN</DistanceMeters>
          </Trackpoint>
          <Trackpoint>
            <Time>2022-07-13T18:20:45.000Z</Time>
            <Position>
              <LatitudeDegrees>43.4709784202277660369873046875</LatitudeDegrees>
              <LongitudeDegrees>-3.89043361879885196685791015625</LongitudeDegrees>
            </Position>
            <AltitudeMeters>39.40000152587890625</AltitudeMeters>
            <DistanceMeters>NAN</DistanceMeters>
          </Trackpoint>
          <Trackpoint>
            <Time>2022-07-13T18:20:46.000Z</Time>
            <Position>
              <LatitudeDegrees>43.4709784202277660369873046875</LatitudeDegrees>
              <LongitudeDegrees>-3.89043361879885196685791015625</LongitudeDegrees>
            </Position>
            <AltitudeMeters>39.40000152587890625</AltitudeMeters>
            <DistanceMeters>NAN</DistanceMeters>
          </Trackpoint>
          <Trackpoint>
            <Time>2022-07-13T18:21:00.000Z</Time>
            <Position>
              <LatitudeDegrees>43.47096945159137248992919921875</LatitudeDegrees>
              <LongitudeDegrees>-3.89048726297914981842041015625</LongitudeDegrees>
            </Position>
            <AltitudeMeters>39.59999847412109375</AltitudeMeters>
            <DistanceMeters>NAN</DistanceMeters>
          </Trackpoint>
          <Trackpoint>
            <Time>2022-07-13T18:21:02.000Z</Time>
            <Position>
              <LatitudeDegrees>43.4709517657756805419921875</LatitudeDegrees>
              <LongitudeDegrees>-3.8905577547848224639892578125</LongitudeDegrees>
            </Position>
            <AltitudeMeters>39.59999847412109375</AltitudeMeters>
            <DistanceMeters>NAN</DistanceMeters>
          </Trackpoint>
          <Trackpoint>
            <Time>2022-07-13T18:21:08.000Z</Time>
            <Position>
              <LatitudeDegrees>43.4708610735833644866943359375</LatitudeDegrees>
              <LongitudeDegrees>-3.8908058591187000274658203125</LongitudeDegrees>
            </Position>
            <AltitudeMeters>40</AltitudeMeters>
            <DistanceMeters>NAN</DistanceMeters>
          </Trackpoint>
          <Trackpoint>
            <Time>2022-07-13T18:21:17.000Z</Time>
            <Position>
              <LatitudeDegrees>43.47067340277135372161865234375</LatitudeDegrees>
              <LongitudeDegrees>-3.89114188961684703826904296875</LongitudeDegrees>
            </Position>
            <AltitudeMeters>40.200000762939453125</AltitudeMeters>
            <DistanceMeters>NAN</DistanceMeters>
          </Trackpoint>
          <Trackpoint>
            <Time>2022-07-13T18:21:22.000Z</Time>
            <Position>
              <LatitudeDegrees>43.4706089459359645843505859375</LatitudeDegrees>
              <LongitudeDegrees>-3.89135663397610187530517578125</LongitudeDegrees>
            </Position>
            <AltitudeMeters>39.799999237060546875</AltitudeMeters>
            <DistanceMeters>NAN</DistanceMeters>
          </Trackpoint>
          <Trackpoint>
            <Time>2022-07-13T18:21:23.000Z</Time>
            <Position>
              <LatitudeDegrees>43.4705978818237781524658203125</LatitudeDegrees>
              <LongitudeDegrees>-3.891380690038204193115234375</LongitudeDegrees>
            </Position>
            <AltitudeMeters>39.59999847412109375</AltitudeMeters>
            <DistanceMeters>NAN</DistanceMeters>
          </Trackpoint>
          <Trackpoint>
            <Time>2022-07-13T18:21:26.000Z</Time>
            <Position>
              <LatitudeDegrees>43.4705335088074207305908203125</LatitudeDegrees>
              <LongitudeDegrees>-3.8914381898939609527587890625</LongitudeDegrees>
            </Position>
            <AltitudeMeters>39.200000762939453125</AltitudeMeters>
            <DistanceMeters>NAN</DistanceMeters>
          </Trackpoint>
          <Trackpoint>
            <Time>2022-07-13T18:21:32.000Z</Time>
            <Position>
              <LatitudeDegrees>43.47040233202278614044189453125</LatitudeDegrees>
              <LongitudeDegrees>-3.89165000058710575103759765625</LongitudeDegrees>
            </Position>
            <AltitudeMeters>38.799999237060546875</AltitudeMeters>
            <DistanceMeters>NAN</DistanceMeters>
          </Trackpoint>
          <Trackpoint>
            <Time>2022-07-13T18:21:35.000Z</Time>
            <Position>
              <LatitudeDegrees>43.4703361988067626953125</LatitudeDegrees>
              <LongitudeDegrees>-3.8917691074311733245849609375</LongitudeDegrees>
            </Position>
            <AltitudeMeters>38.799999237060546875</AltitudeMeters>
            <DistanceMeters>NAN</DistanceMeters>
          </Trackpoint>
          <Trackpoint>
            <Time>2022-07-13T18:21:39.000Z</Time>
            <Position>
              <LatitudeDegrees>43.47024709917604923248291015625</LatitudeDegrees>
              <LongitudeDegrees>-3.89193045906722545623779296875</LongitudeDegrees>
            </Position>
            <AltitudeMeters>38.799999237060546875</AltitudeMeters>
            <DistanceMeters>NAN</DistanceMeters>
          </Trackpoint>
          <Trackpoint>
            <Time>2022-07-13T18:21:42.000Z</Time>
            <Position>
              <LatitudeDegrees>43.470184989273548126220703125</LatitudeDegrees>
              <LongitudeDegrees>-3.89206339605152606964111328125</LongitudeDegrees>
            </Position>
            <AltitudeMeters>38.59999847412109375</AltitudeMeters>
            <DistanceMeters>NAN</DistanceMeters>
          </Trackpoint>
          <Trackpoint>
            <Time>2022-07-13T18:21:45.000Z</Time>
            <Position>
              <LatitudeDegrees>43.47010913304984569549560546875</LatitudeDegrees>
              <LongitudeDegrees>-3.89219096861779689788818359375</LongitudeDegrees>
            </Position>
            <AltitudeMeters>38.40000152587890625</AltitudeMeters>
            <DistanceMeters>NAN</DistanceMeters>
          </Trackpoint>
          <Trackpoint>
            <Time>2022-07-13T18:21:46.000Z</Time>
            <Position>
              <LatitudeDegrees>43.47008398734033107757568359375</LatitudeDegrees>
              <LongitudeDegrees>-3.8922304473817348480224609375</LongitudeDegrees>
            </Position>
            <AltitudeMeters>38.40000152587890625</AltitudeMeters>
            <DistanceMeters>NAN</DistanceMeters>
          </Trackpoint>
          <Trackpoint>
            <Time>2022-07-13T18:21:49.000Z</Time>
            <Position>
              <LatitudeDegrees>43.4700155071914196014404296875</LatitudeDegrees>
              <LongitudeDegrees>-3.89235475100576877593994140625</LongitudeDegrees>
            </Position>
            <AltitudeMeters>38.200000762939453125</AltitudeMeters>
            <DistanceMeters>NAN</DistanceMeters>
          </Trackpoint>
          <Trackpoint>
            <Time>2022-07-13T18:21:52.000Z</Time>
            <Position>
              <LatitudeDegrees>43.469939567148685455322265625</LatitudeDegrees>
              <LongitudeDegrees>-3.8924725167453289031982421875</LongitudeDegrees>
            </Position>
            <AltitudeMeters>38.200000762939453125</AltitudeMeters>
            <DistanceMeters>NAN</DistanceMeters>
          </Trackpoint>
          <Trackpoint>
            <Time>2022-07-13T18:21:53.000Z</Time>
            <Position>
              <LatitudeDegrees>43.469916097819805145263671875</LatitudeDegrees>
              <LongitudeDegrees>-3.89250981621444225311279296875</LongitudeDegrees>
            </Position>
            <AltitudeMeters>38</AltitudeMeters>
            <DistanceMeters>NAN</DistanceMeters>
          </Trackpoint>
          <Trackpoint>
            <Time>2022-07-13T18:21:59.000Z</Time>
            <Position>
              <LatitudeDegrees>43.46978039480745792388916015625</LatitudeDegrees>
              <LongitudeDegrees>-3.89276412315666675567626953125</LongitudeDegrees>
            </Position>
            <AltitudeMeters>37.40000152587890625</AltitudeMeters>
            <DistanceMeters>NAN</DistanceMeters>
          </Trackpoint>
          <Trackpoint>
            <Time>2022-07-13T18:22:01.000Z</Time>
            <Position>
              <LatitudeDegrees>43.4697352163493633270263671875</LatitudeDegrees>
              <LongitudeDegrees>-3.89286152087152004241943359375</LongitudeDegrees>
            </Position>
            <AltitudeMeters>36.799999237060546875</AltitudeMeters>
            <DistanceMeters>NAN</DistanceMeters>
          </Trackpoint>
          <Trackpoint>
            <Time>2022-07-13T18:22:03.000Z</Time>
            <Position>
              <LatitudeDegrees>43.46969188190996646881103515625</LatitudeDegrees>
              <LongitudeDegrees>-3.8929648697376251220703125</LongitudeDegrees>
            </Position>
            <AltitudeMeters>36.200000762939453125</AltitudeMeters>
            <DistanceMeters>NAN</DistanceMeters>
          </Trackpoint>
          <Trackpoint>
            <Time>2022-07-13T18:22:07.000Z</Time>
            <Position>
              <LatitudeDegrees>43.46959951333701610565185546875</LatitudeDegrees>
              <LongitudeDegrees>-3.89316326938569545745849609375</LongitudeDegrees>
            </Position>
            <AltitudeMeters>36</AltitudeMeters>
            <DistanceMeters>NAN</DistanceMeters>
          </Trackpoint>
          <Trackpoint>
            <Time>2022-07-13T18:22:14.000Z</Time>
            <Position>
              <LatitudeDegrees>43.4693590365350246429443359375</LatitudeDegrees>
              <LongitudeDegrees>-3.8934602402150630950927734375</LongitudeDegrees>
            </Position>
            <AltitudeMeters>35.200000762939453125</AltitudeMeters>
            <DistanceMeters>NAN</DistanceMeters>
          </Trackpoint>
          <Trackpoint>
            <Time>2022-07-13T18:22:15.000Z</Time>
            <Position>
              <LatitudeDegrees>43.46931821666657924652099609375</LatitudeDegrees>
              <LongitudeDegrees>-3.89348899014294147491455078125</LongitudeDegrees>
            </Position>
            <AltitudeMeters>35.200000762939453125</AltitudeMeters>
            <DistanceMeters>NAN</DistanceMeters>
          </Trackpoint>
          <Trackpoint>
            <Time>2022-07-13T18:22:17.000Z</Time>
            <Position>
              <LatitudeDegrees>43.46923272125422954559326171875</LatitudeDegrees>
              <LongitudeDegrees>-3.89351296238601207733154296875</LongitudeDegrees>
            </Position>
            <AltitudeMeters>35</AltitudeMeters>
            <DistanceMeters>NAN</DistanceMeters>
          </Trackpoint>
          <Trackpoint>
            <Time>2022-07-13T18:22:18.000Z</Time>
            <Position>
              <LatitudeDegrees>43.469184525310993194580078125</LatitudeDegrees>
              <LongitudeDegrees>-3.8935189135372638702392578125</LongitudeDegrees>
            </Position>
            <AltitudeMeters>34.799999237060546875</AltitudeMeters>
            <DistanceMeters>NAN</DistanceMeters>
          </Trackpoint>
          <Trackpoint>
            <Time>2022-07-13T18:22:22.000Z</Time>
            <Position>
              <LatitudeDegrees>43.46899685449898242950439453125</LatitudeDegrees>
              <LongitudeDegrees>-3.89351933263242244720458984375</LongitudeDegrees>
            </Position>
            <AltitudeMeters>34.200000762939453125</AltitudeMeters>
            <DistanceMeters>NAN</DistanceMeters>
          </Trackpoint>
          <Trackpoint>
            <Time>2022-07-13T18:22:24.000Z</Time>
            <Position>
              <LatitudeDegrees>43.46892527304589748382568359375</LatitudeDegrees>
              <LongitudeDegrees>-3.893523775041103363037109375</LongitudeDegrees>
            </Position>
            <AltitudeMeters>34.799999237060546875</AltitudeMeters>
            <DistanceMeters>NAN</DistanceMeters>
          </Trackpoint>
          <Trackpoint>
            <Time>2022-07-13T18:22:26.000Z</Time>
            <Position>
              <LatitudeDegrees>43.46884363330900669097900390625</LatitudeDegrees>
              <LongitudeDegrees>-3.89356610365211963653564453125</LongitudeDegrees>
            </Position>
            <AltitudeMeters>35.200000762939453125</AltitudeMeters>
            <DistanceMeters>NAN</DistanceMeters>
          </Trackpoint>
          <Trackpoint>
            <Time>2022-07-13T18:22:28.000Z</Time>
            <Position>
              <LatitudeDegrees>43.4687920846045017242431640625</LatitudeDegrees>
              <LongitudeDegrees>-3.89361999928951263427734375</LongitudeDegrees>
            </Position>
            <AltitudeMeters>35.40000152587890625</AltitudeMeters>
            <DistanceMeters>NAN</DistanceMeters>
          </Trackpoint>
          <Trackpoint>
            <Time>2022-07-13T18:22:32.000Z</Time>
            <Position>
              <LatitudeDegrees>43.4687511809170246124267578125</LatitudeDegrees>
              <LongitudeDegrees>-3.89369317330420017242431640625</LongitudeDegrees>
            </Position>
            <AltitudeMeters>36</AltitudeMeters>
            <DistanceMeters>NAN</DistanceMeters>
          </Trackpoint>
          <Trackpoint>
            <Time>2022-07-13T18:22:34.000Z</Time>
            <Position>
              <LatitudeDegrees>43.46874095499515533447265625</LatitudeDegrees>
              <LongitudeDegrees>-3.89372804202139377593994140625</LongitudeDegrees>
            </Position>
            <AltitudeMeters>36.200000762939453125</AltitudeMeters>
            <DistanceMeters>NAN</DistanceMeters>
          </Trackpoint>
          <Trackpoint>
            <Time>2022-07-13T18:22:39.000Z</Time>
            <Position>
              <LatitudeDegrees>43.4687029011547565460205078125</LatitudeDegrees>
              <LongitudeDegrees>-3.89380850829184055328369140625</LongitudeDegrees>
            </Position>
            <AltitudeMeters>37.40000152587890625</AltitudeMeters>
            <DistanceMeters>NAN</DistanceMeters>
          </Trackpoint>
          <Trackpoint>
            <Time>2022-07-13T18:22:43.000Z</Time>
            <Position>
              <LatitudeDegrees>43.46868303604423999786376953125</LatitudeDegrees>
              <LongitudeDegrees>-3.89387254603207111358642578125</LongitudeDegrees>
            </Position>
            <AltitudeMeters>38.40000152587890625</AltitudeMeters>
            <DistanceMeters>NAN</DistanceMeters>
          </Trackpoint>
          <Trackpoint>
            <Time>2022-07-13T18:22:45.000Z</Time>
            <Position>
              <LatitudeDegrees>43.46867565996944904327392578125</LatitudeDegrees>
              <LongitudeDegrees>-3.8939071632921695709228515625</LongitudeDegrees>
            </Position>
            <AltitudeMeters>38.59999847412109375</AltitudeMeters>
            <DistanceMeters>NAN</DistanceMeters>
          </Trackpoint>
          <Trackpoint>
            <Time>2022-07-13T18:22:48.000Z</Time>
            <Position>
              <LatitudeDegrees>43.46866778098046779632568359375</LatitudeDegrees>
              <LongitudeDegrees>-3.89395670033991336822509765625</LongitudeDegrees>
            </Position>
            <AltitudeMeters>39.59999847412109375</AltitudeMeters>
            <DistanceMeters>NAN</DistanceMeters>
          </Trackpoint>
          <Trackpoint>
            <Time>2022-07-13T18:22:50.000Z</Time>
            <Position>
              <LatitudeDegrees>43.468670547008514404296875</LatitudeDegrees>
              <LongitudeDegrees>-3.8939826004207134246826171875</LongitudeDegrees>
            </Position>
            <AltitudeMeters>39.799999237060546875</AltitudeMeters>
            <DistanceMeters>NAN</DistanceMeters>
          </Trackpoint>
          <Trackpoint>
            <Time>2022-07-13T18:22:51.000Z</Time>
            <Position>
              <LatitudeDegrees>43.468669541180133819580078125</LatitudeDegrees>
              <LongitudeDegrees>-3.89400095678865909576416015625</LongitudeDegrees>
            </Position>
            <AltitudeMeters>39.799999237060546875</AltitudeMeters>
            <DistanceMeters>NAN</DistanceMeters>
          </Trackpoint>
          <Trackpoint>
            <Time>2022-07-13T18:22:54.000Z</Time>
            <Position>
              <LatitudeDegrees>43.4686569683253765106201171875</LatitudeDegrees>
              <LongitudeDegrees>-3.89405661262571811676025390625</LongitudeDegrees>
            </Position>
            <AltitudeMeters>40.40000152587890625</AltitudeMeters>
            <DistanceMeters>NAN</DistanceMeters>
          </Trackpoint>
          <Trackpoint>
            <Time>2022-07-13T18:22:55.000Z</Time>
            <Position>
              <LatitudeDegrees>43.46865654923021793365478515625</LatitudeDegrees>
              <LongitudeDegrees>-3.89407454989850521087646484375</LongitudeDegrees>
            </Position>
            <AltitudeMeters>40.799999237060546875</AltitudeMeters>
            <DistanceMeters>NAN</DistanceMeters>
          </Trackpoint>
          <Trackpoint>
            <Time>2022-07-13T18:22:57.000Z</Time>
            <Position>
              <LatitudeDegrees>43.4686616621911525726318359375</LatitudeDegrees>
              <LongitudeDegrees>-3.8941086642444133758544921875</LongitudeDegrees>
            </Position>
            <AltitudeMeters>41.200000762939453125</AltitudeMeters>
            <DistanceMeters>NAN</DistanceMeters>
          </Trackpoint>
          <Trackpoint>
            <Time>2022-07-13T18:22:58.000Z</Time>
            <Position>
              <LatitudeDegrees>43.468665517866611480712890625</LatitudeDegrees>
              <LongitudeDegrees>-3.89412417076528072357177734375</LongitudeDegrees>
            </Position>
            <AltitudeMeters>41.40000152587890625</AltitudeMeters>
            <DistanceMeters>NAN</DistanceMeters>
          </Trackpoint>
          <Trackpoint>
            <Time>2022-07-13T18:22:59.000Z</Time>
            <Position>
              <LatitudeDegrees>43.46867465414106845855712890625</LatitudeDegrees>
              <LongitudeDegrees>-3.8941421918570995330810546875</LongitudeDegrees>
            </Position>
            <AltitudeMeters>41.59999847412109375</AltitudeMeters>
            <DistanceMeters>NAN</DistanceMeters>
          </Trackpoint>
          <Trackpoint>
            <Time>2022-07-13T18:23:01.000Z</Time>
            <Position>
              <LatitudeDegrees>43.46869845874607563018798828125</LatitudeDegrees>
              <LongitudeDegrees>-3.89416423626244068145751953125</LongitudeDegrees>
            </Position>
            <AltitudeMeters>41.799999237060546875</AltitudeMeters>
            <DistanceMeters>NAN</DistanceMeters>
          </Trackpoint>
          <Trackpoint>
            <Time>2022-07-13T18:23:02.000Z</Time>
            <Position>
              <LatitudeDegrees>43.4687082655727863311767578125</LatitudeDegrees>
              <LongitudeDegrees>-3.89417999424040317535400390625</LongitudeDegrees>
            </Position>
            <AltitudeMeters>41.799999237060546875</AltitudeMeters>
            <DistanceMeters>NAN</DistanceMeters>
          </Trackpoint>
          <Trackpoint>
            <Time>2022-07-13T18:23:07.000Z</Time>
            <Position>
              <LatitudeDegrees>43.468747325241565704345703125</LatitudeDegrees>
              <LongitudeDegrees>-3.8943433575332164764404296875</LongitudeDegrees>
            </Position>
            <AltitudeMeters>41.799999237060546875</AltitudeMeters>
            <DistanceMeters>NAN</DistanceMeters>
          </Trackpoint>
          <Trackpoint>
            <Time>2022-07-13T18:23:12.000Z</Time>
            <Position>
              <LatitudeDegrees>43.4687954373657703399658203125</LatitudeDegrees>
              <LongitudeDegrees>-3.89461803250014781951904296875</LongitudeDegrees>
            </Position>
            <AltitudeMeters>41</AltitudeMeters>
            <DistanceMeters>NAN</DistanceMeters>
          </Trackpoint>
          <Trackpoint>
            <Time>2022-07-13T18:23:13.000Z</Time>
            <Position>
              <LatitudeDegrees>43.4688006341457366943359375</LatitudeDegrees>
              <LongitudeDegrees>-3.89467955566942691802978515625</LongitudeDegrees>
            </Position>
            <AltitudeMeters>40.59999847412109375</AltitudeMeters>
            <DistanceMeters>NAN</DistanceMeters>
          </Trackpoint>
          <Trackpoint>
            <Time>2022-07-13T18:23:16.000Z</Time>
            <Position>
              <LatitudeDegrees>43.4688175655901432037353515625</LatitudeDegrees>
              <LongitudeDegrees>-3.89482305385172367095947265625</LongitudeDegrees>
            </Position>
            <AltitudeMeters>39.40000152587890625</AltitudeMeters>
            <DistanceMeters>NAN</DistanceMeters>
          </Trackpoint>
          <Trackpoint>
            <Time>2022-07-13T18:23:18.000Z</Time>
            <Position>
              <LatitudeDegrees>43.46881329081952571868896484375</LatitudeDegrees>
              <LongitudeDegrees>-3.8949183560907840728759765625</LongitudeDegrees>
            </Position>
            <AltitudeMeters>38.799999237060546875</AltitudeMeters>
            <DistanceMeters>NAN</DistanceMeters>
          </Trackpoint>
          <Trackpoint>
            <Time>2022-07-13T18:23:19.000Z</Time>
            <Position>
              <LatitudeDegrees>43.46881161443889141082763671875</LatitudeDegrees>
              <LongitudeDegrees>-3.89496655203402042388916015625</LongitudeDegrees>
            </Position>
            <AltitudeMeters>38.40000152587890625</AltitudeMeters>
            <DistanceMeters>NAN</DistanceMeters>
          </Trackpoint>
          <Trackpoint>
            <Time>2022-07-13T18:23:20.000Z</Time>
            <Position>
              <LatitudeDegrees>43.46880574710667133331298828125</LatitudeDegrees>
              <LongitudeDegrees>-3.89501617290079593658447265625</LongitudeDegrees>
            </Position>
            <AltitudeMeters>38.40000152587890625</AltitudeMeters>
            <DistanceMeters>NAN</DistanceMeters>
          </Trackpoint>
          <Trackpoint>
            <Time>2022-07-13T18:23:25.000Z</Time>
            <Position>
              <LatitudeDegrees>43.46875528804957866668701171875</LatitudeDegrees>
              <LongitudeDegrees>-3.895300067961215972900390625</LongitudeDegrees>
            </Position>
            <AltitudeMeters>38.200000762939453125</AltitudeMeters>
            <DistanceMeters>NAN</DistanceMeters>
          </Trackpoint>
          <Trackpoint>
            <Time>2022-07-13T18:23:27.000Z</Time>
            <Position>
              <LatitudeDegrees>43.46873969770967960357666015625</LatitudeDegrees>
              <LongitudeDegrees>-3.89542688615620136260986328125</LongitudeDegrees>
            </Position>
            <AltitudeMeters>37.799999237060546875</AltitudeMeters>
            <DistanceMeters>NAN</DistanceMeters>
          </Trackpoint>
          <Trackpoint>
            <Time>2022-07-13T18:23:29.000Z</Time>
            <Position>
              <LatitudeDegrees>43.4687521867454051971435546875</LatitudeDegrees>
              <LongitudeDegrees>-3.895567953586578369140625</LongitudeDegrees>
            </Position>
            <AltitudeMeters>37.200000762939453125</AltitudeMeters>
            <DistanceMeters>NAN</DistanceMeters>
          </Trackpoint>
          <Trackpoint>
            <Time>2022-07-13T18:23:30.000Z</Time>
            <Position>
              <LatitudeDegrees>43.46876551397144794464111328125</LatitudeDegrees>
              <LongitudeDegrees>-3.8956204243004322052001953125</LongitudeDegrees>
            </Position>
            <AltitudeMeters>36.799999237060546875</AltitudeMeters>
            <DistanceMeters>NAN</DistanceMeters>
          </Trackpoint>
          <Trackpoint>
            <Time>2022-07-13T18:23:32.000Z</Time>
            <Position>
              <LatitudeDegrees>43.4688101895153522491455078125</LatitudeDegrees>
              <LongitudeDegrees>-3.89569443650543689727783203125</LongitudeDegrees>
            </Position>
            <AltitudeMeters>36.200000762939453125</AltitudeMeters>
            <DistanceMeters>NAN</DistanceMeters>
          </Trackpoint>
          <Trackpoint>
            <Time>2022-07-13T18:23:33.000Z</Time>
            <Position>
              <LatitudeDegrees>43.468835167586803436279296875</LatitudeDegrees>
              <LongitudeDegrees>-3.89571891166269779205322265625</LongitudeDegrees>
            </Position>
            <AltitudeMeters>35.799999237060546875</AltitudeMeters>
            <DistanceMeters>NAN</DistanceMeters>
          </Trackpoint>
          <Trackpoint>
            <Time>2022-07-13T18:23:35.000Z</Time>
            <Position>
              <LatitudeDegrees>43.46887732855975627899169921875</LatitudeDegrees>
              <LongitudeDegrees>-3.8957619108259677886962890625</LongitudeDegrees>
            </Position>
            <AltitudeMeters>35</AltitudeMeters>
            <DistanceMeters>NAN</DistanceMeters>
          </Trackpoint>
          <Trackpoint>
            <Time>2022-07-13T18:23:38.000Z</Time>
            <Position>
              <LatitudeDegrees>43.46889727748930454254150390625</LatitudeDegrees>
              <LongitudeDegrees>-3.89578227885067462921142578125</LongitudeDegrees>
            </Position>
            <AltitudeMeters>33.799999237060546875</AltitudeMeters>
            <DistanceMeters>NAN</DistanceMeters>
          </Trackpoint>
          <Trackpoint>
            <Time>2022-07-13T18:23:39.000Z</Time>
            <Position>
              <LatitudeDegrees>43.46889727748930454254150390625</LatitudeDegrees>
              <LongitudeDegrees>-3.89578227885067462921142578125</LongitudeDegrees>
            </Position>
            <AltitudeMeters>33.799999237060546875</AltitudeMeters>
            <DistanceMeters>NAN</DistanceMeters>
          </Trackpoint>
          <Trackpoint>
            <Time>2022-07-13T18:24:04.000Z</Time>
            <Position>
              <LatitudeDegrees>43.46890767104923725128173828125</LatitudeDegrees>
              <LongitudeDegrees>-3.89580105431377887725830078125</LongitudeDegrees>
            </Position>
            <AltitudeMeters>33.40000152587890625</AltitudeMeters>
            <DistanceMeters>NAN</DistanceMeters>
          </Trackpoint>
          <Trackpoint>
            <Time>2022-07-13T18:24:06.000Z</Time>
            <Position>
              <LatitudeDegrees>43.46894505433738231658935546875</LatitudeDegrees>
              <LongitudeDegrees>-3.8958670198917388916015625</LongitudeDegrees>
            </Position>
            <AltitudeMeters>33.40000152587890625</AltitudeMeters>
            <DistanceMeters>NAN</DistanceMeters>
          </Trackpoint>
          <Trackpoint>
            <Time>2022-07-13T18:24:10.000Z</Time>
            <Position>
              <LatitudeDegrees>43.46907732076942920684814453125</LatitudeDegrees>
              <LongitudeDegrees>-3.89601026661694049835205078125</LongitudeDegrees>
            </Position>
            <AltitudeMeters>33</AltitudeMeters>
            <DistanceMeters>NAN</DistanceMeters>
          </Trackpoint>
          <Trackpoint>
            <Time>2022-07-13T18:24:12.000Z</Time>
            <Position>
              <LatitudeDegrees>43.46913750283420085906982421875</LatitudeDegrees>
              <LongitudeDegrees>-3.89608972705900669097900390625</LongitudeDegrees>
            </Position>
            <AltitudeMeters>32.799999237060546875</AltitudeMeters>
            <DistanceMeters>NAN</DistanceMeters>
          </Trackpoint>
          <Trackpoint>
            <Time>2022-07-13T18:24:15.000Z</Time>
            <Position>
              <LatitudeDegrees>43.46921863965690135955810546875</LatitudeDegrees>
              <LongitudeDegrees>-3.896184526383876800537109375</LongitudeDegrees>
            </Position>
            <AltitudeMeters>32.59999847412109375</AltitudeMeters>
            <DistanceMeters>NAN</DistanceMeters>
          </Trackpoint>
          <Trackpoint>
            <Time>2022-07-13T18:24:17.000Z</Time>
            <Position>
              <LatitudeDegrees>43.469276726245880126953125</LatitudeDegrees>
              <LongitudeDegrees>-3.8962463848292827606201171875</LongitudeDegrees>
            </Position>
            <AltitudeMeters>32.799999237060546875</AltitudeMeters>
            <DistanceMeters>NAN</DistanceMeters>
          </Trackpoint>
          <Trackpoint>
            <Time>2022-07-13T18:24:18.000Z</Time>
            <Position>
              <LatitudeDegrees>43.46929617226123809814453125</LatitudeDegrees>
              <LongitudeDegrees>-3.89627731405198574066162109375</LongitudeDegrees>
            </Position>
            <AltitudeMeters>32.799999237060546875</AltitudeMeters>
            <DistanceMeters>NAN</DistanceMeters>
          </Trackpoint>
          <Trackpoint>
            <Time>2022-07-13T18:24:21.000Z</Time>
            <Position>
              <LatitudeDegrees>43.4693312086164951324462890625</LatitudeDegrees>
              <LongitudeDegrees>-3.89636524021625518798828125</LongitudeDegrees>
            </Position>
            <AltitudeMeters>33.200000762939453125</AltitudeMeters>
            <DistanceMeters>NAN</DistanceMeters>
          </Trackpoint>
          <Trackpoint>
            <Time>2022-07-13T18:24:23.000Z</Time>
            <Position>
              <LatitudeDegrees>43.46932039596140384674072265625</LatitudeDegrees>
              <LongitudeDegrees>-3.89643824659287929534912109375</LongitudeDegrees>
            </Position>
            <AltitudeMeters>33.200000762939453125</AltitudeMeters>
            <DistanceMeters>NAN</DistanceMeters>
          </Trackpoint>
          <Trackpoint>
            <Time>2022-07-13T18:24:29.000Z</Time>
            <Position>
              <LatitudeDegrees>43.46924613229930400848388671875</LatitudeDegrees>
              <LongitudeDegrees>-3.896674700081348419189453125</LongitudeDegrees>
            </Position>
            <AltitudeMeters>33.200000762939453125</AltitudeMeters>
            <DistanceMeters>NAN</DistanceMeters>
          </Trackpoint>
          <Trackpoint>
            <Time>2022-07-13T18:24:33.000Z</Time>
            <Position>
              <LatitudeDegrees>43.46922065131366252899169921875</LatitudeDegrees>
              <LongitudeDegrees>-3.89679129235446453094482421875</LongitudeDegrees>
            </Position>
            <AltitudeMeters>33.59999847412109375</AltitudeMeters>
            <DistanceMeters>NAN</DistanceMeters>
          </Trackpoint>
          <Trackpoint>
            <Time>2022-07-13T18:24:34.000Z</Time>
            <Position>
              <LatitudeDegrees>43.4692098386585712432861328125</LatitudeDegrees>
              <LongitudeDegrees>-3.8968143425881862640380859375</LongitudeDegrees>
            </Position>
            <AltitudeMeters>33.799999237060546875</AltitudeMeters>
            <DistanceMeters>NAN</DistanceMeters>
          </Trackpoint>
          <Trackpoint>
            <Time>2022-07-13T18:24:37.000Z</Time>
            <Position>
              <LatitudeDegrees>43.46918678842484951019287109375</LatitudeDegrees>
              <LongitudeDegrees>-3.896882236003875732421875</LongitudeDegrees>
            </Position>
            <AltitudeMeters>34.200000762939453125</AltitudeMeters>
            <DistanceMeters>NAN</DistanceMeters>
          </Trackpoint>
          <Trackpoint>
            <Time>2022-07-13T18:24:39.000Z</Time>
            <Position>
              <LatitudeDegrees>43.4691763110458850860595703125</LatitudeDegrees>
              <LongitudeDegrees>-3.8969286717474460601806640625</LongitudeDegrees>
            </Position>
            <AltitudeMeters>34.59999847412109375</AltitudeMeters>
            <DistanceMeters>NAN</DistanceMeters>
          </Trackpoint>
          <Trackpoint>
            <Time>2022-07-13T18:24:43.000Z</Time>
            <Position>
              <LatitudeDegrees>43.46913046203553676605224609375</LatitudeDegrees>
              <LongitudeDegrees>-3.89706286601722240447998046875</LongitudeDegrees>
            </Position>
            <AltitudeMeters>34.799999237060546875</AltitudeMeters>
            <DistanceMeters>NAN</DistanceMeters>
          </Trackpoint>
          <Trackpoint>
            <Time>2022-07-13T18:24:44.000Z</Time>
            <Position>
              <LatitudeDegrees>43.469115793704986572265625</LatitudeDegrees>
              <LongitudeDegrees>-3.8970969803631305694580078125</LongitudeDegrees>
            </Position>
            <AltitudeMeters>35</AltitudeMeters>
            <DistanceMeters>NAN</DistanceMeters>
          </Trackpoint>
          <Trackpoint>
            <Time>2022-07-13T18:24:50.000Z</Time>
            <Position>
              <LatitudeDegrees>43.46901177428662776947021484375</LatitudeDegrees>
              <LongitudeDegrees>-3.89727643691003322601318359375</LongitudeDegrees>
            </Position>
            <AltitudeMeters>35.40000152587890625</AltitudeMeters>
            <DistanceMeters>NAN</DistanceMeters>
          </Trackpoint>
          <Trackpoint>
            <Time>2022-07-13T18:24:53.000Z</Time>
            <Position>
              <LatitudeDegrees>43.46895259805023670196533203125</LatitudeDegrees>
              <LongitudeDegrees>-3.89737701974809169769287109375</LongitudeDegrees>
            </Position>
            <AltitudeMeters>35.59999847412109375</AltitudeMeters>
            <DistanceMeters>NAN</DistanceMeters>
          </Trackpoint>
          <Trackpoint>
            <Time>2022-07-13T18:24:54.000Z</Time>
            <Position>
              <LatitudeDegrees>43.468931727111339569091796875</LatitudeDegrees>
              <LongitudeDegrees>-3.89740903861820697784423828125</LongitudeDegrees>
            </Position>
            <AltitudeMeters>35.59999847412109375</AltitudeMeters>
            <DistanceMeters>NAN</DistanceMeters>
          </Trackpoint>
          <Trackpoint>
            <Time>2022-07-13T18:25:00.000Z</Time>
            <Position>
              <LatitudeDegrees>43.46880323253571987152099609375</LatitudeDegrees>
              <LongitudeDegrees>-3.8976069353520870208740234375</LongitudeDegrees>
            </Position>
            <AltitudeMeters>36</AltitudeMeters>
            <DistanceMeters>NAN</DistanceMeters>
          </Trackpoint>
          <Trackpoint>
            <Time>2022-07-13T18:25:01.000Z</Time>
            <Position>
              <LatitudeDegrees>43.46878747455775737762451171875</LatitudeDegrees>
              <LongitudeDegrees>-3.89764155261218547821044921875</LongitudeDegrees>
            </Position>
            <AltitudeMeters>36</AltitudeMeters>
            <DistanceMeters>NAN</DistanceMeters>
          </Trackpoint>
          <Trackpoint>
            <Time>2022-07-13T18:25:11.000Z</Time>
            <Position>
              <LatitudeDegrees>43.46857465803623199462890625</LatitudeDegrees>
              <LongitudeDegrees>-3.898007757961750030517578125</LongitudeDegrees>
            </Position>
            <AltitudeMeters>36.200000762939453125</AltitudeMeters>
            <DistanceMeters>NAN</DistanceMeters>
          </Trackpoint>
          <Trackpoint>
            <Time>2022-07-13T18:25:19.000Z</Time>
            <Position>
              <LatitudeDegrees>43.4684224426746368408203125</LatitudeDegrees>
              <LongitudeDegrees>-3.89829777181148529052734375</LongitudeDegrees>
            </Position>
            <AltitudeMeters>36.799999237060546875</AltitudeMeters>
            <DistanceMeters>NAN</DistanceMeters>
          </Trackpoint>
          <Trackpoint>
            <Time>2022-07-13T18:25:22.000Z</Time>
            <Position>
              <LatitudeDegrees>43.468373157083988189697265625</LatitudeDegrees>
              <LongitudeDegrees>-3.89841050840914249420166015625</LongitudeDegrees>
            </Position>
            <AltitudeMeters>36.799999237060546875</AltitudeMeters>
            <DistanceMeters>NAN</DistanceMeters>
          </Trackpoint>
          <Trackpoint>
            <Time>2022-07-13T18:25:24.000Z</Time>
            <Position>
              <LatitudeDegrees>43.468344993889331817626953125</LatitudeDegrees>
              <LongitudeDegrees>-3.89848963357508182525634765625</LongitudeDegrees>
            </Position>
            <AltitudeMeters>37</AltitudeMeters>
            <DistanceMeters>NAN</DistanceMeters>
          </Trackpoint>
          <Trackpoint>
            <Time>2022-07-13T18:25:30.000Z</Time>
            <Position>
              <LatitudeDegrees>43.46826226450502872467041015625</LatitudeDegrees>
              <LongitudeDegrees>-3.8987156935036182403564453125</LongitudeDegrees>
            </Position>
            <AltitudeMeters>37</AltitudeMeters>
            <DistanceMeters>NAN</DistanceMeters>
          </Trackpoint>
          <Trackpoint>
            <Time>2022-07-13T18:25:31.000Z</Time>
            <Position>
              <LatitudeDegrees>43.46824030391871929168701171875</LatitudeDegrees>
              <LongitudeDegrees>-3.89874611981213092803955078125</LongitudeDegrees>
            </Position>
            <AltitudeMeters>37</AltitudeMeters>
            <DistanceMeters>NAN</DistanceMeters>
          </Trackpoint>
          <Trackpoint>
            <Time>2022-07-13T18:25:36.000Z</Time>
            <Position>
              <LatitudeDegrees>43.46808926202356815338134765625</LatitudeDegrees>
              <LongitudeDegrees>-3.89883781783282756805419921875</LongitudeDegrees>
            </Position>
            <AltitudeMeters>36.59999847412109375</AltitudeMeters>
            <DistanceMeters>NAN</DistanceMeters>
          </Trackpoint>
          <Trackpoint>
            <Time>2022-07-13T18:25:41.000Z</Time>
            <Position>
              <LatitudeDegrees>43.467922545969486236572265625</LatitudeDegrees>
              <LongitudeDegrees>-3.8989309407770633697509765625</LongitudeDegrees>
            </Position>
            <AltitudeMeters>36.40000152587890625</AltitudeMeters>
            <DistanceMeters>NAN</DistanceMeters>
          </Trackpoint>
          <Trackpoint>
            <Time>2022-07-13T18:25:46.000Z</Time>
            <Position>
              <LatitudeDegrees>43.46785222180187702178955078125</LatitudeDegrees>
              <LongitudeDegrees>-3.89914861880242824554443359375</LongitudeDegrees>
            </Position>
            <AltitudeMeters>36.200000762939453125</AltitudeMeters>
            <DistanceMeters>NAN</DistanceMeters>
          </Trackpoint>
          <Trackpoint>
            <Time>2022-07-13T18:25:53.000Z</Time>
            <Position>
              <LatitudeDegrees>43.4677476994693279266357421875</LatitudeDegrees>
              <LongitudeDegrees>-3.89943444170057773590087890625</LongitudeDegrees>
            </Position>
            <AltitudeMeters>36.200000762939453125</AltitudeMeters>
            <DistanceMeters>NAN</DistanceMeters>
          </Trackpoint>
          <Trackpoint>
            <Time>2022-07-13T18:26:00.000Z</Time>
            <Position>
              <LatitudeDegrees>43.46767477691173553466796875</LatitudeDegrees>
              <LongitudeDegrees>-3.89962001703679561614990234375</LongitudeDegrees>
            </Position>
            <AltitudeMeters>36.200000762939453125</AltitudeMeters>
            <DistanceMeters>NAN</DistanceMeters>
          </Trackpoint>
          <Trackpoint>
            <Time>2022-07-13T18:26:04.000Z</Time>
            <Position>
              <LatitudeDegrees>43.4676970727741718292236328125</LatitudeDegrees>
              <LongitudeDegrees>-3.89962085522711277008056640625</LongitudeDegrees>
            </Position>
            <AltitudeMeters>36.200000762939453125</AltitudeMeters>
            <DistanceMeters>NAN</DistanceMeters>
          </Trackpoint>
          <Trackpoint>
            <Time>2022-07-13T18:26:09.000Z</Time>
            <Position>
              <LatitudeDegrees>43.4677574224770069122314453125</LatitudeDegrees>
              <LongitudeDegrees>-3.899489007890224456787109375</LongitudeDegrees>
            </Position>
            <AltitudeMeters>36.200000762939453125</AltitudeMeters>
            <DistanceMeters>NAN</DistanceMeters>
          </Trackpoint>
          <Trackpoint>
            <Time>2022-07-13T18:26:12.000Z</Time>
            <Position>
              <LatitudeDegrees>43.4678472764790058135986328125</LatitudeDegrees>
              <LongitudeDegrees>-3.89947132207453250885009765625</LongitudeDegrees>
            </Position>
            <AltitudeMeters>36.40000152587890625</AltitudeMeters>
            <DistanceMeters>NAN</DistanceMeters>
          </Trackpoint>
          <Trackpoint>
            <Time>2022-07-13T18:26:13.000Z</Time>
            <Position>
              <LatitudeDegrees>43.46786915324628353118896484375</LatitudeDegrees>
              <LongitudeDegrees>-3.899493031203746795654296875</LongitudeDegrees>
            </Position>
            <AltitudeMeters>36.40000152587890625</AltitudeMeters>
            <DistanceMeters>NAN</DistanceMeters>
          </Trackpoint>
          <Trackpoint>
            <Time>2022-07-13T18:26:20.000Z</Time>
            <Position>
              <LatitudeDegrees>43.4680093824863433837890625</LatitudeDegrees>
              <LongitudeDegrees>-3.89972814358770847320556640625</LongitudeDegrees>
            </Position>
            <AltitudeMeters>36.59999847412109375</AltitudeMeters>
            <DistanceMeters>NAN</DistanceMeters>
          </Trackpoint>
          <Trackpoint>
            <Time>2022-07-13T18:26:28.000Z</Time>
            <Position>
              <LatitudeDegrees>43.46813343465328216552734375</LatitudeDegrees>
              <LongitudeDegrees>-3.90007766894996166229248046875</LongitudeDegrees>
            </Position>
            <AltitudeMeters>36.59999847412109375</AltitudeMeters>
            <DistanceMeters>NAN</DistanceMeters>
          </Trackpoint>
          <Trackpoint>
            <Time>2022-07-13T18:26:31.000Z</Time>
            <Position>
              <LatitudeDegrees>43.46815698780119419097900390625</LatitudeDegrees>
              <LongitudeDegrees>-3.9002093486487865447998046875</LongitudeDegrees>
            </Position>
            <AltitudeMeters>36.59999847412109375</AltitudeMeters>
            <DistanceMeters>NAN</DistanceMeters>
          </Trackpoint>
          <Trackpoint>
            <Time>2022-07-13T18:26:36.000Z</Time>
            <Position>
              <LatitudeDegrees>43.46823208965361118316650390625</LatitudeDegrees>
              <LongitudeDegrees>-3.90043641440570354461669921875</LongitudeDegrees>
            </Position>
            <AltitudeMeters>36.799999237060546875</AltitudeMeters>
            <DistanceMeters>NAN</DistanceMeters>
          </Trackpoint>
          <Trackpoint>
            <Time>2022-07-13T18:26:39.000Z</Time>
            <Position>
              <LatitudeDegrees>43.46829294227063655853271484375</LatitudeDegrees>
              <LongitudeDegrees>-3.9005580358207225799560546875</LongitudeDegrees>
            </Position>
            <AltitudeMeters>37</AltitudeMeters>
            <DistanceMeters>NAN</DistanceMeters>
          </Trackpoint>
          <Trackpoint>
            <Time>2022-07-13T18:26:41.000Z</Time>
            <Position>
              <LatitudeDegrees>43.46833770163357257843017578125</LatitudeDegrees>
              <LongitudeDegrees>-3.90062785707414150238037109375</LongitudeDegrees>
            </Position>
            <AltitudeMeters>37.200000762939453125</AltitudeMeters>
            <DistanceMeters>NAN</DistanceMeters>
          </Trackpoint>
          <Trackpoint>
            <Time>2022-07-13T18:26:45.000Z</Time>
            <Position>
              <LatitudeDegrees>43.46842889674007892608642578125</LatitudeDegrees>
              <LongitudeDegrees>-3.90075643546879291534423828125</LongitudeDegrees>
            </Position>
            <AltitudeMeters>37.40000152587890625</AltitudeMeters>
            <DistanceMeters>NAN</DistanceMeters>
          </Trackpoint>
          <Trackpoint>
            <Time>2022-07-13T18:26:51.000Z</Time>
            <Position>
              <LatitudeDegrees>43.46852579154074192047119140625</LatitudeDegrees>
              <LongitudeDegrees>-3.90097503550350666046142578125</LongitudeDegrees>
            </Position>
            <AltitudeMeters>37.799999237060546875</AltitudeMeters>
            <DistanceMeters>NAN</DistanceMeters>
          </Trackpoint>
          <Trackpoint>
            <Time>2022-07-13T18:26:54.000Z</Time>
            <Position>
              <LatitudeDegrees>43.4685436449944972991943359375</LatitudeDegrees>
              <LongitudeDegrees>-3.9010750316083431243896484375</LongitudeDegrees>
            </Position>
            <AltitudeMeters>38</AltitudeMeters>
            <DistanceMeters>NAN</DistanceMeters>
          </Trackpoint>
          <Trackpoint>
            <Time>2022-07-13T18:26:56.000Z</Time>
            <Position>
              <LatitudeDegrees>43.4685416333377361297607421875</LatitudeDegrees>
              <LongitudeDegrees>-3.90114451758563518524169921875</LongitudeDegrees>
            </Position>
            <AltitudeMeters>38.200000762939453125</AltitudeMeters>
            <DistanceMeters>NAN</DistanceMeters>
          </Trackpoint>
          <Trackpoint>
            <Time>2022-07-13T18:27:02.000Z</Time>
            <Position>
              <LatitudeDegrees>43.46849829889833927154541015625</LatitudeDegrees>
              <LongitudeDegrees>-3.901318274438381195068359375</LongitudeDegrees>
            </Position>
            <AltitudeMeters>38.799999237060546875</AltitudeMeters>
            <DistanceMeters>NAN</DistanceMeters>
          </Trackpoint>
          <Trackpoint>
            <Time>2022-07-13T18:27:04.000Z</Time>
            <Position>
              <LatitudeDegrees>43.46847139298915863037109375</LatitudeDegrees>
              <LongitudeDegrees>-3.90136144123971462249755859375</LongitudeDegrees>
            </Position>
            <AltitudeMeters>39</AltitudeMeters>
            <DistanceMeters>NAN</DistanceMeters>
          </Trackpoint>
          <Trackpoint>
            <Time>2022-07-13T18:27:08.000Z</Time>
            <Position>
              <LatitudeDegrees>43.46841372549533843994140625</LatitudeDegrees>
              <LongitudeDegrees>-3.90146001242101192474365234375</LongitudeDegrees>
            </Position>
            <AltitudeMeters>39.40000152587890625</AltitudeMeters>
            <DistanceMeters>NAN</DistanceMeters>
          </Trackpoint>
          <Trackpoint>
            <Time>2022-07-13T18:27:10.000Z</Time>
            <Position>
              <LatitudeDegrees>43.4683743305504322052001953125</LatitudeDegrees>
              <LongitudeDegrees>-3.90151130966842174530029296875</LongitudeDegrees>
            </Position>
            <AltitudeMeters>39.40000152587890625</AltitudeMeters>
            <DistanceMeters>NAN</DistanceMeters>
          </Trackpoint>
          <Trackpoint>
            <Time>2022-07-13T18:27:15.000Z</Time>
            <Position>
              <LatitudeDegrees>43.46829160116612911224365234375</LatitudeDegrees>
              <LongitudeDegrees>-3.90161775983870029449462890625</LongitudeDegrees>
            </Position>
            <AltitudeMeters>39.799999237060546875</AltitudeMeters>
            <DistanceMeters>NAN</DistanceMeters>
          </Trackpoint>
          <Trackpoint>
            <Time>2022-07-13T18:27:16.000Z</Time>
            <Position>
              <LatitudeDegrees>43.46827383153140544891357421875</LatitudeDegrees>
              <LongitudeDegrees>-3.90163980424404144287109375</LongitudeDegrees>
            </Position>
            <AltitudeMeters>40</AltitudeMeters>
            <DistanceMeters>NAN</DistanceMeters>
          </Trackpoint>
          <Trackpoint>
            <Time>2022-07-13T18:27:17.000Z</Time>
            <Position>
              <LatitudeDegrees>43.46825555898249149322509765625</LatitudeDegrees>
              <LongitudeDegrees>-3.9016590826213359832763671875</LongitudeDegrees>
            </Position>
            <AltitudeMeters>40.200000762939453125</AltitudeMeters>
            <DistanceMeters>NAN</DistanceMeters>
          </Trackpoint>
          <Trackpoint>
            <Time>2022-07-13T18:27:21.000Z</Time>
            <Position>
              <LatitudeDegrees>43.4681932814419269561767578125</LatitudeDegrees>
              <LongitudeDegrees>-3.901738710701465606689453125</LongitudeDegrees>
            </Position>
            <AltitudeMeters>40.40000152587890625</AltitudeMeters>
            <DistanceMeters>NAN</DistanceMeters>
          </Trackpoint>
          <Trackpoint>
            <Time>2022-07-13T18:27:29.000Z</Time>
            <Position>
              <LatitudeDegrees>43.4680818021297454833984375</LatitudeDegrees>
              <LongitudeDegrees>-3.90190207399427890777587890625</LongitudeDegrees>
            </Position>
            <AltitudeMeters>41.200000762939453125</AltitudeMeters>
            <DistanceMeters>NAN</DistanceMeters>
          </Trackpoint>
          <Trackpoint>
            <Time>2022-07-13T18:27:30.000Z</Time>
            <Position>
              <LatitudeDegrees>43.468072749674320220947265625</LatitudeDegrees>
              <LongitudeDegrees>-3.90192001126706600189208984375</LongitudeDegrees>
            </Position>
            <AltitudeMeters>41.200000762939453125</AltitudeMeters>
            <DistanceMeters>NAN</DistanceMeters>
          </Trackpoint>
          <Trackpoint>
            <Time>2022-07-13T18:27:36.000Z</Time>
            <Position>
              <LatitudeDegrees>43.46803997643291950225830078125</LatitudeDegrees>
              <LongitudeDegrees>-3.90202159993350505828857421875</LongitudeDegrees>
            </Position>
            <AltitudeMeters>41.40000152587890625</AltitudeMeters>
            <DistanceMeters>NAN</DistanceMeters>
          </Trackpoint>
          <Trackpoint>
            <Time>2022-07-13T18:27:37.000Z</Time>
            <Position>
              <LatitudeDegrees>43.46803997643291950225830078125</LatitudeDegrees>
              <LongitudeDegrees>-3.90202159993350505828857421875</LongitudeDegrees>
            </Position>
            <AltitudeMeters>41.40000152587890625</AltitudeMeters>
            <DistanceMeters>NAN</DistanceMeters>
          </Trackpoint>
          <Trackpoint>
            <Time>2022-07-13T18:29:44.000Z</Time>
            <Position>
              <LatitudeDegrees>43.46800326369702816009521484375</LatitudeDegrees>
              <LongitudeDegrees>-3.90206535346806049346923828125</LongitudeDegrees>
            </Position>
            <AltitudeMeters>40.59999847412109375</AltitudeMeters>
            <DistanceMeters>NAN</DistanceMeters>
          </Trackpoint>
          <Trackpoint>
            <Time>2022-07-13T18:29:45.000Z</Time>
            <Position>
              <LatitudeDegrees>43.46798323094844818115234375</LatitudeDegrees>
              <LongitudeDegrees>-3.90209418721497058868408203125</LongitudeDegrees>
            </Position>
            <AltitudeMeters>40.59999847412109375</AltitudeMeters>
            <DistanceMeters>NAN</DistanceMeters>
          </Trackpoint>
          <Trackpoint>
            <Time>2022-07-13T18:29:46.000Z</Time>
            <Position>
              <LatitudeDegrees>43.46796043217182159423828125</LatitudeDegrees>
              <LongitudeDegrees>-3.902126289904117584228515625</LongitudeDegrees>
            </Position>
            <AltitudeMeters>40.59999847412109375</AltitudeMeters>
            <DistanceMeters>NAN</DistanceMeters>
          </Trackpoint>
          <Trackpoint>
            <Time>2022-07-13T18:29:52.000Z</Time>
            <Position>
              <LatitudeDegrees>43.46785440109670162200927734375</LatitudeDegrees>
              <LongitudeDegrees>-3.9023199118673801422119140625</LongitudeDegrees>
            </Position>
            <AltitudeMeters>41.40000152587890625</AltitudeMeters>
            <DistanceMeters>NAN</DistanceMeters>
          </Trackpoint>
          <Trackpoint>
            <Time>2022-07-13T18:29:54.000Z</Time>
            <Position>
              <LatitudeDegrees>43.46781919710338115692138671875</LatitudeDegrees>
              <LongitudeDegrees>-3.90237749554216861724853515625</LongitudeDegrees>
            </Position>
            <AltitudeMeters>41.59999847412109375</AltitudeMeters>
            <DistanceMeters>NAN</DistanceMeters>
          </Trackpoint>
          <Trackpoint>
            <Time>2022-07-13T18:29:57.000Z</Time>
            <Position>
              <LatitudeDegrees>43.46776773221790790557861328125</LatitudeDegrees>
              <LongitudeDegrees>-3.90245880000293254852294921875</LongitudeDegrees>
            </Position>
            <AltitudeMeters>41.59999847412109375</AltitudeMeters>
            <DistanceMeters>NAN</DistanceMeters>
          </Trackpoint>
          <Trackpoint>
            <Time>2022-07-13T18:30:02.000Z</Time>
            <Position>
              <LatitudeDegrees>43.4676969051361083984375</LatitudeDegrees>
              <LongitudeDegrees>-3.9025723747909069061279296875</LongitudeDegrees>
            </Position>
            <AltitudeMeters>41.799999237060546875</AltitudeMeters>
            <DistanceMeters>NAN</DistanceMeters>
          </Trackpoint>
          <Trackpoint>
            <Time>2022-07-13T18:30:07.000Z</Time>
            <Position>
              <LatitudeDegrees>43.4676306881010532379150390625</LatitudeDegrees>
              <LongitudeDegrees>-3.90269391238689422607421875</LongitudeDegrees>
            </Position>
            <AltitudeMeters>42.200000762939453125</AltitudeMeters>
            <DistanceMeters>NAN</DistanceMeters>
          </Trackpoint>
          <Trackpoint>
            <Time>2022-07-13T18:30:12.000Z</Time>
            <Position>
              <LatitudeDegrees>43.46754142083227634429931640625</LatitudeDegrees>
              <LongitudeDegrees>-3.9028690941631793975830078125</LongitudeDegrees>
            </Position>
            <AltitudeMeters>42.40000152587890625</AltitudeMeters>
            <DistanceMeters>NAN</DistanceMeters>
          </Trackpoint>
          <Trackpoint>
            <Time>2022-07-13T18:30:20.000Z</Time>
            <Position>
              <LatitudeDegrees>43.46741686575114727020263671875</LatitudeDegrees>
              <LongitudeDegrees>-3.9031272567808628082275390625</LongitudeDegrees>
            </Position>
            <AltitudeMeters>42.59999847412109375</AltitudeMeters>
            <DistanceMeters>NAN</DistanceMeters>
          </Trackpoint>
          <Trackpoint>
            <Time>2022-07-13T18:30:26.000Z</Time>
            <Position>
              <LatitudeDegrees>43.46731125377118587493896484375</LatitudeDegrees>
              <LongitudeDegrees>-3.9033270813524723052978515625</LongitudeDegrees>
            </Position>
            <AltitudeMeters>42.799999237060546875</AltitudeMeters>
            <DistanceMeters>NAN</DistanceMeters>
          </Trackpoint>
          <Trackpoint>
            <Time>2022-07-13T18:30:28.000Z</Time>
            <Position>
              <LatitudeDegrees>43.46727035008370876312255859375</LatitudeDegrees>
              <LongitudeDegrees>-3.90339665114879608154296875</LongitudeDegrees>
            </Position>
            <AltitudeMeters>42.799999237060546875</AltitudeMeters>
            <DistanceMeters>NAN</DistanceMeters>
          </Trackpoint>
          <Trackpoint>
            <Time>2022-07-13T18:30:31.000Z</Time>
            <Position>
              <LatitudeDegrees>43.4672451205551624298095703125</LatitudeDegrees>
              <LongitudeDegrees>-3.9035004191100597381591796875</LongitudeDegrees>
            </Position>
            <AltitudeMeters>43.200000762939453125</AltitudeMeters>
            <DistanceMeters>NAN</DistanceMeters>
          </Trackpoint>
          <Trackpoint>
            <Time>2022-07-13T18:30:34.000Z</Time>
            <Position>
              <LatitudeDegrees>43.46719876863062381744384765625</LatitudeDegrees>
              <LongitudeDegrees>-3.90360343270003795623779296875</LongitudeDegrees>
            </Position>
            <AltitudeMeters>43.40000152587890625</AltitudeMeters>
            <DistanceMeters>NAN</DistanceMeters>
          </Trackpoint>
          <Trackpoint>
            <Time>2022-07-13T18:30:45.000Z</Time>
            <Position>
              <LatitudeDegrees>43.46700581721961498260498046875</LatitudeDegrees>
              <LongitudeDegrees>-3.90391775406897068023681640625</LongitudeDegrees>
            </Position>
            <AltitudeMeters>43.799999237060546875</AltitudeMeters>
            <DistanceMeters>NAN</DistanceMeters>
          </Trackpoint>
          <Trackpoint>
            <Time>2022-07-13T18:30:50.000Z</Time>
            <Position>
              <LatitudeDegrees>43.4669249318540096282958984375</LatitudeDegrees>
              <LongitudeDegrees>-3.904039375483989715576171875</LongitudeDegrees>
            </Position>
            <AltitudeMeters>44.200000762939453125</AltitudeMeters>
            <DistanceMeters>NAN</DistanceMeters>
          </Trackpoint>
          <Trackpoint>
            <Time>2022-07-13T18:30:55.000Z</Time>
            <Position>
              <LatitudeDegrees>43.4668372571468353271484375</LatitudeDegrees>
              <LongitudeDegrees>-3.9041602425277233123779296875</LongitudeDegrees>
            </Position>
            <AltitudeMeters>44.59999847412109375</AltitudeMeters>
            <DistanceMeters>NAN</DistanceMeters>
          </Trackpoint>
          <Trackpoint>
            <Time>2022-07-13T18:31:03.000Z</Time>
            <Position>
              <LatitudeDegrees>43.46670172177255153656005859375</LatitudeDegrees>
              <LongitudeDegrees>-3.90436098910868167877197265625</LongitudeDegrees>
            </Position>
            <AltitudeMeters>45.200000762939453125</AltitudeMeters>
            <DistanceMeters>NAN</DistanceMeters>
          </Trackpoint>
          <Trackpoint>
            <Time>2022-07-13T18:31:04.000Z</Time>
            <Position>
              <LatitudeDegrees>43.4666878916323184967041015625</LatitudeDegrees>
              <LongitudeDegrees>-3.904380016028881072998046875</LongitudeDegrees>
            </Position>
            <AltitudeMeters>45.40000152587890625</AltitudeMeters>
            <DistanceMeters>NAN</DistanceMeters>
          </Trackpoint>
          <Trackpoint>
            <Time>2022-07-13T18:31:12.000Z</Time>
            <Position>
              <LatitudeDegrees>43.46654749475419521331787109375</LatitudeDegrees>
              <LongitudeDegrees>-3.904640190303325653076171875</LongitudeDegrees>
            </Position>
            <AltitudeMeters>46</AltitudeMeters>
            <DistanceMeters>NAN</DistanceMeters>
          </Trackpoint>
          <Trackpoint>
            <Time>2022-07-13T18:31:16.000Z</Time>
            <Position>
              <LatitudeDegrees>43.46651245839893817901611328125</LatitudeDegrees>
              <LongitudeDegrees>-3.904786370694637298583984375</LongitudeDegrees>
            </Position>
            <AltitudeMeters>46.40000152587890625</AltitudeMeters>
            <DistanceMeters>NAN</DistanceMeters>
          </Trackpoint>
          <Trackpoint>
            <Time>2022-07-13T18:31:19.000Z</Time>
            <Position>
              <LatitudeDegrees>43.4665044955909252166748046875</LatitudeDegrees>
              <LongitudeDegrees>-3.90489910729229450225830078125</LongitudeDegrees>
            </Position>
            <AltitudeMeters>46.59999847412109375</AltitudeMeters>
            <DistanceMeters>NAN</DistanceMeters>
          </Trackpoint>
          <Trackpoint>
            <Time>2022-07-13T18:31:28.000Z</Time>
            <Position>
              <LatitudeDegrees>43.46650063991546630859375</LatitudeDegrees>
              <LongitudeDegrees>-3.90522281639277935028076171875</LongitudeDegrees>
            </Position>
            <AltitudeMeters>47.200000762939453125</AltitudeMeters>
            <DistanceMeters>NAN</DistanceMeters>
          </Trackpoint>
          <Trackpoint>
            <Time>2022-07-13T18:31:33.000Z</Time>
            <Position>
              <LatitudeDegrees>43.46644758246839046478271484375</LatitudeDegrees>
              <LongitudeDegrees>-3.90541610307991504669189453125</LongitudeDegrees>
            </Position>
            <AltitudeMeters>47.40000152587890625</AltitudeMeters>
            <DistanceMeters>NAN</DistanceMeters>
          </Trackpoint>
          <Trackpoint>
            <Time>2022-07-13T18:31:40.000Z</Time>
            <Position>
              <LatitudeDegrees>43.46635990776121616363525390625</LatitudeDegrees>
              <LongitudeDegrees>-3.90563839115202426910400390625</LongitudeDegrees>
            </Position>
            <AltitudeMeters>47.59999847412109375</AltitudeMeters>
            <DistanceMeters>NAN</DistanceMeters>
          </Trackpoint>
          <Trackpoint>
            <Time>2022-07-13T18:31:47.000Z</Time>
            <Position>
              <LatitudeDegrees>43.4662922658026218414306640625</LatitudeDegrees>
              <LongitudeDegrees>-3.90581323765218257904052734375</LongitudeDegrees>
            </Position>
            <AltitudeMeters>47.799999237060546875</AltitudeMeters>
            <DistanceMeters>NAN</DistanceMeters>
          </Trackpoint>
          <Trackpoint>
            <Time>2022-07-13T18:31:48.000Z</Time>
            <Position>
              <LatitudeDegrees>43.4662914276123046875</LatitudeDegrees>
              <LongitudeDegrees>-3.9058178476989269256591796875</LongitudeDegrees>
            </Position>
            <AltitudeMeters>47.799999237060546875</AltitudeMeters>
            <DistanceMeters>NAN</DistanceMeters>
          </Trackpoint>
          <Trackpoint>
            <Time>2022-07-13T18:31:50.000Z</Time>
            <Position>
              <LatitudeDegrees>43.4662914276123046875</LatitudeDegrees>
              <LongitudeDegrees>-3.9058178476989269256591796875</LongitudeDegrees>
            </Position>
            <AltitudeMeters>48</AltitudeMeters>
            <DistanceMeters>NAN</DistanceMeters>
          </Trackpoint>
          <Trackpoint>
            <Time>2022-07-13T18:32:35.000Z</Time>
            <Position>
              <LatitudeDegrees>43.4659789502620697021484375</LatitudeDegrees>
              <LongitudeDegrees>-3.90549757517874240875244140625</LongitudeDegrees>
            </Position>
            <AltitudeMeters>46.799999237060546875</AltitudeMeters>
            <DistanceMeters>NAN</DistanceMeters>
          </Trackpoint>
          <Trackpoint>
            <Time>2022-07-13T18:32:37.000Z</Time>
            <Position>
              <LatitudeDegrees>43.4659455902874469757080078125</LatitudeDegrees>
              <LongitudeDegrees>-3.905486762523651123046875</LongitudeDegrees>
            </Position>
            <AltitudeMeters>46.799999237060546875</AltitudeMeters>
            <DistanceMeters>NAN</DistanceMeters>
          </Trackpoint>
          <Trackpoint>
            <Time>2022-07-13T18:32:42.000Z</Time>
            <Position>
              <LatitudeDegrees>43.46590829081833362579345703125</LatitudeDegrees>
              <LongitudeDegrees>-3.90545147471129894256591796875</LongitudeDegrees>
            </Position>
            <AltitudeMeters>46.59999847412109375</AltitudeMeters>
            <DistanceMeters>NAN</DistanceMeters>
          </Trackpoint>
          <Trackpoint>
            <Time>2022-07-13T18:32:45.000Z</Time>
            <Position>
              <LatitudeDegrees>43.46589202992618083953857421875</LatitudeDegrees>
              <LongitudeDegrees>-3.90542532317340373992919921875</LongitudeDegrees>
            </Position>
            <AltitudeMeters>46.59999847412109375</AltitudeMeters>
            <DistanceMeters>NAN</DistanceMeters>
          </Trackpoint>
          <Trackpoint>
            <Time>2022-07-13T18:32:51.000Z</Time>
            <Position>
              <LatitudeDegrees>43.46584643237292766571044921875</LatitudeDegrees>
              <LongitudeDegrees>-3.905386514961719512939453125</LongitudeDegrees>
            </Position>
            <AltitudeMeters>46.40000152587890625</AltitudeMeters>
            <DistanceMeters>NAN</DistanceMeters>
          </Trackpoint>
          <Trackpoint>
            <Time>2022-07-13T18:32:55.000Z</Time>
            <Position>
              <LatitudeDegrees>43.46581466495990753173828125</LatitudeDegrees>
              <LongitudeDegrees>-3.90537637285888195037841796875</LongitudeDegrees>
            </Position>
            <AltitudeMeters>46.200000762939453125</AltitudeMeters>
            <DistanceMeters>NAN</DistanceMeters>
          </Trackpoint>
          <Trackpoint>
            <Time>2022-07-13T18:33:00.000Z</Time>
            <Position>
              <LatitudeDegrees>43.46579479984939098358154296875</LatitudeDegrees>
              <LongitudeDegrees>-3.90536815859377384185791015625</LongitudeDegrees>
            </Position>
            <AltitudeMeters>46.200000762939453125</AltitudeMeters>
            <DistanceMeters>NAN</DistanceMeters>
          </Trackpoint>
          <Trackpoint>
            <Time>2022-07-13T18:33:17.000Z</Time>
            <Position>
              <LatitudeDegrees>43.4658046066761016845703125</LatitudeDegrees>
              <LongitudeDegrees>-3.90528148971498012542724609375</LongitudeDegrees>
            </Position>
            <AltitudeMeters>46.40000152587890625</AltitudeMeters>
            <DistanceMeters>NAN</DistanceMeters>
          </Trackpoint>
          <Trackpoint>
            <Time>2022-07-13T18:33:19.000Z</Time>
            <Position>
              <LatitudeDegrees>43.46580888144671916961669921875</LatitudeDegrees>
              <LongitudeDegrees>-3.90524947084486484527587890625</LongitudeDegrees>
            </Position>
            <AltitudeMeters>46.40000152587890625</AltitudeMeters>
            <DistanceMeters>NAN</DistanceMeters>
          </Trackpoint>
          <Trackpoint>
            <Time>2022-07-13T18:33:22.000Z</Time>
            <Position>
              <LatitudeDegrees>43.46581407822668552398681640625</LatitudeDegrees>
              <LongitudeDegrees>-3.90520756132900714874267578125</LongitudeDegrees>
            </Position>
            <AltitudeMeters>46.200000762939453125</AltitudeMeters>
            <DistanceMeters>NAN</DistanceMeters>
          </Trackpoint>
          <Trackpoint>
            <Time>2022-07-13T18:33:24.000Z</Time>
            <Position>
              <LatitudeDegrees>43.46582346595823764801025390625</LatitudeDegrees>
              <LongitudeDegrees>-3.90517135150730609893798828125</LongitudeDegrees>
            </Position>
            <AltitudeMeters>46.200000762939453125</AltitudeMeters>
            <DistanceMeters>NAN</DistanceMeters>
          </Trackpoint>
          <Trackpoint>
            <Time>2022-07-13T18:33:30.000Z</Time>
            <Position>
              <LatitudeDegrees>43.46585682593286037445068359375</LatitudeDegrees>
              <LongitudeDegrees>-3.90510295517742633819580078125</LongitudeDegrees>
            </Position>
            <AltitudeMeters>46</AltitudeMeters>
            <DistanceMeters>NAN</DistanceMeters>
          </Trackpoint>
          <Trackpoint>
            <Time>2022-07-13T18:33:33.000Z</Time>
            <Position>
              <LatitudeDegrees>43.4658590890467166900634765625</LatitudeDegrees>
              <LongitudeDegrees>-3.90506205148994922637939453125</LongitudeDegrees>
            </Position>
            <AltitudeMeters>46</AltitudeMeters>
            <DistanceMeters>NAN</DistanceMeters>
          </Trackpoint>
          <Trackpoint>
            <Time>2022-07-13T18:33:40.000Z</Time>
            <Position>
              <LatitudeDegrees>43.4658718295395374298095703125</LatitudeDegrees>
              <LongitudeDegrees>-3.90499985776841640472412109375</LongitudeDegrees>
            </Position>
            <AltitudeMeters>46</AltitudeMeters>
            <DistanceMeters>NAN</DistanceMeters>
          </Trackpoint>
          <Trackpoint>
            <Time>2022-07-13T18:33:41.000Z</Time>
            <Position>
              <LatitudeDegrees>43.4658718295395374298095703125</LatitudeDegrees>
              <LongitudeDegrees>-3.90499985776841640472412109375</LongitudeDegrees>
            </Position>
            <AltitudeMeters>46</AltitudeMeters>
            <DistanceMeters>NAN</DistanceMeters>
          </Trackpoint>
          <Trackpoint>
            <Time>2022-07-13T18:40:41.000Z</Time>
            <Position>
              <LatitudeDegrees>43.4659184329211711883544921875</LatitudeDegrees>
              <LongitudeDegrees>-3.9053833298385143280029296875</LongitudeDegrees>
            </Position>
            <AltitudeMeters>45.40000152587890625</AltitudeMeters>
            <DistanceMeters>NAN</DistanceMeters>
          </Trackpoint>
          <Trackpoint>
            <Time>2022-07-13T18:40:42.000Z</Time>
            <Position>
              <LatitudeDegrees>43.46591818146407604217529296875</LatitudeDegrees>
              <LongitudeDegrees>-3.90540034510195255279541015625</LongitudeDegrees>
            </Position>
            <AltitudeMeters>45.40000152587890625</AltitudeMeters>
            <DistanceMeters>NAN</DistanceMeters>
          </Trackpoint>
          <Trackpoint>
            <Time>2022-07-13T18:40:44.000Z</Time>
            <Position>
              <LatitudeDegrees>43.4659204445779323577880859375</LatitudeDegrees>
              <LongitudeDegrees>-3.905432112514972686767578125</LongitudeDegrees>
            </Position>
            <AltitudeMeters>45.40000152587890625</AltitudeMeters>
            <DistanceMeters>NAN</DistanceMeters>
          </Trackpoint>
          <Trackpoint>
            <Time>2022-07-13T18:40:52.000Z</Time>
            <Position>
              <LatitudeDegrees>43.465986661612987518310546875</LatitudeDegrees>
              <LongitudeDegrees>-3.90551433898508548736572265625</LongitudeDegrees>
            </Position>
            <AltitudeMeters>45.200000762939453125</AltitudeMeters>
            <DistanceMeters>NAN</DistanceMeters>
          </Trackpoint>
          <Trackpoint>
            <Time>2022-07-13T18:41:00.000Z</Time>
            <Position>
              <LatitudeDegrees>43.4660884179174900054931640625</LatitudeDegrees>
              <LongitudeDegrees>-3.9055791310966014862060546875</LongitudeDegrees>
            </Position>
            <AltitudeMeters>46</AltitudeMeters>
            <DistanceMeters>NAN</DistanceMeters>
          </Trackpoint>
          <Trackpoint>
            <Time>2022-07-13T18:41:09.000Z</Time>
            <Position>
              <LatitudeDegrees>43.46619159914553165435791015625</LatitudeDegrees>
              <LongitudeDegrees>-3.9056597650051116943359375</LongitudeDegrees>
            </Position>
            <AltitudeMeters>46.200000762939453125</AltitudeMeters>
            <DistanceMeters>NAN</DistanceMeters>
          </Trackpoint>
          <Trackpoint>
            <Time>2022-07-13T18:41:10.000Z</Time>
            <Position>
              <LatitudeDegrees>43.46620383672416210174560546875</LatitudeDegrees>
              <LongitudeDegrees>-3.905668817460536956787109375</LongitudeDegrees>
            </Position>
            <AltitudeMeters>46.200000762939453125</AltitudeMeters>
            <DistanceMeters>NAN</DistanceMeters>
          </Trackpoint>
          <Trackpoint>
            <Time>2022-07-13T18:41:15.000Z</Time>
            <Position>
              <LatitudeDegrees>43.46626016311347484588623046875</LatitudeDegrees>
              <LongitudeDegrees>-3.905716426670551300048828125</LongitudeDegrees>
            </Position>
            <AltitudeMeters>46.40000152587890625</AltitudeMeters>
            <DistanceMeters>NAN</DistanceMeters>
          </Trackpoint>
          <Trackpoint>
            <Time>2022-07-13T18:41:20.000Z</Time>
            <Position>
              <LatitudeDegrees>43.466305173933506011962890625</LatitudeDegrees>
              <LongitudeDegrees>-3.90575389377772808074951171875</LongitudeDegrees>
            </Position>
            <AltitudeMeters>46.59999847412109375</AltitudeMeters>
            <DistanceMeters>NAN</DistanceMeters>
          </Trackpoint>
          <Trackpoint>
            <Time>2022-07-13T18:41:24.000Z</Time>
            <Position>
              <LatitudeDegrees>43.46632830798625946044921875</LatitudeDegrees>
              <LongitudeDegrees>-3.9057965576648712158203125</LongitudeDegrees>
            </Position>
            <AltitudeMeters>47.200000762939453125</AltitudeMeters>
            <DistanceMeters>NAN</DistanceMeters>
          </Trackpoint>
          <Trackpoint>
            <Time>2022-07-13T18:41:26.000Z</Time>
            <Position>
              <LatitudeDegrees>43.4663254581391811370849609375</LatitudeDegrees>
              <LongitudeDegrees>-3.9058233797550201416015625</LongitudeDegrees>
            </Position>
            <AltitudeMeters>47.40000152587890625</AltitudeMeters>
            <DistanceMeters>NAN</DistanceMeters>
          </Trackpoint>
          <Trackpoint>
            <Time>2022-07-13T18:41:27.000Z</Time>
            <Position>
              <LatitudeDegrees>43.46631850115954875946044921875</LatitudeDegrees>
              <LongitudeDegrees>-3.905843831598758697509765625</LongitudeDegrees>
            </Position>
            <AltitudeMeters>47.40000152587890625</AltitudeMeters>
            <DistanceMeters>NAN</DistanceMeters>
          </Trackpoint>
          <Trackpoint>
            <Time>2022-07-13T18:41:35.000Z</Time>
            <Position>
              <LatitudeDegrees>43.46624339930713176727294921875</LatitudeDegrees>
              <LongitudeDegrees>-3.90598573721945285797119140625</LongitudeDegrees>
            </Position>
            <AltitudeMeters>47.40000152587890625</AltitudeMeters>
            <DistanceMeters>NAN</DistanceMeters>
          </Trackpoint>
          <Trackpoint>
            <Time>2022-07-13T18:41:43.000Z</Time>
            <Position>
              <LatitudeDegrees>43.466161005198955535888671875</LatitudeDegrees>
              <LongitudeDegrees>-3.9062082767486572265625</LongitudeDegrees>
            </Position>
            <AltitudeMeters>47.799999237060546875</AltitudeMeters>
            <DistanceMeters>NAN</DistanceMeters>
          </Trackpoint>
          <Trackpoint>
            <Time>2022-07-13T18:41:51.000Z</Time>
            <Position>
              <LatitudeDegrees>43.46606486476957798004150390625</LatitudeDegrees>
              <LongitudeDegrees>-3.90642176382243633270263671875</LongitudeDegrees>
            </Position>
            <AltitudeMeters>48.200000762939453125</AltitudeMeters>
            <DistanceMeters>NAN</DistanceMeters>
          </Trackpoint>
          <Trackpoint>
            <Time>2022-07-13T18:41:52.000Z</Time>
            <Position>
              <LatitudeDegrees>43.46605413593351840972900390625</LatitudeDegrees>
              <LongitudeDegrees>-3.90644707717001438140869140625</LongitudeDegrees>
            </Position>
            <AltitudeMeters>48.40000152587890625</AltitudeMeters>
            <DistanceMeters>NAN</DistanceMeters>
          </Trackpoint>
          <Trackpoint>
            <Time>2022-07-13T18:41:59.000Z</Time>
            <Position>
              <LatitudeDegrees>43.46596478484570980072021484375</LatitudeDegrees>
              <LongitudeDegrees>-3.9066191576421260833740234375</LongitudeDegrees>
            </Position>
            <AltitudeMeters>49.200000762939453125</AltitudeMeters>
            <DistanceMeters>NAN</DistanceMeters>
          </Trackpoint>
          <Trackpoint>
            <Time>2022-07-13T18:42:05.000Z</Time>
            <Position>
              <LatitudeDegrees>43.46585330553352832794189453125</LatitudeDegrees>
              <LongitudeDegrees>-3.90672083012759685516357421875</LongitudeDegrees>
            </Position>
            <AltitudeMeters>49.40000152587890625</AltitudeMeters>
            <DistanceMeters>NAN</DistanceMeters>
          </Trackpoint>
          <Trackpoint>
            <Time>2022-07-13T18:42:06.000Z</Time>
            <Position>
              <LatitudeDegrees>43.4658315964043140411376953125</LatitudeDegrees>
              <LongitudeDegrees>-3.9067348279058933258056640625</LongitudeDegrees>
            </Position>
            <AltitudeMeters>49.40000152587890625</AltitudeMeters>
            <DistanceMeters>NAN</DistanceMeters>
          </Trackpoint>
          <Trackpoint>
            <Time>2022-07-13T18:42:13.000Z</Time>
            <Position>
              <LatitudeDegrees>43.46566085703670978546142578125</LatitudeDegrees>
              <LongitudeDegrees>-3.9067653380334377288818359375</LongitudeDegrees>
            </Position>
            <AltitudeMeters>49.799999237060546875</AltitudeMeters>
            <DistanceMeters>NAN</DistanceMeters>
          </Trackpoint>
          <Trackpoint>
            <Time>2022-07-13T18:42:18.000Z</Time>
            <Position>
              <LatitudeDegrees>43.4655295126140117645263671875</LatitudeDegrees>
              <LongitudeDegrees>-3.90679190866649150848388671875</LongitudeDegrees>
            </Position>
            <AltitudeMeters>50.200000762939453125</AltitudeMeters>
            <DistanceMeters>NAN</DistanceMeters>
          </Trackpoint>
          <Trackpoint>
            <Time>2022-07-13T18:42:19.000Z</Time>
            <Position>
              <LatitudeDegrees>43.46552507020533084869384765625</LatitudeDegrees>
              <LongitudeDegrees>-3.90681822784245014190673828125</LongitudeDegrees>
            </Position>
            <AltitudeMeters>50.200000762939453125</AltitudeMeters>
            <DistanceMeters>NAN</DistanceMeters>
          </Trackpoint>
          <Trackpoint>
            <Time>2022-07-13T18:42:20.000Z</Time>
            <Position>
              <LatitudeDegrees>43.4655296802520751953125</LatitudeDegrees>
              <LongitudeDegrees>-3.90684504993259906768798828125</LongitudeDegrees>
            </Position>
            <AltitudeMeters>50.200000762939453125</AltitudeMeters>
            <DistanceMeters>NAN</DistanceMeters>
          </Trackpoint>
          <Trackpoint>
            <Time>2022-07-13T18:42:23.000Z</Time>
            <Position>
              <LatitudeDegrees>43.4655794687569141387939453125</LatitudeDegrees>
              <LongitudeDegrees>-3.90691629610955715179443359375</LongitudeDegrees>
            </Position>
            <AltitudeMeters>50.200000762939453125</AltitudeMeters>
            <DistanceMeters>NAN</DistanceMeters>
          </Trackpoint>
          <Trackpoint>
            <Time>2022-07-13T18:42:29.000Z</Time>
            <Position>
              <LatitudeDegrees>43.46568524837493896484375</LatitudeDegrees>
              <LongitudeDegrees>-3.90706566162407398223876953125</LongitudeDegrees>
            </Position>
            <AltitudeMeters>50.59999847412109375</AltitudeMeters>
            <DistanceMeters>NAN</DistanceMeters>
          </Trackpoint>
          <Trackpoint>
            <Time>2022-07-13T18:42:31.000Z</Time>
            <Position>
              <LatitudeDegrees>43.46572154201567173004150390625</LatitudeDegrees>
              <LongitudeDegrees>-3.90710656531155109405517578125</LongitudeDegrees>
            </Position>
            <AltitudeMeters>50.59999847412109375</AltitudeMeters>
            <DistanceMeters>NAN</DistanceMeters>
          </Trackpoint>
          <Trackpoint>
            <Time>2022-07-13T18:42:38.000Z</Time>
            <Position>
              <LatitudeDegrees>43.46584643237292766571044921875</LatitudeDegrees>
              <LongitudeDegrees>-3.9072129316627979278564453125</LongitudeDegrees>
            </Position>
            <AltitudeMeters>51.200000762939453125</AltitudeMeters>
            <DistanceMeters>NAN</DistanceMeters>
          </Trackpoint>
          <Trackpoint>
            <Time>2022-07-13T18:42:43.000Z</Time>
            <Position>
              <LatitudeDegrees>43.4659279882907867431640625</LatitudeDegrees>
              <LongitudeDegrees>-3.90727705322206020355224609375</LongitudeDegrees>
            </Position>
            <AltitudeMeters>51.799999237060546875</AltitudeMeters>
            <DistanceMeters>NAN</DistanceMeters>
          </Trackpoint>
          <Trackpoint>
            <Time>2022-07-13T18:42:46.000Z</Time>
            <Position>
              <LatitudeDegrees>43.46596746705472469329833984375</LatitudeDegrees>
              <LongitudeDegrees>-3.90730823390185832977294921875</LongitudeDegrees>
            </Position>
            <AltitudeMeters>52.200000762939453125</AltitudeMeters>
            <DistanceMeters>NAN</DistanceMeters>
          </Trackpoint>
          <Trackpoint>
            <Time>2022-07-13T18:42:51.000Z</Time>
            <Position>
              <LatitudeDegrees>43.46604290418326854705810546875</LatitudeDegrees>
              <LongitudeDegrees>-3.90739322640001773834228515625</LongitudeDegrees>
            </Position>
            <AltitudeMeters>52.799999237060546875</AltitudeMeters>
            <DistanceMeters>NAN</DistanceMeters>
          </Trackpoint>
          <Trackpoint>
            <Time>2022-07-13T18:42:54.000Z</Time>
            <Position>
              <LatitudeDegrees>43.46609671600162982940673828125</LatitudeDegrees>
              <LongitudeDegrees>-3.90743195079267024993896484375</LongitudeDegrees>
            </Position>
            <AltitudeMeters>53</AltitudeMeters>
            <DistanceMeters>NAN</DistanceMeters>
          </Trackpoint>
          <Trackpoint>
            <Time>2022-07-13T18:42:58.000Z</Time>
            <Position>
              <LatitudeDegrees>43.46616678871214389801025390625</LatitudeDegrees>
              <LongitudeDegrees>-3.90748928301036357879638671875</LongitudeDegrees>
            </Position>
            <AltitudeMeters>53.59999847412109375</AltitudeMeters>
            <DistanceMeters>NAN</DistanceMeters>
          </Trackpoint>
          <Trackpoint>
            <Time>2022-07-13T18:42:59.000Z</Time>
            <Position>
              <LatitudeDegrees>43.46618070267140865325927734375</LatitudeDegrees>
              <LongitudeDegrees>-3.90750135295093059539794921875</LongitudeDegrees>
            </Position>
            <AltitudeMeters>53.59999847412109375</AltitudeMeters>
            <DistanceMeters>NAN</DistanceMeters>
          </Trackpoint>
          <Trackpoint>
            <Time>2022-07-13T18:43:02.000Z</Time>
            <Position>
              <LatitudeDegrees>43.4662198461592197418212890625</LatitudeDegrees>
              <LongitudeDegrees>-3.90752096660435199737548828125</LongitudeDegrees>
            </Position>
            <AltitudeMeters>53.799999237060546875</AltitudeMeters>
            <DistanceMeters>NAN</DistanceMeters>
          </Trackpoint>
          <Trackpoint>
            <Time>2022-07-13T18:43:03.000Z</Time>
            <Position>
              <LatitudeDegrees>43.46623267047107219696044921875</LatitudeDegrees>
              <LongitudeDegrees>-3.90753655694425106048583984375</LongitudeDegrees>
            </Position>
            <AltitudeMeters>54</AltitudeMeters>
            <DistanceMeters>NAN</DistanceMeters>
          </Trackpoint>
          <Trackpoint>
            <Time>2022-07-13T18:43:11.000Z</Time>
            <Position>
              <LatitudeDegrees>43.46636828966438770294189453125</LatitudeDegrees>
              <LongitudeDegrees>-3.907614089548587799072265625</LongitudeDegrees>
            </Position>
            <AltitudeMeters>55</AltitudeMeters>
            <DistanceMeters>NAN</DistanceMeters>
          </Trackpoint>
          <Trackpoint>
            <Time>2022-07-13T18:43:12.000Z</Time>
            <Position>
              <LatitudeDegrees>43.466384969651699066162109375</LatitudeDegrees>
              <LongitudeDegrees>-3.90762004069983959197998046875</LongitudeDegrees>
            </Position>
            <AltitudeMeters>55</AltitudeMeters>
            <DistanceMeters>NAN</DistanceMeters>
          </Trackpoint>
          <Trackpoint>
            <Time>2022-07-13T18:43:22.000Z</Time>
            <Position>
              <LatitudeDegrees>43.466542549431324005126953125</LatitudeDegrees>
              <LongitudeDegrees>-3.9077071286737918853759765625</LongitudeDegrees>
            </Position>
            <AltitudeMeters>56</AltitudeMeters>
            <DistanceMeters>NAN</DistanceMeters>
          </Trackpoint>
          <Trackpoint>
            <Time>2022-07-13T18:43:23.000Z</Time>
            <Position>
              <LatitudeDegrees>43.46656040288507938385009765625</LatitudeDegrees>
              <LongitudeDegrees>-3.907719366252422332763671875</LongitudeDegrees>
            </Position>
            <AltitudeMeters>56</AltitudeMeters>
            <DistanceMeters>NAN</DistanceMeters>
          </Trackpoint>
          <Trackpoint>
            <Time>2022-07-13T18:43:28.000Z</Time>
            <Position>
              <LatitudeDegrees>43.46663986332714557647705078125</LatitudeDegrees>
              <LongitudeDegrees>-3.907791785895824432373046875</LongitudeDegrees>
            </Position>
            <AltitudeMeters>56.59999847412109375</AltitudeMeters>
            <DistanceMeters>NAN</DistanceMeters>
          </Trackpoint>
          <Trackpoint>
            <Time>2022-07-13T18:43:35.000Z</Time>
            <Position>
              <LatitudeDegrees>43.4667365066707134246826171875</LatitudeDegrees>
              <LongitudeDegrees>-3.9078925363719463348388671875</LongitudeDegrees>
            </Position>
            <AltitudeMeters>57</AltitudeMeters>
            <DistanceMeters>NAN</DistanceMeters>
          </Trackpoint>
          <Trackpoint>
            <Time>2022-07-13T18:43:37.000Z</Time>
            <Position>
              <LatitudeDegrees>43.46675788052380084991455078125</LatitudeDegrees>
              <LongitudeDegrees>-3.90792447142302989959716796875</LongitudeDegrees>
            </Position>
            <AltitudeMeters>57.200000762939453125</AltitudeMeters>
            <DistanceMeters>NAN</DistanceMeters>
          </Trackpoint>
          <Trackpoint>
            <Time>2022-07-13T18:43:43.000Z</Time>
            <Position>
              <LatitudeDegrees>43.4668266959488391876220703125</LatitudeDegrees>
              <LongitudeDegrees>-3.90801046974956989288330078125</LongitudeDegrees>
            </Position>
            <AltitudeMeters>58</AltitudeMeters>
            <DistanceMeters>NAN</DistanceMeters>
          </Trackpoint>
          <Trackpoint>
            <Time>2022-07-13T18:43:44.000Z</Time>
            <Position>
              <LatitudeDegrees>43.46683817915618419647216796875</LatitudeDegrees>
              <LongitudeDegrees>-3.90802270732820034027099609375</LongitudeDegrees>
            </Position>
            <AltitudeMeters>58.40000152587890625</AltitudeMeters>
            <DistanceMeters>NAN</DistanceMeters>
          </Trackpoint>
          <Trackpoint>
            <Time>2022-07-13T18:43:49.000Z</Time>
            <Position>
              <LatitudeDegrees>43.46688159741461277008056640625</LatitudeDegrees>
              <LongitudeDegrees>-3.908080793917179107666015625</LongitudeDegrees>
            </Position>
            <AltitudeMeters>59.200000762939453125</AltitudeMeters>
            <DistanceMeters>NAN</DistanceMeters>
          </Trackpoint>
          <Trackpoint>
            <Time>2022-07-13T18:43:51.000Z</Time>
            <Position>
              <LatitudeDegrees>43.46690489910542964935302734375</LatitudeDegrees>
              <LongitudeDegrees>-3.90809856355190277099609375</LongitudeDegrees>
            </Position>
            <AltitudeMeters>59.59999847412109375</AltitudeMeters>
            <DistanceMeters>NAN</DistanceMeters>
          </Trackpoint>
          <Trackpoint>
            <Time>2022-07-13T18:43:55.000Z</Time>
            <Position>
              <LatitudeDegrees>43.46695301122963428497314453125</LatitudeDegrees>
              <LongitudeDegrees>-3.908130414783954620361328125</LongitudeDegrees>
            </Position>
            <AltitudeMeters>60.40000152587890625</AltitudeMeters>
            <DistanceMeters>NAN</DistanceMeters>
          </Trackpoint>
          <Trackpoint>
            <Time>2022-07-13T18:43:57.000Z</Time>
            <Position>
              <LatitudeDegrees>43.46697513945400714874267578125</LatitudeDegrees>
              <LongitudeDegrees>-3.9081488549709320068359375</LongitudeDegrees>
            </Position>
            <AltitudeMeters>61</AltitudeMeters>
            <DistanceMeters>NAN</DistanceMeters>
          </Trackpoint>
          <Trackpoint>
            <Time>2022-07-13T18:44:00.000Z</Time>
            <Position>
              <LatitudeDegrees>43.46701352857053279876708984375</LatitudeDegrees>
              <LongitudeDegrees>-3.90818833373486995697021484375</LongitudeDegrees>
            </Position>
            <AltitudeMeters>61.59999847412109375</AltitudeMeters>
            <DistanceMeters>NAN</DistanceMeters>
          </Trackpoint>
          <Trackpoint>
            <Time>2022-07-13T18:44:01.000Z</Time>
            <Position>
              <LatitudeDegrees>43.46702794544398784637451171875</LatitudeDegrees>
              <LongitudeDegrees>-3.9081942848861217498779296875</LongitudeDegrees>
            </Position>
            <AltitudeMeters>61.799999237060546875</AltitudeMeters>
            <DistanceMeters>NAN</DistanceMeters>
          </Trackpoint>
          <Trackpoint>
            <Time>2022-07-13T18:44:02.000Z</Time>
            <Position>
              <LatitudeDegrees>43.4670379199087619781494140625</LatitudeDegrees>
              <LongitudeDegrees>-3.90820224769413471221923828125</LongitudeDegrees>
            </Position>
            <AltitudeMeters>62</AltitudeMeters>
            <DistanceMeters>NAN</DistanceMeters>
          </Trackpoint>
          <Trackpoint>
            <Time>2022-07-13T18:44:07.000Z</Time>
            <Position>
              <LatitudeDegrees>43.46710614860057830810546875</LatitudeDegrees>
              <LongitudeDegrees>-3.90824415720999240875244140625</LongitudeDegrees>
            </Position>
            <AltitudeMeters>63</AltitudeMeters>
            <DistanceMeters>NAN</DistanceMeters>
          </Trackpoint>
          <Trackpoint>
            <Time>2022-07-13T18:44:10.000Z</Time>
            <Position>
              <LatitudeDegrees>43.46714235842227935791015625</LatitudeDegrees>
              <LongitudeDegrees>-3.9082717336714267730712890625</LongitudeDegrees>
            </Position>
            <AltitudeMeters>63.59999847412109375</AltitudeMeters>
            <DistanceMeters>NAN</DistanceMeters>
          </Trackpoint>
          <Trackpoint>
            <Time>2022-07-13T18:44:13.000Z</Time>
            <Position>
              <LatitudeDegrees>43.46718267537653446197509765625</LatitudeDegrees>
              <LongitudeDegrees>-3.90829428099095821380615234375</LongitudeDegrees>
            </Position>
            <AltitudeMeters>64</AltitudeMeters>
            <DistanceMeters>NAN</DistanceMeters>
          </Trackpoint>
          <Trackpoint>
            <Time>2022-07-13T18:44:18.000Z</Time>
            <Position>
              <LatitudeDegrees>43.46724017523229122161865234375</LatitudeDegrees>
              <LongitudeDegrees>-3.9083404652774333953857421875</LongitudeDegrees>
            </Position>
            <AltitudeMeters>65</AltitudeMeters>
            <DistanceMeters>NAN</DistanceMeters>
          </Trackpoint>
          <Trackpoint>
            <Time>2022-07-13T18:44:19.000Z</Time>
            <Position>
              <LatitudeDegrees>43.46725140698254108428955078125</LatitudeDegrees>
              <LongitudeDegrees>-3.90835194848477840423583984375</LongitudeDegrees>
            </Position>
            <AltitudeMeters>65.1999969482421875</AltitudeMeters>
            <DistanceMeters>NAN</DistanceMeters>
          </Trackpoint>
          <Trackpoint>
            <Time>2022-07-13T18:44:20.000Z</Time>
            <Position>
              <LatitudeDegrees>43.4672669135034084320068359375</LatitudeDegrees>
              <LongitudeDegrees>-3.90835731290280818939208984375</LongitudeDegrees>
            </Position>
            <AltitudeMeters>65.59999847412109375</AltitudeMeters>
            <DistanceMeters>NAN</DistanceMeters>
          </Trackpoint>
          <Trackpoint>
            <Time>2022-07-13T18:44:22.000Z</Time>
            <Position>
              <LatitudeDegrees>43.46729415468871593475341796875</LatitudeDegrees>
              <LongitudeDegrees>-3.90836753882467746734619140625</LongitudeDegrees>
            </Position>
            <AltitudeMeters>66</AltitudeMeters>
            <DistanceMeters>NAN</DistanceMeters>
          </Trackpoint>
          <Trackpoint>
            <Time>2022-07-13T18:44:23.000Z</Time>
            <Position>
              <LatitudeDegrees>43.46730404533445835113525390625</LatitudeDegrees>
              <LongitudeDegrees>-3.9083746634423732757568359375</LongitudeDegrees>
            </Position>
            <AltitudeMeters>66.1999969482421875</AltitudeMeters>
            <DistanceMeters>NAN</DistanceMeters>
          </Trackpoint>
          <Trackpoint>
            <Time>2022-07-13T18:44:24.000Z</Time>
            <Position>
              <LatitudeDegrees>43.4673118405044078826904296875</LatitudeDegrees>
              <LongitudeDegrees>-3.9083795249462127685546875</LongitudeDegrees>
            </Position>
            <AltitudeMeters>66.59999847412109375</AltitudeMeters>
            <DistanceMeters>NAN</DistanceMeters>
          </Trackpoint>
          <Trackpoint>
            <Time>2022-07-13T18:44:25.000Z</Time>
            <Position>
              <LatitudeDegrees>43.46731611527502536773681640625</LatitudeDegrees>
              <LongitudeDegrees>-3.908387236297130584716796875</LongitudeDegrees>
            </Position>
            <AltitudeMeters>66.8000030517578125</AltitudeMeters>
            <DistanceMeters>NAN</DistanceMeters>
          </Trackpoint>
          <Trackpoint>
            <Time>2022-07-13T18:44:29.000Z</Time>
            <Position>
              <LatitudeDegrees>43.46733757294714450836181640625</LatitudeDegrees>
              <LongitudeDegrees>-3.90846602618694305419921875</LongitudeDegrees>
            </Position>
            <AltitudeMeters>67.1999969482421875</AltitudeMeters>
            <DistanceMeters>NAN</DistanceMeters>
          </Trackpoint>
          <Trackpoint>
            <Time>2022-07-13T18:44:33.000Z</Time>
            <Position>
              <LatitudeDegrees>43.46734913997352123260498046875</LatitudeDegrees>
              <LongitudeDegrees>-3.90853618271648883819580078125</LongitudeDegrees>
            </Position>
            <AltitudeMeters>68.1999969482421875</AltitudeMeters>
            <DistanceMeters>NAN</DistanceMeters>
          </Trackpoint>
          <Trackpoint>
            <Time>2022-07-13T18:44:34.000Z</Time>
            <Position>
              <LatitudeDegrees>43.4673514030873775482177734375</LatitudeDegrees>
              <LongitudeDegrees>-3.90855311416089534759521484375</LongitudeDegrees>
            </Position>
            <AltitudeMeters>68.40000152587890625</AltitudeMeters>
            <DistanceMeters>NAN</DistanceMeters>
          </Trackpoint>
          <Trackpoint>
            <Time>2022-07-13T18:44:39.000Z</Time>
            <Position>
              <LatitudeDegrees>43.4673597849905490875244140625</LatitudeDegrees>
              <LongitudeDegrees>-3.9086328260600566864013671875</LongitudeDegrees>
            </Position>
            <AltitudeMeters>69.40000152587890625</AltitudeMeters>
            <DistanceMeters>NAN</DistanceMeters>
          </Trackpoint>
          <Trackpoint>
            <Time>2022-07-13T18:44:40.000Z</Time>
            <Position>
              <LatitudeDegrees>43.46736070699989795684814453125</LatitudeDegrees>
              <LongitudeDegrees>-3.9086485840380191802978515625</LongitudeDegrees>
            </Position>
            <AltitudeMeters>69.59999847412109375</AltitudeMeters>
            <DistanceMeters>NAN</DistanceMeters>
          </Trackpoint>
          <Trackpoint>
            <Time>2022-07-13T18:44:45.000Z</Time>
            <Position>
              <LatitudeDegrees>43.4673500619828701019287109375</LatitudeDegrees>
              <LongitudeDegrees>-3.90873156487941741943359375</LongitudeDegrees>
            </Position>
            <AltitudeMeters>70.59999847412109375</AltitudeMeters>
            <DistanceMeters>NAN</DistanceMeters>
          </Trackpoint>
          <Trackpoint>
            <Time>2022-07-13T18:44:48.000Z</Time>
            <Position>
              <LatitudeDegrees>43.4673373214900493621826171875</LatitudeDegrees>
              <LongitudeDegrees>-3.908784873783588409423828125</LongitudeDegrees>
            </Position>
            <AltitudeMeters>71.1999969482421875</AltitudeMeters>
            <DistanceMeters>NAN</DistanceMeters>
          </Trackpoint>
          <Trackpoint>
            <Time>2022-07-13T18:44:51.000Z</Time>
            <Position>
              <LatitudeDegrees>43.46731661818921566009521484375</LatitudeDegrees>
              <LongitudeDegrees>-3.90883223153650760650634765625</LongitudeDegrees>
            </Position>
            <AltitudeMeters>71.8000030517578125</AltitudeMeters>
            <DistanceMeters>NAN</DistanceMeters>
          </Trackpoint>
          <Trackpoint>
            <Time>2022-07-13T18:44:55.000Z</Time>
            <Position>
              <LatitudeDegrees>43.467302620410919189453125</LatitudeDegrees>
              <LongitudeDegrees>-3.90890683047473430633544921875</LongitudeDegrees>
            </Position>
            <AltitudeMeters>72.59999847412109375</AltitudeMeters>
            <DistanceMeters>NAN</DistanceMeters>
          </Trackpoint>
          <Trackpoint>
            <Time>2022-07-13T18:44:57.000Z</Time>
            <Position>
              <LatitudeDegrees>43.46729180775582790374755859375</LatitudeDegrees>
              <LongitudeDegrees>-3.90894002281129360198974609375</LongitudeDegrees>
            </Position>
            <AltitudeMeters>73</AltitudeMeters>
            <DistanceMeters>NAN</DistanceMeters>
          </Trackpoint>
          <Trackpoint>
            <Time>2022-07-13T18:45:02.000Z</Time>
            <Position>
              <LatitudeDegrees>43.46728728152811527252197265625</LatitudeDegrees>
              <LongitudeDegrees>-3.90902434475719928741455078125</LongitudeDegrees>
            </Position>
            <AltitudeMeters>73.8000030517578125</AltitudeMeters>
            <DistanceMeters>NAN</DistanceMeters>
          </Trackpoint>
          <Trackpoint>
            <Time>2022-07-13T18:45:03.000Z</Time>
            <Position>
              <LatitudeDegrees>43.4672927297651767730712890625</LatitudeDegrees>
              <LongitudeDegrees>-3.9090418629348278045654296875</LongitudeDegrees>
            </Position>
            <AltitudeMeters>74</AltitudeMeters>
            <DistanceMeters>NAN</DistanceMeters>
          </Trackpoint>
          <Trackpoint>
            <Time>2022-07-13T18:45:07.000Z</Time>
            <Position>
              <LatitudeDegrees>43.467307649552822113037109375</LatitudeDegrees>
              <LongitudeDegrees>-3.90909902751445770263671875</LongitudeDegrees>
            </Position>
            <AltitudeMeters>74.59999847412109375</AltitudeMeters>
            <DistanceMeters>NAN</DistanceMeters>
          </Trackpoint>
          <Trackpoint>
            <Time>2022-07-13T18:45:09.000Z</Time>
            <Position>
              <LatitudeDegrees>43.46731670200824737548828125</LatitudeDegrees>
              <LongitudeDegrees>-3.9091300405561923980712890625</LongitudeDegrees>
            </Position>
            <AltitudeMeters>75.1999969482421875</AltitudeMeters>
            <DistanceMeters>NAN</DistanceMeters>
          </Trackpoint>
          <Trackpoint>
            <Time>2022-07-13T18:45:14.000Z</Time>
            <Position>
              <LatitudeDegrees>43.467349223792552947998046875</LatitudeDegrees>
              <LongitudeDegrees>-3.90920120291411876678466796875</LongitudeDegrees>
            </Position>
            <AltitudeMeters>76.1999969482421875</AltitudeMeters>
            <DistanceMeters>NAN</DistanceMeters>
          </Trackpoint>
          <Trackpoint>
            <Time>2022-07-13T18:45:16.000Z</Time>
            <Position>
              <LatitudeDegrees>43.4673631377518177032470703125</LatitudeDegrees>
              <LongitudeDegrees>-3.90923045575618743896484375</LongitudeDegrees>
            </Position>
            <AltitudeMeters>76.59999847412109375</AltitudeMeters>
            <DistanceMeters>NAN</DistanceMeters>
          </Trackpoint>
          <Trackpoint>
            <Time>2022-07-13T18:45:20.000Z</Time>
            <Position>
              <LatitudeDegrees>43.467390127480030059814453125</LatitudeDegrees>
              <LongitudeDegrees>-3.90929080545902252197265625</LongitudeDegrees>
            </Position>
            <AltitudeMeters>77.59999847412109375</AltitudeMeters>
            <DistanceMeters>NAN</DistanceMeters>
          </Trackpoint>
          <Trackpoint>
            <Time>2022-07-13T18:45:24.000Z</Time>
            <Position>
              <LatitudeDegrees>43.46740295179188251495361328125</LatitudeDegrees>
              <LongitudeDegrees>-3.90935744158923625946044921875</LongitudeDegrees>
            </Position>
            <AltitudeMeters>78.40000152587890625</AltitudeMeters>
            <DistanceMeters>NAN</DistanceMeters>
          </Trackpoint>
          <Trackpoint>
            <Time>2022-07-13T18:45:25.000Z</Time>
            <Position>
              <LatitudeDegrees>43.467410914599895477294921875</LatitudeDegrees>
              <LongitudeDegrees>-3.90937286429107189178466796875</LongitudeDegrees>
            </Position>
            <AltitudeMeters>78.8000030517578125</AltitudeMeters>
            <DistanceMeters>NAN</DistanceMeters>
          </Trackpoint>
          <Trackpoint>
            <Time>2022-07-13T18:45:30.000Z</Time>
            <Position>
              <LatitudeDegrees>43.46742575056850910186767578125</LatitudeDegrees>
              <LongitudeDegrees>-3.9094596169888973236083984375</LongitudeDegrees>
            </Position>
            <AltitudeMeters>79.59999847412109375</AltitudeMeters>
            <DistanceMeters>NAN</DistanceMeters>
          </Trackpoint>
          <Trackpoint>
            <Time>2022-07-13T18:45:33.000Z</Time>
            <Position>
              <LatitudeDegrees>43.46743027679622173309326171875</LatitudeDegrees>
              <LongitudeDegrees>-3.9095199666917324066162109375</LongitudeDegrees>
            </Position>
            <AltitudeMeters>79.8000030517578125</AltitudeMeters>
            <DistanceMeters>NAN</DistanceMeters>
          </Trackpoint>
          <Trackpoint>
            <Time>2022-07-13T18:45:35.000Z</Time>
            <Position>
              <LatitudeDegrees>43.46743279136717319488525390625</LatitudeDegrees>
              <LongitudeDegrees>-3.90955366194248199462890625</LongitudeDegrees>
            </Position>
            <AltitudeMeters>80</AltitudeMeters>
            <DistanceMeters>NAN</DistanceMeters>
          </Trackpoint>
          <Trackpoint>
            <Time>2022-07-13T18:45:37.000Z</Time>
            <Position>
              <LatitudeDegrees>43.46742667257785797119140625</LatitudeDegrees>
              <LongitudeDegrees>-3.90959096141159534454345703125</LongitudeDegrees>
            </Position>
            <AltitudeMeters>80</AltitudeMeters>
            <DistanceMeters>NAN</DistanceMeters>
          </Trackpoint>
          <Trackpoint>
            <Time>2022-07-13T18:45:41.000Z</Time>
            <Position>
              <LatitudeDegrees>43.4674094058573246002197265625</LatitudeDegrees>
              <LongitudeDegrees>-3.90967109240591526031494140625</LongitudeDegrees>
            </Position>
            <AltitudeMeters>80.40000152587890625</AltitudeMeters>
            <DistanceMeters>NAN</DistanceMeters>
          </Trackpoint>
          <Trackpoint>
            <Time>2022-07-13T18:45:44.000Z</Time>
            <Position>
              <LatitudeDegrees>43.4673963300883769989013671875</LatitudeDegrees>
              <LongitudeDegrees>-3.9097152650356292724609375</LongitudeDegrees>
            </Position>
            <AltitudeMeters>80.8000030517578125</AltitudeMeters>
            <DistanceMeters>NAN</DistanceMeters>
          </Trackpoint>
          <Trackpoint>
            <Time>2022-07-13T18:45:45.000Z</Time>
            <Position>
              <LatitudeDegrees>43.4673844277858734130859375</LatitudeDegrees>
              <LongitudeDegrees>-3.90973596833646297454833984375</LongitudeDegrees>
            </Position>
            <AltitudeMeters>81</AltitudeMeters>
            <DistanceMeters>NAN</DistanceMeters>
          </Trackpoint>
          <Trackpoint>
            <Time>2022-07-13T18:45:52.000Z</Time>
            <Position>
              <LatitudeDegrees>43.46733455546200275421142578125</LatitudeDegrees>
              <LongitudeDegrees>-3.90985163860023021697998046875</LongitudeDegrees>
            </Position>
            <AltitudeMeters>81.59999847412109375</AltitudeMeters>
            <DistanceMeters>NAN</DistanceMeters>
          </Trackpoint>
          <Trackpoint>
            <Time>2022-07-13T18:45:56.000Z</Time>
            <Position>
              <LatitudeDegrees>43.46730597317218780517578125</LatitudeDegrees>
              <LongitudeDegrees>-3.90992456115782260894775390625</LongitudeDegrees>
            </Position>
            <AltitudeMeters>82</AltitudeMeters>
            <DistanceMeters>NAN</DistanceMeters>
          </Trackpoint>
          <Trackpoint>
            <Time>2022-07-13T18:46:02.000Z</Time>
            <Position>
              <LatitudeDegrees>43.46726817078888416290283203125</LatitudeDegrees>
              <LongitudeDegrees>-3.91003780066967010498046875</LongitudeDegrees>
            </Position>
            <AltitudeMeters>82.40000152587890625</AltitudeMeters>
            <DistanceMeters>NAN</DistanceMeters>
          </Trackpoint>
          <Trackpoint>
            <Time>2022-07-13T18:46:08.000Z</Time>
            <Position>
              <LatitudeDegrees>43.4672441147267818450927734375</LatitudeDegrees>
              <LongitudeDegrees>-3.91015472821891307830810546875</LongitudeDegrees>
            </Position>
            <AltitudeMeters>83</AltitudeMeters>
            <DistanceMeters>NAN</DistanceMeters>
          </Trackpoint>
          <Trackpoint>
            <Time>2022-07-13T18:46:11.000Z</Time>
            <Position>
              <LatitudeDegrees>43.46723916940391063690185546875</LatitudeDegrees>
              <LongitudeDegrees>-3.91020812094211578369140625</LongitudeDegrees>
            </Position>
            <AltitudeMeters>83.1999969482421875</AltitudeMeters>
            <DistanceMeters>NAN</DistanceMeters>
          </Trackpoint>
          <Trackpoint>
            <Time>2022-07-13T18:46:17.000Z</Time>
            <Position>
              <LatitudeDegrees>43.467241264879703521728515625</LatitudeDegrees>
              <LongitudeDegrees>-3.9103172533214092254638671875</LongitudeDegrees>
            </Position>
            <AltitudeMeters>84</AltitudeMeters>
            <DistanceMeters>NAN</DistanceMeters>
          </Trackpoint>
          <Trackpoint>
            <Time>2022-07-13T18:46:21.000Z</Time>
            <Position>
              <LatitudeDegrees>43.467232882976531982421875</LatitudeDegrees>
              <LongitudeDegrees>-3.9103911817073822021484375</LongitudeDegrees>
            </Position>
            <AltitudeMeters>85.1999969482421875</AltitudeMeters>
            <DistanceMeters>NAN</DistanceMeters>
          </Trackpoint>
          <Trackpoint>
            <Time>2022-07-13T18:46:22.000Z</Time>
            <Position>
              <LatitudeDegrees>43.46723129041492938995361328125</LatitudeDegrees>
              <LongitudeDegrees>-3.9104114659130573272705078125</LongitudeDegrees>
            </Position>
            <AltitudeMeters>85.40000152587890625</AltitudeMeters>
            <DistanceMeters>NAN</DistanceMeters>
          </Trackpoint>
          <Trackpoint>
            <Time>2022-07-13T18:46:28.000Z</Time>
            <Position>
              <LatitudeDegrees>43.46722953021526336669921875</LatitudeDegrees>
              <LongitudeDegrees>-3.9105251245200634002685546875</LongitudeDegrees>
            </Position>
            <AltitudeMeters>86</AltitudeMeters>
            <DistanceMeters>NAN</DistanceMeters>
          </Trackpoint>
          <Trackpoint>
            <Time>2022-07-13T18:46:30.000Z</Time>
            <Position>
              <LatitudeDegrees>43.46723346970975399017333984375</LatitudeDegrees>
              <LongitudeDegrees>-3.910554461181163787841796875</LongitudeDegrees>
            </Position>
            <AltitudeMeters>86.40000152587890625</AltitudeMeters>
            <DistanceMeters>NAN</DistanceMeters>
          </Trackpoint>
          <Trackpoint>
            <Time>2022-07-13T18:46:35.000Z</Time>
            <Position>
              <LatitudeDegrees>43.4672276861965656280517578125</LatitudeDegrees>
              <LongitudeDegrees>-3.910638280212879180908203125</LongitudeDegrees>
            </Position>
            <AltitudeMeters>87.8000030517578125</AltitudeMeters>
            <DistanceMeters>NAN</DistanceMeters>
          </Trackpoint>
          <Trackpoint>
            <Time>2022-07-13T18:46:38.000Z</Time>
            <Position>
              <LatitudeDegrees>43.46722374670207500457763671875</LatitudeDegrees>
              <LongitudeDegrees>-3.91068823635578155517578125</LongitudeDegrees>
            </Position>
            <AltitudeMeters>88.8000030517578125</AltitudeMeters>
            <DistanceMeters>NAN</DistanceMeters>
          </Trackpoint>
          <Trackpoint>
            <Time>2022-07-13T18:46:39.000Z</Time>
            <Position>
              <LatitudeDegrees>43.46722274087369441986083984375</LatitudeDegrees>
              <LongitudeDegrees>-3.91070558689534664154052734375</LongitudeDegrees>
            </Position>
            <AltitudeMeters>89</AltitudeMeters>
            <DistanceMeters>NAN</DistanceMeters>
          </Trackpoint>
          <Trackpoint>
            <Time>2022-07-13T18:46:42.000Z</Time>
            <Position>
              <LatitudeDegrees>43.46722575835883617401123046875</LatitudeDegrees>
              <LongitudeDegrees>-3.91075990162789821624755859375</LongitudeDegrees>
            </Position>
            <AltitudeMeters>89.59999847412109375</AltitudeMeters>
            <DistanceMeters>NAN</DistanceMeters>
          </Trackpoint>
          <Trackpoint>
            <Time>2022-07-13T18:46:44.000Z</Time>
            <Position>
              <LatitudeDegrees>43.4672307036817073822021484375</LatitudeDegrees>
              <LongitudeDegrees>-3.91079091466963291168212890625</LongitudeDegrees>
            </Position>
            <AltitudeMeters>90</AltitudeMeters>
            <DistanceMeters>NAN</DistanceMeters>
          </Trackpoint>
          <Trackpoint>
            <Time>2022-07-13T18:46:47.000Z</Time>
            <Position>
              <LatitudeDegrees>43.46723313443362712860107421875</LatitudeDegrees>
              <LongitudeDegrees>-3.91084522940218448638916015625</LongitudeDegrees>
            </Position>
            <AltitudeMeters>90.8000030517578125</AltitudeMeters>
            <DistanceMeters>NAN</DistanceMeters>
          </Trackpoint>
          <Trackpoint>
            <Time>2022-07-13T18:46:49.000Z</Time>
            <Position>
              <LatitudeDegrees>43.46723849885165691375732421875</LatitudeDegrees>
              <LongitudeDegrees>-3.9108835346996784210205078125</LongitudeDegrees>
            </Position>
            <AltitudeMeters>91.1999969482421875</AltitudeMeters>
            <DistanceMeters>NAN</DistanceMeters>
          </Trackpoint>
          <Trackpoint>
            <Time>2022-07-13T18:46:54.000Z</Time>
            <Position>
              <LatitudeDegrees>43.46725777722895145416259765625</LatitudeDegrees>
              <LongitudeDegrees>-3.910967521369457244873046875</LongitudeDegrees>
            </Position>
            <AltitudeMeters>92.1999969482421875</AltitudeMeters>
            <DistanceMeters>NAN</DistanceMeters>
          </Trackpoint>
          <Trackpoint>
            <Time>2022-07-13T18:46:55.000Z</Time>
            <Position>
              <LatitudeDegrees>43.4672615490853786468505859375</LatitudeDegrees>
              <LongitudeDegrees>-3.91098805703222751617431640625</LongitudeDegrees>
            </Position>
            <AltitudeMeters>92.40000152587890625</AltitudeMeters>
            <DistanceMeters>NAN</DistanceMeters>
          </Trackpoint>
          <Trackpoint>
            <Time>2022-07-13T18:47:01.000Z</Time>
            <Position>
              <LatitudeDegrees>43.4672856889665126800537109375</LatitudeDegrees>
              <LongitudeDegrees>-3.91109718941152095794677734375</LongitudeDegrees>
            </Position>
            <AltitudeMeters>93.40000152587890625</AltitudeMeters>
            <DistanceMeters>NAN</DistanceMeters>
          </Trackpoint>
          <Trackpoint>
            <Time>2022-07-13T18:47:04.000Z</Time>
            <Position>
              <LatitudeDegrees>43.46729599870741367340087890625</LatitudeDegrees>
              <LongitudeDegrees>-3.91115385107696056365966796875</LongitudeDegrees>
            </Position>
            <AltitudeMeters>94</AltitudeMeters>
            <DistanceMeters>NAN</DistanceMeters>
          </Trackpoint>
          <Trackpoint>
            <Time>2022-07-13T18:47:08.000Z</Time>
            <Position>
              <LatitudeDegrees>43.4673208929598331451416015625</LatitudeDegrees>
              <LongitudeDegrees>-3.91121889464557170867919921875</LongitudeDegrees>
            </Position>
            <AltitudeMeters>94.59999847412109375</AltitudeMeters>
            <DistanceMeters>NAN</DistanceMeters>
          </Trackpoint>
          <Trackpoint>
            <Time>2022-07-13T18:47:11.000Z</Time>
            <Position>
              <LatitudeDegrees>43.4673440270125865936279296875</LatitudeDegrees>
              <LongitudeDegrees>-3.91127069480717182159423828125</LongitudeDegrees>
            </Position>
            <AltitudeMeters>95.1999969482421875</AltitudeMeters>
            <DistanceMeters>NAN</DistanceMeters>
          </Trackpoint>
          <Trackpoint>
            <Time>2022-07-13T18:47:13.000Z</Time>
            <Position>
              <LatitudeDegrees>43.467354588210582733154296875</LatitudeDegrees>
              <LongitudeDegrees>-3.911304809153079986572265625</LongitudeDegrees>
            </Position>
            <AltitudeMeters>95.59999847412109375</AltitudeMeters>
            <DistanceMeters>NAN</DistanceMeters>
          </Trackpoint>
          <Trackpoint>
            <Time>2022-07-13T18:47:18.000Z</Time>
            <Position>
              <LatitudeDegrees>43.46737034618854522705078125</LatitudeDegrees>
              <LongitudeDegrees>-3.9113864488899707794189453125</LongitudeDegrees>
            </Position>
            <AltitudeMeters>96.40000152587890625</AltitudeMeters>
            <DistanceMeters>NAN</DistanceMeters>
          </Trackpoint>
          <Trackpoint>
            <Time>2022-07-13T18:47:19.000Z</Time>
            <Position>
              <LatitudeDegrees>43.46737571060657501220703125</LatitudeDegrees>
              <LongitudeDegrees>-3.911403380334377288818359375</LongitudeDegrees>
            </Position>
            <AltitudeMeters>96.59999847412109375</AltitudeMeters>
            <DistanceMeters>NAN</DistanceMeters>
          </Trackpoint>
          <Trackpoint>
            <Time>2022-07-13T18:47:20.000Z</Time>
            <Position>
              <LatitudeDegrees>43.4673859365284442901611328125</LatitudeDegrees>
              <LongitudeDegrees>-3.911423496901988983154296875</LongitudeDegrees>
            </Position>
            <AltitudeMeters>96.8000030517578125</AltitudeMeters>
            <DistanceMeters>NAN</DistanceMeters>
          </Trackpoint>
          <Trackpoint>
            <Time>2022-07-13T18:47:22.000Z</Time>
            <Position>
              <LatitudeDegrees>43.467401526868343353271484375</LatitudeDegrees>
              <LongitudeDegrees>-3.911450318992137908935546875</LongitudeDegrees>
            </Position>
            <AltitudeMeters>97</AltitudeMeters>
            <DistanceMeters>NAN</DistanceMeters>
          </Trackpoint>
          <Trackpoint>
            <Time>2022-07-13T18:47:25.000Z</Time>
            <Position>
              <LatitudeDegrees>43.46742105670273303985595703125</LatitudeDegrees>
              <LongitudeDegrees>-3.91149692237377166748046875</LongitudeDegrees>
            </Position>
            <AltitudeMeters>97.1999969482421875</AltitudeMeters>
            <DistanceMeters>NAN</DistanceMeters>
          </Trackpoint>
          <Trackpoint>
            <Time>2022-07-13T18:47:26.000Z</Time>
            <Position>
              <LatitudeDegrees>43.46743128262460231781005859375</LatitudeDegrees>
              <LongitudeDegrees>-3.9115162007510662078857421875</LongitudeDegrees>
            </Position>
            <AltitudeMeters>97.1999969482421875</AltitudeMeters>
            <DistanceMeters>NAN</DistanceMeters>
          </Trackpoint>
          <Trackpoint>
            <Time>2022-07-13T18:47:29.000Z</Time>
            <Position>
              <LatitudeDegrees>43.46744871698319911956787109375</LatitudeDegrees>
              <LongitudeDegrees>-3.91156489960849285125732421875</LongitudeDegrees>
            </Position>
            <AltitudeMeters>97.8000030517578125</AltitudeMeters>
            <DistanceMeters>NAN</DistanceMeters>
          </Trackpoint>
          <Trackpoint>
            <Time>2022-07-13T18:47:31.000Z</Time>
            <Position>
              <LatitudeDegrees>43.46747319214046001434326171875</LatitudeDegrees>
              <LongitudeDegrees>-3.91159188933670520782470703125</LongitudeDegrees>
            </Position>
            <AltitudeMeters>98</AltitudeMeters>
            <DistanceMeters>NAN</DistanceMeters>
          </Trackpoint>
          <Trackpoint>
            <Time>2022-07-13T18:47:33.000Z</Time>
            <Position>
              <LatitudeDegrees>43.46750621683895587921142578125</LatitudeDegrees>
              <LongitudeDegrees>-3.91160982660949230194091796875</LongitudeDegrees>
            </Position>
            <AltitudeMeters>98</AltitudeMeters>
            <DistanceMeters>NAN</DistanceMeters>
          </Trackpoint>
          <Trackpoint>
            <Time>2022-07-13T18:47:40.000Z</Time>
            <Position>
              <LatitudeDegrees>43.46757612191140651702880859375</LatitudeDegrees>
              <LongitudeDegrees>-3.91170655377209186553955078125</LongitudeDegrees>
            </Position>
            <AltitudeMeters>98.8000030517578125</AltitudeMeters>
            <DistanceMeters>NAN</DistanceMeters>
          </Trackpoint>
          <Trackpoint>
            <Time>2022-07-13T18:47:42.000Z</Time>
            <Position>
              <LatitudeDegrees>43.4675881080329418182373046875</LatitudeDegrees>
              <LongitudeDegrees>-3.9117321185767650604248046875</LongitudeDegrees>
            </Position>
            <AltitudeMeters>98.8000030517578125</AltitudeMeters>
            <DistanceMeters>NAN</DistanceMeters>
          </Trackpoint>
          <Trackpoint>
            <Time>2022-07-13T18:47:43.000Z</Time>
            <Position>
              <LatitudeDegrees>43.467593975365161895751953125</LatitudeDegrees>
              <LongitudeDegrees>-3.91175047494471073150634765625</LongitudeDegrees>
            </Position>
            <AltitudeMeters>99</AltitudeMeters>
            <DistanceMeters>NAN</DistanceMeters>
          </Trackpoint>
          <Trackpoint>
            <Time>2022-07-13T18:47:45.000Z</Time>
            <Position>
              <LatitudeDegrees>43.4676095657050609588623046875</LatitudeDegrees>
              <LongitudeDegrees>-3.91178299672901630401611328125</LongitudeDegrees>
            </Position>
            <AltitudeMeters>99</AltitudeMeters>
            <DistanceMeters>NAN</DistanceMeters>
          </Trackpoint>
          <Trackpoint>
            <Time>2022-07-13T18:47:46.000Z</Time>
            <Position>
              <LatitudeDegrees>43.4676119126379489898681640625</LatitudeDegrees>
              <LongitudeDegrees>-3.91179489903151988983154296875</LongitudeDegrees>
            </Position>
            <AltitudeMeters>98.8000030517578125</AltitudeMeters>
            <DistanceMeters>NAN</DistanceMeters>
          </Trackpoint>
          <Trackpoint>
            <Time>2022-07-13T18:47:48.000Z</Time>
            <Position>
              <LatitudeDegrees>43.4676001779735088348388671875</LatitudeDegrees>
              <LongitudeDegrees>-3.91181878745555877685546875</LongitudeDegrees>
            </Position>
            <AltitudeMeters>98.8000030517578125</AltitudeMeters>
            <DistanceMeters>NAN</DistanceMeters>
          </Trackpoint>
          <Trackpoint>
            <Time>2022-07-13T18:47:56.000Z</Time>
            <Position>
              <LatitudeDegrees>43.46747118048369884490966796875</LatitudeDegrees>
              <LongitudeDegrees>-3.91193906776607036590576171875</LongitudeDegrees>
            </Position>
            <AltitudeMeters>98.40000152587890625</AltitudeMeters>
            <DistanceMeters>NAN</DistanceMeters>
          </Trackpoint>
          <Trackpoint>
            <Time>2022-07-13T18:48:00.000Z</Time>
            <Position>
              <LatitudeDegrees>43.46745139919221401214599609375</LatitudeDegrees>
              <LongitudeDegrees>-3.911972008645534515380859375</LongitudeDegrees>
            </Position>
            <AltitudeMeters>98.8000030517578125</AltitudeMeters>
            <DistanceMeters>NAN</DistanceMeters>
          </Trackpoint>
          <Trackpoint>
            <Time>2022-07-13T18:49:13.000Z</Time>
            <Position>
              <LatitudeDegrees>43.4674342162907123565673828125</LatitudeDegrees>
              <LongitudeDegrees>-3.9120181091129779815673828125</LongitudeDegrees>
            </Position>
            <AltitudeMeters>98.8000030517578125</AltitudeMeters>
            <DistanceMeters>NAN</DistanceMeters>
          </Trackpoint>
          <Trackpoint>
            <Time>2022-07-13T18:49:14.000Z</Time>
            <Position>
              <LatitudeDegrees>43.467427007853984832763671875</LatitudeDegrees>
              <LongitudeDegrees>-3.91205088235437870025634765625</LongitudeDegrees>
            </Position>
            <AltitudeMeters>98.8000030517578125</AltitudeMeters>
            <DistanceMeters>NAN</DistanceMeters>
          </Trackpoint>
          <Trackpoint>
            <Time>2022-07-13T18:49:15.000Z</Time>
            <Position>
              <LatitudeDegrees>43.46741803921759128570556640625</LatitudeDegrees>
              <LongitudeDegrees>-3.9120821468532085418701171875</LongitudeDegrees>
            </Position>
            <AltitudeMeters>98.8000030517578125</AltitudeMeters>
            <DistanceMeters>NAN</DistanceMeters>
          </Trackpoint>
          <Trackpoint>
            <Time>2022-07-13T18:49:22.000Z</Time>
            <Position>
              <LatitudeDegrees>43.467368669807910919189453125</LatitudeDegrees>
              <LongitudeDegrees>-3.91228490509092807769775390625</LongitudeDegrees>
            </Position>
            <AltitudeMeters>97.8000030517578125</AltitudeMeters>
            <DistanceMeters>NAN</DistanceMeters>
          </Trackpoint>
          <Trackpoint>
            <Time>2022-07-13T18:49:30.000Z</Time>
            <Position>
              <LatitudeDegrees>43.46729700453579425811767578125</LatitudeDegrees>
              <LongitudeDegrees>-3.91250400803983211517333984375</LongitudeDegrees>
            </Position>
            <AltitudeMeters>98.1999969482421875</AltitudeMeters>
            <DistanceMeters>NAN</DistanceMeters>
          </Trackpoint>
          <Trackpoint>
            <Time>2022-07-13T18:49:35.000Z</Time>
            <Position>
              <LatitudeDegrees>43.46723087131977081298828125</LatitudeDegrees>
              <LongitudeDegrees>-3.91265655867755413055419921875</LongitudeDegrees>
            </Position>
            <AltitudeMeters>97.8000030517578125</AltitudeMeters>
            <DistanceMeters>NAN</DistanceMeters>
          </Trackpoint>
          <Trackpoint>
            <Time>2022-07-13T18:49:39.000Z</Time>
            <Position>
              <LatitudeDegrees>43.46717999316751956939697265625</LatitudeDegrees>
              <LongitudeDegrees>-3.91275026835501194000244140625</LongitudeDegrees>
            </Position>
            <AltitudeMeters>97.8000030517578125</AltitudeMeters>
            <DistanceMeters>NAN</DistanceMeters>
          </Trackpoint>
          <Trackpoint>
            <Time>2022-07-13T18:49:49.000Z</Time>
            <Position>
              <LatitudeDegrees>43.46706801094114780426025390625</LatitudeDegrees>
              <LongitudeDegrees>-3.912995941936969757080078125</LongitudeDegrees>
            </Position>
            <AltitudeMeters>97.1999969482421875</AltitudeMeters>
            <DistanceMeters>NAN</DistanceMeters>
          </Trackpoint>
          <Trackpoint>
            <Time>2022-07-13T18:49:55.000Z</Time>
            <Position>
              <LatitudeDegrees>43.46699626184999942779541015625</LatitudeDegrees>
              <LongitudeDegrees>-3.91310666687786579132080078125</LongitudeDegrees>
            </Position>
            <AltitudeMeters>97.1999969482421875</AltitudeMeters>
            <DistanceMeters>NAN</DistanceMeters>
          </Trackpoint>
          <Trackpoint>
            <Time>2022-07-13T18:49:56.000Z</Time>
            <Position>
              <LatitudeDegrees>43.46698318608105182647705078125</LatitudeDegrees>
              <LongitudeDegrees>-3.91312527470290660858154296875</LongitudeDegrees>
            </Position>
            <AltitudeMeters>97.1999969482421875</AltitudeMeters>
            <DistanceMeters>NAN</DistanceMeters>
          </Trackpoint>
          <Trackpoint>
            <Time>2022-07-13T18:49:57.000Z</Time>
            <Position>
              <LatitudeDegrees>43.4669792465865612030029296875</LatitudeDegrees>
              <LongitudeDegrees>-3.913141787052154541015625</LongitudeDegrees>
            </Position>
            <AltitudeMeters>97.1999969482421875</AltitudeMeters>
            <DistanceMeters>NAN</DistanceMeters>
          </Trackpoint>
          <Trackpoint>
            <Time>2022-07-13T18:49:58.000Z</Time>
            <Position>
              <LatitudeDegrees>43.46698385663330554962158203125</LatitudeDegrees>
              <LongitudeDegrees>-3.9131577126681804656982421875</LongitudeDegrees>
            </Position>
            <AltitudeMeters>97.1999969482421875</AltitudeMeters>
            <DistanceMeters>NAN</DistanceMeters>
          </Trackpoint>
          <Trackpoint>
            <Time>2022-07-13T18:50:00.000Z</Time>
            <Position>
              <LatitudeDegrees>43.467006571590900421142578125</LatitudeDegrees>
              <LongitudeDegrees>-3.9131845347583293914794921875</LongitudeDegrees>
            </Position>
            <AltitudeMeters>97.1999969482421875</AltitudeMeters>
            <DistanceMeters>NAN</DistanceMeters>
          </Trackpoint>
          <Trackpoint>
            <Time>2022-07-13T18:50:03.000Z</Time>
            <Position>
              <LatitudeDegrees>43.4670523367822170257568359375</LatitudeDegrees>
              <LongitudeDegrees>-3.91327966935932636260986328125</LongitudeDegrees>
            </Position>
            <AltitudeMeters>96.8000030517578125</AltitudeMeters>
            <DistanceMeters>NAN</DistanceMeters>
          </Trackpoint>
          <Trackpoint>
            <Time>2022-07-13T18:50:05.000Z</Time>
            <Position>
              <LatitudeDegrees>43.46708058379590511322021484375</LatitudeDegrees>
              <LongitudeDegrees>-3.9133401028811931610107421875</LongitudeDegrees>
            </Position>
            <AltitudeMeters>96.8000030517578125</AltitudeMeters>
            <DistanceMeters>NAN</DistanceMeters>
          </Trackpoint>
          <Trackpoint>
            <Time>2022-07-13T18:50:07.000Z</Time>
            <Position>
              <LatitudeDegrees>43.4671170450747013092041015625</LatitudeDegrees>
              <LongitudeDegrees>-3.9134193956851959228515625</LongitudeDegrees>
            </Position>
            <AltitudeMeters>96.8000030517578125</AltitudeMeters>
            <DistanceMeters>NAN</DistanceMeters>
          </Trackpoint>
          <Trackpoint>
            <Time>2022-07-13T18:50:11.000Z</Time>
            <Position>
              <LatitudeDegrees>43.4671834297478199005126953125</LatitudeDegrees>
              <LongitudeDegrees>-3.9135794900357723236083984375</LongitudeDegrees>
            </Position>
            <AltitudeMeters>96.40000152587890625</AltitudeMeters>
            <DistanceMeters>NAN</DistanceMeters>
          </Trackpoint>
          <Trackpoint>
            <Time>2022-07-13T18:50:12.000Z</Time>
            <Position>
              <LatitudeDegrees>43.46720547415316104888916015625</LatitudeDegrees>
              <LongitudeDegrees>-3.91363539732992649078369140625</LongitudeDegrees>
            </Position>
            <AltitudeMeters>96.1999969482421875</AltitudeMeters>
            <DistanceMeters>NAN</DistanceMeters>
          </Trackpoint>
          <Trackpoint>
            <Time>2022-07-13T18:50:18.000Z</Time>
            <Position>
              <LatitudeDegrees>43.4673346392810344696044921875</LatitudeDegrees>
              <LongitudeDegrees>-3.91390546225011348724365234375</LongitudeDegrees>
            </Position>
            <AltitudeMeters>96</AltitudeMeters>
            <DistanceMeters>NAN</DistanceMeters>
          </Trackpoint>
          <Trackpoint>
            <Time>2022-07-13T18:50:19.000Z</Time>
            <Position>
              <LatitudeDegrees>43.46735718660056591033935546875</LatitudeDegrees>
              <LongitudeDegrees>-3.91393781639635562896728515625</LongitudeDegrees>
            </Position>
            <AltitudeMeters>96</AltitudeMeters>
            <DistanceMeters>NAN</DistanceMeters>
          </Trackpoint>
          <Trackpoint>
            <Time>2022-07-13T18:50:23.000Z</Time>
            <Position>
              <LatitudeDegrees>43.467386104166507720947265625</LatitudeDegrees>
              <LongitudeDegrees>-3.914019204676151275634765625</LongitudeDegrees>
            </Position>
            <AltitudeMeters>96</AltitudeMeters>
            <DistanceMeters>NAN</DistanceMeters>
          </Trackpoint>
          <Trackpoint>
            <Time>2022-07-13T18:50:26.000Z</Time>
            <Position>
              <LatitudeDegrees>43.46738618798553943634033203125</LatitudeDegrees>
              <LongitudeDegrees>-3.91402582637965679168701171875</LongitudeDegrees>
            </Position>
            <AltitudeMeters>96.1999969482421875</AltitudeMeters>
            <DistanceMeters>NAN</DistanceMeters>
          </Trackpoint>
          <Trackpoint>
            <Time>2022-07-13T18:50:43.000Z</Time>
            <Position>
              <LatitudeDegrees>43.4673748724162578582763671875</LatitudeDegrees>
              <LongitudeDegrees>-3.91392842866480350494384765625</LongitudeDegrees>
            </Position>
            <AltitudeMeters>95.59999847412109375</AltitudeMeters>
            <DistanceMeters>NAN</DistanceMeters>
          </Trackpoint>
          <Trackpoint>
            <Time>2022-07-13T18:50:44.000Z</Time>
            <Position>
              <LatitudeDegrees>43.467390798032283782958984375</LatitudeDegrees>
              <LongitudeDegrees>-3.9139043726027011871337890625</LongitudeDegrees>
            </Position>
            <AltitudeMeters>95.59999847412109375</AltitudeMeters>
            <DistanceMeters>NAN</DistanceMeters>
          </Trackpoint>
          <Trackpoint>
            <Time>2022-07-13T18:50:47.000Z</Time>
            <Position>
              <LatitudeDegrees>43.46746833063662052154541015625</LatitudeDegrees>
              <LongitudeDegrees>-3.91385718248784542083740234375</LongitudeDegrees>
            </Position>
            <AltitudeMeters>95.40000152587890625</AltitudeMeters>
            <DistanceMeters>NAN</DistanceMeters>
          </Trackpoint>
          <Trackpoint>
            <Time>2022-07-13T18:50:51.000Z</Time>
            <Position>
              <LatitudeDegrees>43.46762255765497684478759765625</LatitudeDegrees>
              <LongitudeDegrees>-3.913821391761302947998046875</LongitudeDegrees>
            </Position>
            <AltitudeMeters>94.59999847412109375</AltitudeMeters>
            <DistanceMeters>NAN</DistanceMeters>
          </Trackpoint>
          <Trackpoint>
            <Time>2022-07-13T18:50:52.000Z</Time>
            <Position>
              <LatitudeDegrees>43.467656672000885009765625</LatitudeDegrees>
              <LongitudeDegrees>-3.913814015686511993408203125</LongitudeDegrees>
            </Position>
            <AltitudeMeters>94.59999847412109375</AltitudeMeters>
            <DistanceMeters>NAN</DistanceMeters>
          </Trackpoint>
          <Trackpoint>
            <Time>2022-07-13T18:51:00.000Z</Time>
            <Position>
              <LatitudeDegrees>43.46791424788534641265869140625</LatitudeDegrees>
              <LongitudeDegrees>-3.9137752912938594818115234375</LongitudeDegrees>
            </Position>
            <AltitudeMeters>93.8000030517578125</AltitudeMeters>
            <DistanceMeters>NAN</DistanceMeters>
          </Trackpoint>
          <Trackpoint>
            <Time>2022-07-13T18:51:02.000Z</Time>
            <Position>
              <LatitudeDegrees>43.46797962673008441925048828125</LatitudeDegrees>
              <LongitudeDegrees>-3.9137675799429416656494140625</LongitudeDegrees>
            </Position>
            <AltitudeMeters>93.40000152587890625</AltitudeMeters>
            <DistanceMeters>NAN</DistanceMeters>
          </Trackpoint>
          <Trackpoint>
            <Time>2022-07-13T18:51:09.000Z</Time>
            <Position>
              <LatitudeDegrees>43.46823611296713352203369140625</LatitudeDegrees>
              <LongitudeDegrees>-3.91370764933526515960693359375</LongitudeDegrees>
            </Position>
            <AltitudeMeters>92.40000152587890625</AltitudeMeters>
            <DistanceMeters>NAN</DistanceMeters>
          </Trackpoint>
          <Trackpoint>
            <Time>2022-07-13T18:51:10.000Z</Time>
            <Position>
              <LatitudeDegrees>43.4682740829885005950927734375</LatitudeDegrees>
              <LongitudeDegrees>-3.91371150501072406768798828125</LongitudeDegrees>
            </Position>
            <AltitudeMeters>92.40000152587890625</AltitudeMeters>
            <DistanceMeters>NAN</DistanceMeters>
          </Trackpoint>
          <Trackpoint>
            <Time>2022-07-13T18:51:14.000Z</Time>
            <Position>
              <LatitudeDegrees>43.4683897532522678375244140625</LatitudeDegrees>
              <LongitudeDegrees>-3.91376850195229053497314453125</LongitudeDegrees>
            </Position>
            <AltitudeMeters>91.40000152587890625</AltitudeMeters>
            <DistanceMeters>NAN</DistanceMeters>
          </Trackpoint>
          <Trackpoint>
            <Time>2022-07-13T18:51:19.000Z</Time>
            <Position>
              <LatitudeDegrees>43.4685057587921619415283203125</LatitudeDegrees>
              <LongitudeDegrees>-3.91379498876631259918212890625</LongitudeDegrees>
            </Position>
            <AltitudeMeters>90.59999847412109375</AltitudeMeters>
            <DistanceMeters>NAN</DistanceMeters>
          </Trackpoint>
          <Trackpoint>
            <Time>2022-07-13T18:51:20.000Z</Time>
            <Position>
              <LatitudeDegrees>43.4685117937624454498291015625</LatitudeDegrees>
              <LongitudeDegrees>-3.9138094894587993621826171875</LongitudeDegrees>
            </Position>
            <AltitudeMeters>90.1999969482421875</AltitudeMeters>
            <DistanceMeters>NAN</DistanceMeters>
          </Trackpoint>
          <Trackpoint>
            <Time>2022-07-13T18:51:24.000Z</Time>
            <Position>
              <LatitudeDegrees>43.468557558953762054443359375</LatitudeDegrees>
              <LongitudeDegrees>-3.9138901233673095703125</LongitudeDegrees>
            </Position>
            <AltitudeMeters>90</AltitudeMeters>
            <DistanceMeters>NAN</DistanceMeters>
          </Trackpoint>
          <Trackpoint>
            <Time>2022-07-13T18:51:30.000Z</Time>
            <Position>
              <LatitudeDegrees>43.46870952285826206207275390625</LatitudeDegrees>
              <LongitudeDegrees>-3.91405767761170864105224609375</LongitudeDegrees>
            </Position>
            <AltitudeMeters>89.59999847412109375</AltitudeMeters>
            <DistanceMeters>NAN</DistanceMeters>
          </Trackpoint>
          <Trackpoint>
            <Time>2022-07-13T18:51:33.000Z</Time>
            <Position>
              <LatitudeDegrees>43.4688122011721134185791015625</LatitudeDegrees>
              <LongitudeDegrees>-3.91417351551353931427001953125</LongitudeDegrees>
            </Position>
            <AltitudeMeters>89.1999969482421875</AltitudeMeters>
            <DistanceMeters>NAN</DistanceMeters>
          </Trackpoint>
          <Trackpoint>
            <Time>2022-07-13T18:51:34.000Z</Time>
            <Position>
              <LatitudeDegrees>43.46884866245090961456298828125</LatitudeDegrees>
              <LongitudeDegrees>-3.91422162763774394989013671875</LongitudeDegrees>
            </Position>
            <AltitudeMeters>89.1999969482421875</AltitudeMeters>
            <DistanceMeters>NAN</DistanceMeters>
          </Trackpoint>
          <Trackpoint>
            <Time>2022-07-13T18:51:36.000Z</Time>
            <Position>
              <LatitudeDegrees>43.4689240157604217529296875</LatitudeDegrees>
              <LongitudeDegrees>-3.91431181691586971282958984375</LongitudeDegrees>
            </Position>
            <AltitudeMeters>89</AltitudeMeters>
            <DistanceMeters>NAN</DistanceMeters>
          </Trackpoint>
          <Trackpoint>
            <Time>2022-07-13T18:51:39.000Z</Time>
            <Position>
              <LatitudeDegrees>43.46902585588395595550537109375</LatitudeDegrees>
              <LongitudeDegrees>-3.9144307561218738555908203125</LongitudeDegrees>
            </Position>
            <AltitudeMeters>88</AltitudeMeters>
            <DistanceMeters>NAN</DistanceMeters>
          </Trackpoint>
          <Trackpoint>
            <Time>2022-07-13T18:51:40.000Z</Time>
            <Position>
              <LatitudeDegrees>43.4690505824983119964599609375</LatitudeDegrees>
              <LongitudeDegrees>-3.91446688212454319000244140625</LongitudeDegrees>
            </Position>
            <AltitudeMeters>87.8000030517578125</AltitudeMeters>
            <DistanceMeters>NAN</DistanceMeters>
          </Trackpoint>
          <Trackpoint>
            <Time>2022-07-13T18:51:41.000Z</Time>
            <Position>
              <LatitudeDegrees>43.46907497383654117584228515625</LatitudeDegrees>
              <LongitudeDegrees>-3.9144976437091827392578125</LongitudeDegrees>
            </Position>
            <AltitudeMeters>87.59999847412109375</AltitudeMeters>
            <DistanceMeters>NAN</DistanceMeters>
          </Trackpoint>
          <Trackpoint>
            <Time>2022-07-13T18:51:42.000Z</Time>
            <Position>
              <LatitudeDegrees>43.46909902989864349365234375</LatitudeDegrees>
              <LongitudeDegrees>-3.91452237032353878021240234375</LongitudeDegrees>
            </Position>
            <AltitudeMeters>87.40000152587890625</AltitudeMeters>
            <DistanceMeters>NAN</DistanceMeters>
          </Trackpoint>
          <Trackpoint>
            <Time>2022-07-13T18:51:44.000Z</Time>
            <Position>
              <LatitudeDegrees>43.46912828274071216583251953125</LatitudeDegrees>
              <LongitudeDegrees>-3.91455656848847866058349609375</LongitudeDegrees>
            </Position>
            <AltitudeMeters>86.8000030517578125</AltitudeMeters>
            <DistanceMeters>NAN</DistanceMeters>
          </Trackpoint>
          <Trackpoint>
            <Time>2022-07-13T18:51:45.000Z</Time>
            <Position>
              <LatitudeDegrees>43.4691347368061542510986328125</LatitudeDegrees>
              <LongitudeDegrees>-3.9145729131996631622314453125</LongitudeDegrees>
            </Position>
            <AltitudeMeters>86.59999847412109375</AltitudeMeters>
            <DistanceMeters>NAN</DistanceMeters>
          </Trackpoint>
          <Trackpoint>
            <Time>2022-07-13T18:51:46.000Z</Time>
            <Position>
              <LatitudeDegrees>43.4691344015300273895263671875</LatitudeDegrees>
              <LongitudeDegrees>-3.91459579579532146453857421875</LongitudeDegrees>
            </Position>
            <AltitudeMeters>86.40000152587890625</AltitudeMeters>
            <DistanceMeters>NAN</DistanceMeters>
          </Trackpoint>
          <Trackpoint>
            <Time>2022-07-13T18:51:47.000Z</Time>
            <Position>
              <LatitudeDegrees>43.4691417776048183441162109375</LatitudeDegrees>
              <LongitudeDegrees>-3.914618007838726043701171875</LongitudeDegrees>
            </Position>
            <AltitudeMeters>86.40000152587890625</AltitudeMeters>
            <DistanceMeters>NAN</DistanceMeters>
          </Trackpoint>
          <Trackpoint>
            <Time>2022-07-13T18:51:50.000Z</Time>
            <Position>
              <LatitudeDegrees>43.4691773168742656707763671875</LatitudeDegrees>
              <LongitudeDegrees>-3.91464021988213062286376953125</LongitudeDegrees>
            </Position>
            <AltitudeMeters>86</AltitudeMeters>
            <DistanceMeters>NAN</DistanceMeters>
          </Trackpoint>
          <Trackpoint>
            <Time>2022-07-13T18:51:51.000Z</Time>
            <Position>
              <LatitudeDegrees>43.4691867046058177947998046875</LatitudeDegrees>
              <LongitudeDegrees>-3.91463669948279857635498046875</LongitudeDegrees>
            </Position>
            <AltitudeMeters>86</AltitudeMeters>
            <DistanceMeters>NAN</DistanceMeters>
          </Trackpoint>
          <Trackpoint>
            <Time>2022-07-13T18:51:55.000Z</Time>
            <Position>
              <LatitudeDegrees>43.469178490340709686279296875</LatitudeDegrees>
              <LongitudeDegrees>-3.914598561823368072509765625</LongitudeDegrees>
            </Position>
            <AltitudeMeters>86</AltitudeMeters>
            <DistanceMeters>NAN</DistanceMeters>
          </Trackpoint>
          <Trackpoint>
            <Time>2022-07-13T18:51:59.000Z</Time>
            <Position>
              <LatitudeDegrees>43.469143621623516082763671875</LatitudeDegrees>
              <LongitudeDegrees>-3.9145719073712825775146484375</LongitudeDegrees>
            </Position>
            <AltitudeMeters>86</AltitudeMeters>
            <DistanceMeters>NAN</DistanceMeters>
          </Trackpoint>
          <Trackpoint>
            <Time>2022-07-13T18:52:01.000Z</Time>
            <Position>
              <LatitudeDegrees>43.4691367484629154205322265625</LatitudeDegrees>
              <LongitudeDegrees>-3.9145970530807971954345703125</LongitudeDegrees>
            </Position>
            <AltitudeMeters>86.1999969482421875</AltitudeMeters>
            <DistanceMeters>NAN</DistanceMeters>
          </Trackpoint>
          <Trackpoint>
            <Time>2022-07-13T18:52:05.000Z</Time>
            <Position>
              <LatitudeDegrees>43.46922350116074085235595703125</LatitudeDegrees>
              <LongitudeDegrees>-3.9146889187395572662353515625</LongitudeDegrees>
            </Position>
            <AltitudeMeters>86</AltitudeMeters>
            <DistanceMeters>NAN</DistanceMeters>
          </Trackpoint>
          <Trackpoint>
            <Time>2022-07-13T18:52:08.000Z</Time>
            <Position>
              <LatitudeDegrees>43.4693147800862789154052734375</LatitudeDegrees>
              <LongitudeDegrees>-3.9147827960550785064697265625</LongitudeDegrees>
            </Position>
            <AltitudeMeters>85.59999847412109375</AltitudeMeters>
            <DistanceMeters>NAN</DistanceMeters>
          </Trackpoint>
          <Trackpoint>
            <Time>2022-07-13T18:52:11.000Z</Time>
            <Position>
              <LatitudeDegrees>43.46943673677742481231689453125</LatitudeDegrees>
              <LongitudeDegrees>-3.91492134891450405120849609375</LongitudeDegrees>
            </Position>
            <AltitudeMeters>85</AltitudeMeters>
            <DistanceMeters>NAN</DistanceMeters>
          </Trackpoint>
          <Trackpoint>
            <Time>2022-07-13T18:52:13.000Z</Time>
            <Position>
              <LatitudeDegrees>43.46952374093234539031982421875</LatitudeDegrees>
              <LongitudeDegrees>-3.91502561978995800018310546875</LongitudeDegrees>
            </Position>
            <AltitudeMeters>84.59999847412109375</AltitudeMeters>
            <DistanceMeters>NAN</DistanceMeters>
          </Trackpoint>
          <Trackpoint>
            <Time>2022-07-13T18:52:17.000Z</Time>
            <Position>
              <LatitudeDegrees>43.4697328694164752960205078125</LatitudeDegrees>
              <LongitudeDegrees>-3.91523902304470539093017578125</LongitudeDegrees>
            </Position>
            <AltitudeMeters>83.59999847412109375</AltitudeMeters>
            <DistanceMeters>NAN</DistanceMeters>
          </Trackpoint>
          <Trackpoint>
            <Time>2022-07-13T18:52:18.000Z</Time>
            <Position>
              <LatitudeDegrees>43.4697903692722320556640625</LatitudeDegrees>
              <LongitudeDegrees>-3.91529400832951068878173828125</LongitudeDegrees>
            </Position>
            <AltitudeMeters>83</AltitudeMeters>
            <DistanceMeters>NAN</DistanceMeters>
          </Trackpoint>
          <Trackpoint>
            <Time>2022-07-13T18:52:21.000Z</Time>
            <Position>
              <LatitudeDegrees>43.46995892934501171112060546875</LatitudeDegrees>
              <LongitudeDegrees>-3.9154590480029582977294921875</LongitudeDegrees>
            </Position>
            <AltitudeMeters>81.8000030517578125</AltitudeMeters>
            <DistanceMeters>NAN</DistanceMeters>
          </Trackpoint>
          <Trackpoint>
            <Time>2022-07-13T18:52:24.000Z</Time>
            <Position>
              <LatitudeDegrees>43.4701097197830677032470703125</LatitudeDegrees>
              <LongitudeDegrees>-3.9156240038573741912841796875</LongitudeDegrees>
            </Position>
            <AltitudeMeters>80.40000152587890625</AltitudeMeters>
            <DistanceMeters>NAN</DistanceMeters>
          </Trackpoint>
          <Trackpoint>
            <Time>2022-07-13T18:52:25.000Z</Time>
            <Position>
              <LatitudeDegrees>43.4701712429523468017578125</LatitudeDegrees>
              <LongitudeDegrees>-3.91569734551012516021728515625</LongitudeDegrees>
            </Position>
            <AltitudeMeters>80</AltitudeMeters>
            <DistanceMeters>NAN</DistanceMeters>
          </Trackpoint>
          <Trackpoint>
            <Time>2022-07-13T18:52:28.000Z</Time>
            <Position>
              <LatitudeDegrees>43.4703162498772144317626953125</LatitudeDegrees>
              <LongitudeDegrees>-3.91586632467806339263916015625</LongitudeDegrees>
            </Position>
            <AltitudeMeters>79.40000152587890625</AltitudeMeters>
            <DistanceMeters>NAN</DistanceMeters>
          </Trackpoint>
          <Trackpoint>
            <Time>2022-07-13T18:52:31.000Z</Time>
            <Position>
              <LatitudeDegrees>43.4704738296568393707275390625</LatitudeDegrees>
              <LongitudeDegrees>-3.91603731550276279449462890625</LongitudeDegrees>
            </Position>
            <AltitudeMeters>78.40000152587890625</AltitudeMeters>
            <DistanceMeters>NAN</DistanceMeters>
          </Trackpoint>
          <Trackpoint>
            <Time>2022-07-13T18:52:33.000Z</Time>
            <Position>
              <LatitudeDegrees>43.47056158818304538726806640625</LatitudeDegrees>
              <LongitudeDegrees>-3.91613270156085491180419921875</LongitudeDegrees>
            </Position>
            <AltitudeMeters>77.8000030517578125</AltitudeMeters>
            <DistanceMeters>NAN</DistanceMeters>
          </Trackpoint>
          <Trackpoint>
            <Time>2022-07-13T18:52:36.000Z</Time>
            <Position>
              <LatitudeDegrees>43.47067424096167087554931640625</LatitudeDegrees>
              <LongitudeDegrees>-3.91625926829874515533447265625</LongitudeDegrees>
            </Position>
            <AltitudeMeters>77.1999969482421875</AltitudeMeters>
            <DistanceMeters>NAN</DistanceMeters>
          </Trackpoint>
          <Trackpoint>
            <Time>2022-07-13T18:52:39.000Z</Time>
            <Position>
              <LatitudeDegrees>43.47077297978103160858154296875</LatitudeDegrees>
              <LongitudeDegrees>-3.91637460328638553619384765625</LongitudeDegrees>
            </Position>
            <AltitudeMeters>77</AltitudeMeters>
            <DistanceMeters>NAN</DistanceMeters>
          </Trackpoint>
          <Trackpoint>
            <Time>2022-07-13T18:52:44.000Z</Time>
            <Position>
              <LatitudeDegrees>43.4709083475172519683837890625</LatitudeDegrees>
              <LongitudeDegrees>-3.91653033904731273651123046875</LongitudeDegrees>
            </Position>
            <AltitudeMeters>77</AltitudeMeters>
            <DistanceMeters>NAN</DistanceMeters>
          </Trackpoint>
          <Trackpoint>
            <Time>2022-07-13T18:52:50.000Z</Time>
            <Position>
              <LatitudeDegrees>43.4710441343486309051513671875</LatitudeDegrees>
              <LongitudeDegrees>-3.916644416749477386474609375</LongitudeDegrees>
            </Position>
            <AltitudeMeters>77</AltitudeMeters>
            <DistanceMeters>NAN</DistanceMeters>
          </Trackpoint>
          <Trackpoint>
            <Time>2022-07-13T18:52:56.000Z</Time>
            <Position>
              <LatitudeDegrees>43.471190817654132843017578125</LatitudeDegrees>
              <LongitudeDegrees>-3.9167185127735137939453125</LongitudeDegrees>
            </Position>
            <AltitudeMeters>76.59999847412109375</AltitudeMeters>
            <DistanceMeters>NAN</DistanceMeters>
          </Trackpoint>
          <Trackpoint>
            <Time>2022-07-13T18:53:01.000Z</Time>
            <Position>
              <LatitudeDegrees>43.47130606882274150848388671875</LatitudeDegrees>
              <LongitudeDegrees>-3.916779197752475738525390625</LongitudeDegrees>
            </Position>
            <AltitudeMeters>76</AltitudeMeters>
            <DistanceMeters>NAN</DistanceMeters>
          </Trackpoint>
          <Trackpoint>
            <Time>2022-07-13T18:53:02.000Z</Time>
            <Position>
              <LatitudeDegrees>43.47132367081940174102783203125</LatitudeDegrees>
              <LongitudeDegrees>-3.9167931117117404937744140625</LongitudeDegrees>
            </Position>
            <AltitudeMeters>75.8000030517578125</AltitudeMeters>
            <DistanceMeters>NAN</DistanceMeters>
          </Trackpoint>
          <Trackpoint>
            <Time>2022-07-13T18:53:06.000Z</Time>
            <Position>
              <LatitudeDegrees>43.471375890076160430908203125</LatitudeDegrees>
              <LongitudeDegrees>-3.91685673035681247711181640625</LongitudeDegrees>
            </Position>
            <AltitudeMeters>75</AltitudeMeters>
            <DistanceMeters>NAN</DistanceMeters>
          </Trackpoint>
          <Trackpoint>
            <Time>2022-07-13T18:53:07.000Z</Time>
            <Position>
              <LatitudeDegrees>43.47139894030988216400146484375</LatitudeDegrees>
              <LongitudeDegrees>-3.9168554730713367462158203125</LongitudeDegrees>
            </Position>
            <AltitudeMeters>75</AltitudeMeters>
            <DistanceMeters>NAN</DistanceMeters>
          </Trackpoint>
          <Trackpoint>
            <Time>2022-07-13T18:53:09.000Z</Time>
            <Position>
              <LatitudeDegrees>43.47141771577298641204833984375</LatitudeDegrees>
              <LongitudeDegrees>-3.9168353565037250518798828125</LongitudeDegrees>
            </Position>
            <AltitudeMeters>74.59999847412109375</AltitudeMeters>
            <DistanceMeters>NAN</DistanceMeters>
          </Trackpoint>
          <Trackpoint>
            <Time>2022-07-13T18:53:11.000Z</Time>
            <Position>
              <LatitudeDegrees>43.47141771577298641204833984375</LatitudeDegrees>
              <LongitudeDegrees>-3.9168353565037250518798828125</LongitudeDegrees>
            </Position>
            <AltitudeMeters>74.1999969482421875</AltitudeMeters>
            <DistanceMeters>NAN</DistanceMeters>
          </Trackpoint>
          <Trackpoint>
            <Time>2022-07-13T18:53:21.000Z</Time>
            <Position>
              <LatitudeDegrees>43.47147085703909397125244140625</LatitudeDegrees>
              <LongitudeDegrees>-3.91686544753611087799072265625</LongitudeDegrees>
            </Position>
            <AltitudeMeters>73.59999847412109375</AltitudeMeters>
            <DistanceMeters>NAN</DistanceMeters>
          </Trackpoint>
          <Trackpoint>
            <Time>2022-07-13T18:53:27.000Z</Time>
            <Position>
              <LatitudeDegrees>43.47164905630052089691162109375</LatitudeDegrees>
              <LongitudeDegrees>-3.916941471397876739501953125</LongitudeDegrees>
            </Position>
            <AltitudeMeters>72.59999847412109375</AltitudeMeters>
            <DistanceMeters>NAN</DistanceMeters>
          </Trackpoint>
          <Trackpoint>
            <Time>2022-07-13T18:53:28.000Z</Time>
            <Position>
              <LatitudeDegrees>43.4716858528554439544677734375</LatitudeDegrees>
              <LongitudeDegrees>-3.91696368344128131866455078125</LongitudeDegrees>
            </Position>
            <AltitudeMeters>72.40000152587890625</AltitudeMeters>
            <DistanceMeters>NAN</DistanceMeters>
          </Trackpoint>
          <Trackpoint>
            <Time>2022-07-13T18:53:30.000Z</Time>
            <Position>
              <LatitudeDegrees>43.47172734327614307403564453125</LatitudeDegrees>
              <LongitudeDegrees>-3.91699586994946002960205078125</LongitudeDegrees>
            </Position>
            <AltitudeMeters>71.40000152587890625</AltitudeMeters>
            <DistanceMeters>NAN</DistanceMeters>
          </Trackpoint>
          <Trackpoint>
            <Time>2022-07-13T18:53:31.000Z</Time>
            <Position>
              <LatitudeDegrees>43.47173891030251979827880859375</LatitudeDegrees>
              <LongitudeDegrees>-3.917009532451629638671875</LongitudeDegrees>
            </Position>
            <AltitudeMeters>71.1999969482421875</AltitudeMeters>
            <DistanceMeters>NAN</DistanceMeters>
          </Trackpoint>
          <Trackpoint>
            <Time>2022-07-13T18:53:32.000Z</Time>
            <Position>
              <LatitudeDegrees>43.47175718285143375396728515625</LatitudeDegrees>
              <LongitudeDegrees>-3.91702705062925815582275390625</LongitudeDegrees>
            </Position>
            <AltitudeMeters>70.59999847412109375</AltitudeMeters>
            <DistanceMeters>NAN</DistanceMeters>
          </Trackpoint>
          <Trackpoint>
            <Time>2022-07-13T18:53:35.000Z</Time>
            <Position>
              <LatitudeDegrees>43.47184636630117893218994140625</LatitudeDegrees>
              <LongitudeDegrees>-3.917074240744113922119140625</LongitudeDegrees>
            </Position>
            <AltitudeMeters>70</AltitudeMeters>
            <DistanceMeters>NAN</DistanceMeters>
          </Trackpoint>
          <Trackpoint>
            <Time>2022-07-13T18:53:36.000Z</Time>
            <Position>
              <LatitudeDegrees>43.47187821753323078155517578125</LatitudeDegrees>
              <LongitudeDegrees>-3.91709092073142528533935546875</LongitudeDegrees>
            </Position>
            <AltitudeMeters>69.59999847412109375</AltitudeMeters>
            <DistanceMeters>NAN</DistanceMeters>
          </Trackpoint>
          <Trackpoint>
            <Time>2022-07-13T18:53:42.000Z</Time>
            <Position>
              <LatitudeDegrees>43.47214124165475368499755859375</LatitudeDegrees>
              <LongitudeDegrees>-3.91725294291973114013671875</LongitudeDegrees>
            </Position>
            <AltitudeMeters>69.1999969482421875</AltitudeMeters>
            <DistanceMeters>NAN</DistanceMeters>
          </Trackpoint>
          <Trackpoint>
            <Time>2022-07-13T18:53:44.000Z</Time>
            <Position>
              <LatitudeDegrees>43.47221852280199527740478515625</LatitudeDegrees>
              <LongitudeDegrees>-3.91730524599552154541015625</LongitudeDegrees>
            </Position>
            <AltitudeMeters>68.8000030517578125</AltitudeMeters>
            <DistanceMeters>NAN</DistanceMeters>
          </Trackpoint>
          <Trackpoint>
            <Time>2022-07-13T18:53:49.000Z</Time>
            <Position>
              <LatitudeDegrees>43.4723419882357120513916015625</LatitudeDegrees>
              <LongitudeDegrees>-3.91739350743591785430908203125</LongitudeDegrees>
            </Position>
            <AltitudeMeters>67.8000030517578125</AltitudeMeters>
            <DistanceMeters>NAN</DistanceMeters>
          </Trackpoint>
          <Trackpoint>
            <Time>2022-07-13T18:53:50.000Z</Time>
            <Position>
              <LatitudeDegrees>43.47235347144305706024169921875</LatitudeDegrees>
              <LongitudeDegrees>-3.91738931648433208465576171875</LongitudeDegrees>
            </Position>
            <AltitudeMeters>67.59999847412109375</AltitudeMeters>
            <DistanceMeters>NAN</DistanceMeters>
          </Trackpoint>
          <Trackpoint>
            <Time>2022-07-13T18:53:53.000Z</Time>
            <Position>
              <LatitudeDegrees>43.472401164472103118896484375</LatitudeDegrees>
              <LongitudeDegrees>-3.917326368391513824462890625</LongitudeDegrees>
            </Position>
            <AltitudeMeters>67.40000152587890625</AltitudeMeters>
            <DistanceMeters>NAN</DistanceMeters>
          </Trackpoint>
          <Trackpoint>
            <Time>2022-07-13T18:53:58.000Z</Time>
            <Position>
              <LatitudeDegrees>43.47242496907711029052734375</LatitudeDegrees>
              <LongitudeDegrees>-3.91727766953408718109130859375</LongitudeDegrees>
            </Position>
            <AltitudeMeters>67</AltitudeMeters>
            <DistanceMeters>NAN</DistanceMeters>
          </Trackpoint>
          <Trackpoint>
            <Time>2022-07-13T18:54:09.000Z</Time>
            <Position>
              <LatitudeDegrees>43.4724506177008152008056640625</LatitudeDegrees>
              <LongitudeDegrees>-3.9172101952135562896728515625</LongitudeDegrees>
            </Position>
            <AltitudeMeters>67</AltitudeMeters>
            <DistanceMeters>NAN</DistanceMeters>
          </Trackpoint>
          <Trackpoint>
            <Time>2022-07-13T18:54:11.000Z</Time>
            <Position>
              <LatitudeDegrees>43.4724717400968074798583984375</LatitudeDegrees>
              <LongitudeDegrees>-3.91716082580387592315673828125</LongitudeDegrees>
            </Position>
            <AltitudeMeters>67</AltitudeMeters>
            <DistanceMeters>NAN</DistanceMeters>
          </Trackpoint>
          <Trackpoint>
            <Time>2022-07-13T18:54:17.000Z</Time>
            <Position>
              <LatitudeDegrees>43.4725357778370380401611328125</LatitudeDegrees>
              <LongitudeDegrees>-3.9170241169631481170654296875</LongitudeDegrees>
            </Position>
            <AltitudeMeters>67.59999847412109375</AltitudeMeters>
            <DistanceMeters>NAN</DistanceMeters>
          </Trackpoint>
          <Trackpoint>
            <Time>2022-07-13T18:54:24.000Z</Time>
            <Position>
              <LatitudeDegrees>43.47264717333018779754638671875</LatitudeDegrees>
              <LongitudeDegrees>-3.916981704533100128173828125</LongitudeDegrees>
            </Position>
            <AltitudeMeters>67.40000152587890625</AltitudeMeters>
            <DistanceMeters>NAN</DistanceMeters>
          </Trackpoint>
          <Trackpoint>
            <Time>2022-07-13T18:54:30.000Z</Time>
            <Position>
              <LatitudeDegrees>43.47268908284604549407958984375</LatitudeDegrees>
              <LongitudeDegrees>-3.91698178835213184356689453125</LongitudeDegrees>
            </Position>
            <AltitudeMeters>66.8000030517578125</AltitudeMeters>
            <DistanceMeters>NAN</DistanceMeters>
          </Trackpoint>
          <Trackpoint>
            <Time>2022-07-13T19:13:06.000Z</Time>
            <Position>
              <LatitudeDegrees>43.4729136340320110321044921875</LatitudeDegrees>
              <LongitudeDegrees>-3.9172336645424365997314453125</LongitudeDegrees>
            </Position>
            <AltitudeMeters>56</AltitudeMeters>
            <DistanceMeters>NAN</DistanceMeters>
          </Trackpoint>
          <Trackpoint>
            <Time>2022-07-13T19:13:07.000Z</Time>
            <Position>
              <LatitudeDegrees>43.4728978760540485382080078125</LatitudeDegrees>
              <LongitudeDegrees>-3.91723793931305408477783203125</LongitudeDegrees>
            </Position>
            <AltitudeMeters>56.40000152587890625</AltitudeMeters>
            <DistanceMeters>NAN</DistanceMeters>
          </Trackpoint>
          <Trackpoint>
            <Time>2022-07-13T19:13:08.000Z</Time>
            <Position>
              <LatitudeDegrees>43.47288186661899089813232421875</LatitudeDegrees>
              <LongitudeDegrees>-3.91723961569368839263916015625</LongitudeDegrees>
            </Position>
            <AltitudeMeters>56.799999237060546875</AltitudeMeters>
            <DistanceMeters>NAN</DistanceMeters>
          </Trackpoint>
          <Trackpoint>
            <Time>2022-07-13T19:13:09.000Z</Time>
            <Position>
              <LatitudeDegrees>43.47287113778293132781982421875</LatitudeDegrees>
              <LongitudeDegrees>-3.917234838008880615234375</LongitudeDegrees>
            </Position>
            <AltitudeMeters>57.200000762939453125</AltitudeMeters>
            <DistanceMeters>NAN</DistanceMeters>
          </Trackpoint>
          <Trackpoint>
            <Time>2022-07-13T19:13:12.000Z</Time>
            <Position>
              <LatitudeDegrees>43.47283828072249889373779296875</LatitudeDegrees>
              <LongitudeDegrees>-3.91719938255846500396728515625</LongitudeDegrees>
            </Position>
            <AltitudeMeters>58.40000152587890625</AltitudeMeters>
            <DistanceMeters>NAN</DistanceMeters>
          </Trackpoint>
          <Trackpoint>
            <Time>2022-07-13T19:13:14.000Z</Time>
            <Position>
              <LatitudeDegrees>43.4728298150002956390380859375</LatitudeDegrees>
              <LongitudeDegrees>-3.91717306338250637054443359375</LongitudeDegrees>
            </Position>
            <AltitudeMeters>59.200000762939453125</AltitudeMeters>
            <DistanceMeters>NAN</DistanceMeters>
          </Trackpoint>
          <Trackpoint>
            <Time>2022-07-13T19:13:16.000Z</Time>
            <Position>
              <LatitudeDegrees>43.47281925380229949951171875</LatitudeDegrees>
              <LongitudeDegrees>-3.9171471633017063140869140625</LongitudeDegrees>
            </Position>
            <AltitudeMeters>59.59999847412109375</AltitudeMeters>
            <DistanceMeters>NAN</DistanceMeters>
          </Trackpoint>
          <Trackpoint>
            <Time>2022-07-13T19:13:19.000Z</Time>
            <Position>
              <LatitudeDegrees>43.47279737703502178192138671875</LatitudeDegrees>
              <LongitudeDegrees>-3.91712394542992115020751953125</LongitudeDegrees>
            </Position>
            <AltitudeMeters>60.200000762939453125</AltitudeMeters>
            <DistanceMeters>NAN</DistanceMeters>
          </Trackpoint>
          <Trackpoint>
            <Time>2022-07-13T19:13:21.000Z</Time>
            <Position>
              <LatitudeDegrees>43.47278145141899585723876953125</LatitudeDegrees>
              <LongitudeDegrees>-3.91711723990738391876220703125</LongitudeDegrees>
            </Position>
            <AltitudeMeters>60.59999847412109375</AltitudeMeters>
            <DistanceMeters>NAN</DistanceMeters>
          </Trackpoint>
          <Trackpoint>
            <Time>2022-07-13T19:13:25.000Z</Time>
            <Position>
              <LatitudeDegrees>43.47277097404003143310546875</LatitudeDegrees>
              <LongitudeDegrees>-3.9171109534800052642822265625</LongitudeDegrees>
            </Position>
            <AltitudeMeters>61.200000762939453125</AltitudeMeters>
            <DistanceMeters>NAN</DistanceMeters>
          </Trackpoint>
          <Trackpoint>
            <Time>2022-07-13T19:15:29.000Z</Time>
            <Position>
              <LatitudeDegrees>43.4726625122129917144775390625</LatitudeDegrees>
              <LongitudeDegrees>-3.91704775393009185791015625</LongitudeDegrees>
            </Position>
            <AltitudeMeters>63.40000152587890625</AltitudeMeters>
            <DistanceMeters>NAN</DistanceMeters>
          </Trackpoint>
          <Trackpoint>
            <Time>2022-07-13T19:15:30.000Z</Time>
            <Position>
              <LatitudeDegrees>43.47264616750180721282958984375</LatitudeDegrees>
              <LongitudeDegrees>-3.9170613326132297515869140625</LongitudeDegrees>
            </Position>
            <AltitudeMeters>63.40000152587890625</AltitudeMeters>
            <DistanceMeters>NAN</DistanceMeters>
          </Trackpoint>
          <Trackpoint>
            <Time>2022-07-13T19:15:37.000Z</Time>
            <Position>
              <LatitudeDegrees>43.47255832515656948089599609375</LatitudeDegrees>
              <LongitudeDegrees>-3.91718178056180477142333984375</LongitudeDegrees>
            </Position>
            <AltitudeMeters>63.59999847412109375</AltitudeMeters>
            <DistanceMeters>NAN</DistanceMeters>
          </Trackpoint>
          <Trackpoint>
            <Time>2022-07-13T19:15:41.000Z</Time>
            <Position>
              <LatitudeDegrees>43.4725076146423816680908203125</LatitudeDegrees>
              <LongitudeDegrees>-3.91724221408367156982421875</LongitudeDegrees>
            </Position>
            <AltitudeMeters>63.799999237060546875</AltitudeMeters>
            <DistanceMeters>NAN</DistanceMeters>
          </Trackpoint>
          <Trackpoint>
            <Time>2022-07-13T19:15:45.000Z</Time>
            <Position>
              <LatitudeDegrees>43.47247165627777576446533203125</LatitudeDegrees>
              <LongitudeDegrees>-3.9172925055027008056640625</LongitudeDegrees>
            </Position>
            <AltitudeMeters>63.799999237060546875</AltitudeMeters>
            <DistanceMeters>NAN</DistanceMeters>
          </Trackpoint>
          <Trackpoint>
            <Time>2022-07-13T19:15:52.000Z</Time>
            <Position>
              <LatitudeDegrees>43.472417928278446197509765625</LatitudeDegrees>
              <LongitudeDegrees>-3.917391411960124969482421875</LongitudeDegrees>
            </Position>
            <AltitudeMeters>64</AltitudeMeters>
            <DistanceMeters>NAN</DistanceMeters>
          </Trackpoint>
          <Trackpoint>
            <Time>2022-07-13T19:15:57.000Z</Time>
            <Position>
              <LatitudeDegrees>43.472375012934207916259765625</LatitudeDegrees>
              <LongitudeDegrees>-3.91752979718148708343505859375</LongitudeDegrees>
            </Position>
            <AltitudeMeters>64.1999969482421875</AltitudeMeters>
            <DistanceMeters>NAN</DistanceMeters>
          </Trackpoint>
          <Trackpoint>
            <Time>2022-07-13T19:15:58.000Z</Time>
            <Position>
              <LatitudeDegrees>43.47237593494355678558349609375</LatitudeDegrees>
              <LongitudeDegrees>-3.9175551943480968475341796875</LongitudeDegrees>
            </Position>
            <AltitudeMeters>64.1999969482421875</AltitudeMeters>
            <DistanceMeters>NAN</DistanceMeters>
          </Trackpoint>
          <Trackpoint>
            <Time>2022-07-13T19:16:00.000Z</Time>
            <Position>
              <LatitudeDegrees>43.472369648516178131103515625</LatitudeDegrees>
              <LongitudeDegrees>-3.91760892234742641448974609375</LongitudeDegrees>
            </Position>
            <AltitudeMeters>64.40000152587890625</AltitudeMeters>
            <DistanceMeters>NAN</DistanceMeters>
          </Trackpoint>
          <Trackpoint>
            <Time>2022-07-13T19:16:02.000Z</Time>
            <Position>
              <LatitudeDegrees>43.47235816530883312225341796875</LatitudeDegrees>
              <LongitudeDegrees>-3.91767329536378383636474609375</LongitudeDegrees>
            </Position>
            <AltitudeMeters>64.59999847412109375</AltitudeMeters>
            <DistanceMeters>NAN</DistanceMeters>
          </Trackpoint>
          <Trackpoint>
            <Time>2022-07-13T19:16:04.000Z</Time>
            <Position>
              <LatitudeDegrees>43.4723436646163463592529296875</LatitudeDegrees>
              <LongitudeDegrees>-3.917741440236568450927734375</LongitudeDegrees>
            </Position>
            <AltitudeMeters>64.59999847412109375</AltitudeMeters>
            <DistanceMeters>NAN</DistanceMeters>
          </Trackpoint>
          <Trackpoint>
            <Time>2022-07-13T19:16:06.000Z</Time>
            <Position>
              <LatitudeDegrees>43.47232195548713207244873046875</LatitudeDegrees>
              <LongitudeDegrees>-3.917809836566448211669921875</LongitudeDegrees>
            </Position>
            <AltitudeMeters>64.8000030517578125</AltitudeMeters>
            <DistanceMeters>NAN</DistanceMeters>
          </Trackpoint>
          <Trackpoint>
            <Time>2022-07-13T19:16:13.000Z</Time>
            <Position>
              <LatitudeDegrees>43.47225406207144260406494140625</LatitudeDegrees>
              <LongitudeDegrees>-3.91804419457912445068359375</LongitudeDegrees>
            </Position>
            <AltitudeMeters>65</AltitudeMeters>
            <DistanceMeters>NAN</DistanceMeters>
          </Trackpoint>
          <Trackpoint>
            <Time>2022-07-13T19:16:19.000Z</Time>
            <Position>
              <LatitudeDegrees>43.47219354473054409027099609375</LatitudeDegrees>
              <LongitudeDegrees>-3.9182956516742706298828125</LongitudeDegrees>
            </Position>
            <AltitudeMeters>64.8000030517578125</AltitudeMeters>
            <DistanceMeters>NAN</DistanceMeters>
          </Trackpoint>
          <Trackpoint>
            <Time>2022-07-13T19:16:23.000Z</Time>
            <Position>
              <LatitudeDegrees>43.47214425913989543914794921875</LatitudeDegrees>
              <LongitudeDegrees>-3.9184953086078166961669921875</LongitudeDegrees>
            </Position>
            <AltitudeMeters>64.8000030517578125</AltitudeMeters>
            <DistanceMeters>NAN</DistanceMeters>
          </Trackpoint>
          <Trackpoint>
            <Time>2022-07-13T19:16:27.000Z</Time>
            <Position>
              <LatitudeDegrees>43.47210444509983062744140625</LatitudeDegrees>
              <LongitudeDegrees>-3.91866101883351802825927734375</LongitudeDegrees>
            </Position>
            <AltitudeMeters>65.1999969482421875</AltitudeMeters>
            <DistanceMeters>NAN</DistanceMeters>
          </Trackpoint>
          <Trackpoint>
            <Time>2022-07-13T19:16:31.000Z</Time>
            <Position>
              <LatitudeDegrees>43.47207049839198589324951171875</LatitudeDegrees>
              <LongitudeDegrees>-3.91879026778042316436767578125</LongitudeDegrees>
            </Position>
            <AltitudeMeters>65.59999847412109375</AltitudeMeters>
            <DistanceMeters>NAN</DistanceMeters>
          </Trackpoint>
          <Trackpoint>
            <Time>2022-07-13T19:16:32.000Z</Time>
            <Position>
              <LatitudeDegrees>43.47206027247011661529541015625</LatitudeDegrees>
              <LongitudeDegrees>-3.91882077790796756744384765625</LongitudeDegrees>
            </Position>
            <AltitudeMeters>65.59999847412109375</AltitudeMeters>
            <DistanceMeters>NAN</DistanceMeters>
          </Trackpoint>
          <Trackpoint>
            <Time>2022-07-13T19:16:34.000Z</Time>
            <Position>
              <LatitudeDegrees>43.472040407359600067138671875</LatitudeDegrees>
              <LongitudeDegrees>-3.918896131217479705810546875</LongitudeDegrees>
            </Position>
            <AltitudeMeters>65.59999847412109375</AltitudeMeters>
            <DistanceMeters>NAN</DistanceMeters>
          </Trackpoint>
          <Trackpoint>
            <Time>2022-07-13T19:16:38.000Z</Time>
            <Position>
              <LatitudeDegrees>43.47198802046477794647216796875</LatitudeDegrees>
              <LongitudeDegrees>-3.91903451643884181976318359375</LongitudeDegrees>
            </Position>
            <AltitudeMeters>65.59999847412109375</AltitudeMeters>
            <DistanceMeters>NAN</DistanceMeters>
          </Trackpoint>
          <Trackpoint>
            <Time>2022-07-13T19:16:44.000Z</Time>
            <Position>
              <LatitudeDegrees>43.47191660664975643157958984375</LatitudeDegrees>
              <LongitudeDegrees>-3.91927373595535755157470703125</LongitudeDegrees>
            </Position>
            <AltitudeMeters>65.40000152587890625</AltitudeMeters>
            <DistanceMeters>NAN</DistanceMeters>
          </Trackpoint>
          <Trackpoint>
            <Time>2022-07-13T19:16:49.000Z</Time>
            <Position>
              <LatitudeDegrees>43.4718860127031803131103515625</LatitudeDegrees>
              <LongitudeDegrees>-3.919372893869876861572265625</LongitudeDegrees>
            </Position>
            <AltitudeMeters>65.40000152587890625</AltitudeMeters>
            <DistanceMeters>NAN</DistanceMeters>
          </Trackpoint>
          <Trackpoint>
            <Time>2022-07-13T19:16:54.000Z</Time>
            <Position>
              <LatitudeDegrees>43.47186346538364887237548828125</LatitudeDegrees>
              <LongitudeDegrees>-3.91946216113865375518798828125</LongitudeDegrees>
            </Position>
            <AltitudeMeters>65.59999847412109375</AltitudeMeters>
            <DistanceMeters>NAN</DistanceMeters>
          </Trackpoint>
          <Trackpoint>
            <Time>2022-07-13T19:16:57.000Z</Time>
            <Position>
              <LatitudeDegrees>43.47186028026044368743896484375</LatitudeDegrees>
              <LongitudeDegrees>-3.9194733090698719024658203125</LongitudeDegrees>
            </Position>
            <AltitudeMeters>65.59999847412109375</AltitudeMeters>
            <DistanceMeters>NAN</DistanceMeters>
          </Trackpoint>
          <Trackpoint>
            <Time>2022-07-13T19:17:08.000Z</Time>
            <Position>
              <LatitudeDegrees>43.47181535325944423675537109375</LatitudeDegrees>
              <LongitudeDegrees>-3.91951697878539562225341796875</LongitudeDegrees>
            </Position>
            <AltitudeMeters>65.8000030517578125</AltitudeMeters>
            <DistanceMeters>NAN</DistanceMeters>
          </Trackpoint>
          <Trackpoint>
            <Time>2022-07-13T19:17:10.000Z</Time>
            <Position>
              <LatitudeDegrees>43.4717886149883270263671875</LatitudeDegrees>
              <LongitudeDegrees>-3.91956073231995105743408203125</LongitudeDegrees>
            </Position>
            <AltitudeMeters>65.8000030517578125</AltitudeMeters>
            <DistanceMeters>NAN</DistanceMeters>
          </Trackpoint>
          <Trackpoint>
            <Time>2022-07-13T19:17:16.000Z</Time>
            <Position>
              <LatitudeDegrees>43.47172415815293788909912109375</LatitudeDegrees>
              <LongitudeDegrees>-3.91974982805550098419189453125</LongitudeDegrees>
            </Position>
            <AltitudeMeters>65.8000030517578125</AltitudeMeters>
            <DistanceMeters>NAN</DistanceMeters>
          </Trackpoint>
          <Trackpoint>
            <Time>2022-07-13T19:17:18.000Z</Time>
            <Position>
              <LatitudeDegrees>43.471709154546260833740234375</LatitudeDegrees>
              <LongitudeDegrees>-3.91980917192995548248291015625</LongitudeDegrees>
            </Position>
            <AltitudeMeters>65.8000030517578125</AltitudeMeters>
            <DistanceMeters>NAN</DistanceMeters>
          </Trackpoint>
          <Trackpoint>
            <Time>2022-07-13T19:17:20.000Z</Time>
            <Position>
              <LatitudeDegrees>43.4717203862965106964111328125</LatitudeDegrees>
              <LongitudeDegrees>-3.91984119080007076263427734375</LongitudeDegrees>
            </Position>
            <AltitudeMeters>65.8000030517578125</AltitudeMeters>
            <DistanceMeters>NAN</DistanceMeters>
          </Trackpoint>
          <Trackpoint>
            <Time>2022-07-13T19:17:25.000Z</Time>
            <Position>
              <LatitudeDegrees>43.471774868667125701904296875</LatitudeDegrees>
              <LongitudeDegrees>-3.91990070231258869171142578125</LongitudeDegrees>
            </Position>
            <AltitudeMeters>65.40000152587890625</AltitudeMeters>
            <DistanceMeters>NAN</DistanceMeters>
          </Trackpoint>
          <Trackpoint>
            <Time>2022-07-13T19:17:28.000Z</Time>
            <Position>
              <LatitudeDegrees>43.471820466220378875732421875</LatitudeDegrees>
              <LongitudeDegrees>-3.919978402554988861083984375</LongitudeDegrees>
            </Position>
            <AltitudeMeters>64.40000152587890625</AltitudeMeters>
            <DistanceMeters>NAN</DistanceMeters>
          </Trackpoint>
          <Trackpoint>
            <Time>2022-07-13T19:17:30.000Z</Time>
            <Position>
              <LatitudeDegrees>43.4718538261950016021728515625</LatitudeDegrees>
              <LongitudeDegrees>-3.9200198091566562652587890625</LongitudeDegrees>
            </Position>
            <AltitudeMeters>64</AltitudeMeters>
            <DistanceMeters>NAN</DistanceMeters>
          </Trackpoint>
          <Trackpoint>
            <Time>2022-07-13T19:17:33.000Z</Time>
            <Position>
              <LatitudeDegrees>43.4719259105622768402099609375</LatitudeDegrees>
              <LongitudeDegrees>-3.92006515525281429290771484375</LongitudeDegrees>
            </Position>
            <AltitudeMeters>63.200000762939453125</AltitudeMeters>
            <DistanceMeters>NAN</DistanceMeters>
          </Trackpoint>
          <Trackpoint>
            <Time>2022-07-13T19:17:36.000Z</Time>
            <Position>
              <LatitudeDegrees>43.4720164351165294647216796875</LatitudeDegrees>
              <LongitudeDegrees>-3.92009499482810497283935546875</LongitudeDegrees>
            </Position>
            <AltitudeMeters>62.200000762939453125</AltitudeMeters>
            <DistanceMeters>NAN</DistanceMeters>
          </Trackpoint>
          <Trackpoint>
            <Time>2022-07-13T19:17:39.000Z</Time>
            <Position>
              <LatitudeDegrees>43.47210519947111606597900390625</LatitudeDegrees>
              <LongitudeDegrees>-3.92010354436933994293212890625</LongitudeDegrees>
            </Position>
            <AltitudeMeters>61</AltitudeMeters>
            <DistanceMeters>NAN</DistanceMeters>
          </Trackpoint>
          <Trackpoint>
            <Time>2022-07-13T19:17:42.000Z</Time>
            <Position>
              <LatitudeDegrees>43.47217208705842494964599609375</LatitudeDegrees>
              <LongitudeDegrees>-3.92008778639137744903564453125</LongitudeDegrees>
            </Position>
            <AltitudeMeters>59.799999237060546875</AltitudeMeters>
            <DistanceMeters>NAN</DistanceMeters>
          </Trackpoint>
          <Trackpoint>
            <Time>2022-07-13T19:17:45.000Z</Time>
            <Position>
              <LatitudeDegrees>43.47224316559731960296630859375</LatitudeDegrees>
              <LongitudeDegrees>-3.92011024989187717437744140625</LongitudeDegrees>
            </Position>
            <AltitudeMeters>58.59999847412109375</AltitudeMeters>
            <DistanceMeters>NAN</DistanceMeters>
          </Trackpoint>
          <Trackpoint>
            <Time>2022-07-13T19:17:48.000Z</Time>
            <Position>
              <LatitudeDegrees>43.47232447005808353424072265625</LatitudeDegrees>
              <LongitudeDegrees>-3.92016406171023845672607421875</LongitudeDegrees>
            </Position>
            <AltitudeMeters>57.40000152587890625</AltitudeMeters>
            <DistanceMeters>NAN</DistanceMeters>
          </Trackpoint>
          <Trackpoint>
            <Time>2022-07-13T19:17:50.000Z</Time>
            <Position>
              <LatitudeDegrees>43.47240376286208629608154296875</LatitudeDegrees>
              <LongitudeDegrees>-3.92024234868586063385009765625</LongitudeDegrees>
            </Position>
            <AltitudeMeters>56.200000762939453125</AltitudeMeters>
            <DistanceMeters>NAN</DistanceMeters>
          </Trackpoint>
          <Trackpoint>
            <Time>2022-07-13T19:17:51.000Z</Time>
            <Position>
              <LatitudeDegrees>43.472451455891132354736328125</LatitudeDegrees>
              <LongitudeDegrees>-3.92030169256031513214111328125</LongitudeDegrees>
            </Position>
            <AltitudeMeters>55.59999847412109375</AltitudeMeters>
            <DistanceMeters>NAN</DistanceMeters>
          </Trackpoint>
          <Trackpoint>
            <Time>2022-07-13T19:17:52.000Z</Time>
            <Position>
              <LatitudeDegrees>43.4724948741495609283447265625</LatitudeDegrees>
              <LongitudeDegrees>-3.920361287891864776611328125</LongitudeDegrees>
            </Position>
            <AltitudeMeters>55.200000762939453125</AltitudeMeters>
            <DistanceMeters>NAN</DistanceMeters>
          </Trackpoint>
          <Trackpoint>
            <Time>2022-07-13T19:17:54.000Z</Time>
            <Position>
              <LatitudeDegrees>43.4725625999271869659423828125</LatitudeDegrees>
              <LongitudeDegrees>-3.9204499684274196624755859375</LongitudeDegrees>
            </Position>
            <AltitudeMeters>54.799999237060546875</AltitudeMeters>
            <DistanceMeters>NAN</DistanceMeters>
          </Trackpoint>
          <Trackpoint>
            <Time>2022-07-13T19:17:56.000Z</Time>
            <Position>
              <LatitudeDegrees>43.47259738482534885406494140625</LatitudeDegrees>
              <LongitudeDegrees>-3.92049766145646572113037109375</LongitudeDegrees>
            </Position>
            <AltitudeMeters>54.799999237060546875</AltitudeMeters>
            <DistanceMeters>NAN</DistanceMeters>
          </Trackpoint>
          <Trackpoint>
            <Time>2022-07-13T19:17:59.000Z</Time>
            <Position>
              <LatitudeDegrees>43.4726249612867832183837890625</LatitudeDegrees>
              <LongitudeDegrees>-3.9205431751906871795654296875</LongitudeDegrees>
            </Position>
            <AltitudeMeters>55.40000152587890625</AltitudeMeters>
            <DistanceMeters>NAN</DistanceMeters>
          </Trackpoint>
          <Trackpoint>
            <Time>2022-07-13T19:18:00.000Z</Time>
            <Position>
              <LatitudeDegrees>43.47262638621032238006591796875</LatitudeDegrees>
              <LongitudeDegrees>-3.92054761759936809539794921875</LongitudeDegrees>
            </Position>
            <AltitudeMeters>55.59999847412109375</AltitudeMeters>
            <DistanceMeters>NAN</DistanceMeters>
          </Trackpoint>
          <Trackpoint>
            <Time>2022-07-13T19:18:02.000Z</Time>
            <Position>
              <LatitudeDegrees>43.47262638621032238006591796875</LatitudeDegrees>
              <LongitudeDegrees>-3.92054761759936809539794921875</LongitudeDegrees>
            </Position>
            <AltitudeMeters>55.799999237060546875</AltitudeMeters>
            <DistanceMeters>NAN</DistanceMeters>
          </Trackpoint>
          <Trackpoint>
            <Time>2022-07-13T19:18:45.000Z</Time>
            <Position>
              <LatitudeDegrees>43.4727419726550579071044921875</LatitudeDegrees>
              <LongitudeDegrees>-3.9208519645035266876220703125</LongitudeDegrees>
            </Position>
            <AltitudeMeters>60.200000762939453125</AltitudeMeters>
            <DistanceMeters>NAN</DistanceMeters>
          </Trackpoint>
          <Trackpoint>
            <Time>2022-07-13T19:18:47.000Z</Time>
            <Position>
              <LatitudeDegrees>43.472758233547210693359375</LatitudeDegrees>
              <LongitudeDegrees>-3.9208818040788173675537109375</LongitudeDegrees>
            </Position>
            <AltitudeMeters>60.40000152587890625</AltitudeMeters>
            <DistanceMeters>NAN</DistanceMeters>
          </Trackpoint>
          <Trackpoint>
            <Time>2022-07-13T19:18:50.000Z</Time>
            <Position>
              <LatitudeDegrees>43.472765944898128509521484375</LatitudeDegrees>
              <LongitudeDegrees>-3.92088758759200572967529296875</LongitudeDegrees>
            </Position>
            <AltitudeMeters>60.40000152587890625</AltitudeMeters>
            <DistanceMeters>NAN</DistanceMeters>
          </Trackpoint>
          <Trackpoint>
            <Time>2022-07-13T19:20:26.000Z</Time>
            <Position>
              <LatitudeDegrees>43.4727584011852741241455078125</LatitudeDegrees>
              <LongitudeDegrees>-3.920938968658447265625</LongitudeDegrees>
            </Position>
            <AltitudeMeters>60.799999237060546875</AltitudeMeters>
            <DistanceMeters>NAN</DistanceMeters>
          </Trackpoint>
          <Trackpoint>
            <Time>2022-07-13T19:20:27.000Z</Time>
            <Position>
              <LatitudeDegrees>43.472753874957561492919921875</LatitudeDegrees>
              <LongitudeDegrees>-3.920976854860782623291015625</LongitudeDegrees>
            </Position>
            <AltitudeMeters>60.799999237060546875</AltitudeMeters>
            <DistanceMeters>NAN</DistanceMeters>
          </Trackpoint>
          <Trackpoint>
            <Time>2022-07-13T19:20:31.000Z</Time>
            <Position>
              <LatitudeDegrees>43.47276200540363788604736328125</LatitudeDegrees>
              <LongitudeDegrees>-3.92116486094892024993896484375</LongitudeDegrees>
            </Position>
            <AltitudeMeters>59.799999237060546875</AltitudeMeters>
            <DistanceMeters>NAN</DistanceMeters>
          </Trackpoint>
          <Trackpoint>
            <Time>2022-07-13T19:20:36.000Z</Time>
            <Position>
              <LatitudeDegrees>43.47283241339027881622314453125</LatitudeDegrees>
              <LongitudeDegrees>-3.92138966359198093414306640625</LongitudeDegrees>
            </Position>
            <AltitudeMeters>59.40000152587890625</AltitudeMeters>
            <DistanceMeters>NAN</DistanceMeters>
          </Trackpoint>
          <Trackpoint>
            <Time>2022-07-13T19:20:40.000Z</Time>
            <Position>
              <LatitudeDegrees>43.4728787653148174285888671875</LatitudeDegrees>
              <LongitudeDegrees>-3.92148002050817012786865234375</LongitudeDegrees>
            </Position>
            <AltitudeMeters>60.200000762939453125</AltitudeMeters>
            <DistanceMeters>NAN</DistanceMeters>
          </Trackpoint>
          <Trackpoint>
            <Time>2022-07-13T19:20:41.000Z</Time>
            <Position>
              <LatitudeDegrees>43.47288572229444980621337890625</LatitudeDegrees>
              <LongitudeDegrees>-3.92150181345641613006591796875</LongitudeDegrees>
            </Position>
            <AltitudeMeters>60.40000152587890625</AltitudeMeters>
            <DistanceMeters>NAN</DistanceMeters>
          </Trackpoint>
          <Trackpoint>
            <Time>2022-07-13T19:20:47.000Z</Time>
            <Position>
              <LatitudeDegrees>43.472936265170574188232421875</LatitudeDegrees>
              <LongitudeDegrees>-3.9216539449989795684814453125</LongitudeDegrees>
            </Position>
            <AltitudeMeters>61.200000762939453125</AltitudeMeters>
            <DistanceMeters>NAN</DistanceMeters>
          </Trackpoint>
          <Trackpoint>
            <Time>2022-07-13T19:20:50.000Z</Time>
            <Position>
              <LatitudeDegrees>43.4729615785181522369384765625</LatitudeDegrees>
              <LongitudeDegrees>-3.921739943325519561767578125</LongitudeDegrees>
            </Position>
            <AltitudeMeters>61.200000762939453125</AltitudeMeters>
            <DistanceMeters>NAN</DistanceMeters>
          </Trackpoint>
          <Trackpoint>
            <Time>2022-07-13T19:20:51.000Z</Time>
            <Position>
              <LatitudeDegrees>43.4729661047458648681640625</LatitudeDegrees>
              <LongitudeDegrees>-3.92176701687276363372802734375</LongitudeDegrees>
            </Position>
            <AltitudeMeters>61.200000762939453125</AltitudeMeters>
            <DistanceMeters>NAN</DistanceMeters>
          </Trackpoint>
          <Trackpoint>
            <Time>2022-07-13T19:20:54.000Z</Time>
            <Position>
              <LatitudeDegrees>43.4729790128767490386962890625</LatitudeDegrees>
              <LongitudeDegrees>-3.921829126775264739990234375</LongitudeDegrees>
            </Position>
            <AltitudeMeters>61.40000152587890625</AltitudeMeters>
            <DistanceMeters>NAN</DistanceMeters>
          </Trackpoint>
          <Trackpoint>
            <Time>2022-07-13T19:20:55.000Z</Time>
            <Position>
              <LatitudeDegrees>43.47298379056155681610107421875</LatitudeDegrees>
              <LongitudeDegrees>-3.92185452394187450408935546875</LongitudeDegrees>
            </Position>
            <AltitudeMeters>61.59999847412109375</AltitudeMeters>
            <DistanceMeters>NAN</DistanceMeters>
          </Trackpoint>
          <Trackpoint>
            <Time>2022-07-13T19:20:57.000Z</Time>
            <Position>
              <LatitudeDegrees>43.47299317829310894012451171875</LatitudeDegrees>
              <LongitudeDegrees>-3.9219023846089839935302734375</LongitudeDegrees>
            </Position>
            <AltitudeMeters>62</AltitudeMeters>
            <DistanceMeters>NAN</DistanceMeters>
          </Trackpoint>
          <Trackpoint>
            <Time>2022-07-13T19:21:00.000Z</Time>
            <Position>
              <LatitudeDegrees>43.4729924239218235015869140625</LatitudeDegrees>
              <LongitudeDegrees>-3.9219724573194980621337890625</LongitudeDegrees>
            </Position>
            <AltitudeMeters>62.40000152587890625</AltitudeMeters>
            <DistanceMeters>NAN</DistanceMeters>
          </Trackpoint>
          <Trackpoint>
            <Time>2022-07-13T19:21:03.000Z</Time>
            <Position>
              <LatitudeDegrees>43.4729763306677341461181640625</LatitudeDegrees>
              <LongitudeDegrees>-3.92203641124069690704345703125</LongitudeDegrees>
            </Position>
            <AltitudeMeters>63.200000762939453125</AltitudeMeters>
            <DistanceMeters>NAN</DistanceMeters>
          </Trackpoint>
          <Trackpoint>
            <Time>2022-07-13T19:21:04.000Z</Time>
            <Position>
              <LatitudeDegrees>43.47297155298292636871337890625</LatitudeDegrees>
              <LongitudeDegrees>-3.9220636524260044097900390625</LongitudeDegrees>
            </Position>
            <AltitudeMeters>63.40000152587890625</AltitudeMeters>
            <DistanceMeters>NAN</DistanceMeters>
          </Trackpoint>
          <Trackpoint>
            <Time>2022-07-13T19:21:11.000Z</Time>
            <Position>
              <LatitudeDegrees>43.472964428365230560302734375</LatitudeDegrees>
              <LongitudeDegrees>-3.9222286082804203033447265625</LongitudeDegrees>
            </Position>
            <AltitudeMeters>64.59999847412109375</AltitudeMeters>
            <DistanceMeters>NAN</DistanceMeters>
          </Trackpoint>
          <Trackpoint>
            <Time>2022-07-13T19:21:13.000Z</Time>
            <Position>
              <LatitudeDegrees>43.47295981831848621368408203125</LatitudeDegrees>
              <LongitudeDegrees>-3.92227294854819774627685546875</LongitudeDegrees>
            </Position>
            <AltitudeMeters>64.59999847412109375</AltitudeMeters>
            <DistanceMeters>NAN</DistanceMeters>
          </Trackpoint>
          <Trackpoint>
            <Time>2022-07-13T19:21:18.000Z</Time>
            <Position>
              <LatitudeDegrees>43.47295462153851985931396484375</LatitudeDegrees>
              <LongitudeDegrees>-3.922324664890766143798828125</LongitudeDegrees>
            </Position>
            <AltitudeMeters>64.8000030517578125</AltitudeMeters>
            <DistanceMeters>NAN</DistanceMeters>
          </Trackpoint>
          <Trackpoint>
            <Time>2022-07-13T19:21:48.000Z</Time>
            <Position>
              <LatitudeDegrees>43.472891338169574737548828125</LatitudeDegrees>
              <LongitudeDegrees>-3.92258609645068645477294921875</LongitudeDegrees>
            </Position>
            <AltitudeMeters>65.1999969482421875</AltitudeMeters>
            <DistanceMeters>NAN</DistanceMeters>
          </Trackpoint>
          <Trackpoint>
            <Time>2022-07-13T19:21:53.000Z</Time>
            <Position>
              <LatitudeDegrees>43.472887985408306121826171875</LatitudeDegrees>
              <LongitudeDegrees>-3.92276362515985965728759765625</LongitudeDegrees>
            </Position>
            <AltitudeMeters>65</AltitudeMeters>
            <DistanceMeters>NAN</DistanceMeters>
          </Trackpoint>
          <Trackpoint>
            <Time>2022-07-13T19:21:57.000Z</Time>
            <Position>
              <LatitudeDegrees>43.472907431423664093017578125</LatitudeDegrees>
              <LongitudeDegrees>-3.92279178835451602935791015625</LongitudeDegrees>
            </Position>
            <AltitudeMeters>64.8000030517578125</AltitudeMeters>
            <DistanceMeters>NAN</DistanceMeters>
          </Trackpoint>
          <Trackpoint>
            <Time>2022-07-13T19:22:30.000Z</Time>
            <Position>
              <LatitudeDegrees>43.47289360128343105316162109375</LatitudeDegrees>
              <LongitudeDegrees>-3.9227982424199581146240234375</LongitudeDegrees>
            </Position>
            <AltitudeMeters>65.1999969482421875</AltitudeMeters>
            <DistanceMeters>NAN</DistanceMeters>
          </Trackpoint>
          <Trackpoint>
            <Time>2022-07-13T19:22:33.000Z</Time>
            <Position>
              <LatitudeDegrees>43.47285906784236431121826171875</LatitudeDegrees>
              <LongitudeDegrees>-3.9228418283164501190185546875</LongitudeDegrees>
            </Position>
            <AltitudeMeters>65.1999969482421875</AltitudeMeters>
            <DistanceMeters>NAN</DistanceMeters>
          </Trackpoint>
          <Trackpoint>
            <Time>2022-07-13T19:22:40.000Z</Time>
            <Position>
              <LatitudeDegrees>43.4727805294096469879150390625</LatitudeDegrees>
              <LongitudeDegrees>-3.92301172949373722076416015625</LongitudeDegrees>
            </Position>
            <AltitudeMeters>65</AltitudeMeters>
            <DistanceMeters>NAN</DistanceMeters>
          </Trackpoint>
          <Trackpoint>
            <Time>2022-07-13T19:22:48.000Z</Time>
            <Position>
              <LatitudeDegrees>43.4727302379906177520751953125</LatitudeDegrees>
              <LongitudeDegrees>-3.9231988973915576934814453125</LongitudeDegrees>
            </Position>
            <AltitudeMeters>65.59999847412109375</AltitudeMeters>
            <DistanceMeters>NAN</DistanceMeters>
          </Trackpoint>
          <Trackpoint>
            <Time>2022-07-13T19:22:49.000Z</Time>
            <Position>
              <LatitudeDegrees>43.47272177226841449737548828125</LatitudeDegrees>
              <LongitudeDegrees>-3.9232159964740276336669921875</LongitudeDegrees>
            </Position>
            <AltitudeMeters>66</AltitudeMeters>
            <DistanceMeters>NAN</DistanceMeters>
          </Trackpoint>
          <Trackpoint>
            <Time>2022-07-13T19:22:53.000Z</Time>
            <Position>
              <LatitudeDegrees>43.4727047570049762725830078125</LatitudeDegrees>
              <LongitudeDegrees>-3.92329671420156955718994140625</LongitudeDegrees>
            </Position>
            <AltitudeMeters>66.40000152587890625</AltitudeMeters>
            <DistanceMeters>NAN</DistanceMeters>
          </Trackpoint>
          <Trackpoint>
            <Time>2022-07-13T19:22:57.000Z</Time>
            <Position>
              <LatitudeDegrees>43.4726886637508869171142578125</LatitudeDegrees>
              <LongitudeDegrees>-3.9233702234923839569091796875</LongitudeDegrees>
            </Position>
            <AltitudeMeters>66.1999969482421875</AltitudeMeters>
            <DistanceMeters>NAN</DistanceMeters>
          </Trackpoint>
          <Trackpoint>
            <Time>2022-07-13T19:23:03.000Z</Time>
            <Position>
              <LatitudeDegrees>43.47268807701766490936279296875</LatitudeDegrees>
              <LongitudeDegrees>-3.92351883463561534881591796875</LongitudeDegrees>
            </Position>
            <AltitudeMeters>66</AltitudeMeters>
            <DistanceMeters>NAN</DistanceMeters>
          </Trackpoint>
          <Trackpoint>
            <Time>2022-07-13T19:23:05.000Z</Time>
            <Position>
              <LatitudeDegrees>43.4727047570049762725830078125</LatitudeDegrees>
              <LongitudeDegrees>-3.9235660247504711151123046875</LongitudeDegrees>
            </Position>
            <AltitudeMeters>66.1999969482421875</AltitudeMeters>
            <DistanceMeters>NAN</DistanceMeters>
          </Trackpoint>
          <Trackpoint>
            <Time>2022-07-13T19:23:13.000Z</Time>
            <Position>
              <LatitudeDegrees>43.472744487226009368896484375</LatitudeDegrees>
              <LongitudeDegrees>-3.92371782101690769195556640625</LongitudeDegrees>
            </Position>
            <AltitudeMeters>66.8000030517578125</AltitudeMeters>
            <DistanceMeters>NAN</DistanceMeters>
          </Trackpoint>
          <Trackpoint>
            <Time>2022-07-13T19:23:17.000Z</Time>
            <Position>
              <LatitudeDegrees>43.4727168269455432891845703125</LatitudeDegrees>
              <LongitudeDegrees>-3.9237906597554683685302734375</LongitudeDegrees>
            </Position>
            <AltitudeMeters>67.8000030517578125</AltitudeMeters>
            <DistanceMeters>NAN</DistanceMeters>
          </Trackpoint>
          <Trackpoint>
            <Time>2022-07-13T19:23:22.000Z</Time>
            <Position>
              <LatitudeDegrees>43.47267500124871730804443359375</LatitudeDegrees>
              <LongitudeDegrees>-3.9238741435110569000244140625</LongitudeDegrees>
            </Position>
            <AltitudeMeters>68.40000152587890625</AltitudeMeters>
            <DistanceMeters>NAN</DistanceMeters>
          </Trackpoint>
          <Trackpoint>
            <Time>2022-07-13T19:23:28.000Z</Time>
            <Position>
              <LatitudeDegrees>43.4726635180413722991943359375</LatitudeDegrees>
              <LongitudeDegrees>-3.92392116598784923553466796875</LongitudeDegrees>
            </Position>
            <AltitudeMeters>68.59999847412109375</AltitudeMeters>
            <DistanceMeters>NAN</DistanceMeters>
          </Trackpoint>
          <Trackpoint>
            <Time>2022-07-13T19:26:38.000Z</Time>
            <Position>
              <LatitudeDegrees>43.47264113835990428924560546875</LatitudeDegrees>
              <LongitudeDegrees>-3.923980928957462310791015625</LongitudeDegrees>
            </Position>
            <AltitudeMeters>68.59999847412109375</AltitudeMeters>
            <DistanceMeters>NAN</DistanceMeters>
          </Trackpoint>
          <Trackpoint>
            <Time>2022-07-13T19:26:40.000Z</Time>
            <Position>
              <LatitudeDegrees>43.47266041673719882965087890625</LatitudeDegrees>
              <LongitudeDegrees>-3.923967182636260986328125</LongitudeDegrees>
            </Position>
            <AltitudeMeters>68.8000030517578125</AltitudeMeters>
            <DistanceMeters>NAN</DistanceMeters>
          </Trackpoint>
          <Trackpoint>
            <Time>2022-07-13T19:26:41.000Z</Time>
            <Position>
              <LatitudeDegrees>43.472664691507816314697265625</LatitudeDegrees>
              <LongitudeDegrees>-3.92396290786564350128173828125</LongitudeDegrees>
            </Position>
            <AltitudeMeters>68.8000030517578125</AltitudeMeters>
            <DistanceMeters>NAN</DistanceMeters>
          </Trackpoint>
          <Trackpoint>
            <Time>2022-07-13T19:26:45.000Z</Time>
            <Position>
              <LatitudeDegrees>43.47267366014420986175537109375</LatitudeDegrees>
              <LongitudeDegrees>-3.92396005801856517791748046875</LongitudeDegrees>
            </Position>
            <AltitudeMeters>69.1999969482421875</AltitudeMeters>
            <DistanceMeters>NAN</DistanceMeters>
          </Trackpoint>
          <Trackpoint>
            <Time>2022-07-13T19:26:46.000Z</Time>
            <Position>
              <LatitudeDegrees>43.47268120385706424713134765625</LatitudeDegrees>
              <LongitudeDegrees>-3.9239631593227386474609375</LongitudeDegrees>
            </Position>
            <AltitudeMeters>69.1999969482421875</AltitudeMeters>
            <DistanceMeters>NAN</DistanceMeters>
          </Trackpoint>
          <Trackpoint>
            <Time>2022-07-13T19:26:53.000Z</Time>
            <Position>
              <LatitudeDegrees>43.472684808075428009033203125</LatitudeDegrees>
              <LongitudeDegrees>-3.92397816292941570281982421875</LongitudeDegrees>
            </Position>
            <AltitudeMeters>69.1999969482421875</AltitudeMeters>
            <DistanceMeters>NAN</DistanceMeters>
          </Trackpoint>
          <Trackpoint>
            <Time>2022-07-13T19:27:16.000Z</Time>
            <Position>
              <LatitudeDegrees>43.472678773105144500732421875</LatitudeDegrees>
              <LongitudeDegrees>-3.9240069128572940826416015625</LongitudeDegrees>
            </Position>
            <AltitudeMeters>69.1999969482421875</AltitudeMeters>
            <DistanceMeters>NAN</DistanceMeters>
          </Trackpoint>
          <Trackpoint>
            <Time>2022-07-13T19:27:18.000Z</Time>
            <Position>
              <LatitudeDegrees>43.4726745821535587310791015625</LatitudeDegrees>
              <LongitudeDegrees>-3.92404974438250064849853515625</LongitudeDegrees>
            </Position>
            <AltitudeMeters>69.40000152587890625</AltitudeMeters>
            <DistanceMeters>NAN</DistanceMeters>
          </Trackpoint>
          <Trackpoint>
            <Time>2022-07-13T19:27:19.000Z</Time>
            <Position>
              <LatitudeDegrees>43.4726765938103199005126953125</LatitudeDegrees>
              <LongitudeDegrees>-3.9240712858736515045166015625</LongitudeDegrees>
            </Position>
            <AltitudeMeters>69.8000030517578125</AltitudeMeters>
            <DistanceMeters>NAN</DistanceMeters>
          </Trackpoint>
          <Trackpoint>
            <Time>2022-07-13T19:27:24.000Z</Time>
            <Position>
              <LatitudeDegrees>43.47265563905239105224609375</LatitudeDegrees>
              <LongitudeDegrees>-3.9241711981594562530517578125</LongitudeDegrees>
            </Position>
            <AltitudeMeters>70.59999847412109375</AltitudeMeters>
            <DistanceMeters>NAN</DistanceMeters>
          </Trackpoint>
          <Trackpoint>
            <Time>2022-07-13T19:27:27.000Z</Time>
            <Position>
              <LatitudeDegrees>43.47263225354254245758056640625</LatitudeDegrees>
              <LongitudeDegrees>-3.92421671189367771148681640625</LongitudeDegrees>
            </Position>
            <AltitudeMeters>71</AltitudeMeters>
            <DistanceMeters>NAN</DistanceMeters>
          </Trackpoint>
          <Trackpoint>
            <Time>2022-07-13T19:27:29.000Z</Time>
            <Position>
              <LatitudeDegrees>43.47262521274387836456298828125</LatitudeDegrees>
              <LongitudeDegrees>-3.924239762127399444580078125</LongitudeDegrees>
            </Position>
            <AltitudeMeters>71.1999969482421875</AltitudeMeters>
            <DistanceMeters>NAN</DistanceMeters>
          </Trackpoint>
          <Trackpoint>
            <Time>2022-07-13T19:27:31.000Z</Time>
            <Position>
              <LatitudeDegrees>43.4726185910403728485107421875</LatitudeDegrees>
              <LongitudeDegrees>-3.92427152954041957855224609375</LongitudeDegrees>
            </Position>
            <AltitudeMeters>71.40000152587890625</AltitudeMeters>
            <DistanceMeters>NAN</DistanceMeters>
          </Trackpoint>
          <Trackpoint>
            <Time>2022-07-13T19:27:32.000Z</Time>
            <Position>
              <LatitudeDegrees>43.47261917777359485626220703125</LatitudeDegrees>
              <LongitudeDegrees>-3.9242848567664623260498046875</LongitudeDegrees>
            </Position>
            <AltitudeMeters>71.59999847412109375</AltitudeMeters>
            <DistanceMeters>NAN</DistanceMeters>
          </Trackpoint>
          <Trackpoint>
            <Time>2022-07-13T19:27:37.000Z</Time>
            <Position>
              <LatitudeDegrees>43.472623117268085479736328125</LatitudeDegrees>
              <LongitudeDegrees>-3.9243321307003498077392578125</LongitudeDegrees>
            </Position>
            <AltitudeMeters>72</AltitudeMeters>
            <DistanceMeters>NAN</DistanceMeters>
          </Trackpoint>
          <Trackpoint>
            <Time>2022-07-13T19:27:38.000Z</Time>
            <Position>
              <LatitudeDegrees>43.472623117268085479736328125</LatitudeDegrees>
              <LongitudeDegrees>-3.9243321307003498077392578125</LongitudeDegrees>
            </Position>
            <AltitudeMeters>72</AltitudeMeters>
            <DistanceMeters>NAN</DistanceMeters>
          </Trackpoint>
          <Trackpoint>
            <Time>2022-07-13T19:27:49.000Z</Time>
            <Position>
              <LatitudeDegrees>43.47261414863169193267822265625</LatitudeDegrees>
              <LongitudeDegrees>-3.92423741519451141357421875</LongitudeDegrees>
            </Position>
            <AltitudeMeters>72</AltitudeMeters>
            <DistanceMeters>NAN</DistanceMeters>
          </Trackpoint>
          <Trackpoint>
            <Time>2022-07-13T19:27:50.000Z</Time>
            <Position>
              <LatitudeDegrees>43.4726172499358654022216796875</LatitudeDegrees>
              <LongitudeDegrees>-3.92421595752239227294921875</LongitudeDegrees>
            </Position>
            <AltitudeMeters>72</AltitudeMeters>
            <DistanceMeters>NAN</DistanceMeters>
          </Trackpoint>
          <Trackpoint>
            <Time>2022-07-13T19:27:55.000Z</Time>
            <Position>
              <LatitudeDegrees>43.47262856550514698028564453125</LatitudeDegrees>
              <LongitudeDegrees>-3.924141861498355865478515625</LongitudeDegrees>
            </Position>
            <AltitudeMeters>72</AltitudeMeters>
            <DistanceMeters>NAN</DistanceMeters>
          </Trackpoint>
          <Trackpoint>
            <Time>2022-07-13T19:28:03.000Z</Time>
            <Position>
              <LatitudeDegrees>43.4726789407432079315185546875</LatitudeDegrees>
              <LongitudeDegrees>-3.92400716431438922882080078125</LongitudeDegrees>
            </Position>
            <AltitudeMeters>70.8000030517578125</AltitudeMeters>
            <DistanceMeters>NAN</DistanceMeters>
          </Trackpoint>
          <Trackpoint>
            <Time>2022-07-13T19:28:05.000Z</Time>
            <Position>
              <LatitudeDegrees>43.472682125866413116455078125</LatitudeDegrees>
              <LongitudeDegrees>-3.92398771829903125762939453125</LongitudeDegrees>
            </Position>
            <AltitudeMeters>70.40000152587890625</AltitudeMeters>
            <DistanceMeters>NAN</DistanceMeters>
          </Trackpoint>
          <Trackpoint>
            <Time>2022-07-13T19:28:08.000Z</Time>
            <Position>
              <LatitudeDegrees>43.4726898372173309326171875</LatitudeDegrees>
              <LongitudeDegrees>-3.92398796975612640380859375</LongitudeDegrees>
            </Position>
            <AltitudeMeters>70</AltitudeMeters>
            <DistanceMeters>NAN</DistanceMeters>
          </Trackpoint>
          <Trackpoint>
            <Time>2022-07-13T19:28:09.000Z</Time>
            <Position>
              <LatitudeDegrees>43.4726898372173309326171875</LatitudeDegrees>
              <LongitudeDegrees>-3.92398796975612640380859375</LongitudeDegrees>
            </Position>
            <AltitudeMeters>70</AltitudeMeters>
            <DistanceMeters>NAN</DistanceMeters>
          </Trackpoint>
          <Trackpoint>
            <Time>2022-07-13T19:28:46.000Z</Time>
            <Position>
              <LatitudeDegrees>43.472653962671756744384765625</LatitudeDegrees>
              <LongitudeDegrees>-3.92418377101421356201171875</LongitudeDegrees>
            </Position>
            <AltitudeMeters>71.59999847412109375</AltitudeMeters>
            <DistanceMeters>NAN</DistanceMeters>
          </Trackpoint>
          <Trackpoint>
            <Time>2022-07-13T19:28:47.000Z</Time>
            <Position>
              <LatitudeDegrees>43.47264683805406093597412109375</LatitudeDegrees>
              <LongitudeDegrees>-3.92420581541955471038818359375</LongitudeDegrees>
            </Position>
            <AltitudeMeters>71.59999847412109375</AltitudeMeters>
            <DistanceMeters>NAN</DistanceMeters>
          </Trackpoint>
          <Trackpoint>
            <Time>2022-07-13T19:28:48.000Z</Time>
            <Position>
              <LatitudeDegrees>43.472640216350555419921875</LatitudeDegrees>
              <LongitudeDegrees>-3.924225009977817535400390625</LongitudeDegrees>
            </Position>
            <AltitudeMeters>71.8000030517578125</AltitudeMeters>
            <DistanceMeters>NAN</DistanceMeters>
          </Trackpoint>
          <Trackpoint>
            <Time>2022-07-13T19:28:50.000Z</Time>
            <Position>
              <LatitudeDegrees>43.4726276434957981109619140625</LatitudeDegrees>
              <LongitudeDegrees>-3.9242607168853282928466796875</LongitudeDegrees>
            </Position>
            <AltitudeMeters>72</AltitudeMeters>
            <DistanceMeters>NAN</DistanceMeters>
          </Trackpoint>
          <Trackpoint>
            <Time>2022-07-13T19:28:58.000Z</Time>
            <Position>
              <LatitudeDegrees>43.47257860936224460601806640625</LatitudeDegrees>
              <LongitudeDegrees>-3.92442558892071247100830078125</LongitudeDegrees>
            </Position>
            <AltitudeMeters>72.40000152587890625</AltitudeMeters>
            <DistanceMeters>NAN</DistanceMeters>
          </Trackpoint>
          <Trackpoint>
            <Time>2022-07-13T19:29:05.000Z</Time>
            <Position>
              <LatitudeDegrees>43.47251859493553638458251953125</LatitudeDegrees>
              <LongitudeDegrees>-3.924620635807514190673828125</LongitudeDegrees>
            </Position>
            <AltitudeMeters>72.59999847412109375</AltitudeMeters>
            <DistanceMeters>NAN</DistanceMeters>
          </Trackpoint>
          <Trackpoint>
            <Time>2022-07-13T19:29:07.000Z</Time>
            <Position>
              <LatitudeDegrees>43.47250409424304962158203125</LatitudeDegrees>
              <LongitudeDegrees>-3.924667574465274810791015625</LongitudeDegrees>
            </Position>
            <AltitudeMeters>72.8000030517578125</AltitudeMeters>
            <DistanceMeters>NAN</DistanceMeters>
          </Trackpoint>
          <Trackpoint>
            <Time>2022-07-13T19:29:10.000Z</Time>
            <Position>
              <LatitudeDegrees>43.472478277981281280517578125</LatitudeDegrees>
              <LongitudeDegrees>-3.92473303712904453277587890625</LongitudeDegrees>
            </Position>
            <AltitudeMeters>72.8000030517578125</AltitudeMeters>
            <DistanceMeters>NAN</DistanceMeters>
          </Trackpoint>
          <Trackpoint>
            <Time>2022-07-13T19:29:12.000Z</Time>
            <Position>
              <LatitudeDegrees>43.47245371900498867034912109375</LatitudeDegrees>
              <LongitudeDegrees>-3.92475533299148082733154296875</LongitudeDegrees>
            </Position>
            <AltitudeMeters>72.8000030517578125</AltitudeMeters>
            <DistanceMeters>NAN</DistanceMeters>
          </Trackpoint>
          <Trackpoint>
            <Time>2022-07-13T19:29:13.000Z</Time>
            <Position>
              <LatitudeDegrees>43.4724405594170093536376953125</LatitudeDegrees>
              <LongitudeDegrees>-3.92476136796176433563232421875</LongitudeDegrees>
            </Position>
            <AltitudeMeters>72.8000030517578125</AltitudeMeters>
            <DistanceMeters>NAN</DistanceMeters>
          </Trackpoint>
          <Trackpoint>
            <Time>2022-07-13T19:29:15.000Z</Time>
            <Position>
              <LatitudeDegrees>43.47241616807878017425537109375</LatitudeDegrees>
              <LongitudeDegrees>-3.92477662302553653717041015625</LongitudeDegrees>
            </Position>
            <AltitudeMeters>72.8000030517578125</AltitudeMeters>
            <DistanceMeters>NAN</DistanceMeters>
          </Trackpoint>
          <Trackpoint>
            <Time>2022-07-13T19:29:17.000Z</Time>
            <Position>
              <LatitudeDegrees>43.4723922796547412872314453125</LatitudeDegrees>
              <LongitudeDegrees>-3.924806378781795501708984375</LongitudeDegrees>
            </Position>
            <AltitudeMeters>72.8000030517578125</AltitudeMeters>
            <DistanceMeters>NAN</DistanceMeters>
          </Trackpoint>
          <Trackpoint>
            <Time>2022-07-13T19:29:19.000Z</Time>
            <Position>
              <LatitudeDegrees>43.4723798744380474090576171875</LatitudeDegrees>
              <LongitudeDegrees>-3.92483890056610107421875</LongitudeDegrees>
            </Position>
            <AltitudeMeters>72.8000030517578125</AltitudeMeters>
            <DistanceMeters>NAN</DistanceMeters>
          </Trackpoint>
          <Trackpoint>
            <Time>2022-07-13T19:29:20.000Z</Time>
            <Position>
              <LatitudeDegrees>43.472375012934207916259765625</LatitudeDegrees>
              <LongitudeDegrees>-3.92486312426626682281494140625</LongitudeDegrees>
            </Position>
            <AltitudeMeters>72.59999847412109375</AltitudeMeters>
            <DistanceMeters>NAN</DistanceMeters>
          </Trackpoint>
          <Trackpoint>
            <Time>2022-07-13T19:29:25.000Z</Time>
            <Position>
              <LatitudeDegrees>43.47236637957394123077392578125</LatitudeDegrees>
              <LongitudeDegrees>-3.92493085004389286041259765625</LongitudeDegrees>
            </Position>
            <AltitudeMeters>72.40000152587890625</AltitudeMeters>
            <DistanceMeters>NAN</DistanceMeters>
          </Trackpoint>
          <Trackpoint>
            <Time>2022-07-13T19:29:26.000Z</Time>
            <Position>
              <LatitudeDegrees>43.47236637957394123077392578125</LatitudeDegrees>
              <LongitudeDegrees>-3.92493085004389286041259765625</LongitudeDegrees>
            </Position>
            <AltitudeMeters>72.40000152587890625</AltitudeMeters>
            <DistanceMeters>NAN</DistanceMeters>
          </Trackpoint>
          <Trackpoint>
            <Time>2022-07-13T19:31:42.000Z</Time>
            <Position>
              <LatitudeDegrees>43.4723304212093353271484375</LatitudeDegrees>
              <LongitudeDegrees>-3.9250103943049907684326171875</LongitudeDegrees>
            </Position>
            <AltitudeMeters>72.1999969482421875</AltitudeMeters>
            <DistanceMeters>NAN</DistanceMeters>
          </Trackpoint>
          <Trackpoint>
            <Time>2022-07-13T19:31:44.000Z</Time>
            <Position>
              <LatitudeDegrees>43.47226059995591640472412109375</LatitudeDegrees>
              <LongitudeDegrees>-3.9250328578054904937744140625</LongitudeDegrees>
            </Position>
            <AltitudeMeters>71.59999847412109375</AltitudeMeters>
            <DistanceMeters>NAN</DistanceMeters>
          </Trackpoint>
          <Trackpoint>
            <Time>2022-07-13T19:31:46.000Z</Time>
            <Position>
              <LatitudeDegrees>43.47218566574156284332275390625</LatitudeDegrees>
              <LongitudeDegrees>-3.92505574040114879608154296875</LongitudeDegrees>
            </Position>
            <AltitudeMeters>70.59999847412109375</AltitudeMeters>
            <DistanceMeters>NAN</DistanceMeters>
          </Trackpoint>
          <Trackpoint>
            <Time>2022-07-13T19:31:48.000Z</Time>
            <Position>
              <LatitudeDegrees>43.4721103124320507049560546875</LatitudeDegrees>
              <LongitudeDegrees>-3.925088681280612945556640625</LongitudeDegrees>
            </Position>
            <AltitudeMeters>69.59999847412109375</AltitudeMeters>
            <DistanceMeters>NAN</DistanceMeters>
          </Trackpoint>
          <Trackpoint>
            <Time>2022-07-13T19:31:50.000Z</Time>
            <Position>
              <LatitudeDegrees>43.472036384046077728271484375</LatitudeDegrees>
              <LongitudeDegrees>-3.92512346617877483367919921875</LongitudeDegrees>
            </Position>
            <AltitudeMeters>68.40000152587890625</AltitudeMeters>
            <DistanceMeters>NAN</DistanceMeters>
          </Trackpoint>
          <Trackpoint>
            <Time>2022-07-13T19:31:52.000Z</Time>
            <Position>
              <LatitudeDegrees>43.47198776900768280029296875</LatitudeDegrees>
              <LongitudeDegrees>-3.9251505397260189056396484375</LongitudeDegrees>
            </Position>
            <AltitudeMeters>67.59999847412109375</AltitudeMeters>
            <DistanceMeters>NAN</DistanceMeters>
          </Trackpoint>
          <Trackpoint>
            <Time>2022-07-13T19:31:54.000Z</Time>
            <Position>
              <LatitudeDegrees>43.47198315896093845367431640625</LatitudeDegrees>
              <LongitudeDegrees>-3.92515582032501697540283203125</LongitudeDegrees>
            </Position>
            <AltitudeMeters>67.40000152587890625</AltitudeMeters>
            <DistanceMeters>NAN</DistanceMeters>
          </Trackpoint>
          <Trackpoint>
            <Time>2022-07-13T19:31:55.000Z</Time>
            <Position>
              <LatitudeDegrees>43.47198315896093845367431640625</LatitudeDegrees>
              <LongitudeDegrees>-3.92515582032501697540283203125</LongitudeDegrees>
            </Position>
            <AltitudeMeters>67.40000152587890625</AltitudeMeters>
            <DistanceMeters>NAN</DistanceMeters>
          </Trackpoint>
          <Trackpoint>
            <Time>2022-07-13T19:32:14.000Z</Time>
            <Position>
              <LatitudeDegrees>43.471939824521541595458984375</LatitudeDegrees>
              <LongitudeDegrees>-3.9251823909580707550048828125</LongitudeDegrees>
            </Position>
            <AltitudeMeters>67.1999969482421875</AltitudeMeters>
            <DistanceMeters>NAN</DistanceMeters>
          </Trackpoint>
          <Trackpoint>
            <Time>2022-07-13T19:32:16.000Z</Time>
            <Position>
              <LatitudeDegrees>43.4718997590243816375732421875</LatitudeDegrees>
              <LongitudeDegrees>-3.92520342953503131866455078125</LongitudeDegrees>
            </Position>
            <AltitudeMeters>66.8000030517578125</AltitudeMeters>
            <DistanceMeters>NAN</DistanceMeters>
          </Trackpoint>
          <Trackpoint>
            <Time>2022-07-13T19:32:19.000Z</Time>
            <Position>
              <LatitudeDegrees>43.47182138822972774505615234375</LatitudeDegrees>
              <LongitudeDegrees>-3.92523410730063915252685546875</LongitudeDegrees>
            </Position>
            <AltitudeMeters>66.59999847412109375</AltitudeMeters>
            <DistanceMeters>NAN</DistanceMeters>
          </Trackpoint>
          <Trackpoint>
            <Time>2022-07-13T19:32:22.000Z</Time>
            <Position>
              <LatitudeDegrees>43.47174913622438907623291015625</LatitudeDegrees>
              <LongitudeDegrees>-3.9252702333033084869384765625</LongitudeDegrees>
            </Position>
            <AltitudeMeters>66.40000152587890625</AltitudeMeters>
            <DistanceMeters>NAN</DistanceMeters>
          </Trackpoint>
          <Trackpoint>
            <Time>2022-07-13T19:32:29.000Z</Time>
            <Position>
              <LatitudeDegrees>43.47161318175494670867919921875</LatitudeDegrees>
              <LongitudeDegrees>-3.9253718219697475433349609375</LongitudeDegrees>
            </Position>
            <AltitudeMeters>66.59999847412109375</AltitudeMeters>
            <DistanceMeters>NAN</DistanceMeters>
          </Trackpoint>
          <Trackpoint>
            <Time>2022-07-13T19:32:36.000Z</Time>
            <Position>
              <LatitudeDegrees>43.4715043008327484130859375</LatitudeDegrees>
              <LongitudeDegrees>-3.92542789690196514129638671875</LongitudeDegrees>
            </Position>
            <AltitudeMeters>67</AltitudeMeters>
            <DistanceMeters>NAN</DistanceMeters>
          </Trackpoint>
          <Trackpoint>
            <Time>2022-07-13T19:32:40.000Z</Time>
            <Position>
              <LatitudeDegrees>43.4714622236788272857666015625</LatitudeDegrees>
              <LongitudeDegrees>-3.92548464238643646240234375</LongitudeDegrees>
            </Position>
            <AltitudeMeters>67.40000152587890625</AltitudeMeters>
            <DistanceMeters>NAN</DistanceMeters>
          </Trackpoint>
          <Trackpoint>
            <Time>2022-07-13T19:32:42.000Z</Time>
            <Position>
              <LatitudeDegrees>43.4714508242905139923095703125</LatitudeDegrees>
              <LongitudeDegrees>-3.925519846379756927490234375</LongitudeDegrees>
            </Position>
            <AltitudeMeters>67.59999847412109375</AltitudeMeters>
            <DistanceMeters>NAN</DistanceMeters>
          </Trackpoint>
          <Trackpoint>
            <Time>2022-07-13T19:32:43.000Z</Time>
            <Position>
              <LatitudeDegrees>43.47144219093024730682373046875</LatitudeDegrees>
              <LongitudeDegrees>-3.92553820274770259857177734375</LongitudeDegrees>
            </Position>
            <AltitudeMeters>67.59999847412109375</AltitudeMeters>
            <DistanceMeters>NAN</DistanceMeters>
          </Trackpoint>
          <Trackpoint>
            <Time>2022-07-13T19:32:48.000Z</Time>
            <Position>
              <LatitudeDegrees>43.4713770635426044464111328125</LatitudeDegrees>
              <LongitudeDegrees>-3.9256816171109676361083984375</LongitudeDegrees>
            </Position>
            <AltitudeMeters>67.1999969482421875</AltitudeMeters>
            <DistanceMeters>NAN</DistanceMeters>
          </Trackpoint>
          <Trackpoint>
            <Time>2022-07-13T19:32:49.000Z</Time>
            <Position>
              <LatitudeDegrees>43.471365831792354583740234375</LatitudeDegrees>
              <LongitudeDegrees>-3.92571439035236835479736328125</LongitudeDegrees>
            </Position>
            <AltitudeMeters>67</AltitudeMeters>
            <DistanceMeters>NAN</DistanceMeters>
          </Trackpoint>
          <Trackpoint>
            <Time>2022-07-13T19:32:50.000Z</Time>
            <Position>
              <LatitudeDegrees>43.47135652787983417510986328125</LatitudeDegrees>
              <LongitudeDegrees>-3.92575152218341827392578125</LongitudeDegrees>
            </Position>
            <AltitudeMeters>67</AltitudeMeters>
            <DistanceMeters>NAN</DistanceMeters>
          </Trackpoint>
          <Trackpoint>
            <Time>2022-07-13T19:32:54.000Z</Time>
            <Position>
              <LatitudeDegrees>43.47132434137165546417236328125</LatitudeDegrees>
              <LongitudeDegrees>-3.9259116165339946746826171875</LongitudeDegrees>
            </Position>
            <AltitudeMeters>66.1999969482421875</AltitudeMeters>
            <DistanceMeters>NAN</DistanceMeters>
          </Trackpoint>
          <Trackpoint>
            <Time>2022-07-13T19:32:55.000Z</Time>
            <Position>
              <LatitudeDegrees>43.471316881477832794189453125</LatitudeDegrees>
              <LongitudeDegrees>-3.92595671117305755615234375</LongitudeDegrees>
            </Position>
            <AltitudeMeters>66.1999969482421875</AltitudeMeters>
            <DistanceMeters>NAN</DistanceMeters>
          </Trackpoint>
          <Trackpoint>
            <Time>2022-07-13T19:32:56.000Z</Time>
            <Position>
              <LatitudeDegrees>43.47130606882274150848388671875</LatitudeDegrees>
              <LongitudeDegrees>-3.92600909806787967681884765625</LongitudeDegrees>
            </Position>
            <AltitudeMeters>66</AltitudeMeters>
            <DistanceMeters>NAN</DistanceMeters>
          </Trackpoint>
          <Trackpoint>
            <Time>2022-07-13T19:33:01.000Z</Time>
            <Position>
              <LatitudeDegrees>43.47127991728484630584716796875</LatitudeDegrees>
              <LongitudeDegrees>-3.92616433091461658477783203125</LongitudeDegrees>
            </Position>
            <AltitudeMeters>65.59999847412109375</AltitudeMeters>
            <DistanceMeters>NAN</DistanceMeters>
          </Trackpoint>
          <Trackpoint>
            <Time>2022-07-13T19:33:04.000Z</Time>
            <Position>
              <LatitudeDegrees>43.47127966582775115966796875</LatitudeDegrees>
              <LongitudeDegrees>-3.926173634827136993408203125</LongitudeDegrees>
            </Position>
            <AltitudeMeters>65.59999847412109375</AltitudeMeters>
            <DistanceMeters>NAN</DistanceMeters>
          </Trackpoint>
          <Trackpoint>
            <Time>2022-07-13T19:33:14.000Z</Time>
            <Position>
              <LatitudeDegrees>43.471259213984012603759765625</LatitudeDegrees>
              <LongitudeDegrees>-3.92622384242713451385498046875</LongitudeDegrees>
            </Position>
            <AltitudeMeters>65.59999847412109375</AltitudeMeters>
            <DistanceMeters>NAN</DistanceMeters>
          </Trackpoint>
          <Trackpoint>
            <Time>2022-07-13T19:33:15.000Z</Time>
            <Position>
              <LatitudeDegrees>43.4712577052414417266845703125</LatitudeDegrees>
              <LongitudeDegrees>-3.9262432046234607696533203125</LongitudeDegrees>
            </Position>
            <AltitudeMeters>65.40000152587890625</AltitudeMeters>
            <DistanceMeters>NAN</DistanceMeters>
          </Trackpoint>
          <Trackpoint>
            <Time>2022-07-13T19:33:20.000Z</Time>
            <Position>
              <LatitudeDegrees>43.4712365828454494476318359375</LatitudeDegrees>
              <LongitudeDegrees>-3.9263649098575115203857421875</LongitudeDegrees>
            </Position>
            <AltitudeMeters>65.40000152587890625</AltitudeMeters>
            <DistanceMeters>NAN</DistanceMeters>
          </Trackpoint>
          <Trackpoint>
            <Time>2022-07-13T19:33:21.000Z</Time>
            <Position>
              <LatitudeDegrees>43.47123499028384685516357421875</LatitudeDegrees>
              <LongitudeDegrees>-3.9263950847089290618896484375</LongitudeDegrees>
            </Position>
            <AltitudeMeters>65.40000152587890625</AltitudeMeters>
            <DistanceMeters>NAN</DistanceMeters>
          </Trackpoint>
          <Trackpoint>
            <Time>2022-07-13T19:33:29.000Z</Time>
            <Position>
              <LatitudeDegrees>43.4711990319192409515380859375</LatitudeDegrees>
              <LongitudeDegrees>-3.9265882037580013275146484375</LongitudeDegrees>
            </Position>
            <AltitudeMeters>65.59999847412109375</AltitudeMeters>
            <DistanceMeters>NAN</DistanceMeters>
          </Trackpoint>
          <Trackpoint>
            <Time>2022-07-13T19:33:31.000Z</Time>
            <Position>
              <LatitudeDegrees>43.47119173966348171234130859375</LatitudeDegrees>
              <LongitudeDegrees>-3.9266270957887172698974609375</LongitudeDegrees>
            </Position>
            <AltitudeMeters>65.59999847412109375</AltitudeMeters>
            <DistanceMeters>NAN</DistanceMeters>
          </Trackpoint>
          <Trackpoint>
            <Time>2022-07-13T19:33:38.000Z</Time>
            <Position>
              <LatitudeDegrees>43.471172042191028594970703125</LatitudeDegrees>
              <LongitudeDegrees>-3.92680034972727298736572265625</LongitudeDegrees>
            </Position>
            <AltitudeMeters>65.8000030517578125</AltitudeMeters>
            <DistanceMeters>NAN</DistanceMeters>
          </Trackpoint>
          <Trackpoint>
            <Time>2022-07-13T19:33:48.000Z</Time>
            <Position>
              <LatitudeDegrees>43.4711524285376071929931640625</LatitudeDegrees>
              <LongitudeDegrees>-3.92706169746816158294677734375</LongitudeDegrees>
            </Position>
            <AltitudeMeters>66.1999969482421875</AltitudeMeters>
            <DistanceMeters>NAN</DistanceMeters>
          </Trackpoint>
          <Trackpoint>
            <Time>2022-07-13T19:33:58.000Z</Time>
            <Position>
              <LatitudeDegrees>43.4711303003132343292236328125</LatitudeDegrees>
              <LongitudeDegrees>-3.92728197388350963592529296875</LongitudeDegrees>
            </Position>
            <AltitudeMeters>66.1999969482421875</AltitudeMeters>
            <DistanceMeters>NAN</DistanceMeters>
          </Trackpoint>
          <Trackpoint>
            <Time>2022-07-13T19:34:04.000Z</Time>
            <Position>
              <LatitudeDegrees>43.47111915238201618194580078125</LatitudeDegrees>
              <LongitudeDegrees>-3.92741558142006397247314453125</LongitudeDegrees>
            </Position>
            <AltitudeMeters>66.40000152587890625</AltitudeMeters>
            <DistanceMeters>NAN</DistanceMeters>
          </Trackpoint>
          <Trackpoint>
            <Time>2022-07-13T19:34:12.000Z</Time>
            <Position>
              <LatitudeDegrees>43.471092917025089263916015625</LatitudeDegrees>
              <LongitudeDegrees>-3.9276128076016902923583984375</LongitudeDegrees>
            </Position>
            <AltitudeMeters>66.1999969482421875</AltitudeMeters>
            <DistanceMeters>NAN</DistanceMeters>
          </Trackpoint>
          <Trackpoint>
            <Time>2022-07-13T19:34:18.000Z</Time>
            <Position>
              <LatitudeDegrees>43.47102695144712924957275390625</LatitudeDegrees>
              <LongitudeDegrees>-3.92777684144675731658935546875</LongitudeDegrees>
            </Position>
            <AltitudeMeters>64.8000030517578125</AltitudeMeters>
            <DistanceMeters>NAN</DistanceMeters>
          </Trackpoint>
          <Trackpoint>
            <Time>2022-07-13T19:34:19.000Z</Time>
            <Position>
              <LatitudeDegrees>43.471011780202388763427734375</LatitudeDegrees>
              <LongitudeDegrees>-3.9278102852404117584228515625</LongitudeDegrees>
            </Position>
            <AltitudeMeters>64.59999847412109375</AltitudeMeters>
            <DistanceMeters>NAN</DistanceMeters>
          </Trackpoint>
          <Trackpoint>
            <Time>2022-07-13T19:34:22.000Z</Time>
            <Position>
              <LatitudeDegrees>43.47095821984112262725830078125</LatitudeDegrees>
              <LongitudeDegrees>-3.927936851978302001953125</LongitudeDegrees>
            </Position>
            <AltitudeMeters>63.40000152587890625</AltitudeMeters>
            <DistanceMeters>NAN</DistanceMeters>
          </Trackpoint>
          <Trackpoint>
            <Time>2022-07-13T19:34:23.000Z</Time>
            <Position>
              <LatitudeDegrees>43.470950424671173095703125</LatitudeDegrees>
              <LongitudeDegrees>-3.9279712177813053131103515625</LongitudeDegrees>
            </Position>
            <AltitudeMeters>63</AltitudeMeters>
            <DistanceMeters>NAN</DistanceMeters>
          </Trackpoint>
          <Trackpoint>
            <Time>2022-07-13T19:34:25.000Z</Time>
            <Position>
              <LatitudeDegrees>43.47093592397868633270263671875</LatitudeDegrees>
              <LongitudeDegrees>-3.92806358635425567626953125</LongitudeDegrees>
            </Position>
            <AltitudeMeters>62</AltitudeMeters>
            <DistanceMeters>NAN</DistanceMeters>
          </Trackpoint>
          <Trackpoint>
            <Time>2022-07-13T19:34:29.000Z</Time>
            <Position>
              <LatitudeDegrees>43.4709277935326099395751953125</LatitudeDegrees>
              <LongitudeDegrees>-3.92824195325374603271484375</LongitudeDegrees>
            </Position>
            <AltitudeMeters>60.799999237060546875</AltitudeMeters>
            <DistanceMeters>NAN</DistanceMeters>
          </Trackpoint>
          <Trackpoint>
            <Time>2022-07-13T19:34:35.000Z</Time>
            <Position>
              <LatitudeDegrees>43.470907844603061676025390625</LatitudeDegrees>
              <LongitudeDegrees>-3.92848142422735691070556640625</LongitudeDegrees>
            </Position>
            <AltitudeMeters>60.200000762939453125</AltitudeMeters>
            <DistanceMeters>NAN</DistanceMeters>
          </Trackpoint>
          <Trackpoint>
            <Time>2022-07-13T19:34:37.000Z</Time>
            <Position>
              <LatitudeDegrees>43.47088160924613475799560546875</LatitudeDegrees>
              <LongitudeDegrees>-3.9285696856677532196044921875</LongitudeDegrees>
            </Position>
            <AltitudeMeters>59.40000152587890625</AltitudeMeters>
            <DistanceMeters>NAN</DistanceMeters>
          </Trackpoint>
          <Trackpoint>
            <Time>2022-07-13T19:34:39.000Z</Time>
            <Position>
              <LatitudeDegrees>43.47085897810757160186767578125</LatitudeDegrees>
              <LongitudeDegrees>-3.9286545105278491973876953125</LongitudeDegrees>
            </Position>
            <AltitudeMeters>58</AltitudeMeters>
            <DistanceMeters>NAN</DistanceMeters>
          </Trackpoint>
          <Trackpoint>
            <Time>2022-07-13T19:34:42.000Z</Time>
            <Position>
              <LatitudeDegrees>43.47083081491291522979736328125</LatitudeDegrees>
              <LongitudeDegrees>-3.9287594519555568695068359375</LongitudeDegrees>
            </Position>
            <AltitudeMeters>56.59999847412109375</AltitudeMeters>
            <DistanceMeters>NAN</DistanceMeters>
          </Trackpoint>
          <Trackpoint>
            <Time>2022-07-13T19:34:43.000Z</Time>
            <Position>
              <LatitudeDegrees>43.4708325751125812530517578125</LatitudeDegrees>
              <LongitudeDegrees>-3.9287812449038028717041015625</LongitudeDegrees>
            </Position>
            <AltitudeMeters>56</AltitudeMeters>
            <DistanceMeters>NAN</DistanceMeters>
          </Trackpoint>
          <Trackpoint>
            <Time>2022-07-13T19:34:44.000Z</Time>
            <Position>
              <LatitudeDegrees>43.47083576023578643798828125</LatitudeDegrees>
              <LongitudeDegrees>-3.92878920771181583404541015625</LongitudeDegrees>
            </Position>
            <AltitudeMeters>55.40000152587890625</AltitudeMeters>
            <DistanceMeters>NAN</DistanceMeters>
          </Trackpoint>
          <Trackpoint>
            <Time>2022-07-13T19:34:45.000Z</Time>
            <Position>
              <LatitudeDegrees>43.47083576023578643798828125</LatitudeDegrees>
              <LongitudeDegrees>-3.92878920771181583404541015625</LongitudeDegrees>
            </Position>
            <AltitudeMeters>55.200000762939453125</AltitudeMeters>
            <DistanceMeters>NAN</DistanceMeters>
          </Trackpoint>
          <Trackpoint>
            <Time>2022-07-13T19:34:46.000Z</Time>
            <Position>
              <LatitudeDegrees>43.47083576023578643798828125</LatitudeDegrees>
              <LongitudeDegrees>-3.92878920771181583404541015625</LongitudeDegrees>
            </Position>
            <AltitudeMeters>55</AltitudeMeters>
            <DistanceMeters>NAN</DistanceMeters>
          </Trackpoint>
          <Trackpoint>
            <Time>2022-07-13T19:35:04.000Z</Time>
            <Position>
              <LatitudeDegrees>43.4708198346197605133056640625</LatitudeDegrees>
              <LongitudeDegrees>-3.92882189713418483734130859375</LongitudeDegrees>
            </Position>
            <AltitudeMeters>54.40000152587890625</AltitudeMeters>
            <DistanceMeters>NAN</DistanceMeters>
          </Trackpoint>
          <Trackpoint>
            <Time>2022-07-13T19:35:06.000Z</Time>
            <Position>
              <LatitudeDegrees>43.470798544585704803466796875</LatitudeDegrees>
              <LongitudeDegrees>-3.9288962446153163909912109375</LongitudeDegrees>
            </Position>
            <AltitudeMeters>54</AltitudeMeters>
            <DistanceMeters>NAN</DistanceMeters>
          </Trackpoint>
          <Trackpoint>
            <Time>2022-07-13T19:35:09.000Z</Time>
            <Position>
              <LatitudeDegrees>43.47077432088553905487060546875</LatitudeDegrees>
              <LongitudeDegrees>-3.92902038060128688812255859375</LongitudeDegrees>
            </Position>
            <AltitudeMeters>53.200000762939453125</AltitudeMeters>
            <DistanceMeters>NAN</DistanceMeters>
          </Trackpoint>
          <Trackpoint>
            <Time>2022-07-13T19:35:12.000Z</Time>
            <Position>
              <LatitudeDegrees>43.4707397036254405975341796875</LatitudeDegrees>
              <LongitudeDegrees>-3.92918969504535198211669921875</LongitudeDegrees>
            </Position>
            <AltitudeMeters>52.40000152587890625</AltitudeMeters>
            <DistanceMeters>NAN</DistanceMeters>
          </Trackpoint>
          <Trackpoint>
            <Time>2022-07-13T19:35:13.000Z</Time>
            <Position>
              <LatitudeDegrees>43.47073693759739398956298828125</LatitudeDegrees>
              <LongitudeDegrees>-3.9292466081678867340087890625</LongitudeDegrees>
            </Position>
            <AltitudeMeters>52.200000762939453125</AltitudeMeters>
            <DistanceMeters>NAN</DistanceMeters>
          </Trackpoint>
          <Trackpoint>
            <Time>2022-07-13T19:35:14.000Z</Time>
            <Position>
              <LatitudeDegrees>43.47073643468320369720458984375</LatitudeDegrees>
              <LongitudeDegrees>-3.929304443299770355224609375</LongitudeDegrees>
            </Position>
            <AltitudeMeters>52</AltitudeMeters>
            <DistanceMeters>NAN</DistanceMeters>
          </Trackpoint>
          <Trackpoint>
            <Time>2022-07-13T19:35:18.000Z</Time>
            <Position>
              <LatitudeDegrees>43.4707383625209331512451171875</LatitudeDegrees>
              <LongitudeDegrees>-3.929489515721797943115234375</LongitudeDegrees>
            </Position>
            <AltitudeMeters>51.200000762939453125</AltitudeMeters>
            <DistanceMeters>NAN</DistanceMeters>
          </Trackpoint>
          <Trackpoint>
            <Time>2022-07-13T19:35:20.000Z</Time>
            <Position>
              <LatitudeDegrees>43.47073509357869625091552734375</LatitudeDegrees>
              <LongitudeDegrees>-3.9295607618987560272216796875</LongitudeDegrees>
            </Position>
            <AltitudeMeters>51</AltitudeMeters>
            <DistanceMeters>NAN</DistanceMeters>
          </Trackpoint>
          <Trackpoint>
            <Time>2022-07-13T19:35:23.000Z</Time>
            <Position>
              <LatitudeDegrees>43.47072453238070011138916015625</LatitudeDegrees>
              <LongitudeDegrees>-3.92965740524232387542724609375</LongitudeDegrees>
            </Position>
            <AltitudeMeters>51</AltitudeMeters>
            <DistanceMeters>NAN</DistanceMeters>
          </Trackpoint>
          <Trackpoint>
            <Time>2022-07-13T19:35:25.000Z</Time>
            <Position>
              <LatitudeDegrees>43.470722101628780364990234375</LatitudeDegrees>
              <LongitudeDegrees>-3.929706774652004241943359375</LongitudeDegrees>
            </Position>
            <AltitudeMeters>51.200000762939453125</AltitudeMeters>
            <DistanceMeters>NAN</DistanceMeters>
          </Trackpoint>
          <Trackpoint>
            <Time>2022-07-13T19:35:29.000Z</Time>
            <Position>
              <LatitudeDegrees>43.4707443974912166595458984375</LatitudeDegrees>
              <LongitudeDegrees>-3.929783217608928680419921875</LongitudeDegrees>
            </Position>
            <AltitudeMeters>52</AltitudeMeters>
            <DistanceMeters>NAN</DistanceMeters>
          </Trackpoint>
          <Trackpoint>
            <Time>2022-07-13T19:35:30.000Z</Time>
            <Position>
              <LatitudeDegrees>43.47075185738503932952880859375</LatitudeDegrees>
              <LongitudeDegrees>-3.9298031665384769439697265625</LongitudeDegrees>
            </Position>
            <AltitudeMeters>52.200000762939453125</AltitudeMeters>
            <DistanceMeters>NAN</DistanceMeters>
          </Trackpoint>
          <Trackpoint>
            <Time>2022-07-13T19:35:33.000Z</Time>
            <Position>
              <LatitudeDegrees>43.4707613289356231689453125</LatitudeDegrees>
              <LongitudeDegrees>-3.92984566278755664825439453125</LongitudeDegrees>
            </Position>
            <AltitudeMeters>53.200000762939453125</AltitudeMeters>
            <DistanceMeters>NAN</DistanceMeters>
          </Trackpoint>
          <Trackpoint>
            <Time>2022-07-13T19:35:35.000Z</Time>
            <Position>
              <LatitudeDegrees>43.4707613289356231689453125</LatitudeDegrees>
              <LongitudeDegrees>-3.92984566278755664825439453125</LongitudeDegrees>
            </Position>
            <AltitudeMeters>53.59999847412109375</AltitudeMeters>
            <DistanceMeters>NAN</DistanceMeters>
          </Trackpoint>
          <Trackpoint>
            <Time>2022-07-13T19:35:45.000Z</Time>
            <Position>
              <LatitudeDegrees>43.470776081085205078125</LatitudeDegrees>
              <LongitudeDegrees>-3.92990894615650177001953125</LongitudeDegrees>
            </Position>
            <AltitudeMeters>54.40000152587890625</AltitudeMeters>
            <DistanceMeters>NAN</DistanceMeters>
          </Trackpoint>
          <Trackpoint>
            <Time>2022-07-13T19:35:48.000Z</Time>
            <Position>
              <LatitudeDegrees>43.4707816131412982940673828125</LatitudeDegrees>
              <LongitudeDegrees>-3.92992411740124225616455078125</LongitudeDegrees>
            </Position>
            <AltitudeMeters>54.799999237060546875</AltitudeMeters>
            <DistanceMeters>NAN</DistanceMeters>
          </Trackpoint>
          <Trackpoint>
            <Time>2022-07-13T19:35:49.000Z</Time>
            <Position>
              <LatitudeDegrees>43.4707816131412982940673828125</LatitudeDegrees>
              <LongitudeDegrees>-3.92992411740124225616455078125</LongitudeDegrees>
            </Position>
            <AltitudeMeters>55.200000762939453125</AltitudeMeters>
            <DistanceMeters>NAN</DistanceMeters>
          </Trackpoint>
          <Trackpoint>
            <Time>2022-07-13T19:43:34.000Z</Time>
            <Position>
              <LatitudeDegrees>43.470781110227108001708984375</LatitudeDegrees>
              <LongitudeDegrees>-3.92951608635485172271728515625</LongitudeDegrees>
            </Position>
            <AltitudeMeters>46.799999237060546875</AltitudeMeters>
            <DistanceMeters>NAN</DistanceMeters>
          </Trackpoint>
          <Trackpoint>
            <Time>2022-07-13T19:43:35.000Z</Time>
            <Position>
              <LatitudeDegrees>43.47078320570290088653564453125</LatitudeDegrees>
              <LongitudeDegrees>-3.9295225404202938079833984375</LongitudeDegrees>
            </Position>
            <AltitudeMeters>46.799999237060546875</AltitudeMeters>
            <DistanceMeters>NAN</DistanceMeters>
          </Trackpoint>
          <Trackpoint>
            <Time>2022-07-13T19:43:36.000Z</Time>
            <Position>
              <LatitudeDegrees>43.47078320570290088653564453125</LatitudeDegrees>
              <LongitudeDegrees>-3.9295225404202938079833984375</LongitudeDegrees>
            </Position>
            <AltitudeMeters>47</AltitudeMeters>
            <DistanceMeters>NAN</DistanceMeters>
          </Trackpoint>
          <Trackpoint>
            <Time>2022-07-13T19:43:37.000Z</Time>
            <Position>
              <LatitudeDegrees>43.47078320570290088653564453125</LatitudeDegrees>
              <LongitudeDegrees>-3.9295225404202938079833984375</LongitudeDegrees>
            </Position>
            <AltitudeMeters>47</AltitudeMeters>
            <DistanceMeters>NAN</DistanceMeters>
          </Trackpoint>
          <Trackpoint>
            <Time>2022-07-13T19:58:57.000Z</Time>
            <Position>
              <LatitudeDegrees>43.47025908529758453369140625</LatitudeDegrees>
              <LongitudeDegrees>-3.9295795373618602752685546875</LongitudeDegrees>
            </Position>
            <AltitudeMeters>28.799999237060546875</AltitudeMeters>
            <DistanceMeters>NAN</DistanceMeters>
          </Trackpoint>
          <Trackpoint>
            <Time>2022-07-13T19:59:00.000Z</Time>
            <Position>
              <LatitudeDegrees>43.47022865898907184600830078125</LatitudeDegrees>
              <LongitudeDegrees>-3.929588086903095245361328125</LongitudeDegrees>
            </Position>
            <AltitudeMeters>28.6000003814697265625</AltitudeMeters>
            <DistanceMeters>NAN</DistanceMeters>
          </Trackpoint>
          <Trackpoint>
            <Time>2022-07-13T19:59:04.000Z</Time>
            <Position>
              <LatitudeDegrees>43.47017652355134487152099609375</LatitudeDegrees>
              <LongitudeDegrees>-3.92957911826670169830322265625</LongitudeDegrees>
            </Position>
            <AltitudeMeters>28.3999996185302734375</AltitudeMeters>
            <DistanceMeters>NAN</DistanceMeters>
          </Trackpoint>
          <Trackpoint>
            <Time>2022-07-13T19:59:06.000Z</Time>
            <Position>
              <LatitudeDegrees>43.47015322186052799224853515625</LatitudeDegrees>
              <LongitudeDegrees>-3.9295795373618602752685546875</LongitudeDegrees>
            </Position>
            <AltitudeMeters>28.3999996185302734375</AltitudeMeters>
            <DistanceMeters>NAN</DistanceMeters>
          </Trackpoint>
          <Trackpoint>
            <Time>2022-07-13T19:59:10.000Z</Time>
            <Position>
              <LatitudeDegrees>43.47011114470660686492919921875</LatitudeDegrees>
              <LongitudeDegrees>-3.929570652544498443603515625</LongitudeDegrees>
            </Position>
            <AltitudeMeters>28.3999996185302734375</AltitudeMeters>
            <DistanceMeters>NAN</DistanceMeters>
          </Trackpoint>
          <Trackpoint>
            <Time>2022-07-13T19:59:12.000Z</Time>
            <Position>
              <LatitudeDegrees>43.47008876502513885498046875</LatitudeDegrees>
              <LongitudeDegrees>-3.9295661263167858123779296875</LongitudeDegrees>
            </Position>
            <AltitudeMeters>28.3999996185302734375</AltitudeMeters>
            <DistanceMeters>NAN</DistanceMeters>
          </Trackpoint>
          <Trackpoint>
            <Time>2022-07-13T19:59:15.000Z</Time>
            <Position>
              <LatitudeDegrees>43.47006722353398799896240234375</LatitudeDegrees>
              <LongitudeDegrees>-3.9295607618987560272216796875</LongitudeDegrees>
            </Position>
            <AltitudeMeters>29</AltitudeMeters>
            <DistanceMeters>NAN</DistanceMeters>
          </Trackpoint>
          <Trackpoint>
            <Time>2022-07-13T19:59:24.000Z</Time>
            <Position>
              <LatitudeDegrees>43.4699876792728900909423828125</LatitudeDegrees>
              <LongitudeDegrees>-3.929545171558856964111328125</LongitudeDegrees>
            </Position>
            <AltitudeMeters>28.3999996185302734375</AltitudeMeters>
            <DistanceMeters>NAN</DistanceMeters>
          </Trackpoint>
          <Trackpoint>
            <Time>2022-07-13T19:59:34.000Z</Time>
            <Position>
              <LatitudeDegrees>43.4699383936822414398193359375</LatitudeDegrees>
              <LongitudeDegrees>-3.92955598421394824981689453125</LongitudeDegrees>
            </Position>
            <AltitudeMeters>28.6000003814697265625</AltitudeMeters>
            <DistanceMeters>NAN</DistanceMeters>
          </Trackpoint>
          <Trackpoint>
            <Time>2022-07-13T19:59:35.000Z</Time>
            <Position>
              <LatitudeDegrees>43.4699383936822414398193359375</LatitudeDegrees>
              <LongitudeDegrees>-3.92955598421394824981689453125</LongitudeDegrees>
            </Position>
            <AltitudeMeters>28.6000003814697265625</AltitudeMeters>
            <DistanceMeters>NAN</DistanceMeters>
          </Trackpoint>
          <Trackpoint>
            <Time>2022-07-14T04:57:09.000Z</Time>
            <Position>
              <LatitudeDegrees>43.470161855220794677734375</LatitudeDegrees>
              <LongitudeDegrees>-3.929497562348842620849609375</LongitudeDegrees>
            </Position>
            <AltitudeMeters>32.200000762939453125</AltitudeMeters>
            <DistanceMeters>NAN</DistanceMeters>
          </Trackpoint>
          <Trackpoint>
            <Time>2022-07-14T04:57:10.000Z</Time>
            <Position>
              <LatitudeDegrees>43.470161855220794677734375</LatitudeDegrees>
              <LongitudeDegrees>-3.929497562348842620849609375</LongitudeDegrees>
            </Position>
            <AltitudeMeters>32.200000762939453125</AltitudeMeters>
            <DistanceMeters>NAN</DistanceMeters>
          </Trackpoint>
          <Trackpoint>
            <Time>2022-07-14T05:00:19.000Z</Time>
            <Position>
              <LatitudeDegrees>43.4704087860882282257080078125</LatitudeDegrees>
              <LongitudeDegrees>-3.928592987358570098876953125</LongitudeDegrees>
            </Position>
            <AltitudeMeters>39.40000152587890625</AltitudeMeters>
            <DistanceMeters>NAN</DistanceMeters>
          </Trackpoint>
          <Trackpoint>
            <Time>2022-07-14T05:00:22.000Z</Time>
            <Position>
              <LatitudeDegrees>43.47040593624114990234375</LatitudeDegrees>
              <LongitudeDegrees>-3.92853858880698680877685546875</LongitudeDegrees>
            </Position>
            <AltitudeMeters>39.799999237060546875</AltitudeMeters>
            <DistanceMeters>NAN</DistanceMeters>
          </Trackpoint>
          <Trackpoint>
            <Time>2022-07-14T05:00:26.000Z</Time>
            <Position>
              <LatitudeDegrees>43.47038875333964824676513671875</LatitudeDegrees>
              <LongitudeDegrees>-3.92846784554421901702880859375</LongitudeDegrees>
            </Position>
            <AltitudeMeters>40.40000152587890625</AltitudeMeters>
            <DistanceMeters>NAN</DistanceMeters>
          </Trackpoint>
          <Trackpoint>
            <Time>2022-07-14T05:00:28.000Z</Time>
            <Position>
              <LatitudeDegrees>43.47037173807621002197265625</LatitudeDegrees>
              <LongitudeDegrees>-3.92843280918896198272705078125</LongitudeDegrees>
            </Position>
            <AltitudeMeters>40.59999847412109375</AltitudeMeters>
            <DistanceMeters>NAN</DistanceMeters>
          </Trackpoint>
          <Trackpoint>
            <Time>2022-07-14T05:00:30.000Z</Time>
            <Position>
              <LatitudeDegrees>43.4703702293336391448974609375</LatitudeDegrees>
              <LongitudeDegrees>-3.92839274369180202484130859375</LongitudeDegrees>
            </Position>
            <AltitudeMeters>40.799999237060546875</AltitudeMeters>
            <DistanceMeters>NAN</DistanceMeters>
          </Trackpoint>
          <Trackpoint>
            <Time>2022-07-14T05:00:33.000Z</Time>
            <Position>
              <LatitudeDegrees>43.4703725762665271759033203125</LatitudeDegrees>
              <LongitudeDegrees>-3.9283363334834575653076171875</LongitudeDegrees>
            </Position>
            <AltitudeMeters>41.200000762939453125</AltitudeMeters>
            <DistanceMeters>NAN</DistanceMeters>
          </Trackpoint>
          <Trackpoint>
            <Time>2022-07-14T05:00:35.000Z</Time>
            <Position>
              <LatitudeDegrees>43.4703712351620197296142578125</LatitudeDegrees>
              <LongitudeDegrees>-3.928287215530872344970703125</LongitudeDegrees>
            </Position>
            <AltitudeMeters>41.40000152587890625</AltitudeMeters>
            <DistanceMeters>NAN</DistanceMeters>
          </Trackpoint>
          <Trackpoint>
            <Time>2022-07-14T05:00:37.000Z</Time>
            <Position>
              <LatitudeDegrees>43.470372743904590606689453125</LatitudeDegrees>
              <LongitudeDegrees>-3.9282494969666004180908203125</LongitudeDegrees>
            </Position>
            <AltitudeMeters>41.799999237060546875</AltitudeMeters>
            <DistanceMeters>NAN</DistanceMeters>
          </Trackpoint>
          <Trackpoint>
            <Time>2022-07-14T05:00:40.000Z</Time>
            <Position>
              <LatitudeDegrees>43.47036545164883136749267578125</LatitudeDegrees>
              <LongitudeDegrees>-3.9281921647489070892333984375</LongitudeDegrees>
            </Position>
            <AltitudeMeters>42</AltitudeMeters>
            <DistanceMeters>NAN</DistanceMeters>
          </Trackpoint>
          <Trackpoint>
            <Time>2022-07-14T05:00:47.000Z</Time>
            <Position>
              <LatitudeDegrees>43.47034625709056854248046875</LatitudeDegrees>
              <LongitudeDegrees>-3.928061909973621368408203125</LongitudeDegrees>
            </Position>
            <AltitudeMeters>42.799999237060546875</AltitudeMeters>
            <DistanceMeters>NAN</DistanceMeters>
          </Trackpoint>
          <Trackpoint>
            <Time>2022-07-14T05:00:48.000Z</Time>
            <Position>
              <LatitudeDegrees>43.47034784965217113494873046875</LatitudeDegrees>
              <LongitudeDegrees>-3.92804858274757862091064453125</LongitudeDegrees>
            </Position>
            <AltitudeMeters>43</AltitudeMeters>
            <DistanceMeters>NAN</DistanceMeters>
          </Trackpoint>
          <Trackpoint>
            <Time>2022-07-14T05:00:49.000Z</Time>
            <Position>
              <LatitudeDegrees>43.47034952603280544281005859375</LatitudeDegrees>
              <LongitudeDegrees>-3.92802846617996692657470703125</LongitudeDegrees>
            </Position>
            <AltitudeMeters>43</AltitudeMeters>
            <DistanceMeters>NAN</DistanceMeters>
          </Trackpoint>
          <Trackpoint>
            <Time>2022-07-14T05:00:56.000Z</Time>
            <Position>
              <LatitudeDegrees>43.4703511185944080352783203125</LatitudeDegrees>
              <LongitudeDegrees>-3.92789728939533233642578125</LongitudeDegrees>
            </Position>
            <AltitudeMeters>43.799999237060546875</AltitudeMeters>
            <DistanceMeters>NAN</DistanceMeters>
          </Trackpoint>
          <Trackpoint>
            <Time>2022-07-14T05:00:58.000Z</Time>
            <Position>
              <LatitudeDegrees>43.47034583799540996551513671875</LatitudeDegrees>
              <LongitudeDegrees>-3.927864097058773040771484375</LongitudeDegrees>
            </Position>
            <AltitudeMeters>44</AltitudeMeters>
            <DistanceMeters>NAN</DistanceMeters>
          </Trackpoint>
          <Trackpoint>
            <Time>2022-07-14T05:01:04.000Z</Time>
            <Position>
              <LatitudeDegrees>43.47030862234532833099365234375</LatitudeDegrees>
              <LongitudeDegrees>-3.9277529530227184295654296875</LongitudeDegrees>
            </Position>
            <AltitudeMeters>44.59999847412109375</AltitudeMeters>
            <DistanceMeters>NAN</DistanceMeters>
          </Trackpoint>
          <Trackpoint>
            <Time>2022-07-14T05:01:05.000Z</Time>
            <Position>
              <LatitudeDegrees>43.47030342556536197662353515625</LatitudeDegrees>
              <LongitudeDegrees>-3.92773769795894622802734375</LongitudeDegrees>
            </Position>
            <AltitudeMeters>44.799999237060546875</AltitudeMeters>
            <DistanceMeters>NAN</DistanceMeters>
          </Trackpoint>
          <Trackpoint>
            <Time>2022-07-14T05:01:06.000Z</Time>
            <Position>
              <LatitudeDegrees>43.47029621712863445281982421875</LatitudeDegrees>
              <LongitudeDegrees>-3.92771364189684391021728515625</LongitudeDegrees>
            </Position>
            <AltitudeMeters>45</AltitudeMeters>
            <DistanceMeters>NAN</DistanceMeters>
          </Trackpoint>
          <Trackpoint>
            <Time>2022-07-14T05:01:13.000Z</Time>
            <Position>
              <LatitudeDegrees>43.47028029151260852813720703125</LatitudeDegrees>
              <LongitudeDegrees>-3.92758590169250965118408203125</LongitudeDegrees>
            </Position>
            <AltitudeMeters>45.799999237060546875</AltitudeMeters>
            <DistanceMeters>NAN</DistanceMeters>
          </Trackpoint>
          <Trackpoint>
            <Time>2022-07-14T05:01:16.000Z</Time>
            <Position>
              <LatitudeDegrees>43.4702723287045955657958984375</LatitudeDegrees>
              <LongitudeDegrees>-3.92753326334059238433837890625</LongitudeDegrees>
            </Position>
            <AltitudeMeters>46.200000762939453125</AltitudeMeters>
            <DistanceMeters>NAN</DistanceMeters>
          </Trackpoint>
          <Trackpoint>
            <Time>2022-07-14T05:01:22.000Z</Time>
            <Position>
              <LatitudeDegrees>43.47024835646152496337890625</LatitudeDegrees>
              <LongitudeDegrees>-3.927423544228076934814453125</LongitudeDegrees>
            </Position>
            <AltitudeMeters>46.799999237060546875</AltitudeMeters>
            <DistanceMeters>NAN</DistanceMeters>
          </Trackpoint>
          <Trackpoint>
            <Time>2022-07-14T05:01:23.000Z</Time>
            <Position>
              <LatitudeDegrees>43.4702465124428272247314453125</LatitudeDegrees>
              <LongitudeDegrees>-3.927404098212718963623046875</LongitudeDegrees>
            </Position>
            <AltitudeMeters>46.799999237060546875</AltitudeMeters>
            <DistanceMeters>NAN</DistanceMeters>
          </Trackpoint>
          <Trackpoint>
            <Time>2022-07-14T05:01:25.000Z</Time>
            <Position>
              <LatitudeDegrees>43.47023821435868740081787109375</LatitudeDegrees>
              <LongitudeDegrees>-3.92737501300871372222900390625</LongitudeDegrees>
            </Position>
            <AltitudeMeters>47.200000762939453125</AltitudeMeters>
            <DistanceMeters>NAN</DistanceMeters>
          </Trackpoint>
          <Trackpoint>
            <Time>2022-07-14T05:01:33.000Z</Time>
            <Position>
              <LatitudeDegrees>43.47021189518272876739501953125</LatitudeDegrees>
              <LongitudeDegrees>-3.9272383041679859161376953125</LongitudeDegrees>
            </Position>
            <AltitudeMeters>48.200000762939453125</AltitudeMeters>
            <DistanceMeters>NAN</DistanceMeters>
          </Trackpoint>
          <Trackpoint>
            <Time>2022-07-14T05:01:34.000Z</Time>
            <Position>
              <LatitudeDegrees>43.47021072171628475189208984375</LatitudeDegrees>
              <LongitudeDegrees>-3.9272178523242473602294921875</LongitudeDegrees>
            </Position>
            <AltitudeMeters>48.200000762939453125</AltitudeMeters>
            <DistanceMeters>NAN</DistanceMeters>
          </Trackpoint>
          <Trackpoint>
            <Time>2022-07-14T05:01:40.000Z</Time>
            <Position>
              <LatitudeDegrees>43.4702503681182861328125</LatitudeDegrees>
              <LongitudeDegrees>-3.9271162636578083038330078125</LongitudeDegrees>
            </Position>
            <AltitudeMeters>48.40000152587890625</AltitudeMeters>
            <DistanceMeters>NAN</DistanceMeters>
          </Trackpoint>
          <Trackpoint>
            <Time>2022-07-14T05:01:46.000Z</Time>
            <Position>
              <LatitudeDegrees>43.4703122265636920928955078125</LatitudeDegrees>
              <LongitudeDegrees>-3.92702096141874790191650390625</LongitudeDegrees>
            </Position>
            <AltitudeMeters>48.200000762939453125</AltitudeMeters>
            <DistanceMeters>NAN</DistanceMeters>
          </Trackpoint>
          <Trackpoint>
            <Time>2022-07-14T05:01:52.000Z</Time>
            <Position>
              <LatitudeDegrees>43.4703544713556766510009765625</LatitudeDegrees>
              <LongitudeDegrees>-3.927025236189365386962890625</LongitudeDegrees>
            </Position>
            <AltitudeMeters>48.40000152587890625</AltitudeMeters>
            <DistanceMeters>NAN</DistanceMeters>
          </Trackpoint>
          <Trackpoint>
            <Time>2022-07-14T05:02:22.000Z</Time>
            <Position>
              <LatitudeDegrees>43.4704791940748691558837890625</LatitudeDegrees>
              <LongitudeDegrees>-3.92699665389955043792724609375</LongitudeDegrees>
            </Position>
            <AltitudeMeters>48.59999847412109375</AltitudeMeters>
            <DistanceMeters>NAN</DistanceMeters>
          </Trackpoint>
          <Trackpoint>
            <Time>2022-07-14T05:02:23.000Z</Time>
            <Position>
              <LatitudeDegrees>43.47049704752862453460693359375</LatitudeDegrees>
              <LongitudeDegrees>-3.92700009047985076904296875</LongitudeDegrees>
            </Position>
            <AltitudeMeters>48.799999237060546875</AltitudeMeters>
            <DistanceMeters>NAN</DistanceMeters>
          </Trackpoint>
          <Trackpoint>
            <Time>2022-07-14T05:02:25.000Z</Time>
            <Position>
              <LatitudeDegrees>43.470535017549991607666015625</LatitudeDegrees>
              <LongitudeDegrees>-3.92700620926916599273681640625</LongitudeDegrees>
            </Position>
            <AltitudeMeters>49</AltitudeMeters>
            <DistanceMeters>NAN</DistanceMeters>
          </Trackpoint>
          <Trackpoint>
            <Time>2022-07-14T05:02:31.000Z</Time>
            <Position>
              <LatitudeDegrees>43.47063635475933551788330078125</LatitudeDegrees>
              <LongitudeDegrees>-3.92703252844512462615966796875</LongitudeDegrees>
            </Position>
            <AltitudeMeters>49.40000152587890625</AltitudeMeters>
            <DistanceMeters>NAN</DistanceMeters>
          </Trackpoint>
          <Trackpoint>
            <Time>2022-07-14T05:02:33.000Z</Time>
            <Position>
              <LatitudeDegrees>43.4706414677202701568603515625</LatitudeDegrees>
              <LongitudeDegrees>-3.92703051678836345672607421875</LongitudeDegrees>
            </Position>
            <AltitudeMeters>49.799999237060546875</AltitudeMeters>
            <DistanceMeters>NAN</DistanceMeters>
          </Trackpoint>
          <Trackpoint>
            <Time>2022-07-14T05:02:34.000Z</Time>
            <Position>
              <LatitudeDegrees>43.4706418029963970184326171875</LatitudeDegrees>
              <LongitudeDegrees>-3.92702825367450714111328125</LongitudeDegrees>
            </Position>
            <AltitudeMeters>50</AltitudeMeters>
            <DistanceMeters>NAN</DistanceMeters>
          </Trackpoint>
          <Trackpoint>
            <Time>2022-07-14T05:31:41.000Z</Time>
            <Position>
              <LatitudeDegrees>43.4706247039139270782470703125</LatitudeDegrees>
              <LongitudeDegrees>-3.927142918109893798828125</LongitudeDegrees>
            </Position>
            <AltitudeMeters>50.200000762939453125</AltitudeMeters>
            <DistanceMeters>NAN</DistanceMeters>
          </Trackpoint>
          <Trackpoint>
            <Time>2022-07-14T05:31:42.000Z</Time>
            <Position>
              <LatitudeDegrees>43.4706247039139270782470703125</LatitudeDegrees>
              <LongitudeDegrees>-3.927142918109893798828125</LongitudeDegrees>
            </Position>
            <AltitudeMeters>50.200000762939453125</AltitudeMeters>
            <DistanceMeters>NAN</DistanceMeters>
          </Trackpoint>
          <Trackpoint>
            <Time>2022-07-14T05:31:54.000Z</Time>
            <Position>
              <LatitudeDegrees>43.47055991180241107940673828125</LatitudeDegrees>
              <LongitudeDegrees>-3.92708919011056423187255859375</LongitudeDegrees>
            </Position>
            <AltitudeMeters>50.200000762939453125</AltitudeMeters>
            <DistanceMeters>NAN</DistanceMeters>
          </Trackpoint>
          <Trackpoint>
            <Time>2022-07-14T05:31:55.000Z</Time>
            <Position>
              <LatitudeDegrees>43.470522947609424591064453125</LatitudeDegrees>
              <LongitudeDegrees>-3.92708248458802700042724609375</LongitudeDegrees>
            </Position>
            <AltitudeMeters>50.200000762939453125</AltitudeMeters>
            <DistanceMeters>NAN</DistanceMeters>
          </Trackpoint>
          <Trackpoint>
            <Time>2022-07-14T05:31:58.000Z</Time>
            <Position>
              <LatitudeDegrees>43.47040484659373760223388671875</LatitudeDegrees>
              <LongitudeDegrees>-3.9270837418735027313232421875</LongitudeDegrees>
            </Position>
            <AltitudeMeters>48.200000762939453125</AltitudeMeters>
            <DistanceMeters>NAN</DistanceMeters>
          </Trackpoint>
          <Trackpoint>
            <Time>2022-07-14T05:32:00.000Z</Time>
            <Position>
              <LatitudeDegrees>43.47034567035734653472900390625</LatitudeDegrees>
              <LongitudeDegrees>-3.92712322063744068145751953125</LongitudeDegrees>
            </Position>
            <AltitudeMeters>47.40000152587890625</AltitudeMeters>
            <DistanceMeters>NAN</DistanceMeters>
          </Trackpoint>
          <Trackpoint>
            <Time>2022-07-14T05:32:03.000Z</Time>
            <Position>
              <LatitudeDegrees>43.4702837280929088592529296875</LatitudeDegrees>
              <LongitudeDegrees>-3.9271675609052181243896484375</LongitudeDegrees>
            </Position>
            <AltitudeMeters>47</AltitudeMeters>
            <DistanceMeters>NAN</DistanceMeters>
          </Trackpoint>
          <Trackpoint>
            <Time>2022-07-14T05:32:05.000Z</Time>
            <Position>
              <LatitudeDegrees>43.470259420573711395263671875</LatitudeDegrees>
              <LongitudeDegrees>-3.9272041060030460357666015625</LongitudeDegrees>
            </Position>
            <AltitudeMeters>47</AltitudeMeters>
            <DistanceMeters>NAN</DistanceMeters>
          </Trackpoint>
          <Trackpoint>
            <Time>2022-07-14T05:32:12.000Z</Time>
            <Position>
              <LatitudeDegrees>43.47018264234066009521484375</LatitudeDegrees>
              <LongitudeDegrees>-3.92730929888784885406494140625</LongitudeDegrees>
            </Position>
            <AltitudeMeters>47.200000762939453125</AltitudeMeters>
            <DistanceMeters>NAN</DistanceMeters>
          </Trackpoint>
          <Trackpoint>
            <Time>2022-07-14T05:32:14.000Z</Time>
            <Position>
              <LatitudeDegrees>43.47015908919274806976318359375</LatitudeDegrees>
              <LongitudeDegrees>-3.92733260057866573333740234375</LongitudeDegrees>
            </Position>
            <AltitudeMeters>47.200000762939453125</AltitudeMeters>
            <DistanceMeters>NAN</DistanceMeters>
          </Trackpoint>
          <Trackpoint>
            <Time>2022-07-14T05:32:19.000Z</Time>
            <Position>
              <LatitudeDegrees>43.470132015645503997802734375</LatitudeDegrees>
              <LongitudeDegrees>-3.92735137604176998138427734375</LongitudeDegrees>
            </Position>
            <AltitudeMeters>47.40000152587890625</AltitudeMeters>
            <DistanceMeters>NAN</DistanceMeters>
          </Trackpoint>
          <Trackpoint>
            <Time>2022-07-14T05:35:58.000Z</Time>
            <Position>
              <LatitudeDegrees>43.47008817829191684722900390625</LatitudeDegrees>
              <LongitudeDegrees>-3.92741675488650798797607421875</LongitudeDegrees>
            </Position>
            <AltitudeMeters>47.200000762939453125</AltitudeMeters>
            <DistanceMeters>NAN</DistanceMeters>
          </Trackpoint>
          <Trackpoint>
            <Time>2022-07-14T05:35:59.000Z</Time>
            <Position>
              <LatitudeDegrees>43.47007845528423786163330078125</LatitudeDegrees>
              <LongitudeDegrees>-3.92742983065545558929443359375</LongitudeDegrees>
            </Position>
            <AltitudeMeters>47.200000762939453125</AltitudeMeters>
            <DistanceMeters>NAN</DistanceMeters>
          </Trackpoint>
          <Trackpoint>
            <Time>2022-07-14T05:36:01.000Z</Time>
            <Position>
              <LatitudeDegrees>43.47006018273532390594482421875</LatitudeDegrees>
              <LongitudeDegrees>-3.92746805213391780853271484375</LongitudeDegrees>
            </Position>
            <AltitudeMeters>47.799999237060546875</AltitudeMeters>
            <DistanceMeters>NAN</DistanceMeters>
          </Trackpoint>
          <Trackpoint>
            <Time>2022-07-14T05:36:02.000Z</Time>
            <Position>
              <LatitudeDegrees>43.47005414776504039764404296875</LatitudeDegrees>
              <LongitudeDegrees>-3.92749604769051074981689453125</LongitudeDegrees>
            </Position>
            <AltitudeMeters>48</AltitudeMeters>
            <DistanceMeters>NAN</DistanceMeters>
          </Trackpoint>
          <Trackpoint>
            <Time>2022-07-14T05:36:08.000Z</Time>
            <Position>
              <LatitudeDegrees>43.47000821493566036224365234375</LatitudeDegrees>
              <LongitudeDegrees>-3.927629403769969940185546875</LongitudeDegrees>
            </Position>
            <AltitudeMeters>49</AltitudeMeters>
            <DistanceMeters>NAN</DistanceMeters>
          </Trackpoint>
          <Trackpoint>
            <Time>2022-07-14T05:36:11.000Z</Time>
            <Position>
              <LatitudeDegrees>43.46999161876738071441650390625</LatitudeDegrees>
              <LongitudeDegrees>-3.9276872389018535614013671875</LongitudeDegrees>
            </Position>
            <AltitudeMeters>49.200000762939453125</AltitudeMeters>
            <DistanceMeters>NAN</DistanceMeters>
          </Trackpoint>
          <Trackpoint>
            <Time>2022-07-14T05:36:13.000Z</Time>
            <Position>
              <LatitudeDegrees>43.4699809737503528594970703125</LatitudeDegrees>
              <LongitudeDegrees>-3.92772353254258632659912109375</LongitudeDegrees>
            </Position>
            <AltitudeMeters>49.200000762939453125</AltitudeMeters>
            <DistanceMeters>NAN</DistanceMeters>
          </Trackpoint>
          <Trackpoint>
            <Time>2022-07-14T05:36:15.000Z</Time>
            <Position>
              <LatitudeDegrees>43.4699558280408382415771484375</LatitudeDegrees>
              <LongitudeDegrees>-3.9277549646794795989990234375</LongitudeDegrees>
            </Position>
            <AltitudeMeters>49.200000762939453125</AltitudeMeters>
            <DistanceMeters>NAN</DistanceMeters>
          </Trackpoint>
          <Trackpoint>
            <Time>2022-07-14T05:36:18.000Z</Time>
            <Position>
              <LatitudeDegrees>43.4699313528835773468017578125</LatitudeDegrees>
              <LongitudeDegrees>-3.92780198715627193450927734375</LongitudeDegrees>
            </Position>
            <AltitudeMeters>49.59999847412109375</AltitudeMeters>
            <DistanceMeters>NAN</DistanceMeters>
          </Trackpoint>
          <Trackpoint>
            <Time>2022-07-14T05:36:22.000Z</Time>
            <Position>
              <LatitudeDegrees>43.46991098485887050628662109375</LatitudeDegrees>
              <LongitudeDegrees>-3.92787356860935688018798828125</LongitudeDegrees>
            </Position>
            <AltitudeMeters>50</AltitudeMeters>
            <DistanceMeters>NAN</DistanceMeters>
          </Trackpoint>
          <Trackpoint>
            <Time>2022-07-14T05:36:25.000Z</Time>
            <Position>
              <LatitudeDegrees>43.46989204175770282745361328125</LatitudeDegrees>
              <LongitudeDegrees>-3.92793006263673305511474609375</LongitudeDegrees>
            </Position>
            <AltitudeMeters>50.200000762939453125</AltitudeMeters>
            <DistanceMeters>NAN</DistanceMeters>
          </Trackpoint>
          <Trackpoint>
            <Time>2022-07-14T05:36:32.000Z</Time>
            <Position>
              <LatitudeDegrees>43.4698331169784069061279296875</LatitudeDegrees>
              <LongitudeDegrees>-3.92802829854190349578857421875</LongitudeDegrees>
            </Position>
            <AltitudeMeters>51</AltitudeMeters>
            <DistanceMeters>NAN</DistanceMeters>
          </Trackpoint>
          <Trackpoint>
            <Time>2022-07-14T05:36:33.000Z</Time>
            <Position>
              <LatitudeDegrees>43.46982867456972599029541015625</LatitudeDegrees>
              <LongitudeDegrees>-3.92804925329983234405517578125</LongitudeDegrees>
            </Position>
            <AltitudeMeters>51.200000762939453125</AltitudeMeters>
            <DistanceMeters>NAN</DistanceMeters>
          </Trackpoint>
          <Trackpoint>
            <Time>2022-07-14T05:36:38.000Z</Time>
            <Position>
              <LatitudeDegrees>43.4698005951941013336181640625</LatitudeDegrees>
              <LongitudeDegrees>-3.92814262770116329193115234375</LongitudeDegrees>
            </Position>
            <AltitudeMeters>51.799999237060546875</AltitudeMeters>
            <DistanceMeters>NAN</DistanceMeters>
          </Trackpoint>
          <Trackpoint>
            <Time>2022-07-14T05:36:41.000Z</Time>
            <Position>
              <LatitudeDegrees>43.46977335400879383087158203125</LatitudeDegrees>
              <LongitudeDegrees>-3.9281921647489070892333984375</LongitudeDegrees>
            </Position>
            <AltitudeMeters>52.40000152587890625</AltitudeMeters>
            <DistanceMeters>NAN</DistanceMeters>
          </Trackpoint>
          <Trackpoint>
            <Time>2022-07-14T05:36:45.000Z</Time>
            <Position>
              <LatitudeDegrees>43.46973764710128307342529296875</LatitudeDegrees>
              <LongitudeDegrees>-3.92825310118496417999267578125</LongitudeDegrees>
            </Position>
            <AltitudeMeters>53.200000762939453125</AltitudeMeters>
            <DistanceMeters>NAN</DistanceMeters>
          </Trackpoint>
          <Trackpoint>
            <Time>2022-07-14T05:36:46.000Z</Time>
            <Position>
              <LatitudeDegrees>43.46972909756004810333251953125</LatitudeDegrees>
              <LongitudeDegrees>-3.928263746201992034912109375</LongitudeDegrees>
            </Position>
            <AltitudeMeters>53.40000152587890625</AltitudeMeters>
            <DistanceMeters>NAN</DistanceMeters>
          </Trackpoint>
          <Trackpoint>
            <Time>2022-07-14T05:36:49.000Z</Time>
            <Position>
              <LatitudeDegrees>43.46970512531697750091552734375</LatitudeDegrees>
              <LongitudeDegrees>-3.92830691300332546234130859375</LongitudeDegrees>
            </Position>
            <AltitudeMeters>54.200000762939453125</AltitudeMeters>
            <DistanceMeters>NAN</DistanceMeters>
          </Trackpoint>
          <Trackpoint>
            <Time>2022-07-14T05:36:50.000Z</Time>
            <Position>
              <LatitudeDegrees>43.46969892270863056182861328125</LatitudeDegrees>
              <LongitudeDegrees>-3.9283219166100025177001953125</LongitudeDegrees>
            </Position>
            <AltitudeMeters>54.40000152587890625</AltitudeMeters>
            <DistanceMeters>NAN</DistanceMeters>
          </Trackpoint>
          <Trackpoint>
            <Time>2022-07-14T05:36:51.000Z</Time>
            <Position>
              <LatitudeDegrees>43.46969238482415676116943359375</LatitudeDegrees>
              <LongitudeDegrees>-3.928339183330535888671875</LongitudeDegrees>
            </Position>
            <AltitudeMeters>54.59999847412109375</AltitudeMeters>
            <DistanceMeters>NAN</DistanceMeters>
          </Trackpoint>
          <Trackpoint>
            <Time>2022-07-14T05:36:55.000Z</Time>
            <Position>
              <LatitudeDegrees>43.46967034041881561279296875</LatitudeDegrees>
              <LongitudeDegrees>-3.9283997006714344024658203125</LongitudeDegrees>
            </Position>
            <AltitudeMeters>55.200000762939453125</AltitudeMeters>
            <DistanceMeters>NAN</DistanceMeters>
          </Trackpoint>
          <Trackpoint>
            <Time>2022-07-14T05:36:56.000Z</Time>
            <Position>
              <LatitudeDegrees>43.4696701727807521820068359375</LatitudeDegrees>
              <LongitudeDegrees>-3.9284141175448894500732421875</LongitudeDegrees>
            </Position>
            <AltitudeMeters>55.200000762939453125</AltitudeMeters>
            <DistanceMeters>NAN</DistanceMeters>
          </Trackpoint>
          <Trackpoint>
            <Time>2022-07-14T05:36:58.000Z</Time>
            <Position>
              <LatitudeDegrees>43.469673357903957366943359375</LatitudeDegrees>
              <LongitudeDegrees>-3.928439430892467498779296875</LongitudeDegrees>
            </Position>
            <AltitudeMeters>55.59999847412109375</AltitudeMeters>
            <DistanceMeters>NAN</DistanceMeters>
          </Trackpoint>
          <Trackpoint>
            <Time>2022-07-14T05:36:59.000Z</Time>
            <Position>
              <LatitudeDegrees>43.46966874785721302032470703125</LatitudeDegrees>
              <LongitudeDegrees>-3.928451500833034515380859375</LongitudeDegrees>
            </Position>
            <AltitudeMeters>55.799999237060546875</AltitudeMeters>
            <DistanceMeters>NAN</DistanceMeters>
          </Trackpoint>
          <Trackpoint>
            <Time>2022-07-14T05:37:01.000Z</Time>
            <Position>
              <LatitudeDegrees>43.46964729018509387969970703125</LatitudeDegrees>
              <LongitudeDegrees>-3.92847823910415172576904296875</LongitudeDegrees>
            </Position>
            <AltitudeMeters>56</AltitudeMeters>
            <DistanceMeters>NAN</DistanceMeters>
          </Trackpoint>
          <Trackpoint>
            <Time>2022-07-14T05:37:05.000Z</Time>
            <Position>
              <LatitudeDegrees>43.46961845643818378448486328125</LatitudeDegrees>
              <LongitudeDegrees>-3.9285395108163356781005859375</LongitudeDegrees>
            </Position>
            <AltitudeMeters>56.799999237060546875</AltitudeMeters>
            <DistanceMeters>NAN</DistanceMeters>
          </Trackpoint>
          <Trackpoint>
            <Time>2022-07-14T05:37:08.000Z</Time>
            <Position>
              <LatitudeDegrees>43.4695910476148128509521484375</LatitudeDegrees>
              <LongitudeDegrees>-3.92857613973319530487060546875</LongitudeDegrees>
            </Position>
            <AltitudeMeters>57.200000762939453125</AltitudeMeters>
            <DistanceMeters>NAN</DistanceMeters>
          </Trackpoint>
          <Trackpoint>
            <Time>2022-07-14T05:37:12.000Z</Time>
            <Position>
              <LatitudeDegrees>43.46956430934369564056396484375</LatitudeDegrees>
              <LongitudeDegrees>-3.9286330528557300567626953125</LongitudeDegrees>
            </Position>
            <AltitudeMeters>57.799999237060546875</AltitudeMeters>
            <DistanceMeters>NAN</DistanceMeters>
          </Trackpoint>
          <Trackpoint>
            <Time>2022-07-14T05:37:16.000Z</Time>
            <Position>
              <LatitudeDegrees>43.469528853893280029296875</LatitudeDegrees>
              <LongitudeDegrees>-3.92869264818727970123291015625</LongitudeDegrees>
            </Position>
            <AltitudeMeters>58.200000762939453125</AltitudeMeters>
            <DistanceMeters>NAN</DistanceMeters>
          </Trackpoint>
          <Trackpoint>
            <Time>2022-07-14T05:37:18.000Z</Time>
            <Position>
              <LatitudeDegrees>43.46951368264853954315185546875</LatitudeDegrees>
              <LongitudeDegrees>-3.92871058546006679534912109375</LongitudeDegrees>
            </Position>
            <AltitudeMeters>58.59999847412109375</AltitudeMeters>
            <DistanceMeters>NAN</DistanceMeters>
          </Trackpoint>
          <Trackpoint>
            <Time>2022-07-14T05:37:20.000Z</Time>
            <Position>
              <LatitudeDegrees>43.46949641592800617218017578125</LatitudeDegrees>
              <LongitudeDegrees>-3.92872366122901439666748046875</LongitudeDegrees>
            </Position>
            <AltitudeMeters>58.799999237060546875</AltitudeMeters>
            <DistanceMeters>NAN</DistanceMeters>
          </Trackpoint>
          <Trackpoint>
            <Time>2022-07-14T05:37:21.000Z</Time>
            <Position>
              <LatitudeDegrees>43.46948795020580291748046875</LatitudeDegrees>
              <LongitudeDegrees>-3.92873623408377170562744140625</LongitudeDegrees>
            </Position>
            <AltitudeMeters>58.799999237060546875</AltitudeMeters>
            <DistanceMeters>NAN</DistanceMeters>
          </Trackpoint>
          <Trackpoint>
            <Time>2022-07-14T05:37:26.000Z</Time>
            <Position>
              <LatitudeDegrees>43.46944310702383518218994140625</LatitudeDegrees>
              <LongitudeDegrees>-3.9287946559488773345947265625</LongitudeDegrees>
            </Position>
            <AltitudeMeters>59.40000152587890625</AltitudeMeters>
            <DistanceMeters>NAN</DistanceMeters>
          </Trackpoint>
          <Trackpoint>
            <Time>2022-07-14T05:37:27.000Z</Time>
            <Position>
              <LatitudeDegrees>43.4694327972829341888427734375</LatitudeDegrees>
              <LongitudeDegrees>-3.928792141377925872802734375</LongitudeDegrees>
            </Position>
            <AltitudeMeters>59.59999847412109375</AltitudeMeters>
            <DistanceMeters>NAN</DistanceMeters>
          </Trackpoint>
          <Trackpoint>
            <Time>2022-07-14T05:37:29.000Z</Time>
            <Position>
              <LatitudeDegrees>43.4694068133831024169921875</LatitudeDegrees>
              <LongitudeDegrees>-3.928790800273418426513671875</LongitudeDegrees>
            </Position>
            <AltitudeMeters>59.799999237060546875</AltitudeMeters>
            <DistanceMeters>NAN</DistanceMeters>
          </Trackpoint>
          <Trackpoint>
            <Time>2022-07-14T05:37:30.000Z</Time>
            <Position>
              <LatitudeDegrees>43.46939675509929656982421875</LatitudeDegrees>
              <LongitudeDegrees>-3.9287963323295116424560546875</LongitudeDegrees>
            </Position>
            <AltitudeMeters>60</AltitudeMeters>
            <DistanceMeters>NAN</DistanceMeters>
          </Trackpoint>
          <Trackpoint>
            <Time>2022-07-14T05:37:33.000Z</Time>
            <Position>
              <LatitudeDegrees>43.46936180256307125091552734375</LatitudeDegrees>
              <LongitudeDegrees>-3.9288063906133174896240234375</LongitudeDegrees>
            </Position>
            <AltitudeMeters>60.200000762939453125</AltitudeMeters>
            <DistanceMeters>NAN</DistanceMeters>
          </Trackpoint>
          <Trackpoint>
            <Time>2022-07-14T05:37:39.000Z</Time>
            <Position>
              <LatitudeDegrees>43.46928334794938564300537109375</LatitudeDegrees>
              <LongitudeDegrees>-3.9288234896957874298095703125</LongitudeDegrees>
            </Position>
            <AltitudeMeters>60.59999847412109375</AltitudeMeters>
            <DistanceMeters>NAN</DistanceMeters>
          </Trackpoint>
          <Trackpoint>
            <Time>2022-07-14T05:37:40.000Z</Time>
            <Position>
              <LatitudeDegrees>43.46926725469529628753662109375</LatitudeDegrees>
              <LongitudeDegrees>-3.92882005311548709869384765625</LongitudeDegrees>
            </Position>
            <AltitudeMeters>60.799999237060546875</AltitudeMeters>
            <DistanceMeters>NAN</DistanceMeters>
          </Trackpoint>
          <Trackpoint>
            <Time>2022-07-14T05:37:42.000Z</Time>
            <Position>
              <LatitudeDegrees>43.4692467190325260162353515625</LatitudeDegrees>
              <LongitudeDegrees>-3.9288032054901123046875</LongitudeDegrees>
            </Position>
            <AltitudeMeters>61</AltitudeMeters>
            <DistanceMeters>NAN</DistanceMeters>
          </Trackpoint>
          <Trackpoint>
            <Time>2022-07-14T05:37:49.000Z</Time>
            <Position>
              <LatitudeDegrees>43.46919215284287929534912109375</LatitudeDegrees>
              <LongitudeDegrees>-3.9287804067134857177734375</LongitudeDegrees>
            </Position>
            <AltitudeMeters>61.200000762939453125</AltitudeMeters>
            <DistanceMeters>NAN</DistanceMeters>
          </Trackpoint>
          <Trackpoint>
            <Time>2022-07-14T05:38:42.000Z</Time>
            <Position>
              <LatitudeDegrees>43.46916667185723781585693359375</LatitudeDegrees>
              <LongitudeDegrees>-3.9287457056343555450439453125</LongitudeDegrees>
            </Position>
            <AltitudeMeters>61.799999237060546875</AltitudeMeters>
            <DistanceMeters>NAN</DistanceMeters>
          </Trackpoint>
          <Trackpoint>
            <Time>2022-07-14T05:38:45.000Z</Time>
            <Position>
              <LatitudeDegrees>43.4691226668655872344970703125</LatitudeDegrees>
              <LongitudeDegrees>-3.92868929542601108551025390625</LongitudeDegrees>
            </Position>
            <AltitudeMeters>62</AltitudeMeters>
            <DistanceMeters>NAN</DistanceMeters>
          </Trackpoint>
          <Trackpoint>
            <Time>2022-07-14T05:38:52.000Z</Time>
            <Position>
              <LatitudeDegrees>43.4690197370946407318115234375</LatitudeDegrees>
              <LongitudeDegrees>-3.928562141954898834228515625</LongitudeDegrees>
            </Position>
            <AltitudeMeters>62.200000762939453125</AltitudeMeters>
            <DistanceMeters>NAN</DistanceMeters>
          </Trackpoint>
          <Trackpoint>
            <Time>2022-07-14T05:38:57.000Z</Time>
            <Position>
              <LatitudeDegrees>43.4689543582499027252197265625</LatitudeDegrees>
              <LongitudeDegrees>-3.9284798316657543182373046875</LongitudeDegrees>
            </Position>
            <AltitudeMeters>62.40000152587890625</AltitudeMeters>
            <DistanceMeters>NAN</DistanceMeters>
          </Trackpoint>
          <Trackpoint>
            <Time>2022-07-14T05:38:59.000Z</Time>
            <Position>
              <LatitudeDegrees>43.46893298439681529998779296875</LatitudeDegrees>
              <LongitudeDegrees>-3.92849005758762359619140625</LongitudeDegrees>
            </Position>
            <AltitudeMeters>62.59999847412109375</AltitudeMeters>
            <DistanceMeters>NAN</DistanceMeters>
          </Trackpoint>
          <Trackpoint>
            <Time>2022-07-14T05:39:02.000Z</Time>
            <Position>
              <LatitudeDegrees>43.46891756169497966766357421875</LatitudeDegrees>
              <LongitudeDegrees>-3.92854428850114345550537109375</LongitudeDegrees>
            </Position>
            <AltitudeMeters>62.40000152587890625</AltitudeMeters>
            <DistanceMeters>NAN</DistanceMeters>
          </Trackpoint>
          <Trackpoint>
            <Time>2022-07-14T05:39:04.000Z</Time>
            <Position>
              <LatitudeDegrees>43.46891538240015506744384765625</LatitudeDegrees>
              <LongitudeDegrees>-3.92858770675957202911376953125</LongitudeDegrees>
            </Position>
            <AltitudeMeters>62.200000762939453125</AltitudeMeters>
            <DistanceMeters>NAN</DistanceMeters>
          </Trackpoint>
          <Trackpoint>
            <Time>2022-07-14T05:39:08.000Z</Time>
            <Position>
              <LatitudeDegrees>43.46888101659715175628662109375</LatitudeDegrees>
              <LongitudeDegrees>-3.92869918607175350189208984375</LongitudeDegrees>
            </Position>
            <AltitudeMeters>61.59999847412109375</AltitudeMeters>
            <DistanceMeters>NAN</DistanceMeters>
          </Trackpoint>
          <Trackpoint>
            <Time>2022-07-14T05:39:12.000Z</Time>
            <Position>
              <LatitudeDegrees>43.4688423760235309600830078125</LatitudeDegrees>
              <LongitudeDegrees>-3.92877437174320220947265625</LongitudeDegrees>
            </Position>
            <AltitudeMeters>61.40000152587890625</AltitudeMeters>
            <DistanceMeters>NAN</DistanceMeters>
          </Trackpoint>
          <Trackpoint>
            <Time>2022-07-14T05:39:13.000Z</Time>
            <Position>
              <LatitudeDegrees>43.46883290447294712066650390625</LatitudeDegrees>
              <LongitudeDegrees>-3.92879356630146503448486328125</LongitudeDegrees>
            </Position>
            <AltitudeMeters>61.40000152587890625</AltitudeMeters>
            <DistanceMeters>NAN</DistanceMeters>
          </Trackpoint>
          <Trackpoint>
            <Time>2022-07-14T05:39:22.000Z</Time>
            <Position>
              <LatitudeDegrees>43.46878378652036190032958984375</LatitudeDegrees>
              <LongitudeDegrees>-3.9289468713104724884033203125</LongitudeDegrees>
            </Position>
            <AltitudeMeters>61</AltitudeMeters>
            <DistanceMeters>NAN</DistanceMeters>
          </Trackpoint>
          <Trackpoint>
            <Time>2022-07-14T05:39:23.000Z</Time>
            <Position>
              <LatitudeDegrees>43.46877850592136383056640625</LatitudeDegrees>
              <LongitudeDegrees>-3.92895801924169063568115234375</LongitudeDegrees>
            </Position>
            <AltitudeMeters>61</AltitudeMeters>
            <DistanceMeters>NAN</DistanceMeters>
          </Trackpoint>
          <Trackpoint>
            <Time>2022-07-14T05:39:28.000Z</Time>
            <Position>
              <LatitudeDegrees>43.46873827278614044189453125</LatitudeDegrees>
              <LongitudeDegrees>-3.92902222461998462677001953125</LongitudeDegrees>
            </Position>
            <AltitudeMeters>60.799999237060546875</AltitudeMeters>
            <DistanceMeters>NAN</DistanceMeters>
          </Trackpoint>
          <Trackpoint>
            <Time>2022-07-14T05:39:33.000Z</Time>
            <Position>
              <LatitudeDegrees>43.46868085674941539764404296875</LatitudeDegrees>
              <LongitudeDegrees>-3.929129429161548614501953125</LongitudeDegrees>
            </Position>
            <AltitudeMeters>60.59999847412109375</AltitudeMeters>
            <DistanceMeters>NAN</DistanceMeters>
          </Trackpoint>
          <Trackpoint>
            <Time>2022-07-14T05:39:36.000Z</Time>
            <Position>
              <LatitudeDegrees>43.46864146180450916290283203125</LatitudeDegrees>
              <LongitudeDegrees>-3.92920092679560184478759765625</LongitudeDegrees>
            </Position>
            <AltitudeMeters>60.40000152587890625</AltitudeMeters>
            <DistanceMeters>NAN</DistanceMeters>
          </Trackpoint>
          <Trackpoint>
            <Time>2022-07-14T05:39:38.000Z</Time>
            <Position>
              <LatitudeDegrees>43.4686080180108547210693359375</LatitudeDegrees>
              <LongitudeDegrees>-3.9292576722800731658935546875</LongitudeDegrees>
            </Position>
            <AltitudeMeters>60.40000152587890625</AltitudeMeters>
            <DistanceMeters>NAN</DistanceMeters>
          </Trackpoint>
          <Trackpoint>
            <Time>2022-07-14T05:39:41.000Z</Time>
            <Position>
              <LatitudeDegrees>43.46856518648564815521240234375</LatitudeDegrees>
              <LongitudeDegrees>-3.9293538965284824371337890625</LongitudeDegrees>
            </Position>
            <AltitudeMeters>60.40000152587890625</AltitudeMeters>
            <DistanceMeters>NAN</DistanceMeters>
          </Trackpoint>
          <Trackpoint>
            <Time>2022-07-14T05:39:45.000Z</Time>
            <Position>
              <LatitudeDegrees>43.46849360503256320953369140625</LatitudeDegrees>
              <LongitudeDegrees>-3.9295061118900775909423828125</LongitudeDegrees>
            </Position>
            <AltitudeMeters>60.40000152587890625</AltitudeMeters>
            <DistanceMeters>NAN</DistanceMeters>
          </Trackpoint>
          <Trackpoint>
            <Time>2022-07-14T05:39:51.000Z</Time>
            <Position>
              <LatitudeDegrees>43.46837106160819530487060546875</LatitudeDegrees>
              <LongitudeDegrees>-3.92975849099457263946533203125</LongitudeDegrees>
            </Position>
            <AltitudeMeters>59.799999237060546875</AltitudeMeters>
            <DistanceMeters>NAN</DistanceMeters>
          </Trackpoint>
          <Trackpoint>
            <Time>2022-07-14T05:39:53.000Z</Time>
            <Position>
              <LatitudeDegrees>43.4683247096836566925048828125</LatitudeDegrees>
              <LongitudeDegrees>-3.92985287122428417205810546875</LongitudeDegrees>
            </Position>
            <AltitudeMeters>59.40000152587890625</AltitudeMeters>
            <DistanceMeters>NAN</DistanceMeters>
          </Trackpoint>
          <Trackpoint>
            <Time>2022-07-14T05:39:55.000Z</Time>
            <Position>
              <LatitudeDegrees>43.46828372217714786529541015625</LatitudeDegrees>
              <LongitudeDegrees>-3.92995730973780155181884765625</LongitudeDegrees>
            </Position>
            <AltitudeMeters>58.59999847412109375</AltitudeMeters>
            <DistanceMeters>NAN</DistanceMeters>
          </Trackpoint>
          <Trackpoint>
            <Time>2022-07-14T05:40:01.000Z</Time>
            <Position>
              <LatitudeDegrees>43.46815145574510097503662109375</LatitudeDegrees>
              <LongitudeDegrees>-3.93028847873210906982421875</LongitudeDegrees>
            </Position>
            <AltitudeMeters>57.59999847412109375</AltitudeMeters>
            <DistanceMeters>NAN</DistanceMeters>
          </Trackpoint>
          <Trackpoint>
            <Time>2022-07-14T05:40:02.000Z</Time>
            <Position>
              <LatitudeDegrees>43.46813117153942584991455078125</LatitudeDegrees>
              <LongitudeDegrees>-3.93034321255981922149658203125</LongitudeDegrees>
            </Position>
            <AltitudeMeters>57.40000152587890625</AltitudeMeters>
            <DistanceMeters>NAN</DistanceMeters>
          </Trackpoint>
          <Trackpoint>
            <Time>2022-07-14T05:40:06.000Z</Time>
            <Position>
              <LatitudeDegrees>43.4680179320275783538818359375</LatitudeDegrees>
              <LongitudeDegrees>-3.930537588894367218017578125</LongitudeDegrees>
            </Position>
            <AltitudeMeters>56.59999847412109375</AltitudeMeters>
            <DistanceMeters>NAN</DistanceMeters>
          </Trackpoint>
          <Trackpoint>
            <Time>2022-07-14T05:40:07.000Z</Time>
            <Position>
              <LatitudeDegrees>43.4679897688329219818115234375</LatitudeDegrees>
              <LongitudeDegrees>-3.9305776543915271759033203125</LongitudeDegrees>
            </Position>
            <AltitudeMeters>56.200000762939453125</AltitudeMeters>
            <DistanceMeters>NAN</DistanceMeters>
          </Trackpoint>
          <Trackpoint>
            <Time>2022-07-14T05:40:10.000Z</Time>
            <Position>
              <LatitudeDegrees>43.4679160080850124359130859375</LatitudeDegrees>
              <LongitudeDegrees>-3.9307013712823390960693359375</LongitudeDegrees>
            </Position>
            <AltitudeMeters>55.59999847412109375</AltitudeMeters>
            <DistanceMeters>NAN</DistanceMeters>
          </Trackpoint>
          <Trackpoint>
            <Time>2022-07-14T05:40:12.000Z</Time>
            <Position>
              <LatitudeDegrees>43.46787133254110813140869140625</LatitudeDegrees>
              <LongitudeDegrees>-3.93079047091305255889892578125</LongitudeDegrees>
            </Position>
            <AltitudeMeters>55</AltitudeMeters>
            <DistanceMeters>NAN</DistanceMeters>
          </Trackpoint>
          <Trackpoint>
            <Time>2022-07-14T05:40:16.000Z</Time>
            <Position>
              <LatitudeDegrees>43.46777846105396747589111328125</LatitudeDegrees>
              <LongitudeDegrees>-3.93096833489835262298583984375</LongitudeDegrees>
            </Position>
            <AltitudeMeters>54.40000152587890625</AltitudeMeters>
            <DistanceMeters>NAN</DistanceMeters>
          </Trackpoint>
          <Trackpoint>
            <Time>2022-07-14T05:40:20.000Z</Time>
            <Position>
              <LatitudeDegrees>43.46767745912075042724609375</LatitudeDegrees>
              <LongitudeDegrees>-3.9311368949711322784423828125</LongitudeDegrees>
            </Position>
            <AltitudeMeters>53.799999237060546875</AltitudeMeters>
            <DistanceMeters>NAN</DistanceMeters>
          </Trackpoint>
          <Trackpoint>
            <Time>2022-07-14T05:40:23.000Z</Time>
            <Position>
              <LatitudeDegrees>43.46758433617651462554931640625</LatitudeDegrees>
              <LongitudeDegrees>-3.93124342896044254302978515625</LongitudeDegrees>
            </Position>
            <AltitudeMeters>53.59999847412109375</AltitudeMeters>
            <DistanceMeters>NAN</DistanceMeters>
          </Trackpoint>
          <Trackpoint>
            <Time>2022-07-14T05:40:26.000Z</Time>
            <Position>
              <LatitudeDegrees>43.46748626790940761566162109375</LatitudeDegrees>
              <LongitudeDegrees>-3.931329511106014251708984375</LongitudeDegrees>
            </Position>
            <AltitudeMeters>53.40000152587890625</AltitudeMeters>
            <DistanceMeters>NAN</DistanceMeters>
          </Trackpoint>
          <Trackpoint>
            <Time>2022-07-14T05:40:29.000Z</Time>
            <Position>
              <LatitudeDegrees>43.46738467924296855926513671875</LatitudeDegrees>
              <LongitudeDegrees>-3.93142431043088436126708984375</LongitudeDegrees>
            </Position>
            <AltitudeMeters>53.200000762939453125</AltitudeMeters>
            <DistanceMeters>NAN</DistanceMeters>
          </Trackpoint>
          <Trackpoint>
            <Time>2022-07-14T05:40:30.000Z</Time>
            <Position>
              <LatitudeDegrees>43.467349223792552947998046875</LatitudeDegrees>
              <LongitudeDegrees>-3.93145549111068248748779296875</LongitudeDegrees>
            </Position>
            <AltitudeMeters>53</AltitudeMeters>
            <DistanceMeters>NAN</DistanceMeters>
          </Trackpoint>
          <Trackpoint>
            <Time>2022-07-14T05:40:33.000Z</Time>
            <Position>
              <LatitudeDegrees>43.46724403090775012969970703125</LatitudeDegrees>
              <LongitudeDegrees>-3.93153059296309947967529296875</LongitudeDegrees>
            </Position>
            <AltitudeMeters>52.799999237060546875</AltitudeMeters>
            <DistanceMeters>NAN</DistanceMeters>
          </Trackpoint>
          <Trackpoint>
            <Time>2022-07-14T05:40:36.000Z</Time>
            <Position>
              <LatitudeDegrees>43.4671542607247829437255859375</LatitudeDegrees>
              <LongitudeDegrees>-3.93162631429731845855712890625</LongitudeDegrees>
            </Position>
            <AltitudeMeters>52.799999237060546875</AltitudeMeters>
            <DistanceMeters>NAN</DistanceMeters>
          </Trackpoint>
          <Trackpoint>
            <Time>2022-07-14T05:40:39.000Z</Time>
            <Position>
              <LatitudeDegrees>43.4670960903167724609375</LatitudeDegrees>
              <LongitudeDegrees>-3.93174081109464168548583984375</LongitudeDegrees>
            </Position>
            <AltitudeMeters>52.799999237060546875</AltitudeMeters>
            <DistanceMeters>NAN</DistanceMeters>
          </Trackpoint>
          <Trackpoint>
            <Time>2022-07-14T05:40:41.000Z</Time>
            <Position>
              <LatitudeDegrees>43.4670761413872241973876953125</LatitudeDegrees>
              <LongitudeDegrees>-3.931810297071933746337890625</LongitudeDegrees>
            </Position>
            <AltitudeMeters>52.799999237060546875</AltitudeMeters>
            <DistanceMeters>NAN</DistanceMeters>
          </Trackpoint>
          <Trackpoint>
            <Time>2022-07-14T05:40:44.000Z</Time>
            <Position>
              <LatitudeDegrees>43.467070944607257843017578125</LatitudeDegrees>
              <LongitudeDegrees>-3.931898139417171478271484375</LongitudeDegrees>
            </Position>
            <AltitudeMeters>53</AltitudeMeters>
            <DistanceMeters>NAN</DistanceMeters>
          </Trackpoint>
          <Trackpoint>
            <Time>2022-07-14T05:40:47.000Z</Time>
            <Position>
              <LatitudeDegrees>43.46707262098789215087890625</LatitudeDegrees>
              <LongitudeDegrees>-3.93197801895439624786376953125</LongitudeDegrees>
            </Position>
            <AltitudeMeters>53.200000762939453125</AltitudeMeters>
            <DistanceMeters>NAN</DistanceMeters>
          </Trackpoint>
          <Trackpoint>
            <Time>2022-07-14T05:40:53.000Z</Time>
            <Position>
              <LatitudeDegrees>43.4670758061110973358154296875</LatitudeDegrees>
              <LongitudeDegrees>-3.9321252889931201934814453125</LongitudeDegrees>
            </Position>
            <AltitudeMeters>54.40000152587890625</AltitudeMeters>
            <DistanceMeters>NAN</DistanceMeters>
          </Trackpoint>
          <Trackpoint>
            <Time>2022-07-14T05:40:54.000Z</Time>
            <Position>
              <LatitudeDegrees>43.46707840450108051300048828125</LatitudeDegrees>
              <LongitudeDegrees>-3.93214833922684192657470703125</LongitudeDegrees>
            </Position>
            <AltitudeMeters>54.40000152587890625</AltitudeMeters>
            <DistanceMeters>NAN</DistanceMeters>
          </Trackpoint>
          <Trackpoint>
            <Time>2022-07-14T05:40:56.000Z</Time>
            <Position>
              <LatitudeDegrees>43.46709567122161388397216796875</LatitudeDegrees>
              <LongitudeDegrees>-3.9321849681437015533447265625</LongitudeDegrees>
            </Position>
            <AltitudeMeters>54.59999847412109375</AltitudeMeters>
            <DistanceMeters>NAN</DistanceMeters>
          </Trackpoint>
          <Trackpoint>
            <Time>2022-07-14T05:40:58.000Z</Time>
            <Position>
              <LatitudeDegrees>43.46713338978588581085205078125</LatitudeDegrees>
              <LongitudeDegrees>-3.9321975409984588623046875</LongitudeDegrees>
            </Position>
            <AltitudeMeters>54.40000152587890625</AltitudeMeters>
            <DistanceMeters>NAN</DistanceMeters>
          </Trackpoint>
          <Trackpoint>
            <Time>2022-07-14T05:41:02.000Z</Time>
            <Position>
              <LatitudeDegrees>43.46725392155349254608154296875</LatitudeDegrees>
              <LongitudeDegrees>-3.932192511856555938720703125</LongitudeDegrees>
            </Position>
            <AltitudeMeters>53.200000762939453125</AltitudeMeters>
            <DistanceMeters>NAN</DistanceMeters>
          </Trackpoint>
          <Trackpoint>
            <Time>2022-07-14T05:41:03.000Z</Time>
            <Position>
              <LatitudeDegrees>43.46728158183395862579345703125</LatitudeDegrees>
              <LongitudeDegrees>-3.9322029054164886474609375</LongitudeDegrees>
            </Position>
            <AltitudeMeters>53</AltitudeMeters>
            <DistanceMeters>NAN</DistanceMeters>
          </Trackpoint>
          <Trackpoint>
            <Time>2022-07-14T05:41:09.000Z</Time>
            <Position>
              <LatitudeDegrees>43.467382751405239105224609375</LatitudeDegrees>
              <LongitudeDegrees>-3.9322868920862674713134765625</LongitudeDegrees>
            </Position>
            <AltitudeMeters>52.200000762939453125</AltitudeMeters>
            <DistanceMeters>NAN</DistanceMeters>
          </Trackpoint>
          <Trackpoint>
            <Time>2022-07-14T05:41:13.000Z</Time>
            <Position>
              <LatitudeDegrees>43.46741921268403530120849609375</LatitudeDegrees>
              <LongitudeDegrees>-3.93236987292766571044921875</LongitudeDegrees>
            </Position>
            <AltitudeMeters>51.59999847412109375</AltitudeMeters>
            <DistanceMeters>NAN</DistanceMeters>
          </Trackpoint>
          <Trackpoint>
            <Time>2022-07-14T05:41:15.000Z</Time>
            <Position>
              <LatitudeDegrees>43.46742508001625537872314453125</LatitudeDegrees>
              <LongitudeDegrees>-3.93240951932966709136962890625</LongitudeDegrees>
            </Position>
            <AltitudeMeters>51.200000762939453125</AltitudeMeters>
            <DistanceMeters>NAN</DistanceMeters>
          </Trackpoint>
          <Trackpoint>
            <Time>2022-07-14T05:41:17.000Z</Time>
            <Position>
              <LatitudeDegrees>43.46742826513946056365966796875</LatitudeDegrees>
              <LongitudeDegrees>-3.932437263429164886474609375</LongitudeDegrees>
            </Position>
            <AltitudeMeters>50.799999237060546875</AltitudeMeters>
            <DistanceMeters>NAN</DistanceMeters>
          </Trackpoint>
          <Trackpoint>
            <Time>2022-07-14T05:41:20.000Z</Time>
            <Position>
              <LatitudeDegrees>43.4674285165965557098388671875</LatitudeDegrees>
              <LongitudeDegrees>-3.93244070000946521759033203125</LongitudeDegrees>
            </Position>
            <AltitudeMeters>50.59999847412109375</AltitudeMeters>
            <DistanceMeters>NAN</DistanceMeters>
          </Trackpoint>
          <Trackpoint>
            <Time>2022-07-14T05:41:29.000Z</Time>
            <Position>
              <LatitudeDegrees>43.467417620122432708740234375</LatitudeDegrees>
              <LongitudeDegrees>-3.9325551129877567291259765625</LongitudeDegrees>
            </Position>
            <AltitudeMeters>50.200000762939453125</AltitudeMeters>
            <DistanceMeters>NAN</DistanceMeters>
          </Trackpoint>
          <Trackpoint>
            <Time>2022-07-14T05:41:30.000Z</Time>
            <Position>
              <LatitudeDegrees>43.46742373891174793243408203125</LatitudeDegrees>
              <LongitudeDegrees>-3.93256433308124542236328125</LongitudeDegrees>
            </Position>
            <AltitudeMeters>50.200000762939453125</AltitudeMeters>
            <DistanceMeters>NAN</DistanceMeters>
          </Trackpoint>
          <Trackpoint>
            <Time>2022-07-14T05:41:31.000Z</Time>
            <Position>
              <LatitudeDegrees>43.46742373891174793243408203125</LatitudeDegrees>
              <LongitudeDegrees>-3.93256433308124542236328125</LongitudeDegrees>
            </Position>
            <AltitudeMeters>50.200000762939453125</AltitudeMeters>
            <DistanceMeters>NAN</DistanceMeters>
          </Trackpoint>
          <Trackpoint>
            <Time>2022-07-14T05:41:33.000Z</Time>
            <Position>
              <LatitudeDegrees>43.4674372337758541107177734375</LatitudeDegrees>
              <LongitudeDegrees>-3.9325688593089580535888671875</LongitudeDegrees>
            </Position>
            <AltitudeMeters>50</AltitudeMeters>
            <DistanceMeters>NAN</DistanceMeters>
          </Trackpoint>
          <Trackpoint>
            <Time>2022-07-14T05:41:35.000Z</Time>
            <Position>
              <LatitudeDegrees>43.467445783317089080810546875</LatitudeDegrees>
              <LongitudeDegrees>-3.93256969749927520751953125</LongitudeDegrees>
            </Position>
            <AltitudeMeters>50</AltitudeMeters>
            <DistanceMeters>NAN</DistanceMeters>
          </Trackpoint>
          <Trackpoint>
            <Time>2022-07-14T05:41:36.000Z</Time>
            <Position>
              <LatitudeDegrees>43.467445783317089080810546875</LatitudeDegrees>
              <LongitudeDegrees>-3.93256969749927520751953125</LongitudeDegrees>
            </Position>
            <AltitudeMeters>50</AltitudeMeters>
            <DistanceMeters>NAN</DistanceMeters>
          </Trackpoint>
          <Trackpoint>
            <Time>2022-07-14T05:44:19.000Z</Time>
            <Position>
              <LatitudeDegrees>43.4672970883548259735107421875</LatitudeDegrees>
              <LongitudeDegrees>-3.932175077497959136962890625</LongitudeDegrees>
            </Position>
            <AltitudeMeters>52</AltitudeMeters>
            <DistanceMeters>NAN</DistanceMeters>
          </Trackpoint>
          <Trackpoint>
            <Time>2022-07-14T05:44:21.000Z</Time>
            <Position>
              <LatitudeDegrees>43.4672642312943935394287109375</LatitudeDegrees>
              <LongitudeDegrees>-3.93216225318610668182373046875</LongitudeDegrees>
            </Position>
            <AltitudeMeters>52</AltitudeMeters>
            <DistanceMeters>NAN</DistanceMeters>
          </Trackpoint>
          <Trackpoint>
            <Time>2022-07-14T05:44:23.000Z</Time>
            <Position>
              <LatitudeDegrees>43.46723782829940319061279296875</LatitudeDegrees>
              <LongitudeDegrees>-3.9321618340909481048583984375</LongitudeDegrees>
            </Position>
            <AltitudeMeters>52.200000762939453125</AltitudeMeters>
            <DistanceMeters>NAN</DistanceMeters>
          </Trackpoint>
          <Trackpoint>
            <Time>2022-07-14T05:44:27.000Z</Time>
            <Position>
              <LatitudeDegrees>43.4671851061284542083740234375</LatitudeDegrees>
              <LongitudeDegrees>-3.93218077719211578369140625</LongitudeDegrees>
            </Position>
            <AltitudeMeters>52.799999237060546875</AltitudeMeters>
            <DistanceMeters>NAN</DistanceMeters>
          </Trackpoint>
          <Trackpoint>
            <Time>2022-07-14T05:44:28.000Z</Time>
            <Position>
              <LatitudeDegrees>43.46716926433145999908447265625</LatitudeDegrees>
              <LongitudeDegrees>-3.93218454904854297637939453125</LongitudeDegrees>
            </Position>
            <AltitudeMeters>53</AltitudeMeters>
            <DistanceMeters>NAN</DistanceMeters>
          </Trackpoint>
          <Trackpoint>
            <Time>2022-07-14T05:44:35.000Z</Time>
            <Position>
              <LatitudeDegrees>43.4670546837151050567626953125</LatitudeDegrees>
              <LongitudeDegrees>-3.9322262071073055267333984375</LongitudeDegrees>
            </Position>
            <AltitudeMeters>53.799999237060546875</AltitudeMeters>
            <DistanceMeters>NAN</DistanceMeters>
          </Trackpoint>
          <Trackpoint>
            <Time>2022-07-14T05:44:36.000Z</Time>
            <Position>
              <LatitudeDegrees>43.4670436196029186248779296875</LatitudeDegrees>
              <LongitudeDegrees>-3.9322302304208278656005859375</LongitudeDegrees>
            </Position>
            <AltitudeMeters>54.200000762939453125</AltitudeMeters>
            <DistanceMeters>NAN</DistanceMeters>
          </Trackpoint>
          <Trackpoint>
            <Time>2022-07-14T05:44:39.000Z</Time>
            <Position>
              <LatitudeDegrees>43.466999195516109466552734375</LatitudeDegrees>
              <LongitudeDegrees>-3.93223081715404987335205078125</LongitudeDegrees>
            </Position>
            <AltitudeMeters>54.59999847412109375</AltitudeMeters>
            <DistanceMeters>NAN</DistanceMeters>
          </Trackpoint>
          <Trackpoint>
            <Time>2022-07-14T05:44:42.000Z</Time>
            <Position>
              <LatitudeDegrees>43.4669604711234569549560546875</LatitudeDegrees>
              <LongitudeDegrees>-3.93221673555672168731689453125</LongitudeDegrees>
            </Position>
            <AltitudeMeters>55.200000762939453125</AltitudeMeters>
            <DistanceMeters>NAN</DistanceMeters>
          </Trackpoint>
          <Trackpoint>
            <Time>2022-07-14T05:44:43.000Z</Time>
            <Position>
              <LatitudeDegrees>43.466947562992572784423828125</LatitudeDegrees>
              <LongitudeDegrees>-3.9322181604802608489990234375</LongitudeDegrees>
            </Position>
            <AltitudeMeters>55.40000152587890625</AltitudeMeters>
            <DistanceMeters>NAN</DistanceMeters>
          </Trackpoint>
          <Trackpoint>
            <Time>2022-07-14T05:44:47.000Z</Time>
            <Position>
              <LatitudeDegrees>43.4668890573084354400634765625</LatitudeDegrees>
              <LongitudeDegrees>-3.93222763203084468841552734375</LongitudeDegrees>
            </Position>
            <AltitudeMeters>56</AltitudeMeters>
            <DistanceMeters>NAN</DistanceMeters>
          </Trackpoint>
          <Trackpoint>
            <Time>2022-07-14T05:44:49.000Z</Time>
            <Position>
              <LatitudeDegrees>43.4668592177331447601318359375</LatitudeDegrees>
              <LongitudeDegrees>-3.932222686707973480224609375</LongitudeDegrees>
            </Position>
            <AltitudeMeters>56.200000762939453125</AltitudeMeters>
            <DistanceMeters>NAN</DistanceMeters>
          </Trackpoint>
          <Trackpoint>
            <Time>2022-07-14T05:44:54.000Z</Time>
            <Position>
              <LatitudeDegrees>43.46678872592747211456298828125</LatitudeDegrees>
              <LongitudeDegrees>-3.932177759706974029541015625</LongitudeDegrees>
            </Position>
            <AltitudeMeters>57.200000762939453125</AltitudeMeters>
            <DistanceMeters>NAN</DistanceMeters>
          </Trackpoint>
          <Trackpoint>
            <Time>2022-07-14T05:44:56.000Z</Time>
            <Position>
              <LatitudeDegrees>43.46676559187471866607666015625</LatitudeDegrees>
              <LongitudeDegrees>-3.9321651868522167205810546875</LongitudeDegrees>
            </Position>
            <AltitudeMeters>57.40000152587890625</AltitudeMeters>
            <DistanceMeters>NAN</DistanceMeters>
          </Trackpoint>
          <Trackpoint>
            <Time>2022-07-14T05:44:57.000Z</Time>
            <Position>
              <LatitudeDegrees>43.46675184555351734161376953125</LatitudeDegrees>
              <LongitudeDegrees>-3.93215906806290149688720703125</LongitudeDegrees>
            </Position>
            <AltitudeMeters>57.59999847412109375</AltitudeMeters>
            <DistanceMeters>NAN</DistanceMeters>
          </Trackpoint>
          <Trackpoint>
            <Time>2022-07-14T05:44:58.000Z</Time>
            <Position>
              <LatitudeDegrees>43.4667388536036014556884765625</LatitudeDegrees>
              <LongitudeDegrees>-3.93215554766356945037841796875</LongitudeDegrees>
            </Position>
            <AltitudeMeters>58</AltitudeMeters>
            <DistanceMeters>NAN</DistanceMeters>
          </Trackpoint>
          <Trackpoint>
            <Time>2022-07-14T05:45:00.000Z</Time>
            <Position>
              <LatitudeDegrees>43.46671052277088165283203125</LatitudeDegrees>
              <LongitudeDegrees>-3.93214599229395389556884765625</LongitudeDegrees>
            </Position>
            <AltitudeMeters>58.40000152587890625</AltitudeMeters>
            <DistanceMeters>NAN</DistanceMeters>
          </Trackpoint>
          <Trackpoint>
            <Time>2022-07-14T05:45:01.000Z</Time>
            <Position>
              <LatitudeDegrees>43.46669669263064861297607421875</LatitudeDegrees>
              <LongitudeDegrees>-3.932145573198795318603515625</LongitudeDegrees>
            </Position>
            <AltitudeMeters>58.59999847412109375</AltitudeMeters>
            <DistanceMeters>NAN</DistanceMeters>
          </Trackpoint>
          <Trackpoint>
            <Time>2022-07-14T05:45:02.000Z</Time>
            <Position>
              <LatitudeDegrees>43.466683365404605865478515625</LatitudeDegrees>
              <LongitudeDegrees>-3.9321403764188289642333984375</LongitudeDegrees>
            </Position>
            <AltitudeMeters>58.799999237060546875</AltitudeMeters>
            <DistanceMeters>NAN</DistanceMeters>
          </Trackpoint>
          <Trackpoint>
            <Time>2022-07-14T05:45:04.000Z</Time>
            <Position>
              <LatitudeDegrees>43.46665847115218639373779296875</LatitudeDegrees>
              <LongitudeDegrees>-3.93213006667792797088623046875</LongitudeDegrees>
            </Position>
            <AltitudeMeters>59</AltitudeMeters>
            <DistanceMeters>NAN</DistanceMeters>
          </Trackpoint>
          <Trackpoint>
            <Time>2022-07-14T05:45:06.000Z</Time>
            <Position>
              <LatitudeDegrees>43.46663215197622776031494140625</LatitudeDegrees>
              <LongitudeDegrees>-3.93212034367024898529052734375</LongitudeDegrees>
            </Position>
            <AltitudeMeters>59</AltitudeMeters>
            <DistanceMeters>NAN</DistanceMeters>
          </Trackpoint>
          <Trackpoint>
            <Time>2022-07-14T05:45:10.000Z</Time>
            <Position>
              <LatitudeDegrees>43.4665797650814056396484375</LatitudeDegrees>
              <LongitudeDegrees>-3.9320820383727550506591796875</LongitudeDegrees>
            </Position>
            <AltitudeMeters>59.59999847412109375</AltitudeMeters>
            <DistanceMeters>NAN</DistanceMeters>
          </Trackpoint>
          <Trackpoint>
            <Time>2022-07-14T05:45:12.000Z</Time>
            <Position>
              <LatitudeDegrees>43.46655554138123989105224609375</LatitudeDegrees>
              <LongitudeDegrees>-3.932061083614826202392578125</LongitudeDegrees>
            </Position>
            <AltitudeMeters>60</AltitudeMeters>
            <DistanceMeters>NAN</DistanceMeters>
          </Trackpoint>
          <Trackpoint>
            <Time>2022-07-14T05:45:13.000Z</Time>
            <Position>
              <LatitudeDegrees>43.4665447287261486053466796875</LatitudeDegrees>
              <LongitudeDegrees>-3.932048343122005462646484375</LongitudeDegrees>
            </Position>
            <AltitudeMeters>60.200000762939453125</AltitudeMeters>
            <DistanceMeters>NAN</DistanceMeters>
          </Trackpoint>
          <Trackpoint>
            <Time>2022-07-14T05:45:18.000Z</Time>
            <Position>
              <LatitudeDegrees>43.4664952754974365234375</LatitudeDegrees>
              <LongitudeDegrees>-3.93198707140982151031494140625</LongitudeDegrees>
            </Position>
            <AltitudeMeters>60.799999237060546875</AltitudeMeters>
            <DistanceMeters>NAN</DistanceMeters>
          </Trackpoint>
          <Trackpoint>
            <Time>2022-07-14T05:45:21.000Z</Time>
            <Position>
              <LatitudeDegrees>43.46645512618124485015869140625</LatitudeDegrees>
              <LongitudeDegrees>-3.93197366036474704742431640625</LongitudeDegrees>
            </Position>
            <AltitudeMeters>61.200000762939453125</AltitudeMeters>
            <DistanceMeters>NAN</DistanceMeters>
          </Trackpoint>
          <Trackpoint>
            <Time>2022-07-14T05:45:25.000Z</Time>
            <Position>
              <LatitudeDegrees>43.46640366129577159881591796875</LatitudeDegrees>
              <LongitudeDegrees>-3.9319985546171665191650390625</LongitudeDegrees>
            </Position>
            <AltitudeMeters>62</AltitudeMeters>
            <DistanceMeters>NAN</DistanceMeters>
          </Trackpoint>
          <Trackpoint>
            <Time>2022-07-14T05:45:26.000Z</Time>
            <Position>
              <LatitudeDegrees>43.466389663517475128173828125</LatitudeDegrees>
              <LongitudeDegrees>-3.9319958724081516265869140625</LongitudeDegrees>
            </Position>
            <AltitudeMeters>62</AltitudeMeters>
            <DistanceMeters>NAN</DistanceMeters>
          </Trackpoint>
          <Trackpoint>
            <Time>2022-07-14T05:45:33.000Z</Time>
            <Position>
              <LatitudeDegrees>43.466303832828998565673828125</LatitudeDegrees>
              <LongitudeDegrees>-3.93188782967627048492431640625</LongitudeDegrees>
            </Position>
            <AltitudeMeters>62.59999847412109375</AltitudeMeters>
            <DistanceMeters>NAN</DistanceMeters>
          </Trackpoint>
          <Trackpoint>
            <Time>2022-07-14T05:45:37.000Z</Time>
            <Position>
              <LatitudeDegrees>43.4662419743835926055908203125</LatitudeDegrees>
              <LongitudeDegrees>-3.9318595826625823974609375</LongitudeDegrees>
            </Position>
            <AltitudeMeters>62.799999237060546875</AltitudeMeters>
            <DistanceMeters>NAN</DistanceMeters>
          </Trackpoint>
          <Trackpoint>
            <Time>2022-07-14T05:45:41.000Z</Time>
            <Position>
              <LatitudeDegrees>43.46618087030947208404541015625</LatitudeDegrees>
              <LongitudeDegrees>-3.93182664178311824798583984375</LongitudeDegrees>
            </Position>
            <AltitudeMeters>63</AltitudeMeters>
            <DistanceMeters>NAN</DistanceMeters>
          </Trackpoint>
          <Trackpoint>
            <Time>2022-07-14T05:45:42.000Z</Time>
            <Position>
              <LatitudeDegrees>43.46616812981665134429931640625</LatitudeDegrees>
              <LongitudeDegrees>-3.93181943334639072418212890625</LongitudeDegrees>
            </Position>
            <AltitudeMeters>63.200000762939453125</AltitudeMeters>
            <DistanceMeters>NAN</DistanceMeters>
          </Trackpoint>
          <Trackpoint>
            <Time>2022-07-14T05:45:50.000Z</Time>
            <Position>
              <LatitudeDegrees>43.46604994498193264007568359375</LatitudeDegrees>
              <LongitudeDegrees>-3.93176126293838024139404296875</LongitudeDegrees>
            </Position>
            <AltitudeMeters>63.799999237060546875</AltitudeMeters>
            <DistanceMeters>NAN</DistanceMeters>
          </Trackpoint>
          <Trackpoint>
            <Time>2022-07-14T05:45:52.000Z</Time>
            <Position>
              <LatitudeDegrees>43.4660196863114833831787109375</LatitudeDegrees>
              <LongitudeDegrees>-3.93175422213971614837646484375</LongitudeDegrees>
            </Position>
            <AltitudeMeters>64.1999969482421875</AltitudeMeters>
            <DistanceMeters>NAN</DistanceMeters>
          </Trackpoint>
          <Trackpoint>
            <Time>2022-07-14T05:45:57.000Z</Time>
            <Position>
              <LatitudeDegrees>43.465943746268749237060546875</LatitudeDegrees>
              <LongitudeDegrees>-3.9317370392382144927978515625</LongitudeDegrees>
            </Position>
            <AltitudeMeters>64.59999847412109375</AltitudeMeters>
            <DistanceMeters>NAN</DistanceMeters>
          </Trackpoint>
          <Trackpoint>
            <Time>2022-07-14T05:45:58.000Z</Time>
            <Position>
              <LatitudeDegrees>43.465921618044376373291015625</LatitudeDegrees>
              <LongitudeDegrees>-3.9317353628575801849365234375</LongitudeDegrees>
            </Position>
            <AltitudeMeters>64.8000030517578125</AltitudeMeters>
            <DistanceMeters>NAN</DistanceMeters>
          </Trackpoint>
          <Trackpoint>
            <Time>2022-07-14T05:46:03.000Z</Time>
            <Position>
              <LatitudeDegrees>43.465851880609989166259765625</LatitudeDegrees>
              <LongitudeDegrees>-3.93171650357544422149658203125</LongitudeDegrees>
            </Position>
            <AltitudeMeters>65</AltitudeMeters>
            <DistanceMeters>NAN</DistanceMeters>
          </Trackpoint>
          <Trackpoint>
            <Time>2022-07-14T05:46:04.000Z</Time>
            <Position>
              <LatitudeDegrees>43.4658389724791049957275390625</LatitudeDegrees>
              <LongitudeDegrees>-3.93171700648963451385498046875</LongitudeDegrees>
            </Position>
            <AltitudeMeters>65.1999969482421875</AltitudeMeters>
            <DistanceMeters>NAN</DistanceMeters>
          </Trackpoint>
          <Trackpoint>
            <Time>2022-07-14T05:46:05.000Z</Time>
            <Position>
              <LatitudeDegrees>43.46582530997693538665771484375</LatitudeDegrees>
              <LongitudeDegrees>-3.9317152462899684906005859375</LongitudeDegrees>
            </Position>
            <AltitudeMeters>65.1999969482421875</AltitudeMeters>
            <DistanceMeters>NAN</DistanceMeters>
          </Trackpoint>
          <Trackpoint>
            <Time>2022-07-14T05:46:06.000Z</Time>
            <Position>
              <LatitudeDegrees>43.4658128209412097930908203125</LatitudeDegrees>
              <LongitudeDegrees>-3.93171633593738079071044921875</LongitudeDegrees>
            </Position>
            <AltitudeMeters>65.40000152587890625</AltitudeMeters>
            <DistanceMeters>NAN</DistanceMeters>
          </Trackpoint>
          <Trackpoint>
            <Time>2022-07-14T05:46:07.000Z</Time>
            <Position>
              <LatitudeDegrees>43.46579899080097675323486328125</LatitudeDegrees>
              <LongitudeDegrees>-3.931717090308666229248046875</LongitudeDegrees>
            </Position>
            <AltitudeMeters>65.40000152587890625</AltitudeMeters>
            <DistanceMeters>NAN</DistanceMeters>
          </Trackpoint>
          <Trackpoint>
            <Time>2022-07-14T05:46:11.000Z</Time>
            <Position>
              <LatitudeDegrees>43.465735204517841339111328125</LatitudeDegrees>
              <LongitudeDegrees>-3.931721784174442291259765625</LongitudeDegrees>
            </Position>
            <AltitudeMeters>66.1999969482421875</AltitudeMeters>
            <DistanceMeters>NAN</DistanceMeters>
          </Trackpoint>
          <Trackpoint>
            <Time>2022-07-14T05:46:12.000Z</Time>
            <Position>
              <LatitudeDegrees>43.46572078764438629150390625</LatitudeDegrees>
              <LongitudeDegrees>-3.9317199401557445526123046875</LongitudeDegrees>
            </Position>
            <AltitudeMeters>66.40000152587890625</AltitudeMeters>
            <DistanceMeters>NAN</DistanceMeters>
          </Trackpoint>
          <Trackpoint>
            <Time>2022-07-14T05:46:17.000Z</Time>
            <Position>
              <LatitudeDegrees>43.46564359031617641448974609375</LatitudeDegrees>
              <LongitudeDegrees>-3.931715749204158782958984375</LongitudeDegrees>
            </Position>
            <AltitudeMeters>67.40000152587890625</AltitudeMeters>
            <DistanceMeters>NAN</DistanceMeters>
          </Trackpoint>
          <Trackpoint>
            <Time>2022-07-14T05:46:21.000Z</Time>
            <Position>
              <LatitudeDegrees>43.4655898623168468475341796875</LatitudeDegrees>
              <LongitudeDegrees>-3.9317088760435581207275390625</LongitudeDegrees>
            </Position>
            <AltitudeMeters>67.8000030517578125</AltitudeMeters>
            <DistanceMeters>NAN</DistanceMeters>
          </Trackpoint>
          <Trackpoint>
            <Time>2022-07-14T05:46:27.000Z</Time>
            <Position>
              <LatitudeDegrees>43.46551400609314441680908203125</LatitudeDegrees>
              <LongitudeDegrees>-3.931705690920352935791015625</LongitudeDegrees>
            </Position>
            <AltitudeMeters>68.40000152587890625</AltitudeMeters>
            <DistanceMeters>NAN</DistanceMeters>
          </Trackpoint>
          <Trackpoint>
            <Time>2022-07-14T05:46:29.000Z</Time>
            <Position>
              <LatitudeDegrees>43.4654872678220272064208984375</LatitudeDegrees>
              <LongitudeDegrees>-3.9317041821777820587158203125</LongitudeDegrees>
            </Position>
            <AltitudeMeters>68.59999847412109375</AltitudeMeters>
            <DistanceMeters>NAN</DistanceMeters>
          </Trackpoint>
          <Trackpoint>
            <Time>2022-07-14T05:46:34.000Z</Time>
            <Position>
              <LatitudeDegrees>43.4654156863689422607421875</LatitudeDegrees>
              <LongitudeDegrees>-3.9317122288048267364501953125</LongitudeDegrees>
            </Position>
            <AltitudeMeters>68.8000030517578125</AltitudeMeters>
            <DistanceMeters>NAN</DistanceMeters>
          </Trackpoint>
          <Trackpoint>
            <Time>2022-07-14T05:46:38.000Z</Time>
            <Position>
              <LatitudeDegrees>43.4653524868190288543701171875</LatitudeDegrees>
              <LongitudeDegrees>-3.9316971413791179656982421875</LongitudeDegrees>
            </Position>
            <AltitudeMeters>69</AltitudeMeters>
            <DistanceMeters>NAN</DistanceMeters>
          </Trackpoint>
          <Trackpoint>
            <Time>2022-07-14T05:46:45.000Z</Time>
            <Position>
              <LatitudeDegrees>43.46526254899799823760986328125</LatitudeDegrees>
              <LongitudeDegrees>-3.9316833950579166412353515625</LongitudeDegrees>
            </Position>
            <AltitudeMeters>69.40000152587890625</AltitudeMeters>
            <DistanceMeters>NAN</DistanceMeters>
          </Trackpoint>
          <Trackpoint>
            <Time>2022-07-14T05:46:48.000Z</Time>
            <Position>
              <LatitudeDegrees>43.46521846018731594085693359375</LatitudeDegrees>
              <LongitudeDegrees>-3.9316780306398868560791015625</LongitudeDegrees>
            </Position>
            <AltitudeMeters>70</AltitudeMeters>
            <DistanceMeters>NAN</DistanceMeters>
          </Trackpoint>
          <Trackpoint>
            <Time>2022-07-14T05:46:52.000Z</Time>
            <Position>
              <LatitudeDegrees>43.46515475772321224212646484375</LatitudeDegrees>
              <LongitudeDegrees>-3.93167442642152309417724609375</LongitudeDegrees>
            </Position>
            <AltitudeMeters>70.40000152587890625</AltitudeMeters>
            <DistanceMeters>NAN</DistanceMeters>
          </Trackpoint>
          <Trackpoint>
            <Time>2022-07-14T05:46:58.000Z</Time>
            <Position>
              <LatitudeDegrees>43.4650628082454204559326171875</LatitudeDegrees>
              <LongitudeDegrees>-3.931677527725696563720703125</LongitudeDegrees>
            </Position>
            <AltitudeMeters>71.1999969482421875</AltitudeMeters>
            <DistanceMeters>NAN</DistanceMeters>
          </Trackpoint>
          <Trackpoint>
            <Time>2022-07-14T05:47:01.000Z</Time>
            <Position>
              <LatitudeDegrees>43.46501897089183330535888671875</LatitudeDegrees>
              <LongitudeDegrees>-3.9316718280315399169921875</LongitudeDegrees>
            </Position>
            <AltitudeMeters>71.59999847412109375</AltitudeMeters>
            <DistanceMeters>NAN</DistanceMeters>
          </Trackpoint>
          <Trackpoint>
            <Time>2022-07-14T05:47:08.000Z</Time>
            <Position>
              <LatitudeDegrees>43.464899696409702301025390625</LatitudeDegrees>
              <LongitudeDegrees>-3.93165347166359424591064453125</LongitudeDegrees>
            </Position>
            <AltitudeMeters>72</AltitudeMeters>
            <DistanceMeters>NAN</DistanceMeters>
          </Trackpoint>
          <Trackpoint>
            <Time>2022-07-14T05:47:14.000Z</Time>
            <Position>
              <LatitudeDegrees>43.4647999517619609832763671875</LatitudeDegrees>
              <LongitudeDegrees>-3.93166269175708293914794921875</LongitudeDegrees>
            </Position>
            <AltitudeMeters>72.59999847412109375</AltitudeMeters>
            <DistanceMeters>NAN</DistanceMeters>
          </Trackpoint>
          <Trackpoint>
            <Time>2022-07-14T05:47:16.000Z</Time>
            <Position>
              <LatitudeDegrees>43.4647694416344165802001953125</LatitudeDegrees>
              <LongitudeDegrees>-3.9316582493484020233154296875</LongitudeDegrees>
            </Position>
            <AltitudeMeters>72.59999847412109375</AltitudeMeters>
            <DistanceMeters>NAN</DistanceMeters>
          </Trackpoint>
          <Trackpoint>
            <Time>2022-07-14T05:47:24.000Z</Time>
            <Position>
              <LatitudeDegrees>43.46463910304009914398193359375</LatitudeDegrees>
              <LongitudeDegrees>-3.93165238201618194580078125</LongitudeDegrees>
            </Position>
            <AltitudeMeters>73.1999969482421875</AltitudeMeters>
            <DistanceMeters>NAN</DistanceMeters>
          </Trackpoint>
          <Trackpoint>
            <Time>2022-07-14T05:47:27.000Z</Time>
            <Position>
              <LatitudeDegrees>43.46458763815462589263916015625</LatitudeDegrees>
              <LongitudeDegrees>-3.93164592795073986053466796875</LongitudeDegrees>
            </Position>
            <AltitudeMeters>73.40000152587890625</AltitudeMeters>
            <DistanceMeters>NAN</DistanceMeters>
          </Trackpoint>
          <Trackpoint>
            <Time>2022-07-14T05:47:28.000Z</Time>
            <Position>
              <LatitudeDegrees>43.46457087434828281402587890625</LatitudeDegrees>
              <LongitudeDegrees>-3.93164207227528095245361328125</LongitudeDegrees>
            </Position>
            <AltitudeMeters>73.59999847412109375</AltitudeMeters>
            <DistanceMeters>NAN</DistanceMeters>
          </Trackpoint>
          <Trackpoint>
            <Time>2022-07-14T05:47:33.000Z</Time>
            <Position>
              <LatitudeDegrees>43.46448940224945545196533203125</LatitudeDegrees>
              <LongitudeDegrees>-3.93164324574172496795654296875</LongitudeDegrees>
            </Position>
            <AltitudeMeters>74</AltitudeMeters>
            <DistanceMeters>NAN</DistanceMeters>
          </Trackpoint>
          <Trackpoint>
            <Time>2022-07-14T05:47:36.000Z</Time>
            <Position>
              <LatitudeDegrees>43.46444405615329742431640625</LatitudeDegrees>
              <LongitudeDegrees>-3.931638300418853759765625</LongitudeDegrees>
            </Position>
            <AltitudeMeters>74.1999969482421875</AltitudeMeters>
            <DistanceMeters>NAN</DistanceMeters>
          </Trackpoint>
          <Trackpoint>
            <Time>2022-07-14T05:47:42.000Z</Time>
            <Position>
              <LatitudeDegrees>43.46434439532458782196044921875</LatitudeDegrees>
              <LongitudeDegrees>-3.9316294156014919281005859375</LongitudeDegrees>
            </Position>
            <AltitudeMeters>74.59999847412109375</AltitudeMeters>
            <DistanceMeters>NAN</DistanceMeters>
          </Trackpoint>
          <Trackpoint>
            <Time>2022-07-14T05:47:44.000Z</Time>
            <Position>
              <LatitudeDegrees>43.4643154777586460113525390625</LatitudeDegrees>
              <LongitudeDegrees>-3.93164098262786865234375</LongitudeDegrees>
            </Position>
            <AltitudeMeters>74.8000030517578125</AltitudeMeters>
            <DistanceMeters>NAN</DistanceMeters>
          </Trackpoint>
          <Trackpoint>
            <Time>2022-07-14T05:47:52.000Z</Time>
            <Position>
              <LatitudeDegrees>43.4642001427710056304931640625</LatitudeDegrees>
              <LongitudeDegrees>-3.93172924406826496124267578125</LongitudeDegrees>
            </Position>
            <AltitudeMeters>75.40000152587890625</AltitudeMeters>
            <DistanceMeters>NAN</DistanceMeters>
          </Trackpoint>
          <Trackpoint>
            <Time>2022-07-14T05:47:53.000Z</Time>
            <Position>
              <LatitudeDegrees>43.46419620327651500701904296875</LatitudeDegrees>
              <LongitudeDegrees>-3.93175355158746242523193359375</LongitudeDegrees>
            </Position>
            <AltitudeMeters>75.59999847412109375</AltitudeMeters>
            <DistanceMeters>NAN</DistanceMeters>
          </Trackpoint>
          <Trackpoint>
            <Time>2022-07-14T05:47:54.000Z</Time>
            <Position>
              <LatitudeDegrees>43.46419838257133960723876953125</LatitudeDegrees>
              <LongitudeDegrees>-3.93177936784923076629638671875</LongitudeDegrees>
            </Position>
            <AltitudeMeters>75.8000030517578125</AltitudeMeters>
            <DistanceMeters>NAN</DistanceMeters>
          </Trackpoint>
          <Trackpoint>
            <Time>2022-07-14T05:47:59.000Z</Time>
            <Position>
              <LatitudeDegrees>43.46425470896065235137939453125</LatitudeDegrees>
              <LongitudeDegrees>-3.93190945498645305633544921875</LongitudeDegrees>
            </Position>
            <AltitudeMeters>76.1999969482421875</AltitudeMeters>
            <DistanceMeters>NAN</DistanceMeters>
          </Trackpoint>
          <Trackpoint>
            <Time>2022-07-14T05:48:09.000Z</Time>
            <Position>
              <LatitudeDegrees>43.46440709196031093597412109375</LatitudeDegrees>
              <LongitudeDegrees>-3.9322377741336822509765625</LongitudeDegrees>
            </Position>
            <AltitudeMeters>76.1999969482421875</AltitudeMeters>
            <DistanceMeters>NAN</DistanceMeters>
          </Trackpoint>
          <Trackpoint>
            <Time>2022-07-14T05:48:12.000Z</Time>
            <Position>
              <LatitudeDegrees>43.46446174196898937225341796875</LatitudeDegrees>
              <LongitudeDegrees>-3.9323556236922740936279296875</LongitudeDegrees>
            </Position>
            <AltitudeMeters>76.1999969482421875</AltitudeMeters>
            <DistanceMeters>NAN</DistanceMeters>
          </Trackpoint>
          <Trackpoint>
            <Time>2022-07-14T05:48:18.000Z</Time>
            <Position>
              <LatitudeDegrees>43.46456550993025302886962890625</LatitudeDegrees>
              <LongitudeDegrees>-3.93258000724017620086669921875</LongitudeDegrees>
            </Position>
            <AltitudeMeters>76</AltitudeMeters>
            <DistanceMeters>NAN</DistanceMeters>
          </Trackpoint>
          <Trackpoint>
            <Time>2022-07-14T05:48:22.000Z</Time>
            <Position>
              <LatitudeDegrees>43.46464379690587520599365234375</LatitudeDegrees>
              <LongitudeDegrees>-3.93273867666721343994140625</LongitudeDegrees>
            </Position>
            <AltitudeMeters>75.8000030517578125</AltitudeMeters>
            <DistanceMeters>NAN</DistanceMeters>
          </Trackpoint>
          <Trackpoint>
            <Time>2022-07-14T05:48:27.000Z</Time>
            <Position>
              <LatitudeDegrees>43.464752845466136932373046875</LatitudeDegrees>
              <LongitudeDegrees>-3.93296758644282817840576171875</LongitudeDegrees>
            </Position>
            <AltitudeMeters>75.59999847412109375</AltitudeMeters>
            <DistanceMeters>NAN</DistanceMeters>
          </Trackpoint>
          <Trackpoint>
            <Time>2022-07-14T05:48:36.000Z</Time>
            <Position>
              <LatitudeDegrees>43.4649521671235561370849609375</LatitudeDegrees>
              <LongitudeDegrees>-3.9334174431860446929931640625</LongitudeDegrees>
            </Position>
            <AltitudeMeters>74.8000030517578125</AltitudeMeters>
            <DistanceMeters>NAN</DistanceMeters>
          </Trackpoint>
          <Trackpoint>
            <Time>2022-07-14T05:48:38.000Z</Time>
            <Position>
              <LatitudeDegrees>43.46499030478298664093017578125</LatitudeDegrees>
              <LongitudeDegrees>-3.93350712954998016357421875</LongitudeDegrees>
            </Position>
            <AltitudeMeters>74.8000030517578125</AltitudeMeters>
            <DistanceMeters>NAN</DistanceMeters>
          </Trackpoint>
          <Trackpoint>
            <Time>2022-07-14T05:48:43.000Z</Time>
            <Position>
              <LatitudeDegrees>43.46505870111286640167236328125</LatitudeDegrees>
              <LongitudeDegrees>-3.93375255167484283447265625</LongitudeDegrees>
            </Position>
            <AltitudeMeters>74.40000152587890625</AltitudeMeters>
            <DistanceMeters>NAN</DistanceMeters>
          </Trackpoint>
          <Trackpoint>
            <Time>2022-07-14T05:48:48.000Z</Time>
            <Position>
              <LatitudeDegrees>43.46518442966043949127197265625</LatitudeDegrees>
              <LongitudeDegrees>-3.93396251834928989410400390625</LongitudeDegrees>
            </Position>
            <AltitudeMeters>73.59999847412109375</AltitudeMeters>
            <DistanceMeters>NAN</DistanceMeters>
          </Trackpoint>
          <Trackpoint>
            <Time>2022-07-14T05:48:49.000Z</Time>
            <Position>
              <LatitudeDegrees>43.46521376632153987884521484375</LatitudeDegrees>
              <LongitudeDegrees>-3.9340004883706569671630859375</LongitudeDegrees>
            </Position>
            <AltitudeMeters>73.40000152587890625</AltitudeMeters>
            <DistanceMeters>NAN</DistanceMeters>
          </Trackpoint>
          <Trackpoint>
            <Time>2022-07-14T05:48:52.000Z</Time>
            <Position>
              <LatitudeDegrees>43.46529624424874782562255859375</LatitudeDegrees>
              <LongitudeDegrees>-3.9341158233582973480224609375</LongitudeDegrees>
            </Position>
            <AltitudeMeters>72.40000152587890625</AltitudeMeters>
            <DistanceMeters>NAN</DistanceMeters>
          </Trackpoint>
          <Trackpoint>
            <Time>2022-07-14T05:48:57.000Z</Time>
            <Position>
              <LatitudeDegrees>43.46544795669615268707275390625</LatitudeDegrees>
              <LongitudeDegrees>-3.93431992270052433013916015625</LongitudeDegrees>
            </Position>
            <AltitudeMeters>71.1999969482421875</AltitudeMeters>
            <DistanceMeters>NAN</DistanceMeters>
          </Trackpoint>
          <Trackpoint>
            <Time>2022-07-14T05:48:58.000Z</Time>
            <Position>
              <LatitudeDegrees>43.4654755331575870513916015625</LatitudeDegrees>
              <LongitudeDegrees>-3.93435345031321048736572265625</LongitudeDegrees>
            </Position>
            <AltitudeMeters>71</AltitudeMeters>
            <DistanceMeters>NAN</DistanceMeters>
          </Trackpoint>
          <Trackpoint>
            <Time>2022-07-14T05:49:04.000Z</Time>
            <Position>
              <LatitudeDegrees>43.46567929722368717193603515625</LatitudeDegrees>
              <LongitudeDegrees>-3.93468839116394519805908203125</LongitudeDegrees>
            </Position>
            <AltitudeMeters>70.1999969482421875</AltitudeMeters>
            <DistanceMeters>NAN</DistanceMeters>
          </Trackpoint>
          <Trackpoint>
            <Time>2022-07-14T05:49:05.000Z</Time>
            <Position>
              <LatitudeDegrees>43.46570947207510471343994140625</LatitudeDegrees>
              <LongitudeDegrees>-3.934755362570285797119140625</LongitudeDegrees>
            </Position>
            <AltitudeMeters>69.8000030517578125</AltitudeMeters>
            <DistanceMeters>NAN</DistanceMeters>
          </Trackpoint>
          <Trackpoint>
            <Time>2022-07-14T05:49:07.000Z</Time>
            <Position>
              <LatitudeDegrees>43.465755991637706756591796875</LatitudeDegrees>
              <LongitudeDegrees>-3.9349144510924816131591796875</LongitudeDegrees>
            </Position>
            <AltitudeMeters>68.59999847412109375</AltitudeMeters>
            <DistanceMeters>NAN</DistanceMeters>
          </Trackpoint>
          <Trackpoint>
            <Time>2022-07-14T05:49:08.000Z</Time>
            <Position>
              <LatitudeDegrees>43.46577233634889125823974609375</LatitudeDegrees>
              <LongitudeDegrees>-3.9349996112287044525146484375</LongitudeDegrees>
            </Position>
            <AltitudeMeters>68.1999969482421875</AltitudeMeters>
            <DistanceMeters>NAN</DistanceMeters>
          </Trackpoint>
          <Trackpoint>
            <Time>2022-07-14T05:49:10.000Z</Time>
            <Position>
              <LatitudeDegrees>43.4657977335155010223388671875</LatitudeDegrees>
              <LongitudeDegrees>-3.93518912605941295623779296875</LongitudeDegrees>
            </Position>
            <AltitudeMeters>67</AltitudeMeters>
            <DistanceMeters>NAN</DistanceMeters>
          </Trackpoint>
          <Trackpoint>
            <Time>2022-07-14T05:49:12.000Z</Time>
            <Position>
              <LatitudeDegrees>43.4658099710941314697265625</LatitudeDegrees>
              <LongitudeDegrees>-3.93539012409746646881103515625</LongitudeDegrees>
            </Position>
            <AltitudeMeters>66</AltitudeMeters>
            <DistanceMeters>NAN</DistanceMeters>
          </Trackpoint>
          <Trackpoint>
            <Time>2022-07-14T05:49:13.000Z</Time>
            <Position>
              <LatitudeDegrees>43.4658181853592395782470703125</LatitudeDegrees>
              <LongitudeDegrees>-3.9354917965829372406005859375</LongitudeDegrees>
            </Position>
            <AltitudeMeters>65</AltitudeMeters>
            <DistanceMeters>NAN</DistanceMeters>
          </Trackpoint>
          <Trackpoint>
            <Time>2022-07-14T05:49:14.000Z</Time>
            <Position>
              <LatitudeDegrees>43.4658341109752655029296875</LatitudeDegrees>
              <LongitudeDegrees>-3.93559430725872516632080078125</LongitudeDegrees>
            </Position>
            <AltitudeMeters>63.200000762939453125</AltitudeMeters>
            <DistanceMeters>NAN</DistanceMeters>
          </Trackpoint>
          <Trackpoint>
            <Time>2022-07-14T05:49:15.000Z</Time>
            <Position>
              <LatitudeDegrees>43.4658577479422092437744140625</LatitudeDegrees>
              <LongitudeDegrees>-3.93569639883935451507568359375</LongitudeDegrees>
            </Position>
            <AltitudeMeters>61.799999237060546875</AltitudeMeters>
            <DistanceMeters>NAN</DistanceMeters>
          </Trackpoint>
          <Trackpoint>
            <Time>2022-07-14T05:49:17.000Z</Time>
            <Position>
              <LatitudeDegrees>43.46591818146407604217529296875</LatitudeDegrees>
              <LongitudeDegrees>-3.93587878905236721038818359375</LongitudeDegrees>
            </Position>
            <AltitudeMeters>60.799999237060546875</AltitudeMeters>
            <DistanceMeters>NAN</DistanceMeters>
          </Trackpoint>
          <Trackpoint>
            <Time>2022-07-14T05:49:21.000Z</Time>
            <Position>
              <LatitudeDegrees>43.46603938378393650054931640625</LatitudeDegrees>
              <LongitudeDegrees>-3.93613980151712894439697265625</LongitudeDegrees>
            </Position>
            <AltitudeMeters>61.200000762939453125</AltitudeMeters>
            <DistanceMeters>NAN</DistanceMeters>
          </Trackpoint>
          <Trackpoint>
            <Time>2022-07-14T05:49:22.000Z</Time>
            <Position>
              <LatitudeDegrees>43.4660595841705799102783203125</LatitudeDegrees>
              <LongitudeDegrees>-3.93618439324200153350830078125</LongitudeDegrees>
            </Position>
            <AltitudeMeters>61.799999237060546875</AltitudeMeters>
            <DistanceMeters>NAN</DistanceMeters>
          </Trackpoint>
          <Trackpoint>
            <Time>2022-07-14T05:49:25.000Z</Time>
            <Position>
              <LatitudeDegrees>43.4661081992089748382568359375</LatitudeDegrees>
              <LongitudeDegrees>-3.93627248704433441162109375</LongitudeDegrees>
            </Position>
            <AltitudeMeters>63</AltitudeMeters>
            <DistanceMeters>NAN</DistanceMeters>
          </Trackpoint>
          <Trackpoint>
            <Time>2022-07-14T05:49:29.000Z</Time>
            <Position>
              <LatitudeDegrees>43.46616092137992382049560546875</LatitudeDegrees>
              <LongitudeDegrees>-3.936352618038654327392578125</LongitudeDegrees>
            </Position>
            <AltitudeMeters>64.1999969482421875</AltitudeMeters>
            <DistanceMeters>NAN</DistanceMeters>
          </Trackpoint>
          <Trackpoint>
            <Time>2022-07-14T05:49:32.000Z</Time>
            <Position>
              <LatitudeDegrees>43.46619017422199249267578125</LatitudeDegrees>
              <LongitudeDegrees>-3.93640793859958648681640625</LongitudeDegrees>
            </Position>
            <AltitudeMeters>64.8000030517578125</AltitudeMeters>
            <DistanceMeters>NAN</DistanceMeters>
          </Trackpoint>
          <Trackpoint>
            <Time>2022-07-14T05:49:34.000Z</Time>
            <Position>
              <LatitudeDegrees>43.46621925942599773406982421875</LatitudeDegrees>
              <LongitudeDegrees>-3.93644222058355808258056640625</LongitudeDegrees>
            </Position>
            <AltitudeMeters>65.1999969482421875</AltitudeMeters>
            <DistanceMeters>NAN</DistanceMeters>
          </Trackpoint>
          <Trackpoint>
            <Time>2022-07-14T05:49:36.000Z</Time>
            <Position>
              <LatitudeDegrees>43.46624876372516155242919921875</LatitudeDegrees>
              <LongitudeDegrees>-3.93647172488272190093994140625</LongitudeDegrees>
            </Position>
            <AltitudeMeters>65.59999847412109375</AltitudeMeters>
            <DistanceMeters>NAN</DistanceMeters>
          </Trackpoint>
          <Trackpoint>
            <Time>2022-07-14T05:49:39.000Z</Time>
            <Position>
              <LatitudeDegrees>43.46629067324101924896240234375</LatitudeDegrees>
              <LongitudeDegrees>-3.93653140403330326080322265625</LongitudeDegrees>
            </Position>
            <AltitudeMeters>66</AltitudeMeters>
            <DistanceMeters>NAN</DistanceMeters>
          </Trackpoint>
          <Trackpoint>
            <Time>2022-07-14T05:49:40.000Z</Time>
            <Position>
              <LatitudeDegrees>43.46630374900996685028076171875</LatitudeDegrees>
              <LongitudeDegrees>-3.93655235879123210906982421875</LongitudeDegrees>
            </Position>
            <AltitudeMeters>66</AltitudeMeters>
            <DistanceMeters>NAN</DistanceMeters>
          </Trackpoint>
          <Trackpoint>
            <Time>2022-07-14T05:49:43.000Z</Time>
            <Position>
              <LatitudeDegrees>43.46634649671614170074462890625</LatitudeDegrees>
              <LongitudeDegrees>-3.93661136738955974578857421875</LongitudeDegrees>
            </Position>
            <AltitudeMeters>66.59999847412109375</AltitudeMeters>
            <DistanceMeters>NAN</DistanceMeters>
          </Trackpoint>
          <Trackpoint>
            <Time>2022-07-14T05:49:48.000Z</Time>
            <Position>
              <LatitudeDegrees>43.46640818752348423004150390625</LatitudeDegrees>
              <LongitudeDegrees>-3.9367413707077503204345703125</LongitudeDegrees>
            </Position>
            <AltitudeMeters>67.40000152587890625</AltitudeMeters>
            <DistanceMeters>NAN</DistanceMeters>
          </Trackpoint>
          <Trackpoint>
            <Time>2022-07-14T05:49:50.000Z</Time>
            <Position>
              <LatitudeDegrees>43.46643115393817424774169921875</LatitudeDegrees>
              <LongitudeDegrees>-3.9368047378957271575927734375</LongitudeDegrees>
            </Position>
            <AltitudeMeters>67.59999847412109375</AltitudeMeters>
            <DistanceMeters>NAN</DistanceMeters>
          </Trackpoint>
          <Trackpoint>
            <Time>2022-07-14T05:49:56.000Z</Time>
            <Position>
              <LatitudeDegrees>43.466504998505115509033203125</LatitudeDegrees>
              <LongitudeDegrees>-3.93698235042393207550048828125</LongitudeDegrees>
            </Position>
            <AltitudeMeters>67.8000030517578125</AltitudeMeters>
            <DistanceMeters>NAN</DistanceMeters>
          </Trackpoint>
          <Trackpoint>
            <Time>2022-07-14T05:49:58.000Z</Time>
            <Position>
              <LatitudeDegrees>43.4665212593972682952880859375</LatitudeDegrees>
              <LongitudeDegrees>-3.9370411075651645660400390625</LongitudeDegrees>
            </Position>
            <AltitudeMeters>67.8000030517578125</AltitudeMeters>
            <DistanceMeters>NAN</DistanceMeters>
          </Trackpoint>
          <Trackpoint>
            <Time>2022-07-14T05:50:03.000Z</Time>
            <Position>
              <LatitudeDegrees>43.4665618278086185455322265625</LatitudeDegrees>
              <LongitudeDegrees>-3.93720589578151702880859375</LongitudeDegrees>
            </Position>
            <AltitudeMeters>67.8000030517578125</AltitudeMeters>
            <DistanceMeters>NAN</DistanceMeters>
          </Trackpoint>
          <Trackpoint>
            <Time>2022-07-14T05:50:06.000Z</Time>
            <Position>
              <LatitudeDegrees>43.46658580005168914794921875</LatitudeDegrees>
              <LongitudeDegrees>-3.93731863237917423248291015625</LongitudeDegrees>
            </Position>
            <AltitudeMeters>68</AltitudeMeters>
            <DistanceMeters>NAN</DistanceMeters>
          </Trackpoint>
          <Trackpoint>
            <Time>2022-07-14T05:50:09.000Z</Time>
            <Position>
              <LatitudeDegrees>43.46660315059125423431396484375</LatitudeDegrees>
              <LongitudeDegrees>-3.937439583241939544677734375</LongitudeDegrees>
            </Position>
            <AltitudeMeters>68</AltitudeMeters>
            <DistanceMeters>NAN</DistanceMeters>
          </Trackpoint>
          <Trackpoint>
            <Time>2022-07-14T05:50:12.000Z</Time>
            <Position>
              <LatitudeDegrees>43.4666241891682147979736328125</LatitudeDegrees>
              <LongitudeDegrees>-3.93754175864160060882568359375</LongitudeDegrees>
            </Position>
            <AltitudeMeters>68</AltitudeMeters>
            <DistanceMeters>NAN</DistanceMeters>
          </Trackpoint>
          <Trackpoint>
            <Time>2022-07-14T05:50:13.000Z</Time>
            <Position>
              <LatitudeDegrees>43.46663634292781352996826171875</LatitudeDegrees>
              <LongitudeDegrees>-3.93757495097815990447998046875</LongitudeDegrees>
            </Position>
            <AltitudeMeters>68</AltitudeMeters>
            <DistanceMeters>NAN</DistanceMeters>
          </Trackpoint>
          <Trackpoint>
            <Time>2022-07-14T05:50:18.000Z</Time>
            <Position>
              <LatitudeDegrees>43.4667004644870758056640625</LatitudeDegrees>
              <LongitudeDegrees>-3.93773068673908710479736328125</LongitudeDegrees>
            </Position>
            <AltitudeMeters>68.59999847412109375</AltitudeMeters>
            <DistanceMeters>NAN</DistanceMeters>
          </Trackpoint>
          <Trackpoint>
            <Time>2022-07-14T05:50:22.000Z</Time>
            <Position>
              <LatitudeDegrees>43.4667541086673736572265625</LatitudeDegrees>
              <LongitudeDegrees>-3.93783126957714557647705078125</LongitudeDegrees>
            </Position>
            <AltitudeMeters>68.8000030517578125</AltitudeMeters>
            <DistanceMeters>NAN</DistanceMeters>
          </Trackpoint>
          <Trackpoint>
            <Time>2022-07-14T05:50:28.000Z</Time>
            <Position>
              <LatitudeDegrees>43.4668426215648651123046875</LatitudeDegrees>
              <LongitudeDegrees>-3.9379106462001800537109375</LongitudeDegrees>
            </Position>
            <AltitudeMeters>68.59999847412109375</AltitudeMeters>
            <DistanceMeters>NAN</DistanceMeters>
          </Trackpoint>
          <Trackpoint>
            <Time>2022-07-14T05:50:29.000Z</Time>
            <Position>
              <LatitudeDegrees>43.46685477532446384429931640625</LatitudeDegrees>
              <LongitudeDegrees>-3.93791492097079753875732421875</LongitudeDegrees>
            </Position>
            <AltitudeMeters>68.40000152587890625</AltitudeMeters>
            <DistanceMeters>NAN</DistanceMeters>
          </Trackpoint>
          <Trackpoint>
            <Time>2022-07-14T05:50:31.000Z</Time>
            <Position>
              <LatitudeDegrees>43.4668843634426593780517578125</LatitudeDegrees>
              <LongitudeDegrees>-3.93789522349834442138671875</LongitudeDegrees>
            </Position>
            <AltitudeMeters>68.1999969482421875</AltitudeMeters>
            <DistanceMeters>NAN</DistanceMeters>
          </Trackpoint>
          <Trackpoint>
            <Time>2022-07-14T05:50:33.000Z</Time>
            <Position>
              <LatitudeDegrees>43.4669105149805545806884765625</LatitudeDegrees>
              <LongitudeDegrees>-3.93783713690936565399169921875</LongitudeDegrees>
            </Position>
            <AltitudeMeters>67.8000030517578125</AltitudeMeters>
            <DistanceMeters>NAN</DistanceMeters>
          </Trackpoint>
          <Trackpoint>
            <Time>2022-07-14T05:50:35.000Z</Time>
            <Position>
              <LatitudeDegrees>43.46692669205367565155029296875</LatitudeDegrees>
              <LongitudeDegrees>-3.93777879886329174041748046875</LongitudeDegrees>
            </Position>
            <AltitudeMeters>67.40000152587890625</AltitudeMeters>
            <DistanceMeters>NAN</DistanceMeters>
          </Trackpoint>
          <Trackpoint>
            <Time>2022-07-14T05:50:40.000Z</Time>
            <Position>
              <LatitudeDegrees>43.46701168455183506011962890625</LatitudeDegrees>
              <LongitudeDegrees>-3.93760713748633861541748046875</LongitudeDegrees>
            </Position>
            <AltitudeMeters>66.59999847412109375</AltitudeMeters>
            <DistanceMeters>NAN</DistanceMeters>
          </Trackpoint>
          <Trackpoint>
            <Time>2022-07-14T05:50:41.000Z</Time>
            <Position>
              <LatitudeDegrees>43.46703062765300273895263671875</LatitudeDegrees>
              <LongitudeDegrees>-3.9375664852559566497802734375</LongitudeDegrees>
            </Position>
            <AltitudeMeters>66.1999969482421875</AltitudeMeters>
            <DistanceMeters>NAN</DistanceMeters>
          </Trackpoint>
          <Trackpoint>
            <Time>2022-07-14T05:50:42.000Z</Time>
            <Position>
              <LatitudeDegrees>43.46704311668872833251953125</LatitudeDegrees>
              <LongitudeDegrees>-3.9375389926135540008544921875</LongitudeDegrees>
            </Position>
            <AltitudeMeters>66</AltitudeMeters>
            <DistanceMeters>NAN</DistanceMeters>
          </Trackpoint>
          <Trackpoint>
            <Time>2022-07-14T05:50:44.000Z</Time>
            <Position>
              <LatitudeDegrees>43.46707622520625591278076171875</LatitudeDegrees>
              <LongitudeDegrees>-3.93746766261756420135498046875</LongitudeDegrees>
            </Position>
            <AltitudeMeters>65.59999847412109375</AltitudeMeters>
            <DistanceMeters>NAN</DistanceMeters>
          </Trackpoint>
          <Trackpoint>
            <Time>2022-07-14T05:50:47.000Z</Time>
            <Position>
              <LatitudeDegrees>43.4671069867908954620361328125</LatitudeDegrees>
              <LongitudeDegrees>-3.93740932457149028778076171875</LongitudeDegrees>
            </Position>
            <AltitudeMeters>65.1999969482421875</AltitudeMeters>
            <DistanceMeters>NAN</DistanceMeters>
          </Trackpoint>
          <Trackpoint>
            <Time>2022-07-14T05:50:48.000Z</Time>
            <Position>
              <LatitudeDegrees>43.46710824407637119293212890625</LatitudeDegrees>
              <LongitudeDegrees>-3.937407396733760833740234375</LongitudeDegrees>
            </Position>
            <AltitudeMeters>65.1999969482421875</AltitudeMeters>
            <DistanceMeters>NAN</DistanceMeters>
          </Trackpoint>
          <Trackpoint>
            <Time>2022-07-14T05:50:50.000Z</Time>
            <Position>
              <LatitudeDegrees>43.46710824407637119293212890625</LatitudeDegrees>
              <LongitudeDegrees>-3.937407396733760833740234375</LongitudeDegrees>
            </Position>
            <AltitudeMeters>65</AltitudeMeters>
            <DistanceMeters>NAN</DistanceMeters>
          </Trackpoint>
          <Trackpoint>
            <Time>2022-07-14T05:51:16.000Z</Time>
            <Position>
              <LatitudeDegrees>43.46707019023597240447998046875</LatitudeDegrees>
              <LongitudeDegrees>-3.93749247305095195770263671875</LongitudeDegrees>
            </Position>
            <AltitudeMeters>65.59999847412109375</AltitudeMeters>
            <DistanceMeters>NAN</DistanceMeters>
          </Trackpoint>
          <Trackpoint>
            <Time>2022-07-14T05:51:17.000Z</Time>
            <Position>
              <LatitudeDegrees>43.4670570306479930877685546875</LatitudeDegrees>
              <LongitudeDegrees>-3.937523066997528076171875</LongitudeDegrees>
            </Position>
            <AltitudeMeters>65.8000030517578125</AltitudeMeters>
            <DistanceMeters>NAN</DistanceMeters>
          </Trackpoint>
          <Trackpoint>
            <Time>2022-07-14T05:51:20.000Z</Time>
            <Position>
              <LatitudeDegrees>43.46701269038021564483642578125</LatitudeDegrees>
              <LongitudeDegrees>-3.93761585466563701629638671875</LongitudeDegrees>
            </Position>
            <AltitudeMeters>66</AltitudeMeters>
            <DistanceMeters>NAN</DistanceMeters>
          </Trackpoint>
          <Trackpoint>
            <Time>2022-07-14T05:51:21.000Z</Time>
            <Position>
              <LatitudeDegrees>43.46699860878288745880126953125</LatitudeDegrees>
              <LongitudeDegrees>-3.93764452077448368072509765625</LongitudeDegrees>
            </Position>
            <AltitudeMeters>66.1999969482421875</AltitudeMeters>
            <DistanceMeters>NAN</DistanceMeters>
          </Trackpoint>
          <Trackpoint>
            <Time>2022-07-14T05:51:26.000Z</Time>
            <Position>
              <LatitudeDegrees>43.4669292904436588287353515625</LatitudeDegrees>
              <LongitudeDegrees>-3.9377790503203868865966796875</LongitudeDegrees>
            </Position>
            <AltitudeMeters>66.8000030517578125</AltitudeMeters>
            <DistanceMeters>NAN</DistanceMeters>
          </Trackpoint>
          <Trackpoint>
            <Time>2022-07-14T05:51:30.000Z</Time>
            <Position>
              <LatitudeDegrees>43.4668595530092716217041015625</LatitudeDegrees>
              <LongitudeDegrees>-3.9378591813147068023681640625</LongitudeDegrees>
            </Position>
            <AltitudeMeters>67.1999969482421875</AltitudeMeters>
            <DistanceMeters>NAN</DistanceMeters>
          </Trackpoint>
          <Trackpoint>
            <Time>2022-07-14T05:51:32.000Z</Time>
            <Position>
              <LatitudeDegrees>43.46682929433882236480712890625</LatitudeDegrees>
              <LongitudeDegrees>-3.9378856681287288665771484375</LongitudeDegrees>
            </Position>
            <AltitudeMeters>67.59999847412109375</AltitudeMeters>
            <DistanceMeters>NAN</DistanceMeters>
          </Trackpoint>
          <Trackpoint>
            <Time>2022-07-14T05:51:33.000Z</Time>
            <Position>
              <LatitudeDegrees>43.46681336872279644012451171875</LatitudeDegrees>
              <LongitudeDegrees>-3.93789388239383697509765625</LongitudeDegrees>
            </Position>
            <AltitudeMeters>68.8000030517578125</AltitudeMeters>
            <DistanceMeters>NAN</DistanceMeters>
          </Trackpoint>
          <Trackpoint>
            <Time>2022-07-14T05:51:34.000Z</Time>
            <Position>
              <LatitudeDegrees>43.46679895184934139251708984375</LatitudeDegrees>
              <LongitudeDegrees>-3.93790000118315219879150390625</LongitudeDegrees>
            </Position>
            <AltitudeMeters>68.8000030517578125</AltitudeMeters>
            <DistanceMeters>NAN</DistanceMeters>
          </Trackpoint>
          <Trackpoint>
            <Time>2022-07-14T05:51:39.000Z</Time>
            <Position>
              <LatitudeDegrees>43.46671664156019687652587890625</LatitudeDegrees>
              <LongitudeDegrees>-3.93784836865961551666259765625</LongitudeDegrees>
            </Position>
            <AltitudeMeters>69</AltitudeMeters>
            <DistanceMeters>NAN</DistanceMeters>
          </Trackpoint>
          <Trackpoint>
            <Time>2022-07-14T05:51:42.000Z</Time>
            <Position>
              <LatitudeDegrees>43.4666728042066097259521484375</LatitudeDegrees>
              <LongitudeDegrees>-3.93776647746562957763671875</LongitudeDegrees>
            </Position>
            <AltitudeMeters>69</AltitudeMeters>
            <DistanceMeters>NAN</DistanceMeters>
          </Trackpoint>
          <Trackpoint>
            <Time>2022-07-14T05:51:43.000Z</Time>
            <Position>
              <LatitudeDegrees>43.4666575491428375244140625</LatitudeDegrees>
              <LongitudeDegrees>-3.9377309381961822509765625</LongitudeDegrees>
            </Position>
            <AltitudeMeters>69</AltitudeMeters>
            <DistanceMeters>NAN</DistanceMeters>
          </Trackpoint>
          <Trackpoint>
            <Time>2022-07-14T05:51:45.000Z</Time>
            <Position>
              <LatitudeDegrees>43.46661320887506008148193359375</LatitudeDegrees>
              <LongitudeDegrees>-3.93765960820019245147705078125</LongitudeDegrees>
            </Position>
            <AltitudeMeters>69</AltitudeMeters>
            <DistanceMeters>NAN</DistanceMeters>
          </Trackpoint>
          <Trackpoint>
            <Time>2022-07-14T05:51:47.000Z</Time>
            <Position>
              <LatitudeDegrees>43.46655822359025478363037109375</LatitudeDegrees>
              <LongitudeDegrees>-3.9376365579664707183837890625</LongitudeDegrees>
            </Position>
            <AltitudeMeters>69</AltitudeMeters>
            <DistanceMeters>NAN</DistanceMeters>
          </Trackpoint>
          <Trackpoint>
            <Time>2022-07-14T05:51:49.000Z</Time>
            <Position>
              <LatitudeDegrees>43.46649728715419769287109375</LatitudeDegrees>
              <LongitudeDegrees>-3.937675617635250091552734375</LongitudeDegrees>
            </Position>
            <AltitudeMeters>68.8000030517578125</AltitudeMeters>
            <DistanceMeters>NAN</DistanceMeters>
          </Trackpoint>
          <Trackpoint>
            <Time>2022-07-14T05:51:53.000Z</Time>
            <Position>
              <LatitudeDegrees>43.466471470892429351806640625</LatitudeDegrees>
              <LongitudeDegrees>-3.9378430880606174468994140625</LongitudeDegrees>
            </Position>
            <AltitudeMeters>69</AltitudeMeters>
            <DistanceMeters>NAN</DistanceMeters>
          </Trackpoint>
          <Trackpoint>
            <Time>2022-07-14T05:52:00.000Z</Time>
            <Position>
              <LatitudeDegrees>43.466448001563549041748046875</LatitudeDegrees>
              <LongitudeDegrees>-3.9381056092679500579833984375</LongitudeDegrees>
            </Position>
            <AltitudeMeters>69.59999847412109375</AltitudeMeters>
            <DistanceMeters>NAN</DistanceMeters>
          </Trackpoint>
          <Trackpoint>
            <Time>2022-07-14T05:52:01.000Z</Time>
            <Position>
              <LatitudeDegrees>43.46644490025937557220458984375</LatitudeDegrees>
              <LongitudeDegrees>-3.93813402391970157623291015625</LongitudeDegrees>
            </Position>
            <AltitudeMeters>69.8000030517578125</AltitudeMeters>
            <DistanceMeters>NAN</DistanceMeters>
          </Trackpoint>
          <Trackpoint>
            <Time>2022-07-14T05:52:05.000Z</Time>
            <Position>
              <LatitudeDegrees>43.46643215976655483245849609375</LatitudeDegrees>
              <LongitudeDegrees>-3.93827886320650577545166015625</LongitudeDegrees>
            </Position>
            <AltitudeMeters>70.1999969482421875</AltitudeMeters>
            <DistanceMeters>NAN</DistanceMeters>
          </Trackpoint>
          <Trackpoint>
            <Time>2022-07-14T05:52:07.000Z</Time>
            <Position>
              <LatitudeDegrees>43.46641908399760723114013671875</LatitudeDegrees>
              <LongitudeDegrees>-3.93834005109965801239013671875</LongitudeDegrees>
            </Position>
            <AltitudeMeters>70.40000152587890625</AltitudeMeters>
            <DistanceMeters>NAN</DistanceMeters>
          </Trackpoint>
          <Trackpoint>
            <Time>2022-07-14T05:52:17.000Z</Time>
            <Position>
              <LatitudeDegrees>43.4663732349872589111328125</LatitudeDegrees>
              <LongitudeDegrees>-3.9387166500091552734375</LongitudeDegrees>
            </Position>
            <AltitudeMeters>70.8000030517578125</AltitudeMeters>
            <DistanceMeters>NAN</DistanceMeters>
          </Trackpoint>
          <Trackpoint>
            <Time>2022-07-14T05:52:18.000Z</Time>
            <Position>
              <LatitudeDegrees>43.46636946313083171844482421875</LatitudeDegrees>
              <LongitudeDegrees>-3.9387486688792705535888671875</LongitudeDegrees>
            </Position>
            <AltitudeMeters>70.8000030517578125</AltitudeMeters>
            <DistanceMeters>NAN</DistanceMeters>
          </Trackpoint>
          <Trackpoint>
            <Time>2022-07-14T05:52:28.000Z</Time>
            <Position>
              <LatitudeDegrees>43.4663133881986141204833984375</LatitudeDegrees>
              <LongitudeDegrees>-3.9392036385834217071533203125</LongitudeDegrees>
            </Position>
            <AltitudeMeters>70.8000030517578125</AltitudeMeters>
            <DistanceMeters>NAN</DistanceMeters>
          </Trackpoint>
          <Trackpoint>
            <Time>2022-07-14T05:52:32.000Z</Time>
            <Position>
              <LatitudeDegrees>43.4662909246981143951416015625</LatitudeDegrees>
              <LongitudeDegrees>-3.93940656445920467376708984375</LongitudeDegrees>
            </Position>
            <AltitudeMeters>70.40000152587890625</AltitudeMeters>
            <DistanceMeters>NAN</DistanceMeters>
          </Trackpoint>
          <Trackpoint>
            <Time>2022-07-14T05:52:33.000Z</Time>
            <Position>
              <LatitudeDegrees>43.46628271043300628662109375</LatitudeDegrees>
              <LongitudeDegrees>-3.93946389667689800262451171875</LongitudeDegrees>
            </Position>
            <AltitudeMeters>70.1999969482421875</AltitudeMeters>
            <DistanceMeters>NAN</DistanceMeters>
          </Trackpoint>
          <Trackpoint>
            <Time>2022-07-14T05:52:36.000Z</Time>
            <Position>
              <LatitudeDegrees>43.466265611350536346435546875</LatitudeDegrees>
              <LongitudeDegrees>-3.93966221250593662261962890625</LongitudeDegrees>
            </Position>
            <AltitudeMeters>69.8000030517578125</AltitudeMeters>
            <DistanceMeters>NAN</DistanceMeters>
          </Trackpoint>
          <Trackpoint>
            <Time>2022-07-14T05:52:37.000Z</Time>
            <Position>
              <LatitudeDegrees>43.46625748090445995330810546875</LatitudeDegrees>
              <LongitudeDegrees>-3.93972608260810375213623046875</LongitudeDegrees>
            </Position>
            <AltitudeMeters>69.8000030517578125</AltitudeMeters>
            <DistanceMeters>NAN</DistanceMeters>
          </Trackpoint>
          <Trackpoint>
            <Time>2022-07-14T05:52:44.000Z</Time>
            <Position>
              <LatitudeDegrees>43.466204591095447540283203125</LatitudeDegrees>
              <LongitudeDegrees>-3.94017032347619533538818359375</LongitudeDegrees>
            </Position>
            <AltitudeMeters>68.59999847412109375</AltitudeMeters>
            <DistanceMeters>NAN</DistanceMeters>
          </Trackpoint>
          <Trackpoint>
            <Time>2022-07-14T05:52:50.000Z</Time>
            <Position>
              <LatitudeDegrees>43.46612907014787197113037109375</LatitudeDegrees>
              <LongitudeDegrees>-3.9404793642461299896240234375</LongitudeDegrees>
            </Position>
            <AltitudeMeters>68.1999969482421875</AltitudeMeters>
            <DistanceMeters>NAN</DistanceMeters>
          </Trackpoint>
          <Trackpoint>
            <Time>2022-07-14T05:53:00.000Z</Time>
            <Position>
              <LatitudeDegrees>43.4659697301685810089111328125</LatitudeDegrees>
              <LongitudeDegrees>-3.94101195037364959716796875</LongitudeDegrees>
            </Position>
            <AltitudeMeters>68.1999969482421875</AltitudeMeters>
            <DistanceMeters>NAN</DistanceMeters>
          </Trackpoint>
          <Trackpoint>
            <Time>2022-07-14T05:53:08.000Z</Time>
            <Position>
              <LatitudeDegrees>43.465859927237033843994140625</LatitudeDegrees>
              <LongitudeDegrees>-3.9414030499756336212158203125</LongitudeDegrees>
            </Position>
            <AltitudeMeters>68</AltitudeMeters>
            <DistanceMeters>NAN</DistanceMeters>
          </Trackpoint>
          <Trackpoint>
            <Time>2022-07-14T05:53:17.000Z</Time>
            <Position>
              <LatitudeDegrees>43.46573210321366786956787109375</LatitudeDegrees>
              <LongitudeDegrees>-3.941812254488468170166015625</LongitudeDegrees>
            </Position>
            <AltitudeMeters>67.59999847412109375</AltitudeMeters>
            <DistanceMeters>NAN</DistanceMeters>
          </Trackpoint>
          <Trackpoint>
            <Time>2022-07-14T05:53:19.000Z</Time>
            <Position>
              <LatitudeDegrees>43.46569262444972991943359375</LatitudeDegrees>
              <LongitudeDegrees>-3.94191375933587551116943359375</LongitudeDegrees>
            </Position>
            <AltitudeMeters>67.59999847412109375</AltitudeMeters>
            <DistanceMeters>NAN</DistanceMeters>
          </Trackpoint>
          <Trackpoint>
            <Time>2022-07-14T05:53:22.000Z</Time>
            <Position>
              <LatitudeDegrees>43.46562380902469158172607421875</LatitudeDegrees>
              <LongitudeDegrees>-3.94206698052585124969482421875</LongitudeDegrees>
            </Position>
            <AltitudeMeters>67.1999969482421875</AltitudeMeters>
            <DistanceMeters>NAN</DistanceMeters>
          </Trackpoint>
          <Trackpoint>
            <Time>2022-07-14T05:53:24.000Z</Time>
            <Position>
              <LatitudeDegrees>43.4655610285699367523193359375</LatitudeDegrees>
              <LongitudeDegrees>-3.94219958223402500152587890625</LongitudeDegrees>
            </Position>
            <AltitudeMeters>66.8000030517578125</AltitudeMeters>
            <DistanceMeters>NAN</DistanceMeters>
          </Trackpoint>
          <Trackpoint>
            <Time>2022-07-14T05:53:25.000Z</Time>
            <Position>
              <LatitudeDegrees>43.46553169190883636474609375</LatitudeDegrees>
              <LongitudeDegrees>-3.942266218364238739013671875</LongitudeDegrees>
            </Position>
            <AltitudeMeters>65.8000030517578125</AltitudeMeters>
            <DistanceMeters>NAN</DistanceMeters>
          </Trackpoint>
          <Trackpoint>
            <Time>2022-07-14T05:53:27.000Z</Time>
            <Position>
              <LatitudeDegrees>43.4654800593852996826171875</LatitudeDegrees>
              <LongitudeDegrees>-3.94238934852182865142822265625</LongitudeDegrees>
            </Position>
            <AltitudeMeters>64.40000152587890625</AltitudeMeters>
            <DistanceMeters>NAN</DistanceMeters>
          </Trackpoint>
          <Trackpoint>
            <Time>2022-07-14T05:53:30.000Z</Time>
            <Position>
              <LatitudeDegrees>43.46537075936794281005859375</LatitudeDegrees>
              <LongitudeDegrees>-3.9425825513899326324462890625</LongitudeDegrees>
            </Position>
            <AltitudeMeters>63.40000152587890625</AltitudeMeters>
            <DistanceMeters>NAN</DistanceMeters>
          </Trackpoint>
          <Trackpoint>
            <Time>2022-07-14T05:53:39.000Z</Time>
            <Position>
              <LatitudeDegrees>43.4651097469031810760498046875</LatitudeDegrees>
              <LongitudeDegrees>-3.94307364709675312042236328125</LongitudeDegrees>
            </Position>
            <AltitudeMeters>62.799999237060546875</AltitudeMeters>
            <DistanceMeters>NAN</DistanceMeters>
          </Trackpoint>
          <Trackpoint>
            <Time>2022-07-14T05:53:42.000Z</Time>
            <Position>
              <LatitudeDegrees>43.4650272689759731292724609375</LatitudeDegrees>
              <LongitudeDegrees>-3.9432303048670291900634765625</LongitudeDegrees>
            </Position>
            <AltitudeMeters>63.40000152587890625</AltitudeMeters>
            <DistanceMeters>NAN</DistanceMeters>
          </Trackpoint>
          <Trackpoint>
            <Time>2022-07-14T05:53:44.000Z</Time>
            <Position>
              <LatitudeDegrees>43.46498007886111736297607421875</LatitudeDegrees>
              <LongitudeDegrees>-3.94332401454448699951171875</LongitudeDegrees>
            </Position>
            <AltitudeMeters>63.59999847412109375</AltitudeMeters>
            <DistanceMeters>NAN</DistanceMeters>
          </Trackpoint>
          <Trackpoint>
            <Time>2022-07-14T05:53:50.000Z</Time>
            <Position>
              <LatitudeDegrees>43.464832641184329986572265625</LatitudeDegrees>
              <LongitudeDegrees>-3.9435696043074131011962890625</LongitudeDegrees>
            </Position>
            <AltitudeMeters>63.799999237060546875</AltitudeMeters>
            <DistanceMeters>NAN</DistanceMeters>
          </Trackpoint>
          <Trackpoint>
            <Time>2022-07-14T05:53:54.000Z</Time>
            <Position>
              <LatitudeDegrees>43.46476835198700428009033203125</LatitudeDegrees>
              <LongitudeDegrees>-3.943713940680027008056640625</LongitudeDegrees>
            </Position>
            <AltitudeMeters>64</AltitudeMeters>
            <DistanceMeters>NAN</DistanceMeters>
          </Trackpoint>
          <Trackpoint>
            <Time>2022-07-14T05:53:56.000Z</Time>
            <Position>
              <LatitudeDegrees>43.4647263586521148681640625</LatitudeDegrees>
              <LongitudeDegrees>-3.94377806223928928375244140625</LongitudeDegrees>
            </Position>
            <AltitudeMeters>64</AltitudeMeters>
            <DistanceMeters>NAN</DistanceMeters>
          </Trackpoint>
          <Trackpoint>
            <Time>2022-07-14T05:54:02.000Z</Time>
            <Position>
              <LatitudeDegrees>43.464636839926242828369140625</LatitudeDegrees>
              <LongitudeDegrees>-3.94398710690438747406005859375</LongitudeDegrees>
            </Position>
            <AltitudeMeters>64</AltitudeMeters>
            <DistanceMeters>NAN</DistanceMeters>
          </Trackpoint>
          <Trackpoint>
            <Time>2022-07-14T05:54:03.000Z</Time>
            <Position>
              <LatitudeDegrees>43.46462233923375606536865234375</LatitudeDegrees>
              <LongitudeDegrees>-3.94402147270739078521728515625</LongitudeDegrees>
            </Position>
            <AltitudeMeters>64</AltitudeMeters>
            <DistanceMeters>NAN</DistanceMeters>
          </Trackpoint>
          <Trackpoint>
            <Time>2022-07-14T05:54:09.000Z</Time>
            <Position>
              <LatitudeDegrees>43.46453332342207431793212890625</LatitudeDegrees>
              <LongitudeDegrees>-3.9442111551761627197265625</LongitudeDegrees>
            </Position>
            <AltitudeMeters>64.1999969482421875</AltitudeMeters>
            <DistanceMeters>NAN</DistanceMeters>
          </Trackpoint>
          <Trackpoint>
            <Time>2022-07-14T05:54:16.000Z</Time>
            <Position>
              <LatitudeDegrees>43.46439803950488567352294921875</LatitudeDegrees>
              <LongitudeDegrees>-3.94442598335444927215576171875</LongitudeDegrees>
            </Position>
            <AltitudeMeters>64</AltitudeMeters>
            <DistanceMeters>NAN</DistanceMeters>
          </Trackpoint>
          <Trackpoint>
            <Time>2022-07-14T05:54:18.000Z</Time>
            <Position>
              <LatitudeDegrees>43.46435478888452053070068359375</LatitudeDegrees>
              <LongitudeDegrees>-3.944504521787166595458984375</LongitudeDegrees>
            </Position>
            <AltitudeMeters>63.799999237060546875</AltitudeMeters>
            <DistanceMeters>NAN</DistanceMeters>
          </Trackpoint>
          <Trackpoint>
            <Time>2022-07-14T05:54:23.000Z</Time>
            <Position>
              <LatitudeDegrees>43.46419234760105609893798828125</LatitudeDegrees>
              <LongitudeDegrees>-3.9447219483554363250732421875</LongitudeDegrees>
            </Position>
            <AltitudeMeters>63</AltitudeMeters>
            <DistanceMeters>NAN</DistanceMeters>
          </Trackpoint>
          <Trackpoint>
            <Time>2022-07-14T05:54:29.000Z</Time>
            <Position>
              <LatitudeDegrees>43.46401280723512172698974609375</LatitudeDegrees>
              <LongitudeDegrees>-3.945004083216190338134765625</LongitudeDegrees>
            </Position>
            <AltitudeMeters>62.59999847412109375</AltitudeMeters>
            <DistanceMeters>NAN</DistanceMeters>
          </Trackpoint>
          <Trackpoint>
            <Time>2022-07-14T05:54:30.000Z</Time>
            <Position>
              <LatitudeDegrees>43.4639822132885456085205078125</LatitudeDegrees>
              <LongitudeDegrees>-3.9450545422732830047607421875</LongitudeDegrees>
            </Position>
            <AltitudeMeters>62.200000762939453125</AltitudeMeters>
            <DistanceMeters>NAN</DistanceMeters>
          </Trackpoint>
          <Trackpoint>
            <Time>2022-07-14T05:54:32.000Z</Time>
            <Position>
              <LatitudeDegrees>43.463917672634124755859375</LatitudeDegrees>
              <LongitudeDegrees>-3.94514657557010650634765625</LongitudeDegrees>
            </Position>
            <AltitudeMeters>62</AltitudeMeters>
            <DistanceMeters>NAN</DistanceMeters>
          </Trackpoint>
          <Trackpoint>
            <Time>2022-07-14T05:54:34.000Z</Time>
            <Position>
              <LatitudeDegrees>43.46386159770190715789794921875</LatitudeDegrees>
              <LongitudeDegrees>-3.94524137489497661590576171875</LongitudeDegrees>
            </Position>
            <AltitudeMeters>61.799999237060546875</AltitudeMeters>
            <DistanceMeters>NAN</DistanceMeters>
          </Trackpoint>
          <Trackpoint>
            <Time>2022-07-14T05:54:35.000Z</Time>
            <Position>
              <LatitudeDegrees>43.46383360214531421661376953125</LatitudeDegrees>
              <LongitudeDegrees>-3.94529535435140132904052734375</LongitudeDegrees>
            </Position>
            <AltitudeMeters>61.799999237060546875</AltitudeMeters>
            <DistanceMeters>NAN</DistanceMeters>
          </Trackpoint>
          <Trackpoint>
            <Time>2022-07-14T05:54:38.000Z</Time>
            <Position>
              <LatitudeDegrees>43.46375472843647003173828125</LatitudeDegrees>
              <LongitudeDegrees>-3.94546148367226123809814453125</LongitudeDegrees>
            </Position>
            <AltitudeMeters>61.59999847412109375</AltitudeMeters>
            <DistanceMeters>NAN</DistanceMeters>
          </Trackpoint>
          <Trackpoint>
            <Time>2022-07-14T05:54:41.000Z</Time>
            <Position>
              <LatitudeDegrees>43.4636690653860569000244140625</LatitudeDegrees>
              <LongitudeDegrees>-3.94565829075872898101806640625</LongitudeDegrees>
            </Position>
            <AltitudeMeters>61.200000762939453125</AltitudeMeters>
            <DistanceMeters>NAN</DistanceMeters>
          </Trackpoint>
          <Trackpoint>
            <Time>2022-07-14T05:54:42.000Z</Time>
            <Position>
              <LatitudeDegrees>43.46364132128655910491943359375</LatitudeDegrees>
              <LongitudeDegrees>-3.945723585784435272216796875</LongitudeDegrees>
            </Position>
            <AltitudeMeters>60.799999237060546875</AltitudeMeters>
            <DistanceMeters>NAN</DistanceMeters>
          </Trackpoint>
          <Trackpoint>
            <Time>2022-07-14T05:54:43.000Z</Time>
            <Position>
              <LatitudeDegrees>43.46361525356769561767578125</LatitudeDegrees>
              <LongitudeDegrees>-3.94579122774302959442138671875</LongitudeDegrees>
            </Position>
            <AltitudeMeters>60.59999847412109375</AltitudeMeters>
            <DistanceMeters>NAN</DistanceMeters>
          </Trackpoint>
          <Trackpoint>
            <Time>2022-07-14T05:54:44.000Z</Time>
            <Position>
              <LatitudeDegrees>43.46359245479106903076171875</LatitudeDegrees>
              <LongitudeDegrees>-3.94586113281548023223876953125</LongitudeDegrees>
            </Position>
            <AltitudeMeters>60.59999847412109375</AltitudeMeters>
            <DistanceMeters>NAN</DistanceMeters>
          </Trackpoint>
          <Trackpoint>
            <Time>2022-07-14T05:54:47.000Z</Time>
            <Position>
              <LatitudeDegrees>43.46353386528789997100830078125</LatitudeDegrees>
              <LongitudeDegrees>-3.94605056382715702056884765625</LongitudeDegrees>
            </Position>
            <AltitudeMeters>60</AltitudeMeters>
            <DistanceMeters>NAN</DistanceMeters>
          </Trackpoint>
          <Trackpoint>
            <Time>2022-07-14T05:54:48.000Z</Time>
            <Position>
              <LatitudeDegrees>43.46351089887320995330810546875</LatitudeDegrees>
              <LongitudeDegrees>-3.94610504619777202606201171875</LongitudeDegrees>
            </Position>
            <AltitudeMeters>59.799999237060546875</AltitudeMeters>
            <DistanceMeters>NAN</DistanceMeters>
          </Trackpoint>
          <Trackpoint>
            <Time>2022-07-14T05:54:49.000Z</Time>
            <Position>
              <LatitudeDegrees>43.46348709426820278167724609375</LatitudeDegrees>
              <LongitudeDegrees>-3.9461552537977695465087890625</LongitudeDegrees>
            </Position>
            <AltitudeMeters>59.40000152587890625</AltitudeMeters>
            <DistanceMeters>NAN</DistanceMeters>
          </Trackpoint>
          <Trackpoint>
            <Time>2022-07-14T05:54:51.000Z</Time>
            <Position>
              <LatitudeDegrees>43.46342674456536769866943359375</LatitudeDegrees>
              <LongitudeDegrees>-3.94625164568424224853515625</LongitudeDegrees>
            </Position>
            <AltitudeMeters>59</AltitudeMeters>
            <DistanceMeters>NAN</DistanceMeters>
          </Trackpoint>
          <Trackpoint>
            <Time>2022-07-14T05:54:54.000Z</Time>
            <Position>
              <LatitudeDegrees>43.46332733519375324249267578125</LatitudeDegrees>
              <LongitudeDegrees>-3.9463829062879085540771484375</LongitudeDegrees>
            </Position>
            <AltitudeMeters>58.40000152587890625</AltitudeMeters>
            <DistanceMeters>NAN</DistanceMeters>
          </Trackpoint>
          <Trackpoint>
            <Time>2022-07-14T05:55:01.000Z</Time>
            <Position>
              <LatitudeDegrees>43.46308710984885692596435546875</LatitudeDegrees>
              <LongitudeDegrees>-3.94664584659039974212646484375</LongitudeDegrees>
            </Position>
            <AltitudeMeters>58</AltitudeMeters>
            <DistanceMeters>NAN</DistanceMeters>
          </Trackpoint>
          <Trackpoint>
            <Time>2022-07-14T05:55:03.000Z</Time>
            <Position>
              <LatitudeDegrees>43.4630206413567066192626953125</LatitudeDegrees>
              <LongitudeDegrees>-3.94673067145049571990966796875</LongitudeDegrees>
            </Position>
            <AltitudeMeters>57.59999847412109375</AltitudeMeters>
            <DistanceMeters>NAN</DistanceMeters>
          </Trackpoint>
          <Trackpoint>
            <Time>2022-07-14T05:55:09.000Z</Time>
            <Position>
              <LatitudeDegrees>43.46284319646656513214111328125</LatitudeDegrees>
              <LongitudeDegrees>-3.94702613353729248046875</LongitudeDegrees>
            </Position>
            <AltitudeMeters>56.59999847412109375</AltitudeMeters>
            <DistanceMeters>NAN</DistanceMeters>
          </Trackpoint>
          <Trackpoint>
            <Time>2022-07-14T05:55:10.000Z</Time>
            <Position>
              <LatitudeDegrees>43.4628097526729106903076171875</LatitudeDegrees>
              <LongitudeDegrees>-3.947072736918926239013671875</LongitudeDegrees>
            </Position>
            <AltitudeMeters>56.40000152587890625</AltitudeMeters>
            <DistanceMeters>NAN</DistanceMeters>
          </Trackpoint>
          <Trackpoint>
            <Time>2022-07-14T05:55:12.000Z</Time>
            <Position>
              <LatitudeDegrees>43.46273708157241344451904296875</LatitudeDegrees>
              <LongitudeDegrees>-3.9471573941409587860107421875</LongitudeDegrees>
            </Position>
            <AltitudeMeters>55.59999847412109375</AltitudeMeters>
            <DistanceMeters>NAN</DistanceMeters>
          </Trackpoint>
          <Trackpoint>
            <Time>2022-07-14T05:55:16.000Z</Time>
            <Position>
              <LatitudeDegrees>43.4625777415931224822998046875</LatitudeDegrees>
              <LongitudeDegrees>-3.947313465178012847900390625</LongitudeDegrees>
            </Position>
            <AltitudeMeters>55</AltitudeMeters>
            <DistanceMeters>NAN</DistanceMeters>
          </Trackpoint>
          <Trackpoint>
            <Time>2022-07-14T05:55:18.000Z</Time>
            <Position>
              <LatitudeDegrees>43.46248646266758441925048828125</LatitudeDegrees>
              <LongitudeDegrees>-3.94738831557333469390869140625</LongitudeDegrees>
            </Position>
            <AltitudeMeters>54.799999237060546875</AltitudeMeters>
            <DistanceMeters>NAN</DistanceMeters>
          </Trackpoint>
          <Trackpoint>
            <Time>2022-07-14T05:55:19.000Z</Time>
            <Position>
              <LatitudeDegrees>43.46244321204721927642822265625</LatitudeDegrees>
              <LongitudeDegrees>-3.94743206910789012908935546875</LongitudeDegrees>
            </Position>
            <AltitudeMeters>54.59999847412109375</AltitudeMeters>
            <DistanceMeters>NAN</DistanceMeters>
          </Trackpoint>
          <Trackpoint>
            <Time>2022-07-14T05:55:23.000Z</Time>
            <Position>
              <LatitudeDegrees>43.46227842383086681365966796875</LatitudeDegrees>
              <LongitudeDegrees>-3.94762569107115268707275390625</LongitudeDegrees>
            </Position>
            <AltitudeMeters>53.59999847412109375</AltitudeMeters>
            <DistanceMeters>NAN</DistanceMeters>
          </Trackpoint>
          <Trackpoint>
            <Time>2022-07-14T05:55:24.000Z</Time>
            <Position>
              <LatitudeDegrees>43.462240956723690032958984375</LatitudeDegrees>
              <LongitudeDegrees>-3.94768704660236835479736328125</LongitudeDegrees>
            </Position>
            <AltitudeMeters>53.200000762939453125</AltitudeMeters>
            <DistanceMeters>NAN</DistanceMeters>
          </Trackpoint>
          <Trackpoint>
            <Time>2022-07-14T05:55:25.000Z</Time>
            <Position>
              <LatitudeDegrees>43.4622099436819553375244140625</LatitudeDegrees>
              <LongitudeDegrees>-3.94775846041738986968994140625</LongitudeDegrees>
            </Position>
            <AltitudeMeters>52.59999847412109375</AltitudeMeters>
            <DistanceMeters>NAN</DistanceMeters>
          </Trackpoint>
          <Trackpoint>
            <Time>2022-07-14T05:55:26.000Z</Time>
            <Position>
              <LatitudeDegrees>43.46217884682118892669677734375</LatitudeDegrees>
              <LongitudeDegrees>-3.94783356226980686187744140625</LongitudeDegrees>
            </Position>
            <AltitudeMeters>52</AltitudeMeters>
            <DistanceMeters>NAN</DistanceMeters>
          </Trackpoint>
          <Trackpoint>
            <Time>2022-07-14T05:55:28.000Z</Time>
            <Position>
              <LatitudeDegrees>43.46211816184222698211669921875</LatitudeDegrees>
              <LongitudeDegrees>-3.94796348176896572113037109375</LongitudeDegrees>
            </Position>
            <AltitudeMeters>50.40000152587890625</AltitudeMeters>
            <DistanceMeters>NAN</DistanceMeters>
          </Trackpoint>
          <Trackpoint>
            <Time>2022-07-14T05:55:29.000Z</Time>
            <Position>
              <LatitudeDegrees>43.462088070809841156005859375</LatitudeDegrees>
              <LongitudeDegrees>-3.9480157010257244110107421875</LongitudeDegrees>
            </Position>
            <AltitudeMeters>50.200000762939453125</AltitudeMeters>
            <DistanceMeters>NAN</DistanceMeters>
          </Trackpoint>
          <Trackpoint>
            <Time>2022-07-14T05:55:31.000Z</Time>
            <Position>
              <LatitudeDegrees>43.462027721107006072998046875</LatitudeDegrees>
              <LongitudeDegrees>-3.948116116225719451904296875</LongitudeDegrees>
            </Position>
            <AltitudeMeters>49.200000762939453125</AltitudeMeters>
            <DistanceMeters>NAN</DistanceMeters>
          </Trackpoint>
          <Trackpoint>
            <Time>2022-07-14T05:55:33.000Z</Time>
            <Position>
              <LatitudeDegrees>43.46199679188430309295654296875</LatitudeDegrees>
              <LongitudeDegrees>-3.94822172820568084716796875</LongitudeDegrees>
            </Position>
            <AltitudeMeters>49</AltitudeMeters>
            <DistanceMeters>NAN</DistanceMeters>
          </Trackpoint>
          <Trackpoint>
            <Time>2022-07-14T05:55:34.000Z</Time>
            <Position>
              <LatitudeDegrees>43.46199796535074710845947265625</LatitudeDegrees>
              <LongitudeDegrees>-3.9482653141021728515625</LongitudeDegrees>
            </Position>
            <AltitudeMeters>49</AltitudeMeters>
            <DistanceMeters>NAN</DistanceMeters>
          </Trackpoint>
          <Trackpoint>
            <Time>2022-07-14T05:55:39.000Z</Time>
            <Position>
              <LatitudeDegrees>43.461987487971782684326171875</LatitudeDegrees>
              <LongitudeDegrees>-3.9484150148928165435791015625</LongitudeDegrees>
            </Position>
            <AltitudeMeters>49.40000152587890625</AltitudeMeters>
            <DistanceMeters>NAN</DistanceMeters>
          </Trackpoint>
          <Trackpoint>
            <Time>2022-07-14T05:55:44.000Z</Time>
            <Position>
              <LatitudeDegrees>43.4619014896452426910400390625</LatitudeDegrees>
              <LongitudeDegrees>-3.9485182799398899078369140625</LongitudeDegrees>
            </Position>
            <AltitudeMeters>49.59999847412109375</AltitudeMeters>
            <DistanceMeters>NAN</DistanceMeters>
          </Trackpoint>
          <Trackpoint>
            <Time>2022-07-14T05:55:51.000Z</Time>
            <Position>
              <LatitudeDegrees>43.46177995204925537109375</LatitudeDegrees>
              <LongitudeDegrees>-3.94867359660565853118896484375</LongitudeDegrees>
            </Position>
            <AltitudeMeters>49.799999237060546875</AltitudeMeters>
            <DistanceMeters>NAN</DistanceMeters>
          </Trackpoint>
          <Trackpoint>
            <Time>2022-07-14T05:55:57.000Z</Time>
            <Position>
              <LatitudeDegrees>43.4617026709020137786865234375</LatitudeDegrees>
              <LongitudeDegrees>-3.9488465152680873870849609375</LongitudeDegrees>
            </Position>
            <AltitudeMeters>49.59999847412109375</AltitudeMeters>
            <DistanceMeters>NAN</DistanceMeters>
          </Trackpoint>
          <Trackpoint>
            <Time>2022-07-14T05:56:05.000Z</Time>
            <Position>
              <LatitudeDegrees>43.4616037644445896148681640625</LatitudeDegrees>
              <LongitudeDegrees>-3.94906419329345226287841796875</LongitudeDegrees>
            </Position>
            <AltitudeMeters>49.59999847412109375</AltitudeMeters>
            <DistanceMeters>NAN</DistanceMeters>
          </Trackpoint>
          <Trackpoint>
            <Time>2022-07-14T05:56:07.000Z</Time>
            <Position>
              <LatitudeDegrees>43.461582474410533905029296875</LatitudeDegrees>
              <LongitudeDegrees>-3.949114568531513214111328125</LongitudeDegrees>
            </Position>
            <AltitudeMeters>49.59999847412109375</AltitudeMeters>
            <DistanceMeters>NAN</DistanceMeters>
          </Trackpoint>
          <Trackpoint>
            <Time>2022-07-14T05:56:11.000Z</Time>
            <Position>
              <LatitudeDegrees>43.46154752187430858612060546875</LatitudeDegrees>
              <LongitudeDegrees>-3.9492186717689037322998046875</LongitudeDegrees>
            </Position>
            <AltitudeMeters>49.59999847412109375</AltitudeMeters>
            <DistanceMeters>NAN</DistanceMeters>
          </Trackpoint>
          <Trackpoint>
            <Time>2022-07-14T05:56:17.000Z</Time>
            <Position>
              <LatitudeDegrees>43.461466133594512939453125</LatitudeDegrees>
              <LongitudeDegrees>-3.949356637895107269287109375</LongitudeDegrees>
            </Position>
            <AltitudeMeters>50.40000152587890625</AltitudeMeters>
            <DistanceMeters>NAN</DistanceMeters>
          </Trackpoint>
          <Trackpoint>
            <Time>2022-07-14T05:56:18.000Z</Time>
            <Position>
              <LatitudeDegrees>43.4614552371203899383544921875</LatitudeDegrees>
              <LongitudeDegrees>-3.94938488490879535675048828125</LongitudeDegrees>
            </Position>
            <AltitudeMeters>50.40000152587890625</AltitudeMeters>
            <DistanceMeters>NAN</DistanceMeters>
          </Trackpoint>
          <Trackpoint>
            <Time>2022-07-14T05:56:25.000Z</Time>
            <Position>
              <LatitudeDegrees>43.46138776279985904693603515625</LatitudeDegrees>
              <LongitudeDegrees>-3.9495127089321613311767578125</LongitudeDegrees>
            </Position>
            <AltitudeMeters>51.40000152587890625</AltitudeMeters>
            <DistanceMeters>NAN</DistanceMeters>
          </Trackpoint>
          <Trackpoint>
            <Time>2022-07-14T05:56:26.000Z</Time>
            <Position>
              <LatitudeDegrees>43.46137720160186290740966796875</LatitudeDegrees>
              <LongitudeDegrees>-3.9495301432907581329345703125</LongitudeDegrees>
            </Position>
            <AltitudeMeters>51.40000152587890625</AltitudeMeters>
            <DistanceMeters>NAN</DistanceMeters>
          </Trackpoint>
          <Trackpoint>
            <Time>2022-07-14T05:56:32.000Z</Time>
            <Position>
              <LatitudeDegrees>43.46130813471972942352294921875</LatitudeDegrees>
              <LongitudeDegrees>-3.94963215105235576629638671875</LongitudeDegrees>
            </Position>
            <AltitudeMeters>52.40000152587890625</AltitudeMeters>
            <DistanceMeters>NAN</DistanceMeters>
          </Trackpoint>
          <Trackpoint>
            <Time>2022-07-14T05:56:33.000Z</Time>
            <Position>
              <LatitudeDegrees>43.4612966515123844146728515625</LatitudeDegrees>
              <LongitudeDegrees>-3.94964204169809818267822265625</LongitudeDegrees>
            </Position>
            <AltitudeMeters>52.40000152587890625</AltitudeMeters>
            <DistanceMeters>NAN</DistanceMeters>
          </Trackpoint>
          <Trackpoint>
            <Time>2022-07-14T05:56:35.000Z</Time>
            <Position>
              <LatitudeDegrees>43.461282067000865936279296875</LatitudeDegrees>
              <LongitudeDegrees>-3.94967003725469112396240234375</LongitudeDegrees>
            </Position>
            <AltitudeMeters>52.799999237060546875</AltitudeMeters>
            <DistanceMeters>NAN</DistanceMeters>
          </Trackpoint>
          <Trackpoint>
            <Time>2022-07-14T05:56:38.000Z</Time>
            <Position>
              <LatitudeDegrees>43.461261950433254241943359375</LatitudeDegrees>
              <LongitudeDegrees>-3.94970524124801158905029296875</LongitudeDegrees>
            </Position>
            <AltitudeMeters>53.40000152587890625</AltitudeMeters>
            <DistanceMeters>NAN</DistanceMeters>
          </Trackpoint>
          <Trackpoint>
            <Time>2022-07-14T05:56:41.000Z</Time>
            <Position>
              <LatitudeDegrees>43.46124242059886455535888671875</LatitudeDegrees>
              <LongitudeDegrees>-3.9497531019151210784912109375</LongitudeDegrees>
            </Position>
            <AltitudeMeters>53.59999847412109375</AltitudeMeters>
            <DistanceMeters>NAN</DistanceMeters>
          </Trackpoint>
          <Trackpoint>
            <Time>2022-07-14T05:56:42.000Z</Time>
            <Position>
              <LatitudeDegrees>43.46123839728534221649169921875</LatitudeDegrees>
              <LongitudeDegrees>-3.9497645013034343719482421875</LongitudeDegrees>
            </Position>
            <AltitudeMeters>53.799999237060546875</AltitudeMeters>
            <DistanceMeters>NAN</DistanceMeters>
          </Trackpoint>
          <Trackpoint>
            <Time>2022-07-14T05:56:44.000Z</Time>
            <Position>
              <LatitudeDegrees>43.4612326137721538543701171875</LatitudeDegrees>
              <LongitudeDegrees>-3.949799202382564544677734375</LongitudeDegrees>
            </Position>
            <AltitudeMeters>54.200000762939453125</AltitudeMeters>
            <DistanceMeters>NAN</DistanceMeters>
          </Trackpoint>
          <Trackpoint>
            <Time>2022-07-14T05:56:49.000Z</Time>
            <Position>
              <LatitudeDegrees>43.46121392212808132171630859375</LatitudeDegrees>
              <LongitudeDegrees>-3.94987304694950580596923828125</LongitudeDegrees>
            </Position>
            <AltitudeMeters>54.59999847412109375</AltitudeMeters>
            <DistanceMeters>NAN</DistanceMeters>
          </Trackpoint>
          <Trackpoint>
            <Time>2022-07-14T05:56:51.000Z</Time>
            <Position>
              <LatitudeDegrees>43.4612101502716541290283203125</LatitudeDegrees>
              <LongitudeDegrees>-3.949909843504428863525390625</LongitudeDegrees>
            </Position>
            <AltitudeMeters>55</AltitudeMeters>
            <DistanceMeters>NAN</DistanceMeters>
          </Trackpoint>
          <Trackpoint>
            <Time>2022-07-14T05:56:55.000Z</Time>
            <Position>
              <LatitudeDegrees>43.4612078033387660980224609375</LatitudeDegrees>
              <LongitudeDegrees>-3.94997346214950084686279296875</LongitudeDegrees>
            </Position>
            <AltitudeMeters>55.799999237060546875</AltitudeMeters>
            <DistanceMeters>NAN</DistanceMeters>
          </Trackpoint>
          <Trackpoint>
            <Time>2022-07-14T05:56:59.000Z</Time>
            <Position>
              <LatitudeDegrees>43.46120118163526058197021484375</LatitudeDegrees>
              <LongitudeDegrees>-3.9500491507351398468017578125</LongitudeDegrees>
            </Position>
            <AltitudeMeters>56.59999847412109375</AltitudeMeters>
            <DistanceMeters>NAN</DistanceMeters>
          </Trackpoint>
          <Trackpoint>
            <Time>2022-07-14T05:57:01.000Z</Time>
            <Position>
              <LatitudeDegrees>43.461205959320068359375</LatitudeDegrees>
              <LongitudeDegrees>-3.9500924013555049896240234375</LongitudeDegrees>
            </Position>
            <AltitudeMeters>57</AltitudeMeters>
            <DistanceMeters>NAN</DistanceMeters>
          </Trackpoint>
          <Trackpoint>
            <Time>2022-07-14T05:57:05.000Z</Time>
            <Position>
              <LatitudeDegrees>43.4612121619284152984619140625</LatitudeDegrees>
              <LongitudeDegrees>-3.95016758702695369720458984375</LongitudeDegrees>
            </Position>
            <AltitudeMeters>57.799999237060546875</AltitudeMeters>
            <DistanceMeters>NAN</DistanceMeters>
          </Trackpoint>
          <Trackpoint>
            <Time>2022-07-14T05:57:07.000Z</Time>
            <Position>
              <LatitudeDegrees>43.46120906062424182891845703125</LatitudeDegrees>
              <LongitudeDegrees>-3.95020111463963985443115234375</LongitudeDegrees>
            </Position>
            <AltitudeMeters>58.200000762939453125</AltitudeMeters>
            <DistanceMeters>NAN</DistanceMeters>
          </Trackpoint>
          <Trackpoint>
            <Time>2022-07-14T05:57:15.000Z</Time>
            <Position>
              <LatitudeDegrees>43.4611880220472812652587890625</LatitudeDegrees>
              <LongitudeDegrees>-3.95034712739288806915283203125</LongitudeDegrees>
            </Position>
            <AltitudeMeters>59.200000762939453125</AltitudeMeters>
            <DistanceMeters>NAN</DistanceMeters>
          </Trackpoint>
          <Trackpoint>
            <Time>2022-07-14T05:57:21.000Z</Time>
            <Position>
              <LatitudeDegrees>43.4611528180539608001708984375</LatitudeDegrees>
              <LongitudeDegrees>-3.95045374520123004913330078125</LongitudeDegrees>
            </Position>
            <AltitudeMeters>60</AltitudeMeters>
            <DistanceMeters>NAN</DistanceMeters>
          </Trackpoint>
          <Trackpoint>
            <Time>2022-07-14T05:57:24.000Z</Time>
            <Position>
              <LatitudeDegrees>43.46113421022891998291015625</LatitudeDegrees>
              <LongitudeDegrees>-3.95050562918186187744140625</LongitudeDegrees>
            </Position>
            <AltitudeMeters>60</AltitudeMeters>
            <DistanceMeters>NAN</DistanceMeters>
          </Trackpoint>
          <Trackpoint>
            <Time>2022-07-14T05:57:26.000Z</Time>
            <Position>
              <LatitudeDegrees>43.46112691797316074371337890625</LatitudeDegrees>
              <LongitudeDegrees>-3.95054209046065807342529296875</LongitudeDegrees>
            </Position>
            <AltitudeMeters>60.200000762939453125</AltitudeMeters>
            <DistanceMeters>NAN</DistanceMeters>
          </Trackpoint>
          <Trackpoint>
            <Time>2022-07-14T05:57:29.000Z</Time>
            <Position>
              <LatitudeDegrees>43.46111618913710117340087890625</LatitudeDegrees>
              <LongitudeDegrees>-3.95061216317117214202880859375</LongitudeDegrees>
            </Position>
            <AltitudeMeters>60</AltitudeMeters>
            <DistanceMeters>NAN</DistanceMeters>
          </Trackpoint>
          <Trackpoint>
            <Time>2022-07-14T05:57:32.000Z</Time>
            <Position>
              <LatitudeDegrees>43.46110646612942218780517578125</LatitudeDegrees>
              <LongitudeDegrees>-3.9507502131164073944091796875</LongitudeDegrees>
            </Position>
            <AltitudeMeters>60</AltitudeMeters>
            <DistanceMeters>NAN</DistanceMeters>
          </Trackpoint>
          <Trackpoint>
            <Time>2022-07-14T05:57:36.000Z</Time>
            <Position>
              <LatitudeDegrees>43.46111283637583255767822265625</LatitudeDegrees>
              <LongitudeDegrees>-3.9509564079344272613525390625</LongitudeDegrees>
            </Position>
            <AltitudeMeters>59</AltitudeMeters>
            <DistanceMeters>NAN</DistanceMeters>
          </Trackpoint>
          <Trackpoint>
            <Time>2022-07-14T05:57:38.000Z</Time>
            <Position>
              <LatitudeDegrees>43.46111568622291088104248046875</LatitudeDegrees>
              <LongitudeDegrees>-3.95104282535612583160400390625</LongitudeDegrees>
            </Position>
            <AltitudeMeters>58.59999847412109375</AltitudeMeters>
            <DistanceMeters>NAN</DistanceMeters>
          </Trackpoint>
          <Trackpoint>
            <Time>2022-07-14T05:57:40.000Z</Time>
            <Position>
              <LatitudeDegrees>43.46109607256948947906494140625</LatitudeDegrees>
              <LongitudeDegrees>-3.95111910067498683929443359375</LongitudeDegrees>
            </Position>
            <AltitudeMeters>58.40000152587890625</AltitudeMeters>
            <DistanceMeters>NAN</DistanceMeters>
          </Trackpoint>
          <Trackpoint>
            <Time>2022-07-14T05:57:41.000Z</Time>
            <Position>
              <LatitudeDegrees>43.4610871039330959320068359375</LatitudeDegrees>
              <LongitudeDegrees>-3.95115128718316555023193359375</LongitudeDegrees>
            </Position>
            <AltitudeMeters>58.200000762939453125</AltitudeMeters>
            <DistanceMeters>NAN</DistanceMeters>
          </Trackpoint>
          <Trackpoint>
            <Time>2022-07-14T05:57:42.000Z</Time>
            <Position>
              <LatitudeDegrees>43.4610830806195735931396484375</LatitudeDegrees>
              <LongitudeDegrees>-3.95118079148232936859130859375</LongitudeDegrees>
            </Position>
            <AltitudeMeters>58.200000762939453125</AltitudeMeters>
            <DistanceMeters>NAN</DistanceMeters>
          </Trackpoint>
          <Trackpoint>
            <Time>2022-07-14T05:57:44.000Z</Time>
            <Position>
              <LatitudeDegrees>43.46108458936214447021484375</LatitudeDegrees>
              <LongitudeDegrees>-3.95124097354710102081298828125</LongitudeDegrees>
            </Position>
            <AltitudeMeters>58</AltitudeMeters>
            <DistanceMeters>NAN</DistanceMeters>
          </Trackpoint>
          <Trackpoint>
            <Time>2022-07-14T05:57:49.000Z</Time>
            <Position>
              <LatitudeDegrees>43.46110009588301181793212890625</LatitudeDegrees>
              <LongitudeDegrees>-3.951401151716709136962890625</LongitudeDegrees>
            </Position>
            <AltitudeMeters>58.200000762939453125</AltitudeMeters>
            <DistanceMeters>NAN</DistanceMeters>
          </Trackpoint>
          <Trackpoint>
            <Time>2022-07-14T05:57:57.000Z</Time>
            <Position>
              <LatitudeDegrees>43.461158685386180877685546875</LatitudeDegrees>
              <LongitudeDegrees>-3.95161128602921962738037109375</LongitudeDegrees>
            </Position>
            <AltitudeMeters>58.40000152587890625</AltitudeMeters>
            <DistanceMeters>NAN</DistanceMeters>
          </Trackpoint>
          <Trackpoint>
            <Time>2022-07-14T05:58:02.000Z</Time>
            <Position>
              <LatitudeDegrees>43.461227081716060638427734375</LatitudeDegrees>
              <LongitudeDegrees>-3.9516784250736236572265625</LongitudeDegrees>
            </Position>
            <AltitudeMeters>59</AltitudeMeters>
            <DistanceMeters>NAN</DistanceMeters>
          </Trackpoint>
          <Trackpoint>
            <Time>2022-07-14T05:58:04.000Z</Time>
            <Position>
              <LatitudeDegrees>43.4612648002803325653076171875</LatitudeDegrees>
              <LongitudeDegrees>-3.9516685344278812408447265625</LongitudeDegrees>
            </Position>
            <AltitudeMeters>59.200000762939453125</AltitudeMeters>
            <DistanceMeters>NAN</DistanceMeters>
          </Trackpoint>
          <Trackpoint>
            <Time>2022-07-14T05:58:09.000Z</Time>
            <Position>
              <LatitudeDegrees>43.46133344806730747222900390625</LatitudeDegrees>
              <LongitudeDegrees>-3.95164581947028636932373046875</LongitudeDegrees>
            </Position>
            <AltitudeMeters>59.40000152587890625</AltitudeMeters>
            <DistanceMeters>NAN</DistanceMeters>
          </Trackpoint>
          <Trackpoint>
            <Time>2022-07-14T05:58:12.000Z</Time>
            <Position>
              <LatitudeDegrees>43.46133881248533725738525390625</LatitudeDegrees>
              <LongitudeDegrees>-3.95164397545158863067626953125</LongitudeDegrees>
            </Position>
            <AltitudeMeters>59.40000152587890625</AltitudeMeters>
            <DistanceMeters>NAN</DistanceMeters>
          </Trackpoint>
          <Trackpoint>
            <Time>2022-07-14T06:51:49.000Z</Time>
            <Position>
              <LatitudeDegrees>43.461242504417896270751953125</LatitudeDegrees>
              <LongitudeDegrees>-3.95161262713372707366943359375</LongitudeDegrees>
            </Position>
            <AltitudeMeters>44</AltitudeMeters>
            <DistanceMeters>NAN</DistanceMeters>
          </Trackpoint>
          <Trackpoint>
            <Time>2022-07-14T06:51:51.000Z</Time>
            <Position>
              <LatitudeDegrees>43.46122381277382373809814453125</LatitudeDegrees>
              <LongitudeDegrees>-3.9516165666282176971435546875</LongitudeDegrees>
            </Position>
            <AltitudeMeters>44</AltitudeMeters>
            <DistanceMeters>NAN</DistanceMeters>
          </Trackpoint>
          <Trackpoint>
            <Time>2022-07-14T06:51:55.000Z</Time>
            <Position>
              <LatitudeDegrees>43.46120118163526058197021484375</LatitudeDegrees>
              <LongitudeDegrees>-3.9516232721507549285888671875</LongitudeDegrees>
            </Position>
            <AltitudeMeters>43.200000762939453125</AltitudeMeters>
            <DistanceMeters>NAN</DistanceMeters>
          </Trackpoint>
          <Trackpoint>
            <Time>2022-07-14T06:51:56.000Z</Time>
            <Position>
              <LatitudeDegrees>43.46119933761656284332275390625</LatitudeDegrees>
              <LongitudeDegrees>-3.95162318833172321319580078125</LongitudeDegrees>
            </Position>
            <AltitudeMeters>43</AltitudeMeters>
            <DistanceMeters>NAN</DistanceMeters>
          </Trackpoint>
          <Trackpoint>
            <Time>2022-07-14T06:52:18.000Z</Time>
            <Position>
              <LatitudeDegrees>43.4611481241881847381591796875</LatitudeDegrees>
              <LongitudeDegrees>-3.9516112022101879119873046875</LongitudeDegrees>
            </Position>
            <AltitudeMeters>42.59999847412109375</AltitudeMeters>
            <DistanceMeters>NAN</DistanceMeters>
          </Trackpoint>
          <Trackpoint>
            <Time>2022-07-14T06:52:20.000Z</Time>
            <Position>
              <LatitudeDegrees>43.46110462211072444915771484375</LatitudeDegrees>
              <LongitudeDegrees>-3.95159955136477947235107421875</LongitudeDegrees>
            </Position>
            <AltitudeMeters>42.59999847412109375</AltitudeMeters>
            <DistanceMeters>NAN</DistanceMeters>
          </Trackpoint>
          <Trackpoint>
            <Time>2022-07-14T06:52:26.000Z</Time>
            <Position>
              <LatitudeDegrees>43.4609945677220821380615234375</LatitudeDegrees>
              <LongitudeDegrees>-3.95164766348898410797119140625</LongitudeDegrees>
            </Position>
            <AltitudeMeters>42.200000762939453125</AltitudeMeters>
            <DistanceMeters>NAN</DistanceMeters>
          </Trackpoint>
          <Trackpoint>
            <Time>2022-07-14T06:52:29.000Z</Time>
            <Position>
              <LatitudeDegrees>43.460991717875003814697265625</LatitudeDegrees>
              <LongitudeDegrees>-3.95165185444056987762451171875</LongitudeDegrees>
            </Position>
            <AltitudeMeters>42</AltitudeMeters>
            <DistanceMeters>NAN</DistanceMeters>
          </Trackpoint>
          <Trackpoint>
            <Time>2022-07-14T06:52:39.000Z</Time>
            <Position>
              <LatitudeDegrees>43.46093765459954738616943359375</LatitudeDegrees>
              <LongitudeDegrees>-3.951659314334392547607421875</LongitudeDegrees>
            </Position>
            <AltitudeMeters>41.200000762939453125</AltitudeMeters>
            <DistanceMeters>NAN</DistanceMeters>
          </Trackpoint>
          <Trackpoint>
            <Time>2022-07-14T06:52:40.000Z</Time>
            <Position>
              <LatitudeDegrees>43.4609171189367771148681640625</LatitudeDegrees>
              <LongitudeDegrees>-3.95166258327662944793701171875</LongitudeDegrees>
            </Position>
            <AltitudeMeters>41</AltitudeMeters>
            <DistanceMeters>NAN</DistanceMeters>
          </Trackpoint>
          <Trackpoint>
            <Time>2022-07-14T06:52:41.000Z</Time>
            <Position>
              <LatitudeDegrees>43.46089725382626056671142578125</LatitudeDegrees>
              <LongitudeDegrees>-3.9516651816666126251220703125</LongitudeDegrees>
            </Position>
            <AltitudeMeters>41</AltitudeMeters>
            <DistanceMeters>NAN</DistanceMeters>
          </Trackpoint>
          <Trackpoint>
            <Time>2022-07-14T06:52:44.000Z</Time>
            <Position>
              <LatitudeDegrees>43.4608852677047252655029296875</LatitudeDegrees>
              <LongitudeDegrees>-3.9516668580472469329833984375</LongitudeDegrees>
            </Position>
            <AltitudeMeters>40.799999237060546875</AltitudeMeters>
            <DistanceMeters>NAN</DistanceMeters>
          </Trackpoint>
          <Trackpoint>
            <Time>2022-07-14T06:56:56.000Z</Time>
            <Position>
              <LatitudeDegrees>43.46084092743694782257080078125</LatitudeDegrees>
              <LongitudeDegrees>-3.95167012698948383331298828125</LongitudeDegrees>
            </Position>
            <AltitudeMeters>40</AltitudeMeters>
            <DistanceMeters>NAN</DistanceMeters>
          </Trackpoint>
          <Trackpoint>
            <Time>2022-07-14T06:56:59.000Z</Time>
            <Position>
              <LatitudeDegrees>43.4607991017401218414306640625</LatitudeDegrees>
              <LongitudeDegrees>-3.9517215080559253692626953125</LongitudeDegrees>
            </Position>
            <AltitudeMeters>38.799999237060546875</AltitudeMeters>
            <DistanceMeters>NAN</DistanceMeters>
          </Trackpoint>
          <Trackpoint>
            <Time>2022-07-14T06:57:01.000Z</Time>
            <Position>
              <LatitudeDegrees>43.46078141592442989349365234375</LatitudeDegrees>
              <LongitudeDegrees>-3.9517389424145221710205078125</LongitudeDegrees>
            </Position>
            <AltitudeMeters>38</AltitudeMeters>
            <DistanceMeters>NAN</DistanceMeters>
          </Trackpoint>
          <Trackpoint>
            <Time>2022-07-14T06:57:02.000Z</Time>
            <Position>
              <LatitudeDegrees>43.4607722796499729156494140625</LatitudeDegrees>
              <LongitudeDegrees>-3.95174053497612476348876953125</LongitudeDegrees>
            </Position>
            <AltitudeMeters>37.799999237060546875</AltitudeMeters>
            <DistanceMeters>NAN</DistanceMeters>
          </Trackpoint>
          <Trackpoint>
            <Time>2022-07-14T06:57:04.000Z</Time>
            <Position>
              <LatitudeDegrees>43.460767753422260284423828125</LatitudeDegrees>
              <LongitudeDegrees>-3.95174137316644191741943359375</LongitudeDegrees>
            </Position>
            <AltitudeMeters>37.59999847412109375</AltitudeMeters>
            <DistanceMeters>NAN</DistanceMeters>
          </Trackpoint>
          <Trackpoint>
            <Time>2022-07-14T06:57:41.000Z</Time>
            <Position>
              <LatitudeDegrees>43.46065434627234935760498046875</LatitudeDegrees>
              <LongitudeDegrees>-3.95179987885057926177978515625</LongitudeDegrees>
            </Position>
            <AltitudeMeters>35.40000152587890625</AltitudeMeters>
            <DistanceMeters>NAN</DistanceMeters>
          </Trackpoint>
          <Trackpoint>
            <Time>2022-07-14T06:57:43.000Z</Time>
            <Position>
              <LatitudeDegrees>43.46060941927134990692138671875</LatitudeDegrees>
              <LongitudeDegrees>-3.9518271200358867645263671875</LongitudeDegrees>
            </Position>
            <AltitudeMeters>35.40000152587890625</AltitudeMeters>
            <DistanceMeters>NAN</DistanceMeters>
          </Trackpoint>
          <Trackpoint>
            <Time>2022-07-14T06:57:46.000Z</Time>
            <Position>
              <LatitudeDegrees>43.46054278314113616943359375</LatitudeDegrees>
              <LongitudeDegrees>-3.95187967456877231597900390625</LongitudeDegrees>
            </Position>
            <AltitudeMeters>35.200000762939453125</AltitudeMeters>
            <DistanceMeters>NAN</DistanceMeters>
          </Trackpoint>
          <Trackpoint>
            <Time>2022-07-14T06:57:50.000Z</Time>
            <Position>
              <LatitudeDegrees>43.46046826802194118499755859375</LatitudeDegrees>
              <LongitudeDegrees>-3.95194371230900287628173828125</LongitudeDegrees>
            </Position>
            <AltitudeMeters>35.40000152587890625</AltitudeMeters>
            <DistanceMeters>NAN</DistanceMeters>
          </Trackpoint>
          <Trackpoint>
            <Time>2022-07-14T06:57:55.000Z</Time>
            <Position>
              <LatitudeDegrees>43.4604041464626789093017578125</LatitudeDegrees>
              <LongitudeDegrees>-3.9520373381674289703369140625</LongitudeDegrees>
            </Position>
            <AltitudeMeters>36.40000152587890625</AltitudeMeters>
            <DistanceMeters>NAN</DistanceMeters>
          </Trackpoint>
          <Trackpoint>
            <Time>2022-07-14T06:57:57.000Z</Time>
            <Position>
              <LatitudeDegrees>43.4603813476860523223876953125</LatitudeDegrees>
              <LongitudeDegrees>-3.95206742919981479644775390625</LongitudeDegrees>
            </Position>
            <AltitudeMeters>36.59999847412109375</AltitudeMeters>
            <DistanceMeters>NAN</DistanceMeters>
          </Trackpoint>
          <Trackpoint>
            <Time>2022-07-14T06:58:03.000Z</Time>
            <Position>
              <LatitudeDegrees>43.4603307209908962249755859375</LatitudeDegrees>
              <LongitudeDegrees>-3.95213507115840911865234375</LongitudeDegrees>
            </Position>
            <AltitudeMeters>36.799999237060546875</AltitudeMeters>
            <DistanceMeters>NAN</DistanceMeters>
          </Trackpoint>
          <Trackpoint>
            <Time>2022-07-14T06:58:04.000Z</Time>
            <Position>
              <LatitudeDegrees>43.460323177278041839599609375</LatitudeDegrees>
              <LongitudeDegrees>-3.9521442912518978118896484375</LongitudeDegrees>
            </Position>
            <AltitudeMeters>36.799999237060546875</AltitudeMeters>
            <DistanceMeters>NAN</DistanceMeters>
          </Trackpoint>
          <Trackpoint>
            <Time>2022-07-14T06:58:06.000Z</Time>
            <Position>
              <LatitudeDegrees>43.4602988697588443756103515625</LatitudeDegrees>
              <LongitudeDegrees>-3.9521773159503936767578125</LongitudeDegrees>
            </Position>
            <AltitudeMeters>36.799999237060546875</AltitudeMeters>
            <DistanceMeters>NAN</DistanceMeters>
          </Trackpoint>
          <Trackpoint>
            <Time>2022-07-14T06:58:09.000Z</Time>
            <Position>
              <LatitudeDegrees>43.4602499194443225860595703125</LatitudeDegrees>
              <LongitudeDegrees>-3.95223028957843780517578125</LongitudeDegrees>
            </Position>
            <AltitudeMeters>36.59999847412109375</AltitudeMeters>
            <DistanceMeters>NAN</DistanceMeters>
          </Trackpoint>
          <Trackpoint>
            <Time>2022-07-14T06:58:16.000Z</Time>
            <Position>
              <LatitudeDegrees>43.460137434303760528564453125</LatitudeDegrees>
              <LongitudeDegrees>-3.9523811638355255126953125</LongitudeDegrees>
            </Position>
            <AltitudeMeters>36.59999847412109375</AltitudeMeters>
            <DistanceMeters>NAN</DistanceMeters>
          </Trackpoint>
          <Trackpoint>
            <Time>2022-07-14T06:58:20.000Z</Time>
            <Position>
              <LatitudeDegrees>43.460091836750507354736328125</LatitudeDegrees>
              <LongitudeDegrees>-3.952442519366741180419921875</LongitudeDegrees>
            </Position>
            <AltitudeMeters>37.59999847412109375</AltitudeMeters>
            <DistanceMeters>NAN</DistanceMeters>
          </Trackpoint>
          <Trackpoint>
            <Time>2022-07-14T06:58:23.000Z</Time>
            <Position>
              <LatitudeDegrees>43.4600564651191234588623046875</LatitudeDegrees>
              <LongitudeDegrees>-3.95248685963451862335205078125</LongitudeDegrees>
            </Position>
            <AltitudeMeters>38.200000762939453125</AltitudeMeters>
            <DistanceMeters>NAN</DistanceMeters>
          </Trackpoint>
          <Trackpoint>
            <Time>2022-07-14T06:58:26.000Z</Time>
            <Position>
              <LatitudeDegrees>43.46005302853882312774658203125</LatitudeDegrees>
              <LongitudeDegrees>-3.95249356515705585479736328125</LongitudeDegrees>
            </Position>
            <AltitudeMeters>38.200000762939453125</AltitudeMeters>
            <DistanceMeters>NAN</DistanceMeters>
          </Trackpoint>
          <Trackpoint>
            <Time>2022-07-14T06:59:30.000Z</Time>
            <Position>
              <LatitudeDegrees>43.46006442792713642120361328125</LatitudeDegrees>
              <LongitudeDegrees>-3.952544443309307098388671875</LongitudeDegrees>
            </Position>
            <AltitudeMeters>39.799999237060546875</AltitudeMeters>
            <DistanceMeters>NAN</DistanceMeters>
          </Trackpoint>
          <Trackpoint>
            <Time>2022-07-14T06:59:31.000Z</Time>
            <Position>
              <LatitudeDegrees>43.46007280983030796051025390625</LatitudeDegrees>
              <LongitudeDegrees>-3.95257051102817058563232421875</LongitudeDegrees>
            </Position>
            <AltitudeMeters>39.799999237060546875</AltitudeMeters>
            <DistanceMeters>NAN</DistanceMeters>
          </Trackpoint>
          <Trackpoint>
            <Time>2022-07-14T06:59:36.000Z</Time>
            <Position>
              <LatitudeDegrees>43.46010918729007244110107421875</LatitudeDegrees>
              <LongitudeDegrees>-3.9526547491550445556640625</LongitudeDegrees>
            </Position>
            <AltitudeMeters>39.799999237060546875</AltitudeMeters>
            <DistanceMeters>NAN</DistanceMeters>
          </Trackpoint>
          <Trackpoint>
            <Time>2022-07-14T06:59:39.000Z</Time>
            <Position>
              <LatitudeDegrees>43.46010918729007244110107421875</LatitudeDegrees>
              <LongitudeDegrees>-3.95265751518309116363525390625</LongitudeDegrees>
            </Position>
            <AltitudeMeters>39.59999847412109375</AltitudeMeters>
            <DistanceMeters>NAN</DistanceMeters>
          </Trackpoint>
          <Trackpoint>
            <Time>2022-07-14T07:07:18.000Z</Time>
            <Position>
              <LatitudeDegrees>43.45980861224234104156494140625</LatitudeDegrees>
              <LongitudeDegrees>-3.95270093344151973724365234375</LongitudeDegrees>
            </Position>
            <AltitudeMeters>40.799999237060546875</AltitudeMeters>
            <DistanceMeters>NAN</DistanceMeters>
          </Trackpoint>
          <Trackpoint>
            <Time>2022-07-14T07:07:19.000Z</Time>
            <Position>
              <LatitudeDegrees>43.45977005548775196075439453125</LatitudeDegrees>
              <LongitudeDegrees>-3.9527186192572116851806640625</LongitudeDegrees>
            </Position>
            <AltitudeMeters>40.59999847412109375</AltitudeMeters>
            <DistanceMeters>NAN</DistanceMeters>
          </Trackpoint>
          <Trackpoint>
            <Time>2022-07-14T07:07:20.000Z</Time>
            <Position>
              <LatitudeDegrees>43.45972714014351367950439453125</LatitudeDegrees>
              <LongitudeDegrees>-3.952744938433170318603515625</LongitudeDegrees>
            </Position>
            <AltitudeMeters>40.200000762939453125</AltitudeMeters>
            <DistanceMeters>NAN</DistanceMeters>
          </Trackpoint>
          <Trackpoint>
            <Time>2022-07-14T07:07:22.000Z</Time>
            <Position>
              <LatitudeDegrees>43.45966025255620479583740234375</LatitudeDegrees>
              <LongitudeDegrees>-3.9528398215770721435546875</LongitudeDegrees>
            </Position>
            <AltitudeMeters>39.59999847412109375</AltitudeMeters>
            <DistanceMeters>NAN</DistanceMeters>
          </Trackpoint>
          <Trackpoint>
            <Time>2022-07-14T07:07:26.000Z</Time>
            <Position>
              <LatitudeDegrees>43.45963611267507076263427734375</LatitudeDegrees>
              <LongitudeDegrees>-3.9530150033533573150634765625</LongitudeDegrees>
            </Position>
            <AltitudeMeters>39</AltitudeMeters>
            <DistanceMeters>NAN</DistanceMeters>
          </Trackpoint>
          <Trackpoint>
            <Time>2022-07-14T07:07:27.000Z</Time>
            <Position>
              <LatitudeDegrees>43.45964130945503711700439453125</LatitudeDegrees>
              <LongitudeDegrees>-3.953041993081569671630859375</LongitudeDegrees>
            </Position>
            <AltitudeMeters>39.200000762939453125</AltitudeMeters>
            <DistanceMeters>NAN</DistanceMeters>
          </Trackpoint>
          <Trackpoint>
            <Time>2022-07-14T07:07:28.000Z</Time>
            <Position>
              <LatitudeDegrees>43.45964784733951091766357421875</LatitudeDegrees>
              <LongitudeDegrees>-3.95306789316236972808837890625</LongitudeDegrees>
            </Position>
            <AltitudeMeters>39.40000152587890625</AltitudeMeters>
            <DistanceMeters>NAN</DistanceMeters>
          </Trackpoint>
          <Trackpoint>
            <Time>2022-07-14T07:07:29.000Z</Time>
            <Position>
              <LatitudeDegrees>43.45965086482465267181396484375</LatitudeDegrees>
              <LongitudeDegrees>-3.9530914463102817535400390625</LongitudeDegrees>
            </Position>
            <AltitudeMeters>39.59999847412109375</AltitudeMeters>
            <DistanceMeters>NAN</DistanceMeters>
          </Trackpoint>
          <Trackpoint>
            <Time>2022-07-14T07:07:31.000Z</Time>
            <Position>
              <LatitudeDegrees>43.459653966128826141357421875</LatitudeDegrees>
              <LongitudeDegrees>-3.9531521312892436981201171875</LongitudeDegrees>
            </Position>
            <AltitudeMeters>40.40000152587890625</AltitudeMeters>
            <DistanceMeters>NAN</DistanceMeters>
          </Trackpoint>
          <Trackpoint>
            <Time>2022-07-14T07:07:32.000Z</Time>
            <Position>
              <LatitudeDegrees>43.45965287648141384124755859375</LatitudeDegrees>
              <LongitudeDegrees>-3.95317635498940944671630859375</LongitudeDegrees>
            </Position>
            <AltitudeMeters>40.799999237060546875</AltitudeMeters>
            <DistanceMeters>NAN</DistanceMeters>
          </Trackpoint>
          <Trackpoint>
            <Time>2022-07-14T07:07:33.000Z</Time>
            <Position>
              <LatitudeDegrees>43.459646590054035186767578125</LatitudeDegrees>
              <LongitudeDegrees>-3.95319479517638683319091796875</LongitudeDegrees>
            </Position>
            <AltitudeMeters>41</AltitudeMeters>
            <DistanceMeters>NAN</DistanceMeters>
          </Trackpoint>
          <Trackpoint>
            <Time>2022-07-14T07:07:36.000Z</Time>
            <Position>
              <LatitudeDegrees>43.45961733721196651458740234375</LatitudeDegrees>
              <LongitudeDegrees>-3.95322807133197784423828125</LongitudeDegrees>
            </Position>
            <AltitudeMeters>42</AltitudeMeters>
            <DistanceMeters>NAN</DistanceMeters>
          </Trackpoint>
          <Trackpoint>
            <Time>2022-07-14T07:07:37.000Z</Time>
            <Position>
              <LatitudeDegrees>43.45960241742432117462158203125</LatitudeDegrees>
              <LongitudeDegrees>-3.95323754288256168365478515625</LongitudeDegrees>
            </Position>
            <AltitudeMeters>42.200000762939453125</AltitudeMeters>
            <DistanceMeters>NAN</DistanceMeters>
          </Trackpoint>
          <Trackpoint>
            <Time>2022-07-14T07:07:41.000Z</Time>
            <Position>
              <LatitudeDegrees>43.45951608382165431976318359375</LatitudeDegrees>
              <LongitudeDegrees>-3.95326470024883747100830078125</LongitudeDegrees>
            </Position>
            <AltitudeMeters>42.200000762939453125</AltitudeMeters>
            <DistanceMeters>NAN</DistanceMeters>
          </Trackpoint>
          <Trackpoint>
            <Time>2022-07-14T07:07:42.000Z</Time>
            <Position>
              <LatitudeDegrees>43.45949848182499408721923828125</LatitudeDegrees>
              <LongitudeDegrees>-3.95327341742813587188720703125</LongitudeDegrees>
            </Position>
            <AltitudeMeters>42.200000762939453125</AltitudeMeters>
            <DistanceMeters>NAN</DistanceMeters>
          </Trackpoint>
          <Trackpoint>
            <Time>2022-07-14T07:07:45.000Z</Time>
            <Position>
              <LatitudeDegrees>43.4594251401722431182861328125</LatitudeDegrees>
              <LongitudeDegrees>-3.9532825537025928497314453125</LongitudeDegrees>
            </Position>
            <AltitudeMeters>41.200000762939453125</AltitudeMeters>
            <DistanceMeters>NAN</DistanceMeters>
          </Trackpoint>
          <Trackpoint>
            <Time>2022-07-14T07:07:47.000Z</Time>
            <Position>
              <LatitudeDegrees>43.45937375910580158233642578125</LatitudeDegrees>
              <LongitudeDegrees>-3.953280039131641387939453125</LongitudeDegrees>
            </Position>
            <AltitudeMeters>40.59999847412109375</AltitudeMeters>
            <DistanceMeters>NAN</DistanceMeters>
          </Trackpoint>
          <Trackpoint>
            <Time>2022-07-14T07:07:52.000Z</Time>
            <Position>
              <LatitudeDegrees>43.4592290036380290985107421875</LatitudeDegrees>
              <LongitudeDegrees>-3.95338070578873157501220703125</LongitudeDegrees>
            </Position>
            <AltitudeMeters>40.200000762939453125</AltitudeMeters>
            <DistanceMeters>NAN</DistanceMeters>
          </Trackpoint>
          <Trackpoint>
            <Time>2022-07-14T07:07:53.000Z</Time>
            <Position>
              <LatitudeDegrees>43.4592055343091487884521484375</LatitudeDegrees>
              <LongitudeDegrees>-3.953407108783721923828125</LongitudeDegrees>
            </Position>
            <AltitudeMeters>40</AltitudeMeters>
            <DistanceMeters>NAN</DistanceMeters>
          </Trackpoint>
          <Trackpoint>
            <Time>2022-07-14T07:07:57.000Z</Time>
            <Position>
              <LatitudeDegrees>43.45913805998861789703369140625</LatitudeDegrees>
              <LongitudeDegrees>-3.9534820429980754852294921875</LongitudeDegrees>
            </Position>
            <AltitudeMeters>40</AltitudeMeters>
            <DistanceMeters>NAN</DistanceMeters>
          </Trackpoint>
          <Trackpoint>
            <Time>2022-07-14T07:08:03.000Z</Time>
            <Position>
              <LatitudeDegrees>43.4590047039091587066650390625</LatitudeDegrees>
              <LongitudeDegrees>-3.95354281179606914520263671875</LongitudeDegrees>
            </Position>
            <AltitudeMeters>40.40000152587890625</AltitudeMeters>
            <DistanceMeters>NAN</DistanceMeters>
          </Trackpoint>
          <Trackpoint>
            <Time>2022-07-14T07:08:04.000Z</Time>
            <Position>
              <LatitudeDegrees>43.4589845873415470123291015625</LatitudeDegrees>
              <LongitudeDegrees>-3.9535423927009105682373046875</LongitudeDegrees>
            </Position>
            <AltitudeMeters>40.40000152587890625</AltitudeMeters>
            <DistanceMeters>NAN</DistanceMeters>
          </Trackpoint>
          <Trackpoint>
            <Time>2022-07-14T07:08:11.000Z</Time>
            <Position>
              <LatitudeDegrees>43.45883882604539394378662109375</LatitudeDegrees>
              <LongitudeDegrees>-3.9535712264478206634521484375</LongitudeDegrees>
            </Position>
            <AltitudeMeters>40.40000152587890625</AltitudeMeters>
            <DistanceMeters>NAN</DistanceMeters>
          </Trackpoint>
          <Trackpoint>
            <Time>2022-07-14T07:08:12.000Z</Time>
            <Position>
              <LatitudeDegrees>43.45882415771484375</LatitudeDegrees>
              <LongitudeDegrees>-3.95357851870357990264892578125</LongitudeDegrees>
            </Position>
            <AltitudeMeters>40.40000152587890625</AltitudeMeters>
            <DistanceMeters>NAN</DistanceMeters>
          </Trackpoint>
          <Trackpoint>
            <Time>2022-07-14T07:08:15.000Z</Time>
            <Position>
              <LatitudeDegrees>43.4588189609348773956298828125</LatitudeDegrees>
              <LongitudeDegrees>-3.95359159447252750396728515625</LongitudeDegrees>
            </Position>
            <AltitudeMeters>40.59999847412109375</AltitudeMeters>
            <DistanceMeters>NAN</DistanceMeters>
          </Trackpoint>
          <Trackpoint>
            <Time>2022-07-14T07:08:32.000Z</Time>
            <Position>
              <LatitudeDegrees>43.45877747051417827606201171875</LatitudeDegrees>
              <LongitudeDegrees>-3.95361875183880329132080078125</LongitudeDegrees>
            </Position>
            <AltitudeMeters>41</AltitudeMeters>
            <DistanceMeters>NAN</DistanceMeters>
          </Trackpoint>
          <Trackpoint>
            <Time>2022-07-14T07:08:33.000Z</Time>
            <Position>
              <LatitudeDegrees>43.45876120962202548980712890625</LatitudeDegrees>
              <LongitudeDegrees>-3.95362998358905315399169921875</LongitudeDegrees>
            </Position>
            <AltitudeMeters>41</AltitudeMeters>
            <DistanceMeters>NAN</DistanceMeters>
          </Trackpoint>
          <Trackpoint>
            <Time>2022-07-14T07:08:34.000Z</Time>
            <Position>
              <LatitudeDegrees>43.458737991750240325927734375</LatitudeDegrees>
              <LongitudeDegrees>-3.95364607684314250946044921875</LongitudeDegrees>
            </Position>
            <AltitudeMeters>41.200000762939453125</AltitudeMeters>
            <DistanceMeters>NAN</DistanceMeters>
          </Trackpoint>
          <Trackpoint>
            <Time>2022-07-14T07:08:40.000Z</Time>
            <Position>
              <LatitudeDegrees>43.45864738337695598602294921875</LatitudeDegrees>
              <LongitudeDegrees>-3.95376292057335376739501953125</LongitudeDegrees>
            </Position>
            <AltitudeMeters>42.200000762939453125</AltitudeMeters>
            <DistanceMeters>NAN</DistanceMeters>
          </Trackpoint>
          <Trackpoint>
            <Time>2022-07-14T07:08:42.000Z</Time>
            <Position>
              <LatitudeDegrees>43.45862978138029575347900390625</LatitudeDegrees>
              <LongitudeDegrees>-3.95380415953695774078369140625</LongitudeDegrees>
            </Position>
            <AltitudeMeters>42.40000152587890625</AltitudeMeters>
            <DistanceMeters>NAN</DistanceMeters>
          </Trackpoint>
          <Trackpoint>
            <Time>2022-07-14T07:08:45.000Z</Time>
            <Position>
              <LatitudeDegrees>43.4586010314524173736572265625</LatitudeDegrees>
              <LongitudeDegrees>-3.9538515172898769378662109375</LongitudeDegrees>
            </Position>
            <AltitudeMeters>43.200000762939453125</AltitudeMeters>
            <DistanceMeters>NAN</DistanceMeters>
          </Trackpoint>
          <Trackpoint>
            <Time>2022-07-14T07:08:48.000Z</Time>
            <Position>
              <LatitudeDegrees>43.45857932232320308685302734375</LatitudeDegrees>
              <LongitudeDegrees>-3.953876830637454986572265625</LongitudeDegrees>
            </Position>
            <AltitudeMeters>43.59999847412109375</AltitudeMeters>
            <DistanceMeters>NAN</DistanceMeters>
          </Trackpoint>
          <Trackpoint>
            <Time>2022-07-14T07:08:54.000Z</Time>
            <Position>
              <LatitudeDegrees>43.45856457017362117767333984375</LatitudeDegrees>
              <LongitudeDegrees>-3.9538832008838653564453125</LongitudeDegrees>
            </Position>
            <AltitudeMeters>43.59999847412109375</AltitudeMeters>
            <DistanceMeters>NAN</DistanceMeters>
          </Trackpoint>
          <Trackpoint>
            <Time>2022-07-14T07:09:04.000Z</Time>
            <Position>
              <LatitudeDegrees>43.45861502923071384429931640625</LatitudeDegrees>
              <LongitudeDegrees>-3.95379527471959590911865234375</LongitudeDegrees>
            </Position>
            <AltitudeMeters>43.59999847412109375</AltitudeMeters>
            <DistanceMeters>NAN</DistanceMeters>
          </Trackpoint>
          <Trackpoint>
            <Time>2022-07-14T07:09:08.000Z</Time>
            <Position>
              <LatitudeDegrees>43.45871946774423122406005859375</LatitudeDegrees>
              <LongitudeDegrees>-3.95366937853395938873291015625</LongitudeDegrees>
            </Position>
            <AltitudeMeters>43.40000152587890625</AltitudeMeters>
            <DistanceMeters>NAN</DistanceMeters>
          </Trackpoint>
          <Trackpoint>
            <Time>2022-07-14T07:09:11.000Z</Time>
            <Position>
              <LatitudeDegrees>43.4588209725916385650634765625</LatitudeDegrees>
              <LongitudeDegrees>-3.95354733802378177642822265625</LongitudeDegrees>
            </Position>
            <AltitudeMeters>42.200000762939453125</AltitudeMeters>
            <DistanceMeters>NAN</DistanceMeters>
          </Trackpoint>
          <Trackpoint>
            <Time>2022-07-14T07:09:12.000Z</Time>
            <Position>
              <LatitudeDegrees>43.45883916132152080535888671875</LatitudeDegrees>
              <LongitudeDegrees>-3.9534847252070903778076171875</LongitudeDegrees>
            </Position>
            <AltitudeMeters>41.799999237060546875</AltitudeMeters>
            <DistanceMeters>NAN</DistanceMeters>
          </Trackpoint>
          <Trackpoint>
            <Time>2022-07-14T07:09:13.000Z</Time>
            <Position>
              <LatitudeDegrees>43.4588293544948101043701171875</LatitudeDegrees>
              <LongitudeDegrees>-3.95343217067420482635498046875</LongitudeDegrees>
            </Position>
            <AltitudeMeters>41.59999847412109375</AltitudeMeters>
            <DistanceMeters>NAN</DistanceMeters>
          </Trackpoint>
          <Trackpoint>
            <Time>2022-07-14T07:09:15.000Z</Time>
            <Position>
              <LatitudeDegrees>43.4587844274938106536865234375</LatitudeDegrees>
              <LongitudeDegrees>-3.9533586613833904266357421875</LongitudeDegrees>
            </Position>
            <AltitudeMeters>41.40000152587890625</AltitudeMeters>
            <DistanceMeters>NAN</DistanceMeters>
          </Trackpoint>
          <Trackpoint>
            <Time>2022-07-14T07:09:20.000Z</Time>
            <Position>
              <LatitudeDegrees>43.45870538614690303802490234375</LatitudeDegrees>
              <LongitudeDegrees>-3.9532305859029293060302734375</LongitudeDegrees>
            </Position>
            <AltitudeMeters>41.59999847412109375</AltitudeMeters>
            <DistanceMeters>NAN</DistanceMeters>
          </Trackpoint>
          <Trackpoint>
            <Time>2022-07-14T07:09:22.000Z</Time>
            <Position>
              <LatitudeDegrees>43.45867755822837352752685546875</LatitudeDegrees>
              <LongitudeDegrees>-3.953188173472881317138671875</LongitudeDegrees>
            </Position>
            <AltitudeMeters>41.799999237060546875</AltitudeMeters>
            <DistanceMeters>NAN</DistanceMeters>
          </Trackpoint>
          <Trackpoint>
            <Time>2022-07-14T07:09:26.000Z</Time>
            <Position>
              <LatitudeDegrees>43.4586268477141857147216796875</LatitudeDegrees>
              <LongitudeDegrees>-3.95307024009525775909423828125</LongitudeDegrees>
            </Position>
            <AltitudeMeters>42</AltitudeMeters>
            <DistanceMeters>NAN</DistanceMeters>
          </Trackpoint>
          <Trackpoint>
            <Time>2022-07-14T07:09:28.000Z</Time>
            <Position>
              <LatitudeDegrees>43.45857446081936359405517578125</LatitudeDegrees>
              <LongitudeDegrees>-3.95302749238908290863037109375</LongitudeDegrees>
            </Position>
            <AltitudeMeters>42</AltitudeMeters>
            <DistanceMeters>NAN</DistanceMeters>
          </Trackpoint>
          <Trackpoint>
            <Time>2022-07-14T07:09:30.000Z</Time>
            <Position>
              <LatitudeDegrees>43.4585125185549259185791015625</LatitudeDegrees>
              <LongitudeDegrees>-3.9530391432344913482666015625</LongitudeDegrees>
            </Position>
            <AltitudeMeters>41.799999237060546875</AltitudeMeters>
            <DistanceMeters>NAN</DistanceMeters>
          </Trackpoint>
          <Trackpoint>
            <Time>2022-07-14T07:09:35.000Z</Time>
            <Position>
              <LatitudeDegrees>43.4583080001175403594970703125</LatitudeDegrees>
              <LongitudeDegrees>-3.9531628601253032684326171875</LongitudeDegrees>
            </Position>
            <AltitudeMeters>41.200000762939453125</AltitudeMeters>
            <DistanceMeters>NAN</DistanceMeters>
          </Trackpoint>
          <Trackpoint>
            <Time>2022-07-14T07:09:36.000Z</Time>
            <Position>
              <LatitudeDegrees>43.45826290547847747802734375</LatitudeDegrees>
              <LongitudeDegrees>-3.95319747738540172576904296875</LongitudeDegrees>
            </Position>
            <AltitudeMeters>41</AltitudeMeters>
            <DistanceMeters>NAN</DistanceMeters>
          </Trackpoint>
          <Trackpoint>
            <Time>2022-07-14T07:09:41.000Z</Time>
            <Position>
              <LatitudeDegrees>43.45803399570286273956298828125</LatitudeDegrees>
              <LongitudeDegrees>-3.953345082700252532958984375</LongitudeDegrees>
            </Position>
            <AltitudeMeters>39.799999237060546875</AltitudeMeters>
            <DistanceMeters>NAN</DistanceMeters>
          </Trackpoint>
          <Trackpoint>
            <Time>2022-07-14T07:09:42.000Z</Time>
            <Position>
              <LatitudeDegrees>43.457986973226070404052734375</LatitudeDegrees>
              <LongitudeDegrees>-3.95337500609457492828369140625</LongitudeDegrees>
            </Position>
            <AltitudeMeters>39.59999847412109375</AltitudeMeters>
            <DistanceMeters>NAN</DistanceMeters>
          </Trackpoint>
          <Trackpoint>
            <Time>2022-07-14T07:09:43.000Z</Time>
            <Position>
              <LatitudeDegrees>43.45793408341705799102783203125</LatitudeDegrees>
              <LongitudeDegrees>-3.95341406576335430145263671875</LongitudeDegrees>
            </Position>
            <AltitudeMeters>39.40000152587890625</AltitudeMeters>
            <DistanceMeters>NAN</DistanceMeters>
          </Trackpoint>
          <Trackpoint>
            <Time>2022-07-14T07:09:44.000Z</Time>
            <Position>
              <LatitudeDegrees>43.45789368264377117156982421875</LatitudeDegrees>
              <LongitudeDegrees>-3.953453712165355682373046875</LongitudeDegrees>
            </Position>
            <AltitudeMeters>39.200000762939453125</AltitudeMeters>
            <DistanceMeters>NAN</DistanceMeters>
          </Trackpoint>
          <Trackpoint>
            <Time>2022-07-14T07:09:47.000Z</Time>
            <Position>
              <LatitudeDegrees>43.4577765874564647674560546875</LatitudeDegrees>
              <LongitudeDegrees>-3.95358019508421421051025390625</LongitudeDegrees>
            </Position>
            <AltitudeMeters>38.59999847412109375</AltitudeMeters>
            <DistanceMeters>NAN</DistanceMeters>
          </Trackpoint>
          <Trackpoint>
            <Time>2022-07-14T07:09:49.000Z</Time>
            <Position>
              <LatitudeDegrees>43.45769964158535003662109375</LatitudeDegrees>
              <LongitudeDegrees>-3.95366166718304157257080078125</LongitudeDegrees>
            </Position>
            <AltitudeMeters>38</AltitudeMeters>
            <DistanceMeters>NAN</DistanceMeters>
          </Trackpoint>
          <Trackpoint>
            <Time>2022-07-14T07:09:51.000Z</Time>
            <Position>
              <LatitudeDegrees>43.457632921636104583740234375</LatitudeDegrees>
              <LongitudeDegrees>-3.95371380262076854705810546875</LongitudeDegrees>
            </Position>
            <AltitudeMeters>37.200000762939453125</AltitudeMeters>
            <DistanceMeters>NAN</DistanceMeters>
          </Trackpoint>
          <Trackpoint>
            <Time>2022-07-14T07:09:52.000Z</Time>
            <Position>
              <LatitudeDegrees>43.45759293995797634124755859375</LatitudeDegrees>
              <LongitudeDegrees>-3.95374364219605922698974609375</LongitudeDegrees>
            </Position>
            <AltitudeMeters>36.799999237060546875</AltitudeMeters>
            <DistanceMeters>NAN</DistanceMeters>
          </Trackpoint>
          <Trackpoint>
            <Time>2022-07-14T07:09:54.000Z</Time>
            <Position>
              <LatitudeDegrees>43.45753309316933155059814453125</LatitudeDegrees>
              <LongitudeDegrees>-3.9537891559302806854248046875</LongitudeDegrees>
            </Position>
            <AltitudeMeters>35.799999237060546875</AltitudeMeters>
            <DistanceMeters>NAN</DistanceMeters>
          </Trackpoint>
          <Trackpoint>
            <Time>2022-07-14T07:09:57.000Z</Time>
            <Position>
              <LatitudeDegrees>43.45742429606616497039794921875</LatitudeDegrees>
              <LongitudeDegrees>-3.953829221427440643310546875</LongitudeDegrees>
            </Position>
            <AltitudeMeters>34.59999847412109375</AltitudeMeters>
            <DistanceMeters>NAN</DistanceMeters>
          </Trackpoint>
          <Trackpoint>
            <Time>2022-07-14T07:10:01.000Z</Time>
            <Position>
              <LatitudeDegrees>43.45726973377168178558349609375</LatitudeDegrees>
              <LongitudeDegrees>-3.9538743160665035247802734375</LongitudeDegrees>
            </Position>
            <AltitudeMeters>33.200000762939453125</AltitudeMeters>
            <DistanceMeters>NAN</DistanceMeters>
          </Trackpoint>
          <Trackpoint>
            <Time>2022-07-14T07:10:03.000Z</Time>
            <Position>
              <LatitudeDegrees>43.45716076903045177459716796875</LatitudeDegrees>
              <LongitudeDegrees>-3.9538830332458019256591796875</LongitudeDegrees>
            </Position>
            <AltitudeMeters>32.799999237060546875</AltitudeMeters>
            <DistanceMeters>NAN</DistanceMeters>
          </Trackpoint>
          <Trackpoint>
            <Time>2022-07-14T07:10:05.000Z</Time>
            <Position>
              <LatitudeDegrees>43.4570793807506561279296875</LatitudeDegrees>
              <LongitudeDegrees>-3.953863084316253662109375</LongitudeDegrees>
            </Position>
            <AltitudeMeters>32.200000762939453125</AltitudeMeters>
            <DistanceMeters>NAN</DistanceMeters>
          </Trackpoint>
          <Trackpoint>
            <Time>2022-07-14T07:10:06.000Z</Time>
            <Position>
              <LatitudeDegrees>43.45704115927219390869140625</LatitudeDegrees>
              <LongitudeDegrees>-3.95384087227284908294677734375</LongitudeDegrees>
            </Position>
            <AltitudeMeters>32</AltitudeMeters>
            <DistanceMeters>NAN</DistanceMeters>
          </Trackpoint>
          <Trackpoint>
            <Time>2022-07-14T07:10:08.000Z</Time>
            <Position>
              <LatitudeDegrees>43.4569736011326313018798828125</LatitudeDegrees>
              <LongitudeDegrees>-3.95380130968987941741943359375</LongitudeDegrees>
            </Position>
            <AltitudeMeters>31.799999237060546875</AltitudeMeters>
            <DistanceMeters>NAN</DistanceMeters>
          </Trackpoint>
          <Trackpoint>
            <Time>2022-07-14T07:10:14.000Z</Time>
            <Position>
              <LatitudeDegrees>43.45686069689691066741943359375</LatitudeDegrees>
              <LongitudeDegrees>-3.9537573046982288360595703125</LongitudeDegrees>
            </Position>
            <AltitudeMeters>31.6000003814697265625</AltitudeMeters>
            <DistanceMeters>NAN</DistanceMeters>
          </Trackpoint>
          <Trackpoint>
            <Time>2022-07-14T07:10:21.000Z</Time>
            <Position>
              <LatitudeDegrees>43.45675290562212467193603515625</LatitudeDegrees>
              <LongitudeDegrees>-3.9536711387336254119873046875</LongitudeDegrees>
            </Position>
            <AltitudeMeters>31.799999237060546875</AltitudeMeters>
            <DistanceMeters>NAN</DistanceMeters>
          </Trackpoint>
          <Trackpoint>
            <Time>2022-07-14T07:10:31.000Z</Time>
            <Position>
              <LatitudeDegrees>43.4566423483192920684814453125</LatitudeDegrees>
              <LongitudeDegrees>-3.95351112820208072662353515625</LongitudeDegrees>
            </Position>
            <AltitudeMeters>32.200000762939453125</AltitudeMeters>
            <DistanceMeters>NAN</DistanceMeters>
          </Trackpoint>
          <Trackpoint>
            <Time>2022-07-14T07:10:37.000Z</Time>
            <Position>
              <LatitudeDegrees>43.45658409409224987030029296875</LatitudeDegrees>
              <LongitudeDegrees>-3.95339302718639373779296875</LongitudeDegrees>
            </Position>
            <AltitudeMeters>32.59999847412109375</AltitudeMeters>
            <DistanceMeters>NAN</DistanceMeters>
          </Trackpoint>
          <Trackpoint>
            <Time>2022-07-14T07:10:40.000Z</Time>
            <Position>
              <LatitudeDegrees>43.45658124424517154693603515625</LatitudeDegrees>
              <LongitudeDegrees>-3.9533869922161102294921875</LongitudeDegrees>
            </Position>
            <AltitudeMeters>32.59999847412109375</AltitudeMeters>
            <DistanceMeters>NAN</DistanceMeters>
          </Trackpoint>
          <Trackpoint>
            <Time>2022-07-14T07:11:09.000Z</Time>
            <Position>
              <LatitudeDegrees>43.45655593089759349822998046875</LatitudeDegrees>
              <LongitudeDegrees>-3.95332731306552886962890625</LongitudeDegrees>
            </Position>
            <AltitudeMeters>33.200000762939453125</AltitudeMeters>
            <DistanceMeters>NAN</DistanceMeters>
          </Trackpoint>
          <Trackpoint>
            <Time>2022-07-14T07:11:12.000Z</Time>
            <Position>
              <LatitudeDegrees>43.45652575604617595672607421875</LatitudeDegrees>
              <LongitudeDegrees>-3.95323703996837139129638671875</LongitudeDegrees>
            </Position>
            <AltitudeMeters>33.40000152587890625</AltitudeMeters>
            <DistanceMeters>NAN</DistanceMeters>
          </Trackpoint>
          <Trackpoint>
            <Time>2022-07-14T07:11:17.000Z</Time>
            <Position>
              <LatitudeDegrees>43.4564807452261447906494140625</LatitudeDegrees>
              <LongitudeDegrees>-3.953078873455524444580078125</LongitudeDegrees>
            </Position>
            <AltitudeMeters>33.799999237060546875</AltitudeMeters>
            <DistanceMeters>NAN</DistanceMeters>
          </Trackpoint>
          <Trackpoint>
            <Time>2022-07-14T07:11:19.000Z</Time>
            <Position>
              <LatitudeDegrees>43.45646725036203861236572265625</LatitudeDegrees>
              <LongitudeDegrees>-3.953027240931987762451171875</LongitudeDegrees>
            </Position>
            <AltitudeMeters>33.799999237060546875</AltitudeMeters>
            <DistanceMeters>NAN</DistanceMeters>
          </Trackpoint>
          <Trackpoint>
            <Time>2022-07-14T07:11:20.000Z</Time>
            <Position>
              <LatitudeDegrees>43.45646088011562824249267578125</LatitudeDegrees>
              <LongitudeDegrees>-3.95300435833632946014404296875</LongitudeDegrees>
            </Position>
            <AltitudeMeters>33.799999237060546875</AltitudeMeters>
            <DistanceMeters>NAN</DistanceMeters>
          </Trackpoint>
          <Trackpoint>
            <Time>2022-07-14T07:11:21.000Z</Time>
            <Position>
              <LatitudeDegrees>43.45645467750728130340576171875</LatitudeDegrees>
              <LongitudeDegrees>-3.952980972826480865478515625</LongitudeDegrees>
            </Position>
            <AltitudeMeters>33.799999237060546875</AltitudeMeters>
            <DistanceMeters>NAN</DistanceMeters>
          </Trackpoint>
          <Trackpoint>
            <Time>2022-07-14T07:11:27.000Z</Time>
            <Position>
              <LatitudeDegrees>43.456407487392425537109375</LatitudeDegrees>
              <LongitudeDegrees>-3.952838815748691558837890625</LongitudeDegrees>
            </Position>
            <AltitudeMeters>34.200000762939453125</AltitudeMeters>
            <DistanceMeters>NAN</DistanceMeters>
          </Trackpoint>
          <Trackpoint>
            <Time>2022-07-14T07:11:28.000Z</Time>
            <Position>
              <LatitudeDegrees>43.456405811011791229248046875</LatitudeDegrees>
              <LongitudeDegrees>-3.9528131671249866485595703125</LongitudeDegrees>
            </Position>
            <AltitudeMeters>34.200000762939453125</AltitudeMeters>
            <DistanceMeters>NAN</DistanceMeters>
          </Trackpoint>
          <Trackpoint>
            <Time>2022-07-14T07:11:36.000Z</Time>
            <Position>
              <LatitudeDegrees>43.4564438648521900177001953125</LatitudeDegrees>
              <LongitudeDegrees>-3.95257051102817058563232421875</LongitudeDegrees>
            </Position>
            <AltitudeMeters>34.40000152587890625</AltitudeMeters>
            <DistanceMeters>NAN</DistanceMeters>
          </Trackpoint>
          <Trackpoint>
            <Time>2022-07-14T07:11:38.000Z</Time>
            <Position>
              <LatitudeDegrees>43.4564304538071155548095703125</LatitudeDegrees>
              <LongitudeDegrees>-3.952510245144367218017578125</LongitudeDegrees>
            </Position>
            <AltitudeMeters>34.40000152587890625</AltitudeMeters>
            <DistanceMeters>NAN</DistanceMeters>
          </Trackpoint>
          <Trackpoint>
            <Time>2022-07-14T07:11:42.000Z</Time>
            <Position>
              <LatitudeDegrees>43.4563868679106235504150390625</LatitudeDegrees>
              <LongitudeDegrees>-3.95240957848727703094482421875</LongitudeDegrees>
            </Position>
            <AltitudeMeters>34.40000152587890625</AltitudeMeters>
            <DistanceMeters>NAN</DistanceMeters>
          </Trackpoint>
          <Trackpoint>
            <Time>2022-07-14T07:11:43.000Z</Time>
            <Position>
              <LatitudeDegrees>43.45636599697172641754150390625</LatitudeDegrees>
              <LongitudeDegrees>-3.95239390432834625244140625</LongitudeDegrees>
            </Position>
            <AltitudeMeters>34.40000152587890625</AltitudeMeters>
            <DistanceMeters>NAN</DistanceMeters>
          </Trackpoint>
          <Trackpoint>
            <Time>2022-07-14T07:11:49.000Z</Time>
            <Position>
              <LatitudeDegrees>43.45627262257039546966552734375</LatitudeDegrees>
              <LongitudeDegrees>-3.95235878415405750274658203125</LongitudeDegrees>
            </Position>
            <AltitudeMeters>34.40000152587890625</AltitudeMeters>
            <DistanceMeters>NAN</DistanceMeters>
          </Trackpoint>
          <Trackpoint>
            <Time>2022-07-14T07:11:56.000Z</Time>
            <Position>
              <LatitudeDegrees>43.456199280917644500732421875</LatitudeDegrees>
              <LongitudeDegrees>-3.95220656879246234893798828125</LongitudeDegrees>
            </Position>
            <AltitudeMeters>35</AltitudeMeters>
            <DistanceMeters>NAN</DistanceMeters>
          </Trackpoint>
          <Trackpoint>
            <Time>2022-07-14T07:11:58.000Z</Time>
            <Position>
              <LatitudeDegrees>43.456183187663555145263671875</LatitudeDegrees>
              <LongitudeDegrees>-3.95216566510498523712158203125</LongitudeDegrees>
            </Position>
            <AltitudeMeters>35.200000762939453125</AltitudeMeters>
            <DistanceMeters>NAN</DistanceMeters>
          </Trackpoint>
          <Trackpoint>
            <Time>2022-07-14T07:12:03.000Z</Time>
            <Position>
              <LatitudeDegrees>43.456146977841854095458984375</LatitudeDegrees>
              <LongitudeDegrees>-3.95207916386425495147705078125</LongitudeDegrees>
            </Position>
            <AltitudeMeters>35.59999847412109375</AltitudeMeters>
            <DistanceMeters>NAN</DistanceMeters>
          </Trackpoint>
          <Trackpoint>
            <Time>2022-07-14T07:12:07.000Z</Time>
            <Position>
              <LatitudeDegrees>43.4561253525316715240478515625</LatitudeDegrees>
              <LongitudeDegrees>-3.952009342610836029052734375</LongitudeDegrees>
            </Position>
            <AltitudeMeters>36.200000762939453125</AltitudeMeters>
            <DistanceMeters>NAN</DistanceMeters>
          </Trackpoint>
          <Trackpoint>
            <Time>2022-07-14T07:12:09.000Z</Time>
            <Position>
              <LatitudeDegrees>43.4561102651059627532958984375</LatitudeDegrees>
              <LongitudeDegrees>-3.951988555490970611572265625</LongitudeDegrees>
            </Position>
            <AltitudeMeters>36.59999847412109375</AltitudeMeters>
            <DistanceMeters>NAN</DistanceMeters>
          </Trackpoint>
          <Trackpoint>
            <Time>2022-07-14T07:12:10.000Z</Time>
            <Position>
              <LatitudeDegrees>43.45609693787992000579833984375</LatitudeDegrees>
              <LongitudeDegrees>-3.95198495127260684967041015625</LongitudeDegrees>
            </Position>
            <AltitudeMeters>36.59999847412109375</AltitudeMeters>
            <DistanceMeters>NAN</DistanceMeters>
          </Trackpoint>
          <Trackpoint>
            <Time>2022-07-14T07:12:16.000Z</Time>
            <Position>
              <LatitudeDegrees>43.456080593168735504150390625</LatitudeDegrees>
              <LongitudeDegrees>-3.95196567289531230926513671875</LongitudeDegrees>
            </Position>
            <AltitudeMeters>36.799999237060546875</AltitudeMeters>
            <DistanceMeters>NAN</DistanceMeters>
          </Trackpoint>
          <Trackpoint>
            <Time>2022-07-14T07:13:08.000Z</Time>
            <Position>
              <LatitudeDegrees>43.45609836280345916748046875</LatitudeDegrees>
              <LongitudeDegrees>-3.95206399261951446533203125</LongitudeDegrees>
            </Position>
            <AltitudeMeters>36.40000152587890625</AltitudeMeters>
            <DistanceMeters>NAN</DistanceMeters>
          </Trackpoint>
          <Trackpoint>
            <Time>2022-07-14T07:13:10.000Z</Time>
            <Position>
              <LatitudeDegrees>43.45610012300312519073486328125</LatitudeDegrees>
              <LongitudeDegrees>-3.9521221630275249481201171875</LongitudeDegrees>
            </Position>
            <AltitudeMeters>36.200000762939453125</AltitudeMeters>
            <DistanceMeters>NAN</DistanceMeters>
          </Trackpoint>
          <Trackpoint>
            <Time>2022-07-14T07:13:15.000Z</Time>
            <Position>
              <LatitudeDegrees>43.45611051656305789947509765625</LatitudeDegrees>
              <LongitudeDegrees>-3.9522765576839447021484375</LongitudeDegrees>
            </Position>
            <AltitudeMeters>36.40000152587890625</AltitudeMeters>
            <DistanceMeters>NAN</DistanceMeters>
          </Trackpoint>
          <Trackpoint>
            <Time>2022-07-14T07:13:23.000Z</Time>
            <Position>
              <LatitudeDegrees>43.45613063313066959381103515625</LatitudeDegrees>
              <LongitudeDegrees>-3.9524909667670726776123046875</LongitudeDegrees>
            </Position>
            <AltitudeMeters>36.799999237060546875</AltitudeMeters>
            <DistanceMeters>NAN</DistanceMeters>
          </Trackpoint>
          <Trackpoint>
            <Time>2022-07-14T07:13:27.000Z</Time>
            <Position>
              <LatitudeDegrees>43.45613918267190456390380859375</LatitudeDegrees>
              <LongitudeDegrees>-3.952588029205799102783203125</LongitudeDegrees>
            </Position>
            <AltitudeMeters>37.40000152587890625</AltitudeMeters>
            <DistanceMeters>NAN</DistanceMeters>
          </Trackpoint>
          <Trackpoint>
            <Time>2022-07-14T07:13:31.000Z</Time>
            <Position>
              <LatitudeDegrees>43.45612945966422557830810546875</LatitudeDegrees>
              <LongitudeDegrees>-3.9526830799877643585205078125</LongitudeDegrees>
            </Position>
            <AltitudeMeters>37.799999237060546875</AltitudeMeters>
            <DistanceMeters>NAN</DistanceMeters>
          </Trackpoint>
          <Trackpoint>
            <Time>2022-07-14T07:13:36.000Z</Time>
            <Position>
              <LatitudeDegrees>43.456107079982757568359375</LatitudeDegrees>
              <LongitudeDegrees>-3.9528124965727329254150390625</LongitudeDegrees>
            </Position>
            <AltitudeMeters>38.40000152587890625</AltitudeMeters>
            <DistanceMeters>NAN</DistanceMeters>
          </Trackpoint>
          <Trackpoint>
            <Time>2022-07-14T07:13:40.000Z</Time>
            <Position>
              <LatitudeDegrees>43.456081263720989227294921875</LatitudeDegrees>
              <LongitudeDegrees>-3.95288466475903987884521484375</LongitudeDegrees>
            </Position>
            <AltitudeMeters>39</AltitudeMeters>
            <DistanceMeters>NAN</DistanceMeters>
          </Trackpoint>
          <Trackpoint>
            <Time>2022-07-14T07:13:44.000Z</Time>
            <Position>
              <LatitudeDegrees>43.4560388512909412384033203125</LatitudeDegrees>
              <LongitudeDegrees>-3.95295054651796817779541015625</LongitudeDegrees>
            </Position>
            <AltitudeMeters>39.59999847412109375</AltitudeMeters>
            <DistanceMeters>NAN</DistanceMeters>
          </Trackpoint>
          <Trackpoint>
            <Time>2022-07-14T07:13:46.000Z</Time>
            <Position>
              <LatitudeDegrees>43.4560274519026279449462890625</LatitudeDegrees>
              <LongitudeDegrees>-3.952989019453525543212890625</LongitudeDegrees>
            </Position>
            <AltitudeMeters>39.799999237060546875</AltitudeMeters>
            <DistanceMeters>NAN</DistanceMeters>
          </Trackpoint>
          <Trackpoint>
            <Time>2022-07-14T07:13:48.000Z</Time>
            <Position>
              <LatitudeDegrees>43.45599752850830554962158203125</LatitudeDegrees>
              <LongitudeDegrees>-3.9530181884765625</LongitudeDegrees>
            </Position>
            <AltitudeMeters>40</AltitudeMeters>
            <DistanceMeters>NAN</DistanceMeters>
          </Trackpoint>
          <Trackpoint>
            <Time>2022-07-14T07:13:55.000Z</Time>
            <Position>
              <LatitudeDegrees>43.45591823570430278778076171875</LatitudeDegrees>
              <LongitudeDegrees>-3.9531236328184604644775390625</LongitudeDegrees>
            </Position>
            <AltitudeMeters>40.59999847412109375</AltitudeMeters>
            <DistanceMeters>NAN</DistanceMeters>
          </Trackpoint>
          <Trackpoint>
            <Time>2022-07-14T07:13:56.000Z</Time>
            <Position>
              <LatitudeDegrees>43.45590390264987945556640625</LatitudeDegrees>
              <LongitudeDegrees>-3.95315053872764110565185546875</LongitudeDegrees>
            </Position>
            <AltitudeMeters>40.59999847412109375</AltitudeMeters>
            <DistanceMeters>NAN</DistanceMeters>
          </Trackpoint>
          <Trackpoint>
            <Time>2022-07-14T07:14:02.000Z</Time>
            <Position>
              <LatitudeDegrees>43.45584816299378871917724609375</LatitudeDegrees>
              <LongitudeDegrees>-3.95326587371528148651123046875</LongitudeDegrees>
            </Position>
            <AltitudeMeters>41.200000762939453125</AltitudeMeters>
            <DistanceMeters>NAN</DistanceMeters>
          </Trackpoint>
          <Trackpoint>
            <Time>2022-07-14T07:14:07.000Z</Time>
            <Position>
              <LatitudeDegrees>43.4558125399053096771240234375</LatitudeDegrees>
              <LongitudeDegrees>-3.95337031222879886627197265625</LongitudeDegrees>
            </Position>
            <AltitudeMeters>41.799999237060546875</AltitudeMeters>
            <DistanceMeters>NAN</DistanceMeters>
          </Trackpoint>
          <Trackpoint>
            <Time>2022-07-14T07:14:09.000Z</Time>
            <Position>
              <LatitudeDegrees>43.4557870589196681976318359375</LatitudeDegrees>
              <LongitudeDegrees>-3.953404761850833892822265625</LongitudeDegrees>
            </Position>
            <AltitudeMeters>42</AltitudeMeters>
            <DistanceMeters>NAN</DistanceMeters>
          </Trackpoint>
          <Trackpoint>
            <Time>2022-07-14T07:14:16.000Z</Time>
            <Position>
              <LatitudeDegrees>43.4557545371353626251220703125</LatitudeDegrees>
              <LongitudeDegrees>-3.9535360224545001983642578125</LongitudeDegrees>
            </Position>
            <AltitudeMeters>42.59999847412109375</AltitudeMeters>
            <DistanceMeters>NAN</DistanceMeters>
          </Trackpoint>
          <Trackpoint>
            <Time>2022-07-14T07:14:17.000Z</Time>
            <Position>
              <LatitudeDegrees>43.45574975945055484771728515625</LatitudeDegrees>
              <LongitudeDegrees>-3.9535490982234477996826171875</LongitudeDegrees>
            </Position>
            <AltitudeMeters>42.799999237060546875</AltitudeMeters>
            <DistanceMeters>NAN</DistanceMeters>
          </Trackpoint>
          <Trackpoint>
            <Time>2022-07-14T07:14:23.000Z</Time>
            <Position>
              <LatitudeDegrees>43.45571220852434635162353515625</LatitudeDegrees>
              <LongitudeDegrees>-3.95364054478704929351806640625</LongitudeDegrees>
            </Position>
            <AltitudeMeters>43.799999237060546875</AltitudeMeters>
            <DistanceMeters>NAN</DistanceMeters>
          </Trackpoint>
          <Trackpoint>
            <Time>2022-07-14T07:14:26.000Z</Time>
            <Position>
              <LatitudeDegrees>43.4556918404996395111083984375</LatitudeDegrees>
              <LongitudeDegrees>-3.95369670353829860687255859375</LongitudeDegrees>
            </Position>
            <AltitudeMeters>44.200000762939453125</AltitudeMeters>
            <DistanceMeters>NAN</DistanceMeters>
          </Trackpoint>
          <Trackpoint>
            <Time>2022-07-14T07:14:32.000Z</Time>
            <Position>
              <LatitudeDegrees>43.45563165843486785888671875</LatitudeDegrees>
              <LongitudeDegrees>-3.95377901382744312286376953125</LongitudeDegrees>
            </Position>
            <AltitudeMeters>44.59999847412109375</AltitudeMeters>
            <DistanceMeters>NAN</DistanceMeters>
          </Trackpoint>
          <Trackpoint>
            <Time>2022-07-14T07:14:33.000Z</Time>
            <Position>
              <LatitudeDegrees>43.45562285743653774261474609375</LatitudeDegrees>
              <LongitudeDegrees>-3.95379862748086452484130859375</LongitudeDegrees>
            </Position>
            <AltitudeMeters>44.799999237060546875</AltitudeMeters>
            <DistanceMeters>NAN</DistanceMeters>
          </Trackpoint>
          <Trackpoint>
            <Time>2022-07-14T07:14:34.000Z</Time>
            <Position>
              <LatitudeDegrees>43.455613218247890472412109375</LatitudeDegrees>
              <LongitudeDegrees>-3.95381069742143154144287109375</LongitudeDegrees>
            </Position>
            <AltitudeMeters>44.799999237060546875</AltitudeMeters>
            <DistanceMeters>NAN</DistanceMeters>
          </Trackpoint>
          <Trackpoint>
            <Time>2022-07-14T07:14:42.000Z</Time>
            <Position>
              <LatitudeDegrees>43.455536104738712310791015625</LatitudeDegrees>
              <LongitudeDegrees>-3.95393022336065769195556640625</LongitudeDegrees>
            </Position>
            <AltitudeMeters>45.799999237060546875</AltitudeMeters>
            <DistanceMeters>NAN</DistanceMeters>
          </Trackpoint>
          <Trackpoint>
            <Time>2022-07-14T07:14:43.000Z</Time>
            <Position>
              <LatitudeDegrees>43.4555215202271938323974609375</LatitudeDegrees>
              <LongitudeDegrees>-3.95395335741341114044189453125</LongitudeDegrees>
            </Position>
            <AltitudeMeters>45.799999237060546875</AltitudeMeters>
            <DistanceMeters>NAN</DistanceMeters>
          </Trackpoint>
          <Trackpoint>
            <Time>2022-07-14T07:14:50.000Z</Time>
            <Position>
              <LatitudeDegrees>43.4554175846278667449951171875</LatitudeDegrees>
              <LongitudeDegrees>-3.95411588251590728759765625</LongitudeDegrees>
            </Position>
            <AltitudeMeters>46.200000762939453125</AltitudeMeters>
            <DistanceMeters>NAN</DistanceMeters>
          </Trackpoint>
          <Trackpoint>
            <Time>2022-07-14T07:14:54.000Z</Time>
            <Position>
              <LatitudeDegrees>43.4553615935146808624267578125</LatitudeDegrees>
              <LongitudeDegrees>-3.95419375039637088775634765625</LongitudeDegrees>
            </Position>
            <AltitudeMeters>46.200000762939453125</AltitudeMeters>
            <DistanceMeters>NAN</DistanceMeters>
          </Trackpoint>
          <Trackpoint>
            <Time>2022-07-14T07:14:58.000Z</Time>
            <Position>
              <LatitudeDegrees>43.45529898069798946380615234375</LatitudeDegrees>
              <LongitudeDegrees>-3.9542669244110584259033203125</LongitudeDegrees>
            </Position>
            <AltitudeMeters>46.40000152587890625</AltitudeMeters>
            <DistanceMeters>NAN</DistanceMeters>
          </Trackpoint>
          <Trackpoint>
            <Time>2022-07-14T07:15:05.000Z</Time>
            <Position>
              <LatitudeDegrees>43.45520317554473876953125</LatitudeDegrees>
              <LongitudeDegrees>-3.95439340732991695404052734375</LongitudeDegrees>
            </Position>
            <AltitudeMeters>46.59999847412109375</AltitudeMeters>
            <DistanceMeters>NAN</DistanceMeters>
          </Trackpoint>
          <Trackpoint>
            <Time>2022-07-14T07:15:09.000Z</Time>
            <Position>
              <LatitudeDegrees>43.45514483749866485595703125</LatitudeDegrees>
              <LongitudeDegrees>-3.95444001071155071258544921875</LongitudeDegrees>
            </Position>
            <AltitudeMeters>46.799999237060546875</AltitudeMeters>
            <DistanceMeters>NAN</DistanceMeters>
          </Trackpoint>
          <Trackpoint>
            <Time>2022-07-14T07:15:10.000Z</Time>
            <Position>
              <LatitudeDegrees>43.45512815751135349273681640625</LatitudeDegrees>
              <LongitudeDegrees>-3.9544473029673099517822265625</LongitudeDegrees>
            </Position>
            <AltitudeMeters>47</AltitudeMeters>
            <DistanceMeters>NAN</DistanceMeters>
          </Trackpoint>
          <Trackpoint>
            <Time>2022-07-14T07:15:15.000Z</Time>
            <Position>
              <LatitudeDegrees>43.45505607314407825469970703125</LatitudeDegrees>
              <LongitudeDegrees>-3.954488374292850494384765625</LongitudeDegrees>
            </Position>
            <AltitudeMeters>47.40000152587890625</AltitudeMeters>
            <DistanceMeters>NAN</DistanceMeters>
          </Trackpoint>
          <Trackpoint>
            <Time>2022-07-14T07:15:19.000Z</Time>
            <Position>
              <LatitudeDegrees>43.455007374286651611328125</LatitudeDegrees>
              <LongitudeDegrees>-3.9545284397900104522705078125</LongitudeDegrees>
            </Position>
            <AltitudeMeters>47.799999237060546875</AltitudeMeters>
            <DistanceMeters>NAN</DistanceMeters>
          </Trackpoint>
          <Trackpoint>
            <Time>2022-07-14T07:15:21.000Z</Time>
            <Position>
              <LatitudeDegrees>43.4549837373197078704833984375</LatitudeDegrees>
              <LongitudeDegrees>-3.95454377867281436920166015625</LongitudeDegrees>
            </Position>
            <AltitudeMeters>48</AltitudeMeters>
            <DistanceMeters>NAN</DistanceMeters>
          </Trackpoint>
          <Trackpoint>
            <Time>2022-07-14T07:15:27.000Z</Time>
            <Position>
              <LatitudeDegrees>43.4549237228929996490478515625</LatitudeDegrees>
              <LongitudeDegrees>-3.95459105260670185089111328125</LongitudeDegrees>
            </Position>
            <AltitudeMeters>48.799999237060546875</AltitudeMeters>
            <DistanceMeters>NAN</DistanceMeters>
          </Trackpoint>
          <Trackpoint>
            <Time>2022-07-14T07:15:31.000Z</Time>
            <Position>
              <LatitudeDegrees>43.45488424412906169891357421875</LatitudeDegrees>
              <LongitudeDegrees>-3.9546395838260650634765625</LongitudeDegrees>
            </Position>
            <AltitudeMeters>49</AltitudeMeters>
            <DistanceMeters>NAN</DistanceMeters>
          </Trackpoint>
          <Trackpoint>
            <Time>2022-07-14T07:15:35.000Z</Time>
            <Position>
              <LatitudeDegrees>43.45484904013574123382568359375</LatitudeDegrees>
              <LongitudeDegrees>-3.954695574939250946044921875</LongitudeDegrees>
            </Position>
            <AltitudeMeters>50</AltitudeMeters>
            <DistanceMeters>NAN</DistanceMeters>
          </Trackpoint>
          <Trackpoint>
            <Time>2022-07-14T07:15:36.000Z</Time>
            <Position>
              <LatitudeDegrees>43.454842083156108856201171875</LatitudeDegrees>
              <LongitudeDegrees>-3.95470756106078624725341796875</LongitudeDegrees>
            </Position>
            <AltitudeMeters>50.200000762939453125</AltitudeMeters>
            <DistanceMeters>NAN</DistanceMeters>
          </Trackpoint>
          <Trackpoint>
            <Time>2022-07-14T07:15:37.000Z</Time>
            <Position>
              <LatitudeDegrees>43.454834036529064178466796875</LatitudeDegrees>
              <LongitudeDegrees>-3.9547168649733066558837890625</LongitudeDegrees>
            </Position>
            <AltitudeMeters>50.200000762939453125</AltitudeMeters>
            <DistanceMeters>NAN</DistanceMeters>
          </Trackpoint>
          <Trackpoint>
            <Time>2022-07-14T07:15:42.000Z</Time>
            <Position>
              <LatitudeDegrees>43.45477896742522716522216796875</LatitudeDegrees>
              <LongitudeDegrees>-3.95476690493524074554443359375</LongitudeDegrees>
            </Position>
            <AltitudeMeters>51.200000762939453125</AltitudeMeters>
            <DistanceMeters>NAN</DistanceMeters>
          </Trackpoint>
          <Trackpoint>
            <Time>2022-07-14T07:15:47.000Z</Time>
            <Position>
              <LatitudeDegrees>43.45474652945995330810546875</LatitudeDegrees>
              <LongitudeDegrees>-3.9548449404537677764892578125</LongitudeDegrees>
            </Position>
            <AltitudeMeters>52</AltitudeMeters>
            <DistanceMeters>NAN</DistanceMeters>
          </Trackpoint>
          <Trackpoint>
            <Time>2022-07-14T07:15:49.000Z</Time>
            <Position>
              <LatitudeDegrees>43.45473219640552997589111328125</LatitudeDegrees>
              <LongitudeDegrees>-3.95486262626945972442626953125</LongitudeDegrees>
            </Position>
            <AltitudeMeters>52.40000152587890625</AltitudeMeters>
            <DistanceMeters>NAN</DistanceMeters>
          </Trackpoint>
          <Trackpoint>
            <Time>2022-07-14T07:15:55.000Z</Time>
            <Position>
              <LatitudeDegrees>43.4546796418726444244384765625</LatitudeDegrees>
              <LongitudeDegrees>-3.954957760870456695556640625</LongitudeDegrees>
            </Position>
            <AltitudeMeters>53.200000762939453125</AltitudeMeters>
            <DistanceMeters>NAN</DistanceMeters>
          </Trackpoint>
          <Trackpoint>
            <Time>2022-07-14T07:15:56.000Z</Time>
            <Position>
              <LatitudeDegrees>43.4546672366559505462646484375</LatitudeDegrees>
              <LongitudeDegrees>-3.9549699984490871429443359375</LongitudeDegrees>
            </Position>
            <AltitudeMeters>53.40000152587890625</AltitudeMeters>
            <DistanceMeters>NAN</DistanceMeters>
          </Trackpoint>
          <Trackpoint>
            <Time>2022-07-14T07:15:58.000Z</Time>
            <Position>
              <LatitudeDegrees>43.4546521492302417755126953125</LatitudeDegrees>
              <LongitudeDegrees>-3.95499967038631439208984375</LongitudeDegrees>
            </Position>
            <AltitudeMeters>53.59999847412109375</AltitudeMeters>
            <DistanceMeters>NAN</DistanceMeters>
          </Trackpoint>
          <Trackpoint>
            <Time>2022-07-14T07:16:02.000Z</Time>
            <Position>
              <LatitudeDegrees>43.4546142630279064178466796875</LatitudeDegrees>
              <LongitudeDegrees>-3.95504283718764781951904296875</LongitudeDegrees>
            </Position>
            <AltitudeMeters>54.200000762939453125</AltitudeMeters>
            <DistanceMeters>NAN</DistanceMeters>
          </Trackpoint>
          <Trackpoint>
            <Time>2022-07-14T07:16:04.000Z</Time>
            <Position>
              <LatitudeDegrees>43.45458819530904293060302734375</LatitudeDegrees>
              <LongitudeDegrees>-3.95506245084106922149658203125</LongitudeDegrees>
            </Position>
            <AltitudeMeters>54.59999847412109375</AltitudeMeters>
            <DistanceMeters>NAN</DistanceMeters>
          </Trackpoint>
          <Trackpoint>
            <Time>2022-07-14T07:16:05.000Z</Time>
            <Position>
              <LatitudeDegrees>43.45457394607365131378173828125</LatitudeDegrees>
              <LongitudeDegrees>-3.9550762809813022613525390625</LongitudeDegrees>
            </Position>
            <AltitudeMeters>54.59999847412109375</AltitudeMeters>
            <DistanceMeters>NAN</DistanceMeters>
          </Trackpoint>
          <Trackpoint>
            <Time>2022-07-14T07:16:14.000Z</Time>
            <Position>
              <LatitudeDegrees>43.45446548424661159515380859375</LatitudeDegrees>
              <LongitudeDegrees>-3.95518633536994457244873046875</LongitudeDegrees>
            </Position>
            <AltitudeMeters>55.40000152587890625</AltitudeMeters>
            <DistanceMeters>NAN</DistanceMeters>
          </Trackpoint>
          <Trackpoint>
            <Time>2022-07-14T07:16:15.000Z</Time>
            <Position>
              <LatitudeDegrees>43.4544523246586322784423828125</LatitudeDegrees>
              <LongitudeDegrees>-3.9551959745585918426513671875</LongitudeDegrees>
            </Position>
            <AltitudeMeters>55.40000152587890625</AltitudeMeters>
            <DistanceMeters>NAN</DistanceMeters>
          </Trackpoint>
          <Trackpoint>
            <Time>2022-07-14T07:16:17.000Z</Time>
            <Position>
              <LatitudeDegrees>43.454424329102039337158203125</LatitudeDegrees>
              <LongitudeDegrees>-3.9552080444991588592529296875</LongitudeDegrees>
            </Position>
            <AltitudeMeters>55.59999847412109375</AltitudeMeters>
            <DistanceMeters>NAN</DistanceMeters>
          </Trackpoint>
          <Trackpoint>
            <Time>2022-07-14T07:16:24.000Z</Time>
            <Position>
              <LatitudeDegrees>43.45431846566498279571533203125</LatitudeDegrees>
              <LongitudeDegrees>-3.95527015440165996551513671875</LongitudeDegrees>
            </Position>
            <AltitudeMeters>56.200000762939453125</AltitudeMeters>
            <DistanceMeters>NAN</DistanceMeters>
          </Trackpoint>
          <Trackpoint>
            <Time>2022-07-14T07:16:29.000Z</Time>
            <Position>
              <LatitudeDegrees>43.45423364080488681793212890625</LatitudeDegrees>
              <LongitudeDegrees>-3.95531860180199146270751953125</LongitudeDegrees>
            </Position>
            <AltitudeMeters>56.40000152587890625</AltitudeMeters>
            <DistanceMeters>NAN</DistanceMeters>
          </Trackpoint>
          <Trackpoint>
            <Time>2022-07-14T07:16:33.000Z</Time>
            <Position>
              <LatitudeDegrees>43.4541810862720012664794921875</LatitudeDegrees>
              <LongitudeDegrees>-3.95536537282168865203857421875</LongitudeDegrees>
            </Position>
            <AltitudeMeters>56.40000152587890625</AltitudeMeters>
            <DistanceMeters>NAN</DistanceMeters>
          </Trackpoint>
          <Trackpoint>
            <Time>2022-07-14T07:16:35.000Z</Time>
            <Position>
              <LatitudeDegrees>43.45415317453444004058837890625</LatitudeDegrees>
              <LongitudeDegrees>-3.9553773589432239532470703125</LongitudeDegrees>
            </Position>
            <AltitudeMeters>56.59999847412109375</AltitudeMeters>
            <DistanceMeters>NAN</DistanceMeters>
          </Trackpoint>
          <Trackpoint>
            <Time>2022-07-14T07:16:40.000Z</Time>
            <Position>
              <LatitudeDegrees>43.4540794976055622100830078125</LatitudeDegrees>
              <LongitudeDegrees>-3.95541197620332241058349609375</LongitudeDegrees>
            </Position>
            <AltitudeMeters>57</AltitudeMeters>
            <DistanceMeters>NAN</DistanceMeters>
          </Trackpoint>
          <Trackpoint>
            <Time>2022-07-14T07:16:46.000Z</Time>
            <Position>
              <LatitudeDegrees>43.45399911515414714813232421875</LatitudeDegrees>
              <LongitudeDegrees>-3.95547173917293548583984375</LongitudeDegrees>
            </Position>
            <AltitudeMeters>57.40000152587890625</AltitudeMeters>
            <DistanceMeters>NAN</DistanceMeters>
          </Trackpoint>
          <Trackpoint>
            <Time>2022-07-14T07:16:48.000Z</Time>
            <Position>
              <LatitudeDegrees>43.45397011376917362213134765625</LatitudeDegrees>
              <LongitudeDegrees>-3.9554970525205135345458984375</LongitudeDegrees>
            </Position>
            <AltitudeMeters>57.59999847412109375</AltitudeMeters>
            <DistanceMeters>NAN</DistanceMeters>
          </Trackpoint>
          <Trackpoint>
            <Time>2022-07-14T07:16:49.000Z</Time>
            <Position>
              <LatitudeDegrees>43.4539541043341159820556640625</LatitudeDegrees>
              <LongitudeDegrees>-3.95551188848912715911865234375</LongitudeDegrees>
            </Position>
            <AltitudeMeters>57.59999847412109375</AltitudeMeters>
            <DistanceMeters>NAN</DistanceMeters>
          </Trackpoint>
          <Trackpoint>
            <Time>2022-07-14T07:16:56.000Z</Time>
            <Position>
              <LatitudeDegrees>43.4538567066192626953125</LatitudeDegrees>
              <LongitudeDegrees>-3.95562998950481414794921875</LongitudeDegrees>
            </Position>
            <AltitudeMeters>58.200000762939453125</AltitudeMeters>
            <DistanceMeters>NAN</DistanceMeters>
          </Trackpoint>
          <Trackpoint>
            <Time>2022-07-14T07:17:01.000Z</Time>
            <Position>
              <LatitudeDegrees>43.45382326282560825347900390625</LatitudeDegrees>
              <LongitudeDegrees>-3.95574239082634449005126953125</LongitudeDegrees>
            </Position>
            <AltitudeMeters>58.59999847412109375</AltitudeMeters>
            <DistanceMeters>NAN</DistanceMeters>
          </Trackpoint>
          <Trackpoint>
            <Time>2022-07-14T07:17:02.000Z</Time>
            <Position>
              <LatitudeDegrees>43.45381555147469043731689453125</LatitudeDegrees>
              <LongitudeDegrees>-3.95576133392751216888427734375</LongitudeDegrees>
            </Position>
            <AltitudeMeters>58.59999847412109375</AltitudeMeters>
            <DistanceMeters>NAN</DistanceMeters>
          </Trackpoint>
          <Trackpoint>
            <Time>2022-07-14T07:17:03.000Z</Time>
            <Position>
              <LatitudeDegrees>43.4538082592189311981201171875</LatitudeDegrees>
              <LongitudeDegrees>-3.95578044466674327850341796875</LongitudeDegrees>
            </Position>
            <AltitudeMeters>58.799999237060546875</AltitudeMeters>
            <DistanceMeters>NAN</DistanceMeters>
          </Trackpoint>
          <Trackpoint>
            <Time>2022-07-14T07:17:09.000Z</Time>
            <Position>
              <LatitudeDegrees>43.45378789119422435760498046875</LatitudeDegrees>
              <LongitudeDegrees>-3.95593173801898956298828125</LongitudeDegrees>
            </Position>
            <AltitudeMeters>59</AltitudeMeters>
            <DistanceMeters>NAN</DistanceMeters>
          </Trackpoint>
          <Trackpoint>
            <Time>2022-07-14T07:17:16.000Z</Time>
            <Position>
              <LatitudeDegrees>43.45379996113479137420654296875</LatitudeDegrees>
              <LongitudeDegrees>-3.95614773966372013092041015625</LongitudeDegrees>
            </Position>
            <AltitudeMeters>59.799999237060546875</AltitudeMeters>
            <DistanceMeters>NAN</DistanceMeters>
          </Trackpoint>
          <Trackpoint>
            <Time>2022-07-14T07:17:18.000Z</Time>
            <Position>
              <LatitudeDegrees>43.45380079932510852813720703125</LatitudeDegrees>
              <LongitudeDegrees>-3.95621110685169696807861328125</LongitudeDegrees>
            </Position>
            <AltitudeMeters>59.799999237060546875</AltitudeMeters>
            <DistanceMeters>NAN</DistanceMeters>
          </Trackpoint>
          <Trackpoint>
            <Time>2022-07-14T07:17:24.000Z</Time>
            <Position>
              <LatitudeDegrees>43.4537619911134243011474609375</LatitudeDegrees>
              <LongitudeDegrees>-3.95643406547605991363525390625</LongitudeDegrees>
            </Position>
            <AltitudeMeters>59.799999237060546875</AltitudeMeters>
            <DistanceMeters>NAN</DistanceMeters>
          </Trackpoint>
          <Trackpoint>
            <Time>2022-07-14T07:17:29.000Z</Time>
            <Position>
              <LatitudeDegrees>43.45370926894247531890869140625</LatitudeDegrees>
              <LongitudeDegrees>-3.95667068660259246826171875</LongitudeDegrees>
            </Position>
            <AltitudeMeters>59.40000152587890625</AltitudeMeters>
            <DistanceMeters>NAN</DistanceMeters>
          </Trackpoint>
          <Trackpoint>
            <Time>2022-07-14T07:17:30.000Z</Time>
            <Position>
              <LatitudeDegrees>43.4536889009177684783935546875</LatitudeDegrees>
              <LongitudeDegrees>-3.95672407932579517364501953125</LongitudeDegrees>
            </Position>
            <AltitudeMeters>59.40000152587890625</AltitudeMeters>
            <DistanceMeters>NAN</DistanceMeters>
          </Trackpoint>
          <Trackpoint>
            <Time>2022-07-14T07:17:34.000Z</Time>
            <Position>
              <LatitudeDegrees>43.453574068844318389892578125</LatitudeDegrees>
              <LongitudeDegrees>-3.95694485865533351898193359375</LongitudeDegrees>
            </Position>
            <AltitudeMeters>58.59999847412109375</AltitudeMeters>
            <DistanceMeters>NAN</DistanceMeters>
          </Trackpoint>
          <Trackpoint>
            <Time>2022-07-14T07:17:37.000Z</Time>
            <Position>
              <LatitudeDegrees>43.4534421376883983612060546875</LatitudeDegrees>
              <LongitudeDegrees>-3.95717519335448741912841796875</LongitudeDegrees>
            </Position>
            <AltitudeMeters>58.200000762939453125</AltitudeMeters>
            <DistanceMeters>NAN</DistanceMeters>
          </Trackpoint>
          <Trackpoint>
            <Time>2022-07-14T07:17:39.000Z</Time>
            <Position>
              <LatitudeDegrees>43.4533672034740447998046875</LatitudeDegrees>
              <LongitudeDegrees>-3.95731844007968902587890625</LongitudeDegrees>
            </Position>
            <AltitudeMeters>57.799999237060546875</AltitudeMeters>
            <DistanceMeters>NAN</DistanceMeters>
          </Trackpoint>
          <Trackpoint>
            <Time>2022-07-14T07:17:40.000Z</Time>
            <Position>
              <LatitudeDegrees>43.45333342440426349639892578125</LatitudeDegrees>
              <LongitudeDegrees>-3.957401253283023834228515625</LongitudeDegrees>
            </Position>
            <AltitudeMeters>57.59999847412109375</AltitudeMeters>
            <DistanceMeters>NAN</DistanceMeters>
          </Trackpoint>
          <Trackpoint>
            <Time>2022-07-14T07:17:43.000Z</Time>
            <Position>
              <LatitudeDegrees>43.45321775414049625396728515625</LatitudeDegrees>
              <LongitudeDegrees>-3.95764441229403018951416015625</LongitudeDegrees>
            </Position>
            <AltitudeMeters>56.59999847412109375</AltitudeMeters>
            <DistanceMeters>NAN</DistanceMeters>
          </Trackpoint>
          <Trackpoint>
            <Time>2022-07-14T07:17:45.000Z</Time>
            <Position>
              <LatitudeDegrees>43.4531108848750591278076171875</LatitudeDegrees>
              <LongitudeDegrees>-3.95782160572707653045654296875</LongitudeDegrees>
            </Position>
            <AltitudeMeters>56</AltitudeMeters>
            <DistanceMeters>NAN</DistanceMeters>
          </Trackpoint>
          <Trackpoint>
            <Time>2022-07-14T07:17:47.000Z</Time>
            <Position>
              <LatitudeDegrees>43.45299831591546535491943359375</LatitudeDegrees>
              <LongitudeDegrees>-3.9579978771507740020751953125</LongitudeDegrees>
            </Position>
            <AltitudeMeters>55</AltitudeMeters>
            <DistanceMeters>NAN</DistanceMeters>
          </Trackpoint>
          <Trackpoint>
            <Time>2022-07-14T07:17:49.000Z</Time>
            <Position>
              <LatitudeDegrees>43.45288817770779132843017578125</LatitudeDegrees>
              <LongitudeDegrees>-3.95819342695176601409912109375</LongitudeDegrees>
            </Position>
            <AltitudeMeters>54</AltitudeMeters>
            <DistanceMeters>NAN</DistanceMeters>
          </Trackpoint>
          <Trackpoint>
            <Time>2022-07-14T07:17:50.000Z</Time>
            <Position>
              <LatitudeDegrees>43.4528349526226520538330078125</LatitudeDegrees>
              <LongitudeDegrees>-3.9582912437617778778076171875</LongitudeDegrees>
            </Position>
            <AltitudeMeters>53.200000762939453125</AltitudeMeters>
            <DistanceMeters>NAN</DistanceMeters>
          </Trackpoint>
          <Trackpoint>
            <Time>2022-07-14T07:17:51.000Z</Time>
            <Position>
              <LatitudeDegrees>43.45278373919427394866943359375</LatitudeDegrees>
              <LongitudeDegrees>-3.95838906057178974151611328125</LongitudeDegrees>
            </Position>
            <AltitudeMeters>52.799999237060546875</AltitudeMeters>
            <DistanceMeters>NAN</DistanceMeters>
          </Trackpoint>
          <Trackpoint>
            <Time>2022-07-14T07:17:56.000Z</Time>
            <Position>
              <LatitudeDegrees>43.45255114138126373291015625</LatitudeDegrees>
              <LongitudeDegrees>-3.95880731754004955291748046875</LongitudeDegrees>
            </Position>
            <AltitudeMeters>51.40000152587890625</AltitudeMeters>
            <DistanceMeters>NAN</DistanceMeters>
          </Trackpoint>
          <Trackpoint>
            <Time>2022-07-14T07:17:59.000Z</Time>
            <Position>
              <LatitudeDegrees>43.45242281444370746612548828125</LatitudeDegrees>
              <LongitudeDegrees>-3.9590410888195037841796875</LongitudeDegrees>
            </Position>
            <AltitudeMeters>50.59999847412109375</AltitudeMeters>
            <DistanceMeters>NAN</DistanceMeters>
          </Trackpoint>
          <Trackpoint>
            <Time>2022-07-14T07:18:00.000Z</Time>
            <Position>
              <LatitudeDegrees>43.45239263959228992462158203125</LatitudeDegrees>
              <LongitudeDegrees>-3.95912851206958293914794921875</LongitudeDegrees>
            </Position>
            <AltitudeMeters>50.40000152587890625</AltitudeMeters>
            <DistanceMeters>NAN</DistanceMeters>
          </Trackpoint>
          <Trackpoint>
            <Time>2022-07-14T07:18:01.000Z</Time>
            <Position>
              <LatitudeDegrees>43.452370427548885345458984375</LatitudeDegrees>
              <LongitudeDegrees>-3.95921702496707439422607421875</LongitudeDegrees>
            </Position>
            <AltitudeMeters>50.200000762939453125</AltitudeMeters>
            <DistanceMeters>NAN</DistanceMeters>
          </Trackpoint>
          <Trackpoint>
            <Time>2022-07-14T07:18:04.000Z</Time>
            <Position>
              <LatitudeDegrees>43.45234637148678302764892578125</LatitudeDegrees>
              <LongitudeDegrees>-3.9594640396535396575927734375</LongitudeDegrees>
            </Position>
            <AltitudeMeters>50.200000762939453125</AltitudeMeters>
            <DistanceMeters>NAN</DistanceMeters>
          </Trackpoint>
          <Trackpoint>
            <Time>2022-07-14T07:18:05.000Z</Time>
            <Position>
              <LatitudeDegrees>43.45234033651649951934814453125</LatitudeDegrees>
              <LongitudeDegrees>-3.95954140461981296539306640625</LongitudeDegrees>
            </Position>
            <AltitudeMeters>50.200000762939453125</AltitudeMeters>
            <DistanceMeters>NAN</DistanceMeters>
          </Trackpoint>
          <Trackpoint>
            <Time>2022-07-14T07:18:07.000Z</Time>
            <Position>
              <LatitudeDegrees>43.452318124473094940185546875</LatitudeDegrees>
              <LongitudeDegrees>-3.959656320512294769287109375</LongitudeDegrees>
            </Position>
            <AltitudeMeters>50.40000152587890625</AltitudeMeters>
            <DistanceMeters>NAN</DistanceMeters>
          </Trackpoint>
          <Trackpoint>
            <Time>2022-07-14T07:18:08.000Z</Time>
            <Position>
              <LatitudeDegrees>43.45230027101933956146240234375</LatitudeDegrees>
              <LongitudeDegrees>-3.95971231162548065185546875</LongitudeDegrees>
            </Position>
            <AltitudeMeters>50.40000152587890625</AltitudeMeters>
            <DistanceMeters>NAN</DistanceMeters>
          </Trackpoint>
          <Trackpoint>
            <Time>2022-07-14T07:18:14.000Z</Time>
            <Position>
              <LatitudeDegrees>43.4521763026714324951171875</LatitudeDegrees>
              <LongitudeDegrees>-3.96001431159675121307373046875</LongitudeDegrees>
            </Position>
            <AltitudeMeters>50.40000152587890625</AltitudeMeters>
            <DistanceMeters>NAN</DistanceMeters>
          </Trackpoint>
          <Trackpoint>
            <Time>2022-07-14T07:18:20.000Z</Time>
            <Position>
              <LatitudeDegrees>43.45202987082302570343017578125</LatitudeDegrees>
              <LongitudeDegrees>-3.96037238650023937225341796875</LongitudeDegrees>
            </Position>
            <AltitudeMeters>49.59999847412109375</AltitudeMeters>
            <DistanceMeters>NAN</DistanceMeters>
          </Trackpoint>
          <Trackpoint>
            <Time>2022-07-14T07:18:22.000Z</Time>
            <Position>
              <LatitudeDegrees>43.45195300877094268798828125</LatitudeDegrees>
              <LongitudeDegrees>-3.9604733884334564208984375</LongitudeDegrees>
            </Position>
            <AltitudeMeters>49.40000152587890625</AltitudeMeters>
            <DistanceMeters>NAN</DistanceMeters>
          </Trackpoint>
          <Trackpoint>
            <Time>2022-07-14T07:18:24.000Z</Time>
            <Position>
              <LatitudeDegrees>43.451852761209011077880859375</LatitudeDegrees>
              <LongitudeDegrees>-3.96054555661976337432861328125</LongitudeDegrees>
            </Position>
            <AltitudeMeters>49</AltitudeMeters>
            <DistanceMeters>NAN</DistanceMeters>
          </Trackpoint>
          <Trackpoint>
            <Time>2022-07-14T07:18:26.000Z</Time>
            <Position>
              <LatitudeDegrees>43.45173080451786518096923828125</LatitudeDegrees>
              <LongitudeDegrees>-3.960601128637790679931640625</LongitudeDegrees>
            </Position>
            <AltitudeMeters>48.40000152587890625</AltitudeMeters>
            <DistanceMeters>NAN</DistanceMeters>
          </Trackpoint>
          <Trackpoint>
            <Time>2022-07-14T07:18:27.000Z</Time>
            <Position>
              <LatitudeDegrees>43.4516665153205394744873046875</LatitudeDegrees>
              <LongitudeDegrees>-3.96062962710857391357421875</LongitudeDegrees>
            </Position>
            <AltitudeMeters>48</AltitudeMeters>
            <DistanceMeters>NAN</DistanceMeters>
          </Trackpoint>
          <Trackpoint>
            <Time>2022-07-14T07:18:32.000Z</Time>
            <Position>
              <LatitudeDegrees>43.4513580612838268280029296875</LatitudeDegrees>
              <LongitudeDegrees>-3.9608182199299335479736328125</LongitudeDegrees>
            </Position>
            <AltitudeMeters>47.200000762939453125</AltitudeMeters>
            <DistanceMeters>NAN</DistanceMeters>
          </Trackpoint>
          <Trackpoint>
            <Time>2022-07-14T07:18:33.000Z</Time>
            <Position>
              <LatitudeDegrees>43.4512983821332454681396484375</LatitudeDegrees>
              <LongitudeDegrees>-3.9608621411025524139404296875</LongitudeDegrees>
            </Position>
            <AltitudeMeters>47.200000762939453125</AltitudeMeters>
            <DistanceMeters>NAN</DistanceMeters>
          </Trackpoint>
          <Trackpoint>
            <Time>2022-07-14T07:18:34.000Z</Time>
            <Position>
              <LatitudeDegrees>43.45123090781271457672119140625</LatitudeDegrees>
              <LongitudeDegrees>-3.9609050564467906951904296875</LongitudeDegrees>
            </Position>
            <AltitudeMeters>46.799999237060546875</AltitudeMeters>
            <DistanceMeters>NAN</DistanceMeters>
          </Trackpoint>
          <Trackpoint>
            <Time>2022-07-14T07:18:37.000Z</Time>
            <Position>
              <LatitudeDegrees>43.45099671743810176849365234375</LatitudeDegrees>
              <LongitudeDegrees>-3.96099197678267955780029296875</LongitudeDegrees>
            </Position>
            <AltitudeMeters>45.40000152587890625</AltitudeMeters>
            <DistanceMeters>NAN</DistanceMeters>
          </Trackpoint>
          <Trackpoint>
            <Time>2022-07-14T07:18:39.000Z</Time>
            <Position>
              <LatitudeDegrees>43.45083310268819332122802734375</LatitudeDegrees>
              <LongitudeDegrees>-3.9610234089195728302001953125</LongitudeDegrees>
            </Position>
            <AltitudeMeters>44.40000152587890625</AltitudeMeters>
            <DistanceMeters>NAN</DistanceMeters>
          </Trackpoint>
          <Trackpoint>
            <Time>2022-07-14T07:18:40.000Z</Time>
            <Position>
              <LatitudeDegrees>43.45075582154095172882080078125</LatitudeDegrees>
              <LongitudeDegrees>-3.9610452018678188323974609375</LongitudeDegrees>
            </Position>
            <AltitudeMeters>44</AltitudeMeters>
            <DistanceMeters>NAN</DistanceMeters>
          </Trackpoint>
          <Trackpoint>
            <Time>2022-07-14T07:18:42.000Z</Time>
            <Position>
              <LatitudeDegrees>43.4506181068718433380126953125</LatitudeDegrees>
              <LongitudeDegrees>-3.9611251652240753173828125</LongitudeDegrees>
            </Position>
            <AltitudeMeters>43.200000762939453125</AltitudeMeters>
            <DistanceMeters>NAN</DistanceMeters>
          </Trackpoint>
          <Trackpoint>
            <Time>2022-07-14T07:18:46.000Z</Time>
            <Position>
              <LatitudeDegrees>43.45043093897402286529541015625</LatitudeDegrees>
              <LongitudeDegrees>-3.96132876165211200714111328125</LongitudeDegrees>
            </Position>
            <AltitudeMeters>43.200000762939453125</AltitudeMeters>
            <DistanceMeters>NAN</DistanceMeters>
          </Trackpoint>
          <Trackpoint>
            <Time>2022-07-14T07:18:50.000Z</Time>
            <Position>
              <LatitudeDegrees>43.4503294341266155242919921875</LatitudeDegrees>
              <LongitudeDegrees>-3.961453400552272796630859375</LongitudeDegrees>
            </Position>
            <AltitudeMeters>43.40000152587890625</AltitudeMeters>
            <DistanceMeters>NAN</DistanceMeters>
          </Trackpoint>
          <Trackpoint>
            <Time>2022-07-14T07:18:55.000Z</Time>
            <Position>
              <LatitudeDegrees>43.450237400829792022705078125</LatitudeDegrees>
              <LongitudeDegrees>-3.9615444280207157135009765625</LongitudeDegrees>
            </Position>
            <AltitudeMeters>44.40000152587890625</AltitudeMeters>
            <DistanceMeters>NAN</DistanceMeters>
          </Trackpoint>
          <Trackpoint>
            <Time>2022-07-14T07:18:57.000Z</Time>
            <Position>
              <LatitudeDegrees>43.45020697452127933502197265625</LatitudeDegrees>
              <LongitudeDegrees>-3.961569406092166900634765625</LongitudeDegrees>
            </Position>
            <AltitudeMeters>44.799999237060546875</AltitudeMeters>
            <DistanceMeters>NAN</DistanceMeters>
          </Trackpoint>
          <Trackpoint>
            <Time>2022-07-14T07:19:01.000Z</Time>
            <Position>
              <LatitudeDegrees>43.4501503966748714447021484375</LatitudeDegrees>
              <LongitudeDegrees>-3.9616208709776401519775390625</LongitudeDegrees>
            </Position>
            <AltitudeMeters>45</AltitudeMeters>
            <DistanceMeters>NAN</DistanceMeters>
          </Trackpoint>
          <Trackpoint>
            <Time>2022-07-14T07:19:03.000Z</Time>
            <Position>
              <LatitudeDegrees>43.45013824291527271270751953125</LatitudeDegrees>
              <LongitudeDegrees>-3.96165900863707065582275390625</LongitudeDegrees>
            </Position>
            <AltitudeMeters>45.200000762939453125</AltitudeMeters>
            <DistanceMeters>NAN</DistanceMeters>
          </Trackpoint>
          <Trackpoint>
            <Time>2022-07-14T07:19:08.000Z</Time>
            <Position>
              <LatitudeDegrees>43.45015995204448699951171875</LatitudeDegrees>
              <LongitudeDegrees>-3.961808122694492340087890625</LongitudeDegrees>
            </Position>
            <AltitudeMeters>45</AltitudeMeters>
            <DistanceMeters>NAN</DistanceMeters>
          </Trackpoint>
          <Trackpoint>
            <Time>2022-07-14T07:19:13.000Z</Time>
            <Position>
              <LatitudeDegrees>43.450248800218105316162109375</LatitudeDegrees>
              <LongitudeDegrees>-3.96203435026109218597412109375</LongitudeDegrees>
            </Position>
            <AltitudeMeters>44</AltitudeMeters>
            <DistanceMeters>NAN</DistanceMeters>
          </Trackpoint>
          <Trackpoint>
            <Time>2022-07-14T07:19:14.000Z</Time>
            <Position>
              <LatitudeDegrees>43.450268246233463287353515625</LatitudeDegrees>
              <LongitudeDegrees>-3.96207206882536411285400390625</LongitudeDegrees>
            </Position>
            <AltitudeMeters>43.799999237060546875</AltitudeMeters>
            <DistanceMeters>NAN</DistanceMeters>
          </Trackpoint>
          <Trackpoint>
            <Time>2022-07-14T07:19:17.000Z</Time>
            <Position>
              <LatitudeDegrees>43.45033806748688220977783203125</LatitudeDegrees>
              <LongitudeDegrees>-3.96224423311650753021240234375</LongitudeDegrees>
            </Position>
            <AltitudeMeters>43.200000762939453125</AltitudeMeters>
            <DistanceMeters>NAN</DistanceMeters>
          </Trackpoint>
          <Trackpoint>
            <Time>2022-07-14T07:19:21.000Z</Time>
            <Position>
              <LatitudeDegrees>43.45040277577936649322509765625</LatitudeDegrees>
              <LongitudeDegrees>-3.96243215538561344146728515625</LongitudeDegrees>
            </Position>
            <AltitudeMeters>42.200000762939453125</AltitudeMeters>
            <DistanceMeters>NAN</DistanceMeters>
          </Trackpoint>
          <Trackpoint>
            <Time>2022-07-14T07:19:22.000Z</Time>
            <Position>
              <LatitudeDegrees>43.45042976550757884979248046875</LatitudeDegrees>
              <LongitudeDegrees>-3.96246015094220638275146484375</LongitudeDegrees>
            </Position>
            <AltitudeMeters>42</AltitudeMeters>
            <DistanceMeters>NAN</DistanceMeters>
          </Trackpoint>
          <Trackpoint>
            <Time>2022-07-14T07:19:25.000Z</Time>
            <Position>
              <LatitudeDegrees>43.4504742734134197235107421875</LatitudeDegrees>
              <LongitudeDegrees>-3.96247758530080318450927734375</LongitudeDegrees>
            </Position>
            <AltitudeMeters>41.59999847412109375</AltitudeMeters>
            <DistanceMeters>NAN</DistanceMeters>
          </Trackpoint>
          <Trackpoint>
            <Time>2022-07-14T07:19:27.000Z</Time>
            <Position>
              <LatitudeDegrees>43.4504742734134197235107421875</LatitudeDegrees>
              <LongitudeDegrees>-3.96247758530080318450927734375</LongitudeDegrees>
            </Position>
            <AltitudeMeters>41.40000152587890625</AltitudeMeters>
            <DistanceMeters>NAN</DistanceMeters>
          </Trackpoint>
          <Trackpoint>
            <Time>2022-07-14T07:19:57.000Z</Time>
            <Position>
              <LatitudeDegrees>43.45051878131926059722900390625</LatitudeDegrees>
              <LongitudeDegrees>-3.96258923225104808807373046875</LongitudeDegrees>
            </Position>
            <AltitudeMeters>41.59999847412109375</AltitudeMeters>
            <DistanceMeters>NAN</DistanceMeters>
          </Trackpoint>
          <Trackpoint>
            <Time>2022-07-14T07:19:58.000Z</Time>
            <Position>
              <LatitudeDegrees>43.4505262412130832672119140625</LatitudeDegrees>
              <LongitudeDegrees>-3.96259509958326816558837890625</LongitudeDegrees>
            </Position>
            <AltitudeMeters>41.59999847412109375</AltitudeMeters>
            <DistanceMeters>NAN</DistanceMeters>
          </Trackpoint>
          <Trackpoint>
            <Time>2022-07-14T07:19:59.000Z</Time>
            <Position>
              <LatitudeDegrees>43.45053051598370075225830078125</LatitudeDegrees>
              <LongitudeDegrees>-3.9625923335552215576171875</LongitudeDegrees>
            </Position>
            <AltitudeMeters>41.59999847412109375</AltitudeMeters>
            <DistanceMeters>NAN</DistanceMeters>
          </Trackpoint>
          <Trackpoint>
            <Time>2022-07-14T07:20:01.000Z</Time>
            <Position>
              <LatitudeDegrees>43.45052716322243213653564453125</LatitudeDegrees>
              <LongitudeDegrees>-3.96257112734019756317138671875</LongitudeDegrees>
            </Position>
            <AltitudeMeters>41.59999847412109375</AltitudeMeters>
            <DistanceMeters>NAN</DistanceMeters>
          </Trackpoint>
          <Trackpoint>
            <Time>2022-07-14T07:20:03.000Z</Time>
            <Position>
              <LatitudeDegrees>43.45053202472627162933349609375</LatitudeDegrees>
              <LongitudeDegrees>-3.96254614926874637603759765625</LongitudeDegrees>
            </Position>
            <AltitudeMeters>41.59999847412109375</AltitudeMeters>
            <DistanceMeters>NAN</DistanceMeters>
          </Trackpoint>
          <Trackpoint>
            <Time>2022-07-14T07:20:04.000Z</Time>
            <Position>
              <LatitudeDegrees>43.45053772442042827606201171875</LatitudeDegrees>
              <LongitudeDegrees>-3.962535001337528228759765625</LongitudeDegrees>
            </Position>
            <AltitudeMeters>41.59999847412109375</AltitudeMeters>
            <DistanceMeters>NAN</DistanceMeters>
          </Trackpoint>
          <Trackpoint>
            <Time>2022-07-14T07:20:06.000Z</Time>
            <Position>
              <LatitudeDegrees>43.45056504942476749420166015625</LatitudeDegrees>
              <LongitudeDegrees>-3.96252703852951526641845703125</LongitudeDegrees>
            </Position>
            <AltitudeMeters>41.40000152587890625</AltitudeMeters>
            <DistanceMeters>NAN</DistanceMeters>
          </Trackpoint>
          <Trackpoint>
            <Time>2022-07-14T07:20:08.000Z</Time>
            <Position>
              <LatitudeDegrees>43.45060779713094234466552734375</LatitudeDegrees>
              <LongitudeDegrees>-3.962543718516826629638671875</LongitudeDegrees>
            </Position>
            <AltitudeMeters>41.200000762939453125</AltitudeMeters>
            <DistanceMeters>NAN</DistanceMeters>
          </Trackpoint>
          <Trackpoint>
            <Time>2022-07-14T07:20:09.000Z</Time>
            <Position>
              <LatitudeDegrees>43.45063361339271068572998046875</LatitudeDegrees>
              <LongitudeDegrees>-3.9625536091625690460205078125</LongitudeDegrees>
            </Position>
            <AltitudeMeters>41</AltitudeMeters>
            <DistanceMeters>NAN</DistanceMeters>
          </Trackpoint>
          <Trackpoint>
            <Time>2022-07-14T07:20:13.000Z</Time>
            <Position>
              <LatitudeDegrees>43.45072497613728046417236328125</LatitudeDegrees>
              <LongitudeDegrees>-3.96261689253151416778564453125</LongitudeDegrees>
            </Position>
            <AltitudeMeters>39.59999847412109375</AltitudeMeters>
            <DistanceMeters>NAN</DistanceMeters>
          </Trackpoint>
          <Trackpoint>
            <Time>2022-07-14T07:20:14.000Z</Time>
            <Position>
              <LatitudeDegrees>43.45074065029621124267578125</LatitudeDegrees>
              <LongitudeDegrees>-3.962636925280094146728515625</LongitudeDegrees>
            </Position>
            <AltitudeMeters>39.200000762939453125</AltitudeMeters>
            <DistanceMeters>NAN</DistanceMeters>
          </Trackpoint>
          <Trackpoint>
            <Time>2022-07-14T07:20:17.000Z</Time>
            <Position>
              <LatitudeDegrees>43.45077711157500743865966796875</LatitudeDegrees>
              <LongitudeDegrees>-3.96266735158860683441162109375</LongitudeDegrees>
            </Position>
            <AltitudeMeters>38.59999847412109375</AltitudeMeters>
            <DistanceMeters>NAN</DistanceMeters>
          </Trackpoint>
          <Trackpoint>
            <Time>2022-07-14T07:20:18.000Z</Time>
            <Position>
              <LatitudeDegrees>43.4507887624204158782958984375</LatitudeDegrees>
              <LongitudeDegrees>-3.96266517229378223419189453125</LongitudeDegrees>
            </Position>
            <AltitudeMeters>38.40000152587890625</AltitudeMeters>
            <DistanceMeters>NAN</DistanceMeters>
          </Trackpoint>
          <Trackpoint>
            <Time>2022-07-14T07:20:21.000Z</Time>
            <Position>
              <LatitudeDegrees>43.450802676379680633544921875</LatitudeDegrees>
              <LongitudeDegrees>-3.96261856891214847564697265625</LongitudeDegrees>
            </Position>
            <AltitudeMeters>38.40000152587890625</AltitudeMeters>
            <DistanceMeters>NAN</DistanceMeters>
          </Trackpoint>
          <Trackpoint>
            <Time>2022-07-14T07:20:23.000Z</Time>
            <Position>
              <LatitudeDegrees>43.45080502331256866455078125</LatitudeDegrees>
              <LongitudeDegrees>-3.96261219866573810577392578125</LongitudeDegrees>
            </Position>
            <AltitudeMeters>38.200000762939453125</AltitudeMeters>
            <DistanceMeters>NAN</DistanceMeters>
          </Trackpoint>
          <Trackpoint>
            <Time>2022-07-14T07:21:14.000Z</Time>
            <Position>
              <LatitudeDegrees>43.4506757743656635284423828125</LatitudeDegrees>
              <LongitudeDegrees>-3.96256827749311923980712890625</LongitudeDegrees>
            </Position>
            <AltitudeMeters>38.59999847412109375</AltitudeMeters>
            <DistanceMeters>NAN</DistanceMeters>
          </Trackpoint>
          <Trackpoint>
            <Time>2022-07-14T07:21:15.000Z</Time>
            <Position>
              <LatitudeDegrees>43.45066144131124019622802734375</LatitudeDegrees>
              <LongitudeDegrees>-3.96255637519061565399169921875</LongitudeDegrees>
            </Position>
            <AltitudeMeters>38.799999237060546875</AltitudeMeters>
            <DistanceMeters>NAN</DistanceMeters>
          </Trackpoint>
          <Trackpoint>
            <Time>2022-07-14T07:21:17.000Z</Time>
            <Position>
              <LatitudeDegrees>43.45063629560172557830810546875</LatitudeDegrees>
              <LongitudeDegrees>-3.96254472434520721435546875</LongitudeDegrees>
            </Position>
            <AltitudeMeters>39.200000762939453125</AltitudeMeters>
            <DistanceMeters>NAN</DistanceMeters>
          </Trackpoint>
          <Trackpoint>
            <Time>2022-07-14T07:21:19.000Z</Time>
            <Position>
              <LatitudeDegrees>43.4506073780357837677001953125</LatitudeDegrees>
              <LongitudeDegrees>-3.962533660233020782470703125</LongitudeDegrees>
            </Position>
            <AltitudeMeters>39.59999847412109375</AltitudeMeters>
            <DistanceMeters>NAN</DistanceMeters>
          </Trackpoint>
          <Trackpoint>
            <Time>2022-07-14T07:21:23.000Z</Time>
            <Position>
              <LatitudeDegrees>43.45056303776800632476806640625</LatitudeDegrees>
              <LongitudeDegrees>-3.962522260844707489013671875</LongitudeDegrees>
            </Position>
            <AltitudeMeters>40</AltitudeMeters>
            <DistanceMeters>NAN</DistanceMeters>
          </Trackpoint>
          <Trackpoint>
            <Time>2022-07-14T07:21:24.000Z</Time>
            <Position>
              <LatitudeDegrees>43.45055130310356616973876953125</LatitudeDegrees>
              <LongitudeDegrees>-3.96252435632050037384033203125</LongitudeDegrees>
            </Position>
            <AltitudeMeters>40.40000152587890625</AltitudeMeters>
            <DistanceMeters>NAN</DistanceMeters>
          </Trackpoint>
          <Trackpoint>
            <Time>2022-07-14T07:21:32.000Z</Time>
            <Position>
              <LatitudeDegrees>43.45046865753829479217529296875</LatitudeDegrees>
              <LongitudeDegrees>-3.962548077106475830078125</LongitudeDegrees>
            </Position>
            <AltitudeMeters>40.59999847412109375</AltitudeMeters>
            <DistanceMeters>NAN</DistanceMeters>
          </Trackpoint>
          <Trackpoint>
            <Time>2022-07-14T07:21:35.000Z</Time>
            <Position>
              <LatitudeDegrees>43.450428508222103118896484375</LatitudeDegrees>
              <LongitudeDegrees>-3.962552435696125030517578125</LongitudeDegrees>
            </Position>
            <AltitudeMeters>40.59999847412109375</AltitudeMeters>
            <DistanceMeters>NAN</DistanceMeters>
          </Trackpoint>
          <Trackpoint>
            <Time>2022-07-14T07:21:39.000Z</Time>
            <Position>
              <LatitudeDegrees>43.4503656439483165740966796875</LatitudeDegrees>
              <LongitudeDegrees>-3.96259166300296783447265625</LongitudeDegrees>
            </Position>
            <AltitudeMeters>41</AltitudeMeters>
            <DistanceMeters>NAN</DistanceMeters>
          </Trackpoint>
          <Trackpoint>
            <Time>2022-07-14T07:21:44.000Z</Time>
            <Position>
              <LatitudeDegrees>43.450303114950656890869140625</LatitudeDegrees>
              <LongitudeDegrees>-3.9626689441502094268798828125</LongitudeDegrees>
            </Position>
            <AltitudeMeters>41.200000762939453125</AltitudeMeters>
            <DistanceMeters>NAN</DistanceMeters>
          </Trackpoint>
          <Trackpoint>
            <Time>2022-07-14T07:21:48.000Z</Time>
            <Position>
              <LatitudeDegrees>43.45025341026484966278076171875</LatitudeDegrees>
              <LongitudeDegrees>-3.96272501908242702484130859375</LongitudeDegrees>
            </Position>
            <AltitudeMeters>41.200000762939453125</AltitudeMeters>
            <DistanceMeters>NAN</DistanceMeters>
          </Trackpoint>
          <Trackpoint>
            <Time>2022-07-14T07:21:50.000Z</Time>
            <Position>
              <LatitudeDegrees>43.45022642053663730621337890625</LatitudeDegrees>
              <LongitudeDegrees>-3.96273943595588207244873046875</LongitudeDegrees>
            </Position>
            <AltitudeMeters>41.59999847412109375</AltitudeMeters>
            <DistanceMeters>NAN</DistanceMeters>
          </Trackpoint>
          <Trackpoint>
            <Time>2022-07-14T07:21:57.000Z</Time>
            <Position>
              <LatitudeDegrees>43.4501270949840545654296875</LatitudeDegrees>
              <LongitudeDegrees>-3.96279844455420970916748046875</LongitudeDegrees>
            </Position>
            <AltitudeMeters>42</AltitudeMeters>
            <DistanceMeters>NAN</DistanceMeters>
          </Trackpoint>
          <Trackpoint>
            <Time>2022-07-14T07:21:58.000Z</Time>
            <Position>
              <LatitudeDegrees>43.4501138515770435333251953125</LatitudeDegrees>
              <LongitudeDegrees>-3.9628067426383495330810546875</LongitudeDegrees>
            </Position>
            <AltitudeMeters>42.200000762939453125</AltitudeMeters>
            <DistanceMeters>NAN</DistanceMeters>
          </Trackpoint>
          <Trackpoint>
            <Time>2022-07-14T07:22:06.000Z</Time>
            <Position>
              <LatitudeDegrees>43.449987284839153289794921875</LatitudeDegrees>
              <LongitudeDegrees>-3.96285426802933216094970703125</LongitudeDegrees>
            </Position>
            <AltitudeMeters>42.799999237060546875</AltitudeMeters>
            <DistanceMeters>NAN</DistanceMeters>
          </Trackpoint>
          <Trackpoint>
            <Time>2022-07-14T07:22:07.000Z</Time>
            <Position>
              <LatitudeDegrees>43.44997219741344451904296875</LatitudeDegrees>
              <LongitudeDegrees>-3.9628620631992816925048828125</LongitudeDegrees>
            </Position>
            <AltitudeMeters>42.799999237060546875</AltitudeMeters>
            <DistanceMeters>NAN</DistanceMeters>
          </Trackpoint>
          <Trackpoint>
            <Time>2022-07-14T07:22:18.000Z</Time>
            <Position>
              <LatitudeDegrees>43.4498047269880771636962890625</LatitudeDegrees>
              <LongitudeDegrees>-3.962935991585254669189453125</LongitudeDegrees>
            </Position>
            <AltitudeMeters>43.40000152587890625</AltitudeMeters>
            <DistanceMeters>NAN</DistanceMeters>
          </Trackpoint>
          <Trackpoint>
            <Time>2022-07-14T07:22:22.000Z</Time>
            <Position>
              <LatitudeDegrees>43.44975250773131847381591796875</LatitudeDegrees>
              <LongitudeDegrees>-3.9629757218062877655029296875</LongitudeDegrees>
            </Position>
            <AltitudeMeters>43.40000152587890625</AltitudeMeters>
            <DistanceMeters>NAN</DistanceMeters>
          </Trackpoint>
          <Trackpoint>
            <Time>2022-07-14T07:22:25.000Z</Time>
            <Position>
              <LatitudeDegrees>43.449704311788082122802734375</LatitudeDegrees>
              <LongitudeDegrees>-3.9629817567765712738037109375</LongitudeDegrees>
            </Position>
            <AltitudeMeters>43.799999237060546875</AltitudeMeters>
            <DistanceMeters>NAN</DistanceMeters>
          </Trackpoint>
          <Trackpoint>
            <Time>2022-07-14T07:22:27.000Z</Time>
            <Position>
              <LatitudeDegrees>43.44967405311763286590576171875</LatitudeDegrees>
              <LongitudeDegrees>-3.96299072541296482086181640625</LongitudeDegrees>
            </Position>
            <AltitudeMeters>43.799999237060546875</AltitudeMeters>
            <DistanceMeters>NAN</DistanceMeters>
          </Trackpoint>
          <Trackpoint>
            <Time>2022-07-14T07:22:30.000Z</Time>
            <Position>
              <LatitudeDegrees>43.44966919161379337310791015625</LatitudeDegrees>
              <LongitudeDegrees>-3.962994329631328582763671875</LongitudeDegrees>
            </Position>
            <AltitudeMeters>43.59999847412109375</AltitudeMeters>
            <DistanceMeters>NAN</DistanceMeters>
          </Trackpoint>
          <Trackpoint>
            <Time>2022-07-14T07:22:44.000Z</Time>
            <Position>
              <LatitudeDegrees>43.44965175725519657135009765625</LatitudeDegrees>
              <LongitudeDegrees>-3.96300681866705417633056640625</LongitudeDegrees>
            </Position>
            <AltitudeMeters>43.40000152587890625</AltitudeMeters>
            <DistanceMeters>NAN</DistanceMeters>
          </Trackpoint>
          <Trackpoint>
            <Time>2022-07-14T07:22:50.000Z</Time>
            <Position>
              <LatitudeDegrees>43.44955888576805591583251953125</LatitudeDegrees>
              <LongitudeDegrees>-3.963115699589252471923828125</LongitudeDegrees>
            </Position>
            <AltitudeMeters>43.59999847412109375</AltitudeMeters>
            <DistanceMeters>NAN</DistanceMeters>
          </Trackpoint>
          <Trackpoint>
            <Time>2022-07-14T07:22:51.000Z</Time>
            <Position>
              <LatitudeDegrees>43.449546396732330322265625</LatitudeDegrees>
              <LongitudeDegrees>-3.96313749253749847412109375</LongitudeDegrees>
            </Position>
            <AltitudeMeters>43.59999847412109375</AltitudeMeters>
            <DistanceMeters>NAN</DistanceMeters>
          </Trackpoint>
          <Trackpoint>
            <Time>2022-07-14T07:23:04.000Z</Time>
            <Position>
              <LatitudeDegrees>43.4494084306061267852783203125</LatitudeDegrees>
              <LongitudeDegrees>-3.963350392878055572509765625</LongitudeDegrees>
            </Position>
            <AltitudeMeters>43.59999847412109375</AltitudeMeters>
            <DistanceMeters>NAN</DistanceMeters>
          </Trackpoint>
          <Trackpoint>
            <Time>2022-07-14T07:23:11.000Z</Time>
            <Position>
              <LatitudeDegrees>43.449338860809803009033203125</LatitudeDegrees>
              <LongitudeDegrees>-3.96346732042729854583740234375</LongitudeDegrees>
            </Position>
            <AltitudeMeters>43.799999237060546875</AltitudeMeters>
            <DistanceMeters>NAN</DistanceMeters>
          </Trackpoint>
          <Trackpoint>
            <Time>2022-07-14T07:23:12.000Z</Time>
            <Position>
              <LatitudeDegrees>43.4493266232311725616455078125</LatitudeDegrees>
              <LongitudeDegrees>-3.9634826593101024627685546875</LongitudeDegrees>
            </Position>
            <AltitudeMeters>43.799999237060546875</AltitudeMeters>
            <DistanceMeters>NAN</DistanceMeters>
          </Trackpoint>
          <Trackpoint>
            <Time>2022-07-14T07:23:21.000Z</Time>
            <Position>
              <LatitudeDegrees>43.44924104399979114532470703125</LatitudeDegrees>
              <LongitudeDegrees>-3.96364132873713970184326171875</LongitudeDegrees>
            </Position>
            <AltitudeMeters>44</AltitudeMeters>
            <DistanceMeters>NAN</DistanceMeters>
          </Trackpoint>
          <Trackpoint>
            <Time>2022-07-14T07:23:29.000Z</Time>
            <Position>
              <LatitudeDegrees>43.4491633437573909759521484375</LatitudeDegrees>
              <LongitudeDegrees>-3.9637644588947296142578125</LongitudeDegrees>
            </Position>
            <AltitudeMeters>43.799999237060546875</AltitudeMeters>
            <DistanceMeters>NAN</DistanceMeters>
          </Trackpoint>
          <Trackpoint>
            <Time>2022-07-14T07:23:32.000Z</Time>
            <Position>
              <LatitudeDegrees>43.4491314925253391265869140625</LatitudeDegrees>
              <LongitudeDegrees>-3.9638088829815387725830078125</LongitudeDegrees>
            </Position>
            <AltitudeMeters>43.799999237060546875</AltitudeMeters>
            <DistanceMeters>NAN</DistanceMeters>
          </Trackpoint>
          <Trackpoint>
            <Time>2022-07-14T07:23:36.000Z</Time>
            <Position>
              <LatitudeDegrees>43.44912872649729251861572265625</LatitudeDegrees>
              <LongitudeDegrees>-3.963889516890048980712890625</LongitudeDegrees>
            </Position>
            <AltitudeMeters>43.799999237060546875</AltitudeMeters>
            <DistanceMeters>NAN</DistanceMeters>
          </Trackpoint>
          <Trackpoint>
            <Time>2022-07-14T07:23:43.000Z</Time>
            <Position>
              <LatitudeDegrees>43.449207432568073272705078125</LatitudeDegrees>
              <LongitudeDegrees>-3.96400745026767253875732421875</LongitudeDegrees>
            </Position>
            <AltitudeMeters>43.40000152587890625</AltitudeMeters>
            <DistanceMeters>NAN</DistanceMeters>
          </Trackpoint>
          <Trackpoint>
            <Time>2022-07-14T07:23:49.000Z</Time>
            <Position>
              <LatitudeDegrees>43.449221514165401458740234375</LatitudeDegrees>
              <LongitudeDegrees>-3.96414340473711490631103515625</LongitudeDegrees>
            </Position>
            <AltitudeMeters>43</AltitudeMeters>
            <DistanceMeters>NAN</DistanceMeters>
          </Trackpoint>
          <Trackpoint>
            <Time>2022-07-14T07:23:52.000Z</Time>
            <Position>
              <LatitudeDegrees>43.4492330811917781829833984375</LatitudeDegrees>
              <LongitudeDegrees>-3.9641847275197505950927734375</LongitudeDegrees>
            </Position>
            <AltitudeMeters>42.799999237060546875</AltitudeMeters>
            <DistanceMeters>NAN</DistanceMeters>
          </Trackpoint>
          <Trackpoint>
            <Time>2022-07-14T07:23:56.000Z</Time>
            <Position>
              <LatitudeDegrees>43.4492419660091400146484375</LatitudeDegrees>
              <LongitudeDegrees>-3.96421196870505809783935546875</LongitudeDegrees>
            </Position>
            <AltitudeMeters>42.40000152587890625</AltitudeMeters>
            <DistanceMeters>NAN</DistanceMeters>
          </Trackpoint>
          <Trackpoint>
            <Time>2022-07-14T07:23:57.000Z</Time>
            <Position>
              <LatitudeDegrees>43.4492419660091400146484375</LatitudeDegrees>
              <LongitudeDegrees>-3.96421196870505809783935546875</LongitudeDegrees>
            </Position>
            <AltitudeMeters>42.40000152587890625</AltitudeMeters>
            <DistanceMeters>NAN</DistanceMeters>
          </Trackpoint>
          <Trackpoint>
            <Time>2022-07-14T07:25:04.000Z</Time>
            <Position>
              <LatitudeDegrees>43.4492800198495388031005859375</LatitudeDegrees>
              <LongitudeDegrees>-3.96421431563794612884521484375</LongitudeDegrees>
            </Position>
            <AltitudeMeters>42.799999237060546875</AltitudeMeters>
            <DistanceMeters>NAN</DistanceMeters>
          </Trackpoint>
          <Trackpoint>
            <Time>2022-07-14T07:25:05.000Z</Time>
            <Position>
              <LatitudeDegrees>43.449299968779087066650390625</LatitudeDegrees>
              <LongitudeDegrees>-3.96420526318252086639404296875</LongitudeDegrees>
            </Position>
            <AltitudeMeters>42.799999237060546875</AltitudeMeters>
            <DistanceMeters>NAN</DistanceMeters>
          </Trackpoint>
          <Trackpoint>
            <Time>2022-07-14T07:25:06.000Z</Time>
            <Position>
              <LatitudeDegrees>43.44931916333734989166259765625</LatitudeDegrees>
              <LongitudeDegrees>-3.9641890861093997955322265625</LongitudeDegrees>
            </Position>
            <AltitudeMeters>42.799999237060546875</AltitudeMeters>
            <DistanceMeters>NAN</DistanceMeters>
          </Trackpoint>
          <Trackpoint>
            <Time>2022-07-14T07:25:09.000Z</Time>
            <Position>
              <LatitudeDegrees>43.44934858381748199462890625</LatitudeDegrees>
              <LongitudeDegrees>-3.9641092903912067413330078125</LongitudeDegrees>
            </Position>
            <AltitudeMeters>42.59999847412109375</AltitudeMeters>
            <DistanceMeters>NAN</DistanceMeters>
          </Trackpoint>
          <Trackpoint>
            <Time>2022-07-14T07:25:10.000Z</Time>
            <Position>
              <LatitudeDegrees>43.4493413753807544708251953125</LatitudeDegrees>
              <LongitudeDegrees>-3.96408339031040668487548828125</LongitudeDegrees>
            </Position>
            <AltitudeMeters>42.59999847412109375</AltitudeMeters>
            <DistanceMeters>NAN</DistanceMeters>
          </Trackpoint>
          <Trackpoint>
            <Time>2022-07-14T07:25:17.000Z</Time>
            <Position>
              <LatitudeDegrees>43.44921723939478397369384765625</LatitudeDegrees>
              <LongitudeDegrees>-3.9639530517160892486572265625</LongitudeDegrees>
            </Position>
            <AltitudeMeters>43.200000762939453125</AltitudeMeters>
            <DistanceMeters>NAN</DistanceMeters>
          </Trackpoint>
          <Trackpoint>
            <Time>2022-07-14T07:25:22.000Z</Time>
            <Position>
              <LatitudeDegrees>43.4491308219730854034423828125</LatitudeDegrees>
              <LongitudeDegrees>-3.96390259265899658203125</LongitudeDegrees>
            </Position>
            <AltitudeMeters>43.40000152587890625</AltitudeMeters>
            <DistanceMeters>NAN</DistanceMeters>
          </Trackpoint>
          <Trackpoint>
            <Time>2022-07-14T07:25:24.000Z</Time>
            <Position>
              <LatitudeDegrees>43.44910710118710994720458984375</LatitudeDegrees>
              <LongitudeDegrees>-3.96385766565799713134765625</LongitudeDegrees>
            </Position>
            <AltitudeMeters>43.59999847412109375</AltitudeMeters>
            <DistanceMeters>NAN</DistanceMeters>
          </Trackpoint>
          <Trackpoint>
            <Time>2022-07-14T07:25:28.000Z</Time>
            <Position>
              <LatitudeDegrees>43.44908170402050018310546875</LatitudeDegrees>
              <LongitudeDegrees>-3.96372355520725250244140625</LongitudeDegrees>
            </Position>
            <AltitudeMeters>43.799999237060546875</AltitudeMeters>
            <DistanceMeters>NAN</DistanceMeters>
          </Trackpoint>
          <Trackpoint>
            <Time>2022-07-14T07:25:32.000Z</Time>
            <Position>
              <LatitudeDegrees>43.449057899415493011474609375</LatitudeDegrees>
              <LongitudeDegrees>-3.96357645280659198760986328125</LongitudeDegrees>
            </Position>
            <AltitudeMeters>43.799999237060546875</AltitudeMeters>
            <DistanceMeters>NAN</DistanceMeters>
          </Trackpoint>
          <Trackpoint>
            <Time>2022-07-14T07:25:35.000Z</Time>
            <Position>
              <LatitudeDegrees>43.44904490746557712554931640625</LatitudeDegrees>
              <LongitudeDegrees>-3.9634720981121063232421875</LongitudeDegrees>
            </Position>
            <AltitudeMeters>43.59999847412109375</AltitudeMeters>
            <DistanceMeters>NAN</DistanceMeters>
          </Trackpoint>
          <Trackpoint>
            <Time>2022-07-14T07:25:41.000Z</Time>
            <Position>
              <LatitudeDegrees>43.44902529381215572357177734375</LatitudeDegrees>
              <LongitudeDegrees>-3.9632620476186275482177734375</LongitudeDegrees>
            </Position>
            <AltitudeMeters>43.59999847412109375</AltitudeMeters>
            <DistanceMeters>NAN</DistanceMeters>
          </Trackpoint>
          <Trackpoint>
            <Time>2022-07-14T07:25:44.000Z</Time>
            <Position>
              <LatitudeDegrees>43.449029736220836639404296875</LatitudeDegrees>
              <LongitudeDegrees>-3.96316724829375743865966796875</LongitudeDegrees>
            </Position>
            <AltitudeMeters>43.799999237060546875</AltitudeMeters>
            <DistanceMeters>NAN</DistanceMeters>
          </Trackpoint>
          <Trackpoint>
            <Time>2022-07-14T07:25:47.000Z</Time>
            <Position>
              <LatitudeDegrees>43.449045829474925994873046875</LatitudeDegrees>
              <LongitudeDegrees>-3.96306884475052356719970703125</LongitudeDegrees>
            </Position>
            <AltitudeMeters>44</AltitudeMeters>
            <DistanceMeters>NAN</DistanceMeters>
          </Trackpoint>
          <Trackpoint>
            <Time>2022-07-14T07:25:54.000Z</Time>
            <Position>
              <LatitudeDegrees>43.44907122664153575897216796875</LatitudeDegrees>
              <LongitudeDegrees>-3.9628375880420207977294921875</LongitudeDegrees>
            </Position>
            <AltitudeMeters>44</AltitudeMeters>
            <DistanceMeters>NAN</DistanceMeters>
          </Trackpoint>
          <Trackpoint>
            <Time>2022-07-14T07:26:00.000Z</Time>
            <Position>
              <LatitudeDegrees>43.44904440455138683319091796875</LatitudeDegrees>
              <LongitudeDegrees>-3.9626907370984554290771484375</LongitudeDegrees>
            </Position>
            <AltitudeMeters>44.40000152587890625</AltitudeMeters>
            <DistanceMeters>NAN</DistanceMeters>
          </Trackpoint>
          <Trackpoint>
            <Time>2022-07-14T07:26:06.000Z</Time>
            <Position>
              <LatitudeDegrees>43.4490101225674152374267578125</LatitudeDegrees>
              <LongitudeDegrees>-3.9626139588654041290283203125</LongitudeDegrees>
            </Position>
            <AltitudeMeters>44.200000762939453125</AltitudeMeters>
            <DistanceMeters>NAN</DistanceMeters>
          </Trackpoint>
          <Trackpoint>
            <Time>2022-07-14T07:26:07.000Z</Time>
            <Position>
              <LatitudeDegrees>43.4490101225674152374267578125</LatitudeDegrees>
              <LongitudeDegrees>-3.9626139588654041290283203125</LongitudeDegrees>
            </Position>
            <AltitudeMeters>44.200000762939453125</AltitudeMeters>
            <DistanceMeters>NAN</DistanceMeters>
          </Trackpoint>
          <Trackpoint>
            <Time>2022-07-14T07:35:10.000Z</Time>
            <Position>
              <LatitudeDegrees>43.44900920055806636810302734375</LatitudeDegrees>
              <LongitudeDegrees>-3.96258520893752574920654296875</LongitudeDegrees>
            </Position>
            <AltitudeMeters>44.59999847412109375</AltitudeMeters>
            <DistanceMeters>NAN</DistanceMeters>
          </Trackpoint>
          <Trackpoint>
            <Time>2022-07-14T07:35:11.000Z</Time>
            <Position>
              <LatitudeDegrees>43.4489844739437103271484375</LatitudeDegrees>
              <LongitudeDegrees>-3.9625680260360240936279296875</LongitudeDegrees>
            </Position>
            <AltitudeMeters>44.59999847412109375</AltitudeMeters>
            <DistanceMeters>NAN</DistanceMeters>
          </Trackpoint>
          <Trackpoint>
            <Time>2022-07-14T07:35:12.000Z</Time>
            <Position>
              <LatitudeDegrees>43.44896360300481319427490234375</LatitudeDegrees>
              <LongitudeDegrees>-3.9625412039458751678466796875</LongitudeDegrees>
            </Position>
            <AltitudeMeters>44.59999847412109375</AltitudeMeters>
            <DistanceMeters>NAN</DistanceMeters>
          </Trackpoint>
          <Trackpoint>
            <Time>2022-07-14T07:35:15.000Z</Time>
            <Position>
              <LatitudeDegrees>43.44892487861216068267822265625</LatitudeDegrees>
              <LongitudeDegrees>-3.96243383176624774932861328125</LongitudeDegrees>
            </Position>
            <AltitudeMeters>44.799999237060546875</AltitudeMeters>
            <DistanceMeters>NAN</DistanceMeters>
          </Trackpoint>
          <Trackpoint>
            <Time>2022-07-14T07:35:17.000Z</Time>
            <Position>
              <LatitudeDegrees>43.44890694133937358856201171875</LatitudeDegrees>
              <LongitudeDegrees>-3.9623531140387058258056640625</LongitudeDegrees>
            </Position>
            <AltitudeMeters>44.799999237060546875</AltitudeMeters>
            <DistanceMeters>NAN</DistanceMeters>
          </Trackpoint>
          <Trackpoint>
            <Time>2022-07-14T07:35:23.000Z</Time>
            <Position>
              <LatitudeDegrees>43.44887810759246349334716796875</LatitudeDegrees>
              <LongitudeDegrees>-3.96214096806943416595458984375</LongitudeDegrees>
            </Position>
            <AltitudeMeters>45.200000762939453125</AltitudeMeters>
            <DistanceMeters>NAN</DistanceMeters>
          </Trackpoint>
          <Trackpoint>
            <Time>2022-07-14T07:35:29.000Z</Time>
            <Position>
              <LatitudeDegrees>43.448852710425853729248046875</LatitudeDegrees>
              <LongitudeDegrees>-3.9619494415819644927978515625</LongitudeDegrees>
            </Position>
            <AltitudeMeters>45.40000152587890625</AltitudeMeters>
            <DistanceMeters>NAN</DistanceMeters>
          </Trackpoint>
          <Trackpoint>
            <Time>2022-07-14T07:35:33.000Z</Time>
            <Position>
              <LatitudeDegrees>43.44882245175540447235107421875</LatitudeDegrees>
              <LongitudeDegrees>-3.96181910298764705657958984375</LongitudeDegrees>
            </Position>
            <AltitudeMeters>45.799999237060546875</AltitudeMeters>
            <DistanceMeters>NAN</DistanceMeters>
          </Trackpoint>
          <Trackpoint>
            <Time>2022-07-14T07:35:38.000Z</Time>
            <Position>
              <LatitudeDegrees>43.44879428856074810028076171875</LatitudeDegrees>
              <LongitudeDegrees>-3.9616589248180389404296875</LongitudeDegrees>
            </Position>
            <AltitudeMeters>46.40000152587890625</AltitudeMeters>
            <DistanceMeters>NAN</DistanceMeters>
          </Trackpoint>
          <Trackpoint>
            <Time>2022-07-14T07:35:43.000Z</Time>
            <Position>
              <LatitudeDegrees>43.44876679591834545135498046875</LatitudeDegrees>
              <LongitudeDegrees>-3.961501680314540863037109375</LongitudeDegrees>
            </Position>
            <AltitudeMeters>46.59999847412109375</AltitudeMeters>
            <DistanceMeters>NAN</DistanceMeters>
          </Trackpoint>
          <Trackpoint>
            <Time>2022-07-14T07:35:48.000Z</Time>
            <Position>
              <LatitudeDegrees>43.44875791110098361968994140625</LatitudeDegrees>
              <LongitudeDegrees>-3.96134468726813793182373046875</LongitudeDegrees>
            </Position>
            <AltitudeMeters>47</AltitudeMeters>
            <DistanceMeters>NAN</DistanceMeters>
          </Trackpoint>
          <Trackpoint>
            <Time>2022-07-14T07:35:49.000Z</Time>
            <Position>
              <LatitudeDegrees>43.44875321723520755767822265625</LatitudeDegrees>
              <LongitudeDegrees>-3.961312584578990936279296875</LongitudeDegrees>
            </Position>
            <AltitudeMeters>47</AltitudeMeters>
            <DistanceMeters>NAN</DistanceMeters>
          </Trackpoint>
          <Trackpoint>
            <Time>2022-07-14T07:35:52.000Z</Time>
            <Position>
              <LatitudeDegrees>43.44873377121984958648681640625</LatitudeDegrees>
              <LongitudeDegrees>-3.96122197620570659637451171875</LongitudeDegrees>
            </Position>
            <AltitudeMeters>47.200000762939453125</AltitudeMeters>
            <DistanceMeters>NAN</DistanceMeters>
          </Trackpoint>
          <Trackpoint>
            <Time>2022-07-14T07:35:58.000Z</Time>
            <Position>
              <LatitudeDegrees>43.44871222972869873046875</LatitudeDegrees>
              <LongitudeDegrees>-3.96107864566147327423095703125</LongitudeDegrees>
            </Position>
            <AltitudeMeters>47.40000152587890625</AltitudeMeters>
            <DistanceMeters>NAN</DistanceMeters>
          </Trackpoint>
          <Trackpoint>
            <Time>2022-07-14T07:36:00.000Z</Time>
            <Position>
              <LatitudeDegrees>43.4487144090235233306884765625</LatitudeDegrees>
              <LongitudeDegrees>-3.96107889711856842041015625</LongitudeDegrees>
            </Position>
            <AltitudeMeters>47.59999847412109375</AltitudeMeters>
            <DistanceMeters>NAN</DistanceMeters>
          </Trackpoint>
          <Trackpoint>
            <Time>2022-07-14T07:36:01.000Z</Time>
            <Position>
              <LatitudeDegrees>43.44871767796576023101806640625</LatitudeDegrees>
              <LongitudeDegrees>-3.9610726945102214813232421875</LongitudeDegrees>
            </Position>
            <AltitudeMeters>47.40000152587890625</AltitudeMeters>
            <DistanceMeters>NAN</DistanceMeters>
          </Trackpoint>
          <Trackpoint>
            <Time>2022-07-14T07:36:02.000Z</Time>
            <Position>
              <LatitudeDegrees>43.448721952736377716064453125</LatitudeDegrees>
              <LongitudeDegrees>-3.96106791682541370391845703125</LongitudeDegrees>
            </Position>
            <AltitudeMeters>47.40000152587890625</AltitudeMeters>
            <DistanceMeters>NAN</DistanceMeters>
          </Trackpoint>
          <Trackpoint>
            <Time>2022-07-14T07:36:03.000Z</Time>
            <Position>
              <LatitudeDegrees>43.448721952736377716064453125</LatitudeDegrees>
              <LongitudeDegrees>-3.96106791682541370391845703125</LongitudeDegrees>
            </Position>
            <AltitudeMeters>47.40000152587890625</AltitudeMeters>
            <DistanceMeters>NAN</DistanceMeters>
          </Trackpoint>
          <Trackpoint>
            <Time>2022-07-14T07:36:10.000Z</Time>
            <Position>
              <LatitudeDegrees>43.44870225526392459869384765625</LatitudeDegrees>
              <LongitudeDegrees>-3.96101318299770355224609375</LongitudeDegrees>
            </Position>
            <AltitudeMeters>47.59999847412109375</AltitudeMeters>
            <DistanceMeters>NAN</DistanceMeters>
          </Trackpoint>
          <Trackpoint>
            <Time>2022-07-14T07:36:12.000Z</Time>
            <Position>
              <LatitudeDegrees>43.4486902691423892974853515625</LatitudeDegrees>
              <LongitudeDegrees>-3.96097403950989246368408203125</LongitudeDegrees>
            </Position>
            <AltitudeMeters>47.59999847412109375</AltitudeMeters>
            <DistanceMeters>NAN</DistanceMeters>
          </Trackpoint>
          <Trackpoint>
            <Time>2022-07-14T07:36:17.000Z</Time>
            <Position>
              <LatitudeDegrees>43.44865531660616397857666015625</LatitudeDegrees>
              <LongitudeDegrees>-3.9608225785195827484130859375</LongitudeDegrees>
            </Position>
            <AltitudeMeters>47.799999237060546875</AltitudeMeters>
            <DistanceMeters>NAN</DistanceMeters>
          </Trackpoint>
          <Trackpoint>
            <Time>2022-07-14T07:36:23.000Z</Time>
            <Position>
              <LatitudeDegrees>43.44862530939280986785888671875</LatitudeDegrees>
              <LongitudeDegrees>-3.96062719635665416717529296875</LongitudeDegrees>
            </Position>
            <AltitudeMeters>47.59999847412109375</AltitudeMeters>
            <DistanceMeters>NAN</DistanceMeters>
          </Trackpoint>
          <Trackpoint>
            <Time>2022-07-14T07:36:26.000Z</Time>
            <Position>
              <LatitudeDegrees>43.44862799160182476043701171875</LatitudeDegrees>
              <LongitudeDegrees>-3.96048403345048427581787109375</LongitudeDegrees>
            </Position>
            <AltitudeMeters>47.40000152587890625</AltitudeMeters>
            <DistanceMeters>NAN</DistanceMeters>
          </Trackpoint>
          <Trackpoint>
            <Time>2022-07-14T07:36:27.000Z</Time>
            <Position>
              <LatitudeDegrees>43.44863654114305973052978515625</LatitudeDegrees>
              <LongitudeDegrees>-3.96042988635599613189697265625</LongitudeDegrees>
            </Position>
            <AltitudeMeters>47.200000762939453125</AltitudeMeters>
            <DistanceMeters>NAN</DistanceMeters>
          </Trackpoint>
          <Trackpoint>
            <Time>2022-07-14T07:36:31.000Z</Time>
            <Position>
              <LatitudeDegrees>43.44857166521251201629638671875</LatitudeDegrees>
              <LongitudeDegrees>-3.96020181477069854736328125</LongitudeDegrees>
            </Position>
            <AltitudeMeters>46.799999237060546875</AltitudeMeters>
            <DistanceMeters>NAN</DistanceMeters>
          </Trackpoint>
          <Trackpoint>
            <Time>2022-07-14T07:36:34.000Z</Time>
            <Position>
              <LatitudeDegrees>43.448550961911678314208984375</LatitudeDegrees>
              <LongitudeDegrees>-3.96002344787120819091796875</LongitudeDegrees>
            </Position>
            <AltitudeMeters>46.200000762939453125</AltitudeMeters>
            <DistanceMeters>NAN</DistanceMeters>
          </Trackpoint>
          <Trackpoint>
            <Time>2022-07-14T07:36:35.000Z</Time>
            <Position>
              <LatitudeDegrees>43.44854333437979221343994140625</LatitudeDegrees>
              <LongitudeDegrees>-3.9599585719406604766845703125</LongitudeDegrees>
            </Position>
            <AltitudeMeters>46</AltitudeMeters>
            <DistanceMeters>NAN</DistanceMeters>
          </Trackpoint>
          <Trackpoint>
            <Time>2022-07-14T07:36:36.000Z</Time>
            <Position>
              <LatitudeDegrees>43.4485392272472381591796875</LatitudeDegrees>
              <LongitudeDegrees>-3.959893025457859039306640625</LongitudeDegrees>
            </Position>
            <AltitudeMeters>45.799999237060546875</AltitudeMeters>
            <DistanceMeters>NAN</DistanceMeters>
          </Trackpoint>
          <Trackpoint>
            <Time>2022-07-14T07:36:37.000Z</Time>
            <Position>
              <LatitudeDegrees>43.44852916896343231201171875</LatitudeDegrees>
              <LongitudeDegrees>-3.95982387475669384002685546875</LongitudeDegrees>
            </Position>
            <AltitudeMeters>45.799999237060546875</AltitudeMeters>
            <DistanceMeters>NAN</DistanceMeters>
          </Trackpoint>
          <Trackpoint>
            <Time>2022-07-14T07:36:40.000Z</Time>
            <Position>
              <LatitudeDegrees>43.44847460277378559112548828125</LatitudeDegrees>
              <LongitudeDegrees>-3.9596150815486907958984375</LongitudeDegrees>
            </Position>
            <AltitudeMeters>45.200000762939453125</AltitudeMeters>
            <DistanceMeters>NAN</DistanceMeters>
          </Trackpoint>
          <Trackpoint>
            <Time>2022-07-14T07:36:45.000Z</Time>
            <Position>
              <LatitudeDegrees>43.448439650237560272216796875</LatitudeDegrees>
              <LongitudeDegrees>-3.95944836549460887908935546875</LongitudeDegrees>
            </Position>
            <AltitudeMeters>46</AltitudeMeters>
            <DistanceMeters>NAN</DistanceMeters>
          </Trackpoint>
          <Trackpoint>
            <Time>2022-07-14T07:36:50.000Z</Time>
            <Position>
              <LatitudeDegrees>43.448443002998828887939453125</LatitudeDegrees>
              <LongitudeDegrees>-3.95922507159411907196044921875</LongitudeDegrees>
            </Position>
            <AltitudeMeters>47</AltitudeMeters>
            <DistanceMeters>NAN</DistanceMeters>
          </Trackpoint>
          <Trackpoint>
            <Time>2022-07-14T07:36:51.000Z</Time>
            <Position>
              <LatitudeDegrees>43.4484337829053401947021484375</LatitudeDegrees>
              <LongitudeDegrees>-3.95920210517942905426025390625</LongitudeDegrees>
            </Position>
            <AltitudeMeters>47.200000762939453125</AltitudeMeters>
            <DistanceMeters>NAN</DistanceMeters>
          </Trackpoint>
          <Trackpoint>
            <Time>2022-07-14T07:36:55.000Z</Time>
            <Position>
              <LatitudeDegrees>43.448440991342067718505859375</LatitudeDegrees>
              <LongitudeDegrees>-3.95906179212033748626708984375</LongitudeDegrees>
            </Position>
            <AltitudeMeters>47.799999237060546875</AltitudeMeters>
            <DistanceMeters>NAN</DistanceMeters>
          </Trackpoint>
          <Trackpoint>
            <Time>2022-07-14T07:36:56.000Z</Time>
            <Position>
              <LatitudeDegrees>43.448453061282634735107421875</LatitudeDegrees>
              <LongitudeDegrees>-3.95904066972434520721435546875</LongitudeDegrees>
            </Position>
            <AltitudeMeters>48</AltitudeMeters>
            <DistanceMeters>NAN</DistanceMeters>
          </Trackpoint>
          <Trackpoint>
            <Time>2022-07-14T07:36:57.000Z</Time>
            <Position>
              <LatitudeDegrees>43.44846077263355255126953125</LatitudeDegrees>
              <LongitudeDegrees>-3.95902524702250957489013671875</LongitudeDegrees>
            </Position>
            <AltitudeMeters>48.40000152587890625</AltitudeMeters>
            <DistanceMeters>NAN</DistanceMeters>
          </Trackpoint>
          <Trackpoint>
            <Time>2022-07-14T07:36:59.000Z</Time>
            <Position>
              <LatitudeDegrees>43.448462784290313720703125</LatitudeDegrees>
              <LongitudeDegrees>-3.95899272523820400238037109375</LongitudeDegrees>
            </Position>
            <AltitudeMeters>48.59999847412109375</AltitudeMeters>
            <DistanceMeters>NAN</DistanceMeters>
          </Trackpoint>
          <Trackpoint>
            <Time>2022-07-14T07:37:00.000Z</Time>
            <Position>
              <LatitudeDegrees>43.44846437685191631317138671875</LatitudeDegrees>
              <LongitudeDegrees>-3.958991132676601409912109375</LongitudeDegrees>
            </Position>
            <AltitudeMeters>48.59999847412109375</AltitudeMeters>
            <DistanceMeters>NAN</DistanceMeters>
          </Trackpoint>
          <Trackpoint>
            <Time>2022-07-14T07:37:01.000Z</Time>
            <Position>
              <LatitudeDegrees>43.448463119566440582275390625</LatitudeDegrees>
              <LongitudeDegrees>-3.95898032002151012420654296875</LongitudeDegrees>
            </Position>
            <AltitudeMeters>48.799999237060546875</AltitudeMeters>
            <DistanceMeters>NAN</DistanceMeters>
          </Trackpoint>
          <Trackpoint>
            <Time>2022-07-14T07:37:04.000Z</Time>
            <Position>
              <LatitudeDegrees>43.44844610430300235748291015625</LatitudeDegrees>
              <LongitudeDegrees>-3.958910666406154632568359375</LongitudeDegrees>
            </Position>
            <AltitudeMeters>49.40000152587890625</AltitudeMeters>
            <DistanceMeters>NAN</DistanceMeters>
          </Trackpoint>
          <Trackpoint>
            <Time>2022-07-14T07:37:07.000Z</Time>
            <Position>
              <LatitudeDegrees>43.44843755476176738739013671875</LatitudeDegrees>
              <LongitudeDegrees>-3.95885526202619075775146484375</LongitudeDegrees>
            </Position>
            <AltitudeMeters>50</AltitudeMeters>
            <DistanceMeters>NAN</DistanceMeters>
          </Trackpoint>
          <Trackpoint>
            <Time>2022-07-14T07:37:09.000Z</Time>
            <Position>
              <LatitudeDegrees>43.4484277479350566864013671875</LatitudeDegrees>
              <LongitudeDegrees>-3.95881720818579196929931640625</LongitudeDegrees>
            </Position>
            <AltitudeMeters>50.200000762939453125</AltitudeMeters>
            <DistanceMeters>NAN</DistanceMeters>
          </Trackpoint>
          <Trackpoint>
            <Time>2022-07-14T07:37:11.000Z</Time>
            <Position>
              <LatitudeDegrees>43.448420204222202301025390625</LatitudeDegrees>
              <LongitudeDegrees>-3.9587648212909698486328125</LongitudeDegrees>
            </Position>
            <AltitudeMeters>50.40000152587890625</AltitudeMeters>
            <DistanceMeters>NAN</DistanceMeters>
          </Trackpoint>
          <Trackpoint>
            <Time>2022-07-14T07:37:14.000Z</Time>
            <Position>
              <LatitudeDegrees>43.4483704157173633575439453125</LatitudeDegrees>
              <LongitudeDegrees>-3.95870472304522991180419921875</LongitudeDegrees>
            </Position>
            <AltitudeMeters>50.799999237060546875</AltitudeMeters>
            <DistanceMeters>NAN</DistanceMeters>
          </Trackpoint>
          <Trackpoint>
            <Time>2022-07-14T07:37:20.000Z</Time>
            <Position>
              <LatitudeDegrees>43.44831149093806743621826171875</LatitudeDegrees>
              <LongitudeDegrees>-3.95860196091234683990478515625</LongitudeDegrees>
            </Position>
            <AltitudeMeters>51.40000152587890625</AltitudeMeters>
            <DistanceMeters>NAN</DistanceMeters>
          </Trackpoint>
          <Trackpoint>
            <Time>2022-07-14T07:37:21.000Z</Time>
            <Position>
              <LatitudeDegrees>43.44831191003322601318359375</LatitudeDegrees>
              <LongitudeDegrees>-3.9585675112903118133544921875</LongitudeDegrees>
            </Position>
            <AltitudeMeters>51.40000152587890625</AltitudeMeters>
            <DistanceMeters>NAN</DistanceMeters>
          </Trackpoint>
          <Trackpoint>
            <Time>2022-07-14T07:37:28.000Z</Time>
            <Position>
              <LatitudeDegrees>43.44829908572137355804443359375</LatitudeDegrees>
              <LongitudeDegrees>-3.95840867422521114349365234375</LongitudeDegrees>
            </Position>
            <AltitudeMeters>51.799999237060546875</AltitudeMeters>
            <DistanceMeters>NAN</DistanceMeters>
          </Trackpoint>
          <Trackpoint>
            <Time>2022-07-14T07:37:32.000Z</Time>
            <Position>
              <LatitudeDegrees>43.44830864109098911285400390625</LatitudeDegrees>
              <LongitudeDegrees>-3.9582634158432483673095703125</LongitudeDegrees>
            </Position>
            <AltitudeMeters>51.799999237060546875</AltitudeMeters>
            <DistanceMeters>NAN</DistanceMeters>
          </Trackpoint>
          <Trackpoint>
            <Time>2022-07-14T07:37:35.000Z</Time>
            <Position>
              <LatitudeDegrees>43.44831048510968685150146484375</LatitudeDegrees>
              <LongitudeDegrees>-3.95821890793740749359130859375</LongitudeDegrees>
            </Position>
            <AltitudeMeters>52.200000762939453125</AltitudeMeters>
            <DistanceMeters>NAN</DistanceMeters>
          </Trackpoint>
          <Trackpoint>
            <Time>2022-07-14T07:37:37.000Z</Time>
            <Position>
              <LatitudeDegrees>43.44829573296010494232177734375</LatitudeDegrees>
              <LongitudeDegrees>-3.95819661207497119903564453125</LongitudeDegrees>
            </Position>
            <AltitudeMeters>52.59999847412109375</AltitudeMeters>
            <DistanceMeters>NAN</DistanceMeters>
          </Trackpoint>
          <Trackpoint>
            <Time>2022-07-14T07:37:39.000Z</Time>
            <Position>
              <LatitudeDegrees>43.44827972352504730224609375</LatitudeDegrees>
              <LongitudeDegrees>-3.9581484161317348480224609375</LongitudeDegrees>
            </Position>
            <AltitudeMeters>52.59999847412109375</AltitudeMeters>
            <DistanceMeters>NAN</DistanceMeters>
          </Trackpoint>
          <Trackpoint>
            <Time>2022-07-14T07:37:45.000Z</Time>
            <Position>
              <LatitudeDegrees>43.44825248233973979949951171875</LatitudeDegrees>
              <LongitudeDegrees>-3.95803953520953655242919921875</LongitudeDegrees>
            </Position>
            <AltitudeMeters>52.799999237060546875</AltitudeMeters>
            <DistanceMeters>NAN</DistanceMeters>
          </Trackpoint>
          <Trackpoint>
            <Time>2022-07-14T07:37:50.000Z</Time>
            <Position>
              <LatitudeDegrees>43.44824627973139286041259765625</LatitudeDegrees>
              <LongitudeDegrees>-3.95792202092707157135009765625</LongitudeDegrees>
            </Position>
            <AltitudeMeters>53.200000762939453125</AltitudeMeters>
            <DistanceMeters>NAN</DistanceMeters>
          </Trackpoint>
          <Trackpoint>
            <Time>2022-07-14T07:37:53.000Z</Time>
            <Position>
              <LatitudeDegrees>43.448239155113697052001953125</LatitudeDegrees>
              <LongitudeDegrees>-3.95789335481822490692138671875</LongitudeDegrees>
            </Position>
            <AltitudeMeters>53.200000762939453125</AltitudeMeters>
            <DistanceMeters>NAN</DistanceMeters>
          </Trackpoint>
          <Trackpoint>
            <Time>2022-07-14T07:37:55.000Z</Time>
            <Position>
              <LatitudeDegrees>43.4482366405427455902099609375</LatitudeDegrees>
              <LongitudeDegrees>-3.9578701369464397430419921875</LongitudeDegrees>
            </Position>
            <AltitudeMeters>53.40000152587890625</AltitudeMeters>
            <DistanceMeters>NAN</DistanceMeters>
          </Trackpoint>
          <Trackpoint>
            <Time>2022-07-14T07:37:57.000Z</Time>
            <Position>
              <LatitudeDegrees>43.4482463635504245758056640625</LatitudeDegrees>
              <LongitudeDegrees>-3.95782269537448883056640625</LongitudeDegrees>
            </Position>
            <AltitudeMeters>53.59999847412109375</AltitudeMeters>
            <DistanceMeters>NAN</DistanceMeters>
          </Trackpoint>
          <Trackpoint>
            <Time>2022-07-14T07:37:59.000Z</Time>
            <Position>
              <LatitudeDegrees>43.448262624442577362060546875</LatitudeDegrees>
              <LongitudeDegrees>-3.957717753946781158447265625</LongitudeDegrees>
            </Position>
            <AltitudeMeters>54</AltitudeMeters>
            <DistanceMeters>NAN</DistanceMeters>
          </Trackpoint>
          <Trackpoint>
            <Time>2022-07-14T07:38:01.000Z</Time>
            <Position>
              <LatitudeDegrees>43.44827259890735149383544921875</LatitudeDegrees>
              <LongitudeDegrees>-3.9576609246432781219482421875</LongitudeDegrees>
            </Position>
            <AltitudeMeters>54.40000152587890625</AltitudeMeters>
            <DistanceMeters>NAN</DistanceMeters>
          </Trackpoint>
          <Trackpoint>
            <Time>2022-07-14T07:38:03.000Z</Time>
            <Position>
              <LatitudeDegrees>43.44825332053005695343017578125</LatitudeDegrees>
              <LongitudeDegrees>-3.9575908519327640533447265625</LongitudeDegrees>
            </Position>
            <AltitudeMeters>54.59999847412109375</AltitudeMeters>
            <DistanceMeters>NAN</DistanceMeters>
          </Trackpoint>
          <Trackpoint>
            <Time>2022-07-14T07:38:04.000Z</Time>
            <Position>
              <LatitudeDegrees>43.4482423402369022369384765625</LatitudeDegrees>
              <LongitudeDegrees>-3.95756612531840801239013671875</LongitudeDegrees>
            </Position>
            <AltitudeMeters>54.59999847412109375</AltitudeMeters>
            <DistanceMeters>NAN</DistanceMeters>
          </Trackpoint>
          <Trackpoint>
            <Time>2022-07-14T07:38:06.000Z</Time>
            <Position>
              <LatitudeDegrees>43.44824426807463169097900390625</LatitudeDegrees>
              <LongitudeDegrees>-3.95752605982124805450439453125</LongitudeDegrees>
            </Position>
            <AltitudeMeters>55</AltitudeMeters>
            <DistanceMeters>NAN</DistanceMeters>
          </Trackpoint>
          <Trackpoint>
            <Time>2022-07-14T07:38:09.000Z</Time>
            <Position>
              <LatitudeDegrees>43.44826321117579936981201171875</LatitudeDegrees>
              <LongitudeDegrees>-3.9574161730706691741943359375</LongitudeDegrees>
            </Position>
            <AltitudeMeters>55.200000762939453125</AltitudeMeters>
            <DistanceMeters>NAN</DistanceMeters>
          </Trackpoint>
          <Trackpoint>
            <Time>2022-07-14T07:38:10.000Z</Time>
            <Position>
              <LatitudeDegrees>43.44825960695743560791015625</LatitudeDegrees>
              <LongitudeDegrees>-3.95739396102726459503173828125</LongitudeDegrees>
            </Position>
            <AltitudeMeters>55.40000152587890625</AltitudeMeters>
            <DistanceMeters>NAN</DistanceMeters>
          </Trackpoint>
          <Trackpoint>
            <Time>2022-07-14T07:38:12.000Z</Time>
            <Position>
              <LatitudeDegrees>43.44825466163456439971923828125</LatitudeDegrees>
              <LongitudeDegrees>-3.95735423080623149871826171875</LongitudeDegrees>
            </Position>
            <AltitudeMeters>55.799999237060546875</AltitudeMeters>
            <DistanceMeters>NAN</DistanceMeters>
          </Trackpoint>
          <Trackpoint>
            <Time>2022-07-14T07:38:13.000Z</Time>
            <Position>
              <LatitudeDegrees>43.448253907263278961181640625</LatitudeDegrees>
              <LongitudeDegrees>-3.957338891923427581787109375</LongitudeDegrees>
            </Position>
            <AltitudeMeters>56</AltitudeMeters>
            <DistanceMeters>NAN</DistanceMeters>
          </Trackpoint>
          <Trackpoint>
            <Time>2022-07-14T07:38:16.000Z</Time>
            <Position>
              <LatitudeDegrees>43.44824493862688541412353515625</LatitudeDegrees>
              <LongitudeDegrees>-3.957277201116085052490234375</LongitudeDegrees>
            </Position>
            <AltitudeMeters>56.200000762939453125</AltitudeMeters>
            <DistanceMeters>NAN</DistanceMeters>
          </Trackpoint>
          <Trackpoint>
            <Time>2022-07-14T07:38:21.000Z</Time>
            <Position>
              <LatitudeDegrees>43.44821459613740444183349609375</LatitudeDegrees>
              <LongitudeDegrees>-3.95717888139188289642333984375</LongitudeDegrees>
            </Position>
            <AltitudeMeters>56.799999237060546875</AltitudeMeters>
            <DistanceMeters>NAN</DistanceMeters>
          </Trackpoint>
          <Trackpoint>
            <Time>2022-07-14T07:38:23.000Z</Time>
            <Position>
              <LatitudeDegrees>43.448210656642913818359375</LatitudeDegrees>
              <LongitudeDegrees>-3.9571271650493144989013671875</LongitudeDegrees>
            </Position>
            <AltitudeMeters>57.200000762939453125</AltitudeMeters>
            <DistanceMeters>NAN</DistanceMeters>
          </Trackpoint>
          <Trackpoint>
            <Time>2022-07-14T07:38:27.000Z</Time>
            <Position>
              <LatitudeDegrees>43.448195569217205047607421875</LatitudeDegrees>
              <LongitudeDegrees>-3.95701727829873561859130859375</LongitudeDegrees>
            </Position>
            <AltitudeMeters>57.799999237060546875</AltitudeMeters>
            <DistanceMeters>NAN</DistanceMeters>
          </Trackpoint>
          <Trackpoint>
            <Time>2022-07-14T07:38:31.000Z</Time>
            <Position>
              <LatitudeDegrees>43.44817369244992733001708984375</LatitudeDegrees>
              <LongitudeDegrees>-3.956944942474365234375</LongitudeDegrees>
            </Position>
            <AltitudeMeters>58.40000152587890625</AltitudeMeters>
            <DistanceMeters>NAN</DistanceMeters>
          </Trackpoint>
          <Trackpoint>
            <Time>2022-07-14T07:38:34.000Z</Time>
            <Position>
              <LatitudeDegrees>43.4481538273394107818603515625</LatitudeDegrees>
              <LongitudeDegrees>-3.9568515680730342864990234375</LongitudeDegrees>
            </Position>
            <AltitudeMeters>58.40000152587890625</AltitudeMeters>
            <DistanceMeters>NAN</DistanceMeters>
          </Trackpoint>
          <Trackpoint>
            <Time>2022-07-14T07:38:37.000Z</Time>
            <Position>
              <LatitudeDegrees>43.44815910793840885162353515625</LatitudeDegrees>
              <LongitudeDegrees>-3.9567687548696994781494140625</LongitudeDegrees>
            </Position>
            <AltitudeMeters>58.799999237060546875</AltitudeMeters>
            <DistanceMeters>NAN</DistanceMeters>
          </Trackpoint>
          <Trackpoint>
            <Time>2022-07-14T07:38:38.000Z</Time>
            <Position>
              <LatitudeDegrees>43.44815977849066257476806640625</LatitudeDegrees>
              <LongitudeDegrees>-3.95674000494182109832763671875</LongitudeDegrees>
            </Position>
            <AltitudeMeters>59</AltitudeMeters>
            <DistanceMeters>NAN</DistanceMeters>
          </Trackpoint>
          <Trackpoint>
            <Time>2022-07-14T07:38:43.000Z</Time>
            <Position>
              <LatitudeDegrees>43.44816866330802440643310546875</LatitudeDegrees>
              <LongitudeDegrees>-3.9566081576049327850341796875</LongitudeDegrees>
            </Position>
            <AltitudeMeters>59.40000152587890625</AltitudeMeters>
            <DistanceMeters>NAN</DistanceMeters>
          </Trackpoint>
          <Trackpoint>
            <Time>2022-07-14T07:38:44.000Z</Time>
            <Position>
              <LatitudeDegrees>43.44816380180418491363525390625</LatitudeDegrees>
              <LongitudeDegrees>-3.956582508981227874755859375</LongitudeDegrees>
            </Position>
            <AltitudeMeters>59.40000152587890625</AltitudeMeters>
            <DistanceMeters>NAN</DistanceMeters>
          </Trackpoint>
          <Trackpoint>
            <Time>2022-07-14T07:38:50.000Z</Time>
            <Position>
              <LatitudeDegrees>43.4481561742722988128662109375</LatitudeDegrees>
              <LongitudeDegrees>-3.95640783011913299560546875</LongitudeDegrees>
            </Position>
            <AltitudeMeters>59.200000762939453125</AltitudeMeters>
            <DistanceMeters>NAN</DistanceMeters>
          </Trackpoint>
          <Trackpoint>
            <Time>2022-07-14T07:38:51.000Z</Time>
            <Position>
              <LatitudeDegrees>43.44815441407263278961181640625</LatitudeDegrees>
              <LongitudeDegrees>-3.9563805051147937774658203125</LongitudeDegrees>
            </Position>
            <AltitudeMeters>59.200000762939453125</AltitudeMeters>
            <DistanceMeters>NAN</DistanceMeters>
          </Trackpoint>
          <Trackpoint>
            <Time>2022-07-14T07:38:53.000Z</Time>
            <Position>
              <LatitudeDegrees>43.44815022312104701995849609375</LatitudeDegrees>
              <LongitudeDegrees>-3.95631395280361175537109375</LongitudeDegrees>
            </Position>
            <AltitudeMeters>59.200000762939453125</AltitudeMeters>
            <DistanceMeters>NAN</DistanceMeters>
          </Trackpoint>
          <Trackpoint>
            <Time>2022-07-14T07:38:57.000Z</Time>
            <Position>
              <LatitudeDegrees>43.44814586453139781951904296875</LatitudeDegrees>
              <LongitudeDegrees>-3.95611002109944820404052734375</LongitudeDegrees>
            </Position>
            <AltitudeMeters>58.799999237060546875</AltitudeMeters>
            <DistanceMeters>NAN</DistanceMeters>
          </Trackpoint>
          <Trackpoint>
            <Time>2022-07-14T07:39:02.000Z</Time>
            <Position>
              <LatitudeDegrees>43.44815558753907680511474609375</LatitudeDegrees>
              <LongitudeDegrees>-3.95577206276357173919677734375</LongitudeDegrees>
            </Position>
            <AltitudeMeters>58.59999847412109375</AltitudeMeters>
            <DistanceMeters>NAN</DistanceMeters>
          </Trackpoint>
          <Trackpoint>
            <Time>2022-07-14T07:39:09.000Z</Time>
            <Position>
              <LatitudeDegrees>43.448177464306354522705078125</LatitudeDegrees>
              <LongitudeDegrees>-3.95523159764707088470458984375</LongitudeDegrees>
            </Position>
            <AltitudeMeters>58.200000762939453125</AltitudeMeters>
            <DistanceMeters>NAN</DistanceMeters>
          </Trackpoint>
          <Trackpoint>
            <Time>2022-07-14T07:39:10.000Z</Time>
            <Position>
              <LatitudeDegrees>43.4481798112392425537109375</LatitudeDegrees>
              <LongitudeDegrees>-3.95517401397228240966796875</LongitudeDegrees>
            </Position>
            <AltitudeMeters>58.200000762939453125</AltitudeMeters>
            <DistanceMeters>NAN</DistanceMeters>
          </Trackpoint>
          <Trackpoint>
            <Time>2022-07-14T07:39:14.000Z</Time>
            <Position>
              <LatitudeDegrees>43.4481809847056865692138671875</LatitudeDegrees>
              <LongitudeDegrees>-3.9549726806581020355224609375</LongitudeDegrees>
            </Position>
            <AltitudeMeters>58.200000762939453125</AltitudeMeters>
            <DistanceMeters>NAN</DistanceMeters>
          </Trackpoint>
          <Trackpoint>
            <Time>2022-07-14T07:39:18.000Z</Time>
            <Position>
              <LatitudeDegrees>43.4481726028025150299072265625</LatitudeDegrees>
              <LongitudeDegrees>-3.9548137597739696502685546875</LongitudeDegrees>
            </Position>
            <AltitudeMeters>58.40000152587890625</AltitudeMeters>
            <DistanceMeters>NAN</DistanceMeters>
          </Trackpoint>
          <Trackpoint>
            <Time>2022-07-14T07:39:19.000Z</Time>
            <Position>
              <LatitudeDegrees>43.4481726028025150299072265625</LatitudeDegrees>
              <LongitudeDegrees>-3.95478735677897930145263671875</LongitudeDegrees>
            </Position>
            <AltitudeMeters>58.59999847412109375</AltitudeMeters>
            <DistanceMeters>NAN</DistanceMeters>
          </Trackpoint>
          <Trackpoint>
            <Time>2022-07-14T07:39:22.000Z</Time>
            <Position>
              <LatitudeDegrees>43.4481833316385746002197265625</LatitudeDegrees>
              <LongitudeDegrees>-3.9547041244804859161376953125</LongitudeDegrees>
            </Position>
            <AltitudeMeters>58.799999237060546875</AltitudeMeters>
            <DistanceMeters>NAN</DistanceMeters>
          </Trackpoint>
          <Trackpoint>
            <Time>2022-07-14T07:39:24.000Z</Time>
            <Position>
              <LatitudeDegrees>43.44819389283657073974609375</LatitudeDegrees>
              <LongitudeDegrees>-3.9546154439449310302734375</LongitudeDegrees>
            </Position>
            <AltitudeMeters>59</AltitudeMeters>
            <DistanceMeters>NAN</DistanceMeters>
          </Trackpoint>
          <Trackpoint>
            <Time>2022-07-14T07:39:25.000Z</Time>
            <Position>
              <LatitudeDegrees>43.44820152036845684051513671875</LatitudeDegrees>
              <LongitudeDegrees>-3.95458619110286235809326171875</LongitudeDegrees>
            </Position>
            <AltitudeMeters>59</AltitudeMeters>
            <DistanceMeters>NAN</DistanceMeters>
          </Trackpoint>
          <Trackpoint>
            <Time>2022-07-14T07:39:29.000Z</Time>
            <Position>
              <LatitudeDegrees>43.44820587895810604095458984375</LatitudeDegrees>
              <LongitudeDegrees>-3.95446096546947956085205078125</LongitudeDegrees>
            </Position>
            <AltitudeMeters>59.59999847412109375</AltitudeMeters>
            <DistanceMeters>NAN</DistanceMeters>
          </Trackpoint>
          <Trackpoint>
            <Time>2022-07-14T07:39:32.000Z</Time>
            <Position>
              <LatitudeDegrees>43.4482262469828128814697265625</LatitudeDegrees>
              <LongitudeDegrees>-3.95437966100871562957763671875</LongitudeDegrees>
            </Position>
            <AltitudeMeters>60</AltitudeMeters>
            <DistanceMeters>NAN</DistanceMeters>
          </Trackpoint>
          <Trackpoint>
            <Time>2022-07-14T07:39:34.000Z</Time>
            <Position>
              <LatitudeDegrees>43.44824619591236114501953125</LatitudeDegrees>
              <LongitudeDegrees>-3.954324759542942047119140625</LongitudeDegrees>
            </Position>
            <AltitudeMeters>60.200000762939453125</AltitudeMeters>
            <DistanceMeters>NAN</DistanceMeters>
          </Trackpoint>
          <Trackpoint>
            <Time>2022-07-14T07:39:36.000Z</Time>
            <Position>
              <LatitudeDegrees>43.448261283338069915771484375</LatitudeDegrees>
              <LongitudeDegrees>-3.9542592130601406097412109375</LongitudeDegrees>
            </Position>
            <AltitudeMeters>60.200000762939453125</AltitudeMeters>
            <DistanceMeters>NAN</DistanceMeters>
          </Trackpoint>
          <Trackpoint>
            <Time>2022-07-14T07:39:42.000Z</Time>
            <Position>
              <LatitudeDegrees>43.448294140398502349853515625</LatitudeDegrees>
              <LongitudeDegrees>-3.95402728579938411712646484375</LongitudeDegrees>
            </Position>
            <AltitudeMeters>60.40000152587890625</AltitudeMeters>
            <DistanceMeters>NAN</DistanceMeters>
          </Trackpoint>
          <Trackpoint>
            <Time>2022-07-14T07:39:43.000Z</Time>
            <Position>
              <LatitudeDegrees>43.44828885979950428009033203125</LatitudeDegrees>
              <LongitudeDegrees>-3.95399828441441059112548828125</LongitudeDegrees>
            </Position>
            <AltitudeMeters>60.59999847412109375</AltitudeMeters>
            <DistanceMeters>NAN</DistanceMeters>
          </Trackpoint>
          <Trackpoint>
            <Time>2022-07-14T07:39:46.000Z</Time>
            <Position>
              <LatitudeDegrees>43.4483100660145282745361328125</LatitudeDegrees>
              <LongitudeDegrees>-3.95389460027217864990234375</LongitudeDegrees>
            </Position>
            <AltitudeMeters>60.59999847412109375</AltitudeMeters>
            <DistanceMeters>NAN</DistanceMeters>
          </Trackpoint>
          <Trackpoint>
            <Time>2022-07-14T07:39:48.000Z</Time>
            <Position>
              <LatitudeDegrees>43.4483110718429088592529296875</LatitudeDegrees>
              <LongitudeDegrees>-3.953845314681529998779296875</LongitudeDegrees>
            </Position>
            <AltitudeMeters>60.59999847412109375</AltitudeMeters>
            <DistanceMeters>NAN</DistanceMeters>
          </Trackpoint>
          <Trackpoint>
            <Time>2022-07-14T07:39:54.000Z</Time>
            <Position>
              <LatitudeDegrees>43.44836530275642871856689453125</LatitudeDegrees>
              <LongitudeDegrees>-3.953650183975696563720703125</LongitudeDegrees>
            </Position>
            <AltitudeMeters>60.799999237060546875</AltitudeMeters>
            <DistanceMeters>NAN</DistanceMeters>
          </Trackpoint>
          <Trackpoint>
            <Time>2022-07-14T07:39:59.000Z</Time>
            <Position>
              <LatitudeDegrees>43.44836664386093616485595703125</LatitudeDegrees>
              <LongitudeDegrees>-3.95347106270492076873779296875</LongitudeDegrees>
            </Position>
            <AltitudeMeters>61</AltitudeMeters>
            <DistanceMeters>NAN</DistanceMeters>
          </Trackpoint>
          <Trackpoint>
            <Time>2022-07-14T07:40:01.000Z</Time>
            <Position>
              <LatitudeDegrees>43.4483702480792999267578125</LatitudeDegrees>
              <LongitudeDegrees>-3.95339839160442352294921875</LongitudeDegrees>
            </Position>
            <AltitudeMeters>61.200000762939453125</AltitudeMeters>
            <DistanceMeters>NAN</DistanceMeters>
          </Trackpoint>
          <Trackpoint>
            <Time>2022-07-14T07:40:05.000Z</Time>
            <Position>
              <LatitudeDegrees>43.448382653295993804931640625</LatitudeDegrees>
              <LongitudeDegrees>-3.95326453261077404022216796875</LongitudeDegrees>
            </Position>
            <AltitudeMeters>61.59999847412109375</AltitudeMeters>
            <DistanceMeters>NAN</DistanceMeters>
          </Trackpoint>
          <Trackpoint>
            <Time>2022-07-14T07:40:06.000Z</Time>
            <Position>
              <LatitudeDegrees>43.44837904907763004302978515625</LatitudeDegrees>
              <LongitudeDegrees>-3.95323603413999080657958984375</LongitudeDegrees>
            </Position>
            <AltitudeMeters>61.799999237060546875</AltitudeMeters>
            <DistanceMeters>NAN</DistanceMeters>
          </Trackpoint>
          <Trackpoint>
            <Time>2022-07-14T07:40:10.000Z</Time>
            <Position>
              <LatitudeDegrees>43.44835071824491024017333984375</LatitudeDegrees>
              <LongitudeDegrees>-3.953162021934986114501953125</LongitudeDegrees>
            </Position>
            <AltitudeMeters>62.200000762939453125</AltitudeMeters>
            <DistanceMeters>NAN</DistanceMeters>
          </Trackpoint>
          <Trackpoint>
            <Time>2022-07-14T07:40:13.000Z</Time>
            <Position>
              <LatitudeDegrees>43.44834099523723125457763671875</LatitudeDegrees>
              <LongitudeDegrees>-3.95304157398641109466552734375</LongitudeDegrees>
            </Position>
            <AltitudeMeters>62.799999237060546875</AltitudeMeters>
            <DistanceMeters>NAN</DistanceMeters>
          </Trackpoint>
          <Trackpoint>
            <Time>2022-07-14T07:40:15.000Z</Time>
            <Position>
              <LatitudeDegrees>43.448335714638233184814453125</LatitudeDegrees>
              <LongitudeDegrees>-3.95292037166655063629150390625</LongitudeDegrees>
            </Position>
            <AltitudeMeters>63</AltitudeMeters>
            <DistanceMeters>NAN</DistanceMeters>
          </Trackpoint>
          <Trackpoint>
            <Time>2022-07-14T07:40:18.000Z</Time>
            <Position>
              <LatitudeDegrees>43.44834803603589534759521484375</LatitudeDegrees>
              <LongitudeDegrees>-3.95283739082515239715576171875</LongitudeDegrees>
            </Position>
            <AltitudeMeters>63.40000152587890625</AltitudeMeters>
            <DistanceMeters>NAN</DistanceMeters>
          </Trackpoint>
          <Trackpoint>
            <Time>2022-07-14T07:40:19.000Z</Time>
            <Position>
              <LatitudeDegrees>43.4483412466943264007568359375</LatitudeDegrees>
              <LongitudeDegrees>-3.9528252370655536651611328125</LongitudeDegrees>
            </Position>
            <AltitudeMeters>63.59999847412109375</AltitudeMeters>
            <DistanceMeters>NAN</DistanceMeters>
          </Trackpoint>
          <Trackpoint>
            <Time>2022-07-14T07:40:22.000Z</Time>
            <Position>
              <LatitudeDegrees>43.4482041187584400177001953125</LatitudeDegrees>
              <LongitudeDegrees>-3.95274929702281951904296875</LongitudeDegrees>
            </Position>
            <AltitudeMeters>64</AltitudeMeters>
            <DistanceMeters>NAN</DistanceMeters>
          </Trackpoint>
          <Trackpoint>
            <Time>2022-07-14T07:40:26.000Z</Time>
            <Position>
              <LatitudeDegrees>43.44816975295543670654296875</LatitudeDegrees>
              <LongitudeDegrees>-3.95268467254936695098876953125</LongitudeDegrees>
            </Position>
            <AltitudeMeters>64.40000152587890625</AltitudeMeters>
            <DistanceMeters>NAN</DistanceMeters>
          </Trackpoint>
          <Trackpoint>
            <Time>2022-07-14T07:40:27.000Z</Time>
            <Position>
              <LatitudeDegrees>43.4481556713581085205078125</LatitudeDegrees>
              <LongitudeDegrees>-3.95266774110496044158935546875</LongitudeDegrees>
            </Position>
            <AltitudeMeters>64.40000152587890625</AltitudeMeters>
            <DistanceMeters>NAN</DistanceMeters>
          </Trackpoint>
          <Trackpoint>
            <Time>2022-07-14T07:40:29.000Z</Time>
            <Position>
              <LatitudeDegrees>43.4481395781040191650390625</LatitudeDegrees>
              <LongitudeDegrees>-3.95264326594769954681396484375</LongitudeDegrees>
            </Position>
            <AltitudeMeters>64.8000030517578125</AltitudeMeters>
            <DistanceMeters>NAN</DistanceMeters>
          </Trackpoint>
          <Trackpoint>
            <Time>2022-07-14T07:40:32.000Z</Time>
            <Position>
              <LatitudeDegrees>43.4481125883758068084716796875</LatitudeDegrees>
              <LongitudeDegrees>-3.95258911885321140289306640625</LongitudeDegrees>
            </Position>
            <AltitudeMeters>65.1999969482421875</AltitudeMeters>
            <DistanceMeters>NAN</DistanceMeters>
          </Trackpoint>
          <Trackpoint>
            <Time>2022-07-14T07:40:34.000Z</Time>
            <Position>
              <LatitudeDegrees>43.44809674657881259918212890625</LatitudeDegrees>
              <LongitudeDegrees>-3.95255726762115955352783203125</LongitudeDegrees>
            </Position>
            <AltitudeMeters>65.40000152587890625</AltitudeMeters>
            <DistanceMeters>NAN</DistanceMeters>
          </Trackpoint>
          <Trackpoint>
            <Time>2022-07-14T07:40:35.000Z</Time>
            <Position>
              <LatitudeDegrees>43.44808568246662616729736328125</LatitudeDegrees>
              <LongitudeDegrees>-3.95255022682249546051025390625</LongitudeDegrees>
            </Position>
            <AltitudeMeters>65.59999847412109375</AltitudeMeters>
            <DistanceMeters>NAN</DistanceMeters>
          </Trackpoint>
          <Trackpoint>
            <Time>2022-07-14T07:40:38.000Z</Time>
            <Position>
              <LatitudeDegrees>43.44803673215210437774658203125</LatitudeDegrees>
              <LongitudeDegrees>-3.95252105779945850372314453125</LongitudeDegrees>
            </Position>
            <AltitudeMeters>66</AltitudeMeters>
            <DistanceMeters>NAN</DistanceMeters>
          </Trackpoint>
          <Trackpoint>
            <Time>2022-07-14T07:40:40.000Z</Time>
            <Position>
              <LatitudeDegrees>43.44800203107297420501708984375</LatitudeDegrees>
              <LongitudeDegrees>-3.95248535089194774627685546875</LongitudeDegrees>
            </Position>
            <AltitudeMeters>66.40000152587890625</AltitudeMeters>
            <DistanceMeters>NAN</DistanceMeters>
          </Trackpoint>
          <Trackpoint>
            <Time>2022-07-14T07:40:43.000Z</Time>
            <Position>
              <LatitudeDegrees>43.44795794226229190826416015625</LatitudeDegrees>
              <LongitudeDegrees>-3.9524281024932861328125</LongitudeDegrees>
            </Position>
            <AltitudeMeters>66.59999847412109375</AltitudeMeters>
            <DistanceMeters>NAN</DistanceMeters>
          </Trackpoint>
          <Trackpoint>
            <Time>2022-07-14T07:40:46.000Z</Time>
            <Position>
              <LatitudeDegrees>43.44791804440319538116455078125</LatitudeDegrees>
              <LongitudeDegrees>-3.95237646996974945068359375</LongitudeDegrees>
            </Position>
            <AltitudeMeters>66.8000030517578125</AltitudeMeters>
            <DistanceMeters>NAN</DistanceMeters>
          </Trackpoint>
          <Trackpoint>
            <Time>2022-07-14T07:40:48.000Z</Time>
            <Position>
              <LatitudeDegrees>43.4479003585875034332275390625</LatitudeDegrees>
              <LongitudeDegrees>-3.9523524977266788482666015625</LongitudeDegrees>
            </Position>
            <AltitudeMeters>67.1999969482421875</AltitudeMeters>
            <DistanceMeters>NAN</DistanceMeters>
          </Trackpoint>
          <Trackpoint>
            <Time>2022-07-14T07:40:51.000Z</Time>
            <Position>
              <LatitudeDegrees>43.44789675436913967132568359375</LatitudeDegrees>
              <LongitudeDegrees>-3.952240012586116790771484375</LongitudeDegrees>
            </Position>
            <AltitudeMeters>67.59999847412109375</AltitudeMeters>
            <DistanceMeters>NAN</DistanceMeters>
          </Trackpoint>
          <Trackpoint>
            <Time>2022-07-14T07:40:52.000Z</Time>
            <Position>
              <LatitudeDegrees>43.44789474271237850189208984375</LatitudeDegrees>
              <LongitudeDegrees>-3.952212519943714141845703125</LongitudeDegrees>
            </Position>
            <AltitudeMeters>67.8000030517578125</AltitudeMeters>
            <DistanceMeters>NAN</DistanceMeters>
          </Trackpoint>
          <Trackpoint>
            <Time>2022-07-14T07:40:55.000Z</Time>
            <Position>
              <LatitudeDegrees>43.44783489592373371124267578125</LatitudeDegrees>
              <LongitudeDegrees>-3.95219005644321441650390625</LongitudeDegrees>
            </Position>
            <AltitudeMeters>68</AltitudeMeters>
            <DistanceMeters>NAN</DistanceMeters>
          </Trackpoint>
          <Trackpoint>
            <Time>2022-07-14T07:40:57.000Z</Time>
            <Position>
              <LatitudeDegrees>43.44780924730002880096435546875</LatitudeDegrees>
              <LongitudeDegrees>-3.95218335092067718505859375</LongitudeDegrees>
            </Position>
            <AltitudeMeters>68.40000152587890625</AltitudeMeters>
            <DistanceMeters>NAN</DistanceMeters>
          </Trackpoint>
          <Trackpoint>
            <Time>2022-07-14T07:40:59.000Z</Time>
            <Position>
              <LatitudeDegrees>43.44779063947498798370361328125</LatitudeDegrees>
              <LongitudeDegrees>-3.95217262208461761474609375</LongitudeDegrees>
            </Position>
            <AltitudeMeters>68.59999847412109375</AltitudeMeters>
            <DistanceMeters>NAN</DistanceMeters>
          </Trackpoint>
          <Trackpoint>
            <Time>2022-07-14T07:41:01.000Z</Time>
            <Position>
              <LatitudeDegrees>43.447771780192852020263671875</LatitudeDegrees>
              <LongitudeDegrees>-3.95213850773870944976806640625</LongitudeDegrees>
            </Position>
            <AltitudeMeters>69</AltitudeMeters>
            <DistanceMeters>NAN</DistanceMeters>
          </Trackpoint>
          <Trackpoint>
            <Time>2022-07-14T07:41:02.000Z</Time>
            <Position>
              <LatitudeDegrees>43.4477773122489452362060546875</LatitudeDegrees>
              <LongitudeDegrees>-3.952111937105655670166015625</LongitudeDegrees>
            </Position>
            <AltitudeMeters>69.1999969482421875</AltitudeMeters>
            <DistanceMeters>NAN</DistanceMeters>
          </Trackpoint>
          <Trackpoint>
            <Time>2022-07-14T07:41:04.000Z</Time>
            <Position>
              <LatitudeDegrees>43.44777001999318599700927734375</LatitudeDegrees>
              <LongitudeDegrees>-3.9520836062729358673095703125</LongitudeDegrees>
            </Position>
            <AltitudeMeters>69.40000152587890625</AltitudeMeters>
            <DistanceMeters>NAN</DistanceMeters>
          </Trackpoint>
          <Trackpoint>
            <Time>2022-07-14T07:41:06.000Z</Time>
            <Position>
              <LatitudeDegrees>43.44773548655211925506591796875</LatitudeDegrees>
              <LongitudeDegrees>-3.95206575281918048858642578125</LongitudeDegrees>
            </Position>
            <AltitudeMeters>69.8000030517578125</AltitudeMeters>
            <DistanceMeters>NAN</DistanceMeters>
          </Trackpoint>
          <Trackpoint>
            <Time>2022-07-14T07:41:09.000Z</Time>
            <Position>
              <LatitudeDegrees>43.44767756760120391845703125</LatitudeDegrees>
              <LongitudeDegrees>-3.95203859545290470123291015625</LongitudeDegrees>
            </Position>
            <AltitudeMeters>70.1999969482421875</AltitudeMeters>
            <DistanceMeters>NAN</DistanceMeters>
          </Trackpoint>
          <Trackpoint>
            <Time>2022-07-14T07:41:10.000Z</Time>
            <Position>
              <LatitudeDegrees>43.44767094589769840240478515625</LatitudeDegrees>
              <LongitudeDegrees>-3.95202987827360630035400390625</LongitudeDegrees>
            </Position>
            <AltitudeMeters>70.1999969482421875</AltitudeMeters>
            <DistanceMeters>NAN</DistanceMeters>
          </Trackpoint>
          <Trackpoint>
            <Time>2022-07-14T07:41:12.000Z</Time>
            <Position>
              <LatitudeDegrees>43.44766222871840000152587890625</LatitudeDegrees>
              <LongitudeDegrees>-3.952010683715343475341796875</LongitudeDegrees>
            </Position>
            <AltitudeMeters>70.40000152587890625</AltitudeMeters>
            <DistanceMeters>NAN</DistanceMeters>
          </Trackpoint>
          <Trackpoint>
            <Time>2022-07-14T07:41:14.000Z</Time>
            <Position>
              <LatitudeDegrees>43.4476586245000362396240234375</LatitudeDegrees>
              <LongitudeDegrees>-3.95197992213070392608642578125</LongitudeDegrees>
            </Position>
            <AltitudeMeters>70.59999847412109375</AltitudeMeters>
            <DistanceMeters>NAN</DistanceMeters>
          </Trackpoint>
          <Trackpoint>
            <Time>2022-07-14T07:41:15.000Z</Time>
            <Position>
              <LatitudeDegrees>43.44765602611005306243896484375</LatitudeDegrees>
              <LongitudeDegrees>-3.95196072757244110107421875</LongitudeDegrees>
            </Position>
            <AltitudeMeters>70.8000030517578125</AltitudeMeters>
            <DistanceMeters>NAN</DistanceMeters>
          </Trackpoint>
          <Trackpoint>
            <Time>2022-07-14T07:41:16.000Z</Time>
            <Position>
              <LatitudeDegrees>43.44765133224427700042724609375</LatitudeDegrees>
              <LongitudeDegrees>-3.9519448019564151763916015625</LongitudeDegrees>
            </Position>
            <AltitudeMeters>71</AltitudeMeters>
            <DistanceMeters>NAN</DistanceMeters>
          </Trackpoint>
          <Trackpoint>
            <Time>2022-07-14T07:41:21.000Z</Time>
            <Position>
              <LatitudeDegrees>43.44760246574878692626953125</LatitudeDegrees>
              <LongitudeDegrees>-3.9518941752612590789794921875</LongitudeDegrees>
            </Position>
            <AltitudeMeters>71.59999847412109375</AltitudeMeters>
            <DistanceMeters>NAN</DistanceMeters>
          </Trackpoint>
          <Trackpoint>
            <Time>2022-07-14T07:41:25.000Z</Time>
            <Position>
              <LatitudeDegrees>43.44758025370538234710693359375</LatitudeDegrees>
              <LongitudeDegrees>-3.951849751174449920654296875</LongitudeDegrees>
            </Position>
            <AltitudeMeters>71.8000030517578125</AltitudeMeters>
            <DistanceMeters>NAN</DistanceMeters>
          </Trackpoint>
          <Trackpoint>
            <Time>2022-07-14T07:41:26.000Z</Time>
            <Position>
              <LatitudeDegrees>43.4475734643638134002685546875</LatitudeDegrees>
              <LongitudeDegrees>-3.9518438838422298431396484375</LongitudeDegrees>
            </Position>
            <AltitudeMeters>72</AltitudeMeters>
            <DistanceMeters>NAN</DistanceMeters>
          </Trackpoint>
          <Trackpoint>
            <Time>2022-07-14T07:41:27.000Z</Time>
            <Position>
              <LatitudeDegrees>43.4475682675838470458984375</LatitudeDegrees>
              <LongitudeDegrees>-3.9518348313868045806884765625</LongitudeDegrees>
            </Position>
            <AltitudeMeters>72</AltitudeMeters>
            <DistanceMeters>NAN</DistanceMeters>
          </Trackpoint>
          <Trackpoint>
            <Time>2022-07-14T07:41:32.000Z</Time>
            <Position>
              <LatitudeDegrees>43.44756181351840496063232421875</LatitudeDegrees>
              <LongitudeDegrees>-3.951769955456256866455078125</LongitudeDegrees>
            </Position>
            <AltitudeMeters>73.1999969482421875</AltitudeMeters>
            <DistanceMeters>NAN</DistanceMeters>
          </Trackpoint>
          <Trackpoint>
            <Time>2022-07-14T07:41:33.000Z</Time>
            <Position>
              <LatitudeDegrees>43.44756399281322956085205078125</LatitudeDegrees>
              <LongitudeDegrees>-3.9517580531537532806396484375</LongitudeDegrees>
            </Position>
            <AltitudeMeters>73.40000152587890625</AltitudeMeters>
            <DistanceMeters>NAN</DistanceMeters>
          </Trackpoint>
          <Trackpoint>
            <Time>2022-07-14T07:41:36.000Z</Time>
            <Position>
              <LatitudeDegrees>43.44758226536214351654052734375</LatitudeDegrees>
              <LongitudeDegrees>-3.9517003856599330902099609375</LongitudeDegrees>
            </Position>
            <AltitudeMeters>74.1999969482421875</AltitudeMeters>
            <DistanceMeters>NAN</DistanceMeters>
          </Trackpoint>
          <Trackpoint>
            <Time>2022-07-14T07:41:38.000Z</Time>
            <Position>
              <LatitudeDegrees>43.4475701116025447845458984375</LatitudeDegrees>
              <LongitudeDegrees>-3.95165227353572845458984375</LongitudeDegrees>
            </Position>
            <AltitudeMeters>74.40000152587890625</AltitudeMeters>
            <DistanceMeters>NAN</DistanceMeters>
          </Trackpoint>
          <Trackpoint>
            <Time>2022-07-14T07:41:39.000Z</Time>
            <Position>
              <LatitudeDegrees>43.4475654177367687225341796875</LatitudeDegrees>
              <LongitudeDegrees>-3.951629810035228729248046875</LongitudeDegrees>
            </Position>
            <AltitudeMeters>74.59999847412109375</AltitudeMeters>
            <DistanceMeters>NAN</DistanceMeters>
          </Trackpoint>
          <Trackpoint>
            <Time>2022-07-14T07:41:42.000Z</Time>
            <Position>
              <LatitudeDegrees>43.44759617932140827178955078125</LatitudeDegrees>
              <LongitudeDegrees>-3.95155848003923892974853515625</LongitudeDegrees>
            </Position>
            <AltitudeMeters>74.40000152587890625</AltitudeMeters>
            <DistanceMeters>NAN</DistanceMeters>
          </Trackpoint>
          <Trackpoint>
            <Time>2022-07-14T07:41:43.000Z</Time>
            <Position>
              <LatitudeDegrees>43.44761093147099018096923828125</LatitudeDegrees>
              <LongitudeDegrees>-3.951540291309356689453125</LongitudeDegrees>
            </Position>
            <AltitudeMeters>74.40000152587890625</AltitudeMeters>
            <DistanceMeters>NAN</DistanceMeters>
          </Trackpoint>
          <Trackpoint>
            <Time>2022-07-14T07:41:45.000Z</Time>
            <Position>
              <LatitudeDegrees>43.44763574190437793731689453125</LatitudeDegrees>
              <LongitudeDegrees>-3.95150030963122844696044921875</LongitudeDegrees>
            </Position>
            <AltitudeMeters>74.40000152587890625</AltitudeMeters>
            <DistanceMeters>NAN</DistanceMeters>
          </Trackpoint>
          <Trackpoint>
            <Time>2022-07-14T07:41:47.000Z</Time>
            <Position>
              <LatitudeDegrees>43.44764362089335918426513671875</LatitudeDegrees>
              <LongitudeDegrees>-3.95147399045526981353759765625</LongitudeDegrees>
            </Position>
            <AltitudeMeters>74.8000030517578125</AltitudeMeters>
            <DistanceMeters>NAN</DistanceMeters>
          </Trackpoint>
          <Trackpoint>
            <Time>2022-07-14T07:41:49.000Z</Time>
            <Position>
              <LatitudeDegrees>43.447652757167816162109375</LatitudeDegrees>
              <LongitudeDegrees>-3.95143995992839336395263671875</LongitudeDegrees>
            </Position>
            <AltitudeMeters>75.1999969482421875</AltitudeMeters>
            <DistanceMeters>NAN</DistanceMeters>
          </Trackpoint>
          <Trackpoint>
            <Time>2022-07-14T07:41:50.000Z</Time>
            <Position>
              <LatitudeDegrees>43.44765518791973590850830078125</LatitudeDegrees>
              <LongitudeDegrees>-3.95142705179750919342041015625</LongitudeDegrees>
            </Position>
            <AltitudeMeters>75.40000152587890625</AltitudeMeters>
            <DistanceMeters>NAN</DistanceMeters>
          </Trackpoint>
          <Trackpoint>
            <Time>2022-07-14T07:41:52.000Z</Time>
            <Position>
              <LatitudeDegrees>43.447670526802539825439453125</LatitudeDegrees>
              <LongitudeDegrees>-3.9513956196606159210205078125</LongitudeDegrees>
            </Position>
            <AltitudeMeters>75.8000030517578125</AltitudeMeters>
            <DistanceMeters>NAN</DistanceMeters>
          </Trackpoint>
          <Trackpoint>
            <Time>2022-07-14T07:41:55.000Z</Time>
            <Position>
              <LatitudeDegrees>43.44769542105495929718017578125</LatitudeDegrees>
              <LongitudeDegrees>-3.95131674595177173614501953125</LongitudeDegrees>
            </Position>
            <AltitudeMeters>76.40000152587890625</AltitudeMeters>
            <DistanceMeters>NAN</DistanceMeters>
          </Trackpoint>
          <Trackpoint>
            <Time>2022-07-14T07:41:57.000Z</Time>
            <Position>
              <LatitudeDegrees>43.44769910909235477447509765625</LatitudeDegrees>
              <LongitudeDegrees>-3.951277770102024078369140625</LongitudeDegrees>
            </Position>
            <AltitudeMeters>76.8000030517578125</AltitudeMeters>
            <DistanceMeters>NAN</DistanceMeters>
          </Trackpoint>
          <Trackpoint>
            <Time>2022-07-14T07:41:58.000Z</Time>
            <Position>
              <LatitudeDegrees>43.44769827090203762054443359375</LatitudeDegrees>
              <LongitudeDegrees>-3.95125622861087322235107421875</LongitudeDegrees>
            </Position>
            <AltitudeMeters>77</AltitudeMeters>
            <DistanceMeters>NAN</DistanceMeters>
          </Trackpoint>
          <Trackpoint>
            <Time>2022-07-14T07:41:59.000Z</Time>
            <Position>
              <LatitudeDegrees>43.4476809203624725341796875</LatitudeDegrees>
              <LongitudeDegrees>-3.95121281035244464874267578125</LongitudeDegrees>
            </Position>
            <AltitudeMeters>77.1999969482421875</AltitudeMeters>
            <DistanceMeters>NAN</DistanceMeters>
          </Trackpoint>
          <Trackpoint>
            <Time>2022-07-14T07:42:00.000Z</Time>
            <Position>
              <LatitudeDegrees>43.44767429865896701812744140625</LatitudeDegrees>
              <LongitudeDegrees>-3.951180540025234222412109375</LongitudeDegrees>
            </Position>
            <AltitudeMeters>77.40000152587890625</AltitudeMeters>
            <DistanceMeters>NAN</DistanceMeters>
          </Trackpoint>
          <Trackpoint>
            <Time>2022-07-14T07:42:02.000Z</Time>
            <Position>
              <LatitudeDegrees>43.44767547212541103363037109375</LatitudeDegrees>
              <LongitudeDegrees>-3.95114189945161342620849609375</LongitudeDegrees>
            </Position>
            <AltitudeMeters>77.59999847412109375</AltitudeMeters>
            <DistanceMeters>NAN</DistanceMeters>
          </Trackpoint>
          <Trackpoint>
            <Time>2022-07-14T07:42:03.000Z</Time>
            <Position>
              <LatitudeDegrees>43.4476943314075469970703125</LatitudeDegrees>
              <LongitudeDegrees>-3.95111457444727420806884765625</LongitudeDegrees>
            </Position>
            <AltitudeMeters>77.8000030517578125</AltitudeMeters>
            <DistanceMeters>NAN</DistanceMeters>
          </Trackpoint>
          <Trackpoint>
            <Time>2022-07-14T07:42:04.000Z</Time>
            <Position>
              <LatitudeDegrees>43.44770749099552631378173828125</LatitudeDegrees>
              <LongitudeDegrees>-3.95109194330871105194091796875</LongitudeDegrees>
            </Position>
            <AltitudeMeters>78</AltitudeMeters>
            <DistanceMeters>NAN</DistanceMeters>
          </Trackpoint>
          <Trackpoint>
            <Time>2022-07-14T07:42:06.000Z</Time>
            <Position>
              <LatitudeDegrees>43.44770866446197032928466796875</LatitudeDegrees>
              <LongitudeDegrees>-3.951036036014556884765625</LongitudeDegrees>
            </Position>
            <AltitudeMeters>78.40000152587890625</AltitudeMeters>
            <DistanceMeters>NAN</DistanceMeters>
          </Trackpoint>
          <Trackpoint>
            <Time>2022-07-14T07:42:08.000Z</Time>
            <Position>
              <LatitudeDegrees>43.44772526063024997711181640625</LatitudeDegrees>
              <LongitudeDegrees>-3.95099840126931667327880859375</LongitudeDegrees>
            </Position>
            <AltitudeMeters>78.8000030517578125</AltitudeMeters>
            <DistanceMeters>NAN</DistanceMeters>
          </Trackpoint>
          <Trackpoint>
            <Time>2022-07-14T07:42:10.000Z</Time>
            <Position>
              <LatitudeDegrees>43.447738587856292724609375</LatitudeDegrees>
              <LongitudeDegrees>-3.95095917396247386932373046875</LongitudeDegrees>
            </Position>
            <AltitudeMeters>79</AltitudeMeters>
            <DistanceMeters>NAN</DistanceMeters>
          </Trackpoint>
          <Trackpoint>
            <Time>2022-07-14T07:42:12.000Z</Time>
            <Position>
              <LatitudeDegrees>43.4477307088673114776611328125</LatitudeDegrees>
              <LongitudeDegrees>-3.9509101398289203643798828125</LongitudeDegrees>
            </Position>
            <AltitudeMeters>79.40000152587890625</AltitudeMeters>
            <DistanceMeters>NAN</DistanceMeters>
          </Trackpoint>
          <Trackpoint>
            <Time>2022-07-14T07:42:13.000Z</Time>
            <Position>
              <LatitudeDegrees>43.44773196615278720855712890625</LatitudeDegrees>
              <LongitudeDegrees>-3.9508953876793384552001953125</LongitudeDegrees>
            </Position>
            <AltitudeMeters>79.59999847412109375</AltitudeMeters>
            <DistanceMeters>NAN</DistanceMeters>
          </Trackpoint>
          <Trackpoint>
            <Time>2022-07-14T07:42:18.000Z</Time>
            <Position>
              <LatitudeDegrees>43.44772576354444026947021484375</LatitudeDegrees>
              <LongitudeDegrees>-3.95086227916181087493896484375</LongitudeDegrees>
            </Position>
            <AltitudeMeters>80.1999969482421875</AltitudeMeters>
            <DistanceMeters>NAN</DistanceMeters>
          </Trackpoint>
          <Trackpoint>
            <Time>2022-07-14T07:42:19.000Z</Time>
            <Position>
              <LatitudeDegrees>43.44773313961923122406005859375</LatitudeDegrees>
              <LongitudeDegrees>-3.9508518017828464508056640625</LongitudeDegrees>
            </Position>
            <AltitudeMeters>80.40000152587890625</AltitudeMeters>
            <DistanceMeters>NAN</DistanceMeters>
          </Trackpoint>
          <Trackpoint>
            <Time>2022-07-14T07:42:20.000Z</Time>
            <Position>
              <LatitudeDegrees>43.44774269498884677886962890625</LatitudeDegrees>
              <LongitudeDegrees>-3.9508388936519622802734375</LongitudeDegrees>
            </Position>
            <AltitudeMeters>80.59999847412109375</AltitudeMeters>
            <DistanceMeters>NAN</DistanceMeters>
          </Trackpoint>
          <Trackpoint>
            <Time>2022-07-14T07:42:22.000Z</Time>
            <Position>
              <LatitudeDegrees>43.44775124453008174896240234375</LatitudeDegrees>
              <LongitudeDegrees>-3.95080427639186382293701171875</LongitudeDegrees>
            </Position>
            <AltitudeMeters>80.8000030517578125</AltitudeMeters>
            <DistanceMeters>NAN</DistanceMeters>
          </Trackpoint>
          <Trackpoint>
            <Time>2022-07-14T07:42:23.000Z</Time>
            <Position>
              <LatitudeDegrees>43.447748981416225433349609375</LatitudeDegrees>
              <LongitudeDegrees>-3.95079136826097965240478515625</LongitudeDegrees>
            </Position>
            <AltitudeMeters>81</AltitudeMeters>
            <DistanceMeters>NAN</DistanceMeters>
          </Trackpoint>
          <Trackpoint>
            <Time>2022-07-14T07:42:25.000Z</Time>
            <Position>
              <LatitudeDegrees>43.4477491490542888641357421875</LatitudeDegrees>
              <LongitudeDegrees>-3.95076722837984561920166015625</LongitudeDegrees>
            </Position>
            <AltitudeMeters>81.1999969482421875</AltitudeMeters>
            <DistanceMeters>NAN</DistanceMeters>
          </Trackpoint>
          <Trackpoint>
            <Time>2022-07-14T07:42:26.000Z</Time>
            <Position>
              <LatitudeDegrees>43.447750993072986602783203125</LatitudeDegrees>
              <LongitudeDegrees>-3.95075398497283458709716796875</LongitudeDegrees>
            </Position>
            <AltitudeMeters>81.1999969482421875</AltitudeMeters>
            <DistanceMeters>NAN</DistanceMeters>
          </Trackpoint>
          <Trackpoint>
            <Time>2022-07-14T07:42:29.000Z</Time>
            <Position>
              <LatitudeDegrees>43.44775426201522350311279296875</LatitudeDegrees>
              <LongitudeDegrees>-3.950719200074672698974609375</LongitudeDegrees>
            </Position>
            <AltitudeMeters>81.40000152587890625</AltitudeMeters>
            <DistanceMeters>NAN</DistanceMeters>
          </Trackpoint>
          <Trackpoint>
            <Time>2022-07-14T07:42:30.000Z</Time>
            <Position>
              <LatitudeDegrees>43.447757698595523834228515625</LatitudeDegrees>
              <LongitudeDegrees>-3.95071375183761119842529296875</LongitudeDegrees>
            </Position>
            <AltitudeMeters>81.59999847412109375</AltitudeMeters>
            <DistanceMeters>NAN</DistanceMeters>
          </Trackpoint>
          <Trackpoint>
            <Time>2022-07-14T07:42:31.000Z</Time>
            <Position>
              <LatitudeDegrees>43.44775677658617496490478515625</LatitudeDegrees>
              <LongitudeDegrees>-3.950705789029598236083984375</LongitudeDegrees>
            </Position>
            <AltitudeMeters>81.8000030517578125</AltitudeMeters>
            <DistanceMeters>NAN</DistanceMeters>
          </Trackpoint>
          <Trackpoint>
            <Time>2022-07-14T07:42:35.000Z</Time>
            <Position>
              <LatitudeDegrees>43.44776566140353679656982421875</LatitudeDegrees>
              <LongitudeDegrees>-3.95062238909304141998291015625</LongitudeDegrees>
            </Position>
            <AltitudeMeters>82.40000152587890625</AltitudeMeters>
            <DistanceMeters>NAN</DistanceMeters>
          </Trackpoint>
          <Trackpoint>
            <Time>2022-07-14T07:42:38.000Z</Time>
            <Position>
              <LatitudeDegrees>43.4477850235998630523681640625</LatitudeDegrees>
              <LongitudeDegrees>-3.9505762048065662384033203125</LongitudeDegrees>
            </Position>
            <AltitudeMeters>82.8000030517578125</AltitudeMeters>
            <DistanceMeters>NAN</DistanceMeters>
          </Trackpoint>
          <Trackpoint>
            <Time>2022-07-14T07:42:40.000Z</Time>
            <Position>
              <LatitudeDegrees>43.4477908909320831298828125</LatitudeDegrees>
              <LongitudeDegrees>-3.95056002773344516754150390625</LongitudeDegrees>
            </Position>
            <AltitudeMeters>83</AltitudeMeters>
            <DistanceMeters>NAN</DistanceMeters>
          </Trackpoint>
          <Trackpoint>
            <Time>2022-07-14T07:42:42.000Z</Time>
            <Position>
              <LatitudeDegrees>43.4478031285107135772705078125</LatitudeDegrees>
              <LongitudeDegrees>-3.95053806714713573455810546875</LongitudeDegrees>
            </Position>
            <AltitudeMeters>83.1999969482421875</AltitudeMeters>
            <DistanceMeters>NAN</DistanceMeters>
          </Trackpoint>
          <Trackpoint>
            <Time>2022-07-14T07:42:43.000Z</Time>
            <Position>
              <LatitudeDegrees>43.44780220650136470794677734375</LatitudeDegrees>
              <LongitudeDegrees>-3.9505269192159175872802734375</LongitudeDegrees>
            </Position>
            <AltitudeMeters>83.59999847412109375</AltitudeMeters>
            <DistanceMeters>NAN</DistanceMeters>
          </Trackpoint>
          <Trackpoint>
            <Time>2022-07-14T07:42:45.000Z</Time>
            <Position>
              <LatitudeDegrees>43.447824753820896148681640625</LatitudeDegrees>
              <LongitudeDegrees>-3.95047704689204692840576171875</LongitudeDegrees>
            </Position>
            <AltitudeMeters>83.8000030517578125</AltitudeMeters>
            <DistanceMeters>NAN</DistanceMeters>
          </Trackpoint>
          <Trackpoint>
            <Time>2022-07-14T07:42:47.000Z</Time>
            <Position>
              <LatitudeDegrees>43.447857610881328582763671875</LatitudeDegrees>
              <LongitudeDegrees>-3.95042323507368564605712890625</LongitudeDegrees>
            </Position>
            <AltitudeMeters>84.1999969482421875</AltitudeMeters>
            <DistanceMeters>NAN</DistanceMeters>
          </Trackpoint>
          <Trackpoint>
            <Time>2022-07-14T07:42:51.000Z</Time>
            <Position>
              <LatitudeDegrees>43.447892479598522186279296875</LatitudeDegrees>
              <LongitudeDegrees>-3.9503213949501514434814453125</LongitudeDegrees>
            </Position>
            <AltitudeMeters>84.59999847412109375</AltitudeMeters>
            <DistanceMeters>NAN</DistanceMeters>
          </Trackpoint>
          <Trackpoint>
            <Time>2022-07-14T07:42:52.000Z</Time>
            <Position>
              <LatitudeDegrees>43.447902537882328033447265625</LatitudeDegrees>
              <LongitudeDegrees>-3.95030706189572811126708984375</LongitudeDegrees>
            </Position>
            <AltitudeMeters>85</AltitudeMeters>
            <DistanceMeters>NAN</DistanceMeters>
          </Trackpoint>
          <Trackpoint>
            <Time>2022-07-14T07:42:53.000Z</Time>
            <Position>
              <LatitudeDegrees>43.44790421426296234130859375</LatitudeDegrees>
              <LongitudeDegrees>-3.9502878673374652862548828125</LongitudeDegrees>
            </Position>
            <AltitudeMeters>85</AltitudeMeters>
            <DistanceMeters>NAN</DistanceMeters>
          </Trackpoint>
          <Trackpoint>
            <Time>2022-07-14T07:42:56.000Z</Time>
            <Position>
              <LatitudeDegrees>43.447913937270641326904296875</LatitudeDegrees>
              <LongitudeDegrees>-3.95025609992444515228271484375</LongitudeDegrees>
            </Position>
            <AltitudeMeters>85.40000152587890625</AltitudeMeters>
            <DistanceMeters>NAN</DistanceMeters>
          </Trackpoint>
          <Trackpoint>
            <Time>2022-07-14T07:42:58.000Z</Time>
            <Position>
              <LatitudeDegrees>43.447923325002193450927734375</LatitudeDegrees>
              <LongitudeDegrees>-3.95022424869239330291748046875</LongitudeDegrees>
            </Position>
            <AltitudeMeters>85.8000030517578125</AltitudeMeters>
            <DistanceMeters>NAN</DistanceMeters>
          </Trackpoint>
          <Trackpoint>
            <Time>2022-07-14T07:42:59.000Z</Time>
            <Position>
              <LatitudeDegrees>43.44792994670569896697998046875</LatitudeDegrees>
              <LongitudeDegrees>-3.95020924508571624755859375</LongitudeDegrees>
            </Position>
            <AltitudeMeters>86</AltitudeMeters>
            <DistanceMeters>NAN</DistanceMeters>
          </Trackpoint>
          <Trackpoint>
            <Time>2022-07-14T07:43:00.000Z</Time>
            <Position>
              <LatitudeDegrees>43.4479419328272342681884765625</LatitudeDegrees>
              <LongitudeDegrees>-3.9501960016787052154541015625</LongitudeDegrees>
            </Position>
            <AltitudeMeters>86.1999969482421875</AltitudeMeters>
            <DistanceMeters>NAN</DistanceMeters>
          </Trackpoint>
          <Trackpoint>
            <Time>2022-07-14T07:43:01.000Z</Time>
            <Position>
              <LatitudeDegrees>43.44794972799718379974365234375</LatitudeDegrees>
              <LongitudeDegrees>-3.9501866139471530914306640625</LongitudeDegrees>
            </Position>
            <AltitudeMeters>86.1999969482421875</AltitudeMeters>
            <DistanceMeters>NAN</DistanceMeters>
          </Trackpoint>
          <Trackpoint>
            <Time>2022-07-14T07:43:02.000Z</Time>
            <Position>
              <LatitudeDegrees>43.4479529969394207000732421875</LatitudeDegrees>
              <LongitudeDegrees>-3.95017663948237895965576171875</LongitudeDegrees>
            </Position>
            <AltitudeMeters>86.1999969482421875</AltitudeMeters>
            <DistanceMeters>NAN</DistanceMeters>
          </Trackpoint>
          <Trackpoint>
            <Time>2022-07-14T07:43:05.000Z</Time>
            <Position>
              <LatitudeDegrees>43.44796380959451198577880859375</LatitudeDegrees>
              <LongitudeDegrees>-3.950140513479709625244140625</LongitudeDegrees>
            </Position>
            <AltitudeMeters>86.59999847412109375</AltitudeMeters>
            <DistanceMeters>NAN</DistanceMeters>
          </Trackpoint>
          <Trackpoint>
            <Time>2022-07-14T07:43:07.000Z</Time>
            <Position>
              <LatitudeDegrees>43.44797001220285892486572265625</LatitudeDegrees>
              <LongitudeDegrees>-3.95011360757052898406982421875</LongitudeDegrees>
            </Position>
            <AltitudeMeters>86.8000030517578125</AltitudeMeters>
            <DistanceMeters>NAN</DistanceMeters>
          </Trackpoint>
          <Trackpoint>
            <Time>2022-07-14T07:43:08.000Z</Time>
            <Position>
              <LatitudeDegrees>43.44797537662088871002197265625</LatitudeDegrees>
              <LongitudeDegrees>-3.95009214989840984344482421875</LongitudeDegrees>
            </Position>
            <AltitudeMeters>87</AltitudeMeters>
            <DistanceMeters>NAN</DistanceMeters>
          </Trackpoint>
          <Trackpoint>
            <Time>2022-07-14T07:43:10.000Z</Time>
            <Position>
              <LatitudeDegrees>43.44800035469233989715576171875</LatitudeDegrees>
              <LongitudeDegrees>-3.9500531740486621856689453125</LongitudeDegrees>
            </Position>
            <AltitudeMeters>87.1999969482421875</AltitudeMeters>
            <DistanceMeters>NAN</DistanceMeters>
          </Trackpoint>
          <Trackpoint>
            <Time>2022-07-14T07:43:14.000Z</Time>
            <Position>
              <LatitudeDegrees>43.4480478800833225250244140625</LatitudeDegrees>
              <LongitudeDegrees>-3.94997044466435909271240234375</LongitudeDegrees>
            </Position>
            <AltitudeMeters>87.59999847412109375</AltitudeMeters>
            <DistanceMeters>NAN</DistanceMeters>
          </Trackpoint>
          <Trackpoint>
            <Time>2022-07-14T07:43:17.000Z</Time>
            <Position>
              <LatitudeDegrees>43.44806338660418987274169921875</LatitudeDegrees>
              <LongitudeDegrees>-3.9499254338443279266357421875</LongitudeDegrees>
            </Position>
            <AltitudeMeters>88</AltitudeMeters>
            <DistanceMeters>NAN</DistanceMeters>
          </Trackpoint>
          <Trackpoint>
            <Time>2022-07-14T07:43:19.000Z</Time>
            <Position>
              <LatitudeDegrees>43.44807051122188568115234375</LatitudeDegrees>
              <LongitudeDegrees>-3.9499163813889026641845703125</LongitudeDegrees>
            </Position>
            <AltitudeMeters>88.1999969482421875</AltitudeMeters>
            <DistanceMeters>NAN</DistanceMeters>
          </Trackpoint>
          <Trackpoint>
            <Time>2022-07-14T07:43:20.000Z</Time>
            <Position>
              <LatitudeDegrees>43.4480770491063594818115234375</LatitudeDegrees>
              <LongitudeDegrees>-3.949898444116115570068359375</LongitudeDegrees>
            </Position>
            <AltitudeMeters>88.1999969482421875</AltitudeMeters>
            <DistanceMeters>NAN</DistanceMeters>
          </Trackpoint>
          <Trackpoint>
            <Time>2022-07-14T07:43:21.000Z</Time>
            <Position>
              <LatitudeDegrees>43.4480884484946727752685546875</LatitudeDegrees>
              <LongitudeDegrees>-3.94988696090877056121826171875</LongitudeDegrees>
            </Position>
            <AltitudeMeters>88.40000152587890625</AltitudeMeters>
            <DistanceMeters>NAN</DistanceMeters>
          </Trackpoint>
          <Trackpoint>
            <Time>2022-07-14T07:43:24.000Z</Time>
            <Position>
              <LatitudeDegrees>43.44809959642589092254638671875</LatitudeDegrees>
              <LongitudeDegrees>-3.9498815126717090606689453125</LongitudeDegrees>
            </Position>
            <AltitudeMeters>88.8000030517578125</AltitudeMeters>
            <DistanceMeters>NAN</DistanceMeters>
          </Trackpoint>
          <Trackpoint>
            <Time>2022-07-14T07:43:26.000Z</Time>
            <Position>
              <LatitudeDegrees>43.44811384566128253936767578125</LatitudeDegrees>
              <LongitudeDegrees>-3.94986324012279510498046875</LongitudeDegrees>
            </Position>
            <AltitudeMeters>89</AltitudeMeters>
            <DistanceMeters>NAN</DistanceMeters>
          </Trackpoint>
          <Trackpoint>
            <Time>2022-07-14T07:43:28.000Z</Time>
            <Position>
              <LatitudeDegrees>43.44813295640051364898681640625</LatitudeDegrees>
              <LongitudeDegrees>-3.94984203390777111053466796875</LongitudeDegrees>
            </Position>
            <AltitudeMeters>89.40000152587890625</AltitudeMeters>
            <DistanceMeters>NAN</DistanceMeters>
          </Trackpoint>
          <Trackpoint>
            <Time>2022-07-14T07:43:30.000Z</Time>
            <Position>
              <LatitudeDegrees>43.44815709628164768218994140625</LatitudeDegrees>
              <LongitudeDegrees>-3.94982426427304744720458984375</LongitudeDegrees>
            </Position>
            <AltitudeMeters>89.40000152587890625</AltitudeMeters>
            <DistanceMeters>NAN</DistanceMeters>
          </Trackpoint>
          <Trackpoint>
            <Time>2022-07-14T07:43:31.000Z</Time>
            <Position>
              <LatitudeDegrees>43.44816849566996097564697265625</LatitudeDegrees>
              <LongitudeDegrees>-3.949817977845668792724609375</LongitudeDegrees>
            </Position>
            <AltitudeMeters>89.59999847412109375</AltitudeMeters>
            <DistanceMeters>NAN</DistanceMeters>
          </Trackpoint>
          <Trackpoint>
            <Time>2022-07-14T07:43:34.000Z</Time>
            <Position>
              <LatitudeDegrees>43.44820604659616947174072265625</LatitudeDegrees>
              <LongitudeDegrees>-3.94978336058557033538818359375</LongitudeDegrees>
            </Position>
            <AltitudeMeters>90</AltitudeMeters>
            <DistanceMeters>NAN</DistanceMeters>
          </Trackpoint>
          <Trackpoint>
            <Time>2022-07-14T07:43:37.000Z</Time>
            <Position>
              <LatitudeDegrees>43.4482503868639469146728515625</LatitudeDegrees>
              <LongitudeDegrees>-3.94974933005869388580322265625</LongitudeDegrees>
            </Position>
            <AltitudeMeters>90.40000152587890625</AltitudeMeters>
            <DistanceMeters>NAN</DistanceMeters>
          </Trackpoint>
          <Trackpoint>
            <Time>2022-07-14T07:43:39.000Z</Time>
            <Position>
              <LatitudeDegrees>43.44827293418347835540771484375</LatitudeDegrees>
              <LongitudeDegrees>-3.9497091807425022125244140625</LongitudeDegrees>
            </Position>
            <AltitudeMeters>90.8000030517578125</AltitudeMeters>
            <DistanceMeters>NAN</DistanceMeters>
          </Trackpoint>
          <Trackpoint>
            <Time>2022-07-14T07:43:42.000Z</Time>
            <Position>
              <LatitudeDegrees>43.44827930442988872528076171875</LatitudeDegrees>
              <LongitudeDegrees>-3.94970289431512355804443359375</LongitudeDegrees>
            </Position>
            <AltitudeMeters>91.1999969482421875</AltitudeMeters>
            <DistanceMeters>NAN</DistanceMeters>
          </Trackpoint>
          <Trackpoint>
            <Time>2022-07-14T07:43:45.000Z</Time>
            <Position>
              <LatitudeDegrees>43.4483053721487522125244140625</LatitudeDegrees>
              <LongitudeDegrees>-3.9496488310396671295166015625</LongitudeDegrees>
            </Position>
            <AltitudeMeters>91.59999847412109375</AltitudeMeters>
            <DistanceMeters>NAN</DistanceMeters>
          </Trackpoint>
          <Trackpoint>
            <Time>2022-07-14T07:43:46.000Z</Time>
            <Position>
              <LatitudeDegrees>43.448318280279636383056640625</LatitudeDegrees>
              <LongitudeDegrees>-3.9496327377855777740478515625</LongitudeDegrees>
            </Position>
            <AltitudeMeters>91.59999847412109375</AltitudeMeters>
            <DistanceMeters>NAN</DistanceMeters>
          </Trackpoint>
          <Trackpoint>
            <Time>2022-07-14T07:43:47.000Z</Time>
            <Position>
              <LatitudeDegrees>43.4483345411717891693115234375</LatitudeDegrees>
              <LongitudeDegrees>-3.94961840473115444183349609375</LongitudeDegrees>
            </Position>
            <AltitudeMeters>91.8000030517578125</AltitudeMeters>
            <DistanceMeters>NAN</DistanceMeters>
          </Trackpoint>
          <Trackpoint>
            <Time>2022-07-14T07:43:52.000Z</Time>
            <Position>
              <LatitudeDegrees>43.4484552405774593353271484375</LatitudeDegrees>
              <LongitudeDegrees>-3.94943810999393463134765625</LongitudeDegrees>
            </Position>
            <AltitudeMeters>92.40000152587890625</AltitudeMeters>
            <DistanceMeters>NAN</DistanceMeters>
          </Trackpoint>
          <Trackpoint>
            <Time>2022-07-14T07:43:53.000Z</Time>
            <Position>
              <LatitudeDegrees>43.4484689868986606597900390625</LatitudeDegrees>
              <LongitudeDegrees>-3.94943014718592166900634765625</LongitudeDegrees>
            </Position>
            <AltitudeMeters>92.59999847412109375</AltitudeMeters>
            <DistanceMeters>NAN</DistanceMeters>
          </Trackpoint>
          <Trackpoint>
            <Time>2022-07-14T07:43:54.000Z</Time>
            <Position>
              <LatitudeDegrees>43.44844258390367031097412109375</LatitudeDegrees>
              <LongitudeDegrees>-3.9494094438850879669189453125</LongitudeDegrees>
            </Position>
            <AltitudeMeters>92.8000030517578125</AltitudeMeters>
            <DistanceMeters>NAN</DistanceMeters>
          </Trackpoint>
          <Trackpoint>
            <Time>2022-07-14T07:43:56.000Z</Time>
            <Position>
              <LatitudeDegrees>43.44844560138881206512451171875</LatitudeDegrees>
              <LongitudeDegrees>-3.9493797719478607177734375</LongitudeDegrees>
            </Position>
            <AltitudeMeters>93.1999969482421875</AltitudeMeters>
            <DistanceMeters>NAN</DistanceMeters>
          </Trackpoint>
          <Trackpoint>
            <Time>2022-07-14T07:43:59.000Z</Time>
            <Position>
              <LatitudeDegrees>43.44844811595976352691650390625</LatitudeDegrees>
              <LongitudeDegrees>-3.94933559931814670562744140625</LongitudeDegrees>
            </Position>
            <AltitudeMeters>93.8000030517578125</AltitudeMeters>
            <DistanceMeters>NAN</DistanceMeters>
          </Trackpoint>
          <Trackpoint>
            <Time>2022-07-14T07:44:05.000Z</Time>
            <Position>
              <LatitudeDegrees>43.4484532289206981658935546875</LatitudeDegrees>
              <LongitudeDegrees>-3.94923015497624874114990234375</LongitudeDegrees>
            </Position>
            <AltitudeMeters>94.8000030517578125</AltitudeMeters>
            <DistanceMeters>NAN</DistanceMeters>
          </Trackpoint>
          <Trackpoint>
            <Time>2022-07-14T07:44:06.000Z</Time>
            <Position>
              <LatitudeDegrees>43.448457755148410797119140625</LatitudeDegrees>
              <LongitudeDegrees>-3.94920769147574901580810546875</LongitudeDegrees>
            </Position>
            <AltitudeMeters>95</AltitudeMeters>
            <DistanceMeters>NAN</DistanceMeters>
          </Trackpoint>
          <Trackpoint>
            <Time>2022-07-14T07:44:09.000Z</Time>
            <Position>
              <LatitudeDegrees>43.44847158528864383697509765625</LatitudeDegrees>
              <LongitudeDegrees>-3.9491569809615612030029296875</LongitudeDegrees>
            </Position>
            <AltitudeMeters>95.59999847412109375</AltitudeMeters>
            <DistanceMeters>NAN</DistanceMeters>
          </Trackpoint>
          <Trackpoint>
            <Time>2022-07-14T07:44:11.000Z</Time>
            <Position>
              <LatitudeDegrees>43.44847158528864383697509765625</LatitudeDegrees>
              <LongitudeDegrees>-3.94912772811949253082275390625</LongitudeDegrees>
            </Position>
            <AltitudeMeters>96</AltitudeMeters>
            <DistanceMeters>NAN</DistanceMeters>
          </Trackpoint>
          <Trackpoint>
            <Time>2022-07-14T07:44:12.000Z</Time>
            <Position>
              <LatitudeDegrees>43.44846907071769237518310546875</LatitudeDegrees>
              <LongitudeDegrees>-3.949113227427005767822265625</LongitudeDegrees>
            </Position>
            <AltitudeMeters>96.1999969482421875</AltitudeMeters>
            <DistanceMeters>NAN</DistanceMeters>
          </Trackpoint>
          <Trackpoint>
            <Time>2022-07-14T07:44:16.000Z</Time>
            <Position>
              <LatitudeDegrees>43.4484673105180263519287109375</LatitudeDegrees>
              <LongitudeDegrees>-3.949037455022335052490234375</LongitudeDegrees>
            </Position>
            <AltitudeMeters>97.1999969482421875</AltitudeMeters>
            <DistanceMeters>NAN</DistanceMeters>
          </Trackpoint>
          <Trackpoint>
            <Time>2022-07-14T07:44:19.000Z</Time>
            <Position>
              <LatitudeDegrees>43.44847158528864383697509765625</LatitudeDegrees>
              <LongitudeDegrees>-3.94899093545973300933837890625</LongitudeDegrees>
            </Position>
            <AltitudeMeters>97.59999847412109375</AltitudeMeters>
            <DistanceMeters>NAN</DistanceMeters>
          </Trackpoint>
          <Trackpoint>
            <Time>2022-07-14T07:44:22.000Z</Time>
            <Position>
              <LatitudeDegrees>43.44846881926059722900390625</LatitudeDegrees>
              <LongitudeDegrees>-3.9489420689642429351806640625</LongitudeDegrees>
            </Position>
            <AltitudeMeters>98.1999969482421875</AltitudeMeters>
            <DistanceMeters>NAN</DistanceMeters>
          </Trackpoint>
          <Trackpoint>
            <Time>2022-07-14T07:44:26.000Z</Time>
            <Position>
              <LatitudeDegrees>43.44846605323255062103271484375</LatitudeDegrees>
              <LongitudeDegrees>-3.94886956550180912017822265625</LongitudeDegrees>
            </Position>
            <AltitudeMeters>99.40000152587890625</AltitudeMeters>
            <DistanceMeters>NAN</DistanceMeters>
          </Trackpoint>
          <Trackpoint>
            <Time>2022-07-14T07:44:28.000Z</Time>
            <Position>
              <LatitudeDegrees>43.44846538268029689788818359375</LatitudeDegrees>
              <LongitudeDegrees>-3.9488357864320278167724609375</LongitudeDegrees>
            </Position>
            <AltitudeMeters>99.8000030517578125</AltitudeMeters>
            <DistanceMeters>NAN</DistanceMeters>
          </Trackpoint>
          <Trackpoint>
            <Time>2022-07-14T07:44:31.000Z</Time>
            <Position>
              <LatitudeDegrees>43.4484709985554218292236328125</LatitudeDegrees>
              <LongitudeDegrees>-3.9488082937896251678466796875</LongitudeDegrees>
            </Position>
            <AltitudeMeters>100.59999847412109375</AltitudeMeters>
            <DistanceMeters>NAN</DistanceMeters>
          </Trackpoint>
          <Trackpoint>
            <Time>2022-07-14T07:44:32.000Z</Time>
            <Position>
              <LatitudeDegrees>43.4484709985554218292236328125</LatitudeDegrees>
              <LongitudeDegrees>-3.9487945474684238433837890625</LongitudeDegrees>
            </Position>
            <AltitudeMeters>100.8000030517578125</AltitudeMeters>
            <DistanceMeters>NAN</DistanceMeters>
          </Trackpoint>
          <Trackpoint>
            <Time>2022-07-14T07:44:33.000Z</Time>
            <Position>
              <LatitudeDegrees>43.44848885200917720794677734375</LatitudeDegrees>
              <LongitudeDegrees>-3.94876931793987751007080078125</LongitudeDegrees>
            </Position>
            <AltitudeMeters>101</AltitudeMeters>
            <DistanceMeters>NAN</DistanceMeters>
          </Trackpoint>
          <Trackpoint>
            <Time>2022-07-14T07:44:35.000Z</Time>
            <Position>
              <LatitudeDegrees>43.4485068731009960174560546875</LatitudeDegrees>
              <LongitudeDegrees>-3.94871525466442108154296875</LongitudeDegrees>
            </Position>
            <AltitudeMeters>101.40000152587890625</AltitudeMeters>
            <DistanceMeters>NAN</DistanceMeters>
          </Trackpoint>
          <Trackpoint>
            <Time>2022-07-14T07:44:36.000Z</Time>
            <Position>
              <LatitudeDegrees>43.448506034910678863525390625</LatitudeDegrees>
              <LongitudeDegrees>-3.9486958086490631103515625</LongitudeDegrees>
            </Position>
            <AltitudeMeters>101.59999847412109375</AltitudeMeters>
            <DistanceMeters>NAN</DistanceMeters>
          </Trackpoint>
          <Trackpoint>
            <Time>2022-07-14T07:44:38.000Z</Time>
            <Position>
              <LatitudeDegrees>43.4484961442649364471435546875</LatitudeDegrees>
              <LongitudeDegrees>-3.948666639626026153564453125</LongitudeDegrees>
            </Position>
            <AltitudeMeters>102.1999969482421875</AltitudeMeters>
            <DistanceMeters>NAN</DistanceMeters>
          </Trackpoint>
          <Trackpoint>
            <Time>2022-07-14T07:44:39.000Z</Time>
            <Position>
              <LatitudeDegrees>43.4484917856752872467041015625</LatitudeDegrees>
              <LongitudeDegrees>-3.9486513845622539520263671875</LongitudeDegrees>
            </Position>
            <AltitudeMeters>102.40000152587890625</AltitudeMeters>
            <DistanceMeters>NAN</DistanceMeters>
          </Trackpoint>
          <Trackpoint>
            <Time>2022-07-14T07:44:41.000Z</Time>
            <Position>
              <LatitudeDegrees>43.44849840737879276275634765625</LatitudeDegrees>
              <LongitudeDegrees>-3.94860486499965190887451171875</LongitudeDegrees>
            </Position>
            <AltitudeMeters>102.8000030517578125</AltitudeMeters>
            <DistanceMeters>NAN</DistanceMeters>
          </Trackpoint>
          <Trackpoint>
            <Time>2022-07-14T07:44:44.000Z</Time>
            <Position>
              <LatitudeDegrees>43.4484948031604290008544921875</LatitudeDegrees>
              <LongitudeDegrees>-3.94856563769280910491943359375</LongitudeDegrees>
            </Position>
            <AltitudeMeters>103.40000152587890625</AltitudeMeters>
            <DistanceMeters>NAN</DistanceMeters>
          </Trackpoint>
          <Trackpoint>
            <Time>2022-07-14T07:44:46.000Z</Time>
            <Position>
              <LatitudeDegrees>43.448493964970111846923828125</LatitudeDegrees>
              <LongitudeDegrees>-3.948539234697818756103515625</LongitudeDegrees>
            </Position>
            <AltitudeMeters>103.8000030517578125</AltitudeMeters>
            <DistanceMeters>NAN</DistanceMeters>
          </Trackpoint>
          <Trackpoint>
            <Time>2022-07-14T07:44:50.000Z</Time>
            <Position>
              <LatitudeDegrees>43.4484709985554218292236328125</LatitudeDegrees>
              <LongitudeDegrees>-3.948485590517520904541015625</LongitudeDegrees>
            </Position>
            <AltitudeMeters>104.40000152587890625</AltitudeMeters>
            <DistanceMeters>NAN</DistanceMeters>
          </Trackpoint>
          <Trackpoint>
            <Time>2022-07-14T07:44:51.000Z</Time>
            <Position>
              <LatitudeDegrees>43.4484641253948211669921875</LatitudeDegrees>
              <LongitudeDegrees>-3.94846421666443347930908203125</LongitudeDegrees>
            </Position>
            <AltitudeMeters>104.40000152587890625</AltitudeMeters>
            <DistanceMeters>NAN</DistanceMeters>
          </Trackpoint>
          <Trackpoint>
            <Time>2022-07-14T07:44:53.000Z</Time>
            <Position>
              <LatitudeDegrees>43.44845314510166645050048828125</LatitudeDegrees>
              <LongitudeDegrees>-3.94841576926410198211669921875</LongitudeDegrees>
            </Position>
            <AltitudeMeters>104.8000030517578125</AltitudeMeters>
            <DistanceMeters>NAN</DistanceMeters>
          </Trackpoint>
          <Trackpoint>
            <Time>2022-07-14T07:44:55.000Z</Time>
            <Position>
              <LatitudeDegrees>43.4484478645026683807373046875</LatitudeDegrees>
              <LongitudeDegrees>-3.94839766435325145721435546875</LongitudeDegrees>
            </Position>
            <AltitudeMeters>105.40000152587890625</AltitudeMeters>
            <DistanceMeters>NAN</DistanceMeters>
          </Trackpoint>
          <Trackpoint>
            <Time>2022-07-14T07:44:56.000Z</Time>
            <Position>
              <LatitudeDegrees>43.44843688420951366424560546875</LatitudeDegrees>
              <LongitudeDegrees>-3.94838157109916210174560546875</LongitudeDegrees>
            </Position>
            <AltitudeMeters>105.40000152587890625</AltitudeMeters>
            <DistanceMeters>NAN</DistanceMeters>
          </Trackpoint>
          <Trackpoint>
            <Time>2022-07-14T07:45:01.000Z</Time>
            <Position>
              <LatitudeDegrees>43.44840017147362232208251953125</LatitudeDegrees>
              <LongitudeDegrees>-3.9483486302196979522705078125</LongitudeDegrees>
            </Position>
            <AltitudeMeters>106</AltitudeMeters>
            <DistanceMeters>NAN</DistanceMeters>
          </Trackpoint>
          <Trackpoint>
            <Time>2022-07-14T07:45:03.000Z</Time>
            <Position>
              <LatitudeDegrees>43.44838776625692844390869140625</LatitudeDegrees>
              <LongitudeDegrees>-3.94831719808280467987060546875</LongitudeDegrees>
            </Position>
            <AltitudeMeters>106.1999969482421875</AltitudeMeters>
            <DistanceMeters>NAN</DistanceMeters>
          </Trackpoint>
          <Trackpoint>
            <Time>2022-07-14T07:45:08.000Z</Time>
            <Position>
              <LatitudeDegrees>43.4483603574335575103759765625</LatitudeDegrees>
              <LongitudeDegrees>-3.948210664093494415283203125</LongitudeDegrees>
            </Position>
            <AltitudeMeters>106.8000030517578125</AltitudeMeters>
            <DistanceMeters>NAN</DistanceMeters>
          </Trackpoint>
          <Trackpoint>
            <Time>2022-07-14T07:45:10.000Z</Time>
            <Position>
              <LatitudeDegrees>43.44834937714040279388427734375</LatitudeDegrees>
              <LongitudeDegrees>-3.94816808402538299560546875</LongitudeDegrees>
            </Position>
            <AltitudeMeters>107</AltitudeMeters>
            <DistanceMeters>NAN</DistanceMeters>
          </Trackpoint>
          <Trackpoint>
            <Time>2022-07-14T07:45:11.000Z</Time>
            <Position>
              <LatitudeDegrees>43.4483442641794681549072265625</LatitudeDegrees>
              <LongitudeDegrees>-3.9481432735919952392578125</LongitudeDegrees>
            </Position>
            <AltitudeMeters>107</AltitudeMeters>
            <DistanceMeters>NAN</DistanceMeters>
          </Trackpoint>
          <Trackpoint>
            <Time>2022-07-14T07:45:13.000Z</Time>
            <Position>
              <LatitudeDegrees>43.44832775183022022247314453125</LatitudeDegrees>
              <LongitudeDegrees>-3.9481005258858203887939453125</LongitudeDegrees>
            </Position>
            <AltitudeMeters>107.40000152587890625</AltitudeMeters>
            <DistanceMeters>NAN</DistanceMeters>
          </Trackpoint>
          <Trackpoint>
            <Time>2022-07-14T07:45:16.000Z</Time>
            <Position>
              <LatitudeDegrees>43.44831534661352634429931640625</LatitudeDegrees>
              <LongitudeDegrees>-3.94804126583039760589599609375</LongitudeDegrees>
            </Position>
            <AltitudeMeters>107.59999847412109375</AltitudeMeters>
            <DistanceMeters>NAN</DistanceMeters>
          </Trackpoint>
          <Trackpoint>
            <Time>2022-07-14T07:45:17.000Z</Time>
            <Position>
              <LatitudeDegrees>43.448313586413860321044921875</LatitudeDegrees>
              <LongitudeDegrees>-3.94801544956862926483154296875</LongitudeDegrees>
            </Position>
            <AltitudeMeters>107.8000030517578125</AltitudeMeters>
            <DistanceMeters>NAN</DistanceMeters>
          </Trackpoint>
          <Trackpoint>
            <Time>2022-07-14T07:45:19.000Z</Time>
            <Position>
              <LatitudeDegrees>43.4483023546636104583740234375</LatitudeDegrees>
              <LongitudeDegrees>-3.9479875378310680389404296875</LongitudeDegrees>
            </Position>
            <AltitudeMeters>108</AltitudeMeters>
            <DistanceMeters>NAN</DistanceMeters>
          </Trackpoint>
          <Trackpoint>
            <Time>2022-07-14T07:45:20.000Z</Time>
            <Position>
              <LatitudeDegrees>43.44829154200851917266845703125</LatitudeDegrees>
              <LongitudeDegrees>-3.9479684270918369293212890625</LongitudeDegrees>
            </Position>
            <AltitudeMeters>108.1999969482421875</AltitudeMeters>
            <DistanceMeters>NAN</DistanceMeters>
          </Trackpoint>
          <Trackpoint>
            <Time>2022-07-14T07:45:25.000Z</Time>
            <Position>
              <LatitudeDegrees>43.4482842497527599334716796875</LatitudeDegrees>
              <LongitudeDegrees>-3.94785694777965545654296875</LongitudeDegrees>
            </Position>
            <AltitudeMeters>108.8000030517578125</AltitudeMeters>
            <DistanceMeters>NAN</DistanceMeters>
          </Trackpoint>
          <Trackpoint>
            <Time>2022-07-14T07:45:26.000Z</Time>
            <Position>
              <LatitudeDegrees>43.448282070457935333251953125</LatitudeDegrees>
              <LongitudeDegrees>-3.94783339463174343109130859375</LongitudeDegrees>
            </Position>
            <AltitudeMeters>109</AltitudeMeters>
            <DistanceMeters>NAN</DistanceMeters>
          </Trackpoint>
          <Trackpoint>
            <Time>2022-07-14T07:45:27.000Z</Time>
            <Position>
              <LatitudeDegrees>43.4482440166175365447998046875</LatitudeDegrees>
              <LongitudeDegrees>-3.94781579263508319854736328125</LongitudeDegrees>
            </Position>
            <AltitudeMeters>109</AltitudeMeters>
            <DistanceMeters>NAN</DistanceMeters>
          </Trackpoint>
          <Trackpoint>
            <Time>2022-07-14T07:45:29.000Z</Time>
            <Position>
              <LatitudeDegrees>43.44820638187229633331298828125</LatitudeDegrees>
              <LongitudeDegrees>-3.94779433496296405792236328125</LongitudeDegrees>
            </Position>
            <AltitudeMeters>109.1999969482421875</AltitudeMeters>
            <DistanceMeters>NAN</DistanceMeters>
          </Trackpoint>
          <Trackpoint>
            <Time>2022-07-14T07:45:31.000Z</Time>
            <Position>
              <LatitudeDegrees>43.44819330610334873199462890625</LatitudeDegrees>
              <LongitudeDegrees>-3.94776466302573680877685546875</LongitudeDegrees>
            </Position>
            <AltitudeMeters>109.1999969482421875</AltitudeMeters>
            <DistanceMeters>NAN</DistanceMeters>
          </Trackpoint>
          <Trackpoint>
            <Time>2022-07-14T07:45:35.000Z</Time>
            <Position>
              <LatitudeDegrees>43.448162041604518890380859375</LatitudeDegrees>
              <LongitudeDegrees>-3.9476975239813327789306640625</LongitudeDegrees>
            </Position>
            <AltitudeMeters>109.8000030517578125</AltitudeMeters>
            <DistanceMeters>NAN</DistanceMeters>
          </Trackpoint>
          <Trackpoint>
            <Time>2022-07-14T07:45:38.000Z</Time>
            <Position>
              <LatitudeDegrees>43.448135554790496826171875</LatitudeDegrees>
              <LongitudeDegrees>-3.9476604759693145751953125</LongitudeDegrees>
            </Position>
            <AltitudeMeters>110.1999969482421875</AltitudeMeters>
            <DistanceMeters>NAN</DistanceMeters>
          </Trackpoint>
          <Trackpoint>
            <Time>2022-07-14T07:45:43.000Z</Time>
            <Position>
              <LatitudeDegrees>43.44811820425093173980712890625</LatitudeDegrees>
              <LongitudeDegrees>-3.9475577138364315032958984375</LongitudeDegrees>
            </Position>
            <AltitudeMeters>110.8000030517578125</AltitudeMeters>
            <DistanceMeters>NAN</DistanceMeters>
          </Trackpoint>
          <Trackpoint>
            <Time>2022-07-14T07:45:46.000Z</Time>
            <Position>
              <LatitudeDegrees>43.44809825532138347625732421875</LatitudeDegrees>
              <LongitudeDegrees>-3.94752074964344501495361328125</LongitudeDegrees>
            </Position>
            <AltitudeMeters>111.1999969482421875</AltitudeMeters>
            <DistanceMeters>NAN</DistanceMeters>
          </Trackpoint>
          <Trackpoint>
            <Time>2022-07-14T07:45:47.000Z</Time>
            <Position>
              <LatitudeDegrees>43.44809356145560741424560546875</LatitudeDegrees>
              <LongitudeDegrees>-3.9475077576935291290283203125</LongitudeDegrees>
            </Position>
            <AltitudeMeters>111.1999969482421875</AltitudeMeters>
            <DistanceMeters>NAN</DistanceMeters>
          </Trackpoint>
          <Trackpoint>
            <Time>2022-07-14T07:45:53.000Z</Time>
            <Position>
              <LatitudeDegrees>43.448062129318714141845703125</LatitudeDegrees>
              <LongitudeDegrees>-3.94742754288017749786376953125</LongitudeDegrees>
            </Position>
            <AltitudeMeters>112</AltitudeMeters>
            <DistanceMeters>NAN</DistanceMeters>
          </Trackpoint>
          <Trackpoint>
            <Time>2022-07-14T07:45:55.000Z</Time>
            <Position>
              <LatitudeDegrees>43.44804913736879825592041015625</LatitudeDegrees>
              <LongitudeDegrees>-3.9473895728588104248046875</LongitudeDegrees>
            </Position>
            <AltitudeMeters>112.1999969482421875</AltitudeMeters>
            <DistanceMeters>NAN</DistanceMeters>
          </Trackpoint>
          <Trackpoint>
            <Time>2022-07-14T07:45:56.000Z</Time>
            <Position>
              <LatitudeDegrees>43.44804075546562671661376953125</LatitudeDegrees>
              <LongitudeDegrees>-3.94736945629119873046875</LongitudeDegrees>
            </Position>
            <AltitudeMeters>112.1999969482421875</AltitudeMeters>
            <DistanceMeters>NAN</DistanceMeters>
          </Trackpoint>
          <Trackpoint>
            <Time>2022-07-14T07:46:00.000Z</Time>
            <Position>
              <LatitudeDegrees>43.4480187110602855682373046875</LatitudeDegrees>
              <LongitudeDegrees>-3.947309441864490509033203125</LongitudeDegrees>
            </Position>
            <AltitudeMeters>112.8000030517578125</AltitudeMeters>
            <DistanceMeters>NAN</DistanceMeters>
          </Trackpoint>
          <Trackpoint>
            <Time>2022-07-14T07:46:04.000Z</Time>
            <Position>
              <LatitudeDegrees>43.4479885362088680267333984375</LatitudeDegrees>
              <LongitudeDegrees>-3.94725202582776546478271484375</LongitudeDegrees>
            </Position>
            <AltitudeMeters>113.40000152587890625</AltitudeMeters>
            <DistanceMeters>NAN</DistanceMeters>
          </Trackpoint>
          <Trackpoint>
            <Time>2022-07-14T07:46:08.000Z</Time>
            <Position>
              <LatitudeDegrees>43.4479761309921741485595703125</LatitudeDegrees>
              <LongitudeDegrees>-3.9471855573356151580810546875</LongitudeDegrees>
            </Position>
            <AltitudeMeters>113.8000030517578125</AltitudeMeters>
            <DistanceMeters>NAN</DistanceMeters>
          </Trackpoint>
          <Trackpoint>
            <Time>2022-07-14T07:46:13.000Z</Time>
            <Position>
              <LatitudeDegrees>43.44794603995978832244873046875</LatitudeDegrees>
              <LongitudeDegrees>-3.9471047557890415191650390625</LongitudeDegrees>
            </Position>
            <AltitudeMeters>114.40000152587890625</AltitudeMeters>
            <DistanceMeters>NAN</DistanceMeters>
          </Trackpoint>
          <Trackpoint>
            <Time>2022-07-14T07:46:15.000Z</Time>
            <Position>
              <LatitudeDegrees>43.44791737385094165802001953125</LatitudeDegrees>
              <LongitudeDegrees>-3.9470806159079074859619140625</LongitudeDegrees>
            </Position>
            <AltitudeMeters>114.8000030517578125</AltitudeMeters>
            <DistanceMeters>NAN</DistanceMeters>
          </Trackpoint>
          <Trackpoint>
            <Time>2022-07-14T07:46:21.000Z</Time>
            <Position>
              <LatitudeDegrees>43.4478618018329143524169921875</LatitudeDegrees>
              <LongitudeDegrees>-3.94700593315064907073974609375</LongitudeDegrees>
            </Position>
            <AltitudeMeters>115.59999847412109375</AltitudeMeters>
            <DistanceMeters>NAN</DistanceMeters>
          </Trackpoint>
          <Trackpoint>
            <Time>2022-07-14T07:46:22.000Z</Time>
            <Position>
              <LatitudeDegrees>43.44785585068166255950927734375</LatitudeDegrees>
              <LongitudeDegrees>-3.946994282305240631103515625</LongitudeDegrees>
            </Position>
            <AltitudeMeters>115.8000030517578125</AltitudeMeters>
            <DistanceMeters>NAN</DistanceMeters>
          </Trackpoint>
          <Trackpoint>
            <Time>2022-07-14T07:46:24.000Z</Time>
            <Position>
              <LatitudeDegrees>43.44784160144627094268798828125</LatitudeDegrees>
              <LongitudeDegrees>-3.94697274081408977508544921875</LongitudeDegrees>
            </Position>
            <AltitudeMeters>116</AltitudeMeters>
            <DistanceMeters>NAN</DistanceMeters>
          </Trackpoint>
          <Trackpoint>
            <Time>2022-07-14T07:46:25.000Z</Time>
            <Position>
              <LatitudeDegrees>43.44783523119986057281494140625</LatitudeDegrees>
              <LongitudeDegrees>-3.9469612576067447662353515625</LongitudeDegrees>
            </Position>
            <AltitudeMeters>116.1999969482421875</AltitudeMeters>
            <DistanceMeters>NAN</DistanceMeters>
          </Trackpoint>
          <Trackpoint>
            <Time>2022-07-14T07:46:28.000Z</Time>
            <Position>
              <LatitudeDegrees>43.44780891202390193939208984375</LatitudeDegrees>
              <LongitudeDegrees>-3.946929238736629486083984375</LongitudeDegrees>
            </Position>
            <AltitudeMeters>116.59999847412109375</AltitudeMeters>
            <DistanceMeters>NAN</DistanceMeters>
          </Trackpoint>
          <Trackpoint>
            <Time>2022-07-14T07:46:29.000Z</Time>
            <Position>
              <LatitudeDegrees>43.447802960872650146484375</LatitudeDegrees>
              <LongitudeDegrees>-3.946920521557331085205078125</LongitudeDegrees>
            </Position>
            <AltitudeMeters>116.8000030517578125</AltitudeMeters>
            <DistanceMeters>NAN</DistanceMeters>
          </Trackpoint>
          <Trackpoint>
            <Time>2022-07-14T07:46:32.000Z</Time>
            <Position>
              <LatitudeDegrees>43.44777739606797695159912109375</LatitudeDegrees>
              <LongitudeDegrees>-3.94688858650624752044677734375</LongitudeDegrees>
            </Position>
            <AltitudeMeters>117.1999969482421875</AltitudeMeters>
            <DistanceMeters>NAN</DistanceMeters>
          </Trackpoint>
          <Trackpoint>
            <Time>2022-07-14T07:46:35.000Z</Time>
            <Position>
              <LatitudeDegrees>43.4477471373975276947021484375</LatitudeDegrees>
              <LongitudeDegrees>-3.946856148540973663330078125</LongitudeDegrees>
            </Position>
            <AltitudeMeters>117.40000152587890625</AltitudeMeters>
            <DistanceMeters>NAN</DistanceMeters>
          </Trackpoint>
          <Trackpoint>
            <Time>2022-07-14T07:46:37.000Z</Time>
            <Position>
              <LatitudeDegrees>43.4477250091731548309326171875</LatitudeDegrees>
              <LongitudeDegrees>-3.94684374332427978515625</LongitudeDegrees>
            </Position>
            <AltitudeMeters>117.8000030517578125</AltitudeMeters>
            <DistanceMeters>NAN</DistanceMeters>
          </Trackpoint>
          <Trackpoint>
            <Time>2022-07-14T07:46:42.000Z</Time>
            <Position>
              <LatitudeDegrees>43.447641022503376007080078125</LatitudeDegrees>
              <LongitudeDegrees>-3.94682672806084156036376953125</LongitudeDegrees>
            </Position>
            <AltitudeMeters>118.1999969482421875</AltitudeMeters>
            <DistanceMeters>NAN</DistanceMeters>
          </Trackpoint>
          <Trackpoint>
            <Time>2022-07-14T07:46:43.000Z</Time>
            <Position>
              <LatitudeDegrees>43.4476180560886859893798828125</LatitudeDegrees>
              <LongitudeDegrees>-3.94682572223246097564697265625</LongitudeDegrees>
            </Position>
            <AltitudeMeters>118.1999969482421875</AltitudeMeters>
            <DistanceMeters>NAN</DistanceMeters>
          </Trackpoint>
          <Trackpoint>
            <Time>2022-07-14T07:46:49.000Z</Time>
            <Position>
              <LatitudeDegrees>43.447536416351795196533203125</LatitudeDegrees>
              <LongitudeDegrees>-3.94687014631927013397216796875</LongitudeDegrees>
            </Position>
            <AltitudeMeters>118</AltitudeMeters>
            <DistanceMeters>NAN</DistanceMeters>
          </Trackpoint>
          <Trackpoint>
            <Time>2022-07-14T07:46:52.000Z</Time>
            <Position>
              <LatitudeDegrees>43.4474919922649860382080078125</LatitudeDegrees>
              <LongitudeDegrees>-3.94691574387252330780029296875</LongitudeDegrees>
            </Position>
            <AltitudeMeters>118.1999969482421875</AltitudeMeters>
            <DistanceMeters>NAN</DistanceMeters>
          </Trackpoint>
          <Trackpoint>
            <Time>2022-07-14T07:46:59.000Z</Time>
            <Position>
              <LatitudeDegrees>43.447404317557811737060546875</LatitudeDegrees>
              <LongitudeDegrees>-3.94702839665114879608154296875</LongitudeDegrees>
            </Position>
            <AltitudeMeters>117.8000030517578125</AltitudeMeters>
            <DistanceMeters>NAN</DistanceMeters>
          </Trackpoint>
          <Trackpoint>
            <Time>2022-07-14T07:47:06.000Z</Time>
            <Position>
              <LatitudeDegrees>43.4473256953060626983642578125</LatitudeDegrees>
              <LongitudeDegrees>-3.9471248723566532135009765625</LongitudeDegrees>
            </Position>
            <AltitudeMeters>117.40000152587890625</AltitudeMeters>
            <DistanceMeters>NAN</DistanceMeters>
          </Trackpoint>
          <Trackpoint>
            <Time>2022-07-14T07:47:11.000Z</Time>
            <Position>
              <LatitudeDegrees>43.44725587405264377593994140625</LatitudeDegrees>
              <LongitudeDegrees>-3.9471822045743465423583984375</LongitudeDegrees>
            </Position>
            <AltitudeMeters>117.1999969482421875</AltitudeMeters>
            <DistanceMeters>NAN</DistanceMeters>
          </Trackpoint>
          <Trackpoint>
            <Time>2022-07-14T07:47:12.000Z</Time>
            <Position>
              <LatitudeDegrees>43.447234667837619781494140625</LatitudeDegrees>
              <LongitudeDegrees>-3.94718195311725139617919921875</LongitudeDegrees>
            </Position>
            <AltitudeMeters>117.1999969482421875</AltitudeMeters>
            <DistanceMeters>NAN</DistanceMeters>
          </Trackpoint>
          <Trackpoint>
            <Time>2022-07-14T07:47:13.000Z</Time>
            <Position>
              <LatitudeDegrees>43.4472088515758514404296875</LatitudeDegrees>
              <LongitudeDegrees>-3.9471858926117420196533203125</LongitudeDegrees>
            </Position>
            <AltitudeMeters>117.1999969482421875</AltitudeMeters>
            <DistanceMeters>NAN</DistanceMeters>
          </Trackpoint>
          <Trackpoint>
            <Time>2022-07-14T07:47:14.000Z</Time>
            <Position>
              <LatitudeDegrees>43.44718697480857372283935546875</LatitudeDegrees>
              <LongitudeDegrees>-3.94720508717000484466552734375</LongitudeDegrees>
            </Position>
            <AltitudeMeters>117.1999969482421875</AltitudeMeters>
            <DistanceMeters>NAN</DistanceMeters>
          </Trackpoint>
          <Trackpoint>
            <Time>2022-07-14T07:47:16.000Z</Time>
            <Position>
              <LatitudeDegrees>43.4471543692052364349365234375</LatitudeDegrees>
              <LongitudeDegrees>-3.94726795144379138946533203125</LongitudeDegrees>
            </Position>
            <AltitudeMeters>117</AltitudeMeters>
            <DistanceMeters>NAN</DistanceMeters>
          </Trackpoint>
          <Trackpoint>
            <Time>2022-07-14T07:47:22.000Z</Time>
            <Position>
              <LatitudeDegrees>43.447057642042636871337890625</LatitudeDegrees>
              <LongitudeDegrees>-3.94745998084545135498046875</LongitudeDegrees>
            </Position>
            <AltitudeMeters>116.8000030517578125</AltitudeMeters>
            <DistanceMeters>NAN</DistanceMeters>
          </Trackpoint>
          <Trackpoint>
            <Time>2022-07-14T07:47:24.000Z</Time>
            <Position>
              <LatitudeDegrees>43.44701732508838176727294921875</LatitudeDegrees>
              <LongitudeDegrees>-3.94750683568418025970458984375</LongitudeDegrees>
            </Position>
            <AltitudeMeters>116.8000030517578125</AltitudeMeters>
            <DistanceMeters>NAN</DistanceMeters>
          </Trackpoint>
          <Trackpoint>
            <Time>2022-07-14T07:47:26.000Z</Time>
            <Position>
              <LatitudeDegrees>43.44697751104831695556640625</LatitudeDegrees>
              <LongitudeDegrees>-3.94754002802073955535888671875</LongitudeDegrees>
            </Position>
            <AltitudeMeters>116.59999847412109375</AltitudeMeters>
            <DistanceMeters>NAN</DistanceMeters>
          </Trackpoint>
          <Trackpoint>
            <Time>2022-07-14T07:47:30.000Z</Time>
            <Position>
              <LatitudeDegrees>43.4468936920166015625</LatitudeDegrees>
              <LongitudeDegrees>-3.94762317650020122528076171875</LongitudeDegrees>
            </Position>
            <AltitudeMeters>116.40000152587890625</AltitudeMeters>
            <DistanceMeters>NAN</DistanceMeters>
          </Trackpoint>
          <Trackpoint>
            <Time>2022-07-14T07:47:34.000Z</Time>
            <Position>
              <LatitudeDegrees>43.4468767605721950531005859375</LatitudeDegrees>
              <LongitudeDegrees>-3.94764295779168605804443359375</LongitudeDegrees>
            </Position>
            <AltitudeMeters>116</AltitudeMeters>
            <DistanceMeters>NAN</DistanceMeters>
          </Trackpoint>
          <Trackpoint>
            <Time>2022-07-14T07:49:16.000Z</Time>
            <Position>
              <LatitudeDegrees>43.44683845527470111846923828125</LatitudeDegrees>
              <LongitudeDegrees>-3.947667181491851806640625</LongitudeDegrees>
            </Position>
            <AltitudeMeters>115.40000152587890625</AltitudeMeters>
            <DistanceMeters>NAN</DistanceMeters>
          </Trackpoint>
          <Trackpoint>
            <Time>2022-07-14T07:49:18.000Z</Time>
            <Position>
              <LatitudeDegrees>43.4467889182269573211669921875</LatitudeDegrees>
              <LongitudeDegrees>-3.947698362171649932861328125</LongitudeDegrees>
            </Position>
            <AltitudeMeters>115.40000152587890625</AltitudeMeters>
            <DistanceMeters>NAN</DistanceMeters>
          </Trackpoint>
          <Trackpoint>
            <Time>2022-07-14T07:49:24.000Z</Time>
            <Position>
              <LatitudeDegrees>43.44661080278456211090087890625</LatitudeDegrees>
              <LongitudeDegrees>-3.9478321373462677001953125</LongitudeDegrees>
            </Position>
            <AltitudeMeters>115</AltitudeMeters>
            <DistanceMeters>NAN</DistanceMeters>
          </Trackpoint>
          <Trackpoint>
            <Time>2022-07-14T07:49:31.000Z</Time>
            <Position>
              <LatitudeDegrees>43.44636906869709491729736328125</LatitudeDegrees>
              <LongitudeDegrees>-3.9479965902864933013916015625</LongitudeDegrees>
            </Position>
            <AltitudeMeters>114.8000030517578125</AltitudeMeters>
            <DistanceMeters>NAN</DistanceMeters>
          </Trackpoint>
          <Trackpoint>
            <Time>2022-07-14T07:49:35.000Z</Time>
            <Position>
              <LatitudeDegrees>43.446207381784915924072265625</LatitudeDegrees>
              <LongitudeDegrees>-3.94810907542705535888671875</LongitudeDegrees>
            </Position>
            <AltitudeMeters>114.8000030517578125</AltitudeMeters>
            <DistanceMeters>NAN</DistanceMeters>
          </Trackpoint>
          <Trackpoint>
            <Time>2022-07-14T07:49:40.000Z</Time>
            <Position>
              <LatitudeDegrees>43.44598266296088695526123046875</LatitudeDegrees>
              <LongitudeDegrees>-3.94825165160000324249267578125</LongitudeDegrees>
            </Position>
            <AltitudeMeters>114.40000152587890625</AltitudeMeters>
            <DistanceMeters>NAN</DistanceMeters>
          </Trackpoint>
          <Trackpoint>
            <Time>2022-07-14T07:49:41.000Z</Time>
            <Position>
              <LatitudeDegrees>43.44593639485538005828857421875</LatitudeDegrees>
              <LongitudeDegrees>-3.948276378214359283447265625</LongitudeDegrees>
            </Position>
            <AltitudeMeters>114.40000152587890625</AltitudeMeters>
            <DistanceMeters>NAN</DistanceMeters>
          </Trackpoint>
          <Trackpoint>
            <Time>2022-07-14T07:49:47.000Z</Time>
            <Position>
              <LatitudeDegrees>43.44564311206340789794921875</LatitudeDegrees>
              <LongitudeDegrees>-3.948439657688140869140625</LongitudeDegrees>
            </Position>
            <AltitudeMeters>113</AltitudeMeters>
            <DistanceMeters>NAN</DistanceMeters>
          </Trackpoint>
          <Trackpoint>
            <Time>2022-07-14T07:49:49.000Z</Time>
            <Position>
              <LatitudeDegrees>43.44554311595857143402099609375</LatitudeDegrees>
              <LongitudeDegrees>-3.94849338568747043609619140625</LongitudeDegrees>
            </Position>
            <AltitudeMeters>112.1999969482421875</AltitudeMeters>
            <DistanceMeters>NAN</DistanceMeters>
          </Trackpoint>
          <Trackpoint>
            <Time>2022-07-14T07:49:55.000Z</Time>
            <Position>
              <LatitudeDegrees>43.4452171437442302703857421875</LatitudeDegrees>
              <LongitudeDegrees>-3.94864124245941638946533203125</LongitudeDegrees>
            </Position>
            <AltitudeMeters>112.59999847412109375</AltitudeMeters>
            <DistanceMeters>NAN</DistanceMeters>
          </Trackpoint>
          <Trackpoint>
            <Time>2022-07-14T07:49:56.000Z</Time>
            <Position>
              <LatitudeDegrees>43.44516425393521785736083984375</LatitudeDegrees>
              <LongitudeDegrees>-3.948662281036376953125</LongitudeDegrees>
            </Position>
            <AltitudeMeters>112.8000030517578125</AltitudeMeters>
            <DistanceMeters>NAN</DistanceMeters>
          </Trackpoint>
          <Trackpoint>
            <Time>2022-07-14T07:50:05.000Z</Time>
            <Position>
              <LatitudeDegrees>43.44466117210686206817626953125</LatitudeDegrees>
              <LongitudeDegrees>-3.948836959898471832275390625</LongitudeDegrees>
            </Position>
            <AltitudeMeters>112.1999969482421875</AltitudeMeters>
            <DistanceMeters>NAN</DistanceMeters>
          </Trackpoint>
          <Trackpoint>
            <Time>2022-07-14T07:50:07.000Z</Time>
            <Position>
              <LatitudeDegrees>43.44454533420503139495849609375</LatitudeDegrees>
              <LongitudeDegrees>-3.9488750137388706207275390625</LongitudeDegrees>
            </Position>
            <AltitudeMeters>111.8000030517578125</AltitudeMeters>
            <DistanceMeters>NAN</DistanceMeters>
          </Trackpoint>
          <Trackpoint>
            <Time>2022-07-14T07:50:14.000Z</Time>
            <Position>
              <LatitudeDegrees>43.44413428567349910736083984375</LatitudeDegrees>
              <LongitudeDegrees>-3.94899026490747928619384765625</LongitudeDegrees>
            </Position>
            <AltitudeMeters>110.8000030517578125</AltitudeMeters>
            <DistanceMeters>NAN</DistanceMeters>
          </Trackpoint>
          <Trackpoint>
            <Time>2022-07-14T07:50:15.000Z</Time>
            <Position>
              <LatitudeDegrees>43.44407360069453716278076171875</LatitudeDegrees>
              <LongitudeDegrees>-3.949004597961902618408203125</LongitudeDegrees>
            </Position>
            <AltitudeMeters>110.59999847412109375</AltitudeMeters>
            <DistanceMeters>NAN</DistanceMeters>
          </Trackpoint>
          <Trackpoint>
            <Time>2022-07-14T07:50:22.000Z</Time>
            <Position>
              <LatitudeDegrees>43.443651236593723297119140625</LatitudeDegrees>
              <LongitudeDegrees>-3.94911549054086208343505859375</LongitudeDegrees>
            </Position>
            <AltitudeMeters>109.59999847412109375</AltitudeMeters>
            <DistanceMeters>NAN</DistanceMeters>
          </Trackpoint>
          <Trackpoint>
            <Time>2022-07-14T07:50:25.000Z</Time>
            <Position>
              <LatitudeDegrees>43.4434797428548336029052734375</LatitudeDegrees>
              <LongitudeDegrees>-3.94914817996323108673095703125</LongitudeDegrees>
            </Position>
            <AltitudeMeters>109</AltitudeMeters>
            <DistanceMeters>NAN</DistanceMeters>
          </Trackpoint>
          <Trackpoint>
            <Time>2022-07-14T07:50:30.000Z</Time>
            <Position>
              <LatitudeDegrees>43.44316206872463226318359375</LatitudeDegrees>
              <LongitudeDegrees>-3.94919335842132568359375</LongitudeDegrees>
            </Position>
            <AltitudeMeters>108.1999969482421875</AltitudeMeters>
            <DistanceMeters>NAN</DistanceMeters>
          </Trackpoint>
          <Trackpoint>
            <Time>2022-07-14T07:50:32.000Z</Time>
            <Position>
              <LatitudeDegrees>43.4430140443146228790283203125</LatitudeDegrees>
              <LongitudeDegrees>-3.949214480817317962646484375</LongitudeDegrees>
            </Position>
            <AltitudeMeters>107.8000030517578125</AltitudeMeters>
            <DistanceMeters>NAN</DistanceMeters>
          </Trackpoint>
          <Trackpoint>
            <Time>2022-07-14T07:50:33.000Z</Time>
            <Position>
              <LatitudeDegrees>43.44294841401278972625732421875</LatitudeDegrees>
              <LongitudeDegrees>-3.949224539101123809814453125</LongitudeDegrees>
            </Position>
            <AltitudeMeters>107.59999847412109375</AltitudeMeters>
            <DistanceMeters>NAN</DistanceMeters>
          </Trackpoint>
          <Trackpoint>
            <Time>2022-07-14T07:50:35.000Z</Time>
            <Position>
              <LatitudeDegrees>43.44282905571162700653076171875</LatitudeDegrees>
              <LongitudeDegrees>-3.9492300711572170257568359375</LongitudeDegrees>
            </Position>
            <AltitudeMeters>106.8000030517578125</AltitudeMeters>
            <DistanceMeters>NAN</DistanceMeters>
          </Trackpoint>
          <Trackpoint>
            <Time>2022-07-14T07:50:39.000Z</Time>
            <Position>
              <LatitudeDegrees>43.442517332732677459716796875</LatitudeDegrees>
              <LongitudeDegrees>-3.9492562226951122283935546875</LongitudeDegrees>
            </Position>
            <AltitudeMeters>105.8000030517578125</AltitudeMeters>
            <DistanceMeters>NAN</DistanceMeters>
          </Trackpoint>
          <Trackpoint>
            <Time>2022-07-14T07:50:42.000Z</Time>
            <Position>
              <LatitudeDegrees>43.44227903522551059722900390625</LatitudeDegrees>
              <LongitudeDegrees>-3.94927223213016986846923828125</LongitudeDegrees>
            </Position>
            <AltitudeMeters>104.59999847412109375</AltitudeMeters>
            <DistanceMeters>NAN</DistanceMeters>
          </Trackpoint>
          <Trackpoint>
            <Time>2022-07-14T07:50:45.000Z</Time>
            <Position>
              <LatitudeDegrees>43.44203528948128223419189453125</LatitudeDegrees>
              <LongitudeDegrees>-3.94926971755921840667724609375</LongitudeDegrees>
            </Position>
            <AltitudeMeters>104.1999969482421875</AltitudeMeters>
            <DistanceMeters>NAN</DistanceMeters>
          </Trackpoint>
          <Trackpoint>
            <Time>2022-07-14T07:50:48.000Z</Time>
            <Position>
              <LatitudeDegrees>43.44176623038947582244873046875</LatitudeDegrees>
              <LongitudeDegrees>-3.94925463013350963592529296875</LongitudeDegrees>
            </Position>
            <AltitudeMeters>103.40000152587890625</AltitudeMeters>
            <DistanceMeters>NAN</DistanceMeters>
          </Trackpoint>
          <Trackpoint>
            <Time>2022-07-14T07:50:50.000Z</Time>
            <Position>
              <LatitudeDegrees>43.4415844269096851348876953125</LatitudeDegrees>
              <LongitudeDegrees>-3.9492340944707393646240234375</LongitudeDegrees>
            </Position>
            <AltitudeMeters>103.1999969482421875</AltitudeMeters>
            <DistanceMeters>NAN</DistanceMeters>
          </Trackpoint>
          <Trackpoint>
            <Time>2022-07-14T07:50:52.000Z</Time>
            <Position>
              <LatitudeDegrees>43.4414023719727993011474609375</LatitudeDegrees>
              <LongitudeDegrees>-3.94921288825571537017822265625</LongitudeDegrees>
            </Position>
            <AltitudeMeters>102.1999969482421875</AltitudeMeters>
            <DistanceMeters>NAN</DistanceMeters>
          </Trackpoint>
          <Trackpoint>
            <Time>2022-07-14T07:50:55.000Z</Time>
            <Position>
              <LatitudeDegrees>43.44113767147064208984375</LatitudeDegrees>
              <LongitudeDegrees>-3.9491757564246654510498046875</LongitudeDegrees>
            </Position>
            <AltitudeMeters>100.8000030517578125</AltitudeMeters>
            <DistanceMeters>NAN</DistanceMeters>
          </Trackpoint>
          <Trackpoint>
            <Time>2022-07-14T07:50:57.000Z</Time>
            <Position>
              <LatitudeDegrees>43.4409604780375957489013671875</LatitudeDegrees>
              <LongitudeDegrees>-3.9491522870957851409912109375</LongitudeDegrees>
            </Position>
            <AltitudeMeters>99.40000152587890625</AltitudeMeters>
            <DistanceMeters>NAN</DistanceMeters>
          </Trackpoint>
          <Trackpoint>
            <Time>2022-07-14T07:51:00.000Z</Time>
            <Position>
              <LatitudeDegrees>43.44067356549203395843505859375</LatitudeDegrees>
              <LongitudeDegrees>-3.94911364652216434478759765625</LongitudeDegrees>
            </Position>
            <AltitudeMeters>98.40000152587890625</AltitudeMeters>
            <DistanceMeters>NAN</DistanceMeters>
          </Trackpoint>
          <Trackpoint>
            <Time>2022-07-14T07:51:02.000Z</Time>
            <Position>
              <LatitudeDegrees>43.44049050472676753997802734375</LatitudeDegrees>
              <LongitudeDegrees>-3.9490845613181591033935546875</LongitudeDegrees>
            </Position>
            <AltitudeMeters>97.40000152587890625</AltitudeMeters>
            <DistanceMeters>NAN</DistanceMeters>
          </Trackpoint>
          <Trackpoint>
            <Time>2022-07-14T07:51:03.000Z</Time>
            <Position>
              <LatitudeDegrees>43.440396375954151153564453125</LatitudeDegrees>
              <LongitudeDegrees>-3.9490724913775920867919921875</LongitudeDegrees>
            </Position>
            <AltitudeMeters>96.8000030517578125</AltitudeMeters>
            <DistanceMeters>NAN</DistanceMeters>
          </Trackpoint>
          <Trackpoint>
            <Time>2022-07-14T07:51:05.000Z</Time>
            <Position>
              <LatitudeDegrees>43.44019697047770023345947265625</LatitudeDegrees>
              <LongitudeDegrees>-3.94906151108443737030029296875</LongitudeDegrees>
            </Position>
            <AltitudeMeters>96</AltitudeMeters>
            <DistanceMeters>NAN</DistanceMeters>
          </Trackpoint>
          <Trackpoint>
            <Time>2022-07-14T07:51:06.000Z</Time>
            <Position>
              <LatitudeDegrees>43.44010158441960811614990234375</LatitudeDegrees>
              <LongitudeDegrees>-3.94907559268176555633544921875</LongitudeDegrees>
            </Position>
            <AltitudeMeters>95.59999847412109375</AltitudeMeters>
            <DistanceMeters>NAN</DistanceMeters>
          </Trackpoint>
          <Trackpoint>
            <Time>2022-07-14T07:51:08.000Z</Time>
            <Position>
              <LatitudeDegrees>43.4399197809398174285888671875</LatitudeDegrees>
              <LongitudeDegrees>-3.9491355232894420623779296875</LongitudeDegrees>
            </Position>
            <AltitudeMeters>94.40000152587890625</AltitudeMeters>
            <DistanceMeters>NAN</DistanceMeters>
          </Trackpoint>
          <Trackpoint>
            <Time>2022-07-14T07:51:10.000Z</Time>
            <Position>
              <LatitudeDegrees>43.43973881565034389495849609375</LatitudeDegrees>
              <LongitudeDegrees>-3.94923233427107334136962890625</LongitudeDegrees>
            </Position>
            <AltitudeMeters>93.1999969482421875</AltitudeMeters>
            <DistanceMeters>NAN</DistanceMeters>
          </Trackpoint>
          <Trackpoint>
            <Time>2022-07-14T07:51:11.000Z</Time>
            <Position>
              <LatitudeDegrees>43.43965080566704273223876953125</LatitudeDegrees>
              <LongitudeDegrees>-3.94929100759327411651611328125</LongitudeDegrees>
            </Position>
            <AltitudeMeters>92.59999847412109375</AltitudeMeters>
            <DistanceMeters>NAN</DistanceMeters>
          </Trackpoint>
          <Trackpoint>
            <Time>2022-07-14T07:51:13.000Z</Time>
            <Position>
              <LatitudeDegrees>43.43948450870811939239501953125</LatitudeDegrees>
              <LongitudeDegrees>-3.9494198374450206756591796875</LongitudeDegrees>
            </Position>
            <AltitudeMeters>92</AltitudeMeters>
            <DistanceMeters>NAN</DistanceMeters>
          </Trackpoint>
          <Trackpoint>
            <Time>2022-07-14T07:51:15.000Z</Time>
            <Position>
              <LatitudeDegrees>43.4393250010907649993896484375</LatitudeDegrees>
              <LongitudeDegrees>-3.949551768600940704345703125</LongitudeDegrees>
            </Position>
            <AltitudeMeters>90.8000030517578125</AltitudeMeters>
            <DistanceMeters>NAN</DistanceMeters>
          </Trackpoint>
          <Trackpoint>
            <Time>2022-07-14T07:51:17.000Z</Time>
            <Position>
              <LatitudeDegrees>43.4391734562814235687255859375</LatitudeDegrees>
              <LongitudeDegrees>-3.9496748149394989013671875</LongitudeDegrees>
            </Position>
            <AltitudeMeters>89.8000030517578125</AltitudeMeters>
            <DistanceMeters>NAN</DistanceMeters>
          </Trackpoint>
          <Trackpoint>
            <Time>2022-07-14T07:51:18.000Z</Time>
            <Position>
              <LatitudeDegrees>43.4390966780483722686767578125</LatitudeDegrees>
              <LongitudeDegrees>-3.9497333206236362457275390625</LongitudeDegrees>
            </Position>
            <AltitudeMeters>89</AltitudeMeters>
            <DistanceMeters>NAN</DistanceMeters>
          </Trackpoint>
          <Trackpoint>
            <Time>2022-07-14T07:51:20.000Z</Time>
            <Position>
              <LatitudeDegrees>43.43893482349812984466552734375</LatitudeDegrees>
              <LongitudeDegrees>-3.94985728897154331207275390625</LongitudeDegrees>
            </Position>
            <AltitudeMeters>87.59999847412109375</AltitudeMeters>
            <DistanceMeters>NAN</DistanceMeters>
          </Trackpoint>
          <Trackpoint>
            <Time>2022-07-14T07:51:23.000Z</Time>
            <Position>
              <LatitudeDegrees>43.438678421080112457275390625</LatitudeDegrees>
              <LongitudeDegrees>-3.95001738332211971282958984375</LongitudeDegrees>
            </Position>
            <AltitudeMeters>86.40000152587890625</AltitudeMeters>
            <DistanceMeters>NAN</DistanceMeters>
          </Trackpoint>
          <Trackpoint>
            <Time>2022-07-14T07:51:26.000Z</Time>
            <Position>
              <LatitudeDegrees>43.43840978108346462249755859375</LatitudeDegrees>
              <LongitudeDegrees>-3.95011603832244873046875</LongitudeDegrees>
            </Position>
            <AltitudeMeters>85.1999969482421875</AltitudeMeters>
            <DistanceMeters>NAN</DistanceMeters>
          </Trackpoint>
          <Trackpoint>
            <Time>2022-07-14T07:51:27.000Z</Time>
            <Position>
              <LatitudeDegrees>43.438319675624370574951171875</LatitudeDegrees>
              <LongitudeDegrees>-3.950130455195903778076171875</LongitudeDegrees>
            </Position>
            <AltitudeMeters>84.59999847412109375</AltitudeMeters>
            <DistanceMeters>NAN</DistanceMeters>
          </Trackpoint>
          <Trackpoint>
            <Time>2022-07-14T07:51:28.000Z</Time>
            <Position>
              <LatitudeDegrees>43.43822873197495937347412109375</LatitudeDegrees>
              <LongitudeDegrees>-3.95013741217553615570068359375</LongitudeDegrees>
            </Position>
            <AltitudeMeters>84</AltitudeMeters>
            <DistanceMeters>NAN</DistanceMeters>
          </Trackpoint>
          <Trackpoint>
            <Time>2022-07-14T07:51:30.000Z</Time>
            <Position>
              <LatitudeDegrees>43.4380512870848178863525390625</LatitudeDegrees>
              <LongitudeDegrees>-3.9501235820353031158447265625</LongitudeDegrees>
            </Position>
            <AltitudeMeters>82.8000030517578125</AltitudeMeters>
            <DistanceMeters>NAN</DistanceMeters>
          </Trackpoint>
          <Trackpoint>
            <Time>2022-07-14T07:51:31.000Z</Time>
            <Position>
              <LatitudeDegrees>43.4379661269485950469970703125</LatitudeDegrees>
              <LongitudeDegrees>-3.95010757260024547576904296875</LongitudeDegrees>
            </Position>
            <AltitudeMeters>82.40000152587890625</AltitudeMeters>
            <DistanceMeters>NAN</DistanceMeters>
          </Trackpoint>
          <Trackpoint>
            <Time>2022-07-14T07:51:32.000Z</Time>
            <Position>
              <LatitudeDegrees>43.43787920661270618438720703125</LatitudeDegrees>
              <LongitudeDegrees>-3.950082845985889434814453125</LongitudeDegrees>
            </Position>
            <AltitudeMeters>81.59999847412109375</AltitudeMeters>
            <DistanceMeters>NAN</DistanceMeters>
          </Trackpoint>
          <Trackpoint>
            <Time>2022-07-14T07:51:35.000Z</Time>
            <Position>
              <LatitudeDegrees>43.4376224689185619354248046875</LatitudeDegrees>
              <LongitudeDegrees>-3.94995720125734806060791015625</LongitudeDegrees>
            </Position>
            <AltitudeMeters>80</AltitudeMeters>
            <DistanceMeters>NAN</DistanceMeters>
          </Trackpoint>
          <Trackpoint>
            <Time>2022-07-14T07:51:37.000Z</Time>
            <Position>
              <LatitudeDegrees>43.43745977617800235748291015625</LatitudeDegrees>
              <LongitudeDegrees>-3.9498384296894073486328125</LongitudeDegrees>
            </Position>
            <AltitudeMeters>78.40000152587890625</AltitudeMeters>
            <DistanceMeters>NAN</DistanceMeters>
          </Trackpoint>
          <Trackpoint>
            <Time>2022-07-14T07:51:39.000Z</Time>
            <Position>
              <LatitudeDegrees>43.437327928841114044189453125</LatitudeDegrees>
              <LongitudeDegrees>-3.949705325067043304443359375</LongitudeDegrees>
            </Position>
            <AltitudeMeters>77.40000152587890625</AltitudeMeters>
            <DistanceMeters>NAN</DistanceMeters>
          </Trackpoint>
          <Trackpoint>
            <Time>2022-07-14T07:51:41.000Z</Time>
            <Position>
              <LatitudeDegrees>43.43718183226883411407470703125</LatitudeDegrees>
              <LongitudeDegrees>-3.9495006389915943145751953125</LongitudeDegrees>
            </Position>
            <AltitudeMeters>76.1999969482421875</AltitudeMeters>
            <DistanceMeters>NAN</DistanceMeters>
          </Trackpoint>
          <Trackpoint>
            <Time>2022-07-14T07:51:43.000Z</Time>
            <Position>
              <LatitudeDegrees>43.4370585344731807708740234375</LatitudeDegrees>
              <LongitudeDegrees>-3.949288912117481231689453125</LongitudeDegrees>
            </Position>
            <AltitudeMeters>74.8000030517578125</AltitudeMeters>
            <DistanceMeters>NAN</DistanceMeters>
          </Trackpoint>
          <Trackpoint>
            <Time>2022-07-14T07:51:44.000Z</Time>
            <Position>
              <LatitudeDegrees>43.4370028786361217498779296875</LatitudeDegrees>
              <LongitudeDegrees>-3.94917248748242855072021484375</LongitudeDegrees>
            </Position>
            <AltitudeMeters>74.59999847412109375</AltitudeMeters>
            <DistanceMeters>NAN</DistanceMeters>
          </Trackpoint>
          <Trackpoint>
            <Time>2022-07-14T07:51:46.000Z</Time>
            <Position>
              <LatitudeDegrees>43.436886034905910491943359375</LatitudeDegrees>
              <LongitudeDegrees>-3.9489367045462131500244140625</LongitudeDegrees>
            </Position>
            <AltitudeMeters>73.8000030517578125</AltitudeMeters>
            <DistanceMeters>NAN</DistanceMeters>
          </Trackpoint>
          <Trackpoint>
            <Time>2022-07-14T07:51:48.000Z</Time>
            <Position>
              <LatitudeDegrees>43.43677061609923839569091796875</LatitudeDegrees>
              <LongitudeDegrees>-3.94869782030582427978515625</LongitudeDegrees>
            </Position>
            <AltitudeMeters>72.40000152587890625</AltitudeMeters>
            <DistanceMeters>NAN</DistanceMeters>
          </Trackpoint>
          <Trackpoint>
            <Time>2022-07-14T07:51:50.000Z</Time>
            <Position>
              <LatitudeDegrees>43.4366463124752044677734375</LatitudeDegrees>
              <LongitudeDegrees>-3.94847477786242961883544921875</LongitudeDegrees>
            </Position>
            <AltitudeMeters>71.1999969482421875</AltitudeMeters>
            <DistanceMeters>NAN</DistanceMeters>
          </Trackpoint>
          <Trackpoint>
            <Time>2022-07-14T07:51:51.000Z</Time>
            <Position>
              <LatitudeDegrees>43.4365754015743732452392578125</LatitudeDegrees>
              <LongitudeDegrees>-3.94837520085275173187255859375</LongitudeDegrees>
            </Position>
            <AltitudeMeters>70.59999847412109375</AltitudeMeters>
            <DistanceMeters>NAN</DistanceMeters>
          </Trackpoint>
          <Trackpoint>
            <Time>2022-07-14T07:51:52.000Z</Time>
            <Position>
              <LatitudeDegrees>43.43650189228355884552001953125</LatitudeDegrees>
              <LongitudeDegrees>-3.94827595911920070648193359375</LongitudeDegrees>
            </Position>
            <AltitudeMeters>70</AltitudeMeters>
            <DistanceMeters>NAN</DistanceMeters>
          </Trackpoint>
          <Trackpoint>
            <Time>2022-07-14T07:51:53.000Z</Time>
            <Position>
              <LatitudeDegrees>43.43642142601311206817626953125</LatitudeDegrees>
              <LongitudeDegrees>-3.94818560220301151275634765625</LongitudeDegrees>
            </Position>
            <AltitudeMeters>69.40000152587890625</AltitudeMeters>
            <DistanceMeters>NAN</DistanceMeters>
          </Trackpoint>
          <Trackpoint>
            <Time>2022-07-14T07:51:54.000Z</Time>
            <Position>
              <LatitudeDegrees>43.436349928379058837890625</LatitudeDegrees>
              <LongitudeDegrees>-3.948125503957271575927734375</LongitudeDegrees>
            </Position>
            <AltitudeMeters>68.8000030517578125</AltitudeMeters>
            <DistanceMeters>NAN</DistanceMeters>
          </Trackpoint>
          <Trackpoint>
            <Time>2022-07-14T07:51:55.000Z</Time>
            <Position>
              <LatitudeDegrees>43.4362448193132877349853515625</LatitudeDegrees>
              <LongitudeDegrees>-3.94804378040134906768798828125</LongitudeDegrees>
            </Position>
            <AltitudeMeters>68.1999969482421875</AltitudeMeters>
            <DistanceMeters>NAN</DistanceMeters>
          </Trackpoint>
          <Trackpoint>
            <Time>2022-07-14T07:51:56.000Z</Time>
            <Position>
              <LatitudeDegrees>43.43615437857806682586669921875</LatitudeDegrees>
              <LongitudeDegrees>-3.94798058085143566131591796875</LongitudeDegrees>
            </Position>
            <AltitudeMeters>67.59999847412109375</AltitudeMeters>
            <DistanceMeters>NAN</DistanceMeters>
          </Trackpoint>
          <Trackpoint>
            <Time>2022-07-14T07:51:58.000Z</Time>
            <Position>
              <LatitudeDegrees>43.4359903447329998016357421875</LatitudeDegrees>
              <LongitudeDegrees>-3.94788435660302639007568359375</LongitudeDegrees>
            </Position>
            <AltitudeMeters>66.40000152587890625</AltitudeMeters>
            <DistanceMeters>NAN</DistanceMeters>
          </Trackpoint>
          <Trackpoint>
            <Time>2022-07-14T07:51:59.000Z</Time>
            <Position>
              <LatitudeDegrees>43.4358981437981128692626953125</LatitudeDegrees>
              <LongitudeDegrees>-3.94783322699368000030517578125</LongitudeDegrees>
            </Position>
            <AltitudeMeters>66</AltitudeMeters>
            <DistanceMeters>NAN</DistanceMeters>
          </Trackpoint>
          <Trackpoint>
            <Time>2022-07-14T07:52:01.000Z</Time>
            <Position>
              <LatitudeDegrees>43.4356909431517124176025390625</LatitudeDegrees>
              <LongitudeDegrees>-3.94772325642406940460205078125</LongitudeDegrees>
            </Position>
            <AltitudeMeters>64.59999847412109375</AltitudeMeters>
            <DistanceMeters>NAN</DistanceMeters>
          </Trackpoint>
          <Trackpoint>
            <Time>2022-07-14T07:52:03.000Z</Time>
            <Position>
              <LatitudeDegrees>43.43550260178744792938232421875</LatitudeDegrees>
              <LongitudeDegrees>-3.9476224221289157867431640625</LongitudeDegrees>
            </Position>
            <AltitudeMeters>63</AltitudeMeters>
            <DistanceMeters>NAN</DistanceMeters>
          </Trackpoint>
          <Trackpoint>
            <Time>2022-07-14T07:52:05.000Z</Time>
            <Position>
              <LatitudeDegrees>43.43531702645123004913330078125</LatitudeDegrees>
              <LongitudeDegrees>-3.94752946682274341583251953125</LongitudeDegrees>
            </Position>
            <AltitudeMeters>62</AltitudeMeters>
            <DistanceMeters>NAN</DistanceMeters>
          </Trackpoint>
          <Trackpoint>
            <Time>2022-07-14T07:52:06.000Z</Time>
            <Position>
              <LatitudeDegrees>43.4352228976786136627197265625</LatitudeDegrees>
              <LongitudeDegrees>-3.94748822785913944244384765625</LongitudeDegrees>
            </Position>
            <AltitudeMeters>61.200000762939453125</AltitudeMeters>
            <DistanceMeters>NAN</DistanceMeters>
          </Trackpoint>
          <Trackpoint>
            <Time>2022-07-14T07:52:08.000Z</Time>
            <Position>
              <LatitudeDegrees>43.43505215831100940704345703125</LatitudeDegrees>
              <LongitudeDegrees>-3.947423435747623443603515625</LongitudeDegrees>
            </Position>
            <AltitudeMeters>59.799999237060546875</AltitudeMeters>
            <DistanceMeters>NAN</DistanceMeters>
          </Trackpoint>
          <Trackpoint>
            <Time>2022-07-14T07:52:09.000Z</Time>
            <Position>
              <LatitudeDegrees>43.43494704924523830413818359375</LatitudeDegrees>
              <LongitudeDegrees>-3.947388567030429840087890625</LongitudeDegrees>
            </Position>
            <AltitudeMeters>59.200000762939453125</AltitudeMeters>
            <DistanceMeters>NAN</DistanceMeters>
          </Trackpoint>
          <Trackpoint>
            <Time>2022-07-14T07:52:10.000Z</Time>
            <Position>
              <LatitudeDegrees>43.43486071564257144927978515625</LatitudeDegrees>
              <LongitudeDegrees>-3.9473582245409488677978515625</LongitudeDegrees>
            </Position>
            <AltitudeMeters>58.59999847412109375</AltitudeMeters>
            <DistanceMeters>NAN</DistanceMeters>
          </Trackpoint>
          <Trackpoint>
            <Time>2022-07-14T07:52:12.000Z</Time>
            <Position>
              <LatitudeDegrees>43.4347129426896572113037109375</LatitudeDegrees>
              <LongitudeDegrees>-3.94730550236999988555908203125</LongitudeDegrees>
            </Position>
            <AltitudeMeters>56.799999237060546875</AltitudeMeters>
            <DistanceMeters>NAN</DistanceMeters>
          </Trackpoint>
          <Trackpoint>
            <Time>2022-07-14T07:52:14.000Z</Time>
            <Position>
              <LatitudeDegrees>43.4345533512532711029052734375</LatitudeDegrees>
              <LongitudeDegrees>-3.94724397920072078704833984375</LongitudeDegrees>
            </Position>
            <AltitudeMeters>55.40000152587890625</AltitudeMeters>
            <DistanceMeters>NAN</DistanceMeters>
          </Trackpoint>
          <Trackpoint>
            <Time>2022-07-14T07:52:16.000Z</Time>
            <Position>
              <LatitudeDegrees>43.434393592178821563720703125</LatitudeDegrees>
              <LongitudeDegrees>-3.94717030227184295654296875</LongitudeDegrees>
            </Position>
            <AltitudeMeters>53.799999237060546875</AltitudeMeters>
            <DistanceMeters>NAN</DistanceMeters>
          </Trackpoint>
          <Trackpoint>
            <Time>2022-07-14T07:52:18.000Z</Time>
            <Position>
              <LatitudeDegrees>43.4342676959931850433349609375</LatitudeDegrees>
              <LongitudeDegrees>-3.94708740524947643280029296875</LongitudeDegrees>
            </Position>
            <AltitudeMeters>52.200000762939453125</AltitudeMeters>
            <DistanceMeters>NAN</DistanceMeters>
          </Trackpoint>
          <Trackpoint>
            <Time>2022-07-14T07:52:19.000Z</Time>
            <Position>
              <LatitudeDegrees>43.4341989643871784210205078125</LatitudeDegrees>
              <LongitudeDegrees>-3.94703158177435398101806640625</LongitudeDegrees>
            </Position>
            <AltitudeMeters>52</AltitudeMeters>
            <DistanceMeters>NAN</DistanceMeters>
          </Trackpoint>
          <Trackpoint>
            <Time>2022-07-14T07:52:20.000Z</Time>
            <Position>
              <LatitudeDegrees>43.43413366936147212982177734375</LatitudeDegrees>
              <LongitudeDegrees>-3.94696570001542568206787109375</LongitudeDegrees>
            </Position>
            <AltitudeMeters>51.799999237060546875</AltitudeMeters>
            <DistanceMeters>NAN</DistanceMeters>
          </Trackpoint>
          <Trackpoint>
            <Time>2022-07-14T07:52:21.000Z</Time>
            <Position>
              <LatitudeDegrees>43.43405856750905513763427734375</LatitudeDegrees>
              <LongitudeDegrees>-3.94687601365149021148681640625</LongitudeDegrees>
            </Position>
            <AltitudeMeters>51</AltitudeMeters>
            <DistanceMeters>NAN</DistanceMeters>
          </Trackpoint>
          <Trackpoint>
            <Time>2022-07-14T07:52:23.000Z</Time>
            <Position>
              <LatitudeDegrees>43.433943651616573333740234375</LatitudeDegrees>
              <LongitudeDegrees>-3.94672011025249958038330078125</LongitudeDegrees>
            </Position>
            <AltitudeMeters>49.799999237060546875</AltitudeMeters>
            <DistanceMeters>NAN</DistanceMeters>
          </Trackpoint>
          <Trackpoint>
            <Time>2022-07-14T07:52:25.000Z</Time>
            <Position>
              <LatitudeDegrees>43.4338006563484668731689453125</LatitudeDegrees>
              <LongitudeDegrees>-3.946523554623126983642578125</LongitudeDegrees>
            </Position>
            <AltitudeMeters>48.799999237060546875</AltitudeMeters>
            <DistanceMeters>NAN</DistanceMeters>
          </Trackpoint>
          <Trackpoint>
            <Time>2022-07-14T07:52:28.000Z</Time>
            <Position>
              <LatitudeDegrees>43.43360359780490398406982421875</LatitudeDegrees>
              <LongitudeDegrees>-3.94627771340310573577880859375</LongitudeDegrees>
            </Position>
            <AltitudeMeters>47.40000152587890625</AltitudeMeters>
            <DistanceMeters>NAN</DistanceMeters>
          </Trackpoint>
          <Trackpoint>
            <Time>2022-07-14T07:52:30.000Z</Time>
            <Position>
              <LatitudeDegrees>43.43345406465232372283935546875</LatitudeDegrees>
              <LongitudeDegrees>-3.94612901844084262847900390625</LongitudeDegrees>
            </Position>
            <AltitudeMeters>46.59999847412109375</AltitudeMeters>
            <DistanceMeters>NAN</DistanceMeters>
          </Trackpoint>
          <Trackpoint>
            <Time>2022-07-14T07:52:31.000Z</Time>
            <Position>
              <LatitudeDegrees>43.43339212238788604736328125</LatitudeDegrees>
              <LongitudeDegrees>-3.9460774697363376617431640625</LongitudeDegrees>
            </Position>
            <AltitudeMeters>46</AltitudeMeters>
            <DistanceMeters>NAN</DistanceMeters>
          </Trackpoint>
          <Trackpoint>
            <Time>2022-07-14T07:52:33.000Z</Time>
            <Position>
              <LatitudeDegrees>43.433279804885387420654296875</LatitudeDegrees>
              <LongitudeDegrees>-3.945992477238178253173828125</LongitudeDegrees>
            </Position>
            <AltitudeMeters>44.40000152587890625</AltitudeMeters>
            <DistanceMeters>NAN</DistanceMeters>
          </Trackpoint>
          <Trackpoint>
            <Time>2022-07-14T07:52:36.000Z</Time>
            <Position>
              <LatitudeDegrees>43.4331324510276317596435546875</LatitudeDegrees>
              <LongitudeDegrees>-3.945885188877582550048828125</LongitudeDegrees>
            </Position>
            <AltitudeMeters>43</AltitudeMeters>
            <DistanceMeters>NAN</DistanceMeters>
          </Trackpoint>
          <Trackpoint>
            <Time>2022-07-14T07:52:39.000Z</Time>
            <Position>
              <LatitudeDegrees>43.43305760063230991363525390625</LatitudeDegrees>
              <LongitudeDegrees>-3.945826180279254913330078125</LongitudeDegrees>
            </Position>
            <AltitudeMeters>41.799999237060546875</AltitudeMeters>
            <DistanceMeters>NAN</DistanceMeters>
          </Trackpoint>
          <Trackpoint>
            <Time>2022-07-14T07:52:40.000Z</Time>
            <Position>
              <LatitudeDegrees>43.43304838053882122039794921875</LatitudeDegrees>
              <LongitudeDegrees>-3.9458179660141468048095703125</LongitudeDegrees>
            </Position>
            <AltitudeMeters>41.59999847412109375</AltitudeMeters>
            <DistanceMeters>NAN</DistanceMeters>
          </Trackpoint>
          <Trackpoint>
            <Time>2022-07-14T07:52:44.000Z</Time>
            <Position>
              <LatitudeDegrees>43.4330047108232975006103515625</LatitudeDegrees>
              <LongitudeDegrees>-3.9458069019019603729248046875</LongitudeDegrees>
            </Position>
            <AltitudeMeters>40.799999237060546875</AltitudeMeters>
            <DistanceMeters>NAN</DistanceMeters>
          </Trackpoint>
          <Trackpoint>
            <Time>2022-07-14T07:52:45.000Z</Time>
            <Position>
              <LatitudeDegrees>43.4329956583678722381591796875</LatitudeDegrees>
              <LongitudeDegrees>-3.94580614753067493438720703125</LongitudeDegrees>
            </Position>
            <AltitudeMeters>40.799999237060546875</AltitudeMeters>
            <DistanceMeters>NAN</DistanceMeters>
          </Trackpoint>
          <Trackpoint>
            <Time>2022-07-14T07:52:46.000Z</Time>
            <Position>
              <LatitudeDegrees>43.43298442661762237548828125</LatitudeDegrees>
              <LongitudeDegrees>-3.94580950029194355010986328125</LongitudeDegrees>
            </Position>
            <AltitudeMeters>40.799999237060546875</AltitudeMeters>
            <DistanceMeters>NAN</DistanceMeters>
          </Trackpoint>
          <Trackpoint>
            <Time>2022-07-14T07:52:52.000Z</Time>
            <Position>
              <LatitudeDegrees>43.43285241164267063140869140625</LatitudeDegrees>
              <LongitudeDegrees>-3.945799358189105987548828125</LongitudeDegrees>
            </Position>
            <AltitudeMeters>40.59999847412109375</AltitudeMeters>
            <DistanceMeters>NAN</DistanceMeters>
          </Trackpoint>
          <Trackpoint>
            <Time>2022-07-14T07:52:58.000Z</Time>
            <Position>
              <LatitudeDegrees>43.43263129703700542449951171875</LatitudeDegrees>
              <LongitudeDegrees>-3.945848979055881500244140625</LongitudeDegrees>
            </Position>
            <AltitudeMeters>40.59999847412109375</AltitudeMeters>
            <DistanceMeters>NAN</DistanceMeters>
          </Trackpoint>
          <Trackpoint>
            <Time>2022-07-14T07:53:04.000Z</Time>
            <Position>
              <LatitudeDegrees>43.43244940973818302154541015625</LatitudeDegrees>
              <LongitudeDegrees>-3.945956937968730926513671875</LongitudeDegrees>
            </Position>
            <AltitudeMeters>40.40000152587890625</AltitudeMeters>
            <DistanceMeters>NAN</DistanceMeters>
          </Trackpoint>
          <Trackpoint>
            <Time>2022-07-14T07:53:10.000Z</Time>
            <Position>
              <LatitudeDegrees>43.43233038671314716339111328125</LatitudeDegrees>
              <LongitudeDegrees>-3.9460915513336658477783203125</LongitudeDegrees>
            </Position>
            <AltitudeMeters>40.799999237060546875</AltitudeMeters>
            <DistanceMeters>NAN</DistanceMeters>
          </Trackpoint>
          <Trackpoint>
            <Time>2022-07-14T07:53:14.000Z</Time>
            <Position>
              <LatitudeDegrees>43.43229032121598720550537109375</LatitudeDegrees>
              <LongitudeDegrees>-3.94618601538240909576416015625</LongitudeDegrees>
            </Position>
            <AltitudeMeters>41.200000762939453125</AltitudeMeters>
            <DistanceMeters>NAN</DistanceMeters>
          </Trackpoint>
          <Trackpoint>
            <Time>2022-07-14T07:53:15.000Z</Time>
            <Position>
              <LatitudeDegrees>43.43229233287274837493896484375</LatitudeDegrees>
              <LongitudeDegrees>-3.94620780833065509796142578125</LongitudeDegrees>
            </Position>
            <AltitudeMeters>41.40000152587890625</AltitudeMeters>
            <DistanceMeters>NAN</DistanceMeters>
          </Trackpoint>
          <Trackpoint>
            <Time>2022-07-14T07:53:21.000Z</Time>
            <Position>
              <LatitudeDegrees>43.43224338255822658538818359375</LatitudeDegrees>
              <LongitudeDegrees>-3.94631995819509029388427734375</LongitudeDegrees>
            </Position>
            <AltitudeMeters>41.59999847412109375</AltitudeMeters>
            <DistanceMeters>NAN</DistanceMeters>
          </Trackpoint>
          <Trackpoint>
            <Time>2022-07-14T07:53:26.000Z</Time>
            <Position>
              <LatitudeDegrees>43.4322161413729190826416015625</LatitudeDegrees>
              <LongitudeDegrees>-3.94641936756670475006103515625</LongitudeDegrees>
            </Position>
            <AltitudeMeters>41.799999237060546875</AltitudeMeters>
            <DistanceMeters>NAN</DistanceMeters>
          </Trackpoint>
          <Trackpoint>
            <Time>2022-07-14T07:53:30.000Z</Time>
            <Position>
              <LatitudeDegrees>43.43221304006874561309814453125</LatitudeDegrees>
              <LongitudeDegrees>-3.9464435912668704986572265625</LongitudeDegrees>
            </Position>
            <AltitudeMeters>42</AltitudeMeters>
            <DistanceMeters>NAN</DistanceMeters>
          </Trackpoint>
          <Trackpoint>
            <Time>2022-07-14T07:54:54.000Z</Time>
            <Position>
              <LatitudeDegrees>43.4321785904467105865478515625</LatitudeDegrees>
              <LongitudeDegrees>-3.94650050438940525054931640625</LongitudeDegrees>
            </Position>
            <AltitudeMeters>40.40000152587890625</AltitudeMeters>
            <DistanceMeters>NAN</DistanceMeters>
          </Trackpoint>
          <Trackpoint>
            <Time>2022-07-14T07:54:55.000Z</Time>
            <Position>
              <LatitudeDegrees>43.43216543085873126983642578125</LatitudeDegrees>
              <LongitudeDegrees>-3.9465237222611904144287109375</LongitudeDegrees>
            </Position>
            <AltitudeMeters>40.40000152587890625</AltitudeMeters>
            <DistanceMeters>NAN</DistanceMeters>
          </Trackpoint>
          <Trackpoint>
            <Time>2022-07-14T07:54:56.000Z</Time>
            <Position>
              <LatitudeDegrees>43.4321591444313526153564453125</LatitudeDegrees>
              <LongitudeDegrees>-3.94654660485684871673583984375</LongitudeDegrees>
            </Position>
            <AltitudeMeters>40.40000152587890625</AltitudeMeters>
            <DistanceMeters>NAN</DistanceMeters>
          </Trackpoint>
          <Trackpoint>
            <Time>2022-07-14T07:55:02.000Z</Time>
            <Position>
              <LatitudeDegrees>43.43213207088410854339599609375</LatitudeDegrees>
              <LongitudeDegrees>-3.94668490625917911529541015625</LongitudeDegrees>
            </Position>
            <AltitudeMeters>40.40000152587890625</AltitudeMeters>
            <DistanceMeters>NAN</DistanceMeters>
          </Trackpoint>
          <Trackpoint>
            <Time>2022-07-14T07:55:05.000Z</Time>
            <Position>
              <LatitudeDegrees>43.4321145527064800262451171875</LatitudeDegrees>
              <LongitudeDegrees>-3.94675129093229770660400390625</LongitudeDegrees>
            </Position>
            <AltitudeMeters>40.59999847412109375</AltitudeMeters>
            <DistanceMeters>NAN</DistanceMeters>
          </Trackpoint>
          <Trackpoint>
            <Time>2022-07-14T07:55:10.000Z</Time>
            <Position>
              <LatitudeDegrees>43.43208680860698223114013671875</LatitudeDegrees>
              <LongitudeDegrees>-3.94687752239406108856201171875</LongitudeDegrees>
            </Position>
            <AltitudeMeters>41</AltitudeMeters>
            <DistanceMeters>NAN</DistanceMeters>
          </Trackpoint>
          <Trackpoint>
            <Time>2022-07-14T07:55:19.000Z</Time>
            <Position>
              <LatitudeDegrees>43.4320277161896228790283203125</LatitudeDegrees>
              <LongitudeDegrees>-3.94709344021975994110107421875</LongitudeDegrees>
            </Position>
            <AltitudeMeters>41.40000152587890625</AltitudeMeters>
            <DistanceMeters>NAN</DistanceMeters>
          </Trackpoint>
          <Trackpoint>
            <Time>2022-07-14T07:55:20.000Z</Time>
            <Position>
              <LatitudeDegrees>43.4320206753909587860107421875</LatitudeDegrees>
              <LongitudeDegrees>-3.9471128024160861968994140625</LongitudeDegrees>
            </Position>
            <AltitudeMeters>41.59999847412109375</AltitudeMeters>
            <DistanceMeters>NAN</DistanceMeters>
          </Trackpoint>
          <Trackpoint>
            <Time>2022-07-14T07:55:26.000Z</Time>
            <Position>
              <LatitudeDegrees>43.4319891594350337982177734375</LatitudeDegrees>
              <LongitudeDegrees>-3.9472485892474651336669921875</LongitudeDegrees>
            </Position>
            <AltitudeMeters>42</AltitudeMeters>
            <DistanceMeters>NAN</DistanceMeters>
          </Trackpoint>
          <Trackpoint>
            <Time>2022-07-14T07:55:30.000Z</Time>
            <Position>
              <LatitudeDegrees>43.43197348527610301971435546875</LatitudeDegrees>
              <LongitudeDegrees>-3.9473278820514678955078125</LongitudeDegrees>
            </Position>
            <AltitudeMeters>42.40000152587890625</AltitudeMeters>
            <DistanceMeters>NAN</DistanceMeters>
          </Trackpoint>
          <Trackpoint>
            <Time>2022-07-14T07:55:34.000Z</Time>
            <Position>
              <LatitudeDegrees>43.431969545781612396240234375</LatitudeDegrees>
              <LongitudeDegrees>-3.94738018512725830078125</LongitudeDegrees>
            </Position>
            <AltitudeMeters>42.799999237060546875</AltitudeMeters>
            <DistanceMeters>NAN</DistanceMeters>
          </Trackpoint>
          <Trackpoint>
            <Time>2022-07-14T07:55:38.000Z</Time>
            <Position>
              <LatitudeDegrees>43.4319506026804447174072265625</LatitudeDegrees>
              <LongitudeDegrees>-3.94744925200939178466796875</LongitudeDegrees>
            </Position>
            <AltitudeMeters>43.40000152587890625</AltitudeMeters>
            <DistanceMeters>NAN</DistanceMeters>
          </Trackpoint>
          <Trackpoint>
            <Time>2022-07-14T07:55:43.000Z</Time>
            <Position>
              <LatitudeDegrees>43.43192989937961101531982421875</LatitudeDegrees>
              <LongitudeDegrees>-3.94754271022975444793701171875</LongitudeDegrees>
            </Position>
            <AltitudeMeters>43.799999237060546875</AltitudeMeters>
            <DistanceMeters>NAN</DistanceMeters>
          </Trackpoint>
          <Trackpoint>
            <Time>2022-07-14T07:55:52.000Z</Time>
            <Position>
              <LatitudeDegrees>43.43187508173286914825439453125</LatitudeDegrees>
              <LongitudeDegrees>-3.947696350514888763427734375</LongitudeDegrees>
            </Position>
            <AltitudeMeters>44.59999847412109375</AltitudeMeters>
            <DistanceMeters>NAN</DistanceMeters>
          </Trackpoint>
          <Trackpoint>
            <Time>2022-07-14T07:56:00.000Z</Time>
            <Position>
              <LatitudeDegrees>43.4318345971405506134033203125</LatitudeDegrees>
              <LongitudeDegrees>-3.9478121884167194366455078125</LongitudeDegrees>
            </Position>
            <AltitudeMeters>45.59999847412109375</AltitudeMeters>
            <DistanceMeters>NAN</DistanceMeters>
          </Trackpoint>
          <Trackpoint>
            <Time>2022-07-14T07:56:01.000Z</Time>
            <Position>
              <LatitudeDegrees>43.4318278916180133819580078125</LatitudeDegrees>
              <LongitudeDegrees>-3.94782568328082561492919921875</LongitudeDegrees>
            </Position>
            <AltitudeMeters>45.59999847412109375</AltitudeMeters>
            <DistanceMeters>NAN</DistanceMeters>
          </Trackpoint>
          <Trackpoint>
            <Time>2022-07-14T07:56:08.000Z</Time>
            <Position>
              <LatitudeDegrees>43.431797884404659271240234375</LatitudeDegrees>
              <LongitudeDegrees>-3.94796012900769710540771484375</LongitudeDegrees>
            </Position>
            <AltitudeMeters>46.200000762939453125</AltitudeMeters>
            <DistanceMeters>NAN</DistanceMeters>
          </Trackpoint>
          <Trackpoint>
            <Time>2022-07-14T07:56:12.000Z</Time>
            <Position>
              <LatitudeDegrees>43.4317615069448947906494140625</LatitudeDegrees>
              <LongitudeDegrees>-3.9480173774063587188720703125</LongitudeDegrees>
            </Position>
            <AltitudeMeters>46.59999847412109375</AltitudeMeters>
            <DistanceMeters>NAN</DistanceMeters>
          </Trackpoint>
          <Trackpoint>
            <Time>2022-07-14T07:56:16.000Z</Time>
            <Position>
              <LatitudeDegrees>43.43172621913254261016845703125</LatitudeDegrees>
              <LongitudeDegrees>-3.948068507015705108642578125</LongitudeDegrees>
            </Position>
            <AltitudeMeters>47</AltitudeMeters>
            <DistanceMeters>NAN</DistanceMeters>
          </Trackpoint>
          <Trackpoint>
            <Time>2022-07-14T07:56:23.000Z</Time>
            <Position>
              <LatitudeDegrees>43.43164457939565181732177734375</LatitudeDegrees>
              <LongitudeDegrees>-3.94814126193523406982421875</LongitudeDegrees>
            </Position>
            <AltitudeMeters>47.59999847412109375</AltitudeMeters>
            <DistanceMeters>NAN</DistanceMeters>
          </Trackpoint>
          <Trackpoint>
            <Time>2022-07-14T07:56:25.000Z</Time>
            <Position>
              <LatitudeDegrees>43.431614153087139129638671875</LatitudeDegrees>
              <LongitudeDegrees>-3.94815207459032535552978515625</LongitudeDegrees>
            </Position>
            <AltitudeMeters>47.799999237060546875</AltitudeMeters>
            <DistanceMeters>NAN</DistanceMeters>
          </Trackpoint>
          <Trackpoint>
            <Time>2022-07-14T07:56:26.000Z</Time>
            <Position>
              <LatitudeDegrees>43.43159814365208148956298828125</LatitudeDegrees>
              <LongitudeDegrees>-3.94815626554191112518310546875</LongitudeDegrees>
            </Position>
            <AltitudeMeters>48</AltitudeMeters>
            <DistanceMeters>NAN</DistanceMeters>
          </Trackpoint>
          <Trackpoint>
            <Time>2022-07-14T07:56:32.000Z</Time>
            <Position>
              <LatitudeDegrees>43.43150761909782886505126953125</LatitudeDegrees>
              <LongitudeDegrees>-3.948163054883480072021484375</LongitudeDegrees>
            </Position>
            <AltitudeMeters>48</AltitudeMeters>
            <DistanceMeters>NAN</DistanceMeters>
          </Trackpoint>
          <Trackpoint>
            <Time>2022-07-14T07:56:33.000Z</Time>
            <Position>
              <LatitudeDegrees>43.4314884245395660400390625</LatitudeDegrees>
              <LongitudeDegrees>-3.948159702122211456298828125</LongitudeDegrees>
            </Position>
            <AltitudeMeters>48</AltitudeMeters>
            <DistanceMeters>NAN</DistanceMeters>
          </Trackpoint>
          <Trackpoint>
            <Time>2022-07-14T07:56:34.000Z</Time>
            <Position>
              <LatitudeDegrees>43.4314701519906520843505859375</LatitudeDegrees>
              <LongitudeDegrees>-3.94815810956060886383056640625</LongitudeDegrees>
            </Position>
            <AltitudeMeters>48</AltitudeMeters>
            <DistanceMeters>NAN</DistanceMeters>
          </Trackpoint>
          <Trackpoint>
            <Time>2022-07-14T07:56:38.000Z</Time>
            <Position>
              <LatitudeDegrees>43.43139647506177425384521484375</LatitudeDegrees>
              <LongitudeDegrees>-3.94814419560134410858154296875</LongitudeDegrees>
            </Position>
            <AltitudeMeters>48.200000762939453125</AltitudeMeters>
            <DistanceMeters>NAN</DistanceMeters>
          </Trackpoint>
          <Trackpoint>
            <Time>2022-07-14T07:56:40.000Z</Time>
            <Position>
              <LatitudeDegrees>43.43139119446277618408203125</LatitudeDegrees>
              <LongitudeDegrees>-3.94815023057162761688232421875</LongitudeDegrees>
            </Position>
            <AltitudeMeters>47.799999237060546875</AltitudeMeters>
            <DistanceMeters>NAN</DistanceMeters>
          </Trackpoint>
          <Trackpoint>
            <Time>2022-07-14T07:56:41.000Z</Time>
            <Position>
              <LatitudeDegrees>43.43139119446277618408203125</LatitudeDegrees>
              <LongitudeDegrees>-3.94815023057162761688232421875</LongitudeDegrees>
            </Position>
            <AltitudeMeters>45.59999847412109375</AltitudeMeters>
            <DistanceMeters>NAN</DistanceMeters>
          </Trackpoint>
          <Trackpoint>
            <Time>2022-07-14T07:56:50.000Z</Time>
            <Position>
              <LatitudeDegrees>43.43132673762738704681396484375</LatitudeDegrees>
              <LongitudeDegrees>-3.9481258392333984375</LongitudeDegrees>
            </Position>
            <AltitudeMeters>43.59999847412109375</AltitudeMeters>
            <DistanceMeters>NAN</DistanceMeters>
          </Trackpoint>
          <Trackpoint>
            <Time>2022-07-14T07:56:52.000Z</Time>
            <Position>
              <LatitudeDegrees>43.43128122389316558837890625</LatitudeDegrees>
              <LongitudeDegrees>-3.948112092912197113037109375</LongitudeDegrees>
            </Position>
            <AltitudeMeters>43.59999847412109375</AltitudeMeters>
            <DistanceMeters>NAN</DistanceMeters>
          </Trackpoint>
          <Trackpoint>
            <Time>2022-07-14T07:56:59.000Z</Time>
            <Position>
              <LatitudeDegrees>43.431093133985996246337890625</LatitudeDegrees>
              <LongitudeDegrees>-3.9480462111532688140869140625</LongitudeDegrees>
            </Position>
            <AltitudeMeters>43.59999847412109375</AltitudeMeters>
            <DistanceMeters>NAN</DistanceMeters>
          </Trackpoint>
          <Trackpoint>
            <Time>2022-07-14T07:57:07.000Z</Time>
            <Position>
              <LatitudeDegrees>43.43087713234126567840576171875</LatitudeDegrees>
              <LongitudeDegrees>-3.94797001965343952178955078125</LongitudeDegrees>
            </Position>
            <AltitudeMeters>43.799999237060546875</AltitudeMeters>
            <DistanceMeters>NAN</DistanceMeters>
          </Trackpoint>
          <Trackpoint>
            <Time>2022-07-14T07:57:08.000Z</Time>
            <Position>
              <LatitudeDegrees>43.430856764316558837890625</LatitudeDegrees>
              <LongitudeDegrees>-3.94795660860836505889892578125</LongitudeDegrees>
            </Position>
            <AltitudeMeters>43.799999237060546875</AltitudeMeters>
            <DistanceMeters>NAN</DistanceMeters>
          </Trackpoint>
          <Trackpoint>
            <Time>2022-07-14T07:57:15.000Z</Time>
            <Position>
              <LatitudeDegrees>43.4306762181222438812255859375</LatitudeDegrees>
              <LongitudeDegrees>-3.9478882960975170135498046875</LongitudeDegrees>
            </Position>
            <AltitudeMeters>43.799999237060546875</AltitudeMeters>
            <DistanceMeters>NAN</DistanceMeters>
          </Trackpoint>
          <Trackpoint>
            <Time>2022-07-14T07:57:21.000Z</Time>
            <Position>
              <LatitudeDegrees>43.43056976795196533203125</LatitudeDegrees>
              <LongitudeDegrees>-3.94783683121204376220703125</LongitudeDegrees>
            </Position>
            <AltitudeMeters>43.799999237060546875</AltitudeMeters>
            <DistanceMeters>NAN</DistanceMeters>
          </Trackpoint>
          <Trackpoint>
            <Time>2022-07-14T07:57:24.000Z</Time>
            <Position>
              <LatitudeDegrees>43.43056415207684040069580078125</LatitudeDegrees>
              <LongitudeDegrees>-3.94783951342105865478515625</LongitudeDegrees>
            </Position>
            <AltitudeMeters>43.59999847412109375</AltitudeMeters>
            <DistanceMeters>NAN</DistanceMeters>
          </Trackpoint>
          <Trackpoint>
            <Time>2022-07-14T07:58:28.000Z</Time>
            <Position>
              <LatitudeDegrees>43.43055694364011287689208984375</LatitudeDegrees>
              <LongitudeDegrees>-3.9479087479412555694580078125</LongitudeDegrees>
            </Position>
            <AltitudeMeters>41.799999237060546875</AltitudeMeters>
            <DistanceMeters>NAN</DistanceMeters>
          </Trackpoint>
          <Trackpoint>
            <Time>2022-07-14T07:58:29.000Z</Time>
            <Position>
              <LatitudeDegrees>43.430556692183017730712890625</LatitudeDegrees>
              <LongitudeDegrees>-3.94793800078332424163818359375</LongitudeDegrees>
            </Position>
            <AltitudeMeters>41.59999847412109375</AltitudeMeters>
            <DistanceMeters>NAN</DistanceMeters>
          </Trackpoint>
          <Trackpoint>
            <Time>2022-07-14T07:58:31.000Z</Time>
            <Position>
              <LatitudeDegrees>43.4305514954030513763427734375</LatitudeDegrees>
              <LongitudeDegrees>-3.947990052402019500732421875</LongitudeDegrees>
            </Position>
            <AltitudeMeters>41</AltitudeMeters>
            <DistanceMeters>NAN</DistanceMeters>
          </Trackpoint>
          <Trackpoint>
            <Time>2022-07-14T07:58:32.000Z</Time>
            <Position>
              <LatitudeDegrees>43.4305469691753387451171875</LatitudeDegrees>
              <LongitudeDegrees>-3.94801008515059947967529296875</LongitudeDegrees>
            </Position>
            <AltitudeMeters>40.59999847412109375</AltitudeMeters>
            <DistanceMeters>NAN</DistanceMeters>
          </Trackpoint>
          <Trackpoint>
            <Time>2022-07-14T07:58:34.000Z</Time>
            <Position>
              <LatitudeDegrees>43.4305384196341037750244140625</LatitudeDegrees>
              <LongitudeDegrees>-3.9480482228100299835205078125</LongitudeDegrees>
            </Position>
            <AltitudeMeters>40</AltitudeMeters>
            <DistanceMeters>NAN</DistanceMeters>
          </Trackpoint>
          <Trackpoint>
            <Time>2022-07-14T07:58:37.000Z</Time>
            <Position>
              <LatitudeDegrees>43.4305333904922008514404296875</LatitudeDegrees>
              <LongitudeDegrees>-3.94806481897830963134765625</LongitudeDegrees>
            </Position>
            <AltitudeMeters>39.59999847412109375</AltitudeMeters>
            <DistanceMeters>NAN</DistanceMeters>
          </Trackpoint>
          <Trackpoint>
            <Time>2022-07-14T07:58:38.000Z</Time>
            <Position>
              <LatitudeDegrees>43.4305333904922008514404296875</LatitudeDegrees>
              <LongitudeDegrees>-3.94806481897830963134765625</LongitudeDegrees>
            </Position>
            <AltitudeMeters>39.40000152587890625</AltitudeMeters>
            <DistanceMeters>NAN</DistanceMeters>
          </Trackpoint>
          <Trackpoint>
            <Time>2022-07-14T07:59:04.000Z</Time>
            <Position>
              <LatitudeDegrees>43.43051771633327007293701171875</LatitudeDegrees>
              <LongitudeDegrees>-3.948194570839405059814453125</LongitudeDegrees>
            </Position>
            <AltitudeMeters>38.40000152587890625</AltitudeMeters>
            <DistanceMeters>NAN</DistanceMeters>
          </Trackpoint>
          <Trackpoint>
            <Time>2022-07-14T07:59:07.000Z</Time>
            <Position>
              <LatitudeDegrees>43.430477567017078399658203125</LatitudeDegrees>
              <LongitudeDegrees>-3.94846186973154544830322265625</LongitudeDegrees>
            </Position>
            <AltitudeMeters>37.59999847412109375</AltitudeMeters>
            <DistanceMeters>NAN</DistanceMeters>
          </Trackpoint>
          <Trackpoint>
            <Time>2022-07-14T07:59:08.000Z</Time>
            <Position>
              <LatitudeDegrees>43.4304676763713359832763671875</LatitudeDegrees>
              <LongitudeDegrees>-3.9485471136868000030517578125</LongitudeDegrees>
            </Position>
            <AltitudeMeters>37.40000152587890625</AltitudeMeters>
            <DistanceMeters>NAN</DistanceMeters>
          </Trackpoint>
          <Trackpoint>
            <Time>2022-07-14T07:59:11.000Z</Time>
            <Position>
              <LatitudeDegrees>43.4304509125649929046630859375</LatitudeDegrees>
              <LongitudeDegrees>-3.948936201632022857666015625</LongitudeDegrees>
            </Position>
            <AltitudeMeters>36.200000762939453125</AltitudeMeters>
            <DistanceMeters>NAN</DistanceMeters>
          </Trackpoint>
          <Trackpoint>
            <Time>2022-07-14T07:59:14.000Z</Time>
            <Position>
              <LatitudeDegrees>43.43045418150722980499267578125</LatitudeDegrees>
              <LongitudeDegrees>-3.94930894486606121063232421875</LongitudeDegrees>
            </Position>
            <AltitudeMeters>35</AltitudeMeters>
            <DistanceMeters>NAN</DistanceMeters>
          </Trackpoint>
          <Trackpoint>
            <Time>2022-07-14T07:59:17.000Z</Time>
            <Position>
              <LatitudeDegrees>43.43045334331691265106201171875</LatitudeDegrees>
              <LongitudeDegrees>-3.9496702887117862701416015625</LongitudeDegrees>
            </Position>
            <AltitudeMeters>33.799999237060546875</AltitudeMeters>
            <DistanceMeters>NAN</DistanceMeters>
          </Trackpoint>
          <Trackpoint>
            <Time>2022-07-14T07:59:19.000Z</Time>
            <Position>
              <LatitudeDegrees>43.43045485205948352813720703125</LatitudeDegrees>
              <LongitudeDegrees>-3.94991428591310977935791015625</LongitudeDegrees>
            </Position>
            <AltitudeMeters>33</AltitudeMeters>
            <DistanceMeters>NAN</DistanceMeters>
          </Trackpoint>
          <Trackpoint>
            <Time>2022-07-14T07:59:21.000Z</Time>
            <Position>
              <LatitudeDegrees>43.4304646588861942291259765625</LatitudeDegrees>
              <LongitudeDegrees>-3.95015300251543521881103515625</LongitudeDegrees>
            </Position>
            <AltitudeMeters>32.59999847412109375</AltitudeMeters>
            <DistanceMeters>NAN</DistanceMeters>
          </Trackpoint>
          <Trackpoint>
            <Time>2022-07-14T07:59:24.000Z</Time>
            <Position>
              <LatitudeDegrees>43.43048620037734508514404296875</LatitudeDegrees>
              <LongitudeDegrees>-3.95045332610607147216796875</LongitudeDegrees>
            </Position>
            <AltitudeMeters>31</AltitudeMeters>
            <DistanceMeters>NAN</DistanceMeters>
          </Trackpoint>
          <Trackpoint>
            <Time>2022-07-14T07:59:27.000Z</Time>
            <Position>
              <LatitudeDegrees>43.43049542047083377838134765625</LatitudeDegrees>
              <LongitudeDegrees>-3.95073135383427143096923828125</LongitudeDegrees>
            </Position>
            <AltitudeMeters>30</AltitudeMeters>
            <DistanceMeters>NAN</DistanceMeters>
          </Trackpoint>
          <Trackpoint>
            <Time>2022-07-14T07:59:28.000Z</Time>
            <Position>
              <LatitudeDegrees>43.430492989718914031982421875</LatitudeDegrees>
              <LongitudeDegrees>-3.95080746151506900787353515625</LongitudeDegrees>
            </Position>
            <AltitudeMeters>29.6000003814697265625</AltitudeMeters>
            <DistanceMeters>NAN</DistanceMeters>
          </Trackpoint>
          <Trackpoint>
            <Time>2022-07-14T07:59:29.000Z</Time>
            <Position>
              <LatitudeDegrees>43.43048636801540851593017578125</LatitudeDegrees>
              <LongitudeDegrees>-3.95086378790438175201416015625</LongitudeDegrees>
            </Position>
            <AltitudeMeters>29.200000762939453125</AltitudeMeters>
            <DistanceMeters>NAN</DistanceMeters>
          </Trackpoint>
          <Trackpoint>
            <Time>2022-07-14T07:59:31.000Z</Time>
            <Position>
              <LatitudeDegrees>43.4304552711546421051025390625</LatitudeDegrees>
              <LongitudeDegrees>-3.95100091584026813507080078125</LongitudeDegrees>
            </Position>
            <AltitudeMeters>28.6000003814697265625</AltitudeMeters>
            <DistanceMeters>NAN</DistanceMeters>
          </Trackpoint>
          <Trackpoint>
            <Time>2022-07-14T07:59:34.000Z</Time>
            <Position>
              <LatitudeDegrees>43.43040824867784976959228515625</LatitudeDegrees>
              <LongitudeDegrees>-3.95116771571338176727294921875</LongitudeDegrees>
            </Position>
            <AltitudeMeters>27.799999237060546875</AltitudeMeters>
            <DistanceMeters>NAN</DistanceMeters>
          </Trackpoint>
          <Trackpoint>
            <Time>2022-07-14T07:59:35.000Z</Time>
            <Position>
              <LatitudeDegrees>43.43040036968886852264404296875</LatitudeDegrees>
              <LongitudeDegrees>-3.9511991478502750396728515625</LongitudeDegrees>
            </Position>
            <AltitudeMeters>27.3999996185302734375</AltitudeMeters>
            <DistanceMeters>NAN</DistanceMeters>
          </Trackpoint>
          <Trackpoint>
            <Time>2022-07-14T07:59:38.000Z</Time>
            <Position>
              <LatitudeDegrees>43.43038762919604778289794921875</LatitudeDegrees>
              <LongitudeDegrees>-3.9512373693287372589111328125</LongitudeDegrees>
            </Position>
            <AltitudeMeters>26.3999996185302734375</AltitudeMeters>
            <DistanceMeters>NAN</DistanceMeters>
          </Trackpoint>
          <Trackpoint>
            <Time>2022-07-14T07:59:39.000Z</Time>
            <Position>
              <LatitudeDegrees>43.43038762919604778289794921875</LatitudeDegrees>
              <LongitudeDegrees>-3.9512373693287372589111328125</LongitudeDegrees>
            </Position>
            <AltitudeMeters>26.3999996185302734375</AltitudeMeters>
            <DistanceMeters>NAN</DistanceMeters>
          </Trackpoint>
          <Trackpoint>
            <Time>2022-07-14T08:00:03.000Z</Time>
            <Position>
              <LatitudeDegrees>43.43038209713995456695556640625</LatitudeDegrees>
              <LongitudeDegrees>-3.95127684809267520904541015625</LongitudeDegrees>
            </Position>
            <AltitudeMeters>26.3999996185302734375</AltitudeMeters>
            <DistanceMeters>NAN</DistanceMeters>
          </Trackpoint>
          <Trackpoint>
            <Time>2022-07-14T08:00:06.000Z</Time>
            <Position>
              <LatitudeDegrees>43.43035058118402957916259765625</LatitudeDegrees>
              <LongitudeDegrees>-3.951358906924724578857421875</LongitudeDegrees>
            </Position>
            <AltitudeMeters>26.6000003814697265625</AltitudeMeters>
            <DistanceMeters>NAN</DistanceMeters>
          </Trackpoint>
          <Trackpoint>
            <Time>2022-07-14T08:00:11.000Z</Time>
            <Position>
              <LatitudeDegrees>43.4302769042551517486572265625</LatitudeDegrees>
              <LongitudeDegrees>-3.951528556644916534423828125</LongitudeDegrees>
            </Position>
            <AltitudeMeters>26.799999237060546875</AltitudeMeters>
            <DistanceMeters>NAN</DistanceMeters>
          </Trackpoint>
          <Trackpoint>
            <Time>2022-07-14T08:00:18.000Z</Time>
            <Position>
              <LatitudeDegrees>43.43018897809088230133056640625</LatitudeDegrees>
              <LongitudeDegrees>-3.95179015584290027618408203125</LongitudeDegrees>
            </Position>
            <AltitudeMeters>27.200000762939453125</AltitudeMeters>
            <DistanceMeters>NAN</DistanceMeters>
          </Trackpoint>
          <Trackpoint>
            <Time>2022-07-14T08:00:27.000Z</Time>
            <Position>
              <LatitudeDegrees>43.430079929530620574951171875</LatitudeDegrees>
              <LongitudeDegrees>-3.9521204866468906402587890625</LongitudeDegrees>
            </Position>
            <AltitudeMeters>27.6000003814697265625</AltitudeMeters>
            <DistanceMeters>NAN</DistanceMeters>
          </Trackpoint>
          <Trackpoint>
            <Time>2022-07-14T08:00:30.000Z</Time>
            <Position>
              <LatitudeDegrees>43.43004145659506320953369140625</LatitudeDegrees>
              <LongitudeDegrees>-3.95221528597176074981689453125</LongitudeDegrees>
            </Position>
            <AltitudeMeters>27.6000003814697265625</AltitudeMeters>
            <DistanceMeters>NAN</DistanceMeters>
          </Trackpoint>
          <Trackpoint>
            <Time>2022-07-14T08:00:36.000Z</Time>
            <Position>
              <LatitudeDegrees>43.42997993342578411102294921875</LatitudeDegrees>
              <LongitudeDegrees>-3.95242013968527317047119140625</LongitudeDegrees>
            </Position>
            <AltitudeMeters>28</AltitudeMeters>
            <DistanceMeters>NAN</DistanceMeters>
          </Trackpoint>
          <Trackpoint>
            <Time>2022-07-14T08:00:41.000Z</Time>
            <Position>
              <LatitudeDegrees>43.42993517406284809112548828125</LatitudeDegrees>
              <LongitudeDegrees>-3.95257537253201007843017578125</LongitudeDegrees>
            </Position>
            <AltitudeMeters>28.3999996185302734375</AltitudeMeters>
            <DistanceMeters>NAN</DistanceMeters>
          </Trackpoint>
          <Trackpoint>
            <Time>2022-07-14T08:00:44.000Z</Time>
            <Position>
              <LatitudeDegrees>43.4299114532768726348876953125</LatitudeDegrees>
              <LongitudeDegrees>-3.95263823680579662322998046875</LongitudeDegrees>
            </Position>
            <AltitudeMeters>28.6000003814697265625</AltitudeMeters>
            <DistanceMeters>NAN</DistanceMeters>
          </Trackpoint>
          <Trackpoint>
            <Time>2022-07-14T08:00:45.000Z</Time>
            <Position>
              <LatitudeDegrees>43.4299047477543354034423828125</LatitudeDegrees>
              <LongitudeDegrees>-3.95265801809728145599365234375</LongitudeDegrees>
            </Position>
            <AltitudeMeters>28.6000003814697265625</AltitudeMeters>
            <DistanceMeters>NAN</DistanceMeters>
          </Trackpoint>
          <Trackpoint>
            <Time>2022-07-14T08:00:49.000Z</Time>
            <Position>
              <LatitudeDegrees>43.4298725612461566925048828125</LatitudeDegrees>
              <LongitudeDegrees>-3.95274871028959751129150390625</LongitudeDegrees>
            </Position>
            <AltitudeMeters>29</AltitudeMeters>
            <DistanceMeters>NAN</DistanceMeters>
          </Trackpoint>
          <Trackpoint>
            <Time>2022-07-14T08:00:54.000Z</Time>
            <Position>
              <LatitudeDegrees>43.42984280548989772796630859375</LatitudeDegrees>
              <LongitudeDegrees>-3.95288282074034214019775390625</LongitudeDegrees>
            </Position>
            <AltitudeMeters>29.3999996185302734375</AltitudeMeters>
            <DistanceMeters>NAN</DistanceMeters>
          </Trackpoint>
          <Trackpoint>
            <Time>2022-07-14T08:00:55.000Z</Time>
            <Position>
              <LatitudeDegrees>43.42983542941510677337646484375</LatitudeDegrees>
              <LongitudeDegrees>-3.95290176384150981903076171875</LongitudeDegrees>
            </Position>
            <AltitudeMeters>29.3999996185302734375</AltitudeMeters>
            <DistanceMeters>NAN</DistanceMeters>
          </Trackpoint>
          <Trackpoint>
            <Time>2022-07-14T08:00:59.000Z</Time>
            <Position>
              <LatitudeDegrees>43.42981162481009960174560546875</LatitudeDegrees>
              <LongitudeDegrees>-3.95298658870160579681396484375</LongitudeDegrees>
            </Position>
            <AltitudeMeters>29.799999237060546875</AltitudeMeters>
            <DistanceMeters>NAN</DistanceMeters>
          </Trackpoint>
          <Trackpoint>
            <Time>2022-07-14T08:01:03.000Z</Time>
            <Position>
              <LatitudeDegrees>43.42978497035801410675048828125</LatitudeDegrees>
              <LongitudeDegrees>-3.95306110382080078125</LongitudeDegrees>
            </Position>
            <AltitudeMeters>30.200000762939453125</AltitudeMeters>
            <DistanceMeters>NAN</DistanceMeters>
          </Trackpoint>
          <Trackpoint>
            <Time>2022-07-14T08:01:06.000Z</Time>
            <Position>
              <LatitudeDegrees>43.4297625906765460968017578125</LatitudeDegrees>
              <LongitudeDegrees>-3.95311080850660800933837890625</LongitudeDegrees>
            </Position>
            <AltitudeMeters>30.3999996185302734375</AltitudeMeters>
            <DistanceMeters>NAN</DistanceMeters>
          </Trackpoint>
          <Trackpoint>
            <Time>2022-07-14T08:01:10.000Z</Time>
            <Position>
              <LatitudeDegrees>43.42973761260509490966796875</LatitudeDegrees>
              <LongitudeDegrees>-3.95317803137004375457763671875</LongitudeDegrees>
            </Position>
            <AltitudeMeters>31</AltitudeMeters>
            <DistanceMeters>NAN</DistanceMeters>
          </Trackpoint>
          <Trackpoint>
            <Time>2022-07-14T08:01:13.000Z</Time>
            <Position>
              <LatitudeDegrees>43.42970835976302623748779296875</LatitudeDegrees>
              <LongitudeDegrees>-3.95320971496403217315673828125</LongitudeDegrees>
            </Position>
            <AltitudeMeters>31</AltitudeMeters>
            <DistanceMeters>NAN</DistanceMeters>
          </Trackpoint>
          <Trackpoint>
            <Time>2022-07-14T08:01:15.000Z</Time>
            <Position>
              <LatitudeDegrees>43.42968204058706760406494140625</LatitudeDegrees>
              <LongitudeDegrees>-3.95323301665484905242919921875</LongitudeDegrees>
            </Position>
            <AltitudeMeters>31.3999996185302734375</AltitudeMeters>
            <DistanceMeters>NAN</DistanceMeters>
          </Trackpoint>
          <Trackpoint>
            <Time>2022-07-14T08:01:16.000Z</Time>
            <Position>
              <LatitudeDegrees>43.4296787716448307037353515625</LatitudeDegrees>
              <LongitudeDegrees>-3.9532342739403247833251953125</LongitudeDegrees>
            </Position>
            <AltitudeMeters>31.6000003814697265625</AltitudeMeters>
            <DistanceMeters>NAN</DistanceMeters>
          </Trackpoint>
          <Trackpoint>
            <Time>2022-07-14T08:01:17.000Z</Time>
            <Position>
              <LatitudeDegrees>43.4296787716448307037353515625</LatitudeDegrees>
              <LongitudeDegrees>-3.9532342739403247833251953125</LongitudeDegrees>
            </Position>
            <AltitudeMeters>31.6000003814697265625</AltitudeMeters>
            <DistanceMeters>NAN</DistanceMeters>
          </Trackpoint>
          <Trackpoint>
            <Time>2022-07-14T08:01:27.000Z</Time>
            <Position>
              <LatitudeDegrees>43.42964750714600086212158203125</LatitudeDegrees>
              <LongitudeDegrees>-3.9533539675176143646240234375</LongitudeDegrees>
            </Position>
            <AltitudeMeters>32.40000152587890625</AltitudeMeters>
            <DistanceMeters>NAN</DistanceMeters>
          </Trackpoint>
          <Trackpoint>
            <Time>2022-07-14T08:01:29.000Z</Time>
            <Position>
              <LatitudeDegrees>43.42963007278740406036376953125</LatitudeDegrees>
              <LongitudeDegrees>-3.953381963074207305908203125</LongitudeDegrees>
            </Position>
            <AltitudeMeters>32.799999237060546875</AltitudeMeters>
            <DistanceMeters>NAN</DistanceMeters>
          </Trackpoint>
          <Trackpoint>
            <Time>2022-07-14T08:01:30.000Z</Time>
            <Position>
              <LatitudeDegrees>43.42962336726486682891845703125</LatitudeDegrees>
              <LongitudeDegrees>-3.953398726880550384521484375</LongitudeDegrees>
            </Position>
            <AltitudeMeters>32.799999237060546875</AltitudeMeters>
            <DistanceMeters>NAN</DistanceMeters>
          </Trackpoint>
          <Trackpoint>
            <Time>2022-07-14T08:01:33.000Z</Time>
            <Position>
              <LatitudeDegrees>43.4295993112027645111083984375</LatitudeDegrees>
              <LongitudeDegrees>-3.95343150012195110321044921875</LongitudeDegrees>
            </Position>
            <AltitudeMeters>33.200000762939453125</AltitudeMeters>
            <DistanceMeters>NAN</DistanceMeters>
          </Trackpoint>
          <Trackpoint>
            <Time>2022-07-14T08:01:37.000Z</Time>
            <Position>
              <LatitudeDegrees>43.429575674235820770263671875</LatitudeDegrees>
              <LongitudeDegrees>-3.95347885787487030029296875</LongitudeDegrees>
            </Position>
            <AltitudeMeters>33.59999847412109375</AltitudeMeters>
            <DistanceMeters>NAN</DistanceMeters>
          </Trackpoint>
          <Trackpoint>
            <Time>2022-07-14T08:01:39.000Z</Time>
            <Position>
              <LatitudeDegrees>43.42955899424850940704345703125</LatitudeDegrees>
              <LongitudeDegrees>-3.953504674136638641357421875</LongitudeDegrees>
            </Position>
            <AltitudeMeters>34</AltitudeMeters>
            <DistanceMeters>NAN</DistanceMeters>
          </Trackpoint>
          <Trackpoint>
            <Time>2022-07-14T08:01:47.000Z</Time>
            <Position>
              <LatitudeDegrees>43.4294967167079448699951171875</LatitudeDegrees>
              <LongitudeDegrees>-3.953557312488555908203125</LongitudeDegrees>
            </Position>
            <AltitudeMeters>35</AltitudeMeters>
            <DistanceMeters>NAN</DistanceMeters>
          </Trackpoint>
          <Trackpoint>
            <Time>2022-07-14T08:01:51.000Z</Time>
            <Position>
              <LatitudeDegrees>43.429458998143672943115234375</LatitudeDegrees>
              <LongitudeDegrees>-3.9535926841199398040771484375</LongitudeDegrees>
            </Position>
            <AltitudeMeters>35.200000762939453125</AltitudeMeters>
            <DistanceMeters>NAN</DistanceMeters>
          </Trackpoint>
          <Trackpoint>
            <Time>2022-07-14T08:01:54.000Z</Time>
            <Position>
              <LatitudeDegrees>43.42942756600677967071533203125</LatitudeDegrees>
              <LongitudeDegrees>-3.95360098220407962799072265625</LongitudeDegrees>
            </Position>
            <AltitudeMeters>35.799999237060546875</AltitudeMeters>
            <DistanceMeters>NAN</DistanceMeters>
          </Trackpoint>
          <Trackpoint>
            <Time>2022-07-14T08:01:55.000Z</Time>
            <Position>
              <LatitudeDegrees>43.4294135682284832000732421875</LatitudeDegrees>
              <LongitudeDegrees>-3.9535957016050815582275390625</LongitudeDegrees>
            </Position>
            <AltitudeMeters>36</AltitudeMeters>
            <DistanceMeters>NAN</DistanceMeters>
          </Trackpoint>
          <Trackpoint>
            <Time>2022-07-14T08:01:56.000Z</Time>
            <Position>
              <LatitudeDegrees>43.4294018335640430450439453125</LatitudeDegrees>
              <LongitudeDegrees>-3.9535920135676860809326171875</LongitudeDegrees>
            </Position>
            <AltitudeMeters>36.200000762939453125</AltitudeMeters>
            <DistanceMeters>NAN</DistanceMeters>
          </Trackpoint>
          <Trackpoint>
            <Time>2022-07-14T08:01:57.000Z</Time>
            <Position>
              <LatitudeDegrees>43.42938917689025402069091796875</LatitudeDegrees>
              <LongitudeDegrees>-3.95359494723379611968994140625</LongitudeDegrees>
            </Position>
            <AltitudeMeters>36.200000762939453125</AltitudeMeters>
            <DistanceMeters>NAN</DistanceMeters>
          </Trackpoint>
          <Trackpoint>
            <Time>2022-07-14T08:02:00.000Z</Time>
            <Position>
              <LatitudeDegrees>43.429351709783077239990234375</LatitudeDegrees>
              <LongitudeDegrees>-3.95361338742077350616455078125</LongitudeDegrees>
            </Position>
            <AltitudeMeters>36.59999847412109375</AltitudeMeters>
            <DistanceMeters>NAN</DistanceMeters>
          </Trackpoint>
          <Trackpoint>
            <Time>2022-07-14T08:02:01.000Z</Time>
            <Position>
              <LatitudeDegrees>43.42933838255703449249267578125</LatitudeDegrees>
              <LongitudeDegrees>-3.9536117948591709136962890625</LongitudeDegrees>
            </Position>
            <AltitudeMeters>36.59999847412109375</AltitudeMeters>
            <DistanceMeters>NAN</DistanceMeters>
          </Trackpoint>
          <Trackpoint>
            <Time>2022-07-14T08:02:06.000Z</Time>
            <Position>
              <LatitudeDegrees>43.4292737580835819244384765625</LatitudeDegrees>
              <LongitudeDegrees>-3.95360089838504791259765625</LongitudeDegrees>
            </Position>
            <AltitudeMeters>37.200000762939453125</AltitudeMeters>
            <DistanceMeters>NAN</DistanceMeters>
          </Trackpoint>
          <Trackpoint>
            <Time>2022-07-14T08:02:09.000Z</Time>
            <Position>
              <LatitudeDegrees>43.42924014665186405181884765625</LatitudeDegrees>
              <LongitudeDegrees>-3.95362596027553081512451171875</LongitudeDegrees>
            </Position>
            <AltitudeMeters>37.59999847412109375</AltitudeMeters>
            <DistanceMeters>NAN</DistanceMeters>
          </Trackpoint>
          <Trackpoint>
            <Time>2022-07-14T08:02:13.000Z</Time>
            <Position>
              <LatitudeDegrees>43.429198823869228363037109375</LatitudeDegrees>
              <LongitudeDegrees>-3.95364959724247455596923828125</LongitudeDegrees>
            </Position>
            <AltitudeMeters>37.799999237060546875</AltitudeMeters>
            <DistanceMeters>NAN</DistanceMeters>
          </Trackpoint>
          <Trackpoint>
            <Time>2022-07-14T08:02:15.000Z</Time>
            <Position>
              <LatitudeDegrees>43.429174013435840606689453125</LatitudeDegrees>
              <LongitudeDegrees>-3.953653872013092041015625</LongitudeDegrees>
            </Position>
            <AltitudeMeters>37.799999237060546875</AltitudeMeters>
            <DistanceMeters>NAN</DistanceMeters>
          </Trackpoint>
          <Trackpoint>
            <Time>2022-07-14T08:02:19.000Z</Time>
            <Position>
              <LatitudeDegrees>43.429133780300617218017578125</LatitudeDegrees>
              <LongitudeDegrees>-3.95369670353829860687255859375</LongitudeDegrees>
            </Position>
            <AltitudeMeters>38.200000762939453125</AltitudeMeters>
            <DistanceMeters>NAN</DistanceMeters>
          </Trackpoint>
          <Trackpoint>
            <Time>2022-07-14T08:02:21.000Z</Time>
            <Position>
              <LatitudeDegrees>43.42911777086555957794189453125</LatitudeDegrees>
              <LongitudeDegrees>-3.9537003077566623687744140625</LongitudeDegrees>
            </Position>
            <AltitudeMeters>38.40000152587890625</AltitudeMeters>
            <DistanceMeters>NAN</DistanceMeters>
          </Trackpoint>
          <Trackpoint>
            <Time>2022-07-14T08:02:23.000Z</Time>
            <Position>
              <LatitudeDegrees>43.42909983359277248382568359375</LatitudeDegrees>
              <LongitudeDegrees>-3.953700475394725799560546875</LongitudeDegrees>
            </Position>
            <AltitudeMeters>38.59999847412109375</AltitudeMeters>
            <DistanceMeters>NAN</DistanceMeters>
          </Trackpoint>
          <Trackpoint>
            <Time>2022-07-14T08:02:31.000Z</Time>
            <Position>
              <LatitudeDegrees>43.4290119074285030364990234375</LatitudeDegrees>
              <LongitudeDegrees>-3.95372838713228702545166015625</LongitudeDegrees>
            </Position>
            <AltitudeMeters>39.40000152587890625</AltitudeMeters>
            <DistanceMeters>NAN</DistanceMeters>
          </Trackpoint>
          <Trackpoint>
            <Time>2022-07-14T08:02:32.000Z</Time>
            <Position>
              <LatitudeDegrees>43.42900159768760204315185546875</LatitudeDegrees>
              <LongitudeDegrees>-3.95372721366584300994873046875</LongitudeDegrees>
            </Position>
            <AltitudeMeters>39.40000152587890625</AltitudeMeters>
            <DistanceMeters>NAN</DistanceMeters>
          </Trackpoint>
          <Trackpoint>
            <Time>2022-07-14T08:02:35.000Z</Time>
            <Position>
              <LatitudeDegrees>43.4289646334946155548095703125</LatitudeDegrees>
              <LongitudeDegrees>-3.95371883176267147064208984375</LongitudeDegrees>
            </Position>
            <AltitudeMeters>39.799999237060546875</AltitudeMeters>
            <DistanceMeters>NAN</DistanceMeters>
          </Trackpoint>
          <Trackpoint>
            <Time>2022-07-14T08:02:37.000Z</Time>
            <Position>
              <LatitudeDegrees>43.4289445169270038604736328125</LatitudeDegrees>
              <LongitudeDegrees>-3.95371464081108570098876953125</LongitudeDegrees>
            </Position>
            <AltitudeMeters>39.799999237060546875</AltitudeMeters>
            <DistanceMeters>NAN</DistanceMeters>
          </Trackpoint>
          <Trackpoint>
            <Time>2022-07-14T08:02:38.000Z</Time>
            <Position>
              <LatitudeDegrees>43.42893487773835659027099609375</LatitudeDegrees>
              <LongitudeDegrees>-3.9537093602120876312255859375</LongitudeDegrees>
            </Position>
            <AltitudeMeters>39.799999237060546875</AltitudeMeters>
            <DistanceMeters>NAN</DistanceMeters>
          </Trackpoint>
          <Trackpoint>
            <Time>2022-07-14T08:02:39.000Z</Time>
            <Position>
              <LatitudeDegrees>43.428922556340694427490234375</LatitudeDegrees>
              <LongitudeDegrees>-3.9537110365927219390869140625</LongitudeDegrees>
            </Position>
            <AltitudeMeters>40</AltitudeMeters>
            <DistanceMeters>NAN</DistanceMeters>
          </Trackpoint>
          <Trackpoint>
            <Time>2022-07-14T08:02:41.000Z</Time>
            <Position>
              <LatitudeDegrees>43.4288952313363552093505859375</LatitudeDegrees>
              <LongitudeDegrees>-3.9537174068391323089599609375</LongitudeDegrees>
            </Position>
            <AltitudeMeters>40</AltitudeMeters>
            <DistanceMeters>NAN</DistanceMeters>
          </Trackpoint>
          <Trackpoint>
            <Time>2022-07-14T08:02:43.000Z</Time>
            <Position>
              <LatitudeDegrees>43.42887083999812602996826171875</LatitudeDegrees>
              <LongitudeDegrees>-3.95372419618070125579833984375</LongitudeDegrees>
            </Position>
            <AltitudeMeters>40.200000762939453125</AltitudeMeters>
            <DistanceMeters>NAN</DistanceMeters>
          </Trackpoint>
          <Trackpoint>
            <Time>2022-07-14T08:02:44.000Z</Time>
            <Position>
              <LatitudeDegrees>43.42885675840079784393310546875</LatitudeDegrees>
              <LongitudeDegrees>-3.95372671075165271759033203125</LongitudeDegrees>
            </Position>
            <AltitudeMeters>40.40000152587890625</AltitudeMeters>
            <DistanceMeters>NAN</DistanceMeters>
          </Trackpoint>
          <Trackpoint>
            <Time>2022-07-14T08:02:47.000Z</Time>
            <Position>
              <LatitudeDegrees>43.42881937511265277862548828125</LatitudeDegrees>
              <LongitudeDegrees>-3.9537311531603336334228515625</LongitudeDegrees>
            </Position>
            <AltitudeMeters>40.59999847412109375</AltitudeMeters>
            <DistanceMeters>NAN</DistanceMeters>
          </Trackpoint>
          <Trackpoint>
            <Time>2022-07-14T08:02:48.000Z</Time>
            <Position>
              <LatitudeDegrees>43.4288063831627368927001953125</LatitudeDegrees>
              <LongitudeDegrees>-3.95372587256133556365966796875</LongitudeDegrees>
            </Position>
            <AltitudeMeters>40.59999847412109375</AltitudeMeters>
            <DistanceMeters>NAN</DistanceMeters>
          </Trackpoint>
          <Trackpoint>
            <Time>2022-07-14T08:02:54.000Z</Time>
            <Position>
              <LatitudeDegrees>43.42873580753803253173828125</LatitudeDegrees>
              <LongitudeDegrees>-3.953719921410083770751953125</LongitudeDegrees>
            </Position>
            <AltitudeMeters>41.200000762939453125</AltitudeMeters>
            <DistanceMeters>NAN</DistanceMeters>
          </Trackpoint>
          <Trackpoint>
            <Time>2022-07-14T08:02:57.000Z</Time>
            <Position>
              <LatitudeDegrees>43.4286913834512233734130859375</LatitudeDegrees>
              <LongitudeDegrees>-3.953702487051486968994140625</LongitudeDegrees>
            </Position>
            <AltitudeMeters>41.40000152587890625</AltitudeMeters>
            <DistanceMeters>NAN</DistanceMeters>
          </Trackpoint>
          <Trackpoint>
            <Time>2022-07-14T08:03:00.000Z</Time>
            <Position>
              <LatitudeDegrees>43.42866481281816959381103515625</LatitudeDegrees>
              <LongitudeDegrees>-3.95370290614664554595947265625</LongitudeDegrees>
            </Position>
            <AltitudeMeters>41.59999847412109375</AltitudeMeters>
            <DistanceMeters>NAN</DistanceMeters>
          </Trackpoint>
          <Trackpoint>
            <Time>2022-07-14T08:03:01.000Z</Time>
            <Position>
              <LatitudeDegrees>43.4286514855921268463134765625</LatitudeDegrees>
              <LongitudeDegrees>-3.95370977930724620819091796875</LongitudeDegrees>
            </Position>
            <AltitudeMeters>41.59999847412109375</AltitudeMeters>
            <DistanceMeters>NAN</DistanceMeters>
          </Trackpoint>
          <Trackpoint>
            <Time>2022-07-14T08:03:05.000Z</Time>
            <Position>
              <LatitudeDegrees>43.4286109171807765960693359375</LatitudeDegrees>
              <LongitudeDegrees>-3.95370089448988437652587890625</LongitudeDegrees>
            </Position>
            <AltitudeMeters>41.799999237060546875</AltitudeMeters>
            <DistanceMeters>NAN</DistanceMeters>
          </Trackpoint>
          <Trackpoint>
            <Time>2022-07-14T08:03:06.000Z</Time>
            <Position>
              <LatitudeDegrees>43.42859574593603610992431640625</LatitudeDegrees>
              <LongitudeDegrees>-3.9536912553012371063232421875</LongitudeDegrees>
            </Position>
            <AltitudeMeters>41.799999237060546875</AltitudeMeters>
            <DistanceMeters>NAN</DistanceMeters>
          </Trackpoint>
          <Trackpoint>
            <Time>2022-07-14T08:03:07.000Z</Time>
            <Position>
              <LatitudeDegrees>43.4285834245383739471435546875</LatitudeDegrees>
              <LongitudeDegrees>-3.95368262194097042083740234375</LongitudeDegrees>
            </Position>
            <AltitudeMeters>42</AltitudeMeters>
            <DistanceMeters>NAN</DistanceMeters>
          </Trackpoint>
          <Trackpoint>
            <Time>2022-07-14T08:03:09.000Z</Time>
            <Position>
              <LatitudeDegrees>43.42856439761817455291748046875</LatitudeDegrees>
              <LongitudeDegrees>-3.9536748267710208892822265625</LongitudeDegrees>
            </Position>
            <AltitudeMeters>42</AltitudeMeters>
            <DistanceMeters>NAN</DistanceMeters>
          </Trackpoint>
          <Trackpoint>
            <Time>2022-07-14T08:03:11.000Z</Time>
            <Position>
              <LatitudeDegrees>43.428542353212833404541015625</LatitudeDegrees>
              <LongitudeDegrees>-3.95366770215332508087158203125</LongitudeDegrees>
            </Position>
            <AltitudeMeters>42.200000762939453125</AltitudeMeters>
            <DistanceMeters>NAN</DistanceMeters>
          </Trackpoint>
          <Trackpoint>
            <Time>2022-07-14T08:03:12.000Z</Time>
            <Position>
              <LatitudeDegrees>43.4285247512161731719970703125</LatitudeDegrees>
              <LongitudeDegrees>-3.9536661095917224884033203125</LongitudeDegrees>
            </Position>
            <AltitudeMeters>42.40000152587890625</AltitudeMeters>
            <DistanceMeters>NAN</DistanceMeters>
          </Trackpoint>
          <Trackpoint>
            <Time>2022-07-14T08:03:14.000Z</Time>
            <Position>
              <LatitudeDegrees>43.42849499545991420745849609375</LatitudeDegrees>
              <LongitudeDegrees>-3.95365999080240726470947265625</LongitudeDegrees>
            </Position>
            <AltitudeMeters>42.59999847412109375</AltitudeMeters>
            <DistanceMeters>NAN</DistanceMeters>
          </Trackpoint>
          <Trackpoint>
            <Time>2022-07-14T08:03:16.000Z</Time>
            <Position>
              <LatitudeDegrees>43.42846767045557498931884765625</LatitudeDegrees>
              <LongitudeDegrees>-3.95365311764180660247802734375</LongitudeDegrees>
            </Position>
            <AltitudeMeters>42.799999237060546875</AltitudeMeters>
            <DistanceMeters>NAN</DistanceMeters>
          </Trackpoint>
          <Trackpoint>
            <Time>2022-07-14T08:03:23.000Z</Time>
            <Position>
              <LatitudeDegrees>43.42838083393871784210205078125</LatitudeDegrees>
              <LongitudeDegrees>-3.95360098220407962799072265625</LongitudeDegrees>
            </Position>
            <AltitudeMeters>43.59999847412109375</AltitudeMeters>
            <DistanceMeters>NAN</DistanceMeters>
          </Trackpoint>
          <Trackpoint>
            <Time>2022-07-14T08:03:26.000Z</Time>
            <Position>
              <LatitudeDegrees>43.42834479175508022308349609375</LatitudeDegrees>
              <LongitudeDegrees>-3.9536185003817081451416015625</LongitudeDegrees>
            </Position>
            <AltitudeMeters>43.59999847412109375</AltitudeMeters>
            <DistanceMeters>NAN</DistanceMeters>
          </Trackpoint>
          <Trackpoint>
            <Time>2022-07-14T08:03:30.000Z</Time>
            <Position>
              <LatitudeDegrees>43.42829952947795391082763671875</LatitudeDegrees>
              <LongitudeDegrees>-3.9536329172551631927490234375</LongitudeDegrees>
            </Position>
            <AltitudeMeters>44</AltitudeMeters>
            <DistanceMeters>NAN</DistanceMeters>
          </Trackpoint>
          <Trackpoint>
            <Time>2022-07-14T08:03:31.000Z</Time>
            <Position>
              <LatitudeDegrees>43.42829148285090923309326171875</LatitudeDegrees>
              <LongitudeDegrees>-3.9536389522254467010498046875</LongitudeDegrees>
            </Position>
            <AltitudeMeters>44</AltitudeMeters>
            <DistanceMeters>NAN</DistanceMeters>
          </Trackpoint>
          <Trackpoint>
            <Time>2022-07-14T08:03:35.000Z</Time>
            <Position>
              <LatitudeDegrees>43.4282494895160198211669921875</LatitudeDegrees>
              <LongitudeDegrees>-3.95365110598504543304443359375</LongitudeDegrees>
            </Position>
            <AltitudeMeters>44.40000152587890625</AltitudeMeters>
            <DistanceMeters>NAN</DistanceMeters>
          </Trackpoint>
          <Trackpoint>
            <Time>2022-07-14T08:03:36.000Z</Time>
            <Position>
              <LatitudeDegrees>43.428235910832881927490234375</LatitudeDegrees>
              <LongitudeDegrees>-3.9536498486995697021484375</LongitudeDegrees>
            </Position>
            <AltitudeMeters>44.59999847412109375</AltitudeMeters>
            <DistanceMeters>NAN</DistanceMeters>
          </Trackpoint>
          <Trackpoint>
            <Time>2022-07-14T08:03:38.000Z</Time>
            <Position>
              <LatitudeDegrees>43.42821889556944370269775390625</LatitudeDegrees>
              <LongitudeDegrees>-3.95364205352962017059326171875</LongitudeDegrees>
            </Position>
            <AltitudeMeters>44.799999237060546875</AltitudeMeters>
            <DistanceMeters>NAN</DistanceMeters>
          </Trackpoint>
          <Trackpoint>
            <Time>2022-07-14T08:03:39.000Z</Time>
            <Position>
              <LatitudeDegrees>43.42822082340717315673828125</LatitudeDegrees>
              <LongitudeDegrees>-3.953648172318935394287109375</LongitudeDegrees>
            </Position>
            <AltitudeMeters>44.799999237060546875</AltitudeMeters>
            <DistanceMeters>NAN</DistanceMeters>
          </Trackpoint>
          <Trackpoint>
            <Time>2022-07-14T08:03:44.000Z</Time>
            <Position>
              <LatitudeDegrees>43.428179584443569183349609375</LatitudeDegrees>
              <LongitudeDegrees>-3.95369804464280605316162109375</LongitudeDegrees>
            </Position>
            <AltitudeMeters>45</AltitudeMeters>
            <DistanceMeters>NAN</DistanceMeters>
          </Trackpoint>
          <Trackpoint>
            <Time>2022-07-14T08:03:46.000Z</Time>
            <Position>
              <LatitudeDegrees>43.42816005460917949676513671875</LatitudeDegrees>
              <LongitudeDegrees>-3.95370282232761383056640625</LongitudeDegrees>
            </Position>
            <AltitudeMeters>45.200000762939453125</AltitudeMeters>
            <DistanceMeters>NAN</DistanceMeters>
          </Trackpoint>
          <Trackpoint>
            <Time>2022-07-14T08:03:49.000Z</Time>
            <Position>
              <LatitudeDegrees>43.42813340015709400177001953125</LatitudeDegrees>
              <LongitudeDegrees>-3.9536925964057445526123046875</LongitudeDegrees>
            </Position>
            <AltitudeMeters>45.40000152587890625</AltitudeMeters>
            <DistanceMeters>NAN</DistanceMeters>
          </Trackpoint>
          <Trackpoint>
            <Time>2022-07-14T08:03:52.000Z</Time>
            <Position>
              <LatitudeDegrees>43.42809417285025119781494140625</LatitudeDegrees>
              <LongitudeDegrees>-3.95369988866150379180908203125</LongitudeDegrees>
            </Position>
            <AltitudeMeters>45.799999237060546875</AltitudeMeters>
            <DistanceMeters>NAN</DistanceMeters>
          </Trackpoint>
          <Trackpoint>
            <Time>2022-07-14T08:03:53.000Z</Time>
            <Position>
              <LatitudeDegrees>43.428086377680301666259765625</LatitudeDegrees>
              <LongitudeDegrees>-3.95369351841509342193603515625</LongitudeDegrees>
            </Position>
            <AltitudeMeters>45.799999237060546875</AltitudeMeters>
            <DistanceMeters>NAN</DistanceMeters>
          </Trackpoint>
          <Trackpoint>
            <Time>2022-07-14T08:03:55.000Z</Time>
            <Position>
              <LatitudeDegrees>43.42806684784591197967529296875</LatitudeDegrees>
              <LongitudeDegrees>-3.95368597470223903656005859375</LongitudeDegrees>
            </Position>
            <AltitudeMeters>46</AltitudeMeters>
            <DistanceMeters>NAN</DistanceMeters>
          </Trackpoint>
          <Trackpoint>
            <Time>2022-07-14T08:03:58.000Z</Time>
            <Position>
              <LatitudeDegrees>43.428034074604511260986328125</LatitudeDegrees>
              <LongitudeDegrees>-3.95366258919239044189453125</LongitudeDegrees>
            </Position>
            <AltitudeMeters>46.40000152587890625</AltitudeMeters>
            <DistanceMeters>NAN</DistanceMeters>
          </Trackpoint>
          <Trackpoint>
            <Time>2022-07-14T08:04:00.000Z</Time>
            <Position>
              <LatitudeDegrees>43.4280084259808063507080078125</LatitudeDegrees>
              <LongitudeDegrees>-3.95366124808788299560546875</LongitudeDegrees>
            </Position>
            <AltitudeMeters>46.59999847412109375</AltitudeMeters>
            <DistanceMeters>NAN</DistanceMeters>
          </Trackpoint>
          <Trackpoint>
            <Time>2022-07-14T08:04:02.000Z</Time>
            <Position>
              <LatitudeDegrees>43.4279819391667842864990234375</LatitudeDegrees>
              <LongitudeDegrees>-3.953651525080204010009765625</LongitudeDegrees>
            </Position>
            <AltitudeMeters>46.799999237060546875</AltitudeMeters>
            <DistanceMeters>NAN</DistanceMeters>
          </Trackpoint>
          <Trackpoint>
            <Time>2022-07-14T08:04:03.000Z</Time>
            <Position>
              <LatitudeDegrees>43.427970707416534423828125</LatitudeDegrees>
              <LongitudeDegrees>-3.95365278236567974090576171875</LongitudeDegrees>
            </Position>
            <AltitudeMeters>47</AltitudeMeters>
            <DistanceMeters>NAN</DistanceMeters>
          </Trackpoint>
          <Trackpoint>
            <Time>2022-07-14T08:04:08.000Z</Time>
            <Position>
              <LatitudeDegrees>43.42791907489299774169921875</LatitudeDegrees>
              <LongitudeDegrees>-3.953654207289218902587890625</LongitudeDegrees>
            </Position>
            <AltitudeMeters>47.799999237060546875</AltitudeMeters>
            <DistanceMeters>NAN</DistanceMeters>
          </Trackpoint>
          <Trackpoint>
            <Time>2022-07-14T08:04:09.000Z</Time>
            <Position>
              <LatitudeDegrees>43.4279195778071880340576171875</LatitudeDegrees>
              <LongitudeDegrees>-3.95365965552628040313720703125</LongitudeDegrees>
            </Position>
            <AltitudeMeters>48</AltitudeMeters>
            <DistanceMeters>NAN</DistanceMeters>
          </Trackpoint>
          <Trackpoint>
            <Time>2022-07-14T08:04:10.000Z</Time>
            <Position>
              <LatitudeDegrees>43.4279142133891582489013671875</LatitudeDegrees>
              <LongitudeDegrees>-3.95366284064948558807373046875</LongitudeDegrees>
            </Position>
            <AltitudeMeters>48.200000762939453125</AltitudeMeters>
            <DistanceMeters>NAN</DistanceMeters>
          </Trackpoint>
          <Trackpoint>
            <Time>2022-07-14T08:04:13.000Z</Time>
            <Position>
              <LatitudeDegrees>43.42788294889032840728759765625</LatitudeDegrees>
              <LongitudeDegrees>-3.95366518758237361907958984375</LongitudeDegrees>
            </Position>
            <AltitudeMeters>48.40000152587890625</AltitudeMeters>
            <DistanceMeters>NAN</DistanceMeters>
          </Trackpoint>
          <Trackpoint>
            <Time>2022-07-14T08:04:15.000Z</Time>
            <Position>
              <LatitudeDegrees>43.42787222005426883697509765625</LatitudeDegrees>
              <LongitudeDegrees>-3.95366217009723186492919921875</LongitudeDegrees>
            </Position>
            <AltitudeMeters>48.59999847412109375</AltitudeMeters>
            <DistanceMeters>NAN</DistanceMeters>
          </Trackpoint>
          <Trackpoint>
            <Time>2022-07-14T08:04:18.000Z</Time>
            <Position>
              <LatitudeDegrees>43.42783316038548946380615234375</LatitudeDegrees>
              <LongitudeDegrees>-3.95365362055599689483642578125</LongitudeDegrees>
            </Position>
            <AltitudeMeters>49</AltitudeMeters>
            <DistanceMeters>NAN</DistanceMeters>
          </Trackpoint>
          <Trackpoint>
            <Time>2022-07-14T08:04:22.000Z</Time>
            <Position>
              <LatitudeDegrees>43.4277837909758090972900390625</LatitudeDegrees>
              <LongitudeDegrees>-3.9536402933299541473388671875</LongitudeDegrees>
            </Position>
            <AltitudeMeters>49.200000762939453125</AltitudeMeters>
            <DistanceMeters>NAN</DistanceMeters>
          </Trackpoint>
          <Trackpoint>
            <Time>2022-07-14T08:04:27.000Z</Time>
            <Position>
              <LatitudeDegrees>43.427713215351104736328125</LatitudeDegrees>
              <LongitudeDegrees>-3.9536114595830440521240234375</LongitudeDegrees>
            </Position>
            <AltitudeMeters>49.799999237060546875</AltitudeMeters>
            <DistanceMeters>NAN</DistanceMeters>
          </Trackpoint>
          <Trackpoint>
            <Time>2022-07-14T08:04:28.000Z</Time>
            <Position>
              <LatitudeDegrees>43.4277011454105377197265625</LatitudeDegrees>
              <LongitudeDegrees>-3.95361422561109066009521484375</LongitudeDegrees>
            </Position>
            <AltitudeMeters>50</AltitudeMeters>
            <DistanceMeters>NAN</DistanceMeters>
          </Trackpoint>
          <Trackpoint>
            <Time>2022-07-14T08:04:30.000Z</Time>
            <Position>
              <LatitudeDegrees>43.4276714734733104705810546875</LatitudeDegrees>
              <LongitudeDegrees>-3.953620679676532745361328125</LongitudeDegrees>
            </Position>
            <AltitudeMeters>50.200000762939453125</AltitudeMeters>
            <DistanceMeters>NAN</DistanceMeters>
          </Trackpoint>
          <Trackpoint>
            <Time>2022-07-14T08:04:32.000Z</Time>
            <Position>
              <LatitudeDegrees>43.42766158282756805419921875</LatitudeDegrees>
              <LongitudeDegrees>-3.953623361885547637939453125</LongitudeDegrees>
            </Position>
            <AltitudeMeters>50.40000152587890625</AltitudeMeters>
            <DistanceMeters>NAN</DistanceMeters>
          </Trackpoint>
          <Trackpoint>
            <Time>2022-07-14T08:04:35.000Z</Time>
            <Position>
              <LatitudeDegrees>43.42764121480286121368408203125</LatitudeDegrees>
              <LongitudeDegrees>-3.9536332525312900543212890625</LongitudeDegrees>
            </Position>
            <AltitudeMeters>50.799999237060546875</AltitudeMeters>
            <DistanceMeters>NAN</DistanceMeters>
          </Trackpoint>
          <Trackpoint>
            <Time>2022-07-14T08:04:37.000Z</Time>
            <Position>
              <LatitudeDegrees>43.4276141412556171417236328125</LatitudeDegrees>
              <LongitudeDegrees>-3.95364255644381046295166015625</LongitudeDegrees>
            </Position>
            <AltitudeMeters>51</AltitudeMeters>
            <DistanceMeters>NAN</DistanceMeters>
          </Trackpoint>
          <Trackpoint>
            <Time>2022-07-14T08:04:39.000Z</Time>
            <Position>
              <LatitudeDegrees>43.4275938570499420166015625</LatitudeDegrees>
              <LongitudeDegrees>-3.953632079064846038818359375</LongitudeDegrees>
            </Position>
            <AltitudeMeters>51</AltitudeMeters>
            <DistanceMeters>NAN</DistanceMeters>
          </Trackpoint>
          <Trackpoint>
            <Time>2022-07-14T08:04:40.000Z</Time>
            <Position>
              <LatitudeDegrees>43.4275831282138824462890625</LatitudeDegrees>
              <LongitudeDegrees>-3.95362780429422855377197265625</LongitudeDegrees>
            </Position>
            <AltitudeMeters>51.200000762939453125</AltitudeMeters>
            <DistanceMeters>NAN</DistanceMeters>
          </Trackpoint>
          <Trackpoint>
            <Time>2022-07-14T08:04:41.000Z</Time>
            <Position>
              <LatitudeDegrees>43.42757332138717174530029296875</LatitudeDegrees>
              <LongitudeDegrees>-3.95362101495265960693359375</LongitudeDegrees>
            </Position>
            <AltitudeMeters>51.200000762939453125</AltitudeMeters>
            <DistanceMeters>NAN</DistanceMeters>
          </Trackpoint>
          <Trackpoint>
            <Time>2022-07-14T08:04:44.000Z</Time>
            <Position>
              <LatitudeDegrees>43.427536524832248687744140625</LatitudeDegrees>
              <LongitudeDegrees>-3.953599222004413604736328125</LongitudeDegrees>
            </Position>
            <AltitudeMeters>51.59999847412109375</AltitudeMeters>
            <DistanceMeters>NAN</DistanceMeters>
          </Trackpoint>
          <Trackpoint>
            <Time>2022-07-14T08:04:46.000Z</Time>
            <Position>
              <LatitudeDegrees>43.42750257812440395355224609375</LatitudeDegrees>
              <LongitudeDegrees>-3.95357131026685237884521484375</LongitudeDegrees>
            </Position>
            <AltitudeMeters>51.799999237060546875</AltitudeMeters>
            <DistanceMeters>NAN</DistanceMeters>
          </Trackpoint>
          <Trackpoint>
            <Time>2022-07-14T08:04:47.000Z</Time>
            <Position>
              <LatitudeDegrees>43.4274810366332530975341796875</LatitudeDegrees>
              <LongitudeDegrees>-3.9535621739923954010009765625</LongitudeDegrees>
            </Position>
            <AltitudeMeters>52</AltitudeMeters>
            <DistanceMeters>NAN</DistanceMeters>
          </Trackpoint>
          <Trackpoint>
            <Time>2022-07-14T08:04:49.000Z</Time>
            <Position>
              <LatitudeDegrees>43.4274558909237384796142578125</LatitudeDegrees>
              <LongitudeDegrees>-3.95356510765850543975830078125</LongitudeDegrees>
            </Position>
            <AltitudeMeters>52.200000762939453125</AltitudeMeters>
            <DistanceMeters>NAN</DistanceMeters>
          </Trackpoint>
          <Trackpoint>
            <Time>2022-07-14T08:04:55.000Z</Time>
            <Position>
              <LatitudeDegrees>43.42736477963626384735107421875</LatitudeDegrees>
              <LongitudeDegrees>-3.953517414629459381103515625</LongitudeDegrees>
            </Position>
            <AltitudeMeters>52.59999847412109375</AltitudeMeters>
            <DistanceMeters>NAN</DistanceMeters>
          </Trackpoint>
          <Trackpoint>
            <Time>2022-07-14T08:05:01.000Z</Time>
            <Position>
              <LatitudeDegrees>43.42733862809836864471435546875</LatitudeDegrees>
              <LongitudeDegrees>-3.9534699730575084686279296875</LongitudeDegrees>
            </Position>
            <AltitudeMeters>53.200000762939453125</AltitudeMeters>
            <DistanceMeters>NAN</DistanceMeters>
          </Trackpoint>
          <Trackpoint>
            <Time>2022-07-14T08:05:03.000Z</Time>
            <Position>
              <LatitudeDegrees>43.42733862809836864471435546875</LatitudeDegrees>
              <LongitudeDegrees>-3.9534699730575084686279296875</LongitudeDegrees>
            </Position>
            <AltitudeMeters>52.799999237060546875</AltitudeMeters>
            <DistanceMeters>NAN</DistanceMeters>
          </Trackpoint>
          <Trackpoint>
            <Time>2022-07-14T08:05:04.000Z</Time>
            <Position>
              <LatitudeDegrees>43.42733862809836864471435546875</LatitudeDegrees>
              <LongitudeDegrees>-3.9534699730575084686279296875</LongitudeDegrees>
            </Position>
            <AltitudeMeters>52.799999237060546875</AltitudeMeters>
            <DistanceMeters>NAN</DistanceMeters>
          </Trackpoint>
          <Trackpoint>
            <Time>2022-07-14T08:07:17.000Z</Time>
            <Position>
              <LatitudeDegrees>43.42728632502257823944091796875</LatitudeDegrees>
              <LongitudeDegrees>-3.9534609206020832061767578125</LongitudeDegrees>
            </Position>
            <AltitudeMeters>55</AltitudeMeters>
            <DistanceMeters>NAN</DistanceMeters>
          </Trackpoint>
          <Trackpoint>
            <Time>2022-07-14T08:07:18.000Z</Time>
            <Position>
              <LatitudeDegrees>43.42726998031139373779296875</LatitudeDegrees>
              <LongitudeDegrees>-3.95345446653664112091064453125</LongitudeDegrees>
            </Position>
            <AltitudeMeters>55.200000762939453125</AltitudeMeters>
            <DistanceMeters>NAN</DistanceMeters>
          </Trackpoint>
          <Trackpoint>
            <Time>2022-07-14T08:07:20.000Z</Time>
            <Position>
              <LatitudeDegrees>43.427230082452297210693359375</LatitudeDegrees>
              <LongitudeDegrees>-3.9534434862434864044189453125</LongitudeDegrees>
            </Position>
            <AltitudeMeters>55.59999847412109375</AltitudeMeters>
            <DistanceMeters>NAN</DistanceMeters>
          </Trackpoint>
          <Trackpoint>
            <Time>2022-07-14T08:07:26.000Z</Time>
            <Position>
              <LatitudeDegrees>43.42714550904929637908935546875</LatitudeDegrees>
              <LongitudeDegrees>-3.953421525657176971435546875</LongitudeDegrees>
            </Position>
            <AltitudeMeters>56.200000762939453125</AltitudeMeters>
            <DistanceMeters>NAN</DistanceMeters>
          </Trackpoint>
          <Trackpoint>
            <Time>2022-07-14T08:07:34.000Z</Time>
            <Position>
              <LatitudeDegrees>43.427032269537448883056640625</LatitudeDegrees>
              <LongitudeDegrees>-3.95338925532996654510498046875</LongitudeDegrees>
            </Position>
            <AltitudeMeters>57</AltitudeMeters>
            <DistanceMeters>NAN</DistanceMeters>
          </Trackpoint>
          <Trackpoint>
            <Time>2022-07-14T08:07:36.000Z</Time>
            <Position>
              <LatitudeDegrees>43.427008800208568572998046875</LatitudeDegrees>
              <LongitudeDegrees>-3.9533834718167781829833984375</LongitudeDegrees>
            </Position>
            <AltitudeMeters>57.200000762939453125</AltitudeMeters>
            <DistanceMeters>NAN</DistanceMeters>
          </Trackpoint>
          <Trackpoint>
            <Time>2022-07-14T08:07:40.000Z</Time>
            <Position>
              <LatitudeDegrees>43.426971249282360076904296875</LatitudeDegrees>
              <LongitudeDegrees>-3.9533774368464946746826171875</LongitudeDegrees>
            </Position>
            <AltitudeMeters>57.59999847412109375</AltitudeMeters>
            <DistanceMeters>NAN</DistanceMeters>
          </Trackpoint>
          <Trackpoint>
            <Time>2022-07-14T08:07:44.000Z</Time>
            <Position>
              <LatitudeDegrees>43.426912911236286163330078125</LatitudeDegrees>
              <LongitudeDegrees>-3.95335413515567779541015625</LongitudeDegrees>
            </Position>
            <AltitudeMeters>58.200000762939453125</AltitudeMeters>
            <DistanceMeters>NAN</DistanceMeters>
          </Trackpoint>
          <Trackpoint>
            <Time>2022-07-14T08:07:47.000Z</Time>
            <Position>
              <LatitudeDegrees>43.42688751406967639923095703125</LatitudeDegrees>
              <LongitudeDegrees>-3.95333879627287387847900390625</LongitudeDegrees>
            </Position>
            <AltitudeMeters>58.59999847412109375</AltitudeMeters>
            <DistanceMeters>NAN</DistanceMeters>
          </Trackpoint>
          <Trackpoint>
            <Time>2022-07-14T08:07:48.000Z</Time>
            <Position>
              <LatitudeDegrees>43.42687929980456829071044921875</LatitudeDegrees>
              <LongitudeDegrees>-3.95333041436970233917236328125</LongitudeDegrees>
            </Position>
            <AltitudeMeters>58.59999847412109375</AltitudeMeters>
            <DistanceMeters>NAN</DistanceMeters>
          </Trackpoint>
          <Trackpoint>
            <Time>2022-07-14T08:07:49.000Z</Time>
            <Position>
              <LatitudeDegrees>43.42686857096850872039794921875</LatitudeDegrees>
              <LongitudeDegrees>-3.953324966132640838623046875</LongitudeDegrees>
            </Position>
            <AltitudeMeters>58.59999847412109375</AltitudeMeters>
            <DistanceMeters>NAN</DistanceMeters>
          </Trackpoint>
          <Trackpoint>
            <Time>2022-07-14T08:07:51.000Z</Time>
            <Position>
              <LatitudeDegrees>43.42685163952410221099853515625</LatitudeDegrees>
              <LongitudeDegrees>-3.95332320593297481536865234375</LongitudeDegrees>
            </Position>
            <AltitudeMeters>58.59999847412109375</AltitudeMeters>
            <DistanceMeters>NAN</DistanceMeters>
          </Trackpoint>
          <Trackpoint>
            <Time>2022-07-14T08:07:53.000Z</Time>
            <Position>
              <LatitudeDegrees>43.426826409995555877685546875</LatitudeDegrees>
              <LongitudeDegrees>-3.95331448875367641448974609375</LongitudeDegrees>
            </Position>
            <AltitudeMeters>58.799999237060546875</AltitudeMeters>
            <DistanceMeters>NAN</DistanceMeters>
          </Trackpoint>
          <Trackpoint>
            <Time>2022-07-14T08:08:00.000Z</Time>
            <Position>
              <LatitudeDegrees>43.4267152659595012664794921875</LatitudeDegrees>
              <LongitudeDegrees>-3.9532875828444957733154296875</LongitudeDegrees>
            </Position>
            <AltitudeMeters>58.799999237060546875</AltitudeMeters>
            <DistanceMeters>NAN</DistanceMeters>
          </Trackpoint>
          <Trackpoint>
            <Time>2022-07-14T08:08:02.000Z</Time>
            <Position>
              <LatitudeDegrees>43.426669500768184661865234375</LatitudeDegrees>
              <LongitudeDegrees>-3.95327157340943813323974609375</LongitudeDegrees>
            </Position>
            <AltitudeMeters>58.799999237060546875</AltitudeMeters>
            <DistanceMeters>NAN</DistanceMeters>
          </Trackpoint>
          <Trackpoint>
            <Time>2022-07-14T08:08:03.000Z</Time>
            <Position>
              <LatitudeDegrees>43.4266408346593379974365234375</LatitudeDegrees>
              <LongitudeDegrees>-3.95325757563114166259765625</LongitudeDegrees>
            </Position>
            <AltitudeMeters>58.799999237060546875</AltitudeMeters>
            <DistanceMeters>NAN</DistanceMeters>
          </Trackpoint>
          <Trackpoint>
            <Time>2022-07-14T08:08:05.000Z</Time>
            <Position>
              <LatitudeDegrees>43.42655919492244720458984375</LatitudeDegrees>
              <LongitudeDegrees>-3.95322807133197784423828125</LongitudeDegrees>
            </Position>
            <AltitudeMeters>58.799999237060546875</AltitudeMeters>
            <DistanceMeters>NAN</DistanceMeters>
          </Trackpoint>
          <Trackpoint>
            <Time>2022-07-14T08:08:07.000Z</Time>
            <Position>
              <LatitudeDegrees>43.4264450334012508392333984375</LatitudeDegrees>
              <LongitudeDegrees>-3.95318188704550266265869140625</LongitudeDegrees>
            </Position>
            <AltitudeMeters>58.40000152587890625</AltitudeMeters>
            <DistanceMeters>NAN</DistanceMeters>
          </Trackpoint>
          <Trackpoint>
            <Time>2022-07-14T08:08:08.000Z</Time>
            <Position>
              <LatitudeDegrees>43.42637906782329082489013671875</LatitudeDegrees>
              <LongitudeDegrees>-3.95314634777605533599853515625</LongitudeDegrees>
            </Position>
            <AltitudeMeters>58</AltitudeMeters>
            <DistanceMeters>NAN</DistanceMeters>
          </Trackpoint>
          <Trackpoint>
            <Time>2022-07-14T08:08:11.000Z</Time>
            <Position>
              <LatitudeDegrees>43.4261717833578586578369140625</LatitudeDegrees>
              <LongitudeDegrees>-3.95301123149693012237548828125</LongitudeDegrees>
            </Position>
            <AltitudeMeters>57</AltitudeMeters>
            <DistanceMeters>NAN</DistanceMeters>
          </Trackpoint>
          <Trackpoint>
            <Time>2022-07-14T08:08:18.000Z</Time>
            <Position>
              <LatitudeDegrees>43.4257791750133037567138671875</LatitudeDegrees>
              <LongitudeDegrees>-3.952817022800445556640625</LongitudeDegrees>
            </Position>
            <AltitudeMeters>57</AltitudeMeters>
            <DistanceMeters>NAN</DistanceMeters>
          </Trackpoint>
          <Trackpoint>
            <Time>2022-07-14T08:08:22.000Z</Time>
            <Position>
              <LatitudeDegrees>43.42569342814385890960693359375</LatitudeDegrees>
              <LongitudeDegrees>-3.95266137085855007171630859375</LongitudeDegrees>
            </Position>
            <AltitudeMeters>57.200000762939453125</AltitudeMeters>
            <DistanceMeters>NAN</DistanceMeters>
          </Trackpoint>
          <Trackpoint>
            <Time>2022-07-14T08:08:28.000Z</Time>
            <Position>
              <LatitudeDegrees>43.4256393648684024810791015625</LatitudeDegrees>
              <LongitudeDegrees>-3.9524436928331851959228515625</LongitudeDegrees>
            </Position>
            <AltitudeMeters>57.799999237060546875</AltitudeMeters>
            <DistanceMeters>NAN</DistanceMeters>
          </Trackpoint>
          <Trackpoint>
            <Time>2022-07-14T08:08:29.000Z</Time>
            <Position>
              <LatitudeDegrees>43.425630815327167510986328125</LatitudeDegrees>
              <LongitudeDegrees>-3.9524173736572265625</LongitudeDegrees>
            </Position>
            <AltitudeMeters>58</AltitudeMeters>
            <DistanceMeters>NAN</DistanceMeters>
          </Trackpoint>
          <Trackpoint>
            <Time>2022-07-14T08:08:30.000Z</Time>
            <Position>
              <LatitudeDegrees>43.4256236068904399871826171875</LatitudeDegrees>
              <LongitudeDegrees>-3.95239415578544139862060546875</LongitudeDegrees>
            </Position>
            <AltitudeMeters>58.200000762939453125</AltitudeMeters>
            <DistanceMeters>NAN</DistanceMeters>
          </Trackpoint>
          <Trackpoint>
            <Time>2022-07-14T08:08:34.000Z</Time>
            <Position>
              <LatitudeDegrees>43.425611369311809539794921875</LatitudeDegrees>
              <LongitudeDegrees>-3.95228795707225799560546875</LongitudeDegrees>
            </Position>
            <AltitudeMeters>58.59999847412109375</AltitudeMeters>
            <DistanceMeters>NAN</DistanceMeters>
          </Trackpoint>
          <Trackpoint>
            <Time>2022-07-14T08:08:40.000Z</Time>
            <Position>
              <LatitudeDegrees>43.42557474039494991302490234375</LatitudeDegrees>
              <LongitudeDegrees>-3.95217907615005970001220703125</LongitudeDegrees>
            </Position>
            <AltitudeMeters>59.200000762939453125</AltitudeMeters>
            <DistanceMeters>NAN</DistanceMeters>
          </Trackpoint>
          <Trackpoint>
            <Time>2022-07-14T08:08:42.000Z</Time>
            <Position>
              <LatitudeDegrees>43.42556149698793888092041015625</LatitudeDegrees>
              <LongitudeDegrees>-3.9521463029086589813232421875</LongitudeDegrees>
            </Position>
            <AltitudeMeters>59.59999847412109375</AltitudeMeters>
            <DistanceMeters>NAN</DistanceMeters>
          </Trackpoint>
          <Trackpoint>
            <Time>2022-07-14T08:08:46.000Z</Time>
            <Position>
              <LatitudeDegrees>43.42551690526306629180908203125</LatitudeDegrees>
              <LongitudeDegrees>-3.95211537368595600128173828125</LongitudeDegrees>
            </Position>
            <AltitudeMeters>60.40000152587890625</AltitudeMeters>
            <DistanceMeters>NAN</DistanceMeters>
          </Trackpoint>
          <Trackpoint>
            <Time>2022-07-14T08:08:49.000Z</Time>
            <Position>
              <LatitudeDegrees>43.42548002488911151885986328125</LatitudeDegrees>
              <LongitudeDegrees>-3.952092826366424560546875</LongitudeDegrees>
            </Position>
            <AltitudeMeters>61</AltitudeMeters>
            <DistanceMeters>NAN</DistanceMeters>
          </Trackpoint>
          <Trackpoint>
            <Time>2022-07-14T08:08:51.000Z</Time>
            <Position>
              <LatitudeDegrees>43.4254656918346881866455078125</LatitudeDegrees>
              <LongitudeDegrees>-3.95207262597978115081787109375</LongitudeDegrees>
            </Position>
            <AltitudeMeters>61.59999847412109375</AltitudeMeters>
            <DistanceMeters>NAN</DistanceMeters>
          </Trackpoint>
          <Trackpoint>
            <Time>2022-07-14T08:08:52.000Z</Time>
            <Position>
              <LatitudeDegrees>43.4254472516477108001708984375</LatitudeDegrees>
              <LongitudeDegrees>-3.95206131041049957275390625</LongitudeDegrees>
            </Position>
            <AltitudeMeters>62.200000762939453125</AltitudeMeters>
            <DistanceMeters>NAN</DistanceMeters>
          </Trackpoint>
          <Trackpoint>
            <Time>2022-07-14T08:08:53.000Z</Time>
            <Position>
              <LatitudeDegrees>43.425438702106475830078125</LatitudeDegrees>
              <LongitudeDegrees>-3.95204764790832996368408203125</LongitudeDegrees>
            </Position>
            <AltitudeMeters>62.40000152587890625</AltitudeMeters>
            <DistanceMeters>NAN</DistanceMeters>
          </Trackpoint>
          <Trackpoint>
            <Time>2022-07-14T08:08:54.000Z</Time>
            <Position>
              <LatitudeDegrees>43.4254321642220020294189453125</LatitudeDegrees>
              <LongitudeDegrees>-3.9520432054996490478515625</LongitudeDegrees>
            </Position>
            <AltitudeMeters>62.59999847412109375</AltitudeMeters>
            <DistanceMeters>NAN</DistanceMeters>
          </Trackpoint>
          <Trackpoint>
            <Time>2022-07-14T08:08:56.000Z</Time>
            <Position>
              <LatitudeDegrees>43.42541464604437351226806640625</LatitudeDegrees>
              <LongitudeDegrees>-3.95204111002385616302490234375</LongitudeDegrees>
            </Position>
            <AltitudeMeters>63.200000762939453125</AltitudeMeters>
            <DistanceMeters>NAN</DistanceMeters>
          </Trackpoint>
          <Trackpoint>
            <Time>2022-07-14T08:08:57.000Z</Time>
            <Position>
              <LatitudeDegrees>43.42540726996958255767822265625</LatitudeDegrees>
              <LongitudeDegrees>-3.95203507505357265472412109375</LongitudeDegrees>
            </Position>
            <AltitudeMeters>63.40000152587890625</AltitudeMeters>
            <DistanceMeters>NAN</DistanceMeters>
          </Trackpoint>
          <Trackpoint>
            <Time>2022-07-14T08:08:59.000Z</Time>
            <Position>
              <LatitudeDegrees>43.42540408484637737274169921875</LatitudeDegrees>
              <LongitudeDegrees>-3.9520148746669292449951171875</LongitudeDegrees>
            </Position>
            <AltitudeMeters>63.799999237060546875</AltitudeMeters>
            <DistanceMeters>NAN</DistanceMeters>
          </Trackpoint>
          <Trackpoint>
            <Time>2022-07-14T08:09:00.000Z</Time>
            <Position>
              <LatitudeDegrees>43.425401486456394195556640625</LatitudeDegrees>
              <LongitudeDegrees>-3.95199785940349102020263671875</LongitudeDegrees>
            </Position>
            <AltitudeMeters>63.799999237060546875</AltitudeMeters>
            <DistanceMeters>NAN</DistanceMeters>
          </Trackpoint>
          <Trackpoint>
            <Time>2022-07-14T08:09:02.000Z</Time>
            <Position>
              <LatitudeDegrees>43.42539846897125244140625</LatitudeDegrees>
              <LongitudeDegrees>-3.95195947028696537017822265625</LongitudeDegrees>
            </Position>
            <AltitudeMeters>64</AltitudeMeters>
            <DistanceMeters>NAN</DistanceMeters>
          </Trackpoint>
          <Trackpoint>
            <Time>2022-07-14T08:09:05.000Z</Time>
            <Position>
              <LatitudeDegrees>43.4254185855388641357421875</LatitudeDegrees>
              <LongitudeDegrees>-3.95188939757645130157470703125</LongitudeDegrees>
            </Position>
            <AltitudeMeters>64.40000152587890625</AltitudeMeters>
            <DistanceMeters>NAN</DistanceMeters>
          </Trackpoint>
          <Trackpoint>
            <Time>2022-07-14T08:09:09.000Z</Time>
            <Position>
              <LatitudeDegrees>43.42543124221265316009521484375</LatitudeDegrees>
              <LongitudeDegrees>-3.9518019743263721466064453125</LongitudeDegrees>
            </Position>
            <AltitudeMeters>64.59999847412109375</AltitudeMeters>
            <DistanceMeters>NAN</DistanceMeters>
          </Trackpoint>
          <Trackpoint>
            <Time>2022-07-14T08:09:10.000Z</Time>
            <Position>
              <LatitudeDegrees>43.42542721889913082122802734375</LatitudeDegrees>
              <LongitudeDegrees>-3.95177892409265041351318359375</LongitudeDegrees>
            </Position>
            <AltitudeMeters>64.8000030517578125</AltitudeMeters>
            <DistanceMeters>NAN</DistanceMeters>
          </Trackpoint>
          <Trackpoint>
            <Time>2022-07-14T08:09:11.000Z</Time>
            <Position>
              <LatitudeDegrees>43.4254271350800991058349609375</LatitudeDegrees>
              <LongitudeDegrees>-3.95175545476377010345458984375</LongitudeDegrees>
            </Position>
            <AltitudeMeters>64.8000030517578125</AltitudeMeters>
            <DistanceMeters>NAN</DistanceMeters>
          </Trackpoint>
          <Trackpoint>
            <Time>2022-07-14T08:09:13.000Z</Time>
            <Position>
              <LatitudeDegrees>43.42541984282433986663818359375</LatitudeDegrees>
              <LongitudeDegrees>-3.95170952193439006805419921875</LongitudeDegrees>
            </Position>
            <AltitudeMeters>64.8000030517578125</AltitudeMeters>
            <DistanceMeters>NAN</DistanceMeters>
          </Trackpoint>
          <Trackpoint>
            <Time>2022-07-14T08:09:15.000Z</Time>
            <Position>
              <LatitudeDegrees>43.42540928162634372711181640625</LatitudeDegrees>
              <LongitudeDegrees>-3.95166845060884952545166015625</LongitudeDegrees>
            </Position>
            <AltitudeMeters>65</AltitudeMeters>
            <DistanceMeters>NAN</DistanceMeters>
          </Trackpoint>
          <Trackpoint>
            <Time>2022-07-14T08:09:17.000Z</Time>
            <Position>
              <LatitudeDegrees>43.42539000324904918670654296875</LatitudeDegrees>
              <LongitudeDegrees>-3.9516343362629413604736328125</LongitudeDegrees>
            </Position>
            <AltitudeMeters>65.1999969482421875</AltitudeMeters>
            <DistanceMeters>NAN</DistanceMeters>
          </Trackpoint>
          <Trackpoint>
            <Time>2022-07-14T08:09:18.000Z</Time>
            <Position>
              <LatitudeDegrees>43.42538841068744659423828125</LatitudeDegrees>
              <LongitudeDegrees>-3.9516148902475833892822265625</LongitudeDegrees>
            </Position>
            <AltitudeMeters>65.40000152587890625</AltitudeMeters>
            <DistanceMeters>NAN</DistanceMeters>
          </Trackpoint>
          <Trackpoint>
            <Time>2022-07-14T08:09:20.000Z</Time>
            <Position>
              <LatitudeDegrees>43.42537097632884979248046875</LatitudeDegrees>
              <LongitudeDegrees>-3.95158412866294384002685546875</LongitudeDegrees>
            </Position>
            <AltitudeMeters>65.59999847412109375</AltitudeMeters>
            <DistanceMeters>NAN</DistanceMeters>
          </Trackpoint>
          <Trackpoint>
            <Time>2022-07-14T08:09:21.000Z</Time>
            <Position>
              <LatitudeDegrees>43.42535681091248989105224609375</LatitudeDegrees>
              <LongitudeDegrees>-3.9515706337988376617431640625</LongitudeDegrees>
            </Position>
            <AltitudeMeters>65.8000030517578125</AltitudeMeters>
            <DistanceMeters>NAN</DistanceMeters>
          </Trackpoint>
          <Trackpoint>
            <Time>2022-07-14T08:09:26.000Z</Time>
            <Position>
              <LatitudeDegrees>43.4253144823014736175537109375</LatitudeDegrees>
              <LongitudeDegrees>-3.9514962024986743927001953125</LongitudeDegrees>
            </Position>
            <AltitudeMeters>66.59999847412109375</AltitudeMeters>
            <DistanceMeters>NAN</DistanceMeters>
          </Trackpoint>
          <Trackpoint>
            <Time>2022-07-14T08:09:28.000Z</Time>
            <Position>
              <LatitudeDegrees>43.425298221409320831298828125</LatitudeDegrees>
              <LongitudeDegrees>-3.95147030241787433624267578125</LongitudeDegrees>
            </Position>
            <AltitudeMeters>66.8000030517578125</AltitudeMeters>
            <DistanceMeters>NAN</DistanceMeters>
          </Trackpoint>
          <Trackpoint>
            <Time>2022-07-14T08:09:29.000Z</Time>
            <Position>
              <LatitudeDegrees>43.42528590001165866851806640625</LatitudeDegrees>
              <LongitudeDegrees>-3.951458819210529327392578125</LongitudeDegrees>
            </Position>
            <AltitudeMeters>67.1999969482421875</AltitudeMeters>
            <DistanceMeters>NAN</DistanceMeters>
          </Trackpoint>
          <Trackpoint>
            <Time>2022-07-14T08:09:31.000Z</Time>
            <Position>
              <LatitudeDegrees>43.42526360414922237396240234375</LatitudeDegrees>
              <LongitudeDegrees>-3.9514375291764736175537109375</LongitudeDegrees>
            </Position>
            <AltitudeMeters>67.40000152587890625</AltitudeMeters>
            <DistanceMeters>NAN</DistanceMeters>
          </Trackpoint>
          <Trackpoint>
            <Time>2022-07-14T08:09:33.000Z</Time>
            <Position>
              <LatitudeDegrees>43.4252501092851161956787109375</LatitudeDegrees>
              <LongitudeDegrees>-3.95141397602856159210205078125</LongitudeDegrees>
            </Position>
            <AltitudeMeters>67.8000030517578125</AltitudeMeters>
            <DistanceMeters>NAN</DistanceMeters>
          </Trackpoint>
          <Trackpoint>
            <Time>2022-07-14T08:09:34.000Z</Time>
            <Position>
              <LatitudeDegrees>43.42524231411516666412353515625</LatitudeDegrees>
              <LongitudeDegrees>-3.95140224136412143707275390625</LongitudeDegrees>
            </Position>
            <AltitudeMeters>68</AltitudeMeters>
            <DistanceMeters>NAN</DistanceMeters>
          </Trackpoint>
          <Trackpoint>
            <Time>2022-07-14T08:09:41.000Z</Time>
            <Position>
              <LatitudeDegrees>43.42517383396625518798828125</LatitudeDegrees>
              <LongitudeDegrees>-3.9513242058455944061279296875</LongitudeDegrees>
            </Position>
            <AltitudeMeters>68.8000030517578125</AltitudeMeters>
            <DistanceMeters>NAN</DistanceMeters>
          </Trackpoint>
          <Trackpoint>
            <Time>2022-07-14T08:09:43.000Z</Time>
            <Position>
              <LatitudeDegrees>43.4251615963876247406005859375</LatitudeDegrees>
              <LongitudeDegrees>-3.95129277370870113372802734375</LongitudeDegrees>
            </Position>
            <AltitudeMeters>69</AltitudeMeters>
            <DistanceMeters>NAN</DistanceMeters>
          </Trackpoint>
          <Trackpoint>
            <Time>2022-07-14T08:09:46.000Z</Time>
            <Position>
              <LatitudeDegrees>43.4251501969993114471435546875</LatitudeDegrees>
              <LongitudeDegrees>-3.9512497745454311370849609375</LongitudeDegrees>
            </Position>
            <AltitudeMeters>69.40000152587890625</AltitudeMeters>
            <DistanceMeters>NAN</DistanceMeters>
          </Trackpoint>
          <Trackpoint>
            <Time>2022-07-14T08:09:47.000Z</Time>
            <Position>
              <LatitudeDegrees>43.4251404739916324615478515625</LatitudeDegrees>
              <LongitudeDegrees>-3.95123812370002269744873046875</LongitudeDegrees>
            </Position>
            <AltitudeMeters>69.40000152587890625</AltitudeMeters>
            <DistanceMeters>NAN</DistanceMeters>
          </Trackpoint>
          <Trackpoint>
            <Time>2022-07-14T08:09:55.000Z</Time>
            <Position>
              <LatitudeDegrees>43.4250697307288646697998046875</LatitudeDegrees>
              <LongitudeDegrees>-3.95113251172006130218505859375</LongitudeDegrees>
            </Position>
            <AltitudeMeters>69.8000030517578125</AltitudeMeters>
            <DistanceMeters>NAN</DistanceMeters>
          </Trackpoint>
          <Trackpoint>
            <Time>2022-07-14T08:09:57.000Z</Time>
            <Position>
              <LatitudeDegrees>43.42505003325641155242919921875</LatitudeDegrees>
              <LongitudeDegrees>-3.951105773448944091796875</LongitudeDegrees>
            </Position>
            <AltitudeMeters>70</AltitudeMeters>
            <DistanceMeters>NAN</DistanceMeters>
          </Trackpoint>
          <Trackpoint>
            <Time>2022-07-14T08:09:59.000Z</Time>
            <Position>
              <LatitudeDegrees>43.42502673156559467315673828125</LatitudeDegrees>
              <LongitudeDegrees>-3.95109412260353565216064453125</LongitudeDegrees>
            </Position>
            <AltitudeMeters>70.1999969482421875</AltitudeMeters>
            <DistanceMeters>NAN</DistanceMeters>
          </Trackpoint>
          <Trackpoint>
            <Time>2022-07-14T08:10:00.000Z</Time>
            <Position>
              <LatitudeDegrees>43.42501156032085418701171875</LatitudeDegrees>
              <LongitudeDegrees>-3.95109144039452075958251953125</LongitudeDegrees>
            </Position>
            <AltitudeMeters>70.1999969482421875</AltitudeMeters>
            <DistanceMeters>NAN</DistanceMeters>
          </Trackpoint>
          <Trackpoint>
            <Time>2022-07-14T08:10:01.000Z</Time>
            <Position>
              <LatitudeDegrees>43.42499278485774993896484375</LatitudeDegrees>
              <LongitudeDegrees>-3.95108154974877834320068359375</LongitudeDegrees>
            </Position>
            <AltitudeMeters>70.1999969482421875</AltitudeMeters>
            <DistanceMeters>NAN</DistanceMeters>
          </Trackpoint>
          <Trackpoint>
            <Time>2022-07-14T08:10:09.000Z</Time>
            <Position>
              <LatitudeDegrees>43.424889855086803436279296875</LatitudeDegrees>
              <LongitudeDegrees>-3.9510053582489490509033203125</LongitudeDegrees>
            </Position>
            <AltitudeMeters>70.40000152587890625</AltitudeMeters>
            <DistanceMeters>NAN</DistanceMeters>
          </Trackpoint>
          <Trackpoint>
            <Time>2022-07-14T08:10:13.000Z</Time>
            <Position>
              <LatitudeDegrees>43.42487468384206295013427734375</LatitudeDegrees>
              <LongitudeDegrees>-3.95091776736080646514892578125</LongitudeDegrees>
            </Position>
            <AltitudeMeters>70.40000152587890625</AltitudeMeters>
            <DistanceMeters>NAN</DistanceMeters>
          </Trackpoint>
          <Trackpoint>
            <Time>2022-07-14T08:10:16.000Z</Time>
            <Position>
              <LatitudeDegrees>43.42485188506543636322021484375</LatitudeDegrees>
              <LongitudeDegrees>-3.95085624419152736663818359375</LongitudeDegrees>
            </Position>
            <AltitudeMeters>70.8000030517578125</AltitudeMeters>
            <DistanceMeters>NAN</DistanceMeters>
          </Trackpoint>
          <Trackpoint>
            <Time>2022-07-14T08:10:20.000Z</Time>
            <Position>
              <LatitudeDegrees>43.42480159364640712738037109375</LatitudeDegrees>
              <LongitudeDegrees>-3.950794301927089691162109375</LongitudeDegrees>
            </Position>
            <AltitudeMeters>71</AltitudeMeters>
            <DistanceMeters>NAN</DistanceMeters>
          </Trackpoint>
          <Trackpoint>
            <Time>2022-07-14T08:10:23.000Z</Time>
            <Position>
              <LatitudeDegrees>43.42477309517562389373779296875</LatitudeDegrees>
              <LongitudeDegrees>-3.9507535658776760101318359375</LongitudeDegrees>
            </Position>
            <AltitudeMeters>71.1999969482421875</AltitudeMeters>
            <DistanceMeters>NAN</DistanceMeters>
          </Trackpoint>
          <Trackpoint>
            <Time>2022-07-14T08:10:26.000Z</Time>
            <Position>
              <LatitudeDegrees>43.42473688535392284393310546875</LatitudeDegrees>
              <LongitudeDegrees>-3.9507089741528034210205078125</LongitudeDegrees>
            </Position>
            <AltitudeMeters>71.40000152587890625</AltitudeMeters>
            <DistanceMeters>NAN</DistanceMeters>
          </Trackpoint>
          <Trackpoint>
            <Time>2022-07-14T08:10:29.000Z</Time>
            <Position>
              <LatitudeDegrees>43.42469614930450916290283203125</LatitudeDegrees>
              <LongitudeDegrees>-3.9506553299725055694580078125</LongitudeDegrees>
            </Position>
            <AltitudeMeters>71.59999847412109375</AltitudeMeters>
            <DistanceMeters>NAN</DistanceMeters>
          </Trackpoint>
          <Trackpoint>
            <Time>2022-07-14T08:10:31.000Z</Time>
            <Position>
              <LatitudeDegrees>43.4246751107275485992431640625</LatitudeDegrees>
              <LongitudeDegrees>-3.9506221376359462738037109375</LongitudeDegrees>
            </Position>
            <AltitudeMeters>71.59999847412109375</AltitudeMeters>
            <DistanceMeters>NAN</DistanceMeters>
          </Trackpoint>
          <Trackpoint>
            <Time>2022-07-14T08:10:33.000Z</Time>
            <Position>
              <LatitudeDegrees>43.42465138994157314300537109375</LatitudeDegrees>
              <LongitudeDegrees>-3.9505855925381183624267578125</LongitudeDegrees>
            </Position>
            <AltitudeMeters>71.8000030517578125</AltitudeMeters>
            <DistanceMeters>NAN</DistanceMeters>
          </Trackpoint>
          <Trackpoint>
            <Time>2022-07-14T08:10:40.000Z</Time>
            <Position>
              <LatitudeDegrees>43.4245711751282215118408203125</LatitudeDegrees>
              <LongitudeDegrees>-3.9504575170576572418212890625</LongitudeDegrees>
            </Position>
            <AltitudeMeters>72</AltitudeMeters>
            <DistanceMeters>NAN</DistanceMeters>
          </Trackpoint>
          <Trackpoint>
            <Time>2022-07-14T08:10:43.000Z</Time>
            <Position>
              <LatitudeDegrees>43.42454058118164539337158203125</LatitudeDegrees>
              <LongitudeDegrees>-3.95040529780089855194091796875</LongitudeDegrees>
            </Position>
            <AltitudeMeters>72</AltitudeMeters>
            <DistanceMeters>NAN</DistanceMeters>
          </Trackpoint>
          <Trackpoint>
            <Time>2022-07-14T08:10:45.000Z</Time>
            <Position>
              <LatitudeDegrees>43.424513675272464752197265625</LatitudeDegrees>
              <LongitudeDegrees>-3.95037151873111724853515625</LongitudeDegrees>
            </Position>
            <AltitudeMeters>72.1999969482421875</AltitudeMeters>
            <DistanceMeters>NAN</DistanceMeters>
          </Trackpoint>
          <Trackpoint>
            <Time>2022-07-14T08:10:46.000Z</Time>
            <Position>
              <LatitudeDegrees>43.4244990907609462738037109375</LatitudeDegrees>
              <LongitudeDegrees>-3.95035408437252044677734375</LongitudeDegrees>
            </Position>
            <AltitudeMeters>72.1999969482421875</AltitudeMeters>
            <DistanceMeters>NAN</DistanceMeters>
          </Trackpoint>
          <Trackpoint>
            <Time>2022-07-14T08:10:48.000Z</Time>
            <Position>
              <LatitudeDegrees>43.42447050847113132476806640625</LatitudeDegrees>
              <LongitudeDegrees>-3.9503200538456439971923828125</LongitudeDegrees>
            </Position>
            <AltitudeMeters>72.1999969482421875</AltitudeMeters>
            <DistanceMeters>NAN</DistanceMeters>
          </Trackpoint>
          <Trackpoint>
            <Time>2022-07-14T08:10:50.000Z</Time>
            <Position>
              <LatitudeDegrees>43.42444402165710926055908203125</LatitudeDegrees>
              <LongitudeDegrees>-3.950290717184543609619140625</LongitudeDegrees>
            </Position>
            <AltitudeMeters>72.1999969482421875</AltitudeMeters>
            <DistanceMeters>NAN</DistanceMeters>
          </Trackpoint>
          <Trackpoint>
            <Time>2022-07-14T08:10:51.000Z</Time>
            <Position>
              <LatitudeDegrees>43.42443312518298625946044921875</LatitudeDegrees>
              <LongitudeDegrees>-3.95027906633913516998291015625</LongitudeDegrees>
            </Position>
            <AltitudeMeters>72.1999969482421875</AltitudeMeters>
            <DistanceMeters>NAN</DistanceMeters>
          </Trackpoint>
          <Trackpoint>
            <Time>2022-07-14T08:10:53.000Z</Time>
            <Position>
              <LatitudeDegrees>43.42441099695861339569091796875</LatitudeDegrees>
              <LongitudeDegrees>-3.95024185068905353546142578125</LongitudeDegrees>
            </Position>
            <AltitudeMeters>72.1999969482421875</AltitudeMeters>
            <DistanceMeters>NAN</DistanceMeters>
          </Trackpoint>
          <Trackpoint>
            <Time>2022-07-14T08:10:55.000Z</Time>
            <Position>
              <LatitudeDegrees>43.4243783913552761077880859375</LatitudeDegrees>
              <LongitudeDegrees>-3.95019943825900554656982421875</LongitudeDegrees>
            </Position>
            <AltitudeMeters>72.1999969482421875</AltitudeMeters>
            <DistanceMeters>NAN</DistanceMeters>
          </Trackpoint>
          <Trackpoint>
            <Time>2022-07-14T08:10:58.000Z</Time>
            <Position>
              <LatitudeDegrees>43.42432818375527858734130859375</LatitudeDegrees>
              <LongitudeDegrees>-3.95012634806334972381591796875</LongitudeDegrees>
            </Position>
            <AltitudeMeters>72.1999969482421875</AltitudeMeters>
            <DistanceMeters>NAN</DistanceMeters>
          </Trackpoint>
          <Trackpoint>
            <Time>2022-07-14T08:11:01.000Z</Time>
            <Position>
              <LatitudeDegrees>43.42426263727247714996337890625</LatitudeDegrees>
              <LongitudeDegrees>-3.95005493424832820892333984375</LongitudeDegrees>
            </Position>
            <AltitudeMeters>72</AltitudeMeters>
            <DistanceMeters>NAN</DistanceMeters>
          </Trackpoint>
          <Trackpoint>
            <Time>2022-07-14T08:11:06.000Z</Time>
            <Position>
              <LatitudeDegrees>43.42415451072156429290771484375</LatitudeDegrees>
              <LongitudeDegrees>-3.94991730339825153350830078125</LongitudeDegrees>
            </Position>
            <AltitudeMeters>71.59999847412109375</AltitudeMeters>
            <DistanceMeters>NAN</DistanceMeters>
          </Trackpoint>
          <Trackpoint>
            <Time>2022-07-14T08:11:11.000Z</Time>
            <Position>
              <LatitudeDegrees>43.4240511618554592132568359375</LatitudeDegrees>
              <LongitudeDegrees>-3.9497740566730499267578125</LongitudeDegrees>
            </Position>
            <AltitudeMeters>71</AltitudeMeters>
            <DistanceMeters>NAN</DistanceMeters>
          </Trackpoint>
          <Trackpoint>
            <Time>2022-07-14T08:11:14.000Z</Time>
            <Position>
              <LatitudeDegrees>43.4239876270294189453125</LatitudeDegrees>
              <LongitudeDegrees>-3.94968495704233646392822265625</LongitudeDegrees>
            </Position>
            <AltitudeMeters>70.59999847412109375</AltitudeMeters>
            <DistanceMeters>NAN</DistanceMeters>
          </Trackpoint>
          <Trackpoint>
            <Time>2022-07-14T08:11:18.000Z</Time>
            <Position>
              <LatitudeDegrees>43.42391587793827056884765625</LatitudeDegrees>
              <LongitudeDegrees>-3.9495948515832424163818359375</LongitudeDegrees>
            </Position>
            <AltitudeMeters>69.8000030517578125</AltitudeMeters>
            <DistanceMeters>NAN</DistanceMeters>
          </Trackpoint>
          <Trackpoint>
            <Time>2022-07-14T08:11:20.000Z</Time>
            <Position>
              <LatitudeDegrees>43.42388679273426532745361328125</LatitudeDegrees>
              <LongitudeDegrees>-3.94956559874117374420166015625</LongitudeDegrees>
            </Position>
            <AltitudeMeters>69.59999847412109375</AltitudeMeters>
            <DistanceMeters>NAN</DistanceMeters>
          </Trackpoint>
          <Trackpoint>
            <Time>2022-07-14T08:11:26.000Z</Time>
            <Position>
              <LatitudeDegrees>43.4237785823643207550048828125</LatitudeDegrees>
              <LongitudeDegrees>-3.9494376070797443389892578125</LongitudeDegrees>
            </Position>
            <AltitudeMeters>68.8000030517578125</AltitudeMeters>
            <DistanceMeters>NAN</DistanceMeters>
          </Trackpoint>
          <Trackpoint>
            <Time>2022-07-14T08:11:27.000Z</Time>
            <Position>
              <LatitudeDegrees>43.4237645007669925689697265625</LatitudeDegrees>
              <LongitudeDegrees>-3.94939561374485492706298828125</LongitudeDegrees>
            </Position>
            <AltitudeMeters>68.8000030517578125</AltitudeMeters>
            <DistanceMeters>NAN</DistanceMeters>
          </Trackpoint>
          <Trackpoint>
            <Time>2022-07-14T08:11:31.000Z</Time>
            <Position>
              <LatitudeDegrees>43.42365972697734832763671875</LatitudeDegrees>
              <LongitudeDegrees>-3.94922730512917041778564453125</LongitudeDegrees>
            </Position>
            <AltitudeMeters>68.1999969482421875</AltitudeMeters>
            <DistanceMeters>NAN</DistanceMeters>
          </Trackpoint>
          <Trackpoint>
            <Time>2022-07-14T08:11:32.000Z</Time>
            <Position>
              <LatitudeDegrees>43.42362863011658191680908203125</LatitudeDegrees>
              <LongitudeDegrees>-3.94918891601264476776123046875</LongitudeDegrees>
            </Position>
            <AltitudeMeters>68</AltitudeMeters>
            <DistanceMeters>NAN</DistanceMeters>
          </Trackpoint>
          <Trackpoint>
            <Time>2022-07-14T08:11:33.000Z</Time>
            <Position>
              <LatitudeDegrees>43.423596359789371490478515625</LatitudeDegrees>
              <LongitudeDegrees>-3.94915572367608547210693359375</LongitudeDegrees>
            </Position>
            <AltitudeMeters>67.59999847412109375</AltitudeMeters>
            <DistanceMeters>NAN</DistanceMeters>
          </Trackpoint>
          <Trackpoint>
            <Time>2022-07-14T08:11:36.000Z</Time>
            <Position>
              <LatitudeDegrees>43.42350424267351627349853515625</LatitudeDegrees>
              <LongitudeDegrees>-3.9490181766450405120849609375</LongitudeDegrees>
            </Position>
            <AltitudeMeters>66.59999847412109375</AltitudeMeters>
            <DistanceMeters>NAN</DistanceMeters>
          </Trackpoint>
          <Trackpoint>
            <Time>2022-07-14T08:11:37.000Z</Time>
            <Position>
              <LatitudeDegrees>43.42346526682376861572265625</LatitudeDegrees>
              <LongitudeDegrees>-3.94895128905773162841796875</LongitudeDegrees>
            </Position>
            <AltitudeMeters>66.40000152587890625</AltitudeMeters>
            <DistanceMeters>NAN</DistanceMeters>
          </Trackpoint>
          <Trackpoint>
            <Time>2022-07-14T08:11:38.000Z</Time>
            <Position>
              <LatitudeDegrees>43.42342914082109928131103515625</LatitudeDegrees>
              <LongitudeDegrees>-3.94889496266841888427734375</LongitudeDegrees>
            </Position>
            <AltitudeMeters>66.1999969482421875</AltitudeMeters>
            <DistanceMeters>NAN</DistanceMeters>
          </Trackpoint>
          <Trackpoint>
            <Time>2022-07-14T08:11:41.000Z</Time>
            <Position>
              <LatitudeDegrees>43.4233071841299533843994140625</LatitudeDegrees>
              <LongitudeDegrees>-3.94870360381901264190673828125</LongitudeDegrees>
            </Position>
            <AltitudeMeters>65.40000152587890625</AltitudeMeters>
            <DistanceMeters>NAN</DistanceMeters>
          </Trackpoint>
          <Trackpoint>
            <Time>2022-07-14T08:11:42.000Z</Time>
            <Position>
              <LatitudeDegrees>43.42326167039573192596435546875</LatitudeDegrees>
              <LongitudeDegrees>-3.9486359618604183197021484375</LongitudeDegrees>
            </Position>
            <AltitudeMeters>65</AltitudeMeters>
            <DistanceMeters>NAN</DistanceMeters>
          </Trackpoint>
          <Trackpoint>
            <Time>2022-07-14T08:11:45.000Z</Time>
            <Position>
              <LatitudeDegrees>43.4231174178421497344970703125</LatitudeDegrees>
              <LongitudeDegrees>-3.948439322412014007568359375</LongitudeDegrees>
            </Position>
            <AltitudeMeters>63.59999847412109375</AltitudeMeters>
            <DistanceMeters>NAN</DistanceMeters>
          </Trackpoint>
          <Trackpoint>
            <Time>2022-07-14T08:11:47.000Z</Time>
            <Position>
              <LatitudeDegrees>43.42303183861076831817626953125</LatitudeDegrees>
              <LongitudeDegrees>-3.94835122860968112945556640625</LongitudeDegrees>
            </Position>
            <AltitudeMeters>62.59999847412109375</AltitudeMeters>
            <DistanceMeters>NAN</DistanceMeters>
          </Trackpoint>
          <Trackpoint>
            <Time>2022-07-14T08:11:48.000Z</Time>
            <Position>
              <LatitudeDegrees>43.4229831397533416748046875</LatitudeDegrees>
              <LongitudeDegrees>-3.9483208023011684417724609375</LongitudeDegrees>
            </Position>
            <AltitudeMeters>62</AltitudeMeters>
            <DistanceMeters>NAN</DistanceMeters>
          </Trackpoint>
          <Trackpoint>
            <Time>2022-07-14T08:11:49.000Z</Time>
            <Position>
              <LatitudeDegrees>43.42293276451528072357177734375</LatitudeDegrees>
              <LongitudeDegrees>-3.9482993446290493011474609375</LongitudeDegrees>
            </Position>
            <AltitudeMeters>61.59999847412109375</AltitudeMeters>
            <DistanceMeters>NAN</DistanceMeters>
          </Trackpoint>
          <Trackpoint>
            <Time>2022-07-14T08:11:50.000Z</Time>
            <Position>
              <LatitudeDegrees>43.42288247309625148773193359375</LatitudeDegrees>
              <LongitudeDegrees>-3.94829004071652889251708984375</LongitudeDegrees>
            </Position>
            <AltitudeMeters>61.200000762939453125</AltitudeMeters>
            <DistanceMeters>NAN</DistanceMeters>
          </Trackpoint>
          <Trackpoint>
            <Time>2022-07-14T08:11:51.000Z</Time>
            <Position>
              <LatitudeDegrees>43.42283134348690509796142578125</LatitudeDegrees>
              <LongitudeDegrees>-3.94829037599265575408935546875</LongitudeDegrees>
            </Position>
            <AltitudeMeters>60.799999237060546875</AltitudeMeters>
            <DistanceMeters>NAN</DistanceMeters>
          </Trackpoint>
          <Trackpoint>
            <Time>2022-07-14T08:11:52.000Z</Time>
            <Position>
              <LatitudeDegrees>43.42278398573398590087890625</LatitudeDegrees>
              <LongitudeDegrees>-3.94829691387712955474853515625</LongitudeDegrees>
            </Position>
            <AltitudeMeters>60.59999847412109375</AltitudeMeters>
            <DistanceMeters>NAN</DistanceMeters>
          </Trackpoint>
          <Trackpoint>
            <Time>2022-07-14T08:11:54.000Z</Time>
            <Position>
              <LatitudeDegrees>43.422692455351352691650390625</LatitudeDegrees>
              <LongitudeDegrees>-3.948321975767612457275390625</LongitudeDegrees>
            </Position>
            <AltitudeMeters>59.59999847412109375</AltitudeMeters>
            <DistanceMeters>NAN</DistanceMeters>
          </Trackpoint>
          <Trackpoint>
            <Time>2022-07-14T08:11:56.000Z</Time>
            <Position>
              <LatitudeDegrees>43.42263135127723217010498046875</LatitudeDegrees>
              <LongitudeDegrees>-3.9483737759292125701904296875</LongitudeDegrees>
            </Position>
            <AltitudeMeters>59</AltitudeMeters>
            <DistanceMeters>NAN</DistanceMeters>
          </Trackpoint>
          <Trackpoint>
            <Time>2022-07-14T08:11:57.000Z</Time>
            <Position>
              <LatitudeDegrees>43.4225980751216411590576171875</LatitudeDegrees>
              <LongitudeDegrees>-3.9484193734824657440185546875</LongitudeDegrees>
            </Position>
            <AltitudeMeters>58.40000152587890625</AltitudeMeters>
            <DistanceMeters>NAN</DistanceMeters>
          </Trackpoint>
          <Trackpoint>
            <Time>2022-07-14T08:12:01.000Z</Time>
            <Position>
              <LatitudeDegrees>43.4224441833794116973876953125</LatitudeDegrees>
              <LongitudeDegrees>-3.9486896060407161712646484375</LongitudeDegrees>
            </Position>
            <AltitudeMeters>57.200000762939453125</AltitudeMeters>
            <DistanceMeters>NAN</DistanceMeters>
          </Trackpoint>
          <Trackpoint>
            <Time>2022-07-14T08:12:03.000Z</Time>
            <Position>
              <LatitudeDegrees>43.42234544456005096435546875</LatitudeDegrees>
              <LongitudeDegrees>-3.94887643866240978240966796875</LongitudeDegrees>
            </Position>
            <AltitudeMeters>56.200000762939453125</AltitudeMeters>
            <DistanceMeters>NAN</DistanceMeters>
          </Trackpoint>
          <Trackpoint>
            <Time>2022-07-14T08:12:04.000Z</Time>
            <Position>
              <LatitudeDegrees>43.4223006851971149444580078125</LatitudeDegrees>
              <LongitudeDegrees>-3.9489896781742572784423828125</LongitudeDegrees>
            </Position>
            <AltitudeMeters>55.799999237060546875</AltitudeMeters>
            <DistanceMeters>NAN</DistanceMeters>
          </Trackpoint>
          <Trackpoint>
            <Time>2022-07-14T08:12:06.000Z</Time>
            <Position>
              <LatitudeDegrees>43.4222172014415264129638671875</LatitudeDegrees>
              <LongitudeDegrees>-3.94923417828977108001708984375</LongitudeDegrees>
            </Position>
            <AltitudeMeters>55</AltitudeMeters>
            <DistanceMeters>NAN</DistanceMeters>
          </Trackpoint>
          <Trackpoint>
            <Time>2022-07-14T08:12:08.000Z</Time>
            <Position>
              <LatitudeDegrees>43.422137908637523651123046875</LatitudeDegrees>
              <LongitudeDegrees>-3.9494909159839153289794921875</LongitudeDegrees>
            </Position>
            <AltitudeMeters>53.59999847412109375</AltitudeMeters>
            <DistanceMeters>NAN</DistanceMeters>
          </Trackpoint>
          <Trackpoint>
            <Time>2022-07-14T08:12:09.000Z</Time>
            <Position>
              <LatitudeDegrees>43.4220975078642368316650390625</LatitudeDegrees>
              <LongitudeDegrees>-3.94961781799793243408203125</LongitudeDegrees>
            </Position>
            <AltitudeMeters>53</AltitudeMeters>
            <DistanceMeters>NAN</DistanceMeters>
          </Trackpoint>
          <Trackpoint>
            <Time>2022-07-14T08:12:11.000Z</Time>
            <Position>
              <LatitudeDegrees>43.4220314584672451019287109375</LatitudeDegrees>
              <LongitudeDegrees>-3.94983348436653614044189453125</LongitudeDegrees>
            </Position>
            <AltitudeMeters>52</AltitudeMeters>
            <DistanceMeters>NAN</DistanceMeters>
          </Trackpoint>
          <Trackpoint>
            <Time>2022-07-14T08:12:12.000Z</Time>
            <Position>
              <LatitudeDegrees>43.421995751559734344482421875</LatitudeDegrees>
              <LongitudeDegrees>-3.94995443522930145263671875</LongitudeDegrees>
            </Position>
            <AltitudeMeters>51.40000152587890625</AltitudeMeters>
            <DistanceMeters>NAN</DistanceMeters>
          </Trackpoint>
          <Trackpoint>
            <Time>2022-07-14T08:12:13.000Z</Time>
            <Position>
              <LatitudeDegrees>43.421972952783107757568359375</LatitudeDegrees>
              <LongitudeDegrees>-3.95003967918455600738525390625</LongitudeDegrees>
            </Position>
            <AltitudeMeters>50.799999237060546875</AltitudeMeters>
            <DistanceMeters>NAN</DistanceMeters>
          </Trackpoint>
          <Trackpoint>
            <Time>2022-07-14T08:12:14.000Z</Time>
            <Position>
              <LatitudeDegrees>43.421941101551055908203125</LatitudeDegrees>
              <LongitudeDegrees>-3.95012115128338336944580078125</LongitudeDegrees>
            </Position>
            <AltitudeMeters>50.40000152587890625</AltitudeMeters>
            <DistanceMeters>NAN</DistanceMeters>
          </Trackpoint>
          <Trackpoint>
            <Time>2022-07-14T08:12:15.000Z</Time>
            <Position>
              <LatitudeDegrees>43.4219067357480525970458984375</LatitudeDegrees>
              <LongitudeDegrees>-3.950189463794231414794921875</LongitudeDegrees>
            </Position>
            <AltitudeMeters>49.40000152587890625</AltitudeMeters>
            <DistanceMeters>NAN</DistanceMeters>
          </Trackpoint>
          <Trackpoint>
            <Time>2022-07-14T08:12:17.000Z</Time>
            <Position>
              <LatitudeDegrees>43.4218413569033145904541015625</LatitudeDegrees>
              <LongitudeDegrees>-3.95033354870975017547607421875</LongitudeDegrees>
            </Position>
            <AltitudeMeters>47.799999237060546875</AltitudeMeters>
            <DistanceMeters>NAN</DistanceMeters>
          </Trackpoint>
          <Trackpoint>
            <Time>2022-07-14T08:12:19.000Z</Time>
            <Position>
              <LatitudeDegrees>43.42178226448595523834228515625</LatitudeDegrees>
              <LongitudeDegrees>-3.95051158033311367034912109375</LongitudeDegrees>
            </Position>
            <AltitudeMeters>46.200000762939453125</AltitudeMeters>
            <DistanceMeters>NAN</DistanceMeters>
          </Trackpoint>
          <Trackpoint>
            <Time>2022-07-14T08:12:21.000Z</Time>
            <Position>
              <LatitudeDegrees>43.42173197306692600250244140625</LatitudeDegrees>
              <LongitudeDegrees>-3.95068827085196971893310546875</LongitudeDegrees>
            </Position>
            <AltitudeMeters>45</AltitudeMeters>
            <DistanceMeters>NAN</DistanceMeters>
          </Trackpoint>
          <Trackpoint>
            <Time>2022-07-14T08:12:24.000Z</Time>
            <Position>
              <LatitudeDegrees>43.42163641937077045440673828125</LatitudeDegrees>
              <LongitudeDegrees>-3.95098968409001827239990234375</LongitudeDegrees>
            </Position>
            <AltitudeMeters>44.40000152587890625</AltitudeMeters>
            <DistanceMeters>NAN</DistanceMeters>
          </Trackpoint>
          <Trackpoint>
            <Time>2022-07-14T08:12:25.000Z</Time>
            <Position>
              <LatitudeDegrees>43.42159953899681568145751953125</LatitudeDegrees>
              <LongitudeDegrees>-3.951081298291683197021484375</LongitudeDegrees>
            </Position>
            <AltitudeMeters>44.200000762939453125</AltitudeMeters>
            <DistanceMeters>NAN</DistanceMeters>
          </Trackpoint>
          <Trackpoint>
            <Time>2022-07-14T08:12:27.000Z</Time>
            <Position>
              <LatitudeDegrees>43.42151890508830547332763671875</LatitudeDegrees>
              <LongitudeDegrees>-3.95125756971538066864013671875</LongitudeDegrees>
            </Position>
            <AltitudeMeters>44</AltitudeMeters>
            <DistanceMeters>NAN</DistanceMeters>
          </Trackpoint>
          <Trackpoint>
            <Time>2022-07-14T08:12:31.000Z</Time>
            <Position>
              <LatitudeDegrees>43.42139057815074920654296875</LatitudeDegrees>
              <LongitudeDegrees>-3.95160743035376071929931640625</LongitudeDegrees>
            </Position>
            <AltitudeMeters>43.200000762939453125</AltitudeMeters>
            <DistanceMeters>NAN</DistanceMeters>
          </Trackpoint>
          <Trackpoint>
            <Time>2022-07-14T08:12:32.000Z</Time>
            <Position>
              <LatitudeDegrees>43.4213528595864772796630859375</LatitudeDegrees>
              <LongitudeDegrees>-3.95170231349766254425048828125</LongitudeDegrees>
            </Position>
            <AltitudeMeters>42.799999237060546875</AltitudeMeters>
            <DistanceMeters>NAN</DistanceMeters>
          </Trackpoint>
          <Trackpoint>
            <Time>2022-07-14T08:12:35.000Z</Time>
            <Position>
              <LatitudeDegrees>43.4212182462215423583984375</LatitudeDegrees>
              <LongitudeDegrees>-3.951991908252239227294921875</LongitudeDegrees>
            </Position>
            <AltitudeMeters>42</AltitudeMeters>
            <DistanceMeters>NAN</DistanceMeters>
          </Trackpoint>
          <Trackpoint>
            <Time>2022-07-14T08:12:36.000Z</Time>
            <Position>
              <LatitudeDegrees>43.42117239721119403839111328125</LatitudeDegrees>
              <LongitudeDegrees>-3.9520876295864582061767578125</LongitudeDegrees>
            </Position>
            <AltitudeMeters>41.799999237060546875</AltitudeMeters>
            <DistanceMeters>NAN</DistanceMeters>
          </Trackpoint>
          <Trackpoint>
            <Time>2022-07-14T08:12:37.000Z</Time>
            <Position>
              <LatitudeDegrees>43.42112814076244831085205078125</LatitudeDegrees>
              <LongitudeDegrees>-3.95218444056808948516845703125</LongitudeDegrees>
            </Position>
            <AltitudeMeters>41.200000762939453125</AltitudeMeters>
            <DistanceMeters>NAN</DistanceMeters>
          </Trackpoint>
          <Trackpoint>
            <Time>2022-07-14T08:12:38.000Z</Time>
            <Position>
              <LatitudeDegrees>43.42108212411403656005859375</LatitudeDegrees>
              <LongitudeDegrees>-3.95228167064487934112548828125</LongitudeDegrees>
            </Position>
            <AltitudeMeters>40.59999847412109375</AltitudeMeters>
            <DistanceMeters>NAN</DistanceMeters>
          </Trackpoint>
          <Trackpoint>
            <Time>2022-07-14T08:12:41.000Z</Time>
            <Position>
              <LatitudeDegrees>43.420938290655612945556640625</LatitudeDegrees>
              <LongitudeDegrees>-3.952569924294948577880859375</LongitudeDegrees>
            </Position>
            <AltitudeMeters>39.59999847412109375</AltitudeMeters>
            <DistanceMeters>NAN</DistanceMeters>
          </Trackpoint>
          <Trackpoint>
            <Time>2022-07-14T08:12:44.000Z</Time>
            <Position>
              <LatitudeDegrees>43.42079554684460163116455078125</LatitudeDegrees>
              <LongitudeDegrees>-3.95285717211663722991943359375</LongitudeDegrees>
            </Position>
            <AltitudeMeters>39</AltitudeMeters>
            <DistanceMeters>NAN</DistanceMeters>
          </Trackpoint>
          <Trackpoint>
            <Time>2022-07-14T08:12:45.000Z</Time>
            <Position>
              <LatitudeDegrees>43.42074844054877758026123046875</LatitudeDegrees>
              <LongitudeDegrees>-3.9529516361653804779052734375</LongitudeDegrees>
            </Position>
            <AltitudeMeters>38.40000152587890625</AltitudeMeters>
            <DistanceMeters>NAN</DistanceMeters>
          </Trackpoint>
          <Trackpoint>
            <Time>2022-07-14T08:12:49.000Z</Time>
            <Position>
              <LatitudeDegrees>43.4205951355397701263427734375</LatitudeDegrees>
              <LongitudeDegrees>-3.9532610960304737091064453125</LongitudeDegrees>
            </Position>
            <AltitudeMeters>37.59999847412109375</AltitudeMeters>
            <DistanceMeters>NAN</DistanceMeters>
          </Trackpoint>
          <Trackpoint>
            <Time>2022-07-14T08:12:50.000Z</Time>
            <Position>
              <LatitudeDegrees>43.4205502085387706756591796875</LatitudeDegrees>
              <LongitudeDegrees>-3.95335203967988491058349609375</LongitudeDegrees>
            </Position>
            <AltitudeMeters>37.40000152587890625</AltitudeMeters>
            <DistanceMeters>NAN</DistanceMeters>
          </Trackpoint>
          <Trackpoint>
            <Time>2022-07-14T08:12:53.000Z</Time>
            <Position>
              <LatitudeDegrees>43.4204583428800106048583984375</LatitudeDegrees>
              <LongitudeDegrees>-3.9535615034401416778564453125</LongitudeDegrees>
            </Position>
            <AltitudeMeters>37.200000762939453125</AltitudeMeters>
            <DistanceMeters>NAN</DistanceMeters>
          </Trackpoint>
          <Trackpoint>
            <Time>2022-07-14T08:12:54.000Z</Time>
            <Position>
              <LatitudeDegrees>43.420424647629261016845703125</LatitudeDegrees>
              <LongitudeDegrees>-3.95365186035633087158203125</LongitudeDegrees>
            </Position>
            <AltitudeMeters>37.200000762939453125</AltitudeMeters>
            <DistanceMeters>NAN</DistanceMeters>
          </Trackpoint>
          <Trackpoint>
            <Time>2022-07-14T08:12:55.000Z</Time>
            <Position>
              <LatitudeDegrees>43.42039841227233409881591796875</LatitudeDegrees>
              <LongitudeDegrees>-3.95372788421809673309326171875</LongitudeDegrees>
            </Position>
            <AltitudeMeters>37.200000762939453125</AltitudeMeters>
            <DistanceMeters>NAN</DistanceMeters>
          </Trackpoint>
          <Trackpoint>
            <Time>2022-07-14T08:12:59.000Z</Time>
            <Position>
              <LatitudeDegrees>43.42031844891607761383056640625</LatitudeDegrees>
              <LongitudeDegrees>-3.953994177281856536865234375</LongitudeDegrees>
            </Position>
            <AltitudeMeters>37.200000762939453125</AltitudeMeters>
            <DistanceMeters>NAN</DistanceMeters>
          </Trackpoint>
          <Trackpoint>
            <Time>2022-07-14T08:13:02.000Z</Time>
            <Position>
              <LatitudeDegrees>43.42025709338486194610595703125</LatitudeDegrees>
              <LongitudeDegrees>-3.95419442094862461090087890625</LongitudeDegrees>
            </Position>
            <AltitudeMeters>37.200000762939453125</AltitudeMeters>
            <DistanceMeters>NAN</DistanceMeters>
          </Trackpoint>
          <Trackpoint>
            <Time>2022-07-14T08:13:06.000Z</Time>
            <Position>
              <LatitudeDegrees>43.4201909601688385009765625</LatitudeDegrees>
              <LongitudeDegrees>-3.95445325411856174468994140625</LongitudeDegrees>
            </Position>
            <AltitudeMeters>37.200000762939453125</AltitudeMeters>
            <DistanceMeters>NAN</DistanceMeters>
          </Trackpoint>
          <Trackpoint>
            <Time>2022-07-14T08:13:08.000Z</Time>
            <Position>
              <LatitudeDegrees>43.4201582707464694976806640625</LatitudeDegrees>
              <LongitudeDegrees>-3.9545720256865024566650390625</LongitudeDegrees>
            </Position>
            <AltitudeMeters>37.200000762939453125</AltitudeMeters>
            <DistanceMeters>NAN</DistanceMeters>
          </Trackpoint>
          <Trackpoint>
            <Time>2022-07-14T08:13:10.000Z</Time>
            <Position>
              <LatitudeDegrees>43.42013823799788951873779296875</LatitudeDegrees>
              <LongitudeDegrees>-3.9546759612858295440673828125</LongitudeDegrees>
            </Position>
            <AltitudeMeters>37.200000762939453125</AltitudeMeters>
            <DistanceMeters>NAN</DistanceMeters>
          </Trackpoint>
          <Trackpoint>
            <Time>2022-07-14T08:13:11.000Z</Time>
            <Position>
              <LatitudeDegrees>43.42012801207602024078369140625</LatitudeDegrees>
              <LongitudeDegrees>-3.954725749790668487548828125</LongitudeDegrees>
            </Position>
            <AltitudeMeters>37.200000762939453125</AltitudeMeters>
            <DistanceMeters>NAN</DistanceMeters>
          </Trackpoint>
          <Trackpoint>
            <Time>2022-07-14T08:13:14.000Z</Time>
            <Position>
              <LatitudeDegrees>43.4200890362262725830078125</LatitudeDegrees>
              <LongitudeDegrees>-3.9548563398420810699462890625</LongitudeDegrees>
            </Position>
            <AltitudeMeters>37</AltitudeMeters>
            <DistanceMeters>NAN</DistanceMeters>
          </Trackpoint>
          <Trackpoint>
            <Time>2022-07-14T08:13:16.000Z</Time>
            <Position>
              <LatitudeDegrees>43.42004335485398769378662109375</LatitudeDegrees>
              <LongitudeDegrees>-3.954970501363277435302734375</LongitudeDegrees>
            </Position>
            <AltitudeMeters>36.799999237060546875</AltitudeMeters>
            <DistanceMeters>NAN</DistanceMeters>
          </Trackpoint>
          <Trackpoint>
            <Time>2022-07-14T08:13:17.000Z</Time>
            <Position>
              <LatitudeDegrees>43.42001552693545818328857421875</LatitudeDegrees>
              <LongitudeDegrees>-3.95503680221736431121826171875</LongitudeDegrees>
            </Position>
            <AltitudeMeters>36.59999847412109375</AltitudeMeters>
            <DistanceMeters>NAN</DistanceMeters>
          </Trackpoint>
          <Trackpoint>
            <Time>2022-07-14T08:13:19.000Z</Time>
            <Position>
              <LatitudeDegrees>43.41996909119188785552978515625</LatitudeDegrees>
              <LongitudeDegrees>-3.9551319368183612823486328125</LongitudeDegrees>
            </Position>
            <AltitudeMeters>36.200000762939453125</AltitudeMeters>
            <DistanceMeters>NAN</DistanceMeters>
          </Trackpoint>
          <Trackpoint>
            <Time>2022-07-14T08:13:21.000Z</Time>
            <Position>
              <LatitudeDegrees>43.4199235774576663970947265625</LatitudeDegrees>
              <LongitudeDegrees>-3.95528222434222698211669921875</LongitudeDegrees>
            </Position>
            <AltitudeMeters>35.59999847412109375</AltitudeMeters>
            <DistanceMeters>NAN</DistanceMeters>
          </Trackpoint>
          <Trackpoint>
            <Time>2022-07-14T08:13:22.000Z</Time>
            <Position>
              <LatitudeDegrees>43.4199106693267822265625</LatitudeDegrees>
              <LongitudeDegrees>-3.95534626208245754241943359375</LongitudeDegrees>
            </Position>
            <AltitudeMeters>35.200000762939453125</AltitudeMeters>
            <DistanceMeters>NAN</DistanceMeters>
          </Trackpoint>
          <Trackpoint>
            <Time>2022-07-14T08:13:23.000Z</Time>
            <Position>
              <LatitudeDegrees>43.41989734210073947906494140625</LatitudeDegrees>
              <LongitudeDegrees>-3.95542656071484088897705078125</LongitudeDegrees>
            </Position>
            <AltitudeMeters>34.799999237060546875</AltitudeMeters>
            <DistanceMeters>NAN</DistanceMeters>
          </Trackpoint>
          <Trackpoint>
            <Time>2022-07-14T08:13:24.000Z</Time>
            <Position>
              <LatitudeDegrees>43.41988745145499706268310546875</LatitudeDegrees>
              <LongitudeDegrees>-3.95550199784338474273681640625</LongitudeDegrees>
            </Position>
            <AltitudeMeters>34</AltitudeMeters>
            <DistanceMeters>NAN</DistanceMeters>
          </Trackpoint>
          <Trackpoint>
            <Time>2022-07-14T08:13:25.000Z</Time>
            <Position>
              <LatitudeDegrees>43.41988175176084041595458984375</LatitudeDegrees>
              <LongitudeDegrees>-3.9555802009999752044677734375</LongitudeDegrees>
            </Position>
            <AltitudeMeters>33.40000152587890625</AltitudeMeters>
            <DistanceMeters>NAN</DistanceMeters>
          </Trackpoint>
          <Trackpoint>
            <Time>2022-07-14T08:13:26.000Z</Time>
            <Position>
              <LatitudeDegrees>43.41988007538020610809326171875</LatitudeDegrees>
              <LongitudeDegrees>-3.95565303973853588104248046875</LongitudeDegrees>
            </Position>
            <AltitudeMeters>32.799999237060546875</AltitudeMeters>
            <DistanceMeters>NAN</DistanceMeters>
          </Trackpoint>
          <Trackpoint>
            <Time>2022-07-14T08:13:27.000Z</Time>
            <Position>
              <LatitudeDegrees>43.419878818094730377197265625</LatitudeDegrees>
              <LongitudeDegrees>-3.9557205140590667724609375</LongitudeDegrees>
            </Position>
            <AltitudeMeters>31.6000003814697265625</AltitudeMeters>
            <DistanceMeters>NAN</DistanceMeters>
          </Trackpoint>
          <Trackpoint>
            <Time>2022-07-14T08:13:29.000Z</Time>
            <Position>
              <LatitudeDegrees>43.41987320221960544586181640625</LatitudeDegrees>
              <LongitudeDegrees>-3.95587943494319915771484375</LongitudeDegrees>
            </Position>
            <AltitudeMeters>30.200000762939453125</AltitudeMeters>
            <DistanceMeters>NAN</DistanceMeters>
          </Trackpoint>
          <Trackpoint>
            <Time>2022-07-14T08:13:31.000Z</Time>
            <Position>
              <LatitudeDegrees>43.41987119056284427642822265625</LatitudeDegrees>
              <LongitudeDegrees>-3.95605570636689662933349609375</LongitudeDegrees>
            </Position>
            <AltitudeMeters>29.200000762939453125</AltitudeMeters>
            <DistanceMeters>NAN</DistanceMeters>
          </Trackpoint>
          <Trackpoint>
            <Time>2022-07-14T08:13:33.000Z</Time>
            <Position>
              <LatitudeDegrees>43.4198530018329620361328125</LatitudeDegrees>
              <LongitudeDegrees>-3.95623105578124523162841796875</LongitudeDegrees>
            </Position>
            <AltitudeMeters>27.799999237060546875</AltitudeMeters>
            <DistanceMeters>NAN</DistanceMeters>
          </Trackpoint>
          <Trackpoint>
            <Time>2022-07-14T08:13:34.000Z</Time>
            <Position>
              <LatitudeDegrees>43.41983581893146038055419921875</LatitudeDegrees>
              <LongitudeDegrees>-3.95630951039493083953857421875</LongitudeDegrees>
            </Position>
            <AltitudeMeters>27.200000762939453125</AltitudeMeters>
            <DistanceMeters>NAN</DistanceMeters>
          </Trackpoint>
          <Trackpoint>
            <Time>2022-07-14T08:13:36.000Z</Time>
            <Position>
              <LatitudeDegrees>43.419788293540477752685546875</LatitudeDegrees>
              <LongitudeDegrees>-3.95644864998757839202880859375</LongitudeDegrees>
            </Position>
            <AltitudeMeters>26.799999237060546875</AltitudeMeters>
            <DistanceMeters>NAN</DistanceMeters>
          </Trackpoint>
          <Trackpoint>
            <Time>2022-07-14T08:13:37.000Z</Time>
            <Position>
              <LatitudeDegrees>43.41974437236785888671875</LatitudeDegrees>
              <LongitudeDegrees>-3.95651042461395263671875</LongitudeDegrees>
            </Position>
            <AltitudeMeters>26.6000003814697265625</AltitudeMeters>
            <DistanceMeters>NAN</DistanceMeters>
          </Trackpoint>
          <Trackpoint>
            <Time>2022-07-14T08:13:38.000Z</Time>
            <Position>
              <LatitudeDegrees>43.419676981866359710693359375</LatitudeDegrees>
              <LongitudeDegrees>-3.9565595425665378570556640625</LongitudeDegrees>
            </Position>
            <AltitudeMeters>26.3999996185302734375</AltitudeMeters>
            <DistanceMeters>NAN</DistanceMeters>
          </Trackpoint>
          <Trackpoint>
            <Time>2022-07-14T08:13:47.000Z</Time>
            <Position>
              <LatitudeDegrees>43.419245146214962005615234375</LatitudeDegrees>
              <LongitudeDegrees>-3.95666691474616527557373046875</LongitudeDegrees>
            </Position>
            <AltitudeMeters>25.799999237060546875</AltitudeMeters>
            <DistanceMeters>NAN</DistanceMeters>
          </Trackpoint>
          <Trackpoint>
            <Time>2022-07-14T08:13:52.000Z</Time>
            <Position>
              <LatitudeDegrees>43.41906376183032989501953125</LatitudeDegrees>
              <LongitudeDegrees>-3.9567519910633563995361328125</LongitudeDegrees>
            </Position>
            <AltitudeMeters>26.3999996185302734375</AltitudeMeters>
            <DistanceMeters>NAN</DistanceMeters>
          </Trackpoint>
          <Trackpoint>
            <Time>2022-07-14T08:13:56.000Z</Time>
            <Position>
              <LatitudeDegrees>43.41895504854619503021240234375</LatitudeDegrees>
              <LongitudeDegrees>-3.956833295524120330810546875</LongitudeDegrees>
            </Position>
            <AltitudeMeters>26.6000003814697265625</AltitudeMeters>
            <DistanceMeters>NAN</DistanceMeters>
          </Trackpoint>
          <Trackpoint>
            <Time>2022-07-14T08:13:58.000Z</Time>
            <Position>
              <LatitudeDegrees>43.41888648457825183868408203125</LatitudeDegrees>
              <LongitudeDegrees>-3.95685332827270030975341796875</LongitudeDegrees>
            </Position>
            <AltitudeMeters>26.6000003814697265625</AltitudeMeters>
            <DistanceMeters>NAN</DistanceMeters>
          </Trackpoint>
          <Trackpoint>
            <Time>2022-07-14T08:13:59.000Z</Time>
            <Position>
              <LatitudeDegrees>43.4188530407845973968505859375</LatitudeDegrees>
              <LongitudeDegrees>-3.9568589441478252410888671875</LongitudeDegrees>
            </Position>
            <AltitudeMeters>26.6000003814697265625</AltitudeMeters>
            <DistanceMeters>NAN</DistanceMeters>
          </Trackpoint>
          <Trackpoint>
            <Time>2022-07-14T08:14:02.000Z</Time>
            <Position>
              <LatitudeDegrees>43.4187454171478748321533203125</LatitudeDegrees>
              <LongitudeDegrees>-3.95687227137386798858642578125</LongitudeDegrees>
            </Position>
            <AltitudeMeters>26.6000003814697265625</AltitudeMeters>
            <DistanceMeters>NAN</DistanceMeters>
          </Trackpoint>
          <Trackpoint>
            <Time>2022-07-14T08:14:07.000Z</Time>
            <Position>
              <LatitudeDegrees>43.4185566566884517669677734375</LatitudeDegrees>
              <LongitudeDegrees>-3.95693957805633544921875</LongitudeDegrees>
            </Position>
            <AltitudeMeters>26.3999996185302734375</AltitudeMeters>
            <DistanceMeters>NAN</DistanceMeters>
          </Trackpoint>
          <Trackpoint>
            <Time>2022-07-14T08:14:08.000Z</Time>
            <Position>
              <LatitudeDegrees>43.4185090474784374237060546875</LatitudeDegrees>
              <LongitudeDegrees>-3.95695156417787075042724609375</LongitudeDegrees>
            </Position>
            <AltitudeMeters>26.3999996185302734375</AltitudeMeters>
            <DistanceMeters>NAN</DistanceMeters>
          </Trackpoint>
          <Trackpoint>
            <Time>2022-07-14T08:14:13.000Z</Time>
            <Position>
              <LatitudeDegrees>43.41831048019230365753173828125</LatitudeDegrees>
              <LongitudeDegrees>-3.9570316113531589508056640625</LongitudeDegrees>
            </Position>
            <AltitudeMeters>26.3999996185302734375</AltitudeMeters>
            <DistanceMeters>NAN</DistanceMeters>
          </Trackpoint>
          <Trackpoint>
            <Time>2022-07-14T08:14:15.000Z</Time>
            <Position>
              <LatitudeDegrees>43.418225906789302825927734375</LatitudeDegrees>
              <LongitudeDegrees>-3.957073353230953216552734375</LongitudeDegrees>
            </Position>
            <AltitudeMeters>26.3999996185302734375</AltitudeMeters>
            <DistanceMeters>NAN</DistanceMeters>
          </Trackpoint>
          <Trackpoint>
            <Time>2022-07-14T08:14:20.000Z</Time>
            <Position>
              <LatitudeDegrees>43.4180081449449062347412109375</LatitudeDegrees>
              <LongitudeDegrees>-3.95720737986266613006591796875</LongitudeDegrees>
            </Position>
            <AltitudeMeters>26.3999996185302734375</AltitudeMeters>
            <DistanceMeters>NAN</DistanceMeters>
          </Trackpoint>
          <Trackpoint>
            <Time>2022-07-14T08:14:22.000Z</Time>
            <Position>
              <LatitudeDegrees>43.41792256571352481842041015625</LatitudeDegrees>
              <LongitudeDegrees>-3.95724627189338207244873046875</LongitudeDegrees>
            </Position>
            <AltitudeMeters>26.200000762939453125</AltitudeMeters>
            <DistanceMeters>NAN</DistanceMeters>
          </Trackpoint>
          <Trackpoint>
            <Time>2022-07-14T08:14:24.000Z</Time>
            <Position>
              <LatitudeDegrees>43.41783338226377964019775390625</LatitudeDegrees>
              <LongitudeDegrees>-3.95729103125631809234619140625</LongitudeDegrees>
            </Position>
            <AltitudeMeters>26</AltitudeMeters>
            <DistanceMeters>NAN</DistanceMeters>
          </Trackpoint>
          <Trackpoint>
            <Time>2022-07-14T08:14:30.000Z</Time>
            <Position>
              <LatitudeDegrees>43.417595922946929931640625</LatitudeDegrees>
              <LongitudeDegrees>-3.9574047736823558807373046875</LongitudeDegrees>
            </Position>
            <AltitudeMeters>26</AltitudeMeters>
            <DistanceMeters>NAN</DistanceMeters>
          </Trackpoint>
          <Trackpoint>
            <Time>2022-07-14T08:14:32.000Z</Time>
            <Position>
              <LatitudeDegrees>43.4175213240087032318115234375</LatitudeDegrees>
              <LongitudeDegrees>-3.95744592882692813873291015625</LongitudeDegrees>
            </Position>
            <AltitudeMeters>26.200000762939453125</AltitudeMeters>
            <DistanceMeters>NAN</DistanceMeters>
          </Trackpoint>
          <Trackpoint>
            <Time>2022-07-14T08:14:41.000Z</Time>
            <Position>
              <LatitudeDegrees>43.41717590577900409698486328125</LatitudeDegrees>
              <LongitudeDegrees>-3.95755355246365070343017578125</LongitudeDegrees>
            </Position>
            <AltitudeMeters>26.200000762939453125</AltitudeMeters>
            <DistanceMeters>NAN</DistanceMeters>
          </Trackpoint>
          <Trackpoint>
            <Time>2022-07-14T08:14:50.000Z</Time>
            <Position>
              <LatitudeDegrees>43.4168011508882045745849609375</LatitudeDegrees>
              <LongitudeDegrees>-3.9576357789337635040283203125</LongitudeDegrees>
            </Position>
            <AltitudeMeters>26.6000003814697265625</AltitudeMeters>
            <DistanceMeters>NAN</DistanceMeters>
          </Trackpoint>
          <Trackpoint>
            <Time>2022-07-14T08:15:01.000Z</Time>
            <Position>
              <LatitudeDegrees>43.41636537574231624603271484375</LatitudeDegrees>
              <LongitudeDegrees>-3.9576951228082180023193359375</LongitudeDegrees>
            </Position>
            <AltitudeMeters>26.6000003814697265625</AltitudeMeters>
            <DistanceMeters>NAN</DistanceMeters>
          </Trackpoint>
          <Trackpoint>
            <Time>2022-07-14T08:15:11.000Z</Time>
            <Position>
              <LatitudeDegrees>43.41597385704517364501953125</LatitudeDegrees>
              <LongitudeDegrees>-3.957747258245944976806640625</LongitudeDegrees>
            </Position>
            <AltitudeMeters>26.3999996185302734375</AltitudeMeters>
            <DistanceMeters>NAN</DistanceMeters>
          </Trackpoint>
          <Trackpoint>
            <Time>2022-07-14T08:15:20.000Z</Time>
            <Position>
              <LatitudeDegrees>43.41559692285954952239990234375</LatitudeDegrees>
              <LongitudeDegrees>-3.95776427350938320159912109375</LongitudeDegrees>
            </Position>
            <AltitudeMeters>26.799999237060546875</AltitudeMeters>
            <DistanceMeters>NAN</DistanceMeters>
          </Trackpoint>
          <Trackpoint>
            <Time>2022-07-14T08:15:23.000Z</Time>
            <Position>
              <LatitudeDegrees>43.41547387652099132537841796875</LatitudeDegrees>
              <LongitudeDegrees>-3.957767374813556671142578125</LongitudeDegrees>
            </Position>
            <AltitudeMeters>27</AltitudeMeters>
            <DistanceMeters>NAN</DistanceMeters>
          </Trackpoint>
          <Trackpoint>
            <Time>2022-07-14T08:15:29.000Z</Time>
            <Position>
              <LatitudeDegrees>43.415246643126010894775390625</LatitudeDegrees>
              <LongitudeDegrees>-3.95778439007699489593505859375</LongitudeDegrees>
            </Position>
            <AltitudeMeters>26.799999237060546875</AltitudeMeters>
            <DistanceMeters>NAN</DistanceMeters>
          </Trackpoint>
          <Trackpoint>
            <Time>2022-07-14T08:15:30.000Z</Time>
            <Position>
              <LatitudeDegrees>43.415211774408817291259765625</LatitudeDegrees>
              <LongitudeDegrees>-3.95778707228600978851318359375</LongitudeDegrees>
            </Position>
            <AltitudeMeters>26.799999237060546875</AltitudeMeters>
            <DistanceMeters>NAN</DistanceMeters>
          </Trackpoint>
          <Trackpoint>
            <Time>2022-07-14T08:15:36.000Z</Time>
            <Position>
              <LatitudeDegrees>43.41498035006225109100341796875</LatitudeDegrees>
              <LongitudeDegrees>-3.95780517719686031341552734375</LongitudeDegrees>
            </Position>
            <AltitudeMeters>26.799999237060546875</AltitudeMeters>
            <DistanceMeters>NAN</DistanceMeters>
          </Trackpoint>
          <Trackpoint>
            <Time>2022-07-14T08:15:43.000Z</Time>
            <Position>
              <LatitudeDegrees>43.41472528874874114990234375</LatitudeDegrees>
              <LongitudeDegrees>-3.95780450664460659027099609375</LongitudeDegrees>
            </Position>
            <AltitudeMeters>26.799999237060546875</AltitudeMeters>
            <DistanceMeters>NAN</DistanceMeters>
          </Trackpoint>
          <Trackpoint>
            <Time>2022-07-14T08:15:45.000Z</Time>
            <Position>
              <LatitudeDegrees>43.41463970951735973358154296875</LatitudeDegrees>
              <LongitudeDegrees>-3.9578044228255748748779296875</LongitudeDegrees>
            </Position>
            <AltitudeMeters>26.799999237060546875</AltitudeMeters>
            <DistanceMeters>NAN</DistanceMeters>
          </Trackpoint>
          <Trackpoint>
            <Time>2022-07-14T08:15:54.000Z</Time>
            <Position>
              <LatitudeDegrees>43.4142765216529369354248046875</LatitudeDegrees>
              <LongitudeDegrees>-3.95784775726497173309326171875</LongitudeDegrees>
            </Position>
            <AltitudeMeters>27</AltitudeMeters>
            <DistanceMeters>NAN</DistanceMeters>
          </Trackpoint>
          <Trackpoint>
            <Time>2022-07-14T08:15:57.000Z</Time>
            <Position>
              <LatitudeDegrees>43.4141658805310726165771484375</LatitudeDegrees>
              <LongitudeDegrees>-3.95785077475011348724365234375</LongitudeDegrees>
            </Position>
            <AltitudeMeters>27</AltitudeMeters>
            <DistanceMeters>NAN</DistanceMeters>
          </Trackpoint>
          <Trackpoint>
            <Time>2022-07-14T08:16:00.000Z</Time>
            <Position>
              <LatitudeDegrees>43.41404627077281475067138671875</LatitudeDegrees>
              <LongitudeDegrees>-3.95785328932106494903564453125</LongitudeDegrees>
            </Position>
            <AltitudeMeters>27</AltitudeMeters>
            <DistanceMeters>NAN</DistanceMeters>
          </Trackpoint>
          <Trackpoint>
            <Time>2022-07-14T08:16:01.000Z</Time>
            <Position>
              <LatitudeDegrees>43.414001762866973876953125</LatitudeDegrees>
              <LongitudeDegrees>-3.95785295404493808746337890625</LongitudeDegrees>
            </Position>
            <AltitudeMeters>27</AltitudeMeters>
            <DistanceMeters>NAN</DistanceMeters>
          </Trackpoint>
          <Trackpoint>
            <Time>2022-07-14T08:16:04.000Z</Time>
            <Position>
              <LatitudeDegrees>43.41388416476547718048095703125</LatitudeDegrees>
              <LongitudeDegrees>-3.95786049775779247283935546875</LongitudeDegrees>
            </Position>
            <AltitudeMeters>27</AltitudeMeters>
            <DistanceMeters>NAN</DistanceMeters>
          </Trackpoint>
          <Trackpoint>
            <Time>2022-07-14T08:16:06.000Z</Time>
            <Position>
              <LatitudeDegrees>43.41380797326564788818359375</LatitudeDegrees>
              <LongitudeDegrees>-3.95788162015378475189208984375</LongitudeDegrees>
            </Position>
            <AltitudeMeters>27</AltitudeMeters>
            <DistanceMeters>NAN</DistanceMeters>
          </Trackpoint>
          <Trackpoint>
            <Time>2022-07-14T08:16:12.000Z</Time>
            <Position>
              <LatitudeDegrees>43.413558863103389739990234375</LatitudeDegrees>
              <LongitudeDegrees>-3.9579003117978572845458984375</LongitudeDegrees>
            </Position>
            <AltitudeMeters>27</AltitudeMeters>
            <DistanceMeters>NAN</DistanceMeters>
          </Trackpoint>
          <Trackpoint>
            <Time>2022-07-14T08:16:17.000Z</Time>
            <Position>
              <LatitudeDegrees>43.41334654949605464935302734375</LatitudeDegrees>
              <LongitudeDegrees>-3.95792453549802303314208984375</LongitudeDegrees>
            </Position>
            <AltitudeMeters>26.799999237060546875</AltitudeMeters>
            <DistanceMeters>NAN</DistanceMeters>
          </Trackpoint>
          <Trackpoint>
            <Time>2022-07-14T08:16:19.000Z</Time>
            <Position>
              <LatitudeDegrees>43.4132713638246059417724609375</LatitudeDegrees>
              <LongitudeDegrees>-3.95792906172573566436767578125</LongitudeDegrees>
            </Position>
            <AltitudeMeters>26.799999237060546875</AltitudeMeters>
            <DistanceMeters>NAN</DistanceMeters>
          </Trackpoint>
          <Trackpoint>
            <Time>2022-07-14T08:16:20.000Z</Time>
            <Position>
              <LatitudeDegrees>43.41322434134781360626220703125</LatitudeDegrees>
              <LongitudeDegrees>-3.9579324983060359954833984375</LongitudeDegrees>
            </Position>
            <AltitudeMeters>26.799999237060546875</AltitudeMeters>
            <DistanceMeters>NAN</DistanceMeters>
          </Trackpoint>
          <Trackpoint>
            <Time>2022-07-14T08:16:21.000Z</Time>
            <Position>
              <LatitudeDegrees>43.413185365498065948486328125</LatitudeDegrees>
              <LongitudeDegrees>-3.95793342031538486480712890625</LongitudeDegrees>
            </Position>
            <AltitudeMeters>26.799999237060546875</AltitudeMeters>
            <DistanceMeters>NAN</DistanceMeters>
          </Trackpoint>
          <Trackpoint>
            <Time>2022-07-14T08:16:23.000Z</Time>
            <Position>
              <LatitudeDegrees>43.41311319731175899505615234375</LatitudeDegrees>
              <LongitudeDegrees>-3.9579274691641330718994140625</LongitudeDegrees>
            </Position>
            <AltitudeMeters>27</AltitudeMeters>
            <DistanceMeters>NAN</DistanceMeters>
          </Trackpoint>
          <Trackpoint>
            <Time>2022-07-14T08:16:25.000Z</Time>
            <Position>
              <LatitudeDegrees>43.41304044239223003387451171875</LatitudeDegrees>
              <LongitudeDegrees>-3.95789335481822490692138671875</LongitudeDegrees>
            </Position>
            <AltitudeMeters>27</AltitudeMeters>
            <DistanceMeters>NAN</DistanceMeters>
          </Trackpoint>
          <Trackpoint>
            <Time>2022-07-14T08:16:27.000Z</Time>
            <Position>
              <LatitudeDegrees>43.4130081720650196075439453125</LatitudeDegrees>
              <LongitudeDegrees>-3.95783384330570697784423828125</LongitudeDegrees>
            </Position>
            <AltitudeMeters>27</AltitudeMeters>
            <DistanceMeters>NAN</DistanceMeters>
          </Trackpoint>
          <Trackpoint>
            <Time>2022-07-14T08:16:28.000Z</Time>
            <Position>
              <LatitudeDegrees>43.413004986941814422607421875</LatitudeDegrees>
              <LongitudeDegrees>-3.9577849768102169036865234375</LongitudeDegrees>
            </Position>
            <AltitudeMeters>27</AltitudeMeters>
            <DistanceMeters>NAN</DistanceMeters>
          </Trackpoint>
          <Trackpoint>
            <Time>2022-07-14T08:16:33.000Z</Time>
            <Position>
              <LatitudeDegrees>43.41306106187403202056884765625</LatitudeDegrees>
              <LongitudeDegrees>-3.95751046948134899139404296875</LongitudeDegrees>
            </Position>
            <AltitudeMeters>26.799999237060546875</AltitudeMeters>
            <DistanceMeters>NAN</DistanceMeters>
          </Trackpoint>
          <Trackpoint>
            <Time>2022-07-14T08:16:40.000Z</Time>
            <Position>
              <LatitudeDegrees>43.41313733719289302825927734375</LatitudeDegrees>
              <LongitudeDegrees>-3.9571378938853740692138671875</LongitudeDegrees>
            </Position>
            <AltitudeMeters>26.6000003814697265625</AltitudeMeters>
            <DistanceMeters>NAN</DistanceMeters>
          </Trackpoint>
          <Trackpoint>
            <Time>2022-07-14T08:16:48.000Z</Time>
            <Position>
              <LatitudeDegrees>43.413195423781871795654296875</LatitudeDegrees>
              <LongitudeDegrees>-3.956757523119449615478515625</LongitudeDegrees>
            </Position>
            <AltitudeMeters>27</AltitudeMeters>
            <DistanceMeters>NAN</DistanceMeters>
          </Trackpoint>
          <Trackpoint>
            <Time>2022-07-14T08:16:55.000Z</Time>
            <Position>
              <LatitudeDegrees>43.41321897692978382110595703125</LatitudeDegrees>
              <LongitudeDegrees>-3.95653196610510349273681640625</LongitudeDegrees>
            </Position>
            <AltitudeMeters>27.799999237060546875</AltitudeMeters>
            <DistanceMeters>NAN</DistanceMeters>
          </Trackpoint>
          <Trackpoint>
            <Time>2022-07-14T08:17:01.000Z</Time>
            <Position>
              <LatitudeDegrees>43.4132304601371288299560546875</LatitudeDegrees>
              <LongitudeDegrees>-3.95638176240026950836181640625</LongitudeDegrees>
            </Position>
            <AltitudeMeters>28.200000762939453125</AltitudeMeters>
            <DistanceMeters>NAN</DistanceMeters>
          </Trackpoint>
          <Trackpoint>
            <Time>2022-07-14T08:17:09.000Z</Time>
            <Position>
              <LatitudeDegrees>43.413271866738796234130859375</LatitudeDegrees>
              <LongitudeDegrees>-3.956196270883083343505859375</LongitudeDegrees>
            </Position>
            <AltitudeMeters>28.3999996185302734375</AltitudeMeters>
            <DistanceMeters>NAN</DistanceMeters>
          </Trackpoint>
          <Trackpoint>
            <Time>2022-07-14T08:17:11.000Z</Time>
            <Position>
              <LatitudeDegrees>43.413265161216259002685546875</LatitudeDegrees>
              <LongitudeDegrees>-3.95615997724235057830810546875</LongitudeDegrees>
            </Position>
            <AltitudeMeters>28.799999237060546875</AltitudeMeters>
            <DistanceMeters>NAN</DistanceMeters>
          </Trackpoint>
          <Trackpoint>
            <Time>2022-07-14T08:17:12.000Z</Time>
            <Position>
              <LatitudeDegrees>43.41326289810240268707275390625</LatitudeDegrees>
              <LongitudeDegrees>-3.9561402797698974609375</LongitudeDegrees>
            </Position>
            <AltitudeMeters>28.799999237060546875</AltitudeMeters>
            <DistanceMeters>NAN</DistanceMeters>
          </Trackpoint>
          <Trackpoint>
            <Time>2022-07-14T08:17:13.000Z</Time>
            <Position>
              <LatitudeDegrees>43.4132613055408000946044921875</LatitudeDegrees>
              <LongitudeDegrees>-3.95612058229744434356689453125</LongitudeDegrees>
            </Position>
            <AltitudeMeters>28.799999237060546875</AltitudeMeters>
            <DistanceMeters>NAN</DistanceMeters>
          </Trackpoint>
          <Trackpoint>
            <Time>2022-07-14T08:17:16.000Z</Time>
            <Position>
              <LatitudeDegrees>43.41326884925365447998046875</LatitudeDegrees>
              <LongitudeDegrees>-3.95604967139661312103271484375</LongitudeDegrees>
            </Position>
            <AltitudeMeters>29</AltitudeMeters>
            <DistanceMeters>NAN</DistanceMeters>
          </Trackpoint>
          <Trackpoint>
            <Time>2022-07-14T08:17:17.000Z</Time>
            <Position>
              <LatitudeDegrees>43.4132800810039043426513671875</LatitudeDegrees>
              <LongitudeDegrees>-3.9560244418680667877197265625</LongitudeDegrees>
            </Position>
            <AltitudeMeters>29.200000762939453125</AltitudeMeters>
            <DistanceMeters>NAN</DistanceMeters>
          </Trackpoint>
          <Trackpoint>
            <Time>2022-07-14T08:17:22.000Z</Time>
            <Position>
              <LatitudeDegrees>43.41333213262259960174560546875</LatitudeDegrees>
              <LongitudeDegrees>-3.95588974468410015106201171875</LongitudeDegrees>
            </Position>
            <AltitudeMeters>29.6000003814697265625</AltitudeMeters>
            <DistanceMeters>NAN</DistanceMeters>
          </Trackpoint>
          <Trackpoint>
            <Time>2022-07-14T08:17:23.000Z</Time>
            <Position>
              <LatitudeDegrees>43.41333498246967792510986328125</LatitudeDegrees>
              <LongitudeDegrees>-3.95587013103067874908447265625</LongitudeDegrees>
            </Position>
            <AltitudeMeters>29.6000003814697265625</AltitudeMeters>
            <DistanceMeters>NAN</DistanceMeters>
          </Trackpoint>
          <Trackpoint>
            <Time>2022-07-14T08:17:27.000Z</Time>
            <Position>
              <LatitudeDegrees>43.41338208876550197601318359375</LatitudeDegrees>
              <LongitudeDegrees>-3.95578362978994846343994140625</LongitudeDegrees>
            </Position>
            <AltitudeMeters>29.799999237060546875</AltitudeMeters>
            <DistanceMeters>NAN</DistanceMeters>
          </Trackpoint>
          <Trackpoint>
            <Time>2022-07-14T08:17:29.000Z</Time>
            <Position>
              <LatitudeDegrees>43.4133890457451343536376953125</LatitudeDegrees>
              <LongitudeDegrees>-3.955734260380268096923828125</LongitudeDegrees>
            </Position>
            <AltitudeMeters>30</AltitudeMeters>
            <DistanceMeters>NAN</DistanceMeters>
          </Trackpoint>
          <Trackpoint>
            <Time>2022-07-14T08:17:34.000Z</Time>
            <Position>
              <LatitudeDegrees>43.4133920632302761077880859375</LatitudeDegrees>
              <LongitudeDegrees>-3.95561699755489826202392578125</LongitudeDegrees>
            </Position>
            <AltitudeMeters>30.200000762939453125</AltitudeMeters>
            <DistanceMeters>NAN</DistanceMeters>
          </Trackpoint>
          <Trackpoint>
            <Time>2022-07-14T08:17:37.000Z</Time>
            <Position>
              <LatitudeDegrees>43.4134115092456340789794921875</LatitudeDegrees>
              <LongitudeDegrees>-3.95552764646708965301513671875</LongitudeDegrees>
            </Position>
            <AltitudeMeters>30.200000762939453125</AltitudeMeters>
            <DistanceMeters>NAN</DistanceMeters>
          </Trackpoint>
          <Trackpoint>
            <Time>2022-07-14T08:17:38.000Z</Time>
            <Position>
              <LatitudeDegrees>43.41342399828135967254638671875</LatitudeDegrees>
              <LongitudeDegrees>-3.95549914799630641937255859375</LongitudeDegrees>
            </Position>
            <AltitudeMeters>30.3999996185302734375</AltitudeMeters>
            <DistanceMeters>NAN</DistanceMeters>
          </Trackpoint>
          <Trackpoint>
            <Time>2022-07-14T08:17:40.000Z</Time>
            <Position>
              <LatitudeDegrees>43.41345123946666717529296875</LatitudeDegrees>
              <LongitudeDegrees>-3.9554390497505664825439453125</LongitudeDegrees>
            </Position>
            <AltitudeMeters>30.3999996185302734375</AltitudeMeters>
            <DistanceMeters>NAN</DistanceMeters>
          </Trackpoint>
          <Trackpoint>
            <Time>2022-07-14T08:17:41.000Z</Time>
            <Position>
              <LatitudeDegrees>43.413460291922092437744140625</LatitudeDegrees>
              <LongitudeDegrees>-3.95540493540465831756591796875</LongitudeDegrees>
            </Position>
            <AltitudeMeters>30.3999996185302734375</AltitudeMeters>
            <DistanceMeters>NAN</DistanceMeters>
          </Trackpoint>
          <Trackpoint>
            <Time>2022-07-14T08:17:46.000Z</Time>
            <Position>
              <LatitudeDegrees>43.41350354254245758056640625</LatitudeDegrees>
              <LongitudeDegrees>-3.95520376972854137420654296875</LongitudeDegrees>
            </Position>
            <AltitudeMeters>30.200000762939453125</AltitudeMeters>
            <DistanceMeters>NAN</DistanceMeters>
          </Trackpoint>
          <Trackpoint>
            <Time>2022-07-14T08:17:53.000Z</Time>
            <Position>
              <LatitudeDegrees>43.41360337100923061370849609375</LatitudeDegrees>
              <LongitudeDegrees>-3.95483127795159816741943359375</LongitudeDegrees>
            </Position>
            <AltitudeMeters>29.200000762939453125</AltitudeMeters>
            <DistanceMeters>NAN</DistanceMeters>
          </Trackpoint>
          <Trackpoint>
            <Time>2022-07-14T08:17:59.000Z</Time>
            <Position>
              <LatitudeDegrees>43.41368702240288257598876953125</LatitudeDegrees>
              <LongitudeDegrees>-3.95447588525712490081787109375</LongitudeDegrees>
            </Position>
            <AltitudeMeters>28.799999237060546875</AltitudeMeters>
            <DistanceMeters>NAN</DistanceMeters>
          </Trackpoint>
          <Trackpoint>
            <Time>2022-07-14T08:18:00.000Z</Time>
            <Position>
              <LatitudeDegrees>43.41370713897049427032470703125</LatitudeDegrees>
              <LongitudeDegrees>-3.9544120989739894866943359375</LongitudeDegrees>
            </Position>
            <AltitudeMeters>28.799999237060546875</AltitudeMeters>
            <DistanceMeters>NAN</DistanceMeters>
          </Trackpoint>
          <Trackpoint>
            <Time>2022-07-14T08:18:01.000Z</Time>
            <Position>
              <LatitudeDegrees>43.41371719725430011749267578125</LatitudeDegrees>
              <LongitudeDegrees>-3.95435887388885021209716796875</LongitudeDegrees>
            </Position>
            <AltitudeMeters>28.799999237060546875</AltitudeMeters>
            <DistanceMeters>NAN</DistanceMeters>
          </Trackpoint>
          <Trackpoint>
            <Time>2022-07-14T08:18:11.000Z</Time>
            <Position>
              <LatitudeDegrees>43.41381627134978771209716796875</LatitudeDegrees>
              <LongitudeDegrees>-3.95384338684380054473876953125</LongitudeDegrees>
            </Position>
            <AltitudeMeters>28.6000003814697265625</AltitudeMeters>
            <DistanceMeters>NAN</DistanceMeters>
          </Trackpoint>
          <Trackpoint>
            <Time>2022-07-14T08:18:17.000Z</Time>
            <Position>
              <LatitudeDegrees>43.4138725139200687408447265625</LatitudeDegrees>
              <LongitudeDegrees>-3.953591845929622650146484375</LongitudeDegrees>
            </Position>
            <AltitudeMeters>28.799999237060546875</AltitudeMeters>
            <DistanceMeters>NAN</DistanceMeters>
          </Trackpoint>
          <Trackpoint>
            <Time>2022-07-14T08:18:19.000Z</Time>
            <Position>
              <LatitudeDegrees>43.4138855896890163421630859375</LatitudeDegrees>
              <LongitudeDegrees>-3.9535199292004108428955078125</LongitudeDegrees>
            </Position>
            <AltitudeMeters>28.799999237060546875</AltitudeMeters>
            <DistanceMeters>NAN</DistanceMeters>
          </Trackpoint>
          <Trackpoint>
            <Time>2022-07-14T08:18:24.000Z</Time>
            <Position>
              <LatitudeDegrees>43.4139231406152248382568359375</LatitudeDegrees>
              <LongitudeDegrees>-3.95335614681243896484375</LongitudeDegrees>
            </Position>
            <AltitudeMeters>29</AltitudeMeters>
            <DistanceMeters>NAN</DistanceMeters>
          </Trackpoint>
          <Trackpoint>
            <Time>2022-07-14T08:18:27.000Z</Time>
            <Position>
              <LatitudeDegrees>43.41394049115478992462158203125</LatitudeDegrees>
              <LongitudeDegrees>-3.95324994809925556182861328125</LongitudeDegrees>
            </Position>
            <AltitudeMeters>29.200000762939453125</AltitudeMeters>
            <DistanceMeters>NAN</DistanceMeters>
          </Trackpoint>
          <Trackpoint>
            <Time>2022-07-14T08:18:34.000Z</Time>
            <Position>
              <LatitudeDegrees>43.41398642398416996002197265625</LatitudeDegrees>
              <LongitudeDegrees>-3.95302883349359035491943359375</LongitudeDegrees>
            </Position>
            <AltitudeMeters>29.200000762939453125</AltitudeMeters>
            <DistanceMeters>NAN</DistanceMeters>
          </Trackpoint>
          <Trackpoint>
            <Time>2022-07-14T08:18:38.000Z</Time>
            <Position>
              <LatitudeDegrees>43.41400654055178165435791015625</LatitudeDegrees>
              <LongitudeDegrees>-3.9528956450521945953369140625</LongitudeDegrees>
            </Position>
            <AltitudeMeters>29.200000762939453125</AltitudeMeters>
            <DistanceMeters>NAN</DistanceMeters>
          </Trackpoint>
          <Trackpoint>
            <Time>2022-07-14T08:18:42.000Z</Time>
            <Position>
              <LatitudeDegrees>43.41404560022056102752685546875</LatitudeDegrees>
              <LongitudeDegrees>-3.95274653099477291107177734375</LongitudeDegrees>
            </Position>
            <AltitudeMeters>29.200000762939453125</AltitudeMeters>
            <DistanceMeters>NAN</DistanceMeters>
          </Trackpoint>
          <Trackpoint>
            <Time>2022-07-14T08:18:47.000Z</Time>
            <Position>
              <LatitudeDegrees>43.41409304179251194000244140625</LatitudeDegrees>
              <LongitudeDegrees>-3.95256179384887218475341796875</LongitudeDegrees>
            </Position>
            <AltitudeMeters>29.200000762939453125</AltitudeMeters>
            <DistanceMeters>NAN</DistanceMeters>
          </Trackpoint>
          <Trackpoint>
            <Time>2022-07-14T08:18:49.000Z</Time>
            <Position>
              <LatitudeDegrees>43.41411232016980648040771484375</LatitudeDegrees>
              <LongitudeDegrees>-3.95248719491064548492431640625</LongitudeDegrees>
            </Position>
            <AltitudeMeters>29.200000762939453125</AltitudeMeters>
            <DistanceMeters>NAN</DistanceMeters>
          </Trackpoint>
          <Trackpoint>
            <Time>2022-07-14T08:18:50.000Z</Time>
            <Position>
              <LatitudeDegrees>43.41412422247231006622314453125</LatitudeDegrees>
              <LongitudeDegrees>-3.9524460397660732269287109375</LongitudeDegrees>
            </Position>
            <AltitudeMeters>29.200000762939453125</AltitudeMeters>
            <DistanceMeters>NAN</DistanceMeters>
          </Trackpoint>
          <Trackpoint>
            <Time>2022-07-14T08:18:52.000Z</Time>
            <Position>
              <LatitudeDegrees>43.4141457639634609222412109375</LatitudeDegrees>
              <LongitudeDegrees>-3.95236381329596042633056640625</LongitudeDegrees>
            </Position>
            <AltitudeMeters>29.200000762939453125</AltitudeMeters>
            <DistanceMeters>NAN</DistanceMeters>
          </Trackpoint>
          <Trackpoint>
            <Time>2022-07-14T08:18:54.000Z</Time>
            <Position>
              <LatitudeDegrees>43.41416336596012115478515625</LatitudeDegrees>
              <LongitudeDegrees>-3.952270857989788055419921875</LongitudeDegrees>
            </Position>
            <AltitudeMeters>29.200000762939453125</AltitudeMeters>
            <DistanceMeters>NAN</DistanceMeters>
          </Trackpoint>
          <Trackpoint>
            <Time>2022-07-14T08:18:57.000Z</Time>
            <Position>
              <LatitudeDegrees>43.41419932432472705841064453125</LatitudeDegrees>
              <LongitudeDegrees>-3.9521317183971405029296875</LongitudeDegrees>
            </Position>
            <AltitudeMeters>29</AltitudeMeters>
            <DistanceMeters>NAN</DistanceMeters>
          </Trackpoint>
          <Trackpoint>
            <Time>2022-07-14T08:18:59.000Z</Time>
            <Position>
              <LatitudeDegrees>43.41422229073941707611083984375</LatitudeDegrees>
              <LongitudeDegrees>-3.9520416967570781707763671875</LongitudeDegrees>
            </Position>
            <AltitudeMeters>28.799999237060546875</AltitudeMeters>
            <DistanceMeters>NAN</DistanceMeters>
          </Trackpoint>
          <Trackpoint>
            <Time>2022-07-14T08:19:00.000Z</Time>
            <Position>
              <LatitudeDegrees>43.41423234902322292327880859375</LatitudeDegrees>
              <LongitudeDegrees>-3.951995261013507843017578125</LongitudeDegrees>
            </Position>
            <AltitudeMeters>28.799999237060546875</AltitudeMeters>
            <DistanceMeters>NAN</DistanceMeters>
          </Trackpoint>
          <Trackpoint>
            <Time>2022-07-14T08:19:01.000Z</Time>
            <Position>
              <LatitudeDegrees>43.41424877755343914031982421875</LatitudeDegrees>
              <LongitudeDegrees>-3.95194656215608119964599609375</LongitudeDegrees>
            </Position>
            <AltitudeMeters>28.6000003814697265625</AltitudeMeters>
            <DistanceMeters>NAN</DistanceMeters>
          </Trackpoint>
          <Trackpoint>
            <Time>2022-07-14T08:19:06.000Z</Time>
            <Position>
              <LatitudeDegrees>43.4142963029444217681884765625</LatitudeDegrees>
              <LongitudeDegrees>-3.951705582439899444580078125</LongitudeDegrees>
            </Position>
            <AltitudeMeters>28.3999996185302734375</AltitudeMeters>
            <DistanceMeters>NAN</DistanceMeters>
          </Trackpoint>
          <Trackpoint>
            <Time>2022-07-14T08:19:14.000Z</Time>
            <Position>
              <LatitudeDegrees>43.41437123715877532958984375</LatitudeDegrees>
              <LongitudeDegrees>-3.95137642510235309600830078125</LongitudeDegrees>
            </Position>
            <AltitudeMeters>28.6000003814697265625</AltitudeMeters>
            <DistanceMeters>NAN</DistanceMeters>
          </Trackpoint>
          <Trackpoint>
            <Time>2022-07-14T08:19:20.000Z</Time>
            <Position>
              <LatitudeDegrees>43.4143911860883235931396484375</LatitudeDegrees>
              <LongitudeDegrees>-3.95121616311371326446533203125</LongitudeDegrees>
            </Position>
            <AltitudeMeters>29.200000762939453125</AltitudeMeters>
            <DistanceMeters>NAN</DistanceMeters>
          </Trackpoint>
          <Trackpoint>
            <Time>2022-07-14T08:19:21.000Z</Time>
            <Position>
              <LatitudeDegrees>43.4143952094018459320068359375</LatitudeDegrees>
              <LongitudeDegrees>-3.951191268861293792724609375</LongitudeDegrees>
            </Position>
            <AltitudeMeters>29.3999996185302734375</AltitudeMeters>
            <DistanceMeters>NAN</DistanceMeters>
          </Trackpoint>
          <Trackpoint>
            <Time>2022-07-14T08:19:23.000Z</Time>
            <Position>
              <LatitudeDegrees>43.41440769843757152557373046875</LatitudeDegrees>
              <LongitudeDegrees>-3.951141647994518280029296875</LongitudeDegrees>
            </Position>
            <AltitudeMeters>29.6000003814697265625</AltitudeMeters>
            <DistanceMeters>NAN</DistanceMeters>
          </Trackpoint>
          <Trackpoint>
            <Time>2022-07-14T08:19:26.000Z</Time>
            <Position>
              <LatitudeDegrees>43.41442848555743694305419921875</LatitudeDegrees>
              <LongitudeDegrees>-3.9510797895491123199462890625</LongitudeDegrees>
            </Position>
            <AltitudeMeters>29.799999237060546875</AltitudeMeters>
            <DistanceMeters>NAN</DistanceMeters>
          </Trackpoint>
          <Trackpoint>
            <Time>2022-07-14T08:19:37.000Z</Time>
            <Position>
              <LatitudeDegrees>43.4144850634038448333740234375</LatitudeDegrees>
              <LongitudeDegrees>-3.9508326910436153411865234375</LongitudeDegrees>
            </Position>
            <AltitudeMeters>30.799999237060546875</AltitudeMeters>
            <DistanceMeters>NAN</DistanceMeters>
          </Trackpoint>
          <Trackpoint>
            <Time>2022-07-14T08:19:39.000Z</Time>
            <Position>
              <LatitudeDegrees>43.41450358740985393524169921875</LatitudeDegrees>
              <LongitudeDegrees>-3.95079036243259906768798828125</LongitudeDegrees>
            </Position>
            <AltitudeMeters>30.799999237060546875</AltitudeMeters>
            <DistanceMeters>NAN</DistanceMeters>
          </Trackpoint>
          <Trackpoint>
            <Time>2022-07-14T08:19:42.000Z</Time>
            <Position>
              <LatitudeDegrees>43.4145313315093517303466796875</LatitudeDegrees>
              <LongitudeDegrees>-3.9507438428699970245361328125</LongitudeDegrees>
            </Position>
            <AltitudeMeters>31</AltitudeMeters>
            <DistanceMeters>NAN</DistanceMeters>
          </Trackpoint>
          <Trackpoint>
            <Time>2022-07-14T08:19:43.000Z</Time>
            <Position>
              <LatitudeDegrees>43.41453979723155498504638671875</LatitudeDegrees>
              <LongitudeDegrees>-3.95072062499821186065673828125</LongitudeDegrees>
            </Position>
            <AltitudeMeters>31</AltitudeMeters>
            <DistanceMeters>NAN</DistanceMeters>
          </Trackpoint>
          <Trackpoint>
            <Time>2022-07-14T08:19:45.000Z</Time>
            <Position>
              <LatitudeDegrees>43.41455019079148769378662109375</LatitudeDegrees>
              <LongitudeDegrees>-3.95067402161657810211181640625</LongitudeDegrees>
            </Position>
            <AltitudeMeters>31.200000762939453125</AltitudeMeters>
            <DistanceMeters>NAN</DistanceMeters>
          </Trackpoint>
          <Trackpoint>
            <Time>2022-07-14T08:19:52.000Z</Time>
            <Position>
              <LatitudeDegrees>43.41460861265659332275390625</LatitudeDegrees>
              <LongitudeDegrees>-3.950527422130107879638671875</LongitudeDegrees>
            </Position>
            <AltitudeMeters>31.3999996185302734375</AltitudeMeters>
            <DistanceMeters>NAN</DistanceMeters>
          </Trackpoint>
          <Trackpoint>
            <Time>2022-07-14T08:19:54.000Z</Time>
            <Position>
              <LatitudeDegrees>43.4146319143474102020263671875</LatitudeDegrees>
              <LongitudeDegrees>-3.95048760809004306793212890625</LongitudeDegrees>
            </Position>
            <AltitudeMeters>31.3999996185302734375</AltitudeMeters>
            <DistanceMeters>NAN</DistanceMeters>
          </Trackpoint>
          <Trackpoint>
            <Time>2022-07-14T08:19:59.000Z</Time>
            <Position>
              <LatitudeDegrees>43.414680697023868560791015625</LatitudeDegrees>
              <LongitudeDegrees>-3.950411416590213775634765625</LongitudeDegrees>
            </Position>
            <AltitudeMeters>31.799999237060546875</AltitudeMeters>
            <DistanceMeters>NAN</DistanceMeters>
          </Trackpoint>
          <Trackpoint>
            <Time>2022-07-14T08:20:00.000Z</Time>
            <Position>
              <LatitudeDegrees>43.41469352133572101593017578125</LatitudeDegrees>
              <LongitudeDegrees>-3.95039473660290241241455078125</LongitudeDegrees>
            </Position>
            <AltitudeMeters>31.799999237060546875</AltitudeMeters>
            <DistanceMeters>NAN</DistanceMeters>
          </Trackpoint>
          <Trackpoint>
            <Time>2022-07-14T08:20:10.000Z</Time>
            <Position>
              <LatitudeDegrees>43.414818160235881805419921875</LatitudeDegrees>
              <LongitudeDegrees>-3.95025090314447879791259765625</LongitudeDegrees>
            </Position>
            <AltitudeMeters>32.799999237060546875</AltitudeMeters>
            <DistanceMeters>NAN</DistanceMeters>
          </Trackpoint>
          <Trackpoint>
            <Time>2022-07-14T08:20:12.000Z</Time>
            <Position>
              <LatitudeDegrees>43.41483685187995433807373046875</LatitudeDegrees>
              <LongitudeDegrees>-3.95022869110107421875</LongitudeDegrees>
            </Position>
            <AltitudeMeters>33</AltitudeMeters>
            <DistanceMeters>NAN</DistanceMeters>
          </Trackpoint>
          <Trackpoint>
            <Time>2022-07-14T08:20:17.000Z</Time>
            <Position>
              <LatitudeDegrees>43.414899297058582305908203125</LatitudeDegrees>
              <LongitudeDegrees>-3.95017630420625209808349609375</LongitudeDegrees>
            </Position>
            <AltitudeMeters>33.200000762939453125</AltitudeMeters>
            <DistanceMeters>NAN</DistanceMeters>
          </Trackpoint>
          <Trackpoint>
            <Time>2022-07-14T08:20:19.000Z</Time>
            <Position>
              <LatitudeDegrees>43.41492167674005031585693359375</LatitudeDegrees>
              <LongitudeDegrees>-3.95014218986034393310546875</LongitudeDegrees>
            </Position>
            <AltitudeMeters>33</AltitudeMeters>
            <DistanceMeters>NAN</DistanceMeters>
          </Trackpoint>
          <Trackpoint>
            <Time>2022-07-14T08:20:20.000Z</Time>
            <Position>
              <LatitudeDegrees>43.4149249456822872161865234375</LatitudeDegrees>
              <LongitudeDegrees>-3.9501232467591762542724609375</LongitudeDegrees>
            </Position>
            <AltitudeMeters>33</AltitudeMeters>
            <DistanceMeters>NAN</DistanceMeters>
          </Trackpoint>
          <Trackpoint>
            <Time>2022-07-14T08:20:22.000Z</Time>
            <Position>
              <LatitudeDegrees>43.414954952895641326904296875</LatitudeDegrees>
              <LongitudeDegrees>-3.95005476661026477813720703125</LongitudeDegrees>
            </Position>
            <AltitudeMeters>33</AltitudeMeters>
            <DistanceMeters>NAN</DistanceMeters>
          </Trackpoint>
          <Trackpoint>
            <Time>2022-07-14T08:20:27.000Z</Time>
            <Position>
              <LatitudeDegrees>43.41508009470999240875244140625</LatitudeDegrees>
              <LongitudeDegrees>-3.949754945933818817138671875</LongitudeDegrees>
            </Position>
            <AltitudeMeters>32.200000762939453125</AltitudeMeters>
            <DistanceMeters>NAN</DistanceMeters>
          </Trackpoint>
          <Trackpoint>
            <Time>2022-07-14T08:20:28.000Z</Time>
            <Position>
              <LatitudeDegrees>43.41509954072535037994384765625</LatitudeDegrees>
              <LongitudeDegrees>-3.94968227483332157135009765625</LongitudeDegrees>
            </Position>
            <AltitudeMeters>32</AltitudeMeters>
            <DistanceMeters>NAN</DistanceMeters>
          </Trackpoint>
          <Trackpoint>
            <Time>2022-07-14T08:20:29.000Z</Time>
            <Position>
              <LatitudeDegrees>43.415123261511325836181640625</LatitudeDegrees>
              <LongitudeDegrees>-3.9496039040386676788330078125</LongitudeDegrees>
            </Position>
            <AltitudeMeters>31.799999237060546875</AltitudeMeters>
            <DistanceMeters>NAN</DistanceMeters>
          </Trackpoint>
          <Trackpoint>
            <Time>2022-07-14T08:20:31.000Z</Time>
            <Position>
              <LatitudeDegrees>43.4151230938732624053955078125</LatitudeDegrees>
              <LongitudeDegrees>-3.949457220733165740966796875</LongitudeDegrees>
            </Position>
            <AltitudeMeters>31.200000762939453125</AltitudeMeters>
            <DistanceMeters>NAN</DistanceMeters>
          </Trackpoint>
          <Trackpoint>
            <Time>2022-07-14T08:20:34.000Z</Time>
            <Position>
              <LatitudeDegrees>43.4150835312902927398681640625</LatitudeDegrees>
              <LongitudeDegrees>-3.94926200620830059051513671875</LongitudeDegrees>
            </Position>
            <AltitudeMeters>30.6000003814697265625</AltitudeMeters>
            <DistanceMeters>NAN</DistanceMeters>
          </Trackpoint>
          <Trackpoint>
            <Time>2022-07-14T08:20:37.000Z</Time>
            <Position>
              <LatitudeDegrees>43.41503667645156383514404296875</LatitudeDegrees>
              <LongitudeDegrees>-3.9490892551839351654052734375</LongitudeDegrees>
            </Position>
            <AltitudeMeters>30.200000762939453125</AltitudeMeters>
            <DistanceMeters>NAN</DistanceMeters>
          </Trackpoint>
          <Trackpoint>
            <Time>2022-07-14T08:20:38.000Z</Time>
            <Position>
              <LatitudeDegrees>43.41501505114138126373291015625</LatitudeDegrees>
              <LongitudeDegrees>-3.9490506984293460845947265625</LongitudeDegrees>
            </Position>
            <AltitudeMeters>30</AltitudeMeters>
            <DistanceMeters>NAN</DistanceMeters>
          </Trackpoint>
          <Trackpoint>
            <Time>2022-07-14T08:20:41.000Z</Time>
            <Position>
              <LatitudeDegrees>43.41497984714806079864501953125</LatitudeDegrees>
              <LongitudeDegrees>-3.948893286287784576416015625</LongitudeDegrees>
            </Position>
            <AltitudeMeters>30</AltitudeMeters>
            <DistanceMeters>NAN</DistanceMeters>
          </Trackpoint>
          <Trackpoint>
            <Time>2022-07-14T08:20:45.000Z</Time>
            <Position>
              <LatitudeDegrees>43.4149767458438873291015625</LatitudeDegrees>
              <LongitudeDegrees>-3.94866940565407276153564453125</LongitudeDegrees>
            </Position>
            <AltitudeMeters>30</AltitudeMeters>
            <DistanceMeters>NAN</DistanceMeters>
          </Trackpoint>
          <Trackpoint>
            <Time>2022-07-14T08:20:51.000Z</Time>
            <Position>
              <LatitudeDegrees>43.4149222634732723236083984375</LatitudeDegrees>
              <LongitudeDegrees>-3.94838022999465465545654296875</LongitudeDegrees>
            </Position>
            <AltitudeMeters>30.200000762939453125</AltitudeMeters>
            <DistanceMeters>NAN</DistanceMeters>
          </Trackpoint>
          <Trackpoint>
            <Time>2022-07-14T08:20:59.000Z</Time>
            <Position>
              <LatitudeDegrees>43.41481355018913745880126953125</LatitudeDegrees>
              <LongitudeDegrees>-3.94810144789516925811767578125</LongitudeDegrees>
            </Position>
            <AltitudeMeters>30.6000003814697265625</AltitudeMeters>
            <DistanceMeters>NAN</DistanceMeters>
          </Trackpoint>
          <Trackpoint>
            <Time>2022-07-14T08:21:04.000Z</Time>
            <Position>
              <LatitudeDegrees>43.41475789435207843780517578125</LatitudeDegrees>
              <LongitudeDegrees>-3.94792760722339153289794921875</LongitudeDegrees>
            </Position>
            <AltitudeMeters>31</AltitudeMeters>
            <DistanceMeters>NAN</DistanceMeters>
          </Trackpoint>
          <Trackpoint>
            <Time>2022-07-14T08:21:05.000Z</Time>
            <Position>
              <LatitudeDegrees>43.414749093353748321533203125</LatitudeDegrees>
              <LongitudeDegrees>-3.9478909783065319061279296875</LongitudeDegrees>
            </Position>
            <AltitudeMeters>31</AltitudeMeters>
            <DistanceMeters>NAN</DistanceMeters>
          </Trackpoint>
          <Trackpoint>
            <Time>2022-07-14T08:21:06.000Z</Time>
            <Position>
              <LatitudeDegrees>43.414737023413181304931640625</LatitudeDegrees>
              <LongitudeDegrees>-3.94785552285611629486083984375</LongitudeDegrees>
            </Position>
            <AltitudeMeters>31</AltitudeMeters>
            <DistanceMeters>NAN</DistanceMeters>
          </Trackpoint>
          <Trackpoint>
            <Time>2022-07-14T08:21:13.000Z</Time>
            <Position>
              <LatitudeDegrees>43.41469519771635532379150390625</LatitudeDegrees>
              <LongitudeDegrees>-3.947623260319232940673828125</LongitudeDegrees>
            </Position>
            <AltitudeMeters>31.3999996185302734375</AltitudeMeters>
            <DistanceMeters>NAN</DistanceMeters>
          </Trackpoint>
          <Trackpoint>
            <Time>2022-07-14T08:21:16.000Z</Time>
            <Position>
              <LatitudeDegrees>43.41468698345124721527099609375</LatitudeDegrees>
              <LongitudeDegrees>-3.9475107751786708831787109375</LongitudeDegrees>
            </Position>
            <AltitudeMeters>31.3999996185302734375</AltitudeMeters>
            <DistanceMeters>NAN</DistanceMeters>
          </Trackpoint>
          <Trackpoint>
            <Time>2022-07-14T08:21:17.000Z</Time>
            <Position>
              <LatitudeDegrees>43.41468463651835918426513671875</LatitudeDegrees>
              <LongitudeDegrees>-3.9474713802337646484375</LongitudeDegrees>
            </Position>
            <AltitudeMeters>31.3999996185302734375</AltitudeMeters>
            <DistanceMeters>NAN</DistanceMeters>
          </Trackpoint>
          <Trackpoint>
            <Time>2022-07-14T08:21:22.000Z</Time>
            <Position>
              <LatitudeDegrees>43.41467055492103099822998046875</LatitudeDegrees>
              <LongitudeDegrees>-3.94727893173694610595703125</LongitudeDegrees>
            </Position>
            <AltitudeMeters>31.6000003814697265625</AltitudeMeters>
            <DistanceMeters>NAN</DistanceMeters>
          </Trackpoint>
          <Trackpoint>
            <Time>2022-07-14T08:21:23.000Z</Time>
            <Position>
              <LatitudeDegrees>43.414666615426540374755859375</LatitudeDegrees>
              <LongitudeDegrees>-3.947243057191371917724609375</LongitudeDegrees>
            </Position>
            <AltitudeMeters>31.6000003814697265625</AltitudeMeters>
            <DistanceMeters>NAN</DistanceMeters>
          </Trackpoint>
          <Trackpoint>
            <Time>2022-07-14T08:21:24.000Z</Time>
            <Position>
              <LatitudeDegrees>43.41466083191335201263427734375</LatitudeDegrees>
              <LongitudeDegrees>-3.94720290787518024444580078125</LongitudeDegrees>
            </Position>
            <AltitudeMeters>31.6000003814697265625</AltitudeMeters>
            <DistanceMeters>NAN</DistanceMeters>
          </Trackpoint>
          <Trackpoint>
            <Time>2022-07-14T08:21:28.000Z</Time>
            <Position>
              <LatitudeDegrees>43.4146359376609325408935546875</LatitudeDegrees>
              <LongitudeDegrees>-3.9470568113029003143310546875</LongitudeDegrees>
            </Position>
            <AltitudeMeters>31.799999237060546875</AltitudeMeters>
            <DistanceMeters>NAN</DistanceMeters>
          </Trackpoint>
          <Trackpoint>
            <Time>2022-07-14T08:21:31.000Z</Time>
            <Position>
              <LatitudeDegrees>43.41461942531168460845947265625</LatitudeDegrees>
              <LongitudeDegrees>-3.946960754692554473876953125</LongitudeDegrees>
            </Position>
            <AltitudeMeters>32</AltitudeMeters>
            <DistanceMeters>NAN</DistanceMeters>
          </Trackpoint>
          <Trackpoint>
            <Time>2022-07-14T08:21:32.000Z</Time>
            <Position>
              <LatitudeDegrees>43.41461523436009883880615234375</LatitudeDegrees>
              <LongitudeDegrees>-3.9469377882778644561767578125</LongitudeDegrees>
            </Position>
            <AltitudeMeters>32.200000762939453125</AltitudeMeters>
            <DistanceMeters>NAN</DistanceMeters>
          </Trackpoint>
          <Trackpoint>
            <Time>2022-07-14T08:21:38.000Z</Time>
            <Position>
              <LatitudeDegrees>43.4145651943981647491455078125</LatitudeDegrees>
              <LongitudeDegrees>-3.9467872492969036102294921875</LongitudeDegrees>
            </Position>
            <AltitudeMeters>32.59999847412109375</AltitudeMeters>
            <DistanceMeters>NAN</DistanceMeters>
          </Trackpoint>
          <Trackpoint>
            <Time>2022-07-14T08:21:39.000Z</Time>
            <Position>
              <LatitudeDegrees>43.41455765068531036376953125</LatitudeDegrees>
              <LongitudeDegrees>-3.9467678032815456390380859375</LongitudeDegrees>
            </Position>
            <AltitudeMeters>32.799999237060546875</AltitudeMeters>
            <DistanceMeters>NAN</DistanceMeters>
          </Trackpoint>
          <Trackpoint>
            <Time>2022-07-14T08:21:45.000Z</Time>
            <Position>
              <LatitudeDegrees>43.41452353633940219879150390625</LatitudeDegrees>
              <LongitudeDegrees>-3.9465978182852268218994140625</LongitudeDegrees>
            </Position>
            <AltitudeMeters>33.200000762939453125</AltitudeMeters>
            <DistanceMeters>NAN</DistanceMeters>
          </Trackpoint>
          <Trackpoint>
            <Time>2022-07-14T08:21:51.000Z</Time>
            <Position>
              <LatitudeDegrees>43.414471149444580078125</LatitudeDegrees>
              <LongitudeDegrees>-3.94643269479274749755859375</LongitudeDegrees>
            </Position>
            <AltitudeMeters>33.40000152587890625</AltitudeMeters>
            <DistanceMeters>NAN</DistanceMeters>
          </Trackpoint>
          <Trackpoint>
            <Time>2022-07-14T08:21:54.000Z</Time>
            <Position>
              <LatitudeDegrees>43.41447793878614902496337890625</LatitudeDegrees>
              <LongitudeDegrees>-3.9463208802044391632080078125</LongitudeDegrees>
            </Position>
            <AltitudeMeters>33.40000152587890625</AltitudeMeters>
            <DistanceMeters>NAN</DistanceMeters>
          </Trackpoint>
          <Trackpoint>
            <Time>2022-07-14T08:21:58.000Z</Time>
            <Position>
              <LatitudeDegrees>43.41447777114808559417724609375</LatitudeDegrees>
              <LongitudeDegrees>-3.94620780833065509796142578125</LongitudeDegrees>
            </Position>
            <AltitudeMeters>33.59999847412109375</AltitudeMeters>
            <DistanceMeters>NAN</DistanceMeters>
          </Trackpoint>
          <Trackpoint>
            <Time>2022-07-14T08:22:00.000Z</Time>
            <Position>
              <LatitudeDegrees>43.41446922160685062408447265625</LatitudeDegrees>
              <LongitudeDegrees>-3.9461435191333293914794921875</LongitudeDegrees>
            </Position>
            <AltitudeMeters>33.59999847412109375</AltitudeMeters>
            <DistanceMeters>NAN</DistanceMeters>
          </Trackpoint>
          <Trackpoint>
            <Time>2022-07-14T08:22:02.000Z</Time>
            <Position>
              <LatitudeDegrees>43.41446218080818653106689453125</LatitudeDegrees>
              <LongitudeDegrees>-3.94609012641012668609619140625</LongitudeDegrees>
            </Position>
            <AltitudeMeters>33.59999847412109375</AltitudeMeters>
            <DistanceMeters>NAN</DistanceMeters>
          </Trackpoint>
          <Trackpoint>
            <Time>2022-07-14T08:22:05.000Z</Time>
            <Position>
              <LatitudeDegrees>43.41445329599082469940185546875</LatitudeDegrees>
              <LongitudeDegrees>-3.9459886215627193450927734375</LongitudeDegrees>
            </Position>
            <AltitudeMeters>33.799999237060546875</AltitudeMeters>
            <DistanceMeters>NAN</DistanceMeters>
          </Trackpoint>
          <Trackpoint>
            <Time>2022-07-14T08:22:11.000Z</Time>
            <Position>
              <LatitudeDegrees>43.4144357778131961822509765625</LatitudeDegrees>
              <LongitudeDegrees>-3.945811092853546142578125</LongitudeDegrees>
            </Position>
            <AltitudeMeters>34</AltitudeMeters>
            <DistanceMeters>NAN</DistanceMeters>
          </Trackpoint>
          <Trackpoint>
            <Time>2022-07-14T08:22:20.000Z</Time>
            <Position>
              <LatitudeDegrees>43.41438137926161289215087890625</LatitudeDegrees>
              <LongitudeDegrees>-3.94553390331566333770751953125</LongitudeDegrees>
            </Position>
            <AltitudeMeters>34.40000152587890625</AltitudeMeters>
            <DistanceMeters>NAN</DistanceMeters>
          </Trackpoint>
          <Trackpoint>
            <Time>2022-07-14T08:22:28.000Z</Time>
            <Position>
              <LatitudeDegrees>43.41429420746862888336181640625</LatitudeDegrees>
              <LongitudeDegrees>-3.94527909345924854278564453125</LongitudeDegrees>
            </Position>
            <AltitudeMeters>34.59999847412109375</AltitudeMeters>
            <DistanceMeters>NAN</DistanceMeters>
          </Trackpoint>
          <Trackpoint>
            <Time>2022-07-14T08:22:29.000Z</Time>
            <Position>
              <LatitudeDegrees>43.41428565792739391326904296875</LatitudeDegrees>
              <LongitudeDegrees>-3.9452513493597507476806640625</LongitudeDegrees>
            </Position>
            <AltitudeMeters>34.799999237060546875</AltitudeMeters>
            <DistanceMeters>NAN</DistanceMeters>
          </Trackpoint>
          <Trackpoint>
            <Time>2022-07-14T08:22:34.000Z</Time>
            <Position>
              <LatitudeDegrees>43.414245508611202239990234375</LatitudeDegrees>
              <LongitudeDegrees>-3.94509159028530120849609375</LongitudeDegrees>
            </Position>
            <AltitudeMeters>35.200000762939453125</AltitudeMeters>
            <DistanceMeters>NAN</DistanceMeters>
          </Trackpoint>
          <Trackpoint>
            <Time>2022-07-14T08:22:35.000Z</Time>
            <Position>
              <LatitudeDegrees>43.41423553414642810821533203125</LatitudeDegrees>
              <LongitudeDegrees>-3.94506552256643772125244140625</LongitudeDegrees>
            </Position>
            <AltitudeMeters>35.200000762939453125</AltitudeMeters>
            <DistanceMeters>NAN</DistanceMeters>
          </Trackpoint>
          <Trackpoint>
            <Time>2022-07-14T08:22:43.000Z</Time>
            <Position>
              <LatitudeDegrees>43.4141414053738117218017578125</LatitudeDegrees>
              <LongitudeDegrees>-3.94488631747663021087646484375</LongitudeDegrees>
            </Position>
            <AltitudeMeters>35.799999237060546875</AltitudeMeters>
            <DistanceMeters>NAN</DistanceMeters>
          </Trackpoint>
          <Trackpoint>
            <Time>2022-07-14T08:22:44.000Z</Time>
            <Position>
              <LatitudeDegrees>43.4141246415674686431884765625</LatitudeDegrees>
              <LongitudeDegrees>-3.9448614232242107391357421875</LongitudeDegrees>
            </Position>
            <AltitudeMeters>35.799999237060546875</AltitudeMeters>
            <DistanceMeters>NAN</DistanceMeters>
          </Trackpoint>
          <Trackpoint>
            <Time>2022-07-14T08:22:49.000Z</Time>
            <Position>
              <LatitudeDegrees>43.41399078257381916046142578125</LatitudeDegrees>
              <LongitudeDegrees>-3.944778107106685638427734375</LongitudeDegrees>
            </Position>
            <AltitudeMeters>35.59999847412109375</AltitudeMeters>
            <DistanceMeters>NAN</DistanceMeters>
          </Trackpoint>
          <Trackpoint>
            <Time>2022-07-14T08:22:50.000Z</Time>
            <Position>
              <LatitudeDegrees>43.4139536507427692413330078125</LatitudeDegrees>
              <LongitudeDegrees>-3.94477752037346363067626953125</LongitudeDegrees>
            </Position>
            <AltitudeMeters>35.40000152587890625</AltitudeMeters>
            <DistanceMeters>NAN</DistanceMeters>
          </Trackpoint>
          <Trackpoint>
            <Time>2022-07-14T08:22:56.000Z</Time>
            <Position>
              <LatitudeDegrees>43.41367629356682300567626953125</LatitudeDegrees>
              <LongitudeDegrees>-3.94475170411169528961181640625</LongitudeDegrees>
            </Position>
            <AltitudeMeters>34.799999237060546875</AltitudeMeters>
            <DistanceMeters>NAN</DistanceMeters>
          </Trackpoint>
          <Trackpoint>
            <Time>2022-07-14T08:22:57.000Z</Time>
            <Position>
              <LatitudeDegrees>43.4136274270713329315185546875</LatitudeDegrees>
              <LongitudeDegrees>-3.94473829306662082672119140625</LongitudeDegrees>
            </Position>
            <AltitudeMeters>34.40000152587890625</AltitudeMeters>
            <DistanceMeters>NAN</DistanceMeters>
          </Trackpoint>
          <Trackpoint>
            <Time>2022-07-14T08:23:00.000Z</Time>
            <Position>
              <LatitudeDegrees>43.41350463218986988067626953125</LatitudeDegrees>
              <LongitudeDegrees>-3.944686912000179290771484375</LongitudeDegrees>
            </Position>
            <AltitudeMeters>33.59999847412109375</AltitudeMeters>
            <DistanceMeters>NAN</DistanceMeters>
          </Trackpoint>
          <Trackpoint>
            <Time>2022-07-14T08:23:01.000Z</Time>
            <Position>
              <LatitudeDegrees>43.41348920948803424835205078125</LatitudeDegrees>
              <LongitudeDegrees>-3.94465581513941287994384765625</LongitudeDegrees>
            </Position>
            <AltitudeMeters>33.200000762939453125</AltitudeMeters>
            <DistanceMeters>NAN</DistanceMeters>
          </Trackpoint>
          <Trackpoint>
            <Time>2022-07-14T08:23:02.000Z</Time>
            <Position>
              <LatitudeDegrees>43.413486443459987640380859375</LatitudeDegrees>
              <LongitudeDegrees>-3.94462756812572479248046875</LongitudeDegrees>
            </Position>
            <AltitudeMeters>33</AltitudeMeters>
            <DistanceMeters>NAN</DistanceMeters>
          </Trackpoint>
          <Trackpoint>
            <Time>2022-07-14T08:23:04.000Z</Time>
            <Position>
              <LatitudeDegrees>43.41351586394011974334716796875</LatitudeDegrees>
              <LongitudeDegrees>-3.94459043629467487335205078125</LongitudeDegrees>
            </Position>
            <AltitudeMeters>32.59999847412109375</AltitudeMeters>
            <DistanceMeters>NAN</DistanceMeters>
          </Trackpoint>
          <Trackpoint>
            <Time>2022-07-14T08:23:05.000Z</Time>
            <Position>
              <LatitudeDegrees>43.41353296302258968353271484375</LatitudeDegrees>
              <LongitudeDegrees>-3.94458306021988391876220703125</LongitudeDegrees>
            </Position>
            <AltitudeMeters>32.59999847412109375</AltitudeMeters>
            <DistanceMeters>NAN</DistanceMeters>
          </Trackpoint>
          <Trackpoint>
            <Time>2022-07-14T08:23:08.000Z</Time>
            <Position>
              <LatitudeDegrees>43.41354553587734699249267578125</LatitudeDegrees>
              <LongitudeDegrees>-3.94458741880953311920166015625</LongitudeDegrees>
            </Position>
            <AltitudeMeters>32.59999847412109375</AltitudeMeters>
            <DistanceMeters>NAN</DistanceMeters>
          </Trackpoint>
          <Trackpoint>
            <Time>2022-07-14T08:23:09.000Z</Time>
            <Position>
              <LatitudeDegrees>43.41354553587734699249267578125</LatitudeDegrees>
              <LongitudeDegrees>-3.94458741880953311920166015625</LongitudeDegrees>
            </Position>
            <AltitudeMeters>32.40000152587890625</AltitudeMeters>
            <DistanceMeters>NAN</DistanceMeters>
          </Trackpoint>
          <Trackpoint>
            <Time>2022-07-14T08:26:52.000Z</Time>
            <Position>
              <LatitudeDegrees>43.4135982580482959747314453125</LatitudeDegrees>
              <LongitudeDegrees>-3.94454165361821651458740234375</LongitudeDegrees>
            </Position>
            <AltitudeMeters>34.200000762939453125</AltitudeMeters>
            <DistanceMeters>NAN</DistanceMeters>
          </Trackpoint>
          <Trackpoint>
            <Time>2022-07-14T08:26:53.000Z</Time>
            <Position>
              <LatitudeDegrees>43.4135982580482959747314453125</LatitudeDegrees>
              <LongitudeDegrees>-3.94454165361821651458740234375</LongitudeDegrees>
            </Position>
            <AltitudeMeters>34</AltitudeMeters>
            <DistanceMeters>NAN</DistanceMeters>
          </Trackpoint>
          <Trackpoint>
            <Time>2022-07-14T08:26:54.000Z</Time>
            <Position>
              <LatitudeDegrees>43.4135982580482959747314453125</LatitudeDegrees>
              <LongitudeDegrees>-3.94454165361821651458740234375</LongitudeDegrees>
            </Position>
            <AltitudeMeters>33.799999237060546875</AltitudeMeters>
            <DistanceMeters>NAN</DistanceMeters>
          </Trackpoint>
          <Trackpoint>
            <Time>2022-07-14T08:34:14.000Z</Time>
            <Position>
              <LatitudeDegrees>43.413591720163822174072265625</LatitudeDegrees>
              <LongitudeDegrees>-3.94463284872472286224365234375</LongitudeDegrees>
            </Position>
            <AltitudeMeters>36</AltitudeMeters>
            <DistanceMeters>NAN</DistanceMeters>
          </Trackpoint>
          <Trackpoint>
            <Time>2022-07-14T08:34:15.000Z</Time>
            <Position>
              <LatitudeDegrees>43.41357369907200336456298828125</LatitudeDegrees>
              <LongitudeDegrees>-3.94464206881821155548095703125</LongitudeDegrees>
            </Position>
            <AltitudeMeters>36</AltitudeMeters>
            <DistanceMeters>NAN</DistanceMeters>
          </Trackpoint>
          <Trackpoint>
            <Time>2022-07-14T08:34:17.000Z</Time>
            <Position>
              <LatitudeDegrees>43.41352843679487705230712890625</LatitudeDegrees>
              <LongitudeDegrees>-3.94464097917079925537109375</LongitudeDegrees>
            </Position>
            <AltitudeMeters>35.799999237060546875</AltitudeMeters>
            <DistanceMeters>NAN</DistanceMeters>
          </Trackpoint>
          <Trackpoint>
            <Time>2022-07-14T08:34:23.000Z</Time>
            <Position>
              <LatitudeDegrees>43.413340933620929718017578125</LatitudeDegrees>
              <LongitudeDegrees>-3.94457199610769748687744140625</LongitudeDegrees>
            </Position>
            <AltitudeMeters>35.799999237060546875</AltitudeMeters>
            <DistanceMeters>NAN</DistanceMeters>
          </Trackpoint>
          <Trackpoint>
            <Time>2022-07-14T08:34:29.000Z</Time>
            <Position>
              <LatitudeDegrees>43.41321931220591068267822265625</LatitudeDegrees>
              <LongitudeDegrees>-3.94439178518950939178466796875</LongitudeDegrees>
            </Position>
            <AltitudeMeters>35.59999847412109375</AltitudeMeters>
            <DistanceMeters>NAN</DistanceMeters>
          </Trackpoint>
          <Trackpoint>
            <Time>2022-07-14T08:34:36.000Z</Time>
            <Position>
              <LatitudeDegrees>43.41307128779590129852294921875</LatitudeDegrees>
              <LongitudeDegrees>-3.944113589823246002197265625</LongitudeDegrees>
            </Position>
            <AltitudeMeters>35.200000762939453125</AltitudeMeters>
            <DistanceMeters>NAN</DistanceMeters>
          </Trackpoint>
          <Trackpoint>
            <Time>2022-07-14T08:34:37.000Z</Time>
            <Position>
              <LatitudeDegrees>43.41305402107536792755126953125</LatitudeDegrees>
              <LongitudeDegrees>-3.94406623207032680511474609375</LongitudeDegrees>
            </Position>
            <AltitudeMeters>35</AltitudeMeters>
            <DistanceMeters>NAN</DistanceMeters>
          </Trackpoint>
          <Trackpoint>
            <Time>2022-07-14T08:34:41.000Z</Time>
            <Position>
              <LatitudeDegrees>43.4129810146987438201904296875</LatitudeDegrees>
              <LongitudeDegrees>-3.9438113383948802947998046875</LongitudeDegrees>
            </Position>
            <AltitudeMeters>33.59999847412109375</AltitudeMeters>
            <DistanceMeters>NAN</DistanceMeters>
          </Trackpoint>
          <Trackpoint>
            <Time>2022-07-14T08:34:42.000Z</Time>
            <Position>
              <LatitudeDegrees>43.41296584345400333404541015625</LatitudeDegrees>
              <LongitudeDegrees>-3.94377051852643489837646484375</LongitudeDegrees>
            </Position>
            <AltitudeMeters>33.40000152587890625</AltitudeMeters>
            <DistanceMeters>NAN</DistanceMeters>
          </Trackpoint>
          <Trackpoint>
            <Time>2022-07-14T08:34:46.000Z</Time>
            <Position>
              <LatitudeDegrees>43.41288931667804718017578125</LatitudeDegrees>
              <LongitudeDegrees>-3.943606652319431304931640625</LongitudeDegrees>
            </Position>
            <AltitudeMeters>32.59999847412109375</AltitudeMeters>
            <DistanceMeters>NAN</DistanceMeters>
          </Trackpoint>
          <Trackpoint>
            <Time>2022-07-14T08:34:47.000Z</Time>
            <Position>
              <LatitudeDegrees>43.41287598945200443267822265625</LatitudeDegrees>
              <LongitudeDegrees>-3.94359818659722805023193359375</LongitudeDegrees>
            </Position>
            <AltitudeMeters>32.200000762939453125</AltitudeMeters>
            <DistanceMeters>NAN</DistanceMeters>
          </Trackpoint>
          <Trackpoint>
            <Time>2022-07-14T08:34:51.000Z</Time>
            <Position>
              <LatitudeDegrees>43.4127547033131122589111328125</LatitudeDegrees>
              <LongitudeDegrees>-3.94349609501659870147705078125</LongitudeDegrees>
            </Position>
            <AltitudeMeters>31.3999996185302734375</AltitudeMeters>
            <DistanceMeters>NAN</DistanceMeters>
          </Trackpoint>
          <Trackpoint>
            <Time>2022-07-14T08:34:52.000Z</Time>
            <Position>
              <LatitudeDegrees>43.41271631419658660888671875</LatitudeDegrees>
              <LongitudeDegrees>-3.94347019493579864501953125</LongitudeDegrees>
            </Position>
            <AltitudeMeters>31</AltitudeMeters>
            <DistanceMeters>NAN</DistanceMeters>
          </Trackpoint>
          <Trackpoint>
            <Time>2022-07-14T08:34:54.000Z</Time>
            <Position>
              <LatitudeDegrees>43.41259519569575786590576171875</LatitudeDegrees>
              <LongitudeDegrees>-3.943402469158172607421875</LongitudeDegrees>
            </Position>
            <AltitudeMeters>30.3999996185302734375</AltitudeMeters>
            <DistanceMeters>NAN</DistanceMeters>
          </Trackpoint>
          <Trackpoint>
            <Time>2022-07-14T08:34:57.000Z</Time>
            <Position>
              <LatitudeDegrees>43.41242588125169277191162109375</LatitudeDegrees>
              <LongitudeDegrees>-3.94329643808305263519287109375</LongitudeDegrees>
            </Position>
            <AltitudeMeters>30</AltitudeMeters>
            <DistanceMeters>NAN</DistanceMeters>
          </Trackpoint>
          <Trackpoint>
            <Time>2022-07-14T08:35:01.000Z</Time>
            <Position>
              <LatitudeDegrees>43.41219621710479259490966796875</LatitudeDegrees>
              <LongitudeDegrees>-3.94313047640025615692138671875</LongitudeDegrees>
            </Position>
            <AltitudeMeters>29.3999996185302734375</AltitudeMeters>
            <DistanceMeters>NAN</DistanceMeters>
          </Trackpoint>
          <Trackpoint>
            <Time>2022-07-14T08:35:02.000Z</Time>
            <Position>
              <LatitudeDegrees>43.4121488593518733978271484375</LatitudeDegrees>
              <LongitudeDegrees>-3.94310315139591693878173828125</LongitudeDegrees>
            </Position>
            <AltitudeMeters>29.3999996185302734375</AltitudeMeters>
            <DistanceMeters>NAN</DistanceMeters>
          </Trackpoint>
          <Trackpoint>
            <Time>2022-07-14T08:35:04.000Z</Time>
            <Position>
              <LatitudeDegrees>43.41202556155622005462646484375</LatitudeDegrees>
              <LongitudeDegrees>-3.9430385269224643707275390625</LongitudeDegrees>
            </Position>
            <AltitudeMeters>29.200000762939453125</AltitudeMeters>
            <DistanceMeters>NAN</DistanceMeters>
          </Trackpoint>
          <Trackpoint>
            <Time>2022-07-14T08:35:06.000Z</Time>
            <Position>
              <LatitudeDegrees>43.411923386156558990478515625</LatitudeDegrees>
              <LongitudeDegrees>-3.94297809340059757232666015625</LongitudeDegrees>
            </Position>
            <AltitudeMeters>28.799999237060546875</AltitudeMeters>
            <DistanceMeters>NAN</DistanceMeters>
          </Trackpoint>
          <Trackpoint>
            <Time>2022-07-14T08:35:09.000Z</Time>
            <Position>
              <LatitudeDegrees>43.4118028543889522552490234375</LatitudeDegrees>
              <LongitudeDegrees>-3.94288170151412487030029296875</LongitudeDegrees>
            </Position>
            <AltitudeMeters>28.6000003814697265625</AltitudeMeters>
            <DistanceMeters>NAN</DistanceMeters>
          </Trackpoint>
          <Trackpoint>
            <Time>2022-07-14T08:35:14.000Z</Time>
            <Position>
              <LatitudeDegrees>43.41159087605774402618408203125</LatitudeDegrees>
              <LongitudeDegrees>-3.9427287317812442779541015625</LongitudeDegrees>
            </Position>
            <AltitudeMeters>28.3999996185302734375</AltitudeMeters>
            <DistanceMeters>NAN</DistanceMeters>
          </Trackpoint>
          <Trackpoint>
            <Time>2022-07-14T08:35:16.000Z</Time>
            <Position>
              <LatitudeDegrees>43.4115131758153438568115234375</LatitudeDegrees>
              <LongitudeDegrees>-3.94266494549810886383056640625</LongitudeDegrees>
            </Position>
            <AltitudeMeters>28.200000762939453125</AltitudeMeters>
            <DistanceMeters>NAN</DistanceMeters>
          </Trackpoint>
          <Trackpoint>
            <Time>2022-07-14T08:35:18.000Z</Time>
            <Position>
              <LatitudeDegrees>43.4114424325525760650634765625</LatitudeDegrees>
              <LongitudeDegrees>-3.94259990192949771881103515625</LongitudeDegrees>
            </Position>
            <AltitudeMeters>28</AltitudeMeters>
            <DistanceMeters>NAN</DistanceMeters>
          </Trackpoint>
          <Trackpoint>
            <Time>2022-07-14T08:35:22.000Z</Time>
            <Position>
              <LatitudeDegrees>43.41131762601435184478759765625</LatitudeDegrees>
              <LongitudeDegrees>-3.9424596726894378662109375</LongitudeDegrees>
            </Position>
            <AltitudeMeters>27.799999237060546875</AltitudeMeters>
            <DistanceMeters>NAN</DistanceMeters>
          </Trackpoint>
          <Trackpoint>
            <Time>2022-07-14T08:35:24.000Z</Time>
            <Position>
              <LatitudeDegrees>43.4112523309886455535888671875</LatitudeDegrees>
              <LongitudeDegrees>-3.9423954673111438751220703125</LongitudeDegrees>
            </Position>
            <AltitudeMeters>27.6000003814697265625</AltitudeMeters>
            <DistanceMeters>NAN</DistanceMeters>
          </Trackpoint>
          <Trackpoint>
            <Time>2022-07-14T08:35:25.000Z</Time>
            <Position>
              <LatitudeDegrees>43.41121871955692768096923828125</LatitudeDegrees>
              <LongitudeDegrees>-3.942368142306804656982421875</LongitudeDegrees>
            </Position>
            <AltitudeMeters>27.6000003814697265625</AltitudeMeters>
            <DistanceMeters>NAN</DistanceMeters>
          </Trackpoint>
          <Trackpoint>
            <Time>2022-07-14T08:35:29.000Z</Time>
            <Position>
              <LatitudeDegrees>43.4110598824918270111083984375</LatitudeDegrees>
              <LongitudeDegrees>-3.94228599965572357177734375</LongitudeDegrees>
            </Position>
            <AltitudeMeters>27.200000762939453125</AltitudeMeters>
            <DistanceMeters>NAN</DistanceMeters>
          </Trackpoint>
          <Trackpoint>
            <Time>2022-07-14T08:35:30.000Z</Time>
            <Position>
              <LatitudeDegrees>43.41101503930985927581787109375</LatitudeDegrees>
              <LongitudeDegrees>-3.9422710798680782318115234375</LongitudeDegrees>
            </Position>
            <AltitudeMeters>27.200000762939453125</AltitudeMeters>
            <DistanceMeters>NAN</DistanceMeters>
          </Trackpoint>
          <Trackpoint>
            <Time>2022-07-14T08:35:31.000Z</Time>
            <Position>
              <LatitudeDegrees>43.41096843592822551727294921875</LatitudeDegrees>
              <LongitudeDegrees>-3.9422580040991306304931640625</LongitudeDegrees>
            </Position>
            <AltitudeMeters>27.200000762939453125</AltitudeMeters>
            <DistanceMeters>NAN</DistanceMeters>
          </Trackpoint>
          <Trackpoint>
            <Time>2022-07-14T08:35:33.000Z</Time>
            <Position>
              <LatitudeDegrees>43.41087623499333858489990234375</LatitudeDegrees>
              <LongitudeDegrees>-3.9422422461211681365966796875</LongitudeDegrees>
            </Position>
            <AltitudeMeters>27</AltitudeMeters>
            <DistanceMeters>NAN</DistanceMeters>
          </Trackpoint>
          <Trackpoint>
            <Time>2022-07-14T08:35:34.000Z</Time>
            <Position>
              <LatitudeDegrees>43.41082644648849964141845703125</LatitudeDegrees>
              <LongitudeDegrees>-3.9422365464270114898681640625</LongitudeDegrees>
            </Position>
            <AltitudeMeters>26.799999237060546875</AltitudeMeters>
            <DistanceMeters>NAN</DistanceMeters>
          </Trackpoint>
          <Trackpoint>
            <Time>2022-07-14T08:35:37.000Z</Time>
            <Position>
              <LatitudeDegrees>43.410683535039424896240234375</LatitudeDegrees>
              <LongitudeDegrees>-3.942226655781269073486328125</LongitudeDegrees>
            </Position>
            <AltitudeMeters>26.3999996185302734375</AltitudeMeters>
            <DistanceMeters>NAN</DistanceMeters>
          </Trackpoint>
          <Trackpoint>
            <Time>2022-07-14T08:35:39.000Z</Time>
            <Position>
              <LatitudeDegrees>43.41059342958033084869384765625</LatitudeDegrees>
              <LongitudeDegrees>-3.9422211237251758575439453125</LongitudeDegrees>
            </Position>
            <AltitudeMeters>26.200000762939453125</AltitudeMeters>
            <DistanceMeters>NAN</DistanceMeters>
          </Trackpoint>
          <Trackpoint>
            <Time>2022-07-14T08:35:41.000Z</Time>
            <Position>
              <LatitudeDegrees>43.4105120413005352020263671875</LatitudeDegrees>
              <LongitudeDegrees>-3.94222288392484188079833984375</LongitudeDegrees>
            </Position>
            <AltitudeMeters>25.6000003814697265625</AltitudeMeters>
            <DistanceMeters>NAN</DistanceMeters>
          </Trackpoint>
          <Trackpoint>
            <Time>2022-07-14T08:35:43.000Z</Time>
            <Position>
              <LatitudeDegrees>43.41046619229018688201904296875</LatitudeDegrees>
              <LongitudeDegrees>-3.942242078483104705810546875</LongitudeDegrees>
            </Position>
            <AltitudeMeters>25.200000762939453125</AltitudeMeters>
            <DistanceMeters>NAN</DistanceMeters>
          </Trackpoint>
          <Trackpoint>
            <Time>2022-07-14T08:35:44.000Z</Time>
            <Position>
              <LatitudeDegrees>43.4104597382247447967529296875</LatitudeDegrees>
              <LongitudeDegrees>-3.9422462694346904754638671875</LongitudeDegrees>
            </Position>
            <AltitudeMeters>25.200000762939453125</AltitudeMeters>
            <DistanceMeters>NAN</DistanceMeters>
          </Trackpoint>
          <Trackpoint>
            <Time>2022-07-14T08:35:46.000Z</Time>
            <Position>
              <LatitudeDegrees>43.4104597382247447967529296875</LatitudeDegrees>
              <LongitudeDegrees>-3.9422462694346904754638671875</LongitudeDegrees>
            </Position>
            <AltitudeMeters>25</AltitudeMeters>
            <DistanceMeters>NAN</DistanceMeters>
          </Trackpoint>
          <Trackpoint>
            <Time>2022-07-14T08:35:56.000Z</Time>
            <Position>
              <LatitudeDegrees>43.41043643653392791748046875</LatitudeDegrees>
              <LongitudeDegrees>-3.942232690751552581787109375</LongitudeDegrees>
            </Position>
            <AltitudeMeters>25.3999996185302734375</AltitudeMeters>
            <DistanceMeters>NAN</DistanceMeters>
          </Trackpoint>
          <Trackpoint>
            <Time>2022-07-14T08:35:58.000Z</Time>
            <Position>
              <LatitudeDegrees>43.4104054234921932220458984375</LatitudeDegrees>
              <LongitudeDegrees>-3.9422298409044742584228515625</LongitudeDegrees>
            </Position>
            <AltitudeMeters>25.200000762939453125</AltitudeMeters>
            <DistanceMeters>NAN</DistanceMeters>
          </Trackpoint>
          <Trackpoint>
            <Time>2022-07-14T08:36:00.000Z</Time>
            <Position>
              <LatitudeDegrees>43.41039888560771942138671875</LatitudeDegrees>
              <LongitudeDegrees>-3.94222187809646129608154296875</LongitudeDegrees>
            </Position>
            <AltitudeMeters>25.200000762939453125</AltitudeMeters>
            <DistanceMeters>NAN</DistanceMeters>
          </Trackpoint>
          <Trackpoint>
            <Time>2022-07-14T08:36:01.000Z</Time>
            <Position>
              <LatitudeDegrees>43.41039888560771942138671875</LatitudeDegrees>
              <LongitudeDegrees>-3.94222187809646129608154296875</LongitudeDegrees>
            </Position>
            <AltitudeMeters>25.200000762939453125</AltitudeMeters>
            <DistanceMeters>NAN</DistanceMeters>
          </Trackpoint>
          <Trackpoint>
            <Time>2022-07-14T08:36:04.000Z</Time>
            <Position>
              <LatitudeDegrees>43.4103698842227458953857421875</LatitudeDegrees>
              <LongitudeDegrees>-3.9422316849231719970703125</LongitudeDegrees>
            </Position>
            <AltitudeMeters>25.200000762939453125</AltitudeMeters>
            <DistanceMeters>NAN</DistanceMeters>
          </Trackpoint>
          <Trackpoint>
            <Time>2022-07-14T08:36:06.000Z</Time>
            <Position>
              <LatitudeDegrees>43.41031699441373348236083984375</LatitudeDegrees>
              <LongitudeDegrees>-3.94225205294787883758544921875</LongitudeDegrees>
            </Position>
            <AltitudeMeters>25.3999996185302734375</AltitudeMeters>
            <DistanceMeters>NAN</DistanceMeters>
          </Trackpoint>
          <Trackpoint>
            <Time>2022-07-14T08:36:09.000Z</Time>
            <Position>
              <LatitudeDegrees>43.41024197638034820556640625</LatitudeDegrees>
              <LongitudeDegrees>-3.94225792028009891510009765625</LongitudeDegrees>
            </Position>
            <AltitudeMeters>25.6000003814697265625</AltitudeMeters>
            <DistanceMeters>NAN</DistanceMeters>
          </Trackpoint>
          <Trackpoint>
            <Time>2022-07-14T08:36:12.000Z</Time>
            <Position>
              <LatitudeDegrees>43.4101727418601512908935546875</LatitudeDegrees>
              <LongitudeDegrees>-3.9422633685171604156494140625</LongitudeDegrees>
            </Position>
            <AltitudeMeters>25.799999237060546875</AltitudeMeters>
            <DistanceMeters>NAN</DistanceMeters>
          </Trackpoint>
          <Trackpoint>
            <Time>2022-07-14T08:36:15.000Z</Time>
            <Position>
              <LatitudeDegrees>43.41010057367384433746337890625</LatitudeDegrees>
              <LongitudeDegrees>-3.94228256307542324066162109375</LongitudeDegrees>
            </Position>
            <AltitudeMeters>26.200000762939453125</AltitudeMeters>
            <DistanceMeters>NAN</DistanceMeters>
          </Trackpoint>
          <Trackpoint>
            <Time>2022-07-14T08:36:19.000Z</Time>
            <Position>
              <LatitudeDegrees>43.4100279025733470916748046875</LatitudeDegrees>
              <LongitudeDegrees>-3.9422898553311824798583984375</LongitudeDegrees>
            </Position>
            <AltitudeMeters>27</AltitudeMeters>
            <DistanceMeters>NAN</DistanceMeters>
          </Trackpoint>
          <Trackpoint>
            <Time>2022-07-14T08:36:20.000Z</Time>
            <Position>
              <LatitudeDegrees>43.41000786982476711273193359375</LatitudeDegrees>
              <LongitudeDegrees>-3.9422928728163242340087890625</LongitudeDegrees>
            </Position>
            <AltitudeMeters>27.200000762939453125</AltitudeMeters>
            <DistanceMeters>NAN</DistanceMeters>
          </Trackpoint>
          <Trackpoint>
            <Time>2022-07-14T08:36:21.000Z</Time>
            <Position>
              <LatitudeDegrees>43.40998875908553600311279296875</LatitudeDegrees>
              <LongitudeDegrees>-3.9423039369285106658935546875</LongitudeDegrees>
            </Position>
            <AltitudeMeters>27.3999996185302734375</AltitudeMeters>
            <DistanceMeters>NAN</DistanceMeters>
          </Trackpoint>
          <Trackpoint>
            <Time>2022-07-14T08:36:23.000Z</Time>
            <Position>
              <LatitudeDegrees>43.40993779711425304412841796875</LatitudeDegrees>
              <LongitudeDegrees>-3.94232614897191524505615234375</LongitudeDegrees>
            </Position>
            <AltitudeMeters>27.6000003814697265625</AltitudeMeters>
            <DistanceMeters>NAN</DistanceMeters>
          </Trackpoint>
          <Trackpoint>
            <Time>2022-07-14T08:36:24.000Z</Time>
            <Position>
              <LatitudeDegrees>43.40992656536400318145751953125</LatitudeDegrees>
              <LongitudeDegrees>-3.94232262857258319854736328125</LongitudeDegrees>
            </Position>
            <AltitudeMeters>27.6000003814697265625</AltitudeMeters>
            <DistanceMeters>NAN</DistanceMeters>
          </Trackpoint>
          <Trackpoint>
            <Time>2022-07-14T08:36:26.000Z</Time>
            <Position>
              <LatitudeDegrees>43.40986235998570919036865234375</LatitudeDegrees>
              <LongitudeDegrees>-3.9423309266567230224609375</LongitudeDegrees>
            </Position>
            <AltitudeMeters>27.799999237060546875</AltitudeMeters>
            <DistanceMeters>NAN</DistanceMeters>
          </Trackpoint>
          <Trackpoint>
            <Time>2022-07-14T08:36:29.000Z</Time>
            <Position>
              <LatitudeDegrees>43.40974534861743450164794921875</LatitudeDegrees>
              <LongitudeDegrees>-3.94230854697525501251220703125</LongitudeDegrees>
            </Position>
            <AltitudeMeters>28.3999996185302734375</AltitudeMeters>
            <DistanceMeters>NAN</DistanceMeters>
          </Trackpoint>
          <Trackpoint>
            <Time>2022-07-14T08:36:30.000Z</Time>
            <Position>
              <LatitudeDegrees>43.409715257585048675537109375</LatitudeDegrees>
              <LongitudeDegrees>-3.94229815341532230377197265625</LongitudeDegrees>
            </Position>
            <AltitudeMeters>28.3999996185302734375</AltitudeMeters>
            <DistanceMeters>NAN</DistanceMeters>
          </Trackpoint>
          <Trackpoint>
            <Time>2022-07-14T08:36:31.000Z</Time>
            <Position>
              <LatitudeDegrees>43.4096793830394744873046875</LatitudeDegrees>
              <LongitudeDegrees>-3.9423228800296783447265625</LongitudeDegrees>
            </Position>
            <AltitudeMeters>28.6000003814697265625</AltitudeMeters>
            <DistanceMeters>NAN</DistanceMeters>
          </Trackpoint>
          <Trackpoint>
            <Time>2022-07-14T08:36:36.000Z</Time>
            <Position>
              <LatitudeDegrees>43.40972422622144222259521484375</LatitudeDegrees>
              <LongitudeDegrees>-3.94233352504670619964599609375</LongitudeDegrees>
            </Position>
            <AltitudeMeters>28.799999237060546875</AltitudeMeters>
            <DistanceMeters>NAN</DistanceMeters>
          </Trackpoint>
          <Trackpoint>
            <Time>2022-07-14T08:36:37.000Z</Time>
            <Position>
              <LatitudeDegrees>43.40972422622144222259521484375</LatitudeDegrees>
              <LongitudeDegrees>-3.94233352504670619964599609375</LongitudeDegrees>
            </Position>
            <AltitudeMeters>28.799999237060546875</AltitudeMeters>
            <DistanceMeters>NAN</DistanceMeters>
          </Trackpoint>
          <Trackpoint>
            <Time>2022-07-14T08:36:42.000Z</Time>
            <Position>
              <LatitudeDegrees>43.40972020290791988372802734375</LatitudeDegrees>
              <LongitudeDegrees>-3.94241868518292903900146484375</LongitudeDegrees>
            </Position>
            <AltitudeMeters>29</AltitudeMeters>
            <DistanceMeters>NAN</DistanceMeters>
          </Trackpoint>
          <Trackpoint>
            <Time>2022-07-14T08:36:44.000Z</Time>
            <Position>
              <LatitudeDegrees>43.4097221307456493377685546875</LatitudeDegrees>
              <LongitudeDegrees>-3.94248255528509616851806640625</LongitudeDegrees>
            </Position>
            <AltitudeMeters>29.200000762939453125</AltitudeMeters>
            <DistanceMeters>NAN</DistanceMeters>
          </Trackpoint>
          <Trackpoint>
            <Time>2022-07-14T08:36:48.000Z</Time>
            <Position>
              <LatitudeDegrees>43.40972539968788623809814453125</LatitudeDegrees>
              <LongitudeDegrees>-3.94258640706539154052734375</LongitudeDegrees>
            </Position>
            <AltitudeMeters>29.3999996185302734375</AltitudeMeters>
            <DistanceMeters>NAN</DistanceMeters>
          </Trackpoint>
          <Trackpoint>
            <Time>2022-07-14T08:36:52.000Z</Time>
            <Position>
              <LatitudeDegrees>43.4097328595817089080810546875</LatitudeDegrees>
              <LongitudeDegrees>-3.94270383752882480621337890625</LongitudeDegrees>
            </Position>
            <AltitudeMeters>29.6000003814697265625</AltitudeMeters>
            <DistanceMeters>NAN</DistanceMeters>
          </Trackpoint>
          <Trackpoint>
            <Time>2022-07-14T08:36:59.000Z</Time>
            <Position>
              <LatitudeDegrees>43.40973277576267719268798828125</LatitudeDegrees>
              <LongitudeDegrees>-3.94287248142063617706298828125</LongitudeDegrees>
            </Position>
            <AltitudeMeters>30</AltitudeMeters>
            <DistanceMeters>NAN</DistanceMeters>
          </Trackpoint>
          <Trackpoint>
            <Time>2022-07-14T08:37:00.000Z</Time>
            <Position>
              <LatitudeDegrees>43.4097338654100894927978515625</LatitudeDegrees>
              <LongitudeDegrees>-3.9429067634046077728271484375</LongitudeDegrees>
            </Position>
            <AltitudeMeters>30</AltitudeMeters>
            <DistanceMeters>NAN</DistanceMeters>
          </Trackpoint>
          <Trackpoint>
            <Time>2022-07-14T08:37:03.000Z</Time>
            <Position>
              <LatitudeDegrees>43.40974333696067333221435546875</LatitudeDegrees>
              <LongitudeDegrees>-3.9429845474660396575927734375</LongitudeDegrees>
            </Position>
            <AltitudeMeters>30.3999996185302734375</AltitudeMeters>
            <DistanceMeters>NAN</DistanceMeters>
          </Trackpoint>
          <Trackpoint>
            <Time>2022-07-14T08:37:08.000Z</Time>
            <Position>
              <LatitudeDegrees>43.40975590981543064117431640625</LatitudeDegrees>
              <LongitudeDegrees>-3.9431092701852321624755859375</LongitudeDegrees>
            </Position>
            <AltitudeMeters>31</AltitudeMeters>
            <DistanceMeters>NAN</DistanceMeters>
          </Trackpoint>
          <Trackpoint>
            <Time>2022-07-14T08:37:15.000Z</Time>
            <Position>
              <LatitudeDegrees>43.40977166779339313507080078125</LatitudeDegrees>
              <LongitudeDegrees>-3.9432973600924015045166015625</LongitudeDegrees>
            </Position>
            <AltitudeMeters>31.3999996185302734375</AltitudeMeters>
            <DistanceMeters>NAN</DistanceMeters>
          </Trackpoint>
          <Trackpoint>
            <Time>2022-07-14T08:37:16.000Z</Time>
            <Position>
              <LatitudeDegrees>43.40978222899138927459716796875</LatitudeDegrees>
              <LongitudeDegrees>-3.94331973977386951446533203125</LongitudeDegrees>
            </Position>
            <AltitudeMeters>31.6000003814697265625</AltitudeMeters>
            <DistanceMeters>NAN</DistanceMeters>
          </Trackpoint>
          <Trackpoint>
            <Time>2022-07-14T08:37:19.000Z</Time>
            <Position>
              <LatitudeDegrees>43.40980301611125469207763671875</LatitudeDegrees>
              <LongitudeDegrees>-3.94338880665600299835205078125</LongitudeDegrees>
            </Position>
            <AltitudeMeters>31.799999237060546875</AltitudeMeters>
            <DistanceMeters>NAN</DistanceMeters>
          </Trackpoint>
          <Trackpoint>
            <Time>2022-07-14T08:37:23.000Z</Time>
            <Position>
              <LatitudeDegrees>43.4098349511623382568359375</LatitudeDegrees>
              <LongitudeDegrees>-3.94348301924765110015869140625</LongitudeDegrees>
            </Position>
            <AltitudeMeters>32</AltitudeMeters>
            <DistanceMeters>NAN</DistanceMeters>
          </Trackpoint>
          <Trackpoint>
            <Time>2022-07-14T08:37:26.000Z</Time>
            <Position>
              <LatitudeDegrees>43.4098565764725208282470703125</LatitudeDegrees>
              <LongitudeDegrees>-3.9435427822172641754150390625</LongitudeDegrees>
            </Position>
            <AltitudeMeters>32.59999847412109375</AltitudeMeters>
            <DistanceMeters>NAN</DistanceMeters>
          </Trackpoint>
          <Trackpoint>
            <Time>2022-07-14T08:37:28.000Z</Time>
            <Position>
              <LatitudeDegrees>43.4098709933459758758544921875</LatitudeDegrees>
              <LongitudeDegrees>-3.9435773156583309173583984375</LongitudeDegrees>
            </Position>
            <AltitudeMeters>32.799999237060546875</AltitudeMeters>
            <DistanceMeters>NAN</DistanceMeters>
          </Trackpoint>
          <Trackpoint>
            <Time>2022-07-14T08:37:30.000Z</Time>
            <Position>
              <LatitudeDegrees>43.409879207611083984375</LatitudeDegrees>
              <LongitudeDegrees>-3.9436165429651737213134765625</LongitudeDegrees>
            </Position>
            <AltitudeMeters>33</AltitudeMeters>
            <DistanceMeters>NAN</DistanceMeters>
          </Trackpoint>
          <Trackpoint>
            <Time>2022-07-14T08:37:36.000Z</Time>
            <Position>
              <LatitudeDegrees>43.40991717763245105743408203125</LatitudeDegrees>
              <LongitudeDegrees>-3.9437473006546497344970703125</LongitudeDegrees>
            </Position>
            <AltitudeMeters>33.59999847412109375</AltitudeMeters>
            <DistanceMeters>NAN</DistanceMeters>
          </Trackpoint>
          <Trackpoint>
            <Time>2022-07-14T08:37:37.000Z</Time>
            <Position>
              <LatitudeDegrees>43.40992254205048084259033203125</LatitudeDegrees>
              <LongitudeDegrees>-3.9437664113938808441162109375</LongitudeDegrees>
            </Position>
            <AltitudeMeters>33.59999847412109375</AltitudeMeters>
            <DistanceMeters>NAN</DistanceMeters>
          </Trackpoint>
          <Trackpoint>
            <Time>2022-07-14T08:37:40.000Z</Time>
            <Position>
              <LatitudeDegrees>43.40992891229689121246337890625</LatitudeDegrees>
              <LongitudeDegrees>-3.9438302814960479736328125</LongitudeDegrees>
            </Position>
            <AltitudeMeters>34</AltitudeMeters>
            <DistanceMeters>NAN</DistanceMeters>
          </Trackpoint>
          <Trackpoint>
            <Time>2022-07-14T08:37:45.000Z</Time>
            <Position>
              <LatitudeDegrees>43.40993192978203296661376953125</LatitudeDegrees>
              <LongitudeDegrees>-3.9439461193978786468505859375</LongitudeDegrees>
            </Position>
            <AltitudeMeters>34.59999847412109375</AltitudeMeters>
            <DistanceMeters>NAN</DistanceMeters>
          </Trackpoint>
          <Trackpoint>
            <Time>2022-07-14T08:37:46.000Z</Time>
            <Position>
              <LatitudeDegrees>43.40993209742009639739990234375</LatitudeDegrees>
              <LongitudeDegrees>-3.9439692534506320953369140625</LongitudeDegrees>
            </Position>
            <AltitudeMeters>34.59999847412109375</AltitudeMeters>
            <DistanceMeters>NAN</DistanceMeters>
          </Trackpoint>
          <Trackpoint>
            <Time>2022-07-14T08:37:50.000Z</Time>
            <Position>
              <LatitudeDegrees>43.4099261462688446044921875</LatitudeDegrees>
              <LongitudeDegrees>-3.9440631307661533355712890625</LongitudeDegrees>
            </Position>
            <AltitudeMeters>34.799999237060546875</AltitudeMeters>
            <DistanceMeters>NAN</DistanceMeters>
          </Trackpoint>
          <Trackpoint>
            <Time>2022-07-14T08:37:52.000Z</Time>
            <Position>
              <LatitudeDegrees>43.409917093813419342041015625</LatitudeDegrees>
              <LongitudeDegrees>-3.94412188790738582611083984375</LongitudeDegrees>
            </Position>
            <AltitudeMeters>35</AltitudeMeters>
            <DistanceMeters>NAN</DistanceMeters>
          </Trackpoint>
          <Trackpoint>
            <Time>2022-07-14T08:37:55.000Z</Time>
            <Position>
              <LatitudeDegrees>43.4099021740257740020751953125</LatitudeDegrees>
              <LongitudeDegrees>-3.94420243799686431884765625</LongitudeDegrees>
            </Position>
            <AltitudeMeters>35.40000152587890625</AltitudeMeters>
            <DistanceMeters>NAN</DistanceMeters>
          </Trackpoint>
          <Trackpoint>
            <Time>2022-07-14T08:37:59.000Z</Time>
            <Position>
              <LatitudeDegrees>43.40987317264080047607421875</LatitudeDegrees>
              <LongitudeDegrees>-3.944316767156124114990234375</LongitudeDegrees>
            </Position>
            <AltitudeMeters>35.799999237060546875</AltitudeMeters>
            <DistanceMeters>NAN</DistanceMeters>
          </Trackpoint>
          <Trackpoint>
            <Time>2022-07-14T08:38:02.000Z</Time>
            <Position>
              <LatitudeDegrees>43.40985029004514217376708984375</LatitudeDegrees>
              <LongitudeDegrees>-3.944405280053615570068359375</LongitudeDegrees>
            </Position>
            <AltitudeMeters>36</AltitudeMeters>
            <DistanceMeters>NAN</DistanceMeters>
          </Trackpoint>
          <Trackpoint>
            <Time>2022-07-14T08:38:05.000Z</Time>
            <Position>
              <LatitudeDegrees>43.40982246212661266326904296875</LatitudeDegrees>
              <LongitudeDegrees>-3.9444973133504390716552734375</LongitudeDegrees>
            </Position>
            <AltitudeMeters>36</AltitudeMeters>
            <DistanceMeters>NAN</DistanceMeters>
          </Trackpoint>
          <Trackpoint>
            <Time>2022-07-14T08:38:16.000Z</Time>
            <Position>
              <LatitudeDegrees>43.40968064032495021820068359375</LatitudeDegrees>
              <LongitudeDegrees>-3.94484348595142364501953125</LongitudeDegrees>
            </Position>
            <AltitudeMeters>36</AltitudeMeters>
            <DistanceMeters>NAN</DistanceMeters>
          </Trackpoint>
          <Trackpoint>
            <Time>2022-07-14T08:38:23.000Z</Time>
            <Position>
              <LatitudeDegrees>43.40950679965317249298095703125</LatitudeDegrees>
              <LongitudeDegrees>-3.94516132771968841552734375</LongitudeDegrees>
            </Position>
            <AltitudeMeters>35.40000152587890625</AltitudeMeters>
            <DistanceMeters>NAN</DistanceMeters>
          </Trackpoint>
          <Trackpoint>
            <Time>2022-07-14T08:38:29.000Z</Time>
            <Position>
              <LatitudeDegrees>43.40925551019608974456787109375</LatitudeDegrees>
              <LongitudeDegrees>-3.94545377232134342193603515625</LongitudeDegrees>
            </Position>
            <AltitudeMeters>34.799999237060546875</AltitudeMeters>
            <DistanceMeters>NAN</DistanceMeters>
          </Trackpoint>
          <Trackpoint>
            <Time>2022-07-14T08:38:30.000Z</Time>
            <Position>
              <LatitudeDegrees>43.40919901616871356964111328125</LatitudeDegrees>
              <LongitudeDegrees>-3.9455031417310237884521484375</LongitudeDegrees>
            </Position>
            <AltitudeMeters>34.59999847412109375</AltitudeMeters>
            <DistanceMeters>NAN</DistanceMeters>
          </Trackpoint>
          <Trackpoint>
            <Time>2022-07-14T08:38:34.000Z</Time>
            <Position>
              <LatitudeDegrees>43.4089442901313304901123046875</LatitudeDegrees>
              <LongitudeDegrees>-3.94571210257709026336669921875</LongitudeDegrees>
            </Position>
            <AltitudeMeters>33.799999237060546875</AltitudeMeters>
            <DistanceMeters>NAN</DistanceMeters>
          </Trackpoint>
          <Trackpoint>
            <Time>2022-07-14T08:38:35.000Z</Time>
            <Position>
              <LatitudeDegrees>43.40887648053467273712158203125</LatitudeDegrees>
              <LongitudeDegrees>-3.94576926715672016143798828125</LongitudeDegrees>
            </Position>
            <AltitudeMeters>33.200000762939453125</AltitudeMeters>
            <DistanceMeters>NAN</DistanceMeters>
          </Trackpoint>
          <Trackpoint>
            <Time>2022-07-14T08:38:39.000Z</Time>
            <Position>
              <LatitudeDegrees>43.4086167253553867340087890625</LatitudeDegrees>
              <LongitudeDegrees>-3.94599138759076595306396484375</LongitudeDegrees>
            </Position>
            <AltitudeMeters>32.40000152587890625</AltitudeMeters>
            <DistanceMeters>NAN</DistanceMeters>
          </Trackpoint>
          <Trackpoint>
            <Time>2022-07-14T08:38:41.000Z</Time>
            <Position>
              <LatitudeDegrees>43.40850164182484149932861328125</LatitudeDegrees>
              <LongitudeDegrees>-3.9460848458111286163330078125</LongitudeDegrees>
            </Position>
            <AltitudeMeters>32.200000762939453125</AltitudeMeters>
            <DistanceMeters>NAN</DistanceMeters>
          </Trackpoint>
          <Trackpoint>
            <Time>2022-07-14T08:38:48.000Z</Time>
            <Position>
              <LatitudeDegrees>43.4081590734422206878662109375</LatitudeDegrees>
              <LongitudeDegrees>-3.94638332538306713104248046875</LongitudeDegrees>
            </Position>
            <AltitudeMeters>31.6000003814697265625</AltitudeMeters>
            <DistanceMeters>NAN</DistanceMeters>
          </Trackpoint>
          <Trackpoint>
            <Time>2022-07-14T08:38:56.000Z</Time>
            <Position>
              <LatitudeDegrees>43.40780384838581085205078125</LatitudeDegrees>
              <LongitudeDegrees>-3.94667702727019786834716796875</LongitudeDegrees>
            </Position>
            <AltitudeMeters>31.3999996185302734375</AltitudeMeters>
            <DistanceMeters>NAN</DistanceMeters>
          </Trackpoint>
          <Trackpoint>
            <Time>2022-07-14T08:39:02.000Z</Time>
            <Position>
              <LatitudeDegrees>43.40754359029233455657958984375</LatitudeDegrees>
              <LongitudeDegrees>-3.94688707776367664337158203125</LongitudeDegrees>
            </Position>
            <AltitudeMeters>31.200000762939453125</AltitudeMeters>
            <DistanceMeters>NAN</DistanceMeters>
          </Trackpoint>
          <Trackpoint>
            <Time>2022-07-14T08:39:04.000Z</Time>
            <Position>
              <LatitudeDegrees>43.4074580110609531402587890625</LatitudeDegrees>
              <LongitudeDegrees>-3.9469582401216030120849609375</LongitudeDegrees>
            </Position>
            <AltitudeMeters>31.200000762939453125</AltitudeMeters>
            <DistanceMeters>NAN</DistanceMeters>
          </Trackpoint>
          <Trackpoint>
            <Time>2022-07-14T08:39:07.000Z</Time>
            <Position>
              <LatitudeDegrees>43.4073409996926784515380859375</LatitudeDegrees>
              <LongitudeDegrees>-3.94704817794263362884521484375</LongitudeDegrees>
            </Position>
            <AltitudeMeters>31.200000762939453125</AltitudeMeters>
            <DistanceMeters>NAN</DistanceMeters>
          </Trackpoint>
          <Trackpoint>
            <Time>2022-07-14T08:39:09.000Z</Time>
            <Position>
              <LatitudeDegrees>43.40726816095411777496337890625</LatitudeDegrees>
              <LongitudeDegrees>-3.947100900113582611083984375</LongitudeDegrees>
            </Position>
            <AltitudeMeters>31.200000762939453125</AltitudeMeters>
            <DistanceMeters>NAN</DistanceMeters>
          </Trackpoint>
          <Trackpoint>
            <Time>2022-07-14T08:39:14.000Z</Time>
            <Position>
              <LatitudeDegrees>43.40709901414811611175537109375</LatitudeDegrees>
              <LongitudeDegrees>-3.94725018180906772613525390625</LongitudeDegrees>
            </Position>
            <AltitudeMeters>31.200000762939453125</AltitudeMeters>
            <DistanceMeters>NAN</DistanceMeters>
          </Trackpoint>
          <Trackpoint>
            <Time>2022-07-14T08:39:22.000Z</Time>
            <Position>
              <LatitudeDegrees>43.40686281211674213409423828125</LatitudeDegrees>
              <LongitudeDegrees>-3.9474440552294254302978515625</LongitudeDegrees>
            </Position>
            <AltitudeMeters>31.3999996185302734375</AltitudeMeters>
            <DistanceMeters>NAN</DistanceMeters>
          </Trackpoint>
          <Trackpoint>
            <Time>2022-07-14T08:39:31.000Z</Time>
            <Position>
              <LatitudeDegrees>43.40661822818219661712646484375</LatitudeDegrees>
              <LongitudeDegrees>-3.9476378448307514190673828125</LongitudeDegrees>
            </Position>
            <AltitudeMeters>31.6000003814697265625</AltitudeMeters>
            <DistanceMeters>NAN</DistanceMeters>
          </Trackpoint>
          <Trackpoint>
            <Time>2022-07-14T08:39:37.000Z</Time>
            <Position>
              <LatitudeDegrees>43.40645763091742992401123046875</LatitudeDegrees>
              <LongitudeDegrees>-3.94776063971221446990966796875</LongitudeDegrees>
            </Position>
            <AltitudeMeters>31.6000003814697265625</AltitudeMeters>
            <DistanceMeters>NAN</DistanceMeters>
          </Trackpoint>
          <Trackpoint>
            <Time>2022-07-14T08:39:43.000Z</Time>
            <Position>
              <LatitudeDegrees>43.40627976693212985992431640625</LatitudeDegrees>
              <LongitudeDegrees>-3.94788108766078948974609375</LongitudeDegrees>
            </Position>
            <AltitudeMeters>31.6000003814697265625</AltitudeMeters>
            <DistanceMeters>NAN</DistanceMeters>
          </Trackpoint>
          <Trackpoint>
            <Time>2022-07-14T08:39:48.000Z</Time>
            <Position>
              <LatitudeDegrees>43.40613895095884799957275390625</LatitudeDegrees>
              <LongitudeDegrees>-3.94799851812422275543212890625</LongitudeDegrees>
            </Position>
            <AltitudeMeters>31.6000003814697265625</AltitudeMeters>
            <DistanceMeters>NAN</DistanceMeters>
          </Trackpoint>
          <Trackpoint>
            <Time>2022-07-14T08:39:52.000Z</Time>
            <Position>
              <LatitudeDegrees>43.40602680109441280364990234375</LatitudeDegrees>
              <LongitudeDegrees>-3.948096670210361480712890625</LongitudeDegrees>
            </Position>
            <AltitudeMeters>31.6000003814697265625</AltitudeMeters>
            <DistanceMeters>NAN</DistanceMeters>
          </Trackpoint>
          <Trackpoint>
            <Time>2022-07-14T08:39:56.000Z</Time>
            <Position>
              <LatitudeDegrees>43.40591490268707275390625</LatitudeDegrees>
              <LongitudeDegrees>-3.9481893740594387054443359375</LongitudeDegrees>
            </Position>
            <AltitudeMeters>31.799999237060546875</AltitudeMeters>
            <DistanceMeters>NAN</DistanceMeters>
          </Trackpoint>
          <Trackpoint>
            <Time>2022-07-14T08:40:02.000Z</Time>
            <Position>
              <LatitudeDegrees>43.405751287937164306640625</LatitudeDegrees>
              <LongitudeDegrees>-3.9483566768467426300048828125</LongitudeDegrees>
            </Position>
            <AltitudeMeters>32</AltitudeMeters>
            <DistanceMeters>NAN</DistanceMeters>
          </Trackpoint>
          <Trackpoint>
            <Time>2022-07-14T08:40:05.000Z</Time>
            <Position>
              <LatitudeDegrees>43.4056629426777362823486328125</LatitudeDegrees>
              <LongitudeDegrees>-3.948451392352581024169921875</LongitudeDegrees>
            </Position>
            <AltitudeMeters>32</AltitudeMeters>
            <DistanceMeters>NAN</DistanceMeters>
          </Trackpoint>
          <Trackpoint>
            <Time>2022-07-14T08:40:07.000Z</Time>
            <Position>
              <LatitudeDegrees>43.40561809949576854705810546875</LatitudeDegrees>
              <LongitudeDegrees>-3.94850109703838825225830078125</LongitudeDegrees>
            </Position>
            <AltitudeMeters>32</AltitudeMeters>
            <DistanceMeters>NAN</DistanceMeters>
          </Trackpoint>
          <Trackpoint>
            <Time>2022-07-14T08:40:08.000Z</Time>
            <Position>
              <LatitudeDegrees>43.40558700263500213623046875</LatitudeDegrees>
              <LongitudeDegrees>-3.9485333673655986785888671875</LongitudeDegrees>
            </Position>
            <AltitudeMeters>32</AltitudeMeters>
            <DistanceMeters>NAN</DistanceMeters>
          </Trackpoint>
          <Trackpoint>
            <Time>2022-07-14T08:40:12.000Z</Time>
            <Position>
              <LatitudeDegrees>43.40548432432115077972412109375</LatitudeDegrees>
              <LongitudeDegrees>-3.948623724281787872314453125</LongitudeDegrees>
            </Position>
            <AltitudeMeters>32</AltitudeMeters>
            <DistanceMeters>NAN</DistanceMeters>
          </Trackpoint>
          <Trackpoint>
            <Time>2022-07-14T08:40:17.000Z</Time>
            <Position>
              <LatitudeDegrees>43.4053451009094715118408203125</LatitudeDegrees>
              <LongitudeDegrees>-3.9487489499151706695556640625</LongitudeDegrees>
            </Position>
            <AltitudeMeters>32.200000762939453125</AltitudeMeters>
            <DistanceMeters>NAN</DistanceMeters>
          </Trackpoint>
          <Trackpoint>
            <Time>2022-07-14T08:40:23.000Z</Time>
            <Position>
              <LatitudeDegrees>43.40518676675856113433837890625</LatitudeDegrees>
              <LongitudeDegrees>-3.94889454357326030731201171875</LongitudeDegrees>
            </Position>
            <AltitudeMeters>32.200000762939453125</AltitudeMeters>
            <DistanceMeters>NAN</DistanceMeters>
          </Trackpoint>
          <Trackpoint>
            <Time>2022-07-14T08:40:28.000Z</Time>
            <Position>
              <LatitudeDegrees>43.40506740845739841461181640625</LatitudeDegrees>
              <LongitudeDegrees>-3.94901624880731105804443359375</LongitudeDegrees>
            </Position>
            <AltitudeMeters>32.40000152587890625</AltitudeMeters>
            <DistanceMeters>NAN</DistanceMeters>
          </Trackpoint>
          <Trackpoint>
            <Time>2022-07-14T08:40:31.000Z</Time>
            <Position>
              <LatitudeDegrees>43.40498995967209339141845703125</LatitudeDegrees>
              <LongitudeDegrees>-3.94908699207007884979248046875</LongitudeDegrees>
            </Position>
            <AltitudeMeters>32.59999847412109375</AltitudeMeters>
            <DistanceMeters>NAN</DistanceMeters>
          </Trackpoint>
          <Trackpoint>
            <Time>2022-07-14T08:40:34.000Z</Time>
            <Position>
              <LatitudeDegrees>43.40491251088678836822509765625</LatitudeDegrees>
              <LongitudeDegrees>-3.94915857352316379547119140625</LongitudeDegrees>
            </Position>
            <AltitudeMeters>32.799999237060546875</AltitudeMeters>
            <DistanceMeters>NAN</DistanceMeters>
          </Trackpoint>
          <Trackpoint>
            <Time>2022-07-14T08:40:35.000Z</Time>
            <Position>
              <LatitudeDegrees>43.40488702990114688873291015625</LatitudeDegrees>
              <LongitudeDegrees>-3.94918371923267841339111328125</LongitudeDegrees>
            </Position>
            <AltitudeMeters>32.799999237060546875</AltitudeMeters>
            <DistanceMeters>NAN</DistanceMeters>
          </Trackpoint>
          <Trackpoint>
            <Time>2022-07-14T08:40:43.000Z</Time>
            <Position>
              <LatitudeDegrees>43.40468469075858592987060546875</LatitudeDegrees>
              <LongitudeDegrees>-3.9493638463318347930908203125</LongitudeDegrees>
            </Position>
            <AltitudeMeters>33</AltitudeMeters>
            <DistanceMeters>NAN</DistanceMeters>
          </Trackpoint>
          <Trackpoint>
            <Time>2022-07-14T08:40:50.000Z</Time>
            <Position>
              <LatitudeDegrees>43.404498361051082611083984375</LatitudeDegrees>
              <LongitudeDegrees>-3.94954799674451351165771484375</LongitudeDegrees>
            </Position>
            <AltitudeMeters>33</AltitudeMeters>
            <DistanceMeters>NAN</DistanceMeters>
          </Trackpoint>
          <Trackpoint>
            <Time>2022-07-14T08:40:51.000Z</Time>
            <Position>
              <LatitudeDegrees>43.40446994639933109283447265625</LatitudeDegrees>
              <LongitudeDegrees>-3.949573226273059844970703125</LongitudeDegrees>
            </Position>
            <AltitudeMeters>33</AltitudeMeters>
            <DistanceMeters>NAN</DistanceMeters>
          </Trackpoint>
          <Trackpoint>
            <Time>2022-07-14T08:40:54.000Z</Time>
            <Position>
              <LatitudeDegrees>43.40439216233789920806884765625</LatitudeDegrees>
              <LongitudeDegrees>-3.94965059123933315277099609375</LongitudeDegrees>
            </Position>
            <AltitudeMeters>33</AltitudeMeters>
            <DistanceMeters>NAN</DistanceMeters>
          </Trackpoint>
          <Trackpoint>
            <Time>2022-07-14T08:40:58.000Z</Time>
            <Position>
              <LatitudeDegrees>43.404297530651092529296875</LatitudeDegrees>
              <LongitudeDegrees>-3.949764333665370941162109375</LongitudeDegrees>
            </Position>
            <AltitudeMeters>33.200000762939453125</AltitudeMeters>
            <DistanceMeters>NAN</DistanceMeters>
          </Trackpoint>
          <Trackpoint>
            <Time>2022-07-14T08:40:59.000Z</Time>
            <Position>
              <LatitudeDegrees>43.40427263639867305755615234375</LatitudeDegrees>
              <LongitudeDegrees>-3.94978889264166355133056640625</LongitudeDegrees>
            </Position>
            <AltitudeMeters>33.200000762939453125</AltitudeMeters>
            <DistanceMeters>NAN</DistanceMeters>
          </Trackpoint>
          <Trackpoint>
            <Time>2022-07-14T08:41:01.000Z</Time>
            <Position>
              <LatitudeDegrees>43.404222093522548675537109375</LatitudeDegrees>
              <LongitudeDegrees>-3.9498411118984222412109375</LongitudeDegrees>
            </Position>
            <AltitudeMeters>33.40000152587890625</AltitudeMeters>
            <DistanceMeters>NAN</DistanceMeters>
          </Trackpoint>
          <Trackpoint>
            <Time>2022-07-14T08:41:13.000Z</Time>
            <Position>
              <LatitudeDegrees>43.40392545796930789947509765625</LatitudeDegrees>
              <LongitudeDegrees>-3.9501453749835491180419921875</LongitudeDegrees>
            </Position>
            <AltitudeMeters>33.40000152587890625</AltitudeMeters>
            <DistanceMeters>NAN</DistanceMeters>
          </Trackpoint>
          <Trackpoint>
            <Time>2022-07-14T08:41:23.000Z</Time>
            <Position>
              <LatitudeDegrees>43.403645418584346771240234375</LatitudeDegrees>
              <LongitudeDegrees>-3.9504072256386280059814453125</LongitudeDegrees>
            </Position>
            <AltitudeMeters>33.40000152587890625</AltitudeMeters>
            <DistanceMeters>NAN</DistanceMeters>
          </Trackpoint>
          <Trackpoint>
            <Time>2022-07-14T08:41:32.000Z</Time>
            <Position>
              <LatitudeDegrees>43.40338465757668018341064453125</LatitudeDegrees>
              <LongitudeDegrees>-3.95061367191374301910400390625</LongitudeDegrees>
            </Position>
            <AltitudeMeters>32.799999237060546875</AltitudeMeters>
            <DistanceMeters>NAN</DistanceMeters>
          </Trackpoint>
          <Trackpoint>
            <Time>2022-07-14T08:41:33.000Z</Time>
            <Position>
              <LatitudeDegrees>43.4033532254397869110107421875</LatitudeDegrees>
              <LongitudeDegrees>-3.9506452716886997222900390625</LongitudeDegrees>
            </Position>
            <AltitudeMeters>32.799999237060546875</AltitudeMeters>
            <DistanceMeters>NAN</DistanceMeters>
          </Trackpoint>
          <Trackpoint>
            <Time>2022-07-14T08:41:34.000Z</Time>
            <Position>
              <LatitudeDegrees>43.403320871293544769287109375</LatitudeDegrees>
              <LongitudeDegrees>-3.9506774581968784332275390625</LongitudeDegrees>
            </Position>
            <AltitudeMeters>32.59999847412109375</AltitudeMeters>
            <DistanceMeters>NAN</DistanceMeters>
          </Trackpoint>
          <Trackpoint>
            <Time>2022-07-14T08:41:35.000Z</Time>
            <Position>
              <LatitudeDegrees>43.40328809805214405059814453125</LatitudeDegrees>
              <LongitudeDegrees>-3.95071324892342090606689453125</LongitudeDegrees>
            </Position>
            <AltitudeMeters>32.59999847412109375</AltitudeMeters>
            <DistanceMeters>NAN</DistanceMeters>
          </Trackpoint>
          <Trackpoint>
            <Time>2022-07-14T08:41:40.000Z</Time>
            <Position>
              <LatitudeDegrees>43.40312548913061618804931640625</LatitudeDegrees>
              <LongitudeDegrees>-3.950923383235931396484375</LongitudeDegrees>
            </Position>
            <AltitudeMeters>32.200000762939453125</AltitudeMeters>
            <DistanceMeters>NAN</DistanceMeters>
          </Trackpoint>
          <Trackpoint>
            <Time>2022-07-14T08:41:41.000Z</Time>
            <Position>
              <LatitudeDegrees>43.40309514664113521575927734375</LatitudeDegrees>
              <LongitudeDegrees>-3.9509694837033748626708984375</LongitudeDegrees>
            </Position>
            <AltitudeMeters>32</AltitudeMeters>
            <DistanceMeters>NAN</DistanceMeters>
          </Trackpoint>
          <Trackpoint>
            <Time>2022-07-14T08:41:42.000Z</Time>
            <Position>
              <LatitudeDegrees>43.40307419188320636749267578125</LatitudeDegrees>
              <LongitudeDegrees>-3.9510144107043743133544921875</LongitudeDegrees>
            </Position>
            <AltitudeMeters>31.799999237060546875</AltitudeMeters>
            <DistanceMeters>NAN</DistanceMeters>
          </Trackpoint>
          <Trackpoint>
            <Time>2022-07-14T08:41:43.000Z</Time>
            <Position>
              <LatitudeDegrees>43.40306103229522705078125</LatitudeDegrees>
              <LongitudeDegrees>-3.95106260664761066436767578125</LongitudeDegrees>
            </Position>
            <AltitudeMeters>31.6000003814697265625</AltitudeMeters>
            <DistanceMeters>NAN</DistanceMeters>
          </Trackpoint>
          <Trackpoint>
            <Time>2022-07-14T08:41:44.000Z</Time>
            <Position>
              <LatitudeDegrees>43.40305575169622898101806640625</LatitudeDegrees>
              <LongitudeDegrees>-3.95111407153308391571044921875</LongitudeDegrees>
            </Position>
            <AltitudeMeters>31.3999996185302734375</AltitudeMeters>
            <DistanceMeters>NAN</DistanceMeters>
          </Trackpoint>
          <Trackpoint>
            <Time>2022-07-14T08:41:45.000Z</Time>
            <Position>
              <LatitudeDegrees>43.4030548296868801116943359375</LatitudeDegrees>
              <LongitudeDegrees>-3.95116788335144519805908203125</LongitudeDegrees>
            </Position>
            <AltitudeMeters>31.3999996185302734375</AltitudeMeters>
            <DistanceMeters>NAN</DistanceMeters>
          </Trackpoint>
          <Trackpoint>
            <Time>2022-07-14T08:41:47.000Z</Time>
            <Position>
              <LatitudeDegrees>43.40305323712527751922607421875</LatitudeDegrees>
              <LongitudeDegrees>-3.9512849785387516021728515625</LongitudeDegrees>
            </Position>
            <AltitudeMeters>31.200000762939453125</AltitudeMeters>
            <DistanceMeters>NAN</DistanceMeters>
          </Trackpoint>
          <Trackpoint>
            <Time>2022-07-14T08:41:48.000Z</Time>
            <Position>
              <LatitudeDegrees>43.4030444361269474029541015625</LatitudeDegrees>
              <LongitudeDegrees>-3.95134574733674526214599609375</LongitudeDegrees>
            </Position>
            <AltitudeMeters>31</AltitudeMeters>
            <DistanceMeters>NAN</DistanceMeters>
          </Trackpoint>
          <Trackpoint>
            <Time>2022-07-14T08:41:49.000Z</Time>
            <Position>
              <LatitudeDegrees>43.40302909724414348602294921875</LatitudeDegrees>
              <LongitudeDegrees>-3.9513999782502651214599609375</LongitudeDegrees>
            </Position>
            <AltitudeMeters>30.799999237060546875</AltitudeMeters>
            <DistanceMeters>NAN</DistanceMeters>
          </Trackpoint>
          <Trackpoint>
            <Time>2022-07-14T08:41:53.000Z</Time>
            <Position>
              <LatitudeDegrees>43.40291745029389858245849609375</LatitudeDegrees>
              <LongitudeDegrees>-3.9515699632465839385986328125</LongitudeDegrees>
            </Position>
            <AltitudeMeters>30.6000003814697265625</AltitudeMeters>
            <DistanceMeters>NAN</DistanceMeters>
          </Trackpoint>
          <Trackpoint>
            <Time>2022-07-14T08:41:54.000Z</Time>
            <Position>
              <LatitudeDegrees>43.40288761071860790252685546875</LatitudeDegrees>
              <LongitudeDegrees>-3.95160323940217494964599609375</LongitudeDegrees>
            </Position>
            <AltitudeMeters>30.6000003814697265625</AltitudeMeters>
            <DistanceMeters>NAN</DistanceMeters>
          </Trackpoint>
          <Trackpoint>
            <Time>2022-07-14T08:41:55.000Z</Time>
            <Position>
              <LatitudeDegrees>43.40285810641944408416748046875</LatitudeDegrees>
              <LongitudeDegrees>-3.95163726992905139923095703125</LongitudeDegrees>
            </Position>
            <AltitudeMeters>30.6000003814697265625</AltitudeMeters>
            <DistanceMeters>NAN</DistanceMeters>
          </Trackpoint>
          <Trackpoint>
            <Time>2022-07-14T08:41:56.000Z</Time>
            <Position>
              <LatitudeDegrees>43.4028305299580097198486328125</LatitudeDegrees>
              <LongitudeDegrees>-3.9516873098909854888916015625</LongitudeDegrees>
            </Position>
            <AltitudeMeters>30.799999237060546875</AltitudeMeters>
            <DistanceMeters>NAN</DistanceMeters>
          </Trackpoint>
          <Trackpoint>
            <Time>2022-07-14T08:41:58.000Z</Time>
            <Position>
              <LatitudeDegrees>43.4028027020394802093505859375</LatitudeDegrees>
              <LongitudeDegrees>-3.95177255384624004364013671875</LongitudeDegrees>
            </Position>
            <AltitudeMeters>31</AltitudeMeters>
            <DistanceMeters>NAN</DistanceMeters>
          </Trackpoint>
          <Trackpoint>
            <Time>2022-07-14T08:42:05.000Z</Time>
            <Position>
              <LatitudeDegrees>43.4027628041803836822509765625</LatitudeDegrees>
              <LongitudeDegrees>-3.952109254896640777587890625</LongitudeDegrees>
            </Position>
            <AltitudeMeters>31.200000762939453125</AltitudeMeters>
            <DistanceMeters>NAN</DistanceMeters>
          </Trackpoint>
          <Trackpoint>
            <Time>2022-07-14T08:42:09.000Z</Time>
            <Position>
              <LatitudeDegrees>43.402757607400417327880859375</LatitudeDegrees>
              <LongitudeDegrees>-3.95229407586157321929931640625</LongitudeDegrees>
            </Position>
            <AltitudeMeters>31.3999996185302734375</AltitudeMeters>
            <DistanceMeters>NAN</DistanceMeters>
          </Trackpoint>
          <Trackpoint>
            <Time>2022-07-14T08:42:12.000Z</Time>
            <Position>
              <LatitudeDegrees>43.40276825241744518280029296875</LatitudeDegrees>
              <LongitudeDegrees>-3.952420391142368316650390625</LongitudeDegrees>
            </Position>
            <AltitudeMeters>31.3999996185302734375</AltitudeMeters>
            <DistanceMeters>NAN</DistanceMeters>
          </Trackpoint>
          <Trackpoint>
            <Time>2022-07-14T08:42:14.000Z</Time>
            <Position>
              <LatitudeDegrees>43.4027802385389804840087890625</LatitudeDegrees>
              <LongitudeDegrees>-3.95249985158443450927734375</LongitudeDegrees>
            </Position>
            <AltitudeMeters>31.6000003814697265625</AltitudeMeters>
            <DistanceMeters>NAN</DistanceMeters>
          </Trackpoint>
          <Trackpoint>
            <Time>2022-07-14T08:42:16.000Z</Time>
            <Position>
              <LatitudeDegrees>43.4027872793376445770263671875</LatitudeDegrees>
              <LongitudeDegrees>-3.95258174277842044830322265625</LongitudeDegrees>
            </Position>
            <AltitudeMeters>31.6000003814697265625</AltitudeMeters>
            <DistanceMeters>NAN</DistanceMeters>
          </Trackpoint>
          <Trackpoint>
            <Time>2022-07-14T08:42:21.000Z</Time>
            <Position>
              <LatitudeDegrees>43.40281359851360321044921875</LatitudeDegrees>
              <LongitudeDegrees>-3.9527826569974422454833984375</LongitudeDegrees>
            </Position>
            <AltitudeMeters>32</AltitudeMeters>
            <DistanceMeters>NAN</DistanceMeters>
          </Trackpoint>
          <Trackpoint>
            <Time>2022-07-14T08:42:24.000Z</Time>
            <Position>
              <LatitudeDegrees>43.4028288535773754119873046875</LatitudeDegrees>
              <LongitudeDegrees>-3.952905870974063873291015625</LongitudeDegrees>
            </Position>
            <AltitudeMeters>32.200000762939453125</AltitudeMeters>
            <DistanceMeters>NAN</DistanceMeters>
          </Trackpoint>
          <Trackpoint>
            <Time>2022-07-14T08:42:27.000Z</Time>
            <Position>
              <LatitudeDegrees>43.40283011086285114288330078125</LatitudeDegrees>
              <LongitudeDegrees>-3.95297753624618053436279296875</LongitudeDegrees>
            </Position>
            <AltitudeMeters>32.200000762939453125</AltitudeMeters>
            <DistanceMeters>NAN</DistanceMeters>
          </Trackpoint>
          <Trackpoint>
            <Time>2022-07-14T08:42:29.000Z</Time>
            <Position>
              <LatitudeDegrees>43.40283011086285114288330078125</LatitudeDegrees>
              <LongitudeDegrees>-3.95297753624618053436279296875</LongitudeDegrees>
            </Position>
            <AltitudeMeters>32</AltitudeMeters>
            <DistanceMeters>NAN</DistanceMeters>
          </Trackpoint>
          <Trackpoint>
            <Time>2022-07-14T08:42:52.000Z</Time>
            <Position>
              <LatitudeDegrees>43.4028255008161067962646484375</LatitudeDegrees>
              <LongitudeDegrees>-3.9530089683830738067626953125</LongitudeDegrees>
            </Position>
            <AltitudeMeters>32</AltitudeMeters>
            <DistanceMeters>NAN</DistanceMeters>
          </Trackpoint>
          <Trackpoint>
            <Time>2022-07-14T08:42:53.000Z</Time>
            <Position>
              <LatitudeDegrees>43.40281904675066471099853515625</LatitudeDegrees>
              <LongitudeDegrees>-3.95303922705352306365966796875</LongitudeDegrees>
            </Position>
            <AltitudeMeters>32</AltitudeMeters>
            <DistanceMeters>NAN</DistanceMeters>
          </Trackpoint>
          <Trackpoint>
            <Time>2022-07-14T08:42:55.000Z</Time>
            <Position>
              <LatitudeDegrees>43.402803875505924224853515625</LatitudeDegrees>
              <LongitudeDegrees>-3.95310343243181705474853515625</LongitudeDegrees>
            </Position>
            <AltitudeMeters>32</AltitudeMeters>
            <DistanceMeters>NAN</DistanceMeters>
          </Trackpoint>
          <Trackpoint>
            <Time>2022-07-14T08:42:57.000Z</Time>
            <Position>
              <LatitudeDegrees>43.402781747281551361083984375</LatitudeDegrees>
              <LongitudeDegrees>-3.9531621895730495452880859375</LongitudeDegrees>
            </Position>
            <AltitudeMeters>32</AltitudeMeters>
            <DistanceMeters>NAN</DistanceMeters>
          </Trackpoint>
          <Trackpoint>
            <Time>2022-07-14T08:42:59.000Z</Time>
            <Position>
              <LatitudeDegrees>43.4027527458965778350830078125</LatitudeDegrees>
              <LongitudeDegrees>-3.95321197807788848876953125</LongitudeDegrees>
            </Position>
            <AltitudeMeters>32</AltitudeMeters>
            <DistanceMeters>NAN</DistanceMeters>
          </Trackpoint>
          <Trackpoint>
            <Time>2022-07-14T08:43:06.000Z</Time>
            <Position>
              <LatitudeDegrees>43.40265492908656597137451171875</LatitudeDegrees>
              <LongitudeDegrees>-3.9533118903636932373046875</LongitudeDegrees>
            </Position>
            <AltitudeMeters>31.6000003814697265625</AltitudeMeters>
            <DistanceMeters>NAN</DistanceMeters>
          </Trackpoint>
          <Trackpoint>
            <Time>2022-07-14T08:43:08.000Z</Time>
            <Position>
              <LatitudeDegrees>43.40265492908656597137451171875</LatitudeDegrees>
              <LongitudeDegrees>-3.9533118903636932373046875</LongitudeDegrees>
            </Position>
            <AltitudeMeters>31.3999996185302734375</AltitudeMeters>
            <DistanceMeters>NAN</DistanceMeters>
          </Trackpoint>
          <Trackpoint>
            <Time>2022-07-14T08:43:45.000Z</Time>
            <Position>
              <LatitudeDegrees>43.40261855162680149078369140625</LatitudeDegrees>
              <LongitudeDegrees>-3.95337752066552639007568359375</LongitudeDegrees>
            </Position>
            <AltitudeMeters>31.6000003814697265625</AltitudeMeters>
            <DistanceMeters>NAN</DistanceMeters>
          </Trackpoint>
          <Trackpoint>
            <Time>2022-07-14T08:43:46.000Z</Time>
            <Position>
              <LatitudeDegrees>43.4025965072214603424072265625</LatitudeDegrees>
              <LongitudeDegrees>-3.95341456867754459381103515625</LongitudeDegrees>
            </Position>
            <AltitudeMeters>31.6000003814697265625</AltitudeMeters>
            <DistanceMeters>NAN</DistanceMeters>
          </Trackpoint>
          <Trackpoint>
            <Time>2022-07-14T08:43:50.000Z</Time>
            <Position>
              <LatitudeDegrees>43.40250640176236629486083984375</LatitudeDegrees>
              <LongitudeDegrees>-3.95358036272227764129638671875</LongitudeDegrees>
            </Position>
            <AltitudeMeters>31.3999996185302734375</AltitudeMeters>
            <DistanceMeters>NAN</DistanceMeters>
          </Trackpoint>
          <Trackpoint>
            <Time>2022-07-14T08:43:53.000Z</Time>
            <Position>
              <LatitudeDegrees>43.4024536795914173126220703125</LatitudeDegrees>
              <LongitudeDegrees>-3.9537210948765277862548828125</LongitudeDegrees>
            </Position>
            <AltitudeMeters>31.3999996185302734375</AltitudeMeters>
            <DistanceMeters>NAN</DistanceMeters>
          </Trackpoint>
          <Trackpoint>
            <Time>2022-07-14T08:43:59.000Z</Time>
            <Position>
              <LatitudeDegrees>43.4024003706872463226318359375</LatitudeDegrees>
              <LongitudeDegrees>-3.9540359191596508026123046875</LongitudeDegrees>
            </Position>
            <AltitudeMeters>31.6000003814697265625</AltitudeMeters>
            <DistanceMeters>NAN</DistanceMeters>
          </Trackpoint>
          <Trackpoint>
            <Time>2022-07-14T08:44:05.000Z</Time>
            <Position>
              <LatitudeDegrees>43.40236089192330837249755859375</LatitudeDegrees>
              <LongitudeDegrees>-3.95428662188351154327392578125</LongitudeDegrees>
            </Position>
            <AltitudeMeters>32</AltitudeMeters>
            <DistanceMeters>NAN</DistanceMeters>
          </Trackpoint>
          <Trackpoint>
            <Time>2022-07-14T08:44:12.000Z</Time>
            <Position>
              <LatitudeDegrees>43.4023212455213069915771484375</LatitudeDegrees>
              <LongitudeDegrees>-3.954560793936252593994140625</LongitudeDegrees>
            </Position>
            <AltitudeMeters>32.59999847412109375</AltitudeMeters>
            <DistanceMeters>NAN</DistanceMeters>
          </Trackpoint>
          <Trackpoint>
            <Time>2022-07-14T08:44:18.000Z</Time>
            <Position>
              <LatitudeDegrees>43.4022981114685535430908203125</LatitudeDegrees>
              <LongitudeDegrees>-3.95474762655794620513916015625</LongitudeDegrees>
            </Position>
            <AltitudeMeters>32.799999237060546875</AltitudeMeters>
            <DistanceMeters>NAN</DistanceMeters>
          </Trackpoint>
          <Trackpoint>
            <Time>2022-07-14T08:44:23.000Z</Time>
            <Position>
              <LatitudeDegrees>43.40226584114134311676025390625</LatitudeDegrees>
              <LongitudeDegrees>-3.95496304146945476531982421875</LongitudeDegrees>
            </Position>
            <AltitudeMeters>33</AltitudeMeters>
            <DistanceMeters>NAN</DistanceMeters>
          </Trackpoint>
          <Trackpoint>
            <Time>2022-07-14T08:44:25.000Z</Time>
            <Position>
              <LatitudeDegrees>43.4022582136094570159912109375</LatitudeDegrees>
              <LongitudeDegrees>-3.95505943335592746734619140625</LongitudeDegrees>
            </Position>
            <AltitudeMeters>33.200000762939453125</AltitudeMeters>
            <DistanceMeters>NAN</DistanceMeters>
          </Trackpoint>
          <Trackpoint>
            <Time>2022-07-14T08:44:33.000Z</Time>
            <Position>
              <LatitudeDegrees>43.4022129513323307037353515625</LatitudeDegrees>
              <LongitudeDegrees>-3.9553693123161792755126953125</LongitudeDegrees>
            </Position>
            <AltitudeMeters>33.59999847412109375</AltitudeMeters>
            <DistanceMeters>NAN</DistanceMeters>
          </Trackpoint>
          <Trackpoint>
            <Time>2022-07-14T08:44:40.000Z</Time>
            <Position>
              <LatitudeDegrees>43.4022028930485248565673828125</LatitudeDegrees>
              <LongitudeDegrees>-3.9556266367435455322265625</LongitudeDegrees>
            </Position>
            <AltitudeMeters>34</AltitudeMeters>
            <DistanceMeters>NAN</DistanceMeters>
          </Trackpoint>
          <Trackpoint>
            <Time>2022-07-14T08:44:47.000Z</Time>
            <Position>
              <LatitudeDegrees>43.4022464789450168609619140625</LatitudeDegrees>
              <LongitudeDegrees>-3.9558599889278411865234375</LongitudeDegrees>
            </Position>
            <AltitudeMeters>34.200000762939453125</AltitudeMeters>
            <DistanceMeters>NAN</DistanceMeters>
          </Trackpoint>
          <Trackpoint>
            <Time>2022-07-14T08:44:48.000Z</Time>
            <Position>
              <LatitudeDegrees>43.40225829742848873138427734375</LatitudeDegrees>
              <LongitudeDegrees>-3.95590131171047687530517578125</LongitudeDegrees>
            </Position>
            <AltitudeMeters>34.200000762939453125</AltitudeMeters>
            <DistanceMeters>NAN</DistanceMeters>
          </Trackpoint>
          <Trackpoint>
            <Time>2022-07-14T08:44:58.000Z</Time>
            <Position>
              <LatitudeDegrees>43.4023839421570301055908203125</LatitudeDegrees>
              <LongitudeDegrees>-3.95625955425202846527099609375</LongitudeDegrees>
            </Position>
            <AltitudeMeters>34.799999237060546875</AltitudeMeters>
            <DistanceMeters>NAN</DistanceMeters>
          </Trackpoint>
          <Trackpoint>
            <Time>2022-07-14T08:45:05.000Z</Time>
            <Position>
              <LatitudeDegrees>43.40249600820243358612060546875</LatitudeDegrees>
              <LongitudeDegrees>-3.956538252532482147216796875</LongitudeDegrees>
            </Position>
            <AltitudeMeters>35</AltitudeMeters>
            <DistanceMeters>NAN</DistanceMeters>
          </Trackpoint>
          <Trackpoint>
            <Time>2022-07-14T08:45:11.000Z</Time>
            <Position>
              <LatitudeDegrees>43.40257010422646999359130859375</LatitudeDegrees>
              <LongitudeDegrees>-3.9567566849291324615478515625</LongitudeDegrees>
            </Position>
            <AltitudeMeters>35.200000762939453125</AltitudeMeters>
            <DistanceMeters>NAN</DistanceMeters>
          </Trackpoint>
          <Trackpoint>
            <Time>2022-07-14T08:45:13.000Z</Time>
            <Position>
              <LatitudeDegrees>43.402587287127971649169921875</LatitudeDegrees>
              <LongitudeDegrees>-3.9568264223635196685791015625</LongitudeDegrees>
            </Position>
            <AltitudeMeters>35.200000762939453125</AltitudeMeters>
            <DistanceMeters>NAN</DistanceMeters>
          </Trackpoint>
          <Trackpoint>
            <Time>2022-07-14T08:45:18.000Z</Time>
            <Position>
              <LatitudeDegrees>43.402654342353343963623046875</LatitudeDegrees>
              <LongitudeDegrees>-3.95699934102594852447509765625</LongitudeDegrees>
            </Position>
            <AltitudeMeters>35.59999847412109375</AltitudeMeters>
            <DistanceMeters>NAN</DistanceMeters>
          </Trackpoint>
          <Trackpoint>
            <Time>2022-07-14T08:45:28.000Z</Time>
            <Position>
              <LatitudeDegrees>43.40279540978372097015380859375</LatitudeDegrees>
              <LongitudeDegrees>-3.95739077590405941009521484375</LongitudeDegrees>
            </Position>
            <AltitudeMeters>36.200000762939453125</AltitudeMeters>
            <DistanceMeters>NAN</DistanceMeters>
          </Trackpoint>
          <Trackpoint>
            <Time>2022-07-14T08:45:33.000Z</Time>
            <Position>
              <LatitudeDegrees>43.4028612077236175537109375</LatitudeDegrees>
              <LongitudeDegrees>-3.95759127102792263031005859375</LongitudeDegrees>
            </Position>
            <AltitudeMeters>36.200000762939453125</AltitudeMeters>
            <DistanceMeters>NAN</DistanceMeters>
          </Trackpoint>
          <Trackpoint>
            <Time>2022-07-14T08:45:34.000Z</Time>
            <Position>
              <LatitudeDegrees>43.40287436731159687042236328125</LatitudeDegrees>
              <LongitudeDegrees>-3.95762731321156024932861328125</LongitudeDegrees>
            </Position>
            <AltitudeMeters>36.200000762939453125</AltitudeMeters>
            <DistanceMeters>NAN</DistanceMeters>
          </Trackpoint>
          <Trackpoint>
            <Time>2022-07-14T08:45:38.000Z</Time>
            <Position>
              <LatitudeDegrees>43.4029287658631801605224609375</LatitudeDegrees>
              <LongitudeDegrees>-3.9577712304890155792236328125</LongitudeDegrees>
            </Position>
            <AltitudeMeters>36.40000152587890625</AltitudeMeters>
            <DistanceMeters>NAN</DistanceMeters>
          </Trackpoint>
          <Trackpoint>
            <Time>2022-07-14T08:45:41.000Z</Time>
            <Position>
              <LatitudeDegrees>43.40297528542578220367431640625</LatitudeDegrees>
              <LongitudeDegrees>-3.9578879065811634063720703125</LongitudeDegrees>
            </Position>
            <AltitudeMeters>37</AltitudeMeters>
            <DistanceMeters>NAN</DistanceMeters>
          </Trackpoint>
          <Trackpoint>
            <Time>2022-07-14T08:45:44.000Z</Time>
            <Position>
              <LatitudeDegrees>43.403030522167682647705078125</LatitudeDegrees>
              <LongitudeDegrees>-3.95802746526896953582763671875</LongitudeDegrees>
            </Position>
            <AltitudeMeters>37</AltitudeMeters>
            <DistanceMeters>NAN</DistanceMeters>
          </Trackpoint>
          <Trackpoint>
            <Time>2022-07-14T08:45:51.000Z</Time>
            <Position>
              <LatitudeDegrees>43.4031322784721851348876953125</LatitudeDegrees>
              <LongitudeDegrees>-3.95832820795476436614990234375</LongitudeDegrees>
            </Position>
            <AltitudeMeters>37</AltitudeMeters>
            <DistanceMeters>NAN</DistanceMeters>
          </Trackpoint>
          <Trackpoint>
            <Time>2022-07-14T08:45:59.000Z</Time>
            <Position>
              <LatitudeDegrees>43.4032023511826992034912109375</LatitudeDegrees>
              <LongitudeDegrees>-3.9586382545530796051025390625</LongitudeDegrees>
            </Position>
            <AltitudeMeters>36.59999847412109375</AltitudeMeters>
            <DistanceMeters>NAN</DistanceMeters>
          </Trackpoint>
          <Trackpoint>
            <Time>2022-07-14T08:46:04.000Z</Time>
            <Position>
              <LatitudeDegrees>43.4032367169857025146484375</LatitudeDegrees>
              <LongitudeDegrees>-3.95882986485958099365234375</LongitudeDegrees>
            </Position>
            <AltitudeMeters>36.59999847412109375</AltitudeMeters>
            <DistanceMeters>NAN</DistanceMeters>
          </Trackpoint>
          <Trackpoint>
            <Time>2022-07-14T08:46:06.000Z</Time>
            <Position>
              <LatitudeDegrees>43.40324518270790576934814453125</LatitudeDegrees>
              <LongitudeDegrees>-3.95890555344521999359130859375</LongitudeDegrees>
            </Position>
            <AltitudeMeters>36.59999847412109375</AltitudeMeters>
            <DistanceMeters>NAN</DistanceMeters>
          </Trackpoint>
          <Trackpoint>
            <Time>2022-07-14T08:46:15.000Z</Time>
            <Position>
              <LatitudeDegrees>43.40329706668853759765625</LatitudeDegrees>
              <LongitudeDegrees>-3.9592789672315120697021484375</LongitudeDegrees>
            </Position>
            <AltitudeMeters>37</AltitudeMeters>
            <DistanceMeters>NAN</DistanceMeters>
          </Trackpoint>
          <Trackpoint>
            <Time>2022-07-14T08:46:17.000Z</Time>
            <Position>
              <LatitudeDegrees>43.40330871753394603729248046875</LatitudeDegrees>
              <LongitudeDegrees>-3.9593661390244960784912109375</LongitudeDegrees>
            </Position>
            <AltitudeMeters>37.200000762939453125</AltitudeMeters>
            <DistanceMeters>NAN</DistanceMeters>
          </Trackpoint>
          <Trackpoint>
            <Time>2022-07-14T08:46:19.000Z</Time>
            <Position>
              <LatitudeDegrees>43.40331517159938812255859375</LatitudeDegrees>
              <LongitudeDegrees>-3.95944685675203800201416015625</LongitudeDegrees>
            </Position>
            <AltitudeMeters>37.200000762939453125</AltitudeMeters>
            <DistanceMeters>NAN</DistanceMeters>
          </Trackpoint>
          <Trackpoint>
            <Time>2022-07-14T08:46:23.000Z</Time>
            <Position>
              <LatitudeDegrees>43.4033525548875331878662109375</LatitudeDegrees>
              <LongitudeDegrees>-3.95961843430995941162109375</LongitudeDegrees>
            </Position>
            <AltitudeMeters>37.200000762939453125</AltitudeMeters>
            <DistanceMeters>NAN</DistanceMeters>
          </Trackpoint>
          <Trackpoint>
            <Time>2022-07-14T08:46:25.000Z</Time>
            <Position>
              <LatitudeDegrees>43.4033673070371150970458984375</LatitudeDegrees>
              <LongitudeDegrees>-3.9596960507333278656005859375</LongitudeDegrees>
            </Position>
            <AltitudeMeters>37.200000762939453125</AltitudeMeters>
            <DistanceMeters>NAN</DistanceMeters>
          </Trackpoint>
          <Trackpoint>
            <Time>2022-07-14T08:46:30.000Z</Time>
            <Position>
              <LatitudeDegrees>43.4034088812768459320068359375</LatitudeDegrees>
              <LongitudeDegrees>-3.9598620124161243438720703125</LongitudeDegrees>
            </Position>
            <AltitudeMeters>37.59999847412109375</AltitudeMeters>
            <DistanceMeters>NAN</DistanceMeters>
          </Trackpoint>
          <Trackpoint>
            <Time>2022-07-14T08:46:37.000Z</Time>
            <Position>
              <LatitudeDegrees>43.40346914716064929962158203125</LatitudeDegrees>
              <LongitudeDegrees>-3.96013903431594371795654296875</LongitudeDegrees>
            </Position>
            <AltitudeMeters>37.799999237060546875</AltitudeMeters>
            <DistanceMeters>NAN</DistanceMeters>
          </Trackpoint>
          <Trackpoint>
            <Time>2022-07-14T08:46:44.000Z</Time>
            <Position>
              <LatitudeDegrees>43.40354223735630512237548828125</LatitudeDegrees>
              <LongitudeDegrees>-3.96042636595666408538818359375</LongitudeDegrees>
            </Position>
            <AltitudeMeters>38</AltitudeMeters>
            <DistanceMeters>NAN</DistanceMeters>
          </Trackpoint>
          <Trackpoint>
            <Time>2022-07-14T08:46:49.000Z</Time>
            <Position>
              <LatitudeDegrees>43.40358833782374858856201171875</LatitudeDegrees>
              <LongitudeDegrees>-3.96062417887151241302490234375</LongitudeDegrees>
            </Position>
            <AltitudeMeters>38.200000762939453125</AltitudeMeters>
            <DistanceMeters>NAN</DistanceMeters>
          </Trackpoint>
          <Trackpoint>
            <Time>2022-07-14T08:46:54.000Z</Time>
            <Position>
              <LatitudeDegrees>43.40363058261573314666748046875</LatitudeDegrees>
              <LongitudeDegrees>-3.9607965946197509765625</LongitudeDegrees>
            </Position>
            <AltitudeMeters>38.40000152587890625</AltitudeMeters>
            <DistanceMeters>NAN</DistanceMeters>
          </Trackpoint>
          <Trackpoint>
            <Time>2022-07-14T08:46:56.000Z</Time>
            <Position>
              <LatitudeDegrees>43.40364634059369564056396484375</LatitudeDegrees>
              <LongitudeDegrees>-3.96086004562675952911376953125</LongitudeDegrees>
            </Position>
            <AltitudeMeters>38.40000152587890625</AltitudeMeters>
            <DistanceMeters>NAN</DistanceMeters>
          </Trackpoint>
          <Trackpoint>
            <Time>2022-07-14T08:47:01.000Z</Time>
            <Position>
              <LatitudeDegrees>43.403680622577667236328125</LatitudeDegrees>
              <LongitudeDegrees>-3.96103908307850360870361328125</LongitudeDegrees>
            </Position>
            <AltitudeMeters>38.799999237060546875</AltitudeMeters>
            <DistanceMeters>NAN</DistanceMeters>
          </Trackpoint>
          <Trackpoint>
            <Time>2022-07-14T08:47:06.000Z</Time>
            <Position>
              <LatitudeDegrees>43.4037173353135585784912109375</LatitudeDegrees>
              <LongitudeDegrees>-3.9612000994384288787841796875</LongitudeDegrees>
            </Position>
            <AltitudeMeters>39</AltitudeMeters>
            <DistanceMeters>NAN</DistanceMeters>
          </Trackpoint>
          <Trackpoint>
            <Time>2022-07-14T08:47:10.000Z</Time>
            <Position>
              <LatitudeDegrees>43.4037394635379314422607421875</LatitudeDegrees>
              <LongitudeDegrees>-3.96131736226379871368408203125</LongitudeDegrees>
            </Position>
            <AltitudeMeters>39.40000152587890625</AltitudeMeters>
            <DistanceMeters>NAN</DistanceMeters>
          </Trackpoint>
          <Trackpoint>
            <Time>2022-07-14T08:47:12.000Z</Time>
            <Position>
              <LatitudeDegrees>43.403759412467479705810546875</LatitudeDegrees>
              <LongitudeDegrees>-3.96137067116796970367431640625</LongitudeDegrees>
            </Position>
            <AltitudeMeters>39.59999847412109375</AltitudeMeters>
            <DistanceMeters>NAN</DistanceMeters>
          </Trackpoint>
          <Trackpoint>
            <Time>2022-07-14T08:47:18.000Z</Time>
            <Position>
              <LatitudeDegrees>43.40378263033926486968994140625</LatitudeDegrees>
              <LongitudeDegrees>-3.96151970140635967254638671875</LongitudeDegrees>
            </Position>
            <AltitudeMeters>40.40000152587890625</AltitudeMeters>
            <DistanceMeters>NAN</DistanceMeters>
          </Trackpoint>
          <Trackpoint>
            <Time>2022-07-14T08:47:19.000Z</Time>
            <Position>
              <LatitudeDegrees>43.4037900902330875396728515625</LatitudeDegrees>
              <LongitudeDegrees>-3.96154317073523998260498046875</LongitudeDegrees>
            </Position>
            <AltitudeMeters>40.59999847412109375</AltitudeMeters>
            <DistanceMeters>NAN</DistanceMeters>
          </Trackpoint>
          <Trackpoint>
            <Time>2022-07-14T08:47:23.000Z</Time>
            <Position>
              <LatitudeDegrees>43.40381272137165069580078125</LatitudeDegrees>
              <LongitudeDegrees>-3.96161131560802459716796875</LongitudeDegrees>
            </Position>
            <AltitudeMeters>40.799999237060546875</AltitudeMeters>
            <DistanceMeters>NAN</DistanceMeters>
          </Trackpoint>
          <Trackpoint>
            <Time>2022-07-14T08:47:24.000Z</Time>
            <Position>
              <LatitudeDegrees>43.40382252819836139678955078125</LatitudeDegrees>
              <LongitudeDegrees>-3.96162849850952625274658203125</LongitudeDegrees>
            </Position>
            <AltitudeMeters>41</AltitudeMeters>
            <DistanceMeters>NAN</DistanceMeters>
          </Trackpoint>
          <Trackpoint>
            <Time>2022-07-14T08:47:29.000Z</Time>
            <Position>
              <LatitudeDegrees>43.4038370288908481597900390625</LatitudeDegrees>
              <LongitudeDegrees>-3.9617160893976688385009765625</LongitudeDegrees>
            </Position>
            <AltitudeMeters>41.40000152587890625</AltitudeMeters>
            <DistanceMeters>NAN</DistanceMeters>
          </Trackpoint>
          <Trackpoint>
            <Time>2022-07-14T08:47:30.000Z</Time>
            <Position>
              <LatitudeDegrees>43.40383677743375301361083984375</LatitudeDegrees>
              <LongitudeDegrees>-3.96173243410885334014892578125</LongitudeDegrees>
            </Position>
            <AltitudeMeters>41.59999847412109375</AltitudeMeters>
            <DistanceMeters>NAN</DistanceMeters>
          </Trackpoint>
          <Trackpoint>
            <Time>2022-07-14T08:47:31.000Z</Time>
            <Position>
              <LatitudeDegrees>43.40384147129952907562255859375</LatitudeDegrees>
              <LongitudeDegrees>-3.9617452584207057952880859375</LongitudeDegrees>
            </Position>
            <AltitudeMeters>41.59999847412109375</AltitudeMeters>
            <DistanceMeters>NAN</DistanceMeters>
          </Trackpoint>
          <Trackpoint>
            <Time>2022-07-14T08:47:38.000Z</Time>
            <Position>
              <LatitudeDegrees>43.40388740412890911102294921875</LatitudeDegrees>
              <LongitudeDegrees>-3.961853720247745513916015625</LongitudeDegrees>
            </Position>
            <AltitudeMeters>42.59999847412109375</AltitudeMeters>
            <DistanceMeters>NAN</DistanceMeters>
          </Trackpoint>
          <Trackpoint>
            <Time>2022-07-14T08:47:39.000Z</Time>
            <Position>
              <LatitudeDegrees>43.40389586985111236572265625</LatitudeDegrees>
              <LongitudeDegrees>-3.96187056787312030792236328125</LongitudeDegrees>
            </Position>
            <AltitudeMeters>42.59999847412109375</AltitudeMeters>
            <DistanceMeters>NAN</DistanceMeters>
          </Trackpoint>
          <Trackpoint>
            <Time>2022-07-14T08:47:44.000Z</Time>
            <Position>
              <LatitudeDegrees>43.40393383987247943878173828125</LatitudeDegrees>
              <LongitudeDegrees>-3.9619430713355541229248046875</LongitudeDegrees>
            </Position>
            <AltitudeMeters>43.200000762939453125</AltitudeMeters>
            <DistanceMeters>NAN</DistanceMeters>
          </Trackpoint>
          <Trackpoint>
            <Time>2022-07-14T08:47:46.000Z</Time>
            <Position>
              <LatitudeDegrees>43.403953202068805694580078125</LatitudeDegrees>
              <LongitudeDegrees>-3.961957991123199462890625</LongitudeDegrees>
            </Position>
            <AltitudeMeters>43.59999847412109375</AltitudeMeters>
            <DistanceMeters>NAN</DistanceMeters>
          </Trackpoint>
          <Trackpoint>
            <Time>2022-07-14T08:47:48.000Z</Time>
            <Position>
              <LatitudeDegrees>43.40396703220903873443603515625</LatitudeDegrees>
              <LongitudeDegrees>-3.96194566972553730010986328125</LongitudeDegrees>
            </Position>
            <AltitudeMeters>43.799999237060546875</AltitudeMeters>
            <DistanceMeters>NAN</DistanceMeters>
          </Trackpoint>
          <Trackpoint>
            <Time>2022-07-14T08:47:49.000Z</Time>
            <Position>
              <LatitudeDegrees>43.403976671397686004638671875</LatitudeDegrees>
              <LongitudeDegrees>-3.96194030530750751495361328125</LongitudeDegrees>
            </Position>
            <AltitudeMeters>44</AltitudeMeters>
            <DistanceMeters>NAN</DistanceMeters>
          </Trackpoint>
          <Trackpoint>
            <Time>2022-07-14T08:47:52.000Z</Time>
            <Position>
              <LatitudeDegrees>43.4040053375065326690673828125</LatitudeDegrees>
              <LongitudeDegrees>-3.9619390480220317840576171875</LongitudeDegrees>
            </Position>
            <AltitudeMeters>44.40000152587890625</AltitudeMeters>
            <DistanceMeters>NAN</DistanceMeters>
          </Trackpoint>
          <Trackpoint>
            <Time>2022-07-14T08:47:54.000Z</Time>
            <Position>
              <LatitudeDegrees>43.4040291421115398406982421875</LatitudeDegrees>
              <LongitudeDegrees>-3.9619551412761211395263671875</LongitudeDegrees>
            </Position>
            <AltitudeMeters>44.59999847412109375</AltitudeMeters>
            <DistanceMeters>NAN</DistanceMeters>
          </Trackpoint>
          <Trackpoint>
            <Time>2022-07-14T08:47:55.000Z</Time>
            <Position>
              <LatitudeDegrees>43.40404313988983631134033203125</LatitudeDegrees>
              <LongitudeDegrees>-3.96195941604673862457275390625</LongitudeDegrees>
            </Position>
            <AltitudeMeters>44.799999237060546875</AltitudeMeters>
            <DistanceMeters>NAN</DistanceMeters>
          </Trackpoint>
          <Trackpoint>
            <Time>2022-07-14T08:48:03.000Z</Time>
            <Position>
              <LatitudeDegrees>43.404124863445758819580078125</LatitudeDegrees>
              <LongitudeDegrees>-3.96197400055825710296630859375</LongitudeDegrees>
            </Position>
            <AltitudeMeters>45.59999847412109375</AltitudeMeters>
            <DistanceMeters>NAN</DistanceMeters>
          </Trackpoint>
          <Trackpoint>
            <Time>2022-07-14T08:48:05.000Z</Time>
            <Position>
              <LatitudeDegrees>43.40413768775761127471923828125</LatitudeDegrees>
              <LongitudeDegrees>-3.961973749101161956787109375</LongitudeDegrees>
            </Position>
            <AltitudeMeters>45.799999237060546875</AltitudeMeters>
            <DistanceMeters>NAN</DistanceMeters>
          </Trackpoint>
          <Trackpoint>
            <Time>2022-07-14T08:48:06.000Z</Time>
            <Position>
              <LatitudeDegrees>43.4041478298604488372802734375</LatitudeDegrees>
              <LongitudeDegrees>-3.96197685040533542633056640625</LongitudeDegrees>
            </Position>
            <AltitudeMeters>46</AltitudeMeters>
            <DistanceMeters>NAN</DistanceMeters>
          </Trackpoint>
          <Trackpoint>
            <Time>2022-07-14T08:48:10.000Z</Time>
            <Position>
              <LatitudeDegrees>43.4041887335479259490966796875</LatitudeDegrees>
              <LongitudeDegrees>-3.96201406605541706085205078125</LongitudeDegrees>
            </Position>
            <AltitudeMeters>46.40000152587890625</AltitudeMeters>
            <DistanceMeters>NAN</DistanceMeters>
          </Trackpoint>
          <Trackpoint>
            <Time>2022-07-14T08:48:12.000Z</Time>
            <Position>
              <LatitudeDegrees>43.40420474298298358917236328125</LatitudeDegrees>
              <LongitudeDegrees>-3.96203703247010707855224609375</LongitudeDegrees>
            </Position>
            <AltitudeMeters>46.799999237060546875</AltitudeMeters>
            <DistanceMeters>NAN</DistanceMeters>
          </Trackpoint>
          <Trackpoint>
            <Time>2022-07-14T08:48:14.000Z</Time>
            <Position>
              <LatitudeDegrees>43.404220752418041229248046875</LatitudeDegrees>
              <LongitudeDegrees>-3.96206418983638286590576171875</LongitudeDegrees>
            </Position>
            <AltitudeMeters>46.799999237060546875</AltitudeMeters>
            <DistanceMeters>NAN</DistanceMeters>
          </Trackpoint>
          <Trackpoint>
            <Time>2022-07-14T08:48:18.000Z</Time>
            <Position>
              <LatitudeDegrees>43.4042474068701267242431640625</LatitudeDegrees>
              <LongitudeDegrees>-3.9621412195265293121337890625</LongitudeDegrees>
            </Position>
            <AltitudeMeters>47.200000762939453125</AltitudeMeters>
            <DistanceMeters>NAN</DistanceMeters>
          </Trackpoint>
          <Trackpoint>
            <Time>2022-07-14T08:48:24.000Z</Time>
            <Position>
              <LatitudeDegrees>43.40425939299166202545166015625</LatitudeDegrees>
              <LongitudeDegrees>-3.96224523894488811492919921875</LongitudeDegrees>
            </Position>
            <AltitudeMeters>47.59999847412109375</AltitudeMeters>
            <DistanceMeters>NAN</DistanceMeters>
          </Trackpoint>
          <Trackpoint>
            <Time>2022-07-14T08:48:26.000Z</Time>
            <Position>
              <LatitudeDegrees>43.4042601473629474639892578125</LatitudeDegrees>
              <LongitudeDegrees>-3.96227323450148105621337890625</LongitudeDegrees>
            </Position>
            <AltitudeMeters>47.799999237060546875</AltitudeMeters>
            <DistanceMeters>NAN</DistanceMeters>
          </Trackpoint>
          <Trackpoint>
            <Time>2022-07-14T08:48:27.000Z</Time>
            <Position>
              <LatitudeDegrees>43.40425989590585231781005859375</LatitudeDegrees>
              <LongitudeDegrees>-3.9622884057462215423583984375</LongitudeDegrees>
            </Position>
            <AltitudeMeters>47.799999237060546875</AltitudeMeters>
            <DistanceMeters>NAN</DistanceMeters>
          </Trackpoint>
          <Trackpoint>
            <Time>2022-07-14T08:48:29.000Z</Time>
            <Position>
              <LatitudeDegrees>43.40425905771553516387939453125</LatitudeDegrees>
              <LongitudeDegrees>-3.962320424616336822509765625</LongitudeDegrees>
            </Position>
            <AltitudeMeters>48</AltitudeMeters>
            <DistanceMeters>NAN</DistanceMeters>
          </Trackpoint>
          <Trackpoint>
            <Time>2022-07-14T08:48:35.000Z</Time>
            <Position>
              <LatitudeDegrees>43.40427045710384845733642578125</LatitudeDegrees>
              <LongitudeDegrees>-3.96242930553853511810302734375</LongitudeDegrees>
            </Position>
            <AltitudeMeters>48.59999847412109375</AltitudeMeters>
            <DistanceMeters>NAN</DistanceMeters>
          </Trackpoint>
          <Trackpoint>
            <Time>2022-07-14T08:48:39.000Z</Time>
            <Position>
              <LatitudeDegrees>43.4042745642364025115966796875</LatitudeDegrees>
              <LongitudeDegrees>-3.96249485202133655548095703125</LongitudeDegrees>
            </Position>
            <AltitudeMeters>49</AltitudeMeters>
            <DistanceMeters>NAN</DistanceMeters>
          </Trackpoint>
          <Trackpoint>
            <Time>2022-07-14T08:48:40.000Z</Time>
            <Position>
              <LatitudeDegrees>43.40427833609282970428466796875</LatitudeDegrees>
              <LongitudeDegrees>-3.96251647733151912689208984375</LongitudeDegrees>
            </Position>
            <AltitudeMeters>49</AltitudeMeters>
            <DistanceMeters>NAN</DistanceMeters>
          </Trackpoint>
          <Trackpoint>
            <Time>2022-07-14T08:48:42.000Z</Time>
            <Position>
              <LatitudeDegrees>43.4042782522737979888916015625</LatitudeDegrees>
              <LongitudeDegrees>-3.96255134604871273040771484375</LongitudeDegrees>
            </Position>
            <AltitudeMeters>49.200000762939453125</AltitudeMeters>
            <DistanceMeters>NAN</DistanceMeters>
          </Trackpoint>
          <Trackpoint>
            <Time>2022-07-14T08:48:48.000Z</Time>
            <Position>
              <LatitudeDegrees>43.404278419911861419677734375</LatitudeDegrees>
              <LongitudeDegrees>-3.96264874376356601715087890625</LongitudeDegrees>
            </Position>
            <AltitudeMeters>50.200000762939453125</AltitudeMeters>
            <DistanceMeters>NAN</DistanceMeters>
          </Trackpoint>
          <Trackpoint>
            <Time>2022-07-14T08:48:49.000Z</Time>
            <Position>
              <LatitudeDegrees>43.4042839519679546356201171875</LatitudeDegrees>
              <LongitudeDegrees>-3.9626622386276721954345703125</LongitudeDegrees>
            </Position>
            <AltitudeMeters>50.200000762939453125</AltitudeMeters>
            <DistanceMeters>NAN</DistanceMeters>
          </Trackpoint>
          <Trackpoint>
            <Time>2022-07-14T08:48:53.000Z</Time>
            <Position>
              <LatitudeDegrees>43.404289819300174713134765625</LatitudeDegrees>
              <LongitudeDegrees>-3.9627168886363506317138671875</LongitudeDegrees>
            </Position>
            <AltitudeMeters>50.799999237060546875</AltitudeMeters>
            <DistanceMeters>NAN</DistanceMeters>
          </Trackpoint>
          <Trackpoint>
            <Time>2022-07-14T08:48:56.000Z</Time>
            <Position>
              <LatitudeDegrees>43.4042909927666187286376953125</LatitudeDegrees>
              <LongitudeDegrees>-3.96277044899761676788330078125</LongitudeDegrees>
            </Position>
            <AltitudeMeters>51</AltitudeMeters>
            <DistanceMeters>NAN</DistanceMeters>
          </Trackpoint>
          <Trackpoint>
            <Time>2022-07-14T08:48:57.000Z</Time>
            <Position>
              <LatitudeDegrees>43.40429811738431453704833984375</LatitudeDegrees>
              <LongitudeDegrees>-3.96277916617691516876220703125</LongitudeDegrees>
            </Position>
            <AltitudeMeters>51.200000762939453125</AltitudeMeters>
            <DistanceMeters>NAN</DistanceMeters>
          </Trackpoint>
          <Trackpoint>
            <Time>2022-07-14T08:48:58.000Z</Time>
            <Position>
              <LatitudeDegrees>43.40430247597396373748779296875</LatitudeDegrees>
              <LongitudeDegrees>-3.96279559470713138580322265625</LongitudeDegrees>
            </Position>
            <AltitudeMeters>51.200000762939453125</AltitudeMeters>
            <DistanceMeters>NAN</DistanceMeters>
          </Trackpoint>
          <Trackpoint>
            <Time>2022-07-14T08:49:04.000Z</Time>
            <Position>
              <LatitudeDegrees>43.404311947524547576904296875</LatitudeDegrees>
              <LongitudeDegrees>-3.96290087141096591949462890625</LongitudeDegrees>
            </Position>
            <AltitudeMeters>52.200000762939453125</AltitudeMeters>
            <DistanceMeters>NAN</DistanceMeters>
          </Trackpoint>
          <Trackpoint>
            <Time>2022-07-14T08:49:05.000Z</Time>
            <Position>
              <LatitudeDegrees>43.40431638993322849273681640625</LatitudeDegrees>
              <LongitudeDegrees>-3.9629160426557064056396484375</LongitudeDegrees>
            </Position>
            <AltitudeMeters>52.200000762939453125</AltitudeMeters>
            <DistanceMeters>NAN</DistanceMeters>
          </Trackpoint>
          <Trackpoint>
            <Time>2022-07-14T08:49:12.000Z</Time>
            <Position>
              <LatitudeDegrees>43.404340445995330810546875</LatitudeDegrees>
              <LongitudeDegrees>-3.96302257664501667022705078125</LongitudeDegrees>
            </Position>
            <AltitudeMeters>52.59999847412109375</AltitudeMeters>
            <DistanceMeters>NAN</DistanceMeters>
          </Trackpoint>
          <Trackpoint>
            <Time>2022-07-14T08:49:17.000Z</Time>
            <Position>
              <LatitudeDegrees>43.4043493308126926422119140625</LatitudeDegrees>
              <LongitudeDegrees>-3.9631041325628757476806640625</LongitudeDegrees>
            </Position>
            <AltitudeMeters>53</AltitudeMeters>
            <DistanceMeters>NAN</DistanceMeters>
          </Trackpoint>
          <Trackpoint>
            <Time>2022-07-14T08:49:18.000Z</Time>
            <Position>
              <LatitudeDegrees>43.40435452759265899658203125</LatitudeDegrees>
              <LongitudeDegrees>-3.96312030963599681854248046875</LongitudeDegrees>
            </Position>
            <AltitudeMeters>53.200000762939453125</AltitudeMeters>
            <DistanceMeters>NAN</DistanceMeters>
          </Trackpoint>
          <Trackpoint>
            <Time>2022-07-14T08:49:20.000Z</Time>
            <Position>
              <LatitudeDegrees>43.404361568391323089599609375</LatitudeDegrees>
              <LongitudeDegrees>-3.963149897754192352294921875</LongitudeDegrees>
            </Position>
            <AltitudeMeters>53.59999847412109375</AltitudeMeters>
            <DistanceMeters>NAN</DistanceMeters>
          </Trackpoint>
          <Trackpoint>
            <Time>2022-07-14T08:49:21.000Z</Time>
            <Position>
              <LatitudeDegrees>43.4043614007532596588134765625</LatitudeDegrees>
              <LongitudeDegrees>-3.9631641469895839691162109375</LongitudeDegrees>
            </Position>
            <AltitudeMeters>53.59999847412109375</AltitudeMeters>
            <DistanceMeters>NAN</DistanceMeters>
          </Trackpoint>
          <Trackpoint>
            <Time>2022-07-14T08:49:28.000Z</Time>
            <Position>
              <LatitudeDegrees>43.40436525642871856689453125</LatitudeDegrees>
              <LongitudeDegrees>-3.9632655680179595947265625</LongitudeDegrees>
            </Position>
            <AltitudeMeters>54.200000762939453125</AltitudeMeters>
            <DistanceMeters>NAN</DistanceMeters>
          </Trackpoint>
          <Trackpoint>
            <Time>2022-07-14T08:49:29.000Z</Time>
            <Position>
              <LatitudeDegrees>43.40436517260968685150146484375</LatitudeDegrees>
              <LongitudeDegrees>-3.96327973343431949615478515625</LongitudeDegrees>
            </Position>
            <AltitudeMeters>54.40000152587890625</AltitudeMeters>
            <DistanceMeters>NAN</DistanceMeters>
          </Trackpoint>
          <Trackpoint>
            <Time>2022-07-14T08:49:35.000Z</Time>
            <Position>
              <LatitudeDegrees>43.404388390481472015380859375</LatitudeDegrees>
              <LongitudeDegrees>-3.96337486803531646728515625</LongitudeDegrees>
            </Position>
            <AltitudeMeters>54.799999237060546875</AltitudeMeters>
            <DistanceMeters>NAN</DistanceMeters>
          </Trackpoint>
          <Trackpoint>
            <Time>2022-07-14T08:49:38.000Z</Time>
            <Position>
              <LatitudeDegrees>43.4043955989181995391845703125</LatitudeDegrees>
              <LongitudeDegrees>-3.9634318649768829345703125</LongitudeDegrees>
            </Position>
            <AltitudeMeters>55.200000762939453125</AltitudeMeters>
            <DistanceMeters>NAN</DistanceMeters>
          </Trackpoint>
          <Trackpoint>
            <Time>2022-07-14T08:49:39.000Z</Time>
            <Position>
              <LatitudeDegrees>43.40440389700233936309814453125</LatitudeDegrees>
              <LongitudeDegrees>-3.9634487964212894439697265625</LongitudeDegrees>
            </Position>
            <AltitudeMeters>55.40000152587890625</AltitudeMeters>
            <DistanceMeters>NAN</DistanceMeters>
          </Trackpoint>
          <Trackpoint>
            <Time>2022-07-14T08:49:46.000Z</Time>
            <Position>
              <LatitudeDegrees>43.40445083566009998321533203125</LatitudeDegrees>
              <LongitudeDegrees>-3.963564299046993255615234375</LongitudeDegrees>
            </Position>
            <AltitudeMeters>55.799999237060546875</AltitudeMeters>
            <DistanceMeters>NAN</DistanceMeters>
          </Trackpoint>
          <Trackpoint>
            <Time>2022-07-14T08:49:52.000Z</Time>
            <Position>
              <LatitudeDegrees>43.40447899885475635528564453125</LatitudeDegrees>
              <LongitudeDegrees>-3.96368172951042652130126953125</LongitudeDegrees>
            </Position>
            <AltitudeMeters>56.40000152587890625</AltitudeMeters>
            <DistanceMeters>NAN</DistanceMeters>
          </Trackpoint>
          <Trackpoint>
            <Time>2022-07-14T08:49:55.000Z</Time>
            <Position>
              <LatitudeDegrees>43.4044945053756237030029296875</LatitudeDegrees>
              <LongitudeDegrees>-3.96374694071710109710693359375</LongitudeDegrees>
            </Position>
            <AltitudeMeters>56.59999847412109375</AltitudeMeters>
            <DistanceMeters>NAN</DistanceMeters>
          </Trackpoint>
          <Trackpoint>
            <Time>2022-07-14T08:50:01.000Z</Time>
            <Position>
              <LatitudeDegrees>43.40450397692620754241943359375</LatitudeDegrees>
              <LongitudeDegrees>-3.96386043168604373931884765625</LongitudeDegrees>
            </Position>
            <AltitudeMeters>57.200000762939453125</AltitudeMeters>
            <DistanceMeters>NAN</DistanceMeters>
          </Trackpoint>
          <Trackpoint>
            <Time>2022-07-14T08:50:04.000Z</Time>
            <Position>
              <LatitudeDegrees>43.40451277792453765869140625</LatitudeDegrees>
              <LongitudeDegrees>-3.96389379166066646575927734375</LongitudeDegrees>
            </Position>
            <AltitudeMeters>57.200000762939453125</AltitudeMeters>
            <DistanceMeters>NAN</DistanceMeters>
          </Trackpoint>
          <Trackpoint>
            <Time>2022-07-14T08:50:05.000Z</Time>
            <Position>
              <LatitudeDegrees>43.40451420284807682037353515625</LatitudeDegrees>
              <LongitudeDegrees>-3.96391491405665874481201171875</LongitudeDegrees>
            </Position>
            <AltitudeMeters>57.40000152587890625</AltitudeMeters>
            <DistanceMeters>NAN</DistanceMeters>
          </Trackpoint>
          <Trackpoint>
            <Time>2022-07-14T08:50:11.000Z</Time>
            <Position>
              <LatitudeDegrees>43.404522836208343505859375</LatitudeDegrees>
              <LongitudeDegrees>-3.9640016667544841766357421875</LongitudeDegrees>
            </Position>
            <AltitudeMeters>57.799999237060546875</AltitudeMeters>
            <DistanceMeters>NAN</DistanceMeters>
          </Trackpoint>
          <Trackpoint>
            <Time>2022-07-14T08:50:16.000Z</Time>
            <Position>
              <LatitudeDegrees>43.4045322239398956298828125</LatitudeDegrees>
              <LongitudeDegrees>-3.96409797482192516326904296875</LongitudeDegrees>
            </Position>
            <AltitudeMeters>58.200000762939453125</AltitudeMeters>
            <DistanceMeters>NAN</DistanceMeters>
          </Trackpoint>
          <Trackpoint>
            <Time>2022-07-14T08:50:17.000Z</Time>
            <Position>
              <LatitudeDegrees>43.4045320563018321990966796875</LatitudeDegrees>
              <LongitudeDegrees>-3.96411540918052196502685546875</LongitudeDegrees>
            </Position>
            <AltitudeMeters>58.40000152587890625</AltitudeMeters>
            <DistanceMeters>NAN</DistanceMeters>
          </Trackpoint>
          <Trackpoint>
            <Time>2022-07-14T08:50:18.000Z</Time>
            <Position>
              <LatitudeDegrees>43.40453130193054676055908203125</LatitudeDegrees>
              <LongitudeDegrees>-3.96413284353911876678466796875</LongitudeDegrees>
            </Position>
            <AltitudeMeters>58.40000152587890625</AltitudeMeters>
            <DistanceMeters>NAN</DistanceMeters>
          </Trackpoint>
          <Trackpoint>
            <Time>2022-07-14T08:50:20.000Z</Time>
            <Position>
              <LatitudeDegrees>43.40453096665441989898681640625</LatitudeDegrees>
              <LongitudeDegrees>-3.9641434885561466217041015625</LongitudeDegrees>
            </Position>
            <AltitudeMeters>58.59999847412109375</AltitudeMeters>
            <DistanceMeters>NAN</DistanceMeters>
          </Trackpoint>
          <Trackpoint>
            <Time>2022-07-14T08:50:21.000Z</Time>
            <Position>
              <LatitudeDegrees>43.4045327268540859222412109375</LatitudeDegrees>
              <LongitudeDegrees>-3.96414994262158870697021484375</LongitudeDegrees>
            </Position>
            <AltitudeMeters>58.799999237060546875</AltitudeMeters>
            <DistanceMeters>NAN</DistanceMeters>
          </Trackpoint>
          <Trackpoint>
            <Time>2022-07-14T08:51:51.000Z</Time>
            <Position>
              <LatitudeDegrees>43.404529206454753875732421875</LatitudeDegrees>
              <LongitudeDegrees>-3.96427617408335208892822265625</LongitudeDegrees>
            </Position>
            <AltitudeMeters>53.59999847412109375</AltitudeMeters>
            <DistanceMeters>NAN</DistanceMeters>
          </Trackpoint>
          <Trackpoint>
            <Time>2022-07-14T08:51:53.000Z</Time>
            <Position>
              <LatitudeDegrees>43.40452375821769237518310546875</LatitudeDegrees>
              <LongitudeDegrees>-3.96432277746498584747314453125</LongitudeDegrees>
            </Position>
            <AltitudeMeters>54</AltitudeMeters>
            <DistanceMeters>NAN</DistanceMeters>
          </Trackpoint>
          <Trackpoint>
            <Time>2022-07-14T08:51:54.000Z</Time>
            <Position>
              <LatitudeDegrees>43.40452484786510467529296875</LatitudeDegrees>
              <LongitudeDegrees>-3.9643466658890247344970703125</LongitudeDegrees>
            </Position>
            <AltitudeMeters>54.200000762939453125</AltitudeMeters>
            <DistanceMeters>NAN</DistanceMeters>
          </Trackpoint>
          <Trackpoint>
            <Time>2022-07-14T08:51:57.000Z</Time>
            <Position>
              <LatitudeDegrees>43.404529206454753875732421875</LatitudeDegrees>
              <LongitudeDegrees>-3.96439335308969020843505859375</LongitudeDegrees>
            </Position>
            <AltitudeMeters>54.59999847412109375</AltitudeMeters>
            <DistanceMeters>NAN</DistanceMeters>
          </Trackpoint>
          <Trackpoint>
            <Time>2022-07-14T08:51:58.000Z</Time>
            <Position>
              <LatitudeDegrees>43.40452962554991245269775390625</LatitudeDegrees>
              <LongitudeDegrees>-3.9644100330770015716552734375</LongitudeDegrees>
            </Position>
            <AltitudeMeters>54.799999237060546875</AltitudeMeters>
            <DistanceMeters>NAN</DistanceMeters>
          </Trackpoint>
          <Trackpoint>
            <Time>2022-07-14T08:51:59.000Z</Time>
            <Position>
              <LatitudeDegrees>43.4045307151973247528076171875</LatitudeDegrees>
              <LongitudeDegrees>-3.96442872472107410430908203125</LongitudeDegrees>
            </Position>
            <AltitudeMeters>54.799999237060546875</AltitudeMeters>
            <DistanceMeters>NAN</DistanceMeters>
          </Trackpoint>
          <Trackpoint>
            <Time>2022-07-14T08:52:00.000Z</Time>
            <Position>
              <LatitudeDegrees>43.4045327268540859222412109375</LatitudeDegrees>
              <LongitudeDegrees>-3.96445068530738353729248046875</LongitudeDegrees>
            </Position>
            <AltitudeMeters>55</AltitudeMeters>
            <DistanceMeters>NAN</DistanceMeters>
          </Trackpoint>
          <Trackpoint>
            <Time>2022-07-14T08:52:06.000Z</Time>
            <Position>
              <LatitudeDegrees>43.40455560944974422454833984375</LatitudeDegrees>
              <LongitudeDegrees>-3.9645562134683132171630859375</LongitudeDegrees>
            </Position>
            <AltitudeMeters>55.59999847412109375</AltitudeMeters>
            <DistanceMeters>NAN</DistanceMeters>
          </Trackpoint>
          <Trackpoint>
            <Time>2022-07-14T08:52:07.000Z</Time>
            <Position>
              <LatitudeDegrees>43.4045602194964885711669921875</LatitudeDegrees>
              <LongitudeDegrees>-3.964572809636592864990234375</LongitudeDegrees>
            </Position>
            <AltitudeMeters>56</AltitudeMeters>
            <DistanceMeters>NAN</DistanceMeters>
          </Trackpoint>
          <Trackpoint>
            <Time>2022-07-14T08:52:08.000Z</Time>
            <Position>
              <LatitudeDegrees>43.40456231497228145599365234375</LatitudeDegrees>
              <LongitudeDegrees>-3.96459535695612430572509765625</LongitudeDegrees>
            </Position>
            <AltitudeMeters>56.200000762939453125</AltitudeMeters>
            <DistanceMeters>NAN</DistanceMeters>
          </Trackpoint>
          <Trackpoint>
            <Time>2022-07-14T08:52:13.000Z</Time>
            <Position>
              <LatitudeDegrees>43.40456482954323291778564453125</LatitudeDegrees>
              <LongitudeDegrees>-3.96469962783157825469970703125</LongitudeDegrees>
            </Position>
            <AltitudeMeters>56.799999237060546875</AltitudeMeters>
            <DistanceMeters>NAN</DistanceMeters>
          </Trackpoint>
          <Trackpoint>
            <Time>2022-07-14T08:52:15.000Z</Time>
            <Position>
              <LatitudeDegrees>43.4045796655118465423583984375</LatitudeDegrees>
              <LongitudeDegrees>-3.964731730520725250244140625</LongitudeDegrees>
            </Position>
            <AltitudeMeters>57.200000762939453125</AltitudeMeters>
            <DistanceMeters>NAN</DistanceMeters>
          </Trackpoint>
          <Trackpoint>
            <Time>2022-07-14T08:52:17.000Z</Time>
            <Position>
              <LatitudeDegrees>43.40458787977695465087890625</LatitudeDegrees>
              <LongitudeDegrees>-3.96476902998983860015869140625</LongitudeDegrees>
            </Position>
            <AltitudeMeters>57.40000152587890625</AltitudeMeters>
            <DistanceMeters>NAN</DistanceMeters>
          </Trackpoint>
          <Trackpoint>
            <Time>2022-07-14T08:52:19.000Z</Time>
            <Position>
              <LatitudeDegrees>43.4045898914337158203125</LatitudeDegrees>
              <LongitudeDegrees>-3.9648126997053623199462890625</LongitudeDegrees>
            </Position>
            <AltitudeMeters>58</AltitudeMeters>
            <DistanceMeters>NAN</DistanceMeters>
          </Trackpoint>
          <Trackpoint>
            <Time>2022-07-14T08:52:24.000Z</Time>
            <Position>
              <LatitudeDegrees>43.40461998246610164642333984375</LatitudeDegrees>
              <LongitudeDegrees>-3.9648881368339061737060546875</LongitudeDegrees>
            </Position>
            <AltitudeMeters>58.40000152587890625</AltitudeMeters>
            <DistanceMeters>NAN</DistanceMeters>
          </Trackpoint>
          <Trackpoint>
            <Time>2022-07-14T08:52:27.000Z</Time>
            <Position>
              <LatitudeDegrees>43.40462752617895603179931640625</LatitudeDegrees>
              <LongitudeDegrees>-3.964938931167125701904296875</LongitudeDegrees>
            </Position>
            <AltitudeMeters>59</AltitudeMeters>
            <DistanceMeters>NAN</DistanceMeters>
          </Trackpoint>
          <Trackpoint>
            <Time>2022-07-14T08:52:29.000Z</Time>
            <Position>
              <LatitudeDegrees>43.40463423170149326324462890625</LatitudeDegrees>
              <LongitudeDegrees>-3.9649682678282260894775390625</LongitudeDegrees>
            </Position>
            <AltitudeMeters>59.200000762939453125</AltitudeMeters>
            <DistanceMeters>NAN</DistanceMeters>
          </Trackpoint>
          <Trackpoint>
            <Time>2022-07-14T08:52:31.000Z</Time>
            <Position>
              <LatitudeDegrees>43.404635488986968994140625</LatitudeDegrees>
              <LongitudeDegrees>-3.9649955928325653076171875</LongitudeDegrees>
            </Position>
            <AltitudeMeters>59.40000152587890625</AltitudeMeters>
            <DistanceMeters>NAN</DistanceMeters>
          </Trackpoint>
          <Trackpoint>
            <Time>2022-07-14T08:52:33.000Z</Time>
            <Position>
              <LatitudeDegrees>43.40463138185441493988037109375</LatitudeDegrees>
              <LongitudeDegrees>-3.96502316929399967193603515625</LongitudeDegrees>
            </Position>
            <AltitudeMeters>59.59999847412109375</AltitudeMeters>
            <DistanceMeters>NAN</DistanceMeters>
          </Trackpoint>
          <Trackpoint>
            <Time>2022-07-14T08:52:36.000Z</Time>
            <Position>
              <LatitudeDegrees>43.4046403504908084869384765625</LatitudeDegrees>
              <LongitudeDegrees>-3.965063653886318206787109375</LongitudeDegrees>
            </Position>
            <AltitudeMeters>60</AltitudeMeters>
            <DistanceMeters>NAN</DistanceMeters>
          </Trackpoint>
          <Trackpoint>
            <Time>2022-07-14T08:52:37.000Z</Time>
            <Position>
              <LatitudeDegrees>43.40464496053755283355712890625</LatitudeDegrees>
              <LongitudeDegrees>-3.96508184261620044708251953125</LongitudeDegrees>
            </Position>
            <AltitudeMeters>60.200000762939453125</AltitudeMeters>
            <DistanceMeters>NAN</DistanceMeters>
          </Trackpoint>
          <Trackpoint>
            <Time>2022-07-14T08:52:40.000Z</Time>
            <Position>
              <LatitudeDegrees>43.40464177541434764862060546875</LatitudeDegrees>
              <LongitudeDegrees>-3.965129368007183074951171875</LongitudeDegrees>
            </Position>
            <AltitudeMeters>60.40000152587890625</AltitudeMeters>
            <DistanceMeters>NAN</DistanceMeters>
          </Trackpoint>
          <Trackpoint>
            <Time>2022-07-14T08:52:41.000Z</Time>
            <Position>
              <LatitudeDegrees>43.40464361943304538726806640625</LatitudeDegrees>
              <LongitudeDegrees>-3.96514554508030414581298828125</LongitudeDegrees>
            </Position>
            <AltitudeMeters>60.59999847412109375</AltitudeMeters>
            <DistanceMeters>NAN</DistanceMeters>
          </Trackpoint>
          <Trackpoint>
            <Time>2022-07-14T08:52:45.000Z</Time>
            <Position>
              <LatitudeDegrees>43.40465627610683441162109375</LatitudeDegrees>
              <LongitudeDegrees>-3.96521075628697872161865234375</LongitudeDegrees>
            </Position>
            <AltitudeMeters>61</AltitudeMeters>
            <DistanceMeters>NAN</DistanceMeters>
          </Trackpoint>
          <Trackpoint>
            <Time>2022-07-14T08:52:46.000Z</Time>
            <Position>
              <LatitudeDegrees>43.4046608023345470428466796875</LatitudeDegrees>
              <LongitudeDegrees>-3.96522986702620983123779296875</LongitudeDegrees>
            </Position>
            <AltitudeMeters>61</AltitudeMeters>
            <DistanceMeters>NAN</DistanceMeters>
          </Trackpoint>
          <Trackpoint>
            <Time>2022-07-14T08:52:53.000Z</Time>
            <Position>
              <LatitudeDegrees>43.40467639267444610595703125</LatitudeDegrees>
              <LongitudeDegrees>-3.96531653590500354766845703125</LongitudeDegrees>
            </Position>
            <AltitudeMeters>61.799999237060546875</AltitudeMeters>
            <DistanceMeters>NAN</DistanceMeters>
          </Trackpoint>
          <Trackpoint>
            <Time>2022-07-14T08:52:55.000Z</Time>
            <Position>
              <LatitudeDegrees>43.40468586422502994537353515625</LatitudeDegrees>
              <LongitudeDegrees>-3.9653508178889751434326171875</LongitudeDegrees>
            </Position>
            <AltitudeMeters>62</AltitudeMeters>
            <DistanceMeters>NAN</DistanceMeters>
          </Trackpoint>
          <Trackpoint>
            <Time>2022-07-14T08:52:57.000Z</Time>
            <Position>
              <LatitudeDegrees>43.40469072572886943817138671875</LatitudeDegrees>
              <LongitudeDegrees>-3.96538040600717067718505859375</LongitudeDegrees>
            </Position>
            <AltitudeMeters>62.200000762939453125</AltitudeMeters>
            <DistanceMeters>NAN</DistanceMeters>
          </Trackpoint>
          <Trackpoint>
            <Time>2022-07-14T08:53:02.000Z</Time>
            <Position>
              <LatitudeDegrees>43.4046926535665988922119140625</LatitudeDegrees>
              <LongitudeDegrees>-3.96545835770666599273681640625</LongitudeDegrees>
            </Position>
            <AltitudeMeters>62.799999237060546875</AltitudeMeters>
            <DistanceMeters>NAN</DistanceMeters>
          </Trackpoint>
          <Trackpoint>
            <Time>2022-07-14T08:53:05.000Z</Time>
            <Position>
              <LatitudeDegrees>43.40469810180366039276123046875</LatitudeDegrees>
              <LongitudeDegrees>-3.96551468409597873687744140625</LongitudeDegrees>
            </Position>
            <AltitudeMeters>62.799999237060546875</AltitudeMeters>
            <DistanceMeters>NAN</DistanceMeters>
          </Trackpoint>
          <Trackpoint>
            <Time>2022-07-14T08:53:08.000Z</Time>
            <Position>
              <LatitudeDegrees>43.4047070704400539398193359375</LatitudeDegrees>
              <LongitudeDegrees>-3.96555592305958271026611328125</LongitudeDegrees>
            </Position>
            <AltitudeMeters>63.200000762939453125</AltitudeMeters>
            <DistanceMeters>NAN</DistanceMeters>
          </Trackpoint>
          <Trackpoint>
            <Time>2022-07-14T08:53:11.000Z</Time>
            <Position>
              <LatitudeDegrees>43.40471922419965267181396484375</LatitudeDegrees>
              <LongitudeDegrees>-3.96560906432569026947021484375</LongitudeDegrees>
            </Position>
            <AltitudeMeters>63.59999847412109375</AltitudeMeters>
            <DistanceMeters>NAN</DistanceMeters>
          </Trackpoint>
          <Trackpoint>
            <Time>2022-07-14T08:53:16.000Z</Time>
            <Position>
              <LatitudeDegrees>43.4047255106270313262939453125</LatitudeDegrees>
              <LongitudeDegrees>-3.96569095551967620849609375</LongitudeDegrees>
            </Position>
            <AltitudeMeters>64.1999969482421875</AltitudeMeters>
            <DistanceMeters>NAN</DistanceMeters>
          </Trackpoint>
          <Trackpoint>
            <Time>2022-07-14T08:53:18.000Z</Time>
            <Position>
              <LatitudeDegrees>43.40473406016826629638671875</LatitudeDegrees>
              <LongitudeDegrees>-3.9657216332852840423583984375</LongitudeDegrees>
            </Position>
            <AltitudeMeters>64.59999847412109375</AltitudeMeters>
            <DistanceMeters>NAN</DistanceMeters>
          </Trackpoint>
          <Trackpoint>
            <Time>2022-07-14T08:53:24.000Z</Time>
            <Position>
              <LatitudeDegrees>43.40475417673587799072265625</LatitudeDegrees>
              <LongitudeDegrees>-3.96580763161182403564453125</LongitudeDegrees>
            </Position>
            <AltitudeMeters>65.40000152587890625</AltitudeMeters>
            <DistanceMeters>NAN</DistanceMeters>
          </Trackpoint>
          <Trackpoint>
            <Time>2022-07-14T08:53:26.000Z</Time>
            <Position>
              <LatitudeDegrees>43.40476666577160358428955078125</LatitudeDegrees>
              <LongitudeDegrees>-3.965841494500637054443359375</LongitudeDegrees>
            </Position>
            <AltitudeMeters>65.59999847412109375</AltitudeMeters>
            <DistanceMeters>NAN</DistanceMeters>
          </Trackpoint>
          <Trackpoint>
            <Time>2022-07-14T08:53:27.000Z</Time>
            <Position>
              <LatitudeDegrees>43.404771275818347930908203125</LatitudeDegrees>
              <LongitudeDegrees>-3.96585666574537754058837890625</LongitudeDegrees>
            </Position>
            <AltitudeMeters>65.8000030517578125</AltitudeMeters>
            <DistanceMeters>NAN</DistanceMeters>
          </Trackpoint>
          <Trackpoint>
            <Time>2022-07-14T08:53:29.000Z</Time>
            <Position>
              <LatitudeDegrees>43.4047761373221874237060546875</LatitudeDegrees>
              <LongitudeDegrees>-3.96589036099612712860107421875</LongitudeDegrees>
            </Position>
            <AltitudeMeters>66.1999969482421875</AltitudeMeters>
            <DistanceMeters>NAN</DistanceMeters>
          </Trackpoint>
          <Trackpoint>
            <Time>2022-07-14T08:53:31.000Z</Time>
            <Position>
              <LatitudeDegrees>43.40477219782769680023193359375</LatitudeDegrees>
              <LongitudeDegrees>-3.9659214578568935394287109375</LongitudeDegrees>
            </Position>
            <AltitudeMeters>66.40000152587890625</AltitudeMeters>
            <DistanceMeters>NAN</DistanceMeters>
          </Trackpoint>
          <Trackpoint>
            <Time>2022-07-14T08:53:32.000Z</Time>
            <Position>
              <LatitudeDegrees>43.4047707729041576385498046875</LatitudeDegrees>
              <LongitudeDegrees>-3.96593637764453887939453125</LongitudeDegrees>
            </Position>
            <AltitudeMeters>66.40000152587890625</AltitudeMeters>
            <DistanceMeters>NAN</DistanceMeters>
          </Trackpoint>
          <Trackpoint>
            <Time>2022-07-14T08:53:33.000Z</Time>
            <Position>
              <LatitudeDegrees>43.4047714434564113616943359375</LatitudeDegrees>
              <LongitudeDegrees>-3.965949118137359619140625</LongitudeDegrees>
            </Position>
            <AltitudeMeters>66.59999847412109375</AltitudeMeters>
            <DistanceMeters>NAN</DistanceMeters>
          </Trackpoint>
          <Trackpoint>
            <Time>2022-07-14T08:53:35.000Z</Time>
            <Position>
              <LatitudeDegrees>43.40477018617093563079833984375</LatitudeDegrees>
              <LongitudeDegrees>-3.9659734256565570831298828125</LongitudeDegrees>
            </Position>
            <AltitudeMeters>66.8000030517578125</AltitudeMeters>
            <DistanceMeters>NAN</DistanceMeters>
          </Trackpoint>
          <Trackpoint>
            <Time>2022-07-14T08:53:39.000Z</Time>
            <Position>
              <LatitudeDegrees>43.40477622114121913909912109375</LatitudeDegrees>
              <LongitudeDegrees>-3.96603838540613651275634765625</LongitudeDegrees>
            </Position>
            <AltitudeMeters>67.1999969482421875</AltitudeMeters>
            <DistanceMeters>NAN</DistanceMeters>
          </Trackpoint>
          <Trackpoint>
            <Time>2022-07-14T08:53:41.000Z</Time>
            <Position>
              <LatitudeDegrees>43.4047791548073291778564453125</LatitudeDegrees>
              <LongitudeDegrees>-3.96606336347758769989013671875</LongitudeDegrees>
            </Position>
            <AltitudeMeters>67.40000152587890625</AltitudeMeters>
            <DistanceMeters>NAN</DistanceMeters>
          </Trackpoint>
          <Trackpoint>
            <Time>2022-07-14T08:53:48.000Z</Time>
            <Position>
              <LatitudeDegrees>43.404794074594974517822265625</LatitudeDegrees>
              <LongitudeDegrees>-3.966185152530670166015625</LongitudeDegrees>
            </Position>
            <AltitudeMeters>68.1999969482421875</AltitudeMeters>
            <DistanceMeters>NAN</DistanceMeters>
          </Trackpoint>
          <Trackpoint>
            <Time>2022-07-14T08:53:51.000Z</Time>
            <Position>
              <LatitudeDegrees>43.40480136685073375701904296875</LatitudeDegrees>
              <LongitudeDegrees>-3.96624206565320491790771484375</LongitudeDegrees>
            </Position>
            <AltitudeMeters>68.40000152587890625</AltitudeMeters>
            <DistanceMeters>NAN</DistanceMeters>
          </Trackpoint>
          <Trackpoint>
            <Time>2022-07-14T08:53:55.000Z</Time>
            <Position>
              <LatitudeDegrees>43.4048153646290302276611328125</LatitudeDegrees>
              <LongitudeDegrees>-3.9663050137460231781005859375</LongitudeDegrees>
            </Position>
            <AltitudeMeters>69</AltitudeMeters>
            <DistanceMeters>NAN</DistanceMeters>
          </Trackpoint>
          <Trackpoint>
            <Time>2022-07-14T08:54:00.000Z</Time>
            <Position>
              <LatitudeDegrees>43.4048177115619182586669921875</LatitudeDegrees>
              <LongitudeDegrees>-3.9663898386061191558837890625</LongitudeDegrees>
            </Position>
            <AltitudeMeters>69.59999847412109375</AltitudeMeters>
            <DistanceMeters>NAN</DistanceMeters>
          </Trackpoint>
          <Trackpoint>
            <Time>2022-07-14T08:54:02.000Z</Time>
            <Position>
              <LatitudeDegrees>43.40481645427644252777099609375</LatitudeDegrees>
              <LongitudeDegrees>-3.9664196781814098358154296875</LongitudeDegrees>
            </Position>
            <AltitudeMeters>69.8000030517578125</AltitudeMeters>
            <DistanceMeters>NAN</DistanceMeters>
          </Trackpoint>
          <Trackpoint>
            <Time>2022-07-14T08:54:04.000Z</Time>
            <Position>
              <LatitudeDegrees>43.40481712482869625091552734375</LatitudeDegrees>
              <LongitudeDegrees>-3.9664565585553646087646484375</LongitudeDegrees>
            </Position>
            <AltitudeMeters>70</AltitudeMeters>
            <DistanceMeters>NAN</DistanceMeters>
          </Trackpoint>
          <Trackpoint>
            <Time>2022-07-14T08:54:08.000Z</Time>
            <Position>
              <LatitudeDegrees>43.40483372099697589874267578125</LatitudeDegrees>
              <LongitudeDegrees>-3.9665303193032741546630859375</LongitudeDegrees>
            </Position>
            <AltitudeMeters>70.59999847412109375</AltitudeMeters>
            <DistanceMeters>NAN</DistanceMeters>
          </Trackpoint>
          <Trackpoint>
            <Time>2022-07-14T08:54:09.000Z</Time>
            <Position>
              <LatitudeDegrees>43.4048388339579105377197265625</LatitudeDegrees>
              <LongitudeDegrees>-3.966548256576061248779296875</LongitudeDegrees>
            </Position>
            <AltitudeMeters>70.59999847412109375</AltitudeMeters>
            <DistanceMeters>NAN</DistanceMeters>
          </Trackpoint>
          <Trackpoint>
            <Time>2022-07-14T08:54:15.000Z</Time>
            <Position>
              <LatitudeDegrees>43.4048498980700969696044921875</LatitudeDegrees>
              <LongitudeDegrees>-3.96665546111762523651123046875</LongitudeDegrees>
            </Position>
            <AltitudeMeters>71.40000152587890625</AltitudeMeters>
            <DistanceMeters>NAN</DistanceMeters>
          </Trackpoint>
          <Trackpoint>
            <Time>2022-07-14T08:54:17.000Z</Time>
            <Position>
              <LatitudeDegrees>43.4048485569655895233154296875</LatitudeDegrees>
              <LongitudeDegrees>-3.966668285429477691650390625</LongitudeDegrees>
            </Position>
            <AltitudeMeters>71.59999847412109375</AltitudeMeters>
            <DistanceMeters>NAN</DistanceMeters>
          </Trackpoint>
          <Trackpoint>
            <Time>2022-07-14T08:54:19.000Z</Time>
            <Position>
              <LatitudeDegrees>43.4048472158610820770263671875</LatitudeDegrees>
              <LongitudeDegrees>-3.96669141948223114013671875</LongitudeDegrees>
            </Position>
            <AltitudeMeters>71.8000030517578125</AltitudeMeters>
            <DistanceMeters>NAN</DistanceMeters>
          </Trackpoint>
          <Trackpoint>
            <Time>2022-07-14T08:54:22.000Z</Time>
            <Position>
              <LatitudeDegrees>43.404852412641048431396484375</LatitudeDegrees>
              <LongitudeDegrees>-3.96673475392162799835205078125</LongitudeDegrees>
            </Position>
            <AltitudeMeters>72.1999969482421875</AltitudeMeters>
            <DistanceMeters>NAN</DistanceMeters>
          </Trackpoint>
          <Trackpoint>
            <Time>2022-07-14T08:54:30.000Z</Time>
            <Position>
              <LatitudeDegrees>43.40490438044071197509765625</LatitudeDegrees>
              <LongitudeDegrees>-3.96689702756702899932861328125</LongitudeDegrees>
            </Position>
            <AltitudeMeters>72.8000030517578125</AltitudeMeters>
            <DistanceMeters>NAN</DistanceMeters>
          </Trackpoint>
          <Trackpoint>
            <Time>2022-07-14T08:54:37.000Z</Time>
            <Position>
              <LatitudeDegrees>43.40493916533887386322021484375</LatitudeDegrees>
              <LongitudeDegrees>-3.96702376194298267364501953125</LongitudeDegrees>
            </Position>
            <AltitudeMeters>73.1999969482421875</AltitudeMeters>
            <DistanceMeters>NAN</DistanceMeters>
          </Trackpoint>
          <Trackpoint>
            <Time>2022-07-14T08:54:38.000Z</Time>
            <Position>
              <LatitudeDegrees>43.40494235046207904815673828125</LatitudeDegrees>
              <LongitudeDegrees>-3.9670432917773723602294921875</LongitudeDegrees>
            </Position>
            <AltitudeMeters>73.40000152587890625</AltitudeMeters>
            <DistanceMeters>NAN</DistanceMeters>
          </Trackpoint>
          <Trackpoint>
            <Time>2022-07-14T08:54:44.000Z</Time>
            <Position>
              <LatitudeDegrees>43.40496984310448169708251953125</LatitudeDegrees>
              <LongitudeDegrees>-3.96715812385082244873046875</LongitudeDegrees>
            </Position>
            <AltitudeMeters>73.8000030517578125</AltitudeMeters>
            <DistanceMeters>NAN</DistanceMeters>
          </Trackpoint>
          <Trackpoint>
            <Time>2022-07-14T08:54:47.000Z</Time>
            <Position>
              <LatitudeDegrees>43.4049933962523937225341796875</LatitudeDegrees>
              <LongitudeDegrees>-3.9672370813786983489990234375</LongitudeDegrees>
            </Position>
            <AltitudeMeters>73.8000030517578125</AltitudeMeters>
            <DistanceMeters>NAN</DistanceMeters>
          </Trackpoint>
          <Trackpoint>
            <Time>2022-07-14T08:54:54.000Z</Time>
            <Position>
              <LatitudeDegrees>43.40503404848277568817138671875</LatitudeDegrees>
              <LongitudeDegrees>-3.96739474497735500335693359375</LongitudeDegrees>
            </Position>
            <AltitudeMeters>74.1999969482421875</AltitudeMeters>
            <DistanceMeters>NAN</DistanceMeters>
          </Trackpoint>
          <Trackpoint>
            <Time>2022-07-14T08:55:00.000Z</Time>
            <Position>
              <LatitudeDegrees>43.405072689056396484375</LatitudeDegrees>
              <LongitudeDegrees>-3.967537321150302886962890625</LongitudeDegrees>
            </Position>
            <AltitudeMeters>74.40000152587890625</AltitudeMeters>
            <DistanceMeters>NAN</DistanceMeters>
          </Trackpoint>
          <Trackpoint>
            <Time>2022-07-14T08:55:01.000Z</Time>
            <Position>
              <LatitudeDegrees>43.40507796965539455413818359375</LatitudeDegrees>
              <LongitudeDegrees>-3.9675606228411197662353515625</LongitudeDegrees>
            </Position>
            <AltitudeMeters>74.40000152587890625</AltitudeMeters>
            <DistanceMeters>NAN</DistanceMeters>
          </Trackpoint>
          <Trackpoint>
            <Time>2022-07-14T08:55:07.000Z</Time>
            <Position>
              <LatitudeDegrees>43.4051134251058101654052734375</LatitudeDegrees>
              <LongitudeDegrees>-3.9677138440310955047607421875</LongitudeDegrees>
            </Position>
            <AltitudeMeters>74.8000030517578125</AltitudeMeters>
            <DistanceMeters>NAN</DistanceMeters>
          </Trackpoint>
          <Trackpoint>
            <Time>2022-07-14T08:55:08.000Z</Time>
            <Position>
              <LatitudeDegrees>43.40512256138026714324951171875</LatitudeDegrees>
              <LongitudeDegrees>-3.967744521796703338623046875</LongitudeDegrees>
            </Position>
            <AltitudeMeters>74.8000030517578125</AltitudeMeters>
            <DistanceMeters>NAN</DistanceMeters>
          </Trackpoint>
          <Trackpoint>
            <Time>2022-07-14T08:55:10.000Z</Time>
            <Position>
              <LatitudeDegrees>43.40513999573886394500732421875</LatitudeDegrees>
              <LongitudeDegrees>-3.96781526505947113037109375</LongitudeDegrees>
            </Position>
            <AltitudeMeters>74.8000030517578125</AltitudeMeters>
            <DistanceMeters>NAN</DistanceMeters>
          </Trackpoint>
          <Trackpoint>
            <Time>2022-07-14T08:55:15.000Z</Time>
            <Position>
              <LatitudeDegrees>43.40516715310513973236083984375</LatitudeDegrees>
              <LongitudeDegrees>-3.9679743535816669464111328125</LongitudeDegrees>
            </Position>
            <AltitudeMeters>74.8000030517578125</AltitudeMeters>
            <DistanceMeters>NAN</DistanceMeters>
          </Trackpoint>
          <Trackpoint>
            <Time>2022-07-14T08:55:19.000Z</Time>
            <Position>
              <LatitudeDegrees>43.405187688767910003662109375</LatitudeDegrees>
              <LongitudeDegrees>-3.96812430582940578460693359375</LongitudeDegrees>
            </Position>
            <AltitudeMeters>75</AltitudeMeters>
            <DistanceMeters>NAN</DistanceMeters>
          </Trackpoint>
          <Trackpoint>
            <Time>2022-07-14T08:55:23.000Z</Time>
            <Position>
              <LatitudeDegrees>43.40520202182233333587646484375</LatitudeDegrees>
              <LongitudeDegrees>-3.9682489447295665740966796875</LongitudeDegrees>
            </Position>
            <AltitudeMeters>75.1999969482421875</AltitudeMeters>
            <DistanceMeters>NAN</DistanceMeters>
          </Trackpoint>
          <Trackpoint>
            <Time>2022-07-14T08:55:24.000Z</Time>
            <Position>
              <LatitudeDegrees>43.40519917197525501251220703125</LatitudeDegrees>
              <LongitudeDegrees>-3.96826746873557567596435546875</LongitudeDegrees>
            </Position>
            <AltitudeMeters>75.40000152587890625</AltitudeMeters>
            <DistanceMeters>NAN</DistanceMeters>
          </Trackpoint>
          <Trackpoint>
            <Time>2022-07-14T08:55:27.000Z</Time>
            <Position>
              <LatitudeDegrees>43.4051813185214996337890625</LatitudeDegrees>
              <LongitudeDegrees>-3.96833988837897777557373046875</LongitudeDegrees>
            </Position>
            <AltitudeMeters>75.8000030517578125</AltitudeMeters>
            <DistanceMeters>NAN</DistanceMeters>
          </Trackpoint>
          <Trackpoint>
            <Time>2022-07-14T08:55:28.000Z</Time>
            <Position>
              <LatitudeDegrees>43.40518559329211711883544921875</LatitudeDegrees>
              <LongitudeDegrees>-3.968367464840412139892578125</LongitudeDegrees>
            </Position>
            <AltitudeMeters>75.8000030517578125</AltitudeMeters>
            <DistanceMeters>NAN</DistanceMeters>
          </Trackpoint>
          <Trackpoint>
            <Time>2022-07-14T08:55:29.000Z</Time>
            <Position>
              <LatitudeDegrees>43.4051945619285106658935546875</LatitudeDegrees>
              <LongitudeDegrees>-3.9683810435235500335693359375</LongitudeDegrees>
            </Position>
            <AltitudeMeters>76.1999969482421875</AltitudeMeters>
            <DistanceMeters>NAN</DistanceMeters>
          </Trackpoint>
          <Trackpoint>
            <Time>2022-07-14T08:55:34.000Z</Time>
            <Position>
              <LatitudeDegrees>43.40527259744703769683837890625</LatitudeDegrees>
              <LongitudeDegrees>-3.96842337213456630706787109375</LongitudeDegrees>
            </Position>
            <AltitudeMeters>76.8000030517578125</AltitudeMeters>
            <DistanceMeters>NAN</DistanceMeters>
          </Trackpoint>
          <Trackpoint>
            <Time>2022-07-14T08:55:35.000Z</Time>
            <Position>
              <LatitudeDegrees>43.40528952889144420623779296875</LatitudeDegrees>
              <LongitudeDegrees>-3.968423120677471160888671875</LongitudeDegrees>
            </Position>
            <AltitudeMeters>77</AltitudeMeters>
            <DistanceMeters>NAN</DistanceMeters>
          </Trackpoint>
          <Trackpoint>
            <Time>2022-07-14T08:55:39.000Z</Time>
            <Position>
              <LatitudeDegrees>43.40536546893417835235595703125</LatitudeDegrees>
              <LongitudeDegrees>-3.9684185944497585296630859375</LongitudeDegrees>
            </Position>
            <AltitudeMeters>77</AltitudeMeters>
            <DistanceMeters>NAN</DistanceMeters>
          </Trackpoint>
          <Trackpoint>
            <Time>2022-07-14T08:55:42.000Z</Time>
            <Position>
              <LatitudeDegrees>43.40542397461831569671630859375</LatitudeDegrees>
              <LongitudeDegrees>-3.968379199504852294921875</LongitudeDegrees>
            </Position>
            <AltitudeMeters>77.1999969482421875</AltitudeMeters>
            <DistanceMeters>NAN</DistanceMeters>
          </Trackpoint>
          <Trackpoint>
            <Time>2022-07-14T08:55:44.000Z</Time>
            <Position>
              <LatitudeDegrees>43.4054557420313358306884765625</LatitudeDegrees>
              <LongitudeDegrees>-3.96836369298398494720458984375</LongitudeDegrees>
            </Position>
            <AltitudeMeters>77.40000152587890625</AltitudeMeters>
            <DistanceMeters>NAN</DistanceMeters>
          </Trackpoint>
          <Trackpoint>
            <Time>2022-07-14T08:55:48.000Z</Time>
            <Position>
              <LatitudeDegrees>43.40553662739694118499755859375</LatitudeDegrees>
              <LongitudeDegrees>-3.9683793671429157257080078125</LongitudeDegrees>
            </Position>
            <AltitudeMeters>77.59999847412109375</AltitudeMeters>
            <DistanceMeters>NAN</DistanceMeters>
          </Trackpoint>
          <Trackpoint>
            <Time>2022-07-14T08:55:56.000Z</Time>
            <Position>
              <LatitudeDegrees>43.40563251636922359466552734375</LatitudeDegrees>
              <LongitudeDegrees>-3.96843745373189449310302734375</LongitudeDegrees>
            </Position>
            <AltitudeMeters>78</AltitudeMeters>
            <DistanceMeters>NAN</DistanceMeters>
          </Trackpoint>
          <Trackpoint>
            <Time>2022-07-14T08:56:00.000Z</Time>
            <Position>
              <LatitudeDegrees>43.405652381479740142822265625</LatitudeDegrees>
              <LongitudeDegrees>-3.9684985578060150146484375</LongitudeDegrees>
            </Position>
            <AltitudeMeters>78.1999969482421875</AltitudeMeters>
            <DistanceMeters>NAN</DistanceMeters>
          </Trackpoint>
          <Trackpoint>
            <Time>2022-07-14T08:56:02.000Z</Time>
            <Position>
              <LatitudeDegrees>43.405638299882411956787109375</LatitudeDegrees>
              <LongitudeDegrees>-3.9685459993779659271240234375</LongitudeDegrees>
            </Position>
            <AltitudeMeters>78.40000152587890625</AltitudeMeters>
            <DistanceMeters>NAN</DistanceMeters>
          </Trackpoint>
          <Trackpoint>
            <Time>2022-07-14T08:56:08.000Z</Time>
            <Position>
              <LatitudeDegrees>43.40558021329343318939208984375</LatitudeDegrees>
              <LongitudeDegrees>-3.9687448181211948394775390625</LongitudeDegrees>
            </Position>
            <AltitudeMeters>78.1999969482421875</AltitudeMeters>
            <DistanceMeters>NAN</DistanceMeters>
          </Trackpoint>
          <Trackpoint>
            <Time>2022-07-14T08:56:13.000Z</Time>
            <Position>
              <LatitudeDegrees>43.40548214502632617950439453125</LatitudeDegrees>
              <LongitudeDegrees>-3.96894271485507488250732421875</LongitudeDegrees>
            </Position>
            <AltitudeMeters>78.1999969482421875</AltitudeMeters>
            <DistanceMeters>NAN</DistanceMeters>
          </Trackpoint>
          <Trackpoint>
            <Time>2022-07-14T08:56:21.000Z</Time>
            <Position>
              <LatitudeDegrees>43.4053363837301731109619140625</LatitudeDegrees>
              <LongitudeDegrees>-3.96930062212049961090087890625</LongitudeDegrees>
            </Position>
            <AltitudeMeters>78</AltitudeMeters>
            <DistanceMeters>NAN</DistanceMeters>
          </Trackpoint>
          <Trackpoint>
            <Time>2022-07-14T08:56:22.000Z</Time>
            <Position>
              <LatitudeDegrees>43.40531836263835430145263671875</LatitudeDegrees>
              <LongitudeDegrees>-3.969343118369579315185546875</LongitudeDegrees>
            </Position>
            <AltitudeMeters>77.8000030517578125</AltitudeMeters>
            <DistanceMeters>NAN</DistanceMeters>
          </Trackpoint>
          <Trackpoint>
            <Time>2022-07-14T08:56:30.000Z</Time>
            <Position>
              <LatitudeDegrees>43.40515910647809505462646484375</LatitudeDegrees>
              <LongitudeDegrees>-3.96965098567306995391845703125</LongitudeDegrees>
            </Position>
            <AltitudeMeters>77.59999847412109375</AltitudeMeters>
            <DistanceMeters>NAN</DistanceMeters>
          </Trackpoint>
          <Trackpoint>
            <Time>2022-07-14T08:56:37.000Z</Time>
            <Position>
              <LatitudeDegrees>43.40500236488878726959228515625</LatitudeDegrees>
              <LongitudeDegrees>-3.96991669200360774993896484375</LongitudeDegrees>
            </Position>
            <AltitudeMeters>77.1999969482421875</AltitudeMeters>
            <DistanceMeters>NAN</DistanceMeters>
          </Trackpoint>
          <Trackpoint>
            <Time>2022-07-14T08:56:39.000Z</Time>
            <Position>
              <LatitudeDegrees>43.404957689344882965087890625</LatitudeDegrees>
              <LongitudeDegrees>-3.9699910394847393035888671875</LongitudeDegrees>
            </Position>
            <AltitudeMeters>77.1999969482421875</AltitudeMeters>
            <DistanceMeters>NAN</DistanceMeters>
          </Trackpoint>
          <Trackpoint>
            <Time>2022-07-14T08:56:41.000Z</Time>
            <Position>
              <LatitudeDegrees>43.40491435490548610687255859375</LatitudeDegrees>
              <LongitudeDegrees>-3.97006840445101261138916015625</LongitudeDegrees>
            </Position>
            <AltitudeMeters>77.1999969482421875</AltitudeMeters>
            <DistanceMeters>NAN</DistanceMeters>
          </Trackpoint>
          <Trackpoint>
            <Time>2022-07-14T08:56:49.000Z</Time>
            <Position>
              <LatitudeDegrees>43.4047181345522403717041015625</LatitudeDegrees>
              <LongitudeDegrees>-3.9703350327908992767333984375</LongitudeDegrees>
            </Position>
            <AltitudeMeters>77.1999969482421875</AltitudeMeters>
            <DistanceMeters>NAN</DistanceMeters>
          </Trackpoint>
          <Trackpoint>
            <Time>2022-07-14T08:56:51.000Z</Time>
            <Position>
              <LatitudeDegrees>43.40466298162937164306640625</LatitudeDegrees>
              <LongitudeDegrees>-3.9703881740570068359375</LongitudeDegrees>
            </Position>
            <AltitudeMeters>77.1999969482421875</AltitudeMeters>
            <DistanceMeters>NAN</DistanceMeters>
          </Trackpoint>
          <Trackpoint>
            <Time>2022-07-14T08:56:56.000Z</Time>
            <Position>
              <LatitudeDegrees>43.40453783981502056121826171875</LatitudeDegrees>
              <LongitudeDegrees>-3.97046620957553386688232421875</LongitudeDegrees>
            </Position>
            <AltitudeMeters>77</AltitudeMeters>
            <DistanceMeters>NAN</DistanceMeters>
          </Trackpoint>
          <Trackpoint>
            <Time>2022-07-14T08:57:04.000Z</Time>
            <Position>
              <LatitudeDegrees>43.40432343073189258575439453125</LatitudeDegrees>
              <LongitudeDegrees>-3.97055673412978649139404296875</LongitudeDegrees>
            </Position>
            <AltitudeMeters>77.1999969482421875</AltitudeMeters>
            <DistanceMeters>NAN</DistanceMeters>
          </Trackpoint>
          <Trackpoint>
            <Time>2022-07-14T08:57:10.000Z</Time>
            <Position>
              <LatitudeDegrees>43.4042011387646198272705078125</LatitudeDegrees>
              <LongitudeDegrees>-3.97064759396016597747802734375</LongitudeDegrees>
            </Position>
            <AltitudeMeters>77.59999847412109375</AltitudeMeters>
            <DistanceMeters>NAN</DistanceMeters>
          </Trackpoint>
          <Trackpoint>
            <Time>2022-07-14T08:57:12.000Z</Time>
            <Position>
              <LatitudeDegrees>43.40415294282138347625732421875</LatitudeDegrees>
              <LongitudeDegrees>-3.97069067694246768951416015625</LongitudeDegrees>
            </Position>
            <AltitudeMeters>77.59999847412109375</AltitudeMeters>
            <DistanceMeters>NAN</DistanceMeters>
          </Trackpoint>
          <Trackpoint>
            <Time>2022-07-14T08:57:16.000Z</Time>
            <Position>
              <LatitudeDegrees>43.40404280461370944976806640625</LatitudeDegrees>
              <LongitudeDegrees>-3.97086384706199169158935546875</LongitudeDegrees>
            </Position>
            <AltitudeMeters>77.1999969482421875</AltitudeMeters>
            <DistanceMeters>NAN</DistanceMeters>
          </Trackpoint>
          <Trackpoint>
            <Time>2022-07-14T08:57:19.000Z</Time>
            <Position>
              <LatitudeDegrees>43.4039533697068691253662109375</LatitudeDegrees>
              <LongitudeDegrees>-3.97107339464128017425537109375</LongitudeDegrees>
            </Position>
            <AltitudeMeters>76</AltitudeMeters>
            <DistanceMeters>NAN</DistanceMeters>
          </Trackpoint>
          <Trackpoint>
            <Time>2022-07-14T08:57:20.000Z</Time>
            <Position>
              <LatitudeDegrees>43.40392596088349819183349609375</LatitudeDegrees>
              <LongitudeDegrees>-3.97115922532975673675537109375</LongitudeDegrees>
            </Position>
            <AltitudeMeters>75.59999847412109375</AltitudeMeters>
            <DistanceMeters>NAN</DistanceMeters>
          </Trackpoint>
          <Trackpoint>
            <Time>2022-07-14T08:57:21.000Z</Time>
            <Position>
              <LatitudeDegrees>43.4039037488400936126708984375</LatitudeDegrees>
              <LongitudeDegrees>-3.97124824114143848419189453125</LongitudeDegrees>
            </Position>
            <AltitudeMeters>75</AltitudeMeters>
            <DistanceMeters>NAN</DistanceMeters>
          </Trackpoint>
          <Trackpoint>
            <Time>2022-07-14T08:57:24.000Z</Time>
            <Position>
              <LatitudeDegrees>43.4038782678544521331787109375</LatitudeDegrees>
              <LongitudeDegrees>-3.97153255529701709747314453125</LongitudeDegrees>
            </Position>
            <AltitudeMeters>74.1999969482421875</AltitudeMeters>
            <DistanceMeters>NAN</DistanceMeters>
          </Trackpoint>
          <Trackpoint>
            <Time>2022-07-14T08:57:25.000Z</Time>
            <Position>
              <LatitudeDegrees>43.40387734584510326385498046875</LatitudeDegrees>
              <LongitudeDegrees>-3.9716348983347415924072265625</LongitudeDegrees>
            </Position>
            <AltitudeMeters>73.59999847412109375</AltitudeMeters>
            <DistanceMeters>NAN</DistanceMeters>
          </Trackpoint>
          <Trackpoint>
            <Time>2022-07-14T08:57:28.000Z</Time>
            <Position>
              <LatitudeDegrees>43.40389159508049488067626953125</LatitudeDegrees>
              <LongitudeDegrees>-3.971960954368114471435546875</LongitudeDegrees>
            </Position>
            <AltitudeMeters>72.40000152587890625</AltitudeMeters>
            <DistanceMeters>NAN</DistanceMeters>
          </Trackpoint>
          <Trackpoint>
            <Time>2022-07-14T08:57:29.000Z</Time>
            <Position>
              <LatitudeDegrees>43.40390391647815704345703125</LatitudeDegrees>
              <LongitudeDegrees>-3.972075618803501129150390625</LongitudeDegrees>
            </Position>
            <AltitudeMeters>71.8000030517578125</AltitudeMeters>
            <DistanceMeters>NAN</DistanceMeters>
          </Trackpoint>
          <Trackpoint>
            <Time>2022-07-14T08:57:30.000Z</Time>
            <Position>
              <LatitudeDegrees>43.403922021389007568359375</LatitudeDegrees>
              <LongitudeDegrees>-3.972189612686634063720703125</LongitudeDegrees>
            </Position>
            <AltitudeMeters>71</AltitudeMeters>
            <DistanceMeters>NAN</DistanceMeters>
          </Trackpoint>
          <Trackpoint>
            <Time>2022-07-14T08:57:33.000Z</Time>
            <Position>
              <LatitudeDegrees>43.403989411890506744384765625</LatitudeDegrees>
              <LongitudeDegrees>-3.972552381455898284912109375</LongitudeDegrees>
            </Position>
            <AltitudeMeters>69.8000030517578125</AltitudeMeters>
            <DistanceMeters>NAN</DistanceMeters>
          </Trackpoint>
          <Trackpoint>
            <Time>2022-07-14T08:57:34.000Z</Time>
            <Position>
              <LatitudeDegrees>43.404005505144596099853515625</LatitudeDegrees>
              <LongitudeDegrees>-3.9726769365370273590087890625</LongitudeDegrees>
            </Position>
            <AltitudeMeters>69.1999969482421875</AltitudeMeters>
            <DistanceMeters>NAN</DistanceMeters>
          </Trackpoint>
          <Trackpoint>
            <Time>2022-07-14T08:57:35.000Z</Time>
            <Position>
              <LatitudeDegrees>43.40401447378098964691162109375</LatitudeDegrees>
              <LongitudeDegrees>-3.97280015051364898681640625</LongitudeDegrees>
            </Position>
            <AltitudeMeters>68.59999847412109375</AltitudeMeters>
            <DistanceMeters>NAN</DistanceMeters>
          </Trackpoint>
          <Trackpoint>
            <Time>2022-07-14T08:57:37.000Z</Time>
            <Position>
              <LatitudeDegrees>43.404015563428401947021484375</LatitudeDegrees>
              <LongitudeDegrees>-3.97304448299109935760498046875</LongitudeDegrees>
            </Position>
            <AltitudeMeters>67.8000030517578125</AltitudeMeters>
            <DistanceMeters>NAN</DistanceMeters>
          </Trackpoint>
          <Trackpoint>
            <Time>2022-07-14T08:57:38.000Z</Time>
            <Position>
              <LatitudeDegrees>43.40400760062038898468017578125</LatitudeDegrees>
              <LongitudeDegrees>-3.9731637574732303619384765625</LongitudeDegrees>
            </Position>
            <AltitudeMeters>67.59999847412109375</AltitudeMeters>
            <DistanceMeters>NAN</DistanceMeters>
          </Trackpoint>
          <Trackpoint>
            <Time>2022-07-14T08:57:39.000Z</Time>
            <Position>
              <LatitudeDegrees>43.40399234555661678314208984375</LatitudeDegrees>
              <LongitudeDegrees>-3.973278589546680450439453125</LongitudeDegrees>
            </Position>
            <AltitudeMeters>67.40000152587890625</AltitudeMeters>
            <DistanceMeters>NAN</DistanceMeters>
          </Trackpoint>
          <Trackpoint>
            <Time>2022-07-14T08:57:42.000Z</Time>
            <Position>
              <LatitudeDegrees>43.40393853373825550079345703125</LatitudeDegrees>
              <LongitudeDegrees>-3.97361151874065399169921875</LongitudeDegrees>
            </Position>
            <AltitudeMeters>67</AltitudeMeters>
            <DistanceMeters>NAN</DistanceMeters>
          </Trackpoint>
          <Trackpoint>
            <Time>2022-07-14T08:57:46.000Z</Time>
            <Position>
              <LatitudeDegrees>43.4038997255265712738037109375</LatitudeDegrees>
              <LongitudeDegrees>-3.9739355631172657012939453125</LongitudeDegrees>
            </Position>
            <AltitudeMeters>67</AltitudeMeters>
            <DistanceMeters>NAN</DistanceMeters>
          </Trackpoint>
          <Trackpoint>
            <Time>2022-07-14T08:57:50.000Z</Time>
            <Position>
              <LatitudeDegrees>43.40392730198800563812255859375</LatitudeDegrees>
              <LongitudeDegrees>-3.97412256337702274322509765625</LongitudeDegrees>
            </Position>
            <AltitudeMeters>67.8000030517578125</AltitudeMeters>
            <DistanceMeters>NAN</DistanceMeters>
          </Trackpoint>
          <Trackpoint>
            <Time>2022-07-14T08:57:54.000Z</Time>
            <Position>
              <LatitudeDegrees>43.40394507162272930145263671875</LatitudeDegrees>
              <LongitudeDegrees>-3.974203951656818389892578125</LongitudeDegrees>
            </Position>
            <AltitudeMeters>68.59999847412109375</AltitudeMeters>
            <DistanceMeters>NAN</DistanceMeters>
          </Trackpoint>
          <Trackpoint>
            <Time>2022-07-14T08:57:55.000Z</Time>
            <Position>
              <LatitudeDegrees>43.40394758619368076324462890625</LatitudeDegrees>
              <LongitudeDegrees>-3.9742250740528106689453125</LongitudeDegrees>
            </Position>
            <AltitudeMeters>68.8000030517578125</AltitudeMeters>
            <DistanceMeters>NAN</DistanceMeters>
          </Trackpoint>
          <Trackpoint>
            <Time>2022-07-14T08:58:01.000Z</Time>
            <Position>
              <LatitudeDegrees>43.4039614163339138031005859375</LatitudeDegrees>
              <LongitudeDegrees>-3.97435717284679412841796875</LongitudeDegrees>
            </Position>
            <AltitudeMeters>69.59999847412109375</AltitudeMeters>
            <DistanceMeters>NAN</DistanceMeters>
          </Trackpoint>
          <Trackpoint>
            <Time>2022-07-14T08:58:02.000Z</Time>
            <Position>
              <LatitudeDegrees>43.4039610810577869415283203125</LatitudeDegrees>
              <LongitudeDegrees>-3.9743784628808498382568359375</LongitudeDegrees>
            </Position>
            <AltitudeMeters>69.8000030517578125</AltitudeMeters>
            <DistanceMeters>NAN</DistanceMeters>
          </Trackpoint>
          <Trackpoint>
            <Time>2022-07-14T08:58:06.000Z</Time>
            <Position>
              <LatitudeDegrees>43.40395194478332996368408203125</LatitudeDegrees>
              <LongitudeDegrees>-3.97446102462708950042724609375</LongitudeDegrees>
            </Position>
            <AltitudeMeters>70.59999847412109375</AltitudeMeters>
            <DistanceMeters>NAN</DistanceMeters>
          </Trackpoint>
          <Trackpoint>
            <Time>2022-07-14T08:58:08.000Z</Time>
            <Position>
              <LatitudeDegrees>43.4039399586617946624755859375</LatitudeDegrees>
              <LongitudeDegrees>-3.97450058721005916595458984375</LongitudeDegrees>
            </Position>
            <AltitudeMeters>70.8000030517578125</AltitudeMeters>
            <DistanceMeters>NAN</DistanceMeters>
          </Trackpoint>
          <Trackpoint>
            <Time>2022-07-14T08:58:13.000Z</Time>
            <Position>
              <LatitudeDegrees>43.403911627829074859619140625</LatitudeDegrees>
              <LongitudeDegrees>-3.97458172403275966644287109375</LongitudeDegrees>
            </Position>
            <AltitudeMeters>71.59999847412109375</AltitudeMeters>
            <DistanceMeters>NAN</DistanceMeters>
          </Trackpoint>
          <Trackpoint>
            <Time>2022-07-14T08:58:16.000Z</Time>
            <Position>
              <LatitudeDegrees>43.40389293618500232696533203125</LatitudeDegrees>
              <LongitudeDegrees>-3.974637128412723541259765625</LongitudeDegrees>
            </Position>
            <AltitudeMeters>72.1999969482421875</AltitudeMeters>
            <DistanceMeters>NAN</DistanceMeters>
          </Trackpoint>
          <Trackpoint>
            <Time>2022-07-14T08:58:18.000Z</Time>
            <Position>
              <LatitudeDegrees>43.40388539247214794158935546875</LatitudeDegrees>
              <LongitudeDegrees>-3.97466705180704593658447265625</LongitudeDegrees>
            </Position>
            <AltitudeMeters>72.40000152587890625</AltitudeMeters>
            <DistanceMeters>NAN</DistanceMeters>
          </Trackpoint>
          <Trackpoint>
            <Time>2022-07-14T08:58:19.000Z</Time>
            <Position>
              <LatitudeDegrees>43.4038826264441013336181640625</LatitudeDegrees>
              <LongitudeDegrees>-3.9746785350143909454345703125</LongitudeDegrees>
            </Position>
            <AltitudeMeters>72.59999847412109375</AltitudeMeters>
            <DistanceMeters>NAN</DistanceMeters>
          </Trackpoint>
          <Trackpoint>
            <Time>2022-07-14T08:58:20.000Z</Time>
            <Position>
              <LatitudeDegrees>43.403876088559627532958984375</LatitudeDegrees>
              <LongitudeDegrees>-3.97470124997198581695556640625</LongitudeDegrees>
            </Position>
            <AltitudeMeters>72.59999847412109375</AltitudeMeters>
            <DistanceMeters>NAN</DistanceMeters>
          </Trackpoint>
          <Trackpoint>
            <Time>2022-07-14T08:58:21.000Z</Time>
            <Position>
              <LatitudeDegrees>43.40387198142707347869873046875</LatitudeDegrees>
              <LongitudeDegrees>-3.974724300205707550048828125</LongitudeDegrees>
            </Position>
            <AltitudeMeters>73</AltitudeMeters>
            <DistanceMeters>NAN</DistanceMeters>
          </Trackpoint>
          <Trackpoint>
            <Time>2022-07-14T08:58:25.000Z</Time>
            <Position>
              <LatitudeDegrees>43.4038752503693103790283203125</LatitudeDegrees>
              <LongitudeDegrees>-3.97477501071989536285400390625</LongitudeDegrees>
            </Position>
            <AltitudeMeters>73.40000152587890625</AltitudeMeters>
            <DistanceMeters>NAN</DistanceMeters>
          </Trackpoint>
          <Trackpoint>
            <Time>2022-07-14T08:58:27.000Z</Time>
            <Position>
              <LatitudeDegrees>43.4038752503693103790283203125</LatitudeDegrees>
              <LongitudeDegrees>-3.97477501071989536285400390625</LongitudeDegrees>
            </Position>
            <AltitudeMeters>73.40000152587890625</AltitudeMeters>
            <DistanceMeters>NAN</DistanceMeters>
          </Trackpoint>
          <Trackpoint>
            <Time>2022-07-14T08:59:44.000Z</Time>
            <Position>
              <LatitudeDegrees>43.40384750626981258392333984375</LatitudeDegrees>
              <LongitudeDegrees>-3.97481356747448444366455078125</LongitudeDegrees>
            </Position>
            <AltitudeMeters>73.59999847412109375</AltitudeMeters>
            <DistanceMeters>NAN</DistanceMeters>
          </Trackpoint>
          <Trackpoint>
            <Time>2022-07-14T08:59:45.000Z</Time>
            <Position>
              <LatitudeDegrees>43.40384080074727535247802734375</LatitudeDegrees>
              <LongitudeDegrees>-3.97483016364276409149169921875</LongitudeDegrees>
            </Position>
            <AltitudeMeters>73.59999847412109375</AltitudeMeters>
            <DistanceMeters>NAN</DistanceMeters>
          </Trackpoint>
          <Trackpoint>
            <Time>2022-07-14T08:59:46.000Z</Time>
            <Position>
              <LatitudeDegrees>43.40383283793926239013671875</LatitudeDegrees>
              <LongitudeDegrees>-3.97485815919935703277587890625</LongitudeDegrees>
            </Position>
            <AltitudeMeters>74</AltitudeMeters>
            <DistanceMeters>NAN</DistanceMeters>
          </Trackpoint>
          <Trackpoint>
            <Time>2022-07-14T08:59:50.000Z</Time>
            <Position>
              <LatitudeDegrees>43.403798639774322509765625</LatitudeDegrees>
              <LongitudeDegrees>-3.9749202691018581390380859375</LongitudeDegrees>
            </Position>
            <AltitudeMeters>75</AltitudeMeters>
            <DistanceMeters>NAN</DistanceMeters>
          </Trackpoint>
          <Trackpoint>
            <Time>2022-07-14T08:59:52.000Z</Time>
            <Position>
              <LatitudeDegrees>43.40378548018634319305419921875</LatitudeDegrees>
              <LongitudeDegrees>-3.974956981837749481201171875</LongitudeDegrees>
            </Position>
            <AltitudeMeters>75.40000152587890625</AltitudeMeters>
            <DistanceMeters>NAN</DistanceMeters>
          </Trackpoint>
          <Trackpoint>
            <Time>2022-07-14T08:59:59.000Z</Time>
            <Position>
              <LatitudeDegrees>43.40372362174093723297119140625</LatitudeDegrees>
              <LongitudeDegrees>-3.9750516973435878753662109375</LongitudeDegrees>
            </Position>
            <AltitudeMeters>76</AltitudeMeters>
            <DistanceMeters>NAN</DistanceMeters>
          </Trackpoint>
          <Trackpoint>
            <Time>2022-07-14T09:00:03.000Z</Time>
            <Position>
              <LatitudeDegrees>43.40367349795997142791748046875</LatitudeDegrees>
              <LongitudeDegrees>-3.9751308225095272064208984375</LongitudeDegrees>
            </Position>
            <AltitudeMeters>76.1999969482421875</AltitudeMeters>
            <DistanceMeters>NAN</DistanceMeters>
          </Trackpoint>
          <Trackpoint>
            <Time>2022-07-14T09:00:07.000Z</Time>
            <Position>
              <LatitudeDegrees>43.40362119488418102264404296875</LatitudeDegrees>
              <LongitudeDegrees>-3.9752210117876529693603515625</LongitudeDegrees>
            </Position>
            <AltitudeMeters>76.1999969482421875</AltitudeMeters>
            <DistanceMeters>NAN</DistanceMeters>
          </Trackpoint>
          <Trackpoint>
            <Time>2022-07-14T09:00:16.000Z</Time>
            <Position>
              <LatitudeDegrees>43.4034903533756732940673828125</LatitudeDegrees>
              <LongitudeDegrees>-3.9754101075232028961181640625</LongitudeDegrees>
            </Position>
            <AltitudeMeters>76.59999847412109375</AltitudeMeters>
            <DistanceMeters>NAN</DistanceMeters>
          </Trackpoint>
          <Trackpoint>
            <Time>2022-07-14T09:00:19.000Z</Time>
            <Position>
              <LatitudeDegrees>43.40342589654028415679931640625</LatitudeDegrees>
              <LongitudeDegrees>-3.9755046553909778594970703125</LongitudeDegrees>
            </Position>
            <AltitudeMeters>76.40000152587890625</AltitudeMeters>
            <DistanceMeters>NAN</DistanceMeters>
          </Trackpoint>
          <Trackpoint>
            <Time>2022-07-14T09:00:21.000Z</Time>
            <Position>
              <LatitudeDegrees>43.40337216854095458984375</LatitudeDegrees>
              <LongitudeDegrees>-3.97559358738362789154052734375</LongitudeDegrees>
            </Position>
            <AltitudeMeters>76</AltitudeMeters>
            <DistanceMeters>NAN</DistanceMeters>
          </Trackpoint>
          <Trackpoint>
            <Time>2022-07-14T09:00:23.000Z</Time>
            <Position>
              <LatitudeDegrees>43.40331517159938812255859375</LatitudeDegrees>
              <LongitudeDegrees>-3.9756860397756099700927734375</LongitudeDegrees>
            </Position>
            <AltitudeMeters>75.8000030517578125</AltitudeMeters>
            <DistanceMeters>NAN</DistanceMeters>
          </Trackpoint>
          <Trackpoint>
            <Time>2022-07-14T09:00:24.000Z</Time>
            <Position>
              <LatitudeDegrees>43.40328306891024112701416015625</LatitudeDegrees>
              <LongitudeDegrees>-3.97572551853954792022705078125</LongitudeDegrees>
            </Position>
            <AltitudeMeters>75.59999847412109375</AltitudeMeters>
            <DistanceMeters>NAN</DistanceMeters>
          </Trackpoint>
          <Trackpoint>
            <Time>2022-07-14T09:00:26.000Z</Time>
            <Position>
              <LatitudeDegrees>43.40320578776299953460693359375</LatitudeDegrees>
              <LongitudeDegrees>-3.9758047275245189666748046875</LongitudeDegrees>
            </Position>
            <AltitudeMeters>75.40000152587890625</AltitudeMeters>
            <DistanceMeters>NAN</DistanceMeters>
          </Trackpoint>
          <Trackpoint>
            <Time>2022-07-14T09:00:33.000Z</Time>
            <Position>
              <LatitudeDegrees>43.40304351411759853363037109375</LatitudeDegrees>
              <LongitudeDegrees>-3.976058699190616607666015625</LongitudeDegrees>
            </Position>
            <AltitudeMeters>75.59999847412109375</AltitudeMeters>
            <DistanceMeters>NAN</DistanceMeters>
          </Trackpoint>
          <Trackpoint>
            <Time>2022-07-14T09:00:37.000Z</Time>
            <Position>
              <LatitudeDegrees>43.40298953466117382049560546875</LatitudeDegrees>
              <LongitudeDegrees>-3.97622407414019107818603515625</LongitudeDegrees>
            </Position>
            <AltitudeMeters>75.8000030517578125</AltitudeMeters>
            <DistanceMeters>NAN</DistanceMeters>
          </Trackpoint>
          <Trackpoint>
            <Time>2022-07-14T09:00:39.000Z</Time>
            <Position>
              <LatitudeDegrees>43.40297662653028964996337890625</LatitudeDegrees>
              <LongitudeDegrees>-3.976306132972240447998046875</LongitudeDegrees>
            </Position>
            <AltitudeMeters>76</AltitudeMeters>
            <DistanceMeters>NAN</DistanceMeters>
          </Trackpoint>
          <Trackpoint>
            <Time>2022-07-14T09:00:46.000Z</Time>
            <Position>
              <LatitudeDegrees>43.402927257120609283447265625</LatitudeDegrees>
              <LongitudeDegrees>-3.97649279795587062835693359375</LongitudeDegrees>
            </Position>
            <AltitudeMeters>76.8000030517578125</AltitudeMeters>
            <DistanceMeters>NAN</DistanceMeters>
          </Trackpoint>
          <Trackpoint>
            <Time>2022-07-14T09:00:50.000Z</Time>
            <Position>
              <LatitudeDegrees>43.40288191102445125579833984375</LatitudeDegrees>
              <LongitudeDegrees>-3.97660427726805210113525390625</LongitudeDegrees>
            </Position>
            <AltitudeMeters>77</AltitudeMeters>
            <DistanceMeters>NAN</DistanceMeters>
          </Trackpoint>
          <Trackpoint>
            <Time>2022-07-14T09:00:55.000Z</Time>
            <Position>
              <LatitudeDegrees>43.402828685939311981201171875</LatitudeDegrees>
              <LongitudeDegrees>-3.97673050872981548309326171875</LongitudeDegrees>
            </Position>
            <AltitudeMeters>77.40000152587890625</AltitudeMeters>
            <DistanceMeters>NAN</DistanceMeters>
          </Trackpoint>
          <Trackpoint>
            <Time>2022-07-14T09:01:03.000Z</Time>
            <Position>
              <LatitudeDegrees>43.40274109505116939544677734375</LatitudeDegrees>
              <LongitudeDegrees>-3.97692865692079067230224609375</LongitudeDegrees>
            </Position>
            <AltitudeMeters>77.8000030517578125</AltitudeMeters>
            <DistanceMeters>NAN</DistanceMeters>
          </Trackpoint>
          <Trackpoint>
            <Time>2022-07-14T09:01:05.000Z</Time>
            <Position>
              <LatitudeDegrees>43.4027136862277984619140625</LatitudeDegrees>
              <LongitudeDegrees>-3.97698531858623027801513671875</LongitudeDegrees>
            </Position>
            <AltitudeMeters>77.8000030517578125</AltitudeMeters>
            <DistanceMeters>NAN</DistanceMeters>
          </Trackpoint>
          <Trackpoint>
            <Time>2022-07-14T09:01:08.000Z</Time>
            <Position>
              <LatitudeDegrees>43.4026783145964145660400390625</LatitudeDegrees>
              <LongitudeDegrees>-3.977051116526126861572265625</LongitudeDegrees>
            </Position>
            <AltitudeMeters>77.8000030517578125</AltitudeMeters>
            <DistanceMeters>NAN</DistanceMeters>
          </Trackpoint>
          <Trackpoint>
            <Time>2022-07-14T09:01:11.000Z</Time>
            <Position>
              <LatitudeDegrees>43.40265777893364429473876953125</LatitudeDegrees>
              <LongitudeDegrees>-3.9771146513521671295166015625</LongitudeDegrees>
            </Position>
            <AltitudeMeters>77.8000030517578125</AltitudeMeters>
            <DistanceMeters>NAN</DistanceMeters>
          </Trackpoint>
          <Trackpoint>
            <Time>2022-07-14T09:01:12.000Z</Time>
            <Position>
              <LatitudeDegrees>43.402648307383060455322265625</LatitudeDegrees>
              <LongitudeDegrees>-3.97713568992912769317626953125</LongitudeDegrees>
            </Position>
            <AltitudeMeters>78</AltitudeMeters>
            <DistanceMeters>NAN</DistanceMeters>
          </Trackpoint>
          <Trackpoint>
            <Time>2022-07-14T09:01:15.000Z</Time>
            <Position>
              <LatitudeDegrees>43.4026090800762176513671875</LatitudeDegrees>
              <LongitudeDegrees>-3.97720475681126117706298828125</LongitudeDegrees>
            </Position>
            <AltitudeMeters>78.1999969482421875</AltitudeMeters>
            <DistanceMeters>NAN</DistanceMeters>
          </Trackpoint>
          <Trackpoint>
            <Time>2022-07-14T09:01:19.000Z</Time>
            <Position>
              <LatitudeDegrees>43.40257530100643634796142578125</LatitudeDegrees>
              <LongitudeDegrees>-3.97728019393980503082275390625</LongitudeDegrees>
            </Position>
            <AltitudeMeters>78.40000152587890625</AltitudeMeters>
            <DistanceMeters>NAN</DistanceMeters>
          </Trackpoint>
          <Trackpoint>
            <Time>2022-07-14T09:01:22.000Z</Time>
            <Position>
              <LatitudeDegrees>43.40254629962146282196044921875</LatitudeDegrees>
              <LongitudeDegrees>-3.97733509540557861328125</LongitudeDegrees>
            </Position>
            <AltitudeMeters>78.8000030517578125</AltitudeMeters>
            <DistanceMeters>NAN</DistanceMeters>
          </Trackpoint>
          <Trackpoint>
            <Time>2022-07-14T09:01:26.000Z</Time>
            <Position>
              <LatitudeDegrees>43.40251386165618896484375</LatitudeDegrees>
              <LongitudeDegrees>-3.97740541957318782806396484375</LongitudeDegrees>
            </Position>
            <AltitudeMeters>79.1999969482421875</AltitudeMeters>
            <DistanceMeters>NAN</DistanceMeters>
          </Trackpoint>
          <Trackpoint>
            <Time>2022-07-14T09:01:30.000Z</Time>
            <Position>
              <LatitudeDegrees>43.40248368680477142333984375</LatitudeDegrees>
              <LongitudeDegrees>-3.97747767157852649688720703125</LongitudeDegrees>
            </Position>
            <AltitudeMeters>79.59999847412109375</AltitudeMeters>
            <DistanceMeters>NAN</DistanceMeters>
          </Trackpoint>
          <Trackpoint>
            <Time>2022-07-14T09:01:33.000Z</Time>
            <Position>
              <LatitudeDegrees>43.40245954692363739013671875</LatitudeDegrees>
              <LongitudeDegrees>-3.97753148339688777923583984375</LongitudeDegrees>
            </Position>
            <AltitudeMeters>80</AltitudeMeters>
            <DistanceMeters>NAN</DistanceMeters>
          </Trackpoint>
          <Trackpoint>
            <Time>2022-07-14T09:01:36.000Z</Time>
            <Position>
              <LatitudeDegrees>43.40242979116737842559814453125</LatitudeDegrees>
              <LongitudeDegrees>-3.97756048478186130523681640625</LongitudeDegrees>
            </Position>
            <AltitudeMeters>80.1999969482421875</AltitudeMeters>
            <DistanceMeters>NAN</DistanceMeters>
          </Trackpoint>
          <Trackpoint>
            <Time>2022-07-14T09:01:37.000Z</Time>
            <Position>
              <LatitudeDegrees>43.40242157690227031707763671875</LatitudeDegrees>
              <LongitudeDegrees>-3.97757657803595066070556640625</LongitudeDegrees>
            </Position>
            <AltitudeMeters>80.40000152587890625</AltitudeMeters>
            <DistanceMeters>NAN</DistanceMeters>
          </Trackpoint>
          <Trackpoint>
            <Time>2022-07-14T09:01:40.000Z</Time>
            <Position>
              <LatitudeDegrees>43.40239651501178741455078125</LatitudeDegrees>
              <LongitudeDegrees>-3.9776101894676685333251953125</LongitudeDegrees>
            </Position>
            <AltitudeMeters>80.40000152587890625</AltitudeMeters>
            <DistanceMeters>NAN</DistanceMeters>
          </Trackpoint>
          <Trackpoint>
            <Time>2022-07-14T09:01:41.000Z</Time>
            <Position>
              <LatitudeDegrees>43.40238486416637897491455078125</LatitudeDegrees>
              <LongitudeDegrees>-3.9776168949902057647705078125</LongitudeDegrees>
            </Position>
            <AltitudeMeters>80.59999847412109375</AltitudeMeters>
            <DistanceMeters>NAN</DistanceMeters>
          </Trackpoint>
          <Trackpoint>
            <Time>2022-07-14T09:01:43.000Z</Time>
            <Position>
              <LatitudeDegrees>43.40236407704651355743408203125</LatitudeDegrees>
              <LongitudeDegrees>-3.9776346646249294281005859375</LongitudeDegrees>
            </Position>
            <AltitudeMeters>80.59999847412109375</AltitudeMeters>
            <DistanceMeters>NAN</DistanceMeters>
          </Trackpoint>
          <Trackpoint>
            <Time>2022-07-14T09:01:44.000Z</Time>
            <Position>
              <LatitudeDegrees>43.402355946600437164306640625</LatitudeDegrees>
              <LongitudeDegrees>-3.9776487462222576141357421875</LongitudeDegrees>
            </Position>
            <AltitudeMeters>80.59999847412109375</AltitudeMeters>
            <DistanceMeters>NAN</DistanceMeters>
          </Trackpoint>
          <Trackpoint>
            <Time>2022-07-14T09:01:46.000Z</Time>
            <Position>
              <LatitudeDegrees>43.40233457274734973907470703125</LatitudeDegrees>
              <LongitudeDegrees>-3.977675400674343109130859375</LongitudeDegrees>
            </Position>
            <AltitudeMeters>80.59999847412109375</AltitudeMeters>
            <DistanceMeters>NAN</DistanceMeters>
          </Trackpoint>
          <Trackpoint>
            <Time>2022-07-14T09:01:47.000Z</Time>
            <Position>
              <LatitudeDegrees>43.4023266099393367767333984375</LatitudeDegrees>
              <LongitudeDegrees>-3.97768990136682987213134765625</LongitudeDegrees>
            </Position>
            <AltitudeMeters>81</AltitudeMeters>
            <DistanceMeters>NAN</DistanceMeters>
          </Trackpoint>
          <Trackpoint>
            <Time>2022-07-14T09:01:48.000Z</Time>
            <Position>
              <LatitudeDegrees>43.40232300572097301483154296875</LatitudeDegrees>
              <LongitudeDegrees>-3.97770683281123638153076171875</LongitudeDegrees>
            </Position>
            <AltitudeMeters>81.1999969482421875</AltitudeMeters>
            <DistanceMeters>NAN</DistanceMeters>
          </Trackpoint>
          <Trackpoint>
            <Time>2022-07-14T09:01:49.000Z</Time>
            <Position>
              <LatitudeDegrees>43.40231512673199176788330078125</LatitudeDegrees>
              <LongitudeDegrees>-3.97772468626499176025390625</LongitudeDegrees>
            </Position>
            <AltitudeMeters>81.40000152587890625</AltitudeMeters>
            <DistanceMeters>NAN</DistanceMeters>
          </Trackpoint>
          <Trackpoint>
            <Time>2022-07-14T09:01:51.000Z</Time>
            <Position>
              <LatitudeDegrees>43.40230590663850307464599609375</LatitudeDegrees>
              <LongitudeDegrees>-3.97773868404328823089599609375</LongitudeDegrees>
            </Position>
            <AltitudeMeters>81.59999847412109375</AltitudeMeters>
            <DistanceMeters>NAN</DistanceMeters>
          </Trackpoint>
          <Trackpoint>
            <Time>2022-07-14T09:01:53.000Z</Time>
            <Position>
              <LatitudeDegrees>43.40229098685085773468017578125</LatitudeDegrees>
              <LongitudeDegrees>-3.97777422331273555755615234375</LongitudeDegrees>
            </Position>
            <AltitudeMeters>81.8000030517578125</AltitudeMeters>
            <DistanceMeters>NAN</DistanceMeters>
          </Trackpoint>
          <Trackpoint>
            <Time>2022-07-14T09:01:54.000Z</Time>
            <Position>
              <LatitudeDegrees>43.4022816829383373260498046875</LatitudeDegrees>
              <LongitudeDegrees>-3.9777895621955394744873046875</LongitudeDegrees>
            </Position>
            <AltitudeMeters>82</AltitudeMeters>
            <DistanceMeters>NAN</DistanceMeters>
          </Trackpoint>
          <Trackpoint>
            <Time>2022-07-14T09:01:58.000Z</Time>
            <Position>
              <LatitudeDegrees>43.4022434614598751068115234375</LatitudeDegrees>
              <LongitudeDegrees>-3.9778579585254192352294921875</LongitudeDegrees>
            </Position>
            <AltitudeMeters>82.1999969482421875</AltitudeMeters>
            <DistanceMeters>NAN</DistanceMeters>
          </Trackpoint>
          <Trackpoint>
            <Time>2022-07-14T09:02:04.000Z</Time>
            <Position>
              <LatitudeDegrees>43.4021985344588756561279296875</LatitudeDegrees>
              <LongitudeDegrees>-3.97796231321990489959716796875</LongitudeDegrees>
            </Position>
            <AltitudeMeters>82.8000030517578125</AltitudeMeters>
            <DistanceMeters>NAN</DistanceMeters>
          </Trackpoint>
          <Trackpoint>
            <Time>2022-07-14T09:02:13.000Z</Time>
            <Position>
              <LatitudeDegrees>43.4021472372114658355712890625</LatitudeDegrees>
              <LongitudeDegrees>-3.978179655969142913818359375</LongitudeDegrees>
            </Position>
            <AltitudeMeters>82.8000030517578125</AltitudeMeters>
            <DistanceMeters>NAN</DistanceMeters>
          </Trackpoint>
          <Trackpoint>
            <Time>2022-07-14T09:02:22.000Z</Time>
            <Position>
              <LatitudeDegrees>43.4020798467099666595458984375</LatitudeDegrees>
              <LongitudeDegrees>-3.9784307777881622314453125</LongitudeDegrees>
            </Position>
            <AltitudeMeters>83.1999969482421875</AltitudeMeters>
            <DistanceMeters>NAN</DistanceMeters>
          </Trackpoint>
          <Trackpoint>
            <Time>2022-07-14T09:02:29.000Z</Time>
            <Position>
              <LatitudeDegrees>43.4020000509917736053466796875</LatitudeDegrees>
              <LongitudeDegrees>-3.97861643694341182708740234375</LongitudeDegrees>
            </Position>
            <AltitudeMeters>83.1999969482421875</AltitudeMeters>
            <DistanceMeters>NAN</DistanceMeters>
          </Trackpoint>
          <Trackpoint>
            <Time>2022-07-14T09:02:37.000Z</Time>
            <Position>
              <LatitudeDegrees>43.40192553587257862091064453125</LatitudeDegrees>
              <LongitudeDegrees>-3.9787752740085124969482421875</LongitudeDegrees>
            </Position>
            <AltitudeMeters>83.8000030517578125</AltitudeMeters>
            <DistanceMeters>NAN</DistanceMeters>
          </Trackpoint>
          <Trackpoint>
            <Time>2022-07-14T09:02:39.000Z</Time>
            <Position>
              <LatitudeDegrees>43.40191849507391452789306640625</LatitudeDegrees>
              <LongitudeDegrees>-3.97881458513438701629638671875</LongitudeDegrees>
            </Position>
            <AltitudeMeters>84</AltitudeMeters>
            <DistanceMeters>NAN</DistanceMeters>
          </Trackpoint>
          <Trackpoint>
            <Time>2022-07-14T09:02:42.000Z</Time>
            <Position>
              <LatitudeDegrees>43.401894606649875640869140625</LatitudeDegrees>
              <LongitudeDegrees>-3.97886152379214763641357421875</LongitudeDegrees>
            </Position>
            <AltitudeMeters>84.1999969482421875</AltitudeMeters>
            <DistanceMeters>NAN</DistanceMeters>
          </Trackpoint>
          <Trackpoint>
            <Time>2022-07-14T09:02:44.000Z</Time>
            <Position>
              <LatitudeDegrees>43.40188228525221347808837890625</LatitudeDegrees>
              <LongitudeDegrees>-3.97890024818480014801025390625</LongitudeDegrees>
            </Position>
            <AltitudeMeters>84.1999969482421875</AltitudeMeters>
            <DistanceMeters>NAN</DistanceMeters>
          </Trackpoint>
          <Trackpoint>
            <Time>2022-07-14T09:02:52.000Z</Time>
            <Position>
              <LatitudeDegrees>43.4018173255026340484619140625</LatitudeDegrees>
              <LongitudeDegrees>-3.97904642857611179351806640625</LongitudeDegrees>
            </Position>
            <AltitudeMeters>85.40000152587890625</AltitudeMeters>
            <DistanceMeters>NAN</DistanceMeters>
          </Trackpoint>
          <Trackpoint>
            <Time>2022-07-14T09:02:55.000Z</Time>
            <Position>
              <LatitudeDegrees>43.40180416591465473175048828125</LatitudeDegrees>
              <LongitudeDegrees>-3.9791115559637546539306640625</LongitudeDegrees>
            </Position>
            <AltitudeMeters>85.8000030517578125</AltitudeMeters>
            <DistanceMeters>NAN</DistanceMeters>
          </Trackpoint>
          <Trackpoint>
            <Time>2022-07-14T09:02:57.000Z</Time>
            <Position>
              <LatitudeDegrees>43.4017827920615673065185546875</LatitudeDegrees>
              <LongitudeDegrees>-3.9791196025907993316650390625</LongitudeDegrees>
            </Position>
            <AltitudeMeters>86</AltitudeMeters>
            <DistanceMeters>NAN</DistanceMeters>
          </Trackpoint>
          <Trackpoint>
            <Time>2022-07-14T09:03:00.000Z</Time>
            <Position>
              <LatitudeDegrees>43.40175773017108440399169921875</LatitudeDegrees>
              <LongitudeDegrees>-3.979139886796474456787109375</LongitudeDegrees>
            </Position>
            <AltitudeMeters>86.40000152587890625</AltitudeMeters>
            <DistanceMeters>NAN</DistanceMeters>
          </Trackpoint>
          <Trackpoint>
            <Time>2022-07-14T09:03:02.000Z</Time>
            <Position>
              <LatitudeDegrees>43.40174348093569278717041015625</LatitudeDegrees>
              <LongitudeDegrees>-3.9791618473827838897705078125</LongitudeDegrees>
            </Position>
            <AltitudeMeters>86.59999847412109375</AltitudeMeters>
            <DistanceMeters>NAN</DistanceMeters>
          </Trackpoint>
          <Trackpoint>
            <Time>2022-07-14T09:03:03.000Z</Time>
            <Position>
              <LatitudeDegrees>43.40173359028995037078857421875</LatitudeDegrees>
              <LongitudeDegrees>-3.97917869500815868377685546875</LongitudeDegrees>
            </Position>
            <AltitudeMeters>86.59999847412109375</AltitudeMeters>
            <DistanceMeters>NAN</DistanceMeters>
          </Trackpoint>
          <Trackpoint>
            <Time>2022-07-14T09:03:07.000Z</Time>
            <Position>
              <LatitudeDegrees>43.4017167426645755767822265625</LatitudeDegrees>
              <LongitudeDegrees>-3.979220688343048095703125</LongitudeDegrees>
            </Position>
            <AltitudeMeters>87</AltitudeMeters>
            <DistanceMeters>NAN</DistanceMeters>
          </Trackpoint>
          <Trackpoint>
            <Time>2022-07-14T09:03:08.000Z</Time>
            <Position>
              <LatitudeDegrees>43.40171213261783123016357421875</LatitudeDegrees>
              <LongitudeDegrees>-3.9792299084365367889404296875</LongitudeDegrees>
            </Position>
            <AltitudeMeters>87.1999969482421875</AltitudeMeters>
            <DistanceMeters>NAN</DistanceMeters>
          </Trackpoint>
          <Trackpoint>
            <Time>2022-07-14T09:03:11.000Z</Time>
            <Position>
              <LatitudeDegrees>43.4016895852982997894287109375</LatitudeDegrees>
              <LongitudeDegrees>-3.97925698198378086090087890625</LongitudeDegrees>
            </Position>
            <AltitudeMeters>87.40000152587890625</AltitudeMeters>
            <DistanceMeters>NAN</DistanceMeters>
          </Trackpoint>
          <Trackpoint>
            <Time>2022-07-14T09:03:17.000Z</Time>
            <Position>
              <LatitudeDegrees>43.40162529610097408294677734375</LatitudeDegrees>
              <LongitudeDegrees>-3.97932671941816806793212890625</LongitudeDegrees>
            </Position>
            <AltitudeMeters>88.1999969482421875</AltitudeMeters>
            <DistanceMeters>NAN</DistanceMeters>
          </Trackpoint>
          <Trackpoint>
            <Time>2022-07-14T09:03:18.000Z</Time>
            <Position>
              <LatitudeDegrees>43.4016124717891216278076171875</LatitudeDegrees>
              <LongitudeDegrees>-3.9793428964912891387939453125</LongitudeDegrees>
            </Position>
            <AltitudeMeters>88.59999847412109375</AltitudeMeters>
            <DistanceMeters>NAN</DistanceMeters>
          </Trackpoint>
          <Trackpoint>
            <Time>2022-07-14T09:03:21.000Z</Time>
            <Position>
              <LatitudeDegrees>43.40157031081616878509521484375</LatitudeDegrees>
              <LongitudeDegrees>-3.97937013767659664154052734375</LongitudeDegrees>
            </Position>
            <AltitudeMeters>89</AltitudeMeters>
            <DistanceMeters>NAN</DistanceMeters>
          </Trackpoint>
          <Trackpoint>
            <Time>2022-07-14T09:03:23.000Z</Time>
            <Position>
              <LatitudeDegrees>43.40154684148728847503662109375</LatitudeDegrees>
              <LongitudeDegrees>-3.97937290370464324951171875</LongitudeDegrees>
            </Position>
            <AltitudeMeters>89.40000152587890625</AltitudeMeters>
            <DistanceMeters>NAN</DistanceMeters>
          </Trackpoint>
          <Trackpoint>
            <Time>2022-07-14T09:03:25.000Z</Time>
            <Position>
              <LatitudeDegrees>43.40152454562485218048095703125</LatitudeDegrees>
              <LongitudeDegrees>-3.97939276881515979766845703125</LongitudeDegrees>
            </Position>
            <AltitudeMeters>89.8000030517578125</AltitudeMeters>
            <DistanceMeters>NAN</DistanceMeters>
          </Trackpoint>
          <Trackpoint>
            <Time>2022-07-14T09:03:28.000Z</Time>
            <Position>
              <LatitudeDegrees>43.4014847315847873687744140625</LatitudeDegrees>
              <LongitudeDegrees>-3.97942948155105113983154296875</LongitudeDegrees>
            </Position>
            <AltitudeMeters>90.40000152587890625</AltitudeMeters>
            <DistanceMeters>NAN</DistanceMeters>
          </Trackpoint>
          <Trackpoint>
            <Time>2022-07-14T09:03:30.000Z</Time>
            <Position>
              <LatitudeDegrees>43.4014612622559070587158203125</LatitudeDegrees>
              <LongitudeDegrees>-3.97945043630897998809814453125</LongitudeDegrees>
            </Position>
            <AltitudeMeters>90.59999847412109375</AltitudeMeters>
            <DistanceMeters>NAN</DistanceMeters>
          </Trackpoint>
          <Trackpoint>
            <Time>2022-07-14T09:03:31.000Z</Time>
            <Position>
              <LatitudeDegrees>43.40144776739180088043212890625</LatitudeDegrees>
              <LongitudeDegrees>-3.97946183569729328155517578125</LongitudeDegrees>
            </Position>
            <AltitudeMeters>91</AltitudeMeters>
            <DistanceMeters>NAN</DistanceMeters>
          </Trackpoint>
          <Trackpoint>
            <Time>2022-07-14T09:03:34.000Z</Time>
            <Position>
              <LatitudeDegrees>43.40142128057777881622314453125</LatitudeDegrees>
              <LongitudeDegrees>-3.97950843907892704010009765625</LongitudeDegrees>
            </Position>
            <AltitudeMeters>91.40000152587890625</AltitudeMeters>
            <DistanceMeters>NAN</DistanceMeters>
          </Trackpoint>
          <Trackpoint>
            <Time>2022-07-14T09:03:35.000Z</Time>
            <Position>
              <LatitudeDegrees>43.401413150131702423095703125</LatitudeDegrees>
              <LongitudeDegrees>-3.97952419705688953399658203125</LongitudeDegrees>
            </Position>
            <AltitudeMeters>91.59999847412109375</AltitudeMeters>
            <DistanceMeters>NAN</DistanceMeters>
          </Trackpoint>
          <Trackpoint>
            <Time>2022-07-14T09:03:36.000Z</Time>
            <Position>
              <LatitudeDegrees>43.40140267275273799896240234375</LatitudeDegrees>
              <LongitudeDegrees>-3.97954230196774005889892578125</LongitudeDegrees>
            </Position>
            <AltitudeMeters>91.8000030517578125</AltitudeMeters>
            <DistanceMeters>NAN</DistanceMeters>
          </Trackpoint>
          <Trackpoint>
            <Time>2022-07-14T09:03:37.000Z</Time>
            <Position>
              <LatitudeDegrees>43.4013940393924713134765625</LatitudeDegrees>
              <LongitudeDegrees>-3.979558646678924560546875</LongitudeDegrees>
            </Position>
            <AltitudeMeters>91.8000030517578125</AltitudeMeters>
            <DistanceMeters>NAN</DistanceMeters>
          </Trackpoint>
          <Trackpoint>
            <Time>2022-07-14T09:03:43.000Z</Time>
            <Position>
              <LatitudeDegrees>43.4012892656028270721435546875</LatitudeDegrees>
              <LongitudeDegrees>-3.97958521731197834014892578125</LongitudeDegrees>
            </Position>
            <AltitudeMeters>92</AltitudeMeters>
            <DistanceMeters>NAN</DistanceMeters>
          </Trackpoint>
          <Trackpoint>
            <Time>2022-07-14T09:03:45.000Z</Time>
            <Position>
              <LatitudeDegrees>43.40125028975307941436767578125</LatitudeDegrees>
              <LongitudeDegrees>-3.97957499139010906219482421875</LongitudeDegrees>
            </Position>
            <AltitudeMeters>92</AltitudeMeters>
            <DistanceMeters>NAN</DistanceMeters>
          </Trackpoint>
          <Trackpoint>
            <Time>2022-07-14T09:03:50.000Z</Time>
            <Position>
              <LatitudeDegrees>43.4011564962565898895263671875</LatitudeDegrees>
              <LongitudeDegrees>-3.9795430563390254974365234375</LongitudeDegrees>
            </Position>
            <AltitudeMeters>92</AltitudeMeters>
            <DistanceMeters>NAN</DistanceMeters>
          </Trackpoint>
          <Trackpoint>
            <Time>2022-07-14T09:03:51.000Z</Time>
            <Position>
              <LatitudeDegrees>43.40113378129899501800537109375</LatitudeDegrees>
              <LongitudeDegrees>-3.97954246960580348968505859375</LongitudeDegrees>
            </Position>
            <AltitudeMeters>92.1999969482421875</AltitudeMeters>
            <DistanceMeters>NAN</DistanceMeters>
          </Trackpoint>
          <Trackpoint>
            <Time>2022-07-14T09:03:56.000Z</Time>
            <Position>
              <LatitudeDegrees>43.40105029754340648651123046875</LatitudeDegrees>
              <LongitudeDegrees>-3.979581110179424285888671875</LongitudeDegrees>
            </Position>
            <AltitudeMeters>92.59999847412109375</AltitudeMeters>
            <DistanceMeters>NAN</DistanceMeters>
          </Trackpoint>
          <Trackpoint>
            <Time>2022-07-14T09:04:01.000Z</Time>
            <Position>
              <LatitudeDegrees>43.4009851701557636260986328125</LatitudeDegrees>
              <LongitudeDegrees>-3.97967825643718242645263671875</LongitudeDegrees>
            </Position>
            <AltitudeMeters>93</AltitudeMeters>
            <DistanceMeters>NAN</DistanceMeters>
          </Trackpoint>
          <Trackpoint>
            <Time>2022-07-14T09:04:04.000Z</Time>
            <Position>
              <LatitudeDegrees>43.40095323510468006134033203125</LatitudeDegrees>
              <LongitudeDegrees>-3.97974866442382335662841796875</LongitudeDegrees>
            </Position>
            <AltitudeMeters>93.1999969482421875</AltitudeMeters>
            <DistanceMeters>NAN</DistanceMeters>
          </Trackpoint>
          <Trackpoint>
            <Time>2022-07-14T09:04:12.000Z</Time>
            <Position>
              <LatitudeDegrees>43.40088215656578540802001953125</LatitudeDegrees>
              <LongitudeDegrees>-3.97990155033767223358154296875</LongitudeDegrees>
            </Position>
            <AltitudeMeters>93.59999847412109375</AltitudeMeters>
            <DistanceMeters>NAN</DistanceMeters>
          </Trackpoint>
          <Trackpoint>
            <Time>2022-07-14T09:04:13.000Z</Time>
            <Position>
              <LatitudeDegrees>43.4008768759667873382568359375</LatitudeDegrees>
              <LongitudeDegrees>-3.97991965524852275848388671875</LongitudeDegrees>
            </Position>
            <AltitudeMeters>93.8000030517578125</AltitudeMeters>
            <DistanceMeters>NAN</DistanceMeters>
          </Trackpoint>
          <Trackpoint>
            <Time>2022-07-14T09:04:16.000Z</Time>
            <Position>
              <LatitudeDegrees>43.4008629620075225830078125</LatitudeDegrees>
              <LongitudeDegrees>-3.97997464053332805633544921875</LongitudeDegrees>
            </Position>
            <AltitudeMeters>94</AltitudeMeters>
            <DistanceMeters>NAN</DistanceMeters>
          </Trackpoint>
          <Trackpoint>
            <Time>2022-07-14T09:04:21.000Z</Time>
            <Position>
              <LatitudeDegrees>43.4008534066379070281982421875</LatitudeDegrees>
              <LongitudeDegrees>-3.9800727926194667816162109375</LongitudeDegrees>
            </Position>
            <AltitudeMeters>94.40000152587890625</AltitudeMeters>
            <DistanceMeters>NAN</DistanceMeters>
          </Trackpoint>
          <Trackpoint>
            <Time>2022-07-14T09:04:22.000Z</Time>
            <Position>
              <LatitudeDegrees>43.400853238999843597412109375</LatitudeDegrees>
              <LongitudeDegrees>-3.9800857007503509521484375</LongitudeDegrees>
            </Position>
            <AltitudeMeters>94.40000152587890625</AltitudeMeters>
            <DistanceMeters>NAN</DistanceMeters>
          </Trackpoint>
          <Trackpoint>
            <Time>2022-07-14T09:04:29.000Z</Time>
            <Position>
              <LatitudeDegrees>43.40083253569900989532470703125</LatitudeDegrees>
              <LongitudeDegrees>-3.9801522530615329742431640625</LongitudeDegrees>
            </Position>
            <AltitudeMeters>94.8000030517578125</AltitudeMeters>
            <DistanceMeters>NAN</DistanceMeters>
          </Trackpoint>
          <Trackpoint>
            <Time>2022-07-14T09:10:15.000Z</Time>
            <Position>
              <LatitudeDegrees>43.40082683600485324859619140625</LatitudeDegrees>
              <LongitudeDegrees>-3.98047872819006443023681640625</LongitudeDegrees>
            </Position>
            <AltitudeMeters>96</AltitudeMeters>
            <DistanceMeters>NAN</DistanceMeters>
          </Trackpoint>
          <Trackpoint>
            <Time>2022-07-14T09:10:16.000Z</Time>
            <Position>
              <LatitudeDegrees>43.40081535279750823974609375</LatitudeDegrees>
              <LongitudeDegrees>-3.980502784252166748046875</LongitudeDegrees>
            </Position>
            <AltitudeMeters>96</AltitudeMeters>
            <DistanceMeters>NAN</DistanceMeters>
          </Trackpoint>
          <Trackpoint>
            <Time>2022-07-14T09:10:17.000Z</Time>
            <Position>
              <LatitudeDegrees>43.4008021093904972076416015625</LatitudeDegrees>
              <LongitudeDegrees>-3.98053371347486972808837890625</LongitudeDegrees>
            </Position>
            <AltitudeMeters>96.1999969482421875</AltitudeMeters>
            <DistanceMeters>NAN</DistanceMeters>
          </Trackpoint>
          <Trackpoint>
            <Time>2022-07-14T09:10:23.000Z</Time>
            <Position>
              <LatitudeDegrees>43.40075366199016571044921875</LatitudeDegrees>
              <LongitudeDegrees>-3.9807423390448093414306640625</LongitudeDegrees>
            </Position>
            <AltitudeMeters>96</AltitudeMeters>
            <DistanceMeters>NAN</DistanceMeters>
          </Trackpoint>
          <Trackpoint>
            <Time>2022-07-14T09:10:30.000Z</Time>
            <Position>
              <LatitudeDegrees>43.40065634809434413909912109375</LatitudeDegrees>
              <LongitudeDegrees>-3.981003351509571075439453125</LongitudeDegrees>
            </Position>
            <AltitudeMeters>95.59999847412109375</AltitudeMeters>
            <DistanceMeters>NAN</DistanceMeters>
          </Trackpoint>
          <Trackpoint>
            <Time>2022-07-14T09:10:35.000Z</Time>
            <Position>
              <LatitudeDegrees>43.4006173722445964813232421875</LatitudeDegrees>
              <LongitudeDegrees>-3.981240727007389068603515625</LongitudeDegrees>
            </Position>
            <AltitudeMeters>95.59999847412109375</AltitudeMeters>
            <DistanceMeters>NAN</DistanceMeters>
          </Trackpoint>
          <Trackpoint>
            <Time>2022-07-14T09:10:40.000Z</Time>
            <Position>
              <LatitudeDegrees>43.40060354210436344146728515625</LatitudeDegrees>
              <LongitudeDegrees>-3.98147282190620899200439453125</LongitudeDegrees>
            </Position>
            <AltitudeMeters>95.59999847412109375</AltitudeMeters>
            <DistanceMeters>NAN</DistanceMeters>
          </Trackpoint>
          <Trackpoint>
            <Time>2022-07-14T09:10:41.000Z</Time>
            <Position>
              <LatitudeDegrees>43.400607816874980926513671875</LatitudeDegrees>
              <LongitudeDegrees>-3.98151397705078125</LongitudeDegrees>
            </Position>
            <AltitudeMeters>95.59999847412109375</AltitudeMeters>
            <DistanceMeters>NAN</DistanceMeters>
          </Trackpoint>
          <Trackpoint>
            <Time>2022-07-14T09:10:46.000Z</Time>
            <Position>
              <LatitudeDegrees>43.4006066434085369110107421875</LatitudeDegrees>
              <LongitudeDegrees>-3.98164817132055759429931640625</LongitudeDegrees>
            </Position>
            <AltitudeMeters>96.1999969482421875</AltitudeMeters>
            <DistanceMeters>NAN</DistanceMeters>
          </Trackpoint>
          <Trackpoint>
            <Time>2022-07-14T09:10:50.000Z</Time>
            <Position>
              <LatitudeDegrees>43.400611169636249542236328125</LatitudeDegrees>
              <LongitudeDegrees>-3.9817518554627895355224609375</LongitudeDegrees>
            </Position>
            <AltitudeMeters>97</AltitudeMeters>
            <DistanceMeters>NAN</DistanceMeters>
          </Trackpoint>
          <Trackpoint>
            <Time>2022-07-14T09:10:53.000Z</Time>
            <Position>
              <LatitudeDegrees>43.4006187133491039276123046875</LatitudeDegrees>
              <LongitudeDegrees>-3.98180088959634304046630859375</LongitudeDegrees>
            </Position>
            <AltitudeMeters>97.59999847412109375</AltitudeMeters>
            <DistanceMeters>NAN</DistanceMeters>
          </Trackpoint>
          <Trackpoint>
            <Time>2022-07-14T09:10:57.000Z</Time>
            <Position>
              <LatitudeDegrees>43.40063832700252532958984375</LatitudeDegrees>
              <LongitudeDegrees>-3.9818772487342357635498046875</LongitudeDegrees>
            </Position>
            <AltitudeMeters>98</AltitudeMeters>
            <DistanceMeters>NAN</DistanceMeters>
          </Trackpoint>
          <Trackpoint>
            <Time>2022-07-14T09:11:02.000Z</Time>
            <Position>
              <LatitudeDegrees>43.40066204778850078582763671875</LatitudeDegrees>
              <LongitudeDegrees>-3.98196391761302947998046875</LongitudeDegrees>
            </Position>
            <AltitudeMeters>98.8000030517578125</AltitudeMeters>
            <DistanceMeters>NAN</DistanceMeters>
          </Trackpoint>
          <Trackpoint>
            <Time>2022-07-14T09:11:04.000Z</Time>
            <Position>
              <LatitudeDegrees>43.40066649019718170166015625</LatitudeDegrees>
              <LongitudeDegrees>-3.98200171999633312225341796875</LongitudeDegrees>
            </Position>
            <AltitudeMeters>99.1999969482421875</AltitudeMeters>
            <DistanceMeters>NAN</DistanceMeters>
          </Trackpoint>
          <Trackpoint>
            <Time>2022-07-14T09:11:05.000Z</Time>
            <Position>
              <LatitudeDegrees>43.4006713517010211944580078125</LatitudeDegrees>
              <LongitudeDegrees>-3.98202292621135711669921875</LongitudeDegrees>
            </Position>
            <AltitudeMeters>99.1999969482421875</AltitudeMeters>
            <DistanceMeters>NAN</DistanceMeters>
          </Trackpoint>
          <Trackpoint>
            <Time>2022-07-14T09:11:08.000Z</Time>
            <Position>
              <LatitudeDegrees>43.40067847631871700286865234375</LatitudeDegrees>
              <LongitudeDegrees>-3.9820733852684497833251953125</LongitudeDegrees>
            </Position>
            <AltitudeMeters>99.59999847412109375</AltitudeMeters>
            <DistanceMeters>NAN</DistanceMeters>
          </Trackpoint>
          <Trackpoint>
            <Time>2022-07-14T09:11:09.000Z</Time>
            <Position>
              <LatitudeDegrees>43.40067629702389240264892578125</LatitudeDegrees>
              <LongitudeDegrees>-3.9820914901793003082275390625</LongitudeDegrees>
            </Position>
            <AltitudeMeters>100</AltitudeMeters>
            <DistanceMeters>NAN</DistanceMeters>
          </Trackpoint>
          <Trackpoint>
            <Time>2022-07-14T09:11:11.000Z</Time>
            <Position>
              <LatitudeDegrees>43.4006834216415882110595703125</LatitudeDegrees>
              <LongitudeDegrees>-3.982127867639064788818359375</LongitudeDegrees>
            </Position>
            <AltitudeMeters>100.1999969482421875</AltitudeMeters>
            <DistanceMeters>NAN</DistanceMeters>
          </Trackpoint>
          <Trackpoint>
            <Time>2022-07-14T09:11:12.000Z</Time>
            <Position>
              <LatitudeDegrees>43.4006877802312374114990234375</LatitudeDegrees>
              <LongitudeDegrees>-3.9821437932550907135009765625</LongitudeDegrees>
            </Position>
            <AltitudeMeters>100.1999969482421875</AltitudeMeters>
            <DistanceMeters>NAN</DistanceMeters>
          </Trackpoint>
          <Trackpoint>
            <Time>2022-07-14T09:11:15.000Z</Time>
            <Position>
              <LatitudeDegrees>43.40070093981921672821044921875</LatitudeDegrees>
              <LongitudeDegrees>-3.982197605073451995849609375</LongitudeDegrees>
            </Position>
            <AltitudeMeters>100.59999847412109375</AltitudeMeters>
            <DistanceMeters>NAN</DistanceMeters>
          </Trackpoint>
          <Trackpoint>
            <Time>2022-07-14T09:11:20.000Z</Time>
            <Position>
              <LatitudeDegrees>43.400706388056278228759765625</LatitudeDegrees>
              <LongitudeDegrees>-3.982294499874114990234375</LongitudeDegrees>
            </Position>
            <AltitudeMeters>101.1999969482421875</AltitudeMeters>
            <DistanceMeters>NAN</DistanceMeters>
          </Trackpoint>
          <Trackpoint>
            <Time>2022-07-14T09:11:23.000Z</Time>
            <Position>
              <LatitudeDegrees>43.4007075615227222442626953125</LatitudeDegrees>
              <LongitudeDegrees>-3.9823429472744464874267578125</LongitudeDegrees>
            </Position>
            <AltitudeMeters>101.59999847412109375</AltitudeMeters>
            <DistanceMeters>NAN</DistanceMeters>
          </Trackpoint>
          <Trackpoint>
            <Time>2022-07-14T09:11:28.000Z</Time>
            <Position>
              <LatitudeDegrees>43.40072625316679477691650390625</LatitudeDegrees>
              <LongitudeDegrees>-3.98243422619998455047607421875</LongitudeDegrees>
            </Position>
            <AltitudeMeters>102.40000152587890625</AltitudeMeters>
            <DistanceMeters>NAN</DistanceMeters>
          </Trackpoint>
          <Trackpoint>
            <Time>2022-07-14T09:11:31.000Z</Time>
            <Position>
              <LatitudeDegrees>43.4007380716502666473388671875</LatitudeDegrees>
              <LongitudeDegrees>-3.98247781209647655487060546875</LongitudeDegrees>
            </Position>
            <AltitudeMeters>102.8000030517578125</AltitudeMeters>
            <DistanceMeters>NAN</DistanceMeters>
          </Trackpoint>
          <Trackpoint>
            <Time>2022-07-14T09:11:33.000Z</Time>
            <Position>
              <LatitudeDegrees>43.4007444418966770172119140625</LatitudeDegrees>
              <LongitudeDegrees>-3.98249709047377109527587890625</LongitudeDegrees>
            </Position>
            <AltitudeMeters>103.1999969482421875</AltitudeMeters>
            <DistanceMeters>NAN</DistanceMeters>
          </Trackpoint>
          <Trackpoint>
            <Time>2022-07-14T09:11:37.000Z</Time>
            <Position>
              <LatitudeDegrees>43.40074419043958187103271484375</LatitudeDegrees>
              <LongitudeDegrees>-3.98256875574588775634765625</LongitudeDegrees>
            </Position>
            <AltitudeMeters>103.40000152587890625</AltitudeMeters>
            <DistanceMeters>NAN</DistanceMeters>
          </Trackpoint>
          <Trackpoint>
            <Time>2022-07-14T09:11:38.000Z</Time>
            <Position>
              <LatitudeDegrees>43.40074695646762847900390625</LatitudeDegrees>
              <LongitudeDegrees>-3.982581160962581634521484375</LongitudeDegrees>
            </Position>
            <AltitudeMeters>103.40000152587890625</AltitudeMeters>
            <DistanceMeters>NAN</DistanceMeters>
          </Trackpoint>
          <Trackpoint>
            <Time>2022-07-14T09:11:39.000Z</Time>
            <Position>
              <LatitudeDegrees>43.40074955485761165618896484375</LatitudeDegrees>
              <LongitudeDegrees>-3.98259289562702178955078125</LongitudeDegrees>
            </Position>
            <AltitudeMeters>103.40000152587890625</AltitudeMeters>
            <DistanceMeters>NAN</DistanceMeters>
          </Trackpoint>
          <Trackpoint>
            <Time>2022-07-14T09:11:41.000Z</Time>
            <Position>
              <LatitudeDegrees>43.40075575746595859527587890625</LatitudeDegrees>
              <LongitudeDegrees>-3.98263338021934032440185546875</LongitudeDegrees>
            </Position>
            <AltitudeMeters>103.59999847412109375</AltitudeMeters>
            <DistanceMeters>NAN</DistanceMeters>
          </Trackpoint>
          <Trackpoint>
            <Time>2022-07-14T09:11:44.000Z</Time>
            <Position>
              <LatitudeDegrees>43.40077335946261882781982421875</LatitudeDegrees>
              <LongitudeDegrees>-3.9826842583715915679931640625</LongitudeDegrees>
            </Position>
            <AltitudeMeters>103.8000030517578125</AltitudeMeters>
            <DistanceMeters>NAN</DistanceMeters>
          </Trackpoint>
          <Trackpoint>
            <Time>2022-07-14T09:11:47.000Z</Time>
            <Position>
              <LatitudeDegrees>43.40079967863857746124267578125</LatitudeDegrees>
              <LongitudeDegrees>-3.98274385370314121246337890625</LongitudeDegrees>
            </Position>
            <AltitudeMeters>103.8000030517578125</AltitudeMeters>
            <DistanceMeters>NAN</DistanceMeters>
          </Trackpoint>
          <Trackpoint>
            <Time>2022-07-14T09:11:53.000Z</Time>
            <Position>
              <LatitudeDegrees>43.400752656161785125732421875</LatitudeDegrees>
              <LongitudeDegrees>-3.9829159341752529144287109375</LongitudeDegrees>
            </Position>
            <AltitudeMeters>103.8000030517578125</AltitudeMeters>
            <DistanceMeters>NAN</DistanceMeters>
          </Trackpoint>
          <Trackpoint>
            <Time>2022-07-14T09:11:58.000Z</Time>
            <Position>
              <LatitudeDegrees>43.4006698429584503173828125</LatitudeDegrees>
              <LongitudeDegrees>-3.98308508098125457763671875</LongitudeDegrees>
            </Position>
            <AltitudeMeters>103.59999847412109375</AltitudeMeters>
            <DistanceMeters>NAN</DistanceMeters>
          </Trackpoint>
          <Trackpoint>
            <Time>2022-07-14T09:12:01.000Z</Time>
            <Position>
              <LatitudeDegrees>43.40062734670937061309814453125</LatitudeDegrees>
              <LongitudeDegrees>-3.98318457417190074920654296875</LongitudeDegrees>
            </Position>
            <AltitudeMeters>103.59999847412109375</AltitudeMeters>
            <DistanceMeters>NAN</DistanceMeters>
          </Trackpoint>
          <Trackpoint>
            <Time>2022-07-14T09:12:07.000Z</Time>
            <Position>
              <LatitudeDegrees>43.40055073611438274383544921875</LatitudeDegrees>
              <LongitudeDegrees>-3.98335288278758525848388671875</LongitudeDegrees>
            </Position>
            <AltitudeMeters>103.59999847412109375</AltitudeMeters>
            <DistanceMeters>NAN</DistanceMeters>
          </Trackpoint>
          <Trackpoint>
            <Time>2022-07-14T09:12:14.000Z</Time>
            <Position>
              <LatitudeDegrees>43.40044814161956310272216796875</LatitudeDegrees>
              <LongitudeDegrees>-3.9835452474653720855712890625</LongitudeDegrees>
            </Position>
            <AltitudeMeters>103.1999969482421875</AltitudeMeters>
            <DistanceMeters>NAN</DistanceMeters>
          </Trackpoint>
          <Trackpoint>
            <Time>2022-07-14T09:12:16.000Z</Time>
            <Position>
              <LatitudeDegrees>43.400430791079998016357421875</LatitudeDegrees>
              <LongitudeDegrees>-3.983598053455352783203125</LongitudeDegrees>
            </Position>
            <AltitudeMeters>103</AltitudeMeters>
            <DistanceMeters>NAN</DistanceMeters>
          </Trackpoint>
          <Trackpoint>
            <Time>2022-07-14T09:12:19.000Z</Time>
            <Position>
              <LatitudeDegrees>43.40040505863726139068603515625</LatitudeDegrees>
              <LongitudeDegrees>-3.9836699701845645904541015625</LongitudeDegrees>
            </Position>
            <AltitudeMeters>102.8000030517578125</AltitudeMeters>
            <DistanceMeters>NAN</DistanceMeters>
          </Trackpoint>
          <Trackpoint>
            <Time>2022-07-14T09:12:20.000Z</Time>
            <Position>
              <LatitudeDegrees>43.40040229260921478271484375</LatitudeDegrees>
              <LongitudeDegrees>-3.98367726244032382965087890625</LongitudeDegrees>
            </Position>
            <AltitudeMeters>102.59999847412109375</AltitudeMeters>
            <DistanceMeters>NAN</DistanceMeters>
          </Trackpoint>
          <Trackpoint>
            <Time>2022-07-14T09:12:22.000Z</Time>
            <Position>
              <LatitudeDegrees>43.40040229260921478271484375</LatitudeDegrees>
              <LongitudeDegrees>-3.98367726244032382965087890625</LongitudeDegrees>
            </Position>
            <AltitudeMeters>102.40000152587890625</AltitudeMeters>
            <DistanceMeters>NAN</DistanceMeters>
          </Trackpoint>
          <Trackpoint>
            <Time>2022-07-14T09:13:09.000Z</Time>
            <Position>
              <LatitudeDegrees>43.4003816731274127960205078125</LatitudeDegrees>
              <LongitudeDegrees>-3.98373685777187347412109375</LongitudeDegrees>
            </Position>
            <AltitudeMeters>102</AltitudeMeters>
            <DistanceMeters>NAN</DistanceMeters>
          </Trackpoint>
          <Trackpoint>
            <Time>2022-07-14T09:13:10.000Z</Time>
            <Position>
              <LatitudeDegrees>43.40036666952073574066162109375</LatitudeDegrees>
              <LongitudeDegrees>-3.983759321272373199462890625</LongitudeDegrees>
            </Position>
            <AltitudeMeters>102</AltitudeMeters>
            <DistanceMeters>NAN</DistanceMeters>
          </Trackpoint>
          <Trackpoint>
            <Time>2022-07-14T09:13:15.000Z</Time>
            <Position>
              <LatitudeDegrees>43.4002703614532947540283203125</LatitudeDegrees>
              <LongitudeDegrees>-3.98393123410642147064208984375</LongitudeDegrees>
            </Position>
            <AltitudeMeters>101.8000030517578125</AltitudeMeters>
            <DistanceMeters>NAN</DistanceMeters>
          </Trackpoint>
          <Trackpoint>
            <Time>2022-07-14T09:13:17.000Z</Time>
            <Position>
              <LatitudeDegrees>43.40024244971573352813720703125</LatitudeDegrees>
              <LongitudeDegrees>-3.98399309255182743072509765625</LongitudeDegrees>
            </Position>
            <AltitudeMeters>101.8000030517578125</AltitudeMeters>
            <DistanceMeters>NAN</DistanceMeters>
          </Trackpoint>
          <Trackpoint>
            <Time>2022-07-14T09:13:20.000Z</Time>
            <Position>
              <LatitudeDegrees>43.40019282884895801544189453125</LatitudeDegrees>
              <LongitudeDegrees>-3.98409367538988590240478515625</LongitudeDegrees>
            </Position>
            <AltitudeMeters>101.8000030517578125</AltitudeMeters>
            <DistanceMeters>NAN</DistanceMeters>
          </Trackpoint>
          <Trackpoint>
            <Time>2022-07-14T09:13:23.000Z</Time>
            <Position>
              <LatitudeDegrees>43.400143124163150787353515625</LatitudeDegrees>
              <LongitudeDegrees>-3.98420917801558971405029296875</LongitudeDegrees>
            </Position>
            <AltitudeMeters>101.8000030517578125</AltitudeMeters>
            <DistanceMeters>NAN</DistanceMeters>
          </Trackpoint>
          <Trackpoint>
            <Time>2022-07-14T09:13:27.000Z</Time>
            <Position>
              <LatitudeDegrees>43.40009643696248531341552734375</LatitudeDegrees>
              <LongitudeDegrees>-3.9843881316483020782470703125</LongitudeDegrees>
            </Position>
            <AltitudeMeters>101.8000030517578125</AltitudeMeters>
            <DistanceMeters>NAN</DistanceMeters>
          </Trackpoint>
          <Trackpoint>
            <Time>2022-07-14T09:13:35.000Z</Time>
            <Position>
              <LatitudeDegrees>43.400020413100719451904296875</LatitudeDegrees>
              <LongitudeDegrees>-3.98480060510337352752685546875</LongitudeDegrees>
            </Position>
            <AltitudeMeters>102</AltitudeMeters>
            <DistanceMeters>NAN</DistanceMeters>
          </Trackpoint>
          <Trackpoint>
            <Time>2022-07-14T09:13:43.000Z</Time>
            <Position>
              <LatitudeDegrees>43.399950675666332244873046875</LatitudeDegrees>
              <LongitudeDegrees>-3.98522355593740940093994140625</LongitudeDegrees>
            </Position>
            <AltitudeMeters>102.1999969482421875</AltitudeMeters>
            <DistanceMeters>NAN</DistanceMeters>
          </Trackpoint>
          <Trackpoint>
            <Time>2022-07-14T09:13:45.000Z</Time>
            <Position>
              <LatitudeDegrees>43.39993416331708431243896484375</LatitudeDegrees>
              <LongitudeDegrees>-3.9853213727474212646484375</LongitudeDegrees>
            </Position>
            <AltitudeMeters>102.1999969482421875</AltitudeMeters>
            <DistanceMeters>NAN</DistanceMeters>
          </Trackpoint>
          <Trackpoint>
            <Time>2022-07-14T09:13:49.000Z</Time>
            <Position>
              <LatitudeDegrees>43.3999062515795230865478515625</LatitudeDegrees>
              <LongitudeDegrees>-3.98550510406494140625</LongitudeDegrees>
            </Position>
            <AltitudeMeters>102.1999969482421875</AltitudeMeters>
            <DistanceMeters>NAN</DistanceMeters>
          </Trackpoint>
          <Trackpoint>
            <Time>2022-07-14T09:13:51.000Z</Time>
            <Position>
              <LatitudeDegrees>43.39989108033478260040283203125</LatitudeDegrees>
              <LongitudeDegrees>-3.98559160530567169189453125</LongitudeDegrees>
            </Position>
            <AltitudeMeters>102.1999969482421875</AltitudeMeters>
            <DistanceMeters>NAN</DistanceMeters>
          </Trackpoint>
          <Trackpoint>
            <Time>2022-07-14T09:13:53.000Z</Time>
            <Position>
              <LatitudeDegrees>43.3998737297952175140380859375</LatitudeDegrees>
              <LongitudeDegrees>-3.9857004024088382720947265625</LongitudeDegrees>
            </Position>
            <AltitudeMeters>102.40000152587890625</AltitudeMeters>
            <DistanceMeters>NAN</DistanceMeters>
          </Trackpoint>
          <Trackpoint>
            <Time>2022-07-14T09:13:54.000Z</Time>
            <Position>
              <LatitudeDegrees>43.3998670242726802825927734375</LatitudeDegrees>
              <LongitudeDegrees>-3.98574708960950374603271484375</LongitudeDegrees>
            </Position>
            <AltitudeMeters>102.40000152587890625</AltitudeMeters>
            <DistanceMeters>NAN</DistanceMeters>
          </Trackpoint>
          <Trackpoint>
            <Time>2022-07-14T09:14:01.000Z</Time>
            <Position>
              <LatitudeDegrees>43.3998140506446361541748046875</LatitudeDegrees>
              <LongitudeDegrees>-3.98609862662851810455322265625</LongitudeDegrees>
            </Position>
            <AltitudeMeters>102.59999847412109375</AltitudeMeters>
            <DistanceMeters>NAN</DistanceMeters>
          </Trackpoint>
          <Trackpoint>
            <Time>2022-07-14T09:14:02.000Z</Time>
            <Position>
              <LatitudeDegrees>43.3998049981892108917236328125</LatitudeDegrees>
              <LongitudeDegrees>-3.9861510135233402252197265625</LongitudeDegrees>
            </Position>
            <AltitudeMeters>102.59999847412109375</AltitudeMeters>
            <DistanceMeters>NAN</DistanceMeters>
          </Trackpoint>
          <Trackpoint>
            <Time>2022-07-14T09:14:04.000Z</Time>
            <Position>
              <LatitudeDegrees>43.3997848816215991973876953125</LatitudeDegrees>
              <LongitudeDegrees>-3.98625754751265048980712890625</LongitudeDegrees>
            </Position>
            <AltitudeMeters>102.59999847412109375</AltitudeMeters>
            <DistanceMeters>NAN</DistanceMeters>
          </Trackpoint>
          <Trackpoint>
            <Time>2022-07-14T09:14:07.000Z</Time>
            <Position>
              <LatitudeDegrees>43.39975613169372081756591796875</LatitudeDegrees>
              <LongitudeDegrees>-3.986412025988101959228515625</LongitudeDegrees>
            </Position>
            <AltitudeMeters>102.59999847412109375</AltitudeMeters>
            <DistanceMeters>NAN</DistanceMeters>
          </Trackpoint>
          <Trackpoint>
            <Time>2022-07-14T09:14:08.000Z</Time>
            <Position>
              <LatitudeDegrees>43.3997443132102489471435546875</LatitudeDegrees>
              <LongitudeDegrees>-3.98646424524486064910888671875</LongitudeDegrees>
            </Position>
            <AltitudeMeters>102.59999847412109375</AltitudeMeters>
            <DistanceMeters>NAN</DistanceMeters>
          </Trackpoint>
          <Trackpoint>
            <Time>2022-07-14T09:14:11.000Z</Time>
            <Position>
              <LatitudeDegrees>43.39970466680824756622314453125</LatitudeDegrees>
              <LongitudeDegrees>-3.98662953637540340423583984375</LongitudeDegrees>
            </Position>
            <AltitudeMeters>102.40000152587890625</AltitudeMeters>
            <DistanceMeters>NAN</DistanceMeters>
          </Trackpoint>
          <Trackpoint>
            <Time>2022-07-14T09:14:15.000Z</Time>
            <Position>
              <LatitudeDegrees>43.39962252415716648101806640625</LatitudeDegrees>
              <LongitudeDegrees>-3.986842520534992218017578125</LongitudeDegrees>
            </Position>
            <AltitudeMeters>102.40000152587890625</AltitudeMeters>
            <DistanceMeters>NAN</DistanceMeters>
          </Trackpoint>
          <Trackpoint>
            <Time>2022-07-14T09:14:18.000Z</Time>
            <Position>
              <LatitudeDegrees>43.39953518472611904144287109375</LatitudeDegrees>
              <LongitudeDegrees>-3.98702147416770458221435546875</LongitudeDegrees>
            </Position>
            <AltitudeMeters>102</AltitudeMeters>
            <DistanceMeters>NAN</DistanceMeters>
          </Trackpoint>
          <Trackpoint>
            <Time>2022-07-14T09:14:26.000Z</Time>
            <Position>
              <LatitudeDegrees>43.399345166981220245361328125</LatitudeDegrees>
              <LongitudeDegrees>-3.98741760291159152984619140625</LongitudeDegrees>
            </Position>
            <AltitudeMeters>101.8000030517578125</AltitudeMeters>
            <DistanceMeters>NAN</DistanceMeters>
          </Trackpoint>
          <Trackpoint>
            <Time>2022-07-14T09:14:28.000Z</Time>
            <Position>
              <LatitudeDegrees>43.39933351613581180572509765625</LatitudeDegrees>
              <LongitudeDegrees>-3.98750829510390758514404296875</LongitudeDegrees>
            </Position>
            <AltitudeMeters>102</AltitudeMeters>
            <DistanceMeters>NAN</DistanceMeters>
          </Trackpoint>
          <Trackpoint>
            <Time>2022-07-14T09:14:30.000Z</Time>
            <Position>
              <LatitudeDegrees>43.39934424497187137603759765625</LatitudeDegrees>
              <LongitudeDegrees>-3.9876027591526508331298828125</LongitudeDegrees>
            </Position>
            <AltitudeMeters>102</AltitudeMeters>
            <DistanceMeters>NAN</DistanceMeters>
          </Trackpoint>
          <Trackpoint>
            <Time>2022-07-14T09:14:34.000Z</Time>
            <Position>
              <LatitudeDegrees>43.39940945617854595184326171875</LatitudeDegrees>
              <LongitudeDegrees>-3.987694121897220611572265625</LongitudeDegrees>
            </Position>
            <AltitudeMeters>101.8000030517578125</AltitudeMeters>
            <DistanceMeters>NAN</DistanceMeters>
          </Trackpoint>
          <Trackpoint>
            <Time>2022-07-14T09:14:39.000Z</Time>
            <Position>
              <LatitudeDegrees>43.3994774334132671356201171875</LatitudeDegrees>
              <LongitudeDegrees>-3.98773326538503170013427734375</LongitudeDegrees>
            </Position>
            <AltitudeMeters>101.59999847412109375</AltitudeMeters>
            <DistanceMeters>NAN</DistanceMeters>
          </Trackpoint>
          <Trackpoint>
            <Time>2022-07-14T09:14:46.000Z</Time>
            <Position>
              <LatitudeDegrees>43.3995701372623443603515625</LatitudeDegrees>
              <LongitudeDegrees>-3.98785245604813098907470703125</LongitudeDegrees>
            </Position>
            <AltitudeMeters>102.1999969482421875</AltitudeMeters>
            <DistanceMeters>NAN</DistanceMeters>
          </Trackpoint>
          <Trackpoint>
            <Time>2022-07-14T09:14:50.000Z</Time>
            <Position>
              <LatitudeDegrees>43.3996501006186008453369140625</LatitudeDegrees>
              <LongitudeDegrees>-3.98796343244612216949462890625</LongitudeDegrees>
            </Position>
            <AltitudeMeters>102.8000030517578125</AltitudeMeters>
            <DistanceMeters>NAN</DistanceMeters>
          </Trackpoint>
          <Trackpoint>
            <Time>2022-07-14T09:14:53.000Z</Time>
            <Position>
              <LatitudeDegrees>43.39971019886434078216552734375</LatitudeDegrees>
              <LongitudeDegrees>-3.98804155178368091583251953125</LongitudeDegrees>
            </Position>
            <AltitudeMeters>102.8000030517578125</AltitudeMeters>
            <DistanceMeters>NAN</DistanceMeters>
          </Trackpoint>
          <Trackpoint>
            <Time>2022-07-14T09:14:59.000Z</Time>
            <Position>
              <LatitudeDegrees>43.39984062127768993377685546875</LatitudeDegrees>
              <LongitudeDegrees>-3.98817499168217182159423828125</LongitudeDegrees>
            </Position>
            <AltitudeMeters>102.8000030517578125</AltitudeMeters>
            <DistanceMeters>NAN</DistanceMeters>
          </Trackpoint>
          <Trackpoint>
            <Time>2022-07-14T09:15:04.000Z</Time>
            <Position>
              <LatitudeDegrees>43.39993516914546489715576171875</LatitudeDegrees>
              <LongitudeDegrees>-3.9882977865636348724365234375</LongitudeDegrees>
            </Position>
            <AltitudeMeters>102.40000152587890625</AltitudeMeters>
            <DistanceMeters>NAN</DistanceMeters>
          </Trackpoint>
          <Trackpoint>
            <Time>2022-07-14T09:15:11.000Z</Time>
            <Position>
              <LatitudeDegrees>43.40004547499120235443115234375</LatitudeDegrees>
              <LongitudeDegrees>-3.9884769916534423828125</LongitudeDegrees>
            </Position>
            <AltitudeMeters>101.1999969482421875</AltitudeMeters>
            <DistanceMeters>NAN</DistanceMeters>
          </Trackpoint>
          <Trackpoint>
            <Time>2022-07-14T09:15:13.000Z</Time>
            <Position>
              <LatitudeDegrees>43.4000743925571441650390625</LatitudeDegrees>
              <LongitudeDegrees>-3.98851579986512660980224609375</LongitudeDegrees>
            </Position>
            <AltitudeMeters>100.59999847412109375</AltitudeMeters>
            <DistanceMeters>NAN</DistanceMeters>
          </Trackpoint>
          <Trackpoint>
            <Time>2022-07-14T09:15:15.000Z</Time>
            <Position>
              <LatitudeDegrees>43.400082774460315704345703125</LatitudeDegrees>
              <LongitudeDegrees>-3.98852401413023471832275390625</LongitudeDegrees>
            </Position>
            <AltitudeMeters>100</AltitudeMeters>
            <DistanceMeters>NAN</DistanceMeters>
          </Trackpoint>
          <Trackpoint>
            <Time>2022-07-14T09:15:16.000Z</Time>
            <Position>
              <LatitudeDegrees>43.400082774460315704345703125</LatitudeDegrees>
              <LongitudeDegrees>-3.98852401413023471832275390625</LongitudeDegrees>
            </Position>
            <AltitudeMeters>100</AltitudeMeters>
            <DistanceMeters>NAN</DistanceMeters>
          </Trackpoint>
          <Trackpoint>
            <Time>2022-07-14T09:16:07.000Z</Time>
            <Position>
              <LatitudeDegrees>43.40009291656315326690673828125</LatitudeDegrees>
              <LongitudeDegrees>-3.9885700307786464691162109375</LongitudeDegrees>
            </Position>
            <AltitudeMeters>99.8000030517578125</AltitudeMeters>
            <DistanceMeters>NAN</DistanceMeters>
          </Trackpoint>
          <Trackpoint>
            <Time>2022-07-14T09:16:09.000Z</Time>
            <Position>
              <LatitudeDegrees>43.40012309141457080841064453125</LatitudeDegrees>
              <LongitudeDegrees>-3.98870338685810565948486328125</LongitudeDegrees>
            </Position>
            <AltitudeMeters>99.8000030517578125</AltitudeMeters>
            <DistanceMeters>NAN</DistanceMeters>
          </Trackpoint>
          <Trackpoint>
            <Time>2022-07-14T09:16:11.000Z</Time>
            <Position>
              <LatitudeDegrees>43.40015552937984466552734375</LatitudeDegrees>
              <LongitudeDegrees>-3.98884118534624576568603515625</LongitudeDegrees>
            </Position>
            <AltitudeMeters>99.59999847412109375</AltitudeMeters>
            <DistanceMeters>NAN</DistanceMeters>
          </Trackpoint>
          <Trackpoint>
            <Time>2022-07-14T09:16:13.000Z</Time>
            <Position>
              <LatitudeDegrees>43.4001979418098926544189453125</LatitudeDegrees>
              <LongitudeDegrees>-3.989041261374950408935546875</LongitudeDegrees>
            </Position>
            <AltitudeMeters>98.8000030517578125</AltitudeMeters>
            <DistanceMeters>NAN</DistanceMeters>
          </Trackpoint>
          <Trackpoint>
            <Time>2022-07-14T09:16:14.000Z</Time>
            <Position>
              <LatitudeDegrees>43.40021361596882343292236328125</LatitudeDegrees>
              <LongitudeDegrees>-3.98913371376693248748779296875</LongitudeDegrees>
            </Position>
            <AltitudeMeters>98.40000152587890625</AltitudeMeters>
            <DistanceMeters>NAN</DistanceMeters>
          </Trackpoint>
          <Trackpoint>
            <Time>2022-07-14T09:16:17.000Z</Time>
            <Position>
              <LatitudeDegrees>43.40021722018718719482421875</LatitudeDegrees>
              <LongitudeDegrees>-3.98941048420965671539306640625</LongitudeDegrees>
            </Position>
            <AltitudeMeters>96.8000030517578125</AltitudeMeters>
            <DistanceMeters>NAN</DistanceMeters>
          </Trackpoint>
          <Trackpoint>
            <Time>2022-07-14T09:16:19.000Z</Time>
            <Position>
              <LatitudeDegrees>43.40020741336047649383544921875</LatitudeDegrees>
              <LongitudeDegrees>-3.98963210172951221466064453125</LongitudeDegrees>
            </Position>
            <AltitudeMeters>95.8000030517578125</AltitudeMeters>
            <DistanceMeters>NAN</DistanceMeters>
          </Trackpoint>
          <Trackpoint>
            <Time>2022-07-14T09:16:21.000Z</Time>
            <Position>
              <LatitudeDegrees>43.40020892210304737091064453125</LatitudeDegrees>
              <LongitudeDegrees>-3.989840559661388397216796875</LongitudeDegrees>
            </Position>
            <AltitudeMeters>94.59999847412109375</AltitudeMeters>
            <DistanceMeters>NAN</DistanceMeters>
          </Trackpoint>
          <Trackpoint>
            <Time>2022-07-14T09:16:23.000Z</Time>
            <Position>
              <LatitudeDegrees>43.40022216551005840301513671875</LatitudeDegrees>
              <LongitudeDegrees>-3.9900278113782405853271484375</LongitudeDegrees>
            </Position>
            <AltitudeMeters>93.40000152587890625</AltitudeMeters>
            <DistanceMeters>NAN</DistanceMeters>
          </Trackpoint>
          <Trackpoint>
            <Time>2022-07-14T09:16:24.000Z</Time>
            <Position>
              <LatitudeDegrees>43.40023842640221118927001953125</LatitudeDegrees>
              <LongitudeDegrees>-3.99014691822230815887451171875</LongitudeDegrees>
            </Position>
            <AltitudeMeters>92.8000030517578125</AltitudeMeters>
            <DistanceMeters>NAN</DistanceMeters>
          </Trackpoint>
          <Trackpoint>
            <Time>2022-07-14T09:16:25.000Z</Time>
            <Position>
              <LatitudeDegrees>43.400261141359806060791015625</LatitudeDegrees>
              <LongitudeDegrees>-3.99024062789976596832275390625</LongitudeDegrees>
            </Position>
            <AltitudeMeters>92.1999969482421875</AltitudeMeters>
            <DistanceMeters>NAN</DistanceMeters>
          </Trackpoint>
          <Trackpoint>
            <Time>2022-07-14T09:16:27.000Z</Time>
            <Position>
              <LatitudeDegrees>43.40032157488167285919189453125</LatitudeDegrees>
              <LongitudeDegrees>-3.99042335338890552520751953125</LongitudeDegrees>
            </Position>
            <AltitudeMeters>90.59999847412109375</AltitudeMeters>
            <DistanceMeters>NAN</DistanceMeters>
          </Trackpoint>
          <Trackpoint>
            <Time>2022-07-14T09:16:29.000Z</Time>
            <Position>
              <LatitudeDegrees>43.400363065302371978759765625</LatitudeDegrees>
              <LongitudeDegrees>-3.990630805492401123046875</LongitudeDegrees>
            </Position>
            <AltitudeMeters>88.8000030517578125</AltitudeMeters>
            <DistanceMeters>NAN</DistanceMeters>
          </Trackpoint>
          <Trackpoint>
            <Time>2022-07-14T09:16:30.000Z</Time>
            <Position>
              <LatitudeDegrees>43.40037454850971698760986328125</LatitudeDegrees>
              <LongitudeDegrees>-3.990740440785884857177734375</LongitudeDegrees>
            </Position>
            <AltitudeMeters>87.8000030517578125</AltitudeMeters>
            <DistanceMeters>NAN</DistanceMeters>
          </Trackpoint>
          <Trackpoint>
            <Time>2022-07-14T09:16:31.000Z</Time>
            <Position>
              <LatitudeDegrees>43.400381840765476226806640625</LatitudeDegrees>
              <LongitudeDegrees>-3.99084999226033687591552734375</LongitudeDegrees>
            </Position>
            <AltitudeMeters>86.59999847412109375</AltitudeMeters>
            <DistanceMeters>NAN</DistanceMeters>
          </Trackpoint>
          <Trackpoint>
            <Time>2022-07-14T09:16:32.000Z</Time>
            <Position>
              <LatitudeDegrees>43.40038158930838108062744140625</LatitudeDegrees>
              <LongitudeDegrees>-3.99095468223094940185546875</LongitudeDegrees>
            </Position>
            <AltitudeMeters>85.59999847412109375</AltitudeMeters>
            <DistanceMeters>NAN</DistanceMeters>
          </Trackpoint>
          <Trackpoint>
            <Time>2022-07-14T09:16:33.000Z</Time>
            <Position>
              <LatitudeDegrees>43.40037605725228786468505859375</LatitudeDegrees>
              <LongitudeDegrees>-3.9910369925200939178466796875</LongitudeDegrees>
            </Position>
            <AltitudeMeters>84.40000152587890625</AltitudeMeters>
            <DistanceMeters>NAN</DistanceMeters>
          </Trackpoint>
          <Trackpoint>
            <Time>2022-07-14T09:16:34.000Z</Time>
            <Position>
              <LatitudeDegrees>43.4003612212836742401123046875</LatitudeDegrees>
              <LongitudeDegrees>-3.9911369048058986663818359375</LongitudeDegrees>
            </Position>
            <AltitudeMeters>83.1999969482421875</AltitudeMeters>
            <DistanceMeters>NAN</DistanceMeters>
          </Trackpoint>
          <Trackpoint>
            <Time>2022-07-14T09:16:35.000Z</Time>
            <Position>
              <LatitudeDegrees>43.4003307111561298370361328125</LatitudeDegrees>
              <LongitudeDegrees>-3.99124712683260440826416015625</LongitudeDegrees>
            </Position>
            <AltitudeMeters>82.1999969482421875</AltitudeMeters>
            <DistanceMeters>NAN</DistanceMeters>
          </Trackpoint>
          <Trackpoint>
            <Time>2022-07-14T09:16:36.000Z</Time>
            <Position>
              <LatitudeDegrees>43.40029777027666568756103515625</LatitudeDegrees>
              <LongitudeDegrees>-3.99133446626365184783935546875</LongitudeDegrees>
            </Position>
            <AltitudeMeters>80.8000030517578125</AltitudeMeters>
            <DistanceMeters>NAN</DistanceMeters>
          </Trackpoint>
          <Trackpoint>
            <Time>2022-07-14T09:16:37.000Z</Time>
            <Position>
              <LatitudeDegrees>43.4002599678933620452880859375</LatitudeDegrees>
              <LongitudeDegrees>-3.9914202131330966949462890625</LongitudeDegrees>
            </Position>
            <AltitudeMeters>79.59999847412109375</AltitudeMeters>
            <DistanceMeters>NAN</DistanceMeters>
          </Trackpoint>
          <Trackpoint>
            <Time>2022-07-14T09:16:38.000Z</Time>
            <Position>
              <LatitudeDegrees>43.40023607946932315826416015625</LatitudeDegrees>
              <LongitudeDegrees>-3.99149053730070590972900390625</LongitudeDegrees>
            </Position>
            <AltitudeMeters>78.1999969482421875</AltitudeMeters>
            <DistanceMeters>NAN</DistanceMeters>
          </Trackpoint>
          <Trackpoint>
            <Time>2022-07-14T09:16:39.000Z</Time>
            <Position>
              <LatitudeDegrees>43.40021780692040920257568359375</LatitudeDegrees>
              <LongitudeDegrees>-3.99157804436981678009033203125</LongitudeDegrees>
            </Position>
            <AltitudeMeters>77.1999969482421875</AltitudeMeters>
            <DistanceMeters>NAN</DistanceMeters>
          </Trackpoint>
          <Trackpoint>
            <Time>2022-07-14T09:16:40.000Z</Time>
            <Position>
              <LatitudeDegrees>43.4002116881310939788818359375</LatitudeDegrees>
              <LongitudeDegrees>-3.99169321171939373016357421875</LongitudeDegrees>
            </Position>
            <AltitudeMeters>76</AltitudeMeters>
            <DistanceMeters>NAN</DistanceMeters>
          </Trackpoint>
          <Trackpoint>
            <Time>2022-07-14T09:16:41.000Z</Time>
            <Position>
              <LatitudeDegrees>43.4002271108329296112060546875</LatitudeDegrees>
              <LongitudeDegrees>-3.9917890168726444244384765625</LongitudeDegrees>
            </Position>
            <AltitudeMeters>75</AltitudeMeters>
            <DistanceMeters>NAN</DistanceMeters>
          </Trackpoint>
          <Trackpoint>
            <Time>2022-07-14T09:16:42.000Z</Time>
            <Position>
              <LatitudeDegrees>43.4002603031694889068603515625</LatitudeDegrees>
              <LongitudeDegrees>-3.9918788708746433258056640625</LongitudeDegrees>
            </Position>
            <AltitudeMeters>74</AltitudeMeters>
            <DistanceMeters>NAN</DistanceMeters>
          </Trackpoint>
          <Trackpoint>
            <Time>2022-07-14T09:16:43.000Z</Time>
            <Position>
              <LatitudeDegrees>43.40030330233275890350341796875</LatitudeDegrees>
              <LongitudeDegrees>-3.991955481469631195068359375</LongitudeDegrees>
            </Position>
            <AltitudeMeters>72.8000030517578125</AltitudeMeters>
            <DistanceMeters>NAN</DistanceMeters>
          </Trackpoint>
          <Trackpoint>
            <Time>2022-07-14T09:16:44.000Z</Time>
            <Position>
              <LatitudeDegrees>43.40035392902791500091552734375</LatitudeDegrees>
              <LongitudeDegrees>-3.992027901113033294677734375</LongitudeDegrees>
            </Position>
            <AltitudeMeters>71.59999847412109375</AltitudeMeters>
            <DistanceMeters>NAN</DistanceMeters>
          </Trackpoint>
          <Trackpoint>
            <Time>2022-07-14T09:16:45.000Z</Time>
            <Position>
              <LatitudeDegrees>43.40039969421923160552978515625</LatitudeDegrees>
              <LongitudeDegrees>-3.99208095856010913848876953125</LongitudeDegrees>
            </Position>
            <AltitudeMeters>70.40000152587890625</AltitudeMeters>
            <DistanceMeters>NAN</DistanceMeters>
          </Trackpoint>
          <Trackpoint>
            <Time>2022-07-14T09:16:46.000Z</Time>
            <Position>
              <LatitudeDegrees>43.40047010220587253570556640625</LatitudeDegrees>
              <LongitudeDegrees>-3.99215706624090671539306640625</LongitudeDegrees>
            </Position>
            <AltitudeMeters>69.1999969482421875</AltitudeMeters>
            <DistanceMeters>NAN</DistanceMeters>
          </Trackpoint>
          <Trackpoint>
            <Time>2022-07-14T09:16:47.000Z</Time>
            <Position>
              <LatitudeDegrees>43.40052911080420017242431640625</LatitudeDegrees>
              <LongitudeDegrees>-3.99221356026828289031982421875</LongitudeDegrees>
            </Position>
            <AltitudeMeters>67.8000030517578125</AltitudeMeters>
            <DistanceMeters>NAN</DistanceMeters>
          </Trackpoint>
          <Trackpoint>
            <Time>2022-07-14T09:16:48.000Z</Time>
            <Position>
              <LatitudeDegrees>43.400589711964130401611328125</LatitudeDegrees>
              <LongitudeDegrees>-3.99226033128798007965087890625</LongitudeDegrees>
            </Position>
            <AltitudeMeters>67</AltitudeMeters>
            <DistanceMeters>NAN</DistanceMeters>
          </Trackpoint>
          <Trackpoint>
            <Time>2022-07-14T09:16:49.000Z</Time>
            <Position>
              <LatitudeDegrees>43.40063807554543018341064453125</LatitudeDegrees>
              <LongitudeDegrees>-3.99228178896009922027587890625</LongitudeDegrees>
            </Position>
            <AltitudeMeters>65.8000030517578125</AltitudeMeters>
            <DistanceMeters>NAN</DistanceMeters>
          </Trackpoint>
          <Trackpoint>
            <Time>2022-07-14T09:16:50.000Z</Time>
            <Position>
              <LatitudeDegrees>43.4007182903587818145751953125</LatitudeDegrees>
              <LongitudeDegrees>-3.9922926016151905059814453125</LongitudeDegrees>
            </Position>
            <AltitudeMeters>64.40000152587890625</AltitudeMeters>
            <DistanceMeters>NAN</DistanceMeters>
          </Trackpoint>
          <Trackpoint>
            <Time>2022-07-14T09:16:51.000Z</Time>
            <Position>
              <LatitudeDegrees>43.4007923863828182220458984375</LatitudeDegrees>
              <LongitudeDegrees>-3.99227508343756198883056640625</LongitudeDegrees>
            </Position>
            <AltitudeMeters>63.40000152587890625</AltitudeMeters>
            <DistanceMeters>NAN</DistanceMeters>
          </Trackpoint>
          <Trackpoint>
            <Time>2022-07-14T09:16:52.000Z</Time>
            <Position>
              <LatitudeDegrees>43.400866985321044921875</LatitudeDegrees>
              <LongitudeDegrees>-3.992242477834224700927734375</LongitudeDegrees>
            </Position>
            <AltitudeMeters>62.40000152587890625</AltitudeMeters>
            <DistanceMeters>NAN</DistanceMeters>
          </Trackpoint>
          <Trackpoint>
            <Time>2022-07-14T09:16:53.000Z</Time>
            <Position>
              <LatitudeDegrees>43.40094678103923797607421875</LatitudeDegrees>
              <LongitudeDegrees>-3.99219713173806667327880859375</LongitudeDegrees>
            </Position>
            <AltitudeMeters>61.40000152587890625</AltitudeMeters>
            <DistanceMeters>NAN</DistanceMeters>
          </Trackpoint>
          <Trackpoint>
            <Time>2022-07-14T09:16:54.000Z</Time>
            <Position>
              <LatitudeDegrees>43.401020877063274383544921875</LatitudeDegrees>
              <LongitudeDegrees>-3.99215907789766788482666015625</LongitudeDegrees>
            </Position>
            <AltitudeMeters>60.40000152587890625</AltitudeMeters>
            <DistanceMeters>NAN</DistanceMeters>
          </Trackpoint>
          <Trackpoint>
            <Time>2022-07-14T09:16:55.000Z</Time>
            <Position>
              <LatitudeDegrees>43.40108717791736125946044921875</LatitudeDegrees>
              <LongitudeDegrees>-3.99213443510234355926513671875</LongitudeDegrees>
            </Position>
            <AltitudeMeters>59</AltitudeMeters>
            <DistanceMeters>NAN</DistanceMeters>
          </Trackpoint>
          <Trackpoint>
            <Time>2022-07-14T09:16:56.000Z</Time>
            <Position>
              <LatitudeDegrees>43.40113176964223384857177734375</LatitudeDegrees>
              <LongitudeDegrees>-3.99212856777012348175048828125</LongitudeDegrees>
            </Position>
            <AltitudeMeters>57.799999237060546875</AltitudeMeters>
            <DistanceMeters>NAN</DistanceMeters>
          </Trackpoint>
          <Trackpoint>
            <Time>2022-07-14T09:16:57.000Z</Time>
            <Position>
              <LatitudeDegrees>43.40117837302386760711669921875</LatitudeDegrees>
              <LongitudeDegrees>-3.99212772957980632781982421875</LongitudeDegrees>
            </Position>
            <AltitudeMeters>56.40000152587890625</AltitudeMeters>
            <DistanceMeters>NAN</DistanceMeters>
          </Trackpoint>
          <Trackpoint>
            <Time>2022-07-14T09:16:58.000Z</Time>
            <Position>
              <LatitudeDegrees>43.4012121520936489105224609375</LatitudeDegrees>
              <LongitudeDegrees>-3.99213242344558238983154296875</LongitudeDegrees>
            </Position>
            <AltitudeMeters>55.40000152587890625</AltitudeMeters>
            <DistanceMeters>NAN</DistanceMeters>
          </Trackpoint>
          <Trackpoint>
            <Time>2022-07-14T09:17:00.000Z</Time>
            <Position>
              <LatitudeDegrees>43.40125389397144317626953125</LatitudeDegrees>
              <LongitudeDegrees>-3.99214734323322772979736328125</LongitudeDegrees>
            </Position>
            <AltitudeMeters>53.799999237060546875</AltitudeMeters>
            <DistanceMeters>NAN</DistanceMeters>
          </Trackpoint>
          <Trackpoint>
            <Time>2022-07-14T09:17:04.000Z</Time>
            <Position>
              <LatitudeDegrees>43.40132153593003749847412109375</LatitudeDegrees>
              <LongitudeDegrees>-3.992183469235897064208984375</LongitudeDegrees>
            </Position>
            <AltitudeMeters>52.799999237060546875</AltitudeMeters>
            <DistanceMeters>NAN</DistanceMeters>
          </Trackpoint>
          <Trackpoint>
            <Time>2022-07-14T09:17:06.000Z</Time>
            <Position>
              <LatitudeDegrees>43.40134215541183948516845703125</LatitudeDegrees>
              <LongitudeDegrees>-3.9922092854976654052734375</LongitudeDegrees>
            </Position>
            <AltitudeMeters>52.200000762939453125</AltitudeMeters>
            <DistanceMeters>NAN</DistanceMeters>
          </Trackpoint>
          <Trackpoint>
            <Time>2022-07-14T09:17:08.000Z</Time>
            <Position>
              <LatitudeDegrees>43.40134215541183948516845703125</LatitudeDegrees>
              <LongitudeDegrees>-3.9922092854976654052734375</LongitudeDegrees>
            </Position>
            <AltitudeMeters>51.799999237060546875</AltitudeMeters>
            <DistanceMeters>NAN</DistanceMeters>
          </Trackpoint>
          <Trackpoint>
            <Time>2022-07-14T09:17:46.000Z</Time>
            <Position>
              <LatitudeDegrees>43.4013618528842926025390625</LatitudeDegrees>
              <LongitudeDegrees>-3.99223954416811466217041015625</LongitudeDegrees>
            </Position>
            <AltitudeMeters>52.200000762939453125</AltitudeMeters>
            <DistanceMeters>NAN</DistanceMeters>
          </Trackpoint>
          <Trackpoint>
            <Time>2022-07-14T09:17:47.000Z</Time>
            <Position>
              <LatitudeDegrees>43.4013868309557437896728515625</LatitudeDegrees>
              <LongitudeDegrees>-3.99227558635175228118896484375</LongitudeDegrees>
            </Position>
            <AltitudeMeters>52.200000762939453125</AltitudeMeters>
            <DistanceMeters>NAN</DistanceMeters>
          </Trackpoint>
          <Trackpoint>
            <Time>2022-07-14T09:17:52.000Z</Time>
            <Position>
              <LatitudeDegrees>43.40153929777443408966064453125</LatitudeDegrees>
              <LongitudeDegrees>-3.9924927614629268646240234375</LongitudeDegrees>
            </Position>
            <AltitudeMeters>51.799999237060546875</AltitudeMeters>
            <DistanceMeters>NAN</DistanceMeters>
          </Trackpoint>
          <Trackpoint>
            <Time>2022-07-14T09:17:56.000Z</Time>
            <Position>
              <LatitudeDegrees>43.40169637463986873626708984375</LatitudeDegrees>
              <LongitudeDegrees>-3.99269887246191501617431640625</LongitudeDegrees>
            </Position>
            <AltitudeMeters>50.40000152587890625</AltitudeMeters>
            <DistanceMeters>NAN</DistanceMeters>
          </Trackpoint>
          <Trackpoint>
            <Time>2022-07-14T09:17:57.000Z</Time>
            <Position>
              <LatitudeDegrees>43.4017427265644073486328125</LatitudeDegrees>
              <LongitudeDegrees>-3.9927395246922969818115234375</LongitudeDegrees>
            </Position>
            <AltitudeMeters>50.200000762939453125</AltitudeMeters>
            <DistanceMeters>NAN</DistanceMeters>
          </Trackpoint>
          <Trackpoint>
            <Time>2022-07-14T09:17:58.000Z</Time>
            <Position>
              <LatitudeDegrees>43.40179343707859516143798828125</LatitudeDegrees>
              <LongitudeDegrees>-3.992771543562412261962890625</LongitudeDegrees>
            </Position>
            <AltitudeMeters>50</AltitudeMeters>
            <DistanceMeters>NAN</DistanceMeters>
          </Trackpoint>
          <Trackpoint>
            <Time>2022-07-14T09:17:59.000Z</Time>
            <Position>
              <LatitudeDegrees>43.401849679648876190185546875</LatitudeDegrees>
              <LongitudeDegrees>-3.99279576726257801055908203125</LongitudeDegrees>
            </Position>
            <AltitudeMeters>49.59999847412109375</AltitudeMeters>
            <DistanceMeters>NAN</DistanceMeters>
          </Trackpoint>
          <Trackpoint>
            <Time>2022-07-14T09:18:00.000Z</Time>
            <Position>
              <LatitudeDegrees>43.40190826915204524993896484375</LatitudeDegrees>
              <LongitudeDegrees>-3.9928047358989715576171875</LongitudeDegrees>
            </Position>
            <AltitudeMeters>49.200000762939453125</AltitudeMeters>
            <DistanceMeters>NAN</DistanceMeters>
          </Trackpoint>
          <Trackpoint>
            <Time>2022-07-14T09:18:01.000Z</Time>
            <Position>
              <LatitudeDegrees>43.4019571356475353240966796875</LatitudeDegrees>
              <LongitudeDegrees>-3.99280004203319549560546875</LongitudeDegrees>
            </Position>
            <AltitudeMeters>48.799999237060546875</AltitudeMeters>
            <DistanceMeters>NAN</DistanceMeters>
          </Trackpoint>
          <Trackpoint>
            <Time>2022-07-14T09:18:02.000Z</Time>
            <Position>
              <LatitudeDegrees>43.40203575789928436279296875</LatitudeDegrees>
              <LongitudeDegrees>-3.99277917109429836273193359375</LongitudeDegrees>
            </Position>
            <AltitudeMeters>48.40000152587890625</AltitudeMeters>
            <DistanceMeters>NAN</DistanceMeters>
          </Trackpoint>
          <Trackpoint>
            <Time>2022-07-14T09:18:03.000Z</Time>
            <Position>
              <LatitudeDegrees>43.40210004709661006927490234375</LatitudeDegrees>
              <LongitudeDegrees>-3.99275042116641998291015625</LongitudeDegrees>
            </Position>
            <AltitudeMeters>47.799999237060546875</AltitudeMeters>
            <DistanceMeters>NAN</DistanceMeters>
          </Trackpoint>
          <Trackpoint>
            <Time>2022-07-14T09:18:06.000Z</Time>
            <Position>
              <LatitudeDegrees>43.40225259773433208465576171875</LatitudeDegrees>
              <LongitudeDegrees>-3.9926634170114994049072265625</LongitudeDegrees>
            </Position>
            <AltitudeMeters>46.40000152587890625</AltitudeMeters>
            <DistanceMeters>NAN</DistanceMeters>
          </Trackpoint>
          <Trackpoint>
            <Time>2022-07-14T09:18:07.000Z</Time>
            <Position>
              <LatitudeDegrees>43.4022883884608745574951171875</LatitudeDegrees>
              <LongitudeDegrees>-3.9926436357200145721435546875</LongitudeDegrees>
            </Position>
            <AltitudeMeters>45.799999237060546875</AltitudeMeters>
            <DistanceMeters>NAN</DistanceMeters>
          </Trackpoint>
          <Trackpoint>
            <Time>2022-07-14T09:18:08.000Z</Time>
            <Position>
              <LatitudeDegrees>43.40231747366487979888916015625</LatitudeDegrees>
              <LongitudeDegrees>-3.992624022066593170166015625</LongitudeDegrees>
            </Position>
            <AltitudeMeters>45.40000152587890625</AltitudeMeters>
            <DistanceMeters>NAN</DistanceMeters>
          </Trackpoint>
          <Trackpoint>
            <Time>2022-07-14T09:18:10.000Z</Time>
            <Position>
              <LatitudeDegrees>43.40234287083148956298828125</LatitudeDegrees>
              <LongitudeDegrees>-3.99259460158646106719970703125</LongitudeDegrees>
            </Position>
            <AltitudeMeters>45</AltitudeMeters>
            <DistanceMeters>NAN</DistanceMeters>
          </Trackpoint>
          <Trackpoint>
            <Time>2022-07-14T09:18:15.000Z</Time>
            <Position>
              <LatitudeDegrees>43.40237212367355823516845703125</LatitudeDegrees>
              <LongitudeDegrees>-3.992546908557415008544921875</LongitudeDegrees>
            </Position>
            <AltitudeMeters>44.40000152587890625</AltitudeMeters>
            <DistanceMeters>NAN</DistanceMeters>
          </Trackpoint>
          <Trackpoint>
            <Time>2022-07-14T09:18:16.000Z</Time>
            <Position>
              <LatitudeDegrees>43.40237212367355823516845703125</LatitudeDegrees>
              <LongitudeDegrees>-3.992546908557415008544921875</LongitudeDegrees>
            </Position>
            <AltitudeMeters>44.40000152587890625</AltitudeMeters>
            <DistanceMeters>NAN</DistanceMeters>
          </Trackpoint>
          <Trackpoint>
            <Time>2022-07-14T09:18:58.000Z</Time>
            <Position>
              <LatitudeDegrees>43.40243565849959850311279296875</LatitudeDegrees>
              <LongitudeDegrees>-3.99246283806860446929931640625</LongitudeDegrees>
            </Position>
            <AltitudeMeters>43.799999237060546875</AltitudeMeters>
            <DistanceMeters>NAN</DistanceMeters>
          </Trackpoint>
          <Trackpoint>
            <Time>2022-07-14T09:19:00.000Z</Time>
            <Position>
              <LatitudeDegrees>43.4024717845022678375244140625</LatitudeDegrees>
              <LongitudeDegrees>-3.99240181781351566314697265625</LongitudeDegrees>
            </Position>
            <AltitudeMeters>43.59999847412109375</AltitudeMeters>
            <DistanceMeters>NAN</DistanceMeters>
          </Trackpoint>
          <Trackpoint>
            <Time>2022-07-14T09:19:02.000Z</Time>
            <Position>
              <LatitudeDegrees>43.40252702124416828155517578125</LatitudeDegrees>
              <LongitudeDegrees>-3.9923599921166896820068359375</LongitudeDegrees>
            </Position>
            <AltitudeMeters>43.59999847412109375</AltitudeMeters>
            <DistanceMeters>NAN</DistanceMeters>
          </Trackpoint>
          <Trackpoint>
            <Time>2022-07-14T09:19:04.000Z</Time>
            <Position>
              <LatitudeDegrees>43.4025763906538486480712890625</LatitudeDegrees>
              <LongitudeDegrees>-3.992370553314685821533203125</LongitudeDegrees>
            </Position>
            <AltitudeMeters>43.40000152587890625</AltitudeMeters>
            <DistanceMeters>NAN</DistanceMeters>
          </Trackpoint>
          <Trackpoint>
            <Time>2022-07-14T09:19:06.000Z</Time>
            <Position>
              <LatitudeDegrees>43.4025951661169528961181640625</LatitudeDegrees>
              <LongitudeDegrees>-3.99241791106760501861572265625</LongitudeDegrees>
            </Position>
            <AltitudeMeters>43.40000152587890625</AltitudeMeters>
            <DistanceMeters>NAN</DistanceMeters>
          </Trackpoint>
          <Trackpoint>
            <Time>2022-07-14T09:19:07.000Z</Time>
            <Position>
              <LatitudeDegrees>43.40259323827922344207763671875</LatitudeDegrees>
              <LongitudeDegrees>-3.992447666823863983154296875</LongitudeDegrees>
            </Position>
            <AltitudeMeters>43.799999237060546875</AltitudeMeters>
            <DistanceMeters>NAN</DistanceMeters>
          </Trackpoint>
          <Trackpoint>
            <Time>2022-07-14T09:19:08.000Z</Time>
            <Position>
              <LatitudeDegrees>43.4025894664227962493896484375</LatitudeDegrees>
              <LongitudeDegrees>-3.99246853776276111602783203125</LongitudeDegrees>
            </Position>
            <AltitudeMeters>44</AltitudeMeters>
            <DistanceMeters>NAN</DistanceMeters>
          </Trackpoint>
          <Trackpoint>
            <Time>2022-07-14T09:19:13.000Z</Time>
            <Position>
              <LatitudeDegrees>43.4025554358959197998046875</LatitudeDegrees>
              <LongitudeDegrees>-3.992534838616847991943359375</LongitudeDegrees>
            </Position>
            <AltitudeMeters>44</AltitudeMeters>
            <DistanceMeters>NAN</DistanceMeters>
          </Trackpoint>
          <Trackpoint>
            <Time>2022-07-14T09:19:14.000Z</Time>
            <Position>
              <LatitudeDegrees>43.40255300514400005340576171875</LatitudeDegrees>
              <LongitudeDegrees>-3.99253693409264087677001953125</LongitudeDegrees>
            </Position>
            <AltitudeMeters>44</AltitudeMeters>
            <DistanceMeters>NAN</DistanceMeters>
          </Trackpoint>
          <Trackpoint>
            <Time>2022-07-14T09:19:16.000Z</Time>
            <Position>
              <LatitudeDegrees>43.40255300514400005340576171875</LatitudeDegrees>
              <LongitudeDegrees>-3.99253693409264087677001953125</LongitudeDegrees>
            </Position>
            <AltitudeMeters>44</AltitudeMeters>
            <DistanceMeters>NAN</DistanceMeters>
          </Trackpoint>
          <Trackpoint>
            <Time>2022-07-14T09:19:57.000Z</Time>
            <Position>
              <LatitudeDegrees>43.40259005315601825714111328125</LatitudeDegrees>
              <LongitudeDegrees>-3.992469124495983123779296875</LongitudeDegrees>
            </Position>
            <AltitudeMeters>43.799999237060546875</AltitudeMeters>
            <DistanceMeters>NAN</DistanceMeters>
          </Trackpoint>
          <Trackpoint>
            <Time>2022-07-14T09:19:59.000Z</Time>
            <Position>
              <LatitudeDegrees>43.4025649912655353546142578125</LatitudeDegrees>
              <LongitudeDegrees>-3.99239310063421726226806640625</LongitudeDegrees>
            </Position>
            <AltitudeMeters>43.799999237060546875</AltitudeMeters>
            <DistanceMeters>NAN</DistanceMeters>
          </Trackpoint>
          <Trackpoint>
            <Time>2022-07-14T09:20:02.000Z</Time>
            <Position>
              <LatitudeDegrees>43.4024895541369915008544921875</LatitudeDegrees>
              <LongitudeDegrees>-3.99240030907094478607177734375</LongitudeDegrees>
            </Position>
            <AltitudeMeters>43.40000152587890625</AltitudeMeters>
            <DistanceMeters>NAN</DistanceMeters>
          </Trackpoint>
          <Trackpoint>
            <Time>2022-07-14T09:20:03.000Z</Time>
            <Position>
              <LatitudeDegrees>43.40245929546654224395751953125</LatitudeDegrees>
              <LongitudeDegrees>-3.992424868047237396240234375</LongitudeDegrees>
            </Position>
            <AltitudeMeters>43.40000152587890625</AltitudeMeters>
            <DistanceMeters>NAN</DistanceMeters>
          </Trackpoint>
          <Trackpoint>
            <Time>2022-07-14T09:20:08.000Z</Time>
            <Position>
              <LatitudeDegrees>43.402355946600437164306640625</LatitudeDegrees>
              <LongitudeDegrees>-3.99255101568996906280517578125</LongitudeDegrees>
            </Position>
            <AltitudeMeters>43.40000152587890625</AltitudeMeters>
            <DistanceMeters>NAN</DistanceMeters>
          </Trackpoint>
          <Trackpoint>
            <Time>2022-07-14T09:20:14.000Z</Time>
            <Position>
              <LatitudeDegrees>43.40220079757273197174072265625</LatitudeDegrees>
              <LongitudeDegrees>-3.9926660992205142974853515625</LongitudeDegrees>
            </Position>
            <AltitudeMeters>43.799999237060546875</AltitudeMeters>
            <DistanceMeters>NAN</DistanceMeters>
          </Trackpoint>
          <Trackpoint>
            <Time>2022-07-14T09:20:17.000Z</Time>
            <Position>
              <LatitudeDegrees>43.4021365083754062652587890625</LatitudeDegrees>
              <LongitudeDegrees>-3.9927096851170063018798828125</LongitudeDegrees>
            </Position>
            <AltitudeMeters>44</AltitudeMeters>
            <DistanceMeters>NAN</DistanceMeters>
          </Trackpoint>
          <Trackpoint>
            <Time>2022-07-14T09:20:21.000Z</Time>
            <Position>
              <LatitudeDegrees>43.4020500071346759796142578125</LatitudeDegrees>
              <LongitudeDegrees>-3.992764167487621307373046875</LongitudeDegrees>
            </Position>
            <AltitudeMeters>44.40000152587890625</AltitudeMeters>
            <DistanceMeters>NAN</DistanceMeters>
          </Trackpoint>
          <Trackpoint>
            <Time>2022-07-14T09:20:24.000Z</Time>
            <Position>
              <LatitudeDegrees>43.40198102407157421112060546875</LatitudeDegrees>
              <LongitudeDegrees>-3.992801047861576080322265625</LongitudeDegrees>
            </Position>
            <AltitudeMeters>44.799999237060546875</AltitudeMeters>
            <DistanceMeters>NAN</DistanceMeters>
          </Trackpoint>
          <Trackpoint>
            <Time>2022-07-14T09:20:27.000Z</Time>
            <Position>
              <LatitudeDegrees>43.40191950090229511260986328125</LatitudeDegrees>
              <LongitudeDegrees>-3.9928152970969676971435546875</LongitudeDegrees>
            </Position>
            <AltitudeMeters>45.200000762939453125</AltitudeMeters>
            <DistanceMeters>NAN</DistanceMeters>
          </Trackpoint>
          <Trackpoint>
            <Time>2022-07-14T09:20:30.000Z</Time>
            <Position>
              <LatitudeDegrees>43.40185563080012798309326171875</LatitudeDegrees>
              <LongitudeDegrees>-3.99280414916574954986572265625</LongitudeDegrees>
            </Position>
            <AltitudeMeters>45.40000152587890625</AltitudeMeters>
            <DistanceMeters>NAN</DistanceMeters>
          </Trackpoint>
          <Trackpoint>
            <Time>2022-07-14T09:20:31.000Z</Time>
            <Position>
              <LatitudeDegrees>43.4018297307193279266357421875</LatitudeDegrees>
              <LongitudeDegrees>-3.99279761128127574920654296875</LongitudeDegrees>
            </Position>
            <AltitudeMeters>45.59999847412109375</AltitudeMeters>
            <DistanceMeters>NAN</DistanceMeters>
          </Trackpoint>
          <Trackpoint>
            <Time>2022-07-14T09:20:34.000Z</Time>
            <Position>
              <LatitudeDegrees>43.40176728554069995880126953125</LatitudeDegrees>
              <LongitudeDegrees>-3.99278034456074237823486328125</LongitudeDegrees>
            </Position>
            <AltitudeMeters>46</AltitudeMeters>
            <DistanceMeters>NAN</DistanceMeters>
          </Trackpoint>
          <Trackpoint>
            <Time>2022-07-14T09:20:36.000Z</Time>
            <Position>
              <LatitudeDegrees>43.40173090808093547821044921875</LatitudeDegrees>
              <LongitudeDegrees>-3.992762826383113861083984375</LongitudeDegrees>
            </Position>
            <AltitudeMeters>46.40000152587890625</AltitudeMeters>
            <DistanceMeters>NAN</DistanceMeters>
          </Trackpoint>
          <Trackpoint>
            <Time>2022-07-14T09:20:41.000Z</Time>
            <Position>
              <LatitudeDegrees>43.40164373628795146942138671875</LatitudeDegrees>
              <LongitudeDegrees>-3.99270876310765743255615234375</LongitudeDegrees>
            </Position>
            <AltitudeMeters>47</AltitudeMeters>
            <DistanceMeters>NAN</DistanceMeters>
          </Trackpoint>
          <Trackpoint>
            <Time>2022-07-14T09:20:44.000Z</Time>
            <Position>
              <LatitudeDegrees>43.401606269180774688720703125</LatitudeDegrees>
              <LongitudeDegrees>-3.99265788495540618896484375</LongitudeDegrees>
            </Position>
            <AltitudeMeters>47.59999847412109375</AltitudeMeters>
            <DistanceMeters>NAN</DistanceMeters>
          </Trackpoint>
          <Trackpoint>
            <Time>2022-07-14T09:20:48.000Z</Time>
            <Position>
              <LatitudeDegrees>43.40155832469463348388671875</LatitudeDegrees>
              <LongitudeDegrees>-3.99258420802652835845947265625</LongitudeDegrees>
            </Position>
            <AltitudeMeters>47.799999237060546875</AltitudeMeters>
            <DistanceMeters>NAN</DistanceMeters>
          </Trackpoint>
          <Trackpoint>
            <Time>2022-07-14T09:20:51.000Z</Time>
            <Position>
              <LatitudeDegrees>43.4015259705483913421630859375</LatitudeDegrees>
              <LongitudeDegrees>-3.99253106676042079925537109375</LongitudeDegrees>
            </Position>
            <AltitudeMeters>48.200000762939453125</AltitudeMeters>
            <DistanceMeters>NAN</DistanceMeters>
          </Trackpoint>
          <Trackpoint>
            <Time>2022-07-14T09:20:59.000Z</Time>
            <Position>
              <LatitudeDegrees>43.4014481864869594573974609375</LatitudeDegrees>
              <LongitudeDegrees>-3.992384970188140869140625</LongitudeDegrees>
            </Position>
            <AltitudeMeters>48.59999847412109375</AltitudeMeters>
            <DistanceMeters>NAN</DistanceMeters>
          </Trackpoint>
          <Trackpoint>
            <Time>2022-07-14T09:21:07.000Z</Time>
            <Position>
              <LatitudeDegrees>43.40134986676275730133056640625</LatitudeDegrees>
              <LongitudeDegrees>-3.992265947163105010986328125</LongitudeDegrees>
            </Position>
            <AltitudeMeters>49.40000152587890625</AltitudeMeters>
            <DistanceMeters>NAN</DistanceMeters>
          </Trackpoint>
          <Trackpoint>
            <Time>2022-07-14T09:21:11.000Z</Time>
            <Position>
              <LatitudeDegrees>43.4013023413717746734619140625</LatitudeDegrees>
              <LongitudeDegrees>-3.99219461716711521148681640625</LongitudeDegrees>
            </Position>
            <AltitudeMeters>49.799999237060546875</AltitudeMeters>
            <DistanceMeters>NAN</DistanceMeters>
          </Trackpoint>
          <Trackpoint>
            <Time>2022-07-14T09:21:14.000Z</Time>
            <Position>
              <LatitudeDegrees>43.4012701548635959625244140625</LatitudeDegrees>
              <LongitudeDegrees>-3.99214382283389568328857421875</LongitudeDegrees>
            </Position>
            <AltitudeMeters>50</AltitudeMeters>
            <DistanceMeters>NAN</DistanceMeters>
          </Trackpoint>
          <Trackpoint>
            <Time>2022-07-14T09:21:15.000Z</Time>
            <Position>
              <LatitudeDegrees>43.401253558695316314697265625</LatitudeDegrees>
              <LongitudeDegrees>-3.9921316690742969512939453125</LongitudeDegrees>
            </Position>
            <AltitudeMeters>50</AltitudeMeters>
            <DistanceMeters>NAN</DistanceMeters>
          </Trackpoint>
          <Trackpoint>
            <Time>2022-07-14T09:21:20.000Z</Time>
            <Position>
              <LatitudeDegrees>43.40117552317678928375244140625</LatitudeDegrees>
              <LongitudeDegrees>-3.9921172522008419036865234375</LongitudeDegrees>
            </Position>
            <AltitudeMeters>50.59999847412109375</AltitudeMeters>
            <DistanceMeters>NAN</DistanceMeters>
          </Trackpoint>
          <Trackpoint>
            <Time>2022-07-14T09:21:21.000Z</Time>
            <Position>
              <LatitudeDegrees>43.40116144157946109771728515625</LatitudeDegrees>
              <LongitudeDegrees>-3.99211951531469821929931640625</LongitudeDegrees>
            </Position>
            <AltitudeMeters>50.799999237060546875</AltitudeMeters>
            <DistanceMeters>NAN</DistanceMeters>
          </Trackpoint>
          <Trackpoint>
            <Time>2022-07-14T09:21:23.000Z</Time>
            <Position>
              <LatitudeDegrees>43.4011290036141872406005859375</LatitudeDegrees>
              <LongitudeDegrees>-3.9921422302722930908203125</LongitudeDegrees>
            </Position>
            <AltitudeMeters>51</AltitudeMeters>
            <DistanceMeters>NAN</DistanceMeters>
          </Trackpoint>
          <Trackpoint>
            <Time>2022-07-14T09:21:24.000Z</Time>
            <Position>
              <LatitudeDegrees>43.40111483819782733917236328125</LatitudeDegrees>
              <LongitudeDegrees>-3.99216041900217533111572265625</LongitudeDegrees>
            </Position>
            <AltitudeMeters>51</AltitudeMeters>
            <DistanceMeters>NAN</DistanceMeters>
          </Trackpoint>
          <Trackpoint>
            <Time>2022-07-14T09:21:28.000Z</Time>
            <Position>
              <LatitudeDegrees>43.40106454677879810333251953125</LatitudeDegrees>
              <LongitudeDegrees>-3.9922587387263774871826171875</LongitudeDegrees>
            </Position>
            <AltitudeMeters>51.200000762939453125</AltitudeMeters>
            <DistanceMeters>NAN</DistanceMeters>
          </Trackpoint>
          <Trackpoint>
            <Time>2022-07-14T09:21:32.000Z</Time>
            <Position>
              <LatitudeDegrees>43.40098994784057140350341796875</LatitudeDegrees>
              <LongitudeDegrees>-3.99239209480583667755126953125</LongitudeDegrees>
            </Position>
            <AltitudeMeters>51</AltitudeMeters>
            <DistanceMeters>NAN</DistanceMeters>
          </Trackpoint>
          <Trackpoint>
            <Time>2022-07-14T09:21:33.000Z</Time>
            <Position>
              <LatitudeDegrees>43.40097100473940372467041015625</LatitudeDegrees>
              <LongitudeDegrees>-3.9924307353794574737548828125</LongitudeDegrees>
            </Position>
            <AltitudeMeters>50.799999237060546875</AltitudeMeters>
            <DistanceMeters>NAN</DistanceMeters>
          </Trackpoint>
          <Trackpoint>
            <Time>2022-07-14T09:21:34.000Z</Time>
            <Position>
              <LatitudeDegrees>43.4009516425430774688720703125</LatitudeDegrees>
              <LongitudeDegrees>-3.992469124495983123779296875</LongitudeDegrees>
            </Position>
            <AltitudeMeters>50.799999237060546875</AltitudeMeters>
            <DistanceMeters>NAN</DistanceMeters>
          </Trackpoint>
          <Trackpoint>
            <Time>2022-07-14T09:21:35.000Z</Time>
            <Position>
              <LatitudeDegrees>43.40093462727963924407958984375</LatitudeDegrees>
              <LongitudeDegrees>-3.9925014786422252655029296875</LongitudeDegrees>
            </Position>
            <AltitudeMeters>50.799999237060546875</AltitudeMeters>
            <DistanceMeters>NAN</DistanceMeters>
          </Trackpoint>
          <Trackpoint>
            <Time>2022-07-14T09:21:40.000Z</Time>
            <Position>
              <LatitudeDegrees>43.40080286376178264617919921875</LatitudeDegrees>
              <LongitudeDegrees>-3.9927425421774387359619140625</LongitudeDegrees>
            </Position>
            <AltitudeMeters>49.59999847412109375</AltitudeMeters>
            <DistanceMeters>NAN</DistanceMeters>
          </Trackpoint>
          <Trackpoint>
            <Time>2022-07-14T09:21:42.000Z</Time>
            <Position>
              <LatitudeDegrees>43.4007561765611171722412109375</LatitudeDegrees>
              <LongitudeDegrees>-3.99285729043185710906982421875</LongitudeDegrees>
            </Position>
            <AltitudeMeters>48.59999847412109375</AltitudeMeters>
            <DistanceMeters>NAN</DistanceMeters>
          </Trackpoint>
          <Trackpoint>
            <Time>2022-07-14T09:21:44.000Z</Time>
            <Position>
              <LatitudeDegrees>43.40069574303925037384033203125</LatitudeDegrees>
              <LongitudeDegrees>-3.993007577955722808837890625</LongitudeDegrees>
            </Position>
            <AltitudeMeters>47.40000152587890625</AltitudeMeters>
            <DistanceMeters>NAN</DistanceMeters>
          </Trackpoint>
          <Trackpoint>
            <Time>2022-07-14T09:21:46.000Z</Time>
            <Position>
              <LatitudeDegrees>43.40064042247831821441650390625</LatitudeDegrees>
              <LongitudeDegrees>-3.993150405585765838623046875</LongitudeDegrees>
            </Position>
            <AltitudeMeters>46.40000152587890625</AltitudeMeters>
            <DistanceMeters>NAN</DistanceMeters>
          </Trackpoint>
          <Trackpoint>
            <Time>2022-07-14T09:21:47.000Z</Time>
            <Position>
              <LatitudeDegrees>43.400612175464630126953125</LatitudeDegrees>
              <LongitudeDegrees>-3.99322290904819965362548828125</LongitudeDegrees>
            </Position>
            <AltitudeMeters>45.799999237060546875</AltitudeMeters>
            <DistanceMeters>NAN</DistanceMeters>
          </Trackpoint>
          <Trackpoint>
            <Time>2022-07-14T09:21:49.000Z</Time>
            <Position>
              <LatitudeDegrees>43.40055190958082675933837890625</LatitudeDegrees>
              <LongitudeDegrees>-3.993371017277240753173828125</LongitudeDegrees>
            </Position>
            <AltitudeMeters>44.799999237060546875</AltitudeMeters>
            <DistanceMeters>NAN</DistanceMeters>
          </Trackpoint>
          <Trackpoint>
            <Time>2022-07-14T09:21:51.000Z</Time>
            <Position>
              <LatitudeDegrees>43.40048301033675670623779296875</LatitudeDegrees>
              <LongitudeDegrees>-3.9935156889259815216064453125</LongitudeDegrees>
            </Position>
            <AltitudeMeters>43.200000762939453125</AltitudeMeters>
            <DistanceMeters>NAN</DistanceMeters>
          </Trackpoint>
          <Trackpoint>
            <Time>2022-07-14T09:21:53.000Z</Time>
            <Position>
              <LatitudeDegrees>43.400410674512386322021484375</LatitudeDegrees>
              <LongitudeDegrees>-3.99362272582948207855224609375</LongitudeDegrees>
            </Position>
            <AltitudeMeters>41.59999847412109375</AltitudeMeters>
            <DistanceMeters>NAN</DistanceMeters>
          </Trackpoint>
          <Trackpoint>
            <Time>2022-07-14T09:21:55.000Z</Time>
            <Position>
              <LatitudeDegrees>43.40034822933375835418701171875</LatitudeDegrees>
              <LongitudeDegrees>-3.99369497783482074737548828125</LongitudeDegrees>
            </Position>
            <AltitudeMeters>40.799999237060546875</AltitudeMeters>
            <DistanceMeters>NAN</DistanceMeters>
          </Trackpoint>
          <Trackpoint>
            <Time>2022-07-14T09:21:56.000Z</Time>
            <Position>
              <LatitudeDegrees>43.40031822212040424346923828125</LatitudeDegrees>
              <LongitudeDegrees>-3.993719033896923065185546875</LongitudeDegrees>
            </Position>
            <AltitudeMeters>40.59999847412109375</AltitudeMeters>
            <DistanceMeters>NAN</DistanceMeters>
          </Trackpoint>
          <Trackpoint>
            <Time>2022-07-14T09:21:57.000Z</Time>
            <Position>
              <LatitudeDegrees>43.4002797491848468780517578125</LatitudeDegrees>
              <LongitudeDegrees>-3.9937349595129489898681640625</LongitudeDegrees>
            </Position>
            <AltitudeMeters>40</AltitudeMeters>
            <DistanceMeters>NAN</DistanceMeters>
          </Trackpoint>
          <Trackpoint>
            <Time>2022-07-14T09:21:59.000Z</Time>
            <Position>
              <LatitudeDegrees>43.40022032149136066436767578125</LatitudeDegrees>
              <LongitudeDegrees>-3.99374283850193023681640625</LongitudeDegrees>
            </Position>
            <AltitudeMeters>39.59999847412109375</AltitudeMeters>
            <DistanceMeters>NAN</DistanceMeters>
          </Trackpoint>
          <Trackpoint>
            <Time>2022-07-14T09:22:02.000Z</Time>
            <Position>
              <LatitudeDegrees>43.40016047470271587371826171875</LatitudeDegrees>
              <LongitudeDegrees>-3.9937399886548519134521484375</LongitudeDegrees>
            </Position>
            <AltitudeMeters>39.40000152587890625</AltitudeMeters>
            <DistanceMeters>NAN</DistanceMeters>
          </Trackpoint>
          <Trackpoint>
            <Time>2022-07-14T09:22:08.000Z</Time>
            <Position>
              <LatitudeDegrees>43.4000651724636554718017578125</LatitudeDegrees>
              <LongitudeDegrees>-3.99378231726586818695068359375</LongitudeDegrees>
            </Position>
            <AltitudeMeters>40.200000762939453125</AltitudeMeters>
            <DistanceMeters>NAN</DistanceMeters>
          </Trackpoint>
          <Trackpoint>
            <Time>2022-07-14T09:22:12.000Z</Time>
            <Position>
              <LatitudeDegrees>43.40004581026732921600341796875</LatitudeDegrees>
              <LongitudeDegrees>-3.9938714168965816497802734375</LongitudeDegrees>
            </Position>
            <AltitudeMeters>40.59999847412109375</AltitudeMeters>
            <DistanceMeters>NAN</DistanceMeters>
          </Trackpoint>
          <Trackpoint>
            <Time>2022-07-14T09:22:14.000Z</Time>
            <Position>
              <LatitudeDegrees>43.40003591962158679962158203125</LatitudeDegrees>
              <LongitudeDegrees>-3.99392162449657917022705078125</LongitudeDegrees>
            </Position>
            <AltitudeMeters>40.799999237060546875</AltitudeMeters>
            <DistanceMeters>NAN</DistanceMeters>
          </Trackpoint>
          <Trackpoint>
            <Time>2022-07-14T09:22:19.000Z</Time>
            <Position>
              <LatitudeDegrees>43.40001798234879970550537109375</LatitudeDegrees>
              <LongitudeDegrees>-3.99400829337537288665771484375</LongitudeDegrees>
            </Position>
            <AltitudeMeters>41.59999847412109375</AltitudeMeters>
            <DistanceMeters>NAN</DistanceMeters>
          </Trackpoint>
          <Trackpoint>
            <Time>2022-07-14T09:22:20.000Z</Time>
            <Position>
              <LatitudeDegrees>43.40001680888235569000244140625</LatitudeDegrees>
              <LongitudeDegrees>-3.99401508271694183349609375</LongitudeDegrees>
            </Position>
            <AltitudeMeters>41.799999237060546875</AltitudeMeters>
            <DistanceMeters>NAN</DistanceMeters>
          </Trackpoint>
          <Trackpoint>
            <Time>2022-07-14T09:22:23.000Z</Time>
            <Position>
              <LatitudeDegrees>43.40000373311340808868408203125</LatitudeDegrees>
              <LongitudeDegrees>-3.99404835887253284454345703125</LongitudeDegrees>
            </Position>
            <AltitudeMeters>42.200000762939453125</AltitudeMeters>
            <DistanceMeters>NAN</DistanceMeters>
          </Trackpoint>
          <Trackpoint>
            <Time>2022-07-14T09:22:26.000Z</Time>
            <Position>
              <LatitudeDegrees>43.3999934233725070953369140625</LatitudeDegrees>
              <LongitudeDegrees>-3.99407903663814067840576171875</LongitudeDegrees>
            </Position>
            <AltitudeMeters>42.59999847412109375</AltitudeMeters>
            <DistanceMeters>NAN</DistanceMeters>
          </Trackpoint>
          <Trackpoint>
            <Time>2022-07-14T09:22:27.000Z</Time>
            <Position>
              <LatitudeDegrees>43.3999823592603206634521484375</LatitudeDegrees>
              <LongitudeDegrees>-3.9940910227596759796142578125</LongitudeDegrees>
            </Position>
            <AltitudeMeters>42.799999237060546875</AltitudeMeters>
            <DistanceMeters>NAN</DistanceMeters>
          </Trackpoint>
          <Trackpoint>
            <Time>2022-07-14T09:22:32.000Z</Time>
            <Position>
              <LatitudeDegrees>43.39995997957885265350341796875</LatitudeDegrees>
              <LongitudeDegrees>-3.9941198565065860748291015625</LongitudeDegrees>
            </Position>
            <AltitudeMeters>43.799999237060546875</AltitudeMeters>
            <DistanceMeters>NAN</DistanceMeters>
          </Trackpoint>
          <Trackpoint>
            <Time>2022-07-14T09:22:33.000Z</Time>
            <Position>
              <LatitudeDegrees>43.39995612390339374542236328125</LatitudeDegrees>
              <LongitudeDegrees>-3.994126729667186737060546875</LongitudeDegrees>
            </Position>
            <AltitudeMeters>44</AltitudeMeters>
            <DistanceMeters>NAN</DistanceMeters>
          </Trackpoint>
          <Trackpoint>
            <Time>2022-07-14T09:22:34.000Z</Time>
            <Position>
              <LatitudeDegrees>43.39995143003761768341064453125</LatitudeDegrees>
              <LongitudeDegrees>-3.9941319264471530914306640625</LongitudeDegrees>
            </Position>
            <AltitudeMeters>44</AltitudeMeters>
            <DistanceMeters>NAN</DistanceMeters>
          </Trackpoint>
          <Trackpoint>
            <Time>2022-07-14T09:22:35.000Z</Time>
            <Position>
              <LatitudeDegrees>43.39994556270539760589599609375</LatitudeDegrees>
              <LongitudeDegrees>-3.994136787950992584228515625</LongitudeDegrees>
            </Position>
            <AltitudeMeters>44.200000762939453125</AltitudeMeters>
            <DistanceMeters>NAN</DistanceMeters>
          </Trackpoint>
          <Trackpoint>
            <Time>2022-07-14T09:22:38.000Z</Time>
            <Position>
              <LatitudeDegrees>43.3999424614012241363525390625</LatitudeDegrees>
              <LongitudeDegrees>-3.994137458503246307373046875</LongitudeDegrees>
            </Position>
            <AltitudeMeters>44.59999847412109375</AltitudeMeters>
            <DistanceMeters>NAN</DistanceMeters>
          </Trackpoint>
          <Trackpoint>
            <Time>2022-07-14T09:22:50.000Z</Time>
            <Position>
              <LatitudeDegrees>43.3998076803982257843017578125</LatitudeDegrees>
              <LongitudeDegrees>-3.99437190033495426177978515625</LongitudeDegrees>
            </Position>
            <AltitudeMeters>46</AltitudeMeters>
            <DistanceMeters>NAN</DistanceMeters>
          </Trackpoint>
          <Trackpoint>
            <Time>2022-07-14T09:22:53.000Z</Time>
            <Position>
              <LatitudeDegrees>43.39975646696984767913818359375</LatitudeDegrees>
              <LongitudeDegrees>-3.9944102056324481964111328125</LongitudeDegrees>
            </Position>
            <AltitudeMeters>46.40000152587890625</AltitudeMeters>
            <DistanceMeters>NAN</DistanceMeters>
          </Trackpoint>
          <Trackpoint>
            <Time>2022-07-14T09:22:55.000Z</Time>
            <Position>
              <LatitudeDegrees>43.3997158147394657135009765625</LatitudeDegrees>
              <LongitudeDegrees>-3.99443711154162883758544921875</LongitudeDegrees>
            </Position>
            <AltitudeMeters>46.59999847412109375</AltitudeMeters>
            <DistanceMeters>NAN</DistanceMeters>
          </Trackpoint>
          <Trackpoint>
            <Time>2022-07-14T09:22:57.000Z</Time>
            <Position>
              <LatitudeDegrees>43.39969460852444171905517578125</LatitudeDegrees>
              <LongitudeDegrees>-3.994439542293548583984375</LongitudeDegrees>
            </Position>
            <AltitudeMeters>47</AltitudeMeters>
            <DistanceMeters>NAN</DistanceMeters>
          </Trackpoint>
          <Trackpoint>
            <Time>2022-07-14T09:22:59.000Z</Time>
            <Position>
              <LatitudeDegrees>43.399651609361171722412109375</LatitudeDegrees>
              <LongitudeDegrees>-3.99444113485515117645263671875</LongitudeDegrees>
            </Position>
            <AltitudeMeters>47</AltitudeMeters>
            <DistanceMeters>NAN</DistanceMeters>
          </Trackpoint>
          <Trackpoint>
            <Time>2022-07-14T09:23:02.000Z</Time>
            <Position>
              <LatitudeDegrees>43.3995686285197734832763671875</LatitudeDegrees>
              <LongitudeDegrees>-3.99447466246783733367919921875</LongitudeDegrees>
            </Position>
            <AltitudeMeters>47.59999847412109375</AltitudeMeters>
            <DistanceMeters>NAN</DistanceMeters>
          </Trackpoint>
          <Trackpoint>
            <Time>2022-07-14T09:23:04.000Z</Time>
            <Position>
              <LatitudeDegrees>43.39953116141259670257568359375</LatitudeDegrees>
              <LongitudeDegrees>-3.99450056254863739013671875</LongitudeDegrees>
            </Position>
            <AltitudeMeters>47.799999237060546875</AltitudeMeters>
            <DistanceMeters>NAN</DistanceMeters>
          </Trackpoint>
          <Trackpoint>
            <Time>2022-07-14T09:23:06.000Z</Time>
            <Position>
              <LatitudeDegrees>43.399480618536472320556640625</LatitudeDegrees>
              <LongitudeDegrees>-3.99446661584079265594482421875</LongitudeDegrees>
            </Position>
            <AltitudeMeters>48</AltitudeMeters>
            <DistanceMeters>NAN</DistanceMeters>
          </Trackpoint>
          <Trackpoint>
            <Time>2022-07-14T09:23:07.000Z</Time>
            <Position>
              <LatitudeDegrees>43.39946544729173183441162109375</LatitudeDegrees>
              <LongitudeDegrees>-3.99445689283311367034912109375</LongitudeDegrees>
            </Position>
            <AltitudeMeters>48</AltitudeMeters>
            <DistanceMeters>NAN</DistanceMeters>
          </Trackpoint>
          <Trackpoint>
            <Time>2022-07-14T09:23:08.000Z</Time>
            <Position>
              <LatitudeDegrees>43.3994593285024166107177734375</LatitudeDegrees>
              <LongitudeDegrees>-3.994441218674182891845703125</LongitudeDegrees>
            </Position>
            <AltitudeMeters>48</AltitudeMeters>
            <DistanceMeters>NAN</DistanceMeters>
          </Trackpoint>
          <Trackpoint>
            <Time>2022-07-14T09:23:09.000Z</Time>
            <Position>
              <LatitudeDegrees>43.39945455081760883331298828125</LatitudeDegrees>
              <LongitudeDegrees>-3.9944417215883731842041015625</LongitudeDegrees>
            </Position>
            <AltitudeMeters>48.200000762939453125</AltitudeMeters>
            <DistanceMeters>NAN</DistanceMeters>
          </Trackpoint>
          <Trackpoint>
            <Time>2022-07-14T09:23:13.000Z</Time>
            <Position>
              <LatitudeDegrees>43.39938799850642681121826171875</LatitudeDegrees>
              <LongitudeDegrees>-3.9944913424551486968994140625</LongitudeDegrees>
            </Position>
            <AltitudeMeters>48.40000152587890625</AltitudeMeters>
            <DistanceMeters>NAN</DistanceMeters>
          </Trackpoint>
          <Trackpoint>
            <Time>2022-07-14T09:23:14.000Z</Time>
            <Position>
              <LatitudeDegrees>43.39937224052846431732177734375</LatitudeDegrees>
              <LongitudeDegrees>-3.9945079386234283447265625</LongitudeDegrees>
            </Position>
            <AltitudeMeters>48.59999847412109375</AltitudeMeters>
            <DistanceMeters>NAN</DistanceMeters>
          </Trackpoint>
          <Trackpoint>
            <Time>2022-07-14T09:23:16.000Z</Time>
            <Position>
              <LatitudeDegrees>43.39934885501861572265625</LatitudeDegrees>
              <LongitudeDegrees>-3.994519002735614776611328125</LongitudeDegrees>
            </Position>
            <AltitudeMeters>48.799999237060546875</AltitudeMeters>
            <DistanceMeters>NAN</DistanceMeters>
          </Trackpoint>
          <Trackpoint>
            <Time>2022-07-14T09:23:20.000Z</Time>
            <Position>
              <LatitudeDegrees>43.39929311536252498626708984375</LatitudeDegrees>
              <LongitudeDegrees>-3.99454708211123943328857421875</LongitudeDegrees>
            </Position>
            <AltitudeMeters>48.799999237060546875</AltitudeMeters>
            <DistanceMeters>NAN</DistanceMeters>
          </Trackpoint>
          <Trackpoint>
            <Time>2022-07-14T09:23:22.000Z</Time>
            <Position>
              <LatitudeDegrees>43.3992641977965831756591796875</LatitudeDegrees>
              <LongitudeDegrees>-3.99456233717501163482666015625</LongitudeDegrees>
            </Position>
            <AltitudeMeters>49</AltitudeMeters>
            <DistanceMeters>NAN</DistanceMeters>
          </Trackpoint>
          <Trackpoint>
            <Time>2022-07-14T09:23:23.000Z</Time>
            <Position>
              <LatitudeDegrees>43.39925405569374561309814453125</LatitudeDegrees>
              <LongitudeDegrees>-3.99456887505948543548583984375</LongitudeDegrees>
            </Position>
            <AltitudeMeters>49.200000762939453125</AltitudeMeters>
            <DistanceMeters>NAN</DistanceMeters>
          </Trackpoint>
          <Trackpoint>
            <Time>2022-07-14T09:23:29.000Z</Time>
            <Position>
              <LatitudeDegrees>43.39915866963565349578857421875</LatitudeDegrees>
              <LongitudeDegrees>-3.9946117065846920013427734375</LongitudeDegrees>
            </Position>
            <AltitudeMeters>50.200000762939453125</AltitudeMeters>
            <DistanceMeters>NAN</DistanceMeters>
          </Trackpoint>
          <Trackpoint>
            <Time>2022-07-14T09:23:30.000Z</Time>
            <Position>
              <LatitudeDegrees>43.39914442040026187896728515625</LatitudeDegrees>
              <LongitudeDegrees>-3.99461732245981693267822265625</LongitudeDegrees>
            </Position>
            <AltitudeMeters>50.40000152587890625</AltitudeMeters>
            <DistanceMeters>NAN</DistanceMeters>
          </Trackpoint>
          <Trackpoint>
            <Time>2022-07-14T09:23:38.000Z</Time>
            <Position>
              <LatitudeDegrees>43.39899522252380847930908203125</LatitudeDegrees>
              <LongitudeDegrees>-3.9946348406374454498291015625</LongitudeDegrees>
            </Position>
            <AltitudeMeters>51</AltitudeMeters>
            <DistanceMeters>NAN</DistanceMeters>
          </Trackpoint>
          <Trackpoint>
            <Time>2022-07-14T09:23:40.000Z</Time>
            <Position>
              <LatitudeDegrees>43.3989664725959300994873046875</LatitudeDegrees>
              <LongitudeDegrees>-3.9946328289806842803955078125</LongitudeDegrees>
            </Position>
            <AltitudeMeters>51.40000152587890625</AltitudeMeters>
            <DistanceMeters>NAN</DistanceMeters>
          </Trackpoint>
          <Trackpoint>
            <Time>2022-07-14T09:23:44.000Z</Time>
            <Position>
              <LatitudeDegrees>43.39891257695853710174560546875</LatitudeDegrees>
              <LongitudeDegrees>-3.9946341700851917266845703125</LongitudeDegrees>
            </Position>
            <AltitudeMeters>52</AltitudeMeters>
            <DistanceMeters>NAN</DistanceMeters>
          </Trackpoint>
          <Trackpoint>
            <Time>2022-07-14T09:23:45.000Z</Time>
            <Position>
              <LatitudeDegrees>43.3989004231989383697509765625</LatitudeDegrees>
              <LongitudeDegrees>-3.99463375099003314971923828125</LongitudeDegrees>
            </Position>
            <AltitudeMeters>52.200000762939453125</AltitudeMeters>
            <DistanceMeters>NAN</DistanceMeters>
          </Trackpoint>
          <Trackpoint>
            <Time>2022-07-14T09:23:48.000Z</Time>
            <Position>
              <LatitudeDegrees>43.39886195026338100433349609375</LatitudeDegrees>
              <LongitudeDegrees>-3.99462855421006679534912109375</LongitudeDegrees>
            </Position>
            <AltitudeMeters>52.40000152587890625</AltitudeMeters>
            <DistanceMeters>NAN</DistanceMeters>
          </Trackpoint>
          <Trackpoint>
            <Time>2022-07-14T09:23:49.000Z</Time>
            <Position>
              <LatitudeDegrees>43.3988471142947673797607421875</LatitudeDegrees>
              <LongitudeDegrees>-3.99461681954562664031982421875</LongitudeDegrees>
            </Position>
            <AltitudeMeters>52.59999847412109375</AltitudeMeters>
            <DistanceMeters>NAN</DistanceMeters>
          </Trackpoint>
          <Trackpoint>
            <Time>2022-07-14T09:23:53.000Z</Time>
            <Position>
              <LatitudeDegrees>43.3987954817712306976318359375</LatitudeDegrees>
              <LongitudeDegrees>-3.99460248649120330810546875</LongitudeDegrees>
            </Position>
            <AltitudeMeters>53.40000152587890625</AltitudeMeters>
            <DistanceMeters>NAN</DistanceMeters>
          </Trackpoint>
          <Trackpoint>
            <Time>2022-07-14T09:23:54.000Z</Time>
            <Position>
              <LatitudeDegrees>43.39878165163099765777587890625</LatitudeDegrees>
              <LongitudeDegrees>-3.9945956133306026458740234375</LongitudeDegrees>
            </Position>
            <AltitudeMeters>53.59999847412109375</AltitudeMeters>
            <DistanceMeters>NAN</DistanceMeters>
          </Trackpoint>
          <Trackpoint>
            <Time>2022-07-14T09:24:00.000Z</Time>
            <Position>
              <LatitudeDegrees>43.398716188967227935791015625</LatitudeDegrees>
              <LongitudeDegrees>-3.99453685618937015533447265625</LongitudeDegrees>
            </Position>
            <AltitudeMeters>54.59999847412109375</AltitudeMeters>
            <DistanceMeters>NAN</DistanceMeters>
          </Trackpoint>
          <Trackpoint>
            <Time>2022-07-14T09:24:03.000Z</Time>
            <Position>
              <LatitudeDegrees>43.39867495000362396240234375</LatitudeDegrees>
              <LongitudeDegrees>-3.99449880234897136688232421875</LongitudeDegrees>
            </Position>
            <AltitudeMeters>54.799999237060546875</AltitudeMeters>
            <DistanceMeters>NAN</DistanceMeters>
          </Trackpoint>
          <Trackpoint>
            <Time>2022-07-14T09:24:11.000Z</Time>
            <Position>
              <LatitudeDegrees>43.39857394807040691375732421875</LatitudeDegrees>
              <LongitudeDegrees>-3.99440400302410125732421875</LongitudeDegrees>
            </Position>
            <AltitudeMeters>55</AltitudeMeters>
            <DistanceMeters>NAN</DistanceMeters>
          </Trackpoint>
          <Trackpoint>
            <Time>2022-07-14T09:24:15.000Z</Time>
            <Position>
              <LatitudeDegrees>43.39852281846106052398681640625</LatitudeDegrees>
              <LongitudeDegrees>-3.99434759281575679779052734375</LongitudeDegrees>
            </Position>
            <AltitudeMeters>55.200000762939453125</AltitudeMeters>
            <DistanceMeters>NAN</DistanceMeters>
          </Trackpoint>
          <Trackpoint>
            <Time>2022-07-14T09:24:20.000Z</Time>
            <Position>
              <LatitudeDegrees>43.39844838716089725494384765625</LatitudeDegrees>
              <LongitudeDegrees>-3.99427182041108608245849609375</LongitudeDegrees>
            </Position>
            <AltitudeMeters>55.59999847412109375</AltitudeMeters>
            <DistanceMeters>NAN</DistanceMeters>
          </Trackpoint>
          <Trackpoint>
            <Time>2022-07-14T09:24:21.000Z</Time>
            <Position>
              <LatitudeDegrees>43.3984343893826007843017578125</LatitudeDegrees>
              <LongitudeDegrees>-3.99425690062344074249267578125</LongitudeDegrees>
            </Position>
            <AltitudeMeters>55.59999847412109375</AltitudeMeters>
            <DistanceMeters>NAN</DistanceMeters>
          </Trackpoint>
          <Trackpoint>
            <Time>2022-07-14T09:24:29.000Z</Time>
            <Position>
              <LatitudeDegrees>43.398321568965911865234375</LatitudeDegrees>
              <LongitudeDegrees>-3.99406612850725650787353515625</LongitudeDegrees>
            </Position>
            <AltitudeMeters>55.59999847412109375</AltitudeMeters>
            <DistanceMeters>NAN</DistanceMeters>
          </Trackpoint>
          <Trackpoint>
            <Time>2022-07-14T09:24:39.000Z</Time>
            <Position>
              <LatitudeDegrees>43.39813892729580402374267578125</LatitudeDegrees>
              <LongitudeDegrees>-3.9938295073807239532470703125</LongitudeDegrees>
            </Position>
            <AltitudeMeters>55.200000762939453125</AltitudeMeters>
            <DistanceMeters>NAN</DistanceMeters>
          </Trackpoint>
          <Trackpoint>
            <Time>2022-07-14T09:24:46.000Z</Time>
            <Position>
              <LatitudeDegrees>43.39794413186609745025634765625</LatitudeDegrees>
              <LongitudeDegrees>-3.99374275468289852142333984375</LongitudeDegrees>
            </Position>
            <AltitudeMeters>54.799999237060546875</AltitudeMeters>
            <DistanceMeters>NAN</DistanceMeters>
          </Trackpoint>
          <Trackpoint>
            <Time>2022-07-14T09:24:49.000Z</Time>
            <Position>
              <LatitudeDegrees>43.39785042218863964080810546875</LatitudeDegrees>
              <LongitudeDegrees>-3.99373454041779041290283203125</LongitudeDegrees>
            </Position>
            <AltitudeMeters>54.59999847412109375</AltitudeMeters>
            <DistanceMeters>NAN</DistanceMeters>
          </Trackpoint>
          <Trackpoint>
            <Time>2022-07-14T09:24:52.000Z</Time>
            <Position>
              <LatitudeDegrees>43.39775503613054752349853515625</LatitudeDegrees>
              <LongitudeDegrees>-3.993774354457855224609375</LongitudeDegrees>
            </Position>
            <AltitudeMeters>54.59999847412109375</AltitudeMeters>
            <DistanceMeters>NAN</DistanceMeters>
          </Trackpoint>
          <Trackpoint>
            <Time>2022-07-14T09:24:55.000Z</Time>
            <Position>
              <LatitudeDegrees>43.39768278412520885467529296875</LatitudeDegrees>
              <LongitudeDegrees>-3.993811570107936859130859375</LongitudeDegrees>
            </Position>
            <AltitudeMeters>54.799999237060546875</AltitudeMeters>
            <DistanceMeters>NAN</DistanceMeters>
          </Trackpoint>
          <Trackpoint>
            <Time>2022-07-14T09:24:59.000Z</Time>
            <Position>
              <LatitudeDegrees>43.3975955285131931304931640625</LatitudeDegrees>
              <LongitudeDegrees>-3.9938348717987537384033203125</LongitudeDegrees>
            </Position>
            <AltitudeMeters>55</AltitudeMeters>
            <DistanceMeters>NAN</DistanceMeters>
          </Trackpoint>
          <Trackpoint>
            <Time>2022-07-14T09:25:04.000Z</Time>
            <Position>
              <LatitudeDegrees>43.3975006453692913055419921875</LatitudeDegrees>
              <LongitudeDegrees>-3.9938486181199550628662109375</LongitudeDegrees>
            </Position>
            <AltitudeMeters>55.799999237060546875</AltitudeMeters>
            <DistanceMeters>NAN</DistanceMeters>
          </Trackpoint>
          <Trackpoint>
            <Time>2022-07-14T09:25:06.000Z</Time>
            <Position>
              <LatitudeDegrees>43.3974718116223812103271484375</LatitudeDegrees>
              <LongitudeDegrees>-3.993851132690906524658203125</LongitudeDegrees>
            </Position>
            <AltitudeMeters>56</AltitudeMeters>
            <DistanceMeters>NAN</DistanceMeters>
          </Trackpoint>
          <Trackpoint>
            <Time>2022-07-14T09:25:10.000Z</Time>
            <Position>
              <LatitudeDegrees>43.397416658699512481689453125</LatitudeDegrees>
              <LongitudeDegrees>-3.99383428506553173065185546875</LongitudeDegrees>
            </Position>
            <AltitudeMeters>56.59999847412109375</AltitudeMeters>
            <DistanceMeters>NAN</DistanceMeters>
          </Trackpoint>
          <Trackpoint>
            <Time>2022-07-14T09:25:11.000Z</Time>
            <Position>
              <LatitudeDegrees>43.39740249328315258026123046875</LatitudeDegrees>
              <LongitudeDegrees>-3.99382892064750194549560546875</LongitudeDegrees>
            </Position>
            <AltitudeMeters>56.799999237060546875</AltitudeMeters>
            <DistanceMeters>NAN</DistanceMeters>
          </Trackpoint>
          <Trackpoint>
            <Time>2022-07-14T09:25:12.000Z</Time>
            <Position>
              <LatitudeDegrees>43.3973856456577777862548828125</LatitudeDegrees>
              <LongitudeDegrees>-3.9938271604478359222412109375</LongitudeDegrees>
            </Position>
            <AltitudeMeters>56.799999237060546875</AltitudeMeters>
            <DistanceMeters>NAN</DistanceMeters>
          </Trackpoint>
          <Trackpoint>
            <Time>2022-07-14T09:25:15.000Z</Time>
            <Position>
              <LatitudeDegrees>43.39734465815126895904541015625</LatitudeDegrees>
              <LongitudeDegrees>-3.99380964227020740509033203125</LongitudeDegrees>
            </Position>
            <AltitudeMeters>57.40000152587890625</AltitudeMeters>
            <DistanceMeters>NAN</DistanceMeters>
          </Trackpoint>
          <Trackpoint>
            <Time>2022-07-14T09:25:18.000Z</Time>
            <Position>
              <LatitudeDegrees>43.3973157405853271484375</LatitudeDegrees>
              <LongitudeDegrees>-3.993777371942996978759765625</LongitudeDegrees>
            </Position>
            <AltitudeMeters>58</AltitudeMeters>
            <DistanceMeters>NAN</DistanceMeters>
          </Trackpoint>
          <Trackpoint>
            <Time>2022-07-14T09:25:22.000Z</Time>
            <Position>
              <LatitudeDegrees>43.39727676473557949066162109375</LatitudeDegrees>
              <LongitudeDegrees>-3.993734456598758697509765625</LongitudeDegrees>
            </Position>
            <AltitudeMeters>58.59999847412109375</AltitudeMeters>
            <DistanceMeters>NAN</DistanceMeters>
          </Trackpoint>
          <Trackpoint>
            <Time>2022-07-14T09:25:24.000Z</Time>
            <Position>
              <LatitudeDegrees>43.39725798927247524261474609375</LatitudeDegrees>
              <LongitudeDegrees>-3.993721045553684234619140625</LongitudeDegrees>
            </Position>
            <AltitudeMeters>58.799999237060546875</AltitudeMeters>
            <DistanceMeters>NAN</DistanceMeters>
          </Trackpoint>
          <Trackpoint>
            <Time>2022-07-14T09:25:29.000Z</Time>
            <Position>
              <LatitudeDegrees>43.39719294570386409759521484375</LatitudeDegrees>
              <LongitudeDegrees>-3.9937341213226318359375</LongitudeDegrees>
            </Position>
            <AltitudeMeters>58.799999237060546875</AltitudeMeters>
            <DistanceMeters>NAN</DistanceMeters>
          </Trackpoint>
          <Trackpoint>
            <Time>2022-07-14T09:25:30.000Z</Time>
            <Position>
              <LatitudeDegrees>43.3971797861158847808837890625</LatitudeDegrees>
              <LongitudeDegrees>-3.99375515989959239959716796875</LongitudeDegrees>
            </Position>
            <AltitudeMeters>58.799999237060546875</AltitudeMeters>
            <DistanceMeters>NAN</DistanceMeters>
          </Trackpoint>
          <Trackpoint>
            <Time>2022-07-14T09:25:32.000Z</Time>
            <Position>
              <LatitudeDegrees>43.39716478250920772552490234375</LatitudeDegrees>
              <LongitudeDegrees>-3.9938040263950824737548828125</LongitudeDegrees>
            </Position>
            <AltitudeMeters>58.799999237060546875</AltitudeMeters>
            <DistanceMeters>NAN</DistanceMeters>
          </Trackpoint>
          <Trackpoint>
            <Time>2022-07-14T09:25:34.000Z</Time>
            <Position>
              <LatitudeDegrees>43.3971351943910121917724609375</LatitudeDegrees>
              <LongitudeDegrees>-3.993854820728302001953125</LongitudeDegrees>
            </Position>
            <AltitudeMeters>58.59999847412109375</AltitudeMeters>
            <DistanceMeters>NAN</DistanceMeters>
          </Trackpoint>
          <Trackpoint>
            <Time>2022-07-14T09:25:35.000Z</Time>
            <Position>
              <LatitudeDegrees>43.3971234597265720367431640625</LatitudeDegrees>
              <LongitudeDegrees>-3.9938834868371486663818359375</LongitudeDegrees>
            </Position>
            <AltitudeMeters>58.59999847412109375</AltitudeMeters>
            <DistanceMeters>NAN</DistanceMeters>
          </Trackpoint>
          <Trackpoint>
            <Time>2022-07-14T09:25:36.000Z</Time>
            <Position>
              <LatitudeDegrees>43.397107534110546112060546875</LatitudeDegrees>
              <LongitudeDegrees>-3.99391525425016880035400390625</LongitudeDegrees>
            </Position>
            <AltitudeMeters>58.59999847412109375</AltitudeMeters>
            <DistanceMeters>NAN</DistanceMeters>
          </Trackpoint>
          <Trackpoint>
            <Time>2022-07-14T09:25:38.000Z</Time>
            <Position>
              <LatitudeDegrees>43.39707509614527225494384765625</LatitudeDegrees>
              <LongitudeDegrees>-3.9939890988171100616455078125</LongitudeDegrees>
            </Position>
            <AltitudeMeters>58.40000152587890625</AltitudeMeters>
            <DistanceMeters>NAN</DistanceMeters>
          </Trackpoint>
          <Trackpoint>
            <Time>2022-07-14T09:25:40.000Z</Time>
            <Position>
              <LatitudeDegrees>43.397035114467144012451171875</LatitudeDegrees>
              <LongitudeDegrees>-3.99407451041042804718017578125</LongitudeDegrees>
            </Position>
            <AltitudeMeters>58.40000152587890625</AltitudeMeters>
            <DistanceMeters>NAN</DistanceMeters>
          </Trackpoint>
          <Trackpoint>
            <Time>2022-07-14T09:25:42.000Z</Time>
            <Position>
              <LatitudeDegrees>43.3969859965145587921142578125</LatitudeDegrees>
              <LongitudeDegrees>-3.994162939488887786865234375</LongitudeDegrees>
            </Position>
            <AltitudeMeters>58.200000762939453125</AltitudeMeters>
            <DistanceMeters>NAN</DistanceMeters>
          </Trackpoint>
          <Trackpoint>
            <Time>2022-07-14T09:25:47.000Z</Time>
            <Position>
              <LatitudeDegrees>43.3968136645853519439697265625</LatitudeDegrees>
              <LongitudeDegrees>-3.99444884620606899261474609375</LongitudeDegrees>
            </Position>
            <AltitudeMeters>57.40000152587890625</AltitudeMeters>
            <DistanceMeters>NAN</DistanceMeters>
          </Trackpoint>
          <Trackpoint>
            <Time>2022-07-14T09:25:49.000Z</Time>
            <Position>
              <LatitudeDegrees>43.3967164345085620880126953125</LatitudeDegrees>
              <LongitudeDegrees>-3.99461396969854831695556640625</LongitudeDegrees>
            </Position>
            <AltitudeMeters>56.799999237060546875</AltitudeMeters>
            <DistanceMeters>NAN</DistanceMeters>
          </Trackpoint>
          <Trackpoint>
            <Time>2022-07-14T09:25:51.000Z</Time>
            <Position>
              <LatitudeDegrees>43.396610319614410400390625</LatitudeDegrees>
              <LongitudeDegrees>-3.9947914145886898040771484375</LongitudeDegrees>
            </Position>
            <AltitudeMeters>55.200000762939453125</AltitudeMeters>
            <DistanceMeters>NAN</DistanceMeters>
          </Trackpoint>
          <Trackpoint>
            <Time>2022-07-14T09:25:52.000Z</Time>
            <Position>
              <LatitudeDegrees>43.39655541814863681793212890625</LatitudeDegrees>
              <LongitudeDegrees>-3.99489627219736576080322265625</LongitudeDegrees>
            </Position>
            <AltitudeMeters>54.200000762939453125</AltitudeMeters>
            <DistanceMeters>NAN</DistanceMeters>
          </Trackpoint>
          <Trackpoint>
            <Time>2022-07-14T09:25:54.000Z</Time>
            <Position>
              <LatitudeDegrees>43.39644427411258220672607421875</LatitudeDegrees>
              <LongitudeDegrees>-3.9951414428651332855224609375</LongitudeDegrees>
            </Position>
            <AltitudeMeters>53</AltitudeMeters>
            <DistanceMeters>NAN</DistanceMeters>
          </Trackpoint>
          <Trackpoint>
            <Time>2022-07-14T09:25:55.000Z</Time>
            <Position>
              <LatitudeDegrees>43.39639398269355297088623046875</LatitudeDegrees>
              <LongitudeDegrees>-3.99527563713490962982177734375</LongitudeDegrees>
            </Position>
            <AltitudeMeters>52.59999847412109375</AltitudeMeters>
            <DistanceMeters>NAN</DistanceMeters>
          </Trackpoint>
          <Trackpoint>
            <Time>2022-07-14T09:25:57.000Z</Time>
            <Position>
              <LatitudeDegrees>43.396292813122272491455078125</LatitudeDegrees>
              <LongitudeDegrees>-3.9955467917025089263916015625</LongitudeDegrees>
            </Position>
            <AltitudeMeters>51.40000152587890625</AltitudeMeters>
            <DistanceMeters>NAN</DistanceMeters>
          </Trackpoint>
          <Trackpoint>
            <Time>2022-07-14T09:25:59.000Z</Time>
            <Position>
              <LatitudeDegrees>43.3961920626461505889892578125</LatitudeDegrees>
              <LongitudeDegrees>-3.99582557380199432373046875</LongitudeDegrees>
            </Position>
            <AltitudeMeters>49.799999237060546875</AltitudeMeters>
            <DistanceMeters>NAN</DistanceMeters>
          </Trackpoint>
          <Trackpoint>
            <Time>2022-07-14T09:26:01.000Z</Time>
            <Position>
              <LatitudeDegrees>43.39609776623547077178955078125</LatitudeDegrees>
              <LongitudeDegrees>-3.9961043559014797210693359375</LongitudeDegrees>
            </Position>
            <AltitudeMeters>48.40000152587890625</AltitudeMeters>
            <DistanceMeters>NAN</DistanceMeters>
          </Trackpoint>
          <Trackpoint>
            <Time>2022-07-14T09:26:03.000Z</Time>
            <Position>
              <LatitudeDegrees>43.39600405655801296234130859375</LatitudeDegrees>
              <LongitudeDegrees>-3.996387161314487457275390625</LongitudeDegrees>
            </Position>
            <AltitudeMeters>47</AltitudeMeters>
            <DistanceMeters>NAN</DistanceMeters>
          </Trackpoint>
          <Trackpoint>
            <Time>2022-07-14T09:26:05.000Z</Time>
            <Position>
              <LatitudeDegrees>43.3959116041660308837890625</LatitudeDegrees>
              <LongitudeDegrees>-3.99666619487106800079345703125</LongitudeDegrees>
            </Position>
            <AltitudeMeters>45.799999237060546875</AltitudeMeters>
            <DistanceMeters>NAN</DistanceMeters>
          </Trackpoint>
          <Trackpoint>
            <Time>2022-07-14T09:26:07.000Z</Time>
            <Position>
              <LatitudeDegrees>43.39582049287855625152587890625</LatitudeDegrees>
              <LongitudeDegrees>-3.99693843908607959747314453125</LongitudeDegrees>
            </Position>
            <AltitudeMeters>44.799999237060546875</AltitudeMeters>
            <DistanceMeters>NAN</DistanceMeters>
          </Trackpoint>
          <Trackpoint>
            <Time>2022-07-14T09:26:09.000Z</Time>
            <Position>
              <LatitudeDegrees>43.3957280404865741729736328125</LatitudeDegrees>
              <LongitudeDegrees>-3.99721453897655010223388671875</LongitudeDegrees>
            </Position>
            <AltitudeMeters>43.40000152587890625</AltitudeMeters>
            <DistanceMeters>NAN</DistanceMeters>
          </Trackpoint>
          <Trackpoint>
            <Time>2022-07-14T09:26:12.000Z</Time>
            <Position>
              <LatitudeDegrees>43.395591415464878082275390625</LatitudeDegrees>
              <LongitudeDegrees>-3.9976204745471477508544921875</LongitudeDegrees>
            </Position>
            <AltitudeMeters>42.200000762939453125</AltitudeMeters>
            <DistanceMeters>NAN</DistanceMeters>
          </Trackpoint>
          <Trackpoint>
            <Time>2022-07-14T09:26:14.000Z</Time>
            <Position>
              <LatitudeDegrees>43.39550399221479892730712890625</LatitudeDegrees>
              <LongitudeDegrees>-3.997887186706066131591796875</LongitudeDegrees>
            </Position>
            <AltitudeMeters>41</AltitudeMeters>
            <DistanceMeters>NAN</DistanceMeters>
          </Trackpoint>
          <Trackpoint>
            <Time>2022-07-14T09:26:17.000Z</Time>
            <Position>
              <LatitudeDegrees>43.39537315070629119873046875</LatitudeDegrees>
              <LongitudeDegrees>-3.99828440509736537933349609375</LongitudeDegrees>
            </Position>
            <AltitudeMeters>39.59999847412109375</AltitudeMeters>
            <DistanceMeters>NAN</DistanceMeters>
          </Trackpoint>
          <Trackpoint>
            <Time>2022-07-14T09:26:19.000Z</Time>
            <Position>
              <LatitudeDegrees>43.39528463780879974365234375</LatitudeDegrees>
              <LongitudeDegrees>-3.9985434897243976593017578125</LongitudeDegrees>
            </Position>
            <AltitudeMeters>38.40000152587890625</AltitudeMeters>
            <DistanceMeters>NAN</DistanceMeters>
          </Trackpoint>
          <Trackpoint>
            <Time>2022-07-14T09:26:21.000Z</Time>
            <Position>
              <LatitudeDegrees>43.39519746601581573486328125</LatitudeDegrees>
              <LongitudeDegrees>-3.9987999759614467620849609375</LongitudeDegrees>
            </Position>
            <AltitudeMeters>37.40000152587890625</AltitudeMeters>
            <DistanceMeters>NAN</DistanceMeters>
          </Trackpoint>
          <Trackpoint>
            <Time>2022-07-14T09:26:22.000Z</Time>
            <Position>
              <LatitudeDegrees>43.3951560594141483306884765625</LatitudeDegrees>
              <LongitudeDegrees>-3.99892629124224185943603515625</LongitudeDegrees>
            </Position>
            <AltitudeMeters>37</AltitudeMeters>
            <DistanceMeters>NAN</DistanceMeters>
          </Trackpoint>
          <Trackpoint>
            <Time>2022-07-14T09:26:23.000Z</Time>
            <Position>
              <LatitudeDegrees>43.3951138146221637725830078125</LatitudeDegrees>
              <LongitudeDegrees>-3.999049924314022064208984375</LongitudeDegrees>
            </Position>
            <AltitudeMeters>36.200000762939453125</AltitudeMeters>
            <DistanceMeters>NAN</DistanceMeters>
          </Trackpoint>
          <Trackpoint>
            <Time>2022-07-14T09:26:24.000Z</Time>
            <Position>
              <LatitudeDegrees>43.395072408020496368408203125</LatitudeDegrees>
              <LongitudeDegrees>-3.99917422793805599212646484375</LongitudeDegrees>
            </Position>
            <AltitudeMeters>34.59999847412109375</AltitudeMeters>
            <DistanceMeters>NAN</DistanceMeters>
          </Trackpoint>
          <Trackpoint>
            <Time>2022-07-14T09:26:26.000Z</Time>
            <Position>
              <LatitudeDegrees>43.39499169029295444488525390625</LatitudeDegrees>
              <LongitudeDegrees>-3.9994229190051555633544921875</LongitudeDegrees>
            </Position>
            <AltitudeMeters>33.40000152587890625</AltitudeMeters>
            <DistanceMeters>NAN</DistanceMeters>
          </Trackpoint>
          <Trackpoint>
            <Time>2022-07-14T09:26:28.000Z</Time>
            <Position>
              <LatitudeDegrees>43.3949092961847782135009765625</LatitudeDegrees>
              <LongitudeDegrees>-3.99966725148260593414306640625</LongitudeDegrees>
            </Position>
            <AltitudeMeters>32</AltitudeMeters>
            <DistanceMeters>NAN</DistanceMeters>
          </Trackpoint>
          <Trackpoint>
            <Time>2022-07-14T09:26:29.000Z</Time>
            <Position>
              <LatitudeDegrees>43.39487065561115741729736328125</LatitudeDegrees>
              <LongitudeDegrees>-3.99978853762149810791015625</LongitudeDegrees>
            </Position>
            <AltitudeMeters>31.799999237060546875</AltitudeMeters>
            <DistanceMeters>NAN</DistanceMeters>
          </Trackpoint>
          <Trackpoint>
            <Time>2022-07-14T09:26:35.000Z</Time>
            <Position>
              <LatitudeDegrees>43.39465758763253688812255859375</LatitudeDegrees>
              <LongitudeDegrees>-4.0004356205463409423828125</LongitudeDegrees>
            </Position>
            <AltitudeMeters>31.200000762939453125</AltitudeMeters>
            <DistanceMeters>NAN</DistanceMeters>
          </Trackpoint>
          <Trackpoint>
            <Time>2022-07-14T09:26:36.000Z</Time>
            <Position>
              <LatitudeDegrees>43.3946269936859607696533203125</LatitudeDegrees>
              <LongitudeDegrees>-4.00053058750927448272705078125</LongitudeDegrees>
            </Position>
            <AltitudeMeters>31</AltitudeMeters>
            <DistanceMeters>NAN</DistanceMeters>
          </Trackpoint>
          <Trackpoint>
            <Time>2022-07-14T09:26:40.000Z</Time>
            <Position>
              <LatitudeDegrees>43.394537977874279022216796875</LatitudeDegrees>
              <LongitudeDegrees>-4.000881202518939971923828125</LongitudeDegrees>
            </Position>
            <AltitudeMeters>30.3999996185302734375</AltitudeMeters>
            <DistanceMeters>NAN</DistanceMeters>
          </Trackpoint>
          <Trackpoint>
            <Time>2022-07-14T09:26:42.000Z</Time>
            <Position>
              <LatitudeDegrees>43.39452087879180908203125</LatitudeDegrees>
              <LongitudeDegrees>-4.001048840582370758056640625</LongitudeDegrees>
            </Position>
            <AltitudeMeters>30.200000762939453125</AltitudeMeters>
            <DistanceMeters>NAN</DistanceMeters>
          </Trackpoint>
          <Trackpoint>
            <Time>2022-07-14T09:26:44.000Z</Time>
            <Position>
              <LatitudeDegrees>43.3945233933627605438232421875</LatitudeDegrees>
              <LongitudeDegrees>-4.0012022294104099273681640625</LongitudeDegrees>
            </Position>
            <AltitudeMeters>30</AltitudeMeters>
            <DistanceMeters>NAN</DistanceMeters>
          </Trackpoint>
          <Trackpoint>
            <Time>2022-07-14T09:26:49.000Z</Time>
            <Position>
              <LatitudeDegrees>43.394548706710338592529296875</LatitudeDegrees>
              <LongitudeDegrees>-4.00148713029921054840087890625</LongitudeDegrees>
            </Position>
            <AltitudeMeters>30.200000762939453125</AltitudeMeters>
            <DistanceMeters>NAN</DistanceMeters>
          </Trackpoint>
          <Trackpoint>
            <Time>2022-07-14T09:26:55.000Z</Time>
            <Position>
              <LatitudeDegrees>43.394588269293308258056640625</LatitudeDegrees>
              <LongitudeDegrees>-4.00169064290821552276611328125</LongitudeDegrees>
            </Position>
            <AltitudeMeters>30.3999996185302734375</AltitudeMeters>
            <DistanceMeters>NAN</DistanceMeters>
          </Trackpoint>
          <Trackpoint>
            <Time>2022-07-14T09:27:02.000Z</Time>
            <Position>
              <LatitudeDegrees>43.3946269936859607696533203125</LatitudeDegrees>
              <LongitudeDegrees>-4.00187236256897449493408203125</LongitudeDegrees>
            </Position>
            <AltitudeMeters>31</AltitudeMeters>
            <DistanceMeters>NAN</DistanceMeters>
          </Trackpoint>
          <Trackpoint>
            <Time>2022-07-14T09:27:09.000Z</Time>
            <Position>
              <LatitudeDegrees>43.39463948272168636322021484375</LatitudeDegrees>
              <LongitudeDegrees>-4.00204360485076904296875</LongitudeDegrees>
            </Position>
            <AltitudeMeters>31.799999237060546875</AltitudeMeters>
            <DistanceMeters>NAN</DistanceMeters>
          </Trackpoint>
          <Trackpoint>
            <Time>2022-07-14T09:27:11.000Z</Time>
            <Position>
              <LatitudeDegrees>43.3946464397013187408447265625</LatitudeDegrees>
              <LongitudeDegrees>-4.002091549336910247802734375</LongitudeDegrees>
            </Position>
            <AltitudeMeters>32</AltitudeMeters>
            <DistanceMeters>NAN</DistanceMeters>
          </Trackpoint>
          <Trackpoint>
            <Time>2022-07-14T09:27:14.000Z</Time>
            <Position>
              <LatitudeDegrees>43.3946608565747737884521484375</LatitudeDegrees>
              <LongitudeDegrees>-4.002155251801013946533203125</LongitudeDegrees>
            </Position>
            <AltitudeMeters>32.40000152587890625</AltitudeMeters>
            <DistanceMeters>NAN</DistanceMeters>
          </Trackpoint>
          <Trackpoint>
            <Time>2022-07-14T09:27:18.000Z</Time>
            <Position>
              <LatitudeDegrees>43.39468650519847869873046875</LatitudeDegrees>
              <LongitudeDegrees>-4.00222473777830600738525390625</LongitudeDegrees>
            </Position>
            <AltitudeMeters>32.59999847412109375</AltitudeMeters>
            <DistanceMeters>NAN</DistanceMeters>
          </Trackpoint>
          <Trackpoint>
            <Time>2022-07-14T09:27:20.000Z</Time>
            <Position>
              <LatitudeDegrees>43.3947094716131687164306640625</LatitudeDegrees>
              <LongitudeDegrees>-4.002260528504848480224609375</LongitudeDegrees>
            </Position>
            <AltitudeMeters>33</AltitudeMeters>
            <DistanceMeters>NAN</DistanceMeters>
          </Trackpoint>
          <Trackpoint>
            <Time>2022-07-14T09:27:25.000Z</Time>
            <Position>
              <LatitudeDegrees>43.3947778679430484771728515625</LatitudeDegrees>
              <LongitudeDegrees>-4.00232188403606414794921875</LongitudeDegrees>
            </Position>
            <AltitudeMeters>33.59999847412109375</AltitudeMeters>
            <DistanceMeters>NAN</DistanceMeters>
          </Trackpoint>
          <Trackpoint>
            <Time>2022-07-14T09:27:29.000Z</Time>
            <Position>
              <LatitudeDegrees>43.39483746327459812164306640625</LatitudeDegrees>
              <LongitudeDegrees>-4.00235616602003574371337890625</LongitudeDegrees>
            </Position>
            <AltitudeMeters>34</AltitudeMeters>
            <DistanceMeters>NAN</DistanceMeters>
          </Trackpoint>
          <Trackpoint>
            <Time>2022-07-14T09:27:33.000Z</Time>
            <Position>
              <LatitudeDegrees>43.39489479549229145050048828125</LatitudeDegrees>
              <LongitudeDegrees>-4.0023746900260448455810546875</LongitudeDegrees>
            </Position>
            <AltitudeMeters>34.40000152587890625</AltitudeMeters>
            <DistanceMeters>NAN</DistanceMeters>
          </Trackpoint>
          <Trackpoint>
            <Time>2022-07-14T09:27:39.000Z</Time>
            <Position>
              <LatitudeDegrees>43.3949941210448741912841796875</LatitudeDegrees>
              <LongitudeDegrees>-4.0024172700941562652587890625</LongitudeDegrees>
            </Position>
            <AltitudeMeters>34.799999237060546875</AltitudeMeters>
            <DistanceMeters>NAN</DistanceMeters>
          </Trackpoint>
          <Trackpoint>
            <Time>2022-07-14T09:27:41.000Z</Time>
            <Position>
              <LatitudeDegrees>43.3950219489634037017822265625</LatitudeDegrees>
              <LongitudeDegrees>-4.00242070667445659637451171875</LongitudeDegrees>
            </Position>
            <AltitudeMeters>35</AltitudeMeters>
            <DistanceMeters>NAN</DistanceMeters>
          </Trackpoint>
          <Trackpoint>
            <Time>2022-07-14T09:27:42.000Z</Time>
            <Position>
              <LatitudeDegrees>43.395038880407810211181640625</LatitudeDegrees>
              <LongitudeDegrees>-4.00242204777896404266357421875</LongitudeDegrees>
            </Position>
            <AltitudeMeters>35.200000762939453125</AltitudeMeters>
            <DistanceMeters>NAN</DistanceMeters>
          </Trackpoint>
          <Trackpoint>
            <Time>2022-07-14T09:27:48.000Z</Time>
            <Position>
              <LatitudeDegrees>43.39513753540813922882080078125</LatitudeDegrees>
              <LongitudeDegrees>-4.00245658122003078460693359375</LongitudeDegrees>
            </Position>
            <AltitudeMeters>35.59999847412109375</AltitudeMeters>
            <DistanceMeters>NAN</DistanceMeters>
          </Trackpoint>
          <Trackpoint>
            <Time>2022-07-14T09:27:54.000Z</Time>
            <Position>
              <LatitudeDegrees>43.39523292146623134613037109375</LatitudeDegrees>
              <LongitudeDegrees>-4.00248507969081401824951171875</LongitudeDegrees>
            </Position>
            <AltitudeMeters>36.200000762939453125</AltitudeMeters>
            <DistanceMeters>NAN</DistanceMeters>
          </Trackpoint>
          <Trackpoint>
            <Time>2022-07-14T09:27:58.000Z</Time>
            <Position>
              <LatitudeDegrees>43.3952920138835906982421875</LatitudeDegrees>
              <LongitudeDegrees>-4.00250921957194805145263671875</LongitudeDegrees>
            </Position>
            <AltitudeMeters>36.59999847412109375</AltitudeMeters>
            <DistanceMeters>NAN</DistanceMeters>
          </Trackpoint>
          <Trackpoint>
            <Time>2022-07-14T09:28:04.000Z</Time>
            <Position>
              <LatitudeDegrees>43.39539368636906147003173828125</LatitudeDegrees>
              <LongitudeDegrees>-4.00257275439798831939697265625</LongitudeDegrees>
            </Position>
            <AltitudeMeters>37.200000762939453125</AltitudeMeters>
            <DistanceMeters>NAN</DistanceMeters>
          </Trackpoint>
          <Trackpoint>
            <Time>2022-07-14T09:28:08.000Z</Time>
            <Position>
              <LatitudeDegrees>43.39544816873967647552490234375</LatitudeDegrees>
              <LongitudeDegrees>-4.0026311762630939483642578125</LongitudeDegrees>
            </Position>
            <AltitudeMeters>37.40000152587890625</AltitudeMeters>
            <DistanceMeters>NAN</DistanceMeters>
          </Trackpoint>
          <Trackpoint>
            <Time>2022-07-14T09:28:15.000Z</Time>
            <Position>
              <LatitudeDegrees>43.39552779681980609893798828125</LatitudeDegrees>
              <LongitudeDegrees>-4.00282680988311767578125</LongitudeDegrees>
            </Position>
            <AltitudeMeters>37.59999847412109375</AltitudeMeters>
            <DistanceMeters>NAN</DistanceMeters>
          </Trackpoint>
          <Trackpoint>
            <Time>2022-07-14T09:28:21.000Z</Time>
            <Position>
              <LatitudeDegrees>43.39558362029492855072021484375</LatitudeDegrees>
              <LongitudeDegrees>-4.0030063502490520477294921875</LongitudeDegrees>
            </Position>
            <AltitudeMeters>37.59999847412109375</AltitudeMeters>
            <DistanceMeters>NAN</DistanceMeters>
          </Trackpoint>
          <Trackpoint>
            <Time>2022-07-14T09:28:24.000Z</Time>
            <Position>
              <LatitudeDegrees>43.39561262167990207672119140625</LatitudeDegrees>
              <LongitudeDegrees>-4.003114141523838043212890625</LongitudeDegrees>
            </Position>
            <AltitudeMeters>37.59999847412109375</AltitudeMeters>
            <DistanceMeters>NAN</DistanceMeters>
          </Trackpoint>
          <Trackpoint>
            <Time>2022-07-14T09:28:35.000Z</Time>
            <Position>
              <LatitudeDegrees>43.39571915566921234130859375</LatitudeDegrees>
              <LongitudeDegrees>-4.00352778844535350799560546875</LongitudeDegrees>
            </Position>
            <AltitudeMeters>37.799999237060546875</AltitudeMeters>
            <DistanceMeters>NAN</DistanceMeters>
          </Trackpoint>
          <Trackpoint>
            <Time>2022-07-14T09:28:44.000Z</Time>
            <Position>
              <LatitudeDegrees>43.395867012441158294677734375</LatitudeDegrees>
              <LongitudeDegrees>-4.00387220084667205810546875</LongitudeDegrees>
            </Position>
            <AltitudeMeters>38</AltitudeMeters>
            <DistanceMeters>NAN</DistanceMeters>
          </Trackpoint>
          <Trackpoint>
            <Time>2022-07-14T09:28:47.000Z</Time>
            <Position>
              <LatitudeDegrees>43.395923338830471038818359375</LatitudeDegrees>
              <LongitudeDegrees>-4.00394956581294536590576171875</LongitudeDegrees>
            </Position>
            <AltitudeMeters>38.200000762939453125</AltitudeMeters>
            <DistanceMeters>NAN</DistanceMeters>
          </Trackpoint>
          <Trackpoint>
            <Time>2022-07-14T09:28:50.000Z</Time>
            <Position>
              <LatitudeDegrees>43.395981676876544952392578125</LatitudeDegrees>
              <LongitudeDegrees>-4.004015363752841949462890625</LongitudeDegrees>
            </Position>
            <AltitudeMeters>38.200000762939453125</AltitudeMeters>
            <DistanceMeters>NAN</DistanceMeters>
          </Trackpoint>
          <Trackpoint>
            <Time>2022-07-14T09:28:51.000Z</Time>
            <Position>
              <LatitudeDegrees>43.39600891806185245513916015625</LatitudeDegrees>
              <LongitudeDegrees>-4.004040844738483428955078125</LongitudeDegrees>
            </Position>
            <AltitudeMeters>38.200000762939453125</AltitudeMeters>
            <DistanceMeters>NAN</DistanceMeters>
          </Trackpoint>
          <Trackpoint>
            <Time>2022-07-14T09:28:56.000Z</Time>
            <Position>
              <LatitudeDegrees>43.3960814215242862701416015625</LatitudeDegrees>
              <LongitudeDegrees>-4.00409826077520847320556640625</LongitudeDegrees>
            </Position>
            <AltitudeMeters>38.200000762939453125</AltitudeMeters>
            <DistanceMeters>NAN</DistanceMeters>
          </Trackpoint>
          <Trackpoint>
            <Time>2022-07-14T09:28:59.000Z</Time>
            <Position>
              <LatitudeDegrees>43.3960814215242862701416015625</LatitudeDegrees>
              <LongitudeDegrees>-4.00409826077520847320556640625</LongitudeDegrees>
            </Position>
            <AltitudeMeters>38</AltitudeMeters>
            <DistanceMeters>NAN</DistanceMeters>
          </Trackpoint>
          <Trackpoint>
            <Time>2022-07-14T09:29:28.000Z</Time>
            <Position>
              <LatitudeDegrees>43.39611587114632129669189453125</LatitudeDegrees>
              <LongitudeDegrees>-4.0041459538042545318603515625</LongitudeDegrees>
            </Position>
            <AltitudeMeters>38.59999847412109375</AltitudeMeters>
            <DistanceMeters>NAN</DistanceMeters>
          </Trackpoint>
          <Trackpoint>
            <Time>2022-07-14T09:29:29.000Z</Time>
            <Position>
              <LatitudeDegrees>43.39612961746752262115478515625</LatitudeDegrees>
              <LongitudeDegrees>-4.00416162796318531036376953125</LongitudeDegrees>
            </Position>
            <AltitudeMeters>38.59999847412109375</AltitudeMeters>
            <DistanceMeters>NAN</DistanceMeters>
          </Trackpoint>
          <Trackpoint>
            <Time>2022-07-14T09:29:33.000Z</Time>
            <Position>
              <LatitudeDegrees>43.39620941318571567535400390625</LatitudeDegrees>
              <LongitudeDegrees>-4.00423455052077770233154296875</LongitudeDegrees>
            </Position>
            <AltitudeMeters>38.799999237060546875</AltitudeMeters>
            <DistanceMeters>NAN</DistanceMeters>
          </Trackpoint>
          <Trackpoint>
            <Time>2022-07-14T09:29:35.000Z</Time>
            <Position>
              <LatitudeDegrees>43.39624947868287563323974609375</LatitudeDegrees>
              <LongitudeDegrees>-4.0042797289788722991943359375</LongitudeDegrees>
            </Position>
            <AltitudeMeters>39</AltitudeMeters>
            <DistanceMeters>NAN</DistanceMeters>
          </Trackpoint>
          <Trackpoint>
            <Time>2022-07-14T09:29:39.000Z</Time>
            <Position>
              <LatitudeDegrees>43.39633782394230365753173828125</LatitudeDegrees>
              <LongitudeDegrees>-4.00436514057219028472900390625</LongitudeDegrees>
            </Position>
            <AltitudeMeters>39.200000762939453125</AltitudeMeters>
            <DistanceMeters>NAN</DistanceMeters>
          </Trackpoint>
          <Trackpoint>
            <Time>2022-07-14T09:29:43.000Z</Time>
            <Position>
              <LatitudeDegrees>43.3964227326214313507080078125</LatitudeDegrees>
              <LongitudeDegrees>-4.0044611133635044097900390625</LongitudeDegrees>
            </Position>
            <AltitudeMeters>39.40000152587890625</AltitudeMeters>
            <DistanceMeters>NAN</DistanceMeters>
          </Trackpoint>
          <Trackpoint>
            <Time>2022-07-14T09:29:54.000Z</Time>
            <Position>
              <LatitudeDegrees>43.3966349624097347259521484375</LatitudeDegrees>
              <LongitudeDegrees>-4.004699997603893280029296875</LongitudeDegrees>
            </Position>
            <AltitudeMeters>40.200000762939453125</AltitudeMeters>
            <DistanceMeters>NAN</DistanceMeters>
          </Trackpoint>
          <Trackpoint>
            <Time>2022-07-14T09:29:58.000Z</Time>
            <Position>
              <LatitudeDegrees>43.396699838340282440185546875</LatitudeDegrees>
              <LongitudeDegrees>-4.004803262650966644287109375</LongitudeDegrees>
            </Position>
            <AltitudeMeters>40.40000152587890625</AltitudeMeters>
            <DistanceMeters>NAN</DistanceMeters>
          </Trackpoint>
          <Trackpoint>
            <Time>2022-07-14T09:30:00.000Z</Time>
            <Position>
              <LatitudeDegrees>43.39671852998435497283935546875</LatitudeDegrees>
              <LongitudeDegrees>-4.0048493631184101104736328125</LongitudeDegrees>
            </Position>
            <AltitudeMeters>40.59999847412109375</AltitudeMeters>
            <DistanceMeters>NAN</DistanceMeters>
          </Trackpoint>
          <Trackpoint>
            <Time>2022-07-14T09:30:05.000Z</Time>
            <Position>
              <LatitudeDegrees>43.3967402391135692596435546875</LatitudeDegrees>
              <LongitudeDegrees>-4.0049980580806732177734375</LongitudeDegrees>
            </Position>
            <AltitudeMeters>41.40000152587890625</AltitudeMeters>
            <DistanceMeters>NAN</DistanceMeters>
          </Trackpoint>
          <Trackpoint>
            <Time>2022-07-14T09:30:06.000Z</Time>
            <Position>
              <LatitudeDegrees>43.39674199931323528289794921875</LatitudeDegrees>
              <LongitudeDegrees>-4.00502529926598072052001953125</LongitudeDegrees>
            </Position>
            <AltitudeMeters>41.40000152587890625</AltitudeMeters>
            <DistanceMeters>NAN</DistanceMeters>
          </Trackpoint>
          <Trackpoint>
            <Time>2022-07-14T09:30:07.000Z</Time>
            <Position>
              <LatitudeDegrees>43.39674317277967929840087890625</LatitudeDegrees>
              <LongitudeDegrees>-4.00505798868834972381591796875</LongitudeDegrees>
            </Position>
            <AltitudeMeters>41.40000152587890625</AltitudeMeters>
            <DistanceMeters>NAN</DistanceMeters>
          </Trackpoint>
          <Trackpoint>
            <Time>2022-07-14T09:30:10.000Z</Time>
            <Position>
              <LatitudeDegrees>43.3967415802180767059326171875</LatitudeDegrees>
              <LongitudeDegrees>-4.00514759123325347900390625</LongitudeDegrees>
            </Position>
            <AltitudeMeters>41.59999847412109375</AltitudeMeters>
            <DistanceMeters>NAN</DistanceMeters>
          </Trackpoint>
          <Trackpoint>
            <Time>2022-07-14T09:30:16.000Z</Time>
            <Position>
              <LatitudeDegrees>43.396735377609729766845703125</LatitudeDegrees>
              <LongitudeDegrees>-4.005317576229572296142578125</LongitudeDegrees>
            </Position>
            <AltitudeMeters>42</AltitudeMeters>
            <DistanceMeters>NAN</DistanceMeters>
          </Trackpoint>
          <Trackpoint>
            <Time>2022-07-14T09:30:17.000Z</Time>
            <Position>
              <LatitudeDegrees>43.39673437178134918212890625</LatitudeDegrees>
              <LongitudeDegrees>-4.00534548796713352203369140625</LongitudeDegrees>
            </Position>
            <AltitudeMeters>42</AltitudeMeters>
            <DistanceMeters>NAN</DistanceMeters>
          </Trackpoint>
          <Trackpoint>
            <Time>2022-07-14T09:30:21.000Z</Time>
            <Position>
              <LatitudeDegrees>43.3967285044491291046142578125</LatitudeDegrees>
              <LongitudeDegrees>-4.0054545365273952484130859375</LongitudeDegrees>
            </Position>
            <AltitudeMeters>42.40000152587890625</AltitudeMeters>
            <DistanceMeters>NAN</DistanceMeters>
          </Trackpoint>
          <Trackpoint>
            <Time>2022-07-14T09:30:24.000Z</Time>
            <Position>
              <LatitudeDegrees>43.39672473259270191192626953125</LatitudeDegrees>
              <LongitudeDegrees>-4.005538858473300933837890625</LongitudeDegrees>
            </Position>
            <AltitudeMeters>42.799999237060546875</AltitudeMeters>
            <DistanceMeters>NAN</DistanceMeters>
          </Trackpoint>
          <Trackpoint>
            <Time>2022-07-14T09:30:34.000Z</Time>
            <Position>
              <LatitudeDegrees>43.39667092077434062957763671875</LatitudeDegrees>
              <LongitudeDegrees>-4.00577397085726261138916015625</LongitudeDegrees>
            </Position>
            <AltitudeMeters>43.40000152587890625</AltitudeMeters>
            <DistanceMeters>NAN</DistanceMeters>
          </Trackpoint>
          <Trackpoint>
            <Time>2022-07-14T09:30:35.000Z</Time>
            <Position>
              <LatitudeDegrees>43.39666270650923252105712890625</LatitudeDegrees>
              <LongitudeDegrees>-4.00579542852938175201416015625</LongitudeDegrees>
            </Position>
            <AltitudeMeters>43.59999847412109375</AltitudeMeters>
            <DistanceMeters>NAN</DistanceMeters>
          </Trackpoint>
          <Trackpoint>
            <Time>2022-07-14T09:30:41.000Z</Time>
            <Position>
              <LatitudeDegrees>43.39659967459738254547119140625</LatitudeDegrees>
              <LongitudeDegrees>-4.0059202350676059722900390625</LongitudeDegrees>
            </Position>
            <AltitudeMeters>44</AltitudeMeters>
            <DistanceMeters>NAN</DistanceMeters>
          </Trackpoint>
          <Trackpoint>
            <Time>2022-07-14T09:30:49.000Z</Time>
            <Position>
              <LatitudeDegrees>43.396519124507904052734375</LatitudeDegrees>
              <LongitudeDegrees>-4.0060838498175144195556640625</LongitudeDegrees>
            </Position>
            <AltitudeMeters>44.40000152587890625</AltitudeMeters>
            <DistanceMeters>NAN</DistanceMeters>
          </Trackpoint>
          <Trackpoint>
            <Time>2022-07-14T09:30:52.000Z</Time>
            <Position>
              <LatitudeDegrees>43.39649297297000885009765625</LatitudeDegrees>
              <LongitudeDegrees>-4.00614847429096698760986328125</LongitudeDegrees>
            </Position>
            <AltitudeMeters>44.59999847412109375</AltitudeMeters>
            <DistanceMeters>NAN</DistanceMeters>
          </Trackpoint>
          <Trackpoint>
            <Time>2022-07-14T09:30:57.000Z</Time>
            <Position>
              <LatitudeDegrees>43.39643807150423526763916015625</LatitudeDegrees>
              <LongitudeDegrees>-4.00624117814004421234130859375</LongitudeDegrees>
            </Position>
            <AltitudeMeters>45</AltitudeMeters>
            <DistanceMeters>NAN</DistanceMeters>
          </Trackpoint>
          <Trackpoint>
            <Time>2022-07-14T09:31:08.000Z</Time>
            <Position>
              <LatitudeDegrees>43.39632508344948291778564453125</LatitudeDegrees>
              <LongitudeDegrees>-4.00644619949162006378173828125</LongitudeDegrees>
            </Position>
            <AltitudeMeters>45.59999847412109375</AltitudeMeters>
            <DistanceMeters>NAN</DistanceMeters>
          </Trackpoint>
          <Trackpoint>
            <Time>2022-07-14T09:31:09.000Z</Time>
            <Position>
              <LatitudeDegrees>43.39631284587085247039794921875</LatitudeDegrees>
              <LongitudeDegrees>-4.00646748952567577362060546875</LongitudeDegrees>
            </Position>
            <AltitudeMeters>45.59999847412109375</AltitudeMeters>
            <DistanceMeters>NAN</DistanceMeters>
          </Trackpoint>
          <Trackpoint>
            <Time>2022-07-14T09:31:16.000Z</Time>
            <Position>
              <LatitudeDegrees>43.3962172083556652069091796875</LatitudeDegrees>
              <LongitudeDegrees>-4.0065854229032993316650390625</LongitudeDegrees>
            </Position>
            <AltitudeMeters>45.799999237060546875</AltitudeMeters>
            <DistanceMeters>NAN</DistanceMeters>
          </Trackpoint>
          <Trackpoint>
            <Time>2022-07-14T09:31:17.000Z</Time>
            <Position>
              <LatitudeDegrees>43.396204300224781036376953125</LatitudeDegrees>
              <LongitudeDegrees>-4.00660009123384952545166015625</LongitudeDegrees>
            </Position>
            <AltitudeMeters>46</AltitudeMeters>
            <DistanceMeters>NAN</DistanceMeters>
          </Trackpoint>
          <Trackpoint>
            <Time>2022-07-14T09:31:19.000Z</Time>
            <Position>
              <LatitudeDegrees>43.3961798250675201416015625</LatitudeDegrees>
              <LongitudeDegrees>-4.00662993080914020538330078125</LongitudeDegrees>
            </Position>
            <AltitudeMeters>46</AltitudeMeters>
            <DistanceMeters>NAN</DistanceMeters>
          </Trackpoint>
          <Trackpoint>
            <Time>2022-07-14T09:31:23.000Z</Time>
            <Position>
              <LatitudeDegrees>43.3961261808872222900390625</LatitudeDegrees>
              <LongitudeDegrees>-4.006689526140689849853515625</LongitudeDegrees>
            </Position>
            <AltitudeMeters>46.200000762939453125</AltitudeMeters>
            <DistanceMeters>NAN</DistanceMeters>
          </Trackpoint>
          <Trackpoint>
            <Time>2022-07-14T09:31:25.000Z</Time>
            <Position>
              <LatitudeDegrees>43.396091647446155548095703125</LatitudeDegrees>
              <LongitudeDegrees>-4.006720371544361114501953125</LongitudeDegrees>
            </Position>
            <AltitudeMeters>46.40000152587890625</AltitudeMeters>
            <DistanceMeters>NAN</DistanceMeters>
          </Trackpoint>
          <Trackpoint>
            <Time>2022-07-14T09:31:27.000Z</Time>
            <Position>
              <LatitudeDegrees>43.396055437624454498291015625</LatitudeDegrees>
              <LongitudeDegrees>-4.0067533962428569793701171875</LongitudeDegrees>
            </Position>
            <AltitudeMeters>46.59999847412109375</AltitudeMeters>
            <DistanceMeters>NAN</DistanceMeters>
          </Trackpoint>
          <Trackpoint>
            <Time>2022-07-14T09:31:29.000Z</Time>
            <Position>
              <LatitudeDegrees>43.39602291584014892578125</LatitudeDegrees>
              <LongitudeDegrees>-4.006783403456211090087890625</LongitudeDegrees>
            </Position>
            <AltitudeMeters>46.59999847412109375</AltitudeMeters>
            <DistanceMeters>NAN</DistanceMeters>
          </Trackpoint>
          <Trackpoint>
            <Time>2022-07-14T09:31:40.000Z</Time>
            <Position>
              <LatitudeDegrees>43.395848907530307769775390625</LatitudeDegrees>
              <LongitudeDegrees>-4.00695984251797199249267578125</LongitudeDegrees>
            </Position>
            <AltitudeMeters>47.200000762939453125</AltitudeMeters>
            <DistanceMeters>NAN</DistanceMeters>
          </Trackpoint>
          <Trackpoint>
            <Time>2022-07-14T09:31:48.000Z</Time>
            <Position>
              <LatitudeDegrees>43.395711444318294525146484375</LatitudeDegrees>
              <LongitudeDegrees>-4.007076434791088104248046875</LongitudeDegrees>
            </Position>
            <AltitudeMeters>47.40000152587890625</AltitudeMeters>
            <DistanceMeters>NAN</DistanceMeters>
          </Trackpoint>
          <Trackpoint>
            <Time>2022-07-14T09:31:52.000Z</Time>
            <Position>
              <LatitudeDegrees>43.39564413763582706451416015625</LatitudeDegrees>
              <LongitudeDegrees>-4.0071436576545238494873046875</LongitudeDegrees>
            </Position>
            <AltitudeMeters>47.59999847412109375</AltitudeMeters>
            <DistanceMeters>NAN</DistanceMeters>
          </Trackpoint>
          <Trackpoint>
            <Time>2022-07-14T09:31:56.000Z</Time>
            <Position>
              <LatitudeDegrees>43.39557842351496219635009765625</LatitudeDegrees>
              <LongitudeDegrees>-4.007201492786407470703125</LongitudeDegrees>
            </Position>
            <AltitudeMeters>48</AltitudeMeters>
            <DistanceMeters>NAN</DistanceMeters>
          </Trackpoint>
          <Trackpoint>
            <Time>2022-07-14T09:32:07.000Z</Time>
            <Position>
              <LatitudeDegrees>43.3953930996358394622802734375</LatitudeDegrees>
              <LongitudeDegrees>-4.00737248361110687255859375</LongitudeDegrees>
            </Position>
            <AltitudeMeters>48.40000152587890625</AltitudeMeters>
            <DistanceMeters>NAN</DistanceMeters>
          </Trackpoint>
          <Trackpoint>
            <Time>2022-07-14T09:32:17.000Z</Time>
            <Position>
              <LatitudeDegrees>43.3952542953193187713623046875</LatitudeDegrees>
              <LongitudeDegrees>-4.00755059905350208282470703125</LongitudeDegrees>
            </Position>
            <AltitudeMeters>48.59999847412109375</AltitudeMeters>
            <DistanceMeters>NAN</DistanceMeters>
          </Trackpoint>
          <Trackpoint>
            <Time>2022-07-14T09:32:19.000Z</Time>
            <Position>
              <LatitudeDegrees>43.395242393016815185546875</LatitudeDegrees>
              <LongitudeDegrees>-4.00760625489056110382080078125</LongitudeDegrees>
            </Position>
            <AltitudeMeters>48.799999237060546875</AltitudeMeters>
            <DistanceMeters>NAN</DistanceMeters>
          </Trackpoint>
          <Trackpoint>
            <Time>2022-07-14T09:32:24.000Z</Time>
            <Position>
              <LatitudeDegrees>43.39521079324185848236083984375</LatitudeDegrees>
              <LongitudeDegrees>-4.00776182301342487335205078125</LongitudeDegrees>
            </Position>
            <AltitudeMeters>48.799999237060546875</AltitudeMeters>
            <DistanceMeters>NAN</DistanceMeters>
          </Trackpoint>
          <Trackpoint>
            <Time>2022-07-14T09:32:27.000Z</Time>
            <Position>
              <LatitudeDegrees>43.39519754983484745025634765625</LatitudeDegrees>
              <LongitudeDegrees>-4.0078564547002315521240234375</LongitudeDegrees>
            </Position>
            <AltitudeMeters>49</AltitudeMeters>
            <DistanceMeters>NAN</DistanceMeters>
          </Trackpoint>
          <Trackpoint>
            <Time>2022-07-14T09:32:35.000Z</Time>
            <Position>
              <LatitudeDegrees>43.39516100473701953887939453125</LatitudeDegrees>
              <LongitudeDegrees>-4.00813465006649494171142578125</LongitudeDegrees>
            </Position>
            <AltitudeMeters>48.799999237060546875</AltitudeMeters>
            <DistanceMeters>NAN</DistanceMeters>
          </Trackpoint>
          <Trackpoint>
            <Time>2022-07-14T09:32:45.000Z</Time>
            <Position>
              <LatitudeDegrees>43.39509864337742328643798828125</LatitudeDegrees>
              <LongitudeDegrees>-4.0085035376250743865966796875</LongitudeDegrees>
            </Position>
            <AltitudeMeters>49.200000762939453125</AltitudeMeters>
            <DistanceMeters>NAN</DistanceMeters>
          </Trackpoint>
          <Trackpoint>
            <Time>2022-07-14T09:32:52.000Z</Time>
            <Position>
              <LatitudeDegrees>43.3950564824044704437255859375</LatitudeDegrees>
              <LongitudeDegrees>-4.0087506361305713653564453125</LongitudeDegrees>
            </Position>
            <AltitudeMeters>49</AltitudeMeters>
            <DistanceMeters>NAN</DistanceMeters>
          </Trackpoint>
          <Trackpoint>
            <Time>2022-07-14T09:32:58.000Z</Time>
            <Position>
              <LatitudeDegrees>43.395022451877593994140625</LatitudeDegrees>
              <LongitudeDegrees>-4.008966051042079925537109375</LongitudeDegrees>
            </Position>
            <AltitudeMeters>49</AltitudeMeters>
            <DistanceMeters>NAN</DistanceMeters>
          </Trackpoint>
          <Trackpoint>
            <Time>2022-07-14T09:33:03.000Z</Time>
            <Position>
              <LatitudeDegrees>43.39499361813068389892578125</LatitudeDegrees>
              <LongitudeDegrees>-4.0091348625719547271728515625</LongitudeDegrees>
            </Position>
            <AltitudeMeters>49.799999237060546875</AltitudeMeters>
            <DistanceMeters>NAN</DistanceMeters>
          </Trackpoint>
          <Trackpoint>
            <Time>2022-07-14T09:33:07.000Z</Time>
            <Position>
              <LatitudeDegrees>43.39497978799045085906982421875</LatitudeDegrees>
              <LongitudeDegrees>-4.00927090086042881011962890625</LongitudeDegrees>
            </Position>
            <AltitudeMeters>50</AltitudeMeters>
            <DistanceMeters>NAN</DistanceMeters>
          </Trackpoint>
          <Trackpoint>
            <Time>2022-07-14T09:33:18.000Z</Time>
            <Position>
              <LatitudeDegrees>43.3948911912739276885986328125</LatitudeDegrees>
              <LongitudeDegrees>-4.0096354298293590545654296875</LongitudeDegrees>
            </Position>
            <AltitudeMeters>50.59999847412109375</AltitudeMeters>
            <DistanceMeters>NAN</DistanceMeters>
          </Trackpoint>
          <Trackpoint>
            <Time>2022-07-14T09:33:25.000Z</Time>
            <Position>
              <LatitudeDegrees>43.3948103897273540496826171875</LatitudeDegrees>
              <LongitudeDegrees>-4.00990323163568973541259765625</LongitudeDegrees>
            </Position>
            <AltitudeMeters>50.59999847412109375</AltitudeMeters>
            <DistanceMeters>NAN</DistanceMeters>
          </Trackpoint>
          <Trackpoint>
            <Time>2022-07-14T09:33:35.000Z</Time>
            <Position>
              <LatitudeDegrees>43.39463998563587665557861328125</LatitudeDegrees>
              <LongitudeDegrees>-4.0103827603161334991455078125</LongitudeDegrees>
            </Position>
            <AltitudeMeters>50</AltitudeMeters>
            <DistanceMeters>NAN</DistanceMeters>
          </Trackpoint>
          <Trackpoint>
            <Time>2022-07-14T09:33:38.000Z</Time>
            <Position>
              <LatitudeDegrees>43.39458198286592960357666015625</LatitudeDegrees>
              <LongitudeDegrees>-4.01055836118757724761962890625</LongitudeDegrees>
            </Position>
            <AltitudeMeters>50</AltitudeMeters>
            <DistanceMeters>NAN</DistanceMeters>
          </Trackpoint>
          <Trackpoint>
            <Time>2022-07-14T09:33:42.000Z</Time>
            <Position>
              <LatitudeDegrees>43.3944739401340484619140625</LatitudeDegrees>
              <LongitudeDegrees>-4.01083328761160373687744140625</LongitudeDegrees>
            </Position>
            <AltitudeMeters>49</AltitudeMeters>
            <DistanceMeters>NAN</DistanceMeters>
          </Trackpoint>
          <Trackpoint>
            <Time>2022-07-14T09:33:43.000Z</Time>
            <Position>
              <LatitudeDegrees>43.39444384910166263580322265625</LatitudeDegrees>
              <LongitudeDegrees>-4.0109084732830524444580078125</LongitudeDegrees>
            </Position>
            <AltitudeMeters>48.59999847412109375</AltitudeMeters>
            <DistanceMeters>NAN</DistanceMeters>
          </Trackpoint>
          <Trackpoint>
            <Time>2022-07-14T09:33:49.000Z</Time>
            <Position>
              <LatitudeDegrees>43.39426137506961822509765625</LatitudeDegrees>
              <LongitudeDegrees>-4.01134441606700420379638671875</LongitudeDegrees>
            </Position>
            <AltitudeMeters>47.59999847412109375</AltitudeMeters>
            <DistanceMeters>NAN</DistanceMeters>
          </Trackpoint>
          <Trackpoint>
            <Time>2022-07-14T09:33:50.000Z</Time>
            <Position>
              <LatitudeDegrees>43.39422122575342655181884765625</LatitudeDegrees>
              <LongitudeDegrees>-4.0114308334887027740478515625</LongitudeDegrees>
            </Position>
            <AltitudeMeters>47.40000152587890625</AltitudeMeters>
            <DistanceMeters>NAN</DistanceMeters>
          </Trackpoint>
          <Trackpoint>
            <Time>2022-07-14T09:33:52.000Z</Time>
            <Position>
              <LatitudeDegrees>43.3941384963691234588623046875</LatitudeDegrees>
              <LongitudeDegrees>-4.0115780197083950042724609375</LongitudeDegrees>
            </Position>
            <AltitudeMeters>47</AltitudeMeters>
            <DistanceMeters>NAN</DistanceMeters>
          </Trackpoint>
          <Trackpoint>
            <Time>2022-07-14T09:33:54.000Z</Time>
            <Position>
              <LatitudeDegrees>43.3940446190536022186279296875</LatitudeDegrees>
              <LongitudeDegrees>-4.0117017365992069244384765625</LongitudeDegrees>
            </Position>
            <AltitudeMeters>46.200000762939453125</AltitudeMeters>
            <DistanceMeters>NAN</DistanceMeters>
          </Trackpoint>
          <Trackpoint>
            <Time>2022-07-14T09:33:57.000Z</Time>
            <Position>
              <LatitudeDegrees>43.39383892714977264404296875</LatitudeDegrees>
              <LongitudeDegrees>-4.0119146369397640228271484375</LongitudeDegrees>
            </Position>
            <AltitudeMeters>45.200000762939453125</AltitudeMeters>
            <DistanceMeters>NAN</DistanceMeters>
          </Trackpoint>
          <Trackpoint>
            <Time>2022-07-14T09:33:59.000Z</Time>
            <Position>
              <LatitudeDegrees>43.39370238594710826873779296875</LatitudeDegrees>
              <LongitudeDegrees>-4.0120464004576206207275390625</LongitudeDegrees>
            </Position>
            <AltitudeMeters>44.200000762939453125</AltitudeMeters>
            <DistanceMeters>NAN</DistanceMeters>
          </Trackpoint>
          <Trackpoint>
            <Time>2022-07-14T09:34:00.000Z</Time>
            <Position>
              <LatitudeDegrees>43.3936111070215702056884765625</LatitudeDegrees>
              <LongitudeDegrees>-4.01214673183858394622802734375</LongitudeDegrees>
            </Position>
            <AltitudeMeters>44</AltitudeMeters>
            <DistanceMeters>NAN</DistanceMeters>
          </Trackpoint>
          <Trackpoint>
            <Time>2022-07-14T09:34:01.000Z</Time>
            <Position>
              <LatitudeDegrees>43.39353877119719982147216796875</LatitudeDegrees>
              <LongitudeDegrees>-4.01223842985928058624267578125</LongitudeDegrees>
            </Position>
            <AltitudeMeters>43.59999847412109375</AltitudeMeters>
            <DistanceMeters>NAN</DistanceMeters>
          </Trackpoint>
          <Trackpoint>
            <Time>2022-07-14T09:34:03.000Z</Time>
            <Position>
              <LatitudeDegrees>43.3934159763157367706298828125</LatitudeDegrees>
              <LongitudeDegrees>-4.0124504081904888153076171875</LongitudeDegrees>
            </Position>
            <AltitudeMeters>42.40000152587890625</AltitudeMeters>
            <DistanceMeters>NAN</DistanceMeters>
          </Trackpoint>
          <Trackpoint>
            <Time>2022-07-14T09:34:04.000Z</Time>
            <Position>
              <LatitudeDegrees>43.39337088167667388916015625</LatitudeDegrees>
              <LongitudeDegrees>-4.01254386641085147857666015625</LongitudeDegrees>
            </Position>
            <AltitudeMeters>41.59999847412109375</AltitudeMeters>
            <DistanceMeters>NAN</DistanceMeters>
          </Trackpoint>
          <Trackpoint>
            <Time>2022-07-14T09:34:05.000Z</Time>
            <Position>
              <LatitudeDegrees>43.39332033880054950714111328125</LatitudeDegrees>
              <LongitudeDegrees>-4.01267210952937602996826171875</LongitudeDegrees>
            </Position>
            <AltitudeMeters>41</AltitudeMeters>
            <DistanceMeters>NAN</DistanceMeters>
          </Trackpoint>
          <Trackpoint>
            <Time>2022-07-14T09:34:07.000Z</Time>
            <Position>
              <LatitudeDegrees>43.3932600729167461395263671875</LatitudeDegrees>
              <LongitudeDegrees>-4.01297972537577152252197265625</LongitudeDegrees>
            </Position>
            <AltitudeMeters>40.40000152587890625</AltitudeMeters>
            <DistanceMeters>NAN</DistanceMeters>
          </Trackpoint>
          <Trackpoint>
            <Time>2022-07-14T09:34:08.000Z</Time>
            <Position>
              <LatitudeDegrees>43.39324750006198883056640625</LatitudeDegrees>
              <LongitudeDegrees>-4.01310478337109088897705078125</LongitudeDegrees>
            </Position>
            <AltitudeMeters>39.59999847412109375</AltitudeMeters>
            <DistanceMeters>NAN</DistanceMeters>
          </Trackpoint>
          <Trackpoint>
            <Time>2022-07-14T09:34:09.000Z</Time>
            <Position>
              <LatitudeDegrees>43.393244482576847076416015625</LatitudeDegrees>
              <LongitudeDegrees>-4.01327409781515598297119140625</LongitudeDegrees>
            </Position>
            <AltitudeMeters>38.59999847412109375</AltitudeMeters>
            <DistanceMeters>NAN</DistanceMeters>
          </Trackpoint>
          <Trackpoint>
            <Time>2022-07-14T09:34:11.000Z</Time>
            <Position>
              <LatitudeDegrees>43.3932687900960445404052734375</LatitudeDegrees>
              <LongitudeDegrees>-4.01352689601480960845947265625</LongitudeDegrees>
            </Position>
            <AltitudeMeters>36.799999237060546875</AltitudeMeters>
            <DistanceMeters>NAN</DistanceMeters>
          </Trackpoint>
          <Trackpoint>
            <Time>2022-07-14T09:34:12.000Z</Time>
            <Position>
              <LatitudeDegrees>43.3933049999177455902099609375</LatitudeDegrees>
              <LongitudeDegrees>-4.013686738908290863037109375</LongitudeDegrees>
            </Position>
            <AltitudeMeters>36</AltitudeMeters>
            <DistanceMeters>NAN</DistanceMeters>
          </Trackpoint>
          <Trackpoint>
            <Time>2022-07-14T09:34:13.000Z</Time>
            <Position>
              <LatitudeDegrees>43.393348753452301025390625</LatitudeDegrees>
              <LongitudeDegrees>-4.01381523348391056060791015625</LongitudeDegrees>
            </Position>
            <AltitudeMeters>35.59999847412109375</AltitudeMeters>
            <DistanceMeters>NAN</DistanceMeters>
          </Trackpoint>
          <Trackpoint>
            <Time>2022-07-14T09:34:14.000Z</Time>
            <Position>
              <LatitudeDegrees>43.39340181089937686920166015625</LatitudeDegrees>
              <LongitudeDegrees>-4.013936854898929595947265625</LongitudeDegrees>
            </Position>
            <AltitudeMeters>35.200000762939453125</AltitudeMeters>
            <DistanceMeters>NAN</DistanceMeters>
          </Trackpoint>
          <Trackpoint>
            <Time>2022-07-14T09:34:16.000Z</Time>
            <Position>
              <LatitudeDegrees>43.39352401904761791229248046875</LatitudeDegrees>
              <LongitudeDegrees>-4.01416207663714885711669921875</LongitudeDegrees>
            </Position>
            <AltitudeMeters>34.200000762939453125</AltitudeMeters>
            <DistanceMeters>NAN</DistanceMeters>
          </Trackpoint>
          <Trackpoint>
            <Time>2022-07-14T09:34:18.000Z</Time>
            <Position>
              <LatitudeDegrees>43.39365360327064990997314453125</LatitudeDegrees>
              <LongitudeDegrees>-4.0143862925469875335693359375</LongitudeDegrees>
            </Position>
            <AltitudeMeters>32.59999847412109375</AltitudeMeters>
            <DistanceMeters>NAN</DistanceMeters>
          </Trackpoint>
          <Trackpoint>
            <Time>2022-07-14T09:34:20.000Z</Time>
            <Position>
              <LatitudeDegrees>43.39375854469835758209228515625</LatitudeDegrees>
              <LongitudeDegrees>-4.01457488536834716796875</LongitudeDegrees>
            </Position>
            <AltitudeMeters>30.799999237060546875</AltitudeMeters>
            <DistanceMeters>NAN</DistanceMeters>
          </Trackpoint>
          <Trackpoint>
            <Time>2022-07-14T09:34:21.000Z</Time>
            <Position>
              <LatitudeDegrees>43.3938038907945156097412109375</LatitudeDegrees>
              <LongitudeDegrees>-4.01464068330824375152587890625</LongitudeDegrees>
            </Position>
            <AltitudeMeters>29.6000003814697265625</AltitudeMeters>
            <DistanceMeters>NAN</DistanceMeters>
          </Trackpoint>
          <Trackpoint>
            <Time>2022-07-14T09:34:23.000Z</Time>
            <Position>
              <LatitudeDegrees>43.39387874118983745574951171875</LatitudeDegrees>
              <LongitudeDegrees>-4.0147363208234310150146484375</LongitudeDegrees>
            </Position>
            <AltitudeMeters>28</AltitudeMeters>
            <DistanceMeters>NAN</DistanceMeters>
          </Trackpoint>
          <Trackpoint>
            <Time>2022-07-14T09:34:24.000Z</Time>
            <Position>
              <LatitudeDegrees>43.39392006397247314453125</LatitudeDegrees>
              <LongitudeDegrees>-4.01479742489755153656005859375</LongitudeDegrees>
            </Position>
            <AltitudeMeters>27.799999237060546875</AltitudeMeters>
            <DistanceMeters>NAN</DistanceMeters>
          </Trackpoint>
          <Trackpoint>
            <Time>2022-07-14T09:34:27.000Z</Time>
            <Position>
              <LatitudeDegrees>43.394055180251598358154296875</LatitudeDegrees>
              <LongitudeDegrees>-4.01499473489820957183837890625</LongitudeDegrees>
            </Position>
            <AltitudeMeters>26.6000003814697265625</AltitudeMeters>
            <DistanceMeters>NAN</DistanceMeters>
          </Trackpoint>
          <Trackpoint>
            <Time>2022-07-14T09:34:32.000Z</Time>
            <Position>
              <LatitudeDegrees>43.39423748664557933807373046875</LatitudeDegrees>
              <LongitudeDegrees>-4.01527821086347103118896484375</LongitudeDegrees>
            </Position>
            <AltitudeMeters>25.799999237060546875</AltitudeMeters>
            <DistanceMeters>NAN</DistanceMeters>
          </Trackpoint>
          <Trackpoint>
            <Time>2022-07-14T09:34:33.000Z</Time>
            <Position>
              <LatitudeDegrees>43.39425869286060333251953125</LatitudeDegrees>
              <LongitudeDegrees>-4.0153314359486103057861328125</LongitudeDegrees>
            </Position>
            <AltitudeMeters>25.799999237060546875</AltitudeMeters>
            <DistanceMeters>NAN</DistanceMeters>
          </Trackpoint>
          <Trackpoint>
            <Time>2022-07-14T09:34:35.000Z</Time>
            <Position>
              <LatitudeDegrees>43.3942700922489166259765625</LatitudeDegrees>
              <LongitudeDegrees>-4.015506617724895477294921875</LongitudeDegrees>
            </Position>
            <AltitudeMeters>25.6000003814697265625</AltitudeMeters>
            <DistanceMeters>NAN</DistanceMeters>
          </Trackpoint>
          <Trackpoint>
            <Time>2022-07-14T09:34:36.000Z</Time>
            <Position>
              <LatitudeDegrees>43.394246287643909454345703125</LatitudeDegrees>
              <LongitudeDegrees>-4.01558867655694484710693359375</LongitudeDegrees>
            </Position>
            <AltitudeMeters>25.3999996185302734375</AltitudeMeters>
            <DistanceMeters>NAN</DistanceMeters>
          </Trackpoint>
          <Trackpoint>
            <Time>2022-07-14T09:34:37.000Z</Time>
            <Position>
              <LatitudeDegrees>43.39421317912638187408447265625</LatitudeDegrees>
              <LongitudeDegrees>-4.01567417196929454803466796875</LongitudeDegrees>
            </Position>
            <AltitudeMeters>25</AltitudeMeters>
            <DistanceMeters>NAN</DistanceMeters>
          </Trackpoint>
          <Trackpoint>
            <Time>2022-07-14T09:34:38.000Z</Time>
            <Position>
              <LatitudeDegrees>43.39417981915175914764404296875</LatitudeDegrees>
              <LongitudeDegrees>-4.015745334327220916748046875</LongitudeDegrees>
            </Position>
            <AltitudeMeters>24.3999996185302734375</AltitudeMeters>
            <DistanceMeters>NAN</DistanceMeters>
          </Trackpoint>
          <Trackpoint>
            <Time>2022-07-14T09:34:39.000Z</Time>
            <Position>
              <LatitudeDegrees>43.39413606561720371246337890625</LatitudeDegrees>
              <LongitudeDegrees>-4.01583485305309295654296875</LongitudeDegrees>
            </Position>
            <AltitudeMeters>24.200000762939453125</AltitudeMeters>
            <DistanceMeters>NAN</DistanceMeters>
          </Trackpoint>
          <Trackpoint>
            <Time>2022-07-14T09:34:42.000Z</Time>
            <Position>
              <LatitudeDegrees>43.3939859457314014434814453125</LatitudeDegrees>
              <LongitudeDegrees>-4.0161314047873020172119140625</LongitudeDegrees>
            </Position>
            <AltitudeMeters>23</AltitudeMeters>
            <DistanceMeters>NAN</DistanceMeters>
          </Trackpoint>
          <Trackpoint>
            <Time>2022-07-14T09:34:44.000Z</Time>
            <Position>
              <LatitudeDegrees>43.39389315806329250335693359375</LatitudeDegrees>
              <LongitudeDegrees>-4.0163191594183444976806640625</LongitudeDegrees>
            </Position>
            <AltitudeMeters>22.6000003814697265625</AltitudeMeters>
            <DistanceMeters>NAN</DistanceMeters>
          </Trackpoint>
          <Trackpoint>
            <Time>2022-07-14T09:34:45.000Z</Time>
            <Position>
              <LatitudeDegrees>43.39384353719651699066162109375</LatitudeDegrees>
              <LongitudeDegrees>-4.01642854325473308563232421875</LongitudeDegrees>
            </Position>
            <AltitudeMeters>22.3999996185302734375</AltitudeMeters>
            <DistanceMeters>NAN</DistanceMeters>
          </Trackpoint>
          <Trackpoint>
            <Time>2022-07-14T09:34:46.000Z</Time>
            <Position>
              <LatitudeDegrees>43.39380464516580104827880859375</LatitudeDegrees>
              <LongitudeDegrees>-4.01651957072317600250244140625</LongitudeDegrees>
            </Position>
            <AltitudeMeters>22.3999996185302734375</AltitudeMeters>
            <DistanceMeters>NAN</DistanceMeters>
          </Trackpoint>
          <Trackpoint>
            <Time>2022-07-14T09:34:49.000Z</Time>
            <Position>
              <LatitudeDegrees>43.39371730573475360870361328125</LatitudeDegrees>
              <LongitudeDegrees>-4.0167724527418613433837890625</LongitudeDegrees>
            </Position>
            <AltitudeMeters>22</AltitudeMeters>
            <DistanceMeters>NAN</DistanceMeters>
          </Trackpoint>
          <Trackpoint>
            <Time>2022-07-14T09:34:50.000Z</Time>
            <Position>
              <LatitudeDegrees>43.39369433932006359100341796875</LatitudeDegrees>
              <LongitudeDegrees>-4.01685518212616443634033203125</LongitudeDegrees>
            </Position>
            <AltitudeMeters>22</AltitudeMeters>
            <DistanceMeters>NAN</DistanceMeters>
          </Trackpoint>
          <Trackpoint>
            <Time>2022-07-14T09:34:55.000Z</Time>
            <Position>
              <LatitudeDegrees>43.3936188183724880218505859375</LatitudeDegrees>
              <LongitudeDegrees>-4.017190039157867431640625</LongitudeDegrees>
            </Position>
            <AltitudeMeters>22</AltitudeMeters>
            <DistanceMeters>NAN</DistanceMeters>
          </Trackpoint>
          <Trackpoint>
            <Time>2022-07-14T09:34:56.000Z</Time>
            <Position>
              <LatitudeDegrees>43.3936050720512866973876953125</LatitudeDegrees>
              <LongitudeDegrees>-4.017244689166545867919921875</LongitudeDegrees>
            </Position>
            <AltitudeMeters>22</AltitudeMeters>
            <DistanceMeters>NAN</DistanceMeters>
          </Trackpoint>
          <Trackpoint>
            <Time>2022-07-14T09:35:01.000Z</Time>
            <Position>
              <LatitudeDegrees>43.39354514144361019134521484375</LatitudeDegrees>
              <LongitudeDegrees>-4.0174547396600246429443359375</LongitudeDegrees>
            </Position>
            <AltitudeMeters>22.6000003814697265625</AltitudeMeters>
            <DistanceMeters>NAN</DistanceMeters>
          </Trackpoint>
          <Trackpoint>
            <Time>2022-07-14T09:35:03.000Z</Time>
            <Position>
              <LatitudeDegrees>43.39351932518184185028076171875</LatitudeDegrees>
              <LongitudeDegrees>-4.0175090543925762176513671875</LongitudeDegrees>
            </Position>
            <AltitudeMeters>22.799999237060546875</AltitudeMeters>
            <DistanceMeters>NAN</DistanceMeters>
          </Trackpoint>
          <Trackpoint>
            <Time>2022-07-14T09:35:05.000Z</Time>
            <Position>
              <LatitudeDegrees>43.3934867195785045623779296875</LatitudeDegrees>
              <LongitudeDegrees>-4.0175694040954113006591796875</LongitudeDegrees>
            </Position>
            <AltitudeMeters>23</AltitudeMeters>
            <DistanceMeters>NAN</DistanceMeters>
          </Trackpoint>
          <Trackpoint>
            <Time>2022-07-14T09:35:08.000Z</Time>
            <Position>
              <LatitudeDegrees>43.39344087056815624237060546875</LatitudeDegrees>
              <LongitudeDegrees>-4.01765364222228527069091796875</LongitudeDegrees>
            </Position>
            <AltitudeMeters>23.200000762939453125</AltitudeMeters>
            <DistanceMeters>NAN</DistanceMeters>
          </Trackpoint>
          <Trackpoint>
            <Time>2022-07-14T09:35:11.000Z</Time>
            <Position>
              <LatitudeDegrees>43.393383286893367767333984375</LatitudeDegrees>
              <LongitudeDegrees>-4.01773578487336635589599609375</LongitudeDegrees>
            </Position>
            <AltitudeMeters>23.3999996185302734375</AltitudeMeters>
            <DistanceMeters>NAN</DistanceMeters>
          </Trackpoint>
          <Trackpoint>
            <Time>2022-07-14T09:35:14.000Z</Time>
            <Position>
              <LatitudeDegrees>43.3933412097394466400146484375</LatitudeDegrees>
              <LongitudeDegrees>-4.01781071908771991729736328125</LongitudeDegrees>
            </Position>
            <AltitudeMeters>23.3999996185302734375</AltitudeMeters>
            <DistanceMeters>NAN</DistanceMeters>
          </Trackpoint>
          <Trackpoint>
            <Time>2022-07-14T09:35:17.000Z</Time>
            <Position>
              <LatitudeDegrees>43.39329016394913196563720703125</LatitudeDegrees>
              <LongitudeDegrees>-4.0178969688713550567626953125</LongitudeDegrees>
            </Position>
            <AltitudeMeters>23.3999996185302734375</AltitudeMeters>
            <DistanceMeters>NAN</DistanceMeters>
          </Trackpoint>
          <Trackpoint>
            <Time>2022-07-14T09:35:18.000Z</Time>
            <Position>
              <LatitudeDegrees>43.39327792637050151824951171875</LatitudeDegrees>
              <LongitudeDegrees>-4.01791985146701335906982421875</LongitudeDegrees>
            </Position>
            <AltitudeMeters>23.6000003814697265625</AltitudeMeters>
            <DistanceMeters>NAN</DistanceMeters>
          </Trackpoint>
          <Trackpoint>
            <Time>2022-07-14T09:35:24.000Z</Time>
            <Position>
              <LatitudeDegrees>43.39315387420356273651123046875</LatitudeDegrees>
              <LongitudeDegrees>-4.01811934076249599456787109375</LongitudeDegrees>
            </Position>
            <AltitudeMeters>23.6000003814697265625</AltitudeMeters>
            <DistanceMeters>NAN</DistanceMeters>
          </Trackpoint>
          <Trackpoint>
            <Time>2022-07-14T09:35:26.000Z</Time>
            <Position>
              <LatitudeDegrees>43.393109031021595001220703125</LatitudeDegrees>
              <LongitudeDegrees>-4.01818689890205860137939453125</LongitudeDegrees>
            </Position>
            <AltitudeMeters>23.3999996185302734375</AltitudeMeters>
            <DistanceMeters>NAN</DistanceMeters>
          </Trackpoint>
          <Trackpoint>
            <Time>2022-07-14T09:35:33.000Z</Time>
            <Position>
              <LatitudeDegrees>43.392968215048313140869140625</LatitudeDegrees>
              <LongitudeDegrees>-4.01842477731406688690185546875</LongitudeDegrees>
            </Position>
            <AltitudeMeters>23.3999996185302734375</AltitudeMeters>
            <DistanceMeters>NAN</DistanceMeters>
          </Trackpoint>
          <Trackpoint>
            <Time>2022-07-14T09:35:38.000Z</Time>
            <Position>
              <LatitudeDegrees>43.392872996628284454345703125</LatitudeDegrees>
              <LongitudeDegrees>-4.0185879729688167572021484375</LongitudeDegrees>
            </Position>
            <AltitudeMeters>23.6000003814697265625</AltitudeMeters>
            <DistanceMeters>NAN</DistanceMeters>
          </Trackpoint>
          <Trackpoint>
            <Time>2022-07-14T09:35:41.000Z</Time>
            <Position>
              <LatitudeDegrees>43.3928168378770351409912109375</LatitudeDegrees>
              <LongitudeDegrees>-4.018673636019229888916015625</LongitudeDegrees>
            </Position>
            <AltitudeMeters>23.799999237060546875</AltitudeMeters>
            <DistanceMeters>NAN</DistanceMeters>
          </Trackpoint>
          <Trackpoint>
            <Time>2022-07-14T09:35:43.000Z</Time>
            <Position>
              <LatitudeDegrees>43.3927886746823787689208984375</LatitudeDegrees>
              <LongitudeDegrees>-4.01871864683926105499267578125</LongitudeDegrees>
            </Position>
            <AltitudeMeters>24</AltitudeMeters>
            <DistanceMeters>NAN</DistanceMeters>
          </Trackpoint>
          <Trackpoint>
            <Time>2022-07-14T09:35:46.000Z</Time>
            <Position>
              <LatitudeDegrees>43.39274215511977672576904296875</LatitudeDegrees>
              <LongitudeDegrees>-4.0187953412532806396484375</LongitudeDegrees>
            </Position>
            <AltitudeMeters>24</AltitudeMeters>
            <DistanceMeters>NAN</DistanceMeters>
          </Trackpoint>
          <Trackpoint>
            <Time>2022-07-14T09:35:51.000Z</Time>
            <Position>
              <LatitudeDegrees>43.39266479015350341796875</LatitudeDegrees>
              <LongitudeDegrees>-4.0188892185688018798828125</LongitudeDegrees>
            </Position>
            <AltitudeMeters>24.3999996185302734375</AltitudeMeters>
            <DistanceMeters>NAN</DistanceMeters>
          </Trackpoint>
          <Trackpoint>
            <Time>2022-07-14T09:35:58.000Z</Time>
            <Position>
              <LatitudeDegrees>43.3925694040954113006591796875</LatitudeDegrees>
              <LongitudeDegrees>-4.0190583653748035430908203125</LongitudeDegrees>
            </Position>
            <AltitudeMeters>24.6000003814697265625</AltitudeMeters>
            <DistanceMeters>NAN</DistanceMeters>
          </Trackpoint>
          <Trackpoint>
            <Time>2022-07-14T09:36:05.000Z</Time>
            <Position>
              <LatitudeDegrees>43.39248483069241046905517578125</LatitudeDegrees>
              <LongitudeDegrees>-4.01921971701085567474365234375</LongitudeDegrees>
            </Position>
            <AltitudeMeters>25</AltitudeMeters>
            <DistanceMeters>NAN</DistanceMeters>
          </Trackpoint>
          <Trackpoint>
            <Time>2022-07-14T09:36:07.000Z</Time>
            <Position>
              <LatitudeDegrees>43.392450548708438873291015625</LatitudeDegrees>
              <LongitudeDegrees>-4.019267074763774871826171875</LongitudeDegrees>
            </Position>
            <AltitudeMeters>25.200000762939453125</AltitudeMeters>
            <DistanceMeters>NAN</DistanceMeters>
          </Trackpoint>
          <Trackpoint>
            <Time>2022-07-14T09:36:14.000Z</Time>
            <Position>
              <LatitudeDegrees>43.39235289953649044036865234375</LatitudeDegrees>
              <LongitudeDegrees>-4.01941518299281597137451171875</LongitudeDegrees>
            </Position>
            <AltitudeMeters>25.6000003814697265625</AltitudeMeters>
            <DistanceMeters>NAN</DistanceMeters>
          </Trackpoint>
          <Trackpoint>
            <Time>2022-07-14T09:36:18.000Z</Time>
            <Position>
              <LatitudeDegrees>43.39229405857622623443603515625</LatitudeDegrees>
              <LongitudeDegrees>-4.01951358653604984283447265625</LongitudeDegrees>
            </Position>
            <AltitudeMeters>25.799999237060546875</AltitudeMeters>
            <DistanceMeters>NAN</DistanceMeters>
          </Trackpoint>
          <Trackpoint>
            <Time>2022-07-14T09:36:22.000Z</Time>
            <Position>
              <LatitudeDegrees>43.39223630726337432861328125</LatitudeDegrees>
              <LongitudeDegrees>-4.01961651630699634552001953125</LongitudeDegrees>
            </Position>
            <AltitudeMeters>25.799999237060546875</AltitudeMeters>
            <DistanceMeters>NAN</DistanceMeters>
          </Trackpoint>
          <Trackpoint>
            <Time>2022-07-14T09:36:29.000Z</Time>
            <Position>
              <LatitudeDegrees>43.39215324260294437408447265625</LatitudeDegrees>
              <LongitudeDegrees>-4.0197859145700931549072265625</LongitudeDegrees>
            </Position>
            <AltitudeMeters>26.200000762939453125</AltitudeMeters>
            <DistanceMeters>NAN</DistanceMeters>
          </Trackpoint>
          <Trackpoint>
            <Time>2022-07-14T09:36:33.000Z</Time>
            <Position>
              <LatitudeDegrees>43.3920929767191410064697265625</LatitudeDegrees>
              <LongitudeDegrees>-4.01987367309629917144775390625</LongitudeDegrees>
            </Position>
            <AltitudeMeters>26.3999996185302734375</AltitudeMeters>
            <DistanceMeters>NAN</DistanceMeters>
          </Trackpoint>
          <Trackpoint>
            <Time>2022-07-14T09:36:42.000Z</Time>
            <Position>
              <LatitudeDegrees>43.39197504334151744842529296875</LatitudeDegrees>
              <LongitudeDegrees>-4.0200437419116497039794921875</LongitudeDegrees>
            </Position>
            <AltitudeMeters>26.799999237060546875</AltitudeMeters>
            <DistanceMeters>NAN</DistanceMeters>
          </Trackpoint>
          <Trackpoint>
            <Time>2022-07-14T09:36:49.000Z</Time>
            <Position>
              <LatitudeDegrees>43.3918864466249942779541015625</LatitudeDegrees>
              <LongitudeDegrees>-4.02017877437174320220947265625</LongitudeDegrees>
            </Position>
            <AltitudeMeters>27</AltitudeMeters>
            <DistanceMeters>NAN</DistanceMeters>
          </Trackpoint>
          <Trackpoint>
            <Time>2022-07-14T09:36:50.000Z</Time>
            <Position>
              <LatitudeDegrees>43.39187546633183956146240234375</LatitudeDegrees>
              <LongitudeDegrees>-4.0202093683183193206787109375</LongitudeDegrees>
            </Position>
            <AltitudeMeters>27</AltitudeMeters>
            <DistanceMeters>NAN</DistanceMeters>
          </Trackpoint>
          <Trackpoint>
            <Time>2022-07-14T09:36:57.000Z</Time>
            <Position>
              <LatitudeDegrees>43.39178896509110927581787109375</LatitudeDegrees>
              <LongitudeDegrees>-4.02041983790695667266845703125</LongitudeDegrees>
            </Position>
            <AltitudeMeters>27</AltitudeMeters>
            <DistanceMeters>NAN</DistanceMeters>
          </Trackpoint>
          <Trackpoint>
            <Time>2022-07-14T09:36:59.000Z</Time>
            <Position>
              <LatitudeDegrees>43.391759209334850311279296875</LatitudeDegrees>
              <LongitudeDegrees>-4.02048471383750438690185546875</LongitudeDegrees>
            </Position>
            <AltitudeMeters>27.200000762939453125</AltitudeMeters>
            <DistanceMeters>NAN</DistanceMeters>
          </Trackpoint>
          <Trackpoint>
            <Time>2022-07-14T09:37:01.000Z</Time>
            <Position>
              <LatitudeDegrees>43.39172945357859134674072265625</LatitudeDegrees>
              <LongitudeDegrees>-4.02054615318775177001953125</LongitudeDegrees>
            </Position>
            <AltitudeMeters>27.200000762939453125</AltitudeMeters>
            <DistanceMeters>NAN</DistanceMeters>
          </Trackpoint>
          <Trackpoint>
            <Time>2022-07-14T09:37:02.000Z</Time>
            <Position>
              <LatitudeDegrees>43.3917127735912799835205078125</LatitudeDegrees>
              <LongitudeDegrees>-4.02057691477239131927490234375</LongitudeDegrees>
            </Position>
            <AltitudeMeters>27.200000762939453125</AltitudeMeters>
            <DistanceMeters>NAN</DistanceMeters>
          </Trackpoint>
          <Trackpoint>
            <Time>2022-07-14T09:37:04.000Z</Time>
            <Position>
              <LatitudeDegrees>43.39168402366340160369873046875</LatitudeDegrees>
              <LongitudeDegrees>-4.02064128778874874114990234375</LongitudeDegrees>
            </Position>
            <AltitudeMeters>27.200000762939453125</AltitudeMeters>
            <DistanceMeters>NAN</DistanceMeters>
          </Trackpoint>
          <Trackpoint>
            <Time>2022-07-14T09:37:07.000Z</Time>
            <Position>
              <LatitudeDegrees>43.3916537649929523468017578125</LatitudeDegrees>
              <LongitudeDegrees>-4.02074790559709072113037109375</LongitudeDegrees>
            </Position>
            <AltitudeMeters>27.3999996185302734375</AltitudeMeters>
            <DistanceMeters>NAN</DistanceMeters>
          </Trackpoint>
          <Trackpoint>
            <Time>2022-07-14T09:37:08.000Z</Time>
            <Position>
              <LatitudeDegrees>43.391644544899463653564453125</LatitudeDegrees>
              <LongitudeDegrees>-4.0207850374281406402587890625</LongitudeDegrees>
            </Position>
            <AltitudeMeters>27.3999996185302734375</AltitudeMeters>
            <DistanceMeters>NAN</DistanceMeters>
          </Trackpoint>
          <Trackpoint>
            <Time>2022-07-14T09:37:10.000Z</Time>
            <Position>
              <LatitudeDegrees>43.39162803255021572113037109375</LatitudeDegrees>
              <LongitudeDegrees>-4.02085904963314533233642578125</LongitudeDegrees>
            </Position>
            <AltitudeMeters>27.3999996185302734375</AltitudeMeters>
            <DistanceMeters>NAN</DistanceMeters>
          </Trackpoint>
          <Trackpoint>
            <Time>2022-07-14T09:37:15.000Z</Time>
            <Position>
              <LatitudeDegrees>43.3915950916707515716552734375</LatitudeDegrees>
              <LongitudeDegrees>-4.021038673818111419677734375</LongitudeDegrees>
            </Position>
            <AltitudeMeters>27.3999996185302734375</AltitudeMeters>
            <DistanceMeters>NAN</DistanceMeters>
          </Trackpoint>
          <Trackpoint>
            <Time>2022-07-14T09:37:25.000Z</Time>
            <Position>
              <LatitudeDegrees>43.3915220014750957489013671875</LatitudeDegrees>
              <LongitudeDegrees>-4.02144377119839191436767578125</LongitudeDegrees>
            </Position>
            <AltitudeMeters>27.200000762939453125</AltitudeMeters>
            <DistanceMeters>NAN</DistanceMeters>
          </Trackpoint>
          <Trackpoint>
            <Time>2022-07-14T09:37:28.000Z</Time>
            <Position>
              <LatitudeDegrees>43.39150465093553066253662109375</LatitudeDegrees>
              <LongitudeDegrees>-4.02153865434229373931884765625</LongitudeDegrees>
            </Position>
            <AltitudeMeters>27</AltitudeMeters>
            <DistanceMeters>NAN</DistanceMeters>
          </Trackpoint>
          <Trackpoint>
            <Time>2022-07-14T09:37:33.000Z</Time>
            <Position>
              <LatitudeDegrees>43.391481935977935791015625</LatitudeDegrees>
              <LongitudeDegrees>-4.02168818749487400054931640625</LongitudeDegrees>
            </Position>
            <AltitudeMeters>27</AltitudeMeters>
            <DistanceMeters>NAN</DistanceMeters>
          </Trackpoint>
          <Trackpoint>
            <Time>2022-07-14T09:37:38.000Z</Time>
            <Position>
              <LatitudeDegrees>43.39148352853953838348388671875</LatitudeDegrees>
              <LongitudeDegrees>-4.021751470863819122314453125</LongitudeDegrees>
            </Position>
            <AltitudeMeters>26.799999237060546875</AltitudeMeters>
            <DistanceMeters>NAN</DistanceMeters>
          </Trackpoint>
          <Trackpoint>
            <Time>2022-07-14T09:37:40.000Z</Time>
            <Position>
              <LatitudeDegrees>43.3914800919592380523681640625</LatitudeDegrees>
              <LongitudeDegrees>-4.02176513336598873138427734375</LongitudeDegrees>
            </Position>
            <AltitudeMeters>26.6000003814697265625</AltitudeMeters>
            <DistanceMeters>NAN</DistanceMeters>
          </Trackpoint>
          <Trackpoint>
            <Time>2022-07-14T09:37:42.000Z</Time>
            <Position>
              <LatitudeDegrees>43.3914646692574024200439453125</LatitudeDegrees>
              <LongitudeDegrees>-4.02180385775864124298095703125</LongitudeDegrees>
            </Position>
            <AltitudeMeters>26.3999996185302734375</AltitudeMeters>
            <DistanceMeters>NAN</DistanceMeters>
          </Trackpoint>
          <Trackpoint>
            <Time>2022-07-14T09:37:44.000Z</Time>
            <Position>
              <LatitudeDegrees>43.39146508835256099700927734375</LatitudeDegrees>
              <LongitudeDegrees>-4.0218629501760005950927734375</LongitudeDegrees>
            </Position>
            <AltitudeMeters>26.3999996185302734375</AltitudeMeters>
            <DistanceMeters>NAN</DistanceMeters>
          </Trackpoint>
          <Trackpoint>
            <Time>2022-07-14T09:37:46.000Z</Time>
            <Position>
              <LatitudeDegrees>43.3914800919592380523681640625</LatitudeDegrees>
              <LongitudeDegrees>-4.021919108927249908447265625</LongitudeDegrees>
            </Position>
            <AltitudeMeters>26.3999996185302734375</AltitudeMeters>
            <DistanceMeters>NAN</DistanceMeters>
          </Trackpoint>
          <Trackpoint>
            <Time>2022-07-14T09:37:49.000Z</Time>
            <Position>
              <LatitudeDegrees>43.39149375446140766143798828125</LatitudeDegrees>
              <LongitudeDegrees>-4.02197266928851604461669921875</LongitudeDegrees>
            </Position>
            <AltitudeMeters>26.200000762939453125</AltitudeMeters>
            <DistanceMeters>NAN</DistanceMeters>
          </Trackpoint>
          <Trackpoint>
            <Time>2022-07-14T09:37:51.000Z</Time>
            <Position>
              <LatitudeDegrees>43.39146240614354610443115234375</LatitudeDegrees>
              <LongitudeDegrees>-4.022004604339599609375</LongitudeDegrees>
            </Position>
            <AltitudeMeters>26</AltitudeMeters>
            <DistanceMeters>NAN</DistanceMeters>
          </Trackpoint>
          <Trackpoint>
            <Time>2022-07-14T09:37:54.000Z</Time>
            <Position>
              <LatitudeDegrees>43.39144580997526645660400390625</LatitudeDegrees>
              <LongitudeDegrees>-4.0220837295055389404296875</LongitudeDegrees>
            </Position>
            <AltitudeMeters>26</AltitudeMeters>
            <DistanceMeters>NAN</DistanceMeters>
          </Trackpoint>
          <Trackpoint>
            <Time>2022-07-14T09:38:01.000Z</Time>
            <Position>
              <LatitudeDegrees>43.39142770506441593170166015625</LatitudeDegrees>
              <LongitudeDegrees>-4.0221982263028621673583984375</LongitudeDegrees>
            </Position>
            <AltitudeMeters>25.6000003814697265625</AltitudeMeters>
            <DistanceMeters>NAN</DistanceMeters>
          </Trackpoint>
          <Trackpoint>
            <Time>2022-07-14T09:38:32.000Z</Time>
            <Position>
              <LatitudeDegrees>43.3914207480847835540771484375</LatitudeDegrees>
              <LongitudeDegrees>-4.02224893681704998016357421875</LongitudeDegrees>
            </Position>
            <AltitudeMeters>25</AltitudeMeters>
            <DistanceMeters>NAN</DistanceMeters>
          </Trackpoint>
          <Trackpoint>
            <Time>2022-07-14T09:38:35.000Z</Time>
            <Position>
              <LatitudeDegrees>43.3913959376513957977294921875</LatitudeDegrees>
              <LongitudeDegrees>-4.022279195487499237060546875</LongitudeDegrees>
            </Position>
            <AltitudeMeters>24.6000003814697265625</AltitudeMeters>
            <DistanceMeters>NAN</DistanceMeters>
          </Trackpoint>
          <Trackpoint>
            <Time>2022-07-14T09:38:38.000Z</Time>
            <Position>
              <LatitudeDegrees>43.39136433787643909454345703125</LatitudeDegrees>
              <LongitudeDegrees>-4.0223206020891666412353515625</LongitudeDegrees>
            </Position>
            <AltitudeMeters>24.6000003814697265625</AltitudeMeters>
            <DistanceMeters>NAN</DistanceMeters>
          </Trackpoint>
          <Trackpoint>
            <Time>2022-07-14T09:38:41.000Z</Time>
            <Position>
              <LatitudeDegrees>43.3913510106503963470458984375</LatitudeDegrees>
              <LongitudeDegrees>-4.02241053991019725799560546875</LongitudeDegrees>
            </Position>
            <AltitudeMeters>24.3999996185302734375</AltitudeMeters>
            <DistanceMeters>NAN</DistanceMeters>
          </Trackpoint>
          <Trackpoint>
            <Time>2022-07-14T09:38:46.000Z</Time>
            <Position>
              <LatitudeDegrees>43.391315303742885589599609375</LatitudeDegrees>
              <LongitudeDegrees>-4.0226223506033420562744140625</LongitudeDegrees>
            </Position>
            <AltitudeMeters>24.200000762939453125</AltitudeMeters>
            <DistanceMeters>NAN</DistanceMeters>
          </Trackpoint>
          <Trackpoint>
            <Time>2022-07-14T09:38:47.000Z</Time>
            <Position>
              <LatitudeDegrees>43.39130289852619171142578125</LatitudeDegrees>
              <LongitudeDegrees>-4.0226726420223712921142578125</LongitudeDegrees>
            </Position>
            <AltitudeMeters>24.200000762939453125</AltitudeMeters>
            <DistanceMeters>NAN</DistanceMeters>
          </Trackpoint>
          <Trackpoint>
            <Time>2022-07-14T09:38:51.000Z</Time>
            <Position>
              <LatitudeDegrees>43.3912624977529048919677734375</LatitudeDegrees>
              <LongitudeDegrees>-4.02287221513688564300537109375</LongitudeDegrees>
            </Position>
            <AltitudeMeters>24</AltitudeMeters>
            <DistanceMeters>NAN</DistanceMeters>
          </Trackpoint>
          <Trackpoint>
            <Time>2022-07-14T09:38:54.000Z</Time>
            <Position>
              <LatitudeDegrees>43.39123508892953395843505859375</LatitudeDegrees>
              <LongitudeDegrees>-4.023046977818012237548828125</LongitudeDegrees>
            </Position>
            <AltitudeMeters>23.799999237060546875</AltitudeMeters>
            <DistanceMeters>NAN</DistanceMeters>
          </Trackpoint>
          <Trackpoint>
            <Time>2022-07-14T09:39:02.000Z</Time>
            <Position>
              <LatitudeDegrees>43.3911632560193538665771484375</LatitudeDegrees>
              <LongitudeDegrees>-4.02352382428944110870361328125</LongitudeDegrees>
            </Position>
            <AltitudeMeters>23.799999237060546875</AltitudeMeters>
            <DistanceMeters>NAN</DistanceMeters>
          </Trackpoint>
          <Trackpoint>
            <Time>2022-07-14T09:39:06.000Z</Time>
            <Position>
              <LatitudeDegrees>43.3911233581602573394775390625</LatitudeDegrees>
              <LongitudeDegrees>-4.0237735211849212646484375</LongitudeDegrees>
            </Position>
            <AltitudeMeters>23.6000003814697265625</AltitudeMeters>
            <DistanceMeters>NAN</DistanceMeters>
          </Trackpoint>
          <Trackpoint>
            <Time>2022-07-14T09:39:10.000Z</Time>
            <Position>
              <LatitudeDegrees>43.39107147417962551116943359375</LatitudeDegrees>
              <LongitudeDegrees>-4.024046100676059722900390625</LongitudeDegrees>
            </Position>
            <AltitudeMeters>23</AltitudeMeters>
            <DistanceMeters>NAN</DistanceMeters>
          </Trackpoint>
          <Trackpoint>
            <Time>2022-07-14T09:39:13.000Z</Time>
            <Position>
              <LatitudeDegrees>43.39103157632052898406982421875</LatitudeDegrees>
              <LongitudeDegrees>-4.0242776088416576385498046875</LongitudeDegrees>
            </Position>
            <AltitudeMeters>22.799999237060546875</AltitudeMeters>
            <DistanceMeters>NAN</DistanceMeters>
          </Trackpoint>
          <Trackpoint>
            <Time>2022-07-14T09:39:15.000Z</Time>
            <Position>
              <LatitudeDegrees>43.39100291021168231964111328125</LatitudeDegrees>
              <LongitudeDegrees>-4.024441726505756378173828125</LongitudeDegrees>
            </Position>
            <AltitudeMeters>22.3999996185302734375</AltitudeMeters>
            <DistanceMeters>NAN</DistanceMeters>
          </Trackpoint>
          <Trackpoint>
            <Time>2022-07-14T09:39:22.000Z</Time>
            <Position>
              <LatitudeDegrees>43.390894867479801177978515625</LatitudeDegrees>
              <LongitudeDegrees>-4.02506793849170207977294921875</LongitudeDegrees>
            </Position>
            <AltitudeMeters>21.799999237060546875</AltitudeMeters>
            <DistanceMeters>NAN</DistanceMeters>
          </Trackpoint>
          <Trackpoint>
            <Time>2022-07-14T09:39:23.000Z</Time>
            <Position>
              <LatitudeDegrees>43.39088288135826587677001953125</LatitudeDegrees>
              <LongitudeDegrees>-4.02515980415046215057373046875</LongitudeDegrees>
            </Position>
            <AltitudeMeters>21.3999996185302734375</AltitudeMeters>
            <DistanceMeters>NAN</DistanceMeters>
          </Trackpoint>
          <Trackpoint>
            <Time>2022-07-14T09:39:27.000Z</Time>
            <Position>
              <LatitudeDegrees>43.39083242230117321014404296875</LatitudeDegrees>
              <LongitudeDegrees>-4.02541545219719409942626953125</LongitudeDegrees>
            </Position>
            <AltitudeMeters>20</AltitudeMeters>
            <DistanceMeters>NAN</DistanceMeters>
          </Trackpoint>
          <Trackpoint>
            <Time>2022-07-14T09:39:30.000Z</Time>
            <Position>
              <LatitudeDegrees>43.3908289857208728790283203125</LatitudeDegrees>
              <LongitudeDegrees>-4.0254302881658077239990234375</LongitudeDegrees>
            </Position>
            <AltitudeMeters>19</AltitudeMeters>
            <DistanceMeters>NAN</DistanceMeters>
          </Trackpoint>
          <Trackpoint>
            <Time>2022-07-14T09:46:15.000Z</Time>
            <Position>
              <LatitudeDegrees>43.39085957966744899749755859375</LatitudeDegrees>
              <LongitudeDegrees>-4.02549323625862598419189453125</LongitudeDegrees>
            </Position>
            <AltitudeMeters>18.799999237060546875</AltitudeMeters>
            <DistanceMeters>NAN</DistanceMeters>
          </Trackpoint>
          <Trackpoint>
            <Time>2022-07-14T09:46:16.000Z</Time>
            <Position>
              <LatitudeDegrees>43.3908574841916561126708984375</LatitudeDegrees>
              <LongitudeDegrees>-4.02552424930036067962646484375</LongitudeDegrees>
            </Position>
            <AltitudeMeters>18.799999237060546875</AltitudeMeters>
            <DistanceMeters>NAN</DistanceMeters>
          </Trackpoint>
          <Trackpoint>
            <Time>2022-07-14T09:46:17.000Z</Time>
            <Position>
              <LatitudeDegrees>43.39085631072521209716796875</LatitudeDegrees>
              <LongitudeDegrees>-4.02555744163691997528076171875</LongitudeDegrees>
            </Position>
            <AltitudeMeters>18.799999237060546875</AltitudeMeters>
            <DistanceMeters>NAN</DistanceMeters>
          </Trackpoint>
          <Trackpoint>
            <Time>2022-07-14T09:46:23.000Z</Time>
            <Position>
              <LatitudeDegrees>43.390831165015697479248046875</LatitudeDegrees>
              <LongitudeDegrees>-4.02575123123824596405029296875</LongitudeDegrees>
            </Position>
            <AltitudeMeters>18.3999996185302734375</AltitudeMeters>
            <DistanceMeters>NAN</DistanceMeters>
          </Trackpoint>
          <Trackpoint>
            <Time>2022-07-14T09:46:30.000Z</Time>
            <Position>
              <LatitudeDegrees>43.39084516279399394989013671875</LatitudeDegrees>
              <LongitudeDegrees>-4.02591702528297901153564453125</LongitudeDegrees>
            </Position>
            <AltitudeMeters>18.200000762939453125</AltitudeMeters>
            <DistanceMeters>NAN</DistanceMeters>
          </Trackpoint>
          <Trackpoint>
            <Time>2022-07-14T09:46:31.000Z</Time>
            <Position>
              <LatitudeDegrees>43.39084558188915252685546875</LatitudeDegrees>
              <LongitudeDegrees>-4.02593471109867095947265625</LongitudeDegrees>
            </Position>
            <AltitudeMeters>18.200000762939453125</AltitudeMeters>
            <DistanceMeters>NAN</DistanceMeters>
          </Trackpoint>
          <Trackpoint>
            <Time>2022-07-14T09:46:35.000Z</Time>
            <Position>
              <LatitudeDegrees>43.39083225466310977935791015625</LatitudeDegrees>
              <LongitudeDegrees>-4.02598994784057140350341796875</LongitudeDegrees>
            </Position>
            <AltitudeMeters>18.200000762939453125</AltitudeMeters>
            <DistanceMeters>NAN</DistanceMeters>
          </Trackpoint>
          <Trackpoint>
            <Time>2022-07-14T09:46:36.000Z</Time>
            <Position>
              <LatitudeDegrees>43.3908283151686191558837890625</LatitudeDegrees>
              <LongitudeDegrees>-4.0260032750666141510009765625</LongitudeDegrees>
            </Position>
            <AltitudeMeters>18.200000762939453125</AltitudeMeters>
            <DistanceMeters>NAN</DistanceMeters>
          </Trackpoint>
          <Trackpoint>
            <Time>2022-07-14T09:46:38.000Z</Time>
            <Position>
              <LatitudeDegrees>43.390803001821041107177734375</LatitudeDegrees>
              <LongitudeDegrees>-4.026027582585811614990234375</LongitudeDegrees>
            </Position>
            <AltitudeMeters>18.200000762939453125</AltitudeMeters>
            <DistanceMeters>NAN</DistanceMeters>
          </Trackpoint>
          <Trackpoint>
            <Time>2022-07-14T09:46:40.000Z</Time>
            <Position>
              <LatitudeDegrees>43.3907696418464183807373046875</LatitudeDegrees>
              <LongitudeDegrees>-4.0260515548288822174072265625</LongitudeDegrees>
            </Position>
            <AltitudeMeters>18.3999996185302734375</AltitudeMeters>
            <DistanceMeters>NAN</DistanceMeters>
          </Trackpoint>
          <Trackpoint>
            <Time>2022-07-14T09:46:41.000Z</Time>
            <Position>
              <LatitudeDegrees>43.390757404267787933349609375</LatitudeDegrees>
              <LongitudeDegrees>-4.02606018818914890289306640625</LongitudeDegrees>
            </Position>
            <AltitudeMeters>18.3999996185302734375</AltitudeMeters>
            <DistanceMeters>NAN</DistanceMeters>
          </Trackpoint>
          <Trackpoint>
            <Time>2022-07-14T09:46:43.000Z</Time>
            <Position>
              <LatitudeDegrees>43.39071524329483509063720703125</LatitudeDegrees>
              <LongitudeDegrees>-4.02609690092504024505615234375</LongitudeDegrees>
            </Position>
            <AltitudeMeters>18.6000003814697265625</AltitudeMeters>
            <DistanceMeters>NAN</DistanceMeters>
          </Trackpoint>
          <Trackpoint>
            <Time>2022-07-14T09:46:49.000Z</Time>
            <Position>
              <LatitudeDegrees>43.390638716518878936767578125</LatitudeDegrees>
              <LongitudeDegrees>-4.0262331068515777587890625</LongitudeDegrees>
            </Position>
            <AltitudeMeters>18.799999237060546875</AltitudeMeters>
            <DistanceMeters>NAN</DistanceMeters>
          </Trackpoint>
          <Trackpoint>
            <Time>2022-07-14T09:46:51.000Z</Time>
            <Position>
              <LatitudeDegrees>43.39060845784842967987060546875</LatitudeDegrees>
              <LongitudeDegrees>-4.026277698576450347900390625</LongitudeDegrees>
            </Position>
            <AltitudeMeters>19</AltitudeMeters>
            <DistanceMeters>NAN</DistanceMeters>
          </Trackpoint>
          <Trackpoint>
            <Time>2022-07-14T09:46:57.000Z</Time>
            <Position>
              <LatitudeDegrees>43.3905176818370819091796875</LatitudeDegrees>
              <LongitudeDegrees>-4.026390016078948974609375</LongitudeDegrees>
            </Position>
            <AltitudeMeters>19</AltitudeMeters>
            <DistanceMeters>NAN</DistanceMeters>
          </Trackpoint>
          <Trackpoint>
            <Time>2022-07-14T09:47:06.000Z</Time>
            <Position>
              <LatitudeDegrees>43.39039237238466739654541015625</LatitudeDegrees>
              <LongitudeDegrees>-4.02659721672534942626953125</LongitudeDegrees>
            </Position>
            <AltitudeMeters>19.6000003814697265625</AltitudeMeters>
            <DistanceMeters>NAN</DistanceMeters>
          </Trackpoint>
          <Trackpoint>
            <Time>2022-07-14T09:47:08.000Z</Time>
            <Position>
              <LatitudeDegrees>43.39035876095294952392578125</LatitudeDegrees>
              <LongitudeDegrees>-4.02665044181048870086669921875</LongitudeDegrees>
            </Position>
            <AltitudeMeters>20</AltitudeMeters>
            <DistanceMeters>NAN</DistanceMeters>
          </Trackpoint>
          <Trackpoint>
            <Time>2022-07-14T09:47:13.000Z</Time>
            <Position>
              <LatitudeDegrees>43.39029413647949695587158203125</LatitudeDegrees>
              <LongitudeDegrees>-4.02675814926624298095703125</LongitudeDegrees>
            </Position>
            <AltitudeMeters>20.3999996185302734375</AltitudeMeters>
            <DistanceMeters>NAN</DistanceMeters>
          </Trackpoint>
          <Trackpoint>
            <Time>2022-07-14T09:47:21.000Z</Time>
            <Position>
              <LatitudeDegrees>43.39019648730754852294921875</LatitudeDegrees>
              <LongitudeDegrees>-4.02691866271197795867919921875</LongitudeDegrees>
            </Position>
            <AltitudeMeters>21</AltitudeMeters>
            <DistanceMeters>NAN</DistanceMeters>
          </Trackpoint>
          <Trackpoint>
            <Time>2022-07-14T09:47:27.000Z</Time>
            <Position>
              <LatitudeDegrees>43.39013152755796909332275390625</LatitudeDegrees>
              <LongitudeDegrees>-4.02705176733434200286865234375</LongitudeDegrees>
            </Position>
            <AltitudeMeters>21.3999996185302734375</AltitudeMeters>
            <DistanceMeters>NAN</DistanceMeters>
          </Trackpoint>
          <Trackpoint>
            <Time>2022-07-14T09:47:34.000Z</Time>
            <Position>
              <LatitudeDegrees>43.39004628360271453857421875</LatitudeDegrees>
              <LongitudeDegrees>-4.0271854586899280548095703125</LongitudeDegrees>
            </Position>
            <AltitudeMeters>22</AltitudeMeters>
            <DistanceMeters>NAN</DistanceMeters>
          </Trackpoint>
          <Trackpoint>
            <Time>2022-07-14T09:47:36.000Z</Time>
            <Position>
              <LatitudeDegrees>43.39002549648284912109375</LatitudeDegrees>
              <LongitudeDegrees>-4.02721923775970935821533203125</LongitudeDegrees>
            </Position>
            <AltitudeMeters>22.200000762939453125</AltitudeMeters>
            <DistanceMeters>NAN</DistanceMeters>
          </Trackpoint>
          <Trackpoint>
            <Time>2022-07-14T09:47:37.000Z</Time>
            <Position>
              <LatitudeDegrees>43.3900099061429500579833984375</LatitudeDegrees>
              <LongitudeDegrees>-4.027228541672229766845703125</LongitudeDegrees>
            </Position>
            <AltitudeMeters>22.200000762939453125</AltitudeMeters>
            <DistanceMeters>NAN</DistanceMeters>
          </Trackpoint>
          <Trackpoint>
            <Time>2022-07-14T09:47:38.000Z</Time>
            <Position>
              <LatitudeDegrees>43.38999322615563869476318359375</LatitudeDegrees>
              <LongitudeDegrees>-4.0272461436688899993896484375</LongitudeDegrees>
            </Position>
            <AltitudeMeters>22.200000762939453125</AltitudeMeters>
            <DistanceMeters>NAN</DistanceMeters>
          </Trackpoint>
          <Trackpoint>
            <Time>2022-07-14T09:47:45.000Z</Time>
            <Position>
              <LatitudeDegrees>43.38991963304579257965087890625</LatitudeDegrees>
              <LongitudeDegrees>-4.0273792482912540435791015625</LongitudeDegrees>
            </Position>
            <AltitudeMeters>22.6000003814697265625</AltitudeMeters>
            <DistanceMeters>NAN</DistanceMeters>
          </Trackpoint>
          <Trackpoint>
            <Time>2022-07-14T09:47:50.000Z</Time>
            <Position>
              <LatitudeDegrees>43.38990806601941585540771484375</LatitudeDegrees>
              <LongitudeDegrees>-4.02744588442146778106689453125</LongitudeDegrees>
            </Position>
            <AltitudeMeters>22.3999996185302734375</AltitudeMeters>
            <DistanceMeters>NAN</DistanceMeters>
          </Trackpoint>
          <Trackpoint>
            <Time>2022-07-14T09:47:51.000Z</Time>
            <Position>
              <LatitudeDegrees>43.38989473879337310791015625</LatitudeDegrees>
              <LongitudeDegrees>-4.027453847229480743408203125</LongitudeDegrees>
            </Position>
            <AltitudeMeters>22.3999996185302734375</AltitudeMeters>
            <DistanceMeters>NAN</DistanceMeters>
          </Trackpoint>
          <Trackpoint>
            <Time>2022-07-14T09:47:52.000Z</Time>
            <Position>
              <LatitudeDegrees>43.38988275267183780670166015625</LatitudeDegrees>
              <LongitudeDegrees>-4.027456529438495635986328125</LongitudeDegrees>
            </Position>
            <AltitudeMeters>22.3999996185302734375</AltitudeMeters>
            <DistanceMeters>NAN</DistanceMeters>
          </Trackpoint>
          <Trackpoint>
            <Time>2022-07-14T09:47:54.000Z</Time>
            <Position>
              <LatitudeDegrees>43.3898446150124073028564453125</LatitudeDegrees>
              <LongitudeDegrees>-4.02748092077672481536865234375</LongitudeDegrees>
            </Position>
            <AltitudeMeters>22.3999996185302734375</AltitudeMeters>
            <DistanceMeters>NAN</DistanceMeters>
          </Trackpoint>
          <Trackpoint>
            <Time>2022-07-14T09:47:56.000Z</Time>
            <Position>
              <LatitudeDegrees>43.38981687091290950775146484375</LatitudeDegrees>
              <LongitudeDegrees>-4.0275240875780582427978515625</LongitudeDegrees>
            </Position>
            <AltitudeMeters>22.6000003814697265625</AltitudeMeters>
            <DistanceMeters>NAN</DistanceMeters>
          </Trackpoint>
          <Trackpoint>
            <Time>2022-07-14T09:47:57.000Z</Time>
            <Position>
              <LatitudeDegrees>43.38980077765882015228271484375</LatitudeDegrees>
              <LongitudeDegrees>-4.0275438688695430755615234375</LongitudeDegrees>
            </Position>
            <AltitudeMeters>22.6000003814697265625</AltitudeMeters>
            <DistanceMeters>NAN</DistanceMeters>
          </Trackpoint>
          <Trackpoint>
            <Time>2022-07-14T09:48:01.000Z</Time>
            <Position>
              <LatitudeDegrees>43.389755599200725555419921875</LatitudeDegrees>
              <LongitudeDegrees>-4.0276303701102733612060546875</LongitudeDegrees>
            </Position>
            <AltitudeMeters>22.799999237060546875</AltitudeMeters>
            <DistanceMeters>NAN</DistanceMeters>
          </Trackpoint>
          <Trackpoint>
            <Time>2022-07-14T09:48:03.000Z</Time>
            <Position>
              <LatitudeDegrees>43.3897373266518115997314453125</LatitudeDegrees>
              <LongitudeDegrees>-4.0276598744094371795654296875</LongitudeDegrees>
            </Position>
            <AltitudeMeters>22.799999237060546875</AltitudeMeters>
            <DistanceMeters>NAN</DistanceMeters>
          </Trackpoint>
          <Trackpoint>
            <Time>2022-07-14T09:48:07.000Z</Time>
            <Position>
              <LatitudeDegrees>43.3896873705089092254638671875</LatitudeDegrees>
              <LongitudeDegrees>-4.0277410112321376800537109375</LongitudeDegrees>
            </Position>
            <AltitudeMeters>22.799999237060546875</AltitudeMeters>
            <DistanceMeters>NAN</DistanceMeters>
          </Trackpoint>
          <Trackpoint>
            <Time>2022-07-14T09:48:10.000Z</Time>
            <Position>
              <LatitudeDegrees>43.389658033847808837890625</LatitudeDegrees>
              <LongitudeDegrees>-4.0278067253530025482177734375</LongitudeDegrees>
            </Position>
            <AltitudeMeters>23</AltitudeMeters>
            <DistanceMeters>NAN</DistanceMeters>
          </Trackpoint>
          <Trackpoint>
            <Time>2022-07-14T09:48:11.000Z</Time>
            <Position>
              <LatitudeDegrees>43.3896478079259395599365234375</LatitudeDegrees>
              <LongitudeDegrees>-4.027828015387058258056640625</LongitudeDegrees>
            </Position>
            <AltitudeMeters>23.200000762939453125</AltitudeMeters>
            <DistanceMeters>NAN</DistanceMeters>
          </Trackpoint>
          <Trackpoint>
            <Time>2022-07-14T09:48:12.000Z</Time>
            <Position>
              <LatitudeDegrees>43.38963716290891170501708984375</LatitudeDegrees>
              <LongitudeDegrees>-4.0278429351747035980224609375</LongitudeDegrees>
            </Position>
            <AltitudeMeters>23</AltitudeMeters>
            <DistanceMeters>NAN</DistanceMeters>
          </Trackpoint>
          <Trackpoint>
            <Time>2022-07-14T09:48:21.000Z</Time>
            <Position>
              <LatitudeDegrees>43.389520235359668731689453125</LatitudeDegrees>
              <LongitudeDegrees>-4.02800294570624828338623046875</LongitudeDegrees>
            </Position>
            <AltitudeMeters>23.3999996185302734375</AltitudeMeters>
            <DistanceMeters>NAN</DistanceMeters>
          </Trackpoint>
          <Trackpoint>
            <Time>2022-07-14T09:48:28.000Z</Time>
            <Position>
              <LatitudeDegrees>43.3893990330398082733154296875</LatitudeDegrees>
              <LongitudeDegrees>-4.02812205255031585693359375</LongitudeDegrees>
            </Position>
            <AltitudeMeters>23.799999237060546875</AltitudeMeters>
            <DistanceMeters>NAN</DistanceMeters>
          </Trackpoint>
          <Trackpoint>
            <Time>2022-07-14T09:48:29.000Z</Time>
            <Position>
              <LatitudeDegrees>43.389381431043148040771484375</LatitudeDegrees>
              <LongitudeDegrees>-4.02813621796667575836181640625</LongitudeDegrees>
            </Position>
            <AltitudeMeters>23.799999237060546875</AltitudeMeters>
            <DistanceMeters>NAN</DistanceMeters>
          </Trackpoint>
          <Trackpoint>
            <Time>2022-07-14T09:48:31.000Z</Time>
            <Position>
              <LatitudeDegrees>43.3893484063446521759033203125</LatitudeDegrees>
              <LongitudeDegrees>-4.02816739864647388458251953125</LongitudeDegrees>
            </Position>
            <AltitudeMeters>23.799999237060546875</AltitudeMeters>
            <DistanceMeters>NAN</DistanceMeters>
          </Trackpoint>
          <Trackpoint>
            <Time>2022-07-14T09:48:35.000Z</Time>
            <Position>
              <LatitudeDegrees>43.38928713463246822357177734375</LatitudeDegrees>
              <LongitudeDegrees>-4.0282335318624973297119140625</LongitudeDegrees>
            </Position>
            <AltitudeMeters>23.799999237060546875</AltitudeMeters>
            <DistanceMeters>NAN</DistanceMeters>
          </Trackpoint>
          <Trackpoint>
            <Time>2022-07-14T09:48:38.000Z</Time>
            <Position>
              <LatitudeDegrees>43.3892334066331386566162109375</LatitudeDegrees>
              <LongitudeDegrees>-4.02828960679471492767333984375</LongitudeDegrees>
            </Position>
            <AltitudeMeters>24</AltitudeMeters>
            <DistanceMeters>NAN</DistanceMeters>
          </Trackpoint>
          <Trackpoint>
            <Time>2022-07-14T09:48:39.000Z</Time>
            <Position>
              <LatitudeDegrees>43.38921773247420787811279296875</LatitudeDegrees>
              <LongitudeDegrees>-4.02831341139972209930419921875</LongitudeDegrees>
            </Position>
            <AltitudeMeters>24</AltitudeMeters>
            <DistanceMeters>NAN</DistanceMeters>
          </Trackpoint>
          <Trackpoint>
            <Time>2022-07-14T09:48:43.000Z</Time>
            <Position>
              <LatitudeDegrees>43.389154784381389617919921875</LatitudeDegrees>
              <LongitudeDegrees>-4.02837677858769893646240234375</LongitudeDegrees>
            </Position>
            <AltitudeMeters>24.200000762939453125</AltitudeMeters>
            <DistanceMeters>NAN</DistanceMeters>
          </Trackpoint>
          <Trackpoint>
            <Time>2022-07-14T09:48:47.000Z</Time>
            <Position>
              <LatitudeDegrees>43.389100469648838043212890625</LatitudeDegrees>
              <LongitudeDegrees>-4.02843997813761234283447265625</LongitudeDegrees>
            </Position>
            <AltitudeMeters>24.3999996185302734375</AltitudeMeters>
            <DistanceMeters>NAN</DistanceMeters>
          </Trackpoint>
          <Trackpoint>
            <Time>2022-07-14T09:48:54.000Z</Time>
            <Position>
              <LatitudeDegrees>43.38896091096103191375732421875</LatitudeDegrees>
              <LongitudeDegrees>-4.02851826511323451995849609375</LongitudeDegrees>
            </Position>
            <AltitudeMeters>24.6000003814697265625</AltitudeMeters>
            <DistanceMeters>NAN</DistanceMeters>
          </Trackpoint>
          <Trackpoint>
            <Time>2022-07-14T09:48:58.000Z</Time>
            <Position>
              <LatitudeDegrees>43.388889916241168975830078125</LatitudeDegrees>
              <LongitudeDegrees>-4.02858330868184566497802734375</LongitudeDegrees>
            </Position>
            <AltitudeMeters>24.799999237060546875</AltitudeMeters>
            <DistanceMeters>NAN</DistanceMeters>
          </Trackpoint>
          <Trackpoint>
            <Time>2022-07-14T09:49:03.000Z</Time>
            <Position>
              <LatitudeDegrees>43.3888022415339946746826171875</LatitudeDegrees>
              <LongitudeDegrees>-4.0286677144467830657958984375</LongitudeDegrees>
            </Position>
            <AltitudeMeters>25.200000762939453125</AltitudeMeters>
            <DistanceMeters>NAN</DistanceMeters>
          </Trackpoint>
          <Trackpoint>
            <Time>2022-07-14T09:49:04.000Z</Time>
            <Position>
              <LatitudeDegrees>43.388783968985080718994140625</LatitudeDegrees>
              <LongitudeDegrees>-4.0286861546337604522705078125</LongitudeDegrees>
            </Position>
            <AltitudeMeters>25.200000762939453125</AltitudeMeters>
            <DistanceMeters>NAN</DistanceMeters>
          </Trackpoint>
          <Trackpoint>
            <Time>2022-07-14T09:49:10.000Z</Time>
            <Position>
              <LatitudeDegrees>43.38866033591330051422119140625</LatitudeDegrees>
              <LongitudeDegrees>-4.02874541468918323516845703125</LongitudeDegrees>
            </Position>
            <AltitudeMeters>25.3999996185302734375</AltitudeMeters>
            <DistanceMeters>NAN</DistanceMeters>
          </Trackpoint>
          <Trackpoint>
            <Time>2022-07-14T09:49:15.000Z</Time>
            <Position>
              <LatitudeDegrees>43.38855640031397342681884765625</LatitudeDegrees>
              <LongitudeDegrees>-4.02880878187716007232666015625</LongitudeDegrees>
            </Position>
            <AltitudeMeters>25.3999996185302734375</AltitudeMeters>
            <DistanceMeters>NAN</DistanceMeters>
          </Trackpoint>
          <Trackpoint>
            <Time>2022-07-14T09:49:17.000Z</Time>
            <Position>
              <LatitudeDegrees>43.38852840475738048553466796875</LatitudeDegrees>
              <LongitudeDegrees>-4.02884113602340221405029296875</LongitudeDegrees>
            </Position>
            <AltitudeMeters>25.3999996185302734375</AltitudeMeters>
            <DistanceMeters>NAN</DistanceMeters>
          </Trackpoint>
          <Trackpoint>
            <Time>2022-07-14T09:49:21.000Z</Time>
            <Position>
              <LatitudeDegrees>43.38848314248025417327880859375</LatitudeDegrees>
              <LongitudeDegrees>-4.0288806147873401641845703125</LongitudeDegrees>
            </Position>
            <AltitudeMeters>25.799999237060546875</AltitudeMeters>
            <DistanceMeters>NAN</DistanceMeters>
          </Trackpoint>
          <Trackpoint>
            <Time>2022-07-14T09:49:22.000Z</Time>
            <Position>
              <LatitudeDegrees>43.3884699828922748565673828125</LatitudeDegrees>
              <LongitudeDegrees>-4.02888975106179714202880859375</LongitudeDegrees>
            </Position>
            <AltitudeMeters>25.799999237060546875</AltitudeMeters>
            <DistanceMeters>NAN</DistanceMeters>
          </Trackpoint>
          <Trackpoint>
            <Time>2022-07-14T09:49:27.000Z</Time>
            <Position>
              <LatitudeDegrees>43.38840267620980739593505859375</LatitudeDegrees>
              <LongitudeDegrees>-4.02895865030586719512939453125</LongitudeDegrees>
            </Position>
            <AltitudeMeters>26</AltitudeMeters>
            <DistanceMeters>NAN</DistanceMeters>
          </Trackpoint>
          <Trackpoint>
            <Time>2022-07-14T09:49:30.000Z</Time>
            <Position>
              <LatitudeDegrees>43.3883596770465373992919921875</LatitudeDegrees>
              <LongitudeDegrees>-4.02898094616830348968505859375</LongitudeDegrees>
            </Position>
            <AltitudeMeters>26.200000762939453125</AltitudeMeters>
            <DistanceMeters>NAN</DistanceMeters>
          </Trackpoint>
          <Trackpoint>
            <Time>2022-07-14T09:49:34.000Z</Time>
            <Position>
              <LatitudeDegrees>43.388297818601131439208984375</LatitudeDegrees>
              <LongitudeDegrees>-4.0290252864360809326171875</LongitudeDegrees>
            </Position>
            <AltitudeMeters>26.3999996185302734375</AltitudeMeters>
            <DistanceMeters>NAN</DistanceMeters>
          </Trackpoint>
          <Trackpoint>
            <Time>2022-07-14T09:49:42.000Z</Time>
            <Position>
              <LatitudeDegrees>43.38817988522350788116455078125</LatitudeDegrees>
              <LongitudeDegrees>-4.029111452400684356689453125</LongitudeDegrees>
            </Position>
            <AltitudeMeters>26.799999237060546875</AltitudeMeters>
            <DistanceMeters>NAN</DistanceMeters>
          </Trackpoint>
          <Trackpoint>
            <Time>2022-07-14T09:49:45.000Z</Time>
            <Position>
              <LatitudeDegrees>43.388126157224178314208984375</LatitudeDegrees>
              <LongitudeDegrees>-4.02914623729884624481201171875</LongitudeDegrees>
            </Position>
            <AltitudeMeters>27</AltitudeMeters>
            <DistanceMeters>NAN</DistanceMeters>
          </Trackpoint>
          <Trackpoint>
            <Time>2022-07-14T09:49:46.000Z</Time>
            <Position>
              <LatitudeDegrees>43.38811098597943782806396484375</LatitudeDegrees>
              <LongitudeDegrees>-4.02916199527680873870849609375</LongitudeDegrees>
            </Position>
            <AltitudeMeters>27</AltitudeMeters>
            <DistanceMeters>NAN</DistanceMeters>
          </Trackpoint>
          <Trackpoint>
            <Time>2022-07-14T09:49:48.000Z</Time>
            <Position>
              <LatitudeDegrees>43.38807963766157627105712890625</LatitudeDegrees>
              <LongitudeDegrees>-4.029197953641414642333984375</LongitudeDegrees>
            </Position>
            <AltitudeMeters>27</AltitudeMeters>
            <DistanceMeters>NAN</DistanceMeters>
          </Trackpoint>
          <Trackpoint>
            <Time>2022-07-14T09:49:54.000Z</Time>
            <Position>
              <LatitudeDegrees>43.3879878558218479156494140625</LatitudeDegrees>
              <LongitudeDegrees>-4.029267020523548126220703125</LongitudeDegrees>
            </Position>
            <AltitudeMeters>27.200000762939453125</AltitudeMeters>
            <DistanceMeters>NAN</DistanceMeters>
          </Trackpoint>
          <Trackpoint>
            <Time>2022-07-14T09:49:55.000Z</Time>
            <Position>
              <LatitudeDegrees>43.38797092437744140625</LatitudeDegrees>
              <LongitudeDegrees>-4.02928319759666919708251953125</LongitudeDegrees>
            </Position>
            <AltitudeMeters>27.200000762939453125</AltitudeMeters>
            <DistanceMeters>NAN</DistanceMeters>
          </Trackpoint>
          <Trackpoint>
            <Time>2022-07-14T09:49:58.000Z</Time>
            <Position>
              <LatitudeDegrees>43.3879033662378787994384765625</LatitudeDegrees>
              <LongitudeDegrees>-4.02934170328080654144287109375</LongitudeDegrees>
            </Position>
            <AltitudeMeters>27.3999996185302734375</AltitudeMeters>
            <DistanceMeters>NAN</DistanceMeters>
          </Trackpoint>
          <Trackpoint>
            <Time>2022-07-14T09:50:00.000Z</Time>
            <Position>
              <LatitudeDegrees>43.38787495158612728118896484375</LatitudeDegrees>
              <LongitudeDegrees>-4.0293929167091846466064453125</LongitudeDegrees>
            </Position>
            <AltitudeMeters>27.6000003814697265625</AltitudeMeters>
            <DistanceMeters>NAN</DistanceMeters>
          </Trackpoint>
          <Trackpoint>
            <Time>2022-07-14T09:50:10.000Z</Time>
            <Position>
              <LatitudeDegrees>43.38775433599948883056640625</LatitudeDegrees>
              <LongitudeDegrees>-4.02971436269581317901611328125</LongitudeDegrees>
            </Position>
            <AltitudeMeters>27.6000003814697265625</AltitudeMeters>
            <DistanceMeters>NAN</DistanceMeters>
          </Trackpoint>
          <Trackpoint>
            <Time>2022-07-14T09:50:18.000Z</Time>
            <Position>
              <LatitudeDegrees>43.38764092884957790374755859375</LatitudeDegrees>
              <LongitudeDegrees>-4.03001795522868633270263671875</LongitudeDegrees>
            </Position>
            <AltitudeMeters>27.6000003814697265625</AltitudeMeters>
            <DistanceMeters>NAN</DistanceMeters>
          </Trackpoint>
          <Trackpoint>
            <Time>2022-07-14T09:50:25.000Z</Time>
            <Position>
              <LatitudeDegrees>43.38753934018313884735107421875</LatitudeDegrees>
              <LongitudeDegrees>-4.03026086278259754180908203125</LongitudeDegrees>
            </Position>
            <AltitudeMeters>27.3999996185302734375</AltitudeMeters>
            <DistanceMeters>NAN</DistanceMeters>
          </Trackpoint>
          <Trackpoint>
            <Time>2022-07-14T09:50:31.000Z</Time>
            <Position>
              <LatitudeDegrees>43.3874561078846454620361328125</LatitudeDegrees>
              <LongitudeDegrees>-4.03050745837390422821044921875</LongitudeDegrees>
            </Position>
            <AltitudeMeters>27.6000003814697265625</AltitudeMeters>
            <DistanceMeters>NAN</DistanceMeters>
          </Trackpoint>
          <Trackpoint>
            <Time>2022-07-14T09:50:40.000Z</Time>
            <Position>
              <LatitudeDegrees>43.38733884505927562713623046875</LatitudeDegrees>
              <LongitudeDegrees>-4.03086771257221698760986328125</LongitudeDegrees>
            </Position>
            <AltitudeMeters>28</AltitudeMeters>
            <DistanceMeters>NAN</DistanceMeters>
          </Trackpoint>
          <Trackpoint>
            <Time>2022-07-14T09:50:41.000Z</Time>
            <Position>
              <LatitudeDegrees>43.3873231709003448486328125</LatitudeDegrees>
              <LongitudeDegrees>-4.03090828098356723785400390625</LongitudeDegrees>
            </Position>
            <AltitudeMeters>28</AltitudeMeters>
            <DistanceMeters>NAN</DistanceMeters>
          </Trackpoint>
          <Trackpoint>
            <Time>2022-07-14T09:50:46.000Z</Time>
            <Position>
              <LatitudeDegrees>43.387246392667293548583984375</LatitudeDegrees>
              <LongitudeDegrees>-4.0311039984226226806640625</LongitudeDegrees>
            </Position>
            <AltitudeMeters>28</AltitudeMeters>
            <DistanceMeters>NAN</DistanceMeters>
          </Trackpoint>
          <Trackpoint>
            <Time>2022-07-14T09:50:49.000Z</Time>
            <Position>
              <LatitudeDegrees>43.38719719089567661285400390625</LatitudeDegrees>
              <LongitudeDegrees>-4.0312154777348041534423828125</LongitudeDegrees>
            </Position>
            <AltitudeMeters>28</AltitudeMeters>
            <DistanceMeters>NAN</DistanceMeters>
          </Trackpoint>
          <Trackpoint>
            <Time>2022-07-14T09:50:51.000Z</Time>
            <Position>
              <LatitudeDegrees>43.38715276680886745452880859375</LatitudeDegrees>
              <LongitudeDegrees>-4.0313033200800418853759765625</LongitudeDegrees>
            </Position>
            <AltitudeMeters>28.200000762939453125</AltitudeMeters>
            <DistanceMeters>NAN</DistanceMeters>
          </Trackpoint>
          <Trackpoint>
            <Time>2022-07-14T09:51:00.000Z</Time>
            <Position>
              <LatitudeDegrees>43.38701538741588592529296875</LatitudeDegrees>
              <LongitudeDegrees>-4.0316701121628284454345703125</LongitudeDegrees>
            </Position>
            <AltitudeMeters>28.6000003814697265625</AltitudeMeters>
            <DistanceMeters>NAN</DistanceMeters>
          </Trackpoint>
          <Trackpoint>
            <Time>2022-07-14T09:51:09.000Z</Time>
            <Position>
              <LatitudeDegrees>43.3868564665317535400390625</LatitudeDegrees>
              <LongitudeDegrees>-4.03203514404594898223876953125</LongitudeDegrees>
            </Position>
            <AltitudeMeters>29</AltitudeMeters>
            <DistanceMeters>NAN</DistanceMeters>
          </Trackpoint>
          <Trackpoint>
            <Time>2022-07-14T09:51:10.000Z</Time>
            <Position>
              <LatitudeDegrees>43.38683844543993473052978515625</LatitudeDegrees>
              <LongitudeDegrees>-4.0320734493434429168701171875</LongitudeDegrees>
            </Position>
            <AltitudeMeters>29.200000762939453125</AltitudeMeters>
            <DistanceMeters>NAN</DistanceMeters>
          </Trackpoint>
          <Trackpoint>
            <Time>2022-07-14T09:51:13.000Z</Time>
            <Position>
              <LatitudeDegrees>43.386776335537433624267578125</LatitudeDegrees>
              <LongitudeDegrees>-4.0321874432265758514404296875</LongitudeDegrees>
            </Position>
            <AltitudeMeters>29.200000762939453125</AltitudeMeters>
            <DistanceMeters>NAN</DistanceMeters>
          </Trackpoint>
          <Trackpoint>
            <Time>2022-07-14T09:51:16.000Z</Time>
            <Position>
              <LatitudeDegrees>43.38670299388468265533447265625</LatitudeDegrees>
              <LongitudeDegrees>-4.03228576295077800750732421875</LongitudeDegrees>
            </Position>
            <AltitudeMeters>29.3999996185302734375</AltitudeMeters>
            <DistanceMeters>NAN</DistanceMeters>
          </Trackpoint>
          <Trackpoint>
            <Time>2022-07-14T09:51:27.000Z</Time>
            <Position>
              <LatitudeDegrees>43.38638079352676868438720703125</LatitudeDegrees>
              <LongitudeDegrees>-4.03261047787964344024658203125</LongitudeDegrees>
            </Position>
            <AltitudeMeters>29.6000003814697265625</AltitudeMeters>
            <DistanceMeters>NAN</DistanceMeters>
          </Trackpoint>
          <Trackpoint>
            <Time>2022-07-14T09:51:30.000Z</Time>
            <Position>
              <LatitudeDegrees>43.386269398033618927001953125</LatitudeDegrees>
              <LongitudeDegrees>-4.032685495913028717041015625</LongitudeDegrees>
            </Position>
            <AltitudeMeters>29.6000003814697265625</AltitudeMeters>
            <DistanceMeters>NAN</DistanceMeters>
          </Trackpoint>
          <Trackpoint>
            <Time>2022-07-14T09:51:34.000Z</Time>
            <Position>
              <LatitudeDegrees>43.3861324377357959747314453125</LatitudeDegrees>
              <LongitudeDegrees>-4.032748527824878692626953125</LongitudeDegrees>
            </Position>
            <AltitudeMeters>29.6000003814697265625</AltitudeMeters>
            <DistanceMeters>NAN</DistanceMeters>
          </Trackpoint>
          <Trackpoint>
            <Time>2022-07-14T09:51:43.000Z</Time>
            <Position>
              <LatitudeDegrees>43.3857810683548450469970703125</LatitudeDegrees>
              <LongitudeDegrees>-4.032796137034893035888671875</LongitudeDegrees>
            </Position>
            <AltitudeMeters>29.3999996185302734375</AltitudeMeters>
            <DistanceMeters>NAN</DistanceMeters>
          </Trackpoint>
          <Trackpoint>
            <Time>2022-07-14T09:51:48.000Z</Time>
            <Position>
              <LatitudeDegrees>43.385586440563201904296875</LatitudeDegrees>
              <LongitudeDegrees>-4.0328053571283817291259765625</LongitudeDegrees>
            </Position>
            <AltitudeMeters>29.799999237060546875</AltitudeMeters>
            <DistanceMeters>NAN</DistanceMeters>
          </Trackpoint>
          <Trackpoint>
            <Time>2022-07-14T09:51:55.000Z</Time>
            <Position>
              <LatitudeDegrees>43.38530757464468479156494140625</LatitudeDegrees>
              <LongitudeDegrees>-4.03282262384891510009765625</LongitudeDegrees>
            </Position>
            <AltitudeMeters>29.799999237060546875</AltitudeMeters>
            <DistanceMeters>NAN</DistanceMeters>
          </Trackpoint>
          <Trackpoint>
            <Time>2022-07-14T09:51:58.000Z</Time>
            <Position>
              <LatitudeDegrees>43.3851631544530391693115234375</LatitudeDegrees>
              <LongitudeDegrees>-4.03284735046327114105224609375</LongitudeDegrees>
            </Position>
            <AltitudeMeters>29.6000003814697265625</AltitudeMeters>
            <DistanceMeters>NAN</DistanceMeters>
          </Trackpoint>
          <Trackpoint>
            <Time>2022-07-14T09:52:01.000Z</Time>
            <Position>
              <LatitudeDegrees>43.38500901125371456146240234375</LatitudeDegrees>
              <LongitudeDegrees>-4.03285749256610870361328125</LongitudeDegrees>
            </Position>
            <AltitudeMeters>29</AltitudeMeters>
            <DistanceMeters>NAN</DistanceMeters>
          </Trackpoint>
          <Trackpoint>
            <Time>2022-07-14T09:52:02.000Z</Time>
            <Position>
              <LatitudeDegrees>43.38495385833084583282470703125</LatitudeDegrees>
              <LongitudeDegrees>-4.03286679647862911224365234375</LongitudeDegrees>
            </Position>
            <AltitudeMeters>29</AltitudeMeters>
            <DistanceMeters>NAN</DistanceMeters>
          </Trackpoint>
          <Trackpoint>
            <Time>2022-07-14T09:52:07.000Z</Time>
            <Position>
              <LatitudeDegrees>43.38466451503336429595947265625</LatitudeDegrees>
              <LongitudeDegrees>-4.032889343798160552978515625</LongitudeDegrees>
            </Position>
            <AltitudeMeters>28.200000762939453125</AltitudeMeters>
            <DistanceMeters>NAN</DistanceMeters>
          </Trackpoint>
          <Trackpoint>
            <Time>2022-07-14T09:52:08.000Z</Time>
            <Position>
              <LatitudeDegrees>43.3845988847315311431884765625</LatitudeDegrees>
              <LongitudeDegrees>-4.0328978933393955230712890625</LongitudeDegrees>
            </Position>
            <AltitudeMeters>28</AltitudeMeters>
            <DistanceMeters>NAN</DistanceMeters>
          </Trackpoint>
          <Trackpoint>
            <Time>2022-07-14T09:52:13.000Z</Time>
            <Position>
              <LatitudeDegrees>43.3842719905078411102294921875</LatitudeDegrees>
              <LongitudeDegrees>-4.03298716060817241668701171875</LongitudeDegrees>
            </Position>
            <AltitudeMeters>27.200000762939453125</AltitudeMeters>
            <DistanceMeters>NAN</DistanceMeters>
          </Trackpoint>
          <Trackpoint>
            <Time>2022-07-14T09:52:16.000Z</Time>
            <Position>
              <LatitudeDegrees>43.3840803802013397216796875</LatitudeDegrees>
              <LongitudeDegrees>-4.03314792551100254058837890625</LongitudeDegrees>
            </Position>
            <AltitudeMeters>26.200000762939453125</AltitudeMeters>
            <DistanceMeters>NAN</DistanceMeters>
          </Trackpoint>
          <Trackpoint>
            <Time>2022-07-14T09:52:17.000Z</Time>
            <Position>
              <LatitudeDegrees>43.38401827029883861541748046875</LatitudeDegrees>
              <LongitudeDegrees>-4.033211208879947662353515625</LongitudeDegrees>
            </Position>
            <AltitudeMeters>26</AltitudeMeters>
            <DistanceMeters>NAN</DistanceMeters>
          </Trackpoint>
          <Trackpoint>
            <Time>2022-07-14T09:52:22.000Z</Time>
            <Position>
              <LatitudeDegrees>43.3837412483990192413330078125</LatitudeDegrees>
              <LongitudeDegrees>-4.0335161425173282623291015625</LongitudeDegrees>
            </Position>
            <AltitudeMeters>25.200000762939453125</AltitudeMeters>
            <DistanceMeters>NAN</DistanceMeters>
          </Trackpoint>
          <Trackpoint>
            <Time>2022-07-14T09:52:24.000Z</Time>
            <Position>
              <LatitudeDegrees>43.38362901471555233001708984375</LatitudeDegrees>
              <LongitudeDegrees>-4.03363726101815700531005859375</LongitudeDegrees>
            </Position>
            <AltitudeMeters>25</AltitudeMeters>
            <DistanceMeters>NAN</DistanceMeters>
          </Trackpoint>
          <Trackpoint>
            <Time>2022-07-14T09:52:26.000Z</Time>
            <Position>
              <LatitudeDegrees>43.3835203014314174652099609375</LatitudeDegrees>
              <LongitudeDegrees>-4.0337565355002880096435546875</LongitudeDegrees>
            </Position>
            <AltitudeMeters>24.6000003814697265625</AltitudeMeters>
            <DistanceMeters>NAN</DistanceMeters>
          </Trackpoint>
          <Trackpoint>
            <Time>2022-07-14T09:52:30.000Z</Time>
            <Position>
              <LatitudeDegrees>43.38331167586147785186767578125</LatitudeDegrees>
              <LongitudeDegrees>-4.0339965932071208953857421875</LongitudeDegrees>
            </Position>
            <AltitudeMeters>24.6000003814697265625</AltitudeMeters>
            <DistanceMeters>NAN</DistanceMeters>
          </Trackpoint>
          <Trackpoint>
            <Time>2022-07-14T09:52:33.000Z</Time>
            <Position>
              <LatitudeDegrees>43.3831578679382801055908203125</LatitudeDegrees>
              <LongitudeDegrees>-4.03417579829692840576171875</LongitudeDegrees>
            </Position>
            <AltitudeMeters>24.200000762939453125</AltitudeMeters>
            <DistanceMeters>NAN</DistanceMeters>
          </Trackpoint>
          <Trackpoint>
            <Time>2022-07-14T09:52:36.000Z</Time>
            <Position>
              <LatitudeDegrees>43.38300204835832118988037109375</LatitudeDegrees>
              <LongitudeDegrees>-4.034354500472545623779296875</LongitudeDegrees>
            </Position>
            <AltitudeMeters>24</AltitudeMeters>
            <DistanceMeters>NAN</DistanceMeters>
          </Trackpoint>
          <Trackpoint>
            <Time>2022-07-14T09:52:37.000Z</Time>
            <Position>
              <LatitudeDegrees>43.38295175693929195404052734375</LatitudeDegrees>
              <LongitudeDegrees>-4.03441174887120723724365234375</LongitudeDegrees>
            </Position>
            <AltitudeMeters>24</AltitudeMeters>
            <DistanceMeters>NAN</DistanceMeters>
          </Trackpoint>
          <Trackpoint>
            <Time>2022-07-14T09:52:44.000Z</Time>
            <Position>
              <LatitudeDegrees>43.3826153911650180816650390625</LatitudeDegrees>
              <LongitudeDegrees>-4.03477728366851806640625</LongitudeDegrees>
            </Position>
            <AltitudeMeters>23.200000762939453125</AltitudeMeters>
            <DistanceMeters>NAN</DistanceMeters>
          </Trackpoint>
          <Trackpoint>
            <Time>2022-07-14T09:52:48.000Z</Time>
            <Position>
              <LatitudeDegrees>43.38243643753230571746826171875</LatitudeDegrees>
              <LongitudeDegrees>-4.03497903607785701751708984375</LongitudeDegrees>
            </Position>
            <AltitudeMeters>22.799999237060546875</AltitudeMeters>
            <DistanceMeters>NAN</DistanceMeters>
          </Trackpoint>
          <Trackpoint>
            <Time>2022-07-14T09:52:52.000Z</Time>
            <Position>
              <LatitudeDegrees>43.38225790299475193023681640625</LatitudeDegrees>
              <LongitudeDegrees>-4.03518154285848140716552734375</LongitudeDegrees>
            </Position>
            <AltitudeMeters>22.6000003814697265625</AltitudeMeters>
            <DistanceMeters>NAN</DistanceMeters>
          </Trackpoint>
          <Trackpoint>
            <Time>2022-07-14T09:52:56.000Z</Time>
            <Position>
              <LatitudeDegrees>43.38208280503749847412109375</LatitudeDegrees>
              <LongitudeDegrees>-4.03539410792291164398193359375</LongitudeDegrees>
            </Position>
            <AltitudeMeters>22.3999996185302734375</AltitudeMeters>
            <DistanceMeters>NAN</DistanceMeters>
          </Trackpoint>
          <Trackpoint>
            <Time>2022-07-14T09:53:04.000Z</Time>
            <Position>
              <LatitudeDegrees>43.3817202039062976837158203125</LatitudeDegrees>
              <LongitudeDegrees>-4.03588528744876384735107421875</LongitudeDegrees>
            </Position>
            <AltitudeMeters>21.6000003814697265625</AltitudeMeters>
            <DistanceMeters>NAN</DistanceMeters>
          </Trackpoint>
          <Trackpoint>
            <Time>2022-07-14T09:53:08.000Z</Time>
            <Position>
              <LatitudeDegrees>43.38154577650129795074462890625</LatitudeDegrees>
              <LongitudeDegrees>-4.0361651591956615447998046875</LongitudeDegrees>
            </Position>
            <AltitudeMeters>20.6000003814697265625</AltitudeMeters>
            <DistanceMeters>NAN</DistanceMeters>
          </Trackpoint>
          <Trackpoint>
            <Time>2022-07-14T09:53:11.000Z</Time>
            <Position>
              <LatitudeDegrees>43.38141635991632938385009765625</LatitudeDegrees>
              <LongitudeDegrees>-4.0363877825438976287841796875</LongitudeDegrees>
            </Position>
            <AltitudeMeters>19.6000003814697265625</AltitudeMeters>
            <DistanceMeters>NAN</DistanceMeters>
          </Trackpoint>
          <Trackpoint>
            <Time>2022-07-14T09:53:13.000Z</Time>
            <Position>
              <LatitudeDegrees>43.3813332952558994293212890625</LatitudeDegrees>
              <LongitudeDegrees>-4.03653237037360668182373046875</LongitudeDegrees>
            </Position>
            <AltitudeMeters>19.3999996185302734375</AltitudeMeters>
            <DistanceMeters>NAN</DistanceMeters>
          </Trackpoint>
          <Trackpoint>
            <Time>2022-07-14T09:53:16.000Z</Time>
            <Position>
              <LatitudeDegrees>43.381202705204486846923828125</LatitudeDegrees>
              <LongitudeDegrees>-4.036743678152561187744140625</LongitudeDegrees>
            </Position>
            <AltitudeMeters>18.799999237060546875</AltitudeMeters>
            <DistanceMeters>NAN</DistanceMeters>
          </Trackpoint>
          <Trackpoint>
            <Time>2022-07-14T09:53:18.000Z</Time>
            <Position>
              <LatitudeDegrees>43.3811177127063274383544921875</LatitudeDegrees>
              <LongitudeDegrees>-4.03688524849712848663330078125</LongitudeDegrees>
            </Position>
            <AltitudeMeters>18.3999996185302734375</AltitudeMeters>
            <DistanceMeters>NAN</DistanceMeters>
          </Trackpoint>
          <Trackpoint>
            <Time>2022-07-14T09:53:23.000Z</Time>
            <Position>
              <LatitudeDegrees>43.38091009296476840972900390625</LatitudeDegrees>
              <LongitudeDegrees>-4.037223793566226959228515625</LongitudeDegrees>
            </Position>
            <AltitudeMeters>18</AltitudeMeters>
            <DistanceMeters>NAN</DistanceMeters>
          </Trackpoint>
          <Trackpoint>
            <Time>2022-07-14T09:53:24.000Z</Time>
            <Position>
              <LatitudeDegrees>43.38087907992303371429443359375</LatitudeDegrees>
              <LongitudeDegrees>-4.0372918546199798583984375</LongitudeDegrees>
            </Position>
            <AltitudeMeters>18</AltitudeMeters>
            <DistanceMeters>NAN</DistanceMeters>
          </Trackpoint>
          <Trackpoint>
            <Time>2022-07-14T09:53:28.000Z</Time>
            <Position>
              <LatitudeDegrees>43.38080045767128467559814453125</LatitudeDegrees>
              <LongitudeDegrees>-4.03756074607372283935546875</LongitudeDegrees>
            </Position>
            <AltitudeMeters>17.6000003814697265625</AltitudeMeters>
            <DistanceMeters>NAN</DistanceMeters>
          </Trackpoint>
          <Trackpoint>
            <Time>2022-07-14T09:53:29.000Z</Time>
            <Position>
              <LatitudeDegrees>43.3807764016091823577880859375</LatitudeDegrees>
              <LongitudeDegrees>-4.03763894923031330108642578125</LongitudeDegrees>
            </Position>
            <AltitudeMeters>17.6000003814697265625</AltitudeMeters>
            <DistanceMeters>NAN</DistanceMeters>
          </Trackpoint>
          <Trackpoint>
            <Time>2022-07-14T09:53:30.000Z</Time>
            <Position>
              <LatitudeDegrees>43.3807495795190334320068359375</LatitudeDegrees>
              <LongitudeDegrees>-4.03770315460860729217529296875</LongitudeDegrees>
            </Position>
            <AltitudeMeters>17.3999996185302734375</AltitudeMeters>
            <DistanceMeters>NAN</DistanceMeters>
          </Trackpoint>
          <Trackpoint>
            <Time>2022-07-14T09:53:32.000Z</Time>
            <Position>
              <LatitudeDegrees>43.38068763725459575653076171875</LatitudeDegrees>
              <LongitudeDegrees>-4.03778999112546443939208984375</LongitudeDegrees>
            </Position>
            <AltitudeMeters>17.6000003814697265625</AltitudeMeters>
            <DistanceMeters>NAN</DistanceMeters>
          </Trackpoint>
          <Trackpoint>
            <Time>2022-07-14T09:53:33.000Z</Time>
            <Position>
              <LatitudeDegrees>43.38064606301486492156982421875</LatitudeDegrees>
              <LongitudeDegrees>-4.03782217763364315032958984375</LongitudeDegrees>
            </Position>
            <AltitudeMeters>17.3999996185302734375</AltitudeMeters>
            <DistanceMeters>NAN</DistanceMeters>
          </Trackpoint>
          <Trackpoint>
            <Time>2022-07-14T09:53:34.000Z</Time>
            <Position>
              <LatitudeDegrees>43.3806003816425800323486328125</LatitudeDegrees>
              <LongitudeDegrees>-4.03783835470676422119140625</LongitudeDegrees>
            </Position>
            <AltitudeMeters>17.3999996185302734375</AltitudeMeters>
            <DistanceMeters>NAN</DistanceMeters>
          </Trackpoint>
          <Trackpoint>
            <Time>2022-07-14T09:53:35.000Z</Time>
            <Position>
              <LatitudeDegrees>43.3805547840893268585205078125</LatitudeDegrees>
              <LongitudeDegrees>-4.03785319067537784576416015625</LongitudeDegrees>
            </Position>
            <AltitudeMeters>17.3999996185302734375</AltitudeMeters>
            <DistanceMeters>NAN</DistanceMeters>
          </Trackpoint>
          <Trackpoint>
            <Time>2022-07-14T09:53:37.000Z</Time>
            <Position>
              <LatitudeDegrees>43.38045478798449039459228515625</LatitudeDegrees>
              <LongitudeDegrees>-4.03787858784198760986328125</LongitudeDegrees>
            </Position>
            <AltitudeMeters>17.6000003814697265625</AltitudeMeters>
            <DistanceMeters>NAN</DistanceMeters>
          </Trackpoint>
          <Trackpoint>
            <Time>2022-07-14T09:53:43.000Z</Time>
            <Position>
              <LatitudeDegrees>43.3801675401628017425537109375</LatitudeDegrees>
              <LongitudeDegrees>-4.0380671806633472442626953125</LongitudeDegrees>
            </Position>
            <AltitudeMeters>17.3999996185302734375</AltitudeMeters>
            <DistanceMeters>NAN</DistanceMeters>
          </Trackpoint>
          <Trackpoint>
            <Time>2022-07-14T09:53:50.000Z</Time>
            <Position>
              <LatitudeDegrees>43.3798148296773433685302734375</LatitudeDegrees>
              <LongitudeDegrees>-4.038249738514423370361328125</LongitudeDegrees>
            </Position>
            <AltitudeMeters>17.200000762939453125</AltitudeMeters>
            <DistanceMeters>NAN</DistanceMeters>
          </Trackpoint>
          <Trackpoint>
            <Time>2022-07-14T09:53:55.000Z</Time>
            <Position>
              <LatitudeDegrees>43.3795687370002269744873046875</LatitudeDegrees>
              <LongitudeDegrees>-4.03835861943662166595458984375</LongitudeDegrees>
            </Position>
            <AltitudeMeters>17.200000762939453125</AltitudeMeters>
            <DistanceMeters>NAN</DistanceMeters>
          </Trackpoint>
          <Trackpoint>
            <Time>2022-07-14T09:53:58.000Z</Time>
            <Position>
              <LatitudeDegrees>43.3794078044593334197998046875</LatitudeDegrees>
              <LongitudeDegrees>-4.0384296141564846038818359375</LongitudeDegrees>
            </Position>
            <AltitudeMeters>17.200000762939453125</AltitudeMeters>
            <DistanceMeters>NAN</DistanceMeters>
          </Trackpoint>
          <Trackpoint>
            <Time>2022-07-14T09:53:59.000Z</Time>
            <Position>
              <LatitudeDegrees>43.379370085895061492919921875</LatitudeDegrees>
              <LongitudeDegrees>-4.03844461776316165924072265625</LongitudeDegrees>
            </Position>
            <AltitudeMeters>17.200000762939453125</AltitudeMeters>
            <DistanceMeters>NAN</DistanceMeters>
          </Trackpoint>
          <Trackpoint>
            <Time>2022-07-14T09:54:00.000Z</Time>
            <Position>
              <LatitudeDegrees>43.3793196268379688262939453125</LatitudeDegrees>
              <LongitudeDegrees>-4.03847412206232547760009765625</LongitudeDegrees>
            </Position>
            <AltitudeMeters>17.200000762939453125</AltitudeMeters>
            <DistanceMeters>NAN</DistanceMeters>
          </Trackpoint>
          <Trackpoint>
            <Time>2022-07-14T09:54:01.000Z</Time>
            <Position>
              <LatitudeDegrees>43.37927126325666904449462890625</LatitudeDegrees>
              <LongitudeDegrees>-4.038494490087032318115234375</LongitudeDegrees>
            </Position>
            <AltitudeMeters>17.200000762939453125</AltitudeMeters>
            <DistanceMeters>NAN</DistanceMeters>
          </Trackpoint>
          <Trackpoint>
            <Time>2022-07-14T09:54:04.000Z</Time>
            <Position>
              <LatitudeDegrees>43.379119299352169036865234375</LatitudeDegrees>
              <LongitudeDegrees>-4.0385664068162441253662109375</LongitudeDegrees>
            </Position>
            <AltitudeMeters>17.200000762939453125</AltitudeMeters>
            <DistanceMeters>NAN</DistanceMeters>
          </Trackpoint>
          <Trackpoint>
            <Time>2022-07-14T09:54:07.000Z</Time>
            <Position>
              <LatitudeDegrees>43.37897974066436290740966796875</LatitudeDegrees>
              <LongitudeDegrees>-4.03863086365163326263427734375</LongitudeDegrees>
            </Position>
            <AltitudeMeters>17.200000762939453125</AltitudeMeters>
            <DistanceMeters>NAN</DistanceMeters>
          </Trackpoint>
          <Trackpoint>
            <Time>2022-07-14T09:54:09.000Z</Time>
            <Position>
              <LatitudeDegrees>43.3789038844406604766845703125</LatitudeDegrees>
              <LongitudeDegrees>-4.038655757904052734375</LongitudeDegrees>
            </Position>
            <AltitudeMeters>17.200000762939453125</AltitudeMeters>
            <DistanceMeters>NAN</DistanceMeters>
          </Trackpoint>
          <Trackpoint>
            <Time>2022-07-14T09:54:13.000Z</Time>
            <Position>
              <LatitudeDegrees>43.37877874262630939483642578125</LatitudeDegrees>
              <LongitudeDegrees>-4.03870445676147937774658203125</LongitudeDegrees>
            </Position>
            <AltitudeMeters>17</AltitudeMeters>
            <DistanceMeters>NAN</DistanceMeters>
          </Trackpoint>
          <Trackpoint>
            <Time>2022-07-14T09:54:16.000Z</Time>
            <Position>
              <LatitudeDegrees>43.37869760580360889434814453125</LatitudeDegrees>
              <LongitudeDegrees>-4.0387259982526302337646484375</LongitudeDegrees>
            </Position>
            <AltitudeMeters>16.799999237060546875</AltitudeMeters>
            <DistanceMeters>NAN</DistanceMeters>
          </Trackpoint>
          <Trackpoint>
            <Time>2022-07-14T09:54:18.000Z</Time>
            <Position>
              <LatitudeDegrees>43.3786569535732269287109375</LatitudeDegrees>
              <LongitudeDegrees>-4.03872893191874027252197265625</LongitudeDegrees>
            </Position>
            <AltitudeMeters>16.799999237060546875</AltitudeMeters>
            <DistanceMeters>NAN</DistanceMeters>
          </Trackpoint>
          <Trackpoint>
            <Time>2022-07-14T09:54:20.000Z</Time>
            <Position>
              <LatitudeDegrees>43.37862317450344562530517578125</LatitudeDegrees>
              <LongitudeDegrees>-4.03873563744127750396728515625</LongitudeDegrees>
            </Position>
            <AltitudeMeters>16.6000003814697265625</AltitudeMeters>
            <DistanceMeters>NAN</DistanceMeters>
          </Trackpoint>
          <Trackpoint>
            <Time>2022-07-14T09:54:24.000Z</Time>
            <Position>
              <LatitudeDegrees>43.37854706682264804840087890625</LatitudeDegrees>
              <LongitudeDegrees>-4.0387685783207416534423828125</LongitudeDegrees>
            </Position>
            <AltitudeMeters>16.799999237060546875</AltitudeMeters>
            <DistanceMeters>NAN</DistanceMeters>
          </Trackpoint>
          <Trackpoint>
            <Time>2022-07-14T09:54:26.000Z</Time>
            <Position>
              <LatitudeDegrees>43.3784777484834194183349609375</LatitudeDegrees>
              <LongitudeDegrees>-4.03880554251372814178466796875</LongitudeDegrees>
            </Position>
            <AltitudeMeters>17</AltitudeMeters>
            <DistanceMeters>NAN</DistanceMeters>
          </Trackpoint>
          <Trackpoint>
            <Time>2022-07-14T09:54:31.000Z</Time>
            <Position>
              <LatitudeDegrees>43.37826275266706943511962890625</LatitudeDegrees>
              <LongitudeDegrees>-4.038921296596527099609375</LongitudeDegrees>
            </Position>
            <AltitudeMeters>17.200000762939453125</AltitudeMeters>
            <DistanceMeters>NAN</DistanceMeters>
          </Trackpoint>
          <Trackpoint>
            <Time>2022-07-14T09:54:39.000Z</Time>
            <Position>
              <LatitudeDegrees>43.37789562530815601348876953125</LatitudeDegrees>
              <LongitudeDegrees>-4.03908147476613521575927734375</LongitudeDegrees>
            </Position>
            <AltitudeMeters>17.3999996185302734375</AltitudeMeters>
            <DistanceMeters>NAN</DistanceMeters>
          </Trackpoint>
          <Trackpoint>
            <Time>2022-07-14T09:54:48.000Z</Time>
            <Position>
              <LatitudeDegrees>43.37744928896427154541015625</LatitudeDegrees>
              <LongitudeDegrees>-4.0392766892910003662109375</LongitudeDegrees>
            </Position>
            <AltitudeMeters>17.799999237060546875</AltitudeMeters>
            <DistanceMeters>NAN</DistanceMeters>
          </Trackpoint>
          <Trackpoint>
            <Time>2022-07-14T09:54:57.000Z</Time>
            <Position>
              <LatitudeDegrees>43.37702122516930103302001953125</LatitudeDegrees>
              <LongitudeDegrees>-4.0394455008208751678466796875</LongitudeDegrees>
            </Position>
            <AltitudeMeters>18</AltitudeMeters>
            <DistanceMeters>NAN</DistanceMeters>
          </Trackpoint>
          <Trackpoint>
            <Time>2022-07-14T09:55:05.000Z</Time>
            <Position>
              <LatitudeDegrees>43.37667639367282390594482421875</LatitudeDegrees>
              <LongitudeDegrees>-4.03959394432604312896728515625</LongitudeDegrees>
            </Position>
            <AltitudeMeters>18.200000762939453125</AltitudeMeters>
            <DistanceMeters>NAN</DistanceMeters>
          </Trackpoint>
          <Trackpoint>
            <Time>2022-07-14T09:55:12.000Z</Time>
            <Position>
              <LatitudeDegrees>43.3764154650270938873291015625</LatitudeDegrees>
              <LongitudeDegrees>-4.0397393703460693359375</LongitudeDegrees>
            </Position>
            <AltitudeMeters>18.200000762939453125</AltitudeMeters>
            <DistanceMeters>NAN</DistanceMeters>
          </Trackpoint>
          <Trackpoint>
            <Time>2022-07-14T09:55:13.000Z</Time>
            <Position>
              <LatitudeDegrees>43.3763779141008853912353515625</LatitudeDegrees>
              <LongitudeDegrees>-4.039756469428539276123046875</LongitudeDegrees>
            </Position>
            <AltitudeMeters>18.200000762939453125</AltitudeMeters>
            <DistanceMeters>NAN</DistanceMeters>
          </Trackpoint>
          <Trackpoint>
            <Time>2022-07-14T09:55:14.000Z</Time>
            <Position>
              <LatitudeDegrees>43.3763353340327739715576171875</LatitudeDegrees>
              <LongitudeDegrees>-4.03976879082620143890380859375</LongitudeDegrees>
            </Position>
            <AltitudeMeters>18.200000762939453125</AltitudeMeters>
            <DistanceMeters>NAN</DistanceMeters>
          </Trackpoint>
          <Trackpoint>
            <Time>2022-07-14T09:55:18.000Z</Time>
            <Position>
              <LatitudeDegrees>43.37615151889622211456298828125</LatitudeDegrees>
              <LongitudeDegrees>-4.03983584605157375335693359375</LongitudeDegrees>
            </Position>
            <AltitudeMeters>18.3999996185302734375</AltitudeMeters>
            <DistanceMeters>NAN</DistanceMeters>
          </Trackpoint>
          <Trackpoint>
            <Time>2022-07-14T09:55:21.000Z</Time>
            <Position>
              <LatitudeDegrees>43.37600198574364185333251953125</LatitudeDegrees>
              <LongitudeDegrees>-4.03987708501517772674560546875</LongitudeDegrees>
            </Position>
            <AltitudeMeters>18.6000003814697265625</AltitudeMeters>
            <DistanceMeters>NAN</DistanceMeters>
          </Trackpoint>
          <Trackpoint>
            <Time>2022-07-14T09:55:24.000Z</Time>
            <Position>
              <LatitudeDegrees>43.375876843929290771484375</LatitudeDegrees>
              <LongitudeDegrees>-4.03991413302719593048095703125</LongitudeDegrees>
            </Position>
            <AltitudeMeters>18.6000003814697265625</AltitudeMeters>
            <DistanceMeters>NAN</DistanceMeters>
          </Trackpoint>
          <Trackpoint>
            <Time>2022-07-14T09:55:33.000Z</Time>
            <Position>
              <LatitudeDegrees>43.37545464746654033660888671875</LatitudeDegrees>
              <LongitudeDegrees>-4.0400892309844493865966796875</LongitudeDegrees>
            </Position>
            <AltitudeMeters>19</AltitudeMeters>
            <DistanceMeters>NAN</DistanceMeters>
          </Trackpoint>
          <Trackpoint>
            <Time>2022-07-14T09:55:41.000Z</Time>
            <Position>
              <LatitudeDegrees>43.37510948069393634796142578125</LatitudeDegrees>
              <LongitudeDegrees>-4.0402444638311862945556640625</LongitudeDegrees>
            </Position>
            <AltitudeMeters>19.200000762939453125</AltitudeMeters>
            <DistanceMeters>NAN</DistanceMeters>
          </Trackpoint>
          <Trackpoint>
            <Time>2022-07-14T09:55:47.000Z</Time>
            <Position>
              <LatitudeDegrees>43.37485081516206264495849609375</LatitudeDegrees>
              <LongitudeDegrees>-4.04035652987658977508544921875</LongitudeDegrees>
            </Position>
            <AltitudeMeters>19.3999996185302734375</AltitudeMeters>
            <DistanceMeters>NAN</DistanceMeters>
          </Trackpoint>
          <Trackpoint>
            <Time>2022-07-14T09:55:49.000Z</Time>
            <Position>
              <LatitudeDegrees>43.3747645653784275054931640625</LatitudeDegrees>
              <LongitudeDegrees>-4.040393494069576263427734375</LongitudeDegrees>
            </Position>
            <AltitudeMeters>19.6000003814697265625</AltitudeMeters>
            <DistanceMeters>NAN</DistanceMeters>
          </Trackpoint>
          <Trackpoint>
            <Time>2022-07-14T09:55:51.000Z</Time>
            <Position>
              <LatitudeDegrees>43.37467898614704608917236328125</LatitudeDegrees>
              <LongitudeDegrees>-4.0404434502124786376953125</LongitudeDegrees>
            </Position>
            <AltitudeMeters>19.6000003814697265625</AltitudeMeters>
            <DistanceMeters>NAN</DistanceMeters>
          </Trackpoint>
          <Trackpoint>
            <Time>2022-07-14T09:55:54.000Z</Time>
            <Position>
              <LatitudeDegrees>43.37456046603620052337646484375</LatitudeDegrees>
              <LongitudeDegrees>-4.04050505720078945159912109375</LongitudeDegrees>
            </Position>
            <AltitudeMeters>19.6000003814697265625</AltitudeMeters>
            <DistanceMeters>NAN</DistanceMeters>
          </Trackpoint>
          <Trackpoint>
            <Time>2022-07-14T09:55:58.000Z</Time>
            <Position>
              <LatitudeDegrees>43.37440405972301959991455078125</LatitudeDegrees>
              <LongitudeDegrees>-4.04055132530629634857177734375</LongitudeDegrees>
            </Position>
            <AltitudeMeters>19.799999237060546875</AltitudeMeters>
            <DistanceMeters>NAN</DistanceMeters>
          </Trackpoint>
          <Trackpoint>
            <Time>2022-07-14T09:56:01.000Z</Time>
            <Position>
              <LatitudeDegrees>43.3742988668382167816162109375</LatitudeDegrees>
              <LongitudeDegrees>-4.0405767224729061126708984375</LongitudeDegrees>
            </Position>
            <AltitudeMeters>19.799999237060546875</AltitudeMeters>
            <DistanceMeters>NAN</DistanceMeters>
          </Trackpoint>
          <Trackpoint>
            <Time>2022-07-14T09:56:04.000Z</Time>
            <Position>
              <LatitudeDegrees>43.3741842024028301239013671875</LatitudeDegrees>
              <LongitudeDegrees>-4.04064017347991466522216796875</LongitudeDegrees>
            </Position>
            <AltitudeMeters>19.799999237060546875</AltitudeMeters>
            <DistanceMeters>NAN</DistanceMeters>
          </Trackpoint>
          <Trackpoint>
            <Time>2022-07-14T09:56:07.000Z</Time>
            <Position>
              <LatitudeDegrees>43.37407431565225124359130859375</LatitudeDegrees>
              <LongitudeDegrees>-4.04069532640278339385986328125</LongitudeDegrees>
            </Position>
            <AltitudeMeters>19.799999237060546875</AltitudeMeters>
            <DistanceMeters>NAN</DistanceMeters>
          </Trackpoint>
          <Trackpoint>
            <Time>2022-07-14T09:56:11.000Z</Time>
            <Position>
              <LatitudeDegrees>43.37392142973840236663818359375</LatitudeDegrees>
              <LongitudeDegrees>-4.04075316153466701507568359375</LongitudeDegrees>
            </Position>
            <AltitudeMeters>19.799999237060546875</AltitudeMeters>
            <DistanceMeters>NAN</DistanceMeters>
          </Trackpoint>
          <Trackpoint>
            <Time>2022-07-14T09:56:18.000Z</Time>
            <Position>
              <LatitudeDegrees>43.37363342754542827606201171875</LatitudeDegrees>
              <LongitudeDegrees>-4.04086162336170673370361328125</LongitudeDegrees>
            </Position>
            <AltitudeMeters>20</AltitudeMeters>
            <DistanceMeters>NAN</DistanceMeters>
          </Trackpoint>
          <Trackpoint>
            <Time>2022-07-14T09:56:21.000Z</Time>
            <Position>
              <LatitudeDegrees>43.37351708672940731048583984375</LatitudeDegrees>
              <LongitudeDegrees>-4.0409083105623722076416015625</LongitudeDegrees>
            </Position>
            <AltitudeMeters>20</AltitudeMeters>
            <DistanceMeters>NAN</DistanceMeters>
          </Trackpoint>
          <Trackpoint>
            <Time>2022-07-14T09:56:23.000Z</Time>
            <Position>
              <LatitudeDegrees>43.37344206869602203369140625</LatitudeDegrees>
              <LongitudeDegrees>-4.04094711877405643463134765625</LongitudeDegrees>
            </Position>
            <AltitudeMeters>20</AltitudeMeters>
            <DistanceMeters>NAN</DistanceMeters>
          </Trackpoint>
          <Trackpoint>
            <Time>2022-07-14T09:56:25.000Z</Time>
            <Position>
              <LatitudeDegrees>43.3733688108623027801513671875</LatitudeDegrees>
              <LongitudeDegrees>-4.0410196222364902496337890625</LongitudeDegrees>
            </Position>
            <AltitudeMeters>20</AltitudeMeters>
            <DistanceMeters>NAN</DistanceMeters>
          </Trackpoint>
          <Trackpoint>
            <Time>2022-07-14T09:56:27.000Z</Time>
            <Position>
              <LatitudeDegrees>43.37332480587065219879150390625</LatitudeDegrees>
              <LongitudeDegrees>-4.04109849594533443450927734375</LongitudeDegrees>
            </Position>
            <AltitudeMeters>20</AltitudeMeters>
            <DistanceMeters>NAN</DistanceMeters>
          </Trackpoint>
          <Trackpoint>
            <Time>2022-07-14T09:56:29.000Z</Time>
            <Position>
              <LatitudeDegrees>43.37330318056046962738037109375</LatitudeDegrees>
              <LongitudeDegrees>-4.0411698259413242340087890625</LongitudeDegrees>
            </Position>
            <AltitudeMeters>20.200000762939453125</AltitudeMeters>
            <DistanceMeters>NAN</DistanceMeters>
          </Trackpoint>
          <Trackpoint>
            <Time>2022-07-14T09:56:31.000Z</Time>
            <Position>
              <LatitudeDegrees>43.3732876740396022796630859375</LatitudeDegrees>
              <LongitudeDegrees>-4.04124752618372440338134765625</LongitudeDegrees>
            </Position>
            <AltitudeMeters>20.3999996185302734375</AltitudeMeters>
            <DistanceMeters>NAN</DistanceMeters>
          </Trackpoint>
          <Trackpoint>
            <Time>2022-07-14T09:56:34.000Z</Time>
            <Position>
              <LatitudeDegrees>43.37327887304127216339111328125</LatitudeDegrees>
              <LongitudeDegrees>-4.041311480104923248291015625</LongitudeDegrees>
            </Position>
            <AltitudeMeters>20.6000003814697265625</AltitudeMeters>
            <DistanceMeters>NAN</DistanceMeters>
          </Trackpoint>
          <Trackpoint>
            <Time>2022-07-14T09:56:35.000Z</Time>
            <Position>
              <LatitudeDegrees>43.37327552028000354766845703125</LatitudeDegrees>
              <LongitudeDegrees>-4.0413257293403148651123046875</LongitudeDegrees>
            </Position>
            <AltitudeMeters>20.799999237060546875</AltitudeMeters>
            <DistanceMeters>NAN</DistanceMeters>
          </Trackpoint>
          <Trackpoint>
            <Time>2022-07-14T09:56:39.000Z</Time>
            <Position>
              <LatitudeDegrees>43.373248279094696044921875</LatitudeDegrees>
              <LongitudeDegrees>-4.0414048545062541961669921875</LongitudeDegrees>
            </Position>
            <AltitudeMeters>21</AltitudeMeters>
            <DistanceMeters>NAN</DistanceMeters>
          </Trackpoint>
          <Trackpoint>
            <Time>2022-07-14T09:56:43.000Z</Time>
            <Position>
              <LatitudeDegrees>43.37315976619720458984375</LatitudeDegrees>
              <LongitudeDegrees>-4.04148205183446407318115234375</LongitudeDegrees>
            </Position>
            <AltitudeMeters>21</AltitudeMeters>
            <DistanceMeters>NAN</DistanceMeters>
          </Trackpoint>
          <Trackpoint>
            <Time>2022-07-14T09:56:44.000Z</Time>
            <Position>
              <LatitudeDegrees>43.37312414310872554779052734375</LatitudeDegrees>
              <LongitudeDegrees>-4.0415037609636783599853515625</LongitudeDegrees>
            </Position>
            <AltitudeMeters>21</AltitudeMeters>
            <DistanceMeters>NAN</DistanceMeters>
          </Trackpoint>
          <Trackpoint>
            <Time>2022-07-14T09:56:46.000Z</Time>
            <Position>
              <LatitudeDegrees>43.37305943481624126434326171875</LatitudeDegrees>
              <LongitudeDegrees>-4.04151474125683307647705078125</LongitudeDegrees>
            </Position>
            <AltitudeMeters>21</AltitudeMeters>
            <DistanceMeters>NAN</DistanceMeters>
          </Trackpoint>
          <Trackpoint>
            <Time>2022-07-14T09:56:48.000Z</Time>
            <Position>
              <LatitudeDegrees>43.3730006776750087738037109375</LatitudeDegrees>
              <LongitudeDegrees>-4.041493199765682220458984375</LongitudeDegrees>
            </Position>
            <AltitudeMeters>20.799999237060546875</AltitudeMeters>
            <DistanceMeters>NAN</DistanceMeters>
          </Trackpoint>
          <Trackpoint>
            <Time>2022-07-14T09:56:49.000Z</Time>
            <Position>
              <LatitudeDegrees>43.372958935797214508056640625</LatitudeDegrees>
              <LongitudeDegrees>-4.0414626896381378173828125</LongitudeDegrees>
            </Position>
            <AltitudeMeters>20.799999237060546875</AltitudeMeters>
            <DistanceMeters>NAN</DistanceMeters>
          </Trackpoint>
          <Trackpoint>
            <Time>2022-07-14T09:56:51.000Z</Time>
            <Position>
              <LatitudeDegrees>43.372891210019588470458984375</LatitudeDegrees>
              <LongitudeDegrees>-4.04140166938304901123046875</LongitudeDegrees>
            </Position>
            <AltitudeMeters>20.799999237060546875</AltitudeMeters>
            <DistanceMeters>NAN</DistanceMeters>
          </Trackpoint>
          <Trackpoint>
            <Time>2022-07-14T09:56:53.000Z</Time>
            <Position>
              <LatitudeDegrees>43.3727991767227649688720703125</LatitudeDegrees>
              <LongitudeDegrees>-4.0413498692214488983154296875</LongitudeDegrees>
            </Position>
            <AltitudeMeters>20.799999237060546875</AltitudeMeters>
            <DistanceMeters>NAN</DistanceMeters>
          </Trackpoint>
          <Trackpoint>
            <Time>2022-07-14T09:56:54.000Z</Time>
            <Position>
              <LatitudeDegrees>43.3727478794753551483154296875</LatitudeDegrees>
              <LongitudeDegrees>-4.04133587144315242767333984375</LongitudeDegrees>
            </Position>
            <AltitudeMeters>20.799999237060546875</AltitudeMeters>
            <DistanceMeters>NAN</DistanceMeters>
          </Trackpoint>
          <Trackpoint>
            <Time>2022-07-14T09:56:55.000Z</Time>
            <Position>
              <LatitudeDegrees>43.37269079871475696563720703125</LatitudeDegrees>
              <LongitudeDegrees>-4.04132950119674205780029296875</LongitudeDegrees>
            </Position>
            <AltitudeMeters>20.799999237060546875</AltitudeMeters>
            <DistanceMeters>NAN</DistanceMeters>
          </Trackpoint>
          <Trackpoint>
            <Time>2022-07-14T09:56:57.000Z</Time>
            <Position>
              <LatitudeDegrees>43.37259273044764995574951171875</LatitudeDegrees>
              <LongitudeDegrees>-4.04135414399206638336181640625</LongitudeDegrees>
            </Position>
            <AltitudeMeters>20.6000003814697265625</AltitudeMeters>
            <DistanceMeters>NAN</DistanceMeters>
          </Trackpoint>
          <Trackpoint>
            <Time>2022-07-14T09:56:58.000Z</Time>
            <Position>
              <LatitudeDegrees>43.372559286653995513916015625</LatitudeDegrees>
              <LongitudeDegrees>-4.04137224890291690826416015625</LongitudeDegrees>
            </Position>
            <AltitudeMeters>20.3999996185302734375</AltitudeMeters>
            <DistanceMeters>NAN</DistanceMeters>
          </Trackpoint>
          <Trackpoint>
            <Time>2022-07-14T09:57:02.000Z</Time>
            <Position>
              <LatitudeDegrees>43.3723770640790462493896484375</LatitudeDegrees>
              <LongitudeDegrees>-4.04145321808755397796630859375</LongitudeDegrees>
            </Position>
            <AltitudeMeters>20.200000762939453125</AltitudeMeters>
            <DistanceMeters>NAN</DistanceMeters>
          </Trackpoint>
          <Trackpoint>
            <Time>2022-07-14T09:57:06.000Z</Time>
            <Position>
              <LatitudeDegrees>43.37219743989408016204833984375</LatitudeDegrees>
              <LongitudeDegrees>-4.0415272302925586700439453125</LongitudeDegrees>
            </Position>
            <AltitudeMeters>20.3999996185302734375</AltitudeMeters>
            <DistanceMeters>NAN</DistanceMeters>
          </Trackpoint>
          <Trackpoint>
            <Time>2022-07-14T09:57:14.000Z</Time>
            <Position>
              <LatitudeDegrees>43.37185847572982311248779296875</LatitudeDegrees>
              <LongitudeDegrees>-4.0416757576167583465576171875</LongitudeDegrees>
            </Position>
            <AltitudeMeters>20.3999996185302734375</AltitudeMeters>
            <DistanceMeters>NAN</DistanceMeters>
          </Trackpoint>
          <Trackpoint>
            <Time>2022-07-14T09:57:16.000Z</Time>
            <Position>
              <LatitudeDegrees>43.3717749081552028656005859375</LatitudeDegrees>
              <LongitudeDegrees>-4.04171020723879337310791015625</LongitudeDegrees>
            </Position>
            <AltitudeMeters>20.3999996185302734375</AltitudeMeters>
            <DistanceMeters>NAN</DistanceMeters>
          </Trackpoint>
          <Trackpoint>
            <Time>2022-07-14T09:57:18.000Z</Time>
            <Position>
              <LatitudeDegrees>43.37167759425938129425048828125</LatitudeDegrees>
              <LongitudeDegrees>-4.04173585586249828338623046875</LongitudeDegrees>
            </Position>
            <AltitudeMeters>20.3999996185302734375</AltitudeMeters>
            <DistanceMeters>NAN</DistanceMeters>
          </Trackpoint>
          <Trackpoint>
            <Time>2022-07-14T09:57:19.000Z</Time>
            <Position>
              <LatitudeDegrees>43.37163602001965045928955078125</LatitudeDegrees>
              <LongitudeDegrees>-4.04175446368753910064697265625</LongitudeDegrees>
            </Position>
            <AltitudeMeters>20.3999996185302734375</AltitudeMeters>
            <DistanceMeters>NAN</DistanceMeters>
          </Trackpoint>
          <Trackpoint>
            <Time>2022-07-14T09:57:22.000Z</Time>
            <Position>
              <LatitudeDegrees>43.3715241216123104095458984375</LatitudeDegrees>
              <LongitudeDegrees>-4.0418216027319431304931640625</LongitudeDegrees>
            </Position>
            <AltitudeMeters>20.3999996185302734375</AltitudeMeters>
            <DistanceMeters>NAN</DistanceMeters>
          </Trackpoint>
          <Trackpoint>
            <Time>2022-07-14T09:57:24.000Z</Time>
            <Position>
              <LatitudeDegrees>43.371442817151546478271484375</LatitudeDegrees>
              <LongitudeDegrees>-4.0418529510498046875</LongitudeDegrees>
            </Position>
            <AltitudeMeters>20.6000003814697265625</AltitudeMeters>
            <DistanceMeters>NAN</DistanceMeters>
          </Trackpoint>
          <Trackpoint>
            <Time>2022-07-14T09:57:25.000Z</Time>
            <Position>
              <LatitudeDegrees>43.37140451185405254364013671875</LatitudeDegrees>
              <LongitudeDegrees>-4.04186493717133998870849609375</LongitudeDegrees>
            </Position>
            <AltitudeMeters>20.6000003814697265625</AltitudeMeters>
            <DistanceMeters>NAN</DistanceMeters>
          </Trackpoint>
          <Trackpoint>
            <Time>2022-07-14T09:57:31.000Z</Time>
            <Position>
              <LatitudeDegrees>43.37118004448711872100830078125</LatitudeDegrees>
              <LongitudeDegrees>-4.041941799223423004150390625</LongitudeDegrees>
            </Position>
            <AltitudeMeters>21</AltitudeMeters>
            <DistanceMeters>NAN</DistanceMeters>
          </Trackpoint>
          <Trackpoint>
            <Time>2022-07-14T09:57:38.000Z</Time>
            <Position>
              <LatitudeDegrees>43.3709377236664295196533203125</LatitudeDegrees>
              <LongitudeDegrees>-4.0420482493937015533447265625</LongitudeDegrees>
            </Position>
            <AltitudeMeters>21.200000762939453125</AltitudeMeters>
            <DistanceMeters>NAN</DistanceMeters>
          </Trackpoint>
          <Trackpoint>
            <Time>2022-07-14T09:57:44.000Z</Time>
            <Position>
              <LatitudeDegrees>43.37075139395892620086669921875</LatitudeDegrees>
              <LongitudeDegrees>-4.04212594963610172271728515625</LongitudeDegrees>
            </Position>
            <AltitudeMeters>21.3999996185302734375</AltitudeMeters>
            <DistanceMeters>NAN</DistanceMeters>
          </Trackpoint>
          <Trackpoint>
            <Time>2022-07-14T09:57:49.000Z</Time>
            <Position>
              <LatitudeDegrees>43.37057839147746562957763671875</LatitudeDegrees>
              <LongitudeDegrees>-4.04219233430922031402587890625</LongitudeDegrees>
            </Position>
            <AltitudeMeters>21.3999996185302734375</AltitudeMeters>
            <DistanceMeters>NAN</DistanceMeters>
          </Trackpoint>
          <Trackpoint>
            <Time>2022-07-14T09:57:57.000Z</Time>
            <Position>
              <LatitudeDegrees>43.370322994887828826904296875</LatitudeDegrees>
              <LongitudeDegrees>-4.0423037298023700714111328125</LongitudeDegrees>
            </Position>
            <AltitudeMeters>21.6000003814697265625</AltitudeMeters>
            <DistanceMeters>NAN</DistanceMeters>
          </Trackpoint>
          <Trackpoint>
            <Time>2022-07-14T09:58:01.000Z</Time>
            <Position>
              <LatitudeDegrees>43.370182514190673828125</LatitudeDegrees>
              <LongitudeDegrees>-4.0423761494457721710205078125</LongitudeDegrees>
            </Position>
            <AltitudeMeters>21.3999996185302734375</AltitudeMeters>
            <DistanceMeters>NAN</DistanceMeters>
          </Trackpoint>
          <Trackpoint>
            <Time>2022-07-14T09:58:05.000Z</Time>
            <Position>
              <LatitudeDegrees>43.37006038986146450042724609375</LatitudeDegrees>
              <LongitudeDegrees>-4.04242652468383312225341796875</LongitudeDegrees>
            </Position>
            <AltitudeMeters>21.3999996185302734375</AltitudeMeters>
            <DistanceMeters>NAN</DistanceMeters>
          </Trackpoint>
          <Trackpoint>
            <Time>2022-07-14T09:58:07.000Z</Time>
            <Position>
              <LatitudeDegrees>43.3700012974441051483154296875</LatitudeDegrees>
              <LongitudeDegrees>-4.0424626506865024566650390625</LongitudeDegrees>
            </Position>
            <AltitudeMeters>21.6000003814697265625</AltitudeMeters>
            <DistanceMeters>NAN</DistanceMeters>
          </Trackpoint>
          <Trackpoint>
            <Time>2022-07-14T09:58:12.000Z</Time>
            <Position>
              <LatitudeDegrees>43.3698889799416065216064453125</LatitudeDegrees>
              <LongitudeDegrees>-4.042589552700519561767578125</LongitudeDegrees>
            </Position>
            <AltitudeMeters>21.799999237060546875</AltitudeMeters>
            <DistanceMeters>NAN</DistanceMeters>
          </Trackpoint>
          <Trackpoint>
            <Time>2022-07-14T09:58:16.000Z</Time>
            <Position>
              <LatitudeDegrees>43.36985201574862003326416015625</LatitudeDegrees>
              <LongitudeDegrees>-4.0427248366177082061767578125</LongitudeDegrees>
            </Position>
            <AltitudeMeters>22</AltitudeMeters>
            <DistanceMeters>NAN</DistanceMeters>
          </Trackpoint>
          <Trackpoint>
            <Time>2022-07-14T09:58:17.000Z</Time>
            <Position>
              <LatitudeDegrees>43.369835503399372100830078125</LatitudeDegrees>
              <LongitudeDegrees>-4.042746461927890777587890625</LongitudeDegrees>
            </Position>
            <AltitudeMeters>22</AltitudeMeters>
            <DistanceMeters>NAN</DistanceMeters>
          </Trackpoint>
          <Trackpoint>
            <Time>2022-07-14T09:58:22.000Z</Time>
            <Position>
              <LatitudeDegrees>43.3697364293038845062255859375</LatitudeDegrees>
              <LongitudeDegrees>-4.0428086556494235992431640625</LongitudeDegrees>
            </Position>
            <AltitudeMeters>22.200000762939453125</AltitudeMeters>
            <DistanceMeters>NAN</DistanceMeters>
          </Trackpoint>
          <Trackpoint>
            <Time>2022-07-14T09:58:23.000Z</Time>
            <Position>
              <LatitudeDegrees>43.36971379816532135009765625</LatitudeDegrees>
              <LongitudeDegrees>-4.0428217314183712005615234375</LongitudeDegrees>
            </Position>
            <AltitudeMeters>22.200000762939453125</AltitudeMeters>
            <DistanceMeters>NAN</DistanceMeters>
          </Trackpoint>
          <Trackpoint>
            <Time>2022-07-14T09:58:25.000Z</Time>
            <Position>
              <LatitudeDegrees>43.3696720562875270843505859375</LatitudeDegrees>
              <LongitudeDegrees>-4.042841680347919464111328125</LongitudeDegrees>
            </Position>
            <AltitudeMeters>22.200000762939453125</AltitudeMeters>
            <DistanceMeters>NAN</DistanceMeters>
          </Trackpoint>
          <Trackpoint>
            <Time>2022-07-14T09:58:28.000Z</Time>
            <Position>
              <LatitudeDegrees>43.36961363442242145538330078125</LatitudeDegrees>
              <LongitudeDegrees>-4.0429011918604373931884765625</LongitudeDegrees>
            </Position>
            <AltitudeMeters>22.200000762939453125</AltitudeMeters>
            <DistanceMeters>NAN</DistanceMeters>
          </Trackpoint>
          <Trackpoint>
            <Time>2022-07-14T09:58:33.000Z</Time>
            <Position>
              <LatitudeDegrees>43.3695808611810207366943359375</LatitudeDegrees>
              <LongitudeDegrees>-4.042928852140903472900390625</LongitudeDegrees>
            </Position>
            <AltitudeMeters>22.200000762939453125</AltitudeMeters>
            <DistanceMeters>NAN</DistanceMeters>
          </Trackpoint>
          <Trackpoint>
            <Time>2022-07-14T09:58:34.000Z</Time>
            <Position>
              <LatitudeDegrees>43.3695808611810207366943359375</LatitudeDegrees>
              <LongitudeDegrees>-4.042928852140903472900390625</LongitudeDegrees>
            </Position>
            <AltitudeMeters>22.200000762939453125</AltitudeMeters>
            <DistanceMeters>NAN</DistanceMeters>
          </Trackpoint>
          <Trackpoint>
            <Time>2022-07-14T09:58:54.000Z</Time>
            <Position>
              <LatitudeDegrees>43.3695292286574840545654296875</LatitudeDegrees>
              <LongitudeDegrees>-4.04287043027579784393310546875</LongitudeDegrees>
            </Position>
            <AltitudeMeters>22</AltitudeMeters>
            <DistanceMeters>NAN</DistanceMeters>
          </Trackpoint>
          <Trackpoint>
            <Time>2022-07-14T09:58:56.000Z</Time>
            <Position>
              <LatitudeDegrees>43.369468711316585540771484375</LatitudeDegrees>
              <LongitudeDegrees>-4.0428270958364009857177734375</LongitudeDegrees>
            </Position>
            <AltitudeMeters>22</AltitudeMeters>
            <DistanceMeters>NAN</DistanceMeters>
          </Trackpoint>
          <Trackpoint>
            <Time>2022-07-14T09:59:01.000Z</Time>
            <Position>
              <LatitudeDegrees>43.36930350400507450103759765625</LatitudeDegrees>
              <LongitudeDegrees>-4.04278627596795558929443359375</LongitudeDegrees>
            </Position>
            <AltitudeMeters>22.200000762939453125</AltitudeMeters>
            <DistanceMeters>NAN</DistanceMeters>
          </Trackpoint>
          <Trackpoint>
            <Time>2022-07-14T09:59:06.000Z</Time>
            <Position>
              <LatitudeDegrees>43.36914651095867156982421875</LatitudeDegrees>
              <LongitudeDegrees>-4.0428703464567661285400390625</LongitudeDegrees>
            </Position>
            <AltitudeMeters>22.200000762939453125</AltitudeMeters>
            <DistanceMeters>NAN</DistanceMeters>
          </Trackpoint>
          <Trackpoint>
            <Time>2022-07-14T09:59:13.000Z</Time>
            <Position>
              <LatitudeDegrees>43.36890066973865032196044921875</LatitudeDegrees>
              <LongitudeDegrees>-4.04298626817762851715087890625</LongitudeDegrees>
            </Position>
            <AltitudeMeters>22.3999996185302734375</AltitudeMeters>
            <DistanceMeters>NAN</DistanceMeters>
          </Trackpoint>
          <Trackpoint>
            <Time>2022-07-14T09:59:21.000Z</Time>
            <Position>
              <LatitudeDegrees>43.36865994147956371307373046875</LatitudeDegrees>
              <LongitudeDegrees>-4.0431204624474048614501953125</LongitudeDegrees>
            </Position>
            <AltitudeMeters>22.3999996185302734375</AltitudeMeters>
            <DistanceMeters>NAN</DistanceMeters>
          </Trackpoint>
          <Trackpoint>
            <Time>2022-07-14T09:59:25.000Z</Time>
            <Position>
              <LatitudeDegrees>43.36850387044250965118408203125</LatitudeDegrees>
              <LongitudeDegrees>-4.0431958995759487152099609375</LongitudeDegrees>
            </Position>
            <AltitudeMeters>22.3999996185302734375</AltitudeMeters>
            <DistanceMeters>NAN</DistanceMeters>
          </Trackpoint>
          <Trackpoint>
            <Time>2022-07-14T09:59:26.000Z</Time>
            <Position>
              <LatitudeDegrees>43.3684657327830791473388671875</LatitudeDegrees>
              <LongitudeDegrees>-4.04321257956326007843017578125</LongitudeDegrees>
            </Position>
            <AltitudeMeters>22.6000003814697265625</AltitudeMeters>
            <DistanceMeters>NAN</DistanceMeters>
          </Trackpoint>
          <Trackpoint>
            <Time>2022-07-14T09:59:36.000Z</Time>
            <Position>
              <LatitudeDegrees>43.368122577667236328125</LatitudeDegrees>
              <LongitudeDegrees>-4.04339882545173168182373046875</LongitudeDegrees>
            </Position>
            <AltitudeMeters>22.6000003814697265625</AltitudeMeters>
            <DistanceMeters>NAN</DistanceMeters>
          </Trackpoint>
          <Trackpoint>
            <Time>2022-07-14T09:59:39.000Z</Time>
            <Position>
              <LatitudeDegrees>43.368056528270244598388671875</LatitudeDegrees>
              <LongitudeDegrees>-4.04339589178562164306640625</LongitudeDegrees>
            </Position>
            <AltitudeMeters>22.6000003814697265625</AltitudeMeters>
            <DistanceMeters>NAN</DistanceMeters>
          </Trackpoint>
          <Trackpoint>
            <Time>2022-07-14T09:59:40.000Z</Time>
            <Position>
              <LatitudeDegrees>43.36805082857608795166015625</LatitudeDegrees>
              <LongitudeDegrees>-4.04336831532418727874755859375</LongitudeDegrees>
            </Position>
            <AltitudeMeters>22.6000003814697265625</AltitudeMeters>
            <DistanceMeters>NAN</DistanceMeters>
          </Trackpoint>
          <Trackpoint>
            <Time>2022-07-14T09:59:43.000Z</Time>
            <Position>
              <LatitudeDegrees>43.36803850717842578887939453125</LatitudeDegrees>
              <LongitudeDegrees>-4.04326354153454303741455078125</LongitudeDegrees>
            </Position>
            <AltitudeMeters>22.6000003814697265625</AltitudeMeters>
            <DistanceMeters>NAN</DistanceMeters>
          </Trackpoint>
          <Trackpoint>
            <Time>2022-07-14T09:59:44.000Z</Time>
            <Position>
              <LatitudeDegrees>43.368023335933685302734375</LatitudeDegrees>
              <LongitudeDegrees>-4.04325046576559543609619140625</LongitudeDegrees>
            </Position>
            <AltitudeMeters>22.799999237060546875</AltitudeMeters>
            <DistanceMeters>NAN</DistanceMeters>
          </Trackpoint>
          <Trackpoint>
            <Time>2022-07-14T09:59:50.000Z</Time>
            <Position>
              <LatitudeDegrees>43.3679497428238391876220703125</LatitudeDegrees>
              <LongitudeDegrees>-4.04315943829715251922607421875</LongitudeDegrees>
            </Position>
            <AltitudeMeters>22.799999237060546875</AltitudeMeters>
            <DistanceMeters>NAN</DistanceMeters>
          </Trackpoint>
          <Trackpoint>
            <Time>2022-07-14T09:59:53.000Z</Time>
            <Position>
              <LatitudeDegrees>43.36794446222484111785888671875</LatitudeDegrees>
              <LongitudeDegrees>-4.04315407387912273406982421875</LongitudeDegrees>
            </Position>
            <AltitudeMeters>22.799999237060546875</AltitudeMeters>
            <DistanceMeters>NAN</DistanceMeters>
          </Trackpoint>
          <Trackpoint>
            <Time>2022-07-14T10:01:26.000Z</Time>
            <Position>
              <LatitudeDegrees>43.3679205738008022308349609375</LatitudeDegrees>
              <LongitudeDegrees>-4.043173603713512420654296875</LongitudeDegrees>
            </Position>
            <AltitudeMeters>21.799999237060546875</AltitudeMeters>
            <DistanceMeters>NAN</DistanceMeters>
          </Trackpoint>
          <Trackpoint>
            <Time>2022-07-14T10:01:31.000Z</Time>
            <Position>
              <LatitudeDegrees>43.36785092018544673919677734375</LatitudeDegrees>
              <LongitudeDegrees>-4.04331408441066741943359375</LongitudeDegrees>
            </Position>
            <AltitudeMeters>22.6000003814697265625</AltitudeMeters>
            <DistanceMeters>NAN</DistanceMeters>
          </Trackpoint>
          <Trackpoint>
            <Time>2022-07-14T10:01:33.000Z</Time>
            <Position>
              <LatitudeDegrees>43.36782242171466350555419921875</LatitudeDegrees>
              <LongitudeDegrees>-4.0433590114116668701171875</LongitudeDegrees>
            </Position>
            <AltitudeMeters>23</AltitudeMeters>
            <DistanceMeters>NAN</DistanceMeters>
          </Trackpoint>
          <Trackpoint>
            <Time>2022-07-14T10:01:37.000Z</Time>
            <Position>
              <LatitudeDegrees>43.36773474700748920440673828125</LatitudeDegrees>
              <LongitudeDegrees>-4.0434091351926326751708984375</LongitudeDegrees>
            </Position>
            <AltitudeMeters>23.200000762939453125</AltitudeMeters>
            <DistanceMeters>NAN</DistanceMeters>
          </Trackpoint>
          <Trackpoint>
            <Time>2022-07-14T10:01:42.000Z</Time>
            <Position>
              <LatitudeDegrees>43.36761790327727794647216796875</LatitudeDegrees>
              <LongitudeDegrees>-4.04348515905439853668212890625</LongitudeDegrees>
            </Position>
            <AltitudeMeters>23.3999996185302734375</AltitudeMeters>
            <DistanceMeters>NAN</DistanceMeters>
          </Trackpoint>
          <Trackpoint>
            <Time>2022-07-14T10:01:43.000Z</Time>
            <Position>
              <LatitudeDegrees>43.36758487857878208160400390625</LatitudeDegrees>
              <LongitudeDegrees>-4.04349840246140956878662109375</LongitudeDegrees>
            </Position>
            <AltitudeMeters>23.3999996185302734375</AltitudeMeters>
            <DistanceMeters>NAN</DistanceMeters>
          </Trackpoint>
          <Trackpoint>
            <Time>2022-07-14T10:01:45.000Z</Time>
            <Position>
              <LatitudeDegrees>43.36754632182419300079345703125</LatitudeDegrees>
              <LongitudeDegrees>-4.0435180999338626861572265625</LongitudeDegrees>
            </Position>
            <AltitudeMeters>23.3999996185302734375</AltitudeMeters>
            <DistanceMeters>NAN</DistanceMeters>
          </Trackpoint>
          <Trackpoint>
            <Time>2022-07-14T10:01:47.000Z</Time>
            <Position>
              <LatitudeDegrees>43.36751648224890232086181640625</LatitudeDegrees>
              <LongitudeDegrees>-4.04355154372751712799072265625</LongitudeDegrees>
            </Position>
            <AltitudeMeters>23.6000003814697265625</AltitudeMeters>
            <DistanceMeters>NAN</DistanceMeters>
          </Trackpoint>
          <Trackpoint>
            <Time>2022-07-14T10:01:50.000Z</Time>
            <Position>
              <LatitudeDegrees>43.3674773387610912322998046875</LatitudeDegrees>
              <LongitudeDegrees>-4.04360217042267322540283203125</LongitudeDegrees>
            </Position>
            <AltitudeMeters>23.6000003814697265625</AltitudeMeters>
            <DistanceMeters>NAN</DistanceMeters>
          </Trackpoint>
          <Trackpoint>
            <Time>2022-07-14T10:01:59.000Z</Time>
            <Position>
              <LatitudeDegrees>43.36727189831435680389404296875</LatitudeDegrees>
              <LongitudeDegrees>-4.04373519122600555419921875</LongitudeDegrees>
            </Position>
            <AltitudeMeters>23.799999237060546875</AltitudeMeters>
            <DistanceMeters>NAN</DistanceMeters>
          </Trackpoint>
          <Trackpoint>
            <Time>2022-07-14T10:02:03.000Z</Time>
            <Position>
              <LatitudeDegrees>43.36719864048063755035400390625</LatitudeDegrees>
              <LongitudeDegrees>-4.04379981569945812225341796875</LongitudeDegrees>
            </Position>
            <AltitudeMeters>24</AltitudeMeters>
            <DistanceMeters>NAN</DistanceMeters>
          </Trackpoint>
          <Trackpoint>
            <Time>2022-07-14T10:02:05.000Z</Time>
            <Position>
              <LatitudeDegrees>43.3671645261347293853759765625</LatitudeDegrees>
              <LongitudeDegrees>-4.04383049346506595611572265625</LongitudeDegrees>
            </Position>
            <AltitudeMeters>24.200000762939453125</AltitudeMeters>
            <DistanceMeters>NAN</DistanceMeters>
          </Trackpoint>
          <Trackpoint>
            <Time>2022-07-14T10:02:06.000Z</Time>
            <Position>
              <LatitudeDegrees>43.3671527914702892303466796875</LatitudeDegrees>
              <LongitudeDegrees>-4.04384541325271129608154296875</LongitudeDegrees>
            </Position>
            <AltitudeMeters>24.200000762939453125</AltitudeMeters>
            <DistanceMeters>NAN</DistanceMeters>
          </Trackpoint>
          <Trackpoint>
            <Time>2022-07-14T10:02:07.000Z</Time>
            <Position>
              <LatitudeDegrees>43.3671293221414089202880859375</LatitudeDegrees>
              <LongitudeDegrees>-4.0438684634864330291748046875</LongitudeDegrees>
            </Position>
            <AltitudeMeters>24.200000762939453125</AltitudeMeters>
            <DistanceMeters>NAN</DistanceMeters>
          </Trackpoint>
          <Trackpoint>
            <Time>2022-07-14T10:02:13.000Z</Time>
            <Position>
              <LatitudeDegrees>43.36698289029300212860107421875</LatitudeDegrees>
              <LongitudeDegrees>-4.04401891864836215972900390625</LongitudeDegrees>
            </Position>
            <AltitudeMeters>24.3999996185302734375</AltitudeMeters>
            <DistanceMeters>NAN</DistanceMeters>
          </Trackpoint>
          <Trackpoint>
            <Time>2022-07-14T10:02:20.000Z</Time>
            <Position>
              <LatitudeDegrees>43.36677166633307933807373046875</LatitudeDegrees>
              <LongitudeDegrees>-4.04412335716187953948974609375</LongitudeDegrees>
            </Position>
            <AltitudeMeters>24.6000003814697265625</AltitudeMeters>
            <DistanceMeters>NAN</DistanceMeters>
          </Trackpoint>
          <Trackpoint>
            <Time>2022-07-14T10:02:25.000Z</Time>
            <Position>
              <LatitudeDegrees>43.3666287548840045928955078125</LatitudeDegrees>
              <LongitudeDegrees>-4.04420549981296062469482421875</LongitudeDegrees>
            </Position>
            <AltitudeMeters>24.6000003814697265625</AltitudeMeters>
            <DistanceMeters>NAN</DistanceMeters>
          </Trackpoint>
          <Trackpoint>
            <Time>2022-07-14T10:02:28.000Z</Time>
            <Position>
              <LatitudeDegrees>43.3665757812559604644775390625</LatitudeDegrees>
              <LongitudeDegrees>-4.0442360937595367431640625</LongitudeDegrees>
            </Position>
            <AltitudeMeters>24.799999237060546875</AltitudeMeters>
            <DistanceMeters>NAN</DistanceMeters>
          </Trackpoint>
          <Trackpoint>
            <Time>2022-07-14T10:02:33.000Z</Time>
            <Position>
              <LatitudeDegrees>43.36647176183760166168212890625</LatitudeDegrees>
              <LongitudeDegrees>-4.04428965412080287933349609375</LongitudeDegrees>
            </Position>
            <AltitudeMeters>24.799999237060546875</AltitudeMeters>
            <DistanceMeters>NAN</DistanceMeters>
          </Trackpoint>
          <Trackpoint>
            <Time>2022-07-14T10:02:36.000Z</Time>
            <Position>
              <LatitudeDegrees>43.36637419648468494415283203125</LatitudeDegrees>
              <LongitudeDegrees>-4.04433726333081722259521484375</LongitudeDegrees>
            </Position>
            <AltitudeMeters>25</AltitudeMeters>
            <DistanceMeters>NAN</DistanceMeters>
          </Trackpoint>
          <Trackpoint>
            <Time>2022-07-14T10:02:39.000Z</Time>
            <Position>
              <LatitudeDegrees>43.36628350429236888885498046875</LatitudeDegrees>
              <LongitudeDegrees>-4.04437649063766002655029296875</LongitudeDegrees>
            </Position>
            <AltitudeMeters>25.200000762939453125</AltitudeMeters>
            <DistanceMeters>NAN</DistanceMeters>
          </Trackpoint>
          <Trackpoint>
            <Time>2022-07-14T10:02:43.000Z</Time>
            <Position>
              <LatitudeDegrees>43.36617873050272464752197265625</LatitudeDegrees>
              <LongitudeDegrees>-4.044439606368541717529296875</LongitudeDegrees>
            </Position>
            <AltitudeMeters>25.3999996185302734375</AltitudeMeters>
            <DistanceMeters>NAN</DistanceMeters>
          </Trackpoint>
          <Trackpoint>
            <Time>2022-07-14T10:02:49.000Z</Time>
            <Position>
              <LatitudeDegrees>43.36598795838654041290283203125</LatitudeDegrees>
              <LongitudeDegrees>-4.0445336513221263885498046875</LongitudeDegrees>
            </Position>
            <AltitudeMeters>25.3999996185302734375</AltitudeMeters>
            <DistanceMeters>NAN</DistanceMeters>
          </Trackpoint>
          <Trackpoint>
            <Time>2022-07-14T10:02:51.000Z</Time>
            <Position>
              <LatitudeDegrees>43.36592760868370532989501953125</LatitudeDegrees>
              <LongitudeDegrees>-4.04456458054482936859130859375</LongitudeDegrees>
            </Position>
            <AltitudeMeters>25.3999996185302734375</AltitudeMeters>
            <DistanceMeters>NAN</DistanceMeters>
          </Trackpoint>
          <Trackpoint>
            <Time>2022-07-14T10:02:53.000Z</Time>
            <Position>
              <LatitudeDegrees>43.3658747188746929168701171875</LatitudeDegrees>
              <LongitudeDegrees>-4.04460313729941844940185546875</LongitudeDegrees>
            </Position>
            <AltitudeMeters>25.3999996185302734375</AltitudeMeters>
            <DistanceMeters>NAN</DistanceMeters>
          </Trackpoint>
          <Trackpoint>
            <Time>2022-07-14T10:02:54.000Z</Time>
            <Position>
              <LatitudeDegrees>43.365845382213592529296875</LatitudeDegrees>
              <LongitudeDegrees>-4.04462124221026897430419921875</LongitudeDegrees>
            </Position>
            <AltitudeMeters>25.3999996185302734375</AltitudeMeters>
            <DistanceMeters>NAN</DistanceMeters>
          </Trackpoint>
          <Trackpoint>
            <Time>2022-07-14T10:02:56.000Z</Time>
            <Position>
              <LatitudeDegrees>43.36579249240458011627197265625</LatitudeDegrees>
              <LongitudeDegrees>-4.04465124942362308502197265625</LongitudeDegrees>
            </Position>
            <AltitudeMeters>25.3999996185302734375</AltitudeMeters>
            <DistanceMeters>NAN</DistanceMeters>
          </Trackpoint>
          <Trackpoint>
            <Time>2022-07-14T10:02:58.000Z</Time>
            <Position>
              <LatitudeDegrees>43.36572007276117801666259765625</LatitudeDegrees>
              <LongitudeDegrees>-4.044688045978546142578125</LongitudeDegrees>
            </Position>
            <AltitudeMeters>25.3999996185302734375</AltitudeMeters>
            <DistanceMeters>NAN</DistanceMeters>
          </Trackpoint>
          <Trackpoint>
            <Time>2022-07-14T10:03:02.000Z</Time>
            <Position>
              <LatitudeDegrees>43.36559166200459003448486328125</LatitudeDegrees>
              <LongitudeDegrees>-4.0447549335658550262451171875</LongitudeDegrees>
            </Position>
            <AltitudeMeters>25.200000762939453125</AltitudeMeters>
            <DistanceMeters>NAN</DistanceMeters>
          </Trackpoint>
          <Trackpoint>
            <Time>2022-07-14T10:03:04.000Z</Time>
            <Position>
              <LatitudeDegrees>43.365512453019618988037109375</LatitudeDegrees>
              <LongitudeDegrees>-4.04479868710041046142578125</LongitudeDegrees>
            </Position>
            <AltitudeMeters>25</AltitudeMeters>
            <DistanceMeters>NAN</DistanceMeters>
          </Trackpoint>
          <Trackpoint>
            <Time>2022-07-14T10:03:13.000Z</Time>
            <Position>
              <LatitudeDegrees>43.3651763387024402618408203125</LatitudeDegrees>
              <LongitudeDegrees>-4.044980071485042572021484375</LongitudeDegrees>
            </Position>
            <AltitudeMeters>24.6000003814697265625</AltitudeMeters>
            <DistanceMeters>NAN</DistanceMeters>
          </Trackpoint>
          <Trackpoint>
            <Time>2022-07-14T10:03:14.000Z</Time>
            <Position>
              <LatitudeDegrees>43.36513719521462917327880859375</LatitudeDegrees>
              <LongitudeDegrees>-4.0450023673474788665771484375</LongitudeDegrees>
            </Position>
            <AltitudeMeters>24.6000003814697265625</AltitudeMeters>
            <DistanceMeters>NAN</DistanceMeters>
          </Trackpoint>
          <Trackpoint>
            <Time>2022-07-14T10:03:26.000Z</Time>
            <Position>
              <LatitudeDegrees>43.3646543137729167938232421875</LatitudeDegrees>
              <LongitudeDegrees>-4.04527804814279079437255859375</LongitudeDegrees>
            </Position>
            <AltitudeMeters>24</AltitudeMeters>
            <DistanceMeters>NAN</DistanceMeters>
          </Trackpoint>
          <Trackpoint>
            <Time>2022-07-14T10:03:34.000Z</Time>
            <Position>
              <LatitudeDegrees>43.36430788971483707427978515625</LatitudeDegrees>
              <LongitudeDegrees>-4.04548407532274723052978515625</LongitudeDegrees>
            </Position>
            <AltitudeMeters>23.6000003814697265625</AltitudeMeters>
            <DistanceMeters>NAN</DistanceMeters>
          </Trackpoint>
          <Trackpoint>
            <Time>2022-07-14T10:03:35.000Z</Time>
            <Position>
              <LatitudeDegrees>43.3642546646296977996826171875</LatitudeDegrees>
              <LongitudeDegrees>-4.04551458545029163360595703125</LongitudeDegrees>
            </Position>
            <AltitudeMeters>23.3999996185302734375</AltitudeMeters>
            <DistanceMeters>NAN</DistanceMeters>
          </Trackpoint>
          <Trackpoint>
            <Time>2022-07-14T10:03:38.000Z</Time>
            <Position>
              <LatitudeDegrees>43.36410940624773502349853515625</LatitudeDegrees>
              <LongitudeDegrees>-4.04559136368334293365478515625</LongitudeDegrees>
            </Position>
            <AltitudeMeters>23.3999996185302734375</AltitudeMeters>
            <DistanceMeters>NAN</DistanceMeters>
          </Trackpoint>
          <Trackpoint>
            <Time>2022-07-14T10:03:39.000Z</Time>
            <Position>
              <LatitudeDegrees>43.3640742860734462738037109375</LatitudeDegrees>
              <LongitudeDegrees>-4.045621119439601898193359375</LongitudeDegrees>
            </Position>
            <AltitudeMeters>23.3999996185302734375</AltitudeMeters>
            <DistanceMeters>NAN</DistanceMeters>
          </Trackpoint>
          <Trackpoint>
            <Time>2022-07-14T10:03:40.000Z</Time>
            <Position>
              <LatitudeDegrees>43.36403556168079376220703125</LatitudeDegrees>
              <LongitudeDegrees>-4.04566235840320587158203125</LongitudeDegrees>
            </Position>
            <AltitudeMeters>23.3999996185302734375</AltitudeMeters>
            <DistanceMeters>NAN</DistanceMeters>
          </Trackpoint>
          <Trackpoint>
            <Time>2022-07-14T10:03:41.000Z</Time>
            <Position>
              <LatitudeDegrees>43.3640079014003276824951171875</LatitudeDegrees>
              <LongitudeDegrees>-4.045712314546108245849609375</LongitudeDegrees>
            </Position>
            <AltitudeMeters>23.3999996185302734375</AltitudeMeters>
            <DistanceMeters>NAN</DistanceMeters>
          </Trackpoint>
          <Trackpoint>
            <Time>2022-07-14T10:03:42.000Z</Time>
            <Position>
              <LatitudeDegrees>43.36398703046143054962158203125</LatitudeDegrees>
              <LongitudeDegrees>-4.0457818843424320220947265625</LongitudeDegrees>
            </Position>
            <AltitudeMeters>23.3999996185302734375</AltitudeMeters>
            <DistanceMeters>NAN</DistanceMeters>
          </Trackpoint>
          <Trackpoint>
            <Time>2022-07-14T10:03:44.000Z</Time>
            <Position>
              <LatitudeDegrees>43.3639569394290447235107421875</LatitudeDegrees>
              <LongitudeDegrees>-4.04587701894342899322509765625</LongitudeDegrees>
            </Position>
            <AltitudeMeters>23.3999996185302734375</AltitudeMeters>
            <DistanceMeters>NAN</DistanceMeters>
          </Trackpoint>
          <Trackpoint>
            <Time>2022-07-14T10:03:45.000Z</Time>
            <Position>
              <LatitudeDegrees>43.36393707431852817535400390625</LatitudeDegrees>
              <LongitudeDegrees>-4.04592923820018768310546875</LongitudeDegrees>
            </Position>
            <AltitudeMeters>23.6000003814697265625</AltitudeMeters>
            <DistanceMeters>NAN</DistanceMeters>
          </Trackpoint>
          <Trackpoint>
            <Time>2022-07-14T10:03:49.000Z</Time>
            <Position>
              <LatitudeDegrees>43.36383917368948459625244140625</LatitudeDegrees>
              <LongitudeDegrees>-4.04605018906295299530029296875</LongitudeDegrees>
            </Position>
            <AltitudeMeters>23.6000003814697265625</AltitudeMeters>
            <DistanceMeters>NAN</DistanceMeters>
          </Trackpoint>
          <Trackpoint>
            <Time>2022-07-14T10:03:50.000Z</Time>
            <Position>
              <LatitudeDegrees>43.36379877291619777679443359375</LatitudeDegrees>
              <LongitudeDegrees>-4.04604993760585784912109375</LongitudeDegrees>
            </Position>
            <AltitudeMeters>23.3999996185302734375</AltitudeMeters>
            <DistanceMeters>NAN</DistanceMeters>
          </Trackpoint>
          <Trackpoint>
            <Time>2022-07-14T10:03:52.000Z</Time>
            <Position>
              <LatitudeDegrees>43.36374160833656787872314453125</LatitudeDegrees>
              <LongitudeDegrees>-4.04601104557514190673828125</LongitudeDegrees>
            </Position>
            <AltitudeMeters>23.3999996185302734375</AltitudeMeters>
            <DistanceMeters>NAN</DistanceMeters>
          </Trackpoint>
          <Trackpoint>
            <Time>2022-07-14T10:03:54.000Z</Time>
            <Position>
              <LatitudeDegrees>43.36366969160735607147216796875</LatitudeDegrees>
              <LongitudeDegrees>-4.04595497064292430877685546875</LongitudeDegrees>
            </Position>
            <AltitudeMeters>23.3999996185302734375</AltitudeMeters>
            <DistanceMeters>NAN</DistanceMeters>
          </Trackpoint>
          <Trackpoint>
            <Time>2022-07-14T10:03:56.000Z</Time>
            <Position>
              <LatitudeDegrees>43.36356776766479015350341796875</LatitudeDegrees>
              <LongitudeDegrees>-4.0459243766963481903076171875</LongitudeDegrees>
            </Position>
            <AltitudeMeters>23.200000762939453125</AltitudeMeters>
            <DistanceMeters>NAN</DistanceMeters>
          </Trackpoint>
          <Trackpoint>
            <Time>2022-07-14T10:03:57.000Z</Time>
            <Position>
              <LatitudeDegrees>43.36351647041738033294677734375</LatitudeDegrees>
              <LongitudeDegrees>-4.0459377877414226531982421875</LongitudeDegrees>
            </Position>
            <AltitudeMeters>23.200000762939453125</AltitudeMeters>
            <DistanceMeters>NAN</DistanceMeters>
          </Trackpoint>
          <Trackpoint>
            <Time>2022-07-14T10:04:00.000Z</Time>
            <Position>
              <LatitudeDegrees>43.36336827836930751800537109375</LatitudeDegrees>
              <LongitudeDegrees>-4.0460278093814849853515625</LongitudeDegrees>
            </Position>
            <AltitudeMeters>22.799999237060546875</AltitudeMeters>
            <DistanceMeters>NAN</DistanceMeters>
          </Trackpoint>
          <Trackpoint>
            <Time>2022-07-14T10:04:02.000Z</Time>
            <Position>
              <LatitudeDegrees>43.363265097141265869140625</LatitudeDegrees>
              <LongitudeDegrees>-4.0460792742669582366943359375</LongitudeDegrees>
            </Position>
            <AltitudeMeters>22.3999996185302734375</AltitudeMeters>
            <DistanceMeters>NAN</DistanceMeters>
          </Trackpoint>
          <Trackpoint>
            <Time>2022-07-14T10:04:03.000Z</Time>
            <Position>
              <LatitudeDegrees>43.3632129617035388946533203125</LatitudeDegrees>
              <LongitudeDegrees>-4.04610668309032917022705078125</LongitudeDegrees>
            </Position>
            <AltitudeMeters>22.3999996185302734375</AltitudeMeters>
            <DistanceMeters>NAN</DistanceMeters>
          </Trackpoint>
          <Trackpoint>
            <Time>2022-07-14T10:04:14.000Z</Time>
            <Position>
              <LatitudeDegrees>43.36267207749187946319580078125</LatitudeDegrees>
              <LongitudeDegrees>-4.0463937632739543914794921875</LongitudeDegrees>
            </Position>
            <AltitudeMeters>22.200000762939453125</AltitudeMeters>
            <DistanceMeters>NAN</DistanceMeters>
          </Trackpoint>
          <Trackpoint>
            <Time>2022-07-14T10:04:19.000Z</Time>
            <Position>
              <LatitudeDegrees>43.3624502085149288177490234375</LatitudeDegrees>
              <LongitudeDegrees>-4.04650817625224590301513671875</LongitudeDegrees>
            </Position>
            <AltitudeMeters>22.6000003814697265625</AltitudeMeters>
            <DistanceMeters>NAN</DistanceMeters>
          </Trackpoint>
          <Trackpoint>
            <Time>2022-07-14T10:04:20.000Z</Time>
            <Position>
              <LatitudeDegrees>43.362412489950656890869140625</LatitudeDegrees>
              <LongitudeDegrees>-4.04652628116309642791748046875</LongitudeDegrees>
            </Position>
            <AltitudeMeters>22.6000003814697265625</AltitudeMeters>
            <DistanceMeters>NAN</DistanceMeters>
          </Trackpoint>
          <Trackpoint>
            <Time>2022-07-14T10:04:26.000Z</Time>
            <Position>
              <LatitudeDegrees>43.36221040226519107818603515625</LatitudeDegrees>
              <LongitudeDegrees>-4.04659065417945384979248046875</LongitudeDegrees>
            </Position>
            <AltitudeMeters>22.799999237060546875</AltitudeMeters>
            <DistanceMeters>NAN</DistanceMeters>
          </Trackpoint>
          <Trackpoint>
            <Time>2022-07-14T10:04:27.000Z</Time>
            <Position>
              <LatitudeDegrees>43.36218240670859813690185546875</LatitudeDegrees>
              <LongitudeDegrees>-4.04657523147761821746826171875</LongitudeDegrees>
            </Position>
            <AltitudeMeters>22.799999237060546875</AltitudeMeters>
            <DistanceMeters>NAN</DistanceMeters>
          </Trackpoint>
          <Trackpoint>
            <Time>2022-07-14T10:04:29.000Z</Time>
            <Position>
              <LatitudeDegrees>43.36219229735434055328369140625</LatitudeDegrees>
              <LongitudeDegrees>-4.046532399952411651611328125</LongitudeDegrees>
            </Position>
            <AltitudeMeters>22.6000003814697265625</AltitudeMeters>
            <DistanceMeters>NAN</DistanceMeters>
          </Trackpoint>
          <Trackpoint>
            <Time>2022-07-14T10:04:34.000Z</Time>
            <Position>
              <LatitudeDegrees>43.36232406087219715118408203125</LatitudeDegrees>
              <LongitudeDegrees>-4.04648604802787303924560546875</LongitudeDegrees>
            </Position>
            <AltitudeMeters>22.6000003814697265625</AltitudeMeters>
            <DistanceMeters>NAN</DistanceMeters>
          </Trackpoint>
          <Trackpoint>
            <Time>2022-07-14T10:04:40.000Z</Time>
            <Position>
              <LatitudeDegrees>43.3623871766030788421630859375</LatitudeDegrees>
              <LongitudeDegrees>-4.0464480780065059661865234375</LongitudeDegrees>
            </Position>
            <AltitudeMeters>22.3999996185302734375</AltitudeMeters>
            <DistanceMeters>NAN</DistanceMeters>
          </Trackpoint>
          <Trackpoint>
            <Time>2022-07-14T10:04:41.000Z</Time>
            <Position>
              <LatitudeDegrees>43.3623871766030788421630859375</LatitudeDegrees>
              <LongitudeDegrees>-4.0464480780065059661865234375</LongitudeDegrees>
            </Position>
            <AltitudeMeters>22.3999996185302734375</AltitudeMeters>
            <DistanceMeters>NAN</DistanceMeters>
          </Trackpoint>
          <Trackpoint>
            <Time>2022-07-14T10:06:18.000Z</Time>
            <Position>
              <LatitudeDegrees>43.3623060397803783416748046875</LatitudeDegrees>
              <LongitudeDegrees>-4.04657120816409587860107421875</LongitudeDegrees>
            </Position>
            <AltitudeMeters>24.3999996185302734375</AltitudeMeters>
            <DistanceMeters>NAN</DistanceMeters>
          </Trackpoint>
          <Trackpoint>
            <Time>2022-07-14T10:06:19.000Z</Time>
            <Position>
              <LatitudeDegrees>43.362279720604419708251953125</LatitudeDegrees>
              <LongitudeDegrees>-4.0465610660612583160400390625</LongitudeDegrees>
            </Position>
            <AltitudeMeters>24.3999996185302734375</AltitudeMeters>
            <DistanceMeters>NAN</DistanceMeters>
          </Trackpoint>
          <Trackpoint>
            <Time>2022-07-14T10:06:20.000Z</Time>
            <Position>
              <LatitudeDegrees>43.36225449107587337493896484375</LatitudeDegrees>
              <LongitudeDegrees>-4.046543128788471221923828125</LongitudeDegrees>
            </Position>
            <AltitudeMeters>24.3999996185302734375</AltitudeMeters>
            <DistanceMeters>NAN</DistanceMeters>
          </Trackpoint>
          <Trackpoint>
            <Time>2022-07-14T10:06:24.000Z</Time>
            <Position>
              <LatitudeDegrees>43.36217419244349002838134765625</LatitudeDegrees>
              <LongitudeDegrees>-4.04656349681317806243896484375</LongitudeDegrees>
            </Position>
            <AltitudeMeters>24.6000003814697265625</AltitudeMeters>
            <DistanceMeters>NAN</DistanceMeters>
          </Trackpoint>
          <Trackpoint>
            <Time>2022-07-14T10:06:25.000Z</Time>
            <Position>
              <LatitudeDegrees>43.362142257392406463623046875</LatitudeDegrees>
              <LongitudeDegrees>-4.04655092395842075347900390625</LongitudeDegrees>
            </Position>
            <AltitudeMeters>24.6000003814697265625</AltitudeMeters>
            <DistanceMeters>NAN</DistanceMeters>
          </Trackpoint>
          <Trackpoint>
            <Time>2022-07-14T10:06:31.000Z</Time>
            <Position>
              <LatitudeDegrees>43.36197487078607082366943359375</LatitudeDegrees>
              <LongitudeDegrees>-4.04652862809598445892333984375</LongitudeDegrees>
            </Position>
            <AltitudeMeters>25</AltitudeMeters>
            <DistanceMeters>NAN</DistanceMeters>
          </Trackpoint>
          <Trackpoint>
            <Time>2022-07-14T10:06:34.000Z</Time>
            <Position>
              <LatitudeDegrees>43.36185802705585956573486328125</LatitudeDegrees>
              <LongitudeDegrees>-4.0464916639029979705810546875</LongitudeDegrees>
            </Position>
            <AltitudeMeters>25.3999996185302734375</AltitudeMeters>
            <DistanceMeters>NAN</DistanceMeters>
          </Trackpoint>
          <Trackpoint>
            <Time>2022-07-14T10:06:39.000Z</Time>
            <Position>
              <LatitudeDegrees>43.36170547641813755035400390625</LatitudeDegrees>
              <LongitudeDegrees>-4.0464303083717823028564453125</LongitudeDegrees>
            </Position>
            <AltitudeMeters>25.799999237060546875</AltitudeMeters>
            <DistanceMeters>NAN</DistanceMeters>
          </Trackpoint>
          <Trackpoint>
            <Time>2022-07-14T10:06:49.000Z</Time>
            <Position>
              <LatitudeDegrees>43.3614168874919414520263671875</LatitudeDegrees>
              <LongitudeDegrees>-4.046342633664608001708984375</LongitudeDegrees>
            </Position>
            <AltitudeMeters>26.200000762939453125</AltitudeMeters>
            <DistanceMeters>NAN</DistanceMeters>
          </Trackpoint>
          <Trackpoint>
            <Time>2022-07-14T10:06:56.000Z</Time>
            <Position>
              <LatitudeDegrees>43.36125754751265048980712890625</LatitudeDegrees>
              <LongitudeDegrees>-4.04631120152771472930908203125</LongitudeDegrees>
            </Position>
            <AltitudeMeters>26.200000762939453125</AltitudeMeters>
            <DistanceMeters>NAN</DistanceMeters>
          </Trackpoint>
          <Trackpoint>
            <Time>2022-07-14T10:06:59.000Z</Time>
            <Position>
              <LatitudeDegrees>43.36119242012500762939453125</LatitudeDegrees>
              <LongitudeDegrees>-4.04629711993038654327392578125</LongitudeDegrees>
            </Position>
            <AltitudeMeters>26.200000762939453125</AltitudeMeters>
            <DistanceMeters>NAN</DistanceMeters>
          </Trackpoint>
          <Trackpoint>
            <Time>2022-07-14T10:07:03.000Z</Time>
            <Position>
              <LatitudeDegrees>43.3611228503286838531494140625</LatitudeDegrees>
              <LongitudeDegrees>-4.0462799370288848876953125</LongitudeDegrees>
            </Position>
            <AltitudeMeters>26</AltitudeMeters>
            <DistanceMeters>NAN</DistanceMeters>
          </Trackpoint>
          <Trackpoint>
            <Time>2022-07-14T10:07:10.000Z</Time>
            <Position>
              <LatitudeDegrees>43.3610407076776027679443359375</LatitudeDegrees>
              <LongitudeDegrees>-4.04624749906361103057861328125</LongitudeDegrees>
            </Position>
            <AltitudeMeters>26.200000762939453125</AltitudeMeters>
            <DistanceMeters>NAN</DistanceMeters>
          </Trackpoint>
          <Trackpoint>
            <Time>2022-07-14T10:07:17.000Z</Time>
            <Position>
              <LatitudeDegrees>43.36092956364154815673828125</LatitudeDegrees>
              <LongitudeDegrees>-4.04622319154441356658935546875</LongitudeDegrees>
            </Position>
            <AltitudeMeters>26.200000762939453125</AltitudeMeters>
            <DistanceMeters>NAN</DistanceMeters>
          </Trackpoint>
          <Trackpoint>
            <Time>2022-07-14T10:07:19.000Z</Time>
            <Position>
              <LatitudeDegrees>43.36089779622852802276611328125</LatitudeDegrees>
              <LongitudeDegrees>-4.046200476586818695068359375</LongitudeDegrees>
            </Position>
            <AltitudeMeters>26.200000762939453125</AltitudeMeters>
            <DistanceMeters>NAN</DistanceMeters>
          </Trackpoint>
          <Trackpoint>
            <Time>2022-07-14T10:07:22.000Z</Time>
            <Position>
              <LatitudeDegrees>43.360848762094974517822265625</LatitudeDegrees>
              <LongitudeDegrees>-4.04617474414408206939697265625</LongitudeDegrees>
            </Position>
            <AltitudeMeters>26</AltitudeMeters>
            <DistanceMeters>NAN</DistanceMeters>
          </Trackpoint>
          <Trackpoint>
            <Time>2022-07-14T10:07:25.000Z</Time>
            <Position>
              <LatitudeDegrees>43.36076997220516204833984375</LatitudeDegrees>
              <LongitudeDegrees>-4.04616451822221279144287109375</LongitudeDegrees>
            </Position>
            <AltitudeMeters>26.200000762939453125</AltitudeMeters>
            <DistanceMeters>NAN</DistanceMeters>
          </Trackpoint>
          <Trackpoint>
            <Time>2022-07-14T10:07:26.000Z</Time>
            <Position>
              <LatitudeDegrees>43.3607478439807891845703125</LatitudeDegrees>
              <LongitudeDegrees>-4.046165943145751953125</LongitudeDegrees>
            </Position>
            <AltitudeMeters>26.200000762939453125</AltitudeMeters>
            <DistanceMeters>NAN</DistanceMeters>
          </Trackpoint>
          <Trackpoint>
            <Time>2022-07-14T10:07:27.000Z</Time>
            <Position>
              <LatitudeDegrees>43.36072948761284351348876953125</LatitudeDegrees>
              <LongitudeDegrees>-4.0461644344031810760498046875</LongitudeDegrees>
            </Position>
            <AltitudeMeters>26.200000762939453125</AltitudeMeters>
            <DistanceMeters>NAN</DistanceMeters>
          </Trackpoint>
          <Trackpoint>
            <Time>2022-07-14T10:07:31.000Z</Time>
            <Position>
              <LatitudeDegrees>43.36069713346660137176513671875</LatitudeDegrees>
              <LongitudeDegrees>-4.04616015963256359100341796875</LongitudeDegrees>
            </Position>
            <AltitudeMeters>26</AltitudeMeters>
            <DistanceMeters>NAN</DistanceMeters>
          </Trackpoint>
          <Trackpoint>
            <Time>2022-07-14T10:08:44.000Z</Time>
            <Position>
              <LatitudeDegrees>43.36068053729832172393798828125</LatitudeDegrees>
              <LongitudeDegrees>-4.04616267420351505279541015625</LongitudeDegrees>
            </Position>
            <AltitudeMeters>26</AltitudeMeters>
            <DistanceMeters>NAN</DistanceMeters>
          </Trackpoint>
          <Trackpoint>
            <Time>2022-07-14T10:08:45.000Z</Time>
            <Position>
              <LatitudeDegrees>43.36065388284623622894287109375</LatitudeDegrees>
              <LongitudeDegrees>-4.0461630932986736297607421875</LongitudeDegrees>
            </Position>
            <AltitudeMeters>26</AltitudeMeters>
            <DistanceMeters>NAN</DistanceMeters>
          </Trackpoint>
          <Trackpoint>
            <Time>2022-07-14T10:08:46.000Z</Time>
            <Position>
              <LatitudeDegrees>43.36061842739582061767578125</LatitudeDegrees>
              <LongitudeDegrees>-4.04615965671837329864501953125</LongitudeDegrees>
            </Position>
            <AltitudeMeters>26</AltitudeMeters>
            <DistanceMeters>NAN</DistanceMeters>
          </Trackpoint>
          <Trackpoint>
            <Time>2022-07-14T10:08:51.000Z</Time>
            <Position>
              <LatitudeDegrees>43.36045489646494388580322265625</LatitudeDegrees>
              <LongitudeDegrees>-4.04613669030368328094482421875</LongitudeDegrees>
            </Position>
            <AltitudeMeters>26</AltitudeMeters>
            <DistanceMeters>NAN</DistanceMeters>
          </Trackpoint>
          <Trackpoint>
            <Time>2022-07-14T10:08:52.000Z</Time>
            <Position>
              <LatitudeDegrees>43.3604174293577671051025390625</LatitudeDegrees>
              <LongitudeDegrees>-4.0461386181414127349853515625</LongitudeDegrees>
            </Position>
            <AltitudeMeters>26</AltitudeMeters>
            <DistanceMeters>NAN</DistanceMeters>
          </Trackpoint>
          <Trackpoint>
            <Time>2022-07-14T10:08:55.000Z</Time>
            <Position>
              <LatitudeDegrees>43.3602999150753021240234375</LatitudeDegrees>
              <LongitudeDegrees>-4.046136774122714996337890625</LongitudeDegrees>
            </Position>
            <AltitudeMeters>26.3999996185302734375</AltitudeMeters>
            <DistanceMeters>NAN</DistanceMeters>
          </Trackpoint>
          <Trackpoint>
            <Time>2022-07-14T10:08:58.000Z</Time>
            <Position>
              <LatitudeDegrees>43.36018298752605915069580078125</LatitudeDegrees>
              <LongitudeDegrees>-4.046127386391162872314453125</LongitudeDegrees>
            </Position>
            <AltitudeMeters>26.6000003814697265625</AltitudeMeters>
            <DistanceMeters>NAN</DistanceMeters>
          </Trackpoint>
          <Trackpoint>
            <Time>2022-07-14T10:09:05.000Z</Time>
            <Position>
              <LatitudeDegrees>43.35993857122957706451416015625</LatitudeDegrees>
              <LongitudeDegrees>-4.04615228064358234405517578125</LongitudeDegrees>
            </Position>
            <AltitudeMeters>26.6000003814697265625</AltitudeMeters>
            <DistanceMeters>NAN</DistanceMeters>
          </Trackpoint>
          <Trackpoint>
            <Time>2022-07-14T10:09:12.000Z</Time>
            <Position>
              <LatitudeDegrees>43.35966314189136028289794921875</LatitudeDegrees>
              <LongitudeDegrees>-4.04616921208798885345458984375</LongitudeDegrees>
            </Position>
            <AltitudeMeters>27</AltitudeMeters>
            <DistanceMeters>NAN</DistanceMeters>
          </Trackpoint>
          <Trackpoint>
            <Time>2022-07-14T10:09:16.000Z</Time>
            <Position>
              <LatitudeDegrees>43.3595088310539722442626953125</LatitudeDegrees>
              <LongitudeDegrees>-4.0462021529674530029296875</LongitudeDegrees>
            </Position>
            <AltitudeMeters>27</AltitudeMeters>
            <DistanceMeters>NAN</DistanceMeters>
          </Trackpoint>
          <Trackpoint>
            <Time>2022-07-14T10:09:18.000Z</Time>
            <Position>
              <LatitudeDegrees>43.359431214630603790283203125</LatitudeDegrees>
              <LongitudeDegrees>-4.04621564783155918121337890625</LongitudeDegrees>
            </Position>
            <AltitudeMeters>27.200000762939453125</AltitudeMeters>
            <DistanceMeters>NAN</DistanceMeters>
          </Trackpoint>
          <Trackpoint>
            <Time>2022-07-14T10:09:21.000Z</Time>
            <Position>
              <LatitudeDegrees>43.35931847803294658660888671875</LatitudeDegrees>
              <LongitudeDegrees>-4.04624749906361103057861328125</LongitudeDegrees>
            </Position>
            <AltitudeMeters>27.200000762939453125</AltitudeMeters>
            <DistanceMeters>NAN</DistanceMeters>
          </Trackpoint>
          <Trackpoint>
            <Time>2022-07-14T10:09:26.000Z</Time>
            <Position>
              <LatitudeDegrees>43.35914991796016693115234375</LatitudeDegrees>
              <LongitudeDegrees>-4.04628588818013668060302734375</LongitudeDegrees>
            </Position>
            <AltitudeMeters>27.3999996185302734375</AltitudeMeters>
            <DistanceMeters>NAN</DistanceMeters>
          </Trackpoint>
          <Trackpoint>
            <Time>2022-07-14T10:09:30.000Z</Time>
            <Position>
              <LatitudeDegrees>43.35908093489706516265869140625</LatitudeDegrees>
              <LongitudeDegrees>-4.0462415479123592376708984375</LongitudeDegrees>
            </Position>
            <AltitudeMeters>27.200000762939453125</AltitudeMeters>
            <DistanceMeters>NAN</DistanceMeters>
          </Trackpoint>
          <Trackpoint>
            <Time>2022-07-14T10:09:32.000Z</Time>
            <Position>
              <LatitudeDegrees>43.359037600457668304443359375</LatitudeDegrees>
              <LongitudeDegrees>-4.0461979620158672332763671875</LongitudeDegrees>
            </Position>
            <AltitudeMeters>27.200000762939453125</AltitudeMeters>
            <DistanceMeters>NAN</DistanceMeters>
          </Trackpoint>
          <Trackpoint>
            <Time>2022-07-14T10:09:33.000Z</Time>
            <Position>
              <LatitudeDegrees>43.35899141617119312286376953125</LatitudeDegrees>
              <LongitudeDegrees>-4.04620240442454814910888671875</LongitudeDegrees>
            </Position>
            <AltitudeMeters>27.200000762939453125</AltitudeMeters>
            <DistanceMeters>NAN</DistanceMeters>
          </Trackpoint>
          <Trackpoint>
            <Time>2022-07-14T10:09:35.000Z</Time>
            <Position>
              <LatitudeDegrees>43.358898796141147613525390625</LatitudeDegrees>
              <LongitudeDegrees>-4.04619268141686916351318359375</LongitudeDegrees>
            </Position>
            <AltitudeMeters>27.200000762939453125</AltitudeMeters>
            <DistanceMeters>NAN</DistanceMeters>
          </Trackpoint>
          <Trackpoint>
            <Time>2022-07-14T10:09:39.000Z</Time>
            <Position>
              <LatitudeDegrees>43.35864909924566745758056640625</LatitudeDegrees>
              <LongitudeDegrees>-4.0462606586515903472900390625</LongitudeDegrees>
            </Position>
            <AltitudeMeters>27.3999996185302734375</AltitudeMeters>
            <DistanceMeters>NAN</DistanceMeters>
          </Trackpoint>
          <Trackpoint>
            <Time>2022-07-14T10:09:42.000Z</Time>
            <Position>
              <LatitudeDegrees>43.35850224830210208892822265625</LatitudeDegrees>
              <LongitudeDegrees>-4.046270214021205902099609375</LongitudeDegrees>
            </Position>
            <AltitudeMeters>27.6000003814697265625</AltitudeMeters>
            <DistanceMeters>NAN</DistanceMeters>
          </Trackpoint>
          <Trackpoint>
            <Time>2022-07-14T10:09:48.000Z</Time>
            <Position>
              <LatitudeDegrees>43.358232267200946807861328125</LatitudeDegrees>
              <LongitudeDegrees>-4.0463397838175296783447265625</LongitudeDegrees>
            </Position>
            <AltitudeMeters>27.799999237060546875</AltitudeMeters>
            <DistanceMeters>NAN</DistanceMeters>
          </Trackpoint>
          <Trackpoint>
            <Time>2022-07-14T10:09:54.000Z</Time>
            <Position>
              <LatitudeDegrees>43.35803185589611530303955078125</LatitudeDegrees>
              <LongitudeDegrees>-4.046388901770114898681640625</LongitudeDegrees>
            </Position>
            <AltitudeMeters>28.200000762939453125</AltitudeMeters>
            <DistanceMeters>NAN</DistanceMeters>
          </Trackpoint>
          <Trackpoint>
            <Time>2022-07-14T10:10:02.000Z</Time>
            <Position>
              <LatitudeDegrees>43.3577576838433742523193359375</LatitudeDegrees>
              <LongitudeDegrees>-4.0464202500879764556884765625</LongitudeDegrees>
            </Position>
            <AltitudeMeters>28.6000003814697265625</AltitudeMeters>
            <DistanceMeters>NAN</DistanceMeters>
          </Trackpoint>
          <Trackpoint>
            <Time>2022-07-14T10:10:03.000Z</Time>
            <Position>
              <LatitudeDegrees>43.3577194623649120330810546875</LatitudeDegrees>
              <LongitudeDegrees>-4.04643843881785869598388671875</LongitudeDegrees>
            </Position>
            <AltitudeMeters>28.799999237060546875</AltitudeMeters>
            <DistanceMeters>NAN</DistanceMeters>
          </Trackpoint>
          <Trackpoint>
            <Time>2022-07-14T10:10:11.000Z</Time>
            <Position>
              <LatitudeDegrees>43.35747496224939823150634765625</LatitudeDegrees>
              <LongitudeDegrees>-4.04643055982887744903564453125</LongitudeDegrees>
            </Position>
            <AltitudeMeters>29.799999237060546875</AltitudeMeters>
            <DistanceMeters>NAN</DistanceMeters>
          </Trackpoint>
          <Trackpoint>
            <Time>2022-07-14T10:10:15.000Z</Time>
            <Position>
              <LatitudeDegrees>43.35738326422870159149169921875</LatitudeDegrees>
              <LongitudeDegrees>-4.04640910215675830841064453125</LongitudeDegrees>
            </Position>
            <AltitudeMeters>30.200000762939453125</AltitudeMeters>
            <DistanceMeters>NAN</DistanceMeters>
          </Trackpoint>
          <Trackpoint>
            <Time>2022-07-14T10:10:19.000Z</Time>
            <Position>
              <LatitudeDegrees>43.3572819270193576812744140625</LatitudeDegrees>
              <LongitudeDegrees>-4.046380855143070220947265625</LongitudeDegrees>
            </Position>
            <AltitudeMeters>30.6000003814697265625</AltitudeMeters>
            <DistanceMeters>NAN</DistanceMeters>
          </Trackpoint>
          <Trackpoint>
            <Time>2022-07-14T10:10:20.000Z</Time>
            <Position>
              <LatitudeDegrees>43.35725954733788967132568359375</LatitudeDegrees>
              <LongitudeDegrees>-4.04637674801051616668701171875</LongitudeDegrees>
            </Position>
            <AltitudeMeters>30.799999237060546875</AltitudeMeters>
            <DistanceMeters>NAN</DistanceMeters>
          </Trackpoint>
          <Trackpoint>
            <Time>2022-07-14T10:10:29.000Z</Time>
            <Position>
              <LatitudeDegrees>43.35704597644507884979248046875</LatitudeDegrees>
              <LongitudeDegrees>-4.0463253669440746307373046875</LongitudeDegrees>
            </Position>
            <AltitudeMeters>31.6000003814697265625</AltitudeMeters>
            <DistanceMeters>NAN</DistanceMeters>
          </Trackpoint>
          <Trackpoint>
            <Time>2022-07-14T10:10:31.000Z</Time>
            <Position>
              <LatitudeDegrees>43.3569969423115253448486328125</LatitudeDegrees>
              <LongitudeDegrees>-4.046329222619533538818359375</LongitudeDegrees>
            </Position>
            <AltitudeMeters>31.799999237060546875</AltitudeMeters>
            <DistanceMeters>NAN</DistanceMeters>
          </Trackpoint>
          <Trackpoint>
            <Time>2022-07-14T10:10:37.000Z</Time>
            <Position>
              <LatitudeDegrees>43.3568618260324001312255859375</LatitudeDegrees>
              <LongitudeDegrees>-4.04630801640450954437255859375</LongitudeDegrees>
            </Position>
            <AltitudeMeters>32</AltitudeMeters>
            <DistanceMeters>NAN</DistanceMeters>
          </Trackpoint>
          <Trackpoint>
            <Time>2022-07-14T10:10:42.000Z</Time>
            <Position>
              <LatitudeDegrees>43.3567857183516025543212890625</LatitudeDegrees>
              <LongitudeDegrees>-4.046374149620532989501953125</LongitudeDegrees>
            </Position>
            <AltitudeMeters>32.200000762939453125</AltitudeMeters>
            <DistanceMeters>NAN</DistanceMeters>
          </Trackpoint>
          <Trackpoint>
            <Time>2022-07-14T10:10:45.000Z</Time>
            <Position>
              <LatitudeDegrees>43.356750011444091796875</LatitudeDegrees>
              <LongitudeDegrees>-4.04641111381351947784423828125</LongitudeDegrees>
            </Position>
            <AltitudeMeters>32.200000762939453125</AltitudeMeters>
            <DistanceMeters>NAN</DistanceMeters>
          </Trackpoint>
          <Trackpoint>
            <Time>2022-07-14T10:10:47.000Z</Time>
            <Position>
              <LatitudeDegrees>43.35673458874225616455078125</LatitudeDegrees>
              <LongitudeDegrees>-4.0464376844465732574462890625</LongitudeDegrees>
            </Position>
            <AltitudeMeters>32.40000152587890625</AltitudeMeters>
            <DistanceMeters>NAN</DistanceMeters>
          </Trackpoint>
          <Trackpoint>
            <Time>2022-07-14T10:10:51.000Z</Time>
            <Position>
              <LatitudeDegrees>43.3567096106708049774169921875</LatitudeDegrees>
              <LongitudeDegrees>-4.0464792586863040924072265625</LongitudeDegrees>
            </Position>
            <AltitudeMeters>32.40000152587890625</AltitudeMeters>
            <DistanceMeters>NAN</DistanceMeters>
          </Trackpoint>
          <Trackpoint>
            <Time>2022-07-14T10:10:52.000Z</Time>
            <Position>
              <LatitudeDegrees>43.35671103559434413909912109375</LatitudeDegrees>
              <LongitudeDegrees>-4.04648504219949245452880859375</LongitudeDegrees>
            </Position>
            <AltitudeMeters>32.40000152587890625</AltitudeMeters>
            <DistanceMeters>NAN</DistanceMeters>
          </Trackpoint>
          <Trackpoint>
            <Time>2022-07-14T10:10:53.000Z</Time>
            <Position>
              <LatitudeDegrees>43.35671321488916873931884765625</LatitudeDegrees>
              <LongitudeDegrees>-4.04650348238646984100341796875</LongitudeDegrees>
            </Position>
            <AltitudeMeters>32.40000152587890625</AltitudeMeters>
            <DistanceMeters>NAN</DistanceMeters>
          </Trackpoint>
          <Trackpoint>
            <Time>2022-07-14T10:10:55.000Z</Time>
            <Position>
              <LatitudeDegrees>43.35671388544142246246337890625</LatitudeDegrees>
              <LongitudeDegrees>-4.04655410908162593841552734375</LongitudeDegrees>
            </Position>
            <AltitudeMeters>32.59999847412109375</AltitudeMeters>
            <DistanceMeters>NAN</DistanceMeters>
          </Trackpoint>
          <Trackpoint>
            <Time>2022-07-14T10:10:59.000Z</Time>
            <Position>
              <LatitudeDegrees>43.35669393651187419891357421875</LatitudeDegrees>
              <LongitudeDegrees>-4.04666374437510967254638671875</LongitudeDegrees>
            </Position>
            <AltitudeMeters>32.799999237060546875</AltitudeMeters>
            <DistanceMeters>NAN</DistanceMeters>
          </Trackpoint>
          <Trackpoint>
            <Time>2022-07-14T10:11:00.000Z</Time>
            <Position>
              <LatitudeDegrees>43.3566794358193874359130859375</LatitudeDegrees>
              <LongitudeDegrees>-4.0466795861721038818359375</LongitudeDegrees>
            </Position>
            <AltitudeMeters>33</AltitudeMeters>
            <DistanceMeters>NAN</DistanceMeters>
          </Trackpoint>
          <Trackpoint>
            <Time>2022-07-14T10:11:02.000Z</Time>
            <Position>
              <LatitudeDegrees>43.356658481061458587646484375</LatitudeDegrees>
              <LongitudeDegrees>-4.04667346738278865814208984375</LongitudeDegrees>
            </Position>
            <AltitudeMeters>33</AltitudeMeters>
            <DistanceMeters>NAN</DistanceMeters>
          </Trackpoint>
          <Trackpoint>
            <Time>2022-07-14T10:11:04.000Z</Time>
            <Position>
              <LatitudeDegrees>43.3566462434828281402587890625</LatitudeDegrees>
              <LongitudeDegrees>-4.04662795364856719970703125</LongitudeDegrees>
            </Position>
            <AltitudeMeters>32.799999237060546875</AltitudeMeters>
            <DistanceMeters>NAN</DistanceMeters>
          </Trackpoint>
          <Trackpoint>
            <Time>2022-07-14T10:11:06.000Z</Time>
            <Position>
              <LatitudeDegrees>43.35662570782005786895751953125</LatitudeDegrees>
              <LongitudeDegrees>-4.04657162725925445556640625</LongitudeDegrees>
            </Position>
            <AltitudeMeters>32.799999237060546875</AltitudeMeters>
            <DistanceMeters>NAN</DistanceMeters>
          </Trackpoint>
          <Trackpoint>
            <Time>2022-07-14T10:11:07.000Z</Time>
            <Position>
              <LatitudeDegrees>43.35661028511822223663330078125</LatitudeDegrees>
              <LongitudeDegrees>-4.04655645601451396942138671875</LongitudeDegrees>
            </Position>
            <AltitudeMeters>32.59999847412109375</AltitudeMeters>
            <DistanceMeters>NAN</DistanceMeters>
          </Trackpoint>
          <Trackpoint>
            <Time>2022-07-14T10:11:08.000Z</Time>
            <Position>
              <LatitudeDegrees>43.35659402422606945037841796875</LatitudeDegrees>
              <LongitudeDegrees>-4.04655310325324535369873046875</LongitudeDegrees>
            </Position>
            <AltitudeMeters>32.59999847412109375</AltitudeMeters>
            <DistanceMeters>NAN</DistanceMeters>
          </Trackpoint>
          <Trackpoint>
            <Time>2022-07-14T10:11:13.000Z</Time>
            <Position>
              <LatitudeDegrees>43.356481455266475677490234375</LatitudeDegrees>
              <LongitudeDegrees>-4.0465714596211910247802734375</LongitudeDegrees>
            </Position>
            <AltitudeMeters>31.799999237060546875</AltitudeMeters>
            <DistanceMeters>NAN</DistanceMeters>
          </Trackpoint>
          <Trackpoint>
            <Time>2022-07-14T10:11:14.000Z</Time>
            <Position>
              <LatitudeDegrees>43.35646444000303745269775390625</LatitudeDegrees>
              <LongitudeDegrees>-4.0465952642261981964111328125</LongitudeDegrees>
            </Position>
            <AltitudeMeters>31.799999237060546875</AltitudeMeters>
            <DistanceMeters>NAN</DistanceMeters>
          </Trackpoint>
          <Trackpoint>
            <Time>2022-07-14T10:11:18.000Z</Time>
            <Position>
              <LatitudeDegrees>43.3564053475856781005859375</LatitudeDegrees>
              <LongitudeDegrees>-4.046657122671604156494140625</LongitudeDegrees>
            </Position>
            <AltitudeMeters>31.200000762939453125</AltitudeMeters>
            <DistanceMeters>NAN</DistanceMeters>
          </Trackpoint>
          <Trackpoint>
            <Time>2022-07-14T10:11:23.000Z</Time>
            <Position>
              <LatitudeDegrees>43.35630551911890506744384765625</LatitudeDegrees>
              <LongitudeDegrees>-4.04657271690666675567626953125</LongitudeDegrees>
            </Position>
            <AltitudeMeters>30.799999237060546875</AltitudeMeters>
            <DistanceMeters>NAN</DistanceMeters>
          </Trackpoint>
          <Trackpoint>
            <Time>2022-07-14T10:11:25.000Z</Time>
            <Position>
              <LatitudeDegrees>43.356254138052463531494140625</LatitudeDegrees>
              <LongitudeDegrees>-4.0465603955090045928955078125</LongitudeDegrees>
            </Position>
            <AltitudeMeters>30.6000003814697265625</AltitudeMeters>
            <DistanceMeters>NAN</DistanceMeters>
          </Trackpoint>
          <Trackpoint>
            <Time>2022-07-14T10:11:29.000Z</Time>
            <Position>
              <LatitudeDegrees>43.35611927323043346405029296875</LatitudeDegrees>
              <LongitudeDegrees>-4.0465463139116764068603515625</LongitudeDegrees>
            </Position>
            <AltitudeMeters>30.3999996185302734375</AltitudeMeters>
            <DistanceMeters>NAN</DistanceMeters>
          </Trackpoint>
          <Trackpoint>
            <Time>2022-07-14T10:11:38.000Z</Time>
            <Position>
              <LatitudeDegrees>43.35582691244781017303466796875</LatitudeDegrees>
              <LongitudeDegrees>-4.0465204976499080657958984375</LongitudeDegrees>
            </Position>
            <AltitudeMeters>30.200000762939453125</AltitudeMeters>
            <DistanceMeters>NAN</DistanceMeters>
          </Trackpoint>
          <Trackpoint>
            <Time>2022-07-14T10:11:43.000Z</Time>
            <Position>
              <LatitudeDegrees>43.35571576841175556182861328125</LatitudeDegrees>
              <LongitudeDegrees>-4.04653541743755340576171875</LongitudeDegrees>
            </Position>
            <AltitudeMeters>30</AltitudeMeters>
            <DistanceMeters>NAN</DistanceMeters>
          </Trackpoint>
          <Trackpoint>
            <Time>2022-07-14T10:11:48.000Z</Time>
            <Position>
              <LatitudeDegrees>43.3556099049746990203857421875</LatitudeDegrees>
              <LongitudeDegrees>-4.04654270969331264495849609375</LongitudeDegrees>
            </Position>
            <AltitudeMeters>30</AltitudeMeters>
            <DistanceMeters>NAN</DistanceMeters>
          </Trackpoint>
          <Trackpoint>
            <Time>2022-07-14T10:11:49.000Z</Time>
            <Position>
              <LatitudeDegrees>43.3555850945413112640380859375</LatitudeDegrees>
              <LongitudeDegrees>-4.04654338024556636810302734375</LongitudeDegrees>
            </Position>
            <AltitudeMeters>30</AltitudeMeters>
            <DistanceMeters>NAN</DistanceMeters>
          </Trackpoint>
          <Trackpoint>
            <Time>2022-07-14T10:11:51.000Z</Time>
            <Position>
              <LatitudeDegrees>43.35553430020809173583984375</LatitudeDegrees>
              <LongitudeDegrees>-4.04654589481651782989501953125</LongitudeDegrees>
            </Position>
            <AltitudeMeters>30</AltitudeMeters>
            <DistanceMeters>NAN</DistanceMeters>
          </Trackpoint>
          <Trackpoint>
            <Time>2022-07-14T10:11:53.000Z</Time>
            <Position>
              <LatitudeDegrees>43.3554583601653575897216796875</LatitudeDegrees>
              <LongitudeDegrees>-4.04654790647327899932861328125</LongitudeDegrees>
            </Position>
            <AltitudeMeters>30.200000762939453125</AltitudeMeters>
            <DistanceMeters>NAN</DistanceMeters>
          </Trackpoint>
          <Trackpoint>
            <Time>2022-07-14T10:11:54.000Z</Time>
            <Position>
              <LatitudeDegrees>43.35541686974465847015380859375</LatitudeDegrees>
              <LongitudeDegrees>-4.04656047932803630828857421875</LongitudeDegrees>
            </Position>
            <AltitudeMeters>30.200000762939453125</AltitudeMeters>
            <DistanceMeters>NAN</DistanceMeters>
          </Trackpoint>
          <Trackpoint>
            <Time>2022-07-14T10:12:00.000Z</Time>
            <Position>
              <LatitudeDegrees>43.35517865605652332305908203125</LatitudeDegrees>
              <LongitudeDegrees>-4.04661378823220729827880859375</LongitudeDegrees>
            </Position>
            <AltitudeMeters>30.3999996185302734375</AltitudeMeters>
            <DistanceMeters>NAN</DistanceMeters>
          </Trackpoint>
          <Trackpoint>
            <Time>2022-07-14T10:12:06.000Z</Time>
            <Position>
              <LatitudeDegrees>43.35499995388090610504150390625</LatitudeDegrees>
              <LongitudeDegrees>-4.046666510403156280517578125</LongitudeDegrees>
            </Position>
            <AltitudeMeters>30.3999996185302734375</AltitudeMeters>
            <DistanceMeters>NAN</DistanceMeters>
          </Trackpoint>
          <Trackpoint>
            <Time>2022-07-14T10:12:10.000Z</Time>
            <Position>
              <LatitudeDegrees>43.35483600385487079620361328125</LatitudeDegrees>
              <LongitudeDegrees>-4.0467132814228534698486328125</LongitudeDegrees>
            </Position>
            <AltitudeMeters>30.6000003814697265625</AltitudeMeters>
            <DistanceMeters>NAN</DistanceMeters>
          </Trackpoint>
          <Trackpoint>
            <Time>2022-07-14T10:12:13.000Z</Time>
            <Position>
              <LatitudeDegrees>43.35471882484853267669677734375</LatitudeDegrees>
              <LongitudeDegrees>-4.0467788279056549072265625</LongitudeDegrees>
            </Position>
            <AltitudeMeters>30.799999237060546875</AltitudeMeters>
            <DistanceMeters>NAN</DistanceMeters>
          </Trackpoint>
          <Trackpoint>
            <Time>2022-07-14T10:12:22.000Z</Time>
            <Position>
              <LatitudeDegrees>43.35445127449929714202880859375</LatitudeDegrees>
              <LongitudeDegrees>-4.04699684120714664459228515625</LongitudeDegrees>
            </Position>
            <AltitudeMeters>30.6000003814697265625</AltitudeMeters>
            <DistanceMeters>NAN</DistanceMeters>
          </Trackpoint>
          <Trackpoint>
            <Time>2022-07-14T10:12:26.000Z</Time>
            <Position>
              <LatitudeDegrees>43.354389667510986328125</LatitudeDegrees>
              <LongitudeDegrees>-4.04707462526857852935791015625</LongitudeDegrees>
            </Position>
            <AltitudeMeters>29.6000003814697265625</AltitudeMeters>
            <DistanceMeters>NAN</DistanceMeters>
          </Trackpoint>
          <Trackpoint>
            <Time>2022-07-14T10:12:29.000Z</Time>
            <Position>
              <LatitudeDegrees>43.35427022539079189300537109375</LatitudeDegrees>
              <LongitudeDegrees>-4.04718182981014251708984375</LongitudeDegrees>
            </Position>
            <AltitudeMeters>29</AltitudeMeters>
            <DistanceMeters>NAN</DistanceMeters>
          </Trackpoint>
          <Trackpoint>
            <Time>2022-07-14T10:12:31.000Z</Time>
            <Position>
              <LatitudeDegrees>43.35412622429430484771728515625</LatitudeDegrees>
              <LongitudeDegrees>-4.047251231968402862548828125</LongitudeDegrees>
            </Position>
            <AltitudeMeters>29</AltitudeMeters>
            <DistanceMeters>NAN</DistanceMeters>
          </Trackpoint>
          <Trackpoint>
            <Time>2022-07-14T10:12:33.000Z</Time>
            <Position>
              <LatitudeDegrees>43.353987671434879302978515625</LatitudeDegrees>
              <LongitudeDegrees>-4.04732038266956806182861328125</LongitudeDegrees>
            </Position>
            <AltitudeMeters>29</AltitudeMeters>
            <DistanceMeters>NAN</DistanceMeters>
          </Trackpoint>
          <Trackpoint>
            <Time>2022-07-14T10:12:34.000Z</Time>
            <Position>
              <LatitudeDegrees>43.35397853516042232513427734375</LatitudeDegrees>
              <LongitudeDegrees>-4.04735843650996685028076171875</LongitudeDegrees>
            </Position>
            <AltitudeMeters>29.200000762939453125</AltitudeMeters>
            <DistanceMeters>NAN</DistanceMeters>
          </Trackpoint>
          <Trackpoint>
            <Time>2022-07-14T10:12:35.000Z</Time>
            <Position>
              <LatitudeDegrees>43.35392254404723644256591796875</LatitudeDegrees>
              <LongitudeDegrees>-4.04737235046923160552978515625</LongitudeDegrees>
            </Position>
            <AltitudeMeters>29.200000762939453125</AltitudeMeters>
            <DistanceMeters>NAN</DistanceMeters>
          </Trackpoint>
          <Trackpoint>
            <Time>2022-07-14T10:12:38.000Z</Time>
            <Position>
              <LatitudeDegrees>43.3538170158863067626953125</LatitudeDegrees>
              <LongitudeDegrees>-4.0474703349173069000244140625</LongitudeDegrees>
            </Position>
            <AltitudeMeters>29.200000762939453125</AltitudeMeters>
            <DistanceMeters>NAN</DistanceMeters>
          </Trackpoint>
          <Trackpoint>
            <Time>2022-07-14T10:12:41.000Z</Time>
            <Position>
              <LatitudeDegrees>43.353498168289661407470703125</LatitudeDegrees>
              <LongitudeDegrees>-4.04780787415802478790283203125</LongitudeDegrees>
            </Position>
            <AltitudeMeters>29</AltitudeMeters>
            <DistanceMeters>NAN</DistanceMeters>
          </Trackpoint>
          <Trackpoint>
            <Time>2022-07-14T10:12:44.000Z</Time>
            <Position>
              <LatitudeDegrees>43.35337503813207149505615234375</LatitudeDegrees>
              <LongitudeDegrees>-4.04801063239574432373046875</LongitudeDegrees>
            </Position>
            <AltitudeMeters>28.799999237060546875</AltitudeMeters>
            <DistanceMeters>NAN</DistanceMeters>
          </Trackpoint>
          <Trackpoint>
            <Time>2022-07-14T10:12:46.000Z</Time>
            <Position>
              <LatitudeDegrees>43.3533327095210552215576171875</LatitudeDegrees>
              <LongitudeDegrees>-4.04808749444782733917236328125</LongitudeDegrees>
            </Position>
            <AltitudeMeters>28.3999996185302734375</AltitudeMeters>
            <DistanceMeters>NAN</DistanceMeters>
          </Trackpoint>
          <Trackpoint>
            <Time>2022-07-14T10:12:47.000Z</Time>
            <Position>
              <LatitudeDegrees>43.35334159433841705322265625</LatitudeDegrees>
              <LongitudeDegrees>-4.04811389744281768798828125</LongitudeDegrees>
            </Position>
            <AltitudeMeters>28.3999996185302734375</AltitudeMeters>
            <DistanceMeters>NAN</DistanceMeters>
          </Trackpoint>
          <Trackpoint>
            <Time>2022-07-14T10:12:49.000Z</Time>
            <Position>
              <LatitudeDegrees>43.35332223214209079742431640625</LatitudeDegrees>
              <LongitudeDegrees>-4.048181287944316864013671875</LongitudeDegrees>
            </Position>
            <AltitudeMeters>28.3999996185302734375</AltitudeMeters>
            <DistanceMeters>NAN</DistanceMeters>
          </Trackpoint>
          <Trackpoint>
            <Time>2022-07-14T10:12:50.000Z</Time>
            <Position>
              <LatitudeDegrees>43.353301696479320526123046875</LatitudeDegrees>
              <LongitudeDegrees>-4.04820299707353115081787109375</LongitudeDegrees>
            </Position>
            <AltitudeMeters>28.3999996185302734375</AltitudeMeters>
            <DistanceMeters>NAN</DistanceMeters>
          </Trackpoint>
          <Trackpoint>
            <Time>2022-07-14T10:12:52.000Z</Time>
            <Position>
              <LatitudeDegrees>43.35325601510703563690185546875</LatitudeDegrees>
              <LongitudeDegrees>-4.0482448227703571319580078125</LongitudeDegrees>
            </Position>
            <AltitudeMeters>28.200000762939453125</AltitudeMeters>
            <DistanceMeters>NAN</DistanceMeters>
          </Trackpoint>
          <Trackpoint>
            <Time>2022-07-14T10:12:56.000Z</Time>
            <Position>
              <LatitudeDegrees>43.35308837704360485076904296875</LatitudeDegrees>
              <LongitudeDegrees>-4.0483212657272815704345703125</LongitudeDegrees>
            </Position>
            <AltitudeMeters>28.3999996185302734375</AltitudeMeters>
            <DistanceMeters>NAN</DistanceMeters>
          </Trackpoint>
          <Trackpoint>
            <Time>2022-07-14T10:12:57.000Z</Time>
            <Position>
              <LatitudeDegrees>43.35310958325862884521484375</LatitudeDegrees>
              <LongitudeDegrees>-4.04837884940207004547119140625</LongitudeDegrees>
            </Position>
            <AltitudeMeters>28.3999996185302734375</AltitudeMeters>
            <DistanceMeters>NAN</DistanceMeters>
          </Trackpoint>
          <Trackpoint>
            <Time>2022-07-14T10:12:58.000Z</Time>
            <Position>
              <LatitudeDegrees>43.35312056355178356170654296875</LatitudeDegrees>
              <LongitudeDegrees>-4.0484292246401309967041015625</LongitudeDegrees>
            </Position>
            <AltitudeMeters>28.3999996185302734375</AltitudeMeters>
            <DistanceMeters>NAN</DistanceMeters>
          </Trackpoint>
          <Trackpoint>
            <Time>2022-07-14T10:12:59.000Z</Time>
            <Position>
              <LatitudeDegrees>43.353107236325740814208984375</LatitudeDegrees>
              <LongitudeDegrees>-4.04844037257134914398193359375</LongitudeDegrees>
            </Position>
            <AltitudeMeters>28.3999996185302734375</AltitudeMeters>
            <DistanceMeters>NAN</DistanceMeters>
          </Trackpoint>
          <Trackpoint>
            <Time>2022-07-14T10:13:00.000Z</Time>
            <Position>
              <LatitudeDegrees>43.35308812558650970458984375</LatitudeDegrees>
              <LongitudeDegrees>-4.0484552085399627685546875</LongitudeDegrees>
            </Position>
            <AltitudeMeters>28.6000003814697265625</AltitudeMeters>
            <DistanceMeters>NAN</DistanceMeters>
          </Trackpoint>
          <Trackpoint>
            <Time>2022-07-14T10:13:02.000Z</Time>
            <Position>
              <LatitudeDegrees>43.3530500717461109161376953125</LatitudeDegrees>
              <LongitudeDegrees>-4.048472307622432708740234375</LongitudeDegrees>
            </Position>
            <AltitudeMeters>28.6000003814697265625</AltitudeMeters>
            <DistanceMeters>NAN</DistanceMeters>
          </Trackpoint>
          <Trackpoint>
            <Time>2022-07-14T10:13:04.000Z</Time>
            <Position>
              <LatitudeDegrees>43.3530095033347606658935546875</LatitudeDegrees>
              <LongitudeDegrees>-4.04848194681107997894287109375</LongitudeDegrees>
            </Position>
            <AltitudeMeters>28.799999237060546875</AltitudeMeters>
            <DistanceMeters>NAN</DistanceMeters>
          </Trackpoint>
          <Trackpoint>
            <Time>2022-07-14T10:13:06.000Z</Time>
            <Position>
              <LatitudeDegrees>43.3529444597661495208740234375</LatitudeDegrees>
              <LongitudeDegrees>-4.04852159321308135986328125</LongitudeDegrees>
            </Position>
            <AltitudeMeters>28.799999237060546875</AltitudeMeters>
            <DistanceMeters>NAN</DistanceMeters>
          </Trackpoint>
          <Trackpoint>
            <Time>2022-07-14T10:13:07.000Z</Time>
            <Position>
              <LatitudeDegrees>43.35290699265897274017333984375</LatitudeDegrees>
              <LongitudeDegrees>-4.04855218715965747833251953125</LongitudeDegrees>
            </Position>
            <AltitudeMeters>28.799999237060546875</AltitudeMeters>
            <DistanceMeters>NAN</DistanceMeters>
          </Trackpoint>
          <Trackpoint>
            <Time>2022-07-14T10:13:09.000Z</Time>
            <Position>
              <LatitudeDegrees>43.35281915031373500823974609375</LatitudeDegrees>
              <LongitudeDegrees>-4.04861153103411197662353515625</LongitudeDegrees>
            </Position>
            <AltitudeMeters>28.799999237060546875</AltitudeMeters>
            <DistanceMeters>NAN</DistanceMeters>
          </Trackpoint>
          <Trackpoint>
            <Time>2022-07-14T10:13:11.000Z</Time>
            <Position>
              <LatitudeDegrees>43.35274991579353809356689453125</LatitudeDegrees>
              <LongitudeDegrees>-4.04867556877434253692626953125</LongitudeDegrees>
            </Position>
            <AltitudeMeters>28.799999237060546875</AltitudeMeters>
            <DistanceMeters>NAN</DistanceMeters>
          </Trackpoint>
          <Trackpoint>
            <Time>2022-07-14T10:13:12.000Z</Time>
            <Position>
              <LatitudeDegrees>43.352723009884357452392578125</LatitudeDegrees>
              <LongitudeDegrees>-4.04869803227484226226806640625</LongitudeDegrees>
            </Position>
            <AltitudeMeters>28.799999237060546875</AltitudeMeters>
            <DistanceMeters>NAN</DistanceMeters>
          </Trackpoint>
          <Trackpoint>
            <Time>2022-07-14T10:13:18.000Z</Time>
            <Position>
              <LatitudeDegrees>43.3525324054062366485595703125</LatitudeDegrees>
              <LongitudeDegrees>-4.04879115521907806396484375</LongitudeDegrees>
            </Position>
            <AltitudeMeters>29.200000762939453125</AltitudeMeters>
            <DistanceMeters>NAN</DistanceMeters>
          </Trackpoint>
          <Trackpoint>
            <Time>2022-07-14T10:13:21.000Z</Time>
            <Position>
              <LatitudeDegrees>43.35238982923328876495361328125</LatitudeDegrees>
              <LongitudeDegrees>-4.048856198787689208984375</LongitudeDegrees>
            </Position>
            <AltitudeMeters>29.3999996185302734375</AltitudeMeters>
            <DistanceMeters>NAN</DistanceMeters>
          </Trackpoint>
          <Trackpoint>
            <Time>2022-07-14T10:13:23.000Z</Time>
            <Position>
              <LatitudeDegrees>43.35229997523128986358642578125</LatitudeDegrees>
              <LongitudeDegrees>-4.04889970086514949798583984375</LongitudeDegrees>
            </Position>
            <AltitudeMeters>29.3999996185302734375</AltitudeMeters>
            <DistanceMeters>NAN</DistanceMeters>
          </Trackpoint>
          <Trackpoint>
            <Time>2022-07-14T10:13:27.000Z</Time>
            <Position>
              <LatitudeDegrees>43.3521116338670253753662109375</LatitudeDegrees>
              <LongitudeDegrees>-4.04894865117967128753662109375</LongitudeDegrees>
            </Position>
            <AltitudeMeters>29.6000003814697265625</AltitudeMeters>
            <DistanceMeters>NAN</DistanceMeters>
          </Trackpoint>
          <Trackpoint>
            <Time>2022-07-14T10:13:28.000Z</Time>
            <Position>
              <LatitudeDegrees>43.3520955406129360198974609375</LatitudeDegrees>
              <LongitudeDegrees>-4.04897061176598072052001953125</LongitudeDegrees>
            </Position>
            <AltitudeMeters>29.6000003814697265625</AltitudeMeters>
            <DistanceMeters>NAN</DistanceMeters>
          </Trackpoint>
          <Trackpoint>
            <Time>2022-07-14T10:13:29.000Z</Time>
            <Position>
              <LatitudeDegrees>43.35207886062562465667724609375</LatitudeDegrees>
              <LongitudeDegrees>-4.0489901416003704071044921875</LongitudeDegrees>
            </Position>
            <AltitudeMeters>29.799999237060546875</AltitudeMeters>
            <DistanceMeters>NAN</DistanceMeters>
          </Trackpoint>
          <Trackpoint>
            <Time>2022-07-14T10:13:30.000Z</Time>
            <Position>
              <LatitudeDegrees>43.352053128182888031005859375</LatitudeDegrees>
              <LongitudeDegrees>-4.04902224428951740264892578125</LongitudeDegrees>
            </Position>
            <AltitudeMeters>29.799999237060546875</AltitudeMeters>
            <DistanceMeters>NAN</DistanceMeters>
          </Trackpoint>
          <Trackpoint>
            <Time>2022-07-14T10:13:34.000Z</Time>
            <Position>
              <LatitudeDegrees>43.35201180540025234222412109375</LatitudeDegrees>
              <LongitudeDegrees>-4.0490535087883472442626953125</LongitudeDegrees>
            </Position>
            <AltitudeMeters>29.799999237060546875</AltitudeMeters>
            <DistanceMeters>NAN</DistanceMeters>
          </Trackpoint>
          <Trackpoint>
            <Time>2022-07-14T10:13:35.000Z</Time>
            <Position>
              <LatitudeDegrees>43.35201163776218891143798828125</LatitudeDegrees>
              <LongitudeDegrees>-4.04905736446380615234375</LongitudeDegrees>
            </Position>
            <AltitudeMeters>29.799999237060546875</AltitudeMeters>
            <DistanceMeters>NAN</DistanceMeters>
          </Trackpoint>
          <Trackpoint>
            <Time>2022-07-14T10:13:39.000Z</Time>
            <Position>
              <LatitudeDegrees>43.35199336521327495574951171875</LatitudeDegrees>
              <LongitudeDegrees>-4.0489810891449451446533203125</LongitudeDegrees>
            </Position>
            <AltitudeMeters>30</AltitudeMeters>
            <DistanceMeters>NAN</DistanceMeters>
          </Trackpoint>
          <Trackpoint>
            <Time>2022-07-14T10:13:40.000Z</Time>
            <Position>
              <LatitudeDegrees>43.35198976099491119384765625</LatitudeDegrees>
              <LongitudeDegrees>-4.048974215984344482421875</LongitudeDegrees>
            </Position>
            <AltitudeMeters>30</AltitudeMeters>
            <DistanceMeters>NAN</DistanceMeters>
          </Trackpoint>
          <Trackpoint>
            <Time>2022-07-14T10:13:42.000Z</Time>
            <Position>
              <LatitudeDegrees>43.35199453867971897125244140625</LatitudeDegrees>
              <LongitudeDegrees>-4.04894580133259296417236328125</LongitudeDegrees>
            </Position>
            <AltitudeMeters>30.200000762939453125</AltitudeMeters>
            <DistanceMeters>NAN</DistanceMeters>
          </Trackpoint>
          <Trackpoint>
            <Time>2022-07-14T10:13:44.000Z</Time>
            <Position>
              <LatitudeDegrees>43.35198950953781604766845703125</LatitudeDegrees>
              <LongitudeDegrees>-4.0488888882100582122802734375</LongitudeDegrees>
            </Position>
            <AltitudeMeters>30.3999996185302734375</AltitudeMeters>
            <DistanceMeters>NAN</DistanceMeters>
          </Trackpoint>
          <Trackpoint>
            <Time>2022-07-14T10:13:45.000Z</Time>
            <Position>
              <LatitudeDegrees>43.35198171436786651611328125</LatitudeDegrees>
              <LongitudeDegrees>-4.04886516742408275604248046875</LongitudeDegrees>
            </Position>
            <AltitudeMeters>30.6000003814697265625</AltitudeMeters>
            <DistanceMeters>NAN</DistanceMeters>
          </Trackpoint>
          <Trackpoint>
            <Time>2022-07-14T10:13:49.000Z</Time>
            <Position>
              <LatitudeDegrees>43.35198431275784969329833984375</LatitudeDegrees>
              <LongitudeDegrees>-4.048753939568996429443359375</LongitudeDegrees>
            </Position>
            <AltitudeMeters>30.799999237060546875</AltitudeMeters>
            <DistanceMeters>NAN</DistanceMeters>
          </Trackpoint>
          <Trackpoint>
            <Time>2022-07-14T10:13:50.000Z</Time>
            <Position>
              <LatitudeDegrees>43.35199437104165554046630859375</LatitudeDegrees>
              <LongitudeDegrees>-4.0487292967736721038818359375</LongitudeDegrees>
            </Position>
            <AltitudeMeters>30.799999237060546875</AltitudeMeters>
            <DistanceMeters>NAN</DistanceMeters>
          </Trackpoint>
          <Trackpoint>
            <Time>2022-07-14T10:13:51.000Z</Time>
            <Position>
              <LatitudeDegrees>43.351999484002590179443359375</LatitudeDegrees>
              <LongitudeDegrees>-4.04870188795030117034912109375</LongitudeDegrees>
            </Position>
            <AltitudeMeters>30.799999237060546875</AltitudeMeters>
            <DistanceMeters>NAN</DistanceMeters>
          </Trackpoint>
          <Trackpoint>
            <Time>2022-07-14T10:13:53.000Z</Time>
            <Position>
              <LatitudeDegrees>43.3519996516406536102294921875</LatitudeDegrees>
              <LongitudeDegrees>-4.04863961040973663330078125</LongitudeDegrees>
            </Position>
            <AltitudeMeters>31</AltitudeMeters>
            <DistanceMeters>NAN</DistanceMeters>
          </Trackpoint>
          <Trackpoint>
            <Time>2022-07-14T10:13:55.000Z</Time>
            <Position>
              <LatitudeDegrees>43.3519973047077655792236328125</LatitudeDegrees>
              <LongitudeDegrees>-4.04858789406716823577880859375</LongitudeDegrees>
            </Position>
            <AltitudeMeters>31.200000762939453125</AltitudeMeters>
            <DistanceMeters>NAN</DistanceMeters>
          </Trackpoint>
          <Trackpoint>
            <Time>2022-07-14T10:13:59.000Z</Time>
            <Position>
              <LatitudeDegrees>43.3519879169762134552001953125</LatitudeDegrees>
              <LongitudeDegrees>-4.04848295263946056365966796875</LongitudeDegrees>
            </Position>
            <AltitudeMeters>31.3999996185302734375</AltitudeMeters>
            <DistanceMeters>NAN</DistanceMeters>
          </Trackpoint>
          <Trackpoint>
            <Time>2022-07-14T10:14:00.000Z</Time>
            <Position>
              <LatitudeDegrees>43.35196520201861858367919921875</LatitudeDegrees>
              <LongitudeDegrees>-4.0484511852264404296875</LongitudeDegrees>
            </Position>
            <AltitudeMeters>31.6000003814697265625</AltitudeMeters>
            <DistanceMeters>NAN</DistanceMeters>
          </Trackpoint>
          <Trackpoint>
            <Time>2022-07-14T10:14:01.000Z</Time>
            <Position>
              <LatitudeDegrees>43.3519543893635272979736328125</LatitudeDegrees>
              <LongitudeDegrees>-4.04841723851859569549560546875</LongitudeDegrees>
            </Position>
            <AltitudeMeters>31.6000003814697265625</AltitudeMeters>
            <DistanceMeters>NAN</DistanceMeters>
          </Trackpoint>
          <Trackpoint>
            <Time>2022-07-14T10:14:07.000Z</Time>
            <Position>
              <LatitudeDegrees>43.35193251259624958038330078125</LatitudeDegrees>
              <LongitudeDegrees>-4.04826703481376171112060546875</LongitudeDegrees>
            </Position>
            <AltitudeMeters>31.799999237060546875</AltitudeMeters>
            <DistanceMeters>NAN</DistanceMeters>
          </Trackpoint>
          <Trackpoint>
            <Time>2022-07-14T10:14:09.000Z</Time>
            <Position>
              <LatitudeDegrees>43.351917006075382232666015625</LatitudeDegrees>
              <LongitudeDegrees>-4.0481982193887233734130859375</LongitudeDegrees>
            </Position>
            <AltitudeMeters>32</AltitudeMeters>
            <DistanceMeters>NAN</DistanceMeters>
          </Trackpoint>
          <Trackpoint>
            <Time>2022-07-14T10:14:16.000Z</Time>
            <Position>
              <LatitudeDegrees>43.35187266580760478973388671875</LatitudeDegrees>
              <LongitudeDegrees>-4.04796511866152286529541015625</LongitudeDegrees>
            </Position>
            <AltitudeMeters>32.200000762939453125</AltitudeMeters>
            <DistanceMeters>NAN</DistanceMeters>
          </Trackpoint>
          <Trackpoint>
            <Time>2022-07-14T10:14:23.000Z</Time>
            <Position>
              <LatitudeDegrees>43.3518712408840656280517578125</LatitudeDegrees>
              <LongitudeDegrees>-4.04775171540677547454833984375</LongitudeDegrees>
            </Position>
            <AltitudeMeters>32.59999847412109375</AltitudeMeters>
            <DistanceMeters>NAN</DistanceMeters>
          </Trackpoint>
          <Trackpoint>
            <Time>2022-07-14T10:14:24.000Z</Time>
            <Position>
              <LatitudeDegrees>43.3518652059137821197509765625</LatitudeDegrees>
              <LongitudeDegrees>-4.0477375499904155731201171875</LongitudeDegrees>
            </Position>
            <AltitudeMeters>32.59999847412109375</AltitudeMeters>
            <DistanceMeters>NAN</DistanceMeters>
          </Trackpoint>
          <Trackpoint>
            <Time>2022-07-14T10:14:25.000Z</Time>
            <Position>
              <LatitudeDegrees>43.35185690782964229583740234375</LatitudeDegrees>
              <LongitudeDegrees>-4.04771483503282070159912109375</LongitudeDegrees>
            </Position>
            <AltitudeMeters>32.59999847412109375</AltitudeMeters>
            <DistanceMeters>NAN</DistanceMeters>
          </Trackpoint>
          <Trackpoint>
            <Time>2022-07-14T10:14:27.000Z</Time>
            <Position>
              <LatitudeDegrees>43.35181868635118007659912109375</LatitudeDegrees>
              <LongitudeDegrees>-4.04767535626888275146484375</LongitudeDegrees>
            </Position>
            <AltitudeMeters>32.799999237060546875</AltitudeMeters>
            <DistanceMeters>NAN</DistanceMeters>
          </Trackpoint>
          <Trackpoint>
            <Time>2022-07-14T10:14:28.000Z</Time>
            <Position>
              <LatitudeDegrees>43.35179655812680721282958984375</LatitudeDegrees>
              <LongitudeDegrees>-4.04767191968858242034912109375</LongitudeDegrees>
            </Position>
            <AltitudeMeters>32.799999237060546875</AltitudeMeters>
            <DistanceMeters>NAN</DistanceMeters>
          </Trackpoint>
          <Trackpoint>
            <Time>2022-07-14T10:14:31.000Z</Time>
            <Position>
              <LatitudeDegrees>43.3517243899405002593994140625</LatitudeDegrees>
              <LongitudeDegrees>-4.0476510487496852874755859375</LongitudeDegrees>
            </Position>
            <AltitudeMeters>32.799999237060546875</AltitudeMeters>
            <DistanceMeters>NAN</DistanceMeters>
          </Trackpoint>
          <Trackpoint>
            <Time>2022-07-14T10:14:33.000Z</Time>
            <Position>
              <LatitudeDegrees>43.35168641991913318634033203125</LatitudeDegrees>
              <LongitudeDegrees>-4.04760754667222499847412109375</LongitudeDegrees>
            </Position>
            <AltitudeMeters>32.799999237060546875</AltitudeMeters>
            <DistanceMeters>NAN</DistanceMeters>
          </Trackpoint>
          <Trackpoint>
            <Time>2022-07-14T10:14:35.000Z</Time>
            <Position>
              <LatitudeDegrees>43.3516811393201351165771484375</LatitudeDegrees>
              <LongitudeDegrees>-4.04759229160845279693603515625</LongitudeDegrees>
            </Position>
            <AltitudeMeters>32.59999847412109375</AltitudeMeters>
            <DistanceMeters>NAN</DistanceMeters>
          </Trackpoint>
          <Trackpoint>
            <Time>2022-07-14T10:14:37.000Z</Time>
            <Position>
              <LatitudeDegrees>43.35168809629976749420166015625</LatitudeDegrees>
              <LongitudeDegrees>-4.04757150448858737945556640625</LongitudeDegrees>
            </Position>
            <AltitudeMeters>32.59999847412109375</AltitudeMeters>
            <DistanceMeters>NAN</DistanceMeters>
          </Trackpoint>
          <Trackpoint>
            <Time>2022-07-14T10:14:56.000Z</Time>
            <Position>
              <LatitudeDegrees>43.35168139077723026275634765625</LatitudeDegrees>
              <LongitudeDegrees>-4.04755759052932262420654296875</LongitudeDegrees>
            </Position>
            <AltitudeMeters>32</AltitudeMeters>
            <DistanceMeters>NAN</DistanceMeters>
          </Trackpoint>
          <Trackpoint>
            <Time>2022-07-14T10:14:57.000Z</Time>
            <Position>
              <LatitudeDegrees>43.3516658842563629150390625</LatitudeDegrees>
              <LongitudeDegrees>-4.04754468239843845367431640625</LongitudeDegrees>
            </Position>
            <AltitudeMeters>32</AltitudeMeters>
            <DistanceMeters>NAN</DistanceMeters>
          </Trackpoint>
          <Trackpoint>
            <Time>2022-07-14T10:14:59.000Z</Time>
            <Position>
              <LatitudeDegrees>43.3516583405435085296630859375</LatitudeDegrees>
              <LongitudeDegrees>-4.047537557780742645263671875</LongitudeDegrees>
            </Position>
            <AltitudeMeters>32.200000762939453125</AltitudeMeters>
            <DistanceMeters>NAN</DistanceMeters>
          </Trackpoint>
          <Trackpoint>
            <Time>2022-07-14T10:15:00.000Z</Time>
            <Position>
              <LatitudeDegrees>43.35165624506771564483642578125</LatitudeDegrees>
              <LongitudeDegrees>-4.0475397370755672454833984375</LongitudeDegrees>
            </Position>
            <AltitudeMeters>32.200000762939453125</AltitudeMeters>
            <DistanceMeters>NAN</DistanceMeters>
          </Trackpoint>
          <Trackpoint>
            <Time>2022-07-14T10:15:03.000Z</Time>
            <Position>
              <LatitudeDegrees>43.351648785173892974853515625</LatitudeDegrees>
              <LongitudeDegrees>-4.04754267074167728424072265625</LongitudeDegrees>
            </Position>
            <AltitudeMeters>32.200000762939453125</AltitudeMeters>
            <DistanceMeters>NAN</DistanceMeters>
          </Trackpoint>
          <Trackpoint>
            <Time>2022-07-14T10:15:05.000Z</Time>
            <Position>
              <LatitudeDegrees>43.35165222175419330596923828125</LatitudeDegrees>
              <LongitudeDegrees>-4.0476022660732269287109375</LongitudeDegrees>
            </Position>
            <AltitudeMeters>32.200000762939453125</AltitudeMeters>
            <DistanceMeters>NAN</DistanceMeters>
          </Trackpoint>
          <Trackpoint>
            <Time>2022-07-14T10:15:07.000Z</Time>
            <Position>
              <LatitudeDegrees>43.351647444069385528564453125</LatitudeDegrees>
              <LongitudeDegrees>-4.0477197803556919097900390625</LongitudeDegrees>
            </Position>
            <AltitudeMeters>32.200000762939453125</AltitudeMeters>
            <DistanceMeters>NAN</DistanceMeters>
          </Trackpoint>
          <Trackpoint>
            <Time>2022-07-14T10:15:09.000Z</Time>
            <Position>
              <LatitudeDegrees>43.35163176991045475006103515625</LatitudeDegrees>
              <LongitudeDegrees>-4.04782581143081188201904296875</LongitudeDegrees>
            </Position>
            <AltitudeMeters>32</AltitudeMeters>
            <DistanceMeters>NAN</DistanceMeters>
          </Trackpoint>
          <Trackpoint>
            <Time>2022-07-14T10:15:11.000Z</Time>
            <Position>
              <LatitudeDegrees>43.3516154251992702484130859375</LatitudeDegrees>
              <LongitudeDegrees>-4.0479330159723758697509765625</LongitudeDegrees>
            </Position>
            <AltitudeMeters>31.799999237060546875</AltitudeMeters>
            <DistanceMeters>NAN</DistanceMeters>
          </Trackpoint>
          <Trackpoint>
            <Time>2022-07-14T10:15:13.000Z</Time>
            <Position>
              <LatitudeDegrees>43.3516308479011058807373046875</LatitudeDegrees>
              <LongitudeDegrees>-4.0480367839336395263671875</LongitudeDegrees>
            </Position>
            <AltitudeMeters>31.6000003814697265625</AltitudeMeters>
            <DistanceMeters>NAN</DistanceMeters>
          </Trackpoint>
          <Trackpoint>
            <Time>2022-07-14T10:15:14.000Z</Time>
            <Position>
              <LatitudeDegrees>43.3516452647745609283447265625</LatitudeDegrees>
              <LongitudeDegrees>-4.04807928018271923065185546875</LongitudeDegrees>
            </Position>
            <AltitudeMeters>31.6000003814697265625</AltitudeMeters>
            <DistanceMeters>NAN</DistanceMeters>
          </Trackpoint>
          <Trackpoint>
            <Time>2022-07-14T10:15:15.000Z</Time>
            <Position>
              <LatitudeDegrees>43.35165171884000301361083984375</LatitudeDegrees>
              <LongitudeDegrees>-4.04812596738338470458984375</LongitudeDegrees>
            </Position>
            <AltitudeMeters>31.6000003814697265625</AltitudeMeters>
            <DistanceMeters>NAN</DistanceMeters>
          </Trackpoint>
          <Trackpoint>
            <Time>2022-07-14T10:15:20.000Z</Time>
            <Position>
              <LatitudeDegrees>43.3517119847238063812255859375</LatitudeDegrees>
              <LongitudeDegrees>-4.048305340111255645751953125</LongitudeDegrees>
            </Position>
            <AltitudeMeters>31.200000762939453125</AltitudeMeters>
            <DistanceMeters>NAN</DistanceMeters>
          </Trackpoint>
          <Trackpoint>
            <Time>2022-07-14T10:15:21.000Z</Time>
            <Position>
              <LatitudeDegrees>43.35172715596854686737060546875</LatitudeDegrees>
              <LongitudeDegrees>-4.0483210980892181396484375</LongitudeDegrees>
            </Position>
            <AltitudeMeters>31.200000762939453125</AltitudeMeters>
            <DistanceMeters>NAN</DistanceMeters>
          </Trackpoint>
          <Trackpoint>
            <Time>2022-07-14T10:15:23.000Z</Time>
            <Position>
              <LatitudeDegrees>43.3516999147832393646240234375</LatitudeDegrees>
              <LongitudeDegrees>-4.048324786126613616943359375</LongitudeDegrees>
            </Position>
            <AltitudeMeters>31</AltitudeMeters>
            <DistanceMeters>NAN</DistanceMeters>
          </Trackpoint>
          <Trackpoint>
            <Time>2022-07-14T10:15:29.000Z</Time>
            <Position>
              <LatitudeDegrees>43.351475782692432403564453125</LatitudeDegrees>
              <LongitudeDegrees>-4.04832336120307445526123046875</LongitudeDegrees>
            </Position>
            <AltitudeMeters>31.200000762939453125</AltitudeMeters>
            <DistanceMeters>NAN</DistanceMeters>
          </Trackpoint>
          <Trackpoint>
            <Time>2022-07-14T10:15:36.000Z</Time>
            <Position>
              <LatitudeDegrees>43.351288698613643646240234375</LatitudeDegrees>
              <LongitudeDegrees>-4.04834817163646221160888671875</LongitudeDegrees>
            </Position>
            <AltitudeMeters>31.200000762939453125</AltitudeMeters>
            <DistanceMeters>NAN</DistanceMeters>
          </Trackpoint>
          <Trackpoint>
            <Time>2022-07-14T10:15:39.000Z</Time>
            <Position>
              <LatitudeDegrees>43.35120781324803829193115234375</LatitudeDegrees>
              <LongitudeDegrees>-4.04837943613529205322265625</LongitudeDegrees>
            </Position>
            <AltitudeMeters>31.200000762939453125</AltitudeMeters>
            <DistanceMeters>NAN</DistanceMeters>
          </Trackpoint>
          <Trackpoint>
            <Time>2022-07-14T10:15:40.000Z</Time>
            <Position>
              <LatitudeDegrees>43.35118434391915798187255859375</LatitudeDegrees>
              <LongitudeDegrees>-4.04838421382009983062744140625</LongitudeDegrees>
            </Position>
            <AltitudeMeters>31.200000762939453125</AltitudeMeters>
            <DistanceMeters>NAN</DistanceMeters>
          </Trackpoint>
          <Trackpoint>
            <Time>2022-07-14T10:15:45.000Z</Time>
            <Position>
              <LatitudeDegrees>43.3510597050189971923828125</LatitudeDegrees>
              <LongitudeDegrees>-4.04841204173862934112548828125</LongitudeDegrees>
            </Position>
            <AltitudeMeters>31.200000762939453125</AltitudeMeters>
            <DistanceMeters>NAN</DistanceMeters>
          </Trackpoint>
          <Trackpoint>
            <Time>2022-07-14T10:15:49.000Z</Time>
            <Position>
              <LatitudeDegrees>43.35103900171816349029541015625</LatitudeDegrees>
              <LongitudeDegrees>-4.04843232594430446624755859375</LongitudeDegrees>
            </Position>
            <AltitudeMeters>31.3999996185302734375</AltitudeMeters>
            <DistanceMeters>NAN</DistanceMeters>
          </Trackpoint>
          <Trackpoint>
            <Time>2022-07-14T10:15:50.000Z</Time>
            <Position>
              <LatitudeDegrees>43.35103564895689487457275390625</LatitudeDegrees>
              <LongitudeDegrees>-4.0484285540878772735595703125</LongitudeDegrees>
            </Position>
            <AltitudeMeters>31.3999996185302734375</AltitudeMeters>
            <DistanceMeters>NAN</DistanceMeters>
          </Trackpoint>
          <Trackpoint>
            <Time>2022-07-14T10:15:51.000Z</Time>
            <Position>
              <LatitudeDegrees>43.35103229619562625885009765625</LatitudeDegrees>
              <LongitudeDegrees>-4.04842511750757694244384765625</LongitudeDegrees>
            </Position>
            <AltitudeMeters>31.6000003814697265625</AltitudeMeters>
            <DistanceMeters>NAN</DistanceMeters>
          </Trackpoint>
          <Trackpoint>
            <Time>2022-07-14T10:15:53.000Z</Time>
            <Position>
              <LatitudeDegrees>43.3510166220366954803466796875</LatitudeDegrees>
              <LongitudeDegrees>-4.04842042364180088043212890625</LongitudeDegrees>
            </Position>
            <AltitudeMeters>31.6000003814697265625</AltitudeMeters>
            <DistanceMeters>NAN</DistanceMeters>
          </Trackpoint>
          <Trackpoint>
            <Time>2022-07-14T10:15:55.000Z</Time>
            <Position>
              <LatitudeDegrees>43.35103816352784633636474609375</LatitudeDegrees>
              <LongitudeDegrees>-4.04847197234630584716796875</LongitudeDegrees>
            </Position>
            <AltitudeMeters>31.3999996185302734375</AltitudeMeters>
            <DistanceMeters>NAN</DistanceMeters>
          </Trackpoint>
          <Trackpoint>
            <Time>2022-07-14T10:15:58.000Z</Time>
            <Position>
              <LatitudeDegrees>43.351060040295124053955078125</LatitudeDegrees>
              <LongitudeDegrees>-4.04848345555365085601806640625</LongitudeDegrees>
            </Position>
            <AltitudeMeters>31.3999996185302734375</AltitudeMeters>
            <DistanceMeters>NAN</DistanceMeters>
          </Trackpoint>
          <Trackpoint>
            <Time>2022-07-14T10:16:01.000Z</Time>
            <Position>
              <LatitudeDegrees>43.35108577273786067962646484375</LatitudeDegrees>
              <LongitudeDegrees>-4.0484925918281078338623046875</LongitudeDegrees>
            </Position>
            <AltitudeMeters>31.3999996185302734375</AltitudeMeters>
            <DistanceMeters>NAN</DistanceMeters>
          </Trackpoint>
          <Trackpoint>
            <Time>2022-07-14T10:16:03.000Z</Time>
            <Position>
              <LatitudeDegrees>43.35112617351114749908447265625</LatitudeDegrees>
              <LongitudeDegrees>-4.0484949387609958648681640625</LongitudeDegrees>
            </Position>
            <AltitudeMeters>31.3999996185302734375</AltitudeMeters>
            <DistanceMeters>NAN</DistanceMeters>
          </Trackpoint>
          <Trackpoint>
            <Time>2022-07-14T10:16:07.000Z</Time>
            <Position>
              <LatitudeDegrees>43.35119607858359813690185546875</LatitudeDegrees>
              <LongitudeDegrees>-4.0485160611569881439208984375</LongitudeDegrees>
            </Position>
            <AltitudeMeters>31.3999996185302734375</AltitudeMeters>
            <DistanceMeters>NAN</DistanceMeters>
          </Trackpoint>
          <Trackpoint>
            <Time>2022-07-14T10:16:10.000Z</Time>
            <Position>
              <LatitudeDegrees>43.35121938027441501617431640625</LatitudeDegrees>
              <LongitudeDegrees>-4.048531986773014068603515625</LongitudeDegrees>
            </Position>
            <AltitudeMeters>31.3999996185302734375</AltitudeMeters>
            <DistanceMeters>NAN</DistanceMeters>
          </Trackpoint>
          <Trackpoint>
            <Time>2022-07-14T10:16:12.000Z</Time>
            <Position>
              <LatitudeDegrees>43.35119674913585186004638671875</LatitudeDegrees>
              <LongitudeDegrees>-4.04852905310690402984619140625</LongitudeDegrees>
            </Position>
            <AltitudeMeters>31.3999996185302734375</AltitudeMeters>
            <DistanceMeters>NAN</DistanceMeters>
          </Trackpoint>
          <Trackpoint>
            <Time>2022-07-14T10:16:17.000Z</Time>
            <Position>
              <LatitudeDegrees>43.3511936478316783905029296875</LatitudeDegrees>
              <LongitudeDegrees>-4.04852570034563541412353515625</LongitudeDegrees>
            </Position>
            <AltitudeMeters>31.3999996185302734375</AltitudeMeters>
            <DistanceMeters>NAN</DistanceMeters>
          </Trackpoint>
          <Trackpoint>
            <Time>2022-07-14T10:16:20.000Z</Time>
            <Position>
              <LatitudeDegrees>43.35119180381298065185546875</LatitudeDegrees>
              <LongitudeDegrees>-4.04852452687919139862060546875</LongitudeDegrees>
            </Position>
            <AltitudeMeters>31.3999996185302734375</AltitudeMeters>
            <DistanceMeters>NAN</DistanceMeters>
          </Trackpoint>
          <Trackpoint>
            <Time>2022-07-14T10:16:22.000Z</Time>
            <Position>
              <LatitudeDegrees>43.35119180381298065185546875</LatitudeDegrees>
              <LongitudeDegrees>-4.04852452687919139862060546875</LongitudeDegrees>
            </Position>
            <AltitudeMeters>31.3999996185302734375</AltitudeMeters>
            <DistanceMeters>NAN</DistanceMeters>
          </Trackpoint>
          <Trackpoint>
            <Time>2022-07-14T10:18:17.000Z</Time>
            <Position>
              <LatitudeDegrees>43.35121653042733669281005859375</LatitudeDegrees>
              <LongitudeDegrees>-4.0484624169766902923583984375</LongitudeDegrees>
            </Position>
            <AltitudeMeters>32.40000152587890625</AltitudeMeters>
            <DistanceMeters>NAN</DistanceMeters>
          </Trackpoint>
          <Trackpoint>
            <Time>2022-07-14T10:18:20.000Z</Time>
            <Position>
              <LatitudeDegrees>43.35121653042733669281005859375</LatitudeDegrees>
              <LongitudeDegrees>-4.04846250079572200775146484375</LongitudeDegrees>
            </Position>
            <AltitudeMeters>32.40000152587890625</AltitudeMeters>
            <DistanceMeters>NAN</DistanceMeters>
          </Trackpoint>
          <Trackpoint>
            <Time>2022-07-14T10:18:33.000Z</Time>
            <Position>
              <LatitudeDegrees>43.3509287796914577484130859375</LatitudeDegrees>
              <LongitudeDegrees>-4.04844992794096469879150390625</LongitudeDegrees>
            </Position>
            <AltitudeMeters>32.200000762939453125</AltitudeMeters>
            <DistanceMeters>NAN</DistanceMeters>
          </Trackpoint>
          <Trackpoint>
            <Time>2022-07-14T10:18:37.000Z</Time>
            <Position>
              <LatitudeDegrees>43.3509485609829425811767578125</LatitudeDegrees>
              <LongitudeDegrees>-4.04846468009054660797119140625</LongitudeDegrees>
            </Position>
            <AltitudeMeters>32.59999847412109375</AltitudeMeters>
            <DistanceMeters>NAN</DistanceMeters>
          </Trackpoint>
          <Trackpoint>
            <Time>2022-07-14T10:18:39.000Z</Time>
            <Position>
              <LatitudeDegrees>43.350974880158901214599609375</LatitudeDegrees>
              <LongitudeDegrees>-4.048469960689544677734375</LongitudeDegrees>
            </Position>
            <AltitudeMeters>32.59999847412109375</AltitudeMeters>
            <DistanceMeters>NAN</DistanceMeters>
          </Trackpoint>
          <Trackpoint>
            <Time>2022-07-14T10:18:41.000Z</Time>
            <Position>
              <LatitudeDegrees>43.35100061260163784027099609375</LatitudeDegrees>
              <LongitudeDegrees>-4.04848429374396800994873046875</LongitudeDegrees>
            </Position>
            <AltitudeMeters>32.59999847412109375</AltitudeMeters>
            <DistanceMeters>NAN</DistanceMeters>
          </Trackpoint>
          <Trackpoint>
            <Time>2022-07-14T10:18:54.000Z</Time>
            <Position>
              <LatitudeDegrees>43.35098619572818279266357421875</LatitudeDegrees>
              <LongitudeDegrees>-4.04848764650523662567138671875</LongitudeDegrees>
            </Position>
            <AltitudeMeters>33</AltitudeMeters>
            <DistanceMeters>NAN</DistanceMeters>
          </Trackpoint>
          <Trackpoint>
            <Time>2022-07-14T10:18:56.000Z</Time>
            <Position>
              <LatitudeDegrees>43.35094629786908626556396484375</LatitudeDegrees>
              <LongitudeDegrees>-4.04846048913896083831787109375</LongitudeDegrees>
            </Position>
            <AltitudeMeters>33.200000762939453125</AltitudeMeters>
            <DistanceMeters>NAN</DistanceMeters>
          </Trackpoint>
          <Trackpoint>
            <Time>2022-07-14T10:19:01.000Z</Time>
            <Position>
              <LatitudeDegrees>43.350880332291126251220703125</LatitudeDegrees>
              <LongitudeDegrees>-4.0484659373760223388671875</LongitudeDegrees>
            </Position>
            <AltitudeMeters>33.200000762939453125</AltitudeMeters>
            <DistanceMeters>NAN</DistanceMeters>
          </Trackpoint>
          <Trackpoint>
            <Time>2022-07-14T10:19:02.000Z</Time>
            <Position>
              <LatitudeDegrees>43.350878655910491943359375</LatitudeDegrees>
              <LongitudeDegrees>-4.048469625413417816162109375</LongitudeDegrees>
            </Position>
            <AltitudeMeters>33.200000762939453125</AltitudeMeters>
            <DistanceMeters>NAN</DistanceMeters>
          </Trackpoint>
          <Trackpoint>
            <Time>2022-07-14T10:19:04.000Z</Time>
            <Position>
              <LatitudeDegrees>43.35086046718060970306396484375</LatitudeDegrees>
              <LongitudeDegrees>-4.0484764985740184783935546875</LongitudeDegrees>
            </Position>
            <AltitudeMeters>33.200000762939453125</AltitudeMeters>
            <DistanceMeters>NAN</DistanceMeters>
          </Trackpoint>
          <Trackpoint>
            <Time>2022-07-14T10:19:09.000Z</Time>
            <Position>
              <LatitudeDegrees>43.35070137865841388702392578125</LatitudeDegrees>
              <LongitudeDegrees>-4.04845462180674076080322265625</LongitudeDegrees>
            </Position>
            <AltitudeMeters>33.200000762939453125</AltitudeMeters>
            <DistanceMeters>NAN</DistanceMeters>
          </Trackpoint>
          <Trackpoint>
            <Time>2022-07-14T10:19:11.000Z</Time>
            <Position>
              <LatitudeDegrees>43.35064086131751537322998046875</LatitudeDegrees>
              <LongitudeDegrees>-4.04846434481441974639892578125</LongitudeDegrees>
            </Position>
            <AltitudeMeters>33.40000152587890625</AltitudeMeters>
            <DistanceMeters>NAN</DistanceMeters>
          </Trackpoint>
          <Trackpoint>
            <Time>2022-07-14T10:19:17.000Z</Time>
            <Position>
              <LatitudeDegrees>43.350525610148906707763671875</LatitudeDegrees>
              <LongitudeDegrees>-4.04849250800907611846923828125</LongitudeDegrees>
            </Position>
            <AltitudeMeters>33.200000762939453125</AltitudeMeters>
            <DistanceMeters>NAN</DistanceMeters>
          </Trackpoint>
          <Trackpoint>
            <Time>2022-07-14T10:19:20.000Z</Time>
            <Position>
              <LatitudeDegrees>43.3505070023238658905029296875</LatitudeDegrees>
              <LongitudeDegrees>-4.04851396568119525909423828125</LongitudeDegrees>
            </Position>
            <AltitudeMeters>33.200000762939453125</AltitudeMeters>
            <DistanceMeters>NAN</DistanceMeters>
          </Trackpoint>
          <Trackpoint>
            <Time>2022-07-14T10:19:22.000Z</Time>
            <Position>
              <LatitudeDegrees>43.35050339810550212860107421875</LatitudeDegrees>
              <LongitudeDegrees>-4.04854665510356426239013671875</LongitudeDegrees>
            </Position>
            <AltitudeMeters>33.200000762939453125</AltitudeMeters>
            <DistanceMeters>NAN</DistanceMeters>
          </Trackpoint>
          <Trackpoint>
            <Time>2022-07-14T10:19:24.000Z</Time>
            <Position>
              <LatitudeDegrees>43.35049769841134548187255859375</LatitudeDegrees>
              <LongitudeDegrees>-4.04858856461942195892333984375</LongitudeDegrees>
            </Position>
            <AltitudeMeters>33.200000762939453125</AltitudeMeters>
            <DistanceMeters>NAN</DistanceMeters>
          </Trackpoint>
          <Trackpoint>
            <Time>2022-07-14T10:19:28.000Z</Time>
            <Position>
              <LatitudeDegrees>43.350463919341564178466796875</LatitudeDegrees>
              <LongitudeDegrees>-4.04865176416933536529541015625</LongitudeDegrees>
            </Position>
            <AltitudeMeters>32.799999237060546875</AltitudeMeters>
            <DistanceMeters>NAN</DistanceMeters>
          </Trackpoint>
          <Trackpoint>
            <Time>2022-07-14T10:19:29.000Z</Time>
            <Position>
              <LatitudeDegrees>43.35043701343238353729248046875</LatitudeDegrees>
              <LongitudeDegrees>-4.048646651208400726318359375</LongitudeDegrees>
            </Position>
            <AltitudeMeters>32.799999237060546875</AltitudeMeters>
            <DistanceMeters>NAN</DistanceMeters>
          </Trackpoint>
          <Trackpoint>
            <Time>2022-07-14T10:19:32.000Z</Time>
            <Position>
              <LatitudeDegrees>43.35041991434991359710693359375</LatitudeDegrees>
              <LongitudeDegrees>-4.04864765703678131103515625</LongitudeDegrees>
            </Position>
            <AltitudeMeters>32.799999237060546875</AltitudeMeters>
            <DistanceMeters>NAN</DistanceMeters>
          </Trackpoint>
          <Trackpoint>
            <Time>2022-07-14T10:19:33.000Z</Time>
            <Position>
              <LatitudeDegrees>43.3504251949489116668701171875</LatitudeDegrees>
              <LongitudeDegrees>-4.0486481599509716033935546875</LongitudeDegrees>
            </Position>
            <AltitudeMeters>32.799999237060546875</AltitudeMeters>
            <DistanceMeters>NAN</DistanceMeters>
          </Trackpoint>
          <Trackpoint>
            <Time>2022-07-14T10:19:38.000Z</Time>
            <Position>
              <LatitudeDegrees>43.35041798651218414306640625</LatitudeDegrees>
              <LongitudeDegrees>-4.0486671030521392822265625</LongitudeDegrees>
            </Position>
            <AltitudeMeters>33.200000762939453125</AltitudeMeters>
            <DistanceMeters>NAN</DistanceMeters>
          </Trackpoint>
          <Trackpoint>
            <Time>2022-07-14T10:19:40.000Z</Time>
            <Position>
              <LatitudeDegrees>43.35038018412888050079345703125</LatitudeDegrees>
              <LongitudeDegrees>-4.0486662648618221282958984375</LongitudeDegrees>
            </Position>
            <AltitudeMeters>33.200000762939453125</AltitudeMeters>
            <DistanceMeters>NAN</DistanceMeters>
          </Trackpoint>
          <Trackpoint>
            <Time>2022-07-14T10:19:41.000Z</Time>
            <Position>
              <LatitudeDegrees>43.3503462374210357666015625</LatitudeDegrees>
              <LongitudeDegrees>-4.048662744462490081787109375</LongitudeDegrees>
            </Position>
            <AltitudeMeters>33.200000762939453125</AltitudeMeters>
            <DistanceMeters>NAN</DistanceMeters>
          </Trackpoint>
          <Trackpoint>
            <Time>2022-07-14T10:19:44.000Z</Time>
            <Position>
              <LatitudeDegrees>43.35028043948113918304443359375</LatitudeDegrees>
              <LongitudeDegrees>-4.04874245636165142059326171875</LongitudeDegrees>
            </Position>
            <AltitudeMeters>33.40000152587890625</AltitudeMeters>
            <DistanceMeters>NAN</DistanceMeters>
          </Trackpoint>
          <Trackpoint>
            <Time>2022-07-14T10:19:46.000Z</Time>
            <Position>
              <LatitudeDegrees>43.35028178058564662933349609375</LatitudeDegrees>
              <LongitudeDegrees>-4.04876232147216796875</LongitudeDegrees>
            </Position>
            <AltitudeMeters>33.40000152587890625</AltitudeMeters>
            <DistanceMeters>NAN</DistanceMeters>
          </Trackpoint>
          <Trackpoint>
            <Time>2022-07-14T10:19:47.000Z</Time>
            <Position>
              <LatitudeDegrees>43.350282870233058929443359375</LatitudeDegrees>
              <LongitudeDegrees>-4.04875603504478931427001953125</LongitudeDegrees>
            </Position>
            <AltitudeMeters>33.40000152587890625</AltitudeMeters>
            <DistanceMeters>NAN</DistanceMeters>
          </Trackpoint>
          <Trackpoint>
            <Time>2022-07-14T10:19:49.000Z</Time>
            <Position>
              <LatitudeDegrees>43.3502615801990032196044921875</LatitudeDegrees>
              <LongitudeDegrees>-4.04868395067751407623291015625</LongitudeDegrees>
            </Position>
            <AltitudeMeters>33.40000152587890625</AltitudeMeters>
            <DistanceMeters>NAN</DistanceMeters>
          </Trackpoint>
          <Trackpoint>
            <Time>2022-07-14T10:19:51.000Z</Time>
            <Position>
              <LatitudeDegrees>43.3502739854156970977783203125</LatitudeDegrees>
              <LongitudeDegrees>-4.04865947552025318145751953125</LongitudeDegrees>
            </Position>
            <AltitudeMeters>33.40000152587890625</AltitudeMeters>
            <DistanceMeters>NAN</DistanceMeters>
          </Trackpoint>
          <Trackpoint>
            <Time>2022-07-14T10:19:52.000Z</Time>
            <Position>
              <LatitudeDegrees>43.35027826018631458282470703125</LatitudeDegrees>
              <LongitudeDegrees>-4.0486541949212551116943359375</LongitudeDegrees>
            </Position>
            <AltitudeMeters>33.40000152587890625</AltitudeMeters>
            <DistanceMeters>NAN</DistanceMeters>
          </Trackpoint>
          <Trackpoint>
            <Time>2022-07-14T10:19:53.000Z</Time>
            <Position>
              <LatitudeDegrees>43.35027314722537994384765625</LatitudeDegrees>
              <LongitudeDegrees>-4.04863533563911914825439453125</LongitudeDegrees>
            </Position>
            <AltitudeMeters>33.40000152587890625</AltitudeMeters>
            <DistanceMeters>NAN</DistanceMeters>
          </Trackpoint>
          <Trackpoint>
            <Time>2022-07-14T10:19:56.000Z</Time>
            <Position>
              <LatitudeDegrees>43.35020299069583415985107421875</LatitudeDegrees>
              <LongitudeDegrees>-4.048593007028102874755859375</LongitudeDegrees>
            </Position>
            <AltitudeMeters>33.59999847412109375</AltitudeMeters>
            <DistanceMeters>NAN</DistanceMeters>
          </Trackpoint>
          <Trackpoint>
            <Time>2022-07-14T10:19:58.000Z</Time>
            <Position>
              <LatitudeDegrees>43.350131325423717498779296875</LatitudeDegrees>
              <LongitudeDegrees>-4.04858001507818698883056640625</LongitudeDegrees>
            </Position>
            <AltitudeMeters>33.59999847412109375</AltitudeMeters>
            <DistanceMeters>NAN</DistanceMeters>
          </Trackpoint>
          <Trackpoint>
            <Time>2022-07-14T10:20:02.000Z</Time>
            <Position>
              <LatitudeDegrees>43.3501227758824825286865234375</LatitudeDegrees>
              <LongitudeDegrees>-4.048582278192043304443359375</LongitudeDegrees>
            </Position>
            <AltitudeMeters>34</AltitudeMeters>
            <DistanceMeters>NAN</DistanceMeters>
          </Trackpoint>
          <Trackpoint>
            <Time>2022-07-14T10:20:08.000Z</Time>
            <Position>
              <LatitudeDegrees>43.34998053498566150665283203125</LatitudeDegrees>
              <LongitudeDegrees>-4.04858085326850414276123046875</LongitudeDegrees>
            </Position>
            <AltitudeMeters>34.799999237060546875</AltitudeMeters>
            <DistanceMeters>NAN</DistanceMeters>
          </Trackpoint>
          <Trackpoint>
            <Time>2022-07-14T10:20:09.000Z</Time>
            <Position>
              <LatitudeDegrees>43.349972069263458251953125</LatitudeDegrees>
              <LongitudeDegrees>-4.04858060181140899658203125</LongitudeDegrees>
            </Position>
            <AltitudeMeters>34.799999237060546875</AltitudeMeters>
            <DistanceMeters>NAN</DistanceMeters>
          </Trackpoint>
          <Trackpoint>
            <Time>2022-07-14T10:20:15.000Z</Time>
            <Position>
              <LatitudeDegrees>43.34997676312923431396484375</LatitudeDegrees>
              <LongitudeDegrees>-4.048589654266834259033203125</LongitudeDegrees>
            </Position>
            <AltitudeMeters>35.200000762939453125</AltitudeMeters>
            <DistanceMeters>NAN</DistanceMeters>
          </Trackpoint>
          <Trackpoint>
            <Time>2022-07-14T10:20:17.000Z</Time>
            <Position>
              <LatitudeDegrees>43.34994248114526271820068359375</LatitudeDegrees>
              <LongitudeDegrees>-4.0486027300357818603515625</LongitudeDegrees>
            </Position>
            <AltitudeMeters>35.200000762939453125</AltitudeMeters>
            <DistanceMeters>NAN</DistanceMeters>
          </Trackpoint>
          <Trackpoint>
            <Time>2022-07-14T10:20:18.000Z</Time>
            <Position>
              <LatitudeDegrees>43.34992571733891963958740234375</LatitudeDegrees>
              <LongitudeDegrees>-4.04860742390155792236328125</LongitudeDegrees>
            </Position>
            <AltitudeMeters>35.200000762939453125</AltitudeMeters>
            <DistanceMeters>NAN</DistanceMeters>
          </Trackpoint>
          <Trackpoint>
            <Time>2022-07-14T10:20:19.000Z</Time>
            <Position>
              <LatitudeDegrees>43.3498837240040302276611328125</LatitudeDegrees>
              <LongitudeDegrees>-4.04861924238502979278564453125</LongitudeDegrees>
            </Position>
            <AltitudeMeters>35.200000762939453125</AltitudeMeters>
            <DistanceMeters>NAN</DistanceMeters>
          </Trackpoint>
          <Trackpoint>
            <Time>2022-07-14T10:20:20.000Z</Time>
            <Position>
              <LatitudeDegrees>43.349812813103199005126953125</LatitudeDegrees>
              <LongitudeDegrees>-4.04867774806916713714599609375</LongitudeDegrees>
            </Position>
            <AltitudeMeters>35.200000762939453125</AltitudeMeters>
            <DistanceMeters>NAN</DistanceMeters>
          </Trackpoint>
          <Trackpoint>
            <Time>2022-07-14T10:20:21.000Z</Time>
            <Position>
              <LatitudeDegrees>43.34978959523141384124755859375</LatitudeDegrees>
              <LongitudeDegrees>-4.04872099868953227996826171875</LongitudeDegrees>
            </Position>
            <AltitudeMeters>35.200000762939453125</AltitudeMeters>
            <DistanceMeters>NAN</DistanceMeters>
          </Trackpoint>
          <Trackpoint>
            <Time>2022-07-14T10:20:27.000Z</Time>
            <Position>
              <LatitudeDegrees>43.34968230687081813812255859375</LatitudeDegrees>
              <LongitudeDegrees>-4.04879249632358551025390625</LongitudeDegrees>
            </Position>
            <AltitudeMeters>35.200000762939453125</AltitudeMeters>
            <DistanceMeters>NAN</DistanceMeters>
          </Trackpoint>
          <Trackpoint>
            <Time>2022-07-14T10:20:29.000Z</Time>
            <Position>
              <LatitudeDegrees>43.34963939152657985687255859375</LatitudeDegrees>
              <LongitudeDegrees>-4.0488198213279247283935546875</LongitudeDegrees>
            </Position>
            <AltitudeMeters>35.40000152587890625</AltitudeMeters>
            <DistanceMeters>NAN</DistanceMeters>
          </Trackpoint>
          <Trackpoint>
            <Time>2022-07-14T10:20:31.000Z</Time>
            <Position>
              <LatitudeDegrees>43.34951098076999187469482421875</LatitudeDegrees>
              <LongitudeDegrees>-4.04887489043176174163818359375</LongitudeDegrees>
            </Position>
            <AltitudeMeters>35.40000152587890625</AltitudeMeters>
            <DistanceMeters>NAN</DistanceMeters>
          </Trackpoint>
          <Trackpoint>
            <Time>2022-07-14T10:20:32.000Z</Time>
            <Position>
              <LatitudeDegrees>43.34949128329753875732421875</LatitudeDegrees>
              <LongitudeDegrees>-4.048892073333263397216796875</LongitudeDegrees>
            </Position>
            <AltitudeMeters>35.40000152587890625</AltitudeMeters>
            <DistanceMeters>NAN</DistanceMeters>
          </Trackpoint>
          <Trackpoint>
            <Time>2022-07-14T10:20:34.000Z</Time>
            <Position>
              <LatitudeDegrees>43.34943470545113086700439453125</LatitudeDegrees>
              <LongitudeDegrees>-4.048918895423412322998046875</LongitudeDegrees>
            </Position>
            <AltitudeMeters>35.59999847412109375</AltitudeMeters>
            <DistanceMeters>NAN</DistanceMeters>
          </Trackpoint>
          <Trackpoint>
            <Time>2022-07-14T10:20:35.000Z</Time>
            <Position>
              <LatitudeDegrees>43.34941861219704151153564453125</LatitudeDegrees>
              <LongitudeDegrees>-4.0489378385245800018310546875</LongitudeDegrees>
            </Position>
            <AltitudeMeters>35.59999847412109375</AltitudeMeters>
            <DistanceMeters>NAN</DistanceMeters>
          </Trackpoint>
          <Trackpoint>
            <Time>2022-07-14T10:20:37.000Z</Time>
            <Position>
              <LatitudeDegrees>43.34941752254962921142578125</LatitudeDegrees>
              <LongitudeDegrees>-4.0490069054067134857177734375</LongitudeDegrees>
            </Position>
            <AltitudeMeters>35.59999847412109375</AltitudeMeters>
            <DistanceMeters>NAN</DistanceMeters>
          </Trackpoint>
          <Trackpoint>
            <Time>2022-07-14T10:20:39.000Z</Time>
            <Position>
              <LatitudeDegrees>43.34939883090555667877197265625</LatitudeDegrees>
              <LongitudeDegrees>-4.0490846894681453704833984375</LongitudeDegrees>
            </Position>
            <AltitudeMeters>35.799999237060546875</AltitudeMeters>
            <DistanceMeters>NAN</DistanceMeters>
          </Trackpoint>
          <Trackpoint>
            <Time>2022-07-14T10:20:46.000Z</Time>
            <Position>
              <LatitudeDegrees>43.34919749759137630462646484375</LatitudeDegrees>
              <LongitudeDegrees>-4.04918678104877471923828125</LongitudeDegrees>
            </Position>
            <AltitudeMeters>36.200000762939453125</AltitudeMeters>
            <DistanceMeters>NAN</DistanceMeters>
          </Trackpoint>
          <Trackpoint>
            <Time>2022-07-14T10:20:51.000Z</Time>
            <Position>
              <LatitudeDegrees>43.34919582121074199676513671875</LatitudeDegrees>
              <LongitudeDegrees>-4.04925626702606678009033203125</LongitudeDegrees>
            </Position>
            <AltitudeMeters>36.40000152587890625</AltitudeMeters>
            <DistanceMeters>NAN</DistanceMeters>
          </Trackpoint>
          <Trackpoint>
            <Time>2022-07-14T10:20:54.000Z</Time>
            <Position>
              <LatitudeDegrees>43.3491665683686733245849609375</LatitudeDegrees>
              <LongitudeDegrees>-4.04917261563241481781005859375</LongitudeDegrees>
            </Position>
            <AltitudeMeters>36.59999847412109375</AltitudeMeters>
            <DistanceMeters>NAN</DistanceMeters>
          </Trackpoint>
          <Trackpoint>
            <Time>2022-07-14T10:20:55.000Z</Time>
            <Position>
              <LatitudeDegrees>43.34915961138904094696044921875</LatitudeDegrees>
              <LongitudeDegrees>-4.049164317548274993896484375</LongitudeDegrees>
            </Position>
            <AltitudeMeters>36.59999847412109375</AltitudeMeters>
            <DistanceMeters>NAN</DistanceMeters>
          </Trackpoint>
          <Trackpoint>
            <Time>2022-07-14T10:20:56.000Z</Time>
            <Position>
              <LatitudeDegrees>43.3491410873830318450927734375</LatitudeDegrees>
              <LongitudeDegrees>-4.04915057122707366943359375</LongitudeDegrees>
            </Position>
            <AltitudeMeters>36.59999847412109375</AltitudeMeters>
            <DistanceMeters>NAN</DistanceMeters>
          </Trackpoint>
          <Trackpoint>
            <Time>2022-07-14T10:20:58.000Z</Time>
            <Position>
              <LatitudeDegrees>43.34909423254430294036865234375</LatitudeDegrees>
              <LongitudeDegrees>-4.0491460449993610382080078125</LongitudeDegrees>
            </Position>
            <AltitudeMeters>36.799999237060546875</AltitudeMeters>
            <DistanceMeters>NAN</DistanceMeters>
          </Trackpoint>
          <Trackpoint>
            <Time>2022-07-14T10:20:59.000Z</Time>
            <Position>
              <LatitudeDegrees>43.34912725724279880523681640625</LatitudeDegrees>
              <LongitudeDegrees>-4.04916607774794101715087890625</LongitudeDegrees>
            </Position>
            <AltitudeMeters>36.799999237060546875</AltitudeMeters>
            <DistanceMeters>NAN</DistanceMeters>
          </Trackpoint>
          <Trackpoint>
            <Time>2022-07-14T10:21:01.000Z</Time>
            <Position>
              <LatitudeDegrees>43.3490951545536518096923828125</LatitudeDegrees>
              <LongitudeDegrees>-4.049196504056453704833984375</LongitudeDegrees>
            </Position>
            <AltitudeMeters>36.799999237060546875</AltitudeMeters>
            <DistanceMeters>NAN</DistanceMeters>
          </Trackpoint>
          <Trackpoint>
            <Time>2022-07-14T10:21:03.000Z</Time>
            <Position>
              <LatitudeDegrees>43.34887177683413028717041015625</LatitudeDegrees>
              <LongitudeDegrees>-4.049135148525238037109375</LongitudeDegrees>
            </Position>
            <AltitudeMeters>37</AltitudeMeters>
            <DistanceMeters>NAN</DistanceMeters>
          </Trackpoint>
          <Trackpoint>
            <Time>2022-07-14T10:21:06.000Z</Time>
            <Position>
              <LatitudeDegrees>43.348716795444488525390625</LatitudeDegrees>
              <LongitudeDegrees>-4.04918988235294818878173828125</LongitudeDegrees>
            </Position>
            <AltitudeMeters>37</AltitudeMeters>
            <DistanceMeters>NAN</DistanceMeters>
          </Trackpoint>
          <Trackpoint>
            <Time>2022-07-14T10:21:08.000Z</Time>
            <Position>
              <LatitudeDegrees>43.34868796169757843017578125</LatitudeDegrees>
              <LongitudeDegrees>-4.04923464171588420867919921875</LongitudeDegrees>
            </Position>
            <AltitudeMeters>37.200000762939453125</AltitudeMeters>
            <DistanceMeters>NAN</DistanceMeters>
          </Trackpoint>
          <Trackpoint>
            <Time>2022-07-14T10:21:11.000Z</Time>
            <Position>
              <LatitudeDegrees>43.34871201775968074798583984375</LatitudeDegrees>
              <LongitudeDegrees>-4.04931343160569667816162109375</LongitudeDegrees>
            </Position>
            <AltitudeMeters>37.200000762939453125</AltitudeMeters>
            <DistanceMeters>NAN</DistanceMeters>
          </Trackpoint>
          <Trackpoint>
            <Time>2022-07-14T10:21:14.000Z</Time>
            <Position>
              <LatitudeDegrees>43.34875174798071384429931640625</LatitudeDegrees>
              <LongitudeDegrees>-4.04929901473224163055419921875</LongitudeDegrees>
            </Position>
            <AltitudeMeters>37.200000762939453125</AltitudeMeters>
            <DistanceMeters>NAN</DistanceMeters>
          </Trackpoint>
          <Trackpoint>
            <Time>2022-07-14T10:21:19.000Z</Time>
            <Position>
              <LatitudeDegrees>43.34874705411493778228759765625</LatitudeDegrees>
              <LongitudeDegrees>-4.04929867945611476898193359375</LongitudeDegrees>
            </Position>
            <AltitudeMeters>37</AltitudeMeters>
            <DistanceMeters>NAN</DistanceMeters>
          </Trackpoint>
          <Trackpoint>
            <Time>2022-07-14T10:21:22.000Z</Time>
            <Position>
              <LatitudeDegrees>43.34874705411493778228759765625</LatitudeDegrees>
              <LongitudeDegrees>-4.04929867945611476898193359375</LongitudeDegrees>
            </Position>
            <AltitudeMeters>37.200000762939453125</AltitudeMeters>
            <DistanceMeters>NAN</DistanceMeters>
          </Trackpoint>
          <Trackpoint>
            <Time>2022-07-14T10:21:40.000Z</Time>
            <Position>
              <LatitudeDegrees>43.34875560365617275238037109375</LatitudeDegrees>
              <LongitudeDegrees>-4.0493468753993511199951171875</LongitudeDegrees>
            </Position>
            <AltitudeMeters>37.200000762939453125</AltitudeMeters>
            <DistanceMeters>NAN</DistanceMeters>
          </Trackpoint>
          <Trackpoint>
            <Time>2022-07-14T10:21:41.000Z</Time>
            <Position>
              <LatitudeDegrees>43.34875007160007953643798828125</LatitudeDegrees>
              <LongitudeDegrees>-4.0493891201913356781005859375</LongitudeDegrees>
            </Position>
            <AltitudeMeters>37</AltitudeMeters>
            <DistanceMeters>NAN</DistanceMeters>
          </Trackpoint>
          <Trackpoint>
            <Time>2022-07-14T10:21:42.000Z</Time>
            <Position>
              <LatitudeDegrees>43.34875107742846012115478515625</LatitudeDegrees>
              <LongitudeDegrees>-4.04943488538265228271484375</LongitudeDegrees>
            </Position>
            <AltitudeMeters>37</AltitudeMeters>
            <DistanceMeters>NAN</DistanceMeters>
          </Trackpoint>
          <Trackpoint>
            <Time>2022-07-14T10:21:44.000Z</Time>
            <Position>
              <LatitudeDegrees>43.3487820066511631011962890625</LatitudeDegrees>
              <LongitudeDegrees>-4.04953672550618648529052734375</LongitudeDegrees>
            </Position>
            <AltitudeMeters>37</AltitudeMeters>
            <DistanceMeters>NAN</DistanceMeters>
          </Trackpoint>
          <Trackpoint>
            <Time>2022-07-14T10:21:46.000Z</Time>
            <Position>
              <LatitudeDegrees>43.348798938095569610595703125</LatitudeDegrees>
              <LongitudeDegrees>-4.0496526472270488739013671875</LongitudeDegrees>
            </Position>
            <AltitudeMeters>37</AltitudeMeters>
            <DistanceMeters>NAN</DistanceMeters>
          </Trackpoint>
          <Trackpoint>
            <Time>2022-07-14T10:21:47.000Z</Time>
            <Position>
              <LatitudeDegrees>43.348796255886554718017578125</LatitudeDegrees>
              <LongitudeDegrees>-4.0497066266834735870361328125</LongitudeDegrees>
            </Position>
            <AltitudeMeters>37</AltitudeMeters>
            <DistanceMeters>NAN</DistanceMeters>
          </Trackpoint>
          <Trackpoint>
            <Time>2022-07-14T10:21:48.000Z</Time>
            <Position>
              <LatitudeDegrees>43.34878577850759029388427734375</LatitudeDegrees>
              <LongitudeDegrees>-4.04975767247378826141357421875</LongitudeDegrees>
            </Position>
            <AltitudeMeters>37</AltitudeMeters>
            <DistanceMeters>NAN</DistanceMeters>
          </Trackpoint>
          <Trackpoint>
            <Time>2022-07-14T10:21:49.000Z</Time>
            <Position>
              <LatitudeDegrees>43.34878024645149707794189453125</LatitudeDegrees>
              <LongitudeDegrees>-4.04980427585542201995849609375</LongitudeDegrees>
            </Position>
            <AltitudeMeters>36.799999237060546875</AltitudeMeters>
            <DistanceMeters>NAN</DistanceMeters>
          </Trackpoint>
          <Trackpoint>
            <Time>2022-07-14T10:21:53.000Z</Time>
            <Position>
              <LatitudeDegrees>43.348760046064853668212890625</LatitudeDegrees>
              <LongitudeDegrees>-4.04996068216860294342041015625</LongitudeDegrees>
            </Position>
            <AltitudeMeters>36.40000152587890625</AltitudeMeters>
            <DistanceMeters>NAN</DistanceMeters>
          </Trackpoint>
          <Trackpoint>
            <Time>2022-07-14T10:21:54.000Z</Time>
            <Position>
              <LatitudeDegrees>43.34875375963747501373291015625</LatitudeDegrees>
              <LongitudeDegrees>-4.04998901300132274627685546875</LongitudeDegrees>
            </Position>
            <AltitudeMeters>36.40000152587890625</AltitudeMeters>
            <DistanceMeters>NAN</DistanceMeters>
          </Trackpoint>
          <Trackpoint>
            <Time>2022-07-14T10:21:59.000Z</Time>
            <Position>
              <LatitudeDegrees>43.3486965112388134002685546875</LatitudeDegrees>
              <LongitudeDegrees>-4.0501029230654239654541015625</LongitudeDegrees>
            </Position>
            <AltitudeMeters>36.40000152587890625</AltitudeMeters>
            <DistanceMeters>NAN</DistanceMeters>
          </Trackpoint>
          <Trackpoint>
            <Time>2022-07-14T10:22:01.000Z</Time>
            <Position>
              <LatitudeDegrees>43.34868251346051692962646484375</LatitudeDegrees>
              <LongitudeDegrees>-4.05015413649380207061767578125</LongitudeDegrees>
            </Position>
            <AltitudeMeters>36.40000152587890625</AltitudeMeters>
            <DistanceMeters>NAN</DistanceMeters>
          </Trackpoint>
          <Trackpoint>
            <Time>2022-07-14T10:22:03.000Z</Time>
            <Position>
              <LatitudeDegrees>43.3486871235072612762451171875</LatitudeDegrees>
              <LongitudeDegrees>-4.05020073987543582916259765625</LongitudeDegrees>
            </Position>
            <AltitudeMeters>36.40000152587890625</AltitudeMeters>
            <DistanceMeters>NAN</DistanceMeters>
          </Trackpoint>
          <Trackpoint>
            <Time>2022-07-14T10:22:06.000Z</Time>
            <Position>
              <LatitudeDegrees>43.3486886322498321533203125</LatitudeDegrees>
              <LongitudeDegrees>-4.05029092915356159210205078125</LongitudeDegrees>
            </Position>
            <AltitudeMeters>36.200000762939453125</AltitudeMeters>
            <DistanceMeters>NAN</DistanceMeters>
          </Trackpoint>
          <Trackpoint>
            <Time>2022-07-14T10:22:08.000Z</Time>
            <Position>
              <LatitudeDegrees>43.34870330058038234710693359375</LatitudeDegrees>
              <LongitudeDegrees>-4.0503345988690853118896484375</LongitudeDegrees>
            </Position>
            <AltitudeMeters>36.200000762939453125</AltitudeMeters>
            <DistanceMeters>NAN</DistanceMeters>
          </Trackpoint>
          <Trackpoint>
            <Time>2022-07-14T10:22:09.000Z</Time>
            <Position>
              <LatitudeDegrees>43.34871746599674224853515625</LatitudeDegrees>
              <LongitudeDegrees>-4.0503433160483837127685546875</LongitudeDegrees>
            </Position>
            <AltitudeMeters>36</AltitudeMeters>
            <DistanceMeters>NAN</DistanceMeters>
          </Trackpoint>
          <Trackpoint>
            <Time>2022-07-14T10:22:11.000Z</Time>
            <Position>
              <LatitudeDegrees>43.348758034408092498779296875</LatitudeDegrees>
              <LongitudeDegrees>-4.05036066658794879913330078125</LongitudeDegrees>
            </Position>
            <AltitudeMeters>35.799999237060546875</AltitudeMeters>
            <DistanceMeters>NAN</DistanceMeters>
          </Trackpoint>
          <Trackpoint>
            <Time>2022-07-14T10:22:16.000Z</Time>
            <Position>
              <LatitudeDegrees>43.34886875934898853302001953125</LatitudeDegrees>
              <LongitudeDegrees>-4.0503476746380329132080078125</LongitudeDegrees>
            </Position>
            <AltitudeMeters>35.59999847412109375</AltitudeMeters>
            <DistanceMeters>NAN</DistanceMeters>
          </Trackpoint>
          <Trackpoint>
            <Time>2022-07-14T10:22:21.000Z</Time>
            <Position>
              <LatitudeDegrees>43.34892910905182361602783203125</LatitudeDegrees>
              <LongitudeDegrees>-4.050309620797634124755859375</LongitudeDegrees>
            </Position>
            <AltitudeMeters>35.59999847412109375</AltitudeMeters>
            <DistanceMeters>NAN</DistanceMeters>
          </Trackpoint>
          <Trackpoint>
            <Time>2022-07-14T10:22:22.000Z</Time>
            <Position>
              <LatitudeDegrees>43.3489375747740268707275390625</LatitudeDegrees>
              <LongitudeDegrees>-4.0503027476370334625244140625</LongitudeDegrees>
            </Position>
            <AltitudeMeters>35.40000152587890625</AltitudeMeters>
            <DistanceMeters>NAN</DistanceMeters>
          </Trackpoint>
          <Trackpoint>
            <Time>2022-07-14T10:22:25.000Z</Time>
            <Position>
              <LatitudeDegrees>43.34896263666450977325439453125</LatitudeDegrees>
              <LongitudeDegrees>-4.0502802841365337371826171875</LongitudeDegrees>
            </Position>
            <AltitudeMeters>35.40000152587890625</AltitudeMeters>
            <DistanceMeters>NAN</DistanceMeters>
          </Trackpoint>
          <Trackpoint>
            <Time>2022-07-14T10:22:26.000Z</Time>
            <Position>
              <LatitudeDegrees>43.34896263666450977325439453125</LatitudeDegrees>
              <LongitudeDegrees>-4.05026528052985668182373046875</LongitudeDegrees>
            </Position>
            <AltitudeMeters>35.200000762939453125</AltitudeMeters>
            <DistanceMeters>NAN</DistanceMeters>
          </Trackpoint>
          <Trackpoint>
            <Time>2022-07-14T10:22:33.000Z</Time>
            <Position>
              <LatitudeDegrees>43.34897403605282306671142578125</LatitudeDegrees>
              <LongitudeDegrees>-4.0502266399562358856201171875</LongitudeDegrees>
            </Position>
            <AltitudeMeters>35</AltitudeMeters>
            <DistanceMeters>NAN</DistanceMeters>
          </Trackpoint>
          <Trackpoint>
            <Time>2022-07-14T10:22:38.000Z</Time>
            <Position>
              <LatitudeDegrees>43.34897403605282306671142578125</LatitudeDegrees>
              <LongitudeDegrees>-4.0502266399562358856201171875</LongitudeDegrees>
            </Position>
            <AltitudeMeters>34.799999237060546875</AltitudeMeters>
            <DistanceMeters>NAN</DistanceMeters>
          </Trackpoint>
          <Trackpoint>
            <Time>2022-07-14T10:22:39.000Z</Time>
            <Position>
              <LatitudeDegrees>43.34897403605282306671142578125</LatitudeDegrees>
              <LongitudeDegrees>-4.0502266399562358856201171875</LongitudeDegrees>
            </Position>
            <AltitudeMeters>34.59999847412109375</AltitudeMeters>
            <DistanceMeters>NAN</DistanceMeters>
          </Trackpoint>
          <Trackpoint>
            <Time>2022-07-14T10:23:13.000Z</Time>
            <Position>
              <LatitudeDegrees>43.3489362336695194244384765625</LatitudeDegrees>
              <LongitudeDegrees>-4.05025823973119258880615234375</LongitudeDegrees>
            </Position>
            <AltitudeMeters>35.799999237060546875</AltitudeMeters>
            <DistanceMeters>NAN</DistanceMeters>
          </Trackpoint>
          <Trackpoint>
            <Time>2022-07-14T10:23:14.000Z</Time>
            <Position>
              <LatitudeDegrees>43.34892257116734981536865234375</LatitudeDegrees>
              <LongitudeDegrees>-4.05028807930648326873779296875</LongitudeDegrees>
            </Position>
            <AltitudeMeters>36</AltitudeMeters>
            <DistanceMeters>NAN</DistanceMeters>
          </Trackpoint>
          <Trackpoint>
            <Time>2022-07-14T10:23:15.000Z</Time>
            <Position>
              <LatitudeDegrees>43.3489124290645122528076171875</LatitudeDegrees>
              <LongitudeDegrees>-4.0503134764730930328369140625</LongitudeDegrees>
            </Position>
            <AltitudeMeters>36.200000762939453125</AltitudeMeters>
            <DistanceMeters>NAN</DistanceMeters>
          </Trackpoint>
          <Trackpoint>
            <Time>2022-07-14T10:23:16.000Z</Time>
            <Position>
              <LatitudeDegrees>43.3489017002284526824951171875</LatitudeDegrees>
              <LongitudeDegrees>-4.0503406338393688201904296875</LongitudeDegrees>
            </Position>
            <AltitudeMeters>36.200000762939453125</AltitudeMeters>
            <DistanceMeters>NAN</DistanceMeters>
          </Trackpoint>
          <Trackpoint>
            <Time>2022-07-14T10:23:19.000Z</Time>
            <Position>
              <LatitudeDegrees>43.34884881041944026947021484375</LatitudeDegrees>
              <LongitudeDegrees>-4.05036083422601222991943359375</LongitudeDegrees>
            </Position>
            <AltitudeMeters>36</AltitudeMeters>
            <DistanceMeters>NAN</DistanceMeters>
          </Trackpoint>
          <Trackpoint>
            <Time>2022-07-14T10:23:23.000Z</Time>
            <Position>
              <LatitudeDegrees>43.34877840243279933929443359375</LatitudeDegrees>
              <LongitudeDegrees>-4.0503674559295177459716796875</LongitudeDegrees>
            </Position>
            <AltitudeMeters>36</AltitudeMeters>
            <DistanceMeters>NAN</DistanceMeters>
          </Trackpoint>
          <Trackpoint>
            <Time>2022-07-14T10:23:24.000Z</Time>
            <Position>
              <LatitudeDegrees>43.348754681646823883056640625</LatitudeDegrees>
              <LongitudeDegrees>-4.050359912216663360595703125</LongitudeDegrees>
            </Position>
            <AltitudeMeters>36</AltitudeMeters>
            <DistanceMeters>NAN</DistanceMeters>
          </Trackpoint>
          <Trackpoint>
            <Time>2022-07-14T10:23:26.000Z</Time>
            <Position>
              <LatitudeDegrees>43.348707072436809539794921875</LatitudeDegrees>
              <LongitudeDegrees>-4.05034071765840053558349609375</LongitudeDegrees>
            </Position>
            <AltitudeMeters>36</AltitudeMeters>
            <DistanceMeters>NAN</DistanceMeters>
          </Trackpoint>
          <Trackpoint>
            <Time>2022-07-14T10:23:31.000Z</Time>
            <Position>
              <LatitudeDegrees>43.3486294560134410858154296875</LatitudeDegrees>
              <LongitudeDegrees>-4.05029864050447940826416015625</LongitudeDegrees>
            </Position>
            <AltitudeMeters>35.799999237060546875</AltitudeMeters>
            <DistanceMeters>NAN</DistanceMeters>
          </Trackpoint>
          <Trackpoint>
            <Time>2022-07-14T10:23:32.000Z</Time>
            <Position>
              <LatitudeDegrees>43.3486157096922397613525390625</LatitudeDegrees>
              <LongitudeDegrees>-4.05030467547476291656494140625</LongitudeDegrees>
            </Position>
            <AltitudeMeters>35.799999237060546875</AltitudeMeters>
            <DistanceMeters>NAN</DistanceMeters>
          </Trackpoint>
          <Trackpoint>
            <Time>2022-07-14T10:23:34.000Z</Time>
            <Position>
              <LatitudeDegrees>43.34860959090292453765869140625</LatitudeDegrees>
              <LongitudeDegrees>-4.05031641013920307159423828125</LongitudeDegrees>
            </Position>
            <AltitudeMeters>35.799999237060546875</AltitudeMeters>
            <DistanceMeters>NAN</DistanceMeters>
          </Trackpoint>
          <Trackpoint>
            <Time>2022-07-14T10:23:36.000Z</Time>
            <Position>
              <LatitudeDegrees>43.34860959090292453765869140625</LatitudeDegrees>
              <LongitudeDegrees>-4.05031641013920307159423828125</LongitudeDegrees>
            </Position>
            <AltitudeMeters>35.799999237060546875</AltitudeMeters>
            <DistanceMeters>NAN</DistanceMeters>
          </Trackpoint>
          <Trackpoint>
            <Time>2022-07-14T10:23:39.000Z</Time>
            <Position>
              <LatitudeDegrees>43.34860959090292453765869140625</LatitudeDegrees>
              <LongitudeDegrees>-4.05031641013920307159423828125</LongitudeDegrees>
            </Position>
            <AltitudeMeters>35.59999847412109375</AltitudeMeters>
            <DistanceMeters>NAN</DistanceMeters>
          </Trackpoint>
          <Trackpoint>
            <Time>2022-07-14T10:23:41.000Z</Time>
            <Position>
              <LatitudeDegrees>43.3486079983413219451904296875</LatitudeDegrees>
              <LongitudeDegrees>-4.0503248758614063262939453125</LongitudeDegrees>
            </Position>
            <AltitudeMeters>35.40000152587890625</AltitudeMeters>
            <DistanceMeters>NAN</DistanceMeters>
          </Trackpoint>
          <Trackpoint>
            <Time>2022-07-14T10:23:45.000Z</Time>
            <Position>
              <LatitudeDegrees>43.3486430346965789794921875</LatitudeDegrees>
              <LongitudeDegrees>-4.05032043345272541046142578125</LongitudeDegrees>
            </Position>
            <AltitudeMeters>35.200000762939453125</AltitudeMeters>
            <DistanceMeters>NAN</DistanceMeters>
          </Trackpoint>
          <Trackpoint>
            <Time>2022-07-14T10:23:46.000Z</Time>
            <Position>
              <LatitudeDegrees>43.3486430346965789794921875</LatitudeDegrees>
              <LongitudeDegrees>-4.05032043345272541046142578125</LongitudeDegrees>
            </Position>
            <AltitudeMeters>35.200000762939453125</AltitudeMeters>
            <DistanceMeters>NAN</DistanceMeters>
          </Trackpoint>
          <Trackpoint>
            <Time>2022-07-14T10:27:54.000Z</Time>
            <Position>
              <LatitudeDegrees>43.3485295437276363372802734375</LatitudeDegrees>
              <LongitudeDegrees>-4.05030886642634868621826171875</LongitudeDegrees>
            </Position>
            <AltitudeMeters>36.200000762939453125</AltitudeMeters>
            <DistanceMeters>NAN</DistanceMeters>
          </Trackpoint>
          <Trackpoint>
            <Time>2022-07-14T10:27:56.000Z</Time>
            <Position>
              <LatitudeDegrees>43.34852644242346286773681640625</LatitudeDegrees>
              <LongitudeDegrees>-4.05028556473553180694580078125</LongitudeDegrees>
            </Position>
            <AltitudeMeters>36.200000762939453125</AltitudeMeters>
            <DistanceMeters>NAN</DistanceMeters>
          </Trackpoint>
          <Trackpoint>
            <Time>2022-07-14T10:28:01.000Z</Time>
            <Position>
              <LatitudeDegrees>43.3486143685877323150634765625</LatitudeDegrees>
              <LongitudeDegrees>-4.05031221918761730194091796875</LongitudeDegrees>
            </Position>
            <AltitudeMeters>36.200000762939453125</AltitudeMeters>
            <DistanceMeters>NAN</DistanceMeters>
          </Trackpoint>
          <Trackpoint>
            <Time>2022-07-14T10:28:03.000Z</Time>
            <Position>
              <LatitudeDegrees>43.34880488924682140350341796875</LatitudeDegrees>
              <LongitudeDegrees>-4.05029981397092342376708984375</LongitudeDegrees>
            </Position>
            <AltitudeMeters>36</AltitudeMeters>
            <DistanceMeters>NAN</DistanceMeters>
          </Trackpoint>
          <Trackpoint>
            <Time>2022-07-14T10:28:05.000Z</Time>
            <Position>
              <LatitudeDegrees>43.34889591671526432037353515625</LatitudeDegrees>
              <LongitudeDegrees>-4.05029813759028911590576171875</LongitudeDegrees>
            </Position>
            <AltitudeMeters>36</AltitudeMeters>
            <DistanceMeters>NAN</DistanceMeters>
          </Trackpoint>
          <Trackpoint>
            <Time>2022-07-14T10:28:09.000Z</Time>
            <Position>
              <LatitudeDegrees>43.34892827086150646209716796875</LatitudeDegrees>
              <LongitudeDegrees>-4.0503265522420406341552734375</LongitudeDegrees>
            </Position>
            <AltitudeMeters>35.799999237060546875</AltitudeMeters>
            <DistanceMeters>NAN</DistanceMeters>
          </Trackpoint>
          <Trackpoint>
            <Time>2022-07-14T10:28:11.000Z</Time>
            <Position>
              <LatitudeDegrees>43.34895727224647998809814453125</LatitudeDegrees>
              <LongitudeDegrees>-4.05030660331249237060546875</LongitudeDegrees>
            </Position>
            <AltitudeMeters>35.799999237060546875</AltitudeMeters>
            <DistanceMeters>NAN</DistanceMeters>
          </Trackpoint>
          <Trackpoint>
            <Time>2022-07-14T10:28:16.000Z</Time>
            <Position>
              <LatitudeDegrees>43.34896364249289035797119140625</LatitudeDegrees>
              <LongitudeDegrees>-4.0502990595996379852294921875</LongitudeDegrees>
            </Position>
            <AltitudeMeters>35.59999847412109375</AltitudeMeters>
            <DistanceMeters>NAN</DistanceMeters>
          </Trackpoint>
          <Trackpoint>
            <Time>2022-07-14T10:28:17.000Z</Time>
            <Position>
              <LatitudeDegrees>43.348965905606746673583984375</LatitudeDegrees>
              <LongitudeDegrees>-4.050300233066082000732421875</LongitudeDegrees>
            </Position>
            <AltitudeMeters>35.59999847412109375</AltitudeMeters>
            <DistanceMeters>NAN</DistanceMeters>
          </Trackpoint>
          <Trackpoint>
            <Time>2022-07-14T10:31:12.000Z</Time>
            <Position>
              <LatitudeDegrees>43.348829783499240875244140625</LatitudeDegrees>
              <LongitudeDegrees>-4.05031607486307621002197265625</LongitudeDegrees>
            </Position>
            <AltitudeMeters>33</AltitudeMeters>
            <DistanceMeters>NAN</DistanceMeters>
          </Trackpoint>
          <Trackpoint>
            <Time>2022-07-14T10:31:14.000Z</Time>
            <Position>
              <LatitudeDegrees>43.3488386683166027069091796875</LatitudeDegrees>
              <LongitudeDegrees>-4.0503047592937946319580078125</LongitudeDegrees>
            </Position>
            <AltitudeMeters>33</AltitudeMeters>
            <DistanceMeters>NAN</DistanceMeters>
          </Trackpoint>
          <Trackpoint>
            <Time>2022-07-14T10:31:18.000Z</Time>
            <Position>
              <LatitudeDegrees>43.34886205382645130157470703125</LatitudeDegrees>
              <LongitudeDegrees>-4.050299227237701416015625</LongitudeDegrees>
            </Position>
            <AltitudeMeters>32</AltitudeMeters>
            <DistanceMeters>NAN</DistanceMeters>
          </Trackpoint>
          <Trackpoint>
            <Time>2022-07-14T10:31:19.000Z</Time>
            <Position>
              <LatitudeDegrees>43.34886968135833740234375</LatitudeDegrees>
              <LongitudeDegrees>-4.0503007359802722930908203125</LongitudeDegrees>
            </Position>
            <AltitudeMeters>31.799999237060546875</AltitudeMeters>
            <DistanceMeters>NAN</DistanceMeters>
          </Trackpoint>
          <Trackpoint>
            <Time>2022-07-14T10:31:22.000Z</Time>
            <Position>
              <LatitudeDegrees>43.3488882891833782196044921875</LatitudeDegrees>
              <LongitudeDegrees>-4.050288163125514984130859375</LongitudeDegrees>
            </Position>
            <AltitudeMeters>31.6000003814697265625</AltitudeMeters>
            <DistanceMeters>NAN</DistanceMeters>
          </Trackpoint>
          <Trackpoint>
            <Time>2022-07-14T10:31:24.000Z</Time>
            <Position>
              <LatitudeDegrees>43.34889524616301059722900390625</LatitudeDegrees>
              <LongitudeDegrees>-4.0502625145018100738525390625</LongitudeDegrees>
            </Position>
            <AltitudeMeters>31.3999996185302734375</AltitudeMeters>
            <DistanceMeters>NAN</DistanceMeters>
          </Trackpoint>
          <Trackpoint>
            <Time>2022-07-14T10:31:26.000Z</Time>
            <Position>
              <LatitudeDegrees>43.34889893420040607452392578125</LatitudeDegrees>
              <LongitudeDegrees>-4.0502615086734294891357421875</LongitudeDegrees>
            </Position>
            <AltitudeMeters>31.200000762939453125</AltitudeMeters>
            <DistanceMeters>NAN</DistanceMeters>
          </Trackpoint>
          <Trackpoint>
            <Time>2022-07-14T10:31:27.000Z</Time>
            <Position>
              <LatitudeDegrees>43.3488710224628448486328125</LatitudeDegrees>
              <LongitudeDegrees>-4.05026058666408061981201171875</LongitudeDegrees>
            </Position>
            <AltitudeMeters>31.200000762939453125</AltitudeMeters>
            <DistanceMeters>NAN</DistanceMeters>
          </Trackpoint>
          <Trackpoint>
            <Time>2022-07-14T10:31:31.000Z</Time>
            <Position>
              <LatitudeDegrees>43.34886658005416393280029296875</LatitudeDegrees>
              <LongitudeDegrees>-4.05023845843970775604248046875</LongitudeDegrees>
            </Position>
            <AltitudeMeters>31.200000762939453125</AltitudeMeters>
            <DistanceMeters>NAN</DistanceMeters>
          </Trackpoint>
          <Trackpoint>
            <Time>2022-07-14T10:31:35.000Z</Time>
            <Position>
              <LatitudeDegrees>43.34887647069990634918212890625</LatitudeDegrees>
              <LongitudeDegrees>-4.0502454154193401336669921875</LongitudeDegrees>
            </Position>
            <AltitudeMeters>32</AltitudeMeters>
            <DistanceMeters>NAN</DistanceMeters>
          </Trackpoint>
          <Trackpoint>
            <Time>2022-07-14T10:31:40.000Z</Time>
            <Position>
              <LatitudeDegrees>43.34887395612895488739013671875</LatitudeDegrees>
              <LongitudeDegrees>-4.0502417273819446563720703125</LongitudeDegrees>
            </Position>
            <AltitudeMeters>32.200000762939453125</AltitudeMeters>
            <DistanceMeters>NAN</DistanceMeters>
          </Trackpoint>
          <Trackpoint>
            <Time>2022-07-14T10:31:44.000Z</Time>
            <Position>
              <LatitudeDegrees>43.34887026809155941009521484375</LatitudeDegrees>
              <LongitudeDegrees>-4.0502521209418773651123046875</LongitudeDegrees>
            </Position>
            <AltitudeMeters>32.40000152587890625</AltitudeMeters>
            <DistanceMeters>NAN</DistanceMeters>
          </Trackpoint>
          <Trackpoint>
            <Time>2022-07-14T10:31:46.000Z</Time>
            <Position>
              <LatitudeDegrees>43.3488711901009082794189453125</LatitudeDegrees>
              <LongitudeDegrees>-4.0502665378153324127197265625</LongitudeDegrees>
            </Position>
            <AltitudeMeters>32.40000152587890625</AltitudeMeters>
            <DistanceMeters>NAN</DistanceMeters>
          </Trackpoint>
          <Trackpoint>
            <Time>2022-07-14T10:35:13.000Z</Time>
            <Position>
              <LatitudeDegrees>43.34882584400475025177001953125</LatitudeDegrees>
              <LongitudeDegrees>-4.05033878982067108154296875</LongitudeDegrees>
            </Position>
            <AltitudeMeters>32.200000762939453125</AltitudeMeters>
            <DistanceMeters>NAN</DistanceMeters>
          </Trackpoint>
          <Trackpoint>
            <Time>2022-07-14T10:35:15.000Z</Time>
            <Position>
              <LatitudeDegrees>43.348812349140644073486328125</LatitudeDegrees>
              <LongitudeDegrees>-4.0503728203475475311279296875</LongitudeDegrees>
            </Position>
            <AltitudeMeters>32.200000762939453125</AltitudeMeters>
            <DistanceMeters>NAN</DistanceMeters>
          </Trackpoint>
          <Trackpoint>
            <Time>2022-07-14T10:35:16.000Z</Time>
            <Position>
              <LatitudeDegrees>43.34880991838872432708740234375</LatitudeDegrees>
              <LongitudeDegrees>-4.05038497410714626312255859375</LongitudeDegrees>
            </Position>
            <AltitudeMeters>32.200000762939453125</AltitudeMeters>
            <DistanceMeters>NAN</DistanceMeters>
          </Trackpoint>
          <Trackpoint>
            <Time>2022-07-14T10:35:19.000Z</Time>
            <Position>
              <LatitudeDegrees>43.348781168460845947265625</LatitudeDegrees>
              <LongitudeDegrees>-4.05038681812584400177001953125</LongitudeDegrees>
            </Position>
            <AltitudeMeters>32.40000152587890625</AltitudeMeters>
            <DistanceMeters>NAN</DistanceMeters>
          </Trackpoint>
          <Trackpoint>
            <Time>2022-07-14T10:35:24.000Z</Time>
            <Position>
              <LatitudeDegrees>43.348713107407093048095703125</LatitudeDegrees>
              <LongitudeDegrees>-4.0503584034740924835205078125</LongitudeDegrees>
            </Position>
            <AltitudeMeters>33</AltitudeMeters>
            <DistanceMeters>NAN</DistanceMeters>
          </Trackpoint>
          <Trackpoint>
            <Time>2022-07-14T10:35:25.000Z</Time>
            <Position>
              <LatitudeDegrees>43.34869693033397197723388671875</LatitudeDegrees>
              <LongitudeDegrees>-4.05034407041966915130615234375</LongitudeDegrees>
            </Position>
            <AltitudeMeters>33</AltitudeMeters>
            <DistanceMeters>NAN</DistanceMeters>
          </Trackpoint>
          <Trackpoint>
            <Time>2022-07-14T10:35:30.000Z</Time>
            <Position>
              <LatitudeDegrees>43.34859500639140605926513671875</LatitudeDegrees>
              <LongitudeDegrees>-4.05025304295122623443603515625</LongitudeDegrees>
            </Position>
            <AltitudeMeters>33</AltitudeMeters>
            <DistanceMeters>NAN</DistanceMeters>
          </Trackpoint>
          <Trackpoint>
            <Time>2022-07-14T10:35:33.000Z</Time>
            <Position>
              <LatitudeDegrees>43.3485077507793903350830078125</LatitudeDegrees>
              <LongitudeDegrees>-4.05022638849914073944091796875</LongitudeDegrees>
            </Position>
            <AltitudeMeters>33</AltitudeMeters>
            <DistanceMeters>NAN</DistanceMeters>
          </Trackpoint>
          <Trackpoint>
            <Time>2022-07-14T10:35:34.000Z</Time>
            <Position>
              <LatitudeDegrees>43.3484846167266368865966796875</LatitudeDegrees>
              <LongitudeDegrees>-4.0502227842807769775390625</LongitudeDegrees>
            </Position>
            <AltitudeMeters>33</AltitudeMeters>
            <DistanceMeters>NAN</DistanceMeters>
          </Trackpoint>
          <Trackpoint>
            <Time>2022-07-14T10:35:35.000Z</Time>
            <Position>
              <LatitudeDegrees>43.3484551124274730682373046875</LatitudeDegrees>
              <LongitudeDegrees>-4.0502236224710941314697265625</LongitudeDegrees>
            </Position>
            <AltitudeMeters>33</AltitudeMeters>
            <DistanceMeters>NAN</DistanceMeters>
          </Trackpoint>
          <Trackpoint>
            <Time>2022-07-14T10:35:37.000Z</Time>
            <Position>
              <LatitudeDegrees>43.3484111912548542022705078125</LatitudeDegrees>
              <LongitudeDegrees>-4.050243236124515533447265625</LongitudeDegrees>
            </Position>
            <AltitudeMeters>33</AltitudeMeters>
            <DistanceMeters>NAN</DistanceMeters>
          </Trackpoint>
          <Trackpoint>
            <Time>2022-07-14T10:35:38.000Z</Time>
            <Position>
              <LatitudeDegrees>43.3483934216201305389404296875</LatitudeDegrees>
              <LongitudeDegrees>-4.0502551384270191192626953125</LongitudeDegrees>
            </Position>
            <AltitudeMeters>32.799999237060546875</AltitudeMeters>
            <DistanceMeters>NAN</DistanceMeters>
          </Trackpoint>
          <Trackpoint>
            <Time>2022-07-14T10:35:40.000Z</Time>
            <Position>
              <LatitudeDegrees>43.34836073219776153564453125</LatitudeDegrees>
              <LongitudeDegrees>-4.0502925217151641845703125</LongitudeDegrees>
            </Position>
            <AltitudeMeters>32.59999847412109375</AltitudeMeters>
            <DistanceMeters>NAN</DistanceMeters>
          </Trackpoint>
          <Trackpoint>
            <Time>2022-07-14T10:35:43.000Z</Time>
            <Position>
              <LatitudeDegrees>43.34828554652631282806396484375</LatitudeDegrees>
              <LongitudeDegrees>-4.0503128059208393096923828125</LongitudeDegrees>
            </Position>
            <AltitudeMeters>32.40000152587890625</AltitudeMeters>
            <DistanceMeters>NAN</DistanceMeters>
          </Trackpoint>
          <Trackpoint>
            <Time>2022-07-14T10:35:45.000Z</Time>
            <Position>
              <LatitudeDegrees>43.348246403038501739501953125</LatitudeDegrees>
              <LongitudeDegrees>-4.05039486475288867950439453125</LongitudeDegrees>
            </Position>
            <AltitudeMeters>32.40000152587890625</AltitudeMeters>
            <DistanceMeters>NAN</DistanceMeters>
          </Trackpoint>
          <Trackpoint>
            <Time>2022-07-14T10:35:47.000Z</Time>
            <Position>
              <LatitudeDegrees>43.34823626093566417694091796875</LatitudeDegrees>
              <LongitudeDegrees>-4.0504516102373600006103515625</LongitudeDegrees>
            </Position>
            <AltitudeMeters>32.200000762939453125</AltitudeMeters>
            <DistanceMeters>NAN</DistanceMeters>
          </Trackpoint>
          <Trackpoint>
            <Time>2022-07-14T10:35:48.000Z</Time>
            <Position>
              <LatitudeDegrees>43.348230309784412384033203125</LatitudeDegrees>
              <LongitudeDegrees>-4.0504807792603969573974609375</LongitudeDegrees>
            </Position>
            <AltitudeMeters>32.200000762939453125</AltitudeMeters>
            <DistanceMeters>NAN</DistanceMeters>
          </Trackpoint>
          <Trackpoint>
            <Time>2022-07-14T10:35:51.000Z</Time>
            <Position>
              <LatitudeDegrees>43.3482616581022739410400390625</LatitudeDegrees>
              <LongitudeDegrees>-4.05058178119361400604248046875</LongitudeDegrees>
            </Position>
            <AltitudeMeters>32.200000762939453125</AltitudeMeters>
            <DistanceMeters>NAN</DistanceMeters>
          </Trackpoint>
          <Trackpoint>
            <Time>2022-07-14T10:35:55.000Z</Time>
            <Position>
              <LatitudeDegrees>43.34834237582981586456298828125</LatitudeDegrees>
              <LongitudeDegrees>-4.0507168136537075042724609375</LongitudeDegrees>
            </Position>
            <AltitudeMeters>32</AltitudeMeters>
            <DistanceMeters>NAN</DistanceMeters>
          </Trackpoint>
          <Trackpoint>
            <Time>2022-07-14T10:35:59.000Z</Time>
            <Position>
              <LatitudeDegrees>43.34843088872730731964111328125</LatitudeDegrees>
              <LongitudeDegrees>-4.0508462302386760711669921875</LongitudeDegrees>
            </Position>
            <AltitudeMeters>32</AltitudeMeters>
            <DistanceMeters>NAN</DistanceMeters>
          </Trackpoint>
          <Trackpoint>
            <Time>2022-07-14T10:36:00.000Z</Time>
            <Position>
              <LatitudeDegrees>43.34844664670526981353759765625</LatitudeDegrees>
              <LongitudeDegrees>-4.0508713759481906890869140625</LongitudeDegrees>
            </Position>
            <AltitudeMeters>31.799999237060546875</AltitudeMeters>
            <DistanceMeters>NAN</DistanceMeters>
          </Trackpoint>
          <Trackpoint>
            <Time>2022-07-14T10:36:01.000Z</Time>
            <Position>
              <LatitudeDegrees>43.34845670498907566070556640625</LatitudeDegrees>
              <LongitudeDegrees>-4.0508841164410114288330078125</LongitudeDegrees>
            </Position>
            <AltitudeMeters>31.6000003814697265625</AltitudeMeters>
            <DistanceMeters>NAN</DistanceMeters>
          </Trackpoint>
          <Trackpoint>
            <Time>2022-07-14T10:36:03.000Z</Time>
            <Position>
              <LatitudeDegrees>43.3484671823680400848388671875</LatitudeDegrees>
              <LongitudeDegrees>-4.05087615363299846649169921875</LongitudeDegrees>
            </Position>
            <AltitudeMeters>31.200000762939453125</AltitudeMeters>
            <DistanceMeters>NAN</DistanceMeters>
          </Trackpoint>
          <Trackpoint>
            <Time>2022-07-14T10:36:05.000Z</Time>
            <Position>
              <LatitudeDegrees>43.3484641648828983306884765625</LatitudeDegrees>
              <LongitudeDegrees>-4.05086022801697254180908203125</LongitudeDegrees>
            </Position>
            <AltitudeMeters>31</AltitudeMeters>
            <DistanceMeters>NAN</DistanceMeters>
          </Trackpoint>
          <Trackpoint>
            <Time>2022-07-14T10:36:07.000Z</Time>
            <Position>
              <LatitudeDegrees>43.3484594710171222686767578125</LatitudeDegrees>
              <LongitudeDegrees>-4.0508599765598773956298828125</LongitudeDegrees>
            </Position>
            <AltitudeMeters>30.799999237060546875</AltitudeMeters>
            <DistanceMeters>NAN</DistanceMeters>
          </Trackpoint>
          <Trackpoint>
            <Time>2022-07-14T10:36:44.000Z</Time>
            <Position>
              <LatitudeDegrees>43.3486301265656948089599609375</LatitudeDegrees>
              <LongitudeDegrees>-4.050824940204620361328125</LongitudeDegrees>
            </Position>
            <AltitudeMeters>31.200000762939453125</AltitudeMeters>
            <DistanceMeters>NAN</DistanceMeters>
          </Trackpoint>
          <Trackpoint>
            <Time>2022-07-14T10:36:45.000Z</Time>
            <Position>
              <LatitudeDegrees>43.34853331558406352996826171875</LatitudeDegrees>
              <LongitudeDegrees>-4.05090884305536746978759765625</LongitudeDegrees>
            </Position>
            <AltitudeMeters>31.200000762939453125</AltitudeMeters>
            <DistanceMeters>NAN</DistanceMeters>
          </Trackpoint>
          <Trackpoint>
            <Time>2022-07-14T10:36:47.000Z</Time>
            <Position>
              <LatitudeDegrees>43.3484980277717113494873046875</LatitudeDegrees>
              <LongitudeDegrees>-4.0508827753365039825439453125</LongitudeDegrees>
            </Position>
            <AltitudeMeters>31.200000762939453125</AltitudeMeters>
            <DistanceMeters>NAN</DistanceMeters>
          </Trackpoint>
          <Trackpoint>
            <Time>2022-07-14T10:36:48.000Z</Time>
            <Position>
              <LatitudeDegrees>43.3485094271600246429443359375</LatitudeDegrees>
              <LongitudeDegrees>-4.05084438621997833251953125</LongitudeDegrees>
            </Position>
            <AltitudeMeters>31.200000762939453125</AltitudeMeters>
            <DistanceMeters>NAN</DistanceMeters>
          </Trackpoint>
          <Trackpoint>
            <Time>2022-07-14T10:36:51.000Z</Time>
            <Position>
              <LatitudeDegrees>43.3484740555286407470703125</LatitudeDegrees>
              <LongitudeDegrees>-4.05081915669143199920654296875</LongitudeDegrees>
            </Position>
            <AltitudeMeters>31.200000762939453125</AltitudeMeters>
            <DistanceMeters>NAN</DistanceMeters>
          </Trackpoint>
          <Trackpoint>
            <Time>2022-07-14T10:36:55.000Z</Time>
            <Position>
              <LatitudeDegrees>43.3483950980007648468017578125</LatitudeDegrees>
              <LongitudeDegrees>-4.0508660115301609039306640625</LongitudeDegrees>
            </Position>
            <AltitudeMeters>31.3999996185302734375</AltitudeMeters>
            <DistanceMeters>NAN</DistanceMeters>
          </Trackpoint>
          <Trackpoint>
            <Time>2022-07-14T10:36:58.000Z</Time>
            <Position>
              <LatitudeDegrees>43.3481620810925960540771484375</LatitudeDegrees>
              <LongitudeDegrees>-4.05097623355686664581298828125</LongitudeDegrees>
            </Position>
            <AltitudeMeters>31.3999996185302734375</AltitudeMeters>
            <DistanceMeters>NAN</DistanceMeters>
          </Trackpoint>
          <Trackpoint>
            <Time>2022-07-14T10:37:02.000Z</Time>
            <Position>
              <LatitudeDegrees>43.3479143120348453521728515625</LatitudeDegrees>
              <LongitudeDegrees>-4.05109961517155170440673828125</LongitudeDegrees>
            </Position>
            <AltitudeMeters>31.3999996185302734375</AltitudeMeters>
            <DistanceMeters>NAN</DistanceMeters>
          </Trackpoint>
          <Trackpoint>
            <Time>2022-07-14T10:37:06.000Z</Time>
            <Position>
              <LatitudeDegrees>43.3479840494692325592041015625</LatitudeDegrees>
              <LongitudeDegrees>-4.05104161240160465240478515625</LongitudeDegrees>
            </Position>
            <AltitudeMeters>31.3999996185302734375</AltitudeMeters>
            <DistanceMeters>NAN</DistanceMeters>
          </Trackpoint>
          <Trackpoint>
            <Time>2022-07-14T10:37:10.000Z</Time>
            <Position>
              <LatitudeDegrees>43.348332904279232025146484375</LatitudeDegrees>
              <LongitudeDegrees>-4.05088185332715511322021484375</LongitudeDegrees>
            </Position>
            <AltitudeMeters>31.3999996185302734375</AltitudeMeters>
            <DistanceMeters>NAN</DistanceMeters>
          </Trackpoint>
          <Trackpoint>
            <Time>2022-07-14T10:37:14.000Z</Time>
            <Position>
              <LatitudeDegrees>43.3482794277369976043701171875</LatitudeDegrees>
              <LongitudeDegrees>-4.0509206615388393402099609375</LongitudeDegrees>
            </Position>
            <AltitudeMeters>31.3999996185302734375</AltitudeMeters>
            <DistanceMeters>NAN</DistanceMeters>
          </Trackpoint>
          <Trackpoint>
            <Time>2022-07-14T10:37:15.000Z</Time>
            <Position>
              <LatitudeDegrees>43.348314128816127777099609375</LatitudeDegrees>
              <LongitudeDegrees>-4.05090498737990856170654296875</LongitudeDegrees>
            </Position>
            <AltitudeMeters>31.3999996185302734375</AltitudeMeters>
            <DistanceMeters>NAN</DistanceMeters>
          </Trackpoint>
          <Trackpoint>
            <Time>2022-07-14T10:37:16.000Z</Time>
            <Position>
              <LatitudeDegrees>43.3483287133276462554931640625</LatitudeDegrees>
              <LongitudeDegrees>-4.05090616084635257720947265625</LongitudeDegrees>
            </Position>
            <AltitudeMeters>31.3999996185302734375</AltitudeMeters>
            <DistanceMeters>NAN</DistanceMeters>
          </Trackpoint>
          <Trackpoint>
            <Time>2022-07-14T10:37:17.000Z</Time>
            <Position>
              <LatitudeDegrees>43.34833583794534206390380859375</LatitudeDegrees>
              <LongitudeDegrees>-4.05089727602899074554443359375</LongitudeDegrees>
            </Position>
            <AltitudeMeters>31.3999996185302734375</AltitudeMeters>
            <DistanceMeters>NAN</DistanceMeters>
          </Trackpoint>
          <Trackpoint>
            <Time>2022-07-14T10:37:21.000Z</Time>
            <Position>
              <LatitudeDegrees>43.34830063395202159881591796875</LatitudeDegrees>
              <LongitudeDegrees>-4.0506970323622226715087890625</LongitudeDegrees>
            </Position>
            <AltitudeMeters>31.6000003814697265625</AltitudeMeters>
            <DistanceMeters>NAN</DistanceMeters>
          </Trackpoint>
          <Trackpoint>
            <Time>2022-07-14T10:37:26.000Z</Time>
            <Position>
              <LatitudeDegrees>43.34831178188323974609375</LatitudeDegrees>
              <LongitudeDegrees>-4.05050768516957759857177734375</LongitudeDegrees>
            </Position>
            <AltitudeMeters>31.799999237060546875</AltitudeMeters>
            <DistanceMeters>NAN</DistanceMeters>
          </Trackpoint>
          <Trackpoint>
            <Time>2022-07-14T10:37:29.000Z</Time>
            <Position>
              <LatitudeDegrees>43.3482635021209716796875</LatitudeDegrees>
              <LongitudeDegrees>-4.05042101629078388214111328125</LongitudeDegrees>
            </Position>
            <AltitudeMeters>31.799999237060546875</AltitudeMeters>
            <DistanceMeters>NAN</DistanceMeters>
          </Trackpoint>
          <Trackpoint>
            <Time>2022-07-14T10:37:30.000Z</Time>
            <Position>
              <LatitudeDegrees>43.348240368068218231201171875</LatitudeDegrees>
              <LongitudeDegrees>-4.0504184179008007049560546875</LongitudeDegrees>
            </Position>
            <AltitudeMeters>31.799999237060546875</AltitudeMeters>
            <DistanceMeters>NAN</DistanceMeters>
          </Trackpoint>
          <Trackpoint>
            <Time>2022-07-14T10:37:31.000Z</Time>
            <Position>
              <LatitudeDegrees>43.34820474497973918914794921875</LatitudeDegrees>
              <LongitudeDegrees>-4.05043266713619232177734375</LongitudeDegrees>
            </Position>
            <AltitudeMeters>31.799999237060546875</AltitudeMeters>
            <DistanceMeters>NAN</DistanceMeters>
          </Trackpoint>
          <Trackpoint>
            <Time>2022-07-14T10:37:36.000Z</Time>
            <Position>
              <LatitudeDegrees>43.3480631746351718902587890625</LatitudeDegrees>
              <LongitudeDegrees>-4.05052796937525272369384765625</LongitudeDegrees>
            </Position>
            <AltitudeMeters>31.799999237060546875</AltitudeMeters>
            <DistanceMeters>NAN</DistanceMeters>
          </Trackpoint>
          <Trackpoint>
            <Time>2022-07-14T10:37:44.000Z</Time>
            <Position>
              <LatitudeDegrees>43.3477949537336826324462890625</LatitudeDegrees>
              <LongitudeDegrees>-4.05076500959694385528564453125</LongitudeDegrees>
            </Position>
            <AltitudeMeters>31.799999237060546875</AltitudeMeters>
            <DistanceMeters>NAN</DistanceMeters>
          </Trackpoint>
          <Trackpoint>
            <Time>2022-07-14T10:37:47.000Z</Time>
            <Position>
              <LatitudeDegrees>43.347756899893283843994140625</LatitudeDegrees>
              <LongitudeDegrees>-4.0508477389812469482421875</LongitudeDegrees>
            </Position>
            <AltitudeMeters>32</AltitudeMeters>
            <DistanceMeters>NAN</DistanceMeters>
          </Trackpoint>
          <Trackpoint>
            <Time>2022-07-14T10:37:50.000Z</Time>
            <Position>
              <LatitudeDegrees>43.3476605080068111419677734375</LatitudeDegrees>
              <LongitudeDegrees>-4.0509307198226451873779296875</LongitudeDegrees>
            </Position>
            <AltitudeMeters>32</AltitudeMeters>
            <DistanceMeters>NAN</DistanceMeters>
          </Trackpoint>
          <Trackpoint>
            <Time>2022-07-14T10:37:52.000Z</Time>
            <Position>
              <LatitudeDegrees>43.3475911058485507965087890625</LatitudeDegrees>
              <LongitudeDegrees>-4.05098897404968738555908203125</LongitudeDegrees>
            </Position>
            <AltitudeMeters>31.799999237060546875</AltitudeMeters>
            <DistanceMeters>NAN</DistanceMeters>
          </Trackpoint>
          <Trackpoint>
            <Time>2022-07-14T10:37:56.000Z</Time>
            <Position>
              <LatitudeDegrees>43.34745858795940876007080078125</LatitudeDegrees>
              <LongitudeDegrees>-4.051098525524139404296875</LongitudeDegrees>
            </Position>
            <AltitudeMeters>31.6000003814697265625</AltitudeMeters>
            <DistanceMeters>NAN</DistanceMeters>
          </Trackpoint>
          <Trackpoint>
            <Time>2022-07-14T10:37:59.000Z</Time>
            <Position>
              <LatitudeDegrees>43.34736688993871212005615234375</LatitudeDegrees>
              <LongitudeDegrees>-4.05118343420326709747314453125</LongitudeDegrees>
            </Position>
            <AltitudeMeters>31.3999996185302734375</AltitudeMeters>
            <DistanceMeters>NAN</DistanceMeters>
          </Trackpoint>
          <Trackpoint>
            <Time>2022-07-14T10:38:07.000Z</Time>
            <Position>
              <LatitudeDegrees>43.347200341522693634033203125</LatitudeDegrees>
              <LongitudeDegrees>-4.05143841169774532318115234375</LongitudeDegrees>
            </Position>
            <AltitudeMeters>31.6000003814697265625</AltitudeMeters>
            <DistanceMeters>NAN</DistanceMeters>
          </Trackpoint>
          <Trackpoint>
            <Time>2022-07-14T10:38:13.000Z</Time>
            <Position>
              <LatitudeDegrees>43.3470640517771244049072265625</LatitudeDegrees>
              <LongitudeDegrees>-4.0516143478453159332275390625</LongitudeDegrees>
            </Position>
            <AltitudeMeters>31.3999996185302734375</AltitudeMeters>
            <DistanceMeters>NAN</DistanceMeters>
          </Trackpoint>
          <Trackpoint>
            <Time>2022-07-14T10:38:19.000Z</Time>
            <Position>
              <LatitudeDegrees>43.34690739400684833526611328125</LatitudeDegrees>
              <LongitudeDegrees>-4.0517595224082469940185546875</LongitudeDegrees>
            </Position>
            <AltitudeMeters>31.200000762939453125</AltitudeMeters>
            <DistanceMeters>NAN</DistanceMeters>
          </Trackpoint>
          <Trackpoint>
            <Time>2022-07-14T10:38:21.000Z</Time>
            <Position>
              <LatitudeDegrees>43.34684553556144237518310546875</LatitudeDegrees>
              <LongitudeDegrees>-4.05176865868270397186279296875</LongitudeDegrees>
            </Position>
            <AltitudeMeters>31.200000762939453125</AltitudeMeters>
            <DistanceMeters>NAN</DistanceMeters>
          </Trackpoint>
          <Trackpoint>
            <Time>2022-07-14T10:38:22.000Z</Time>
            <Position>
              <LatitudeDegrees>43.34682382643222808837890625</LatitudeDegrees>
              <LongitudeDegrees>-4.05178626067936420440673828125</LongitudeDegrees>
            </Position>
            <AltitudeMeters>31.200000762939453125</AltitudeMeters>
            <DistanceMeters>NAN</DistanceMeters>
          </Trackpoint>
          <Trackpoint>
            <Time>2022-07-14T10:38:26.000Z</Time>
            <Position>
              <LatitudeDegrees>43.34672148339450359344482421875</LatitudeDegrees>
              <LongitudeDegrees>-4.051888100802898406982421875</LongitudeDegrees>
            </Position>
            <AltitudeMeters>31.3999996185302734375</AltitudeMeters>
            <DistanceMeters>NAN</DistanceMeters>
          </Trackpoint>
          <Trackpoint>
            <Time>2022-07-14T10:38:29.000Z</Time>
            <Position>
              <LatitudeDegrees>43.34665878675878047943115234375</LatitudeDegrees>
              <LongitudeDegrees>-4.05197091400623321533203125</LongitudeDegrees>
            </Position>
            <AltitudeMeters>31.3999996185302734375</AltitudeMeters>
            <DistanceMeters>NAN</DistanceMeters>
          </Trackpoint>
          <Trackpoint>
            <Time>2022-07-14T10:38:31.000Z</Time>
            <Position>
              <LatitudeDegrees>43.3465898036956787109375</LatitudeDegrees>
              <LongitudeDegrees>-4.05203419737517833709716796875</LongitudeDegrees>
            </Position>
            <AltitudeMeters>31.3999996185302734375</AltitudeMeters>
            <DistanceMeters>NAN</DistanceMeters>
          </Trackpoint>
          <Trackpoint>
            <Time>2022-07-14T10:38:34.000Z</Time>
            <Position>
              <LatitudeDegrees>43.34648058749735355377197265625</LatitudeDegrees>
              <LongitudeDegrees>-4.05212220735847949981689453125</LongitudeDegrees>
            </Position>
            <AltitudeMeters>31.200000762939453125</AltitudeMeters>
            <DistanceMeters>NAN</DistanceMeters>
          </Trackpoint>
          <Trackpoint>
            <Time>2022-07-14T10:38:36.000Z</Time>
            <Position>
              <LatitudeDegrees>43.3464193157851696014404296875</LatitudeDegrees>
              <LongitudeDegrees>-4.05219010077416896820068359375</LongitudeDegrees>
            </Position>
            <AltitudeMeters>31.200000762939453125</AltitudeMeters>
            <DistanceMeters>NAN</DistanceMeters>
          </Trackpoint>
          <Trackpoint>
            <Time>2022-07-14T10:38:39.000Z</Time>
            <Position>
              <LatitudeDegrees>43.3463750593364238739013671875</LatitudeDegrees>
              <LongitudeDegrees>-4.05227878130972385406494140625</LongitudeDegrees>
            </Position>
            <AltitudeMeters>31.3999996185302734375</AltitudeMeters>
            <DistanceMeters>NAN</DistanceMeters>
          </Trackpoint>
          <Trackpoint>
            <Time>2022-07-14T10:38:40.000Z</Time>
            <Position>
              <LatitudeDegrees>43.3463686890900135040283203125</LatitudeDegrees>
              <LongitudeDegrees>-4.05229940079152584075927734375</LongitudeDegrees>
            </Position>
            <AltitudeMeters>31.3999996185302734375</AltitudeMeters>
            <DistanceMeters>NAN</DistanceMeters>
          </Trackpoint>
          <Trackpoint>
            <Time>2022-07-14T10:38:43.000Z</Time>
            <Position>
              <LatitudeDegrees>43.34632954560220241546630859375</LatitudeDegrees>
              <LongitudeDegrees>-4.05235287733376026153564453125</LongitudeDegrees>
            </Position>
            <AltitudeMeters>31.6000003814697265625</AltitudeMeters>
            <DistanceMeters>NAN</DistanceMeters>
          </Trackpoint>
          <Trackpoint>
            <Time>2022-07-14T10:38:45.000Z</Time>
            <Position>
              <LatitudeDegrees>43.3462925814092159271240234375</LatitudeDegrees>
              <LongitudeDegrees>-4.05234902165830135345458984375</LongitudeDegrees>
            </Position>
            <AltitudeMeters>31.6000003814697265625</AltitudeMeters>
            <DistanceMeters>NAN</DistanceMeters>
          </Trackpoint>
          <Trackpoint>
            <Time>2022-07-14T10:38:49.000Z</Time>
            <Position>
              <LatitudeDegrees>43.34625653922557830810546875</LatitudeDegrees>
              <LongitudeDegrees>-4.052287749946117401123046875</LongitudeDegrees>
            </Position>
            <AltitudeMeters>31.6000003814697265625</AltitudeMeters>
            <DistanceMeters>NAN</DistanceMeters>
          </Trackpoint>
          <Trackpoint>
            <Time>2022-07-14T10:38:50.000Z</Time>
            <Position>
              <LatitudeDegrees>43.3462513424456119537353515625</LatitudeDegrees>
              <LongitudeDegrees>-4.0522792004048824310302734375</LongitudeDegrees>
            </Position>
            <AltitudeMeters>31.6000003814697265625</AltitudeMeters>
            <DistanceMeters>NAN</DistanceMeters>
          </Trackpoint>
          <Trackpoint>
            <Time>2022-07-14T10:38:51.000Z</Time>
            <Position>
              <LatitudeDegrees>43.3462443016469478607177734375</LatitudeDegrees>
              <LongitudeDegrees>-4.052264951169490814208984375</LongitudeDegrees>
            </Position>
            <AltitudeMeters>31.6000003814697265625</AltitudeMeters>
            <DistanceMeters>NAN</DistanceMeters>
          </Trackpoint>
          <Trackpoint>
            <Time>2022-07-14T10:47:07.000Z</Time>
            <Position>
              <LatitudeDegrees>43.34596292115747928619384765625</LatitudeDegrees>
              <LongitudeDegrees>-4.05246578156948089599609375</LongitudeDegrees>
            </Position>
            <AltitudeMeters>37.200000762939453125</AltitudeMeters>
            <DistanceMeters>NAN</DistanceMeters>
          </Trackpoint>
          <Trackpoint>
            <Time>2022-07-14T10:47:08.000Z</Time>
            <Position>
              <LatitudeDegrees>43.34596551954746246337890625</LatitudeDegrees>
              <LongitudeDegrees>-4.05247542075812816619873046875</LongitudeDegrees>
            </Position>
            <AltitudeMeters>37.200000762939453125</AltitudeMeters>
            <DistanceMeters>NAN</DistanceMeters>
          </Trackpoint>
          <Trackpoint>
            <Time>2022-07-14T10:47:12.000Z</Time>
            <Position>
              <LatitudeDegrees>43.34587742574512958526611328125</LatitudeDegrees>
              <LongitudeDegrees>-4.0524907596409320831298828125</LongitudeDegrees>
            </Position>
            <AltitudeMeters>37.200000762939453125</AltitudeMeters>
            <DistanceMeters>NAN</DistanceMeters>
          </Trackpoint>
          <Trackpoint>
            <Time>2022-07-14T10:47:20.000Z</Time>
            <Position>
              <LatitudeDegrees>43.34573686122894287109375</LatitudeDegrees>
              <LongitudeDegrees>-4.05256426893174648284912109375</LongitudeDegrees>
            </Position>
            <AltitudeMeters>37.200000762939453125</AltitudeMeters>
            <DistanceMeters>NAN</DistanceMeters>
          </Trackpoint>
          <Trackpoint>
            <Time>2022-07-14T10:47:24.000Z</Time>
            <Position>
              <LatitudeDegrees>43.3457343466579914093017578125</LatitudeDegrees>
              <LongitudeDegrees>-4.05255454592406749725341796875</LongitudeDegrees>
            </Position>
            <AltitudeMeters>37.200000762939453125</AltitudeMeters>
            <DistanceMeters>NAN</DistanceMeters>
          </Trackpoint>
          <Trackpoint>
            <Time>2022-07-14T10:47:55.000Z</Time>
            <Position>
              <LatitudeDegrees>43.34571029059588909149169921875</LatitudeDegrees>
              <LongitudeDegrees>-4.052705504000186920166015625</LongitudeDegrees>
            </Position>
            <AltitudeMeters>36.200000762939453125</AltitudeMeters>
            <DistanceMeters>NAN</DistanceMeters>
          </Trackpoint>
          <Trackpoint>
            <Time>2022-07-14T10:47:56.000Z</Time>
            <Position>
              <LatitudeDegrees>43.345709033310413360595703125</LatitudeDegrees>
              <LongitudeDegrees>-4.052735008299350738525390625</LongitudeDegrees>
            </Position>
            <AltitudeMeters>36.200000762939453125</AltitudeMeters>
            <DistanceMeters>NAN</DistanceMeters>
          </Trackpoint>
          <Trackpoint>
            <Time>2022-07-14T10:48:01.000Z</Time>
            <Position>
              <LatitudeDegrees>43.345653377473354339599609375</LatitudeDegrees>
              <LongitudeDegrees>-4.0528575517237186431884765625</LongitudeDegrees>
            </Position>
            <AltitudeMeters>36.200000762939453125</AltitudeMeters>
            <DistanceMeters>NAN</DistanceMeters>
          </Trackpoint>
          <Trackpoint>
            <Time>2022-07-14T10:48:05.000Z</Time>
            <Position>
              <LatitudeDegrees>43.34565228782594203948974609375</LatitudeDegrees>
              <LongitudeDegrees>-4.05296006239950656890869140625</LongitudeDegrees>
            </Position>
            <AltitudeMeters>36.200000762939453125</AltitudeMeters>
            <DistanceMeters>NAN</DistanceMeters>
          </Trackpoint>
          <Trackpoint>
            <Time>2022-07-14T10:48:06.000Z</Time>
            <Position>
              <LatitudeDegrees>43.3456602506339550018310546875</LatitudeDegrees>
              <LongitudeDegrees>-4.05297347344458103179931640625</LongitudeDegrees>
            </Position>
            <AltitudeMeters>36.200000762939453125</AltitudeMeters>
            <DistanceMeters>NAN</DistanceMeters>
          </Trackpoint>
          <Trackpoint>
            <Time>2022-07-14T10:48:12.000Z</Time>
            <Position>
              <LatitudeDegrees>43.3456947840750217437744140625</LatitudeDegrees>
              <LongitudeDegrees>-4.053072296082973480224609375</LongitudeDegrees>
            </Position>
            <AltitudeMeters>35.799999237060546875</AltitudeMeters>
            <DistanceMeters>NAN</DistanceMeters>
          </Trackpoint>
          <Trackpoint>
            <Time>2022-07-14T10:48:16.000Z</Time>
            <Position>
              <LatitudeDegrees>43.3457175828516483306884765625</LatitudeDegrees>
              <LongitudeDegrees>-4.05315519310534000396728515625</LongitudeDegrees>
            </Position>
            <AltitudeMeters>35.40000152587890625</AltitudeMeters>
            <DistanceMeters>NAN</DistanceMeters>
          </Trackpoint>
          <Trackpoint>
            <Time>2022-07-14T10:48:21.000Z</Time>
            <Position>
              <LatitudeDegrees>43.34577650763094425201416015625</LatitudeDegrees>
              <LongitudeDegrees>-4.05326466076076030731201171875</LongitudeDegrees>
            </Position>
            <AltitudeMeters>35.200000762939453125</AltitudeMeters>
            <DistanceMeters>NAN</DistanceMeters>
          </Trackpoint>
          <Trackpoint>
            <Time>2022-07-14T10:48:22.000Z</Time>
            <Position>
              <LatitudeDegrees>43.3457957021892070770263671875</LatitudeDegrees>
              <LongitudeDegrees>-4.0532793290913105010986328125</LongitudeDegrees>
            </Position>
            <AltitudeMeters>35</AltitudeMeters>
            <DistanceMeters>NAN</DistanceMeters>
          </Trackpoint>
          <Trackpoint>
            <Time>2022-07-14T10:48:25.000Z</Time>
            <Position>
              <LatitudeDegrees>43.34586787037551403045654296875</LatitudeDegrees>
              <LongitudeDegrees>-4.05327312648296356201171875</LongitudeDegrees>
            </Position>
            <AltitudeMeters>34.799999237060546875</AltitudeMeters>
            <DistanceMeters>NAN</DistanceMeters>
          </Trackpoint>
          <Trackpoint>
            <Time>2022-07-14T10:48:26.000Z</Time>
            <Position>
              <LatitudeDegrees>43.34587625227868556976318359375</LatitudeDegrees>
              <LongitudeDegrees>-4.05326667241752147674560546875</LongitudeDegrees>
            </Position>
            <AltitudeMeters>34.59999847412109375</AltitudeMeters>
            <DistanceMeters>NAN</DistanceMeters>
          </Trackpoint>
          <Trackpoint>
            <Time>2022-07-14T10:48:28.000Z</Time>
            <Position>
              <LatitudeDegrees>43.345905840396881103515625</LatitudeDegrees>
              <LongitudeDegrees>-4.05326776206493377685546875</LongitudeDegrees>
            </Position>
            <AltitudeMeters>34.59999847412109375</AltitudeMeters>
            <DistanceMeters>NAN</DistanceMeters>
          </Trackpoint>
          <Trackpoint>
            <Time>2022-07-14T10:48:31.000Z</Time>
            <Position>
              <LatitudeDegrees>43.34595956839621067047119140625</LatitudeDegrees>
              <LongitudeDegrees>-4.053263403475284576416015625</LongitudeDegrees>
            </Position>
            <AltitudeMeters>34.59999847412109375</AltitudeMeters>
            <DistanceMeters>NAN</DistanceMeters>
          </Trackpoint>
          <Trackpoint>
            <Time>2022-07-14T10:48:33.000Z</Time>
            <Position>
              <LatitudeDegrees>43.3459760807454586029052734375</LatitudeDegrees>
              <LongitudeDegrees>-4.05325359664857387542724609375</LongitudeDegrees>
            </Position>
            <AltitudeMeters>34.59999847412109375</AltitudeMeters>
            <DistanceMeters>NAN</DistanceMeters>
          </Trackpoint>
          <Trackpoint>
            <Time>2022-07-14T10:48:34.000Z</Time>
            <Position>
              <LatitudeDegrees>43.34598387591540813446044921875</LatitudeDegrees>
              <LongitudeDegrees>-4.0532491542398929595947265625</LongitudeDegrees>
            </Position>
            <AltitudeMeters>34.59999847412109375</AltitudeMeters>
            <DistanceMeters>NAN</DistanceMeters>
          </Trackpoint>
          <Trackpoint>
            <Time>2022-07-14T10:48:36.000Z</Time>
            <Position>
              <LatitudeDegrees>43.346000052988529205322265625</LatitudeDegrees>
              <LongitudeDegrees>-4.05325175262987613677978515625</LongitudeDegrees>
            </Position>
            <AltitudeMeters>34.40000152587890625</AltitudeMeters>
            <DistanceMeters>NAN</DistanceMeters>
          </Trackpoint>
          <Trackpoint>
            <Time>2022-07-14T10:48:37.000Z</Time>
            <Position>
              <LatitudeDegrees>43.34600977599620819091796875</LatitudeDegrees>
              <LongitudeDegrees>-4.05325527302920818328857421875</LongitudeDegrees>
            </Position>
            <AltitudeMeters>34.40000152587890625</AltitudeMeters>
            <DistanceMeters>NAN</DistanceMeters>
          </Trackpoint>
          <Trackpoint>
            <Time>2022-07-14T10:48:42.000Z</Time>
            <Position>
              <LatitudeDegrees>43.34601874463260173797607421875</LatitudeDegrees>
              <LongitudeDegrees>-4.0532831847667694091796875</LongitudeDegrees>
            </Position>
            <AltitudeMeters>34.200000762939453125</AltitudeMeters>
            <DistanceMeters>NAN</DistanceMeters>
          </Trackpoint>
          <Trackpoint>
            <Time>2022-07-14T10:48:43.000Z</Time>
            <Position>
              <LatitudeDegrees>43.3460250310599803924560546875</LatitudeDegrees>
              <LongitudeDegrees>-4.05329416505992412567138671875</LongitudeDegrees>
            </Position>
            <AltitudeMeters>34</AltitudeMeters>
            <DistanceMeters>NAN</DistanceMeters>
          </Trackpoint>
          <Trackpoint>
            <Time>2022-07-14T10:48:47.000Z</Time>
            <Position>
              <LatitudeDegrees>43.3460330776870250701904296875</LatitudeDegrees>
              <LongitudeDegrees>-4.05334445647895336151123046875</LongitudeDegrees>
            </Position>
            <AltitudeMeters>34.200000762939453125</AltitudeMeters>
            <DistanceMeters>NAN</DistanceMeters>
          </Trackpoint>
          <Trackpoint>
            <Time>2022-07-14T10:48:48.000Z</Time>
            <Position>
              <LatitudeDegrees>43.3460364304482936859130859375</LatitudeDegrees>
              <LongitudeDegrees>-4.053349904716014862060546875</LongitudeDegrees>
            </Position>
            <AltitudeMeters>34.200000762939453125</AltitudeMeters>
            <DistanceMeters>NAN</DistanceMeters>
          </Trackpoint>
          <Trackpoint>
            <Time>2022-07-14T10:49:28.000Z</Time>
            <Position>
              <LatitudeDegrees>43.34611765109002590179443359375</LatitudeDegrees>
              <LongitudeDegrees>-4.0534717775881290435791015625</LongitudeDegrees>
            </Position>
            <AltitudeMeters>33.59999847412109375</AltitudeMeters>
            <DistanceMeters>NAN</DistanceMeters>
          </Trackpoint>
          <Trackpoint>
            <Time>2022-07-14T10:49:29.000Z</Time>
            <Position>
              <LatitudeDegrees>43.3461324870586395263671875</LatitudeDegrees>
              <LongitudeDegrees>-4.05348502099514007568359375</LongitudeDegrees>
            </Position>
            <AltitudeMeters>33.59999847412109375</AltitudeMeters>
            <DistanceMeters>NAN</DistanceMeters>
          </Trackpoint>
          <Trackpoint>
            <Time>2022-07-14T10:49:30.000Z</Time>
            <Position>
              <LatitudeDegrees>43.34614514373242855072021484375</LatitudeDegrees>
              <LongitudeDegrees>-4.05349834822118282318115234375</LongitudeDegrees>
            </Position>
            <AltitudeMeters>33.59999847412109375</AltitudeMeters>
            <DistanceMeters>NAN</DistanceMeters>
          </Trackpoint>
          <Trackpoint>
            <Time>2022-07-14T10:49:35.000Z</Time>
            <Position>
              <LatitudeDegrees>43.34618747234344482421875</LatitudeDegrees>
              <LongitudeDegrees>-4.05354176647961139678955078125</LongitudeDegrees>
            </Position>
            <AltitudeMeters>33.799999237060546875</AltitudeMeters>
            <DistanceMeters>NAN</DistanceMeters>
          </Trackpoint>
          <Trackpoint>
            <Time>2022-07-14T10:49:36.000Z</Time>
            <Position>
              <LatitudeDegrees>43.3461896516382694244384765625</LatitudeDegrees>
              <LongitudeDegrees>-4.0535435266792774200439453125</LongitudeDegrees>
            </Position>
            <AltitudeMeters>33.799999237060546875</AltitudeMeters>
            <DistanceMeters>NAN</DistanceMeters>
          </Trackpoint>
          <Trackpoint>
            <Time>2022-07-14T10:49:37.000Z</Time>
            <Position>
              <LatitudeDegrees>43.346191830933094024658203125</LatitudeDegrees>
              <LongitudeDegrees>-4.0535452030599117279052734375</LongitudeDegrees>
            </Position>
            <AltitudeMeters>33.799999237060546875</AltitudeMeters>
            <DistanceMeters>NAN</DistanceMeters>
          </Trackpoint>
          <Trackpoint>
            <Time>2022-07-14T10:49:38.000Z</Time>
            <Position>
              <LatitudeDegrees>43.34619350731372833251953125</LatitudeDegrees>
              <LongitudeDegrees>-4.05354344286024570465087890625</LongitudeDegrees>
            </Position>
            <AltitudeMeters>33.200000762939453125</AltitudeMeters>
            <DistanceMeters>NAN</DistanceMeters>
          </Trackpoint>
          <Trackpoint>
            <Time>2022-07-14T10:51:07.000Z</Time>
            <Position>
              <LatitudeDegrees>43.34606920368969440460205078125</LatitudeDegrees>
              <LongitudeDegrees>-4.0534959174692630767822265625</LongitudeDegrees>
            </Position>
            <AltitudeMeters>34.59999847412109375</AltitudeMeters>
            <DistanceMeters>NAN</DistanceMeters>
          </Trackpoint>
          <Trackpoint>
            <Time>2022-07-14T10:51:08.000Z</Time>
            <Position>
              <LatitudeDegrees>43.34607942961156368255615234375</LatitudeDegrees>
              <LongitudeDegrees>-4.0535086579620838165283203125</LongitudeDegrees>
            </Position>
            <AltitudeMeters>34.799999237060546875</AltitudeMeters>
            <DistanceMeters>NAN</DistanceMeters>
          </Trackpoint>
          <Trackpoint>
            <Time>2022-07-14T10:51:10.000Z</Time>
            <Position>
              <LatitudeDegrees>43.3461068384349346160888671875</LatitudeDegrees>
              <LongitudeDegrees>-4.053514190018177032470703125</LongitudeDegrees>
            </Position>
            <AltitudeMeters>34.799999237060546875</AltitudeMeters>
            <DistanceMeters>NAN</DistanceMeters>
          </Trackpoint>
          <Trackpoint>
            <Time>2022-07-14T10:51:11.000Z</Time>
            <Position>
              <LatitudeDegrees>43.34611262194812297821044921875</LatitudeDegrees>
              <LongitudeDegrees>-4.05350136570632457733154296875</LongitudeDegrees>
            </Position>
            <AltitudeMeters>34.59999847412109375</AltitudeMeters>
            <DistanceMeters>NAN</DistanceMeters>
          </Trackpoint>
          <Trackpoint>
            <Time>2022-07-14T10:51:15.000Z</Time>
            <Position>
              <LatitudeDegrees>43.3461085148155689239501953125</LatitudeDegrees>
              <LongitudeDegrees>-4.05347831547260284423828125</LongitudeDegrees>
            </Position>
            <AltitudeMeters>34.59999847412109375</AltitudeMeters>
            <DistanceMeters>NAN</DistanceMeters>
          </Trackpoint>
          <Trackpoint>
            <Time>2022-07-14T10:51:19.000Z</Time>
            <Position>
              <LatitudeDegrees>43.34609770216047763824462890625</LatitudeDegrees>
              <LongitudeDegrees>-4.053451828658580780029296875</LongitudeDegrees>
            </Position>
            <AltitudeMeters>34.40000152587890625</AltitudeMeters>
            <DistanceMeters>NAN</DistanceMeters>
          </Trackpoint>
          <Trackpoint>
            <Time>2022-07-14T10:52:20.000Z</Time>
            <Position>
              <LatitudeDegrees>43.3460082672536373138427734375</LatitudeDegrees>
              <LongitudeDegrees>-4.0535260923206806182861328125</LongitudeDegrees>
            </Position>
            <AltitudeMeters>34</AltitudeMeters>
            <DistanceMeters>NAN</DistanceMeters>
          </Trackpoint>
          <Trackpoint>
            <Time>2022-07-14T10:52:23.000Z</Time>
            <Position>
              <LatitudeDegrees>43.34603869356215000152587890625</LatitudeDegrees>
              <LongitudeDegrees>-4.05351863242685794830322265625</LongitudeDegrees>
            </Position>
            <AltitudeMeters>33.799999237060546875</AltitudeMeters>
            <DistanceMeters>NAN</DistanceMeters>
          </Trackpoint>
          <Trackpoint>
            <Time>2022-07-14T10:52:28.000Z</Time>
            <Position>
              <LatitudeDegrees>43.346054367721080780029296875</LatitudeDegrees>
              <LongitudeDegrees>-4.053544700145721435546875</LongitudeDegrees>
            </Position>
            <AltitudeMeters>33.799999237060546875</AltitudeMeters>
            <DistanceMeters>NAN</DistanceMeters>
          </Trackpoint>
          <Trackpoint>
            <Time>2022-07-14T10:52:34.000Z</Time>
            <Position>
              <LatitudeDegrees>43.34606518037617206573486328125</LatitudeDegrees>
              <LongitudeDegrees>-4.053510166704654693603515625</LongitudeDegrees>
            </Position>
            <AltitudeMeters>33.799999237060546875</AltitudeMeters>
            <DistanceMeters>NAN</DistanceMeters>
          </Trackpoint>
          <Trackpoint>
            <Time>2022-07-14T10:52:39.000Z</Time>
            <Position>
              <LatitudeDegrees>43.34606618620455265045166015625</LatitudeDegrees>
              <LongitudeDegrees>-4.05349097214639186859130859375</LongitudeDegrees>
            </Position>
            <AltitudeMeters>34</AltitudeMeters>
            <DistanceMeters>NAN</DistanceMeters>
          </Trackpoint>
          <Trackpoint>
            <Time>2022-07-14T10:52:43.000Z</Time>
            <Position>
              <LatitudeDegrees>43.34608060307800769805908203125</LatitudeDegrees>
              <LongitudeDegrees>-4.053512178361415863037109375</LongitudeDegrees>
            </Position>
            <AltitudeMeters>34.59999847412109375</AltitudeMeters>
            <DistanceMeters>NAN</DistanceMeters>
          </Trackpoint>
          <Trackpoint>
            <Time>2022-07-14T10:52:47.000Z</Time>
            <Position>
              <LatitudeDegrees>43.3460417948663234710693359375</LatitudeDegrees>
              <LongitudeDegrees>-4.0534677542746067047119140625</LongitudeDegrees>
            </Position>
            <AltitudeMeters>34.59999847412109375</AltitudeMeters>
            <DistanceMeters>NAN</DistanceMeters>
          </Trackpoint>
          <Trackpoint>
            <Time>2022-07-14T10:52:48.000Z</Time>
            <Position>
              <LatitudeDegrees>43.3460303954780101776123046875</LatitudeDegrees>
              <LongitudeDegrees>-4.0534499846398830413818359375</LongitudeDegrees>
            </Position>
            <AltitudeMeters>34.59999847412109375</AltitudeMeters>
            <DistanceMeters>NAN</DistanceMeters>
          </Trackpoint>
          <Trackpoint>
            <Time>2022-07-14T10:52:50.000Z</Time>
            <Position>
              <LatitudeDegrees>43.34603215567767620086669921875</LatitudeDegrees>
              <LongitudeDegrees>-4.05343296937644481658935546875</LongitudeDegrees>
            </Position>
            <AltitudeMeters>34.40000152587890625</AltitudeMeters>
            <DistanceMeters>NAN</DistanceMeters>
          </Trackpoint>
          <Trackpoint>
            <Time>2022-07-14T10:52:54.000Z</Time>
            <Position>
              <LatitudeDegrees>43.3459911681711673736572265625</LatitudeDegrees>
              <LongitudeDegrees>-4.05344839207828044891357421875</LongitudeDegrees>
            </Position>
            <AltitudeMeters>34.200000762939453125</AltitudeMeters>
            <DistanceMeters>NAN</DistanceMeters>
          </Trackpoint>
          <Trackpoint>
            <Time>2022-07-14T10:52:59.000Z</Time>
            <Position>
              <LatitudeDegrees>43.34599745459854602813720703125</LatitudeDegrees>
              <LongitudeDegrees>-4.05344638042151927947998046875</LongitudeDegrees>
            </Position>
            <AltitudeMeters>34</AltitudeMeters>
            <DistanceMeters>NAN</DistanceMeters>
          </Trackpoint>
          <Trackpoint>
            <Time>2022-07-14T10:53:01.000Z</Time>
            <Position>
              <LatitudeDegrees>43.34603601135313510894775390625</LatitudeDegrees>
              <LongitudeDegrees>-4.05343431048095226287841796875</LongitudeDegrees>
            </Position>
            <AltitudeMeters>33.799999237060546875</AltitudeMeters>
            <DistanceMeters>NAN</DistanceMeters>
          </Trackpoint>
          <Trackpoint>
            <Time>2022-07-14T10:53:02.000Z</Time>
            <Position>
              <LatitudeDegrees>43.34603835828602313995361328125</LatitudeDegrees>
              <LongitudeDegrees>-4.05343414284288883209228515625</LongitudeDegrees>
            </Position>
            <AltitudeMeters>33.799999237060546875</AltitudeMeters>
            <DistanceMeters>NAN</DistanceMeters>
          </Trackpoint>
          <Trackpoint>
            <Time>2022-07-14T10:53:05.000Z</Time>
            <Position>
              <LatitudeDegrees>43.3460439741611480712890625</LatitudeDegrees>
              <LongitudeDegrees>-4.0534379146993160247802734375</LongitudeDegrees>
            </Position>
            <AltitudeMeters>33.799999237060546875</AltitudeMeters>
            <DistanceMeters>NAN</DistanceMeters>
          </Trackpoint>
          <Trackpoint>
            <Time>2022-07-14T10:55:05.000Z</Time>
            <Position>
              <LatitudeDegrees>43.34614790976047515869140625</LatitudeDegrees>
              <LongitudeDegrees>-4.053447805345058441162109375</LongitudeDegrees>
            </Position>
            <AltitudeMeters>34</AltitudeMeters>
            <DistanceMeters>NAN</DistanceMeters>
          </Trackpoint>
          <Trackpoint>
            <Time>2022-07-14T10:55:06.000Z</Time>
            <Position>
              <LatitudeDegrees>43.3461500890552997589111328125</LatitudeDegrees>
              <LongitudeDegrees>-4.05343984253704547882080078125</LongitudeDegrees>
            </Position>
            <AltitudeMeters>34.200000762939453125</AltitudeMeters>
            <DistanceMeters>NAN</DistanceMeters>
          </Trackpoint>
          <Trackpoint>
            <Time>2022-07-14T10:55:09.000Z</Time>
            <Position>
              <LatitudeDegrees>43.34614899940788745880126953125</LatitudeDegrees>
              <LongitudeDegrees>-4.05342693440616130828857421875</LongitudeDegrees>
            </Position>
            <AltitudeMeters>34.40000152587890625</AltitudeMeters>
            <DistanceMeters>NAN</DistanceMeters>
          </Trackpoint>
          <Trackpoint>
            <Time>2022-07-14T10:55:11.000Z</Time>
            <Position>
              <LatitudeDegrees>43.34613005630671977996826171875</LatitudeDegrees>
              <LongitudeDegrees>-4.05341654084622859954833984375</LongitudeDegrees>
            </Position>
            <AltitudeMeters>34.40000152587890625</AltitudeMeters>
            <DistanceMeters>NAN</DistanceMeters>
          </Trackpoint>
          <Trackpoint>
            <Time>2022-07-14T10:55:14.000Z</Time>
            <Position>
              <LatitudeDegrees>43.34612485952675342559814453125</LatitudeDegrees>
              <LongitudeDegrees>-4.0534167923033237457275390625</LongitudeDegrees>
            </Position>
            <AltitudeMeters>34.40000152587890625</AltitudeMeters>
            <DistanceMeters>NAN</DistanceMeters>
          </Trackpoint>
          <Trackpoint>
            <Time>2022-07-14T10:55:19.000Z</Time>
            <Position>
              <LatitudeDegrees>43.34611647762358188629150390625</LatitudeDegrees>
              <LongitudeDegrees>-4.05341318808495998382568359375</LongitudeDegrees>
            </Position>
            <AltitudeMeters>34.40000152587890625</AltitudeMeters>
            <DistanceMeters>NAN</DistanceMeters>
          </Trackpoint>
          <Trackpoint>
            <Time>2022-07-14T10:55:21.000Z</Time>
            <Position>
              <LatitudeDegrees>43.3461185730993747711181640625</LatitudeDegrees>
              <LongitudeDegrees>-4.05341804958879947662353515625</LongitudeDegrees>
            </Position>
            <AltitudeMeters>34.40000152587890625</AltitudeMeters>
            <DistanceMeters>NAN</DistanceMeters>
          </Trackpoint>
          <Trackpoint>
            <Time>2022-07-14T10:56:10.000Z</Time>
            <Position>
              <LatitudeDegrees>43.34604623727500438690185546875</LatitudeDegrees>
              <LongitudeDegrees>-4.05345140956342220306396484375</LongitudeDegrees>
            </Position>
            <AltitudeMeters>34.40000152587890625</AltitudeMeters>
            <DistanceMeters>NAN</DistanceMeters>
          </Trackpoint>
          <Trackpoint>
            <Time>2022-07-14T10:56:12.000Z</Time>
            <Position>
              <LatitudeDegrees>43.3460823632776737213134765625</LatitudeDegrees>
              <LongitudeDegrees>-4.05343045480549335479736328125</LongitudeDegrees>
            </Position>
            <AltitudeMeters>34.59999847412109375</AltitudeMeters>
            <DistanceMeters>NAN</DistanceMeters>
          </Trackpoint>
          <Trackpoint>
            <Time>2022-07-14T10:56:14.000Z</Time>
            <Position>
              <LatitudeDegrees>43.34612670354545116424560546875</LatitudeDegrees>
              <LongitudeDegrees>-4.05347588472068309783935546875</LongitudeDegrees>
            </Position>
            <AltitudeMeters>34.59999847412109375</AltitudeMeters>
            <DistanceMeters>NAN</DistanceMeters>
          </Trackpoint>
          <Trackpoint>
            <Time>2022-07-14T10:56:16.000Z</Time>
            <Position>
              <LatitudeDegrees>43.34616844542324542999267578125</LatitudeDegrees>
              <LongitudeDegrees>-4.05348124913871288299560546875</LongitudeDegrees>
            </Position>
            <AltitudeMeters>34.799999237060546875</AltitudeMeters>
            <DistanceMeters>NAN</DistanceMeters>
          </Trackpoint>
          <Trackpoint>
            <Time>2022-07-14T10:56:17.000Z</Time>
            <Position>
              <LatitudeDegrees>43.34617070853710174560546875</LatitudeDegrees>
              <LongitudeDegrees>-4.0534841828048229217529296875</LongitudeDegrees>
            </Position>
            <AltitudeMeters>34.799999237060546875</AltitudeMeters>
            <DistanceMeters>NAN</DistanceMeters>
          </Trackpoint>
          <Trackpoint>
            <Time>2022-07-14T10:56:22.000Z</Time>
            <Position>
              <LatitudeDegrees>43.34614254534244537353515625</LatitudeDegrees>
              <LongitudeDegrees>-4.053494073450565338134765625</LongitudeDegrees>
            </Position>
            <AltitudeMeters>34.799999237060546875</AltitudeMeters>
            <DistanceMeters>NAN</DistanceMeters>
          </Trackpoint>
          <Trackpoint>
            <Time>2022-07-14T10:57:01.000Z</Time>
            <Position>
              <LatitudeDegrees>43.34619082510471343994140625</LatitudeDegrees>
              <LongitudeDegrees>-4.05342341400682926177978515625</LongitudeDegrees>
            </Position>
            <AltitudeMeters>35.200000762939453125</AltitudeMeters>
            <DistanceMeters>NAN</DistanceMeters>
          </Trackpoint>
          <Trackpoint>
            <Time>2022-07-14T10:57:02.000Z</Time>
            <Position>
              <LatitudeDegrees>43.34619459696114063262939453125</LatitudeDegrees>
              <LongitudeDegrees>-4.0534275211393833160400390625</LongitudeDegrees>
            </Position>
            <AltitudeMeters>35.200000762939453125</AltitudeMeters>
            <DistanceMeters>NAN</DistanceMeters>
          </Trackpoint>
          <Trackpoint>
            <Time>2022-07-14T10:57:03.000Z</Time>
            <Position>
              <LatitudeDegrees>43.3461879752576351165771484375</LatitudeDegrees>
              <LongitudeDegrees>-4.0534291975200176239013671875</LongitudeDegrees>
            </Position>
            <AltitudeMeters>35.200000762939453125</AltitudeMeters>
            <DistanceMeters>NAN</DistanceMeters>
          </Trackpoint>
          <Trackpoint>
            <Time>2022-07-14T10:57:04.000Z</Time>
            <Position>
              <LatitudeDegrees>43.34618085063993930816650390625</LatitudeDegrees>
              <LongitudeDegrees>-4.05343079008162021636962890625</LongitudeDegrees>
            </Position>
            <AltitudeMeters>35.200000762939453125</AltitudeMeters>
            <DistanceMeters>NAN</DistanceMeters>
          </Trackpoint>
          <Trackpoint>
            <Time>2022-07-14T10:57:14.000Z</Time>
            <Position>
              <LatitudeDegrees>43.34613726474344730377197265625</LatitudeDegrees>
              <LongitudeDegrees>-4.05341930687427520751953125</LongitudeDegrees>
            </Position>
            <AltitudeMeters>35.59999847412109375</AltitudeMeters>
            <DistanceMeters>NAN</DistanceMeters>
          </Trackpoint>
          <Trackpoint>
            <Time>2022-07-14T10:57:15.000Z</Time>
            <Position>
              <LatitudeDegrees>43.34613843820989131927490234375</LatitudeDegrees>
              <LongitudeDegrees>-4.05342257581651210784912109375</LongitudeDegrees>
            </Position>
            <AltitudeMeters>35.59999847412109375</AltitudeMeters>
            <DistanceMeters>NAN</DistanceMeters>
          </Trackpoint>
          <Trackpoint>
            <Time>2022-07-14T10:57:17.000Z</Time>
            <Position>
              <LatitudeDegrees>43.3461567945778369903564453125</LatitudeDegrees>
              <LongitudeDegrees>-4.05342291109263896942138671875</LongitudeDegrees>
            </Position>
            <AltitudeMeters>35.40000152587890625</AltitudeMeters>
            <DistanceMeters>NAN</DistanceMeters>
          </Trackpoint>
          <Trackpoint>
            <Time>2022-07-14T10:57:19.000Z</Time>
            <Position>
              <LatitudeDegrees>43.34617246873676776885986328125</LatitudeDegrees>
              <LongitudeDegrees>-4.05341955833137035369873046875</LongitudeDegrees>
            </Position>
            <AltitudeMeters>35.200000762939453125</AltitudeMeters>
            <DistanceMeters>NAN</DistanceMeters>
          </Trackpoint>
          <Trackpoint>
            <Time>2022-07-14T10:57:23.000Z</Time>
            <Position>
              <LatitudeDegrees>43.34620951674878597259521484375</LatitudeDegrees>
              <LongitudeDegrees>-4.053515531122684478759765625</LongitudeDegrees>
            </Position>
            <AltitudeMeters>35</AltitudeMeters>
            <DistanceMeters>NAN</DistanceMeters>
          </Trackpoint>
          <Trackpoint>
            <Time>2022-07-14T10:57:26.000Z</Time>
            <Position>
              <LatitudeDegrees>43.34614480845630168914794921875</LatitudeDegrees>
              <LongitudeDegrees>-4.05352517031133174896240234375</LongitudeDegrees>
            </Position>
            <AltitudeMeters>35.200000762939453125</AltitudeMeters>
            <DistanceMeters>NAN</DistanceMeters>
          </Trackpoint>
          <Trackpoint>
            <Time>2022-07-14T10:57:28.000Z</Time>
            <Position>
              <LatitudeDegrees>43.34608194418251514434814453125</LatitudeDegrees>
              <LongitudeDegrees>-4.05346758663654327392578125</LongitudeDegrees>
            </Position>
            <AltitudeMeters>35.200000762939453125</AltitudeMeters>
            <DistanceMeters>NAN</DistanceMeters>
          </Trackpoint>
          <Trackpoint>
            <Time>2022-07-14T10:57:30.000Z</Time>
            <Position>
              <LatitudeDegrees>43.34608697332441806793212890625</LatitudeDegrees>
              <LongitudeDegrees>-4.05349482782185077667236328125</LongitudeDegrees>
            </Position>
            <AltitudeMeters>35.200000762939453125</AltitudeMeters>
            <DistanceMeters>NAN</DistanceMeters>
          </Trackpoint>
          <Trackpoint>
            <Time>2022-07-14T10:57:32.000Z</Time>
            <Position>
              <LatitudeDegrees>43.34617481566965579986572265625</LatitudeDegrees>
              <LongitudeDegrees>-4.0535406768321990966796875</LongitudeDegrees>
            </Position>
            <AltitudeMeters>35.40000152587890625</AltitudeMeters>
            <DistanceMeters>NAN</DistanceMeters>
          </Trackpoint>
          <Trackpoint>
            <Time>2022-07-14T10:57:38.000Z</Time>
            <Position>
              <LatitudeDegrees>43.346189148724079132080078125</LatitudeDegrees>
              <LongitudeDegrees>-4.05352525413036346435546875</LongitudeDegrees>
            </Position>
            <AltitudeMeters>35.40000152587890625</AltitudeMeters>
            <DistanceMeters>NAN</DistanceMeters>
          </Trackpoint>
          <Trackpoint>
            <Time>2022-07-14T10:57:44.000Z</Time>
            <Position>
              <LatitudeDegrees>43.346061408519744873046875</LatitudeDegrees>
              <LongitudeDegrees>-4.05346280895173549652099609375</LongitudeDegrees>
            </Position>
            <AltitudeMeters>35.59999847412109375</AltitudeMeters>
            <DistanceMeters>NAN</DistanceMeters>
          </Trackpoint>
          <Trackpoint>
            <Time>2022-07-14T10:57:47.000Z</Time>
            <Position>
              <LatitudeDegrees>43.34599770605564117431640625</LatitudeDegrees>
              <LongitudeDegrees>-4.053417630493640899658203125</LongitudeDegrees>
            </Position>
            <AltitudeMeters>35.40000152587890625</AltitudeMeters>
            <DistanceMeters>NAN</DistanceMeters>
          </Trackpoint>
          <Trackpoint>
            <Time>2022-07-14T10:57:49.000Z</Time>
            <Position>
              <LatitudeDegrees>43.34600902162492275238037109375</LatitudeDegrees>
              <LongitudeDegrees>-4.05339877121150493621826171875</LongitudeDegrees>
            </Position>
            <AltitudeMeters>35.59999847412109375</AltitudeMeters>
            <DistanceMeters>NAN</DistanceMeters>
          </Trackpoint>
          <Trackpoint>
            <Time>2022-07-14T10:57:53.000Z</Time>
            <Position>
              <LatitudeDegrees>43.3459888212382793426513671875</LatitudeDegrees>
              <LongitudeDegrees>-4.05340396799147129058837890625</LongitudeDegrees>
            </Position>
            <AltitudeMeters>35.59999847412109375</AltitudeMeters>
            <DistanceMeters>NAN</DistanceMeters>
          </Trackpoint>
          <Trackpoint>
            <Time>2022-07-14T10:59:42.000Z</Time>
            <Position>
              <LatitudeDegrees>43.3461376838386058807373046875</LatitudeDegrees>
              <LongitudeDegrees>-4.053384773433208465576171875</LongitudeDegrees>
            </Position>
            <AltitudeMeters>35.59999847412109375</AltitudeMeters>
            <DistanceMeters>NAN</DistanceMeters>
          </Trackpoint>
          <Trackpoint>
            <Time>2022-07-14T10:59:44.000Z</Time>
            <Position>
              <LatitudeDegrees>43.346149921417236328125</LatitudeDegrees>
              <LongitudeDegrees>-4.05336474068462848663330078125</LongitudeDegrees>
            </Position>
            <AltitudeMeters>35.59999847412109375</AltitudeMeters>
            <DistanceMeters>NAN</DistanceMeters>
          </Trackpoint>
          <Trackpoint>
            <Time>2022-07-14T10:59:46.000Z</Time>
            <Position>
              <LatitudeDegrees>43.3461759053170680999755859375</LatitudeDegrees>
              <LongitudeDegrees>-4.05336775816977024078369140625</LongitudeDegrees>
            </Position>
            <AltitudeMeters>35.799999237060546875</AltitudeMeters>
            <DistanceMeters>NAN</DistanceMeters>
          </Trackpoint>
          <Trackpoint>
            <Time>2022-07-14T10:59:48.000Z</Time>
            <Position>
              <LatitudeDegrees>43.34620029665529727935791015625</LatitudeDegrees>
              <LongitudeDegrees>-4.05338133685290813446044921875</LongitudeDegrees>
            </Position>
            <AltitudeMeters>35.799999237060546875</AltitudeMeters>
            <DistanceMeters>NAN</DistanceMeters>
          </Trackpoint>
          <Trackpoint>
            <Time>2022-07-14T10:59:49.000Z</Time>
            <Position>
              <LatitudeDegrees>43.34619484841823577880859375</LatitudeDegrees>
              <LongitudeDegrees>-4.0533805824816226959228515625</LongitudeDegrees>
            </Position>
            <AltitudeMeters>36</AltitudeMeters>
            <DistanceMeters>NAN</DistanceMeters>
          </Trackpoint>
          <Trackpoint>
            <Time>2022-07-14T10:59:51.000Z</Time>
            <Position>
              <LatitudeDegrees>43.3461807668209075927734375</LatitudeDegrees>
              <LongitudeDegrees>-4.05338770709931850433349609375</LongitudeDegrees>
            </Position>
            <AltitudeMeters>36</AltitudeMeters>
            <DistanceMeters>NAN</DistanceMeters>
          </Trackpoint>
          <Trackpoint>
            <Time>2022-07-14T10:59:57.000Z</Time>
            <Position>
              <LatitudeDegrees>43.3462000451982021331787109375</LatitudeDegrees>
              <LongitudeDegrees>-4.05345526523888111114501953125</LongitudeDegrees>
            </Position>
            <AltitudeMeters>36</AltitudeMeters>
            <DistanceMeters>NAN</DistanceMeters>
          </Trackpoint>
          <Trackpoint>
            <Time>2022-07-14T10:59:58.000Z</Time>
            <Position>
              <LatitudeDegrees>43.34619543515145778656005859375</LatitudeDegrees>
              <LongitudeDegrees>-4.05346582643687725067138671875</LongitudeDegrees>
            </Position>
            <AltitudeMeters>36</AltitudeMeters>
            <DistanceMeters>NAN</DistanceMeters>
          </Trackpoint>
          <Trackpoint>
            <Time>2022-07-14T11:00:00.000Z</Time>
            <Position>
              <LatitudeDegrees>43.34616190753877162933349609375</LatitudeDegrees>
              <LongitudeDegrees>-4.0534670837223529815673828125</LongitudeDegrees>
            </Position>
            <AltitudeMeters>36</AltitudeMeters>
            <DistanceMeters>NAN</DistanceMeters>
          </Trackpoint>
          <Trackpoint>
            <Time>2022-07-14T11:00:01.000Z</Time>
            <Position>
              <LatitudeDegrees>43.34615721367299556732177734375</LatitudeDegrees>
              <LongitudeDegrees>-4.05346901156008243560791015625</LongitudeDegrees>
            </Position>
            <AltitudeMeters>36</AltitudeMeters>
            <DistanceMeters>NAN</DistanceMeters>
          </Trackpoint>
          <Trackpoint>
            <Time>2022-07-14T11:00:04.000Z</Time>
            <Position>
              <LatitudeDegrees>43.34614966996014118194580078125</LatitudeDegrees>
              <LongitudeDegrees>-4.05346222221851348876953125</LongitudeDegrees>
            </Position>
            <AltitudeMeters>36</AltitudeMeters>
            <DistanceMeters>NAN</DistanceMeters>
          </Trackpoint>
          <Trackpoint>
            <Time>2022-07-14T11:00:05.000Z</Time>
            <Position>
              <LatitudeDegrees>43.34614522755146026611328125</LatitudeDegrees>
              <LongitudeDegrees>-4.0534546785056591033935546875</LongitudeDegrees>
            </Position>
            <AltitudeMeters>36</AltitudeMeters>
            <DistanceMeters>NAN</DistanceMeters>
          </Trackpoint>
          <Trackpoint>
            <Time>2022-07-14T11:00:07.000Z</Time>
            <Position>
              <LatitudeDegrees>43.34609485231339931488037109375</LatitudeDegrees>
              <LongitudeDegrees>-4.0534462966024875640869140625</LongitudeDegrees>
            </Position>
            <AltitudeMeters>36</AltitudeMeters>
            <DistanceMeters>NAN</DistanceMeters>
          </Trackpoint>
          <Trackpoint>
            <Time>2022-07-14T11:00:09.000Z</Time>
            <Position>
              <LatitudeDegrees>43.346060402691364288330078125</LatitudeDegrees>
              <LongitudeDegrees>-4.05345627106726169586181640625</LongitudeDegrees>
            </Position>
            <AltitudeMeters>36</AltitudeMeters>
            <DistanceMeters>NAN</DistanceMeters>
          </Trackpoint>
          <Trackpoint>
            <Time>2022-07-14T11:00:52.000Z</Time>
            <Position>
              <LatitudeDegrees>43.34593961946666240692138671875</LatitudeDegrees>
              <LongitudeDegrees>-4.0534285269677639007568359375</LongitudeDegrees>
            </Position>
            <AltitudeMeters>35.59999847412109375</AltitudeMeters>
            <DistanceMeters>NAN</DistanceMeters>
          </Trackpoint>
          <Trackpoint>
            <Time>2022-07-14T11:00:53.000Z</Time>
            <Position>
              <LatitudeDegrees>43.34592754952609539031982421875</LatitudeDegrees>
              <LongitudeDegrees>-4.05340983532369136810302734375</LongitudeDegrees>
            </Position>
            <AltitudeMeters>35.59999847412109375</AltitudeMeters>
            <DistanceMeters>NAN</DistanceMeters>
          </Trackpoint>
          <Trackpoint>
            <Time>2022-07-14T11:00:57.000Z</Time>
            <Position>
              <LatitudeDegrees>43.345892429351806640625</LatitudeDegrees>
              <LongitudeDegrees>-4.0533839352428913116455078125</LongitudeDegrees>
            </Position>
            <AltitudeMeters>35.59999847412109375</AltitudeMeters>
            <DistanceMeters>NAN</DistanceMeters>
          </Trackpoint>
          <Trackpoint>
            <Time>2022-07-14T11:01:00.000Z</Time>
            <Position>
              <LatitudeDegrees>43.34595805965363979339599609375</LatitudeDegrees>
              <LongitudeDegrees>-4.0534360706806182861328125</LongitudeDegrees>
            </Position>
            <AltitudeMeters>35.59999847412109375</AltitudeMeters>
            <DistanceMeters>NAN</DistanceMeters>
          </Trackpoint>
          <Trackpoint>
            <Time>2022-07-14T11:02:57.000Z</Time>
            <Position>
              <LatitudeDegrees>43.34612066857516765594482421875</LatitudeDegrees>
              <LongitudeDegrees>-4.05352282337844371795654296875</LongitudeDegrees>
            </Position>
            <AltitudeMeters>34.59999847412109375</AltitudeMeters>
            <DistanceMeters>NAN</DistanceMeters>
          </Trackpoint>
          <Trackpoint>
            <Time>2022-07-14T11:02:58.000Z</Time>
            <Position>
              <LatitudeDegrees>43.34612066857516765594482421875</LatitudeDegrees>
              <LongitudeDegrees>-4.05352282337844371795654296875</LongitudeDegrees>
            </Position>
            <AltitudeMeters>34.59999847412109375</AltitudeMeters>
            <DistanceMeters>NAN</DistanceMeters>
          </Trackpoint>
          <Trackpoint>
            <Time>2022-07-14T11:02:59.000Z</Time>
            <Position>
              <LatitudeDegrees>43.34611840546131134033203125</LatitudeDegrees>
              <LongitudeDegrees>-4.0535213984549045562744140625</LongitudeDegrees>
            </Position>
            <AltitudeMeters>34.59999847412109375</AltitudeMeters>
            <DistanceMeters>NAN</DistanceMeters>
          </Trackpoint>
          <Trackpoint>
            <Time>2022-07-14T11:03:15.000Z</Time>
            <Position>
              <LatitudeDegrees>43.34597398526966571807861328125</LatitudeDegrees>
              <LongitudeDegrees>-4.05349709093570709228515625</LongitudeDegrees>
            </Position>
            <AltitudeMeters>34.799999237060546875</AltitudeMeters>
            <DistanceMeters>NAN</DistanceMeters>
          </Trackpoint>
          <Trackpoint>
            <Time>2022-07-14T11:03:16.000Z</Time>
            <Position>
              <LatitudeDegrees>43.3459720574319362640380859375</LatitudeDegrees>
              <LongitudeDegrees>-4.05348393134772777557373046875</LongitudeDegrees>
            </Position>
            <AltitudeMeters>34.59999847412109375</AltitudeMeters>
            <DistanceMeters>NAN</DistanceMeters>
          </Trackpoint>
          <Trackpoint>
            <Time>2022-07-14T11:03:17.000Z</Time>
            <Position>
              <LatitudeDegrees>43.34596644155681133270263671875</LatitudeDegrees>
              <LongitudeDegrees>-4.05346515588462352752685546875</LongitudeDegrees>
            </Position>
            <AltitudeMeters>34.40000152587890625</AltitudeMeters>
            <DistanceMeters>NAN</DistanceMeters>
          </Trackpoint>
          <Trackpoint>
            <Time>2022-07-14T11:03:18.000Z</Time>
            <Position>
              <LatitudeDegrees>43.345989994704723358154296875</LatitudeDegrees>
              <LongitudeDegrees>-4.053445123136043548583984375</LongitudeDegrees>
            </Position>
            <AltitudeMeters>34.40000152587890625</AltitudeMeters>
            <DistanceMeters>NAN</DistanceMeters>
          </Trackpoint>
          <Trackpoint>
            <Time>2022-07-14T11:03:32.000Z</Time>
            <Position>
              <LatitudeDegrees>43.345930315554141998291015625</LatitudeDegrees>
              <LongitudeDegrees>-4.053427688777446746826171875</LongitudeDegrees>
            </Position>
            <AltitudeMeters>34.200000762939453125</AltitudeMeters>
            <DistanceMeters>NAN</DistanceMeters>
          </Trackpoint>
          <Trackpoint>
            <Time>2022-07-14T11:03:33.000Z</Time>
            <Position>
              <LatitudeDegrees>43.34592872299253940582275390625</LatitudeDegrees>
              <LongitudeDegrees>-4.05342735350131988525390625</LongitudeDegrees>
            </Position>
            <AltitudeMeters>34.200000762939453125</AltitudeMeters>
            <DistanceMeters>NAN</DistanceMeters>
          </Trackpoint>
          <Trackpoint>
            <Time>2022-07-14T11:03:34.000Z</Time>
            <Position>
              <LatitudeDegrees>43.34593257866799831390380859375</LatitudeDegrees>
              <LongitudeDegrees>-4.053425677120685577392578125</LongitudeDegrees>
            </Position>
            <AltitudeMeters>34.200000762939453125</AltitudeMeters>
            <DistanceMeters>NAN</DistanceMeters>
          </Trackpoint>
          <Trackpoint>
            <Time>2022-07-14T11:03:35.000Z</Time>
            <Position>
              <LatitudeDegrees>43.34593408741056919097900390625</LatitudeDegrees>
              <LongitudeDegrees>-4.05342492274940013885498046875</LongitudeDegrees>
            </Position>
            <AltitudeMeters>34.40000152587890625</AltitudeMeters>
            <DistanceMeters>NAN</DistanceMeters>
          </Trackpoint>
          <Trackpoint>
            <Time>2022-07-14T11:03:38.000Z</Time>
            <Position>
              <LatitudeDegrees>43.34588664583861827850341796875</LatitudeDegrees>
              <LongitudeDegrees>-4.05340447090566158294677734375</LongitudeDegrees>
            </Position>
            <AltitudeMeters>34.200000762939453125</AltitudeMeters>
            <DistanceMeters>NAN</DistanceMeters>
          </Trackpoint>
          <Trackpoint>
            <Time>2022-07-14T11:03:40.000Z</Time>
            <Position>
              <LatitudeDegrees>43.34587910212576389312744140625</LatitudeDegrees>
              <LongitudeDegrees>-4.05340882949531078338623046875</LongitudeDegrees>
            </Position>
            <AltitudeMeters>34.200000762939453125</AltitudeMeters>
            <DistanceMeters>NAN</DistanceMeters>
          </Trackpoint>
          <Trackpoint>
            <Time>2022-07-14T11:03:44.000Z</Time>
            <Position>
              <LatitudeDegrees>43.3459006436169147491455078125</LatitudeDegrees>
              <LongitudeDegrees>-4.05341084115207195281982421875</LongitudeDegrees>
            </Position>
            <AltitudeMeters>34.200000762939453125</AltitudeMeters>
            <DistanceMeters>NAN</DistanceMeters>
          </Trackpoint>
          <Trackpoint>
            <Time>2022-07-14T11:03:46.000Z</Time>
            <Position>
              <LatitudeDegrees>43.3459103666245937347412109375</LatitudeDegrees>
              <LongitudeDegrees>-4.05340597964823246002197265625</LongitudeDegrees>
            </Position>
            <AltitudeMeters>34.200000762939453125</AltitudeMeters>
            <DistanceMeters>NAN</DistanceMeters>
          </Trackpoint>
          <Trackpoint>
            <Time>2022-07-14T11:03:50.000Z</Time>
            <Position>
              <LatitudeDegrees>43.3459066785871982574462890625</LatitudeDegrees>
              <LongitudeDegrees>-4.05337907373905181884765625</LongitudeDegrees>
            </Position>
            <AltitudeMeters>34.200000762939453125</AltitudeMeters>
            <DistanceMeters>NAN</DistanceMeters>
          </Trackpoint>
          <Trackpoint>
            <Time>2022-07-14T11:03:55.000Z</Time>
            <Position>
              <LatitudeDegrees>43.3459505997598171234130859375</LatitudeDegrees>
              <LongitudeDegrees>-4.05343565158545970916748046875</LongitudeDegrees>
            </Position>
            <AltitudeMeters>34.200000762939453125</AltitudeMeters>
            <DistanceMeters>NAN</DistanceMeters>
          </Trackpoint>
          <Trackpoint>
            <Time>2022-07-14T11:04:00.000Z</Time>
            <Position>
              <LatitudeDegrees>43.34599628113210201263427734375</LatitudeDegrees>
              <LongitudeDegrees>-4.05347487889230251312255859375</LongitudeDegrees>
            </Position>
            <AltitudeMeters>34.200000762939453125</AltitudeMeters>
            <DistanceMeters>NAN</DistanceMeters>
          </Trackpoint>
          <Trackpoint>
            <Time>2022-07-14T11:04:01.000Z</Time>
            <Position>
              <LatitudeDegrees>43.34598722867667675018310546875</LatitudeDegrees>
              <LongitudeDegrees>-4.053460545837879180908203125</LongitudeDegrees>
            </Position>
            <AltitudeMeters>34.200000762939453125</AltitudeMeters>
            <DistanceMeters>NAN</DistanceMeters>
          </Trackpoint>
          <Trackpoint>
            <Time>2022-07-14T11:04:04.000Z</Time>
            <Position>
              <LatitudeDegrees>43.345967195928096771240234375</LatitudeDegrees>
              <LongitudeDegrees>-4.0534395910799503326416015625</LongitudeDegrees>
            </Position>
            <AltitudeMeters>34.40000152587890625</AltitudeMeters>
            <DistanceMeters>NAN</DistanceMeters>
          </Trackpoint>
          <Trackpoint>
            <Time>2022-07-14T11:04:07.000Z</Time>
            <Position>
              <LatitudeDegrees>43.3460035733878612518310546875</LatitudeDegrees>
              <LongitudeDegrees>-4.0534268505871295928955078125</LongitudeDegrees>
            </Position>
            <AltitudeMeters>34.200000762939453125</AltitudeMeters>
            <DistanceMeters>NAN</DistanceMeters>
          </Trackpoint>
          <Trackpoint>
            <Time>2022-07-14T11:04:10.000Z</Time>
            <Position>
              <LatitudeDegrees>43.34597314707934856414794921875</LatitudeDegrees>
              <LongitudeDegrees>-4.053427688777446746826171875</LongitudeDegrees>
            </Position>
            <AltitudeMeters>34.200000762939453125</AltitudeMeters>
            <DistanceMeters>NAN</DistanceMeters>
          </Trackpoint>
          <Trackpoint>
            <Time>2022-07-14T11:04:13.000Z</Time>
            <Position>
              <LatitudeDegrees>43.3459499292075634002685546875</LatitudeDegrees>
              <LongitudeDegrees>-4.053452499210834503173828125</LongitudeDegrees>
            </Position>
            <AltitudeMeters>34.200000762939453125</AltitudeMeters>
            <DistanceMeters>NAN</DistanceMeters>
          </Trackpoint>
          <Trackpoint>
            <Time>2022-07-14T11:04:17.000Z</Time>
            <Position>
              <LatitudeDegrees>43.34595437161624431610107421875</LatitudeDegrees>
              <LongitudeDegrees>-4.05346649698913097381591796875</LongitudeDegrees>
            </Position>
            <AltitudeMeters>34.200000762939453125</AltitudeMeters>
            <DistanceMeters>NAN</DistanceMeters>
          </Trackpoint>
          <Trackpoint>
            <Time>2022-07-14T11:04:21.000Z</Time>
            <Position>
              <LatitudeDegrees>43.34601254202425479888916015625</LatitudeDegrees>
              <LongitudeDegrees>-4.0535167045891284942626953125</LongitudeDegrees>
            </Position>
            <AltitudeMeters>34.40000152587890625</AltitudeMeters>
            <DistanceMeters>NAN</DistanceMeters>
          </Trackpoint>
          <Trackpoint>
            <Time>2022-07-14T11:04:24.000Z</Time>
            <Position>
              <LatitudeDegrees>43.34603684954345226287841796875</LatitudeDegrees>
              <LongitudeDegrees>-4.05357311479747295379638671875</LongitudeDegrees>
            </Position>
            <AltitudeMeters>34</AltitudeMeters>
            <DistanceMeters>NAN</DistanceMeters>
          </Trackpoint>
          <Trackpoint>
            <Time>2022-07-14T11:04:57.000Z</Time>
            <Position>
              <LatitudeDegrees>43.34603215567767620086669921875</LatitudeDegrees>
              <LongitudeDegrees>-4.053528606891632080078125</LongitudeDegrees>
            </Position>
            <AltitudeMeters>33.40000152587890625</AltitudeMeters>
            <DistanceMeters>NAN</DistanceMeters>
          </Trackpoint>
          <Trackpoint>
            <Time>2022-07-14T11:04:58.000Z</Time>
            <Position>
              <LatitudeDegrees>43.34602679125964641571044921875</LatitudeDegrees>
              <LongitudeDegrees>-4.0535163693130016326904296875</LongitudeDegrees>
            </Position>
            <AltitudeMeters>33.40000152587890625</AltitudeMeters>
            <DistanceMeters>NAN</DistanceMeters>
          </Trackpoint>
          <Trackpoint>
            <Time>2022-07-14T11:05:02.000Z</Time>
            <Position>
              <LatitudeDegrees>43.346001394093036651611328125</LatitudeDegrees>
              <LongitudeDegrees>-4.05344252474606037139892578125</LongitudeDegrees>
            </Position>
            <AltitudeMeters>33.40000152587890625</AltitudeMeters>
            <DistanceMeters>NAN</DistanceMeters>
          </Trackpoint>
          <Trackpoint>
            <Time>2022-07-14T11:05:04.000Z</Time>
            <Position>
              <LatitudeDegrees>43.3460065908730030059814453125</LatitudeDegrees>
              <LongitudeDegrees>-4.053440093994140625</LongitudeDegrees>
            </Position>
            <AltitudeMeters>33.40000152587890625</AltitudeMeters>
            <DistanceMeters>NAN</DistanceMeters>
          </Trackpoint>
          <Trackpoint>
            <Time>2022-07-14T11:05:44.000Z</Time>
            <Position>
              <LatitudeDegrees>43.3464484848082065582275390625</LatitudeDegrees>
              <LongitudeDegrees>-4.05363396741449832916259765625</LongitudeDegrees>
            </Position>
            <AltitudeMeters>33.200000762939453125</AltitudeMeters>
            <DistanceMeters>NAN</DistanceMeters>
          </Trackpoint>
          <Trackpoint>
            <Time>2022-07-14T11:05:45.000Z</Time>
            <Position>
              <LatitudeDegrees>43.346435911953449249267578125</LatitudeDegrees>
              <LongitudeDegrees>-4.05365265905857086181640625</LongitudeDegrees>
            </Position>
            <AltitudeMeters>33.40000152587890625</AltitudeMeters>
            <DistanceMeters>NAN</DistanceMeters>
          </Trackpoint>
          <Trackpoint>
            <Time>2022-07-14T11:05:51.000Z</Time>
            <Position>
              <LatitudeDegrees>43.34633155725896358489990234375</LatitudeDegrees>
              <LongitudeDegrees>-4.05366464518010616302490234375</LongitudeDegrees>
            </Position>
            <AltitudeMeters>33.799999237060546875</AltitudeMeters>
            <DistanceMeters>NAN</DistanceMeters>
          </Trackpoint>
          <Trackpoint>
            <Time>2022-07-14T11:05:55.000Z</Time>
            <Position>
              <LatitudeDegrees>43.34627657197415828704833984375</LatitudeDegrees>
              <LongitudeDegrees>-4.053667075932025909423828125</LongitudeDegrees>
            </Position>
            <AltitudeMeters>33.59999847412109375</AltitudeMeters>
            <DistanceMeters>NAN</DistanceMeters>
          </Trackpoint>
          <Trackpoint>
            <Time>2022-07-14T11:05:58.000Z</Time>
            <Position>
              <LatitudeDegrees>43.34621337242424488067626953125</LatitudeDegrees>
              <LongitudeDegrees>-4.0536591969430446624755859375</LongitudeDegrees>
            </Position>
            <AltitudeMeters>33.59999847412109375</AltitudeMeters>
            <DistanceMeters>NAN</DistanceMeters>
          </Trackpoint>
          <Trackpoint>
            <Time>2022-07-14T11:06:04.000Z</Time>
            <Position>
              <LatitudeDegrees>43.3460826985538005828857421875</LatitudeDegrees>
              <LongitudeDegrees>-4.0536980889737606048583984375</LongitudeDegrees>
            </Position>
            <AltitudeMeters>33.40000152587890625</AltitudeMeters>
            <DistanceMeters>NAN</DistanceMeters>
          </Trackpoint>
          <Trackpoint>
            <Time>2022-07-14T11:06:08.000Z</Time>
            <Position>
              <LatitudeDegrees>43.34607557393610477447509765625</LatitudeDegrees>
              <LongitudeDegrees>-4.053756929934024810791015625</LongitudeDegrees>
            </Position>
            <AltitudeMeters>33.40000152587890625</AltitudeMeters>
            <DistanceMeters>NAN</DistanceMeters>
          </Trackpoint>
          <Trackpoint>
            <Time>2022-07-14T11:06:09.000Z</Time>
            <Position>
              <LatitudeDegrees>43.34606199525296688079833984375</LatitudeDegrees>
              <LongitudeDegrees>-4.0537570975720882415771484375</LongitudeDegrees>
            </Position>
            <AltitudeMeters>33.40000152587890625</AltitudeMeters>
            <DistanceMeters>NAN</DistanceMeters>
          </Trackpoint>
          <Trackpoint>
            <Time>2022-07-14T11:06:12.000Z</Time>
            <Position>
              <LatitudeDegrees>43.34612184204161167144775390625</LatitudeDegrees>
              <LongitudeDegrees>-4.05376707203686237335205078125</LongitudeDegrees>
            </Position>
            <AltitudeMeters>33.40000152587890625</AltitudeMeters>
            <DistanceMeters>NAN</DistanceMeters>
          </Trackpoint>
          <Trackpoint>
            <Time>2022-07-14T11:06:13.000Z</Time>
            <Position>
              <LatitudeDegrees>43.34613692946732044219970703125</LatitudeDegrees>
              <LongitudeDegrees>-4.0537581034004688262939453125</LongitudeDegrees>
            </Position>
            <AltitudeMeters>33.40000152587890625</AltitudeMeters>
            <DistanceMeters>NAN</DistanceMeters>
          </Trackpoint>
          <Trackpoint>
            <Time>2022-07-14T11:06:15.000Z</Time>
            <Position>
              <LatitudeDegrees>43.3461457304656505584716796875</LatitudeDegrees>
              <LongitudeDegrees>-4.05372910201549530029296875</LongitudeDegrees>
            </Position>
            <AltitudeMeters>33.40000152587890625</AltitudeMeters>
            <DistanceMeters>NAN</DistanceMeters>
          </Trackpoint>
          <Trackpoint>
            <Time>2022-07-14T11:06:21.000Z</Time>
            <Position>
              <LatitudeDegrees>43.34614447318017482757568359375</LatitudeDegrees>
              <LongitudeDegrees>-4.0536786429584026336669921875</LongitudeDegrees>
            </Position>
            <AltitudeMeters>33.59999847412109375</AltitudeMeters>
            <DistanceMeters>NAN</DistanceMeters>
          </Trackpoint>
          <Trackpoint>
            <Time>2022-07-14T11:06:24.000Z</Time>
            <Position>
              <LatitudeDegrees>43.346138186752796173095703125</LatitudeDegrees>
              <LongitudeDegrees>-4.05365374870598316192626953125</LongitudeDegrees>
            </Position>
            <AltitudeMeters>33.59999847412109375</AltitudeMeters>
            <DistanceMeters>NAN</DistanceMeters>
          </Trackpoint>
          <Trackpoint>
            <Time>2022-07-14T11:06:25.000Z</Time>
            <Position>
              <LatitudeDegrees>43.34613173268735408782958984375</LatitudeDegrees>
              <LongitudeDegrees>-4.0536452829837799072265625</LongitudeDegrees>
            </Position>
            <AltitudeMeters>33.799999237060546875</AltitudeMeters>
            <DistanceMeters>NAN</DistanceMeters>
          </Trackpoint>
          <Trackpoint>
            <Time>2022-07-14T11:06:26.000Z</Time>
            <Position>
              <LatitudeDegrees>43.34611362777650356292724609375</LatitudeDegrees>
              <LongitudeDegrees>-4.0536333806812763214111328125</LongitudeDegrees>
            </Position>
            <AltitudeMeters>33.799999237060546875</AltitudeMeters>
            <DistanceMeters>NAN</DistanceMeters>
          </Trackpoint>
          <Trackpoint>
            <Time>2022-07-14T11:06:27.000Z</Time>
            <Position>
              <LatitudeDegrees>43.3461029827594757080078125</LatitudeDegrees>
              <LongitudeDegrees>-4.05361242592334747314453125</LongitudeDegrees>
            </Position>
            <AltitudeMeters>33.799999237060546875</AltitudeMeters>
            <DistanceMeters>NAN</DistanceMeters>
          </Trackpoint>
          <Trackpoint>
            <Time>2022-07-14T11:06:29.000Z</Time>
            <Position>
              <LatitudeDegrees>43.34611077792942523956298828125</LatitudeDegrees>
              <LongitudeDegrees>-4.05358493328094482421875</LongitudeDegrees>
            </Position>
            <AltitudeMeters>33.799999237060546875</AltitudeMeters>
            <DistanceMeters>NAN</DistanceMeters>
          </Trackpoint>
          <Trackpoint>
            <Time>2022-07-14T11:06:44.000Z</Time>
            <Position>
              <LatitudeDegrees>43.346114046871662139892578125</LatitudeDegrees>
              <LongitudeDegrees>-4.0535089932382106781005859375</LongitudeDegrees>
            </Position>
            <AltitudeMeters>34</AltitudeMeters>
            <DistanceMeters>NAN</DistanceMeters>
          </Trackpoint>
          <Trackpoint>
            <Time>2022-07-14T11:06:46.000Z</Time>
            <Position>
              <LatitudeDegrees>43.346161656081676483154296875</LatitudeDegrees>
              <LongitudeDegrees>-4.0535338036715984344482421875</LongitudeDegrees>
            </Position>
            <AltitudeMeters>34.59999847412109375</AltitudeMeters>
            <DistanceMeters>NAN</DistanceMeters>
          </Trackpoint>
          <Trackpoint>
            <Time>2022-07-14T11:06:51.000Z</Time>
            <Position>
              <LatitudeDegrees>43.3462746441364288330078125</LatitudeDegrees>
              <LongitudeDegrees>-4.053626842796802520751953125</LongitudeDegrees>
            </Position>
            <AltitudeMeters>34.40000152587890625</AltitudeMeters>
            <DistanceMeters>NAN</DistanceMeters>
          </Trackpoint>
          <Trackpoint>
            <Time>2022-07-14T11:06:52.000Z</Time>
            <Position>
              <LatitudeDegrees>43.3463653363287448883056640625</LatitudeDegrees>
              <LongitudeDegrees>-4.053663723170757293701171875</LongitudeDegrees>
            </Position>
            <AltitudeMeters>34.40000152587890625</AltitudeMeters>
            <DistanceMeters>NAN</DistanceMeters>
          </Trackpoint>
          <Trackpoint>
            <Time>2022-07-14T11:06:56.000Z</Time>
            <Position>
              <LatitudeDegrees>43.34634379483759403228759765625</LatitudeDegrees>
              <LongitudeDegrees>-4.053685180842876434326171875</LongitudeDegrees>
            </Position>
            <AltitudeMeters>34.200000762939453125</AltitudeMeters>
            <DistanceMeters>NAN</DistanceMeters>
          </Trackpoint>
          <Trackpoint>
            <Time>2022-07-14T11:07:00.000Z</Time>
            <Position>
              <LatitudeDegrees>43.34631060250103473663330078125</LatitudeDegrees>
              <LongitudeDegrees>-4.05365391634404659271240234375</LongitudeDegrees>
            </Position>
            <AltitudeMeters>34.40000152587890625</AltitudeMeters>
            <DistanceMeters>NAN</DistanceMeters>
          </Trackpoint>
          <Trackpoint>
            <Time>2022-07-14T11:07:22.000Z</Time>
            <Position>
              <LatitudeDegrees>43.3462129533290863037109375</LatitudeDegrees>
              <LongitudeDegrees>-4.05370420776307582855224609375</LongitudeDegrees>
            </Position>
            <AltitudeMeters>34.200000762939453125</AltitudeMeters>
            <DistanceMeters>NAN</DistanceMeters>
          </Trackpoint>
          <Trackpoint>
            <Time>2022-07-14T11:07:23.000Z</Time>
            <Position>
              <LatitudeDegrees>43.34625209681689739227294921875</LatitudeDegrees>
              <LongitudeDegrees>-4.05371611006557941436767578125</LongitudeDegrees>
            </Position>
            <AltitudeMeters>34.200000762939453125</AltitudeMeters>
            <DistanceMeters>NAN</DistanceMeters>
          </Trackpoint>
          <Trackpoint>
            <Time>2022-07-14T11:07:38.000Z</Time>
            <Position>
              <LatitudeDegrees>43.346540518105030059814453125</LatitudeDegrees>
              <LongitudeDegrees>-4.0537195466458797454833984375</LongitudeDegrees>
            </Position>
            <AltitudeMeters>33.799999237060546875</AltitudeMeters>
            <DistanceMeters>NAN</DistanceMeters>
          </Trackpoint>
          <Trackpoint>
            <Time>2022-07-14T11:08:18.000Z</Time>
            <Position>
              <LatitudeDegrees>43.34600416012108325958251953125</LatitudeDegrees>
              <LongitudeDegrees>-4.05355970375239849090576171875</LongitudeDegrees>
            </Position>
            <AltitudeMeters>33.40000152587890625</AltitudeMeters>
            <DistanceMeters>NAN</DistanceMeters>
          </Trackpoint>
          <Trackpoint>
            <Time>2022-07-14T11:08:21.000Z</Time>
            <Position>
              <LatitudeDegrees>43.34587273187935352325439453125</LatitudeDegrees>
              <LongitudeDegrees>-4.0535358153283596038818359375</LongitudeDegrees>
            </Position>
            <AltitudeMeters>33.40000152587890625</AltitudeMeters>
            <DistanceMeters>NAN</DistanceMeters>
          </Trackpoint>
          <Trackpoint>
            <Time>2022-07-14T11:08:23.000Z</Time>
            <Position>
              <LatitudeDegrees>43.3456625975668430328369140625</LatitudeDegrees>
              <LongitudeDegrees>-4.053516872227191925048828125</LongitudeDegrees>
            </Position>
            <AltitudeMeters>33.40000152587890625</AltitudeMeters>
            <DistanceMeters>NAN</DistanceMeters>
          </Trackpoint>
          <Trackpoint>
            <Time>2022-07-14T11:08:28.000Z</Time>
            <Position>
              <LatitudeDegrees>43.3455596677958965301513671875</LatitudeDegrees>
              <LongitudeDegrees>-4.0535460412502288818359375</LongitudeDegrees>
            </Position>
            <AltitudeMeters>33.40000152587890625</AltitudeMeters>
            <DistanceMeters>NAN</DistanceMeters>
          </Trackpoint>
          <Trackpoint>
            <Time>2022-07-14T11:08:30.000Z</Time>
            <Position>
              <LatitudeDegrees>43.34551893174648284912109375</LatitudeDegrees>
              <LongitudeDegrees>-4.053614437580108642578125</LongitudeDegrees>
            </Position>
            <AltitudeMeters>33.40000152587890625</AltitudeMeters>
            <DistanceMeters>NAN</DistanceMeters>
          </Trackpoint>
          <Trackpoint>
            <Time>2022-07-14T11:08:34.000Z</Time>
            <Position>
              <LatitudeDegrees>43.34561741910874843597412109375</LatitudeDegrees>
              <LongitudeDegrees>-4.05355735681951045989990234375</LongitudeDegrees>
            </Position>
            <AltitudeMeters>33.59999847412109375</AltitudeMeters>
            <DistanceMeters>NAN</DistanceMeters>
          </Trackpoint>
          <Trackpoint>
            <Time>2022-07-14T11:08:38.000Z</Time>
            <Position>
              <LatitudeDegrees>43.3455703966319561004638671875</LatitudeDegrees>
              <LongitudeDegrees>-4.05350438319146633148193359375</LongitudeDegrees>
            </Position>
            <AltitudeMeters>33.59999847412109375</AltitudeMeters>
            <DistanceMeters>NAN</DistanceMeters>
          </Trackpoint>
          <Trackpoint>
            <Time>2022-07-14T11:08:40.000Z</Time>
            <Position>
              <LatitudeDegrees>43.34558137692511081695556640625</LatitudeDegrees>
              <LongitudeDegrees>-4.05351511202752590179443359375</LongitudeDegrees>
            </Position>
            <AltitudeMeters>34</AltitudeMeters>
            <DistanceMeters>NAN</DistanceMeters>
          </Trackpoint>
          <Trackpoint>
            <Time>2022-07-14T11:08:41.000Z</Time>
            <Position>
              <LatitudeDegrees>43.345590345561504364013671875</LatitudeDegrees>
              <LongitudeDegrees>-4.05350773595273494720458984375</LongitudeDegrees>
            </Position>
            <AltitudeMeters>34</AltitudeMeters>
            <DistanceMeters>NAN</DistanceMeters>
          </Trackpoint>
          <Trackpoint>
            <Time>2022-07-14T11:08:44.000Z</Time>
            <Position>
              <LatitudeDegrees>43.3456389605998992919921875</LatitudeDegrees>
              <LongitudeDegrees>-4.05348108150064945220947265625</LongitudeDegrees>
            </Position>
            <AltitudeMeters>34.200000762939453125</AltitudeMeters>
            <DistanceMeters>NAN</DistanceMeters>
          </Trackpoint>
          <Trackpoint>
            <Time>2022-07-14T11:08:47.000Z</Time>
            <Position>
              <LatitudeDegrees>43.3457447402179241180419921875</LatitudeDegrees>
              <LongitudeDegrees>-4.05344369821250438690185546875</LongitudeDegrees>
            </Position>
            <AltitudeMeters>34</AltitudeMeters>
            <DistanceMeters>NAN</DistanceMeters>
          </Trackpoint>
          <Trackpoint>
            <Time>2022-07-14T11:08:51.000Z</Time>
            <Position>
              <LatitudeDegrees>43.3457742445170879364013671875</LatitudeDegrees>
              <LongitudeDegrees>-4.05349885113537311553955078125</LongitudeDegrees>
            </Position>
            <AltitudeMeters>33.799999237060546875</AltitudeMeters>
            <DistanceMeters>NAN</DistanceMeters>
          </Trackpoint>
          <Trackpoint>
            <Time>2022-07-14T11:08:53.000Z</Time>
            <Position>
              <LatitudeDegrees>43.345844484865665435791015625</LatitudeDegrees>
              <LongitudeDegrees>-4.0534804947674274444580078125</LongitudeDegrees>
            </Position>
            <AltitudeMeters>33.799999237060546875</AltitudeMeters>
            <DistanceMeters>NAN</DistanceMeters>
          </Trackpoint>
          <Trackpoint>
            <Time>2022-07-14T11:08:55.000Z</Time>
            <Position>
              <LatitudeDegrees>43.34588773548603057861328125</LatitudeDegrees>
              <LongitudeDegrees>-4.05342006124556064605712890625</LongitudeDegrees>
            </Position>
            <AltitudeMeters>33.799999237060546875</AltitudeMeters>
            <DistanceMeters>NAN</DistanceMeters>
          </Trackpoint>
          <Trackpoint>
            <Time>2022-07-14T11:09:52.000Z</Time>
            <Position>
              <LatitudeDegrees>43.3460086025297641754150390625</LatitudeDegrees>
              <LongitudeDegrees>-4.0535835921764373779296875</LongitudeDegrees>
            </Position>
            <AltitudeMeters>33.40000152587890625</AltitudeMeters>
            <DistanceMeters>NAN</DistanceMeters>
          </Trackpoint>
          <Trackpoint>
            <Time>2022-07-14T11:09:53.000Z</Time>
            <Position>
              <LatitudeDegrees>43.34602184593677520751953125</LatitudeDegrees>
              <LongitudeDegrees>-4.05359457246959209442138671875</LongitudeDegrees>
            </Position>
            <AltitudeMeters>33.40000152587890625</AltitudeMeters>
            <DistanceMeters>NAN</DistanceMeters>
          </Trackpoint>
          <Trackpoint>
            <Time>2022-07-14T11:09:55.000Z</Time>
            <Position>
              <LatitudeDegrees>43.34605394862592220306396484375</LatitudeDegrees>
              <LongitudeDegrees>-4.053617455065250396728515625</LongitudeDegrees>
            </Position>
            <AltitudeMeters>33.40000152587890625</AltitudeMeters>
            <DistanceMeters>NAN</DistanceMeters>
          </Trackpoint>
          <Trackpoint>
            <Time>2022-07-14T11:09:57.000Z</Time>
            <Position>
              <LatitudeDegrees>43.34610239602625370025634765625</LatitudeDegrees>
              <LongitudeDegrees>-4.05362583696842193603515625</LongitudeDegrees>
            </Position>
            <AltitudeMeters>33.40000152587890625</AltitudeMeters>
            <DistanceMeters>NAN</DistanceMeters>
          </Trackpoint>
          <Trackpoint>
            <Time>2022-07-14T11:10:01.000Z</Time>
            <Position>
              <LatitudeDegrees>43.3461259491741657257080078125</LatitudeDegrees>
              <LongitudeDegrees>-4.05354176647961139678955078125</LongitudeDegrees>
            </Position>
            <AltitudeMeters>33.40000152587890625</AltitudeMeters>
            <DistanceMeters>NAN</DistanceMeters>
          </Trackpoint>
          <Trackpoint>
            <Time>2022-07-14T11:10:02.000Z</Time>
            <Position>
              <LatitudeDegrees>43.34615369327366352081298828125</LatitudeDegrees>
              <LongitudeDegrees>-4.0535364858806133270263671875</LongitudeDegrees>
            </Position>
            <AltitudeMeters>34.59999847412109375</AltitudeMeters>
            <DistanceMeters>NAN</DistanceMeters>
          </Trackpoint>
          <Trackpoint>
            <Time>2022-07-14T11:10:05.000Z</Time>
            <Position>
              <LatitudeDegrees>43.34619484841823577880859375</LatitudeDegrees>
              <LongitudeDegrees>-4.05354495160281658172607421875</LongitudeDegrees>
            </Position>
            <AltitudeMeters>34.59999847412109375</AltitudeMeters>
            <DistanceMeters>NAN</DistanceMeters>
          </Trackpoint>
          <Trackpoint>
            <Time>2022-07-14T11:10:09.000Z</Time>
            <Position>
              <LatitudeDegrees>43.3462107740342617034912109375</LatitudeDegrees>
              <LongitudeDegrees>-4.05359423719346523284912109375</LongitudeDegrees>
            </Position>
            <AltitudeMeters>34.40000152587890625</AltitudeMeters>
            <DistanceMeters>NAN</DistanceMeters>
          </Trackpoint>
          <Trackpoint>
            <Time>2022-07-14T11:10:13.000Z</Time>
            <Position>
              <LatitudeDegrees>43.34614120423793792724609375</LatitudeDegrees>
              <LongitudeDegrees>-4.05359943397343158721923828125</LongitudeDegrees>
            </Position>
            <AltitudeMeters>34.40000152587890625</AltitudeMeters>
            <DistanceMeters>NAN</DistanceMeters>
          </Trackpoint>
          <Trackpoint>
            <Time>2022-07-14T11:10:24.000Z</Time>
            <Position>
              <LatitudeDegrees>43.34626349620521068572998046875</LatitudeDegrees>
              <LongitudeDegrees>-4.05362977646291255950927734375</LongitudeDegrees>
            </Position>
            <AltitudeMeters>34.40000152587890625</AltitudeMeters>
            <DistanceMeters>NAN</DistanceMeters>
          </Trackpoint>
          <Trackpoint>
            <Time>2022-07-14T11:10:26.000Z</Time>
            <Position>
              <LatitudeDegrees>43.34626592695713043212890625</LatitudeDegrees>
              <LongitudeDegrees>-4.05361519195139408111572265625</LongitudeDegrees>
            </Position>
            <AltitudeMeters>34.59999847412109375</AltitudeMeters>
            <DistanceMeters>NAN</DistanceMeters>
          </Trackpoint>
          <Trackpoint>
            <Time>2022-07-14T11:10:28.000Z</Time>
            <Position>
              <LatitudeDegrees>43.3462489955127239227294921875</LatitudeDegrees>
              <LongitudeDegrees>-4.0536130964756011962890625</LongitudeDegrees>
            </Position>
            <AltitudeMeters>34.59999847412109375</AltitudeMeters>
            <DistanceMeters>NAN</DistanceMeters>
          </Trackpoint>
          <Trackpoint>
            <Time>2022-07-14T11:10:29.000Z</Time>
            <Position>
              <LatitudeDegrees>43.34622996859252452850341796875</LatitudeDegrees>
              <LongitudeDegrees>-4.053598679602146148681640625</LongitudeDegrees>
            </Position>
            <AltitudeMeters>34.40000152587890625</AltitudeMeters>
            <DistanceMeters>NAN</DistanceMeters>
          </Trackpoint>
          <Trackpoint>
            <Time>2022-07-14T11:10:31.000Z</Time>
            <Position>
              <LatitudeDegrees>43.346205241978168487548828125</LatitudeDegrees>
              <LongitudeDegrees>-4.05357227660715579986572265625</LongitudeDegrees>
            </Position>
            <AltitudeMeters>34.40000152587890625</AltitudeMeters>
            <DistanceMeters>NAN</DistanceMeters>
          </Trackpoint>
          <Trackpoint>
            <Time>2022-07-14T11:10:36.000Z</Time>
            <Position>
              <LatitudeDegrees>43.34610097110271453857421875</LatitudeDegrees>
              <LongitudeDegrees>-4.05357780866324901580810546875</LongitudeDegrees>
            </Position>
            <AltitudeMeters>34.40000152587890625</AltitudeMeters>
            <DistanceMeters>NAN</DistanceMeters>
          </Trackpoint>
          <Trackpoint>
            <Time>2022-07-14T11:10:42.000Z</Time>
            <Position>
              <LatitudeDegrees>43.34608630277216434478759765625</LatitudeDegrees>
              <LongitudeDegrees>-4.05358334071934223175048828125</LongitudeDegrees>
            </Position>
            <AltitudeMeters>34.200000762939453125</AltitudeMeters>
            <DistanceMeters>NAN</DistanceMeters>
          </Trackpoint>
          <Trackpoint>
            <Time>2022-07-14T11:10:43.000Z</Time>
            <Position>
              <LatitudeDegrees>43.346103988587856292724609375</LatitudeDegrees>
              <LongitudeDegrees>-4.05358158051967620849609375</LongitudeDegrees>
            </Position>
            <AltitudeMeters>34.200000762939453125</AltitudeMeters>
            <DistanceMeters>NAN</DistanceMeters>
          </Trackpoint>
          <Trackpoint>
            <Time>2022-07-14T11:10:45.000Z</Time>
            <Position>
              <LatitudeDegrees>43.346103318035602569580078125</LatitudeDegrees>
              <LongitudeDegrees>-4.05357914976775646209716796875</LongitudeDegrees>
            </Position>
            <AltitudeMeters>34.200000762939453125</AltitudeMeters>
            <DistanceMeters>NAN</DistanceMeters>
          </Trackpoint>
          <Trackpoint>
            <Time>2022-07-14T11:10:48.000Z</Time>
            <Position>
              <LatitudeDegrees>43.346040286123752593994140625</LatitudeDegrees>
              <LongitudeDegrees>-4.05352617613971233367919921875</LongitudeDegrees>
            </Position>
            <AltitudeMeters>34.200000762939453125</AltitudeMeters>
            <DistanceMeters>NAN</DistanceMeters>
          </Trackpoint>
          <Trackpoint>
            <Time>2022-07-14T11:10:50.000Z</Time>
            <Position>
              <LatitudeDegrees>43.346075154840946197509765625</LatitudeDegrees>
              <LongitudeDegrees>-4.05351812951266765594482421875</LongitudeDegrees>
            </Position>
            <AltitudeMeters>34.200000762939453125</AltitudeMeters>
            <DistanceMeters>NAN</DistanceMeters>
          </Trackpoint>
          <Trackpoint>
            <Time>2022-07-14T11:10:52.000Z</Time>
            <Position>
              <LatitudeDegrees>43.34608814679086208343505859375</LatitudeDegrees>
              <LongitudeDegrees>-4.0535314567387104034423828125</LongitudeDegrees>
            </Position>
            <AltitudeMeters>34.200000762939453125</AltitudeMeters>
            <DistanceMeters>NAN</DistanceMeters>
          </Trackpoint>
          <Trackpoint>
            <Time>2022-07-14T11:10:55.000Z</Time>
            <Position>
              <LatitudeDegrees>43.34611346013844013214111328125</LatitudeDegrees>
              <LongitudeDegrees>-4.0535582788288593292236328125</LongitudeDegrees>
            </Position>
            <AltitudeMeters>34.200000762939453125</AltitudeMeters>
            <DistanceMeters>NAN</DistanceMeters>
          </Trackpoint>
          <Trackpoint>
            <Time>2022-07-14T11:11:03.000Z</Time>
            <Position>
              <LatitudeDegrees>43.3461619913578033447265625</LatitudeDegrees>
              <LongitudeDegrees>-4.05347621999680995941162109375</LongitudeDegrees>
            </Position>
            <AltitudeMeters>34.200000762939453125</AltitudeMeters>
            <DistanceMeters>NAN</DistanceMeters>
          </Trackpoint>
          <Trackpoint>
            <Time>2022-07-14T11:11:06.000Z</Time>
            <Position>
              <LatitudeDegrees>43.3461152203381061553955078125</LatitudeDegrees>
              <LongitudeDegrees>-4.0534761361777782440185546875</LongitudeDegrees>
            </Position>
            <AltitudeMeters>34.200000762939453125</AltitudeMeters>
            <DistanceMeters>NAN</DistanceMeters>
          </Trackpoint>
          <Trackpoint>
            <Time>2022-07-14T11:11:26.000Z</Time>
            <Position>
              <LatitudeDegrees>43.3457832969725131988525390625</LatitudeDegrees>
              <LongitudeDegrees>-4.053458534181118011474609375</LongitudeDegrees>
            </Position>
            <AltitudeMeters>34</AltitudeMeters>
            <DistanceMeters>NAN</DistanceMeters>
          </Trackpoint>
          <Trackpoint>
            <Time>2022-07-14T11:11:30.000Z</Time>
            <Position>
              <LatitudeDegrees>43.34588639438152313232421875</LatitudeDegrees>
              <LongitudeDegrees>-4.0535219013690948486328125</LongitudeDegrees>
            </Position>
            <AltitudeMeters>34</AltitudeMeters>
            <DistanceMeters>NAN</DistanceMeters>
          </Trackpoint>
          <Trackpoint>
            <Time>2022-07-14T11:12:46.000Z</Time>
            <Position>
              <LatitudeDegrees>43.346148915588855743408203125</LatitudeDegrees>
              <LongitudeDegrees>-4.05344403348863124847412109375</LongitudeDegrees>
            </Position>
            <AltitudeMeters>34</AltitudeMeters>
            <DistanceMeters>NAN</DistanceMeters>
          </Trackpoint>
          <Trackpoint>
            <Time>2022-07-14T11:12:48.000Z</Time>
            <Position>
              <LatitudeDegrees>43.346248827874660491943359375</LatitudeDegrees>
              <LongitudeDegrees>-4.053377397358417510986328125</LongitudeDegrees>
            </Position>
            <AltitudeMeters>34</AltitudeMeters>
            <DistanceMeters>NAN</DistanceMeters>
          </Trackpoint>
          <Trackpoint>
            <Time>2022-07-14T11:12:49.000Z</Time>
            <Position>
              <LatitudeDegrees>43.3462754823267459869384765625</LatitudeDegrees>
              <LongitudeDegrees>-4.05335820280015468597412109375</LongitudeDegrees>
            </Position>
            <AltitudeMeters>34</AltitudeMeters>
            <DistanceMeters>NAN</DistanceMeters>
          </Trackpoint>
          <Trackpoint>
            <Time>2022-07-14T11:12:52.000Z</Time>
            <Position>
              <LatitudeDegrees>43.346283026039600372314453125</LatitudeDegrees>
              <LongitudeDegrees>-4.053331799805164337158203125</LongitudeDegrees>
            </Position>
            <AltitudeMeters>34</AltitudeMeters>
            <DistanceMeters>NAN</DistanceMeters>
          </Trackpoint>
          <Trackpoint>
            <Time>2022-07-14T11:12:55.000Z</Time>
            <Position>
              <LatitudeDegrees>43.34624388255178928375244140625</LatitudeDegrees>
              <LongitudeDegrees>-4.05331864021718502044677734375</LongitudeDegrees>
            </Position>
            <AltitudeMeters>34</AltitudeMeters>
            <DistanceMeters>NAN</DistanceMeters>
          </Trackpoint>
          <Trackpoint>
            <Time>2022-07-14T11:12:58.000Z</Time>
            <Position>
              <LatitudeDegrees>43.34622795693576335906982421875</LatitudeDegrees>
              <LongitudeDegrees>-4.053323753178119659423828125</LongitudeDegrees>
            </Position>
            <AltitudeMeters>34</AltitudeMeters>
            <DistanceMeters>NAN</DistanceMeters>
          </Trackpoint>
          <Trackpoint>
            <Time>2022-07-14T11:14:13.000Z</Time>
            <Position>
              <LatitudeDegrees>43.34598018787801265716552734375</LatitudeDegrees>
              <LongitudeDegrees>-4.0534533374011516571044921875</LongitudeDegrees>
            </Position>
            <AltitudeMeters>33.200000762939453125</AltitudeMeters>
            <DistanceMeters>NAN</DistanceMeters>
          </Trackpoint>
          <Trackpoint>
            <Time>2022-07-14T11:14:14.000Z</Time>
            <Position>
              <LatitudeDegrees>43.34597163833677768707275390625</LatitudeDegrees>
              <LongitudeDegrees>-4.05346448533236980438232421875</LongitudeDegrees>
            </Position>
            <AltitudeMeters>33.200000762939453125</AltitudeMeters>
            <DistanceMeters>NAN</DistanceMeters>
          </Trackpoint>
          <Trackpoint>
            <Time>2022-07-14T11:14:15.000Z</Time>
            <Position>
              <LatitudeDegrees>43.3459742367267608642578125</LatitudeDegrees>
              <LongitudeDegrees>-4.053471274673938751220703125</LongitudeDegrees>
            </Position>
            <AltitudeMeters>33.200000762939453125</AltitudeMeters>
            <DistanceMeters>NAN</DistanceMeters>
          </Trackpoint>
          <Trackpoint>
            <Time>2022-07-14T11:14:19.000Z</Time>
            <Position>
              <LatitudeDegrees>43.3459796011447906494140625</LatitudeDegrees>
              <LongitudeDegrees>-4.053483344614505767822265625</LongitudeDegrees>
            </Position>
            <AltitudeMeters>33.200000762939453125</AltitudeMeters>
            <DistanceMeters>NAN</DistanceMeters>
          </Trackpoint>
          <Trackpoint>
            <Time>2022-07-14T11:14:23.000Z</Time>
            <Position>
              <LatitudeDegrees>43.3460144698619842529296875</LatitudeDegrees>
              <LongitudeDegrees>-4.0534600429236888885498046875</LongitudeDegrees>
            </Position>
            <AltitudeMeters>33.200000762939453125</AltitudeMeters>
            <DistanceMeters>NAN</DistanceMeters>
          </Trackpoint>
          <Trackpoint>
            <Time>2022-07-14T11:14:27.000Z</Time>
            <Position>
              <LatitudeDegrees>43.34603123366832733154296875</LatitudeDegrees>
              <LongitudeDegrees>-4.0534315444529056549072265625</LongitudeDegrees>
            </Position>
            <AltitudeMeters>33.200000762939453125</AltitudeMeters>
            <DistanceMeters>NAN</DistanceMeters>
          </Trackpoint>
          <Trackpoint>
            <Time>2022-07-14T11:14:29.000Z</Time>
            <Position>
              <LatitudeDegrees>43.34601002745330333709716796875</LatitudeDegrees>
              <LongitudeDegrees>-4.05340832658112049102783203125</LongitudeDegrees>
            </Position>
            <AltitudeMeters>33.40000152587890625</AltitudeMeters>
            <DistanceMeters>NAN</DistanceMeters>
          </Trackpoint>
          <Trackpoint>
            <Time>2022-07-14T11:15:01.000Z</Time>
            <Position>
              <LatitudeDegrees>43.34612385369837284088134765625</LatitudeDegrees>
              <LongitudeDegrees>-4.0534467995166778564453125</LongitudeDegrees>
            </Position>
            <AltitudeMeters>33.59999847412109375</AltitudeMeters>
            <DistanceMeters>NAN</DistanceMeters>
          </Trackpoint>
          <Trackpoint>
            <Time>2022-07-14T11:15:02.000Z</Time>
            <Position>
              <LatitudeDegrees>43.346105329692363739013671875</LatitudeDegrees>
              <LongitudeDegrees>-4.05343481339514255523681640625</LongitudeDegrees>
            </Position>
            <AltitudeMeters>33.59999847412109375</AltitudeMeters>
            <DistanceMeters>NAN</DistanceMeters>
          </Trackpoint>
          <Trackpoint>
            <Time>2022-07-14T11:15:03.000Z</Time>
            <Position>
              <LatitudeDegrees>43.34612217731773853302001953125</LatitudeDegrees>
              <LongitudeDegrees>-4.05342425219714641571044921875</LongitudeDegrees>
            </Position>
            <AltitudeMeters>33.59999847412109375</AltitudeMeters>
            <DistanceMeters>NAN</DistanceMeters>
          </Trackpoint>
          <Trackpoint>
            <Time>2022-07-14T11:15:05.000Z</Time>
            <Position>
              <LatitudeDegrees>43.3461480773985385894775390625</LatitudeDegrees>
              <LongitudeDegrees>-4.053456522524356842041015625</LongitudeDegrees>
            </Position>
            <AltitudeMeters>33.59999847412109375</AltitudeMeters>
            <DistanceMeters>NAN</DistanceMeters>
          </Trackpoint>
          <Trackpoint>
            <Time>2022-07-14T11:15:07.000Z</Time>
            <Position>
              <LatitudeDegrees>43.3461410365998744964599609375</LatitudeDegrees>
              <LongitudeDegrees>-4.0534741245210170745849609375</LongitudeDegrees>
            </Position>
            <AltitudeMeters>34</AltitudeMeters>
            <DistanceMeters>NAN</DistanceMeters>
          </Trackpoint>
          <Trackpoint>
            <Time>2022-07-14T11:16:19.000Z</Time>
            <Position>
              <LatitudeDegrees>43.34603031165897846221923828125</LatitudeDegrees>
              <LongitudeDegrees>-4.05358300544321537017822265625</LongitudeDegrees>
            </Position>
            <AltitudeMeters>34</AltitudeMeters>
            <DistanceMeters>NAN</DistanceMeters>
          </Trackpoint>
          <Trackpoint>
            <Time>2022-07-14T11:16:20.000Z</Time>
            <Position>
              <LatitudeDegrees>43.34603265859186649322509765625</LatitudeDegrees>
              <LongitudeDegrees>-4.05358719639480113983154296875</LongitudeDegrees>
            </Position>
            <AltitudeMeters>34</AltitudeMeters>
            <DistanceMeters>NAN</DistanceMeters>
          </Trackpoint>
          <Trackpoint>
            <Time>2022-07-14T11:16:21.000Z</Time>
            <Position>
              <LatitudeDegrees>43.34602796472609043121337890625</LatitudeDegrees>
              <LongitudeDegrees>-4.0535830892622470855712890625</LongitudeDegrees>
            </Position>
            <AltitudeMeters>34</AltitudeMeters>
            <DistanceMeters>NAN</DistanceMeters>
          </Trackpoint>
          <Trackpoint>
            <Time>2022-07-14T11:16:25.000Z</Time>
            <Position>
              <LatitudeDegrees>43.34605411626398563385009765625</LatitudeDegrees>
              <LongitudeDegrees>-4.05357210896909236907958984375</LongitudeDegrees>
            </Position>
            <AltitudeMeters>33.59999847412109375</AltitudeMeters>
            <DistanceMeters>NAN</DistanceMeters>
          </Trackpoint>
          <Trackpoint>
            <Time>2022-07-14T11:16:26.000Z</Time>
            <Position>
              <LatitudeDegrees>43.3460729755461215972900390625</LatitudeDegrees>
              <LongitudeDegrees>-4.0535757131874561309814453125</LongitudeDegrees>
            </Position>
            <AltitudeMeters>33.59999847412109375</AltitudeMeters>
            <DistanceMeters>NAN</DistanceMeters>
          </Trackpoint>
          <Trackpoint>
            <Time>2022-07-14T11:16:31.000Z</Time>
            <Position>
              <LatitudeDegrees>43.3461822755634784698486328125</LatitudeDegrees>
              <LongitudeDegrees>-4.0536303631961345672607421875</LongitudeDegrees>
            </Position>
            <AltitudeMeters>33.40000152587890625</AltitudeMeters>
            <DistanceMeters>NAN</DistanceMeters>
          </Trackpoint>
          <Trackpoint>
            <Time>2022-07-14T11:16:35.000Z</Time>
            <Position>
              <LatitudeDegrees>43.3462758176028728485107421875</LatitudeDegrees>
              <LongitudeDegrees>-4.05365693382918834686279296875</LongitudeDegrees>
            </Position>
            <AltitudeMeters>33.40000152587890625</AltitudeMeters>
            <DistanceMeters>NAN</DistanceMeters>
          </Trackpoint>
          <Trackpoint>
            <Time>2022-07-14T11:16:36.000Z</Time>
            <Position>
              <LatitudeDegrees>43.34626617841422557830810546875</LatitudeDegrees>
              <LongitudeDegrees>-4.0536434389650821685791015625</LongitudeDegrees>
            </Position>
            <AltitudeMeters>33.40000152587890625</AltitudeMeters>
            <DistanceMeters>NAN</DistanceMeters>
          </Trackpoint>
          <Trackpoint>
            <Time>2022-07-14T11:16:38.000Z</Time>
            <Position>
              <LatitudeDegrees>43.346272967755794525146484375</LatitudeDegrees>
              <LongitudeDegrees>-4.05362709425389766693115234375</LongitudeDegrees>
            </Position>
            <AltitudeMeters>33.40000152587890625</AltitudeMeters>
            <DistanceMeters>NAN</DistanceMeters>
          </Trackpoint>
          <Trackpoint>
            <Time>2022-07-14T11:16:40.000Z</Time>
            <Position>
              <LatitudeDegrees>43.34623449482023715972900390625</LatitudeDegrees>
              <LongitudeDegrees>-4.0535862743854522705078125</LongitudeDegrees>
            </Position>
            <AltitudeMeters>33.40000152587890625</AltitudeMeters>
            <DistanceMeters>NAN</DistanceMeters>
          </Trackpoint>
          <Trackpoint>
            <Time>2022-07-14T11:16:42.000Z</Time>
            <Position>
              <LatitudeDegrees>43.34628327749669551849365234375</LatitudeDegrees>
              <LongitudeDegrees>-4.05358317308127880096435546875</LongitudeDegrees>
            </Position>
            <AltitudeMeters>33.40000152587890625</AltitudeMeters>
            <DistanceMeters>NAN</DistanceMeters>
          </Trackpoint>
          <Trackpoint>
            <Time>2022-07-14T11:16:44.000Z</Time>
            <Position>
              <LatitudeDegrees>43.346362821757793426513671875</LatitudeDegrees>
              <LongitudeDegrees>-4.0536384098231792449951171875</LongitudeDegrees>
            </Position>
            <AltitudeMeters>33.40000152587890625</AltitudeMeters>
            <DistanceMeters>NAN</DistanceMeters>
          </Trackpoint>
          <Trackpoint>
            <Time>2022-07-14T11:16:47.000Z</Time>
            <Position>
              <LatitudeDegrees>43.34640062414109706878662109375</LatitudeDegrees>
              <LongitudeDegrees>-4.0536484681069850921630859375</LongitudeDegrees>
            </Position>
            <AltitudeMeters>33.40000152587890625</AltitudeMeters>
            <DistanceMeters>NAN</DistanceMeters>
          </Trackpoint>
          <Trackpoint>
            <Time>2022-07-14T11:16:48.000Z</Time>
            <Position>
              <LatitudeDegrees>43.34640313871204853057861328125</LatitudeDegrees>
              <LongitudeDegrees>-4.0536360628902912139892578125</LongitudeDegrees>
            </Position>
            <AltitudeMeters>33.40000152587890625</AltitudeMeters>
            <DistanceMeters>NAN</DistanceMeters>
          </Trackpoint>
          <Trackpoint>
            <Time>2022-07-14T11:16:50.000Z</Time>
            <Position>
              <LatitudeDegrees>43.34639492444694042205810546875</LatitudeDegrees>
              <LongitudeDegrees>-4.05359926633536815643310546875</LongitudeDegrees>
            </Position>
            <AltitudeMeters>33.40000152587890625</AltitudeMeters>
            <DistanceMeters>NAN</DistanceMeters>
          </Trackpoint>
          <Trackpoint>
            <Time>2022-07-14T11:16:52.000Z</Time>
            <Position>
              <LatitudeDegrees>43.34641587920486927032470703125</LatitudeDegrees>
              <LongitudeDegrees>-4.05361049808561801910400390625</LongitudeDegrees>
            </Position>
            <AltitudeMeters>33.40000152587890625</AltitudeMeters>
            <DistanceMeters>NAN</DistanceMeters>
          </Trackpoint>
          <Trackpoint>
            <Time>2022-07-14T11:16:56.000Z</Time>
            <Position>
              <LatitudeDegrees>43.346344046294689178466796875</LatitudeDegrees>
              <LongitudeDegrees>-4.0535250864923000335693359375</LongitudeDegrees>
            </Position>
            <AltitudeMeters>33.59999847412109375</AltitudeMeters>
            <DistanceMeters>NAN</DistanceMeters>
          </Trackpoint>
          <Trackpoint>
            <Time>2022-07-14T11:16:57.000Z</Time>
            <Position>
              <LatitudeDegrees>43.3463194034993648529052734375</LatitudeDegrees>
              <LongitudeDegrees>-4.05351058579981327056884765625</LongitudeDegrees>
            </Position>
            <AltitudeMeters>33.59999847412109375</AltitudeMeters>
            <DistanceMeters>NAN</DistanceMeters>
          </Trackpoint>
          <Trackpoint>
            <Time>2022-07-14T11:16:59.000Z</Time>
            <Position>
              <LatitudeDegrees>43.346297442913055419921875</LatitudeDegrees>
              <LongitudeDegrees>-4.0535056404769420623779296875</LongitudeDegrees>
            </Position>
            <AltitudeMeters>33.59999847412109375</AltitudeMeters>
            <DistanceMeters>NAN</DistanceMeters>
          </Trackpoint>
          <Trackpoint>
            <Time>2022-07-14T11:17:01.000Z</Time>
            <Position>
              <LatitudeDegrees>43.34629266522824764251708984375</LatitudeDegrees>
              <LongitudeDegrees>-4.053508825600147247314453125</LongitudeDegrees>
            </Position>
            <AltitudeMeters>33.59999847412109375</AltitudeMeters>
            <DistanceMeters>NAN</DistanceMeters>
          </Trackpoint>
          <Trackpoint>
            <Time>2022-07-14T11:17:05.000Z</Time>
            <Position>
              <LatitudeDegrees>43.34621706046164035797119140625</LatitudeDegrees>
              <LongitudeDegrees>-4.0534751303493976593017578125</LongitudeDegrees>
            </Position>
            <AltitudeMeters>33.59999847412109375</AltitudeMeters>
            <DistanceMeters>NAN</DistanceMeters>
          </Trackpoint>
          <Trackpoint>
            <Time>2022-07-14T11:18:51.000Z</Time>
            <Position>
              <LatitudeDegrees>43.34625494666397571563720703125</LatitudeDegrees>
              <LongitudeDegrees>-4.053498767316341400146484375</LongitudeDegrees>
            </Position>
            <AltitudeMeters>34.59999847412109375</AltitudeMeters>
            <DistanceMeters>NAN</DistanceMeters>
          </Trackpoint>
          <Trackpoint>
            <Time>2022-07-14T11:18:53.000Z</Time>
            <Position>
              <LatitudeDegrees>43.346247486770153045654296875</LatitudeDegrees>
              <LongitudeDegrees>-4.05348678119480609893798828125</LongitudeDegrees>
            </Position>
            <AltitudeMeters>34.59999847412109375</AltitudeMeters>
            <DistanceMeters>NAN</DistanceMeters>
          </Trackpoint>
          <Trackpoint>
            <Time>2022-07-14T11:18:55.000Z</Time>
            <Position>
              <LatitudeDegrees>43.34621722809970378875732421875</LatitudeDegrees>
              <LongitudeDegrees>-4.0534878708422183990478515625</LongitudeDegrees>
            </Position>
            <AltitudeMeters>34.59999847412109375</AltitudeMeters>
            <DistanceMeters>NAN</DistanceMeters>
          </Trackpoint>
          <Trackpoint>
            <Time>2022-07-14T11:18:56.000Z</Time>
            <Position>
              <LatitudeDegrees>43.34623298607766628265380859375</LatitudeDegrees>
              <LongitudeDegrees>-4.05350035987794399261474609375</LongitudeDegrees>
            </Position>
            <AltitudeMeters>34.799999237060546875</AltitudeMeters>
            <DistanceMeters>NAN</DistanceMeters>
          </Trackpoint>
          <Trackpoint>
            <Time>2022-07-14T11:18:59.000Z</Time>
            <Position>
              <LatitudeDegrees>43.346216976642608642578125</LatitudeDegrees>
              <LongitudeDegrees>-4.05348611064255237579345703125</LongitudeDegrees>
            </Position>
            <AltitudeMeters>34.799999237060546875</AltitudeMeters>
            <DistanceMeters>NAN</DistanceMeters>
          </Trackpoint>
          <Trackpoint>
            <Time>2022-07-14T11:19:43.000Z</Time>
            <Position>
              <LatitudeDegrees>43.345837108790874481201171875</LatitudeDegrees>
              <LongitudeDegrees>-4.05345560051500797271728515625</LongitudeDegrees>
            </Position>
            <AltitudeMeters>35.200000762939453125</AltitudeMeters>
            <DistanceMeters>NAN</DistanceMeters>
          </Trackpoint>
          <Trackpoint>
            <Time>2022-07-14T11:19:44.000Z</Time>
            <Position>
              <LatitudeDegrees>43.3458885736763477325439453125</LatitudeDegrees>
              <LongitudeDegrees>-4.05348175205290317535400390625</LongitudeDegrees>
            </Position>
            <AltitudeMeters>35.200000762939453125</AltitudeMeters>
            <DistanceMeters>NAN</DistanceMeters>
          </Trackpoint>
          <Trackpoint>
            <Time>2022-07-14T11:19:46.000Z</Time>
            <Position>
              <LatitudeDegrees>43.34598856978118419647216796875</LatitudeDegrees>
              <LongitudeDegrees>-4.053519554436206817626953125</LongitudeDegrees>
            </Position>
            <AltitudeMeters>35.200000762939453125</AltitudeMeters>
            <DistanceMeters>NAN</DistanceMeters>
          </Trackpoint>
          <Trackpoint>
            <Time>2022-07-14T11:19:47.000Z</Time>
            <Position>
              <LatitudeDegrees>43.34595613181591033935546875</LatitudeDegrees>
              <LongitudeDegrees>-4.0534969232976436614990234375</LongitudeDegrees>
            </Position>
            <AltitudeMeters>35.200000762939453125</AltitudeMeters>
            <DistanceMeters>NAN</DistanceMeters>
          </Trackpoint>
          <Trackpoint>
            <Time>2022-07-14T11:19:48.000Z</Time>
            <Position>
              <LatitudeDegrees>43.34592184983193874359130859375</LatitudeDegrees>
              <LongitudeDegrees>-4.05351242981851100921630859375</LongitudeDegrees>
            </Position>
            <AltitudeMeters>35</AltitudeMeters>
            <DistanceMeters>NAN</DistanceMeters>
          </Trackpoint>
          <Trackpoint>
            <Time>2022-07-14T11:19:51.000Z</Time>
            <Position>
              <LatitudeDegrees>43.3457246236503124237060546875</LatitudeDegrees>
              <LongitudeDegrees>-4.0534479729831218719482421875</LongitudeDegrees>
            </Position>
            <AltitudeMeters>35.200000762939453125</AltitudeMeters>
            <DistanceMeters>NAN</DistanceMeters>
          </Trackpoint>
          <Trackpoint>
            <Time>2022-07-14T11:19:54.000Z</Time>
            <Position>
              <LatitudeDegrees>43.34579327143728733062744140625</LatitudeDegrees>
              <LongitudeDegrees>-4.05335962772369384765625</LongitudeDegrees>
            </Position>
            <AltitudeMeters>35.200000762939453125</AltitudeMeters>
            <DistanceMeters>NAN</DistanceMeters>
          </Trackpoint>
          <Trackpoint>
            <Time>2022-07-14T11:19:56.000Z</Time>
            <Position>
              <LatitudeDegrees>43.34589553065598011016845703125</LatitudeDegrees>
              <LongitudeDegrees>-4.0533064864575862884521484375</LongitudeDegrees>
            </Position>
            <AltitudeMeters>35.200000762939453125</AltitudeMeters>
            <DistanceMeters>NAN</DistanceMeters>
          </Trackpoint>
          <Trackpoint>
            <Time>2022-07-14T11:19:57.000Z</Time>
            <Position>
              <LatitudeDegrees>43.34592520259320735931396484375</LatitudeDegrees>
              <LongitudeDegrees>-4.0532826818525791168212890625</LongitudeDegrees>
            </Position>
            <AltitudeMeters>35.200000762939453125</AltitudeMeters>
            <DistanceMeters>NAN</DistanceMeters>
          </Trackpoint>
          <Trackpoint>
            <Time>2022-07-14T11:19:59.000Z</Time>
            <Position>
              <LatitudeDegrees>43.345895446836948394775390625</LatitudeDegrees>
              <LongitudeDegrees>-4.053277485072612762451171875</LongitudeDegrees>
            </Position>
            <AltitudeMeters>35.200000762939453125</AltitudeMeters>
            <DistanceMeters>NAN</DistanceMeters>
          </Trackpoint>
          <Trackpoint>
            <Time>2022-07-14T11:20:04.000Z</Time>
            <Position>
              <LatitudeDegrees>43.34594137966632843017578125</LatitudeDegrees>
              <LongitudeDegrees>-4.05332853086292743682861328125</LongitudeDegrees>
            </Position>
            <AltitudeMeters>35.40000152587890625</AltitudeMeters>
            <DistanceMeters>NAN</DistanceMeters>
          </Trackpoint>
          <Trackpoint>
            <Time>2022-07-14T11:20:06.000Z</Time>
            <Position>
              <LatitudeDegrees>43.345989994704723358154296875</LatitudeDegrees>
              <LongitudeDegrees>-4.05337027274072170257568359375</LongitudeDegrees>
            </Position>
            <AltitudeMeters>35.40000152587890625</AltitudeMeters>
            <DistanceMeters>NAN</DistanceMeters>
          </Trackpoint>
          <Trackpoint>
            <Time>2022-07-14T11:20:07.000Z</Time>
            <Position>
              <LatitudeDegrees>43.34602293558418750762939453125</LatitudeDegrees>
              <LongitudeDegrees>-4.0533913113176822662353515625</LongitudeDegrees>
            </Position>
            <AltitudeMeters>35.40000152587890625</AltitudeMeters>
            <DistanceMeters>NAN</DistanceMeters>
          </Trackpoint>
          <Trackpoint>
            <Time>2022-07-14T11:20:10.000Z</Time>
            <Position>
              <LatitudeDegrees>43.346056379377841949462890625</LatitudeDegrees>
              <LongitudeDegrees>-4.05347269959747791290283203125</LongitudeDegrees>
            </Position>
            <AltitudeMeters>35.40000152587890625</AltitudeMeters>
            <DistanceMeters>NAN</DistanceMeters>
          </Trackpoint>
          <Trackpoint>
            <Time>2022-07-14T11:20:12.000Z</Time>
            <Position>
              <LatitudeDegrees>43.3460600674152374267578125</LatitudeDegrees>
              <LongitudeDegrees>-4.05352567322552204132080078125</LongitudeDegrees>
            </Position>
            <AltitudeMeters>35.40000152587890625</AltitudeMeters>
            <DistanceMeters>NAN</DistanceMeters>
          </Trackpoint>
          <Trackpoint>
            <Time>2022-07-14T11:20:18.000Z</Time>
            <Position>
              <LatitudeDegrees>43.345873653888702392578125</LatitudeDegrees>
              <LongitudeDegrees>-4.05344118364155292510986328125</LongitudeDegrees>
            </Position>
            <AltitudeMeters>35.40000152587890625</AltitudeMeters>
            <DistanceMeters>NAN</DistanceMeters>
          </Trackpoint>
          <Trackpoint>
            <Time>2022-07-14T11:20:21.000Z</Time>
            <Position>
              <LatitudeDegrees>43.3458191715180873870849609375</LatitudeDegrees>
              <LongitudeDegrees>-4.05340095050632953643798828125</LongitudeDegrees>
            </Position>
            <AltitudeMeters>35.40000152587890625</AltitudeMeters>
            <DistanceMeters>NAN</DistanceMeters>
          </Trackpoint>
          <Trackpoint>
            <Time>2022-07-14T11:20:23.000Z</Time>
            <Position>
              <LatitudeDegrees>43.34578187204897403717041015625</LatitudeDegrees>
              <LongitudeDegrees>-4.05337764881551265716552734375</LongitudeDegrees>
            </Position>
            <AltitudeMeters>35.40000152587890625</AltitudeMeters>
            <DistanceMeters>NAN</DistanceMeters>
          </Trackpoint>
          <Trackpoint>
            <Time>2022-07-14T11:20:25.000Z</Time>
            <Position>
              <LatitudeDegrees>43.3457554690539836883544921875</LatitudeDegrees>
              <LongitudeDegrees>-4.0533665008842945098876953125</LongitudeDegrees>
            </Position>
            <AltitudeMeters>35.40000152587890625</AltitudeMeters>
            <DistanceMeters>NAN</DistanceMeters>
          </Trackpoint>
          <Trackpoint>
            <Time>2022-07-14T11:20:26.000Z</Time>
            <Position>
              <LatitudeDegrees>43.34575052373111248016357421875</LatitudeDegrees>
              <LongitudeDegrees>-4.05336507596075534820556640625</LongitudeDegrees>
            </Position>
            <AltitudeMeters>35.40000152587890625</AltitudeMeters>
            <DistanceMeters>NAN</DistanceMeters>
          </Trackpoint>
          <Trackpoint>
            <Time>2022-07-14T11:20:28.000Z</Time>
            <Position>
              <LatitudeDegrees>43.3457527868449687957763671875</LatitudeDegrees>
              <LongitudeDegrees>-4.0533770620822906494140625</LongitudeDegrees>
            </Position>
            <AltitudeMeters>35.40000152587890625</AltitudeMeters>
            <DistanceMeters>NAN</DistanceMeters>
          </Trackpoint>
          <Trackpoint>
            <Time>2022-07-14T11:20:30.000Z</Time>
            <Position>
              <LatitudeDegrees>43.3457489311695098876953125</LatitudeDegrees>
              <LongitudeDegrees>-4.0533892996609210968017578125</LongitudeDegrees>
            </Position>
            <AltitudeMeters>35.40000152587890625</AltitudeMeters>
            <DistanceMeters>NAN</DistanceMeters>
          </Trackpoint>
          <Trackpoint>
            <Time>2022-07-14T11:20:50.000Z</Time>
            <Position>
              <LatitudeDegrees>43.34600332193076610565185546875</LatitudeDegrees>
              <LongitudeDegrees>-4.053455181419849395751953125</LongitudeDegrees>
            </Position>
            <AltitudeMeters>35.40000152587890625</AltitudeMeters>
            <DistanceMeters>NAN</DistanceMeters>
          </Trackpoint>
          <Trackpoint>
            <Time>2022-07-14T11:20:51.000Z</Time>
            <Position>
              <LatitudeDegrees>43.3460049144923686981201171875</LatitudeDegrees>
              <LongitudeDegrees>-4.05347068794071674346923828125</LongitudeDegrees>
            </Position>
            <AltitudeMeters>35.40000152587890625</AltitudeMeters>
            <DistanceMeters>NAN</DistanceMeters>
          </Trackpoint>
          <Trackpoint>
            <Time>2022-07-14T11:20:54.000Z</Time>
            <Position>
              <LatitudeDegrees>43.346030227839946746826171875</LatitudeDegrees>
              <LongitudeDegrees>-4.05348510481417179107666015625</LongitudeDegrees>
            </Position>
            <AltitudeMeters>35.59999847412109375</AltitudeMeters>
            <DistanceMeters>NAN</DistanceMeters>
          </Trackpoint>
          <Trackpoint>
            <Time>2022-07-14T11:20:55.000Z</Time>
            <Position>
              <LatitudeDegrees>43.3460367657244205474853515625</LatitudeDegrees>
              <LongitudeDegrees>-4.05349130742251873016357421875</LongitudeDegrees>
            </Position>
            <AltitudeMeters>35.799999237060546875</AltitudeMeters>
            <DistanceMeters>NAN</DistanceMeters>
          </Trackpoint>
          <Trackpoint>
            <Time>2022-07-14T11:20:56.000Z</Time>
            <Position>
              <LatitudeDegrees>43.34603584371507167816162109375</LatitudeDegrees>
              <LongitudeDegrees>-4.05349583365023136138916015625</LongitudeDegrees>
            </Position>
            <AltitudeMeters>35.799999237060546875</AltitudeMeters>
            <DistanceMeters>NAN</DistanceMeters>
          </Trackpoint>
          <Trackpoint>
            <Time>2022-07-14T11:20:59.000Z</Time>
            <Position>
              <LatitudeDegrees>43.34598521701991558074951171875</LatitudeDegrees>
              <LongitudeDegrees>-4.05347320251166820526123046875</LongitudeDegrees>
            </Position>
            <AltitudeMeters>35.799999237060546875</AltitudeMeters>
            <DistanceMeters>NAN</DistanceMeters>
          </Trackpoint>
          <Trackpoint>
            <Time>2022-07-14T11:21:01.000Z</Time>
            <Position>
              <LatitudeDegrees>43.34589301608502864837646484375</LatitudeDegrees>
              <LongitudeDegrees>-4.0534429438412189483642578125</LongitudeDegrees>
            </Position>
            <AltitudeMeters>35.799999237060546875</AltitudeMeters>
            <DistanceMeters>NAN</DistanceMeters>
          </Trackpoint>
          <Trackpoint>
            <Time>2022-07-14T11:21:02.000Z</Time>
            <Position>
              <LatitudeDegrees>43.34589301608502864837646484375</LatitudeDegrees>
              <LongitudeDegrees>-4.0534429438412189483642578125</LongitudeDegrees>
            </Position>
            <AltitudeMeters>35.59999847412109375</AltitudeMeters>
            <DistanceMeters>NAN</DistanceMeters>
          </Trackpoint>
          <Trackpoint>
            <Time>2022-07-14T11:22:19.000Z</Time>
            <Position>
              <LatitudeDegrees>43.34606048651039600372314453125</LatitudeDegrees>
              <LongitudeDegrees>-4.0534771420061588287353515625</LongitudeDegrees>
            </Position>
            <AltitudeMeters>35.59999847412109375</AltitudeMeters>
            <DistanceMeters>NAN</DistanceMeters>
          </Trackpoint>
          <Trackpoint>
            <Time>2022-07-14T11:22:21.000Z</Time>
            <Position>
              <LatitudeDegrees>43.34606073796749114990234375</LatitudeDegrees>
              <LongitudeDegrees>-4.05346599407494068145751953125</LongitudeDegrees>
            </Position>
            <AltitudeMeters>35.59999847412109375</AltitudeMeters>
            <DistanceMeters>NAN</DistanceMeters>
          </Trackpoint>
          <Trackpoint>
            <Time>2022-07-14T11:22:27.000Z</Time>
            <Position>
              <LatitudeDegrees>43.3459469117224216461181640625</LatitudeDegrees>
              <LongitudeDegrees>-4.05340732075273990631103515625</LongitudeDegrees>
            </Position>
            <AltitudeMeters>36.200000762939453125</AltitudeMeters>
            <DistanceMeters>NAN</DistanceMeters>
          </Trackpoint>
          <Trackpoint>
            <Time>2022-07-14T11:22:32.000Z</Time>
            <Position>
              <LatitudeDegrees>43.345949091017246246337890625</LatitudeDegrees>
              <LongitudeDegrees>-4.05342073179781436920166015625</LongitudeDegrees>
            </Position>
            <AltitudeMeters>36</AltitudeMeters>
            <DistanceMeters>NAN</DistanceMeters>
          </Trackpoint>
          <Trackpoint>
            <Time>2022-07-14T11:22:42.000Z</Time>
            <Position>
              <LatitudeDegrees>43.3458989672362804412841796875</LatitudeDegrees>
              <LongitudeDegrees>-4.0534006990492343902587890625</LongitudeDegrees>
            </Position>
            <AltitudeMeters>35.799999237060546875</AltitudeMeters>
            <DistanceMeters>NAN</DistanceMeters>
          </Trackpoint>
          <Trackpoint>
            <Time>2022-07-14T11:22:43.000Z</Time>
            <Position>
              <LatitudeDegrees>43.345895446836948394775390625</LatitudeDegrees>
              <LongitudeDegrees>-4.0533985197544097900390625</LongitudeDegrees>
            </Position>
            <AltitudeMeters>35.799999237060546875</AltitudeMeters>
            <DistanceMeters>NAN</DistanceMeters>
          </Trackpoint>
          <Trackpoint>
            <Time>2022-07-14T11:22:45.000Z</Time>
            <Position>
              <LatitudeDegrees>43.3459006436169147491455078125</LatitudeDegrees>
              <LongitudeDegrees>-4.0533909760415554046630859375</LongitudeDegrees>
            </Position>
            <AltitudeMeters>35.799999237060546875</AltitudeMeters>
            <DistanceMeters>NAN</DistanceMeters>
          </Trackpoint>
          <Trackpoint>
            <Time>2022-07-14T11:22:46.000Z</Time>
            <Position>
              <LatitudeDegrees>43.345904834568500518798828125</LatitudeDegrees>
              <LongitudeDegrees>-4.05339173041284084320068359375</LongitudeDegrees>
            </Position>
            <AltitudeMeters>35.799999237060546875</AltitudeMeters>
            <DistanceMeters>NAN</DistanceMeters>
          </Trackpoint>
          <Trackpoint>
            <Time>2022-07-14T11:22:50.000Z</Time>
            <Position>
              <LatitudeDegrees>43.345921933650970458984375</LatitudeDegrees>
              <LongitudeDegrees>-4.0534010343253612518310546875</LongitudeDegrees>
            </Position>
            <AltitudeMeters>35.799999237060546875</AltitudeMeters>
            <DistanceMeters>NAN</DistanceMeters>
          </Trackpoint>
          <Trackpoint>
            <Time>2022-07-14T11:22:55.000Z</Time>
            <Position>
              <LatitudeDegrees>43.345899470150470733642578125</LatitudeDegrees>
              <LongitudeDegrees>-4.0534047223627567291259765625</LongitudeDegrees>
            </Position>
            <AltitudeMeters>35.799999237060546875</AltitudeMeters>
            <DistanceMeters>NAN</DistanceMeters>
          </Trackpoint>
          <Trackpoint>
            <Time>2022-07-14T11:23:00.000Z</Time>
            <Position>
              <LatitudeDegrees>43.345877341926097869873046875</LatitudeDegrees>
              <LongitudeDegrees>-4.053421653807163238525390625</LongitudeDegrees>
            </Position>
            <AltitudeMeters>35.799999237060546875</AltitudeMeters>
            <DistanceMeters>NAN</DistanceMeters>
          </Trackpoint>
          <Trackpoint>
            <Time>2022-07-14T11:23:02.000Z</Time>
            <Position>
              <LatitudeDegrees>43.3458830416202545166015625</LatitudeDegrees>
              <LongitudeDegrees>-4.05342391692101955413818359375</LongitudeDegrees>
            </Position>
            <AltitudeMeters>35.799999237060546875</AltitudeMeters>
            <DistanceMeters>NAN</DistanceMeters>
          </Trackpoint>
          <Trackpoint>
            <Time>2022-07-14T11:24:56.000Z</Time>
            <Position>
              <LatitudeDegrees>43.34603123366832733154296875</LatitudeDegrees>
              <LongitudeDegrees>-4.0535110048949718475341796875</LongitudeDegrees>
            </Position>
            <AltitudeMeters>35.40000152587890625</AltitudeMeters>
            <DistanceMeters>NAN</DistanceMeters>
          </Trackpoint>
          <Trackpoint>
            <Time>2022-07-14T11:24:57.000Z</Time>
            <Position>
              <LatitudeDegrees>43.34601991809904575347900390625</LatitudeDegrees>
              <LongitudeDegrees>-4.05352718196809291839599609375</LongitudeDegrees>
            </Position>
            <AltitudeMeters>35.40000152587890625</AltitudeMeters>
            <DistanceMeters>NAN</DistanceMeters>
          </Trackpoint>
          <Trackpoint>
            <Time>2022-07-14T11:25:01.000Z</Time>
            <Position>
              <LatitudeDegrees>43.34594230167567729949951171875</LatitudeDegrees>
              <LongitudeDegrees>-4.05355475842952728271484375</LongitudeDegrees>
            </Position>
            <AltitudeMeters>35.200000762939453125</AltitudeMeters>
            <DistanceMeters>NAN</DistanceMeters>
          </Trackpoint>
          <Trackpoint>
            <Time>2022-07-14T11:25:03.000Z</Time>
            <Position>
              <LatitudeDegrees>43.3459418825805187225341796875</LatitudeDegrees>
              <LongitudeDegrees>-4.053547717630863189697265625</LongitudeDegrees>
            </Position>
            <AltitudeMeters>35.200000762939453125</AltitudeMeters>
            <DistanceMeters>NAN</DistanceMeters>
          </Trackpoint>
          <Trackpoint>
            <Time>2022-07-14T11:25:06.000Z</Time>
            <Position>
              <LatitudeDegrees>43.34596090950071811676025390625</LatitudeDegrees>
              <LongitudeDegrees>-4.05354193411767482757568359375</LongitudeDegrees>
            </Position>
            <AltitudeMeters>35.200000762939453125</AltitudeMeters>
            <DistanceMeters>NAN</DistanceMeters>
          </Trackpoint>
          <Trackpoint>
            <Time>2022-07-14T11:25:07.000Z</Time>
            <Position>
              <LatitudeDegrees>43.34596090950071811676025390625</LatitudeDegrees>
              <LongitudeDegrees>-4.0535366535186767578125</LongitudeDegrees>
            </Position>
            <AltitudeMeters>35.200000762939453125</AltitudeMeters>
            <DistanceMeters>NAN</DistanceMeters>
          </Trackpoint>
          <Trackpoint>
            <Time>2022-07-14T11:25:10.000Z</Time>
            <Position>
              <LatitudeDegrees>43.34593106992542743682861328125</LatitudeDegrees>
              <LongitudeDegrees>-4.05351008288562297821044921875</LongitudeDegrees>
            </Position>
            <AltitudeMeters>35.200000762939453125</AltitudeMeters>
            <DistanceMeters>NAN</DistanceMeters>
          </Trackpoint>
          <Trackpoint>
            <Time>2022-07-14T11:25:14.000Z</Time>
            <Position>
              <LatitudeDegrees>43.34590558893978595733642578125</LatitudeDegrees>
              <LongitudeDegrees>-4.05348594300448894500732421875</LongitudeDegrees>
            </Position>
            <AltitudeMeters>35.200000762939453125</AltitudeMeters>
            <DistanceMeters>NAN</DistanceMeters>
          </Trackpoint>
          <Trackpoint>
            <Time>2022-07-14T11:25:17.000Z</Time>
            <Position>
              <LatitudeDegrees>43.34595219232141971588134765625</LatitudeDegrees>
              <LongitudeDegrees>-4.05349583365023136138916015625</LongitudeDegrees>
            </Position>
            <AltitudeMeters>35.200000762939453125</AltitudeMeters>
            <DistanceMeters>NAN</DistanceMeters>
          </Trackpoint>
          <Trackpoint>
            <Time>2022-07-14T11:26:01.000Z</Time>
            <Position>
              <LatitudeDegrees>43.34616241045296192169189453125</LatitudeDegrees>
              <LongitudeDegrees>-4.05349398963153362274169921875</LongitudeDegrees>
            </Position>
            <AltitudeMeters>36.200000762939453125</AltitudeMeters>
            <DistanceMeters>NAN</DistanceMeters>
          </Trackpoint>
          <Trackpoint>
            <Time>2022-07-14T11:26:03.000Z</Time>
            <Position>
              <LatitudeDegrees>43.3461588062345981597900390625</LatitudeDegrees>
              <LongitudeDegrees>-4.05348979867994785308837890625</LongitudeDegrees>
            </Position>
            <AltitudeMeters>36.200000762939453125</AltitudeMeters>
            <DistanceMeters>NAN</DistanceMeters>
          </Trackpoint>
          <Trackpoint>
            <Time>2022-07-14T11:26:07.000Z</Time>
            <Position>
              <LatitudeDegrees>43.34604975767433643341064453125</LatitudeDegrees>
              <LongitudeDegrees>-4.053437076508998870849609375</LongitudeDegrees>
            </Position>
            <AltitudeMeters>36.200000762939453125</AltitudeMeters>
            <DistanceMeters>NAN</DistanceMeters>
          </Trackpoint>
          <Trackpoint>
            <Time>2022-07-14T11:26:08.000Z</Time>
            <Position>
              <LatitudeDegrees>43.346038945019245147705078125</LatitudeDegrees>
              <LongitudeDegrees>-4.0534090809524059295654296875</LongitudeDegrees>
            </Position>
            <AltitudeMeters>36.200000762939453125</AltitudeMeters>
            <DistanceMeters>NAN</DistanceMeters>
          </Trackpoint>
          <Trackpoint>
            <Time>2022-07-14T11:26:09.000Z</Time>
            <Position>
              <LatitudeDegrees>43.346034921705722808837890625</LatitudeDegrees>
              <LongitudeDegrees>-4.053382761776447296142578125</LongitudeDegrees>
            </Position>
            <AltitudeMeters>36.200000762939453125</AltitudeMeters>
            <DistanceMeters>NAN</DistanceMeters>
          </Trackpoint>
          <Trackpoint>
            <Time>2022-07-14T11:26:13.000Z</Time>
            <Position>
              <LatitudeDegrees>43.34604003466665744781494140625</LatitudeDegrees>
              <LongitudeDegrees>-4.0534043870866298675537109375</LongitudeDegrees>
            </Position>
            <AltitudeMeters>35.59999847412109375</AltitudeMeters>
            <DistanceMeters>NAN</DistanceMeters>
          </Trackpoint>
          <Trackpoint>
            <Time>2022-07-14T11:42:17.000Z</Time>
            <Position>
              <LatitudeDegrees>43.3461943455040454864501953125</LatitudeDegrees>
              <LongitudeDegrees>-4.052971713244915008544921875</LongitudeDegrees>
            </Position>
            <AltitudeMeters>28.200000762939453125</AltitudeMeters>
            <DistanceMeters>NAN</DistanceMeters>
          </Trackpoint>
          <Trackpoint>
            <Time>2022-07-14T11:42:18.000Z</Time>
            <Position>
              <LatitudeDegrees>43.3461742289364337921142578125</LatitudeDegrees>
              <LongitudeDegrees>-4.0529567934572696685791015625</LongitudeDegrees>
            </Position>
            <AltitudeMeters>28.200000762939453125</AltitudeMeters>
            <DistanceMeters>NAN</DistanceMeters>
          </Trackpoint>
          <Trackpoint>
            <Time>2022-07-14T11:42:19.000Z</Time>
            <Position>
              <LatitudeDegrees>43.34616861306130886077880859375</LatitudeDegrees>
              <LongitudeDegrees>-4.05294614844024181365966796875</LongitudeDegrees>
            </Position>
            <AltitudeMeters>28.200000762939453125</AltitudeMeters>
            <DistanceMeters>NAN</DistanceMeters>
          </Trackpoint>
          <Trackpoint>
            <Time>2022-07-14T11:42:23.000Z</Time>
            <Position>
              <LatitudeDegrees>43.34614011459052562713623046875</LatitudeDegrees>
              <LongitudeDegrees>-4.052888564765453338623046875</LongitudeDegrees>
            </Position>
            <AltitudeMeters>28.200000762939453125</AltitudeMeters>
            <DistanceMeters>NAN</DistanceMeters>
          </Trackpoint>
          <Trackpoint>
            <Time>2022-07-14T11:42:30.000Z</Time>
            <Position>
              <LatitudeDegrees>43.3460840396583080291748046875</LatitudeDegrees>
              <LongitudeDegrees>-4.05279141850769519805908203125</LongitudeDegrees>
            </Position>
            <AltitudeMeters>28.200000762939453125</AltitudeMeters>
            <DistanceMeters>NAN</DistanceMeters>
          </Trackpoint>
          <Trackpoint>
            <Time>2022-07-14T11:42:34.000Z</Time>
            <Position>
              <LatitudeDegrees>43.3460263721644878387451171875</LatitudeDegrees>
              <LongitudeDegrees>-4.05271849595010280609130859375</LongitudeDegrees>
            </Position>
            <AltitudeMeters>28.3999996185302734375</AltitudeMeters>
            <DistanceMeters>NAN</DistanceMeters>
          </Trackpoint>
          <Trackpoint>
            <Time>2022-07-14T11:42:36.000Z</Time>
            <Position>
              <LatitudeDegrees>43.34598588757216930389404296875</LatitudeDegrees>
              <LongitudeDegrees>-4.0526801906526088714599609375</LongitudeDegrees>
            </Position>
            <AltitudeMeters>28.3999996185302734375</AltitudeMeters>
            <DistanceMeters>NAN</DistanceMeters>
          </Trackpoint>
          <Trackpoint>
            <Time>2022-07-14T11:42:41.000Z</Time>
            <Position>
              <LatitudeDegrees>43.3460780046880245208740234375</LatitudeDegrees>
              <LongitudeDegrees>-4.052600562572479248046875</LongitudeDegrees>
            </Position>
            <AltitudeMeters>28.3999996185302734375</AltitudeMeters>
            <DistanceMeters>NAN</DistanceMeters>
          </Trackpoint>
          <Trackpoint>
            <Time>2022-07-14T11:42:42.000Z</Time>
            <Position>
              <LatitudeDegrees>43.34607859142124652862548828125</LatitudeDegrees>
              <LongitudeDegrees>-4.05259511433541774749755859375</LongitudeDegrees>
            </Position>
            <AltitudeMeters>28.3999996185302734375</AltitudeMeters>
            <DistanceMeters>NAN</DistanceMeters>
          </Trackpoint>
          <Trackpoint>
            <Time>2022-07-14T11:42:46.000Z</Time>
            <Position>
              <LatitudeDegrees>43.3460676111280918121337890625</LatitudeDegrees>
              <LongitudeDegrees>-4.05257684178650379180908203125</LongitudeDegrees>
            </Position>
            <AltitudeMeters>28.3999996185302734375</AltitudeMeters>
            <DistanceMeters>NAN</DistanceMeters>
          </Trackpoint>
          <Trackpoint>
            <Time>2022-07-14T11:48:29.000Z</Time>
            <Position>
              <LatitudeDegrees>43.346378244459629058837890625</LatitudeDegrees>
              <LongitudeDegrees>-4.0521588362753391265869140625</LongitudeDegrees>
            </Position>
            <AltitudeMeters>23</AltitudeMeters>
            <DistanceMeters>NAN</DistanceMeters>
          </Trackpoint>
          <Trackpoint>
            <Time>2022-07-14T11:48:41.000Z</Time>
            <Position>
              <LatitudeDegrees>43.34638989530503749847412109375</LatitudeDegrees>
              <LongitudeDegrees>-4.05218758620321750640869140625</LongitudeDegrees>
            </Position>
            <AltitudeMeters>24</AltitudeMeters>
            <DistanceMeters>NAN</DistanceMeters>
          </Trackpoint>
          <Trackpoint>
            <Time>2022-07-14T11:48:42.000Z</Time>
            <Position>
              <LatitudeDegrees>43.346364162862300872802734375</LatitudeDegrees>
              <LongitudeDegrees>-4.05227978713810443878173828125</LongitudeDegrees>
            </Position>
            <AltitudeMeters>24</AltitudeMeters>
            <DistanceMeters>NAN</DistanceMeters>
          </Trackpoint>
          <Trackpoint>
            <Time>2022-07-14T11:49:32.000Z</Time>
            <Position>
              <LatitudeDegrees>43.3464263565838336944580078125</LatitudeDegrees>
              <LongitudeDegrees>-4.05147135257720947265625</LongitudeDegrees>
            </Position>
            <AltitudeMeters>26.6000003814697265625</AltitudeMeters>
            <DistanceMeters>NAN</DistanceMeters>
          </Trackpoint>
          <Trackpoint>
            <Time>2022-07-14T11:49:33.000Z</Time>
            <Position>
              <LatitudeDegrees>43.34641789086163043975830078125</LatitudeDegrees>
              <LongitudeDegrees>-4.05139298178255558013916015625</LongitudeDegrees>
            </Position>
            <AltitudeMeters>26.6000003814697265625</AltitudeMeters>
            <DistanceMeters>NAN</DistanceMeters>
          </Trackpoint>
          <Trackpoint>
            <Time>2022-07-14T11:49:35.000Z</Time>
            <Position>
              <LatitudeDegrees>43.34640615619719028472900390625</LatitudeDegrees>
              <LongitudeDegrees>-4.051398597657680511474609375</LongitudeDegrees>
            </Position>
            <AltitudeMeters>26.6000003814697265625</AltitudeMeters>
            <DistanceMeters>NAN</DistanceMeters>
          </Trackpoint>
          <Trackpoint>
            <Time>2022-07-14T11:49:39.000Z</Time>
            <Position>
              <LatitudeDegrees>43.3463877998292446136474609375</LatitudeDegrees>
              <LongitudeDegrees>-4.05142751522362232208251953125</LongitudeDegrees>
            </Position>
            <AltitudeMeters>26.6000003814697265625</AltitudeMeters>
            <DistanceMeters>NAN</DistanceMeters>
          </Trackpoint>
          <Trackpoint>
            <Time>2022-07-14T11:49:44.000Z</Time>
            <Position>
              <LatitudeDegrees>43.346345722675323486328125</LatitudeDegrees>
              <LongitudeDegrees>-4.05194811522960662841796875</LongitudeDegrees>
            </Position>
            <AltitudeMeters>26.799999237060546875</AltitudeMeters>
            <DistanceMeters>NAN</DistanceMeters>
          </Trackpoint>
          <Trackpoint>
            <Time>2022-07-14T11:49:46.000Z</Time>
            <Position>
              <LatitudeDegrees>43.34633876569569110870361328125</LatitudeDegrees>
              <LongitudeDegrees>-4.05189271084964275360107421875</LongitudeDegrees>
            </Position>
            <AltitudeMeters>26.799999237060546875</AltitudeMeters>
            <DistanceMeters>NAN</DistanceMeters>
          </Trackpoint>
          <Trackpoint>
            <Time>2022-07-14T11:49:51.000Z</Time>
            <Position>
              <LatitudeDegrees>43.346454016864299774169921875</LatitudeDegrees>
              <LongitudeDegrees>-4.05205666087567806243896484375</LongitudeDegrees>
            </Position>
            <AltitudeMeters>27</AltitudeMeters>
            <DistanceMeters>NAN</DistanceMeters>
          </Trackpoint>
          <Trackpoint>
            <Time>2022-07-14T11:49:52.000Z</Time>
            <Position>
              <LatitudeDegrees>43.34646482951939105987548828125</LatitudeDegrees>
              <LongitudeDegrees>-4.05213260091841220855712890625</LongitudeDegrees>
            </Position>
            <AltitudeMeters>27.200000762939453125</AltitudeMeters>
            <DistanceMeters>NAN</DistanceMeters>
          </Trackpoint>
          <Trackpoint>
            <Time>2022-07-14T11:49:56.000Z</Time>
            <Position>
              <LatitudeDegrees>43.3464810065925121307373046875</LatitudeDegrees>
              <LongitudeDegrees>-4.052255563437938690185546875</LongitudeDegrees>
            </Position>
            <AltitudeMeters>27.3999996185302734375</AltitudeMeters>
            <DistanceMeters>NAN</DistanceMeters>
          </Trackpoint>
          <Trackpoint>
            <Time>2022-07-14T11:49:59.000Z</Time>
            <Position>
              <LatitudeDegrees>43.34647505544126033782958984375</LatitudeDegrees>
              <LongitudeDegrees>-4.0523439086973667144775390625</LongitudeDegrees>
            </Position>
            <AltitudeMeters>27.3999996185302734375</AltitudeMeters>
            <DistanceMeters>NAN</DistanceMeters>
          </Trackpoint>
          <Trackpoint>
            <Time>2022-07-14T11:50:03.000Z</Time>
            <Position>
              <LatitudeDegrees>43.3464732952415943145751953125</LatitudeDegrees>
              <LongitudeDegrees>-4.0524921007454395294189453125</LongitudeDegrees>
            </Position>
            <AltitudeMeters>27.6000003814697265625</AltitudeMeters>
            <DistanceMeters>NAN</DistanceMeters>
          </Trackpoint>
          <Trackpoint>
            <Time>2022-07-14T11:50:04.000Z</Time>
            <Position>
              <LatitudeDegrees>43.3464461378753185272216796875</LatitudeDegrees>
              <LongitudeDegrees>-4.05253845266997814178466796875</LongitudeDegrees>
            </Position>
            <AltitudeMeters>27.6000003814697265625</AltitudeMeters>
            <DistanceMeters>NAN</DistanceMeters>
          </Trackpoint>
          <Trackpoint>
            <Time>2022-07-14T11:50:08.000Z</Time>
            <Position>
              <LatitudeDegrees>43.3464387618005275726318359375</LatitudeDegrees>
              <LongitudeDegrees>-4.05190050601959228515625</LongitudeDegrees>
            </Position>
            <AltitudeMeters>27.3999996185302734375</AltitudeMeters>
            <DistanceMeters>NAN</DistanceMeters>
          </Trackpoint>
          <Trackpoint>
            <Time>2022-07-14T11:50:14.000Z</Time>
            <Position>
              <LatitudeDegrees>43.34645980037748813629150390625</LatitudeDegrees>
              <LongitudeDegrees>-4.05226637609302997589111328125</LongitudeDegrees>
            </Position>
            <AltitudeMeters>27.6000003814697265625</AltitudeMeters>
            <DistanceMeters>NAN</DistanceMeters>
          </Trackpoint>
          <Trackpoint>
            <Time>2022-07-14T11:50:18.000Z</Time>
            <Position>
              <LatitudeDegrees>43.34638671018183231353759765625</LatitudeDegrees>
              <LongitudeDegrees>-4.05211147852241992950439453125</LongitudeDegrees>
            </Position>
            <AltitudeMeters>28</AltitudeMeters>
            <DistanceMeters>NAN</DistanceMeters>
          </Trackpoint>
          <Trackpoint>
            <Time>2022-07-14T11:50:23.000Z</Time>
            <Position>
              <LatitudeDegrees>43.346418477594852447509765625</LatitudeDegrees>
              <LongitudeDegrees>-4.05210636556148529052734375</LongitudeDegrees>
            </Position>
            <AltitudeMeters>28.6000003814697265625</AltitudeMeters>
            <DistanceMeters>NAN</DistanceMeters>
          </Trackpoint>
          <Trackpoint>
            <Time>2022-07-14T11:50:24.000Z</Time>
            <Position>
              <LatitudeDegrees>43.34641621448099613189697265625</LatitudeDegrees>
              <LongitudeDegrees>-4.05211566947400569915771484375</LongitudeDegrees>
            </Position>
            <AltitudeMeters>28.799999237060546875</AltitudeMeters>
            <DistanceMeters>NAN</DistanceMeters>
          </Trackpoint>
          <Trackpoint>
            <Time>2022-07-14T11:50:26.000Z</Time>
            <Position>
              <LatitudeDegrees>43.3464052341878414154052734375</LatitudeDegrees>
              <LongitudeDegrees>-4.0520411543548107147216796875</LongitudeDegrees>
            </Position>
            <AltitudeMeters>29</AltitudeMeters>
            <DistanceMeters>NAN</DistanceMeters>
          </Trackpoint>
          <Trackpoint>
            <Time>2022-07-14T11:50:31.000Z</Time>
            <Position>
              <LatitudeDegrees>43.3462888933718204498291015625</LatitudeDegrees>
              <LongitudeDegrees>-4.0521159209311008453369140625</LongitudeDegrees>
            </Position>
            <AltitudeMeters>29.200000762939453125</AltitudeMeters>
            <DistanceMeters>NAN</DistanceMeters>
          </Trackpoint>
          <Trackpoint>
            <Time>2022-07-14T11:50:34.000Z</Time>
            <Position>
              <LatitudeDegrees>43.34627799689769744873046875</LatitudeDegrees>
              <LongitudeDegrees>-4.05210795812308788299560546875</LongitudeDegrees>
            </Position>
            <AltitudeMeters>29.3999996185302734375</AltitudeMeters>
            <DistanceMeters>NAN</DistanceMeters>
          </Trackpoint>
          <Trackpoint>
            <Time>2022-07-14T11:50:36.000Z</Time>
            <Position>
              <LatitudeDegrees>43.34626416675746440887451171875</LatitudeDegrees>
              <LongitudeDegrees>-4.0520854108035564422607421875</LongitudeDegrees>
            </Position>
            <AltitudeMeters>29.3999996185302734375</AltitudeMeters>
            <DistanceMeters>NAN</DistanceMeters>
          </Trackpoint>
          <Trackpoint>
            <Time>2022-07-14T11:50:39.000Z</Time>
            <Position>
              <LatitudeDegrees>43.3463401906192302703857421875</LatitudeDegrees>
              <LongitudeDegrees>-4.05216931365430355072021484375</LongitudeDegrees>
            </Position>
            <AltitudeMeters>29.3999996185302734375</AltitudeMeters>
            <DistanceMeters>NAN</DistanceMeters>
          </Trackpoint>
          <Trackpoint>
            <Time>2022-07-14T11:50:40.000Z</Time>
            <Position>
              <LatitudeDegrees>43.34636793471872806549072265625</LatitudeDegrees>
              <LongitudeDegrees>-4.05218222178518772125244140625</LongitudeDegrees>
            </Position>
            <AltitudeMeters>29.3999996185302734375</AltitudeMeters>
            <DistanceMeters>NAN</DistanceMeters>
          </Trackpoint>
          <Trackpoint>
            <Time>2022-07-14T11:50:43.000Z</Time>
            <Position>
              <LatitudeDegrees>43.34642526693642139434814453125</LatitudeDegrees>
              <LongitudeDegrees>-4.0523335151374340057373046875</LongitudeDegrees>
            </Position>
            <AltitudeMeters>29.3999996185302734375</AltitudeMeters>
            <DistanceMeters>NAN</DistanceMeters>
          </Trackpoint>
          <Trackpoint>
            <Time>2022-07-14T11:50:44.000Z</Time>
            <Position>
              <LatitudeDegrees>43.34644161164760589599609375</LatitudeDegrees>
              <LongitudeDegrees>-4.05229856260120868682861328125</LongitudeDegrees>
            </Position>
            <AltitudeMeters>29.3999996185302734375</AltitudeMeters>
            <DistanceMeters>NAN</DistanceMeters>
          </Trackpoint>
          <Trackpoint>
            <Time>2022-07-14T11:50:46.000Z</Time>
            <Position>
              <LatitudeDegrees>43.34644295275211334228515625</LatitudeDegrees>
              <LongitudeDegrees>-4.0522398054599761962890625</LongitudeDegrees>
            </Position>
            <AltitudeMeters>29.3999996185302734375</AltitudeMeters>
            <DistanceMeters>NAN</DistanceMeters>
          </Trackpoint>
          <Trackpoint>
            <Time>2022-07-14T11:50:47.000Z</Time>
            <Position>
              <LatitudeDegrees>43.3464382588863372802734375</LatitudeDegrees>
              <LongitudeDegrees>-4.05222094617784023284912109375</LongitudeDegrees>
            </Position>
            <AltitudeMeters>29.200000762939453125</AltitudeMeters>
            <DistanceMeters>NAN</DistanceMeters>
          </Trackpoint>
          <Trackpoint>
            <Time>2022-07-14T11:50:51.000Z</Time>
            <Position>
              <LatitudeDegrees>43.34642074070870876312255859375</LatitudeDegrees>
              <LongitudeDegrees>-4.052185155451297760009765625</LongitudeDegrees>
            </Position>
            <AltitudeMeters>29.200000762939453125</AltitudeMeters>
            <DistanceMeters>NAN</DistanceMeters>
          </Trackpoint>
          <Trackpoint>
            <Time>2022-07-14T11:50:52.000Z</Time>
            <Position>
              <LatitudeDegrees>43.3464250154793262481689453125</LatitudeDegrees>
              <LongitudeDegrees>-4.05218037776648998260498046875</LongitudeDegrees>
            </Position>
            <AltitudeMeters>29.200000762939453125</AltitudeMeters>
            <DistanceMeters>NAN</DistanceMeters>
          </Trackpoint>
          <Trackpoint>
            <Time>2022-07-14T11:50:54.000Z</Time>
            <Position>
              <LatitudeDegrees>43.34643348120152950286865234375</LatitudeDegrees>
              <LongitudeDegrees>-4.05219219624996185302734375</LongitudeDegrees>
            </Position>
            <AltitudeMeters>29.200000762939453125</AltitudeMeters>
            <DistanceMeters>NAN</DistanceMeters>
          </Trackpoint>
          <Trackpoint>
            <Time>2022-07-14T11:51:04.000Z</Time>
            <Position>
              <LatitudeDegrees>43.346497602760791778564453125</LatitudeDegrees>
              <LongitudeDegrees>-4.05215607024729251861572265625</LongitudeDegrees>
            </Position>
            <AltitudeMeters>29.799999237060546875</AltitudeMeters>
            <DistanceMeters>NAN</DistanceMeters>
          </Trackpoint>
          <Trackpoint>
            <Time>2022-07-14T11:51:05.000Z</Time>
            <Position>
              <LatitudeDegrees>43.34651394747197628021240234375</LatitudeDegrees>
              <LongitudeDegrees>-4.052146263420581817626953125</LongitudeDegrees>
            </Position>
            <AltitudeMeters>29.799999237060546875</AltitudeMeters>
            <DistanceMeters>NAN</DistanceMeters>
          </Trackpoint>
          <Trackpoint>
            <Time>2022-07-14T11:51:10.000Z</Time>
            <Position>
              <LatitudeDegrees>43.34664420224726200103759765625</LatitudeDegrees>
              <LongitudeDegrees>-4.05209538526833057403564453125</LongitudeDegrees>
            </Position>
            <AltitudeMeters>30</AltitudeMeters>
            <DistanceMeters>NAN</DistanceMeters>
          </Trackpoint>
          <Trackpoint>
            <Time>2022-07-14T11:51:12.000Z</Time>
            <Position>
              <LatitudeDegrees>43.34667068906128406524658203125</LatitudeDegrees>
              <LongitudeDegrees>-4.05208298005163669586181640625</LongitudeDegrees>
            </Position>
            <AltitudeMeters>30</AltitudeMeters>
            <DistanceMeters>NAN</DistanceMeters>
          </Trackpoint>
          <Trackpoint>
            <Time>2022-07-14T11:51:15.000Z</Time>
            <Position>
              <LatitudeDegrees>43.34669047035276889801025390625</LatitudeDegrees>
              <LongitudeDegrees>-4.05208046548068523406982421875</LongitudeDegrees>
            </Position>
            <AltitudeMeters>29.799999237060546875</AltitudeMeters>
            <DistanceMeters>NAN</DistanceMeters>
          </Trackpoint>
          <Trackpoint>
            <Time>2022-07-14T11:51:31.000Z</Time>
            <Position>
              <LatitudeDegrees>43.3467225730419158935546875</LatitudeDegrees>
              <LongitudeDegrees>-4.05203067697584629058837890625</LongitudeDegrees>
            </Position>
            <AltitudeMeters>30.799999237060546875</AltitudeMeters>
            <DistanceMeters>NAN</DistanceMeters>
          </Trackpoint>
          <Trackpoint>
            <Time>2022-07-14T11:51:34.000Z</Time>
            <Position>
              <LatitudeDegrees>43.3467750437557697296142578125</LatitudeDegrees>
              <LongitudeDegrees>-4.0519818104803562164306640625</LongitudeDegrees>
            </Position>
            <AltitudeMeters>31</AltitudeMeters>
            <DistanceMeters>NAN</DistanceMeters>
          </Trackpoint>
          <Trackpoint>
            <Time>2022-07-14T11:51:36.000Z</Time>
            <Position>
              <LatitudeDegrees>43.34684251807630062103271484375</LatitudeDegrees>
              <LongitudeDegrees>-4.05193696729838848114013671875</LongitudeDegrees>
            </Position>
            <AltitudeMeters>31</AltitudeMeters>
            <DistanceMeters>NAN</DistanceMeters>
          </Trackpoint>
          <Trackpoint>
            <Time>2022-07-14T11:51:41.000Z</Time>
            <Position>
              <LatitudeDegrees>43.346852995455265045166015625</LatitudeDegrees>
              <LongitudeDegrees>-4.05182381160557270050048828125</LongitudeDegrees>
            </Position>
            <AltitudeMeters>31.200000762939453125</AltitudeMeters>
            <DistanceMeters>NAN</DistanceMeters>
          </Trackpoint>
          <Trackpoint>
            <Time>2022-07-14T11:51:49.000Z</Time>
            <Position>
              <LatitudeDegrees>43.3469822444021701812744140625</LatitudeDegrees>
              <LongitudeDegrees>-4.05167981050908565521240234375</LongitudeDegrees>
            </Position>
            <AltitudeMeters>31.3999996185302734375</AltitudeMeters>
            <DistanceMeters>NAN</DistanceMeters>
          </Trackpoint>
          <Trackpoint>
            <Time>2022-07-14T11:51:53.000Z</Time>
            <Position>
              <LatitudeDegrees>43.34711828269064426422119140625</LatitudeDegrees>
              <LongitudeDegrees>-4.051557518541812896728515625</LongitudeDegrees>
            </Position>
            <AltitudeMeters>31.3999996185302734375</AltitudeMeters>
            <DistanceMeters>NAN</DistanceMeters>
          </Trackpoint>
          <Trackpoint>
            <Time>2022-07-14T11:51:54.000Z</Time>
            <Position>
              <LatitudeDegrees>43.34713387303054332733154296875</LatitudeDegrees>
              <LongitudeDegrees>-4.051538072526454925537109375</LongitudeDegrees>
            </Position>
            <AltitudeMeters>31.3999996185302734375</AltitudeMeters>
            <DistanceMeters>NAN</DistanceMeters>
          </Trackpoint>
          <Trackpoint>
            <Time>2022-07-14T11:51:59.000Z</Time>
            <Position>
              <LatitudeDegrees>43.3471046201884746551513671875</LatitudeDegrees>
              <LongitudeDegrees>-4.0514007769525051116943359375</LongitudeDegrees>
            </Position>
            <AltitudeMeters>31.3999996185302734375</AltitudeMeters>
            <DistanceMeters>NAN</DistanceMeters>
          </Trackpoint>
          <Trackpoint>
            <Time>2022-07-14T11:52:05.000Z</Time>
            <Position>
              <LatitudeDegrees>43.34716673009097576141357421875</LatitudeDegrees>
              <LongitudeDegrees>-4.0513343922793865203857421875</LongitudeDegrees>
            </Position>
            <AltitudeMeters>31.6000003814697265625</AltitudeMeters>
            <DistanceMeters>NAN</DistanceMeters>
          </Trackpoint>
          <Trackpoint>
            <Time>2022-07-14T11:52:10.000Z</Time>
            <Position>
              <LatitudeDegrees>43.34729765541851520538330078125</LatitudeDegrees>
              <LongitudeDegrees>-4.0512240864336490631103515625</LongitudeDegrees>
            </Position>
            <AltitudeMeters>31.799999237060546875</AltitudeMeters>
            <DistanceMeters>NAN</DistanceMeters>
          </Trackpoint>
          <Trackpoint>
            <Time>2022-07-14T11:52:13.000Z</Time>
            <Position>
              <LatitudeDegrees>43.347341157495975494384765625</LatitudeDegrees>
              <LongitudeDegrees>-4.0511503256857395172119140625</LongitudeDegrees>
            </Position>
            <AltitudeMeters>32</AltitudeMeters>
            <DistanceMeters>NAN</DistanceMeters>
          </Trackpoint>
          <Trackpoint>
            <Time>2022-07-14T11:52:17.000Z</Time>
            <Position>
              <LatitudeDegrees>43.34737460128962993621826171875</LatitudeDegrees>
              <LongitudeDegrees>-4.0511094219982624053955078125</LongitudeDegrees>
            </Position>
            <AltitudeMeters>32</AltitudeMeters>
            <DistanceMeters>NAN</DistanceMeters>
          </Trackpoint>
          <Trackpoint>
            <Time>2022-07-14T11:52:20.000Z</Time>
            <Position>
              <LatitudeDegrees>43.34741885773837566375732421875</LatitudeDegrees>
              <LongitudeDegrees>-4.051054604351520538330078125</LongitudeDegrees>
            </Position>
            <AltitudeMeters>32</AltitudeMeters>
            <DistanceMeters>NAN</DistanceMeters>
          </Trackpoint>
          <Trackpoint>
            <Time>2022-07-14T11:52:22.000Z</Time>
            <Position>
              <LatitudeDegrees>43.34747233428061008453369140625</LatitudeDegrees>
              <LongitudeDegrees>-4.0510242618620395660400390625</LongitudeDegrees>
            </Position>
            <AltitudeMeters>32</AltitudeMeters>
            <DistanceMeters>NAN</DistanceMeters>
          </Trackpoint>
          <Trackpoint>
            <Time>2022-07-14T11:52:24.000Z</Time>
            <Position>
              <LatitudeDegrees>43.3475218713283538818359375</LatitudeDegrees>
              <LongitudeDegrees>-4.05099517665803432464599609375</LongitudeDegrees>
            </Position>
            <AltitudeMeters>32.200000762939453125</AltitudeMeters>
            <DistanceMeters>NAN</DistanceMeters>
          </Trackpoint>
          <Trackpoint>
            <Time>2022-07-14T11:52:26.000Z</Time>
            <Position>
              <LatitudeDegrees>43.347551710903644561767578125</LatitudeDegrees>
              <LongitudeDegrees>-4.050969779491424560546875</LongitudeDegrees>
            </Position>
            <AltitudeMeters>32.200000762939453125</AltitudeMeters>
            <DistanceMeters>NAN</DistanceMeters>
          </Trackpoint>
          <Trackpoint>
            <Time>2022-07-14T11:52:32.000Z</Time>
            <Position>
              <LatitudeDegrees>43.34772630594670772552490234375</LatitudeDegrees>
              <LongitudeDegrees>-4.05084170401096343994140625</LongitudeDegrees>
            </Position>
            <AltitudeMeters>32.59999847412109375</AltitudeMeters>
            <DistanceMeters>NAN</DistanceMeters>
          </Trackpoint>
          <Trackpoint>
            <Time>2022-07-14T11:52:37.000Z</Time>
            <Position>
              <LatitudeDegrees>43.3478821255266666412353515625</LatitudeDegrees>
              <LongitudeDegrees>-4.0507262013852596282958984375</LongitudeDegrees>
            </Position>
            <AltitudeMeters>32.799999237060546875</AltitudeMeters>
            <DistanceMeters>NAN</DistanceMeters>
          </Trackpoint>
          <Trackpoint>
            <Time>2022-07-14T11:52:43.000Z</Time>
            <Position>
              <LatitudeDegrees>43.34802503697574138641357421875</LatitudeDegrees>
              <LongitudeDegrees>-4.05056300573050975799560546875</LongitudeDegrees>
            </Position>
            <AltitudeMeters>33</AltitudeMeters>
            <DistanceMeters>NAN</DistanceMeters>
          </Trackpoint>
          <Trackpoint>
            <Time>2022-07-14T11:52:45.000Z</Time>
            <Position>
              <LatitudeDegrees>43.348086141049861907958984375</LatitudeDegrees>
              <LongitudeDegrees>-4.050497710704803466796875</LongitudeDegrees>
            </Position>
            <AltitudeMeters>33</AltitudeMeters>
            <DistanceMeters>NAN</DistanceMeters>
          </Trackpoint>
          <Trackpoint>
            <Time>2022-07-14T11:52:52.000Z</Time>
            <Position>
              <LatitudeDegrees>43.34824196062982082366943359375</LatitudeDegrees>
              <LongitudeDegrees>-4.0504388697445392608642578125</LongitudeDegrees>
            </Position>
            <AltitudeMeters>33.200000762939453125</AltitudeMeters>
            <DistanceMeters>NAN</DistanceMeters>
          </Trackpoint>
          <Trackpoint>
            <Time>2022-07-14T11:52:56.000Z</Time>
            <Position>
              <LatitudeDegrees>43.34830415435135364532470703125</LatitudeDegrees>
              <LongitudeDegrees>-4.0504730679094791412353515625</LongitudeDegrees>
            </Position>
            <AltitudeMeters>33.200000762939453125</AltitudeMeters>
            <DistanceMeters>NAN</DistanceMeters>
          </Trackpoint>
          <Trackpoint>
            <Time>2022-07-14T11:52:58.000Z</Time>
            <Position>
              <LatitudeDegrees>43.34835134446620941162109375</LatitudeDegrees>
              <LongitudeDegrees>-4.05045387335121631622314453125</LongitudeDegrees>
            </Position>
            <AltitudeMeters>33.40000152587890625</AltitudeMeters>
            <DistanceMeters>NAN</DistanceMeters>
          </Trackpoint>
          <Trackpoint>
            <Time>2022-07-14T11:53:05.000Z</Time>
            <Position>
              <LatitudeDegrees>43.34848134778439998626708984375</LatitudeDegrees>
              <LongitudeDegrees>-4.0503218583762645721435546875</LongitudeDegrees>
            </Position>
            <AltitudeMeters>33.799999237060546875</AltitudeMeters>
            <DistanceMeters>NAN</DistanceMeters>
          </Trackpoint>
          <Trackpoint>
            <Time>2022-07-14T11:53:09.000Z</Time>
            <Position>
              <LatitudeDegrees>43.34852560423314571380615234375</LatitudeDegrees>
              <LongitudeDegrees>-4.05028958804905414581298828125</LongitudeDegrees>
            </Position>
            <AltitudeMeters>33.799999237060546875</AltitudeMeters>
            <DistanceMeters>NAN</DistanceMeters>
          </Trackpoint>
          <Trackpoint>
            <Time>2022-07-14T11:53:10.000Z</Time>
            <Position>
              <LatitudeDegrees>43.34853985346853733062744140625</LatitudeDegrees>
              <LongitudeDegrees>-4.05029051005840301513671875</LongitudeDegrees>
            </Position>
            <AltitudeMeters>33.799999237060546875</AltitudeMeters>
            <DistanceMeters>NAN</DistanceMeters>
          </Trackpoint>
          <Trackpoint>
            <Time>2022-07-14T11:53:13.000Z</Time>
            <Position>
              <LatitudeDegrees>43.34861210547387599945068359375</LatitudeDegrees>
              <LongitudeDegrees>-4.05032780952751636505126953125</LongitudeDegrees>
            </Position>
            <AltitudeMeters>34.200000762939453125</AltitudeMeters>
            <DistanceMeters>NAN</DistanceMeters>
          </Trackpoint>
          <Trackpoint>
            <Time>2022-07-14T11:53:14.000Z</Time>
            <Position>
              <LatitudeDegrees>43.3486368320882320404052734375</LatitudeDegrees>
              <LongitudeDegrees>-4.0503408014774322509765625</LongitudeDegrees>
            </Position>
            <AltitudeMeters>34.200000762939453125</AltitudeMeters>
            <DistanceMeters>NAN</DistanceMeters>
          </Trackpoint>
          <Trackpoint>
            <Time>2022-07-14T11:53:20.000Z</Time>
            <Position>
              <LatitudeDegrees>43.34874160587787628173828125</LatitudeDegrees>
              <LongitudeDegrees>-4.05040173791348934173583984375</LongitudeDegrees>
            </Position>
            <AltitudeMeters>34.59999847412109375</AltitudeMeters>
            <DistanceMeters>NAN</DistanceMeters>
          </Trackpoint>
          <Trackpoint>
            <Time>2022-07-14T11:53:26.000Z</Time>
            <Position>
              <LatitudeDegrees>43.3488162048161029815673828125</LatitudeDegrees>
              <LongitudeDegrees>-4.05041933991014957427978515625</LongitudeDegrees>
            </Position>
            <AltitudeMeters>33.59999847412109375</AltitudeMeters>
            <DistanceMeters>NAN</DistanceMeters>
          </Trackpoint>
          <Trackpoint>
            <Time>2022-07-14T11:53:32.000Z</Time>
            <Position>
              <LatitudeDegrees>43.34896297194063663482666015625</LatitudeDegrees>
              <LongitudeDegrees>-4.05041179619729518890380859375</LongitudeDegrees>
            </Position>
            <AltitudeMeters>34.40000152587890625</AltitudeMeters>
            <DistanceMeters>NAN</DistanceMeters>
          </Trackpoint>
          <Trackpoint>
            <Time>2022-07-14T11:53:39.000Z</Time>
            <Position>
              <LatitudeDegrees>43.34911116398870944976806640625</LatitudeDegrees>
              <LongitudeDegrees>-4.050449430942535400390625</LongitudeDegrees>
            </Position>
            <AltitudeMeters>34</AltitudeMeters>
            <DistanceMeters>NAN</DistanceMeters>
          </Trackpoint>
          <Trackpoint>
            <Time>2022-07-14T11:53:43.000Z</Time>
            <Position>
              <LatitudeDegrees>43.349234797060489654541015625</LatitudeDegrees>
              <LongitudeDegrees>-4.050425626337528228759765625</LongitudeDegrees>
            </Position>
            <AltitudeMeters>33</AltitudeMeters>
            <DistanceMeters>NAN</DistanceMeters>
          </Trackpoint>
          <Trackpoint>
            <Time>2022-07-14T11:53:44.000Z</Time>
            <Position>
              <LatitudeDegrees>43.34925684146583080291748046875</LatitudeDegrees>
              <LongitudeDegrees>-4.050421603024005889892578125</LongitudeDegrees>
            </Position>
            <AltitudeMeters>33</AltitudeMeters>
            <DistanceMeters>NAN</DistanceMeters>
          </Trackpoint>
          <Trackpoint>
            <Time>2022-07-14T11:53:45.000Z</Time>
            <Position>
              <LatitudeDegrees>43.34927913732826709747314453125</LatitudeDegrees>
              <LongitudeDegrees>-4.05041112564504146575927734375</LongitudeDegrees>
            </Position>
            <AltitudeMeters>33</AltitudeMeters>
            <DistanceMeters>NAN</DistanceMeters>
          </Trackpoint>
          <Trackpoint>
            <Time>2022-07-14T11:53:48.000Z</Time>
            <Position>
              <LatitudeDegrees>43.349330686032772064208984375</LatitudeDegrees>
              <LongitudeDegrees>-4.0502749197185039520263671875</LongitudeDegrees>
            </Position>
            <AltitudeMeters>33</AltitudeMeters>
            <DistanceMeters>NAN</DistanceMeters>
          </Trackpoint>
          <Trackpoint>
            <Time>2022-07-14T11:53:51.000Z</Time>
            <Position>
              <LatitudeDegrees>43.349388353526592254638671875</LatitudeDegrees>
              <LongitudeDegrees>-4.0501391328871250152587890625</LongitudeDegrees>
            </Position>
            <AltitudeMeters>33</AltitudeMeters>
            <DistanceMeters>NAN</DistanceMeters>
          </Trackpoint>
          <Trackpoint>
            <Time>2022-07-14T11:53:53.000Z</Time>
            <Position>
              <LatitudeDegrees>43.34941995330154895782470703125</LatitudeDegrees>
              <LongitudeDegrees>-4.05005673877894878387451171875</LongitudeDegrees>
            </Position>
            <AltitudeMeters>33.200000762939453125</AltitudeMeters>
            <DistanceMeters>NAN</DistanceMeters>
          </Trackpoint>
          <Trackpoint>
            <Time>2022-07-14T11:53:57.000Z</Time>
            <Position>
              <LatitudeDegrees>43.3495041914284229278564453125</LatitudeDegrees>
              <LongitudeDegrees>-4.04982690699398517608642578125</LongitudeDegrees>
            </Position>
            <AltitudeMeters>33.200000762939453125</AltitudeMeters>
            <DistanceMeters>NAN</DistanceMeters>
          </Trackpoint>
          <Trackpoint>
            <Time>2022-07-14T11:53:58.000Z</Time>
            <Position>
              <LatitudeDegrees>43.34951282478868961334228515625</LatitudeDegrees>
              <LongitudeDegrees>-4.04981517232954502105712890625</LongitudeDegrees>
            </Position>
            <AltitudeMeters>33.200000762939453125</AltitudeMeters>
            <DistanceMeters>NAN</DistanceMeters>
          </Trackpoint>
          <Trackpoint>
            <Time>2022-07-14T11:54:01.000Z</Time>
            <Position>
              <LatitudeDegrees>43.34948399104177951812744140625</LatitudeDegrees>
              <LongitudeDegrees>-4.049779884517192840576171875</LongitudeDegrees>
            </Position>
            <AltitudeMeters>33</AltitudeMeters>
            <DistanceMeters>NAN</DistanceMeters>
          </Trackpoint>
          <Trackpoint>
            <Time>2022-07-14T11:54:06.000Z</Time>
            <Position>
              <LatitudeDegrees>43.3494646288454532623291015625</LatitudeDegrees>
              <LongitudeDegrees>-4.04976219870150089263916015625</LongitudeDegrees>
            </Position>
            <AltitudeMeters>32.59999847412109375</AltitudeMeters>
            <DistanceMeters>NAN</DistanceMeters>
          </Trackpoint>
          <Trackpoint>
            <Time>2022-07-14T11:54:08.000Z</Time>
            <Position>
              <LatitudeDegrees>43.3494485355913639068603515625</LatitudeDegrees>
              <LongitudeDegrees>-4.049730598926544189453125</LongitudeDegrees>
            </Position>
            <AltitudeMeters>32.59999847412109375</AltitudeMeters>
            <DistanceMeters>NAN</DistanceMeters>
          </Trackpoint>
          <Trackpoint>
            <Time>2022-07-14T11:54:10.000Z</Time>
            <Position>
              <LatitudeDegrees>43.3494418300688266754150390625</LatitudeDegrees>
              <LongitudeDegrees>-4.04972984455525875091552734375</LongitudeDegrees>
            </Position>
            <AltitudeMeters>32.59999847412109375</AltitudeMeters>
            <DistanceMeters>NAN</DistanceMeters>
          </Trackpoint>
          <Trackpoint>
            <Time>2022-07-14T11:54:14.000Z</Time>
            <Position>
              <LatitudeDegrees>43.349483571946620941162109375</LatitudeDegrees>
              <LongitudeDegrees>-4.04965776018798351287841796875</LongitudeDegrees>
            </Position>
            <AltitudeMeters>33</AltitudeMeters>
            <DistanceMeters>NAN</DistanceMeters>
          </Trackpoint>
          <Trackpoint>
            <Time>2022-07-14T11:54:16.000Z</Time>
            <Position>
              <LatitudeDegrees>43.3495082147419452667236328125</LatitudeDegrees>
              <LongitudeDegrees>-4.049636386334896087646484375</LongitudeDegrees>
            </Position>
            <AltitudeMeters>33</AltitudeMeters>
            <DistanceMeters>NAN</DistanceMeters>
          </Trackpoint>
          <Trackpoint>
            <Time>2022-07-14T11:54:18.000Z</Time>
            <Position>
              <LatitudeDegrees>43.349519781768321990966796875</LatitudeDegrees>
              <LongitudeDegrees>-4.04963395558297634124755859375</LongitudeDegrees>
            </Position>
            <AltitudeMeters>33</AltitudeMeters>
            <DistanceMeters>NAN</DistanceMeters>
          </Trackpoint>
          <Trackpoint>
            <Time>2022-07-14T11:55:38.000Z</Time>
            <Position>
              <LatitudeDegrees>43.34954031743109226226806640625</LatitudeDegrees>
              <LongitudeDegrees>-4.04955432750284671783447265625</LongitudeDegrees>
            </Position>
            <AltitudeMeters>32.200000762939453125</AltitudeMeters>
            <DistanceMeters>NAN</DistanceMeters>
          </Trackpoint>
          <Trackpoint>
            <Time>2022-07-14T11:55:39.000Z</Time>
            <Position>
              <LatitudeDegrees>43.3495417423546314239501953125</LatitudeDegrees>
              <LongitudeDegrees>-4.0495517291128635406494140625</LongitudeDegrees>
            </Position>
            <AltitudeMeters>32.200000762939453125</AltitudeMeters>
            <DistanceMeters>NAN</DistanceMeters>
          </Trackpoint>
          <Trackpoint>
            <Time>2022-07-14T11:55:42.000Z</Time>
            <Position>
              <LatitudeDegrees>43.34954618476331233978271484375</LatitudeDegrees>
              <LongitudeDegrees>-4.049585759639739990234375</LongitudeDegrees>
            </Position>
            <AltitudeMeters>32.40000152587890625</AltitudeMeters>
            <DistanceMeters>NAN</DistanceMeters>
          </Trackpoint>
          <Trackpoint>
            <Time>2022-07-14T11:55:45.000Z</Time>
            <Position>
              <LatitudeDegrees>43.34953428246080875396728515625</LatitudeDegrees>
              <LongitudeDegrees>-4.04956203885376453399658203125</LongitudeDegrees>
            </Position>
            <AltitudeMeters>32.40000152587890625</AltitudeMeters>
            <DistanceMeters>NAN</DistanceMeters>
          </Trackpoint>
          <Trackpoint>
            <Time>2022-07-14T11:55:46.000Z</Time>
            <Position>
              <LatitudeDegrees>43.349532522261142730712890625</LatitudeDegrees>
              <LongitudeDegrees>-4.04951694421470165252685546875</LongitudeDegrees>
            </Position>
            <AltitudeMeters>32.40000152587890625</AltitudeMeters>
            <DistanceMeters>NAN</DistanceMeters>
          </Trackpoint>
          <Trackpoint>
            <Time>2022-07-14T11:55:48.000Z</Time>
            <Position>
              <LatitudeDegrees>43.34953285753726959228515625</LatitudeDegrees>
              <LongitudeDegrees>-4.049443937838077545166015625</LongitudeDegrees>
            </Position>
            <AltitudeMeters>32.40000152587890625</AltitudeMeters>
            <DistanceMeters>NAN</DistanceMeters>
          </Trackpoint>
          <Trackpoint>
            <Time>2022-07-14T11:55:50.000Z</Time>
            <Position>
              <LatitudeDegrees>43.349542915821075439453125</LatitudeDegrees>
              <LongitudeDegrees>-4.0494474582374095916748046875</LongitudeDegrees>
            </Position>
            <AltitudeMeters>32.40000152587890625</AltitudeMeters>
            <DistanceMeters>NAN</DistanceMeters>
          </Trackpoint>
          <Trackpoint>
            <Time>2022-07-14T11:55:53.000Z</Time>
            <Position>
              <LatitudeDegrees>43.34955624304711818695068359375</LatitudeDegrees>
              <LongitudeDegrees>-4.04950235970318317413330078125</LongitudeDegrees>
            </Position>
            <AltitudeMeters>32.40000152587890625</AltitudeMeters>
            <DistanceMeters>NAN</DistanceMeters>
          </Trackpoint>
          <Trackpoint>
            <Time>2022-07-14T11:55:55.000Z</Time>
            <Position>
              <LatitudeDegrees>43.34952858276665210723876953125</LatitudeDegrees>
              <LongitudeDegrees>-4.04953278601169586181640625</LongitudeDegrees>
            </Position>
            <AltitudeMeters>32.40000152587890625</AltitudeMeters>
            <DistanceMeters>NAN</DistanceMeters>
          </Trackpoint>
          <Trackpoint>
            <Time>2022-07-14T11:55:58.000Z</Time>
            <Position>
              <LatitudeDegrees>43.34951265715062618255615234375</LatitudeDegrees>
              <LongitudeDegrees>-4.04955415986478328704833984375</LongitudeDegrees>
            </Position>
            <AltitudeMeters>32.40000152587890625</AltitudeMeters>
            <DistanceMeters>NAN</DistanceMeters>
          </Trackpoint>
          <Trackpoint>
            <Time>2022-07-14T11:56:26.000Z</Time>
            <Position>
              <LatitudeDegrees>43.34959999658167362213134765625</LatitudeDegrees>
              <LongitudeDegrees>-4.04965926893055438995361328125</LongitudeDegrees>
            </Position>
            <AltitudeMeters>32.59999847412109375</AltitudeMeters>
            <DistanceMeters>NAN</DistanceMeters>
          </Trackpoint>
          <Trackpoint>
            <Time>2022-07-14T11:56:29.000Z</Time>
            <Position>
              <LatitudeDegrees>43.3496041037142276763916015625</LatitudeDegrees>
              <LongitudeDegrees>-4.0495919622480869293212890625</LongitudeDegrees>
            </Position>
            <AltitudeMeters>32.59999847412109375</AltitudeMeters>
            <DistanceMeters>NAN</DistanceMeters>
          </Trackpoint>
          <Trackpoint>
            <Time>2022-07-14T11:56:31.000Z</Time>
            <Position>
              <LatitudeDegrees>43.34952556528151035308837890625</LatitudeDegrees>
              <LongitudeDegrees>-4.0494732744991779327392578125</LongitudeDegrees>
            </Position>
            <AltitudeMeters>32.59999847412109375</AltitudeMeters>
            <DistanceMeters>NAN</DistanceMeters>
          </Trackpoint>
          <Trackpoint>
            <Time>2022-07-14T11:56:34.000Z</Time>
            <Position>
              <LatitudeDegrees>43.3494649641215801239013671875</LatitudeDegrees>
              <LongitudeDegrees>-4.0493529103696346282958984375</LongitudeDegrees>
            </Position>
            <AltitudeMeters>32.59999847412109375</AltitudeMeters>
            <DistanceMeters>NAN</DistanceMeters>
          </Trackpoint>
          <Trackpoint>
            <Time>2022-07-14T11:56:35.000Z</Time>
            <Position>
              <LatitudeDegrees>43.34951869212090969085693359375</LatitudeDegrees>
              <LongitudeDegrees>-4.04932784847915172576904296875</LongitudeDegrees>
            </Position>
            <AltitudeMeters>32.59999847412109375</AltitudeMeters>
            <DistanceMeters>NAN</DistanceMeters>
          </Trackpoint>
          <Trackpoint>
            <Time>2022-07-14T11:56:36.000Z</Time>
            <Position>
              <LatitudeDegrees>43.349556662142276763916015625</LatitudeDegrees>
              <LongitudeDegrees>-4.04934771358966827392578125</LongitudeDegrees>
            </Position>
            <AltitudeMeters>32.59999847412109375</AltitudeMeters>
            <DistanceMeters>NAN</DistanceMeters>
          </Trackpoint>
          <Trackpoint>
            <Time>2022-07-14T11:56:38.000Z</Time>
            <Position>
              <LatitudeDegrees>43.349612317979335784912109375</LatitudeDegrees>
              <LongitudeDegrees>-4.04949917457997798919677734375</LongitudeDegrees>
            </Position>
            <AltitudeMeters>32.59999847412109375</AltitudeMeters>
            <DistanceMeters>NAN</DistanceMeters>
          </Trackpoint>
          <Trackpoint>
            <Time>2022-07-14T11:56:41.000Z</Time>
            <Position>
              <LatitudeDegrees>43.3496315963566303253173828125</LatitudeDegrees>
              <LongitudeDegrees>-4.0496828220784664154052734375</LongitudeDegrees>
            </Position>
            <AltitudeMeters>32.59999847412109375</AltitudeMeters>
            <DistanceMeters>NAN</DistanceMeters>
          </Trackpoint>
          <Trackpoint>
            <Time>2022-07-14T11:56:43.000Z</Time>
            <Position>
              <LatitudeDegrees>43.3496101386845111846923828125</LatitudeDegrees>
              <LongitudeDegrees>-4.04970402829349040985107421875</LongitudeDegrees>
            </Position>
            <AltitudeMeters>32.59999847412109375</AltitudeMeters>
            <DistanceMeters>NAN</DistanceMeters>
          </Trackpoint>
          <Trackpoint>
            <Time>2022-07-14T11:56:47.000Z</Time>
            <Position>
              <LatitudeDegrees>43.34958390332758426666259765625</LatitudeDegrees>
              <LongitudeDegrees>-4.04962926171720027923583984375</LongitudeDegrees>
            </Position>
            <AltitudeMeters>32.40000152587890625</AltitudeMeters>
            <DistanceMeters>NAN</DistanceMeters>
          </Trackpoint>
          <Trackpoint>
            <Time>2022-07-14T11:56:52.000Z</Time>
            <Position>
              <LatitudeDegrees>43.34958507679402828216552734375</LatitudeDegrees>
              <LongitudeDegrees>-4.0495520643889904022216796875</LongitudeDegrees>
            </Position>
            <AltitudeMeters>32.59999847412109375</AltitudeMeters>
            <DistanceMeters>NAN</DistanceMeters>
          </Trackpoint>
          <Trackpoint>
            <Time>2022-07-14T11:56:57.000Z</Time>
            <Position>
              <LatitudeDegrees>43.349529169499874114990234375</LatitudeDegrees>
              <LongitudeDegrees>-4.0494824945926666259765625</LongitudeDegrees>
            </Position>
            <AltitudeMeters>32.59999847412109375</AltitudeMeters>
            <DistanceMeters>NAN</DistanceMeters>
          </Trackpoint>
          <Trackpoint>
            <Time>2022-07-14T11:57:01.000Z</Time>
            <Position>
              <LatitudeDegrees>43.34952858276665210723876953125</LatitudeDegrees>
              <LongitudeDegrees>-4.0494263358414173126220703125</LongitudeDegrees>
            </Position>
            <AltitudeMeters>32.59999847412109375</AltitudeMeters>
            <DistanceMeters>NAN</DistanceMeters>
          </Trackpoint>
          <Trackpoint>
            <Time>2022-07-14T11:57:06.000Z</Time>
            <Position>
              <LatitudeDegrees>43.34963251836597919464111328125</LatitudeDegrees>
              <LongitudeDegrees>-4.049280993640422821044921875</LongitudeDegrees>
            </Position>
            <AltitudeMeters>32.59999847412109375</AltitudeMeters>
            <DistanceMeters>NAN</DistanceMeters>
          </Trackpoint>
          <Trackpoint>
            <Time>2022-07-14T11:57:13.000Z</Time>
            <Position>
              <LatitudeDegrees>43.34964358247816562652587890625</LatitudeDegrees>
              <LongitudeDegrees>-4.04939155094325542449951171875</LongitudeDegrees>
            </Position>
            <AltitudeMeters>32.59999847412109375</AltitudeMeters>
            <DistanceMeters>NAN</DistanceMeters>
          </Trackpoint>
          <Trackpoint>
            <Time>2022-07-14T11:59:09.000Z</Time>
            <Position>
              <LatitudeDegrees>43.349555321037769317626953125</LatitudeDegrees>
              <LongitudeDegrees>-4.04968592338263988494873046875</LongitudeDegrees>
            </Position>
            <AltitudeMeters>33.200000762939453125</AltitudeMeters>
            <DistanceMeters>NAN</DistanceMeters>
          </Trackpoint>
          <Trackpoint>
            <Time>2022-07-14T11:59:10.000Z</Time>
            <Position>
              <LatitudeDegrees>43.34955322556197643280029296875</LatitudeDegrees>
              <LongitudeDegrees>-4.04968910850584506988525390625</LongitudeDegrees>
            </Position>
            <AltitudeMeters>33.200000762939453125</AltitudeMeters>
            <DistanceMeters>NAN</DistanceMeters>
          </Trackpoint>
          <Trackpoint>
            <Time>2022-07-14T11:59:11.000Z</Time>
            <Position>
              <LatitudeDegrees>43.3495695702731609344482421875</LatitudeDegrees>
              <LongitudeDegrees>-4.04970578849315643310546875</LongitudeDegrees>
            </Position>
            <AltitudeMeters>33.200000762939453125</AltitudeMeters>
            <DistanceMeters>NAN</DistanceMeters>
          </Trackpoint>
          <Trackpoint>
            <Time>2022-07-14T11:59:14.000Z</Time>
            <Position>
              <LatitudeDegrees>43.34968398325145244598388671875</LatitudeDegrees>
              <LongitudeDegrees>-4.049764461815357208251953125</LongitudeDegrees>
            </Position>
            <AltitudeMeters>33.200000762939453125</AltitudeMeters>
            <DistanceMeters>NAN</DistanceMeters>
          </Trackpoint>
          <Trackpoint>
            <Time>2022-07-14T11:59:18.000Z</Time>
            <Position>
              <LatitudeDegrees>43.34986905567348003387451171875</LatitudeDegrees>
              <LongitudeDegrees>-4.0498447604477405548095703125</LongitudeDegrees>
            </Position>
            <AltitudeMeters>33</AltitudeMeters>
            <DistanceMeters>NAN</DistanceMeters>
          </Trackpoint>
          <Trackpoint>
            <Time>2022-07-14T11:59:19.000Z</Time>
            <Position>
              <LatitudeDegrees>43.34990493021905422210693359375</LatitudeDegrees>
              <LongitudeDegrees>-4.04988373629748821258544921875</LongitudeDegrees>
            </Position>
            <AltitudeMeters>32.799999237060546875</AltitudeMeters>
            <DistanceMeters>NAN</DistanceMeters>
          </Trackpoint>
          <Trackpoint>
            <Time>2022-07-14T11:59:22.000Z</Time>
            <Position>
              <LatitudeDegrees>43.3500201813876628875732421875</LatitudeDegrees>
              <LongitudeDegrees>-4.0500077046453952789306640625</LongitudeDegrees>
            </Position>
            <AltitudeMeters>32.40000152587890625</AltitudeMeters>
            <DistanceMeters>NAN</DistanceMeters>
          </Trackpoint>
          <Trackpoint>
            <Time>2022-07-14T11:59:24.000Z</Time>
            <Position>
              <LatitudeDegrees>43.350109867751598358154296875</LatitudeDegrees>
              <LongitudeDegrees>-4.050093032419681549072265625</LongitudeDegrees>
            </Position>
            <AltitudeMeters>32</AltitudeMeters>
            <DistanceMeters>NAN</DistanceMeters>
          </Trackpoint>
          <Trackpoint>
            <Time>2022-07-14T11:59:25.000Z</Time>
            <Position>
              <LatitudeDegrees>43.35015806369483470916748046875</LatitudeDegrees>
              <LongitudeDegrees>-4.05010811984539031982421875</LongitudeDegrees>
            </Position>
            <AltitudeMeters>31.799999237060546875</AltitudeMeters>
            <DistanceMeters>NAN</DistanceMeters>
          </Trackpoint>
          <Trackpoint>
            <Time>2022-07-14T11:59:26.000Z</Time>
            <Position>
              <LatitudeDegrees>43.350190334022045135498046875</LatitudeDegrees>
              <LongitudeDegrees>-4.0501357801258563995361328125</LongitudeDegrees>
            </Position>
            <AltitudeMeters>31.799999237060546875</AltitudeMeters>
            <DistanceMeters>NAN</DistanceMeters>
          </Trackpoint>
          <Trackpoint>
            <Time>2022-07-14T11:59:31.000Z</Time>
            <Position>
              <LatitudeDegrees>43.35036425851285457611083984375</LatitudeDegrees>
              <LongitudeDegrees>-4.0503396280109882354736328125</LongitudeDegrees>
            </Position>
            <AltitudeMeters>31.6000003814697265625</AltitudeMeters>
            <DistanceMeters>NAN</DistanceMeters>
          </Trackpoint>
          <Trackpoint>
            <Time>2022-07-14T11:59:37.000Z</Time>
            <Position>
              <LatitudeDegrees>43.3504738099873065948486328125</LatitudeDegrees>
              <LongitudeDegrees>-4.05051103793084621429443359375</LongitudeDegrees>
            </Position>
            <AltitudeMeters>31.3999996185302734375</AltitudeMeters>
            <DistanceMeters>NAN</DistanceMeters>
          </Trackpoint>
          <Trackpoint>
            <Time>2022-07-14T11:59:41.000Z</Time>
            <Position>
              <LatitudeDegrees>43.35055888630449771881103515625</LatitudeDegrees>
              <LongitudeDegrees>-4.05060810036957263946533203125</LongitudeDegrees>
            </Position>
            <AltitudeMeters>31.3999996185302734375</AltitudeMeters>
            <DistanceMeters>NAN</DistanceMeters>
          </Trackpoint>
          <Trackpoint>
            <Time>2022-07-14T11:59:43.000Z</Time>
            <Position>
              <LatitudeDegrees>43.35059023462235927581787109375</LatitudeDegrees>
              <LongitudeDegrees>-4.05067079700529575347900390625</LongitudeDegrees>
            </Position>
            <AltitudeMeters>31.3999996185302734375</AltitudeMeters>
            <DistanceMeters>NAN</DistanceMeters>
          </Trackpoint>
          <Trackpoint>
            <Time>2022-07-14T11:59:49.000Z</Time>
            <Position>
              <LatitudeDegrees>43.35070456378161907196044921875</LatitudeDegrees>
              <LongitudeDegrees>-4.05084346421062946319580078125</LongitudeDegrees>
            </Position>
            <AltitudeMeters>31.6000003814697265625</AltitudeMeters>
            <DistanceMeters>NAN</DistanceMeters>
          </Trackpoint>
          <Trackpoint>
            <Time>2022-07-14T11:59:53.000Z</Time>
            <Position>
              <LatitudeDegrees>43.35083766840398311614990234375</LatitudeDegrees>
              <LongitudeDegrees>-4.05080976895987987518310546875</LongitudeDegrees>
            </Position>
            <AltitudeMeters>31.200000762939453125</AltitudeMeters>
            <DistanceMeters>NAN</DistanceMeters>
          </Trackpoint>
          <Trackpoint>
            <Time>2022-07-14T11:59:56.000Z</Time>
            <Position>
              <LatitudeDegrees>43.35086750797927379608154296875</LatitudeDegrees>
              <LongitudeDegrees>-4.05077322386205196380615234375</LongitudeDegrees>
            </Position>
            <AltitudeMeters>31.200000762939453125</AltitudeMeters>
            <DistanceMeters>NAN</DistanceMeters>
          </Trackpoint>
          <Trackpoint>
            <Time>2022-07-14T11:59:57.000Z</Time>
            <Position>
              <LatitudeDegrees>43.35088200867176055908203125</LatitudeDegrees>
              <LongitudeDegrees>-4.0507513470947742462158203125</LongitudeDegrees>
            </Position>
            <AltitudeMeters>31.200000762939453125</AltitudeMeters>
            <DistanceMeters>NAN</DistanceMeters>
          </Trackpoint>
          <Trackpoint>
            <Time>2022-07-14T12:00:03.000Z</Time>
            <Position>
              <LatitudeDegrees>43.35100145079195499420166015625</LatitudeDegrees>
              <LongitudeDegrees>-4.05058647505939006805419921875</LongitudeDegrees>
            </Position>
            <AltitudeMeters>30.799999237060546875</AltitudeMeters>
            <DistanceMeters>NAN</DistanceMeters>
          </Trackpoint>
          <Trackpoint>
            <Time>2022-07-14T12:00:04.000Z</Time>
            <Position>
              <LatitudeDegrees>43.3510250039398670196533203125</LatitudeDegrees>
              <LongitudeDegrees>-4.05055596493184566497802734375</LongitudeDegrees>
            </Position>
            <AltitudeMeters>30.6000003814697265625</AltitudeMeters>
            <DistanceMeters>NAN</DistanceMeters>
          </Trackpoint>
          <Trackpoint>
            <Time>2022-07-14T12:00:06.000Z</Time>
            <Position>
              <LatitudeDegrees>43.35106297396123409271240234375</LatitudeDegrees>
              <LongitudeDegrees>-4.05050667934119701385498046875</LongitudeDegrees>
            </Position>
            <AltitudeMeters>30.3999996185302734375</AltitudeMeters>
            <DistanceMeters>NAN</DistanceMeters>
          </Trackpoint>
          <Trackpoint>
            <Time>2022-07-14T12:00:07.000Z</Time>
            <Position>
              <LatitudeDegrees>43.35107521153986454010009765625</LatitudeDegrees>
              <LongitudeDegrees>-4.05048656277358531951904296875</LongitudeDegrees>
            </Position>
            <AltitudeMeters>30.3999996185302734375</AltitudeMeters>
            <DistanceMeters>NAN</DistanceMeters>
          </Trackpoint>
          <Trackpoint>
            <Time>2022-07-14T12:00:08.000Z</Time>
            <Position>
              <LatitudeDegrees>43.3510893769562244415283203125</LatitudeDegrees>
              <LongitudeDegrees>-4.0504693798720836639404296875</LongitudeDegrees>
            </Position>
            <AltitudeMeters>30.200000762939453125</AltitudeMeters>
            <DistanceMeters>NAN</DistanceMeters>
          </Trackpoint>
          <Trackpoint>
            <Time>2022-07-14T12:00:10.000Z</Time>
            <Position>
              <LatitudeDegrees>43.35112701170146465301513671875</LatitudeDegrees>
              <LongitudeDegrees>-4.05040710233151912689208984375</LongitudeDegrees>
            </Position>
            <AltitudeMeters>30.200000762939453125</AltitudeMeters>
            <DistanceMeters>NAN</DistanceMeters>
          </Trackpoint>
          <Trackpoint>
            <Time>2022-07-14T12:00:12.000Z</Time>
            <Position>
              <LatitudeDegrees>43.35115768946707248687744140625</LatitudeDegrees>
              <LongitudeDegrees>-4.05029118061065673828125</LongitudeDegrees>
            </Position>
            <AltitudeMeters>30.3999996185302734375</AltitudeMeters>
            <DistanceMeters>NAN</DistanceMeters>
          </Trackpoint>
          <Trackpoint>
            <Time>2022-07-14T12:00:14.000Z</Time>
            <Position>
              <LatitudeDegrees>43.35119255818426609039306640625</LatitudeDegrees>
              <LongitudeDegrees>-4.05024633742868900299072265625</LongitudeDegrees>
            </Position>
            <AltitudeMeters>30.3999996185302734375</AltitudeMeters>
            <DistanceMeters>NAN</DistanceMeters>
          </Trackpoint>
          <Trackpoint>
            <Time>2022-07-14T12:00:18.000Z</Time>
            <Position>
              <LatitudeDegrees>43.35122692398726940155029296875</LatitudeDegrees>
              <LongitudeDegrees>-4.0502308309078216552734375</LongitudeDegrees>
            </Position>
            <AltitudeMeters>30.200000762939453125</AltitudeMeters>
            <DistanceMeters>NAN</DistanceMeters>
          </Trackpoint>
          <Trackpoint>
            <Time>2022-07-14T12:00:19.000Z</Time>
            <Position>
              <LatitudeDegrees>43.35122960619628429412841796875</LatitudeDegrees>
              <LongitudeDegrees>-4.05023326165974140167236328125</LongitudeDegrees>
            </Position>
            <AltitudeMeters>30.200000762939453125</AltitudeMeters>
            <DistanceMeters>NAN</DistanceMeters>
          </Trackpoint>
          <Trackpoint>
            <Time>2022-07-14T12:00:21.000Z</Time>
            <Position>
              <LatitudeDegrees>43.35123228840529918670654296875</LatitudeDegrees>
              <LongitudeDegrees>-4.05022747814655303955078125</LongitudeDegrees>
            </Position>
            <AltitudeMeters>30.200000762939453125</AltitudeMeters>
            <DistanceMeters>NAN</DistanceMeters>
          </Trackpoint>
          <Trackpoint>
            <Time>2022-07-14T12:00:32.000Z</Time>
            <Position>
              <LatitudeDegrees>43.3512818254530429840087890625</LatitudeDegrees>
              <LongitudeDegrees>-4.05016117729246616363525390625</LongitudeDegrees>
            </Position>
            <AltitudeMeters>30</AltitudeMeters>
            <DistanceMeters>NAN</DistanceMeters>
          </Trackpoint>
          <Trackpoint>
            <Time>2022-07-14T12:00:34.000Z</Time>
            <Position>
              <LatitudeDegrees>43.351299427449703216552734375</LatitudeDegrees>
              <LongitudeDegrees>-4.05016352422535419464111328125</LongitudeDegrees>
            </Position>
            <AltitudeMeters>30</AltitudeMeters>
            <DistanceMeters>NAN</DistanceMeters>
          </Trackpoint>
          <Trackpoint>
            <Time>2022-07-14T12:00:37.000Z</Time>
            <Position>
              <LatitudeDegrees>43.35129515267908573150634765625</LatitudeDegrees>
              <LongitudeDegrees>-4.0501827187836170196533203125</LongitudeDegrees>
            </Position>
            <AltitudeMeters>30</AltitudeMeters>
            <DistanceMeters>NAN</DistanceMeters>
          </Trackpoint>
          <Trackpoint>
            <Time>2022-07-14T12:01:19.000Z</Time>
            <Position>
              <LatitudeDegrees>43.35139841772615909576416015625</LatitudeDegrees>
              <LongitudeDegrees>-4.0502051822841167449951171875</LongitudeDegrees>
            </Position>
            <AltitudeMeters>30.799999237060546875</AltitudeMeters>
            <DistanceMeters>NAN</DistanceMeters>
          </Trackpoint>
          <Trackpoint>
            <Time>2022-07-14T12:01:20.000Z</Time>
            <Position>
              <LatitudeDegrees>43.35140093229711055755615234375</LatitudeDegrees>
              <LongitudeDegrees>-4.05020861886441707611083984375</LongitudeDegrees>
            </Position>
            <AltitudeMeters>30.799999237060546875</AltitudeMeters>
            <DistanceMeters>NAN</DistanceMeters>
          </Trackpoint>
          <Trackpoint>
            <Time>2022-07-14T12:01:23.000Z</Time>
            <Position>
              <LatitudeDegrees>43.351374529302120208740234375</LatitudeDegrees>
              <LongitudeDegrees>-4.050198309123516082763671875</LongitudeDegrees>
            </Position>
            <AltitudeMeters>31.200000762939453125</AltitudeMeters>
            <DistanceMeters>NAN</DistanceMeters>
          </Trackpoint>
          <Trackpoint>
            <Time>2022-07-14T12:01:25.000Z</Time>
            <Position>
              <LatitudeDegrees>43.35138567723333835601806640625</LatitudeDegrees>
              <LongitudeDegrees>-4.0501994825899600982666015625</LongitudeDegrees>
            </Position>
            <AltitudeMeters>31.3999996185302734375</AltitudeMeters>
            <DistanceMeters>NAN</DistanceMeters>
          </Trackpoint>
          <Trackpoint>
            <Time>2022-07-14T12:01:26.000Z</Time>
            <Position>
              <LatitudeDegrees>43.35140126757323741912841796875</LatitudeDegrees>
              <LongitudeDegrees>-4.050207026302814483642578125</LongitudeDegrees>
            </Position>
            <AltitudeMeters>31.6000003814697265625</AltitudeMeters>
            <DistanceMeters>NAN</DistanceMeters>
          </Trackpoint>
          <Trackpoint>
            <Time>2022-07-14T12:01:29.000Z</Time>
            <Position>
              <LatitudeDegrees>43.35146564058959484100341796875</LatitudeDegrees>
              <LongitudeDegrees>-4.05024223029613494873046875</LongitudeDegrees>
            </Position>
            <AltitudeMeters>31.200000762939453125</AltitudeMeters>
            <DistanceMeters>NAN</DistanceMeters>
          </Trackpoint>
          <Trackpoint>
            <Time>2022-07-14T12:01:34.000Z</Time>
            <Position>
              <LatitudeDegrees>43.35162305273115634918212890625</LatitudeDegrees>
              <LongitudeDegrees>-4.0501931123435497283935546875</LongitudeDegrees>
            </Position>
            <AltitudeMeters>31.200000762939453125</AltitudeMeters>
            <DistanceMeters>NAN</DistanceMeters>
          </Trackpoint>
          <Trackpoint>
            <Time>2022-07-14T12:01:40.000Z</Time>
            <Position>
              <LatitudeDegrees>43.3518430776894092559814453125</LatitudeDegrees>
              <LongitudeDegrees>-4.0500630252063274383544921875</LongitudeDegrees>
            </Position>
            <AltitudeMeters>31.6000003814697265625</AltitudeMeters>
            <DistanceMeters>NAN</DistanceMeters>
          </Trackpoint>
          <Trackpoint>
            <Time>2022-07-14T12:01:44.000Z</Time>
            <Position>
              <LatitudeDegrees>43.35197693668305873870849609375</LatitudeDegrees>
              <LongitudeDegrees>-4.04995967634022235870361328125</LongitudeDegrees>
            </Position>
            <AltitudeMeters>31.799999237060546875</AltitudeMeters>
            <DistanceMeters>NAN</DistanceMeters>
          </Trackpoint>
          <Trackpoint>
            <Time>2022-07-14T12:01:48.000Z</Time>
            <Position>
              <LatitudeDegrees>43.35210031829774379730224609375</LatitudeDegrees>
              <LongitudeDegrees>-4.04985909350216388702392578125</LongitudeDegrees>
            </Position>
            <AltitudeMeters>31.799999237060546875</AltitudeMeters>
            <DistanceMeters>NAN</DistanceMeters>
          </Trackpoint>
          <Trackpoint>
            <Time>2022-07-14T12:01:54.000Z</Time>
            <Position>
              <LatitudeDegrees>43.35221347399055957794189453125</LatitudeDegrees>
              <LongitudeDegrees>-4.04975348152220249176025390625</LongitudeDegrees>
            </Position>
            <AltitudeMeters>31.3999996185302734375</AltitudeMeters>
            <DistanceMeters>NAN</DistanceMeters>
          </Trackpoint>
          <Trackpoint>
            <Time>2022-07-14T12:01:57.000Z</Time>
            <Position>
              <LatitudeDegrees>43.3522511087357997894287109375</LatitudeDegrees>
              <LongitudeDegrees>-4.0497632883489131927490234375</LongitudeDegrees>
            </Position>
            <AltitudeMeters>31</AltitudeMeters>
            <DistanceMeters>NAN</DistanceMeters>
          </Trackpoint>
          <Trackpoint>
            <Time>2022-07-14T12:01:59.000Z</Time>
            <Position>
              <LatitudeDegrees>43.35227985866367816925048828125</LatitudeDegrees>
              <LongitudeDegrees>-4.049805365502834320068359375</LongitudeDegrees>
            </Position>
            <AltitudeMeters>31</AltitudeMeters>
            <DistanceMeters>NAN</DistanceMeters>
          </Trackpoint>
          <Trackpoint>
            <Time>2022-07-14T12:02:01.000Z</Time>
            <Position>
              <LatitudeDegrees>43.35232076235115528106689453125</LatitudeDegrees>
              <LongitudeDegrees>-4.04987267218530178070068359375</LongitudeDegrees>
            </Position>
            <AltitudeMeters>31</AltitudeMeters>
            <DistanceMeters>NAN</DistanceMeters>
          </Trackpoint>
          <Trackpoint>
            <Time>2022-07-14T12:02:04.000Z</Time>
            <Position>
              <LatitudeDegrees>43.352377004921436309814453125</LatitudeDegrees>
              <LongitudeDegrees>-4.050011895596981048583984375</LongitudeDegrees>
            </Position>
            <AltitudeMeters>31</AltitudeMeters>
            <DistanceMeters>NAN</DistanceMeters>
          </Trackpoint>
          <Trackpoint>
            <Time>2022-07-14T12:02:10.000Z</Time>
            <Position>
              <LatitudeDegrees>43.352509103715419769287109375</LatitudeDegrees>
              <LongitudeDegrees>-4.0502871572971343994140625</LongitudeDegrees>
            </Position>
            <AltitudeMeters>30.799999237060546875</AltitudeMeters>
            <DistanceMeters>NAN</DistanceMeters>
          </Trackpoint>
          <Trackpoint>
            <Time>2022-07-14T12:02:13.000Z</Time>
            <Position>
              <LatitudeDegrees>43.35257842205464839935302734375</LatitudeDegrees>
              <LongitudeDegrees>-4.05042973347008228302001953125</LongitudeDegrees>
            </Position>
            <AltitudeMeters>30.3999996185302734375</AltitudeMeters>
            <DistanceMeters>NAN</DistanceMeters>
          </Trackpoint>
          <Trackpoint>
            <Time>2022-07-14T12:02:20.000Z</Time>
            <Position>
              <LatitudeDegrees>43.35272393189370632171630859375</LatitudeDegrees>
              <LongitudeDegrees>-4.0507587231695652008056640625</LongitudeDegrees>
            </Position>
            <AltitudeMeters>30.200000762939453125</AltitudeMeters>
            <DistanceMeters>NAN</DistanceMeters>
          </Trackpoint>
          <Trackpoint>
            <Time>2022-07-14T12:02:23.000Z</Time>
            <Position>
              <LatitudeDegrees>43.3527919091284275054931640625</LatitudeDegrees>
              <LongitudeDegrees>-4.050887636840343475341796875</LongitudeDegrees>
            </Position>
            <AltitudeMeters>30.3999996185302734375</AltitudeMeters>
            <DistanceMeters>NAN</DistanceMeters>
          </Trackpoint>
          <Trackpoint>
            <Time>2022-07-14T12:02:32.000Z</Time>
            <Position>
              <LatitudeDegrees>43.35292928852140903472900390625</LatitudeDegrees>
              <LongitudeDegrees>-4.05127429403364658355712890625</LongitudeDegrees>
            </Position>
            <AltitudeMeters>30</AltitudeMeters>
            <DistanceMeters>NAN</DistanceMeters>
          </Trackpoint>
          <Trackpoint>
            <Time>2022-07-14T12:02:33.000Z</Time>
            <Position>
              <LatitudeDegrees>43.3529397659003734588623046875</LatitudeDegrees>
              <LongitudeDegrees>-4.05131452716886997222900390625</LongitudeDegrees>
            </Position>
            <AltitudeMeters>30</AltitudeMeters>
            <DistanceMeters>NAN</DistanceMeters>
          </Trackpoint>
          <Trackpoint>
            <Time>2022-07-14T12:02:35.000Z</Time>
            <Position>
              <LatitudeDegrees>43.3529613912105560302734375</LatitudeDegrees>
              <LongitudeDegrees>-4.051399268209934234619140625</LongitudeDegrees>
            </Position>
            <AltitudeMeters>29.799999237060546875</AltitudeMeters>
            <DistanceMeters>NAN</DistanceMeters>
          </Trackpoint>
          <Trackpoint>
            <Time>2022-07-14T12:02:36.000Z</Time>
            <Position>
              <LatitudeDegrees>43.35297153331339359283447265625</LatitudeDegrees>
              <LongitudeDegrees>-4.051441513001918792724609375</LongitudeDegrees>
            </Position>
            <AltitudeMeters>29.799999237060546875</AltitudeMeters>
            <DistanceMeters>NAN</DistanceMeters>
          </Trackpoint>
          <Trackpoint>
            <Time>2022-07-14T12:02:44.000Z</Time>
            <Position>
              <LatitudeDegrees>43.35307781584560871124267578125</LatitudeDegrees>
              <LongitudeDegrees>-4.0517360530793666839599609375</LongitudeDegrees>
            </Position>
            <AltitudeMeters>29.3999996185302734375</AltitudeMeters>
            <DistanceMeters>NAN</DistanceMeters>
          </Trackpoint>
          <Trackpoint>
            <Time>2022-07-14T12:02:50.000Z</Time>
            <Position>
              <LatitudeDegrees>43.35315040312707424163818359375</LatitudeDegrees>
              <LongitudeDegrees>-4.05192757956683635711669921875</LongitudeDegrees>
            </Position>
            <AltitudeMeters>28.799999237060546875</AltitudeMeters>
            <DistanceMeters>NAN</DistanceMeters>
          </Trackpoint>
          <Trackpoint>
            <Time>2022-07-14T12:02:52.000Z</Time>
            <Position>
              <LatitudeDegrees>43.3531734533607959747314453125</LatitudeDegrees>
              <LongitudeDegrees>-4.05197703279554843902587890625</LongitudeDegrees>
            </Position>
            <AltitudeMeters>28.799999237060546875</AltitudeMeters>
            <DistanceMeters>NAN</DistanceMeters>
          </Trackpoint>
          <Trackpoint>
            <Time>2022-07-14T12:02:54.000Z</Time>
            <Position>
              <LatitudeDegrees>43.35320337675511837005615234375</LatitudeDegrees>
              <LongitudeDegrees>-4.05200804583728313446044921875</LongitudeDegrees>
            </Position>
            <AltitudeMeters>28.799999237060546875</AltitudeMeters>
            <DistanceMeters>NAN</DistanceMeters>
          </Trackpoint>
          <Trackpoint>
            <Time>2022-07-14T12:02:55.000Z</Time>
            <Position>
              <LatitudeDegrees>43.3532163687050342559814453125</LatitudeDegrees>
              <LongitudeDegrees>-4.05201894231140613555908203125</LongitudeDegrees>
            </Position>
            <AltitudeMeters>28.799999237060546875</AltitudeMeters>
            <DistanceMeters>NAN</DistanceMeters>
          </Trackpoint>
          <Trackpoint>
            <Time>2022-07-14T12:02:58.000Z</Time>
            <Position>
              <LatitudeDegrees>43.35322751663625240325927734375</LatitudeDegrees>
              <LongitudeDegrees>-4.05202480964362621307373046875</LongitudeDegrees>
            </Position>
            <AltitudeMeters>28.799999237060546875</AltitudeMeters>
            <DistanceMeters>NAN</DistanceMeters>
          </Trackpoint>
          <Trackpoint>
            <Time>2022-07-14T12:03:00.000Z</Time>
            <Position>
              <LatitudeDegrees>43.3532314561307430267333984375</LatitudeDegrees>
              <LongitudeDegrees>-4.05201894231140613555908203125</LongitudeDegrees>
            </Position>
            <AltitudeMeters>28.799999237060546875</AltitudeMeters>
            <DistanceMeters>NAN</DistanceMeters>
          </Trackpoint>
          <Trackpoint>
            <Time>2022-07-14T12:03:30.000Z</Time>
            <Position>
              <LatitudeDegrees>43.35334301926195621490478515625</LatitudeDegrees>
              <LongitudeDegrees>-4.05208884738385677337646484375</LongitudeDegrees>
            </Position>
            <AltitudeMeters>28.200000762939453125</AltitudeMeters>
            <DistanceMeters>NAN</DistanceMeters>
          </Trackpoint>
          <Trackpoint>
            <Time>2022-07-14T12:03:32.000Z</Time>
            <Position>
              <LatitudeDegrees>43.353362381458282470703125</LatitudeDegrees>
              <LongitudeDegrees>-4.05215741135179996490478515625</LongitudeDegrees>
            </Position>
            <AltitudeMeters>28.200000762939453125</AltitudeMeters>
            <DistanceMeters>NAN</DistanceMeters>
          </Trackpoint>
          <Trackpoint>
            <Time>2022-07-14T12:03:34.000Z</Time>
            <Position>
              <LatitudeDegrees>43.353374116122722625732421875</LatitudeDegrees>
              <LongitudeDegrees>-4.05222983099520206451416015625</LongitudeDegrees>
            </Position>
            <AltitudeMeters>28.200000762939453125</AltitudeMeters>
            <DistanceMeters>NAN</DistanceMeters>
          </Trackpoint>
          <Trackpoint>
            <Time>2022-07-14T12:03:37.000Z</Time>
            <Position>
              <LatitudeDegrees>43.353360034525394439697265625</LatitudeDegrees>
              <LongitudeDegrees>-4.05236360616981983184814453125</LongitudeDegrees>
            </Position>
            <AltitudeMeters>28</AltitudeMeters>
            <DistanceMeters>NAN</DistanceMeters>
          </Trackpoint>
          <Trackpoint>
            <Time>2022-07-14T12:03:44.000Z</Time>
            <Position>
              <LatitudeDegrees>43.35334871895611286163330078125</LatitudeDegrees>
              <LongitudeDegrees>-4.05261020176112651824951171875</LongitudeDegrees>
            </Position>
            <AltitudeMeters>27.799999237060546875</AltitudeMeters>
            <DistanceMeters>NAN</DistanceMeters>
          </Trackpoint>
          <Trackpoint>
            <Time>2022-07-14T12:03:46.000Z</Time>
            <Position>
              <LatitudeDegrees>43.3533618785440921783447265625</LatitudeDegrees>
              <LongitudeDegrees>-4.05265646986663341522216796875</LongitudeDegrees>
            </Position>
            <AltitudeMeters>27.799999237060546875</AltitudeMeters>
            <DistanceMeters>NAN</DistanceMeters>
          </Trackpoint>
          <Trackpoint>
            <Time>2022-07-14T12:03:50.000Z</Time>
            <Position>
              <LatitudeDegrees>43.3533833362162113189697265625</LatitudeDegrees>
              <LongitudeDegrees>-4.05273995362222194671630859375</LongitudeDegrees>
            </Position>
            <AltitudeMeters>27.6000003814697265625</AltitudeMeters>
            <DistanceMeters>NAN</DistanceMeters>
          </Trackpoint>
          <Trackpoint>
            <Time>2022-07-14T12:03:51.000Z</Time>
            <Position>
              <LatitudeDegrees>43.35338140837848186492919921875</LatitudeDegrees>
              <LongitudeDegrees>-4.05275654979050159454345703125</LongitudeDegrees>
            </Position>
            <AltitudeMeters>27.6000003814697265625</AltitudeMeters>
            <DistanceMeters>NAN</DistanceMeters>
          </Trackpoint>
          <Trackpoint>
            <Time>2022-07-14T12:03:54.000Z</Time>
            <Position>
              <LatitudeDegrees>43.3533664047718048095703125</LatitudeDegrees>
              <LongitudeDegrees>-4.052732326090335845947265625</LongitudeDegrees>
            </Position>
            <AltitudeMeters>27.3999996185302734375</AltitudeMeters>
            <DistanceMeters>NAN</DistanceMeters>
          </Trackpoint>
          <Trackpoint>
            <Time>2022-07-14T12:03:56.000Z</Time>
            <Position>
              <LatitudeDegrees>43.35333966650068759918212890625</LatitudeDegrees>
              <LongitudeDegrees>-4.0526275523006916046142578125</LongitudeDegrees>
            </Position>
            <AltitudeMeters>27.799999237060546875</AltitudeMeters>
            <DistanceMeters>NAN</DistanceMeters>
          </Trackpoint>
          <Trackpoint>
            <Time>2022-07-14T12:03:57.000Z</Time>
            <Position>
              <LatitudeDegrees>43.35333044640719890594482421875</LatitudeDegrees>
              <LongitudeDegrees>-4.052571393549442291259765625</LongitudeDegrees>
            </Position>
            <AltitudeMeters>28.200000762939453125</AltitudeMeters>
            <DistanceMeters>NAN</DistanceMeters>
          </Trackpoint>
          <Trackpoint>
            <Time>2022-07-14T12:04:02.000Z</Time>
            <Position>
              <LatitudeDegrees>43.35326808504760265350341796875</LatitudeDegrees>
              <LongitudeDegrees>-4.0523526258766651153564453125</LongitudeDegrees>
            </Position>
            <AltitudeMeters>27.799999237060546875</AltitudeMeters>
            <DistanceMeters>NAN</DistanceMeters>
          </Trackpoint>
          <Trackpoint>
            <Time>2022-07-14T12:04:05.000Z</Time>
            <Position>
              <LatitudeDegrees>43.35323430597782135009765625</LatitudeDegrees>
              <LongitudeDegrees>-4.0522433258593082427978515625</LongitudeDegrees>
            </Position>
            <AltitudeMeters>27.6000003814697265625</AltitudeMeters>
            <DistanceMeters>NAN</DistanceMeters>
          </Trackpoint>
          <Trackpoint>
            <Time>2022-07-14T12:04:06.000Z</Time>
            <Position>
              <LatitudeDegrees>43.35324637591838836669921875</LatitudeDegrees>
              <LongitudeDegrees>-4.05219177715480327606201171875</LongitudeDegrees>
            </Position>
            <AltitudeMeters>27.6000003814697265625</AltitudeMeters>
            <DistanceMeters>NAN</DistanceMeters>
          </Trackpoint>
          <Trackpoint>
            <Time>2022-07-14T12:04:08.000Z</Time>
            <Position>
              <LatitudeDegrees>43.353280909359455108642578125</LatitudeDegrees>
              <LongitudeDegrees>-4.0520988218486309051513671875</LongitudeDegrees>
            </Position>
            <AltitudeMeters>27.6000003814697265625</AltitudeMeters>
            <DistanceMeters>NAN</DistanceMeters>
          </Trackpoint>
          <Trackpoint>
            <Time>2022-07-14T12:04:10.000Z</Time>
            <Position>
              <LatitudeDegrees>43.35334000177681446075439453125</LatitudeDegrees>
              <LongitudeDegrees>-4.05203989706933498382568359375</LongitudeDegrees>
            </Position>
            <AltitudeMeters>27.6000003814697265625</AltitudeMeters>
            <DistanceMeters>NAN</DistanceMeters>
          </Trackpoint>
          <Trackpoint>
            <Time>2022-07-14T12:04:14.000Z</Time>
            <Position>
              <LatitudeDegrees>43.3535281755030155181884765625</LatitudeDegrees>
              <LongitudeDegrees>-4.05197300948202610015869140625</LongitudeDegrees>
            </Position>
            <AltitudeMeters>27.799999237060546875</AltitudeMeters>
            <DistanceMeters>NAN</DistanceMeters>
          </Trackpoint>
          <Trackpoint>
            <Time>2022-07-14T12:04:15.000Z</Time>
            <Position>
              <LatitudeDegrees>43.35356396622955799102783203125</LatitudeDegrees>
              <LongitudeDegrees>-4.0519635379314422607421875</LongitudeDegrees>
            </Position>
            <AltitudeMeters>28</AltitudeMeters>
            <DistanceMeters>NAN</DistanceMeters>
          </Trackpoint>
          <Trackpoint>
            <Time>2022-07-14T12:04:22.000Z</Time>
            <Position>
              <LatitudeDegrees>43.353820033371448516845703125</LatitudeDegrees>
              <LongitudeDegrees>-4.0517999231815338134765625</LongitudeDegrees>
            </Position>
            <AltitudeMeters>28</AltitudeMeters>
            <DistanceMeters>NAN</DistanceMeters>
          </Trackpoint>
          <Trackpoint>
            <Time>2022-07-14T12:04:23.000Z</Time>
            <Position>
              <LatitudeDegrees>43.35385129787027835845947265625</LatitudeDegrees>
              <LongitudeDegrees>-4.0517799742519855499267578125</LongitudeDegrees>
            </Position>
            <AltitudeMeters>28</AltitudeMeters>
            <DistanceMeters>NAN</DistanceMeters>
          </Trackpoint>
          <Trackpoint>
            <Time>2022-07-14T12:04:26.000Z</Time>
            <Position>
              <LatitudeDegrees>43.35395439527928829193115234375</LatitudeDegrees>
              <LongitudeDegrees>-4.0517229773104190826416015625</LongitudeDegrees>
            </Position>
            <AltitudeMeters>28</AltitudeMeters>
            <DistanceMeters>NAN</DistanceMeters>
          </Trackpoint>
          <Trackpoint>
            <Time>2022-07-14T12:04:28.000Z</Time>
            <Position>
              <LatitudeDegrees>43.35401172749698162078857421875</LatitudeDegrees>
              <LongitudeDegrees>-4.05167981050908565521240234375</LongitudeDegrees>
            </Position>
            <AltitudeMeters>28</AltitudeMeters>
            <DistanceMeters>NAN</DistanceMeters>
          </Trackpoint>
          <Trackpoint>
            <Time>2022-07-14T12:04:29.000Z</Time>
            <Position>
              <LatitudeDegrees>43.35403419099748134613037109375</LatitudeDegrees>
              <LongitudeDegrees>-4.051664136350154876708984375</LongitudeDegrees>
            </Position>
            <AltitudeMeters>28</AltitudeMeters>
            <DistanceMeters>NAN</DistanceMeters>
          </Trackpoint>
          <Trackpoint>
            <Time>2022-07-14T12:04:30.000Z</Time>
            <Position>
              <LatitudeDegrees>43.3540570735931396484375</LatitudeDegrees>
              <LongitudeDegrees>-4.0516482107341289520263671875</LongitudeDegrees>
            </Position>
            <AltitudeMeters>28</AltitudeMeters>
            <DistanceMeters>NAN</DistanceMeters>
          </Trackpoint>
          <Trackpoint>
            <Time>2022-07-14T12:04:31.000Z</Time>
            <Position>
              <LatitudeDegrees>43.35408397950232028961181640625</LatitudeDegrees>
              <LongitudeDegrees>-4.05163161456584930419921875</LongitudeDegrees>
            </Position>
            <AltitudeMeters>28.200000762939453125</AltitudeMeters>
            <DistanceMeters>NAN</DistanceMeters>
          </Trackpoint>
          <Trackpoint>
            <Time>2022-07-14T12:04:32.000Z</Time>
            <Position>
              <LatitudeDegrees>43.354111723601818084716796875</LatitudeDegrees>
              <LongitudeDegrees>-4.05161376111209392547607421875</LongitudeDegrees>
            </Position>
            <AltitudeMeters>28.200000762939453125</AltitudeMeters>
            <DistanceMeters>NAN</DistanceMeters>
          </Trackpoint>
          <Trackpoint>
            <Time>2022-07-14T12:04:33.000Z</Time>
            <Position>
              <LatitudeDegrees>43.3541387133300304412841796875</LatitudeDegrees>
              <LongitudeDegrees>-4.05159582383930683135986328125</LongitudeDegrees>
            </Position>
            <AltitudeMeters>28.200000762939453125</AltitudeMeters>
            <DistanceMeters>NAN</DistanceMeters>
          </Trackpoint>
          <Trackpoint>
            <Time>2022-07-14T12:04:35.000Z</Time>
            <Position>
              <LatitudeDegrees>43.3541900105774402618408203125</LatitudeDegrees>
              <LongitudeDegrees>-4.0515660680830478668212890625</LongitudeDegrees>
            </Position>
            <AltitudeMeters>28.3999996185302734375</AltitudeMeters>
            <DistanceMeters>NAN</DistanceMeters>
          </Trackpoint>
          <Trackpoint>
            <Time>2022-07-14T12:04:38.000Z</Time>
            <Position>
              <LatitudeDegrees>43.35426293313503265380859375</LatitudeDegrees>
              <LongitudeDegrees>-4.05153094790875911712646484375</LongitudeDegrees>
            </Position>
            <AltitudeMeters>28.3999996185302734375</AltitudeMeters>
            <DistanceMeters>NAN</DistanceMeters>
          </Trackpoint>
          <Trackpoint>
            <Time>2022-07-14T12:04:46.000Z</Time>
            <Position>
              <LatitudeDegrees>43.354474492371082305908203125</LatitudeDegrees>
              <LongitudeDegrees>-4.05139968730509281158447265625</LongitudeDegrees>
            </Position>
            <AltitudeMeters>29</AltitudeMeters>
            <DistanceMeters>NAN</DistanceMeters>
          </Trackpoint>
          <Trackpoint>
            <Time>2022-07-14T12:04:47.000Z</Time>
            <Position>
              <LatitudeDegrees>43.3545024879276752471923828125</LatitudeDegrees>
              <LongitudeDegrees>-4.05137755908071994781494140625</LongitudeDegrees>
            </Position>
            <AltitudeMeters>29.200000762939453125</AltitudeMeters>
            <DistanceMeters>NAN</DistanceMeters>
          </Trackpoint>
          <Trackpoint>
            <Time>2022-07-14T12:04:52.000Z</Time>
            <Position>
              <LatitudeDegrees>43.354620002210140228271484375</LatitudeDegrees>
              <LongitudeDegrees>-4.05130530707538127899169921875</LongitudeDegrees>
            </Position>
            <AltitudeMeters>29.799999237060546875</AltitudeMeters>
            <DistanceMeters>NAN</DistanceMeters>
          </Trackpoint>
          <Trackpoint>
            <Time>2022-07-14T12:04:54.000Z</Time>
            <Position>
              <LatitudeDegrees>43.354660570621490478515625</LatitudeDegrees>
              <LongitudeDegrees>-4.05126859433948993682861328125</LongitudeDegrees>
            </Position>
            <AltitudeMeters>30</AltitudeMeters>
            <DistanceMeters>NAN</DistanceMeters>
          </Trackpoint>
          <Trackpoint>
            <Time>2022-07-14T12:04:59.000Z</Time>
            <Position>
              <LatitudeDegrees>43.354797698557376861572265625</LatitudeDegrees>
              <LongitudeDegrees>-4.0511865355074405670166015625</LongitudeDegrees>
            </Position>
            <AltitudeMeters>30.3999996185302734375</AltitudeMeters>
            <DistanceMeters>NAN</DistanceMeters>
          </Trackpoint>
          <Trackpoint>
            <Time>2022-07-14T12:05:02.000Z</Time>
            <Position>
              <LatitudeDegrees>43.35486936382949352264404296875</LatitudeDegrees>
              <LongitudeDegrees>-4.05114638619124889373779296875</LongitudeDegrees>
            </Position>
            <AltitudeMeters>30.799999237060546875</AltitudeMeters>
            <DistanceMeters>NAN</DistanceMeters>
          </Trackpoint>
          <Trackpoint>
            <Time>2022-07-14T12:05:03.000Z</Time>
            <Position>
              <LatitudeDegrees>43.3548920787870883941650390625</LatitudeDegrees>
              <LongitudeDegrees>-4.05112928710877895355224609375</LongitudeDegrees>
            </Position>
            <AltitudeMeters>30.799999237060546875</AltitudeMeters>
            <DistanceMeters>NAN</DistanceMeters>
          </Trackpoint>
          <Trackpoint>
            <Time>2022-07-14T12:05:08.000Z</Time>
            <Position>
              <LatitudeDegrees>43.3550067432224750518798828125</LatitudeDegrees>
              <LongitudeDegrees>-4.05104429461061954498291015625</LongitudeDegrees>
            </Position>
            <AltitudeMeters>31.3999996185302734375</AltitudeMeters>
            <DistanceMeters>NAN</DistanceMeters>
          </Trackpoint>
          <Trackpoint>
            <Time>2022-07-14T12:05:09.000Z</Time>
            <Position>
              <LatitudeDegrees>43.3550251834094524383544921875</LatitudeDegrees>
              <LongitudeDegrees>-4.05102367512881755828857421875</LongitudeDegrees>
            </Position>
            <AltitudeMeters>31.6000003814697265625</AltitudeMeters>
            <DistanceMeters>NAN</DistanceMeters>
          </Trackpoint>
          <Trackpoint>
            <Time>2022-07-14T12:05:17.000Z</Time>
            <Position>
              <LatitudeDegrees>43.35520631633698940277099609375</LatitudeDegrees>
              <LongitudeDegrees>-4.05095879919826984405517578125</LongitudeDegrees>
            </Position>
            <AltitudeMeters>31.3999996185302734375</AltitudeMeters>
            <DistanceMeters>NAN</DistanceMeters>
          </Trackpoint>
          <Trackpoint>
            <Time>2022-07-14T12:05:20.000Z</Time>
            <Position>
              <LatitudeDegrees>43.355278484523296356201171875</LatitudeDegrees>
              <LongitudeDegrees>-4.0509873814880847930908203125</LongitudeDegrees>
            </Position>
            <AltitudeMeters>31.3999996185302734375</AltitudeMeters>
            <DistanceMeters>NAN</DistanceMeters>
          </Trackpoint>
          <Trackpoint>
            <Time>2022-07-14T12:05:21.000Z</Time>
            <Position>
              <LatitudeDegrees>43.3552960865199565887451171875</LatitudeDegrees>
              <LongitudeDegrees>-4.05098713003098964691162109375</LongitudeDegrees>
            </Position>
            <AltitudeMeters>31.6000003814697265625</AltitudeMeters>
            <DistanceMeters>NAN</DistanceMeters>
          </Trackpoint>
          <Trackpoint>
            <Time>2022-07-14T12:05:22.000Z</Time>
            <Position>
              <LatitudeDegrees>43.35532969795167446136474609375</LatitudeDegrees>
              <LongitudeDegrees>-4.05097925104200839996337890625</LongitudeDegrees>
            </Position>
            <AltitudeMeters>31.6000003814697265625</AltitudeMeters>
            <DistanceMeters>NAN</DistanceMeters>
          </Trackpoint>
          <Trackpoint>
            <Time>2022-07-14T12:05:26.000Z</Time>
            <Position>
              <LatitudeDegrees>43.3554841764271259307861328125</LatitudeDegrees>
              <LongitudeDegrees>-4.05102971009910106658935546875</LongitudeDegrees>
            </Position>
            <AltitudeMeters>32</AltitudeMeters>
            <DistanceMeters>NAN</DistanceMeters>
          </Trackpoint>
          <Trackpoint>
            <Time>2022-07-14T12:05:33.000Z</Time>
            <Position>
              <LatitudeDegrees>43.35574141703546047210693359375</LatitudeDegrees>
              <LongitudeDegrees>-4.05091554857790470123291015625</LongitudeDegrees>
            </Position>
            <AltitudeMeters>32</AltitudeMeters>
            <DistanceMeters>NAN</DistanceMeters>
          </Trackpoint>
          <Trackpoint>
            <Time>2022-07-14T12:05:34.000Z</Time>
            <Position>
              <LatitudeDegrees>43.3557482063770294189453125</LatitudeDegrees>
              <LongitudeDegrees>-4.0509028919041156768798828125</LongitudeDegrees>
            </Position>
            <AltitudeMeters>31.799999237060546875</AltitudeMeters>
            <DistanceMeters>NAN</DistanceMeters>
          </Trackpoint>
          <Trackpoint>
            <Time>2022-07-14T12:05:36.000Z</Time>
            <Position>
              <LatitudeDegrees>43.35574351251125335693359375</LatitudeDegrees>
              <LongitudeDegrees>-4.05087481252849102020263671875</LongitudeDegrees>
            </Position>
            <AltitudeMeters>31.3999996185302734375</AltitudeMeters>
            <DistanceMeters>NAN</DistanceMeters>
          </Trackpoint>
          <Trackpoint>
            <Time>2022-07-14T12:07:02.000Z</Time>
            <Position>
              <LatitudeDegrees>43.3557857573032379150390625</LatitudeDegrees>
              <LongitudeDegrees>-4.05095435678958892822265625</LongitudeDegrees>
            </Position>
            <AltitudeMeters>31.200000762939453125</AltitudeMeters>
            <DistanceMeters>NAN</DistanceMeters>
          </Trackpoint>
          <Trackpoint>
            <Time>2022-07-14T12:07:03.000Z</Time>
            <Position>
              <LatitudeDegrees>43.35581459105014801025390625</LatitudeDegrees>
              <LongitudeDegrees>-4.05095444060862064361572265625</LongitudeDegrees>
            </Position>
            <AltitudeMeters>31.200000762939453125</AltitudeMeters>
            <DistanceMeters>NAN</DistanceMeters>
          </Trackpoint>
          <Trackpoint>
            <Time>2022-07-14T12:07:04.000Z</Time>
            <Position>
              <LatitudeDegrees>43.355855830013751983642578125</LatitudeDegrees>
              <LongitudeDegrees>-4.05094605870544910430908203125</LongitudeDegrees>
            </Position>
            <AltitudeMeters>31.200000762939453125</AltitudeMeters>
            <DistanceMeters>NAN</DistanceMeters>
          </Trackpoint>
          <Trackpoint>
            <Time>2022-07-14T12:07:08.000Z</Time>
            <Position>
              <LatitudeDegrees>43.35601709783077239990234375</LatitudeDegrees>
              <LongitudeDegrees>-4.0509250201284885406494140625</LongitudeDegrees>
            </Position>
            <AltitudeMeters>32.59999847412109375</AltitudeMeters>
            <DistanceMeters>NAN</DistanceMeters>
          </Trackpoint>
          <Trackpoint>
            <Time>2022-07-14T12:07:09.000Z</Time>
            <Position>
              <LatitudeDegrees>43.3560561574995517730712890625</LatitudeDegrees>
              <LongitudeDegrees>-4.05093633569777011871337890625</LongitudeDegrees>
            </Position>
            <AltitudeMeters>32.799999237060546875</AltitudeMeters>
            <DistanceMeters>NAN</DistanceMeters>
          </Trackpoint>
          <Trackpoint>
            <Time>2022-07-14T12:07:13.000Z</Time>
            <Position>
              <LatitudeDegrees>43.35618448443710803985595703125</LatitudeDegrees>
              <LongitudeDegrees>-4.05106298625469207763671875</LongitudeDegrees>
            </Position>
            <AltitudeMeters>33.200000762939453125</AltitudeMeters>
            <DistanceMeters>NAN</DistanceMeters>
          </Trackpoint>
          <Trackpoint>
            <Time>2022-07-14T12:07:17.000Z</Time>
            <Position>
              <LatitudeDegrees>43.35633250884711742401123046875</LatitudeDegrees>
              <LongitudeDegrees>-4.05118997208774089813232421875</LongitudeDegrees>
            </Position>
            <AltitudeMeters>33</AltitudeMeters>
            <DistanceMeters>NAN</DistanceMeters>
          </Trackpoint>
          <Trackpoint>
            <Time>2022-07-14T12:07:18.000Z</Time>
            <Position>
              <LatitudeDegrees>43.35637341253459453582763671875</LatitudeDegrees>
              <LongitudeDegrees>-4.05121193267405033111572265625</LongitudeDegrees>
            </Position>
            <AltitudeMeters>33</AltitudeMeters>
            <DistanceMeters>NAN</DistanceMeters>
          </Trackpoint>
          <Trackpoint>
            <Time>2022-07-14T12:07:21.000Z</Time>
            <Position>
              <LatitudeDegrees>43.35649310611188411712646484375</LatitudeDegrees>
              <LongitudeDegrees>-4.05128083191812038421630859375</LongitudeDegrees>
            </Position>
            <AltitudeMeters>32.59999847412109375</AltitudeMeters>
            <DistanceMeters>NAN</DistanceMeters>
          </Trackpoint>
          <Trackpoint>
            <Time>2022-07-14T12:07:26.000Z</Time>
            <Position>
              <LatitudeDegrees>43.356691338121891021728515625</LatitudeDegrees>
              <LongitudeDegrees>-4.051383845508098602294921875</LongitudeDegrees>
            </Position>
            <AltitudeMeters>32.799999237060546875</AltitudeMeters>
            <DistanceMeters>NAN</DistanceMeters>
          </Trackpoint>
          <Trackpoint>
            <Time>2022-07-14T12:07:28.000Z</Time>
            <Position>
              <LatitudeDegrees>43.3567753247916698455810546875</LatitudeDegrees>
              <LongitudeDegrees>-4.051413349807262420654296875</LongitudeDegrees>
            </Position>
            <AltitudeMeters>32.799999237060546875</AltitudeMeters>
            <DistanceMeters>NAN</DistanceMeters>
          </Trackpoint>
          <Trackpoint>
            <Time>2022-07-14T12:07:33.000Z</Time>
            <Position>
              <LatitudeDegrees>43.356977663934230804443359375</LatitudeDegrees>
              <LongitudeDegrees>-4.05150764621794223785400390625</LongitudeDegrees>
            </Position>
            <AltitudeMeters>33.200000762939453125</AltitudeMeters>
            <DistanceMeters>NAN</DistanceMeters>
          </Trackpoint>
          <Trackpoint>
            <Time>2022-07-14T12:07:38.000Z</Time>
            <Position>
              <LatitudeDegrees>43.35715292952954769134521484375</LatitudeDegrees>
              <LongitudeDegrees>-4.05160906724631786346435546875</LongitudeDegrees>
            </Position>
            <AltitudeMeters>32.40000152587890625</AltitudeMeters>
            <DistanceMeters>NAN</DistanceMeters>
          </Trackpoint>
          <Trackpoint>
            <Time>2022-07-14T12:07:43.000Z</Time>
            <Position>
              <LatitudeDegrees>43.35741042159497737884521484375</LatitudeDegrees>
              <LongitudeDegrees>-4.051733203232288360595703125</LongitudeDegrees>
            </Position>
            <AltitudeMeters>31.6000003814697265625</AltitudeMeters>
            <DistanceMeters>NAN</DistanceMeters>
          </Trackpoint>
          <Trackpoint>
            <Time>2022-07-14T12:07:47.000Z</Time>
            <Position>
              <LatitudeDegrees>43.35759096778929233551025390625</LatitudeDegrees>
              <LongitudeDegrees>-4.0518346242606639862060546875</LongitudeDegrees>
            </Position>
            <AltitudeMeters>30.3999996185302734375</AltitudeMeters>
            <DistanceMeters>NAN</DistanceMeters>
          </Trackpoint>
          <Trackpoint>
            <Time>2022-07-14T12:07:52.000Z</Time>
            <Position>
              <LatitudeDegrees>43.35788282565772533416748046875</LatitudeDegrees>
              <LongitudeDegrees>-4.05196714214980602264404296875</LongitudeDegrees>
            </Position>
            <AltitudeMeters>29.799999237060546875</AltitudeMeters>
            <DistanceMeters>NAN</DistanceMeters>
          </Trackpoint>
          <Trackpoint>
            <Time>2022-07-14T12:07:54.000Z</Time>
            <Position>
              <LatitudeDegrees>43.358040153980255126953125</LatitudeDegrees>
              <LongitudeDegrees>-4.05198692344129085540771484375</LongitudeDegrees>
            </Position>
            <AltitudeMeters>29.799999237060546875</AltitudeMeters>
            <DistanceMeters>NAN</DistanceMeters>
          </Trackpoint>
          <Trackpoint>
            <Time>2022-07-14T12:07:56.000Z</Time>
            <Position>
              <LatitudeDegrees>43.3581673912703990936279296875</LatitudeDegrees>
              <LongitudeDegrees>-4.0519707463681697845458984375</LongitudeDegrees>
            </Position>
            <AltitudeMeters>29.6000003814697265625</AltitudeMeters>
            <DistanceMeters>NAN</DistanceMeters>
          </Trackpoint>
          <Trackpoint>
            <Time>2022-07-14T12:07:59.000Z</Time>
            <Position>
              <LatitudeDegrees>43.3583306707441806793212890625</LatitudeDegrees>
              <LongitudeDegrees>-4.05190863646566867828369140625</LongitudeDegrees>
            </Position>
            <AltitudeMeters>29.6000003814697265625</AltitudeMeters>
            <DistanceMeters>NAN</DistanceMeters>
          </Trackpoint>
          <Trackpoint>
            <Time>2022-07-14T12:08:00.000Z</Time>
            <Position>
              <LatitudeDegrees>43.358383141458034515380859375</LatitudeDegrees>
              <LongitudeDegrees>-4.051913917064666748046875</LongitudeDegrees>
            </Position>
            <AltitudeMeters>29.6000003814697265625</AltitudeMeters>
            <DistanceMeters>NAN</DistanceMeters>
          </Trackpoint>
          <Trackpoint>
            <Time>2022-07-14T12:08:01.000Z</Time>
            <Position>
              <LatitudeDegrees>43.35842379368841648101806640625</LatitudeDegrees>
              <LongitudeDegrees>-4.05192791484296321868896484375</LongitudeDegrees>
            </Position>
            <AltitudeMeters>29.6000003814697265625</AltitudeMeters>
            <DistanceMeters>NAN</DistanceMeters>
          </Trackpoint>
          <Trackpoint>
            <Time>2022-07-14T12:08:03.000Z</Time>
            <Position>
              <LatitudeDegrees>43.358512222766876220703125</LatitudeDegrees>
              <LongitudeDegrees>-4.05200217850506305694580078125</LongitudeDegrees>
            </Position>
            <AltitudeMeters>29.6000003814697265625</AltitudeMeters>
            <DistanceMeters>NAN</DistanceMeters>
          </Trackpoint>
          <Trackpoint>
            <Time>2022-07-14T12:08:04.000Z</Time>
            <Position>
              <LatitudeDegrees>43.3585465885698795318603515625</LatitudeDegrees>
              <LongitudeDegrees>-4.05204542912542819976806640625</LongitudeDegrees>
            </Position>
            <AltitudeMeters>29.6000003814697265625</AltitudeMeters>
            <DistanceMeters>NAN</DistanceMeters>
          </Trackpoint>
          <Trackpoint>
            <Time>2022-07-14T12:08:05.000Z</Time>
            <Position>
              <LatitudeDegrees>43.3585752546787261962890625</LatitudeDegrees>
              <LongitudeDegrees>-4.0521004982292652130126953125</LongitudeDegrees>
            </Position>
            <AltitudeMeters>29.6000003814697265625</AltitudeMeters>
            <DistanceMeters>NAN</DistanceMeters>
          </Trackpoint>
          <Trackpoint>
            <Time>2022-07-14T12:08:07.000Z</Time>
            <Position>
              <LatitudeDegrees>43.3586374484002590179443359375</LatitudeDegrees>
              <LongitudeDegrees>-4.05222966335713863372802734375</LongitudeDegrees>
            </Position>
            <AltitudeMeters>29.6000003814697265625</AltitudeMeters>
            <DistanceMeters>NAN</DistanceMeters>
          </Trackpoint>
          <Trackpoint>
            <Time>2022-07-14T12:08:09.000Z</Time>
            <Position>
              <LatitudeDegrees>43.3587145619094371795654296875</LatitudeDegrees>
              <LongitudeDegrees>-4.052342064678668975830078125</LongitudeDegrees>
            </Position>
            <AltitudeMeters>29.6000003814697265625</AltitudeMeters>
            <DistanceMeters>NAN</DistanceMeters>
          </Trackpoint>
          <Trackpoint>
            <Time>2022-07-14T12:08:13.000Z</Time>
            <Position>
              <LatitudeDegrees>43.3589100278913974761962890625</LatitudeDegrees>
              <LongitudeDegrees>-4.05246418900787830352783203125</LongitudeDegrees>
            </Position>
            <AltitudeMeters>29.799999237060546875</AltitudeMeters>
            <DistanceMeters>NAN</DistanceMeters>
          </Trackpoint>
          <Trackpoint>
            <Time>2022-07-14T12:08:14.000Z</Time>
            <Position>
              <LatitudeDegrees>43.3589683659374713897705078125</LatitudeDegrees>
              <LongitudeDegrees>-4.0524746663868427276611328125</LongitudeDegrees>
            </Position>
            <AltitudeMeters>29.799999237060546875</AltitudeMeters>
            <DistanceMeters>NAN</DistanceMeters>
          </Trackpoint>
          <Trackpoint>
            <Time>2022-07-14T12:08:16.000Z</Time>
            <Position>
              <LatitudeDegrees>43.35907121188938617706298828125</LatitudeDegrees>
              <LongitudeDegrees>-4.05247894115746021270751953125</LongitudeDegrees>
            </Position>
            <AltitudeMeters>30</AltitudeMeters>
            <DistanceMeters>NAN</DistanceMeters>
          </Trackpoint>
          <Trackpoint>
            <Time>2022-07-14T12:08:19.000Z</Time>
            <Position>
              <LatitudeDegrees>43.35922074504196643829345703125</LatitudeDegrees>
              <LongitudeDegrees>-4.0524558909237384796142578125</LongitudeDegrees>
            </Position>
            <AltitudeMeters>30.200000762939453125</AltitudeMeters>
            <DistanceMeters>NAN</DistanceMeters>
          </Trackpoint>
          <Trackpoint>
            <Time>2022-07-14T12:08:26.000Z</Time>
            <Position>
              <LatitudeDegrees>43.35952551104128360748291015625</LatitudeDegrees>
              <LongitudeDegrees>-4.05240450985729694366455078125</LongitudeDegrees>
            </Position>
            <AltitudeMeters>29.799999237060546875</AltitudeMeters>
            <DistanceMeters>NAN</DistanceMeters>
          </Trackpoint>
          <Trackpoint>
            <Time>2022-07-14T12:08:29.000Z</Time>
            <Position>
              <LatitudeDegrees>43.3596320450305938720703125</LatitudeDegrees>
              <LongitudeDegrees>-4.052376933395862579345703125</LongitudeDegrees>
            </Position>
            <AltitudeMeters>29.799999237060546875</AltitudeMeters>
            <DistanceMeters>NAN</DistanceMeters>
          </Trackpoint>
          <Trackpoint>
            <Time>2022-07-14T12:08:32.000Z</Time>
            <Position>
              <LatitudeDegrees>43.35974914021790027618408203125</LatitudeDegrees>
              <LongitudeDegrees>-4.05236176215112209320068359375</LongitudeDegrees>
            </Position>
            <AltitudeMeters>29.799999237060546875</AltitudeMeters>
            <DistanceMeters>NAN</DistanceMeters>
          </Trackpoint>
          <Trackpoint>
            <Time>2022-07-14T12:08:33.000Z</Time>
            <Position>
              <LatitudeDegrees>43.3597874455153942108154296875</LatitudeDegrees>
              <LongitudeDegrees>-4.05236109159886837005615234375</LongitudeDegrees>
            </Position>
            <AltitudeMeters>29.6000003814697265625</AltitudeMeters>
            <DistanceMeters>NAN</DistanceMeters>
          </Trackpoint>
          <Trackpoint>
            <Time>2022-07-14T12:08:34.000Z</Time>
            <Position>
              <LatitudeDegrees>43.35981820710003376007080078125</LatitudeDegrees>
              <LongitudeDegrees>-4.05236117541790008544921875</LongitudeDegrees>
            </Position>
            <AltitudeMeters>29.3999996185302734375</AltitudeMeters>
            <DistanceMeters>NAN</DistanceMeters>
          </Trackpoint>
          <Trackpoint>
            <Time>2022-07-14T12:08:36.000Z</Time>
            <Position>
              <LatitudeDegrees>43.35990898311138153076171875</LatitudeDegrees>
              <LongitudeDegrees>-4.05236695893108844757080078125</LongitudeDegrees>
            </Position>
            <AltitudeMeters>29.3999996185302734375</AltitudeMeters>
            <DistanceMeters>NAN</DistanceMeters>
          </Trackpoint>
          <Trackpoint>
            <Time>2022-07-14T12:08:40.000Z</Time>
            <Position>
              <LatitudeDegrees>43.360073603689670562744140625</LatitudeDegrees>
              <LongitudeDegrees>-4.052366875112056732177734375</LongitudeDegrees>
            </Position>
            <AltitudeMeters>29.3999996185302734375</AltitudeMeters>
            <DistanceMeters>NAN</DistanceMeters>
          </Trackpoint>
          <Trackpoint>
            <Time>2022-07-14T12:08:44.000Z</Time>
            <Position>
              <LatitudeDegrees>43.3602347038686275482177734375</LatitudeDegrees>
              <LongitudeDegrees>-4.05234751291573047637939453125</LongitudeDegrees>
            </Position>
            <AltitudeMeters>29.200000762939453125</AltitudeMeters>
            <DistanceMeters>NAN</DistanceMeters>
          </Trackpoint>
          <Trackpoint>
            <Time>2022-07-14T12:08:55.000Z</Time>
            <Position>
              <LatitudeDegrees>43.36064332164824008941650390625</LatitudeDegrees>
              <LongitudeDegrees>-4.0522996522486209869384765625</LongitudeDegrees>
            </Position>
            <AltitudeMeters>29.3999996185302734375</AltitudeMeters>
            <DistanceMeters>NAN</DistanceMeters>
          </Trackpoint>
          <Trackpoint>
            <Time>2022-07-14T12:08:58.000Z</Time>
            <Position>
              <LatitudeDegrees>43.36073820479214191436767578125</LatitudeDegrees>
              <LongitudeDegrees>-4.0522815473377704620361328125</LongitudeDegrees>
            </Position>
            <AltitudeMeters>29.3999996185302734375</AltitudeMeters>
            <DistanceMeters>NAN</DistanceMeters>
          </Trackpoint>
          <Trackpoint>
            <Time>2022-07-14T12:09:04.000Z</Time>
            <Position>
              <LatitudeDegrees>43.36095429025590419769287109375</LatitudeDegrees>
              <LongitudeDegrees>-4.05226134695112705230712890625</LongitudeDegrees>
            </Position>
            <AltitudeMeters>29.200000762939453125</AltitudeMeters>
            <DistanceMeters>NAN</DistanceMeters>
          </Trackpoint>
          <Trackpoint>
            <Time>2022-07-14T12:09:05.000Z</Time>
            <Position>
              <LatitudeDegrees>43.36099150590598583221435546875</LatitudeDegrees>
              <LongitudeDegrees>-4.05225883238017559051513671875</LongitudeDegrees>
            </Position>
            <AltitudeMeters>29.200000762939453125</AltitudeMeters>
            <DistanceMeters>NAN</DistanceMeters>
          </Trackpoint>
          <Trackpoint>
            <Time>2022-07-14T12:09:10.000Z</Time>
            <Position>
              <LatitudeDegrees>43.36116492748260498046875</LatitudeDegrees>
              <LongitudeDegrees>-4.05224273912608623504638671875</LongitudeDegrees>
            </Position>
            <AltitudeMeters>29.200000762939453125</AltitudeMeters>
            <DistanceMeters>NAN</DistanceMeters>
          </Trackpoint>
          <Trackpoint>
            <Time>2022-07-14T12:09:16.000Z</Time>
            <Position>
              <LatitudeDegrees>43.3613716252148151397705078125</LatitudeDegrees>
              <LongitudeDegrees>-4.05222061090171337127685546875</LongitudeDegrees>
            </Position>
            <AltitudeMeters>29.200000762939453125</AltitudeMeters>
            <DistanceMeters>NAN</DistanceMeters>
          </Trackpoint>
          <Trackpoint>
            <Time>2022-07-14T12:09:23.000Z</Time>
            <Position>
              <LatitudeDegrees>43.36162048391997814178466796875</LatitudeDegrees>
              <LongitudeDegrees>-4.05218976549804210662841796875</LongitudeDegrees>
            </Position>
            <AltitudeMeters>29.200000762939453125</AltitudeMeters>
            <DistanceMeters>NAN</DistanceMeters>
          </Trackpoint>
          <Trackpoint>
            <Time>2022-07-14T12:09:27.000Z</Time>
            <Position>
              <LatitudeDegrees>43.3617635630071163177490234375</LatitudeDegrees>
              <LongitudeDegrees>-4.05217467807233333587646484375</LongitudeDegrees>
            </Position>
            <AltitudeMeters>29</AltitudeMeters>
            <DistanceMeters>NAN</DistanceMeters>
          </Trackpoint>
          <Trackpoint>
            <Time>2022-07-14T12:09:30.000Z</Time>
            <Position>
              <LatitudeDegrees>43.36187546141445636749267578125</LatitudeDegrees>
              <LongitudeDegrees>-4.052159674465656280517578125</LongitudeDegrees>
            </Position>
            <AltitudeMeters>29.200000762939453125</AltitudeMeters>
            <DistanceMeters>NAN</DistanceMeters>
          </Trackpoint>
          <Trackpoint>
            <Time>2022-07-14T12:09:40.000Z</Time>
            <Position>
              <LatitudeDegrees>43.36221911944448947906494140625</LatitudeDegrees>
              <LongitudeDegrees>-4.0521216206252574920654296875</LongitudeDegrees>
            </Position>
            <AltitudeMeters>29.200000762939453125</AltitudeMeters>
            <DistanceMeters>NAN</DistanceMeters>
          </Trackpoint>
          <Trackpoint>
            <Time>2022-07-14T12:09:49.000Z</Time>
            <Position>
              <LatitudeDegrees>43.36252790875732898712158203125</LatitudeDegrees>
              <LongitudeDegrees>-4.05209789983928203582763671875</LongitudeDegrees>
            </Position>
            <AltitudeMeters>29.200000762939453125</AltitudeMeters>
            <DistanceMeters>NAN</DistanceMeters>
          </Trackpoint>
          <Trackpoint>
            <Time>2022-07-14T12:09:55.000Z</Time>
            <Position>
              <LatitudeDegrees>43.3627365343272686004638671875</LatitudeDegrees>
              <LongitudeDegrees>-4.0520894341170787811279296875</LongitudeDegrees>
            </Position>
            <AltitudeMeters>29.200000762939453125</AltitudeMeters>
            <DistanceMeters>NAN</DistanceMeters>
          </Trackpoint>
          <Trackpoint>
            <Time>2022-07-14T12:10:05.000Z</Time>
            <Position>
              <LatitudeDegrees>43.36306250654160976409912109375</LatitudeDegrees>
              <LongitudeDegrees>-4.05204467475414276123046875</LongitudeDegrees>
            </Position>
            <AltitudeMeters>29.200000762939453125</AltitudeMeters>
            <DistanceMeters>NAN</DistanceMeters>
          </Trackpoint>
          <Trackpoint>
            <Time>2022-07-14T12:10:08.000Z</Time>
            <Position>
              <LatitudeDegrees>43.3631311543285846710205078125</LatitudeDegrees>
              <LongitudeDegrees>-4.05202866531908512115478515625</LongitudeDegrees>
            </Position>
            <AltitudeMeters>29.200000762939453125</AltitudeMeters>
            <DistanceMeters>NAN</DistanceMeters>
          </Trackpoint>
          <Trackpoint>
            <Time>2022-07-14T12:10:09.000Z</Time>
            <Position>
              <LatitudeDegrees>43.3631532825529575347900390625</LatitudeDegrees>
              <LongitudeDegrees>-4.05204274691641330718994140625</LongitudeDegrees>
            </Position>
            <AltitudeMeters>29.200000762939453125</AltitudeMeters>
            <DistanceMeters>NAN</DistanceMeters>
          </Trackpoint>
          <Trackpoint>
            <Time>2022-07-14T12:10:12.000Z</Time>
            <Position>
              <LatitudeDegrees>43.363202400505542755126953125</LatitudeDegrees>
              <LongitudeDegrees>-4.0521504543721675872802734375</LongitudeDegrees>
            </Position>
            <AltitudeMeters>29.200000762939453125</AltitudeMeters>
            <DistanceMeters>NAN</DistanceMeters>
          </Trackpoint>
          <Trackpoint>
            <Time>2022-07-14T12:10:14.000Z</Time>
            <Position>
              <LatitudeDegrees>43.36321757175028324127197265625</LatitudeDegrees>
              <LongitudeDegrees>-4.05224625952541828155517578125</LongitudeDegrees>
            </Position>
            <AltitudeMeters>29.3999996185302734375</AltitudeMeters>
            <DistanceMeters>NAN</DistanceMeters>
          </Trackpoint>
          <Trackpoint>
            <Time>2022-07-14T12:10:20.000Z</Time>
            <Position>
              <LatitudeDegrees>43.36323601193726062774658203125</LatitudeDegrees>
              <LongitudeDegrees>-4.0525427274405956268310546875</LongitudeDegrees>
            </Position>
            <AltitudeMeters>29.6000003814697265625</AltitudeMeters>
            <DistanceMeters>NAN</DistanceMeters>
          </Trackpoint>
          <Trackpoint>
            <Time>2022-07-14T12:10:23.000Z</Time>
            <Position>
              <LatitudeDegrees>43.36323819123208522796630859375</LatitudeDegrees>
              <LongitudeDegrees>-4.0527009777724742889404296875</LongitudeDegrees>
            </Position>
            <AltitudeMeters>29.200000762939453125</AltitudeMeters>
            <DistanceMeters>NAN</DistanceMeters>
          </Trackpoint>
          <Trackpoint>
            <Time>2022-07-14T12:10:29.000Z</Time>
            <Position>
              <LatitudeDegrees>43.36325705051422119140625</LatitudeDegrees>
              <LongitudeDegrees>-4.05302745290100574493408203125</LongitudeDegrees>
            </Position>
            <AltitudeMeters>29.3999996185302734375</AltitudeMeters>
            <DistanceMeters>NAN</DistanceMeters>
          </Trackpoint>
          <Trackpoint>
            <Time>2022-07-14T12:10:34.000Z</Time>
            <Position>
              <LatitudeDegrees>43.36326031945645809173583984375</LatitudeDegrees>
              <LongitudeDegrees>-4.05330992303788661956787109375</LongitudeDegrees>
            </Position>
            <AltitudeMeters>29.6000003814697265625</AltitudeMeters>
            <DistanceMeters>NAN</DistanceMeters>
          </Trackpoint>
          <Trackpoint>
            <Time>2022-07-14T12:10:39.000Z</Time>
            <Position>
              <LatitudeDegrees>43.36327171884477138519287109375</LatitudeDegrees>
              <LongitudeDegrees>-4.05358836986124515533447265625</LongitudeDegrees>
            </Position>
            <AltitudeMeters>29.6000003814697265625</AltitudeMeters>
            <DistanceMeters>NAN</DistanceMeters>
          </Trackpoint>
          <Trackpoint>
            <Time>2022-07-14T12:10:46.000Z</Time>
            <Position>
              <LatitudeDegrees>43.363303653895854949951171875</LatitudeDegrees>
              <LongitudeDegrees>-4.05398617498576641082763671875</LongitudeDegrees>
            </Position>
            <AltitudeMeters>29</AltitudeMeters>
            <DistanceMeters>NAN</DistanceMeters>
          </Trackpoint>
          <Trackpoint>
            <Time>2022-07-14T12:10:47.000Z</Time>
            <Position>
              <LatitudeDegrees>43.3633165620267391204833984375</LatitudeDegrees>
              <LongitudeDegrees>-4.0540449321269989013671875</LongitudeDegrees>
            </Position>
            <AltitudeMeters>29</AltitudeMeters>
            <DistanceMeters>NAN</DistanceMeters>
          </Trackpoint>
          <Trackpoint>
            <Time>2022-07-14T12:10:53.000Z</Time>
            <Position>
              <LatitudeDegrees>43.36342158727347850799560546875</LatitudeDegrees>
              <LongitudeDegrees>-4.05442320741713047027587890625</LongitudeDegrees>
            </Position>
            <AltitudeMeters>28.3999996185302734375</AltitudeMeters>
            <DistanceMeters>NAN</DistanceMeters>
          </Trackpoint>
          <Trackpoint>
            <Time>2022-07-14T12:10:55.000Z</Time>
            <Position>
              <LatitudeDegrees>43.36344773881137371063232421875</LatitudeDegrees>
              <LongitudeDegrees>-4.05454088933765888214111328125</LongitudeDegrees>
            </Position>
            <AltitudeMeters>28.200000762939453125</AltitudeMeters>
            <DistanceMeters>NAN</DistanceMeters>
          </Trackpoint>
          <Trackpoint>
            <Time>2022-07-14T12:10:58.000Z</Time>
            <Position>
              <LatitudeDegrees>43.36346483789384365081787109375</LatitudeDegrees>
              <LongitudeDegrees>-4.05475630424916744232177734375</LongitudeDegrees>
            </Position>
            <AltitudeMeters>28</AltitudeMeters>
            <DistanceMeters>NAN</DistanceMeters>
          </Trackpoint>
          <Trackpoint>
            <Time>2022-07-14T12:11:06.000Z</Time>
            <Position>
              <LatitudeDegrees>43.36351278237998485565185546875</LatitudeDegrees>
              <LongitudeDegrees>-4.05531487427651882171630859375</LongitudeDegrees>
            </Position>
            <AltitudeMeters>27.6000003814697265625</AltitudeMeters>
            <DistanceMeters>NAN</DistanceMeters>
          </Trackpoint>
          <Trackpoint>
            <Time>2022-07-14T12:11:10.000Z</Time>
            <Position>
              <LatitudeDegrees>43.36353943683207035064697265625</LatitudeDegrees>
              <LongitudeDegrees>-4.05557638965547084808349609375</LongitudeDegrees>
            </Position>
            <AltitudeMeters>27.3999996185302734375</AltitudeMeters>
            <DistanceMeters>NAN</DistanceMeters>
          </Trackpoint>
          <Trackpoint>
            <Time>2022-07-14T12:11:16.000Z</Time>
            <Position>
              <LatitudeDegrees>43.3635561168193817138671875</LatitudeDegrees>
              <LongitudeDegrees>-4.05593848787248134613037109375</LongitudeDegrees>
            </Position>
            <AltitudeMeters>27.3999996185302734375</AltitudeMeters>
            <DistanceMeters>NAN</DistanceMeters>
          </Trackpoint>
          <Trackpoint>
            <Time>2022-07-14T12:11:19.000Z</Time>
            <Position>
              <LatitudeDegrees>43.36356257088482379913330078125</LatitudeDegrees>
              <LongitudeDegrees>-4.0560953132808208465576171875</LongitudeDegrees>
            </Position>
            <AltitudeMeters>27.3999996185302734375</AltitudeMeters>
            <DistanceMeters>NAN</DistanceMeters>
          </Trackpoint>
          <Trackpoint>
            <Time>2022-07-14T12:11:22.000Z</Time>
            <Position>
              <LatitudeDegrees>43.3635656721889972686767578125</LatitudeDegrees>
              <LongitudeDegrees>-4.05623554252088069915771484375</LongitudeDegrees>
            </Position>
            <AltitudeMeters>27.6000003814697265625</AltitudeMeters>
            <DistanceMeters>NAN</DistanceMeters>
          </Trackpoint>
          <Trackpoint>
            <Time>2022-07-14T12:11:30.000Z</Time>
            <Position>
              <LatitudeDegrees>43.36354329250752925872802734375</LatitudeDegrees>
              <LongitudeDegrees>-4.0566860698163509368896484375</LongitudeDegrees>
            </Position>
            <AltitudeMeters>27.3999996185302734375</AltitudeMeters>
            <DistanceMeters>NAN</DistanceMeters>
          </Trackpoint>
          <Trackpoint>
            <Time>2022-07-14T12:11:31.000Z</Time>
            <Position>
              <LatitudeDegrees>43.36354337632656097412109375</LatitudeDegrees>
              <LongitudeDegrees>-4.05675119720399379730224609375</LongitudeDegrees>
            </Position>
            <AltitudeMeters>27.3999996185302734375</AltitudeMeters>
            <DistanceMeters>NAN</DistanceMeters>
          </Trackpoint>
          <Trackpoint>
            <Time>2022-07-14T12:11:32.000Z</Time>
            <Position>
              <LatitudeDegrees>43.36354144848883152008056640625</LatitudeDegrees>
              <LongitudeDegrees>-4.056819342076778411865234375</LongitudeDegrees>
            </Position>
            <AltitudeMeters>27.200000762939453125</AltitudeMeters>
            <DistanceMeters>NAN</DistanceMeters>
          </Trackpoint>
          <Trackpoint>
            <Time>2022-07-14T12:11:33.000Z</Time>
            <Position>
              <LatitudeDegrees>43.363541699945926666259765625</LatitudeDegrees>
              <LongitudeDegrees>-4.05690173618495464324951171875</LongitudeDegrees>
            </Position>
            <AltitudeMeters>27.200000762939453125</AltitudeMeters>
            <DistanceMeters>NAN</DistanceMeters>
          </Trackpoint>
          <Trackpoint>
            <Time>2022-07-14T12:11:34.000Z</Time>
            <Position>
              <LatitudeDegrees>43.3635385148227214813232421875</LatitudeDegrees>
              <LongitudeDegrees>-4.05695378780364990234375</LongitudeDegrees>
            </Position>
            <AltitudeMeters>27.200000762939453125</AltitudeMeters>
            <DistanceMeters>NAN</DistanceMeters>
          </Trackpoint>
          <Trackpoint>
            <Time>2022-07-14T12:11:35.000Z</Time>
            <Position>
              <LatitudeDegrees>43.36353038437664508819580078125</LatitudeDegrees>
              <LongitudeDegrees>-4.0570203401148319244384765625</LongitudeDegrees>
            </Position>
            <AltitudeMeters>27</AltitudeMeters>
            <DistanceMeters>NAN</DistanceMeters>
          </Trackpoint>
          <Trackpoint>
            <Time>2022-07-14T12:11:44.000Z</Time>
            <Position>
              <LatitudeDegrees>43.36343231610953807830810546875</LatitudeDegrees>
              <LongitudeDegrees>-4.05757614411413669586181640625</LongitudeDegrees>
            </Position>
            <AltitudeMeters>27</AltitudeMeters>
            <DistanceMeters>NAN</DistanceMeters>
          </Trackpoint>
          <Trackpoint>
            <Time>2022-07-14T12:11:45.000Z</Time>
            <Position>
              <LatitudeDegrees>43.36341060698032379150390625</LatitudeDegrees>
              <LongitudeDegrees>-4.0576281957328319549560546875</LongitudeDegrees>
            </Position>
            <AltitudeMeters>27</AltitudeMeters>
            <DistanceMeters>NAN</DistanceMeters>
          </Trackpoint>
          <Trackpoint>
            <Time>2022-07-14T12:11:49.000Z</Time>
            <Position>
              <LatitudeDegrees>43.363281190395355224609375</LatitudeDegrees>
              <LongitudeDegrees>-4.05781519599258899688720703125</LongitudeDegrees>
            </Position>
            <AltitudeMeters>27</AltitudeMeters>
            <DistanceMeters>NAN</DistanceMeters>
          </Trackpoint>
          <Trackpoint>
            <Time>2022-07-14T12:12:00.000Z</Time>
            <Position>
              <LatitudeDegrees>43.362923450767993927001953125</LatitudeDegrees>
              <LongitudeDegrees>-4.05823680572211742401123046875</LongitudeDegrees>
            </Position>
            <AltitudeMeters>27.200000762939453125</AltitudeMeters>
            <DistanceMeters>NAN</DistanceMeters>
          </Trackpoint>
          <Trackpoint>
            <Time>2022-07-14T12:12:07.000Z</Time>
            <Position>
              <LatitudeDegrees>43.3627326786518096923828125</LatitudeDegrees>
              <LongitudeDegrees>-4.058442078530788421630859375</LongitudeDegrees>
            </Position>
            <AltitudeMeters>27.3999996185302734375</AltitudeMeters>
            <DistanceMeters>NAN</DistanceMeters>
          </Trackpoint>
          <Trackpoint>
            <Time>2022-07-14T12:12:09.000Z</Time>
            <Position>
              <LatitudeDegrees>43.3626761846244335174560546875</LatitudeDegrees>
              <LongitudeDegrees>-4.05849513597786426544189453125</LongitudeDegrees>
            </Position>
            <AltitudeMeters>27.200000762939453125</AltitudeMeters>
            <DistanceMeters>NAN</DistanceMeters>
          </Trackpoint>
          <Trackpoint>
            <Time>2022-07-14T12:12:13.000Z</Time>
            <Position>
              <LatitudeDegrees>43.36256260983645915985107421875</LatitudeDegrees>
              <LongitudeDegrees>-4.058582223951816558837890625</LongitudeDegrees>
            </Position>
            <AltitudeMeters>27</AltitudeMeters>
            <DistanceMeters>NAN</DistanceMeters>
          </Trackpoint>
          <Trackpoint>
            <Time>2022-07-14T12:12:19.000Z</Time>
            <Position>
              <LatitudeDegrees>43.3623804710805416107177734375</LatitudeDegrees>
              <LongitudeDegrees>-4.0586662106215953826904296875</LongitudeDegrees>
            </Position>
            <AltitudeMeters>26.799999237060546875</AltitudeMeters>
            <DistanceMeters>NAN</DistanceMeters>
          </Trackpoint>
          <Trackpoint>
            <Time>2022-07-14T12:12:28.000Z</Time>
            <Position>
              <LatitudeDegrees>43.362089283764362335205078125</LatitudeDegrees>
              <LongitudeDegrees>-4.0587480179965496063232421875</LongitudeDegrees>
            </Position>
            <AltitudeMeters>26.6000003814697265625</AltitudeMeters>
            <DistanceMeters>NAN</DistanceMeters>
          </Trackpoint>
          <Trackpoint>
            <Time>2022-07-14T12:12:30.000Z</Time>
            <Position>
              <LatitudeDegrees>43.36201250553131103515625</LatitudeDegrees>
              <LongitudeDegrees>-4.058780036866664886474609375</LongitudeDegrees>
            </Position>
            <AltitudeMeters>26.6000003814697265625</AltitudeMeters>
            <DistanceMeters>NAN</DistanceMeters>
          </Trackpoint>
          <Trackpoint>
            <Time>2022-07-14T12:12:32.000Z</Time>
            <Position>
              <LatitudeDegrees>43.36194075644016265869140625</LatitudeDegrees>
              <LongitudeDegrees>-4.0588372014462947845458984375</LongitudeDegrees>
            </Position>
            <AltitudeMeters>26.6000003814697265625</AltitudeMeters>
            <DistanceMeters>NAN</DistanceMeters>
          </Trackpoint>
          <Trackpoint>
            <Time>2022-07-14T12:12:37.000Z</Time>
            <Position>
              <LatitudeDegrees>43.36181377060711383819580078125</LatitudeDegrees>
              <LongitudeDegrees>-4.0590346790850162506103515625</LongitudeDegrees>
            </Position>
            <AltitudeMeters>26.6000003814697265625</AltitudeMeters>
            <DistanceMeters>NAN</DistanceMeters>
          </Trackpoint>
          <Trackpoint>
            <Time>2022-07-14T12:12:39.000Z</Time>
            <Position>
              <LatitudeDegrees>43.36178116500377655029296875</LatitudeDegrees>
              <LongitudeDegrees>-4.0591371059417724609375</LongitudeDegrees>
            </Position>
            <AltitudeMeters>26.6000003814697265625</AltitudeMeters>
            <DistanceMeters>NAN</DistanceMeters>
          </Trackpoint>
          <Trackpoint>
            <Time>2022-07-14T12:12:41.000Z</Time>
            <Position>
              <LatitudeDegrees>43.36176498793065547943115234375</LatitudeDegrees>
              <LongitudeDegrees>-4.05924799852073192596435546875</LongitudeDegrees>
            </Position>
            <AltitudeMeters>26.799999237060546875</AltitudeMeters>
            <DistanceMeters>NAN</DistanceMeters>
          </Trackpoint>
          <Trackpoint>
            <Time>2022-07-14T12:12:42.000Z</Time>
            <Position>
              <LatitudeDegrees>43.36176616139709949493408203125</LatitudeDegrees>
              <LongitudeDegrees>-4.05930449254810810089111328125</LongitudeDegrees>
            </Position>
            <AltitudeMeters>26.799999237060546875</AltitudeMeters>
            <DistanceMeters>NAN</DistanceMeters>
          </Trackpoint>
          <Trackpoint>
            <Time>2022-07-14T12:12:48.000Z</Time>
            <Position>
              <LatitudeDegrees>43.3617429435253143310546875</LatitudeDegrees>
              <LongitudeDegrees>-4.0596277825534343719482421875</LongitudeDegrees>
            </Position>
            <AltitudeMeters>26.799999237060546875</AltitudeMeters>
            <DistanceMeters>NAN</DistanceMeters>
          </Trackpoint>
          <Trackpoint>
            <Time>2022-07-14T12:12:53.000Z</Time>
            <Position>
              <LatitudeDegrees>43.36169776506721973419189453125</LatitudeDegrees>
              <LongitudeDegrees>-4.05989776365458965301513671875</LongitudeDegrees>
            </Position>
            <AltitudeMeters>26.799999237060546875</AltitudeMeters>
            <DistanceMeters>NAN</DistanceMeters>
          </Trackpoint>
          <Trackpoint>
            <Time>2022-07-14T12:12:54.000Z</Time>
            <Position>
              <LatitudeDegrees>43.36169005371630191802978515625</LatitudeDegrees>
              <LongitudeDegrees>-4.05995006673038005828857421875</LongitudeDegrees>
            </Position>
            <AltitudeMeters>26.799999237060546875</AltitudeMeters>
            <DistanceMeters>NAN</DistanceMeters>
          </Trackpoint>
          <Trackpoint>
            <Time>2022-07-14T12:12:58.000Z</Time>
            <Position>
              <LatitudeDegrees>43.36164898239076137542724609375</LatitudeDegrees>
              <LongitudeDegrees>-4.06016715802252292633056640625</LongitudeDegrees>
            </Position>
            <AltitudeMeters>26.799999237060546875</AltitudeMeters>
            <DistanceMeters>NAN</DistanceMeters>
          </Trackpoint>
          <Trackpoint>
            <Time>2022-07-14T12:13:01.000Z</Time>
            <Position>
              <LatitudeDegrees>43.361594416201114654541015625</LatitudeDegrees>
              <LongitudeDegrees>-4.06033211387693881988525390625</LongitudeDegrees>
            </Position>
            <AltitudeMeters>27</AltitudeMeters>
            <DistanceMeters>NAN</DistanceMeters>
          </Trackpoint>
          <Trackpoint>
            <Time>2022-07-14T12:13:08.000Z</Time>
            <Position>
              <LatitudeDegrees>43.3614359982311725616455078125</LatitudeDegrees>
              <LongitudeDegrees>-4.060642160475254058837890625</LongitudeDegrees>
            </Position>
            <AltitudeMeters>27.200000762939453125</AltitudeMeters>
            <DistanceMeters>NAN</DistanceMeters>
          </Trackpoint>
          <Trackpoint>
            <Time>2022-07-14T12:13:09.000Z</Time>
            <Position>
              <LatitudeDegrees>43.36140573956072330474853515625</LatitudeDegrees>
              <LongitudeDegrees>-4.0606849081814289093017578125</LongitudeDegrees>
            </Position>
            <AltitudeMeters>27.200000762939453125</AltitudeMeters>
            <DistanceMeters>NAN</DistanceMeters>
          </Trackpoint>
          <Trackpoint>
            <Time>2022-07-14T12:13:13.000Z</Time>
            <Position>
              <LatitudeDegrees>43.36132124997675418853759765625</LatitudeDegrees>
              <LongitudeDegrees>-4.0608652867376804351806640625</LongitudeDegrees>
            </Position>
            <AltitudeMeters>27.200000762939453125</AltitudeMeters>
            <DistanceMeters>NAN</DistanceMeters>
          </Trackpoint>
          <Trackpoint>
            <Time>2022-07-14T12:13:18.000Z</Time>
            <Position>
              <LatitudeDegrees>43.3611828647553920745849609375</LatitudeDegrees>
              <LongitudeDegrees>-4.06104994006454944610595703125</LongitudeDegrees>
            </Position>
            <AltitudeMeters>27.200000762939453125</AltitudeMeters>
            <DistanceMeters>NAN</DistanceMeters>
          </Trackpoint>
          <Trackpoint>
            <Time>2022-07-14T12:13:23.000Z</Time>
            <Position>
              <LatitudeDegrees>43.36101732216775417327880859375</LatitudeDegrees>
              <LongitudeDegrees>-4.0612344257533550262451171875</LongitudeDegrees>
            </Position>
            <AltitudeMeters>27</AltitudeMeters>
            <DistanceMeters>NAN</DistanceMeters>
          </Trackpoint>
          <Trackpoint>
            <Time>2022-07-14T12:13:25.000Z</Time>
            <Position>
              <LatitudeDegrees>43.36094699800014495849609375</LatitudeDegrees>
              <LongitudeDegrees>-4.06129234470427036285400390625</LongitudeDegrees>
            </Position>
            <AltitudeMeters>27</AltitudeMeters>
            <DistanceMeters>NAN</DistanceMeters>
          </Trackpoint>
          <Trackpoint>
            <Time>2022-07-14T12:13:32.000Z</Time>
            <Position>
              <LatitudeDegrees>43.36071364581584930419921875</LatitudeDegrees>
              <LongitudeDegrees>-4.06151530332863330841064453125</LongitudeDegrees>
            </Position>
            <AltitudeMeters>27.3999996185302734375</AltitudeMeters>
            <DistanceMeters>NAN</DistanceMeters>
          </Trackpoint>
          <Trackpoint>
            <Time>2022-07-14T12:13:33.000Z</Time>
            <Position>
              <LatitudeDegrees>43.36067768745124340057373046875</LatitudeDegrees>
              <LongitudeDegrees>-4.0615512616932392120361328125</LongitudeDegrees>
            </Position>
            <AltitudeMeters>27.3999996185302734375</AltitudeMeters>
            <DistanceMeters>NAN</DistanceMeters>
          </Trackpoint>
          <Trackpoint>
            <Time>2022-07-14T12:13:37.000Z</Time>
            <Position>
              <LatitudeDegrees>43.36057484149932861328125</LatitudeDegrees>
              <LongitudeDegrees>-4.0617175586521625518798828125</LongitudeDegrees>
            </Position>
            <AltitudeMeters>27.3999996185302734375</AltitudeMeters>
            <DistanceMeters>NAN</DistanceMeters>
          </Trackpoint>
          <Trackpoint>
            <Time>2022-07-14T12:13:46.000Z</Time>
            <Position>
              <LatitudeDegrees>43.360394798219203948974609375</LatitudeDegrees>
              <LongitudeDegrees>-4.06210907734930515289306640625</LongitudeDegrees>
            </Position>
            <AltitudeMeters>27.799999237060546875</AltitudeMeters>
            <DistanceMeters>NAN</DistanceMeters>
          </Trackpoint>
          <Trackpoint>
            <Time>2022-07-14T12:13:54.000Z</Time>
            <Position>
              <LatitudeDegrees>43.36027904413640499114990234375</LatitudeDegrees>
              <LongitudeDegrees>-4.0624689124524593353271484375</LongitudeDegrees>
            </Position>
            <AltitudeMeters>27.3999996185302734375</AltitudeMeters>
            <DistanceMeters>NAN</DistanceMeters>
          </Trackpoint>
          <Trackpoint>
            <Time>2022-07-14T12:14:02.000Z</Time>
            <Position>
              <LatitudeDegrees>43.3602387271821498870849609375</LatitudeDegrees>
              <LongitudeDegrees>-4.0628460980951786041259765625</LongitudeDegrees>
            </Position>
            <AltitudeMeters>27.3999996185302734375</AltitudeMeters>
            <DistanceMeters>NAN</DistanceMeters>
          </Trackpoint>
          <Trackpoint>
            <Time>2022-07-14T12:14:10.000Z</Time>
            <Position>
              <LatitudeDegrees>43.3601636253297328948974609375</LatitudeDegrees>
              <LongitudeDegrees>-4.06317810527980327606201171875</LongitudeDegrees>
            </Position>
            <AltitudeMeters>27.799999237060546875</AltitudeMeters>
            <DistanceMeters>NAN</DistanceMeters>
          </Trackpoint>
          <Trackpoint>
            <Time>2022-07-14T12:14:16.000Z</Time>
            <Position>
              <LatitudeDegrees>43.36005826480686664581298828125</LatitudeDegrees>
              <LongitudeDegrees>-4.06340156681835651397705078125</LongitudeDegrees>
            </Position>
            <AltitudeMeters>28</AltitudeMeters>
            <DistanceMeters>NAN</DistanceMeters>
          </Trackpoint>
          <Trackpoint>
            <Time>2022-07-14T12:14:25.000Z</Time>
            <Position>
              <LatitudeDegrees>43.35988392122089862823486328125</LatitudeDegrees>
              <LongitudeDegrees>-4.06377531588077545166015625</LongitudeDegrees>
            </Position>
            <AltitudeMeters>28.200000762939453125</AltitudeMeters>
            <DistanceMeters>NAN</DistanceMeters>
          </Trackpoint>
          <Trackpoint>
            <Time>2022-07-14T12:14:34.000Z</Time>
            <Position>
              <LatitudeDegrees>43.35963782854378223419189453125</LatitudeDegrees>
              <LongitudeDegrees>-4.06404982320964336395263671875</LongitudeDegrees>
            </Position>
            <AltitudeMeters>28.3999996185302734375</AltitudeMeters>
            <DistanceMeters>NAN</DistanceMeters>
          </Trackpoint>
          <Trackpoint>
            <Time>2022-07-14T12:14:39.000Z</Time>
            <Position>
              <LatitudeDegrees>43.3594833500683307647705078125</LatitudeDegrees>
              <LongitudeDegrees>-4.06409642659127712249755859375</LongitudeDegrees>
            </Position>
            <AltitudeMeters>28.3999996185302734375</AltitudeMeters>
            <DistanceMeters>NAN</DistanceMeters>
          </Trackpoint>
          <Trackpoint>
            <Time>2022-07-14T12:14:40.000Z</Time>
            <Position>
              <LatitudeDegrees>43.3594488166272640228271484375</LatitudeDegrees>
              <LongitudeDegrees>-4.06410162337124347686767578125</LongitudeDegrees>
            </Position>
            <AltitudeMeters>28.3999996185302734375</AltitudeMeters>
            <DistanceMeters>NAN</DistanceMeters>
          </Trackpoint>
          <Trackpoint>
            <Time>2022-07-14T12:14:42.000Z</Time>
            <Position>
              <LatitudeDegrees>43.3593928255140781402587890625</LatitudeDegrees>
              <LongitudeDegrees>-4.06414604745805263519287109375</LongitudeDegrees>
            </Position>
            <AltitudeMeters>28.3999996185302734375</AltitudeMeters>
            <DistanceMeters>NAN</DistanceMeters>
          </Trackpoint>
          <Trackpoint>
            <Time>2022-07-14T12:14:48.000Z</Time>
            <Position>
              <LatitudeDegrees>43.3592613972723484039306640625</LatitudeDegrees>
              <LongitudeDegrees>-4.064365066587924957275390625</LongitudeDegrees>
            </Position>
            <AltitudeMeters>28.3999996185302734375</AltitudeMeters>
            <DistanceMeters>NAN</DistanceMeters>
          </Trackpoint>
          <Trackpoint>
            <Time>2022-07-14T12:14:52.000Z</Time>
            <Position>
              <LatitudeDegrees>43.35914857685565948486328125</LatitudeDegrees>
              <LongitudeDegrees>-4.06444846652448177337646484375</LongitudeDegrees>
            </Position>
            <AltitudeMeters>28.200000762939453125</AltitudeMeters>
            <DistanceMeters>NAN</DistanceMeters>
          </Trackpoint>
          <Trackpoint>
            <Time>2022-07-14T12:14:59.000Z</Time>
            <Position>
              <LatitudeDegrees>43.35888831876218318939208984375</LatitudeDegrees>
              <LongitudeDegrees>-4.06444226391613483428955078125</LongitudeDegrees>
            </Position>
            <AltitudeMeters>28</AltitudeMeters>
            <DistanceMeters>NAN</DistanceMeters>
          </Trackpoint>
          <Trackpoint>
            <Time>2022-07-14T12:15:03.000Z</Time>
            <Position>
              <LatitudeDegrees>43.3587739057838916778564453125</LatitudeDegrees>
              <LongitudeDegrees>-4.064324833452701568603515625</LongitudeDegrees>
            </Position>
            <AltitudeMeters>28.200000762939453125</AltitudeMeters>
            <DistanceMeters>NAN</DistanceMeters>
          </Trackpoint>
          <Trackpoint>
            <Time>2022-07-14T12:15:09.000Z</Time>
            <Position>
              <LatitudeDegrees>43.3587098680436611175537109375</LatitudeDegrees>
              <LongitudeDegrees>-4.06403549015522003173828125</LongitudeDegrees>
            </Position>
            <AltitudeMeters>28.799999237060546875</AltitudeMeters>
            <DistanceMeters>NAN</DistanceMeters>
          </Trackpoint>
          <Trackpoint>
            <Time>2022-07-14T12:15:10.000Z</Time>
            <Position>
              <LatitudeDegrees>43.3586894161999225616455078125</LatitudeDegrees>
              <LongitudeDegrees>-4.0640081651508808135986328125</LongitudeDegrees>
            </Position>
            <AltitudeMeters>28.799999237060546875</AltitudeMeters>
            <DistanceMeters>NAN</DistanceMeters>
          </Trackpoint>
          <Trackpoint>
            <Time>2022-07-14T12:15:12.000Z</Time>
            <Position>
              <LatitudeDegrees>43.35864541120827198028564453125</LatitudeDegrees>
              <LongitudeDegrees>-4.0639991126954555511474609375</LongitudeDegrees>
            </Position>
            <AltitudeMeters>28.6000003814697265625</AltitudeMeters>
            <DistanceMeters>NAN</DistanceMeters>
          </Trackpoint>
          <Trackpoint>
            <Time>2022-07-14T12:15:16.000Z</Time>
            <Position>
              <LatitudeDegrees>43.358571231365203857421875</LatitudeDegrees>
              <LongitudeDegrees>-4.064010344445705413818359375</LongitudeDegrees>
            </Position>
            <AltitudeMeters>28.3999996185302734375</AltitudeMeters>
            <DistanceMeters>NAN</DistanceMeters>
          </Trackpoint>
          <Trackpoint>
            <Time>2022-07-14T12:15:17.000Z</Time>
            <Position>
              <LatitudeDegrees>43.35856745950877666473388671875</LatitudeDegrees>
              <LongitudeDegrees>-4.06401411630213260650634765625</LongitudeDegrees>
            </Position>
            <AltitudeMeters>28.200000762939453125</AltitudeMeters>
            <DistanceMeters>NAN</DistanceMeters>
          </Trackpoint>
          <Trackpoint>
            <Time>2022-07-14T12:15:20.000Z</Time>
            <Position>
              <LatitudeDegrees>43.35856745950877666473388671875</LatitudeDegrees>
              <LongitudeDegrees>-4.06401411630213260650634765625</LongitudeDegrees>
            </Position>
            <AltitudeMeters>28</AltitudeMeters>
            <DistanceMeters>NAN</DistanceMeters>
          </Trackpoint>
          <Trackpoint>
            <Time>2022-07-14T12:41:43.000Z</Time>
            <Position>
              <LatitudeDegrees>43.35852563381195068359375</LatitudeDegrees>
              <LongitudeDegrees>-4.06406574882566928863525390625</LongitudeDegrees>
            </Position>
            <AltitudeMeters>42.59999847412109375</AltitudeMeters>
            <DistanceMeters>NAN</DistanceMeters>
          </Trackpoint>
          <Trackpoint>
            <Time>2022-07-14T12:41:44.000Z</Time>
            <Position>
              <LatitudeDegrees>43.35852789692580699920654296875</LatitudeDegrees>
              <LongitudeDegrees>-4.06407664529979228973388671875</LongitudeDegrees>
            </Position>
            <AltitudeMeters>42.59999847412109375</AltitudeMeters>
            <DistanceMeters>NAN</DistanceMeters>
          </Trackpoint>
          <Trackpoint>
            <Time>2022-07-14T12:41:47.000Z</Time>
            <Position>
              <LatitudeDegrees>43.35852873511612415313720703125</LatitudeDegrees>
              <LongitudeDegrees>-4.0640654973685741424560546875</LongitudeDegrees>
            </Position>
            <AltitudeMeters>42.799999237060546875</AltitudeMeters>
            <DistanceMeters>NAN</DistanceMeters>
          </Trackpoint>
          <Trackpoint>
            <Time>2022-07-14T12:42:00.000Z</Time>
            <Position>
              <LatitudeDegrees>43.35853376425802707672119140625</LatitudeDegrees>
              <LongitudeDegrees>-4.0641208179295063018798828125</LongitudeDegrees>
            </Position>
            <AltitudeMeters>42.799999237060546875</AltitudeMeters>
            <DistanceMeters>NAN</DistanceMeters>
          </Trackpoint>
          <Trackpoint>
            <Time>2022-07-14T12:42:01.000Z</Time>
            <Position>
              <LatitudeDegrees>43.35853342898190021514892578125</LatitudeDegrees>
              <LongitudeDegrees>-4.06411067582666873931884765625</LongitudeDegrees>
            </Position>
            <AltitudeMeters>42.799999237060546875</AltitudeMeters>
            <DistanceMeters>NAN</DistanceMeters>
          </Trackpoint>
          <Trackpoint>
            <Time>2022-07-14T12:42:06.000Z</Time>
            <Position>
              <LatitudeDegrees>43.3585502766072750091552734375</LatitudeDegrees>
              <LongitudeDegrees>-4.06404982320964336395263671875</LongitudeDegrees>
            </Position>
            <AltitudeMeters>42.59999847412109375</AltitudeMeters>
            <DistanceMeters>NAN</DistanceMeters>
          </Trackpoint>
          <Trackpoint>
            <Time>2022-07-14T12:42:07.000Z</Time>
            <Position>
              <LatitudeDegrees>43.358590342104434967041015625</LatitudeDegrees>
              <LongitudeDegrees>-4.0639810077846050262451171875</LongitudeDegrees>
            </Position>
            <AltitudeMeters>42.59999847412109375</AltitudeMeters>
            <DistanceMeters>NAN</DistanceMeters>
          </Trackpoint>
          <Trackpoint>
            <Time>2022-07-14T12:43:01.000Z</Time>
            <Position>
              <LatitudeDegrees>43.35873149335384368896484375</LatitudeDegrees>
              <LongitudeDegrees>-4.06386022455990314483642578125</LongitudeDegrees>
            </Position>
            <AltitudeMeters>42.40000152587890625</AltitudeMeters>
            <DistanceMeters>NAN</DistanceMeters>
          </Trackpoint>
          <Trackpoint>
            <Time>2022-07-14T12:43:03.000Z</Time>
            <Position>
              <LatitudeDegrees>43.3587249554693698883056640625</LatitudeDegrees>
              <LongitudeDegrees>-4.06405828893184661865234375</LongitudeDegrees>
            </Position>
            <AltitudeMeters>42.40000152587890625</AltitudeMeters>
            <DistanceMeters>NAN</DistanceMeters>
          </Trackpoint>
          <Trackpoint>
            <Time>2022-07-14T12:43:05.000Z</Time>
            <Position>
              <LatitudeDegrees>43.3587373606860637664794921875</LatitudeDegrees>
              <LongitudeDegrees>-4.06406189315021038055419921875</LongitudeDegrees>
            </Position>
            <AltitudeMeters>42.40000152587890625</AltitudeMeters>
            <DistanceMeters>NAN</DistanceMeters>
          </Trackpoint>
          <Trackpoint>
            <Time>2022-07-14T12:43:07.000Z</Time>
            <Position>
              <LatitudeDegrees>43.3587522804737091064453125</LatitudeDegrees>
              <LongitudeDegrees>-4.064060635864734649658203125</LongitudeDegrees>
            </Position>
            <AltitudeMeters>42.40000152587890625</AltitudeMeters>
            <DistanceMeters>NAN</DistanceMeters>
          </Trackpoint>
          <Trackpoint>
            <Time>2022-07-14T12:43:08.000Z</Time>
            <Position>
              <LatitudeDegrees>43.35875236429274082183837890625</LatitudeDegrees>
              <LongitudeDegrees>-4.0640882961452007293701171875</LongitudeDegrees>
            </Position>
            <AltitudeMeters>42.40000152587890625</AltitudeMeters>
            <DistanceMeters>NAN</DistanceMeters>
          </Trackpoint>
          <Trackpoint>
            <Time>2022-07-14T12:43:12.000Z</Time>
            <Position>
              <LatitudeDegrees>43.358767367899417877197265625</LatitudeDegrees>
              <LongitudeDegrees>-4.06421025283634662628173828125</LongitudeDegrees>
            </Position>
            <AltitudeMeters>42.40000152587890625</AltitudeMeters>
            <DistanceMeters>NAN</DistanceMeters>
          </Trackpoint>
          <Trackpoint>
            <Time>2022-07-14T12:43:13.000Z</Time>
            <Position>
              <LatitudeDegrees>43.35878203622996807098388671875</LatitudeDegrees>
              <LongitudeDegrees>-4.06423271633684635162353515625</LongitudeDegrees>
            </Position>
            <AltitudeMeters>42.40000152587890625</AltitudeMeters>
            <DistanceMeters>NAN</DistanceMeters>
          </Trackpoint>
          <Trackpoint>
            <Time>2022-07-14T12:43:18.000Z</Time>
            <Position>
              <LatitudeDegrees>43.35884942673146724700927734375</LatitudeDegrees>
              <LongitudeDegrees>-4.06435257755219936370849609375</LongitudeDegrees>
            </Position>
            <AltitudeMeters>42.200000762939453125</AltitudeMeters>
            <DistanceMeters>NAN</DistanceMeters>
          </Trackpoint>
          <Trackpoint>
            <Time>2022-07-14T12:43:20.000Z</Time>
            <Position>
              <LatitudeDegrees>43.35885261185467243194580078125</LatitudeDegrees>
              <LongitudeDegrees>-4.06443840824067592620849609375</LongitudeDegrees>
            </Position>
            <AltitudeMeters>42.40000152587890625</AltitudeMeters>
            <DistanceMeters>NAN</DistanceMeters>
          </Trackpoint>
          <Trackpoint>
            <Time>2022-07-14T12:43:24.000Z</Time>
            <Position>
              <LatitudeDegrees>43.35882662795484066009521484375</LatitudeDegrees>
              <LongitudeDegrees>-4.06457729637622833251953125</LongitudeDegrees>
            </Position>
            <AltitudeMeters>42.40000152587890625</AltitudeMeters>
            <DistanceMeters>NAN</DistanceMeters>
          </Trackpoint>
          <Trackpoint>
            <Time>2022-07-14T12:43:26.000Z</Time>
            <Position>
              <LatitudeDegrees>43.35881405510008335113525390625</LatitudeDegrees>
              <LongitudeDegrees>-4.06464996747672557830810546875</LongitudeDegrees>
            </Position>
            <AltitudeMeters>42.40000152587890625</AltitudeMeters>
            <DistanceMeters>NAN</DistanceMeters>
          </Trackpoint>
          <Trackpoint>
            <Time>2022-07-14T12:43:30.000Z</Time>
            <Position>
              <LatitudeDegrees>43.3588193356990814208984375</LatitudeDegrees>
              <LongitudeDegrees>-4.06480402685701847076416015625</LongitudeDegrees>
            </Position>
            <AltitudeMeters>42.40000152587890625</AltitudeMeters>
            <DistanceMeters>NAN</DistanceMeters>
          </Trackpoint>
          <Trackpoint>
            <Time>2022-07-14T12:43:33.000Z</Time>
            <Position>
              <LatitudeDegrees>43.358824364840984344482421875</LatitudeDegrees>
              <LongitudeDegrees>-4.064929001033306121826171875</LongitudeDegrees>
            </Position>
            <AltitudeMeters>42.40000152587890625</AltitudeMeters>
            <DistanceMeters>NAN</DistanceMeters>
          </Trackpoint>
          <Trackpoint>
            <Time>2022-07-14T12:43:34.000Z</Time>
            <Position>
              <LatitudeDegrees>43.35882805287837982177734375</LatitudeDegrees>
              <LongitudeDegrees>-4.064965546131134033203125</LongitudeDegrees>
            </Position>
            <AltitudeMeters>42.200000762939453125</AltitudeMeters>
            <DistanceMeters>NAN</DistanceMeters>
          </Trackpoint>
          <Trackpoint>
            <Time>2022-07-14T12:43:37.000Z</Time>
            <Position>
              <LatitudeDegrees>43.35884070955216884613037109375</LatitudeDegrees>
              <LongitudeDegrees>-4.06508599407970905303955078125</LongitudeDegrees>
            </Position>
            <AltitudeMeters>42.200000762939453125</AltitudeMeters>
            <DistanceMeters>NAN</DistanceMeters>
          </Trackpoint>
          <Trackpoint>
            <Time>2022-07-14T12:43:38.000Z</Time>
            <Position>
              <LatitudeDegrees>43.35884205065667629241943359375</LatitudeDegrees>
              <LongitudeDegrees>-4.06512522138655185699462890625</LongitudeDegrees>
            </Position>
            <AltitudeMeters>42.200000762939453125</AltitudeMeters>
            <DistanceMeters>NAN</DistanceMeters>
          </Trackpoint>
          <Trackpoint>
            <Time>2022-07-14T12:43:39.000Z</Time>
            <Position>
              <LatitudeDegrees>43.35884892381727695465087890625</LatitudeDegrees>
              <LongitudeDegrees>-4.06516143120825290679931640625</LongitudeDegrees>
            </Position>
            <AltitudeMeters>42.200000762939453125</AltitudeMeters>
            <DistanceMeters>NAN</DistanceMeters>
          </Trackpoint>
          <Trackpoint>
            <Time>2022-07-14T12:43:41.000Z</Time>
            <Position>
              <LatitudeDegrees>43.358876667916774749755859375</LatitudeDegrees>
              <LongitudeDegrees>-4.0652252174913883209228515625</LongitudeDegrees>
            </Position>
            <AltitudeMeters>42.200000762939453125</AltitudeMeters>
            <DistanceMeters>NAN</DistanceMeters>
          </Trackpoint>
          <Trackpoint>
            <Time>2022-07-14T12:43:45.000Z</Time>
            <Position>
              <LatitudeDegrees>43.358912207186222076416015625</LatitudeDegrees>
              <LongitudeDegrees>-4.065319597721099853515625</LongitudeDegrees>
            </Position>
            <AltitudeMeters>42.59999847412109375</AltitudeMeters>
            <DistanceMeters>NAN</DistanceMeters>
          </Trackpoint>
          <Trackpoint>
            <Time>2022-07-14T12:43:49.000Z</Time>
            <Position>
              <LatitudeDegrees>43.358958475291728973388671875</LatitudeDegrees>
              <LongitudeDegrees>-4.06537659466266632080078125</LongitudeDegrees>
            </Position>
            <AltitudeMeters>42.799999237060546875</AltitudeMeters>
            <DistanceMeters>NAN</DistanceMeters>
          </Trackpoint>
          <Trackpoint>
            <Time>2022-07-14T12:43:50.000Z</Time>
            <Position>
              <LatitudeDegrees>43.3589784242212772369384765625</LatitudeDegrees>
              <LongitudeDegrees>-4.0653906762599945068359375</LongitudeDegrees>
            </Position>
            <AltitudeMeters>42.799999237060546875</AltitudeMeters>
            <DistanceMeters>NAN</DistanceMeters>
          </Trackpoint>
          <Trackpoint>
            <Time>2022-07-14T12:43:51.000Z</Time>
            <Position>
              <LatitudeDegrees>43.35900365374982357025146484375</LatitudeDegrees>
              <LongitudeDegrees>-4.065408445894718170166015625</LongitudeDegrees>
            </Position>
            <AltitudeMeters>43</AltitudeMeters>
            <DistanceMeters>NAN</DistanceMeters>
          </Trackpoint>
          <Trackpoint>
            <Time>2022-07-14T12:43:56.000Z</Time>
            <Position>
              <LatitudeDegrees>43.35910188965499401092529296875</LatitudeDegrees>
              <LongitudeDegrees>-4.06554062850773334503173828125</LongitudeDegrees>
            </Position>
            <AltitudeMeters>42.799999237060546875</AltitudeMeters>
            <DistanceMeters>NAN</DistanceMeters>
          </Trackpoint>
          <Trackpoint>
            <Time>2022-07-14T12:44:01.000Z</Time>
            <Position>
              <LatitudeDegrees>43.3591839484870433807373046875</LatitudeDegrees>
              <LongitudeDegrees>-4.06568781472742557525634765625</LongitudeDegrees>
            </Position>
            <AltitudeMeters>42.40000152587890625</AltitudeMeters>
            <DistanceMeters>NAN</DistanceMeters>
          </Trackpoint>
          <Trackpoint>
            <Time>2022-07-14T12:44:02.000Z</Time>
            <Position>
              <LatitudeDegrees>43.359210602939128875732421875</LatitudeDegrees>
              <LongitudeDegrees>-4.06571614556014537811279296875</LongitudeDegrees>
            </Position>
            <AltitudeMeters>42.40000152587890625</AltitudeMeters>
            <DistanceMeters>NAN</DistanceMeters>
          </Trackpoint>
          <Trackpoint>
            <Time>2022-07-14T12:44:06.000Z</Time>
            <Position>
              <LatitudeDegrees>43.3593318052589893341064453125</LatitudeDegrees>
              <LongitudeDegrees>-4.06579242087900638580322265625</LongitudeDegrees>
            </Position>
            <AltitudeMeters>42.40000152587890625</AltitudeMeters>
            <DistanceMeters>NAN</DistanceMeters>
          </Trackpoint>
          <Trackpoint>
            <Time>2022-07-14T12:44:09.000Z</Time>
            <Position>
              <LatitudeDegrees>43.35940741002559661865234375</LatitudeDegrees>
              <LongitudeDegrees>-4.06583969481289386749267578125</LongitudeDegrees>
            </Position>
            <AltitudeMeters>42.40000152587890625</AltitudeMeters>
            <DistanceMeters>NAN</DistanceMeters>
          </Trackpoint>
          <Trackpoint>
            <Time>2022-07-14T12:44:14.000Z</Time>
            <Position>
              <LatitudeDegrees>43.3595299534499645233154296875</LatitudeDegrees>
              <LongitudeDegrees>-4.06595318578183650970458984375</LongitudeDegrees>
            </Position>
            <AltitudeMeters>42.200000762939453125</AltitudeMeters>
            <DistanceMeters>NAN</DistanceMeters>
          </Trackpoint>
          <Trackpoint>
            <Time>2022-07-14T12:44:17.000Z</Time>
            <Position>
              <LatitudeDegrees>43.3595943264663219451904296875</LatitudeDegrees>
              <LongitudeDegrees>-4.06601705588400363922119140625</LongitudeDegrees>
            </Position>
            <AltitudeMeters>42</AltitudeMeters>
            <DistanceMeters>NAN</DistanceMeters>
          </Trackpoint>
          <Trackpoint>
            <Time>2022-07-14T12:44:21.000Z</Time>
            <Position>
              <LatitudeDegrees>43.35966716520488262176513671875</LatitudeDegrees>
              <LongitudeDegrees>-4.06610640697181224822998046875</LongitudeDegrees>
            </Position>
            <AltitudeMeters>41.59999847412109375</AltitudeMeters>
            <DistanceMeters>NAN</DistanceMeters>
          </Trackpoint>
          <Trackpoint>
            <Time>2022-07-14T12:44:24.000Z</Time>
            <Position>
              <LatitudeDegrees>43.3597270958125591278076171875</LatitudeDegrees>
              <LongitudeDegrees>-4.06614747829735279083251953125</LongitudeDegrees>
            </Position>
            <AltitudeMeters>41.59999847412109375</AltitudeMeters>
            <DistanceMeters>NAN</DistanceMeters>
          </Trackpoint>
          <Trackpoint>
            <Time>2022-07-14T12:44:26.000Z</Time>
            <Position>
              <LatitudeDegrees>43.35977017879486083984375</LatitudeDegrees>
              <LongitudeDegrees>-4.0661643259227275848388671875</LongitudeDegrees>
            </Position>
            <AltitudeMeters>41.59999847412109375</AltitudeMeters>
            <DistanceMeters>NAN</DistanceMeters>
          </Trackpoint>
          <Trackpoint>
            <Time>2022-07-14T12:44:29.000Z</Time>
            <Position>
              <LatitudeDegrees>43.35981921292841434478759765625</LatitudeDegrees>
              <LongitudeDegrees>-4.0662395954132080078125</LongitudeDegrees>
            </Position>
            <AltitudeMeters>41.59999847412109375</AltitudeMeters>
            <DistanceMeters>NAN</DistanceMeters>
          </Trackpoint>
          <Trackpoint>
            <Time>2022-07-14T12:44:30.000Z</Time>
            <Position>
              <LatitudeDegrees>43.3598263375461101531982421875</LatitudeDegrees>
              <LongitudeDegrees>-4.0662704408168792724609375</LongitudeDegrees>
            </Position>
            <AltitudeMeters>41.59999847412109375</AltitudeMeters>
            <DistanceMeters>NAN</DistanceMeters>
          </Trackpoint>
          <Trackpoint>
            <Time>2022-07-14T12:44:32.000Z</Time>
            <Position>
              <LatitudeDegrees>43.3598169498145580291748046875</LatitudeDegrees>
              <LongitudeDegrees>-4.06634193845093250274658203125</LongitudeDegrees>
            </Position>
            <AltitudeMeters>41.59999847412109375</AltitudeMeters>
            <DistanceMeters>NAN</DistanceMeters>
          </Trackpoint>
          <Trackpoint>
            <Time>2022-07-14T12:44:40.000Z</Time>
            <Position>
              <LatitudeDegrees>43.3598600327968597412109375</LatitudeDegrees>
              <LongitudeDegrees>-4.0666179545223712921142578125</LongitudeDegrees>
            </Position>
            <AltitudeMeters>41.40000152587890625</AltitudeMeters>
            <DistanceMeters>NAN</DistanceMeters>
          </Trackpoint>
          <Trackpoint>
            <Time>2022-07-14T12:44:43.000Z</Time>
            <Position>
              <LatitudeDegrees>43.35989431478083133697509765625</LatitudeDegrees>
              <LongitudeDegrees>-4.06672616489231586456298828125</LongitudeDegrees>
            </Position>
            <AltitudeMeters>41.59999847412109375</AltitudeMeters>
            <DistanceMeters>NAN</DistanceMeters>
          </Trackpoint>
          <Trackpoint>
            <Time>2022-07-14T12:44:46.000Z</Time>
            <Position>
              <LatitudeDegrees>43.3599215559661388397216796875</LatitudeDegrees>
              <LongitudeDegrees>-4.06680847518146038055419921875</LongitudeDegrees>
            </Position>
            <AltitudeMeters>41.40000152587890625</AltitudeMeters>
            <DistanceMeters>NAN</DistanceMeters>
          </Trackpoint>
          <Trackpoint>
            <Time>2022-07-14T12:44:54.000Z</Time>
            <Position>
              <LatitudeDegrees>43.36002524010837078094482421875</LatitudeDegrees>
              <LongitudeDegrees>-4.06704400666058063507080078125</LongitudeDegrees>
            </Position>
            <AltitudeMeters>41.200000762939453125</AltitudeMeters>
            <DistanceMeters>NAN</DistanceMeters>
          </Trackpoint>
          <Trackpoint>
            <Time>2022-07-14T12:44:59.000Z</Time>
            <Position>
              <LatitudeDegrees>43.360073603689670562744140625</LatitudeDegrees>
              <LongitudeDegrees>-4.067184068262577056884765625</LongitudeDegrees>
            </Position>
            <AltitudeMeters>41</AltitudeMeters>
            <DistanceMeters>NAN</DistanceMeters>
          </Trackpoint>
          <Trackpoint>
            <Time>2022-07-14T12:45:00.000Z</Time>
            <Position>
              <LatitudeDegrees>43.360073603689670562744140625</LatitudeDegrees>
              <LongitudeDegrees>-4.06720527447760105133056640625</LongitudeDegrees>
            </Position>
            <AltitudeMeters>41</AltitudeMeters>
            <DistanceMeters>NAN</DistanceMeters>
          </Trackpoint>
          <Trackpoint>
            <Time>2022-07-14T12:45:05.000Z</Time>
            <Position>
              <LatitudeDegrees>43.360080979764461517333984375</LatitudeDegrees>
              <LongitudeDegrees>-4.067349024116992950439453125</LongitudeDegrees>
            </Position>
            <AltitudeMeters>40.799999237060546875</AltitudeMeters>
            <DistanceMeters>NAN</DistanceMeters>
          </Trackpoint>
          <Trackpoint>
            <Time>2022-07-14T12:45:09.000Z</Time>
            <Position>
              <LatitudeDegrees>43.3601223863661289215087890625</LatitudeDegrees>
              <LongitudeDegrees>-4.06746628694236278533935546875</LongitudeDegrees>
            </Position>
            <AltitudeMeters>40.799999237060546875</AltitudeMeters>
            <DistanceMeters>NAN</DistanceMeters>
          </Trackpoint>
          <Trackpoint>
            <Time>2022-07-14T12:45:11.000Z</Time>
            <Position>
              <LatitudeDegrees>43.36015532724559307098388671875</LatitudeDegrees>
              <LongitudeDegrees>-4.067476093769073486328125</LongitudeDegrees>
            </Position>
            <AltitudeMeters>41</AltitudeMeters>
            <DistanceMeters>NAN</DistanceMeters>
          </Trackpoint>
          <Trackpoint>
            <Time>2022-07-14T12:45:16.000Z</Time>
            <Position>
              <LatitudeDegrees>43.3602462708950042724609375</LatitudeDegrees>
              <LongitudeDegrees>-4.0673719905316829681396484375</LongitudeDegrees>
            </Position>
            <AltitudeMeters>41</AltitudeMeters>
            <DistanceMeters>NAN</DistanceMeters>
          </Trackpoint>
          <Trackpoint>
            <Time>2022-07-14T12:45:19.000Z</Time>
            <Position>
              <LatitudeDegrees>43.360296227037906646728515625</LatitudeDegrees>
              <LongitudeDegrees>-4.06727216206490993499755859375</LongitudeDegrees>
            </Position>
            <AltitudeMeters>40.799999237060546875</AltitudeMeters>
            <DistanceMeters>NAN</DistanceMeters>
          </Trackpoint>
          <Trackpoint>
            <Time>2022-07-14T12:45:24.000Z</Time>
            <Position>
              <LatitudeDegrees>43.36038499139249324798583984375</LatitudeDegrees>
              <LongitudeDegrees>-4.06709513626992702484130859375</LongitudeDegrees>
            </Position>
            <AltitudeMeters>40.59999847412109375</AltitudeMeters>
            <DistanceMeters>NAN</DistanceMeters>
          </Trackpoint>
          <Trackpoint>
            <Time>2022-07-14T12:45:25.000Z</Time>
            <Position>
              <LatitudeDegrees>43.36040108464658260345458984375</LatitudeDegrees>
              <LongitudeDegrees>-4.067060686647891998291015625</LongitudeDegrees>
            </Position>
            <AltitudeMeters>40.59999847412109375</AltitudeMeters>
            <DistanceMeters>NAN</DistanceMeters>
          </Trackpoint>
          <Trackpoint>
            <Time>2022-07-14T12:45:26.000Z</Time>
            <Position>
              <LatitudeDegrees>43.360420279204845428466796875</LatitudeDegrees>
              <LongitudeDegrees>-4.06702606938779354095458984375</LongitudeDegrees>
            </Position>
            <AltitudeMeters>40.40000152587890625</AltitudeMeters>
            <DistanceMeters>NAN</DistanceMeters>
          </Trackpoint>
          <Trackpoint>
            <Time>2022-07-14T12:45:29.000Z</Time>
            <Position>
              <LatitudeDegrees>43.36048557423055171966552734375</LatitudeDegrees>
              <LongitudeDegrees>-4.06691945157945156097412109375</LongitudeDegrees>
            </Position>
            <AltitudeMeters>40.200000762939453125</AltitudeMeters>
            <DistanceMeters>NAN</DistanceMeters>
          </Trackpoint>
          <Trackpoint>
            <Time>2022-07-14T12:45:30.000Z</Time>
            <Position>
              <LatitudeDegrees>43.36050535552203655242919921875</LatitudeDegrees>
              <LongitudeDegrees>-4.06688173301517963409423828125</LongitudeDegrees>
            </Position>
            <AltitudeMeters>40.200000762939453125</AltitudeMeters>
            <DistanceMeters>NAN</DistanceMeters>
          </Trackpoint>
          <Trackpoint>
            <Time>2022-07-14T12:45:33.000Z</Time>
            <Position>
              <LatitudeDegrees>43.36057861335575580596923828125</LatitudeDegrees>
              <LongitudeDegrees>-4.06676656566560268402099609375</LongitudeDegrees>
            </Position>
            <AltitudeMeters>40.200000762939453125</AltitudeMeters>
            <DistanceMeters>NAN</DistanceMeters>
          </Trackpoint>
          <Trackpoint>
            <Time>2022-07-14T12:45:40.000Z</Time>
            <Position>
              <LatitudeDegrees>43.36074583232402801513671875</LatitudeDegrees>
              <LongitudeDegrees>-4.06650387682020664215087890625</LongitudeDegrees>
            </Position>
            <AltitudeMeters>39.799999237060546875</AltitudeMeters>
            <DistanceMeters>NAN</DistanceMeters>
          </Trackpoint>
          <Trackpoint>
            <Time>2022-07-14T12:45:50.000Z</Time>
            <Position>
              <LatitudeDegrees>43.36098010651767253875732421875</LatitudeDegrees>
              <LongitudeDegrees>-4.06613473780453205108642578125</LongitudeDegrees>
            </Position>
            <AltitudeMeters>39.40000152587890625</AltitudeMeters>
            <DistanceMeters>NAN</DistanceMeters>
          </Trackpoint>
          <Trackpoint>
            <Time>2022-07-14T12:45:52.000Z</Time>
            <Position>
              <LatitudeDegrees>43.36103324778378009796142578125</LatitudeDegrees>
              <LongitudeDegrees>-4.066068269312381744384765625</LongitudeDegrees>
            </Position>
            <AltitudeMeters>39.40000152587890625</AltitudeMeters>
            <DistanceMeters>NAN</DistanceMeters>
          </Trackpoint>
          <Trackpoint>
            <Time>2022-07-14T12:46:01.000Z</Time>
            <Position>
              <LatitudeDegrees>43.361208178102970123291015625</LatitudeDegrees>
              <LongitudeDegrees>-4.06575118191540241241455078125</LongitudeDegrees>
            </Position>
            <AltitudeMeters>39.200000762939453125</AltitudeMeters>
            <DistanceMeters>NAN</DistanceMeters>
          </Trackpoint>
          <Trackpoint>
            <Time>2022-07-14T12:46:05.000Z</Time>
            <Position>
              <LatitudeDegrees>43.361285962164402008056640625</LatitudeDegrees>
              <LongitudeDegrees>-4.0656245313584804534912109375</LongitudeDegrees>
            </Position>
            <AltitudeMeters>39.200000762939453125</AltitudeMeters>
            <DistanceMeters>NAN</DistanceMeters>
          </Trackpoint>
          <Trackpoint>
            <Time>2022-07-14T12:46:09.000Z</Time>
            <Position>
              <LatitudeDegrees>43.361359052360057830810546875</LatitudeDegrees>
              <LongitudeDegrees>-4.0654947794973850250244140625</LongitudeDegrees>
            </Position>
            <AltitudeMeters>39.200000762939453125</AltitudeMeters>
            <DistanceMeters>NAN</DistanceMeters>
          </Trackpoint>
          <Trackpoint>
            <Time>2022-07-14T12:46:14.000Z</Time>
            <Position>
              <LatitudeDegrees>43.36145334877073764801025390625</LatitudeDegrees>
              <LongitudeDegrees>-4.0653236210346221923828125</LongitudeDegrees>
            </Position>
            <AltitudeMeters>39.200000762939453125</AltitudeMeters>
            <DistanceMeters>NAN</DistanceMeters>
          </Trackpoint>
          <Trackpoint>
            <Time>2022-07-14T12:46:18.000Z</Time>
            <Position>
              <LatitudeDegrees>43.3615258522331714630126953125</LatitudeDegrees>
              <LongitudeDegrees>-4.06519512645900249481201171875</LongitudeDegrees>
            </Position>
            <AltitudeMeters>39.40000152587890625</AltitudeMeters>
            <DistanceMeters>NAN</DistanceMeters>
          </Trackpoint>
          <Trackpoint>
            <Time>2022-07-14T12:46:21.000Z</Time>
            <Position>
              <LatitudeDegrees>43.36158980615437030792236328125</LatitudeDegrees>
              <LongitudeDegrees>-4.06508917920291423797607421875</LongitudeDegrees>
            </Position>
            <AltitudeMeters>39.59999847412109375</AltitudeMeters>
            <DistanceMeters>NAN</DistanceMeters>
          </Trackpoint>
          <Trackpoint>
            <Time>2022-07-14T12:46:28.000Z</Time>
            <Position>
              <LatitudeDegrees>43.36170312948524951934814453125</LatitudeDegrees>
              <LongitudeDegrees>-4.06482162885367870330810546875</LongitudeDegrees>
            </Position>
            <AltitudeMeters>39.40000152587890625</AltitudeMeters>
            <DistanceMeters>NAN</DistanceMeters>
          </Trackpoint>
          <Trackpoint>
            <Time>2022-07-14T12:46:32.000Z</Time>
            <Position>
              <LatitudeDegrees>43.36177756078541278839111328125</LatitudeDegrees>
              <LongitudeDegrees>-4.06467930413782596588134765625</LongitudeDegrees>
            </Position>
            <AltitudeMeters>39.59999847412109375</AltitudeMeters>
            <DistanceMeters>NAN</DistanceMeters>
          </Trackpoint>
          <Trackpoint>
            <Time>2022-07-14T12:46:37.000Z</Time>
            <Position>
              <LatitudeDegrees>43.36186573840677738189697265625</LatitudeDegrees>
              <LongitudeDegrees>-4.0644912980496883392333984375</LongitudeDegrees>
            </Position>
            <AltitudeMeters>39.59999847412109375</AltitudeMeters>
            <DistanceMeters>NAN</DistanceMeters>
          </Trackpoint>
          <Trackpoint>
            <Time>2022-07-14T12:46:42.000Z</Time>
            <Position>
              <LatitudeDegrees>43.361944444477558135986328125</LatitudeDegrees>
              <LongitudeDegrees>-4.0643236599862575531005859375</LongitudeDegrees>
            </Position>
            <AltitudeMeters>39.40000152587890625</AltitudeMeters>
            <DistanceMeters>NAN</DistanceMeters>
          </Trackpoint>
          <Trackpoint>
            <Time>2022-07-14T12:46:49.000Z</Time>
            <Position>
              <LatitudeDegrees>43.3620800636708736419677734375</LatitudeDegrees>
              <LongitudeDegrees>-4.0640762262046337127685546875</LongitudeDegrees>
            </Position>
            <AltitudeMeters>39.59999847412109375</AltitudeMeters>
            <DistanceMeters>NAN</DistanceMeters>
          </Trackpoint>
          <Trackpoint>
            <Time>2022-07-14T12:46:58.000Z</Time>
            <Position>
              <LatitudeDegrees>43.36226320825517177581787109375</LatitudeDegrees>
              <LongitudeDegrees>-4.0637164749205112457275390625</LongitudeDegrees>
            </Position>
            <AltitudeMeters>39.40000152587890625</AltitudeMeters>
            <DistanceMeters>NAN</DistanceMeters>
          </Trackpoint>
          <Trackpoint>
            <Time>2022-07-14T12:47:05.000Z</Time>
            <Position>
              <LatitudeDegrees>43.36238524876534938812255859375</LatitudeDegrees>
              <LongitudeDegrees>-4.06348940916359424591064453125</LongitudeDegrees>
            </Position>
            <AltitudeMeters>39.40000152587890625</AltitudeMeters>
            <DistanceMeters>NAN</DistanceMeters>
          </Trackpoint>
          <Trackpoint>
            <Time>2022-07-14T12:47:11.000Z</Time>
            <Position>
              <LatitudeDegrees>43.3624941296875476837158203125</LatitudeDegrees>
              <LongitudeDegrees>-4.063224457204341888427734375</LongitudeDegrees>
            </Position>
            <AltitudeMeters>39.40000152587890625</AltitudeMeters>
            <DistanceMeters>NAN</DistanceMeters>
          </Trackpoint>
          <Trackpoint>
            <Time>2022-07-14T12:47:14.000Z</Time>
            <Position>
              <LatitudeDegrees>43.36255456320941448211669921875</LatitudeDegrees>
              <LongitudeDegrees>-4.06307752244174480438232421875</LongitudeDegrees>
            </Position>
            <AltitudeMeters>39.40000152587890625</AltitudeMeters>
            <DistanceMeters>NAN</DistanceMeters>
          </Trackpoint>
          <Trackpoint>
            <Time>2022-07-14T12:47:19.000Z</Time>
            <Position>
              <LatitudeDegrees>43.36266621015965938568115234375</LatitudeDegrees>
              <LongitudeDegrees>-4.06283662654459476470947265625</LongitudeDegrees>
            </Position>
            <AltitudeMeters>39</AltitudeMeters>
            <DistanceMeters>NAN</DistanceMeters>
          </Trackpoint>
          <Trackpoint>
            <Time>2022-07-14T12:47:28.000Z</Time>
            <Position>
              <LatitudeDegrees>43.36284876801073551177978515625</LatitudeDegrees>
              <LongitudeDegrees>-4.06232834793627262115478515625</LongitudeDegrees>
            </Position>
            <AltitudeMeters>38.799999237060546875</AltitudeMeters>
            <DistanceMeters>NAN</DistanceMeters>
          </Trackpoint>
          <Trackpoint>
            <Time>2022-07-14T12:47:35.000Z</Time>
            <Position>
              <LatitudeDegrees>43.36297265253961086273193359375</LatitudeDegrees>
              <LongitudeDegrees>-4.06197882257401943206787109375</LongitudeDegrees>
            </Position>
            <AltitudeMeters>38.40000152587890625</AltitudeMeters>
            <DistanceMeters>NAN</DistanceMeters>
          </Trackpoint>
          <Trackpoint>
            <Time>2022-07-14T12:47:39.000Z</Time>
            <Position>
              <LatitudeDegrees>43.36303241550922393798828125</LatitudeDegrees>
              <LongitudeDegrees>-4.0617738850414752960205078125</LongitudeDegrees>
            </Position>
            <AltitudeMeters>38.200000762939453125</AltitudeMeters>
            <DistanceMeters>NAN</DistanceMeters>
          </Trackpoint>
          <Trackpoint>
            <Time>2022-07-14T12:47:43.000Z</Time>
            <Position>
              <LatitudeDegrees>43.36310139857232570648193359375</LatitudeDegrees>
              <LongitudeDegrees>-4.061578921973705291748046875</LongitudeDegrees>
            </Position>
            <AltitudeMeters>38</AltitudeMeters>
            <DistanceMeters>NAN</DistanceMeters>
          </Trackpoint>
          <Trackpoint>
            <Time>2022-07-14T12:47:50.000Z</Time>
            <Position>
              <LatitudeDegrees>43.36321078240871429443359375</LatitudeDegrees>
              <LongitudeDegrees>-4.0612532012164592742919921875</LongitudeDegrees>
            </Position>
            <AltitudeMeters>37.40000152587890625</AltitudeMeters>
            <DistanceMeters>NAN</DistanceMeters>
          </Trackpoint>
          <Trackpoint>
            <Time>2022-07-14T12:47:54.000Z</Time>
            <Position>
              <LatitudeDegrees>43.3632666058838367462158203125</LatitudeDegrees>
              <LongitudeDegrees>-4.0610776841640472412109375</LongitudeDegrees>
            </Position>
            <AltitudeMeters>37.40000152587890625</AltitudeMeters>
            <DistanceMeters>NAN</DistanceMeters>
          </Trackpoint>
          <Trackpoint>
            <Time>2022-07-14T12:48:05.000Z</Time>
            <Position>
              <LatitudeDegrees>43.3633926697075366973876953125</LatitudeDegrees>
              <LongitudeDegrees>-4.06056999228894710540771484375</LongitudeDegrees>
            </Position>
            <AltitudeMeters>37</AltitudeMeters>
            <DistanceMeters>NAN</DistanceMeters>
          </Trackpoint>
          <Trackpoint>
            <Time>2022-07-14T12:48:12.000Z</Time>
            <Position>
              <LatitudeDegrees>43.36349115706980228424072265625</LatitudeDegrees>
              <LongitudeDegrees>-4.06022675335407257080078125</LongitudeDegrees>
            </Position>
            <AltitudeMeters>37</AltitudeMeters>
            <DistanceMeters>NAN</DistanceMeters>
          </Trackpoint>
          <Trackpoint>
            <Time>2022-07-14T12:48:14.000Z</Time>
            <Position>
              <LatitudeDegrees>43.363520242273807525634765625</LatitudeDegrees>
              <LongitudeDegrees>-4.0601132623851299285888671875</LongitudeDegrees>
            </Position>
            <AltitudeMeters>37</AltitudeMeters>
            <DistanceMeters>NAN</DistanceMeters>
          </Trackpoint>
          <Trackpoint>
            <Time>2022-07-14T12:48:19.000Z</Time>
            <Position>
              <LatitudeDegrees>43.36359023116528987884521484375</LatitudeDegrees>
              <LongitudeDegrees>-4.0598604641854763031005859375</LongitudeDegrees>
            </Position>
            <AltitudeMeters>36.200000762939453125</AltitudeMeters>
            <DistanceMeters>NAN</DistanceMeters>
          </Trackpoint>
          <Trackpoint>
            <Time>2022-07-14T12:48:22.000Z</Time>
            <Position>
              <LatitudeDegrees>43.3636196516454219818115234375</LatitudeDegrees>
              <LongitudeDegrees>-4.0597178041934967041015625</LongitudeDegrees>
            </Position>
            <AltitudeMeters>36</AltitudeMeters>
            <DistanceMeters>NAN</DistanceMeters>
          </Trackpoint>
          <Trackpoint>
            <Time>2022-07-14T12:48:29.000Z</Time>
            <Position>
              <LatitudeDegrees>43.3636937476694583892822265625</LatitudeDegrees>
              <LongitudeDegrees>-4.05941161327064037322998046875</LongitudeDegrees>
            </Position>
            <AltitudeMeters>35.59999847412109375</AltitudeMeters>
            <DistanceMeters>NAN</DistanceMeters>
          </Trackpoint>
          <Trackpoint>
            <Time>2022-07-14T12:48:38.000Z</Time>
            <Position>
              <LatitudeDegrees>43.36378150619566440582275390625</LatitudeDegrees>
              <LongitudeDegrees>-4.05900391750037670135498046875</LongitudeDegrees>
            </Position>
            <AltitudeMeters>36</AltitudeMeters>
            <DistanceMeters>NAN</DistanceMeters>
          </Trackpoint>
          <Trackpoint>
            <Time>2022-07-14T12:48:40.000Z</Time>
            <Position>
              <LatitudeDegrees>43.36380296386778354644775390625</LatitudeDegrees>
              <LongitudeDegrees>-4.05890618450939655303955078125</LongitudeDegrees>
            </Position>
            <AltitudeMeters>36</AltitudeMeters>
            <DistanceMeters>NAN</DistanceMeters>
          </Trackpoint>
          <Trackpoint>
            <Time>2022-07-14T12:48:48.000Z</Time>
            <Position>
              <LatitudeDegrees>43.3639089949429035186767578125</LatitudeDegrees>
              <LongitudeDegrees>-4.0584529750049114227294921875</LongitudeDegrees>
            </Position>
            <AltitudeMeters>35.799999237060546875</AltitudeMeters>
            <DistanceMeters>NAN</DistanceMeters>
          </Trackpoint>
          <Trackpoint>
            <Time>2022-07-14T12:48:55.000Z</Time>
            <Position>
              <LatitudeDegrees>43.36398250423371791839599609375</LatitudeDegrees>
              <LongitudeDegrees>-4.05807117931544780731201171875</LongitudeDegrees>
            </Position>
            <AltitudeMeters>36</AltitudeMeters>
            <DistanceMeters>NAN</DistanceMeters>
          </Trackpoint>
          <Trackpoint>
            <Time>2022-07-14T12:48:56.000Z</Time>
            <Position>
              <LatitudeDegrees>43.3639938198029994964599609375</LatitudeDegrees>
              <LongitudeDegrees>-4.05801502056419849395751953125</LongitudeDegrees>
            </Position>
            <AltitudeMeters>36</AltitudeMeters>
            <DistanceMeters>NAN</DistanceMeters>
          </Trackpoint>
          <Trackpoint>
            <Time>2022-07-14T12:48:57.000Z</Time>
            <Position>
              <LatitudeDegrees>43.3640115894377231597900390625</LatitudeDegrees>
              <LongitudeDegrees>-4.0579503960907459259033203125</LongitudeDegrees>
            </Position>
            <AltitudeMeters>35.799999237060546875</AltitudeMeters>
            <DistanceMeters>NAN</DistanceMeters>
          </Trackpoint>
          <Trackpoint>
            <Time>2022-07-14T12:48:58.000Z</Time>
            <Position>
              <LatitudeDegrees>43.36402592249214649200439453125</LatitudeDegrees>
              <LongitudeDegrees>-4.0578965842723846435546875</LongitudeDegrees>
            </Position>
            <AltitudeMeters>35.799999237060546875</AltitudeMeters>
            <DistanceMeters>NAN</DistanceMeters>
          </Trackpoint>
          <Trackpoint>
            <Time>2022-07-14T12:49:05.000Z</Time>
            <Position>
              <LatitudeDegrees>43.3641165308654308319091796875</LatitudeDegrees>
              <LongitudeDegrees>-4.0574964322149753570556640625</LongitudeDegrees>
            </Position>
            <AltitudeMeters>35.40000152587890625</AltitudeMeters>
            <DistanceMeters>NAN</DistanceMeters>
          </Trackpoint>
          <Trackpoint>
            <Time>2022-07-14T12:49:11.000Z</Time>
            <Position>
              <LatitudeDegrees>43.36419188417494297027587890625</LatitudeDegrees>
              <LongitudeDegrees>-4.05715906061232089996337890625</LongitudeDegrees>
            </Position>
            <AltitudeMeters>35.200000762939453125</AltitudeMeters>
            <DistanceMeters>NAN</DistanceMeters>
          </Trackpoint>
          <Trackpoint>
            <Time>2022-07-14T12:49:13.000Z</Time>
            <Position>
              <LatitudeDegrees>43.36421166546642780303955078125</LatitudeDegrees>
              <LongitudeDegrees>-4.057037942111492156982421875</LongitudeDegrees>
            </Position>
            <AltitudeMeters>35</AltitudeMeters>
            <DistanceMeters>NAN</DistanceMeters>
          </Trackpoint>
          <Trackpoint>
            <Time>2022-07-14T12:49:17.000Z</Time>
            <Position>
              <LatitudeDegrees>43.36424703709781169891357421875</LatitudeDegrees>
              <LongitudeDegrees>-4.05680769123136997222900390625</LongitudeDegrees>
            </Position>
            <AltitudeMeters>34.59999847412109375</AltitudeMeters>
            <DistanceMeters>NAN</DistanceMeters>
          </Trackpoint>
          <Trackpoint>
            <Time>2022-07-14T12:49:19.000Z</Time>
            <Position>
              <LatitudeDegrees>43.364277295768260955810546875</LatitudeDegrees>
              <LongitudeDegrees>-4.05669788829982280731201171875</LongitudeDegrees>
            </Position>
            <AltitudeMeters>34.59999847412109375</AltitudeMeters>
            <DistanceMeters>NAN</DistanceMeters>
          </Trackpoint>
          <Trackpoint>
            <Time>2022-07-14T12:49:23.000Z</Time>
            <Position>
              <LatitudeDegrees>43.364346027374267578125</LatitudeDegrees>
              <LongitudeDegrees>-4.05646235682070255279541015625</LongitudeDegrees>
            </Position>
            <AltitudeMeters>34.59999847412109375</AltitudeMeters>
            <DistanceMeters>NAN</DistanceMeters>
          </Trackpoint>
          <Trackpoint>
            <Time>2022-07-14T12:49:26.000Z</Time>
            <Position>
              <LatitudeDegrees>43.364407382905483245849609375</LatitudeDegrees>
              <LongitudeDegrees>-4.056298993527889251708984375</LongitudeDegrees>
            </Position>
            <AltitudeMeters>34.40000152587890625</AltitudeMeters>
            <DistanceMeters>NAN</DistanceMeters>
          </Trackpoint>
          <Trackpoint>
            <Time>2022-07-14T12:49:29.000Z</Time>
            <Position>
              <LatitudeDegrees>43.3644843287765979766845703125</LatitudeDegrees>
              <LongitudeDegrees>-4.05613839626312255859375</LongitudeDegrees>
            </Position>
            <AltitudeMeters>34.40000152587890625</AltitudeMeters>
            <DistanceMeters>NAN</DistanceMeters>
          </Trackpoint>
          <Trackpoint>
            <Time>2022-07-14T12:49:33.000Z</Time>
            <Position>
              <LatitudeDegrees>43.36457468569278717041015625</LatitudeDegrees>
              <LongitudeDegrees>-4.05594485811889171600341796875</LongitudeDegrees>
            </Position>
            <AltitudeMeters>34.40000152587890625</AltitudeMeters>
            <DistanceMeters>NAN</DistanceMeters>
          </Trackpoint>
          <Trackpoint>
            <Time>2022-07-14T12:49:37.000Z</Time>
            <Position>
              <LatitudeDegrees>43.36465825326740741729736328125</LatitudeDegrees>
              <LongitudeDegrees>-4.0557345561683177947998046875</LongitudeDegrees>
            </Position>
            <AltitudeMeters>34.200000762939453125</AltitudeMeters>
            <DistanceMeters>NAN</DistanceMeters>
          </Trackpoint>
          <Trackpoint>
            <Time>2022-07-14T12:49:38.000Z</Time>
            <Position>
              <LatitudeDegrees>43.36467551998794078826904296875</LatitudeDegrees>
              <LongitudeDegrees>-4.05567764304578304290771484375</LongitudeDegrees>
            </Position>
            <AltitudeMeters>34</AltitudeMeters>
            <DistanceMeters>NAN</DistanceMeters>
          </Trackpoint>
          <Trackpoint>
            <Time>2022-07-14T12:49:39.000Z</Time>
            <Position>
              <LatitudeDegrees>43.36468842811882495880126953125</LatitudeDegrees>
              <LongitudeDegrees>-4.0556180477142333984375</LongitudeDegrees>
            </Position>
            <AltitudeMeters>34</AltitudeMeters>
            <DistanceMeters>NAN</DistanceMeters>
          </Trackpoint>
          <Trackpoint>
            <Time>2022-07-14T12:49:40.000Z</Time>
            <Position>
              <LatitudeDegrees>43.3646948821842670440673828125</LatitudeDegrees>
              <LongitudeDegrees>-4.05555744655430316925048828125</LongitudeDegrees>
            </Position>
            <AltitudeMeters>33.799999237060546875</AltitudeMeters>
            <DistanceMeters>NAN</DistanceMeters>
          </Trackpoint>
          <Trackpoint>
            <Time>2022-07-14T12:49:43.000Z</Time>
            <Position>
              <LatitudeDegrees>43.364712484180927276611328125</LatitudeDegrees>
              <LongitudeDegrees>-4.055407829582691192626953125</LongitudeDegrees>
            </Position>
            <AltitudeMeters>33.200000762939453125</AltitudeMeters>
            <DistanceMeters>NAN</DistanceMeters>
          </Trackpoint>
          <Trackpoint>
            <Time>2022-07-14T12:49:45.000Z</Time>
            <Position>
              <LatitudeDegrees>43.36474374867975711822509765625</LatitudeDegrees>
              <LongitudeDegrees>-4.0553241781890392303466796875</LongitudeDegrees>
            </Position>
            <AltitudeMeters>33</AltitudeMeters>
            <DistanceMeters>NAN</DistanceMeters>
          </Trackpoint>
          <Trackpoint>
            <Time>2022-07-14T12:49:47.000Z</Time>
            <Position>
              <LatitudeDegrees>43.36479320190846920013427734375</LatitudeDegrees>
              <LongitudeDegrees>-4.05526441521942615509033203125</LongitudeDegrees>
            </Position>
            <AltitudeMeters>33</AltitudeMeters>
            <DistanceMeters>NAN</DistanceMeters>
          </Trackpoint>
          <Trackpoint>
            <Time>2022-07-14T12:49:50.000Z</Time>
            <Position>
              <LatitudeDegrees>43.3648802898824214935302734375</LatitudeDegrees>
              <LongitudeDegrees>-4.05517213046550750732421875</LongitudeDegrees>
            </Position>
            <AltitudeMeters>33</AltitudeMeters>
            <DistanceMeters>NAN</DistanceMeters>
          </Trackpoint>
          <Trackpoint>
            <Time>2022-07-14T12:49:54.000Z</Time>
            <Position>
              <LatitudeDegrees>43.3649808727204799652099609375</LatitudeDegrees>
              <LongitudeDegrees>-4.05504816211760044097900390625</LongitudeDegrees>
            </Position>
            <AltitudeMeters>33</AltitudeMeters>
            <DistanceMeters>NAN</DistanceMeters>
          </Trackpoint>
          <Trackpoint>
            <Time>2022-07-14T12:50:00.000Z</Time>
            <Position>
              <LatitudeDegrees>43.365147002041339874267578125</LatitudeDegrees>
              <LongitudeDegrees>-4.0548745729029178619384765625</LongitudeDegrees>
            </Position>
            <AltitudeMeters>33</AltitudeMeters>
            <DistanceMeters>NAN</DistanceMeters>
          </Trackpoint>
          <Trackpoint>
            <Time>2022-07-14T12:50:04.000Z</Time>
            <Position>
              <LatitudeDegrees>43.36525303311645984649658203125</LatitudeDegrees>
              <LongitudeDegrees>-4.05476435087621212005615234375</LongitudeDegrees>
            </Position>
            <AltitudeMeters>33.200000762939453125</AltitudeMeters>
            <DistanceMeters>NAN</DistanceMeters>
          </Trackpoint>
          <Trackpoint>
            <Time>2022-07-14T12:50:09.000Z</Time>
            <Position>
              <LatitudeDegrees>43.36539745330810546875</LatitudeDegrees>
              <LongitudeDegrees>-4.05462873168289661407470703125</LongitudeDegrees>
            </Position>
            <AltitudeMeters>33.200000762939453125</AltitudeMeters>
            <DistanceMeters>NAN</DistanceMeters>
          </Trackpoint>
          <Trackpoint>
            <Time>2022-07-14T12:50:19.000Z</Time>
            <Position>
              <LatitudeDegrees>43.36569408886134624481201171875</LatitudeDegrees>
              <LongitudeDegrees>-4.05433167703449726104736328125</LongitudeDegrees>
            </Position>
            <AltitudeMeters>33</AltitudeMeters>
            <DistanceMeters>NAN</DistanceMeters>
          </Trackpoint>
          <Trackpoint>
            <Time>2022-07-14T12:50:25.000Z</Time>
            <Position>
              <LatitudeDegrees>43.36582182906568050384521484375</LatitudeDegrees>
              <LongitudeDegrees>-4.05409924685955047607421875</LongitudeDegrees>
            </Position>
            <AltitudeMeters>32.799999237060546875</AltitudeMeters>
            <DistanceMeters>NAN</DistanceMeters>
          </Trackpoint>
          <Trackpoint>
            <Time>2022-07-14T12:50:33.000Z</Time>
            <Position>
              <LatitudeDegrees>43.36602198891341686248779296875</LatitudeDegrees>
              <LongitudeDegrees>-4.05383613891899585723876953125</LongitudeDegrees>
            </Position>
            <AltitudeMeters>33</AltitudeMeters>
            <DistanceMeters>NAN</DistanceMeters>
          </Trackpoint>
          <Trackpoint>
            <Time>2022-07-14T12:50:42.000Z</Time>
            <Position>
              <LatitudeDegrees>43.36626104079186916351318359375</LatitudeDegrees>
              <LongitudeDegrees>-4.0535441972315311431884765625</LongitudeDegrees>
            </Position>
            <AltitudeMeters>33.200000762939453125</AltitudeMeters>
            <DistanceMeters>NAN</DistanceMeters>
          </Trackpoint>
          <Trackpoint>
            <Time>2022-07-14T12:50:51.000Z</Time>
            <Position>
              <LatitudeDegrees>43.366467319428920745849609375</LatitudeDegrees>
              <LongitudeDegrees>-4.05321503989398479461669921875</LongitudeDegrees>
            </Position>
            <AltitudeMeters>32.200000762939453125</AltitudeMeters>
            <DistanceMeters>NAN</DistanceMeters>
          </Trackpoint>
          <Trackpoint>
            <Time>2022-07-14T12:50:53.000Z</Time>
            <Position>
              <LatitudeDegrees>43.36652792058885097503662109375</LatitudeDegrees>
              <LongitudeDegrees>-4.05307942070066928863525390625</LongitudeDegrees>
            </Position>
            <AltitudeMeters>31.799999237060546875</AltitudeMeters>
            <DistanceMeters>NAN</DistanceMeters>
          </Trackpoint>
          <Trackpoint>
            <Time>2022-07-14T12:50:55.000Z</Time>
            <Position>
              <LatitudeDegrees>43.36660034023225307464599609375</LatitudeDegrees>
              <LongitudeDegrees>-4.052901305258274078369140625</LongitudeDegrees>
            </Position>
            <AltitudeMeters>31.6000003814697265625</AltitudeMeters>
            <DistanceMeters>NAN</DistanceMeters>
          </Trackpoint>
          <Trackpoint>
            <Time>2022-07-14T12:50:59.000Z</Time>
            <Position>
              <LatitudeDegrees>43.3667122386395931243896484375</LatitudeDegrees>
              <LongitudeDegrees>-4.052614308893680572509765625</LongitudeDegrees>
            </Position>
            <AltitudeMeters>30.3999996185302734375</AltitudeMeters>
            <DistanceMeters>NAN</DistanceMeters>
          </Trackpoint>
          <Trackpoint>
            <Time>2022-07-14T12:51:00.000Z</Time>
            <Position>
              <LatitudeDegrees>43.36674132384359836578369140625</LatitudeDegrees>
              <LongitudeDegrees>-4.0525504387915134429931640625</LongitudeDegrees>
            </Position>
            <AltitudeMeters>30</AltitudeMeters>
            <DistanceMeters>NAN</DistanceMeters>
          </Trackpoint>
          <Trackpoint>
            <Time>2022-07-14T12:51:01.000Z</Time>
            <Position>
              <LatitudeDegrees>43.36677820421755313873291015625</LatitudeDegrees>
              <LongitudeDegrees>-4.05249260365962982177734375</LongitudeDegrees>
            </Position>
            <AltitudeMeters>29.799999237060546875</AltitudeMeters>
            <DistanceMeters>NAN</DistanceMeters>
          </Trackpoint>
          <Trackpoint>
            <Time>2022-07-14T12:51:03.000Z</Time>
            <Position>
              <LatitudeDegrees>43.3668621070683002471923828125</LatitudeDegrees>
              <LongitudeDegrees>-4.05240383930504322052001953125</LongitudeDegrees>
            </Position>
            <AltitudeMeters>29.200000762939453125</AltitudeMeters>
            <DistanceMeters>NAN</DistanceMeters>
          </Trackpoint>
          <Trackpoint>
            <Time>2022-07-14T12:51:06.000Z</Time>
            <Position>
              <LatitudeDegrees>43.36699135601520538330078125</LatitudeDegrees>
              <LongitudeDegrees>-4.0522842295467853546142578125</LongitudeDegrees>
            </Position>
            <AltitudeMeters>29.200000762939453125</AltitudeMeters>
            <DistanceMeters>NAN</DistanceMeters>
          </Trackpoint>
          <Trackpoint>
            <Time>2022-07-14T12:51:09.000Z</Time>
            <Position>
              <LatitudeDegrees>43.3671154081821441650390625</LatitudeDegrees>
              <LongitudeDegrees>-4.05219512991607189178466796875</LongitudeDegrees>
            </Position>
            <AltitudeMeters>29</AltitudeMeters>
            <DistanceMeters>NAN</DistanceMeters>
          </Trackpoint>
          <Trackpoint>
            <Time>2022-07-14T12:51:12.000Z</Time>
            <Position>
              <LatitudeDegrees>43.36724893189966678619384765625</LatitudeDegrees>
              <LongitudeDegrees>-4.05214785598218441009521484375</LongitudeDegrees>
            </Position>
            <AltitudeMeters>29</AltitudeMeters>
            <DistanceMeters>NAN</DistanceMeters>
          </Trackpoint>
          <Trackpoint>
            <Time>2022-07-14T12:51:18.000Z</Time>
            <Position>
              <LatitudeDegrees>43.367437608540058135986328125</LatitudeDegrees>
              <LongitudeDegrees>-4.0519499592483043670654296875</LongitudeDegrees>
            </Position>
            <AltitudeMeters>28.3999996185302734375</AltitudeMeters>
            <DistanceMeters>NAN</DistanceMeters>
          </Trackpoint>
          <Trackpoint>
            <Time>2022-07-14T12:51:25.000Z</Time>
            <Position>
              <LatitudeDegrees>43.36759728379547595977783203125</LatitudeDegrees>
              <LongitudeDegrees>-4.05164561234414577484130859375</LongitudeDegrees>
            </Position>
            <AltitudeMeters>28.200000762939453125</AltitudeMeters>
            <DistanceMeters>NAN</DistanceMeters>
          </Trackpoint>
          <Trackpoint>
            <Time>2022-07-14T12:51:27.000Z</Time>
            <Position>
              <LatitudeDegrees>43.3676491677761077880859375</LatitudeDegrees>
              <LongitudeDegrees>-4.05154150910675525665283203125</LongitudeDegrees>
            </Position>
            <AltitudeMeters>28.200000762939453125</AltitudeMeters>
            <DistanceMeters>NAN</DistanceMeters>
          </Trackpoint>
          <Trackpoint>
            <Time>2022-07-14T12:51:30.000Z</Time>
            <Position>
              <LatitudeDegrees>43.3677100203931331634521484375</LatitudeDegrees>
              <LongitudeDegrees>-4.05138242058455944061279296875</LongitudeDegrees>
            </Position>
            <AltitudeMeters>28</AltitudeMeters>
            <DistanceMeters>NAN</DistanceMeters>
          </Trackpoint>
          <Trackpoint>
            <Time>2022-07-14T12:51:34.000Z</Time>
            <Position>
              <LatitudeDegrees>43.36779409088194370269775390625</LatitudeDegrees>
              <LongitudeDegrees>-4.05117790214717388153076171875</LongitudeDegrees>
            </Position>
            <AltitudeMeters>27.799999237060546875</AltitudeMeters>
            <DistanceMeters>NAN</DistanceMeters>
          </Trackpoint>
          <Trackpoint>
            <Time>2022-07-14T12:51:43.000Z</Time>
            <Position>
              <LatitudeDegrees>43.36792350746691226959228515625</LatitudeDegrees>
              <LongitudeDegrees>-4.050710611045360565185546875</LongitudeDegrees>
            </Position>
            <AltitudeMeters>27.200000762939453125</AltitudeMeters>
            <DistanceMeters>NAN</DistanceMeters>
          </Trackpoint>
          <Trackpoint>
            <Time>2022-07-14T12:51:49.000Z</Time>
            <Position>
              <LatitudeDegrees>43.3680110983550548553466796875</LatitudeDegrees>
              <LongitudeDegrees>-4.0503989718854427337646484375</LongitudeDegrees>
            </Position>
            <AltitudeMeters>27.200000762939453125</AltitudeMeters>
            <DistanceMeters>NAN</DistanceMeters>
          </Trackpoint>
          <Trackpoint>
            <Time>2022-07-14T12:51:53.000Z</Time>
            <Position>
              <LatitudeDegrees>43.3681586198508739471435546875</LatitudeDegrees>
              <LongitudeDegrees>-4.05036686919629573822021484375</LongitudeDegrees>
            </Position>
            <AltitudeMeters>27.799999237060546875</AltitudeMeters>
            <DistanceMeters>NAN</DistanceMeters>
          </Trackpoint>
          <Trackpoint>
            <Time>2022-07-14T12:52:01.000Z</Time>
            <Position>
              <LatitudeDegrees>43.36849833838641643524169921875</LatitudeDegrees>
              <LongitudeDegrees>-4.050347506999969482421875</LongitudeDegrees>
            </Position>
            <AltitudeMeters>27.6000003814697265625</AltitudeMeters>
            <DistanceMeters>NAN</DistanceMeters>
          </Trackpoint>
          <Trackpoint>
            <Time>2022-07-14T12:52:09.000Z</Time>
            <Position>
              <LatitudeDegrees>43.368831686675548553466796875</LatitudeDegrees>
              <LongitudeDegrees>-4.05031875707209110260009765625</LongitudeDegrees>
            </Position>
            <AltitudeMeters>27.6000003814697265625</AltitudeMeters>
            <DistanceMeters>NAN</DistanceMeters>
          </Trackpoint>
          <Trackpoint>
            <Time>2022-07-14T12:52:10.000Z</Time>
            <Position>
              <LatitudeDegrees>43.3688683994114398956298828125</LatitudeDegrees>
              <LongitudeDegrees>-4.05032261274755001068115234375</LongitudeDegrees>
            </Position>
            <AltitudeMeters>27.3999996185302734375</AltitudeMeters>
            <DistanceMeters>NAN</DistanceMeters>
          </Trackpoint>
          <Trackpoint>
            <Time>2022-07-14T12:52:19.000Z</Time>
            <Position>
              <LatitudeDegrees>43.36922471411526203155517578125</LatitudeDegrees>
              <LongitudeDegrees>-4.05040408484637737274169921875</LongitudeDegrees>
            </Position>
            <AltitudeMeters>27</AltitudeMeters>
            <DistanceMeters>NAN</DistanceMeters>
          </Trackpoint>
          <Trackpoint>
            <Time>2022-07-14T12:52:28.000Z</Time>
            <Position>
              <LatitudeDegrees>43.36957968771457672119140625</LatitudeDegrees>
              <LongitudeDegrees>-4.0504998899996280670166015625</LongitudeDegrees>
            </Position>
            <AltitudeMeters>27</AltitudeMeters>
            <DistanceMeters>NAN</DistanceMeters>
          </Trackpoint>
          <Trackpoint>
            <Time>2022-07-14T12:52:34.000Z</Time>
            <Position>
              <LatitudeDegrees>43.36981060914695262908935546875</LatitudeDegrees>
              <LongitudeDegrees>-4.05052109621465206146240234375</LongitudeDegrees>
            </Position>
            <AltitudeMeters>27</AltitudeMeters>
            <DistanceMeters>NAN</DistanceMeters>
          </Trackpoint>
          <Trackpoint>
            <Time>2022-07-14T12:52:35.000Z</Time>
            <Position>
              <LatitudeDegrees>43.36985134519636631011962890625</LatitudeDegrees>
              <LongitudeDegrees>-4.050519503653049468994140625</LongitudeDegrees>
            </Position>
            <AltitudeMeters>27</AltitudeMeters>
            <DistanceMeters>NAN</DistanceMeters>
          </Trackpoint>
          <Trackpoint>
            <Time>2022-07-14T12:52:37.000Z</Time>
            <Position>
              <LatitudeDegrees>43.3699241839349269866943359375</LatitudeDegrees>
              <LongitudeDegrees>-4.0505216829478740692138671875</LongitudeDegrees>
            </Position>
            <AltitudeMeters>26.799999237060546875</AltitudeMeters>
            <DistanceMeters>NAN</DistanceMeters>
          </Trackpoint>
          <Trackpoint>
            <Time>2022-07-14T12:52:40.000Z</Time>
            <Position>
              <LatitudeDegrees>43.3700482361018657684326171875</LatitudeDegrees>
              <LongitudeDegrees>-4.05053132213652133941650390625</LongitudeDegrees>
            </Position>
            <AltitudeMeters>26.799999237060546875</AltitudeMeters>
            <DistanceMeters>NAN</DistanceMeters>
          </Trackpoint>
          <Trackpoint>
            <Time>2022-07-14T12:52:45.000Z</Time>
            <Position>
              <LatitudeDegrees>43.37024060077965259552001953125</LatitudeDegrees>
              <LongitudeDegrees>-4.05059301294386386871337890625</LongitudeDegrees>
            </Position>
            <AltitudeMeters>26.799999237060546875</AltitudeMeters>
            <DistanceMeters>NAN</DistanceMeters>
          </Trackpoint>
          <Trackpoint>
            <Time>2022-07-14T12:52:55.000Z</Time>
            <Position>
              <LatitudeDegrees>43.37060504592955112457275390625</LatitudeDegrees>
              <LongitudeDegrees>-4.05072008259594440460205078125</LongitudeDegrees>
            </Position>
            <AltitudeMeters>26.6000003814697265625</AltitudeMeters>
            <DistanceMeters>NAN</DistanceMeters>
          </Trackpoint>
          <Trackpoint>
            <Time>2022-07-14T12:53:03.000Z</Time>
            <Position>
              <LatitudeDegrees>43.370894305408000946044921875</LatitudeDegrees>
              <LongitudeDegrees>-4.05072410590946674346923828125</LongitudeDegrees>
            </Position>
            <AltitudeMeters>26.6000003814697265625</AltitudeMeters>
            <DistanceMeters>NAN</DistanceMeters>
          </Trackpoint>
          <Trackpoint>
            <Time>2022-07-14T12:53:13.000Z</Time>
            <Position>
              <LatitudeDegrees>43.3713014982640743255615234375</LatitudeDegrees>
              <LongitudeDegrees>-4.0507496707141399383544921875</LongitudeDegrees>
            </Position>
            <AltitudeMeters>26.200000762939453125</AltitudeMeters>
            <DistanceMeters>NAN</DistanceMeters>
          </Trackpoint>
          <Trackpoint>
            <Time>2022-07-14T12:53:16.000Z</Time>
            <Position>
              <LatitudeDegrees>43.37141658179461956024169921875</LatitudeDegrees>
              <LongitudeDegrees>-4.0507503412663936614990234375</LongitudeDegrees>
            </Position>
            <AltitudeMeters>26</AltitudeMeters>
            <DistanceMeters>NAN</DistanceMeters>
          </Trackpoint>
          <Trackpoint>
            <Time>2022-07-14T12:53:20.000Z</Time>
            <Position>
              <LatitudeDegrees>43.37157147936522960662841796875</LatitudeDegrees>
              <LongitudeDegrees>-4.0507838688790798187255859375</LongitudeDegrees>
            </Position>
            <AltitudeMeters>26</AltitudeMeters>
            <DistanceMeters>NAN</DistanceMeters>
          </Trackpoint>
          <Trackpoint>
            <Time>2022-07-14T12:53:26.000Z</Time>
            <Position>
              <LatitudeDegrees>43.37183475494384765625</LatitudeDegrees>
              <LongitudeDegrees>-4.05077389441430568695068359375</LongitudeDegrees>
            </Position>
            <AltitudeMeters>26.200000762939453125</AltitudeMeters>
            <DistanceMeters>NAN</DistanceMeters>
          </Trackpoint>
          <Trackpoint>
            <Time>2022-07-14T12:53:27.000Z</Time>
            <Position>
              <LatitudeDegrees>43.37188613601028919219970703125</LatitudeDegrees>
              <LongitudeDegrees>-4.05076601542532444000244140625</LongitudeDegrees>
            </Position>
            <AltitudeMeters>26.200000762939453125</AltitudeMeters>
            <DistanceMeters>NAN</DistanceMeters>
          </Trackpoint>
          <Trackpoint>
            <Time>2022-07-14T12:53:37.000Z</Time>
            <Position>
              <LatitudeDegrees>43.3722919039428234100341796875</LatitudeDegrees>
              <LongitudeDegrees>-4.05072377063333988189697265625</LongitudeDegrees>
            </Position>
            <AltitudeMeters>26</AltitudeMeters>
            <DistanceMeters>NAN</DistanceMeters>
          </Trackpoint>
          <Trackpoint>
            <Time>2022-07-14T12:53:47.000Z</Time>
            <Position>
              <LatitudeDegrees>43.372657187283039093017578125</LatitudeDegrees>
              <LongitudeDegrees>-4.05070650391280651092529296875</LongitudeDegrees>
            </Position>
            <AltitudeMeters>25.799999237060546875</AltitudeMeters>
            <DistanceMeters>NAN</DistanceMeters>
          </Trackpoint>
          <Trackpoint>
            <Time>2022-07-14T12:53:54.000Z</Time>
            <Position>
              <LatitudeDegrees>43.37290353141725063323974609375</LatitudeDegrees>
              <LongitudeDegrees>-4.05068487860262393951416015625</LongitudeDegrees>
            </Position>
            <AltitudeMeters>26</AltitudeMeters>
            <DistanceMeters>NAN</DistanceMeters>
          </Trackpoint>
          <Trackpoint>
            <Time>2022-07-14T12:53:57.000Z</Time>
            <Position>
              <LatitudeDegrees>43.37299087084829807281494140625</LatitudeDegrees>
              <LongitudeDegrees>-4.05066157691180706024169921875</LongitudeDegrees>
            </Position>
            <AltitudeMeters>25.799999237060546875</AltitudeMeters>
            <DistanceMeters>NAN</DistanceMeters>
          </Trackpoint>
          <Trackpoint>
            <Time>2022-07-14T12:54:00.000Z</Time>
            <Position>
              <LatitudeDegrees>43.372996486723423004150390625</LatitudeDegrees>
              <LongitudeDegrees>-4.05065805651247501373291015625</LongitudeDegrees>
            </Position>
            <AltitudeMeters>25.200000762939453125</AltitudeMeters>
            <DistanceMeters>NAN</DistanceMeters>
          </Trackpoint>
          <Trackpoint>
            <Time>2022-07-14T12:54:01.000Z</Time>
            <Position>
              <LatitudeDegrees>43.372996486723423004150390625</LatitudeDegrees>
              <LongitudeDegrees>-4.05065805651247501373291015625</LongitudeDegrees>
            </Position>
            <AltitudeMeters>25.200000762939453125</AltitudeMeters>
            <DistanceMeters>NAN</DistanceMeters>
          </Trackpoint>
          <Trackpoint>
            <Time>2022-07-14T12:55:19.000Z</Time>
            <Position>
              <LatitudeDegrees>43.37304417975246906280517578125</LatitudeDegrees>
              <LongitudeDegrees>-4.05064397491514682769775390625</LongitudeDegrees>
            </Position>
            <AltitudeMeters>25</AltitudeMeters>
            <DistanceMeters>NAN</DistanceMeters>
          </Trackpoint>
          <Trackpoint>
            <Time>2022-07-14T12:55:21.000Z</Time>
            <Position>
              <LatitudeDegrees>43.37309313006699085235595703125</LatitudeDegrees>
              <LongitudeDegrees>-4.0506236068904399871826171875</LongitudeDegrees>
            </Position>
            <AltitudeMeters>25.799999237060546875</AltitudeMeters>
            <DistanceMeters>NAN</DistanceMeters>
          </Trackpoint>
          <Trackpoint>
            <Time>2022-07-14T12:55:22.000Z</Time>
            <Position>
              <LatitudeDegrees>43.3731262385845184326171875</LatitudeDegrees>
              <LongitudeDegrees>-4.05060508288443088531494140625</LongitudeDegrees>
            </Position>
            <AltitudeMeters>26.200000762939453125</AltitudeMeters>
            <DistanceMeters>NAN</DistanceMeters>
          </Trackpoint>
          <Trackpoint>
            <Time>2022-07-14T12:55:27.000Z</Time>
            <Position>
              <LatitudeDegrees>43.3732890151441097259521484375</LatitudeDegrees>
              <LongitudeDegrees>-4.0505407936871051788330078125</LongitudeDegrees>
            </Position>
            <AltitudeMeters>26.799999237060546875</AltitudeMeters>
            <DistanceMeters>NAN</DistanceMeters>
          </Trackpoint>
          <Trackpoint>
            <Time>2022-07-14T12:55:33.000Z</Time>
            <Position>
              <LatitudeDegrees>43.373476602137088775634765625</LatitudeDegrees>
              <LongitudeDegrees>-4.0504668653011322021484375</LongitudeDegrees>
            </Position>
            <AltitudeMeters>27</AltitudeMeters>
            <DistanceMeters>NAN</DistanceMeters>
          </Trackpoint>
          <Trackpoint>
            <Time>2022-07-14T12:55:36.000Z</Time>
            <Position>
              <LatitudeDegrees>43.3735589124262332916259765625</LatitudeDegrees>
              <LongitudeDegrees>-4.05042864382266998291015625</LongitudeDegrees>
            </Position>
            <AltitudeMeters>27.200000762939453125</AltitudeMeters>
            <DistanceMeters>NAN</DistanceMeters>
          </Trackpoint>
          <Trackpoint>
            <Time>2022-07-14T12:55:48.000Z</Time>
            <Position>
              <LatitudeDegrees>43.3739246986806392669677734375</LatitudeDegrees>
              <LongitudeDegrees>-4.05023745261132717132568359375</LongitudeDegrees>
            </Position>
            <AltitudeMeters>27</AltitudeMeters>
            <DistanceMeters>NAN</DistanceMeters>
          </Trackpoint>
          <Trackpoint>
            <Time>2022-07-14T12:56:00.000Z</Time>
            <Position>
              <LatitudeDegrees>43.37429090403020381927490234375</LatitudeDegrees>
              <LongitudeDegrees>-4.0500175952911376953125</LongitudeDegrees>
            </Position>
            <AltitudeMeters>26.799999237060546875</AltitudeMeters>
            <DistanceMeters>NAN</DistanceMeters>
          </Trackpoint>
          <Trackpoint>
            <Time>2022-07-14T12:56:08.000Z</Time>
            <Position>
              <LatitudeDegrees>43.37455040775239467620849609375</LatitudeDegrees>
              <LongitudeDegrees>-4.0498445928096771240234375</LongitudeDegrees>
            </Position>
            <AltitudeMeters>27.200000762939453125</AltitudeMeters>
            <DistanceMeters>NAN</DistanceMeters>
          </Trackpoint>
          <Trackpoint>
            <Time>2022-07-14T12:56:12.000Z</Time>
            <Position>
              <LatitudeDegrees>43.3746787346899509429931640625</LatitudeDegrees>
              <LongitudeDegrees>-4.04974224977195262908935546875</LongitudeDegrees>
            </Position>
            <AltitudeMeters>27.200000762939453125</AltitudeMeters>
            <DistanceMeters>NAN</DistanceMeters>
          </Trackpoint>
          <Trackpoint>
            <Time>2022-07-14T12:56:20.000Z</Time>
            <Position>
              <LatitudeDegrees>43.3749301917850971221923828125</LatitudeDegrees>
              <LongitudeDegrees>-4.04953706078231334686279296875</LongitudeDegrees>
            </Position>
            <AltitudeMeters>26.6000003814697265625</AltitudeMeters>
            <DistanceMeters>NAN</DistanceMeters>
          </Trackpoint>
          <Trackpoint>
            <Time>2022-07-14T12:56:25.000Z</Time>
            <Position>
              <LatitudeDegrees>43.3750884421169757843017578125</LatitudeDegrees>
              <LongitudeDegrees>-4.04940865002572536468505859375</LongitudeDegrees>
            </Position>
            <AltitudeMeters>26.799999237060546875</AltitudeMeters>
            <DistanceMeters>NAN</DistanceMeters>
          </Trackpoint>
          <Trackpoint>
            <Time>2022-07-14T12:56:29.000Z</Time>
            <Position>
              <LatitudeDegrees>43.37522305548191070556640625</LatitudeDegrees>
              <LongitudeDegrees>-4.04927319847047328948974609375</LongitudeDegrees>
            </Position>
            <AltitudeMeters>26.799999237060546875</AltitudeMeters>
            <DistanceMeters>NAN</DistanceMeters>
          </Trackpoint>
          <Trackpoint>
            <Time>2022-07-14T12:56:31.000Z</Time>
            <Position>
              <LatitudeDegrees>43.37527812458574771881103515625</LatitudeDegrees>
              <LongitudeDegrees>-4.0492040477693080902099609375</LongitudeDegrees>
            </Position>
            <AltitudeMeters>26.799999237060546875</AltitudeMeters>
            <DistanceMeters>NAN</DistanceMeters>
          </Trackpoint>
          <Trackpoint>
            <Time>2022-07-14T12:56:39.000Z</Time>
            <Position>
              <LatitudeDegrees>43.37551650591194629669189453125</LatitudeDegrees>
              <LongitudeDegrees>-4.04885410331189632415771484375</LongitudeDegrees>
            </Position>
            <AltitudeMeters>26.6000003814697265625</AltitudeMeters>
            <DistanceMeters>NAN</DistanceMeters>
          </Trackpoint>
          <Trackpoint>
            <Time>2022-07-14T12:56:50.000Z</Time>
            <Position>
              <LatitudeDegrees>43.37578103877604007720947265625</LatitudeDegrees>
              <LongitudeDegrees>-4.0483722276985645294189453125</LongitudeDegrees>
            </Position>
            <AltitudeMeters>26.200000762939453125</AltitudeMeters>
            <DistanceMeters>NAN</DistanceMeters>
          </Trackpoint>
          <Trackpoint>
            <Time>2022-07-14T12:56:56.000Z</Time>
            <Position>
              <LatitudeDegrees>43.37593476288020610809326171875</LatitudeDegrees>
              <LongitudeDegrees>-4.0481549687683582305908203125</LongitudeDegrees>
            </Position>
            <AltitudeMeters>26</AltitudeMeters>
            <DistanceMeters>NAN</DistanceMeters>
          </Trackpoint>
          <Trackpoint>
            <Time>2022-07-14T12:57:00.000Z</Time>
            <Position>
              <LatitudeDegrees>43.37604758329689502716064453125</LatitudeDegrees>
              <LongitudeDegrees>-4.04800887219607830047607421875</LongitudeDegrees>
            </Position>
            <AltitudeMeters>26</AltitudeMeters>
            <DistanceMeters>NAN</DistanceMeters>
          </Trackpoint>
          <Trackpoint>
            <Time>2022-07-14T12:57:05.000Z</Time>
            <Position>
              <LatitudeDegrees>43.3761759102344512939453125</LatitudeDegrees>
              <LongitudeDegrees>-4.04784861020743846893310546875</LongitudeDegrees>
            </Position>
            <AltitudeMeters>26</AltitudeMeters>
            <DistanceMeters>NAN</DistanceMeters>
          </Trackpoint>
          <Trackpoint>
            <Time>2022-07-14T12:57:10.000Z</Time>
            <Position>
              <LatitudeDegrees>43.37630205787718296051025390625</LatitudeDegrees>
              <LongitudeDegrees>-4.04770553112030029296875</LongitudeDegrees>
            </Position>
            <AltitudeMeters>25.799999237060546875</AltitudeMeters>
            <DistanceMeters>NAN</DistanceMeters>
          </Trackpoint>
          <Trackpoint>
            <Time>2022-07-14T12:57:15.000Z</Time>
            <Position>
              <LatitudeDegrees>43.3764359168708324432373046875</LatitudeDegrees>
              <LongitudeDegrees>-4.04759648256003856658935546875</LongitudeDegrees>
            </Position>
            <AltitudeMeters>25.799999237060546875</AltitudeMeters>
            <DistanceMeters>NAN</DistanceMeters>
          </Trackpoint>
          <Trackpoint>
            <Time>2022-07-14T12:57:18.000Z</Time>
            <Position>
              <LatitudeDegrees>43.37651613168418407440185546875</LatitudeDegrees>
              <LongitudeDegrees>-4.0475464425981044769287109375</LongitudeDegrees>
            </Position>
            <AltitudeMeters>25.799999237060546875</AltitudeMeters>
            <DistanceMeters>NAN</DistanceMeters>
          </Trackpoint>
          <Trackpoint>
            <Time>2022-07-14T12:57:21.000Z</Time>
            <Position>
              <LatitudeDegrees>43.37659290991723537445068359375</LatitudeDegrees>
              <LongitudeDegrees>-4.0475070476531982421875</LongitudeDegrees>
            </Position>
            <AltitudeMeters>25.6000003814697265625</AltitudeMeters>
            <DistanceMeters>NAN</DistanceMeters>
          </Trackpoint>
          <Trackpoint>
            <Time>2022-07-14T12:57:24.000Z</Time>
            <Position>
              <LatitudeDegrees>43.37668209336698055267333984375</LatitudeDegrees>
              <LongitudeDegrees>-4.04747226275503635406494140625</LongitudeDegrees>
            </Position>
            <AltitudeMeters>25.3999996185302734375</AltitudeMeters>
            <DistanceMeters>NAN</DistanceMeters>
          </Trackpoint>
          <Trackpoint>
            <Time>2022-07-14T12:57:27.000Z</Time>
            <Position>
              <LatitudeDegrees>43.37678435258567333221435546875</LatitudeDegrees>
              <LongitudeDegrees>-4.0474277548491954803466796875</LongitudeDegrees>
            </Position>
            <AltitudeMeters>25.3999996185302734375</AltitudeMeters>
            <DistanceMeters>NAN</DistanceMeters>
          </Trackpoint>
          <Trackpoint>
            <Time>2022-07-14T12:57:32.000Z</Time>
            <Position>
              <LatitudeDegrees>43.37697344832122325897216796875</LatitudeDegrees>
              <LongitudeDegrees>-4.0473365597426891326904296875</LongitudeDegrees>
            </Position>
            <AltitudeMeters>25.6000003814697265625</AltitudeMeters>
            <DistanceMeters>NAN</DistanceMeters>
          </Trackpoint>
          <Trackpoint>
            <Time>2022-07-14T12:57:37.000Z</Time>
            <Position>
              <LatitudeDegrees>43.3771674893796443939208984375</LatitudeDegrees>
              <LongitudeDegrees>-4.0472359769046306610107421875</LongitudeDegrees>
            </Position>
            <AltitudeMeters>25.200000762939453125</AltitudeMeters>
            <DistanceMeters>NAN</DistanceMeters>
          </Trackpoint>
          <Trackpoint>
            <Time>2022-07-14T12:57:41.000Z</Time>
            <Position>
              <LatitudeDegrees>43.377328254282474517822265625</LatitudeDegrees>
              <LongitudeDegrees>-4.04714201577007770538330078125</LongitudeDegrees>
            </Position>
            <AltitudeMeters>24.799999237060546875</AltitudeMeters>
            <DistanceMeters>NAN</DistanceMeters>
          </Trackpoint>
          <Trackpoint>
            <Time>2022-07-14T12:57:43.000Z</Time>
            <Position>
              <LatitudeDegrees>43.3774072118103504180908203125</LatitudeDegrees>
              <LongitudeDegrees>-4.0470804087817668914794921875</LongitudeDegrees>
            </Position>
            <AltitudeMeters>24.799999237060546875</AltitudeMeters>
            <DistanceMeters>NAN</DistanceMeters>
          </Trackpoint>
          <Trackpoint>
            <Time>2022-07-14T12:57:46.000Z</Time>
            <Position>
              <LatitudeDegrees>43.3775071240961551666259765625</LatitudeDegrees>
              <LongitudeDegrees>-4.0469902195036411285400390625</LongitudeDegrees>
            </Position>
            <AltitudeMeters>24.6000003814697265625</AltitudeMeters>
            <DistanceMeters>NAN</DistanceMeters>
          </Trackpoint>
          <Trackpoint>
            <Time>2022-07-14T12:57:47.000Z</Time>
            <Position>
              <LatitudeDegrees>43.3775483630597591400146484375</LatitudeDegrees>
              <LongitudeDegrees>-4.0469585359096527099609375</LongitudeDegrees>
            </Position>
            <AltitudeMeters>24.6000003814697265625</AltitudeMeters>
            <DistanceMeters>NAN</DistanceMeters>
          </Trackpoint>
          <Trackpoint>
            <Time>2022-07-14T12:57:48.000Z</Time>
            <Position>
              <LatitudeDegrees>43.3775828965008258819580078125</LatitudeDegrees>
              <LongitudeDegrees>-4.04693850316107273101806640625</LongitudeDegrees>
            </Position>
            <AltitudeMeters>24.6000003814697265625</AltitudeMeters>
            <DistanceMeters>NAN</DistanceMeters>
          </Trackpoint>
          <Trackpoint>
            <Time>2022-07-14T12:57:49.000Z</Time>
            <Position>
              <LatitudeDegrees>43.37761885486543178558349609375</LatitudeDegrees>
              <LongitudeDegrees>-4.04692140407860279083251953125</LongitudeDegrees>
            </Position>
            <AltitudeMeters>24.3999996185302734375</AltitudeMeters>
            <DistanceMeters>NAN</DistanceMeters>
          </Trackpoint>
          <Trackpoint>
            <Time>2022-07-14T12:57:52.000Z</Time>
            <Position>
              <LatitudeDegrees>43.37772379629313945770263671875</LatitudeDegrees>
              <LongitudeDegrees>-4.046911261975765228271484375</LongitudeDegrees>
            </Position>
            <AltitudeMeters>24.6000003814697265625</AltitudeMeters>
            <DistanceMeters>NAN</DistanceMeters>
          </Trackpoint>
          <Trackpoint>
            <Time>2022-07-14T12:57:59.000Z</Time>
            <Position>
              <LatitudeDegrees>43.37791188620030879974365234375</LatitudeDegrees>
              <LongitudeDegrees>-4.04693766497075557708740234375</LongitudeDegrees>
            </Position>
            <AltitudeMeters>25.200000762939453125</AltitudeMeters>
            <DistanceMeters>NAN</DistanceMeters>
          </Trackpoint>
          <Trackpoint>
            <Time>2022-07-14T12:58:00.000Z</Time>
            <Position>
              <LatitudeDegrees>43.37792932055890560150146484375</LatitudeDegrees>
              <LongitudeDegrees>-4.046940766274929046630859375</LongitudeDegrees>
            </Position>
            <AltitudeMeters>25.200000762939453125</AltitudeMeters>
            <DistanceMeters>NAN</DistanceMeters>
          </Trackpoint>
          <Trackpoint>
            <Time>2022-07-14T12:58:01.000Z</Time>
            <Position>
              <LatitudeDegrees>43.3779446594417095184326171875</LatitudeDegrees>
              <LongitudeDegrees>-4.04694319702684879302978515625</LongitudeDegrees>
            </Position>
            <AltitudeMeters>25.200000762939453125</AltitudeMeters>
            <DistanceMeters>NAN</DistanceMeters>
          </Trackpoint>
          <Trackpoint>
            <Time>2022-07-14T12:58:07.000Z</Time>
            <Position>
              <LatitudeDegrees>43.37800894863903522491455078125</LatitudeDegrees>
              <LongitudeDegrees>-4.046936072409152984619140625</LongitudeDegrees>
            </Position>
            <AltitudeMeters>25.3999996185302734375</AltitudeMeters>
            <DistanceMeters>NAN</DistanceMeters>
          </Trackpoint>
          <Trackpoint>
            <Time>2022-07-14T12:58:09.000Z</Time>
            <Position>
              <LatitudeDegrees>43.37803225032985210418701171875</LatitudeDegrees>
              <LongitudeDegrees>-4.0469234995543956756591796875</LongitudeDegrees>
            </Position>
            <AltitudeMeters>25.6000003814697265625</AltitudeMeters>
            <DistanceMeters>NAN</DistanceMeters>
          </Trackpoint>
          <Trackpoint>
            <Time>2022-07-14T12:58:11.000Z</Time>
            <Position>
              <LatitudeDegrees>43.37804582901298999786376953125</LatitudeDegrees>
              <LongitudeDegrees>-4.0469194762408733367919921875</LongitudeDegrees>
            </Position>
            <AltitudeMeters>25.6000003814697265625</AltitudeMeters>
            <DistanceMeters>NAN</DistanceMeters>
          </Trackpoint>
          <Trackpoint>
            <Time>2022-07-14T12:58:14.000Z</Time>
            <Position>
              <LatitudeDegrees>43.37804582901298999786376953125</LatitudeDegrees>
              <LongitudeDegrees>-4.0469194762408733367919921875</LongitudeDegrees>
            </Position>
            <AltitudeMeters>25.6000003814697265625</AltitudeMeters>
            <DistanceMeters>NAN</DistanceMeters>
          </Trackpoint>
          <Trackpoint>
            <Time>2022-07-14T12:58:15.000Z</Time>
            <Position>
              <LatitudeDegrees>43.37804582901298999786376953125</LatitudeDegrees>
              <LongitudeDegrees>-4.0469194762408733367919921875</LongitudeDegrees>
            </Position>
            <AltitudeMeters>25.3999996185302734375</AltitudeMeters>
            <DistanceMeters>NAN</DistanceMeters>
          </Trackpoint>
          <Trackpoint>
            <Time>2022-07-14T12:58:33.000Z</Time>
            <Position>
              <LatitudeDegrees>43.37799520231783390045166015625</LatitudeDegrees>
              <LongitudeDegrees>-4.0469419397413730621337890625</LongitudeDegrees>
            </Position>
            <AltitudeMeters>25.3999996185302734375</AltitudeMeters>
            <DistanceMeters>NAN</DistanceMeters>
          </Trackpoint>
          <Trackpoint>
            <Time>2022-07-14T12:58:35.000Z</Time>
            <Position>
              <LatitudeDegrees>43.377960585057735443115234375</LatitudeDegrees>
              <LongitudeDegrees>-4.0469506569206714630126953125</LongitudeDegrees>
            </Position>
            <AltitudeMeters>25.6000003814697265625</AltitudeMeters>
            <DistanceMeters>NAN</DistanceMeters>
          </Trackpoint>
          <Trackpoint>
            <Time>2022-07-14T12:58:39.000Z</Time>
            <Position>
              <LatitudeDegrees>43.37787098251283168792724609375</LatitudeDegrees>
              <LongitudeDegrees>-4.0469697676599025726318359375</LongitudeDegrees>
            </Position>
            <AltitudeMeters>25.3999996185302734375</AltitudeMeters>
            <DistanceMeters>NAN</DistanceMeters>
          </Trackpoint>
          <Trackpoint>
            <Time>2022-07-14T12:58:44.000Z</Time>
            <Position>
              <LatitudeDegrees>43.37780158035457134246826171875</LatitudeDegrees>
              <LongitudeDegrees>-4.04711519367992877960205078125</LongitudeDegrees>
            </Position>
            <AltitudeMeters>25.200000762939453125</AltitudeMeters>
            <DistanceMeters>NAN</DistanceMeters>
          </Trackpoint>
          <Trackpoint>
            <Time>2022-07-14T12:58:49.000Z</Time>
            <Position>
              <LatitudeDegrees>43.37779437191784381866455078125</LatitudeDegrees>
              <LongitudeDegrees>-4.0472051315009593963623046875</LongitudeDegrees>
            </Position>
            <AltitudeMeters>26.200000762939453125</AltitudeMeters>
            <DistanceMeters>NAN</DistanceMeters>
          </Trackpoint>
          <Trackpoint>
            <Time>2022-07-14T12:58:50.000Z</Time>
            <Position>
              <LatitudeDegrees>43.37779873050749301910400390625</LatitudeDegrees>
              <LongitudeDegrees>-4.04721535742282867431640625</LongitudeDegrees>
            </Position>
            <AltitudeMeters>26.200000762939453125</AltitudeMeters>
            <DistanceMeters>NAN</DistanceMeters>
          </Trackpoint>
          <Trackpoint>
            <Time>2022-07-14T12:58:52.000Z</Time>
            <Position>
              <LatitudeDegrees>43.377802670001983642578125</LatitudeDegrees>
              <LongitudeDegrees>-4.047241173684597015380859375</LongitudeDegrees>
            </Position>
            <AltitudeMeters>26.3999996185302734375</AltitudeMeters>
            <DistanceMeters>NAN</DistanceMeters>
          </Trackpoint>
          <Trackpoint>
            <Time>2022-07-14T12:58:55.000Z</Time>
            <Position>
              <LatitudeDegrees>43.37779663503170013427734375</LatitudeDegrees>
              <LongitudeDegrees>-4.04728383757174015045166015625</LongitudeDegrees>
            </Position>
            <AltitudeMeters>27.200000762939453125</AltitudeMeters>
            <DistanceMeters>NAN</DistanceMeters>
          </Trackpoint>
          <Trackpoint>
            <Time>2022-07-14T12:58:56.000Z</Time>
            <Position>
              <LatitudeDegrees>43.377790264785289764404296875</LatitudeDegrees>
              <LongitudeDegrees>-4.04730521142482757568359375</LongitudeDegrees>
            </Position>
            <AltitudeMeters>27.3999996185302734375</AltitudeMeters>
            <DistanceMeters>NAN</DistanceMeters>
          </Trackpoint>
          <Trackpoint>
            <Time>2022-07-14T12:58:58.000Z</Time>
            <Position>
              <LatitudeDegrees>43.37777978740632534027099609375</LatitudeDegrees>
              <LongitudeDegrees>-4.0473436005413532257080078125</LongitudeDegrees>
            </Position>
            <AltitudeMeters>27.6000003814697265625</AltitudeMeters>
            <DistanceMeters>NAN</DistanceMeters>
          </Trackpoint>
          <Trackpoint>
            <Time>2022-07-14T12:59:02.000Z</Time>
            <Position>
              <LatitudeDegrees>43.377765119075775146484375</LatitudeDegrees>
              <LongitudeDegrees>-4.04740604571998119354248046875</LongitudeDegrees>
            </Position>
            <AltitudeMeters>28.3999996185302734375</AltitudeMeters>
            <DistanceMeters>NAN</DistanceMeters>
          </Trackpoint>
          <Trackpoint>
            <Time>2022-07-14T12:59:03.000Z</Time>
            <Position>
              <LatitudeDegrees>43.37775916792452335357666015625</LatitudeDegrees>
              <LongitudeDegrees>-4.04742448590695858001708984375</LongitudeDegrees>
            </Position>
            <AltitudeMeters>28.3999996185302734375</AltitudeMeters>
            <DistanceMeters>NAN</DistanceMeters>
          </Trackpoint>
          <Trackpoint>
            <Time>2022-07-14T12:59:05.000Z</Time>
            <Position>
              <LatitudeDegrees>43.37774190120398998260498046875</LatitudeDegrees>
              <LongitudeDegrees>-4.04746153391897678375244140625</LongitudeDegrees>
            </Position>
            <AltitudeMeters>28.799999237060546875</AltitudeMeters>
            <DistanceMeters>NAN</DistanceMeters>
          </Trackpoint>
          <Trackpoint>
            <Time>2022-07-14T12:59:09.000Z</Time>
            <Position>
              <LatitudeDegrees>43.37774164974689483642578125</LatitudeDegrees>
              <LongitudeDegrees>-4.0474683232605457305908203125</LongitudeDegrees>
            </Position>
            <AltitudeMeters>29.200000762939453125</AltitudeMeters>
            <DistanceMeters>NAN</DistanceMeters>
          </Trackpoint>
          <Trackpoint>
            <Time>2022-07-14T12:59:51.000Z</Time>
            <Position>
              <LatitudeDegrees>43.37779923342168331146240234375</LatitudeDegrees>
              <LongitudeDegrees>-4.04784626327455043792724609375</LongitudeDegrees>
            </Position>
            <AltitudeMeters>32.200000762939453125</AltitudeMeters>
            <DistanceMeters>NAN</DistanceMeters>
          </Trackpoint>
          <Trackpoint>
            <Time>2022-07-14T12:59:54.000Z</Time>
            <Position>
              <LatitudeDegrees>43.37783410213887691497802734375</LatitudeDegrees>
              <LongitudeDegrees>-4.0479015000164508819580078125</LongitudeDegrees>
            </Position>
            <AltitudeMeters>32.200000762939453125</AltitudeMeters>
            <DistanceMeters>NAN</DistanceMeters>
          </Trackpoint>
          <Trackpoint>
            <Time>2022-07-14T13:00:03.000Z</Time>
            <Position>
              <LatitudeDegrees>43.37794759310781955718994140625</LatitudeDegrees>
              <LongitudeDegrees>-4.04807944782078266143798828125</LongitudeDegrees>
            </Position>
            <AltitudeMeters>32.40000152587890625</AltitudeMeters>
            <DistanceMeters>NAN</DistanceMeters>
          </Trackpoint>
          <Trackpoint>
            <Time>2022-07-14T13:00:11.000Z</Time>
            <Position>
              <LatitudeDegrees>43.378049097955226898193359375</LatitudeDegrees>
              <LongitudeDegrees>-4.048185311257839202880859375</LongitudeDegrees>
            </Position>
            <AltitudeMeters>32.40000152587890625</AltitudeMeters>
            <DistanceMeters>NAN</DistanceMeters>
          </Trackpoint>
          <Trackpoint>
            <Time>2022-07-14T13:00:12.000Z</Time>
            <Position>
              <LatitudeDegrees>43.37806309573352336883544921875</LatitudeDegrees>
              <LongitudeDegrees>-4.04819863848388195037841796875</LongitudeDegrees>
            </Position>
            <AltitudeMeters>32.40000152587890625</AltitudeMeters>
            <DistanceMeters>NAN</DistanceMeters>
          </Trackpoint>
          <Trackpoint>
            <Time>2022-07-14T13:00:14.000Z</Time>
            <Position>
              <LatitudeDegrees>43.37808857671916484832763671875</LatitudeDegrees>
              <LongitudeDegrees>-4.04821607284247875213623046875</LongitudeDegrees>
            </Position>
            <AltitudeMeters>32.40000152587890625</AltitudeMeters>
            <DistanceMeters>NAN</DistanceMeters>
          </Trackpoint>
          <Trackpoint>
            <Time>2022-07-14T13:00:17.000Z</Time>
            <Position>
              <LatitudeDegrees>43.37809310294687747955322265625</LatitudeDegrees>
              <LongitudeDegrees>-4.04821925796568393707275390625</LongitudeDegrees>
            </Position>
            <AltitudeMeters>32.40000152587890625</AltitudeMeters>
            <DistanceMeters>NAN</DistanceMeters>
          </Trackpoint>
          <Trackpoint>
            <Time>2022-07-14T13:02:21.000Z</Time>
            <Position>
              <LatitudeDegrees>43.37809880264103412628173828125</LatitudeDegrees>
              <LongitudeDegrees>-4.0482377819716930389404296875</LongitudeDegrees>
            </Position>
            <AltitudeMeters>29.200000762939453125</AltitudeMeters>
            <DistanceMeters>NAN</DistanceMeters>
          </Trackpoint>
          <Trackpoint>
            <Time>2022-07-14T13:02:22.000Z</Time>
            <Position>
              <LatitudeDegrees>43.37809762917459011077880859375</LatitudeDegrees>
              <LongitudeDegrees>-4.04825312085449695587158203125</LongitudeDegrees>
            </Position>
            <AltitudeMeters>29.200000762939453125</AltitudeMeters>
            <DistanceMeters>NAN</DistanceMeters>
          </Trackpoint>
          <Trackpoint>
            <Time>2022-07-14T13:02:27.000Z</Time>
            <Position>
              <LatitudeDegrees>43.3781206794083118438720703125</LatitudeDegrees>
              <LongitudeDegrees>-4.04838739894330501556396484375</LongitudeDegrees>
            </Position>
            <AltitudeMeters>29.6000003814697265625</AltitudeMeters>
            <DistanceMeters>NAN</DistanceMeters>
          </Trackpoint>
          <Trackpoint>
            <Time>2022-07-14T13:02:32.000Z</Time>
            <Position>
              <LatitudeDegrees>43.37811715900897979736328125</LatitudeDegrees>
              <LongitudeDegrees>-4.0485492534935474395751953125</LongitudeDegrees>
            </Position>
            <AltitudeMeters>29.799999237060546875</AltitudeMeters>
            <DistanceMeters>NAN</DistanceMeters>
          </Trackpoint>
          <Trackpoint>
            <Time>2022-07-14T13:02:35.000Z</Time>
            <Position>
              <LatitudeDegrees>43.378087989985942840576171875</LatitudeDegrees>
              <LongitudeDegrees>-4.0486427955329418182373046875</LongitudeDegrees>
            </Position>
            <AltitudeMeters>30</AltitudeMeters>
            <DistanceMeters>NAN</DistanceMeters>
          </Trackpoint>
          <Trackpoint>
            <Time>2022-07-14T13:02:38.000Z</Time>
            <Position>
              <LatitudeDegrees>43.3780274726450443267822265625</LatitudeDegrees>
              <LongitudeDegrees>-4.04872820712625980377197265625</LongitudeDegrees>
            </Position>
            <AltitudeMeters>30</AltitudeMeters>
            <DistanceMeters>NAN</DistanceMeters>
          </Trackpoint>
          <Trackpoint>
            <Time>2022-07-14T13:02:44.000Z</Time>
            <Position>
              <LatitudeDegrees>43.37785354815423488616943359375</LatitudeDegrees>
              <LongitudeDegrees>-4.04886449687182903289794921875</LongitudeDegrees>
            </Position>
            <AltitudeMeters>29.799999237060546875</AltitudeMeters>
            <DistanceMeters>NAN</DistanceMeters>
          </Trackpoint>
          <Trackpoint>
            <Time>2022-07-14T13:02:52.000Z</Time>
            <Position>
              <LatitudeDegrees>43.37766797281801700592041015625</LatitudeDegrees>
              <LongitudeDegrees>-4.04915115796029567718505859375</LongitudeDegrees>
            </Position>
            <AltitudeMeters>29.799999237060546875</AltitudeMeters>
            <DistanceMeters>NAN</DistanceMeters>
          </Trackpoint>
          <Trackpoint>
            <Time>2022-07-14T13:03:02.000Z</Time>
            <Position>
              <LatitudeDegrees>43.37745406664907932281494140625</LatitudeDegrees>
              <LongitudeDegrees>-4.04948961921036243438720703125</LongitudeDegrees>
            </Position>
            <AltitudeMeters>30.200000762939453125</AltitudeMeters>
            <DistanceMeters>NAN</DistanceMeters>
          </Trackpoint>
          <Trackpoint>
            <Time>2022-07-14T13:03:05.000Z</Time>
            <Position>
              <LatitudeDegrees>43.37738935835659503936767578125</LatitudeDegrees>
              <LongitudeDegrees>-4.0495916269719600677490234375</LongitudeDegrees>
            </Position>
            <AltitudeMeters>30.200000762939453125</AltitudeMeters>
            <DistanceMeters>NAN</DistanceMeters>
          </Trackpoint>
          <Trackpoint>
            <Time>2022-07-14T13:03:13.000Z</Time>
            <Position>
              <LatitudeDegrees>43.3772264979779720306396484375</LatitudeDegrees>
              <LongitudeDegrees>-4.04986797831952571868896484375</LongitudeDegrees>
            </Position>
            <AltitudeMeters>30.3999996185302734375</AltitudeMeters>
            <DistanceMeters>NAN</DistanceMeters>
          </Trackpoint>
          <Trackpoint>
            <Time>2022-07-14T13:03:22.000Z</Time>
            <Position>
              <LatitudeDegrees>43.37703815661370754241943359375</LatitudeDegrees>
              <LongitudeDegrees>-4.050176180899143218994140625</LongitudeDegrees>
            </Position>
            <AltitudeMeters>30.6000003814697265625</AltitudeMeters>
            <DistanceMeters>NAN</DistanceMeters>
          </Trackpoint>
          <Trackpoint>
            <Time>2022-07-14T13:03:26.000Z</Time>
            <Position>
              <LatitudeDegrees>43.3769592829048633575439453125</LatitudeDegrees>
              <LongitudeDegrees>-4.050316996872425079345703125</LongitudeDegrees>
            </Position>
            <AltitudeMeters>30.6000003814697265625</AltitudeMeters>
            <DistanceMeters>NAN</DistanceMeters>
          </Trackpoint>
          <Trackpoint>
            <Time>2022-07-14T13:03:28.000Z</Time>
            <Position>
              <LatitudeDegrees>43.3769213967025279998779296875</LatitudeDegrees>
              <LongitudeDegrees>-4.0503775142133235931396484375</LongitudeDegrees>
            </Position>
            <AltitudeMeters>30.799999237060546875</AltitudeMeters>
            <DistanceMeters>NAN</DistanceMeters>
          </Trackpoint>
          <Trackpoint>
            <Time>2022-07-14T13:03:30.000Z</Time>
            <Position>
              <LatitudeDegrees>43.37687890045344829559326171875</LatitudeDegrees>
              <LongitudeDegrees>-4.0504534542560577392578125</LongitudeDegrees>
            </Position>
            <AltitudeMeters>30.799999237060546875</AltitudeMeters>
            <DistanceMeters>NAN</DistanceMeters>
          </Trackpoint>
          <Trackpoint>
            <Time>2022-07-14T13:03:31.000Z</Time>
            <Position>
              <LatitudeDegrees>43.3768617175519466400146484375</LatitudeDegrees>
              <LongitudeDegrees>-4.05049167573451995849609375</LongitudeDegrees>
            </Position>
            <AltitudeMeters>30.799999237060546875</AltitudeMeters>
            <DistanceMeters>NAN</DistanceMeters>
          </Trackpoint>
          <Trackpoint>
            <Time>2022-07-14T13:03:33.000Z</Time>
            <Position>
              <LatitudeDegrees>43.37681704200804233551025390625</LatitudeDegrees>
              <LongitudeDegrees>-4.05055730603635311126708984375</LongitudeDegrees>
            </Position>
            <AltitudeMeters>30.799999237060546875</AltitudeMeters>
            <DistanceMeters>NAN</DistanceMeters>
          </Trackpoint>
          <Trackpoint>
            <Time>2022-07-14T13:03:38.000Z</Time>
            <Position>
              <LatitudeDegrees>43.37671360932290554046630859375</LatitudeDegrees>
              <LongitudeDegrees>-4.0507458150386810302734375</LongitudeDegrees>
            </Position>
            <AltitudeMeters>31</AltitudeMeters>
            <DistanceMeters>NAN</DistanceMeters>
          </Trackpoint>
          <Trackpoint>
            <Time>2022-07-14T13:03:47.000Z</Time>
            <Position>
              <LatitudeDegrees>43.3765314705669879913330078125</LatitudeDegrees>
              <LongitudeDegrees>-4.05107178725302219390869140625</LongitudeDegrees>
            </Position>
            <AltitudeMeters>30.799999237060546875</AltitudeMeters>
            <DistanceMeters>NAN</DistanceMeters>
          </Trackpoint>
          <Trackpoint>
            <Time>2022-07-14T13:03:50.000Z</Time>
            <Position>
              <LatitudeDegrees>43.37647791020572185516357421875</LatitudeDegrees>
              <LongitudeDegrees>-4.0512089990079402923583984375</LongitudeDegrees>
            </Position>
            <AltitudeMeters>30.799999237060546875</AltitudeMeters>
            <DistanceMeters>NAN</DistanceMeters>
          </Trackpoint>
          <Trackpoint>
            <Time>2022-07-14T13:03:54.000Z</Time>
            <Position>
              <LatitudeDegrees>43.3764218352735042572021484375</LatitudeDegrees>
              <LongitudeDegrees>-4.0514319576323032379150390625</LongitudeDegrees>
            </Position>
            <AltitudeMeters>30.799999237060546875</AltitudeMeters>
            <DistanceMeters>NAN</DistanceMeters>
          </Trackpoint>
          <Trackpoint>
            <Time>2022-07-14T13:03:59.000Z</Time>
            <Position>
              <LatitudeDegrees>43.37638017721474170684814453125</LatitudeDegrees>
              <LongitudeDegrees>-4.051757343113422393798828125</LongitudeDegrees>
            </Position>
            <AltitudeMeters>30.3999996185302734375</AltitudeMeters>
            <DistanceMeters>NAN</DistanceMeters>
          </Trackpoint>
          <Trackpoint>
            <Time>2022-07-14T13:04:00.000Z</Time>
            <Position>
              <LatitudeDegrees>43.37638068012893199920654296875</LatitudeDegrees>
              <LongitudeDegrees>-4.0518235601484775543212890625</LongitudeDegrees>
            </Position>
            <AltitudeMeters>30.3999996185302734375</AltitudeMeters>
            <DistanceMeters>NAN</DistanceMeters>
          </Trackpoint>
          <Trackpoint>
            <Time>2022-07-14T13:04:08.000Z</Time>
            <Position>
              <LatitudeDegrees>43.376373387873172760009765625</LatitudeDegrees>
              <LongitudeDegrees>-4.0523765981197357177734375</LongitudeDegrees>
            </Position>
            <AltitudeMeters>29.799999237060546875</AltitudeMeters>
            <DistanceMeters>NAN</DistanceMeters>
          </Trackpoint>
          <Trackpoint>
            <Time>2022-07-14T13:04:15.000Z</Time>
            <Position>
              <LatitudeDegrees>43.3763487450778484344482421875</LatitudeDegrees>
              <LongitudeDegrees>-4.0528808534145355224609375</LongitudeDegrees>
            </Position>
            <AltitudeMeters>29.3999996185302734375</AltitudeMeters>
            <DistanceMeters>NAN</DistanceMeters>
          </Trackpoint>
          <Trackpoint>
            <Time>2022-07-14T13:04:16.000Z</Time>
            <Position>
              <LatitudeDegrees>43.3763336576521396636962890625</LatitudeDegrees>
              <LongitudeDegrees>-4.05295587144792079925537109375</LongitudeDegrees>
            </Position>
            <AltitudeMeters>29.3999996185302734375</AltitudeMeters>
            <DistanceMeters>NAN</DistanceMeters>
          </Trackpoint>
          <Trackpoint>
            <Time>2022-07-14T13:04:22.000Z</Time>
            <Position>
              <LatitudeDegrees>43.37619007565081119537353515625</LatitudeDegrees>
              <LongitudeDegrees>-4.05337831936776638031005859375</LongitudeDegrees>
            </Position>
            <AltitudeMeters>29.200000762939453125</AltitudeMeters>
            <DistanceMeters>NAN</DistanceMeters>
          </Trackpoint>
          <Trackpoint>
            <Time>2022-07-14T13:04:27.000Z</Time>
            <Position>
              <LatitudeDegrees>43.37603450752794742584228515625</LatitudeDegrees>
              <LongitudeDegrees>-4.05365877784788608551025390625</LongitudeDegrees>
            </Position>
            <AltitudeMeters>29</AltitudeMeters>
            <DistanceMeters>NAN</DistanceMeters>
          </Trackpoint>
          <Trackpoint>
            <Time>2022-07-14T13:04:29.000Z</Time>
            <Position>
              <LatitudeDegrees>43.37596292607486248016357421875</LatitudeDegrees>
              <LongitudeDegrees>-4.05377076007425785064697265625</LongitudeDegrees>
            </Position>
            <AltitudeMeters>29</AltitudeMeters>
            <DistanceMeters>NAN</DistanceMeters>
          </Trackpoint>
          <Trackpoint>
            <Time>2022-07-14T13:04:33.000Z</Time>
            <Position>
              <LatitudeDegrees>43.375850021839141845703125</LatitudeDegrees>
              <LongitudeDegrees>-4.05395030044019222259521484375</LongitudeDegrees>
            </Position>
            <AltitudeMeters>29.200000762939453125</AltitudeMeters>
            <DistanceMeters>NAN</DistanceMeters>
          </Trackpoint>
          <Trackpoint>
            <Time>2022-07-14T13:04:35.000Z</Time>
            <Position>
              <LatitudeDegrees>43.3758079446852207183837890625</LatitudeDegrees>
              <LongitudeDegrees>-4.05401601456105709075927734375</LongitudeDegrees>
            </Position>
            <AltitudeMeters>29.6000003814697265625</AltitudeMeters>
            <DistanceMeters>NAN</DistanceMeters>
          </Trackpoint>
          <Trackpoint>
            <Time>2022-07-14T13:04:41.000Z</Time>
            <Position>
              <LatitudeDegrees>43.37568431161344051361083984375</LatitudeDegrees>
              <LongitudeDegrees>-4.054196812212467193603515625</LongitudeDegrees>
            </Position>
            <AltitudeMeters>30.200000762939453125</AltitudeMeters>
            <DistanceMeters>NAN</DistanceMeters>
          </Trackpoint>
          <Trackpoint>
            <Time>2022-07-14T13:04:42.000Z</Time>
            <Position>
              <LatitudeDegrees>43.37566704489290714263916015625</LatitudeDegrees>
              <LongitudeDegrees>-4.05422673560678958892822265625</LongitudeDegrees>
            </Position>
            <AltitudeMeters>30.3999996185302734375</AltitudeMeters>
            <DistanceMeters>NAN</DistanceMeters>
          </Trackpoint>
          <Trackpoint>
            <Time>2022-07-14T13:04:47.000Z</Time>
            <Position>
              <LatitudeDegrees>43.37559060193598270416259765625</LatitudeDegrees>
              <LongitudeDegrees>-4.0543602593243122100830078125</LongitudeDegrees>
            </Position>
            <AltitudeMeters>31.200000762939453125</AltitudeMeters>
            <DistanceMeters>NAN</DistanceMeters>
          </Trackpoint>
          <Trackpoint>
            <Time>2022-07-14T13:04:53.000Z</Time>
            <Position>
              <LatitudeDegrees>43.3755348622798919677734375</LatitudeDegrees>
              <LongitudeDegrees>-4.05452127568423748016357421875</LongitudeDegrees>
            </Position>
            <AltitudeMeters>31.6000003814697265625</AltitudeMeters>
            <DistanceMeters>NAN</DistanceMeters>
          </Trackpoint>
          <Trackpoint>
            <Time>2022-07-14T13:04:55.000Z</Time>
            <Position>
              <LatitudeDegrees>43.37552136741578578948974609375</LatitudeDegrees>
              <LongitudeDegrees>-4.05458631925284862518310546875</LongitudeDegrees>
            </Position>
            <AltitudeMeters>31.799999237060546875</AltitudeMeters>
            <DistanceMeters>NAN</DistanceMeters>
          </Trackpoint>
          <Trackpoint>
            <Time>2022-07-14T13:04:59.000Z</Time>
            <Position>
              <LatitudeDegrees>43.37549622170627117156982421875</LatitudeDegrees>
              <LongitudeDegrees>-4.05473886989057064056396484375</LongitudeDegrees>
            </Position>
            <AltitudeMeters>32</AltitudeMeters>
            <DistanceMeters>NAN</DistanceMeters>
          </Trackpoint>
          <Trackpoint>
            <Time>2022-07-14T13:05:04.000Z</Time>
            <Position>
              <LatitudeDegrees>43.3754887618124485015869140625</LatitudeDegrees>
              <LongitudeDegrees>-4.05492830090224742889404296875</LongitudeDegrees>
            </Position>
            <AltitudeMeters>32.59999847412109375</AltitudeMeters>
            <DistanceMeters>NAN</DistanceMeters>
          </Trackpoint>
          <Trackpoint>
            <Time>2022-07-14T13:05:11.000Z</Time>
            <Position>
              <LatitudeDegrees>43.37550594471395015716552734375</LatitudeDegrees>
              <LongitudeDegrees>-4.0551786683499813079833984375</LongitudeDegrees>
            </Position>
            <AltitudeMeters>33</AltitudeMeters>
            <DistanceMeters>NAN</DistanceMeters>
          </Trackpoint>
          <Trackpoint>
            <Time>2022-07-14T13:05:18.000Z</Time>
            <Position>
              <LatitudeDegrees>43.3755524642765522003173828125</LatitudeDegrees>
              <LongitudeDegrees>-4.05542216263711452484130859375</LongitudeDegrees>
            </Position>
            <AltitudeMeters>33.59999847412109375</AltitudeMeters>
            <DistanceMeters>NAN</DistanceMeters>
          </Trackpoint>
          <Trackpoint>
            <Time>2022-07-14T13:05:21.000Z</Time>
            <Position>
              <LatitudeDegrees>43.37557903490960597991943359375</LatitudeDegrees>
              <LongitudeDegrees>-4.05551302246749401092529296875</LongitudeDegrees>
            </Position>
            <AltitudeMeters>33.799999237060546875</AltitudeMeters>
            <DistanceMeters>NAN</DistanceMeters>
          </Trackpoint>
          <Trackpoint>
            <Time>2022-07-14T13:05:31.000Z</Time>
            <Position>
              <LatitudeDegrees>43.3756895922124385833740234375</LatitudeDegrees>
              <LongitudeDegrees>-4.0557992644608020782470703125</LongitudeDegrees>
            </Position>
            <AltitudeMeters>34.200000762939453125</AltitudeMeters>
            <DistanceMeters>NAN</DistanceMeters>
          </Trackpoint>
          <Trackpoint>
            <Time>2022-07-14T13:05:38.000Z</Time>
            <Position>
              <LatitudeDegrees>43.37575790472328662872314453125</LatitudeDegrees>
              <LongitudeDegrees>-4.05597503297030925750732421875</LongitudeDegrees>
            </Position>
            <AltitudeMeters>34.799999237060546875</AltitudeMeters>
            <DistanceMeters>NAN</DistanceMeters>
          </Trackpoint>
          <Trackpoint>
            <Time>2022-07-14T13:05:45.000Z</Time>
            <Position>
              <LatitudeDegrees>43.375847674906253814697265625</LatitudeDegrees>
              <LongitudeDegrees>-4.05616580508649349212646484375</LongitudeDegrees>
            </Position>
            <AltitudeMeters>35.40000152587890625</AltitudeMeters>
            <DistanceMeters>NAN</DistanceMeters>
          </Trackpoint>
          <Trackpoint>
            <Time>2022-07-14T13:05:51.000Z</Time>
            <Position>
              <LatitudeDegrees>43.375928811728954315185546875</LatitudeDegrees>
              <LongitudeDegrees>-4.0563159249722957611083984375</LongitudeDegrees>
            </Position>
            <AltitudeMeters>35.799999237060546875</AltitudeMeters>
            <DistanceMeters>NAN</DistanceMeters>
          </Trackpoint>
          <Trackpoint>
            <Time>2022-07-14T13:05:54.000Z</Time>
            <Position>
              <LatitudeDegrees>43.37597046978771686553955078125</LatitudeDegrees>
              <LongitudeDegrees>-4.05640418641269207000732421875</LongitudeDegrees>
            </Position>
            <AltitudeMeters>36</AltitudeMeters>
            <DistanceMeters>NAN</DistanceMeters>
          </Trackpoint>
          <Trackpoint>
            <Time>2022-07-14T13:06:04.000Z</Time>
            <Position>
              <LatitudeDegrees>43.37611564435064792633056640625</LatitudeDegrees>
              <LongitudeDegrees>-4.0566413104534149169921875</LongitudeDegrees>
            </Position>
            <AltitudeMeters>36.40000152587890625</AltitudeMeters>
            <DistanceMeters>NAN</DistanceMeters>
          </Trackpoint>
          <Trackpoint>
            <Time>2022-07-14T13:06:09.000Z</Time>
            <Position>
              <LatitudeDegrees>43.376190662384033203125</LatitudeDegrees>
              <LongitudeDegrees>-4.0567571483552455902099609375</LongitudeDegrees>
            </Position>
            <AltitudeMeters>36.59999847412109375</AltitudeMeters>
            <DistanceMeters>NAN</DistanceMeters>
          </Trackpoint>
          <Trackpoint>
            <Time>2022-07-14T13:06:12.000Z</Time>
            <Position>
              <LatitudeDegrees>43.376241959631443023681640625</LatitudeDegrees>
              <LongitudeDegrees>-4.05683149583637714385986328125</LongitudeDegrees>
            </Position>
            <AltitudeMeters>36.59999847412109375</AltitudeMeters>
            <DistanceMeters>NAN</DistanceMeters>
          </Trackpoint>
          <Trackpoint>
            <Time>2022-07-14T13:06:17.000Z</Time>
            <Position>
              <LatitudeDegrees>43.37633156217634677886962890625</LatitudeDegrees>
              <LongitudeDegrees>-4.05695253051817417144775390625</LongitudeDegrees>
            </Position>
            <AltitudeMeters>36.799999237060546875</AltitudeMeters>
            <DistanceMeters>NAN</DistanceMeters>
          </Trackpoint>
          <Trackpoint>
            <Time>2022-07-14T13:06:20.000Z</Time>
            <Position>
              <LatitudeDegrees>43.3763909898698329925537109375</LatitudeDegrees>
              <LongitudeDegrees>-4.05701078474521636962890625</LongitudeDegrees>
            </Position>
            <AltitudeMeters>37.200000762939453125</AltitudeMeters>
            <DistanceMeters>NAN</DistanceMeters>
          </Trackpoint>
          <Trackpoint>
            <Time>2022-07-14T13:06:22.000Z</Time>
            <Position>
              <LatitudeDegrees>43.37643700651824474334716796875</LatitudeDegrees>
              <LongitudeDegrees>-4.0570538677275180816650390625</LongitudeDegrees>
            </Position>
            <AltitudeMeters>37.40000152587890625</AltitudeMeters>
            <DistanceMeters>NAN</DistanceMeters>
          </Trackpoint>
          <Trackpoint>
            <Time>2022-07-14T13:06:29.000Z</Time>
            <Position>
              <LatitudeDegrees>43.37657220661640167236328125</LatitudeDegrees>
              <LongitudeDegrees>-4.0571698732674121856689453125</LongitudeDegrees>
            </Position>
            <AltitudeMeters>37.59999847412109375</AltitudeMeters>
            <DistanceMeters>NAN</DistanceMeters>
          </Trackpoint>
          <Trackpoint>
            <Time>2022-07-14T13:06:31.000Z</Time>
            <Position>
              <LatitudeDegrees>43.37661989964544773101806640625</LatitudeDegrees>
              <LongitudeDegrees>-4.05720658600330352783203125</LongitudeDegrees>
            </Position>
            <AltitudeMeters>37.40000152587890625</AltitudeMeters>
            <DistanceMeters>NAN</DistanceMeters>
          </Trackpoint>
          <Trackpoint>
            <Time>2022-07-14T13:06:33.000Z</Time>
            <Position>
              <LatitudeDegrees>43.37665678001940250396728515625</LatitudeDegrees>
              <LongitudeDegrees>-4.05724413692951202392578125</LongitudeDegrees>
            </Position>
            <AltitudeMeters>37.40000152587890625</AltitudeMeters>
            <DistanceMeters>NAN</DistanceMeters>
          </Trackpoint>
          <Trackpoint>
            <Time>2022-07-14T13:06:36.000Z</Time>
            <Position>
              <LatitudeDegrees>43.3767369948327541351318359375</LatitudeDegrees>
              <LongitudeDegrees>-4.057303480803966522216796875</LongitudeDegrees>
            </Position>
            <AltitudeMeters>37.59999847412109375</AltitudeMeters>
            <DistanceMeters>NAN</DistanceMeters>
          </Trackpoint>
          <Trackpoint>
            <Time>2022-07-14T13:06:38.000Z</Time>
            <Position>
              <LatitudeDegrees>43.3767835982143878936767578125</LatitudeDegrees>
              <LongitudeDegrees>-4.05734279192984104156494140625</LongitudeDegrees>
            </Position>
            <AltitudeMeters>37.59999847412109375</AltitudeMeters>
            <DistanceMeters>NAN</DistanceMeters>
          </Trackpoint>
          <Trackpoint>
            <Time>2022-07-14T13:06:41.000Z</Time>
            <Position>
              <LatitudeDegrees>43.37685191072523593902587890625</LatitudeDegrees>
              <LongitudeDegrees>-4.05740045942366123199462890625</LongitudeDegrees>
            </Position>
            <AltitudeMeters>37.799999237060546875</AltitudeMeters>
            <DistanceMeters>NAN</DistanceMeters>
          </Trackpoint>
          <Trackpoint>
            <Time>2022-07-14T13:06:47.000Z</Time>
            <Position>
              <LatitudeDegrees>43.37698501534759998321533203125</LatitudeDegrees>
              <LongitudeDegrees>-4.05752065591514110565185546875</LongitudeDegrees>
            </Position>
            <AltitudeMeters>38.200000762939453125</AltitudeMeters>
            <DistanceMeters>NAN</DistanceMeters>
          </Trackpoint>
          <Trackpoint>
            <Time>2022-07-14T13:06:58.000Z</Time>
            <Position>
              <LatitudeDegrees>43.377234376966953277587890625</LatitudeDegrees>
              <LongitudeDegrees>-4.05772693455219268798828125</LongitudeDegrees>
            </Position>
            <AltitudeMeters>38.59999847412109375</AltitudeMeters>
            <DistanceMeters>NAN</DistanceMeters>
          </Trackpoint>
          <Trackpoint>
            <Time>2022-07-14T13:07:02.000Z</Time>
            <Position>
              <LatitudeDegrees>43.3773250691592693328857421875</LatitudeDegrees>
              <LongitudeDegrees>-4.057814776897430419921875</LongitudeDegrees>
            </Position>
            <AltitudeMeters>39</AltitudeMeters>
            <DistanceMeters>NAN</DistanceMeters>
          </Trackpoint>
          <Trackpoint>
            <Time>2022-07-14T13:07:07.000Z</Time>
            <Position>
              <LatitudeDegrees>43.3774387277662754058837890625</LatitudeDegrees>
              <LongitudeDegrees>-4.0579463727772235870361328125</LongitudeDegrees>
            </Position>
            <AltitudeMeters>38.799999237060546875</AltitudeMeters>
            <DistanceMeters>NAN</DistanceMeters>
          </Trackpoint>
          <Trackpoint>
            <Time>2022-07-14T13:07:16.000Z</Time>
            <Position>
              <LatitudeDegrees>43.3776345290243625640869140625</LatitudeDegrees>
              <LongitudeDegrees>-4.0582774579524993896484375</LongitudeDegrees>
            </Position>
            <AltitudeMeters>39</AltitudeMeters>
            <DistanceMeters>NAN</DistanceMeters>
          </Trackpoint>
          <Trackpoint>
            <Time>2022-07-14T13:07:25.000Z</Time>
            <Position>
              <LatitudeDegrees>43.37777593173086643218994140625</LatitudeDegrees>
              <LongitudeDegrees>-4.058685488998889923095703125</LongitudeDegrees>
            </Position>
            <AltitudeMeters>39</AltitudeMeters>
            <DistanceMeters>NAN</DistanceMeters>
          </Trackpoint>
          <Trackpoint>
            <Time>2022-07-14T13:07:32.000Z</Time>
            <Position>
              <LatitudeDegrees>43.37787902913987636566162109375</LatitudeDegrees>
              <LongitudeDegrees>-4.058983884751796722412109375</LongitudeDegrees>
            </Position>
            <AltitudeMeters>39</AltitudeMeters>
            <DistanceMeters>NAN</DistanceMeters>
          </Trackpoint>
          <Trackpoint>
            <Time>2022-07-14T13:07:41.000Z</Time>
            <Position>
              <LatitudeDegrees>43.3780185878276824951171875</LatitudeDegrees>
              <LongitudeDegrees>-4.0593945980072021484375</LongitudeDegrees>
            </Position>
            <AltitudeMeters>38.799999237060546875</AltitudeMeters>
            <DistanceMeters>NAN</DistanceMeters>
          </Trackpoint>
          <Trackpoint>
            <Time>2022-07-14T13:07:51.000Z</Time>
            <Position>
              <LatitudeDegrees>43.3781816996634006500244140625</LatitudeDegrees>
              <LongitudeDegrees>-4.05986809171736240386962890625</LongitudeDegrees>
            </Position>
            <AltitudeMeters>38.40000152587890625</AltitudeMeters>
            <DistanceMeters>NAN</DistanceMeters>
          </Trackpoint>
          <Trackpoint>
            <Time>2022-07-14T13:07:59.000Z</Time>
            <Position>
              <LatitudeDegrees>43.37831027805805206298828125</LatitudeDegrees>
              <LongitudeDegrees>-4.06027595512568950653076171875</LongitudeDegrees>
            </Position>
            <AltitudeMeters>38.40000152587890625</AltitudeMeters>
            <DistanceMeters>NAN</DistanceMeters>
          </Trackpoint>
          <Trackpoint>
            <Time>2022-07-14T13:08:04.000Z</Time>
            <Position>
              <LatitudeDegrees>43.3784110285341739654541015625</LatitudeDegrees>
              <LongitudeDegrees>-4.06054752878844738006591796875</LongitudeDegrees>
            </Position>
            <AltitudeMeters>37.59999847412109375</AltitudeMeters>
            <DistanceMeters>NAN</DistanceMeters>
          </Trackpoint>
          <Trackpoint>
            <Time>2022-07-14T13:08:08.000Z</Time>
            <Position>
              <LatitudeDegrees>43.37848839350044727325439453125</LatitudeDegrees>
              <LongitudeDegrees>-4.06077786348760128021240234375</LongitudeDegrees>
            </Position>
            <AltitudeMeters>37.40000152587890625</AltitudeMeters>
            <DistanceMeters>NAN</DistanceMeters>
          </Trackpoint>
          <Trackpoint>
            <Time>2022-07-14T13:08:16.000Z</Time>
            <Position>
              <LatitudeDegrees>43.3786631561815738677978515625</LatitudeDegrees>
              <LongitudeDegrees>-4.0612350963056087493896484375</LongitudeDegrees>
            </Position>
            <AltitudeMeters>37.200000762939453125</AltitudeMeters>
            <DistanceMeters>NAN</DistanceMeters>
          </Trackpoint>
          <Trackpoint>
            <Time>2022-07-14T13:08:18.000Z</Time>
            <Position>
              <LatitudeDegrees>43.3787050656974315643310546875</LatitudeDegrees>
              <LongitudeDegrees>-4.0613504312932491302490234375</LongitudeDegrees>
            </Position>
            <AltitudeMeters>37</AltitudeMeters>
            <DistanceMeters>NAN</DistanceMeters>
          </Trackpoint>
          <Trackpoint>
            <Time>2022-07-14T13:08:21.000Z</Time>
            <Position>
              <LatitudeDegrees>43.37876767851412296295166015625</LatitudeDegrees>
              <LongitudeDegrees>-4.06153072603046894073486328125</LongitudeDegrees>
            </Position>
            <AltitudeMeters>36.799999237060546875</AltitudeMeters>
            <DistanceMeters>NAN</DistanceMeters>
          </Trackpoint>
          <Trackpoint>
            <Time>2022-07-14T13:08:24.000Z</Time>
            <Position>
              <LatitudeDegrees>43.3788193948566913604736328125</LatitudeDegrees>
              <LongitudeDegrees>-4.06170959584414958953857421875</LongitudeDegrees>
            </Position>
            <AltitudeMeters>36.59999847412109375</AltitudeMeters>
            <DistanceMeters>NAN</DistanceMeters>
          </Trackpoint>
          <Trackpoint>
            <Time>2022-07-14T13:08:29.000Z</Time>
            <Position>
              <LatitudeDegrees>43.37890111841261386871337890625</LatitudeDegrees>
              <LongitudeDegrees>-4.06198753975331783294677734375</LongitudeDegrees>
            </Position>
            <AltitudeMeters>36.40000152587890625</AltitudeMeters>
            <DistanceMeters>NAN</DistanceMeters>
          </Trackpoint>
          <Trackpoint>
            <Time>2022-07-14T13:08:34.000Z</Time>
            <Position>
              <LatitudeDegrees>43.37897102348506450653076171875</LatitudeDegrees>
              <LongitudeDegrees>-4.06228040345013141632080078125</LongitudeDegrees>
            </Position>
            <AltitudeMeters>36</AltitudeMeters>
            <DistanceMeters>NAN</DistanceMeters>
          </Trackpoint>
          <Trackpoint>
            <Time>2022-07-14T13:08:35.000Z</Time>
            <Position>
              <LatitudeDegrees>43.37898510508239269256591796875</LatitudeDegrees>
              <LongitudeDegrees>-4.0623378194868564605712890625</LongitudeDegrees>
            </Position>
            <AltitudeMeters>35.799999237060546875</AltitudeMeters>
            <DistanceMeters>NAN</DistanceMeters>
          </Trackpoint>
          <Trackpoint>
            <Time>2022-07-14T13:08:36.000Z</Time>
            <Position>
              <LatitudeDegrees>43.37899600155651569366455078125</LatitudeDegrees>
              <LongitudeDegrees>-4.06239573843777179718017578125</LongitudeDegrees>
            </Position>
            <AltitudeMeters>35.799999237060546875</AltitudeMeters>
            <DistanceMeters>NAN</DistanceMeters>
          </Trackpoint>
          <Trackpoint>
            <Time>2022-07-14T13:08:37.000Z</Time>
            <Position>
              <LatitudeDegrees>43.3790007792413234710693359375</LatitudeDegrees>
              <LongitudeDegrees>-4.06245776452124118804931640625</LongitudeDegrees>
            </Position>
            <AltitudeMeters>35.59999847412109375</AltitudeMeters>
            <DistanceMeters>NAN</DistanceMeters>
          </Trackpoint>
          <Trackpoint>
            <Time>2022-07-14T13:08:38.000Z</Time>
            <Position>
              <LatitudeDegrees>43.3790021203458309173583984375</LatitudeDegrees>
              <LongitudeDegrees>-4.06252062879502773284912109375</LongitudeDegrees>
            </Position>
            <AltitudeMeters>35.59999847412109375</AltitudeMeters>
            <DistanceMeters>NAN</DistanceMeters>
          </Trackpoint>
          <Trackpoint>
            <Time>2022-07-14T13:08:48.000Z</Time>
            <Position>
              <LatitudeDegrees>43.37897672317922115325927734375</LatitudeDegrees>
              <LongitudeDegrees>-4.06319989822804927825927734375</LongitudeDegrees>
            </Position>
            <AltitudeMeters>35.200000762939453125</AltitudeMeters>
            <DistanceMeters>NAN</DistanceMeters>
          </Trackpoint>
          <Trackpoint>
            <Time>2022-07-14T13:08:50.000Z</Time>
            <Position>
              <LatitudeDegrees>43.3789729513227939605712890625</LatitudeDegrees>
              <LongitudeDegrees>-4.0633134730160236358642578125</LongitudeDegrees>
            </Position>
            <AltitudeMeters>35.200000762939453125</AltitudeMeters>
            <DistanceMeters>NAN</DistanceMeters>
          </Trackpoint>
          <Trackpoint>
            <Time>2022-07-14T13:08:53.000Z</Time>
            <Position>
              <LatitudeDegrees>43.3789680898189544677734375</LatitudeDegrees>
              <LongitudeDegrees>-4.063481949269771575927734375</LongitudeDegrees>
            </Position>
            <AltitudeMeters>35.59999847412109375</AltitudeMeters>
            <DistanceMeters>NAN</DistanceMeters>
          </Trackpoint>
          <Trackpoint>
            <Time>2022-07-14T13:08:55.000Z</Time>
            <Position>
              <LatitudeDegrees>43.3789813332259654998779296875</LatitudeDegrees>
              <LongitudeDegrees>-4.06357674859464168548583984375</LongitudeDegrees>
            </Position>
            <AltitudeMeters>35.799999237060546875</AltitudeMeters>
            <DistanceMeters>NAN</DistanceMeters>
          </Trackpoint>
          <Trackpoint>
            <Time>2022-07-14T13:08:59.000Z</Time>
            <Position>
              <LatitudeDegrees>43.379018716514110565185546875</LatitudeDegrees>
              <LongitudeDegrees>-4.06373265199363231658935546875</LongitudeDegrees>
            </Position>
            <AltitudeMeters>36.200000762939453125</AltitudeMeters>
            <DistanceMeters>NAN</DistanceMeters>
          </Trackpoint>
          <Trackpoint>
            <Time>2022-07-14T13:09:01.000Z</Time>
            <Position>
              <LatitudeDegrees>43.37903841398656368255615234375</LatitudeDegrees>
              <LongitudeDegrees>-4.0637959353625774383544921875</LongitudeDegrees>
            </Position>
            <AltitudeMeters>36.40000152587890625</AltitudeMeters>
            <DistanceMeters>NAN</DistanceMeters>
          </Trackpoint>
          <Trackpoint>
            <Time>2022-07-14T13:09:04.000Z</Time>
            <Position>
              <LatitudeDegrees>43.3790587820112705230712890625</LatitudeDegrees>
              <LongitudeDegrees>-4.063881933689117431640625</LongitudeDegrees>
            </Position>
            <AltitudeMeters>36.59999847412109375</AltitudeMeters>
            <DistanceMeters>NAN</DistanceMeters>
          </Trackpoint>
          <Trackpoint>
            <Time>2022-07-14T13:09:05.000Z</Time>
            <Position>
              <LatitudeDegrees>43.37906439788639545440673828125</LatitudeDegrees>
              <LongitudeDegrees>-4.06390540301799774169921875</LongitudeDegrees>
            </Position>
            <AltitudeMeters>36.799999237060546875</AltitudeMeters>
            <DistanceMeters>NAN</DistanceMeters>
          </Trackpoint>
          <Trackpoint>
            <Time>2022-07-14T13:09:07.000Z</Time>
            <Position>
              <LatitudeDegrees>43.37907948531210422515869140625</LatitudeDegrees>
              <LongitudeDegrees>-4.06396575272083282470703125</LongitudeDegrees>
            </Position>
            <AltitudeMeters>37</AltitudeMeters>
            <DistanceMeters>NAN</DistanceMeters>
          </Trackpoint>
          <Trackpoint>
            <Time>2022-07-14T13:09:09.000Z</Time>
            <Position>
              <LatitudeDegrees>43.379101194441318511962890625</LatitudeDegrees>
              <LongitudeDegrees>-4.06401629559695720672607421875</LongitudeDegrees>
            </Position>
            <AltitudeMeters>37</AltitudeMeters>
            <DistanceMeters>NAN</DistanceMeters>
          </Trackpoint>
          <Trackpoint>
            <Time>2022-07-14T13:09:11.000Z</Time>
            <Position>
              <LatitudeDegrees>43.379117958247661590576171875</LatitudeDegrees>
              <LongitudeDegrees>-4.06406633555889129638671875</LongitudeDegrees>
            </Position>
            <AltitudeMeters>37.40000152587890625</AltitudeMeters>
            <DistanceMeters>NAN</DistanceMeters>
          </Trackpoint>
          <Trackpoint>
            <Time>2022-07-14T13:09:17.000Z</Time>
            <Position>
              <LatitudeDegrees>43.3791667409241199493408203125</LatitudeDegrees>
              <LongitudeDegrees>-4.0642271004617214202880859375</LongitudeDegrees>
            </Position>
            <AltitudeMeters>37.799999237060546875</AltitudeMeters>
            <DistanceMeters>NAN</DistanceMeters>
          </Trackpoint>
          <Trackpoint>
            <Time>2022-07-14T13:09:18.000Z</Time>
            <Position>
              <LatitudeDegrees>43.37917554192245006561279296875</LatitudeDegrees>
              <LongitudeDegrees>-4.06426289118826389312744140625</LongitudeDegrees>
            </Position>
            <AltitudeMeters>37.799999237060546875</AltitudeMeters>
            <DistanceMeters>NAN</DistanceMeters>
          </Trackpoint>
          <Trackpoint>
            <Time>2022-07-14T13:09:25.000Z</Time>
            <Position>
              <LatitudeDegrees>43.37922818027436733245849609375</LatitudeDegrees>
              <LongitudeDegrees>-4.06443840824067592620849609375</LongitudeDegrees>
            </Position>
            <AltitudeMeters>38.40000152587890625</AltitudeMeters>
            <DistanceMeters>NAN</DistanceMeters>
          </Trackpoint>
          <Trackpoint>
            <Time>2022-07-14T13:09:30.000Z</Time>
            <Position>
              <LatitudeDegrees>43.379272185266017913818359375</LatitudeDegrees>
              <LongitudeDegrees>-4.06455223448574542999267578125</LongitudeDegrees>
            </Position>
            <AltitudeMeters>39</AltitudeMeters>
            <DistanceMeters>NAN</DistanceMeters>
          </Trackpoint>
          <Trackpoint>
            <Time>2022-07-14T13:09:32.000Z</Time>
            <Position>
              <LatitudeDegrees>43.379296325147151947021484375</LatitudeDegrees>
              <LongitudeDegrees>-4.06459179706871509552001953125</LongitudeDegrees>
            </Position>
            <AltitudeMeters>39.200000762939453125</AltitudeMeters>
            <DistanceMeters>NAN</DistanceMeters>
          </Trackpoint>
          <Trackpoint>
            <Time>2022-07-14T13:09:34.000Z</Time>
            <Position>
              <LatitudeDegrees>43.37931585498154163360595703125</LatitudeDegrees>
              <LongitudeDegrees>-4.0646247379481792449951171875</LongitudeDegrees>
            </Position>
            <AltitudeMeters>39.200000762939453125</AltitudeMeters>
            <DistanceMeters>NAN</DistanceMeters>
          </Trackpoint>
          <Trackpoint>
            <Time>2022-07-14T13:09:36.000Z</Time>
            <Position>
              <LatitudeDegrees>43.3793337084352970123291015625</LatitudeDegrees>
              <LongitudeDegrees>-4.064665138721466064453125</LongitudeDegrees>
            </Position>
            <AltitudeMeters>39.200000762939453125</AltitudeMeters>
            <DistanceMeters>NAN</DistanceMeters>
          </Trackpoint>
          <Trackpoint>
            <Time>2022-07-14T13:09:45.000Z</Time>
            <Position>
              <LatitudeDegrees>43.37941727600991725921630859375</LatitudeDegrees>
              <LongitudeDegrees>-4.064863957464694976806640625</LongitudeDegrees>
            </Position>
            <AltitudeMeters>39.799999237060546875</AltitudeMeters>
            <DistanceMeters>NAN</DistanceMeters>
          </Trackpoint>
          <Trackpoint>
            <Time>2022-07-14T13:09:52.000Z</Time>
            <Position>
              <LatitudeDegrees>43.379471339285373687744140625</LatitudeDegrees>
              <LongitudeDegrees>-4.065018855035305023193359375</LongitudeDegrees>
            </Position>
            <AltitudeMeters>40</AltitudeMeters>
            <DistanceMeters>NAN</DistanceMeters>
          </Trackpoint>
          <Trackpoint>
            <Time>2022-07-14T13:09:54.000Z</Time>
            <Position>
              <LatitudeDegrees>43.3794822357594966888427734375</LatitudeDegrees>
              <LongitudeDegrees>-4.06506470404565334320068359375</LongitudeDegrees>
            </Position>
            <AltitudeMeters>40.40000152587890625</AltitudeMeters>
            <DistanceMeters>NAN</DistanceMeters>
          </Trackpoint>
          <Trackpoint>
            <Time>2022-07-14T13:10:03.000Z</Time>
            <Position>
              <LatitudeDegrees>43.37954484857618808746337890625</LatitudeDegrees>
              <LongitudeDegrees>-4.0652889199554920196533203125</LongitudeDegrees>
            </Position>
            <AltitudeMeters>41</AltitudeMeters>
            <DistanceMeters>NAN</DistanceMeters>
          </Trackpoint>
          <Trackpoint>
            <Time>2022-07-14T13:10:14.000Z</Time>
            <Position>
              <LatitudeDegrees>43.3795794658362865447998046875</LatitudeDegrees>
              <LongitudeDegrees>-4.0655608288943767547607421875</LongitudeDegrees>
            </Position>
            <AltitudeMeters>41.799999237060546875</AltitudeMeters>
            <DistanceMeters>NAN</DistanceMeters>
          </Trackpoint>
          <Trackpoint>
            <Time>2022-07-14T13:10:19.000Z</Time>
            <Position>
              <LatitudeDegrees>43.3795957267284393310546875</LatitudeDegrees>
              <LongitudeDegrees>-4.06568848527967929840087890625</LongitudeDegrees>
            </Position>
            <AltitudeMeters>42</AltitudeMeters>
            <DistanceMeters>NAN</DistanceMeters>
          </Trackpoint>
          <Trackpoint>
            <Time>2022-07-14T13:10:24.000Z</Time>
            <Position>
              <LatitudeDegrees>43.37961492128670215606689453125</LatitudeDegrees>
              <LongitudeDegrees>-4.0658250264823436737060546875</LongitudeDegrees>
            </Position>
            <AltitudeMeters>42.40000152587890625</AltitudeMeters>
            <DistanceMeters>NAN</DistanceMeters>
          </Trackpoint>
          <Trackpoint>
            <Time>2022-07-14T13:10:34.000Z</Time>
            <Position>
              <LatitudeDegrees>43.3796093054115772247314453125</LatitudeDegrees>
              <LongitudeDegrees>-4.06606458127498626708984375</LongitudeDegrees>
            </Position>
            <AltitudeMeters>43</AltitudeMeters>
            <DistanceMeters>NAN</DistanceMeters>
          </Trackpoint>
          <Trackpoint>
            <Time>2022-07-14T13:10:39.000Z</Time>
            <Position>
              <LatitudeDegrees>43.37958809919655323028564453125</LatitudeDegrees>
              <LongitudeDegrees>-4.06620732508599758148193359375</LongitudeDegrees>
            </Position>
            <AltitudeMeters>43.200000762939453125</AltitudeMeters>
            <DistanceMeters>NAN</DistanceMeters>
          </Trackpoint>
          <Trackpoint>
            <Time>2022-07-14T13:10:43.000Z</Time>
            <Position>
              <LatitudeDegrees>43.3795704133808612823486328125</LatitudeDegrees>
              <LongitudeDegrees>-4.06631746329367160797119140625</LongitudeDegrees>
            </Position>
            <AltitudeMeters>43.200000762939453125</AltitudeMeters>
            <DistanceMeters>NAN</DistanceMeters>
          </Trackpoint>
          <Trackpoint>
            <Time>2022-07-14T13:10:50.000Z</Time>
            <Position>
              <LatitudeDegrees>43.3795355446636676788330078125</LatitudeDegrees>
              <LongitudeDegrees>-4.06651225872337818145751953125</LongitudeDegrees>
            </Position>
            <AltitudeMeters>43.59999847412109375</AltitudeMeters>
            <DistanceMeters>NAN</DistanceMeters>
          </Trackpoint>
          <Trackpoint>
            <Time>2022-07-14T13:10:58.000Z</Time>
            <Position>
              <LatitudeDegrees>43.3795107342302799224853515625</LatitudeDegrees>
              <LongitudeDegrees>-4.0667228959500789642333984375</LongitudeDegrees>
            </Position>
            <AltitudeMeters>44</AltitudeMeters>
            <DistanceMeters>NAN</DistanceMeters>
          </Trackpoint>
          <Trackpoint>
            <Time>2022-07-14T13:11:02.000Z</Time>
            <Position>
              <LatitudeDegrees>43.37950159795582294464111328125</LatitudeDegrees>
              <LongitudeDegrees>-4.066833369433879852294921875</LongitudeDegrees>
            </Position>
            <AltitudeMeters>44.200000762939453125</AltitudeMeters>
            <DistanceMeters>NAN</DistanceMeters>
          </Trackpoint>
          <Trackpoint>
            <Time>2022-07-14T13:11:04.000Z</Time>
            <Position>
              <LatitudeDegrees>43.37949405424296855926513671875</LatitudeDegrees>
              <LongitudeDegrees>-4.066880308091640472412109375</LongitudeDegrees>
            </Position>
            <AltitudeMeters>44.40000152587890625</AltitudeMeters>
            <DistanceMeters>NAN</DistanceMeters>
          </Trackpoint>
          <Trackpoint>
            <Time>2022-07-14T13:11:06.000Z</Time>
            <Position>
              <LatitudeDegrees>43.3794844150543212890625</LatitudeDegrees>
              <LongitudeDegrees>-4.066911153495311737060546875</LongitudeDegrees>
            </Position>
            <AltitudeMeters>44.40000152587890625</AltitudeMeters>
            <DistanceMeters>NAN</DistanceMeters>
          </Trackpoint>
          <Trackpoint>
            <Time>2022-07-14T13:11:10.000Z</Time>
            <Position>
              <LatitudeDegrees>43.37945532985031604766845703125</LatitudeDegrees>
              <LongitudeDegrees>-4.0669906139373779296875</LongitudeDegrees>
            </Position>
            <AltitudeMeters>44.59999847412109375</AltitudeMeters>
            <DistanceMeters>NAN</DistanceMeters>
          </Trackpoint>
          <Trackpoint>
            <Time>2022-07-14T13:11:11.000Z</Time>
            <Position>
              <LatitudeDegrees>43.379454575479030609130859375</LatitudeDegrees>
              <LongitudeDegrees>-4.06701634638011455535888671875</LongitudeDegrees>
            </Position>
            <AltitudeMeters>44.59999847412109375</AltitudeMeters>
            <DistanceMeters>NAN</DistanceMeters>
          </Trackpoint>
          <Trackpoint>
            <Time>2022-07-14T13:11:15.000Z</Time>
            <Position>
              <LatitudeDegrees>43.3794589340686798095703125</LatitudeDegrees>
              <LongitudeDegrees>-4.067100584506988525390625</LongitudeDegrees>
            </Position>
            <AltitudeMeters>44.799999237060546875</AltitudeMeters>
            <DistanceMeters>NAN</DistanceMeters>
          </Trackpoint>
          <Trackpoint>
            <Time>2022-07-14T13:11:17.000Z</Time>
            <Position>
              <LatitudeDegrees>43.3794560842216014862060546875</LatitudeDegrees>
              <LongitudeDegrees>-4.06716470606625080108642578125</LongitudeDegrees>
            </Position>
            <AltitudeMeters>44.799999237060546875</AltitudeMeters>
            <DistanceMeters>NAN</DistanceMeters>
          </Trackpoint>
          <Trackpoint>
            <Time>2022-07-14T13:11:21.000Z</Time>
            <Position>
              <LatitudeDegrees>43.3794616162776947021484375</LatitudeDegrees>
              <LongitudeDegrees>-4.067302756011486053466796875</LongitudeDegrees>
            </Position>
            <AltitudeMeters>45.200000762939453125</AltitudeMeters>
            <DistanceMeters>NAN</DistanceMeters>
          </Trackpoint>
          <Trackpoint>
            <Time>2022-07-14T13:11:22.000Z</Time>
            <Position>
              <LatitudeDegrees>43.379462622106075286865234375</LatitudeDegrees>
              <LongitudeDegrees>-4.067331589758396148681640625</LongitudeDegrees>
            </Position>
            <AltitudeMeters>45.200000762939453125</AltitudeMeters>
            <DistanceMeters>NAN</DistanceMeters>
          </Trackpoint>
          <Trackpoint>
            <Time>2022-07-14T13:11:23.000Z</Time>
            <Position>
              <LatitudeDegrees>43.37946672923862934112548828125</LatitudeDegrees>
              <LongitudeDegrees>-4.06736008822917938232421875</LongitudeDegrees>
            </Position>
            <AltitudeMeters>45.40000152587890625</AltitudeMeters>
            <DistanceMeters>NAN</DistanceMeters>
          </Trackpoint>
          <Trackpoint>
            <Time>2022-07-14T13:11:31.000Z</Time>
            <Position>
              <LatitudeDegrees>43.3795335330069065093994140625</LatitudeDegrees>
              <LongitudeDegrees>-4.0675637684762477874755859375</LongitudeDegrees>
            </Position>
            <AltitudeMeters>45.59999847412109375</AltitudeMeters>
            <DistanceMeters>NAN</DistanceMeters>
          </Trackpoint>
          <Trackpoint>
            <Time>2022-07-14T13:11:38.000Z</Time>
            <Position>
              <LatitudeDegrees>43.3796009235084056854248046875</LatitudeDegrees>
              <LongitudeDegrees>-4.067768119275569915771484375</LongitudeDegrees>
            </Position>
            <AltitudeMeters>45.59999847412109375</AltitudeMeters>
            <DistanceMeters>NAN</DistanceMeters>
          </Trackpoint>
          <Trackpoint>
            <Time>2022-07-14T13:11:46.000Z</Time>
            <Position>
              <LatitudeDegrees>43.37966420687735080718994140625</LatitudeDegrees>
              <LongitudeDegrees>-4.06805151142179965972900390625</LongitudeDegrees>
            </Position>
            <AltitudeMeters>45.200000762939453125</AltitudeMeters>
            <DistanceMeters>NAN</DistanceMeters>
          </Trackpoint>
          <Trackpoint>
            <Time>2022-07-14T13:11:53.000Z</Time>
            <Position>
              <LatitudeDegrees>43.37972455658018589019775390625</LatitudeDegrees>
              <LongitudeDegrees>-4.0683442912995815277099609375</LongitudeDegrees>
            </Position>
            <AltitudeMeters>45.40000152587890625</AltitudeMeters>
            <DistanceMeters>NAN</DistanceMeters>
          </Trackpoint>
          <Trackpoint>
            <Time>2022-07-14T13:12:00.000Z</Time>
            <Position>
              <LatitudeDegrees>43.3797732554376125335693359375</LatitudeDegrees>
              <LongitudeDegrees>-4.06865618191659450531005859375</LongitudeDegrees>
            </Position>
            <AltitudeMeters>45.59999847412109375</AltitudeMeters>
            <DistanceMeters>NAN</DistanceMeters>
          </Trackpoint>
          <Trackpoint>
            <Time>2022-07-14T13:12:07.000Z</Time>
            <Position>
              <LatitudeDegrees>43.3798158355057239532470703125</LatitudeDegrees>
              <LongitudeDegrees>-4.06894301064312458038330078125</LongitudeDegrees>
            </Position>
            <AltitudeMeters>46</AltitudeMeters>
            <DistanceMeters>NAN</DistanceMeters>
          </Trackpoint>
          <Trackpoint>
            <Time>2022-07-14T13:12:14.000Z</Time>
            <Position>
              <LatitudeDegrees>43.3798451721668243408203125</LatitudeDegrees>
              <LongitudeDegrees>-4.0692186914384365081787109375</LongitudeDegrees>
            </Position>
            <AltitudeMeters>46.200000762939453125</AltitudeMeters>
            <DistanceMeters>NAN</DistanceMeters>
          </Trackpoint>
          <Trackpoint>
            <Time>2022-07-14T13:12:19.000Z</Time>
            <Position>
              <LatitudeDegrees>43.3798771910369396209716796875</LatitudeDegrees>
              <LongitudeDegrees>-4.06940183602273464202880859375</LongitudeDegrees>
            </Position>
            <AltitudeMeters>46.200000762939453125</AltitudeMeters>
            <DistanceMeters>NAN</DistanceMeters>
          </Trackpoint>
          <Trackpoint>
            <Time>2022-07-14T13:12:20.000Z</Time>
            <Position>
              <LatitudeDegrees>43.3798815496265888214111328125</LatitudeDegrees>
              <LongitudeDegrees>-4.069435112178325653076171875</LongitudeDegrees>
            </Position>
            <AltitudeMeters>46.200000762939453125</AltitudeMeters>
            <DistanceMeters>NAN</DistanceMeters>
          </Trackpoint>
          <Trackpoint>
            <Time>2022-07-14T13:12:23.000Z</Time>
            <Position>
              <LatitudeDegrees>43.3798899315297603607177734375</LatitudeDegrees>
              <LongitudeDegrees>-4.06954206526279449462890625</LongitudeDegrees>
            </Position>
            <AltitudeMeters>46.200000762939453125</AltitudeMeters>
            <DistanceMeters>NAN</DistanceMeters>
          </Trackpoint>
          <Trackpoint>
            <Time>2022-07-14T13:12:34.000Z</Time>
            <Position>
              <LatitudeDegrees>43.37987341918051242828369140625</LatitudeDegrees>
              <LongitudeDegrees>-4.06999393366277217864990234375</LongitudeDegrees>
            </Position>
            <AltitudeMeters>46.799999237060546875</AltitudeMeters>
            <DistanceMeters>NAN</DistanceMeters>
          </Trackpoint>
          <Trackpoint>
            <Time>2022-07-14T13:12:43.000Z</Time>
            <Position>
              <LatitudeDegrees>43.37982849217951297760009765625</LatitudeDegrees>
              <LongitudeDegrees>-4.0703603066504001617431640625</LongitudeDegrees>
            </Position>
            <AltitudeMeters>46.799999237060546875</AltitudeMeters>
            <DistanceMeters>NAN</DistanceMeters>
          </Trackpoint>
          <Trackpoint>
            <Time>2022-07-14T13:12:47.000Z</Time>
            <Position>
              <LatitudeDegrees>43.37979664094746112823486328125</LatitudeDegrees>
              <LongitudeDegrees>-4.07052836380898952484130859375</LongitudeDegrees>
            </Position>
            <AltitudeMeters>46.59999847412109375</AltitudeMeters>
            <DistanceMeters>NAN</DistanceMeters>
          </Trackpoint>
          <Trackpoint>
            <Time>2022-07-14T13:12:53.000Z</Time>
            <Position>
              <LatitudeDegrees>43.37976847775280475616455078125</LatitudeDegrees>
              <LongitudeDegrees>-4.0707854367792606353759765625</LongitudeDegrees>
            </Position>
            <AltitudeMeters>46.59999847412109375</AltitudeMeters>
            <DistanceMeters>NAN</DistanceMeters>
          </Trackpoint>
          <Trackpoint>
            <Time>2022-07-14T13:13:02.000Z</Time>
            <Position>
              <LatitudeDegrees>43.37972606532275676727294921875</LatitudeDegrees>
              <LongitudeDegrees>-4.0711534023284912109375</LongitudeDegrees>
            </Position>
            <AltitudeMeters>46.59999847412109375</AltitudeMeters>
            <DistanceMeters>NAN</DistanceMeters>
          </Trackpoint>
          <Trackpoint>
            <Time>2022-07-14T13:13:12.000Z</Time>
            <Position>
              <LatitudeDegrees>43.3796800486743450164794921875</LatitudeDegrees>
              <LongitudeDegrees>-4.07158750109374523162841796875</LongitudeDegrees>
            </Position>
            <AltitudeMeters>46.59999847412109375</AltitudeMeters>
            <DistanceMeters>NAN</DistanceMeters>
          </Trackpoint>
          <Trackpoint>
            <Time>2022-07-14T13:13:19.000Z</Time>
            <Position>
              <LatitudeDegrees>43.3796441741287708282470703125</LatitudeDegrees>
              <LongitudeDegrees>-4.07189712859690189361572265625</LongitudeDegrees>
            </Position>
            <AltitudeMeters>46.59999847412109375</AltitudeMeters>
            <DistanceMeters>NAN</DistanceMeters>
          </Trackpoint>
          <Trackpoint>
            <Time>2022-07-14T13:13:23.000Z</Time>
            <Position>
              <LatitudeDegrees>43.3796133287250995635986328125</LatitudeDegrees>
              <LongitudeDegrees>-4.07204012386500835418701171875</LongitudeDegrees>
            </Position>
            <AltitudeMeters>46.59999847412109375</AltitudeMeters>
            <DistanceMeters>NAN</DistanceMeters>
          </Trackpoint>
          <Trackpoint>
            <Time>2022-07-14T13:13:29.000Z</Time>
            <Position>
              <LatitudeDegrees>43.3795828185975551605224609375</LatitudeDegrees>
              <LongitudeDegrees>-4.07231706194579601287841796875</LongitudeDegrees>
            </Position>
            <AltitudeMeters>46.59999847412109375</AltitudeMeters>
            <DistanceMeters>NAN</DistanceMeters>
          </Trackpoint>
          <Trackpoint>
            <Time>2022-07-14T13:13:39.000Z</Time>
            <Position>
              <LatitudeDegrees>43.37955021299421787261962890625</LatitudeDegrees>
              <LongitudeDegrees>-4.07279684208333492279052734375</LongitudeDegrees>
            </Position>
            <AltitudeMeters>47</AltitudeMeters>
            <DistanceMeters>NAN</DistanceMeters>
          </Trackpoint>
          <Trackpoint>
            <Time>2022-07-14T13:13:48.000Z</Time>
            <Position>
              <LatitudeDegrees>43.37959379889070987701416015625</LatitudeDegrees>
              <LongitudeDegrees>-4.07325449399650096893310546875</LongitudeDegrees>
            </Position>
            <AltitudeMeters>47</AltitudeMeters>
            <DistanceMeters>NAN</DistanceMeters>
          </Trackpoint>
          <Trackpoint>
            <Time>2022-07-14T13:13:52.000Z</Time>
            <Position>
              <LatitudeDegrees>43.3796346187591552734375</LatitudeDegrees>
              <LongitudeDegrees>-4.07344677485525608062744140625</LongitudeDegrees>
            </Position>
            <AltitudeMeters>47</AltitudeMeters>
            <DistanceMeters>NAN</DistanceMeters>
          </Trackpoint>
          <Trackpoint>
            <Time>2022-07-14T13:13:58.000Z</Time>
            <Position>
              <LatitudeDegrees>43.3797139115631580352783203125</LatitudeDegrees>
              <LongitudeDegrees>-4.0737043507397174835205078125</LongitudeDegrees>
            </Position>
            <AltitudeMeters>47.200000762939453125</AltitudeMeters>
            <DistanceMeters>NAN</DistanceMeters>
          </Trackpoint>
          <Trackpoint>
            <Time>2022-07-14T13:14:03.000Z</Time>
            <Position>
              <LatitudeDegrees>43.37976344861090183258056640625</LatitudeDegrees>
              <LongitudeDegrees>-4.0738760121166706085205078125</LongitudeDegrees>
            </Position>
            <AltitudeMeters>47.59999847412109375</AltitudeMeters>
            <DistanceMeters>NAN</DistanceMeters>
          </Trackpoint>
          <Trackpoint>
            <Time>2022-07-14T13:14:09.000Z</Time>
            <Position>
              <LatitudeDegrees>43.379807285964488983154296875</LatitudeDegrees>
              <LongitudeDegrees>-4.07405513338744640350341796875</LongitudeDegrees>
            </Position>
            <AltitudeMeters>48</AltitudeMeters>
            <DistanceMeters>NAN</DistanceMeters>
          </Trackpoint>
          <Trackpoint>
            <Time>2022-07-14T13:14:14.000Z</Time>
            <Position>
              <LatitudeDegrees>43.37983402423560619354248046875</LatitudeDegrees>
              <LongitudeDegrees>-4.0741921775043010711669921875</LongitudeDegrees>
            </Position>
            <AltitudeMeters>48.200000762939453125</AltitudeMeters>
            <DistanceMeters>NAN</DistanceMeters>
          </Trackpoint>
          <Trackpoint>
            <Time>2022-07-14T13:14:17.000Z</Time>
            <Position>
              <LatitudeDegrees>43.37985179387032985687255859375</LatitudeDegrees>
              <LongitudeDegrees>-4.07426468096673488616943359375</LongitudeDegrees>
            </Position>
            <AltitudeMeters>48.40000152587890625</AltitudeMeters>
            <DistanceMeters>NAN</DistanceMeters>
          </Trackpoint>
          <Trackpoint>
            <Time>2022-07-14T13:14:19.000Z</Time>
            <Position>
              <LatitudeDegrees>43.3798594214022159576416015625</LatitudeDegrees>
              <LongitudeDegrees>-4.07432201318442821502685546875</LongitudeDegrees>
            </Position>
            <AltitudeMeters>48.40000152587890625</AltitudeMeters>
            <DistanceMeters>NAN</DistanceMeters>
          </Trackpoint>
          <Trackpoint>
            <Time>2022-07-14T13:14:20.000Z</Time>
            <Position>
              <LatitudeDegrees>43.379864282906055450439453125</LatitudeDegrees>
              <LongitudeDegrees>-4.07434414140880107879638671875</LongitudeDegrees>
            </Position>
            <AltitudeMeters>48.40000152587890625</AltitudeMeters>
            <DistanceMeters>NAN</DistanceMeters>
          </Trackpoint>
          <Trackpoint>
            <Time>2022-07-14T13:14:23.000Z</Time>
            <Position>
              <LatitudeDegrees>43.37988674640655517578125</LatitudeDegrees>
              <LongitudeDegrees>-4.07440365292131900787353515625</LongitudeDegrees>
            </Position>
            <AltitudeMeters>48.799999237060546875</AltitudeMeters>
            <DistanceMeters>NAN</DistanceMeters>
          </Trackpoint>
          <Trackpoint>
            <Time>2022-07-14T13:14:28.000Z</Time>
            <Position>
              <LatitudeDegrees>43.3799335174262523651123046875</LatitudeDegrees>
              <LongitudeDegrees>-4.07453642226755619049072265625</LongitudeDegrees>
            </Position>
            <AltitudeMeters>49.40000152587890625</AltitudeMeters>
            <DistanceMeters>NAN</DistanceMeters>
          </Trackpoint>
          <Trackpoint>
            <Time>2022-07-14T13:14:29.000Z</Time>
            <Position>
              <LatitudeDegrees>43.37993494234979152679443359375</LatitudeDegrees>
              <LongitudeDegrees>-4.0745666809380054473876953125</LongitudeDegrees>
            </Position>
            <AltitudeMeters>49.40000152587890625</AltitudeMeters>
            <DistanceMeters>NAN</DistanceMeters>
          </Trackpoint>
          <Trackpoint>
            <Time>2022-07-14T13:14:35.000Z</Time>
            <Position>
              <LatitudeDegrees>43.3799469284713268280029296875</LatitudeDegrees>
              <LongitudeDegrees>-4.07470691017806529998779296875</LongitudeDegrees>
            </Position>
            <AltitudeMeters>50.200000762939453125</AltitudeMeters>
            <DistanceMeters>NAN</DistanceMeters>
          </Trackpoint>
          <Trackpoint>
            <Time>2022-07-14T13:14:37.000Z</Time>
            <Position>
              <LatitudeDegrees>43.3799341879785060882568359375</LatitudeDegrees>
              <LongitudeDegrees>-4.07474697567522525787353515625</LongitudeDegrees>
            </Position>
            <AltitudeMeters>50.40000152587890625</AltitudeMeters>
            <DistanceMeters>NAN</DistanceMeters>
          </Trackpoint>
          <Trackpoint>
            <Time>2022-07-14T13:14:38.000Z</Time>
            <Position>
              <LatitudeDegrees>43.37993209250271320343017578125</LatitudeDegrees>
              <LongitudeDegrees>-4.07477446831762790679931640625</LongitudeDegrees>
            </Position>
            <AltitudeMeters>50.40000152587890625</AltitudeMeters>
            <DistanceMeters>NAN</DistanceMeters>
          </Trackpoint>
          <Trackpoint>
            <Time>2022-07-14T13:14:39.000Z</Time>
            <Position>
              <LatitudeDegrees>43.3799310028553009033203125</LatitudeDegrees>
              <LongitudeDegrees>-4.07479994930326938629150390625</LongitudeDegrees>
            </Position>
            <AltitudeMeters>50.40000152587890625</AltitudeMeters>
            <DistanceMeters>NAN</DistanceMeters>
          </Trackpoint>
          <Trackpoint>
            <Time>2022-07-14T13:14:41.000Z</Time>
            <Position>
              <LatitudeDegrees>43.3799439109861850738525390625</LatitudeDegrees>
              <LongitudeDegrees>-4.07484621740877628326416015625</LongitudeDegrees>
            </Position>
            <AltitudeMeters>50.59999847412109375</AltitudeMeters>
            <DistanceMeters>NAN</DistanceMeters>
          </Trackpoint>
          <Trackpoint>
            <Time>2022-07-14T13:14:50.000Z</Time>
            <Position>
              <LatitudeDegrees>43.37997752241790294647216796875</LatitudeDegrees>
              <LongitudeDegrees>-4.07514117658138275146484375</LongitudeDegrees>
            </Position>
            <AltitudeMeters>51.200000762939453125</AltitudeMeters>
            <DistanceMeters>NAN</DistanceMeters>
          </Trackpoint>
          <Trackpoint>
            <Time>2022-07-14T13:14:51.000Z</Time>
            <Position>
              <LatitudeDegrees>43.37998238392174243927001953125</LatitudeDegrees>
              <LongitudeDegrees>-4.0751671604812145233154296875</LongitudeDegrees>
            </Position>
            <AltitudeMeters>51.59999847412109375</AltitudeMeters>
            <DistanceMeters>NAN</DistanceMeters>
          </Trackpoint>
          <Trackpoint>
            <Time>2022-07-14T13:14:52.000Z</Time>
            <Position>
              <LatitudeDegrees>43.3799844793975353240966796875</LatitudeDegrees>
              <LongitudeDegrees>-4.0751939825713634490966796875</LongitudeDegrees>
            </Position>
            <AltitudeMeters>51.59999847412109375</AltitudeMeters>
            <DistanceMeters>NAN</DistanceMeters>
          </Trackpoint>
          <Trackpoint>
            <Time>2022-07-14T13:14:58.000Z</Time>
            <Position>
              <LatitudeDegrees>43.37998724542558193206787109375</LatitudeDegrees>
              <LongitudeDegrees>-4.0753700025379657745361328125</LongitudeDegrees>
            </Position>
            <AltitudeMeters>52.799999237060546875</AltitudeMeters>
            <DistanceMeters>NAN</DistanceMeters>
          </Trackpoint>
          <Trackpoint>
            <Time>2022-07-14T13:15:08.000Z</Time>
            <Position>
              <LatitudeDegrees>43.37997769005596637725830078125</LatitudeDegrees>
              <LongitudeDegrees>-4.0756331942975521087646484375</LongitudeDegrees>
            </Position>
            <AltitudeMeters>53.200000762939453125</AltitudeMeters>
            <DistanceMeters>NAN</DistanceMeters>
          </Trackpoint>
          <Trackpoint>
            <Time>2022-07-14T13:15:20.000Z</Time>
            <Position>
              <LatitudeDegrees>43.37996494956314563751220703125</LatitudeDegrees>
              <LongitudeDegrees>-4.075942821800708770751953125</LongitudeDegrees>
            </Position>
            <AltitudeMeters>53.799999237060546875</AltitudeMeters>
            <DistanceMeters>NAN</DistanceMeters>
          </Trackpoint>
          <Trackpoint>
            <Time>2022-07-14T13:15:22.000Z</Time>
            <Position>
              <LatitudeDegrees>43.37996159680187702178955078125</LatitudeDegrees>
              <LongitudeDegrees>-4.0759905986487865447998046875</LongitudeDegrees>
            </Position>
            <AltitudeMeters>54</AltitudeMeters>
            <DistanceMeters>NAN</DistanceMeters>
          </Trackpoint>
          <Trackpoint>
            <Time>2022-07-14T13:15:31.000Z</Time>
            <Position>
              <LatitudeDegrees>43.3799475990235805511474609375</LatitudeDegrees>
              <LongitudeDegrees>-4.0762108750641345977783203125</LongitudeDegrees>
            </Position>
            <AltitudeMeters>54.799999237060546875</AltitudeMeters>
            <DistanceMeters>NAN</DistanceMeters>
          </Trackpoint>
          <Trackpoint>
            <Time>2022-07-14T13:15:33.000Z</Time>
            <Position>
              <LatitudeDegrees>43.37994785048067569732666015625</LatitudeDegrees>
              <LongitudeDegrees>-4.07625085674226284027099609375</LongitudeDegrees>
            </Position>
            <AltitudeMeters>55</AltitudeMeters>
            <DistanceMeters>NAN</DistanceMeters>
          </Trackpoint>
          <Trackpoint>
            <Time>2022-07-14T13:15:43.000Z</Time>
            <Position>
              <LatitudeDegrees>43.37995606474578380584716796875</LatitudeDegrees>
              <LongitudeDegrees>-4.0765045769512653350830078125</LongitudeDegrees>
            </Position>
            <AltitudeMeters>55.59999847412109375</AltitudeMeters>
            <DistanceMeters>NAN</DistanceMeters>
          </Trackpoint>
          <Trackpoint>
            <Time>2022-07-14T13:15:49.000Z</Time>
            <Position>
              <LatitudeDegrees>43.3799771033227443695068359375</LatitudeDegrees>
              <LongitudeDegrees>-4.0766588039696216583251953125</LongitudeDegrees>
            </Position>
            <AltitudeMeters>55.799999237060546875</AltitudeMeters>
            <DistanceMeters>NAN</DistanceMeters>
          </Trackpoint>
          <Trackpoint>
            <Time>2022-07-14T13:15:53.000Z</Time>
            <Position>
              <LatitudeDegrees>43.37998758070170879364013671875</LatitudeDegrees>
              <LongitudeDegrees>-4.07676718197762966156005859375</LongitudeDegrees>
            </Position>
            <AltitudeMeters>56.200000762939453125</AltitudeMeters>
            <DistanceMeters>NAN</DistanceMeters>
          </Trackpoint>
          <Trackpoint>
            <Time>2022-07-14T13:16:01.000Z</Time>
            <Position>
              <LatitudeDegrees>43.38003451935946941375732421875</LatitudeDegrees>
              <LongitudeDegrees>-4.076968766748905181884765625</LongitudeDegrees>
            </Position>
            <AltitudeMeters>56.59999847412109375</AltitudeMeters>
            <DistanceMeters>NAN</DistanceMeters>
          </Trackpoint>
          <Trackpoint>
            <Time>2022-07-14T13:16:05.000Z</Time>
            <Position>
              <LatitudeDegrees>43.38006217963993549346923828125</LatitudeDegrees>
              <LongitudeDegrees>-4.07705769874155521392822265625</LongitudeDegrees>
            </Position>
            <AltitudeMeters>56.799999237060546875</AltitudeMeters>
            <DistanceMeters>NAN</DistanceMeters>
          </Trackpoint>
          <Trackpoint>
            <Time>2022-07-14T13:16:08.000Z</Time>
            <Position>
              <LatitudeDegrees>43.380080200731754302978515625</LatitudeDegrees>
              <LongitudeDegrees>-4.07711536623537540435791015625</LongitudeDegrees>
            </Position>
            <AltitudeMeters>57</AltitudeMeters>
            <DistanceMeters>NAN</DistanceMeters>
          </Trackpoint>
          <Trackpoint>
            <Time>2022-07-14T13:16:17.000Z</Time>
            <Position>
              <LatitudeDegrees>43.38015806861221790313720703125</LatitudeDegrees>
              <LongitudeDegrees>-4.0773077309131622314453125</LongitudeDegrees>
            </Position>
            <AltitudeMeters>57.40000152587890625</AltitudeMeters>
            <DistanceMeters>NAN</DistanceMeters>
          </Trackpoint>
          <Trackpoint>
            <Time>2022-07-14T13:16:21.000Z</Time>
            <Position>
              <LatitudeDegrees>43.38019260205328464508056640625</LatitudeDegrees>
              <LongitudeDegrees>-4.07739968039095401763916015625</LongitudeDegrees>
            </Position>
            <AltitudeMeters>57.799999237060546875</AltitudeMeters>
            <DistanceMeters>NAN</DistanceMeters>
          </Trackpoint>
          <Trackpoint>
            <Time>2022-07-14T13:16:22.000Z</Time>
            <Position>
              <LatitudeDegrees>43.38019855320453643798828125</LatitudeDegrees>
              <LongitudeDegrees>-4.07741929404437541961669921875</LongitudeDegrees>
            </Position>
            <AltitudeMeters>58</AltitudeMeters>
            <DistanceMeters>NAN</DistanceMeters>
          </Trackpoint>
          <Trackpoint>
            <Time>2022-07-14T13:16:31.000Z</Time>
            <Position>
              <LatitudeDegrees>43.3802704699337482452392578125</LatitudeDegrees>
              <LongitudeDegrees>-4.07761593349277973175048828125</LongitudeDegrees>
            </Position>
            <AltitudeMeters>58.40000152587890625</AltitudeMeters>
            <DistanceMeters>NAN</DistanceMeters>
          </Trackpoint>
          <Trackpoint>
            <Time>2022-07-14T13:16:36.000Z</Time>
            <Position>
              <LatitudeDegrees>43.38031112216413021087646484375</LatitudeDegrees>
              <LongitudeDegrees>-4.07772188074886798858642578125</LongitudeDegrees>
            </Position>
            <AltitudeMeters>59.200000762939453125</AltitudeMeters>
            <DistanceMeters>NAN</DistanceMeters>
          </Trackpoint>
          <Trackpoint>
            <Time>2022-07-14T13:16:40.000Z</Time>
            <Position>
              <LatitudeDegrees>43.3803415484726428985595703125</LatitudeDegrees>
              <LongitudeDegrees>-4.07778843306005001068115234375</LongitudeDegrees>
            </Position>
            <AltitudeMeters>59.59999847412109375</AltitudeMeters>
            <DistanceMeters>NAN</DistanceMeters>
          </Trackpoint>
          <Trackpoint>
            <Time>2022-07-14T13:16:47.000Z</Time>
            <Position>
              <LatitudeDegrees>43.38040315546095371246337890625</LatitudeDegrees>
              <LongitudeDegrees>-4.07793042249977588653564453125</LongitudeDegrees>
            </Position>
            <AltitudeMeters>59.799999237060546875</AltitudeMeters>
            <DistanceMeters>NAN</DistanceMeters>
          </Trackpoint>
          <Trackpoint>
            <Time>2022-07-14T13:16:51.000Z</Time>
            <Position>
              <LatitudeDegrees>43.3804444782435894012451171875</LatitudeDegrees>
              <LongitudeDegrees>-4.077990353107452392578125</LongitudeDegrees>
            </Position>
            <AltitudeMeters>60.200000762939453125</AltitudeMeters>
            <DistanceMeters>NAN</DistanceMeters>
          </Trackpoint>
          <Trackpoint>
            <Time>2022-07-14T13:17:01.000Z</Time>
            <Position>
              <LatitudeDegrees>43.38054179213941097259521484375</LatitudeDegrees>
              <LongitudeDegrees>-4.0781625173985958099365234375</LongitudeDegrees>
            </Position>
            <AltitudeMeters>60.799999237060546875</AltitudeMeters>
            <DistanceMeters>NAN</DistanceMeters>
          </Trackpoint>
          <Trackpoint>
            <Time>2022-07-14T13:17:06.000Z</Time>
            <Position>
              <LatitudeDegrees>43.380581103265285491943359375</LatitudeDegrees>
              <LongitudeDegrees>-4.07826720736920833587646484375</LongitudeDegrees>
            </Position>
            <AltitudeMeters>61.200000762939453125</AltitudeMeters>
            <DistanceMeters>NAN</DistanceMeters>
          </Trackpoint>
          <Trackpoint>
            <Time>2022-07-14T13:17:09.000Z</Time>
            <Position>
              <LatitudeDegrees>43.3806050755083560943603515625</LatitudeDegrees>
              <LongitudeDegrees>-4.07832973636686801910400390625</LongitudeDegrees>
            </Position>
            <AltitudeMeters>61.40000152587890625</AltitudeMeters>
            <DistanceMeters>NAN</DistanceMeters>
          </Trackpoint>
          <Trackpoint>
            <Time>2022-07-14T13:17:18.000Z</Time>
            <Position>
              <LatitudeDegrees>43.38065176270902156829833984375</LatitudeDegrees>
              <LongitudeDegrees>-4.07851749099791049957275390625</LongitudeDegrees>
            </Position>
            <AltitudeMeters>61.40000152587890625</AltitudeMeters>
            <DistanceMeters>NAN</DistanceMeters>
          </Trackpoint>
          <Trackpoint>
            <Time>2022-07-14T13:17:20.000Z</Time>
            <Position>
              <LatitudeDegrees>43.3806520141661167144775390625</LatitudeDegrees>
              <LongitudeDegrees>-4.07856811769306659698486328125</LongitudeDegrees>
            </Position>
            <AltitudeMeters>61.59999847412109375</AltitudeMeters>
            <DistanceMeters>NAN</DistanceMeters>
          </Trackpoint>
          <Trackpoint>
            <Time>2022-07-14T13:17:25.000Z</Time>
            <Position>
              <LatitudeDegrees>43.380658216774463653564453125</LatitudeDegrees>
              <LongitudeDegrees>-4.07867758534848690032958984375</LongitudeDegrees>
            </Position>
            <AltitudeMeters>62.200000762939453125</AltitudeMeters>
            <DistanceMeters>NAN</DistanceMeters>
          </Trackpoint>
          <Trackpoint>
            <Time>2022-07-14T13:17:31.000Z</Time>
            <Position>
              <LatitudeDegrees>43.3806500025093555450439453125</LatitudeDegrees>
              <LongitudeDegrees>-4.0788015536963939666748046875</LongitudeDegrees>
            </Position>
            <AltitudeMeters>62.799999237060546875</AltitudeMeters>
            <DistanceMeters>NAN</DistanceMeters>
          </Trackpoint>
          <Trackpoint>
            <Time>2022-07-14T13:17:35.000Z</Time>
            <Position>
              <LatitudeDegrees>43.38063307106494903564453125</LatitudeDegrees>
              <LongitudeDegrees>-4.078885205090045928955078125</LongitudeDegrees>
            </Position>
            <AltitudeMeters>63.200000762939453125</AltitudeMeters>
            <DistanceMeters>NAN</DistanceMeters>
          </Trackpoint>
          <Trackpoint>
            <Time>2022-07-14T13:17:41.000Z</Time>
            <Position>
              <LatitudeDegrees>43.38062695227563381195068359375</LatitudeDegrees>
              <LongitudeDegrees>-4.0790275298058986663818359375</LongitudeDegrees>
            </Position>
            <AltitudeMeters>63.59999847412109375</AltitudeMeters>
            <DistanceMeters>NAN</DistanceMeters>
          </Trackpoint>
          <Trackpoint>
            <Time>2022-07-14T13:17:49.000Z</Time>
            <Position>
              <LatitudeDegrees>43.380640447139739990234375</LatitudeDegrees>
              <LongitudeDegrees>-4.07920313067734241485595703125</LongitudeDegrees>
            </Position>
            <AltitudeMeters>64</AltitudeMeters>
            <DistanceMeters>NAN</DistanceMeters>
          </Trackpoint>
          <Trackpoint>
            <Time>2022-07-14T13:17:52.000Z</Time>
            <Position>
              <LatitudeDegrees>43.38065796531736850738525390625</LatitudeDegrees>
              <LongitudeDegrees>-4.07925979234278202056884765625</LongitudeDegrees>
            </Position>
            <AltitudeMeters>64.40000152587890625</AltitudeMeters>
            <DistanceMeters>NAN</DistanceMeters>
          </Trackpoint>
          <Trackpoint>
            <Time>2022-07-14T13:17:59.000Z</Time>
            <Position>
              <LatitudeDegrees>43.38070238940417766571044921875</LatitudeDegrees>
              <LongitudeDegrees>-4.0794013626873493194580078125</LongitudeDegrees>
            </Position>
            <AltitudeMeters>65</AltitudeMeters>
            <DistanceMeters>NAN</DistanceMeters>
          </Trackpoint>
          <Trackpoint>
            <Time>2022-07-14T13:18:02.000Z</Time>
            <Position>
              <LatitudeDegrees>43.38071747682988643646240234375</LatitudeDegrees>
              <LongitudeDegrees>-4.0794508159160614013671875</LongitudeDegrees>
            </Position>
            <AltitudeMeters>65.40000152587890625</AltitudeMeters>
            <DistanceMeters>NAN</DistanceMeters>
          </Trackpoint>
          <Trackpoint>
            <Time>2022-07-14T13:18:10.000Z</Time>
            <Position>
              <LatitudeDegrees>43.380770199000835418701171875</LatitudeDegrees>
              <LongitudeDegrees>-4.07959272153675556182861328125</LongitudeDegrees>
            </Position>
            <AltitudeMeters>66</AltitudeMeters>
            <DistanceMeters>NAN</DistanceMeters>
          </Trackpoint>
          <Trackpoint>
            <Time>2022-07-14T13:18:11.000Z</Time>
            <Position>
              <LatitudeDegrees>43.3807750605046749114990234375</LatitudeDegrees>
              <LongitudeDegrees>-4.07961619086563587188720703125</LongitudeDegrees>
            </Position>
            <AltitudeMeters>66</AltitudeMeters>
            <DistanceMeters>NAN</DistanceMeters>
          </Trackpoint>
          <Trackpoint>
            <Time>2022-07-14T13:18:19.000Z</Time>
            <Position>
              <LatitudeDegrees>43.3808246813714504241943359375</LatitudeDegrees>
              <LongitudeDegrees>-4.07978617586195468902587890625</LongitudeDegrees>
            </Position>
            <AltitudeMeters>66.40000152587890625</AltitudeMeters>
            <DistanceMeters>NAN</DistanceMeters>
          </Trackpoint>
          <Trackpoint>
            <Time>2022-07-14T13:18:20.000Z</Time>
            <Position>
              <LatitudeDegrees>43.3808297105133533477783203125</LatitudeDegrees>
              <LongitudeDegrees>-4.07980495132505893707275390625</LongitudeDegrees>
            </Position>
            <AltitudeMeters>66.59999847412109375</AltitudeMeters>
            <DistanceMeters>NAN</DistanceMeters>
          </Trackpoint>
          <Trackpoint>
            <Time>2022-07-14T13:18:22.000Z</Time>
            <Position>
              <LatitudeDegrees>43.38084236718714237213134765625</LatitudeDegrees>
              <LongitudeDegrees>-4.07983847893774509429931640625</LongitudeDegrees>
            </Position>
            <AltitudeMeters>66.8000030517578125</AltitudeMeters>
            <DistanceMeters>NAN</DistanceMeters>
          </Trackpoint>
          <Trackpoint>
            <Time>2022-07-14T13:18:26.000Z</Time>
            <Position>
              <LatitudeDegrees>43.3808722905814647674560546875</LatitudeDegrees>
              <LongitudeDegrees>-4.0799096412956714630126953125</LongitudeDegrees>
            </Position>
            <AltitudeMeters>67.1999969482421875</AltitudeMeters>
            <DistanceMeters>NAN</DistanceMeters>
          </Trackpoint>
          <Trackpoint>
            <Time>2022-07-14T13:18:30.000Z</Time>
            <Position>
              <LatitudeDegrees>43.3809006214141845703125</LatitudeDegrees>
              <LongitudeDegrees>-4.0799926221370697021484375</LongitudeDegrees>
            </Position>
            <AltitudeMeters>67.40000152587890625</AltitudeMeters>
            <DistanceMeters>NAN</DistanceMeters>
          </Trackpoint>
          <Trackpoint>
            <Time>2022-07-14T13:18:36.000Z</Time>
            <Position>
              <LatitudeDegrees>43.38092853315174579620361328125</LatitudeDegrees>
              <LongitudeDegrees>-4.08010887913405895233154296875</LongitudeDegrees>
            </Position>
            <AltitudeMeters>67.59999847412109375</AltitudeMeters>
            <DistanceMeters>NAN</DistanceMeters>
          </Trackpoint>
          <Trackpoint>
            <Time>2022-07-14T13:18:45.000Z</Time>
            <Position>
              <LatitudeDegrees>43.38098586536943912506103515625</LatitudeDegrees>
              <LongitudeDegrees>-4.08026293851435184478759765625</LongitudeDegrees>
            </Position>
            <AltitudeMeters>68.40000152587890625</AltitudeMeters>
            <DistanceMeters>NAN</DistanceMeters>
          </Trackpoint>
          <Trackpoint>
            <Time>2022-07-14T13:18:46.000Z</Time>
            <Position>
              <LatitudeDegrees>43.38099407963454723358154296875</LatitudeDegrees>
              <LongitudeDegrees>-4.0802834741771221160888671875</LongitudeDegrees>
            </Position>
            <AltitudeMeters>68.59999847412109375</AltitudeMeters>
            <DistanceMeters>NAN</DistanceMeters>
          </Trackpoint>
          <Trackpoint>
            <Time>2022-07-14T13:18:58.000Z</Time>
            <Position>
              <LatitudeDegrees>43.38108946569263935089111328125</LatitudeDegrees>
              <LongitudeDegrees>-4.08052260987460613250732421875</LongitudeDegrees>
            </Position>
            <AltitudeMeters>69.59999847412109375</AltitudeMeters>
            <DistanceMeters>NAN</DistanceMeters>
          </Trackpoint>
          <Trackpoint>
            <Time>2022-07-14T13:19:08.000Z</Time>
            <Position>
              <LatitudeDegrees>43.381150402128696441650390625</LatitudeDegrees>
              <LongitudeDegrees>-4.08072981052100658416748046875</LongitudeDegrees>
            </Position>
            <AltitudeMeters>70.40000152587890625</AltitudeMeters>
            <DistanceMeters>NAN</DistanceMeters>
          </Trackpoint>
          <Trackpoint>
            <Time>2022-07-14T13:19:09.000Z</Time>
            <Position>
              <LatitudeDegrees>43.38115719147026538848876953125</LatitudeDegrees>
              <LongitudeDegrees>-4.08074431121349334716796875</LongitudeDegrees>
            </Position>
            <AltitudeMeters>70.59999847412109375</AltitudeMeters>
            <DistanceMeters>NAN</DistanceMeters>
          </Trackpoint>
          <Trackpoint>
            <Time>2022-07-14T13:19:16.000Z</Time>
            <Position>
              <LatitudeDegrees>43.3812179602682590484619140625</LatitudeDegrees>
              <LongitudeDegrees>-4.0808608196675777435302734375</LongitudeDegrees>
            </Position>
            <AltitudeMeters>71.1999969482421875</AltitudeMeters>
            <DistanceMeters>NAN</DistanceMeters>
          </Trackpoint>
          <Trackpoint>
            <Time>2022-07-14T13:19:22.000Z</Time>
            <Position>
              <LatitudeDegrees>43.381238915026187896728515625</LatitudeDegrees>
              <LongitudeDegrees>-4.08099241554737091064453125</LongitudeDegrees>
            </Position>
            <AltitudeMeters>71.59999847412109375</AltitudeMeters>
            <DistanceMeters>NAN</DistanceMeters>
          </Trackpoint>
          <Trackpoint>
            <Time>2022-07-14T13:19:24.000Z</Time>
            <Position>
              <LatitudeDegrees>43.38124553672969341278076171875</LatitudeDegrees>
              <LongitudeDegrees>-4.08103776164352893829345703125</LongitudeDegrees>
            </Position>
            <AltitudeMeters>71.8000030517578125</AltitudeMeters>
            <DistanceMeters>NAN</DistanceMeters>
          </Trackpoint>
          <Trackpoint>
            <Time>2022-07-14T13:19:31.000Z</Time>
            <Position>
              <LatitudeDegrees>43.3812586963176727294921875</LatitudeDegrees>
              <LongitudeDegrees>-4.08118612132966518402099609375</LongitudeDegrees>
            </Position>
            <AltitudeMeters>72.1999969482421875</AltitudeMeters>
            <DistanceMeters>NAN</DistanceMeters>
          </Trackpoint>
          <Trackpoint>
            <Time>2022-07-14T13:19:34.000Z</Time>
            <Position>
              <LatitudeDegrees>43.38126783259212970733642578125</LatitudeDegrees>
              <LongitudeDegrees>-4.08124865032732486724853515625</LongitudeDegrees>
            </Position>
            <AltitudeMeters>72.40000152587890625</AltitudeMeters>
            <DistanceMeters>NAN</DistanceMeters>
          </Trackpoint>
          <Trackpoint>
            <Time>2022-07-14T13:19:36.000Z</Time>
            <Position>
              <LatitudeDegrees>43.38127068243920803070068359375</LatitudeDegrees>
              <LongitudeDegrees>-4.0812956728041172027587890625</LongitudeDegrees>
            </Position>
            <AltitudeMeters>72.59999847412109375</AltitudeMeters>
            <DistanceMeters>NAN</DistanceMeters>
          </Trackpoint>
          <Trackpoint>
            <Time>2022-07-14T13:19:43.000Z</Time>
            <Position>
              <LatitudeDegrees>43.3812742866575717926025390625</LatitudeDegrees>
              <LongitudeDegrees>-4.08146238885819911956787109375</LongitudeDegrees>
            </Position>
            <AltitudeMeters>73</AltitudeMeters>
            <DistanceMeters>NAN</DistanceMeters>
          </Trackpoint>
          <Trackpoint>
            <Time>2022-07-14T13:19:51.000Z</Time>
            <Position>
              <LatitudeDegrees>43.38128409348428249359130859375</LatitudeDegrees>
              <LongitudeDegrees>-4.08164553344249725341796875</LongitudeDegrees>
            </Position>
            <AltitudeMeters>73.59999847412109375</AltitudeMeters>
            <DistanceMeters>NAN</DistanceMeters>
          </Trackpoint>
          <Trackpoint>
            <Time>2022-07-14T13:19:52.000Z</Time>
            <Position>
              <LatitudeDegrees>43.3812863565981388092041015625</LatitudeDegrees>
              <LongitudeDegrees>-4.08166942186653614044189453125</LongitudeDegrees>
            </Position>
            <AltitudeMeters>73.59999847412109375</AltitudeMeters>
            <DistanceMeters>NAN</DistanceMeters>
          </Trackpoint>
          <Trackpoint>
            <Time>2022-07-14T13:20:03.000Z</Time>
            <Position>
              <LatitudeDegrees>43.38129423558712005615234375</LatitudeDegrees>
              <LongitudeDegrees>-4.0819172747433185577392578125</LongitudeDegrees>
            </Position>
            <AltitudeMeters>74.1999969482421875</AltitudeMeters>
            <DistanceMeters>NAN</DistanceMeters>
          </Trackpoint>
          <Trackpoint>
            <Time>2022-07-14T13:20:09.000Z</Time>
            <Position>
              <LatitudeDegrees>43.38130739517509937286376953125</LatitudeDegrees>
              <LongitudeDegrees>-4.08206035383045673370361328125</LongitudeDegrees>
            </Position>
            <AltitudeMeters>74.8000030517578125</AltitudeMeters>
            <DistanceMeters>NAN</DistanceMeters>
          </Trackpoint>
          <Trackpoint>
            <Time>2022-07-14T13:20:11.000Z</Time>
            <Position>
              <LatitudeDegrees>43.38130873627960681915283203125</LatitudeDegrees>
              <LongitudeDegrees>-4.08209857530891895294189453125</LongitudeDegrees>
            </Position>
            <AltitudeMeters>75</AltitudeMeters>
            <DistanceMeters>NAN</DistanceMeters>
          </Trackpoint>
          <Trackpoint>
            <Time>2022-07-14T13:20:15.000Z</Time>
            <Position>
              <LatitudeDegrees>43.38131125085055828094482421875</LatitudeDegrees>
              <LongitudeDegrees>-4.0821761079132556915283203125</LongitudeDegrees>
            </Position>
            <AltitudeMeters>75</AltitudeMeters>
            <DistanceMeters>NAN</DistanceMeters>
          </Trackpoint>
          <Trackpoint>
            <Time>2022-07-14T13:20:20.000Z</Time>
            <Position>
              <LatitudeDegrees>43.38131477124989032745361328125</LatitudeDegrees>
              <LongitudeDegrees>-4.08228632993996143341064453125</LongitudeDegrees>
            </Position>
            <AltitudeMeters>75</AltitudeMeters>
            <DistanceMeters>NAN</DistanceMeters>
          </Trackpoint>
          <Trackpoint>
            <Time>2022-07-14T13:20:23.000Z</Time>
            <Position>
              <LatitudeDegrees>43.381318710744380950927734375</LatitudeDegrees>
              <LongitudeDegrees>-4.08236713148653507232666015625</LongitudeDegrees>
            </Position>
            <AltitudeMeters>75</AltitudeMeters>
            <DistanceMeters>NAN</DistanceMeters>
          </Trackpoint>
          <Trackpoint>
            <Time>2022-07-14T13:20:32.000Z</Time>
            <Position>
              <LatitudeDegrees>43.38133715093135833740234375</LatitudeDegrees>
              <LongitudeDegrees>-4.08258640207350254058837890625</LongitudeDegrees>
            </Position>
            <AltitudeMeters>75.8000030517578125</AltitudeMeters>
            <DistanceMeters>NAN</DistanceMeters>
          </Trackpoint>
          <Trackpoint>
            <Time>2022-07-14T13:20:40.000Z</Time>
            <Position>
              <LatitudeDegrees>43.38133840821683406829833984375</LatitudeDegrees>
              <LongitudeDegrees>-4.08275655470788478851318359375</LongitudeDegrees>
            </Position>
            <AltitudeMeters>76.40000152587890625</AltitudeMeters>
            <DistanceMeters>NAN</DistanceMeters>
          </Trackpoint>
          <Trackpoint>
            <Time>2022-07-14T13:20:46.000Z</Time>
            <Position>
              <LatitudeDegrees>43.38134896941483020782470703125</LatitudeDegrees>
              <LongitudeDegrees>-4.08288748003542423248291015625</LongitudeDegrees>
            </Position>
            <AltitudeMeters>76.59999847412109375</AltitudeMeters>
            <DistanceMeters>NAN</DistanceMeters>
          </Trackpoint>
          <Trackpoint>
            <Time>2022-07-14T13:20:49.000Z</Time>
            <Position>
              <LatitudeDegrees>43.381361626088619232177734375</LatitudeDegrees>
              <LongitudeDegrees>-4.08293433487415313720703125</LongitudeDegrees>
            </Position>
            <AltitudeMeters>76.8000030517578125</AltitudeMeters>
            <DistanceMeters>NAN</DistanceMeters>
          </Trackpoint>
          <Trackpoint>
            <Time>2022-07-14T13:20:54.000Z</Time>
            <Position>
              <LatitudeDegrees>43.38138182647526264190673828125</LatitudeDegrees>
              <LongitudeDegrees>-4.0830511786043643951416015625</LongitudeDegrees>
            </Position>
            <AltitudeMeters>77.1999969482421875</AltitudeMeters>
            <DistanceMeters>NAN</DistanceMeters>
          </Trackpoint>
          <Trackpoint>
            <Time>2022-07-14T13:21:02.000Z</Time>
            <Position>
              <LatitudeDegrees>43.3813793957233428955078125</LatitudeDegrees>
              <LongitudeDegrees>-4.083233065903186798095703125</LongitudeDegrees>
            </Position>
            <AltitudeMeters>77.59999847412109375</AltitudeMeters>
            <DistanceMeters>NAN</DistanceMeters>
          </Trackpoint>
          <Trackpoint>
            <Time>2022-07-14T13:21:06.000Z</Time>
            <Position>
              <LatitudeDegrees>43.381370007991790771484375</LatitudeDegrees>
              <LongitudeDegrees>-4.08332325518131256103515625</LongitudeDegrees>
            </Position>
            <AltitudeMeters>78</AltitudeMeters>
            <DistanceMeters>NAN</DistanceMeters>
          </Trackpoint>
          <Trackpoint>
            <Time>2022-07-14T13:21:11.000Z</Time>
            <Position>
              <LatitudeDegrees>43.381371684372425079345703125</LatitudeDegrees>
              <LongitudeDegrees>-4.08344135619699954986572265625</LongitudeDegrees>
            </Position>
            <AltitudeMeters>78.40000152587890625</AltitudeMeters>
            <DistanceMeters>NAN</DistanceMeters>
          </Trackpoint>
          <Trackpoint>
            <Time>2022-07-14T13:21:19.000Z</Time>
            <Position>
              <LatitudeDegrees>43.38140043430030345916748046875</LatitudeDegrees>
              <LongitudeDegrees>-4.0836228244006633758544921875</LongitudeDegrees>
            </Position>
            <AltitudeMeters>78.8000030517578125</AltitudeMeters>
            <DistanceMeters>NAN</DistanceMeters>
          </Trackpoint>
          <Trackpoint>
            <Time>2022-07-14T13:21:24.000Z</Time>
            <Position>
              <LatitudeDegrees>43.38140286505222320556640625</LatitudeDegrees>
              <LongitudeDegrees>-4.0837452001869678497314453125</LongitudeDegrees>
            </Position>
            <AltitudeMeters>79</AltitudeMeters>
            <DistanceMeters>NAN</DistanceMeters>
          </Trackpoint>
          <Trackpoint>
            <Time>2022-07-14T13:21:25.000Z</Time>
            <Position>
              <LatitudeDegrees>43.38139951229095458984375</LatitudeDegrees>
              <LongitudeDegrees>-4.08375970087945461273193359375</LongitudeDegrees>
            </Position>
            <AltitudeMeters>79.1999969482421875</AltitudeMeters>
            <DistanceMeters>NAN</DistanceMeters>
          </Trackpoint>
          <Trackpoint>
            <Time>2022-07-14T13:21:26.000Z</Time>
            <Position>
              <LatitudeDegrees>43.38139004074037075042724609375</LatitudeDegrees>
              <LongitudeDegrees>-4.08376841805875301361083984375</LongitudeDegrees>
            </Position>
            <AltitudeMeters>79.1999969482421875</AltitudeMeters>
            <DistanceMeters>NAN</DistanceMeters>
          </Trackpoint>
          <Trackpoint>
            <Time>2022-07-14T13:21:31.000Z</Time>
            <Position>
              <LatitudeDegrees>43.3813118375837802886962890625</LatitudeDegrees>
              <LongitudeDegrees>-4.0837565995752811431884765625</LongitudeDegrees>
            </Position>
            <AltitudeMeters>79.40000152587890625</AltitudeMeters>
            <DistanceMeters>NAN</DistanceMeters>
          </Trackpoint>
          <Trackpoint>
            <Time>2022-07-14T13:21:34.000Z</Time>
            <Position>
              <LatitudeDegrees>43.3812962472438812255859375</LatitudeDegrees>
              <LongitudeDegrees>-4.08375936560332775115966796875</LongitudeDegrees>
            </Position>
            <AltitudeMeters>79.59999847412109375</AltitudeMeters>
            <DistanceMeters>NAN</DistanceMeters>
          </Trackpoint>
          <Trackpoint>
            <Time>2022-07-14T13:27:01.000Z</Time>
            <Position>
              <LatitudeDegrees>43.38140395469963550567626953125</LatitudeDegrees>
              <LongitudeDegrees>-4.08382390625774860382080078125</LongitudeDegrees>
            </Position>
            <AltitudeMeters>90</AltitudeMeters>
            <DistanceMeters>NAN</DistanceMeters>
          </Trackpoint>
          <Trackpoint>
            <Time>2022-07-14T13:27:02.000Z</Time>
            <Position>
              <LatitudeDegrees>43.381418287754058837890625</LatitudeDegrees>
              <LongitudeDegrees>-4.08385642804205417633056640625</LongitudeDegrees>
            </Position>
            <AltitudeMeters>90</AltitudeMeters>
            <DistanceMeters>NAN</DistanceMeters>
          </Trackpoint>
          <Trackpoint>
            <Time>2022-07-14T13:27:05.000Z</Time>
            <Position>
              <LatitudeDegrees>43.381444774568080902099609375</LatitudeDegrees>
              <LongitudeDegrees>-4.08395013771951198577880859375</LongitudeDegrees>
            </Position>
            <AltitudeMeters>90.1999969482421875</AltitudeMeters>
            <DistanceMeters>NAN</DistanceMeters>
          </Trackpoint>
          <Trackpoint>
            <Time>2022-07-14T13:27:06.000Z</Time>
            <Position>
              <LatitudeDegrees>43.38145055808126926422119140625</LatitudeDegrees>
              <LongitudeDegrees>-4.083978049457073211669921875</LongitudeDegrees>
            </Position>
            <AltitudeMeters>90.40000152587890625</AltitudeMeters>
            <DistanceMeters>NAN</DistanceMeters>
          </Trackpoint>
          <Trackpoint>
            <Time>2022-07-14T13:27:12.000Z</Time>
            <Position>
              <LatitudeDegrees>43.38148869574069976806640625</LatitudeDegrees>
              <LongitudeDegrees>-4.08413906581699848175048828125</LongitudeDegrees>
            </Position>
            <AltitudeMeters>91.1999969482421875</AltitudeMeters>
            <DistanceMeters>NAN</DistanceMeters>
          </Trackpoint>
          <Trackpoint>
            <Time>2022-07-14T13:27:15.000Z</Time>
            <Position>
              <LatitudeDegrees>43.3815089799463748931884765625</LatitudeDegrees>
              <LongitudeDegrees>-4.0842155925929546356201171875</LongitudeDegrees>
            </Position>
            <AltitudeMeters>91.40000152587890625</AltitudeMeters>
            <DistanceMeters>NAN</DistanceMeters>
          </Trackpoint>
          <Trackpoint>
            <Time>2022-07-14T13:27:25.000Z</Time>
            <Position>
              <LatitudeDegrees>43.3815639652311801910400390625</LatitudeDegrees>
              <LongitudeDegrees>-4.084458164870738983154296875</LongitudeDegrees>
            </Position>
            <AltitudeMeters>91.8000030517578125</AltitudeMeters>
            <DistanceMeters>NAN</DistanceMeters>
          </Trackpoint>
          <Trackpoint>
            <Time>2022-07-14T13:27:30.000Z</Time>
            <Position>
              <LatitudeDegrees>43.381594978272914886474609375</LatitudeDegrees>
              <LongitudeDegrees>-4.08458062447607517242431640625</LongitudeDegrees>
            </Position>
            <AltitudeMeters>92.1999969482421875</AltitudeMeters>
            <DistanceMeters>NAN</DistanceMeters>
          </Trackpoint>
          <Trackpoint>
            <Time>2022-07-14T13:27:33.000Z</Time>
            <Position>
              <LatitudeDegrees>43.38161216117441654205322265625</LatitudeDegrees>
              <LongitudeDegrees>-4.08465656451880931854248046875</LongitudeDegrees>
            </Position>
            <AltitudeMeters>92.40000152587890625</AltitudeMeters>
            <DistanceMeters>NAN</DistanceMeters>
          </Trackpoint>
          <Trackpoint>
            <Time>2022-07-14T13:27:40.000Z</Time>
            <Position>
              <LatitudeDegrees>43.3816420845687389373779296875</LatitudeDegrees>
              <LongitudeDegrees>-4.084804169833660125732421875</LongitudeDegrees>
            </Position>
            <AltitudeMeters>92.8000030517578125</AltitudeMeters>
            <DistanceMeters>NAN</DistanceMeters>
          </Trackpoint>
          <Trackpoint>
            <Time>2022-07-14T13:27:42.000Z</Time>
            <Position>
              <LatitudeDegrees>43.381655327975749969482421875</LatitudeDegrees>
              <LongitudeDegrees>-4.08484851010143756866455078125</LongitudeDegrees>
            </Position>
            <AltitudeMeters>92.8000030517578125</AltitudeMeters>
            <DistanceMeters>NAN</DistanceMeters>
          </Trackpoint>
          <Trackpoint>
            <Time>2022-07-14T13:27:48.000Z</Time>
            <Position>
              <LatitudeDegrees>43.38168156333267688751220703125</LatitudeDegrees>
              <LongitudeDegrees>-4.08497440628707408905029296875</LongitudeDegrees>
            </Position>
            <AltitudeMeters>93</AltitudeMeters>
            <DistanceMeters>NAN</DistanceMeters>
          </Trackpoint>
          <Trackpoint>
            <Time>2022-07-14T13:27:51.000Z</Time>
            <Position>
              <LatitudeDegrees>43.381693549454212188720703125</LatitudeDegrees>
              <LongitudeDegrees>-4.08503525890409946441650390625</LongitudeDegrees>
            </Position>
            <AltitudeMeters>93.1999969482421875</AltitudeMeters>
            <DistanceMeters>NAN</DistanceMeters>
          </Trackpoint>
          <Trackpoint>
            <Time>2022-07-14T13:27:53.000Z</Time>
            <Position>
              <LatitudeDegrees>43.381707631051540374755859375</LatitudeDegrees>
              <LongitudeDegrees>-4.085076749324798583984375</LongitudeDegrees>
            </Position>
            <AltitudeMeters>93.1999969482421875</AltitudeMeters>
            <DistanceMeters>NAN</DistanceMeters>
          </Trackpoint>
          <Trackpoint>
            <Time>2022-07-14T13:27:56.000Z</Time>
            <Position>
              <LatitudeDegrees>43.3817252330482006072998046875</LatitudeDegrees>
              <LongitudeDegrees>-4.08513299189507961273193359375</LongitudeDegrees>
            </Position>
            <AltitudeMeters>93.40000152587890625</AltitudeMeters>
            <DistanceMeters>NAN</DistanceMeters>
          </Trackpoint>
          <Trackpoint>
            <Time>2022-07-14T13:27:59.000Z</Time>
            <Position>
              <LatitudeDegrees>43.38173923082649707794189453125</LatitudeDegrees>
              <LongitudeDegrees>-4.08519786782562732696533203125</LongitudeDegrees>
            </Position>
            <AltitudeMeters>93.59999847412109375</AltitudeMeters>
            <DistanceMeters>NAN</DistanceMeters>
          </Trackpoint>
          <Trackpoint>
            <Time>2022-07-14T13:28:01.000Z</Time>
            <Position>
              <LatitudeDegrees>43.38174459524452686309814453125</LatitudeDegrees>
              <LongitudeDegrees>-4.08522904850542545318603515625</LongitudeDegrees>
            </Position>
            <AltitudeMeters>93.59999847412109375</AltitudeMeters>
            <DistanceMeters>NAN</DistanceMeters>
          </Trackpoint>
          <Trackpoint>
            <Time>2022-07-14T13:28:10.000Z</Time>
            <Position>
              <LatitudeDegrees>43.3817949704825878143310546875</LatitudeDegrees>
              <LongitudeDegrees>-4.0854168869554996490478515625</LongitudeDegrees>
            </Position>
            <AltitudeMeters>94.1999969482421875</AltitudeMeters>
            <DistanceMeters>NAN</DistanceMeters>
          </Trackpoint>
          <Trackpoint>
            <Time>2022-07-14T13:28:11.000Z</Time>
            <Position>
              <LatitudeDegrees>43.38180108927190303802490234375</LatitudeDegrees>
              <LongitudeDegrees>-4.08543809317052364349365234375</LongitudeDegrees>
            </Position>
            <AltitudeMeters>94.1999969482421875</AltitudeMeters>
            <DistanceMeters>NAN</DistanceMeters>
          </Trackpoint>
          <Trackpoint>
            <Time>2022-07-14T13:28:12.000Z</Time>
            <Position>
              <LatitudeDegrees>43.38180720806121826171875</LatitudeDegrees>
              <LongitudeDegrees>-4.085456617176532745361328125</LongitudeDegrees>
            </Position>
            <AltitudeMeters>94.1999969482421875</AltitudeMeters>
            <DistanceMeters>NAN</DistanceMeters>
          </Trackpoint>
          <Trackpoint>
            <Time>2022-07-14T13:28:22.000Z</Time>
            <Position>
              <LatitudeDegrees>43.38184048421680927276611328125</LatitudeDegrees>
              <LongitudeDegrees>-4.0856579504907131195068359375</LongitudeDegrees>
            </Position>
            <AltitudeMeters>94.59999847412109375</AltitudeMeters>
            <DistanceMeters>NAN</DistanceMeters>
          </Trackpoint>
          <Trackpoint>
            <Time>2022-07-14T13:28:32.000Z</Time>
            <Position>
              <LatitudeDegrees>43.38190267793834209442138671875</LatitudeDegrees>
              <LongitudeDegrees>-4.0858639776706695556640625</LongitudeDegrees>
            </Position>
            <AltitudeMeters>95</AltitudeMeters>
            <DistanceMeters>NAN</DistanceMeters>
          </Trackpoint>
          <Trackpoint>
            <Time>2022-07-14T13:28:40.000Z</Time>
            <Position>
              <LatitudeDegrees>43.3819424919784069061279296875</LatitudeDegrees>
              <LongitudeDegrees>-4.0860277600586414337158203125</LongitudeDegrees>
            </Position>
            <AltitudeMeters>95.1999969482421875</AltitudeMeters>
            <DistanceMeters>NAN</DistanceMeters>
          </Trackpoint>
          <Trackpoint>
            <Time>2022-07-14T13:28:43.000Z</Time>
            <Position>
              <LatitudeDegrees>43.38195581920444965362548828125</LatitudeDegrees>
              <LongitudeDegrees>-4.0860785543918609619140625</LongitudeDegrees>
            </Position>
            <AltitudeMeters>95.40000152587890625</AltitudeMeters>
            <DistanceMeters>NAN</DistanceMeters>
          </Trackpoint>
          <Trackpoint>
            <Time>2022-07-14T13:28:50.000Z</Time>
            <Position>
              <LatitudeDegrees>43.38197509758174419403076171875</LatitudeDegrees>
              <LongitudeDegrees>-4.08621392212808132171630859375</LongitudeDegrees>
            </Position>
            <AltitudeMeters>95.59999847412109375</AltitudeMeters>
            <DistanceMeters>NAN</DistanceMeters>
          </Trackpoint>
          <Trackpoint>
            <Time>2022-07-14T13:28:57.000Z</Time>
            <Position>
              <LatitudeDegrees>43.382000662386417388916015625</LatitudeDegrees>
              <LongitudeDegrees>-4.08637401647865772247314453125</LongitudeDegrees>
            </Position>
            <AltitudeMeters>95.8000030517578125</AltitudeMeters>
            <DistanceMeters>NAN</DistanceMeters>
          </Trackpoint>
          <Trackpoint>
            <Time>2022-07-14T13:29:06.000Z</Time>
            <Position>
              <LatitudeDegrees>43.38203226216137409210205078125</LatitudeDegrees>
              <LongitudeDegrees>-4.08654064871370792388916015625</LongitudeDegrees>
            </Position>
            <AltitudeMeters>96.1999969482421875</AltitudeMeters>
            <DistanceMeters>NAN</DistanceMeters>
          </Trackpoint>
          <Trackpoint>
            <Time>2022-07-14T13:29:09.000Z</Time>
            <Position>
              <LatitudeDegrees>43.38204081170260906219482421875</LatitudeDegrees>
              <LongitudeDegrees>-4.08659714274108409881591796875</LongitudeDegrees>
            </Position>
            <AltitudeMeters>96.1999969482421875</AltitudeMeters>
            <DistanceMeters>NAN</DistanceMeters>
          </Trackpoint>
          <Trackpoint>
            <Time>2022-07-14T13:29:15.000Z</Time>
            <Position>
              <LatitudeDegrees>43.38206143118441104888916015625</LatitudeDegrees>
              <LongitudeDegrees>-4.086715914309024810791015625</LongitudeDegrees>
            </Position>
            <AltitudeMeters>96.40000152587890625</AltitudeMeters>
            <DistanceMeters>NAN</DistanceMeters>
          </Trackpoint>
          <Trackpoint>
            <Time>2022-07-14T13:29:24.000Z</Time>
            <Position>
              <LatitudeDegrees>43.38210417889058589935302734375</LatitudeDegrees>
              <LongitudeDegrees>-4.08689972944557666778564453125</LongitudeDegrees>
            </Position>
            <AltitudeMeters>96.59999847412109375</AltitudeMeters>
            <DistanceMeters>NAN</DistanceMeters>
          </Trackpoint>
          <Trackpoint>
            <Time>2022-07-14T13:29:29.000Z</Time>
            <Position>
              <LatitudeDegrees>43.38212479837238788604736328125</LatitudeDegrees>
              <LongitudeDegrees>-4.0869943611323833465576171875</LongitudeDegrees>
            </Position>
            <AltitudeMeters>96.8000030517578125</AltitudeMeters>
            <DistanceMeters>NAN</DistanceMeters>
          </Trackpoint>
          <Trackpoint>
            <Time>2022-07-14T13:29:32.000Z</Time>
            <Position>
              <LatitudeDegrees>43.38208037428557872772216796875</LatitudeDegrees>
              <LongitudeDegrees>-4.08703769557178020477294921875</LongitudeDegrees>
            </Position>
            <AltitudeMeters>96.8000030517578125</AltitudeMeters>
            <DistanceMeters>NAN</DistanceMeters>
          </Trackpoint>
          <Trackpoint>
            <Time>2022-07-14T13:29:34.000Z</Time>
            <Position>
              <LatitudeDegrees>43.3820464275777339935302734375</LatitudeDegrees>
              <LongitudeDegrees>-4.0870647691190242767333984375</LongitudeDegrees>
            </Position>
            <AltitudeMeters>97</AltitudeMeters>
            <DistanceMeters>NAN</DistanceMeters>
          </Trackpoint>
          <Trackpoint>
            <Time>2022-07-14T13:29:39.000Z</Time>
            <Position>
              <LatitudeDegrees>43.3819894306361675262451171875</LatitudeDegrees>
              <LongitudeDegrees>-4.08709167502820491790771484375</LongitudeDegrees>
            </Position>
            <AltitudeMeters>97.1999969482421875</AltitudeMeters>
            <DistanceMeters>NAN</DistanceMeters>
          </Trackpoint>
          <Trackpoint>
            <Time>2022-07-14T13:29:40.000Z</Time>
            <Position>
              <LatitudeDegrees>43.381977193057537078857421875</LatitudeDegrees>
              <LongitudeDegrees>-4.08708639442920684814453125</LongitudeDegrees>
            </Position>
            <AltitudeMeters>97.1999969482421875</AltitudeMeters>
            <DistanceMeters>NAN</DistanceMeters>
          </Trackpoint>
          <Trackpoint>
            <Time>2022-07-14T13:29:41.000Z</Time>
            <Position>
              <LatitudeDegrees>43.38196705095469951629638671875</LatitudeDegrees>
              <LongitudeDegrees>-4.08707608468830585479736328125</LongitudeDegrees>
            </Position>
            <AltitudeMeters>97.40000152587890625</AltitudeMeters>
            <DistanceMeters>NAN</DistanceMeters>
          </Trackpoint>
          <Trackpoint>
            <Time>2022-07-14T13:29:46.000Z</Time>
            <Position>
              <LatitudeDegrees>43.38194358162581920623779296875</LatitudeDegrees>
              <LongitudeDegrees>-4.08704021014273166656494140625</LongitudeDegrees>
            </Position>
            <AltitudeMeters>97.40000152587890625</AltitudeMeters>
            <DistanceMeters>NAN</DistanceMeters>
          </Trackpoint>
          <Trackpoint>
            <Time>2022-07-14T13:29:47.000Z</Time>
            <Position>
              <LatitudeDegrees>43.38194358162581920623779296875</LatitudeDegrees>
              <LongitudeDegrees>-4.08704021014273166656494140625</LongitudeDegrees>
            </Position>
            <AltitudeMeters>97.40000152587890625</AltitudeMeters>
            <DistanceMeters>NAN</DistanceMeters>
          </Trackpoint>
          <Trackpoint>
            <Time>2022-07-14T13:35:30.000Z</Time>
            <Position>
              <LatitudeDegrees>43.38195330463349819183349609375</LatitudeDegrees>
              <LongitudeDegrees>-4.0870671160519123077392578125</LongitudeDegrees>
            </Position>
            <AltitudeMeters>101</AltitudeMeters>
            <DistanceMeters>NAN</DistanceMeters>
          </Trackpoint>
          <Trackpoint>
            <Time>2022-07-14T13:35:31.000Z</Time>
            <Position>
              <LatitudeDegrees>43.38195330463349819183349609375</LatitudeDegrees>
              <LongitudeDegrees>-4.0870671160519123077392578125</LongitudeDegrees>
            </Position>
            <AltitudeMeters>101</AltitudeMeters>
            <DistanceMeters>NAN</DistanceMeters>
          </Trackpoint>
          <Trackpoint>
            <Time>2022-07-14T13:35:32.000Z</Time>
            <Position>
              <LatitudeDegrees>43.38195330463349819183349609375</LatitudeDegrees>
              <LongitudeDegrees>-4.0870671160519123077392578125</LongitudeDegrees>
            </Position>
            <AltitudeMeters>101</AltitudeMeters>
            <DistanceMeters>NAN</DistanceMeters>
          </Trackpoint>
          <Trackpoint>
            <Time>2022-07-14T13:41:23.000Z</Time>
            <Position>
              <LatitudeDegrees>43.38189303874969482421875</LatitudeDegrees>
              <LongitudeDegrees>-4.08704088069498538970947265625</LongitudeDegrees>
            </Position>
            <AltitudeMeters>103</AltitudeMeters>
            <DistanceMeters>NAN</DistanceMeters>
          </Trackpoint>
          <Trackpoint>
            <Time>2022-07-14T13:41:24.000Z</Time>
            <Position>
              <LatitudeDegrees>43.381892032921314239501953125</LatitudeDegrees>
              <LongitudeDegrees>-4.0870305709540843963623046875</LongitudeDegrees>
            </Position>
            <AltitudeMeters>103</AltitudeMeters>
            <DistanceMeters>NAN</DistanceMeters>
          </Trackpoint>
          <Trackpoint>
            <Time>2022-07-14T13:41:26.000Z</Time>
            <Position>
              <LatitudeDegrees>43.381892032921314239501953125</LatitudeDegrees>
              <LongitudeDegrees>-4.0870305709540843963623046875</LongitudeDegrees>
            </Position>
            <AltitudeMeters>103</AltitudeMeters>
            <DistanceMeters>NAN</DistanceMeters>
          </Trackpoint>
          <Trackpoint>
            <Time>2022-07-14T13:59:55.000Z</Time>
            <Position>
              <LatitudeDegrees>43.38201717473566532135009765625</LatitudeDegrees>
              <LongitudeDegrees>-4.08701598644256591796875</LongitudeDegrees>
            </Position>
            <AltitudeMeters>103.40000152587890625</AltitudeMeters>
            <DistanceMeters>NAN</DistanceMeters>
          </Trackpoint>
          <Trackpoint>
            <Time>2022-07-14T14:00:01.000Z</Time>
            <Position>
              <LatitudeDegrees>43.3820165880024433135986328125</LatitudeDegrees>
              <LongitudeDegrees>-4.08700056374073028564453125</LongitudeDegrees>
            </Position>
            <AltitudeMeters>103.1999969482421875</AltitudeMeters>
            <DistanceMeters>NAN</DistanceMeters>
          </Trackpoint>
          <Trackpoint>
            <Time>2022-07-14T14:00:05.000Z</Time>
            <Position>
              <LatitudeDegrees>43.381989262998104095458984375</LatitudeDegrees>
              <LongitudeDegrees>-4.08698623068630695343017578125</LongitudeDegrees>
            </Position>
            <AltitudeMeters>103.1999969482421875</AltitudeMeters>
            <DistanceMeters>NAN</DistanceMeters>
          </Trackpoint>
          <Trackpoint>
            <Time>2022-07-14T14:00:06.000Z</Time>
            <Position>
              <LatitudeDegrees>43.3820058591663837432861328125</LatitudeDegrees>
              <LongitudeDegrees>-4.0869878232479095458984375</LongitudeDegrees>
            </Position>
            <AltitudeMeters>103.1999969482421875</AltitudeMeters>
            <DistanceMeters>NAN</DistanceMeters>
          </Trackpoint>
          <Trackpoint>
            <Time>2022-07-14T14:03:16.000Z</Time>
            <Position>
              <LatitudeDegrees>43.381925560534000396728515625</LatitudeDegrees>
              <LongitudeDegrees>-4.08709016628563404083251953125</LongitudeDegrees>
            </Position>
            <AltitudeMeters>103.8000030517578125</AltitudeMeters>
            <DistanceMeters>NAN</DistanceMeters>
          </Trackpoint>
          <Trackpoint>
            <Time>2022-07-14T14:03:17.000Z</Time>
            <Position>
              <LatitudeDegrees>43.38193084113299846649169921875</LatitudeDegrees>
              <LongitudeDegrees>-4.08710181713104248046875</LongitudeDegrees>
            </Position>
            <AltitudeMeters>104</AltitudeMeters>
            <DistanceMeters>NAN</DistanceMeters>
          </Trackpoint>
          <Trackpoint>
            <Time>2022-07-14T14:03:19.000Z</Time>
            <Position>
              <LatitudeDegrees>43.38193553499877452850341796875</LatitudeDegrees>
              <LongitudeDegrees>-4.08712184987962245941162109375</LongitudeDegrees>
            </Position>
            <AltitudeMeters>104</AltitudeMeters>
            <DistanceMeters>NAN</DistanceMeters>
          </Trackpoint>
          <Trackpoint>
            <Time>2022-07-14T14:03:24.000Z</Time>
            <Position>
              <LatitudeDegrees>43.3819240517914295196533203125</LatitudeDegrees>
              <LongitudeDegrees>-4.08711162395775318145751953125</LongitudeDegrees>
            </Position>
            <AltitudeMeters>104</AltitudeMeters>
            <DistanceMeters>NAN</DistanceMeters>
          </Trackpoint>
          <Trackpoint>
            <Time>2022-07-14T14:03:28.000Z</Time>
            <Position>
              <LatitudeDegrees>43.38192899711430072784423828125</LatitudeDegrees>
              <LongitudeDegrees>-4.0871241129934787750244140625</LongitudeDegrees>
            </Position>
            <AltitudeMeters>104.1999969482421875</AltitudeMeters>
            <DistanceMeters>NAN</DistanceMeters>
          </Trackpoint>
          <Trackpoint>
            <Time>2022-07-14T14:03:31.000Z</Time>
            <Position>
              <LatitudeDegrees>43.38192329742014408111572265625</LatitudeDegrees>
              <LongitudeDegrees>-4.0871284715831279754638671875</LongitudeDegrees>
            </Position>
            <AltitudeMeters>104.40000152587890625</AltitudeMeters>
            <DistanceMeters>NAN</DistanceMeters>
          </Trackpoint>
          <Trackpoint>
            <Time>2022-07-14T14:04:10.000Z</Time>
            <Position>
              <LatitudeDegrees>43.38197761215269565582275390625</LatitudeDegrees>
              <LongitudeDegrees>-4.087029397487640380859375</LongitudeDegrees>
            </Position>
            <AltitudeMeters>103.40000152587890625</AltitudeMeters>
            <DistanceMeters>NAN</DistanceMeters>
          </Trackpoint>
          <Trackpoint>
            <Time>2022-07-14T14:04:12.000Z</Time>
            <Position>
              <LatitudeDegrees>43.38196076452732086181640625</LatitudeDegrees>
              <LongitudeDegrees>-4.08700517378747463226318359375</LongitudeDegrees>
            </Position>
            <AltitudeMeters>103</AltitudeMeters>
            <DistanceMeters>NAN</DistanceMeters>
          </Trackpoint>
          <Trackpoint>
            <Time>2022-07-14T14:04:13.000Z</Time>
            <Position>
              <LatitudeDegrees>43.38195079006254673004150390625</LatitudeDegrees>
              <LongitudeDegrees>-4.0870000608265399932861328125</LongitudeDegrees>
            </Position>
            <AltitudeMeters>103</AltitudeMeters>
            <DistanceMeters>NAN</DistanceMeters>
          </Trackpoint>
          <Trackpoint>
            <Time>2022-07-14T14:04:16.000Z</Time>
            <Position>
              <LatitudeDegrees>43.3819294162094593048095703125</LatitudeDegrees>
              <LongitudeDegrees>-4.0870054252445697784423828125</LongitudeDegrees>
            </Position>
            <AltitudeMeters>103</AltitudeMeters>
            <DistanceMeters>NAN</DistanceMeters>
          </Trackpoint>
          <Trackpoint>
            <Time>2022-07-14T14:04:17.000Z</Time>
            <Position>
              <LatitudeDegrees>43.38192497380077838897705078125</LatitudeDegrees>
              <LongitudeDegrees>-4.08700190484523773193359375</LongitudeDegrees>
            </Position>
            <AltitudeMeters>103</AltitudeMeters>
            <DistanceMeters>NAN</DistanceMeters>
          </Trackpoint>
          <Trackpoint>
            <Time>2022-07-14T14:05:38.000Z</Time>
            <Position>
              <LatitudeDegrees>43.3819802105426788330078125</LatitudeDegrees>
              <LongitudeDegrees>-4.08702193759381771087646484375</LongitudeDegrees>
            </Position>
            <AltitudeMeters>104.1999969482421875</AltitudeMeters>
            <DistanceMeters>NAN</DistanceMeters>
          </Trackpoint>
          <Trackpoint>
            <Time>2022-07-14T14:05:39.000Z</Time>
            <Position>
              <LatitudeDegrees>43.38199806399643421173095703125</LatitudeDegrees>
              <LongitudeDegrees>-4.08702881075441837310791015625</LongitudeDegrees>
            </Position>
            <AltitudeMeters>104.1999969482421875</AltitudeMeters>
            <DistanceMeters>NAN</DistanceMeters>
          </Trackpoint>
          <Trackpoint>
            <Time>2022-07-14T14:05:40.000Z</Time>
            <Position>
              <LatitudeDegrees>43.38201818056404590606689453125</LatitudeDegrees>
              <LongitudeDegrees>-4.08703082241117954254150390625</LongitudeDegrees>
            </Position>
            <AltitudeMeters>104.1999969482421875</AltitudeMeters>
            <DistanceMeters>NAN</DistanceMeters>
          </Trackpoint>
          <Trackpoint>
            <Time>2022-07-14T14:05:46.000Z</Time>
            <Position>
              <LatitudeDegrees>43.38214055635035037994384765625</LatitudeDegrees>
              <LongitudeDegrees>-4.08706317655742168426513671875</LongitudeDegrees>
            </Position>
            <AltitudeMeters>103.8000030517578125</AltitudeMeters>
            <DistanceMeters>NAN</DistanceMeters>
          </Trackpoint>
          <Trackpoint>
            <Time>2022-07-14T14:05:47.000Z</Time>
            <Position>
              <LatitudeDegrees>43.38215396739542484283447265625</LatitudeDegrees>
              <LongitudeDegrees>-4.08707692287862300872802734375</LongitudeDegrees>
            </Position>
            <AltitudeMeters>103.59999847412109375</AltitudeMeters>
            <DistanceMeters>NAN</DistanceMeters>
          </Trackpoint>
          <Trackpoint>
            <Time>2022-07-14T14:05:50.000Z</Time>
            <Position>
              <LatitudeDegrees>43.3821845613420009613037109375</LatitudeDegrees>
              <LongitudeDegrees>-4.0871499292552471160888671875</LongitudeDegrees>
            </Position>
            <AltitudeMeters>103.59999847412109375</AltitudeMeters>
            <DistanceMeters>NAN</DistanceMeters>
          </Trackpoint>
          <Trackpoint>
            <Time>2022-07-14T14:05:53.000Z</Time>
            <Position>
              <LatitudeDegrees>43.38220140896737575531005859375</LatitudeDegrees>
              <LongitudeDegrees>-4.0872210077941417694091796875</LongitudeDegrees>
            </Position>
            <AltitudeMeters>103.8000030517578125</AltitudeMeters>
            <DistanceMeters>NAN</DistanceMeters>
          </Trackpoint>
          <Trackpoint>
            <Time>2022-07-14T14:05:54.000Z</Time>
            <Position>
              <LatitudeDegrees>43.3822060190141201019287109375</LatitudeDegrees>
              <LongitudeDegrees>-4.087240956723690032958984375</LongitudeDegrees>
            </Position>
            <AltitudeMeters>103.8000030517578125</AltitudeMeters>
            <DistanceMeters>NAN</DistanceMeters>
          </Trackpoint>
          <Trackpoint>
            <Time>2022-07-14T14:05:55.000Z</Time>
            <Position>
              <LatitudeDegrees>43.382210545241832733154296875</LatitudeDegrees>
              <LongitudeDegrees>-4.08726568333804607391357421875</LongitudeDegrees>
            </Position>
            <AltitudeMeters>103.8000030517578125</AltitudeMeters>
            <DistanceMeters>NAN</DistanceMeters>
          </Trackpoint>
          <Trackpoint>
            <Time>2022-07-14T14:05:58.000Z</Time>
            <Position>
              <LatitudeDegrees>43.3822281472384929656982421875</LatitudeDegrees>
              <LongitudeDegrees>-4.0873420424759387969970703125</LongitudeDegrees>
            </Position>
            <AltitudeMeters>103.8000030517578125</AltitudeMeters>
            <DistanceMeters>NAN</DistanceMeters>
          </Trackpoint>
          <Trackpoint>
            <Time>2022-07-14T14:06:02.000Z</Time>
            <Position>
              <LatitudeDegrees>43.3822475932538509368896484375</LatitudeDegrees>
              <LongitudeDegrees>-4.08743315376341342926025390625</LongitudeDegrees>
            </Position>
            <AltitudeMeters>104.40000152587890625</AltitudeMeters>
            <DistanceMeters>NAN</DistanceMeters>
          </Trackpoint>
          <Trackpoint>
            <Time>2022-07-14T14:06:10.000Z</Time>
            <Position>
              <LatitudeDegrees>43.38229746557772159576416015625</LatitudeDegrees>
              <LongitudeDegrees>-4.0876313857734203338623046875</LongitudeDegrees>
            </Position>
            <AltitudeMeters>105.1999969482421875</AltitudeMeters>
            <DistanceMeters>NAN</DistanceMeters>
          </Trackpoint>
          <Trackpoint>
            <Time>2022-07-14T14:06:11.000Z</Time>
            <Position>
              <LatitudeDegrees>43.38230140507221221923828125</LatitudeDegrees>
              <LongitudeDegrees>-4.087656699120998382568359375</LongitudeDegrees>
            </Position>
            <AltitudeMeters>105.40000152587890625</AltitudeMeters>
            <DistanceMeters>NAN</DistanceMeters>
          </Trackpoint>
          <Trackpoint>
            <Time>2022-07-14T14:06:12.000Z</Time>
            <Position>
              <LatitudeDegrees>43.38230668567121028900146484375</LatitudeDegrees>
              <LongitudeDegrees>-4.087678492069244384765625</LongitudeDegrees>
            </Position>
            <AltitudeMeters>105.40000152587890625</AltitudeMeters>
            <DistanceMeters>NAN</DistanceMeters>
          </Trackpoint>
          <Trackpoint>
            <Time>2022-07-14T14:06:15.000Z</Time>
            <Position>
              <LatitudeDegrees>43.38232219219207763671875</LatitudeDegrees>
              <LongitudeDegrees>-4.087746553122997283935546875</LongitudeDegrees>
            </Position>
            <AltitudeMeters>105.59999847412109375</AltitudeMeters>
            <DistanceMeters>NAN</DistanceMeters>
          </Trackpoint>
          <Trackpoint>
            <Time>2022-07-14T14:06:19.000Z</Time>
            <Position>
              <LatitudeDegrees>43.38234205730259418487548828125</LatitudeDegrees>
              <LongitudeDegrees>-4.08782861195504665374755859375</LongitudeDegrees>
            </Position>
            <AltitudeMeters>105.59999847412109375</AltitudeMeters>
            <DistanceMeters>NAN</DistanceMeters>
          </Trackpoint>
          <Trackpoint>
            <Time>2022-07-14T14:06:22.000Z</Time>
            <Position>
              <LatitudeDegrees>43.382357396185398101806640625</LatitudeDegrees>
              <LongitudeDegrees>-4.08787957392632961273193359375</LongitudeDegrees>
            </Position>
            <AltitudeMeters>105.59999847412109375</AltitudeMeters>
            <DistanceMeters>NAN</DistanceMeters>
          </Trackpoint>
          <Trackpoint>
            <Time>2022-07-14T14:06:25.000Z</Time>
            <Position>
              <LatitudeDegrees>43.3823716454207897186279296875</LatitudeDegrees>
              <LongitudeDegrees>-4.08795249648392200469970703125</LongitudeDegrees>
            </Position>
            <AltitudeMeters>105.59999847412109375</AltitudeMeters>
            <DistanceMeters>NAN</DistanceMeters>
          </Trackpoint>
          <Trackpoint>
            <Time>2022-07-14T14:06:30.000Z</Time>
            <Position>
              <LatitudeDegrees>43.38239729404449462890625</LatitudeDegrees>
              <LongitudeDegrees>-4.088069759309291839599609375</LongitudeDegrees>
            </Position>
            <AltitudeMeters>106</AltitudeMeters>
            <DistanceMeters>NAN</DistanceMeters>
          </Trackpoint>
          <Trackpoint>
            <Time>2022-07-14T14:06:31.000Z</Time>
            <Position>
              <LatitudeDegrees>43.3824021555483341217041015625</LatitudeDegrees>
              <LongitudeDegrees>-4.08809247426688671112060546875</LongitudeDegrees>
            </Position>
            <AltitudeMeters>106</AltitudeMeters>
            <DistanceMeters>NAN</DistanceMeters>
          </Trackpoint>
          <Trackpoint>
            <Time>2022-07-14T14:06:34.000Z</Time>
            <Position>
              <LatitudeDegrees>43.38242168538272380828857421875</LatitudeDegrees>
              <LongitudeDegrees>-4.08817042596638202667236328125</LongitudeDegrees>
            </Position>
            <AltitudeMeters>106.40000152587890625</AltitudeMeters>
            <DistanceMeters>NAN</DistanceMeters>
          </Trackpoint>
          <Trackpoint>
            <Time>2022-07-14T14:06:38.000Z</Time>
            <Position>
              <LatitudeDegrees>43.38244096376001834869384765625</LatitudeDegrees>
              <LongitudeDegrees>-4.0882617048919200897216796875</LongitudeDegrees>
            </Position>
            <AltitudeMeters>106.59999847412109375</AltitudeMeters>
            <DistanceMeters>NAN</DistanceMeters>
          </Trackpoint>
          <Trackpoint>
            <Time>2022-07-14T14:06:41.000Z</Time>
            <Position>
              <LatitudeDegrees>43.38245655409991741180419921875</LatitudeDegrees>
              <LongitudeDegrees>-4.08833420835435390472412109375</LongitudeDegrees>
            </Position>
            <AltitudeMeters>106.59999847412109375</AltitudeMeters>
            <DistanceMeters>NAN</DistanceMeters>
          </Trackpoint>
          <Trackpoint>
            <Time>2022-07-14T14:06:43.000Z</Time>
            <Position>
              <LatitudeDegrees>43.3824688754975795745849609375</LatitudeDegrees>
              <LongitudeDegrees>-4.0883870981633663177490234375</LongitudeDegrees>
            </Position>
            <AltitudeMeters>106.8000030517578125</AltitudeMeters>
            <DistanceMeters>NAN</DistanceMeters>
          </Trackpoint>
          <Trackpoint>
            <Time>2022-07-14T14:06:49.000Z</Time>
            <Position>
              <LatitudeDegrees>43.38249879889190196990966796875</LatitudeDegrees>
              <LongitudeDegrees>-4.0885091386735439300537109375</LongitudeDegrees>
            </Position>
            <AltitudeMeters>106.8000030517578125</AltitudeMeters>
            <DistanceMeters>NAN</DistanceMeters>
          </Trackpoint>
          <Trackpoint>
            <Time>2022-07-14T14:06:51.000Z</Time>
            <Position>
              <LatitudeDegrees>43.38250458240509033203125</LatitudeDegrees>
              <LongitudeDegrees>-4.08854945562779903411865234375</LongitudeDegrees>
            </Position>
            <AltitudeMeters>107</AltitudeMeters>
            <DistanceMeters>NAN</DistanceMeters>
          </Trackpoint>
          <Trackpoint>
            <Time>2022-07-14T14:06:58.000Z</Time>
            <Position>
              <LatitudeDegrees>43.38255244307219982147216796875</LatitudeDegrees>
              <LongitudeDegrees>-4.0887076221406459808349609375</LongitudeDegrees>
            </Position>
            <AltitudeMeters>107.40000152587890625</AltitudeMeters>
            <DistanceMeters>NAN</DistanceMeters>
          </Trackpoint>
          <Trackpoint>
            <Time>2022-07-14T14:07:04.000Z</Time>
            <Position>
              <LatitudeDegrees>43.3825915865600109100341796875</LatitudeDegrees>
              <LongitudeDegrees>-4.0888363681733608245849609375</LongitudeDegrees>
            </Position>
            <AltitudeMeters>107.59999847412109375</AltitudeMeters>
            <DistanceMeters>NAN</DistanceMeters>
          </Trackpoint>
          <Trackpoint>
            <Time>2022-07-14T14:07:14.000Z</Time>
            <Position>
              <LatitudeDegrees>43.382659815251827239990234375</LatitudeDegrees>
              <LongitudeDegrees>-4.08902990631759166717529296875</LongitudeDegrees>
            </Position>
            <AltitudeMeters>108.40000152587890625</AltitudeMeters>
            <DistanceMeters>NAN</DistanceMeters>
          </Trackpoint>
          <Trackpoint>
            <Time>2022-07-14T14:07:16.000Z</Time>
            <Position>
              <LatitudeDegrees>43.38267163373529911041259765625</LatitudeDegrees>
              <LongitudeDegrees>-4.08907768316566944122314453125</LongitudeDegrees>
            </Position>
            <AltitudeMeters>108.40000152587890625</AltitudeMeters>
            <DistanceMeters>NAN</DistanceMeters>
          </Trackpoint>
          <Trackpoint>
            <Time>2022-07-14T14:07:25.000Z</Time>
            <Position>
              <LatitudeDegrees>43.382738940417766571044921875</LatitudeDegrees>
              <LongitudeDegrees>-4.08925537951290607452392578125</LongitudeDegrees>
            </Position>
            <AltitudeMeters>108.59999847412109375</AltitudeMeters>
            <DistanceMeters>NAN</DistanceMeters>
          </Trackpoint>
          <Trackpoint>
            <Time>2022-07-14T14:07:26.000Z</Time>
            <Position>
              <LatitudeDegrees>43.38273131288588047027587890625</LatitudeDegrees>
              <LongitudeDegrees>-4.08927449025213718414306640625</LongitudeDegrees>
            </Position>
            <AltitudeMeters>108.8000030517578125</AltitudeMeters>
            <DistanceMeters>NAN</DistanceMeters>
          </Trackpoint>
          <Trackpoint>
            <Time>2022-07-14T14:07:30.000Z</Time>
            <Position>
              <LatitudeDegrees>43.38268538005650043487548828125</LatitudeDegrees>
              <LongitudeDegrees>-4.0893178246915340423583984375</LongitudeDegrees>
            </Position>
            <AltitudeMeters>109.1999969482421875</AltitudeMeters>
            <DistanceMeters>NAN</DistanceMeters>
          </Trackpoint>
          <Trackpoint>
            <Time>2022-07-14T14:07:36.000Z</Time>
            <Position>
              <LatitudeDegrees>43.38266174308955669403076171875</LatitudeDegrees>
              <LongitudeDegrees>-4.08939166925847530364990234375</LongitudeDegrees>
            </Position>
            <AltitudeMeters>109</AltitudeMeters>
            <DistanceMeters>NAN</DistanceMeters>
          </Trackpoint>
          <Trackpoint>
            <Time>2022-07-14T14:08:47.000Z</Time>
            <Position>
              <LatitudeDegrees>43.38268236257135868072509765625</LatitudeDegrees>
              <LongitudeDegrees>-4.089431650936603546142578125</LongitudeDegrees>
            </Position>
            <AltitudeMeters>109.40000152587890625</AltitudeMeters>
            <DistanceMeters>NAN</DistanceMeters>
          </Trackpoint>
          <Trackpoint>
            <Time>2022-07-14T14:08:50.000Z</Time>
            <Position>
              <LatitudeDegrees>43.38269032537937164306640625</LatitudeDegrees>
              <LongitudeDegrees>-4.089511446654796600341796875</LongitudeDegrees>
            </Position>
            <AltitudeMeters>109.59999847412109375</AltitudeMeters>
            <DistanceMeters>NAN</DistanceMeters>
          </Trackpoint>
          <Trackpoint>
            <Time>2022-07-14T14:08:56.000Z</Time>
            <Position>
              <LatitudeDegrees>43.38273617438971996307373046875</LatitudeDegrees>
              <LongitudeDegrees>-4.089652262628078460693359375</LongitudeDegrees>
            </Position>
            <AltitudeMeters>110</AltitudeMeters>
            <DistanceMeters>NAN</DistanceMeters>
          </Trackpoint>
          <Trackpoint>
            <Time>2022-07-14T14:08:59.000Z</Time>
            <Position>
              <LatitudeDegrees>43.38275042362511157989501953125</LatitudeDegrees>
              <LongitudeDegrees>-4.08971755765378475189208984375</LongitudeDegrees>
            </Position>
            <AltitudeMeters>110.59999847412109375</AltitudeMeters>
            <DistanceMeters>NAN</DistanceMeters>
          </Trackpoint>
          <Trackpoint>
            <Time>2022-07-14T14:09:04.000Z</Time>
            <Position>
              <LatitudeDegrees>43.38279367424547672271728515625</LatitudeDegrees>
              <LongitudeDegrees>-4.0898046456277370452880859375</LongitudeDegrees>
            </Position>
            <AltitudeMeters>110.8000030517578125</AltitudeMeters>
            <DistanceMeters>NAN</DistanceMeters>
          </Trackpoint>
          <Trackpoint>
            <Time>2022-07-14T14:09:10.000Z</Time>
            <Position>
              <LatitudeDegrees>43.3828598074615001678466796875</LatitudeDegrees>
              <LongitudeDegrees>-4.08990405499935150146484375</LongitudeDegrees>
            </Position>
            <AltitudeMeters>111.40000152587890625</AltitudeMeters>
            <DistanceMeters>NAN</DistanceMeters>
          </Trackpoint>
          <Trackpoint>
            <Time>2022-07-14T14:09:11.000Z</Time>
            <Position>
              <LatitudeDegrees>43.3828708715736865997314453125</LatitudeDegrees>
              <LongitudeDegrees>-4.08992408774793148040771484375</LongitudeDegrees>
            </Position>
            <AltitudeMeters>111.40000152587890625</AltitudeMeters>
            <DistanceMeters>NAN</DistanceMeters>
          </Trackpoint>
          <Trackpoint>
            <Time>2022-07-14T14:09:13.000Z</Time>
            <Position>
              <LatitudeDegrees>43.3828886412084102630615234375</LatitudeDegrees>
              <LongitudeDegrees>-4.08995191566646099090576171875</LongitudeDegrees>
            </Position>
            <AltitudeMeters>111.59999847412109375</AltitudeMeters>
            <DistanceMeters>NAN</DistanceMeters>
          </Trackpoint>
          <Trackpoint>
            <Time>2022-07-14T14:09:17.000Z</Time>
            <Position>
              <LatitudeDegrees>43.382941447198390960693359375</LatitudeDegrees>
              <LongitudeDegrees>-4.09000036306679248809814453125</LongitudeDegrees>
            </Position>
            <AltitudeMeters>112.1999969482421875</AltitudeMeters>
            <DistanceMeters>NAN</DistanceMeters>
          </Trackpoint>
          <Trackpoint>
            <Time>2022-07-14T14:09:18.000Z</Time>
            <Position>
              <LatitudeDegrees>43.382954858243465423583984375</LatitudeDegrees>
              <LongitudeDegrees>-4.09001268446445465087890625</LongitudeDegrees>
            </Position>
            <AltitudeMeters>112.1999969482421875</AltitudeMeters>
            <DistanceMeters>NAN</DistanceMeters>
          </Trackpoint>
          <Trackpoint>
            <Time>2022-07-14T14:09:21.000Z</Time>
            <Position>
              <LatitudeDegrees>43.3829935826361179351806640625</LatitudeDegrees>
              <LongitudeDegrees>-4.09003372304141521453857421875</LongitudeDegrees>
            </Position>
            <AltitudeMeters>112.40000152587890625</AltitudeMeters>
            <DistanceMeters>NAN</DistanceMeters>
          </Trackpoint>
          <Trackpoint>
            <Time>2022-07-14T14:09:23.000Z</Time>
            <Position>
              <LatitudeDegrees>43.383006155490875244140625</LatitudeDegrees>
              <LongitudeDegrees>-4.09004126675426959991455078125</LongitudeDegrees>
            </Position>
            <AltitudeMeters>112.40000152587890625</AltitudeMeters>
            <DistanceMeters>NAN</DistanceMeters>
          </Trackpoint>
          <Trackpoint>
            <Time>2022-07-14T14:09:24.000Z</Time>
            <Position>
              <LatitudeDegrees>43.38301328010857105255126953125</LatitudeDegrees>
              <LongitudeDegrees>-4.0900567732751369476318359375</LongitudeDegrees>
            </Position>
            <AltitudeMeters>112.59999847412109375</AltitudeMeters>
            <DistanceMeters>NAN</DistanceMeters>
          </Trackpoint>
          <Trackpoint>
            <Time>2022-07-14T14:09:32.000Z</Time>
            <Position>
              <LatitudeDegrees>43.3831062354147434234619140625</LatitudeDegrees>
              <LongitudeDegrees>-4.0901421010494232177734375</LongitudeDegrees>
            </Position>
            <AltitudeMeters>113.40000152587890625</AltitudeMeters>
            <DistanceMeters>NAN</DistanceMeters>
          </Trackpoint>
          <Trackpoint>
            <Time>2022-07-14T14:09:35.000Z</Time>
            <Position>
              <LatitudeDegrees>43.3831407688558101654052734375</LatitudeDegrees>
              <LongitudeDegrees>-4.09020186401903629302978515625</LongitudeDegrees>
            </Position>
            <AltitudeMeters>113.8000030517578125</AltitudeMeters>
            <DistanceMeters>NAN</DistanceMeters>
          </Trackpoint>
          <Trackpoint>
            <Time>2022-07-14T14:09:39.000Z</Time>
            <Position>
              <LatitudeDegrees>43.3831850253045558929443359375</LatitudeDegrees>
              <LongitudeDegrees>-4.0902901254594326019287109375</LongitudeDegrees>
            </Position>
            <AltitudeMeters>114</AltitudeMeters>
            <DistanceMeters>NAN</DistanceMeters>
          </Trackpoint>
          <Trackpoint>
            <Time>2022-07-14T14:09:47.000Z</Time>
            <Position>
              <LatitudeDegrees>43.38325249962508678436279296875</LatitudeDegrees>
              <LongitudeDegrees>-4.09046597778797149658203125</LongitudeDegrees>
            </Position>
            <AltitudeMeters>114.8000030517578125</AltitudeMeters>
            <DistanceMeters>NAN</DistanceMeters>
          </Trackpoint>
          <Trackpoint>
            <Time>2022-07-14T14:09:49.000Z</Time>
            <Position>
              <LatitudeDegrees>43.38327244855463504791259765625</LatitudeDegrees>
              <LongitudeDegrees>-4.09050755202770233154296875</LongitudeDegrees>
            </Position>
            <AltitudeMeters>115</AltitudeMeters>
            <DistanceMeters>NAN</DistanceMeters>
          </Trackpoint>
          <Trackpoint>
            <Time>2022-07-14T14:09:56.000Z</Time>
            <Position>
              <LatitudeDegrees>43.3833335526287555694580078125</LatitudeDegrees>
              <LongitudeDegrees>-4.09066990949213504791259765625</LongitudeDegrees>
            </Position>
            <AltitudeMeters>115.59999847412109375</AltitudeMeters>
            <DistanceMeters>NAN</DistanceMeters>
          </Trackpoint>
          <Trackpoint>
            <Time>2022-07-14T14:09:59.000Z</Time>
            <Position>
              <LatitudeDegrees>43.383351154625415802001953125</LatitudeDegrees>
              <LongitudeDegrees>-4.09072271548211574554443359375</LongitudeDegrees>
            </Position>
            <AltitudeMeters>115.8000030517578125</AltitudeMeters>
            <DistanceMeters>NAN</DistanceMeters>
          </Trackpoint>
          <Trackpoint>
            <Time>2022-07-14T14:10:05.000Z</Time>
            <Position>
              <LatitudeDegrees>43.38338610716164112091064453125</LatitudeDegrees>
              <LongitudeDegrees>-4.09084559418261051177978515625</LongitudeDegrees>
            </Position>
            <AltitudeMeters>116.40000152587890625</AltitudeMeters>
            <DistanceMeters>NAN</DistanceMeters>
          </Trackpoint>
          <Trackpoint>
            <Time>2022-07-14T14:10:12.000Z</Time>
            <Position>
              <LatitudeDegrees>43.38344939053058624267578125</LatitudeDegrees>
              <LongitudeDegrees>-4.0909757651388645172119140625</LongitudeDegrees>
            </Position>
            <AltitudeMeters>116.8000030517578125</AltitudeMeters>
            <DistanceMeters>NAN</DistanceMeters>
          </Trackpoint>
          <Trackpoint>
            <Time>2022-07-14T14:10:13.000Z</Time>
            <Position>
              <LatitudeDegrees>43.3834586106240749359130859375</LatitudeDegrees>
              <LongitudeDegrees>-4.0909982286393642425537109375</LongitudeDegrees>
            </Position>
            <AltitudeMeters>116.8000030517578125</AltitudeMeters>
            <DistanceMeters>NAN</DistanceMeters>
          </Trackpoint>
          <Trackpoint>
            <Time>2022-07-14T14:10:20.000Z</Time>
            <Position>
              <LatitudeDegrees>43.38351569138467311859130859375</LatitudeDegrees>
              <LongitudeDegrees>-4.091148264706134796142578125</LongitudeDegrees>
            </Position>
            <AltitudeMeters>117.40000152587890625</AltitudeMeters>
            <DistanceMeters>NAN</DistanceMeters>
          </Trackpoint>
          <Trackpoint>
            <Time>2022-07-14T14:10:24.000Z</Time>
            <Position>
              <LatitudeDegrees>43.3835317008197307586669921875</LatitudeDegrees>
              <LongitudeDegrees>-4.091234095394611358642578125</LongitudeDegrees>
            </Position>
            <AltitudeMeters>117.8000030517578125</AltitudeMeters>
            <DistanceMeters>NAN</DistanceMeters>
          </Trackpoint>
          <Trackpoint>
            <Time>2022-07-14T14:10:27.000Z</Time>
            <Position>
              <LatitudeDegrees>43.3835585229098796844482421875</LatitudeDegrees>
              <LongitudeDegrees>-4.0912939421832561492919921875</LongitudeDegrees>
            </Position>
            <AltitudeMeters>118</AltitudeMeters>
            <DistanceMeters>NAN</DistanceMeters>
          </Trackpoint>
          <Trackpoint>
            <Time>2022-07-14T14:10:29.000Z</Time>
            <Position>
              <LatitudeDegrees>43.38357746601104736328125</LatitudeDegrees>
              <LongitudeDegrees>-4.091336689889430999755859375</LongitudeDegrees>
            </Position>
            <AltitudeMeters>118</AltitudeMeters>
            <DistanceMeters>NAN</DistanceMeters>
          </Trackpoint>
          <Trackpoint>
            <Time>2022-07-14T14:10:36.000Z</Time>
            <Position>
              <LatitudeDegrees>43.38363823480904102325439453125</LatitudeDegrees>
              <LongitudeDegrees>-4.09145646728575229644775390625</LongitudeDegrees>
            </Position>
            <AltitudeMeters>118.59999847412109375</AltitudeMeters>
            <DistanceMeters>NAN</DistanceMeters>
          </Trackpoint>
          <Trackpoint>
            <Time>2022-07-14T14:10:38.000Z</Time>
            <Position>
              <LatitudeDegrees>43.38365684263408184051513671875</LatitudeDegrees>
              <LongitudeDegrees>-4.09149133600294589996337890625</LongitudeDegrees>
            </Position>
            <AltitudeMeters>118.59999847412109375</AltitudeMeters>
            <DistanceMeters>NAN</DistanceMeters>
          </Trackpoint>
          <Trackpoint>
            <Time>2022-07-14T14:10:41.000Z</Time>
            <Position>
              <LatitudeDegrees>43.383676707744598388671875</LatitudeDegrees>
              <LongitudeDegrees>-4.091553948819637298583984375</LongitudeDegrees>
            </Position>
            <AltitudeMeters>118.8000030517578125</AltitudeMeters>
            <DistanceMeters>NAN</DistanceMeters>
          </Trackpoint>
          <Trackpoint>
            <Time>2022-07-14T14:10:42.000Z</Time>
            <Position>
              <LatitudeDegrees>43.38368668220937252044677734375</LatitudeDegrees>
              <LongitudeDegrees>-4.09157414920628070831298828125</LongitudeDegrees>
            </Position>
            <AltitudeMeters>119</AltitudeMeters>
            <DistanceMeters>NAN</DistanceMeters>
          </Trackpoint>
          <Trackpoint>
            <Time>2022-07-14T14:10:43.000Z</Time>
            <Position>
              <LatitudeDegrees>43.38370445184409618377685546875</LatitudeDegrees>
              <LongitudeDegrees>-4.09159493632614612579345703125</LongitudeDegrees>
            </Position>
            <AltitudeMeters>119</AltitudeMeters>
            <DistanceMeters>NAN</DistanceMeters>
          </Trackpoint>
          <Trackpoint>
            <Time>2022-07-14T14:10:50.000Z</Time>
            <Position>
              <LatitudeDegrees>43.383764885365962982177734375</LatitudeDegrees>
              <LongitudeDegrees>-4.09173340536653995513916015625</LongitudeDegrees>
            </Position>
            <AltitudeMeters>119.59999847412109375</AltitudeMeters>
            <DistanceMeters>NAN</DistanceMeters>
          </Trackpoint>
          <Trackpoint>
            <Time>2022-07-14T14:10:53.000Z</Time>
            <Position>
              <LatitudeDegrees>43.38377469219267368316650390625</LatitudeDegrees>
              <LongitudeDegrees>-4.09180012531578540802001953125</LongitudeDegrees>
            </Position>
            <AltitudeMeters>120</AltitudeMeters>
            <DistanceMeters>NAN</DistanceMeters>
          </Trackpoint>
          <Trackpoint>
            <Time>2022-07-14T14:10:58.000Z</Time>
            <Position>
              <LatitudeDegrees>43.38381425477564334869384765625</LatitudeDegrees>
              <LongitudeDegrees>-4.09190121106803417205810546875</LongitudeDegrees>
            </Position>
            <AltitudeMeters>120.40000152587890625</AltitudeMeters>
            <DistanceMeters>NAN</DistanceMeters>
          </Trackpoint>
          <Trackpoint>
            <Time>2022-07-14T14:11:04.000Z</Time>
            <Position>
              <LatitudeDegrees>43.38385482318699359893798828125</LatitudeDegrees>
              <LongitudeDegrees>-4.09202702343463897705078125</LongitudeDegrees>
            </Position>
            <AltitudeMeters>121</AltitudeMeters>
            <DistanceMeters>NAN</DistanceMeters>
          </Trackpoint>
          <Trackpoint>
            <Time>2022-07-14T14:11:05.000Z</Time>
            <Position>
              <LatitudeDegrees>43.38386253453791141510009765625</LatitudeDegrees>
              <LongitudeDegrees>-4.09205208532512187957763671875</LongitudeDegrees>
            </Position>
            <AltitudeMeters>121.1999969482421875</AltitudeMeters>
            <DistanceMeters>NAN</DistanceMeters>
          </Trackpoint>
          <Trackpoint>
            <Time>2022-07-14T14:11:13.000Z</Time>
            <Position>
              <LatitudeDegrees>43.383927829563617706298828125</LatitudeDegrees>
              <LongitudeDegrees>-4.0922139398753643035888671875</LongitudeDegrees>
            </Position>
            <AltitudeMeters>121.1999969482421875</AltitudeMeters>
            <DistanceMeters>NAN</DistanceMeters>
          </Trackpoint>
          <Trackpoint>
            <Time>2022-07-14T14:11:18.000Z</Time>
            <Position>
              <LatitudeDegrees>43.38397116400301456451416015625</LatitudeDegrees>
              <LongitudeDegrees>-4.09232198260724544525146484375</LongitudeDegrees>
            </Position>
            <AltitudeMeters>121.59999847412109375</AltitudeMeters>
            <DistanceMeters>NAN</DistanceMeters>
          </Trackpoint>
          <Trackpoint>
            <Time>2022-07-14T14:11:22.000Z</Time>
            <Position>
              <LatitudeDegrees>43.38400192558765411376953125</LatitudeDegrees>
              <LongitudeDegrees>-4.0924030356109142303466796875</LongitudeDegrees>
            </Position>
            <AltitudeMeters>122</AltitudeMeters>
            <DistanceMeters>NAN</DistanceMeters>
          </Trackpoint>
          <Trackpoint>
            <Time>2022-07-14T14:11:27.000Z</Time>
            <Position>
              <LatitudeDegrees>43.3840423263609409332275390625</LatitudeDegrees>
              <LongitudeDegrees>-4.09249699674546718597412109375</LongitudeDegrees>
            </Position>
            <AltitudeMeters>122.1999969482421875</AltitudeMeters>
            <DistanceMeters>NAN</DistanceMeters>
          </Trackpoint>
          <Trackpoint>
            <Time>2022-07-14T14:11:32.000Z</Time>
            <Position>
              <LatitudeDegrees>43.38407191447913646697998046875</LatitudeDegrees>
              <LongitudeDegrees>-4.09260612912476062774658203125</LongitudeDegrees>
            </Position>
            <AltitudeMeters>122.59999847412109375</AltitudeMeters>
            <DistanceMeters>NAN</DistanceMeters>
          </Trackpoint>
          <Trackpoint>
            <Time>2022-07-14T14:11:36.000Z</Time>
            <Position>
              <LatitudeDegrees>43.3840973116457462310791015625</LatitudeDegrees>
              <LongitudeDegrees>-4.09268952906131744384765625</LongitudeDegrees>
            </Position>
            <AltitudeMeters>122.59999847412109375</AltitudeMeters>
            <DistanceMeters>NAN</DistanceMeters>
          </Trackpoint>
          <Trackpoint>
            <Time>2022-07-14T14:11:45.000Z</Time>
            <Position>
              <LatitudeDegrees>43.38416688144207000732421875</LatitudeDegrees>
              <LongitudeDegrees>-4.0928791277110576629638671875</LongitudeDegrees>
            </Position>
            <AltitudeMeters>122.8000030517578125</AltitudeMeters>
            <DistanceMeters>NAN</DistanceMeters>
          </Trackpoint>
          <Trackpoint>
            <Time>2022-07-14T14:11:49.000Z</Time>
            <Position>
              <LatitudeDegrees>43.3841957151889801025390625</LatitudeDegrees>
              <LongitudeDegrees>-4.09295900724828243255615234375</LongitudeDegrees>
            </Position>
            <AltitudeMeters>123</AltitudeMeters>
            <DistanceMeters>NAN</DistanceMeters>
          </Trackpoint>
          <Trackpoint>
            <Time>2022-07-14T14:11:53.000Z</Time>
            <Position>
              <LatitudeDegrees>43.38421675376594066619873046875</LatitudeDegrees>
              <LongitudeDegrees>-4.09304433502256870269775390625</LongitudeDegrees>
            </Position>
            <AltitudeMeters>123.1999969482421875</AltitudeMeters>
            <DistanceMeters>NAN</DistanceMeters>
          </Trackpoint>
          <Trackpoint>
            <Time>2022-07-14T14:11:57.000Z</Time>
            <Position>
              <LatitudeDegrees>43.384239636361598968505859375</LatitudeDegrees>
              <LongitudeDegrees>-4.09312404692173004150390625</LongitudeDegrees>
            </Position>
            <AltitudeMeters>123.40000152587890625</AltitudeMeters>
            <DistanceMeters>NAN</DistanceMeters>
          </Trackpoint>
          <Trackpoint>
            <Time>2022-07-14T14:12:08.000Z</Time>
            <Position>
              <LatitudeDegrees>43.3843108825385570526123046875</LatitudeDegrees>
              <LongitudeDegrees>-4.09335362724959850311279296875</LongitudeDegrees>
            </Position>
            <AltitudeMeters>123.8000030517578125</AltitudeMeters>
            <DistanceMeters>NAN</DistanceMeters>
          </Trackpoint>
          <Trackpoint>
            <Time>2022-07-14T14:12:14.000Z</Time>
            <Position>
              <LatitudeDegrees>43.38435086421668529510498046875</LatitudeDegrees>
              <LongitudeDegrees>-4.093482457101345062255859375</LongitudeDegrees>
            </Position>
            <AltitudeMeters>124.1999969482421875</AltitudeMeters>
            <DistanceMeters>NAN</DistanceMeters>
          </Trackpoint>
          <Trackpoint>
            <Time>2022-07-14T14:12:21.000Z</Time>
            <Position>
              <LatitudeDegrees>43.38439445011317729949951171875</LatitudeDegrees>
              <LongitudeDegrees>-4.0936262905597686767578125</LongitudeDegrees>
            </Position>
            <AltitudeMeters>124.40000152587890625</AltitudeMeters>
            <DistanceMeters>NAN</DistanceMeters>
          </Trackpoint>
          <Trackpoint>
            <Time>2022-07-14T14:12:30.000Z</Time>
            <Position>
              <LatitudeDegrees>43.38446200825273990631103515625</LatitudeDegrees>
              <LongitudeDegrees>-4.0938148833811283111572265625</LongitudeDegrees>
            </Position>
            <AltitudeMeters>124.8000030517578125</AltitudeMeters>
            <DistanceMeters>NAN</DistanceMeters>
          </Trackpoint>
          <Trackpoint>
            <Time>2022-07-14T14:12:41.000Z</Time>
            <Position>
              <LatitudeDegrees>43.38454306125640869140625</LatitudeDegrees>
              <LongitudeDegrees>-4.09402166493237018585205078125</LongitudeDegrees>
            </Position>
            <AltitudeMeters>125.1999969482421875</AltitudeMeters>
            <DistanceMeters>NAN</DistanceMeters>
          </Trackpoint>
          <Trackpoint>
            <Time>2022-07-14T14:12:43.000Z</Time>
            <Position>
              <LatitudeDegrees>43.38455982506275177001953125</LatitudeDegrees>
              <LongitudeDegrees>-4.0940609760582447052001953125</LongitudeDegrees>
            </Position>
            <AltitudeMeters>125.40000152587890625</AltitudeMeters>
            <DistanceMeters>NAN</DistanceMeters>
          </Trackpoint>
          <Trackpoint>
            <Time>2022-07-14T14:12:55.000Z</Time>
            <Position>
              <LatitudeDegrees>43.3846759982407093048095703125</LatitudeDegrees>
              <LongitudeDegrees>-4.094280414283275604248046875</LongitudeDegrees>
            </Position>
            <AltitudeMeters>126</AltitudeMeters>
            <DistanceMeters>NAN</DistanceMeters>
          </Trackpoint>
          <Trackpoint>
            <Time>2022-07-14T14:12:59.000Z</Time>
            <Position>
              <LatitudeDegrees>43.38471673429012298583984375</LatitudeDegrees>
              <LongitudeDegrees>-4.09434956498444080352783203125</LongitudeDegrees>
            </Position>
            <AltitudeMeters>126.40000152587890625</AltitudeMeters>
            <DistanceMeters>NAN</DistanceMeters>
          </Trackpoint>
          <Trackpoint>
            <Time>2022-07-14T14:13:06.000Z</Time>
            <Position>
              <LatitudeDegrees>43.38478605262935161590576171875</LatitudeDegrees>
              <LongitudeDegrees>-4.09447680227458477020263671875</LongitudeDegrees>
            </Position>
            <AltitudeMeters>126.59999847412109375</AltitudeMeters>
            <DistanceMeters>NAN</DistanceMeters>
          </Trackpoint>
          <Trackpoint>
            <Time>2022-07-14T14:13:20.000Z</Time>
            <Position>
              <LatitudeDegrees>43.3849284611642360687255859375</LatitudeDegrees>
              <LongitudeDegrees>-4.09472398459911346435546875</LongitudeDegrees>
            </Position>
            <AltitudeMeters>127.1999969482421875</AltitudeMeters>
            <DistanceMeters>NAN</DistanceMeters>
          </Trackpoint>
          <Trackpoint>
            <Time>2022-07-14T14:13:22.000Z</Time>
            <Position>
              <LatitudeDegrees>43.38495201431214809417724609375</LatitudeDegrees>
              <LongitudeDegrees>-4.0947539918124675750732421875</LongitudeDegrees>
            </Position>
            <AltitudeMeters>127.40000152587890625</AltitudeMeters>
            <DistanceMeters>NAN</DistanceMeters>
          </Trackpoint>
          <Trackpoint>
            <Time>2022-07-14T14:13:30.000Z</Time>
            <Position>
              <LatitudeDegrees>43.38503516279160976409912109375</LatitudeDegrees>
              <LongitudeDegrees>-4.0949045307934284210205078125</LongitudeDegrees>
            </Position>
            <AltitudeMeters>127.40000152587890625</AltitudeMeters>
            <DistanceMeters>NAN</DistanceMeters>
          </Trackpoint>
          <Trackpoint>
            <Time>2022-07-14T14:13:38.000Z</Time>
            <Position>
              <LatitudeDegrees>43.3851323090493679046630859375</LatitudeDegrees>
              <LongitudeDegrees>-4.09504593349993228912353515625</LongitudeDegrees>
            </Position>
            <AltitudeMeters>127.59999847412109375</AltitudeMeters>
            <DistanceMeters>NAN</DistanceMeters>
          </Trackpoint>
          <Trackpoint>
            <Time>2022-07-14T14:13:45.000Z</Time>
            <Position>
              <LatitudeDegrees>43.38524068705737590789794921875</LatitudeDegrees>
              <LongitudeDegrees>-4.0950554050505161285400390625</LongitudeDegrees>
            </Position>
            <AltitudeMeters>127.59999847412109375</AltitudeMeters>
            <DistanceMeters>NAN</DistanceMeters>
          </Trackpoint>
          <Trackpoint>
            <Time>2022-07-14T14:13:48.000Z</Time>
            <Position>
              <LatitudeDegrees>43.38524186052381992340087890625</LatitudeDegrees>
              <LongitudeDegrees>-4.095062278211116790771484375</LongitudeDegrees>
            </Position>
            <AltitudeMeters>127</AltitudeMeters>
            <DistanceMeters>NAN</DistanceMeters>
          </Trackpoint>
          <Trackpoint>
            <Time>2022-07-14T14:18:30.000Z</Time>
            <Position>
              <LatitudeDegrees>43.3851443789899349212646484375</LatitudeDegrees>
              <LongitudeDegrees>-4.09502531401813030242919921875</LongitudeDegrees>
            </Position>
            <AltitudeMeters>134</AltitudeMeters>
            <DistanceMeters>NAN</DistanceMeters>
          </Trackpoint>
          <Trackpoint>
            <Time>2022-07-14T14:18:31.000Z</Time>
            <Position>
              <LatitudeDegrees>43.3851329796016216278076171875</LatitudeDegrees>
              <LongitudeDegrees>-4.095029421150684356689453125</LongitudeDegrees>
            </Position>
            <AltitudeMeters>134</AltitudeMeters>
            <DistanceMeters>NAN</DistanceMeters>
          </Trackpoint>
          <Trackpoint>
            <Time>2022-07-14T14:18:33.000Z</Time>
            <Position>
              <LatitudeDegrees>43.38513423688709735870361328125</LatitudeDegrees>
              <LongitudeDegrees>-4.09505926072597503662109375</LongitudeDegrees>
            </Position>
            <AltitudeMeters>134.1999969482421875</AltitudeMeters>
            <DistanceMeters>NAN</DistanceMeters>
          </Trackpoint>
          <Trackpoint>
            <Time>2022-07-14T14:18:34.000Z</Time>
            <Position>
              <LatitudeDegrees>43.38513758964836597442626953125</LatitudeDegrees>
              <LongitudeDegrees>-4.09507057629525661468505859375</LongitudeDegrees>
            </Position>
            <AltitudeMeters>134.1999969482421875</AltitudeMeters>
            <DistanceMeters>NAN</DistanceMeters>
          </Trackpoint>
          <Trackpoint>
            <Time>2022-07-14T14:18:37.000Z</Time>
            <Position>
              <LatitudeDegrees>43.38514530099928379058837890625</LatitudeDegrees>
              <LongitudeDegrees>-4.0950849093496799468994140625</LongitudeDegrees>
            </Position>
            <AltitudeMeters>134.1999969482421875</AltitudeMeters>
            <DistanceMeters>NAN</DistanceMeters>
          </Trackpoint>
          <Trackpoint>
            <Time>2022-07-14T14:18:41.000Z</Time>
            <Position>
              <LatitudeDegrees>43.38515619747340679168701171875</LatitudeDegrees>
              <LongitudeDegrees>-4.09514400176703929901123046875</LongitudeDegrees>
            </Position>
            <AltitudeMeters>134.1999969482421875</AltitudeMeters>
            <DistanceMeters>NAN</DistanceMeters>
          </Trackpoint>
          <Trackpoint>
            <Time>2022-07-14T14:18:42.000Z</Time>
            <Position>
              <LatitudeDegrees>43.38516575284302234649658203125</LatitudeDegrees>
              <LongitudeDegrees>-4.09516629762947559356689453125</LongitudeDegrees>
            </Position>
            <AltitudeMeters>134.1999969482421875</AltitudeMeters>
            <DistanceMeters>NAN</DistanceMeters>
          </Trackpoint>
          <Trackpoint>
            <Time>2022-07-14T14:18:43.000Z</Time>
            <Position>
              <LatitudeDegrees>43.3851769007742404937744140625</LatitudeDegrees>
              <LongitudeDegrees>-4.095182307064533233642578125</LongitudeDegrees>
            </Position>
            <AltitudeMeters>134.1999969482421875</AltitudeMeters>
            <DistanceMeters>NAN</DistanceMeters>
          </Trackpoint>
          <Trackpoint>
            <Time>2022-07-14T14:18:48.000Z</Time>
            <Position>
              <LatitudeDegrees>43.38523968122899532318115234375</LatitudeDegrees>
              <LongitudeDegrees>-4.09527727402746677398681640625</LongitudeDegrees>
            </Position>
            <AltitudeMeters>134.1999969482421875</AltitudeMeters>
            <DistanceMeters>NAN</DistanceMeters>
          </Trackpoint>
          <Trackpoint>
            <Time>2022-07-14T14:18:51.000Z</Time>
            <Position>
              <LatitudeDegrees>43.38529030792415142059326171875</LatitudeDegrees>
              <LongitudeDegrees>-4.09532588906586170196533203125</LongitudeDegrees>
            </Position>
            <AltitudeMeters>134.1999969482421875</AltitudeMeters>
            <DistanceMeters>NAN</DistanceMeters>
          </Trackpoint>
          <Trackpoint>
            <Time>2022-07-14T14:18:54.000Z</Time>
            <Position>
              <LatitudeDegrees>43.38535317219793796539306640625</LatitudeDegrees>
              <LongitudeDegrees>-4.095349945127964019775390625</LongitudeDegrees>
            </Position>
            <AltitudeMeters>134.1999969482421875</AltitudeMeters>
            <DistanceMeters>NAN</DistanceMeters>
          </Trackpoint>
          <Trackpoint>
            <Time>2022-07-14T14:18:55.000Z</Time>
            <Position>
              <LatitudeDegrees>43.3853723667562007904052734375</LatitudeDegrees>
              <LongitudeDegrees>-4.09534835256636142730712890625</LongitudeDegrees>
            </Position>
            <AltitudeMeters>134.1999969482421875</AltitudeMeters>
            <DistanceMeters>NAN</DistanceMeters>
          </Trackpoint>
          <Trackpoint>
            <Time>2022-07-14T14:19:03.000Z</Time>
            <Position>
              <LatitudeDegrees>43.38550907559692859649658203125</LatitudeDegrees>
              <LongitudeDegrees>-4.09538037143647670745849609375</LongitudeDegrees>
            </Position>
            <AltitudeMeters>134</AltitudeMeters>
            <DistanceMeters>NAN</DistanceMeters>
          </Trackpoint>
          <Trackpoint>
            <Time>2022-07-14T14:19:05.000Z</Time>
            <Position>
              <LatitudeDegrees>43.3855450339615345001220703125</LatitudeDegrees>
              <LongitudeDegrees>-4.0954017452895641326904296875</LongitudeDegrees>
            </Position>
            <AltitudeMeters>134</AltitudeMeters>
            <DistanceMeters>NAN</DistanceMeters>
          </Trackpoint>
          <Trackpoint>
            <Time>2022-07-14T14:19:10.000Z</Time>
            <Position>
              <LatitudeDegrees>43.38559540919959545135498046875</LatitudeDegrees>
              <LongitudeDegrees>-4.09550853073596954345703125</LongitudeDegrees>
            </Position>
            <AltitudeMeters>133.8000030517578125</AltitudeMeters>
            <DistanceMeters>NAN</DistanceMeters>
          </Trackpoint>
          <Trackpoint>
            <Time>2022-07-14T14:19:11.000Z</Time>
            <Position>
              <LatitudeDegrees>43.38560395874083042144775390625</LatitudeDegrees>
              <LongitudeDegrees>-4.09553979523479938507080078125</LongitudeDegrees>
            </Position>
            <AltitudeMeters>133.8000030517578125</AltitudeMeters>
            <DistanceMeters>NAN</DistanceMeters>
          </Trackpoint>
          <Trackpoint>
            <Time>2022-07-14T14:19:15.000Z</Time>
            <Position>
              <LatitudeDegrees>43.385639749467372894287109375</LatitudeDegrees>
              <LongitudeDegrees>-4.09568153321743011474609375</LongitudeDegrees>
            </Position>
            <AltitudeMeters>133.8000030517578125</AltitudeMeters>
            <DistanceMeters>NAN</DistanceMeters>
          </Trackpoint>
          <Trackpoint>
            <Time>2022-07-14T14:19:18.000Z</Time>
            <Position>
              <LatitudeDegrees>43.38564813137054443359375</LatitudeDegrees>
              <LongitudeDegrees>-4.095790497958660125732421875</LongitudeDegrees>
            </Position>
            <AltitudeMeters>133.600006103515625</AltitudeMeters>
            <DistanceMeters>NAN</DistanceMeters>
          </Trackpoint>
          <Trackpoint>
            <Time>2022-07-14T14:19:23.000Z</Time>
            <Position>
              <LatitudeDegrees>43.38558836840093135833740234375</LatitudeDegrees>
              <LongitudeDegrees>-4.09597749821841716766357421875</LongitudeDegrees>
            </Position>
            <AltitudeMeters>133.1999969482421875</AltitudeMeters>
            <DistanceMeters>NAN</DistanceMeters>
          </Trackpoint>
          <Trackpoint>
            <Time>2022-07-14T14:19:26.000Z</Time>
            <Position>
              <LatitudeDegrees>43.3854965865612030029296875</LatitudeDegrees>
              <LongitudeDegrees>-4.096063412725925445556640625</LongitudeDegrees>
            </Position>
            <AltitudeMeters>133</AltitudeMeters>
            <DistanceMeters>NAN</DistanceMeters>
          </Trackpoint>
          <Trackpoint>
            <Time>2022-07-14T14:19:28.000Z</Time>
            <Position>
              <LatitudeDegrees>43.38542358018457889556884765625</LatitudeDegrees>
              <LongitudeDegrees>-4.0960912406444549560546875</LongitudeDegrees>
            </Position>
            <AltitudeMeters>132.8000030517578125</AltitudeMeters>
            <DistanceMeters>NAN</DistanceMeters>
          </Trackpoint>
          <Trackpoint>
            <Time>2022-07-14T14:19:35.000Z</Time>
            <Position>
              <LatitudeDegrees>43.38513557799160480499267578125</LatitudeDegrees>
              <LongitudeDegrees>-4.0961041487753391265869140625</LongitudeDegrees>
            </Position>
            <AltitudeMeters>131.8000030517578125</AltitudeMeters>
            <DistanceMeters>NAN</DistanceMeters>
          </Trackpoint>
          <Trackpoint>
            <Time>2022-07-14T14:19:36.000Z</Time>
            <Position>
              <LatitudeDegrees>43.385090567171573638916015625</LatitudeDegrees>
              <LongitudeDegrees>-4.096124432981014251708984375</LongitudeDegrees>
            </Position>
            <AltitudeMeters>131.8000030517578125</AltitudeMeters>
            <DistanceMeters>NAN</DistanceMeters>
          </Trackpoint>
          <Trackpoint>
            <Time>2022-07-14T14:19:41.000Z</Time>
            <Position>
              <LatitudeDegrees>43.3848707936704158782958984375</LatitudeDegrees>
              <LongitudeDegrees>-4.0962922386825084686279296875</LongitudeDegrees>
            </Position>
            <AltitudeMeters>131.8000030517578125</AltitudeMeters>
            <DistanceMeters>NAN</DistanceMeters>
          </Trackpoint>
          <Trackpoint>
            <Time>2022-07-14T14:19:47.000Z</Time>
            <Position>
              <LatitudeDegrees>43.3845723979175090789794921875</LatitudeDegrees>
              <LongitudeDegrees>-4.09655249677598476409912109375</LongitudeDegrees>
            </Position>
            <AltitudeMeters>131</AltitudeMeters>
            <DistanceMeters>NAN</DistanceMeters>
          </Trackpoint>
          <Trackpoint>
            <Time>2022-07-14T14:19:48.000Z</Time>
            <Position>
              <LatitudeDegrees>43.3845187537372112274169921875</LatitudeDegrees>
              <LongitudeDegrees>-4.09659910015761852264404296875</LongitudeDegrees>
            </Position>
            <AltitudeMeters>130.8000030517578125</AltitudeMeters>
            <DistanceMeters>NAN</DistanceMeters>
          </Trackpoint>
          <Trackpoint>
            <Time>2022-07-14T14:19:52.000Z</Time>
            <Position>
              <LatitudeDegrees>43.38427291251718997955322265625</LatitudeDegrees>
              <LongitudeDegrees>-4.09681853838264942169189453125</LongitudeDegrees>
            </Position>
            <AltitudeMeters>129.600006103515625</AltitudeMeters>
            <DistanceMeters>NAN</DistanceMeters>
          </Trackpoint>
          <Trackpoint>
            <Time>2022-07-14T14:19:53.000Z</Time>
            <Position>
              <LatitudeDegrees>43.38420652784407138824462890625</LatitudeDegrees>
              <LongitudeDegrees>-4.09688257612287998199462890625</LongitudeDegrees>
            </Position>
            <AltitudeMeters>129.1999969482421875</AltitudeMeters>
            <DistanceMeters>NAN</DistanceMeters>
          </Trackpoint>
          <Trackpoint>
            <Time>2022-07-14T14:19:55.000Z</Time>
            <Position>
              <LatitudeDegrees>43.3840855769813060760498046875</LatitudeDegrees>
              <LongitudeDegrees>-4.09701702184975147247314453125</LongitudeDegrees>
            </Position>
            <AltitudeMeters>128.600006103515625</AltitudeMeters>
            <DistanceMeters>NAN</DistanceMeters>
          </Trackpoint>
          <Trackpoint>
            <Time>2022-07-14T14:19:57.000Z</Time>
            <Position>
              <LatitudeDegrees>43.3839591778814792633056640625</LatitudeDegrees>
              <LongitudeDegrees>-4.097198657691478729248046875</LongitudeDegrees>
            </Position>
            <AltitudeMeters>127.59999847412109375</AltitudeMeters>
            <DistanceMeters>NAN</DistanceMeters>
          </Trackpoint>
          <Trackpoint>
            <Time>2022-07-14T14:19:58.000Z</Time>
            <Position>
              <LatitudeDegrees>43.38389187119901180267333984375</LatitudeDegrees>
              <LongitudeDegrees>-4.0973223745822906494140625</LongitudeDegrees>
            </Position>
            <AltitudeMeters>127</AltitudeMeters>
            <DistanceMeters>NAN</DistanceMeters>
          </Trackpoint>
          <Trackpoint>
            <Time>2022-07-14T14:20:00.000Z</Time>
            <Position>
              <LatitudeDegrees>43.3837948925793170928955078125</LatitudeDegrees>
              <LongitudeDegrees>-4.09755430184304714202880859375</LongitudeDegrees>
            </Position>
            <AltitudeMeters>125.59999847412109375</AltitudeMeters>
            <DistanceMeters>NAN</DistanceMeters>
          </Trackpoint>
          <Trackpoint>
            <Time>2022-07-14T14:20:01.000Z</Time>
            <Position>
              <LatitudeDegrees>43.38375625200569629669189453125</LatitudeDegrees>
              <LongitudeDegrees>-4.097683466970920562744140625</LongitudeDegrees>
            </Position>
            <AltitudeMeters>125.1999969482421875</AltitudeMeters>
            <DistanceMeters>NAN</DistanceMeters>
          </Trackpoint>
          <Trackpoint>
            <Time>2022-07-14T14:20:02.000Z</Time>
            <Position>
              <LatitudeDegrees>43.383723311126232147216796875</LatitudeDegrees>
              <LongitudeDegrees>-4.09781866706907749176025390625</LongitudeDegrees>
            </Position>
            <AltitudeMeters>124.59999847412109375</AltitudeMeters>
            <DistanceMeters>NAN</DistanceMeters>
          </Trackpoint>
          <Trackpoint>
            <Time>2022-07-14T14:20:03.000Z</Time>
            <Position>
              <LatitudeDegrees>43.383702524006366729736328125</LatitudeDegrees>
              <LongitudeDegrees>-4.0979572199285030364990234375</LongitudeDegrees>
            </Position>
            <AltitudeMeters>124.1999969482421875</AltitudeMeters>
            <DistanceMeters>NAN</DistanceMeters>
          </Trackpoint>
          <Trackpoint>
            <Time>2022-07-14T14:20:05.000Z</Time>
            <Position>
              <LatitudeDegrees>43.38368601165711879730224609375</LatitudeDegrees>
              <LongitudeDegrees>-4.09823893569409847259521484375</LongitudeDegrees>
            </Position>
            <AltitudeMeters>123.40000152587890625</AltitudeMeters>
            <DistanceMeters>NAN</DistanceMeters>
          </Trackpoint>
          <Trackpoint>
            <Time>2022-07-14T14:20:07.000Z</Time>
            <Position>
              <LatitudeDegrees>43.3836979977786540985107421875</LatitudeDegrees>
              <LongitudeDegrees>-4.09851922653615474700927734375</LongitudeDegrees>
            </Position>
            <AltitudeMeters>122.1999969482421875</AltitudeMeters>
            <DistanceMeters>NAN</DistanceMeters>
          </Trackpoint>
          <Trackpoint>
            <Time>2022-07-14T14:20:09.000Z</Time>
            <Position>
              <LatitudeDegrees>43.383729346096515655517578125</LatitudeDegrees>
              <LongitudeDegrees>-4.0987984277307987213134765625</LongitudeDegrees>
            </Position>
            <AltitudeMeters>120.59999847412109375</AltitudeMeters>
            <DistanceMeters>NAN</DistanceMeters>
          </Trackpoint>
          <Trackpoint>
            <Time>2022-07-14T14:20:11.000Z</Time>
            <Position>
              <LatitudeDegrees>43.38375591672956943511962890625</LatitudeDegrees>
              <LongitudeDegrees>-4.09907855093479156494140625</LongitudeDegrees>
            </Position>
            <AltitudeMeters>119.59999847412109375</AltitudeMeters>
            <DistanceMeters>NAN</DistanceMeters>
          </Trackpoint>
          <Trackpoint>
            <Time>2022-07-14T14:20:12.000Z</Time>
            <Position>
              <LatitudeDegrees>43.383762538433074951171875</LatitudeDegrees>
              <LongitudeDegrees>-4.09918827004730701446533203125</LongitudeDegrees>
            </Position>
            <AltitudeMeters>119.1999969482421875</AltitudeMeters>
            <DistanceMeters>NAN</DistanceMeters>
          </Trackpoint>
          <Trackpoint>
            <Time>2022-07-14T14:20:14.000Z</Time>
            <Position>
              <LatitudeDegrees>43.3837828226387500762939453125</LatitudeDegrees>
              <LongitudeDegrees>-4.0994518809020519256591796875</LongitudeDegrees>
            </Position>
            <AltitudeMeters>118</AltitudeMeters>
            <DistanceMeters>NAN</DistanceMeters>
          </Trackpoint>
          <Trackpoint>
            <Time>2022-07-14T14:20:16.000Z</Time>
            <Position>
              <LatitudeDegrees>43.3837787993252277374267578125</LatitudeDegrees>
              <LongitudeDegrees>-4.09971431829035282135009765625</LongitudeDegrees>
            </Position>
            <AltitudeMeters>116.59999847412109375</AltitudeMeters>
            <DistanceMeters>NAN</DistanceMeters>
          </Trackpoint>
          <Trackpoint>
            <Time>2022-07-14T14:20:18.000Z</Time>
            <Position>
              <LatitudeDegrees>43.3837382309138774871826171875</LatitudeDegrees>
              <LongitudeDegrees>-4.10000257194042205810546875</LongitudeDegrees>
            </Position>
            <AltitudeMeters>115</AltitudeMeters>
            <DistanceMeters>NAN</DistanceMeters>
          </Trackpoint>
          <Trackpoint>
            <Time>2022-07-14T14:20:20.000Z</Time>
            <Position>
              <LatitudeDegrees>43.38367830030620098114013671875</LatitudeDegrees>
              <LongitudeDegrees>-4.1002193279564380645751953125</LongitudeDegrees>
            </Position>
            <AltitudeMeters>113.8000030517578125</AltitudeMeters>
            <DistanceMeters>NAN</DistanceMeters>
          </Trackpoint>
          <Trackpoint>
            <Time>2022-07-14T14:20:22.000Z</Time>
            <Position>
              <LatitudeDegrees>43.38358073495328426361083984375</LatitudeDegrees>
              <LongitudeDegrees>-4.1004694439470767974853515625</LongitudeDegrees>
            </Position>
            <AltitudeMeters>112.8000030517578125</AltitudeMeters>
            <DistanceMeters>NAN</DistanceMeters>
          </Trackpoint>
          <Trackpoint>
            <Time>2022-07-14T14:20:23.000Z</Time>
            <Position>
              <LatitudeDegrees>43.3835280127823352813720703125</LatitudeDegrees>
              <LongitudeDegrees>-4.10057513974606990814208984375</LongitudeDegrees>
            </Position>
            <AltitudeMeters>112</AltitudeMeters>
            <DistanceMeters>NAN</DistanceMeters>
          </Trackpoint>
          <Trackpoint>
            <Time>2022-07-14T14:20:24.000Z</Time>
            <Position>
              <LatitudeDegrees>43.38346338830888271331787109375</LatitudeDegrees>
              <LongitudeDegrees>-4.10067672841250896453857421875</LongitudeDegrees>
            </Position>
            <AltitudeMeters>111.40000152587890625</AltitudeMeters>
            <DistanceMeters>NAN</DistanceMeters>
          </Trackpoint>
          <Trackpoint>
            <Time>2022-07-14T14:20:26.000Z</Time>
            <Position>
              <LatitudeDegrees>43.3833213150501251220703125</LatitudeDegrees>
              <LongitudeDegrees>-4.1008506529033184051513671875</LongitudeDegrees>
            </Position>
            <AltitudeMeters>110</AltitudeMeters>
            <DistanceMeters>NAN</DistanceMeters>
          </Trackpoint>
          <Trackpoint>
            <Time>2022-07-14T14:20:28.000Z</Time>
            <Position>
              <LatitudeDegrees>43.38317488320171833038330078125</LatitudeDegrees>
              <LongitudeDegrees>-4.1009964980185031890869140625</LongitudeDegrees>
            </Position>
            <AltitudeMeters>108.59999847412109375</AltitudeMeters>
            <DistanceMeters>NAN</DistanceMeters>
          </Trackpoint>
          <Trackpoint>
            <Time>2022-07-14T14:20:29.000Z</Time>
            <Position>
              <LatitudeDegrees>43.38309491984546184539794921875</LatitudeDegrees>
              <LongitudeDegrees>-4.10105927847325801849365234375</LongitudeDegrees>
            </Position>
            <AltitudeMeters>107.59999847412109375</AltitudeMeters>
            <DistanceMeters>NAN</DistanceMeters>
          </Trackpoint>
          <Trackpoint>
            <Time>2022-07-14T14:20:30.000Z</Time>
            <Position>
              <LatitudeDegrees>43.3830116875469684600830078125</LatitudeDegrees>
              <LongitudeDegrees>-4.10110755823552608489990234375</LongitudeDegrees>
            </Position>
            <AltitudeMeters>107</AltitudeMeters>
            <DistanceMeters>NAN</DistanceMeters>
          </Trackpoint>
          <Trackpoint>
            <Time>2022-07-14T14:20:31.000Z</Time>
            <Position>
              <LatitudeDegrees>43.38292300701141357421875</LatitudeDegrees>
              <LongitudeDegrees>-4.1011456958949565887451171875</LongitudeDegrees>
            </Position>
            <AltitudeMeters>106</AltitudeMeters>
            <DistanceMeters>NAN</DistanceMeters>
          </Trackpoint>
          <Trackpoint>
            <Time>2022-07-14T14:20:32.000Z</Time>
            <Position>
              <LatitudeDegrees>43.38282519020140171051025390625</LatitudeDegrees>
              <LongitudeDegrees>-4.10118006169795989990234375</LongitudeDegrees>
            </Position>
            <AltitudeMeters>105.40000152587890625</AltitudeMeters>
            <DistanceMeters>NAN</DistanceMeters>
          </Trackpoint>
          <Trackpoint>
            <Time>2022-07-14T14:20:33.000Z</Time>
            <Position>
              <LatitudeDegrees>43.3827297203242778778076171875</LatitudeDegrees>
              <LongitudeDegrees>-4.1012033633887767791748046875</LongitudeDegrees>
            </Position>
            <AltitudeMeters>104.59999847412109375</AltitudeMeters>
            <DistanceMeters>NAN</DistanceMeters>
          </Trackpoint>
          <Trackpoint>
            <Time>2022-07-14T14:20:34.000Z</Time>
            <Position>
              <LatitudeDegrees>43.3826346695423126220703125</LatitudeDegrees>
              <LongitudeDegrees>-4.10121870227158069610595703125</LongitudeDegrees>
            </Position>
            <AltitudeMeters>104</AltitudeMeters>
            <DistanceMeters>NAN</DistanceMeters>
          </Trackpoint>
          <Trackpoint>
            <Time>2022-07-14T14:20:37.000Z</Time>
            <Position>
              <LatitudeDegrees>43.3823428116738796234130859375</LatitudeDegrees>
              <LongitudeDegrees>-4.1011855937540531158447265625</LongitudeDegrees>
            </Position>
            <AltitudeMeters>102.40000152587890625</AltitudeMeters>
            <DistanceMeters>NAN</DistanceMeters>
          </Trackpoint>
          <Trackpoint>
            <Time>2022-07-14T14:20:39.000Z</Time>
            <Position>
              <LatitudeDegrees>43.3821667917072772979736328125</LatitudeDegrees>
              <LongitudeDegrees>-4.10112105309963226318359375</LongitudeDegrees>
            </Position>
            <AltitudeMeters>101</AltitudeMeters>
            <DistanceMeters>NAN</DistanceMeters>
          </Trackpoint>
          <Trackpoint>
            <Time>2022-07-14T14:20:41.000Z</Time>
            <Position>
              <LatitudeDegrees>43.38200544007122516632080078125</LatitudeDegrees>
              <LongitudeDegrees>-4.10106279887259006500244140625</LongitudeDegrees>
            </Position>
            <AltitudeMeters>99.1999969482421875</AltitudeMeters>
            <DistanceMeters>NAN</DistanceMeters>
          </Trackpoint>
          <Trackpoint>
            <Time>2022-07-14T14:20:42.000Z</Time>
            <Position>
              <LatitudeDegrees>43.3819445036351680755615234375</LatitudeDegrees>
              <LongitudeDegrees>-4.10105978138744831085205078125</LongitudeDegrees>
            </Position>
            <AltitudeMeters>98.59999847412109375</AltitudeMeters>
            <DistanceMeters>NAN</DistanceMeters>
          </Trackpoint>
          <Trackpoint>
            <Time>2022-07-14T14:20:43.000Z</Time>
            <Position>
              <LatitudeDegrees>43.3818707428872585296630859375</LatitudeDegrees>
              <LongitudeDegrees>-4.1010756231844425201416015625</LongitudeDegrees>
            </Position>
            <AltitudeMeters>98.1999969482421875</AltitudeMeters>
            <DistanceMeters>NAN</DistanceMeters>
          </Trackpoint>
          <Trackpoint>
            <Time>2022-07-14T14:20:44.000Z</Time>
            <Position>
              <LatitudeDegrees>43.38180544786155223846435546875</LatitudeDegrees>
              <LongitudeDegrees>-4.10111828707158565521240234375</LongitudeDegrees>
            </Position>
            <AltitudeMeters>98</AltitudeMeters>
            <DistanceMeters>NAN</DistanceMeters>
          </Trackpoint>
          <Trackpoint>
            <Time>2022-07-14T14:20:45.000Z</Time>
            <Position>
              <LatitudeDegrees>43.3817490376532077789306640625</LatitudeDegrees>
              <LongitudeDegrees>-4.10117779858410358428955078125</LongitudeDegrees>
            </Position>
            <AltitudeMeters>97.8000030517578125</AltitudeMeters>
            <DistanceMeters>NAN</DistanceMeters>
          </Trackpoint>
          <Trackpoint>
            <Time>2022-07-14T14:20:47.000Z</Time>
            <Position>
              <LatitudeDegrees>43.3816632069647312164306640625</LatitudeDegrees>
              <LongitudeDegrees>-4.1013394854962825775146484375</LongitudeDegrees>
            </Position>
            <AltitudeMeters>97.59999847412109375</AltitudeMeters>
            <DistanceMeters>NAN</DistanceMeters>
          </Trackpoint>
          <Trackpoint>
            <Time>2022-07-14T14:20:48.000Z</Time>
            <Position>
              <LatitudeDegrees>43.3816404081881046295166015625</LatitudeDegrees>
              <LongitudeDegrees>-4.101433195173740386962890625</LongitudeDegrees>
            </Position>
            <AltitudeMeters>97.59999847412109375</AltitudeMeters>
            <DistanceMeters>NAN</DistanceMeters>
          </Trackpoint>
          <Trackpoint>
            <Time>2022-07-14T14:20:49.000Z</Time>
            <Position>
              <LatitudeDegrees>43.38163110427558422088623046875</LatitudeDegrees>
              <LongitudeDegrees>-4.10152883268892765045166015625</LongitudeDegrees>
            </Position>
            <AltitudeMeters>97.59999847412109375</AltitudeMeters>
            <DistanceMeters>NAN</DistanceMeters>
          </Trackpoint>
          <Trackpoint>
            <Time>2022-07-14T14:20:52.000Z</Time>
            <Position>
              <LatitudeDegrees>43.3816370554268360137939453125</LatitudeDegrees>
              <LongitudeDegrees>-4.10180644132196903228759765625</LongitudeDegrees>
            </Position>
            <AltitudeMeters>97.8000030517578125</AltitudeMeters>
            <DistanceMeters>NAN</DistanceMeters>
          </Trackpoint>
          <Trackpoint>
            <Time>2022-07-14T14:20:58.000Z</Time>
            <Position>
              <LatitudeDegrees>43.381707966327667236328125</LatitudeDegrees>
              <LongitudeDegrees>-4.1023023985326290130615234375</LongitudeDegrees>
            </Position>
            <AltitudeMeters>96.8000030517578125</AltitudeMeters>
            <DistanceMeters>NAN</DistanceMeters>
          </Trackpoint>
          <Trackpoint>
            <Time>2022-07-14T14:21:01.000Z</Time>
            <Position>
              <LatitudeDegrees>43.3817715011537075042724609375</LatitudeDegrees>
              <LongitudeDegrees>-4.10252326168119907379150390625</LongitudeDegrees>
            </Position>
            <AltitudeMeters>96</AltitudeMeters>
            <DistanceMeters>NAN</DistanceMeters>
          </Trackpoint>
          <Trackpoint>
            <Time>2022-07-14T14:21:04.000Z</Time>
            <Position>
              <LatitudeDegrees>43.381848447024822235107421875</LatitudeDegrees>
              <LongitudeDegrees>-4.1027416102588176727294921875</LongitudeDegrees>
            </Position>
            <AltitudeMeters>95.59999847412109375</AltitudeMeters>
            <DistanceMeters>NAN</DistanceMeters>
          </Trackpoint>
          <Trackpoint>
            <Time>2022-07-14T14:21:06.000Z</Time>
            <Position>
              <LatitudeDegrees>43.38190888054668903350830078125</LatitudeDegrees>
              <LongitudeDegrees>-4.10288703627884387969970703125</LongitudeDegrees>
            </Position>
            <AltitudeMeters>95</AltitudeMeters>
            <DistanceMeters>NAN</DistanceMeters>
          </Trackpoint>
          <Trackpoint>
            <Time>2022-07-14T14:21:08.000Z</Time>
            <Position>
              <LatitudeDegrees>43.381965458393096923828125</LatitudeDegrees>
              <LongitudeDegrees>-4.10303422249853610992431640625</LongitudeDegrees>
            </Position>
            <AltitudeMeters>94.40000152587890625</AltitudeMeters>
            <DistanceMeters>NAN</DistanceMeters>
          </Trackpoint>
          <Trackpoint>
            <Time>2022-07-14T14:21:13.000Z</Time>
            <Position>
              <LatitudeDegrees>43.382123373448848724365234375</LatitudeDegrees>
              <LongitudeDegrees>-4.1034190356731414794921875</LongitudeDegrees>
            </Position>
            <AltitudeMeters>93.59999847412109375</AltitudeMeters>
            <DistanceMeters>NAN</DistanceMeters>
          </Trackpoint>
          <Trackpoint>
            <Time>2022-07-14T14:21:14.000Z</Time>
            <Position>
              <LatitudeDegrees>43.3821570686995983123779296875</LatitudeDegrees>
              <LongitudeDegrees>-4.10349925048649311065673828125</LongitudeDegrees>
            </Position>
            <AltitudeMeters>93.1999969482421875</AltitudeMeters>
            <DistanceMeters>NAN</DistanceMeters>
          </Trackpoint>
          <Trackpoint>
            <Time>2022-07-14T14:21:15.000Z</Time>
            <Position>
              <LatitudeDegrees>43.3821912668645381927490234375</LatitudeDegrees>
              <LongitudeDegrees>-4.1035794652998447418212890625</LongitudeDegrees>
            </Position>
            <AltitudeMeters>93.1999969482421875</AltitudeMeters>
            <DistanceMeters>NAN</DistanceMeters>
          </Trackpoint>
          <Trackpoint>
            <Time>2022-07-14T14:21:18.000Z</Time>
            <Position>
              <LatitudeDegrees>43.3822985552251338958740234375</LatitudeDegrees>
              <LongitudeDegrees>-4.10380686633288860321044921875</LongitudeDegrees>
            </Position>
            <AltitudeMeters>92</AltitudeMeters>
            <DistanceMeters>NAN</DistanceMeters>
          </Trackpoint>
          <Trackpoint>
            <Time>2022-07-14T14:21:21.000Z</Time>
            <Position>
              <LatitudeDegrees>43.38239553384482860565185546875</LatitudeDegrees>
              <LongitudeDegrees>-4.10402982495725154876708984375</LongitudeDegrees>
            </Position>
            <AltitudeMeters>91.40000152587890625</AltitudeMeters>
            <DistanceMeters>NAN</DistanceMeters>
          </Trackpoint>
          <Trackpoint>
            <Time>2022-07-14T14:21:24.000Z</Time>
            <Position>
              <LatitudeDegrees>43.38248957879841327667236328125</LatitudeDegrees>
              <LongitudeDegrees>-4.104240797460079193115234375</LongitudeDegrees>
            </Position>
            <AltitudeMeters>91.1999969482421875</AltitudeMeters>
            <DistanceMeters>NAN</DistanceMeters>
          </Trackpoint>
          <Trackpoint>
            <Time>2022-07-14T14:21:25.000Z</Time>
            <Position>
              <LatitudeDegrees>43.382521681487560272216796875</LatitudeDegrees>
              <LongitudeDegrees>-4.1043036617338657379150390625</LongitudeDegrees>
            </Position>
            <AltitudeMeters>91</AltitudeMeters>
            <DistanceMeters>NAN</DistanceMeters>
          </Trackpoint>
          <Trackpoint>
            <Time>2022-07-14T14:21:30.000Z</Time>
            <Position>
              <LatitudeDegrees>43.38266660459339618682861328125</LatitudeDegrees>
              <LongitudeDegrees>-4.104570038616657257080078125</LongitudeDegrees>
            </Position>
            <AltitudeMeters>89.8000030517578125</AltitudeMeters>
            <DistanceMeters>NAN</DistanceMeters>
          </Trackpoint>
          <Trackpoint>
            <Time>2022-07-14T14:21:32.000Z</Time>
            <Position>
              <LatitudeDegrees>43.3827179856598377227783203125</LatitudeDegrees>
              <LongitudeDegrees>-4.1046728007495403289794921875</LongitudeDegrees>
            </Position>
            <AltitudeMeters>89.8000030517578125</AltitudeMeters>
            <DistanceMeters>NAN</DistanceMeters>
          </Trackpoint>
          <Trackpoint>
            <Time>2022-07-14T14:21:39.000Z</Time>
            <Position>
              <LatitudeDegrees>43.382882773876190185546875</LatitudeDegrees>
              <LongitudeDegrees>-4.104978404939174652099609375</LongitudeDegrees>
            </Position>
            <AltitudeMeters>89.8000030517578125</AltitudeMeters>
            <DistanceMeters>NAN</DistanceMeters>
          </Trackpoint>
          <Trackpoint>
            <Time>2022-07-14T14:21:41.000Z</Time>
            <Position>
              <LatitudeDegrees>43.3829258568584918975830078125</LatitudeDegrees>
              <LongitudeDegrees>-4.10507102496922016143798828125</LongitudeDegrees>
            </Position>
            <AltitudeMeters>89.8000030517578125</AltitudeMeters>
            <DistanceMeters>NAN</DistanceMeters>
          </Trackpoint>
          <Trackpoint>
            <Time>2022-07-14T14:21:43.000Z</Time>
            <Position>
              <LatitudeDegrees>43.38296935893595218658447265625</LatitudeDegrees>
              <LongitudeDegrees>-4.105147384107112884521484375</LongitudeDegrees>
            </Position>
            <AltitudeMeters>89.8000030517578125</AltitudeMeters>
            <DistanceMeters>NAN</DistanceMeters>
          </Trackpoint>
          <Trackpoint>
            <Time>2022-07-14T14:21:49.000Z</Time>
            <Position>
              <LatitudeDegrees>43.38307446800172328948974609375</LatitudeDegrees>
              <LongitudeDegrees>-4.1053470410406589508056640625</LongitudeDegrees>
            </Position>
            <AltitudeMeters>90</AltitudeMeters>
            <DistanceMeters>NAN</DistanceMeters>
          </Trackpoint>
          <Trackpoint>
            <Time>2022-07-14T14:21:53.000Z</Time>
            <Position>
              <LatitudeDegrees>43.3831447921693325042724609375</LatitudeDegrees>
              <LongitudeDegrees>-4.10546623170375823974609375</LongitudeDegrees>
            </Position>
            <AltitudeMeters>90.40000152587890625</AltitudeMeters>
            <DistanceMeters>NAN</DistanceMeters>
          </Trackpoint>
          <Trackpoint>
            <Time>2022-07-14T14:21:56.000Z</Time>
            <Position>
              <LatitudeDegrees>43.38318812660872936248779296875</LatitudeDegrees>
              <LongitudeDegrees>-4.1055632941424846649169921875</LongitudeDegrees>
            </Position>
            <AltitudeMeters>90.59999847412109375</AltitudeMeters>
            <DistanceMeters>NAN</DistanceMeters>
          </Trackpoint>
          <Trackpoint>
            <Time>2022-07-14T14:22:02.000Z</Time>
            <Position>
              <LatitudeDegrees>43.38327563367784023284912109375</LatitudeDegrees>
              <LongitudeDegrees>-4.10572498105466365814208984375</LongitudeDegrees>
            </Position>
            <AltitudeMeters>90.59999847412109375</AltitudeMeters>
            <DistanceMeters>NAN</DistanceMeters>
          </Trackpoint>
          <Trackpoint>
            <Time>2022-07-14T14:22:05.000Z</Time>
            <Position>
              <LatitudeDegrees>43.38333229534327983856201171875</LatitudeDegrees>
              <LongitudeDegrees>-4.10581232048571109771728515625</LongitudeDegrees>
            </Position>
            <AltitudeMeters>90.8000030517578125</AltitudeMeters>
            <DistanceMeters>NAN</DistanceMeters>
          </Trackpoint>
          <Trackpoint>
            <Time>2022-07-14T14:22:07.000Z</Time>
            <Position>
              <LatitudeDegrees>43.38336632587015628814697265625</LatitudeDegrees>
              <LongitudeDegrees>-4.10585825331509113311767578125</LongitudeDegrees>
            </Position>
            <AltitudeMeters>90.8000030517578125</AltitudeMeters>
            <DistanceMeters>NAN</DistanceMeters>
          </Trackpoint>
          <Trackpoint>
            <Time>2022-07-14T14:22:10.000Z</Time>
            <Position>
              <LatitudeDegrees>43.38342382572591304779052734375</LatitudeDegrees>
              <LongitudeDegrees>-4.10593553446233272552490234375</LongitudeDegrees>
            </Position>
            <AltitudeMeters>90.8000030517578125</AltitudeMeters>
            <DistanceMeters>NAN</DistanceMeters>
          </Trackpoint>
          <Trackpoint>
            <Time>2022-07-14T14:22:16.000Z</Time>
            <Position>
              <LatitudeDegrees>43.3835184574127197265625</LatitudeDegrees>
              <LongitudeDegrees>-4.1061104647815227508544921875</LongitudeDegrees>
            </Position>
            <AltitudeMeters>90.8000030517578125</AltitudeMeters>
            <DistanceMeters>NAN</DistanceMeters>
          </Trackpoint>
          <Trackpoint>
            <Time>2022-07-14T14:22:17.000Z</Time>
            <Position>
              <LatitudeDegrees>43.38353698141872882843017578125</LatitudeDegrees>
              <LongitudeDegrees>-4.106133766472339630126953125</LongitudeDegrees>
            </Position>
            <AltitudeMeters>91</AltitudeMeters>
            <DistanceMeters>NAN</DistanceMeters>
          </Trackpoint>
          <Trackpoint>
            <Time>2022-07-14T14:22:27.000Z</Time>
            <Position>
              <LatitudeDegrees>43.3837275020778179168701171875</LatitudeDegrees>
              <LongitudeDegrees>-4.10640978254377841949462890625</LongitudeDegrees>
            </Position>
            <AltitudeMeters>91.1999969482421875</AltitudeMeters>
            <DistanceMeters>NAN</DistanceMeters>
          </Trackpoint>
          <Trackpoint>
            <Time>2022-07-14T14:22:34.000Z</Time>
            <Position>
              <LatitudeDegrees>43.3838683180510997772216796875</LatitudeDegrees>
              <LongitudeDegrees>-4.10661865957081317901611328125</LongitudeDegrees>
            </Position>
            <AltitudeMeters>91.59999847412109375</AltitudeMeters>
            <DistanceMeters>NAN</DistanceMeters>
          </Trackpoint>
          <Trackpoint>
            <Time>2022-07-14T14:22:40.000Z</Time>
            <Position>
              <LatitudeDegrees>43.3839984051883220672607421875</LatitudeDegrees>
              <LongitudeDegrees>-4.10680155269801616668701171875</LongitudeDegrees>
            </Position>
            <AltitudeMeters>91.59999847412109375</AltitudeMeters>
            <DistanceMeters>NAN</DistanceMeters>
          </Trackpoint>
          <Trackpoint>
            <Time>2022-07-14T14:22:42.000Z</Time>
            <Position>
              <LatitudeDegrees>43.38404609821736812591552734375</LatitudeDegrees>
              <LongitudeDegrees>-4.10685268230736255645751953125</LongitudeDegrees>
            </Position>
            <AltitudeMeters>91.59999847412109375</AltitudeMeters>
            <DistanceMeters>NAN</DistanceMeters>
          </Trackpoint>
          <Trackpoint>
            <Time>2022-07-14T14:22:44.000Z</Time>
            <Position>
              <LatitudeDegrees>43.3840932883322238922119140625</LatitudeDegrees>
              <LongitudeDegrees>-4.10690917633473873138427734375</LongitudeDegrees>
            </Position>
            <AltitudeMeters>91.8000030517578125</AltitudeMeters>
            <DistanceMeters>NAN</DistanceMeters>
          </Trackpoint>
          <Trackpoint>
            <Time>2022-07-14T14:22:49.000Z</Time>
            <Position>
              <LatitudeDegrees>43.3842076174914836883544921875</LatitudeDegrees>
              <LongitudeDegrees>-4.10706507973372936248779296875</LongitudeDegrees>
            </Position>
            <AltitudeMeters>91.8000030517578125</AltitudeMeters>
            <DistanceMeters>NAN</DistanceMeters>
          </Trackpoint>
          <Trackpoint>
            <Time>2022-07-14T14:22:50.000Z</Time>
            <Position>
              <LatitudeDegrees>43.384230919182300567626953125</LatitudeDegrees>
              <LongitudeDegrees>-4.107095338404178619384765625</LongitudeDegrees>
            </Position>
            <AltitudeMeters>92</AltitudeMeters>
            <DistanceMeters>NAN</DistanceMeters>
          </Trackpoint>
          <Trackpoint>
            <Time>2022-07-14T14:22:52.000Z</Time>
            <Position>
              <LatitudeDegrees>43.3842750079929828643798828125</LatitudeDegrees>
              <LongitudeDegrees>-4.1071525029838085174560546875</LongitudeDegrees>
            </Position>
            <AltitudeMeters>92</AltitudeMeters>
            <DistanceMeters>NAN</DistanceMeters>
          </Trackpoint>
          <Trackpoint>
            <Time>2022-07-14T14:22:54.000Z</Time>
            <Position>
              <LatitudeDegrees>43.3843242935836315155029296875</LatitudeDegrees>
              <LongitudeDegrees>-4.1072054766118526458740234375</LongitudeDegrees>
            </Position>
            <AltitudeMeters>92.1999969482421875</AltitudeMeters>
            <DistanceMeters>NAN</DistanceMeters>
          </Trackpoint>
          <Trackpoint>
            <Time>2022-07-14T14:23:02.000Z</Time>
            <Position>
              <LatitudeDegrees>43.3845097012817859649658203125</LatitudeDegrees>
              <LongitudeDegrees>-4.1074012778699398040771484375</LongitudeDegrees>
            </Position>
            <AltitudeMeters>92.1999969482421875</AltitudeMeters>
            <DistanceMeters>NAN</DistanceMeters>
          </Trackpoint>
          <Trackpoint>
            <Time>2022-07-14T14:23:11.000Z</Time>
            <Position>
              <LatitudeDegrees>43.38472268544137477874755859375</LatitudeDegrees>
              <LongitudeDegrees>-4.1076262481510639190673828125</LongitudeDegrees>
            </Position>
            <AltitudeMeters>92.1999969482421875</AltitudeMeters>
            <DistanceMeters>NAN</DistanceMeters>
          </Trackpoint>
          <Trackpoint>
            <Time>2022-07-14T14:23:15.000Z</Time>
            <Position>
              <LatitudeDegrees>43.3848181553184986114501953125</LatitudeDegrees>
              <LongitudeDegrees>-4.1077241487801074981689453125</LongitudeDegrees>
            </Position>
            <AltitudeMeters>92.1999969482421875</AltitudeMeters>
            <DistanceMeters>NAN</DistanceMeters>
          </Trackpoint>
          <Trackpoint>
            <Time>2022-07-14T14:23:20.000Z</Time>
            <Position>
              <LatitudeDegrees>43.384937681257724761962890625</LatitudeDegrees>
              <LongitudeDegrees>-4.1078559122979640960693359375</LongitudeDegrees>
            </Position>
            <AltitudeMeters>92.1999969482421875</AltitudeMeters>
            <DistanceMeters>NAN</DistanceMeters>
          </Trackpoint>
          <Trackpoint>
            <Time>2022-07-14T14:23:30.000Z</Time>
            <Position>
              <LatitudeDegrees>43.3852127753198146820068359375</LatitudeDegrees>
              <LongitudeDegrees>-4.10810208879411220550537109375</LongitudeDegrees>
            </Position>
            <AltitudeMeters>91.8000030517578125</AltitudeMeters>
            <DistanceMeters>NAN</DistanceMeters>
          </Trackpoint>
          <Trackpoint>
            <Time>2022-07-14T14:23:32.000Z</Time>
            <Position>
              <LatitudeDegrees>43.385269604623317718505859375</LatitudeDegrees>
              <LongitudeDegrees>-4.1081638634204864501953125</LongitudeDegrees>
            </Position>
            <AltitudeMeters>91.40000152587890625</AltitudeMeters>
            <DistanceMeters>NAN</DistanceMeters>
          </Trackpoint>
          <Trackpoint>
            <Time>2022-07-14T14:23:34.000Z</Time>
            <Position>
              <LatitudeDegrees>43.38533137924969196319580078125</LatitudeDegrees>
              <LongitudeDegrees>-4.1082186810672283172607421875</LongitudeDegrees>
            </Position>
            <AltitudeMeters>91.40000152587890625</AltitudeMeters>
            <DistanceMeters>NAN</DistanceMeters>
          </Trackpoint>
          <Trackpoint>
            <Time>2022-07-14T14:23:36.000Z</Time>
            <Position>
              <LatitudeDegrees>43.3853767253458499908447265625</LatitudeDegrees>
              <LongitudeDegrees>-4.10828246735036373138427734375</LongitudeDegrees>
            </Position>
            <AltitudeMeters>91.1999969482421875</AltitudeMeters>
            <DistanceMeters>NAN</DistanceMeters>
          </Trackpoint>
          <Trackpoint>
            <Time>2022-07-14T14:23:37.000Z</Time>
            <Position>
              <LatitudeDegrees>43.3853861130774021148681640625</LatitudeDegrees>
              <LongitudeDegrees>-4.10832186229526996612548828125</LongitudeDegrees>
            </Position>
            <AltitudeMeters>91</AltitudeMeters>
            <DistanceMeters>NAN</DistanceMeters>
          </Trackpoint>
          <Trackpoint>
            <Time>2022-07-14T14:23:39.000Z</Time>
            <Position>
              <LatitudeDegrees>43.3853785693645477294921875</LatitudeDegrees>
              <LongitudeDegrees>-4.10841121338307857513427734375</LongitudeDegrees>
            </Position>
            <AltitudeMeters>90.59999847412109375</AltitudeMeters>
            <DistanceMeters>NAN</DistanceMeters>
          </Trackpoint>
          <Trackpoint>
            <Time>2022-07-14T14:23:40.000Z</Time>
            <Position>
              <LatitudeDegrees>43.3853589557111263275146484375</LatitudeDegrees>
              <LongitudeDegrees>-4.10845027305185794830322265625</LongitudeDegrees>
            </Position>
            <AltitudeMeters>90.59999847412109375</AltitudeMeters>
            <DistanceMeters>NAN</DistanceMeters>
          </Trackpoint>
          <Trackpoint>
            <Time>2022-07-14T14:23:42.000Z</Time>
            <Position>
              <LatitudeDegrees>43.385296426713466644287109375</LatitudeDegrees>
              <LongitudeDegrees>-4.1085110418498516082763671875</LongitudeDegrees>
            </Position>
            <AltitudeMeters>90</AltitudeMeters>
            <DistanceMeters>NAN</DistanceMeters>
          </Trackpoint>
          <Trackpoint>
            <Time>2022-07-14T14:23:43.000Z</Time>
            <Position>
              <LatitudeDegrees>43.385238759219646453857421875</LatitudeDegrees>
              <LongitudeDegrees>-4.1085449047386646270751953125</LongitudeDegrees>
            </Position>
            <AltitudeMeters>89.8000030517578125</AltitudeMeters>
            <DistanceMeters>NAN</DistanceMeters>
          </Trackpoint>
          <Trackpoint>
            <Time>2022-07-14T14:23:47.000Z</Time>
            <Position>
              <LatitudeDegrees>43.3850300498306751251220703125</LatitudeDegrees>
              <LongitudeDegrees>-4.10861690528690814971923828125</LongitudeDegrees>
            </Position>
            <AltitudeMeters>89.1999969482421875</AltitudeMeters>
            <DistanceMeters>NAN</DistanceMeters>
          </Trackpoint>
          <Trackpoint>
            <Time>2022-07-14T14:23:50.000Z</Time>
            <Position>
              <LatitudeDegrees>43.384847156703472137451171875</LatitudeDegrees>
              <LongitudeDegrees>-4.10861891694366931915283203125</LongitudeDegrees>
            </Position>
            <AltitudeMeters>88.8000030517578125</AltitudeMeters>
            <DistanceMeters>NAN</DistanceMeters>
          </Trackpoint>
          <Trackpoint>
            <Time>2022-07-14T14:23:51.000Z</Time>
            <Position>
              <LatitudeDegrees>43.3847846277058124542236328125</LatitudeDegrees>
              <LongitudeDegrees>-4.108608774840831756591796875</LongitudeDegrees>
            </Position>
            <AltitudeMeters>88.59999847412109375</AltitudeMeters>
            <DistanceMeters>NAN</DistanceMeters>
          </Trackpoint>
          <Trackpoint>
            <Time>2022-07-14T14:23:52.000Z</Time>
            <Position>
              <LatitudeDegrees>43.3847172372043132781982421875</LatitudeDegrees>
              <LongitudeDegrees>-4.108600057661533355712890625</LongitudeDegrees>
            </Position>
            <AltitudeMeters>88.40000152587890625</AltitudeMeters>
            <DistanceMeters>NAN</DistanceMeters>
          </Trackpoint>
          <Trackpoint>
            <Time>2022-07-14T14:23:59.000Z</Time>
            <Position>
              <LatitudeDegrees>43.3842558972537517547607421875</LatitudeDegrees>
              <LongitudeDegrees>-4.10857214592397212982177734375</LongitudeDegrees>
            </Position>
            <AltitudeMeters>87.59999847412109375</AltitudeMeters>
            <DistanceMeters>NAN</DistanceMeters>
          </Trackpoint>
          <Trackpoint>
            <Time>2022-07-14T14:24:00.000Z</Time>
            <Position>
              <LatitudeDegrees>43.38418607600033283233642578125</LatitudeDegrees>
              <LongitudeDegrees>-4.1085697151720523834228515625</LongitudeDegrees>
            </Position>
            <AltitudeMeters>87.1999969482421875</AltitudeMeters>
            <DistanceMeters>NAN</DistanceMeters>
          </Trackpoint>
          <Trackpoint>
            <Time>2022-07-14T14:24:08.000Z</Time>
            <Position>
              <LatitudeDegrees>43.383684419095516204833984375</LatitudeDegrees>
              <LongitudeDegrees>-4.108592681586742401123046875</LongitudeDegrees>
            </Position>
            <AltitudeMeters>86.59999847412109375</AltitudeMeters>
            <DistanceMeters>NAN</DistanceMeters>
          </Trackpoint>
          <Trackpoint>
            <Time>2022-07-14T14:24:11.000Z</Time>
            <Position>
              <LatitudeDegrees>43.38353714905679225921630859375</LatitudeDegrees>
              <LongitudeDegrees>-4.108598716557025909423828125</LongitudeDegrees>
            </Position>
            <AltitudeMeters>86.59999847412109375</AltitudeMeters>
            <DistanceMeters>NAN</DistanceMeters>
          </Trackpoint>
          <Trackpoint>
            <Time>2022-07-14T14:24:14.000Z</Time>
            <Position>
              <LatitudeDegrees>43.383410163223743438720703125</LatitudeDegrees>
              <LongitudeDegrees>-4.10860416479408740997314453125</LongitudeDegrees>
            </Position>
            <AltitudeMeters>86.59999847412109375</AltitudeMeters>
            <DistanceMeters>NAN</DistanceMeters>
          </Trackpoint>
          <Trackpoint>
            <Time>2022-07-14T14:24:15.000Z</Time>
            <Position>
              <LatitudeDegrees>43.38337303139269351959228515625</LatitudeDegrees>
              <LongitudeDegrees>-4.10860215313732624053955078125</LongitudeDegrees>
            </Position>
            <AltitudeMeters>86.59999847412109375</AltitudeMeters>
            <DistanceMeters>NAN</DistanceMeters>
          </Trackpoint>
          <Trackpoint>
            <Time>2022-07-14T14:24:20.000Z</Time>
            <Position>
              <LatitudeDegrees>43.38323104195296764373779296875</LatitudeDegrees>
              <LongitudeDegrees>-4.108606763184070587158203125</LongitudeDegrees>
            </Position>
            <AltitudeMeters>87.40000152587890625</AltitudeMeters>
            <DistanceMeters>NAN</DistanceMeters>
          </Trackpoint>
          <Trackpoint>
            <Time>2022-07-14T14:24:22.000Z</Time>
            <Position>
              <LatitudeDegrees>43.38318527676165103912353515625</LatitudeDegrees>
              <LongitudeDegrees>-4.10861489363014698028564453125</LongitudeDegrees>
            </Position>
            <AltitudeMeters>87.59999847412109375</AltitudeMeters>
            <DistanceMeters>NAN</DistanceMeters>
          </Trackpoint>
          <Trackpoint>
            <Time>2022-07-14T14:24:27.000Z</Time>
            <Position>
              <LatitudeDegrees>43.3830723725259304046630859375</LatitudeDegrees>
              <LongitudeDegrees>-4.10865403711795806884765625</LongitudeDegrees>
            </Position>
            <AltitudeMeters>88.40000152587890625</AltitudeMeters>
            <DistanceMeters>NAN</DistanceMeters>
          </Trackpoint>
          <Trackpoint>
            <Time>2022-07-14T14:24:29.000Z</Time>
            <Position>
              <LatitudeDegrees>43.38303926400840282440185546875</LatitudeDegrees>
              <LongitudeDegrees>-4.108675830066204071044921875</LongitudeDegrees>
            </Position>
            <AltitudeMeters>88.8000030517578125</AltitudeMeters>
            <DistanceMeters>NAN</DistanceMeters>
          </Trackpoint>
          <Trackpoint>
            <Time>2022-07-14T14:24:37.000Z</Time>
            <Position>
              <LatitudeDegrees>43.3829278685152530670166015625</LatitudeDegrees>
              <LongitudeDegrees>-4.10875638015568256378173828125</LongitudeDegrees>
            </Position>
            <AltitudeMeters>90</AltitudeMeters>
            <DistanceMeters>NAN</DistanceMeters>
          </Trackpoint>
          <Trackpoint>
            <Time>2022-07-14T14:24:46.000Z</Time>
            <Position>
              <LatitudeDegrees>43.38282837532460689544677734375</LatitudeDegrees>
              <LongitudeDegrees>-4.108889400959014892578125</LongitudeDegrees>
            </Position>
            <AltitudeMeters>90.8000030517578125</AltitudeMeters>
            <DistanceMeters>NAN</DistanceMeters>
          </Trackpoint>
          <Trackpoint>
            <Time>2022-07-14T14:24:48.000Z</Time>
            <Position>
              <LatitudeDegrees>43.3828071691095829010009765625</LatitudeDegrees>
              <LongitudeDegrees>-4.10891965962946414947509765625</LongitudeDegrees>
            </Position>
            <AltitudeMeters>91</AltitudeMeters>
            <DistanceMeters>NAN</DistanceMeters>
          </Trackpoint>
          <Trackpoint>
            <Time>2022-07-14T14:24:54.000Z</Time>
            <Position>
              <LatitudeDegrees>43.38274992071092128753662109375</LatitudeDegrees>
              <LongitudeDegrees>-4.1090126149356365203857421875</LongitudeDegrees>
            </Position>
            <AltitudeMeters>91.8000030517578125</AltitudeMeters>
            <DistanceMeters>NAN</DistanceMeters>
          </Trackpoint>
          <Trackpoint>
            <Time>2022-07-14T14:24:55.000Z</Time>
            <Position>
              <LatitudeDegrees>43.382741622626781463623046875</LatitudeDegrees>
              <LongitudeDegrees>-4.10902761854231357574462890625</LongitudeDegrees>
            </Position>
            <AltitudeMeters>91.8000030517578125</AltitudeMeters>
            <DistanceMeters>NAN</DistanceMeters>
          </Trackpoint>
          <Trackpoint>
            <Time>2022-07-14T14:24:56.000Z</Time>
            <Position>
              <LatitudeDegrees>43.3827312290668487548828125</LatitudeDegrees>
              <LongitudeDegrees>-4.10904404707252979278564453125</LongitudeDegrees>
            </Position>
            <AltitudeMeters>92</AltitudeMeters>
            <DistanceMeters>NAN</DistanceMeters>
          </Trackpoint>
          <Trackpoint>
            <Time>2022-07-14T14:24:58.000Z</Time>
            <Position>
              <LatitudeDegrees>43.3827223442494869232177734375</LatitudeDegrees>
              <LongitudeDegrees>-4.1090615652501583099365234375</LongitudeDegrees>
            </Position>
            <AltitudeMeters>92.1999969482421875</AltitudeMeters>
            <DistanceMeters>NAN</DistanceMeters>
          </Trackpoint>
          <Trackpoint>
            <Time>2022-07-14T14:25:01.000Z</Time>
            <Position>
              <LatitudeDegrees>43.38270482607185840606689453125</LatitudeDegrees>
              <LongitudeDegrees>-4.1091041453182697296142578125</LongitudeDegrees>
            </Position>
            <AltitudeMeters>92.59999847412109375</AltitudeMeters>
            <DistanceMeters>NAN</DistanceMeters>
          </Trackpoint>
          <Trackpoint>
            <Time>2022-07-14T14:25:03.000Z</Time>
            <Position>
              <LatitudeDegrees>43.38268655352294445037841796875</LatitudeDegrees>
              <LongitudeDegrees>-4.10913658328354358673095703125</LongitudeDegrees>
            </Position>
            <AltitudeMeters>92.8000030517578125</AltitudeMeters>
            <DistanceMeters>NAN</DistanceMeters>
          </Trackpoint>
          <Trackpoint>
            <Time>2022-07-14T14:25:06.000Z</Time>
            <Position>
              <LatitudeDegrees>43.382667191326618194580078125</LatitudeDegrees>
              <LongitudeDegrees>-4.10918536596000194549560546875</LongitudeDegrees>
            </Position>
            <AltitudeMeters>93.1999969482421875</AltitudeMeters>
            <DistanceMeters>NAN</DistanceMeters>
          </Trackpoint>
          <Trackpoint>
            <Time>2022-07-14T14:25:13.000Z</Time>
            <Position>
              <LatitudeDegrees>43.382598794996738433837890625</LatitudeDegrees>
              <LongitudeDegrees>-4.1093039698898792266845703125</LongitudeDegrees>
            </Position>
            <AltitudeMeters>94.1999969482421875</AltitudeMeters>
            <DistanceMeters>NAN</DistanceMeters>
          </Trackpoint>
          <Trackpoint>
            <Time>2022-07-14T14:25:19.000Z</Time>
            <Position>
              <LatitudeDegrees>43.38253601454198360443115234375</LatitudeDegrees>
              <LongitudeDegrees>-4.1094042174518108367919921875</LongitudeDegrees>
            </Position>
            <AltitudeMeters>95.1999969482421875</AltitudeMeters>
            <DistanceMeters>NAN</DistanceMeters>
          </Trackpoint>
          <Trackpoint>
            <Time>2022-07-14T14:25:22.000Z</Time>
            <Position>
              <LatitudeDegrees>43.3825206756591796875</LatitudeDegrees>
              <LongitudeDegrees>-4.10944805480539798736572265625</LongitudeDegrees>
            </Position>
            <AltitudeMeters>95.40000152587890625</AltitudeMeters>
            <DistanceMeters>NAN</DistanceMeters>
          </Trackpoint>
          <Trackpoint>
            <Time>2022-07-14T14:25:27.000Z</Time>
            <Position>
              <LatitudeDegrees>43.3824645169079303741455078125</LatitudeDegrees>
              <LongitudeDegrees>-4.1095363162457942962646484375</LongitudeDegrees>
            </Position>
            <AltitudeMeters>96.40000152587890625</AltitudeMeters>
            <DistanceMeters>NAN</DistanceMeters>
          </Trackpoint>
          <Trackpoint>
            <Time>2022-07-14T14:25:31.000Z</Time>
            <Position>
              <LatitudeDegrees>43.38242604397237300872802734375</LatitudeDegrees>
              <LongitudeDegrees>-4.10960680805146694183349609375</LongitudeDegrees>
            </Position>
            <AltitudeMeters>97</AltitudeMeters>
            <DistanceMeters>NAN</DistanceMeters>
          </Trackpoint>
          <Trackpoint>
            <Time>2022-07-14T14:25:35.000Z</Time>
            <Position>
              <LatitudeDegrees>43.38238857686519622802734375</LatitudeDegrees>
              <LongitudeDegrees>-4.1096814908087253570556640625</LongitudeDegrees>
            </Position>
            <AltitudeMeters>97.40000152587890625</AltitudeMeters>
            <DistanceMeters>NAN</DistanceMeters>
          </Trackpoint>
          <Trackpoint>
            <Time>2022-07-14T14:25:42.000Z</Time>
            <Position>
              <LatitudeDegrees>43.382328562438488006591796875</LatitudeDegrees>
              <LongitudeDegrees>-4.10979992710053920745849609375</LongitudeDegrees>
            </Position>
            <AltitudeMeters>98</AltitudeMeters>
            <DistanceMeters>NAN</DistanceMeters>
          </Trackpoint>
          <Trackpoint>
            <Time>2022-07-14T14:25:44.000Z</Time>
            <Position>
              <LatitudeDegrees>43.38231288827955722808837890625</LatitudeDegrees>
              <LongitudeDegrees>-4.1098321974277496337890625</LongitudeDegrees>
            </Position>
            <AltitudeMeters>98.40000152587890625</AltitudeMeters>
            <DistanceMeters>NAN</DistanceMeters>
          </Trackpoint>
          <Trackpoint>
            <Time>2022-07-14T14:25:50.000Z</Time>
            <Position>
              <LatitudeDegrees>43.3822784386575222015380859375</LatitudeDegrees>
              <LongitudeDegrees>-4.10992163233458995819091796875</LongitudeDegrees>
            </Position>
            <AltitudeMeters>99</AltitudeMeters>
            <DistanceMeters>NAN</DistanceMeters>
          </Trackpoint>
          <Trackpoint>
            <Time>2022-07-14T14:25:52.000Z</Time>
            <Position>
              <LatitudeDegrees>43.38226921856403350830078125</LatitudeDegrees>
              <LongitudeDegrees>-4.1099503822624683380126953125</LongitudeDegrees>
            </Position>
            <AltitudeMeters>99.1999969482421875</AltitudeMeters>
            <DistanceMeters>NAN</DistanceMeters>
          </Trackpoint>
          <Trackpoint>
            <Time>2022-07-14T14:25:53.000Z</Time>
            <Position>
              <LatitudeDegrees>43.382264189422130584716796875</LatitudeDegrees>
              <LongitudeDegrees>-4.10996622405946254730224609375</LongitudeDegrees>
            </Position>
            <AltitudeMeters>99.40000152587890625</AltitudeMeters>
            <DistanceMeters>NAN</DistanceMeters>
          </Trackpoint>
          <Trackpoint>
            <Time>2022-07-14T14:25:59.000Z</Time>
            <Position>
              <LatitudeDegrees>43.382217586040496826171875</LatitudeDegrees>
              <LongitudeDegrees>-4.1100519709289073944091796875</LongitudeDegrees>
            </Position>
            <AltitudeMeters>100</AltitudeMeters>
            <DistanceMeters>NAN</DistanceMeters>
          </Trackpoint>
          <Trackpoint>
            <Time>2022-07-14T14:26:03.000Z</Time>
            <Position>
              <LatitudeDegrees>43.382189758121967315673828125</LatitudeDegrees>
              <LongitudeDegrees>-4.11010242998600006103515625</LongitudeDegrees>
            </Position>
            <AltitudeMeters>100.40000152587890625</AltitudeMeters>
            <DistanceMeters>NAN</DistanceMeters>
          </Trackpoint>
          <Trackpoint>
            <Time>2022-07-14T14:26:07.000Z</Time>
            <Position>
              <LatitudeDegrees>43.38214558549225330352783203125</LatitudeDegrees>
              <LongitudeDegrees>-4.1101632826030254364013671875</LongitudeDegrees>
            </Position>
            <AltitudeMeters>101</AltitudeMeters>
            <DistanceMeters>NAN</DistanceMeters>
          </Trackpoint>
          <Trackpoint>
            <Time>2022-07-14T14:26:13.000Z</Time>
            <Position>
              <LatitudeDegrees>43.38207651861011981964111328125</LatitudeDegrees>
              <LongitudeDegrees>-4.1102414019405841827392578125</LongitudeDegrees>
            </Position>
            <AltitudeMeters>101.59999847412109375</AltitudeMeters>
            <DistanceMeters>NAN</DistanceMeters>
          </Trackpoint>
          <Trackpoint>
            <Time>2022-07-14T14:26:16.000Z</Time>
            <Position>
              <LatitudeDegrees>43.38204332627356052398681640625</LatitudeDegrees>
              <LongitudeDegrees>-4.1102802939713001251220703125</LongitudeDegrees>
            </Position>
            <AltitudeMeters>102</AltitudeMeters>
            <DistanceMeters>NAN</DistanceMeters>
          </Trackpoint>
          <Trackpoint>
            <Time>2022-07-14T14:26:22.000Z</Time>
            <Position>
              <LatitudeDegrees>43.38195783086121082305908203125</LatitudeDegrees>
              <LongitudeDegrees>-4.11031289957463741302490234375</LongitudeDegrees>
            </Position>
            <AltitudeMeters>102.40000152587890625</AltitudeMeters>
            <DistanceMeters>NAN</DistanceMeters>
          </Trackpoint>
          <Trackpoint>
            <Time>2022-07-14T14:26:23.000Z</Time>
            <Position>
              <LatitudeDegrees>43.38194559328258037567138671875</LatitudeDegrees>
              <LongitudeDegrees>-4.110319353640079498291015625</LongitudeDegrees>
            </Position>
            <AltitudeMeters>102.59999847412109375</AltitudeMeters>
            <DistanceMeters>NAN</DistanceMeters>
          </Trackpoint>
          <Trackpoint>
            <Time>2022-07-14T14:26:24.000Z</Time>
            <Position>
              <LatitudeDegrees>43.38193570263683795928955078125</LatitudeDegrees>
              <LongitudeDegrees>-4.11032295785844326019287109375</LongitudeDegrees>
            </Position>
            <AltitudeMeters>102.59999847412109375</AltitudeMeters>
            <DistanceMeters>NAN</DistanceMeters>
          </Trackpoint>
          <Trackpoint>
            <Time>2022-07-14T14:26:28.000Z</Time>
            <Position>
              <LatitudeDegrees>43.38187702931463718414306640625</LatitudeDegrees>
              <LongitudeDegrees>-4.11034340970218181610107421875</LongitudeDegrees>
            </Position>
            <AltitudeMeters>103</AltitudeMeters>
            <DistanceMeters>NAN</DistanceMeters>
          </Trackpoint>
          <Trackpoint>
            <Time>2022-07-14T14:26:32.000Z</Time>
            <Position>
              <LatitudeDegrees>43.38180762715637683868408203125</LatitudeDegrees>
              <LongitudeDegrees>-4.110338129103183746337890625</LongitudeDegrees>
            </Position>
            <AltitudeMeters>103.40000152587890625</AltitudeMeters>
            <DistanceMeters>NAN</DistanceMeters>
          </Trackpoint>
          <Trackpoint>
            <Time>2022-07-14T14:26:36.000Z</Time>
            <Position>
              <LatitudeDegrees>43.3817487023770809173583984375</LatitudeDegrees>
              <LongitudeDegrees>-4.1103351116180419921875</LongitudeDegrees>
            </Position>
            <AltitudeMeters>103.8000030517578125</AltitudeMeters>
            <DistanceMeters>NAN</DistanceMeters>
          </Trackpoint>
          <Trackpoint>
            <Time>2022-07-14T14:26:43.000Z</Time>
            <Position>
              <LatitudeDegrees>43.38164183311164379119873046875</LatitudeDegrees>
              <LongitudeDegrees>-4.1103299148380756378173828125</LongitudeDegrees>
            </Position>
            <AltitudeMeters>104.40000152587890625</AltitudeMeters>
            <DistanceMeters>NAN</DistanceMeters>
          </Trackpoint>
          <Trackpoint>
            <Time>2022-07-14T14:26:48.000Z</Time>
            <Position>
              <LatitudeDegrees>43.3815671503543853759765625</LatitudeDegrees>
              <LongitudeDegrees>-4.11029311828315258026123046875</LongitudeDegrees>
            </Position>
            <AltitudeMeters>104.59999847412109375</AltitudeMeters>
            <DistanceMeters>NAN</DistanceMeters>
          </Trackpoint>
          <Trackpoint>
            <Time>2022-07-14T14:26:49.000Z</Time>
            <Position>
              <LatitudeDegrees>43.3815562538802623748779296875</LatitudeDegrees>
              <LongitudeDegrees>-4.11028557457029819488525390625</LongitudeDegrees>
            </Position>
            <AltitudeMeters>104.8000030517578125</AltitudeMeters>
            <DistanceMeters>NAN</DistanceMeters>
          </Trackpoint>
          <Trackpoint>
            <Time>2022-07-14T14:26:52.000Z</Time>
            <Position>
              <LatitudeDegrees>43.381503112614154815673828125</LatitudeDegrees>
              <LongitudeDegrees>-4.11025824956595897674560546875</LongitudeDegrees>
            </Position>
            <AltitudeMeters>105</AltitudeMeters>
            <DistanceMeters>NAN</DistanceMeters>
          </Trackpoint>
          <Trackpoint>
            <Time>2022-07-14T14:26:58.000Z</Time>
            <Position>
              <LatitudeDegrees>43.38140294887125492095947265625</LatitudeDegrees>
              <LongitudeDegrees>-4.1102249734103679656982421875</LongitudeDegrees>
            </Position>
            <AltitudeMeters>105.59999847412109375</AltitudeMeters>
            <DistanceMeters>NAN</DistanceMeters>
          </Trackpoint>
          <Trackpoint>
            <Time>2022-07-14T14:27:01.000Z</Time>
            <Position>
              <LatitudeDegrees>43.3813477121293544769287109375</LatitudeDegrees>
              <LongitudeDegrees>-4.1101998277008533477783203125</LongitudeDegrees>
            </Position>
            <AltitudeMeters>105.8000030517578125</AltitudeMeters>
            <DistanceMeters>NAN</DistanceMeters>
          </Trackpoint>
          <Trackpoint>
            <Time>2022-07-14T14:27:02.000Z</Time>
            <Position>
              <LatitudeDegrees>43.3813306130468845367431640625</LatitudeDegrees>
              <LongitudeDegrees>-4.11019169725477695465087890625</LongitudeDegrees>
            </Position>
            <AltitudeMeters>105.8000030517578125</AltitudeMeters>
            <DistanceMeters>NAN</DistanceMeters>
          </Trackpoint>
          <Trackpoint>
            <Time>2022-07-14T14:27:03.000Z</Time>
            <Position>
              <LatitudeDegrees>43.3813121728599071502685546875</LatitudeDegrees>
              <LongitudeDegrees>-4.11018348298966884613037109375</LongitudeDegrees>
            </Position>
            <AltitudeMeters>105.8000030517578125</AltitudeMeters>
            <DistanceMeters>NAN</DistanceMeters>
          </Trackpoint>
          <Trackpoint>
            <Time>2022-07-14T14:27:14.000Z</Time>
            <Position>
              <LatitudeDegrees>43.3811317943036556243896484375</LatitudeDegrees>
              <LongitudeDegrees>-4.11008491180837154388427734375</LongitudeDegrees>
            </Position>
            <AltitudeMeters>106.59999847412109375</AltitudeMeters>
            <DistanceMeters>NAN</DistanceMeters>
          </Trackpoint>
          <Trackpoint>
            <Time>2022-07-14T14:27:19.000Z</Time>
            <Position>
              <LatitudeDegrees>43.3810489811003208160400390625</LatitudeDegrees>
              <LongitudeDegrees>-4.11006010137498378753662109375</LongitudeDegrees>
            </Position>
            <AltitudeMeters>107</AltitudeMeters>
            <DistanceMeters>NAN</DistanceMeters>
          </Trackpoint>
          <Trackpoint>
            <Time>2022-07-14T14:27:22.000Z</Time>
            <Position>
              <LatitudeDegrees>43.38100598193705081939697265625</LatitudeDegrees>
              <LongitudeDegrees>-4.11004903726279735565185546875</LongitudeDegrees>
            </Position>
            <AltitudeMeters>107.1999969482421875</AltitudeMeters>
            <DistanceMeters>NAN</DistanceMeters>
          </Trackpoint>
          <Trackpoint>
            <Time>2022-07-14T14:27:32.000Z</Time>
            <Position>
              <LatitudeDegrees>43.38084555231034755706787109375</LatitudeDegrees>
              <LongitudeDegrees>-4.11000897176563739776611328125</LongitudeDegrees>
            </Position>
            <AltitudeMeters>108</AltitudeMeters>
            <DistanceMeters>NAN</DistanceMeters>
          </Trackpoint>
          <Trackpoint>
            <Time>2022-07-14T14:27:33.000Z</Time>
            <Position>
              <LatitudeDegrees>43.38083147071301937103271484375</LatitudeDegrees>
              <LongitudeDegrees>-4.110010229051113128662109375</LongitudeDegrees>
            </Position>
            <AltitudeMeters>108</AltitudeMeters>
            <DistanceMeters>NAN</DistanceMeters>
          </Trackpoint>
          <Trackpoint>
            <Time>2022-07-14T14:27:39.000Z</Time>
            <Position>
              <LatitudeDegrees>43.38072770275175571441650390625</LatitudeDegrees>
              <LongitudeDegrees>-4.11001550965011119842529296875</LongitudeDegrees>
            </Position>
            <AltitudeMeters>108.59999847412109375</AltitudeMeters>
            <DistanceMeters>NAN</DistanceMeters>
          </Trackpoint>
          <Trackpoint>
            <Time>2022-07-14T14:27:43.000Z</Time>
            <Position>
              <LatitudeDegrees>43.38066115044057369232177734375</LatitudeDegrees>
              <LongitudeDegrees>-4.1100285016000270843505859375</LongitudeDegrees>
            </Position>
            <AltitudeMeters>109</AltitudeMeters>
            <DistanceMeters>NAN</DistanceMeters>
          </Trackpoint>
          <Trackpoint>
            <Time>2022-07-14T14:27:44.000Z</Time>
            <Position>
              <LatitudeDegrees>43.38064455427229404449462890625</LatitudeDegrees>
              <LongitudeDegrees>-4.1100305132567882537841796875</LongitudeDegrees>
            </Position>
            <AltitudeMeters>109</AltitudeMeters>
            <DistanceMeters>NAN</DistanceMeters>
          </Trackpoint>
          <Trackpoint>
            <Time>2022-07-14T14:27:53.000Z</Time>
            <Position>
              <LatitudeDegrees>43.3804763294756412506103515625</LatitudeDegrees>
              <LongitudeDegrees>-4.11007066257297992706298828125</LongitudeDegrees>
            </Position>
            <AltitudeMeters>110</AltitudeMeters>
            <DistanceMeters>NAN</DistanceMeters>
          </Trackpoint>
          <Trackpoint>
            <Time>2022-07-14T14:27:56.000Z</Time>
            <Position>
              <LatitudeDegrees>43.38042913936078548431396484375</LatitudeDegrees>
              <LongitudeDegrees>-4.11008541472256183624267578125</LongitudeDegrees>
            </Position>
            <AltitudeMeters>110.1999969482421875</AltitudeMeters>
            <DistanceMeters>NAN</DistanceMeters>
          </Trackpoint>
          <Trackpoint>
            <Time>2022-07-14T14:28:00.000Z</Time>
            <Position>
              <LatitudeDegrees>43.38036862201988697052001953125</LatitudeDegrees>
              <LongitudeDegrees>-4.11011273972690105438232421875</LongitudeDegrees>
            </Position>
            <AltitudeMeters>110.8000030517578125</AltitudeMeters>
            <DistanceMeters>NAN</DistanceMeters>
          </Trackpoint>
          <Trackpoint>
            <Time>2022-07-14T14:28:04.000Z</Time>
            <Position>
              <LatitudeDegrees>43.380316235125064849853515625</LatitudeDegrees>
              <LongitudeDegrees>-4.11014400422573089599609375</LongitudeDegrees>
            </Position>
            <AltitudeMeters>111.1999969482421875</AltitudeMeters>
            <DistanceMeters>NAN</DistanceMeters>
          </Trackpoint>
          <Trackpoint>
            <Time>2022-07-14T14:28:08.000Z</Time>
            <Position>
              <LatitudeDegrees>43.3802577294409275054931640625</LatitudeDegrees>
              <LongitudeDegrees>-4.11019253544509410858154296875</LongitudeDegrees>
            </Position>
            <AltitudeMeters>111.59999847412109375</AltitudeMeters>
            <DistanceMeters>NAN</DistanceMeters>
          </Trackpoint>
          <Trackpoint>
            <Time>2022-07-14T14:28:14.000Z</Time>
            <Position>
              <LatitudeDegrees>43.3801678754389286041259765625</LatitudeDegrees>
              <LongitudeDegrees>-4.1102613508701324462890625</LongitudeDegrees>
            </Position>
            <AltitudeMeters>112.40000152587890625</AltitudeMeters>
            <DistanceMeters>NAN</DistanceMeters>
          </Trackpoint>
          <Trackpoint>
            <Time>2022-07-14T14:28:23.000Z</Time>
            <Position>
              <LatitudeDegrees>43.3800434879958629608154296875</LatitudeDegrees>
              <LongitudeDegrees>-4.1103781946003437042236328125</LongitudeDegrees>
            </Position>
            <AltitudeMeters>113.40000152587890625</AltitudeMeters>
            <DistanceMeters>NAN</DistanceMeters>
          </Trackpoint>
          <Trackpoint>
            <Time>2022-07-14T14:28:25.000Z</Time>
            <Position>
              <LatitudeDegrees>43.3800180070102214813232421875</LatitudeDegrees>
              <LongitudeDegrees>-4.11040727980434894561767578125</LongitudeDegrees>
            </Position>
            <AltitudeMeters>113.59999847412109375</AltitudeMeters>
            <DistanceMeters>NAN</DistanceMeters>
          </Trackpoint>
          <Trackpoint>
            <Time>2022-07-14T14:28:32.000Z</Time>
            <Position>
              <LatitudeDegrees>43.3799432404339313507080078125</LatitudeDegrees>
              <LongitudeDegrees>-4.1105107963085174560546875</LongitudeDegrees>
            </Position>
            <AltitudeMeters>114.59999847412109375</AltitudeMeters>
            <DistanceMeters>NAN</DistanceMeters>
          </Trackpoint>
          <Trackpoint>
            <Time>2022-07-14T14:28:35.000Z</Time>
            <Position>
              <LatitudeDegrees>43.37991113774478435516357421875</LatitudeDegrees>
              <LongitudeDegrees>-4.11055513657629489898681640625</LongitudeDegrees>
            </Position>
            <AltitudeMeters>115</AltitudeMeters>
            <DistanceMeters>NAN</DistanceMeters>
          </Trackpoint>
          <Trackpoint>
            <Time>2022-07-14T14:28:40.000Z</Time>
            <Position>
              <LatitudeDegrees>43.3798664622008800506591796875</LatitudeDegrees>
              <LongitudeDegrees>-4.1106169112026691436767578125</LongitudeDegrees>
            </Position>
            <AltitudeMeters>115.8000030517578125</AltitudeMeters>
            <DistanceMeters>NAN</DistanceMeters>
          </Trackpoint>
          <Trackpoint>
            <Time>2022-07-14T14:28:42.000Z</Time>
            <Position>
              <LatitudeDegrees>43.3798426575958728790283203125</LatitudeDegrees>
              <LongitudeDegrees>-4.1106430627405643463134765625</LongitudeDegrees>
            </Position>
            <AltitudeMeters>116</AltitudeMeters>
            <DistanceMeters>NAN</DistanceMeters>
          </Trackpoint>
          <Trackpoint>
            <Time>2022-07-14T14:28:43.000Z</Time>
            <Position>
              <LatitudeDegrees>43.3798329345881938934326171875</LatitudeDegrees>
              <LongitudeDegrees>-4.110659323632717132568359375</LongitudeDegrees>
            </Position>
            <AltitudeMeters>116</AltitudeMeters>
            <DistanceMeters>NAN</DistanceMeters>
          </Trackpoint>
          <Trackpoint>
            <Time>2022-07-14T14:28:48.000Z</Time>
            <Position>
              <LatitudeDegrees>43.37978172115981578826904296875</LatitudeDegrees>
              <LongitudeDegrees>-4.11074540577828884124755859375</LongitudeDegrees>
            </Position>
            <AltitudeMeters>117</AltitudeMeters>
            <DistanceMeters>NAN</DistanceMeters>
          </Trackpoint>
          <Trackpoint>
            <Time>2022-07-14T14:28:52.000Z</Time>
            <Position>
              <LatitudeDegrees>43.37974450550973415374755859375</LatitudeDegrees>
              <LongitudeDegrees>-4.110818244516849517822265625</LongitudeDegrees>
            </Position>
            <AltitudeMeters>117.40000152587890625</AltitudeMeters>
            <DistanceMeters>NAN</DistanceMeters>
          </Trackpoint>
          <Trackpoint>
            <Time>2022-07-14T14:28:57.000Z</Time>
            <Position>
              <LatitudeDegrees>43.37969387881457805633544921875</LatitudeDegrees>
              <LongitudeDegrees>-4.11090851761400699615478515625</LongitudeDegrees>
            </Position>
            <AltitudeMeters>118</AltitudeMeters>
            <DistanceMeters>NAN</DistanceMeters>
          </Trackpoint>
          <Trackpoint>
            <Time>2022-07-14T14:29:02.000Z</Time>
            <Position>
              <LatitudeDegrees>43.3796414919197559356689453125</LatitudeDegrees>
              <LongitudeDegrees>-4.110997281968593597412109375</LongitudeDegrees>
            </Position>
            <AltitudeMeters>119</AltitudeMeters>
            <DistanceMeters>NAN</DistanceMeters>
          </Trackpoint>
          <Trackpoint>
            <Time>2022-07-14T14:29:03.000Z</Time>
            <Position>
              <LatitudeDegrees>43.3796337805688381195068359375</LatitudeDegrees>
              <LongitudeDegrees>-4.11101111210882663726806640625</LongitudeDegrees>
            </Position>
            <AltitudeMeters>119.1999969482421875</AltitudeMeters>
            <DistanceMeters>NAN</DistanceMeters>
          </Trackpoint>
          <Trackpoint>
            <Time>2022-07-14T14:29:12.000Z</Time>
            <Position>
              <LatitudeDegrees>43.37954753078520298004150390625</LatitudeDegrees>
              <LongitudeDegrees>-4.111185036599636077880859375</LongitudeDegrees>
            </Position>
            <AltitudeMeters>120.1999969482421875</AltitudeMeters>
            <DistanceMeters>NAN</DistanceMeters>
          </Trackpoint>
          <Trackpoint>
            <Time>2022-07-14T14:29:13.000Z</Time>
            <Position>
              <LatitudeDegrees>43.37954099290072917938232421875</LatitudeDegrees>
              <LongitudeDegrees>-4.11120708100497722625732421875</LongitudeDegrees>
            </Position>
            <AltitudeMeters>120.1999969482421875</AltitudeMeters>
            <DistanceMeters>NAN</DistanceMeters>
          </Trackpoint>
          <Trackpoint>
            <Time>2022-07-14T14:29:14.000Z</Time>
            <Position>
              <LatitudeDegrees>43.3795345388352870941162109375</LatitudeDegrees>
              <LongitudeDegrees>-4.111227951943874359130859375</LongitudeDegrees>
            </Position>
            <AltitudeMeters>120.40000152587890625</AltitudeMeters>
            <DistanceMeters>NAN</DistanceMeters>
          </Trackpoint>
          <Trackpoint>
            <Time>2022-07-14T14:29:22.000Z</Time>
            <Position>
              <LatitudeDegrees>43.379471339285373687744140625</LatitudeDegrees>
              <LongitudeDegrees>-4.11140330135822296142578125</LongitudeDegrees>
            </Position>
            <AltitudeMeters>121.40000152587890625</AltitudeMeters>
            <DistanceMeters>NAN</DistanceMeters>
          </Trackpoint>
          <Trackpoint>
            <Time>2022-07-14T14:29:29.000Z</Time>
            <Position>
              <LatitudeDegrees>43.37942205369472503662109375</LatitudeDegrees>
              <LongitudeDegrees>-4.1115405969321727752685546875</LongitudeDegrees>
            </Position>
            <AltitudeMeters>122.40000152587890625</AltitudeMeters>
            <DistanceMeters>NAN</DistanceMeters>
          </Trackpoint>
          <Trackpoint>
            <Time>2022-07-14T14:29:31.000Z</Time>
            <Position>
              <LatitudeDegrees>43.3794131688773632049560546875</LatitudeDegrees>
              <LongitudeDegrees>-4.111572615802288055419921875</LongitudeDegrees>
            </Position>
            <AltitudeMeters>122.59999847412109375</AltitudeMeters>
            <DistanceMeters>NAN</DistanceMeters>
          </Trackpoint>
          <Trackpoint>
            <Time>2022-07-14T14:29:34.000Z</Time>
            <Position>
              <LatitudeDegrees>43.37939011864364147186279296875</LatitudeDegrees>
              <LongitudeDegrees>-4.111638329923152923583984375</LongitudeDegrees>
            </Position>
            <AltitudeMeters>123</AltitudeMeters>
            <DistanceMeters>NAN</DistanceMeters>
          </Trackpoint>
          <Trackpoint>
            <Time>2022-07-14T14:29:39.000Z</Time>
            <Position>
              <LatitudeDegrees>43.379366397857666015625</LatitudeDegrees>
              <LongitudeDegrees>-4.11175022833049297332763671875</LongitudeDegrees>
            </Position>
            <AltitudeMeters>123.40000152587890625</AltitudeMeters>
            <DistanceMeters>NAN</DistanceMeters>
          </Trackpoint>
          <Trackpoint>
            <Time>2022-07-14T14:29:41.000Z</Time>
            <Position>
              <LatitudeDegrees>43.3793635480105876922607421875</LatitudeDegrees>
              <LongitudeDegrees>-4.11178543232381343841552734375</LongitudeDegrees>
            </Position>
            <AltitudeMeters>123.8000030517578125</AltitudeMeters>
            <DistanceMeters>NAN</DistanceMeters>
          </Trackpoint>
          <Trackpoint>
            <Time>2022-07-14T14:29:49.000Z</Time>
            <Position>
              <LatitudeDegrees>43.3793202973902225494384765625</LatitudeDegrees>
              <LongitudeDegrees>-4.11197000183165073394775390625</LongitudeDegrees>
            </Position>
            <AltitudeMeters>124.40000152587890625</AltitudeMeters>
            <DistanceMeters>NAN</DistanceMeters>
          </Trackpoint>
          <Trackpoint>
            <Time>2022-07-14T14:29:50.000Z</Time>
            <Position>
              <LatitudeDegrees>43.379313759505748748779296875</LatitudeDegrees>
              <LongitudeDegrees>-4.11199833266437053680419921875</LongitudeDegrees>
            </Position>
            <AltitudeMeters>124.59999847412109375</AltitudeMeters>
            <DistanceMeters>NAN</DistanceMeters>
          </Trackpoint>
          <Trackpoint>
            <Time>2022-07-14T14:30:00.000Z</Time>
            <Position>
              <LatitudeDegrees>43.379293978214263916015625</LatitudeDegrees>
              <LongitudeDegrees>-4.11223855800926685333251953125</LongitudeDegrees>
            </Position>
            <AltitudeMeters>125.59999847412109375</AltitudeMeters>
            <DistanceMeters>NAN</DistanceMeters>
          </Trackpoint>
          <Trackpoint>
            <Time>2022-07-14T14:30:01.000Z</Time>
            <Position>
              <LatitudeDegrees>43.379290290176868438720703125</LatitudeDegrees>
              <LongitudeDegrees>-4.11225917749106884002685546875</LongitudeDegrees>
            </Position>
            <AltitudeMeters>125.59999847412109375</AltitudeMeters>
            <DistanceMeters>NAN</DistanceMeters>
          </Trackpoint>
          <Trackpoint>
            <Time>2022-07-14T14:30:08.000Z</Time>
            <Position>
              <LatitudeDegrees>43.37927612476050853729248046875</LatitudeDegrees>
              <LongitudeDegrees>-4.11243519745767116546630859375</LongitudeDegrees>
            </Position>
            <AltitudeMeters>126</AltitudeMeters>
            <DistanceMeters>NAN</DistanceMeters>
          </Trackpoint>
          <Trackpoint>
            <Time>2022-07-14T14:30:09.000Z</Time>
            <Position>
              <LatitudeDegrees>43.37927495129406452178955078125</LatitudeDegrees>
              <LongitudeDegrees>-4.11246118135750293731689453125</LongitudeDegrees>
            </Position>
            <AltitudeMeters>126</AltitudeMeters>
            <DistanceMeters>NAN</DistanceMeters>
          </Trackpoint>
          <Trackpoint>
            <Time>2022-07-14T14:30:14.000Z</Time>
            <Position>
              <LatitudeDegrees>43.37926304899156093597412109375</LatitudeDegrees>
              <LongitudeDegrees>-4.112587831914424896240234375</LongitudeDegrees>
            </Position>
            <AltitudeMeters>126.40000152587890625</AltitudeMeters>
            <DistanceMeters>NAN</DistanceMeters>
          </Trackpoint>
          <Trackpoint>
            <Time>2022-07-14T14:30:17.000Z</Time>
            <Position>
              <LatitudeDegrees>43.37926782667636871337890625</LatitudeDegrees>
              <LongitudeDegrees>-4.11266167648136615753173828125</LongitudeDegrees>
            </Position>
            <AltitudeMeters>126.59999847412109375</AltitudeMeters>
            <DistanceMeters>NAN</DistanceMeters>
          </Trackpoint>
          <Trackpoint>
            <Time>2022-07-14T14:30:18.000Z</Time>
            <Position>
              <LatitudeDegrees>43.37927092798054218292236328125</LatitudeDegrees>
              <LongitudeDegrees>-4.11268715746700763702392578125</LongitudeDegrees>
            </Position>
            <AltitudeMeters>126.8000030517578125</AltitudeMeters>
            <DistanceMeters>NAN</DistanceMeters>
          </Trackpoint>
          <Trackpoint>
            <Time>2022-07-14T14:30:26.000Z</Time>
            <Position>
              <LatitudeDegrees>43.37928735651075839996337890625</LatitudeDegrees>
              <LongitudeDegrees>-4.11288530565798282623291015625</LongitudeDegrees>
            </Position>
            <AltitudeMeters>127.1999969482421875</AltitudeMeters>
            <DistanceMeters>NAN</DistanceMeters>
          </Trackpoint>
          <Trackpoint>
            <Time>2022-07-14T14:30:32.000Z</Time>
            <Position>
              <LatitudeDegrees>43.3792988397181034088134765625</LatitudeDegrees>
              <LongitudeDegrees>-4.1130426339805126190185546875</LongitudeDegrees>
            </Position>
            <AltitudeMeters>127.59999847412109375</AltitudeMeters>
            <DistanceMeters>NAN</DistanceMeters>
          </Trackpoint>
          <Trackpoint>
            <Time>2022-07-14T14:30:33.000Z</Time>
            <Position>
              <LatitudeDegrees>43.37930135428905487060546875</LatitudeDegrees>
              <LongitudeDegrees>-4.113065265119075775146484375</LongitudeDegrees>
            </Position>
            <AltitudeMeters>127.8000030517578125</AltitudeMeters>
            <DistanceMeters>NAN</DistanceMeters>
          </Trackpoint>
          <Trackpoint>
            <Time>2022-07-14T14:30:37.000Z</Time>
            <Position>
              <LatitudeDegrees>43.37931082583963871002197265625</LatitudeDegrees>
              <LongitudeDegrees>-4.113153778016567230224609375</LongitudeDegrees>
            </Position>
            <AltitudeMeters>128</AltitudeMeters>
            <DistanceMeters>NAN</DistanceMeters>
          </Trackpoint>
          <Trackpoint>
            <Time>2022-07-14T14:30:44.000Z</Time>
            <Position>
              <LatitudeDegrees>43.37938508950173854827880859375</LatitudeDegrees>
              <LongitudeDegrees>-4.11329635418951511383056640625</LongitudeDegrees>
            </Position>
            <AltitudeMeters>128.1999969482421875</AltitudeMeters>
            <DistanceMeters>NAN</DistanceMeters>
          </Trackpoint>
          <Trackpoint>
            <Time>2022-07-14T14:30:48.000Z</Time>
            <Position>
              <LatitudeDegrees>43.37941878475248813629150390625</LatitudeDegrees>
              <LongitudeDegrees>-4.113412611186504364013671875</LongitudeDegrees>
            </Position>
            <AltitudeMeters>128.1999969482421875</AltitudeMeters>
            <DistanceMeters>NAN</DistanceMeters>
          </Trackpoint>
          <Trackpoint>
            <Time>2022-07-14T14:30:52.000Z</Time>
            <Position>
              <LatitudeDegrees>43.379440493881702423095703125</LatitudeDegrees>
              <LongitudeDegrees>-4.1135066561400890350341796875</LongitudeDegrees>
            </Position>
            <AltitudeMeters>128.1999969482421875</AltitudeMeters>
            <DistanceMeters>NAN</DistanceMeters>
          </Trackpoint>
          <Trackpoint>
            <Time>2022-07-14T14:30:54.000Z</Time>
            <Position>
              <LatitudeDegrees>43.37944082915782928466796875</LatitudeDegrees>
              <LongitudeDegrees>-4.11351411603391170501708984375</LongitudeDegrees>
            </Position>
            <AltitudeMeters>128.1999969482421875</AltitudeMeters>
            <DistanceMeters>NAN</DistanceMeters>
          </Trackpoint>
          <Trackpoint>
            <Time>2022-07-14T14:30:55.000Z</Time>
            <Position>
              <LatitudeDegrees>43.37944082915782928466796875</LatitudeDegrees>
              <LongitudeDegrees>-4.11351411603391170501708984375</LongitudeDegrees>
            </Position>
            <AltitudeMeters>128.1999969482421875</AltitudeMeters>
            <DistanceMeters>NAN</DistanceMeters>
          </Trackpoint>
          <Trackpoint>
            <Time>2022-07-14T14:31:02.000Z</Time>
            <Position>
              <LatitudeDegrees>43.37945424020290374755859375</LatitudeDegrees>
              <LongitudeDegrees>-4.1136007010936737060546875</LongitudeDegrees>
            </Position>
            <AltitudeMeters>128.1999969482421875</AltitudeMeters>
            <DistanceMeters>NAN</DistanceMeters>
          </Trackpoint>
          <Trackpoint>
            <Time>2022-07-14T14:31:11.000Z</Time>
            <Position>
              <LatitudeDegrees>43.37948667816817760467529296875</LatitudeDegrees>
              <LongitudeDegrees>-4.1138754598796367645263671875</LongitudeDegrees>
            </Position>
            <AltitudeMeters>128.8000030517578125</AltitudeMeters>
            <DistanceMeters>NAN</DistanceMeters>
          </Trackpoint>
          <Trackpoint>
            <Time>2022-07-14T14:31:13.000Z</Time>
            <Position>
              <LatitudeDegrees>43.3794938027858734130859375</LatitudeDegrees>
              <LongitudeDegrees>-4.11393689922988414764404296875</LongitudeDegrees>
            </Position>
            <AltitudeMeters>128.8000030517578125</AltitudeMeters>
            <DistanceMeters>NAN</DistanceMeters>
          </Trackpoint>
          <Trackpoint>
            <Time>2022-07-14T14:31:21.000Z</Time>
            <Position>
              <LatitudeDegrees>43.37949925102293491363525390625</LatitudeDegrees>
              <LongitudeDegrees>-4.1141668148338794708251953125</LongitudeDegrees>
            </Position>
            <AltitudeMeters>129.8000030517578125</AltitudeMeters>
            <DistanceMeters>NAN</DistanceMeters>
          </Trackpoint>
          <Trackpoint>
            <Time>2022-07-14T14:31:29.000Z</Time>
            <Position>
              <LatitudeDegrees>43.37950226850807666778564453125</LatitudeDegrees>
              <LongitudeDegrees>-4.11438524723052978515625</LongitudeDegrees>
            </Position>
            <AltitudeMeters>130.8000030517578125</AltitudeMeters>
            <DistanceMeters>NAN</DistanceMeters>
          </Trackpoint>
          <Trackpoint>
            <Time>2022-07-14T14:31:31.000Z</Time>
            <Position>
              <LatitudeDegrees>43.37949824519455432891845703125</LatitudeDegrees>
              <LongitudeDegrees>-4.11443327553570270538330078125</LongitudeDegrees>
            </Position>
            <AltitudeMeters>131</AltitudeMeters>
            <DistanceMeters>NAN</DistanceMeters>
          </Trackpoint>
          <Trackpoint>
            <Time>2022-07-14T14:31:38.000Z</Time>
            <Position>
              <LatitudeDegrees>43.379482068121433258056640625</LatitudeDegrees>
              <LongitudeDegrees>-4.11460493691265583038330078125</LongitudeDegrees>
            </Position>
            <AltitudeMeters>131.8000030517578125</AltitudeMeters>
            <DistanceMeters>NAN</DistanceMeters>
          </Trackpoint>
          <Trackpoint>
            <Time>2022-07-14T14:31:39.000Z</Time>
            <Position>
              <LatitudeDegrees>43.37947838008403778076171875</LatitudeDegrees>
              <LongitudeDegrees>-4.1146279871463775634765625</LongitudeDegrees>
            </Position>
            <AltitudeMeters>132</AltitudeMeters>
            <DistanceMeters>NAN</DistanceMeters>
          </Trackpoint>
          <Trackpoint>
            <Time>2022-07-14T14:31:46.000Z</Time>
            <Position>
              <LatitudeDegrees>43.37945080362260341644287109375</LatitudeDegrees>
              <LongitudeDegrees>-4.1148035041987895965576171875</LongitudeDegrees>
            </Position>
            <AltitudeMeters>133</AltitudeMeters>
            <DistanceMeters>NAN</DistanceMeters>
          </Trackpoint>
          <Trackpoint>
            <Time>2022-07-14T14:31:48.000Z</Time>
            <Position>
              <LatitudeDegrees>43.3794406615197658538818359375</LatitudeDegrees>
              <LongitudeDegrees>-4.114852286875247955322265625</LongitudeDegrees>
            </Position>
            <AltitudeMeters>133.1999969482421875</AltitudeMeters>
            <DistanceMeters>NAN</DistanceMeters>
          </Trackpoint>
          <Trackpoint>
            <Time>2022-07-14T14:31:55.000Z</Time>
            <Position>
              <LatitudeDegrees>43.37941358797252178192138671875</LatitudeDegrees>
              <LongitudeDegrees>-4.115011207759380340576171875</LongitudeDegrees>
            </Position>
            <AltitudeMeters>134.1999969482421875</AltitudeMeters>
            <DistanceMeters>NAN</DistanceMeters>
          </Trackpoint>
          <Trackpoint>
            <Time>2022-07-14T14:31:57.000Z</Time>
            <Position>
              <LatitudeDegrees>43.3794108219444751739501953125</LatitudeDegrees>
              <LongitudeDegrees>-4.115052111446857452392578125</LongitudeDegrees>
            </Position>
            <AltitudeMeters>134.399993896484375</AltitudeMeters>
            <DistanceMeters>NAN</DistanceMeters>
          </Trackpoint>
          <Trackpoint>
            <Time>2022-07-14T14:32:04.000Z</Time>
            <Position>
              <LatitudeDegrees>43.37938173674046993255615234375</LatitudeDegrees>
              <LongitudeDegrees>-4.1152098588645458221435546875</LongitudeDegrees>
            </Position>
            <AltitudeMeters>135</AltitudeMeters>
            <DistanceMeters>NAN</DistanceMeters>
          </Trackpoint>
          <Trackpoint>
            <Time>2022-07-14T14:32:05.000Z</Time>
            <Position>
              <LatitudeDegrees>43.3793779648840427398681640625</LatitudeDegrees>
              <LongitudeDegrees>-4.11523215472698211669921875</LongitudeDegrees>
            </Position>
            <AltitudeMeters>135.1999969482421875</AltitudeMeters>
            <DistanceMeters>NAN</DistanceMeters>
          </Trackpoint>
          <Trackpoint>
            <Time>2022-07-14T14:32:12.000Z</Time>
            <Position>
              <LatitudeDegrees>43.3793437667191028594970703125</LatitudeDegrees>
              <LongitudeDegrees>-4.1153895668685436248779296875</LongitudeDegrees>
            </Position>
            <AltitudeMeters>136.1999969482421875</AltitudeMeters>
            <DistanceMeters>NAN</DistanceMeters>
          </Trackpoint>
          <Trackpoint>
            <Time>2022-07-14T14:32:19.000Z</Time>
            <Position>
              <LatitudeDegrees>43.379304707050323486328125</LatitudeDegrees>
              <LongitudeDegrees>-4.11554454825818538665771484375</LongitudeDegrees>
            </Position>
            <AltitudeMeters>136.8000030517578125</AltitudeMeters>
            <DistanceMeters>NAN</DistanceMeters>
          </Trackpoint>
          <Trackpoint>
            <Time>2022-07-14T14:32:22.000Z</Time>
            <Position>
              <LatitudeDegrees>43.37928500957787036895751953125</LatitudeDegrees>
              <LongitudeDegrees>-4.115610010921955108642578125</LongitudeDegrees>
            </Position>
            <AltitudeMeters>137</AltitudeMeters>
            <DistanceMeters>NAN</DistanceMeters>
          </Trackpoint>
          <Trackpoint>
            <Time>2022-07-14T14:32:23.000Z</Time>
            <Position>
              <LatitudeDegrees>43.37927947752177715301513671875</LatitudeDegrees>
              <LongitudeDegrees>-4.1156302951276302337646484375</LongitudeDegrees>
            </Position>
            <AltitudeMeters>137.1999969482421875</AltitudeMeters>
            <DistanceMeters>NAN</DistanceMeters>
          </Trackpoint>
          <Trackpoint>
            <Time>2022-07-14T14:32:31.000Z</Time>
            <Position>
              <LatitudeDegrees>43.37920873425900936126708984375</LatitudeDegrees>
              <LongitudeDegrees>-4.11581075750291347503662109375</LongitudeDegrees>
            </Position>
            <AltitudeMeters>137.8000030517578125</AltitudeMeters>
            <DistanceMeters>NAN</DistanceMeters>
          </Trackpoint>
          <Trackpoint>
            <Time>2022-07-14T14:32:36.000Z</Time>
            <Position>
              <LatitudeDegrees>43.3791593648493289947509765625</LatitudeDegrees>
              <LongitudeDegrees>-4.11593162454664707183837890625</LongitudeDegrees>
            </Position>
            <AltitudeMeters>138.399993896484375</AltitudeMeters>
            <DistanceMeters>NAN</DistanceMeters>
          </Trackpoint>
          <Trackpoint>
            <Time>2022-07-14T14:32:38.000Z</Time>
            <Position>
              <LatitudeDegrees>43.3791308663785457611083984375</LatitudeDegrees>
              <LongitudeDegrees>-4.115981161594390869140625</LongitudeDegrees>
            </Position>
            <AltitudeMeters>138.600006103515625</AltitudeMeters>
            <DistanceMeters>NAN</DistanceMeters>
          </Trackpoint>
          <Trackpoint>
            <Time>2022-07-14T14:32:45.000Z</Time>
            <Position>
              <LatitudeDegrees>43.37904528714716434478759765625</LatitudeDegrees>
              <LongitudeDegrees>-4.116124995052814483642578125</LongitudeDegrees>
            </Position>
            <AltitudeMeters>138.8000030517578125</AltitudeMeters>
            <DistanceMeters>NAN</DistanceMeters>
          </Trackpoint>
          <Trackpoint>
            <Time>2022-07-14T14:32:54.000Z</Time>
            <Position>
              <LatitudeDegrees>43.37891184724867343902587890625</LatitudeDegrees>
              <LongitudeDegrees>-4.116289615631103515625</LongitudeDegrees>
            </Position>
            <AltitudeMeters>139.600006103515625</AltitudeMeters>
            <DistanceMeters>NAN</DistanceMeters>
          </Trackpoint>
          <Trackpoint>
            <Time>2022-07-14T14:33:01.000Z</Time>
            <Position>
              <LatitudeDegrees>43.3787915669381618499755859375</LatitudeDegrees>
              <LongitudeDegrees>-4.1163776256144046783447265625</LongitudeDegrees>
            </Position>
            <AltitudeMeters>139.8000030517578125</AltitudeMeters>
            <DistanceMeters>NAN</DistanceMeters>
          </Trackpoint>
          <Trackpoint>
            <Time>2022-07-14T14:33:07.000Z</Time>
            <Position>
              <LatitudeDegrees>43.37864287197589874267578125</LatitudeDegrees>
              <LongitudeDegrees>-4.1164872609078884124755859375</LongitudeDegrees>
            </Position>
            <AltitudeMeters>140.1999969482421875</AltitudeMeters>
            <DistanceMeters>NAN</DistanceMeters>
          </Trackpoint>
          <Trackpoint>
            <Time>2022-07-14T14:33:09.000Z</Time>
            <Position>
              <LatitudeDegrees>43.37860791943967342376708984375</LatitudeDegrees>
              <LongitudeDegrees>-4.11651936359703540802001953125</LongitudeDegrees>
            </Position>
            <AltitudeMeters>140.399993896484375</AltitudeMeters>
            <DistanceMeters>NAN</DistanceMeters>
          </Trackpoint>
          <Trackpoint>
            <Time>2022-07-14T14:33:11.000Z</Time>
            <Position>
              <LatitudeDegrees>43.37857020087540149688720703125</LatitudeDegrees>
              <LongitudeDegrees>-4.11655087955296039581298828125</LongitudeDegrees>
            </Position>
            <AltitudeMeters>140.600006103515625</AltitudeMeters>
            <DistanceMeters>NAN</DistanceMeters>
          </Trackpoint>
          <Trackpoint>
            <Time>2022-07-14T14:33:14.000Z</Time>
            <Position>
              <LatitudeDegrees>43.37851890362799167633056640625</LatitudeDegrees>
              <LongitudeDegrees>-4.1166032664477825164794921875</LongitudeDegrees>
            </Position>
            <AltitudeMeters>140.8000030517578125</AltitudeMeters>
            <DistanceMeters>NAN</DistanceMeters>
          </Trackpoint>
          <Trackpoint>
            <Time>2022-07-14T14:33:18.000Z</Time>
            <Position>
              <LatitudeDegrees>43.3784638345241546630859375</LatitudeDegrees>
              <LongitudeDegrees>-4.116692952811717987060546875</LongitudeDegrees>
            </Position>
            <AltitudeMeters>141.1999969482421875</AltitudeMeters>
            <DistanceMeters>NAN</DistanceMeters>
          </Trackpoint>
          <Trackpoint>
            <Time>2022-07-14T14:33:23.000Z</Time>
            <Position>
              <LatitudeDegrees>43.37840826250612735748291015625</LatitudeDegrees>
              <LongitudeDegrees>-4.11679395474493503570556640625</LongitudeDegrees>
            </Position>
            <AltitudeMeters>141.600006103515625</AltitudeMeters>
            <DistanceMeters>NAN</DistanceMeters>
          </Trackpoint>
          <Trackpoint>
            <Time>2022-07-14T14:33:28.000Z</Time>
            <Position>
              <LatitudeDegrees>43.37836585007607936859130859375</LatitudeDegrees>
              <LongitudeDegrees>-4.1169204376637935638427734375</LongitudeDegrees>
            </Position>
            <AltitudeMeters>141.8000030517578125</AltitudeMeters>
            <DistanceMeters>NAN</DistanceMeters>
          </Trackpoint>
          <Trackpoint>
            <Time>2022-07-14T14:33:34.000Z</Time>
            <Position>
              <LatitudeDegrees>43.37829661555588245391845703125</LatitudeDegrees>
              <LongitudeDegrees>-4.11708514206111431121826171875</LongitudeDegrees>
            </Position>
            <AltitudeMeters>142</AltitudeMeters>
            <DistanceMeters>NAN</DistanceMeters>
          </Trackpoint>
          <Trackpoint>
            <Time>2022-07-14T14:33:39.000Z</Time>
            <Position>
              <LatitudeDegrees>43.37825126945972442626953125</LatitudeDegrees>
              <LongitudeDegrees>-4.11721707321703433990478515625</LongitudeDegrees>
            </Position>
            <AltitudeMeters>142.399993896484375</AltitudeMeters>
            <DistanceMeters>NAN</DistanceMeters>
          </Trackpoint>
          <Trackpoint>
            <Time>2022-07-14T14:33:42.000Z</Time>
            <Position>
              <LatitudeDegrees>43.37823140434920787811279296875</LatitudeDegrees>
              <LongitudeDegrees>-4.11728127859532833099365234375</LongitudeDegrees>
            </Position>
            <AltitudeMeters>142.600006103515625</AltitudeMeters>
            <DistanceMeters>NAN</DistanceMeters>
          </Trackpoint>
          <Trackpoint>
            <Time>2022-07-14T14:33:43.000Z</Time>
            <Position>
              <LatitudeDegrees>43.37822419591248035430908203125</LatitudeDegrees>
              <LongitudeDegrees>-4.11730659194290637969970703125</LongitudeDegrees>
            </Position>
            <AltitudeMeters>142.600006103515625</AltitudeMeters>
            <DistanceMeters>NAN</DistanceMeters>
          </Trackpoint>
          <Trackpoint>
            <Time>2022-07-14T14:33:46.000Z</Time>
            <Position>
              <LatitudeDegrees>43.37821103632450103759765625</LatitudeDegrees>
              <LongitudeDegrees>-4.11737792193889617919921875</LongitudeDegrees>
            </Position>
            <AltitudeMeters>142.8000030517578125</AltitudeMeters>
            <DistanceMeters>NAN</DistanceMeters>
          </Trackpoint>
          <Trackpoint>
            <Time>2022-07-14T14:33:47.000Z</Time>
            <Position>
              <LatitudeDegrees>43.378206007182598114013671875</LatitudeDegrees>
              <LongitudeDegrees>-4.11740072071552276611328125</LongitudeDegrees>
            </Position>
            <AltitudeMeters>143</AltitudeMeters>
            <DistanceMeters>NAN</DistanceMeters>
          </Trackpoint>
          <Trackpoint>
            <Time>2022-07-14T14:33:53.000Z</Time>
            <Position>
              <LatitudeDegrees>43.37817239575088024139404296875</LatitudeDegrees>
              <LongitudeDegrees>-4.11754556000232696533203125</LongitudeDegrees>
            </Position>
            <AltitudeMeters>143.600006103515625</AltitudeMeters>
            <DistanceMeters>NAN</DistanceMeters>
          </Trackpoint>
          <Trackpoint>
            <Time>2022-07-14T14:33:56.000Z</Time>
            <Position>
              <LatitudeDegrees>43.37816082872450351715087890625</LatitudeDegrees>
              <LongitudeDegrees>-4.11761856637895107269287109375</LongitudeDegrees>
            </Position>
            <AltitudeMeters>143.8000030517578125</AltitudeMeters>
            <DistanceMeters>NAN</DistanceMeters>
          </Trackpoint>
          <Trackpoint>
            <Time>2022-07-14T14:33:58.000Z</Time>
            <Position>
              <LatitudeDegrees>43.378154374659061431884765625</LatitudeDegrees>
              <LongitudeDegrees>-4.117666594684123992919921875</LongitudeDegrees>
            </Position>
            <AltitudeMeters>144.1999969482421875</AltitudeMeters>
            <DistanceMeters>NAN</DistanceMeters>
          </Trackpoint>
          <Trackpoint>
            <Time>2022-07-14T14:34:03.000Z</Time>
            <Position>
              <LatitudeDegrees>43.3781407959759235382080078125</LatitudeDegrees>
              <LongitudeDegrees>-4.1177723743021488189697265625</LongitudeDegrees>
            </Position>
            <AltitudeMeters>144.399993896484375</AltitudeMeters>
            <DistanceMeters>NAN</DistanceMeters>
          </Trackpoint>
          <Trackpoint>
            <Time>2022-07-14T14:34:05.000Z</Time>
            <Position>
              <LatitudeDegrees>43.3781226910650730133056640625</LatitudeDegrees>
              <LongitudeDegrees>-4.117818139493465423583984375</LongitudeDegrees>
            </Position>
            <AltitudeMeters>144.600006103515625</AltitudeMeters>
            <DistanceMeters>NAN</DistanceMeters>
          </Trackpoint>
          <Trackpoint>
            <Time>2022-07-14T14:34:06.000Z</Time>
            <Position>
              <LatitudeDegrees>43.37811673991382122039794921875</LatitudeDegrees>
              <LongitudeDegrees>-4.1178464703261852264404296875</LongitudeDegrees>
            </Position>
            <AltitudeMeters>144.8000030517578125</AltitudeMeters>
            <DistanceMeters>NAN</DistanceMeters>
          </Trackpoint>
          <Trackpoint>
            <Time>2022-07-14T14:34:10.000Z</Time>
            <Position>
              <LatitudeDegrees>43.37808589451014995574951171875</LatitudeDegrees>
              <LongitudeDegrees>-4.11793104372918605804443359375</LongitudeDegrees>
            </Position>
            <AltitudeMeters>145.1999969482421875</AltitudeMeters>
            <DistanceMeters>NAN</DistanceMeters>
          </Trackpoint>
          <Trackpoint>
            <Time>2022-07-14T14:34:14.000Z</Time>
            <Position>
              <LatitudeDegrees>43.378048427402973175048828125</LatitudeDegrees>
              <LongitudeDegrees>-4.118006229400634765625</LongitudeDegrees>
            </Position>
            <AltitudeMeters>145.1999969482421875</AltitudeMeters>
            <DistanceMeters>NAN</DistanceMeters>
          </Trackpoint>
          <Trackpoint>
            <Time>2022-07-14T14:34:17.000Z</Time>
            <Position>
              <LatitudeDegrees>43.37801163084805011749267578125</LatitudeDegrees>
              <LongitudeDegrees>-4.1180600412189960479736328125</LongitudeDegrees>
            </Position>
            <AltitudeMeters>145.399993896484375</AltitudeMeters>
            <DistanceMeters>NAN</DistanceMeters>
          </Trackpoint>
          <Trackpoint>
            <Time>2022-07-14T14:34:20.000Z</Time>
            <Position>
              <LatitudeDegrees>43.37798631750047206878662109375</LatitudeDegrees>
              <LongitudeDegrees>-4.118106476962566375732421875</LongitudeDegrees>
            </Position>
            <AltitudeMeters>145.8000030517578125</AltitudeMeters>
            <DistanceMeters>NAN</DistanceMeters>
          </Trackpoint>
          <Trackpoint>
            <Time>2022-07-14T14:34:21.000Z</Time>
            <Position>
              <LatitudeDegrees>43.3779795281589031219482421875</LatitudeDegrees>
              <LongitudeDegrees>-4.1181234084069728851318359375</LongitudeDegrees>
            </Position>
            <AltitudeMeters>145.8000030517578125</AltitudeMeters>
            <DistanceMeters>NAN</DistanceMeters>
          </Trackpoint>
          <Trackpoint>
            <Time>2022-07-14T14:34:29.000Z</Time>
            <Position>
              <LatitudeDegrees>43.37791557423770427703857421875</LatitudeDegrees>
              <LongitudeDegrees>-4.11828442476689815521240234375</LongitudeDegrees>
            </Position>
            <AltitudeMeters>146.8000030517578125</AltitudeMeters>
            <DistanceMeters>NAN</DistanceMeters>
          </Trackpoint>
          <Trackpoint>
            <Time>2022-07-14T14:34:31.000Z</Time>
            <Position>
              <LatitudeDegrees>43.37790618650615215301513671875</LatitudeDegrees>
              <LongitudeDegrees>-4.1183185391128063201904296875</LongitudeDegrees>
            </Position>
            <AltitudeMeters>147.399993896484375</AltitudeMeters>
            <DistanceMeters>NAN</DistanceMeters>
          </Trackpoint>
          <Trackpoint>
            <Time>2022-07-14T14:34:35.000Z</Time>
            <Position>
              <LatitudeDegrees>43.3778879977762699127197265625</LatitudeDegrees>
              <LongitudeDegrees>-4.1184125840663909912109375</LongitudeDegrees>
            </Position>
            <AltitudeMeters>148</AltitudeMeters>
            <DistanceMeters>NAN</DistanceMeters>
          </Trackpoint>
          <Trackpoint>
            <Time>2022-07-14T14:34:39.000Z</Time>
            <Position>
              <LatitudeDegrees>43.37787131778895854949951171875</LatitudeDegrees>
              <LongitudeDegrees>-4.11850771866738796234130859375</LongitudeDegrees>
            </Position>
            <AltitudeMeters>148.1999969482421875</AltitudeMeters>
            <DistanceMeters>NAN</DistanceMeters>
          </Trackpoint>
          <Trackpoint>
            <Time>2022-07-14T14:34:45.000Z</Time>
            <Position>
              <LatitudeDegrees>43.377861678600311279296875</LatitudeDegrees>
              <LongitudeDegrees>-4.11864400841295719146728515625</LongitudeDegrees>
            </Position>
            <AltitudeMeters>149</AltitudeMeters>
            <DistanceMeters>NAN</DistanceMeters>
          </Trackpoint>
          <Trackpoint>
            <Time>2022-07-14T14:34:53.000Z</Time>
            <Position>
              <LatitudeDegrees>43.37785606272518634796142578125</LatitudeDegrees>
              <LongitudeDegrees>-4.11883494816720485687255859375</LongitudeDegrees>
            </Position>
            <AltitudeMeters>150</AltitudeMeters>
            <DistanceMeters>NAN</DistanceMeters>
          </Trackpoint>
          <Trackpoint>
            <Time>2022-07-14T14:34:54.000Z</Time>
            <Position>
              <LatitudeDegrees>43.37786410935223102569580078125</LatitudeDegrees>
              <LongitudeDegrees>-4.1188526339828968048095703125</LongitudeDegrees>
            </Position>
            <AltitudeMeters>150</AltitudeMeters>
            <DistanceMeters>NAN</DistanceMeters>
          </Trackpoint>
          <Trackpoint>
            <Time>2022-07-14T14:34:59.000Z</Time>
            <Position>
              <LatitudeDegrees>43.3779180049896240234375</LatitudeDegrees>
              <LongitudeDegrees>-4.118942320346832275390625</LongitudeDegrees>
            </Position>
            <AltitudeMeters>150.399993896484375</AltitudeMeters>
            <DistanceMeters>NAN</DistanceMeters>
          </Trackpoint>
          <Trackpoint>
            <Time>2022-07-14T14:35:02.000Z</Time>
            <Position>
              <LatitudeDegrees>43.37795664556324481964111328125</LatitudeDegrees>
              <LongitudeDegrees>-4.1190048493444919586181640625</LongitudeDegrees>
            </Position>
            <AltitudeMeters>150.399993896484375</AltitudeMeters>
            <DistanceMeters>NAN</DistanceMeters>
          </Trackpoint>
          <Trackpoint>
            <Time>2022-07-14T14:35:07.000Z</Time>
            <Position>
              <LatitudeDegrees>43.37803174741566181182861328125</LatitudeDegrees>
              <LongitudeDegrees>-4.119237028062343597412109375</LongitudeDegrees>
            </Position>
            <AltitudeMeters>150</AltitudeMeters>
            <DistanceMeters>NAN</DistanceMeters>
          </Trackpoint>
          <Trackpoint>
            <Time>2022-07-14T14:35:11.000Z</Time>
            <Position>
              <LatitudeDegrees>43.378067873418331146240234375</LatitudeDegrees>
              <LongitudeDegrees>-4.11945956759154796600341796875</LongitudeDegrees>
            </Position>
            <AltitudeMeters>149.1999969482421875</AltitudeMeters>
            <DistanceMeters>NAN</DistanceMeters>
          </Trackpoint>
          <Trackpoint>
            <Time>2022-07-14T14:35:12.000Z</Time>
            <Position>
              <LatitudeDegrees>43.378071226179599761962890625</LatitudeDegrees>
              <LongitudeDegrees>-4.11951740272343158721923828125</LongitudeDegrees>
            </Position>
            <AltitudeMeters>149</AltitudeMeters>
            <DistanceMeters>NAN</DistanceMeters>
          </Trackpoint>
          <Trackpoint>
            <Time>2022-07-14T14:35:13.000Z</Time>
            <Position>
              <LatitudeDegrees>43.37807365693151950836181640625</LatitudeDegrees>
              <LongitudeDegrees>-4.11958328448235988616943359375</LongitudeDegrees>
            </Position>
            <AltitudeMeters>148.8000030517578125</AltitudeMeters>
            <DistanceMeters>NAN</DistanceMeters>
          </Trackpoint>
          <Trackpoint>
            <Time>2022-07-14T14:35:16.000Z</Time>
            <Position>
              <LatitudeDegrees>43.37808363139629364013671875</LatitudeDegrees>
              <LongitudeDegrees>-4.1197937540709972381591796875</LongitudeDegrees>
            </Position>
            <AltitudeMeters>147.8000030517578125</AltitudeMeters>
            <DistanceMeters>NAN</DistanceMeters>
          </Trackpoint>
          <Trackpoint>
            <Time>2022-07-14T14:35:20.000Z</Time>
            <Position>
              <LatitudeDegrees>43.37810399942100048065185546875</LatitudeDegrees>
              <LongitudeDegrees>-4.1200666688382625579833984375</LongitudeDegrees>
            </Position>
            <AltitudeMeters>147.1999969482421875</AltitudeMeters>
            <DistanceMeters>NAN</DistanceMeters>
          </Trackpoint>
          <Trackpoint>
            <Time>2022-07-14T14:35:22.000Z</Time>
            <Position>
              <LatitudeDegrees>43.3781354315578937530517578125</LatitudeDegrees>
              <LongitudeDegrees>-4.12018409930169582366943359375</LongitudeDegrees>
            </Position>
            <AltitudeMeters>147</AltitudeMeters>
            <DistanceMeters>NAN</DistanceMeters>
          </Trackpoint>
          <Trackpoint>
            <Time>2022-07-14T14:35:23.000Z</Time>
            <Position>
              <LatitudeDegrees>43.37816300801932811737060546875</LatitudeDegrees>
              <LongitudeDegrees>-4.1202343069016933441162109375</LongitudeDegrees>
            </Position>
            <AltitudeMeters>146.600006103515625</AltitudeMeters>
            <DistanceMeters>NAN</DistanceMeters>
          </Trackpoint>
          <Trackpoint>
            <Time>2022-07-14T14:35:25.000Z</Time>
            <Position>
              <LatitudeDegrees>43.37822302244603633880615234375</LatitudeDegrees>
              <LongitudeDegrees>-4.12033363245427608489990234375</LongitudeDegrees>
            </Position>
            <AltitudeMeters>146.1999969482421875</AltitudeMeters>
            <DistanceMeters>NAN</DistanceMeters>
          </Trackpoint>
          <Trackpoint>
            <Time>2022-07-14T14:35:27.000Z</Time>
            <Position>
              <LatitudeDegrees>43.37827700190246105194091796875</LatitudeDegrees>
              <LongitudeDegrees>-4.12043622694909572601318359375</LongitudeDegrees>
            </Position>
            <AltitudeMeters>145.399993896484375</AltitudeMeters>
            <DistanceMeters>NAN</DistanceMeters>
          </Trackpoint>
          <Trackpoint>
            <Time>2022-07-14T14:35:28.000Z</Time>
            <Position>
              <LatitudeDegrees>43.3782983757555484771728515625</LatitudeDegrees>
              <LongitudeDegrees>-4.12047780118882656097412109375</LongitudeDegrees>
            </Position>
            <AltitudeMeters>144.600006103515625</AltitudeMeters>
            <DistanceMeters>NAN</DistanceMeters>
          </Trackpoint>
          <Trackpoint>
            <Time>2022-07-14T14:35:29.000Z</Time>
            <Position>
              <LatitudeDegrees>43.3783275447785854339599609375</LatitudeDegrees>
              <LongitudeDegrees>-4.1205286793410778045654296875</LongitudeDegrees>
            </Position>
            <AltitudeMeters>144.1999969482421875</AltitudeMeters>
            <DistanceMeters>NAN</DistanceMeters>
          </Trackpoint>
          <Trackpoint>
            <Time>2022-07-14T14:35:30.000Z</Time>
            <Position>
              <LatitudeDegrees>43.378364928066730499267578125</LatitudeDegrees>
              <LongitudeDegrees>-4.12058508954942226409912109375</LongitudeDegrees>
            </Position>
            <AltitudeMeters>143.600006103515625</AltitudeMeters>
            <DistanceMeters>NAN</DistanceMeters>
          </Trackpoint>
          <Trackpoint>
            <Time>2022-07-14T14:35:31.000Z</Time>
            <Position>
              <LatitudeDegrees>43.378392420709133148193359375</LatitudeDegrees>
              <LongitudeDegrees>-4.1206356324255466461181640625</LongitudeDegrees>
            </Position>
            <AltitudeMeters>143</AltitudeMeters>
            <DistanceMeters>NAN</DistanceMeters>
          </Trackpoint>
          <Trackpoint>
            <Time>2022-07-14T14:35:33.000Z</Time>
            <Position>
              <LatitudeDegrees>43.37842972017824649810791015625</LatitudeDegrees>
              <LongitudeDegrees>-4.12072272039949893951416015625</LongitudeDegrees>
            </Position>
            <AltitudeMeters>141.399993896484375</AltitudeMeters>
            <DistanceMeters>NAN</DistanceMeters>
          </Trackpoint>
          <Trackpoint>
            <Time>2022-07-14T14:35:35.000Z</Time>
            <Position>
              <LatitudeDegrees>43.3784438855946063995361328125</LatitudeDegrees>
              <LongitudeDegrees>-4.1208022646605968475341796875</LongitudeDegrees>
            </Position>
            <AltitudeMeters>140.600006103515625</AltitudeMeters>
            <DistanceMeters>NAN</DistanceMeters>
          </Trackpoint>
          <Trackpoint>
            <Time>2022-07-14T14:35:36.000Z</Time>
            <Position>
              <LatitudeDegrees>43.3784396946430206298828125</LatitudeDegrees>
              <LongitudeDegrees>-4.12085314281284809112548828125</LongitudeDegrees>
            </Position>
            <AltitudeMeters>140.399993896484375</AltitudeMeters>
            <DistanceMeters>NAN</DistanceMeters>
          </Trackpoint>
          <Trackpoint>
            <Time>2022-07-14T14:35:40.000Z</Time>
            <Position>
              <LatitudeDegrees>43.3784103579819202423095703125</LatitudeDegrees>
              <LongitudeDegrees>-4.1210349462926387786865234375</LongitudeDegrees>
            </Position>
            <AltitudeMeters>140</AltitudeMeters>
            <DistanceMeters>NAN</DistanceMeters>
          </Trackpoint>
          <Trackpoint>
            <Time>2022-07-14T14:35:46.000Z</Time>
            <Position>
              <LatitudeDegrees>43.3783376030623912811279296875</LatitudeDegrees>
              <LongitudeDegrees>-4.12128481082618236541748046875</LongitudeDegrees>
            </Position>
            <AltitudeMeters>140</AltitudeMeters>
            <DistanceMeters>NAN</DistanceMeters>
          </Trackpoint>
          <Trackpoint>
            <Time>2022-07-14T14:35:48.000Z</Time>
            <Position>
              <LatitudeDegrees>43.3783243596553802490234375</LatitudeDegrees>
              <LongitudeDegrees>-4.121339879930019378662109375</LongitudeDegrees>
            </Position>
            <AltitudeMeters>140</AltitudeMeters>
            <DistanceMeters>NAN</DistanceMeters>
          </Trackpoint>
          <Trackpoint>
            <Time>2022-07-14T14:35:50.000Z</Time>
            <Position>
              <LatitudeDegrees>43.3783282153308391571044921875</LatitudeDegrees>
              <LongitudeDegrees>-4.1213802807033061981201171875</LongitudeDegrees>
            </Position>
            <AltitudeMeters>140</AltitudeMeters>
            <DistanceMeters>NAN</DistanceMeters>
          </Trackpoint>
          <Trackpoint>
            <Time>2022-07-14T14:35:51.000Z</Time>
            <Position>
              <LatitudeDegrees>43.3783295564353466033935546875</LatitudeDegrees>
              <LongitudeDegrees>-4.12139779888093471527099609375</LongitudeDegrees>
            </Position>
            <AltitudeMeters>140</AltitudeMeters>
            <DistanceMeters>NAN</DistanceMeters>
          </Trackpoint>
          <Trackpoint>
            <Time>2022-07-14T14:35:53.000Z</Time>
            <Position>
              <LatitudeDegrees>43.37834514677524566650390625</LatitudeDegrees>
              <LongitudeDegrees>-4.12142361514270305633544921875</LongitudeDegrees>
            </Position>
            <AltitudeMeters>140</AltitudeMeters>
            <DistanceMeters>NAN</DistanceMeters>
          </Trackpoint>
          <Trackpoint>
            <Time>2022-07-14T14:35:55.000Z</Time>
            <Position>
              <LatitudeDegrees>43.37836450897157192230224609375</LatitudeDegrees>
              <LongitudeDegrees>-4.12143350578844547271728515625</LongitudeDegrees>
            </Position>
            <AltitudeMeters>140.1999969482421875</AltitudeMeters>
            <DistanceMeters>NAN</DistanceMeters>
          </Trackpoint>
          <Trackpoint>
            <Time>2022-07-14T14:35:58.000Z</Time>
            <Position>
              <LatitudeDegrees>43.378366939723491668701171875</LatitudeDegrees>
              <LongitudeDegrees>-4.121435768902301788330078125</LongitudeDegrees>
            </Position>
            <AltitudeMeters>140.1999969482421875</AltitudeMeters>
            <DistanceMeters>NAN</DistanceMeters>
          </Trackpoint>
          <Trackpoint>
            <Time>2022-07-14T14:38:00.000Z</Time>
            <Position>
              <LatitudeDegrees>43.37835445068776607513427734375</LatitudeDegrees>
              <LongitudeDegrees>-4.1214944422245025634765625</LongitudeDegrees>
            </Position>
            <AltitudeMeters>138.600006103515625</AltitudeMeters>
            <DistanceMeters>NAN</DistanceMeters>
          </Trackpoint>
          <Trackpoint>
            <Time>2022-07-14T14:38:01.000Z</Time>
            <Position>
              <LatitudeDegrees>43.37834321893751621246337890625</LatitudeDegrees>
              <LongitudeDegrees>-4.12151883356273174285888671875</LongitudeDegrees>
            </Position>
            <AltitudeMeters>138.600006103515625</AltitudeMeters>
            <DistanceMeters>NAN</DistanceMeters>
          </Trackpoint>
          <Trackpoint>
            <Time>2022-07-14T14:38:07.000Z</Time>
            <Position>
              <LatitudeDegrees>43.37825302965939044952392578125</LatitudeDegrees>
              <LongitudeDegrees>-4.121697284281253814697265625</LongitudeDegrees>
            </Position>
            <AltitudeMeters>138.600006103515625</AltitudeMeters>
            <DistanceMeters>NAN</DistanceMeters>
          </Trackpoint>
          <Trackpoint>
            <Time>2022-07-14T14:38:13.000Z</Time>
            <Position>
              <LatitudeDegrees>43.378182537853717803955078125</LatitudeDegrees>
              <LongitudeDegrees>-4.12191345356404781341552734375</LongitudeDegrees>
            </Position>
            <AltitudeMeters>138.600006103515625</AltitudeMeters>
            <DistanceMeters>NAN</DistanceMeters>
          </Trackpoint>
          <Trackpoint>
            <Time>2022-07-14T14:38:14.000Z</Time>
            <Position>
              <LatitudeDegrees>43.37816971354186534881591796875</LatitudeDegrees>
              <LongitudeDegrees>-4.12194983102381229400634765625</LongitudeDegrees>
            </Position>
            <AltitudeMeters>138.600006103515625</AltitudeMeters>
            <DistanceMeters>NAN</DistanceMeters>
          </Trackpoint>
          <Trackpoint>
            <Time>2022-07-14T14:38:20.000Z</Time>
            <Position>
              <LatitudeDegrees>43.37810349650681018829345703125</LatitudeDegrees>
              <LongitudeDegrees>-4.1221266053617000579833984375</LongitudeDegrees>
            </Position>
            <AltitudeMeters>139</AltitudeMeters>
            <DistanceMeters>NAN</DistanceMeters>
          </Trackpoint>
          <Trackpoint>
            <Time>2022-07-14T14:38:26.000Z</Time>
            <Position>
              <LatitudeDegrees>43.37807818315923213958740234375</LatitudeDegrees>
              <LongitudeDegrees>-4.122300781309604644775390625</LongitudeDegrees>
            </Position>
            <AltitudeMeters>139.600006103515625</AltitudeMeters>
            <DistanceMeters>NAN</DistanceMeters>
          </Trackpoint>
          <Trackpoint>
            <Time>2022-07-14T14:38:27.000Z</Time>
            <Position>
              <LatitudeDegrees>43.37807399220764636993408203125</LatitudeDegrees>
              <LongitudeDegrees>-4.12233472801744937896728515625</LongitudeDegrees>
            </Position>
            <AltitudeMeters>139.600006103515625</AltitudeMeters>
            <DistanceMeters>NAN</DistanceMeters>
          </Trackpoint>
          <Trackpoint>
            <Time>2022-07-14T14:38:30.000Z</Time>
            <Position>
              <LatitudeDegrees>43.3780603297054767608642578125</LatitudeDegrees>
              <LongitudeDegrees>-4.12243799306452274322509765625</LongitudeDegrees>
            </Position>
            <AltitudeMeters>140.1999969482421875</AltitudeMeters>
            <DistanceMeters>NAN</DistanceMeters>
          </Trackpoint>
          <Trackpoint>
            <Time>2022-07-14T14:38:33.000Z</Time>
            <Position>
              <LatitudeDegrees>43.378053791821002960205078125</LatitudeDegrees>
              <LongitudeDegrees>-4.12254243157804012298583984375</LongitudeDegrees>
            </Position>
            <AltitudeMeters>140.600006103515625</AltitudeMeters>
            <DistanceMeters>NAN</DistanceMeters>
          </Trackpoint>
          <Trackpoint>
            <Time>2022-07-14T14:38:34.000Z</Time>
            <Position>
              <LatitudeDegrees>43.37805144488811492919921875</LatitudeDegrees>
              <LongitudeDegrees>-4.1225765459239482879638671875</LongitudeDegrees>
            </Position>
            <AltitudeMeters>140.8000030517578125</AltitudeMeters>
            <DistanceMeters>NAN</DistanceMeters>
          </Trackpoint>
          <Trackpoint>
            <Time>2022-07-14T14:38:36.000Z</Time>
            <Position>
              <LatitudeDegrees>43.3780507743358612060546875</LatitudeDegrees>
              <LongitudeDegrees>-4.12263597361743450164794921875</LongitudeDegrees>
            </Position>
            <AltitudeMeters>141</AltitudeMeters>
            <DistanceMeters>NAN</DistanceMeters>
          </Trackpoint>
          <Trackpoint>
            <Time>2022-07-14T14:38:43.000Z</Time>
            <Position>
              <LatitudeDegrees>43.37806577794253826141357421875</LatitudeDegrees>
              <LongitudeDegrees>-4.1228125803172588348388671875</LongitudeDegrees>
            </Position>
            <AltitudeMeters>141.8000030517578125</AltitudeMeters>
            <DistanceMeters>NAN</DistanceMeters>
          </Trackpoint>
          <Trackpoint>
            <Time>2022-07-14T14:38:44.000Z</Time>
            <Position>
              <LatitudeDegrees>43.37806745432317256927490234375</LatitudeDegrees>
              <LongitudeDegrees>-4.12283613346517086029052734375</LongitudeDegrees>
            </Position>
            <AltitudeMeters>142</AltitudeMeters>
            <DistanceMeters>NAN</DistanceMeters>
          </Trackpoint>
          <Trackpoint>
            <Time>2022-07-14T14:38:50.000Z</Time>
            <Position>
              <LatitudeDegrees>43.37808723561465740203857421875</LatitudeDegrees>
              <LongitudeDegrees>-4.12297477014362812042236328125</LongitudeDegrees>
            </Position>
            <AltitudeMeters>142.8000030517578125</AltitudeMeters>
            <DistanceMeters>NAN</DistanceMeters>
          </Trackpoint>
          <Trackpoint>
            <Time>2022-07-14T14:38:51.000Z</Time>
            <Position>
              <LatitudeDegrees>43.37809293530881404876708984375</LatitudeDegrees>
              <LongitudeDegrees>-4.12299689836800098419189453125</LongitudeDegrees>
            </Position>
            <AltitudeMeters>143</AltitudeMeters>
            <DistanceMeters>NAN</DistanceMeters>
          </Trackpoint>
          <Trackpoint>
            <Time>2022-07-14T14:38:57.000Z</Time>
            <Position>
              <LatitudeDegrees>43.378128893673419952392578125</LatitudeDegrees>
              <LongitudeDegrees>-4.123126566410064697265625</LongitudeDegrees>
            </Position>
            <AltitudeMeters>143.8000030517578125</AltitudeMeters>
            <DistanceMeters>NAN</DistanceMeters>
          </Trackpoint>
          <Trackpoint>
            <Time>2022-07-14T14:38:58.000Z</Time>
            <Position>
              <LatitudeDegrees>43.3781340904533863067626953125</LatitudeDegrees>
              <LongitudeDegrees>-4.12314810790121555328369140625</LongitudeDegrees>
            </Position>
            <AltitudeMeters>144</AltitudeMeters>
            <DistanceMeters>NAN</DistanceMeters>
          </Trackpoint>
          <Trackpoint>
            <Time>2022-07-14T14:39:05.000Z</Time>
            <Position>
              <LatitudeDegrees>43.378151692450046539306640625</LatitudeDegrees>
              <LongitudeDegrees>-4.1233057714998722076416015625</LongitudeDegrees>
            </Position>
            <AltitudeMeters>144.600006103515625</AltitudeMeters>
            <DistanceMeters>NAN</DistanceMeters>
          </Trackpoint>
          <Trackpoint>
            <Time>2022-07-14T14:39:09.000Z</Time>
            <Position>
              <LatitudeDegrees>43.378153704106807708740234375</LatitudeDegrees>
              <LongitudeDegrees>-4.1233934462070465087890625</LongitudeDegrees>
            </Position>
            <AltitudeMeters>145</AltitudeMeters>
            <DistanceMeters>NAN</DistanceMeters>
          </Trackpoint>
          <Trackpoint>
            <Time>2022-07-14T14:39:13.000Z</Time>
            <Position>
              <LatitudeDegrees>43.37814222089946269989013671875</LatitudeDegrees>
              <LongitudeDegrees>-4.12345589138567447662353515625</LongitudeDegrees>
            </Position>
            <AltitudeMeters>145.399993896484375</AltitudeMeters>
            <DistanceMeters>NAN</DistanceMeters>
          </Trackpoint>
          <Trackpoint>
            <Time>2022-07-14T14:39:21.000Z</Time>
            <Position>
              <LatitudeDegrees>43.37802085094153881072998046875</LatitudeDegrees>
              <LongitudeDegrees>-4.12357592023909091949462890625</LongitudeDegrees>
            </Position>
            <AltitudeMeters>145.8000030517578125</AltitudeMeters>
            <DistanceMeters>NAN</DistanceMeters>
          </Trackpoint>
          <Trackpoint>
            <Time>2022-07-14T14:39:24.000Z</Time>
            <Position>
              <LatitudeDegrees>43.37798363529145717620849609375</LatitudeDegrees>
              <LongitudeDegrees>-4.1236085258424282073974609375</LongitudeDegrees>
            </Position>
            <AltitudeMeters>146</AltitudeMeters>
            <DistanceMeters>NAN</DistanceMeters>
          </Trackpoint>
          <Trackpoint>
            <Time>2022-07-14T14:39:28.000Z</Time>
            <Position>
              <LatitudeDegrees>43.37793535552918910980224609375</LatitudeDegrees>
              <LongitudeDegrees>-4.12363425828516483306884765625</LongitudeDegrees>
            </Position>
            <AltitudeMeters>146.600006103515625</AltitudeMeters>
            <DistanceMeters>NAN</DistanceMeters>
          </Trackpoint>
          <Trackpoint>
            <Time>2022-07-14T14:39:31.000Z</Time>
            <Position>
              <LatitudeDegrees>43.37792026810348033905029296875</LatitudeDegrees>
              <LongitudeDegrees>-4.1236383654177188873291015625</LongitudeDegrees>
            </Position>
            <AltitudeMeters>146.8000030517578125</AltitudeMeters>
            <DistanceMeters>NAN</DistanceMeters>
          </Trackpoint>
          <Trackpoint>
            <Time>2022-07-14T14:39:40.000Z</Time>
            <Position>
              <LatitudeDegrees>43.37794415652751922607421875</LatitudeDegrees>
              <LongitudeDegrees>-4.12357541732490062713623046875</LongitudeDegrees>
            </Position>
            <AltitudeMeters>146.600006103515625</AltitudeMeters>
            <DistanceMeters>NAN</DistanceMeters>
          </Trackpoint>
          <Trackpoint>
            <Time>2022-07-14T14:39:41.000Z</Time>
            <Position>
              <LatitudeDegrees>43.37794088758528232574462890625</LatitudeDegrees>
              <LongitudeDegrees>-4.12355798296630382537841796875</LongitudeDegrees>
            </Position>
            <AltitudeMeters>146.600006103515625</AltitudeMeters>
            <DistanceMeters>NAN</DistanceMeters>
          </Trackpoint>
          <Trackpoint>
            <Time>2022-07-14T14:39:42.000Z</Time>
            <Position>
              <LatitudeDegrees>43.377936445176601409912109375</LatitudeDegrees>
              <LongitudeDegrees>-4.12354700267314910888671875</LongitudeDegrees>
            </Position>
            <AltitudeMeters>146.600006103515625</AltitudeMeters>
            <DistanceMeters>NAN</DistanceMeters>
          </Trackpoint>
          <Trackpoint>
            <Time>2022-07-14T14:39:45.000Z</Time>
            <Position>
              <LatitudeDegrees>43.37793351151049137115478515625</LatitudeDegrees>
              <LongitudeDegrees>-4.1235441528260707855224609375</LongitudeDegrees>
            </Position>
            <AltitudeMeters>146.600006103515625</AltitudeMeters>
            <DistanceMeters>NAN</DistanceMeters>
          </Trackpoint>
          <Trackpoint>
            <Time>2022-07-14T14:42:56.000Z</Time>
            <Position>
              <LatitudeDegrees>43.37797768414020538330078125</LatitudeDegrees>
              <LongitudeDegrees>-4.12355127744376659393310546875</LongitudeDegrees>
            </Position>
            <AltitudeMeters>149</AltitudeMeters>
            <DistanceMeters>NAN</DistanceMeters>
          </Trackpoint>
          <Trackpoint>
            <Time>2022-07-14T14:42:57.000Z</Time>
            <Position>
              <LatitudeDegrees>43.3779862336814403533935546875</LatitudeDegrees>
              <LongitudeDegrees>-4.12353753112256526947021484375</LongitudeDegrees>
            </Position>
            <AltitudeMeters>149</AltitudeMeters>
            <DistanceMeters>NAN</DistanceMeters>
          </Trackpoint>
          <Trackpoint>
            <Time>2022-07-14T14:42:58.000Z</Time>
            <Position>
              <LatitudeDegrees>43.37800048291683197021484375</LatitudeDegrees>
              <LongitudeDegrees>-4.123529233038425445556640625</LongitudeDegrees>
            </Position>
            <AltitudeMeters>149</AltitudeMeters>
            <DistanceMeters>NAN</DistanceMeters>
          </Trackpoint>
          <Trackpoint>
            <Time>2022-07-14T14:43:01.000Z</Time>
            <Position>
              <LatitudeDegrees>43.3779959566891193389892578125</LatitudeDegrees>
              <LongitudeDegrees>-4.123562090098857879638671875</LongitudeDegrees>
            </Position>
            <AltitudeMeters>148.8000030517578125</AltitudeMeters>
            <DistanceMeters>NAN</DistanceMeters>
          </Trackpoint>
          <Trackpoint>
            <Time>2022-07-14T14:43:05.000Z</Time>
            <Position>
              <LatitudeDegrees>43.3779936097562313079833984375</LatitudeDegrees>
              <LongitudeDegrees>-4.12358212284743785858154296875</LongitudeDegrees>
            </Position>
            <AltitudeMeters>149</AltitudeMeters>
            <DistanceMeters>NAN</DistanceMeters>
          </Trackpoint>
          <Trackpoint>
            <Time>2022-07-14T14:43:38.000Z</Time>
            <Position>
              <LatitudeDegrees>43.37797290645539760589599609375</LatitudeDegrees>
              <LongitudeDegrees>-4.12357223220169544219970703125</LongitudeDegrees>
            </Position>
            <AltitudeMeters>149.600006103515625</AltitudeMeters>
            <DistanceMeters>NAN</DistanceMeters>
          </Trackpoint>
          <Trackpoint>
            <Time>2022-07-14T14:43:39.000Z</Time>
            <Position>
              <LatitudeDegrees>43.3779676258563995361328125</LatitudeDegrees>
              <LongitudeDegrees>-4.12352965213358402252197265625</LongitudeDegrees>
            </Position>
            <AltitudeMeters>149.600006103515625</AltitudeMeters>
            <DistanceMeters>NAN</DistanceMeters>
          </Trackpoint>
          <Trackpoint>
            <Time>2022-07-14T14:43:41.000Z</Time>
            <Position>
              <LatitudeDegrees>43.3779386244714260101318359375</LatitudeDegrees>
              <LongitudeDegrees>-4.12352931685745716094970703125</LongitudeDegrees>
            </Position>
            <AltitudeMeters>149.399993896484375</AltitudeMeters>
            <DistanceMeters>NAN</DistanceMeters>
          </Trackpoint>
          <Trackpoint>
            <Time>2022-07-14T14:43:43.000Z</Time>
            <Position>
              <LatitudeDegrees>43.37786058895289897918701171875</LatitudeDegrees>
              <LongitudeDegrees>-4.123529233038425445556640625</LongitudeDegrees>
            </Position>
            <AltitudeMeters>149.399993896484375</AltitudeMeters>
            <DistanceMeters>NAN</DistanceMeters>
          </Trackpoint>
          <Trackpoint>
            <Time>2022-07-14T14:43:45.000Z</Time>
            <Position>
              <LatitudeDegrees>43.37785673327744007110595703125</LatitudeDegrees>
              <LongitudeDegrees>-4.123523533344268798828125</LongitudeDegrees>
            </Position>
            <AltitudeMeters>149.399993896484375</AltitudeMeters>
            <DistanceMeters>NAN</DistanceMeters>
          </Trackpoint>
          <Trackpoint>
            <Time>2022-07-14T14:43:48.000Z</Time>
            <Position>
              <LatitudeDegrees>43.3778782747685909271240234375</LatitudeDegrees>
              <LongitudeDegrees>-4.12351137958467006683349609375</LongitudeDegrees>
            </Position>
            <AltitudeMeters>149.600006103515625</AltitudeMeters>
            <DistanceMeters>NAN</DistanceMeters>
          </Trackpoint>
          <Trackpoint>
            <Time>2022-07-14T14:43:51.000Z</Time>
            <Position>
              <LatitudeDegrees>43.37794273160398006439208984375</LatitudeDegrees>
              <LongitudeDegrees>-4.123534597456455230712890625</LongitudeDegrees>
            </Position>
            <AltitudeMeters>149.600006103515625</AltitudeMeters>
            <DistanceMeters>NAN</DistanceMeters>
          </Trackpoint>
          <Trackpoint>
            <Time>2022-07-14T14:43:55.000Z</Time>
            <Position>
              <LatitudeDegrees>43.37796318344771862030029296875</LatitudeDegrees>
              <LongitudeDegrees>-4.1236625052988529205322265625</LongitudeDegrees>
            </Position>
            <AltitudeMeters>149.600006103515625</AltitudeMeters>
            <DistanceMeters>NAN</DistanceMeters>
          </Trackpoint>
          <Trackpoint>
            <Time>2022-07-14T14:44:00.000Z</Time>
            <Position>
              <LatitudeDegrees>43.3779637701809406280517578125</LatitudeDegrees>
              <LongitudeDegrees>-4.1237245313823223114013671875</LongitudeDegrees>
            </Position>
            <AltitudeMeters>150</AltitudeMeters>
            <DistanceMeters>NAN</DistanceMeters>
          </Trackpoint>
          <Trackpoint>
            <Time>2022-07-14T14:44:03.000Z</Time>
            <Position>
              <LatitudeDegrees>43.377957232296466827392578125</LatitudeDegrees>
              <LongitudeDegrees>-4.12375395186245441436767578125</LongitudeDegrees>
            </Position>
            <AltitudeMeters>150.1999969482421875</AltitudeMeters>
            <DistanceMeters>NAN</DistanceMeters>
          </Trackpoint>
          <Trackpoint>
            <Time>2022-07-14T14:44:05.000Z</Time>
            <Position>
              <LatitudeDegrees>43.377968631684780120849609375</LatitudeDegrees>
              <LongitudeDegrees>-4.12377406843006610870361328125</LongitudeDegrees>
            </Position>
            <AltitudeMeters>150.399993896484375</AltitudeMeters>
            <DistanceMeters>NAN</DistanceMeters>
          </Trackpoint>
          <Trackpoint>
            <Time>2022-07-14T14:44:07.000Z</Time>
            <Position>
              <LatitudeDegrees>43.377990424633026123046875</LatitudeDegrees>
              <LongitudeDegrees>-4.12378144450485706329345703125</LongitudeDegrees>
            </Position>
            <AltitudeMeters>150.399993896484375</AltitudeMeters>
            <DistanceMeters>NAN</DistanceMeters>
          </Trackpoint>
          <Trackpoint>
            <Time>2022-07-14T14:44:10.000Z</Time>
            <Position>
              <LatitudeDegrees>43.3780050091445446014404296875</LatitudeDegrees>
              <LongitudeDegrees>-4.12379368208348751068115234375</LongitudeDegrees>
            </Position>
            <AltitudeMeters>150.399993896484375</AltitudeMeters>
            <DistanceMeters>NAN</DistanceMeters>
          </Trackpoint>
          <Trackpoint>
            <Time>2022-07-14T14:44:13.000Z</Time>
            <Position>
              <LatitudeDegrees>43.378024287521839141845703125</LatitudeDegrees>
              <LongitudeDegrees>-4.12378437817096710205078125</LongitudeDegrees>
            </Position>
            <AltitudeMeters>150.1999969482421875</AltitudeMeters>
            <DistanceMeters>NAN</DistanceMeters>
          </Trackpoint>
          <Trackpoint>
            <Time>2022-07-14T14:45:37.000Z</Time>
            <Position>
              <LatitudeDegrees>43.3779542148113250732421875</LatitudeDegrees>
              <LongitudeDegrees>-4.123822934925556182861328125</LongitudeDegrees>
            </Position>
            <AltitudeMeters>149.8000030517578125</AltitudeMeters>
            <DistanceMeters>NAN</DistanceMeters>
          </Trackpoint>
          <Trackpoint>
            <Time>2022-07-14T14:45:40.000Z</Time>
            <Position>
              <LatitudeDegrees>43.37799704633653163909912109375</LatitudeDegrees>
              <LongitudeDegrees>-4.12380851805210113525390625</LongitudeDegrees>
            </Position>
            <AltitudeMeters>149.8000030517578125</AltitudeMeters>
            <DistanceMeters>NAN</DistanceMeters>
          </Trackpoint>
          <Trackpoint>
            <Time>2022-07-14T14:45:42.000Z</Time>
            <Position>
              <LatitudeDegrees>43.37802051566541194915771484375</LatitudeDegrees>
              <LongitudeDegrees>-4.12379686720669269561767578125</LongitudeDegrees>
            </Position>
            <AltitudeMeters>149.600006103515625</AltitudeMeters>
            <DistanceMeters>NAN</DistanceMeters>
          </Trackpoint>
          <Trackpoint>
            <Time>2022-07-14T14:45:44.000Z</Time>
            <Position>
              <LatitudeDegrees>43.37803392671048641204833984375</LatitudeDegrees>
              <LongitudeDegrees>-4.123780690133571624755859375</LongitudeDegrees>
            </Position>
            <AltitudeMeters>149.600006103515625</AltitudeMeters>
            <DistanceMeters>NAN</DistanceMeters>
          </Trackpoint>
          <Trackpoint>
            <Time>2022-07-14T14:45:46.000Z</Time>
            <Position>
              <LatitudeDegrees>43.3780264668166637420654296875</LatitudeDegrees>
              <LongitudeDegrees>-4.12378362379968166351318359375</LongitudeDegrees>
            </Position>
            <AltitudeMeters>149.399993896484375</AltitudeMeters>
            <DistanceMeters>NAN</DistanceMeters>
          </Trackpoint>
          <Trackpoint>
            <Time>2022-07-14T14:47:19.000Z</Time>
            <Position>
              <LatitudeDegrees>43.3778041787445545196533203125</LatitudeDegrees>
              <LongitudeDegrees>-4.1235458292067050933837890625</LongitudeDegrees>
            </Position>
            <AltitudeMeters>149.1999969482421875</AltitudeMeters>
            <DistanceMeters>NAN</DistanceMeters>
          </Trackpoint>
          <Trackpoint>
            <Time>2022-07-14T14:47:22.000Z</Time>
            <Position>
              <LatitudeDegrees>43.3777944557368755340576171875</LatitudeDegrees>
              <LongitudeDegrees>-4.12348841316998004913330078125</LongitudeDegrees>
            </Position>
            <AltitudeMeters>149.399993896484375</AltitudeMeters>
            <DistanceMeters>NAN</DistanceMeters>
          </Trackpoint>
          <Trackpoint>
            <Time>2022-07-14T14:47:25.000Z</Time>
            <Position>
              <LatitudeDegrees>43.377786912024021148681640625</LatitudeDegrees>
              <LongitudeDegrees>-4.123436696827411651611328125</LongitudeDegrees>
            </Position>
            <AltitudeMeters>149.600006103515625</AltitudeMeters>
            <DistanceMeters>NAN</DistanceMeters>
          </Trackpoint>
          <Trackpoint>
            <Time>2022-07-14T14:47:30.000Z</Time>
            <Position>
              <LatitudeDegrees>43.37777785956859588623046875</LatitudeDegrees>
              <LongitudeDegrees>-4.1233751736581325531005859375</LongitudeDegrees>
            </Position>
            <AltitudeMeters>149.8000030517578125</AltitudeMeters>
            <DistanceMeters>NAN</DistanceMeters>
          </Trackpoint>
          <Trackpoint>
            <Time>2022-07-14T14:47:36.000Z</Time>
            <Position>
              <LatitudeDegrees>43.377781547605991363525390625</LatitudeDegrees>
              <LongitudeDegrees>-4.1232759319245815277099609375</LongitudeDegrees>
            </Position>
            <AltitudeMeters>149.8000030517578125</AltitudeMeters>
            <DistanceMeters>NAN</DistanceMeters>
          </Trackpoint>
          <Trackpoint>
            <Time>2022-07-14T14:47:37.000Z</Time>
            <Position>
              <LatitudeDegrees>43.37778531946241855621337890625</LatitudeDegrees>
              <LongitudeDegrees>-4.12325975485146045684814453125</LongitudeDegrees>
            </Position>
            <AltitudeMeters>149.8000030517578125</AltitudeMeters>
            <DistanceMeters>NAN</DistanceMeters>
          </Trackpoint>
          <Trackpoint>
            <Time>2022-07-14T14:47:38.000Z</Time>
            <Position>
              <LatitudeDegrees>43.37778213433921337127685546875</LatitudeDegrees>
              <LongitudeDegrees>-4.12324617616832256317138671875</LongitudeDegrees>
            </Position>
            <AltitudeMeters>149.8000030517578125</AltitudeMeters>
            <DistanceMeters>NAN</DistanceMeters>
          </Trackpoint>
          <Trackpoint>
            <Time>2022-07-14T14:47:42.000Z</Time>
            <Position>
              <LatitudeDegrees>43.37774625979363918304443359375</LatitudeDegrees>
              <LongitudeDegrees>-4.12318683229386806488037109375</LongitudeDegrees>
            </Position>
            <AltitudeMeters>149.8000030517578125</AltitudeMeters>
            <DistanceMeters>NAN</DistanceMeters>
          </Trackpoint>
          <Trackpoint>
            <Time>2022-07-14T14:47:50.000Z</Time>
            <Position>
              <LatitudeDegrees>43.37770904414355754852294921875</LatitudeDegrees>
              <LongitudeDegrees>-4.12306261248886585235595703125</LongitudeDegrees>
            </Position>
            <AltitudeMeters>150</AltitudeMeters>
            <DistanceMeters>NAN</DistanceMeters>
          </Trackpoint>
          <Trackpoint>
            <Time>2022-07-14T14:47:55.000Z</Time>
            <Position>
              <LatitudeDegrees>43.377716839313507080078125</LatitudeDegrees>
              <LongitudeDegrees>-4.12298717536032199859619140625</LongitudeDegrees>
            </Position>
            <AltitudeMeters>150.1999969482421875</AltitudeMeters>
            <DistanceMeters>NAN</DistanceMeters>
          </Trackpoint>
          <Trackpoint>
            <Time>2022-07-14T14:47:57.000Z</Time>
            <Position>
              <LatitudeDegrees>43.3777181804180145263671875</LatitudeDegrees>
              <LongitudeDegrees>-4.1229614429175853729248046875</LongitudeDegrees>
            </Position>
            <AltitudeMeters>150</AltitudeMeters>
            <DistanceMeters>NAN</DistanceMeters>
          </Trackpoint>
          <Trackpoint>
            <Time>2022-07-14T14:48:05.000Z</Time>
            <Position>
              <LatitudeDegrees>43.37772798724472522735595703125</LatitudeDegrees>
              <LongitudeDegrees>-4.122837223112583160400390625</LongitudeDegrees>
            </Position>
            <AltitudeMeters>149.8000030517578125</AltitudeMeters>
            <DistanceMeters>NAN</DistanceMeters>
          </Trackpoint>
          <Trackpoint>
            <Time>2022-07-14T14:48:06.000Z</Time>
            <Position>
              <LatitudeDegrees>43.3777327649295330047607421875</LatitudeDegrees>
              <LongitudeDegrees>-4.12281853146851062774658203125</LongitudeDegrees>
            </Position>
            <AltitudeMeters>149.8000030517578125</AltitudeMeters>
            <DistanceMeters>NAN</DistanceMeters>
          </Trackpoint>
          <Trackpoint>
            <Time>2022-07-14T14:48:11.000Z</Time>
            <Position>
              <LatitudeDegrees>43.37775011546909809112548828125</LatitudeDegrees>
              <LongitudeDegrees>-4.122742004692554473876953125</LongitudeDegrees>
            </Position>
            <AltitudeMeters>149.399993896484375</AltitudeMeters>
            <DistanceMeters>NAN</DistanceMeters>
          </Trackpoint>
          <Trackpoint>
            <Time>2022-07-14T14:48:14.000Z</Time>
            <Position>
              <LatitudeDegrees>43.37774441577494144439697265625</LatitudeDegrees>
              <LongitudeDegrees>-4.12269674241542816162109375</LongitudeDegrees>
            </Position>
            <AltitudeMeters>149.399993896484375</AltitudeMeters>
            <DistanceMeters>NAN</DistanceMeters>
          </Trackpoint>
          <Trackpoint>
            <Time>2022-07-14T14:48:21.000Z</Time>
            <Position>
              <LatitudeDegrees>43.3777458406984806060791015625</LatitudeDegrees>
              <LongitudeDegrees>-4.1225822456181049346923828125</LongitudeDegrees>
            </Position>
            <AltitudeMeters>149</AltitudeMeters>
            <DistanceMeters>NAN</DistanceMeters>
          </Trackpoint>
          <Trackpoint>
            <Time>2022-07-14T14:48:22.000Z</Time>
            <Position>
              <LatitudeDegrees>43.37774458341300487518310546875</LatitudeDegrees>
              <LongitudeDegrees>-4.1225674934685230255126953125</LongitudeDegrees>
            </Position>
            <AltitudeMeters>148.8000030517578125</AltitudeMeters>
            <DistanceMeters>NAN</DistanceMeters>
          </Trackpoint>
          <Trackpoint>
            <Time>2022-07-14T14:48:28.000Z</Time>
            <Position>
              <LatitudeDegrees>43.3777297474443912506103515625</LatitudeDegrees>
              <LongitudeDegrees>-4.1224766336381435394287109375</LongitudeDegrees>
            </Position>
            <AltitudeMeters>148.600006103515625</AltitudeMeters>
            <DistanceMeters>NAN</DistanceMeters>
          </Trackpoint>
          <Trackpoint>
            <Time>2022-07-14T14:48:30.000Z</Time>
            <Position>
              <LatitudeDegrees>43.3777056075632572174072265625</LatitudeDegrees>
              <LongitudeDegrees>-4.12245710380375385284423828125</LongitudeDegrees>
            </Position>
            <AltitudeMeters>148.8000030517578125</AltitudeMeters>
            <DistanceMeters>NAN</DistanceMeters>
          </Trackpoint>
          <Trackpoint>
            <Time>2022-07-14T14:48:37.000Z</Time>
            <Position>
              <LatitudeDegrees>43.37763109244406223297119140625</LatitudeDegrees>
              <LongitudeDegrees>-4.122416786849498748779296875</LongitudeDegrees>
            </Position>
            <AltitudeMeters>149.600006103515625</AltitudeMeters>
            <DistanceMeters>NAN</DistanceMeters>
          </Trackpoint>
          <Trackpoint>
            <Time>2022-07-14T15:32:28.000Z</Time>
            <Position>
              <LatitudeDegrees>43.37747300975024700164794921875</LatitudeDegrees>
              <LongitudeDegrees>-4.12327048368752002716064453125</LongitudeDegrees>
            </Position>
            <AltitudeMeters>167.600006103515625</AltitudeMeters>
            <DistanceMeters>NAN</DistanceMeters>
          </Trackpoint>
          <Trackpoint>
            <Time>2022-07-14T15:32:30.000Z</Time>
            <Position>
              <LatitudeDegrees>43.377532102167606353759765625</LatitudeDegrees>
              <LongitudeDegrees>-4.12330719642341136932373046875</LongitudeDegrees>
            </Position>
            <AltitudeMeters>167.600006103515625</AltitudeMeters>
            <DistanceMeters>NAN</DistanceMeters>
          </Trackpoint>
          <Trackpoint>
            <Time>2022-07-14T15:32:33.000Z</Time>
            <Position>
              <LatitudeDegrees>43.37753235362470149993896484375</LatitudeDegrees>
              <LongitudeDegrees>-4.12323863245546817779541015625</LongitudeDegrees>
            </Position>
            <AltitudeMeters>167.600006103515625</AltitudeMeters>
            <DistanceMeters>NAN</DistanceMeters>
          </Trackpoint>
          <Trackpoint>
            <Time>2022-07-14T15:32:41.000Z</Time>
            <Position>
              <LatitudeDegrees>43.37765506468713283538818359375</LatitudeDegrees>
              <LongitudeDegrees>-4.1231815516948699951171875</LongitudeDegrees>
            </Position>
            <AltitudeMeters>167.600006103515625</AltitudeMeters>
            <DistanceMeters>NAN</DistanceMeters>
          </Trackpoint>
          <Trackpoint>
            <Time>2022-07-14T15:32:44.000Z</Time>
            <Position>
              <LatitudeDegrees>43.37768054567277431488037109375</LatitudeDegrees>
              <LongitudeDegrees>-4.12320376373827457427978515625</LongitudeDegrees>
            </Position>
            <AltitudeMeters>167.600006103515625</AltitudeMeters>
            <DistanceMeters>NAN</DistanceMeters>
          </Trackpoint>
          <Trackpoint>
            <Time>2022-07-14T15:32:46.000Z</Time>
            <Position>
              <LatitudeDegrees>43.37768674828112125396728515625</LatitudeDegrees>
              <LongitudeDegrees>-4.12321566604077816009521484375</LongitudeDegrees>
            </Position>
            <AltitudeMeters>167.399993896484375</AltitudeMeters>
            <DistanceMeters>NAN</DistanceMeters>
          </Trackpoint>
          <Trackpoint>
            <Time>2022-07-14T15:32:47.000Z</Time>
            <Position>
              <LatitudeDegrees>43.37768540717661380767822265625</LatitudeDegrees>
              <LongitudeDegrees>-4.1232159174978733062744140625</LongitudeDegrees>
            </Position>
            <AltitudeMeters>167.399993896484375</AltitudeMeters>
            <DistanceMeters>NAN</DistanceMeters>
          </Trackpoint>
          <Trackpoint>
            <Time>2022-07-14T15:32:49.000Z</Time>
            <Position>
              <LatitudeDegrees>43.37767803110182285308837890625</LatitudeDegrees>
              <LongitudeDegrees>-4.1232202760875225067138671875</LongitudeDegrees>
            </Position>
            <AltitudeMeters>167.1999969482421875</AltitudeMeters>
            <DistanceMeters>NAN</DistanceMeters>
          </Trackpoint>
          <Trackpoint>
            <Time>2022-07-14T15:34:23.000Z</Time>
            <Position>
              <LatitudeDegrees>43.37797173298895359039306640625</LatitudeDegrees>
              <LongitudeDegrees>-4.12373182363808155059814453125</LongitudeDegrees>
            </Position>
            <AltitudeMeters>162.600006103515625</AltitudeMeters>
            <DistanceMeters>NAN</DistanceMeters>
          </Trackpoint>
          <Trackpoint>
            <Time>2022-07-14T15:34:24.000Z</Time>
            <Position>
              <LatitudeDegrees>43.37798765860497951507568359375</LatitudeDegrees>
              <LongitudeDegrees>-4.123729728162288665771484375</LongitudeDegrees>
            </Position>
            <AltitudeMeters>162.399993896484375</AltitudeMeters>
            <DistanceMeters>NAN</DistanceMeters>
          </Trackpoint>
          <Trackpoint>
            <Time>2022-07-14T15:34:31.000Z</Time>
            <Position>
              <LatitudeDegrees>43.37806217372417449951171875</LatitudeDegrees>
              <LongitudeDegrees>-4.12372528575360774993896484375</LongitudeDegrees>
            </Position>
            <AltitudeMeters>161.600006103515625</AltitudeMeters>
            <DistanceMeters>NAN</DistanceMeters>
          </Trackpoint>
          <Trackpoint>
            <Time>2022-07-14T15:34:32.000Z</Time>
            <Position>
              <LatitudeDegrees>43.3780640177428722381591796875</LatitudeDegrees>
              <LongitudeDegrees>-4.12372880615293979644775390625</LongitudeDegrees>
            </Position>
            <AltitudeMeters>161.399993896484375</AltitudeMeters>
            <DistanceMeters>NAN</DistanceMeters>
          </Trackpoint>
          <Trackpoint>
            <Time>2022-07-14T15:42:07.000Z</Time>
            <Position>
              <LatitudeDegrees>43.37806208990514278411865234375</LatitudeDegrees>
              <LongitudeDegrees>-4.12371908314526081085205078125</LongitudeDegrees>
            </Position>
            <AltitudeMeters>159.399993896484375</AltitudeMeters>
            <DistanceMeters>NAN</DistanceMeters>
          </Trackpoint>
          <Trackpoint>
            <Time>2022-07-14T15:42:09.000Z</Time>
            <Position>
              <LatitudeDegrees>43.378078602254390716552734375</LatitudeDegrees>
              <LongitudeDegrees>-4.12365906871855258941650390625</LongitudeDegrees>
            </Position>
            <AltitudeMeters>159.399993896484375</AltitudeMeters>
            <DistanceMeters>NAN</DistanceMeters>
          </Trackpoint>
          <Trackpoint>
            <Time>2022-07-14T15:42:10.000Z</Time>
            <Position>
              <LatitudeDegrees>43.37808631360530853271484375</LatitudeDegrees>
              <LongitudeDegrees>-4.1236262954771518707275390625</LongitudeDegrees>
            </Position>
            <AltitudeMeters>158.1999969482421875</AltitudeMeters>
            <DistanceMeters>NAN</DistanceMeters>
          </Trackpoint>
          <Trackpoint>
            <Time>2022-07-14T15:42:12.000Z</Time>
            <Position>
              <LatitudeDegrees>43.3780915103852748870849609375</LatitudeDegrees>
              <LongitudeDegrees>-4.12355639040470123291015625</LongitudeDegrees>
            </Position>
            <AltitudeMeters>157</AltitudeMeters>
            <DistanceMeters>NAN</DistanceMeters>
          </Trackpoint>
          <Trackpoint>
            <Time>2022-07-14T15:42:15.000Z</Time>
            <Position>
              <LatitudeDegrees>43.37805303744971752166748046875</LatitudeDegrees>
              <LongitudeDegrees>-4.12344901822507381439208984375</LongitudeDegrees>
            </Position>
            <AltitudeMeters>156.1999969482421875</AltitudeMeters>
            <DistanceMeters>NAN</DistanceMeters>
          </Trackpoint>
          <Trackpoint>
            <Time>2022-07-14T15:42:17.000Z</Time>
            <Position>
              <LatitudeDegrees>43.37803409434854984283447265625</LatitudeDegrees>
              <LongitudeDegrees>-4.1233523748815059661865234375</LongitudeDegrees>
            </Position>
            <AltitudeMeters>155.8000030517578125</AltitudeMeters>
            <DistanceMeters>NAN</DistanceMeters>
          </Trackpoint>
          <Trackpoint>
            <Time>2022-07-14T15:42:18.000Z</Time>
            <Position>
              <LatitudeDegrees>43.37802940048277378082275390625</LatitudeDegrees>
              <LongitudeDegrees>-4.12329110316932201385498046875</LongitudeDegrees>
            </Position>
            <AltitudeMeters>155.600006103515625</AltitudeMeters>
            <DistanceMeters>NAN</DistanceMeters>
          </Trackpoint>
          <Trackpoint>
            <Time>2022-07-14T15:42:19.000Z</Time>
            <Position>
              <LatitudeDegrees>43.3780293166637420654296875</LatitudeDegrees>
              <LongitudeDegrees>-4.1232236288487911224365234375</LongitudeDegrees>
            </Position>
            <AltitudeMeters>155.399993896484375</AltitudeMeters>
            <DistanceMeters>NAN</DistanceMeters>
          </Trackpoint>
          <Trackpoint>
            <Time>2022-07-14T15:42:21.000Z</Time>
            <Position>
              <LatitudeDegrees>43.3780264668166637420654296875</LatitudeDegrees>
              <LongitudeDegrees>-4.12308163940906524658203125</LongitudeDegrees>
            </Position>
            <AltitudeMeters>154.8000030517578125</AltitudeMeters>
            <DistanceMeters>NAN</DistanceMeters>
          </Trackpoint>
          <Trackpoint>
            <Time>2022-07-14T15:42:22.000Z</Time>
            <Position>
              <LatitudeDegrees>43.3780147321522235870361328125</LatitudeDegrees>
              <LongitudeDegrees>-4.12302036769688129425048828125</LongitudeDegrees>
            </Position>
            <AltitudeMeters>154.399993896484375</AltitudeMeters>
            <DistanceMeters>NAN</DistanceMeters>
          </Trackpoint>
          <Trackpoint>
            <Time>2022-07-14T15:42:23.000Z</Time>
            <Position>
              <LatitudeDegrees>43.3780066855251789093017578125</LatitudeDegrees>
              <LongitudeDegrees>-4.12298248149454593658447265625</LongitudeDegrees>
            </Position>
            <AltitudeMeters>153.8000030517578125</AltitudeMeters>
            <DistanceMeters>NAN</DistanceMeters>
          </Trackpoint>
          <Trackpoint>
            <Time>2022-07-14T15:42:24.000Z</Time>
            <Position>
              <LatitudeDegrees>43.378006517887115478515625</LatitudeDegrees>
              <LongitudeDegrees>-4.1229721717536449432373046875</LongitudeDegrees>
            </Position>
            <AltitudeMeters>153.1999969482421875</AltitudeMeters>
            <DistanceMeters>NAN</DistanceMeters>
          </Trackpoint>
          <Trackpoint>
            <Time>2022-07-14T15:42:25.000Z</Time>
            <Position>
              <LatitudeDegrees>43.3780051767826080322265625</LatitudeDegrees>
              <LongitudeDegrees>-4.1229664720594882965087890625</LongitudeDegrees>
            </Position>
            <AltitudeMeters>152.600006103515625</AltitudeMeters>
            <DistanceMeters>NAN</DistanceMeters>
          </Trackpoint>
          <Trackpoint>
            <Time>2022-07-14T15:42:26.000Z</Time>
            <Position>
              <LatitudeDegrees>43.378000147640705108642578125</LatitudeDegrees>
              <LongitudeDegrees>-4.1229651309549808502197265625</LongitudeDegrees>
            </Position>
            <AltitudeMeters>152.399993896484375</AltitudeMeters>
            <DistanceMeters>NAN</DistanceMeters>
          </Trackpoint>
          <Trackpoint>
            <Time>2022-07-14T15:43:05.000Z</Time>
            <Position>
              <LatitudeDegrees>43.378015570342540740966796875</LatitudeDegrees>
              <LongitudeDegrees>-4.12292783148586750030517578125</LongitudeDegrees>
            </Position>
            <AltitudeMeters>150.8000030517578125</AltitudeMeters>
            <DistanceMeters>NAN</DistanceMeters>
          </Trackpoint>
          <Trackpoint>
            <Time>2022-07-14T15:43:07.000Z</Time>
            <Position>
              <LatitudeDegrees>43.3780237846076488494873046875</LatitudeDegrees>
              <LongitudeDegrees>-4.1228380613029003143310546875</LongitudeDegrees>
            </Position>
            <AltitudeMeters>150.600006103515625</AltitudeMeters>
            <DistanceMeters>NAN</DistanceMeters>
          </Trackpoint>
          <Trackpoint>
            <Time>2022-07-14T15:43:11.000Z</Time>
            <Position>
              <LatitudeDegrees>43.3780677057802677154541015625</LatitudeDegrees>
              <LongitudeDegrees>-4.12259842269122600555419921875</LongitudeDegrees>
            </Position>
            <AltitudeMeters>149.600006103515625</AltitudeMeters>
            <DistanceMeters>NAN</DistanceMeters>
          </Trackpoint>
          <Trackpoint>
            <Time>2022-07-14T15:43:13.000Z</Time>
            <Position>
              <LatitudeDegrees>43.378094695508480072021484375</LatitudeDegrees>
              <LongitudeDegrees>-4.12244419567286968231201171875</LongitudeDegrees>
            </Position>
            <AltitudeMeters>149</AltitudeMeters>
            <DistanceMeters>NAN</DistanceMeters>
          </Trackpoint>
          <Trackpoint>
            <Time>2022-07-14T15:43:15.000Z</Time>
            <Position>
              <LatitudeDegrees>43.378124535083770751953125</LatitudeDegrees>
              <LongitudeDegrees>-4.12227203138172626495361328125</LongitudeDegrees>
            </Position>
            <AltitudeMeters>148.399993896484375</AltitudeMeters>
            <DistanceMeters>NAN</DistanceMeters>
          </Trackpoint>
          <Trackpoint>
            <Time>2022-07-14T15:43:19.000Z</Time>
            <Position>
              <LatitudeDegrees>43.37822117842733860015869140625</LatitudeDegrees>
              <LongitudeDegrees>-4.12190280854701995849609375</LongitudeDegrees>
            </Position>
            <AltitudeMeters>147</AltitudeMeters>
            <DistanceMeters>NAN</DistanceMeters>
          </Trackpoint>
          <Trackpoint>
            <Time>2022-07-14T15:43:21.000Z</Time>
            <Position>
              <LatitudeDegrees>43.37828203104436397552490234375</LatitudeDegrees>
              <LongitudeDegrees>-4.121718741953372955322265625</LongitudeDegrees>
            </Position>
            <AltitudeMeters>146.600006103515625</AltitudeMeters>
            <DistanceMeters>NAN</DistanceMeters>
          </Trackpoint>
          <Trackpoint>
            <Time>2022-07-14T15:43:24.000Z</Time>
            <Position>
              <LatitudeDegrees>43.37837423197925090789794921875</LatitudeDegrees>
              <LongitudeDegrees>-4.12146887741982936859130859375</LongitudeDegrees>
            </Position>
            <AltitudeMeters>146.1999969482421875</AltitudeMeters>
            <DistanceMeters>NAN</DistanceMeters>
          </Trackpoint>
          <Trackpoint>
            <Time>2022-07-14T15:43:25.000Z</Time>
            <Position>
              <LatitudeDegrees>43.37839837186038494110107421875</LatitudeDegrees>
              <LongitudeDegrees>-4.12138673476874828338623046875</LongitudeDegrees>
            </Position>
            <AltitudeMeters>146</AltitudeMeters>
            <DistanceMeters>NAN</DistanceMeters>
          </Trackpoint>
          <Trackpoint>
            <Time>2022-07-14T15:43:27.000Z</Time>
            <Position>
              <LatitudeDegrees>43.37843768298625946044921875</LatitudeDegrees>
              <LongitudeDegrees>-4.12122848443686962127685546875</LongitudeDegrees>
            </Position>
            <AltitudeMeters>145.8000030517578125</AltitudeMeters>
            <DistanceMeters>NAN</DistanceMeters>
          </Trackpoint>
          <Trackpoint>
            <Time>2022-07-14T15:43:29.000Z</Time>
            <Position>
              <LatitudeDegrees>43.3784759044647216796875</LatitudeDegrees>
              <LongitudeDegrees>-4.12108398042619228363037109375</LongitudeDegrees>
            </Position>
            <AltitudeMeters>145.600006103515625</AltitudeMeters>
            <DistanceMeters>NAN</DistanceMeters>
          </Trackpoint>
          <Trackpoint>
            <Time>2022-07-14T15:43:32.000Z</Time>
            <Position>
              <LatitudeDegrees>43.378510773181915283203125</LatitudeDegrees>
              <LongitudeDegrees>-4.12088583223521709442138671875</LongitudeDegrees>
            </Position>
            <AltitudeMeters>145.600006103515625</AltitudeMeters>
            <DistanceMeters>NAN</DistanceMeters>
          </Trackpoint>
          <Trackpoint>
            <Time>2022-07-14T15:43:37.000Z</Time>
            <Position>
              <LatitudeDegrees>43.378542624413967132568359375</LatitudeDegrees>
              <LongitudeDegrees>-4.12061777897179126739501953125</LongitudeDegrees>
            </Position>
            <AltitudeMeters>145.8000030517578125</AltitudeMeters>
            <DistanceMeters>NAN</DistanceMeters>
          </Trackpoint>
          <Trackpoint>
            <Time>2022-07-14T15:43:44.000Z</Time>
            <Position>
              <LatitudeDegrees>43.37856265716254711151123046875</LatitudeDegrees>
              <LongitudeDegrees>-4.12031837739050388336181640625</LongitudeDegrees>
            </Position>
            <AltitudeMeters>146</AltitudeMeters>
            <DistanceMeters>NAN</DistanceMeters>
          </Trackpoint>
          <Trackpoint>
            <Time>2022-07-14T15:43:53.000Z</Time>
            <Position>
              <LatitudeDegrees>43.37856718339025974273681640625</LatitudeDegrees>
              <LongitudeDegrees>-4.11999248899519443511962890625</LongitudeDegrees>
            </Position>
            <AltitudeMeters>146.399993896484375</AltitudeMeters>
            <DistanceMeters>NAN</DistanceMeters>
          </Trackpoint>
          <Trackpoint>
            <Time>2022-07-14T15:44:00.000Z</Time>
            <Position>
              <LatitudeDegrees>43.378543965518474578857421875</LatitudeDegrees>
              <LongitudeDegrees>-4.11973281763494014739990234375</LongitudeDegrees>
            </Position>
            <AltitudeMeters>146.600006103515625</AltitudeMeters>
            <DistanceMeters>NAN</DistanceMeters>
          </Trackpoint>
          <Trackpoint>
            <Time>2022-07-14T15:44:10.000Z</Time>
            <Position>
              <LatitudeDegrees>43.37848973460495471954345703125</LatitudeDegrees>
              <LongitudeDegrees>-4.11934054456651210784912109375</LongitudeDegrees>
            </Position>
            <AltitudeMeters>146.600006103515625</AltitudeMeters>
            <DistanceMeters>NAN</DistanceMeters>
          </Trackpoint>
          <Trackpoint>
            <Time>2022-07-14T15:44:20.000Z</Time>
            <Position>
              <LatitudeDegrees>43.37838764302432537078857421875</LatitudeDegrees>
              <LongitudeDegrees>-4.1189087927341461181640625</LongitudeDegrees>
            </Position>
            <AltitudeMeters>146.1999969482421875</AltitudeMeters>
            <DistanceMeters>NAN</DistanceMeters>
          </Trackpoint>
          <Trackpoint>
            <Time>2022-07-14T15:44:29.000Z</Time>
            <Position>
              <LatitudeDegrees>43.3782903291285037994384765625</LatitudeDegrees>
              <LongitudeDegrees>-4.11849581636488437652587890625</LongitudeDegrees>
            </Position>
            <AltitudeMeters>146</AltitudeMeters>
            <DistanceMeters>NAN</DistanceMeters>
          </Trackpoint>
          <Trackpoint>
            <Time>2022-07-14T15:44:40.000Z</Time>
            <Position>
              <LatitudeDegrees>43.37823115289211273193359375</LatitudeDegrees>
              <LongitudeDegrees>-4.11799793131649494171142578125</LongitudeDegrees>
            </Position>
            <AltitudeMeters>146.1999969482421875</AltitudeMeters>
            <DistanceMeters>NAN</DistanceMeters>
          </Trackpoint>
          <Trackpoint>
            <Time>2022-07-14T15:44:47.000Z</Time>
            <Position>
              <LatitudeDegrees>43.378236182034015655517578125</LatitudeDegrees>
              <LongitudeDegrees>-4.11769953556358814239501953125</LongitudeDegrees>
            </Position>
            <AltitudeMeters>146.399993896484375</AltitudeMeters>
            <DistanceMeters>NAN</DistanceMeters>
          </Trackpoint>
          <Trackpoint>
            <Time>2022-07-14T15:44:56.000Z</Time>
            <Position>
              <LatitudeDegrees>43.3783141337335109710693359375</LatitudeDegrees>
              <LongitudeDegrees>-4.1173277981579303741455078125</LongitudeDegrees>
            </Position>
            <AltitudeMeters>146.399993896484375</AltitudeMeters>
            <DistanceMeters>NAN</DistanceMeters>
          </Trackpoint>
          <Trackpoint>
            <Time>2022-07-14T15:45:03.000Z</Time>
            <Position>
              <LatitudeDegrees>43.37841027416288852691650390625</LatitudeDegrees>
              <LongitudeDegrees>-4.117057733237743377685546875</LongitudeDegrees>
            </Position>
            <AltitudeMeters>146.399993896484375</AltitudeMeters>
            <DistanceMeters>NAN</DistanceMeters>
          </Trackpoint>
          <Trackpoint>
            <Time>2022-07-14T15:45:12.000Z</Time>
            <Position>
              <LatitudeDegrees>43.3785642497241497039794921875</LatitudeDegrees>
              <LongitudeDegrees>-4.11668163724243640899658203125</LongitudeDegrees>
            </Position>
            <AltitudeMeters>146.1999969482421875</AltitudeMeters>
            <DistanceMeters>NAN</DistanceMeters>
          </Trackpoint>
          <Trackpoint>
            <Time>2022-07-14T15:45:20.000Z</Time>
            <Position>
              <LatitudeDegrees>43.3787496574223041534423828125</LatitudeDegrees>
              <LongitudeDegrees>-4.1163303516805171966552734375</LongitudeDegrees>
            </Position>
            <AltitudeMeters>145.600006103515625</AltitudeMeters>
            <DistanceMeters>NAN</DistanceMeters>
          </Trackpoint>
          <Trackpoint>
            <Time>2022-07-14T15:45:26.000Z</Time>
            <Position>
              <LatitudeDegrees>43.37891109287738800048828125</LatitudeDegrees>
              <LongitudeDegrees>-4.116037823259830474853515625</LongitudeDegrees>
            </Position>
            <AltitudeMeters>144.8000030517578125</AltitudeMeters>
            <DistanceMeters>NAN</DistanceMeters>
          </Trackpoint>
          <Trackpoint>
            <Time>2022-07-14T15:45:28.000Z</Time>
            <Position>
              <LatitudeDegrees>43.37897202931344509124755859375</LatitudeDegrees>
              <LongitudeDegrees>-4.11593489348888397216796875</LongitudeDegrees>
            </Position>
            <AltitudeMeters>144.600006103515625</AltitudeMeters>
            <DistanceMeters>NAN</DistanceMeters>
          </Trackpoint>
          <Trackpoint>
            <Time>2022-07-14T15:45:31.000Z</Time>
            <Position>
              <LatitudeDegrees>43.379064314067363739013671875</LatitudeDegrees>
              <LongitudeDegrees>-4.11575342528522014617919921875</LongitudeDegrees>
            </Position>
            <AltitudeMeters>143.8000030517578125</AltitudeMeters>
            <DistanceMeters>NAN</DistanceMeters>
          </Trackpoint>
          <Trackpoint>
            <Time>2022-07-14T15:45:33.000Z</Time>
            <Position>
              <LatitudeDegrees>43.37912910617887973785400390625</LatitudeDegrees>
              <LongitudeDegrees>-4.11561780609190464019775390625</LongitudeDegrees>
            </Position>
            <AltitudeMeters>143.399993896484375</AltitudeMeters>
            <DistanceMeters>NAN</DistanceMeters>
          </Trackpoint>
          <Trackpoint>
            <Time>2022-07-14T15:45:37.000Z</Time>
            <Position>
              <LatitudeDegrees>43.379267491400241851806640625</LatitudeDegrees>
              <LongitudeDegrees>-4.115317650139331817626953125</LongitudeDegrees>
            </Position>
            <AltitudeMeters>142.600006103515625</AltitudeMeters>
            <DistanceMeters>NAN</DistanceMeters>
          </Trackpoint>
          <Trackpoint>
            <Time>2022-07-14T15:45:40.000Z</Time>
            <Position>
              <LatitudeDegrees>43.3793638832867145538330078125</LatitudeDegrees>
              <LongitudeDegrees>-4.11507583223283290863037109375</LongitudeDegrees>
            </Position>
            <AltitudeMeters>141.8000030517578125</AltitudeMeters>
            <DistanceMeters>NAN</DistanceMeters>
          </Trackpoint>
          <Trackpoint>
            <Time>2022-07-14T15:45:41.000Z</Time>
            <Position>
              <LatitudeDegrees>43.37939145974814891815185546875</LatitudeDegrees>
              <LongitudeDegrees>-4.114995114505290985107421875</LongitudeDegrees>
            </Position>
            <AltitudeMeters>141.1999969482421875</AltitudeMeters>
            <DistanceMeters>NAN</DistanceMeters>
          </Trackpoint>
          <Trackpoint>
            <Time>2022-07-14T15:45:42.000Z</Time>
            <Position>
              <LatitudeDegrees>43.37941576726734638214111328125</LatitudeDegrees>
              <LongitudeDegrees>-4.11490903235971927642822265625</LongitudeDegrees>
            </Position>
            <AltitudeMeters>140.8000030517578125</AltitudeMeters>
            <DistanceMeters>NAN</DistanceMeters>
          </Trackpoint>
          <Trackpoint>
            <Time>2022-07-14T15:45:44.000Z</Time>
            <Position>
              <LatitudeDegrees>43.37944745086133480072021484375</LatitudeDegrees>
              <LongitudeDegrees>-4.1147123090922832489013671875</LongitudeDegrees>
            </Position>
            <AltitudeMeters>140.1999969482421875</AltitudeMeters>
            <DistanceMeters>NAN</DistanceMeters>
          </Trackpoint>
          <Trackpoint>
            <Time>2022-07-14T15:45:48.000Z</Time>
            <Position>
              <LatitudeDegrees>43.379467986524105072021484375</LatitudeDegrees>
              <LongitudeDegrees>-4.114293716847896575927734375</LongitudeDegrees>
            </Position>
            <AltitudeMeters>139</AltitudeMeters>
            <DistanceMeters>NAN</DistanceMeters>
          </Trackpoint>
          <Trackpoint>
            <Time>2022-07-14T15:45:49.000Z</Time>
            <Position>
              <LatitudeDegrees>43.37946538813412189483642578125</LatitudeDegrees>
              <LongitudeDegrees>-4.1141916252672672271728515625</LongitudeDegrees>
            </Position>
            <AltitudeMeters>138.8000030517578125</AltitudeMeters>
            <DistanceMeters>NAN</DistanceMeters>
          </Trackpoint>
          <Trackpoint>
            <Time>2022-07-14T15:45:52.000Z</Time>
            <Position>
              <LatitudeDegrees>43.3794238977134227752685546875</LatitudeDegrees>
              <LongitudeDegrees>-4.1138662397861480712890625</LongitudeDegrees>
            </Position>
            <AltitudeMeters>137.8000030517578125</AltitudeMeters>
            <DistanceMeters>NAN</DistanceMeters>
          </Trackpoint>
          <Trackpoint>
            <Time>2022-07-14T15:45:55.000Z</Time>
            <Position>
              <LatitudeDegrees>43.379370756447315216064453125</LatitudeDegrees>
              <LongitudeDegrees>-4.1135482303798198699951171875</LongitudeDegrees>
            </Position>
            <AltitudeMeters>137.1999969482421875</AltitudeMeters>
            <DistanceMeters>NAN</DistanceMeters>
          </Trackpoint>
          <Trackpoint>
            <Time>2022-07-14T15:45:57.000Z</Time>
            <Position>
              <LatitudeDegrees>43.3793350495398044586181640625</LatitudeDegrees>
              <LongitudeDegrees>-4.1133405268192291259765625</LongitudeDegrees>
            </Position>
            <AltitudeMeters>136.399993896484375</AltitudeMeters>
            <DistanceMeters>NAN</DistanceMeters>
          </Trackpoint>
          <Trackpoint>
            <Time>2022-07-14T15:46:00.000Z</Time>
            <Position>
              <LatitudeDegrees>43.37928534485399723052978515625</LatitudeDegrees>
              <LongitudeDegrees>-4.11302058957517147064208984375</LongitudeDegrees>
            </Position>
            <AltitudeMeters>135.399993896484375</AltitudeMeters>
            <DistanceMeters>NAN</DistanceMeters>
          </Trackpoint>
          <Trackpoint>
            <Time>2022-07-14T15:46:01.000Z</Time>
            <Position>
              <LatitudeDegrees>43.3792740292847156524658203125</LatitudeDegrees>
              <LongitudeDegrees>-4.1129048354923725128173828125</LongitudeDegrees>
            </Position>
            <AltitudeMeters>134.8000030517578125</AltitudeMeters>
            <DistanceMeters>NAN</DistanceMeters>
          </Trackpoint>
          <Trackpoint>
            <Time>2022-07-14T15:46:02.000Z</Time>
            <Position>
              <LatitudeDegrees>43.37926271371543407440185546875</LatitudeDegrees>
              <LongitudeDegrees>-4.11278589628636837005615234375</LongitudeDegrees>
            </Position>
            <AltitudeMeters>134.1999969482421875</AltitudeMeters>
            <DistanceMeters>NAN</DistanceMeters>
          </Trackpoint>
          <Trackpoint>
            <Time>2022-07-14T15:46:06.000Z</Time>
            <Position>
              <LatitudeDegrees>43.37927025742828845977783203125</LatitudeDegrees>
              <LongitudeDegrees>-4.112322963774204254150390625</LongitudeDegrees>
            </Position>
            <AltitudeMeters>133.1999969482421875</AltitudeMeters>
            <DistanceMeters>NAN</DistanceMeters>
          </Trackpoint>
          <Trackpoint>
            <Time>2022-07-14T15:46:09.000Z</Time>
            <Position>
              <LatitudeDegrees>43.37929942645132541656494140625</LatitudeDegrees>
              <LongitudeDegrees>-4.11194301210343837738037109375</LongitudeDegrees>
            </Position>
            <AltitudeMeters>132</AltitudeMeters>
            <DistanceMeters>NAN</DistanceMeters>
          </Trackpoint>
          <Trackpoint>
            <Time>2022-07-14T15:46:11.000Z</Time>
            <Position>
              <LatitudeDegrees>43.37935826741158962249755859375</LatitudeDegrees>
              <LongitudeDegrees>-4.11171376705169677734375</LongitudeDegrees>
            </Position>
            <AltitudeMeters>131.600006103515625</AltitudeMeters>
            <DistanceMeters>NAN</DistanceMeters>
          </Trackpoint>
          <Trackpoint>
            <Time>2022-07-14T15:46:13.000Z</Time>
            <Position>
              <LatitudeDegrees>43.379433453083038330078125</LatitudeDegrees>
              <LongitudeDegrees>-4.111480750143527984619140625</LongitudeDegrees>
            </Position>
            <AltitudeMeters>130.8000030517578125</AltitudeMeters>
            <DistanceMeters>NAN</DistanceMeters>
          </Trackpoint>
          <Trackpoint>
            <Time>2022-07-14T15:46:15.000Z</Time>
            <Position>
              <LatitudeDegrees>43.37950511835515499114990234375</LatitudeDegrees>
              <LongitudeDegrees>-4.111236669123172760009765625</LongitudeDegrees>
            </Position>
            <AltitudeMeters>129.600006103515625</AltitudeMeters>
            <DistanceMeters>NAN</DistanceMeters>
          </Trackpoint>
          <Trackpoint>
            <Time>2022-07-14T15:46:16.000Z</Time>
            <Position>
              <LatitudeDegrees>43.37956421077251434326171875</LatitudeDegrees>
              <LongitudeDegrees>-4.11111571826040744781494140625</LongitudeDegrees>
            </Position>
            <AltitudeMeters>129</AltitudeMeters>
            <DistanceMeters>NAN</DistanceMeters>
          </Trackpoint>
          <Trackpoint>
            <Time>2022-07-14T15:46:17.000Z</Time>
            <Position>
              <LatitudeDegrees>43.37962590157985687255859375</LatitudeDegrees>
              <LongitudeDegrees>-4.11101094447076320648193359375</LongitudeDegrees>
            </Position>
            <AltitudeMeters>128.399993896484375</AltitudeMeters>
            <DistanceMeters>NAN</DistanceMeters>
          </Trackpoint>
          <Trackpoint>
            <Time>2022-07-14T15:46:19.000Z</Time>
            <Position>
              <LatitudeDegrees>43.379740230739116668701171875</LatitudeDegrees>
              <LongitudeDegrees>-4.11079267971217632293701171875</LongitudeDegrees>
            </Position>
            <AltitudeMeters>127.40000152587890625</AltitudeMeters>
            <DistanceMeters>NAN</DistanceMeters>
          </Trackpoint>
          <Trackpoint>
            <Time>2022-07-14T15:46:21.000Z</Time>
            <Position>
              <LatitudeDegrees>43.3798671327531337738037109375</LatitudeDegrees>
              <LongitudeDegrees>-4.11055815406143665313720703125</LongitudeDegrees>
            </Position>
            <AltitudeMeters>125.59999847412109375</AltitudeMeters>
            <DistanceMeters>NAN</DistanceMeters>
          </Trackpoint>
          <Trackpoint>
            <Time>2022-07-14T15:46:22.000Z</Time>
            <Position>
              <LatitudeDegrees>43.3799388818442821502685546875</LatitudeDegrees>
              <LongitudeDegrees>-4.1104517877101898193359375</LongitudeDegrees>
            </Position>
            <AltitudeMeters>124.40000152587890625</AltitudeMeters>
            <DistanceMeters>NAN</DistanceMeters>
          </Trackpoint>
          <Trackpoint>
            <Time>2022-07-14T15:46:24.000Z</Time>
            <Position>
              <LatitudeDegrees>43.38010123930871486663818359375</LatitudeDegrees>
              <LongitudeDegrees>-4.11026428453624248504638671875</LongitudeDegrees>
            </Position>
            <AltitudeMeters>123</AltitudeMeters>
            <DistanceMeters>NAN</DistanceMeters>
          </Trackpoint>
          <Trackpoint>
            <Time>2022-07-14T15:46:25.000Z</Time>
            <Position>
              <LatitudeDegrees>43.3801873214542865753173828125</LatitudeDegrees>
              <LongitudeDegrees>-4.11018733866512775421142578125</LongitudeDegrees>
            </Position>
            <AltitudeMeters>122</AltitudeMeters>
            <DistanceMeters>NAN</DistanceMeters>
          </Trackpoint>
          <Trackpoint>
            <Time>2022-07-14T15:46:26.000Z</Time>
            <Position>
              <LatitudeDegrees>43.38027298450469970703125</LatitudeDegrees>
              <LongitudeDegrees>-4.1101166792213916778564453125</LongitudeDegrees>
            </Position>
            <AltitudeMeters>121</AltitudeMeters>
            <DistanceMeters>NAN</DistanceMeters>
          </Trackpoint>
          <Trackpoint>
            <Time>2022-07-14T15:46:28.000Z</Time>
            <Position>
              <LatitudeDegrees>43.3804545365273952484130859375</LatitudeDegrees>
              <LongitudeDegrees>-4.10999891348183155059814453125</LongitudeDegrees>
            </Position>
            <AltitudeMeters>119.8000030517578125</AltitudeMeters>
            <DistanceMeters>NAN</DistanceMeters>
          </Trackpoint>
          <Trackpoint>
            <Time>2022-07-14T15:46:29.000Z</Time>
            <Position>
              <LatitudeDegrees>43.3805487491190433502197265625</LatitudeDegrees>
              <LongitudeDegrees>-4.1099604405462741851806640625</LongitudeDegrees>
            </Position>
            <AltitudeMeters>118.8000030517578125</AltitudeMeters>
            <DistanceMeters>NAN</DistanceMeters>
          </Trackpoint>
          <Trackpoint>
            <Time>2022-07-14T15:46:30.000Z</Time>
            <Position>
              <LatitudeDegrees>43.3806375972926616668701171875</LatitudeDegrees>
              <LongitudeDegrees>-4.1099356301128864288330078125</LongitudeDegrees>
            </Position>
            <AltitudeMeters>118.1999969482421875</AltitudeMeters>
            <DistanceMeters>NAN</DistanceMeters>
          </Trackpoint>
          <Trackpoint>
            <Time>2022-07-14T15:46:32.000Z</Time>
            <Position>
              <LatitudeDegrees>43.38081990368664264678955078125</LatitudeDegrees>
              <LongitudeDegrees>-4.10992314107716083526611328125</LongitudeDegrees>
            </Position>
            <AltitudeMeters>116.8000030517578125</AltitudeMeters>
            <DistanceMeters>NAN</DistanceMeters>
          </Trackpoint>
          <Trackpoint>
            <Time>2022-07-14T15:46:33.000Z</Time>
            <Position>
              <LatitudeDegrees>43.38091596029698848724365234375</LatitudeDegrees>
              <LongitudeDegrees>-4.1099272482097148895263671875</LongitudeDegrees>
            </Position>
            <AltitudeMeters>116</AltitudeMeters>
            <DistanceMeters>NAN</DistanceMeters>
          </Trackpoint>
          <Trackpoint>
            <Time>2022-07-14T15:46:34.000Z</Time>
            <Position>
              <LatitudeDegrees>43.38100966997444629669189453125</LatitudeDegrees>
              <LongitudeDegrees>-4.10994158126413822174072265625</LongitudeDegrees>
            </Position>
            <AltitudeMeters>115.40000152587890625</AltitudeMeters>
            <DistanceMeters>NAN</DistanceMeters>
          </Trackpoint>
          <Trackpoint>
            <Time>2022-07-14T15:46:36.000Z</Time>
            <Position>
              <LatitudeDegrees>43.38120345957577228546142578125</LatitudeDegrees>
              <LongitudeDegrees>-4.1100046969950199127197265625</LongitudeDegrees>
            </Position>
            <AltitudeMeters>114.1999969482421875</AltitudeMeters>
            <DistanceMeters>NAN</DistanceMeters>
          </Trackpoint>
          <Trackpoint>
            <Time>2022-07-14T15:46:37.000Z</Time>
            <Position>
              <LatitudeDegrees>43.3812960796058177947998046875</LatitudeDegrees>
              <LongitudeDegrees>-4.11004476249217987060546875</LongitudeDegrees>
            </Position>
            <AltitudeMeters>113.8000030517578125</AltitudeMeters>
            <DistanceMeters>NAN</DistanceMeters>
          </Trackpoint>
          <Trackpoint>
            <Time>2022-07-14T15:46:39.000Z</Time>
            <Position>
              <LatitudeDegrees>43.3814724348485469818115234375</LatitudeDegrees>
              <LongitudeDegrees>-4.1101327724754810333251953125</LongitudeDegrees>
            </Position>
            <AltitudeMeters>112.59999847412109375</AltitudeMeters>
            <DistanceMeters>NAN</DistanceMeters>
          </Trackpoint>
          <Trackpoint>
            <Time>2022-07-14T15:46:41.000Z</Time>
            <Position>
              <LatitudeDegrees>43.38163613341748714447021484375</LatitudeDegrees>
              <LongitudeDegrees>-4.11020695231854915618896484375</LongitudeDegrees>
            </Position>
            <AltitudeMeters>111.40000152587890625</AltitudeMeters>
            <DistanceMeters>NAN</DistanceMeters>
          </Trackpoint>
          <Trackpoint>
            <Time>2022-07-14T15:46:43.000Z</Time>
            <Position>
              <LatitudeDegrees>43.38179756887257099151611328125</LatitudeDegrees>
              <LongitudeDegrees>-4.1102517955005168914794921875</LongitudeDegrees>
            </Position>
            <AltitudeMeters>110.59999847412109375</AltitudeMeters>
            <DistanceMeters>NAN</DistanceMeters>
          </Trackpoint>
          <Trackpoint>
            <Time>2022-07-14T15:46:44.000Z</Time>
            <Position>
              <LatitudeDegrees>43.3818784542381763458251953125</LatitudeDegrees>
              <LongitudeDegrees>-4.11025204695761203765869140625</LongitudeDegrees>
            </Position>
            <AltitudeMeters>110</AltitudeMeters>
            <DistanceMeters>NAN</DistanceMeters>
          </Trackpoint>
          <Trackpoint>
            <Time>2022-07-14T15:46:45.000Z</Time>
            <Position>
              <LatitudeDegrees>43.3819582499563694000244140625</LatitudeDegrees>
              <LongitudeDegrees>-4.1102363727986812591552734375</LongitudeDegrees>
            </Position>
            <AltitudeMeters>109.40000152587890625</AltitudeMeters>
            <DistanceMeters>NAN</DistanceMeters>
          </Trackpoint>
          <Trackpoint>
            <Time>2022-07-14T15:46:46.000Z</Time>
            <Position>
              <LatitudeDegrees>43.38203209452331066131591796875</LatitudeDegrees>
              <LongitudeDegrees>-4.110206700861454010009765625</LongitudeDegrees>
            </Position>
            <AltitudeMeters>108.8000030517578125</AltitudeMeters>
            <DistanceMeters>NAN</DistanceMeters>
          </Trackpoint>
          <Trackpoint>
            <Time>2022-07-14T15:46:47.000Z</Time>
            <Position>
              <LatitudeDegrees>43.3821024186909198760986328125</LatitudeDegrees>
              <LongitudeDegrees>-4.1101585887372493743896484375</LongitudeDegrees>
            </Position>
            <AltitudeMeters>108.1999969482421875</AltitudeMeters>
            <DistanceMeters>NAN</DistanceMeters>
          </Trackpoint>
          <Trackpoint>
            <Time>2022-07-14T15:46:48.000Z</Time>
            <Position>
              <LatitudeDegrees>43.3821644447743892669677734375</LatitudeDegrees>
              <LongitudeDegrees>-4.1100992448627948760986328125</LongitudeDegrees>
            </Position>
            <AltitudeMeters>107</AltitudeMeters>
            <DistanceMeters>NAN</DistanceMeters>
          </Trackpoint>
          <Trackpoint>
            <Time>2022-07-14T15:46:49.000Z</Time>
            <Position>
              <LatitudeDegrees>43.38222152553498744964599609375</LatitudeDegrees>
              <LongitudeDegrees>-4.110026322305202484130859375</LongitudeDegrees>
            </Position>
            <AltitudeMeters>106.40000152587890625</AltitudeMeters>
            <DistanceMeters>NAN</DistanceMeters>
          </Trackpoint>
          <Trackpoint>
            <Time>2022-07-14T15:46:50.000Z</Time>
            <Position>
              <LatitudeDegrees>43.3822760917246341705322265625</LatitudeDegrees>
              <LongitudeDegrees>-4.10994275473058223724365234375</LongitudeDegrees>
            </Position>
            <AltitudeMeters>105.8000030517578125</AltitudeMeters>
            <DistanceMeters>NAN</DistanceMeters>
          </Trackpoint>
          <Trackpoint>
            <Time>2022-07-14T15:46:52.000Z</Time>
            <Position>
              <LatitudeDegrees>43.38237307034432888031005859375</LatitudeDegrees>
              <LongitudeDegrees>-4.10975634120404720306396484375</LongitudeDegrees>
            </Position>
            <AltitudeMeters>104.1999969482421875</AltitudeMeters>
            <DistanceMeters>NAN</DistanceMeters>
          </Trackpoint>
          <Trackpoint>
            <Time>2022-07-14T15:46:54.000Z</Time>
            <Position>
              <LatitudeDegrees>43.382467366755008697509765625</LatitudeDegrees>
              <LongitudeDegrees>-4.109561629593372344970703125</LongitudeDegrees>
            </Position>
            <AltitudeMeters>102.8000030517578125</AltitudeMeters>
            <DistanceMeters>NAN</DistanceMeters>
          </Trackpoint>
          <Trackpoint>
            <Time>2022-07-14T15:46:56.000Z</Time>
            <Position>
              <LatitudeDegrees>43.38256853632628917694091796875</LatitudeDegrees>
              <LongitudeDegrees>-4.10936155356466770172119140625</LongitudeDegrees>
            </Position>
            <AltitudeMeters>101.40000152587890625</AltitudeMeters>
            <DistanceMeters>NAN</DistanceMeters>
          </Trackpoint>
          <Trackpoint>
            <Time>2022-07-14T15:46:58.000Z</Time>
            <Position>
              <LatitudeDegrees>43.38266928680241107940673828125</LatitudeDegrees>
              <LongitudeDegrees>-4.10915686748921871185302734375</LongitudeDegrees>
            </Position>
            <AltitudeMeters>99.40000152587890625</AltitudeMeters>
            <DistanceMeters>NAN</DistanceMeters>
          </Trackpoint>
          <Trackpoint>
            <Time>2022-07-14T15:47:00.000Z</Time>
            <Position>
              <LatitudeDegrees>43.382775820791721343994140625</LatitudeDegrees>
              <LongitudeDegrees>-4.108958803117275238037109375</LongitudeDegrees>
            </Position>
            <AltitudeMeters>98.40000152587890625</AltitudeMeters>
            <DistanceMeters>NAN</DistanceMeters>
          </Trackpoint>
          <Trackpoint>
            <Time>2022-07-14T15:47:01.000Z</Time>
            <Position>
              <LatitudeDegrees>43.38283491320908069610595703125</LatitudeDegrees>
              <LongitudeDegrees>-4.10886635072529315948486328125</LongitudeDegrees>
            </Position>
            <AltitudeMeters>97.59999847412109375</AltitudeMeters>
            <DistanceMeters>NAN</DistanceMeters>
          </Trackpoint>
          <Trackpoint>
            <Time>2022-07-14T15:47:02.000Z</Time>
            <Position>
              <LatitudeDegrees>43.38289777748286724090576171875</LatitudeDegrees>
              <LongitudeDegrees>-4.10877834074199199676513671875</LongitudeDegrees>
            </Position>
            <AltitudeMeters>97</AltitudeMeters>
            <DistanceMeters>NAN</DistanceMeters>
          </Trackpoint>
          <Trackpoint>
            <Time>2022-07-14T15:47:03.000Z</Time>
            <Position>
              <LatitudeDegrees>43.3829670958220958709716796875</LatitudeDegrees>
              <LongitudeDegrees>-4.10869804210960865020751953125</LongitudeDegrees>
            </Position>
            <AltitudeMeters>96</AltitudeMeters>
            <DistanceMeters>NAN</DistanceMeters>
          </Trackpoint>
          <Trackpoint>
            <Time>2022-07-14T15:47:04.000Z</Time>
            <Position>
              <LatitudeDegrees>43.38303926400840282440185546875</LatitudeDegrees>
              <LongitudeDegrees>-4.10862947814166545867919921875</LongitudeDegrees>
            </Position>
            <AltitudeMeters>95.40000152587890625</AltitudeMeters>
            <DistanceMeters>NAN</DistanceMeters>
          </Trackpoint>
          <Trackpoint>
            <Time>2022-07-14T15:47:05.000Z</Time>
            <Position>
              <LatitudeDegrees>43.38311470113694667816162109375</LatitudeDegrees>
              <LongitudeDegrees>-4.1085757501423358917236328125</LongitudeDegrees>
            </Position>
            <AltitudeMeters>94.40000152587890625</AltitudeMeters>
            <DistanceMeters>NAN</DistanceMeters>
          </Trackpoint>
          <Trackpoint>
            <Time>2022-07-14T15:47:06.000Z</Time>
            <Position>
              <LatitudeDegrees>43.38320371694862842559814453125</LatitudeDegrees>
              <LongitudeDegrees>-4.108536355197429656982421875</LongitudeDegrees>
            </Position>
            <AltitudeMeters>93.59999847412109375</AltitudeMeters>
            <DistanceMeters>NAN</DistanceMeters>
          </Trackpoint>
          <Trackpoint>
            <Time>2022-07-14T15:47:07.000Z</Time>
            <Position>
              <LatitudeDegrees>43.38329658843576908111572265625</LatitudeDegrees>
              <LongitudeDegrees>-4.10851229913532733917236328125</LongitudeDegrees>
            </Position>
            <AltitudeMeters>93</AltitudeMeters>
            <DistanceMeters>NAN</DistanceMeters>
          </Trackpoint>
          <Trackpoint>
            <Time>2022-07-14T15:47:08.000Z</Time>
            <Position>
              <LatitudeDegrees>43.3833922259509563446044921875</LatitudeDegrees>
              <LongitudeDegrees>-4.10850324667990207672119140625</LongitudeDegrees>
            </Position>
            <AltitudeMeters>92.40000152587890625</AltitudeMeters>
            <DistanceMeters>NAN</DistanceMeters>
          </Trackpoint>
          <Trackpoint>
            <Time>2022-07-14T15:47:11.000Z</Time>
            <Position>
              <LatitudeDegrees>43.383671678602695465087890625</LatitudeDegrees>
              <LongitudeDegrees>-4.10848966799676418304443359375</LongitudeDegrees>
            </Position>
            <AltitudeMeters>91.1999969482421875</AltitudeMeters>
            <DistanceMeters>NAN</DistanceMeters>
          </Trackpoint>
          <Trackpoint>
            <Time>2022-07-14T15:47:13.000Z</Time>
            <Position>
              <LatitudeDegrees>43.383852057158946990966796875</LatitudeDegrees>
              <LongitudeDegrees>-4.10848698578774929046630859375</LongitudeDegrees>
            </Position>
            <AltitudeMeters>89.8000030517578125</AltitudeMeters>
            <DistanceMeters>NAN</DistanceMeters>
          </Trackpoint>
          <Trackpoint>
            <Time>2022-07-14T15:47:16.000Z</Time>
            <Position>
              <LatitudeDegrees>43.3841036818921566009521484375</LatitudeDegrees>
              <LongitudeDegrees>-4.10848715342581272125244140625</LongitudeDegrees>
            </Position>
            <AltitudeMeters>89</AltitudeMeters>
            <DistanceMeters>NAN</DistanceMeters>
          </Trackpoint>
          <Trackpoint>
            <Time>2022-07-14T15:47:21.000Z</Time>
            <Position>
              <LatitudeDegrees>43.38443376123905181884765625</LatitudeDegrees>
              <LongitudeDegrees>-4.108482040464878082275390625</LongitudeDegrees>
            </Position>
            <AltitudeMeters>89</AltitudeMeters>
            <DistanceMeters>NAN</DistanceMeters>
          </Trackpoint>
          <Trackpoint>
            <Time>2022-07-14T15:47:26.000Z</Time>
            <Position>
              <LatitudeDegrees>43.3846790157258510589599609375</LatitudeDegrees>
              <LongitudeDegrees>-4.108513891696929931640625</LongitudeDegrees>
            </Position>
            <AltitudeMeters>89.1999969482421875</AltitudeMeters>
            <DistanceMeters>NAN</DistanceMeters>
          </Trackpoint>
          <Trackpoint>
            <Time>2022-07-14T15:47:33.000Z</Time>
            <Position>
              <LatitudeDegrees>43.384928964078426361083984375</LatitudeDegrees>
              <LongitudeDegrees>-4.10853593610227108001708984375</LongitudeDegrees>
            </Position>
            <AltitudeMeters>89.8000030517578125</AltitudeMeters>
            <DistanceMeters>NAN</DistanceMeters>
          </Trackpoint>
          <Trackpoint>
            <Time>2022-07-14T15:47:39.000Z</Time>
            <Position>
              <LatitudeDegrees>43.38510171510279178619384765625</LatitudeDegrees>
              <LongitudeDegrees>-4.10851129330694675445556640625</LongitudeDegrees>
            </Position>
            <AltitudeMeters>90</AltitudeMeters>
            <DistanceMeters>NAN</DistanceMeters>
          </Trackpoint>
          <Trackpoint>
            <Time>2022-07-14T15:47:45.000Z</Time>
            <Position>
              <LatitudeDegrees>43.38522207923233509063720703125</LatitudeDegrees>
              <LongitudeDegrees>-4.10844205878674983978271484375</LongitudeDegrees>
            </Position>
            <AltitudeMeters>90.59999847412109375</AltitudeMeters>
            <DistanceMeters>NAN</DistanceMeters>
          </Trackpoint>
          <Trackpoint>
            <Time>2022-07-14T15:47:48.000Z</Time>
            <Position>
              <LatitudeDegrees>43.38527320884168148040771484375</LatitudeDegrees>
              <LongitudeDegrees>-4.1083903424441814422607421875</LongitudeDegrees>
            </Position>
            <AltitudeMeters>90.8000030517578125</AltitudeMeters>
            <DistanceMeters>NAN</DistanceMeters>
          </Trackpoint>
          <Trackpoint>
            <Time>2022-07-14T15:47:54.000Z</Time>
            <Position>
              <LatitudeDegrees>43.385354094207286834716796875</LatitudeDegrees>
              <LongitudeDegrees>-4.1082783602178096771240234375</LongitudeDegrees>
            </Position>
            <AltitudeMeters>91.1999969482421875</AltitudeMeters>
            <DistanceMeters>NAN</DistanceMeters>
          </Trackpoint>
          <Trackpoint>
            <Time>2022-07-14T15:48:00.000Z</Time>
            <Position>
              <LatitudeDegrees>43.38548912666738033294677734375</LatitudeDegrees>
              <LongitudeDegrees>-4.10826670937240123748779296875</LongitudeDegrees>
            </Position>
            <AltitudeMeters>91.1999969482421875</AltitudeMeters>
            <DistanceMeters>NAN</DistanceMeters>
          </Trackpoint>
          <Trackpoint>
            <Time>2022-07-14T15:48:07.000Z</Time>
            <Position>
              <LatitudeDegrees>43.38569582439959049224853515625</LatitudeDegrees>
              <LongitudeDegrees>-4.1084278933703899383544921875</LongitudeDegrees>
            </Position>
            <AltitudeMeters>90.59999847412109375</AltitudeMeters>
            <DistanceMeters>NAN</DistanceMeters>
          </Trackpoint>
          <Trackpoint>
            <Time>2022-07-14T15:48:16.000Z</Time>
            <Position>
              <LatitudeDegrees>43.385972343385219573974609375</LatitudeDegrees>
              <LongitudeDegrees>-4.10861313343048095703125</LongitudeDegrees>
            </Position>
            <AltitudeMeters>90.59999847412109375</AltitudeMeters>
            <DistanceMeters>NAN</DistanceMeters>
          </Trackpoint>
          <Trackpoint>
            <Time>2022-07-14T15:48:24.000Z</Time>
            <Position>
              <LatitudeDegrees>43.386159427464008331298828125</LatitudeDegrees>
              <LongitudeDegrees>-4.10875068046152591705322265625</LongitudeDegrees>
            </Position>
            <AltitudeMeters>90.8000030517578125</AltitudeMeters>
            <DistanceMeters>NAN</DistanceMeters>
          </Trackpoint>
          <Trackpoint>
            <Time>2022-07-14T15:48:31.000Z</Time>
            <Position>
              <LatitudeDegrees>43.38628523983061313629150390625</LatitudeDegrees>
              <LongitudeDegrees>-4.10885595716536045074462890625</LongitudeDegrees>
            </Position>
            <AltitudeMeters>91.40000152587890625</AltitudeMeters>
            <DistanceMeters>NAN</DistanceMeters>
          </Trackpoint>
          <Trackpoint>
            <Time>2022-07-14T15:48:35.000Z</Time>
            <Position>
              <LatitudeDegrees>43.38636101223528385162353515625</LatitudeDegrees>
              <LongitudeDegrees>-4.10890004597604274749755859375</LongitudeDegrees>
            </Position>
            <AltitudeMeters>91.8000030517578125</AltitudeMeters>
            <DistanceMeters>NAN</DistanceMeters>
          </Trackpoint>
          <Trackpoint>
            <Time>2022-07-14T15:48:39.000Z</Time>
            <Position>
              <LatitudeDegrees>43.38642991147935390472412109375</LatitudeDegrees>
              <LongitudeDegrees>-4.1089549474418163299560546875</LongitudeDegrees>
            </Position>
            <AltitudeMeters>92.1999969482421875</AltitudeMeters>
            <DistanceMeters>NAN</DistanceMeters>
          </Trackpoint>
          <Trackpoint>
            <Time>2022-07-14T15:48:47.000Z</Time>
            <Position>
              <LatitudeDegrees>43.3866014890372753143310546875</LatitudeDegrees>
              <LongitudeDegrees>-4.1090639121830463409423828125</LongitudeDegrees>
            </Position>
            <AltitudeMeters>92.8000030517578125</AltitudeMeters>
            <DistanceMeters>NAN</DistanceMeters>
          </Trackpoint>
          <Trackpoint>
            <Time>2022-07-14T15:48:48.000Z</Time>
            <Position>
              <LatitudeDegrees>43.386619426310062408447265625</LatitudeDegrees>
              <LongitudeDegrees>-4.10907455720007419586181640625</LongitudeDegrees>
            </Position>
            <AltitudeMeters>92.8000030517578125</AltitudeMeters>
            <DistanceMeters>NAN</DistanceMeters>
          </Trackpoint>
          <Trackpoint>
            <Time>2022-07-14T15:48:59.000Z</Time>
            <Position>
              <LatitudeDegrees>43.386829309165477752685546875</LatitudeDegrees>
              <LongitudeDegrees>-4.109204225242137908935546875</LongitudeDegrees>
            </Position>
            <AltitudeMeters>93.40000152587890625</AltitudeMeters>
            <DistanceMeters>NAN</DistanceMeters>
          </Trackpoint>
          <Trackpoint>
            <Time>2022-07-14T15:49:04.000Z</Time>
            <Position>
              <LatitudeDegrees>43.386931903660297393798828125</LatitudeDegrees>
              <LongitudeDegrees>-4.10925619304180145263671875</LongitudeDegrees>
            </Position>
            <AltitudeMeters>93.8000030517578125</AltitudeMeters>
            <DistanceMeters>NAN</DistanceMeters>
          </Trackpoint>
          <Trackpoint>
            <Time>2022-07-14T15:49:12.000Z</Time>
            <Position>
              <LatitudeDegrees>43.387112952768802642822265625</LatitudeDegrees>
              <LongitudeDegrees>-4.10934059880673885345458984375</LongitudeDegrees>
            </Position>
            <AltitudeMeters>94</AltitudeMeters>
            <DistanceMeters>NAN</DistanceMeters>
          </Trackpoint>
          <Trackpoint>
            <Time>2022-07-14T15:49:19.000Z</Time>
            <Position>
              <LatitudeDegrees>43.387317471206188201904296875</LatitudeDegrees>
              <LongitudeDegrees>-4.10945928655564785003662109375</LongitudeDegrees>
            </Position>
            <AltitudeMeters>94</AltitudeMeters>
            <DistanceMeters>NAN</DistanceMeters>
          </Trackpoint>
          <Trackpoint>
            <Time>2022-07-14T15:49:24.000Z</Time>
            <Position>
              <LatitudeDegrees>43.3875080756843090057373046875</LatitudeDegrees>
              <LongitudeDegrees>-4.109542854130268096923828125</LongitudeDegrees>
            </Position>
            <AltitudeMeters>93</AltitudeMeters>
            <DistanceMeters>NAN</DistanceMeters>
          </Trackpoint>
          <Trackpoint>
            <Time>2022-07-14T15:49:26.000Z</Time>
            <Position>
              <LatitudeDegrees>43.3876036293804645538330078125</LatitudeDegrees>
              <LongitudeDegrees>-4.10957914777100086212158203125</LongitudeDegrees>
            </Position>
            <AltitudeMeters>92.59999847412109375</AltitudeMeters>
            <DistanceMeters>NAN</DistanceMeters>
          </Trackpoint>
          <Trackpoint>
            <Time>2022-07-14T15:49:28.000Z</Time>
            <Position>
              <LatitudeDegrees>43.38769130408763885498046875</LatitudeDegrees>
              <LongitudeDegrees>-4.109629690647125244140625</LongitudeDegrees>
            </Position>
            <AltitudeMeters>92.1999969482421875</AltitudeMeters>
            <DistanceMeters>NAN</DistanceMeters>
          </Trackpoint>
          <Trackpoint>
            <Time>2022-07-14T15:49:30.000Z</Time>
            <Position>
              <LatitudeDegrees>43.3877846784889698028564453125</LatitudeDegrees>
              <LongitudeDegrees>-4.109687022864818572998046875</LongitudeDegrees>
            </Position>
            <AltitudeMeters>91.8000030517578125</AltitudeMeters>
            <DistanceMeters>NAN</DistanceMeters>
          </Trackpoint>
          <Trackpoint>
            <Time>2022-07-14T15:49:32.000Z</Time>
            <Position>
              <LatitudeDegrees>43.38787210173904895782470703125</LatitudeDegrees>
              <LongitudeDegrees>-4.109749384224414825439453125</LongitudeDegrees>
            </Position>
            <AltitudeMeters>91.59999847412109375</AltitudeMeters>
            <DistanceMeters>NAN</DistanceMeters>
          </Trackpoint>
          <Trackpoint>
            <Time>2022-07-14T15:49:35.000Z</Time>
            <Position>
              <LatitudeDegrees>43.38800646364688873291015625</LatitudeDegrees>
              <LongitudeDegrees>-4.1098397411406040191650390625</LongitudeDegrees>
            </Position>
            <AltitudeMeters>90.59999847412109375</AltitudeMeters>
            <DistanceMeters>NAN</DistanceMeters>
          </Trackpoint>
          <Trackpoint>
            <Time>2022-07-14T15:49:36.000Z</Time>
            <Position>
              <LatitudeDegrees>43.3880468644201755523681640625</LatitudeDegrees>
              <LongitudeDegrees>-4.1098528169095516204833984375</LongitudeDegrees>
            </Position>
            <AltitudeMeters>90.40000152587890625</AltitudeMeters>
            <DistanceMeters>NAN</DistanceMeters>
          </Trackpoint>
          <Trackpoint>
            <Time>2022-07-14T15:49:39.000Z</Time>
            <Position>
              <LatitudeDegrees>43.38815876282751560211181640625</LatitudeDegrees>
              <LongitudeDegrees>-4.1098397411406040191650390625</LongitudeDegrees>
            </Position>
            <AltitudeMeters>89.59999847412109375</AltitudeMeters>
            <DistanceMeters>NAN</DistanceMeters>
          </Trackpoint>
          <Trackpoint>
            <Time>2022-07-14T15:49:41.000Z</Time>
            <Position>
              <LatitudeDegrees>43.38821274228394031524658203125</LatitudeDegrees>
              <LongitudeDegrees>-4.109810404479503631591796875</LongitudeDegrees>
            </Position>
            <AltitudeMeters>89.40000152587890625</AltitudeMeters>
            <DistanceMeters>NAN</DistanceMeters>
          </Trackpoint>
          <Trackpoint>
            <Time>2022-07-14T15:49:44.000Z</Time>
            <Position>
              <LatitudeDegrees>43.38827225379645824432373046875</LatitudeDegrees>
              <LongitudeDegrees>-4.10975734703242778778076171875</LongitudeDegrees>
            </Position>
            <AltitudeMeters>89.1999969482421875</AltitudeMeters>
            <DistanceMeters>NAN</DistanceMeters>
          </Trackpoint>
          <Trackpoint>
            <Time>2022-07-14T15:49:51.000Z</Time>
            <Position>
              <LatitudeDegrees>43.38836587965488433837890625</LatitudeDegrees>
              <LongitudeDegrees>-4.109653495252132415771484375</LongitudeDegrees>
            </Position>
            <AltitudeMeters>89.1999969482421875</AltitudeMeters>
            <DistanceMeters>NAN</DistanceMeters>
          </Trackpoint>
          <Trackpoint>
            <Time>2022-07-14T15:49:53.000Z</Time>
            <Position>
              <LatitudeDegrees>43.388390354812145233154296875</LatitudeDegrees>
              <LongitudeDegrees>-4.10965525545179843902587890625</LongitudeDegrees>
            </Position>
            <AltitudeMeters>89.40000152587890625</AltitudeMeters>
            <DistanceMeters>NAN</DistanceMeters>
          </Trackpoint>
          <Trackpoint>
            <Time>2022-07-14T15:49:55.000Z</Time>
            <Position>
              <LatitudeDegrees>43.38840921409428119659423828125</LatitudeDegrees>
              <LongitudeDegrees>-4.1096905432641506195068359375</LongitudeDegrees>
            </Position>
            <AltitudeMeters>89.40000152587890625</AltitudeMeters>
            <DistanceMeters>NAN</DistanceMeters>
          </Trackpoint>
          <Trackpoint>
            <Time>2022-07-14T15:49:56.000Z</Time>
            <Position>
              <LatitudeDegrees>43.3884082920849323272705078125</LatitudeDegrees>
              <LongitudeDegrees>-4.10971661098301410675048828125</LongitudeDegrees>
            </Position>
            <AltitudeMeters>89.40000152587890625</AltitudeMeters>
            <DistanceMeters>NAN</DistanceMeters>
          </Trackpoint>
          <Trackpoint>
            <Time>2022-07-14T15:50:01.000Z</Time>
            <Position>
              <LatitudeDegrees>43.3883761055767536163330078125</LatitudeDegrees>
              <LongitudeDegrees>-4.10982591100037097930908203125</LongitudeDegrees>
            </Position>
            <AltitudeMeters>89</AltitudeMeters>
            <DistanceMeters>NAN</DistanceMeters>
          </Trackpoint>
          <Trackpoint>
            <Time>2022-07-14T15:50:02.000Z</Time>
            <Position>
              <LatitudeDegrees>43.38836814276874065399169921875</LatitudeDegrees>
              <LongitudeDegrees>-4.1098337061703205108642578125</LongitudeDegrees>
            </Position>
            <AltitudeMeters>89</AltitudeMeters>
            <DistanceMeters>NAN</DistanceMeters>
          </Trackpoint>
          <Trackpoint>
            <Time>2022-07-14T15:50:03.000Z</Time>
            <Position>
              <LatitudeDegrees>43.3883620239794254302978515625</LatitudeDegrees>
              <LongitudeDegrees>-4.1098404116928577423095703125</LongitudeDegrees>
            </Position>
            <AltitudeMeters>89</AltitudeMeters>
            <DistanceMeters>NAN</DistanceMeters>
          </Trackpoint>
          <Trackpoint>
            <Time>2022-07-14T15:50:06.000Z</Time>
            <Position>
              <LatitudeDegrees>43.38836009614169597625732421875</LatitudeDegrees>
              <LongitudeDegrees>-4.10984435118734836578369140625</LongitudeDegrees>
            </Position>
            <AltitudeMeters>88.8000030517578125</AltitudeMeters>
            <DistanceMeters>NAN</DistanceMeters>
          </Trackpoint>
          <Trackpoint>
            <Time>2022-07-14T15:52:42.000Z</Time>
            <Position>
              <LatitudeDegrees>43.38836311362683773040771484375</LatitudeDegrees>
              <LongitudeDegrees>-4.10979204811155796051025390625</LongitudeDegrees>
            </Position>
            <AltitudeMeters>86.59999847412109375</AltitudeMeters>
            <DistanceMeters>NAN</DistanceMeters>
          </Trackpoint>
          <Trackpoint>
            <Time>2022-07-14T15:52:47.000Z</Time>
            <Position>
              <LatitudeDegrees>43.388442657887935638427734375</LatitudeDegrees>
              <LongitudeDegrees>-4.10964310169219970703125</LongitudeDegrees>
            </Position>
            <AltitudeMeters>87</AltitudeMeters>
            <DistanceMeters>NAN</DistanceMeters>
          </Trackpoint>
          <Trackpoint>
            <Time>2022-07-14T15:52:53.000Z</Time>
            <Position>
              <LatitudeDegrees>43.388553299009799957275390625</LatitudeDegrees>
              <LongitudeDegrees>-4.1095145232975482940673828125</LongitudeDegrees>
            </Position>
            <AltitudeMeters>87.1999969482421875</AltitudeMeters>
            <DistanceMeters>NAN</DistanceMeters>
          </Trackpoint>
          <Trackpoint>
            <Time>2022-07-14T15:53:00.000Z</Time>
            <Position>
              <LatitudeDegrees>43.38867299258708953857421875</LatitudeDegrees>
              <LongitudeDegrees>-4.10940547473728656768798828125</LongitudeDegrees>
            </Position>
            <AltitudeMeters>87.8000030517578125</AltitudeMeters>
            <DistanceMeters>NAN</DistanceMeters>
          </Trackpoint>
          <Trackpoint>
            <Time>2022-07-14T15:53:06.000Z</Time>
            <Position>
              <LatitudeDegrees>43.3887640200555324554443359375</LatitudeDegrees>
              <LongitudeDegrees>-4.10929642617702484130859375</LongitudeDegrees>
            </Position>
            <AltitudeMeters>88</AltitudeMeters>
            <DistanceMeters>NAN</DistanceMeters>
          </Trackpoint>
          <Trackpoint>
            <Time>2022-07-14T15:53:13.000Z</Time>
            <Position>
              <LatitudeDegrees>43.3888656087219715118408203125</LatitudeDegrees>
              <LongitudeDegrees>-4.109201543033123016357421875</LongitudeDegrees>
            </Position>
            <AltitudeMeters>88.8000030517578125</AltitudeMeters>
            <DistanceMeters>NAN</DistanceMeters>
          </Trackpoint>
          <Trackpoint>
            <Time>2022-07-14T15:53:20.000Z</Time>
            <Position>
              <LatitudeDegrees>43.3889802731573581695556640625</LatitudeDegrees>
              <LongitudeDegrees>-4.109123758971691131591796875</LongitudeDegrees>
            </Position>
            <AltitudeMeters>89.40000152587890625</AltitudeMeters>
            <DistanceMeters>NAN</DistanceMeters>
          </Trackpoint>
          <Trackpoint>
            <Time>2022-07-14T15:53:22.000Z</Time>
            <Position>
              <LatitudeDegrees>43.38898605667054653167724609375</LatitudeDegrees>
              <LongitudeDegrees>-4.1090914048254489898681640625</LongitudeDegrees>
            </Position>
            <AltitudeMeters>89.59999847412109375</AltitudeMeters>
            <DistanceMeters>NAN</DistanceMeters>
          </Trackpoint>
          <Trackpoint>
            <Time>2022-07-14T15:53:23.000Z</Time>
            <Position>
              <LatitudeDegrees>43.3889853022992610931396484375</LatitudeDegrees>
              <LongitudeDegrees>-4.10907539539039134979248046875</LongitudeDegrees>
            </Position>
            <AltitudeMeters>89.8000030517578125</AltitudeMeters>
            <DistanceMeters>NAN</DistanceMeters>
          </Trackpoint>
          <Trackpoint>
            <Time>2022-07-14T15:53:24.000Z</Time>
            <Position>
              <LatitudeDegrees>43.38898136280477046966552734375</LatitudeDegrees>
              <LongitudeDegrees>-4.10905946977436542510986328125</LongitudeDegrees>
            </Position>
            <AltitudeMeters>90</AltitudeMeters>
            <DistanceMeters>NAN</DistanceMeters>
          </Trackpoint>
          <Trackpoint>
            <Time>2022-07-14T15:53:26.000Z</Time>
            <Position>
              <LatitudeDegrees>43.38896493427455425262451171875</LatitudeDegrees>
              <LongitudeDegrees>-4.1090065799653530120849609375</LongitudeDegrees>
            </Position>
            <AltitudeMeters>90</AltitudeMeters>
            <DistanceMeters>NAN</DistanceMeters>
          </Trackpoint>
          <Trackpoint>
            <Time>2022-07-14T15:53:27.000Z</Time>
            <Position>
              <LatitudeDegrees>43.3889608271420001983642578125</LatitudeDegrees>
              <LongitudeDegrees>-4.10898101516067981719970703125</LongitudeDegrees>
            </Position>
            <AltitudeMeters>90.1999969482421875</AltitudeMeters>
            <DistanceMeters>NAN</DistanceMeters>
          </Trackpoint>
          <Trackpoint>
            <Time>2022-07-14T15:53:29.000Z</Time>
            <Position>
              <LatitudeDegrees>43.38895504362881183624267578125</LatitudeDegrees>
              <LongitudeDegrees>-4.1089398600161075592041015625</LongitudeDegrees>
            </Position>
            <AltitudeMeters>90.40000152587890625</AltitudeMeters>
            <DistanceMeters>NAN</DistanceMeters>
          </Trackpoint>
          <Trackpoint>
            <Time>2022-07-14T15:53:33.000Z</Time>
            <Position>
              <LatitudeDegrees>43.38893492706120014190673828125</LatitudeDegrees>
              <LongitudeDegrees>-4.10884371958673000335693359375</LongitudeDegrees>
            </Position>
            <AltitudeMeters>90.59999847412109375</AltitudeMeters>
            <DistanceMeters>NAN</DistanceMeters>
          </Trackpoint>
          <Trackpoint>
            <Time>2022-07-14T15:53:41.000Z</Time>
            <Position>
              <LatitudeDegrees>43.38887549936771392822265625</LatitudeDegrees>
              <LongitudeDegrees>-4.10864272154867649078369140625</LongitudeDegrees>
            </Position>
            <AltitudeMeters>90.8000030517578125</AltitudeMeters>
            <DistanceMeters>NAN</DistanceMeters>
          </Trackpoint>
          <Trackpoint>
            <Time>2022-07-14T15:53:43.000Z</Time>
            <Position>
              <LatitudeDegrees>43.38885731063783168792724609375</LatitudeDegrees>
              <LongitudeDegrees>-4.10857901908457279205322265625</LongitudeDegrees>
            </Position>
            <AltitudeMeters>90.8000030517578125</AltitudeMeters>
            <DistanceMeters>NAN</DistanceMeters>
          </Trackpoint>
          <Trackpoint>
            <Time>2022-07-14T15:53:48.000Z</Time>
            <Position>
              <LatitudeDegrees>43.38882721960544586181640625</LatitudeDegrees>
              <LongitudeDegrees>-4.10841791890561580657958984375</LongitudeDegrees>
            </Position>
            <AltitudeMeters>91</AltitudeMeters>
            <DistanceMeters>NAN</DistanceMeters>
          </Trackpoint>
          <Trackpoint>
            <Time>2022-07-14T15:53:56.000Z</Time>
            <Position>
              <LatitudeDegrees>43.38876175694167613983154296875</LatitudeDegrees>
              <LongitudeDegrees>-4.10815807990729808807373046875</LongitudeDegrees>
            </Position>
            <AltitudeMeters>91.1999969482421875</AltitudeMeters>
            <DistanceMeters>NAN</DistanceMeters>
          </Trackpoint>
          <Trackpoint>
            <Time>2022-07-14T15:54:01.000Z</Time>
            <Position>
              <LatitudeDegrees>43.3887965418398380279541015625</LatitudeDegrees>
              <LongitudeDegrees>-4.10801122896373271942138671875</LongitudeDegrees>
            </Position>
            <AltitudeMeters>91.40000152587890625</AltitudeMeters>
            <DistanceMeters>NAN</DistanceMeters>
          </Trackpoint>
          <Trackpoint>
            <Time>2022-07-14T15:54:02.000Z</Time>
            <Position>
              <LatitudeDegrees>43.3888183347880840301513671875</LatitudeDegrees>
              <LongitudeDegrees>-4.10799278877675533294677734375</LongitudeDegrees>
            </Position>
            <AltitudeMeters>91.59999847412109375</AltitudeMeters>
            <DistanceMeters>NAN</DistanceMeters>
          </Trackpoint>
          <Trackpoint>
            <Time>2022-07-14T15:54:05.000Z</Time>
            <Position>
              <LatitudeDegrees>43.3889169059693813323974609375</LatitudeDegrees>
              <LongitudeDegrees>-4.10795607604086399078369140625</LongitudeDegrees>
            </Position>
            <AltitudeMeters>91.40000152587890625</AltitudeMeters>
            <DistanceMeters>NAN</DistanceMeters>
          </Trackpoint>
          <Trackpoint>
            <Time>2022-07-14T15:54:11.000Z</Time>
            <Position>
              <LatitudeDegrees>43.3891006372869014739990234375</LatitudeDegrees>
              <LongitudeDegrees>-4.10785348154604434967041015625</LongitudeDegrees>
            </Position>
            <AltitudeMeters>90.40000152587890625</AltitudeMeters>
            <DistanceMeters>NAN</DistanceMeters>
          </Trackpoint>
          <Trackpoint>
            <Time>2022-07-14T15:54:14.000Z</Time>
            <Position>
              <LatitudeDegrees>43.3891596458852291107177734375</LatitudeDegrees>
              <LongitudeDegrees>-4.107769243419170379638671875</LongitudeDegrees>
            </Position>
            <AltitudeMeters>89.8000030517578125</AltitudeMeters>
            <DistanceMeters>NAN</DistanceMeters>
          </Trackpoint>
          <Trackpoint>
            <Time>2022-07-14T15:54:17.000Z</Time>
            <Position>
              <LatitudeDegrees>43.389195688068866729736328125</LatitudeDegrees>
              <LongitudeDegrees>-4.10769120790064334869384765625</LongitudeDegrees>
            </Position>
            <AltitudeMeters>89.59999847412109375</AltitudeMeters>
            <DistanceMeters>NAN</DistanceMeters>
          </Trackpoint>
          <Trackpoint>
            <Time>2022-07-14T15:54:19.000Z</Time>
            <Position>
              <LatitudeDegrees>43.389219157397747039794921875</LatitudeDegrees>
              <LongitudeDegrees>-4.1076783835887908935546875</LongitudeDegrees>
            </Position>
            <AltitudeMeters>90</AltitudeMeters>
            <DistanceMeters>NAN</DistanceMeters>
          </Trackpoint>
          <Trackpoint>
            <Time>2022-07-14T15:54:21.000Z</Time>
            <Position>
              <LatitudeDegrees>43.389216475188732147216796875</LatitudeDegrees>
              <LongitudeDegrees>-4.10768165253102779388427734375</LongitudeDegrees>
            </Position>
            <AltitudeMeters>90.40000152587890625</AltitudeMeters>
            <DistanceMeters>NAN</DistanceMeters>
          </Trackpoint>
          <Trackpoint>
            <Time>2022-07-14T15:54:23.000Z</Time>
            <Position>
              <LatitudeDegrees>43.3892163075506687164306640625</LatitudeDegrees>
              <LongitudeDegrees>-4.10767494700849056243896484375</LongitudeDegrees>
            </Position>
            <AltitudeMeters>90.59999847412109375</AltitudeMeters>
            <DistanceMeters>NAN</DistanceMeters>
          </Trackpoint>
          <Trackpoint>
            <Time>2022-07-14T15:54:25.000Z</Time>
            <Position>
              <LatitudeDegrees>43.38922552764415740966796875</LatitudeDegrees>
              <LongitudeDegrees>-4.10767427645623683929443359375</LongitudeDegrees>
            </Position>
            <AltitudeMeters>90.59999847412109375</AltitudeMeters>
            <DistanceMeters>NAN</DistanceMeters>
          </Trackpoint>
          <Trackpoint>
            <Time>2022-07-14T15:54:30.000Z</Time>
            <Position>
              <LatitudeDegrees>43.3892196603119373321533203125</LatitudeDegrees>
              <LongitudeDegrees>-4.10766539163887500762939453125</LongitudeDegrees>
            </Position>
            <AltitudeMeters>90.59999847412109375</AltitudeMeters>
            <DistanceMeters>NAN</DistanceMeters>
          </Trackpoint>
          <Trackpoint>
            <Time>2022-07-14T15:54:34.000Z</Time>
            <Position>
              <LatitudeDegrees>43.3892032317817211151123046875</LatitudeDegrees>
              <LongitudeDegrees>-4.10767410881817340850830078125</LongitudeDegrees>
            </Position>
            <AltitudeMeters>90.40000152587890625</AltitudeMeters>
            <DistanceMeters>NAN</DistanceMeters>
          </Trackpoint>
          <Trackpoint>
            <Time>2022-07-14T15:56:26.000Z</Time>
            <Position>
              <LatitudeDegrees>43.38914162479341030120849609375</LatitudeDegrees>
              <LongitudeDegrees>-4.1077016852796077728271484375</LongitudeDegrees>
            </Position>
            <AltitudeMeters>90</AltitudeMeters>
            <DistanceMeters>NAN</DistanceMeters>
          </Trackpoint>
          <Trackpoint>
            <Time>2022-07-14T15:56:28.000Z</Time>
            <Position>
              <LatitudeDegrees>43.38914162479341030120849609375</LatitudeDegrees>
              <LongitudeDegrees>-4.1077016852796077728271484375</LongitudeDegrees>
            </Position>
            <AltitudeMeters>90</AltitudeMeters>
            <DistanceMeters>NAN</DistanceMeters>
          </Trackpoint>
          <Trackpoint>
            <Time>2022-07-14T15:56:39.000Z</Time>
            <Position>
              <LatitudeDegrees>43.3891110308468341827392578125</LatitudeDegrees>
              <LongitudeDegrees>-4.10772406496107578277587890625</LongitudeDegrees>
            </Position>
            <AltitudeMeters>89.59999847412109375</AltitudeMeters>
            <DistanceMeters>NAN</DistanceMeters>
          </Trackpoint>
          <Trackpoint>
            <Time>2022-07-14T15:56:41.000Z</Time>
            <Position>
              <LatitudeDegrees>43.389089405536651611328125</LatitudeDegrees>
              <LongitudeDegrees>-4.10775641910731792449951171875</LongitudeDegrees>
            </Position>
            <AltitudeMeters>89.1999969482421875</AltitudeMeters>
            <DistanceMeters>NAN</DistanceMeters>
          </Trackpoint>
          <Trackpoint>
            <Time>2022-07-14T15:56:44.000Z</Time>
            <Position>
              <LatitudeDegrees>43.38909602724015712738037109375</LatitudeDegrees>
              <LongitudeDegrees>-4.1078059561550617218017578125</LongitudeDegrees>
            </Position>
            <AltitudeMeters>88.8000030517578125</AltitudeMeters>
            <DistanceMeters>NAN</DistanceMeters>
          </Trackpoint>
          <Trackpoint>
            <Time>2022-07-14T15:56:46.000Z</Time>
            <Position>
              <LatitudeDegrees>43.38912083767354488372802734375</LatitudeDegrees>
              <LongitudeDegrees>-4.1078257374465465545654296875</LongitudeDegrees>
            </Position>
            <AltitudeMeters>88.8000030517578125</AltitudeMeters>
            <DistanceMeters>NAN</DistanceMeters>
          </Trackpoint>
          <Trackpoint>
            <Time>2022-07-14T15:56:47.000Z</Time>
            <Position>
              <LatitudeDegrees>43.3891405351459980010986328125</LatitudeDegrees>
              <LongitudeDegrees>-4.10781928338110446929931640625</LongitudeDegrees>
            </Position>
            <AltitudeMeters>88.8000030517578125</AltitudeMeters>
            <DistanceMeters>NAN</DistanceMeters>
          </Trackpoint>
          <Trackpoint>
            <Time>2022-07-14T15:56:54.000Z</Time>
            <Position>
              <LatitudeDegrees>43.38928185403347015380859375</LatitudeDegrees>
              <LongitudeDegrees>-4.1077419184148311614990234375</LongitudeDegrees>
            </Position>
            <AltitudeMeters>89.1999969482421875</AltitudeMeters>
            <DistanceMeters>NAN</DistanceMeters>
          </Trackpoint>
          <Trackpoint>
            <Time>2022-07-14T15:57:00.000Z</Time>
            <Position>
              <LatitudeDegrees>43.3893805928528308868408203125</LatitudeDegrees>
              <LongitudeDegrees>-4.10773797892034053802490234375</LongitudeDegrees>
            </Position>
            <AltitudeMeters>89.40000152587890625</AltitudeMeters>
            <DistanceMeters>NAN</DistanceMeters>
          </Trackpoint>
          <Trackpoint>
            <Time>2022-07-14T15:57:01.000Z</Time>
            <Position>
              <LatitudeDegrees>43.3893963508307933807373046875</LatitudeDegrees>
              <LongitudeDegrees>-4.107748456299304962158203125</LongitudeDegrees>
            </Position>
            <AltitudeMeters>89.40000152587890625</AltitudeMeters>
            <DistanceMeters>NAN</DistanceMeters>
          </Trackpoint>
          <Trackpoint>
            <Time>2022-07-14T15:57:07.000Z</Time>
            <Position>
              <LatitudeDegrees>43.389460556209087371826171875</LatitudeDegrees>
              <LongitudeDegrees>-4.10785465501248836517333984375</LongitudeDegrees>
            </Position>
            <AltitudeMeters>89.59999847412109375</AltitudeMeters>
            <DistanceMeters>NAN</DistanceMeters>
          </Trackpoint>
          <Trackpoint>
            <Time>2022-07-14T15:57:09.000Z</Time>
            <Position>
              <LatitudeDegrees>43.3894784934818744659423828125</LatitudeDegrees>
              <LongitudeDegrees>-4.10789606161415576934814453125</LongitudeDegrees>
            </Position>
            <AltitudeMeters>89.8000030517578125</AltitudeMeters>
            <DistanceMeters>NAN</DistanceMeters>
          </Trackpoint>
          <Trackpoint>
            <Time>2022-07-14T15:57:13.000Z</Time>
            <Position>
              <LatitudeDegrees>43.38952853344380855560302734375</LatitudeDegrees>
              <LongitudeDegrees>-4.107964038848876953125</LongitudeDegrees>
            </Position>
            <AltitudeMeters>90.1999969482421875</AltitudeMeters>
            <DistanceMeters>NAN</DistanceMeters>
          </Trackpoint>
          <Trackpoint>
            <Time>2022-07-14T15:57:22.000Z</Time>
            <Position>
              <LatitudeDegrees>43.38964085094630718231201171875</LatitudeDegrees>
              <LongitudeDegrees>-4.10812304355204105377197265625</LongitudeDegrees>
            </Position>
            <AltitudeMeters>90.59999847412109375</AltitudeMeters>
            <DistanceMeters>NAN</DistanceMeters>
          </Trackpoint>
          <Trackpoint>
            <Time>2022-07-14T15:57:26.000Z</Time>
            <Position>
              <LatitudeDegrees>43.38969265110790729522705078125</LatitudeDegrees>
              <LongitudeDegrees>-4.10818154923617839813232421875</LongitudeDegrees>
            </Position>
            <AltitudeMeters>90.8000030517578125</AltitudeMeters>
            <DistanceMeters>NAN</DistanceMeters>
          </Trackpoint>
          <Trackpoint>
            <Time>2022-07-14T15:57:33.000Z</Time>
            <Position>
              <LatitudeDegrees>43.3897742070257663726806640625</LatitudeDegrees>
              <LongitudeDegrees>-4.10830493085086345672607421875</LongitudeDegrees>
            </Position>
            <AltitudeMeters>91.59999847412109375</AltitudeMeters>
            <DistanceMeters>NAN</DistanceMeters>
          </Trackpoint>
          <Trackpoint>
            <Time>2022-07-14T15:57:37.000Z</Time>
            <Position>
              <LatitudeDegrees>43.389818631112575531005859375</LatitudeDegrees>
              <LongitudeDegrees>-4.10833560861647129058837890625</LongitudeDegrees>
            </Position>
            <AltitudeMeters>91.8000030517578125</AltitudeMeters>
            <DistanceMeters>NAN</DistanceMeters>
          </Trackpoint>
          <Trackpoint>
            <Time>2022-07-14T15:57:39.000Z</Time>
            <Position>
              <LatitudeDegrees>43.38983497582376003265380859375</LatitudeDegrees>
              <LongitudeDegrees>-4.108321107923984527587890625</LongitudeDegrees>
            </Position>
            <AltitudeMeters>92</AltitudeMeters>
            <DistanceMeters>NAN</DistanceMeters>
          </Trackpoint>
          <Trackpoint>
            <Time>2022-07-14T15:57:46.000Z</Time>
            <Position>
              <LatitudeDegrees>43.38991074822843074798583984375</LatitudeDegrees>
              <LongitudeDegrees>-4.10821440629661083221435546875</LongitudeDegrees>
            </Position>
            <AltitudeMeters>92.40000152587890625</AltitudeMeters>
            <DistanceMeters>NAN</DistanceMeters>
          </Trackpoint>
          <Trackpoint>
            <Time>2022-07-14T15:57:47.000Z</Time>
            <Position>
              <LatitudeDegrees>43.38991896249353885650634765625</LatitudeDegrees>
              <LongitudeDegrees>-4.10820602439343929290771484375</LongitudeDegrees>
            </Position>
            <AltitudeMeters>92.40000152587890625</AltitudeMeters>
            <DistanceMeters>NAN</DistanceMeters>
          </Trackpoint>
          <Trackpoint>
            <Time>2022-07-14T15:57:51.000Z</Time>
            <Position>
              <LatitudeDegrees>43.3899517357349395751953125</LatitudeDegrees>
              <LongitudeDegrees>-4.10815154202282428741455078125</LongitudeDegrees>
            </Position>
            <AltitudeMeters>92.59999847412109375</AltitudeMeters>
            <DistanceMeters>NAN</DistanceMeters>
          </Trackpoint>
          <Trackpoint>
            <Time>2022-07-14T15:57:52.000Z</Time>
            <Position>
              <LatitudeDegrees>43.38996673934161663055419921875</LatitudeDegrees>
              <LongitudeDegrees>-4.10814165137708187103271484375</LongitudeDegrees>
            </Position>
            <AltitudeMeters>92.59999847412109375</AltitudeMeters>
            <DistanceMeters>NAN</DistanceMeters>
          </Trackpoint>
          <Trackpoint>
            <Time>2022-07-14T15:57:58.000Z</Time>
            <Position>
              <LatitudeDegrees>43.390039913356304168701171875</LatitudeDegrees>
              <LongitudeDegrees>-4.10805548541247844696044921875</LongitudeDegrees>
            </Position>
            <AltitudeMeters>92.8000030517578125</AltitudeMeters>
            <DistanceMeters>NAN</DistanceMeters>
          </Trackpoint>
          <Trackpoint>
            <Time>2022-07-14T15:58:01.000Z</Time>
            <Position>
              <LatitudeDegrees>43.3900612033903598785400390625</LatitudeDegrees>
              <LongitudeDegrees>-4.10800066776573657989501953125</LongitudeDegrees>
            </Position>
            <AltitudeMeters>93</AltitudeMeters>
            <DistanceMeters>NAN</DistanceMeters>
          </Trackpoint>
          <Trackpoint>
            <Time>2022-07-14T15:58:02.000Z</Time>
            <Position>
              <LatitudeDegrees>43.39006531052291393280029296875</LatitudeDegrees>
              <LongitudeDegrees>-4.10798792727291584014892578125</LongitudeDegrees>
            </Position>
            <AltitudeMeters>93</AltitudeMeters>
            <DistanceMeters>NAN</DistanceMeters>
          </Trackpoint>
          <Trackpoint>
            <Time>2022-07-14T15:58:04.000Z</Time>
            <Position>
              <LatitudeDegrees>43.390071429312229156494140625</LatitudeDegrees>
              <LongitudeDegrees>-4.10797334276139736175537109375</LongitudeDegrees>
            </Position>
            <AltitudeMeters>93.1999969482421875</AltitudeMeters>
            <DistanceMeters>NAN</DistanceMeters>
          </Trackpoint>
          <Trackpoint>
            <Time>2022-07-14T15:58:05.000Z</Time>
            <Position>
              <LatitudeDegrees>43.39007654227316379547119140625</LatitudeDegrees>
              <LongitudeDegrees>-4.10796144045889377593994140625</LongitudeDegrees>
            </Position>
            <AltitudeMeters>93.1999969482421875</AltitudeMeters>
            <DistanceMeters>NAN</DistanceMeters>
          </Trackpoint>
          <Trackpoint>
            <Time>2022-07-14T15:58:06.000Z</Time>
            <Position>
              <LatitudeDegrees>43.39008651673793792724609375</LatitudeDegrees>
              <LongitudeDegrees>-4.107946939766407012939453125</LongitudeDegrees>
            </Position>
            <AltitudeMeters>93.1999969482421875</AltitudeMeters>
            <DistanceMeters>NAN</DistanceMeters>
          </Trackpoint>
          <Trackpoint>
            <Time>2022-07-14T15:58:09.000Z</Time>
            <Position>
              <LatitudeDegrees>43.390109650790691375732421875</LatitudeDegrees>
              <LongitudeDegrees>-4.107897318899631500244140625</LongitudeDegrees>
            </Position>
            <AltitudeMeters>93.40000152587890625</AltitudeMeters>
            <DistanceMeters>NAN</DistanceMeters>
          </Trackpoint>
          <Trackpoint>
            <Time>2022-07-14T15:58:10.000Z</Time>
            <Position>
              <LatitudeDegrees>43.3901161886751651763916015625</LatitudeDegrees>
              <LongitudeDegrees>-4.10788315348327159881591796875</LongitudeDegrees>
            </Position>
            <AltitudeMeters>93.40000152587890625</AltitudeMeters>
            <DistanceMeters>NAN</DistanceMeters>
          </Trackpoint>
          <Trackpoint>
            <Time>2022-07-14T15:58:16.000Z</Time>
            <Position>
              <LatitudeDegrees>43.39017695747315883636474609375</LatitudeDegrees>
              <LongitudeDegrees>-4.10781274549663066864013671875</LongitudeDegrees>
            </Position>
            <AltitudeMeters>93.8000030517578125</AltitudeMeters>
            <DistanceMeters>NAN</DistanceMeters>
          </Trackpoint>
          <Trackpoint>
            <Time>2022-07-14T15:58:17.000Z</Time>
            <Position>
              <LatitudeDegrees>43.39018936268985271453857421875</LatitudeDegrees>
              <LongitudeDegrees>-4.1078012622892856597900390625</LongitudeDegrees>
            </Position>
            <AltitudeMeters>94</AltitudeMeters>
            <DistanceMeters>NAN</DistanceMeters>
          </Trackpoint>
          <Trackpoint>
            <Time>2022-07-14T15:58:19.000Z</Time>
            <Position>
              <LatitudeDegrees>43.39021886698901653289794921875</LatitudeDegrees>
              <LongitudeDegrees>-4.10778634250164031982421875</LongitudeDegrees>
            </Position>
            <AltitudeMeters>94.1999969482421875</AltitudeMeters>
            <DistanceMeters>NAN</DistanceMeters>
          </Trackpoint>
          <Trackpoint>
            <Time>2022-07-14T15:58:22.000Z</Time>
            <Position>
              <LatitudeDegrees>43.3902559988200664520263671875</LatitudeDegrees>
              <LongitudeDegrees>-4.10776480101048946380615234375</LongitudeDegrees>
            </Position>
            <AltitudeMeters>94.1999969482421875</AltitudeMeters>
            <DistanceMeters>NAN</DistanceMeters>
          </Trackpoint>
          <Trackpoint>
            <Time>2022-07-14T15:58:24.000Z</Time>
            <Position>
              <LatitudeDegrees>43.390267230570316314697265625</LatitudeDegrees>
              <LongitudeDegrees>-4.10773630253970623016357421875</LongitudeDegrees>
            </Position>
            <AltitudeMeters>94.40000152587890625</AltitudeMeters>
            <DistanceMeters>NAN</DistanceMeters>
          </Trackpoint>
          <Trackpoint>
            <Time>2022-07-14T15:58:26.000Z</Time>
            <Position>
              <LatitudeDegrees>43.39026530273258686065673828125</LatitudeDegrees>
              <LongitudeDegrees>-4.10769104026257991790771484375</LongitudeDegrees>
            </Position>
            <AltitudeMeters>94.40000152587890625</AltitudeMeters>
            <DistanceMeters>NAN</DistanceMeters>
          </Trackpoint>
          <Trackpoint>
            <Time>2022-07-14T15:58:33.000Z</Time>
            <Position>
              <LatitudeDegrees>43.39032984338700771331787109375</LatitudeDegrees>
              <LongitudeDegrees>-4.107578136026859283447265625</LongitudeDegrees>
            </Position>
            <AltitudeMeters>94.59999847412109375</AltitudeMeters>
            <DistanceMeters>NAN</DistanceMeters>
          </Trackpoint>
          <Trackpoint>
            <Time>2022-07-14T15:58:39.000Z</Time>
            <Position>
              <LatitudeDegrees>43.39040762744843959808349609375</LatitudeDegrees>
              <LongitudeDegrees>-4.1075397469103336334228515625</LongitudeDegrees>
            </Position>
            <AltitudeMeters>94.40000152587890625</AltitudeMeters>
            <DistanceMeters>NAN</DistanceMeters>
          </Trackpoint>
          <Trackpoint>
            <Time>2022-07-14T15:58:46.000Z</Time>
            <Position>
              <LatitudeDegrees>43.39040947146713733673095703125</LatitudeDegrees>
              <LongitudeDegrees>-4.107525832951068878173828125</LongitudeDegrees>
            </Position>
            <AltitudeMeters>94.40000152587890625</AltitudeMeters>
            <DistanceMeters>NAN</DistanceMeters>
          </Trackpoint>
          <Trackpoint>
            <Time>2022-07-14T15:58:47.000Z</Time>
            <Position>
              <LatitudeDegrees>43.39040410704910755157470703125</LatitudeDegrees>
              <LongitudeDegrees>-4.10750202834606170654296875</LongitudeDegrees>
            </Position>
            <AltitudeMeters>94.1999969482421875</AltitudeMeters>
            <DistanceMeters>NAN</DistanceMeters>
          </Trackpoint>
          <Trackpoint>
            <Time>2022-07-14T15:58:50.000Z</Time>
            <Position>
              <LatitudeDegrees>43.39037678204476833343505859375</LatitudeDegrees>
              <LongitudeDegrees>-4.1074425168335437774658203125</LongitudeDegrees>
            </Position>
            <AltitudeMeters>94.1999969482421875</AltitudeMeters>
            <DistanceMeters>NAN</DistanceMeters>
          </Trackpoint>
          <Trackpoint>
            <Time>2022-07-14T15:58:55.000Z</Time>
            <Position>
              <LatitudeDegrees>43.3903341181576251983642578125</LatitudeDegrees>
              <LongitudeDegrees>-4.10734000615775585174560546875</LongitudeDegrees>
            </Position>
            <AltitudeMeters>94.40000152587890625</AltitudeMeters>
            <DistanceMeters>NAN</DistanceMeters>
          </Trackpoint>
          <Trackpoint>
            <Time>2022-07-14T15:59:02.000Z</Time>
            <Position>
              <LatitudeDegrees>43.39022188447415828704833984375</LatitudeDegrees>
              <LongitudeDegrees>-4.10712710581719875335693359375</LongitudeDegrees>
            </Position>
            <AltitudeMeters>93.8000030517578125</AltitudeMeters>
            <DistanceMeters>NAN</DistanceMeters>
          </Trackpoint>
          <Trackpoint>
            <Time>2022-07-14T15:59:06.000Z</Time>
            <Position>
              <LatitudeDegrees>43.39018433354794979095458984375</LatitudeDegrees>
              <LongitudeDegrees>-4.10701428540050983428955078125</LongitudeDegrees>
            </Position>
            <AltitudeMeters>92.8000030517578125</AltitudeMeters>
            <DistanceMeters>NAN</DistanceMeters>
          </Trackpoint>
          <Trackpoint>
            <Time>2022-07-14T15:59:09.000Z</Time>
            <Position>
              <LatitudeDegrees>43.390174023807048797607421875</LatitudeDegrees>
              <LongitudeDegrees>-4.1069541871547698974609375</LongitudeDegrees>
            </Position>
            <AltitudeMeters>91.8000030517578125</AltitudeMeters>
            <DistanceMeters>NAN</DistanceMeters>
          </Trackpoint>
          <Trackpoint>
            <Time>2022-07-14T15:59:10.000Z</Time>
            <Position>
              <LatitudeDegrees>43.39017896912992000579833984375</LatitudeDegrees>
              <LongitudeDegrees>-4.1069335676729679107666015625</LongitudeDegrees>
            </Position>
            <AltitudeMeters>91.8000030517578125</AltitudeMeters>
            <DistanceMeters>NAN</DistanceMeters>
          </Trackpoint>
          <Trackpoint>
            <Time>2022-07-14T15:59:11.000Z</Time>
            <Position>
              <LatitudeDegrees>43.39018709957599639892578125</LatitudeDegrees>
              <LongitudeDegrees>-4.1069141216576099395751953125</LongitudeDegrees>
            </Position>
            <AltitudeMeters>91.59999847412109375</AltitudeMeters>
            <DistanceMeters>NAN</DistanceMeters>
          </Trackpoint>
          <Trackpoint>
            <Time>2022-07-14T15:59:14.000Z</Time>
            <Position>
              <LatitudeDegrees>43.39020545594394207000732421875</LatitudeDegrees>
              <LongitudeDegrees>-4.10689978860318660736083984375</LongitudeDegrees>
            </Position>
            <AltitudeMeters>91.40000152587890625</AltitudeMeters>
            <DistanceMeters>NAN</DistanceMeters>
          </Trackpoint>
          <Trackpoint>
            <Time>2022-07-14T15:59:19.000Z</Time>
            <Position>
              <LatitudeDegrees>43.39028491638600826263427734375</LatitudeDegrees>
              <LongitudeDegrees>-4.10680691711604595184326171875</LongitudeDegrees>
            </Position>
            <AltitudeMeters>91</AltitudeMeters>
            <DistanceMeters>NAN</DistanceMeters>
          </Trackpoint>
          <Trackpoint>
            <Time>2022-07-14T15:59:22.000Z</Time>
            <Position>
              <LatitudeDegrees>43.3903555758297443389892578125</LatitudeDegrees>
              <LongitudeDegrees>-4.1067572124302387237548828125</LongitudeDegrees>
            </Position>
            <AltitudeMeters>90.59999847412109375</AltitudeMeters>
            <DistanceMeters>NAN</DistanceMeters>
          </Trackpoint>
          <Trackpoint>
            <Time>2022-07-14T15:59:24.000Z</Time>
            <Position>
              <LatitudeDegrees>43.39040108956396579742431640625</LatitudeDegrees>
              <LongitudeDegrees>-4.1067099384963512420654296875</LongitudeDegrees>
            </Position>
            <AltitudeMeters>90</AltitudeMeters>
            <DistanceMeters>NAN</DistanceMeters>
          </Trackpoint>
          <Trackpoint>
            <Time>2022-07-14T15:59:30.000Z</Time>
            <Position>
              <LatitudeDegrees>43.39053553529083728790283203125</LatitudeDegrees>
              <LongitudeDegrees>-4.106550849974155426025390625</LongitudeDegrees>
            </Position>
            <AltitudeMeters>89.40000152587890625</AltitudeMeters>
            <DistanceMeters>NAN</DistanceMeters>
          </Trackpoint>
          <Trackpoint>
            <Time>2022-07-14T15:59:31.000Z</Time>
            <Position>
              <LatitudeDegrees>43.39056302793323993682861328125</LatitudeDegrees>
              <LongitudeDegrees>-4.10651422105729579925537109375</LongitudeDegrees>
            </Position>
            <AltitudeMeters>89</AltitudeMeters>
            <DistanceMeters>NAN</DistanceMeters>
          </Trackpoint>
          <Trackpoint>
            <Time>2022-07-14T15:59:33.000Z</Time>
            <Position>
              <LatitudeDegrees>43.3906197734177112579345703125</LatitudeDegrees>
              <LongitudeDegrees>-4.10643450915813446044921875</LongitudeDegrees>
            </Position>
            <AltitudeMeters>88.40000152587890625</AltitudeMeters>
            <DistanceMeters>NAN</DistanceMeters>
          </Trackpoint>
          <Trackpoint>
            <Time>2022-07-14T15:59:35.000Z</Time>
            <Position>
              <LatitudeDegrees>43.3906878344714641571044921875</LatitudeDegrees>
              <LongitudeDegrees>-4.106359072029590606689453125</LongitudeDegrees>
            </Position>
            <AltitudeMeters>87.8000030517578125</AltitudeMeters>
            <DistanceMeters>NAN</DistanceMeters>
          </Trackpoint>
          <Trackpoint>
            <Time>2022-07-14T15:59:37.000Z</Time>
            <Position>
              <LatitudeDegrees>43.39075229130685329437255859375</LatitudeDegrees>
              <LongitudeDegrees>-4.10630643367767333984375</LongitudeDegrees>
            </Position>
            <AltitudeMeters>87.40000152587890625</AltitudeMeters>
            <DistanceMeters>NAN</DistanceMeters>
          </Trackpoint>
          <Trackpoint>
            <Time>2022-07-14T15:59:41.000Z</Time>
            <Position>
              <LatitudeDegrees>43.3908926881849765777587890625</LatitudeDegrees>
              <LongitudeDegrees>-4.1062314994633197784423828125</LongitudeDegrees>
            </Position>
            <AltitudeMeters>87.1999969482421875</AltitudeMeters>
            <DistanceMeters>NAN</DistanceMeters>
          </Trackpoint>
          <Trackpoint>
            <Time>2022-07-14T15:59:43.000Z</Time>
            <Position>
              <LatitudeDegrees>43.39095261879265308380126953125</LatitudeDegrees>
              <LongitudeDegrees>-4.106219597160816192626953125</LongitudeDegrees>
            </Position>
            <AltitudeMeters>87</AltitudeMeters>
            <DistanceMeters>NAN</DistanceMeters>
          </Trackpoint>
          <Trackpoint>
            <Time>2022-07-14T15:59:49.000Z</Time>
            <Position>
              <LatitudeDegrees>43.391117490828037261962890625</LatitudeDegrees>
              <LongitudeDegrees>-4.10626494325697422027587890625</LongitudeDegrees>
            </Position>
            <AltitudeMeters>86.8000030517578125</AltitudeMeters>
            <DistanceMeters>NAN</DistanceMeters>
          </Trackpoint>
          <Trackpoint>
            <Time>2022-07-14T15:59:56.000Z</Time>
            <Position>
              <LatitudeDegrees>43.3912688679993152618408203125</LatitudeDegrees>
              <LongitudeDegrees>-4.10641984082758426666259765625</LongitudeDegrees>
            </Position>
            <AltitudeMeters>86.1999969482421875</AltitudeMeters>
            <DistanceMeters>NAN</DistanceMeters>
          </Trackpoint>
          <Trackpoint>
            <Time>2022-07-14T15:59:59.000Z</Time>
            <Position>
              <LatitudeDegrees>43.39132930152118206024169921875</LatitudeDegrees>
              <LongitudeDegrees>-4.10649712197482585906982421875</LongitudeDegrees>
            </Position>
            <AltitudeMeters>86</AltitudeMeters>
            <DistanceMeters>NAN</DistanceMeters>
          </Trackpoint>
          <Trackpoint>
            <Time>2022-07-14T16:00:02.000Z</Time>
            <Position>
              <LatitudeDegrees>43.3913721330463886260986328125</LatitudeDegrees>
              <LongitudeDegrees>-4.10653769038617610931396484375</LongitudeDegrees>
            </Position>
            <AltitudeMeters>85.8000030517578125</AltitudeMeters>
            <DistanceMeters>NAN</DistanceMeters>
          </Trackpoint>
          <Trackpoint>
            <Time>2022-07-14T16:00:03.000Z</Time>
            <Position>
              <LatitudeDegrees>43.39138965122401714324951171875</LatitudeDegrees>
              <LongitudeDegrees>-4.10653299652040004730224609375</LongitudeDegrees>
            </Position>
            <AltitudeMeters>85.8000030517578125</AltitudeMeters>
            <DistanceMeters>NAN</DistanceMeters>
          </Trackpoint>
          <Trackpoint>
            <Time>2022-07-14T16:00:09.000Z</Time>
            <Position>
              <LatitudeDegrees>43.3914941735565662384033203125</LatitudeDegrees>
              <LongitudeDegrees>-4.10645906813442707061767578125</LongitudeDegrees>
            </Position>
            <AltitudeMeters>85.1999969482421875</AltitudeMeters>
            <DistanceMeters>NAN</DistanceMeters>
          </Trackpoint>
          <Trackpoint>
            <Time>2022-07-14T16:00:11.000Z</Time>
            <Position>
              <LatitudeDegrees>43.39152309112250804901123046875</LatitudeDegrees>
              <LongitudeDegrees>-4.10643291659653186798095703125</LongitudeDegrees>
            </Position>
            <AltitudeMeters>85.1999969482421875</AltitudeMeters>
            <DistanceMeters>NAN</DistanceMeters>
          </Trackpoint>
          <Trackpoint>
            <Time>2022-07-14T16:00:13.000Z</Time>
            <Position>
              <LatitudeDegrees>43.391560055315494537353515625</LatitudeDegrees>
              <LongitudeDegrees>-4.10642000846564769744873046875</LongitudeDegrees>
            </Position>
            <AltitudeMeters>85.1999969482421875</AltitudeMeters>
            <DistanceMeters>NAN</DistanceMeters>
          </Trackpoint>
          <Trackpoint>
            <Time>2022-07-14T16:00:15.000Z</Time>
            <Position>
              <LatitudeDegrees>43.39157539419829845428466796875</LatitudeDegrees>
              <LongitudeDegrees>-4.10639829933643341064453125</LongitudeDegrees>
            </Position>
            <AltitudeMeters>85.1999969482421875</AltitudeMeters>
            <DistanceMeters>NAN</DistanceMeters>
          </Trackpoint>
          <Trackpoint>
            <Time>2022-07-14T16:00:16.000Z</Time>
            <Position>
              <LatitudeDegrees>43.39157514274120330810546875</LatitudeDegrees>
              <LongitudeDegrees>-4.10639067180454730987548828125</LongitudeDegrees>
            </Position>
            <AltitudeMeters>85.1999969482421875</AltitudeMeters>
            <DistanceMeters>NAN</DistanceMeters>
          </Trackpoint>
          <Trackpoint>
            <Time>2022-07-14T16:00:17.000Z</Time>
            <Position>
              <LatitudeDegrees>43.39157790876924991607666015625</LatitudeDegrees>
              <LongitudeDegrees>-4.1063850559294223785400390625</LongitudeDegrees>
            </Position>
            <AltitudeMeters>85.1999969482421875</AltitudeMeters>
            <DistanceMeters>NAN</DistanceMeters>
          </Trackpoint>
          <Trackpoint>
            <Time>2022-07-14T16:00:19.000Z</Time>
            <Position>
              <LatitudeDegrees>43.391600288450717926025390625</LatitudeDegrees>
              <LongitudeDegrees>-4.10634792409837245941162109375</LongitudeDegrees>
            </Position>
            <AltitudeMeters>85.1999969482421875</AltitudeMeters>
            <DistanceMeters>NAN</DistanceMeters>
          </Trackpoint>
          <Trackpoint>
            <Time>2022-07-14T16:00:20.000Z</Time>
            <Position>
              <LatitudeDegrees>43.3916195668280124664306640625</LatitudeDegrees>
              <LongitudeDegrees>-4.1063364408910274505615234375</LongitudeDegrees>
            </Position>
            <AltitudeMeters>85</AltitudeMeters>
            <DistanceMeters>NAN</DistanceMeters>
          </Trackpoint>
          <Trackpoint>
            <Time>2022-07-14T16:00:25.000Z</Time>
            <Position>
              <LatitudeDegrees>43.39169424958527088165283203125</LatitudeDegrees>
              <LongitudeDegrees>-4.106241725385189056396484375</LongitudeDegrees>
            </Position>
            <AltitudeMeters>85</AltitudeMeters>
            <DistanceMeters>NAN</DistanceMeters>
          </Trackpoint>
          <Trackpoint>
            <Time>2022-07-14T16:00:29.000Z</Time>
            <Position>
              <LatitudeDegrees>43.3917533420026302337646484375</LatitudeDegrees>
              <LongitudeDegrees>-4.10618497990071773529052734375</LongitudeDegrees>
            </Position>
            <AltitudeMeters>84.8000030517578125</AltitudeMeters>
            <DistanceMeters>NAN</DistanceMeters>
          </Trackpoint>
          <Trackpoint>
            <Time>2022-07-14T16:00:32.000Z</Time>
            <Position>
              <LatitudeDegrees>43.3917970955371856689453125</LatitudeDegrees>
              <LongitudeDegrees>-4.1061530448496341705322265625</LongitudeDegrees>
            </Position>
            <AltitudeMeters>85.1999969482421875</AltitudeMeters>
            <DistanceMeters>NAN</DistanceMeters>
          </Trackpoint>
          <Trackpoint>
            <Time>2022-07-14T16:00:34.000Z</Time>
            <Position>
              <LatitudeDegrees>43.39181209914386272430419921875</LatitudeDegrees>
              <LongitudeDegrees>-4.10611758939921855926513671875</LongitudeDegrees>
            </Position>
            <AltitudeMeters>85.40000152587890625</AltitudeMeters>
            <DistanceMeters>NAN</DistanceMeters>
          </Trackpoint>
          <Trackpoint>
            <Time>2022-07-14T16:00:37.000Z</Time>
            <Position>
              <LatitudeDegrees>43.391857109963893890380859375</LatitudeDegrees>
              <LongitudeDegrees>-4.106089510023593902587890625</LongitudeDegrees>
            </Position>
            <AltitudeMeters>85.8000030517578125</AltitudeMeters>
            <DistanceMeters>NAN</DistanceMeters>
          </Trackpoint>
          <Trackpoint>
            <Time>2022-07-14T16:00:40.000Z</Time>
            <Position>
              <LatitudeDegrees>43.3919136039912700653076171875</LatitudeDegrees>
              <LongitudeDegrees>-4.10607886500656604766845703125</LongitudeDegrees>
            </Position>
            <AltitudeMeters>86</AltitudeMeters>
            <DistanceMeters>NAN</DistanceMeters>
          </Trackpoint>
          <Trackpoint>
            <Time>2022-07-14T16:00:42.000Z</Time>
            <Position>
              <LatitudeDegrees>43.3919471316039562225341796875</LatitudeDegrees>
              <LongitudeDegrees>-4.10605765879154205322265625</LongitudeDegrees>
            </Position>
            <AltitudeMeters>86.40000152587890625</AltitudeMeters>
            <DistanceMeters>NAN</DistanceMeters>
          </Trackpoint>
          <Trackpoint>
            <Time>2022-07-14T16:00:48.000Z</Time>
            <Position>
              <LatitudeDegrees>43.391998596489429473876953125</LatitudeDegrees>
              <LongitudeDegrees>-4.10598582588136196136474609375</LongitudeDegrees>
            </Position>
            <AltitudeMeters>87.40000152587890625</AltitudeMeters>
            <DistanceMeters>NAN</DistanceMeters>
          </Trackpoint>
          <Trackpoint>
            <Time>2022-07-14T16:00:50.000Z</Time>
            <Position>
              <LatitudeDegrees>43.39201544411480426788330078125</LatitudeDegrees>
              <LongitudeDegrees>-4.1059456765651702880859375</LongitudeDegrees>
            </Position>
            <AltitudeMeters>87.59999847412109375</AltitudeMeters>
            <DistanceMeters>NAN</DistanceMeters>
          </Trackpoint>
          <Trackpoint>
            <Time>2022-07-14T16:00:55.000Z</Time>
            <Position>
              <LatitudeDegrees>43.3920457027852535247802734375</LatitudeDegrees>
              <LongitudeDegrees>-4.1058445908129215240478515625</LongitudeDegrees>
            </Position>
            <AltitudeMeters>88.1999969482421875</AltitudeMeters>
            <DistanceMeters>NAN</DistanceMeters>
          </Trackpoint>
          <Trackpoint>
            <Time>2022-07-14T16:00:57.000Z</Time>
            <Position>
              <LatitudeDegrees>43.39205794036388397216796875</LatitudeDegrees>
              <LongitudeDegrees>-4.10581332631409168243408203125</LongitudeDegrees>
            </Position>
            <AltitudeMeters>88.59999847412109375</AltitudeMeters>
            <DistanceMeters>NAN</DistanceMeters>
          </Trackpoint>
          <Trackpoint>
            <Time>2022-07-14T16:00:59.000Z</Time>
            <Position>
              <LatitudeDegrees>43.39206489734351634979248046875</LatitudeDegrees>
              <LongitudeDegrees>-4.105810560286045074462890625</LongitudeDegrees>
            </Position>
            <AltitudeMeters>88.8000030517578125</AltitudeMeters>
            <DistanceMeters>NAN</DistanceMeters>
          </Trackpoint>
          <Trackpoint>
            <Time>2022-07-14T16:01:00.000Z</Time>
            <Position>
              <LatitudeDegrees>43.3920822478830814361572265625</LatitudeDegrees>
              <LongitudeDegrees>-4.10581600852310657501220703125</LongitudeDegrees>
            </Position>
            <AltitudeMeters>89</AltitudeMeters>
            <DistanceMeters>NAN</DistanceMeters>
          </Trackpoint>
          <Trackpoint>
            <Time>2022-07-14T16:01:05.000Z</Time>
            <Position>
              <LatitudeDegrees>43.39215575717389583587646484375</LatitudeDegrees>
              <LongitudeDegrees>-4.105762280523777008056640625</LongitudeDegrees>
            </Position>
            <AltitudeMeters>89.40000152587890625</AltitudeMeters>
            <DistanceMeters>NAN</DistanceMeters>
          </Trackpoint>
          <Trackpoint>
            <Time>2022-07-14T16:01:11.000Z</Time>
            <Position>
              <LatitudeDegrees>43.39224611409008502960205078125</LatitudeDegrees>
              <LongitudeDegrees>-4.1056632064282894134521484375</LongitudeDegrees>
            </Position>
            <AltitudeMeters>89.59999847412109375</AltitudeMeters>
            <DistanceMeters>NAN</DistanceMeters>
          </Trackpoint>
          <Trackpoint>
            <Time>2022-07-14T16:01:18.000Z</Time>
            <Position>
              <LatitudeDegrees>43.3923236466944217681884765625</LatitudeDegrees>
              <LongitudeDegrees>-4.10553328692913055419921875</LongitudeDegrees>
            </Position>
            <AltitudeMeters>90</AltitudeMeters>
            <DistanceMeters>NAN</DistanceMeters>
          </Trackpoint>
          <Trackpoint>
            <Time>2022-07-14T16:01:19.000Z</Time>
            <Position>
              <LatitudeDegrees>43.39233865030109882354736328125</LatitudeDegrees>
              <LongitudeDegrees>-4.10553395748138427734375</LongitudeDegrees>
            </Position>
            <AltitudeMeters>90</AltitudeMeters>
            <DistanceMeters>NAN</DistanceMeters>
          </Trackpoint>
          <Trackpoint>
            <Time>2022-07-14T16:01:21.000Z</Time>
            <Position>
              <LatitudeDegrees>43.39237133972346782684326171875</LatitudeDegrees>
              <LongitudeDegrees>-4.1055394895374774932861328125</LongitudeDegrees>
            </Position>
            <AltitudeMeters>90.1999969482421875</AltitudeMeters>
            <DistanceMeters>NAN</DistanceMeters>
          </Trackpoint>
          <Trackpoint>
            <Time>2022-07-14T16:01:23.000Z</Time>
            <Position>
              <LatitudeDegrees>43.39237980544567108154296875</LatitudeDegrees>
              <LongitudeDegrees>-4.10556438378989696502685546875</LongitudeDegrees>
            </Position>
            <AltitudeMeters>90.40000152587890625</AltitudeMeters>
            <DistanceMeters>NAN</DistanceMeters>
          </Trackpoint>
          <Trackpoint>
            <Time>2022-07-14T16:01:24.000Z</Time>
            <Position>
              <LatitudeDegrees>43.39237511157989501953125</LatitudeDegrees>
              <LongitudeDegrees>-4.10557813011109828948974609375</LongitudeDegrees>
            </Position>
            <AltitudeMeters>90.40000152587890625</AltitudeMeters>
            <DistanceMeters>NAN</DistanceMeters>
          </Trackpoint>
          <Trackpoint>
            <Time>2022-07-14T16:01:26.000Z</Time>
            <Position>
              <LatitudeDegrees>43.39235139079391956329345703125</LatitudeDegrees>
              <LongitudeDegrees>-4.1056052036583423614501953125</LongitudeDegrees>
            </Position>
            <AltitudeMeters>90.59999847412109375</AltitudeMeters>
            <DistanceMeters>NAN</DistanceMeters>
          </Trackpoint>
          <Trackpoint>
            <Time>2022-07-14T16:01:27.000Z</Time>
            <Position>
              <LatitudeDegrees>43.39234066195785999298095703125</LatitudeDegrees>
              <LongitudeDegrees>-4.10562071017920970916748046875</LongitudeDegrees>
            </Position>
            <AltitudeMeters>90.59999847412109375</AltitudeMeters>
            <DistanceMeters>NAN</DistanceMeters>
          </Trackpoint>
          <Trackpoint>
            <Time>2022-07-14T16:01:31.000Z</Time>
            <Position>
              <LatitudeDegrees>43.392269499599933624267578125</LatitudeDegrees>
              <LongitudeDegrees>-4.10568441264331340789794921875</LongitudeDegrees>
            </Position>
            <AltitudeMeters>90.1999969482421875</AltitudeMeters>
            <DistanceMeters>NAN</DistanceMeters>
          </Trackpoint>
          <Trackpoint>
            <Time>2022-07-14T16:01:32.000Z</Time>
            <Position>
              <LatitudeDegrees>43.39225566945970058441162109375</LatitudeDegrees>
              <LongitudeDegrees>-4.1057051159441471099853515625</LongitudeDegrees>
            </Position>
            <AltitudeMeters>90</AltitudeMeters>
            <DistanceMeters>NAN</DistanceMeters>
          </Trackpoint>
          <Trackpoint>
            <Time>2022-07-14T16:01:35.000Z</Time>
            <Position>
              <LatitudeDegrees>43.39225399307906627655029296875</LatitudeDegrees>
              <LongitudeDegrees>-4.10571291111409664154052734375</LongitudeDegrees>
            </Position>
            <AltitudeMeters>89.8000030517578125</AltitudeMeters>
            <DistanceMeters>NAN</DistanceMeters>
          </Trackpoint>
          <Trackpoint>
            <Time>2022-07-14T16:02:14.000Z</Time>
            <Position>
              <LatitudeDegrees>43.39222432114183902740478515625</LatitudeDegrees>
              <LongitudeDegrees>-4.1057165153324604034423828125</LongitudeDegrees>
            </Position>
            <AltitudeMeters>89.59999847412109375</AltitudeMeters>
            <DistanceMeters>NAN</DistanceMeters>
          </Trackpoint>
          <Trackpoint>
            <Time>2022-07-14T16:02:20.000Z</Time>
            <Position>
              <LatitudeDegrees>43.39205048047006130218505859375</LatitudeDegrees>
              <LongitudeDegrees>-4.10572372376918792724609375</LongitudeDegrees>
            </Position>
            <AltitudeMeters>89</AltitudeMeters>
            <DistanceMeters>NAN</DistanceMeters>
          </Trackpoint>
          <Trackpoint>
            <Time>2022-07-14T16:02:21.000Z</Time>
            <Position>
              <LatitudeDegrees>43.3920396678149700164794921875</LatitudeDegrees>
              <LongitudeDegrees>-4.1057349555194377899169921875</LongitudeDegrees>
            </Position>
            <AltitudeMeters>89</AltitudeMeters>
            <DistanceMeters>NAN</DistanceMeters>
          </Trackpoint>
          <Trackpoint>
            <Time>2022-07-14T16:02:22.000Z</Time>
            <Position>
              <LatitudeDegrees>43.39202902279794216156005859375</LatitudeDegrees>
              <LongitudeDegrees>-4.10576119087636470794677734375</LongitudeDegrees>
            </Position>
            <AltitudeMeters>89</AltitudeMeters>
            <DistanceMeters>NAN</DistanceMeters>
          </Trackpoint>
          <Trackpoint>
            <Time>2022-07-14T16:02:23.000Z</Time>
            <Position>
              <LatitudeDegrees>43.3920148573815822601318359375</LatitudeDegrees>
              <LongitudeDegrees>-4.10578885115683078765869140625</LongitudeDegrees>
            </Position>
            <AltitudeMeters>89</AltitudeMeters>
            <DistanceMeters>NAN</DistanceMeters>
          </Trackpoint>
          <Trackpoint>
            <Time>2022-07-14T16:02:26.000Z</Time>
            <Position>
              <LatitudeDegrees>43.39205048047006130218505859375</LatitudeDegrees>
              <LongitudeDegrees>-4.10601734183728694915771484375</LongitudeDegrees>
            </Position>
            <AltitudeMeters>88.59999847412109375</AltitudeMeters>
            <DistanceMeters>NAN</DistanceMeters>
          </Trackpoint>
          <Trackpoint>
            <Time>2022-07-14T16:02:27.000Z</Time>
            <Position>
              <LatitudeDegrees>43.392071686685085296630859375</LatitudeDegrees>
              <LongitudeDegrees>-4.10612094216048717498779296875</LongitudeDegrees>
            </Position>
            <AltitudeMeters>88.40000152587890625</AltitudeMeters>
            <DistanceMeters>NAN</DistanceMeters>
          </Trackpoint>
          <Trackpoint>
            <Time>2022-07-14T16:02:32.000Z</Time>
            <Position>
              <LatitudeDegrees>43.3919944055378437042236328125</LatitudeDegrees>
              <LongitudeDegrees>-4.10629997961223125457763671875</LongitudeDegrees>
            </Position>
            <AltitudeMeters>87.1999969482421875</AltitudeMeters>
            <DistanceMeters>NAN</DistanceMeters>
          </Trackpoint>
          <Trackpoint>
            <Time>2022-07-14T16:02:34.000Z</Time>
            <Position>
              <LatitudeDegrees>43.391940928995609283447265625</LatitudeDegrees>
              <LongitudeDegrees>-4.10632319748401641845703125</LongitudeDegrees>
            </Position>
            <AltitudeMeters>86.8000030517578125</AltitudeMeters>
            <DistanceMeters>NAN</DistanceMeters>
          </Trackpoint>
          <Trackpoint>
            <Time>2022-07-14T16:02:38.000Z</Time>
            <Position>
              <LatitudeDegrees>43.39184596203267574310302734375</LatitudeDegrees>
              <LongitudeDegrees>-4.10637005232274532318115234375</LongitudeDegrees>
            </Position>
            <AltitudeMeters>86.40000152587890625</AltitudeMeters>
            <DistanceMeters>NAN</DistanceMeters>
          </Trackpoint>
          <Trackpoint>
            <Time>2022-07-14T16:02:39.000Z</Time>
            <Position>
              <LatitudeDegrees>43.39182936586439609527587890625</LatitudeDegrees>
              <LongitudeDegrees>-4.10637684166431427001953125</LongitudeDegrees>
            </Position>
            <AltitudeMeters>86.1999969482421875</AltitudeMeters>
            <DistanceMeters>NAN</DistanceMeters>
          </Trackpoint>
          <Trackpoint>
            <Time>2022-07-14T16:02:42.000Z</Time>
            <Position>
              <LatitudeDegrees>43.3917577005922794342041015625</LatitudeDegrees>
              <LongitudeDegrees>-4.1063773445785045623779296875</LongitudeDegrees>
            </Position>
            <AltitudeMeters>86</AltitudeMeters>
            <DistanceMeters>NAN</DistanceMeters>
          </Trackpoint>
          <Trackpoint>
            <Time>2022-07-14T16:02:44.000Z</Time>
            <Position>
              <LatitudeDegrees>43.391729034483432769775390625</LatitudeDegrees>
              <LongitudeDegrees>-4.10639184527099132537841796875</LongitudeDegrees>
            </Position>
            <AltitudeMeters>86</AltitudeMeters>
            <DistanceMeters>NAN</DistanceMeters>
          </Trackpoint>
          <Trackpoint>
            <Time>2022-07-14T16:02:45.000Z</Time>
            <Position>
              <LatitudeDegrees>43.391693495213985443115234375</LatitudeDegrees>
              <LongitudeDegrees>-4.10637709312140941619873046875</LongitudeDegrees>
            </Position>
            <AltitudeMeters>86</AltitudeMeters>
            <DistanceMeters>NAN</DistanceMeters>
          </Trackpoint>
          <Trackpoint>
            <Time>2022-07-14T16:02:47.000Z</Time>
            <Position>
              <LatitudeDegrees>43.39170749299228191375732421875</LatitudeDegrees>
              <LongitudeDegrees>-4.10639754496514797210693359375</LongitudeDegrees>
            </Position>
            <AltitudeMeters>86.1999969482421875</AltitudeMeters>
            <DistanceMeters>NAN</DistanceMeters>
          </Trackpoint>
          <Trackpoint>
            <Time>2022-07-14T16:02:48.000Z</Time>
            <Position>
              <LatitudeDegrees>43.39169642888009548187255859375</LatitudeDegrees>
              <LongitudeDegrees>-4.10644347779452800750732421875</LongitudeDegrees>
            </Position>
            <AltitudeMeters>86.1999969482421875</AltitudeMeters>
            <DistanceMeters>NAN</DistanceMeters>
          </Trackpoint>
          <Trackpoint>
            <Time>2022-07-14T16:02:50.000Z</Time>
            <Position>
              <LatitudeDegrees>43.3916953392326831817626953125</LatitudeDegrees>
              <LongitudeDegrees>-4.10649896599352359771728515625</LongitudeDegrees>
            </Position>
            <AltitudeMeters>86.59999847412109375</AltitudeMeters>
            <DistanceMeters>NAN</DistanceMeters>
          </Trackpoint>
          <Trackpoint>
            <Time>2022-07-14T16:02:52.000Z</Time>
            <Position>
              <LatitudeDegrees>43.391694165766239166259765625</LatitudeDegrees>
              <LongitudeDegrees>-4.10652427934110164642333984375</LongitudeDegrees>
            </Position>
            <AltitudeMeters>86.8000030517578125</AltitudeMeters>
            <DistanceMeters>NAN</DistanceMeters>
          </Trackpoint>
          <Trackpoint>
            <Time>2022-07-14T16:02:54.000Z</Time>
            <Position>
              <LatitudeDegrees>43.391738422214984893798828125</LatitudeDegrees>
              <LongitudeDegrees>-4.1066338308155536651611328125</LongitudeDegrees>
            </Position>
            <AltitudeMeters>86.59999847412109375</AltitudeMeters>
            <DistanceMeters>NAN</DistanceMeters>
          </Trackpoint>
          <Trackpoint>
            <Time>2022-07-14T16:02:56.000Z</Time>
            <Position>
              <LatitudeDegrees>43.3918426930904388427734375</LatitudeDegrees>
              <LongitudeDegrees>-4.1069137863814830780029296875</LongitudeDegrees>
            </Position>
            <AltitudeMeters>86.40000152587890625</AltitudeMeters>
            <DistanceMeters>NAN</DistanceMeters>
          </Trackpoint>
          <Trackpoint>
            <Time>2022-07-14T16:02:59.000Z</Time>
            <Position>
              <LatitudeDegrees>43.39169173501431941986083984375</LatitudeDegrees>
              <LongitudeDegrees>-4.10681563429534435272216796875</LongitudeDegrees>
            </Position>
            <AltitudeMeters>86.40000152587890625</AltitudeMeters>
            <DistanceMeters>NAN</DistanceMeters>
          </Trackpoint>
          <Trackpoint>
            <Time>2022-07-14T16:03:00.000Z</Time>
            <Position>
              <LatitudeDegrees>43.39166340418159961700439453125</LatitudeDegrees>
              <LongitudeDegrees>-4.10681244917213916778564453125</LongitudeDegrees>
            </Position>
            <AltitudeMeters>86.1999969482421875</AltitudeMeters>
            <DistanceMeters>NAN</DistanceMeters>
          </Trackpoint>
          <Trackpoint>
            <Time>2022-07-14T16:03:04.000Z</Time>
            <Position>
              <LatitudeDegrees>43.3915672637522220611572265625</LatitudeDegrees>
              <LongitudeDegrees>-4.10681848414242267608642578125</LongitudeDegrees>
            </Position>
            <AltitudeMeters>86.1999969482421875</AltitudeMeters>
            <DistanceMeters>NAN</DistanceMeters>
          </Trackpoint>
          <Trackpoint>
            <Time>2022-07-14T16:03:07.000Z</Time>
            <Position>
              <LatitudeDegrees>43.39140356518328189849853515625</LatitudeDegrees>
              <LongitudeDegrees>-4.10664774477481842041015625</LongitudeDegrees>
            </Position>
            <AltitudeMeters>86.1999969482421875</AltitudeMeters>
            <DistanceMeters>NAN</DistanceMeters>
          </Trackpoint>
          <Trackpoint>
            <Time>2022-07-14T16:03:09.000Z</Time>
            <Position>
              <LatitudeDegrees>43.3913758210837841033935546875</LatitudeDegrees>
              <LongitudeDegrees>-4.10665805451571941375732421875</LongitudeDegrees>
            </Position>
            <AltitudeMeters>86.1999969482421875</AltitudeMeters>
            <DistanceMeters>NAN</DistanceMeters>
          </Trackpoint>
          <Trackpoint>
            <Time>2022-07-14T16:03:13.000Z</Time>
            <Position>
              <LatitudeDegrees>43.3913251943886280059814453125</LatitudeDegrees>
              <LongitudeDegrees>-4.10669795237481594085693359375</LongitudeDegrees>
            </Position>
            <AltitudeMeters>86.40000152587890625</AltitudeMeters>
            <DistanceMeters>NAN</DistanceMeters>
          </Trackpoint>
          <Trackpoint>
            <Time>2022-07-14T16:03:16.000Z</Time>
            <Position>
              <LatitudeDegrees>43.39132544584572315216064453125</LatitudeDegrees>
              <LongitudeDegrees>-4.10671153105795383453369140625</LongitudeDegrees>
            </Position>
            <AltitudeMeters>86.59999847412109375</AltitudeMeters>
            <DistanceMeters>NAN</DistanceMeters>
          </Trackpoint>
          <Trackpoint>
            <Time>2022-07-14T16:03:23.000Z</Time>
            <Position>
              <LatitudeDegrees>43.39132460765540599822998046875</LatitudeDegrees>
              <LongitudeDegrees>-4.10671203397214412689208984375</LongitudeDegrees>
            </Position>
            <AltitudeMeters>86.8000030517578125</AltitudeMeters>
            <DistanceMeters>NAN</DistanceMeters>
          </Trackpoint>
          <Trackpoint>
            <Time>2022-07-14T16:03:25.000Z</Time>
            <Position>
              <LatitudeDegrees>43.39130516164004802703857421875</LatitudeDegrees>
              <LongitudeDegrees>-4.10671739839017391204833984375</LongitudeDegrees>
            </Position>
            <AltitudeMeters>86.8000030517578125</AltitudeMeters>
            <DistanceMeters>NAN</DistanceMeters>
          </Trackpoint>
          <Trackpoint>
            <Time>2022-07-14T16:03:27.000Z</Time>
            <Position>
              <LatitudeDegrees>43.39127951301634311676025390625</LatitudeDegrees>
              <LongitudeDegrees>-4.10672728903591632843017578125</LongitudeDegrees>
            </Position>
            <AltitudeMeters>87</AltitudeMeters>
            <DistanceMeters>NAN</DistanceMeters>
          </Trackpoint>
          <Trackpoint>
            <Time>2022-07-14T16:03:29.000Z</Time>
            <Position>
              <LatitudeDegrees>43.39126492850482463836669921875</LatitudeDegrees>
              <LongitudeDegrees>-4.10674028098583221435546875</LongitudeDegrees>
            </Position>
            <AltitudeMeters>87</AltitudeMeters>
            <DistanceMeters>NAN</DistanceMeters>
          </Trackpoint>
          <Trackpoint>
            <Time>2022-07-14T16:03:30.000Z</Time>
            <Position>
              <LatitudeDegrees>43.39126492850482463836669921875</LatitudeDegrees>
              <LongitudeDegrees>-4.10674028098583221435546875</LongitudeDegrees>
            </Position>
            <AltitudeMeters>87</AltitudeMeters>
            <DistanceMeters>NAN</DistanceMeters>
          </Trackpoint>
          <Trackpoint>
            <Time>2022-07-14T16:03:31.000Z</Time>
            <Position>
              <LatitudeDegrees>43.39126492850482463836669921875</LatitudeDegrees>
              <LongitudeDegrees>-4.10674028098583221435546875</LongitudeDegrees>
            </Position>
            <AltitudeMeters>87.1999969482421875</AltitudeMeters>
            <DistanceMeters>NAN</DistanceMeters>
          </Trackpoint>
          <Trackpoint>
            <Time>2022-07-14T16:03:34.000Z</Time>
            <Position>
              <LatitudeDegrees>43.39126534759998321533203125</LatitudeDegrees>
              <LongitudeDegrees>-4.10675176419317722320556640625</LongitudeDegrees>
            </Position>
            <AltitudeMeters>87.40000152587890625</AltitudeMeters>
            <DistanceMeters>NAN</DistanceMeters>
          </Trackpoint>
          <Trackpoint>
            <Time>2022-07-14T16:03:35.000Z</Time>
            <Position>
              <LatitudeDegrees>43.39126534759998321533203125</LatitudeDegrees>
              <LongitudeDegrees>-4.10675176419317722320556640625</LongitudeDegrees>
            </Position>
            <AltitudeMeters>87.40000152587890625</AltitudeMeters>
            <DistanceMeters>NAN</DistanceMeters>
          </Trackpoint>
          <Trackpoint>
            <Time>2022-07-14T16:03:36.000Z</Time>
            <Position>
              <LatitudeDegrees>43.39126534759998321533203125</LatitudeDegrees>
              <LongitudeDegrees>-4.10675176419317722320556640625</LongitudeDegrees>
            </Position>
            <AltitudeMeters>87.40000152587890625</AltitudeMeters>
            <DistanceMeters>NAN</DistanceMeters>
          </Trackpoint>
          <Trackpoint>
            <Time>2022-07-14T16:03:52.000Z</Time>
            <Position>
              <LatitudeDegrees>43.3912055008113384246826171875</LatitudeDegrees>
              <LongitudeDegrees>-4.10682317800819873809814453125</LongitudeDegrees>
            </Position>
            <AltitudeMeters>88.1999969482421875</AltitudeMeters>
            <DistanceMeters>NAN</DistanceMeters>
          </Trackpoint>
          <Trackpoint>
            <Time>2022-07-14T16:03:55.000Z</Time>
            <Position>
              <LatitudeDegrees>43.3911823667585849761962890625</LatitudeDegrees>
              <LongitudeDegrees>-4.1068443842232227325439453125</LongitudeDegrees>
            </Position>
            <AltitudeMeters>88.40000152587890625</AltitudeMeters>
            <DistanceMeters>NAN</DistanceMeters>
          </Trackpoint>
          <Trackpoint>
            <Time>2022-07-14T16:04:04.000Z</Time>
            <Position>
              <LatitudeDegrees>43.3910368569195270538330078125</LatitudeDegrees>
              <LongitudeDegrees>-4.10698109306395053863525390625</LongitudeDegrees>
            </Position>
            <AltitudeMeters>89.1999969482421875</AltitudeMeters>
            <DistanceMeters>NAN</DistanceMeters>
          </Trackpoint>
          <Trackpoint>
            <Time>2022-07-14T16:04:07.000Z</Time>
            <Position>
              <LatitudeDegrees>43.3909708075225353240966796875</LatitudeDegrees>
              <LongitudeDegrees>-4.107001461088657379150390625</LongitudeDegrees>
            </Position>
            <AltitudeMeters>89.59999847412109375</AltitudeMeters>
            <DistanceMeters>NAN</DistanceMeters>
          </Trackpoint>
          <Trackpoint>
            <Time>2022-07-14T16:04:09.000Z</Time>
            <Position>
              <LatitudeDegrees>43.390867710113525390625</LatitudeDegrees>
              <LongitudeDegrees>-4.10702233202755451202392578125</LongitudeDegrees>
            </Position>
            <AltitudeMeters>90</AltitudeMeters>
            <DistanceMeters>NAN</DistanceMeters>
          </Trackpoint>
          <Trackpoint>
            <Time>2022-07-14T16:04:10.000Z</Time>
            <Position>
              <LatitudeDegrees>43.3908705599606037139892578125</LatitudeDegrees>
              <LongitudeDegrees>-4.10708452574908733367919921875</LongitudeDegrees>
            </Position>
            <AltitudeMeters>90.1999969482421875</AltitudeMeters>
            <DistanceMeters>NAN</DistanceMeters>
          </Trackpoint>
          <Trackpoint>
            <Time>2022-07-14T16:04:11.000Z</Time>
            <Position>
              <LatitudeDegrees>43.3908705599606037139892578125</LatitudeDegrees>
              <LongitudeDegrees>-4.10708754323422908782958984375</LongitudeDegrees>
            </Position>
            <AltitudeMeters>90.1999969482421875</AltitudeMeters>
            <DistanceMeters>NAN</DistanceMeters>
          </Trackpoint>
          <Trackpoint>
            <Time>2022-07-14T16:04:12.000Z</Time>
            <Position>
              <LatitudeDegrees>43.39086008258163928985595703125</LatitudeDegrees>
              <LongitudeDegrees>-4.1071035526692867279052734375</LongitudeDegrees>
            </Position>
            <AltitudeMeters>90.1999969482421875</AltitudeMeters>
            <DistanceMeters>NAN</DistanceMeters>
          </Trackpoint>
          <Trackpoint>
            <Time>2022-07-14T16:04:14.000Z</Time>
            <Position>
              <LatitudeDegrees>43.39082387275993824005126953125</LatitudeDegrees>
              <LongitudeDegrees>-4.10712576471269130706787109375</LongitudeDegrees>
            </Position>
            <AltitudeMeters>90.40000152587890625</AltitudeMeters>
            <DistanceMeters>NAN</DistanceMeters>
          </Trackpoint>
          <Trackpoint>
            <Time>2022-07-14T16:04:16.000Z</Time>
            <Position>
              <LatitudeDegrees>43.3908046782016754150390625</LatitudeDegrees>
              <LongitudeDegrees>-4.1071317158639430999755859375</LongitudeDegrees>
            </Position>
            <AltitudeMeters>90.8000030517578125</AltitudeMeters>
            <DistanceMeters>NAN</DistanceMeters>
          </Trackpoint>
          <Trackpoint>
            <Time>2022-07-14T16:04:18.000Z</Time>
            <Position>
              <LatitudeDegrees>43.3907743357121944427490234375</LatitudeDegrees>
              <LongitudeDegrees>-4.1071313805878162384033203125</LongitudeDegrees>
            </Position>
            <AltitudeMeters>91</AltitudeMeters>
            <DistanceMeters>NAN</DistanceMeters>
          </Trackpoint>
          <Trackpoint>
            <Time>2022-07-14T16:04:20.000Z</Time>
            <Position>
              <LatitudeDegrees>43.390773497521877288818359375</LatitudeDegrees>
              <LongitudeDegrees>-4.107167422771453857421875</LongitudeDegrees>
            </Position>
            <AltitudeMeters>91.1999969482421875</AltitudeMeters>
            <DistanceMeters>NAN</DistanceMeters>
          </Trackpoint>
          <Trackpoint>
            <Time>2022-07-14T16:04:21.000Z</Time>
            <Position>
              <LatitudeDegrees>43.39076570235192775726318359375</LatitudeDegrees>
              <LongitudeDegrees>-4.10717748105525970458984375</LongitudeDegrees>
            </Position>
            <AltitudeMeters>91.40000152587890625</AltitudeMeters>
            <DistanceMeters>NAN</DistanceMeters>
          </Trackpoint>
          <Trackpoint>
            <Time>2022-07-14T16:04:22.000Z</Time>
            <Position>
              <LatitudeDegrees>43.39075799100100994110107421875</LatitudeDegrees>
              <LongitudeDegrees>-4.107181169092655181884765625</LongitudeDegrees>
            </Position>
            <AltitudeMeters>91.59999847412109375</AltitudeMeters>
            <DistanceMeters>NAN</DistanceMeters>
          </Trackpoint>
          <Trackpoint>
            <Time>2022-07-14T16:04:28.000Z</Time>
            <Position>
              <LatitudeDegrees>43.3907414786517620086669921875</LatitudeDegrees>
              <LongitudeDegrees>-4.10720832645893096923828125</LongitudeDegrees>
            </Position>
            <AltitudeMeters>92.1999969482421875</AltitudeMeters>
            <DistanceMeters>NAN</DistanceMeters>
          </Trackpoint>
          <Trackpoint>
            <Time>2022-07-14T16:04:29.000Z</Time>
            <Position>
              <LatitudeDegrees>43.39075061492621898651123046875</LatitudeDegrees>
              <LongitudeDegrees>-4.1072440333664417266845703125</LongitudeDegrees>
            </Position>
            <AltitudeMeters>92.40000152587890625</AltitudeMeters>
            <DistanceMeters>NAN</DistanceMeters>
          </Trackpoint>
          <Trackpoint>
            <Time>2022-07-14T16:04:30.000Z</Time>
            <Position>
              <LatitudeDegrees>43.39074759744107723236083984375</LatitudeDegrees>
              <LongitudeDegrees>-4.10726197063922882080078125</LongitudeDegrees>
            </Position>
            <AltitudeMeters>92.40000152587890625</AltitudeMeters>
            <DistanceMeters>NAN</DistanceMeters>
          </Trackpoint>
          <Trackpoint>
            <Time>2022-07-14T16:04:31.000Z</Time>
            <Position>
              <LatitudeDegrees>43.39074927382171154022216796875</LatitudeDegrees>
              <LongitudeDegrees>-4.10728937946259975433349609375</LongitudeDegrees>
            </Position>
            <AltitudeMeters>92.59999847412109375</AltitudeMeters>
            <DistanceMeters>NAN</DistanceMeters>
          </Trackpoint>
          <Trackpoint>
            <Time>2022-07-14T16:04:34.000Z</Time>
            <Position>
              <LatitudeDegrees>43.390743322670459747314453125</LatitudeDegrees>
              <LongitudeDegrees>-4.10728803835809230804443359375</LongitudeDegrees>
            </Position>
            <AltitudeMeters>92.8000030517578125</AltitudeMeters>
            <DistanceMeters>NAN</DistanceMeters>
          </Trackpoint>
          <Trackpoint>
            <Time>2022-07-14T16:04:35.000Z</Time>
            <Position>
              <LatitudeDegrees>43.3907163329422473907470703125</LatitudeDegrees>
              <LongitudeDegrees>-4.107311926782131195068359375</LongitudeDegrees>
            </Position>
            <AltitudeMeters>92.8000030517578125</AltitudeMeters>
            <DistanceMeters>NAN</DistanceMeters>
          </Trackpoint>
          <Trackpoint>
            <Time>2022-07-14T16:04:38.000Z</Time>
            <Position>
              <LatitudeDegrees>43.390697725117206573486328125</LatitudeDegrees>
              <LongitudeDegrees>-4.10730346105992794036865234375</LongitudeDegrees>
            </Position>
            <AltitudeMeters>93.40000152587890625</AltitudeMeters>
            <DistanceMeters>NAN</DistanceMeters>
          </Trackpoint>
          <Trackpoint>
            <Time>2022-07-14T16:04:39.000Z</Time>
            <Position>
              <LatitudeDegrees>43.39067392051219940185546875</LatitudeDegrees>
              <LongitudeDegrees>-4.1072921454906463623046875</LongitudeDegrees>
            </Position>
            <AltitudeMeters>93.59999847412109375</AltitudeMeters>
            <DistanceMeters>NAN</DistanceMeters>
          </Trackpoint>
          <Trackpoint>
            <Time>2022-07-14T16:04:42.000Z</Time>
            <Position>
              <LatitudeDegrees>43.3906278200447559356689453125</LatitudeDegrees>
              <LongitudeDegrees>-4.1072638146579265594482421875</LongitudeDegrees>
            </Position>
            <AltitudeMeters>94</AltitudeMeters>
            <DistanceMeters>NAN</DistanceMeters>
          </Trackpoint>
          <Trackpoint>
            <Time>2022-07-14T16:04:47.000Z</Time>
            <Position>
              <LatitudeDegrees>43.390593118965625762939453125</LatitudeDegrees>
              <LongitudeDegrees>-4.1072795726358890533447265625</LongitudeDegrees>
            </Position>
            <AltitudeMeters>94.59999847412109375</AltitudeMeters>
            <DistanceMeters>NAN</DistanceMeters>
          </Trackpoint>
          <Trackpoint>
            <Time>2022-07-14T16:04:48.000Z</Time>
            <Position>
              <LatitudeDegrees>43.39060644619166851043701171875</LatitudeDegrees>
              <LongitudeDegrees>-4.10734268836677074432373046875</LongitudeDegrees>
            </Position>
            <AltitudeMeters>94.59999847412109375</AltitudeMeters>
            <DistanceMeters>NAN</DistanceMeters>
          </Trackpoint>
          <Trackpoint>
            <Time>2022-07-14T16:04:51.000Z</Time>
            <Position>
              <LatitudeDegrees>43.3905899338424205780029296875</LatitudeDegrees>
              <LongitudeDegrees>-4.10738292150199413299560546875</LongitudeDegrees>
            </Position>
            <AltitudeMeters>95</AltitudeMeters>
            <DistanceMeters>NAN</DistanceMeters>
          </Trackpoint>
          <Trackpoint>
            <Time>2022-07-14T16:04:53.000Z</Time>
            <Position>
              <LatitudeDegrees>43.3905785344541072845458984375</LatitudeDegrees>
              <LongitudeDegrees>-4.10740370862185955047607421875</LongitudeDegrees>
            </Position>
            <AltitudeMeters>95</AltitudeMeters>
            <DistanceMeters>NAN</DistanceMeters>
          </Trackpoint>
          <Trackpoint>
            <Time>2022-07-14T16:04:56.000Z</Time>
            <Position>
              <LatitudeDegrees>43.3905600942671298980712890625</LatitudeDegrees>
              <LongitudeDegrees>-4.10746523179113864898681640625</LongitudeDegrees>
            </Position>
            <AltitudeMeters>95.1999969482421875</AltitudeMeters>
            <DistanceMeters>NAN</DistanceMeters>
          </Trackpoint>
          <Trackpoint>
            <Time>2022-07-14T16:04:57.000Z</Time>
            <Position>
              <LatitudeDegrees>43.3905644528567790985107421875</LatitudeDegrees>
              <LongitudeDegrees>-4.10748937167227268218994140625</LongitudeDegrees>
            </Position>
            <AltitudeMeters>95.40000152587890625</AltitudeMeters>
            <DistanceMeters>NAN</DistanceMeters>
          </Trackpoint>
          <Trackpoint>
            <Time>2022-07-14T16:04:59.000Z</Time>
            <Position>
              <LatitudeDegrees>43.390568979084491729736328125</LatitudeDegrees>
              <LongitudeDegrees>-4.10750093869864940643310546875</LongitudeDegrees>
            </Position>
            <AltitudeMeters>95.40000152587890625</AltitudeMeters>
            <DistanceMeters>NAN</DistanceMeters>
          </Trackpoint>
          <Trackpoint>
            <Time>2022-07-14T16:05:00.000Z</Time>
            <Position>
              <LatitudeDegrees>43.39056906290352344512939453125</LatitudeDegrees>
              <LongitudeDegrees>-4.10749993287026882171630859375</LongitudeDegrees>
            </Position>
            <AltitudeMeters>95.59999847412109375</AltitudeMeters>
            <DistanceMeters>NAN</DistanceMeters>
          </Trackpoint>
          <Trackpoint>
            <Time>2022-07-14T16:05:01.000Z</Time>
            <Position>
              <LatitudeDegrees>43.39055498130619525909423828125</LatitudeDegrees>
              <LongitudeDegrees>-4.107478894293308258056640625</LongitudeDegrees>
            </Position>
            <AltitudeMeters>95.59999847412109375</AltitudeMeters>
            <DistanceMeters>NAN</DistanceMeters>
          </Trackpoint>
          <Trackpoint>
            <Time>2022-07-14T16:05:03.000Z</Time>
            <Position>
              <LatitudeDegrees>43.3905315957963466644287109375</LatitudeDegrees>
              <LongitudeDegrees>-4.10746179521083831787109375</LongitudeDegrees>
            </Position>
            <AltitudeMeters>96</AltitudeMeters>
            <DistanceMeters>NAN</DistanceMeters>
          </Trackpoint>
          <Trackpoint>
            <Time>2022-07-14T16:05:04.000Z</Time>
            <Position>
              <LatitudeDegrees>43.39054877869784832000732421875</LatitudeDegrees>
              <LongitudeDegrees>-4.10744343884289264678955078125</LongitudeDegrees>
            </Position>
            <AltitudeMeters>96</AltitudeMeters>
            <DistanceMeters>NAN</DistanceMeters>
          </Trackpoint>
          <Trackpoint>
            <Time>2022-07-14T16:05:06.000Z</Time>
            <Position>
              <LatitudeDegrees>43.39060015976428985595703125</LatitudeDegrees>
              <LongitudeDegrees>-4.10749741829931735992431640625</LongitudeDegrees>
            </Position>
            <AltitudeMeters>96</AltitudeMeters>
            <DistanceMeters>NAN</DistanceMeters>
          </Trackpoint>
          <Trackpoint>
            <Time>2022-07-14T16:05:09.000Z</Time>
            <Position>
              <LatitudeDegrees>43.39063628576695919036865234375</LatitudeDegrees>
              <LongitudeDegrees>-4.10759481601417064666748046875</LongitudeDegrees>
            </Position>
            <AltitudeMeters>96.40000152587890625</AltitudeMeters>
            <DistanceMeters>NAN</DistanceMeters>
          </Trackpoint>
          <Trackpoint>
            <Time>2022-07-14T16:05:13.000Z</Time>
            <Position>
              <LatitudeDegrees>43.39063695631921291351318359375</LatitudeDegrees>
              <LongitudeDegrees>-4.1076450236141681671142578125</LongitudeDegrees>
            </Position>
            <AltitudeMeters>96.59999847412109375</AltitudeMeters>
            <DistanceMeters>NAN</DistanceMeters>
          </Trackpoint>
          <Trackpoint>
            <Time>2022-07-14T16:05:14.000Z</Time>
            <Position>
              <LatitudeDegrees>43.39063762687146663665771484375</LatitudeDegrees>
              <LongitudeDegrees>-4.10767276771366596221923828125</LongitudeDegrees>
            </Position>
            <AltitudeMeters>96.59999847412109375</AltitudeMeters>
            <DistanceMeters>NAN</DistanceMeters>
          </Trackpoint>
          <Trackpoint>
            <Time>2022-07-14T16:05:16.000Z</Time>
            <Position>
              <LatitudeDegrees>43.39066855609416961669921875</LatitudeDegrees>
              <LongitudeDegrees>-4.10771819762885570526123046875</LongitudeDegrees>
            </Position>
            <AltitudeMeters>96.40000152587890625</AltitudeMeters>
            <DistanceMeters>NAN</DistanceMeters>
          </Trackpoint>
          <Trackpoint>
            <Time>2022-07-14T16:05:17.000Z</Time>
            <Position>
              <LatitudeDegrees>43.3906747587025165557861328125</LatitudeDegrees>
              <LongitudeDegrees>-4.10773881711065769195556640625</LongitudeDegrees>
            </Position>
            <AltitudeMeters>96.40000152587890625</AltitudeMeters>
            <DistanceMeters>NAN</DistanceMeters>
          </Trackpoint>
          <Trackpoint>
            <Time>2022-07-14T16:05:20.000Z</Time>
            <Position>
              <LatitudeDegrees>43.390661515295505523681640625</LatitudeDegrees>
              <LongitudeDegrees>-4.10784191451966762542724609375</LongitudeDegrees>
            </Position>
            <AltitudeMeters>95.8000030517578125</AltitudeMeters>
            <DistanceMeters>NAN</DistanceMeters>
          </Trackpoint>
          <Trackpoint>
            <Time>2022-07-14T16:05:21.000Z</Time>
            <Position>
              <LatitudeDegrees>43.39067534543573856353759765625</LatitudeDegrees>
              <LongitudeDegrees>-4.10787711851298809051513671875</LongitudeDegrees>
            </Position>
            <AltitudeMeters>95.8000030517578125</AltitudeMeters>
            <DistanceMeters>NAN</DistanceMeters>
          </Trackpoint>
          <Trackpoint>
            <Time>2022-07-14T16:05:23.000Z</Time>
            <Position>
              <LatitudeDegrees>43.390736617147922515869140625</LatitudeDegrees>
              <LongitudeDegrees>-4.10797677934169769287109375</LongitudeDegrees>
            </Position>
            <AltitudeMeters>95.59999847412109375</AltitudeMeters>
            <DistanceMeters>NAN</DistanceMeters>
          </Trackpoint>
          <Trackpoint>
            <Time>2022-07-14T16:05:24.000Z</Time>
            <Position>
              <LatitudeDegrees>43.39076704345643520355224609375</LatitudeDegrees>
              <LongitudeDegrees>-4.10800234414637088775634765625</LongitudeDegrees>
            </Position>
            <AltitudeMeters>95.40000152587890625</AltitudeMeters>
            <DistanceMeters>NAN</DistanceMeters>
          </Trackpoint>
          <Trackpoint>
            <Time>2022-07-14T16:05:25.000Z</Time>
            <Position>
              <LatitudeDegrees>43.39078313671052455902099609375</LatitudeDegrees>
              <LongitudeDegrees>-4.10803285427391529083251953125</LongitudeDegrees>
            </Position>
            <AltitudeMeters>95.59999847412109375</AltitudeMeters>
            <DistanceMeters>NAN</DistanceMeters>
          </Trackpoint>
          <Trackpoint>
            <Time>2022-07-14T16:05:27.000Z</Time>
            <Position>
              <LatitudeDegrees>43.3907686360180377960205078125</LatitudeDegrees>
              <LongitudeDegrees>-4.10806906409561634063720703125</LongitudeDegrees>
            </Position>
            <AltitudeMeters>95.59999847412109375</AltitudeMeters>
            <DistanceMeters>NAN</DistanceMeters>
          </Trackpoint>
          <Trackpoint>
            <Time>2022-07-14T16:05:28.000Z</Time>
            <Position>
              <LatitudeDegrees>43.3907615952193737030029296875</LatitudeDegrees>
              <LongitudeDegrees>-4.10808733664453029632568359375</LongitudeDegrees>
            </Position>
            <AltitudeMeters>95.59999847412109375</AltitudeMeters>
            <DistanceMeters>NAN</DistanceMeters>
          </Trackpoint>
          <Trackpoint>
            <Time>2022-07-14T16:05:34.000Z</Time>
            <Position>
              <LatitudeDegrees>43.39077056385576725006103515625</LatitudeDegrees>
              <LongitudeDegrees>-4.10817794501781463623046875</LongitudeDegrees>
            </Position>
            <AltitudeMeters>96.1999969482421875</AltitudeMeters>
            <DistanceMeters>NAN</DistanceMeters>
          </Trackpoint>
          <Trackpoint>
            <Time>2022-07-14T16:05:37.000Z</Time>
            <Position>
              <LatitudeDegrees>43.3907510340213775634765625</LatitudeDegrees>
              <LongitudeDegrees>-4.1082284040749073028564453125</LongitudeDegrees>
            </Position>
            <AltitudeMeters>96.59999847412109375</AltitudeMeters>
            <DistanceMeters>NAN</DistanceMeters>
          </Trackpoint>
          <Trackpoint>
            <Time>2022-07-14T16:05:38.000Z</Time>
            <Position>
              <LatitudeDegrees>43.39073854498565196990966796875</LatitudeDegrees>
              <LongitudeDegrees>-4.10824424587190151214599609375</LongitudeDegrees>
            </Position>
            <AltitudeMeters>96.8000030517578125</AltitudeMeters>
            <DistanceMeters>NAN</DistanceMeters>
          </Trackpoint>
          <Trackpoint>
            <Time>2022-07-14T16:05:40.000Z</Time>
            <Position>
              <LatitudeDegrees>43.39071457274258136749267578125</LatitudeDegrees>
              <LongitudeDegrees>-4.10828121006488800048828125</LongitudeDegrees>
            </Position>
            <AltitudeMeters>97</AltitudeMeters>
            <DistanceMeters>NAN</DistanceMeters>
          </Trackpoint>
          <Trackpoint>
            <Time>2022-07-14T16:05:45.000Z</Time>
            <Position>
              <LatitudeDegrees>43.39068892411887645721435546875</LatitudeDegrees>
              <LongitudeDegrees>-4.1083289869129657745361328125</LongitudeDegrees>
            </Position>
            <AltitudeMeters>97.40000152587890625</AltitudeMeters>
            <DistanceMeters>NAN</DistanceMeters>
          </Trackpoint>
          <Trackpoint>
            <Time>2022-07-14T16:05:46.000Z</Time>
            <Position>
              <LatitudeDegrees>43.390682302415370941162109375</LatitudeDegrees>
              <LongitudeDegrees>-4.10833577625453472137451171875</LongitudeDegrees>
            </Position>
            <AltitudeMeters>97.40000152587890625</AltitudeMeters>
            <DistanceMeters>NAN</DistanceMeters>
          </Trackpoint>
          <Trackpoint>
            <Time>2022-07-14T16:05:49.000Z</Time>
            <Position>
              <LatitudeDegrees>43.3906630240380764007568359375</LatitudeDegrees>
              <LongitudeDegrees>-4.10837751813232898712158203125</LongitudeDegrees>
            </Position>
            <AltitudeMeters>97.59999847412109375</AltitudeMeters>
            <DistanceMeters>NAN</DistanceMeters>
          </Trackpoint>
          <Trackpoint>
            <Time>2022-07-14T16:05:50.000Z</Time>
            <Position>
              <LatitudeDegrees>43.3906268142163753509521484375</LatitudeDegrees>
              <LongitudeDegrees>-4.10837885923683643341064453125</LongitudeDegrees>
            </Position>
            <AltitudeMeters>97.59999847412109375</AltitudeMeters>
            <DistanceMeters>NAN</DistanceMeters>
          </Trackpoint>
          <Trackpoint>
            <Time>2022-07-14T16:05:56.000Z</Time>
            <Position>
              <LatitudeDegrees>43.39052195660769939422607421875</LatitudeDegrees>
              <LongitudeDegrees>-4.1083816252648830413818359375</LongitudeDegrees>
            </Position>
            <AltitudeMeters>97.8000030517578125</AltitudeMeters>
            <DistanceMeters>NAN</DistanceMeters>
          </Trackpoint>
          <Trackpoint>
            <Time>2022-07-14T16:05:57.000Z</Time>
            <Position>
              <LatitudeDegrees>43.39052195660769939422607421875</LatitudeDegrees>
              <LongitudeDegrees>-4.1083816252648830413818359375</LongitudeDegrees>
            </Position>
            <AltitudeMeters>97.8000030517578125</AltitudeMeters>
            <DistanceMeters>NAN</DistanceMeters>
          </Trackpoint>
          <Trackpoint>
            <Time>2022-07-14T16:06:41.000Z</Time>
            <Position>
              <LatitudeDegrees>43.3904819749295711517333984375</LatitudeDegrees>
              <LongitudeDegrees>-4.1083719022572040557861328125</LongitudeDegrees>
            </Position>
            <AltitudeMeters>97.8000030517578125</AltitudeMeters>
            <DistanceMeters>NAN</DistanceMeters>
          </Trackpoint>
          <Trackpoint>
            <Time>2022-07-14T16:06:43.000Z</Time>
            <Position>
              <LatitudeDegrees>43.39047786779701709747314453125</LatitudeDegrees>
              <LongitudeDegrees>-4.108372740447521209716796875</LongitudeDegrees>
            </Position>
            <AltitudeMeters>97.59999847412109375</AltitudeMeters>
            <DistanceMeters>NAN</DistanceMeters>
          </Trackpoint>
          <Trackpoint>
            <Time>2022-07-14T16:06:47.000Z</Time>
            <Position>
              <LatitudeDegrees>43.3904585056006908416748046875</LatitudeDegrees>
              <LongitudeDegrees>-4.10838975571095943450927734375</LongitudeDegrees>
            </Position>
            <AltitudeMeters>97.40000152587890625</AltitudeMeters>
            <DistanceMeters>NAN</DistanceMeters>
          </Trackpoint>
          <Trackpoint>
            <Time>2022-07-14T16:07:01.000Z</Time>
            <Position>
              <LatitudeDegrees>43.39040930382907390594482421875</LatitudeDegrees>
              <LongitudeDegrees>-4.1084272228181362152099609375</LongitudeDegrees>
            </Position>
            <AltitudeMeters>97.1999969482421875</AltitudeMeters>
            <DistanceMeters>NAN</DistanceMeters>
          </Trackpoint>
          <Trackpoint>
            <Time>2022-07-14T16:07:03.000Z</Time>
            <Position>
              <LatitudeDegrees>43.39036454446613788604736328125</LatitudeDegrees>
              <LongitudeDegrees>-4.1084674559533596038818359375</LongitudeDegrees>
            </Position>
            <AltitudeMeters>97.1999969482421875</AltitudeMeters>
            <DistanceMeters>NAN</DistanceMeters>
          </Trackpoint>
          <Trackpoint>
            <Time>2022-07-14T16:07:06.000Z</Time>
            <Position>
              <LatitudeDegrees>43.39030855335295200347900390625</LatitudeDegrees>
              <LongitudeDegrees>-4.1085345111787319183349609375</LongitudeDegrees>
            </Position>
            <AltitudeMeters>97</AltitudeMeters>
            <DistanceMeters>NAN</DistanceMeters>
          </Trackpoint>
          <Trackpoint>
            <Time>2022-07-14T16:07:08.000Z</Time>
            <Position>
              <LatitudeDegrees>43.39024879038333892822265625</LatitudeDegrees>
              <LongitudeDegrees>-4.10853291861712932586669921875</LongitudeDegrees>
            </Position>
            <AltitudeMeters>96.8000030517578125</AltitudeMeters>
            <DistanceMeters>NAN</DistanceMeters>
          </Trackpoint>
          <Trackpoint>
            <Time>2022-07-14T16:07:09.000Z</Time>
            <Position>
              <LatitudeDegrees>43.390249796211719512939453125</LatitudeDegrees>
              <LongitudeDegrees>-4.10857667215168476104736328125</LongitudeDegrees>
            </Position>
            <AltitudeMeters>96.59999847412109375</AltitudeMeters>
            <DistanceMeters>NAN</DistanceMeters>
          </Trackpoint>
          <Trackpoint>
            <Time>2022-07-14T16:07:10.000Z</Time>
            <Position>
              <LatitudeDegrees>43.3902439288794994354248046875</LatitudeDegrees>
              <LongitudeDegrees>-4.108594022691249847412109375</LongitudeDegrees>
            </Position>
            <AltitudeMeters>96.40000152587890625</AltitudeMeters>
            <DistanceMeters>NAN</DistanceMeters>
          </Trackpoint>
          <Trackpoint>
            <Time>2022-07-14T16:07:14.000Z</Time>
            <Position>
              <LatitudeDegrees>43.39019238017499446868896484375</LatitudeDegrees>
              <LongitudeDegrees>-4.10858522169291973114013671875</LongitudeDegrees>
            </Position>
            <AltitudeMeters>96.1999969482421875</AltitudeMeters>
            <DistanceMeters>NAN</DistanceMeters>
          </Trackpoint>
          <Trackpoint>
            <Time>2022-07-14T16:07:17.000Z</Time>
            <Position>
              <LatitudeDegrees>43.390159942209720611572265625</LatitudeDegrees>
              <LongitudeDegrees>-4.108608104288578033447265625</LongitudeDegrees>
            </Position>
            <AltitudeMeters>96</AltitudeMeters>
            <DistanceMeters>NAN</DistanceMeters>
          </Trackpoint>
          <Trackpoint>
            <Time>2022-07-14T16:07:19.000Z</Time>
            <Position>
              <LatitudeDegrees>43.3901406638324260711669921875</LatitudeDegrees>
              <LongitudeDegrees>-4.1086173243820667266845703125</LongitudeDegrees>
            </Position>
            <AltitudeMeters>96</AltitudeMeters>
            <DistanceMeters>NAN</DistanceMeters>
          </Trackpoint>
          <Trackpoint>
            <Time>2022-07-14T16:07:22.000Z</Time>
            <Position>
              <LatitudeDegrees>43.39011576958000659942626953125</LatitudeDegrees>
              <LongitudeDegrees>-4.10862729884684085845947265625</LongitudeDegrees>
            </Position>
            <AltitudeMeters>95.8000030517578125</AltitudeMeters>
            <DistanceMeters>NAN</DistanceMeters>
          </Trackpoint>
          <Trackpoint>
            <Time>2022-07-14T16:07:24.000Z</Time>
            <Position>
              <LatitudeDegrees>43.39007838629186153411865234375</LatitudeDegrees>
              <LongitudeDegrees>-4.10866870544850826263427734375</LongitudeDegrees>
            </Position>
            <AltitudeMeters>95.59999847412109375</AltitudeMeters>
            <DistanceMeters>NAN</DistanceMeters>
          </Trackpoint>
          <Trackpoint>
            <Time>2022-07-14T16:07:26.000Z</Time>
            <Position>
              <LatitudeDegrees>43.39003287255764007568359375</LatitudeDegrees>
              <LongitudeDegrees>-4.1087031550705432891845703125</LongitudeDegrees>
            </Position>
            <AltitudeMeters>95.59999847412109375</AltitudeMeters>
            <DistanceMeters>NAN</DistanceMeters>
          </Trackpoint>
          <Trackpoint>
            <Time>2022-07-14T16:07:29.000Z</Time>
            <Position>
              <LatitudeDegrees>43.38994435966014862060546875</LatitudeDegrees>
              <LongitudeDegrees>-4.10872721113264560699462890625</LongitudeDegrees>
            </Position>
            <AltitudeMeters>95.40000152587890625</AltitudeMeters>
            <DistanceMeters>NAN</DistanceMeters>
          </Trackpoint>
          <Trackpoint>
            <Time>2022-07-14T16:07:32.000Z</Time>
            <Position>
              <LatitudeDegrees>43.38980714790523052215576171875</LatitudeDegrees>
              <LongitudeDegrees>-4.10869427025318145751953125</LongitudeDegrees>
            </Position>
            <AltitudeMeters>95</AltitudeMeters>
            <DistanceMeters>NAN</DistanceMeters>
          </Trackpoint>
          <Trackpoint>
            <Time>2022-07-14T16:07:35.000Z</Time>
            <Position>
              <LatitudeDegrees>43.38966767303645610809326171875</LatitudeDegrees>
              <LongitudeDegrees>-4.1086880676448345184326171875</LongitudeDegrees>
            </Position>
            <AltitudeMeters>94.59999847412109375</AltitudeMeters>
            <DistanceMeters>NAN</DistanceMeters>
          </Trackpoint>
          <Trackpoint>
            <Time>2022-07-14T16:07:36.000Z</Time>
            <Position>
              <LatitudeDegrees>43.38962241075932979583740234375</LatitudeDegrees>
              <LongitudeDegrees>-4.10871983505785465240478515625</LongitudeDegrees>
            </Position>
            <AltitudeMeters>94.40000152587890625</AltitudeMeters>
            <DistanceMeters>NAN</DistanceMeters>
          </Trackpoint>
          <Trackpoint>
            <Time>2022-07-14T16:07:37.000Z</Time>
            <Position>
              <LatitudeDegrees>43.3896012045443058013916015625</LatitudeDegrees>
              <LongitudeDegrees>-4.1087179072201251983642578125</LongitudeDegrees>
            </Position>
            <AltitudeMeters>94.1999969482421875</AltitudeMeters>
            <DistanceMeters>NAN</DistanceMeters>
          </Trackpoint>
          <Trackpoint>
            <Time>2022-07-14T16:07:40.000Z</Time>
            <Position>
              <LatitudeDegrees>43.38956809602677822113037109375</LatitudeDegrees>
              <LongitudeDegrees>-4.1088094376027584075927734375</LongitudeDegrees>
            </Position>
            <AltitudeMeters>93.8000030517578125</AltitudeMeters>
            <DistanceMeters>NAN</DistanceMeters>
          </Trackpoint>
          <Trackpoint>
            <Time>2022-07-14T16:07:42.000Z</Time>
            <Position>
              <LatitudeDegrees>43.38955770246684551239013671875</LatitudeDegrees>
              <LongitudeDegrees>-4.10883785225450992584228515625</LongitudeDegrees>
            </Position>
            <AltitudeMeters>93.59999847412109375</AltitudeMeters>
            <DistanceMeters>NAN</DistanceMeters>
          </Trackpoint>
          <Trackpoint>
            <Time>2022-07-14T16:07:43.000Z</Time>
            <Position>
              <LatitudeDegrees>43.389557115733623504638671875</LatitudeDegrees>
              <LongitudeDegrees>-4.10884271375834941864013671875</LongitudeDegrees>
            </Position>
            <AltitudeMeters>93.59999847412109375</AltitudeMeters>
            <DistanceMeters>NAN</DistanceMeters>
          </Trackpoint>
          <Trackpoint>
            <Time>2022-07-14T16:07:44.000Z</Time>
            <Position>
              <LatitudeDegrees>43.3895485661923885345458984375</LatitudeDegrees>
              <LongitudeDegrees>-4.10884447395801544189453125</LongitudeDegrees>
            </Position>
            <AltitudeMeters>93.40000152587890625</AltitudeMeters>
            <DistanceMeters>NAN</DistanceMeters>
          </Trackpoint>
          <Trackpoint>
            <Time>2022-07-14T16:07:47.000Z</Time>
            <Position>
              <LatitudeDegrees>43.38948729448020458221435546875</LatitudeDegrees>
              <LongitudeDegrees>-4.108893759548664093017578125</LongitudeDegrees>
            </Position>
            <AltitudeMeters>93.1999969482421875</AltitudeMeters>
            <DistanceMeters>NAN</DistanceMeters>
          </Trackpoint>
          <Trackpoint>
            <Time>2022-07-14T16:07:52.000Z</Time>
            <Position>
              <LatitudeDegrees>43.38940833695232868194580078125</LatitudeDegrees>
              <LongitudeDegrees>-4.10895754583179950714111328125</LongitudeDegrees>
            </Position>
            <AltitudeMeters>92.59999847412109375</AltitudeMeters>
            <DistanceMeters>NAN</DistanceMeters>
          </Trackpoint>
          <Trackpoint>
            <Time>2022-07-14T16:07:54.000Z</Time>
            <Position>
              <LatitudeDegrees>43.38940833695232868194580078125</LatitudeDegrees>
              <LongitudeDegrees>-4.10895754583179950714111328125</LongitudeDegrees>
            </Position>
            <AltitudeMeters>92.59999847412109375</AltitudeMeters>
            <DistanceMeters>NAN</DistanceMeters>
          </Trackpoint>
          <Trackpoint>
            <Time>2022-07-14T16:08:14.000Z</Time>
            <Position>
              <LatitudeDegrees>43.38941730558872222900390625</LatitudeDegrees>
              <LongitudeDegrees>-4.10894949920475482940673828125</LongitudeDegrees>
            </Position>
            <AltitudeMeters>93</AltitudeMeters>
            <DistanceMeters>NAN</DistanceMeters>
          </Trackpoint>
          <Trackpoint>
            <Time>2022-07-14T16:08:15.000Z</Time>
            <Position>
              <LatitudeDegrees>43.38941730558872222900390625</LatitudeDegrees>
              <LongitudeDegrees>-4.10894949920475482940673828125</LongitudeDegrees>
            </Position>
            <AltitudeMeters>93</AltitudeMeters>
            <DistanceMeters>NAN</DistanceMeters>
          </Trackpoint>
          <Trackpoint>
            <Time>2022-07-14T16:08:17.000Z</Time>
            <Position>
              <LatitudeDegrees>43.389431051909923553466796875</LatitudeDegrees>
              <LongitudeDegrees>-4.1089202463626861572265625</LongitudeDegrees>
            </Position>
            <AltitudeMeters>93.1999969482421875</AltitudeMeters>
            <DistanceMeters>NAN</DistanceMeters>
          </Trackpoint>
          <Trackpoint>
            <Time>2022-07-14T16:08:18.000Z</Time>
            <Position>
              <LatitudeDegrees>43.389431051909923553466796875</LatitudeDegrees>
              <LongitudeDegrees>-4.1089202463626861572265625</LongitudeDegrees>
            </Position>
            <AltitudeMeters>93.1999969482421875</AltitudeMeters>
            <DistanceMeters>NAN</DistanceMeters>
          </Trackpoint>
          <Trackpoint>
            <Time>2022-07-14T16:08:19.000Z</Time>
            <Position>
              <LatitudeDegrees>43.389431051909923553466796875</LatitudeDegrees>
              <LongitudeDegrees>-4.1089202463626861572265625</LongitudeDegrees>
            </Position>
            <AltitudeMeters>93.40000152587890625</AltitudeMeters>
            <DistanceMeters>NAN</DistanceMeters>
          </Trackpoint>
          <Trackpoint>
            <Time>2022-07-14T16:08:21.000Z</Time>
            <Position>
              <LatitudeDegrees>43.38945913128554821014404296875</LatitudeDegrees>
              <LongitudeDegrees>-4.1088915802538394927978515625</LongitudeDegrees>
            </Position>
            <AltitudeMeters>93.59999847412109375</AltitudeMeters>
            <DistanceMeters>NAN</DistanceMeters>
          </Trackpoint>
          <Trackpoint>
            <Time>2022-07-14T16:08:22.000Z</Time>
            <Position>
              <LatitudeDegrees>43.3894796669483184814453125</LatitudeDegrees>
              <LongitudeDegrees>-4.10887456499040126800537109375</LongitudeDegrees>
            </Position>
            <AltitudeMeters>93.8000030517578125</AltitudeMeters>
            <DistanceMeters>NAN</DistanceMeters>
          </Trackpoint>
          <Trackpoint>
            <Time>2022-07-14T16:08:23.000Z</Time>
            <Position>
              <LatitudeDegrees>43.389502801001071929931640625</LatitudeDegrees>
              <LongitudeDegrees>-4.10885998047888278961181640625</LongitudeDegrees>
            </Position>
            <AltitudeMeters>93.8000030517578125</AltitudeMeters>
            <DistanceMeters>NAN</DistanceMeters>
          </Trackpoint>
          <Trackpoint>
            <Time>2022-07-14T16:08:24.000Z</Time>
            <Position>
              <LatitudeDegrees>43.3895214088261127471923828125</LatitudeDegrees>
              <LongitudeDegrees>-4.10883550532162189483642578125</LongitudeDegrees>
            </Position>
            <AltitudeMeters>93.8000030517578125</AltitudeMeters>
            <DistanceMeters>NAN</DistanceMeters>
          </Trackpoint>
          <Trackpoint>
            <Time>2022-07-14T16:08:26.000Z</Time>
            <Position>
              <LatitudeDegrees>43.38955217041075229644775390625</LatitudeDegrees>
              <LongitudeDegrees>-4.1088074259459972381591796875</LongitudeDegrees>
            </Position>
            <AltitudeMeters>93.8000030517578125</AltitudeMeters>
            <DistanceMeters>NAN</DistanceMeters>
          </Trackpoint>
          <Trackpoint>
            <Time>2022-07-14T16:08:27.000Z</Time>
            <Position>
              <LatitudeDegrees>43.3895857818424701690673828125</LatitudeDegrees>
              <LongitudeDegrees>-4.10880801267921924591064453125</LongitudeDegrees>
            </Position>
            <AltitudeMeters>93.8000030517578125</AltitudeMeters>
            <DistanceMeters>NAN</DistanceMeters>
          </Trackpoint>
          <Trackpoint>
            <Time>2022-07-14T16:08:29.000Z</Time>
            <Position>
              <LatitudeDegrees>43.38966834358870983123779296875</LatitudeDegrees>
              <LongitudeDegrees>-4.10880046896636486053466796875</LongitudeDegrees>
            </Position>
            <AltitudeMeters>94</AltitudeMeters>
            <DistanceMeters>NAN</DistanceMeters>
          </Trackpoint>
          <Trackpoint>
            <Time>2022-07-14T16:08:30.000Z</Time>
            <Position>
              <LatitudeDegrees>43.3896957524120807647705078125</LatitudeDegrees>
              <LongitudeDegrees>-4.108761660754680633544921875</LongitudeDegrees>
            </Position>
            <AltitudeMeters>94</AltitudeMeters>
            <DistanceMeters>NAN</DistanceMeters>
          </Trackpoint>
          <Trackpoint>
            <Time>2022-07-14T16:08:31.000Z</Time>
            <Position>
              <LatitudeDegrees>43.38971595279872417449951171875</LatitudeDegrees>
              <LongitudeDegrees>-4.10870877094566822052001953125</LongitudeDegrees>
            </Position>
            <AltitudeMeters>94</AltitudeMeters>
            <DistanceMeters>NAN</DistanceMeters>
          </Trackpoint>
          <Trackpoint>
            <Time>2022-07-14T16:08:32.000Z</Time>
            <Position>
              <LatitudeDegrees>43.38971159420907497406005859375</LatitudeDegrees>
              <LongitudeDegrees>-4.10871212370693683624267578125</LongitudeDegrees>
            </Position>
            <AltitudeMeters>94</AltitudeMeters>
            <DistanceMeters>NAN</DistanceMeters>
          </Trackpoint>
          <Trackpoint>
            <Time>2022-07-14T16:08:34.000Z</Time>
            <Position>
              <LatitudeDegrees>43.3896873705089092254638671875</LatitudeDegrees>
              <LongitudeDegrees>-4.10868932493031024932861328125</LongitudeDegrees>
            </Position>
            <AltitudeMeters>94</AltitudeMeters>
            <DistanceMeters>NAN</DistanceMeters>
          </Trackpoint>
          <Trackpoint>
            <Time>2022-07-14T16:08:36.000Z</Time>
            <Position>
              <LatitudeDegrees>43.3896808326244354248046875</LatitudeDegrees>
              <LongitudeDegrees>-4.1086250357329845428466796875</LongitudeDegrees>
            </Position>
            <AltitudeMeters>94.1999969482421875</AltitudeMeters>
            <DistanceMeters>NAN</DistanceMeters>
          </Trackpoint>
          <Trackpoint>
            <Time>2022-07-14T16:08:37.000Z</Time>
            <Position>
              <LatitudeDegrees>43.38968544267117977142333984375</LatitudeDegrees>
              <LongitudeDegrees>-4.10859846509993076324462890625</LongitudeDegrees>
            </Position>
            <AltitudeMeters>94.1999969482421875</AltitudeMeters>
            <DistanceMeters>NAN</DistanceMeters>
          </Trackpoint>
          <Trackpoint>
            <Time>2022-07-14T16:08:39.000Z</Time>
            <Position>
              <LatitudeDegrees>43.38964487425982952117919921875</LatitudeDegrees>
              <LongitudeDegrees>-4.10853006877005100250244140625</LongitudeDegrees>
            </Position>
            <AltitudeMeters>94.1999969482421875</AltitudeMeters>
            <DistanceMeters>NAN</DistanceMeters>
          </Trackpoint>
          <Trackpoint>
            <Time>2022-07-14T16:08:41.000Z</Time>
            <Position>
              <LatitudeDegrees>43.3896146155893802642822265625</LatitudeDegrees>
              <LongitudeDegrees>-4.10848614759743213653564453125</LongitudeDegrees>
            </Position>
            <AltitudeMeters>94.40000152587890625</AltitudeMeters>
            <DistanceMeters>NAN</DistanceMeters>
          </Trackpoint>
          <Trackpoint>
            <Time>2022-07-14T16:08:43.000Z</Time>
            <Position>
              <LatitudeDegrees>43.3896437846124172210693359375</LatitudeDegrees>
              <LongitudeDegrees>-4.1084419749677181243896484375</LongitudeDegrees>
            </Position>
            <AltitudeMeters>94.40000152587890625</AltitudeMeters>
            <DistanceMeters>NAN</DistanceMeters>
          </Trackpoint>
          <Trackpoint>
            <Time>2022-07-14T16:08:44.000Z</Time>
            <Position>
              <LatitudeDegrees>43.3896689303219318389892578125</LatitudeDegrees>
              <LongitudeDegrees>-4.10843485035002231597900390625</LongitudeDegrees>
            </Position>
            <AltitudeMeters>94.40000152587890625</AltitudeMeters>
            <DistanceMeters>NAN</DistanceMeters>
          </Trackpoint>
          <Trackpoint>
            <Time>2022-07-14T16:08:46.000Z</Time>
            <Position>
              <LatitudeDegrees>43.38969759643077850341796875</LatitudeDegrees>
              <LongitudeDegrees>-4.10839662887156009674072265625</LongitudeDegrees>
            </Position>
            <AltitudeMeters>94.59999847412109375</AltitudeMeters>
            <DistanceMeters>NAN</DistanceMeters>
          </Trackpoint>
          <Trackpoint>
            <Time>2022-07-14T16:08:48.000Z</Time>
            <Position>
              <LatitudeDegrees>43.3897195570170879364013671875</LatitudeDegrees>
              <LongitudeDegrees>-4.10834784619510173797607421875</LongitudeDegrees>
            </Position>
            <AltitudeMeters>94.59999847412109375</AltitudeMeters>
            <DistanceMeters>NAN</DistanceMeters>
          </Trackpoint>
          <Trackpoint>
            <Time>2022-07-14T16:08:51.000Z</Time>
            <Position>
              <LatitudeDegrees>43.38978317566215991973876953125</LatitudeDegrees>
              <LongitudeDegrees>-4.1082780249416828155517578125</LongitudeDegrees>
            </Position>
            <AltitudeMeters>95</AltitudeMeters>
            <DistanceMeters>NAN</DistanceMeters>
          </Trackpoint>
          <Trackpoint>
            <Time>2022-07-14T16:08:52.000Z</Time>
            <Position>
              <LatitudeDegrees>43.38980731554329395294189453125</LatitudeDegrees>
              <LongitudeDegrees>-4.1082619316875934600830078125</LongitudeDegrees>
            </Position>
            <AltitudeMeters>95</AltitudeMeters>
            <DistanceMeters>NAN</DistanceMeters>
          </Trackpoint>
          <Trackpoint>
            <Time>2022-07-14T16:08:55.000Z</Time>
            <Position>
              <LatitudeDegrees>43.38987973518669605255126953125</LatitudeDegrees>
              <LongitudeDegrees>-4.10821323283016681671142578125</LongitudeDegrees>
            </Position>
            <AltitudeMeters>95.1999969482421875</AltitudeMeters>
            <DistanceMeters>NAN</DistanceMeters>
          </Trackpoint>
          <Trackpoint>
            <Time>2022-07-14T16:08:56.000Z</Time>
            <Position>
              <LatitudeDegrees>43.38990144431591033935546875</LatitudeDegrees>
              <LongitudeDegrees>-4.10821457393467426300048828125</LongitudeDegrees>
            </Position>
            <AltitudeMeters>95.1999969482421875</AltitudeMeters>
            <DistanceMeters>NAN</DistanceMeters>
          </Trackpoint>
          <Trackpoint>
            <Time>2022-07-14T16:08:59.000Z</Time>
            <Position>
              <LatitudeDegrees>43.38996640406548976898193359375</LatitudeDegrees>
              <LongitudeDegrees>-4.10824994556605815887451171875</LongitudeDegrees>
            </Position>
            <AltitudeMeters>95.59999847412109375</AltitudeMeters>
            <DistanceMeters>NAN</DistanceMeters>
          </Trackpoint>
          <Trackpoint>
            <Time>2022-07-14T16:09:00.000Z</Time>
            <Position>
              <LatitudeDegrees>43.3899785578250885009765625</LatitudeDegrees>
              <LongitudeDegrees>-4.108271487057209014892578125</LongitudeDegrees>
            </Position>
            <AltitudeMeters>95.59999847412109375</AltitudeMeters>
            <DistanceMeters>NAN</DistanceMeters>
          </Trackpoint>
          <Trackpoint>
            <Time>2022-07-14T16:09:03.000Z</Time>
            <Position>
              <LatitudeDegrees>43.39001317508518695831298828125</LatitudeDegrees>
              <LongitudeDegrees>-4.10832546651363372802734375</LongitudeDegrees>
            </Position>
            <AltitudeMeters>96</AltitudeMeters>
            <DistanceMeters>NAN</DistanceMeters>
          </Trackpoint>
          <Trackpoint>
            <Time>2022-07-14T16:09:09.000Z</Time>
            <Position>
              <LatitudeDegrees>43.3900705911219120025634765625</LatitudeDegrees>
              <LongitudeDegrees>-4.108444154262542724609375</LongitudeDegrees>
            </Position>
            <AltitudeMeters>96.40000152587890625</AltitudeMeters>
            <DistanceMeters>NAN</DistanceMeters>
          </Trackpoint>
          <Trackpoint>
            <Time>2022-07-14T16:09:10.000Z</Time>
            <Position>
              <LatitudeDegrees>43.3900850079953670501708984375</LatitudeDegrees>
              <LongitudeDegrees>-4.10846519283950328826904296875</LongitudeDegrees>
            </Position>
            <AltitudeMeters>96.59999847412109375</AltitudeMeters>
            <DistanceMeters>NAN</DistanceMeters>
          </Trackpoint>
          <Trackpoint>
            <Time>2022-07-14T16:09:13.000Z</Time>
            <Position>
              <LatitudeDegrees>43.39014996774494647979736328125</LatitudeDegrees>
              <LongitudeDegrees>-4.10849654115736484527587890625</LongitudeDegrees>
            </Position>
            <AltitudeMeters>96.59999847412109375</AltitudeMeters>
            <DistanceMeters>NAN</DistanceMeters>
          </Trackpoint>
          <Trackpoint>
            <Time>2022-07-14T16:09:14.000Z</Time>
            <Position>
              <LatitudeDegrees>43.39018039405345916748046875</LatitudeDegrees>
              <LongitudeDegrees>-4.1084910929203033447265625</LongitudeDegrees>
            </Position>
            <AltitudeMeters>96.8000030517578125</AltitudeMeters>
            <DistanceMeters>NAN</DistanceMeters>
          </Trackpoint>
          <Trackpoint>
            <Time>2022-07-14T16:09:17.000Z</Time>
            <Position>
              <LatitudeDegrees>43.39022641070187091827392578125</LatitudeDegrees>
              <LongitudeDegrees>-4.10843200050294399261474609375</LongitudeDegrees>
            </Position>
            <AltitudeMeters>96.8000030517578125</AltitudeMeters>
            <DistanceMeters>NAN</DistanceMeters>
          </Trackpoint>
          <Trackpoint>
            <Time>2022-07-14T16:09:18.000Z</Time>
            <Position>
              <LatitudeDegrees>43.3902342058718204498291015625</LatitudeDegrees>
              <LongitudeDegrees>-4.10840903408825397491455078125</LongitudeDegrees>
            </Position>
            <AltitudeMeters>97</AltitudeMeters>
            <DistanceMeters>NAN</DistanceMeters>
          </Trackpoint>
          <Trackpoint>
            <Time>2022-07-14T16:09:19.000Z</Time>
            <Position>
              <LatitudeDegrees>43.39024820365011692047119140625</LatitudeDegrees>
              <LongitudeDegrees>-4.10839629359543323516845703125</LongitudeDegrees>
            </Position>
            <AltitudeMeters>97</AltitudeMeters>
            <DistanceMeters>NAN</DistanceMeters>
          </Trackpoint>
          <Trackpoint>
            <Time>2022-07-14T16:09:21.000Z</Time>
            <Position>
              <LatitudeDegrees>43.390279971063137054443359375</LatitudeDegrees>
              <LongitudeDegrees>-4.1083896718919277191162109375</LongitudeDegrees>
            </Position>
            <AltitudeMeters>97</AltitudeMeters>
            <DistanceMeters>NAN</DistanceMeters>
          </Trackpoint>
          <Trackpoint>
            <Time>2022-07-14T16:09:23.000Z</Time>
            <Position>
              <LatitudeDegrees>43.39030888862907886505126953125</LatitudeDegrees>
              <LongitudeDegrees>-4.10838204436004161834716796875</LongitudeDegrees>
            </Position>
            <AltitudeMeters>97.1999969482421875</AltitudeMeters>
            <DistanceMeters>NAN</DistanceMeters>
          </Trackpoint>
          <Trackpoint>
            <Time>2022-07-14T16:09:29.000Z</Time>
            <Position>
              <LatitudeDegrees>43.390398323535919189453125</LatitudeDegrees>
              <LongitudeDegrees>-4.1083269752562046051025390625</LongitudeDegrees>
            </Position>
            <AltitudeMeters>97.59999847412109375</AltitudeMeters>
            <DistanceMeters>NAN</DistanceMeters>
          </Trackpoint>
          <Trackpoint>
            <Time>2022-07-14T16:09:35.000Z</Time>
            <Position>
              <LatitudeDegrees>43.390499241650104522705078125</LatitudeDegrees>
              <LongitudeDegrees>-4.1083112172782421112060546875</LongitudeDegrees>
            </Position>
            <AltitudeMeters>98</AltitudeMeters>
            <DistanceMeters>NAN</DistanceMeters>
          </Trackpoint>
          <Trackpoint>
            <Time>2022-07-14T16:09:42.000Z</Time>
            <Position>
              <LatitudeDegrees>43.39060409925878047943115234375</LatitudeDegrees>
              <LongitudeDegrees>-4.10828179679811000823974609375</LongitudeDegrees>
            </Position>
            <AltitudeMeters>98.1999969482421875</AltitudeMeters>
            <DistanceMeters>NAN</DistanceMeters>
          </Trackpoint>
          <Trackpoint>
            <Time>2022-07-14T16:09:47.000Z</Time>
            <Position>
              <LatitudeDegrees>43.39070250280201435089111328125</LatitudeDegrees>
              <LongitudeDegrees>-4.10824743099510669708251953125</LongitudeDegrees>
            </Position>
            <AltitudeMeters>98.1999969482421875</AltitudeMeters>
            <DistanceMeters>NAN</DistanceMeters>
          </Trackpoint>
          <Trackpoint>
            <Time>2022-07-14T16:09:52.000Z</Time>
            <Position>
              <LatitudeDegrees>43.390815742313861846923828125</LatitudeDegrees>
              <LongitudeDegrees>-4.10828389227390289306640625</LongitudeDegrees>
            </Position>
            <AltitudeMeters>98</AltitudeMeters>
            <DistanceMeters>NAN</DistanceMeters>
          </Trackpoint>
          <Trackpoint>
            <Time>2022-07-14T16:09:56.000Z</Time>
            <Position>
              <LatitudeDegrees>43.39088715612888336181640625</LatitudeDegrees>
              <LongitudeDegrees>-4.1083397157490253448486328125</LongitudeDegrees>
            </Position>
            <AltitudeMeters>98.1999969482421875</AltitudeMeters>
            <DistanceMeters>NAN</DistanceMeters>
          </Trackpoint>
          <Trackpoint>
            <Time>2022-07-14T16:09:57.000Z</Time>
            <Position>
              <LatitudeDegrees>43.39089361019432544708251953125</LatitudeDegrees>
              <LongitudeDegrees>-4.10836561582982540130615234375</LongitudeDegrees>
            </Position>
            <AltitudeMeters>98.40000152587890625</AltitudeMeters>
            <DistanceMeters>NAN</DistanceMeters>
          </Trackpoint>
          <Trackpoint>
            <Time>2022-07-14T16:10:01.000Z</Time>
            <Position>
              <LatitudeDegrees>43.39091942645609378814697265625</LatitudeDegrees>
              <LongitudeDegrees>-4.10842345096170902252197265625</LongitudeDegrees>
            </Position>
            <AltitudeMeters>98.8000030517578125</AltitudeMeters>
            <DistanceMeters>NAN</DistanceMeters>
          </Trackpoint>
          <Trackpoint>
            <Time>2022-07-14T16:10:02.000Z</Time>
            <Position>
              <LatitudeDegrees>43.39091976173222064971923828125</LatitudeDegrees>
              <LongitudeDegrees>-4.10842982120811939239501953125</LongitudeDegrees>
            </Position>
            <AltitudeMeters>98.8000030517578125</AltitudeMeters>
            <DistanceMeters>NAN</DistanceMeters>
          </Trackpoint>
          <Trackpoint>
            <Time>2022-07-14T16:10:06.000Z</Time>
            <Position>
              <LatitudeDegrees>43.3909255452454090118408203125</LatitudeDegrees>
              <LongitudeDegrees>-4.10844591446220874786376953125</LongitudeDegrees>
            </Position>
            <AltitudeMeters>99.1999969482421875</AltitudeMeters>
            <DistanceMeters>NAN</DistanceMeters>
          </Trackpoint>
          <Trackpoint>
            <Time>2022-07-14T16:10:07.000Z</Time>
            <Position>
              <LatitudeDegrees>43.39093334041535854339599609375</LatitudeDegrees>
              <LongitudeDegrees>-4.1084721498191356658935546875</LongitudeDegrees>
            </Position>
            <AltitudeMeters>99.40000152587890625</AltitudeMeters>
            <DistanceMeters>NAN</DistanceMeters>
          </Trackpoint>
          <Trackpoint>
            <Time>2022-07-14T16:10:09.000Z</Time>
            <Position>
              <LatitudeDegrees>43.390954546630382537841796875</LatitudeDegrees>
              <LongitudeDegrees>-4.10850123502314090728759765625</LongitudeDegrees>
            </Position>
            <AltitudeMeters>99.59999847412109375</AltitudeMeters>
            <DistanceMeters>NAN</DistanceMeters>
          </Trackpoint>
          <Trackpoint>
            <Time>2022-07-14T16:10:11.000Z</Time>
            <Position>
              <LatitudeDegrees>43.39098597876727581024169921875</LatitudeDegrees>
              <LongitudeDegrees>-4.1085070185363292694091796875</LongitudeDegrees>
            </Position>
            <AltitudeMeters>99.8000030517578125</AltitudeMeters>
            <DistanceMeters>NAN</DistanceMeters>
          </Trackpoint>
          <Trackpoint>
            <Time>2022-07-14T16:10:12.000Z</Time>
            <Position>
              <LatitudeDegrees>43.3909996412694454193115234375</LatitudeDegrees>
              <LongitudeDegrees>-4.10851380787789821624755859375</LongitudeDegrees>
            </Position>
            <AltitudeMeters>100</AltitudeMeters>
            <DistanceMeters>NAN</DistanceMeters>
          </Trackpoint>
          <Trackpoint>
            <Time>2022-07-14T16:10:14.000Z</Time>
            <Position>
              <LatitudeDegrees>43.39101321995258331298828125</LatitudeDegrees>
              <LongitudeDegrees>-4.10851992666721343994140625</LongitudeDegrees>
            </Position>
            <AltitudeMeters>100.1999969482421875</AltitudeMeters>
            <DistanceMeters>NAN</DistanceMeters>
          </Trackpoint>
          <Trackpoint>
            <Time>2022-07-14T16:10:15.000Z</Time>
            <Position>
              <LatitudeDegrees>43.39103157632052898406982421875</LatitudeDegrees>
              <LongitudeDegrees>-4.10852319560945034027099609375</LongitudeDegrees>
            </Position>
            <AltitudeMeters>100.1999969482421875</AltitudeMeters>
            <DistanceMeters>NAN</DistanceMeters>
          </Trackpoint>
          <Trackpoint>
            <Time>2022-07-14T16:10:16.000Z</Time>
            <Position>
              <LatitudeDegrees>43.39104808866977691650390625</LatitudeDegrees>
              <LongitudeDegrees>-4.10853467881679534912109375</LongitudeDegrees>
            </Position>
            <AltitudeMeters>100.40000152587890625</AltitudeMeters>
            <DistanceMeters>NAN</DistanceMeters>
          </Trackpoint>
          <Trackpoint>
            <Time>2022-07-14T16:10:19.000Z</Time>
            <Position>
              <LatitudeDegrees>43.391097374260425567626953125</LatitudeDegrees>
              <LongitudeDegrees>-4.1085445694625377655029296875</LongitudeDegrees>
            </Position>
            <AltitudeMeters>100.40000152587890625</AltitudeMeters>
            <DistanceMeters>NAN</DistanceMeters>
          </Trackpoint>
          <Trackpoint>
            <Time>2022-07-14T16:10:20.000Z</Time>
            <Position>
              <LatitudeDegrees>43.39111656881868839263916015625</LatitudeDegrees>
              <LongitudeDegrees>-4.10854951478540897369384765625</LongitudeDegrees>
            </Position>
            <AltitudeMeters>100.59999847412109375</AltitudeMeters>
            <DistanceMeters>NAN</DistanceMeters>
          </Trackpoint>
          <Trackpoint>
            <Time>2022-07-14T16:10:22.000Z</Time>
            <Position>
              <LatitudeDegrees>43.39114129543304443359375</LatitudeDegrees>
              <LongitudeDegrees>-4.10856929607689380645751953125</LongitudeDegrees>
            </Position>
            <AltitudeMeters>101</AltitudeMeters>
            <DistanceMeters>NAN</DistanceMeters>
          </Trackpoint>
          <Trackpoint>
            <Time>2022-07-14T16:10:25.000Z</Time>
            <Position>
              <LatitudeDegrees>43.39117758907377719879150390625</LatitudeDegrees>
              <LongitudeDegrees>-4.1085755825042724609375</LongitudeDegrees>
            </Position>
            <AltitudeMeters>101</AltitudeMeters>
            <DistanceMeters>NAN</DistanceMeters>
          </Trackpoint>
          <Trackpoint>
            <Time>2022-07-14T16:10:27.000Z</Time>
            <Position>
              <LatitudeDegrees>43.391206674277782440185546875</LatitudeDegrees>
              <LongitudeDegrees>-4.10859578289091587066650390625</LongitudeDegrees>
            </Position>
            <AltitudeMeters>101.1999969482421875</AltitudeMeters>
            <DistanceMeters>NAN</DistanceMeters>
          </Trackpoint>
          <Trackpoint>
            <Time>2022-07-14T16:10:29.000Z</Time>
            <Position>
              <LatitudeDegrees>43.39124095626175403594970703125</LatitudeDegrees>
              <LongitudeDegrees>-4.10861405543982982635498046875</LongitudeDegrees>
            </Position>
            <AltitudeMeters>101.59999847412109375</AltitudeMeters>
            <DistanceMeters>NAN</DistanceMeters>
          </Trackpoint>
          <Trackpoint>
            <Time>2022-07-14T16:10:31.000Z</Time>
            <Position>
              <LatitudeDegrees>43.391285128891468048095703125</LatitudeDegrees>
              <LongitudeDegrees>-4.10862361080944538116455078125</LongitudeDegrees>
            </Position>
            <AltitudeMeters>101.8000030517578125</AltitudeMeters>
            <DistanceMeters>NAN</DistanceMeters>
          </Trackpoint>
          <Trackpoint>
            <Time>2022-07-14T16:10:32.000Z</Time>
            <Position>
              <LatitudeDegrees>43.39129208587110042572021484375</LatitudeDegrees>
              <LongitudeDegrees>-4.1086412966251373291015625</LongitudeDegrees>
            </Position>
            <AltitudeMeters>102</AltitudeMeters>
            <DistanceMeters>NAN</DistanceMeters>
          </Trackpoint>
          <Trackpoint>
            <Time>2022-07-14T16:10:34.000Z</Time>
            <Position>
              <LatitudeDegrees>43.39132024906575679779052734375</LatitudeDegrees>
              <LongitudeDegrees>-4.10867641679942607879638671875</LongitudeDegrees>
            </Position>
            <AltitudeMeters>102.1999969482421875</AltitudeMeters>
            <DistanceMeters>NAN</DistanceMeters>
          </Trackpoint>
          <Trackpoint>
            <Time>2022-07-14T16:10:36.000Z</Time>
            <Position>
              <LatitudeDegrees>43.391365595161914825439453125</LatitudeDegrees>
              <LongitudeDegrees>-4.1086602397263050079345703125</LongitudeDegrees>
            </Position>
            <AltitudeMeters>102.59999847412109375</AltitudeMeters>
            <DistanceMeters>NAN</DistanceMeters>
          </Trackpoint>
          <Trackpoint>
            <Time>2022-07-14T16:10:37.000Z</Time>
            <Position>
              <LatitudeDegrees>43.3913828618824481964111328125</LatitudeDegrees>
              <LongitudeDegrees>-4.1086609102785587310791015625</LongitudeDegrees>
            </Position>
            <AltitudeMeters>102.8000030517578125</AltitudeMeters>
            <DistanceMeters>NAN</DistanceMeters>
          </Trackpoint>
          <Trackpoint>
            <Time>2022-07-14T16:10:38.000Z</Time>
            <Position>
              <LatitudeDegrees>43.39138512499630451202392578125</LatitudeDegrees>
              <LongitudeDegrees>-4.10866384394466876983642578125</LongitudeDegrees>
            </Position>
            <AltitudeMeters>103</AltitudeMeters>
            <DistanceMeters>NAN</DistanceMeters>
          </Trackpoint>
          <Trackpoint>
            <Time>2022-07-14T16:10:40.000Z</Time>
            <Position>
              <LatitudeDegrees>43.3913974463939666748046875</LatitudeDegrees>
              <LongitudeDegrees>-4.10867415368556976318359375</LongitudeDegrees>
            </Position>
            <AltitudeMeters>103.59999847412109375</AltitudeMeters>
            <DistanceMeters>NAN</DistanceMeters>
          </Trackpoint>
          <Trackpoint>
            <Time>2022-07-14T16:10:42.000Z</Time>
            <Position>
              <LatitudeDegrees>43.3914157189428806304931640625</LatitudeDegrees>
              <LongitudeDegrees>-4.108691252768039703369140625</LongitudeDegrees>
            </Position>
            <AltitudeMeters>104.1999969482421875</AltitudeMeters>
            <DistanceMeters>NAN</DistanceMeters>
          </Trackpoint>
          <Trackpoint>
            <Time>2022-07-14T16:10:44.000Z</Time>
            <Position>
              <LatitudeDegrees>43.39143910445272922515869140625</LatitudeDegrees>
              <LongitudeDegrees>-4.10869427025318145751953125</LongitudeDegrees>
            </Position>
            <AltitudeMeters>104.8000030517578125</AltitudeMeters>
            <DistanceMeters>NAN</DistanceMeters>
          </Trackpoint>
          <Trackpoint>
            <Time>2022-07-14T16:10:45.000Z</Time>
            <Position>
              <LatitudeDegrees>43.39145310223102569580078125</LatitudeDegrees>
              <LongitudeDegrees>-4.1087008081376552581787109375</LongitudeDegrees>
            </Position>
            <AltitudeMeters>105</AltitudeMeters>
            <DistanceMeters>NAN</DistanceMeters>
          </Trackpoint>
          <Trackpoint>
            <Time>2022-07-14T16:10:48.000Z</Time>
            <Position>
              <LatitudeDegrees>43.3914792537689208984375</LatitudeDegrees>
              <LongitudeDegrees>-4.10870374180376529693603515625</LongitudeDegrees>
            </Position>
            <AltitudeMeters>105.40000152587890625</AltitudeMeters>
            <DistanceMeters>NAN</DistanceMeters>
          </Trackpoint>
          <Trackpoint>
            <Time>2022-07-14T16:10:52.000Z</Time>
            <Position>
              <LatitudeDegrees>43.391540944576263427734375</LatitudeDegrees>
              <LongitudeDegrees>-4.108752273023128509521484375</LongitudeDegrees>
            </Position>
            <AltitudeMeters>106.1999969482421875</AltitudeMeters>
            <DistanceMeters>NAN</DistanceMeters>
          </Trackpoint>
          <Trackpoint>
            <Time>2022-07-14T16:10:54.000Z</Time>
            <Position>
              <LatitudeDegrees>43.391567766666412353515625</LatitudeDegrees>
              <LongitudeDegrees>-4.10876400768756866455078125</LongitudeDegrees>
            </Position>
            <AltitudeMeters>106.59999847412109375</AltitudeMeters>
            <DistanceMeters>NAN</DistanceMeters>
          </Trackpoint>
          <Trackpoint>
            <Time>2022-07-14T16:10:55.000Z</Time>
            <Position>
              <LatitudeDegrees>43.39157572947442531585693359375</LatitudeDegrees>
              <LongitudeDegrees>-4.10877414979040622711181640625</LongitudeDegrees>
            </Position>
            <AltitudeMeters>106.59999847412109375</AltitudeMeters>
            <DistanceMeters>NAN</DistanceMeters>
          </Trackpoint>
          <Trackpoint>
            <Time>2022-07-14T16:10:56.000Z</Time>
            <Position>
              <LatitudeDegrees>43.39158964343369007110595703125</LatitudeDegrees>
              <LongitudeDegrees>-4.10879342816770076751708984375</LongitudeDegrees>
            </Position>
            <AltitudeMeters>107</AltitudeMeters>
            <DistanceMeters>NAN</DistanceMeters>
          </Trackpoint>
          <Trackpoint>
            <Time>2022-07-14T16:10:59.000Z</Time>
            <Position>
              <LatitudeDegrees>43.39162384159862995147705078125</LatitudeDegrees>
              <LongitudeDegrees>-4.1088379360735416412353515625</LongitudeDegrees>
            </Position>
            <AltitudeMeters>107.8000030517578125</AltitudeMeters>
            <DistanceMeters>NAN</DistanceMeters>
          </Trackpoint>
          <Trackpoint>
            <Time>2022-07-14T16:11:00.000Z</Time>
            <Position>
              <LatitudeDegrees>43.39164756238460540771484375</LatitudeDegrees>
              <LongitudeDegrees>-4.1088372655212879180908203125</LongitudeDegrees>
            </Position>
            <AltitudeMeters>108</AltitudeMeters>
            <DistanceMeters>NAN</DistanceMeters>
          </Trackpoint>
          <Trackpoint>
            <Time>2022-07-14T16:11:02.000Z</Time>
            <Position>
              <LatitudeDegrees>43.39166139252483844757080078125</LatitudeDegrees>
              <LongitudeDegrees>-4.10881823860108852386474609375</LongitudeDegrees>
            </Position>
            <AltitudeMeters>108.40000152587890625</AltitudeMeters>
            <DistanceMeters>NAN</DistanceMeters>
          </Trackpoint>
          <Trackpoint>
            <Time>2022-07-14T16:11:03.000Z</Time>
            <Position>
              <LatitudeDegrees>43.391664326190948486328125</LatitudeDegrees>
              <LongitudeDegrees>-4.10881765186786651611328125</LongitudeDegrees>
            </Position>
            <AltitudeMeters>108.40000152587890625</AltitudeMeters>
            <DistanceMeters>NAN</DistanceMeters>
          </Trackpoint>
          <Trackpoint>
            <Time>2022-07-14T16:11:04.000Z</Time>
            <Position>
              <LatitudeDegrees>43.391664326190948486328125</LatitudeDegrees>
              <LongitudeDegrees>-4.10881765186786651611328125</LongitudeDegrees>
            </Position>
            <AltitudeMeters>108.59999847412109375</AltitudeMeters>
            <DistanceMeters>NAN</DistanceMeters>
          </Trackpoint>
          <Trackpoint>
            <Time>2022-07-14T16:11:31.000Z</Time>
            <Position>
              <LatitudeDegrees>43.3917030505836009979248046875</LatitudeDegrees>
              <LongitudeDegrees>-4.1088701225817203521728515625</LongitudeDegrees>
            </Position>
            <AltitudeMeters>110.8000030517578125</AltitudeMeters>
            <DistanceMeters>NAN</DistanceMeters>
          </Trackpoint>
          <Trackpoint>
            <Time>2022-07-14T16:11:32.000Z</Time>
            <Position>
              <LatitudeDegrees>43.39171419851481914520263671875</LatitudeDegrees>
              <LongitudeDegrees>-4.10888797603547573089599609375</LongitudeDegrees>
            </Position>
            <AltitudeMeters>110.8000030517578125</AltitudeMeters>
            <DistanceMeters>NAN</DistanceMeters>
          </Trackpoint>
          <Trackpoint>
            <Time>2022-07-14T16:11:37.000Z</Time>
            <Position>
              <LatitudeDegrees>43.39178259484469890594482421875</LatitudeDegrees>
              <LongitudeDegrees>-4.10894514061510562896728515625</LongitudeDegrees>
            </Position>
            <AltitudeMeters>111.59999847412109375</AltitudeMeters>
            <DistanceMeters>NAN</DistanceMeters>
          </Trackpoint>
          <Trackpoint>
            <Time>2022-07-14T16:11:38.000Z</Time>
            <Position>
              <LatitudeDegrees>43.39179282076656818389892578125</LatitudeDegrees>
              <LongitudeDegrees>-4.10895955748856067657470703125</LongitudeDegrees>
            </Position>
            <AltitudeMeters>111.8000030517578125</AltitudeMeters>
            <DistanceMeters>NAN</DistanceMeters>
          </Trackpoint>
          <Trackpoint>
            <Time>2022-07-14T16:11:43.000Z</Time>
            <Position>
              <LatitudeDegrees>43.39183573611080646514892578125</LatitudeDegrees>
              <LongitudeDegrees>-4.10902745090425014495849609375</LongitudeDegrees>
            </Position>
            <AltitudeMeters>112.59999847412109375</AltitudeMeters>
            <DistanceMeters>NAN</DistanceMeters>
          </Trackpoint>
          <Trackpoint>
            <Time>2022-07-14T16:11:45.000Z</Time>
            <Position>
              <LatitudeDegrees>43.39185937307775020599365234375</LatitudeDegrees>
              <LongitudeDegrees>-4.10905343480408191680908203125</LongitudeDegrees>
            </Position>
            <AltitudeMeters>113</AltitudeMeters>
            <DistanceMeters>NAN</DistanceMeters>
          </Trackpoint>
          <Trackpoint>
            <Time>2022-07-14T16:11:51.000Z</Time>
            <Position>
              <LatitudeDegrees>43.3919219858944416046142578125</LatitudeDegrees>
              <LongitudeDegrees>-4.10912535153329372406005859375</LongitudeDegrees>
            </Position>
            <AltitudeMeters>113.8000030517578125</AltitudeMeters>
            <DistanceMeters>NAN</DistanceMeters>
          </Trackpoint>
          <Trackpoint>
            <Time>2022-07-14T16:11:53.000Z</Time>
            <Position>
              <LatitudeDegrees>43.39194537140429019927978515625</LatitudeDegrees>
              <LongitudeDegrees>-4.10915116779506206512451171875</LongitudeDegrees>
            </Position>
            <AltitudeMeters>114</AltitudeMeters>
            <DistanceMeters>NAN</DistanceMeters>
          </Trackpoint>
          <Trackpoint>
            <Time>2022-07-14T16:11:56.000Z</Time>
            <Position>
              <LatitudeDegrees>43.39197210967540740966796875</LatitudeDegrees>
              <LongitudeDegrees>-4.10919844172894954681396484375</LongitudeDegrees>
            </Position>
            <AltitudeMeters>114.40000152587890625</AltitudeMeters>
            <DistanceMeters>NAN</DistanceMeters>
          </Trackpoint>
          <Trackpoint>
            <Time>2022-07-14T16:11:59.000Z</Time>
            <Position>
              <LatitudeDegrees>43.39199784211814403533935546875</LatitudeDegrees>
              <LongitudeDegrees>-4.10923280753195285797119140625</LongitudeDegrees>
            </Position>
            <AltitudeMeters>114.59999847412109375</AltitudeMeters>
            <DistanceMeters>NAN</DistanceMeters>
          </Trackpoint>
          <Trackpoint>
            <Time>2022-07-14T16:12:02.000Z</Time>
            <Position>
              <LatitudeDegrees>43.39203170500695705413818359375</LatitudeDegrees>
              <LongitudeDegrees>-4.10927521996200084686279296875</LongitudeDegrees>
            </Position>
            <AltitudeMeters>115</AltitudeMeters>
            <DistanceMeters>NAN</DistanceMeters>
          </Trackpoint>
          <Trackpoint>
            <Time>2022-07-14T16:12:07.000Z</Time>
            <Position>
              <LatitudeDegrees>43.39207864366471767425537109375</LatitudeDegrees>
              <LongitudeDegrees>-4.10935811698436737060546875</LongitudeDegrees>
            </Position>
            <AltitudeMeters>115.8000030517578125</AltitudeMeters>
            <DistanceMeters>NAN</DistanceMeters>
          </Trackpoint>
          <Trackpoint>
            <Time>2022-07-14T16:12:11.000Z</Time>
            <Position>
              <LatitudeDegrees>43.39211049489676952362060546875</LatitudeDegrees>
              <LongitudeDegrees>-4.109422154724597930908203125</LongitudeDegrees>
            </Position>
            <AltitudeMeters>116</AltitudeMeters>
            <DistanceMeters>NAN</DistanceMeters>
          </Trackpoint>
          <Trackpoint>
            <Time>2022-07-14T16:12:14.000Z</Time>
            <Position>
              <LatitudeDegrees>43.3921439386904239654541015625</LatitudeDegrees>
              <LongitudeDegrees>-4.10945995710790157318115234375</LongitudeDegrees>
            </Position>
            <AltitudeMeters>116.1999969482421875</AltitudeMeters>
            <DistanceMeters>NAN</DistanceMeters>
          </Trackpoint>
          <Trackpoint>
            <Time>2022-07-14T16:12:16.000Z</Time>
            <Position>
              <LatitudeDegrees>43.39217059314250946044921875</LatitudeDegrees>
              <LongitudeDegrees>-4.1094870306551456451416015625</LongitudeDegrees>
            </Position>
            <AltitudeMeters>116.40000152587890625</AltitudeMeters>
            <DistanceMeters>NAN</DistanceMeters>
          </Trackpoint>
          <Trackpoint>
            <Time>2022-07-14T16:12:17.000Z</Time>
            <Position>
              <LatitudeDegrees>43.39218609966337680816650390625</LatitudeDegrees>
              <LongitudeDegrees>-4.1095021180808544158935546875</LongitudeDegrees>
            </Position>
            <AltitudeMeters>116.40000152587890625</AltitudeMeters>
            <DistanceMeters>NAN</DistanceMeters>
          </Trackpoint>
          <Trackpoint>
            <Time>2022-07-14T16:12:19.000Z</Time>
            <Position>
              <LatitudeDegrees>43.392206132411956787109375</LatitudeDegrees>
              <LongitudeDegrees>-4.10953204147517681121826171875</LongitudeDegrees>
            </Position>
            <AltitudeMeters>116.59999847412109375</AltitudeMeters>
            <DistanceMeters>NAN</DistanceMeters>
          </Trackpoint>
          <Trackpoint>
            <Time>2022-07-14T16:12:21.000Z</Time>
            <Position>
              <LatitudeDegrees>43.3922150172293186187744140625</LatitudeDegrees>
              <LongitudeDegrees>-4.1095617972314357757568359375</LongitudeDegrees>
            </Position>
            <AltitudeMeters>116.59999847412109375</AltitudeMeters>
            <DistanceMeters>NAN</DistanceMeters>
          </Trackpoint>
          <Trackpoint>
            <Time>2022-07-14T16:12:23.000Z</Time>
            <Position>
              <LatitudeDegrees>43.39222582988440990447998046875</LatitudeDegrees>
              <LongitudeDegrees>-4.10959809087216854095458984375</LongitudeDegrees>
            </Position>
            <AltitudeMeters>117</AltitudeMeters>
            <DistanceMeters>NAN</DistanceMeters>
          </Trackpoint>
          <Trackpoint>
            <Time>2022-07-14T16:12:24.000Z</Time>
            <Position>
              <LatitudeDegrees>43.39223119430243968963623046875</LatitudeDegrees>
              <LongitudeDegrees>-4.10961586050689220428466796875</LongitudeDegrees>
            </Position>
            <AltitudeMeters>117.1999969482421875</AltitudeMeters>
            <DistanceMeters>NAN</DistanceMeters>
          </Trackpoint>
          <Trackpoint>
            <Time>2022-07-14T16:12:25.000Z</Time>
            <Position>
              <LatitudeDegrees>43.3922394923865795135498046875</LatitudeDegrees>
              <LongitudeDegrees>-4.1096305288374423980712890625</LongitudeDegrees>
            </Position>
            <AltitudeMeters>117.40000152587890625</AltitudeMeters>
            <DistanceMeters>NAN</DistanceMeters>
          </Trackpoint>
          <Trackpoint>
            <Time>2022-07-14T16:12:27.000Z</Time>
            <Position>
              <LatitudeDegrees>43.3922612853348255157470703125</LatitudeDegrees>
              <LongitudeDegrees>-4.10965844057500362396240234375</LongitudeDegrees>
            </Position>
            <AltitudeMeters>117.8000030517578125</AltitudeMeters>
            <DistanceMeters>NAN</DistanceMeters>
          </Trackpoint>
          <Trackpoint>
            <Time>2022-07-14T16:12:28.000Z</Time>
            <Position>
              <LatitudeDegrees>43.39227025397121906280517578125</LatitudeDegrees>
              <LongitudeDegrees>-4.10967193543910980224609375</LongitudeDegrees>
            </Position>
            <AltitudeMeters>117.8000030517578125</AltitudeMeters>
            <DistanceMeters>NAN</DistanceMeters>
          </Trackpoint>
          <Trackpoint>
            <Time>2022-07-14T16:12:29.000Z</Time>
            <Position>
              <LatitudeDegrees>43.39227846823632717132568359375</LatitudeDegrees>
              <LongitudeDegrees>-4.10968526266515254974365234375</LongitudeDegrees>
            </Position>
            <AltitudeMeters>118</AltitudeMeters>
            <DistanceMeters>NAN</DistanceMeters>
          </Trackpoint>
          <Trackpoint>
            <Time>2022-07-14T16:12:30.000Z</Time>
            <Position>
              <LatitudeDegrees>43.3922901190817356109619140625</LatitudeDegrees>
              <LongitudeDegrees>-4.1096989251673221588134765625</LongitudeDegrees>
            </Position>
            <AltitudeMeters>118.1999969482421875</AltitudeMeters>
            <DistanceMeters>NAN</DistanceMeters>
          </Trackpoint>
          <Trackpoint>
            <Time>2022-07-14T16:12:32.000Z</Time>
            <Position>
              <LatitudeDegrees>43.39231333695352077484130859375</LatitudeDegrees>
              <LongitudeDegrees>-4.109719879925251007080078125</LongitudeDegrees>
            </Position>
            <AltitudeMeters>118.59999847412109375</AltitudeMeters>
            <DistanceMeters>NAN</DistanceMeters>
          </Trackpoint>
          <Trackpoint>
            <Time>2022-07-14T16:12:36.000Z</Time>
            <Position>
              <LatitudeDegrees>43.39235474355518817901611328125</LatitudeDegrees>
              <LongitudeDegrees>-4.10977293737232685089111328125</LongitudeDegrees>
            </Position>
            <AltitudeMeters>119.40000152587890625</AltitudeMeters>
            <DistanceMeters>NAN</DistanceMeters>
          </Trackpoint>
          <Trackpoint>
            <Time>2022-07-14T16:12:40.000Z</Time>
            <Position>
              <LatitudeDegrees>43.392386175692081451416015625</LatitudeDegrees>
              <LongitudeDegrees>-4.10983429290354251861572265625</LongitudeDegrees>
            </Position>
            <AltitudeMeters>120.1999969482421875</AltitudeMeters>
            <DistanceMeters>NAN</DistanceMeters>
          </Trackpoint>
          <Trackpoint>
            <Time>2022-07-14T16:12:41.000Z</Time>
            <Position>
              <LatitudeDegrees>43.39240117929875850677490234375</LatitudeDegrees>
              <LongitudeDegrees>-4.10984988324344158172607421875</LongitudeDegrees>
            </Position>
            <AltitudeMeters>120.40000152587890625</AltitudeMeters>
            <DistanceMeters>NAN</DistanceMeters>
          </Trackpoint>
          <Trackpoint>
            <Time>2022-07-14T16:12:46.000Z</Time>
            <Position>
              <LatitudeDegrees>43.39244727976620197296142578125</LatitudeDegrees>
              <LongitudeDegrees>-4.1099047847092151641845703125</LongitudeDegrees>
            </Position>
            <AltitudeMeters>121.59999847412109375</AltitudeMeters>
            <DistanceMeters>NAN</DistanceMeters>
          </Trackpoint>
          <Trackpoint>
            <Time>2022-07-14T16:12:50.000Z</Time>
            <Position>
              <LatitudeDegrees>43.3924810588359832763671875</LatitudeDegrees>
              <LongitudeDegrees>-4.10996069200336933135986328125</LongitudeDegrees>
            </Position>
            <AltitudeMeters>122.1999969482421875</AltitudeMeters>
            <DistanceMeters>NAN</DistanceMeters>
          </Trackpoint>
          <Trackpoint>
            <Time>2022-07-14T16:12:52.000Z</Time>
            <Position>
              <LatitudeDegrees>43.392490446567535400390625</LatitudeDegrees>
              <LongitudeDegrees>-4.10998935811221599578857421875</LongitudeDegrees>
            </Position>
            <AltitudeMeters>122.59999847412109375</AltitudeMeters>
            <DistanceMeters>NAN</DistanceMeters>
          </Trackpoint>
          <Trackpoint>
            <Time>2022-07-14T16:12:56.000Z</Time>
            <Position>
              <LatitudeDegrees>43.39252858422696590423583984375</LatitudeDegrees>
              <LongitudeDegrees>-4.11002925597131252288818359375</LongitudeDegrees>
            </Position>
            <AltitudeMeters>123.40000152587890625</AltitudeMeters>
            <DistanceMeters>NAN</DistanceMeters>
          </Trackpoint>
          <Trackpoint>
            <Time>2022-07-14T16:12:58.000Z</Time>
            <Position>
              <LatitudeDegrees>43.39254903607070446014404296875</LatitudeDegrees>
              <LongitudeDegrees>-4.11005473695695400238037109375</LongitudeDegrees>
            </Position>
            <AltitudeMeters>123.8000030517578125</AltitudeMeters>
            <DistanceMeters>NAN</DistanceMeters>
          </Trackpoint>
          <Trackpoint>
            <Time>2022-07-14T16:12:59.000Z</Time>
            <Position>
              <LatitudeDegrees>43.39255641214549541473388671875</LatitudeDegrees>
              <LongitudeDegrees>-4.11006680689752101898193359375</LongitudeDegrees>
            </Position>
            <AltitudeMeters>124</AltitudeMeters>
            <DistanceMeters>NAN</DistanceMeters>
          </Trackpoint>
          <Trackpoint>
            <Time>2022-07-14T16:13:03.000Z</Time>
            <Position>
              <LatitudeDegrees>43.3925952203571796417236328125</LatitudeDegrees>
              <LongitudeDegrees>-4.1101096384227275848388671875</LongitudeDegrees>
            </Position>
            <AltitudeMeters>124.8000030517578125</AltitudeMeters>
            <DistanceMeters>NAN</DistanceMeters>
          </Trackpoint>
          <Trackpoint>
            <Time>2022-07-14T16:13:04.000Z</Time>
            <Position>
              <LatitudeDegrees>43.39260553009808063507080078125</LatitudeDegrees>
              <LongitudeDegrees>-4.1101260669529438018798828125</LongitudeDegrees>
            </Position>
            <AltitudeMeters>125</AltitudeMeters>
            <DistanceMeters>NAN</DistanceMeters>
          </Trackpoint>
          <Trackpoint>
            <Time>2022-07-14T16:13:08.000Z</Time>
            <Position>
              <LatitudeDegrees>43.39263302274048328399658203125</LatitudeDegrees>
              <LongitudeDegrees>-4.11017526872456073760986328125</LongitudeDegrees>
            </Position>
            <AltitudeMeters>125.59999847412109375</AltitudeMeters>
            <DistanceMeters>NAN</DistanceMeters>
          </Trackpoint>
          <Trackpoint>
            <Time>2022-07-14T16:13:11.000Z</Time>
            <Position>
              <LatitudeDegrees>43.39266051538288593292236328125</LatitudeDegrees>
              <LongitudeDegrees>-4.11021784879267215728759765625</LongitudeDegrees>
            </Position>
            <AltitudeMeters>126</AltitudeMeters>
            <DistanceMeters>NAN</DistanceMeters>
          </Trackpoint>
          <Trackpoint>
            <Time>2022-07-14T16:13:13.000Z</Time>
            <Position>
              <LatitudeDegrees>43.392682559788227081298828125</LatitudeDegrees>
              <LongitudeDegrees>-4.110240228474140167236328125</LongitudeDegrees>
            </Position>
            <AltitudeMeters>126.1999969482421875</AltitudeMeters>
            <DistanceMeters>NAN</DistanceMeters>
          </Trackpoint>
          <Trackpoint>
            <Time>2022-07-14T16:13:17.000Z</Time>
            <Position>
              <LatitudeDegrees>43.3927306719124317169189453125</LatitudeDegrees>
              <LongitudeDegrees>-4.1102873347699642181396484375</LongitudeDegrees>
            </Position>
            <AltitudeMeters>126.40000152587890625</AltitudeMeters>
            <DistanceMeters>NAN</DistanceMeters>
          </Trackpoint>
          <Trackpoint>
            <Time>2022-07-14T16:13:20.000Z</Time>
            <Position>
              <LatitudeDegrees>43.39275841601192951202392578125</LatitudeDegrees>
              <LongitudeDegrees>-4.110332429409027099609375</LongitudeDegrees>
            </Position>
            <AltitudeMeters>126.8000030517578125</AltitudeMeters>
            <DistanceMeters>NAN</DistanceMeters>
          </Trackpoint>
          <Trackpoint>
            <Time>2022-07-14T16:13:22.000Z</Time>
            <Position>
              <LatitudeDegrees>43.39278356172144412994384765625</LatitudeDegrees>
              <LongitudeDegrees>-4.11036721430718898773193359375</LongitudeDegrees>
            </Position>
            <AltitudeMeters>127</AltitudeMeters>
            <DistanceMeters>NAN</DistanceMeters>
          </Trackpoint>
          <Trackpoint>
            <Time>2022-07-14T16:13:28.000Z</Time>
            <Position>
              <LatitudeDegrees>43.39285229332745075225830078125</LatitudeDegrees>
              <LongitudeDegrees>-4.11043376661837100982666015625</LongitudeDegrees>
            </Position>
            <AltitudeMeters>128.1999969482421875</AltitudeMeters>
            <DistanceMeters>NAN</DistanceMeters>
          </Trackpoint>
          <Trackpoint>
            <Time>2022-07-14T16:13:35.000Z</Time>
            <Position>
              <LatitudeDegrees>43.39291247539222240447998046875</LatitudeDegrees>
              <LongitudeDegrees>-4.110537953674793243408203125</LongitudeDegrees>
            </Position>
            <AltitudeMeters>129.1999969482421875</AltitudeMeters>
            <DistanceMeters>NAN</DistanceMeters>
          </Trackpoint>
          <Trackpoint>
            <Time>2022-07-14T16:13:36.000Z</Time>
            <Position>
              <LatitudeDegrees>43.39292722754180431365966796875</LatitudeDegrees>
              <LongitudeDegrees>-4.11054206080734729766845703125</LongitudeDegrees>
            </Position>
            <AltitudeMeters>129.1999969482421875</AltitudeMeters>
            <DistanceMeters>NAN</DistanceMeters>
          </Trackpoint>
          <Trackpoint>
            <Time>2022-07-14T16:13:40.000Z</Time>
            <Position>
              <LatitudeDegrees>43.3929693885147571563720703125</LatitudeDegrees>
              <LongitudeDegrees>-4.11060727201402187347412109375</LongitudeDegrees>
            </Position>
            <AltitudeMeters>130</AltitudeMeters>
            <DistanceMeters>NAN</DistanceMeters>
          </Trackpoint>
          <Trackpoint>
            <Time>2022-07-14T16:13:41.000Z</Time>
            <Position>
              <LatitudeDegrees>43.392980284988880157470703125</LatitudeDegrees>
              <LongitudeDegrees>-4.11062302999198436737060546875</LongitudeDegrees>
            </Position>
            <AltitudeMeters>130.399993896484375</AltitudeMeters>
            <DistanceMeters>NAN</DistanceMeters>
          </Trackpoint>
          <Trackpoint>
            <Time>2022-07-14T16:13:45.000Z</Time>
            <Position>
              <LatitudeDegrees>43.39303669519722461700439453125</LatitudeDegrees>
              <LongitudeDegrees>-4.1106832958757877349853515625</LongitudeDegrees>
            </Position>
            <AltitudeMeters>130.8000030517578125</AltitudeMeters>
            <DistanceMeters>NAN</DistanceMeters>
          </Trackpoint>
          <Trackpoint>
            <Time>2022-07-14T16:13:51.000Z</Time>
            <Position>
              <LatitudeDegrees>43.393123447895050048828125</LatitudeDegrees>
              <LongitudeDegrees>-4.1107600741088390350341796875</LongitudeDegrees>
            </Position>
            <AltitudeMeters>131.399993896484375</AltitudeMeters>
            <DistanceMeters>NAN</DistanceMeters>
          </Trackpoint>
          <Trackpoint>
            <Time>2022-07-14T16:13:54.000Z</Time>
            <Position>
              <LatitudeDegrees>43.39316393248736858367919921875</LatitudeDegrees>
              <LongitudeDegrees>-4.110807515680789947509765625</LongitudeDegrees>
            </Position>
            <AltitudeMeters>131.8000030517578125</AltitudeMeters>
            <DistanceMeters>NAN</DistanceMeters>
          </Trackpoint>
          <Trackpoint>
            <Time>2022-07-14T16:13:59.000Z</Time>
            <Position>
              <LatitudeDegrees>43.393231071531772613525390625</LatitudeDegrees>
              <LongitudeDegrees>-4.11089234054088592529296875</LongitudeDegrees>
            </Position>
            <AltitudeMeters>132.1999969482421875</AltitudeMeters>
            <DistanceMeters>NAN</DistanceMeters>
          </Trackpoint>
          <Trackpoint>
            <Time>2022-07-14T16:14:01.000Z</Time>
            <Position>
              <LatitudeDegrees>43.3932547084987163543701171875</LatitudeDegrees>
              <LongitudeDegrees>-4.1109233535826206207275390625</LongitudeDegrees>
            </Position>
            <AltitudeMeters>132.399993896484375</AltitudeMeters>
            <DistanceMeters>NAN</DistanceMeters>
          </Trackpoint>
          <Trackpoint>
            <Time>2022-07-14T16:14:04.000Z</Time>
            <Position>
              <LatitudeDegrees>43.3932996354997158050537109375</LatitudeDegrees>
              <LongitudeDegrees>-4.110963754355907440185546875</LongitudeDegrees>
            </Position>
            <AltitudeMeters>132.600006103515625</AltitudeMeters>
            <DistanceMeters>NAN</DistanceMeters>
          </Trackpoint>
          <Trackpoint>
            <Time>2022-07-14T16:14:11.000Z</Time>
            <Position>
              <LatitudeDegrees>43.3933956921100616455078125</LatitudeDegrees>
              <LongitudeDegrees>-4.11106576211750507354736328125</LongitudeDegrees>
            </Position>
            <AltitudeMeters>133.399993896484375</AltitudeMeters>
            <DistanceMeters>NAN</DistanceMeters>
          </Trackpoint>
          <Trackpoint>
            <Time>2022-07-14T16:14:14.000Z</Time>
            <Position>
              <LatitudeDegrees>43.39342393912374973297119140625</LatitudeDegrees>
              <LongitudeDegrees>-4.11109593696892261505126953125</LongitudeDegrees>
            </Position>
            <AltitudeMeters>134</AltitudeMeters>
            <DistanceMeters>NAN</DistanceMeters>
          </Trackpoint>
          <Trackpoint>
            <Time>2022-07-14T16:14:17.000Z</Time>
            <Position>
              <LatitudeDegrees>43.3934454806149005889892578125</LatitudeDegrees>
              <LongitudeDegrees>-4.11114086396992206573486328125</LongitudeDegrees>
            </Position>
            <AltitudeMeters>134.399993896484375</AltitudeMeters>
            <DistanceMeters>NAN</DistanceMeters>
          </Trackpoint>
          <Trackpoint>
            <Time>2022-07-14T16:14:22.000Z</Time>
            <Position>
              <LatitudeDegrees>43.393482528626918792724609375</LatitudeDegrees>
              <LongitudeDegrees>-4.1112365014851093292236328125</LongitudeDegrees>
            </Position>
            <AltitudeMeters>135.1999969482421875</AltitudeMeters>
            <DistanceMeters>NAN</DistanceMeters>
          </Trackpoint>
          <Trackpoint>
            <Time>2022-07-14T16:14:24.000Z</Time>
            <Position>
              <LatitudeDegrees>43.3934991247951984405517578125</LatitudeDegrees>
              <LongitudeDegrees>-4.11127195693552494049072265625</LongitudeDegrees>
            </Position>
            <AltitudeMeters>135.8000030517578125</AltitudeMeters>
            <DistanceMeters>NAN</DistanceMeters>
          </Trackpoint>
          <Trackpoint>
            <Time>2022-07-14T16:14:30.000Z</Time>
            <Position>
              <LatitudeDegrees>43.39353206567466259002685546875</LatitudeDegrees>
              <LongitudeDegrees>-4.111369438469409942626953125</LongitudeDegrees>
            </Position>
            <AltitudeMeters>136.8000030517578125</AltitudeMeters>
            <DistanceMeters>NAN</DistanceMeters>
          </Trackpoint>
          <Trackpoint>
            <Time>2022-07-14T16:14:35.000Z</Time>
            <Position>
              <LatitudeDegrees>43.39353910647332668304443359375</LatitudeDegrees>
              <LongitudeDegrees>-4.11145619116723537445068359375</LongitudeDegrees>
            </Position>
            <AltitudeMeters>137.600006103515625</AltitudeMeters>
            <DistanceMeters>NAN</DistanceMeters>
          </Trackpoint>
          <Trackpoint>
            <Time>2022-07-14T16:14:37.000Z</Time>
            <Position>
              <LatitudeDegrees>43.39353994466364383697509765625</LatitudeDegrees>
              <LongitudeDegrees>-4.111495502293109893798828125</LongitudeDegrees>
            </Position>
            <AltitudeMeters>138</AltitudeMeters>
            <DistanceMeters>NAN</DistanceMeters>
          </Trackpoint>
          <Trackpoint>
            <Time>2022-07-14T16:14:44.000Z</Time>
            <Position>
              <LatitudeDegrees>43.39355838485062122344970703125</LatitudeDegrees>
              <LongitudeDegrees>-4.11163489334285259246826171875</LongitudeDegrees>
            </Position>
            <AltitudeMeters>139</AltitudeMeters>
            <DistanceMeters>NAN</DistanceMeters>
          </Trackpoint>
          <Trackpoint>
            <Time>2022-07-14T16:14:45.000Z</Time>
            <Position>
              <LatitudeDegrees>43.393558301031589508056640625</LatitudeDegrees>
              <LongitudeDegrees>-4.11164629273116588592529296875</LongitudeDegrees>
            </Position>
            <AltitudeMeters>139.1999969482421875</AltitudeMeters>
            <DistanceMeters>NAN</DistanceMeters>
          </Trackpoint>
          <Trackpoint>
            <Time>2022-07-14T16:14:54.000Z</Time>
            <Position>
              <LatitudeDegrees>43.39358705095946788787841796875</LatitudeDegrees>
              <LongitudeDegrees>-4.11184159107506275177001953125</LongitudeDegrees>
            </Position>
            <AltitudeMeters>140.1999969482421875</AltitudeMeters>
            <DistanceMeters>NAN</DistanceMeters>
          </Trackpoint>
          <Trackpoint>
            <Time>2022-07-14T16:14:55.000Z</Time>
            <Position>
              <LatitudeDegrees>43.3935903199017047882080078125</LatitudeDegrees>
              <LongitudeDegrees>-4.11186288110911846160888671875</LongitudeDegrees>
            </Position>
            <AltitudeMeters>140.1999969482421875</AltitudeMeters>
            <DistanceMeters>NAN</DistanceMeters>
          </Trackpoint>
          <Trackpoint>
            <Time>2022-07-14T16:15:00.000Z</Time>
            <Position>
              <LatitudeDegrees>43.39360666461288928985595703125</LatitudeDegrees>
              <LongitudeDegrees>-4.11196011118590831756591796875</LongitudeDegrees>
            </Position>
            <AltitudeMeters>140.8000030517578125</AltitudeMeters>
            <DistanceMeters>NAN</DistanceMeters>
          </Trackpoint>
          <Trackpoint>
            <Time>2022-07-14T16:15:02.000Z</Time>
            <Position>
              <LatitudeDegrees>43.39361521415412425994873046875</LatitudeDegrees>
              <LongitudeDegrees>-4.111999087035655975341796875</LongitudeDegrees>
            </Position>
            <AltitudeMeters>141</AltitudeMeters>
            <DistanceMeters>NAN</DistanceMeters>
          </Trackpoint>
          <Trackpoint>
            <Time>2022-07-14T16:15:04.000Z</Time>
            <Position>
              <LatitudeDegrees>43.39361638762056827545166015625</LatitudeDegrees>
              <LongitudeDegrees>-4.1120324470102787017822265625</LongitudeDegrees>
            </Position>
            <AltitudeMeters>141.1999969482421875</AltitudeMeters>
            <DistanceMeters>NAN</DistanceMeters>
          </Trackpoint>
          <Trackpoint>
            <Time>2022-07-14T16:15:10.000Z</Time>
            <Position>
              <LatitudeDegrees>43.393633067607879638671875</LatitudeDegrees>
              <LongitudeDegrees>-4.1121487878262996673583984375</LongitudeDegrees>
            </Position>
            <AltitudeMeters>141.600006103515625</AltitudeMeters>
            <DistanceMeters>NAN</DistanceMeters>
          </Trackpoint>
          <Trackpoint>
            <Time>2022-07-14T16:15:17.000Z</Time>
            <Position>
              <LatitudeDegrees>43.3936496637761592864990234375</LatitudeDegrees>
              <LongitudeDegrees>-4.1122748516499996185302734375</LongitudeDegrees>
            </Position>
            <AltitudeMeters>142.1999969482421875</AltitudeMeters>
            <DistanceMeters>NAN</DistanceMeters>
          </Trackpoint>
          <Trackpoint>
            <Time>2022-07-14T16:15:19.000Z</Time>
            <Position>
              <LatitudeDegrees>43.3936577104032039642333984375</LatitudeDegrees>
              <LongitudeDegrees>-4.11230946891009807586669921875</LongitudeDegrees>
            </Position>
            <AltitudeMeters>142.399993896484375</AltitudeMeters>
            <DistanceMeters>NAN</DistanceMeters>
          </Trackpoint>
          <Trackpoint>
            <Time>2022-07-14T16:15:25.000Z</Time>
            <Position>
              <LatitudeDegrees>43.39367405511438846588134765625</LatitudeDegrees>
              <LongitudeDegrees>-4.11242463625967502593994140625</LongitudeDegrees>
            </Position>
            <AltitudeMeters>143.1999969482421875</AltitudeMeters>
            <DistanceMeters>NAN</DistanceMeters>
          </Trackpoint>
          <Trackpoint>
            <Time>2022-07-14T16:15:29.000Z</Time>
            <Position>
              <LatitudeDegrees>43.3936865441501140594482421875</LatitudeDegrees>
              <LongitudeDegrees>-4.11251063458621501922607421875</LongitudeDegrees>
            </Position>
            <AltitudeMeters>143.399993896484375</AltitudeMeters>
            <DistanceMeters>NAN</DistanceMeters>
          </Trackpoint>
          <Trackpoint>
            <Time>2022-07-14T16:15:36.000Z</Time>
            <Position>
              <LatitudeDegrees>43.393735326826572418212890625</LatitudeDegrees>
              <LongitudeDegrees>-4.11264994181692600250244140625</LongitudeDegrees>
            </Position>
            <AltitudeMeters>143.8000030517578125</AltitudeMeters>
            <DistanceMeters>NAN</DistanceMeters>
          </Trackpoint>
          <Trackpoint>
            <Time>2022-07-14T16:15:38.000Z</Time>
            <Position>
              <LatitudeDegrees>43.39374882169067859649658203125</LatitudeDegrees>
              <LongitudeDegrees>-4.11268648691475391387939453125</LongitudeDegrees>
            </Position>
            <AltitudeMeters>144</AltitudeMeters>
            <DistanceMeters>NAN</DistanceMeters>
          </Trackpoint>
          <Trackpoint>
            <Time>2022-07-14T16:15:41.000Z</Time>
            <Position>
              <LatitudeDegrees>43.39377723634243011474609375</LatitudeDegrees>
              <LongitudeDegrees>-4.11273661069571971893310546875</LongitudeDegrees>
            </Position>
            <AltitudeMeters>144</AltitudeMeters>
            <DistanceMeters>NAN</DistanceMeters>
          </Trackpoint>
          <Trackpoint>
            <Time>2022-07-14T16:15:43.000Z</Time>
            <Position>
              <LatitudeDegrees>43.39379869401454925537109375</LatitudeDegrees>
              <LongitudeDegrees>-4.11277214996516704559326171875</LongitudeDegrees>
            </Position>
            <AltitudeMeters>144.1999969482421875</AltitudeMeters>
            <DistanceMeters>NAN</DistanceMeters>
          </Trackpoint>
          <Trackpoint>
            <Time>2022-07-14T16:15:45.000Z</Time>
            <Position>
              <LatitudeDegrees>43.39381503872573375701904296875</LatitudeDegrees>
              <LongitudeDegrees>-4.11280048079788684844970703125</LongitudeDegrees>
            </Position>
            <AltitudeMeters>144.1999969482421875</AltitudeMeters>
            <DistanceMeters>NAN</DistanceMeters>
          </Trackpoint>
          <Trackpoint>
            <Time>2022-07-14T16:15:47.000Z</Time>
            <Position>
              <LatitudeDegrees>43.3938169665634632110595703125</LatitudeDegrees>
              <LongitudeDegrees>-4.11283023655414581298828125</LongitudeDegrees>
            </Position>
            <AltitudeMeters>144.1999969482421875</AltitudeMeters>
            <DistanceMeters>NAN</DistanceMeters>
          </Trackpoint>
          <Trackpoint>
            <Time>2022-07-14T16:15:48.000Z</Time>
            <Position>
              <LatitudeDegrees>43.3938069082796573638916015625</LatitudeDegrees>
              <LongitudeDegrees>-4.11284255795180797576904296875</LongitudeDegrees>
            </Position>
            <AltitudeMeters>144.1999969482421875</AltitudeMeters>
            <DistanceMeters>NAN</DistanceMeters>
          </Trackpoint>
          <Trackpoint>
            <Time>2022-07-14T16:15:51.000Z</Time>
            <Position>
              <LatitudeDegrees>43.39376659132540225982666015625</LatitudeDegrees>
              <LongitudeDegrees>-4.1128753311932086944580078125</LongitudeDegrees>
            </Position>
            <AltitudeMeters>144.1999969482421875</AltitudeMeters>
            <DistanceMeters>NAN</DistanceMeters>
          </Trackpoint>
          <Trackpoint>
            <Time>2022-07-14T16:15:53.000Z</Time>
            <Position>
              <LatitudeDegrees>43.3937562815845012664794921875</LatitudeDegrees>
              <LongitudeDegrees>-4.1129182465374469757080078125</LongitudeDegrees>
            </Position>
            <AltitudeMeters>144.399993896484375</AltitudeMeters>
            <DistanceMeters>NAN</DistanceMeters>
          </Trackpoint>
          <Trackpoint>
            <Time>2022-07-14T16:15:54.000Z</Time>
            <Position>
              <LatitudeDegrees>43.39375753886997699737548828125</LatitudeDegrees>
              <LongitudeDegrees>-4.11293257959187030792236328125</LongitudeDegrees>
            </Position>
            <AltitudeMeters>144.600006103515625</AltitudeMeters>
            <DistanceMeters>NAN</DistanceMeters>
          </Trackpoint>
          <Trackpoint>
            <Time>2022-07-14T16:16:02.000Z</Time>
            <Position>
              <LatitudeDegrees>43.3937827683985233306884765625</LatitudeDegrees>
              <LongitudeDegrees>-4.11307490430772304534912109375</LongitudeDegrees>
            </Position>
            <AltitudeMeters>145.1999969482421875</AltitudeMeters>
            <DistanceMeters>NAN</DistanceMeters>
          </Trackpoint>
          <Trackpoint>
            <Time>2022-07-14T16:16:04.000Z</Time>
            <Position>
              <LatitudeDegrees>43.39378972537815570831298828125</LatitudeDegrees>
              <LongitudeDegrees>-4.11310457624495029449462890625</LongitudeDegrees>
            </Position>
            <AltitudeMeters>145.399993896484375</AltitudeMeters>
            <DistanceMeters>NAN</DistanceMeters>
          </Trackpoint>
          <Trackpoint>
            <Time>2022-07-14T16:16:09.000Z</Time>
            <Position>
              <LatitudeDegrees>43.3938181400299072265625</LatitudeDegrees>
              <LongitudeDegrees>-4.11320842802524566650390625</LongitudeDegrees>
            </Position>
            <AltitudeMeters>145.600006103515625</AltitudeMeters>
            <DistanceMeters>NAN</DistanceMeters>
          </Trackpoint>
          <Trackpoint>
            <Time>2022-07-14T16:16:14.000Z</Time>
            <Position>
              <LatitudeDegrees>43.39384219609200954437255859375</LatitudeDegrees>
              <LongitudeDegrees>-4.11331093870103359222412109375</LongitudeDegrees>
            </Position>
            <AltitudeMeters>145.8000030517578125</AltitudeMeters>
            <DistanceMeters>NAN</DistanceMeters>
          </Trackpoint>
          <Trackpoint>
            <Time>2022-07-14T16:16:18.000Z</Time>
            <Position>
              <LatitudeDegrees>43.3938685990869998931884765625</LatitudeDegrees>
              <LongitudeDegrees>-4.11340012215077877044677734375</LongitudeDegrees>
            </Position>
            <AltitudeMeters>146.1999969482421875</AltitudeMeters>
            <DistanceMeters>NAN</DistanceMeters>
          </Trackpoint>
          <Trackpoint>
            <Time>2022-07-14T16:16:23.000Z</Time>
            <Position>
              <LatitudeDegrees>43.39390103705227375030517578125</LatitudeDegrees>
              <LongitudeDegrees>-4.1135069914162158966064453125</LongitudeDegrees>
            </Position>
            <AltitudeMeters>146.8000030517578125</AltitudeMeters>
            <DistanceMeters>NAN</DistanceMeters>
          </Trackpoint>
          <Trackpoint>
            <Time>2022-07-14T16:16:30.000Z</Time>
            <Position>
              <LatitudeDegrees>43.3939346484839916229248046875</LatitudeDegrees>
              <LongitudeDegrees>-4.11363196559250354766845703125</LongitudeDegrees>
            </Position>
            <AltitudeMeters>147.399993896484375</AltitudeMeters>
            <DistanceMeters>NAN</DistanceMeters>
          </Trackpoint>
          <Trackpoint>
            <Time>2022-07-14T16:16:35.000Z</Time>
            <Position>
              <LatitudeDegrees>43.3939681760966777801513671875</LatitudeDegrees>
              <LongitudeDegrees>-4.11371846683323383331298828125</LongitudeDegrees>
            </Position>
            <AltitudeMeters>147.8000030517578125</AltitudeMeters>
            <DistanceMeters>NAN</DistanceMeters>
          </Trackpoint>
          <Trackpoint>
            <Time>2022-07-14T16:16:41.000Z</Time>
            <Position>
              <LatitudeDegrees>43.3940043859183788299560546875</LatitudeDegrees>
              <LongitudeDegrees>-4.11383296363055706024169921875</LongitudeDegrees>
            </Position>
            <AltitudeMeters>148.399993896484375</AltitudeMeters>
            <DistanceMeters>NAN</DistanceMeters>
          </Trackpoint>
          <Trackpoint>
            <Time>2022-07-14T16:16:43.000Z</Time>
            <Position>
              <LatitudeDegrees>43.3940134383738040924072265625</LatitudeDegrees>
              <LongitudeDegrees>-4.1138643957674503326416015625</LongitudeDegrees>
            </Position>
            <AltitudeMeters>148.600006103515625</AltitudeMeters>
            <DistanceMeters>NAN</DistanceMeters>
          </Trackpoint>
          <Trackpoint>
            <Time>2022-07-14T16:16:51.000Z</Time>
            <Position>
              <LatitudeDegrees>43.3940523304045200347900390625</LatitudeDegrees>
              <LongitudeDegrees>-4.1140088997781276702880859375</LongitudeDegrees>
            </Position>
            <AltitudeMeters>149</AltitudeMeters>
            <DistanceMeters>NAN</DistanceMeters>
          </Trackpoint>
          <Trackpoint>
            <Time>2022-07-14T16:16:57.000Z</Time>
            <Position>
              <LatitudeDegrees>43.3940877020359039306640625</LatitudeDegrees>
              <LongitudeDegrees>-4.11410856060683727264404296875</LongitudeDegrees>
            </Position>
            <AltitudeMeters>149.399993896484375</AltitudeMeters>
            <DistanceMeters>NAN</DistanceMeters>
          </Trackpoint>
          <Trackpoint>
            <Time>2022-07-14T16:17:01.000Z</Time>
            <Position>
              <LatitudeDegrees>43.39411511085927486419677734375</LatitudeDegrees>
              <LongitudeDegrees>-4.11418341100215911865234375</LongitudeDegrees>
            </Position>
            <AltitudeMeters>150</AltitudeMeters>
            <DistanceMeters>NAN</DistanceMeters>
          </Trackpoint>
          <Trackpoint>
            <Time>2022-07-14T16:17:07.000Z</Time>
            <Position>
              <LatitudeDegrees>43.39415802620351314544677734375</LatitudeDegrees>
              <LongitudeDegrees>-4.1142844967544078826904296875</LongitudeDegrees>
            </Position>
            <AltitudeMeters>150.600006103515625</AltitudeMeters>
            <DistanceMeters>NAN</DistanceMeters>
          </Trackpoint>
          <Trackpoint>
            <Time>2022-07-14T16:17:10.000Z</Time>
            <Position>
              <LatitudeDegrees>43.39417261071503162384033203125</LatitudeDegrees>
              <LongitudeDegrees>-4.11433604545891284942626953125</LongitudeDegrees>
            </Position>
            <AltitudeMeters>151</AltitudeMeters>
            <DistanceMeters>NAN</DistanceMeters>
          </Trackpoint>
          <Trackpoint>
            <Time>2022-07-14T16:17:17.000Z</Time>
            <Position>
              <LatitudeDegrees>43.39421016164124011993408203125</LatitudeDegrees>
              <LongitudeDegrees>-4.11446663551032543182373046875</LongitudeDegrees>
            </Position>
            <AltitudeMeters>151.8000030517578125</AltitudeMeters>
            <DistanceMeters>NAN</DistanceMeters>
          </Trackpoint>
          <Trackpoint>
            <Time>2022-07-14T16:17:22.000Z</Time>
            <Position>
              <LatitudeDegrees>43.3942333795130252838134765625</LatitudeDegrees>
              <LongitudeDegrees>-4.1145486943423748016357421875</LongitudeDegrees>
            </Position>
            <AltitudeMeters>152.399993896484375</AltitudeMeters>
            <DistanceMeters>NAN</DistanceMeters>
          </Trackpoint>
          <Trackpoint>
            <Time>2022-07-14T16:17:25.000Z</Time>
            <Position>
              <LatitudeDegrees>43.3942581899464130401611328125</LatitudeDegrees>
              <LongitudeDegrees>-4.1146046854555606842041015625</LongitudeDegrees>
            </Position>
            <AltitudeMeters>152.8000030517578125</AltitudeMeters>
            <DistanceMeters>NAN</DistanceMeters>
          </Trackpoint>
          <Trackpoint>
            <Time>2022-07-14T16:17:33.000Z</Time>
            <Position>
              <LatitudeDegrees>43.39430688880383968353271484375</LatitudeDegrees>
              <LongitudeDegrees>-4.114738292992115020751953125</LongitudeDegrees>
            </Position>
            <AltitudeMeters>153.8000030517578125</AltitudeMeters>
            <DistanceMeters>NAN</DistanceMeters>
          </Trackpoint>
          <Trackpoint>
            <Time>2022-07-14T16:17:34.000Z</Time>
            <Position>
              <LatitudeDegrees>43.394311331212520599365234375</LatitudeDegrees>
              <LongitudeDegrees>-4.1147562302649021148681640625</LongitudeDegrees>
            </Position>
            <AltitudeMeters>153.8000030517578125</AltitudeMeters>
            <DistanceMeters>NAN</DistanceMeters>
          </Trackpoint>
          <Trackpoint>
            <Time>2022-07-14T16:17:40.000Z</Time>
            <Position>
              <LatitudeDegrees>43.3943342976272106170654296875</LatitudeDegrees>
              <LongitudeDegrees>-4.1148511134088039398193359375</LongitudeDegrees>
            </Position>
            <AltitudeMeters>154.600006103515625</AltitudeMeters>
            <DistanceMeters>NAN</DistanceMeters>
          </Trackpoint>
          <Trackpoint>
            <Time>2022-07-14T16:17:43.000Z</Time>
            <Position>
              <LatitudeDegrees>43.39434997178614139556884765625</LatitudeDegrees>
              <LongitudeDegrees>-4.11489880643784999847412109375</LongitudeDegrees>
            </Position>
            <AltitudeMeters>155</AltitudeMeters>
            <DistanceMeters>NAN</DistanceMeters>
          </Trackpoint>
          <Trackpoint>
            <Time>2022-07-14T16:17:50.000Z</Time>
            <Position>
              <LatitudeDegrees>43.39438484050333499908447265625</LatitudeDegrees>
              <LongitudeDegrees>-4.115011207759380340576171875</LongitudeDegrees>
            </Position>
            <AltitudeMeters>155.8000030517578125</AltitudeMeters>
            <DistanceMeters>NAN</DistanceMeters>
          </Trackpoint>
          <Trackpoint>
            <Time>2022-07-14T16:17:51.000Z</Time>
            <Position>
              <LatitudeDegrees>43.394389785826206207275390625</LatitudeDegrees>
              <LongitudeDegrees>-4.1150281392037868499755859375</LongitudeDegrees>
            </Position>
            <AltitudeMeters>156</AltitudeMeters>
            <DistanceMeters>NAN</DistanceMeters>
          </Trackpoint>
          <Trackpoint>
            <Time>2022-07-14T16:17:53.000Z</Time>
            <Position>
              <LatitudeDegrees>43.3943974971771240234375</LatitudeDegrees>
              <LongitudeDegrees>-4.1150650195777416229248046875</LongitudeDegrees>
            </Position>
            <AltitudeMeters>156</AltitudeMeters>
            <DistanceMeters>NAN</DistanceMeters>
          </Trackpoint>
          <Trackpoint>
            <Time>2022-07-14T16:17:58.000Z</Time>
            <Position>
              <LatitudeDegrees>43.39441451244056224822998046875</LatitudeDegrees>
              <LongitudeDegrees>-4.11514364182949066162109375</LongitudeDegrees>
            </Position>
            <AltitudeMeters>156.8000030517578125</AltitudeMeters>
            <DistanceMeters>NAN</DistanceMeters>
          </Trackpoint>
          <Trackpoint>
            <Time>2022-07-14T16:17:59.000Z</Time>
            <Position>
              <LatitudeDegrees>43.39441803283989429473876953125</LatitudeDegrees>
              <LongitudeDegrees>-4.1151588968932628631591796875</LongitudeDegrees>
            </Position>
            <AltitudeMeters>157</AltitudeMeters>
            <DistanceMeters>NAN</DistanceMeters>
          </Trackpoint>
          <Trackpoint>
            <Time>2022-07-14T16:18:03.000Z</Time>
            <Position>
              <LatitudeDegrees>43.3944335393607616424560546875</LatitudeDegrees>
              <LongitudeDegrees>-4.11521430127322673797607421875</LongitudeDegrees>
            </Position>
            <AltitudeMeters>157.600006103515625</AltitudeMeters>
            <DistanceMeters>NAN</DistanceMeters>
          </Trackpoint>
          <Trackpoint>
            <Time>2022-07-14T16:18:08.000Z</Time>
            <Position>
              <LatitudeDegrees>43.39444921351969242095947265625</LatitudeDegrees>
              <LongitudeDegrees>-4.11530859768390655517578125</LongitudeDegrees>
            </Position>
            <AltitudeMeters>158.1999969482421875</AltitudeMeters>
            <DistanceMeters>NAN</DistanceMeters>
          </Trackpoint>
          <Trackpoint>
            <Time>2022-07-14T16:18:11.000Z</Time>
            <Position>
              <LatitudeDegrees>43.394466228783130645751953125</LatitudeDegrees>
              <LongitudeDegrees>-4.11536182276904582977294921875</LongitudeDegrees>
            </Position>
            <AltitudeMeters>158.600006103515625</AltitudeMeters>
            <DistanceMeters>NAN</DistanceMeters>
          </Trackpoint>
          <Trackpoint>
            <Time>2022-07-14T16:18:13.000Z</Time>
            <Position>
              <LatitudeDegrees>43.39447754435241222381591796875</LatitudeDegrees>
              <LongitudeDegrees>-4.11540507338941097259521484375</LongitudeDegrees>
            </Position>
            <AltitudeMeters>158.8000030517578125</AltitudeMeters>
            <DistanceMeters>NAN</DistanceMeters>
          </Trackpoint>
          <Trackpoint>
            <Time>2022-07-14T16:18:17.000Z</Time>
            <Position>
              <LatitudeDegrees>43.39449950493872165679931640625</LatitudeDegrees>
              <LongitudeDegrees>-4.115483947098255157470703125</LongitudeDegrees>
            </Position>
            <AltitudeMeters>159</AltitudeMeters>
            <DistanceMeters>NAN</DistanceMeters>
          </Trackpoint>
          <Trackpoint>
            <Time>2022-07-14T16:18:21.000Z</Time>
            <Position>
              <LatitudeDegrees>43.39451978914439678192138671875</LatitudeDegrees>
              <LongitudeDegrees>-4.11556365899741649627685546875</LongitudeDegrees>
            </Position>
            <AltitudeMeters>159.1999969482421875</AltitudeMeters>
            <DistanceMeters>NAN</DistanceMeters>
          </Trackpoint>
          <Trackpoint>
            <Time>2022-07-14T16:18:22.000Z</Time>
            <Position>
              <LatitudeDegrees>43.39452347718179225921630859375</LatitudeDegrees>
              <LongitudeDegrees>-4.11558193154633045196533203125</LongitudeDegrees>
            </Position>
            <AltitudeMeters>159.1999969482421875</AltitudeMeters>
            <DistanceMeters>NAN</DistanceMeters>
          </Trackpoint>
          <Trackpoint>
            <Time>2022-07-14T16:18:29.000Z</Time>
            <Position>
              <LatitudeDegrees>43.39455734007060527801513671875</LatitudeDegrees>
              <LongitudeDegrees>-4.11572542972862720489501953125</LongitudeDegrees>
            </Position>
            <AltitudeMeters>160.1999969482421875</AltitudeMeters>
            <DistanceMeters>NAN</DistanceMeters>
          </Trackpoint>
          <Trackpoint>
            <Time>2022-07-14T16:18:30.000Z</Time>
            <Position>
              <LatitudeDegrees>43.39456404559314250946044921875</LatitudeDegrees>
              <LongitudeDegrees>-4.11574504338204860687255859375</LongitudeDegrees>
            </Position>
            <AltitudeMeters>160.1999969482421875</AltitudeMeters>
            <DistanceMeters>NAN</DistanceMeters>
          </Trackpoint>
          <Trackpoint>
            <Time>2022-07-14T16:18:36.000Z</Time>
            <Position>
              <LatitudeDegrees>43.39459455572068691253662109375</LatitudeDegrees>
              <LongitudeDegrees>-4.11582886241376399993896484375</LongitudeDegrees>
            </Position>
            <AltitudeMeters>159.8000030517578125</AltitudeMeters>
            <DistanceMeters>NAN</DistanceMeters>
          </Trackpoint>
          <Trackpoint>
            <Time>2022-07-14T16:18:38.000Z</Time>
            <Position>
              <LatitudeDegrees>43.39459455572068691253662109375</LatitudeDegrees>
              <LongitudeDegrees>-4.11582886241376399993896484375</LongitudeDegrees>
            </Position>
            <AltitudeMeters>159.600006103515625</AltitudeMeters>
            <DistanceMeters>NAN</DistanceMeters>
          </Trackpoint>
          <Trackpoint>
            <Time>2022-07-14T16:19:32.000Z</Time>
            <Position>
              <LatitudeDegrees>43.39462372474372386932373046875</LatitudeDegrees>
              <LongitudeDegrees>-4.11587462760508060455322265625</LongitudeDegrees>
            </Position>
            <AltitudeMeters>156.1999969482421875</AltitudeMeters>
            <DistanceMeters>NAN</DistanceMeters>
          </Trackpoint>
          <Trackpoint>
            <Time>2022-07-14T16:19:34.000Z</Time>
            <Position>
              <LatitudeDegrees>43.3946538157761096954345703125</LatitudeDegrees>
              <LongitudeDegrees>-4.11592684686183929443359375</LongitudeDegrees>
            </Position>
            <AltitudeMeters>156.1999969482421875</AltitudeMeters>
            <DistanceMeters>NAN</DistanceMeters>
          </Trackpoint>
          <Trackpoint>
            <Time>2022-07-14T16:19:35.000Z</Time>
            <Position>
              <LatitudeDegrees>43.39466395787894725799560546875</LatitudeDegrees>
              <LongitudeDegrees>-4.115949310362339019775390625</LongitudeDegrees>
            </Position>
            <AltitudeMeters>156</AltitudeMeters>
            <DistanceMeters>NAN</DistanceMeters>
          </Trackpoint>
          <Trackpoint>
            <Time>2022-07-14T16:19:39.000Z</Time>
            <Position>
              <LatitudeDegrees>43.3947191946208477020263671875</LatitudeDegrees>
              <LongitudeDegrees>-4.1160969994962215423583984375</LongitudeDegrees>
            </Position>
            <AltitudeMeters>155.8000030517578125</AltitudeMeters>
            <DistanceMeters>NAN</DistanceMeters>
          </Trackpoint>
          <Trackpoint>
            <Time>2022-07-14T16:19:42.000Z</Time>
            <Position>
              <LatitudeDegrees>43.39474777691066265106201171875</LatitudeDegrees>
              <LongitudeDegrees>-4.11619548685848712921142578125</LongitudeDegrees>
            </Position>
            <AltitudeMeters>155.8000030517578125</AltitudeMeters>
            <DistanceMeters>NAN</DistanceMeters>
          </Trackpoint>
          <Trackpoint>
            <Time>2022-07-14T16:19:50.000Z</Time>
            <Position>
              <LatitudeDegrees>43.3948013372719287872314453125</LatitudeDegrees>
              <LongitudeDegrees>-4.1164104826748371124267578125</LongitudeDegrees>
            </Position>
            <AltitudeMeters>156.600006103515625</AltitudeMeters>
            <DistanceMeters>NAN</DistanceMeters>
          </Trackpoint>
          <Trackpoint>
            <Time>2022-07-14T16:19:53.000Z</Time>
            <Position>
              <LatitudeDegrees>43.394797481596469879150390625</LatitudeDegrees>
              <LongitudeDegrees>-4.11648566834628582000732421875</LongitudeDegrees>
            </Position>
            <AltitudeMeters>157.1999969482421875</AltitudeMeters>
            <DistanceMeters>NAN</DistanceMeters>
          </Trackpoint>
          <Trackpoint>
            <Time>2022-07-14T16:19:56.000Z</Time>
            <Position>
              <LatitudeDegrees>43.39480175636708736419677734375</LatitudeDegrees>
              <LongitudeDegrees>-4.11656144075095653533935546875</LongitudeDegrees>
            </Position>
            <AltitudeMeters>157.8000030517578125</AltitudeMeters>
            <DistanceMeters>NAN</DistanceMeters>
          </Trackpoint>
          <Trackpoint>
            <Time>2022-07-14T16:19:58.000Z</Time>
            <Position>
              <LatitudeDegrees>43.39480192400515079498291015625</LatitudeDegrees>
              <LongitudeDegrees>-4.11660904996097087860107421875</LongitudeDegrees>
            </Position>
            <AltitudeMeters>158.1999969482421875</AltitudeMeters>
            <DistanceMeters>NAN</DistanceMeters>
          </Trackpoint>
          <Trackpoint>
            <Time>2022-07-14T16:20:02.000Z</Time>
            <Position>
              <LatitudeDegrees>43.39481214992702007293701171875</LatitudeDegrees>
              <LongitudeDegrees>-4.11668348126113414764404296875</LongitudeDegrees>
            </Position>
            <AltitudeMeters>159</AltitudeMeters>
            <DistanceMeters>NAN</DistanceMeters>
          </Trackpoint>
          <Trackpoint>
            <Time>2022-07-14T16:20:03.000Z</Time>
            <Position>
              <LatitudeDegrees>43.39482187293469905853271484375</LatitudeDegrees>
              <LongitudeDegrees>-4.116699658334255218505859375</LongitudeDegrees>
            </Position>
            <AltitudeMeters>159.399993896484375</AltitudeMeters>
            <DistanceMeters>NAN</DistanceMeters>
          </Trackpoint>
          <Trackpoint>
            <Time>2022-07-14T16:20:09.000Z</Time>
            <Position>
              <LatitudeDegrees>43.39487317018210887908935546875</LatitudeDegrees>
              <LongitudeDegrees>-4.1168144904077053070068359375</LongitudeDegrees>
            </Position>
            <AltitudeMeters>160.399993896484375</AltitudeMeters>
            <DistanceMeters>NAN</DistanceMeters>
          </Trackpoint>
          <Trackpoint>
            <Time>2022-07-14T16:20:11.000Z</Time>
            <Position>
              <LatitudeDegrees>43.39488909579813480377197265625</LatitudeDegrees>
              <LongitudeDegrees>-4.1168488562107086181640625</LongitudeDegrees>
            </Position>
            <AltitudeMeters>160.600006103515625</AltitudeMeters>
            <DistanceMeters>NAN</DistanceMeters>
          </Trackpoint>
          <Trackpoint>
            <Time>2022-07-14T16:20:12.000Z</Time>
            <Position>
              <LatitudeDegrees>43.39490108191967010498046875</LatitudeDegrees>
              <LongitudeDegrees>-4.11686453036963939666748046875</LongitudeDegrees>
            </Position>
            <AltitudeMeters>161</AltitudeMeters>
            <DistanceMeters>NAN</DistanceMeters>
          </Trackpoint>
          <Trackpoint>
            <Time>2022-07-14T16:20:15.000Z</Time>
            <Position>
              <LatitudeDegrees>43.39492865838110446929931640625</LatitudeDegrees>
              <LongitudeDegrees>-4.11691255867481231689453125</LongitudeDegrees>
            </Position>
            <AltitudeMeters>161.399993896484375</AltitudeMeters>
            <DistanceMeters>NAN</DistanceMeters>
          </Trackpoint>
          <Trackpoint>
            <Time>2022-07-14T16:20:20.000Z</Time>
            <Position>
              <LatitudeDegrees>43.39497559703886508941650390625</LatitudeDegrees>
              <LongitudeDegrees>-4.116981290280818939208984375</LongitudeDegrees>
            </Position>
            <AltitudeMeters>162.1999969482421875</AltitudeMeters>
            <DistanceMeters>NAN</DistanceMeters>
          </Trackpoint>
          <Trackpoint>
            <Time>2022-07-14T16:20:23.000Z</Time>
            <Position>
              <LatitudeDegrees>43.3950055204331874847412109375</LatitudeDegrees>
              <LongitudeDegrees>-4.1170377843081951141357421875</LongitudeDegrees>
            </Position>
            <AltitudeMeters>162.600006103515625</AltitudeMeters>
            <DistanceMeters>NAN</DistanceMeters>
          </Trackpoint>
          <Trackpoint>
            <Time>2022-07-14T16:20:25.000Z</Time>
            <Position>
              <LatitudeDegrees>43.395022451877593994140625</LatitudeDegrees>
              <LongitudeDegrees>-4.11707240156829357147216796875</LongitudeDegrees>
            </Position>
            <AltitudeMeters>162.8000030517578125</AltitudeMeters>
            <DistanceMeters>NAN</DistanceMeters>
          </Trackpoint>
          <Trackpoint>
            <Time>2022-07-14T16:20:28.000Z</Time>
            <Position>
              <LatitudeDegrees>43.39504952542483806610107421875</LatitudeDegrees>
              <LongitudeDegrees>-4.117136187851428985595703125</LongitudeDegrees>
            </Position>
            <AltitudeMeters>163</AltitudeMeters>
            <DistanceMeters>NAN</DistanceMeters>
          </Trackpoint>
          <Trackpoint>
            <Time>2022-07-14T16:20:30.000Z</Time>
            <Position>
              <LatitudeDegrees>43.3950719051063060760498046875</LatitudeDegrees>
              <LongitudeDegrees>-4.11718874238431453704833984375</LongitudeDegrees>
            </Position>
            <AltitudeMeters>163</AltitudeMeters>
            <DistanceMeters>NAN</DistanceMeters>
          </Trackpoint>
          <Trackpoint>
            <Time>2022-07-14T16:20:37.000Z</Time>
            <Position>
              <LatitudeDegrees>43.39510233141481876373291015625</LatitudeDegrees>
              <LongitudeDegrees>-4.11739510484039783477783203125</LongitudeDegrees>
            </Position>
            <AltitudeMeters>163.1999969482421875</AltitudeMeters>
            <DistanceMeters>NAN</DistanceMeters>
          </Trackpoint>
          <Trackpoint>
            <Time>2022-07-14T16:20:42.000Z</Time>
            <Position>
              <LatitudeDegrees>43.395069725811481475830078125</LatitudeDegrees>
              <LongitudeDegrees>-4.117620326578617095947265625</LongitudeDegrees>
            </Position>
            <AltitudeMeters>162.8000030517578125</AltitudeMeters>
            <DistanceMeters>NAN</DistanceMeters>
          </Trackpoint>
          <Trackpoint>
            <Time>2022-07-14T16:20:44.000Z</Time>
            <Position>
              <LatitudeDegrees>43.39501909911632537841796875</LatitudeDegrees>
              <LongitudeDegrees>-4.11776357330381870269775390625</LongitudeDegrees>
            </Position>
            <AltitudeMeters>162.399993896484375</AltitudeMeters>
            <DistanceMeters>NAN</DistanceMeters>
          </Trackpoint>
          <Trackpoint>
            <Time>2022-07-14T16:20:46.000Z</Time>
            <Position>
              <LatitudeDegrees>43.39498431421816349029541015625</LatitudeDegrees>
              <LongitudeDegrees>-4.11791243590414524078369140625</LongitudeDegrees>
            </Position>
            <AltitudeMeters>161.600006103515625</AltitudeMeters>
            <DistanceMeters>NAN</DistanceMeters>
          </Trackpoint>
          <Trackpoint>
            <Time>2022-07-14T16:20:47.000Z</Time>
            <Position>
              <LatitudeDegrees>43.39498364366590976715087890625</LatitudeDegrees>
              <LongitudeDegrees>-4.1180201433598995208740234375</LongitudeDegrees>
            </Position>
            <AltitudeMeters>161</AltitudeMeters>
            <DistanceMeters>NAN</DistanceMeters>
          </Trackpoint>
          <Trackpoint>
            <Time>2022-07-14T16:20:48.000Z</Time>
            <Position>
              <LatitudeDegrees>43.39500342495739459991455078125</LatitudeDegrees>
              <LongitudeDegrees>-4.1181150265038013458251953125</LongitudeDegrees>
            </Position>
            <AltitudeMeters>160.399993896484375</AltitudeMeters>
            <DistanceMeters>NAN</DistanceMeters>
          </Trackpoint>
          <Trackpoint>
            <Time>2022-07-14T16:20:49.000Z</Time>
            <Position>
              <LatitudeDegrees>43.39503745548427104949951171875</LatitudeDegrees>
              <LongitudeDegrees>-4.11821166984736919403076171875</LongitudeDegrees>
            </Position>
            <AltitudeMeters>159.600006103515625</AltitudeMeters>
            <DistanceMeters>NAN</DistanceMeters>
          </Trackpoint>
          <Trackpoint>
            <Time>2022-07-14T16:20:50.000Z</Time>
            <Position>
              <LatitudeDegrees>43.39508271776139736175537109375</LatitudeDegrees>
              <LongitudeDegrees>-4.1183088161051273345947265625</LongitudeDegrees>
            </Position>
            <AltitudeMeters>158</AltitudeMeters>
            <DistanceMeters>NAN</DistanceMeters>
          </Trackpoint>
          <Trackpoint>
            <Time>2022-07-14T16:20:51.000Z</Time>
            <Position>
              <LatitudeDegrees>43.3951391279697418212890625</LatitudeDegrees>
              <LongitudeDegrees>-4.11840730346739292144775390625</LongitudeDegrees>
            </Position>
            <AltitudeMeters>156.8000030517578125</AltitudeMeters>
            <DistanceMeters>NAN</DistanceMeters>
          </Trackpoint>
          <Trackpoint>
            <Time>2022-07-14T16:20:53.000Z</Time>
            <Position>
              <LatitudeDegrees>43.39526996947824954986572265625</LatitudeDegrees>
              <LongitudeDegrees>-4.11861567758023738861083984375</LongitudeDegrees>
            </Position>
            <AltitudeMeters>155</AltitudeMeters>
            <DistanceMeters>NAN</DistanceMeters>
          </Trackpoint>
          <Trackpoint>
            <Time>2022-07-14T16:20:56.000Z</Time>
            <Position>
              <LatitudeDegrees>43.3954529464244842529296875</LatitudeDegrees>
              <LongitudeDegrees>-4.1189294122159481048583984375</LongitudeDegrees>
            </Position>
            <AltitudeMeters>153.8000030517578125</AltitudeMeters>
            <DistanceMeters>NAN</DistanceMeters>
          </Trackpoint>
          <Trackpoint>
            <Time>2022-07-14T16:20:58.000Z</Time>
            <Position>
              <LatitudeDegrees>43.39553676545619964599609375</LatitudeDegrees>
              <LongitudeDegrees>-4.1191305778920650482177734375</LongitudeDegrees>
            </Position>
            <AltitudeMeters>153.399993896484375</AltitudeMeters>
            <DistanceMeters>NAN</DistanceMeters>
          </Trackpoint>
          <Trackpoint>
            <Time>2022-07-14T16:21:02.000Z</Time>
            <Position>
              <LatitudeDegrees>43.39563944377005100250244140625</LatitudeDegrees>
              <LongitudeDegrees>-4.11942176520824432373046875</LongitudeDegrees>
            </Position>
            <AltitudeMeters>153.399993896484375</AltitudeMeters>
            <DistanceMeters>NAN</DistanceMeters>
          </Trackpoint>
          <Trackpoint>
            <Time>2022-07-14T16:21:04.000Z</Time>
            <Position>
              <LatitudeDegrees>43.39569107629358768463134765625</LatitudeDegrees>
              <LongitudeDegrees>-4.11956719122827053070068359375</LongitudeDegrees>
            </Position>
            <AltitudeMeters>153.600006103515625</AltitudeMeters>
            <DistanceMeters>NAN</DistanceMeters>
          </Trackpoint>
          <Trackpoint>
            <Time>2022-07-14T16:21:08.000Z</Time>
            <Position>
              <LatitudeDegrees>43.3957588858902454376220703125</LatitudeDegrees>
              <LongitudeDegrees>-4.11982937715947628021240234375</LongitudeDegrees>
            </Position>
            <AltitudeMeters>154</AltitudeMeters>
            <DistanceMeters>NAN</DistanceMeters>
          </Trackpoint>
          <Trackpoint>
            <Time>2022-07-14T16:21:13.000Z</Time>
            <Position>
              <LatitudeDegrees>43.39581076987087726593017578125</LatitudeDegrees>
              <LongitudeDegrees>-4.12007127888500690460205078125</LongitudeDegrees>
            </Position>
            <AltitudeMeters>154.600006103515625</AltitudeMeters>
            <DistanceMeters>NAN</DistanceMeters>
          </Trackpoint>
          <Trackpoint>
            <Time>2022-07-14T16:21:19.000Z</Time>
            <Position>
              <LatitudeDegrees>43.395824097096920013427734375</LatitudeDegrees>
              <LongitudeDegrees>-4.1203201375901699066162109375</LongitudeDegrees>
            </Position>
            <AltitudeMeters>154.1999969482421875</AltitudeMeters>
            <DistanceMeters>NAN</DistanceMeters>
          </Trackpoint>
          <Trackpoint>
            <Time>2022-07-14T16:21:22.000Z</Time>
            <Position>
              <LatitudeDegrees>43.3958043158054351806640625</LatitudeDegrees>
              <LongitudeDegrees>-4.12051619030535221099853515625</LongitudeDegrees>
            </Position>
            <AltitudeMeters>154.399993896484375</AltitudeMeters>
            <DistanceMeters>NAN</DistanceMeters>
          </Trackpoint>
          <Trackpoint>
            <Time>2022-07-14T16:21:23.000Z</Time>
            <Position>
              <LatitudeDegrees>43.39579585008323192596435546875</LatitudeDegrees>
              <LongitudeDegrees>-4.1205985844135284423828125</LongitudeDegrees>
            </Position>
            <AltitudeMeters>154.399993896484375</AltitudeMeters>
            <DistanceMeters>NAN</DistanceMeters>
          </Trackpoint>
          <Trackpoint>
            <Time>2022-07-14T16:21:27.000Z</Time>
            <Position>
              <LatitudeDegrees>43.39576986618340015411376953125</LatitudeDegrees>
              <LongitudeDegrees>-4.12100988440215587615966796875</LongitudeDegrees>
            </Position>
            <AltitudeMeters>153.1999969482421875</AltitudeMeters>
            <DistanceMeters>NAN</DistanceMeters>
          </Trackpoint>
          <Trackpoint>
            <Time>2022-07-14T16:21:28.000Z</Time>
            <Position>
              <LatitudeDegrees>43.39577221311628818511962890625</LatitudeDegrees>
              <LongitudeDegrees>-4.12112890742719173431396484375</LongitudeDegrees>
            </Position>
            <AltitudeMeters>152.399993896484375</AltitudeMeters>
            <DistanceMeters>NAN</DistanceMeters>
          </Trackpoint>
          <Trackpoint>
            <Time>2022-07-14T16:21:30.000Z</Time>
            <Position>
              <LatitudeDegrees>43.39578344486653804779052734375</LatitudeDegrees>
              <LongitudeDegrees>-4.12135689519345760345458984375</LongitudeDegrees>
            </Position>
            <AltitudeMeters>151</AltitudeMeters>
            <DistanceMeters>NAN</DistanceMeters>
          </Trackpoint>
          <Trackpoint>
            <Time>2022-07-14T16:21:31.000Z</Time>
            <Position>
              <LatitudeDegrees>43.39579601772129535675048828125</LatitudeDegrees>
              <LongitudeDegrees>-4.12146284244954586029052734375</LongitudeDegrees>
            </Position>
            <AltitudeMeters>150.399993896484375</AltitudeMeters>
            <DistanceMeters>NAN</DistanceMeters>
          </Trackpoint>
          <Trackpoint>
            <Time>2022-07-14T16:21:32.000Z</Time>
            <Position>
              <LatitudeDegrees>43.39581093750894069671630859375</LatitudeDegrees>
              <LongitudeDegrees>-4.1215666942298412322998046875</LongitudeDegrees>
            </Position>
            <AltitudeMeters>149.1999969482421875</AltitudeMeters>
            <DistanceMeters>NAN</DistanceMeters>
          </Trackpoint>
          <Trackpoint>
            <Time>2022-07-14T16:21:34.000Z</Time>
            <Position>
              <LatitudeDegrees>43.39586022309958934783935546875</LatitudeDegrees>
              <LongitudeDegrees>-4.12177196703851222991943359375</LongitudeDegrees>
            </Position>
            <AltitudeMeters>147.8000030517578125</AltitudeMeters>
            <DistanceMeters>NAN</DistanceMeters>
          </Trackpoint>
          <Trackpoint>
            <Time>2022-07-14T16:21:36.000Z</Time>
            <Position>
              <LatitudeDegrees>43.3959318883717060089111328125</LatitudeDegrees>
              <LongitudeDegrees>-4.1219772398471832275390625</LongitudeDegrees>
            </Position>
            <AltitudeMeters>146.8000030517578125</AltitudeMeters>
            <DistanceMeters>NAN</DistanceMeters>
          </Trackpoint>
          <Trackpoint>
            <Time>2022-07-14T16:21:37.000Z</Time>
            <Position>
              <LatitudeDegrees>43.39597086422145366668701171875</LatitudeDegrees>
              <LongitudeDegrees>-4.122074134647846221923828125</LongitudeDegrees>
            </Position>
            <AltitudeMeters>146.399993896484375</AltitudeMeters>
            <DistanceMeters>NAN</DistanceMeters>
          </Trackpoint>
          <Trackpoint>
            <Time>2022-07-14T16:21:39.000Z</Time>
            <Position>
              <LatitudeDegrees>43.3960602991282939910888671875</LatitudeDegrees>
              <LongitudeDegrees>-4.1222429461777210235595703125</LongitudeDegrees>
            </Position>
            <AltitudeMeters>146</AltitudeMeters>
            <DistanceMeters>NAN</DistanceMeters>
          </Trackpoint>
          <Trackpoint>
            <Time>2022-07-14T16:21:40.000Z</Time>
            <Position>
              <LatitudeDegrees>43.39611084200441837310791015625</LatitudeDegrees>
              <LongitudeDegrees>-4.1223205626010894775390625</LongitudeDegrees>
            </Position>
            <AltitudeMeters>145.8000030517578125</AltitudeMeters>
            <DistanceMeters>NAN</DistanceMeters>
          </Trackpoint>
          <Trackpoint>
            <Time>2022-07-14T16:21:41.000Z</Time>
            <Position>
              <LatitudeDegrees>43.39617311954498291015625</LatitudeDegrees>
              <LongitudeDegrees>-4.1223983466625213623046875</LongitudeDegrees>
            </Position>
            <AltitudeMeters>145.8000030517578125</AltitudeMeters>
            <DistanceMeters>NAN</DistanceMeters>
          </Trackpoint>
          <Trackpoint>
            <Time>2022-07-14T16:21:43.000Z</Time>
            <Position>
              <LatitudeDegrees>43.39627009816467761993408203125</LatitudeDegrees>
              <LongitudeDegrees>-4.1224729456007480621337890625</LongitudeDegrees>
            </Position>
            <AltitudeMeters>145.600006103515625</AltitudeMeters>
            <DistanceMeters>NAN</DistanceMeters>
          </Trackpoint>
          <Trackpoint>
            <Time>2022-07-14T16:21:47.000Z</Time>
            <Position>
              <LatitudeDegrees>43.3964120037853717803955078125</LatitudeDegrees>
              <LongitudeDegrees>-4.12260512821376323699951171875</LongitudeDegrees>
            </Position>
            <AltitudeMeters>145.8000030517578125</AltitudeMeters>
            <DistanceMeters>NAN</DistanceMeters>
          </Trackpoint>
          <Trackpoint>
            <Time>2022-07-14T16:21:49.000Z</Time>
            <Position>
              <LatitudeDegrees>43.39650194160640239715576171875</LatitudeDegrees>
              <LongitudeDegrees>-4.12268928252160549163818359375</LongitudeDegrees>
            </Position>
            <AltitudeMeters>145.8000030517578125</AltitudeMeters>
            <DistanceMeters>NAN</DistanceMeters>
          </Trackpoint>
          <Trackpoint>
            <Time>2022-07-14T16:21:51.000Z</Time>
            <Position>
              <LatitudeDegrees>43.3966062963008880615234375</LatitudeDegrees>
              <LongitudeDegrees>-4.12272850982844829559326171875</LongitudeDegrees>
            </Position>
            <AltitudeMeters>145.600006103515625</AltitudeMeters>
            <DistanceMeters>NAN</DistanceMeters>
          </Trackpoint>
          <Trackpoint>
            <Time>2022-07-14T16:21:52.000Z</Time>
            <Position>
              <LatitudeDegrees>43.3966668136417865753173828125</LatitudeDegrees>
              <LongitudeDegrees>-4.12275700829923152923583984375</LongitudeDegrees>
            </Position>
            <AltitudeMeters>144.399993896484375</AltitudeMeters>
            <DistanceMeters>NAN</DistanceMeters>
          </Trackpoint>
          <Trackpoint>
            <Time>2022-07-14T16:21:53.000Z</Time>
            <Position>
              <LatitudeDegrees>43.39673713780939579010009765625</LatitudeDegrees>
              <LongitudeDegrees>-4.122777543962001800537109375</LongitudeDegrees>
            </Position>
            <AltitudeMeters>143.8000030517578125</AltitudeMeters>
            <DistanceMeters>NAN</DistanceMeters>
          </Trackpoint>
          <Trackpoint>
            <Time>2022-07-14T16:21:55.000Z</Time>
            <Position>
              <LatitudeDegrees>43.3969013392925262451171875</LatitudeDegrees>
              <LongitudeDegrees>-4.12280671298503875732421875</LongitudeDegrees>
            </Position>
            <AltitudeMeters>143</AltitudeMeters>
            <DistanceMeters>NAN</DistanceMeters>
          </Trackpoint>
          <Trackpoint>
            <Time>2022-07-14T16:21:56.000Z</Time>
            <Position>
              <LatitudeDegrees>43.396988175809383392333984375</LatitudeDegrees>
              <LongitudeDegrees>-4.12282817065715789794921875</LongitudeDegrees>
            </Position>
            <AltitudeMeters>142.8000030517578125</AltitudeMeters>
            <DistanceMeters>NAN</DistanceMeters>
          </Trackpoint>
          <Trackpoint>
            <Time>2022-07-14T16:21:58.000Z</Time>
            <Position>
              <LatitudeDegrees>43.39715941809117794036865234375</LatitudeDegrees>
              <LongitudeDegrees>-4.1229198686778545379638671875</LongitudeDegrees>
            </Position>
            <AltitudeMeters>141.399993896484375</AltitudeMeters>
            <DistanceMeters>NAN</DistanceMeters>
          </Trackpoint>
          <Trackpoint>
            <Time>2022-07-14T16:21:59.000Z</Time>
            <Position>
              <LatitudeDegrees>43.39724323712289333343505859375</LatitudeDegrees>
              <LongitudeDegrees>-4.122995473444461822509765625</LongitudeDegrees>
            </Position>
            <AltitudeMeters>140.1999969482421875</AltitudeMeters>
            <DistanceMeters>NAN</DistanceMeters>
          </Trackpoint>
          <Trackpoint>
            <Time>2022-07-14T16:22:01.000Z</Time>
            <Position>
              <LatitudeDegrees>43.3973990567028522491455078125</LatitudeDegrees>
              <LongitudeDegrees>-4.12316319532692432403564453125</LongitudeDegrees>
            </Position>
            <AltitudeMeters>139.1999969482421875</AltitudeMeters>
            <DistanceMeters>NAN</DistanceMeters>
          </Trackpoint>
          <Trackpoint>
            <Time>2022-07-14T16:22:02.000Z</Time>
            <Position>
              <LatitudeDegrees>43.39747776277363300323486328125</LatitudeDegrees>
              <LongitudeDegrees>-4.12324617616832256317138671875</LongitudeDegrees>
            </Position>
            <AltitudeMeters>138.8000030517578125</AltitudeMeters>
            <DistanceMeters>NAN</DistanceMeters>
          </Trackpoint>
          <Trackpoint>
            <Time>2022-07-14T16:22:04.000Z</Time>
            <Position>
              <LatitudeDegrees>43.397625871002674102783203125</LatitudeDegrees>
              <LongitudeDegrees>-4.12341046147048473358154296875</LongitudeDegrees>
            </Position>
            <AltitudeMeters>138.1999969482421875</AltitudeMeters>
            <DistanceMeters>NAN</DistanceMeters>
          </Trackpoint>
          <Trackpoint>
            <Time>2022-07-14T16:22:06.000Z</Time>
            <Position>
              <LatitudeDegrees>43.3977326564490795135498046875</LatitudeDegrees>
              <LongitudeDegrees>-4.12359419278800487518310546875</LongitudeDegrees>
            </Position>
            <AltitudeMeters>137.399993896484375</AltitudeMeters>
            <DistanceMeters>NAN</DistanceMeters>
          </Trackpoint>
          <Trackpoint>
            <Time>2022-07-14T16:22:07.000Z</Time>
            <Position>
              <LatitudeDegrees>43.397775404155254364013671875</LatitudeDegrees>
              <LongitudeDegrees>-4.12368555553257465362548828125</LongitudeDegrees>
            </Position>
            <AltitudeMeters>137</AltitudeMeters>
            <DistanceMeters>NAN</DistanceMeters>
          </Trackpoint>
          <Trackpoint>
            <Time>2022-07-14T16:22:08.000Z</Time>
            <Position>
              <LatitudeDegrees>43.3978267014026641845703125</LatitudeDegrees>
              <LongitudeDegrees>-4.12376769818365573883056640625</LongitudeDegrees>
            </Position>
            <AltitudeMeters>136.600006103515625</AltitudeMeters>
            <DistanceMeters>NAN</DistanceMeters>
          </Trackpoint>
          <Trackpoint>
            <Time>2022-07-14T16:22:10.000Z</Time>
            <Position>
              <LatitudeDegrees>43.39795385487377643585205078125</LatitudeDegrees>
              <LongitudeDegrees>-4.1238868050277233123779296875</LongitudeDegrees>
            </Position>
            <AltitudeMeters>135.600006103515625</AltitudeMeters>
            <DistanceMeters>NAN</DistanceMeters>
          </Trackpoint>
          <Trackpoint>
            <Time>2022-07-14T16:22:11.000Z</Time>
            <Position>
              <LatitudeDegrees>43.39803867973387241363525390625</LatitudeDegrees>
              <LongitudeDegrees>-4.12393634207546710968017578125</LongitudeDegrees>
            </Position>
            <AltitudeMeters>134.600006103515625</AltitudeMeters>
            <DistanceMeters>NAN</DistanceMeters>
          </Trackpoint>
          <Trackpoint>
            <Time>2022-07-14T16:22:13.000Z</Time>
            <Position>
              <LatitudeDegrees>43.39821469970047473907470703125</LatitudeDegrees>
              <LongitudeDegrees>-4.12403776310384273529052734375</LongitudeDegrees>
            </Position>
            <AltitudeMeters>133</AltitudeMeters>
            <DistanceMeters>NAN</DistanceMeters>
          </Trackpoint>
          <Trackpoint>
            <Time>2022-07-14T16:22:15.000Z</Time>
            <Position>
              <LatitudeDegrees>43.3983643166720867156982421875</LatitudeDegrees>
              <LongitudeDegrees>-4.12411839701235294342041015625</LongitudeDegrees>
            </Position>
            <AltitudeMeters>132</AltitudeMeters>
            <DistanceMeters>NAN</DistanceMeters>
          </Trackpoint>
          <Trackpoint>
            <Time>2022-07-14T16:22:17.000Z</Time>
            <Position>
              <LatitudeDegrees>43.39853036217391490936279296875</LatitudeDegrees>
              <LongitudeDegrees>-4.1241905651986598968505859375</LongitudeDegrees>
            </Position>
            <AltitudeMeters>130.8000030517578125</AltitudeMeters>
            <DistanceMeters>NAN</DistanceMeters>
          </Trackpoint>
          <Trackpoint>
            <Time>2022-07-14T16:22:18.000Z</Time>
            <Position>
              <LatitudeDegrees>43.39861200191080570220947265625</LatitudeDegrees>
              <LongitudeDegrees>-4.12422291934490203857421875</LongitudeDegrees>
            </Position>
            <AltitudeMeters>129.600006103515625</AltitudeMeters>
            <DistanceMeters>NAN</DistanceMeters>
          </Trackpoint>
          <Trackpoint>
            <Time>2022-07-14T16:22:19.000Z</Time>
            <Position>
              <LatitudeDegrees>43.39869615621864795684814453125</LatitudeDegrees>
              <LongitudeDegrees>-4.1242542676627635955810546875</LongitudeDegrees>
            </Position>
            <AltitudeMeters>128.1999969482421875</AltitudeMeters>
            <DistanceMeters>NAN</DistanceMeters>
          </Trackpoint>
          <Trackpoint>
            <Time>2022-07-14T16:22:20.000Z</Time>
            <Position>
              <LatitudeDegrees>43.3987788856029510498046875</LatitudeDegrees>
              <LongitudeDegrees>-4.12429542280733585357666015625</LongitudeDegrees>
            </Position>
            <AltitudeMeters>126.40000152587890625</AltitudeMeters>
            <DistanceMeters>NAN</DistanceMeters>
          </Trackpoint>
          <Trackpoint>
            <Time>2022-07-14T16:22:21.000Z</Time>
            <Position>
              <LatitudeDegrees>43.39883663691580295562744140625</LatitudeDegrees>
              <LongitudeDegrees>-4.124329201877117156982421875</LongitudeDegrees>
            </Position>
            <AltitudeMeters>124.59999847412109375</AltitudeMeters>
            <DistanceMeters>NAN</DistanceMeters>
          </Trackpoint>
          <Trackpoint>
            <Time>2022-07-14T16:22:22.000Z</Time>
            <Position>
              <LatitudeDegrees>43.3989235572516918182373046875</LatitudeDegrees>
              <LongitudeDegrees>-4.124394245445728302001953125</LongitudeDegrees>
            </Position>
            <AltitudeMeters>122.8000030517578125</AltitudeMeters>
            <DistanceMeters>NAN</DistanceMeters>
          </Trackpoint>
          <Trackpoint>
            <Time>2022-07-14T16:22:23.000Z</Time>
            <Position>
              <LatitudeDegrees>43.3989934623241424560546875</LatitudeDegrees>
              <LongitudeDegrees>-4.124461971223354339599609375</LongitudeDegrees>
            </Position>
            <AltitudeMeters>121.40000152587890625</AltitudeMeters>
            <DistanceMeters>NAN</DistanceMeters>
          </Trackpoint>
          <Trackpoint>
            <Time>2022-07-14T16:22:25.000Z</Time>
            <Position>
              <LatitudeDegrees>43.39913402684032917022705078125</LatitudeDegrees>
              <LongitudeDegrees>-4.1245977580547332763671875</LongitudeDegrees>
            </Position>
            <AltitudeMeters>119.40000152587890625</AltitudeMeters>
            <DistanceMeters>NAN</DistanceMeters>
          </Trackpoint>
          <Trackpoint>
            <Time>2022-07-14T16:22:27.000Z</Time>
            <Position>
              <LatitudeDegrees>43.3992960490286350250244140625</LatitudeDegrees>
              <LongitudeDegrees>-4.1246961615979671478271484375</LongitudeDegrees>
            </Position>
            <AltitudeMeters>117</AltitudeMeters>
            <DistanceMeters>NAN</DistanceMeters>
          </Trackpoint>
          <Trackpoint>
            <Time>2022-07-14T16:22:29.000Z</Time>
            <Position>
              <LatitudeDegrees>43.39948992244899272918701171875</LatitudeDegrees>
              <LongitudeDegrees>-4.12473413161933422088623046875</LongitudeDegrees>
            </Position>
            <AltitudeMeters>115</AltitudeMeters>
            <DistanceMeters>NAN</DistanceMeters>
          </Trackpoint>
          <Trackpoint>
            <Time>2022-07-14T16:22:30.000Z</Time>
            <Position>
              <LatitudeDegrees>43.39959536679089069366455078125</LatitudeDegrees>
              <LongitudeDegrees>-4.12474134005606174468994140625</LongitudeDegrees>
            </Position>
            <AltitudeMeters>113.59999847412109375</AltitudeMeters>
            <DistanceMeters>NAN</DistanceMeters>
          </Trackpoint>
          <Trackpoint>
            <Time>2022-07-14T16:22:31.000Z</Time>
            <Position>
              <LatitudeDegrees>43.3997015655040740966796875</LatitudeDegrees>
              <LongitudeDegrees>-4.12474569864571094512939453125</LongitudeDegrees>
            </Position>
            <AltitudeMeters>112</AltitudeMeters>
            <DistanceMeters>NAN</DistanceMeters>
          </Trackpoint>
          <Trackpoint>
            <Time>2022-07-14T16:22:32.000Z</Time>
            <Position>
              <LatitudeDegrees>43.39980457909405231475830078125</LatitudeDegrees>
              <LongitudeDegrees>-4.12475240416824817657470703125</LongitudeDegrees>
            </Position>
            <AltitudeMeters>110.40000152587890625</AltitudeMeters>
            <DistanceMeters>NAN</DistanceMeters>
          </Trackpoint>
          <Trackpoint>
            <Time>2022-07-14T16:22:33.000Z</Time>
            <Position>
              <LatitudeDegrees>43.3999049104750156402587890625</LatitudeDegrees>
              <LongitudeDegrees>-4.12477335892617702484130859375</LongitudeDegrees>
            </Position>
            <AltitudeMeters>108.8000030517578125</AltitudeMeters>
            <DistanceMeters>NAN</DistanceMeters>
          </Trackpoint>
          <Trackpoint>
            <Time>2022-07-14T16:22:34.000Z</Time>
            <Position>
              <LatitudeDegrees>43.40000457130372524261474609375</LatitudeDegrees>
              <LongitudeDegrees>-4.12481258623301982879638671875</LongitudeDegrees>
            </Position>
            <AltitudeMeters>107.1999969482421875</AltitudeMeters>
            <DistanceMeters>NAN</DistanceMeters>
          </Trackpoint>
          <Trackpoint>
            <Time>2022-07-14T16:22:36.000Z</Time>
            <Position>
              <LatitudeDegrees>43.40017388574779033660888671875</LatitudeDegrees>
              <LongitudeDegrees>-4.12492808885872364044189453125</LongitudeDegrees>
            </Position>
            <AltitudeMeters>105.40000152587890625</AltitudeMeters>
            <DistanceMeters>NAN</DistanceMeters>
          </Trackpoint>
          <Trackpoint>
            <Time>2022-07-14T16:22:37.000Z</Time>
            <Position>
              <LatitudeDegrees>43.40024563483893871307373046875</LatitudeDegrees>
              <LongitudeDegrees>-4.1250081360340118408203125</LongitudeDegrees>
            </Position>
            <AltitudeMeters>104.8000030517578125</AltitudeMeters>
            <DistanceMeters>NAN</DistanceMeters>
          </Trackpoint>
          <Trackpoint>
            <Time>2022-07-14T16:22:39.000Z</Time>
            <Position>
              <LatitudeDegrees>43.40039634145796298980712890625</LatitudeDegrees>
              <LongitudeDegrees>-4.125175774097442626953125</LongitudeDegrees>
            </Position>
            <AltitudeMeters>104.40000152587890625</AltitudeMeters>
            <DistanceMeters>NAN</DistanceMeters>
          </Trackpoint>
          <Trackpoint>
            <Time>2022-07-14T16:22:41.000Z</Time>
            <Position>
              <LatitudeDegrees>43.40052911080420017242431640625</LatitudeDegrees>
              <LongitudeDegrees>-4.12527476437389850616455078125</LongitudeDegrees>
            </Position>
            <AltitudeMeters>104.1999969482421875</AltitudeMeters>
            <DistanceMeters>NAN</DistanceMeters>
          </Trackpoint>
          <Trackpoint>
            <Time>2022-07-14T16:22:43.000Z</Time>
            <Position>
              <LatitudeDegrees>43.40065567754209041595458984375</LatitudeDegrees>
              <LongitudeDegrees>-4.1253080405294895172119140625</LongitudeDegrees>
            </Position>
            <AltitudeMeters>104</AltitudeMeters>
            <DistanceMeters>NAN</DistanceMeters>
          </Trackpoint>
          <Trackpoint>
            <Time>2022-07-14T16:22:44.000Z</Time>
            <Position>
              <LatitudeDegrees>43.4007073938846588134765625</LatitudeDegrees>
              <LongitudeDegrees>-4.1253056935966014862060546875</LongitudeDegrees>
            </Position>
            <AltitudeMeters>104</AltitudeMeters>
            <DistanceMeters>NAN</DistanceMeters>
          </Trackpoint>
          <Trackpoint>
            <Time>2022-07-14T16:22:48.000Z</Time>
            <Position>
              <LatitudeDegrees>43.40086103416979312896728515625</LatitudeDegrees>
              <LongitudeDegrees>-4.125288091599941253662109375</LongitudeDegrees>
            </Position>
            <AltitudeMeters>104</AltitudeMeters>
            <DistanceMeters>NAN</DistanceMeters>
          </Trackpoint>
          <Trackpoint>
            <Time>2022-07-14T16:22:53.000Z</Time>
            <Position>
              <LatitudeDegrees>43.40097234584391117095947265625</LatitudeDegrees>
              <LongitudeDegrees>-4.12528448738157749176025390625</LongitudeDegrees>
            </Position>
            <AltitudeMeters>104.59999847412109375</AltitudeMeters>
            <DistanceMeters>NAN</DistanceMeters>
          </Trackpoint>
          <Trackpoint>
            <Time>2022-07-14T16:22:59.000Z</Time>
            <Position>
              <LatitudeDegrees>43.4010683186352252960205078125</LatitudeDegrees>
              <LongitudeDegrees>-4.1252577491104602813720703125</LongitudeDegrees>
            </Position>
            <AltitudeMeters>105.40000152587890625</AltitudeMeters>
            <DistanceMeters>NAN</DistanceMeters>
          </Trackpoint>
          <Trackpoint>
            <Time>2022-07-14T16:23:00.000Z</Time>
            <Position>
              <LatitudeDegrees>43.4010904468595981597900390625</LatitudeDegrees>
              <LongitudeDegrees>-4.12525556981563568115234375</LongitudeDegrees>
            </Position>
            <AltitudeMeters>105.59999847412109375</AltitudeMeters>
            <DistanceMeters>NAN</DistanceMeters>
          </Trackpoint>
          <Trackpoint>
            <Time>2022-07-14T16:23:06.000Z</Time>
            <Position>
              <LatitudeDegrees>43.401169069111347198486328125</LatitudeDegrees>
              <LongitudeDegrees>-4.12522564642131328582763671875</LongitudeDegrees>
            </Position>
            <AltitudeMeters>106.40000152587890625</AltitudeMeters>
            <DistanceMeters>NAN</DistanceMeters>
          </Trackpoint>
          <Trackpoint>
            <Time>2022-07-14T16:23:08.000Z</Time>
            <Position>
              <LatitudeDegrees>43.40120402164757251739501953125</LatitudeDegrees>
              <LongitudeDegrees>-4.125231094658374786376953125</LongitudeDegrees>
            </Position>
            <AltitudeMeters>106.59999847412109375</AltitudeMeters>
            <DistanceMeters>NAN</DistanceMeters>
          </Trackpoint>
          <Trackpoint>
            <Time>2022-07-14T16:23:15.000Z</Time>
            <Position>
              <LatitudeDegrees>43.40131290256977081298828125</LatitudeDegrees>
              <LongitudeDegrees>-4.125183485448360443115234375</LongitudeDegrees>
            </Position>
            <AltitudeMeters>107.40000152587890625</AltitudeMeters>
            <DistanceMeters>NAN</DistanceMeters>
          </Trackpoint>
          <Trackpoint>
            <Time>2022-07-14T16:23:16.000Z</Time>
            <Position>
              <LatitudeDegrees>43.40132488869130611419677734375</LatitudeDegrees>
              <LongitudeDegrees>-4.12517652846872806549072265625</LongitudeDegrees>
            </Position>
            <AltitudeMeters>107.59999847412109375</AltitudeMeters>
            <DistanceMeters>NAN</DistanceMeters>
          </Trackpoint>
          <Trackpoint>
            <Time>2022-07-14T16:23:17.000Z</Time>
            <Position>
              <LatitudeDegrees>43.40133964084088802337646484375</LatitudeDegrees>
              <LongitudeDegrees>-4.1251756064593791961669921875</LongitudeDegrees>
            </Position>
            <AltitudeMeters>107.59999847412109375</AltitudeMeters>
            <DistanceMeters>NAN</DistanceMeters>
          </Trackpoint>
          <Trackpoint>
            <Time>2022-07-14T16:23:23.000Z</Time>
            <Position>
              <LatitudeDegrees>43.4014243818819522857666015625</LatitudeDegrees>
              <LongitudeDegrees>-4.1251739300787448883056640625</LongitudeDegrees>
            </Position>
            <AltitudeMeters>108.40000152587890625</AltitudeMeters>
            <DistanceMeters>NAN</DistanceMeters>
          </Trackpoint>
          <Trackpoint>
            <Time>2022-07-14T16:23:25.000Z</Time>
            <Position>
              <LatitudeDegrees>43.40145681984722614288330078125</LatitudeDegrees>
              <LongitudeDegrees>-4.1251797974109649658203125</LongitudeDegrees>
            </Position>
            <AltitudeMeters>108.8000030517578125</AltitudeMeters>
            <DistanceMeters>NAN</DistanceMeters>
          </Trackpoint>
          <Trackpoint>
            <Time>2022-07-14T16:23:31.000Z</Time>
            <Position>
              <LatitudeDegrees>43.40153929777443408966064453125</LatitudeDegrees>
              <LongitudeDegrees>-4.12519195117056369781494140625</LongitudeDegrees>
            </Position>
            <AltitudeMeters>109.59999847412109375</AltitudeMeters>
            <DistanceMeters>NAN</DistanceMeters>
          </Trackpoint>
          <Trackpoint>
            <Time>2022-07-14T16:23:33.000Z</Time>
            <Position>
              <LatitudeDegrees>43.40156662277877330780029296875</LatitudeDegrees>
              <LongitudeDegrees>-4.12519010715186595916748046875</LongitudeDegrees>
            </Position>
            <AltitudeMeters>110</AltitudeMeters>
            <DistanceMeters>NAN</DistanceMeters>
          </Trackpoint>
          <Trackpoint>
            <Time>2022-07-14T16:23:38.000Z</Time>
            <Position>
              <LatitudeDegrees>43.40162160806357860565185546875</LatitudeDegrees>
              <LongitudeDegrees>-4.12524358369410037994384765625</LongitudeDegrees>
            </Position>
            <AltitudeMeters>110.59999847412109375</AltitudeMeters>
            <DistanceMeters>NAN</DistanceMeters>
          </Trackpoint>
          <Trackpoint>
            <Time>2022-07-14T16:23:41.000Z</Time>
            <Position>
              <LatitudeDegrees>43.40165697969496250152587890625</LatitudeDegrees>
              <LongitudeDegrees>-4.1252678073942661285400390625</LongitudeDegrees>
            </Position>
            <AltitudeMeters>111</AltitudeMeters>
            <DistanceMeters>NAN</DistanceMeters>
          </Trackpoint>
          <Trackpoint>
            <Time>2022-07-14T16:23:44.000Z</Time>
            <Position>
              <LatitudeDegrees>43.4016942791640758514404296875</LatitudeDegrees>
              <LongitudeDegrees>-4.1252808831632137298583984375</LongitudeDegrees>
            </Position>
            <AltitudeMeters>111.8000030517578125</AltitudeMeters>
            <DistanceMeters>NAN</DistanceMeters>
          </Trackpoint>
          <Trackpoint>
            <Time>2022-07-14T16:23:48.000Z</Time>
            <Position>
              <LatitudeDegrees>43.40173694305121898651123046875</LatitudeDegrees>
              <LongitudeDegrees>-4.1253187693655490875244140625</LongitudeDegrees>
            </Position>
            <AltitudeMeters>112.59999847412109375</AltitudeMeters>
            <DistanceMeters>NAN</DistanceMeters>
          </Trackpoint>
          <Trackpoint>
            <Time>2022-07-14T16:23:49.000Z</Time>
            <Position>
              <LatitudeDegrees>43.40174607932567596435546875</LatitudeDegrees>
              <LongitudeDegrees>-4.125328324735164642333984375</LongitudeDegrees>
            </Position>
            <AltitudeMeters>113</AltitudeMeters>
            <DistanceMeters>NAN</DistanceMeters>
          </Trackpoint>
          <Trackpoint>
            <Time>2022-07-14T16:23:55.000Z</Time>
            <Position>
              <LatitudeDegrees>43.40180450119078159332275390625</LatitudeDegrees>
              <LongitudeDegrees>-4.12539663724601268768310546875</LongitudeDegrees>
            </Position>
            <AltitudeMeters>114</AltitudeMeters>
            <DistanceMeters>NAN</DistanceMeters>
          </Trackpoint>
          <Trackpoint>
            <Time>2022-07-14T16:24:05.000Z</Time>
            <Position>
              <LatitudeDegrees>43.4019470773637294769287109375</LatitudeDegrees>
              <LongitudeDegrees>-4.12543150596320629119873046875</LongitudeDegrees>
            </Position>
            <AltitudeMeters>114.40000152587890625</AltitudeMeters>
            <DistanceMeters>NAN</DistanceMeters>
          </Trackpoint>
          <Trackpoint>
            <Time>2022-07-14T16:24:10.000Z</Time>
            <Position>
              <LatitudeDegrees>43.40204338543117046356201171875</LatitudeDegrees>
              <LongitudeDegrees>-4.12543393671512603759765625</LongitudeDegrees>
            </Position>
            <AltitudeMeters>114.59999847412109375</AltitudeMeters>
            <DistanceMeters>NAN</DistanceMeters>
          </Trackpoint>
          <Trackpoint>
            <Time>2022-07-14T16:24:14.000Z</Time>
            <Position>
              <LatitudeDegrees>43.4021103568375110626220703125</LatitudeDegrees>
              <LongitudeDegrees>-4.12543720565736293792724609375</LongitudeDegrees>
            </Position>
            <AltitudeMeters>115</AltitudeMeters>
            <DistanceMeters>NAN</DistanceMeters>
          </Trackpoint>
          <Trackpoint>
            <Time>2022-07-14T16:24:15.000Z</Time>
            <Position>
              <LatitudeDegrees>43.40212536044418811798095703125</LatitudeDegrees>
              <LongitudeDegrees>-4.12543854676187038421630859375</LongitudeDegrees>
            </Position>
            <AltitudeMeters>115</AltitudeMeters>
            <DistanceMeters>NAN</DistanceMeters>
          </Trackpoint>
          <Trackpoint>
            <Time>2022-07-14T16:24:23.000Z</Time>
            <Position>
              <LatitudeDegrees>43.4022682718932628631591796875</LatitudeDegrees>
              <LongitudeDegrees>-4.1255206055939197540283203125</LongitudeDegrees>
            </Position>
            <AltitudeMeters>115.40000152587890625</AltitudeMeters>
            <DistanceMeters>NAN</DistanceMeters>
          </Trackpoint>
          <Trackpoint>
            <Time>2022-07-14T16:24:28.000Z</Time>
            <Position>
              <LatitudeDegrees>43.40236877091228961944580078125</LatitudeDegrees>
              <LongitudeDegrees>-4.12555874325335025787353515625</LongitudeDegrees>
            </Position>
            <AltitudeMeters>115.40000152587890625</AltitudeMeters>
            <DistanceMeters>NAN</DistanceMeters>
          </Trackpoint>
          <Trackpoint>
            <Time>2022-07-14T16:24:30.000Z</Time>
            <Position>
              <LatitudeDegrees>43.40240858495235443115234375</LatitudeDegrees>
              <LongitudeDegrees>-4.1255662031471729278564453125</LongitudeDegrees>
            </Position>
            <AltitudeMeters>115.40000152587890625</AltitudeMeters>
            <DistanceMeters>NAN</DistanceMeters>
          </Trackpoint>
          <Trackpoint>
            <Time>2022-07-14T16:24:31.000Z</Time>
            <Position>
              <LatitudeDegrees>43.40242811478674411773681640625</LatitudeDegrees>
              <LongitudeDegrees>-4.1255708970129489898681640625</LongitudeDegrees>
            </Position>
            <AltitudeMeters>115.40000152587890625</AltitudeMeters>
            <DistanceMeters>NAN</DistanceMeters>
          </Trackpoint>
          <Trackpoint>
            <Time>2022-07-14T16:24:33.000Z</Time>
            <Position>
              <LatitudeDegrees>43.40246784500777721405029296875</LatitudeDegrees>
              <LongitudeDegrees>-4.12557114847004413604736328125</LongitudeDegrees>
            </Position>
            <AltitudeMeters>115.59999847412109375</AltitudeMeters>
            <DistanceMeters>NAN</DistanceMeters>
          </Trackpoint>
          <Trackpoint>
            <Time>2022-07-14T16:24:35.000Z</Time>
            <Position>
              <LatitudeDegrees>43.40250774286687374114990234375</LatitudeDegrees>
              <LongitudeDegrees>-4.12556712515652179718017578125</LongitudeDegrees>
            </Position>
            <AltitudeMeters>115.8000030517578125</AltitudeMeters>
            <DistanceMeters>NAN</DistanceMeters>
          </Trackpoint>
          <Trackpoint>
            <Time>2022-07-14T16:24:39.000Z</Time>
            <Position>
              <LatitudeDegrees>43.4025864489376544952392578125</LatitudeDegrees>
              <LongitudeDegrees>-4.1255551390349864959716796875</LongitudeDegrees>
            </Position>
            <AltitudeMeters>116</AltitudeMeters>
            <DistanceMeters>NAN</DistanceMeters>
          </Trackpoint>
          <Trackpoint>
            <Time>2022-07-14T16:24:40.000Z</Time>
            <Position>
              <LatitudeDegrees>43.40260296128690242767333984375</LatitudeDegrees>
              <LongitudeDegrees>-4.125547595322132110595703125</LongitudeDegrees>
            </Position>
            <AltitudeMeters>116</AltitudeMeters>
            <DistanceMeters>NAN</DistanceMeters>
          </Trackpoint>
          <Trackpoint>
            <Time>2022-07-14T16:24:47.000Z</Time>
            <Position>
              <LatitudeDegrees>43.4027058072388172149658203125</LatitudeDegrees>
              <LongitudeDegrees>-4.1255380399525165557861328125</LongitudeDegrees>
            </Position>
            <AltitudeMeters>116.59999847412109375</AltitudeMeters>
            <DistanceMeters>NAN</DistanceMeters>
          </Trackpoint>
          <Trackpoint>
            <Time>2022-07-14T16:24:50.000Z</Time>
            <Position>
              <LatitudeDegrees>43.4027540870010852813720703125</LatitudeDegrees>
              <LongitudeDegrees>-4.12556008435785770416259765625</LongitudeDegrees>
            </Position>
            <AltitudeMeters>117</AltitudeMeters>
            <DistanceMeters>NAN</DistanceMeters>
          </Trackpoint>
          <Trackpoint>
            <Time>2022-07-14T16:24:54.000Z</Time>
            <Position>
              <LatitudeDegrees>43.40280412696301937103271484375</LatitudeDegrees>
              <LongitudeDegrees>-4.12558891810476779937744140625</LongitudeDegrees>
            </Position>
            <AltitudeMeters>117.8000030517578125</AltitudeMeters>
            <DistanceMeters>NAN</DistanceMeters>
          </Trackpoint>
          <Trackpoint>
            <Time>2022-07-14T16:24:55.000Z</Time>
            <Position>
              <LatitudeDegrees>43.40281452052295207977294921875</LatitudeDegrees>
              <LongitudeDegrees>-4.12560165859758853912353515625</LongitudeDegrees>
            </Position>
            <AltitudeMeters>118</AltitudeMeters>
            <DistanceMeters>NAN</DistanceMeters>
          </Trackpoint>
          <Trackpoint>
            <Time>2022-07-14T16:24:56.000Z</Time>
            <Position>
              <LatitudeDegrees>43.40282591991126537322998046875</LatitudeDegrees>
              <LongitudeDegrees>-4.12561188451945781707763671875</LongitudeDegrees>
            </Position>
            <AltitudeMeters>118.1999969482421875</AltitudeMeters>
            <DistanceMeters>NAN</DistanceMeters>
          </Trackpoint>
          <Trackpoint>
            <Time>2022-07-14T16:24:58.000Z</Time>
            <Position>
              <LatitudeDegrees>43.4028459526598453521728515625</LatitudeDegrees>
              <LongitudeDegrees>-4.12563099525868892669677734375</LongitudeDegrees>
            </Position>
            <AltitudeMeters>118.1999969482421875</AltitudeMeters>
            <DistanceMeters>NAN</DistanceMeters>
          </Trackpoint>
          <Trackpoint>
            <Time>2022-07-14T16:25:01.000Z</Time>
            <Position>
              <LatitudeDegrees>43.40289674699306488037109375</LatitudeDegrees>
              <LongitudeDegrees>-4.1256738267838954925537109375</LongitudeDegrees>
            </Position>
            <AltitudeMeters>118.40000152587890625</AltitudeMeters>
            <DistanceMeters>NAN</DistanceMeters>
          </Trackpoint>
          <Trackpoint>
            <Time>2022-07-14T16:25:04.000Z</Time>
            <Position>
              <LatitudeDegrees>43.4029294364154338836669921875</LatitudeDegrees>
              <LongitudeDegrees>-4.12572923116385936737060546875</LongitudeDegrees>
            </Position>
            <AltitudeMeters>118.40000152587890625</AltitudeMeters>
            <DistanceMeters>NAN</DistanceMeters>
          </Trackpoint>
          <Trackpoint>
            <Time>2022-07-14T16:25:13.000Z</Time>
            <Position>
              <LatitudeDegrees>43.40302423574030399322509765625</LatitudeDegrees>
              <LongitudeDegrees>-4.1258642636239528656005859375</LongitudeDegrees>
            </Position>
            <AltitudeMeters>119.1999969482421875</AltitudeMeters>
            <DistanceMeters>NAN</DistanceMeters>
          </Trackpoint>
          <Trackpoint>
            <Time>2022-07-14T16:25:16.000Z</Time>
            <Position>
              <LatitudeDegrees>43.4030596911907196044921875</LatitudeDegrees>
              <LongitudeDegrees>-4.12590675987303256988525390625</LongitudeDegrees>
            </Position>
            <AltitudeMeters>119.59999847412109375</AltitudeMeters>
            <DistanceMeters>NAN</DistanceMeters>
          </Trackpoint>
          <Trackpoint>
            <Time>2022-07-14T16:25:19.000Z</Time>
            <Position>
              <LatitudeDegrees>43.40310587547719478607177734375</LatitudeDegrees>
              <LongitudeDegrees>-4.125927127897739410400390625</LongitudeDegrees>
            </Position>
            <AltitudeMeters>120</AltitudeMeters>
            <DistanceMeters>NAN</DistanceMeters>
          </Trackpoint>
          <Trackpoint>
            <Time>2022-07-14T16:25:21.000Z</Time>
            <Position>
              <LatitudeDegrees>43.4031307697296142578125</LatitudeDegrees>
              <LongitudeDegrees>-4.125937521457672119140625</LongitudeDegrees>
            </Position>
            <AltitudeMeters>120.1999969482421875</AltitudeMeters>
            <DistanceMeters>NAN</DistanceMeters>
          </Trackpoint>
          <Trackpoint>
            <Time>2022-07-14T16:25:22.000Z</Time>
            <Position>
              <LatitudeDegrees>43.4031423367559909820556640625</LatitudeDegrees>
              <LongitudeDegrees>-4.12593458779156208038330078125</LongitudeDegrees>
            </Position>
            <AltitudeMeters>120.40000152587890625</AltitudeMeters>
            <DistanceMeters>NAN</DistanceMeters>
          </Trackpoint>
          <Trackpoint>
            <Time>2022-07-14T16:25:27.000Z</Time>
            <Position>
              <LatitudeDegrees>43.403204195201396942138671875</LatitudeDegrees>
              <LongitudeDegrees>-4.1259765811264514923095703125</LongitudeDegrees>
            </Position>
            <AltitudeMeters>121</AltitudeMeters>
            <DistanceMeters>NAN</DistanceMeters>
          </Trackpoint>
          <Trackpoint>
            <Time>2022-07-14T16:25:29.000Z</Time>
            <Position>
              <LatitudeDegrees>43.40322489850223064422607421875</LatitudeDegrees>
              <LongitudeDegrees>-4.1259889863431453704833984375</LongitudeDegrees>
            </Position>
            <AltitudeMeters>121.1999969482421875</AltitudeMeters>
            <DistanceMeters>NAN</DistanceMeters>
          </Trackpoint>
          <Trackpoint>
            <Time>2022-07-14T16:25:32.000Z</Time>
            <Position>
              <LatitudeDegrees>43.40326161123812198638916015625</LatitudeDegrees>
              <LongitudeDegrees>-4.12599259056150913238525390625</LongitudeDegrees>
            </Position>
            <AltitudeMeters>121.59999847412109375</AltitudeMeters>
            <DistanceMeters>NAN</DistanceMeters>
          </Trackpoint>
          <Trackpoint>
            <Time>2022-07-14T16:25:34.000Z</Time>
            <Position>
              <LatitudeDegrees>43.40328457765281200408935546875</LatitudeDegrees>
              <LongitudeDegrees>-4.12599141709506511688232421875</LongitudeDegrees>
            </Position>
            <AltitudeMeters>121.8000030517578125</AltitudeMeters>
            <DistanceMeters>NAN</DistanceMeters>
          </Trackpoint>
          <Trackpoint>
            <Time>2022-07-14T16:25:38.000Z</Time>
            <Position>
              <LatitudeDegrees>43.40333453379571437835693359375</LatitudeDegrees>
              <LongitudeDegrees>-4.126023687422275543212890625</LongitudeDegrees>
            </Position>
            <AltitudeMeters>122.40000152587890625</AltitudeMeters>
            <DistanceMeters>NAN</DistanceMeters>
          </Trackpoint>
          <Trackpoint>
            <Time>2022-07-14T16:25:41.000Z</Time>
            <Position>
              <LatitudeDegrees>43.40335129760205745697021484375</LatitudeDegrees>
              <LongitudeDegrees>-4.1260729730129241943359375</LongitudeDegrees>
            </Position>
            <AltitudeMeters>122.8000030517578125</AltitudeMeters>
            <DistanceMeters>NAN</DistanceMeters>
          </Trackpoint>
          <Trackpoint>
            <Time>2022-07-14T16:25:46.000Z</Time>
            <Position>
              <LatitudeDegrees>43.40340175665915012359619140625</LatitudeDegrees>
              <LongitudeDegrees>-4.12613810040056705474853515625</LongitudeDegrees>
            </Position>
            <AltitudeMeters>123.40000152587890625</AltitudeMeters>
            <DistanceMeters>NAN</DistanceMeters>
          </Trackpoint>
          <Trackpoint>
            <Time>2022-07-14T16:25:48.000Z</Time>
            <Position>
              <LatitudeDegrees>43.40342137031257152557373046875</LatitudeDegrees>
              <LongitudeDegrees>-4.12614799104630947113037109375</LongitudeDegrees>
            </Position>
            <AltitudeMeters>123.8000030517578125</AltitudeMeters>
            <DistanceMeters>NAN</DistanceMeters>
          </Trackpoint>
          <Trackpoint>
            <Time>2022-07-14T16:25:49.000Z</Time>
            <Position>
              <LatitudeDegrees>43.40343042276799678802490234375</LatitudeDegrees>
              <LongitudeDegrees>-4.1261566244065761566162109375</LongitudeDegrees>
            </Position>
            <AltitudeMeters>123.8000030517578125</AltitudeMeters>
            <DistanceMeters>NAN</DistanceMeters>
          </Trackpoint>
          <Trackpoint>
            <Time>2022-07-14T16:25:53.000Z</Time>
            <Position>
              <LatitudeDegrees>43.403452970087528228759765625</LatitudeDegrees>
              <LongitudeDegrees>-4.126202054321765899658203125</LongitudeDegrees>
            </Position>
            <AltitudeMeters>124.40000152587890625</AltitudeMeters>
            <DistanceMeters>NAN</DistanceMeters>
          </Trackpoint>
          <Trackpoint>
            <Time>2022-07-14T16:25:54.000Z</Time>
            <Position>
              <LatitudeDegrees>43.40345623902976512908935546875</LatitudeDegrees>
              <LongitudeDegrees>-4.12621286697685718536376953125</LongitudeDegrees>
            </Position>
            <AltitudeMeters>124.59999847412109375</AltitudeMeters>
            <DistanceMeters>NAN</DistanceMeters>
          </Trackpoint>
          <Trackpoint>
            <Time>2022-07-14T16:26:00.000Z</Time>
            <Position>
              <LatitudeDegrees>43.4034910239279270172119140625</LatitudeDegrees>
              <LongitudeDegrees>-4.1262910701334476470947265625</LongitudeDegrees>
            </Position>
            <AltitudeMeters>125.59999847412109375</AltitudeMeters>
            <DistanceMeters>NAN</DistanceMeters>
          </Trackpoint>
          <Trackpoint>
            <Time>2022-07-14T16:26:04.000Z</Time>
            <Position>
              <LatitudeDegrees>43.40348708443343639373779296875</LatitudeDegrees>
              <LongitudeDegrees>-4.12635259330272674560546875</LongitudeDegrees>
            </Position>
            <AltitudeMeters>126.1999969482421875</AltitudeMeters>
            <DistanceMeters>NAN</DistanceMeters>
          </Trackpoint>
          <Trackpoint>
            <Time>2022-07-14T16:26:07.000Z</Time>
            <Position>
              <LatitudeDegrees>43.4034984000027179718017578125</LatitudeDegrees>
              <LongitudeDegrees>-4.12640112452208995819091796875</LongitudeDegrees>
            </Position>
            <AltitudeMeters>126.59999847412109375</AltitudeMeters>
            <DistanceMeters>NAN</DistanceMeters>
          </Trackpoint>
          <Trackpoint>
            <Time>2022-07-14T16:26:13.000Z</Time>
            <Position>
              <LatitudeDegrees>43.40349513106048107147216796875</LatitudeDegrees>
              <LongitudeDegrees>-4.12649567238986492156982421875</LongitudeDegrees>
            </Position>
            <AltitudeMeters>127.59999847412109375</AltitudeMeters>
            <DistanceMeters>NAN</DistanceMeters>
          </Trackpoint>
          <Trackpoint>
            <Time>2022-07-14T16:26:14.000Z</Time>
            <Position>
              <LatitudeDegrees>43.40349395759403705596923828125</LatitudeDegrees>
              <LongitudeDegrees>-4.126515872776508331298828125</LongitudeDegrees>
            </Position>
            <AltitudeMeters>127.8000030517578125</AltitudeMeters>
            <DistanceMeters>NAN</DistanceMeters>
          </Trackpoint>
          <Trackpoint>
            <Time>2022-07-14T16:26:16.000Z</Time>
            <Position>
              <LatitudeDegrees>43.403497897088527679443359375</LatitudeDegrees>
              <LongitudeDegrees>-4.12655174732208251953125</LongitudeDegrees>
            </Position>
            <AltitudeMeters>128</AltitudeMeters>
            <DistanceMeters>NAN</DistanceMeters>
          </Trackpoint>
          <Trackpoint>
            <Time>2022-07-14T16:26:18.000Z</Time>
            <Position>
              <LatitudeDegrees>43.40352010913193225860595703125</LatitudeDegrees>
              <LongitudeDegrees>-4.1265799105167388916015625</LongitudeDegrees>
            </Position>
            <AltitudeMeters>128.399993896484375</AltitudeMeters>
            <DistanceMeters>NAN</DistanceMeters>
          </Trackpoint>
          <Trackpoint>
            <Time>2022-07-14T16:26:22.000Z</Time>
            <Position>
              <LatitudeDegrees>43.4035248868167400360107421875</LatitudeDegrees>
              <LongitudeDegrees>-4.126657359302043914794921875</LongitudeDegrees>
            </Position>
            <AltitudeMeters>128.8000030517578125</AltitudeMeters>
            <DistanceMeters>NAN</DistanceMeters>
          </Trackpoint>
          <Trackpoint>
            <Time>2022-07-14T16:26:24.000Z</Time>
            <Position>
              <LatitudeDegrees>43.40352949686348438262939453125</LatitudeDegrees>
              <LongitudeDegrees>-4.1266964189708232879638671875</LongitudeDegrees>
            </Position>
            <AltitudeMeters>129</AltitudeMeters>
            <DistanceMeters>NAN</DistanceMeters>
          </Trackpoint>
          <Trackpoint>
            <Time>2022-07-14T16:26:27.000Z</Time>
            <Position>
              <LatitudeDegrees>43.40350963175296783447265625</LatitudeDegrees>
              <LongitudeDegrees>-4.12675115279853343963623046875</LongitudeDegrees>
            </Position>
            <AltitudeMeters>129.399993896484375</AltitudeMeters>
            <DistanceMeters>NAN</DistanceMeters>
          </Trackpoint>
          <Trackpoint>
            <Time>2022-07-14T16:26:30.000Z</Time>
            <Position>
              <LatitudeDegrees>43.4034732542932033538818359375</LatitudeDegrees>
              <LongitudeDegrees>-4.12679054774343967437744140625</LongitudeDegrees>
            </Position>
            <AltitudeMeters>130</AltitudeMeters>
            <DistanceMeters>NAN</DistanceMeters>
          </Trackpoint>
          <Trackpoint>
            <Time>2022-07-14T16:26:33.000Z</Time>
            <Position>
              <LatitudeDegrees>43.40344182215631008148193359375</LatitudeDegrees>
              <LongitudeDegrees>-4.12684251554310321807861328125</LongitudeDegrees>
            </Position>
            <AltitudeMeters>130.399993896484375</AltitudeMeters>
            <DistanceMeters>NAN</DistanceMeters>
          </Trackpoint>
          <Trackpoint>
            <Time>2022-07-14T16:26:37.000Z</Time>
            <Position>
              <LatitudeDegrees>43.40339161455631256103515625</LatitudeDegrees>
              <LongitudeDegrees>-4.12689968012273311614990234375</LongitudeDegrees>
            </Position>
            <AltitudeMeters>131</AltitudeMeters>
            <DistanceMeters>NAN</DistanceMeters>
          </Trackpoint>
          <Trackpoint>
            <Time>2022-07-14T16:26:39.000Z</Time>
            <Position>
              <LatitudeDegrees>43.403373174369335174560546875</LatitudeDegrees>
              <LongitudeDegrees>-4.1269348002970218658447265625</LongitudeDegrees>
            </Position>
            <AltitudeMeters>131</AltitudeMeters>
            <DistanceMeters>NAN</DistanceMeters>
          </Trackpoint>
          <Trackpoint>
            <Time>2022-07-14T16:26:41.000Z</Time>
            <Position>
              <LatitudeDegrees>43.40335314162075519561767578125</LatitudeDegrees>
              <LongitudeDegrees>-4.12696824409067630767822265625</LongitudeDegrees>
            </Position>
            <AltitudeMeters>131.1999969482421875</AltitudeMeters>
            <DistanceMeters>NAN</DistanceMeters>
          </Trackpoint>
          <Trackpoint>
            <Time>2022-07-14T16:26:49.000Z</Time>
            <Position>
              <LatitudeDegrees>43.40327736921608448028564453125</LatitudeDegrees>
              <LongitudeDegrees>-4.1271426714956760406494140625</LongitudeDegrees>
            </Position>
            <AltitudeMeters>131.1999969482421875</AltitudeMeters>
            <DistanceMeters>NAN</DistanceMeters>
          </Trackpoint>
          <Trackpoint>
            <Time>2022-07-14T16:26:53.000Z</Time>
            <Position>
              <LatitudeDegrees>43.403217606246471405029296875</LatitudeDegrees>
              <LongitudeDegrees>-4.1273253969848155975341796875</LongitudeDegrees>
            </Position>
            <AltitudeMeters>130.8000030517578125</AltitudeMeters>
            <DistanceMeters>NAN</DistanceMeters>
          </Trackpoint>
          <Trackpoint>
            <Time>2022-07-14T16:26:54.000Z</Time>
            <Position>
              <LatitudeDegrees>43.4031956456601619720458984375</LatitudeDegrees>
              <LongitudeDegrees>-4.12737929262220859527587890625</LongitudeDegrees>
            </Position>
            <AltitudeMeters>130.600006103515625</AltitudeMeters>
            <DistanceMeters>NAN</DistanceMeters>
          </Trackpoint>
          <Trackpoint>
            <Time>2022-07-14T16:26:55.000Z</Time>
            <Position>
              <LatitudeDegrees>43.4031658060848712921142578125</LatitudeDegrees>
              <LongitudeDegrees>-4.1274424083530902862548828125</LongitudeDegrees>
            </Position>
            <AltitudeMeters>130.399993896484375</AltitudeMeters>
            <DistanceMeters>NAN</DistanceMeters>
          </Trackpoint>
          <Trackpoint>
            <Time>2022-07-14T16:26:57.000Z</Time>
            <Position>
              <LatitudeDegrees>43.4031366370618343353271484375</LatitudeDegrees>
              <LongitudeDegrees>-4.12755229510366916656494140625</LongitudeDegrees>
            </Position>
            <AltitudeMeters>130.1999969482421875</AltitudeMeters>
            <DistanceMeters>NAN</DistanceMeters>
          </Trackpoint>
          <Trackpoint>
            <Time>2022-07-14T16:26:58.000Z</Time>
            <Position>
              <LatitudeDegrees>43.40311895124614238739013671875</LatitudeDegrees>
              <LongitudeDegrees>-4.12759152241051197052001953125</LongitudeDegrees>
            </Position>
            <AltitudeMeters>130.1999969482421875</AltitudeMeters>
            <DistanceMeters>NAN</DistanceMeters>
          </Trackpoint>
          <Trackpoint>
            <Time>2022-07-14T16:27:02.000Z</Time>
            <Position>
              <LatitudeDegrees>43.40311945416033267974853515625</LatitudeDegrees>
              <LongitudeDegrees>-4.1277619265019893646240234375</LongitudeDegrees>
            </Position>
            <AltitudeMeters>130.1999969482421875</AltitudeMeters>
            <DistanceMeters>NAN</DistanceMeters>
          </Trackpoint>
          <Trackpoint>
            <Time>2022-07-14T16:27:07.000Z</Time>
            <Position>
              <LatitudeDegrees>43.4031165204942226409912109375</LatitudeDegrees>
              <LongitudeDegrees>-4.12792780436575412750244140625</LongitudeDegrees>
            </Position>
            <AltitudeMeters>131</AltitudeMeters>
            <DistanceMeters>NAN</DistanceMeters>
          </Trackpoint>
          <Trackpoint>
            <Time>2022-07-14T16:27:12.000Z</Time>
            <Position>
              <LatitudeDegrees>43.403094895184040069580078125</LatitudeDegrees>
              <LongitudeDegrees>-4.12805353291332721710205078125</LongitudeDegrees>
            </Position>
            <AltitudeMeters>132.1999969482421875</AltitudeMeters>
            <DistanceMeters>NAN</DistanceMeters>
          </Trackpoint>
          <Trackpoint>
            <Time>2022-07-14T16:27:15.000Z</Time>
            <Position>
              <LatitudeDegrees>43.403085172176361083984375</LatitudeDegrees>
              <LongitudeDegrees>-4.12812427617609500885009765625</LongitudeDegrees>
            </Position>
            <AltitudeMeters>132.8000030517578125</AltitudeMeters>
            <DistanceMeters>NAN</DistanceMeters>
          </Trackpoint>
          <Trackpoint>
            <Time>2022-07-14T16:27:18.000Z</Time>
            <Position>
              <LatitudeDegrees>43.40305843390524387359619140625</LatitudeDegrees>
              <LongitudeDegrees>-4.1281924210488796234130859375</LongitudeDegrees>
            </Position>
            <AltitudeMeters>133.399993896484375</AltitudeMeters>
            <DistanceMeters>NAN</DistanceMeters>
          </Trackpoint>
          <Trackpoint>
            <Time>2022-07-14T16:27:22.000Z</Time>
            <Position>
              <LatitudeDegrees>43.40301652438938617706298828125</LatitudeDegrees>
              <LongitudeDegrees>-4.12826660089194774627685546875</LongitudeDegrees>
            </Position>
            <AltitudeMeters>134.399993896484375</AltitudeMeters>
            <DistanceMeters>NAN</DistanceMeters>
          </Trackpoint>
          <Trackpoint>
            <Time>2022-07-14T16:27:23.000Z</Time>
            <Position>
              <LatitudeDegrees>43.40300814248621463775634765625</LatitudeDegrees>
              <LongitudeDegrees>-4.128285460174083709716796875</LongitudeDegrees>
            </Position>
            <AltitudeMeters>134.600006103515625</AltitudeMeters>
            <DistanceMeters>NAN</DistanceMeters>
          </Trackpoint>
          <Trackpoint>
            <Time>2022-07-14T16:27:25.000Z</Time>
            <Position>
              <LatitudeDegrees>43.4029901213943958282470703125</LatitudeDegrees>
              <LongitudeDegrees>-4.12832535803318023681640625</LongitudeDegrees>
            </Position>
            <AltitudeMeters>135</AltitudeMeters>
            <DistanceMeters>NAN</DistanceMeters>
          </Trackpoint>
          <Trackpoint>
            <Time>2022-07-14T16:27:27.000Z</Time>
            <Position>
              <LatitudeDegrees>43.40296841226518154144287109375</LatitudeDegrees>
              <LongitudeDegrees>-4.1283630765974521636962890625</LongitudeDegrees>
            </Position>
            <AltitudeMeters>135.1999969482421875</AltitudeMeters>
            <DistanceMeters>NAN</DistanceMeters>
          </Trackpoint>
          <Trackpoint>
            <Time>2022-07-14T16:27:31.000Z</Time>
            <Position>
              <LatitudeDegrees>43.40292599983513355255126953125</LatitudeDegrees>
              <LongitudeDegrees>-4.12844337522983551025390625</LongitudeDegrees>
            </Position>
            <AltitudeMeters>135.8000030517578125</AltitudeMeters>
            <DistanceMeters>NAN</DistanceMeters>
          </Trackpoint>
          <Trackpoint>
            <Time>2022-07-14T16:27:33.000Z</Time>
            <Position>
              <LatitudeDegrees>43.40290571562945842742919921875</LatitudeDegrees>
              <LongitudeDegrees>-4.1284807585179805755615234375</LongitudeDegrees>
            </Position>
            <AltitudeMeters>135.8000030517578125</AltitudeMeters>
            <DistanceMeters>NAN</DistanceMeters>
          </Trackpoint>
          <Trackpoint>
            <Time>2022-07-14T16:27:42.000Z</Time>
            <Position>
              <LatitudeDegrees>43.40280764736235141754150390625</LatitudeDegrees>
              <LongitudeDegrees>-4.12863356061279773712158203125</LongitudeDegrees>
            </Position>
            <AltitudeMeters>136.8000030517578125</AltitudeMeters>
            <DistanceMeters>NAN</DistanceMeters>
          </Trackpoint>
          <Trackpoint>
            <Time>2022-07-14T16:27:43.000Z</Time>
            <Position>
              <LatitudeDegrees>43.40279138647019863128662109375</LatitudeDegrees>
              <LongitudeDegrees>-4.1286359913647174835205078125</LongitudeDegrees>
            </Position>
            <AltitudeMeters>137</AltitudeMeters>
            <DistanceMeters>NAN</DistanceMeters>
          </Trackpoint>
          <Trackpoint>
            <Time>2022-07-14T16:27:48.000Z</Time>
            <Position>
              <LatitudeDegrees>43.4027158655226230621337890625</LatitudeDegrees>
              <LongitudeDegrees>-4.12860455922782421112060546875</LongitudeDegrees>
            </Position>
            <AltitudeMeters>138</AltitudeMeters>
            <DistanceMeters>NAN</DistanceMeters>
          </Trackpoint>
          <Trackpoint>
            <Time>2022-07-14T16:27:50.000Z</Time>
            <Position>
              <LatitudeDegrees>43.4026893787086009979248046875</LatitudeDegrees>
              <LongitudeDegrees>-4.128586538136005401611328125</LongitudeDegrees>
            </Position>
            <AltitudeMeters>138.8000030517578125</AltitudeMeters>
            <DistanceMeters>NAN</DistanceMeters>
          </Trackpoint>
          <Trackpoint>
            <Time>2022-07-14T16:27:52.000Z</Time>
            <Position>
              <LatitudeDegrees>43.40266934596002101898193359375</LatitudeDegrees>
              <LongitudeDegrees>-4.12855912931263446807861328125</LongitudeDegrees>
            </Position>
            <AltitudeMeters>139.1999969482421875</AltitudeMeters>
            <DistanceMeters>NAN</DistanceMeters>
          </Trackpoint>
          <Trackpoint>
            <Time>2022-07-14T16:27:55.000Z</Time>
            <Position>
              <LatitudeDegrees>43.40263447724282741546630859375</LatitudeDegrees>
              <LongitudeDegrees>-4.1285245120525360107421875</LongitudeDegrees>
            </Position>
            <AltitudeMeters>139.8000030517578125</AltitudeMeters>
            <DistanceMeters>NAN</DistanceMeters>
          </Trackpoint>
          <Trackpoint>
            <Time>2022-07-14T16:27:57.000Z</Time>
            <Position>
              <LatitudeDegrees>43.4026038832962512969970703125</LatitudeDegrees>
              <LongitudeDegrees>-4.12851068191230297088623046875</LongitudeDegrees>
            </Position>
            <AltitudeMeters>140.1999969482421875</AltitudeMeters>
            <DistanceMeters>NAN</DistanceMeters>
          </Trackpoint>
          <Trackpoint>
            <Time>2022-07-14T16:28:00.000Z</Time>
            <Position>
              <LatitudeDegrees>43.4025499038398265838623046875</LatitudeDegrees>
              <LongitudeDegrees>-4.1285002045333385467529296875</LongitudeDegrees>
            </Position>
            <AltitudeMeters>140.600006103515625</AltitudeMeters>
            <DistanceMeters>NAN</DistanceMeters>
          </Trackpoint>
          <Trackpoint>
            <Time>2022-07-14T16:28:02.000Z</Time>
            <Position>
              <LatitudeDegrees>43.40251897461712360382080078125</LatitudeDegrees>
              <LongitudeDegrees>-4.12850146181881427764892578125</LongitudeDegrees>
            </Position>
            <AltitudeMeters>140.8000030517578125</AltitudeMeters>
            <DistanceMeters>NAN</DistanceMeters>
          </Trackpoint>
          <Trackpoint>
            <Time>2022-07-14T16:28:07.000Z</Time>
            <Position>
              <LatitudeDegrees>43.40243314392864704132080078125</LatitudeDegrees>
              <LongitudeDegrees>-4.1285082511603832244873046875</LongitudeDegrees>
            </Position>
            <AltitudeMeters>140.8000030517578125</AltitudeMeters>
            <DistanceMeters>NAN</DistanceMeters>
          </Trackpoint>
          <Trackpoint>
            <Time>2022-07-14T16:28:12.000Z</Time>
            <Position>
              <LatitudeDegrees>43.4022880531847476959228515625</LatitudeDegrees>
              <LongitudeDegrees>-4.128551669418811798095703125</LongitudeDegrees>
            </Position>
            <AltitudeMeters>139.8000030517578125</AltitudeMeters>
            <DistanceMeters>NAN</DistanceMeters>
          </Trackpoint>
          <Trackpoint>
            <Time>2022-07-14T16:28:14.000Z</Time>
            <Position>
              <LatitudeDegrees>43.402199037373065948486328125</LatitudeDegrees>
              <LongitudeDegrees>-4.12861981429159641265869140625</LongitudeDegrees>
            </Position>
            <AltitudeMeters>139</AltitudeMeters>
            <DistanceMeters>NAN</DistanceMeters>
          </Trackpoint>
          <Trackpoint>
            <Time>2022-07-14T16:28:16.000Z</Time>
            <Position>
              <LatitudeDegrees>43.40209250338375568389892578125</LatitudeDegrees>
              <LongitudeDegrees>-4.1287229955196380615234375</LongitudeDegrees>
            </Position>
            <AltitudeMeters>138</AltitudeMeters>
            <DistanceMeters>NAN</DistanceMeters>
          </Trackpoint>
          <Trackpoint>
            <Time>2022-07-14T16:28:18.000Z</Time>
            <Position>
              <LatitudeDegrees>43.40198052115738391876220703125</LatitudeDegrees>
              <LongitudeDegrees>-4.12888518534600734710693359375</LongitudeDegrees>
            </Position>
            <AltitudeMeters>136.8000030517578125</AltitudeMeters>
            <DistanceMeters>NAN</DistanceMeters>
          </Trackpoint>
          <Trackpoint>
            <Time>2022-07-14T16:28:19.000Z</Time>
            <Position>
              <LatitudeDegrees>43.40194012038409709930419921875</LatitudeDegrees>
              <LongitudeDegrees>-4.12896933965384960174560546875</LongitudeDegrees>
            </Position>
            <AltitudeMeters>136.1999969482421875</AltitudeMeters>
            <DistanceMeters>NAN</DistanceMeters>
          </Trackpoint>
          <Trackpoint>
            <Time>2022-07-14T16:28:20.000Z</Time>
            <Position>
              <LatitudeDegrees>43.40189234353601932525634765625</LatitudeDegrees>
              <LongitudeDegrees>-4.12908869795501232147216796875</LongitudeDegrees>
            </Position>
            <AltitudeMeters>135.600006103515625</AltitudeMeters>
            <DistanceMeters>NAN</DistanceMeters>
          </Trackpoint>
          <Trackpoint>
            <Time>2022-07-14T16:28:22.000Z</Time>
            <Position>
              <LatitudeDegrees>43.4017965383827686309814453125</LatitudeDegrees>
              <LongitudeDegrees>-4.12932607345283031463623046875</LongitudeDegrees>
            </Position>
            <AltitudeMeters>134</AltitudeMeters>
            <DistanceMeters>NAN</DistanceMeters>
          </Trackpoint>
          <Trackpoint>
            <Time>2022-07-14T16:28:23.000Z</Time>
            <Position>
              <LatitudeDegrees>43.4017197601497173309326171875</LatitudeDegrees>
              <LongitudeDegrees>-4.1294426657259464263916015625</LongitudeDegrees>
            </Position>
            <AltitudeMeters>133.399993896484375</AltitudeMeters>
            <DistanceMeters>NAN</DistanceMeters>
          </Trackpoint>
          <Trackpoint>
            <Time>2022-07-14T16:28:24.000Z</Time>
            <Position>
              <LatitudeDegrees>43.401658236980438232421875</LatitudeDegrees>
              <LongitudeDegrees>-4.12950963713228702545166015625</LongitudeDegrees>
            </Position>
            <AltitudeMeters>132.8000030517578125</AltitudeMeters>
            <DistanceMeters>NAN</DistanceMeters>
          </Trackpoint>
          <Trackpoint>
            <Time>2022-07-14T16:28:27.000Z</Time>
            <Position>
              <LatitudeDegrees>43.4014002420008182525634765625</LatitudeDegrees>
              <LongitudeDegrees>-4.1297420673072338104248046875</LongitudeDegrees>
            </Position>
            <AltitudeMeters>131.1999969482421875</AltitudeMeters>
            <DistanceMeters>NAN</DistanceMeters>
          </Trackpoint>
          <Trackpoint>
            <Time>2022-07-14T16:28:29.000Z</Time>
            <Position>
              <LatitudeDegrees>43.40126738883554935455322265625</LatitudeDegrees>
              <LongitudeDegrees>-4.129852540791034698486328125</LongitudeDegrees>
            </Position>
            <AltitudeMeters>129</AltitudeMeters>
            <DistanceMeters>NAN</DistanceMeters>
          </Trackpoint>
          <Trackpoint>
            <Time>2022-07-14T16:28:31.000Z</Time>
            <Position>
              <LatitudeDegrees>43.4011192806065082550048828125</LatitudeDegrees>
              <LongitudeDegrees>-4.129999391734600067138671875</LongitudeDegrees>
            </Position>
            <AltitudeMeters>127.40000152587890625</AltitudeMeters>
            <DistanceMeters>NAN</DistanceMeters>
          </Trackpoint>
          <Trackpoint>
            <Time>2022-07-14T16:28:32.000Z</Time>
            <Position>
              <LatitudeDegrees>43.4010542370378971099853515625</LatitudeDegrees>
              <LongitudeDegrees>-4.1300659440457820892333984375</LongitudeDegrees>
            </Position>
            <AltitudeMeters>126</AltitudeMeters>
            <DistanceMeters>NAN</DistanceMeters>
          </Trackpoint>
          <Trackpoint>
            <Time>2022-07-14T16:28:33.000Z</Time>
            <Position>
              <LatitudeDegrees>43.40098894201219081878662109375</LatitudeDegrees>
              <LongitudeDegrees>-4.1301326639950275421142578125</LongitudeDegrees>
            </Position>
            <AltitudeMeters>125</AltitudeMeters>
            <DistanceMeters>NAN</DistanceMeters>
          </Trackpoint>
          <Trackpoint>
            <Time>2022-07-14T16:28:34.000Z</Time>
            <Position>
              <LatitudeDegrees>43.40091769583523273468017578125</LatitudeDegrees>
              <LongitudeDegrees>-4.13019661791622638702392578125</LongitudeDegrees>
            </Position>
            <AltitudeMeters>123.40000152587890625</AltitudeMeters>
            <DistanceMeters>NAN</DistanceMeters>
          </Trackpoint>
          <Trackpoint>
            <Time>2022-07-14T16:28:35.000Z</Time>
            <Position>
              <LatitudeDegrees>43.400838486850261688232421875</LatitudeDegrees>
              <LongitudeDegrees>-4.13025612942874431610107421875</LongitudeDegrees>
            </Position>
            <AltitudeMeters>122.1999969482421875</AltitudeMeters>
            <DistanceMeters>NAN</DistanceMeters>
          </Trackpoint>
          <Trackpoint>
            <Time>2022-07-14T16:28:36.000Z</Time>
            <Position>
              <LatitudeDegrees>43.40074905194342136383056640625</LatitudeDegrees>
              <LongitudeDegrees>-4.1303086839616298675537109375</LongitudeDegrees>
            </Position>
            <AltitudeMeters>120.59999847412109375</AltitudeMeters>
            <DistanceMeters>NAN</DistanceMeters>
          </Trackpoint>
          <Trackpoint>
            <Time>2022-07-14T16:28:37.000Z</Time>
            <Position>
              <LatitudeDegrees>43.400655426084995269775390625</LatitudeDegrees>
              <LongitudeDegrees>-4.130353443324565887451171875</LongitudeDegrees>
            </Position>
            <AltitudeMeters>119.1999969482421875</AltitudeMeters>
            <DistanceMeters>NAN</DistanceMeters>
          </Trackpoint>
          <Trackpoint>
            <Time>2022-07-14T16:28:38.000Z</Time>
            <Position>
              <LatitudeDegrees>43.40055492706596851348876953125</LatitudeDegrees>
              <LongitudeDegrees>-4.1303884796798229217529296875</LongitudeDegrees>
            </Position>
            <AltitudeMeters>117.40000152587890625</AltitudeMeters>
            <DistanceMeters>NAN</DistanceMeters>
          </Trackpoint>
          <Trackpoint>
            <Time>2022-07-14T16:28:39.000Z</Time>
            <Position>
              <LatitudeDegrees>43.4004715271294116973876953125</LatitudeDegrees>
              <LongitudeDegrees>-4.13041588850319385528564453125</LongitudeDegrees>
            </Position>
            <AltitudeMeters>116.1999969482421875</AltitudeMeters>
            <DistanceMeters>NAN</DistanceMeters>
          </Trackpoint>
          <Trackpoint>
            <Time>2022-07-14T16:28:40.000Z</Time>
            <Position>
              <LatitudeDegrees>43.4003699384629726409912109375</LatitudeDegrees>
              <LongitudeDegrees>-4.1304505057632923126220703125</LongitudeDegrees>
            </Position>
            <AltitudeMeters>114.8000030517578125</AltitudeMeters>
            <DistanceMeters>NAN</DistanceMeters>
          </Trackpoint>
          <Trackpoint>
            <Time>2022-07-14T16:28:41.000Z</Time>
            <Position>
              <LatitudeDegrees>43.4002750553190708160400390625</LatitudeDegrees>
              <LongitudeDegrees>-4.13048931397497653961181640625</LongitudeDegrees>
            </Position>
            <AltitudeMeters>113.8000030517578125</AltitudeMeters>
            <DistanceMeters>NAN</DistanceMeters>
          </Trackpoint>
          <Trackpoint>
            <Time>2022-07-14T16:28:42.000Z</Time>
            <Position>
              <LatitudeDegrees>43.40018562041223049163818359375</LatitudeDegrees>
              <LongitudeDegrees>-4.1305272839963436126708984375</LongitudeDegrees>
            </Position>
            <AltitudeMeters>113.1999969482421875</AltitudeMeters>
            <DistanceMeters>NAN</DistanceMeters>
          </Trackpoint>
          <Trackpoint>
            <Time>2022-07-14T16:28:43.000Z</Time>
            <Position>
              <LatitudeDegrees>43.40007749386131763458251953125</LatitudeDegrees>
              <LongitudeDegrees>-4.13057313300669193267822265625</LongitudeDegrees>
            </Position>
            <AltitudeMeters>112.8000030517578125</AltitudeMeters>
            <DistanceMeters>NAN</DistanceMeters>
          </Trackpoint>
          <Trackpoint>
            <Time>2022-07-14T16:28:45.000Z</Time>
            <Position>
              <LatitudeDegrees>43.3999096043407917022705078125</LatitudeDegrees>
              <LongitudeDegrees>-4.13066030479967594146728515625</LongitudeDegrees>
            </Position>
            <AltitudeMeters>111.1999969482421875</AltitudeMeters>
            <DistanceMeters>NAN</DistanceMeters>
          </Trackpoint>
          <Trackpoint>
            <Time>2022-07-14T16:28:47.000Z</Time>
            <Position>
              <LatitudeDegrees>43.3996953628957271575927734375</LatitudeDegrees>
              <LongitudeDegrees>-4.1307934932410717010498046875</LongitudeDegrees>
            </Position>
            <AltitudeMeters>110</AltitudeMeters>
            <DistanceMeters>NAN</DistanceMeters>
          </Trackpoint>
          <Trackpoint>
            <Time>2022-07-14T16:28:48.000Z</Time>
            <Position>
              <LatitudeDegrees>43.39959419332444667816162109375</LatitudeDegrees>
              <LongitudeDegrees>-4.1308525018393993377685546875</LongitudeDegrees>
            </Position>
            <AltitudeMeters>109.40000152587890625</AltitudeMeters>
            <DistanceMeters>NAN</DistanceMeters>
          </Trackpoint>
          <Trackpoint>
            <Time>2022-07-14T16:28:49.000Z</Time>
            <Position>
              <LatitudeDegrees>43.3995126374065876007080078125</LatitudeDegrees>
              <LongitudeDegrees>-4.1308997757732868194580078125</LongitudeDegrees>
            </Position>
            <AltitudeMeters>108.40000152587890625</AltitudeMeters>
            <DistanceMeters>NAN</DistanceMeters>
          </Trackpoint>
          <Trackpoint>
            <Time>2022-07-14T16:28:51.000Z</Time>
            <Position>
              <LatitudeDegrees>43.399298228323459625244140625</LatitudeDegrees>
              <LongitudeDegrees>-4.13105660118162631988525390625</LongitudeDegrees>
            </Position>
            <AltitudeMeters>106.40000152587890625</AltitudeMeters>
            <DistanceMeters>NAN</DistanceMeters>
          </Trackpoint>
          <Trackpoint>
            <Time>2022-07-14T16:28:53.000Z</Time>
            <Position>
              <LatitudeDegrees>43.3991190232336521148681640625</LatitudeDegrees>
              <LongitudeDegrees>-4.131217114627361297607421875</LongitudeDegrees>
            </Position>
            <AltitudeMeters>104</AltitudeMeters>
            <DistanceMeters>NAN</DistanceMeters>
          </Trackpoint>
          <Trackpoint>
            <Time>2022-07-14T16:28:54.000Z</Time>
            <Position>
              <LatitudeDegrees>43.39903436601161956787109375</LatitudeDegrees>
              <LongitudeDegrees>-4.13129095919430255889892578125</LongitudeDegrees>
            </Position>
            <AltitudeMeters>102.59999847412109375</AltitudeMeters>
            <DistanceMeters>NAN</DistanceMeters>
          </Trackpoint>
          <Trackpoint>
            <Time>2022-07-14T16:28:56.000Z</Time>
            <Position>
              <LatitudeDegrees>43.39885122142732143402099609375</LatitudeDegrees>
              <LongitudeDegrees>-4.13140118122100830078125</LongitudeDegrees>
            </Position>
            <AltitudeMeters>100.59999847412109375</AltitudeMeters>
            <DistanceMeters>NAN</DistanceMeters>
          </Trackpoint>
          <Trackpoint>
            <Time>2022-07-14T16:28:57.000Z</Time>
            <Position>
              <LatitudeDegrees>43.3987589366734027862548828125</LatitudeDegrees>
              <LongitudeDegrees>-4.1314402408897876739501953125</LongitudeDegrees>
            </Position>
            <AltitudeMeters>99.59999847412109375</AltitudeMeters>
            <DistanceMeters>NAN</DistanceMeters>
          </Trackpoint>
          <Trackpoint>
            <Time>2022-07-14T16:28:58.000Z</Time>
            <Position>
              <LatitudeDegrees>43.398670591413974761962890625</LatitudeDegrees>
              <LongitudeDegrees>-4.13148106075823307037353515625</LongitudeDegrees>
            </Position>
            <AltitudeMeters>98.1999969482421875</AltitudeMeters>
            <DistanceMeters>NAN</DistanceMeters>
          </Trackpoint>
          <Trackpoint>
            <Time>2022-07-14T16:28:59.000Z</Time>
            <Position>
              <LatitudeDegrees>43.39858132414519786834716796875</LatitudeDegrees>
              <LongitudeDegrees>-4.13151961751282215118408203125</LongitudeDegrees>
            </Position>
            <AltitudeMeters>97.1999969482421875</AltitudeMeters>
            <DistanceMeters>NAN</DistanceMeters>
          </Trackpoint>
          <Trackpoint>
            <Time>2022-07-14T16:29:00.000Z</Time>
            <Position>
              <LatitudeDegrees>43.39850521646440029144287109375</LatitudeDegrees>
              <LongitudeDegrees>-4.13157426752150058746337890625</LongitudeDegrees>
            </Position>
            <AltitudeMeters>96</AltitudeMeters>
            <DistanceMeters>NAN</DistanceMeters>
          </Trackpoint>
          <Trackpoint>
            <Time>2022-07-14T16:29:01.000Z</Time>
            <Position>
              <LatitudeDegrees>43.39844788424670696258544921875</LatitudeDegrees>
              <LongitudeDegrees>-4.13163595832884311676025390625</LongitudeDegrees>
            </Position>
            <AltitudeMeters>95</AltitudeMeters>
            <DistanceMeters>NAN</DistanceMeters>
          </Trackpoint>
          <Trackpoint>
            <Time>2022-07-14T16:29:02.000Z</Time>
            <Position>
              <LatitudeDegrees>43.3984055556356906890869140625</LatitudeDegrees>
              <LongitudeDegrees>-4.13169882260262966156005859375</LongitudeDegrees>
            </Position>
            <AltitudeMeters>94.1999969482421875</AltitudeMeters>
            <DistanceMeters>NAN</DistanceMeters>
          </Trackpoint>
          <Trackpoint>
            <Time>2022-07-14T16:29:04.000Z</Time>
            <Position>
              <LatitudeDegrees>43.398321568965911865234375</LatitudeDegrees>
              <LongitudeDegrees>-4.1318040154874324798583984375</LongitudeDegrees>
            </Position>
            <AltitudeMeters>92.40000152587890625</AltitudeMeters>
            <DistanceMeters>NAN</DistanceMeters>
          </Trackpoint>
          <Trackpoint>
            <Time>2022-07-14T16:29:06.000Z</Time>
            <Position>
              <LatitudeDegrees>43.39822710491716861724853515625</LatitudeDegrees>
              <LongitudeDegrees>-4.13188221864402294158935546875</LongitudeDegrees>
            </Position>
            <AltitudeMeters>91.1999969482421875</AltitudeMeters>
            <DistanceMeters>NAN</DistanceMeters>
          </Trackpoint>
          <Trackpoint>
            <Time>2022-07-14T16:29:08.000Z</Time>
            <Position>
              <LatitudeDegrees>43.39809467084705829620361328125</LatitudeDegrees>
              <LongitudeDegrees>-4.1319575719535350799560546875</LongitudeDegrees>
            </Position>
            <AltitudeMeters>90.1999969482421875</AltitudeMeters>
            <DistanceMeters>NAN</DistanceMeters>
          </Trackpoint>
          <Trackpoint>
            <Time>2022-07-14T16:29:09.000Z</Time>
            <Position>
              <LatitudeDegrees>43.39802853763103485107421875</LatitudeDegrees>
              <LongitudeDegrees>-4.1319927759468555450439453125</LongitudeDegrees>
            </Position>
            <AltitudeMeters>90</AltitudeMeters>
            <DistanceMeters>NAN</DistanceMeters>
          </Trackpoint>
          <Trackpoint>
            <Time>2022-07-14T16:29:11.000Z</Time>
            <Position>
              <LatitudeDegrees>43.39789903722703456878662109375</LatitudeDegrees>
              <LongitudeDegrees>-4.13205639459192752838134765625</LongitudeDegrees>
            </Position>
            <AltitudeMeters>89.40000152587890625</AltitudeMeters>
            <DistanceMeters>NAN</DistanceMeters>
          </Trackpoint>
          <Trackpoint>
            <Time>2022-07-14T16:29:13.000Z</Time>
            <Position>
              <LatitudeDegrees>43.397731147706508636474609375</LatitudeDegrees>
              <LongitudeDegrees>-4.13211741484701633453369140625</LongitudeDegrees>
            </Position>
            <AltitudeMeters>89</AltitudeMeters>
            <DistanceMeters>NAN</DistanceMeters>
          </Trackpoint>
          <Trackpoint>
            <Time>2022-07-14T16:29:16.000Z</Time>
            <Position>
              <LatitudeDegrees>43.3975076861679553985595703125</LatitudeDegrees>
              <LongitudeDegrees>-4.13220115005970001220703125</LongitudeDegrees>
            </Position>
            <AltitudeMeters>88.1999969482421875</AltitudeMeters>
            <DistanceMeters>NAN</DistanceMeters>
          </Trackpoint>
          <Trackpoint>
            <Time>2022-07-14T16:29:17.000Z</Time>
            <Position>
              <LatitudeDegrees>43.3974399603903293609619140625</LatitudeDegrees>
              <LongitudeDegrees>-4.13224783726036548614501953125</LongitudeDegrees>
            </Position>
            <AltitudeMeters>87.8000030517578125</AltitudeMeters>
            <DistanceMeters>NAN</DistanceMeters>
          </Trackpoint>
          <Trackpoint>
            <Time>2022-07-14T16:29:18.000Z</Time>
            <Position>
              <LatitudeDegrees>43.39738547801971435546875</LatitudeDegrees>
              <LongitudeDegrees>-4.1322921775281429290771484375</LongitudeDegrees>
            </Position>
            <AltitudeMeters>87.8000030517578125</AltitudeMeters>
            <DistanceMeters>NAN</DistanceMeters>
          </Trackpoint>
          <Trackpoint>
            <Time>2022-07-14T16:29:23.000Z</Time>
            <Position>
              <LatitudeDegrees>43.39704710058867931365966796875</LatitudeDegrees>
              <LongitudeDegrees>-4.1325585544109344482421875</LongitudeDegrees>
            </Position>
            <AltitudeMeters>86.8000030517578125</AltitudeMeters>
            <DistanceMeters>NAN</DistanceMeters>
          </Trackpoint>
          <Trackpoint>
            <Time>2022-07-14T16:29:25.000Z</Time>
            <Position>
              <LatitudeDegrees>43.3969286642968654632568359375</LatitudeDegrees>
              <LongitudeDegrees>-4.13264446891844272613525390625</LongitudeDegrees>
            </Position>
            <AltitudeMeters>86.59999847412109375</AltitudeMeters>
            <DistanceMeters>NAN</DistanceMeters>
          </Trackpoint>
          <Trackpoint>
            <Time>2022-07-14T16:29:28.000Z</Time>
            <Position>
              <LatitudeDegrees>43.3968200348317623138427734375</LatitudeDegrees>
              <LongitudeDegrees>-4.13275326602160930633544921875</LongitudeDegrees>
            </Position>
            <AltitudeMeters>86</AltitudeMeters>
            <DistanceMeters>NAN</DistanceMeters>
          </Trackpoint>
          <Trackpoint>
            <Time>2022-07-14T16:29:29.000Z</Time>
            <Position>
              <LatitudeDegrees>43.39679899625480175018310546875</LatitudeDegrees>
              <LongitudeDegrees>-4.13280774839222431182861328125</LongitudeDegrees>
            </Position>
            <AltitudeMeters>85.8000030517578125</AltitudeMeters>
            <DistanceMeters>NAN</DistanceMeters>
          </Trackpoint>
          <Trackpoint>
            <Time>2022-07-14T16:29:30.000Z</Time>
            <Position>
              <LatitudeDegrees>43.3967860043048858642578125</LatitudeDegrees>
              <LongitudeDegrees>-4.13285418413579463958740234375</LongitudeDegrees>
            </Position>
            <AltitudeMeters>85.8000030517578125</AltitudeMeters>
            <DistanceMeters>NAN</DistanceMeters>
          </Trackpoint>
          <Trackpoint>
            <Time>2022-07-14T16:29:33.000Z</Time>
            <Position>
              <LatitudeDegrees>43.396748118102550506591796875</LatitudeDegrees>
              <LongitudeDegrees>-4.1330029629170894622802734375</LongitudeDegrees>
            </Position>
            <AltitudeMeters>85.40000152587890625</AltitudeMeters>
            <DistanceMeters>NAN</DistanceMeters>
          </Trackpoint>
          <Trackpoint>
            <Time>2022-07-14T16:29:36.000Z</Time>
            <Position>
              <LatitudeDegrees>43.39666941203176975250244140625</LatitudeDegrees>
              <LongitudeDegrees>-4.133172444999217987060546875</LongitudeDegrees>
            </Position>
            <AltitudeMeters>85.40000152587890625</AltitudeMeters>
            <DistanceMeters>NAN</DistanceMeters>
          </Trackpoint>
          <Trackpoint>
            <Time>2022-07-14T16:29:41.000Z</Time>
            <Position>
              <LatitudeDegrees>43.3965347148478031158447265625</LatitudeDegrees>
              <LongitudeDegrees>-4.13345600478351116180419921875</LongitudeDegrees>
            </Position>
            <AltitudeMeters>84.8000030517578125</AltitudeMeters>
            <DistanceMeters>NAN</DistanceMeters>
          </Trackpoint>
          <Trackpoint>
            <Time>2022-07-14T16:29:43.000Z</Time>
            <Position>
              <LatitudeDegrees>43.39647260494530200958251953125</LatitudeDegrees>
              <LongitudeDegrees>-4.13356848992407321929931640625</LongitudeDegrees>
            </Position>
            <AltitudeMeters>84.1999969482421875</AltitudeMeters>
            <DistanceMeters>NAN</DistanceMeters>
          </Trackpoint>
          <Trackpoint>
            <Time>2022-07-14T16:29:45.000Z</Time>
            <Position>
              <LatitudeDegrees>43.39640253223478794097900390625</LatitudeDegrees>
              <LongitudeDegrees>-4.1336875967681407928466796875</LongitudeDegrees>
            </Position>
            <AltitudeMeters>83.59999847412109375</AltitudeMeters>
            <DistanceMeters>NAN</DistanceMeters>
          </Trackpoint>
          <Trackpoint>
            <Time>2022-07-14T16:29:47.000Z</Time>
            <Position>
              <LatitudeDegrees>43.39633162133395671844482421875</LatitudeDegrees>
              <LongitudeDegrees>-4.13382480852305889129638671875</LongitudeDegrees>
            </Position>
            <AltitudeMeters>82.59999847412109375</AltitudeMeters>
            <DistanceMeters>NAN</DistanceMeters>
          </Trackpoint>
          <Trackpoint>
            <Time>2022-07-14T16:29:50.000Z</Time>
            <Position>
              <LatitudeDegrees>43.396212346851825714111328125</LatitudeDegrees>
              <LongitudeDegrees>-4.1340547241270542144775390625</LongitudeDegrees>
            </Position>
            <AltitudeMeters>81.40000152587890625</AltitudeMeters>
            <DistanceMeters>NAN</DistanceMeters>
          </Trackpoint>
          <Trackpoint>
            <Time>2022-07-14T16:29:53.000Z</Time>
            <Position>
              <LatitudeDegrees>43.39612375013530254364013671875</LatitudeDegrees>
              <LongitudeDegrees>-4.13425765000283718109130859375</LongitudeDegrees>
            </Position>
            <AltitudeMeters>81</AltitudeMeters>
            <DistanceMeters>NAN</DistanceMeters>
          </Trackpoint>
          <Trackpoint>
            <Time>2022-07-14T16:29:54.000Z</Time>
            <Position>
              <LatitudeDegrees>43.3960985206067562103271484375</LatitudeDegrees>
              <LongitudeDegrees>-4.13429872132837772369384765625</LongitudeDegrees>
            </Position>
            <AltitudeMeters>80.8000030517578125</AltitudeMeters>
            <DistanceMeters>NAN</DistanceMeters>
          </Trackpoint>
          <Trackpoint>
            <Time>2022-07-14T16:29:57.000Z</Time>
            <Position>
              <LatitudeDegrees>43.39599081315100193023681640625</LatitudeDegrees>
              <LongitudeDegrees>-4.13444817066192626953125</LongitudeDegrees>
            </Position>
            <AltitudeMeters>80.8000030517578125</AltitudeMeters>
            <DistanceMeters>NAN</DistanceMeters>
          </Trackpoint>
          <Trackpoint>
            <Time>2022-07-14T16:29:58.000Z</Time>
            <Position>
              <LatitudeDegrees>43.395972289144992828369140625</LatitudeDegrees>
              <LongitudeDegrees>-4.134487397968769073486328125</LongitudeDegrees>
            </Position>
            <AltitudeMeters>80.8000030517578125</AltitudeMeters>
            <DistanceMeters>NAN</DistanceMeters>
          </Trackpoint>
          <Trackpoint>
            <Time>2022-07-14T16:29:59.000Z</Time>
            <Position>
              <LatitudeDegrees>43.39595342986285686492919921875</LatitudeDegrees>
              <LongitudeDegrees>-4.1345395334064960479736328125</LongitudeDegrees>
            </Position>
            <AltitudeMeters>80.8000030517578125</AltitudeMeters>
            <DistanceMeters>NAN</DistanceMeters>
          </Trackpoint>
          <Trackpoint>
            <Time>2022-07-14T16:30:01.000Z</Time>
            <Position>
              <LatitudeDegrees>43.39593096636235713958740234375</LatitudeDegrees>
              <LongitudeDegrees>-4.134656377136707305908203125</LongitudeDegrees>
            </Position>
            <AltitudeMeters>81</AltitudeMeters>
            <DistanceMeters>NAN</DistanceMeters>
          </Trackpoint>
          <Trackpoint>
            <Time>2022-07-14T16:30:02.000Z</Time>
            <Position>
              <LatitudeDegrees>43.3959308825433254241943359375</LatitudeDegrees>
              <LongitudeDegrees>-4.13470909930765628814697265625</LongitudeDegrees>
            </Position>
            <AltitudeMeters>81</AltitudeMeters>
            <DistanceMeters>NAN</DistanceMeters>
          </Trackpoint>
          <Trackpoint>
            <Time>2022-07-14T16:30:07.000Z</Time>
            <Position>
              <LatitudeDegrees>43.3959811739623546600341796875</LatitudeDegrees>
              <LongitudeDegrees>-4.134960137307643890380859375</LongitudeDegrees>
            </Position>
            <AltitudeMeters>81</AltitudeMeters>
            <DistanceMeters>NAN</DistanceMeters>
          </Trackpoint>
          <Trackpoint>
            <Time>2022-07-14T16:30:14.000Z</Time>
            <Position>
              <LatitudeDegrees>43.396033979952335357666015625</LatitudeDegrees>
              <LongitudeDegrees>-4.1352737881243228912353515625</LongitudeDegrees>
            </Position>
            <AltitudeMeters>81</AltitudeMeters>
            <DistanceMeters>NAN</DistanceMeters>
          </Trackpoint>
          <Trackpoint>
            <Time>2022-07-14T16:30:17.000Z</Time>
            <Position>
              <LatitudeDegrees>43.39605350978672504425048828125</LatitudeDegrees>
              <LongitudeDegrees>-4.13541887886822223663330078125</LongitudeDegrees>
            </Position>
            <AltitudeMeters>81</AltitudeMeters>
            <DistanceMeters>NAN</DistanceMeters>
          </Trackpoint>
          <Trackpoint>
            <Time>2022-07-14T16:30:21.000Z</Time>
            <Position>
              <LatitudeDegrees>43.396077565848827362060546875</LatitudeDegrees>
              <LongitudeDegrees>-4.135573692619800567626953125</LongitudeDegrees>
            </Position>
            <AltitudeMeters>81.1999969482421875</AltitudeMeters>
            <DistanceMeters>NAN</DistanceMeters>
          </Trackpoint>
          <Trackpoint>
            <Time>2022-07-14T16:30:25.000Z</Time>
            <Position>
              <LatitudeDegrees>43.39613263495266437530517578125</LatitudeDegrees>
              <LongitudeDegrees>-4.13571040146052837371826171875</LongitudeDegrees>
            </Position>
            <AltitudeMeters>81.59999847412109375</AltitudeMeters>
            <DistanceMeters>NAN</DistanceMeters>
          </Trackpoint>
          <Trackpoint>
            <Time>2022-07-14T16:30:28.000Z</Time>
            <Position>
              <LatitudeDegrees>43.39618988335132598876953125</LatitudeDegrees>
              <LongitudeDegrees>-4.1357995010912418365478515625</LongitudeDegrees>
            </Position>
            <AltitudeMeters>81.8000030517578125</AltitudeMeters>
            <DistanceMeters>NAN</DistanceMeters>
          </Trackpoint>
          <Trackpoint>
            <Time>2022-07-14T16:30:31.000Z</Time>
            <Position>
              <LatitudeDegrees>43.39624009095132350921630859375</LatitudeDegrees>
              <LongitudeDegrees>-4.1358829848468303680419921875</LongitudeDegrees>
            </Position>
            <AltitudeMeters>82.1999969482421875</AltitudeMeters>
            <DistanceMeters>NAN</DistanceMeters>
          </Trackpoint>
          <Trackpoint>
            <Time>2022-07-14T16:30:36.000Z</Time>
            <Position>
              <LatitudeDegrees>43.3963258378207683563232421875</LatitudeDegrees>
              <LongitudeDegrees>-4.13599513471126556396484375</LongitudeDegrees>
            </Position>
            <AltitudeMeters>82.40000152587890625</AltitudeMeters>
            <DistanceMeters>NAN</DistanceMeters>
          </Trackpoint>
          <Trackpoint>
            <Time>2022-07-14T16:30:37.000Z</Time>
            <Position>
              <LatitudeDegrees>43.39634335599839687347412109375</LatitudeDegrees>
              <LongitudeDegrees>-4.13602824322879314422607421875</LongitudeDegrees>
            </Position>
            <AltitudeMeters>82.59999847412109375</AltitudeMeters>
            <DistanceMeters>NAN</DistanceMeters>
          </Trackpoint>
          <Trackpoint>
            <Time>2022-07-14T16:30:42.000Z</Time>
            <Position>
              <LatitudeDegrees>43.39638493023812770843505859375</LatitudeDegrees>
              <LongitudeDegrees>-4.1361843980848789215087890625</LongitudeDegrees>
            </Position>
            <AltitudeMeters>82.8000030517578125</AltitudeMeters>
            <DistanceMeters>NAN</DistanceMeters>
          </Trackpoint>
          <Trackpoint>
            <Time>2022-07-14T16:30:44.000Z</Time>
            <Position>
              <LatitudeDegrees>43.39638744480907917022705078125</LatitudeDegrees>
              <LongitudeDegrees>-4.136249609291553497314453125</LongitudeDegrees>
            </Position>
            <AltitudeMeters>83</AltitudeMeters>
            <DistanceMeters>NAN</DistanceMeters>
          </Trackpoint>
          <Trackpoint>
            <Time>2022-07-14T16:30:50.000Z</Time>
            <Position>
              <LatitudeDegrees>43.3963895402848720550537109375</LatitudeDegrees>
              <LongitudeDegrees>-4.13642303086817264556884765625</LongitudeDegrees>
            </Position>
            <AltitudeMeters>83.1999969482421875</AltitudeMeters>
            <DistanceMeters>NAN</DistanceMeters>
          </Trackpoint>
          <Trackpoint>
            <Time>2022-07-14T16:30:53.000Z</Time>
            <Position>
              <LatitudeDegrees>43.396363556385040283203125</LatitudeDegrees>
              <LongitudeDegrees>-4.13650634698569774627685546875</LongitudeDegrees>
            </Position>
            <AltitudeMeters>83.40000152587890625</AltitudeMeters>
            <DistanceMeters>NAN</DistanceMeters>
          </Trackpoint>
          <Trackpoint>
            <Time>2022-07-14T16:30:58.000Z</Time>
            <Position>
              <LatitudeDegrees>43.39633396826684474945068359375</LatitudeDegrees>
              <LongitudeDegrees>-4.1366423852741718292236328125</LongitudeDegrees>
            </Position>
            <AltitudeMeters>83.59999847412109375</AltitudeMeters>
            <DistanceMeters>NAN</DistanceMeters>
          </Trackpoint>
          <Trackpoint>
            <Time>2022-07-14T16:31:09.000Z</Time>
            <Position>
              <LatitudeDegrees>43.3963654004037380218505859375</LatitudeDegrees>
              <LongitudeDegrees>-4.13699367083609104156494140625</LongitudeDegrees>
            </Position>
            <AltitudeMeters>84.1999969482421875</AltitudeMeters>
            <DistanceMeters>NAN</DistanceMeters>
          </Trackpoint>
          <Trackpoint>
            <Time>2022-07-14T16:31:14.000Z</Time>
            <Position>
              <LatitudeDegrees>43.3963677473366260528564453125</LatitudeDegrees>
              <LongitudeDegrees>-4.1371516697108745574951171875</LongitudeDegrees>
            </Position>
            <AltitudeMeters>84.59999847412109375</AltitudeMeters>
            <DistanceMeters>NAN</DistanceMeters>
          </Trackpoint>
          <Trackpoint>
            <Time>2022-07-14T16:31:18.000Z</Time>
            <Position>
              <LatitudeDegrees>43.39638434350490570068359375</LatitudeDegrees>
              <LongitudeDegrees>-4.137286283075809478759765625</LongitudeDegrees>
            </Position>
            <AltitudeMeters>84.8000030517578125</AltitudeMeters>
            <DistanceMeters>NAN</DistanceMeters>
          </Trackpoint>
          <Trackpoint>
            <Time>2022-07-14T16:31:25.000Z</Time>
            <Position>
              <LatitudeDegrees>43.39647411368787288665771484375</LatitudeDegrees>
              <LongitudeDegrees>-4.1374869458377361297607421875</LongitudeDegrees>
            </Position>
            <AltitudeMeters>84.8000030517578125</AltitudeMeters>
            <DistanceMeters>NAN</DistanceMeters>
          </Trackpoint>
          <Trackpoint>
            <Time>2022-07-14T16:31:29.000Z</Time>
            <Position>
              <LatitudeDegrees>43.3965471200644969940185546875</LatitudeDegrees>
              <LongitudeDegrees>-4.13755374960601329803466796875</LongitudeDegrees>
            </Position>
            <AltitudeMeters>85.1999969482421875</AltitudeMeters>
            <DistanceMeters>NAN</DistanceMeters>
          </Trackpoint>
          <Trackpoint>
            <Time>2022-07-14T16:31:33.000Z</Time>
            <Position>
              <LatitudeDegrees>43.39660939760506153106689453125</LatitudeDegrees>
              <LongitudeDegrees>-4.137612842023372650146484375</LongitudeDegrees>
            </Position>
            <AltitudeMeters>85.40000152587890625</AltitudeMeters>
            <DistanceMeters>NAN</DistanceMeters>
          </Trackpoint>
          <Trackpoint>
            <Time>2022-07-14T16:31:35.000Z</Time>
            <Position>
              <LatitudeDegrees>43.39663789607584476470947265625</LatitudeDegrees>
              <LongitudeDegrees>-4.13763287477195262908935546875</LongitudeDegrees>
            </Position>
            <AltitudeMeters>85.59999847412109375</AltitudeMeters>
            <DistanceMeters>NAN</DistanceMeters>
          </Trackpoint>
          <Trackpoint>
            <Time>2022-07-14T16:31:38.000Z</Time>
            <Position>
              <LatitudeDegrees>43.3966842480003833770751953125</LatitudeDegrees>
              <LongitudeDegrees>-4.1376740299165248870849609375</LongitudeDegrees>
            </Position>
            <AltitudeMeters>85.8000030517578125</AltitudeMeters>
            <DistanceMeters>NAN</DistanceMeters>
          </Trackpoint>
          <Trackpoint>
            <Time>2022-07-14T16:31:40.000Z</Time>
            <Position>
              <LatitudeDegrees>43.3967181108891963958740234375</LatitudeDegrees>
              <LongitudeDegrees>-4.1377048753201961517333984375</LongitudeDegrees>
            </Position>
            <AltitudeMeters>86</AltitudeMeters>
            <DistanceMeters>NAN</DistanceMeters>
          </Trackpoint>
          <Trackpoint>
            <Time>2022-07-14T16:31:43.000Z</Time>
            <Position>
              <LatitudeDegrees>43.39676094241440296173095703125</LatitudeDegrees>
              <LongitudeDegrees>-4.13774535991251468658447265625</LongitudeDegrees>
            </Position>
            <AltitudeMeters>86.40000152587890625</AltitudeMeters>
            <DistanceMeters>NAN</DistanceMeters>
          </Trackpoint>
          <Trackpoint>
            <Time>2022-07-14T16:31:45.000Z</Time>
            <Position>
              <LatitudeDegrees>43.39677904732525348663330078125</LatitudeDegrees>
              <LongitudeDegrees>-4.13776916451752185821533203125</LongitudeDegrees>
            </Position>
            <AltitudeMeters>86.59999847412109375</AltitudeMeters>
            <DistanceMeters>NAN</DistanceMeters>
          </Trackpoint>
          <Trackpoint>
            <Time>2022-07-14T16:31:46.000Z</Time>
            <Position>
              <LatitudeDegrees>43.39678692631423473358154296875</LatitudeDegrees>
              <LongitudeDegrees>-4.13778827525675296783447265625</LongitudeDegrees>
            </Position>
            <AltitudeMeters>86.8000030517578125</AltitudeMeters>
            <DistanceMeters>NAN</DistanceMeters>
          </Trackpoint>
          <Trackpoint>
            <Time>2022-07-14T16:31:50.000Z</Time>
            <Position>
              <LatitudeDegrees>43.39683151803910732269287109375</LatitudeDegrees>
              <LongitudeDegrees>-4.13785952143371105194091796875</LongitudeDegrees>
            </Position>
            <AltitudeMeters>87.1999969482421875</AltitudeMeters>
            <DistanceMeters>NAN</DistanceMeters>
          </Trackpoint>
          <Trackpoint>
            <Time>2022-07-14T16:31:55.000Z</Time>
            <Position>
              <LatitudeDegrees>43.3968917839229106903076171875</LatitudeDegrees>
              <LongitudeDegrees>-4.13793713785707950592041015625</LongitudeDegrees>
            </Position>
            <AltitudeMeters>87.8000030517578125</AltitudeMeters>
            <DistanceMeters>NAN</DistanceMeters>
          </Trackpoint>
          <Trackpoint>
            <Time>2022-07-14T16:31:56.000Z</Time>
            <Position>
              <LatitudeDegrees>43.39690075255930423736572265625</LatitudeDegrees>
              <LongitudeDegrees>-4.1379472799599170684814453125</LongitudeDegrees>
            </Position>
            <AltitudeMeters>87.8000030517578125</AltitudeMeters>
            <DistanceMeters>NAN</DistanceMeters>
          </Trackpoint>
          <Trackpoint>
            <Time>2022-07-14T16:31:59.000Z</Time>
            <Position>
              <LatitudeDegrees>43.39693595655262470245361328125</LatitudeDegrees>
              <LongitudeDegrees>-4.1379878483712673187255859375</LongitudeDegrees>
            </Position>
            <AltitudeMeters>88.1999969482421875</AltitudeMeters>
            <DistanceMeters>NAN</DistanceMeters>
          </Trackpoint>
          <Trackpoint>
            <Time>2022-07-14T16:32:01.000Z</Time>
            <Position>
              <LatitudeDegrees>43.3969630300998687744140625</LatitudeDegrees>
              <LongitudeDegrees>-4.13801844231784343719482421875</LongitudeDegrees>
            </Position>
            <AltitudeMeters>88.1999969482421875</AltitudeMeters>
            <DistanceMeters>NAN</DistanceMeters>
          </Trackpoint>
          <Trackpoint>
            <Time>2022-07-14T16:32:04.000Z</Time>
            <Position>
              <LatitudeDegrees>43.39700804091989994049072265625</LatitudeDegrees>
              <LongitudeDegrees>-4.13805917836725711822509765625</LongitudeDegrees>
            </Position>
            <AltitudeMeters>88.40000152587890625</AltitudeMeters>
            <DistanceMeters>NAN</DistanceMeters>
          </Trackpoint>
          <Trackpoint>
            <Time>2022-07-14T16:32:08.000Z</Time>
            <Position>
              <LatitudeDegrees>43.39706361293792724609375</LatitudeDegrees>
              <LongitudeDegrees>-4.1381026804447174072265625</LongitudeDegrees>
            </Position>
            <AltitudeMeters>88.8000030517578125</AltitudeMeters>
            <DistanceMeters>NAN</DistanceMeters>
          </Trackpoint>
          <Trackpoint>
            <Time>2022-07-14T16:32:13.000Z</Time>
            <Position>
              <LatitudeDegrees>43.3971278183162212371826171875</LatitudeDegrees>
              <LongitudeDegrees>-4.13815272040665149688720703125</LongitudeDegrees>
            </Position>
            <AltitudeMeters>89.40000152587890625</AltitudeMeters>
            <DistanceMeters>NAN</DistanceMeters>
          </Trackpoint>
          <Trackpoint>
            <Time>2022-07-14T16:32:20.000Z</Time>
            <Position>
              <LatitudeDegrees>43.39722563512623310089111328125</LatitudeDegrees>
              <LongitudeDegrees>-4.13822949863970279693603515625</LongitudeDegrees>
            </Position>
            <AltitudeMeters>90</AltitudeMeters>
            <DistanceMeters>NAN</DistanceMeters>
          </Trackpoint>
          <Trackpoint>
            <Time>2022-07-14T16:32:25.000Z</Time>
            <Position>
              <LatitudeDegrees>43.39728766120970249176025390625</LatitudeDegrees>
              <LongitudeDegrees>-4.13829420693218708038330078125</LongitudeDegrees>
            </Position>
            <AltitudeMeters>90.40000152587890625</AltitudeMeters>
            <DistanceMeters>NAN</DistanceMeters>
          </Trackpoint>
          <Trackpoint>
            <Time>2022-07-14T16:32:33.000Z</Time>
            <Position>
              <LatitudeDegrees>43.397385142743587493896484375</LatitudeDegrees>
              <LongitudeDegrees>-4.13839093409478664398193359375</LongitudeDegrees>
            </Position>
            <AltitudeMeters>91</AltitudeMeters>
            <DistanceMeters>NAN</DistanceMeters>
          </Trackpoint>
          <Trackpoint>
            <Time>2022-07-14T16:32:41.000Z</Time>
            <Position>
              <LatitudeDegrees>43.3974671177566051483154296875</LatitudeDegrees>
              <LongitudeDegrees>-4.13852370344102382659912109375</LongitudeDegrees>
            </Position>
            <AltitudeMeters>91.40000152587890625</AltitudeMeters>
            <DistanceMeters>NAN</DistanceMeters>
          </Trackpoint>
          <Trackpoint>
            <Time>2022-07-14T16:32:49.000Z</Time>
            <Position>
              <LatitudeDegrees>43.39752688072621822357177734375</LatitudeDegrees>
              <LongitudeDegrees>-4.13867600262165069580078125</LongitudeDegrees>
            </Position>
            <AltitudeMeters>92</AltitudeMeters>
            <DistanceMeters>NAN</DistanceMeters>
          </Trackpoint>
          <Trackpoint>
            <Time>2022-07-14T16:32:50.000Z</Time>
            <Position>
              <LatitudeDegrees>43.39753459207713603973388671875</LatitudeDegrees>
              <LongitudeDegrees>-4.138695783913135528564453125</LongitudeDegrees>
            </Position>
            <AltitudeMeters>92</AltitudeMeters>
            <DistanceMeters>NAN</DistanceMeters>
          </Trackpoint>
          <Trackpoint>
            <Time>2022-07-14T16:33:00.000Z</Time>
            <Position>
              <LatitudeDegrees>43.39762310497462749481201171875</LatitudeDegrees>
              <LongitudeDegrees>-4.13888596929609775543212890625</LongitudeDegrees>
            </Position>
            <AltitudeMeters>93</AltitudeMeters>
            <DistanceMeters>NAN</DistanceMeters>
          </Trackpoint>
          <Trackpoint>
            <Time>2022-07-14T16:33:01.000Z</Time>
            <Position>
              <LatitudeDegrees>43.39763157069683074951171875</LatitudeDegrees>
              <LongitudeDegrees>-4.13890038616955280303955078125</LongitudeDegrees>
            </Position>
            <AltitudeMeters>93</AltitudeMeters>
            <DistanceMeters>NAN</DistanceMeters>
          </Trackpoint>
          <Trackpoint>
            <Time>2022-07-14T16:33:08.000Z</Time>
            <Position>
              <LatitudeDegrees>43.39768529869616031646728515625</LatitudeDegrees>
              <LongitudeDegrees>-4.13901085965335369110107421875</LongitudeDegrees>
            </Position>
            <AltitudeMeters>93.8000030517578125</AltitudeMeters>
            <DistanceMeters>NAN</DistanceMeters>
          </Trackpoint>
          <Trackpoint>
            <Time>2022-07-14T16:33:16.000Z</Time>
            <Position>
              <LatitudeDegrees>43.39776140637695789337158203125</LatitudeDegrees>
              <LongitudeDegrees>-4.13915234617888927459716796875</LongitudeDegrees>
            </Position>
            <AltitudeMeters>94</AltitudeMeters>
            <DistanceMeters>NAN</DistanceMeters>
          </Trackpoint>
          <Trackpoint>
            <Time>2022-07-14T16:33:18.000Z</Time>
            <Position>
              <LatitudeDegrees>43.39778152294456958770751953125</LatitudeDegrees>
              <LongitudeDegrees>-4.13918671198189258575439453125</LongitudeDegrees>
            </Position>
            <AltitudeMeters>94.1999969482421875</AltitudeMeters>
            <DistanceMeters>NAN</DistanceMeters>
          </Trackpoint>
          <Trackpoint>
            <Time>2022-07-14T16:33:26.000Z</Time>
            <Position>
              <LatitudeDegrees>43.39786584489047527313232421875</LatitudeDegrees>
              <LongitudeDegrees>-4.13934462703764438629150390625</LongitudeDegrees>
            </Position>
            <AltitudeMeters>94.40000152587890625</AltitudeMeters>
            <DistanceMeters>NAN</DistanceMeters>
          </Trackpoint>
          <Trackpoint>
            <Time>2022-07-14T16:33:29.000Z</Time>
            <Position>
              <LatitudeDegrees>43.39789367280900478363037109375</LatitudeDegrees>
              <LongitudeDegrees>-4.13940162397921085357666015625</LongitudeDegrees>
            </Position>
            <AltitudeMeters>94.59999847412109375</AltitudeMeters>
            <DistanceMeters>NAN</DistanceMeters>
          </Trackpoint>
          <Trackpoint>
            <Time>2022-07-14T16:33:34.000Z</Time>
            <Position>
              <LatitudeDegrees>43.39795016683638095855712890625</LatitudeDegrees>
              <LongitudeDegrees>-4.1394872032105922698974609375</LongitudeDegrees>
            </Position>
            <AltitudeMeters>94.8000030517578125</AltitudeMeters>
            <DistanceMeters>NAN</DistanceMeters>
          </Trackpoint>
          <Trackpoint>
            <Time>2022-07-14T16:33:40.000Z</Time>
            <Position>
              <LatitudeDegrees>43.3980095945298671722412109375</LatitudeDegrees>
              <LongitudeDegrees>-4.13962550461292266845703125</LongitudeDegrees>
            </Position>
            <AltitudeMeters>95.1999969482421875</AltitudeMeters>
            <DistanceMeters>NAN</DistanceMeters>
          </Trackpoint>
          <Trackpoint>
            <Time>2022-07-14T16:33:43.000Z</Time>
            <Position>
              <LatitudeDegrees>43.39803800918161869049072265625</LatitudeDegrees>
              <LongitudeDegrees>-4.13968057371675968170166015625</LongitudeDegrees>
            </Position>
            <AltitudeMeters>95.40000152587890625</AltitudeMeters>
            <DistanceMeters>NAN</DistanceMeters>
          </Trackpoint>
          <Trackpoint>
            <Time>2022-07-14T16:33:54.000Z</Time>
            <Position>
              <LatitudeDegrees>43.39811830781400203704833984375</LatitudeDegrees>
              <LongitudeDegrees>-4.1399039514362812042236328125</LongitudeDegrees>
            </Position>
            <AltitudeMeters>96</AltitudeMeters>
            <DistanceMeters>NAN</DistanceMeters>
          </Trackpoint>
          <Trackpoint>
            <Time>2022-07-14T16:34:00.000Z</Time>
            <Position>
              <LatitudeDegrees>43.39815795421600341796875</LatitudeDegrees>
              <LongitudeDegrees>-4.14003177545964717864990234375</LongitudeDegrees>
            </Position>
            <AltitudeMeters>96.1999969482421875</AltitudeMeters>
            <DistanceMeters>NAN</DistanceMeters>
          </Trackpoint>
          <Trackpoint>
            <Time>2022-07-14T16:34:02.000Z</Time>
            <Position>
              <LatitudeDegrees>43.39817446656525135040283203125</LatitudeDegrees>
              <LongitudeDegrees>-4.14007586427032947540283203125</LongitudeDegrees>
            </Position>
            <AltitudeMeters>96.1999969482421875</AltitudeMeters>
            <DistanceMeters>NAN</DistanceMeters>
          </Trackpoint>
          <Trackpoint>
            <Time>2022-07-14T16:34:04.000Z</Time>
            <Position>
              <LatitudeDegrees>43.39819357730448246002197265625</LatitudeDegrees>
              <LongitudeDegrees>-4.14011844433844089508056640625</LongitudeDegrees>
            </Position>
            <AltitudeMeters>96.40000152587890625</AltitudeMeters>
            <DistanceMeters>NAN</DistanceMeters>
          </Trackpoint>
          <Trackpoint>
            <Time>2022-07-14T16:34:10.000Z</Time>
            <Position>
              <LatitudeDegrees>43.398226015269756317138671875</LatitudeDegrees>
              <LongitudeDegrees>-4.14022623561322689056396484375</LongitudeDegrees>
            </Position>
            <AltitudeMeters>96.8000030517578125</AltitudeMeters>
            <DistanceMeters>NAN</DistanceMeters>
          </Trackpoint>
          <Trackpoint>
            <Time>2022-07-14T16:34:11.000Z</Time>
            <Position>
              <LatitudeDegrees>43.39823565445840358734130859375</LatitudeDegrees>
              <LongitudeDegrees>-4.1402457654476165771484375</LongitudeDegrees>
            </Position>
            <AltitudeMeters>97</AltitudeMeters>
            <DistanceMeters>NAN</DistanceMeters>
          </Trackpoint>
          <Trackpoint>
            <Time>2022-07-14T16:34:12.000Z</Time>
            <Position>
              <LatitudeDegrees>43.398246802389621734619140625</LatitudeDegrees>
              <LongitudeDegrees>-4.1402672231197357177734375</LongitudeDegrees>
            </Position>
            <AltitudeMeters>97</AltitudeMeters>
            <DistanceMeters>NAN</DistanceMeters>
          </Trackpoint>
          <Trackpoint>
            <Time>2022-07-14T16:34:13.000Z</Time>
            <Position>
              <LatitudeDegrees>43.39825518429279327392578125</LatitudeDegrees>
              <LongitudeDegrees>-4.14029069244861602783203125</LongitudeDegrees>
            </Position>
            <AltitudeMeters>97.1999969482421875</AltitudeMeters>
            <DistanceMeters>NAN</DistanceMeters>
          </Trackpoint>
          <Trackpoint>
            <Time>2022-07-14T16:34:17.000Z</Time>
            <Position>
              <LatitudeDegrees>43.39828510768711566925048828125</LatitudeDegrees>
              <LongitudeDegrees>-4.1403622739017009735107421875</LongitudeDegrees>
            </Position>
            <AltitudeMeters>97.59999847412109375</AltitudeMeters>
            <DistanceMeters>NAN</DistanceMeters>
          </Trackpoint>
          <Trackpoint>
            <Time>2022-07-14T16:34:21.000Z</Time>
            <Position>
              <LatitudeDegrees>43.39832299388945102691650390625</LatitudeDegrees>
              <LongitudeDegrees>-4.14043142460286617279052734375</LongitudeDegrees>
            </Position>
            <AltitudeMeters>97.8000030517578125</AltitudeMeters>
            <DistanceMeters>NAN</DistanceMeters>
          </Trackpoint>
          <Trackpoint>
            <Time>2022-07-14T16:34:27.000Z</Time>
            <Position>
              <LatitudeDegrees>43.39837295003235340118408203125</LatitudeDegrees>
              <LongitudeDegrees>-4.1405086219310760498046875</LongitudeDegrees>
            </Position>
            <AltitudeMeters>98.1999969482421875</AltitudeMeters>
            <DistanceMeters>NAN</DistanceMeters>
          </Trackpoint>
          <Trackpoint>
            <Time>2022-07-14T16:34:28.000Z</Time>
            <Position>
              <LatitudeDegrees>43.398380577564239501953125</LatitudeDegrees>
              <LongitudeDegrees>-4.140526391565799713134765625</LongitudeDegrees>
            </Position>
            <AltitudeMeters>98.1999969482421875</AltitudeMeters>
            <DistanceMeters>NAN</DistanceMeters>
          </Trackpoint>
          <Trackpoint>
            <Time>2022-07-14T16:34:29.000Z</Time>
            <Position>
              <LatitudeDegrees>43.39838786981999874114990234375</LatitudeDegrees>
              <LongitudeDegrees>-4.14054214954376220703125</LongitudeDegrees>
            </Position>
            <AltitudeMeters>98.1999969482421875</AltitudeMeters>
            <DistanceMeters>NAN</DistanceMeters>
          </Trackpoint>
          <Trackpoint>
            <Time>2022-07-14T16:34:37.000Z</Time>
            <Position>
              <LatitudeDegrees>43.39843682013452053070068359375</LatitudeDegrees>
              <LongitudeDegrees>-4.1406539641320705413818359375</LongitudeDegrees>
            </Position>
            <AltitudeMeters>98.8000030517578125</AltitudeMeters>
            <DistanceMeters>NAN</DistanceMeters>
          </Trackpoint>
          <Trackpoint>
            <Time>2022-07-14T16:34:39.000Z</Time>
            <Position>
              <LatitudeDegrees>43.39845878072082996368408203125</LatitudeDegrees>
              <LongitudeDegrees>-4.140681289136409759521484375</LongitudeDegrees>
            </Position>
            <AltitudeMeters>98.8000030517578125</AltitudeMeters>
            <DistanceMeters>NAN</DistanceMeters>
          </Trackpoint>
          <Trackpoint>
            <Time>2022-07-14T16:34:43.000Z</Time>
            <Position>
              <LatitudeDegrees>43.3985007740557193756103515625</LatitudeDegrees>
              <LongitudeDegrees>-4.14075479842722415924072265625</LongitudeDegrees>
            </Position>
            <AltitudeMeters>99</AltitudeMeters>
            <DistanceMeters>NAN</DistanceMeters>
          </Trackpoint>
          <Trackpoint>
            <Time>2022-07-14T16:34:46.000Z</Time>
            <Position>
              <LatitudeDegrees>43.3985208906233310699462890625</LatitudeDegrees>
              <LongitudeDegrees>-4.1408048383891582489013671875</LongitudeDegrees>
            </Position>
            <AltitudeMeters>99.40000152587890625</AltitudeMeters>
            <DistanceMeters>NAN</DistanceMeters>
          </Trackpoint>
          <Trackpoint>
            <Time>2022-07-14T16:34:51.000Z</Time>
            <Position>
              <LatitudeDegrees>43.3985544182360172271728515625</LatitudeDegrees>
              <LongitudeDegrees>-4.1408785991370677947998046875</LongitudeDegrees>
            </Position>
            <AltitudeMeters>99.59999847412109375</AltitudeMeters>
            <DistanceMeters>NAN</DistanceMeters>
          </Trackpoint>
          <Trackpoint>
            <Time>2022-07-14T16:35:00.000Z</Time>
            <Position>
              <LatitudeDegrees>43.398608900606632232666015625</LatitudeDegrees>
              <LongitudeDegrees>-4.14103240706026554107666015625</LongitudeDegrees>
            </Position>
            <AltitudeMeters>100.40000152587890625</AltitudeMeters>
            <DistanceMeters>NAN</DistanceMeters>
          </Trackpoint>
          <Trackpoint>
            <Time>2022-07-14T16:35:10.000Z</Time>
            <Position>
              <LatitudeDegrees>43.39868810959160327911376953125</LatitudeDegrees>
              <LongitudeDegrees>-4.14120390079915523529052734375</LongitudeDegrees>
            </Position>
            <AltitudeMeters>101.40000152587890625</AltitudeMeters>
            <DistanceMeters>NAN</DistanceMeters>
          </Trackpoint>
          <Trackpoint>
            <Time>2022-07-14T16:35:19.000Z</Time>
            <Position>
              <LatitudeDegrees>43.3987572602927684783935546875</LatitudeDegrees>
              <LongitudeDegrees>-4.141341112554073333740234375</LongitudeDegrees>
            </Position>
            <AltitudeMeters>102.40000152587890625</AltitudeMeters>
            <DistanceMeters>NAN</DistanceMeters>
          </Trackpoint>
          <Trackpoint>
            <Time>2022-07-14T16:35:20.000Z</Time>
            <Position>
              <LatitudeDegrees>43.39876480400562286376953125</LatitudeDegrees>
              <LongitudeDegrees>-4.14135821163654327392578125</LongitudeDegrees>
            </Position>
            <AltitudeMeters>102.40000152587890625</AltitudeMeters>
            <DistanceMeters>NAN</DistanceMeters>
          </Trackpoint>
          <Trackpoint>
            <Time>2022-07-14T16:35:26.000Z</Time>
            <Position>
              <LatitudeDegrees>43.39879028499126434326171875</LatitudeDegrees>
              <LongitudeDegrees>-4.14145066402852535247802734375</LongitudeDegrees>
            </Position>
            <AltitudeMeters>103</AltitudeMeters>
            <DistanceMeters>NAN</DistanceMeters>
          </Trackpoint>
          <Trackpoint>
            <Time>2022-07-14T16:35:31.000Z</Time>
            <Position>
              <LatitudeDegrees>43.39881886728107929229736328125</LatitudeDegrees>
              <LongitudeDegrees>-4.14152962155640125274658203125</LongitudeDegrees>
            </Position>
            <AltitudeMeters>103.59999847412109375</AltitudeMeters>
            <DistanceMeters>NAN</DistanceMeters>
          </Trackpoint>
          <Trackpoint>
            <Time>2022-07-14T16:35:37.000Z</Time>
            <Position>
              <LatitudeDegrees>43.39885524474084377288818359375</LatitudeDegrees>
              <LongitudeDegrees>-4.141629450023174285888671875</LongitudeDegrees>
            </Position>
            <AltitudeMeters>104.40000152587890625</AltitudeMeters>
            <DistanceMeters>NAN</DistanceMeters>
          </Trackpoint>
          <Trackpoint>
            <Time>2022-07-14T16:35:40.000Z</Time>
            <Position>
              <LatitudeDegrees>43.39886982925236225128173828125</LatitudeDegrees>
              <LongitudeDegrees>-4.14167814888060092926025390625</LongitudeDegrees>
            </Position>
            <AltitudeMeters>104.59999847412109375</AltitudeMeters>
            <DistanceMeters>NAN</DistanceMeters>
          </Trackpoint>
          <Trackpoint>
            <Time>2022-07-14T16:35:50.000Z</Time>
            <Position>
              <LatitudeDegrees>43.3989210426807403564453125</LatitudeDegrees>
              <LongitudeDegrees>-4.1418458707630634307861328125</LongitudeDegrees>
            </Position>
            <AltitudeMeters>105.8000030517578125</AltitudeMeters>
            <DistanceMeters>NAN</DistanceMeters>
          </Trackpoint>
          <Trackpoint>
            <Time>2022-07-14T16:35:58.000Z</Time>
            <Position>
              <LatitudeDegrees>43.39895658195018768310546875</LatitudeDegrees>
              <LongitudeDegrees>-4.1419816575944423675537109375</LongitudeDegrees>
            </Position>
            <AltitudeMeters>106.59999847412109375</AltitudeMeters>
            <DistanceMeters>NAN</DistanceMeters>
          </Trackpoint>
          <Trackpoint>
            <Time>2022-07-14T16:35:59.000Z</Time>
            <Position>
              <LatitudeDegrees>43.3989612758159637451171875</LatitudeDegrees>
              <LongitudeDegrees>-4.1419984214007854461669921875</LongitudeDegrees>
            </Position>
            <AltitudeMeters>106.59999847412109375</AltitudeMeters>
            <DistanceMeters>NAN</DistanceMeters>
          </Trackpoint>
          <Trackpoint>
            <Time>2022-07-14T16:36:01.000Z</Time>
            <Position>
              <LatitudeDegrees>43.39897041209042072296142578125</LatitudeDegrees>
              <LongitudeDegrees>-4.142032451927661895751953125</LongitudeDegrees>
            </Position>
            <AltitudeMeters>106.8000030517578125</AltitudeMeters>
            <DistanceMeters>NAN</DistanceMeters>
          </Trackpoint>
          <Trackpoint>
            <Time>2022-07-14T16:36:09.000Z</Time>
            <Position>
              <LatitudeDegrees>43.39901399798691272735595703125</LatitudeDegrees>
              <LongitudeDegrees>-4.14216480217874050140380859375</LongitudeDegrees>
            </Position>
            <AltitudeMeters>108</AltitudeMeters>
            <DistanceMeters>NAN</DistanceMeters>
          </Trackpoint>
          <Trackpoint>
            <Time>2022-07-14T16:36:17.000Z</Time>
            <Position>
              <LatitudeDegrees>43.39906462468206882476806640625</LatitudeDegrees>
              <LongitudeDegrees>-4.14229723624885082244873046875</LongitudeDegrees>
            </Position>
            <AltitudeMeters>109.1999969482421875</AltitudeMeters>
            <DistanceMeters>NAN</DistanceMeters>
          </Trackpoint>
          <Trackpoint>
            <Time>2022-07-14T16:36:21.000Z</Time>
            <Position>
              <LatitudeDegrees>43.39909899048507213592529296875</LatitudeDegrees>
              <LongitudeDegrees>-4.14236563257873058319091796875</LongitudeDegrees>
            </Position>
            <AltitudeMeters>109.59999847412109375</AltitudeMeters>
            <DistanceMeters>NAN</DistanceMeters>
          </Trackpoint>
          <Trackpoint>
            <Time>2022-07-14T16:36:26.000Z</Time>
            <Position>
              <LatitudeDegrees>43.3991475217044353485107421875</LatitudeDegrees>
              <LongitudeDegrees>-4.1424450092017650604248046875</LongitudeDegrees>
            </Position>
            <AltitudeMeters>110.1999969482421875</AltitudeMeters>
            <DistanceMeters>NAN</DistanceMeters>
          </Trackpoint>
          <Trackpoint>
            <Time>2022-07-14T16:36:30.000Z</Time>
            <Position>
              <LatitudeDegrees>43.39918415062129497528076171875</LatitudeDegrees>
              <LongitudeDegrees>-4.1425130702555179595947265625</LongitudeDegrees>
            </Position>
            <AltitudeMeters>110.59999847412109375</AltitudeMeters>
            <DistanceMeters>NAN</DistanceMeters>
          </Trackpoint>
          <Trackpoint>
            <Time>2022-07-14T16:36:37.000Z</Time>
            <Position>
              <LatitudeDegrees>43.39923880062997341156005859375</LatitudeDegrees>
              <LongitudeDegrees>-4.142627902328968048095703125</LongitudeDegrees>
            </Position>
            <AltitudeMeters>111.40000152587890625</AltitudeMeters>
            <DistanceMeters>NAN</DistanceMeters>
          </Trackpoint>
          <Trackpoint>
            <Time>2022-07-14T16:36:40.000Z</Time>
            <Position>
              <LatitudeDegrees>43.39926327578723430633544921875</LatitudeDegrees>
              <LongitudeDegrees>-4.14267945103347301483154296875</LongitudeDegrees>
            </Position>
            <AltitudeMeters>111.59999847412109375</AltitudeMeters>
            <DistanceMeters>NAN</DistanceMeters>
          </Trackpoint>
          <Trackpoint>
            <Time>2022-07-14T16:36:49.000Z</Time>
            <Position>
              <LatitudeDegrees>43.3993233740329742431640625</LatitudeDegrees>
              <LongitudeDegrees>-4.14284306578338146209716796875</LongitudeDegrees>
            </Position>
            <AltitudeMeters>112.40000152587890625</AltitudeMeters>
            <DistanceMeters>NAN</DistanceMeters>
          </Trackpoint>
          <Trackpoint>
            <Time>2022-07-14T16:36:50.000Z</Time>
            <Position>
              <LatitudeDegrees>43.39932999573647975921630859375</LatitudeDegrees>
              <LongitudeDegrees>-4.142859242856502532958984375</LongitudeDegrees>
            </Position>
            <AltitudeMeters>112.40000152587890625</AltitudeMeters>
            <DistanceMeters>NAN</DistanceMeters>
          </Trackpoint>
          <Trackpoint>
            <Time>2022-07-14T16:36:59.000Z</Time>
            <Position>
              <LatitudeDegrees>43.39937978424131870269775390625</LatitudeDegrees>
              <LongitudeDegrees>-4.14301791228353977203369140625</LongitudeDegrees>
            </Position>
            <AltitudeMeters>113.1999969482421875</AltitudeMeters>
            <DistanceMeters>NAN</DistanceMeters>
          </Trackpoint>
          <Trackpoint>
            <Time>2022-07-14T16:37:05.000Z</Time>
            <Position>
              <LatitudeDegrees>43.39941314421594142913818359375</LatitudeDegrees>
              <LongitudeDegrees>-4.1431189142167568206787109375</LongitudeDegrees>
            </Position>
            <AltitudeMeters>113.59999847412109375</AltitudeMeters>
            <DistanceMeters>NAN</DistanceMeters>
          </Trackpoint>
          <Trackpoint>
            <Time>2022-07-14T16:37:08.000Z</Time>
            <Position>
              <LatitudeDegrees>43.3994261361658573150634765625</LatitudeDegrees>
              <LongitudeDegrees>-4.1431779228150844573974609375</LongitudeDegrees>
            </Position>
            <AltitudeMeters>113.8000030517578125</AltitudeMeters>
            <DistanceMeters>NAN</DistanceMeters>
          </Trackpoint>
          <Trackpoint>
            <Time>2022-07-14T16:37:16.000Z</Time>
            <Position>
              <LatitudeDegrees>43.39946343563497066497802734375</LatitudeDegrees>
              <LongitudeDegrees>-4.1433249413967132568359375</LongitudeDegrees>
            </Position>
            <AltitudeMeters>114.59999847412109375</AltitudeMeters>
            <DistanceMeters>NAN</DistanceMeters>
          </Trackpoint>
          <Trackpoint>
            <Time>2022-07-14T16:37:18.000Z</Time>
            <Position>
              <LatitudeDegrees>43.39946762658655643463134765625</LatitudeDegrees>
              <LongitudeDegrees>-4.14336576126515865325927734375</LongitudeDegrees>
            </Position>
            <AltitudeMeters>114.59999847412109375</AltitudeMeters>
            <DistanceMeters>NAN</DistanceMeters>
          </Trackpoint>
          <Trackpoint>
            <Time>2022-07-14T16:37:27.000Z</Time>
            <Position>
              <LatitudeDegrees>43.39951808564364910125732421875</LatitudeDegrees>
              <LongitudeDegrees>-4.14354479871690273284912109375</LongitudeDegrees>
            </Position>
            <AltitudeMeters>115.1999969482421875</AltitudeMeters>
            <DistanceMeters>NAN</DistanceMeters>
          </Trackpoint>
          <Trackpoint>
            <Time>2022-07-14T16:37:31.000Z</Time>
            <Position>
              <LatitudeDegrees>43.39954197406768798828125</LatitudeDegrees>
              <LongitudeDegrees>-4.1436181403696537017822265625</LongitudeDegrees>
            </Position>
            <AltitudeMeters>115.40000152587890625</AltitudeMeters>
            <DistanceMeters>NAN</DistanceMeters>
          </Trackpoint>
          <Trackpoint>
            <Time>2022-07-14T16:37:34.000Z</Time>
            <Position>
              <LatitudeDegrees>43.3995594084262847900390625</LatitudeDegrees>
              <LongitudeDegrees>-4.143673293292522430419921875</LongitudeDegrees>
            </Position>
            <AltitudeMeters>115.59999847412109375</AltitudeMeters>
            <DistanceMeters>NAN</DistanceMeters>
          </Trackpoint>
          <Trackpoint>
            <Time>2022-07-14T16:37:41.000Z</Time>
            <Position>
              <LatitudeDegrees>43.3996028266847133636474609375</LatitudeDegrees>
              <LongitudeDegrees>-4.1437824256718158721923828125</LongitudeDegrees>
            </Position>
            <AltitudeMeters>116.1999969482421875</AltitudeMeters>
            <DistanceMeters>NAN</DistanceMeters>
          </Trackpoint>
          <Trackpoint>
            <Time>2022-07-14T16:37:51.000Z</Time>
            <Position>
              <LatitudeDegrees>43.3996588177978992462158203125</LatitudeDegrees>
              <LongitudeDegrees>-4.1439510695636272430419921875</LongitudeDegrees>
            </Position>
            <AltitudeMeters>116.8000030517578125</AltitudeMeters>
            <DistanceMeters>NAN</DistanceMeters>
          </Trackpoint>
          <Trackpoint>
            <Time>2022-07-14T16:37:54.000Z</Time>
            <Position>
              <LatitudeDegrees>43.39967499487102031707763671875</LatitudeDegrees>
              <LongitudeDegrees>-4.14400731213390827178955078125</LongitudeDegrees>
            </Position>
            <AltitudeMeters>116.8000030517578125</AltitudeMeters>
            <DistanceMeters>NAN</DistanceMeters>
          </Trackpoint>
          <Trackpoint>
            <Time>2022-07-14T16:38:02.000Z</Time>
            <Position>
              <LatitudeDegrees>43.39971564710140228271484375</LatitudeDegrees>
              <LongitudeDegrees>-4.1441344656050205230712890625</LongitudeDegrees>
            </Position>
            <AltitudeMeters>117.59999847412109375</AltitudeMeters>
            <DistanceMeters>NAN</DistanceMeters>
          </Trackpoint>
          <Trackpoint>
            <Time>2022-07-14T16:38:04.000Z</Time>
            <Position>
              <LatitudeDegrees>43.39972612448036670684814453125</LatitudeDegrees>
              <LongitudeDegrees>-4.14416170679032802581787109375</LongitudeDegrees>
            </Position>
            <AltitudeMeters>117.8000030517578125</AltitudeMeters>
            <DistanceMeters>NAN</DistanceMeters>
          </Trackpoint>
          <Trackpoint>
            <Time>2022-07-14T16:38:14.000Z</Time>
            <Position>
              <LatitudeDegrees>43.39978043921291828155517578125</LatitudeDegrees>
              <LongitudeDegrees>-4.144321382045745849609375</LongitudeDegrees>
            </Position>
            <AltitudeMeters>118.8000030517578125</AltitudeMeters>
            <DistanceMeters>NAN</DistanceMeters>
          </Trackpoint>
          <Trackpoint>
            <Time>2022-07-14T16:38:21.000Z</Time>
            <Position>
              <LatitudeDegrees>43.39981245808303356170654296875</LatitudeDegrees>
              <LongitudeDegrees>-4.14444199763238430023193359375</LongitudeDegrees>
            </Position>
            <AltitudeMeters>119.59999847412109375</AltitudeMeters>
            <DistanceMeters>NAN</DistanceMeters>
          </Trackpoint>
          <Trackpoint>
            <Time>2022-07-14T16:38:23.000Z</Time>
            <Position>
              <LatitudeDegrees>43.3998187445104122161865234375</LatitudeDegrees>
              <LongitudeDegrees>-4.14447963237762451171875</LongitudeDegrees>
            </Position>
            <AltitudeMeters>119.8000030517578125</AltitudeMeters>
            <DistanceMeters>NAN</DistanceMeters>
          </Trackpoint>
          <Trackpoint>
            <Time>2022-07-14T16:38:24.000Z</Time>
            <Position>
              <LatitudeDegrees>43.39981966651976108551025390625</LatitudeDegrees>
              <LongitudeDegrees>-4.144500084221363067626953125</LongitudeDegrees>
            </Position>
            <AltitudeMeters>120</AltitudeMeters>
            <DistanceMeters>NAN</DistanceMeters>
          </Trackpoint>
          <Trackpoint>
            <Time>2022-07-14T16:38:32.000Z</Time>
            <Position>
              <LatitudeDegrees>43.39980172924697399139404296875</LatitudeDegrees>
              <LongitudeDegrees>-4.14470116607844829559326171875</LongitudeDegrees>
            </Position>
            <AltitudeMeters>120.40000152587890625</AltitudeMeters>
            <DistanceMeters>NAN</DistanceMeters>
          </Trackpoint>
          <Trackpoint>
            <Time>2022-07-14T16:38:40.000Z</Time>
            <Position>
              <LatitudeDegrees>43.3997030742466449737548828125</LatitudeDegrees>
              <LongitudeDegrees>-4.144930578768253326416015625</LongitudeDegrees>
            </Position>
            <AltitudeMeters>120.1999969482421875</AltitudeMeters>
            <DistanceMeters>NAN</DistanceMeters>
          </Trackpoint>
          <Trackpoint>
            <Time>2022-07-14T16:38:46.000Z</Time>
            <Position>
              <LatitudeDegrees>43.39967080391943454742431640625</LatitudeDegrees>
              <LongitudeDegrees>-4.14514272473752498626708984375</LongitudeDegrees>
            </Position>
            <AltitudeMeters>120.1999969482421875</AltitudeMeters>
            <DistanceMeters>NAN</DistanceMeters>
          </Trackpoint>
          <Trackpoint>
            <Time>2022-07-14T16:38:50.000Z</Time>
            <Position>
              <LatitudeDegrees>43.39968555606901645660400390625</LatitudeDegrees>
              <LongitudeDegrees>-4.145273901522159576416015625</LongitudeDegrees>
            </Position>
            <AltitudeMeters>120.40000152587890625</AltitudeMeters>
            <DistanceMeters>NAN</DistanceMeters>
          </Trackpoint>
          <Trackpoint>
            <Time>2022-07-14T16:38:55.000Z</Time>
            <Position>
              <LatitudeDegrees>43.3997257053852081298828125</LatitudeDegrees>
              <LongitudeDegrees>-4.14541580714285373687744140625</LongitudeDegrees>
            </Position>
            <AltitudeMeters>120.40000152587890625</AltitudeMeters>
            <DistanceMeters>NAN</DistanceMeters>
          </Trackpoint>
          <Trackpoint>
            <Time>2022-07-14T16:39:02.000Z</Time>
            <Position>
              <LatitudeDegrees>43.399794436991214752197265625</LatitudeDegrees>
              <LongitudeDegrees>-4.14559350349009037017822265625</LongitudeDegrees>
            </Position>
            <AltitudeMeters>121</AltitudeMeters>
            <DistanceMeters>NAN</DistanceMeters>
          </Trackpoint>
          <Trackpoint>
            <Time>2022-07-14T16:39:08.000Z</Time>
            <Position>
              <LatitudeDegrees>43.39984917081892490386962890625</LatitudeDegrees>
              <LongitudeDegrees>-4.14573113434016704559326171875</LongitudeDegrees>
            </Position>
            <AltitudeMeters>121.1999969482421875</AltitudeMeters>
            <DistanceMeters>NAN</DistanceMeters>
          </Trackpoint>
          <Trackpoint>
            <Time>2022-07-14T16:39:12.000Z</Time>
            <Position>
              <LatitudeDegrees>43.39988471008837223052978515625</LatitudeDegrees>
              <LongitudeDegrees>-4.14585719816386699676513671875</LongitudeDegrees>
            </Position>
            <AltitudeMeters>121.1999969482421875</AltitudeMeters>
            <DistanceMeters>NAN</DistanceMeters>
          </Trackpoint>
          <Trackpoint>
            <Time>2022-07-14T16:39:16.000Z</Time>
            <Position>
              <LatitudeDegrees>43.3999059163033962249755859375</LatitudeDegrees>
              <LongitudeDegrees>-4.14603020064532756805419921875</LongitudeDegrees>
            </Position>
            <AltitudeMeters>121.1999969482421875</AltitudeMeters>
            <DistanceMeters>NAN</DistanceMeters>
          </Trackpoint>
          <Trackpoint>
            <Time>2022-07-14T16:39:22.000Z</Time>
            <Position>
              <LatitudeDegrees>43.39995092712342739105224609375</LatitudeDegrees>
              <LongitudeDegrees>-4.14639414288103580474853515625</LongitudeDegrees>
            </Position>
            <AltitudeMeters>120.1999969482421875</AltitudeMeters>
            <DistanceMeters>NAN</DistanceMeters>
          </Trackpoint>
          <Trackpoint>
            <Time>2022-07-14T16:39:24.000Z</Time>
            <Position>
              <LatitudeDegrees>43.39996165595948696136474609375</LatitudeDegrees>
              <LongitudeDegrees>-4.146538563072681427001953125</LongitudeDegrees>
            </Position>
            <AltitudeMeters>120</AltitudeMeters>
            <DistanceMeters>NAN</DistanceMeters>
          </Trackpoint>
          <Trackpoint>
            <Time>2022-07-14T16:39:27.000Z</Time>
            <Position>
              <LatitudeDegrees>43.39999216608703136444091796875</LatitudeDegrees>
              <LongitudeDegrees>-4.14678993634879589080810546875</LongitudeDegrees>
            </Position>
            <AltitudeMeters>119.1999969482421875</AltitudeMeters>
            <DistanceMeters>NAN</DistanceMeters>
          </Trackpoint>
          <Trackpoint>
            <Time>2022-07-14T16:39:28.000Z</Time>
            <Position>
              <LatitudeDegrees>43.400006331503391265869140625</LatitudeDegrees>
              <LongitudeDegrees>-4.14687626995146274566650390625</LongitudeDegrees>
            </Position>
            <AltitudeMeters>118.59999847412109375</AltitudeMeters>
            <DistanceMeters>NAN</DistanceMeters>
          </Trackpoint>
          <Trackpoint>
            <Time>2022-07-14T16:39:31.000Z</Time>
            <Position>
              <LatitudeDegrees>43.4000551141798496246337890625</LatitudeDegrees>
              <LongitudeDegrees>-4.14707534015178680419921875</LongitudeDegrees>
            </Position>
            <AltitudeMeters>117.1999969482421875</AltitudeMeters>
            <DistanceMeters>NAN</DistanceMeters>
          </Trackpoint>
          <Trackpoint>
            <Time>2022-07-14T16:39:32.000Z</Time>
            <Position>
              <LatitudeDegrees>43.40006592683494091033935546875</LatitudeDegrees>
              <LongitudeDegrees>-4.14710392244160175323486328125</LongitudeDegrees>
            </Position>
            <AltitudeMeters>116.59999847412109375</AltitudeMeters>
            <DistanceMeters>NAN</DistanceMeters>
          </Trackpoint>
          <Trackpoint>
            <Time>2022-07-14T16:39:33.000Z</Time>
            <Position>
              <LatitudeDegrees>43.4000688605010509490966796875</LatitudeDegrees>
              <LongitudeDegrees>-4.14711096324026584625244140625</LongitudeDegrees>
            </Position>
            <AltitudeMeters>116.1999969482421875</AltitudeMeters>
            <DistanceMeters>NAN</DistanceMeters>
          </Trackpoint>
          <Trackpoint>
            <Time>2022-07-14T16:39:34.000Z</Time>
            <Position>
              <LatitudeDegrees>43.4000688605010509490966796875</LatitudeDegrees>
              <LongitudeDegrees>-4.14711096324026584625244140625</LongitudeDegrees>
            </Position>
            <AltitudeMeters>115.8000030517578125</AltitudeMeters>
            <DistanceMeters>NAN</DistanceMeters>
          </Trackpoint>
          <Trackpoint>
            <Time>2022-07-14T16:39:41.000Z</Time>
            <Position>
              <LatitudeDegrees>43.40009643696248531341552734375</LatitudeDegrees>
              <LongitudeDegrees>-4.14715890772640705108642578125</LongitudeDegrees>
            </Position>
            <AltitudeMeters>115.59999847412109375</AltitudeMeters>
            <DistanceMeters>NAN</DistanceMeters>
          </Trackpoint>
          <Trackpoint>
            <Time>2022-07-14T16:39:44.000Z</Time>
            <Position>
              <LatitudeDegrees>43.40011035092175006866455078125</LatitudeDegrees>
              <LongitudeDegrees>-4.1472329199314117431640625</LongitudeDegrees>
            </Position>
            <AltitudeMeters>115.40000152587890625</AltitudeMeters>
            <DistanceMeters>NAN</DistanceMeters>
          </Trackpoint>
          <Trackpoint>
            <Time>2022-07-14T16:39:47.000Z</Time>
            <Position>
              <LatitudeDegrees>43.40014019049704074859619140625</LatitudeDegrees>
              <LongitudeDegrees>-4.1473946906626224517822265625</LongitudeDegrees>
            </Position>
            <AltitudeMeters>114.59999847412109375</AltitudeMeters>
            <DistanceMeters>NAN</DistanceMeters>
          </Trackpoint>
          <Trackpoint>
            <Time>2022-07-14T16:39:48.000Z</Time>
            <Position>
              <LatitudeDegrees>43.40015293098986148834228515625</LatitudeDegrees>
              <LongitudeDegrees>-4.147476665675640106201171875</LongitudeDegrees>
            </Position>
            <AltitudeMeters>114.40000152587890625</AltitudeMeters>
            <DistanceMeters>NAN</DistanceMeters>
          </Trackpoint>
          <Trackpoint>
            <Time>2022-07-14T16:39:50.000Z</Time>
            <Position>
              <LatitudeDegrees>43.40017187409102916717529296875</LatitudeDegrees>
              <LongitudeDegrees>-4.1476593911647796630859375</LongitudeDegrees>
            </Position>
            <AltitudeMeters>112.8000030517578125</AltitudeMeters>
            <DistanceMeters>NAN</DistanceMeters>
          </Trackpoint>
          <Trackpoint>
            <Time>2022-07-14T16:39:52.000Z</Time>
            <Position>
              <LatitudeDegrees>43.40020406059920787811279296875</LatitudeDegrees>
              <LongitudeDegrees>-4.14786013774573802947998046875</LongitudeDegrees>
            </Position>
            <AltitudeMeters>111.59999847412109375</AltitudeMeters>
            <DistanceMeters>NAN</DistanceMeters>
          </Trackpoint>
          <Trackpoint>
            <Time>2022-07-14T16:39:55.000Z</Time>
            <Position>
              <LatitudeDegrees>43.4002475626766681671142578125</LatitudeDegrees>
              <LongitudeDegrees>-4.14820262230932712554931640625</LongitudeDegrees>
            </Position>
            <AltitudeMeters>110.40000152587890625</AltitudeMeters>
            <DistanceMeters>NAN</DistanceMeters>
          </Trackpoint>
          <Trackpoint>
            <Time>2022-07-14T16:39:57.000Z</Time>
            <Position>
              <LatitudeDegrees>43.40025343000888824462890625</LatitudeDegrees>
              <LongitudeDegrees>-4.148427508771419525146484375</LongitudeDegrees>
            </Position>
            <AltitudeMeters>110</AltitudeMeters>
            <DistanceMeters>NAN</DistanceMeters>
          </Trackpoint>
          <Trackpoint>
            <Time>2022-07-14T16:39:58.000Z</Time>
            <Position>
              <LatitudeDegrees>43.400244377553462982177734375</LatitudeDegrees>
              <LongitudeDegrees>-4.1485426761209964752197265625</LongitudeDegrees>
            </Position>
            <AltitudeMeters>109.59999847412109375</AltitudeMeters>
            <DistanceMeters>NAN</DistanceMeters>
          </Trackpoint>
          <Trackpoint>
            <Time>2022-07-14T16:39:59.000Z</Time>
            <Position>
              <LatitudeDegrees>43.40023188851773738861083984375</LatitudeDegrees>
              <LongitudeDegrees>-4.14866161532700061798095703125</LongitudeDegrees>
            </Position>
            <AltitudeMeters>109.1999969482421875</AltitudeMeters>
            <DistanceMeters>NAN</DistanceMeters>
          </Trackpoint>
          <Trackpoint>
            <Time>2022-07-14T16:40:01.000Z</Time>
            <Position>
              <LatitudeDegrees>43.400200791656970977783203125</LatitudeDegrees>
              <LongitudeDegrees>-4.1489101387560367584228515625</LongitudeDegrees>
            </Position>
            <AltitudeMeters>109.1999969482421875</AltitudeMeters>
            <DistanceMeters>NAN</DistanceMeters>
          </Trackpoint>
          <Trackpoint>
            <Time>2022-07-14T16:40:04.000Z</Time>
            <Position>
              <LatitudeDegrees>43.40014186687767505645751953125</LatitudeDegrees>
              <LongitudeDegrees>-4.14929352700710296630859375</LongitudeDegrees>
            </Position>
            <AltitudeMeters>108</AltitudeMeters>
            <DistanceMeters>NAN</DistanceMeters>
          </Trackpoint>
          <Trackpoint>
            <Time>2022-07-14T16:40:06.000Z</Time>
            <Position>
              <LatitudeDegrees>43.40011051855981349945068359375</LatitudeDegrees>
              <LongitudeDegrees>-4.14955378510057926177978515625</LongitudeDegrees>
            </Position>
            <AltitudeMeters>106.59999847412109375</AltitudeMeters>
            <DistanceMeters>NAN</DistanceMeters>
          </Trackpoint>
          <Trackpoint>
            <Time>2022-07-14T16:40:08.000Z</Time>
            <Position>
              <LatitudeDegrees>43.40008906088769435882568359375</LatitudeDegrees>
              <LongitudeDegrees>-4.14981647394597530364990234375</LongitudeDegrees>
            </Position>
            <AltitudeMeters>105.40000152587890625</AltitudeMeters>
            <DistanceMeters>NAN</DistanceMeters>
          </Trackpoint>
          <Trackpoint>
            <Time>2022-07-14T16:40:10.000Z</Time>
            <Position>
              <LatitudeDegrees>43.400097526609897613525390625</LatitudeDegrees>
              <LongitudeDegrees>-4.1500906459987163543701171875</LongitudeDegrees>
            </Position>
            <AltitudeMeters>103.8000030517578125</AltitudeMeters>
            <DistanceMeters>NAN</DistanceMeters>
          </Trackpoint>
          <Trackpoint>
            <Time>2022-07-14T16:40:12.000Z</Time>
            <Position>
              <LatitudeDegrees>43.400112949311733245849609375</LatitudeDegrees>
              <LongitudeDegrees>-4.15036666207015514373779296875</LongitudeDegrees>
            </Position>
            <AltitudeMeters>102.40000152587890625</AltitudeMeters>
            <DistanceMeters>NAN</DistanceMeters>
          </Trackpoint>
          <Trackpoint>
            <Time>2022-07-14T16:40:13.000Z</Time>
            <Position>
              <LatitudeDegrees>43.40011973865330219268798828125</LatitudeDegrees>
              <LongitudeDegrees>-4.15050228126347064971923828125</LongitudeDegrees>
            </Position>
            <AltitudeMeters>101.40000152587890625</AltitudeMeters>
            <DistanceMeters>NAN</DistanceMeters>
          </Trackpoint>
          <Trackpoint>
            <Time>2022-07-14T16:40:14.000Z</Time>
            <Position>
              <LatitudeDegrees>43.40012560598552227020263671875</LatitudeDegrees>
              <LongitudeDegrees>-4.15063463151454925537109375</LongitudeDegrees>
            </Position>
            <AltitudeMeters>100.59999847412109375</AltitudeMeters>
            <DistanceMeters>NAN</DistanceMeters>
          </Trackpoint>
          <Trackpoint>
            <Time>2022-07-14T16:40:15.000Z</Time>
            <Position>
              <LatitudeDegrees>43.40013138949871063232421875</LatitudeDegrees>
              <LongitudeDegrees>-4.150769077241420745849609375</LongitudeDegrees>
            </Position>
            <AltitudeMeters>100.1999969482421875</AltitudeMeters>
            <DistanceMeters>NAN</DistanceMeters>
          </Trackpoint>
          <Trackpoint>
            <Time>2022-07-14T16:40:17.000Z</Time>
            <Position>
              <LatitudeDegrees>43.40014488436281681060791015625</LatitudeDegrees>
              <LongitudeDegrees>-4.15104257874190807342529296875</LongitudeDegrees>
            </Position>
            <AltitudeMeters>98.1999969482421875</AltitudeMeters>
            <DistanceMeters>NAN</DistanceMeters>
          </Trackpoint>
          <Trackpoint>
            <Time>2022-07-14T16:40:19.000Z</Time>
            <Position>
              <LatitudeDegrees>43.400160558521747589111328125</LatitudeDegrees>
              <LongitudeDegrees>-4.15132672525942325592041015625</LongitudeDegrees>
            </Position>
            <AltitudeMeters>96.1999969482421875</AltitudeMeters>
            <DistanceMeters>NAN</DistanceMeters>
          </Trackpoint>
          <Trackpoint>
            <Time>2022-07-14T16:40:21.000Z</Time>
            <Position>
              <LatitudeDegrees>43.40017790906131267547607421875</LatitudeDegrees>
              <LongitudeDegrees>-4.1516148112714290618896484375</LongitudeDegrees>
            </Position>
            <AltitudeMeters>94.8000030517578125</AltitudeMeters>
            <DistanceMeters>NAN</DistanceMeters>
          </Trackpoint>
          <Trackpoint>
            <Time>2022-07-14T16:40:23.000Z</Time>
            <Position>
              <LatitudeDegrees>43.4001939184963703155517578125</LatitudeDegrees>
              <LongitudeDegrees>-4.151907004415988922119140625</LongitudeDegrees>
            </Position>
            <AltitudeMeters>93.59999847412109375</AltitudeMeters>
            <DistanceMeters>NAN</DistanceMeters>
          </Trackpoint>
          <Trackpoint>
            <Time>2022-07-14T16:40:25.000Z</Time>
            <Position>
              <LatitudeDegrees>43.40020858682692050933837890625</LatitudeDegrees>
              <LongitudeDegrees>-4.1522002033889293670654296875</LongitudeDegrees>
            </Position>
            <AltitudeMeters>92.40000152587890625</AltitudeMeters>
            <DistanceMeters>NAN</DistanceMeters>
          </Trackpoint>
          <Trackpoint>
            <Time>2022-07-14T16:40:27.000Z</Time>
            <Position>
              <LatitudeDegrees>43.400222919881343841552734375</LatitudeDegrees>
              <LongitudeDegrees>-4.1524922288954257965087890625</LongitudeDegrees>
            </Position>
            <AltitudeMeters>91</AltitudeMeters>
            <DistanceMeters>NAN</DistanceMeters>
          </Trackpoint>
          <Trackpoint>
            <Time>2022-07-14T16:40:29.000Z</Time>
            <Position>
              <LatitudeDegrees>43.40024010278284549713134765625</LatitudeDegrees>
              <LongitudeDegrees>-4.1527879424393177032470703125</LongitudeDegrees>
            </Position>
            <AltitudeMeters>89.40000152587890625</AltitudeMeters>
            <DistanceMeters>NAN</DistanceMeters>
          </Trackpoint>
          <Trackpoint>
            <Time>2022-07-14T16:40:32.000Z</Time>
            <Position>
              <LatitudeDegrees>43.40026759542524814605712890625</LatitudeDegrees>
              <LongitudeDegrees>-4.15320427156984806060791015625</LongitudeDegrees>
            </Position>
            <AltitudeMeters>87.59999847412109375</AltitudeMeters>
            <DistanceMeters>NAN</DistanceMeters>
          </Trackpoint>
          <Trackpoint>
            <Time>2022-07-14T16:40:34.000Z</Time>
            <Position>
              <LatitudeDegrees>43.40028117410838603973388671875</LatitudeDegrees>
              <LongitudeDegrees>-4.15345304645597934722900390625</LongitudeDegrees>
            </Position>
            <AltitudeMeters>85.59999847412109375</AltitudeMeters>
            <DistanceMeters>NAN</DistanceMeters>
          </Trackpoint>
          <Trackpoint>
            <Time>2022-07-14T16:40:36.000Z</Time>
            <Position>
              <LatitudeDegrees>43.40029357932507991790771484375</LatitudeDegrees>
              <LongitudeDegrees>-4.1536955349147319793701171875</LongitudeDegrees>
            </Position>
            <AltitudeMeters>84</AltitudeMeters>
            <DistanceMeters>NAN</DistanceMeters>
          </Trackpoint>
          <Trackpoint>
            <Time>2022-07-14T16:40:38.000Z</Time>
            <Position>
              <LatitudeDegrees>43.40030682273209095001220703125</LatitudeDegrees>
              <LongitudeDegrees>-4.153909943997859954833984375</LongitudeDegrees>
            </Position>
            <AltitudeMeters>82.59999847412109375</AltitudeMeters>
            <DistanceMeters>NAN</DistanceMeters>
          </Trackpoint>
          <Trackpoint>
            <Time>2022-07-14T16:40:40.000Z</Time>
            <Position>
              <LatitudeDegrees>43.4003136120736598968505859375</LatitudeDegrees>
              <LongitudeDegrees>-4.15406459011137485504150390625</LongitudeDegrees>
            </Position>
            <AltitudeMeters>81.1999969482421875</AltitudeMeters>
            <DistanceMeters>NAN</DistanceMeters>
          </Trackpoint>
          <Trackpoint>
            <Time>2022-07-14T16:40:41.000Z</Time>
            <Position>
              <LatitudeDegrees>43.40031201951205730438232421875</LatitudeDegrees>
              <LongitudeDegrees>-4.15411655791103839874267578125</LongitudeDegrees>
            </Position>
            <AltitudeMeters>80</AltitudeMeters>
            <DistanceMeters>NAN</DistanceMeters>
          </Trackpoint>
          <Trackpoint>
            <Time>2022-07-14T16:40:43.000Z</Time>
            <Position>
              <LatitudeDegrees>43.4002968482673168182373046875</LatitudeDegrees>
              <LongitudeDegrees>-4.15415528230369091033935546875</LongitudeDegrees>
            </Position>
            <AltitudeMeters>78.40000152587890625</AltitudeMeters>
            <DistanceMeters>NAN</DistanceMeters>
          </Trackpoint>
          <Trackpoint>
            <Time>2022-07-14T16:40:47.000Z</Time>
            <Position>
              <LatitudeDegrees>43.40022015385329723358154296875</LatitudeDegrees>
              <LongitudeDegrees>-4.1541243530809879302978515625</LongitudeDegrees>
            </Position>
            <AltitudeMeters>77.8000030517578125</AltitudeMeters>
            <DistanceMeters>NAN</DistanceMeters>
          </Trackpoint>
          <Trackpoint>
            <Time>2022-07-14T16:40:55.000Z</Time>
            <Position>
              <LatitudeDegrees>43.40004421770572662353515625</LatitudeDegrees>
              <LongitudeDegrees>-4.15395227260887622833251953125</LongitudeDegrees>
            </Position>
            <AltitudeMeters>78.40000152587890625</AltitudeMeters>
            <DistanceMeters>NAN</DistanceMeters>
          </Trackpoint>
          <Trackpoint>
            <Time>2022-07-14T16:41:01.000Z</Time>
            <Position>
              <LatitudeDegrees>43.39986425824463367462158203125</LatitudeDegrees>
              <LongitudeDegrees>-4.15389695204794406890869140625</LongitudeDegrees>
            </Position>
            <AltitudeMeters>78.40000152587890625</AltitudeMeters>
            <DistanceMeters>NAN</DistanceMeters>
          </Trackpoint>
          <Trackpoint>
            <Time>2022-07-14T16:41:04.000Z</Time>
            <Position>
              <LatitudeDegrees>43.3997476659715175628662109375</LatitudeDegrees>
              <LongitudeDegrees>-4.15389125235378742218017578125</LongitudeDegrees>
            </Position>
            <AltitudeMeters>78.1999969482421875</AltitudeMeters>
            <DistanceMeters>NAN</DistanceMeters>
          </Trackpoint>
          <Trackpoint>
            <Time>2022-07-14T16:41:10.000Z</Time>
            <Position>
              <LatitudeDegrees>43.39952655136585235595703125</LatitudeDegrees>
              <LongitudeDegrees>-4.15391589514911174774169921875</LongitudeDegrees>
            </Position>
            <AltitudeMeters>77.40000152587890625</AltitudeMeters>
            <DistanceMeters>NAN</DistanceMeters>
          </Trackpoint>
          <Trackpoint>
            <Time>2022-07-14T16:41:11.000Z</Time>
            <Position>
              <LatitudeDegrees>43.39949361048638820648193359375</LatitudeDegrees>
              <LongitudeDegrees>-4.153917320072650909423828125</LongitudeDegrees>
            </Position>
            <AltitudeMeters>77.40000152587890625</AltitudeMeters>
            <DistanceMeters>NAN</DistanceMeters>
          </Trackpoint>
          <Trackpoint>
            <Time>2022-07-14T16:41:14.000Z</Time>
            <Position>
              <LatitudeDegrees>43.39942722581326961517333984375</LatitudeDegrees>
              <LongitudeDegrees>-4.15391203947365283966064453125</LongitudeDegrees>
            </Position>
            <AltitudeMeters>77</AltitudeMeters>
            <DistanceMeters>NAN</DistanceMeters>
          </Trackpoint>
          <Trackpoint>
            <Time>2022-07-14T16:41:15.000Z</Time>
            <Position>
              <LatitudeDegrees>43.39942462742328643798828125</LatitudeDegrees>
              <LongitudeDegrees>-4.15391455404460430145263671875</LongitudeDegrees>
            </Position>
            <AltitudeMeters>77</AltitudeMeters>
            <DistanceMeters>NAN</DistanceMeters>
          </Trackpoint>
          <Trackpoint>
            <Time>2022-07-14T16:41:18.000Z</Time>
            <Position>
              <LatitudeDegrees>43.39942856691777706146240234375</LatitudeDegrees>
              <LongitudeDegrees>-4.15391103364527225494384765625</LongitudeDegrees>
            </Position>
            <AltitudeMeters>76.8000030517578125</AltitudeMeters>
            <DistanceMeters>NAN</DistanceMeters>
          </Trackpoint>
          <Trackpoint>
            <Time>2022-07-14T16:41:39.000Z</Time>
            <Position>
              <LatitudeDegrees>43.399395458400249481201171875</LatitudeDegrees>
              <LongitudeDegrees>-4.15388991124927997589111328125</LongitudeDegrees>
            </Position>
            <AltitudeMeters>76.59999847412109375</AltitudeMeters>
            <DistanceMeters>NAN</DistanceMeters>
          </Trackpoint>
          <Trackpoint>
            <Time>2022-07-14T16:41:40.000Z</Time>
            <Position>
              <LatitudeDegrees>43.39937408454716205596923828125</LatitudeDegrees>
              <LongitudeDegrees>-4.15387935005128383636474609375</LongitudeDegrees>
            </Position>
            <AltitudeMeters>76.59999847412109375</AltitudeMeters>
            <DistanceMeters>NAN</DistanceMeters>
          </Trackpoint>
          <Trackpoint>
            <Time>2022-07-14T16:41:43.000Z</Time>
            <Position>
              <LatitudeDegrees>43.39929093606770038604736328125</LatitudeDegrees>
              <LongitudeDegrees>-4.15381598286330699920654296875</LongitudeDegrees>
            </Position>
            <AltitudeMeters>76.1999969482421875</AltitudeMeters>
            <DistanceMeters>NAN</DistanceMeters>
          </Trackpoint>
          <Trackpoint>
            <Time>2022-07-14T16:41:45.000Z</Time>
            <Position>
              <LatitudeDegrees>43.3992159180343151092529296875</LatitudeDegrees>
              <LongitudeDegrees>-4.1537327505648136138916015625</LongitudeDegrees>
            </Position>
            <AltitudeMeters>76</AltitudeMeters>
            <DistanceMeters>NAN</DistanceMeters>
          </Trackpoint>
          <Trackpoint>
            <Time>2022-07-14T16:41:48.000Z</Time>
            <Position>
              <LatitudeDegrees>43.399098403751850128173828125</LatitudeDegrees>
              <LongitudeDegrees>-4.15360040031373500823974609375</LongitudeDegrees>
            </Position>
            <AltitudeMeters>75.59999847412109375</AltitudeMeters>
            <DistanceMeters>NAN</DistanceMeters>
          </Trackpoint>
          <Trackpoint>
            <Time>2022-07-14T16:41:50.000Z</Time>
            <Position>
              <LatitudeDegrees>43.39901768602430820465087890625</LatitudeDegrees>
              <LongitudeDegrees>-4.1535500250756740570068359375</LongitudeDegrees>
            </Position>
            <AltitudeMeters>75.1999969482421875</AltitudeMeters>
            <DistanceMeters>NAN</DistanceMeters>
          </Trackpoint>
          <Trackpoint>
            <Time>2022-07-14T16:41:51.000Z</Time>
            <Position>
              <LatitudeDegrees>43.39896890334784984588623046875</LatitudeDegrees>
              <LongitudeDegrees>-4.15353368036448955535888671875</LongitudeDegrees>
            </Position>
            <AltitudeMeters>75</AltitudeMeters>
            <DistanceMeters>NAN</DistanceMeters>
          </Trackpoint>
          <Trackpoint>
            <Time>2022-07-14T16:41:52.000Z</Time>
            <Position>
              <LatitudeDegrees>43.39892112649977207183837890625</LatitudeDegrees>
              <LongitudeDegrees>-4.15351800620555877685546875</LongitudeDegrees>
            </Position>
            <AltitudeMeters>74.8000030517578125</AltitudeMeters>
            <DistanceMeters>NAN</DistanceMeters>
          </Trackpoint>
          <Trackpoint>
            <Time>2022-07-14T16:41:54.000Z</Time>
            <Position>
              <LatitudeDegrees>43.3988360501825809478759765625</LatitudeDegrees>
              <LongitudeDegrees>-4.15349981747567653656005859375</LongitudeDegrees>
            </Position>
            <AltitudeMeters>74.59999847412109375</AltitudeMeters>
            <DistanceMeters>NAN</DistanceMeters>
          </Trackpoint>
          <Trackpoint>
            <Time>2022-07-14T16:41:56.000Z</Time>
            <Position>
              <LatitudeDegrees>43.3987730182707309722900390625</LatitudeDegrees>
              <LongitudeDegrees>-4.15348741225898265838623046875</LongitudeDegrees>
            </Position>
            <AltitudeMeters>74.8000030517578125</AltitudeMeters>
            <DistanceMeters>NAN</DistanceMeters>
          </Trackpoint>
          <Trackpoint>
            <Time>2022-07-14T16:41:58.000Z</Time>
            <Position>
              <LatitudeDegrees>43.39872448705136775970458984375</LatitudeDegrees>
              <LongitudeDegrees>-4.15349076502025127410888671875</LongitudeDegrees>
            </Position>
            <AltitudeMeters>75</AltitudeMeters>
            <DistanceMeters>NAN</DistanceMeters>
          </Trackpoint>
          <Trackpoint>
            <Time>2022-07-14T16:42:02.000Z</Time>
            <Position>
              <LatitudeDegrees>43.3986694179475307464599609375</LatitudeDegrees>
              <LongitudeDegrees>-4.1535107977688312530517578125</LongitudeDegrees>
            </Position>
            <AltitudeMeters>76</AltitudeMeters>
            <DistanceMeters>NAN</DistanceMeters>
          </Trackpoint>
          <Trackpoint>
            <Time>2022-07-14T16:42:03.000Z</Time>
            <Position>
              <LatitudeDegrees>43.39865659363567829132080078125</LatitudeDegrees>
              <LongitudeDegrees>-4.15351993404328823089599609375</LongitudeDegrees>
            </Position>
            <AltitudeMeters>76.1999969482421875</AltitudeMeters>
            <DistanceMeters>NAN</DistanceMeters>
          </Trackpoint>
          <Trackpoint>
            <Time>2022-07-14T16:42:06.000Z</Time>
            <Position>
              <LatitudeDegrees>43.39863471686840057373046875</LatitudeDegrees>
              <LongitudeDegrees>-4.153569638729095458984375</LongitudeDegrees>
            </Position>
            <AltitudeMeters>77.1999969482421875</AltitudeMeters>
            <DistanceMeters>NAN</DistanceMeters>
          </Trackpoint>
          <Trackpoint>
            <Time>2022-07-14T16:42:07.000Z</Time>
            <Position>
              <LatitudeDegrees>43.39862289838492870330810546875</LatitudeDegrees>
              <LongitudeDegrees>-4.1535763442516326904296875</LongitudeDegrees>
            </Position>
            <AltitudeMeters>77.40000152587890625</AltitudeMeters>
            <DistanceMeters>NAN</DistanceMeters>
          </Trackpoint>
          <Trackpoint>
            <Time>2022-07-14T16:42:09.000Z</Time>
            <Position>
              <LatitudeDegrees>43.398603536188602447509765625</LatitudeDegrees>
              <LongitudeDegrees>-4.15360375307500362396240234375</LongitudeDegrees>
            </Position>
            <AltitudeMeters>77.8000030517578125</AltitudeMeters>
            <DistanceMeters>NAN</DistanceMeters>
          </Trackpoint>
          <Trackpoint>
            <Time>2022-07-14T16:42:10.000Z</Time>
            <Position>
              <LatitudeDegrees>43.3985959924757480621337890625</LatitudeDegrees>
              <LongitudeDegrees>-4.153628647327423095703125</LongitudeDegrees>
            </Position>
            <AltitudeMeters>77.8000030517578125</AltitudeMeters>
            <DistanceMeters>NAN</DistanceMeters>
          </Trackpoint>
          <Trackpoint>
            <Time>2022-07-14T16:42:12.000Z</Time>
            <Position>
              <LatitudeDegrees>43.39859825558960437774658203125</LatitudeDegrees>
              <LongitudeDegrees>-4.15370198898017406463623046875</LongitudeDegrees>
            </Position>
            <AltitudeMeters>78</AltitudeMeters>
            <DistanceMeters>NAN</DistanceMeters>
          </Trackpoint>
          <Trackpoint>
            <Time>2022-07-14T16:42:13.000Z</Time>
            <Position>
              <LatitudeDegrees>43.39860160835087299346923828125</LatitudeDegrees>
              <LongitudeDegrees>-4.153744317591190338134765625</LongitudeDegrees>
            </Position>
            <AltitudeMeters>78</AltitudeMeters>
            <DistanceMeters>NAN</DistanceMeters>
          </Trackpoint>
          <Trackpoint>
            <Time>2022-07-14T16:42:18.000Z</Time>
            <Position>
              <LatitudeDegrees>43.3986368961632251739501953125</LatitudeDegrees>
              <LongitudeDegrees>-4.15403257124125957489013671875</LongitudeDegrees>
            </Position>
            <AltitudeMeters>77.1999969482421875</AltitudeMeters>
            <DistanceMeters>NAN</DistanceMeters>
          </Trackpoint>
          <Trackpoint>
            <Time>2022-07-14T16:42:23.000Z</Time>
            <Position>
              <LatitudeDegrees>43.39864620007574558258056640625</LatitudeDegrees>
              <LongitudeDegrees>-4.15445988066494464874267578125</LongitudeDegrees>
            </Position>
            <AltitudeMeters>76</AltitudeMeters>
            <DistanceMeters>NAN</DistanceMeters>
          </Trackpoint>
          <Trackpoint>
            <Time>2022-07-14T16:42:25.000Z</Time>
            <Position>
              <LatitudeDegrees>43.39863899163901805877685546875</LatitudeDegrees>
              <LongitudeDegrees>-4.15467009879648685455322265625</LongitudeDegrees>
            </Position>
            <AltitudeMeters>74.8000030517578125</AltitudeMeters>
            <DistanceMeters>NAN</DistanceMeters>
          </Trackpoint>
          <Trackpoint>
            <Time>2022-07-14T16:42:27.000Z</Time>
            <Position>
              <LatitudeDegrees>43.39864620007574558258056640625</LatitudeDegrees>
              <LongitudeDegrees>-4.15487386286258697509765625</LongitudeDegrees>
            </Position>
            <AltitudeMeters>73.8000030517578125</AltitudeMeters>
            <DistanceMeters>NAN</DistanceMeters>
          </Trackpoint>
          <Trackpoint>
            <Time>2022-07-14T16:42:29.000Z</Time>
            <Position>
              <LatitudeDegrees>43.39865349233150482177734375</LatitudeDegrees>
              <LongitudeDegrees>-4.1550782136619091033935546875</LongitudeDegrees>
            </Position>
            <AltitudeMeters>73.1999969482421875</AltitudeMeters>
            <DistanceMeters>NAN</DistanceMeters>
          </Trackpoint>
          <Trackpoint>
            <Time>2022-07-14T16:42:30.000Z</Time>
            <Position>
              <LatitudeDegrees>43.398666568100452423095703125</LatitudeDegrees>
              <LongitudeDegrees>-4.15517871268093585968017578125</LongitudeDegrees>
            </Position>
            <AltitudeMeters>72.8000030517578125</AltitudeMeters>
            <DistanceMeters>NAN</DistanceMeters>
          </Trackpoint>
          <Trackpoint>
            <Time>2022-07-14T16:42:31.000Z</Time>
            <Position>
              <LatitudeDegrees>43.3986891992390155792236328125</LatitudeDegrees>
              <LongitudeDegrees>-4.1552795469760894775390625</LongitudeDegrees>
            </Position>
            <AltitudeMeters>72.1999969482421875</AltitudeMeters>
            <DistanceMeters>NAN</DistanceMeters>
          </Trackpoint>
          <Trackpoint>
            <Time>2022-07-14T16:42:32.000Z</Time>
            <Position>
              <LatitudeDegrees>43.3987220562994480133056640625</LatitudeDegrees>
              <LongitudeDegrees>-4.1553841531276702880859375</LongitudeDegrees>
            </Position>
            <AltitudeMeters>71.8000030517578125</AltitudeMeters>
            <DistanceMeters>NAN</DistanceMeters>
          </Trackpoint>
          <Trackpoint>
            <Time>2022-07-14T16:42:33.000Z</Time>
            <Position>
              <LatitudeDegrees>43.3987733535468578338623046875</LatitudeDegrees>
              <LongitudeDegrees>-4.1554909385740756988525390625</LongitudeDegrees>
            </Position>
            <AltitudeMeters>71.40000152587890625</AltitudeMeters>
            <DistanceMeters>NAN</DistanceMeters>
          </Trackpoint>
          <Trackpoint>
            <Time>2022-07-14T16:42:35.000Z</Time>
            <Position>
              <LatitudeDegrees>43.39887049980461597442626953125</LatitudeDegrees>
              <LongitudeDegrees>-4.1556900925934314727783203125</LongitudeDegrees>
            </Position>
            <AltitudeMeters>70.59999847412109375</AltitudeMeters>
            <DistanceMeters>NAN</DistanceMeters>
          </Trackpoint>
          <Trackpoint>
            <Time>2022-07-14T16:42:38.000Z</Time>
            <Position>
              <LatitudeDegrees>43.39899572543799877166748046875</LatitudeDegrees>
              <LongitudeDegrees>-4.15598337538540363311767578125</LongitudeDegrees>
            </Position>
            <AltitudeMeters>69.40000152587890625</AltitudeMeters>
            <DistanceMeters>NAN</DistanceMeters>
          </Trackpoint>
          <Trackpoint>
            <Time>2022-07-14T16:42:39.000Z</Time>
            <Position>
              <LatitudeDegrees>43.39903294108808040618896484375</LatitudeDegrees>
              <LongitudeDegrees>-4.15608161129057407379150390625</LongitudeDegrees>
            </Position>
            <AltitudeMeters>68.8000030517578125</AltitudeMeters>
            <DistanceMeters>NAN</DistanceMeters>
          </Trackpoint>
          <Trackpoint>
            <Time>2022-07-14T16:42:40.000Z</Time>
            <Position>
              <LatitudeDegrees>43.39905691333115100860595703125</LatitudeDegrees>
              <LongitudeDegrees>-4.156180433928966522216796875</LongitudeDegrees>
            </Position>
            <AltitudeMeters>67.8000030517578125</AltitudeMeters>
            <DistanceMeters>NAN</DistanceMeters>
          </Trackpoint>
          <Trackpoint>
            <Time>2022-07-14T16:42:43.000Z</Time>
            <Position>
              <LatitudeDegrees>43.39914073236286640167236328125</LatitudeDegrees>
              <LongitudeDegrees>-4.15650120936334133148193359375</LongitudeDegrees>
            </Position>
            <AltitudeMeters>66.40000152587890625</AltitudeMeters>
            <DistanceMeters>NAN</DistanceMeters>
          </Trackpoint>
          <Trackpoint>
            <Time>2022-07-14T16:42:46.000Z</Time>
            <Position>
              <LatitudeDegrees>43.3992159180343151092529296875</LatitudeDegrees>
              <LongitudeDegrees>-4.1567918099462985992431640625</LongitudeDegrees>
            </Position>
            <AltitudeMeters>65.40000152587890625</AltitudeMeters>
            <DistanceMeters>NAN</DistanceMeters>
          </Trackpoint>
          <Trackpoint>
            <Time>2022-07-14T16:42:48.000Z</Time>
            <Position>
              <LatitudeDegrees>43.39927132241427898406982421875</LatitudeDegrees>
              <LongitudeDegrees>-4.1569825820624828338623046875</LongitudeDegrees>
            </Position>
            <AltitudeMeters>65.1999969482421875</AltitudeMeters>
            <DistanceMeters>NAN</DistanceMeters>
          </Trackpoint>
          <Trackpoint>
            <Time>2022-07-14T16:42:53.000Z</Time>
            <Position>
              <LatitudeDegrees>43.3993872441351413726806640625</LatitudeDegrees>
              <LongitudeDegrees>-4.15737778879702091217041015625</LongitudeDegrees>
            </Position>
            <AltitudeMeters>64.8000030517578125</AltitudeMeters>
            <DistanceMeters>NAN</DistanceMeters>
          </Trackpoint>
          <Trackpoint>
            <Time>2022-07-14T16:42:55.000Z</Time>
            <Position>
              <LatitudeDegrees>43.399426303803920745849609375</LatitudeDegrees>
              <LongitudeDegrees>-4.15751927532255649566650390625</LongitudeDegrees>
            </Position>
            <AltitudeMeters>64.8000030517578125</AltitudeMeters>
            <DistanceMeters>NAN</DistanceMeters>
          </Trackpoint>
          <Trackpoint>
            <Time>2022-07-14T16:42:59.000Z</Time>
            <Position>
              <LatitudeDegrees>43.3994945324957370758056640625</LatitudeDegrees>
              <LongitudeDegrees>-4.15775648318231105804443359375</LongitudeDegrees>
            </Position>
            <AltitudeMeters>65</AltitudeMeters>
            <DistanceMeters>NAN</DistanceMeters>
          </Trackpoint>
          <Trackpoint>
            <Time>2022-07-14T16:43:04.000Z</Time>
            <Position>
              <LatitudeDegrees>43.39958581142127513885498046875</LatitudeDegrees>
              <LongitudeDegrees>-4.1579897515475749969482421875</LongitudeDegrees>
            </Position>
            <AltitudeMeters>65.1999969482421875</AltitudeMeters>
            <DistanceMeters>NAN</DistanceMeters>
          </Trackpoint>
          <Trackpoint>
            <Time>2022-07-14T16:43:11.000Z</Time>
            <Position>
              <LatitudeDegrees>43.39968471787869930267333984375</LatitudeDegrees>
              <LongitudeDegrees>-4.15828554891049861907958984375</LongitudeDegrees>
            </Position>
            <AltitudeMeters>65.40000152587890625</AltitudeMeters>
            <DistanceMeters>NAN</DistanceMeters>
          </Trackpoint>
          <Trackpoint>
            <Time>2022-07-14T16:43:21.000Z</Time>
            <Position>
              <LatitudeDegrees>43.39982905425131320953369140625</LatitudeDegrees>
              <LongitudeDegrees>-4.15867312811315059661865234375</LongitudeDegrees>
            </Position>
            <AltitudeMeters>66.1999969482421875</AltitudeMeters>
            <DistanceMeters>NAN</DistanceMeters>
          </Trackpoint>
          <Trackpoint>
            <Time>2022-07-14T16:43:26.000Z</Time>
            <Position>
              <LatitudeDegrees>43.39987163431942462921142578125</LatitudeDegrees>
              <LongitudeDegrees>-4.158810339868068695068359375</LongitudeDegrees>
            </Position>
            <AltitudeMeters>66.40000152587890625</AltitudeMeters>
            <DistanceMeters>NAN</DistanceMeters>
          </Trackpoint>
          <Trackpoint>
            <Time>2022-07-14T16:43:27.000Z</Time>
            <Position>
              <LatitudeDegrees>43.399878256022930145263671875</LatitudeDegrees>
              <LongitudeDegrees>-4.1588333062827587127685546875</LongitudeDegrees>
            </Position>
            <AltitudeMeters>66.40000152587890625</AltitudeMeters>
            <DistanceMeters>NAN</DistanceMeters>
          </Trackpoint>
          <Trackpoint>
            <Time>2022-07-14T16:43:30.000Z</Time>
            <Position>
              <LatitudeDegrees>43.39991002343595027923583984375</LatitudeDegrees>
              <LongitudeDegrees>-4.1589204780757427215576171875</LongitudeDegrees>
            </Position>
            <AltitudeMeters>66.59999847412109375</AltitudeMeters>
            <DistanceMeters>NAN</DistanceMeters>
          </Trackpoint>
          <Trackpoint>
            <Time>2022-07-14T16:43:33.000Z</Time>
            <Position>
              <LatitudeDegrees>43.39992863126099109649658203125</LatitudeDegrees>
              <LongitudeDegrees>-4.1589865274727344512939453125</LongitudeDegrees>
            </Position>
            <AltitudeMeters>66.8000030517578125</AltitudeMeters>
            <DistanceMeters>NAN</DistanceMeters>
          </Trackpoint>
          <Trackpoint>
            <Time>2022-07-14T16:43:38.000Z</Time>
            <Position>
              <LatitudeDegrees>43.39996417053043842315673828125</LatitudeDegrees>
              <LongitudeDegrees>-4.1591068916022777557373046875</LongitudeDegrees>
            </Position>
            <AltitudeMeters>67.40000152587890625</AltitudeMeters>
            <DistanceMeters>NAN</DistanceMeters>
          </Trackpoint>
          <Trackpoint>
            <Time>2022-07-14T16:43:42.000Z</Time>
            <Position>
              <LatitudeDegrees>43.399989567697048187255859375</LatitudeDegrees>
              <LongitudeDegrees>-4.1592089831829071044921875</LongitudeDegrees>
            </Position>
            <AltitudeMeters>67.59999847412109375</AltitudeMeters>
            <DistanceMeters>NAN</DistanceMeters>
          </Trackpoint>
          <Trackpoint>
            <Time>2022-07-14T16:43:51.000Z</Time>
            <Position>
              <LatitudeDegrees>43.40002904646098613739013671875</LatitudeDegrees>
              <LongitudeDegrees>-4.159428589046001434326171875</LongitudeDegrees>
            </Position>
            <AltitudeMeters>68.1999969482421875</AltitudeMeters>
            <DistanceMeters>NAN</DistanceMeters>
          </Trackpoint>
          <Trackpoint>
            <Time>2022-07-14T16:43:53.000Z</Time>
            <Position>
              <LatitudeDegrees>43.400031812489032745361328125</LatitudeDegrees>
              <LongitudeDegrees>-4.15946471504867076873779296875</LongitudeDegrees>
            </Position>
            <AltitudeMeters>68.40000152587890625</AltitudeMeters>
            <DistanceMeters>NAN</DistanceMeters>
          </Trackpoint>
          <Trackpoint>
            <Time>2022-07-14T16:43:57.000Z</Time>
            <Position>
              <LatitudeDegrees>43.40004296042025089263916015625</LatitudeDegrees>
              <LongitudeDegrees>-4.1595335304737091064453125</LongitudeDegrees>
            </Position>
            <AltitudeMeters>68.8000030517578125</AltitudeMeters>
            <DistanceMeters>NAN</DistanceMeters>
          </Trackpoint>
          <Trackpoint>
            <Time>2022-07-14T16:44:01.000Z</Time>
            <Position>
              <LatitudeDegrees>43.40005687437951564788818359375</LatitudeDegrees>
              <LongitudeDegrees>-4.1596086323261260986328125</LongitudeDegrees>
            </Position>
            <AltitudeMeters>69</AltitudeMeters>
            <DistanceMeters>NAN</DistanceMeters>
          </Trackpoint>
          <Trackpoint>
            <Time>2022-07-14T16:44:07.000Z</Time>
            <Position>
              <LatitudeDegrees>43.400085456669330596923828125</LatitudeDegrees>
              <LongitudeDegrees>-4.1597010008990764617919921875</LongitudeDegrees>
            </Position>
            <AltitudeMeters>69.40000152587890625</AltitudeMeters>
            <DistanceMeters>NAN</DistanceMeters>
          </Trackpoint>
          <Trackpoint>
            <Time>2022-07-14T16:44:08.000Z</Time>
            <Position>
              <LatitudeDegrees>43.40008822269737720489501953125</LatitudeDegrees>
              <LongitudeDegrees>-4.1597144119441509246826171875</LongitudeDegrees>
            </Position>
            <AltitudeMeters>69.40000152587890625</AltitudeMeters>
            <DistanceMeters>NAN</DistanceMeters>
          </Trackpoint>
          <Trackpoint>
            <Time>2022-07-14T16:44:09.000Z</Time>
            <Position>
              <LatitudeDegrees>43.40009040199220180511474609375</LatitudeDegrees>
              <LongitudeDegrees>-4.15972757153213024139404296875</LongitudeDegrees>
            </Position>
            <AltitudeMeters>69.59999847412109375</AltitudeMeters>
            <DistanceMeters>NAN</DistanceMeters>
          </Trackpoint>
          <Trackpoint>
            <Time>2022-07-14T16:44:14.000Z</Time>
            <Position>
              <LatitudeDegrees>43.4000940062105655670166015625</LatitudeDegrees>
              <LongitudeDegrees>-4.15974182076752185821533203125</LongitudeDegrees>
            </Position>
            <AltitudeMeters>70</AltitudeMeters>
            <DistanceMeters>NAN</DistanceMeters>
          </Trackpoint>
          <Trackpoint>
            <Time>2022-07-14T16:45:57.000Z</Time>
            <Position>
              <LatitudeDegrees>43.400068692862987518310546875</LatitudeDegrees>
              <LongitudeDegrees>-4.15979378856718540191650390625</LongitudeDegrees>
            </Position>
            <AltitudeMeters>70.40000152587890625</AltitudeMeters>
            <DistanceMeters>NAN</DistanceMeters>
          </Trackpoint>
          <Trackpoint>
            <Time>2022-07-14T16:45:58.000Z</Time>
            <Position>
              <LatitudeDegrees>43.40007129125297069549560546875</LatitudeDegrees>
              <LongitudeDegrees>-4.159819521009922027587890625</LongitudeDegrees>
            </Position>
            <AltitudeMeters>70.40000152587890625</AltitudeMeters>
            <DistanceMeters>NAN</DistanceMeters>
          </Trackpoint>
          <Trackpoint>
            <Time>2022-07-14T16:46:01.000Z</Time>
            <Position>
              <LatitudeDegrees>43.400081098079681396484375</LatitudeDegrees>
              <LongitudeDegrees>-4.15989235974848270416259765625</LongitudeDegrees>
            </Position>
            <AltitudeMeters>70.59999847412109375</AltitudeMeters>
            <DistanceMeters>NAN</DistanceMeters>
          </Trackpoint>
          <Trackpoint>
            <Time>2022-07-14T16:46:04.000Z</Time>
            <Position>
              <LatitudeDegrees>43.40008922852575778961181640625</LatitudeDegrees>
              <LongitudeDegrees>-4.15994382463395595550537109375</LongitudeDegrees>
            </Position>
            <AltitudeMeters>70.59999847412109375</AltitudeMeters>
            <DistanceMeters>NAN</DistanceMeters>
          </Trackpoint>
          <Trackpoint>
            <Time>2022-07-14T16:46:09.000Z</Time>
            <Position>
              <LatitudeDegrees>43.40008151717483997344970703125</LatitudeDegrees>
              <LongitudeDegrees>-4.160045497119426727294921875</LongitudeDegrees>
            </Position>
            <AltitudeMeters>71.59999847412109375</AltitudeMeters>
            <DistanceMeters>NAN</DistanceMeters>
          </Trackpoint>
          <Trackpoint>
            <Time>2022-07-14T16:46:12.000Z</Time>
            <Position>
              <LatitudeDegrees>43.40007531456649303436279296875</LatitudeDegrees>
              <LongitudeDegrees>-4.16011012159287929534912109375</LongitudeDegrees>
            </Position>
            <AltitudeMeters>72</AltitudeMeters>
            <DistanceMeters>NAN</DistanceMeters>
          </Trackpoint>
          <Trackpoint>
            <Time>2022-07-14T16:46:20.000Z</Time>
            <Position>
              <LatitudeDegrees>43.4000339917838573455810546875</LatitudeDegrees>
              <LongitudeDegrees>-4.16026954539120197296142578125</LongitudeDegrees>
            </Position>
            <AltitudeMeters>72.59999847412109375</AltitudeMeters>
            <DistanceMeters>NAN</DistanceMeters>
          </Trackpoint>
          <Trackpoint>
            <Time>2022-07-14T16:46:26.000Z</Time>
            <Position>
              <LatitudeDegrees>43.40000205673277378082275390625</LatitudeDegrees>
              <LongitudeDegrees>-4.16038169525563716888427734375</LongitudeDegrees>
            </Position>
            <AltitudeMeters>73.1999969482421875</AltitudeMeters>
            <DistanceMeters>NAN</DistanceMeters>
          </Trackpoint>
          <Trackpoint>
            <Time>2022-07-14T16:46:30.000Z</Time>
            <Position>
              <LatitudeDegrees>43.39997087605297565460205078125</LatitudeDegrees>
              <LongitudeDegrees>-4.1604481637477874755859375</LongitudeDegrees>
            </Position>
            <AltitudeMeters>73.59999847412109375</AltitudeMeters>
            <DistanceMeters>NAN</DistanceMeters>
          </Trackpoint>
          <Trackpoint>
            <Time>2022-07-14T16:46:32.000Z</Time>
            <Position>
              <LatitudeDegrees>43.399956040084362030029296875</LatitudeDegrees>
              <LongitudeDegrees>-4.1604734770953655242919921875</LongitudeDegrees>
            </Position>
            <AltitudeMeters>73.8000030517578125</AltitudeMeters>
            <DistanceMeters>NAN</DistanceMeters>
          </Trackpoint>
          <Trackpoint>
            <Time>2022-07-14T16:46:38.000Z</Time>
            <Position>
              <LatitudeDegrees>43.3999176509678363800048828125</LatitudeDegrees>
              <LongitudeDegrees>-4.1605784185230731964111328125</LongitudeDegrees>
            </Position>
            <AltitudeMeters>74.40000152587890625</AltitudeMeters>
            <DistanceMeters>NAN</DistanceMeters>
          </Trackpoint>
          <Trackpoint>
            <Time>2022-07-14T16:46:40.000Z</Time>
            <Position>
              <LatitudeDegrees>43.39989694766700267791748046875</LatitudeDegrees>
              <LongitudeDegrees>-4.1606075875461101531982421875</LongitudeDegrees>
            </Position>
            <AltitudeMeters>74.59999847412109375</AltitudeMeters>
            <DistanceMeters>NAN</DistanceMeters>
          </Trackpoint>
          <Trackpoint>
            <Time>2022-07-14T16:46:44.000Z</Time>
            <Position>
              <LatitudeDegrees>43.3998609893023967742919921875</LatitudeDegrees>
              <LongitudeDegrees>-4.1606659255921840667724609375</LongitudeDegrees>
            </Position>
            <AltitudeMeters>75</AltitudeMeters>
            <DistanceMeters>NAN</DistanceMeters>
          </Trackpoint>
          <Trackpoint>
            <Time>2022-07-14T16:46:45.000Z</Time>
            <Position>
              <LatitudeDegrees>43.39985202066600322723388671875</LatitudeDegrees>
              <LongitudeDegrees>-4.16068076156079769134521484375</LongitudeDegrees>
            </Position>
            <AltitudeMeters>75</AltitudeMeters>
            <DistanceMeters>NAN</DistanceMeters>
          </Trackpoint>
          <Trackpoint>
            <Time>2022-07-14T16:46:47.000Z</Time>
            <Position>
              <LatitudeDegrees>43.39983324520289897918701171875</LatitudeDegrees>
              <LongitudeDegrees>-4.16070523671805858612060546875</LongitudeDegrees>
            </Position>
            <AltitudeMeters>75.1999969482421875</AltitudeMeters>
            <DistanceMeters>NAN</DistanceMeters>
          </Trackpoint>
          <Trackpoint>
            <Time>2022-07-14T16:46:48.000Z</Time>
            <Position>
              <LatitudeDegrees>43.3998241089284420013427734375</LatitudeDegrees>
              <LongitudeDegrees>-4.16071831248700618743896484375</LongitudeDegrees>
            </Position>
            <AltitudeMeters>75.40000152587890625</AltitudeMeters>
            <DistanceMeters>NAN</DistanceMeters>
          </Trackpoint>
          <Trackpoint>
            <Time>2022-07-14T16:46:50.000Z</Time>
            <Position>
              <LatitudeDegrees>43.39980877004563808441162109375</LatitudeDegrees>
              <LongitudeDegrees>-4.16074915789067745208740234375</LongitudeDegrees>
            </Position>
            <AltitudeMeters>75.59999847412109375</AltitudeMeters>
            <DistanceMeters>NAN</DistanceMeters>
          </Trackpoint>
          <Trackpoint>
            <Time>2022-07-14T16:46:51.000Z</Time>
            <Position>
              <LatitudeDegrees>43.39980415999889373779296875</LatitudeDegrees>
              <LongitudeDegrees>-4.16076357476413249969482421875</LongitudeDegrees>
            </Position>
            <AltitudeMeters>75.8000030517578125</AltitudeMeters>
            <DistanceMeters>NAN</DistanceMeters>
          </Trackpoint>
          <Trackpoint>
            <Time>2022-07-14T16:46:58.000Z</Time>
            <Position>
              <LatitudeDegrees>43.39972964487969875335693359375</LatitudeDegrees>
              <LongitudeDegrees>-4.16083113290369510650634765625</LongitudeDegrees>
            </Position>
            <AltitudeMeters>76.40000152587890625</AltitudeMeters>
            <DistanceMeters>NAN</DistanceMeters>
          </Trackpoint>
          <Trackpoint>
            <Time>2022-07-14T16:47:00.000Z</Time>
            <Position>
              <LatitudeDegrees>43.39971371926367282867431640625</LatitudeDegrees>
              <LongitudeDegrees>-4.16085979901254177093505859375</LongitudeDegrees>
            </Position>
            <AltitudeMeters>76.59999847412109375</AltitudeMeters>
            <DistanceMeters>NAN</DistanceMeters>
          </Trackpoint>
          <Trackpoint>
            <Time>2022-07-14T16:47:01.000Z</Time>
            <Position>
              <LatitudeDegrees>43.39970617555081844329833984375</LatitudeDegrees>
              <LongitudeDegrees>-4.16087371297180652618408203125</LongitudeDegrees>
            </Position>
            <AltitudeMeters>76.8000030517578125</AltitudeMeters>
            <DistanceMeters>NAN</DistanceMeters>
          </Trackpoint>
          <Trackpoint>
            <Time>2022-07-14T16:47:06.000Z</Time>
            <Position>
              <LatitudeDegrees>43.39966242201626300811767578125</LatitudeDegrees>
              <LongitudeDegrees>-4.1609282791614532470703125</LongitudeDegrees>
            </Position>
            <AltitudeMeters>77.1999969482421875</AltitudeMeters>
            <DistanceMeters>NAN</DistanceMeters>
          </Trackpoint>
          <Trackpoint>
            <Time>2022-07-14T16:47:11.000Z</Time>
            <Position>
              <LatitudeDegrees>43.39960508979856967926025390625</LatitudeDegrees>
              <LongitudeDegrees>-4.16097982786595821380615234375</LongitudeDegrees>
            </Position>
            <AltitudeMeters>77.8000030517578125</AltitudeMeters>
            <DistanceMeters>NAN</DistanceMeters>
          </Trackpoint>
          <Trackpoint>
            <Time>2022-07-14T16:47:14.000Z</Time>
            <Position>
              <LatitudeDegrees>43.3995642699301242828369140625</LatitudeDegrees>
              <LongitudeDegrees>-4.16100262664258480072021484375</LongitudeDegrees>
            </Position>
            <AltitudeMeters>78</AltitudeMeters>
            <DistanceMeters>NAN</DistanceMeters>
          </Trackpoint>
          <Trackpoint>
            <Time>2022-07-14T16:47:19.000Z</Time>
            <Position>
              <LatitudeDegrees>43.39951791800558567047119140625</LatitudeDegrees>
              <LongitudeDegrees>-4.16106046177446842193603515625</LongitudeDegrees>
            </Position>
            <AltitudeMeters>78.59999847412109375</AltitudeMeters>
            <DistanceMeters>NAN</DistanceMeters>
          </Trackpoint>
          <Trackpoint>
            <Time>2022-07-14T16:47:20.000Z</Time>
            <Position>
              <LatitudeDegrees>43.3995151519775390625</LatitudeDegrees>
              <LongitudeDegrees>-4.161067418754100799560546875</LongitudeDegrees>
            </Position>
            <AltitudeMeters>78.8000030517578125</AltitudeMeters>
            <DistanceMeters>NAN</DistanceMeters>
          </Trackpoint>
          <Trackpoint>
            <Time>2022-07-14T16:47:21.000Z</Time>
            <Position>
              <LatitudeDegrees>43.39950643479824066162109375</LatitudeDegrees>
              <LongitudeDegrees>-4.161078147590160369873046875</LongitudeDegrees>
            </Position>
            <AltitudeMeters>78.8000030517578125</AltitudeMeters>
            <DistanceMeters>NAN</DistanceMeters>
          </Trackpoint>
          <Trackpoint>
            <Time>2022-07-14T16:47:29.000Z</Time>
            <Position>
              <LatitudeDegrees>43.39940811507403850555419921875</LatitudeDegrees>
              <LongitudeDegrees>-4.16117613203823566436767578125</LongitudeDegrees>
            </Position>
            <AltitudeMeters>79.59999847412109375</AltitudeMeters>
            <DistanceMeters>NAN</DistanceMeters>
          </Trackpoint>
          <Trackpoint>
            <Time>2022-07-14T16:47:31.000Z</Time>
            <Position>
              <LatitudeDegrees>43.39938447810709476470947265625</LatitudeDegrees>
              <LongitudeDegrees>-4.16119976900517940521240234375</LongitudeDegrees>
            </Position>
            <AltitudeMeters>79.8000030517578125</AltitudeMeters>
            <DistanceMeters>NAN</DistanceMeters>
          </Trackpoint>
          <Trackpoint>
            <Time>2022-07-14T16:47:33.000Z</Time>
            <Position>
              <LatitudeDegrees>43.39935614727437496185302734375</LatitudeDegrees>
              <LongitudeDegrees>-4.1612218134105205535888671875</LongitudeDegrees>
            </Position>
            <AltitudeMeters>80</AltitudeMeters>
            <DistanceMeters>NAN</DistanceMeters>
          </Trackpoint>
          <Trackpoint>
            <Time>2022-07-14T16:47:34.000Z</Time>
            <Position>
              <LatitudeDegrees>43.39934282004833221435546875</LatitudeDegrees>
              <LongitudeDegrees>-4.1612281836569309234619140625</LongitudeDegrees>
            </Position>
            <AltitudeMeters>80.1999969482421875</AltitudeMeters>
            <DistanceMeters>NAN</DistanceMeters>
          </Trackpoint>
          <Trackpoint>
            <Time>2022-07-14T16:47:37.000Z</Time>
            <Position>
              <LatitudeDegrees>43.39931574650108814239501953125</LatitudeDegrees>
              <LongitudeDegrees>-4.16127470321953296661376953125</LongitudeDegrees>
            </Position>
            <AltitudeMeters>80.40000152587890625</AltitudeMeters>
            <DistanceMeters>NAN</DistanceMeters>
          </Trackpoint>
          <Trackpoint>
            <Time>2022-07-14T16:47:38.000Z</Time>
            <Position>
              <LatitudeDegrees>43.39930032379925251007080078125</LatitudeDegrees>
              <LongitudeDegrees>-4.161289371550083160400390625</LongitudeDegrees>
            </Position>
            <AltitudeMeters>80.59999847412109375</AltitudeMeters>
            <DistanceMeters>NAN</DistanceMeters>
          </Trackpoint>
          <Trackpoint>
            <Time>2022-07-14T16:47:42.000Z</Time>
            <Position>
              <LatitudeDegrees>43.399257324635982513427734375</LatitudeDegrees>
              <LongitudeDegrees>-4.16134125553071498870849609375</LongitudeDegrees>
            </Position>
            <AltitudeMeters>80.8000030517578125</AltitudeMeters>
            <DistanceMeters>NAN</DistanceMeters>
          </Trackpoint>
          <Trackpoint>
            <Time>2022-07-14T16:47:44.000Z</Time>
            <Position>
              <LatitudeDegrees>43.399232514202594757080078125</LatitudeDegrees>
              <LongitudeDegrees>-4.16136003099381923675537109375</LongitudeDegrees>
            </Position>
            <AltitudeMeters>81.1999969482421875</AltitudeMeters>
            <DistanceMeters>NAN</DistanceMeters>
          </Trackpoint>
          <Trackpoint>
            <Time>2022-07-14T16:47:45.000Z</Time>
            <Position>
              <LatitudeDegrees>43.39922086335718631744384765625</LatitudeDegrees>
              <LongitudeDegrees>-4.1613669879734516143798828125</LongitudeDegrees>
            </Position>
            <AltitudeMeters>81.1999969482421875</AltitudeMeters>
            <DistanceMeters>NAN</DistanceMeters>
          </Trackpoint>
          <Trackpoint>
            <Time>2022-07-14T16:47:49.000Z</Time>
            <Position>
              <LatitudeDegrees>43.3991756848990917205810546875</LatitudeDegrees>
              <LongitudeDegrees>-4.16140059940516948699951171875</LongitudeDegrees>
            </Position>
            <AltitudeMeters>81.40000152587890625</AltitudeMeters>
            <DistanceMeters>NAN</DistanceMeters>
          </Trackpoint>
          <Trackpoint>
            <Time>2022-07-14T16:47:53.000Z</Time>
            <Position>
              <LatitudeDegrees>43.39912631548941135406494140625</LatitudeDegrees>
              <LongitudeDegrees>-4.16143178008496761322021484375</LongitudeDegrees>
            </Position>
            <AltitudeMeters>81.8000030517578125</AltitudeMeters>
            <DistanceMeters>NAN</DistanceMeters>
          </Trackpoint>
          <Trackpoint>
            <Time>2022-07-14T16:47:58.000Z</Time>
            <Position>
              <LatitudeDegrees>43.39907753281295299530029296875</LatitudeDegrees>
              <LongitudeDegrees>-4.1614846698939800262451171875</LongitudeDegrees>
            </Position>
            <AltitudeMeters>82.1999969482421875</AltitudeMeters>
            <DistanceMeters>NAN</DistanceMeters>
          </Trackpoint>
          <Trackpoint>
            <Time>2022-07-14T16:48:00.000Z</Time>
            <Position>
              <LatitudeDegrees>43.39905758388340473175048828125</LatitudeDegrees>
              <LongitudeDegrees>-4.161511994898319244384765625</LongitudeDegrees>
            </Position>
            <AltitudeMeters>82.40000152587890625</AltitudeMeters>
            <DistanceMeters>NAN</DistanceMeters>
          </Trackpoint>
          <Trackpoint>
            <Time>2022-07-14T16:48:04.000Z</Time>
            <Position>
              <LatitudeDegrees>43.399013578891754150390625</LatitudeDegrees>
              <LongitudeDegrees>-4.1615604422986507415771484375</LongitudeDegrees>
            </Position>
            <AltitudeMeters>82.59999847412109375</AltitudeMeters>
            <DistanceMeters>NAN</DistanceMeters>
          </Trackpoint>
          <Trackpoint>
            <Time>2022-07-14T16:48:10.000Z</Time>
            <Position>
              <LatitudeDegrees>43.3989490382373332977294921875</LatitudeDegrees>
              <LongitudeDegrees>-4.1616285033524036407470703125</LongitudeDegrees>
            </Position>
            <AltitudeMeters>83</AltitudeMeters>
            <DistanceMeters>NAN</DistanceMeters>
          </Trackpoint>
          <Trackpoint>
            <Time>2022-07-14T16:48:13.000Z</Time>
            <Position>
              <LatitudeDegrees>43.3989148400723934173583984375</LatitudeDegrees>
              <LongitudeDegrees>-4.16165926493704319000244140625</LongitudeDegrees>
            </Position>
            <AltitudeMeters>83.40000152587890625</AltitudeMeters>
            <DistanceMeters>NAN</DistanceMeters>
          </Trackpoint>
          <Trackpoint>
            <Time>2022-07-14T16:48:19.000Z</Time>
            <Position>
              <LatitudeDegrees>43.39884317480027675628662109375</LatitudeDegrees>
              <LongitudeDegrees>-4.16172984056174755096435546875</LongitudeDegrees>
            </Position>
            <AltitudeMeters>84</AltitudeMeters>
            <DistanceMeters>NAN</DistanceMeters>
          </Trackpoint>
          <Trackpoint>
            <Time>2022-07-14T16:48:26.000Z</Time>
            <Position>
              <LatitudeDegrees>43.39874410070478916168212890625</LatitudeDegrees>
              <LongitudeDegrees>-4.16180443949997425079345703125</LongitudeDegrees>
            </Position>
            <AltitudeMeters>84.40000152587890625</AltitudeMeters>
            <DistanceMeters>NAN</DistanceMeters>
          </Trackpoint>
          <Trackpoint>
            <Time>2022-07-14T16:48:29.000Z</Time>
            <Position>
              <LatitudeDegrees>43.3987026102840900421142578125</LatitudeDegrees>
              <LongitudeDegrees>-4.16184450499713420867919921875</LongitudeDegrees>
            </Position>
            <AltitudeMeters>84.40000152587890625</AltitudeMeters>
            <DistanceMeters>NAN</DistanceMeters>
          </Trackpoint>
          <Trackpoint>
            <Time>2022-07-14T16:48:37.000Z</Time>
            <Position>
              <LatitudeDegrees>43.398624323308467864990234375</LatitudeDegrees>
              <LongitudeDegrees>-4.16194860823452472686767578125</LongitudeDegrees>
            </Position>
            <AltitudeMeters>85</AltitudeMeters>
            <DistanceMeters>NAN</DistanceMeters>
          </Trackpoint>
          <Trackpoint>
            <Time>2022-07-14T16:48:40.000Z</Time>
            <Position>
              <LatitudeDegrees>43.39859942905604839324951171875</LatitudeDegrees>
              <LongitudeDegrees>-4.161989428102970123291015625</LongitudeDegrees>
            </Position>
            <AltitudeMeters>85.1999969482421875</AltitudeMeters>
            <DistanceMeters>NAN</DistanceMeters>
          </Trackpoint>
          <Trackpoint>
            <Time>2022-07-14T16:48:43.000Z</Time>
            <Position>
              <LatitudeDegrees>43.3985748700797557830810546875</LatitudeDegrees>
              <LongitudeDegrees>-4.1620375402271747589111328125</LongitudeDegrees>
            </Position>
            <AltitudeMeters>85.40000152587890625</AltitudeMeters>
            <DistanceMeters>NAN</DistanceMeters>
          </Trackpoint>
          <Trackpoint>
            <Time>2022-07-14T16:48:45.000Z</Time>
            <Position>
              <LatitudeDegrees>43.3985591121017932891845703125</LatitudeDegrees>
              <LongitudeDegrees>-4.16206226684153079986572265625</LongitudeDegrees>
            </Position>
            <AltitudeMeters>85.40000152587890625</AltitudeMeters>
            <DistanceMeters>NAN</DistanceMeters>
          </Trackpoint>
          <Trackpoint>
            <Time>2022-07-14T16:48:51.000Z</Time>
            <Position>
              <LatitudeDegrees>43.39851225726306438446044921875</LatitudeDegrees>
              <LongitudeDegrees>-4.16215212084352970123291015625</LongitudeDegrees>
            </Position>
            <AltitudeMeters>86</AltitudeMeters>
            <DistanceMeters>NAN</DistanceMeters>
          </Trackpoint>
          <Trackpoint>
            <Time>2022-07-14T16:48:53.000Z</Time>
            <Position>
              <LatitudeDegrees>43.39849901385605335235595703125</LatitudeDegrees>
              <LongitudeDegrees>-4.16218313388526439666748046875</LongitudeDegrees>
            </Position>
            <AltitudeMeters>86.40000152587890625</AltitudeMeters>
            <DistanceMeters>NAN</DistanceMeters>
          </Trackpoint>
          <Trackpoint>
            <Time>2022-07-14T16:48:54.000Z</Time>
            <Position>
              <LatitudeDegrees>43.398494236171245574951171875</LatitudeDegrees>
              <LongitudeDegrees>-4.1622014902532100677490234375</LongitudeDegrees>
            </Position>
            <AltitudeMeters>86.40000152587890625</AltitudeMeters>
            <DistanceMeters>NAN</DistanceMeters>
          </Trackpoint>
          <Trackpoint>
            <Time>2022-07-14T16:49:01.000Z</Time>
            <Position>
              <LatitudeDegrees>43.3984622173011302947998046875</LatitudeDegrees>
              <LongitudeDegrees>-4.16230014525353908538818359375</LongitudeDegrees>
            </Position>
            <AltitudeMeters>86.8000030517578125</AltitudeMeters>
            <DistanceMeters>NAN</DistanceMeters>
          </Trackpoint>
          <Trackpoint>
            <Time>2022-07-14T16:49:02.000Z</Time>
            <Position>
              <LatitudeDegrees>43.3984588645398616790771484375</LatitudeDegrees>
              <LongitudeDegrees>-4.16231238283216953277587890625</LongitudeDegrees>
            </Position>
            <AltitudeMeters>87</AltitudeMeters>
            <DistanceMeters>NAN</DistanceMeters>
          </Trackpoint>
          <Trackpoint>
            <Time>2022-07-14T16:49:06.000Z</Time>
            <Position>
              <LatitudeDegrees>43.3984380774199962615966796875</LatitudeDegrees>
              <LongitudeDegrees>-4.1623815335333347320556640625</LongitudeDegrees>
            </Position>
            <AltitudeMeters>87.40000152587890625</AltitudeMeters>
            <DistanceMeters>NAN</DistanceMeters>
          </Trackpoint>
          <Trackpoint>
            <Time>2022-07-14T16:49:07.000Z</Time>
            <Position>
              <LatitudeDegrees>43.398431204259395599365234375</LatitudeDegrees>
              <LongitudeDegrees>-4.16240156628191471099853515625</LongitudeDegrees>
            </Position>
            <AltitudeMeters>87.40000152587890625</AltitudeMeters>
            <DistanceMeters>NAN</DistanceMeters>
          </Trackpoint>
          <Trackpoint>
            <Time>2022-07-14T16:49:16.000Z</Time>
            <Position>
              <LatitudeDegrees>43.39838401414453983306884765625</LatitudeDegrees>
              <LongitudeDegrees>-4.162549339234828948974609375</LongitudeDegrees>
            </Position>
            <AltitudeMeters>88</AltitudeMeters>
            <DistanceMeters>NAN</DistanceMeters>
          </Trackpoint>
          <Trackpoint>
            <Time>2022-07-14T16:49:21.000Z</Time>
            <Position>
              <LatitudeDegrees>43.39835450984537601470947265625</LatitudeDegrees>
              <LongitudeDegrees>-4.1626246087253093719482421875</LongitudeDegrees>
            </Position>
            <AltitudeMeters>88.1999969482421875</AltitudeMeters>
            <DistanceMeters>NAN</DistanceMeters>
          </Trackpoint>
          <Trackpoint>
            <Time>2022-07-14T16:49:24.000Z</Time>
            <Position>
              <LatitudeDegrees>43.3983391709625720977783203125</LatitudeDegrees>
              <LongitudeDegrees>-4.1626816056668758392333984375</LongitudeDegrees>
            </Position>
            <AltitudeMeters>88.40000152587890625</AltitudeMeters>
            <DistanceMeters>NAN</DistanceMeters>
          </Trackpoint>
          <Trackpoint>
            <Time>2022-07-14T16:49:25.000Z</Time>
            <Position>
              <LatitudeDegrees>43.39833053760230541229248046875</LatitudeDegrees>
              <LongitudeDegrees>-4.16269795037806034088134765625</LongitudeDegrees>
            </Position>
            <AltitudeMeters>88.40000152587890625</AltitudeMeters>
            <DistanceMeters>NAN</DistanceMeters>
          </Trackpoint>
          <Trackpoint>
            <Time>2022-07-14T16:49:31.000Z</Time>
            <Position>
              <LatitudeDegrees>43.39828913100063800811767578125</LatitudeDegrees>
              <LongitudeDegrees>-4.16280054487287998199462890625</LongitudeDegrees>
            </Position>
            <AltitudeMeters>89</AltitudeMeters>
            <DistanceMeters>NAN</DistanceMeters>
          </Trackpoint>
          <Trackpoint>
            <Time>2022-07-14T16:49:39.000Z</Time>
            <Position>
              <LatitudeDegrees>43.39824319817125797271728515625</LatitudeDegrees>
              <LongitudeDegrees>-4.16294001974165439605712890625</LongitudeDegrees>
            </Position>
            <AltitudeMeters>89.40000152587890625</AltitudeMeters>
            <DistanceMeters>NAN</DistanceMeters>
          </Trackpoint>
          <Trackpoint>
            <Time>2022-07-14T16:49:40.000Z</Time>
            <Position>
              <LatitudeDegrees>43.3982385881245136260986328125</LatitudeDegrees>
              <LongitudeDegrees>-4.16295644827187061309814453125</LongitudeDegrees>
            </Position>
            <AltitudeMeters>89.59999847412109375</AltitudeMeters>
            <DistanceMeters>NAN</DistanceMeters>
          </Trackpoint>
          <Trackpoint>
            <Time>2022-07-14T16:49:50.000Z</Time>
            <Position>
              <LatitudeDegrees>43.39817798696458339691162109375</LatitudeDegrees>
              <LongitudeDegrees>-4.1631409339606761932373046875</LongitudeDegrees>
            </Position>
            <AltitudeMeters>90.40000152587890625</AltitudeMeters>
            <DistanceMeters>NAN</DistanceMeters>
          </Trackpoint>
          <Trackpoint>
            <Time>2022-07-14T16:49:51.000Z</Time>
            <Position>
              <LatitudeDegrees>43.39816943742334842681884765625</LatitudeDegrees>
              <LongitudeDegrees>-4.16315560229122638702392578125</LongitudeDegrees>
            </Position>
            <AltitudeMeters>90.59999847412109375</AltitudeMeters>
            <DistanceMeters>NAN</DistanceMeters>
          </Trackpoint>
          <Trackpoint>
            <Time>2022-07-14T16:49:59.000Z</Time>
            <Position>
              <LatitudeDegrees>43.3981068246066570281982421875</LatitudeDegrees>
              <LongitudeDegrees>-4.16327713988721370697021484375</LongitudeDegrees>
            </Position>
            <AltitudeMeters>91.40000152587890625</AltitudeMeters>
            <DistanceMeters>NAN</DistanceMeters>
          </Trackpoint>
          <Trackpoint>
            <Time>2022-07-14T16:50:00.000Z</Time>
            <Position>
              <LatitudeDegrees>43.398098610341548919677734375</LatitudeDegrees>
              <LongitudeDegrees>-4.16329390369355678558349609375</LongitudeDegrees>
            </Position>
            <AltitudeMeters>91.59999847412109375</AltitudeMeters>
            <DistanceMeters>NAN</DistanceMeters>
          </Trackpoint>
          <Trackpoint>
            <Time>2022-07-14T16:50:06.000Z</Time>
            <Position>
              <LatitudeDegrees>43.39807656593620777130126953125</LatitudeDegrees>
              <LongitudeDegrees>-4.163397252559661865234375</LongitudeDegrees>
            </Position>
            <AltitudeMeters>92.1999969482421875</AltitudeMeters>
            <DistanceMeters>NAN</DistanceMeters>
          </Trackpoint>
          <Trackpoint>
            <Time>2022-07-14T16:50:10.000Z</Time>
            <Position>
              <LatitudeDegrees>43.39805938303470611572265625</LatitudeDegrees>
              <LongitudeDegrees>-4.16345533914864063262939453125</LongitudeDegrees>
            </Position>
            <AltitudeMeters>92.8000030517578125</AltitudeMeters>
            <DistanceMeters>NAN</DistanceMeters>
          </Trackpoint>
          <Trackpoint>
            <Time>2022-07-14T16:50:14.000Z</Time>
            <Position>
              <LatitudeDegrees>43.39804605580866336822509765625</LatitudeDegrees>
              <LongitudeDegrees>-4.1635166108608245849609375</LongitudeDegrees>
            </Position>
            <AltitudeMeters>93.40000152587890625</AltitudeMeters>
            <DistanceMeters>NAN</DistanceMeters>
          </Trackpoint>
          <Trackpoint>
            <Time>2022-07-14T16:50:16.000Z</Time>
            <Position>
              <LatitudeDegrees>43.3980359137058258056640625</LatitudeDegrees>
              <LongitudeDegrees>-4.16355038993060588836669921875</LongitudeDegrees>
            </Position>
            <AltitudeMeters>93.8000030517578125</AltitudeMeters>
            <DistanceMeters>NAN</DistanceMeters>
          </Trackpoint>
          <Trackpoint>
            <Time>2022-07-14T16:50:17.000Z</Time>
            <Position>
              <LatitudeDegrees>43.39803121984004974365234375</LatitudeDegrees>
              <LongitudeDegrees>-4.16356111876666545867919921875</LongitudeDegrees>
            </Position>
            <AltitudeMeters>94</AltitudeMeters>
            <DistanceMeters>NAN</DistanceMeters>
          </Trackpoint>
          <Trackpoint>
            <Time>2022-07-14T16:50:20.000Z</Time>
            <Position>
              <LatitudeDegrees>43.3980199880897998809814453125</LatitudeDegrees>
              <LongitudeDegrees>-4.16361560113728046417236328125</LongitudeDegrees>
            </Position>
            <AltitudeMeters>94.59999847412109375</AltitudeMeters>
            <DistanceMeters>NAN</DistanceMeters>
          </Trackpoint>
          <Trackpoint>
            <Time>2022-07-14T16:50:22.000Z</Time>
            <Position>
              <LatitudeDegrees>43.39800867252051830291748046875</LatitudeDegrees>
              <LongitudeDegrees>-4.163647703826427459716796875</LongitudeDegrees>
            </Position>
            <AltitudeMeters>94.8000030517578125</AltitudeMeters>
            <DistanceMeters>NAN</DistanceMeters>
          </Trackpoint>
          <Trackpoint>
            <Time>2022-07-14T16:50:24.000Z</Time>
            <Position>
              <LatitudeDegrees>43.39799660257995128631591796875</LatitudeDegrees>
              <LongitudeDegrees>-4.16367846541106700897216796875</LongitudeDegrees>
            </Position>
            <AltitudeMeters>95.1999969482421875</AltitudeMeters>
            <DistanceMeters>NAN</DistanceMeters>
          </Trackpoint>
          <Trackpoint>
            <Time>2022-07-14T16:50:28.000Z</Time>
            <Position>
              <LatitudeDegrees>43.39798369444906711578369140625</LatitudeDegrees>
              <LongitudeDegrees>-4.16374124586582183837890625</LongitudeDegrees>
            </Position>
            <AltitudeMeters>96</AltitudeMeters>
            <DistanceMeters>NAN</DistanceMeters>
          </Trackpoint>
          <Trackpoint>
            <Time>2022-07-14T16:50:34.000Z</Time>
            <Position>
              <LatitudeDegrees>43.39796558953821659088134765625</LatitudeDegrees>
              <LongitudeDegrees>-4.1638349555432796478271484375</LongitudeDegrees>
            </Position>
            <AltitudeMeters>97.1999969482421875</AltitudeMeters>
            <DistanceMeters>NAN</DistanceMeters>
          </Trackpoint>
          <Trackpoint>
            <Time>2022-07-14T16:50:35.000Z</Time>
            <Position>
              <LatitudeDegrees>43.3979639969766139984130859375</LatitudeDegrees>
              <LongitudeDegrees>-4.16385062970221042633056640625</LongitudeDegrees>
            </Position>
            <AltitudeMeters>97.1999969482421875</AltitudeMeters>
            <DistanceMeters>NAN</DistanceMeters>
          </Trackpoint>
          <Trackpoint>
            <Time>2022-07-14T16:50:37.000Z</Time>
            <Position>
              <LatitudeDegrees>43.3979576267302036285400390625</LatitudeDegrees>
              <LongitudeDegrees>-4.16388030163943767547607421875</LongitudeDegrees>
            </Position>
            <AltitudeMeters>97.59999847412109375</AltitudeMeters>
            <DistanceMeters>NAN</DistanceMeters>
          </Trackpoint>
          <Trackpoint>
            <Time>2022-07-14T16:50:41.000Z</Time>
            <Position>
              <LatitudeDegrees>43.3979512564837932586669921875</LatitudeDegrees>
              <LongitudeDegrees>-4.163949452340602874755859375</LongitudeDegrees>
            </Position>
            <AltitudeMeters>98.1999969482421875</AltitudeMeters>
            <DistanceMeters>NAN</DistanceMeters>
          </Trackpoint>
          <Trackpoint>
            <Time>2022-07-14T16:50:44.000Z</Time>
            <Position>
              <LatitudeDegrees>43.39794362895190715789794921875</LatitudeDegrees>
              <LongitudeDegrees>-4.16400007903575897216796875</LongitudeDegrees>
            </Position>
            <AltitudeMeters>98.59999847412109375</AltitudeMeters>
            <DistanceMeters>NAN</DistanceMeters>
          </Trackpoint>
          <Trackpoint>
            <Time>2022-07-14T16:50:45.000Z</Time>
            <Position>
              <LatitudeDegrees>43.39793994091451168060302734375</LatitudeDegrees>
              <LongitudeDegrees>-4.16401927359402179718017578125</LongitudeDegrees>
            </Position>
            <AltitudeMeters>98.8000030517578125</AltitudeMeters>
            <DistanceMeters>NAN</DistanceMeters>
          </Trackpoint>
          <Trackpoint>
            <Time>2022-07-14T16:50:47.000Z</Time>
            <Position>
              <LatitudeDegrees>43.3979318104684352874755859375</LatitudeDegrees>
              <LongitudeDegrees>-4.16404835879802703857421875</LongitudeDegrees>
            </Position>
            <AltitudeMeters>99.1999969482421875</AltitudeMeters>
            <DistanceMeters>NAN</DistanceMeters>
          </Trackpoint>
          <Trackpoint>
            <Time>2022-07-14T16:50:48.000Z</Time>
            <Position>
              <LatitudeDegrees>43.39792569167912006378173828125</LatitudeDegrees>
              <LongitudeDegrees>-4.16406420059502124786376953125</LongitudeDegrees>
            </Position>
            <AltitudeMeters>99.1999969482421875</AltitudeMeters>
            <DistanceMeters>NAN</DistanceMeters>
          </Trackpoint>
          <Trackpoint>
            <Time>2022-07-14T16:50:54.000Z</Time>
            <Position>
              <LatitudeDegrees>43.397888056933879852294921875</LatitudeDegrees>
              <LongitudeDegrees>-4.164158999919891357421875</LongitudeDegrees>
            </Position>
            <AltitudeMeters>100.40000152587890625</AltitudeMeters>
            <DistanceMeters>NAN</DistanceMeters>
          </Trackpoint>
          <Trackpoint>
            <Time>2022-07-14T16:50:55.000Z</Time>
            <Position>
              <LatitudeDegrees>43.3978808484971523284912109375</LatitudeDegrees>
              <LongitudeDegrees>-4.16417366825044155120849609375</LongitudeDegrees>
            </Position>
            <AltitudeMeters>100.59999847412109375</AltitudeMeters>
            <DistanceMeters>NAN</DistanceMeters>
          </Trackpoint>
          <Trackpoint>
            <Time>2022-07-14T16:51:00.000Z</Time>
            <Position>
              <LatitudeDegrees>43.3978550322353839874267578125</LatitudeDegrees>
              <LongitudeDegrees>-4.16425287723541259765625</LongitudeDegrees>
            </Position>
            <AltitudeMeters>101.40000152587890625</AltitudeMeters>
            <DistanceMeters>NAN</DistanceMeters>
          </Trackpoint>
          <Trackpoint>
            <Time>2022-07-14T16:51:04.000Z</Time>
            <Position>
              <LatitudeDegrees>43.39782142080366611480712890625</LatitudeDegrees>
              <LongitudeDegrees>-4.1643066890537738800048828125</LongitudeDegrees>
            </Position>
            <AltitudeMeters>102</AltitudeMeters>
            <DistanceMeters>NAN</DistanceMeters>
          </Trackpoint>
          <Trackpoint>
            <Time>2022-07-14T16:51:05.000Z</Time>
            <Position>
              <LatitudeDegrees>43.39781253598630428314208984375</LatitudeDegrees>
              <LongitudeDegrees>-4.16431917808949947357177734375</LongitudeDegrees>
            </Position>
            <AltitudeMeters>102.1999969482421875</AltitudeMeters>
            <DistanceMeters>NAN</DistanceMeters>
          </Trackpoint>
          <Trackpoint>
            <Time>2022-07-14T16:51:06.000Z</Time>
            <Position>
              <LatitudeDegrees>43.39780247770249843597412109375</LatitudeDegrees>
              <LongitudeDegrees>-4.16433124803006649017333984375</LongitudeDegrees>
            </Position>
            <AltitudeMeters>102.40000152587890625</AltitudeMeters>
            <DistanceMeters>NAN</DistanceMeters>
          </Trackpoint>
          <Trackpoint>
            <Time>2022-07-14T16:51:15.000Z</Time>
            <Position>
              <LatitudeDegrees>43.39769435115158557891845703125</LatitudeDegrees>
              <LongitudeDegrees>-4.16447457857429981231689453125</LongitudeDegrees>
            </Position>
            <AltitudeMeters>103.40000152587890625</AltitudeMeters>
            <DistanceMeters>NAN</DistanceMeters>
          </Trackpoint>
          <Trackpoint>
            <Time>2022-07-14T16:51:20.000Z</Time>
            <Position>
              <LatitudeDegrees>43.3976213447749614715576171875</LatitudeDegrees>
              <LongitudeDegrees>-4.16457264684140682220458984375</LongitudeDegrees>
            </Position>
            <AltitudeMeters>103.40000152587890625</AltitudeMeters>
            <DistanceMeters>NAN</DistanceMeters>
          </Trackpoint>
          <Trackpoint>
            <Time>2022-07-14T16:51:23.000Z</Time>
            <Position>
              <LatitudeDegrees>43.3975680358707904815673828125</LatitudeDegrees>
              <LongitudeDegrees>-4.1646324098110198974609375</LongitudeDegrees>
            </Position>
            <AltitudeMeters>103.59999847412109375</AltitudeMeters>
            <DistanceMeters>NAN</DistanceMeters>
          </Trackpoint>
          <Trackpoint>
            <Time>2022-07-14T16:51:30.000Z</Time>
            <Position>
              <LatitudeDegrees>43.397442139685153961181640625</LatitudeDegrees>
              <LongitudeDegrees>-4.1647995449602603912353515625</LongitudeDegrees>
            </Position>
            <AltitudeMeters>104</AltitudeMeters>
            <DistanceMeters>NAN</DistanceMeters>
          </Trackpoint>
          <Trackpoint>
            <Time>2022-07-14T16:51:32.000Z</Time>
            <Position>
              <LatitudeDegrees>43.397405929863452911376953125</LatitudeDegrees>
              <LongitudeDegrees>-4.16484095156192779541015625</LongitudeDegrees>
            </Position>
            <AltitudeMeters>104</AltitudeMeters>
            <DistanceMeters>NAN</DistanceMeters>
          </Trackpoint>
          <Trackpoint>
            <Time>2022-07-14T16:51:40.000Z</Time>
            <Position>
              <LatitudeDegrees>43.3972595818340778350830078125</LatitudeDegrees>
              <LongitudeDegrees>-4.164995849132537841796875</LongitudeDegrees>
            </Position>
            <AltitudeMeters>104</AltitudeMeters>
            <DistanceMeters>NAN</DistanceMeters>
          </Trackpoint>
          <Trackpoint>
            <Time>2022-07-14T16:51:41.000Z</Time>
            <Position>
              <LatitudeDegrees>43.3972392976284027099609375</LatitudeDegrees>
              <LongitudeDegrees>-4.16501127183437347412109375</LongitudeDegrees>
            </Position>
            <AltitudeMeters>104</AltitudeMeters>
            <DistanceMeters>NAN</DistanceMeters>
          </Trackpoint>
          <Trackpoint>
            <Time>2022-07-14T16:51:43.000Z</Time>
            <Position>
              <LatitudeDegrees>43.39719571173191070556640625</LatitudeDegrees>
              <LongitudeDegrees>-4.165041781961917877197265625</LongitudeDegrees>
            </Position>
            <AltitudeMeters>104.1999969482421875</AltitudeMeters>
            <DistanceMeters>NAN</DistanceMeters>
          </Trackpoint>
          <Trackpoint>
            <Time>2022-07-14T16:51:45.000Z</Time>
            <Position>
              <LatitudeDegrees>43.39715480804443359375</LatitudeDegrees>
              <LongitudeDegrees>-4.1650811769068241119384765625</LongitudeDegrees>
            </Position>
            <AltitudeMeters>104.1999969482421875</AltitudeMeters>
            <DistanceMeters>NAN</DistanceMeters>
          </Trackpoint>
          <Trackpoint>
            <Time>2022-07-14T16:51:50.000Z</Time>
            <Position>
              <LatitudeDegrees>43.3970582485198974609375</LatitudeDegrees>
              <LongitudeDegrees>-4.16517983190715312957763671875</LongitudeDegrees>
            </Position>
            <AltitudeMeters>104.40000152587890625</AltitudeMeters>
            <DistanceMeters>NAN</DistanceMeters>
          </Trackpoint>
          <Trackpoint>
            <Time>2022-07-14T16:51:53.000Z</Time>
            <Position>
              <LatitudeDegrees>43.3969977311789989471435546875</LatitudeDegrees>
              <LongitudeDegrees>-4.16525258682668209075927734375</LongitudeDegrees>
            </Position>
            <AltitudeMeters>104.8000030517578125</AltitudeMeters>
            <DistanceMeters>NAN</DistanceMeters>
          </Trackpoint>
          <Trackpoint>
            <Time>2022-07-14T16:51:56.000Z</Time>
            <Position>
              <LatitudeDegrees>43.39694282971322536468505859375</LatitudeDegrees>
              <LongitudeDegrees>-4.16531545110046863555908203125</LongitudeDegrees>
            </Position>
            <AltitudeMeters>105</AltitudeMeters>
            <DistanceMeters>NAN</DistanceMeters>
          </Trackpoint>
          <Trackpoint>
            <Time>2022-07-14T16:52:03.000Z</Time>
            <Position>
              <LatitudeDegrees>43.39682246558368206024169921875</LatitudeDegrees>
              <LongitudeDegrees>-4.16545827873051166534423828125</LongitudeDegrees>
            </Position>
            <AltitudeMeters>105.40000152587890625</AltitudeMeters>
            <DistanceMeters>NAN</DistanceMeters>
          </Trackpoint>
          <Trackpoint>
            <Time>2022-07-14T16:52:04.000Z</Time>
            <Position>
              <LatitudeDegrees>43.39680419303476810455322265625</LatitudeDegrees>
              <LongitudeDegrees>-4.1654768027365207672119140625</LongitudeDegrees>
            </Position>
            <AltitudeMeters>105.59999847412109375</AltitudeMeters>
            <DistanceMeters>NAN</DistanceMeters>
          </Trackpoint>
          <Trackpoint>
            <Time>2022-07-14T16:52:06.000Z</Time>
            <Position>
              <LatitudeDegrees>43.39677058160305023193359375</LatitudeDegrees>
              <LongitudeDegrees>-4.16551477275788784027099609375</LongitudeDegrees>
            </Position>
            <AltitudeMeters>105.59999847412109375</AltitudeMeters>
            <DistanceMeters>NAN</DistanceMeters>
          </Trackpoint>
          <Trackpoint>
            <Time>2022-07-14T16:52:15.000Z</Time>
            <Position>
              <LatitudeDegrees>43.396636806428432464599609375</LatitudeDegrees>
              <LongitudeDegrees>-4.16568794287741184234619140625</LongitudeDegrees>
            </Position>
            <AltitudeMeters>106.40000152587890625</AltitudeMeters>
            <DistanceMeters>NAN</DistanceMeters>
          </Trackpoint>
          <Trackpoint>
            <Time>2022-07-14T16:52:17.000Z</Time>
            <Position>
              <LatitudeDegrees>43.39660336263477802276611328125</LatitudeDegrees>
              <LongitudeDegrees>-4.1657240688800811767578125</LongitudeDegrees>
            </Position>
            <AltitudeMeters>106.59999847412109375</AltitudeMeters>
            <DistanceMeters>NAN</DistanceMeters>
          </Trackpoint>
          <Trackpoint>
            <Time>2022-07-14T16:52:20.000Z</Time>
            <Position>
              <LatitudeDegrees>43.3965645544230937957763671875</LatitudeDegrees>
              <LongitudeDegrees>-4.16578902862966060638427734375</LongitudeDegrees>
            </Position>
            <AltitudeMeters>106.8000030517578125</AltitudeMeters>
            <DistanceMeters>NAN</DistanceMeters>
          </Trackpoint>
          <Trackpoint>
            <Time>2022-07-14T16:52:22.000Z</Time>
            <Position>
              <LatitudeDegrees>43.39653396047651767730712890625</LatitudeDegrees>
              <LongitudeDegrees>-4.1658214665949344635009765625</LongitudeDegrees>
            </Position>
            <AltitudeMeters>107</AltitudeMeters>
            <DistanceMeters>NAN</DistanceMeters>
          </Trackpoint>
          <Trackpoint>
            <Time>2022-07-14T16:52:28.000Z</Time>
            <Position>
              <LatitudeDegrees>43.39645047672092914581298828125</LatitudeDegrees>
              <LongitudeDegrees>-4.16593235917389392852783203125</LongitudeDegrees>
            </Position>
            <AltitudeMeters>107.59999847412109375</AltitudeMeters>
            <DistanceMeters>NAN</DistanceMeters>
          </Trackpoint>
          <Trackpoint>
            <Time>2022-07-14T16:52:31.000Z</Time>
            <Position>
              <LatitudeDegrees>43.396411500871181488037109375</LatitudeDegrees>
              <LongitudeDegrees>-4.16599136777222156524658203125</LongitudeDegrees>
            </Position>
            <AltitudeMeters>108</AltitudeMeters>
            <DistanceMeters>NAN</DistanceMeters>
          </Trackpoint>
          <Trackpoint>
            <Time>2022-07-14T16:52:39.000Z</Time>
            <Position>
              <LatitudeDegrees>43.3963080681860446929931640625</LatitudeDegrees>
              <LongitudeDegrees>-4.16614006273448467254638671875</LongitudeDegrees>
            </Position>
            <AltitudeMeters>108.59999847412109375</AltitudeMeters>
            <DistanceMeters>NAN</DistanceMeters>
          </Trackpoint>
          <Trackpoint>
            <Time>2022-07-14T16:52:43.000Z</Time>
            <Position>
              <LatitudeDegrees>43.39625936932861804962158203125</LatitudeDegrees>
              <LongitudeDegrees>-4.166216589510440826416015625</LongitudeDegrees>
            </Position>
            <AltitudeMeters>108.8000030517578125</AltitudeMeters>
            <DistanceMeters>NAN</DistanceMeters>
          </Trackpoint>
          <Trackpoint>
            <Time>2022-07-14T16:52:50.000Z</Time>
            <Position>
              <LatitudeDegrees>43.396165072917938232421875</LatitudeDegrees>
              <LongitudeDegrees>-4.16634273715317249298095703125</LongitudeDegrees>
            </Position>
            <AltitudeMeters>109.59999847412109375</AltitudeMeters>
            <DistanceMeters>NAN</DistanceMeters>
          </Trackpoint>
          <Trackpoint>
            <Time>2022-07-14T16:52:51.000Z</Time>
            <Position>
              <LatitudeDegrees>43.39615258388221263885498046875</LatitudeDegrees>
              <LongitudeDegrees>-4.166361428797245025634765625</LongitudeDegrees>
            </Position>
            <AltitudeMeters>109.59999847412109375</AltitudeMeters>
            <DistanceMeters>NAN</DistanceMeters>
          </Trackpoint>
          <Trackpoint>
            <Time>2022-07-14T16:52:58.000Z</Time>
            <Position>
              <LatitudeDegrees>43.39606289751827716827392578125</LatitudeDegrees>
              <LongitudeDegrees>-4.1664836369454860687255859375</LongitudeDegrees>
            </Position>
            <AltitudeMeters>110</AltitudeMeters>
            <DistanceMeters>NAN</DistanceMeters>
          </Trackpoint>
          <Trackpoint>
            <Time>2022-07-14T16:53:03.000Z</Time>
            <Position>
              <LatitudeDegrees>43.39598829858005046844482421875</LatitudeDegrees>
              <LongitudeDegrees>-4.16656837798655033111572265625</LongitudeDegrees>
            </Position>
            <AltitudeMeters>110.8000030517578125</AltitudeMeters>
            <DistanceMeters>NAN</DistanceMeters>
          </Trackpoint>
          <Trackpoint>
            <Time>2022-07-14T16:53:06.000Z</Time>
            <Position>
              <LatitudeDegrees>43.3959533460438251495361328125</LatitudeDegrees>
              <LongitudeDegrees>-4.1666274704039096832275390625</LongitudeDegrees>
            </Position>
            <AltitudeMeters>111</AltitudeMeters>
            <DistanceMeters>NAN</DistanceMeters>
          </Trackpoint>
          <Trackpoint>
            <Time>2022-07-14T16:53:16.000Z</Time>
            <Position>
              <LatitudeDegrees>43.3958199061453342437744140625</LatitudeDegrees>
              <LongitudeDegrees>-4.16682385839521884918212890625</LongitudeDegrees>
            </Position>
            <AltitudeMeters>111.8000030517578125</AltitudeMeters>
            <DistanceMeters>NAN</DistanceMeters>
          </Trackpoint>
          <Trackpoint>
            <Time>2022-07-14T16:53:23.000Z</Time>
            <Position>
              <LatitudeDegrees>43.39573382399976253509521484375</LatitudeDegrees>
              <LongitudeDegrees>-4.1669815219938755035400390625</LongitudeDegrees>
            </Position>
            <AltitudeMeters>112.1999969482421875</AltitudeMeters>
            <DistanceMeters>NAN</DistanceMeters>
          </Trackpoint>
          <Trackpoint>
            <Time>2022-07-14T16:53:31.000Z</Time>
            <Position>
              <LatitudeDegrees>43.395695351064205169677734375</LatitudeDegrees>
              <LongitudeDegrees>-4.1672152094542980194091796875</LongitudeDegrees>
            </Position>
            <AltitudeMeters>112.59999847412109375</AltitudeMeters>
            <DistanceMeters>NAN</DistanceMeters>
          </Trackpoint>
          <Trackpoint>
            <Time>2022-07-14T16:53:34.000Z</Time>
            <Position>
              <LatitudeDegrees>43.39569141156971454620361328125</LatitudeDegrees>
              <LongitudeDegrees>-4.16729592718183994293212890625</LongitudeDegrees>
            </Position>
            <AltitudeMeters>112.8000030517578125</AltitudeMeters>
            <DistanceMeters>NAN</DistanceMeters>
          </Trackpoint>
          <Trackpoint>
            <Time>2022-07-14T16:53:38.000Z</Time>
            <Position>
              <LatitudeDegrees>43.39568696916103363037109375</LatitudeDegrees>
              <LongitudeDegrees>-4.1674111783504486083984375</LongitudeDegrees>
            </Position>
            <AltitudeMeters>113.1999969482421875</AltitudeMeters>
            <DistanceMeters>NAN</DistanceMeters>
          </Trackpoint>
          <Trackpoint>
            <Time>2022-07-14T16:53:40.000Z</Time>
            <Position>
              <LatitudeDegrees>43.39568604715168476104736328125</LatitudeDegrees>
              <LongitudeDegrees>-4.16746188886463642120361328125</LongitudeDegrees>
            </Position>
            <AltitudeMeters>113.1999969482421875</AltitudeMeters>
            <DistanceMeters>NAN</DistanceMeters>
          </Trackpoint>
          <Trackpoint>
            <Time>2022-07-14T16:53:43.000Z</Time>
            <Position>
              <LatitudeDegrees>43.395687304437160491943359375</LatitudeDegrees>
              <LongitudeDegrees>-4.1675367392599582672119140625</LongitudeDegrees>
            </Position>
            <AltitudeMeters>113.40000152587890625</AltitudeMeters>
            <DistanceMeters>NAN</DistanceMeters>
          </Trackpoint>
          <Trackpoint>
            <Time>2022-07-14T16:53:51.000Z</Time>
            <Position>
              <LatitudeDegrees>43.3956583030521869659423828125</LatitudeDegrees>
              <LongitudeDegrees>-4.16775927878916263580322265625</LongitudeDegrees>
            </Position>
            <AltitudeMeters>113.59999847412109375</AltitudeMeters>
            <DistanceMeters>NAN</DistanceMeters>
          </Trackpoint>
          <Trackpoint>
            <Time>2022-07-14T16:53:58.000Z</Time>
            <Position>
              <LatitudeDegrees>43.39554355479776859283447265625</LatitudeDegrees>
              <LongitudeDegrees>-4.16793596930801868438720703125</LongitudeDegrees>
            </Position>
            <AltitudeMeters>113.8000030517578125</AltitudeMeters>
            <DistanceMeters>NAN</DistanceMeters>
          </Trackpoint>
          <Trackpoint>
            <Time>2022-07-14T16:54:01.000Z</Time>
            <Position>
              <LatitudeDegrees>43.39549208991229534149169921875</LatitudeDegrees>
              <LongitudeDegrees>-4.1679970733821392059326171875</LongitudeDegrees>
            </Position>
            <AltitudeMeters>113.8000030517578125</AltitudeMeters>
            <DistanceMeters>NAN</DistanceMeters>
          </Trackpoint>
          <Trackpoint>
            <Time>2022-07-14T16:54:07.000Z</Time>
            <Position>
              <LatitudeDegrees>43.3953652717173099517822265625</LatitudeDegrees>
              <LongitudeDegrees>-4.168091453611850738525390625</LongitudeDegrees>
            </Position>
            <AltitudeMeters>114</AltitudeMeters>
            <DistanceMeters>NAN</DistanceMeters>
          </Trackpoint>
          <Trackpoint>
            <Time>2022-07-14T16:54:13.000Z</Time>
            <Position>
              <LatitudeDegrees>43.3952506072819232940673828125</LatitudeDegrees>
              <LongitudeDegrees>-4.16819781996309757232666015625</LongitudeDegrees>
            </Position>
            <AltitudeMeters>114.1999969482421875</AltitudeMeters>
            <DistanceMeters>NAN</DistanceMeters>
          </Trackpoint>
          <Trackpoint>
            <Time>2022-07-14T16:54:17.000Z</Time>
            <Position>
              <LatitudeDegrees>43.39516460895538330078125</LatitudeDegrees>
              <LongitudeDegrees>-4.1682582534849643707275390625</LongitudeDegrees>
            </Position>
            <AltitudeMeters>114.40000152587890625</AltitudeMeters>
            <DistanceMeters>NAN</DistanceMeters>
          </Trackpoint>
          <Trackpoint>
            <Time>2022-07-14T16:54:21.000Z</Time>
            <Position>
              <LatitudeDegrees>43.39508171193301677703857421875</LatitudeDegrees>
              <LongitudeDegrees>-4.16831533424556255340576171875</LongitudeDegrees>
            </Position>
            <AltitudeMeters>115</AltitudeMeters>
            <DistanceMeters>NAN</DistanceMeters>
          </Trackpoint>
          <Trackpoint>
            <Time>2022-07-14T16:54:28.000Z</Time>
            <Position>
              <LatitudeDegrees>43.39495648629963397979736328125</LatitudeDegrees>
              <LongitudeDegrees>-4.1684198565781116485595703125</LongitudeDegrees>
            </Position>
            <AltitudeMeters>115.40000152587890625</AltitudeMeters>
            <DistanceMeters>NAN</DistanceMeters>
          </Trackpoint>
          <Trackpoint>
            <Time>2022-07-14T16:54:35.000Z</Time>
            <Position>
              <LatitudeDegrees>43.3948472701013088226318359375</LatitudeDegrees>
              <LongitudeDegrees>-4.16850493289530277252197265625</LongitudeDegrees>
            </Position>
            <AltitudeMeters>116</AltitudeMeters>
            <DistanceMeters>NAN</DistanceMeters>
          </Trackpoint>
          <Trackpoint>
            <Time>2022-07-14T16:54:36.000Z</Time>
            <Position>
              <LatitudeDegrees>43.394834361970424652099609375</LatitudeDegrees>
              <LongitudeDegrees>-4.1685174219310283660888671875</LongitudeDegrees>
            </Position>
            <AltitudeMeters>116</AltitudeMeters>
            <DistanceMeters>NAN</DistanceMeters>
          </Trackpoint>
          <Trackpoint>
            <Time>2022-07-14T16:54:38.000Z</Time>
            <Position>
              <LatitudeDegrees>43.39480628259479999542236328125</LatitudeDegrees>
              <LongitudeDegrees>-4.168543405830860137939453125</LongitudeDegrees>
            </Position>
            <AltitudeMeters>116.40000152587890625</AltitudeMeters>
            <DistanceMeters>NAN</DistanceMeters>
          </Trackpoint>
          <Trackpoint>
            <Time>2022-07-14T16:54:44.000Z</Time>
            <Position>
              <LatitudeDegrees>43.39472799561917781829833984375</LatitudeDegrees>
              <LongitudeDegrees>-4.1686149872839450836181640625</LongitudeDegrees>
            </Position>
            <AltitudeMeters>117.1999969482421875</AltitudeMeters>
            <DistanceMeters>NAN</DistanceMeters>
          </Trackpoint>
          <Trackpoint>
            <Time>2022-07-14T16:54:45.000Z</Time>
            <Position>
              <LatitudeDegrees>43.39471307583153247833251953125</LatitudeDegrees>
              <LongitudeDegrees>-4.16862823069095611572265625</LongitudeDegrees>
            </Position>
            <AltitudeMeters>117.40000152587890625</AltitudeMeters>
            <DistanceMeters>NAN</DistanceMeters>
          </Trackpoint>
          <Trackpoint>
            <Time>2022-07-14T16:54:52.000Z</Time>
            <Position>
              <LatitudeDegrees>43.39461333118379116058349609375</LatitudeDegrees>
              <LongitudeDegrees>-4.168702326714992523193359375</LongitudeDegrees>
            </Position>
            <AltitudeMeters>118.1999969482421875</AltitudeMeters>
            <DistanceMeters>NAN</DistanceMeters>
          </Trackpoint>
          <Trackpoint>
            <Time>2022-07-14T16:54:54.000Z</Time>
            <Position>
              <LatitudeDegrees>43.39458483271300792694091796875</LatitudeDegrees>
              <LongitudeDegrees>-4.16872520931065082550048828125</LongitudeDegrees>
            </Position>
            <AltitudeMeters>118.40000152587890625</AltitudeMeters>
            <DistanceMeters>NAN</DistanceMeters>
          </Trackpoint>
          <Trackpoint>
            <Time>2022-07-14T16:54:59.000Z</Time>
            <Position>
              <LatitudeDegrees>43.3945180289447307586669921875</LatitudeDegrees>
              <LongitudeDegrees>-4.16876108385622501373291015625</LongitudeDegrees>
            </Position>
            <AltitudeMeters>119.1999969482421875</AltitudeMeters>
            <DistanceMeters>NAN</DistanceMeters>
          </Trackpoint>
          <Trackpoint>
            <Time>2022-07-14T16:55:02.000Z</Time>
            <Position>
              <LatitudeDegrees>43.3944727666676044464111328125</LatitudeDegrees>
              <LongitudeDegrees>-4.1687782667577266693115234375</LongitudeDegrees>
            </Position>
            <AltitudeMeters>119.59999847412109375</AltitudeMeters>
            <DistanceMeters>NAN</DistanceMeters>
          </Trackpoint>
          <Trackpoint>
            <Time>2022-07-14T16:55:06.000Z</Time>
            <Position>
              <LatitudeDegrees>43.39441602118313312530517578125</LatitudeDegrees>
              <LongitudeDegrees>-4.168790169060230255126953125</LongitudeDegrees>
            </Position>
            <AltitudeMeters>120</AltitudeMeters>
            <DistanceMeters>NAN</DistanceMeters>
          </Trackpoint>
          <Trackpoint>
            <Time>2022-07-14T16:55:09.000Z</Time>
            <Position>
              <LatitudeDegrees>43.39437092654407024383544921875</LatitudeDegrees>
              <LongitudeDegrees>-4.1687993891537189483642578125</LongitudeDegrees>
            </Position>
            <AltitudeMeters>120.1999969482421875</AltitudeMeters>
            <DistanceMeters>NAN</DistanceMeters>
          </Trackpoint>
          <Trackpoint>
            <Time>2022-07-14T16:55:12.000Z</Time>
            <Position>
              <LatitudeDegrees>43.39432750828564167022705078125</LatitudeDegrees>
              <LongitudeDegrees>-4.16880114935338497161865234375</LongitudeDegrees>
            </Position>
            <AltitudeMeters>120.59999847412109375</AltitudeMeters>
            <DistanceMeters>NAN</DistanceMeters>
          </Trackpoint>
          <Trackpoint>
            <Time>2022-07-14T16:55:14.000Z</Time>
            <Position>
              <LatitudeDegrees>43.39429968036711215972900390625</LatitudeDegrees>
              <LongitudeDegrees>-4.1687978804111480712890625</LongitudeDegrees>
            </Position>
            <AltitudeMeters>120.8000030517578125</AltitudeMeters>
            <DistanceMeters>NAN</DistanceMeters>
          </Trackpoint>
          <Trackpoint>
            <Time>2022-07-14T16:55:18.000Z</Time>
            <Position>
              <LatitudeDegrees>43.39423321187496185302734375</LatitudeDegrees>
              <LongitudeDegrees>-4.16879427619278430938720703125</LongitudeDegrees>
            </Position>
            <AltitudeMeters>121.1999969482421875</AltitudeMeters>
            <DistanceMeters>NAN</DistanceMeters>
          </Trackpoint>
          <Trackpoint>
            <Time>2022-07-14T16:55:19.000Z</Time>
            <Position>
              <LatitudeDegrees>43.394217789173126220703125</LatitudeDegrees>
              <LongitudeDegrees>-4.1687967069447040557861328125</LongitudeDegrees>
            </Position>
            <AltitudeMeters>121.40000152587890625</AltitudeMeters>
            <DistanceMeters>NAN</DistanceMeters>
          </Trackpoint>
          <Trackpoint>
            <Time>2022-07-14T16:55:21.000Z</Time>
            <Position>
              <LatitudeDegrees>43.39418803341686725616455078125</LatitudeDegrees>
              <LongitudeDegrees>-4.16880525648593902587890625</LongitudeDegrees>
            </Position>
            <AltitudeMeters>121.59999847412109375</AltitudeMeters>
            <DistanceMeters>NAN</DistanceMeters>
          </Trackpoint>
          <Trackpoint>
            <Time>2022-07-14T16:55:28.000Z</Time>
            <Position>
              <LatitudeDegrees>43.3940915577113628387451171875</LatitudeDegrees>
              <LongitudeDegrees>-4.16881221346557140350341796875</LongitudeDegrees>
            </Position>
            <AltitudeMeters>122.40000152587890625</AltitudeMeters>
            <DistanceMeters>NAN</DistanceMeters>
          </Trackpoint>
          <Trackpoint>
            <Time>2022-07-14T16:55:34.000Z</Time>
            <Position>
              <LatitudeDegrees>43.39400866068899631500244140625</LatitudeDegrees>
              <LongitudeDegrees>-4.1688141413033008575439453125</LongitudeDegrees>
            </Position>
            <AltitudeMeters>123</AltitudeMeters>
            <DistanceMeters>NAN</DistanceMeters>
          </Trackpoint>
          <Trackpoint>
            <Time>2022-07-14T16:55:39.000Z</Time>
            <Position>
              <LatitudeDegrees>43.3939245902001857757568359375</LatitudeDegrees>
              <LongitudeDegrees>-4.16881330311298370361328125</LongitudeDegrees>
            </Position>
            <AltitudeMeters>123.59999847412109375</AltitudeMeters>
            <DistanceMeters>NAN</DistanceMeters>
          </Trackpoint>
          <Trackpoint>
            <Time>2022-07-14T16:55:40.000Z</Time>
            <Position>
              <LatitudeDegrees>43.3939054794609546661376953125</LatitudeDegrees>
              <LongitudeDegrees>-4.16881523095071315765380859375</LongitudeDegrees>
            </Position>
            <AltitudeMeters>123.59999847412109375</AltitudeMeters>
            <DistanceMeters>NAN</DistanceMeters>
          </Trackpoint>
          <Trackpoint>
            <Time>2022-07-14T16:55:48.000Z</Time>
            <Position>
              <LatitudeDegrees>43.39378234930336475372314453125</LatitudeDegrees>
              <LongitudeDegrees>-4.16880835779011249542236328125</LongitudeDegrees>
            </Position>
            <AltitudeMeters>124.40000152587890625</AltitudeMeters>
            <DistanceMeters>NAN</DistanceMeters>
          </Trackpoint>
          <Trackpoint>
            <Time>2022-07-14T16:55:51.000Z</Time>
            <Position>
              <LatitudeDegrees>43.3937328122556209564208984375</LatitudeDegrees>
              <LongitudeDegrees>-4.1688037477433681488037109375</LongitudeDegrees>
            </Position>
            <AltitudeMeters>124.59999847412109375</AltitudeMeters>
            <DistanceMeters>NAN</DistanceMeters>
          </Trackpoint>
          <Trackpoint>
            <Time>2022-07-14T16:55:59.000Z</Time>
            <Position>
              <LatitudeDegrees>43.3936023898422718048095703125</LatitudeDegrees>
              <LongitudeDegrees>-4.168802239000797271728515625</LongitudeDegrees>
            </Position>
            <AltitudeMeters>125.1999969482421875</AltitudeMeters>
            <DistanceMeters>NAN</DistanceMeters>
          </Trackpoint>
          <Trackpoint>
            <Time>2022-07-14T16:56:02.000Z</Time>
            <Position>
              <LatitudeDegrees>43.39356039650738239288330078125</LatitudeDegrees>
              <LongitudeDegrees>-4.1688072681427001953125</LongitudeDegrees>
            </Position>
            <AltitudeMeters>125.59999847412109375</AltitudeMeters>
            <DistanceMeters>NAN</DistanceMeters>
          </Trackpoint>
          <Trackpoint>
            <Time>2022-07-14T16:56:08.000Z</Time>
            <Position>
              <LatitudeDegrees>43.39351379312574863433837890625</LatitudeDegrees>
              <LongitudeDegrees>-4.16881539858877658843994140625</LongitudeDegrees>
            </Position>
            <AltitudeMeters>126.1999969482421875</AltitudeMeters>
            <DistanceMeters>NAN</DistanceMeters>
          </Trackpoint>
          <Trackpoint>
            <Time>2022-07-14T16:58:02.000Z</Time>
            <Position>
              <LatitudeDegrees>43.3935138769447803497314453125</LatitudeDegrees>
              <LongitudeDegrees>-4.1688503511250019073486328125</LongitudeDegrees>
            </Position>
            <AltitudeMeters>126.8000030517578125</AltitudeMeters>
            <DistanceMeters>NAN</DistanceMeters>
          </Trackpoint>
          <Trackpoint>
            <Time>2022-07-14T16:58:03.000Z</Time>
            <Position>
              <LatitudeDegrees>43.393498621881008148193359375</LatitudeDegrees>
              <LongitudeDegrees>-4.1688488423824310302734375</LongitudeDegrees>
            </Position>
            <AltitudeMeters>127</AltitudeMeters>
            <DistanceMeters>NAN</DistanceMeters>
          </Trackpoint>
          <Trackpoint>
            <Time>2022-07-14T16:58:05.000Z</Time>
            <Position>
              <LatitudeDegrees>43.393460400402545928955078125</LatitudeDegrees>
              <LongitudeDegrees>-4.16884121485054492950439453125</LongitudeDegrees>
            </Position>
            <AltitudeMeters>127.1999969482421875</AltitudeMeters>
            <DistanceMeters>NAN</DistanceMeters>
          </Trackpoint>
          <Trackpoint>
            <Time>2022-07-14T16:58:11.000Z</Time>
            <Position>
              <LatitudeDegrees>43.39335537515580654144287109375</LatitudeDegrees>
              <LongitudeDegrees>-4.168802909553050994873046875</LongitudeDegrees>
            </Position>
            <AltitudeMeters>127.8000030517578125</AltitudeMeters>
            <DistanceMeters>NAN</DistanceMeters>
          </Trackpoint>
          <Trackpoint>
            <Time>2022-07-14T16:58:13.000Z</Time>
            <Position>
              <LatitudeDegrees>43.393325619399547576904296875</LatitudeDegrees>
              <LongitudeDegrees>-4.16879444383084774017333984375</LongitudeDegrees>
            </Position>
            <AltitudeMeters>128.1999969482421875</AltitudeMeters>
            <DistanceMeters>NAN</DistanceMeters>
          </Trackpoint>
          <Trackpoint>
            <Time>2022-07-14T16:58:20.000Z</Time>
            <Position>
              <LatitudeDegrees>43.39324188418686389923095703125</LatitudeDegrees>
              <LongitudeDegrees>-4.16881003417074680328369140625</LongitudeDegrees>
            </Position>
            <AltitudeMeters>129</AltitudeMeters>
            <DistanceMeters>NAN</DistanceMeters>
          </Trackpoint>
          <Trackpoint>
            <Time>2022-07-14T16:58:22.000Z</Time>
            <Position>
              <LatitudeDegrees>43.39322344399988651275634765625</LatitudeDegrees>
              <LongitudeDegrees>-4.16880534030497074127197265625</LongitudeDegrees>
            </Position>
            <AltitudeMeters>129.1999969482421875</AltitudeMeters>
            <DistanceMeters>NAN</DistanceMeters>
          </Trackpoint>
          <Trackpoint>
            <Time>2022-07-14T16:58:26.000Z</Time>
            <Position>
              <LatitudeDegrees>43.3931427262723445892333984375</LatitudeDegrees>
              <LongitudeDegrees>-4.16880215518176555633544921875</LongitudeDegrees>
            </Position>
            <AltitudeMeters>129.8000030517578125</AltitudeMeters>
            <DistanceMeters>NAN</DistanceMeters>
          </Trackpoint>
          <Trackpoint>
            <Time>2022-07-14T16:58:29.000Z</Time>
            <Position>
              <LatitudeDegrees>43.39309050701558589935302734375</LatitudeDegrees>
              <LongitudeDegrees>-4.16881137527525424957275390625</LongitudeDegrees>
            </Position>
            <AltitudeMeters>130.1999969482421875</AltitudeMeters>
            <DistanceMeters>NAN</DistanceMeters>
          </Trackpoint>
          <Trackpoint>
            <Time>2022-07-14T16:58:30.000Z</Time>
            <Position>
              <LatitudeDegrees>43.393077515065670013427734375</LatitudeDegrees>
              <LongitudeDegrees>-4.16881187818944454193115234375</LongitudeDegrees>
            </Position>
            <AltitudeMeters>130.399993896484375</AltitudeMeters>
            <DistanceMeters>NAN</DistanceMeters>
          </Trackpoint>
          <Trackpoint>
            <Time>2022-07-14T16:58:38.000Z</Time>
            <Position>
              <LatitudeDegrees>43.39294265024363994598388671875</LatitudeDegrees>
              <LongitudeDegrees>-4.16884548962116241455078125</LongitudeDegrees>
            </Position>
            <AltitudeMeters>131.1999969482421875</AltitudeMeters>
            <DistanceMeters>NAN</DistanceMeters>
          </Trackpoint>
          <Trackpoint>
            <Time>2022-07-14T16:58:39.000Z</Time>
            <Position>
              <LatitudeDegrees>43.39292437769472599029541015625</LatitudeDegrees>
              <LongitudeDegrees>-4.1688488423824310302734375</LongitudeDegrees>
            </Position>
            <AltitudeMeters>131.399993896484375</AltitudeMeters>
            <DistanceMeters>NAN</DistanceMeters>
          </Trackpoint>
          <Trackpoint>
            <Time>2022-07-14T16:58:43.000Z</Time>
            <Position>
              <LatitudeDegrees>43.392860256135463714599609375</LatitudeDegrees>
              <LongitudeDegrees>-4.1688837110996246337890625</LongitudeDegrees>
            </Position>
            <AltitudeMeters>131.8000030517578125</AltitudeMeters>
            <DistanceMeters>NAN</DistanceMeters>
          </Trackpoint>
          <Trackpoint>
            <Time>2022-07-14T16:58:46.000Z</Time>
            <Position>
              <LatitudeDegrees>43.3928040973842144012451171875</LatitudeDegrees>
              <LongitudeDegrees>-4.168901480734348297119140625</LongitudeDegrees>
            </Position>
            <AltitudeMeters>132.1999969482421875</AltitudeMeters>
            <DistanceMeters>NAN</DistanceMeters>
          </Trackpoint>
          <Trackpoint>
            <Time>2022-07-14T16:58:48.000Z</Time>
            <Position>
              <LatitudeDegrees>43.39277316816151142120361328125</LatitudeDegrees>
              <LongitudeDegrees>-4.1689086891710758209228515625</LongitudeDegrees>
            </Position>
            <AltitudeMeters>132.399993896484375</AltitudeMeters>
            <DistanceMeters>NAN</DistanceMeters>
          </Trackpoint>
          <Trackpoint>
            <Time>2022-07-14T16:58:49.000Z</Time>
            <Position>
              <LatitudeDegrees>43.392756320536136627197265625</LatitudeDegrees>
              <LongitudeDegrees>-4.1689113713800907135009765625</LongitudeDegrees>
            </Position>
            <AltitudeMeters>132.600006103515625</AltitudeMeters>
            <DistanceMeters>NAN</DistanceMeters>
          </Trackpoint>
          <Trackpoint>
            <Time>2022-07-14T16:58:52.000Z</Time>
            <Position>
              <LatitudeDegrees>43.39270410127937793731689453125</LatitudeDegrees>
              <LongitudeDegrees>-4.1689157299697399139404296875</LongitudeDegrees>
            </Position>
            <AltitudeMeters>133</AltitudeMeters>
            <DistanceMeters>NAN</DistanceMeters>
          </Trackpoint>
          <Trackpoint>
            <Time>2022-07-14T16:58:53.000Z</Time>
            <Position>
              <LatitudeDegrees>43.392689265310764312744140625</LatitudeDegrees>
              <LongitudeDegrees>-4.16892536915838718414306640625</LongitudeDegrees>
            </Position>
            <AltitudeMeters>133</AltitudeMeters>
            <DistanceMeters>NAN</DistanceMeters>
          </Trackpoint>
          <Trackpoint>
            <Time>2022-07-14T16:58:55.000Z</Time>
            <Position>
              <LatitudeDegrees>43.392655067145824432373046875</LatitudeDegrees>
              <LongitudeDegrees>-4.168940372765064239501953125</LongitudeDegrees>
            </Position>
            <AltitudeMeters>133.1999969482421875</AltitudeMeters>
            <DistanceMeters>NAN</DistanceMeters>
          </Trackpoint>
          <Trackpoint>
            <Time>2022-07-14T16:58:56.000Z</Time>
            <Position>
              <LatitudeDegrees>43.392641656100749969482421875</LatitudeDegrees>
              <LongitudeDegrees>-4.1689492575824260711669921875</LongitudeDegrees>
            </Position>
            <AltitudeMeters>133.399993896484375</AltitudeMeters>
            <DistanceMeters>NAN</DistanceMeters>
          </Trackpoint>
          <Trackpoint>
            <Time>2022-07-14T16:59:05.000Z</Time>
            <Position>
              <LatitudeDegrees>43.39250293560326099395751953125</LatitudeDegrees>
              <LongitudeDegrees>-4.16899745352566242218017578125</LongitudeDegrees>
            </Position>
            <AltitudeMeters>134.399993896484375</AltitudeMeters>
            <DistanceMeters>NAN</DistanceMeters>
          </Trackpoint>
          <Trackpoint>
            <Time>2022-07-14T16:59:09.000Z</Time>
            <Position>
              <LatitudeDegrees>43.39244409464299678802490234375</LatitudeDegrees>
              <LongitudeDegrees>-4.1690297238528728485107421875</LongitudeDegrees>
            </Position>
            <AltitudeMeters>134.8000030517578125</AltitudeMeters>
            <DistanceMeters>NAN</DistanceMeters>
          </Trackpoint>
          <Trackpoint>
            <Time>2022-07-14T16:59:14.000Z</Time>
            <Position>
              <LatitudeDegrees>43.3923679031431674957275390625</LatitudeDegrees>
              <LongitudeDegrees>-4.1690615750849246978759765625</LongitudeDegrees>
            </Position>
            <AltitudeMeters>135.399993896484375</AltitudeMeters>
            <DistanceMeters>NAN</DistanceMeters>
          </Trackpoint>
          <Trackpoint>
            <Time>2022-07-14T16:59:19.000Z</Time>
            <Position>
              <LatitudeDegrees>43.39228752069175243377685546875</LatitudeDegrees>
              <LongitudeDegrees>-4.1690920852124691009521484375</LongitudeDegrees>
            </Position>
            <AltitudeMeters>136</AltitudeMeters>
            <DistanceMeters>NAN</DistanceMeters>
          </Trackpoint>
          <Trackpoint>
            <Time>2022-07-14T16:59:26.000Z</Time>
            <Position>
              <LatitudeDegrees>43.3921898715198040008544921875</LatitudeDegrees>
              <LongitudeDegrees>-4.16915670968592166900634765625</LongitudeDegrees>
            </Position>
            <AltitudeMeters>136.399993896484375</AltitudeMeters>
            <DistanceMeters>NAN</DistanceMeters>
          </Trackpoint>
          <Trackpoint>
            <Time>2022-07-14T16:59:32.000Z</Time>
            <Position>
              <LatitudeDegrees>43.3921653963625431060791015625</LatitudeDegrees>
              <LongitudeDegrees>-4.16921689175069332122802734375</LongitudeDegrees>
            </Position>
            <AltitudeMeters>136.1999969482421875</AltitudeMeters>
            <DistanceMeters>NAN</DistanceMeters>
          </Trackpoint>
          <Trackpoint>
            <Time>2022-07-14T17:02:28.000Z</Time>
            <Position>
              <LatitudeDegrees>43.39214452542364597320556640625</LatitudeDegrees>
              <LongitudeDegrees>-4.1692791692912578582763671875</LongitudeDegrees>
            </Position>
            <AltitudeMeters>135.600006103515625</AltitudeMeters>
            <DistanceMeters>NAN</DistanceMeters>
          </Trackpoint>
          <Trackpoint>
            <Time>2022-07-14T17:02:30.000Z</Time>
            <Position>
              <LatitudeDegrees>43.392102532088756561279296875</LatitudeDegrees>
              <LongitudeDegrees>-4.1693666763603687286376953125</LongitudeDegrees>
            </Position>
            <AltitudeMeters>135.600006103515625</AltitudeMeters>
            <DistanceMeters>NAN</DistanceMeters>
          </Trackpoint>
          <Trackpoint>
            <Time>2022-07-14T17:02:34.000Z</Time>
            <Position>
              <LatitudeDegrees>43.39196196757256984710693359375</LatitudeDegrees>
              <LongitudeDegrees>-4.16959893889725208282470703125</LongitudeDegrees>
            </Position>
            <AltitudeMeters>134.1999969482421875</AltitudeMeters>
            <DistanceMeters>NAN</DistanceMeters>
          </Trackpoint>
          <Trackpoint>
            <Time>2022-07-14T17:02:35.000Z</Time>
            <Position>
              <LatitudeDegrees>43.39193246327340602874755859375</LatitudeDegrees>
              <LongitudeDegrees>-4.169675298035144805908203125</LongitudeDegrees>
            </Position>
            <AltitudeMeters>133.399993896484375</AltitudeMeters>
            <DistanceMeters>NAN</DistanceMeters>
          </Trackpoint>
          <Trackpoint>
            <Time>2022-07-14T17:02:36.000Z</Time>
            <Position>
              <LatitudeDegrees>43.39190966449677944183349609375</LatitudeDegrees>
              <LongitudeDegrees>-4.16975819505751132965087890625</LongitudeDegrees>
            </Position>
            <AltitudeMeters>132.8000030517578125</AltitudeMeters>
            <DistanceMeters>NAN</DistanceMeters>
          </Trackpoint>
          <Trackpoint>
            <Time>2022-07-14T17:02:37.000Z</Time>
            <Position>
              <LatitudeDegrees>43.3918990194797515869140625</LatitudeDegrees>
              <LongitudeDegrees>-4.16985056363046169281005859375</LongitudeDegrees>
            </Position>
            <AltitudeMeters>132.399993896484375</AltitudeMeters>
            <DistanceMeters>NAN</DistanceMeters>
          </Trackpoint>
          <Trackpoint>
            <Time>2022-07-14T17:02:38.000Z</Time>
            <Position>
              <LatitudeDegrees>43.39190245606005191802978515625</LatitudeDegrees>
              <LongitudeDegrees>-4.1699487157166004180908203125</LongitudeDegrees>
            </Position>
            <AltitudeMeters>131.8000030517578125</AltitudeMeters>
            <DistanceMeters>NAN</DistanceMeters>
          </Trackpoint>
          <Trackpoint>
            <Time>2022-07-14T17:02:41.000Z</Time>
            <Position>
              <LatitudeDegrees>43.3919607102870941162109375</LatitudeDegrees>
              <LongitudeDegrees>-4.17032028548419475555419921875</LongitudeDegrees>
            </Position>
            <AltitudeMeters>130.600006103515625</AltitudeMeters>
            <DistanceMeters>NAN</DistanceMeters>
          </Trackpoint>
          <Trackpoint>
            <Time>2022-07-14T17:02:42.000Z</Time>
            <Position>
              <LatitudeDegrees>43.3919803239405155181884765625</LatitudeDegrees>
              <LongitudeDegrees>-4.1704227961599826812744140625</LongitudeDegrees>
            </Position>
            <AltitudeMeters>130</AltitudeMeters>
            <DistanceMeters>NAN</DistanceMeters>
          </Trackpoint>
          <Trackpoint>
            <Time>2022-07-14T17:02:43.000Z</Time>
            <Position>
              <LatitudeDegrees>43.3920071460306644439697265625</LatitudeDegrees>
              <LongitudeDegrees>-4.1705569066107273101806640625</LongitudeDegrees>
            </Position>
            <AltitudeMeters>129</AltitudeMeters>
            <DistanceMeters>NAN</DistanceMeters>
          </Trackpoint>
          <Trackpoint>
            <Time>2022-07-14T17:02:44.000Z</Time>
            <Position>
              <LatitudeDegrees>43.39203656651079654693603515625</LatitudeDegrees>
              <LongitudeDegrees>-4.1706913523375988006591796875</LongitudeDegrees>
            </Position>
            <AltitudeMeters>127.8000030517578125</AltitudeMeters>
            <DistanceMeters>NAN</DistanceMeters>
          </Trackpoint>
          <Trackpoint>
            <Time>2022-07-14T17:02:45.000Z</Time>
            <Position>
              <LatitudeDegrees>43.39206975884735584259033203125</LatitudeDegrees>
              <LongitudeDegrees>-4.1708234511315822601318359375</LongitudeDegrees>
            </Position>
            <AltitudeMeters>126.8000030517578125</AltitudeMeters>
            <DistanceMeters>NAN</DistanceMeters>
          </Trackpoint>
          <Trackpoint>
            <Time>2022-07-14T17:02:46.000Z</Time>
            <Position>
              <LatitudeDegrees>43.39211015962064266204833984375</LatitudeDegrees>
              <LongitudeDegrees>-4.17095177806913852691650390625</LongitudeDegrees>
            </Position>
            <AltitudeMeters>125.40000152587890625</AltitudeMeters>
            <DistanceMeters>NAN</DistanceMeters>
          </Trackpoint>
          <Trackpoint>
            <Time>2022-07-14T17:02:47.000Z</Time>
            <Position>
              <LatitudeDegrees>43.39215718209743499755859375</LatitudeDegrees>
              <LongitudeDegrees>-4.17107298038899898529052734375</LongitudeDegrees>
            </Position>
            <AltitudeMeters>124.40000152587890625</AltitudeMeters>
            <DistanceMeters>NAN</DistanceMeters>
          </Trackpoint>
          <Trackpoint>
            <Time>2022-07-14T17:02:48.000Z</Time>
            <Position>
              <LatitudeDegrees>43.392207808792591094970703125</LatitudeDegrees>
              <LongitudeDegrees>-4.17118529789149761199951171875</LongitudeDegrees>
            </Position>
            <AltitudeMeters>123.59999847412109375</AltitudeMeters>
            <DistanceMeters>NAN</DistanceMeters>
          </Trackpoint>
          <Trackpoint>
            <Time>2022-07-14T17:02:49.000Z</Time>
            <Position>
              <LatitudeDegrees>43.39225240051746368408203125</LatitudeDegrees>
              <LongitudeDegrees>-4.17130163870751857757568359375</LongitudeDegrees>
            </Position>
            <AltitudeMeters>123</AltitudeMeters>
            <DistanceMeters>NAN</DistanceMeters>
          </Trackpoint>
          <Trackpoint>
            <Time>2022-07-14T17:02:50.000Z</Time>
            <Position>
              <LatitudeDegrees>43.3922787196934223175048828125</LatitudeDegrees>
              <LongitudeDegrees>-4.1714252717792987823486328125</LongitudeDegrees>
            </Position>
            <AltitudeMeters>122.40000152587890625</AltitudeMeters>
            <DistanceMeters>NAN</DistanceMeters>
          </Trackpoint>
          <Trackpoint>
            <Time>2022-07-14T17:02:51.000Z</Time>
            <Position>
              <LatitudeDegrees>43.39228902943432331085205078125</LatitudeDegrees>
              <LongitudeDegrees>-4.17155024595558643341064453125</LongitudeDegrees>
            </Position>
            <AltitudeMeters>121.59999847412109375</AltitudeMeters>
            <DistanceMeters>NAN</DistanceMeters>
          </Trackpoint>
          <Trackpoint>
            <Time>2022-07-14T17:02:52.000Z</Time>
            <Position>
              <LatitudeDegrees>43.3922730199992656707763671875</LatitudeDegrees>
              <LongitudeDegrees>-4.17167178355157375335693359375</LongitudeDegrees>
            </Position>
            <AltitudeMeters>120.8000030517578125</AltitudeMeters>
            <DistanceMeters>NAN</DistanceMeters>
          </Trackpoint>
          <Trackpoint>
            <Time>2022-07-14T17:02:53.000Z</Time>
            <Position>
              <LatitudeDegrees>43.39223354123532772064208984375</LatitudeDegrees>
              <LongitudeDegrees>-4.1717910580337047576904296875</LongitudeDegrees>
            </Position>
            <AltitudeMeters>119.40000152587890625</AltitudeMeters>
            <DistanceMeters>NAN</DistanceMeters>
          </Trackpoint>
          <Trackpoint>
            <Time>2022-07-14T17:02:54.000Z</Time>
            <Position>
              <LatitudeDegrees>43.3921724371612071990966796875</LatitudeDegrees>
              <LongitudeDegrees>-4.1719060577452182769775390625</LongitudeDegrees>
            </Position>
            <AltitudeMeters>118.40000152587890625</AltitudeMeters>
            <DistanceMeters>NAN</DistanceMeters>
          </Trackpoint>
          <Trackpoint>
            <Time>2022-07-14T17:02:55.000Z</Time>
            <Position>
              <LatitudeDegrees>43.392098844051361083984375</LatitudeDegrees>
              <LongitudeDegrees>-4.1720165312290191650390625</LongitudeDegrees>
            </Position>
            <AltitudeMeters>117.59999847412109375</AltitudeMeters>
            <DistanceMeters>NAN</DistanceMeters>
          </Trackpoint>
          <Trackpoint>
            <Time>2022-07-14T17:02:57.000Z</Time>
            <Position>
              <LatitudeDegrees>43.39192223735153675079345703125</LatitudeDegrees>
              <LongitudeDegrees>-4.17226974852383136749267578125</LongitudeDegrees>
            </Position>
            <AltitudeMeters>116</AltitudeMeters>
            <DistanceMeters>NAN</DistanceMeters>
          </Trackpoint>
          <Trackpoint>
            <Time>2022-07-14T17:02:58.000Z</Time>
            <Position>
              <LatitudeDegrees>43.3918351493775844573974609375</LatitudeDegrees>
              <LongitudeDegrees>-4.17239681817591190338134765625</LongitudeDegrees>
            </Position>
            <AltitudeMeters>115</AltitudeMeters>
            <DistanceMeters>NAN</DistanceMeters>
          </Trackpoint>
          <Trackpoint>
            <Time>2022-07-14T17:03:00.000Z</Time>
            <Position>
              <LatitudeDegrees>43.3916688524186611175537109375</LatitudeDegrees>
              <LongitudeDegrees>-4.17261994443833827972412109375</LongitudeDegrees>
            </Position>
            <AltitudeMeters>113.1999969482421875</AltitudeMeters>
            <DistanceMeters>NAN</DistanceMeters>
          </Trackpoint>
          <Trackpoint>
            <Time>2022-07-14T17:03:01.000Z</Time>
            <Position>
              <LatitudeDegrees>43.39155636727809906005859375</LatitudeDegrees>
              <LongitudeDegrees>-4.1727729141712188720703125</LongitudeDegrees>
            </Position>
            <AltitudeMeters>111.8000030517578125</AltitudeMeters>
            <DistanceMeters>NAN</DistanceMeters>
          </Trackpoint>
          <Trackpoint>
            <Time>2022-07-14T17:03:02.000Z</Time>
            <Position>
              <LatitudeDegrees>43.39145905338227748870849609375</LatitudeDegrees>
              <LongitudeDegrees>-4.17289906181395053863525390625</LongitudeDegrees>
            </Position>
            <AltitudeMeters>110</AltitudeMeters>
            <DistanceMeters>NAN</DistanceMeters>
          </Trackpoint>
          <Trackpoint>
            <Time>2022-07-14T17:03:03.000Z</Time>
            <Position>
              <LatitudeDegrees>43.39135796763002872467041015625</LatitudeDegrees>
              <LongitudeDegrees>-4.17302462272346019744873046875</LongitudeDegrees>
            </Position>
            <AltitudeMeters>108.1999969482421875</AltitudeMeters>
            <DistanceMeters>NAN</DistanceMeters>
          </Trackpoint>
          <Trackpoint>
            <Time>2022-07-14T17:03:04.000Z</Time>
            <Position>
              <LatitudeDegrees>43.39127347804605960845947265625</LatitudeDegrees>
              <LongitudeDegrees>-4.1731221042573451995849609375</LongitudeDegrees>
            </Position>
            <AltitudeMeters>106.8000030517578125</AltitudeMeters>
            <DistanceMeters>NAN</DistanceMeters>
          </Trackpoint>
          <Trackpoint>
            <Time>2022-07-14T17:03:05.000Z</Time>
            <Position>
              <LatitudeDegrees>43.3911360986530780792236328125</LatitudeDegrees>
              <LongitudeDegrees>-4.1732629202306270599365234375</LongitudeDegrees>
            </Position>
            <AltitudeMeters>105.1999969482421875</AltitudeMeters>
            <DistanceMeters>NAN</DistanceMeters>
          </Trackpoint>
          <Trackpoint>
            <Time>2022-07-14T17:03:06.000Z</Time>
            <Position>
              <LatitudeDegrees>43.3910071849822998046875</LatitudeDegrees>
              <LongitudeDegrees>-4.1733695380389690399169921875</LongitudeDegrees>
            </Position>
            <AltitudeMeters>103.1999969482421875</AltitudeMeters>
            <DistanceMeters>NAN</DistanceMeters>
          </Trackpoint>
          <Trackpoint>
            <Time>2022-07-14T17:03:07.000Z</Time>
            <Position>
              <LatitudeDegrees>43.39088489301502704620361328125</LatitudeDegrees>
              <LongitudeDegrees>-4.1734704561531543731689453125</LongitudeDegrees>
            </Position>
            <AltitudeMeters>102</AltitudeMeters>
            <DistanceMeters>NAN</DistanceMeters>
          </Trackpoint>
          <Trackpoint>
            <Time>2022-07-14T17:03:08.000Z</Time>
            <Position>
              <LatitudeDegrees>43.39076033793389797210693359375</LatitudeDegrees>
              <LongitudeDegrees>-4.17357212863862514495849609375</LongitudeDegrees>
            </Position>
            <AltitudeMeters>100.1999969482421875</AltitudeMeters>
            <DistanceMeters>NAN</DistanceMeters>
          </Trackpoint>
          <Trackpoint>
            <Time>2022-07-14T17:03:09.000Z</Time>
            <Position>
              <LatitudeDegrees>43.39063779450953006744384765625</LatitudeDegrees>
              <LongitudeDegrees>-4.17367924936115741729736328125</LongitudeDegrees>
            </Position>
            <AltitudeMeters>98.8000030517578125</AltitudeMeters>
            <DistanceMeters>NAN</DistanceMeters>
          </Trackpoint>
          <Trackpoint>
            <Time>2022-07-14T17:03:10.000Z</Time>
            <Position>
              <LatitudeDegrees>43.3905218727886676788330078125</LatitudeDegrees>
              <LongitudeDegrees>-4.17380154132843017578125</LongitudeDegrees>
            </Position>
            <AltitudeMeters>97.8000030517578125</AltitudeMeters>
            <DistanceMeters>NAN</DistanceMeters>
          </Trackpoint>
          <Trackpoint>
            <Time>2022-07-14T17:03:11.000Z</Time>
            <Position>
              <LatitudeDegrees>43.39040595106780529022216796875</LatitudeDegrees>
              <LongitudeDegrees>-4.17393171228468418121337890625</LongitudeDegrees>
            </Position>
            <AltitudeMeters>96.40000152587890625</AltitudeMeters>
            <DistanceMeters>NAN</DistanceMeters>
          </Trackpoint>
          <Trackpoint>
            <Time>2022-07-14T17:03:13.000Z</Time>
            <Position>
              <LatitudeDegrees>43.39020059444010257720947265625</LatitudeDegrees>
              <LongitudeDegrees>-4.17421300895512104034423828125</LongitudeDegrees>
            </Position>
            <AltitudeMeters>94.1999969482421875</AltitudeMeters>
            <DistanceMeters>NAN</DistanceMeters>
          </Trackpoint>
          <Trackpoint>
            <Time>2022-07-14T17:03:15.000Z</Time>
            <Position>
              <LatitudeDegrees>43.3900146000087261199951171875</LatitudeDegrees>
              <LongitudeDegrees>-4.17450419627130031585693359375</LongitudeDegrees>
            </Position>
            <AltitudeMeters>92.40000152587890625</AltitudeMeters>
            <DistanceMeters>NAN</DistanceMeters>
          </Trackpoint>
          <Trackpoint>
            <Time>2022-07-14T17:03:16.000Z</Time>
            <Position>
              <LatitudeDegrees>43.38992449454963207244873046875</LatitudeDegrees>
              <LongitudeDegrees>-4.17464719153940677642822265625</LongitudeDegrees>
            </Position>
            <AltitudeMeters>91.40000152587890625</AltitudeMeters>
            <DistanceMeters>NAN</DistanceMeters>
          </Trackpoint>
          <Trackpoint>
            <Time>2022-07-14T17:03:18.000Z</Time>
            <Position>
              <LatitudeDegrees>43.38974243961274623870849609375</LatitudeDegrees>
              <LongitudeDegrees>-4.174925722181797027587890625</LongitudeDegrees>
            </Position>
            <AltitudeMeters>90.1999969482421875</AltitudeMeters>
            <DistanceMeters>NAN</DistanceMeters>
          </Trackpoint>
          <Trackpoint>
            <Time>2022-07-14T17:03:21.000Z</Time>
            <Position>
              <LatitudeDegrees>43.389498107135295867919921875</LatitudeDegrees>
              <LongitudeDegrees>-4.175319336354732513427734375</LongitudeDegrees>
            </Position>
            <AltitudeMeters>89.59999847412109375</AltitudeMeters>
            <DistanceMeters>NAN</DistanceMeters>
          </Trackpoint>
          <Trackpoint>
            <Time>2022-07-14T17:03:23.000Z</Time>
            <Position>
              <LatitudeDegrees>43.3893353305757045745849609375</LatitudeDegrees>
              <LongitudeDegrees>-4.17556031607091426849365234375</LongitudeDegrees>
            </Position>
            <AltitudeMeters>89</AltitudeMeters>
            <DistanceMeters>NAN</DistanceMeters>
          </Trackpoint>
          <Trackpoint>
            <Time>2022-07-14T17:03:24.000Z</Time>
            <Position>
              <LatitudeDegrees>43.38924824260175228118896484375</LatitudeDegrees>
              <LongitudeDegrees>-4.17566659860312938690185546875</LongitudeDegrees>
            </Position>
            <AltitudeMeters>88.59999847412109375</AltitudeMeters>
            <DistanceMeters>NAN</DistanceMeters>
          </Trackpoint>
          <Trackpoint>
            <Time>2022-07-14T17:03:25.000Z</Time>
            <Position>
              <LatitudeDegrees>43.38915654458105564117431640625</LatitudeDegrees>
              <LongitudeDegrees>-4.17576148174703121185302734375</LongitudeDegrees>
            </Position>
            <AltitudeMeters>88.1999969482421875</AltitudeMeters>
            <DistanceMeters>NAN</DistanceMeters>
          </Trackpoint>
          <Trackpoint>
            <Time>2022-07-14T17:03:26.000Z</Time>
            <Position>
              <LatitudeDegrees>43.38907943107187747955322265625</LatitudeDegrees>
              <LongitudeDegrees>-4.17582334019243717193603515625</LongitudeDegrees>
            </Position>
            <AltitudeMeters>87.59999847412109375</AltitudeMeters>
            <DistanceMeters>NAN</DistanceMeters>
          </Trackpoint>
          <Trackpoint>
            <Time>2022-07-14T17:03:30.000Z</Time>
            <Position>
              <LatitudeDegrees>43.38869738392531871795654296875</LatitudeDegrees>
              <LongitudeDegrees>-4.1761131025850772857666015625</LongitudeDegrees>
            </Position>
            <AltitudeMeters>86.59999847412109375</AltitudeMeters>
            <DistanceMeters>NAN</DistanceMeters>
          </Trackpoint>
          <Trackpoint>
            <Time>2022-07-14T17:03:35.000Z</Time>
            <Position>
              <LatitudeDegrees>43.3883663825690746307373046875</LatitudeDegrees>
              <LongitudeDegrees>-4.17633798904716968536376953125</LongitudeDegrees>
            </Position>
            <AltitudeMeters>87.40000152587890625</AltitudeMeters>
            <DistanceMeters>NAN</DistanceMeters>
          </Trackpoint>
          <Trackpoint>
            <Time>2022-07-14T17:03:38.000Z</Time>
            <Position>
              <LatitudeDegrees>43.3882673084735870361328125</LatitudeDegrees>
              <LongitudeDegrees>-4.17639850638806819915771484375</LongitudeDegrees>
            </Position>
            <AltitudeMeters>88.8000030517578125</AltitudeMeters>
            <DistanceMeters>NAN</DistanceMeters>
          </Trackpoint>
          <Trackpoint>
            <Time>2022-07-14T17:03:39.000Z</Time>
            <Position>
              <LatitudeDegrees>43.388247527182102203369140625</LatitudeDegrees>
              <LongitudeDegrees>-4.1764104925096035003662109375</LongitudeDegrees>
            </Position>
            <AltitudeMeters>89.1999969482421875</AltitudeMeters>
            <DistanceMeters>NAN</DistanceMeters>
          </Trackpoint>
          <Trackpoint>
            <Time>2022-07-14T17:03:42.000Z</Time>
            <Position>
              <LatitudeDegrees>43.3882041089236736297607421875</LatitudeDegrees>
              <LongitudeDegrees>-4.17642482556402683258056640625</LongitudeDegrees>
            </Position>
            <AltitudeMeters>89.8000030517578125</AltitudeMeters>
            <DistanceMeters>NAN</DistanceMeters>
          </Trackpoint>
          <Trackpoint>
            <Time>2022-07-14T17:03:44.000Z</Time>
            <Position>
              <LatitudeDegrees>43.3881705813109874725341796875</LatitudeDegrees>
              <LongitudeDegrees>-4.17644008062779903411865234375</LongitudeDegrees>
            </Position>
            <AltitudeMeters>90.1999969482421875</AltitudeMeters>
            <DistanceMeters>NAN</DistanceMeters>
          </Trackpoint>
          <Trackpoint>
            <Time>2022-07-14T17:03:47.000Z</Time>
            <Position>
              <LatitudeDegrees>43.3881340362131595611572265625</LatitudeDegrees>
              <LongitudeDegrees>-4.176478050649166107177734375</LongitudeDegrees>
            </Position>
            <AltitudeMeters>90.8000030517578125</AltitudeMeters>
            <DistanceMeters>NAN</DistanceMeters>
          </Trackpoint>
          <Trackpoint>
            <Time>2022-07-14T17:03:51.000Z</Time>
            <Position>
              <LatitudeDegrees>43.388075865805149078369140625</LatitudeDegrees>
              <LongitudeDegrees>-4.17650663293898105621337890625</LongitudeDegrees>
            </Position>
            <AltitudeMeters>91.40000152587890625</AltitudeMeters>
            <DistanceMeters>NAN</DistanceMeters>
          </Trackpoint>
          <Trackpoint>
            <Time>2022-07-14T17:03:55.000Z</Time>
            <Position>
              <LatitudeDegrees>43.38800956495106220245361328125</LatitudeDegrees>
              <LongitudeDegrees>-4.1765446029603481292724609375</LongitudeDegrees>
            </Position>
            <AltitudeMeters>92</AltitudeMeters>
            <DistanceMeters>NAN</DistanceMeters>
          </Trackpoint>
          <Trackpoint>
            <Time>2022-07-14T17:03:57.000Z</Time>
            <Position>
              <LatitudeDegrees>43.387968242168426513671875</LatitudeDegrees>
              <LongitudeDegrees>-4.17655172757804393768310546875</LongitudeDegrees>
            </Position>
            <AltitudeMeters>92.1999969482421875</AltitudeMeters>
            <DistanceMeters>NAN</DistanceMeters>
          </Trackpoint>
          <Trackpoint>
            <Time>2022-07-14T17:04:03.000Z</Time>
            <Position>
              <LatitudeDegrees>43.38786388747394084930419921875</LatitudeDegrees>
              <LongitudeDegrees>-4.17659564875066280364990234375</LongitudeDegrees>
            </Position>
            <AltitudeMeters>93</AltitudeMeters>
            <DistanceMeters>NAN</DistanceMeters>
          </Trackpoint>
          <Trackpoint>
            <Time>2022-07-14T17:04:12.000Z</Time>
            <Position>
              <LatitudeDegrees>43.38766355998814105987548828125</LatitudeDegrees>
              <LongitudeDegrees>-4.1766243986785411834716796875</LongitudeDegrees>
            </Position>
            <AltitudeMeters>93.59999847412109375</AltitudeMeters>
            <DistanceMeters>NAN</DistanceMeters>
          </Trackpoint>
          <Trackpoint>
            <Time>2022-07-14T17:04:17.000Z</Time>
            <Position>
              <LatitudeDegrees>43.387481756508350372314453125</LatitudeDegrees>
              <LongitudeDegrees>-4.1766381449997425079345703125</LongitudeDegrees>
            </Position>
            <AltitudeMeters>93.1999969482421875</AltitudeMeters>
            <DistanceMeters>NAN</DistanceMeters>
          </Trackpoint>
          <Trackpoint>
            <Time>2022-07-14T17:04:22.000Z</Time>
            <Position>
              <LatitudeDegrees>43.3871788345277309417724609375</LatitudeDegrees>
              <LongitudeDegrees>-4.17662322521209716796875</LongitudeDegrees>
            </Position>
            <AltitudeMeters>91.59999847412109375</AltitudeMeters>
            <DistanceMeters>NAN</DistanceMeters>
          </Trackpoint>
          <Trackpoint>
            <Time>2022-07-14T17:04:24.000Z</Time>
            <Position>
              <LatitudeDegrees>43.3870058320462703704833984375</LatitudeDegrees>
              <LongitudeDegrees>-4.1766183637082576751708984375</LongitudeDegrees>
            </Position>
            <AltitudeMeters>90.40000152587890625</AltitudeMeters>
            <DistanceMeters>NAN</DistanceMeters>
          </Trackpoint>
          <Trackpoint>
            <Time>2022-07-14T17:04:26.000Z</Time>
            <Position>
              <LatitudeDegrees>43.38683257810771465301513671875</LatitudeDegrees>
              <LongitudeDegrees>-4.17662397958338260650634765625</LongitudeDegrees>
            </Position>
            <AltitudeMeters>89.1999969482421875</AltitudeMeters>
            <DistanceMeters>NAN</DistanceMeters>
          </Trackpoint>
          <Trackpoint>
            <Time>2022-07-14T17:04:27.000Z</Time>
            <Position>
              <LatitudeDegrees>43.38674046099185943603515625</LatitudeDegrees>
              <LongitudeDegrees>-4.176640994846820831298828125</LongitudeDegrees>
            </Position>
            <AltitudeMeters>88.40000152587890625</AltitudeMeters>
            <DistanceMeters>NAN</DistanceMeters>
          </Trackpoint>
          <Trackpoint>
            <Time>2022-07-14T17:04:28.000Z</Time>
            <Position>
              <LatitudeDegrees>43.3866470865905284881591796875</LatitudeDegrees>
              <LongitudeDegrees>-4.17666957713663578033447265625</LongitudeDegrees>
            </Position>
            <AltitudeMeters>87.8000030517578125</AltitudeMeters>
            <DistanceMeters>NAN</DistanceMeters>
          </Trackpoint>
          <Trackpoint>
            <Time>2022-07-14T17:04:29.000Z</Time>
            <Position>
              <LatitudeDegrees>43.386559076607227325439453125</LatitudeDegrees>
              <LongitudeDegrees>-4.17671165429055690765380859375</LongitudeDegrees>
            </Position>
            <AltitudeMeters>87.40000152587890625</AltitudeMeters>
            <DistanceMeters>NAN</DistanceMeters>
          </Trackpoint>
          <Trackpoint>
            <Time>2022-07-14T17:04:31.000Z</Time>
            <Position>
              <LatitudeDegrees>43.386408202350139617919921875</LatitudeDegrees>
              <LongitudeDegrees>-4.176807291805744171142578125</LongitudeDegrees>
            </Position>
            <AltitudeMeters>86</AltitudeMeters>
            <DistanceMeters>NAN</DistanceMeters>
          </Trackpoint>
          <Trackpoint>
            <Time>2022-07-14T17:04:33.000Z</Time>
            <Position>
              <LatitudeDegrees>43.38631105609238147735595703125</LatitudeDegrees>
              <LongitudeDegrees>-4.17693377472460269927978515625</LongitudeDegrees>
            </Position>
            <AltitudeMeters>84.59999847412109375</AltitudeMeters>
            <DistanceMeters>NAN</DistanceMeters>
          </Trackpoint>
          <Trackpoint>
            <Time>2022-07-14T17:04:34.000Z</Time>
            <Position>
              <LatitudeDegrees>43.38628071360290050506591796875</LatitudeDegrees>
              <LongitudeDegrees>-4.177014827728271484375</LongitudeDegrees>
            </Position>
            <AltitudeMeters>84</AltitudeMeters>
            <DistanceMeters>NAN</DistanceMeters>
          </Trackpoint>
          <Trackpoint>
            <Time>2022-07-14T17:04:35.000Z</Time>
            <Position>
              <LatitudeDegrees>43.3862662129104137420654296875</LatitudeDegrees>
              <LongitudeDegrees>-4.17710543610155582427978515625</LongitudeDegrees>
            </Position>
            <AltitudeMeters>83.8000030517578125</AltitudeMeters>
            <DistanceMeters>NAN</DistanceMeters>
          </Trackpoint>
          <Trackpoint>
            <Time>2022-07-14T17:04:36.000Z</Time>
            <Position>
              <LatitudeDegrees>43.38626411743462085723876953125</LatitudeDegrees>
              <LongitudeDegrees>-4.17720484547317028045654296875</LongitudeDegrees>
            </Position>
            <AltitudeMeters>83.1999969482421875</AltitudeMeters>
            <DistanceMeters>NAN</DistanceMeters>
          </Trackpoint>
          <Trackpoint>
            <Time>2022-07-14T17:04:37.000Z</Time>
            <Position>
              <LatitudeDegrees>43.38627518154680728912353515625</LatitudeDegrees>
              <LongitudeDegrees>-4.1773040033876895904541015625</LongitudeDegrees>
            </Position>
            <AltitudeMeters>82.8000030517578125</AltitudeMeters>
            <DistanceMeters>NAN</DistanceMeters>
          </Trackpoint>
          <Trackpoint>
            <Time>2022-07-14T17:04:40.000Z</Time>
            <Position>
              <LatitudeDegrees>43.386351875960826873779296875</LatitudeDegrees>
              <LongitudeDegrees>-4.17758035473525524139404296875</LongitudeDegrees>
            </Position>
            <AltitudeMeters>82</AltitudeMeters>
            <DistanceMeters>NAN</DistanceMeters>
          </Trackpoint>
          <Trackpoint>
            <Time>2022-07-14T17:04:42.000Z</Time>
            <Position>
              <LatitudeDegrees>43.38640845380723476409912109375</LatitudeDegrees>
              <LongitudeDegrees>-4.1777982003986835479736328125</LongitudeDegrees>
            </Position>
            <AltitudeMeters>81.40000152587890625</AltitudeMeters>
            <DistanceMeters>NAN</DistanceMeters>
          </Trackpoint>
          <Trackpoint>
            <Time>2022-07-14T17:04:44.000Z</Time>
            <Position>
              <LatitudeDegrees>43.3864522911608219146728515625</LatitudeDegrees>
              <LongitudeDegrees>-4.177979417145252227783203125</LongitudeDegrees>
            </Position>
            <AltitudeMeters>80.59999847412109375</AltitudeMeters>
            <DistanceMeters>NAN</DistanceMeters>
          </Trackpoint>
          <Trackpoint>
            <Time>2022-07-14T17:04:49.000Z</Time>
            <Position>
              <LatitudeDegrees>43.3865397982299327850341796875</LatitudeDegrees>
              <LongitudeDegrees>-4.1784967482089996337890625</LongitudeDegrees>
            </Position>
            <AltitudeMeters>79.8000030517578125</AltitudeMeters>
            <DistanceMeters>NAN</DistanceMeters>
          </Trackpoint>
          <Trackpoint>
            <Time>2022-07-14T17:04:50.000Z</Time>
            <Position>
              <LatitudeDegrees>43.38654893450438976287841796875</LatitudeDegrees>
              <LongitudeDegrees>-4.1785944811999797821044921875</LongitudeDegrees>
            </Position>
            <AltitudeMeters>79.1999969482421875</AltitudeMeters>
            <DistanceMeters>NAN</DistanceMeters>
          </Trackpoint>
          <Trackpoint>
            <Time>2022-07-14T17:04:53.000Z</Time>
            <Position>
              <LatitudeDegrees>43.38655941188335418701171875</LatitudeDegrees>
              <LongitudeDegrees>-4.1789002530276775360107421875</LongitudeDegrees>
            </Position>
            <AltitudeMeters>78.1999969482421875</AltitudeMeters>
            <DistanceMeters>NAN</DistanceMeters>
          </Trackpoint>
          <Trackpoint>
            <Time>2022-07-14T17:04:55.000Z</Time>
            <Position>
              <LatitudeDegrees>43.38659419678151607513427734375</LatitudeDegrees>
              <LongitudeDegrees>-4.17910871095955371856689453125</LongitudeDegrees>
            </Position>
            <AltitudeMeters>77.1999969482421875</AltitudeMeters>
            <DistanceMeters>NAN</DistanceMeters>
          </Trackpoint>
          <Trackpoint>
            <Time>2022-07-14T17:04:56.000Z</Time>
            <Position>
              <LatitudeDegrees>43.3866216056048870086669921875</LatitudeDegrees>
              <LongitudeDegrees>-4.179211556911468505859375</LongitudeDegrees>
            </Position>
            <AltitudeMeters>76.59999847412109375</AltitudeMeters>
            <DistanceMeters>NAN</DistanceMeters>
          </Trackpoint>
          <Trackpoint>
            <Time>2022-07-14T17:04:58.000Z</Time>
            <Position>
              <LatitudeDegrees>43.3866997249424457550048828125</LatitudeDegrees>
              <LongitudeDegrees>-4.17940073646605014801025390625</LongitudeDegrees>
            </Position>
            <AltitudeMeters>76</AltitudeMeters>
            <DistanceMeters>NAN</DistanceMeters>
          </Trackpoint>
          <Trackpoint>
            <Time>2022-07-14T17:04:59.000Z</Time>
            <Position>
              <LatitudeDegrees>43.38674356229603290557861328125</LatitudeDegrees>
              <LongitudeDegrees>-4.1794638521969318389892578125</LongitudeDegrees>
            </Position>
            <AltitudeMeters>75.40000152587890625</AltitudeMeters>
            <DistanceMeters>NAN</DistanceMeters>
          </Trackpoint>
          <Trackpoint>
            <Time>2022-07-14T17:05:00.000Z</Time>
            <Position>
              <LatitudeDegrees>43.38681162334978580474853515625</LatitudeDegrees>
              <LongitudeDegrees>-4.1795459948480129241943359375</LongitudeDegrees>
            </Position>
            <AltitudeMeters>75</AltitudeMeters>
            <DistanceMeters>NAN</DistanceMeters>
          </Trackpoint>
          <Trackpoint>
            <Time>2022-07-14T17:05:02.000Z</Time>
            <Position>
              <LatitudeDegrees>43.3869240246713161468505859375</LatitudeDegrees>
              <LongitudeDegrees>-4.17967314831912517547607421875</LongitudeDegrees>
            </Position>
            <AltitudeMeters>73.8000030517578125</AltitudeMeters>
            <DistanceMeters>NAN</DistanceMeters>
          </Trackpoint>
          <Trackpoint>
            <Time>2022-07-14T17:05:03.000Z</Time>
            <Position>
              <LatitudeDegrees>43.38697004131972789764404296875</LatitudeDegrees>
              <LongitudeDegrees>-4.17974808253347873687744140625</LongitudeDegrees>
            </Position>
            <AltitudeMeters>73.1999969482421875</AltitudeMeters>
            <DistanceMeters>NAN</DistanceMeters>
          </Trackpoint>
          <Trackpoint>
            <Time>2022-07-14T17:05:04.000Z</Time>
            <Position>
              <LatitudeDegrees>43.38700105436146259307861328125</LatitudeDegrees>
              <LongitudeDegrees>-4.1798115335404872894287109375</LongitudeDegrees>
            </Position>
            <AltitudeMeters>72.59999847412109375</AltitudeMeters>
            <DistanceMeters>NAN</DistanceMeters>
          </Trackpoint>
          <Trackpoint>
            <Time>2022-07-14T17:05:06.000Z</Time>
            <Position>
              <LatitudeDegrees>43.3870665170252323150634765625</LatitudeDegrees>
              <LongitudeDegrees>-4.17996190488338470458984375</LongitudeDegrees>
            </Position>
            <AltitudeMeters>71.59999847412109375</AltitudeMeters>
            <DistanceMeters>NAN</DistanceMeters>
          </Trackpoint>
          <Trackpoint>
            <Time>2022-07-14T17:05:07.000Z</Time>
            <Position>
              <LatitudeDegrees>43.3870903216302394866943359375</LatitudeDegrees>
              <LongitudeDegrees>-4.1800187341868877410888671875</LongitudeDegrees>
            </Position>
            <AltitudeMeters>71.1999969482421875</AltitudeMeters>
            <DistanceMeters>NAN</DistanceMeters>
          </Trackpoint>
          <Trackpoint>
            <Time>2022-07-14T17:05:09.000Z</Time>
            <Position>
              <LatitudeDegrees>43.38712267577648162841796875</LatitudeDegrees>
              <LongitudeDegrees>-4.18009559623897075653076171875</LongitudeDegrees>
            </Position>
            <AltitudeMeters>70.40000152587890625</AltitudeMeters>
            <DistanceMeters>NAN</DistanceMeters>
          </Trackpoint>
          <Trackpoint>
            <Time>2022-07-14T17:05:11.000Z</Time>
            <Position>
              <LatitudeDegrees>43.38714874349534511566162109375</LatitudeDegrees>
              <LongitudeDegrees>-4.180132560431957244873046875</LongitudeDegrees>
            </Position>
            <AltitudeMeters>69.59999847412109375</AltitudeMeters>
            <DistanceMeters>NAN</DistanceMeters>
          </Trackpoint>
          <Trackpoint>
            <Time>2022-07-14T17:05:13.000Z</Time>
            <Position>
              <LatitudeDegrees>43.38717556558549404144287109375</LatitudeDegrees>
              <LongitudeDegrees>-4.1801481507718563079833984375</LongitudeDegrees>
            </Position>
            <AltitudeMeters>69.1999969482421875</AltitudeMeters>
            <DistanceMeters>NAN</DistanceMeters>
          </Trackpoint>
          <Trackpoint>
            <Time>2022-07-14T17:05:17.000Z</Time>
            <Position>
              <LatitudeDegrees>43.387239016592502593994140625</LatitudeDegrees>
              <LongitudeDegrees>-4.18015946634113788604736328125</LongitudeDegrees>
            </Position>
            <AltitudeMeters>68.59999847412109375</AltitudeMeters>
            <DistanceMeters>NAN</DistanceMeters>
          </Trackpoint>
          <Trackpoint>
            <Time>2022-07-14T17:05:18.000Z</Time>
            <Position>
              <LatitudeDegrees>43.38724882341921329498291015625</LatitudeDegrees>
              <LongitudeDegrees>-4.18016164563596248626708984375</LongitudeDegrees>
            </Position>
            <AltitudeMeters>68.40000152587890625</AltitudeMeters>
            <DistanceMeters>NAN</DistanceMeters>
          </Trackpoint>
          <Trackpoint>
            <Time>2022-07-14T17:05:19.000Z</Time>
            <Position>
              <LatitudeDegrees>43.3872740529477596282958984375</LatitudeDegrees>
              <LongitudeDegrees>-4.180168770253658294677734375</LongitudeDegrees>
            </Position>
            <AltitudeMeters>68.1999969482421875</AltitudeMeters>
            <DistanceMeters>NAN</DistanceMeters>
          </Trackpoint>
          <Trackpoint>
            <Time>2022-07-14T17:05:21.000Z</Time>
            <Position>
              <LatitudeDegrees>43.387328200042247772216796875</LatitudeDegrees>
              <LongitudeDegrees>-4.18018452823162078857421875</LongitudeDegrees>
            </Position>
            <AltitudeMeters>68</AltitudeMeters>
            <DistanceMeters>NAN</DistanceMeters>
          </Trackpoint>
          <Trackpoint>
            <Time>2022-07-14T17:05:26.000Z</Time>
            <Position>
              <LatitudeDegrees>43.38749206624925136566162109375</LatitudeDegrees>
              <LongitudeDegrees>-4.18025426566600799560546875</LongitudeDegrees>
            </Position>
            <AltitudeMeters>67.59999847412109375</AltitudeMeters>
            <DistanceMeters>NAN</DistanceMeters>
          </Trackpoint>
          <Trackpoint>
            <Time>2022-07-14T17:05:31.000Z</Time>
            <Position>
              <LatitudeDegrees>43.3876284398138523101806640625</LatitudeDegrees>
              <LongitudeDegrees>-4.1804467141628265380859375</LongitudeDegrees>
            </Position>
            <AltitudeMeters>67.40000152587890625</AltitudeMeters>
            <DistanceMeters>NAN</DistanceMeters>
          </Trackpoint>
          <Trackpoint>
            <Time>2022-07-14T17:05:33.000Z</Time>
            <Position>
              <LatitudeDegrees>43.38769339956343173980712890625</LatitudeDegrees>
              <LongitudeDegrees>-4.18051670305430889129638671875</LongitudeDegrees>
            </Position>
            <AltitudeMeters>67.1999969482421875</AltitudeMeters>
            <DistanceMeters>NAN</DistanceMeters>
          </Trackpoint>
          <Trackpoint>
            <Time>2022-07-14T17:05:37.000Z</Time>
            <Position>
              <LatitudeDegrees>43.38780932128429412841796875</LatitudeDegrees>
              <LongitudeDegrees>-4.180618710815906524658203125</LongitudeDegrees>
            </Position>
            <AltitudeMeters>66.59999847412109375</AltitudeMeters>
            <DistanceMeters>NAN</DistanceMeters>
          </Trackpoint>
          <Trackpoint>
            <Time>2022-07-14T17:05:40.000Z</Time>
            <Position>
              <LatitudeDegrees>43.38790948502719402313232421875</LatitudeDegrees>
              <LongitudeDegrees>-4.18066598474979400634765625</LongitudeDegrees>
            </Position>
            <AltitudeMeters>66</AltitudeMeters>
            <DistanceMeters>NAN</DistanceMeters>
          </Trackpoint>
          <Trackpoint>
            <Time>2022-07-14T17:05:44.000Z</Time>
            <Position>
              <LatitudeDegrees>43.3880297653377056121826171875</LatitudeDegrees>
              <LongitudeDegrees>-4.18072038330137729644775390625</LongitudeDegrees>
            </Position>
            <AltitudeMeters>65.1999969482421875</AltitudeMeters>
            <DistanceMeters>NAN</DistanceMeters>
          </Trackpoint>
          <Trackpoint>
            <Time>2022-07-14T17:05:46.000Z</Time>
            <Position>
              <LatitudeDegrees>43.3880756981670856475830078125</LatitudeDegrees>
              <LongitudeDegrees>-4.1807751171290874481201171875</LongitudeDegrees>
            </Position>
            <AltitudeMeters>64.8000030517578125</AltitudeMeters>
            <DistanceMeters>NAN</DistanceMeters>
          </Trackpoint>
          <Trackpoint>
            <Time>2022-07-14T17:05:49.000Z</Time>
            <Position>
              <LatitudeDegrees>43.38811165653169155120849609375</LatitudeDegrees>
              <LongitudeDegrees>-4.18085181154310703277587890625</LongitudeDegrees>
            </Position>
            <AltitudeMeters>64</AltitudeMeters>
            <DistanceMeters>NAN</DistanceMeters>
          </Trackpoint>
          <Trackpoint>
            <Time>2022-07-14T17:05:54.000Z</Time>
            <Position>
              <LatitudeDegrees>43.38811400346457958221435546875</LatitudeDegrees>
              <LongitudeDegrees>-4.1810168512165546417236328125</LongitudeDegrees>
            </Position>
            <AltitudeMeters>63.799999237060546875</AltitudeMeters>
            <DistanceMeters>NAN</DistanceMeters>
          </Trackpoint>
          <Trackpoint>
            <Time>2022-07-14T17:05:55.000Z</Time>
            <Position>
              <LatitudeDegrees>43.38811735622584819793701171875</LatitudeDegrees>
              <LongitudeDegrees>-4.18105892837047576904296875</LongitudeDegrees>
            </Position>
            <AltitudeMeters>63.799999237060546875</AltitudeMeters>
            <DistanceMeters>NAN</DistanceMeters>
          </Trackpoint>
          <Trackpoint>
            <Time>2022-07-14T17:05:59.000Z</Time>
            <Position>
              <LatitudeDegrees>43.3881224691867828369140625</LatitudeDegrees>
              <LongitudeDegrees>-4.18126545846462249755859375</LongitudeDegrees>
            </Position>
            <AltitudeMeters>62.799999237060546875</AltitudeMeters>
            <DistanceMeters>NAN</DistanceMeters>
          </Trackpoint>
          <Trackpoint>
            <Time>2022-07-14T17:06:00.000Z</Time>
            <Position>
              <LatitudeDegrees>43.38811752386391162872314453125</LatitudeDegrees>
              <LongitudeDegrees>-4.1813189350068569183349609375</LongitudeDegrees>
            </Position>
            <AltitudeMeters>62.59999847412109375</AltitudeMeters>
            <DistanceMeters>NAN</DistanceMeters>
          </Trackpoint>
          <Trackpoint>
            <Time>2022-07-14T17:06:04.000Z</Time>
            <Position>
              <LatitudeDegrees>43.3880760334432125091552734375</LatitudeDegrees>
              <LongitudeDegrees>-4.1814473457634449005126953125</LongitudeDegrees>
            </Position>
            <AltitudeMeters>61.59999847412109375</AltitudeMeters>
            <DistanceMeters>NAN</DistanceMeters>
          </Trackpoint>
          <Trackpoint>
            <Time>2022-07-14T17:06:07.000Z</Time>
            <Position>
              <LatitudeDegrees>43.388005457818508148193359375</LatitudeDegrees>
              <LongitudeDegrees>-4.18149034492671489715576171875</LongitudeDegrees>
            </Position>
            <AltitudeMeters>61.200000762939453125</AltitudeMeters>
            <DistanceMeters>NAN</DistanceMeters>
          </Trackpoint>
          <Trackpoint>
            <Time>2022-07-14T17:06:09.000Z</Time>
            <Position>
              <LatitudeDegrees>43.387945108115673065185546875</LatitudeDegrees>
              <LongitudeDegrees>-4.18154180981218814849853515625</LongitudeDegrees>
            </Position>
            <AltitudeMeters>61</AltitudeMeters>
            <DistanceMeters>NAN</DistanceMeters>
          </Trackpoint>
          <Trackpoint>
            <Time>2022-07-14T17:06:13.000Z</Time>
            <Position>
              <LatitudeDegrees>43.3878503926098346710205078125</LatitudeDegrees>
              <LongitudeDegrees>-4.18161272071301937103271484375</LongitudeDegrees>
            </Position>
            <AltitudeMeters>61</AltitudeMeters>
            <DistanceMeters>NAN</DistanceMeters>
          </Trackpoint>
          <Trackpoint>
            <Time>2022-07-14T17:06:16.000Z</Time>
            <Position>
              <LatitudeDegrees>43.387791216373443603515625</LatitudeDegrees>
              <LongitudeDegrees>-4.1816287301480770111083984375</LongitudeDegrees>
            </Position>
            <AltitudeMeters>61</AltitudeMeters>
            <DistanceMeters>NAN</DistanceMeters>
          </Trackpoint>
          <Trackpoint>
            <Time>2022-07-14T17:06:19.000Z</Time>
            <Position>
              <LatitudeDegrees>43.387741930782794952392578125</LatitudeDegrees>
              <LongitudeDegrees>-4.1816411353647708892822265625</LongitudeDegrees>
            </Position>
            <AltitudeMeters>61.40000152587890625</AltitudeMeters>
            <DistanceMeters>NAN</DistanceMeters>
          </Trackpoint>
          <Trackpoint>
            <Time>2022-07-14T17:06:23.000Z</Time>
            <Position>
              <LatitudeDegrees>43.3876740373671054840087890625</LatitudeDegrees>
              <LongitudeDegrees>-4.1816679574549198150634765625</LongitudeDegrees>
            </Position>
            <AltitudeMeters>61.59999847412109375</AltitudeMeters>
            <DistanceMeters>NAN</DistanceMeters>
          </Trackpoint>
          <Trackpoint>
            <Time>2022-07-14T17:06:26.000Z</Time>
            <Position>
              <LatitudeDegrees>43.38762600906193256378173828125</LatitudeDegrees>
              <LongitudeDegrees>-4.18168899603188037872314453125</LongitudeDegrees>
            </Position>
            <AltitudeMeters>61.59999847412109375</AltitudeMeters>
            <DistanceMeters>NAN</DistanceMeters>
          </Trackpoint>
          <Trackpoint>
            <Time>2022-07-14T17:06:28.000Z</Time>
            <Position>
              <LatitudeDegrees>43.3875918947160243988037109375</LatitudeDegrees>
              <LongitudeDegrees>-4.18172369711101055145263671875</LongitudeDegrees>
            </Position>
            <AltitudeMeters>61.40000152587890625</AltitudeMeters>
            <DistanceMeters>NAN</DistanceMeters>
          </Trackpoint>
          <Trackpoint>
            <Time>2022-07-14T17:06:30.000Z</Time>
            <Position>
              <LatitudeDegrees>43.3875546790659427642822265625</LatitudeDegrees>
              <LongitudeDegrees>-4.1817636787891387939453125</LongitudeDegrees>
            </Position>
            <AltitudeMeters>61.40000152587890625</AltitudeMeters>
            <DistanceMeters>NAN</DistanceMeters>
          </Trackpoint>
          <Trackpoint>
            <Time>2022-07-14T17:06:34.000Z</Time>
            <Position>
              <LatitudeDegrees>43.38750111870467662811279296875</LatitudeDegrees>
              <LongitudeDegrees>-4.1818543709814548492431640625</LongitudeDegrees>
            </Position>
            <AltitudeMeters>61.200000762939453125</AltitudeMeters>
            <DistanceMeters>NAN</DistanceMeters>
          </Trackpoint>
          <Trackpoint>
            <Time>2022-07-14T17:06:36.000Z</Time>
            <Position>
              <LatitudeDegrees>43.38748921640217304229736328125</LatitudeDegrees>
              <LongitudeDegrees>-4.1819009743630886077880859375</LongitudeDegrees>
            </Position>
            <AltitudeMeters>61.200000762939453125</AltitudeMeters>
            <DistanceMeters>NAN</DistanceMeters>
          </Trackpoint>
          <Trackpoint>
            <Time>2022-07-14T17:06:39.000Z</Time>
            <Position>
              <LatitudeDegrees>43.38744898326694965362548828125</LatitudeDegrees>
              <LongitudeDegrees>-4.18197616003453731536865234375</LongitudeDegrees>
            </Position>
            <AltitudeMeters>61</AltitudeMeters>
            <DistanceMeters>NAN</DistanceMeters>
          </Trackpoint>
          <Trackpoint>
            <Time>2022-07-14T17:06:42.000Z</Time>
            <Position>
              <LatitudeDegrees>43.38740137405693531036376953125</LatitudeDegrees>
              <LongitudeDegrees>-4.18204237706959247589111328125</LongitudeDegrees>
            </Position>
            <AltitudeMeters>61</AltitudeMeters>
            <DistanceMeters>NAN</DistanceMeters>
          </Trackpoint>
          <Trackpoint>
            <Time>2022-07-14T17:06:43.000Z</Time>
            <Position>
              <LatitudeDegrees>43.38738620281219482421875</LatitudeDegrees>
              <LongitudeDegrees>-4.182066433131694793701171875</LongitudeDegrees>
            </Position>
            <AltitudeMeters>61</AltitudeMeters>
            <DistanceMeters>NAN</DistanceMeters>
          </Trackpoint>
          <Trackpoint>
            <Time>2022-07-14T17:06:45.000Z</Time>
            <Position>
              <LatitudeDegrees>43.3873702771961688995361328125</LatitudeDegrees>
              <LongitudeDegrees>-4.1821168921887874603271484375</LongitudeDegrees>
            </Position>
            <AltitudeMeters>61</AltitudeMeters>
            <DistanceMeters>NAN</DistanceMeters>
          </Trackpoint>
          <Trackpoint>
            <Time>2022-07-14T17:06:47.000Z</Time>
            <Position>
              <LatitudeDegrees>43.38736918754875659942626953125</LatitudeDegrees>
              <LongitudeDegrees>-4.18216056190431118011474609375</LongitudeDegrees>
            </Position>
            <AltitudeMeters>61</AltitudeMeters>
            <DistanceMeters>NAN</DistanceMeters>
          </Trackpoint>
          <Trackpoint>
            <Time>2022-07-14T17:06:48.000Z</Time>
            <Position>
              <LatitudeDegrees>43.3873729594051837921142578125</LatitudeDegrees>
              <LongitudeDegrees>-4.18217631988227367401123046875</LongitudeDegrees>
            </Position>
            <AltitudeMeters>61</AltitudeMeters>
            <DistanceMeters>NAN</DistanceMeters>
          </Trackpoint>
          <Trackpoint>
            <Time>2022-07-14T17:06:50.000Z</Time>
            <Position>
              <LatitudeDegrees>43.38737539015710353851318359375</LatitudeDegrees>
              <LongitudeDegrees>-4.18218922801315784454345703125</LongitudeDegrees>
            </Position>
            <AltitudeMeters>60.799999237060546875</AltitudeMeters>
            <DistanceMeters>NAN</DistanceMeters>
          </Trackpoint>
          <Trackpoint>
            <Time>2022-07-14T17:06:52.000Z</Time>
            <Position>
              <LatitudeDegrees>43.38737539015710353851318359375</LatitudeDegrees>
              <LongitudeDegrees>-4.1821923293173313140869140625</LongitudeDegrees>
            </Position>
            <AltitudeMeters>60.59999847412109375</AltitudeMeters>
            <DistanceMeters>NAN</DistanceMeters>
          </Trackpoint>
          <Trackpoint>
            <Time>2022-07-14T17:17:03.000Z</Time>
            <Position>
              <LatitudeDegrees>43.3873015455901622772216796875</LatitudeDegrees>
              <LongitudeDegrees>-4.18222971260547637939453125</LongitudeDegrees>
            </Position>
            <AltitudeMeters>61</AltitudeMeters>
            <DistanceMeters>NAN</DistanceMeters>
          </Trackpoint>
          <Trackpoint>
            <Time>2022-07-14T17:17:04.000Z</Time>
            <Position>
              <LatitudeDegrees>43.3872844465076923370361328125</LatitudeDegrees>
              <LongitudeDegrees>-4.18223683722317218780517578125</LongitudeDegrees>
            </Position>
            <AltitudeMeters>61</AltitudeMeters>
            <DistanceMeters>NAN</DistanceMeters>
          </Trackpoint>
          <Trackpoint>
            <Time>2022-07-14T17:17:07.000Z</Time>
            <Position>
              <LatitudeDegrees>43.38724329136312007904052734375</LatitudeDegrees>
              <LongitudeDegrees>-4.18229140341281890869140625</LongitudeDegrees>
            </Position>
            <AltitudeMeters>61.59999847412109375</AltitudeMeters>
            <DistanceMeters>NAN</DistanceMeters>
          </Trackpoint>
          <Trackpoint>
            <Time>2022-07-14T17:17:09.000Z</Time>
            <Position>
              <LatitudeDegrees>43.38721093721687793731689453125</LatitudeDegrees>
              <LongitudeDegrees>-4.182333312928676605224609375</LongitudeDegrees>
            </Position>
            <AltitudeMeters>61.799999237060546875</AltitudeMeters>
            <DistanceMeters>NAN</DistanceMeters>
          </Trackpoint>
          <Trackpoint>
            <Time>2022-07-14T17:17:15.000Z</Time>
            <Position>
              <LatitudeDegrees>43.387088812887668609619140625</LatitudeDegrees>
              <LongitudeDegrees>-4.18251997791230678558349609375</LongitudeDegrees>
            </Position>
            <AltitudeMeters>62</AltitudeMeters>
            <DistanceMeters>NAN</DistanceMeters>
          </Trackpoint>
          <Trackpoint>
            <Time>2022-07-14T17:17:16.000Z</Time>
            <Position>
              <LatitudeDegrees>43.38707045651972293853759765625</LatitudeDegrees>
              <LongitudeDegrees>-4.18254763819277286529541015625</LongitudeDegrees>
            </Position>
            <AltitudeMeters>62</AltitudeMeters>
            <DistanceMeters>NAN</DistanceMeters>
          </Trackpoint>
          <Trackpoint>
            <Time>2022-07-14T17:17:21.000Z</Time>
            <Position>
              <LatitudeDegrees>43.38695948012173175811767578125</LatitudeDegrees>
              <LongitudeDegrees>-4.18269147165119647979736328125</LongitudeDegrees>
            </Position>
            <AltitudeMeters>62.200000762939453125</AltitudeMeters>
            <DistanceMeters>NAN</DistanceMeters>
          </Trackpoint>
          <Trackpoint>
            <Time>2022-07-14T17:17:23.000Z</Time>
            <Position>
              <LatitudeDegrees>43.38691388256847858428955078125</LatitudeDegrees>
              <LongitudeDegrees>-4.18274872004985809326171875</LongitudeDegrees>
            </Position>
            <AltitudeMeters>62.200000762939453125</AltitudeMeters>
            <DistanceMeters>NAN</DistanceMeters>
          </Trackpoint>
          <Trackpoint>
            <Time>2022-07-14T17:17:30.000Z</Time>
            <Position>
              <LatitudeDegrees>43.38677256368100643157958984375</LatitudeDegrees>
              <LongitudeDegrees>-4.18296421878039836883544921875</LongitudeDegrees>
            </Position>
            <AltitudeMeters>62.40000152587890625</AltitudeMeters>
            <DistanceMeters>NAN</DistanceMeters>
          </Trackpoint>
          <Trackpoint>
            <Time>2022-07-14T17:17:37.000Z</Time>
            <Position>
              <LatitudeDegrees>43.3866594918072223663330078125</LatitudeDegrees>
              <LongitudeDegrees>-4.18319589458405971527099609375</LongitudeDegrees>
            </Position>
            <AltitudeMeters>62.59999847412109375</AltitudeMeters>
            <DistanceMeters>NAN</DistanceMeters>
          </Trackpoint>
          <Trackpoint>
            <Time>2022-07-14T17:17:39.000Z</Time>
            <Position>
              <LatitudeDegrees>43.38662705384194850921630859375</LatitudeDegrees>
              <LongitudeDegrees>-4.183255992829799652099609375</LongitudeDegrees>
            </Position>
            <AltitudeMeters>62.799999237060546875</AltitudeMeters>
            <DistanceMeters>NAN</DistanceMeters>
          </Trackpoint>
          <Trackpoint>
            <Time>2022-07-14T17:17:44.000Z</Time>
            <Position>
              <LatitudeDegrees>43.386527560651302337646484375</LatitudeDegrees>
              <LongitudeDegrees>-4.1834291629493236541748046875</LongitudeDegrees>
            </Position>
            <AltitudeMeters>62.799999237060546875</AltitudeMeters>
            <DistanceMeters>NAN</DistanceMeters>
          </Trackpoint>
          <Trackpoint>
            <Time>2022-07-14T17:17:49.000Z</Time>
            <Position>
              <LatitudeDegrees>43.3864328451454639434814453125</LatitudeDegrees>
              <LongitudeDegrees>-4.18358649127185344696044921875</LongitudeDegrees>
            </Position>
            <AltitudeMeters>63.200000762939453125</AltitudeMeters>
            <DistanceMeters>NAN</DistanceMeters>
          </Trackpoint>
          <Trackpoint>
            <Time>2022-07-14T17:17:51.000Z</Time>
            <Position>
              <LatitudeDegrees>43.3864003233611583709716796875</LatitudeDegrees>
              <LongitudeDegrees>-4.18363627977669239044189453125</LongitudeDegrees>
            </Position>
            <AltitudeMeters>63.40000152587890625</AltitudeMeters>
            <DistanceMeters>NAN</DistanceMeters>
          </Trackpoint>
          <Trackpoint>
            <Time>2022-07-14T17:17:52.000Z</Time>
            <Position>
              <LatitudeDegrees>43.3863805420696735382080078125</LatitudeDegrees>
              <LongitudeDegrees>-4.18365438468754291534423828125</LongitudeDegrees>
            </Position>
            <AltitudeMeters>63.40000152587890625</AltitudeMeters>
            <DistanceMeters>NAN</DistanceMeters>
          </Trackpoint>
          <Trackpoint>
            <Time>2022-07-14T17:17:54.000Z</Time>
            <Position>
              <LatitudeDegrees>43.3863460086286067962646484375</LatitudeDegrees>
              <LongitudeDegrees>-4.183696545660495758056640625</LongitudeDegrees>
            </Position>
            <AltitudeMeters>63.59999847412109375</AltitudeMeters>
            <DistanceMeters>NAN</DistanceMeters>
          </Trackpoint>
          <Trackpoint>
            <Time>2022-07-14T17:17:56.000Z</Time>
            <Position>
              <LatitudeDegrees>43.38631709106266498565673828125</LatitudeDegrees>
              <LongitudeDegrees>-4.18374784290790557861328125</LongitudeDegrees>
            </Position>
            <AltitudeMeters>63.59999847412109375</AltitudeMeters>
            <DistanceMeters>NAN</DistanceMeters>
          </Trackpoint>
          <Trackpoint>
            <Time>2022-07-14T17:17:57.000Z</Time>
            <Position>
              <LatitudeDegrees>43.38629881851375102996826171875</LatitudeDegrees>
              <LongitudeDegrees>-4.1837728209793567657470703125</LongitudeDegrees>
            </Position>
            <AltitudeMeters>63.799999237060546875</AltitudeMeters>
            <DistanceMeters>NAN</DistanceMeters>
          </Trackpoint>
          <Trackpoint>
            <Time>2022-07-14T17:17:59.000Z</Time>
            <Position>
              <LatitudeDegrees>43.38626034557819366455078125</LatitudeDegrees>
              <LongitudeDegrees>-4.18382856063544750213623046875</LongitudeDegrees>
            </Position>
            <AltitudeMeters>63.799999237060546875</AltitudeMeters>
            <DistanceMeters>NAN</DistanceMeters>
          </Trackpoint>
          <Trackpoint>
            <Time>2022-07-14T17:18:05.000Z</Time>
            <Position>
              <LatitudeDegrees>43.38615649379789829254150390625</LatitudeDegrees>
              <LongitudeDegrees>-4.183971472084522247314453125</LongitudeDegrees>
            </Position>
            <AltitudeMeters>63.799999237060546875</AltitudeMeters>
            <DistanceMeters>NAN</DistanceMeters>
          </Trackpoint>
          <Trackpoint>
            <Time>2022-07-14T17:18:10.000Z</Time>
            <Position>
              <LatitudeDegrees>43.3860630355775356292724609375</LatitudeDegrees>
              <LongitudeDegrees>-4.1840397007763385772705078125</LongitudeDegrees>
            </Position>
            <AltitudeMeters>64</AltitudeMeters>
            <DistanceMeters>NAN</DistanceMeters>
          </Trackpoint>
          <Trackpoint>
            <Time>2022-07-14T17:18:12.000Z</Time>
            <Position>
              <LatitudeDegrees>43.38603260926902294158935546875</LatitudeDegrees>
              <LongitudeDegrees>-4.1840730607509613037109375</LongitudeDegrees>
            </Position>
            <AltitudeMeters>64</AltitudeMeters>
            <DistanceMeters>NAN</DistanceMeters>
          </Trackpoint>
          <Trackpoint>
            <Time>2022-07-14T17:18:16.000Z</Time>
            <Position>
              <LatitudeDegrees>43.38598273694515228271484375</LatitudeDegrees>
              <LongitudeDegrees>-4.184138439595699310302734375</LongitudeDegrees>
            </Position>
            <AltitudeMeters>64</AltitudeMeters>
            <DistanceMeters>NAN</DistanceMeters>
          </Trackpoint>
          <Trackpoint>
            <Time>2022-07-14T17:18:18.000Z</Time>
            <Position>
              <LatitudeDegrees>43.3859611116349697113037109375</LatitudeDegrees>
              <LongitudeDegrees>-4.1841503418982028961181640625</LongitudeDegrees>
            </Position>
            <AltitudeMeters>63.799999237060546875</AltitudeMeters>
            <DistanceMeters>NAN</DistanceMeters>
          </Trackpoint>
          <Trackpoint>
            <Time>2022-07-14T17:18:23.000Z</Time>
            <Position>
              <LatitudeDegrees>43.38591727428138256072998046875</LatitudeDegrees>
              <LongitudeDegrees>-4.18420574627816677093505859375</LongitudeDegrees>
            </Position>
            <AltitudeMeters>64</AltitudeMeters>
            <DistanceMeters>NAN</DistanceMeters>
          </Trackpoint>
          <Trackpoint>
            <Time>2022-07-14T17:18:27.000Z</Time>
            <Position>
              <LatitudeDegrees>43.38593688793480396270751953125</LatitudeDegrees>
              <LongitudeDegrees>-4.184340275824069976806640625</LongitudeDegrees>
            </Position>
            <AltitudeMeters>64</AltitudeMeters>
            <DistanceMeters>NAN</DistanceMeters>
          </Trackpoint>
          <Trackpoint>
            <Time>2022-07-14T17:18:28.000Z</Time>
            <Position>
              <LatitudeDegrees>43.3859420008957386016845703125</LatitudeDegrees>
              <LongitudeDegrees>-4.18437774293124675750732421875</LongitudeDegrees>
            </Position>
            <AltitudeMeters>64</AltitudeMeters>
            <DistanceMeters>NAN</DistanceMeters>
          </Trackpoint>
          <Trackpoint>
            <Time>2022-07-14T17:18:32.000Z</Time>
            <Position>
              <LatitudeDegrees>43.385940156877040863037109375</LatitudeDegrees>
              <LongitudeDegrees>-4.18452140875160694122314453125</LongitudeDegrees>
            </Position>
            <AltitudeMeters>64</AltitudeMeters>
            <DistanceMeters>NAN</DistanceMeters>
          </Trackpoint>
          <Trackpoint>
            <Time>2022-07-14T17:18:35.000Z</Time>
            <Position>
              <LatitudeDegrees>43.38593185879290103912353515625</LatitudeDegrees>
              <LongitudeDegrees>-4.184620566666126251220703125</LongitudeDegrees>
            </Position>
            <AltitudeMeters>63.799999237060546875</AltitudeMeters>
            <DistanceMeters>NAN</DistanceMeters>
          </Trackpoint>
          <Trackpoint>
            <Time>2022-07-14T17:18:42.000Z</Time>
            <Position>
              <LatitudeDegrees>43.3858742751181125640869140625</LatitudeDegrees>
              <LongitudeDegrees>-4.18482969515025615692138671875</LongitudeDegrees>
            </Position>
            <AltitudeMeters>64.40000152587890625</AltitudeMeters>
            <DistanceMeters>NAN</DistanceMeters>
          </Trackpoint>
          <Trackpoint>
            <Time>2022-07-14T17:18:46.000Z</Time>
            <Position>
              <LatitudeDegrees>43.38585390709340572357177734375</LatitudeDegrees>
              <LongitudeDegrees>-4.18491099961102008819580078125</LongitudeDegrees>
            </Position>
            <AltitudeMeters>64.59999847412109375</AltitudeMeters>
            <DistanceMeters>NAN</DistanceMeters>
          </Trackpoint>
          <Trackpoint>
            <Time>2022-07-14T17:18:47.000Z</Time>
            <Position>
              <LatitudeDegrees>43.38585390709340572357177734375</LatitudeDegrees>
              <LongitudeDegrees>-4.18491099961102008819580078125</LongitudeDegrees>
            </Position>
            <AltitudeMeters>64.59999847412109375</AltitudeMeters>
            <DistanceMeters>NAN</DistanceMeters>
          </Trackpoint>
          <Trackpoint>
            <Time>2022-07-14T17:18:48.000Z</Time>
            <Position>
              <LatitudeDegrees>43.38585390709340572357177734375</LatitudeDegrees>
              <LongitudeDegrees>-4.18491099961102008819580078125</LongitudeDegrees>
            </Position>
            <AltitudeMeters>64.59999847412109375</AltitudeMeters>
            <DistanceMeters>NAN</DistanceMeters>
          </Trackpoint>
          <Trackpoint>
            <Time>2022-07-14T17:19:24.000Z</Time>
            <Position>
              <LatitudeDegrees>43.38581912219524383544921875</LatitudeDegrees>
              <LongitudeDegrees>-4.18496766127645969390869140625</LongitudeDegrees>
            </Position>
            <AltitudeMeters>64</AltitudeMeters>
            <DistanceMeters>NAN</DistanceMeters>
          </Trackpoint>
          <Trackpoint>
            <Time>2022-07-14T17:19:25.000Z</Time>
            <Position>
              <LatitudeDegrees>43.38580445386469364166259765625</LatitudeDegrees>
              <LongitudeDegrees>-4.184993393719196319580078125</LongitudeDegrees>
            </Position>
            <AltitudeMeters>64.1999969482421875</AltitudeMeters>
            <DistanceMeters>NAN</DistanceMeters>
          </Trackpoint>
          <Trackpoint>
            <Time>2022-07-14T17:19:26.000Z</Time>
            <Position>
              <LatitudeDegrees>43.385789282619953155517578125</LatitudeDegrees>
              <LongitudeDegrees>-4.185022227466106414794921875</LongitudeDegrees>
            </Position>
            <AltitudeMeters>64.1999969482421875</AltitudeMeters>
            <DistanceMeters>NAN</DistanceMeters>
          </Trackpoint>
          <Trackpoint>
            <Time>2022-07-14T17:19:33.000Z</Time>
            <Position>
              <LatitudeDegrees>43.38565886020660400390625</LatitudeDegrees>
              <LongitudeDegrees>-4.185220710933208465576171875</LongitudeDegrees>
            </Position>
            <AltitudeMeters>64.40000152587890625</AltitudeMeters>
            <DistanceMeters>NAN</DistanceMeters>
          </Trackpoint>
          <Trackpoint>
            <Time>2022-07-14T17:19:39.000Z</Time>
            <Position>
              <LatitudeDegrees>43.38555316440761089324951171875</LatitudeDegrees>
              <LongitudeDegrees>-4.18540519662201404571533203125</LongitudeDegrees>
            </Position>
            <AltitudeMeters>64.40000152587890625</AltitudeMeters>
            <DistanceMeters>NAN</DistanceMeters>
          </Trackpoint>
          <Trackpoint>
            <Time>2022-07-14T17:19:41.000Z</Time>
            <Position>
              <LatitudeDegrees>43.3855212293565273284912109375</LatitudeDegrees>
              <LongitudeDegrees>-4.1854750178754329681396484375</LongitudeDegrees>
            </Position>
            <AltitudeMeters>64.40000152587890625</AltitudeMeters>
            <DistanceMeters>NAN</DistanceMeters>
          </Trackpoint>
          <Trackpoint>
            <Time>2022-07-14T17:19:46.000Z</Time>
            <Position>
              <LatitudeDegrees>43.3854241669178009033203125</LatitudeDegrees>
              <LongitudeDegrees>-4.18563343584537506103515625</LongitudeDegrees>
            </Position>
            <AltitudeMeters>64.8000030517578125</AltitudeMeters>
            <DistanceMeters>NAN</DistanceMeters>
          </Trackpoint>
          <Trackpoint>
            <Time>2022-07-14T17:19:51.000Z</Time>
            <Position>
              <LatitudeDegrees>43.3853334747254848480224609375</LatitudeDegrees>
              <LongitudeDegrees>-4.18576997704803943634033203125</LongitudeDegrees>
            </Position>
            <AltitudeMeters>65.1999969482421875</AltitudeMeters>
            <DistanceMeters>NAN</DistanceMeters>
          </Trackpoint>
          <Trackpoint>
            <Time>2022-07-14T17:19:52.000Z</Time>
            <Position>
              <LatitudeDegrees>43.3853351511061191558837890625</LatitudeDegrees>
              <LongitudeDegrees>-4.18579361401498317718505859375</LongitudeDegrees>
            </Position>
            <AltitudeMeters>65.40000152587890625</AltitudeMeters>
            <DistanceMeters>NAN</DistanceMeters>
          </Trackpoint>
          <Trackpoint>
            <Time>2022-07-14T17:19:55.000Z</Time>
            <Position>
              <LatitudeDegrees>43.38530304841697216033935546875</LatitudeDegrees>
              <LongitudeDegrees>-4.18587525375187397003173828125</LongitudeDegrees>
            </Position>
            <AltitudeMeters>65.8000030517578125</AltitudeMeters>
            <DistanceMeters>NAN</DistanceMeters>
          </Trackpoint>
          <Trackpoint>
            <Time>2022-07-14T17:19:57.000Z</Time>
            <Position>
              <LatitudeDegrees>43.385283015668392181396484375</LatitudeDegrees>
              <LongitudeDegrees>-4.18591012246906757354736328125</LongitudeDegrees>
            </Position>
            <AltitudeMeters>66</AltitudeMeters>
            <DistanceMeters>NAN</DistanceMeters>
          </Trackpoint>
          <Trackpoint>
            <Time>2022-07-14T17:20:02.000Z</Time>
            <Position>
              <LatitudeDegrees>43.38520799763500690460205078125</LatitudeDegrees>
              <LongitudeDegrees>-4.18600819073617458343505859375</LongitudeDegrees>
            </Position>
            <AltitudeMeters>66.40000152587890625</AltitudeMeters>
            <DistanceMeters>NAN</DistanceMeters>
          </Trackpoint>
          <Trackpoint>
            <Time>2022-07-14T17:20:03.000Z</Time>
            <Position>
              <LatitudeDegrees>43.38518000207841396331787109375</LatitudeDegrees>
              <LongitudeDegrees>-4.18602495454251766204833984375</LongitudeDegrees>
            </Position>
            <AltitudeMeters>66.40000152587890625</AltitudeMeters>
            <DistanceMeters>NAN</DistanceMeters>
          </Trackpoint>
          <Trackpoint>
            <Time>2022-07-14T17:20:04.000Z</Time>
            <Position>
              <LatitudeDegrees>43.3851639926433563232421875</LatitudeDegrees>
              <LongitudeDegrees>-4.18604020960628986358642578125</LongitudeDegrees>
            </Position>
            <AltitudeMeters>66.1999969482421875</AltitudeMeters>
            <DistanceMeters>NAN</DistanceMeters>
          </Trackpoint>
          <Trackpoint>
            <Time>2022-07-14T17:20:06.000Z</Time>
            <Position>
              <LatitudeDegrees>43.38511076755821704864501953125</LatitudeDegrees>
              <LongitudeDegrees>-4.18609636835753917694091796875</LongitudeDegrees>
            </Position>
            <AltitudeMeters>66</AltitudeMeters>
            <DistanceMeters>NAN</DistanceMeters>
          </Trackpoint>
          <Trackpoint>
            <Time>2022-07-14T17:20:07.000Z</Time>
            <Position>
              <LatitudeDegrees>43.385089896619319915771484375</LatitudeDegrees>
              <LongitudeDegrees>-4.1861247830092906951904296875</LongitudeDegrees>
            </Position>
            <AltitudeMeters>65.8000030517578125</AltitudeMeters>
            <DistanceMeters>NAN</DistanceMeters>
          </Trackpoint>
          <Trackpoint>
            <Time>2022-07-14T17:20:11.000Z</Time>
            <Position>
              <LatitudeDegrees>43.38492058217525482177734375</LatitudeDegrees>
              <LongitudeDegrees>-4.1862495057284832000732421875</LongitudeDegrees>
            </Position>
            <AltitudeMeters>65.40000152587890625</AltitudeMeters>
            <DistanceMeters>NAN</DistanceMeters>
          </Trackpoint>
          <Trackpoint>
            <Time>2022-07-14T17:20:12.000Z</Time>
            <Position>
              <LatitudeDegrees>43.3848609030246734619140625</LatitudeDegrees>
              <LongitudeDegrees>-4.18627607636153697967529296875</LongitudeDegrees>
            </Position>
            <AltitudeMeters>65.40000152587890625</AltitudeMeters>
            <DistanceMeters>NAN</DistanceMeters>
          </Trackpoint>
          <Trackpoint>
            <Time>2022-07-14T17:20:14.000Z</Time>
            <Position>
              <LatitudeDegrees>43.384746573865413665771484375</LatitudeDegrees>
              <LongitudeDegrees>-4.18633357621729373931884765625</LongitudeDegrees>
            </Position>
            <AltitudeMeters>65.1999969482421875</AltitudeMeters>
            <DistanceMeters>NAN</DistanceMeters>
          </Trackpoint>
          <Trackpoint>
            <Time>2022-07-14T17:20:15.000Z</Time>
            <Position>
              <LatitudeDegrees>43.3846999704837799072265625</LatitudeDegrees>
              <LongitudeDegrees>-4.18635805137455463409423828125</LongitudeDegrees>
            </Position>
            <AltitudeMeters>65</AltitudeMeters>
            <DistanceMeters>NAN</DistanceMeters>
          </Trackpoint>
          <Trackpoint>
            <Time>2022-07-14T17:20:16.000Z</Time>
            <Position>
              <LatitudeDegrees>43.38465898297727108001708984375</LatitudeDegrees>
              <LongitudeDegrees>-4.18638319708406925201416015625</LongitudeDegrees>
            </Position>
            <AltitudeMeters>65</AltitudeMeters>
            <DistanceMeters>NAN</DistanceMeters>
          </Trackpoint>
          <Trackpoint>
            <Time>2022-07-14T17:20:17.000Z</Time>
            <Position>
              <LatitudeDegrees>43.3846179954707622528076171875</LatitudeDegrees>
              <LongitudeDegrees>-4.18641270138323307037353515625</LongitudeDegrees>
            </Position>
            <AltitudeMeters>64.8000030517578125</AltitudeMeters>
            <DistanceMeters>NAN</DistanceMeters>
          </Trackpoint>
          <Trackpoint>
            <Time>2022-07-14T17:20:18.000Z</Time>
            <Position>
              <LatitudeDegrees>43.3845807798206806182861328125</LatitudeDegrees>
              <LongitudeDegrees>-4.18645477853715419769287109375</LongitudeDegrees>
            </Position>
            <AltitudeMeters>64.8000030517578125</AltitudeMeters>
            <DistanceMeters>NAN</DistanceMeters>
          </Trackpoint>
          <Trackpoint>
            <Time>2022-07-14T17:20:19.000Z</Time>
            <Position>
              <LatitudeDegrees>43.384550772607326507568359375</LatitudeDegrees>
              <LongitudeDegrees>-4.18650238774716854095458984375</LongitudeDegrees>
            </Position>
            <AltitudeMeters>64.8000030517578125</AltitudeMeters>
            <DistanceMeters>NAN</DistanceMeters>
          </Trackpoint>
          <Trackpoint>
            <Time>2022-07-14T17:20:21.000Z</Time>
            <Position>
              <LatitudeDegrees>43.38449369184672832489013671875</LatitudeDegrees>
              <LongitudeDegrees>-4.1866050660610198974609375</LongitudeDegrees>
            </Position>
            <AltitudeMeters>64.40000152587890625</AltitudeMeters>
            <DistanceMeters>NAN</DistanceMeters>
          </Trackpoint>
          <Trackpoint>
            <Time>2022-07-14T17:20:24.000Z</Time>
            <Position>
              <LatitudeDegrees>43.38441255502402782440185546875</LatitudeDegrees>
              <LongitudeDegrees>-4.18680463917553424835205078125</LongitudeDegrees>
            </Position>
            <AltitudeMeters>64.1999969482421875</AltitudeMeters>
            <DistanceMeters>NAN</DistanceMeters>
          </Trackpoint>
          <Trackpoint>
            <Time>2022-07-14T17:20:26.000Z</Time>
            <Position>
              <LatitudeDegrees>43.3843635208904743194580078125</LatitudeDegrees>
              <LongitudeDegrees>-4.1868939064443111419677734375</LongitudeDegrees>
            </Position>
            <AltitudeMeters>63.799999237060546875</AltitudeMeters>
            <DistanceMeters>NAN</DistanceMeters>
          </Trackpoint>
          <Trackpoint>
            <Time>2022-07-14T17:20:29.000Z</Time>
            <Position>
              <LatitudeDegrees>43.38428623974323272705078125</LatitudeDegrees>
              <LongitudeDegrees>-4.18701871298253536224365234375</LongitudeDegrees>
            </Position>
            <AltitudeMeters>63.59999847412109375</AltitudeMeters>
            <DistanceMeters>NAN</DistanceMeters>
          </Trackpoint>
          <Trackpoint>
            <Time>2022-07-14T17:20:30.000Z</Time>
            <Position>
              <LatitudeDegrees>43.38427525945007801055908203125</LatitudeDegrees>
              <LongitudeDegrees>-4.1870531626045703887939453125</LongitudeDegrees>
            </Position>
            <AltitudeMeters>63.799999237060546875</AltitudeMeters>
            <DistanceMeters>NAN</DistanceMeters>
          </Trackpoint>
          <Trackpoint>
            <Time>2022-07-14T17:20:33.000Z</Time>
            <Position>
              <LatitudeDegrees>43.3842602558434009552001953125</LatitudeDegrees>
              <LongitudeDegrees>-4.18714754283428192138671875</LongitudeDegrees>
            </Position>
            <AltitudeMeters>64</AltitudeMeters>
            <DistanceMeters>NAN</DistanceMeters>
          </Trackpoint>
          <Trackpoint>
            <Time>2022-07-14T17:20:35.000Z</Time>
            <Position>
              <LatitudeDegrees>43.38423888199031352996826171875</LatitudeDegrees>
              <LongitudeDegrees>-4.187237732112407684326171875</LongitudeDegrees>
            </Position>
            <AltitudeMeters>64</AltitudeMeters>
            <DistanceMeters>NAN</DistanceMeters>
          </Trackpoint>
          <Trackpoint>
            <Time>2022-07-14T17:20:37.000Z</Time>
            <Position>
              <LatitudeDegrees>43.3842010796070098876953125</LatitudeDegrees>
              <LongitudeDegrees>-4.18734200298786163330078125</LongitudeDegrees>
            </Position>
            <AltitudeMeters>64</AltitudeMeters>
            <DistanceMeters>NAN</DistanceMeters>
          </Trackpoint>
          <Trackpoint>
            <Time>2022-07-14T17:20:40.000Z</Time>
            <Position>
              <LatitudeDegrees>43.3841402269899845123291015625</LatitudeDegrees>
              <LongitudeDegrees>-4.187471754848957061767578125</LongitudeDegrees>
            </Position>
            <AltitudeMeters>64</AltitudeMeters>
            <DistanceMeters>NAN</DistanceMeters>
          </Trackpoint>
          <Trackpoint>
            <Time>2022-07-14T17:20:46.000Z</Time>
            <Position>
              <LatitudeDegrees>43.38405464775860309600830078125</LatitudeDegrees>
              <LongitudeDegrees>-4.18762388639152050018310546875</LongitudeDegrees>
            </Position>
            <AltitudeMeters>64.59999847412109375</AltitudeMeters>
            <DistanceMeters>NAN</DistanceMeters>
          </Trackpoint>
          <Trackpoint>
            <Time>2022-07-14T17:20:48.000Z</Time>
            <Position>
              <LatitudeDegrees>43.3840171806514263153076171875</LatitudeDegrees>
              <LongitudeDegrees>-4.1876640357077121734619140625</LongitudeDegrees>
            </Position>
            <AltitudeMeters>64.8000030517578125</AltitudeMeters>
            <DistanceMeters>NAN</DistanceMeters>
          </Trackpoint>
          <Trackpoint>
            <Time>2022-07-14T17:20:52.000Z</Time>
            <Position>
              <LatitudeDegrees>43.383938558399677276611328125</LatitudeDegrees>
              <LongitudeDegrees>-4.1877626068890094757080078125</LongitudeDegrees>
            </Position>
            <AltitudeMeters>65.1999969482421875</AltitudeMeters>
            <DistanceMeters>NAN</DistanceMeters>
          </Trackpoint>
          <Trackpoint>
            <Time>2022-07-14T17:21:00.000Z</Time>
            <Position>
              <LatitudeDegrees>43.383859097957611083984375</LatitudeDegrees>
              <LongitudeDegrees>-4.18795648030936717987060546875</LongitudeDegrees>
            </Position>
            <AltitudeMeters>65.8000030517578125</AltitudeMeters>
            <DistanceMeters>NAN</DistanceMeters>
          </Trackpoint>
          <Trackpoint>
            <Time>2022-07-14T17:21:05.000Z</Time>
            <Position>
              <LatitudeDegrees>43.3837707526981830596923828125</LatitudeDegrees>
              <LongitudeDegrees>-4.18808606453239917755126953125</LongitudeDegrees>
            </Position>
            <AltitudeMeters>65.59999847412109375</AltitudeMeters>
            <DistanceMeters>NAN</DistanceMeters>
          </Trackpoint>
          <Trackpoint>
            <Time>2022-07-14T17:21:08.000Z</Time>
            <Position>
              <LatitudeDegrees>43.38370830751955509185791015625</LatitudeDegrees>
              <LongitudeDegrees>-4.18820408172905445098876953125</LongitudeDegrees>
            </Position>
            <AltitudeMeters>64.8000030517578125</AltitudeMeters>
            <DistanceMeters>NAN</DistanceMeters>
          </Trackpoint>
          <Trackpoint>
            <Time>2022-07-14T17:21:15.000Z</Time>
            <Position>
              <LatitudeDegrees>43.38354863226413726806640625</LatitudeDegrees>
              <LongitudeDegrees>-4.188466183841228485107421875</LongitudeDegrees>
            </Position>
            <AltitudeMeters>65.40000152587890625</AltitudeMeters>
            <DistanceMeters>NAN</DistanceMeters>
          </Trackpoint>
          <Trackpoint>
            <Time>2022-07-14T17:21:20.000Z</Time>
            <Position>
              <LatitudeDegrees>43.383453749120235443115234375</LatitudeDegrees>
              <LongitudeDegrees>-4.188649915158748626708984375</LongitudeDegrees>
            </Position>
            <AltitudeMeters>65.59999847412109375</AltitudeMeters>
            <DistanceMeters>NAN</DistanceMeters>
          </Trackpoint>
          <Trackpoint>
            <Time>2022-07-14T17:21:22.000Z</Time>
            <Position>
              <LatitudeDegrees>43.38342818431556224822998046875</LatitudeDegrees>
              <LongitudeDegrees>-4.18872593902051448822021484375</LongitudeDegrees>
            </Position>
            <AltitudeMeters>65.8000030517578125</AltitudeMeters>
            <DistanceMeters>NAN</DistanceMeters>
          </Trackpoint>
          <Trackpoint>
            <Time>2022-07-14T17:21:25.000Z</Time>
            <Position>
              <LatitudeDegrees>43.3834207244217395782470703125</LatitudeDegrees>
              <LongitudeDegrees>-4.18878226540982723236083984375</LongitudeDegrees>
            </Position>
            <AltitudeMeters>65.59999847412109375</AltitudeMeters>
            <DistanceMeters>NAN</DistanceMeters>
          </Trackpoint>
          <Trackpoint>
            <Time>2022-07-14T17:21:28.000Z</Time>
            <Position>
              <LatitudeDegrees>43.3834207244217395782470703125</LatitudeDegrees>
              <LongitudeDegrees>-4.18878226540982723236083984375</LongitudeDegrees>
            </Position>
            <AltitudeMeters>65.59999847412109375</AltitudeMeters>
            <DistanceMeters>NAN</DistanceMeters>
          </Trackpoint>
          <Trackpoint>
            <Time>2022-07-14T17:21:37.000Z</Time>
            <Position>
              <LatitudeDegrees>43.383404798805713653564453125</LatitudeDegrees>
              <LongitudeDegrees>-4.188809506595134735107421875</LongitudeDegrees>
            </Position>
            <AltitudeMeters>65.40000152587890625</AltitudeMeters>
            <DistanceMeters>NAN</DistanceMeters>
          </Trackpoint>
          <Trackpoint>
            <Time>2022-07-14T17:21:38.000Z</Time>
            <Position>
              <LatitudeDegrees>43.38340136222541332244873046875</LatitudeDegrees>
              <LongitudeDegrees>-4.1888049803674221038818359375</LongitudeDegrees>
            </Position>
            <AltitudeMeters>65.40000152587890625</AltitudeMeters>
            <DistanceMeters>NAN</DistanceMeters>
          </Trackpoint>
          <Trackpoint>
            <Time>2022-07-14T17:21:41.000Z</Time>
            <Position>
              <LatitudeDegrees>43.38342818431556224822998046875</LatitudeDegrees>
              <LongitudeDegrees>-4.18877170421183109283447265625</LongitudeDegrees>
            </Position>
            <AltitudeMeters>65.59999847412109375</AltitudeMeters>
            <DistanceMeters>NAN</DistanceMeters>
          </Trackpoint>
          <Trackpoint>
            <Time>2022-07-14T17:21:43.000Z</Time>
            <Position>
              <LatitudeDegrees>43.38345944881439208984375</LatitudeDegrees>
              <LongitudeDegrees>-4.1887629032135009765625</LongitudeDegrees>
            </Position>
            <AltitudeMeters>65.59999847412109375</AltitudeMeters>
            <DistanceMeters>NAN</DistanceMeters>
          </Trackpoint>
          <Trackpoint>
            <Time>2022-07-14T17:21:45.000Z</Time>
            <Position>
              <LatitudeDegrees>43.3834887854754924774169921875</LatitudeDegrees>
              <LongitudeDegrees>-4.18878511525690555572509765625</LongitudeDegrees>
            </Position>
            <AltitudeMeters>66</AltitudeMeters>
            <DistanceMeters>NAN</DistanceMeters>
          </Trackpoint>
          <Trackpoint>
            <Time>2022-07-14T17:21:47.000Z</Time>
            <Position>
              <LatitudeDegrees>43.38350630365312099456787109375</LatitudeDegrees>
              <LongitudeDegrees>-4.18882417492568492889404296875</LongitudeDegrees>
            </Position>
            <AltitudeMeters>66.1999969482421875</AltitudeMeters>
            <DistanceMeters>NAN</DistanceMeters>
          </Trackpoint>
          <Trackpoint>
            <Time>2022-07-14T17:21:48.000Z</Time>
            <Position>
              <LatitudeDegrees>43.383516110479831695556640625</LatitudeDegrees>
              <LongitudeDegrees>-4.18883867561817169189453125</LongitudeDegrees>
            </Position>
            <AltitudeMeters>66.40000152587890625</AltitudeMeters>
            <DistanceMeters>NAN</DistanceMeters>
          </Trackpoint>
          <Trackpoint>
            <Time>2022-07-14T17:21:50.000Z</Time>
            <Position>
              <LatitudeDegrees>43.38350211270153522491455078125</LatitudeDegrees>
              <LongitudeDegrees>-4.18888821266591548919677734375</LongitudeDegrees>
            </Position>
            <AltitudeMeters>66.59999847412109375</AltitudeMeters>
            <DistanceMeters>NAN</DistanceMeters>
          </Trackpoint>
          <Trackpoint>
            <Time>2022-07-14T17:21:52.000Z</Time>
            <Position>
              <LatitudeDegrees>43.38347177021205425262451171875</LatitudeDegrees>
              <LongitudeDegrees>-4.18892894871532917022705078125</LongitudeDegrees>
            </Position>
            <AltitudeMeters>66.8000030517578125</AltitudeMeters>
            <DistanceMeters>NAN</DistanceMeters>
          </Trackpoint>
          <Trackpoint>
            <Time>2022-07-14T17:21:56.000Z</Time>
            <Position>
              <LatitudeDegrees>43.38346271775662899017333984375</LatitudeDegrees>
              <LongitudeDegrees>-4.18904026038944721221923828125</LongitudeDegrees>
            </Position>
            <AltitudeMeters>66.8000030517578125</AltitudeMeters>
            <DistanceMeters>NAN</DistanceMeters>
          </Trackpoint>
          <Trackpoint>
            <Time>2022-07-14T17:21:57.000Z</Time>
            <Position>
              <LatitudeDegrees>43.383470512926578521728515625</LatitudeDegrees>
              <LongitudeDegrees>-4.189066998660564422607421875</LongitudeDegrees>
            </Position>
            <AltitudeMeters>67</AltitudeMeters>
            <DistanceMeters>NAN</DistanceMeters>
          </Trackpoint>
          <Trackpoint>
            <Time>2022-07-14T17:21:58.000Z</Time>
            <Position>
              <LatitudeDegrees>43.38347478769719600677490234375</LatitudeDegrees>
              <LongitudeDegrees>-4.18909574858844280242919921875</LongitudeDegrees>
            </Position>
            <AltitudeMeters>67</AltitudeMeters>
            <DistanceMeters>NAN</DistanceMeters>
          </Trackpoint>
          <Trackpoint>
            <Time>2022-07-14T17:22:02.000Z</Time>
            <Position>
              <LatitudeDegrees>43.38349356316030025482177734375</LatitudeDegrees>
              <LongitudeDegrees>-4.18917604722082614898681640625</LongitudeDegrees>
            </Position>
            <AltitudeMeters>67.40000152587890625</AltitudeMeters>
            <DistanceMeters>NAN</DistanceMeters>
          </Trackpoint>
          <Trackpoint>
            <Time>2022-07-14T17:22:06.000Z</Time>
            <Position>
              <LatitudeDegrees>43.38354368694126605987548828125</LatitudeDegrees>
              <LongitudeDegrees>-4.18925517238676548004150390625</LongitudeDegrees>
            </Position>
            <AltitudeMeters>67.8000030517578125</AltitudeMeters>
            <DistanceMeters>NAN</DistanceMeters>
          </Trackpoint>
          <Trackpoint>
            <Time>2022-07-14T17:22:08.000Z</Time>
            <Position>
              <LatitudeDegrees>43.38357469998300075531005859375</LatitudeDegrees>
              <LongitudeDegrees>-4.1892723552882671356201171875</LongitudeDegrees>
            </Position>
            <AltitudeMeters>68.1999969482421875</AltitudeMeters>
            <DistanceMeters>NAN</DistanceMeters>
          </Trackpoint>
          <Trackpoint>
            <Time>2022-07-14T17:22:10.000Z</Time>
            <Position>
              <LatitudeDegrees>43.383607305586338043212890625</LatitudeDegrees>
              <LongitudeDegrees>-4.189285933971405029296875</LongitudeDegrees>
            </Position>
            <AltitudeMeters>68.1999969482421875</AltitudeMeters>
            <DistanceMeters>NAN</DistanceMeters>
          </Trackpoint>
          <Trackpoint>
            <Time>2022-07-14T17:22:15.000Z</Time>
            <Position>
              <LatitudeDegrees>43.38368031196296215057373046875</LatitudeDegrees>
              <LongitudeDegrees>-4.1893192939460277557373046875</LongitudeDegrees>
            </Position>
            <AltitudeMeters>69.1999969482421875</AltitudeMeters>
            <DistanceMeters>NAN</DistanceMeters>
          </Trackpoint>
          <Trackpoint>
            <Time>2022-07-14T17:22:17.000Z</Time>
            <Position>
              <LatitudeDegrees>43.38370344601571559906005859375</LatitudeDegrees>
              <LongitudeDegrees>-4.189327843487262725830078125</LongitudeDegrees>
            </Position>
            <AltitudeMeters>69.40000152587890625</AltitudeMeters>
            <DistanceMeters>NAN</DistanceMeters>
          </Trackpoint>
          <Trackpoint>
            <Time>2022-07-14T17:22:22.000Z</Time>
            <Position>
              <LatitudeDegrees>43.3837714232504367828369140625</LatitudeDegrees>
              <LongitudeDegrees>-4.1893414221704006195068359375</LongitudeDegrees>
            </Position>
            <AltitudeMeters>70</AltitudeMeters>
            <DistanceMeters>NAN</DistanceMeters>
          </Trackpoint>
          <Trackpoint>
            <Time>2022-07-14T17:22:24.000Z</Time>
            <Position>
              <LatitudeDegrees>43.38379983790218830108642578125</LatitudeDegrees>
              <LongitudeDegrees>-4.189340583980083465576171875</LongitudeDegrees>
            </Position>
            <AltitudeMeters>70.1999969482421875</AltitudeMeters>
            <DistanceMeters>NAN</DistanceMeters>
          </Trackpoint>
          <Trackpoint>
            <Time>2022-07-14T17:22:27.000Z</Time>
            <Position>
              <LatitudeDegrees>43.38383738882839679718017578125</LatitudeDegrees>
              <LongitudeDegrees>-4.18935525231063365936279296875</LongitudeDegrees>
            </Position>
            <AltitudeMeters>70.59999847412109375</AltitudeMeters>
            <DistanceMeters>NAN</DistanceMeters>
          </Trackpoint>
          <Trackpoint>
            <Time>2022-07-14T17:22:30.000Z</Time>
            <Position>
              <LatitudeDegrees>43.3838823996484279632568359375</LatitudeDegrees>
              <LongitudeDegrees>-4.189363382756710052490234375</LongitudeDegrees>
            </Position>
            <AltitudeMeters>71.1999969482421875</AltitudeMeters>
            <DistanceMeters>NAN</DistanceMeters>
          </Trackpoint>
          <Trackpoint>
            <Time>2022-07-14T17:22:36.000Z</Time>
            <Position>
              <LatitudeDegrees>43.38395657949149608612060546875</LatitudeDegrees>
              <LongitudeDegrees>-4.189372770488262176513671875</LongitudeDegrees>
            </Position>
            <AltitudeMeters>72.40000152587890625</AltitudeMeters>
            <DistanceMeters>NAN</DistanceMeters>
          </Trackpoint>
          <Trackpoint>
            <Time>2022-07-14T17:22:37.000Z</Time>
            <Position>
              <LatitudeDegrees>43.38396714068949222564697265625</LatitudeDegrees>
              <LongitudeDegrees>-4.1893705911934375762939453125</LongitudeDegrees>
            </Position>
            <AltitudeMeters>72.59999847412109375</AltitudeMeters>
            <DistanceMeters>NAN</DistanceMeters>
          </Trackpoint>
          <Trackpoint>
            <Time>2022-07-14T17:22:41.000Z</Time>
            <Position>
              <LatitudeDegrees>43.38400863111019134521484375</LatitudeDegrees>
              <LongitudeDegrees>-4.1893816553056240081787109375</LongitudeDegrees>
            </Position>
            <AltitudeMeters>73.40000152587890625</AltitudeMeters>
            <DistanceMeters>NAN</DistanceMeters>
          </Trackpoint>
          <Trackpoint>
            <Time>2022-07-14T17:22:43.000Z</Time>
            <Position>
              <LatitudeDegrees>43.38403201662003993988037109375</LatitudeDegrees>
              <LongitudeDegrees>-4.18935592286288738250732421875</LongitudeDegrees>
            </Position>
            <AltitudeMeters>74</AltitudeMeters>
            <DistanceMeters>NAN</DistanceMeters>
          </Trackpoint>
          <Trackpoint>
            <Time>2022-07-14T17:22:44.000Z</Time>
            <Position>
              <LatitudeDegrees>43.3840446732938289642333984375</LatitudeDegrees>
              <LongitudeDegrees>-4.189344942569732666015625</LongitudeDegrees>
            </Position>
            <AltitudeMeters>74</AltitudeMeters>
            <DistanceMeters>NAN</DistanceMeters>
          </Trackpoint>
          <Trackpoint>
            <Time>2022-07-14T17:22:47.000Z</Time>
            <Position>
              <LatitudeDegrees>43.38409102521836757659912109375</LatitudeDegrees>
              <LongitudeDegrees>-4.18933278881013393402099609375</LongitudeDegrees>
            </Position>
            <AltitudeMeters>74.59999847412109375</AltitudeMeters>
            <DistanceMeters>NAN</DistanceMeters>
          </Trackpoint>
          <Trackpoint>
            <Time>2022-07-14T17:22:49.000Z</Time>
            <Position>
              <LatitudeDegrees>43.3841150812804698944091796875</LatitudeDegrees>
              <LongitudeDegrees>-4.18932507745921611785888671875</LongitudeDegrees>
            </Position>
            <AltitudeMeters>75</AltitudeMeters>
            <DistanceMeters>NAN</DistanceMeters>
          </Trackpoint>
          <Trackpoint>
            <Time>2022-07-14T17:22:51.000Z</Time>
            <Position>
              <LatitudeDegrees>43.38413477875292301177978515625</LatitudeDegrees>
              <LongitudeDegrees>-4.189318455755710601806640625</LongitudeDegrees>
            </Position>
            <AltitudeMeters>75.59999847412109375</AltitudeMeters>
            <DistanceMeters>NAN</DistanceMeters>
          </Trackpoint>
          <Trackpoint>
            <Time>2022-07-14T17:22:54.000Z</Time>
            <Position>
              <LatitudeDegrees>43.38416579179465770721435546875</LatitudeDegrees>
              <LongitudeDegrees>-4.1893089003860950469970703125</LongitudeDegrees>
            </Position>
            <AltitudeMeters>76</AltitudeMeters>
            <DistanceMeters>NAN</DistanceMeters>
          </Trackpoint>
          <Trackpoint>
            <Time>2022-07-14T17:22:55.000Z</Time>
            <Position>
              <LatitudeDegrees>43.38417802937328815460205078125</LatitudeDegrees>
              <LongitudeDegrees>-4.1893048770725727081298828125</LongitudeDegrees>
            </Position>
            <AltitudeMeters>76.1999969482421875</AltitudeMeters>
            <DistanceMeters>NAN</DistanceMeters>
          </Trackpoint>
          <Trackpoint>
            <Time>2022-07-14T17:22:58.000Z</Time>
            <Position>
              <LatitudeDegrees>43.384215831756591796875</LatitudeDegrees>
              <LongitudeDegrees>-4.18929037638008594512939453125</LongitudeDegrees>
            </Position>
            <AltitudeMeters>76.8000030517578125</AltitudeMeters>
            <DistanceMeters>NAN</DistanceMeters>
          </Trackpoint>
          <Trackpoint>
            <Time>2022-07-14T17:23:00.000Z</Time>
            <Position>
              <LatitudeDegrees>43.3842439949512481689453125</LatitudeDegrees>
              <LongitudeDegrees>-4.1892773844301700592041015625</LongitudeDegrees>
            </Position>
            <AltitudeMeters>77.1999969482421875</AltitudeMeters>
            <DistanceMeters>NAN</DistanceMeters>
          </Trackpoint>
          <Trackpoint>
            <Time>2022-07-14T17:23:01.000Z</Time>
            <Position>
              <LatitudeDegrees>43.384259752929210662841796875</LatitudeDegrees>
              <LongitudeDegrees>-4.18927453458309173583984375</LongitudeDegrees>
            </Position>
            <AltitudeMeters>77.40000152587890625</AltitudeMeters>
            <DistanceMeters>NAN</DistanceMeters>
          </Trackpoint>
          <Trackpoint>
            <Time>2022-07-14T17:23:03.000Z</Time>
            <Position>
              <LatitudeDegrees>43.3842900954186916351318359375</LatitudeDegrees>
              <LongitudeDegrees>-4.1892669908702373504638671875</LongitudeDegrees>
            </Position>
            <AltitudeMeters>78</AltitudeMeters>
            <DistanceMeters>NAN</DistanceMeters>
          </Trackpoint>
          <Trackpoint>
            <Time>2022-07-14T17:23:07.000Z</Time>
            <Position>
              <LatitudeDegrees>43.38432974182069301605224609375</LatitudeDegrees>
              <LongitudeDegrees>-4.1892388276755809783935546875</LongitudeDegrees>
            </Position>
            <AltitudeMeters>79.1999969482421875</AltitudeMeters>
            <DistanceMeters>NAN</DistanceMeters>
          </Trackpoint>
          <Trackpoint>
            <Time>2022-07-14T17:23:08.000Z</Time>
            <Position>
              <LatitudeDegrees>43.38434063829481601715087890625</LatitudeDegrees>
              <LongitudeDegrees>-4.18922801502048969268798828125</LongitudeDegrees>
            </Position>
            <AltitudeMeters>79.40000152587890625</AltitudeMeters>
            <DistanceMeters>NAN</DistanceMeters>
          </Trackpoint>
          <Trackpoint>
            <Time>2022-07-14T17:23:12.000Z</Time>
            <Position>
              <LatitudeDegrees>43.3843859843909740447998046875</LatitudeDegrees>
              <LongitudeDegrees>-4.1891801543533802032470703125</LongitudeDegrees>
            </Position>
            <AltitudeMeters>80.40000152587890625</AltitudeMeters>
            <DistanceMeters>NAN</DistanceMeters>
          </Trackpoint>
          <Trackpoint>
            <Time>2022-07-14T17:23:15.000Z</Time>
            <Position>
              <LatitudeDegrees>43.384428061544895172119140625</LatitudeDegrees>
              <LongitudeDegrees>-4.18915961869060993194580078125</LongitudeDegrees>
            </Position>
            <AltitudeMeters>81.1999969482421875</AltitudeMeters>
            <DistanceMeters>NAN</DistanceMeters>
          </Trackpoint>
          <Trackpoint>
            <Time>2022-07-14T17:23:17.000Z</Time>
            <Position>
              <LatitudeDegrees>43.38445127941668033599853515625</LatitudeDegrees>
              <LongitudeDegrees>-4.1891489736735820770263671875</LongitudeDegrees>
            </Position>
            <AltitudeMeters>81.59999847412109375</AltitudeMeters>
            <DistanceMeters>NAN</DistanceMeters>
          </Trackpoint>
          <Trackpoint>
            <Time>2022-07-14T17:23:22.000Z</Time>
            <Position>
              <LatitudeDegrees>43.38451900519430637359619140625</LatitudeDegrees>
              <LongitudeDegrees>-4.1891221515834331512451171875</LongitudeDegrees>
            </Position>
            <AltitudeMeters>82.8000030517578125</AltitudeMeters>
            <DistanceMeters>NAN</DistanceMeters>
          </Trackpoint>
          <Trackpoint>
            <Time>2022-07-14T17:23:23.000Z</Time>
            <Position>
              <LatitudeDegrees>43.3845336735248565673828125</LatitudeDegrees>
              <LongitudeDegrees>-4.18911787681281566619873046875</LongitudeDegrees>
            </Position>
            <AltitudeMeters>83</AltitudeMeters>
            <DistanceMeters>NAN</DistanceMeters>
          </Trackpoint>
          <Trackpoint>
            <Time>2022-07-14T17:23:25.000Z</Time>
            <Position>
              <LatitudeDegrees>43.38455370627343654632568359375</LatitudeDegrees>
              <LongitudeDegrees>-4.1891043819487094879150390625</LongitudeDegrees>
            </Position>
            <AltitudeMeters>83.59999847412109375</AltitudeMeters>
            <DistanceMeters>NAN</DistanceMeters>
          </Trackpoint>
          <Trackpoint>
            <Time>2022-07-14T17:23:26.000Z</Time>
            <Position>
              <LatitudeDegrees>43.384561501443386077880859375</LatitudeDegrees>
              <LongitudeDegrees>-4.18910019099712371826171875</LongitudeDegrees>
            </Position>
            <AltitudeMeters>83.59999847412109375</AltitudeMeters>
            <DistanceMeters>NAN</DistanceMeters>
          </Trackpoint>
          <Trackpoint>
            <Time>2022-07-14T17:23:27.000Z</Time>
            <Position>
              <LatitudeDegrees>43.3845710568130016326904296875</LatitudeDegrees>
              <LongitudeDegrees>-4.18909021653234958648681640625</LongitudeDegrees>
            </Position>
            <AltitudeMeters>83.8000030517578125</AltitudeMeters>
            <DistanceMeters>NAN</DistanceMeters>
          </Trackpoint>
          <Trackpoint>
            <Time>2022-07-14T17:23:28.000Z</Time>
            <Position>
              <LatitudeDegrees>43.38457868434488773345947265625</LatitudeDegrees>
              <LongitudeDegrees>-4.18908166699111461639404296875</LongitudeDegrees>
            </Position>
            <AltitudeMeters>84</AltitudeMeters>
            <DistanceMeters>NAN</DistanceMeters>
          </Trackpoint>
          <Trackpoint>
            <Time>2022-07-14T17:23:30.000Z</Time>
            <Position>
              <LatitudeDegrees>43.384597711265087127685546875</LatitudeDegrees>
              <LongitudeDegrees>-4.189055263996124267578125</LongitudeDegrees>
            </Position>
            <AltitudeMeters>84.1999969482421875</AltitudeMeters>
            <DistanceMeters>NAN</DistanceMeters>
          </Trackpoint>
          <Trackpoint>
            <Time>2022-07-14T17:23:34.000Z</Time>
            <Position>
              <LatitudeDegrees>43.3846233598887920379638671875</LatitudeDegrees>
              <LongitudeDegrees>-4.188995249569416046142578125</LongitudeDegrees>
            </Position>
            <AltitudeMeters>84.8000030517578125</AltitudeMeters>
            <DistanceMeters>NAN</DistanceMeters>
          </Trackpoint>
          <Trackpoint>
            <Time>2022-07-14T17:23:36.000Z</Time>
            <Position>
              <LatitudeDegrees>43.384627886116504669189453125</LatitudeDegrees>
              <LongitudeDegrees>-4.18896515853703022003173828125</LongitudeDegrees>
            </Position>
            <AltitudeMeters>85</AltitudeMeters>
            <DistanceMeters>NAN</DistanceMeters>
          </Trackpoint>
          <Trackpoint>
            <Time>2022-07-14T17:23:39.000Z</Time>
            <Position>
              <LatitudeDegrees>43.384634591639041900634765625</LatitudeDegrees>
              <LongitudeDegrees>-4.188919477164745330810546875</LongitudeDegrees>
            </Position>
            <AltitudeMeters>85.40000152587890625</AltitudeMeters>
            <DistanceMeters>NAN</DistanceMeters>
          </Trackpoint>
          <Trackpoint>
            <Time>2022-07-14T17:23:40.000Z</Time>
            <Position>
              <LatitudeDegrees>43.38463651947677135467529296875</LatitudeDegrees>
              <LongitudeDegrees>-4.18890883214771747589111328125</LongitudeDegrees>
            </Position>
            <AltitudeMeters>85.59999847412109375</AltitudeMeters>
            <DistanceMeters>NAN</DistanceMeters>
          </Trackpoint>
          <Trackpoint>
            <Time>2022-07-14T17:23:42.000Z</Time>
            <Position>
              <LatitudeDegrees>43.3846458233892917633056640625</LatitudeDegrees>
              <LongitudeDegrees>-4.1888822615146636962890625</LongitudeDegrees>
            </Position>
            <AltitudeMeters>85.8000030517578125</AltitudeMeters>
            <DistanceMeters>NAN</DistanceMeters>
          </Trackpoint>
          <Trackpoint>
            <Time>2022-07-14T17:23:43.000Z</Time>
            <Position>
              <LatitudeDegrees>43.38465160690248012542724609375</LatitudeDegrees>
              <LongitudeDegrees>-4.1888701915740966796875</LongitudeDegrees>
            </Position>
            <AltitudeMeters>85.8000030517578125</AltitudeMeters>
            <DistanceMeters>NAN</DistanceMeters>
          </Trackpoint>
          <Trackpoint>
            <Time>2022-07-14T17:23:45.000Z</Time>
            <Position>
              <LatitudeDegrees>43.384667448699474334716796875</LatitudeDegrees>
              <LongitudeDegrees>-4.1888435371220111846923828125</LongitudeDegrees>
            </Position>
            <AltitudeMeters>86.1999969482421875</AltitudeMeters>
            <DistanceMeters>NAN</DistanceMeters>
          </Trackpoint>
          <Trackpoint>
            <Time>2022-07-14T17:23:46.000Z</Time>
            <Position>
              <LatitudeDegrees>43.38468245230615139007568359375</LatitudeDegrees>
              <LongitudeDegrees>-4.18882928788661956787109375</LongitudeDegrees>
            </Position>
            <AltitudeMeters>86.1999969482421875</AltitudeMeters>
            <DistanceMeters>NAN</DistanceMeters>
          </Trackpoint>
          <Trackpoint>
            <Time>2022-07-14T17:23:47.000Z</Time>
            <Position>
              <LatitudeDegrees>43.384700305759906768798828125</LatitudeDegrees>
              <LongitudeDegrees>-4.1888167150318622589111328125</LongitudeDegrees>
            </Position>
            <AltitudeMeters>86.40000152587890625</AltitudeMeters>
            <DistanceMeters>NAN</DistanceMeters>
          </Trackpoint>
          <Trackpoint>
            <Time>2022-07-14T17:23:48.000Z</Time>
            <Position>
              <LatitudeDegrees>43.384714387357234954833984375</LatitudeDegrees>
              <LongitudeDegrees>-4.188805483281612396240234375</LongitudeDegrees>
            </Position>
            <AltitudeMeters>86.40000152587890625</AltitudeMeters>
            <DistanceMeters>NAN</DistanceMeters>
          </Trackpoint>
          <Trackpoint>
            <Time>2022-07-14T17:23:49.000Z</Time>
            <Position>
              <LatitudeDegrees>43.38472302071750164031982421875</LatitudeDegrees>
              <LongitudeDegrees>-4.18879232369363307952880859375</LongitudeDegrees>
            </Position>
            <AltitudeMeters>86.40000152587890625</AltitudeMeters>
            <DistanceMeters>NAN</DistanceMeters>
          </Trackpoint>
          <Trackpoint>
            <Time>2022-07-14T17:23:50.000Z</Time>
            <Position>
              <LatitudeDegrees>43.38472972624003887176513671875</LatitudeDegrees>
              <LongitudeDegrees>-4.18878494761884212493896484375</LongitudeDegrees>
            </Position>
            <AltitudeMeters>86.59999847412109375</AltitudeMeters>
            <DistanceMeters>NAN</DistanceMeters>
          </Trackpoint>
          <Trackpoint>
            <Time>2022-07-14T17:23:51.000Z</Time>
            <Position>
              <LatitudeDegrees>43.38473685085773468017578125</LatitudeDegrees>
              <LongitudeDegrees>-4.18878897093236446380615234375</LongitudeDegrees>
            </Position>
            <AltitudeMeters>86.59999847412109375</AltitudeMeters>
            <DistanceMeters>NAN</DistanceMeters>
          </Trackpoint>
          <Trackpoint>
            <Time>2022-07-14T17:23:52.000Z</Time>
            <Position>
              <LatitudeDegrees>43.38474330492317676544189453125</LatitudeDegrees>
              <LongitudeDegrees>-4.1887996159493923187255859375</LongitudeDegrees>
            </Position>
            <AltitudeMeters>86.59999847412109375</AltitudeMeters>
            <DistanceMeters>NAN</DistanceMeters>
          </Trackpoint>
          <Trackpoint>
            <Time>2022-07-14T17:23:53.000Z</Time>
            <Position>
              <LatitudeDegrees>43.3847509324550628662109375</LatitudeDegrees>
              <LongitudeDegrees>-4.1888147033751010894775390625</LongitudeDegrees>
            </Position>
            <AltitudeMeters>87</AltitudeMeters>
            <DistanceMeters>NAN</DistanceMeters>
          </Trackpoint>
          <Trackpoint>
            <Time>2022-07-14T17:23:54.000Z</Time>
            <Position>
              <LatitudeDegrees>43.3847561292350292205810546875</LatitudeDegrees>
              <LongitudeDegrees>-4.1888311319053173065185546875</LongitudeDegrees>
            </Position>
            <AltitudeMeters>87.1999969482421875</AltitudeMeters>
            <DistanceMeters>NAN</DistanceMeters>
          </Trackpoint>
          <Trackpoint>
            <Time>2022-07-14T17:23:57.000Z</Time>
            <Position>
              <LatitudeDegrees>43.38476627133786678314208984375</LatitudeDegrees>
              <LongitudeDegrees>-4.18889692984521389007568359375</LongitudeDegrees>
            </Position>
            <AltitudeMeters>88</AltitudeMeters>
            <DistanceMeters>NAN</DistanceMeters>
          </Trackpoint>
          <Trackpoint>
            <Time>2022-07-14T17:23:59.000Z</Time>
            <Position>
              <LatitudeDegrees>43.3847725577652454376220703125</LatitudeDegrees>
              <LongitudeDegrees>-4.188932217657566070556640625</LongitudeDegrees>
            </Position>
            <AltitudeMeters>88.59999847412109375</AltitudeMeters>
            <DistanceMeters>NAN</DistanceMeters>
          </Trackpoint>
          <Trackpoint>
            <Time>2022-07-14T17:24:01.000Z</Time>
            <Position>
              <LatitudeDegrees>43.3847819454967975616455078125</LatitudeDegrees>
              <LongitudeDegrees>-4.1889600455760955810546875</LongitudeDegrees>
            </Position>
            <AltitudeMeters>89</AltitudeMeters>
            <DistanceMeters>NAN</DistanceMeters>
          </Trackpoint>
          <Trackpoint>
            <Time>2022-07-14T17:24:08.000Z</Time>
            <Position>
              <LatitudeDegrees>43.3847858011722564697265625</LatitudeDegrees>
              <LongitudeDegrees>-4.18907261453568935394287109375</LongitudeDegrees>
            </Position>
            <AltitudeMeters>90</AltitudeMeters>
            <DistanceMeters>NAN</DistanceMeters>
          </Trackpoint>
          <Trackpoint>
            <Time>2022-07-14T17:24:11.000Z</Time>
            <Position>
              <LatitudeDegrees>43.38477716781198978424072265625</LatitudeDegrees>
              <LongitudeDegrees>-4.1891263425350189208984375</LongitudeDegrees>
            </Position>
            <AltitudeMeters>90.1999969482421875</AltitudeMeters>
            <DistanceMeters>NAN</DistanceMeters>
          </Trackpoint>
          <Trackpoint>
            <Time>2022-07-14T17:24:12.000Z</Time>
            <Position>
              <LatitudeDegrees>43.38477465324103832244873046875</LatitudeDegrees>
              <LongitudeDegrees>-4.1891499795019626617431640625</LongitudeDegrees>
            </Position>
            <AltitudeMeters>90.1999969482421875</AltitudeMeters>
            <DistanceMeters>NAN</DistanceMeters>
          </Trackpoint>
          <Trackpoint>
            <Time>2022-07-14T17:24:15.000Z</Time>
            <Position>
              <LatitudeDegrees>43.38477817364037036895751953125</LatitudeDegrees>
              <LongitudeDegrees>-4.1892398335039615631103515625</LongitudeDegrees>
            </Position>
            <AltitudeMeters>90.40000152587890625</AltitudeMeters>
            <DistanceMeters>NAN</DistanceMeters>
          </Trackpoint>
          <Trackpoint>
            <Time>2022-07-14T17:24:21.000Z</Time>
            <Position>
              <LatitudeDegrees>43.38480365462601184844970703125</LatitudeDegrees>
              <LongitudeDegrees>-4.18941610492765903472900390625</LongitudeDegrees>
            </Position>
            <AltitudeMeters>90.59999847412109375</AltitudeMeters>
            <DistanceMeters>NAN</DistanceMeters>
          </Trackpoint>
          <Trackpoint>
            <Time>2022-07-14T17:24:22.000Z</Time>
            <Position>
              <LatitudeDegrees>43.38480533100664615631103515625</LatitudeDegrees>
              <LongitudeDegrees>-4.18943571858108043670654296875</LongitudeDegrees>
            </Position>
            <AltitudeMeters>90.59999847412109375</AltitudeMeters>
            <DistanceMeters>NAN</DistanceMeters>
          </Trackpoint>
          <Trackpoint>
            <Time>2022-07-14T17:24:26.000Z</Time>
            <Position>
              <LatitudeDegrees>43.38478823192417621612548828125</LatitudeDegrees>
              <LongitudeDegrees>-4.18953898362815380096435546875</LongitudeDegrees>
            </Position>
            <AltitudeMeters>90.59999847412109375</AltitudeMeters>
            <DistanceMeters>NAN</DistanceMeters>
          </Trackpoint>
          <Trackpoint>
            <Time>2022-07-14T17:24:27.000Z</Time>
            <Position>
              <LatitudeDegrees>43.3847826160490512847900390625</LatitudeDegrees>
              <LongitudeDegrees>-4.1895623691380023956298828125</LongitudeDegrees>
            </Position>
            <AltitudeMeters>90.59999847412109375</AltitudeMeters>
            <DistanceMeters>NAN</DistanceMeters>
          </Trackpoint>
          <Trackpoint>
            <Time>2022-07-14T17:24:28.000Z</Time>
            <Position>
              <LatitudeDegrees>43.38477599434554576873779296875</LatitudeDegrees>
              <LongitudeDegrees>-4.1895871795713901519775390625</LongitudeDegrees>
            </Position>
            <AltitudeMeters>90.59999847412109375</AltitudeMeters>
            <DistanceMeters>NAN</DistanceMeters>
          </Trackpoint>
          <Trackpoint>
            <Time>2022-07-14T17:24:31.000Z</Time>
            <Position>
              <LatitudeDegrees>43.3847464062273502349853515625</LatitudeDegrees>
              <LongitudeDegrees>-4.189656078815460205078125</LongitudeDegrees>
            </Position>
            <AltitudeMeters>90.8000030517578125</AltitudeMeters>
            <DistanceMeters>NAN</DistanceMeters>
          </Trackpoint>
          <Trackpoint>
            <Time>2022-07-14T17:24:33.000Z</Time>
            <Position>
              <LatitudeDegrees>43.384719751775264739990234375</LatitudeDegrees>
              <LongitudeDegrees>-4.1896971501410007476806640625</LongitudeDegrees>
            </Position>
            <AltitudeMeters>91</AltitudeMeters>
            <DistanceMeters>NAN</DistanceMeters>
          </Trackpoint>
          <Trackpoint>
            <Time>2022-07-14T17:24:34.000Z</Time>
            <Position>
              <LatitudeDegrees>43.3847212605178356170654296875</LatitudeDegrees>
              <LongitudeDegrees>-4.189720787107944488525390625</LongitudeDegrees>
            </Position>
            <AltitudeMeters>91</AltitudeMeters>
            <DistanceMeters>NAN</DistanceMeters>
          </Trackpoint>
          <Trackpoint>
            <Time>2022-07-14T17:24:35.000Z</Time>
            <Position>
              <LatitudeDegrees>43.3847299776971340179443359375</LatitudeDegrees>
              <LongitudeDegrees>-4.189743585884571075439453125</LongitudeDegrees>
            </Position>
            <AltitudeMeters>91.1999969482421875</AltitudeMeters>
            <DistanceMeters>NAN</DistanceMeters>
          </Trackpoint>
          <Trackpoint>
            <Time>2022-07-14T17:24:39.000Z</Time>
            <Position>
              <LatitudeDegrees>43.38477398268878459930419921875</LatitudeDegrees>
              <LongitudeDegrees>-4.18982832692563533782958984375</LongitudeDegrees>
            </Position>
            <AltitudeMeters>91.40000152587890625</AltitudeMeters>
            <DistanceMeters>NAN</DistanceMeters>
          </Trackpoint>
          <Trackpoint>
            <Time>2022-07-14T17:24:40.000Z</Time>
            <Position>
              <LatitudeDegrees>43.38478186167776584625244140625</LatitudeDegrees>
              <LongitudeDegrees>-4.18985213153064250946044921875</LongitudeDegrees>
            </Position>
            <AltitudeMeters>91.59999847412109375</AltitudeMeters>
            <DistanceMeters>NAN</DistanceMeters>
          </Trackpoint>
          <Trackpoint>
            <Time>2022-07-14T17:24:44.000Z</Time>
            <Position>
              <LatitudeDegrees>43.38481103070080280303955078125</LatitudeDegrees>
              <LongitudeDegrees>-4.18992371298372745513916015625</LongitudeDegrees>
            </Position>
            <AltitudeMeters>92</AltitudeMeters>
            <DistanceMeters>NAN</DistanceMeters>
          </Trackpoint>
          <Trackpoint>
            <Time>2022-07-14T17:24:46.000Z</Time>
            <Position>
              <LatitudeDegrees>43.38482326827943325042724609375</LatitudeDegrees>
              <LongitudeDegrees>-4.1899583302438259124755859375</LongitudeDegrees>
            </Position>
            <AltitudeMeters>92.1999969482421875</AltitudeMeters>
            <DistanceMeters>NAN</DistanceMeters>
          </Trackpoint>
          <Trackpoint>
            <Time>2022-07-14T17:24:47.000Z</Time>
            <Position>
              <LatitudeDegrees>43.3848287165164947509765625</LatitudeDegrees>
              <LongitudeDegrees>-4.18998054228723049163818359375</LongitudeDegrees>
            </Position>
            <AltitudeMeters>92.40000152587890625</AltitudeMeters>
            <DistanceMeters>NAN</DistanceMeters>
          </Trackpoint>
          <Trackpoint>
            <Time>2022-07-14T17:24:50.000Z</Time>
            <Position>
              <LatitudeDegrees>43.384846150875091552734375</LatitudeDegrees>
              <LongitudeDegrees>-4.1900414787232875823974609375</LongitudeDegrees>
            </Position>
            <AltitudeMeters>92.59999847412109375</AltitudeMeters>
            <DistanceMeters>NAN</DistanceMeters>
          </Trackpoint>
          <Trackpoint>
            <Time>2022-07-14T17:24:51.000Z</Time>
            <Position>
              <LatitudeDegrees>43.38484941981732845306396484375</LatitudeDegrees>
              <LongitudeDegrees>-4.19006117619574069976806640625</LongitudeDegrees>
            </Position>
            <AltitudeMeters>92.59999847412109375</AltitudeMeters>
            <DistanceMeters>NAN</DistanceMeters>
          </Trackpoint>
          <Trackpoint>
            <Time>2022-07-14T17:24:53.000Z</Time>
            <Position>
              <LatitudeDegrees>43.38485847227275371551513671875</LatitudeDegrees>
              <LongitudeDegrees>-4.1901041753590106964111328125</LongitudeDegrees>
            </Position>
            <AltitudeMeters>92.8000030517578125</AltitudeMeters>
            <DistanceMeters>NAN</DistanceMeters>
          </Trackpoint>
          <Trackpoint>
            <Time>2022-07-14T17:24:54.000Z</Time>
            <Position>
              <LatitudeDegrees>43.38486903347074985504150390625</LatitudeDegrees>
              <LongitudeDegrees>-4.1901303268969058990478515625</LongitudeDegrees>
            </Position>
            <AltitudeMeters>93</AltitudeMeters>
            <DistanceMeters>NAN</DistanceMeters>
          </Trackpoint>
          <Trackpoint>
            <Time>2022-07-14T17:24:56.000Z</Time>
            <Position>
              <LatitudeDegrees>43.3848957717418670654296875</LatitudeDegrees>
              <LongitudeDegrees>-4.19019076041877269744873046875</LongitudeDegrees>
            </Position>
            <AltitudeMeters>93.1999969482421875</AltitudeMeters>
            <DistanceMeters>NAN</DistanceMeters>
          </Trackpoint>
          <Trackpoint>
            <Time>2022-07-14T17:24:58.000Z</Time>
            <Position>
              <LatitudeDegrees>43.38490976952016353607177734375</LatitudeDegrees>
              <LongitudeDegrees>-4.19024205766618251800537109375</LongitudeDegrees>
            </Position>
            <AltitudeMeters>93.40000152587890625</AltitudeMeters>
            <DistanceMeters>NAN</DistanceMeters>
          </Trackpoint>
          <Trackpoint>
            <Time>2022-07-14T17:25:03.000Z</Time>
            <Position>
              <LatitudeDegrees>43.38494069874286651611328125</LatitudeDegrees>
              <LongitudeDegrees>-4.1903593204915523529052734375</LongitudeDegrees>
            </Position>
            <AltitudeMeters>93.8000030517578125</AltitudeMeters>
            <DistanceMeters>NAN</DistanceMeters>
          </Trackpoint>
          <Trackpoint>
            <Time>2022-07-14T17:25:05.000Z</Time>
            <Position>
              <LatitudeDegrees>43.3849494159221649169921875</LatitudeDegrees>
              <LongitudeDegrees>-4.19039008207619190216064453125</LongitudeDegrees>
            </Position>
            <AltitudeMeters>94</AltitudeMeters>
            <DistanceMeters>NAN</DistanceMeters>
          </Trackpoint>
          <Trackpoint>
            <Time>2022-07-14T17:25:07.000Z</Time>
            <Position>
              <LatitudeDegrees>43.38495167903602123260498046875</LatitudeDegrees>
              <LongitudeDegrees>-4.19042780064046382904052734375</LongitudeDegrees>
            </Position>
            <AltitudeMeters>94.1999969482421875</AltitudeMeters>
            <DistanceMeters>NAN</DistanceMeters>
          </Trackpoint>
          <Trackpoint>
            <Time>2022-07-14T17:25:08.000Z</Time>
            <Position>
              <LatitudeDegrees>43.38494874536991119384765625</LatitudeDegrees>
              <LongitudeDegrees>-4.1904495097696781158447265625</LongitudeDegrees>
            </Position>
            <AltitudeMeters>94.1999969482421875</AltitudeMeters>
            <DistanceMeters>NAN</DistanceMeters>
          </Trackpoint>
          <Trackpoint>
            <Time>2022-07-14T17:25:09.000Z</Time>
            <Position>
              <LatitudeDegrees>43.38495570234954357147216796875</LatitudeDegrees>
              <LongitudeDegrees>-4.19047289527952671051025390625</LongitudeDegrees>
            </Position>
            <AltitudeMeters>94.1999969482421875</AltitudeMeters>
            <DistanceMeters>NAN</DistanceMeters>
          </Trackpoint>
          <Trackpoint>
            <Time>2022-07-14T17:25:10.000Z</Time>
            <Position>
              <LatitudeDegrees>43.38496492244303226470947265625</LatitudeDegrees>
              <LongitudeDegrees>-4.19049385003745555877685546875</LongitudeDegrees>
            </Position>
            <AltitudeMeters>94.40000152587890625</AltitudeMeters>
            <DistanceMeters>NAN</DistanceMeters>
          </Trackpoint>
          <Trackpoint>
            <Time>2022-07-14T17:25:13.000Z</Time>
            <Position>
              <LatitudeDegrees>43.38499174453318119049072265625</LatitudeDegrees>
              <LongitudeDegrees>-4.19056392274796962738037109375</LongitudeDegrees>
            </Position>
            <AltitudeMeters>94.59999847412109375</AltitudeMeters>
            <DistanceMeters>NAN</DistanceMeters>
          </Trackpoint>
          <Trackpoint>
            <Time>2022-07-14T17:25:21.000Z</Time>
            <Position>
              <LatitudeDegrees>43.38507757522165775299072265625</LatitudeDegrees>
              <LongitudeDegrees>-4.19073323719203472137451171875</LongitudeDegrees>
            </Position>
            <AltitudeMeters>95.1999969482421875</AltitudeMeters>
            <DistanceMeters>NAN</DistanceMeters>
          </Trackpoint>
          <Trackpoint>
            <Time>2022-07-14T17:25:22.000Z</Time>
            <Position>
              <LatitudeDegrees>43.38509350083768367767333984375</LatitudeDegrees>
              <LongitudeDegrees>-4.19075335375964641571044921875</LongitudeDegrees>
            </Position>
            <AltitudeMeters>95.40000152587890625</AltitudeMeters>
            <DistanceMeters>NAN</DistanceMeters>
          </Trackpoint>
          <Trackpoint>
            <Time>2022-07-14T17:25:30.000Z</Time>
            <Position>
              <LatitudeDegrees>43.3852268569171428680419921875</LatitudeDegrees>
              <LongitudeDegrees>-4.1908448003232479095458984375</LongitudeDegrees>
            </Position>
            <AltitudeMeters>96.1999969482421875</AltitudeMeters>
            <DistanceMeters>NAN</DistanceMeters>
          </Trackpoint>
          <Trackpoint>
            <Time>2022-07-14T17:25:32.000Z</Time>
            <Position>
              <LatitudeDegrees>43.38525342755019664764404296875</LatitudeDegrees>
              <LongitudeDegrees>-4.19086600653827190399169921875</LongitudeDegrees>
            </Position>
            <AltitudeMeters>96.40000152587890625</AltitudeMeters>
            <DistanceMeters>NAN</DistanceMeters>
          </Trackpoint>
          <Trackpoint>
            <Time>2022-07-14T17:25:39.000Z</Time>
            <Position>
              <LatitudeDegrees>43.38536054827272891998291015625</LatitudeDegrees>
              <LongitudeDegrees>-4.19093088246881961822509765625</LongitudeDegrees>
            </Position>
            <AltitudeMeters>97.1999969482421875</AltitudeMeters>
            <DistanceMeters>NAN</DistanceMeters>
          </Trackpoint>
          <Trackpoint>
            <Time>2022-07-14T17:25:42.000Z</Time>
            <Position>
              <LatitudeDegrees>43.38539692573249340057373046875</LatitudeDegrees>
              <LongitudeDegrees>-4.19097505509853363037109375</LongitudeDegrees>
            </Position>
            <AltitudeMeters>97.40000152587890625</AltitudeMeters>
            <DistanceMeters>NAN</DistanceMeters>
          </Trackpoint>
          <Trackpoint>
            <Time>2022-07-14T17:25:43.000Z</Time>
            <Position>
              <LatitudeDegrees>43.3854067325592041015625</LatitudeDegrees>
              <LongitudeDegrees>-4.19099458493292331695556640625</LongitudeDegrees>
            </Position>
            <AltitudeMeters>97.59999847412109375</AltitudeMeters>
            <DistanceMeters>NAN</DistanceMeters>
          </Trackpoint>
          <Trackpoint>
            <Time>2022-07-14T17:25:47.000Z</Time>
            <Position>
              <LatitudeDegrees>43.38543715886771678924560546875</LatitudeDegrees>
              <LongitudeDegrees>-4.19108343310654163360595703125</LongitudeDegrees>
            </Position>
            <AltitudeMeters>98</AltitudeMeters>
            <DistanceMeters>NAN</DistanceMeters>
          </Trackpoint>
          <Trackpoint>
            <Time>2022-07-14T17:25:55.000Z</Time>
            <Position>
              <LatitudeDegrees>43.38547320105135440826416015625</LatitudeDegrees>
              <LongitudeDegrees>-4.1912592016160488128662109375</LongitudeDegrees>
            </Position>
            <AltitudeMeters>98.59999847412109375</AltitudeMeters>
            <DistanceMeters>NAN</DistanceMeters>
          </Trackpoint>
          <Trackpoint>
            <Time>2022-07-14T17:25:57.000Z</Time>
            <Position>
              <LatitudeDegrees>43.38547437451779842376708984375</LatitudeDegrees>
              <LongitudeDegrees>-4.19130655936896800994873046875</LongitudeDegrees>
            </Position>
            <AltitudeMeters>98.8000030517578125</AltitudeMeters>
            <DistanceMeters>NAN</DistanceMeters>
          </Trackpoint>
          <Trackpoint>
            <Time>2022-07-14T17:26:02.000Z</Time>
            <Position>
              <LatitudeDegrees>43.385473452508449554443359375</LatitudeDegrees>
              <LongitudeDegrees>-4.19143061153590679168701171875</LongitudeDegrees>
            </Position>
            <AltitudeMeters>99.59999847412109375</AltitudeMeters>
            <DistanceMeters>NAN</DistanceMeters>
          </Trackpoint>
          <Trackpoint>
            <Time>2022-07-14T17:26:08.000Z</Time>
            <Position>
              <LatitudeDegrees>43.385470099747180938720703125</LatitudeDegrees>
              <LongitudeDegrees>-4.191592969000339508056640625</LongitudeDegrees>
            </Position>
            <AltitudeMeters>100</AltitudeMeters>
            <DistanceMeters>NAN</DistanceMeters>
          </Trackpoint>
          <Trackpoint>
            <Time>2022-07-14T17:26:12.000Z</Time>
            <Position>
              <LatitudeDegrees>43.38545543141663074493408203125</LatitudeDegrees>
              <LongitudeDegrees>-4.19169028289616107940673828125</LongitudeDegrees>
            </Position>
            <AltitudeMeters>100.59999847412109375</AltitudeMeters>
            <DistanceMeters>NAN</DistanceMeters>
          </Trackpoint>
          <Trackpoint>
            <Time>2022-07-14T17:26:18.000Z</Time>
            <Position>
              <LatitudeDegrees>43.3854384161531925201416015625</LatitudeDegrees>
              <LongitudeDegrees>-4.19182489626109600067138671875</LongitudeDegrees>
            </Position>
            <AltitudeMeters>101</AltitudeMeters>
            <DistanceMeters>NAN</DistanceMeters>
          </Trackpoint>
          <Trackpoint>
            <Time>2022-07-14T17:26:22.000Z</Time>
            <Position>
              <LatitudeDegrees>43.385427854955196380615234375</LatitudeDegrees>
              <LongitudeDegrees>-4.19193268753588199615478515625</LongitudeDegrees>
            </Position>
            <AltitudeMeters>101.59999847412109375</AltitudeMeters>
            <DistanceMeters>NAN</DistanceMeters>
          </Trackpoint>
          <Trackpoint>
            <Time>2022-07-14T17:26:30.000Z</Time>
            <Position>
              <LatitudeDegrees>43.38541268371045589447021484375</LatitudeDegrees>
              <LongitudeDegrees>-4.19216838665306568145751953125</LongitudeDegrees>
            </Position>
            <AltitudeMeters>102.1999969482421875</AltitudeMeters>
            <DistanceMeters>NAN</DistanceMeters>
          </Trackpoint>
          <Trackpoint>
            <Time>2022-07-14T17:26:36.000Z</Time>
            <Position>
              <LatitudeDegrees>43.38539340533316135406494140625</LatitudeDegrees>
              <LongitudeDegrees>-4.1923699714243412017822265625</LongitudeDegrees>
            </Position>
            <AltitudeMeters>102.59999847412109375</AltitudeMeters>
            <DistanceMeters>NAN</DistanceMeters>
          </Trackpoint>
          <Trackpoint>
            <Time>2022-07-14T17:26:38.000Z</Time>
            <Position>
              <LatitudeDegrees>43.38539575226604938507080078125</LatitudeDegrees>
              <LongitudeDegrees>-4.19243493117392063140869140625</LongitudeDegrees>
            </Position>
            <AltitudeMeters>102.59999847412109375</AltitudeMeters>
            <DistanceMeters>NAN</DistanceMeters>
          </Trackpoint>
          <Trackpoint>
            <Time>2022-07-14T17:26:40.000Z</Time>
            <Position>
              <LatitudeDegrees>43.38540094904601573944091796875</LatitudeDegrees>
              <LongitudeDegrees>-4.19250391423702239990234375</LongitudeDegrees>
            </Position>
            <AltitudeMeters>102.8000030517578125</AltitudeMeters>
            <DistanceMeters>NAN</DistanceMeters>
          </Trackpoint>
          <Trackpoint>
            <Time>2022-07-14T17:26:48.000Z</Time>
            <Position>
              <LatitudeDegrees>43.38545409031212329864501953125</LatitudeDegrees>
              <LongitudeDegrees>-4.1927786730229854583740234375</LongitudeDegrees>
            </Position>
            <AltitudeMeters>103.40000152587890625</AltitudeMeters>
            <DistanceMeters>NAN</DistanceMeters>
          </Trackpoint>
          <Trackpoint>
            <Time>2022-07-14T17:26:49.000Z</Time>
            <Position>
              <LatitudeDegrees>43.385462053120136260986328125</LatitudeDegrees>
              <LongitudeDegrees>-4.19281044043600559234619140625</LongitudeDegrees>
            </Position>
            <AltitudeMeters>103.40000152587890625</AltitudeMeters>
            <DistanceMeters>NAN</DistanceMeters>
          </Trackpoint>
          <Trackpoint>
            <Time>2022-07-14T17:26:54.000Z</Time>
            <Position>
              <LatitudeDegrees>43.38552785106003284454345703125</LatitudeDegrees>
              <LongitudeDegrees>-4.1929583810269832611083984375</LongitudeDegrees>
            </Position>
            <AltitudeMeters>103.8000030517578125</AltitudeMeters>
            <DistanceMeters>NAN</DistanceMeters>
          </Trackpoint>
          <Trackpoint>
            <Time>2022-07-14T17:26:57.000Z</Time>
            <Position>
              <LatitudeDegrees>43.38556791655719280242919921875</LatitudeDegrees>
              <LongitudeDegrees>-4.193032644689083099365234375</LongitudeDegrees>
            </Position>
            <AltitudeMeters>104</AltitudeMeters>
            <DistanceMeters>NAN</DistanceMeters>
          </Trackpoint>
          <Trackpoint>
            <Time>2022-07-14T17:27:06.000Z</Time>
            <Position>
              <LatitudeDegrees>43.38568710722029209136962890625</LatitudeDegrees>
              <LongitudeDegrees>-4.193245209753513336181640625</LongitudeDegrees>
            </Position>
            <AltitudeMeters>104.8000030517578125</AltitudeMeters>
            <DistanceMeters>NAN</DistanceMeters>
          </Trackpoint>
          <Trackpoint>
            <Time>2022-07-14T17:27:07.000Z</Time>
            <Position>
              <LatitudeDegrees>43.385698758065700531005859375</LatitudeDegrees>
              <LongitudeDegrees>-4.19326909817755222320556640625</LongitudeDegrees>
            </Position>
            <AltitudeMeters>105</AltitudeMeters>
            <DistanceMeters>NAN</DistanceMeters>
          </Trackpoint>
          <Trackpoint>
            <Time>2022-07-14T17:27:16.000Z</Time>
            <Position>
              <LatitudeDegrees>43.38577344082295894622802734375</LatitudeDegrees>
              <LongitudeDegrees>-4.1935162805020809173583984375</LongitudeDegrees>
            </Position>
            <AltitudeMeters>105.40000152587890625</AltitudeMeters>
            <DistanceMeters>NAN</DistanceMeters>
          </Trackpoint>
          <Trackpoint>
            <Time>2022-07-14T17:27:19.000Z</Time>
            <Position>
              <LatitudeDegrees>43.385771177709102630615234375</LatitudeDegrees>
              <LongitudeDegrees>-4.19361828826367855072021484375</LongitudeDegrees>
            </Position>
            <AltitudeMeters>105.8000030517578125</AltitudeMeters>
            <DistanceMeters>NAN</DistanceMeters>
          </Trackpoint>
          <Trackpoint>
            <Time>2022-07-14T17:27:26.000Z</Time>
            <Position>
              <LatitudeDegrees>43.38576254434883594512939453125</LatitudeDegrees>
              <LongitudeDegrees>-4.1938354633748531341552734375</LongitudeDegrees>
            </Position>
            <AltitudeMeters>106.40000152587890625</AltitudeMeters>
            <DistanceMeters>NAN</DistanceMeters>
          </Trackpoint>
          <Trackpoint>
            <Time>2022-07-14T17:27:33.000Z</Time>
            <Position>
              <LatitudeDegrees>43.38576053269207477569580078125</LatitudeDegrees>
              <LongitudeDegrees>-4.194045178592205047607421875</LongitudeDegrees>
            </Position>
            <AltitudeMeters>107</AltitudeMeters>
            <DistanceMeters>NAN</DistanceMeters>
          </Trackpoint>
          <Trackpoint>
            <Time>2022-07-14T17:27:34.000Z</Time>
            <Position>
              <LatitudeDegrees>43.38575935922563076019287109375</LatitudeDegrees>
              <LongitudeDegrees>-4.19407376088201999664306640625</LongitudeDegrees>
            </Position>
            <AltitudeMeters>107</AltitudeMeters>
            <DistanceMeters>NAN</DistanceMeters>
          </Trackpoint>
          <Trackpoint>
            <Time>2022-07-14T17:27:40.000Z</Time>
            <Position>
              <LatitudeDegrees>43.385732285678386688232421875</LatitudeDegrees>
              <LongitudeDegrees>-4.19423754326999187469482421875</LongitudeDegrees>
            </Position>
            <AltitudeMeters>107.40000152587890625</AltitudeMeters>
            <DistanceMeters>NAN</DistanceMeters>
          </Trackpoint>
          <Trackpoint>
            <Time>2022-07-14T17:27:43.000Z</Time>
            <Position>
              <LatitudeDegrees>43.3857321180403232574462890625</LatitudeDegrees>
              <LongitudeDegrees>-4.194318763911724090576171875</LongitudeDegrees>
            </Position>
            <AltitudeMeters>107.8000030517578125</AltitudeMeters>
            <DistanceMeters>NAN</DistanceMeters>
          </Trackpoint>
          <Trackpoint>
            <Time>2022-07-14T17:27:46.000Z</Time>
            <Position>
              <LatitudeDegrees>43.38572046719491481781005859375</LatitudeDegrees>
              <LongitudeDegrees>-4.19437902979552745819091796875</LongitudeDegrees>
            </Position>
            <AltitudeMeters>108</AltitudeMeters>
            <DistanceMeters>NAN</DistanceMeters>
          </Trackpoint>
          <Trackpoint>
            <Time>2022-07-14T17:27:50.000Z</Time>
            <Position>
              <LatitudeDegrees>43.385702781379222869873046875</LatitudeDegrees>
              <LongitudeDegrees>-4.1944667883217334747314453125</LongitudeDegrees>
            </Position>
            <AltitudeMeters>108.40000152587890625</AltitudeMeters>
            <DistanceMeters>NAN</DistanceMeters>
          </Trackpoint>
          <Trackpoint>
            <Time>2022-07-14T17:27:51.000Z</Time>
            <Position>
              <LatitudeDegrees>43.3856959082186222076416015625</LatitudeDegrees>
              <LongitudeDegrees>-4.19449553824961185455322265625</LongitudeDegrees>
            </Position>
            <AltitudeMeters>108.40000152587890625</AltitudeMeters>
            <DistanceMeters>NAN</DistanceMeters>
          </Trackpoint>
          <Trackpoint>
            <Time>2022-07-14T17:27:53.000Z</Time>
            <Position>
              <LatitudeDegrees>43.385695405304431915283203125</LatitudeDegrees>
              <LongitudeDegrees>-4.1945564746856689453125</LongitudeDegrees>
            </Position>
            <AltitudeMeters>108.8000030517578125</AltitudeMeters>
            <DistanceMeters>NAN</DistanceMeters>
          </Trackpoint>
          <Trackpoint>
            <Time>2022-07-14T17:27:58.000Z</Time>
            <Position>
              <LatitudeDegrees>43.38568844832479953765869140625</LatitudeDegrees>
              <LongitudeDegrees>-4.1946686245501041412353515625</LongitudeDegrees>
            </Position>
            <AltitudeMeters>109</AltitudeMeters>
            <DistanceMeters>NAN</DistanceMeters>
          </Trackpoint>
          <Trackpoint>
            <Time>2022-07-14T17:28:00.000Z</Time>
            <Position>
              <LatitudeDegrees>43.38568501174449920654296875</LatitudeDegrees>
              <LongitudeDegrees>-4.19472905807197093963623046875</LongitudeDegrees>
            </Position>
            <AltitudeMeters>109.1999969482421875</AltitudeMeters>
            <DistanceMeters>NAN</DistanceMeters>
          </Trackpoint>
          <Trackpoint>
            <Time>2022-07-14T17:28:05.000Z</Time>
            <Position>
              <LatitudeDegrees>43.3856576867401599884033203125</LatitudeDegrees>
              <LongitudeDegrees>-4.1948889009654521942138671875</LongitudeDegrees>
            </Position>
            <AltitudeMeters>109.59999847412109375</AltitudeMeters>
            <DistanceMeters>NAN</DistanceMeters>
          </Trackpoint>
          <Trackpoint>
            <Time>2022-07-14T17:28:07.000Z</Time>
            <Position>
              <LatitudeDegrees>43.38564653880894184112548828125</LatitudeDegrees>
              <LongitudeDegrees>-4.19493592344224452972412109375</LongitudeDegrees>
            </Position>
            <AltitudeMeters>109.8000030517578125</AltitudeMeters>
            <DistanceMeters>NAN</DistanceMeters>
          </Trackpoint>
          <Trackpoint>
            <Time>2022-07-14T17:28:09.000Z</Time>
            <Position>
              <LatitudeDegrees>43.3856362290680408477783203125</LatitudeDegrees>
              <LongitudeDegrees>-4.19499509967863559722900390625</LongitudeDegrees>
            </Position>
            <AltitudeMeters>110.1999969482421875</AltitudeMeters>
            <DistanceMeters>NAN</DistanceMeters>
          </Trackpoint>
          <Trackpoint>
            <Time>2022-07-14T17:28:14.000Z</Time>
            <Position>
              <LatitudeDegrees>43.38557235896587371826171875</LatitudeDegrees>
              <LongitudeDegrees>-4.19511797837913036346435546875</LongitudeDegrees>
            </Position>
            <AltitudeMeters>110.59999847412109375</AltitudeMeters>
            <DistanceMeters>NAN</DistanceMeters>
          </Trackpoint>
          <Trackpoint>
            <Time>2022-07-14T17:28:20.000Z</Time>
            <Position>
              <LatitudeDegrees>43.38554109446704387664794921875</LatitudeDegrees>
              <LongitudeDegrees>-4.1952617280185222625732421875</LongitudeDegrees>
            </Position>
            <AltitudeMeters>111.1999969482421875</AltitudeMeters>
            <DistanceMeters>NAN</DistanceMeters>
          </Trackpoint>
          <Trackpoint>
            <Time>2022-07-14T17:28:21.000Z</Time>
            <Position>
              <LatitudeDegrees>43.38553455658257007598876953125</LatitudeDegrees>
              <LongitudeDegrees>-4.19528276659548282623291015625</LongitudeDegrees>
            </Position>
            <AltitudeMeters>111.1999969482421875</AltitudeMeters>
            <DistanceMeters>NAN</DistanceMeters>
          </Trackpoint>
          <Trackpoint>
            <Time>2022-07-14T17:28:25.000Z</Time>
            <Position>
              <LatitudeDegrees>43.38551108725368976593017578125</LatitudeDegrees>
              <LongitudeDegrees>-4.19536910019814968109130859375</LongitudeDegrees>
            </Position>
            <AltitudeMeters>111.59999847412109375</AltitudeMeters>
            <DistanceMeters>NAN</DistanceMeters>
          </Trackpoint>
          <Trackpoint>
            <Time>2022-07-14T17:28:30.000Z</Time>
            <Position>
              <LatitudeDegrees>43.3854659087955951690673828125</LatitudeDegrees>
              <LongitudeDegrees>-4.19550597667694091796875</LongitudeDegrees>
            </Position>
            <AltitudeMeters>112</AltitudeMeters>
            <DistanceMeters>NAN</DistanceMeters>
          </Trackpoint>
          <Trackpoint>
            <Time>2022-07-14T17:28:32.000Z</Time>
            <Position>
              <LatitudeDegrees>43.38545576669275760650634765625</LatitudeDegrees>
              <LongitudeDegrees>-4.19555936940014362335205078125</LongitudeDegrees>
            </Position>
            <AltitudeMeters>112.1999969482421875</AltitudeMeters>
            <DistanceMeters>NAN</DistanceMeters>
          </Trackpoint>
          <Trackpoint>
            <Time>2022-07-14T17:28:33.000Z</Time>
            <Position>
              <LatitudeDegrees>43.385444618761539459228515625</LatitudeDegrees>
              <LongitudeDegrees>-4.19558082707226276397705078125</LongitudeDegrees>
            </Position>
            <AltitudeMeters>112.1999969482421875</AltitudeMeters>
            <DistanceMeters>NAN</DistanceMeters>
          </Trackpoint>
          <Trackpoint>
            <Time>2022-07-14T17:28:36.000Z</Time>
            <Position>
              <LatitudeDegrees>43.38540346361696720123291015625</LatitudeDegrees>
              <LongitudeDegrees>-4.195663891732692718505859375</LongitudeDegrees>
            </Position>
            <AltitudeMeters>112.40000152587890625</AltitudeMeters>
            <DistanceMeters>NAN</DistanceMeters>
          </Trackpoint>
          <Trackpoint>
            <Time>2022-07-14T17:28:44.000Z</Time>
            <Position>
              <LatitudeDegrees>43.38535199873149394989013671875</LatitudeDegrees>
              <LongitudeDegrees>-4.1958860121667385101318359375</LongitudeDegrees>
            </Position>
            <AltitudeMeters>113</AltitudeMeters>
            <DistanceMeters>NAN</DistanceMeters>
          </Trackpoint>
          <Trackpoint>
            <Time>2022-07-14T17:28:49.000Z</Time>
            <Position>
              <LatitudeDegrees>43.38531796820461750030517578125</LatitudeDegrees>
              <LongitudeDegrees>-4.1960901953279972076416015625</LongitudeDegrees>
            </Position>
            <AltitudeMeters>113.1999969482421875</AltitudeMeters>
            <DistanceMeters>NAN</DistanceMeters>
          </Trackpoint>
          <Trackpoint>
            <Time>2022-07-14T17:28:51.000Z</Time>
            <Position>
              <LatitudeDegrees>43.38530438952147960662841796875</LatitudeDegrees>
              <LongitudeDegrees>-4.19613386504352092742919921875</LongitudeDegrees>
            </Position>
            <AltitudeMeters>113.59999847412109375</AltitudeMeters>
            <DistanceMeters>NAN</DistanceMeters>
          </Trackpoint>
          <Trackpoint>
            <Time>2022-07-14T17:28:54.000Z</Time>
            <Position>
              <LatitudeDegrees>43.385270275175571441650390625</LatitudeDegrees>
              <LongitudeDegrees>-4.19619102962315082550048828125</LongitudeDegrees>
            </Position>
            <AltitudeMeters>113.8000030517578125</AltitudeMeters>
            <DistanceMeters>NAN</DistanceMeters>
          </Trackpoint>
          <Trackpoint>
            <Time>2022-07-14T17:28:58.000Z</Time>
            <Position>
              <LatitudeDegrees>43.385236747562885284423828125</LatitudeDegrees>
              <LongitudeDegrees>-4.19629597105085849761962890625</LongitudeDegrees>
            </Position>
            <AltitudeMeters>114.1999969482421875</AltitudeMeters>
            <DistanceMeters>NAN</DistanceMeters>
          </Trackpoint>
          <Trackpoint>
            <Time>2022-07-14T17:28:59.000Z</Time>
            <Position>
              <LatitudeDegrees>43.3852281980216503143310546875</LatitudeDegrees>
              <LongitudeDegrees>-4.1963228769600391387939453125</LongitudeDegrees>
            </Position>
            <AltitudeMeters>114.40000152587890625</AltitudeMeters>
            <DistanceMeters>NAN</DistanceMeters>
          </Trackpoint>
          <Trackpoint>
            <Time>2022-07-14T17:29:03.000Z</Time>
            <Position>
              <LatitudeDegrees>43.38520581834018230438232421875</LatitudeDegrees>
              <LongitudeDegrees>-4.19642656110227108001708984375</LongitudeDegrees>
            </Position>
            <AltitudeMeters>114.59999847412109375</AltitudeMeters>
            <DistanceMeters>NAN</DistanceMeters>
          </Trackpoint>
          <Trackpoint>
            <Time>2022-07-14T17:29:04.000Z</Time>
            <Position>
              <LatitudeDegrees>43.38519743643701076507568359375</LatitudeDegrees>
              <LongitudeDegrees>-4.19644919224083423614501953125</LongitudeDegrees>
            </Position>
            <AltitudeMeters>114.8000030517578125</AltitudeMeters>
            <DistanceMeters>NAN</DistanceMeters>
          </Trackpoint>
          <Trackpoint>
            <Time>2022-07-14T17:29:07.000Z</Time>
            <Position>
              <LatitudeDegrees>43.38518151082098484039306640625</LatitudeDegrees>
              <LongitudeDegrees>-4.19650099240243434906005859375</LongitudeDegrees>
            </Position>
            <AltitudeMeters>115</AltitudeMeters>
            <DistanceMeters>NAN</DistanceMeters>
          </Trackpoint>
          <Trackpoint>
            <Time>2022-07-14T17:29:08.000Z</Time>
            <Position>
              <LatitudeDegrees>43.38517748750746250152587890625</LatitudeDegrees>
              <LongitudeDegrees>-4.19650400988757610321044921875</LongitudeDegrees>
            </Position>
            <AltitudeMeters>115</AltitudeMeters>
            <DistanceMeters>NAN</DistanceMeters>
          </Trackpoint>
          <Trackpoint>
            <Time>2022-07-14T17:29:11.000Z</Time>
            <Position>
              <LatitudeDegrees>43.38516063988208770751953125</LatitudeDegrees>
              <LongitudeDegrees>-4.196563772857189178466796875</LongitudeDegrees>
            </Position>
            <AltitudeMeters>115.40000152587890625</AltitudeMeters>
            <DistanceMeters>NAN</DistanceMeters>
          </Trackpoint>
          <Trackpoint>
            <Time>2022-07-14T17:29:15.000Z</Time>
            <Position>
              <LatitudeDegrees>43.38514312170445919036865234375</LatitudeDegrees>
              <LongitudeDegrees>-4.196672737598419189453125</LongitudeDegrees>
            </Position>
            <AltitudeMeters>115.8000030517578125</AltitudeMeters>
            <DistanceMeters>NAN</DistanceMeters>
          </Trackpoint>
          <Trackpoint>
            <Time>2022-07-14T17:29:19.000Z</Time>
            <Position>
              <LatitudeDegrees>43.3851182274520397186279296875</LatitudeDegrees>
              <LongitudeDegrees>-4.19679100625216960906982421875</LongitudeDegrees>
            </Position>
            <AltitudeMeters>116.1999969482421875</AltitudeMeters>
            <DistanceMeters>NAN</DistanceMeters>
          </Trackpoint>
          <Trackpoint>
            <Time>2022-07-14T17:29:22.000Z</Time>
            <Position>
              <LatitudeDegrees>43.3851138688623905181884765625</LatitudeDegrees>
              <LongitudeDegrees>-4.19688035733997821807861328125</LongitudeDegrees>
            </Position>
            <AltitudeMeters>116.40000152587890625</AltitudeMeters>
            <DistanceMeters>NAN</DistanceMeters>
          </Trackpoint>
          <Trackpoint>
            <Time>2022-07-14T17:29:24.000Z</Time>
            <Position>
              <LatitudeDegrees>43.38511101901531219482421875</LatitudeDegrees>
              <LongitudeDegrees>-4.19692696072161197662353515625</LongitudeDegrees>
            </Position>
            <AltitudeMeters>116.59999847412109375</AltitudeMeters>
            <DistanceMeters>NAN</DistanceMeters>
          </Trackpoint>
          <Trackpoint>
            <Time>2022-07-14T17:29:30.000Z</Time>
            <Position>
              <LatitudeDegrees>43.38510892353951930999755859375</LatitudeDegrees>
              <LongitudeDegrees>-4.1971010528504848480224609375</LongitudeDegrees>
            </Position>
            <AltitudeMeters>117.1999969482421875</AltitudeMeters>
            <DistanceMeters>NAN</DistanceMeters>
          </Trackpoint>
          <Trackpoint>
            <Time>2022-07-14T17:29:35.000Z</Time>
            <Position>
              <LatitudeDegrees>43.38509626686573028564453125</LatitudeDegrees>
              <LongitudeDegrees>-4.197223596274852752685546875</LongitudeDegrees>
            </Position>
            <AltitudeMeters>117.59999847412109375</AltitudeMeters>
            <DistanceMeters>NAN</DistanceMeters>
          </Trackpoint>
          <Trackpoint>
            <Time>2022-07-14T17:29:38.000Z</Time>
            <Position>
              <LatitudeDegrees>43.3850793354213237762451171875</LatitudeDegrees>
              <LongitudeDegrees>-4.19729299843311309814453125</LongitudeDegrees>
            </Position>
            <AltitudeMeters>117.8000030517578125</AltitudeMeters>
            <DistanceMeters>NAN</DistanceMeters>
          </Trackpoint>
          <Trackpoint>
            <Time>2022-07-14T17:29:41.000Z</Time>
            <Position>
              <LatitudeDegrees>43.38505737483501434326171875</LatitudeDegrees>
              <LongitudeDegrees>-4.19737287797033786773681640625</LongitudeDegrees>
            </Position>
            <AltitudeMeters>118</AltitudeMeters>
            <DistanceMeters>NAN</DistanceMeters>
          </Trackpoint>
          <Trackpoint>
            <Time>2022-07-14T17:29:45.000Z</Time>
            <Position>
              <LatitudeDegrees>43.3850444667041301727294921875</LatitudeDegrees>
              <LongitudeDegrees>-4.19746189378201961517333984375</LongitudeDegrees>
            </Position>
            <AltitudeMeters>118.40000152587890625</AltitudeMeters>
            <DistanceMeters>NAN</DistanceMeters>
          </Trackpoint>
          <Trackpoint>
            <Time>2022-07-14T17:29:47.000Z</Time>
            <Position>
              <LatitudeDegrees>43.38503750972449779510498046875</LatitudeDegrees>
              <LongitudeDegrees>-4.197507910430431365966796875</LongitudeDegrees>
            </Position>
            <AltitudeMeters>118.59999847412109375</AltitudeMeters>
            <DistanceMeters>NAN</DistanceMeters>
          </Trackpoint>
          <Trackpoint>
            <Time>2022-07-14T17:29:53.000Z</Time>
            <Position>
              <LatitudeDegrees>43.38502795435488224029541015625</LatitudeDegrees>
              <LongitudeDegrees>-4.1976423561573028564453125</LongitudeDegrees>
            </Position>
            <AltitudeMeters>119.1999969482421875</AltitudeMeters>
            <DistanceMeters>NAN</DistanceMeters>
          </Trackpoint>
          <Trackpoint>
            <Time>2022-07-14T17:29:59.000Z</Time>
            <Position>
              <LatitudeDegrees>43.38500230573117733001708984375</LatitudeDegrees>
              <LongitudeDegrees>-4.197792224586009979248046875</LongitudeDegrees>
            </Position>
            <AltitudeMeters>119.59999847412109375</AltitudeMeters>
            <DistanceMeters>NAN</DistanceMeters>
          </Trackpoint>
          <Trackpoint>
            <Time>2022-07-14T17:30:01.000Z</Time>
            <Position>
              <LatitudeDegrees>43.3849951811134815216064453125</LatitudeDegrees>
              <LongitudeDegrees>-4.19784360565245151519775390625</LongitudeDegrees>
            </Position>
            <AltitudeMeters>119.8000030517578125</AltitudeMeters>
            <DistanceMeters>NAN</DistanceMeters>
          </Trackpoint>
          <Trackpoint>
            <Time>2022-07-14T17:30:11.000Z</Time>
            <Position>
              <LatitudeDegrees>43.38498587720096111297607421875</LatitudeDegrees>
              <LongitudeDegrees>-4.19810880906879901885986328125</LongitudeDegrees>
            </Position>
            <AltitudeMeters>120.59999847412109375</AltitudeMeters>
            <DistanceMeters>NAN</DistanceMeters>
          </Trackpoint>
          <Trackpoint>
            <Time>2022-07-14T17:30:12.000Z</Time>
            <Position>
              <LatitudeDegrees>43.38498537428677082061767578125</LatitudeDegrees>
              <LongitudeDegrees>-4.19813814572989940643310546875</LongitudeDegrees>
            </Position>
            <AltitudeMeters>120.8000030517578125</AltitudeMeters>
            <DistanceMeters>NAN</DistanceMeters>
          </Trackpoint>
          <Trackpoint>
            <Time>2022-07-14T17:30:19.000Z</Time>
            <Position>
              <LatitudeDegrees>43.38495871983468532562255859375</LatitudeDegrees>
              <LongitudeDegrees>-4.1983258165419101715087890625</LongitudeDegrees>
            </Position>
            <AltitudeMeters>121.1999969482421875</AltitudeMeters>
            <DistanceMeters>NAN</DistanceMeters>
          </Trackpoint>
          <Trackpoint>
            <Time>2022-07-14T17:30:24.000Z</Time>
            <Position>
              <LatitudeDegrees>43.38494966737926006317138671875</LatitudeDegrees>
              <LongitudeDegrees>-4.19845716096460819244384765625</LongitudeDegrees>
            </Position>
            <AltitudeMeters>122</AltitudeMeters>
            <DistanceMeters>NAN</DistanceMeters>
          </Trackpoint>
          <Trackpoint>
            <Time>2022-07-14T17:30:27.000Z</Time>
            <Position>
              <LatitudeDegrees>43.3849494159221649169921875</LatitudeDegrees>
              <LongitudeDegrees>-4.198541231453418731689453125</LongitudeDegrees>
            </Position>
            <AltitudeMeters>122.1999969482421875</AltitudeMeters>
            <DistanceMeters>NAN</DistanceMeters>
          </Trackpoint>
          <Trackpoint>
            <Time>2022-07-14T17:30:36.000Z</Time>
            <Position>
              <LatitudeDegrees>43.38495302014052867889404296875</LatitudeDegrees>
              <LongitudeDegrees>-4.19879612512886524200439453125</LongitudeDegrees>
            </Position>
            <AltitudeMeters>122.8000030517578125</AltitudeMeters>
            <DistanceMeters>NAN</DistanceMeters>
          </Trackpoint>
          <Trackpoint>
            <Time>2022-07-14T17:30:40.000Z</Time>
            <Position>
              <LatitudeDegrees>43.384958468377590179443359375</LatitudeDegrees>
              <LongitudeDegrees>-4.1989323310554027557373046875</LongitudeDegrees>
            </Position>
            <AltitudeMeters>123</AltitudeMeters>
            <DistanceMeters>NAN</DistanceMeters>
          </Trackpoint>
          <Trackpoint>
            <Time>2022-07-14T17:30:46.000Z</Time>
            <Position>
              <LatitudeDegrees>43.38496291078627109527587890625</LatitudeDegrees>
              <LongitudeDegrees>-4.19917515479028224945068359375</LongitudeDegrees>
            </Position>
            <AltitudeMeters>123</AltitudeMeters>
            <DistanceMeters>NAN</DistanceMeters>
          </Trackpoint>
          <Trackpoint>
            <Time>2022-07-14T17:30:53.000Z</Time>
            <Position>
              <LatitudeDegrees>43.3849787525832653045654296875</LatitudeDegrees>
              <LongitudeDegrees>-4.19947355054318904876708984375</LongitudeDegrees>
            </Position>
            <AltitudeMeters>123.1999969482421875</AltitudeMeters>
            <DistanceMeters>NAN</DistanceMeters>
          </Trackpoint>
          <Trackpoint>
            <Time>2022-07-14T17:30:55.000Z</Time>
            <Position>
              <LatitudeDegrees>43.38498587720096111297607421875</LatitudeDegrees>
              <LongitudeDegrees>-4.1995529271662235260009765625</LongitudeDegrees>
            </Position>
            <AltitudeMeters>123</AltitudeMeters>
            <DistanceMeters>NAN</DistanceMeters>
          </Trackpoint>
          <Trackpoint>
            <Time>2022-07-14T17:31:01.000Z</Time>
            <Position>
              <LatitudeDegrees>43.3849762380123138427734375</LatitudeDegrees>
              <LongitudeDegrees>-4.19976457022130489349365234375</LongitudeDegrees>
            </Position>
            <AltitudeMeters>123</AltitudeMeters>
            <DistanceMeters>NAN</DistanceMeters>
          </Trackpoint>
          <Trackpoint>
            <Time>2022-07-14T17:31:08.000Z</Time>
            <Position>
              <LatitudeDegrees>43.3849173970520496368408203125</LatitudeDegrees>
              <LongitudeDegrees>-4.20003597624599933624267578125</LongitudeDegrees>
            </Position>
            <AltitudeMeters>123</AltitudeMeters>
            <DistanceMeters>NAN</DistanceMeters>
          </Trackpoint>
          <Trackpoint>
            <Time>2022-07-14T17:31:15.000Z</Time>
            <Position>
              <LatitudeDegrees>43.3848483301699161529541015625</LatitudeDegrees>
              <LongitudeDegrees>-4.20030243694782257080078125</LongitudeDegrees>
            </Position>
            <AltitudeMeters>123</AltitudeMeters>
            <DistanceMeters>NAN</DistanceMeters>
          </Trackpoint>
          <Trackpoint>
            <Time>2022-07-14T17:31:19.000Z</Time>
            <Position>
              <LatitudeDegrees>43.38481622748076915740966796875</LatitudeDegrees>
              <LongitudeDegrees>-4.20047770254313945770263671875</LongitudeDegrees>
            </Position>
            <AltitudeMeters>123</AltitudeMeters>
            <DistanceMeters>NAN</DistanceMeters>
          </Trackpoint>
          <Trackpoint>
            <Time>2022-07-14T17:31:25.000Z</Time>
            <Position>
              <LatitudeDegrees>43.38474355638027191162109375</LatitudeDegrees>
              <LongitudeDegrees>-4.2007683031260967254638671875</LongitudeDegrees>
            </Position>
            <AltitudeMeters>123.1999969482421875</AltitudeMeters>
            <DistanceMeters>NAN</DistanceMeters>
          </Trackpoint>
          <Trackpoint>
            <Time>2022-07-14T17:31:30.000Z</Time>
            <Position>
              <LatitudeDegrees>43.38467541150748729705810546875</LatitudeDegrees>
              <LongitudeDegrees>-4.20102839358150959014892578125</LongitudeDegrees>
            </Position>
            <AltitudeMeters>123.40000152587890625</AltitudeMeters>
            <DistanceMeters>NAN</DistanceMeters>
          </Trackpoint>
          <Trackpoint>
            <Time>2022-07-14T17:31:32.000Z</Time>
            <Position>
              <LatitudeDegrees>43.3846490085124969482421875</LatitudeDegrees>
              <LongitudeDegrees>-4.2011300660669803619384765625</LongitudeDegrees>
            </Position>
            <AltitudeMeters>123.40000152587890625</AltitudeMeters>
            <DistanceMeters>NAN</DistanceMeters>
          </Trackpoint>
          <Trackpoint>
            <Time>2022-07-14T17:31:37.000Z</Time>
            <Position>
              <LatitudeDegrees>43.38459762744605541229248046875</LatitudeDegrees>
              <LongitudeDegrees>-4.20137532055377960205078125</LongitudeDegrees>
            </Position>
            <AltitudeMeters>123</AltitudeMeters>
            <DistanceMeters>NAN</DistanceMeters>
          </Trackpoint>
          <Trackpoint>
            <Time>2022-07-14T17:31:40.000Z</Time>
            <Position>
              <LatitudeDegrees>43.384564854204654693603515625</LatitudeDegrees>
              <LongitudeDegrees>-4.2015042342245578765869140625</LongitudeDegrees>
            </Position>
            <AltitudeMeters>123</AltitudeMeters>
            <DistanceMeters>NAN</DistanceMeters>
          </Trackpoint>
          <Trackpoint>
            <Time>2022-07-14T17:31:47.000Z</Time>
            <Position>
              <LatitudeDegrees>43.38450215756893157958984375</LatitudeDegrees>
              <LongitudeDegrees>-4.20177605934441089630126953125</LongitudeDegrees>
            </Position>
            <AltitudeMeters>123</AltitudeMeters>
            <DistanceMeters>NAN</DistanceMeters>
          </Trackpoint>
          <Trackpoint>
            <Time>2022-07-14T17:31:56.000Z</Time>
            <Position>
              <LatitudeDegrees>43.384426049888134002685546875</LatitudeDegrees>
              <LongitudeDegrees>-4.2021377384662628173828125</LongitudeDegrees>
            </Position>
            <AltitudeMeters>123.40000152587890625</AltitudeMeters>
            <DistanceMeters>NAN</DistanceMeters>
          </Trackpoint>
          <Trackpoint>
            <Time>2022-07-14T17:32:03.000Z</Time>
            <Position>
              <LatitudeDegrees>43.38434197939932346343994140625</LatitudeDegrees>
              <LongitudeDegrees>-4.20244443230330944061279296875</LongitudeDegrees>
            </Position>
            <AltitudeMeters>123.40000152587890625</AltitudeMeters>
            <DistanceMeters>NAN</DistanceMeters>
          </Trackpoint>
          <Trackpoint>
            <Time>2022-07-14T17:32:04.000Z</Time>
            <Position>
              <LatitudeDegrees>43.3843276463449001312255859375</LatitudeDegrees>
              <LongitudeDegrees>-4.20248801819980144500732421875</LongitudeDegrees>
            </Position>
            <AltitudeMeters>123.40000152587890625</AltitudeMeters>
            <DistanceMeters>NAN</DistanceMeters>
          </Trackpoint>
          <Trackpoint>
            <Time>2022-07-14T17:32:11.000Z</Time>
            <Position>
              <LatitudeDegrees>43.384227566421031951904296875</LatitudeDegrees>
              <LongitudeDegrees>-4.20282748527824878692626953125</LongitudeDegrees>
            </Position>
            <AltitudeMeters>123.1999969482421875</AltitudeMeters>
            <DistanceMeters>NAN</DistanceMeters>
          </Trackpoint>
          <Trackpoint>
            <Time>2022-07-14T17:32:14.000Z</Time>
            <Position>
              <LatitudeDegrees>43.38415212929248809814453125</LatitudeDegrees>
              <LongitudeDegrees>-4.20296746306121349334716796875</LongitudeDegrees>
            </Position>
            <AltitudeMeters>123</AltitudeMeters>
            <DistanceMeters>NAN</DistanceMeters>
          </Trackpoint>
          <Trackpoint>
            <Time>2022-07-14T17:32:17.000Z</Time>
            <Position>
              <LatitudeDegrees>43.38405397720634937286376953125</LatitudeDegrees>
              <LongitudeDegrees>-4.20311029069125652313232421875</LongitudeDegrees>
            </Position>
            <AltitudeMeters>122.59999847412109375</AltitudeMeters>
            <DistanceMeters>NAN</DistanceMeters>
          </Trackpoint>
          <Trackpoint>
            <Time>2022-07-14T17:32:24.000Z</Time>
            <Position>
              <LatitudeDegrees>43.38377200998365879058837890625</LatitudeDegrees>
              <LongitudeDegrees>-4.203442633152008056640625</LongitudeDegrees>
            </Position>
            <AltitudeMeters>122</AltitudeMeters>
            <DistanceMeters>NAN</DistanceMeters>
          </Trackpoint>
          <Trackpoint>
            <Time>2022-07-14T17:32:27.000Z</Time>
            <Position>
              <LatitudeDegrees>43.3836483769118785858154296875</LatitudeDegrees>
              <LongitudeDegrees>-4.20358370058238506317138671875</LongitudeDegrees>
            </Position>
            <AltitudeMeters>122</AltitudeMeters>
            <DistanceMeters>NAN</DistanceMeters>
          </Trackpoint>
          <Trackpoint>
            <Time>2022-07-14T17:32:31.000Z</Time>
            <Position>
              <LatitudeDegrees>43.383498005568981170654296875</LatitudeDegrees>
              <LongitudeDegrees>-4.20374848879873752593994140625</LongitudeDegrees>
            </Position>
            <AltitudeMeters>121.8000030517578125</AltitudeMeters>
            <DistanceMeters>NAN</DistanceMeters>
          </Trackpoint>
          <Trackpoint>
            <Time>2022-07-14T17:32:33.000Z</Time>
            <Position>
              <LatitudeDegrees>43.38343706913292407989501953125</LatitudeDegrees>
              <LongitudeDegrees>-4.20383012853562831878662109375</LongitudeDegrees>
            </Position>
            <AltitudeMeters>121.8000030517578125</AltitudeMeters>
            <DistanceMeters>NAN</DistanceMeters>
          </Trackpoint>
          <Trackpoint>
            <Time>2022-07-14T17:32:35.000Z</Time>
            <Position>
              <LatitudeDegrees>43.383371271193027496337890625</LatitudeDegrees>
              <LongitudeDegrees>-4.2039158754050731658935546875</LongitudeDegrees>
            </Position>
            <AltitudeMeters>121.8000030517578125</AltitudeMeters>
            <DistanceMeters>NAN</DistanceMeters>
          </Trackpoint>
          <Trackpoint>
            <Time>2022-07-14T17:32:37.000Z</Time>
            <Position>
              <LatitudeDegrees>43.383310250937938690185546875</LatitudeDegrees>
              <LongitudeDegrees>-4.20400681905448436737060546875</LongitudeDegrees>
            </Position>
            <AltitudeMeters>121.8000030517578125</AltitudeMeters>
            <DistanceMeters>NAN</DistanceMeters>
          </Trackpoint>
          <Trackpoint>
            <Time>2022-07-14T17:32:41.000Z</Time>
            <Position>
              <LatitudeDegrees>43.38321696035563945770263671875</LatitudeDegrees>
              <LongitudeDegrees>-4.20419172383844852447509765625</LongitudeDegrees>
            </Position>
            <AltitudeMeters>121.8000030517578125</AltitudeMeters>
            <DistanceMeters>NAN</DistanceMeters>
          </Trackpoint>
          <Trackpoint>
            <Time>2022-07-14T17:32:48.000Z</Time>
            <Position>
              <LatitudeDegrees>43.38310204446315765380859375</LatitudeDegrees>
              <LongitudeDegrees>-4.20450185425579547882080078125</LongitudeDegrees>
            </Position>
            <AltitudeMeters>122.40000152587890625</AltitudeMeters>
            <DistanceMeters>NAN</DistanceMeters>
          </Trackpoint>
          <Trackpoint>
            <Time>2022-07-14T17:32:53.000Z</Time>
            <Position>
              <LatitudeDegrees>43.38307564146816730499267578125</LatitudeDegrees>
              <LongitudeDegrees>-4.20471391640603542327880859375</LongitudeDegrees>
            </Position>
            <AltitudeMeters>122.8000030517578125</AltitudeMeters>
            <DistanceMeters>NAN</DistanceMeters>
          </Trackpoint>
          <Trackpoint>
            <Time>2022-07-14T17:32:54.000Z</Time>
            <Position>
              <LatitudeDegrees>43.3830745518207550048828125</LatitudeDegrees>
              <LongitudeDegrees>-4.2047527246177196502685546875</LongitudeDegrees>
            </Position>
            <AltitudeMeters>123</AltitudeMeters>
            <DistanceMeters>NAN</DistanceMeters>
          </Trackpoint>
          <Trackpoint>
            <Time>2022-07-14T17:32:55.000Z</Time>
            <Position>
              <LatitudeDegrees>43.38307362981140613555908203125</LatitudeDegrees>
              <LongitudeDegrees>-4.2047956399619579315185546875</LongitudeDegrees>
            </Position>
            <AltitudeMeters>123</AltitudeMeters>
            <DistanceMeters>NAN</DistanceMeters>
          </Trackpoint>
          <Trackpoint>
            <Time>2022-07-14T17:32:58.000Z</Time>
            <Position>
              <LatitudeDegrees>43.38306675665080547332763671875</LatitudeDegrees>
              <LongitudeDegrees>-4.20492212288081645965576171875</LongitudeDegrees>
            </Position>
            <AltitudeMeters>123.40000152587890625</AltitudeMeters>
            <DistanceMeters>NAN</DistanceMeters>
          </Trackpoint>
          <Trackpoint>
            <Time>2022-07-14T17:33:01.000Z</Time>
            <Position>
              <LatitudeDegrees>43.3830535970628261566162109375</LatitudeDegrees>
              <LongitudeDegrees>-4.205039553344249725341796875</LongitudeDegrees>
            </Position>
            <AltitudeMeters>123.59999847412109375</AltitudeMeters>
            <DistanceMeters>NAN</DistanceMeters>
          </Trackpoint>
          <Trackpoint>
            <Time>2022-07-14T17:33:03.000Z</Time>
            <Position>
              <LatitudeDegrees>43.383035995066165924072265625</LatitudeDegrees>
              <LongitudeDegrees>-4.20510828495025634765625</LongitudeDegrees>
            </Position>
            <AltitudeMeters>123.8000030517578125</AltitudeMeters>
            <DistanceMeters>NAN</DistanceMeters>
          </Trackpoint>
          <Trackpoint>
            <Time>2022-07-14T17:33:04.000Z</Time>
            <Position>
              <LatitudeDegrees>43.3830257691442966461181640625</LatitudeDegrees>
              <LongitudeDegrees>-4.20513921417295932769775390625</LongitudeDegrees>
            </Position>
            <AltitudeMeters>124</AltitudeMeters>
            <DistanceMeters>NAN</DistanceMeters>
          </Trackpoint>
          <Trackpoint>
            <Time>2022-07-14T17:33:08.000Z</Time>
            <Position>
              <LatitudeDegrees>43.38298142887651920318603515625</LatitudeDegrees>
              <LongitudeDegrees>-4.20526527799665927886962890625</LongitudeDegrees>
            </Position>
            <AltitudeMeters>124.40000152587890625</AltitudeMeters>
            <DistanceMeters>NAN</DistanceMeters>
          </Trackpoint>
          <Trackpoint>
            <Time>2022-07-14T17:33:13.000Z</Time>
            <Position>
              <LatitudeDegrees>43.3829134516417980194091796875</LatitudeDegrees>
              <LongitudeDegrees>-4.2054209299385547637939453125</LongitudeDegrees>
            </Position>
            <AltitudeMeters>124.8000030517578125</AltitudeMeters>
            <DistanceMeters>NAN</DistanceMeters>
          </Trackpoint>
          <Trackpoint>
            <Time>2022-07-14T17:33:15.000Z</Time>
            <Position>
              <LatitudeDegrees>43.382885120809078216552734375</LatitudeDegrees>
              <LongitudeDegrees>-4.20548086054623126983642578125</LongitudeDegrees>
            </Position>
            <AltitudeMeters>125</AltitudeMeters>
            <DistanceMeters>NAN</DistanceMeters>
          </Trackpoint>
          <Trackpoint>
            <Time>2022-07-14T17:33:20.000Z</Time>
            <Position>
              <LatitudeDegrees>43.3828276209533214569091796875</LatitudeDegrees>
              <LongitudeDegrees>-4.2056385241448879241943359375</LongitudeDegrees>
            </Position>
            <AltitudeMeters>125.8000030517578125</AltitudeMeters>
            <DistanceMeters>NAN</DistanceMeters>
          </Trackpoint>
          <Trackpoint>
            <Time>2022-07-14T17:33:22.000Z</Time>
            <Position>
              <LatitudeDegrees>43.38280390016734600067138671875</LatitudeDegrees>
              <LongitudeDegrees>-4.205706417560577392578125</LongitudeDegrees>
            </Position>
            <AltitudeMeters>126</AltitudeMeters>
            <DistanceMeters>NAN</DistanceMeters>
          </Trackpoint>
          <Trackpoint>
            <Time>2022-07-14T17:33:27.000Z</Time>
            <Position>
              <LatitudeDegrees>43.38273868896067142486572265625</LatitudeDegrees>
              <LongitudeDegrees>-4.2058728821575641632080078125</LongitudeDegrees>
            </Position>
            <AltitudeMeters>126</AltitudeMeters>
            <DistanceMeters>NAN</DistanceMeters>
          </Trackpoint>
          <Trackpoint>
            <Time>2022-07-14T17:33:32.000Z</Time>
            <Position>
              <LatitudeDegrees>43.3826717175543308258056640625</LatitudeDegrees>
              <LongitudeDegrees>-4.2060562781989574432373046875</LongitudeDegrees>
            </Position>
            <AltitudeMeters>126.1999969482421875</AltitudeMeters>
            <DistanceMeters>NAN</DistanceMeters>
          </Trackpoint>
          <Trackpoint>
            <Time>2022-07-14T17:33:40.000Z</Time>
            <Position>
              <LatitudeDegrees>43.38254992850124835968017578125</LatitudeDegrees>
              <LongitudeDegrees>-4.20637629926204681396484375</LongitudeDegrees>
            </Position>
            <AltitudeMeters>126.59999847412109375</AltitudeMeters>
            <DistanceMeters>NAN</DistanceMeters>
          </Trackpoint>
          <Trackpoint>
            <Time>2022-07-14T17:33:47.000Z</Time>
            <Position>
              <LatitudeDegrees>43.38246292434632778167724609375</LatitudeDegrees>
              <LongitudeDegrees>-4.20674870721995830535888671875</LongitudeDegrees>
            </Position>
            <AltitudeMeters>126.1999969482421875</AltitudeMeters>
            <DistanceMeters>NAN</DistanceMeters>
          </Trackpoint>
          <Trackpoint>
            <Time>2022-07-14T17:33:53.000Z</Time>
            <Position>
              <LatitudeDegrees>43.38239603675901889801025390625</LatitudeDegrees>
              <LongitudeDegrees>-4.2071640305221080780029296875</LongitudeDegrees>
            </Position>
            <AltitudeMeters>125.40000152587890625</AltitudeMeters>
            <DistanceMeters>NAN</DistanceMeters>
          </Trackpoint>
          <Trackpoint>
            <Time>2022-07-14T17:33:54.000Z</Time>
            <Position>
              <LatitudeDegrees>43.3823954500257968902587890625</LatitudeDegrees>
              <LongitudeDegrees>-4.2072475142776966094970703125</LongitudeDegrees>
            </Position>
            <AltitudeMeters>125.1999969482421875</AltitudeMeters>
            <DistanceMeters>NAN</DistanceMeters>
          </Trackpoint>
          <Trackpoint>
            <Time>2022-07-14T17:33:55.000Z</Time>
            <Position>
              <LatitudeDegrees>43.38240073062479496002197265625</LatitudeDegrees>
              <LongitudeDegrees>-4.2073370330035686492919921875</LongitudeDegrees>
            </Position>
            <AltitudeMeters>125</AltitudeMeters>
            <DistanceMeters>NAN</DistanceMeters>
          </Trackpoint>
          <Trackpoint>
            <Time>2022-07-14T17:33:56.000Z</Time>
            <Position>
              <LatitudeDegrees>43.3824145607650279998779296875</LatitudeDegrees>
              <LongitudeDegrees>-4.2074243724346160888671875</LongitudeDegrees>
            </Position>
            <AltitudeMeters>124.59999847412109375</AltitudeMeters>
            <DistanceMeters>NAN</DistanceMeters>
          </Trackpoint>
          <Trackpoint>
            <Time>2022-07-14T17:33:57.000Z</Time>
            <Position>
              <LatitudeDegrees>43.38243124075233936309814453125</LatitudeDegrees>
              <LongitudeDegrees>-4.20751380734145641326904296875</LongitudeDegrees>
            </Position>
            <AltitudeMeters>124.40000152587890625</AltitudeMeters>
            <DistanceMeters>NAN</DistanceMeters>
          </Trackpoint>
          <Trackpoint>
            <Time>2022-07-14T17:33:58.000Z</Time>
            <Position>
              <LatitudeDegrees>43.3824450708925724029541015625</LatitudeDegrees>
              <LongitudeDegrees>-4.20760517008602619171142578125</LongitudeDegrees>
            </Position>
            <AltitudeMeters>124.1999969482421875</AltitudeMeters>
            <DistanceMeters>NAN</DistanceMeters>
          </Trackpoint>
          <Trackpoint>
            <Time>2022-07-14T17:34:00.000Z</Time>
            <Position>
              <LatitudeDegrees>43.3824675343930721282958984375</LatitudeDegrees>
              <LongitudeDegrees>-4.20778202824294567108154296875</LongitudeDegrees>
            </Position>
            <AltitudeMeters>124</AltitudeMeters>
            <DistanceMeters>NAN</DistanceMeters>
          </Trackpoint>
          <Trackpoint>
            <Time>2022-07-14T17:34:02.000Z</Time>
            <Position>
              <LatitudeDegrees>43.3824913389980792999267578125</LatitudeDegrees>
              <LongitudeDegrees>-4.20794715173542499542236328125</LongitudeDegrees>
            </Position>
            <AltitudeMeters>123.8000030517578125</AltitudeMeters>
            <DistanceMeters>NAN</DistanceMeters>
          </Trackpoint>
          <Trackpoint>
            <Time>2022-07-14T17:34:03.000Z</Time>
            <Position>
              <LatitudeDegrees>43.3825121261179447174072265625</LatitudeDegrees>
              <LongitudeDegrees>-4.2080230079591274261474609375</LongitudeDegrees>
            </Position>
            <AltitudeMeters>123.59999847412109375</AltitudeMeters>
            <DistanceMeters>NAN</DistanceMeters>
          </Trackpoint>
          <Trackpoint>
            <Time>2022-07-14T17:34:06.000Z</Time>
            <Position>
              <LatitudeDegrees>43.38258060626685619354248046875</LatitudeDegrees>
              <LongitudeDegrees>-4.20823448337614536285400390625</LongitudeDegrees>
            </Position>
            <AltitudeMeters>123.59999847412109375</AltitudeMeters>
            <DistanceMeters>NAN</DistanceMeters>
          </Trackpoint>
          <Trackpoint>
            <Time>2022-07-14T17:34:11.000Z</Time>
            <Position>
              <LatitudeDegrees>43.3826945163309574127197265625</LatitudeDegrees>
              <LongitudeDegrees>-4.2085535824298858642578125</LongitudeDegrees>
            </Position>
            <AltitudeMeters>122.8000030517578125</AltitudeMeters>
            <DistanceMeters>NAN</DistanceMeters>
          </Trackpoint>
          <Trackpoint>
            <Time>2022-07-14T17:34:12.000Z</Time>
            <Position>
              <LatitudeDegrees>43.38271119631826877593994140625</LatitudeDegrees>
              <LongitudeDegrees>-4.20861326158046722412109375</LongitudeDegrees>
            </Position>
            <AltitudeMeters>122.59999847412109375</AltitudeMeters>
            <DistanceMeters>NAN</DistanceMeters>
          </Trackpoint>
          <Trackpoint>
            <Time>2022-07-14T17:34:13.000Z</Time>
            <Position>
              <LatitudeDegrees>43.38272117078304290771484375</LatitudeDegrees>
              <LongitudeDegrees>-4.208660535514354705810546875</LongitudeDegrees>
            </Position>
            <AltitudeMeters>122.40000152587890625</AltitudeMeters>
            <DistanceMeters>NAN</DistanceMeters>
          </Trackpoint>
          <Trackpoint>
            <Time>2022-07-14T17:34:15.000Z</Time>
            <Position>
              <LatitudeDegrees>43.38270935229957103729248046875</LatitudeDegrees>
              <LongitudeDegrees>-4.20869884081184864044189453125</LongitudeDegrees>
            </Position>
            <AltitudeMeters>121.8000030517578125</AltitudeMeters>
            <DistanceMeters>NAN</DistanceMeters>
          </Trackpoint>
          <Trackpoint>
            <Time>2022-07-14T17:34:18.000Z</Time>
            <Position>
              <LatitudeDegrees>43.382685296237468719482421875</LatitudeDegrees>
              <LongitudeDegrees>-4.20866263099014759063720703125</LongitudeDegrees>
            </Position>
            <AltitudeMeters>121.59999847412109375</AltitudeMeters>
            <DistanceMeters>NAN</DistanceMeters>
          </Trackpoint>
          <Trackpoint>
            <Time>2022-07-14T17:34:19.000Z</Time>
            <Position>
              <LatitudeDegrees>43.3826861344277858734130859375</LatitudeDegrees>
              <LongitudeDegrees>-4.20863664709031581878662109375</LongitudeDegrees>
            </Position>
            <AltitudeMeters>121.59999847412109375</AltitudeMeters>
            <DistanceMeters>NAN</DistanceMeters>
          </Trackpoint>
          <Trackpoint>
            <Time>2022-07-14T17:34:24.000Z</Time>
            <Position>
              <LatitudeDegrees>43.38269610889256000518798828125</LatitudeDegrees>
              <LongitudeDegrees>-4.20851158909499645233154296875</LongitudeDegrees>
            </Position>
            <AltitudeMeters>121.8000030517578125</AltitudeMeters>
            <DistanceMeters>NAN</DistanceMeters>
          </Trackpoint>
          <Trackpoint>
            <Time>2022-07-14T17:34:25.000Z</Time>
            <Position>
              <LatitudeDegrees>43.3826931752264499664306640625</LatitudeDegrees>
              <LongitudeDegrees>-4.20850387774407863616943359375</LongitudeDegrees>
            </Position>
            <AltitudeMeters>122</AltitudeMeters>
            <DistanceMeters>NAN</DistanceMeters>
          </Trackpoint>
          <Trackpoint>
            <Time>2022-07-14T17:34:26.000Z</Time>
            <Position>
              <LatitudeDegrees>43.3826928399503231048583984375</LatitudeDegrees>
              <LongitudeDegrees>-4.20849247835576534271240234375</LongitudeDegrees>
            </Position>
            <AltitudeMeters>122</AltitudeMeters>
            <DistanceMeters>NAN</DistanceMeters>
          </Trackpoint>
          <Trackpoint>
            <Time>2022-07-14T17:34:29.000Z</Time>
            <Position>
              <LatitudeDegrees>43.38268672116100788116455078125</LatitudeDegrees>
              <LongitudeDegrees>-4.20847722329199314117431640625</LongitudeDegrees>
            </Position>
            <AltitudeMeters>122</AltitudeMeters>
            <DistanceMeters>NAN</DistanceMeters>
          </Trackpoint>
          <Trackpoint>
            <Time>2022-07-14T17:34:30.000Z</Time>
            <Position>
              <LatitudeDegrees>43.38268672116100788116455078125</LatitudeDegrees>
              <LongitudeDegrees>-4.20847722329199314117431640625</LongitudeDegrees>
            </Position>
            <AltitudeMeters>122</AltitudeMeters>
            <DistanceMeters>NAN</DistanceMeters>
          </Trackpoint>
          <Trackpoint>
            <Time>2022-07-14T17:36:21.000Z</Time>
            <Position>
              <LatitudeDegrees>43.382679931819438934326171875</LatitudeDegrees>
              <LongitudeDegrees>-4.20854888856410980224609375</LongitudeDegrees>
            </Position>
            <AltitudeMeters>122</AltitudeMeters>
            <DistanceMeters>NAN</DistanceMeters>
          </Trackpoint>
          <Trackpoint>
            <Time>2022-07-14T17:36:23.000Z</Time>
            <Position>
              <LatitudeDegrees>43.3826995454728603363037109375</LatitudeDegrees>
              <LongitudeDegrees>-4.208597503602504730224609375</LongitudeDegrees>
            </Position>
            <AltitudeMeters>122</AltitudeMeters>
            <DistanceMeters>NAN</DistanceMeters>
          </Trackpoint>
          <Trackpoint>
            <Time>2022-07-14T17:36:25.000Z</Time>
            <Position>
              <LatitudeDegrees>43.38272158987820148468017578125</LatitudeDegrees>
              <LongitudeDegrees>-4.2086754553020000457763671875</LongitudeDegrees>
            </Position>
            <AltitudeMeters>121.8000030517578125</AltitudeMeters>
            <DistanceMeters>NAN</DistanceMeters>
          </Trackpoint>
          <Trackpoint>
            <Time>2022-07-14T17:36:28.000Z</Time>
            <Position>
              <LatitudeDegrees>43.3827635832130908966064453125</LatitudeDegrees>
              <LongitudeDegrees>-4.20882792212069034576416015625</LongitudeDegrees>
            </Position>
            <AltitudeMeters>121.8000030517578125</AltitudeMeters>
            <DistanceMeters>NAN</DistanceMeters>
          </Trackpoint>
          <Trackpoint>
            <Time>2022-07-14T17:36:30.000Z</Time>
            <Position>
              <LatitudeDegrees>43.3828088454902172088623046875</LatitudeDegrees>
              <LongitudeDegrees>-4.2089317739009857177734375</LongitudeDegrees>
            </Position>
            <AltitudeMeters>121.59999847412109375</AltitudeMeters>
            <DistanceMeters>NAN</DistanceMeters>
          </Trackpoint>
          <Trackpoint>
            <Time>2022-07-14T17:36:32.000Z</Time>
            <Position>
              <LatitudeDegrees>43.3828531019389629364013671875</LatitudeDegrees>
              <LongitudeDegrees>-4.2090476118028163909912109375</LongitudeDegrees>
            </Position>
            <AltitudeMeters>121.1999969482421875</AltitudeMeters>
            <DistanceMeters>NAN</DistanceMeters>
          </Trackpoint>
          <Trackpoint>
            <Time>2022-07-14T17:36:33.000Z</Time>
            <Position>
              <LatitudeDegrees>43.38288101367652416229248046875</LatitudeDegrees>
              <LongitudeDegrees>-4.20910653658211231231689453125</LongitudeDegrees>
            </Position>
            <AltitudeMeters>121</AltitudeMeters>
            <DistanceMeters>NAN</DistanceMeters>
          </Trackpoint>
          <Trackpoint>
            <Time>2022-07-14T17:36:34.000Z</Time>
            <Position>
              <LatitudeDegrees>43.382914625108242034912109375</LatitudeDegrees>
              <LongitudeDegrees>-4.2091673053801059722900390625</LongitudeDegrees>
            </Position>
            <AltitudeMeters>120.8000030517578125</AltitudeMeters>
            <DistanceMeters>NAN</DistanceMeters>
          </Trackpoint>
          <Trackpoint>
            <Time>2022-07-14T17:36:35.000Z</Time>
            <Position>
              <LatitudeDegrees>43.382951505482196807861328125</LatitudeDegrees>
              <LongitudeDegrees>-4.2092120647430419921875</LongitudeDegrees>
            </Position>
            <AltitudeMeters>120.59999847412109375</AltitudeMeters>
            <DistanceMeters>NAN</DistanceMeters>
          </Trackpoint>
          <Trackpoint>
            <Time>2022-07-14T17:36:36.000Z</Time>
            <Position>
              <LatitudeDegrees>43.38300238363444805145263671875</LatitudeDegrees>
              <LongitudeDegrees>-4.20925254933536052703857421875</LongitudeDegrees>
            </Position>
            <AltitudeMeters>120.40000152587890625</AltitudeMeters>
            <DistanceMeters>NAN</DistanceMeters>
          </Trackpoint>
          <Trackpoint>
            <Time>2022-07-14T17:36:37.000Z</Time>
            <Position>
              <LatitudeDegrees>43.38307119905948638916015625</LatitudeDegrees>
              <LongitudeDegrees>-4.20927300117909908294677734375</LongitudeDegrees>
            </Position>
            <AltitudeMeters>120.40000152587890625</AltitudeMeters>
            <DistanceMeters>NAN</DistanceMeters>
          </Trackpoint>
          <Trackpoint>
            <Time>2022-07-14T17:36:38.000Z</Time>
            <Position>
              <LatitudeDegrees>43.38313431479036808013916015625</LatitudeDegrees>
              <LongitudeDegrees>-4.20926646329462528228759765625</LongitudeDegrees>
            </Position>
            <AltitudeMeters>120.1999969482421875</AltitudeMeters>
            <DistanceMeters>NAN</DistanceMeters>
          </Trackpoint>
          <Trackpoint>
            <Time>2022-07-14T17:36:40.000Z</Time>
            <Position>
              <LatitudeDegrees>43.38324864394962787628173828125</LatitudeDegrees>
              <LongitudeDegrees>-4.2092294991016387939453125</LongitudeDegrees>
            </Position>
            <AltitudeMeters>120</AltitudeMeters>
            <DistanceMeters>NAN</DistanceMeters>
          </Trackpoint>
          <Trackpoint>
            <Time>2022-07-14T17:36:41.000Z</Time>
            <Position>
              <LatitudeDegrees>43.3833079040050506591796875</LatitudeDegrees>
              <LongitudeDegrees>-4.209203012287616729736328125</LongitudeDegrees>
            </Position>
            <AltitudeMeters>119.8000030517578125</AltitudeMeters>
            <DistanceMeters>NAN</DistanceMeters>
          </Trackpoint>
          <Trackpoint>
            <Time>2022-07-14T17:36:47.000Z</Time>
            <Position>
              <LatitudeDegrees>43.38367058895528316497802734375</LatitudeDegrees>
              <LongitudeDegrees>-4.20906177721917629241943359375</LongitudeDegrees>
            </Position>
            <AltitudeMeters>119.59999847412109375</AltitudeMeters>
            <DistanceMeters>NAN</DistanceMeters>
          </Trackpoint>
          <Trackpoint>
            <Time>2022-07-14T17:36:48.000Z</Time>
            <Position>
              <LatitudeDegrees>43.3837291784584522247314453125</LatitudeDegrees>
              <LongitudeDegrees>-4.2090385593473911285400390625</LongitudeDegrees>
            </Position>
            <AltitudeMeters>119.59999847412109375</AltitudeMeters>
            <DistanceMeters>NAN</DistanceMeters>
          </Trackpoint>
          <Trackpoint>
            <Time>2022-07-14T17:36:52.000Z</Time>
            <Position>
              <LatitudeDegrees>43.38394819758832454681396484375</LatitudeDegrees>
              <LongitudeDegrees>-4.20899287797510623931884765625</LongitudeDegrees>
            </Position>
            <AltitudeMeters>118.59999847412109375</AltitudeMeters>
            <DistanceMeters>NAN</DistanceMeters>
          </Trackpoint>
          <Trackpoint>
            <Time>2022-07-14T17:36:53.000Z</Time>
            <Position>
              <LatitudeDegrees>43.384000919759273529052734375</LatitudeDegrees>
              <LongitudeDegrees>-4.20898851938545703887939453125</LongitudeDegrees>
            </Position>
            <AltitudeMeters>118.40000152587890625</AltitudeMeters>
            <DistanceMeters>NAN</DistanceMeters>
          </Trackpoint>
          <Trackpoint>
            <Time>2022-07-14T17:36:54.000Z</Time>
            <Position>
              <LatitudeDegrees>43.38405095972120761871337890625</LatitudeDegrees>
              <LongitudeDegrees>-4.20898634009063243865966796875</LongitudeDegrees>
            </Position>
            <AltitudeMeters>118.40000152587890625</AltitudeMeters>
            <DistanceMeters>NAN</DistanceMeters>
          </Trackpoint>
          <Trackpoint>
            <Time>2022-07-14T17:36:56.000Z</Time>
            <Position>
              <LatitudeDegrees>43.38414282537996768951416015625</LatitudeDegrees>
              <LongitudeDegrees>-4.20900075696408748626708984375</LongitudeDegrees>
            </Position>
            <AltitudeMeters>118.1999969482421875</AltitudeMeters>
            <DistanceMeters>NAN</DistanceMeters>
          </Trackpoint>
          <Trackpoint>
            <Time>2022-07-14T17:36:57.000Z</Time>
            <Position>
              <LatitudeDegrees>43.38418758474290370941162109375</LatitudeDegrees>
              <LongitudeDegrees>-4.20902389101684093475341796875</LongitudeDegrees>
            </Position>
            <AltitudeMeters>118</AltitudeMeters>
            <DistanceMeters>NAN</DistanceMeters>
          </Trackpoint>
          <Trackpoint>
            <Time>2022-07-14T17:36:58.000Z</Time>
            <Position>
              <LatitudeDegrees>43.384231589734554290771484375</LatitudeDegrees>
              <LongitudeDegrees>-4.209056831896305084228515625</LongitudeDegrees>
            </Position>
            <AltitudeMeters>118</AltitudeMeters>
            <DistanceMeters>NAN</DistanceMeters>
          </Trackpoint>
          <Trackpoint>
            <Time>2022-07-14T17:37:00.000Z</Time>
            <Position>
              <LatitudeDegrees>43.38431364856660366058349609375</LatitudeDegrees>
              <LongitudeDegrees>-4.2091383039951324462890625</LongitudeDegrees>
            </Position>
            <AltitudeMeters>117.8000030517578125</AltitudeMeters>
            <DistanceMeters>NAN</DistanceMeters>
          </Trackpoint>
          <Trackpoint>
            <Time>2022-07-14T17:37:01.000Z</Time>
            <Position>
              <LatitudeDegrees>43.38435254059731960296630859375</LatitudeDegrees>
              <LongitudeDegrees>-4.20918867923319339752197265625</LongitudeDegrees>
            </Position>
            <AltitudeMeters>117.59999847412109375</AltitudeMeters>
            <DistanceMeters>NAN</DistanceMeters>
          </Trackpoint>
          <Trackpoint>
            <Time>2022-07-14T17:37:02.000Z</Time>
            <Position>
              <LatitudeDegrees>43.3843910135328769683837890625</LatitudeDegrees>
              <LongitudeDegrees>-4.20924902893602848052978515625</LongitudeDegrees>
            </Position>
            <AltitudeMeters>117.1999969482421875</AltitudeMeters>
            <DistanceMeters>NAN</DistanceMeters>
          </Trackpoint>
          <Trackpoint>
            <Time>2022-07-14T17:37:05.000Z</Time>
            <Position>
              <LatitudeDegrees>43.38451615534722805023193359375</LatitudeDegrees>
              <LongitudeDegrees>-4.20945555903017520904541015625</LongitudeDegrees>
            </Position>
            <AltitudeMeters>116.40000152587890625</AltitudeMeters>
            <DistanceMeters>NAN</DistanceMeters>
          </Trackpoint>
          <Trackpoint>
            <Time>2022-07-14T17:37:07.000Z</Time>
            <Position>
              <LatitudeDegrees>43.3846019022166728973388671875</LatitudeDegrees>
              <LongitudeDegrees>-4.2096091993153095245361328125</LongitudeDegrees>
            </Position>
            <AltitudeMeters>115.8000030517578125</AltitudeMeters>
            <DistanceMeters>NAN</DistanceMeters>
          </Trackpoint>
          <Trackpoint>
            <Time>2022-07-14T17:37:09.000Z</Time>
            <Position>
              <LatitudeDegrees>43.3846917562186717987060546875</LatitudeDegrees>
              <LongitudeDegrees>-4.20977423898875713348388671875</LongitudeDegrees>
            </Position>
            <AltitudeMeters>115.1999969482421875</AltitudeMeters>
            <DistanceMeters>NAN</DistanceMeters>
          </Trackpoint>
          <Trackpoint>
            <Time>2022-07-14T17:37:11.000Z</Time>
            <Position>
              <LatitudeDegrees>43.38477398268878459930419921875</LatitudeDegrees>
              <LongitudeDegrees>-4.20994958840310573577880859375</LongitudeDegrees>
            </Position>
            <AltitudeMeters>114.40000152587890625</AltitudeMeters>
            <DistanceMeters>NAN</DistanceMeters>
          </Trackpoint>
          <Trackpoint>
            <Time>2022-07-14T17:37:12.000Z</Time>
            <Position>
              <LatitudeDegrees>43.38480801321566104888916015625</LatitudeDegrees>
              <LongitudeDegrees>-4.21005268581211566925048828125</LongitudeDegrees>
            </Position>
            <AltitudeMeters>113.8000030517578125</AltitudeMeters>
            <DistanceMeters>NAN</DistanceMeters>
          </Trackpoint>
          <Trackpoint>
            <Time>2022-07-14T17:37:13.000Z</Time>
            <Position>
              <LatitudeDegrees>43.3848496712744235992431640625</LatitudeDegrees>
              <LongitudeDegrees>-4.210172630846500396728515625</LongitudeDegrees>
            </Position>
            <AltitudeMeters>113.40000152587890625</AltitudeMeters>
            <DistanceMeters>NAN</DistanceMeters>
          </Trackpoint>
          <Trackpoint>
            <Time>2022-07-14T17:37:15.000Z</Time>
            <Position>
              <LatitudeDegrees>43.38490591384470462799072265625</LatitudeDegrees>
              <LongitudeDegrees>-4.2103437893092632293701171875</LongitudeDegrees>
            </Position>
            <AltitudeMeters>112.8000030517578125</AltitudeMeters>
            <DistanceMeters>NAN</DistanceMeters>
          </Trackpoint>
          <Trackpoint>
            <Time>2022-07-14T17:37:18.000Z</Time>
            <Position>
              <LatitudeDegrees>43.38497648946940898895263671875</LatitudeDegrees>
              <LongitudeDegrees>-4.21053447760641574859619140625</LongitudeDegrees>
            </Position>
            <AltitudeMeters>111.59999847412109375</AltitudeMeters>
            <DistanceMeters>NAN</DistanceMeters>
          </Trackpoint>
          <Trackpoint>
            <Time>2022-07-14T17:37:21.000Z</Time>
            <Position>
              <LatitudeDegrees>43.3849842846393585205078125</LatitudeDegrees>
              <LongitudeDegrees>-4.210645370185375213623046875</LongitudeDegrees>
            </Position>
            <AltitudeMeters>111</AltitudeMeters>
            <DistanceMeters>NAN</DistanceMeters>
          </Trackpoint>
          <Trackpoint>
            <Time>2022-07-14T17:37:22.000Z</Time>
            <Position>
              <LatitudeDegrees>43.3849636651575565338134765625</LatitudeDegrees>
              <LongitudeDegrees>-4.21067244373261928558349609375</LongitudeDegrees>
            </Position>
            <AltitudeMeters>111</AltitudeMeters>
            <DistanceMeters>NAN</DistanceMeters>
          </Trackpoint>
          <Trackpoint>
            <Time>2022-07-14T17:37:27.000Z</Time>
            <Position>
              <LatitudeDegrees>43.384880684316158294677734375</LatitudeDegrees>
              <LongitudeDegrees>-4.21079984866082668304443359375</LongitudeDegrees>
            </Position>
            <AltitudeMeters>111.59999847412109375</AltitudeMeters>
            <DistanceMeters>NAN</DistanceMeters>
          </Trackpoint>
          <Trackpoint>
            <Time>2022-07-14T17:37:32.000Z</Time>
            <Position>
              <LatitudeDegrees>43.38479317724704742431640625</LatitudeDegrees>
              <LongitudeDegrees>-4.21094083227217197418212890625</LongitudeDegrees>
            </Position>
            <AltitudeMeters>112.40000152587890625</AltitudeMeters>
            <DistanceMeters>NAN</DistanceMeters>
          </Trackpoint>
          <Trackpoint>
            <Time>2022-07-14T17:37:34.000Z</Time>
            <Position>
              <LatitudeDegrees>43.38475788943469524383544921875</LatitudeDegrees>
              <LongitudeDegrees>-4.21100084669888019561767578125</LongitudeDegrees>
            </Position>
            <AltitudeMeters>112.59999847412109375</AltitudeMeters>
            <DistanceMeters>NAN</DistanceMeters>
          </Trackpoint>
          <Trackpoint>
            <Time>2022-07-14T17:37:38.000Z</Time>
            <Position>
              <LatitudeDegrees>43.38468664325773715972900390625</LatitudeDegrees>
              <LongitudeDegrees>-4.21112339012324810028076171875</LongitudeDegrees>
            </Position>
            <AltitudeMeters>113.1999969482421875</AltitudeMeters>
            <DistanceMeters>NAN</DistanceMeters>
          </Trackpoint>
          <Trackpoint>
            <Time>2022-07-14T17:37:42.000Z</Time>
            <Position>
              <LatitudeDegrees>43.384692259132862091064453125</LatitudeDegrees>
              <LongitudeDegrees>-4.21125297434628009796142578125</LongitudeDegrees>
            </Position>
            <AltitudeMeters>113.59999847412109375</AltitudeMeters>
            <DistanceMeters>NAN</DistanceMeters>
          </Trackpoint>
          <Trackpoint>
            <Time>2022-07-14T17:37:43.000Z</Time>
            <Position>
              <LatitudeDegrees>43.38471681810915470123291015625</LatitudeDegrees>
              <LongitudeDegrees>-4.21128080226480960845947265625</LongitudeDegrees>
            </Position>
            <AltitudeMeters>113.59999847412109375</AltitudeMeters>
            <DistanceMeters>NAN</DistanceMeters>
          </Trackpoint>
          <Trackpoint>
            <Time>2022-07-14T17:37:47.000Z</Time>
            <Position>
              <LatitudeDegrees>43.38484145700931549072265625</LatitudeDegrees>
              <LongitudeDegrees>-4.21133059076964855194091796875</LongitudeDegrees>
            </Position>
            <AltitudeMeters>113.40000152587890625</AltitudeMeters>
            <DistanceMeters>NAN</DistanceMeters>
          </Trackpoint>
          <Trackpoint>
            <Time>2022-07-14T17:37:51.000Z</Time>
            <Position>
              <LatitudeDegrees>43.38495586998760700225830078125</LatitudeDegrees>
              <LongitudeDegrees>-4.2113363742828369140625</LongitudeDegrees>
            </Position>
            <AltitudeMeters>112.59999847412109375</AltitudeMeters>
            <DistanceMeters>NAN</DistanceMeters>
          </Trackpoint>
          <Trackpoint>
            <Time>2022-07-14T17:37:52.000Z</Time>
            <Position>
              <LatitudeDegrees>43.38496928103268146514892578125</LatitudeDegrees>
              <LongitudeDegrees>-4.2113377153873443603515625</LongitudeDegrees>
            </Position>
            <AltitudeMeters>112.59999847412109375</AltitudeMeters>
            <DistanceMeters>NAN</DistanceMeters>
          </Trackpoint>
          <Trackpoint>
            <Time>2022-07-14T17:37:54.000Z</Time>
            <Position>
              <LatitudeDegrees>43.38497464545071125030517578125</LatitudeDegrees>
              <LongitudeDegrees>-4.211338721215724945068359375</LongitudeDegrees>
            </Position>
            <AltitudeMeters>112.1999969482421875</AltitudeMeters>
            <DistanceMeters>NAN</DistanceMeters>
          </Trackpoint>
          <Trackpoint>
            <Time>2022-07-14T17:37:55.000Z</Time>
            <Position>
              <LatitudeDegrees>43.38497464545071125030517578125</LatitudeDegrees>
              <LongitudeDegrees>-4.211338721215724945068359375</LongitudeDegrees>
            </Position>
            <AltitudeMeters>112.1999969482421875</AltitudeMeters>
            <DistanceMeters>NAN</DistanceMeters>
          </Trackpoint>
          <Trackpoint>
            <Time>2022-07-14T17:38:01.000Z</Time>
            <Position>
              <LatitudeDegrees>43.38502057828009128570556640625</LatitudeDegrees>
              <LongitudeDegrees>-4.21127267181873321533203125</LongitudeDegrees>
            </Position>
            <AltitudeMeters>112</AltitudeMeters>
            <DistanceMeters>NAN</DistanceMeters>
          </Trackpoint>
          <Trackpoint>
            <Time>2022-07-14T17:38:05.000Z</Time>
            <Position>
              <LatitudeDegrees>43.3851061575114727020263671875</LatitudeDegrees>
              <LongitudeDegrees>-4.2111316882073879241943359375</LongitudeDegrees>
            </Position>
            <AltitudeMeters>111.8000030517578125</AltitudeMeters>
            <DistanceMeters>NAN</DistanceMeters>
          </Trackpoint>
          <Trackpoint>
            <Time>2022-07-14T17:38:08.000Z</Time>
            <Position>
              <LatitudeDegrees>43.385171033442020416259765625</LatitudeDegrees>
              <LongitudeDegrees>-4.2110458575189113616943359375</LongitudeDegrees>
            </Position>
            <AltitudeMeters>111.40000152587890625</AltitudeMeters>
            <DistanceMeters>NAN</DistanceMeters>
          </Trackpoint>
          <Trackpoint>
            <Time>2022-07-14T17:38:11.000Z</Time>
            <Position>
              <LatitudeDegrees>43.385215960443019866943359375</LatitudeDegrees>
              <LongitudeDegrees>-4.21098458580672740936279296875</LongitudeDegrees>
            </Position>
            <AltitudeMeters>110.40000152587890625</AltitudeMeters>
            <DistanceMeters>NAN</DistanceMeters>
          </Trackpoint>
          <Trackpoint>
            <Time>2022-07-14T17:38:12.000Z</Time>
            <Position>
              <LatitudeDegrees>43.3852256834506988525390625</LatitudeDegrees>
              <LongitudeDegrees>-4.210973270237445831298828125</LongitudeDegrees>
            </Position>
            <AltitudeMeters>110.1999969482421875</AltitudeMeters>
            <DistanceMeters>NAN</DistanceMeters>
          </Trackpoint>
          <Trackpoint>
            <Time>2022-07-14T17:38:16.000Z</Time>
            <Position>
              <LatitudeDegrees>43.38525543920695781707763671875</LatitudeDegrees>
              <LongitudeDegrees>-4.21095256693661212921142578125</LongitudeDegrees>
            </Position>
            <AltitudeMeters>109.59999847412109375</AltitudeMeters>
            <DistanceMeters>NAN</DistanceMeters>
          </Trackpoint>
          <Trackpoint>
            <Time>2022-07-14T17:38:19.000Z</Time>
            <Position>
              <LatitudeDegrees>43.38529433123767375946044921875</LatitudeDegrees>
              <LongitudeDegrees>-4.2109541594982147216796875</LongitudeDegrees>
            </Position>
            <AltitudeMeters>109.40000152587890625</AltitudeMeters>
            <DistanceMeters>NAN</DistanceMeters>
          </Trackpoint>
          <Trackpoint>
            <Time>2022-07-14T17:38:21.000Z</Time>
            <Position>
              <LatitudeDegrees>43.38533171452581882476806640625</LatitudeDegrees>
              <LongitudeDegrees>-4.210977964103221893310546875</LongitudeDegrees>
            </Position>
            <AltitudeMeters>109.40000152587890625</AltitudeMeters>
            <DistanceMeters>NAN</DistanceMeters>
          </Trackpoint>
          <Trackpoint>
            <Time>2022-07-14T17:38:24.000Z</Time>
            <Position>
              <LatitudeDegrees>43.385392315685749053955078125</LatitudeDegrees>
              <LongitudeDegrees>-4.21108835376799106597900390625</LongitudeDegrees>
            </Position>
            <AltitudeMeters>109.1999969482421875</AltitudeMeters>
            <DistanceMeters>NAN</DistanceMeters>
          </Trackpoint>
          <Trackpoint>
            <Time>2022-07-14T17:38:26.000Z</Time>
            <Position>
              <LatitudeDegrees>43.38546247221529483795166015625</LatitudeDegrees>
              <LongitudeDegrees>-4.21118323691189289093017578125</LongitudeDegrees>
            </Position>
            <AltitudeMeters>108.8000030517578125</AltitudeMeters>
            <DistanceMeters>NAN</DistanceMeters>
          </Trackpoint>
          <Trackpoint>
            <Time>2022-07-14T17:38:29.000Z</Time>
            <Position>
              <LatitudeDegrees>43.38559591211378574371337890625</LatitudeDegrees>
              <LongitudeDegrees>-4.211360849440097808837890625</LongitudeDegrees>
            </Position>
            <AltitudeMeters>108</AltitudeMeters>
            <DistanceMeters>NAN</DistanceMeters>
          </Trackpoint>
          <Trackpoint>
            <Time>2022-07-14T17:38:31.000Z</Time>
            <Position>
              <LatitudeDegrees>43.385700099170207977294921875</LatitudeDegrees>
              <LongitudeDegrees>-4.2115227878093719482421875</LongitudeDegrees>
            </Position>
            <AltitudeMeters>107.40000152587890625</AltitudeMeters>
            <DistanceMeters>NAN</DistanceMeters>
          </Trackpoint>
          <Trackpoint>
            <Time>2022-07-14T17:38:33.000Z</Time>
            <Position>
              <LatitudeDegrees>43.38582004420459270477294921875</LatitudeDegrees>
              <LongitudeDegrees>-4.21170660294592380523681640625</LongitudeDegrees>
            </Position>
            <AltitudeMeters>106.59999847412109375</AltitudeMeters>
            <DistanceMeters>NAN</DistanceMeters>
          </Trackpoint>
          <Trackpoint>
            <Time>2022-07-14T17:38:35.000Z</Time>
            <Position>
              <LatitudeDegrees>43.3859326131641864776611328125</LatitudeDegrees>
              <LongitudeDegrees>-4.2118696309626102447509765625</LongitudeDegrees>
            </Position>
            <AltitudeMeters>105.40000152587890625</AltitudeMeters>
            <DistanceMeters>NAN</DistanceMeters>
          </Trackpoint>
          <Trackpoint>
            <Time>2022-07-14T17:38:36.000Z</Time>
            <Position>
              <LatitudeDegrees>43.38599522598087787628173828125</LatitudeDegrees>
              <LongitudeDegrees>-4.211964346468448638916015625</LongitudeDegrees>
            </Position>
            <AltitudeMeters>105</AltitudeMeters>
            <DistanceMeters>NAN</DistanceMeters>
          </Trackpoint>
          <Trackpoint>
            <Time>2022-07-14T17:38:37.000Z</Time>
            <Position>
              <LatitudeDegrees>43.3860720880329608917236328125</LatitudeDegrees>
              <LongitudeDegrees>-4.21207892708480358123779296875</LongitudeDegrees>
            </Position>
            <AltitudeMeters>104.1999969482421875</AltitudeMeters>
            <DistanceMeters>NAN</DistanceMeters>
          </Trackpoint>
          <Trackpoint>
            <Time>2022-07-14T17:38:39.000Z</Time>
            <Position>
              <LatitudeDegrees>43.38619052432477474212646484375</LatitudeDegrees>
              <LongitudeDegrees>-4.2122562043368816375732421875</LongitudeDegrees>
            </Position>
            <AltitudeMeters>103</AltitudeMeters>
            <DistanceMeters>NAN</DistanceMeters>
          </Trackpoint>
          <Trackpoint>
            <Time>2022-07-14T17:38:41.000Z</Time>
            <Position>
              <LatitudeDegrees>43.38633033446967601776123046875</LatitudeDegrees>
              <LongitudeDegrees>-4.212454520165920257568359375</LongitudeDegrees>
            </Position>
            <AltitudeMeters>101.8000030517578125</AltitudeMeters>
            <DistanceMeters>NAN</DistanceMeters>
          </Trackpoint>
          <Trackpoint>
            <Time>2022-07-14T17:38:42.000Z</Time>
            <Position>
              <LatitudeDegrees>43.3864180929958820343017578125</LatitudeDegrees>
              <LongitudeDegrees>-4.2125646583735942840576171875</LongitudeDegrees>
            </Position>
            <AltitudeMeters>100.8000030517578125</AltitudeMeters>
            <DistanceMeters>NAN</DistanceMeters>
          </Trackpoint>
          <Trackpoint>
            <Time>2022-07-14T17:38:43.000Z</Time>
            <Position>
              <LatitudeDegrees>43.3864814601838588714599609375</LatitudeDegrees>
              <LongitudeDegrees>-4.21263012103736400604248046875</LongitudeDegrees>
            </Position>
            <AltitudeMeters>100</AltitudeMeters>
            <DistanceMeters>NAN</DistanceMeters>
          </Trackpoint>
          <Trackpoint>
            <Time>2022-07-14T17:38:44.000Z</Time>
            <Position>
              <LatitudeDegrees>43.3865656144917011260986328125</LatitudeDegrees>
              <LongitudeDegrees>-4.2127071507275104522705078125</LongitudeDegrees>
            </Position>
            <AltitudeMeters>99.40000152587890625</AltitudeMeters>
            <DistanceMeters>NAN</DistanceMeters>
          </Trackpoint>
          <Trackpoint>
            <Time>2022-07-14T17:38:45.000Z</Time>
            <Position>
              <LatitudeDegrees>43.38665404357016086578369140625</LatitudeDegrees>
              <LongitudeDegrees>-4.21276909299194812774658203125</LongitudeDegrees>
            </Position>
            <AltitudeMeters>98.59999847412109375</AltitudeMeters>
            <DistanceMeters>NAN</DistanceMeters>
          </Trackpoint>
          <Trackpoint>
            <Time>2022-07-14T17:38:46.000Z</Time>
            <Position>
              <LatitudeDegrees>43.38674825616180896759033203125</LatitudeDegrees>
              <LongitudeDegrees>-4.21281804330646991729736328125</LongitudeDegrees>
            </Position>
            <AltitudeMeters>97.8000030517578125</AltitudeMeters>
            <DistanceMeters>NAN</DistanceMeters>
          </Trackpoint>
          <Trackpoint>
            <Time>2022-07-14T17:38:47.000Z</Time>
            <Position>
              <LatitudeDegrees>43.38686610572040081024169921875</LatitudeDegrees>
              <LongitudeDegrees>-4.2128477990627288818359375</LongitudeDegrees>
            </Position>
            <AltitudeMeters>97</AltitudeMeters>
            <DistanceMeters>NAN</DistanceMeters>
          </Trackpoint>
          <Trackpoint>
            <Time>2022-07-14T17:38:49.000Z</Time>
            <Position>
              <LatitudeDegrees>43.38704497553408145904541015625</LatitudeDegrees>
              <LongitudeDegrees>-4.21283463947474956512451171875</LongitudeDegrees>
            </Position>
            <AltitudeMeters>95.40000152587890625</AltitudeMeters>
            <DistanceMeters>NAN</DistanceMeters>
          </Trackpoint>
          <Trackpoint>
            <Time>2022-07-14T17:38:51.000Z</Time>
            <Position>
              <LatitudeDegrees>43.38721789419651031494140625</LatitudeDegrees>
              <LongitudeDegrees>-4.212809242308139801025390625</LongitudeDegrees>
            </Position>
            <AltitudeMeters>93.8000030517578125</AltitudeMeters>
            <DistanceMeters>NAN</DistanceMeters>
          </Trackpoint>
          <Trackpoint>
            <Time>2022-07-14T17:38:52.000Z</Time>
            <Position>
              <LatitudeDegrees>43.38728788308799266815185546875</LatitudeDegrees>
              <LongitudeDegrees>-4.21278686262667179107666015625</LongitudeDegrees>
            </Position>
            <AltitudeMeters>93.1999969482421875</AltitudeMeters>
            <DistanceMeters>NAN</DistanceMeters>
          </Trackpoint>
          <Trackpoint>
            <Time>2022-07-14T17:38:53.000Z</Time>
            <Position>
              <LatitudeDegrees>43.3873454667627811431884765625</LatitudeDegrees>
              <LongitudeDegrees>-4.21275593340396881103515625</LongitudeDegrees>
            </Position>
            <AltitudeMeters>92.1999969482421875</AltitudeMeters>
            <DistanceMeters>NAN</DistanceMeters>
          </Trackpoint>
          <Trackpoint>
            <Time>2022-07-14T17:38:55.000Z</Time>
            <Position>
              <LatitudeDegrees>43.38738561607897281646728515625</LatitudeDegrees>
              <LongitudeDegrees>-4.21273640356957912445068359375</LongitudeDegrees>
            </Position>
            <AltitudeMeters>90.1999969482421875</AltitudeMeters>
            <DistanceMeters>NAN</DistanceMeters>
          </Trackpoint>
          <Trackpoint>
            <Time>2022-07-14T17:38:56.000Z</Time>
            <Position>
              <LatitudeDegrees>43.387430123984813690185546875</LatitudeDegrees>
              <LongitudeDegrees>-4.2127229087054729461669921875</LongitudeDegrees>
            </Position>
            <AltitudeMeters>89.8000030517578125</AltitudeMeters>
            <DistanceMeters>NAN</DistanceMeters>
          </Trackpoint>
          <Trackpoint>
            <Time>2022-07-14T17:38:59.000Z</Time>
            <Position>
              <LatitudeDegrees>43.38750681839883327484130859375</LatitudeDegrees>
              <LongitudeDegrees>-4.2127740383148193359375</LongitudeDegrees>
            </Position>
            <AltitudeMeters>89.1999969482421875</AltitudeMeters>
            <DistanceMeters>NAN</DistanceMeters>
          </Trackpoint>
          <Trackpoint>
            <Time>2022-07-14T17:39:00.000Z</Time>
            <Position>
              <LatitudeDegrees>43.38752542622387409210205078125</LatitudeDegrees>
              <LongitudeDegrees>-4.21280018985271453857421875</LongitudeDegrees>
            </Position>
            <AltitudeMeters>89.1999969482421875</AltitudeMeters>
            <DistanceMeters>NAN</DistanceMeters>
          </Trackpoint>
          <Trackpoint>
            <Time>2022-07-14T17:39:06.000Z</Time>
            <Position>
              <LatitudeDegrees>43.38761310093104839324951171875</LatitudeDegrees>
              <LongitudeDegrees>-4.21306128613650798797607421875</LongitudeDegrees>
            </Position>
            <AltitudeMeters>89.40000152587890625</AltitudeMeters>
            <DistanceMeters>NAN</DistanceMeters>
          </Trackpoint>
          <Trackpoint>
            <Time>2022-07-14T17:39:14.000Z</Time>
            <Position>
              <LatitudeDegrees>43.3876901306211948394775390625</LatitudeDegrees>
              <LongitudeDegrees>-4.21345037408173084259033203125</LongitudeDegrees>
            </Position>
            <AltitudeMeters>89.40000152587890625</AltitudeMeters>
            <DistanceMeters>NAN</DistanceMeters>
          </Trackpoint>
          <Trackpoint>
            <Time>2022-07-14T17:39:20.000Z</Time>
            <Position>
              <LatitudeDegrees>43.38770630769431591033935546875</LatitudeDegrees>
              <LongitudeDegrees>-4.2137689702212810516357421875</LongitudeDegrees>
            </Position>
            <AltitudeMeters>89.59999847412109375</AltitudeMeters>
            <DistanceMeters>NAN</DistanceMeters>
          </Trackpoint>
          <Trackpoint>
            <Time>2022-07-14T17:39:23.000Z</Time>
            <Position>
              <LatitudeDegrees>43.3877092413604259490966796875</LatitudeDegrees>
              <LongitudeDegrees>-4.21395756304264068603515625</LongitudeDegrees>
            </Position>
            <AltitudeMeters>89.40000152587890625</AltitudeMeters>
            <DistanceMeters>NAN</DistanceMeters>
          </Trackpoint>
          <Trackpoint>
            <Time>2022-07-14T17:39:27.000Z</Time>
            <Position>
              <LatitudeDegrees>43.38770446367561817169189453125</LatitudeDegrees>
              <LongitudeDegrees>-4.214203320443630218505859375</LongitudeDegrees>
            </Position>
            <AltitudeMeters>89</AltitudeMeters>
            <DistanceMeters>NAN</DistanceMeters>
          </Trackpoint>
          <Trackpoint>
            <Time>2022-07-14T17:39:30.000Z</Time>
            <Position>
              <LatitudeDegrees>43.38768593966960906982421875</LatitudeDegrees>
              <LongitudeDegrees>-4.21438847668468952178955078125</LongitudeDegrees>
            </Position>
            <AltitudeMeters>89</AltitudeMeters>
            <DistanceMeters>NAN</DistanceMeters>
          </Trackpoint>
          <Trackpoint>
            <Time>2022-07-14T17:39:33.000Z</Time>
            <Position>
              <LatitudeDegrees>43.38769390247762203216552734375</LatitudeDegrees>
              <LongitudeDegrees>-4.21456449665129184722900390625</LongitudeDegrees>
            </Position>
            <AltitudeMeters>89</AltitudeMeters>
            <DistanceMeters>NAN</DistanceMeters>
          </Trackpoint>
          <Trackpoint>
            <Time>2022-07-14T17:39:35.000Z</Time>
            <Position>
              <LatitudeDegrees>43.3877286873757839202880859375</LatitudeDegrees>
              <LongitudeDegrees>-4.21466709114611148834228515625</LongitudeDegrees>
            </Position>
            <AltitudeMeters>89</AltitudeMeters>
            <DistanceMeters>NAN</DistanceMeters>
          </Trackpoint>
          <Trackpoint>
            <Time>2022-07-14T17:39:39.000Z</Time>
            <Position>
              <LatitudeDegrees>43.3878354728221893310546875</LatitudeDegrees>
              <LongitudeDegrees>-4.21487144194543361663818359375</LongitudeDegrees>
            </Position>
            <AltitudeMeters>89</AltitudeMeters>
            <DistanceMeters>NAN</DistanceMeters>
          </Trackpoint>
          <Trackpoint>
            <Time>2022-07-14T17:39:41.000Z</Time>
            <Position>
              <LatitudeDegrees>43.3878839202225208282470703125</LatitudeDegrees>
              <LongitudeDegrees>-4.21498459763824939727783203125</LongitudeDegrees>
            </Position>
            <AltitudeMeters>88.8000030517578125</AltitudeMeters>
            <DistanceMeters>NAN</DistanceMeters>
          </Trackpoint>
          <Trackpoint>
            <Time>2022-07-14T17:39:52.000Z</Time>
            <Position>
              <LatitudeDegrees>43.38819480501115322113037109375</LatitudeDegrees>
              <LongitudeDegrees>-4.21558977104723453521728515625</LongitudeDegrees>
            </Position>
            <AltitudeMeters>88.8000030517578125</AltitudeMeters>
            <DistanceMeters>NAN</DistanceMeters>
          </Trackpoint>
          <Trackpoint>
            <Time>2022-07-14T17:39:58.000Z</Time>
            <Position>
              <LatitudeDegrees>43.38834442198276519775390625</LatitudeDegrees>
              <LongitudeDegrees>-4.21588431112468242645263671875</LongitudeDegrees>
            </Position>
            <AltitudeMeters>89.1999969482421875</AltitudeMeters>
            <DistanceMeters>NAN</DistanceMeters>
          </Trackpoint>
          <Trackpoint>
            <Time>2022-07-14T17:39:59.000Z</Time>
            <Position>
              <LatitudeDegrees>43.38836680166423320770263671875</LatitudeDegrees>
              <LongitudeDegrees>-4.21592638827860355377197265625</LongitudeDegrees>
            </Position>
            <AltitudeMeters>89.1999969482421875</AltitudeMeters>
            <DistanceMeters>NAN</DistanceMeters>
          </Trackpoint>
          <Trackpoint>
            <Time>2022-07-14T17:40:07.000Z</Time>
            <Position>
              <LatitudeDegrees>43.3885189332067966461181640625</LatitudeDegrees>
              <LongitudeDegrees>-4.2162402905523777008056640625</LongitudeDegrees>
            </Position>
            <AltitudeMeters>89.8000030517578125</AltitudeMeters>
            <DistanceMeters>NAN</DistanceMeters>
          </Trackpoint>
          <Trackpoint>
            <Time>2022-07-14T17:40:10.000Z</Time>
            <Position>
              <LatitudeDegrees>43.3885838091373443603515625</LatitudeDegrees>
              <LongitudeDegrees>-4.21632687561213970184326171875</LongitudeDegrees>
            </Position>
            <AltitudeMeters>90.1999969482421875</AltitudeMeters>
            <DistanceMeters>NAN</DistanceMeters>
          </Trackpoint>
          <Trackpoint>
            <Time>2022-07-14T17:40:14.000Z</Time>
            <Position>
              <LatitudeDegrees>43.38867290876805782318115234375</LatitudeDegrees>
              <LongitudeDegrees>-4.216423518955707550048828125</LongitudeDegrees>
            </Position>
            <AltitudeMeters>90.40000152587890625</AltitudeMeters>
            <DistanceMeters>NAN</DistanceMeters>
          </Trackpoint>
          <Trackpoint>
            <Time>2022-07-14T17:40:17.000Z</Time>
            <Position>
              <LatitudeDegrees>43.38875756599009037017822265625</LatitudeDegrees>
              <LongitudeDegrees>-4.2164914123713970184326171875</LongitudeDegrees>
            </Position>
            <AltitudeMeters>90.59999847412109375</AltitudeMeters>
            <DistanceMeters>NAN</DistanceMeters>
          </Trackpoint>
          <Trackpoint>
            <Time>2022-07-14T17:40:19.000Z</Time>
            <Position>
              <LatitudeDegrees>43.38881154544651508331298828125</LatitudeDegrees>
              <LongitudeDegrees>-4.21652234159409999847412109375</LongitudeDegrees>
            </Position>
            <AltitudeMeters>90.59999847412109375</AltitudeMeters>
            <DistanceMeters>NAN</DistanceMeters>
          </Trackpoint>
          <Trackpoint>
            <Time>2022-07-14T17:40:22.000Z</Time>
            <Position>
              <LatitudeDegrees>43.38890274055302143096923828125</LatitudeDegrees>
              <LongitudeDegrees>-4.2165702022612094879150390625</LongitudeDegrees>
            </Position>
            <AltitudeMeters>90.8000030517578125</AltitudeMeters>
            <DistanceMeters>NAN</DistanceMeters>
          </Trackpoint>
          <Trackpoint>
            <Time>2022-07-14T17:40:30.000Z</Time>
            <Position>
              <LatitudeDegrees>43.3891524374485015869140625</LatitudeDegrees>
              <LongitudeDegrees>-4.2166672646999359130859375</LongitudeDegrees>
            </Position>
            <AltitudeMeters>91</AltitudeMeters>
            <DistanceMeters>NAN</DistanceMeters>
          </Trackpoint>
          <Trackpoint>
            <Time>2022-07-14T17:40:37.000Z</Time>
            <Position>
              <LatitudeDegrees>43.38937631808221340179443359375</LatitudeDegrees>
              <LongitudeDegrees>-4.21675301156938076019287109375</LongitudeDegrees>
            </Position>
            <AltitudeMeters>91</AltitudeMeters>
            <DistanceMeters>NAN</DistanceMeters>
          </Trackpoint>
          <Trackpoint>
            <Time>2022-07-14T17:40:46.000Z</Time>
            <Position>
              <LatitudeDegrees>43.38967806659638881683349609375</LatitudeDegrees>
              <LongitudeDegrees>-4.21686239540576934814453125</LongitudeDegrees>
            </Position>
            <AltitudeMeters>90.8000030517578125</AltitudeMeters>
            <DistanceMeters>NAN</DistanceMeters>
          </Trackpoint>
          <Trackpoint>
            <Time>2022-07-14T17:40:53.000Z</Time>
            <Position>
              <LatitudeDegrees>43.3899549208581447601318359375</LatitudeDegrees>
              <LongitudeDegrees>-4.21698217280209064483642578125</LongitudeDegrees>
            </Position>
            <AltitudeMeters>90.1999969482421875</AltitudeMeters>
            <DistanceMeters>NAN</DistanceMeters>
          </Trackpoint>
          <Trackpoint>
            <Time>2022-07-14T17:40:59.000Z</Time>
            <Position>
              <LatitudeDegrees>43.39027871377766132354736328125</LatitudeDegrees>
              <LongitudeDegrees>-4.2170167900621891021728515625</LongitudeDegrees>
            </Position>
            <AltitudeMeters>89.40000152587890625</AltitudeMeters>
            <DistanceMeters>NAN</DistanceMeters>
          </Trackpoint>
          <Trackpoint>
            <Time>2022-07-14T17:41:00.000Z</Time>
            <Position>
              <LatitudeDegrees>43.39034132659435272216796875</LatitudeDegrees>
              <LongitudeDegrees>-4.2170124314725399017333984375</LongitudeDegrees>
            </Position>
            <AltitudeMeters>89.1999969482421875</AltitudeMeters>
            <DistanceMeters>NAN</DistanceMeters>
          </Trackpoint>
          <Trackpoint>
            <Time>2022-07-14T17:41:04.000Z</Time>
            <Position>
              <LatitudeDegrees>43.39053788222372531890869140625</LatitudeDegrees>
              <LongitudeDegrees>-4.21701352111995220184326171875</LongitudeDegrees>
            </Position>
            <AltitudeMeters>88.1999969482421875</AltitudeMeters>
            <DistanceMeters>NAN</DistanceMeters>
          </Trackpoint>
          <Trackpoint>
            <Time>2022-07-14T17:41:07.000Z</Time>
            <Position>
              <LatitudeDegrees>43.390784226357936859130859375</LatitudeDegrees>
              <LongitudeDegrees>-4.21698720194399356842041015625</LongitudeDegrees>
            </Position>
            <AltitudeMeters>87</AltitudeMeters>
            <DistanceMeters>NAN</DistanceMeters>
          </Trackpoint>
          <Trackpoint>
            <Time>2022-07-14T17:41:10.000Z</Time>
            <Position>
              <LatitudeDegrees>43.3909815363585948944091796875</LatitudeDegrees>
              <LongitudeDegrees>-4.21697747893631458282470703125</LongitudeDegrees>
            </Position>
            <AltitudeMeters>86.40000152587890625</AltitudeMeters>
            <DistanceMeters>NAN</DistanceMeters>
          </Trackpoint>
          <Trackpoint>
            <Time>2022-07-14T17:41:12.000Z</Time>
            <Position>
              <LatitudeDegrees>43.39110801927745342254638671875</LatitudeDegrees>
              <LongitudeDegrees>-4.2169607989490032196044921875</LongitudeDegrees>
            </Position>
            <AltitudeMeters>85.8000030517578125</AltitudeMeters>
            <DistanceMeters>NAN</DistanceMeters>
          </Trackpoint>
          <Trackpoint>
            <Time>2022-07-14T17:41:15.000Z</Time>
            <Position>
              <LatitudeDegrees>43.39126191101968288421630859375</LatitudeDegrees>
              <LongitudeDegrees>-4.21693121083080768585205078125</LongitudeDegrees>
            </Position>
            <AltitudeMeters>84.40000152587890625</AltitudeMeters>
            <DistanceMeters>NAN</DistanceMeters>
          </Trackpoint>
          <Trackpoint>
            <Time>2022-07-14T17:41:17.000Z</Time>
            <Position>
              <LatitudeDegrees>43.39134841226041316986083984375</LatitudeDegrees>
              <LongitudeDegrees>-4.216906316578388214111328125</LongitudeDegrees>
            </Position>
            <AltitudeMeters>83.40000152587890625</AltitudeMeters>
            <DistanceMeters>NAN</DistanceMeters>
          </Trackpoint>
          <Trackpoint>
            <Time>2022-07-14T17:41:19.000Z</Time>
            <Position>
              <LatitudeDegrees>43.3914435468614101409912109375</LatitudeDegrees>
              <LongitudeDegrees>-4.2168739624321460723876953125</LongitudeDegrees>
            </Position>
            <AltitudeMeters>82.1999969482421875</AltitudeMeters>
            <DistanceMeters>NAN</DistanceMeters>
          </Trackpoint>
          <Trackpoint>
            <Time>2022-07-14T17:41:21.000Z</Time>
            <Position>
              <LatitudeDegrees>43.39152309112250804901123046875</LatitudeDegrees>
              <LongitudeDegrees>-4.21683934517204761505126953125</LongitudeDegrees>
            </Position>
            <AltitudeMeters>81.59999847412109375</AltitudeMeters>
            <DistanceMeters>NAN</DistanceMeters>
          </Trackpoint>
          <Trackpoint>
            <Time>2022-07-14T17:41:22.000Z</Time>
            <Position>
              <LatitudeDegrees>43.39156030677258968353271484375</LatitudeDegrees>
              <LongitudeDegrees>-4.21682056970894336700439453125</LongitudeDegrees>
            </Position>
            <AltitudeMeters>81.1999969482421875</AltitudeMeters>
            <DistanceMeters>NAN</DistanceMeters>
          </Trackpoint>
          <Trackpoint>
            <Time>2022-07-14T17:41:25.000Z</Time>
            <Position>
              <LatitudeDegrees>43.39168083854019641876220703125</LatitudeDegrees>
              <LongitudeDegrees>-4.2167653329670429229736328125</LongitudeDegrees>
            </Position>
            <AltitudeMeters>79.59999847412109375</AltitudeMeters>
            <DistanceMeters>NAN</DistanceMeters>
          </Trackpoint>
          <Trackpoint>
            <Time>2022-07-14T17:41:29.000Z</Time>
            <Position>
              <LatitudeDegrees>43.39181645773351192474365234375</LatitudeDegrees>
              <LongitudeDegrees>-4.21668696217238903045654296875</LongitudeDegrees>
            </Position>
            <AltitudeMeters>78.40000152587890625</AltitudeMeters>
            <DistanceMeters>NAN</DistanceMeters>
          </Trackpoint>
          <Trackpoint>
            <Time>2022-07-14T17:41:30.000Z</Time>
            <Position>
              <LatitudeDegrees>43.39183607138693332672119140625</LatitudeDegrees>
              <LongitudeDegrees>-4.21666885726153850555419921875</LongitudeDegrees>
            </Position>
            <AltitudeMeters>77.8000030517578125</AltitudeMeters>
            <DistanceMeters>NAN</DistanceMeters>
          </Trackpoint>
          <Trackpoint>
            <Time>2022-07-14T17:41:31.000Z</Time>
            <Position>
              <LatitudeDegrees>43.39184612967073917388916015625</LatitudeDegrees>
              <LongitudeDegrees>-4.2166570387780666351318359375</LongitudeDegrees>
            </Position>
            <AltitudeMeters>77.40000152587890625</AltitudeMeters>
            <DistanceMeters>NAN</DistanceMeters>
          </Trackpoint>
          <Trackpoint>
            <Time>2022-07-14T17:41:33.000Z</Time>
            <Position>
              <LatitudeDegrees>43.39185015298426151275634765625</LatitudeDegrees>
              <LongitudeDegrees>-4.2166523449122905731201171875</LongitudeDegrees>
            </Position>
            <AltitudeMeters>76.8000030517578125</AltitudeMeters>
            <DistanceMeters>NAN</DistanceMeters>
          </Trackpoint>
          <Trackpoint>
            <Time>2022-07-14T17:41:34.000Z</Time>
            <Position>
              <LatitudeDegrees>43.39185015298426151275634765625</LatitudeDegrees>
              <LongitudeDegrees>-4.2166523449122905731201171875</LongitudeDegrees>
            </Position>
            <AltitudeMeters>76.8000030517578125</AltitudeMeters>
            <DistanceMeters>NAN</DistanceMeters>
          </Trackpoint>
          <Trackpoint>
            <Time>2022-07-14T17:41:35.000Z</Time>
            <Position>
              <LatitudeDegrees>43.39185015298426151275634765625</LatitudeDegrees>
              <LongitudeDegrees>-4.2166523449122905731201171875</LongitudeDegrees>
            </Position>
            <AltitudeMeters>76.59999847412109375</AltitudeMeters>
            <DistanceMeters>NAN</DistanceMeters>
          </Trackpoint>
          <Trackpoint>
            <Time>2022-07-14T17:42:39.000Z</Time>
            <Position>
              <LatitudeDegrees>43.391841016709804534912109375</LatitudeDegrees>
              <LongitudeDegrees>-4.216703474521636962890625</LongitudeDegrees>
            </Position>
            <AltitudeMeters>76</AltitudeMeters>
            <DistanceMeters>NAN</DistanceMeters>
          </Trackpoint>
          <Trackpoint>
            <Time>2022-07-14T17:42:40.000Z</Time>
            <Position>
              <LatitudeDegrees>43.3918240852653980255126953125</LatitudeDegrees>
              <LongitudeDegrees>-4.21672065742313861846923828125</LongitudeDegrees>
            </Position>
            <AltitudeMeters>76</AltitudeMeters>
            <DistanceMeters>NAN</DistanceMeters>
          </Trackpoint>
          <Trackpoint>
            <Time>2022-07-14T17:42:41.000Z</Time>
            <Position>
              <LatitudeDegrees>43.3918063156306743621826171875</LatitudeDegrees>
              <LongitudeDegrees>-4.21673423610627651214599609375</LongitudeDegrees>
            </Position>
            <AltitudeMeters>76.1999969482421875</AltitudeMeters>
            <DistanceMeters>NAN</DistanceMeters>
          </Trackpoint>
          <Trackpoint>
            <Time>2022-07-14T17:42:44.000Z</Time>
            <Position>
              <LatitudeDegrees>43.3917593769729137420654296875</LatitudeDegrees>
              <LongitudeDegrees>-4.21676675789058208465576171875</LongitudeDegrees>
            </Position>
            <AltitudeMeters>76.59999847412109375</AltitudeMeters>
            <DistanceMeters>NAN</DistanceMeters>
          </Trackpoint>
          <Trackpoint>
            <Time>2022-07-14T17:42:48.000Z</Time>
            <Position>
              <LatitudeDegrees>43.39168804697692394256591796875</LatitudeDegrees>
              <LongitudeDegrees>-4.21679978258907794952392578125</LongitudeDegrees>
            </Position>
            <AltitudeMeters>77</AltitudeMeters>
            <DistanceMeters>NAN</DistanceMeters>
          </Trackpoint>
          <Trackpoint>
            <Time>2022-07-14T17:42:49.000Z</Time>
            <Position>
              <LatitudeDegrees>43.3916701935231685638427734375</LatitudeDegrees>
              <LongitudeDegrees>-4.216808415949344635009765625</LongitudeDegrees>
            </Position>
            <AltitudeMeters>77.1999969482421875</AltitudeMeters>
            <DistanceMeters>NAN</DistanceMeters>
          </Trackpoint>
          <Trackpoint>
            <Time>2022-07-14T17:42:53.000Z</Time>
            <Position>
              <LatitudeDegrees>43.391597606241703033447265625</LatitudeDegrees>
              <LongitudeDegrees>-4.2168400995433330535888671875</LongitudeDegrees>
            </Position>
            <AltitudeMeters>78</AltitudeMeters>
            <DistanceMeters>NAN</DistanceMeters>
          </Trackpoint>
          <Trackpoint>
            <Time>2022-07-14T17:42:58.000Z</Time>
            <Position>
              <LatitudeDegrees>43.3915092609822750091552734375</LatitudeDegrees>
              <LongitudeDegrees>-4.2168789915740489959716796875</LongitudeDegrees>
            </Position>
            <AltitudeMeters>78.8000030517578125</AltitudeMeters>
            <DistanceMeters>NAN</DistanceMeters>
          </Trackpoint>
          <Trackpoint>
            <Time>2022-07-14T17:43:01.000Z</Time>
            <Position>
              <LatitudeDegrees>43.39145553298294544219970703125</LatitudeDegrees>
              <LongitudeDegrees>-4.21689701266586780548095703125</LongitudeDegrees>
            </Position>
            <AltitudeMeters>79.1999969482421875</AltitudeMeters>
            <DistanceMeters>NAN</DistanceMeters>
          </Trackpoint>
          <Trackpoint>
            <Time>2022-07-14T17:43:07.000Z</Time>
            <Position>
              <LatitudeDegrees>43.39135897345840930938720703125</LatitudeDegrees>
              <LongitudeDegrees>-4.2169396765530109405517578125</LongitudeDegrees>
            </Position>
            <AltitudeMeters>80</AltitudeMeters>
            <DistanceMeters>NAN</DistanceMeters>
          </Trackpoint>
          <Trackpoint>
            <Time>2022-07-14T17:43:09.000Z</Time>
            <Position>
              <LatitudeDegrees>43.3913241885602474212646484375</LatitudeDegrees>
              <LongitudeDegrees>-4.21694730408489704132080078125</LongitudeDegrees>
            </Position>
            <AltitudeMeters>80.40000152587890625</AltitudeMeters>
            <DistanceMeters>NAN</DistanceMeters>
          </Trackpoint>
          <Trackpoint>
            <Time>2022-07-14T17:43:16.000Z</Time>
            <Position>
              <LatitudeDegrees>43.391210027039051055908203125</LatitudeDegrees>
              <LongitudeDegrees>-4.2169913090765476226806640625</LongitudeDegrees>
            </Position>
            <AltitudeMeters>81.1999969482421875</AltitudeMeters>
            <DistanceMeters>NAN</DistanceMeters>
          </Trackpoint>
          <Trackpoint>
            <Time>2022-07-14T17:43:17.000Z</Time>
            <Position>
              <LatitudeDegrees>43.3911941014230251312255859375</LatitudeDegrees>
              <LongitudeDegrees>-4.21699575148522853851318359375</LongitudeDegrees>
            </Position>
            <AltitudeMeters>81.40000152587890625</AltitudeMeters>
            <DistanceMeters>NAN</DistanceMeters>
          </Trackpoint>
          <Trackpoint>
            <Time>2022-07-14T17:43:19.000Z</Time>
            <Position>
              <LatitudeDegrees>43.391165770590305328369140625</LatitudeDegrees>
              <LongitudeDegrees>-4.2170079052448272705078125</LongitudeDegrees>
            </Position>
            <AltitudeMeters>81.8000030517578125</AltitudeMeters>
            <DistanceMeters>NAN</DistanceMeters>
          </Trackpoint>
          <Trackpoint>
            <Time>2022-07-14T17:43:21.000Z</Time>
            <Position>
              <LatitudeDegrees>43.3911303989589214324951171875</LatitudeDegrees>
              <LongitudeDegrees>-4.21700765378773212432861328125</LongitudeDegrees>
            </Position>
            <AltitudeMeters>82</AltitudeMeters>
            <DistanceMeters>NAN</DistanceMeters>
          </Trackpoint>
          <Trackpoint>
            <Time>2022-07-14T17:43:22.000Z</Time>
            <Position>
              <LatitudeDegrees>43.39111338369548320770263671875</LatitudeDegrees>
              <LongitudeDegrees>-4.21700882725417613983154296875</LongitudeDegrees>
            </Position>
            <AltitudeMeters>82</AltitudeMeters>
            <DistanceMeters>NAN</DistanceMeters>
          </Trackpoint>
          <Trackpoint>
            <Time>2022-07-14T17:43:23.000Z</Time>
            <Position>
              <LatitudeDegrees>43.39109645225107669830322265625</LatitudeDegrees>
              <LongitudeDegrees>-4.217013604938983917236328125</LongitudeDegrees>
            </Position>
            <AltitudeMeters>82</AltitudeMeters>
            <DistanceMeters>NAN</DistanceMeters>
          </Trackpoint>
          <Trackpoint>
            <Time>2022-07-14T17:43:24.000Z</Time>
            <Position>
              <LatitudeDegrees>43.39107801206409931182861328125</LatitudeDegrees>
              <LongitudeDegrees>-4.21701368875801563262939453125</LongitudeDegrees>
            </Position>
            <AltitudeMeters>82.1999969482421875</AltitudeMeters>
            <DistanceMeters>NAN</DistanceMeters>
          </Trackpoint>
          <Trackpoint>
            <Time>2022-07-14T17:43:26.000Z</Time>
            <Position>
              <LatitudeDegrees>43.39104280807077884674072265625</LatitudeDegrees>
              <LongitudeDegrees>-4.2170191369950771331787109375</LongitudeDegrees>
            </Position>
            <AltitudeMeters>82.40000152587890625</AltitudeMeters>
            <DistanceMeters>NAN</DistanceMeters>
          </Trackpoint>
          <Trackpoint>
            <Time>2022-07-14T17:43:27.000Z</Time>
            <Position>
              <LatitudeDegrees>43.39102755300700664520263671875</LatitudeDegrees>
              <LongitudeDegrees>-4.2170194722712039947509765625</LongitudeDegrees>
            </Position>
            <AltitudeMeters>82.40000152587890625</AltitudeMeters>
            <DistanceMeters>NAN</DistanceMeters>
          </Trackpoint>
          <Trackpoint>
            <Time>2022-07-14T17:43:30.000Z</Time>
            <Position>
              <LatitudeDegrees>43.39097592048346996307373046875</LatitudeDegrees>
              <LongitudeDegrees>-4.21701720915734767913818359375</LongitudeDegrees>
            </Position>
            <AltitudeMeters>82.8000030517578125</AltitudeMeters>
            <DistanceMeters>NAN</DistanceMeters>
          </Trackpoint>
          <Trackpoint>
            <Time>2022-07-14T17:43:32.000Z</Time>
            <Position>
              <LatitudeDegrees>43.39094675146043300628662109375</LatitudeDegrees>
              <LongitudeDegrees>-4.21702760271728038787841796875</LongitudeDegrees>
            </Position>
            <AltitudeMeters>83</AltitudeMeters>
            <DistanceMeters>NAN</DistanceMeters>
          </Trackpoint>
          <Trackpoint>
            <Time>2022-07-14T17:43:33.000Z</Time>
            <Position>
              <LatitudeDegrees>43.3909305743873119354248046875</LatitudeDegrees>
              <LongitudeDegrees>-4.21702642925083637237548828125</LongitudeDegrees>
            </Position>
            <AltitudeMeters>83.1999969482421875</AltitudeMeters>
            <DistanceMeters>NAN</DistanceMeters>
          </Trackpoint>
          <Trackpoint>
            <Time>2022-07-14T17:43:36.000Z</Time>
            <Position>
              <LatitudeDegrees>43.39088086970150470733642578125</LatitudeDegrees>
              <LongitudeDegrees>-4.2170288600027561187744140625</LongitudeDegrees>
            </Position>
            <AltitudeMeters>83.40000152587890625</AltitudeMeters>
            <DistanceMeters>NAN</DistanceMeters>
          </Trackpoint>
          <Trackpoint>
            <Time>2022-07-14T17:43:37.000Z</Time>
            <Position>
              <LatitudeDegrees>43.3908631838858127593994140625</LatitudeDegrees>
              <LongitudeDegrees>-4.2170268483459949493408203125</LongitudeDegrees>
            </Position>
            <AltitudeMeters>83.59999847412109375</AltitudeMeters>
            <DistanceMeters>NAN</DistanceMeters>
          </Trackpoint>
          <Trackpoint>
            <Time>2022-07-14T17:43:42.000Z</Time>
            <Position>
              <LatitudeDegrees>43.390777520835399627685546875</LatitudeDegrees>
              <LongitudeDegrees>-4.21703548170626163482666015625</LongitudeDegrees>
            </Position>
            <AltitudeMeters>84</AltitudeMeters>
            <DistanceMeters>NAN</DistanceMeters>
          </Trackpoint>
          <Trackpoint>
            <Time>2022-07-14T17:43:48.000Z</Time>
            <Position>
              <LatitudeDegrees>43.39067802764475345611572265625</LatitudeDegrees>
              <LongitudeDegrees>-4.21704520471394062042236328125</LongitudeDegrees>
            </Position>
            <AltitudeMeters>84.40000152587890625</AltitudeMeters>
            <DistanceMeters>NAN</DistanceMeters>
          </Trackpoint>
          <Trackpoint>
            <Time>2022-07-14T17:43:50.000Z</Time>
            <Position>
              <LatitudeDegrees>43.39064567349851131439208984375</LatitudeDegrees>
              <LongitudeDegrees>-4.2170481383800506591796875</LongitudeDegrees>
            </Position>
            <AltitudeMeters>84.59999847412109375</AltitudeMeters>
            <DistanceMeters>NAN</DistanceMeters>
          </Trackpoint>
          <Trackpoint>
            <Time>2022-07-14T17:43:56.000Z</Time>
            <Position>
              <LatitudeDegrees>43.39055322110652923583984375</LatitudeDegrees>
              <LongitudeDegrees>-4.21706330962479114532470703125</LongitudeDegrees>
            </Position>
            <AltitudeMeters>85</AltitudeMeters>
            <DistanceMeters>NAN</DistanceMeters>
          </Trackpoint>
          <Trackpoint>
            <Time>2022-07-14T17:44:04.000Z</Time>
            <Position>
              <LatitudeDegrees>43.39042472653090953826904296875</LatitudeDegrees>
              <LongitudeDegrees>-4.21709516085684299468994140625</LongitudeDegrees>
            </Position>
            <AltitudeMeters>85.59999847412109375</AltitudeMeters>
            <DistanceMeters>NAN</DistanceMeters>
          </Trackpoint>
          <Trackpoint>
            <Time>2022-07-14T17:44:05.000Z</Time>
            <Position>
              <LatitudeDegrees>43.390408046543598175048828125</LatitudeDegrees>
              <LongitudeDegrees>-4.21709499321877956390380859375</LongitudeDegrees>
            </Position>
            <AltitudeMeters>85.59999847412109375</AltitudeMeters>
            <DistanceMeters>NAN</DistanceMeters>
          </Trackpoint>
          <Trackpoint>
            <Time>2022-07-14T17:44:10.000Z</Time>
            <Position>
              <LatitudeDegrees>43.39032582007348537445068359375</LatitudeDegrees>
              <LongitudeDegrees>-4.2170937359333038330078125</LongitudeDegrees>
            </Position>
            <AltitudeMeters>86</AltitudeMeters>
            <DistanceMeters>NAN</DistanceMeters>
          </Trackpoint>
          <Trackpoint>
            <Time>2022-07-14T17:44:13.000Z</Time>
            <Position>
              <LatitudeDegrees>43.39027184061706066131591796875</LatitudeDegrees>
              <LongitudeDegrees>-4.2170855216681957244873046875</LongitudeDegrees>
            </Position>
            <AltitudeMeters>86.40000152587890625</AltitudeMeters>
            <DistanceMeters>NAN</DistanceMeters>
          </Trackpoint>
          <Trackpoint>
            <Time>2022-07-14T17:44:16.000Z</Time>
            <Position>
              <LatitudeDegrees>43.39021132327616214752197265625</LatitudeDegrees>
              <LongitudeDegrees>-4.217084348201751708984375</LongitudeDegrees>
            </Position>
            <AltitudeMeters>86.59999847412109375</AltitudeMeters>
            <DistanceMeters>NAN</DistanceMeters>
          </Trackpoint>
          <Trackpoint>
            <Time>2022-07-14T17:44:17.000Z</Time>
            <Position>
              <LatitudeDegrees>43.39019715785980224609375</LatitudeDegrees>
              <LongitudeDegrees>-4.2170855216681957244873046875</LongitudeDegrees>
            </Position>
            <AltitudeMeters>86.8000030517578125</AltitudeMeters>
            <DistanceMeters>NAN</DistanceMeters>
          </Trackpoint>
          <Trackpoint>
            <Time>2022-07-14T17:44:25.000Z</Time>
            <Position>
              <LatitudeDegrees>43.39007151313126087188720703125</LatitudeDegrees>
              <LongitudeDegrees>-4.21708635985851287841796875</LongitudeDegrees>
            </Position>
            <AltitudeMeters>87.59999847412109375</AltitudeMeters>
            <DistanceMeters>NAN</DistanceMeters>
          </Trackpoint>
          <Trackpoint>
            <Time>2022-07-14T17:44:30.000Z</Time>
            <Position>
              <LatitudeDegrees>43.38997788727283477783203125</LatitudeDegrees>
              <LongitudeDegrees>-4.217045120894908905029296875</LongitudeDegrees>
            </Position>
            <AltitudeMeters>88</AltitudeMeters>
            <DistanceMeters>NAN</DistanceMeters>
          </Trackpoint>
          <Trackpoint>
            <Time>2022-07-14T17:44:34.000Z</Time>
            <Position>
              <LatitudeDegrees>43.389887697994709014892578125</LatitudeDegrees>
              <LongitudeDegrees>-4.2170117609202861785888671875</LongitudeDegrees>
            </Position>
            <AltitudeMeters>88.1999969482421875</AltitudeMeters>
            <DistanceMeters>NAN</DistanceMeters>
          </Trackpoint>
          <Trackpoint>
            <Time>2022-07-14T17:44:43.000Z</Time>
            <Position>
              <LatitudeDegrees>43.38969214819371700286865234375</LatitudeDegrees>
              <LongitudeDegrees>-4.21695350669324398040771484375</LongitudeDegrees>
            </Position>
            <AltitudeMeters>89</AltitudeMeters>
            <DistanceMeters>NAN</DistanceMeters>
          </Trackpoint>
          <Trackpoint>
            <Time>2022-07-14T17:44:44.000Z</Time>
            <Position>
              <LatitudeDegrees>43.38967286981642246246337890625</LatitudeDegrees>
              <LongitudeDegrees>-4.21694428659975528717041015625</LongitudeDegrees>
            </Position>
            <AltitudeMeters>89</AltitudeMeters>
            <DistanceMeters>NAN</DistanceMeters>
          </Trackpoint>
          <Trackpoint>
            <Time>2022-07-14T17:44:54.000Z</Time>
            <Position>
              <LatitudeDegrees>43.3894603885710239410400390625</LatitudeDegrees>
              <LongitudeDegrees>-4.2168442904949188232421875</LongitudeDegrees>
            </Position>
            <AltitudeMeters>89.59999847412109375</AltitudeMeters>
            <DistanceMeters>NAN</DistanceMeters>
          </Trackpoint>
          <Trackpoint>
            <Time>2022-07-14T17:44:59.000Z</Time>
            <Position>
              <LatitudeDegrees>43.38932518847286701202392578125</LatitudeDegrees>
              <LongitudeDegrees>-4.2167804203927516937255859375</LongitudeDegrees>
            </Position>
            <AltitudeMeters>89.8000030517578125</AltitudeMeters>
            <DistanceMeters>NAN</DistanceMeters>
          </Trackpoint>
          <Trackpoint>
            <Time>2022-07-14T17:45:02.000Z</Time>
            <Position>
              <LatitudeDegrees>43.3892310597002506256103515625</LatitudeDegrees>
              <LongitudeDegrees>-4.216734655201435089111328125</LongitudeDegrees>
            </Position>
            <AltitudeMeters>89.8000030517578125</AltitudeMeters>
            <DistanceMeters>NAN</DistanceMeters>
          </Trackpoint>
          <Trackpoint>
            <Time>2022-07-14T17:45:10.000Z</Time>
            <Position>
              <LatitudeDegrees>43.38894850574433803558349609375</LatitudeDegrees>
              <LongitudeDegrees>-4.2166265286505222320556640625</LongitudeDegrees>
            </Position>
            <AltitudeMeters>89.8000030517578125</AltitudeMeters>
            <DistanceMeters>NAN</DistanceMeters>
          </Trackpoint>
          <Trackpoint>
            <Time>2022-07-14T17:45:11.000Z</Time>
            <Position>
              <LatitudeDegrees>43.38890676386654376983642578125</LatitudeDegrees>
              <LongitudeDegrees>-4.21660766936838626861572265625</LongitudeDegrees>
            </Position>
            <AltitudeMeters>89.8000030517578125</AltitudeMeters>
            <DistanceMeters>NAN</DistanceMeters>
          </Trackpoint>
          <Trackpoint>
            <Time>2022-07-14T17:45:17.000Z</Time>
            <Position>
              <LatitudeDegrees>43.3886899240314960479736328125</LatitudeDegrees>
              <LongitudeDegrees>-4.21647774986922740936279296875</LongitudeDegrees>
            </Position>
            <AltitudeMeters>89.8000030517578125</AltitudeMeters>
            <DistanceMeters>NAN</DistanceMeters>
          </Trackpoint>
          <Trackpoint>
            <Time>2022-07-14T17:45:18.000Z</Time>
            <Position>
              <LatitudeDegrees>43.38865480385720729827880859375</LatitudeDegrees>
              <LongitudeDegrees>-4.21644690446555614471435546875</LongitudeDegrees>
            </Position>
            <AltitudeMeters>89.8000030517578125</AltitudeMeters>
            <DistanceMeters>NAN</DistanceMeters>
          </Trackpoint>
          <Trackpoint>
            <Time>2022-07-14T17:45:24.000Z</Time>
            <Position>
              <LatitudeDegrees>43.38847207836806774139404296875</LatitudeDegrees>
              <LongitudeDegrees>-4.21620986424386501312255859375</LongitudeDegrees>
            </Position>
            <AltitudeMeters>89.59999847412109375</AltitudeMeters>
            <DistanceMeters>NAN</DistanceMeters>
          </Trackpoint>
          <Trackpoint>
            <Time>2022-07-14T17:45:31.000Z</Time>
            <Position>
              <LatitudeDegrees>43.3882678113877773284912109375</LatitudeDegrees>
              <LongitudeDegrees>-4.2157928645610809326171875</LongitudeDegrees>
            </Position>
            <AltitudeMeters>88.8000030517578125</AltitudeMeters>
            <DistanceMeters>NAN</DistanceMeters>
          </Trackpoint>
          <Trackpoint>
            <Time>2022-07-14T17:45:39.000Z</Time>
            <Position>
              <LatitudeDegrees>43.38801660574972629547119140625</LatitudeDegrees>
              <LongitudeDegrees>-4.21529254876077175140380859375</LongitudeDegrees>
            </Position>
            <AltitudeMeters>88</AltitudeMeters>
            <DistanceMeters>NAN</DistanceMeters>
          </Trackpoint>
          <Trackpoint>
            <Time>2022-07-14T17:45:40.000Z</Time>
            <Position>
              <LatitudeDegrees>43.38798894546926021575927734375</LatitudeDegrees>
              <LongitudeDegrees>-4.21523270197212696075439453125</LongitudeDegrees>
            </Position>
            <AltitudeMeters>88</AltitudeMeters>
            <DistanceMeters>NAN</DistanceMeters>
          </Trackpoint>
          <Trackpoint>
            <Time>2022-07-14T17:45:48.000Z</Time>
            <Position>
              <LatitudeDegrees>43.3877729438245296478271484375</LatitudeDegrees>
              <LongitudeDegrees>-4.21479768119752407073974609375</LongitudeDegrees>
            </Position>
            <AltitudeMeters>88</AltitudeMeters>
            <DistanceMeters>NAN</DistanceMeters>
          </Trackpoint>
          <Trackpoint>
            <Time>2022-07-14T17:45:50.000Z</Time>
            <Position>
              <LatitudeDegrees>43.3877226524055004119873046875</LatitudeDegrees>
              <LongitudeDegrees>-4.2147077433764934539794921875</LongitudeDegrees>
            </Position>
            <AltitudeMeters>87.8000030517578125</AltitudeMeters>
            <DistanceMeters>NAN</DistanceMeters>
          </Trackpoint>
          <Trackpoint>
            <Time>2022-07-14T17:45:53.000Z</Time>
            <Position>
              <LatitudeDegrees>43.38764511980116367340087890625</LatitudeDegrees>
              <LongitudeDegrees>-4.2146073281764984130859375</LongitudeDegrees>
            </Position>
            <AltitudeMeters>87.59999847412109375</AltitudeMeters>
            <DistanceMeters>NAN</DistanceMeters>
          </Trackpoint>
          <Trackpoint>
            <Time>2022-07-14T17:45:55.000Z</Time>
            <Position>
              <LatitudeDegrees>43.3875885419547557830810546875</LatitudeDegrees>
              <LongitudeDegrees>-4.214638508856296539306640625</LongitudeDegrees>
            </Position>
            <AltitudeMeters>87.8000030517578125</AltitudeMeters>
            <DistanceMeters>NAN</DistanceMeters>
          </Trackpoint>
          <Trackpoint>
            <Time>2022-07-14T17:45:56.000Z</Time>
            <Position>
              <LatitudeDegrees>43.387563228607177734375</LatitudeDegrees>
              <LongitudeDegrees>-4.21468335203826427459716796875</LongitudeDegrees>
            </Position>
            <AltitudeMeters>87.8000030517578125</AltitudeMeters>
            <DistanceMeters>NAN</DistanceMeters>
          </Trackpoint>
          <Trackpoint>
            <Time>2022-07-14T17:46:02.000Z</Time>
            <Position>
              <LatitudeDegrees>43.3874671719968318939208984375</LatitudeDegrees>
              <LongitudeDegrees>-4.2149882018566131591796875</LongitudeDegrees>
            </Position>
            <AltitudeMeters>87.8000030517578125</AltitudeMeters>
            <DistanceMeters>NAN</DistanceMeters>
          </Trackpoint>
          <Trackpoint>
            <Time>2022-07-14T17:46:09.000Z</Time>
            <Position>
              <LatitudeDegrees>43.3873662538826465606689453125</LatitudeDegrees>
              <LongitudeDegrees>-4.21530528925359249114990234375</LongitudeDegrees>
            </Position>
            <AltitudeMeters>88</AltitudeMeters>
            <DistanceMeters>NAN</DistanceMeters>
          </Trackpoint>
          <Trackpoint>
            <Time>2022-07-14T17:46:16.000Z</Time>
            <Position>
              <LatitudeDegrees>43.38725854642689228057861328125</LatitudeDegrees>
              <LongitudeDegrees>-4.2155737616121768951416015625</LongitudeDegrees>
            </Position>
            <AltitudeMeters>88.8000030517578125</AltitudeMeters>
            <DistanceMeters>NAN</DistanceMeters>
          </Trackpoint>
          <Trackpoint>
            <Time>2022-07-14T17:46:18.000Z</Time>
            <Position>
              <LatitudeDegrees>43.38723608292639255523681640625</LatitudeDegrees>
              <LongitudeDegrees>-4.21563134528696537017822265625</LongitudeDegrees>
            </Position>
            <AltitudeMeters>89</AltitudeMeters>
            <DistanceMeters>NAN</DistanceMeters>
          </Trackpoint>
          <Trackpoint>
            <Time>2022-07-14T17:46:23.000Z</Time>
            <Position>
              <LatitudeDegrees>43.38716693222522735595703125</LatitudeDegrees>
              <LongitudeDegrees>-4.21581859700381755828857421875</LongitudeDegrees>
            </Position>
            <AltitudeMeters>89.40000152587890625</AltitudeMeters>
            <DistanceMeters>NAN</DistanceMeters>
          </Trackpoint>
          <Trackpoint>
            <Time>2022-07-14T17:46:26.000Z</Time>
            <Position>
              <LatitudeDegrees>43.3871407806873321533203125</LatitudeDegrees>
              <LongitudeDegrees>-4.21592119149863719940185546875</LongitudeDegrees>
            </Position>
            <AltitudeMeters>89.59999847412109375</AltitudeMeters>
            <DistanceMeters>NAN</DistanceMeters>
          </Trackpoint>
          <Trackpoint>
            <Time>2022-07-14T17:46:33.000Z</Time>
            <Position>
              <LatitudeDegrees>43.38709107600152492523193359375</LatitudeDegrees>
              <LongitudeDegrees>-4.21620659530162811279296875</LongitudeDegrees>
            </Position>
            <AltitudeMeters>90</AltitudeMeters>
            <DistanceMeters>NAN</DistanceMeters>
          </Trackpoint>
          <Trackpoint>
            <Time>2022-07-14T17:46:43.000Z</Time>
            <Position>
              <LatitudeDegrees>43.3870712108910083770751953125</LatitudeDegrees>
              <LongitudeDegrees>-4.21658000908792018890380859375</LongitudeDegrees>
            </Position>
            <AltitudeMeters>90.8000030517578125</AltitudeMeters>
            <DistanceMeters>NAN</DistanceMeters>
          </Trackpoint>
          <Trackpoint>
            <Time>2022-07-14T17:46:46.000Z</Time>
            <Position>
              <LatitudeDegrees>43.38706500828266143798828125</LatitudeDegrees>
              <LongitudeDegrees>-4.21669467352330684661865234375</LongitudeDegrees>
            </Position>
            <AltitudeMeters>91</AltitudeMeters>
            <DistanceMeters>NAN</DistanceMeters>
          </Trackpoint>
          <Trackpoint>
            <Time>2022-07-14T17:46:52.000Z</Time>
            <Position>
              <LatitudeDegrees>43.38706777431070804595947265625</LatitudeDegrees>
              <LongitudeDegrees>-4.21690355055034160614013671875</LongitudeDegrees>
            </Position>
            <AltitudeMeters>91.59999847412109375</AltitudeMeters>
            <DistanceMeters>NAN</DistanceMeters>
          </Trackpoint>
          <Trackpoint>
            <Time>2022-07-14T17:46:53.000Z</Time>
            <Position>
              <LatitudeDegrees>43.387068025767803192138671875</LatitudeDegrees>
              <LongitudeDegrees>-4.21694110147655010223388671875</LongitudeDegrees>
            </Position>
            <AltitudeMeters>91.59999847412109375</AltitudeMeters>
            <DistanceMeters>NAN</DistanceMeters>
          </Trackpoint>
          <Trackpoint>
            <Time>2022-07-14T17:46:57.000Z</Time>
            <Position>
              <LatitudeDegrees>43.387061655521392822265625</LatitudeDegrees>
              <LongitudeDegrees>-4.217093400657176971435546875</LongitudeDegrees>
            </Position>
            <AltitudeMeters>91.8000030517578125</AltitudeMeters>
            <DistanceMeters>NAN</DistanceMeters>
          </Trackpoint>
          <Trackpoint>
            <Time>2022-07-14T17:47:02.000Z</Time>
            <Position>
              <LatitudeDegrees>43.38703944347798824310302734375</LatitudeDegrees>
              <LongitudeDegrees>-4.2172964103519916534423828125</LongitudeDegrees>
            </Position>
            <AltitudeMeters>92</AltitudeMeters>
            <DistanceMeters>NAN</DistanceMeters>
          </Trackpoint>
          <Trackpoint>
            <Time>2022-07-14T17:47:04.000Z</Time>
            <Position>
              <LatitudeDegrees>43.38701815344393253326416015625</LatitudeDegrees>
              <LongitudeDegrees>-4.2173874378204345703125</LongitudeDegrees>
            </Position>
            <AltitudeMeters>92</AltitudeMeters>
            <DistanceMeters>NAN</DistanceMeters>
          </Trackpoint>
          <Trackpoint>
            <Time>2022-07-14T17:47:09.000Z</Time>
            <Position>
              <LatitudeDegrees>43.386939950287342071533203125</LatitudeDegrees>
              <LongitudeDegrees>-4.217611066997051239013671875</LongitudeDegrees>
            </Position>
            <AltitudeMeters>92.1999969482421875</AltitudeMeters>
            <DistanceMeters>NAN</DistanceMeters>
          </Trackpoint>
          <Trackpoint>
            <Time>2022-07-14T17:47:14.000Z</Time>
            <Position>
              <LatitudeDegrees>43.3867936022579669952392578125</LatitudeDegrees>
              <LongitudeDegrees>-4.21782271005213260650634765625</LongitudeDegrees>
            </Position>
            <AltitudeMeters>91.8000030517578125</AltitudeMeters>
            <DistanceMeters>NAN</DistanceMeters>
          </Trackpoint>
          <Trackpoint>
            <Time>2022-07-14T17:47:16.000Z</Time>
            <Position>
              <LatitudeDegrees>43.38671070523560047149658203125</LatitudeDegrees>
              <LongitudeDegrees>-4.21790736727416515350341796875</LongitudeDegrees>
            </Position>
            <AltitudeMeters>91.59999847412109375</AltitudeMeters>
            <DistanceMeters>NAN</DistanceMeters>
          </Trackpoint>
          <Trackpoint>
            <Time>2022-07-14T17:47:19.000Z</Time>
            <Position>
              <LatitudeDegrees>43.3865535445511341094970703125</LatitudeDegrees>
              <LongitudeDegrees>-4.21802940778434276580810546875</LongitudeDegrees>
            </Position>
            <AltitudeMeters>91</AltitudeMeters>
            <DistanceMeters>NAN</DistanceMeters>
          </Trackpoint>
          <Trackpoint>
            <Time>2022-07-14T17:47:21.000Z</Time>
            <Position>
              <LatitudeDegrees>43.38644407689571380615234375</LatitudeDegrees>
              <LongitudeDegrees>-4.21811020933091640472412109375</LongitudeDegrees>
            </Position>
            <AltitudeMeters>90.40000152587890625</AltitudeMeters>
            <DistanceMeters>NAN</DistanceMeters>
          </Trackpoint>
          <Trackpoint>
            <Time>2022-07-14T17:47:23.000Z</Time>
            <Position>
              <LatitudeDegrees>43.38631340302526950836181640625</LatitudeDegrees>
              <LongitudeDegrees>-4.21821347437798976898193359375</LongitudeDegrees>
            </Position>
            <AltitudeMeters>89.8000030517578125</AltitudeMeters>
            <DistanceMeters>NAN</DistanceMeters>
          </Trackpoint>
          <Trackpoint>
            <Time>2022-07-14T17:47:25.000Z</Time>
            <Position>
              <LatitudeDegrees>43.38617962785065174102783203125</LatitudeDegrees>
              <LongitudeDegrees>-4.2183516919612884521484375</LongitudeDegrees>
            </Position>
            <AltitudeMeters>89</AltitudeMeters>
            <DistanceMeters>NAN</DistanceMeters>
          </Trackpoint>
          <Trackpoint>
            <Time>2022-07-14T17:47:26.000Z</Time>
            <Position>
              <LatitudeDegrees>43.3861126564443111419677734375</LatitudeDegrees>
              <LongitudeDegrees>-4.2184350080788135528564453125</LongitudeDegrees>
            </Position>
            <AltitudeMeters>88.40000152587890625</AltitudeMeters>
            <DistanceMeters>NAN</DistanceMeters>
          </Trackpoint>
          <Trackpoint>
            <Time>2022-07-14T17:47:28.000Z</Time>
            <Position>
              <LatitudeDegrees>43.385994471609592437744140625</LatitudeDegrees>
              <LongitudeDegrees>-4.2186328209936618804931640625</LongitudeDegrees>
            </Position>
            <AltitudeMeters>87.40000152587890625</AltitudeMeters>
            <DistanceMeters>NAN</DistanceMeters>
          </Trackpoint>
          <Trackpoint>
            <Time>2022-07-14T17:47:29.000Z</Time>
            <Position>
              <LatitudeDegrees>43.3859396539628505706787109375</LatitudeDegrees>
              <LongitudeDegrees>-4.21877489425241947174072265625</LongitudeDegrees>
            </Position>
            <AltitudeMeters>87</AltitudeMeters>
            <DistanceMeters>NAN</DistanceMeters>
          </Trackpoint>
          <Trackpoint>
            <Time>2022-07-14T17:47:30.000Z</Time>
            <Position>
              <LatitudeDegrees>43.38591543026268482208251953125</LatitudeDegrees>
              <LongitudeDegrees>-4.21887782402336597442626953125</LongitudeDegrees>
            </Position>
            <AltitudeMeters>86.59999847412109375</AltitudeMeters>
            <DistanceMeters>NAN</DistanceMeters>
          </Trackpoint>
          <Trackpoint>
            <Time>2022-07-14T17:47:31.000Z</Time>
            <Position>
              <LatitudeDegrees>43.3858943916857242584228515625</LatitudeDegrees>
              <LongitudeDegrees>-4.21904160641133785247802734375</LongitudeDegrees>
            </Position>
            <AltitudeMeters>86.1999969482421875</AltitudeMeters>
            <DistanceMeters>NAN</DistanceMeters>
          </Trackpoint>
          <Trackpoint>
            <Time>2022-07-14T17:47:32.000Z</Time>
            <Position>
              <LatitudeDegrees>43.38589363731443881988525390625</LatitudeDegrees>
              <LongitudeDegrees>-4.21918426640331745147705078125</LongitudeDegrees>
            </Position>
            <AltitudeMeters>85.59999847412109375</AltitudeMeters>
            <DistanceMeters>NAN</DistanceMeters>
          </Trackpoint>
          <Trackpoint>
            <Time>2022-07-14T17:47:34.000Z</Time>
            <Position>
              <LatitudeDegrees>43.38594191707670688629150390625</LatitudeDegrees>
              <LongitudeDegrees>-4.2194676585495471954345703125</LongitudeDegrees>
            </Position>
            <AltitudeMeters>84.8000030517578125</AltitudeMeters>
            <DistanceMeters>NAN</DistanceMeters>
          </Trackpoint>
          <Trackpoint>
            <Time>2022-07-14T17:47:35.000Z</Time>
            <Position>
              <LatitudeDegrees>43.38599371723830699920654296875</LatitudeDegrees>
              <LongitudeDegrees>-4.2196037806570529937744140625</LongitudeDegrees>
            </Position>
            <AltitudeMeters>84</AltitudeMeters>
            <DistanceMeters>NAN</DistanceMeters>
          </Trackpoint>
          <Trackpoint>
            <Time>2022-07-14T17:47:36.000Z</Time>
            <Position>
              <LatitudeDegrees>43.38606043718755245208740234375</LatitudeDegrees>
              <LongitudeDegrees>-4.21973294578492641448974609375</LongitudeDegrees>
            </Position>
            <AltitudeMeters>83.1999969482421875</AltitudeMeters>
            <DistanceMeters>NAN</DistanceMeters>
          </Trackpoint>
          <Trackpoint>
            <Time>2022-07-14T17:47:37.000Z</Time>
            <Position>
              <LatitudeDegrees>43.38613637723028659820556640625</LatitudeDegrees>
              <LongitudeDegrees>-4.21984392218291759490966796875</LongitudeDegrees>
            </Position>
            <AltitudeMeters>82.40000152587890625</AltitudeMeters>
            <DistanceMeters>NAN</DistanceMeters>
          </Trackpoint>
          <Trackpoint>
            <Time>2022-07-14T17:47:38.000Z</Time>
            <Position>
              <LatitudeDegrees>43.38622086681425571441650390625</LatitudeDegrees>
              <LongitudeDegrees>-4.2199497856199741363525390625</LongitudeDegrees>
            </Position>
            <AltitudeMeters>81.59999847412109375</AltitudeMeters>
            <DistanceMeters>NAN</DistanceMeters>
          </Trackpoint>
          <Trackpoint>
            <Time>2022-07-14T17:47:39.000Z</Time>
            <Position>
              <LatitudeDegrees>43.38631507940590381622314453125</LatitudeDegrees>
              <LongitudeDegrees>-4.2200493626296520233154296875</LongitudeDegrees>
            </Position>
            <AltitudeMeters>80.8000030517578125</AltitudeMeters>
            <DistanceMeters>NAN</DistanceMeters>
          </Trackpoint>
          <Trackpoint>
            <Time>2022-07-14T17:47:40.000Z</Time>
            <Position>
              <LatitudeDegrees>43.3864144049584865570068359375</LatitudeDegrees>
              <LongitudeDegrees>-4.22013846226036548614501953125</LongitudeDegrees>
            </Position>
            <AltitudeMeters>80.1999969482421875</AltitudeMeters>
            <DistanceMeters>NAN</DistanceMeters>
          </Trackpoint>
          <Trackpoint>
            <Time>2022-07-14T17:47:41.000Z</Time>
            <Position>
              <LatitudeDegrees>43.3865102939307689666748046875</LatitudeDegrees>
              <LongitudeDegrees>-4.22021842561662197113037109375</LongitudeDegrees>
            </Position>
            <AltitudeMeters>79.59999847412109375</AltitudeMeters>
            <DistanceMeters>NAN</DistanceMeters>
          </Trackpoint>
          <Trackpoint>
            <Time>2022-07-14T17:47:43.000Z</Time>
            <Position>
              <LatitudeDegrees>43.38669897057116031646728515625</LatitudeDegrees>
              <LongitudeDegrees>-4.2203859798610210418701171875</LongitudeDegrees>
            </Position>
            <AltitudeMeters>78.1999969482421875</AltitudeMeters>
            <DistanceMeters>NAN</DistanceMeters>
          </Trackpoint>
          <Trackpoint>
            <Time>2022-07-14T17:47:45.000Z</Time>
            <Position>
              <LatitudeDegrees>43.38689510710537433624267578125</LatitudeDegrees>
              <LongitudeDegrees>-4.22053878195583820343017578125</LongitudeDegrees>
            </Position>
            <AltitudeMeters>77</AltitudeMeters>
            <DistanceMeters>NAN</DistanceMeters>
          </Trackpoint>
          <Trackpoint>
            <Time>2022-07-14T17:47:46.000Z</Time>
            <Position>
              <LatitudeDegrees>43.3869957737624645233154296875</LatitudeDegrees>
              <LongitudeDegrees>-4.2206210084259510040283203125</LongitudeDegrees>
            </Position>
            <AltitudeMeters>75.59999847412109375</AltitudeMeters>
            <DistanceMeters>NAN</DistanceMeters>
          </Trackpoint>
          <Trackpoint>
            <Time>2022-07-14T17:47:47.000Z</Time>
            <Position>
              <LatitudeDegrees>43.38709451258182525634765625</LatitudeDegrees>
              <LongitudeDegrees>-4.220712371170520782470703125</LongitudeDegrees>
            </Position>
            <AltitudeMeters>74.8000030517578125</AltitudeMeters>
            <DistanceMeters>NAN</DistanceMeters>
          </Trackpoint>
          <Trackpoint>
            <Time>2022-07-14T17:47:48.000Z</Time>
            <Position>
              <LatitudeDegrees>43.3871885575354099273681640625</LatitudeDegrees>
              <LongitudeDegrees>-4.220811612904071807861328125</LongitudeDegrees>
            </Position>
            <AltitudeMeters>74.1999969482421875</AltitudeMeters>
            <DistanceMeters>NAN</DistanceMeters>
          </Trackpoint>
          <Trackpoint>
            <Time>2022-07-14T17:47:49.000Z</Time>
            <Position>
              <LatitudeDegrees>43.38727296330034732818603515625</LatitudeDegrees>
              <LongitudeDegrees>-4.2209200747311115264892578125</LongitudeDegrees>
            </Position>
            <AltitudeMeters>73.40000152587890625</AltitudeMeters>
            <DistanceMeters>NAN</DistanceMeters>
          </Trackpoint>
          <Trackpoint>
            <Time>2022-07-14T17:47:50.000Z</Time>
            <Position>
              <LatitudeDegrees>43.38734571821987628936767578125</LatitudeDegrees>
              <LongitudeDegrees>-4.22104471363127231597900390625</LongitudeDegrees>
            </Position>
            <AltitudeMeters>73</AltitudeMeters>
            <DistanceMeters>NAN</DistanceMeters>
          </Trackpoint>
          <Trackpoint>
            <Time>2022-07-14T17:47:51.000Z</Time>
            <Position>
              <LatitudeDegrees>43.38740372098982334136962890625</LatitudeDegrees>
              <LongitudeDegrees>-4.22117999754846096038818359375</LongitudeDegrees>
            </Position>
            <AltitudeMeters>72.40000152587890625</AltitudeMeters>
            <DistanceMeters>NAN</DistanceMeters>
          </Trackpoint>
          <Trackpoint>
            <Time>2022-07-14T17:47:52.000Z</Time>
            <Position>
              <LatitudeDegrees>43.38744143955409526824951171875</LatitudeDegrees>
              <LongitudeDegrees>-4.2213327996432781219482421875</LongitudeDegrees>
            </Position>
            <AltitudeMeters>71.8000030517578125</AltitudeMeters>
            <DistanceMeters>NAN</DistanceMeters>
          </Trackpoint>
          <Trackpoint>
            <Time>2022-07-14T17:47:53.000Z</Time>
            <Position>
              <LatitudeDegrees>43.387453258037567138671875</LatitudeDegrees>
              <LongitudeDegrees>-4.2214950732886791229248046875</LongitudeDegrees>
            </Position>
            <AltitudeMeters>71</AltitudeMeters>
            <DistanceMeters>NAN</DistanceMeters>
          </Trackpoint>
          <Trackpoint>
            <Time>2022-07-14T17:47:54.000Z</Time>
            <Position>
              <LatitudeDegrees>43.3874519169330596923828125</LatitudeDegrees>
              <LongitudeDegrees>-4.22165072523057460784912109375</LongitudeDegrees>
            </Position>
            <AltitudeMeters>70.59999847412109375</AltitudeMeters>
            <DistanceMeters>NAN</DistanceMeters>
          </Trackpoint>
          <Trackpoint>
            <Time>2022-07-14T17:47:55.000Z</Time>
            <Position>
              <LatitudeDegrees>43.38743724860250949859619140625</LatitudeDegrees>
              <LongitudeDegrees>-4.2218048684298992156982421875</LongitudeDegrees>
            </Position>
            <AltitudeMeters>69.8000030517578125</AltitudeMeters>
            <DistanceMeters>NAN</DistanceMeters>
          </Trackpoint>
          <Trackpoint>
            <Time>2022-07-14T17:47:56.000Z</Time>
            <Position>
              <LatitudeDegrees>43.3874051459133625030517578125</LatitudeDegrees>
              <LongitudeDegrees>-4.22195884399116039276123046875</LongitudeDegrees>
            </Position>
            <AltitudeMeters>69.1999969482421875</AltitudeMeters>
            <DistanceMeters>NAN</DistanceMeters>
          </Trackpoint>
          <Trackpoint>
            <Time>2022-07-14T17:47:57.000Z</Time>
            <Position>
              <LatitudeDegrees>43.387362062931060791015625</LatitudeDegrees>
              <LongitudeDegrees>-4.22210971824824810028076171875</LongitudeDegrees>
            </Position>
            <AltitudeMeters>68</AltitudeMeters>
            <DistanceMeters>NAN</DistanceMeters>
          </Trackpoint>
          <Trackpoint>
            <Time>2022-07-14T17:47:59.000Z</Time>
            <Position>
              <LatitudeDegrees>43.387253768742084503173828125</LatitudeDegrees>
              <LongitudeDegrees>-4.22239822335541248321533203125</LongitudeDegrees>
            </Position>
            <AltitudeMeters>66.8000030517578125</AltitudeMeters>
            <DistanceMeters>NAN</DistanceMeters>
          </Trackpoint>
          <Trackpoint>
            <Time>2022-07-14T17:48:00.000Z</Time>
            <Position>
              <LatitudeDegrees>43.38719434104859828948974609375</LatitudeDegrees>
              <LongitudeDegrees>-4.22253820113837718963623046875</LongitudeDegrees>
            </Position>
            <AltitudeMeters>65.59999847412109375</AltitudeMeters>
            <DistanceMeters>NAN</DistanceMeters>
          </Trackpoint>
          <Trackpoint>
            <Time>2022-07-14T17:48:01.000Z</Time>
            <Position>
              <LatitudeDegrees>43.38713399134576320648193359375</LatitudeDegrees>
              <LongitudeDegrees>-4.22267742455005645751953125</LongitudeDegrees>
            </Position>
            <AltitudeMeters>64.8000030517578125</AltitudeMeters>
            <DistanceMeters>NAN</DistanceMeters>
          </Trackpoint>
          <Trackpoint>
            <Time>2022-07-14T17:48:02.000Z</Time>
            <Position>
              <LatitudeDegrees>43.38707213290035724639892578125</LatitudeDegrees>
              <LongitudeDegrees>-4.22281480394303798675537109375</LongitudeDegrees>
            </Position>
            <AltitudeMeters>64.1999969482421875</AltitudeMeters>
            <DistanceMeters>NAN</DistanceMeters>
          </Trackpoint>
          <Trackpoint>
            <Time>2022-07-14T17:48:03.000Z</Time>
            <Position>
              <LatitudeDegrees>43.387006334960460662841796875</LatitudeDegrees>
              <LongitudeDegrees>-4.22294438816606998443603515625</LongitudeDegrees>
            </Position>
            <AltitudeMeters>63.40000152587890625</AltitudeMeters>
            <DistanceMeters>NAN</DistanceMeters>
          </Trackpoint>
          <Trackpoint>
            <Time>2022-07-14T17:48:04.000Z</Time>
            <Position>
              <LatitudeDegrees>43.38693249039351940155029296875</LatitudeDegrees>
              <LongitudeDegrees>-4.22306491993367671966552734375</LongitudeDegrees>
            </Position>
            <AltitudeMeters>62.799999237060546875</AltitudeMeters>
            <DistanceMeters>NAN</DistanceMeters>
          </Trackpoint>
          <Trackpoint>
            <Time>2022-07-14T17:48:05.000Z</Time>
            <Position>
              <LatitudeDegrees>43.38685470633208751678466796875</LatitudeDegrees>
              <LongitudeDegrees>-4.223173297941684722900390625</LongitudeDegrees>
            </Position>
            <AltitudeMeters>62</AltitudeMeters>
            <DistanceMeters>NAN</DistanceMeters>
          </Trackpoint>
          <Trackpoint>
            <Time>2022-07-14T17:48:06.000Z</Time>
            <Position>
              <LatitudeDegrees>43.3867724798619747161865234375</LatitudeDegrees>
              <LongitudeDegrees>-4.22326885163784027099609375</LongitudeDegrees>
            </Position>
            <AltitudeMeters>61.59999847412109375</AltitudeMeters>
            <DistanceMeters>NAN</DistanceMeters>
          </Trackpoint>
          <Trackpoint>
            <Time>2022-07-14T17:48:08.000Z</Time>
            <Position>
              <LatitudeDegrees>43.38659520260989665985107421875</LatitudeDegrees>
              <LongitudeDegrees>-4.223427437245845794677734375</LongitudeDegrees>
            </Position>
            <AltitudeMeters>60.799999237060546875</AltitudeMeters>
            <DistanceMeters>NAN</DistanceMeters>
          </Trackpoint>
          <Trackpoint>
            <Time>2022-07-14T17:48:09.000Z</Time>
            <Position>
              <LatitudeDegrees>43.38649830780923366546630859375</LatitudeDegrees>
              <LongitudeDegrees>-4.22348250634968280792236328125</LongitudeDegrees>
            </Position>
            <AltitudeMeters>60.40000152587890625</AltitudeMeters>
            <DistanceMeters>NAN</DistanceMeters>
          </Trackpoint>
          <Trackpoint>
            <Time>2022-07-14T17:48:12.000Z</Time>
            <Position>
              <LatitudeDegrees>43.38621533475816249847412109375</LatitudeDegrees>
              <LongitudeDegrees>-4.223620891571044921875</LongitudeDegrees>
            </Position>
            <AltitudeMeters>60</AltitudeMeters>
            <DistanceMeters>NAN</DistanceMeters>
          </Trackpoint>
          <Trackpoint>
            <Time>2022-07-14T17:48:16.000Z</Time>
            <Position>
              <LatitudeDegrees>43.38592666201293468475341796875</LatitudeDegrees>
              <LongitudeDegrees>-4.2237276770174503326416015625</LongitudeDegrees>
            </Position>
            <AltitudeMeters>59.799999237060546875</AltitudeMeters>
            <DistanceMeters>NAN</DistanceMeters>
          </Trackpoint>
          <Trackpoint>
            <Time>2022-07-14T17:48:21.000Z</Time>
            <Position>
              <LatitudeDegrees>43.3856664039194583892822265625</LatitudeDegrees>
              <LongitudeDegrees>-4.22381007112562656402587890625</LongitudeDegrees>
            </Position>
            <AltitudeMeters>61</AltitudeMeters>
            <DistanceMeters>NAN</DistanceMeters>
          </Trackpoint>
          <Trackpoint>
            <Time>2022-07-14T17:48:24.000Z</Time>
            <Position>
              <LatitudeDegrees>43.3855467103421688079833984375</LatitudeDegrees>
              <LongitudeDegrees>-4.22385432757437229156494140625</LongitudeDegrees>
            </Position>
            <AltitudeMeters>61.40000152587890625</AltitudeMeters>
            <DistanceMeters>NAN</DistanceMeters>
          </Trackpoint>
          <Trackpoint>
            <Time>2022-07-14T17:48:27.000Z</Time>
            <Position>
              <LatitudeDegrees>43.385464064776897430419921875</LatitudeDegrees>
              <LongitudeDegrees>-4.2238829098641872406005859375</LongitudeDegrees>
            </Position>
            <AltitudeMeters>62</AltitudeMeters>
            <DistanceMeters>NAN</DistanceMeters>
          </Trackpoint>
          <Trackpoint>
            <Time>2022-07-14T17:48:30.000Z</Time>
            <Position>
              <LatitudeDegrees>43.385409079492092132568359375</LatitudeDegrees>
              <LongitudeDegrees>-4.2239040322601795196533203125</LongitudeDegrees>
            </Position>
            <AltitudeMeters>62.40000152587890625</AltitudeMeters>
            <DistanceMeters>NAN</DistanceMeters>
          </Trackpoint>
          <Trackpoint>
            <Time>2022-07-14T17:48:31.000Z</Time>
            <Position>
              <LatitudeDegrees>43.3853841014206409454345703125</LatitudeDegrees>
              <LongitudeDegrees>-4.22391350381076335906982421875</LongitudeDegrees>
            </Position>
            <AltitudeMeters>62.40000152587890625</AltitudeMeters>
            <DistanceMeters>NAN</DistanceMeters>
          </Trackpoint>
          <Trackpoint>
            <Time>2022-07-14T17:48:33.000Z</Time>
            <Position>
              <LatitudeDegrees>43.38533976115286350250244140625</LatitudeDegrees>
              <LongitudeDegrees>-4.22394200228154659271240234375</LongitudeDegrees>
            </Position>
            <AltitudeMeters>62.59999847412109375</AltitudeMeters>
            <DistanceMeters>NAN</DistanceMeters>
          </Trackpoint>
          <Trackpoint>
            <Time>2022-07-14T17:48:34.000Z</Time>
            <Position>
              <LatitudeDegrees>43.38531863875687122344970703125</LatitudeDegrees>
              <LongitudeDegrees>-4.2239526472985744476318359375</LongitudeDegrees>
            </Position>
            <AltitudeMeters>62.799999237060546875</AltitudeMeters>
            <DistanceMeters>NAN</DistanceMeters>
          </Trackpoint>
          <Trackpoint>
            <Time>2022-07-14T17:48:38.000Z</Time>
            <Position>
              <LatitudeDegrees>43.38521889410912990570068359375</LatitudeDegrees>
              <LongitudeDegrees>-4.2240218818187713623046875</LongitudeDegrees>
            </Position>
            <AltitudeMeters>63.40000152587890625</AltitudeMeters>
            <DistanceMeters>NAN</DistanceMeters>
          </Trackpoint>
          <Trackpoint>
            <Time>2022-07-14T17:48:40.000Z</Time>
            <Position>
              <LatitudeDegrees>43.38518838398158550262451171875</LatitudeDegrees>
              <LongitudeDegrees>-4.22405012883245944976806640625</LongitudeDegrees>
            </Position>
            <AltitudeMeters>63.59999847412109375</AltitudeMeters>
            <DistanceMeters>NAN</DistanceMeters>
          </Trackpoint>
          <Trackpoint>
            <Time>2022-07-14T17:48:42.000Z</Time>
            <Position>
              <LatitudeDegrees>43.38516240008175373077392578125</LatitudeDegrees>
              <LongitudeDegrees>-4.22407594509422779083251953125</LongitudeDegrees>
            </Position>
            <AltitudeMeters>63.799999237060546875</AltitudeMeters>
            <DistanceMeters>NAN</DistanceMeters>
          </Trackpoint>
          <Trackpoint>
            <Time>2022-07-14T17:48:50.000Z</Time>
            <Position>
              <LatitudeDegrees>43.3850808441638946533203125</LatitudeDegrees>
              <LongitudeDegrees>-4.22420519404113292694091796875</LongitudeDegrees>
            </Position>
            <AltitudeMeters>64.59999847412109375</AltitudeMeters>
            <DistanceMeters>NAN</DistanceMeters>
          </Trackpoint>
          <Trackpoint>
            <Time>2022-07-14T17:48:51.000Z</Time>
            <Position>
              <LatitudeDegrees>43.38507388718426227569580078125</LatitudeDegrees>
              <LongitudeDegrees>-4.224229417741298675537109375</LongitudeDegrees>
            </Position>
            <AltitudeMeters>64.59999847412109375</AltitudeMeters>
            <DistanceMeters>NAN</DistanceMeters>
          </Trackpoint>
          <Trackpoint>
            <Time>2022-07-14T17:48:59.000Z</Time>
            <Position>
              <LatitudeDegrees>43.38501705788075923919677734375</LatitudeDegrees>
              <LongitudeDegrees>-4.224414825439453125</LongitudeDegrees>
            </Position>
            <AltitudeMeters>65.59999847412109375</AltitudeMeters>
            <DistanceMeters>NAN</DistanceMeters>
          </Trackpoint>
          <Trackpoint>
            <Time>2022-07-14T17:49:00.000Z</Time>
            <Position>
              <LatitudeDegrees>43.38501303456723690032958984375</LatitudeDegrees>
              <LongitudeDegrees>-4.22444039024412631988525390625</LongitudeDegrees>
            </Position>
            <AltitudeMeters>65.59999847412109375</AltitudeMeters>
            <DistanceMeters>NAN</DistanceMeters>
          </Trackpoint>
          <Trackpoint>
            <Time>2022-07-14T17:49:08.000Z</Time>
            <Position>
              <LatitudeDegrees>43.38497347198426723480224609375</LatitudeDegrees>
              <LongitudeDegrees>-4.22460065223276615142822265625</LongitudeDegrees>
            </Position>
            <AltitudeMeters>66.40000152587890625</AltitudeMeters>
            <DistanceMeters>NAN</DistanceMeters>
          </Trackpoint>
          <Trackpoint>
            <Time>2022-07-14T17:49:11.000Z</Time>
            <Position>
              <LatitudeDegrees>43.38496207259595394134521484375</LatitudeDegrees>
              <LongitudeDegrees>-4.22466184012591838836669921875</LongitudeDegrees>
            </Position>
            <AltitudeMeters>66.8000030517578125</AltitudeMeters>
            <DistanceMeters>NAN</DistanceMeters>
          </Trackpoint>
          <Trackpoint>
            <Time>2022-07-14T17:49:19.000Z</Time>
            <Position>
              <LatitudeDegrees>43.38495167903602123260498046875</LatitudeDegrees>
              <LongitudeDegrees>-4.224855042994022369384765625</LongitudeDegrees>
            </Position>
            <AltitudeMeters>67.59999847412109375</AltitudeMeters>
            <DistanceMeters>NAN</DistanceMeters>
          </Trackpoint>
          <Trackpoint>
            <Time>2022-07-14T17:49:22.000Z</Time>
            <Position>
              <LatitudeDegrees>43.38495352305471897125244140625</LatitudeDegrees>
              <LongitudeDegrees>-4.22493928112089633941650390625</LongitudeDegrees>
            </Position>
            <AltitudeMeters>67.8000030517578125</AltitudeMeters>
            <DistanceMeters>NAN</DistanceMeters>
          </Trackpoint>
          <Trackpoint>
            <Time>2022-07-14T17:49:30.000Z</Time>
            <Position>
              <LatitudeDegrees>43.384955115616321563720703125</LatitudeDegrees>
              <LongitudeDegrees>-4.22511798329651355743408203125</LongitudeDegrees>
            </Position>
            <AltitudeMeters>68.8000030517578125</AltitudeMeters>
            <DistanceMeters>NAN</DistanceMeters>
          </Trackpoint>
          <Trackpoint>
            <Time>2022-07-14T17:49:32.000Z</Time>
            <Position>
              <LatitudeDegrees>43.38495788164436817169189453125</LatitudeDegrees>
              <LongitudeDegrees>-4.2251619882881641387939453125</LongitudeDegrees>
            </Position>
            <AltitudeMeters>68.8000030517578125</AltitudeMeters>
            <DistanceMeters>NAN</DistanceMeters>
          </Trackpoint>
          <Trackpoint>
            <Time>2022-07-14T17:49:34.000Z</Time>
            <Position>
              <LatitudeDegrees>43.38496961630880832672119140625</LatitudeDegrees>
              <LongitudeDegrees>-4.22520297579467296600341796875</LongitudeDegrees>
            </Position>
            <AltitudeMeters>68.8000030517578125</AltitudeMeters>
            <DistanceMeters>NAN</DistanceMeters>
          </Trackpoint>
          <Trackpoint>
            <Time>2022-07-14T17:49:35.000Z</Time>
            <Position>
              <LatitudeDegrees>43.38497363962233066558837890625</LatitudeDegrees>
              <LongitudeDegrees>-4.22522141598165035247802734375</LongitudeDegrees>
            </Position>
            <AltitudeMeters>69</AltitudeMeters>
            <DistanceMeters>NAN</DistanceMeters>
          </Trackpoint>
          <Trackpoint>
            <Time>2022-07-14T17:49:38.000Z</Time>
            <Position>
              <LatitudeDegrees>43.3849911577999591827392578125</LatitudeDegrees>
              <LongitudeDegrees>-4.22528897412121295928955078125</LongitudeDegrees>
            </Position>
            <AltitudeMeters>69.40000152587890625</AltitudeMeters>
            <DistanceMeters>NAN</DistanceMeters>
          </Trackpoint>
          <Trackpoint>
            <Time>2022-07-14T17:49:44.000Z</Time>
            <Position>
              <LatitudeDegrees>43.38503181003034114837646484375</LatitudeDegrees>
              <LongitudeDegrees>-4.225418306887149810791015625</LongitudeDegrees>
            </Position>
            <AltitudeMeters>70</AltitudeMeters>
            <DistanceMeters>NAN</DistanceMeters>
          </Trackpoint>
          <Trackpoint>
            <Time>2022-07-14T17:49:46.000Z</Time>
            <Position>
              <LatitudeDegrees>43.3850401081144809722900390625</LatitudeDegrees>
              <LongitudeDegrees>-4.22546817921102046966552734375</LongitudeDegrees>
            </Position>
            <AltitudeMeters>70.1999969482421875</AltitudeMeters>
            <DistanceMeters>NAN</DistanceMeters>
          </Trackpoint>
          <Trackpoint>
            <Time>2022-07-14T17:49:54.000Z</Time>
            <Position>
              <LatitudeDegrees>43.385094590485095977783203125</LatitudeDegrees>
              <LongitudeDegrees>-4.22563992440700531005859375</LongitudeDegrees>
            </Position>
            <AltitudeMeters>71</AltitudeMeters>
            <DistanceMeters>NAN</DistanceMeters>
          </Trackpoint>
          <Trackpoint>
            <Time>2022-07-14T17:49:56.000Z</Time>
            <Position>
              <LatitudeDegrees>43.385109007358551025390625</LatitudeDegrees>
              <LongitudeDegrees>-4.225680828094482421875</LongitudeDegrees>
            </Position>
            <AltitudeMeters>71.1999969482421875</AltitudeMeters>
            <DistanceMeters>NAN</DistanceMeters>
          </Trackpoint>
          <Trackpoint>
            <Time>2022-07-14T17:50:04.000Z</Time>
            <Position>
              <LatitudeDegrees>43.3851688541471958160400390625</LatitudeDegrees>
              <LongitudeDegrees>-4.22583748586475849151611328125</LongitudeDegrees>
            </Position>
            <AltitudeMeters>71.8000030517578125</AltitudeMeters>
            <DistanceMeters>NAN</DistanceMeters>
          </Trackpoint>
          <Trackpoint>
            <Time>2022-07-14T17:50:09.000Z</Time>
            <Position>
              <LatitudeDegrees>43.38520087301731109619140625</LatitudeDegrees>
              <LongitudeDegrees>-4.22594569623470306396484375</LongitudeDegrees>
            </Position>
            <AltitudeMeters>72.1999969482421875</AltitudeMeters>
            <DistanceMeters>NAN</DistanceMeters>
          </Trackpoint>
          <Trackpoint>
            <Time>2022-07-14T17:50:14.000Z</Time>
            <Position>
              <LatitudeDegrees>43.3852509967982769012451171875</LatitudeDegrees>
              <LongitudeDegrees>-4.2260360531508922576904296875</LongitudeDegrees>
            </Position>
            <AltitudeMeters>72.40000152587890625</AltitudeMeters>
            <DistanceMeters>NAN</DistanceMeters>
          </Trackpoint>
          <Trackpoint>
            <Time>2022-07-14T17:50:18.000Z</Time>
            <Position>
              <LatitudeDegrees>43.38527463376522064208984375</LatitudeDegrees>
              <LongitudeDegrees>-4.2261175252497196197509765625</LongitudeDegrees>
            </Position>
            <AltitudeMeters>72.8000030517578125</AltitudeMeters>
            <DistanceMeters>NAN</DistanceMeters>
          </Trackpoint>
          <Trackpoint>
            <Time>2022-07-14T17:50:19.000Z</Time>
            <Position>
              <LatitudeDegrees>43.38528209365904331207275390625</LatitudeDegrees>
              <LongitudeDegrees>-4.22613906674087047576904296875</LongitudeDegrees>
            </Position>
            <AltitudeMeters>72.8000030517578125</AltitudeMeters>
            <DistanceMeters>NAN</DistanceMeters>
          </Trackpoint>
          <Trackpoint>
            <Time>2022-07-14T17:50:22.000Z</Time>
            <Position>
              <LatitudeDegrees>43.38530355133116245269775390625</LatitudeDegrees>
              <LongitudeDegrees>-4.226188771426677703857421875</LongitudeDegrees>
            </Position>
            <AltitudeMeters>73.1999969482421875</AltitudeMeters>
            <DistanceMeters>NAN</DistanceMeters>
          </Trackpoint>
          <Trackpoint>
            <Time>2022-07-14T17:50:33.000Z</Time>
            <Position>
              <LatitudeDegrees>43.385389633476734161376953125</LatitudeDegrees>
              <LongitudeDegrees>-4.226396977901458740234375</LongitudeDegrees>
            </Position>
            <AltitudeMeters>74</AltitudeMeters>
            <DistanceMeters>NAN</DistanceMeters>
          </Trackpoint>
          <Trackpoint>
            <Time>2022-07-14T17:50:36.000Z</Time>
            <Position>
              <LatitudeDegrees>43.38541922159492969512939453125</LatitudeDegrees>
              <LongitudeDegrees>-4.2264517955482006072998046875</LongitudeDegrees>
            </Position>
            <AltitudeMeters>74.1999969482421875</AltitudeMeters>
            <DistanceMeters>NAN</DistanceMeters>
          </Trackpoint>
          <Trackpoint>
            <Time>2022-07-14T17:50:43.000Z</Time>
            <Position>
              <LatitudeDegrees>43.38548560626804828643798828125</LatitudeDegrees>
              <LongitudeDegrees>-4.226573668420314788818359375</LongitudeDegrees>
            </Position>
            <AltitudeMeters>74.8000030517578125</AltitudeMeters>
            <DistanceMeters>NAN</DistanceMeters>
          </Trackpoint>
          <Trackpoint>
            <Time>2022-07-14T17:50:48.000Z</Time>
            <Position>
              <LatitudeDegrees>43.38554109446704387664794921875</LatitudeDegrees>
              <LongitudeDegrees>-4.226659834384918212890625</LongitudeDegrees>
            </Position>
            <AltitudeMeters>75.1999969482421875</AltitudeMeters>
            <DistanceMeters>NAN</DistanceMeters>
          </Trackpoint>
          <Trackpoint>
            <Time>2022-07-14T17:50:50.000Z</Time>
            <Position>
              <LatitudeDegrees>43.38555785827338695526123046875</LatitudeDegrees>
              <LongitudeDegrees>-4.226693026721477508544921875</LongitudeDegrees>
            </Position>
            <AltitudeMeters>75.40000152587890625</AltitudeMeters>
            <DistanceMeters>NAN</DistanceMeters>
          </Trackpoint>
          <Trackpoint>
            <Time>2022-07-14T17:50:57.000Z</Time>
            <Position>
              <LatitudeDegrees>43.385623991489410400390625</LatitudeDegrees>
              <LongitudeDegrees>-4.226823784410953521728515625</LongitudeDegrees>
            </Position>
            <AltitudeMeters>76</AltitudeMeters>
            <DistanceMeters>NAN</DistanceMeters>
          </Trackpoint>
          <Trackpoint>
            <Time>2022-07-14T17:51:01.000Z</Time>
            <Position>
              <LatitudeDegrees>43.38566732592880725860595703125</LatitudeDegrees>
              <LongitudeDegrees>-4.226880781352519989013671875</LongitudeDegrees>
            </Position>
            <AltitudeMeters>76.40000152587890625</AltitudeMeters>
            <DistanceMeters>NAN</DistanceMeters>
          </Trackpoint>
          <Trackpoint>
            <Time>2022-07-14T17:51:06.000Z</Time>
            <Position>
              <LatitudeDegrees>43.3857056312263011932373046875</LatitudeDegrees>
              <LongitudeDegrees>-4.22696116380393505096435546875</LongitudeDegrees>
            </Position>
            <AltitudeMeters>77</AltitudeMeters>
            <DistanceMeters>NAN</DistanceMeters>
          </Trackpoint>
          <Trackpoint>
            <Time>2022-07-14T17:51:12.000Z</Time>
            <Position>
              <LatitudeDegrees>43.385773859918117523193359375</LatitudeDegrees>
              <LongitudeDegrees>-4.22705738805234432220458984375</LongitudeDegrees>
            </Position>
            <AltitudeMeters>77.40000152587890625</AltitudeMeters>
            <DistanceMeters>NAN</DistanceMeters>
          </Trackpoint>
          <Trackpoint>
            <Time>2022-07-14T17:51:16.000Z</Time>
            <Position>
              <LatitudeDegrees>43.3858157694339752197265625</LatitudeDegrees>
              <LongitudeDegrees>-4.22710239887237548828125</LongitudeDegrees>
            </Position>
            <AltitudeMeters>77.8000030517578125</AltitudeMeters>
            <DistanceMeters>NAN</DistanceMeters>
          </Trackpoint>
          <Trackpoint>
            <Time>2022-07-14T17:51:22.000Z</Time>
            <Position>
              <LatitudeDegrees>43.3858890272676944732666015625</LatitudeDegrees>
              <LongitudeDegrees>-4.22719418071210384368896484375</LongitudeDegrees>
            </Position>
            <AltitudeMeters>78.40000152587890625</AltitudeMeters>
            <DistanceMeters>NAN</DistanceMeters>
          </Trackpoint>
          <Trackpoint>
            <Time>2022-07-14T17:51:26.000Z</Time>
            <Position>
              <LatitudeDegrees>43.3859406597912311553955078125</LatitudeDegrees>
              <LongitudeDegrees>-4.22724480740725994110107421875</LongitudeDegrees>
            </Position>
            <AltitudeMeters>78.8000030517578125</AltitudeMeters>
            <DistanceMeters>NAN</DistanceMeters>
          </Trackpoint>
          <Trackpoint>
            <Time>2022-07-14T17:51:27.000Z</Time>
            <Position>
              <LatitudeDegrees>43.38595398701727390289306640625</LatitudeDegrees>
              <LongitudeDegrees>-4.22725654207170009613037109375</LongitudeDegrees>
            </Position>
            <AltitudeMeters>78.8000030517578125</AltitudeMeters>
            <DistanceMeters>NAN</DistanceMeters>
          </Trackpoint>
          <Trackpoint>
            <Time>2022-07-14T17:51:34.000Z</Time>
            <Position>
              <LatitudeDegrees>43.3860268257558345794677734375</LatitudeDegrees>
              <LongitudeDegrees>-4.22736852429807186126708984375</LongitudeDegrees>
            </Position>
            <AltitudeMeters>79.59999847412109375</AltitudeMeters>
            <DistanceMeters>NAN</DistanceMeters>
          </Trackpoint>
          <Trackpoint>
            <Time>2022-07-14T17:51:35.000Z</Time>
            <Position>
              <LatitudeDegrees>43.3860383927822113037109375</LatitudeDegrees>
              <LongitudeDegrees>-4.227383695542812347412109375</LongitudeDegrees>
            </Position>
            <AltitudeMeters>79.59999847412109375</AltitudeMeters>
            <DistanceMeters>NAN</DistanceMeters>
          </Trackpoint>
          <Trackpoint>
            <Time>2022-07-14T17:51:44.000Z</Time>
            <Position>
              <LatitudeDegrees>43.386132605373859405517578125</LatitudeDegrees>
              <LongitudeDegrees>-4.2275176383554935455322265625</LongitudeDegrees>
            </Position>
            <AltitudeMeters>80.40000152587890625</AltitudeMeters>
            <DistanceMeters>NAN</DistanceMeters>
          </Trackpoint>
          <Trackpoint>
            <Time>2022-07-14T17:51:48.000Z</Time>
            <Position>
              <LatitudeDegrees>43.38617778383195400238037109375</LatitudeDegrees>
              <LongitudeDegrees>-4.22757069580256938934326171875</LongitudeDegrees>
            </Position>
            <AltitudeMeters>80.59999847412109375</AltitudeMeters>
            <DistanceMeters>NAN</DistanceMeters>
          </Trackpoint>
          <Trackpoint>
            <Time>2022-07-14T17:51:52.000Z</Time>
            <Position>
              <LatitudeDegrees>43.3862105570733547210693359375</LatitudeDegrees>
              <LongitudeDegrees>-4.22765367664396762847900390625</LongitudeDegrees>
            </Position>
            <AltitudeMeters>80.8000030517578125</AltitudeMeters>
            <DistanceMeters>NAN</DistanceMeters>
          </Trackpoint>
          <Trackpoint>
            <Time>2022-07-14T17:52:00.000Z</Time>
            <Position>
              <LatitudeDegrees>43.38630300946533679962158203125</LatitudeDegrees>
              <LongitudeDegrees>-4.22781310044229030609130859375</LongitudeDegrees>
            </Position>
            <AltitudeMeters>81.59999847412109375</AltitudeMeters>
            <DistanceMeters>NAN</DistanceMeters>
          </Trackpoint>
          <Trackpoint>
            <Time>2022-07-14T17:52:02.000Z</Time>
            <Position>
              <LatitudeDegrees>43.38631859980523586273193359375</LatitudeDegrees>
              <LongitudeDegrees>-4.22785417176783084869384765625</LongitudeDegrees>
            </Position>
            <AltitudeMeters>81.8000030517578125</AltitudeMeters>
            <DistanceMeters>NAN</DistanceMeters>
          </Trackpoint>
          <Trackpoint>
            <Time>2022-07-14T17:52:10.000Z</Time>
            <Position>
              <LatitudeDegrees>43.3863963000476360321044921875</LatitudeDegrees>
              <LongitudeDegrees>-4.22800890170037746429443359375</LongitudeDegrees>
            </Position>
            <AltitudeMeters>82.40000152587890625</AltitudeMeters>
            <DistanceMeters>NAN</DistanceMeters>
          </Trackpoint>
          <Trackpoint>
            <Time>2022-07-14T17:52:13.000Z</Time>
            <Position>
              <LatitudeDegrees>43.38643175549805164337158203125</LatitudeDegrees>
              <LongitudeDegrees>-4.228058941662311553955078125</LongitudeDegrees>
            </Position>
            <AltitudeMeters>82.59999847412109375</AltitudeMeters>
            <DistanceMeters>NAN</DistanceMeters>
          </Trackpoint>
          <Trackpoint>
            <Time>2022-07-14T17:52:17.000Z</Time>
            <Position>
              <LatitudeDegrees>43.386467210948467254638671875</LatitudeDegrees>
              <LongitudeDegrees>-4.22814552672207355499267578125</LongitudeDegrees>
            </Position>
            <AltitudeMeters>83</AltitudeMeters>
            <DistanceMeters>NAN</DistanceMeters>
          </Trackpoint>
          <Trackpoint>
            <Time>2022-07-14T17:52:25.000Z</Time>
            <Position>
              <LatitudeDegrees>43.386532254517078399658203125</LatitudeDegrees>
              <LongitudeDegrees>-4.228305704891681671142578125</LongitudeDegrees>
            </Position>
            <AltitudeMeters>83.40000152587890625</AltitudeMeters>
            <DistanceMeters>NAN</DistanceMeters>
          </Trackpoint>
          <Trackpoint>
            <Time>2022-07-14T17:52:27.000Z</Time>
            <Position>
              <LatitudeDegrees>43.38655279017984867095947265625</LatitudeDegrees>
              <LongitudeDegrees>-4.2283507995307445526123046875</LongitudeDegrees>
            </Position>
            <AltitudeMeters>83.59999847412109375</AltitudeMeters>
            <DistanceMeters>NAN</DistanceMeters>
          </Trackpoint>
          <Trackpoint>
            <Time>2022-07-14T17:52:32.000Z</Time>
            <Position>
              <LatitudeDegrees>43.38659293949604034423828125</LatitudeDegrees>
              <LongitudeDegrees>-4.22846420668065547943115234375</LongitudeDegrees>
            </Position>
            <AltitudeMeters>84.1999969482421875</AltitudeMeters>
            <DistanceMeters>NAN</DistanceMeters>
          </Trackpoint>
          <Trackpoint>
            <Time>2022-07-14T17:52:37.000Z</Time>
            <Position>
              <LatitudeDegrees>43.38664029724895954132080078125</LatitudeDegrees>
              <LongitudeDegrees>-4.22855146229267120361328125</LongitudeDegrees>
            </Position>
            <AltitudeMeters>84.40000152587890625</AltitudeMeters>
            <DistanceMeters>NAN</DistanceMeters>
          </Trackpoint>
          <Trackpoint>
            <Time>2022-07-14T17:52:39.000Z</Time>
            <Position>
              <LatitudeDegrees>43.38665320537984371185302734375</LatitudeDegrees>
              <LongitudeDegrees>-4.228583313524723052978515625</LongitudeDegrees>
            </Position>
            <AltitudeMeters>84.59999847412109375</AltitudeMeters>
            <DistanceMeters>NAN</DistanceMeters>
          </Trackpoint>
          <Trackpoint>
            <Time>2022-07-14T17:52:40.000Z</Time>
            <Position>
              <LatitudeDegrees>43.386661000549793243408203125</LatitudeDegrees>
              <LongitudeDegrees>-4.228596724569797515869140625</LongitudeDegrees>
            </Position>
            <AltitudeMeters>84.59999847412109375</AltitudeMeters>
            <DistanceMeters>NAN</DistanceMeters>
          </Trackpoint>
          <Trackpoint>
            <Time>2022-07-14T17:52:45.000Z</Time>
            <Position>
              <LatitudeDegrees>43.3866926841437816619873046875</LatitudeDegrees>
              <LongitudeDegrees>-4.22868900932371616363525390625</LongitudeDegrees>
            </Position>
            <AltitudeMeters>85</AltitudeMeters>
            <DistanceMeters>NAN</DistanceMeters>
          </Trackpoint>
          <Trackpoint>
            <Time>2022-07-14T17:52:49.000Z</Time>
            <Position>
              <LatitudeDegrees>43.386728726327419281005859375</LatitudeDegrees>
              <LongitudeDegrees>-4.228761009871959686279296875</LongitudeDegrees>
            </Position>
            <AltitudeMeters>85.59999847412109375</AltitudeMeters>
            <DistanceMeters>NAN</DistanceMeters>
          </Trackpoint>
          <Trackpoint>
            <Time>2022-07-14T17:52:51.000Z</Time>
            <Position>
              <LatitudeDegrees>43.3867379464209079742431640625</LatitudeDegrees>
              <LongitudeDegrees>-4.22881339676678180694580078125</LongitudeDegrees>
            </Position>
            <AltitudeMeters>85.8000030517578125</AltitudeMeters>
            <DistanceMeters>NAN</DistanceMeters>
          </Trackpoint>
          <Trackpoint>
            <Time>2022-07-14T17:52:55.000Z</Time>
            <Position>
              <LatitudeDegrees>43.3867681212723255157470703125</LatitudeDegrees>
              <LongitudeDegrees>-4.22889880836009979248046875</LongitudeDegrees>
            </Position>
            <AltitudeMeters>86</AltitudeMeters>
            <DistanceMeters>NAN</DistanceMeters>
          </Trackpoint>
          <Trackpoint>
            <Time>2022-07-14T17:52:58.000Z</Time>
            <Position>
              <LatitudeDegrees>43.386789746582508087158203125</LatitudeDegrees>
              <LongitudeDegrees>-4.22895513474941253662109375</LongitudeDegrees>
            </Position>
            <AltitudeMeters>86.1999969482421875</AltitudeMeters>
            <DistanceMeters>NAN</DistanceMeters>
          </Trackpoint>
          <Trackpoint>
            <Time>2022-07-14T17:53:05.000Z</Time>
            <Position>
              <LatitudeDegrees>43.38684833608567714691162109375</LatitudeDegrees>
              <LongitudeDegrees>-4.22907273285090923309326171875</LongitudeDegrees>
            </Position>
            <AltitudeMeters>86.8000030517578125</AltitudeMeters>
            <DistanceMeters>NAN</DistanceMeters>
          </Trackpoint>
          <Trackpoint>
            <Time>2022-07-14T17:53:06.000Z</Time>
            <Position>
              <LatitudeDegrees>43.3868539519608020782470703125</LatitudeDegrees>
              <LongitudeDegrees>-4.22908899374306201934814453125</LongitudeDegrees>
            </Position>
            <AltitudeMeters>86.8000030517578125</AltitudeMeters>
            <DistanceMeters>NAN</DistanceMeters>
          </Trackpoint>
          <Trackpoint>
            <Time>2022-07-14T17:53:15.000Z</Time>
            <Position>
              <LatitudeDegrees>43.3869226835668087005615234375</LatitudeDegrees>
              <LongitudeDegrees>-4.22924875281751155853271484375</LongitudeDegrees>
            </Position>
            <AltitudeMeters>87.8000030517578125</AltitudeMeters>
            <DistanceMeters>NAN</DistanceMeters>
          </Trackpoint>
          <Trackpoint>
            <Time>2022-07-14T17:53:16.000Z</Time>
            <Position>
              <LatitudeDegrees>43.38693081401288509368896484375</LatitudeDegrees>
              <LongitudeDegrees>-4.22926425933837890625</LongitudeDegrees>
            </Position>
            <AltitudeMeters>88</AltitudeMeters>
            <DistanceMeters>NAN</DistanceMeters>
          </Trackpoint>
          <Trackpoint>
            <Time>2022-07-14T17:53:20.000Z</Time>
            <Position>
              <LatitudeDegrees>43.38696249760687351226806640625</LatitudeDegrees>
              <LongitudeDegrees>-4.22933139838278293609619140625</LongitudeDegrees>
            </Position>
            <AltitudeMeters>88.40000152587890625</AltitudeMeters>
            <DistanceMeters>NAN</DistanceMeters>
          </Trackpoint>
          <Trackpoint>
            <Time>2022-07-14T17:53:26.000Z</Time>
            <Position>
              <LatitudeDegrees>43.38700675405561923980712890625</LatitudeDegrees>
              <LongitudeDegrees>-4.229440279304981231689453125</LongitudeDegrees>
            </Position>
            <AltitudeMeters>89</AltitudeMeters>
            <DistanceMeters>NAN</DistanceMeters>
          </Trackpoint>
          <Trackpoint>
            <Time>2022-07-14T17:53:36.000Z</Time>
            <Position>
              <LatitudeDegrees>43.38706676848232746124267578125</LatitudeDegrees>
              <LongitudeDegrees>-4.22962434589862823486328125</LongitudeDegrees>
            </Position>
            <AltitudeMeters>90</AltitudeMeters>
            <DistanceMeters>NAN</DistanceMeters>
          </Trackpoint>
          <Trackpoint>
            <Time>2022-07-14T17:53:38.000Z</Time>
            <Position>
              <LatitudeDegrees>43.3870816044509410858154296875</LatitudeDegrees>
              <LongitudeDegrees>-4.2296546883881092071533203125</LongitudeDegrees>
            </Position>
            <AltitudeMeters>90.1999969482421875</AltitudeMeters>
            <DistanceMeters>NAN</DistanceMeters>
          </Trackpoint>
          <Trackpoint>
            <Time>2022-07-14T17:53:46.000Z</Time>
            <Position>
              <LatitudeDegrees>43.3871461451053619384765625</LatitudeDegrees>
              <LongitudeDegrees>-4.229784943163394927978515625</LongitudeDegrees>
            </Position>
            <AltitudeMeters>91</AltitudeMeters>
            <DistanceMeters>NAN</DistanceMeters>
          </Trackpoint>
          <Trackpoint>
            <Time>2022-07-14T17:53:48.000Z</Time>
            <Position>
              <LatitudeDegrees>43.3871627412736415863037109375</LatitudeDegrees>
              <LongitudeDegrees>-4.2298263497650623321533203125</LongitudeDegrees>
            </Position>
            <AltitudeMeters>91.40000152587890625</AltitudeMeters>
            <DistanceMeters>NAN</DistanceMeters>
          </Trackpoint>
          <Trackpoint>
            <Time>2022-07-14T17:53:55.000Z</Time>
            <Position>
              <LatitudeDegrees>43.38721387088298797607421875</LatitudeDegrees>
              <LongitudeDegrees>-4.2299443669617176055908203125</LongitudeDegrees>
            </Position>
            <AltitudeMeters>92</AltitudeMeters>
            <DistanceMeters>NAN</DistanceMeters>
          </Trackpoint>
          <Trackpoint>
            <Time>2022-07-14T17:53:56.000Z</Time>
            <Position>
              <LatitudeDegrees>43.387220241129398345947265625</LatitudeDegrees>
              <LongitudeDegrees>-4.22996255569159984588623046875</LongitudeDegrees>
            </Position>
            <AltitudeMeters>92.1999969482421875</AltitudeMeters>
            <DistanceMeters>NAN</DistanceMeters>
          </Trackpoint>
          <Trackpoint>
            <Time>2022-07-14T17:54:00.000Z</Time>
            <Position>
              <LatitudeDegrees>43.38725469075143337249755859375</LatitudeDegrees>
              <LongitudeDegrees>-4.230033047497272491455078125</LongitudeDegrees>
            </Position>
            <AltitudeMeters>92.59999847412109375</AltitudeMeters>
            <DistanceMeters>NAN</DistanceMeters>
          </Trackpoint>
          <Trackpoint>
            <Time>2022-07-14T17:54:03.000Z</Time>
            <Position>
              <LatitudeDegrees>43.38726927526295185089111328125</LatitudeDegrees>
              <LongitudeDegrees>-4.23009373247623443603515625</LongitudeDegrees>
            </Position>
            <AltitudeMeters>93</AltitudeMeters>
            <DistanceMeters>NAN</DistanceMeters>
          </Trackpoint>
          <Trackpoint>
            <Time>2022-07-14T17:54:05.000Z</Time>
            <Position>
              <LatitudeDegrees>43.3872777409851551055908203125</LatitudeDegrees>
              <LongitudeDegrees>-4.2301260866224765777587890625</LongitudeDegrees>
            </Position>
            <AltitudeMeters>93.1999969482421875</AltitudeMeters>
            <DistanceMeters>NAN</DistanceMeters>
          </Trackpoint>
          <Trackpoint>
            <Time>2022-07-14T17:54:13.000Z</Time>
            <Position>
              <LatitudeDegrees>43.3873330615460872650146484375</LatitudeDegrees>
              <LongitudeDegrees>-4.23025608994066715240478515625</LongitudeDegrees>
            </Position>
            <AltitudeMeters>94</AltitudeMeters>
            <DistanceMeters>NAN</DistanceMeters>
          </Trackpoint>
          <Trackpoint>
            <Time>2022-07-14T17:54:17.000Z</Time>
            <Position>
              <LatitudeDegrees>43.3873665891587734222412109375</LatitudeDegrees>
              <LongitudeDegrees>-4.23033303581178188323974609375</LongitudeDegrees>
            </Position>
            <AltitudeMeters>94.59999847412109375</AltitudeMeters>
            <DistanceMeters>NAN</DistanceMeters>
          </Trackpoint>
          <Trackpoint>
            <Time>2022-07-14T17:54:21.000Z</Time>
            <Position>
              <LatitudeDegrees>43.38740003295242786407470703125</LatitudeDegrees>
              <LongitudeDegrees>-4.23039506189525127410888671875</LongitudeDegrees>
            </Position>
            <AltitudeMeters>95.1999969482421875</AltitudeMeters>
            <DistanceMeters>NAN</DistanceMeters>
          </Trackpoint>
          <Trackpoint>
            <Time>2022-07-14T17:54:28.000Z</Time>
            <Position>
              <LatitudeDegrees>43.38745183311402797698974609375</LatitudeDegrees>
              <LongitudeDegrees>-4.23050855286419391632080078125</LongitudeDegrees>
            </Position>
            <AltitudeMeters>96.1999969482421875</AltitudeMeters>
            <DistanceMeters>NAN</DistanceMeters>
          </Trackpoint>
          <Trackpoint>
            <Time>2022-07-14T17:54:29.000Z</Time>
            <Position>
              <LatitudeDegrees>43.3874581195414066314697265625</LatitudeDegrees>
              <LongitudeDegrees>-4.23052514903247356414794921875</LongitudeDegrees>
            </Position>
            <AltitudeMeters>96.40000152587890625</AltitudeMeters>
            <DistanceMeters>NAN</DistanceMeters>
          </Trackpoint>
          <Trackpoint>
            <Time>2022-07-14T17:54:36.000Z</Time>
            <Position>
              <LatitudeDegrees>43.38749910704791545867919921875</LatitudeDegrees>
              <LongitudeDegrees>-4.2306501232087612152099609375</LongitudeDegrees>
            </Position>
            <AltitudeMeters>97.1999969482421875</AltitudeMeters>
            <DistanceMeters>NAN</DistanceMeters>
          </Trackpoint>
          <Trackpoint>
            <Time>2022-07-14T17:54:38.000Z</Time>
            <Position>
              <LatitudeDegrees>43.38751251809298992156982421875</LatitudeDegrees>
              <LongitudeDegrees>-4.23068256117403507232666015625</LongitudeDegrees>
            </Position>
            <AltitudeMeters>97.40000152587890625</AltitudeMeters>
            <DistanceMeters>NAN</DistanceMeters>
          </Trackpoint>
          <Trackpoint>
            <Time>2022-07-14T17:54:46.000Z</Time>
            <Position>
              <LatitudeDegrees>43.3875570259988307952880859375</LatitudeDegrees>
              <LongitudeDegrees>-4.2308254726231098175048828125</LongitudeDegrees>
            </Position>
            <AltitudeMeters>98.40000152587890625</AltitudeMeters>
            <DistanceMeters>NAN</DistanceMeters>
          </Trackpoint>
          <Trackpoint>
            <Time>2022-07-14T17:54:47.000Z</Time>
            <Position>
              <LatitudeDegrees>43.38756063021719455718994140625</LatitudeDegrees>
              <LongitudeDegrees>-4.23083997331559658050537109375</LongitudeDegrees>
            </Position>
            <AltitudeMeters>98.59999847412109375</AltitudeMeters>
            <DistanceMeters>NAN</DistanceMeters>
          </Trackpoint>
          <Trackpoint>
            <Time>2022-07-14T17:54:56.000Z</Time>
            <Position>
              <LatitudeDegrees>43.38761460967361927032470703125</LatitudeDegrees>
              <LongitudeDegrees>-4.2309857346117496490478515625</LongitudeDegrees>
            </Position>
            <AltitudeMeters>99.59999847412109375</AltitudeMeters>
            <DistanceMeters>NAN</DistanceMeters>
          </Trackpoint>
          <Trackpoint>
            <Time>2022-07-14T17:54:57.000Z</Time>
            <Position>
              <LatitudeDegrees>43.3876213990151882171630859375</LatitudeDegrees>
              <LongitudeDegrees>-4.23100358806550502777099609375</LongitudeDegrees>
            </Position>
            <AltitudeMeters>99.8000030517578125</AltitudeMeters>
            <DistanceMeters>NAN</DistanceMeters>
          </Trackpoint>
          <Trackpoint>
            <Time>2022-07-14T17:55:05.000Z</Time>
            <Position>
              <LatitudeDegrees>43.3876532502472400665283203125</LatitudeDegrees>
              <LongitudeDegrees>-4.2311309091746807098388671875</LongitudeDegrees>
            </Position>
            <AltitudeMeters>100.8000030517578125</AltitudeMeters>
            <DistanceMeters>NAN</DistanceMeters>
          </Trackpoint>
          <Trackpoint>
            <Time>2022-07-14T17:55:08.000Z</Time>
            <Position>
              <LatitudeDegrees>43.38765936903655529022216796875</LatitudeDegrees>
              <LongitudeDegrees>-4.23118715174496173858642578125</LongitudeDegrees>
            </Position>
            <AltitudeMeters>101</AltitudeMeters>
            <DistanceMeters>NAN</DistanceMeters>
          </Trackpoint>
          <Trackpoint>
            <Time>2022-07-14T17:55:14.000Z</Time>
            <Position>
              <LatitudeDegrees>43.3876730315387248992919921875</LatitudeDegrees>
              <LongitudeDegrees>-4.23130282200872898101806640625</LongitudeDegrees>
            </Position>
            <AltitudeMeters>101.8000030517578125</AltitudeMeters>
            <DistanceMeters>NAN</DistanceMeters>
          </Trackpoint>
          <Trackpoint>
            <Time>2022-07-14T17:55:16.000Z</Time>
            <Position>
              <LatitudeDegrees>43.387684933841228485107421875</LatitudeDegrees>
              <LongitudeDegrees>-4.23133199103176593780517578125</LongitudeDegrees>
            </Position>
            <AltitudeMeters>102</AltitudeMeters>
            <DistanceMeters>NAN</DistanceMeters>
          </Trackpoint>
          <Trackpoint>
            <Time>2022-07-14T17:55:17.000Z</Time>
            <Position>
              <LatitudeDegrees>43.3876854367554187774658203125</LatitudeDegrees>
              <LongitudeDegrees>-4.23135302960872650146484375</LongitudeDegrees>
            </Position>
            <AltitudeMeters>102</AltitudeMeters>
            <DistanceMeters>NAN</DistanceMeters>
          </Trackpoint>
          <Trackpoint>
            <Time>2022-07-14T17:55:22.000Z</Time>
            <Position>
              <LatitudeDegrees>43.387692980468273162841796875</LatitudeDegrees>
              <LongitudeDegrees>-4.23144313506782054901123046875</LongitudeDegrees>
            </Position>
            <AltitudeMeters>102.8000030517578125</AltitudeMeters>
            <DistanceMeters>NAN</DistanceMeters>
          </Trackpoint>
          <Trackpoint>
            <Time>2022-07-14T17:55:25.000Z</Time>
            <Position>
              <LatitudeDegrees>43.3876894600689411163330078125</LatitudeDegrees>
              <LongitudeDegrees>-4.2315034009516239166259765625</LongitudeDegrees>
            </Position>
            <AltitudeMeters>103</AltitudeMeters>
            <DistanceMeters>NAN</DistanceMeters>
          </Trackpoint>
          <Trackpoint>
            <Time>2022-07-14T17:55:32.000Z</Time>
            <Position>
              <LatitudeDegrees>43.38768753223121166229248046875</LatitudeDegrees>
              <LongitudeDegrees>-4.2316420376300811767578125</LongitudeDegrees>
            </Position>
            <AltitudeMeters>104</AltitudeMeters>
            <DistanceMeters>NAN</DistanceMeters>
          </Trackpoint>
          <Trackpoint>
            <Time>2022-07-14T17:55:33.000Z</Time>
            <Position>
              <LatitudeDegrees>43.3876864425837993621826171875</LatitudeDegrees>
              <LongitudeDegrees>-4.2316608130931854248046875</LongitudeDegrees>
            </Position>
            <AltitudeMeters>104.1999969482421875</AltitudeMeters>
            <DistanceMeters>NAN</DistanceMeters>
          </Trackpoint>
          <Trackpoint>
            <Time>2022-07-14T17:55:41.000Z</Time>
            <Position>
              <LatitudeDegrees>43.38768552057445049285888671875</LatitudeDegrees>
              <LongitudeDegrees>-4.23182518221437931060791015625</LongitudeDegrees>
            </Position>
            <AltitudeMeters>105</AltitudeMeters>
            <DistanceMeters>NAN</DistanceMeters>
          </Trackpoint>
          <Trackpoint>
            <Time>2022-07-14T17:55:49.000Z</Time>
            <Position>
              <LatitudeDegrees>43.387663476169109344482421875</LatitudeDegrees>
              <LongitudeDegrees>-4.23197404481470584869384765625</LongitudeDegrees>
            </Position>
            <AltitudeMeters>106</AltitudeMeters>
            <DistanceMeters>NAN</DistanceMeters>
          </Trackpoint>
          <Trackpoint>
            <Time>2022-07-14T17:55:52.000Z</Time>
            <Position>
              <LatitudeDegrees>43.3876609615981578826904296875</LatitudeDegrees>
              <LongitudeDegrees>-4.2320255935192108154296875</LongitudeDegrees>
            </Position>
            <AltitudeMeters>106.40000152587890625</AltitudeMeters>
            <DistanceMeters>NAN</DistanceMeters>
          </Trackpoint>
          <Trackpoint>
            <Time>2022-07-14T17:55:53.000Z</Time>
            <Position>
              <LatitudeDegrees>43.38766020722687244415283203125</LatitudeDegrees>
              <LongitudeDegrees>-4.2320442013442516326904296875</LongitudeDegrees>
            </Position>
            <AltitudeMeters>106.40000152587890625</AltitudeMeters>
            <DistanceMeters>NAN</DistanceMeters>
          </Trackpoint>
          <Trackpoint>
            <Time>2022-07-14T17:55:56.000Z</Time>
            <Position>
              <LatitudeDegrees>43.38765442371368408203125</LatitudeDegrees>
              <LongitudeDegrees>-4.23209541477262973785400390625</LongitudeDegrees>
            </Position>
            <AltitudeMeters>107</AltitudeMeters>
            <DistanceMeters>NAN</DistanceMeters>
          </Trackpoint>
          <Trackpoint>
            <Time>2022-07-14T17:55:58.000Z</Time>
            <Position>
              <LatitudeDegrees>43.38764436542987823486328125</LatitudeDegrees>
              <LongitudeDegrees>-4.23212978057563304901123046875</LongitudeDegrees>
            </Position>
            <AltitudeMeters>107.1999969482421875</AltitudeMeters>
            <DistanceMeters>NAN</DistanceMeters>
          </Trackpoint>
          <Trackpoint>
            <Time>2022-07-14T17:56:04.000Z</Time>
            <Position>
              <LatitudeDegrees>43.38762785308063030242919921875</LatitudeDegrees>
              <LongitudeDegrees>-4.23224880360066890716552734375</LongitudeDegrees>
            </Position>
            <AltitudeMeters>108</AltitudeMeters>
            <DistanceMeters>NAN</DistanceMeters>
          </Trackpoint>
          <Trackpoint>
            <Time>2022-07-14T17:56:06.000Z</Time>
            <Position>
              <LatitudeDegrees>43.3876260928809642791748046875</LatitudeDegrees>
              <LongitudeDegrees>-4.23227344639599323272705078125</LongitudeDegrees>
            </Position>
            <AltitudeMeters>108.1999969482421875</AltitudeMeters>
            <DistanceMeters>NAN</DistanceMeters>
          </Trackpoint>
          <Trackpoint>
            <Time>2022-07-14T17:56:11.000Z</Time>
            <Position>
              <LatitudeDegrees>43.38759633712470531463623046875</LatitudeDegrees>
              <LongitudeDegrees>-4.23235760070383548736572265625</LongitudeDegrees>
            </Position>
            <AltitudeMeters>108.8000030517578125</AltitudeMeters>
            <DistanceMeters>NAN</DistanceMeters>
          </Trackpoint>
          <Trackpoint>
            <Time>2022-07-14T17:56:15.000Z</Time>
            <Position>
              <LatitudeDegrees>43.38757370598614215850830078125</LatitudeDegrees>
              <LongitudeDegrees>-4.23242147080600261688232421875</LongitudeDegrees>
            </Position>
            <AltitudeMeters>109.1999969482421875</AltitudeMeters>
            <DistanceMeters>NAN</DistanceMeters>
          </Trackpoint>
          <Trackpoint>
            <Time>2022-07-14T17:56:19.000Z</Time>
            <Position>
              <LatitudeDegrees>43.38755342178046703338623046875</LatitudeDegrees>
              <LongitudeDegrees>-4.232500009238719940185546875</LongitudeDegrees>
            </Position>
            <AltitudeMeters>109.8000030517578125</AltitudeMeters>
            <DistanceMeters>NAN</DistanceMeters>
          </Trackpoint>
          <Trackpoint>
            <Time>2022-07-14T17:56:20.000Z</Time>
            <Position>
              <LatitudeDegrees>43.3875499852001667022705078125</LatitudeDegrees>
              <LongitudeDegrees>-4.23251417465507984161376953125</LongitudeDegrees>
            </Position>
            <AltitudeMeters>109.8000030517578125</AltitudeMeters>
            <DistanceMeters>NAN</DistanceMeters>
          </Trackpoint>
          <Trackpoint>
            <Time>2022-07-14T17:56:24.000Z</Time>
            <Position>
              <LatitudeDegrees>43.3875295333564281463623046875</LatitudeDegrees>
              <LongitudeDegrees>-4.23257703892886638641357421875</LongitudeDegrees>
            </Position>
            <AltitudeMeters>110.40000152587890625</AltitudeMeters>
            <DistanceMeters>NAN</DistanceMeters>
          </Trackpoint>
          <Trackpoint>
            <Time>2022-07-14T17:56:28.000Z</Time>
            <Position>
              <LatitudeDegrees>43.387507908046245574951171875</LatitudeDegrees>
              <LongitudeDegrees>-4.23263780772686004638671875</LongitudeDegrees>
            </Position>
            <AltitudeMeters>110.8000030517578125</AltitudeMeters>
            <DistanceMeters>NAN</DistanceMeters>
          </Trackpoint>
          <Trackpoint>
            <Time>2022-07-14T17:56:34.000Z</Time>
            <Position>
              <LatitudeDegrees>43.38746474124491214752197265625</LatitudeDegrees>
              <LongitudeDegrees>-4.2327362112700939178466796875</LongitudeDegrees>
            </Position>
            <AltitudeMeters>111.40000152587890625</AltitudeMeters>
            <DistanceMeters>NAN</DistanceMeters>
          </Trackpoint>
          <Trackpoint>
            <Time>2022-07-14T17:56:40.000Z</Time>
            <Position>
              <LatitudeDegrees>43.38742031715810298919677734375</LatitudeDegrees>
              <LongitudeDegrees>-4.23284660093486309051513671875</LongitudeDegrees>
            </Position>
            <AltitudeMeters>112</AltitudeMeters>
            <DistanceMeters>NAN</DistanceMeters>
          </Trackpoint>
          <Trackpoint>
            <Time>2022-07-14T17:56:46.000Z</Time>
            <Position>
              <LatitudeDegrees>43.38738863356411457061767578125</LatitudeDegrees>
              <LongitudeDegrees>-4.23299043439328670501708984375</LongitudeDegrees>
            </Position>
            <AltitudeMeters>112.40000152587890625</AltitudeMeters>
            <DistanceMeters>NAN</DistanceMeters>
          </Trackpoint>
          <Trackpoint>
            <Time>2022-07-14T17:56:49.000Z</Time>
            <Position>
              <LatitudeDegrees>43.38737974874675273895263671875</LatitudeDegrees>
              <LongitudeDegrees>-4.23305346630513668060302734375</LongitudeDegrees>
            </Position>
            <AltitudeMeters>112.59999847412109375</AltitudeMeters>
            <DistanceMeters>NAN</DistanceMeters>
          </Trackpoint>
          <Trackpoint>
            <Time>2022-07-14T17:56:53.000Z</Time>
            <Position>
              <LatitudeDegrees>43.38734605349600315093994140625</LatitudeDegrees>
              <LongitudeDegrees>-4.2331365309655666351318359375</LongitudeDegrees>
            </Position>
            <AltitudeMeters>112.59999847412109375</AltitudeMeters>
            <DistanceMeters>NAN</DistanceMeters>
          </Trackpoint>
          <Trackpoint>
            <Time>2022-07-14T17:56:55.000Z</Time>
            <Position>
              <LatitudeDegrees>43.38732945732772350311279296875</LatitudeDegrees>
              <LongitudeDegrees>-4.233150780200958251953125</LongitudeDegrees>
            </Position>
            <AltitudeMeters>112.59999847412109375</AltitudeMeters>
            <DistanceMeters>NAN</DistanceMeters>
          </Trackpoint>
          <Trackpoint>
            <Time>2022-07-14T17:56:59.000Z</Time>
            <Position>
              <LatitudeDegrees>43.38732945732772350311279296875</LatitudeDegrees>
              <LongitudeDegrees>-4.233150780200958251953125</LongitudeDegrees>
            </Position>
            <AltitudeMeters>112.59999847412109375</AltitudeMeters>
            <DistanceMeters>NAN</DistanceMeters>
          </Trackpoint>
          <Trackpoint>
            <Time>2022-07-14T18:02:41.000Z</Time>
            <Position>
              <LatitudeDegrees>43.387297689914703369140625</LatitudeDegrees>
              <LongitudeDegrees>-4.2332057654857635498046875</LongitudeDegrees>
            </Position>
            <AltitudeMeters>114.59999847412109375</AltitudeMeters>
            <DistanceMeters>NAN</DistanceMeters>
          </Trackpoint>
          <Trackpoint>
            <Time>2022-07-14T18:02:42.000Z</Time>
            <Position>
              <LatitudeDegrees>43.38728536851704120635986328125</LatitudeDegrees>
              <LongitudeDegrees>-4.2332183383405208587646484375</LongitudeDegrees>
            </Position>
            <AltitudeMeters>114.59999847412109375</AltitudeMeters>
            <DistanceMeters>NAN</DistanceMeters>
          </Trackpoint>
          <Trackpoint>
            <Time>2022-07-14T18:02:43.000Z</Time>
            <Position>
              <LatitudeDegrees>43.3872733823955059051513671875</LatitudeDegrees>
              <LongitudeDegrees>-4.23323350958526134490966796875</LongitudeDegrees>
            </Position>
            <AltitudeMeters>114.59999847412109375</AltitudeMeters>
            <DistanceMeters>NAN</DistanceMeters>
          </Trackpoint>
          <Trackpoint>
            <Time>2022-07-14T18:02:51.000Z</Time>
            <Position>
              <LatitudeDegrees>43.38715963996946811676025390625</LatitudeDegrees>
              <LongitudeDegrees>-4.2334154807031154632568359375</LongitudeDegrees>
            </Position>
            <AltitudeMeters>115.1999969482421875</AltitudeMeters>
            <DistanceMeters>NAN</DistanceMeters>
          </Trackpoint>
          <Trackpoint>
            <Time>2022-07-14T18:02:59.000Z</Time>
            <Position>
              <LatitudeDegrees>43.3870272897183895111083984375</LatitudeDegrees>
              <LongitudeDegrees>-4.23364422284066677093505859375</LongitudeDegrees>
            </Position>
            <AltitudeMeters>114.8000030517578125</AltitudeMeters>
            <DistanceMeters>NAN</DistanceMeters>
          </Trackpoint>
          <Trackpoint>
            <Time>2022-07-14T18:03:05.000Z</Time>
            <Position>
              <LatitudeDegrees>43.3868817798793315887451171875</LatitudeDegrees>
              <LongitudeDegrees>-4.23392870463430881500244140625</LongitudeDegrees>
            </Position>
            <AltitudeMeters>114.40000152587890625</AltitudeMeters>
            <DistanceMeters>NAN</DistanceMeters>
          </Trackpoint>
          <Trackpoint>
            <Time>2022-07-14T18:03:08.000Z</Time>
            <Position>
              <LatitudeDegrees>43.3867822028696537017822265625</LatitudeDegrees>
              <LongitudeDegrees>-4.23411964438855648040771484375</LongitudeDegrees>
            </Position>
            <AltitudeMeters>113.59999847412109375</AltitudeMeters>
            <DistanceMeters>NAN</DistanceMeters>
          </Trackpoint>
          <Trackpoint>
            <Time>2022-07-14T18:03:10.000Z</Time>
            <Position>
              <LatitudeDegrees>43.38671640492975711822509765625</LatitudeDegrees>
              <LongitudeDegrees>-4.23427504487335681915283203125</LongitudeDegrees>
            </Position>
            <AltitudeMeters>113.1999969482421875</AltitudeMeters>
            <DistanceMeters>NAN</DistanceMeters>
          </Trackpoint>
          <Trackpoint>
            <Time>2022-07-14T18:03:12.000Z</Time>
            <Position>
              <LatitudeDegrees>43.3866615034639835357666015625</LatitudeDegrees>
              <LongitudeDegrees>-4.23445424996316432952880859375</LongitudeDegrees>
            </Position>
            <AltitudeMeters>112.59999847412109375</AltitudeMeters>
            <DistanceMeters>NAN</DistanceMeters>
          </Trackpoint>
          <Trackpoint>
            <Time>2022-07-14T18:03:15.000Z</Time>
            <Position>
              <LatitudeDegrees>43.38659922592341899871826171875</LatitudeDegrees>
              <LongitudeDegrees>-4.23477091826498508453369140625</LongitudeDegrees>
            </Position>
            <AltitudeMeters>111.8000030517578125</AltitudeMeters>
            <DistanceMeters>NAN</DistanceMeters>
          </Trackpoint>
          <Trackpoint>
            <Time>2022-07-14T18:03:16.000Z</Time>
            <Position>
              <LatitudeDegrees>43.3865847252309322357177734375</LatitudeDegrees>
              <LongitudeDegrees>-4.234885834157466888427734375</LongitudeDegrees>
            </Position>
            <AltitudeMeters>111.40000152587890625</AltitudeMeters>
            <DistanceMeters>NAN</DistanceMeters>
          </Trackpoint>
          <Trackpoint>
            <Time>2022-07-14T18:03:19.000Z</Time>
            <Position>
              <LatitudeDegrees>43.38654641993343830108642578125</LatitudeDegrees>
              <LongitudeDegrees>-4.23524625599384307861328125</LongitudeDegrees>
            </Position>
            <AltitudeMeters>110.40000152587890625</AltitudeMeters>
            <DistanceMeters>NAN</DistanceMeters>
          </Trackpoint>
          <Trackpoint>
            <Time>2022-07-14T18:03:22.000Z</Time>
            <Position>
              <LatitudeDegrees>43.38651691563427448272705078125</LatitudeDegrees>
              <LongitudeDegrees>-4.23563861288130283355712890625</LongitudeDegrees>
            </Position>
            <AltitudeMeters>109.1999969482421875</AltitudeMeters>
            <DistanceMeters>NAN</DistanceMeters>
          </Trackpoint>
          <Trackpoint>
            <Time>2022-07-14T18:03:24.000Z</Time>
            <Position>
              <LatitudeDegrees>43.38652345351874828338623046875</LatitudeDegrees>
              <LongitudeDegrees>-4.23591186292469501495361328125</LongitudeDegrees>
            </Position>
            <AltitudeMeters>108</AltitudeMeters>
            <DistanceMeters>NAN</DistanceMeters>
          </Trackpoint>
          <Trackpoint>
            <Time>2022-07-14T18:03:26.000Z</Time>
            <Position>
              <LatitudeDegrees>43.38655480183660984039306640625</LatitudeDegrees>
              <LongitudeDegrees>-4.2361845262348651885986328125</LongitudeDegrees>
            </Position>
            <AltitudeMeters>107.1999969482421875</AltitudeMeters>
            <DistanceMeters>NAN</DistanceMeters>
          </Trackpoint>
          <Trackpoint>
            <Time>2022-07-14T18:03:27.000Z</Time>
            <Position>
              <LatitudeDegrees>43.38657793588936328887939453125</LatitudeDegrees>
              <LongitudeDegrees>-4.23632056452333927154541015625</LongitudeDegrees>
            </Position>
            <AltitudeMeters>106.8000030517578125</AltitudeMeters>
            <DistanceMeters>NAN</DistanceMeters>
          </Trackpoint>
          <Trackpoint>
            <Time>2022-07-14T18:03:30.000Z</Time>
            <Position>
              <LatitudeDegrees>43.3866718970239162445068359375</LatitudeDegrees>
              <LongitudeDegrees>-4.23671543598175048828125</LongitudeDegrees>
            </Position>
            <AltitudeMeters>105.40000152587890625</AltitudeMeters>
            <DistanceMeters>NAN</DistanceMeters>
          </Trackpoint>
          <Trackpoint>
            <Time>2022-07-14T18:03:32.000Z</Time>
            <Position>
              <LatitudeDegrees>43.38674205355346202850341796875</LatitudeDegrees>
              <LongitudeDegrees>-4.236976616084575653076171875</LongitudeDegrees>
            </Position>
            <AltitudeMeters>104.59999847412109375</AltitudeMeters>
            <DistanceMeters>NAN</DistanceMeters>
          </Trackpoint>
          <Trackpoint>
            <Time>2022-07-14T18:03:33.000Z</Time>
            <Position>
              <LatitudeDegrees>43.38677692227065563201904296875</LatitudeDegrees>
              <LongitudeDegrees>-4.2371088825166225433349609375</LongitudeDegrees>
            </Position>
            <AltitudeMeters>104.1999969482421875</AltitudeMeters>
            <DistanceMeters>NAN</DistanceMeters>
          </Trackpoint>
          <Trackpoint>
            <Time>2022-07-14T18:03:36.000Z</Time>
            <Position>
              <LatitudeDegrees>43.3868834562599658966064453125</LatitudeDegrees>
              <LongitudeDegrees>-4.23750509507954120635986328125</LongitudeDegrees>
            </Position>
            <AltitudeMeters>103.1999969482421875</AltitudeMeters>
            <DistanceMeters>NAN</DistanceMeters>
          </Trackpoint>
          <Trackpoint>
            <Time>2022-07-14T18:03:39.000Z</Time>
            <Position>
              <LatitudeDegrees>43.386998958885669708251953125</LatitudeDegrees>
              <LongitudeDegrees>-4.23789870925247669219970703125</LongitudeDegrees>
            </Position>
            <AltitudeMeters>101.8000030517578125</AltitudeMeters>
            <DistanceMeters>NAN</DistanceMeters>
          </Trackpoint>
          <Trackpoint>
            <Time>2022-07-14T18:03:41.000Z</Time>
            <Position>
              <LatitudeDegrees>43.3870792575180530548095703125</LatitudeDegrees>
              <LongitudeDegrees>-4.23815888352692127227783203125</LongitudeDegrees>
            </Position>
            <AltitudeMeters>100.8000030517578125</AltitudeMeters>
            <DistanceMeters>NAN</DistanceMeters>
          </Trackpoint>
          <Trackpoint>
            <Time>2022-07-14T18:03:42.000Z</Time>
            <Position>
              <LatitudeDegrees>43.38711840100586414337158203125</LatitudeDegrees>
              <LongitudeDegrees>-4.2382893897593021392822265625</LongitudeDegrees>
            </Position>
            <AltitudeMeters>100.40000152587890625</AltitudeMeters>
            <DistanceMeters>NAN</DistanceMeters>
          </Trackpoint>
          <Trackpoint>
            <Time>2022-07-14T18:03:46.000Z</Time>
            <Position>
              <LatitudeDegrees>43.3872743882238864898681640625</LatitudeDegrees>
              <LongitudeDegrees>-4.23877629451453685760498046875</LongitudeDegrees>
            </Position>
            <AltitudeMeters>99</AltitudeMeters>
            <DistanceMeters>NAN</DistanceMeters>
          </Trackpoint>
          <Trackpoint>
            <Time>2022-07-14T18:03:49.000Z</Time>
            <Position>
              <LatitudeDegrees>43.38738008402287960052490234375</LatitudeDegrees>
              <LongitudeDegrees>-4.2391240596771240234375</LongitudeDegrees>
            </Position>
            <AltitudeMeters>97.8000030517578125</AltitudeMeters>
            <DistanceMeters>NAN</DistanceMeters>
          </Trackpoint>
          <Trackpoint>
            <Time>2022-07-14T18:03:56.000Z</Time>
            <Position>
              <LatitudeDegrees>43.38762936182320117950439453125</LatitudeDegrees>
              <LongitudeDegrees>-4.23983895219862461090087890625</LongitudeDegrees>
            </Position>
            <AltitudeMeters>97.59999847412109375</AltitudeMeters>
            <DistanceMeters>NAN</DistanceMeters>
          </Trackpoint>
          <Trackpoint>
            <Time>2022-07-14T18:03:57.000Z</Time>
            <Position>
              <LatitudeDegrees>43.38766054250299930572509765625</LatitudeDegrees>
              <LongitudeDegrees>-4.23993970267474651336669921875</LongitudeDegrees>
            </Position>
            <AltitudeMeters>97.40000152587890625</AltitudeMeters>
            <DistanceMeters>NAN</DistanceMeters>
          </Trackpoint>
          <Trackpoint>
            <Time>2022-07-14T18:04:04.000Z</Time>
            <Position>
              <LatitudeDegrees>43.3878711797297000885009765625</LatitudeDegrees>
              <LongitudeDegrees>-4.2406252585351467132568359375</LongitudeDegrees>
            </Position>
            <AltitudeMeters>96.59999847412109375</AltitudeMeters>
            <DistanceMeters>NAN</DistanceMeters>
          </Trackpoint>
          <Trackpoint>
            <Time>2022-07-14T18:04:05.000Z</Time>
            <Position>
              <LatitudeDegrees>43.3878993429243564605712890625</LatitudeDegrees>
              <LongitudeDegrees>-4.24072274006903171539306640625</LongitudeDegrees>
            </Position>
            <AltitudeMeters>96.40000152587890625</AltitudeMeters>
            <DistanceMeters>NAN</DistanceMeters>
          </Trackpoint>
          <Trackpoint>
            <Time>2022-07-14T18:04:12.000Z</Time>
            <Position>
              <LatitudeDegrees>43.38808718137443065643310546875</LatitudeDegrees>
              <LongitudeDegrees>-4.241334535181522369384765625</LongitudeDegrees>
            </Position>
            <AltitudeMeters>95.40000152587890625</AltitudeMeters>
            <DistanceMeters>NAN</DistanceMeters>
          </Trackpoint>
          <Trackpoint>
            <Time>2022-07-14T18:04:18.000Z</Time>
            <Position>
              <LatitudeDegrees>43.38823369704186916351318359375</LatitudeDegrees>
              <LongitudeDegrees>-4.24171566031873226165771484375</LongitudeDegrees>
            </Position>
            <AltitudeMeters>95.1999969482421875</AltitudeMeters>
            <DistanceMeters>NAN</DistanceMeters>
          </Trackpoint>
          <Trackpoint>
            <Time>2022-07-14T18:04:25.000Z</Time>
            <Position>
              <LatitudeDegrees>43.3883948810398578643798828125</LatitudeDegrees>
              <LongitudeDegrees>-4.24208899028599262237548828125</LongitudeDegrees>
            </Position>
            <AltitudeMeters>95.1999969482421875</AltitudeMeters>
            <DistanceMeters>NAN</DistanceMeters>
          </Trackpoint>
          <Trackpoint>
            <Time>2022-07-14T18:04:33.000Z</Time>
            <Position>
              <LatitudeDegrees>43.38857173919677734375</LatitudeDegrees>
              <LongitudeDegrees>-4.2425101809203624725341796875</LongitudeDegrees>
            </Position>
            <AltitudeMeters>94.8000030517578125</AltitudeMeters>
            <DistanceMeters>NAN</DistanceMeters>
          </Trackpoint>
          <Trackpoint>
            <Time>2022-07-14T18:04:35.000Z</Time>
            <Position>
              <LatitudeDegrees>43.38860702700912952423095703125</LatitudeDegrees>
              <LongitudeDegrees>-4.24261034466326236724853515625</LongitudeDegrees>
            </Position>
            <AltitudeMeters>94.8000030517578125</AltitudeMeters>
            <DistanceMeters>NAN</DistanceMeters>
          </Trackpoint>
          <Trackpoint>
            <Time>2022-07-14T18:04:41.000Z</Time>
            <Position>
              <LatitudeDegrees>43.38871481828391551971435546875</LatitudeDegrees>
              <LongitudeDegrees>-4.2429705150425434112548828125</LongitudeDegrees>
            </Position>
            <AltitudeMeters>94.59999847412109375</AltitudeMeters>
            <DistanceMeters>NAN</DistanceMeters>
          </Trackpoint>
          <Trackpoint>
            <Time>2022-07-14T18:04:42.000Z</Time>
            <Position>
              <LatitudeDegrees>43.38873468339443206787109375</LatitudeDegrees>
              <LongitudeDegrees>-4.24304938875138759613037109375</LongitudeDegrees>
            </Position>
            <AltitudeMeters>94.40000152587890625</AltitudeMeters>
            <DistanceMeters>NAN</DistanceMeters>
          </Trackpoint>
          <Trackpoint>
            <Time>2022-07-14T18:04:46.000Z</Time>
            <Position>
              <LatitudeDegrees>43.38880442082881927490234375</LatitudeDegrees>
              <LongitudeDegrees>-4.243326745927333831787109375</LongitudeDegrees>
            </Position>
            <AltitudeMeters>93.40000152587890625</AltitudeMeters>
            <DistanceMeters>NAN</DistanceMeters>
          </Trackpoint>
          <Trackpoint>
            <Time>2022-07-14T18:04:47.000Z</Time>
            <Position>
              <LatitudeDegrees>43.38882328011095523834228515625</LatitudeDegrees>
              <LongitudeDegrees>-4.24340310506522655487060546875</LongitudeDegrees>
            </Position>
            <AltitudeMeters>93.1999969482421875</AltitudeMeters>
            <DistanceMeters>NAN</DistanceMeters>
          </Trackpoint>
          <Trackpoint>
            <Time>2022-07-14T18:04:52.000Z</Time>
            <Position>
              <LatitudeDegrees>43.38893157429993152618408203125</LatitudeDegrees>
              <LongitudeDegrees>-4.2437641136348247528076171875</LongitudeDegrees>
            </Position>
            <AltitudeMeters>92.1999969482421875</AltitudeMeters>
            <DistanceMeters>NAN</DistanceMeters>
          </Trackpoint>
          <Trackpoint>
            <Time>2022-07-14T18:04:55.000Z</Time>
            <Position>
              <LatitudeDegrees>43.38899376802146434783935546875</LatitudeDegrees>
              <LongitudeDegrees>-4.24401246942579746246337890625</LongitudeDegrees>
            </Position>
            <AltitudeMeters>91.59999847412109375</AltitudeMeters>
            <DistanceMeters>NAN</DistanceMeters>
          </Trackpoint>
          <Trackpoint>
            <Time>2022-07-14T18:05:01.000Z</Time>
            <Position>
              <LatitudeDegrees>43.38912217877805233001708984375</LatitudeDegrees>
              <LongitudeDegrees>-4.244541786611080169677734375</LongitudeDegrees>
            </Position>
            <AltitudeMeters>91.1999969482421875</AltitudeMeters>
            <DistanceMeters>NAN</DistanceMeters>
          </Trackpoint>
          <Trackpoint>
            <Time>2022-07-14T18:05:03.000Z</Time>
            <Position>
              <LatitudeDegrees>43.38917146436870098114013671875</LatitudeDegrees>
              <LongitudeDegrees>-4.2447152920067310333251953125</LongitudeDegrees>
            </Position>
            <AltitudeMeters>91</AltitudeMeters>
            <DistanceMeters>NAN</DistanceMeters>
          </Trackpoint>
          <Trackpoint>
            <Time>2022-07-14T18:05:07.000Z</Time>
            <Position>
              <LatitudeDegrees>43.38925612159073352813720703125</LatitudeDegrees>
              <LongitudeDegrees>-4.24506624229252338409423828125</LongitudeDegrees>
            </Position>
            <AltitudeMeters>90.1999969482421875</AltitudeMeters>
            <DistanceMeters>NAN</DistanceMeters>
          </Trackpoint>
          <Trackpoint>
            <Time>2022-07-14T18:05:09.000Z</Time>
            <Position>
              <LatitudeDegrees>43.3892957679927349090576171875</LatitudeDegrees>
              <LongitudeDegrees>-4.2452473752200603485107421875</LongitudeDegrees>
            </Position>
            <AltitudeMeters>89.59999847412109375</AltitudeMeters>
            <DistanceMeters>NAN</DistanceMeters>
          </Trackpoint>
          <Trackpoint>
            <Time>2022-07-14T18:05:12.000Z</Time>
            <Position>
              <LatitudeDegrees>43.38936173357069492340087890625</LatitudeDegrees>
              <LongitudeDegrees>-4.24551241099834442138671875</LongitudeDegrees>
            </Position>
            <AltitudeMeters>89</AltitudeMeters>
            <DistanceMeters>NAN</DistanceMeters>
          </Trackpoint>
          <Trackpoint>
            <Time>2022-07-14T18:05:14.000Z</Time>
            <Position>
              <LatitudeDegrees>43.3894050680100917816162109375</LatitudeDegrees>
              <LongitudeDegrees>-4.245682395994663238525390625</LongitudeDegrees>
            </Position>
            <AltitudeMeters>89</AltitudeMeters>
            <DistanceMeters>NAN</DistanceMeters>
          </Trackpoint>
          <Trackpoint>
            <Time>2022-07-14T18:05:20.000Z</Time>
            <Position>
              <LatitudeDegrees>43.389527611434459686279296875</LatitudeDegrees>
              <LongitudeDegrees>-4.24619679339230060577392578125</LongitudeDegrees>
            </Position>
            <AltitudeMeters>88</AltitudeMeters>
            <DistanceMeters>NAN</DistanceMeters>
          </Trackpoint>
          <Trackpoint>
            <Time>2022-07-14T18:05:22.000Z</Time>
            <Position>
              <LatitudeDegrees>43.389569185674190521240234375</LatitudeDegrees>
              <LongitudeDegrees>-4.2463682033121585845947265625</LongitudeDegrees>
            </Position>
            <AltitudeMeters>87.59999847412109375</AltitudeMeters>
            <DistanceMeters>NAN</DistanceMeters>
          </Trackpoint>
          <Trackpoint>
            <Time>2022-07-14T18:05:26.000Z</Time>
            <Position>
              <LatitudeDegrees>43.389644287526607513427734375</LatitudeDegrees>
              <LongitudeDegrees>-4.24670331180095672607421875</LongitudeDegrees>
            </Position>
            <AltitudeMeters>87</AltitudeMeters>
            <DistanceMeters>NAN</DistanceMeters>
          </Trackpoint>
          <Trackpoint>
            <Time>2022-07-14T18:05:27.000Z</Time>
            <Position>
              <LatitudeDegrees>43.38966432027518749237060546875</LatitudeDegrees>
              <LongitudeDegrees>-4.2467919923365116119384765625</LongitudeDegrees>
            </Position>
            <AltitudeMeters>86.8000030517578125</AltitudeMeters>
            <DistanceMeters>NAN</DistanceMeters>
          </Trackpoint>
          <Trackpoint>
            <Time>2022-07-14T18:05:32.000Z</Time>
            <Position>
              <LatitudeDegrees>43.389762304723262786865234375</LatitudeDegrees>
              <LongitudeDegrees>-4.24724335782229900360107421875</LongitudeDegrees>
            </Position>
            <AltitudeMeters>86</AltitudeMeters>
            <DistanceMeters>NAN</DistanceMeters>
          </Trackpoint>
          <Trackpoint>
            <Time>2022-07-14T18:05:33.000Z</Time>
            <Position>
              <LatitudeDegrees>43.38978149928152561187744140625</LatitudeDegrees>
              <LongitudeDegrees>-4.24733773805201053619384765625</LongitudeDegrees>
            </Position>
            <AltitudeMeters>85.59999847412109375</AltitudeMeters>
            <DistanceMeters>NAN</DistanceMeters>
          </Trackpoint>
          <Trackpoint>
            <Time>2022-07-14T18:05:37.000Z</Time>
            <Position>
              <LatitudeDegrees>43.389853499829769134521484375</LatitudeDegrees>
              <LongitudeDegrees>-4.2477264069020748138427734375</LongitudeDegrees>
            </Position>
            <AltitudeMeters>84.8000030517578125</AltitudeMeters>
            <DistanceMeters>NAN</DistanceMeters>
          </Trackpoint>
          <Trackpoint>
            <Time>2022-07-14T18:05:39.000Z</Time>
            <Position>
              <LatitudeDegrees>43.3898711018264293670654296875</LatitudeDegrees>
              <LongitudeDegrees>-4.247923381626605987548828125</LongitudeDegrees>
            </Position>
            <AltitudeMeters>84.40000152587890625</AltitudeMeters>
            <DistanceMeters>NAN</DistanceMeters>
          </Trackpoint>
          <Trackpoint>
            <Time>2022-07-14T18:05:43.000Z</Time>
            <Position>
              <LatitudeDegrees>43.38989029638469219207763671875</LatitudeDegrees>
              <LongitudeDegrees>-4.24829520285129547119140625</LongitudeDegrees>
            </Position>
            <AltitudeMeters>83.1999969482421875</AltitudeMeters>
            <DistanceMeters>NAN</DistanceMeters>
          </Trackpoint>
          <Trackpoint>
            <Time>2022-07-14T18:05:47.000Z</Time>
            <Position>
              <LatitudeDegrees>43.389881663024425506591796875</LatitudeDegrees>
              <LongitudeDegrees>-4.24862100742757320404052734375</LongitudeDegrees>
            </Position>
            <AltitudeMeters>82.1999969482421875</AltitudeMeters>
            <DistanceMeters>NAN</DistanceMeters>
          </Trackpoint>
          <Trackpoint>
            <Time>2022-07-14T18:05:50.000Z</Time>
            <Position>
              <LatitudeDegrees>43.38985995389521121978759765625</LatitudeDegrees>
              <LongitudeDegrees>-4.24885000102221965789794921875</LongitudeDegrees>
            </Position>
            <AltitudeMeters>81.40000152587890625</AltitudeMeters>
            <DistanceMeters>NAN</DistanceMeters>
          </Trackpoint>
          <Trackpoint>
            <Time>2022-07-14T18:05:52.000Z</Time>
            <Position>
              <LatitudeDegrees>43.38983396999537944793701171875</LatitudeDegrees>
              <LongitudeDegrees>-4.249011017382144927978515625</LongitudeDegrees>
            </Position>
            <AltitudeMeters>81</AltitudeMeters>
            <DistanceMeters>NAN</DistanceMeters>
          </Trackpoint>
          <Trackpoint>
            <Time>2022-07-14T18:05:57.000Z</Time>
            <Position>
              <LatitudeDegrees>43.3897685073316097259521484375</LatitudeDegrees>
              <LongitudeDegrees>-4.249444864690303802490234375</LongitudeDegrees>
            </Position>
            <AltitudeMeters>80</AltitudeMeters>
            <DistanceMeters>NAN</DistanceMeters>
          </Trackpoint>
          <Trackpoint>
            <Time>2022-07-14T18:06:00.000Z</Time>
            <Position>
              <LatitudeDegrees>43.3897157013416290283203125</LatitudeDegrees>
              <LongitudeDegrees>-4.24971140921115875244140625</LongitudeDegrees>
            </Position>
            <AltitudeMeters>79</AltitudeMeters>
            <DistanceMeters>NAN</DistanceMeters>
          </Trackpoint>
          <Trackpoint>
            <Time>2022-07-14T18:06:01.000Z</Time>
            <Position>
              <LatitudeDegrees>43.389695584774017333984375</LatitudeDegrees>
              <LongitudeDegrees>-4.2498014308512210845947265625</LongitudeDegrees>
            </Position>
            <AltitudeMeters>78.8000030517578125</AltitudeMeters>
            <DistanceMeters>NAN</DistanceMeters>
          </Trackpoint>
          <Trackpoint>
            <Time>2022-07-14T18:06:07.000Z</Time>
            <Position>
              <LatitudeDegrees>43.38959424756467342376708984375</LatitudeDegrees>
              <LongitudeDegrees>-4.25039076246321201324462890625</LongitudeDegrees>
            </Position>
            <AltitudeMeters>77.59999847412109375</AltitudeMeters>
            <DistanceMeters>NAN</DistanceMeters>
          </Trackpoint>
          <Trackpoint>
            <Time>2022-07-14T18:06:13.000Z</Time>
            <Position>
              <LatitudeDegrees>43.38953641243278980255126953125</LatitudeDegrees>
              <LongitudeDegrees>-4.251043461263179779052734375</LongitudeDegrees>
            </Position>
            <AltitudeMeters>76.1999969482421875</AltitudeMeters>
            <DistanceMeters>NAN</DistanceMeters>
          </Trackpoint>
          <Trackpoint>
            <Time>2022-07-14T18:06:15.000Z</Time>
            <Position>
              <LatitudeDegrees>43.38952434249222278594970703125</LatitudeDegrees>
              <LongitudeDegrees>-4.25126834772527217864990234375</LongitudeDegrees>
            </Position>
            <AltitudeMeters>75.8000030517578125</AltitudeMeters>
            <DistanceMeters>NAN</DistanceMeters>
          </Trackpoint>
          <Trackpoint>
            <Time>2022-07-14T18:06:19.000Z</Time>
            <Position>
              <LatitudeDegrees>43.3895306289196014404296875</LatitudeDegrees>
              <LongitudeDegrees>-4.25170135684311389923095703125</LongitudeDegrees>
            </Position>
            <AltitudeMeters>75.1999969482421875</AltitudeMeters>
            <DistanceMeters>NAN</DistanceMeters>
          </Trackpoint>
          <Trackpoint>
            <Time>2022-07-14T18:06:22.000Z</Time>
            <Position>
              <LatitudeDegrees>43.38954873383045196533203125</LatitudeDegrees>
              <LongitudeDegrees>-4.25201768986880779266357421875</LongitudeDegrees>
            </Position>
            <AltitudeMeters>74.40000152587890625</AltitudeMeters>
            <DistanceMeters>NAN</DistanceMeters>
          </Trackpoint>
          <Trackpoint>
            <Time>2022-07-14T18:06:24.000Z</Time>
            <Position>
              <LatitudeDegrees>43.38956675492227077484130859375</LatitudeDegrees>
              <LongitudeDegrees>-4.2522253096103668212890625</LongitudeDegrees>
            </Position>
            <AltitudeMeters>74</AltitudeMeters>
            <DistanceMeters>NAN</DistanceMeters>
          </Trackpoint>
          <Trackpoint>
            <Time>2022-07-14T18:06:29.000Z</Time>
            <Position>
              <LatitudeDegrees>43.3896273560822010040283203125</LatitudeDegrees>
              <LongitudeDegrees>-4.2526918463408946990966796875</LongitudeDegrees>
            </Position>
            <AltitudeMeters>73.59999847412109375</AltitudeMeters>
            <DistanceMeters>NAN</DistanceMeters>
          </Trackpoint>
          <Trackpoint>
            <Time>2022-07-14T18:06:34.000Z</Time>
            <Position>
              <LatitudeDegrees>43.38969633914530277252197265625</LatitudeDegrees>
              <LongitudeDegrees>-4.25308286212384700775146484375</LongitudeDegrees>
            </Position>
            <AltitudeMeters>73.40000152587890625</AltitudeMeters>
            <DistanceMeters>NAN</DistanceMeters>
          </Trackpoint>
          <Trackpoint>
            <Time>2022-07-14T18:06:36.000Z</Time>
            <Position>
              <LatitudeDegrees>43.3897252567112445831298828125</LatitudeDegrees>
              <LongitudeDegrees>-4.25322183407843112945556640625</LongitudeDegrees>
            </Position>
            <AltitudeMeters>73.40000152587890625</AltitudeMeters>
            <DistanceMeters>NAN</DistanceMeters>
          </Trackpoint>
          <Trackpoint>
            <Time>2022-07-14T18:06:42.000Z</Time>
            <Position>
              <LatitudeDegrees>43.38980077765882015228271484375</LatitudeDegrees>
              <LongitudeDegrees>-4.2535766400396823883056640625</LongitudeDegrees>
            </Position>
            <AltitudeMeters>73.1999969482421875</AltitudeMeters>
            <DistanceMeters>NAN</DistanceMeters>
          </Trackpoint>
          <Trackpoint>
            <Time>2022-07-14T18:06:43.000Z</Time>
            <Position>
              <LatitudeDegrees>43.3898084051907062530517578125</LatitudeDegrees>
              <LongitudeDegrees>-4.253629110753536224365234375</LongitudeDegrees>
            </Position>
            <AltitudeMeters>73.40000152587890625</AltitudeMeters>
            <DistanceMeters>NAN</DistanceMeters>
          </Trackpoint>
          <Trackpoint>
            <Time>2022-07-14T18:06:49.000Z</Time>
            <Position>
              <LatitudeDegrees>43.3898712694644927978515625</LatitudeDegrees>
              <LongitudeDegrees>-4.25389657728374004364013671875</LongitudeDegrees>
            </Position>
            <AltitudeMeters>73.8000030517578125</AltitudeMeters>
            <DistanceMeters>NAN</DistanceMeters>
          </Trackpoint>
          <Trackpoint>
            <Time>2022-07-14T18:06:50.000Z</Time>
            <Position>
              <LatitudeDegrees>43.3898778073489665985107421875</LatitudeDegrees>
              <LongitudeDegrees>-4.25393362529575824737548828125</LongitudeDegrees>
            </Position>
            <AltitudeMeters>73.8000030517578125</AltitudeMeters>
            <DistanceMeters>NAN</DistanceMeters>
          </Trackpoint>
          <Trackpoint>
            <Time>2022-07-14T18:06:54.000Z</Time>
            <Position>
              <LatitudeDegrees>43.38990622200071811676025390625</LatitudeDegrees>
              <LongitudeDegrees>-4.25409472547471523284912109375</LongitudeDegrees>
            </Position>
            <AltitudeMeters>74.1999969482421875</AltitudeMeters>
            <DistanceMeters>NAN</DistanceMeters>
          </Trackpoint>
          <Trackpoint>
            <Time>2022-07-14T18:06:58.000Z</Time>
            <Position>
              <LatitudeDegrees>43.38993438519537448883056640625</LatitudeDegrees>
              <LongitudeDegrees>-4.25424559973180294036865234375</LongitudeDegrees>
            </Position>
            <AltitudeMeters>74.40000152587890625</AltitudeMeters>
            <DistanceMeters>NAN</DistanceMeters>
          </Trackpoint>
          <Trackpoint>
            <Time>2022-07-14T18:06:59.000Z</Time>
            <Position>
              <LatitudeDegrees>43.389940671622753143310546875</LatitudeDegrees>
              <LongitudeDegrees>-4.25428315065801143646240234375</LongitudeDegrees>
            </Position>
            <AltitudeMeters>74.59999847412109375</AltitudeMeters>
            <DistanceMeters>NAN</DistanceMeters>
          </Trackpoint>
          <Trackpoint>
            <Time>2022-07-14T18:07:00.000Z</Time>
            <Position>
              <LatitudeDegrees>43.38994729332625865936279296875</LatitudeDegrees>
              <LongitudeDegrees>-4.2543196119368076324462890625</LongitudeDegrees>
            </Position>
            <AltitudeMeters>74.8000030517578125</AltitudeMeters>
            <DistanceMeters>NAN</DistanceMeters>
          </Trackpoint>
          <Trackpoint>
            <Time>2022-07-14T18:07:02.000Z</Time>
            <Position>
              <LatitudeDegrees>43.38996120728552341461181640625</LatitudeDegrees>
              <LongitudeDegrees>-4.254394210875034332275390625</LongitudeDegrees>
            </Position>
            <AltitudeMeters>75</AltitudeMeters>
            <DistanceMeters>NAN</DistanceMeters>
          </Trackpoint>
          <Trackpoint>
            <Time>2022-07-14T18:07:06.000Z</Time>
            <Position>
              <LatitudeDegrees>43.38998903520405292510986328125</LatitudeDegrees>
              <LongitudeDegrees>-4.2545482702553272247314453125</LongitudeDegrees>
            </Position>
            <AltitudeMeters>75.40000152587890625</AltitudeMeters>
            <DistanceMeters>NAN</DistanceMeters>
          </Trackpoint>
          <Trackpoint>
            <Time>2022-07-14T18:07:08.000Z</Time>
            <Position>
              <LatitudeDegrees>43.390003032982349395751953125</LatitudeDegrees>
              <LongitudeDegrees>-4.25463787280023097991943359375</LongitudeDegrees>
            </Position>
            <AltitudeMeters>75.40000152587890625</AltitudeMeters>
            <DistanceMeters>NAN</DistanceMeters>
          </Trackpoint>
          <Trackpoint>
            <Time>2022-07-14T18:07:13.000Z</Time>
            <Position>
              <LatitudeDegrees>43.3900072239339351654052734375</LatitudeDegrees>
              <LongitudeDegrees>-4.25486519001424312591552734375</LongitudeDegrees>
            </Position>
            <AltitudeMeters>75.40000152587890625</AltitudeMeters>
            <DistanceMeters>NAN</DistanceMeters>
          </Trackpoint>
          <Trackpoint>
            <Time>2022-07-14T18:07:21.000Z</Time>
            <Position>
              <LatitudeDegrees>43.3900290168821811676025390625</LatitudeDegrees>
              <LongitudeDegrees>-4.2552999593317508697509765625</LongitudeDegrees>
            </Position>
            <AltitudeMeters>75.59999847412109375</AltitudeMeters>
            <DistanceMeters>NAN</DistanceMeters>
          </Trackpoint>
          <Trackpoint>
            <Time>2022-07-14T18:07:23.000Z</Time>
            <Position>
              <LatitudeDegrees>43.39003597386181354522705078125</LatitudeDegrees>
              <LongitudeDegrees>-4.25541554577648639678955078125</LongitudeDegrees>
            </Position>
            <AltitudeMeters>75.8000030517578125</AltitudeMeters>
            <DistanceMeters>NAN</DistanceMeters>
          </Trackpoint>
          <Trackpoint>
            <Time>2022-07-14T18:07:25.000Z</Time>
            <Position>
              <LatitudeDegrees>43.3900457806885242462158203125</LatitudeDegrees>
              <LongitudeDegrees>-4.25554764457046985626220703125</LongitudeDegrees>
            </Position>
            <AltitudeMeters>75.8000030517578125</AltitudeMeters>
            <DistanceMeters>NAN</DistanceMeters>
          </Trackpoint>
          <Trackpoint>
            <Time>2022-07-14T18:07:26.000Z</Time>
            <Position>
              <LatitudeDegrees>43.39005290530622005462646484375</LatitudeDegrees>
              <LongitudeDegrees>-4.25560665316879749298095703125</LongitudeDegrees>
            </Position>
            <AltitudeMeters>75.8000030517578125</AltitudeMeters>
            <DistanceMeters>NAN</DistanceMeters>
          </Trackpoint>
          <Trackpoint>
            <Time>2022-07-14T18:07:29.000Z</Time>
            <Position>
              <LatitudeDegrees>43.390065729618072509765625</LatitudeDegrees>
              <LongitudeDegrees>-4.2557953298091888427734375</LongitudeDegrees>
            </Position>
            <AltitudeMeters>75.8000030517578125</AltitudeMeters>
            <DistanceMeters>NAN</DistanceMeters>
          </Trackpoint>
          <Trackpoint>
            <Time>2022-07-14T18:07:34.000Z</Time>
            <Position>
              <LatitudeDegrees>43.39007972739636898040771484375</LatitudeDegrees>
              <LongitudeDegrees>-4.2560925520956516265869140625</LongitudeDegrees>
            </Position>
            <AltitudeMeters>75.40000152587890625</AltitudeMeters>
            <DistanceMeters>NAN</DistanceMeters>
          </Trackpoint>
          <Trackpoint>
            <Time>2022-07-14T18:07:39.000Z</Time>
            <Position>
              <LatitudeDegrees>43.390092886984348297119140625</LatitudeDegrees>
              <LongitudeDegrees>-4.25641098059713840484619140625</LongitudeDegrees>
            </Position>
            <AltitudeMeters>75.1999969482421875</AltitudeMeters>
            <DistanceMeters>NAN</DistanceMeters>
          </Trackpoint>
          <Trackpoint>
            <Time>2022-07-14T18:07:43.000Z</Time>
            <Position>
              <LatitudeDegrees>43.3901071362197399139404296875</LatitudeDegrees>
              <LongitudeDegrees>-4.256703592836856842041015625</LongitudeDegrees>
            </Position>
            <AltitudeMeters>74.40000152587890625</AltitudeMeters>
            <DistanceMeters>NAN</DistanceMeters>
          </Trackpoint>
          <Trackpoint>
            <Time>2022-07-14T18:07:44.000Z</Time>
            <Position>
              <LatitudeDegrees>43.39010789059102535247802734375</LatitudeDegrees>
              <LongitudeDegrees>-4.256782718002796173095703125</LongitudeDegrees>
            </Position>
            <AltitudeMeters>74.1999969482421875</AltitudeMeters>
            <DistanceMeters>NAN</DistanceMeters>
          </Trackpoint>
          <Trackpoint>
            <Time>2022-07-14T18:07:46.000Z</Time>
            <Position>
              <LatitudeDegrees>43.39011426083743572235107421875</LatitudeDegrees>
              <LongitudeDegrees>-4.25695203244686126708984375</LongitudeDegrees>
            </Position>
            <AltitudeMeters>73.8000030517578125</AltitudeMeters>
            <DistanceMeters>NAN</DistanceMeters>
          </Trackpoint>
          <Trackpoint>
            <Time>2022-07-14T18:07:50.000Z</Time>
            <Position>
              <LatitudeDegrees>43.39013001881539821624755859375</LatitudeDegrees>
              <LongitudeDegrees>-4.2573303915560245513916015625</LongitudeDegrees>
            </Position>
            <AltitudeMeters>73.1999969482421875</AltitudeMeters>
            <DistanceMeters>NAN</DistanceMeters>
          </Trackpoint>
          <Trackpoint>
            <Time>2022-07-14T18:07:51.000Z</Time>
            <Position>
              <LatitudeDegrees>43.39013504795730113983154296875</LatitudeDegrees>
              <LongitudeDegrees>-4.25742954947054386138916015625</LongitudeDegrees>
            </Position>
            <AltitudeMeters>72.8000030517578125</AltitudeMeters>
            <DistanceMeters>NAN</DistanceMeters>
          </Trackpoint>
          <Trackpoint>
            <Time>2022-07-14T18:07:56.000Z</Time>
            <Position>
              <LatitudeDegrees>43.39015449397265911102294921875</LatitudeDegrees>
              <LongitudeDegrees>-4.2579637281596660614013671875</LongitudeDegrees>
            </Position>
            <AltitudeMeters>71.8000030517578125</AltitudeMeters>
            <DistanceMeters>NAN</DistanceMeters>
          </Trackpoint>
          <Trackpoint>
            <Time>2022-07-14T18:07:57.000Z</Time>
            <Position>
              <LatitudeDegrees>43.390157930552959442138671875</LatitudeDegrees>
              <LongitudeDegrees>-4.25807495601475238800048828125</LongitudeDegrees>
            </Position>
            <AltitudeMeters>70.59999847412109375</AltitudeMeters>
            <DistanceMeters>NAN</DistanceMeters>
          </Trackpoint>
          <Trackpoint>
            <Time>2022-07-14T18:08:01.000Z</Time>
            <Position>
              <LatitudeDegrees>43.39017109014093875885009765625</LatitudeDegrees>
              <LongitudeDegrees>-4.25850746221840381622314453125</LongitudeDegrees>
            </Position>
            <AltitudeMeters>69.59999847412109375</AltitudeMeters>
            <DistanceMeters>NAN</DistanceMeters>
          </Trackpoint>
          <Trackpoint>
            <Time>2022-07-14T18:08:04.000Z</Time>
            <Position>
              <LatitudeDegrees>43.39016706682741641998291015625</LatitudeDegrees>
              <LongitudeDegrees>-4.258799068629741668701171875</LongitudeDegrees>
            </Position>
            <AltitudeMeters>69.59999847412109375</AltitudeMeters>
            <DistanceMeters>NAN</DistanceMeters>
          </Trackpoint>
          <Trackpoint>
            <Time>2022-07-14T18:08:11.000Z</Time>
            <Position>
              <LatitudeDegrees>43.3901178650557994842529296875</LatitudeDegrees>
              <LongitudeDegrees>-4.25942343659698963165283203125</LongitudeDegrees>
            </Position>
            <AltitudeMeters>69</AltitudeMeters>
            <DistanceMeters>NAN</DistanceMeters>
          </Trackpoint>
          <Trackpoint>
            <Time>2022-07-14T18:08:14.000Z</Time>
            <Position>
              <LatitudeDegrees>43.39007955975830554962158203125</LatitudeDegrees>
              <LongitudeDegrees>-4.2596912384033203125</LongitudeDegrees>
            </Position>
            <AltitudeMeters>68.59999847412109375</AltitudeMeters>
            <DistanceMeters>NAN</DistanceMeters>
          </Trackpoint>
          <Trackpoint>
            <Time>2022-07-14T18:08:20.000Z</Time>
            <Position>
              <LatitudeDegrees>43.38999792002141475677490234375</LatitudeDegrees>
              <LongitudeDegrees>-4.26018987782299518585205078125</LongitudeDegrees>
            </Position>
            <AltitudeMeters>67.59999847412109375</AltitudeMeters>
            <DistanceMeters>NAN</DistanceMeters>
          </Trackpoint>
          <Trackpoint>
            <Time>2022-07-14T18:08:21.000Z</Time>
            <Position>
              <LatitudeDegrees>43.3899850957095623016357421875</LatitudeDegrees>
              <LongitudeDegrees>-4.26027034409344196319580078125</LongitudeDegrees>
            </Position>
            <AltitudeMeters>67.40000152587890625</AltitudeMeters>
            <DistanceMeters>NAN</DistanceMeters>
          </Trackpoint>
          <Trackpoint>
            <Time>2022-07-14T18:08:27.000Z</Time>
            <Position>
              <LatitudeDegrees>43.3898939006030559539794921875</LatitudeDegrees>
              <LongitudeDegrees>-4.2607562430202960968017578125</LongitudeDegrees>
            </Position>
            <AltitudeMeters>66.59999847412109375</AltitudeMeters>
            <DistanceMeters>NAN</DistanceMeters>
          </Trackpoint>
          <Trackpoint>
            <Time>2022-07-14T18:08:28.000Z</Time>
            <Position>
              <LatitudeDegrees>43.38987730443477630615234375</LatitudeDegrees>
              <LongitudeDegrees>-4.26085925661027431488037109375</LongitudeDegrees>
            </Position>
            <AltitudeMeters>66.59999847412109375</AltitudeMeters>
            <DistanceMeters>NAN</DistanceMeters>
          </Trackpoint>
          <Trackpoint>
            <Time>2022-07-14T18:08:34.000Z</Time>
            <Position>
              <LatitudeDegrees>43.38979440741240978240966796875</LatitudeDegrees>
              <LongitudeDegrees>-4.261386059224605560302734375</LongitudeDegrees>
            </Position>
            <AltitudeMeters>65.40000152587890625</AltitudeMeters>
            <DistanceMeters>NAN</DistanceMeters>
          </Trackpoint>
          <Trackpoint>
            <Time>2022-07-14T18:08:39.000Z</Time>
            <Position>
              <LatitudeDegrees>43.38972173631191253662109375</LatitudeDegrees>
              <LongitudeDegrees>-4.261891655623912811279296875</LongitudeDegrees>
            </Position>
            <AltitudeMeters>64.1999969482421875</AltitudeMeters>
            <DistanceMeters>NAN</DistanceMeters>
          </Trackpoint>
          <Trackpoint>
            <Time>2022-07-14T18:08:42.000Z</Time>
            <Position>
              <LatitudeDegrees>43.3896769769489765167236328125</LatitudeDegrees>
              <LongitudeDegrees>-4.26220974884927272796630859375</LongitudeDegrees>
            </Position>
            <AltitudeMeters>63.40000152587890625</AltitudeMeters>
            <DistanceMeters>NAN</DistanceMeters>
          </Trackpoint>
          <Trackpoint>
            <Time>2022-07-14T18:08:43.000Z</Time>
            <Position>
              <LatitudeDegrees>43.38966096751391887664794921875</LatitudeDegrees>
              <LongitudeDegrees>-4.2623203061521053314208984375</LongitudeDegrees>
            </Position>
            <AltitudeMeters>63.200000762939453125</AltitudeMeters>
            <DistanceMeters>NAN</DistanceMeters>
          </Trackpoint>
          <Trackpoint>
            <Time>2022-07-14T18:08:47.000Z</Time>
            <Position>
              <LatitudeDegrees>43.38957496918737888336181640625</LatitudeDegrees>
              <LongitudeDegrees>-4.26279245875775814056396484375</LongitudeDegrees>
            </Position>
            <AltitudeMeters>61.799999237060546875</AltitudeMeters>
            <DistanceMeters>NAN</DistanceMeters>
          </Trackpoint>
          <Trackpoint>
            <Time>2022-07-14T18:08:48.000Z</Time>
            <Position>
              <LatitudeDegrees>43.389550410211086273193359375</LatitudeDegrees>
              <LongitudeDegrees>-4.26292187534272670745849609375</LongitudeDegrees>
            </Position>
            <AltitudeMeters>61.40000152587890625</AltitudeMeters>
            <DistanceMeters>NAN</DistanceMeters>
          </Trackpoint>
          <Trackpoint>
            <Time>2022-07-14T18:08:50.000Z</Time>
            <Position>
              <LatitudeDegrees>43.38949508965015411376953125</LatitudeDegrees>
              <LongitudeDegrees>-4.26319261081516742706298828125</LongitudeDegrees>
            </Position>
            <AltitudeMeters>60.200000762939453125</AltitudeMeters>
            <DistanceMeters>NAN</DistanceMeters>
          </Trackpoint>
          <Trackpoint>
            <Time>2022-07-14T18:08:52.000Z</Time>
            <Position>
              <LatitudeDegrees>43.389433734118938446044921875</LatitudeDegrees>
              <LongitudeDegrees>-4.26347172819077968597412109375</LongitudeDegrees>
            </Position>
            <AltitudeMeters>59</AltitudeMeters>
            <DistanceMeters>NAN</DistanceMeters>
          </Trackpoint>
          <Trackpoint>
            <Time>2022-07-14T18:08:54.000Z</Time>
            <Position>
              <LatitudeDegrees>43.38936558924615383148193359375</LatitudeDegrees>
              <LongitudeDegrees>-4.263754449784755706787109375</LongitudeDegrees>
            </Position>
            <AltitudeMeters>57.59999847412109375</AltitudeMeters>
            <DistanceMeters>NAN</DistanceMeters>
          </Trackpoint>
          <Trackpoint>
            <Time>2022-07-14T18:08:56.000Z</Time>
            <Position>
              <LatitudeDegrees>43.389300294220447540283203125</LatitudeDegrees>
              <LongitudeDegrees>-4.26400515250861644744873046875</LongitudeDegrees>
            </Position>
            <AltitudeMeters>56.59999847412109375</AltitudeMeters>
            <DistanceMeters>NAN</DistanceMeters>
          </Trackpoint>
          <Trackpoint>
            <Time>2022-07-14T18:08:58.000Z</Time>
            <Position>
              <LatitudeDegrees>43.38922074995934963226318359375</LatitudeDegrees>
              <LongitudeDegrees>-4.26429449580609798431396484375</LongitudeDegrees>
            </Position>
            <AltitudeMeters>55.40000152587890625</AltitudeMeters>
            <DistanceMeters>NAN</DistanceMeters>
          </Trackpoint>
          <Trackpoint>
            <Time>2022-07-14T18:09:00.000Z</Time>
            <Position>
              <LatitudeDegrees>43.38915176689624786376953125</LatitudeDegrees>
              <LongitudeDegrees>-4.26454427652060985565185546875</LongitudeDegrees>
            </Position>
            <AltitudeMeters>54.200000762939453125</AltitudeMeters>
            <DistanceMeters>NAN</DistanceMeters>
          </Trackpoint>
          <Trackpoint>
            <Time>2022-07-14T18:09:01.000Z</Time>
            <Position>
              <LatitudeDegrees>43.3891254477202892303466796875</LatitudeDegrees>
              <LongitudeDegrees>-4.26464200951159000396728515625</LongitudeDegrees>
            </Position>
            <AltitudeMeters>54</AltitudeMeters>
            <DistanceMeters>NAN</DistanceMeters>
          </Trackpoint>
          <Trackpoint>
            <Time>2022-07-14T18:09:06.000Z</Time>
            <Position>
              <LatitudeDegrees>43.3889901638031005859375</LatitudeDegrees>
              <LongitudeDegrees>-4.26516369916498661041259765625</LongitudeDegrees>
            </Position>
            <AltitudeMeters>53.59999847412109375</AltitudeMeters>
            <DistanceMeters>NAN</DistanceMeters>
          </Trackpoint>
          <Trackpoint>
            <Time>2022-07-14T18:09:10.000Z</Time>
            <Position>
              <LatitudeDegrees>43.38891430757939815521240234375</LatitudeDegrees>
              <LongitudeDegrees>-4.26544767804443836212158203125</LongitudeDegrees>
            </Position>
            <AltitudeMeters>54</AltitudeMeters>
            <DistanceMeters>NAN</DistanceMeters>
          </Trackpoint>
          <Trackpoint>
            <Time>2022-07-14T18:09:14.000Z</Time>
            <Position>
              <LatitudeDegrees>43.38886552490293979644775390625</LatitudeDegrees>
              <LongitudeDegrees>-4.2656425572931766510009765625</LongitudeDegrees>
            </Position>
            <AltitudeMeters>55</AltitudeMeters>
            <DistanceMeters>NAN</DistanceMeters>
          </Trackpoint>
          <Trackpoint>
            <Time>2022-07-14T18:09:15.000Z</Time>
            <Position>
              <LatitudeDegrees>43.38885630480945110321044921875</LatitudeDegrees>
              <LongitudeDegrees>-4.26568170078098773956298828125</LongitudeDegrees>
            </Position>
            <AltitudeMeters>55.200000762939453125</AltitudeMeters>
            <DistanceMeters>NAN</DistanceMeters>
          </Trackpoint>
          <Trackpoint>
            <Time>2022-07-14T18:09:16.000Z</Time>
            <Position>
              <LatitudeDegrees>43.38884775526821613311767578125</LatitudeDegrees>
              <LongitudeDegrees>-4.265719167888164520263671875</LongitudeDegrees>
            </Position>
            <AltitudeMeters>55.200000762939453125</AltitudeMeters>
            <DistanceMeters>NAN</DistanceMeters>
          </Trackpoint>
          <Trackpoint>
            <Time>2022-07-14T18:09:22.000Z</Time>
            <Position>
              <LatitudeDegrees>43.38879914022982120513916015625</LatitudeDegrees>
              <LongitudeDegrees>-4.2658943496644496917724609375</LongitudeDegrees>
            </Position>
            <AltitudeMeters>56</AltitudeMeters>
            <DistanceMeters>NAN</DistanceMeters>
          </Trackpoint>
          <Trackpoint>
            <Time>2022-07-14T18:09:24.000Z</Time>
            <Position>
              <LatitudeDegrees>43.38878790847957134246826171875</LatitudeDegrees>
              <LongitudeDegrees>-4.26593399606645107269287109375</LongitudeDegrees>
            </Position>
            <AltitudeMeters>56.200000762939453125</AltitudeMeters>
            <DistanceMeters>NAN</DistanceMeters>
          </Trackpoint>
          <Trackpoint>
            <Time>2022-07-14T18:09:30.000Z</Time>
            <Position>
              <LatitudeDegrees>43.3887479268014430999755859375</LatitudeDegrees>
              <LongitudeDegrees>-4.26607095636427402496337890625</LongitudeDegrees>
            </Position>
            <AltitudeMeters>57</AltitudeMeters>
            <DistanceMeters>NAN</DistanceMeters>
          </Trackpoint>
          <Trackpoint>
            <Time>2022-07-14T18:09:35.000Z</Time>
            <Position>
              <LatitudeDegrees>43.3887167461216449737548828125</LatitudeDegrees>
              <LongitudeDegrees>-4.26617891527712345123291015625</LongitudeDegrees>
            </Position>
            <AltitudeMeters>57.40000152587890625</AltitudeMeters>
            <DistanceMeters>NAN</DistanceMeters>
          </Trackpoint>
          <Trackpoint>
            <Time>2022-07-14T18:09:38.000Z</Time>
            <Position>
              <LatitudeDegrees>43.3886952884495258331298828125</LatitudeDegrees>
              <LongitudeDegrees>-4.266248233616352081298828125</LongitudeDegrees>
            </Position>
            <AltitudeMeters>57.59999847412109375</AltitudeMeters>
            <DistanceMeters>NAN</DistanceMeters>
          </Trackpoint>
          <Trackpoint>
            <Time>2022-07-14T18:09:45.000Z</Time>
            <Position>
              <LatitudeDegrees>43.38865664787590503692626953125</LatitudeDegrees>
              <LongitudeDegrees>-4.26640824414789676666259765625</LongitudeDegrees>
            </Position>
            <AltitudeMeters>58.200000762939453125</AltitudeMeters>
            <DistanceMeters>NAN</DistanceMeters>
          </Trackpoint>
          <Trackpoint>
            <Time>2022-07-14T18:09:46.000Z</Time>
            <Position>
              <LatitudeDegrees>43.38864977471530437469482421875</LatitudeDegrees>
              <LongitudeDegrees>-4.2664294503629207611083984375</LongitudeDegrees>
            </Position>
            <AltitudeMeters>58.40000152587890625</AltitudeMeters>
            <DistanceMeters>NAN</DistanceMeters>
          </Trackpoint>
          <Trackpoint>
            <Time>2022-07-14T18:09:51.000Z</Time>
            <Position>
              <LatitudeDegrees>43.38861909694969654083251953125</LatitudeDegrees>
              <LongitudeDegrees>-4.2665353976190090179443359375</LongitudeDegrees>
            </Position>
            <AltitudeMeters>58.799999237060546875</AltitudeMeters>
            <DistanceMeters>NAN</DistanceMeters>
          </Trackpoint>
          <Trackpoint>
            <Time>2022-07-14T18:09:55.000Z</Time>
            <Position>
              <LatitudeDegrees>43.38859495706856250762939453125</LatitudeDegrees>
              <LongitudeDegrees>-4.266611002385616302490234375</LongitudeDegrees>
            </Position>
            <AltitudeMeters>59</AltitudeMeters>
            <DistanceMeters>NAN</DistanceMeters>
          </Trackpoint>
          <Trackpoint>
            <Time>2022-07-14T18:09:59.000Z</Time>
            <Position>
              <LatitudeDegrees>43.3885766007006168365478515625</LatitudeDegrees>
              <LongitudeDegrees>-4.2666953243315219879150390625</LongitudeDegrees>
            </Position>
            <AltitudeMeters>59.40000152587890625</AltitudeMeters>
            <DistanceMeters>NAN</DistanceMeters>
          </Trackpoint>
          <Trackpoint>
            <Time>2022-07-14T18:10:05.000Z</Time>
            <Position>
              <LatitudeDegrees>43.38854181580245494842529296875</LatitudeDegrees>
              <LongitudeDegrees>-4.26683169789612293243408203125</LongitudeDegrees>
            </Position>
            <AltitudeMeters>59.799999237060546875</AltitudeMeters>
            <DistanceMeters>NAN</DistanceMeters>
          </Trackpoint>
          <Trackpoint>
            <Time>2022-07-14T18:10:11.000Z</Time>
            <Position>
              <LatitudeDegrees>43.3885108865797519683837890625</LatitudeDegrees>
              <LongitudeDegrees>-4.26695725880563259124755859375</LongitudeDegrees>
            </Position>
            <AltitudeMeters>60.40000152587890625</AltitudeMeters>
            <DistanceMeters>NAN</DistanceMeters>
          </Trackpoint>
          <Trackpoint>
            <Time>2022-07-14T18:10:13.000Z</Time>
            <Position>
              <LatitudeDegrees>43.38849789462983608245849609375</LatitudeDegrees>
              <LongitudeDegrees>-4.26699229516088962554931640625</LongitudeDegrees>
            </Position>
            <AltitudeMeters>60.59999847412109375</AltitudeMeters>
            <DistanceMeters>NAN</DistanceMeters>
          </Trackpoint>
          <Trackpoint>
            <Time>2022-07-14T18:10:23.000Z</Time>
            <Position>
              <LatitudeDegrees>43.388441316783428192138671875</LatitudeDegrees>
              <LongitudeDegrees>-4.2672337777912616729736328125</LongitudeDegrees>
            </Position>
            <AltitudeMeters>61.200000762939453125</AltitudeMeters>
            <DistanceMeters>NAN</DistanceMeters>
          </Trackpoint>
          <Trackpoint>
            <Time>2022-07-14T18:10:27.000Z</Time>
            <Position>
              <LatitudeDegrees>43.388407789170742034912109375</LatitudeDegrees>
              <LongitudeDegrees>-4.2673343606293201446533203125</LongitudeDegrees>
            </Position>
            <AltitudeMeters>61.40000152587890625</AltitudeMeters>
            <DistanceMeters>NAN</DistanceMeters>
          </Trackpoint>
          <Trackpoint>
            <Time>2022-07-14T18:10:33.000Z</Time>
            <Position>
              <LatitudeDegrees>43.3883610181510448455810546875</LatitudeDegrees>
              <LongitudeDegrees>-4.2675273120403289794921875</LongitudeDegrees>
            </Position>
            <AltitudeMeters>61.59999847412109375</AltitudeMeters>
            <DistanceMeters>NAN</DistanceMeters>
          </Trackpoint>
          <Trackpoint>
            <Time>2022-07-14T18:10:40.000Z</Time>
            <Position>
              <LatitudeDegrees>43.3883056975901126861572265625</LatitudeDegrees>
              <LongitudeDegrees>-4.26774415187537670135498046875</LongitudeDegrees>
            </Position>
            <AltitudeMeters>61.59999847412109375</AltitudeMeters>
            <DistanceMeters>NAN</DistanceMeters>
          </Trackpoint>
          <Trackpoint>
            <Time>2022-07-14T18:10:47.000Z</Time>
            <Position>
              <LatitudeDegrees>43.38824576698243618011474609375</LatitudeDegrees>
              <LongitudeDegrees>-4.2680169828236103057861328125</LongitudeDegrees>
            </Position>
            <AltitudeMeters>61.59999847412109375</AltitudeMeters>
            <DistanceMeters>NAN</DistanceMeters>
          </Trackpoint>
          <Trackpoint>
            <Time>2022-07-14T18:10:53.000Z</Time>
            <Position>
              <LatitudeDegrees>43.388190530240535736083984375</LatitudeDegrees>
              <LongitudeDegrees>-4.2683388479053974151611328125</LongitudeDegrees>
            </Position>
            <AltitudeMeters>61.200000762939453125</AltitudeMeters>
            <DistanceMeters>NAN</DistanceMeters>
          </Trackpoint>
          <Trackpoint>
            <Time>2022-07-14T18:10:59.000Z</Time>
            <Position>
              <LatitudeDegrees>43.3881672285497188568115234375</LatitudeDegrees>
              <LongitudeDegrees>-4.26875174045562744140625</LongitudeDegrees>
            </Position>
            <AltitudeMeters>60.40000152587890625</AltitudeMeters>
            <DistanceMeters>NAN</DistanceMeters>
          </Trackpoint>
          <Trackpoint>
            <Time>2022-07-14T18:11:05.000Z</Time>
            <Position>
              <LatitudeDegrees>43.3881742693483829498291015625</LatitudeDegrees>
              <LongitudeDegrees>-4.269187934696674346923828125</LongitudeDegrees>
            </Position>
            <AltitudeMeters>59.59999847412109375</AltitudeMeters>
            <DistanceMeters>NAN</DistanceMeters>
          </Trackpoint>
          <Trackpoint>
            <Time>2022-07-14T18:11:06.000Z</Time>
            <Position>
              <LatitudeDegrees>43.38817670010030269622802734375</LatitudeDegrees>
              <LongitudeDegrees>-4.26927301101386547088623046875</LongitudeDegrees>
            </Position>
            <AltitudeMeters>59.59999847412109375</AltitudeMeters>
            <DistanceMeters>NAN</DistanceMeters>
          </Trackpoint>
          <Trackpoint>
            <Time>2022-07-14T18:11:08.000Z</Time>
            <Position>
              <LatitudeDegrees>43.38818273507058620452880859375</LatitudeDegrees>
              <LongitudeDegrees>-4.2694610171020030975341796875</LongitudeDegrees>
            </Position>
            <AltitudeMeters>59.40000152587890625</AltitudeMeters>
            <DistanceMeters>NAN</DistanceMeters>
          </Trackpoint>
          <Trackpoint>
            <Time>2022-07-14T18:11:12.000Z</Time>
            <Position>
              <LatitudeDegrees>43.38820184580981731414794921875</LatitudeDegrees>
              <LongitudeDegrees>-4.2698207683861255645751953125</LongitudeDegrees>
            </Position>
            <AltitudeMeters>58.799999237060546875</AltitudeMeters>
            <DistanceMeters>NAN</DistanceMeters>
          </Trackpoint>
          <Trackpoint>
            <Time>2022-07-14T18:11:14.000Z</Time>
            <Position>
              <LatitudeDegrees>43.38820704258978366851806640625</LatitudeDegrees>
              <LongitudeDegrees>-4.2700001411139965057373046875</LongitudeDegrees>
            </Position>
            <AltitudeMeters>58.200000762939453125</AltitudeMeters>
            <DistanceMeters>NAN</DistanceMeters>
          </Trackpoint>
          <Trackpoint>
            <Time>2022-07-14T18:11:20.000Z</Time>
            <Position>
              <LatitudeDegrees>43.38822514750063419342041015625</LatitudeDegrees>
              <LongitudeDegrees>-4.270533733069896697998046875</LongitudeDegrees>
            </Position>
            <AltitudeMeters>57.799999237060546875</AltitudeMeters>
            <DistanceMeters>NAN</DistanceMeters>
          </Trackpoint>
          <Trackpoint>
            <Time>2022-07-14T18:11:24.000Z</Time>
            <Position>
              <LatitudeDegrees>43.38823554106056690216064453125</LatitudeDegrees>
              <LongitudeDegrees>-4.27088937722146511077880859375</LongitudeDegrees>
            </Position>
            <AltitudeMeters>57.200000762939453125</AltitudeMeters>
            <DistanceMeters>NAN</DistanceMeters>
          </Trackpoint>
          <Trackpoint>
            <Time>2022-07-14T18:11:31.000Z</Time>
            <Position>
              <LatitudeDegrees>43.38824911974370479583740234375</LatitudeDegrees>
              <LongitudeDegrees>-4.2715038545429706573486328125</LongitudeDegrees>
            </Position>
            <AltitudeMeters>56.200000762939453125</AltitudeMeters>
            <DistanceMeters>NAN</DistanceMeters>
          </Trackpoint>
          <Trackpoint>
            <Time>2022-07-14T18:11:32.000Z</Time>
            <Position>
              <LatitudeDegrees>43.38825196959078311920166015625</LatitudeDegrees>
              <LongitudeDegrees>-4.27159211598336696624755859375</LongitudeDegrees>
            </Position>
            <AltitudeMeters>56</AltitudeMeters>
            <DistanceMeters>NAN</DistanceMeters>
          </Trackpoint>
          <Trackpoint>
            <Time>2022-07-14T18:11:37.000Z</Time>
            <Position>
              <LatitudeDegrees>43.3882661350071430206298828125</LatitudeDegrees>
              <LongitudeDegrees>-4.27205060608685016632080078125</LongitudeDegrees>
            </Position>
            <AltitudeMeters>55.200000762939453125</AltitudeMeters>
            <DistanceMeters>NAN</DistanceMeters>
          </Trackpoint>
          <Trackpoint>
            <Time>2022-07-14T18:11:39.000Z</Time>
            <Position>
              <LatitudeDegrees>43.38827124796807765960693359375</LatitudeDegrees>
              <LongitudeDegrees>-4.272236935794353485107421875</LongitudeDegrees>
            </Position>
            <AltitudeMeters>55.200000762939453125</AltitudeMeters>
            <DistanceMeters>NAN</DistanceMeters>
          </Trackpoint>
          <Trackpoint>
            <Time>2022-07-14T18:11:40.000Z</Time>
            <Position>
              <LatitudeDegrees>43.388270325958728790283203125</LatitudeDegrees>
              <LongitudeDegrees>-4.2723259516060352325439453125</LongitudeDegrees>
            </Position>
            <AltitudeMeters>55</AltitudeMeters>
            <DistanceMeters>NAN</DistanceMeters>
          </Trackpoint>
          <Trackpoint>
            <Time>2022-07-14T18:11:44.000Z</Time>
            <Position>
              <LatitudeDegrees>43.3882785402238368988037109375</LatitudeDegrees>
              <LongitudeDegrees>-4.2726709507405757904052734375</LongitudeDegrees>
            </Position>
            <AltitudeMeters>54.200000762939453125</AltitudeMeters>
            <DistanceMeters>NAN</DistanceMeters>
          </Trackpoint>
          <Trackpoint>
            <Time>2022-07-14T18:11:46.000Z</Time>
            <Position>
              <LatitudeDegrees>43.388282395899295806884765625</LatitudeDegrees>
              <LongitudeDegrees>-4.27284135483205318450927734375</LongitudeDegrees>
            </Position>
            <AltitudeMeters>53.799999237060546875</AltitudeMeters>
            <DistanceMeters>NAN</DistanceMeters>
          </Trackpoint>
          <Trackpoint>
            <Time>2022-07-14T18:11:48.000Z</Time>
            <Position>
              <LatitudeDegrees>43.388284742832183837890625</LatitudeDegrees>
              <LongitudeDegrees>-4.27301050163805484771728515625</LongitudeDegrees>
            </Position>
            <AltitudeMeters>53.40000152587890625</AltitudeMeters>
            <DistanceMeters>NAN</DistanceMeters>
          </Trackpoint>
          <Trackpoint>
            <Time>2022-07-14T18:11:55.000Z</Time>
            <Position>
              <LatitudeDegrees>43.38830024935305118560791015625</LatitudeDegrees>
              <LongitudeDegrees>-4.27358181215822696685791015625</LongitudeDegrees>
            </Position>
            <AltitudeMeters>52.59999847412109375</AltitudeMeters>
            <DistanceMeters>NAN</DistanceMeters>
          </Trackpoint>
          <Trackpoint>
            <Time>2022-07-14T18:11:59.000Z</Time>
            <Position>
              <LatitudeDegrees>43.38830242864787578582763671875</LatitudeDegrees>
              <LongitudeDegrees>-4.27387903444468975067138671875</LongitudeDegrees>
            </Position>
            <AltitudeMeters>52.40000152587890625</AltitudeMeters>
            <DistanceMeters>NAN</DistanceMeters>
          </Trackpoint>
          <Trackpoint>
            <Time>2022-07-14T18:12:00.000Z</Time>
            <Position>
              <LatitudeDegrees>43.388303183019161224365234375</LatitudeDegrees>
              <LongitudeDegrees>-4.2739512026309967041015625</LongitudeDegrees>
            </Position>
            <AltitudeMeters>52.200000762939453125</AltitudeMeters>
            <DistanceMeters>NAN</DistanceMeters>
          </Trackpoint>
          <Trackpoint>
            <Time>2022-07-14T18:12:05.000Z</Time>
            <Position>
              <LatitudeDegrees>43.3883181028068065643310546875</LatitudeDegrees>
              <LongitudeDegrees>-4.27433081902563571929931640625</LongitudeDegrees>
            </Position>
            <AltitudeMeters>51.799999237060546875</AltitudeMeters>
            <DistanceMeters>NAN</DistanceMeters>
          </Trackpoint>
          <Trackpoint>
            <Time>2022-07-14T18:12:07.000Z</Time>
            <Position>
              <LatitudeDegrees>43.388323970139026641845703125</LatitudeDegrees>
              <LongitudeDegrees>-4.27446015179157257080078125</LongitudeDegrees>
            </Position>
            <AltitudeMeters>51.799999237060546875</AltitudeMeters>
            <DistanceMeters>NAN</DistanceMeters>
          </Trackpoint>
          <Trackpoint>
            <Time>2022-07-14T18:12:08.000Z</Time>
            <Position>
              <LatitudeDegrees>43.38832438923418521881103515625</LatitudeDegrees>
              <LongitudeDegrees>-4.27452318370342254638671875</LongitudeDegrees>
            </Position>
            <AltitudeMeters>51.799999237060546875</AltitudeMeters>
            <DistanceMeters>NAN</DistanceMeters>
          </Trackpoint>
          <Trackpoint>
            <Time>2022-07-14T18:12:14.000Z</Time>
            <Position>
              <LatitudeDegrees>43.38833495043218135833740234375</LatitudeDegrees>
              <LongitudeDegrees>-4.2748770676553249359130859375</LongitudeDegrees>
            </Position>
            <AltitudeMeters>52</AltitudeMeters>
            <DistanceMeters>NAN</DistanceMeters>
          </Trackpoint>
          <Trackpoint>
            <Time>2022-07-14T18:12:17.000Z</Time>
            <Position>
              <LatitudeDegrees>43.38834199123084545135498046875</LatitudeDegrees>
              <LongitudeDegrees>-4.27504244260489940643310546875</LongitudeDegrees>
            </Position>
            <AltitudeMeters>52.40000152587890625</AltitudeMeters>
            <DistanceMeters>NAN</DistanceMeters>
          </Trackpoint>
          <Trackpoint>
            <Time>2022-07-14T18:12:18.000Z</Time>
            <Position>
              <LatitudeDegrees>43.38834148831665515899658203125</LatitudeDegrees>
              <LongitudeDegrees>-4.2750879563391208648681640625</LongitudeDegrees>
            </Position>
            <AltitudeMeters>52.40000152587890625</AltitudeMeters>
            <DistanceMeters>NAN</DistanceMeters>
          </Trackpoint>
          <Trackpoint>
            <Time>2022-07-14T18:12:21.000Z</Time>
            <Position>
              <LatitudeDegrees>43.38834232650697231292724609375</LatitudeDegrees>
              <LongitudeDegrees>-4.2752257548272609710693359375</LongitudeDegrees>
            </Position>
            <AltitudeMeters>52.59999847412109375</AltitudeMeters>
            <DistanceMeters>NAN</DistanceMeters>
          </Trackpoint>
          <Trackpoint>
            <Time>2022-07-14T18:12:25.000Z</Time>
            <Position>
              <LatitudeDegrees>43.38834718801081180572509765625</LatitudeDegrees>
              <LongitudeDegrees>-4.27540755830705165863037109375</LongitudeDegrees>
            </Position>
            <AltitudeMeters>52.799999237060546875</AltitudeMeters>
            <DistanceMeters>NAN</DistanceMeters>
          </Trackpoint>
          <Trackpoint>
            <Time>2022-07-14T18:12:31.000Z</Time>
            <Position>
              <LatitudeDegrees>43.3883571624755859375</LatitudeDegrees>
              <LongitudeDegrees>-4.27566974423825740814208984375</LongitudeDegrees>
            </Position>
            <AltitudeMeters>53.40000152587890625</AltitudeMeters>
            <DistanceMeters>NAN</DistanceMeters>
          </Trackpoint>
          <Trackpoint>
            <Time>2022-07-14T18:12:34.000Z</Time>
            <Position>
              <LatitudeDegrees>43.3883590064942836761474609375</LatitudeDegrees>
              <LongitudeDegrees>-4.2757920362055301666259765625</LongitudeDegrees>
            </Position>
            <AltitudeMeters>53.59999847412109375</AltitudeMeters>
            <DistanceMeters>NAN</DistanceMeters>
          </Trackpoint>
          <Trackpoint>
            <Time>2022-07-14T18:12:35.000Z</Time>
            <Position>
              <LatitudeDegrees>43.38835674338042736053466796875</LatitudeDegrees>
              <LongitudeDegrees>-4.27583302371203899383544921875</LongitudeDegrees>
            </Position>
            <AltitudeMeters>53.799999237060546875</AltitudeMeters>
            <DistanceMeters>NAN</DistanceMeters>
          </Trackpoint>
          <Trackpoint>
            <Time>2022-07-14T18:12:39.000Z</Time>
            <Position>
              <LatitudeDegrees>43.38835590519011020660400390625</LatitudeDegrees>
              <LongitudeDegrees>-4.27598054520785808563232421875</LongitudeDegrees>
            </Position>
            <AltitudeMeters>54.200000762939453125</AltitudeMeters>
            <DistanceMeters>NAN</DistanceMeters>
          </Trackpoint>
          <Trackpoint>
            <Time>2022-07-14T18:12:43.000Z</Time>
            <Position>
              <LatitudeDegrees>43.38836051523685455322265625</LatitudeDegrees>
              <LongitudeDegrees>-4.27614483051002025604248046875</LongitudeDegrees>
            </Position>
            <AltitudeMeters>54.40000152587890625</AltitudeMeters>
            <DistanceMeters>NAN</DistanceMeters>
          </Trackpoint>
          <Trackpoint>
            <Time>2022-07-14T18:12:47.000Z</Time>
            <Position>
              <LatitudeDegrees>43.38836126960813999176025390625</LatitudeDegrees>
              <LongitudeDegrees>-4.27630375139415264129638671875</LongitudeDegrees>
            </Position>
            <AltitudeMeters>54.59999847412109375</AltitudeMeters>
            <DistanceMeters>NAN</DistanceMeters>
          </Trackpoint>
          <Trackpoint>
            <Time>2022-07-14T18:12:49.000Z</Time>
            <Position>
              <LatitudeDegrees>43.38836344890296459197998046875</LatitudeDegrees>
              <LongitudeDegrees>-4.2763827927410602569580078125</LongitudeDegrees>
            </Position>
            <AltitudeMeters>54.799999237060546875</AltitudeMeters>
            <DistanceMeters>NAN</DistanceMeters>
          </Trackpoint>
          <Trackpoint>
            <Time>2022-07-14T18:12:50.000Z</Time>
            <Position>
              <LatitudeDegrees>43.388365209102630615234375</LatitudeDegrees>
              <LongitudeDegrees>-4.2764233611524105072021484375</LongitudeDegrees>
            </Position>
            <AltitudeMeters>54.799999237060546875</AltitudeMeters>
            <DistanceMeters>NAN</DistanceMeters>
          </Trackpoint>
          <Trackpoint>
            <Time>2022-07-14T18:12:54.000Z</Time>
            <Position>
              <LatitudeDegrees>43.3883616887032985687255859375</LatitudeDegrees>
              <LongitudeDegrees>-4.27661421708762645721435546875</LongitudeDegrees>
            </Position>
            <AltitudeMeters>54.799999237060546875</AltitudeMeters>
            <DistanceMeters>NAN</DistanceMeters>
          </Trackpoint>
          <Trackpoint>
            <Time>2022-07-14T18:12:56.000Z</Time>
            <Position>
              <LatitudeDegrees>43.38836261071264743804931640625</LatitudeDegrees>
              <LongitudeDegrees>-4.2767244391143321990966796875</LongitudeDegrees>
            </Position>
            <AltitudeMeters>54.799999237060546875</AltitudeMeters>
            <DistanceMeters>NAN</DistanceMeters>
          </Trackpoint>
          <Trackpoint>
            <Time>2022-07-14T18:12:57.000Z</Time>
            <Position>
              <LatitudeDegrees>43.3883633650839328765869140625</LatitudeDegrees>
              <LongitudeDegrees>-4.27677892148494720458984375</LongitudeDegrees>
            </Position>
            <AltitudeMeters>54.799999237060546875</AltitudeMeters>
            <DistanceMeters>NAN</DistanceMeters>
          </Trackpoint>
          <Trackpoint>
            <Time>2022-07-14T18:13:03.000Z</Time>
            <Position>
              <LatitudeDegrees>43.38838222436606884002685546875</LatitudeDegrees>
              <LongitudeDegrees>-4.27715451456606388092041015625</LongitudeDegrees>
            </Position>
            <AltitudeMeters>54.40000152587890625</AltitudeMeters>
            <DistanceMeters>NAN</DistanceMeters>
          </Trackpoint>
          <Trackpoint>
            <Time>2022-07-14T18:13:07.000Z</Time>
            <Position>
              <LatitudeDegrees>43.388398401439189910888671875</LatitudeDegrees>
              <LongitudeDegrees>-4.27747705020010471343994140625</LongitudeDegrees>
            </Position>
            <AltitudeMeters>53.59999847412109375</AltitudeMeters>
            <DistanceMeters>NAN</DistanceMeters>
          </Trackpoint>
          <Trackpoint>
            <Time>2022-07-14T18:13:10.000Z</Time>
            <Position>
              <LatitudeDegrees>43.38840200565755367279052734375</LatitudeDegrees>
              <LongitudeDegrees>-4.2777238972485065460205078125</LongitudeDegrees>
            </Position>
            <AltitudeMeters>52.40000152587890625</AltitudeMeters>
            <DistanceMeters>NAN</DistanceMeters>
          </Trackpoint>
          <Trackpoint>
            <Time>2022-07-14T18:13:15.000Z</Time>
            <Position>
              <LatitudeDegrees>43.3883476071059703826904296875</LatitudeDegrees>
              <LongitudeDegrees>-4.27819118835031986236572265625</LongitudeDegrees>
            </Position>
            <AltitudeMeters>51.40000152587890625</AltitudeMeters>
            <DistanceMeters>NAN</DistanceMeters>
          </Trackpoint>
          <Trackpoint>
            <Time>2022-07-14T18:13:19.000Z</Time>
            <Position>
              <LatitudeDegrees>43.38824727572500705718994140625</LatitudeDegrees>
              <LongitudeDegrees>-4.27855588495731353759765625</LongitudeDegrees>
            </Position>
            <AltitudeMeters>50.40000152587890625</AltitudeMeters>
            <DistanceMeters>NAN</DistanceMeters>
          </Trackpoint>
          <Trackpoint>
            <Time>2022-07-14T18:13:21.000Z</Time>
            <Position>
              <LatitudeDegrees>43.3881826512515544891357421875</LatitudeDegrees>
              <LongitudeDegrees>-4.27874908782541751861572265625</LongitudeDegrees>
            </Position>
            <AltitudeMeters>50</AltitudeMeters>
            <DistanceMeters>NAN</DistanceMeters>
          </Trackpoint>
          <Trackpoint>
            <Time>2022-07-14T18:13:22.000Z</Time>
            <Position>
              <LatitudeDegrees>43.3881447650492191314697265625</LatitudeDegrees>
              <LongitudeDegrees>-4.27883340977132320404052734375</LongitudeDegrees>
            </Position>
            <AltitudeMeters>49.799999237060546875</AltitudeMeters>
            <DistanceMeters>NAN</DistanceMeters>
          </Trackpoint>
          <Trackpoint>
            <Time>2022-07-14T18:13:23.000Z</Time>
            <Position>
              <LatitudeDegrees>43.388107381761074066162109375</LatitudeDegrees>
              <LongitudeDegrees>-4.27891530096530914306640625</LongitudeDegrees>
            </Position>
            <AltitudeMeters>49.799999237060546875</AltitudeMeters>
            <DistanceMeters>NAN</DistanceMeters>
          </Trackpoint>
          <Trackpoint>
            <Time>2022-07-14T18:13:24.000Z</Time>
            <Position>
              <LatitudeDegrees>43.3880768716335296630859375</LatitudeDegrees>
              <LongitudeDegrees>-4.2789754830300807952880859375</LongitudeDegrees>
            </Position>
            <AltitudeMeters>49.59999847412109375</AltitudeMeters>
            <DistanceMeters>NAN</DistanceMeters>
          </Trackpoint>
          <Trackpoint>
            <Time>2022-07-14T18:13:25.000Z</Time>
            <Position>
              <LatitudeDegrees>43.38803856633603572845458984375</LatitudeDegrees>
              <LongitudeDegrees>-4.27904832176864147186279296875</LongitudeDegrees>
            </Position>
            <AltitudeMeters>49.40000152587890625</AltitudeMeters>
            <DistanceMeters>NAN</DistanceMeters>
          </Trackpoint>
          <Trackpoint>
            <Time>2022-07-14T18:13:26.000Z</Time>
            <Position>
              <LatitudeDegrees>43.3879979141056537628173828125</LatitudeDegrees>
              <LongitudeDegrees>-4.27912124432623386383056640625</LongitudeDegrees>
            </Position>
            <AltitudeMeters>49.40000152587890625</AltitudeMeters>
            <DistanceMeters>NAN</DistanceMeters>
          </Trackpoint>
          <Trackpoint>
            <Time>2022-07-14T18:13:29.000Z</Time>
            <Position>
              <LatitudeDegrees>43.387882076203823089599609375</LatitudeDegrees>
              <LongitudeDegrees>-4.27933280356228351593017578125</LongitudeDegrees>
            </Position>
            <AltitudeMeters>49.200000762939453125</AltitudeMeters>
            <DistanceMeters>NAN</DistanceMeters>
          </Trackpoint>
          <Trackpoint>
            <Time>2022-07-14T18:13:31.000Z</Time>
            <Position>
              <LatitudeDegrees>43.3878192119300365447998046875</LatitudeDegrees>
              <LongitudeDegrees>-4.27946247160434722900390625</LongitudeDegrees>
            </Position>
            <AltitudeMeters>49</AltitudeMeters>
            <DistanceMeters>NAN</DistanceMeters>
          </Trackpoint>
          <Trackpoint>
            <Time>2022-07-14T18:13:35.000Z</Time>
            <Position>
              <LatitudeDegrees>43.38770714588463306427001953125</LatitudeDegrees>
              <LongitudeDegrees>-4.27967880852520465850830078125</LongitudeDegrees>
            </Position>
            <AltitudeMeters>49</AltitudeMeters>
            <DistanceMeters>NAN</DistanceMeters>
          </Trackpoint>
          <Trackpoint>
            <Time>2022-07-14T18:13:41.000Z</Time>
            <Position>
              <LatitudeDegrees>43.38758745230734348297119140625</LatitudeDegrees>
              <LongitudeDegrees>-4.27994853816926479339599609375</LongitudeDegrees>
            </Position>
            <AltitudeMeters>49.40000152587890625</AltitudeMeters>
            <DistanceMeters>NAN</DistanceMeters>
          </Trackpoint>
          <Trackpoint>
            <Time>2022-07-14T18:13:48.000Z</Time>
            <Position>
              <LatitudeDegrees>43.38751184754073619842529296875</LatitudeDegrees>
              <LongitudeDegrees>-4.28020334802567958831787109375</LongitudeDegrees>
            </Position>
            <AltitudeMeters>50</AltitudeMeters>
            <DistanceMeters>NAN</DistanceMeters>
          </Trackpoint>
          <Trackpoint>
            <Time>2022-07-14T18:13:50.000Z</Time>
            <Position>
              <LatitudeDegrees>43.38748770765960216522216796875</LatitudeDegrees>
              <LongitudeDegrees>-4.280256070196628570556640625</LongitudeDegrees>
            </Position>
            <AltitudeMeters>50.200000762939453125</AltitudeMeters>
            <DistanceMeters>NAN</DistanceMeters>
          </Trackpoint>
          <Trackpoint>
            <Time>2022-07-14T18:13:51.000Z</Time>
            <Position>
              <LatitudeDegrees>43.387475721538066864013671875</LatitudeDegrees>
              <LongitudeDegrees>-4.28027912043035030364990234375</LongitudeDegrees>
            </Position>
            <AltitudeMeters>50.40000152587890625</AltitudeMeters>
            <DistanceMeters>NAN</DistanceMeters>
          </Trackpoint>
          <Trackpoint>
            <Time>2022-07-14T18:13:54.000Z</Time>
            <Position>
              <LatitudeDegrees>43.3874438703060150146484375</LatitudeDegrees>
              <LongitudeDegrees>-4.2803367041051387786865234375</LongitudeDegrees>
            </Position>
            <AltitudeMeters>50.799999237060546875</AltitudeMeters>
            <DistanceMeters>NAN</DistanceMeters>
          </Trackpoint>
          <Trackpoint>
            <Time>2022-07-14T18:13:56.000Z</Time>
            <Position>
              <LatitudeDegrees>43.38741227053105831146240234375</LatitudeDegrees>
              <LongitudeDegrees>-4.2803759314119815826416015625</LongitudeDegrees>
            </Position>
            <AltitudeMeters>51</AltitudeMeters>
            <DistanceMeters>NAN</DistanceMeters>
          </Trackpoint>
          <Trackpoint>
            <Time>2022-07-14T18:14:02.000Z</Time>
            <Position>
              <LatitudeDegrees>43.3873005397617816925048828125</LatitudeDegrees>
              <LongitudeDegrees>-4.28046838380396366119384765625</LongitudeDegrees>
            </Position>
            <AltitudeMeters>51.40000152587890625</AltitudeMeters>
            <DistanceMeters>NAN</DistanceMeters>
          </Trackpoint>
          <Trackpoint>
            <Time>2022-07-14T18:14:07.000Z</Time>
            <Position>
              <LatitudeDegrees>43.38720993138849735260009765625</LatitudeDegrees>
              <LongitudeDegrees>-4.28055253811180591583251953125</LongitudeDegrees>
            </Position>
            <AltitudeMeters>51.799999237060546875</AltitudeMeters>
            <DistanceMeters>NAN</DistanceMeters>
          </Trackpoint>
          <Trackpoint>
            <Time>2022-07-14T18:14:10.000Z</Time>
            <Position>
              <LatitudeDegrees>43.387163579463958740234375</LatitudeDegrees>
              <LongitudeDegrees>-4.2806052602827548980712890625</LongitudeDegrees>
            </Position>
            <AltitudeMeters>52</AltitudeMeters>
            <DistanceMeters>NAN</DistanceMeters>
          </Trackpoint>
          <Trackpoint>
            <Time>2022-07-14T18:14:16.000Z</Time>
            <Position>
              <LatitudeDegrees>43.38708101771771907806396484375</LatitudeDegrees>
              <LongitudeDegrees>-4.2807276360690593719482421875</LongitudeDegrees>
            </Position>
            <AltitudeMeters>52.40000152587890625</AltitudeMeters>
            <DistanceMeters>NAN</DistanceMeters>
          </Trackpoint>
          <Trackpoint>
            <Time>2022-07-14T18:14:24.000Z</Time>
            <Position>
              <LatitudeDegrees>43.38703122921288013458251953125</LatitudeDegrees>
              <LongitudeDegrees>-4.28094179369509220123291015625</LongitudeDegrees>
            </Position>
            <AltitudeMeters>53</AltitudeMeters>
            <DistanceMeters>NAN</DistanceMeters>
          </Trackpoint>
          <Trackpoint>
            <Time>2022-07-14T18:14:34.000Z</Time>
            <Position>
              <LatitudeDegrees>43.3870279602706432342529296875</LatitudeDegrees>
              <LongitudeDegrees>-4.281251840293407440185546875</LongitudeDegrees>
            </Position>
            <AltitudeMeters>53.40000152587890625</AltitudeMeters>
            <DistanceMeters>NAN</DistanceMeters>
          </Trackpoint>
          <Trackpoint>
            <Time>2022-07-14T18:14:36.000Z</Time>
            <Position>
              <LatitudeDegrees>43.3870373480021953582763671875</LatitudeDegrees>
              <LongitudeDegrees>-4.281330965459346771240234375</LongitudeDegrees>
            </Position>
            <AltitudeMeters>53.40000152587890625</AltitudeMeters>
            <DistanceMeters>NAN</DistanceMeters>
          </Trackpoint>
          <Trackpoint>
            <Time>2022-07-14T18:14:42.000Z</Time>
            <Position>
              <LatitudeDegrees>43.38709258474409580230712890625</LatitudeDegrees>
              <LongitudeDegrees>-4.28153757937252521514892578125</LongitudeDegrees>
            </Position>
            <AltitudeMeters>53.40000152587890625</AltitudeMeters>
            <DistanceMeters>NAN</DistanceMeters>
          </Trackpoint>
          <Trackpoint>
            <Time>2022-07-14T18:14:44.000Z</Time>
            <Position>
              <LatitudeDegrees>43.3871204964816570281982421875</LatitudeDegrees>
              <LongitudeDegrees>-4.28160530515015125274658203125</LongitudeDegrees>
            </Position>
            <AltitudeMeters>53.59999847412109375</AltitudeMeters>
            <DistanceMeters>NAN</DistanceMeters>
          </Trackpoint>
          <Trackpoint>
            <Time>2022-07-14T18:14:52.000Z</Time>
            <Position>
              <LatitudeDegrees>43.38727078400552272796630859375</LatitudeDegrees>
              <LongitudeDegrees>-4.28188987076282501220703125</LongitudeDegrees>
            </Position>
            <AltitudeMeters>53.40000152587890625</AltitudeMeters>
            <DistanceMeters>NAN</DistanceMeters>
          </Trackpoint>
          <Trackpoint>
            <Time>2022-07-14T18:15:01.000Z</Time>
            <Position>
              <LatitudeDegrees>43.3874799124896526336669921875</LatitudeDegrees>
              <LongitudeDegrees>-4.28220695815980434417724609375</LongitudeDegrees>
            </Position>
            <AltitudeMeters>53</AltitudeMeters>
            <DistanceMeters>NAN</DistanceMeters>
          </Trackpoint>
          <Trackpoint>
            <Time>2022-07-14T18:15:09.000Z</Time>
            <Position>
              <LatitudeDegrees>43.38767847977578639984130859375</LatitudeDegrees>
              <LongitudeDegrees>-4.28250652737915515899658203125</LongitudeDegrees>
            </Position>
            <AltitudeMeters>52.40000152587890625</AltitudeMeters>
            <DistanceMeters>NAN</DistanceMeters>
          </Trackpoint>
          <Trackpoint>
            <Time>2022-07-14T18:15:10.000Z</Time>
            <Position>
              <LatitudeDegrees>43.38769842870533466339111328125</LatitudeDegrees>
              <LongitudeDegrees>-4.28253519348800182342529296875</LongitudeDegrees>
            </Position>
            <AltitudeMeters>52.40000152587890625</AltitudeMeters>
            <DistanceMeters>NAN</DistanceMeters>
          </Trackpoint>
          <Trackpoint>
            <Time>2022-07-14T18:15:11.000Z</Time>
            <Position>
              <LatitudeDegrees>43.387710414826869964599609375</LatitudeDegrees>
              <LongitudeDegrees>-4.2825458385050296783447265625</LongitudeDegrees>
            </Position>
            <AltitudeMeters>52.200000762939453125</AltitudeMeters>
            <DistanceMeters>NAN</DistanceMeters>
          </Trackpoint>
          <Trackpoint>
            <Time>2022-07-14T18:15:13.000Z</Time>
            <Position>
              <LatitudeDegrees>43.38772072456777095794677734375</LatitudeDegrees>
              <LongitudeDegrees>-4.28254977799952030181884765625</LongitudeDegrees>
            </Position>
            <AltitudeMeters>52.200000762939453125</AltitudeMeters>
            <DistanceMeters>NAN</DistanceMeters>
          </Trackpoint>
          <Trackpoint>
            <Time>2022-07-14T18:15:15.000Z</Time>
            <Position>
              <LatitudeDegrees>43.38772072456777095794677734375</LatitudeDegrees>
              <LongitudeDegrees>-4.28254977799952030181884765625</LongitudeDegrees>
            </Position>
            <AltitudeMeters>52.200000762939453125</AltitudeMeters>
            <DistanceMeters>NAN</DistanceMeters>
          </Trackpoint>
          <Trackpoint>
            <Time>2022-07-14T18:20:10.000Z</Time>
            <Position>
              <LatitudeDegrees>43.38776632212102413177490234375</LatitudeDegrees>
              <LongitudeDegrees>-4.282627813518047332763671875</LongitudeDegrees>
            </Position>
            <AltitudeMeters>52.59999847412109375</AltitudeMeters>
            <DistanceMeters>NAN</DistanceMeters>
          </Trackpoint>
          <Trackpoint>
            <Time>2022-07-14T18:20:11.000Z</Time>
            <Position>
              <LatitudeDegrees>43.38778409175574779510498046875</LatitudeDegrees>
              <LongitudeDegrees>-4.282659329473972320556640625</LongitudeDegrees>
            </Position>
            <AltitudeMeters>52.59999847412109375</AltitudeMeters>
            <DistanceMeters>NAN</DistanceMeters>
          </Trackpoint>
          <Trackpoint>
            <Time>2022-07-14T18:20:12.000Z</Time>
            <Position>
              <LatitudeDegrees>43.38780186139047145843505859375</LatitudeDegrees>
              <LongitudeDegrees>-4.28268372081220149993896484375</LongitudeDegrees>
            </Position>
            <AltitudeMeters>52.59999847412109375</AltitudeMeters>
            <DistanceMeters>NAN</DistanceMeters>
          </Trackpoint>
          <Trackpoint>
            <Time>2022-07-14T18:20:17.000Z</Time>
            <Position>
              <LatitudeDegrees>43.3878792263567447662353515625</LatitudeDegrees>
              <LongitudeDegrees>-4.2828090302646160125732421875</LongitudeDegrees>
            </Position>
            <AltitudeMeters>52.59999847412109375</AltitudeMeters>
            <DistanceMeters>NAN</DistanceMeters>
          </Trackpoint>
          <Trackpoint>
            <Time>2022-07-14T18:20:18.000Z</Time>
            <Position>
              <LatitudeDegrees>43.3879025280475616455078125</LatitudeDegrees>
              <LongitudeDegrees>-4.282840378582477569580078125</LongitudeDegrees>
            </Position>
            <AltitudeMeters>52.59999847412109375</AltitudeMeters>
            <DistanceMeters>NAN</DistanceMeters>
          </Trackpoint>
          <Trackpoint>
            <Time>2022-07-14T18:20:25.000Z</Time>
            <Position>
              <LatitudeDegrees>43.38799481280148029327392578125</LatitudeDegrees>
              <LongitudeDegrees>-4.28303525783121585845947265625</LongitudeDegrees>
            </Position>
            <AltitudeMeters>53</AltitudeMeters>
            <DistanceMeters>NAN</DistanceMeters>
          </Trackpoint>
          <Trackpoint>
            <Time>2022-07-14T18:20:27.000Z</Time>
            <Position>
              <LatitudeDegrees>43.38801576755940914154052734375</LatitudeDegrees>
              <LongitudeDegrees>-4.2830641753971576690673828125</LongitudeDegrees>
            </Position>
            <AltitudeMeters>53</AltitudeMeters>
            <DistanceMeters>NAN</DistanceMeters>
          </Trackpoint>
          <Trackpoint>
            <Time>2022-07-14T18:20:28.000Z</Time>
            <Position>
              <LatitudeDegrees>43.38802834041416645050048828125</LatitudeDegrees>
              <LongitudeDegrees>-4.28307984955608844757080078125</LongitudeDegrees>
            </Position>
            <AltitudeMeters>53.200000762939453125</AltitudeMeters>
            <DistanceMeters>NAN</DistanceMeters>
          </Trackpoint>
          <Trackpoint>
            <Time>2022-07-14T18:20:30.000Z</Time>
            <Position>
              <LatitudeDegrees>43.38804678060114383697509765625</LatitudeDegrees>
              <LongitudeDegrees>-4.2831010557711124420166015625</LongitudeDegrees>
            </Position>
            <AltitudeMeters>53.200000762939453125</AltitudeMeters>
            <DistanceMeters>NAN</DistanceMeters>
          </Trackpoint>
          <Trackpoint>
            <Time>2022-07-14T18:20:31.000Z</Time>
            <Position>
              <LatitudeDegrees>43.38805868290364742279052734375</LatitudeDegrees>
              <LongitudeDegrees>-4.28309476934373378753662109375</LongitudeDegrees>
            </Position>
            <AltitudeMeters>53.200000762939453125</AltitudeMeters>
            <DistanceMeters>NAN</DistanceMeters>
          </Trackpoint>
          <Trackpoint>
            <Time>2022-07-14T18:20:34.000Z</Time>
            <Position>
              <LatitudeDegrees>43.3880622871220111846923828125</LatitudeDegrees>
              <LongitudeDegrees>-4.28309284150600433349609375</LongitudeDegrees>
            </Position>
            <AltitudeMeters>53</AltitudeMeters>
            <DistanceMeters>NAN</DistanceMeters>
          </Trackpoint>
          <Trackpoint>
            <Time>2022-07-14T18:21:06.000Z</Time>
            <Position>
              <LatitudeDegrees>43.3881092257797718048095703125</LatitudeDegrees>
              <LongitudeDegrees>-4.283205829560756683349609375</LongitudeDegrees>
            </Position>
            <AltitudeMeters>53.59999847412109375</AltitudeMeters>
            <DistanceMeters>NAN</DistanceMeters>
          </Trackpoint>
          <Trackpoint>
            <Time>2022-07-14T18:21:07.000Z</Time>
            <Position>
              <LatitudeDegrees>43.38811785914003849029541015625</LatitudeDegrees>
              <LongitudeDegrees>-4.28324438631534576416015625</LongitudeDegrees>
            </Position>
            <AltitudeMeters>53.59999847412109375</AltitudeMeters>
            <DistanceMeters>NAN</DistanceMeters>
          </Trackpoint>
          <Trackpoint>
            <Time>2022-07-14T18:21:14.000Z</Time>
            <Position>
              <LatitudeDegrees>43.38819229044020175933837890625</LatitudeDegrees>
              <LongitudeDegrees>-4.283501543104648590087890625</LongitudeDegrees>
            </Position>
            <AltitudeMeters>54</AltitudeMeters>
            <DistanceMeters>NAN</DistanceMeters>
          </Trackpoint>
          <Trackpoint>
            <Time>2022-07-14T18:21:18.000Z</Time>
            <Position>
              <LatitudeDegrees>43.38821567595005035400390625</LatitudeDegrees>
              <LongitudeDegrees>-4.28366876207292079925537109375</LongitudeDegrees>
            </Position>
            <AltitudeMeters>54.40000152587890625</AltitudeMeters>
            <DistanceMeters>NAN</DistanceMeters>
          </Trackpoint>
          <Trackpoint>
            <Time>2022-07-14T18:21:21.000Z</Time>
            <Position>
              <LatitudeDegrees>43.388232104480266571044921875</LatitudeDegrees>
              <LongitudeDegrees>-4.28378677926957607269287109375</LongitudeDegrees>
            </Position>
            <AltitudeMeters>54.59999847412109375</AltitudeMeters>
            <DistanceMeters>NAN</DistanceMeters>
          </Trackpoint>
          <Trackpoint>
            <Time>2022-07-14T18:21:22.000Z</Time>
            <Position>
              <LatitudeDegrees>43.3882351219654083251953125</LatitudeDegrees>
              <LongitudeDegrees>-4.28382013924419879913330078125</LongitudeDegrees>
            </Position>
            <AltitudeMeters>54.59999847412109375</AltitudeMeters>
            <DistanceMeters>NAN</DistanceMeters>
          </Trackpoint>
          <Trackpoint>
            <Time>2022-07-14T18:21:32.000Z</Time>
            <Position>
              <LatitudeDegrees>43.3882936276495456695556640625</LatitudeDegrees>
              <LongitudeDegrees>-4.28415826521813869476318359375</LongitudeDegrees>
            </Position>
            <AltitudeMeters>55.40000152587890625</AltitudeMeters>
            <DistanceMeters>NAN</DistanceMeters>
          </Trackpoint>
          <Trackpoint>
            <Time>2022-07-14T18:21:33.000Z</Time>
            <Position>
              <LatitudeDegrees>43.38829924352467060089111328125</LatitudeDegrees>
              <LongitudeDegrees>-4.284193553030490875244140625</LongitudeDegrees>
            </Position>
            <AltitudeMeters>55.59999847412109375</AltitudeMeters>
            <DistanceMeters>NAN</DistanceMeters>
          </Trackpoint>
          <Trackpoint>
            <Time>2022-07-14T18:21:41.000Z</Time>
            <Position>
              <LatitudeDegrees>43.38834718801081180572509765625</LatitudeDegrees>
              <LongitudeDegrees>-4.284544251859188079833984375</LongitudeDegrees>
            </Position>
            <AltitudeMeters>56</AltitudeMeters>
            <DistanceMeters>NAN</DistanceMeters>
          </Trackpoint>
          <Trackpoint>
            <Time>2022-07-14T18:21:49.000Z</Time>
            <Position>
              <LatitudeDegrees>43.3883861638605594635009765625</LatitudeDegrees>
              <LongitudeDegrees>-4.28491481579840183258056640625</LongitudeDegrees>
            </Position>
            <AltitudeMeters>56</AltitudeMeters>
            <DistanceMeters>NAN</DistanceMeters>
          </Trackpoint>
          <Trackpoint>
            <Time>2022-07-14T18:21:51.000Z</Time>
            <Position>
              <LatitudeDegrees>43.3883960545063018798828125</LatitudeDegrees>
              <LongitudeDegrees>-4.28501841612160205841064453125</LongitudeDegrees>
            </Position>
            <AltitudeMeters>55.799999237060546875</AltitudeMeters>
            <DistanceMeters>NAN</DistanceMeters>
          </Trackpoint>
          <Trackpoint>
            <Time>2022-07-14T18:22:00.000Z</Time>
            <Position>
              <LatitudeDegrees>43.3884465135633945465087890625</LatitudeDegrees>
              <LongitudeDegrees>-4.2854516766965389251708984375</LongitudeDegrees>
            </Position>
            <AltitudeMeters>55.59999847412109375</AltitudeMeters>
            <DistanceMeters>NAN</DistanceMeters>
          </Trackpoint>
          <Trackpoint>
            <Time>2022-07-14T18:22:10.000Z</Time>
            <Position>
              <LatitudeDegrees>43.3884706534445285797119140625</LatitudeDegrees>
              <LongitudeDegrees>-4.285934306681156158447265625</LongitudeDegrees>
            </Position>
            <AltitudeMeters>55.59999847412109375</AltitudeMeters>
            <DistanceMeters>NAN</DistanceMeters>
          </Trackpoint>
          <Trackpoint>
            <Time>2022-07-14T18:22:14.000Z</Time>
            <Position>
              <LatitudeDegrees>43.38847987353801727294921875</LatitudeDegrees>
              <LongitudeDegrees>-4.28605542518198490142822265625</LongitudeDegrees>
            </Position>
            <AltitudeMeters>55.200000762939453125</AltitudeMeters>
            <DistanceMeters>NAN</DistanceMeters>
          </Trackpoint>
          <Trackpoint>
            <Time>2022-07-14T18:22:15.000Z</Time>
            <Position>
              <LatitudeDegrees>43.38848783634603023529052734375</LatitudeDegrees>
              <LongitudeDegrees>-4.2860598675906658172607421875</LongitudeDegrees>
            </Position>
            <AltitudeMeters>55.200000762939453125</AltitudeMeters>
            <DistanceMeters>NAN</DistanceMeters>
          </Trackpoint>
          <Trackpoint>
            <Time>2022-07-14T18:22:23.000Z</Time>
            <Position>
              <LatitudeDegrees>43.3885128982365131378173828125</LatitudeDegrees>
              <LongitudeDegrees>-4.2860524915158748626708984375</LongitudeDegrees>
            </Position>
            <AltitudeMeters>55.200000762939453125</AltitudeMeters>
            <DistanceMeters>NAN</DistanceMeters>
          </Trackpoint>
          <Trackpoint>
            <Time>2022-07-14T18:22:43.000Z</Time>
            <Position>
              <LatitudeDegrees>43.388464115560054779052734375</LatitudeDegrees>
              <LongitudeDegrees>-4.28615651093423366546630859375</LongitudeDegrees>
            </Position>
            <AltitudeMeters>54.40000152587890625</AltitudeMeters>
            <DistanceMeters>NAN</DistanceMeters>
          </Trackpoint>
          <Trackpoint>
            <Time>2022-07-14T18:22:45.000Z</Time>
            <Position>
              <LatitudeDegrees>43.3884565718472003936767578125</LatitudeDegrees>
              <LongitudeDegrees>-4.2862214706838130950927734375</LongitudeDegrees>
            </Position>
            <AltitudeMeters>54.200000762939453125</AltitudeMeters>
            <DistanceMeters>NAN</DistanceMeters>
          </Trackpoint>
          <Trackpoint>
            <Time>2022-07-14T18:22:49.000Z</Time>
            <Position>
              <LatitudeDegrees>43.38844659738242626190185546875</LatitudeDegrees>
              <LongitudeDegrees>-4.28639036603271961212158203125</LongitudeDegrees>
            </Position>
            <AltitudeMeters>53.799999237060546875</AltitudeMeters>
            <DistanceMeters>NAN</DistanceMeters>
          </Trackpoint>
          <Trackpoint>
            <Time>2022-07-14T18:22:50.000Z</Time>
            <Position>
              <LatitudeDegrees>43.38844710029661655426025390625</LatitudeDegrees>
              <LongitudeDegrees>-4.28644015453755855560302734375</LongitudeDegrees>
            </Position>
            <AltitudeMeters>53.799999237060546875</AltitudeMeters>
            <DistanceMeters>NAN</DistanceMeters>
          </Trackpoint>
          <Trackpoint>
            <Time>2022-07-14T18:22:51.000Z</Time>
            <Position>
              <LatitudeDegrees>43.3884445019066333770751953125</LatitudeDegrees>
              <LongitudeDegrees>-4.28649832494556903839111328125</LongitudeDegrees>
            </Position>
            <AltitudeMeters>53.799999237060546875</AltitudeMeters>
            <DistanceMeters>NAN</DistanceMeters>
          </Trackpoint>
          <Trackpoint>
            <Time>2022-07-14T18:22:56.000Z</Time>
            <Position>
              <LatitudeDegrees>43.3884327672421932220458984375</LatitudeDegrees>
              <LongitudeDegrees>-4.28675472736358642578125</LongitudeDegrees>
            </Position>
            <AltitudeMeters>53.59999847412109375</AltitudeMeters>
            <DistanceMeters>NAN</DistanceMeters>
          </Trackpoint>
          <Trackpoint>
            <Time>2022-07-14T18:23:00.000Z</Time>
            <Position>
              <LatitudeDegrees>43.388431258499622344970703125</LatitudeDegrees>
              <LongitudeDegrees>-4.28699679672718048095703125</LongitudeDegrees>
            </Position>
            <AltitudeMeters>53.40000152587890625</AltitudeMeters>
            <DistanceMeters>NAN</DistanceMeters>
          </Trackpoint>
          <Trackpoint>
            <Time>2022-07-14T18:23:04.000Z</Time>
            <Position>
              <LatitudeDegrees>43.38843503035604953765869140625</LatitudeDegrees>
              <LongitudeDegrees>-4.28721346892416477203369140625</LongitudeDegrees>
            </Position>
            <AltitudeMeters>52.59999847412109375</AltitudeMeters>
            <DistanceMeters>NAN</DistanceMeters>
          </Trackpoint>
          <Trackpoint>
            <Time>2022-07-14T18:23:07.000Z</Time>
            <Position>
              <LatitudeDegrees>43.38845036923885345458984375</LatitudeDegrees>
              <LongitudeDegrees>-4.2873761616647243499755859375</LongitudeDegrees>
            </Position>
            <AltitudeMeters>52.40000152587890625</AltitudeMeters>
            <DistanceMeters>NAN</DistanceMeters>
          </Trackpoint>
          <Trackpoint>
            <Time>2022-07-14T18:23:14.000Z</Time>
            <Position>
              <LatitudeDegrees>43.3884890936315059661865234375</LatitudeDegrees>
              <LongitudeDegrees>-4.28779869340360164642333984375</LongitudeDegrees>
            </Position>
            <AltitudeMeters>52.200000762939453125</AltitudeMeters>
            <DistanceMeters>NAN</DistanceMeters>
          </Trackpoint>
          <Trackpoint>
            <Time>2022-07-14T18:23:23.000Z</Time>
            <Position>
              <LatitudeDegrees>43.38858221657574176788330078125</LatitudeDegrees>
              <LongitudeDegrees>-4.2883947305381298065185546875</LongitudeDegrees>
            </Position>
            <AltitudeMeters>52.200000762939453125</AltitudeMeters>
            <DistanceMeters>NAN</DistanceMeters>
          </Trackpoint>
          <Trackpoint>
            <Time>2022-07-14T18:23:31.000Z</Time>
            <Position>
              <LatitudeDegrees>43.38866821490228176116943359375</LatitudeDegrees>
              <LongitudeDegrees>-4.2889060266315937042236328125</LongitudeDegrees>
            </Position>
            <AltitudeMeters>52.200000762939453125</AltitudeMeters>
            <DistanceMeters>NAN</DistanceMeters>
          </Trackpoint>
          <Trackpoint>
            <Time>2022-07-14T18:23:33.000Z</Time>
            <Position>
              <LatitudeDegrees>43.3886902593076229095458984375</LatitudeDegrees>
              <LongitudeDegrees>-4.2890434898436069488525390625</LongitudeDegrees>
            </Position>
            <AltitudeMeters>52.200000762939453125</AltitudeMeters>
            <DistanceMeters>NAN</DistanceMeters>
          </Trackpoint>
          <Trackpoint>
            <Time>2022-07-14T18:23:35.000Z</Time>
            <Position>
              <LatitudeDegrees>43.3887133933603763580322265625</LatitudeDegrees>
              <LongitudeDegrees>-4.289181791245937347412109375</LongitudeDegrees>
            </Position>
            <AltitudeMeters>52.200000762939453125</AltitudeMeters>
            <DistanceMeters>NAN</DistanceMeters>
          </Trackpoint>
          <Trackpoint>
            <Time>2022-07-14T18:23:40.000Z</Time>
            <Position>
              <LatitudeDegrees>43.3887838013470172882080078125</LatitudeDegrees>
              <LongitudeDegrees>-4.2894770018756389617919921875</LongitudeDegrees>
            </Position>
            <AltitudeMeters>52.200000762939453125</AltitudeMeters>
            <DistanceMeters>NAN</DistanceMeters>
          </Trackpoint>
          <Trackpoint>
            <Time>2022-07-14T18:23:41.000Z</Time>
            <Position>
              <LatitudeDegrees>43.38880182243883609771728515625</LatitudeDegrees>
              <LongitudeDegrees>-4.28953173570334911346435546875</LongitudeDegrees>
            </Position>
            <AltitudeMeters>52.200000762939453125</AltitudeMeters>
            <DistanceMeters>NAN</DistanceMeters>
          </Trackpoint>
          <Trackpoint>
            <Time>2022-07-14T18:23:48.000Z</Time>
            <Position>
              <LatitudeDegrees>43.3889888226985931396484375</LatitudeDegrees>
              <LongitudeDegrees>-4.2898709513247013092041015625</LongitudeDegrees>
            </Position>
            <AltitudeMeters>52.40000152587890625</AltitudeMeters>
            <DistanceMeters>NAN</DistanceMeters>
          </Trackpoint>
          <Trackpoint>
            <Time>2022-07-14T18:23:56.000Z</Time>
            <Position>
              <LatitudeDegrees>43.38922418653964996337890625</LatitudeDegrees>
              <LongitudeDegrees>-4.29017244838178157806396484375</LongitudeDegrees>
            </Position>
            <AltitudeMeters>52.59999847412109375</AltitudeMeters>
            <DistanceMeters>NAN</DistanceMeters>
          </Trackpoint>
          <Trackpoint>
            <Time>2022-07-14T18:24:01.000Z</Time>
            <Position>
              <LatitudeDegrees>43.38933910243213176727294921875</LatitudeDegrees>
              <LongitudeDegrees>-4.29030722938477993011474609375</LongitudeDegrees>
            </Position>
            <AltitudeMeters>53.200000762939453125</AltitudeMeters>
            <DistanceMeters>NAN</DistanceMeters>
          </Trackpoint>
          <Trackpoint>
            <Time>2022-07-14T18:24:02.000Z</Time>
            <Position>
              <LatitudeDegrees>43.389363996684551239013671875</LatitudeDegrees>
              <LongitudeDegrees>-4.29033480584621429443359375</LongitudeDegrees>
            </Position>
            <AltitudeMeters>53.40000152587890625</AltitudeMeters>
            <DistanceMeters>NAN</DistanceMeters>
          </Trackpoint>
          <Trackpoint>
            <Time>2022-07-14T18:24:04.000Z</Time>
            <Position>
              <LatitudeDegrees>43.38941319845616817474365234375</LatitudeDegrees>
              <LongitudeDegrees>-4.29039775393903255462646484375</LongitudeDegrees>
            </Position>
            <AltitudeMeters>53.59999847412109375</AltitudeMeters>
            <DistanceMeters>NAN</DistanceMeters>
          </Trackpoint>
          <Trackpoint>
            <Time>2022-07-14T18:24:12.000Z</Time>
            <Position>
              <LatitudeDegrees>43.38961780071258544921875</LatitudeDegrees>
              <LongitudeDegrees>-4.29063789546489715576171875</LongitudeDegrees>
            </Position>
            <AltitudeMeters>53</AltitudeMeters>
            <DistanceMeters>NAN</DistanceMeters>
          </Trackpoint>
          <Trackpoint>
            <Time>2022-07-14T18:24:14.000Z</Time>
            <Position>
              <LatitudeDegrees>43.38967169634997844696044921875</LatitudeDegrees>
              <LongitudeDegrees>-4.29070050828158855438232421875</LongitudeDegrees>
            </Position>
            <AltitudeMeters>53</AltitudeMeters>
            <DistanceMeters>NAN</DistanceMeters>
          </Trackpoint>
          <Trackpoint>
            <Time>2022-07-14T18:24:20.000Z</Time>
            <Position>
              <LatitudeDegrees>43.38981938548386096954345703125</LatitudeDegrees>
              <LongitudeDegrees>-4.29088608361780643463134765625</LongitudeDegrees>
            </Position>
            <AltitudeMeters>53.40000152587890625</AltitudeMeters>
            <DistanceMeters>NAN</DistanceMeters>
          </Trackpoint>
          <Trackpoint>
            <Time>2022-07-14T18:24:29.000Z</Time>
            <Position>
              <LatitudeDegrees>43.3900092355906963348388671875</LatitudeDegrees>
              <LongitudeDegrees>-4.29116838611662387847900390625</LongitudeDegrees>
            </Position>
            <AltitudeMeters>54</AltitudeMeters>
            <DistanceMeters>NAN</DistanceMeters>
          </Trackpoint>
          <Trackpoint>
            <Time>2022-07-14T18:24:34.000Z</Time>
            <Position>
              <LatitudeDegrees>43.39011467993259429931640625</LatitudeDegrees>
              <LongitudeDegrees>-4.29134088568389415740966796875</LongitudeDegrees>
            </Position>
            <AltitudeMeters>54.200000762939453125</AltitudeMeters>
            <DistanceMeters>NAN</DistanceMeters>
          </Trackpoint>
          <Trackpoint>
            <Time>2022-07-14T18:24:37.000Z</Time>
            <Position>
              <LatitudeDegrees>43.39017276652157306671142578125</LatitudeDegrees>
              <LongitudeDegrees>-4.2914378643035888671875</LongitudeDegrees>
            </Position>
            <AltitudeMeters>54.40000152587890625</AltitudeMeters>
            <DistanceMeters>NAN</DistanceMeters>
          </Trackpoint>
          <Trackpoint>
            <Time>2022-07-14T18:24:38.000Z</Time>
            <Position>
              <LatitudeDegrees>43.39019020088016986846923828125</LatitudeDegrees>
              <LongitudeDegrees>-4.29147030226886272430419921875</LongitudeDegrees>
            </Position>
            <AltitudeMeters>54.40000152587890625</AltitudeMeters>
            <DistanceMeters>NAN</DistanceMeters>
          </Trackpoint>
          <Trackpoint>
            <Time>2022-07-14T18:24:40.000Z</Time>
            <Position>
              <LatitudeDegrees>43.3902298472821712493896484375</LatitudeDegrees>
              <LongitudeDegrees>-4.29154238663613796234130859375</LongitudeDegrees>
            </Position>
            <AltitudeMeters>54.59999847412109375</AltitudeMeters>
            <DistanceMeters>NAN</DistanceMeters>
          </Trackpoint>
          <Trackpoint>
            <Time>2022-07-14T18:24:42.000Z</Time>
            <Position>
              <LatitudeDegrees>43.39026630856096744537353515625</LatitudeDegrees>
              <LongitudeDegrees>-4.2916167341172695159912109375</LongitudeDegrees>
            </Position>
            <AltitudeMeters>54.59999847412109375</AltitudeMeters>
            <DistanceMeters>NAN</DistanceMeters>
          </Trackpoint>
          <Trackpoint>
            <Time>2022-07-14T18:24:45.000Z</Time>
            <Position>
              <LatitudeDegrees>43.39032917283475399017333984375</LatitudeDegrees>
              <LongitudeDegrees>-4.29171438328921794891357421875</LongitudeDegrees>
            </Position>
            <AltitudeMeters>54.799999237060546875</AltitudeMeters>
            <DistanceMeters>NAN</DistanceMeters>
          </Trackpoint>
          <Trackpoint>
            <Time>2022-07-14T18:24:50.000Z</Time>
            <Position>
              <LatitudeDegrees>43.3904236368834972381591796875</LatitudeDegrees>
              <LongitudeDegrees>-4.2918715439736843109130859375</LongitudeDegrees>
            </Position>
            <AltitudeMeters>54.799999237060546875</AltitudeMeters>
            <DistanceMeters>NAN</DistanceMeters>
          </Trackpoint>
          <Trackpoint>
            <Time>2022-07-14T18:24:57.000Z</Time>
            <Position>
              <LatitudeDegrees>43.39053637348115444183349609375</LatitudeDegrees>
              <LongitudeDegrees>-4.29207463748753070831298828125</LongitudeDegrees>
            </Position>
            <AltitudeMeters>55.40000152587890625</AltitudeMeters>
            <DistanceMeters>NAN</DistanceMeters>
          </Trackpoint>
          <Trackpoint>
            <Time>2022-07-14T18:25:00.000Z</Time>
            <Position>
              <LatitudeDegrees>43.39058347977697849273681640625</LatitudeDegrees>
              <LongitudeDegrees>-4.292156361043453216552734375</LongitudeDegrees>
            </Position>
            <AltitudeMeters>55.799999237060546875</AltitudeMeters>
            <DistanceMeters>NAN</DistanceMeters>
          </Trackpoint>
          <Trackpoint>
            <Time>2022-07-14T18:25:07.000Z</Time>
            <Position>
              <LatitudeDegrees>43.3906720764935016632080078125</LatitudeDegrees>
              <LongitudeDegrees>-4.29233665578067302703857421875</LongitudeDegrees>
            </Position>
            <AltitudeMeters>56.200000762939453125</AltitudeMeters>
            <DistanceMeters>NAN</DistanceMeters>
          </Trackpoint>
          <Trackpoint>
            <Time>2022-07-14T18:25:09.000Z</Time>
            <Position>
              <LatitudeDegrees>43.39069378562271595001220703125</LatitudeDegrees>
              <LongitudeDegrees>-4.29238736629486083984375</LongitudeDegrees>
            </Position>
            <AltitudeMeters>56.40000152587890625</AltitudeMeters>
            <DistanceMeters>NAN</DistanceMeters>
          </Trackpoint>
          <Trackpoint>
            <Time>2022-07-14T18:25:18.000Z</Time>
            <Position>
              <LatitudeDegrees>43.390759415924549102783203125</LatitudeDegrees>
              <LongitudeDegrees>-4.29262046702206134796142578125</LongitudeDegrees>
            </Position>
            <AltitudeMeters>57.40000152587890625</AltitudeMeters>
            <DistanceMeters>NAN</DistanceMeters>
          </Trackpoint>
          <Trackpoint>
            <Time>2022-07-14T18:25:19.000Z</Time>
            <Position>
              <LatitudeDegrees>43.39076503179967403411865234375</LatitudeDegrees>
              <LongitudeDegrees>-4.2926446907222270965576171875</LongitudeDegrees>
            </Position>
            <AltitudeMeters>57.40000152587890625</AltitudeMeters>
            <DistanceMeters>NAN</DistanceMeters>
          </Trackpoint>
          <Trackpoint>
            <Time>2022-07-14T18:25:23.000Z</Time>
            <Position>
              <LatitudeDegrees>43.39079772122204303741455078125</LatitudeDegrees>
              <LongitudeDegrees>-4.29273664020001888275146484375</LongitudeDegrees>
            </Position>
            <AltitudeMeters>57.799999237060546875</AltitudeMeters>
            <DistanceMeters>NAN</DistanceMeters>
          </Trackpoint>
          <Trackpoint>
            <Time>2022-07-14T18:25:26.000Z</Time>
            <Position>
              <LatitudeDegrees>43.39083057828247547149658203125</LatitudeDegrees>
              <LongitudeDegrees>-4.29278089664876461029052734375</LongitudeDegrees>
            </Position>
            <AltitudeMeters>58</AltitudeMeters>
            <DistanceMeters>NAN</DistanceMeters>
          </Trackpoint>
          <Trackpoint>
            <Time>2022-07-14T18:25:32.000Z</Time>
            <Position>
              <LatitudeDegrees>43.390926383435726165771484375</LatitudeDegrees>
              <LongitudeDegrees>-4.29286488331854343414306640625</LongitudeDegrees>
            </Position>
            <AltitudeMeters>58.40000152587890625</AltitudeMeters>
            <DistanceMeters>NAN</DistanceMeters>
          </Trackpoint>
          <Trackpoint>
            <Time>2022-07-14T18:25:38.000Z</Time>
            <Position>
              <LatitudeDegrees>43.39100140146911144256591796875</LatitudeDegrees>
              <LongitudeDegrees>-4.29298776201903820037841796875</LongitudeDegrees>
            </Position>
            <AltitudeMeters>59</AltitudeMeters>
            <DistanceMeters>NAN</DistanceMeters>
          </Trackpoint>
          <Trackpoint>
            <Time>2022-07-14T18:25:44.000Z</Time>
            <Position>
              <LatitudeDegrees>43.39104213751852512359619140625</LatitudeDegrees>
              <LongitudeDegrees>-4.29315456189215183258056640625</LongitudeDegrees>
            </Position>
            <AltitudeMeters>59.59999847412109375</AltitudeMeters>
            <DistanceMeters>NAN</DistanceMeters>
          </Trackpoint>
          <Trackpoint>
            <Time>2022-07-14T18:25:46.000Z</Time>
            <Position>
              <LatitudeDegrees>43.39104004204273223876953125</LatitudeDegrees>
              <LongitudeDegrees>-4.2932067811489105224609375</LongitudeDegrees>
            </Position>
            <AltitudeMeters>59.59999847412109375</AltitudeMeters>
            <DistanceMeters>NAN</DistanceMeters>
          </Trackpoint>
          <Trackpoint>
            <Time>2022-07-14T18:25:47.000Z</Time>
            <Position>
              <LatitudeDegrees>43.39103492908179759979248046875</LatitudeDegrees>
              <LongitudeDegrees>-4.293228574097156524658203125</LongitudeDegrees>
            </Position>
            <AltitudeMeters>59.799999237060546875</AltitudeMeters>
            <DistanceMeters>NAN</DistanceMeters>
          </Trackpoint>
          <Trackpoint>
            <Time>2022-07-14T18:25:55.000Z</Time>
            <Position>
              <LatitudeDegrees>43.3909379504621028900146484375</LatitudeDegrees>
              <LongitudeDegrees>-4.29340048693120479583740234375</LongitudeDegrees>
            </Position>
            <AltitudeMeters>60.59999847412109375</AltitudeMeters>
            <DistanceMeters>NAN</DistanceMeters>
          </Trackpoint>
          <Trackpoint>
            <Time>2022-07-14T18:25:59.000Z</Time>
            <Position>
              <LatitudeDegrees>43.39086997322738170623779296875</LatitudeDegrees>
              <LongitudeDegrees>-4.2934615910053253173828125</LongitudeDegrees>
            </Position>
            <AltitudeMeters>61</AltitudeMeters>
            <DistanceMeters>NAN</DistanceMeters>
          </Trackpoint>
          <Trackpoint>
            <Time>2022-07-14T18:26:06.000Z</Time>
            <Position>
              <LatitudeDegrees>43.39077089913189411163330078125</LatitudeDegrees>
              <LongitudeDegrees>-4.293595366179943084716796875</LongitudeDegrees>
            </Position>
            <AltitudeMeters>61.799999237060546875</AltitudeMeters>
            <DistanceMeters>NAN</DistanceMeters>
          </Trackpoint>
          <Trackpoint>
            <Time>2022-07-14T18:26:13.000Z</Time>
            <Position>
              <LatitudeDegrees>43.39070317335426807403564453125</LatitudeDegrees>
              <LongitudeDegrees>-4.2937568016350269317626953125</LongitudeDegrees>
            </Position>
            <AltitudeMeters>62.59999847412109375</AltitudeMeters>
            <DistanceMeters>NAN</DistanceMeters>
          </Trackpoint>
          <Trackpoint>
            <Time>2022-07-14T18:26:16.000Z</Time>
            <Position>
              <LatitudeDegrees>43.3906804583966732025146484375</LatitudeDegrees>
              <LongitudeDegrees>-4.293816648423671722412109375</LongitudeDegrees>
            </Position>
            <AltitudeMeters>62.799999237060546875</AltitudeMeters>
            <DistanceMeters>NAN</DistanceMeters>
          </Trackpoint>
          <Trackpoint>
            <Time>2022-07-14T18:26:21.000Z</Time>
            <Position>
              <LatitudeDegrees>43.39062388055026531219482421875</LatitudeDegrees>
              <LongitudeDegrees>-4.2939210869371891021728515625</LongitudeDegrees>
            </Position>
            <AltitudeMeters>63.200000762939453125</AltitudeMeters>
            <DistanceMeters>NAN</DistanceMeters>
          </Trackpoint>
          <Trackpoint>
            <Time>2022-07-14T18:26:25.000Z</Time>
            <Position>
              <LatitudeDegrees>43.3905805461108684539794921875</LatitudeDegrees>
              <LongitudeDegrees>-4.29400943219661712646484375</LongitudeDegrees>
            </Position>
            <AltitudeMeters>63.799999237060546875</AltitudeMeters>
            <DistanceMeters>NAN</DistanceMeters>
          </Trackpoint>
          <Trackpoint>
            <Time>2022-07-14T18:26:29.000Z</Time>
            <Position>
              <LatitudeDegrees>43.3905332721769809722900390625</LatitudeDegrees>
              <LongitudeDegrees>-4.294086880981922149658203125</LongitudeDegrees>
            </Position>
            <AltitudeMeters>64.1999969482421875</AltitudeMeters>
            <DistanceMeters>NAN</DistanceMeters>
          </Trackpoint>
          <Trackpoint>
            <Time>2022-07-14T18:26:32.000Z</Time>
            <Position>
              <LatitudeDegrees>43.39050619862973690032958984375</LatitudeDegrees>
              <LongitudeDegrees>-4.29414932616055011749267578125</LongitudeDegrees>
            </Position>
            <AltitudeMeters>64.40000152587890625</AltitudeMeters>
            <DistanceMeters>NAN</DistanceMeters>
          </Trackpoint>
          <Trackpoint>
            <Time>2022-07-14T18:26:34.000Z</Time>
            <Position>
              <LatitudeDegrees>43.39048792608082294464111328125</LatitudeDegrees>
              <LongitudeDegrees>-4.29418738000094890594482421875</LongitudeDegrees>
            </Position>
            <AltitudeMeters>64.8000030517578125</AltitudeMeters>
            <DistanceMeters>NAN</DistanceMeters>
          </Trackpoint>
          <Trackpoint>
            <Time>2022-07-14T18:26:36.000Z</Time>
            <Position>
              <LatitudeDegrees>43.39047853834927082061767578125</LatitudeDegrees>
              <LongitudeDegrees>-4.2942251823842525482177734375</LongitudeDegrees>
            </Position>
            <AltitudeMeters>64.8000030517578125</AltitudeMeters>
            <DistanceMeters>NAN</DistanceMeters>
          </Trackpoint>
          <Trackpoint>
            <Time>2022-07-14T18:26:37.000Z</Time>
            <Position>
              <LatitudeDegrees>43.3904695697128772735595703125</LatitudeDegrees>
              <LongitudeDegrees>-4.29423700086772441864013671875</LongitudeDegrees>
            </Position>
            <AltitudeMeters>65</AltitudeMeters>
            <DistanceMeters>NAN</DistanceMeters>
          </Trackpoint>
          <Trackpoint>
            <Time>2022-07-14T18:26:39.000Z</Time>
            <Position>
              <LatitudeDegrees>43.3904477767646312713623046875</LatitudeDegrees>
              <LongitudeDegrees>-4.29426348768174648284912109375</LongitudeDegrees>
            </Position>
            <AltitudeMeters>65</AltitudeMeters>
            <DistanceMeters>NAN</DistanceMeters>
          </Trackpoint>
          <Trackpoint>
            <Time>2022-07-14T18:26:40.000Z</Time>
            <Position>
              <LatitudeDegrees>43.39043478481471538543701171875</LatitudeDegrees>
              <LongitudeDegrees>-4.29428108967840671539306640625</LongitudeDegrees>
            </Position>
            <AltitudeMeters>65.1999969482421875</AltitudeMeters>
            <DistanceMeters>NAN</DistanceMeters>
          </Trackpoint>
          <Trackpoint>
            <Time>2022-07-14T18:26:42.000Z</Time>
            <Position>
              <LatitudeDegrees>43.39042908512055873870849609375</LatitudeDegrees>
              <LongitudeDegrees>-4.29430036805570125579833984375</LongitudeDegrees>
            </Position>
            <AltitudeMeters>65.1999969482421875</AltitudeMeters>
            <DistanceMeters>NAN</DistanceMeters>
          </Trackpoint>
          <Trackpoint>
            <Time>2022-07-14T18:26:44.000Z</Time>
            <Position>
              <LatitudeDegrees>43.39042908512055873870849609375</LatitudeDegrees>
              <LongitudeDegrees>-4.29430036805570125579833984375</LongitudeDegrees>
            </Position>
            <AltitudeMeters>65.40000152587890625</AltitudeMeters>
            <DistanceMeters>NAN</DistanceMeters>
          </Trackpoint>
          <Trackpoint>
            <Time>2022-07-14T18:27:32.000Z</Time>
            <Position>
              <LatitudeDegrees>43.39040930382907390594482421875</LatitudeDegrees>
              <LongitudeDegrees>-4.29431662894785404205322265625</LongitudeDegrees>
            </Position>
            <AltitudeMeters>65.40000152587890625</AltitudeMeters>
            <DistanceMeters>NAN</DistanceMeters>
          </Trackpoint>
          <Trackpoint>
            <Time>2022-07-14T18:27:33.000Z</Time>
            <Position>
              <LatitudeDegrees>43.39039321057498455047607421875</LatitudeDegrees>
              <LongitudeDegrees>-4.29433708079159259796142578125</LongitudeDegrees>
            </Position>
            <AltitudeMeters>65.40000152587890625</AltitudeMeters>
            <DistanceMeters>NAN</DistanceMeters>
          </Trackpoint>
          <Trackpoint>
            <Time>2022-07-14T18:27:37.000Z</Time>
            <Position>
              <LatitudeDegrees>43.390320204198360443115234375</LatitudeDegrees>
              <LongitudeDegrees>-4.2944062314927577972412109375</LongitudeDegrees>
            </Position>
            <AltitudeMeters>65.59999847412109375</AltitudeMeters>
            <DistanceMeters>NAN</DistanceMeters>
          </Trackpoint>
          <Trackpoint>
            <Time>2022-07-14T18:27:38.000Z</Time>
            <Position>
              <LatitudeDegrees>43.3903019316494464874267578125</LatitudeDegrees>
              <LongitudeDegrees>-4.29442442022264003753662109375</LongitudeDegrees>
            </Position>
            <AltitudeMeters>65.59999847412109375</AltitudeMeters>
            <DistanceMeters>NAN</DistanceMeters>
          </Trackpoint>
          <Trackpoint>
            <Time>2022-07-14T18:27:43.000Z</Time>
            <Position>
              <LatitudeDegrees>43.39020377956330776214599609375</LatitudeDegrees>
              <LongitudeDegrees>-4.29450036026537418365478515625</LongitudeDegrees>
            </Position>
            <AltitudeMeters>66</AltitudeMeters>
            <DistanceMeters>NAN</DistanceMeters>
          </Trackpoint>
          <Trackpoint>
            <Time>2022-07-14T18:27:47.000Z</Time>
            <Position>
              <LatitudeDegrees>43.39012364856898784637451171875</LatitudeDegrees>
              <LongitudeDegrees>-4.2945490591228008270263671875</LongitudeDegrees>
            </Position>
            <AltitudeMeters>66.40000152587890625</AltitudeMeters>
            <DistanceMeters>NAN</DistanceMeters>
          </Trackpoint>
          <Trackpoint>
            <Time>2022-07-14T18:27:50.000Z</Time>
            <Position>
              <LatitudeDegrees>43.39005089364945888519287109375</LatitudeDegrees>
              <LongitudeDegrees>-4.29459138773381710052490234375</LongitudeDegrees>
            </Position>
            <AltitudeMeters>66.59999847412109375</AltitudeMeters>
            <DistanceMeters>NAN</DistanceMeters>
          </Trackpoint>
          <Trackpoint>
            <Time>2022-07-14T18:27:53.000Z</Time>
            <Position>
              <LatitudeDegrees>43.38999507017433643341064453125</LatitudeDegrees>
              <LongitudeDegrees>-4.29464385844767093658447265625</LongitudeDegrees>
            </Position>
            <AltitudeMeters>66.8000030517578125</AltitudeMeters>
            <DistanceMeters>NAN</DistanceMeters>
          </Trackpoint>
          <Trackpoint>
            <Time>2022-07-14T18:27:55.000Z</Time>
            <Position>
              <LatitudeDegrees>43.38996774516999721527099609375</LatitudeDegrees>
              <LongitudeDegrees>-4.29469079710543155670166015625</LongitudeDegrees>
            </Position>
            <AltitudeMeters>67</AltitudeMeters>
            <DistanceMeters>NAN</DistanceMeters>
          </Trackpoint>
          <Trackpoint>
            <Time>2022-07-14T18:28:00.000Z</Time>
            <Position>
              <LatitudeDegrees>43.38991896249353885650634765625</LatitudeDegrees>
              <LongitudeDegrees>-4.2947981692850589752197265625</LongitudeDegrees>
            </Position>
            <AltitudeMeters>68.1999969482421875</AltitudeMeters>
            <DistanceMeters>NAN</DistanceMeters>
          </Trackpoint>
          <Trackpoint>
            <Time>2022-07-14T18:28:06.000Z</Time>
            <Position>
              <LatitudeDegrees>43.389872275292873382568359375</LatitudeDegrees>
              <LongitudeDegrees>-4.294917024672031402587890625</LongitudeDegrees>
            </Position>
            <AltitudeMeters>69.1999969482421875</AltitudeMeters>
            <DistanceMeters>NAN</DistanceMeters>
          </Trackpoint>
          <Trackpoint>
            <Time>2022-07-14T18:28:07.000Z</Time>
            <Position>
              <LatitudeDegrees>43.38986347429454326629638671875</LatitudeDegrees>
              <LongitudeDegrees>-4.29493613541126251220703125</LongitudeDegrees>
            </Position>
            <AltitudeMeters>69.40000152587890625</AltitudeMeters>
            <DistanceMeters>NAN</DistanceMeters>
          </Trackpoint>
          <Trackpoint>
            <Time>2022-07-14T18:28:16.000Z</Time>
            <Position>
              <LatitudeDegrees>43.3898033760488033294677734375</LatitudeDegrees>
              <LongitudeDegrees>-4.29508491419255733489990234375</LongitudeDegrees>
            </Position>
            <AltitudeMeters>70.40000152587890625</AltitudeMeters>
            <DistanceMeters>NAN</DistanceMeters>
          </Trackpoint>
          <Trackpoint>
            <Time>2022-07-14T18:28:17.000Z</Time>
            <Position>
              <LatitudeDegrees>43.3897990174591541290283203125</LatitudeDegrees>
              <LongitudeDegrees>-4.29510033689439296722412109375</LongitudeDegrees>
            </Position>
            <AltitudeMeters>70.59999847412109375</AltitudeMeters>
            <DistanceMeters>NAN</DistanceMeters>
          </Trackpoint>
          <Trackpoint>
            <Time>2022-07-14T18:28:23.000Z</Time>
            <Position>
              <LatitudeDegrees>43.38975585065782070159912109375</LatitudeDegrees>
              <LongitudeDegrees>-4.2951948009431362152099609375</LongitudeDegrees>
            </Position>
            <AltitudeMeters>71.59999847412109375</AltitudeMeters>
            <DistanceMeters>NAN</DistanceMeters>
          </Trackpoint>
          <Trackpoint>
            <Time>2022-07-14T18:28:24.000Z</Time>
            <Position>
              <LatitudeDegrees>43.38974989950656890869140625</LatitudeDegrees>
              <LongitudeDegrees>-4.2952085472643375396728515625</LongitudeDegrees>
            </Position>
            <AltitudeMeters>71.59999847412109375</AltitudeMeters>
            <DistanceMeters>NAN</DistanceMeters>
          </Trackpoint>
          <Trackpoint>
            <Time>2022-07-14T18:28:30.000Z</Time>
            <Position>
              <LatitudeDegrees>43.38970555923879146575927734375</LatitudeDegrees>
              <LongitudeDegrees>-4.29531097412109375</LongitudeDegrees>
            </Position>
            <AltitudeMeters>72.59999847412109375</AltitudeMeters>
            <DistanceMeters>NAN</DistanceMeters>
          </Trackpoint>
          <Trackpoint>
            <Time>2022-07-14T18:28:34.000Z</Time>
            <Position>
              <LatitudeDegrees>43.3896773122251033782958984375</LatitudeDegrees>
              <LongitudeDegrees>-4.2953651212155818939208984375</LongitudeDegrees>
            </Position>
            <AltitudeMeters>73.40000152587890625</AltitudeMeters>
            <DistanceMeters>NAN</DistanceMeters>
          </Trackpoint>
          <Trackpoint>
            <Time>2022-07-14T18:28:37.000Z</Time>
            <Position>
              <LatitudeDegrees>43.3896464668214321136474609375</LatitudeDegrees>
              <LongitudeDegrees>-4.2954170890152454376220703125</LongitudeDegrees>
            </Position>
            <AltitudeMeters>73.8000030517578125</AltitudeMeters>
            <DistanceMeters>NAN</DistanceMeters>
          </Trackpoint>
          <Trackpoint>
            <Time>2022-07-14T18:28:43.000Z</Time>
            <Position>
              <LatitudeDegrees>43.389602042734622955322265625</LatitudeDegrees>
              <LongitudeDegrees>-4.29550266824662685394287109375</LongitudeDegrees>
            </Position>
            <AltitudeMeters>74.8000030517578125</AltitudeMeters>
            <DistanceMeters>NAN</DistanceMeters>
          </Trackpoint>
          <Trackpoint>
            <Time>2022-07-14T18:28:46.000Z</Time>
            <Position>
              <LatitudeDegrees>43.38957362808287143707275390625</LatitudeDegrees>
              <LongitudeDegrees>-4.29554994218051433563232421875</LongitudeDegrees>
            </Position>
            <AltitudeMeters>75.59999847412109375</AltitudeMeters>
            <DistanceMeters>NAN</DistanceMeters>
          </Trackpoint>
          <Trackpoint>
            <Time>2022-07-14T18:28:49.000Z</Time>
            <Position>
              <LatitudeDegrees>43.3895391784608364105224609375</LatitudeDegrees>
              <LongitudeDegrees>-4.2955931089818477630615234375</LongitudeDegrees>
            </Position>
            <AltitudeMeters>76</AltitudeMeters>
            <DistanceMeters>NAN</DistanceMeters>
          </Trackpoint>
          <Trackpoint>
            <Time>2022-07-14T18:28:50.000Z</Time>
            <Position>
              <LatitudeDegrees>43.38953155092895030975341796875</LatitudeDegrees>
              <LongitudeDegrees>-4.2956085316836833953857421875</LongitudeDegrees>
            </Position>
            <AltitudeMeters>76</AltitudeMeters>
            <DistanceMeters>NAN</DistanceMeters>
          </Trackpoint>
          <Trackpoint>
            <Time>2022-07-14T18:28:54.000Z</Time>
            <Position>
              <LatitudeDegrees>43.38950355537235736846923828125</LatitudeDegrees>
              <LongitudeDegrees>-4.2956675402820110321044921875</LongitudeDegrees>
            </Position>
            <AltitudeMeters>76.8000030517578125</AltitudeMeters>
            <DistanceMeters>NAN</DistanceMeters>
          </Trackpoint>
          <Trackpoint>
            <Time>2022-07-14T18:28:55.000Z</Time>
            <Position>
              <LatitudeDegrees>43.3894959278404712677001953125</LatitudeDegrees>
              <LongitudeDegrees>-4.29568304680287837982177734375</LongitudeDegrees>
            </Position>
            <AltitudeMeters>77</AltitudeMeters>
            <DistanceMeters>NAN</DistanceMeters>
          </Trackpoint>
          <Trackpoint>
            <Time>2022-07-14T18:29:02.000Z</Time>
            <Position>
              <LatitudeDegrees>43.38945426978170871734619140625</LatitudeDegrees>
              <LongitudeDegrees>-4.2958033271133899688720703125</LongitudeDegrees>
            </Position>
            <AltitudeMeters>78.1999969482421875</AltitudeMeters>
            <DistanceMeters>NAN</DistanceMeters>
          </Trackpoint>
          <Trackpoint>
            <Time>2022-07-14T18:29:06.000Z</Time>
            <Position>
              <LatitudeDegrees>43.38943666778504848480224609375</LatitudeDegrees>
              <LongitudeDegrees>-4.29587666876614093780517578125</LongitudeDegrees>
            </Position>
            <AltitudeMeters>78.59999847412109375</AltitudeMeters>
            <DistanceMeters>NAN</DistanceMeters>
          </Trackpoint>
          <Trackpoint>
            <Time>2022-07-14T18:29:08.000Z</Time>
            <Position>
              <LatitudeDegrees>43.389419652521610260009765625</LatitudeDegrees>
              <LongitudeDegrees>-4.295918159186840057373046875</LongitudeDegrees>
            </Position>
            <AltitudeMeters>78.8000030517578125</AltitudeMeters>
            <DistanceMeters>NAN</DistanceMeters>
          </Trackpoint>
          <Trackpoint>
            <Time>2022-07-14T18:29:10.000Z</Time>
            <Position>
              <LatitudeDegrees>43.3894104324281215667724609375</LatitudeDegrees>
              <LongitudeDegrees>-4.29594892077147960662841796875</LongitudeDegrees>
            </Position>
            <AltitudeMeters>79</AltitudeMeters>
            <DistanceMeters>NAN</DistanceMeters>
          </Trackpoint>
          <Trackpoint>
            <Time>2022-07-14T18:29:12.000Z</Time>
            <Position>
              <LatitudeDegrees>43.3893965184688568115234375</LatitudeDegrees>
              <LongitudeDegrees>-4.2959857173264026641845703125</LongitudeDegrees>
            </Position>
            <AltitudeMeters>79.40000152587890625</AltitudeMeters>
            <DistanceMeters>NAN</DistanceMeters>
          </Trackpoint>
          <Trackpoint>
            <Time>2022-07-14T18:29:13.000Z</Time>
            <Position>
              <LatitudeDegrees>43.38939006440341472625732421875</LatitudeDegrees>
              <LongitudeDegrees>-4.2960105277597904205322265625</LongitudeDegrees>
            </Position>
            <AltitudeMeters>79.40000152587890625</AltitudeMeters>
            <DistanceMeters>NAN</DistanceMeters>
          </Trackpoint>
          <Trackpoint>
            <Time>2022-07-14T18:29:16.000Z</Time>
            <Position>
              <LatitudeDegrees>43.3893809281289577484130859375</LatitudeDegrees>
              <LongitudeDegrees>-4.29606257937848567962646484375</LongitudeDegrees>
            </Position>
            <AltitudeMeters>79.8000030517578125</AltitudeMeters>
            <DistanceMeters>NAN</DistanceMeters>
          </Trackpoint>
          <Trackpoint>
            <Time>2022-07-14T18:29:20.000Z</Time>
            <Position>
              <LatitudeDegrees>43.38935603387653827667236328125</LatitudeDegrees>
              <LongitudeDegrees>-4.2961355857551097869873046875</LongitudeDegrees>
            </Position>
            <AltitudeMeters>80</AltitudeMeters>
            <DistanceMeters>NAN</DistanceMeters>
          </Trackpoint>
          <Trackpoint>
            <Time>2022-07-14T18:29:22.000Z</Time>
            <Position>
              <LatitudeDegrees>43.38934211991727352142333984375</LatitudeDegrees>
              <LongitudeDegrees>-4.2961751483380794525146484375</LongitudeDegrees>
            </Position>
            <AltitudeMeters>80.40000152587890625</AltitudeMeters>
            <DistanceMeters>NAN</DistanceMeters>
          </Trackpoint>
          <Trackpoint>
            <Time>2022-07-14T18:29:23.000Z</Time>
            <Position>
              <LatitudeDegrees>43.38933591730892658233642578125</LatitudeDegrees>
              <LongitudeDegrees>-4.29619451053440570831298828125</LongitudeDegrees>
            </Position>
            <AltitudeMeters>80.40000152587890625</AltitudeMeters>
            <DistanceMeters>NAN</DistanceMeters>
          </Trackpoint>
          <Trackpoint>
            <Time>2022-07-14T18:29:26.000Z</Time>
            <Position>
              <LatitudeDegrees>43.38931010104715824127197265625</LatitudeDegrees>
              <LongitudeDegrees>-4.29624832235276699066162109375</LongitudeDegrees>
            </Position>
            <AltitudeMeters>80.59999847412109375</AltitudeMeters>
            <DistanceMeters>NAN</DistanceMeters>
          </Trackpoint>
          <Trackpoint>
            <Time>2022-07-14T18:29:28.000Z</Time>
            <Position>
              <LatitudeDegrees>43.38929518125951290130615234375</LatitudeDegrees>
              <LongitudeDegrees>-4.29628738202154636383056640625</LongitudeDegrees>
            </Position>
            <AltitudeMeters>81</AltitudeMeters>
            <DistanceMeters>NAN</DistanceMeters>
          </Trackpoint>
          <Trackpoint>
            <Time>2022-07-14T18:29:33.000Z</Time>
            <Position>
              <LatitudeDegrees>43.389256037771701812744140625</LatitudeDegrees>
              <LongitudeDegrees>-4.29635996930301189422607421875</LongitudeDegrees>
            </Position>
            <AltitudeMeters>81.40000152587890625</AltitudeMeters>
            <DistanceMeters>NAN</DistanceMeters>
          </Trackpoint>
          <Trackpoint>
            <Time>2022-07-14T18:29:34.000Z</Time>
            <Position>
              <LatitudeDegrees>43.389250673353672027587890625</LatitudeDegrees>
              <LongitudeDegrees>-4.2963776551187038421630859375</LongitudeDegrees>
            </Position>
            <AltitudeMeters>81.40000152587890625</AltitudeMeters>
            <DistanceMeters>NAN</DistanceMeters>
          </Trackpoint>
          <Trackpoint>
            <Time>2022-07-14T18:29:35.000Z</Time>
            <Position>
              <LatitudeDegrees>43.38924857787787914276123046875</LatitudeDegrees>
              <LongitudeDegrees>-4.29639399982988834381103515625</LongitudeDegrees>
            </Position>
            <AltitudeMeters>81.59999847412109375</AltitudeMeters>
            <DistanceMeters>NAN</DistanceMeters>
          </Trackpoint>
          <Trackpoint>
            <Time>2022-07-14T18:29:41.000Z</Time>
            <Position>
              <LatitudeDegrees>43.389194011688232421875</LatitudeDegrees>
              <LongitudeDegrees>-4.29651034064590930938720703125</LongitudeDegrees>
            </Position>
            <AltitudeMeters>82</AltitudeMeters>
            <DistanceMeters>NAN</DistanceMeters>
          </Trackpoint>
          <Trackpoint>
            <Time>2022-07-14T18:29:45.000Z</Time>
            <Position>
              <LatitudeDegrees>43.389144055545330047607421875</LatitudeDegrees>
              <LongitudeDegrees>-4.29656532593071460723876953125</LongitudeDegrees>
            </Position>
            <AltitudeMeters>82.40000152587890625</AltitudeMeters>
            <DistanceMeters>NAN</DistanceMeters>
          </Trackpoint>
          <Trackpoint>
            <Time>2022-07-14T18:29:47.000Z</Time>
            <Position>
              <LatitudeDegrees>43.38912486098706722259521484375</LatitudeDegrees>
              <LongitudeDegrees>-4.2966053076088428497314453125</LongitudeDegrees>
            </Position>
            <AltitudeMeters>82.40000152587890625</AltitudeMeters>
            <DistanceMeters>NAN</DistanceMeters>
          </Trackpoint>
          <Trackpoint>
            <Time>2022-07-14T18:29:48.000Z</Time>
            <Position>
              <LatitudeDegrees>43.389115221798419952392578125</LatitudeDegrees>
              <LongitudeDegrees>-4.29662416689097881317138671875</LongitudeDegrees>
            </Position>
            <AltitudeMeters>82.40000152587890625</AltitudeMeters>
            <DistanceMeters>NAN</DistanceMeters>
          </Trackpoint>
          <Trackpoint>
            <Time>2022-07-14T18:29:50.000Z</Time>
            <Position>
              <LatitudeDegrees>43.38908747769892215728759765625</LatitudeDegrees>
              <LongitudeDegrees>-4.2966599576175212860107421875</LongitudeDegrees>
            </Position>
            <AltitudeMeters>82.40000152587890625</AltitudeMeters>
            <DistanceMeters>NAN</DistanceMeters>
          </Trackpoint>
          <Trackpoint>
            <Time>2022-07-14T18:29:52.000Z</Time>
            <Position>
              <LatitudeDegrees>43.3890585601329803466796875</LatitudeDegrees>
              <LongitudeDegrees>-4.29668585769832134246826171875</LongitudeDegrees>
            </Position>
            <AltitudeMeters>82.40000152587890625</AltitudeMeters>
            <DistanceMeters>NAN</DistanceMeters>
          </Trackpoint>
          <Trackpoint>
            <Time>2022-07-14T18:29:54.000Z</Time>
            <Position>
              <LatitudeDegrees>43.389034084975719451904296875</LatitudeDegrees>
              <LongitudeDegrees>-4.29671335034072399139404296875</LongitudeDegrees>
            </Position>
            <AltitudeMeters>82.59999847412109375</AltitudeMeters>
            <DistanceMeters>NAN</DistanceMeters>
          </Trackpoint>
          <Trackpoint>
            <Time>2022-07-14T18:29:55.000Z</Time>
            <Position>
              <LatitudeDegrees>43.389017991721630096435546875</LatitudeDegrees>
              <LongitudeDegrees>-4.296732209622859954833984375</LongitudeDegrees>
            </Position>
            <AltitudeMeters>82.59999847412109375</AltitudeMeters>
            <DistanceMeters>NAN</DistanceMeters>
          </Trackpoint>
          <Trackpoint>
            <Time>2022-07-14T18:30:02.000Z</Time>
            <Position>
              <LatitudeDegrees>43.3889537863433361053466796875</LatitudeDegrees>
              <LongitudeDegrees>-4.2968765459954738616943359375</LongitudeDegrees>
            </Position>
            <AltitudeMeters>83</AltitudeMeters>
            <DistanceMeters>NAN</DistanceMeters>
          </Trackpoint>
          <Trackpoint>
            <Time>2022-07-14T18:30:06.000Z</Time>
            <Position>
              <LatitudeDegrees>43.388929478824138641357421875</LatitudeDegrees>
              <LongitudeDegrees>-4.296976961195468902587890625</LongitudeDegrees>
            </Position>
            <AltitudeMeters>83.40000152587890625</AltitudeMeters>
            <DistanceMeters>NAN</DistanceMeters>
          </Trackpoint>
          <Trackpoint>
            <Time>2022-07-14T18:30:09.000Z</Time>
            <Position>
              <LatitudeDegrees>43.388906680047512054443359375</LatitudeDegrees>
              <LongitudeDegrees>-4.29706388153135776519775390625</LongitudeDegrees>
            </Position>
            <AltitudeMeters>83.40000152587890625</AltitudeMeters>
            <DistanceMeters>NAN</DistanceMeters>
          </Trackpoint>
          <Trackpoint>
            <Time>2022-07-14T18:30:13.000Z</Time>
            <Position>
              <LatitudeDegrees>43.38886669836938381195068359375</LatitudeDegrees>
              <LongitudeDegrees>-4.2971876822412014007568359375</LongitudeDegrees>
            </Position>
            <AltitudeMeters>83.40000152587890625</AltitudeMeters>
            <DistanceMeters>NAN</DistanceMeters>
          </Trackpoint>
          <Trackpoint>
            <Time>2022-07-14T18:30:15.000Z</Time>
            <Position>
              <LatitudeDegrees>43.38884809054434299468994140625</LatitudeDegrees>
              <LongitudeDegrees>-4.2972644604742527008056640625</LongitudeDegrees>
            </Position>
            <AltitudeMeters>83.40000152587890625</AltitudeMeters>
            <DistanceMeters>NAN</DistanceMeters>
          </Trackpoint>
          <Trackpoint>
            <Time>2022-07-14T18:30:18.000Z</Time>
            <Position>
              <LatitudeDegrees>43.38881523348391056060791015625</LatitudeDegrees>
              <LongitudeDegrees>-4.2973727546632289886474609375</LongitudeDegrees>
            </Position>
            <AltitudeMeters>83.40000152587890625</AltitudeMeters>
            <DistanceMeters>NAN</DistanceMeters>
          </Trackpoint>
          <Trackpoint>
            <Time>2022-07-14T18:30:21.000Z</Time>
            <Position>
              <LatitudeDegrees>43.38878028094768524169921875</LatitudeDegrees>
              <LongitudeDegrees>-4.29747291840612888336181640625</LongitudeDegrees>
            </Position>
            <AltitudeMeters>83.59999847412109375</AltitudeMeters>
            <DistanceMeters>NAN</DistanceMeters>
          </Trackpoint>
          <Trackpoint>
            <Time>2022-07-14T18:30:24.000Z</Time>
            <Position>
              <LatitudeDegrees>43.38874247856438159942626953125</LatitudeDegrees>
              <LongitudeDegrees>-4.2975866608321666717529296875</LongitudeDegrees>
            </Position>
            <AltitudeMeters>83.8000030517578125</AltitudeMeters>
            <DistanceMeters>NAN</DistanceMeters>
          </Trackpoint>
          <Trackpoint>
            <Time>2022-07-14T18:30:28.000Z</Time>
            <Position>
              <LatitudeDegrees>43.3886966295540332794189453125</LatitudeDegrees>
              <LongitudeDegrees>-4.2977338470518589019775390625</LongitudeDegrees>
            </Position>
            <AltitudeMeters>83.8000030517578125</AltitudeMeters>
            <DistanceMeters>NAN</DistanceMeters>
          </Trackpoint>
          <Trackpoint>
            <Time>2022-07-14T18:30:31.000Z</Time>
            <Position>
              <LatitudeDegrees>43.38866653852164745330810546875</LatitudeDegrees>
              <LongitudeDegrees>-4.29785437881946563720703125</LongitudeDegrees>
            </Position>
            <AltitudeMeters>83.8000030517578125</AltitudeMeters>
            <DistanceMeters>NAN</DistanceMeters>
          </Trackpoint>
          <Trackpoint>
            <Time>2022-07-14T18:30:35.000Z</Time>
            <Position>
              <LatitudeDegrees>43.38864147663116455078125</LatitudeDegrees>
              <LongitudeDegrees>-4.29795823059976100921630859375</LongitudeDegrees>
            </Position>
            <AltitudeMeters>84.1999969482421875</AltitudeMeters>
            <DistanceMeters>NAN</DistanceMeters>
          </Trackpoint>
          <Trackpoint>
            <Time>2022-07-14T18:30:37.000Z</Time>
            <Position>
              <LatitudeDegrees>43.388625718653202056884765625</LatitudeDegrees>
              <LongitudeDegrees>-4.2980104498565196990966796875</LongitudeDegrees>
            </Position>
            <AltitudeMeters>84.59999847412109375</AltitudeMeters>
            <DistanceMeters>NAN</DistanceMeters>
          </Trackpoint>
          <Trackpoint>
            <Time>2022-07-14T18:30:43.000Z</Time>
            <Position>
              <LatitudeDegrees>43.38858741335570812225341796875</LatitudeDegrees>
              <LongitudeDegrees>-4.29813374765217304229736328125</LongitudeDegrees>
            </Position>
            <AltitudeMeters>85.59999847412109375</AltitudeMeters>
            <DistanceMeters>NAN</DistanceMeters>
          </Trackpoint>
          <Trackpoint>
            <Time>2022-07-14T18:30:44.000Z</Time>
            <Position>
              <LatitudeDegrees>43.38858389295637607574462890625</LatitudeDegrees>
              <LongitudeDegrees>-4.29815051145851612091064453125</LongitudeDegrees>
            </Position>
            <AltitudeMeters>85.8000030517578125</AltitudeMeters>
            <DistanceMeters>NAN</DistanceMeters>
          </Trackpoint>
          <Trackpoint>
            <Time>2022-07-14T18:30:46.000Z</Time>
            <Position>
              <LatitudeDegrees>43.38858121074736118316650390625</LatitudeDegrees>
              <LongitudeDegrees>-4.298196025192737579345703125</LongitudeDegrees>
            </Position>
            <AltitudeMeters>86.1999969482421875</AltitudeMeters>
            <DistanceMeters>NAN</DistanceMeters>
          </Trackpoint>
          <Trackpoint>
            <Time>2022-07-14T18:30:50.000Z</Time>
            <Position>
              <LatitudeDegrees>43.38858523406088352203369140625</LatitudeDegrees>
              <LongitudeDegrees>-4.298291914165019989013671875</LongitudeDegrees>
            </Position>
            <AltitudeMeters>86.59999847412109375</AltitudeMeters>
            <DistanceMeters>NAN</DistanceMeters>
          </Trackpoint>
          <Trackpoint>
            <Time>2022-07-14T18:30:51.000Z</Time>
            <Position>
              <LatitudeDegrees>43.38859126903116703033447265625</LatitudeDegrees>
              <LongitudeDegrees>-4.298316054046154022216796875</LongitudeDegrees>
            </Position>
            <AltitudeMeters>86.8000030517578125</AltitudeMeters>
            <DistanceMeters>NAN</DistanceMeters>
          </Trackpoint>
          <Trackpoint>
            <Time>2022-07-14T18:30:58.000Z</Time>
            <Position>
              <LatitudeDegrees>43.388582132756710052490234375</LatitudeDegrees>
              <LongitudeDegrees>-4.29848310537636280059814453125</LongitudeDegrees>
            </Position>
            <AltitudeMeters>87.1999969482421875</AltitudeMeters>
            <DistanceMeters>NAN</DistanceMeters>
          </Trackpoint>
          <Trackpoint>
            <Time>2022-07-14T18:31:04.000Z</Time>
            <Position>
              <LatitudeDegrees>43.38854131288826465606689453125</LatitudeDegrees>
              <LongitudeDegrees>-4.298602379858493804931640625</LongitudeDegrees>
            </Position>
            <AltitudeMeters>87.59999847412109375</AltitudeMeters>
            <DistanceMeters>NAN</DistanceMeters>
          </Trackpoint>
          <Trackpoint>
            <Time>2022-07-14T18:31:07.000Z</Time>
            <Position>
              <LatitudeDegrees>43.388515748083591461181640625</LatitudeDegrees>
              <LongitudeDegrees>-4.29866096936166286468505859375</LongitudeDegrees>
            </Position>
            <AltitudeMeters>88.1999969482421875</AltitudeMeters>
            <DistanceMeters>NAN</DistanceMeters>
          </Trackpoint>
          <Trackpoint>
            <Time>2022-07-14T18:31:14.000Z</Time>
            <Position>
              <LatitudeDegrees>43.3885098807513713836669921875</LatitudeDegrees>
              <LongitudeDegrees>-4.2988174594938755035400390625</LongitudeDegrees>
            </Position>
            <AltitudeMeters>88.40000152587890625</AltitudeMeters>
            <DistanceMeters>NAN</DistanceMeters>
          </Trackpoint>
          <Trackpoint>
            <Time>2022-07-14T18:31:21.000Z</Time>
            <Position>
              <LatitudeDegrees>43.3885625191032886505126953125</LatitudeDegrees>
              <LongitudeDegrees>-4.2990655638277530670166015625</LongitudeDegrees>
            </Position>
            <AltitudeMeters>88.1999969482421875</AltitudeMeters>
            <DistanceMeters>NAN</DistanceMeters>
          </Trackpoint>
          <Trackpoint>
            <Time>2022-07-14T18:31:26.000Z</Time>
            <Position>
              <LatitudeDegrees>43.38859830982983112335205078125</LatitudeDegrees>
              <LongitudeDegrees>-4.2991815693676471710205078125</LongitudeDegrees>
            </Position>
            <AltitudeMeters>87.40000152587890625</AltitudeMeters>
            <DistanceMeters>NAN</DistanceMeters>
          </Trackpoint>
          <Trackpoint>
            <Time>2022-07-14T18:31:29.000Z</Time>
            <Position>
              <LatitudeDegrees>43.3885999023914337158203125</LatitudeDegrees>
              <LongitudeDegrees>-4.29918668232858180999755859375</LongitudeDegrees>
            </Position>
            <AltitudeMeters>87.40000152587890625</AltitudeMeters>
            <DistanceMeters>NAN</DistanceMeters>
          </Trackpoint>
          <Trackpoint>
            <Time>2022-07-14T18:31:59.000Z</Time>
            <Position>
              <LatitudeDegrees>43.38856126181781291961669921875</LatitudeDegrees>
              <LongitudeDegrees>-4.29910051636397838592529296875</LongitudeDegrees>
            </Position>
            <AltitudeMeters>86.8000030517578125</AltitudeMeters>
            <DistanceMeters>NAN</DistanceMeters>
          </Trackpoint>
          <Trackpoint>
            <Time>2022-07-14T18:32:00.000Z</Time>
            <Position>
              <LatitudeDegrees>43.38855640031397342681884765625</LatitudeDegrees>
              <LongitudeDegrees>-4.29906941950321197509765625</LongitudeDegrees>
            </Position>
            <AltitudeMeters>86.8000030517578125</AltitudeMeters>
            <DistanceMeters>NAN</DistanceMeters>
          </Trackpoint>
          <Trackpoint>
            <Time>2022-07-14T18:32:05.000Z</Time>
            <Position>
              <LatitudeDegrees>43.38853360153734683990478515625</LatitudeDegrees>
              <LongitudeDegrees>-4.298906810581684112548828125</LongitudeDegrees>
            </Position>
            <AltitudeMeters>86.59999847412109375</AltitudeMeters>
            <DistanceMeters>NAN</DistanceMeters>
          </Trackpoint>
          <Trackpoint>
            <Time>2022-07-14T18:32:08.000Z</Time>
            <Position>
              <LatitudeDegrees>43.38851742446422576904296875</LatitudeDegrees>
              <LongitudeDegrees>-4.2988127656280994415283203125</LongitudeDegrees>
            </Position>
            <AltitudeMeters>86.59999847412109375</AltitudeMeters>
            <DistanceMeters>NAN</DistanceMeters>
          </Trackpoint>
          <Trackpoint>
            <Time>2022-07-14T18:32:12.000Z</Time>
            <Position>
              <LatitudeDegrees>43.38848247192800045013427734375</LatitudeDegrees>
              <LongitudeDegrees>-4.29870908148586750030517578125</LongitudeDegrees>
            </Position>
            <AltitudeMeters>86.40000152587890625</AltitudeMeters>
            <DistanceMeters>NAN</DistanceMeters>
          </Trackpoint>
          <Trackpoint>
            <Time>2022-07-14T18:32:13.000Z</Time>
            <Position>
              <LatitudeDegrees>43.3884605951607227325439453125</LatitudeDegrees>
              <LongitudeDegrees>-4.2986927367746829986572265625</LongitudeDegrees>
            </Position>
            <AltitudeMeters>86.40000152587890625</AltitudeMeters>
            <DistanceMeters>NAN</DistanceMeters>
          </Trackpoint>
          <Trackpoint>
            <Time>2022-07-14T18:32:14.000Z</Time>
            <Position>
              <LatitudeDegrees>43.38844098150730133056640625</LatitudeDegrees>
              <LongitudeDegrees>-4.2986937426030635833740234375</LongitudeDegrees>
            </Position>
            <AltitudeMeters>86.40000152587890625</AltitudeMeters>
            <DistanceMeters>NAN</DistanceMeters>
          </Trackpoint>
          <Trackpoint>
            <Time>2022-07-14T18:32:16.000Z</Time>
            <Position>
              <LatitudeDegrees>43.3883952163159847259521484375</LatitudeDegrees>
              <LongitudeDegrees>-4.2987111769616603851318359375</LongitudeDegrees>
            </Position>
            <AltitudeMeters>86.40000152587890625</AltitudeMeters>
            <DistanceMeters>NAN</DistanceMeters>
          </Trackpoint>
          <Trackpoint>
            <Time>2022-07-14T18:32:18.000Z</Time>
            <Position>
              <LatitudeDegrees>43.3883717469871044158935546875</LatitudeDegrees>
              <LongitudeDegrees>-4.29875157773494720458984375</LongitudeDegrees>
            </Position>
            <AltitudeMeters>86.59999847412109375</AltitudeMeters>
            <DistanceMeters>NAN</DistanceMeters>
          </Trackpoint>
          <Trackpoint>
            <Time>2022-07-14T18:32:22.000Z</Time>
            <Position>
              <LatitudeDegrees>43.3883305080235004425048828125</LatitudeDegrees>
              <LongitudeDegrees>-4.298845790326595306396484375</LongitudeDegrees>
            </Position>
            <AltitudeMeters>86.8000030517578125</AltitudeMeters>
            <DistanceMeters>NAN</DistanceMeters>
          </Trackpoint>
          <Trackpoint>
            <Time>2022-07-14T18:32:25.000Z</Time>
            <Position>
              <LatitudeDegrees>43.3883067034184932708740234375</LatitudeDegrees>
              <LongitudeDegrees>-4.2989225685596466064453125</LongitudeDegrees>
            </Position>
            <AltitudeMeters>87</AltitudeMeters>
            <DistanceMeters>NAN</DistanceMeters>
          </Trackpoint>
          <Trackpoint>
            <Time>2022-07-14T18:32:31.000Z</Time>
            <Position>
              <LatitudeDegrees>43.38822967372834682464599609375</LatitudeDegrees>
              <LongitudeDegrees>-4.29903631098568439483642578125</LongitudeDegrees>
            </Position>
            <AltitudeMeters>87.8000030517578125</AltitudeMeters>
            <DistanceMeters>NAN</DistanceMeters>
          </Trackpoint>
          <Trackpoint>
            <Time>2022-07-14T18:32:32.000Z</Time>
            <Position>
              <LatitudeDegrees>43.3882158435881137847900390625</LatitudeDegrees>
              <LongitudeDegrees>-4.299050979316234588623046875</LongitudeDegrees>
            </Position>
            <AltitudeMeters>87.8000030517578125</AltitudeMeters>
            <DistanceMeters>NAN</DistanceMeters>
          </Trackpoint>
          <Trackpoint>
            <Time>2022-07-14T18:32:34.000Z</Time>
            <Position>
              <LatitudeDegrees>43.3881895244121551513671875</LatitudeDegrees>
              <LongitudeDegrees>-4.29907922632992267608642578125</LongitudeDegrees>
            </Position>
            <AltitudeMeters>87.8000030517578125</AltitudeMeters>
            <DistanceMeters>NAN</DistanceMeters>
          </Trackpoint>
          <Trackpoint>
            <Time>2022-07-14T18:32:35.000Z</Time>
            <Position>
              <LatitudeDegrees>43.3881735987961292266845703125</LatitudeDegrees>
              <LongitudeDegrees>-4.2990942299365997314453125</LongitudeDegrees>
            </Position>
            <AltitudeMeters>88</AltitudeMeters>
            <DistanceMeters>NAN</DistanceMeters>
          </Trackpoint>
          <Trackpoint>
            <Time>2022-07-14T18:32:36.000Z</Time>
            <Position>
              <LatitudeDegrees>43.3881625346839427947998046875</LatitudeDegrees>
              <LongitudeDegrees>-4.299105964601039886474609375</LongitudeDegrees>
            </Position>
            <AltitudeMeters>88.1999969482421875</AltitudeMeters>
            <DistanceMeters>NAN</DistanceMeters>
          </Trackpoint>
          <Trackpoint>
            <Time>2022-07-14T18:32:37.000Z</Time>
            <Position>
              <LatitudeDegrees>43.3881487883627414703369140625</LatitudeDegrees>
              <LongitudeDegrees>-4.2991178669035434722900390625</LongitudeDegrees>
            </Position>
            <AltitudeMeters>88.1999969482421875</AltitudeMeters>
            <DistanceMeters>NAN</DistanceMeters>
          </Trackpoint>
          <Trackpoint>
            <Time>2022-07-14T18:32:39.000Z</Time>
            <Position>
              <LatitudeDegrees>43.3881171047687530517578125</LatitudeDegrees>
              <LongitudeDegrees>-4.29914343170821666717529296875</LongitudeDegrees>
            </Position>
            <AltitudeMeters>88.59999847412109375</AltitudeMeters>
            <DistanceMeters>NAN</DistanceMeters>
          </Trackpoint>
          <Trackpoint>
            <Time>2022-07-14T18:32:40.000Z</Time>
            <Position>
              <LatitudeDegrees>43.38810478337109088897705078125</LatitudeDegrees>
              <LongitudeDegrees>-4.299154579639434814453125</LongitudeDegrees>
            </Position>
            <AltitudeMeters>88.59999847412109375</AltitudeMeters>
            <DistanceMeters>NAN</DistanceMeters>
          </Trackpoint>
          <Trackpoint>
            <Time>2022-07-14T18:32:41.000Z</Time>
            <Position>
              <LatitudeDegrees>43.3880911208689212799072265625</LatitudeDegrees>
              <LongitudeDegrees>-4.29916329681873321533203125</LongitudeDegrees>
            </Position>
            <AltitudeMeters>88.59999847412109375</AltitudeMeters>
            <DistanceMeters>NAN</DistanceMeters>
          </Trackpoint>
          <Trackpoint>
            <Time>2022-07-14T18:32:42.000Z</Time>
            <Position>
              <LatitudeDegrees>43.3880795538425445556640625</LatitudeDegrees>
              <LongitudeDegrees>-4.29916975088417530059814453125</LongitudeDegrees>
            </Position>
            <AltitudeMeters>88.59999847412109375</AltitudeMeters>
            <DistanceMeters>NAN</DistanceMeters>
          </Trackpoint>
          <Trackpoint>
            <Time>2022-07-14T18:32:43.000Z</Time>
            <Position>
              <LatitudeDegrees>43.388067148625850677490234375</LatitudeDegrees>
              <LongitudeDegrees>-4.29918031208217144012451171875</LongitudeDegrees>
            </Position>
            <AltitudeMeters>88.8000030517578125</AltitudeMeters>
            <DistanceMeters>NAN</DistanceMeters>
          </Trackpoint>
          <Trackpoint>
            <Time>2022-07-14T18:32:44.000Z</Time>
            <Position>
              <LatitudeDegrees>43.38805072009563446044921875</LatitudeDegrees>
              <LongitudeDegrees>-4.299186430871486663818359375</LongitudeDegrees>
            </Position>
            <AltitudeMeters>88.8000030517578125</AltitudeMeters>
            <DistanceMeters>NAN</DistanceMeters>
          </Trackpoint>
          <Trackpoint>
            <Time>2022-07-14T18:32:46.000Z</Time>
            <Position>
              <LatitudeDegrees>43.38801928795874118804931640625</LatitudeDegrees>
              <LongitudeDegrees>-4.29919950664043426513671875</LongitudeDegrees>
            </Position>
            <AltitudeMeters>89.1999969482421875</AltitudeMeters>
            <DistanceMeters>NAN</DistanceMeters>
          </Trackpoint>
          <Trackpoint>
            <Time>2022-07-14T18:32:50.000Z</Time>
            <Position>
              <LatitudeDegrees>43.38795726187527179718017578125</LatitudeDegrees>
              <LongitudeDegrees>-4.2992268316447734832763671875</LongitudeDegrees>
            </Position>
            <AltitudeMeters>89.40000152587890625</AltitudeMeters>
            <DistanceMeters>NAN</DistanceMeters>
          </Trackpoint>
          <Trackpoint>
            <Time>2022-07-14T18:32:53.000Z</Time>
            <Position>
              <LatitudeDegrees>43.38790797628462314605712890625</LatitudeDegrees>
              <LongitudeDegrees>-4.29923127405345439910888671875</LongitudeDegrees>
            </Position>
            <AltitudeMeters>89.8000030517578125</AltitudeMeters>
            <DistanceMeters>NAN</DistanceMeters>
          </Trackpoint>
          <Trackpoint>
            <Time>2022-07-14T18:32:59.000Z</Time>
            <Position>
              <LatitudeDegrees>43.387822397053241729736328125</LatitudeDegrees>
              <LongitudeDegrees>-4.2992606945335865020751953125</LongitudeDegrees>
            </Position>
            <AltitudeMeters>90.8000030517578125</AltitudeMeters>
            <DistanceMeters>NAN</DistanceMeters>
          </Trackpoint>
          <Trackpoint>
            <Time>2022-07-14T18:33:00.000Z</Time>
            <Position>
              <LatitudeDegrees>43.38781175203621387481689453125</LatitudeDegrees>
              <LongitudeDegrees>-4.29926446639001369476318359375</LongitudeDegrees>
            </Position>
            <AltitudeMeters>91</AltitudeMeters>
            <DistanceMeters>NAN</DistanceMeters>
          </Trackpoint>
          <Trackpoint>
            <Time>2022-07-14T18:33:07.000Z</Time>
            <Position>
              <LatitudeDegrees>43.387715779244899749755859375</LatitudeDegrees>
              <LongitudeDegrees>-4.29929128848016262054443359375</LongitudeDegrees>
            </Position>
            <AltitudeMeters>91.8000030517578125</AltitudeMeters>
            <DistanceMeters>NAN</DistanceMeters>
          </Trackpoint>
          <Trackpoint>
            <Time>2022-07-14T18:33:09.000Z</Time>
            <Position>
              <LatitudeDegrees>43.38769205845892429351806640625</LatitudeDegrees>
              <LongitudeDegrees>-4.29930184967815876007080078125</LongitudeDegrees>
            </Position>
            <AltitudeMeters>92</AltitudeMeters>
            <DistanceMeters>NAN</DistanceMeters>
          </Trackpoint>
          <Trackpoint>
            <Time>2022-07-14T18:33:17.000Z</Time>
            <Position>
              <LatitudeDegrees>43.387584686279296875</LatitudeDegrees>
              <LongitudeDegrees>-4.299353063106536865234375</LongitudeDegrees>
            </Position>
            <AltitudeMeters>93.1999969482421875</AltitudeMeters>
            <DistanceMeters>NAN</DistanceMeters>
          </Trackpoint>
          <Trackpoint>
            <Time>2022-07-14T18:33:24.000Z</Time>
            <Position>
              <LatitudeDegrees>43.3875082433223724365234375</LatitudeDegrees>
              <LongitudeDegrees>-4.2994497902691364288330078125</LongitudeDegrees>
            </Position>
            <AltitudeMeters>93.8000030517578125</AltitudeMeters>
            <DistanceMeters>NAN</DistanceMeters>
          </Trackpoint>
          <Trackpoint>
            <Time>2022-07-14T18:33:28.000Z</Time>
            <Position>
              <LatitudeDegrees>43.38746423833072185516357421875</LatitudeDegrees>
              <LongitudeDegrees>-4.2995061166584491729736328125</LongitudeDegrees>
            </Position>
            <AltitudeMeters>94.1999969482421875</AltitudeMeters>
            <DistanceMeters>NAN</DistanceMeters>
          </Trackpoint>
          <Trackpoint>
            <Time>2022-07-14T18:33:33.000Z</Time>
            <Position>
              <LatitudeDegrees>43.387431465089321136474609375</LatitudeDegrees>
              <LongitudeDegrees>-4.29958096705377101898193359375</LongitudeDegrees>
            </Position>
            <AltitudeMeters>95</AltitudeMeters>
            <DistanceMeters>NAN</DistanceMeters>
          </Trackpoint>
          <Trackpoint>
            <Time>2022-07-14T18:33:35.000Z</Time>
            <Position>
              <LatitudeDegrees>43.3874205686151981353759765625</LatitudeDegrees>
              <LongitudeDegrees>-4.29960913024842739105224609375</LongitudeDegrees>
            </Position>
            <AltitudeMeters>95.40000152587890625</AltitudeMeters>
            <DistanceMeters>NAN</DistanceMeters>
          </Trackpoint>
          <Trackpoint>
            <Time>2022-07-14T18:33:41.000Z</Time>
            <Position>
              <LatitudeDegrees>43.38737673126161098480224609375</LatitudeDegrees>
              <LongitudeDegrees>-4.29972932673990726470947265625</LongitudeDegrees>
            </Position>
            <AltitudeMeters>95.8000030517578125</AltitudeMeters>
            <DistanceMeters>NAN</DistanceMeters>
          </Trackpoint>
          <Trackpoint>
            <Time>2022-07-14T18:33:45.000Z</Time>
            <Position>
              <LatitudeDegrees>43.38734504766762256622314453125</LatitudeDegrees>
              <LongitudeDegrees>-4.29980099201202392578125</LongitudeDegrees>
            </Position>
            <AltitudeMeters>96.40000152587890625</AltitudeMeters>
            <DistanceMeters>NAN</DistanceMeters>
          </Trackpoint>
          <Trackpoint>
            <Time>2022-07-14T18:33:47.000Z</Time>
            <Position>
              <LatitudeDegrees>43.38733985088765621185302734375</LatitudeDegrees>
              <LongitudeDegrees>-4.29983477108180522918701171875</LongitudeDegrees>
            </Position>
            <AltitudeMeters>96.59999847412109375</AltitudeMeters>
            <DistanceMeters>NAN</DistanceMeters>
          </Trackpoint>
          <Trackpoint>
            <Time>2022-07-14T18:33:49.000Z</Time>
            <Position>
              <LatitudeDegrees>43.38733733631670475006103515625</LatitudeDegrees>
              <LongitudeDegrees>-4.2998732440173625946044921875</LongitudeDegrees>
            </Position>
            <AltitudeMeters>96.59999847412109375</AltitudeMeters>
            <DistanceMeters>NAN</DistanceMeters>
          </Trackpoint>
          <Trackpoint>
            <Time>2022-07-14T18:33:53.000Z</Time>
            <Position>
              <LatitudeDegrees>43.3873152919113636016845703125</LatitudeDegrees>
              <LongitudeDegrees>-4.2999657802283763885498046875</LongitudeDegrees>
            </Position>
            <AltitudeMeters>96.59999847412109375</AltitudeMeters>
            <DistanceMeters>NAN</DistanceMeters>
          </Trackpoint>
          <Trackpoint>
            <Time>2022-07-14T18:34:01.000Z</Time>
            <Position>
              <LatitudeDegrees>43.38729525916278362274169921875</LatitudeDegrees>
              <LongitudeDegrees>-4.3001713044941425323486328125</LongitudeDegrees>
            </Position>
            <AltitudeMeters>97.1999969482421875</AltitudeMeters>
            <DistanceMeters>NAN</DistanceMeters>
          </Trackpoint>
          <Trackpoint>
            <Time>2022-07-14T18:34:07.000Z</Time>
            <Position>
              <LatitudeDegrees>43.38728964328765869140625</LatitudeDegrees>
              <LongitudeDegrees>-4.30029929615557193756103515625</LongitudeDegrees>
            </Position>
            <AltitudeMeters>97.40000152587890625</AltitudeMeters>
            <DistanceMeters>NAN</DistanceMeters>
          </Trackpoint>
          <Trackpoint>
            <Time>2022-07-14T18:34:11.000Z</Time>
            <Position>
              <LatitudeDegrees>43.38727430440485477447509765625</LatitudeDegrees>
              <LongitudeDegrees>-4.30038529448211193084716796875</LongitudeDegrees>
            </Position>
            <AltitudeMeters>98</AltitudeMeters>
            <DistanceMeters>NAN</DistanceMeters>
          </Trackpoint>
          <Trackpoint>
            <Time>2022-07-14T18:34:16.000Z</Time>
            <Position>
              <LatitudeDegrees>43.3872763998806476593017578125</LatitudeDegrees>
              <LongitudeDegrees>-4.3004997074604034423828125</LongitudeDegrees>
            </Position>
            <AltitudeMeters>98.59999847412109375</AltitudeMeters>
            <DistanceMeters>NAN</DistanceMeters>
          </Trackpoint>
          <Trackpoint>
            <Time>2022-07-14T18:34:18.000Z</Time>
            <Position>
              <LatitudeDegrees>43.38728603906929492950439453125</LatitudeDegrees>
              <LongitudeDegrees>-4.3005424551665782928466796875</LongitudeDegrees>
            </Position>
            <AltitudeMeters>98.8000030517578125</AltitudeMeters>
            <DistanceMeters>NAN</DistanceMeters>
          </Trackpoint>
          <Trackpoint>
            <Time>2022-07-14T18:34:26.000Z</Time>
            <Position>
              <LatitudeDegrees>43.38733163662254810333251953125</LatitudeDegrees>
              <LongitudeDegrees>-4.30076650343835353851318359375</LongitudeDegrees>
            </Position>
            <AltitudeMeters>99</AltitudeMeters>
            <DistanceMeters>NAN</DistanceMeters>
          </Trackpoint>
          <Trackpoint>
            <Time>2022-07-14T18:34:29.000Z</Time>
            <Position>
              <LatitudeDegrees>43.38735728524625301361083984375</LatitudeDegrees>
              <LongitudeDegrees>-4.3008458800613880157470703125</LongitudeDegrees>
            </Position>
            <AltitudeMeters>99.1999969482421875</AltitudeMeters>
            <DistanceMeters>NAN</DistanceMeters>
          </Trackpoint>
          <Trackpoint>
            <Time>2022-07-14T18:34:33.000Z</Time>
            <Position>
              <LatitudeDegrees>43.3873991109430789947509765625</LatitudeDegrees>
              <LongitudeDegrees>-4.30097286589443683624267578125</LongitudeDegrees>
            </Position>
            <AltitudeMeters>99.1999969482421875</AltitudeMeters>
            <DistanceMeters>NAN</DistanceMeters>
          </Trackpoint>
          <Trackpoint>
            <Time>2022-07-14T18:34:35.000Z</Time>
            <Position>
              <LatitudeDegrees>43.38741461746394634246826171875</LatitudeDegrees>
              <LongitudeDegrees>-4.3010272644460201263427734375</LongitudeDegrees>
            </Position>
            <AltitudeMeters>99.1999969482421875</AltitudeMeters>
            <DistanceMeters>NAN</DistanceMeters>
          </Trackpoint>
          <Trackpoint>
            <Time>2022-07-14T18:34:40.000Z</Time>
            <Position>
              <LatitudeDegrees>43.38746063411235809326171875</LatitudeDegrees>
              <LongitudeDegrees>-4.3011714331805706024169921875</LongitudeDegrees>
            </Position>
            <AltitudeMeters>99.59999847412109375</AltitudeMeters>
            <DistanceMeters>NAN</DistanceMeters>
          </Trackpoint>
          <Trackpoint>
            <Time>2022-07-14T18:34:41.000Z</Time>
            <Position>
              <LatitudeDegrees>43.38747010566294193267822265625</LatitudeDegrees>
              <LongitudeDegrees>-4.30120118893682956695556640625</LongitudeDegrees>
            </Position>
            <AltitudeMeters>99.8000030517578125</AltitudeMeters>
            <DistanceMeters>NAN</DistanceMeters>
          </Trackpoint>
          <Trackpoint>
            <Time>2022-07-14T18:34:47.000Z</Time>
            <Position>
              <LatitudeDegrees>43.3875198103487491607666015625</LatitudeDegrees>
              <LongitudeDegrees>-4.30136782117187976837158203125</LongitudeDegrees>
            </Position>
            <AltitudeMeters>100.1999969482421875</AltitudeMeters>
            <DistanceMeters>NAN</DistanceMeters>
          </Trackpoint>
          <Trackpoint>
            <Time>2022-07-14T18:34:50.000Z</Time>
            <Position>
              <LatitudeDegrees>43.38755291886627674102783203125</LatitudeDegrees>
              <LongitudeDegrees>-4.30146153084933757781982421875</LongitudeDegrees>
            </Position>
            <AltitudeMeters>100.40000152587890625</AltitudeMeters>
            <DistanceMeters>NAN</DistanceMeters>
          </Trackpoint>
          <Trackpoint>
            <Time>2022-07-14T18:34:58.000Z</Time>
            <Position>
              <LatitudeDegrees>43.3876488916575908660888671875</LatitudeDegrees>
              <LongitudeDegrees>-4.301734864711761474609375</LongitudeDegrees>
            </Position>
            <AltitudeMeters>100.59999847412109375</AltitudeMeters>
            <DistanceMeters>NAN</DistanceMeters>
          </Trackpoint>
          <Trackpoint>
            <Time>2022-07-14T18:35:02.000Z</Time>
            <Position>
              <LatitudeDegrees>43.3876825869083404541015625</LatitudeDegrees>
              <LongitudeDegrees>-4.30186000652611255645751953125</LongitudeDegrees>
            </Position>
            <AltitudeMeters>100.8000030517578125</AltitudeMeters>
            <DistanceMeters>NAN</DistanceMeters>
          </Trackpoint>
          <Trackpoint>
            <Time>2022-07-14T18:35:04.000Z</Time>
            <Position>
              <LatitudeDegrees>43.387716449797153472900390625</LatitudeDegrees>
              <LongitudeDegrees>-4.30193594656884670257568359375</LongitudeDegrees>
            </Position>
            <AltitudeMeters>101</AltitudeMeters>
            <DistanceMeters>NAN</DistanceMeters>
          </Trackpoint>
          <Trackpoint>
            <Time>2022-07-14T18:35:12.000Z</Time>
            <Position>
              <LatitudeDegrees>43.38781711645424365997314453125</LatitudeDegrees>
              <LongitudeDegrees>-4.30220969952642917633056640625</LongitudeDegrees>
            </Position>
            <AltitudeMeters>101</AltitudeMeters>
            <DistanceMeters>NAN</DistanceMeters>
          </Trackpoint>
          <Trackpoint>
            <Time>2022-07-14T18:35:20.000Z</Time>
            <Position>
              <LatitudeDegrees>43.3879060484468936920166015625</LatitudeDegrees>
              <LongitudeDegrees>-4.302494935691356658935546875</LongitudeDegrees>
            </Position>
            <AltitudeMeters>101.40000152587890625</AltitudeMeters>
            <DistanceMeters>NAN</DistanceMeters>
          </Trackpoint>
          <Trackpoint>
            <Time>2022-07-14T18:35:23.000Z</Time>
            <Position>
              <LatitudeDegrees>43.38793848641216754913330078125</LatitudeDegrees>
              <LongitudeDegrees>-4.3025909923017024993896484375</LongitudeDegrees>
            </Position>
            <AltitudeMeters>101.8000030517578125</AltitudeMeters>
            <DistanceMeters>NAN</DistanceMeters>
          </Trackpoint>
          <Trackpoint>
            <Time>2022-07-14T18:35:24.000Z</Time>
            <Position>
              <LatitudeDegrees>43.3879459463059902191162109375</LatitudeDegrees>
              <LongitudeDegrees>-4.30263298563659191131591796875</LongitudeDegrees>
            </Position>
            <AltitudeMeters>102</AltitudeMeters>
            <DistanceMeters>NAN</DistanceMeters>
          </Trackpoint>
          <Trackpoint>
            <Time>2022-07-14T18:35:29.000Z</Time>
            <Position>
              <LatitudeDegrees>43.38800109922885894775390625</LatitudeDegrees>
              <LongitudeDegrees>-4.3028090894222259521484375</LongitudeDegrees>
            </Position>
            <AltitudeMeters>102.59999847412109375</AltitudeMeters>
            <DistanceMeters>NAN</DistanceMeters>
          </Trackpoint>
          <Trackpoint>
            <Time>2022-07-14T18:35:31.000Z</Time>
            <Position>
              <LatitudeDegrees>43.38798425160348415374755859375</LatitudeDegrees>
              <LongitudeDegrees>-4.3028558604419231414794921875</LongitudeDegrees>
            </Position>
            <AltitudeMeters>102.8000030517578125</AltitudeMeters>
            <DistanceMeters>NAN</DistanceMeters>
          </Trackpoint>
          <Trackpoint>
            <Time>2022-07-14T18:35:34.000Z</Time>
            <Position>
              <LatitudeDegrees>43.38794988580048084259033203125</LatitudeDegrees>
              <LongitudeDegrees>-4.302913360297679901123046875</LongitudeDegrees>
            </Position>
            <AltitudeMeters>103.40000152587890625</AltitudeMeters>
            <DistanceMeters>NAN</DistanceMeters>
          </Trackpoint>
          <Trackpoint>
            <Time>2022-07-14T18:35:38.000Z</Time>
            <Position>
              <LatitudeDegrees>43.3879053778946399688720703125</LatitudeDegrees>
              <LongitudeDegrees>-4.30295686237514019012451171875</LongitudeDegrees>
            </Position>
            <AltitudeMeters>103.8000030517578125</AltitudeMeters>
            <DistanceMeters>NAN</DistanceMeters>
          </Trackpoint>
          <Trackpoint>
            <Time>2022-07-14T18:35:42.000Z</Time>
            <Position>
              <LatitudeDegrees>43.387851230800151824951171875</LatitudeDegrees>
              <LongitudeDegrees>-4.30300044827163219451904296875</LongitudeDegrees>
            </Position>
            <AltitudeMeters>104.1999969482421875</AltitudeMeters>
            <DistanceMeters>NAN</DistanceMeters>
          </Trackpoint>
          <Trackpoint>
            <Time>2022-07-14T18:35:44.000Z</Time>
            <Position>
              <LatitudeDegrees>43.387801609933376312255859375</LatitudeDegrees>
              <LongitudeDegrees>-4.3030191399157047271728515625</LongitudeDegrees>
            </Position>
            <AltitudeMeters>104.1999969482421875</AltitudeMeters>
            <DistanceMeters>NAN</DistanceMeters>
          </Trackpoint>
          <Trackpoint>
            <Time>2022-07-14T18:35:47.000Z</Time>
            <Position>
              <LatitudeDegrees>43.38769591413438320159912109375</LatitudeDegrees>
              <LongitudeDegrees>-4.30301603861153125762939453125</LongitudeDegrees>
            </Position>
            <AltitudeMeters>104</AltitudeMeters>
            <DistanceMeters>NAN</DistanceMeters>
          </Trackpoint>
          <Trackpoint>
            <Time>2022-07-14T18:35:53.000Z</Time>
            <Position>
              <LatitudeDegrees>43.38751503266394138336181640625</LatitudeDegrees>
              <LongitudeDegrees>-4.30300363339483737945556640625</LongitudeDegrees>
            </Position>
            <AltitudeMeters>103.8000030517578125</AltitudeMeters>
            <DistanceMeters>NAN</DistanceMeters>
          </Trackpoint>
          <Trackpoint>
            <Time>2022-07-14T18:35:56.000Z</Time>
            <Position>
              <LatitudeDegrees>43.3874711953103542327880859375</LatitudeDegrees>
              <LongitudeDegrees>-4.302973039448261260986328125</LongitudeDegrees>
            </Position>
            <AltitudeMeters>103.59999847412109375</AltitudeMeters>
            <DistanceMeters>NAN</DistanceMeters>
          </Trackpoint>
          <Trackpoint>
            <Time>2022-07-14T18:35:58.000Z</Time>
            <Position>
              <LatitudeDegrees>43.387434482574462890625</LatitudeDegrees>
              <LongitudeDegrees>-4.30298544466495513916015625</LongitudeDegrees>
            </Position>
            <AltitudeMeters>103.1999969482421875</AltitudeMeters>
            <DistanceMeters>NAN</DistanceMeters>
          </Trackpoint>
          <Trackpoint>
            <Time>2022-07-14T18:36:02.000Z</Time>
            <Position>
              <LatitudeDegrees>43.38737069629132747650146484375</LatitudeDegrees>
              <LongitudeDegrees>-4.3030680902302265167236328125</LongitudeDegrees>
            </Position>
            <AltitudeMeters>102.8000030517578125</AltitudeMeters>
            <DistanceMeters>NAN</DistanceMeters>
          </Trackpoint>
          <Trackpoint>
            <Time>2022-07-14T18:36:03.000Z</Time>
            <Position>
              <LatitudeDegrees>43.3873588778078556060791015625</LatitudeDegrees>
              <LongitudeDegrees>-4.3030942417681217193603515625</LongitudeDegrees>
            </Position>
            <AltitudeMeters>102.59999847412109375</AltitudeMeters>
            <DistanceMeters>NAN</DistanceMeters>
          </Trackpoint>
          <Trackpoint>
            <Time>2022-07-14T18:36:10.000Z</Time>
            <Position>
              <LatitudeDegrees>43.3873092569410800933837890625</LatitudeDegrees>
              <LongitudeDegrees>-4.30320194922387599945068359375</LongitudeDegrees>
            </Position>
            <AltitudeMeters>102</AltitudeMeters>
            <DistanceMeters>NAN</DistanceMeters>
          </Trackpoint>
          <Trackpoint>
            <Time>2022-07-14T18:37:26.000Z</Time>
            <Position>
              <LatitudeDegrees>43.38730146177113056182861328125</LatitudeDegrees>
              <LongitudeDegrees>-4.3032561801373958587646484375</LongitudeDegrees>
            </Position>
            <AltitudeMeters>102.40000152587890625</AltitudeMeters>
            <DistanceMeters>NAN</DistanceMeters>
          </Trackpoint>
          <Trackpoint>
            <Time>2022-07-14T18:37:27.000Z</Time>
            <Position>
              <LatitudeDegrees>43.3872928284108638763427734375</LatitudeDegrees>
              <LongitudeDegrees>-4.30329314433038234710693359375</LongitudeDegrees>
            </Position>
            <AltitudeMeters>102.40000152587890625</AltitudeMeters>
            <DistanceMeters>NAN</DistanceMeters>
          </Trackpoint>
          <Trackpoint>
            <Time>2022-07-14T18:37:28.000Z</Time>
            <Position>
              <LatitudeDegrees>43.38728017173707485198974609375</LatitudeDegrees>
              <LongitudeDegrees>-4.3033413402736186981201171875</LongitudeDegrees>
            </Position>
            <AltitudeMeters>102.40000152587890625</AltitudeMeters>
            <DistanceMeters>NAN</DistanceMeters>
          </Trackpoint>
          <Trackpoint>
            <Time>2022-07-14T18:37:33.000Z</Time>
            <Position>
              <LatitudeDegrees>43.38723926804959774017333984375</LatitudeDegrees>
              <LongitudeDegrees>-4.303530268371105194091796875</LongitudeDegrees>
            </Position>
            <AltitudeMeters>101.40000152587890625</AltitudeMeters>
            <DistanceMeters>NAN</DistanceMeters>
          </Trackpoint>
          <Trackpoint>
            <Time>2022-07-14T18:37:34.000Z</Time>
            <Position>
              <LatitudeDegrees>43.3872318081557750701904296875</LatitudeDegrees>
              <LongitudeDegrees>-4.30357058532536029815673828125</LongitudeDegrees>
            </Position>
            <AltitudeMeters>101.1999969482421875</AltitudeMeters>
            <DistanceMeters>NAN</DistanceMeters>
          </Trackpoint>
          <Trackpoint>
            <Time>2022-07-14T18:37:37.000Z</Time>
            <Position>
              <LatitudeDegrees>43.3872173912823200225830078125</LatitudeDegrees>
              <LongitudeDegrees>-4.30370368994772434234619140625</LongitudeDegrees>
            </Position>
            <AltitudeMeters>100</AltitudeMeters>
            <DistanceMeters>NAN</DistanceMeters>
          </Trackpoint>
          <Trackpoint>
            <Time>2022-07-14T18:37:41.000Z</Time>
            <Position>
              <LatitudeDegrees>43.38719970546662807464599609375</LatitudeDegrees>
              <LongitudeDegrees>-4.303845427930355072021484375</LongitudeDegrees>
            </Position>
            <AltitudeMeters>98.8000030517578125</AltitudeMeters>
            <DistanceMeters>NAN</DistanceMeters>
          </Trackpoint>
          <Trackpoint>
            <Time>2022-07-14T18:37:42.000Z</Time>
            <Position>
              <LatitudeDegrees>43.3871925808489322662353515625</LatitudeDegrees>
              <LongitudeDegrees>-4.30387987755239009857177734375</LongitudeDegrees>
            </Position>
            <AltitudeMeters>98.40000152587890625</AltitudeMeters>
            <DistanceMeters>NAN</DistanceMeters>
          </Trackpoint>
          <Trackpoint>
            <Time>2022-07-14T18:37:45.000Z</Time>
            <Position>
              <LatitudeDegrees>43.38717020116746425628662109375</LatitudeDegrees>
              <LongitudeDegrees>-4.30400694720447063446044921875</LongitudeDegrees>
            </Position>
            <AltitudeMeters>97.59999847412109375</AltitudeMeters>
            <DistanceMeters>NAN</DistanceMeters>
          </Trackpoint>
          <Trackpoint>
            <Time>2022-07-14T18:37:49.000Z</Time>
            <Position>
              <LatitudeDegrees>43.387145809829235076904296875</LatitudeDegrees>
              <LongitudeDegrees>-4.3041674606502056121826171875</LongitudeDegrees>
            </Position>
            <AltitudeMeters>96.59999847412109375</AltitudeMeters>
            <DistanceMeters>NAN</DistanceMeters>
          </Trackpoint>
          <Trackpoint>
            <Time>2022-07-14T18:37:50.000Z</Time>
            <Position>
              <LatitudeDegrees>43.3871429599821567535400390625</LatitudeDegrees>
              <LongitudeDegrees>-4.30419319309294223785400390625</LongitudeDegrees>
            </Position>
            <AltitudeMeters>96.1999969482421875</AltitudeMeters>
            <DistanceMeters>NAN</DistanceMeters>
          </Trackpoint>
          <Trackpoint>
            <Time>2022-07-14T18:37:53.000Z</Time>
            <Position>
              <LatitudeDegrees>43.3871379308402538299560546875</LatitudeDegrees>
              <LongitudeDegrees>-4.304211549460887908935546875</LongitudeDegrees>
            </Position>
            <AltitudeMeters>95.8000030517578125</AltitudeMeters>
            <DistanceMeters>NAN</DistanceMeters>
          </Trackpoint>
          <Trackpoint>
            <Time>2022-07-14T18:37:54.000Z</Time>
            <Position>
              <LatitudeDegrees>43.38713717646896839141845703125</LatitudeDegrees>
              <LongitudeDegrees>-4.30420526303350925445556640625</LongitudeDegrees>
            </Position>
            <AltitudeMeters>95.8000030517578125</AltitudeMeters>
            <DistanceMeters>NAN</DistanceMeters>
          </Trackpoint>
          <Trackpoint>
            <Time>2022-07-14T18:38:00.000Z</Time>
            <Position>
              <LatitudeDegrees>43.38709711097180843353271484375</LatitudeDegrees>
              <LongitudeDegrees>-4.30410669185221195220947265625</LongitudeDegrees>
            </Position>
            <AltitudeMeters>95.8000030517578125</AltitudeMeters>
            <DistanceMeters>NAN</DistanceMeters>
          </Trackpoint>
          <Trackpoint>
            <Time>2022-07-14T18:38:01.000Z</Time>
            <Position>
              <LatitudeDegrees>43.38707582093775272369384765625</LatitudeDegrees>
              <LongitudeDegrees>-4.304085485637187957763671875</LongitudeDegrees>
            </Position>
            <AltitudeMeters>95.8000030517578125</AltitudeMeters>
            <DistanceMeters>NAN</DistanceMeters>
          </Trackpoint>
          <Trackpoint>
            <Time>2022-07-14T18:38:05.000Z</Time>
            <Position>
              <LatitudeDegrees>43.38696350343525409698486328125</LatitudeDegrees>
              <LongitudeDegrees>-4.30400342680513858795166015625</LongitudeDegrees>
            </Position>
            <AltitudeMeters>95.59999847412109375</AltitudeMeters>
            <DistanceMeters>NAN</DistanceMeters>
          </Trackpoint>
          <Trackpoint>
            <Time>2022-07-14T18:38:07.000Z</Time>
            <Position>
              <LatitudeDegrees>43.386906422674655914306640625</LatitudeDegrees>
              <LongitudeDegrees>-4.303968809545040130615234375</LongitudeDegrees>
            </Position>
            <AltitudeMeters>95.1999969482421875</AltitudeMeters>
            <DistanceMeters>NAN</DistanceMeters>
          </Trackpoint>
          <Trackpoint>
            <Time>2022-07-14T18:38:09.000Z</Time>
            <Position>
              <LatitudeDegrees>43.3868519403040409088134765625</LatitudeDegrees>
              <LongitudeDegrees>-4.30393754504621028900146484375</LongitudeDegrees>
            </Position>
            <AltitudeMeters>93.59999847412109375</AltitudeMeters>
            <DistanceMeters>NAN</DistanceMeters>
          </Trackpoint>
          <Trackpoint>
            <Time>2022-07-14T18:38:11.000Z</Time>
            <Position>
              <LatitudeDegrees>43.386792428791522979736328125</LatitudeDegrees>
              <LongitudeDegrees>-4.3039092980325222015380859375</LongitudeDegrees>
            </Position>
            <AltitudeMeters>92.1999969482421875</AltitudeMeters>
            <DistanceMeters>NAN</DistanceMeters>
          </Trackpoint>
          <Trackpoint>
            <Time>2022-07-14T18:38:13.000Z</Time>
            <Position>
              <LatitudeDegrees>43.386729396879673004150390625</LatitudeDegrees>
              <LongitudeDegrees>-4.30389882065355777740478515625</LongitudeDegrees>
            </Position>
            <AltitudeMeters>90.59999847412109375</AltitudeMeters>
            <DistanceMeters>NAN</DistanceMeters>
          </Trackpoint>
          <Trackpoint>
            <Time>2022-07-14T18:38:14.000Z</Time>
            <Position>
              <LatitudeDegrees>43.3866963721811771392822265625</LatitudeDegrees>
              <LongitudeDegrees>-4.30389228276908397674560546875</LongitudeDegrees>
            </Position>
            <AltitudeMeters>90.1999969482421875</AltitudeMeters>
            <DistanceMeters>NAN</DistanceMeters>
          </Trackpoint>
          <Trackpoint>
            <Time>2022-07-14T18:38:17.000Z</Time>
            <Position>
              <LatitudeDegrees>43.3866177499294281005859375</LatitudeDegrees>
              <LongitudeDegrees>-4.30386495776474475860595703125</LongitudeDegrees>
            </Position>
            <AltitudeMeters>89.40000152587890625</AltitudeMeters>
            <DistanceMeters>NAN</DistanceMeters>
          </Trackpoint>
          <Trackpoint>
            <Time>2022-07-14T18:38:19.000Z</Time>
            <Position>
              <LatitudeDegrees>43.3865696378052234649658203125</LatitudeDegrees>
              <LongitudeDegrees>-4.303855486214160919189453125</LongitudeDegrees>
            </Position>
            <AltitudeMeters>89</AltitudeMeters>
            <DistanceMeters>NAN</DistanceMeters>
          </Trackpoint>
          <Trackpoint>
            <Time>2022-07-14T18:38:22.000Z</Time>
            <Position>
              <LatitudeDegrees>43.38648640550673007965087890625</LatitudeDegrees>
              <LongitudeDegrees>-4.3038181029260158538818359375</LongitudeDegrees>
            </Position>
            <AltitudeMeters>88.40000152587890625</AltitudeMeters>
            <DistanceMeters>NAN</DistanceMeters>
          </Trackpoint>
          <Trackpoint>
            <Time>2022-07-14T18:38:25.000Z</Time>
            <Position>
              <LatitudeDegrees>43.38642136193811893463134765625</LatitudeDegrees>
              <LongitudeDegrees>-4.30378817953169345855712890625</LongitudeDegrees>
            </Position>
            <AltitudeMeters>88.1999969482421875</AltitudeMeters>
            <DistanceMeters>NAN</DistanceMeters>
          </Trackpoint>
          <Trackpoint>
            <Time>2022-07-14T18:38:29.000Z</Time>
            <Position>
              <LatitudeDegrees>43.38637459091842174530029296875</LatitudeDegrees>
              <LongitudeDegrees>-4.30379656143486499786376953125</LongitudeDegrees>
            </Position>
            <AltitudeMeters>88.1999969482421875</AltitudeMeters>
            <DistanceMeters>NAN</DistanceMeters>
          </Trackpoint>
          <Trackpoint>
            <Time>2022-07-14T18:38:33.000Z</Time>
            <Position>
              <LatitudeDegrees>43.38636922650039196014404296875</LatitudeDegrees>
              <LongitudeDegrees>-4.30380946956574916839599609375</LongitudeDegrees>
            </Position>
            <AltitudeMeters>87.8000030517578125</AltitudeMeters>
            <DistanceMeters>NAN</DistanceMeters>
          </Trackpoint>
          <Trackpoint>
            <Time>2022-07-14T18:38:39.000Z</Time>
            <Position>
              <LatitudeDegrees>43.38640040718019008636474609375</LatitudeDegrees>
              <LongitudeDegrees>-4.30386898107826709747314453125</LongitudeDegrees>
            </Position>
            <AltitudeMeters>88</AltitudeMeters>
            <DistanceMeters>NAN</DistanceMeters>
          </Trackpoint>
          <Trackpoint>
            <Time>2022-07-14T18:38:45.000Z</Time>
            <Position>
              <LatitudeDegrees>43.3864828012883663177490234375</LatitudeDegrees>
              <LongitudeDegrees>-4.30392966605722904205322265625</LongitudeDegrees>
            </Position>
            <AltitudeMeters>89</AltitudeMeters>
            <DistanceMeters>NAN</DistanceMeters>
          </Trackpoint>
          <Trackpoint>
            <Time>2022-07-14T18:38:49.000Z</Time>
            <Position>
              <LatitudeDegrees>43.3865104615688323974609375</LatitudeDegrees>
              <LongitudeDegrees>-4.303935952484607696533203125</LongitudeDegrees>
            </Position>
            <AltitudeMeters>89.40000152587890625</AltitudeMeters>
            <DistanceMeters>NAN</DistanceMeters>
          </Trackpoint>
          <Trackpoint>
            <Time>2022-07-14T18:38:50.000Z</Time>
            <Position>
              <LatitudeDegrees>43.3865104615688323974609375</LatitudeDegrees>
              <LongitudeDegrees>-4.303935952484607696533203125</LongitudeDegrees>
            </Position>
            <AltitudeMeters>89.59999847412109375</AltitudeMeters>
            <DistanceMeters>NAN</DistanceMeters>
          </Trackpoint>
          <Trackpoint>
            <Time>2022-07-14T18:40:15.000Z</Time>
            <Position>
              <LatitudeDegrees>43.38645136915147304534912109375</LatitudeDegrees>
              <LongitudeDegrees>-4.30393100716173648834228515625</LongitudeDegrees>
            </Position>
            <AltitudeMeters>89.8000030517578125</AltitudeMeters>
            <DistanceMeters>NAN</DistanceMeters>
          </Trackpoint>
          <Trackpoint>
            <Time>2022-07-14T18:40:16.000Z</Time>
            <Position>
              <LatitudeDegrees>43.3864382095634937286376953125</LatitudeDegrees>
              <LongitudeDegrees>-4.3039183504879474639892578125</LongitudeDegrees>
            </Position>
            <AltitudeMeters>89.59999847412109375</AltitudeMeters>
            <DistanceMeters>NAN</DistanceMeters>
          </Trackpoint>
          <Trackpoint>
            <Time>2022-07-14T18:40:17.000Z</Time>
            <Position>
              <LatitudeDegrees>43.38642974384129047393798828125</LatitudeDegrees>
              <LongitudeDegrees>-4.30390141904354095458984375</LongitudeDegrees>
            </Position>
            <AltitudeMeters>89.59999847412109375</AltitudeMeters>
            <DistanceMeters>NAN</DistanceMeters>
          </Trackpoint>
          <Trackpoint>
            <Time>2022-07-14T18:40:20.000Z</Time>
            <Position>
              <LatitudeDegrees>43.38641214184463024139404296875</LatitudeDegrees>
              <LongitudeDegrees>-4.30382422171533107757568359375</LongitudeDegrees>
            </Position>
            <AltitudeMeters>89.40000152587890625</AltitudeMeters>
            <DistanceMeters>NAN</DistanceMeters>
          </Trackpoint>
          <Trackpoint>
            <Time>2022-07-14T18:40:23.000Z</Time>
            <Position>
              <LatitudeDegrees>43.3863909356296062469482421875</LatitudeDegrees>
              <LongitudeDegrees>-4.3037601001560688018798828125</LongitudeDegrees>
            </Position>
            <AltitudeMeters>89.59999847412109375</AltitudeMeters>
            <DistanceMeters>NAN</DistanceMeters>
          </Trackpoint>
          <Trackpoint>
            <Time>2022-07-14T18:40:25.000Z</Time>
            <Position>
              <LatitudeDegrees>43.3863912709057331085205078125</LatitudeDegrees>
              <LongitudeDegrees>-4.30375264026224613189697265625</LongitudeDegrees>
            </Position>
            <AltitudeMeters>89.59999847412109375</AltitudeMeters>
            <DistanceMeters>NAN</DistanceMeters>
          </Trackpoint>
          <Trackpoint>
            <Time>2022-07-14T18:40:29.000Z</Time>
            <Position>
              <LatitudeDegrees>43.386374674737453460693359375</LatitudeDegrees>
              <LongitudeDegrees>-4.30371961556375026702880859375</LongitudeDegrees>
            </Position>
            <AltitudeMeters>89.8000030517578125</AltitudeMeters>
            <DistanceMeters>NAN</DistanceMeters>
          </Trackpoint>
          <Trackpoint>
            <Time>2022-07-14T18:40:31.000Z</Time>
            <Position>
              <LatitudeDegrees>43.38634156621992588043212890625</LatitudeDegrees>
              <LongitudeDegrees>-4.303696565330028533935546875</LongitudeDegrees>
            </Position>
            <AltitudeMeters>89.8000030517578125</AltitudeMeters>
            <DistanceMeters>NAN</DistanceMeters>
          </Trackpoint>
          <Trackpoint>
            <Time>2022-07-14T18:40:39.000Z</Time>
            <Position>
              <LatitudeDegrees>43.38618197478353977203369140625</LatitudeDegrees>
              <LongitudeDegrees>-4.30358366109430789947509765625</LongitudeDegrees>
            </Position>
            <AltitudeMeters>90</AltitudeMeters>
            <DistanceMeters>NAN</DistanceMeters>
          </Trackpoint>
          <Trackpoint>
            <Time>2022-07-14T18:40:48.000Z</Time>
            <Position>
              <LatitudeDegrees>43.38605037890374660491943359375</LatitudeDegrees>
              <LongitudeDegrees>-4.30350788868963718414306640625</LongitudeDegrees>
            </Position>
            <AltitudeMeters>90</AltitudeMeters>
            <DistanceMeters>NAN</DistanceMeters>
          </Trackpoint>
          <Trackpoint>
            <Time>2022-07-14T18:40:54.000Z</Time>
            <Position>
              <LatitudeDegrees>43.386060185730457305908203125</LatitudeDegrees>
              <LongitudeDegrees>-4.30351777933537960052490234375</LongitudeDegrees>
            </Position>
            <AltitudeMeters>90</AltitudeMeters>
            <DistanceMeters>NAN</DistanceMeters>
          </Trackpoint>
          <Trackpoint>
            <Time>2022-07-14T18:40:58.000Z</Time>
            <Position>
              <LatitudeDegrees>43.3860915340483188629150390625</LatitudeDegrees>
              <LongitudeDegrees>-4.303536303341388702392578125</LongitudeDegrees>
            </Position>
            <AltitudeMeters>90.1999969482421875</AltitudeMeters>
            <DistanceMeters>NAN</DistanceMeters>
          </Trackpoint>
          <Trackpoint>
            <Time>2022-07-14T18:41:00.000Z</Time>
            <Position>
              <LatitudeDegrees>43.3861403167247772216796875</LatitudeDegrees>
              <LongitudeDegrees>-4.30355197750031948089599609375</LongitudeDegrees>
            </Position>
            <AltitudeMeters>90.1999969482421875</AltitudeMeters>
            <DistanceMeters>NAN</DistanceMeters>
          </Trackpoint>
          <Trackpoint>
            <Time>2022-07-14T18:41:04.000Z</Time>
            <Position>
              <LatitudeDegrees>43.386237211525440216064453125</LatitudeDegrees>
              <LongitudeDegrees>-4.3036109022796154022216796875</LongitudeDegrees>
            </Position>
            <AltitudeMeters>90.1999969482421875</AltitudeMeters>
            <DistanceMeters>NAN</DistanceMeters>
          </Trackpoint>
          <Trackpoint>
            <Time>2022-07-14T18:41:07.000Z</Time>
            <Position>
              <LatitudeDegrees>43.38631692342460155487060546875</LatitudeDegrees>
              <LongitudeDegrees>-4.30366898886859416961669921875</LongitudeDegrees>
            </Position>
            <AltitudeMeters>90</AltitudeMeters>
            <DistanceMeters>NAN</DistanceMeters>
          </Trackpoint>
          <Trackpoint>
            <Time>2022-07-14T18:41:15.000Z</Time>
            <Position>
              <LatitudeDegrees>43.38651641272008419036865234375</LatitudeDegrees>
              <LongitudeDegrees>-4.3038020096719264984130859375</LongitudeDegrees>
            </Position>
            <AltitudeMeters>90</AltitudeMeters>
            <DistanceMeters>NAN</DistanceMeters>
          </Trackpoint>
          <Trackpoint>
            <Time>2022-07-14T18:41:20.000Z</Time>
            <Position>
              <LatitudeDegrees>43.3866182528436183929443359375</LatitudeDegrees>
              <LongitudeDegrees>-4.30386361666023731231689453125</LongitudeDegrees>
            </Position>
            <AltitudeMeters>90.59999847412109375</AltitudeMeters>
            <DistanceMeters>NAN</DistanceMeters>
          </Trackpoint>
          <Trackpoint>
            <Time>2022-07-14T18:41:22.000Z</Time>
            <Position>
              <LatitudeDegrees>43.3866512775421142578125</LatitudeDegrees>
              <LongitudeDegrees>-4.3038754351437091827392578125</LongitudeDegrees>
            </Position>
            <AltitudeMeters>91</AltitudeMeters>
            <DistanceMeters>NAN</DistanceMeters>
          </Trackpoint>
          <Trackpoint>
            <Time>2022-07-14T18:41:26.000Z</Time>
            <Position>
              <LatitudeDegrees>43.38671053759753704071044921875</LatitudeDegrees>
              <LongitudeDegrees>-4.3039096333086490631103515625</LongitudeDegrees>
            </Position>
            <AltitudeMeters>91.59999847412109375</AltitudeMeters>
            <DistanceMeters>NAN</DistanceMeters>
          </Trackpoint>
          <Trackpoint>
            <Time>2022-07-14T18:41:28.000Z</Time>
            <Position>
              <LatitudeDegrees>43.386744819581508636474609375</LatitudeDegrees>
              <LongitudeDegrees>-4.3039284087717533111572265625</LongitudeDegrees>
            </Position>
            <AltitudeMeters>92</AltitudeMeters>
            <DistanceMeters>NAN</DistanceMeters>
          </Trackpoint>
          <Trackpoint>
            <Time>2022-07-14T18:41:33.000Z</Time>
            <Position>
              <LatitudeDegrees>43.38681765832006931304931640625</LatitudeDegrees>
              <LongitudeDegrees>-4.30395648814737796783447265625</LongitudeDegrees>
            </Position>
            <AltitudeMeters>92.8000030517578125</AltitudeMeters>
            <DistanceMeters>NAN</DistanceMeters>
          </Trackpoint>
          <Trackpoint>
            <Time>2022-07-14T18:41:35.000Z</Time>
            <Position>
              <LatitudeDegrees>43.38685311377048492431640625</LatitudeDegrees>
              <LongitudeDegrees>-4.30396981537342071533203125</LongitudeDegrees>
            </Position>
            <AltitudeMeters>92.8000030517578125</AltitudeMeters>
            <DistanceMeters>NAN</DistanceMeters>
          </Trackpoint>
          <Trackpoint>
            <Time>2022-07-14T18:41:40.000Z</Time>
            <Position>
              <LatitudeDegrees>43.38694070465862751007080078125</LatitudeDegrees>
              <LongitudeDegrees>-4.3039984814822673797607421875</LongitudeDegrees>
            </Position>
            <AltitudeMeters>93.8000030517578125</AltitudeMeters>
            <DistanceMeters>NAN</DistanceMeters>
          </Trackpoint>
          <Trackpoint>
            <Time>2022-07-14T18:41:41.000Z</Time>
            <Position>
              <LatitudeDegrees>43.3869565464556217193603515625</LatitudeDegrees>
              <LongitudeDegrees>-4.30400543846189975738525390625</LongitudeDegrees>
            </Position>
            <AltitudeMeters>93.8000030517578125</AltitudeMeters>
            <DistanceMeters>NAN</DistanceMeters>
          </Trackpoint>
          <Trackpoint>
            <Time>2022-07-14T18:41:42.000Z</Time>
            <Position>
              <LatitudeDegrees>43.38697372935712337493896484375</LatitudeDegrees>
              <LongitudeDegrees>-4.3040152452886104583740234375</LongitudeDegrees>
            </Position>
            <AltitudeMeters>94</AltitudeMeters>
            <DistanceMeters>NAN</DistanceMeters>
          </Trackpoint>
          <Trackpoint>
            <Time>2022-07-14T18:41:48.000Z</Time>
            <Position>
              <LatitudeDegrees>43.38707565329968929290771484375</LatitudeDegrees>
              <LongitudeDegrees>-4.3040645308792591094970703125</LongitudeDegrees>
            </Position>
            <AltitudeMeters>95</AltitudeMeters>
            <DistanceMeters>NAN</DistanceMeters>
          </Trackpoint>
          <Trackpoint>
            <Time>2022-07-14T18:41:50.000Z</Time>
            <Position>
              <LatitudeDegrees>43.387104906141757965087890625</LatitudeDegrees>
              <LongitudeDegrees>-4.3040856532752513885498046875</LongitudeDegrees>
            </Position>
            <AltitudeMeters>95.1999969482421875</AltitudeMeters>
            <DistanceMeters>NAN</DistanceMeters>
          </Trackpoint>
          <Trackpoint>
            <Time>2022-07-14T18:41:57.000Z</Time>
            <Position>
              <LatitudeDegrees>43.38716559112071990966796875</LatitudeDegrees>
              <LongitudeDegrees>-4.3042579852044582366943359375</LongitudeDegrees>
            </Position>
            <AltitudeMeters>95.40000152587890625</AltitudeMeters>
            <DistanceMeters>NAN</DistanceMeters>
          </Trackpoint>
          <Trackpoint>
            <Time>2022-07-14T18:42:04.000Z</Time>
            <Position>
              <LatitudeDegrees>43.387116305530071258544921875</LatitudeDegrees>
              <LongitudeDegrees>-4.30446795187890529632568359375</LongitudeDegrees>
            </Position>
            <AltitudeMeters>95.40000152587890625</AltitudeMeters>
            <DistanceMeters>NAN</DistanceMeters>
          </Trackpoint>
          <Trackpoint>
            <Time>2022-07-14T18:42:10.000Z</Time>
            <Position>
              <LatitudeDegrees>43.387023769319057464599609375</LatitudeDegrees>
              <LongitudeDegrees>-4.3046732246875762939453125</LongitudeDegrees>
            </Position>
            <AltitudeMeters>95.40000152587890625</AltitudeMeters>
            <DistanceMeters>NAN</DistanceMeters>
          </Trackpoint>
          <Trackpoint>
            <Time>2022-07-14T18:42:12.000Z</Time>
            <Position>
              <LatitudeDegrees>43.3869897387921810150146484375</LatitudeDegrees>
              <LongitudeDegrees>-4.30474338121712207794189453125</LongitudeDegrees>
            </Position>
            <AltitudeMeters>95.1999969482421875</AltitudeMeters>
            <DistanceMeters>NAN</DistanceMeters>
          </Trackpoint>
          <Trackpoint>
            <Time>2022-07-14T18:42:20.000Z</Time>
            <Position>
              <LatitudeDegrees>43.3868760801851749420166015625</LatitudeDegrees>
              <LongitudeDegrees>-4.30503088049590587615966796875</LongitudeDegrees>
            </Position>
            <AltitudeMeters>95.1999969482421875</AltitudeMeters>
            <DistanceMeters>NAN</DistanceMeters>
          </Trackpoint>
          <Trackpoint>
            <Time>2022-07-14T18:42:23.000Z</Time>
            <Position>
              <LatitudeDegrees>43.3868214301764965057373046875</LatitudeDegrees>
              <LongitudeDegrees>-4.30512442253530025482177734375</LongitudeDegrees>
            </Position>
            <AltitudeMeters>95.1999969482421875</AltitudeMeters>
            <DistanceMeters>NAN</DistanceMeters>
          </Trackpoint>
          <Trackpoint>
            <Time>2022-07-14T18:42:28.000Z</Time>
            <Position>
              <LatitudeDegrees>43.38676854036748409271240234375</LatitudeDegrees>
              <LongitudeDegrees>-4.30520572699606418609619140625</LongitudeDegrees>
            </Position>
            <AltitudeMeters>95</AltitudeMeters>
            <DistanceMeters>NAN</DistanceMeters>
          </Trackpoint>
          <Trackpoint>
            <Time>2022-07-14T18:42:29.000Z</Time>
            <Position>
              <LatitudeDegrees>43.38676854036748409271240234375</LatitudeDegrees>
              <LongitudeDegrees>-4.30520572699606418609619140625</LongitudeDegrees>
            </Position>
            <AltitudeMeters>95.1999969482421875</AltitudeMeters>
            <DistanceMeters>NAN</DistanceMeters>
          </Trackpoint>
          <Trackpoint>
            <Time>2022-07-14T18:42:58.000Z</Time>
            <Position>
              <LatitudeDegrees>43.38672663085162639617919921875</LatitudeDegrees>
              <LongitudeDegrees>-4.30524914525449275970458984375</LongitudeDegrees>
            </Position>
            <AltitudeMeters>95.40000152587890625</AltitudeMeters>
            <DistanceMeters>NAN</DistanceMeters>
          </Trackpoint>
          <Trackpoint>
            <Time>2022-07-14T18:43:00.000Z</Time>
            <Position>
              <LatitudeDegrees>43.38668145239353179931640625</LatitudeDegrees>
              <LongitudeDegrees>-4.3052889592945575714111328125</LongitudeDegrees>
            </Position>
            <AltitudeMeters>95.40000152587890625</AltitudeMeters>
            <DistanceMeters>NAN</DistanceMeters>
          </Trackpoint>
          <Trackpoint>
            <Time>2022-07-14T18:43:07.000Z</Time>
            <Position>
              <LatitudeDegrees>43.3865572325885295867919921875</LatitudeDegrees>
              <LongitudeDegrees>-4.305396415293216705322265625</LongitudeDegrees>
            </Position>
            <AltitudeMeters>96.1999969482421875</AltitudeMeters>
            <DistanceMeters>NAN</DistanceMeters>
          </Trackpoint>
          <Trackpoint>
            <Time>2022-07-14T18:43:08.000Z</Time>
            <Position>
              <LatitudeDegrees>43.3865428157150745391845703125</LatitudeDegrees>
              <LongitudeDegrees>-4.305405132472515106201171875</LongitudeDegrees>
            </Position>
            <AltitudeMeters>96.40000152587890625</AltitudeMeters>
            <DistanceMeters>NAN</DistanceMeters>
          </Trackpoint>
          <Trackpoint>
            <Time>2022-07-14T18:43:09.000Z</Time>
            <Position>
              <LatitudeDegrees>43.38652990758419036865234375</LatitudeDegrees>
              <LongitudeDegrees>-4.30540789850056171417236328125</LongitudeDegrees>
            </Position>
            <AltitudeMeters>96.59999847412109375</AltitudeMeters>
            <DistanceMeters>NAN</DistanceMeters>
          </Trackpoint>
          <Trackpoint>
            <Time>2022-07-14T18:43:12.000Z</Time>
            <Position>
              <LatitudeDegrees>43.38651222176849842071533203125</LatitudeDegrees>
              <LongitudeDegrees>-4.30541158653795719146728515625</LongitudeDegrees>
            </Position>
            <AltitudeMeters>97</AltitudeMeters>
            <DistanceMeters>NAN</DistanceMeters>
          </Trackpoint>
          <Trackpoint>
            <Time>2022-07-14T18:43:13.000Z</Time>
            <Position>
              <LatitudeDegrees>43.38651222176849842071533203125</LatitudeDegrees>
              <LongitudeDegrees>-4.30541158653795719146728515625</LongitudeDegrees>
            </Position>
            <AltitudeMeters>97</AltitudeMeters>
            <DistanceMeters>NAN</DistanceMeters>
          </Trackpoint>
          <Trackpoint>
            <Time>2022-07-14T18:44:22.000Z</Time>
            <Position>
              <LatitudeDegrees>43.3865280635654926300048828125</LatitudeDegrees>
              <LongitudeDegrees>-4.3054827488958835601806640625</LongitudeDegrees>
            </Position>
            <AltitudeMeters>97.1999969482421875</AltitudeMeters>
            <DistanceMeters>NAN</DistanceMeters>
          </Trackpoint>
          <Trackpoint>
            <Time>2022-07-14T18:44:23.000Z</Time>
            <Position>
              <LatitudeDegrees>43.38653116486966609954833984375</LatitudeDegrees>
              <LongitudeDegrees>-4.30550915189087390899658203125</LongitudeDegrees>
            </Position>
            <AltitudeMeters>97.1999969482421875</AltitudeMeters>
            <DistanceMeters>NAN</DistanceMeters>
          </Trackpoint>
          <Trackpoint>
            <Time>2022-07-14T18:44:24.000Z</Time>
            <Position>
              <LatitudeDegrees>43.386534936726093292236328125</LatitudeDegrees>
              <LongitudeDegrees>-4.30553362704813480377197265625</LongitudeDegrees>
            </Position>
            <AltitudeMeters>97.40000152587890625</AltitudeMeters>
            <DistanceMeters>NAN</DistanceMeters>
          </Trackpoint>
          <Trackpoint>
            <Time>2022-07-14T18:44:25.000Z</Time>
            <Position>
              <LatitudeDegrees>43.38653803803026676177978515625</LatitudeDegrees>
              <LongitudeDegrees>-4.30555424652993679046630859375</LongitudeDegrees>
            </Position>
            <AltitudeMeters>98</AltitudeMeters>
            <DistanceMeters>NAN</DistanceMeters>
          </Trackpoint>
          <Trackpoint>
            <Time>2022-07-14T18:44:28.000Z</Time>
            <Position>
              <LatitudeDegrees>43.38655446656048297882080078125</LatitudeDegrees>
              <LongitudeDegrees>-4.30562674999237060546875</LongitudeDegrees>
            </Position>
            <AltitudeMeters>98.59999847412109375</AltitudeMeters>
            <DistanceMeters>NAN</DistanceMeters>
          </Trackpoint>
          <Trackpoint>
            <Time>2022-07-14T18:44:33.000Z</Time>
            <Position>
              <LatitudeDegrees>43.3865706436336040496826171875</LatitudeDegrees>
              <LongitudeDegrees>-4.30578240193426609039306640625</LongitudeDegrees>
            </Position>
            <AltitudeMeters>98.8000030517578125</AltitudeMeters>
            <DistanceMeters>NAN</DistanceMeters>
          </Trackpoint>
          <Trackpoint>
            <Time>2022-07-14T18:44:42.000Z</Time>
            <Position>
              <LatitudeDegrees>43.38665069080889225006103515625</LatitudeDegrees>
              <LongitudeDegrees>-4.30603788234293460845947265625</LongitudeDegrees>
            </Position>
            <AltitudeMeters>99.59999847412109375</AltitudeMeters>
            <DistanceMeters>NAN</DistanceMeters>
          </Trackpoint>
          <Trackpoint>
            <Time>2022-07-14T18:44:46.000Z</Time>
            <Position>
              <LatitudeDegrees>43.3866983838379383087158203125</LatitudeDegrees>
              <LongitudeDegrees>-4.30612421594560146331787109375</LongitudeDegrees>
            </Position>
            <AltitudeMeters>101</AltitudeMeters>
            <DistanceMeters>NAN</DistanceMeters>
          </Trackpoint>
          <Trackpoint>
            <Time>2022-07-14T18:44:48.000Z</Time>
            <Position>
              <LatitudeDegrees>43.38671674020588397979736328125</LatitudeDegrees>
              <LongitudeDegrees>-4.30616947822272777557373046875</LongitudeDegrees>
            </Position>
            <AltitudeMeters>101.40000152587890625</AltitudeMeters>
            <DistanceMeters>NAN</DistanceMeters>
          </Trackpoint>
          <Trackpoint>
            <Time>2022-07-14T18:44:51.000Z</Time>
            <Position>
              <LatitudeDegrees>43.3867389522492885589599609375</LatitudeDegrees>
              <LongitudeDegrees>-4.3062398023903369903564453125</LongitudeDegrees>
            </Position>
            <AltitudeMeters>101.59999847412109375</AltitudeMeters>
            <DistanceMeters>NAN</DistanceMeters>
          </Trackpoint>
          <Trackpoint>
            <Time>2022-07-14T18:44:54.000Z</Time>
            <Position>
              <LatitudeDegrees>43.38676191866397857666015625</LatitudeDegrees>
              <LongitudeDegrees>-4.306299984455108642578125</LongitudeDegrees>
            </Position>
            <AltitudeMeters>101.59999847412109375</AltitudeMeters>
            <DistanceMeters>NAN</DistanceMeters>
          </Trackpoint>
          <Trackpoint>
            <Time>2022-07-14T18:44:55.000Z</Time>
            <Position>
              <LatitudeDegrees>43.38676770217716693878173828125</LatitudeDegrees>
              <LongitudeDegrees>-4.30631683208048343658447265625</LongitudeDegrees>
            </Position>
            <AltitudeMeters>101.59999847412109375</AltitudeMeters>
            <DistanceMeters>NAN</DistanceMeters>
          </Trackpoint>
          <Trackpoint>
            <Time>2022-07-14T18:45:00.000Z</Time>
            <Position>
              <LatitudeDegrees>43.3868214301764965057373046875</LatitudeDegrees>
              <LongitudeDegrees>-4.3064087815582752227783203125</LongitudeDegrees>
            </Position>
            <AltitudeMeters>102</AltitudeMeters>
            <DistanceMeters>NAN</DistanceMeters>
          </Trackpoint>
          <Trackpoint>
            <Time>2022-07-14T18:45:01.000Z</Time>
            <Position>
              <LatitudeDegrees>43.386833332479000091552734375</LatitudeDegrees>
              <LongitudeDegrees>-4.30642982013523578643798828125</LongitudeDegrees>
            </Position>
            <AltitudeMeters>102</AltitudeMeters>
            <DistanceMeters>NAN</DistanceMeters>
          </Trackpoint>
          <Trackpoint>
            <Time>2022-07-14T18:45:03.000Z</Time>
            <Position>
              <LatitudeDegrees>43.3868532814085483551025390625</LatitudeDegrees>
              <LongitudeDegrees>-4.30646720342338085174560546875</LongitudeDegrees>
            </Position>
            <AltitudeMeters>102.1999969482421875</AltitudeMeters>
            <DistanceMeters>NAN</DistanceMeters>
          </Trackpoint>
          <Trackpoint>
            <Time>2022-07-14T18:45:10.000Z</Time>
            <Position>
              <LatitudeDegrees>43.38693282566964626312255859375</LatitudeDegrees>
              <LongitudeDegrees>-4.3065905012190341949462890625</LongitudeDegrees>
            </Position>
            <AltitudeMeters>103</AltitudeMeters>
            <DistanceMeters>NAN</DistanceMeters>
          </Trackpoint>
          <Trackpoint>
            <Time>2022-07-14T18:45:12.000Z</Time>
            <Position>
              <LatitudeDegrees>43.3869531936943531036376953125</LatitudeDegrees>
              <LongitudeDegrees>-4.3066166527569293975830078125</LongitudeDegrees>
            </Position>
            <AltitudeMeters>103</AltitudeMeters>
            <DistanceMeters>NAN</DistanceMeters>
          </Trackpoint>
          <Trackpoint>
            <Time>2022-07-14T18:45:15.000Z</Time>
            <Position>
              <LatitudeDegrees>43.38698177598416805267333984375</LatitudeDegrees>
              <LongitudeDegrees>-4.306687228381633758544921875</LongitudeDegrees>
            </Position>
            <AltitudeMeters>103.40000152587890625</AltitudeMeters>
            <DistanceMeters>NAN</DistanceMeters>
          </Trackpoint>
          <Trackpoint>
            <Time>2022-07-14T18:45:18.000Z</Time>
            <Position>
              <LatitudeDegrees>43.38700608350336551666259765625</LatitudeDegrees>
              <LongitudeDegrees>-4.306752271950244903564453125</LongitudeDegrees>
            </Position>
            <AltitudeMeters>103.8000030517578125</AltitudeMeters>
            <DistanceMeters>NAN</DistanceMeters>
          </Trackpoint>
          <Trackpoint>
            <Time>2022-07-14T18:45:20.000Z</Time>
            <Position>
              <LatitudeDegrees>43.38702519424259662628173828125</LatitudeDegrees>
              <LongitudeDegrees>-4.306794516742229461669921875</LongitudeDegrees>
            </Position>
            <AltitudeMeters>104.1999969482421875</AltitudeMeters>
            <DistanceMeters>NAN</DistanceMeters>
          </Trackpoint>
          <Trackpoint>
            <Time>2022-07-14T18:45:25.000Z</Time>
            <Position>
              <LatitudeDegrees>43.387061320245265960693359375</LatitudeDegrees>
              <LongitudeDegrees>-4.30688696913421154022216796875</LongitudeDegrees>
            </Position>
            <AltitudeMeters>105</AltitudeMeters>
            <DistanceMeters>NAN</DistanceMeters>
          </Trackpoint>
          <Trackpoint>
            <Time>2022-07-14T18:45:26.000Z</Time>
            <Position>
              <LatitudeDegrees>43.38706894777715206146240234375</LatitudeDegrees>
              <LongitudeDegrees>-4.306900463998317718505859375</LongitudeDegrees>
            </Position>
            <AltitudeMeters>105.1999969482421875</AltitudeMeters>
            <DistanceMeters>NAN</DistanceMeters>
          </Trackpoint>
          <Trackpoint>
            <Time>2022-07-14T18:45:30.000Z</Time>
            <Position>
              <LatitudeDegrees>43.38709945790469646453857421875</LatitudeDegrees>
              <LongitudeDegrees>-4.306962154805660247802734375</LongitudeDegrees>
            </Position>
            <AltitudeMeters>106.1999969482421875</AltitudeMeters>
            <DistanceMeters>NAN</DistanceMeters>
          </Trackpoint>
          <Trackpoint>
            <Time>2022-07-14T18:45:33.000Z</Time>
            <Position>
              <LatitudeDegrees>43.38711731135845184326171875</LatitudeDegrees>
              <LongitudeDegrees>-4.30702024139463901519775390625</LongitudeDegrees>
            </Position>
            <AltitudeMeters>107.40000152587890625</AltitudeMeters>
            <DistanceMeters>NAN</DistanceMeters>
          </Trackpoint>
          <Trackpoint>
            <Time>2022-07-14T18:45:35.000Z</Time>
            <Position>
              <LatitudeDegrees>43.3871235139667987823486328125</LatitudeDegrees>
              <LongitudeDegrees>-4.3070568703114986419677734375</LongitudeDegrees>
            </Position>
            <AltitudeMeters>108</AltitudeMeters>
            <DistanceMeters>NAN</DistanceMeters>
          </Trackpoint>
          <Trackpoint>
            <Time>2022-07-14T18:45:37.000Z</Time>
            <Position>
              <LatitudeDegrees>43.3871265314519405364990234375</LatitudeDegrees>
              <LongitudeDegrees>-4.3070967681705951690673828125</LongitudeDegrees>
            </Position>
            <AltitudeMeters>108.40000152587890625</AltitudeMeters>
            <DistanceMeters>NAN</DistanceMeters>
          </Trackpoint>
          <Trackpoint>
            <Time>2022-07-14T18:45:42.000Z</Time>
            <Position>
              <LatitudeDegrees>43.38712133467197418212890625</LatitudeDegrees>
              <LongitudeDegrees>-4.30718838237226009368896484375</LongitudeDegrees>
            </Position>
            <AltitudeMeters>109.40000152587890625</AltitudeMeters>
            <DistanceMeters>NAN</DistanceMeters>
          </Trackpoint>
          <Trackpoint>
            <Time>2022-07-14T18:45:43.000Z</Time>
            <Position>
              <LatitudeDegrees>43.38711923919618129730224609375</LatitudeDegrees>
              <LongitudeDegrees>-4.307206235826015472412109375</LongitudeDegrees>
            </Position>
            <AltitudeMeters>109.40000152587890625</AltitudeMeters>
            <DistanceMeters>NAN</DistanceMeters>
          </Trackpoint>
          <Trackpoint>
            <Time>2022-07-14T18:45:47.000Z</Time>
            <Position>
              <LatitudeDegrees>43.38711974211037158966064453125</LatitudeDegrees>
              <LongitudeDegrees>-4.30723607540130615234375</LongitudeDegrees>
            </Position>
            <AltitudeMeters>110</AltitudeMeters>
            <DistanceMeters>NAN</DistanceMeters>
          </Trackpoint>
          <Trackpoint>
            <Time>2022-07-14T18:46:17.000Z</Time>
            <Position>
              <LatitudeDegrees>43.38705285452306270599365234375</LatitudeDegrees>
              <LongitudeDegrees>-4.30742508731782436370849609375</LongitudeDegrees>
            </Position>
            <AltitudeMeters>111</AltitudeMeters>
            <DistanceMeters>NAN</DistanceMeters>
          </Trackpoint>
          <Trackpoint>
            <Time>2022-07-14T18:46:18.000Z</Time>
            <Position>
              <LatitudeDegrees>43.38705025613307952880859375</LatitudeDegrees>
              <LongitudeDegrees>-4.30744721554219722747802734375</LongitudeDegrees>
            </Position>
            <AltitudeMeters>111</AltitudeMeters>
            <DistanceMeters>NAN</DistanceMeters>
          </Trackpoint>
          <Trackpoint>
            <Time>2022-07-14T18:46:20.000Z</Time>
            <Position>
              <LatitudeDegrees>43.3870415389537811279296875</LatitudeDegrees>
              <LongitudeDegrees>-4.30748887360095977783203125</LongitudeDegrees>
            </Position>
            <AltitudeMeters>111.1999969482421875</AltitudeMeters>
            <DistanceMeters>NAN</DistanceMeters>
          </Trackpoint>
          <Trackpoint>
            <Time>2022-07-14T18:46:24.000Z</Time>
            <Position>
              <LatitudeDegrees>43.3870128728449344635009765625</LatitudeDegrees>
              <LongitudeDegrees>-4.3075718544423580169677734375</LongitudeDegrees>
            </Position>
            <AltitudeMeters>111.59999847412109375</AltitudeMeters>
            <DistanceMeters>NAN</DistanceMeters>
          </Trackpoint>
          <Trackpoint>
            <Time>2022-07-14T18:46:29.000Z</Time>
            <Position>
              <LatitudeDegrees>43.38700206018984317779541015625</LatitudeDegrees>
              <LongitudeDegrees>-4.307664893567562103271484375</LongitudeDegrees>
            </Position>
            <AltitudeMeters>112.1999969482421875</AltitudeMeters>
            <DistanceMeters>NAN</DistanceMeters>
          </Trackpoint>
          <Trackpoint>
            <Time>2022-07-14T18:46:33.000Z</Time>
            <Position>
              <LatitudeDegrees>43.3870028145611286163330078125</LatitudeDegrees>
              <LongitudeDegrees>-4.30774259380996227264404296875</LongitudeDegrees>
            </Position>
            <AltitudeMeters>112.8000030517578125</AltitudeMeters>
            <DistanceMeters>NAN</DistanceMeters>
          </Trackpoint>
          <Trackpoint>
            <Time>2022-07-14T18:46:36.000Z</Time>
            <Position>
              <LatitudeDegrees>43.38699929416179656982421875</LatitudeDegrees>
              <LongitudeDegrees>-4.30780713446438312530517578125</LongitudeDegrees>
            </Position>
            <AltitudeMeters>113.1999969482421875</AltitudeMeters>
            <DistanceMeters>NAN</DistanceMeters>
          </Trackpoint>
          <Trackpoint>
            <Time>2022-07-14T18:46:37.000Z</Time>
            <Position>
              <LatitudeDegrees>43.3870001323521137237548828125</LatitudeDegrees>
              <LongitudeDegrees>-4.30782951414585113525390625</LongitudeDegrees>
            </Position>
            <AltitudeMeters>113.1999969482421875</AltitudeMeters>
            <DistanceMeters>NAN</DistanceMeters>
          </Trackpoint>
          <Trackpoint>
            <Time>2022-07-14T18:46:43.000Z</Time>
            <Position>
              <LatitudeDegrees>43.3870147168636322021484375</LatitudeDegrees>
              <LongitudeDegrees>-4.3079321086406707763671875</LongitudeDegrees>
            </Position>
            <AltitudeMeters>113.8000030517578125</AltitudeMeters>
            <DistanceMeters>NAN</DistanceMeters>
          </Trackpoint>
          <Trackpoint>
            <Time>2022-07-14T18:46:49.000Z</Time>
            <Position>
              <LatitudeDegrees>43.38702536188066005706787109375</LatitudeDegrees>
              <LongitudeDegrees>-4.3080385588109493255615234375</LongitudeDegrees>
            </Position>
            <AltitudeMeters>114.1999969482421875</AltitudeMeters>
            <DistanceMeters>NAN</DistanceMeters>
          </Trackpoint>
          <Trackpoint>
            <Time>2022-07-14T18:46:50.000Z</Time>
            <Position>
              <LatitudeDegrees>43.387025110423564910888671875</LatitudeDegrees>
              <LongitudeDegrees>-4.30805758573114871978759765625</LongitudeDegrees>
            </Position>
            <AltitudeMeters>114.1999969482421875</AltitudeMeters>
            <DistanceMeters>NAN</DistanceMeters>
          </Trackpoint>
          <Trackpoint>
            <Time>2022-07-14T18:46:52.000Z</Time>
            <Position>
              <LatitudeDegrees>43.38703416287899017333984375</LatitudeDegrees>
              <LongitudeDegrees>-4.30809228681027889251708984375</LongitudeDegrees>
            </Position>
            <AltitudeMeters>114.40000152587890625</AltitudeMeters>
            <DistanceMeters>NAN</DistanceMeters>
          </Trackpoint>
          <Trackpoint>
            <Time>2022-07-14T18:46:56.000Z</Time>
            <Position>
              <LatitudeDegrees>43.3870594762265682220458984375</LatitudeDegrees>
              <LongitudeDegrees>-4.3081622757017612457275390625</LongitudeDegrees>
            </Position>
            <AltitudeMeters>114.59999847412109375</AltitudeMeters>
            <DistanceMeters>NAN</DistanceMeters>
          </Trackpoint>
          <Trackpoint>
            <Time>2022-07-14T18:47:03.000Z</Time>
            <Position>
              <LatitudeDegrees>43.38712091557681560516357421875</LatitudeDegrees>
              <LongitudeDegrees>-4.308399818837642669677734375</LongitudeDegrees>
            </Position>
            <AltitudeMeters>114.40000152587890625</AltitudeMeters>
            <DistanceMeters>NAN</DistanceMeters>
          </Trackpoint>
          <Trackpoint>
            <Time>2022-07-14T18:47:08.000Z</Time>
            <Position>
              <LatitudeDegrees>43.38719484396278858184814453125</LatitudeDegrees>
              <LongitudeDegrees>-4.3085726536810398101806640625</LongitudeDegrees>
            </Position>
            <AltitudeMeters>113.8000030517578125</AltitudeMeters>
            <DistanceMeters>NAN</DistanceMeters>
          </Trackpoint>
          <Trackpoint>
            <Time>2022-07-14T18:47:09.000Z</Time>
            <Position>
              <LatitudeDegrees>43.38720506988465785980224609375</LatitudeDegrees>
              <LongitudeDegrees>-4.3086091987788677215576171875</LongitudeDegrees>
            </Position>
            <AltitudeMeters>113.8000030517578125</AltitudeMeters>
            <DistanceMeters>NAN</DistanceMeters>
          </Trackpoint>
          <Trackpoint>
            <Time>2022-07-14T18:47:12.000Z</Time>
            <Position>
              <LatitudeDegrees>43.3872177265584468841552734375</LatitudeDegrees>
              <LongitudeDegrees>-4.30870617739856243133544921875</LongitudeDegrees>
            </Position>
            <AltitudeMeters>113</AltitudeMeters>
            <DistanceMeters>NAN</DistanceMeters>
          </Trackpoint>
          <Trackpoint>
            <Time>2022-07-14T18:47:16.000Z</Time>
            <Position>
              <LatitudeDegrees>43.3872284553945064544677734375</LatitudeDegrees>
              <LongitudeDegrees>-4.30883442051708698272705078125</LongitudeDegrees>
            </Position>
            <AltitudeMeters>112.8000030517578125</AltitudeMeters>
            <DistanceMeters>NAN</DistanceMeters>
          </Trackpoint>
          <Trackpoint>
            <Time>2022-07-14T18:47:20.000Z</Time>
            <Position>
              <LatitudeDegrees>43.38722887448966503143310546875</LatitudeDegrees>
              <LongitudeDegrees>-4.30892930366098880767822265625</LongitudeDegrees>
            </Position>
            <AltitudeMeters>112.1999969482421875</AltitudeMeters>
            <DistanceMeters>NAN</DistanceMeters>
          </Trackpoint>
          <Trackpoint>
            <Time>2022-07-14T18:47:21.000Z</Time>
            <Position>
              <LatitudeDegrees>43.38722904212772846221923828125</LatitudeDegrees>
              <LongitudeDegrees>-4.3089508451521396636962890625</LongitudeDegrees>
            </Position>
            <AltitudeMeters>112</AltitudeMeters>
            <DistanceMeters>NAN</DistanceMeters>
          </Trackpoint>
          <Trackpoint>
            <Time>2022-07-14T18:47:24.000Z</Time>
            <Position>
              <LatitudeDegrees>43.38723356835544109344482421875</LatitudeDegrees>
              <LongitudeDegrees>-4.30902175605297088623046875</LongitudeDegrees>
            </Position>
            <AltitudeMeters>111.8000030517578125</AltitudeMeters>
            <DistanceMeters>NAN</DistanceMeters>
          </Trackpoint>
          <Trackpoint>
            <Time>2022-07-14T18:47:27.000Z</Time>
            <Position>
              <LatitudeDegrees>43.3872427046298980712890625</LatitudeDegrees>
              <LongitudeDegrees>-4.30910482071340084075927734375</LongitudeDegrees>
            </Position>
            <AltitudeMeters>111.40000152587890625</AltitudeMeters>
            <DistanceMeters>NAN</DistanceMeters>
          </Trackpoint>
          <Trackpoint>
            <Time>2022-07-14T18:47:30.000Z</Time>
            <Position>
              <LatitudeDegrees>43.3872499130666255950927734375</LatitudeDegrees>
              <LongitudeDegrees>-4.30919232778251171112060546875</LongitudeDegrees>
            </Position>
            <AltitudeMeters>111</AltitudeMeters>
            <DistanceMeters>NAN</DistanceMeters>
          </Trackpoint>
          <Trackpoint>
            <Time>2022-07-14T18:47:31.000Z</Time>
            <Position>
              <LatitudeDegrees>43.3872522599995136260986328125</LatitudeDegrees>
              <LongitudeDegrees>-4.309223257005214691162109375</LongitudeDegrees>
            </Position>
            <AltitudeMeters>111</AltitudeMeters>
            <DistanceMeters>NAN</DistanceMeters>
          </Trackpoint>
          <Trackpoint>
            <Time>2022-07-14T18:47:32.000Z</Time>
            <Position>
              <LatitudeDegrees>43.38725552894175052642822265625</LatitudeDegrees>
              <LongitudeDegrees>-4.3092515878379344940185546875</LongitudeDegrees>
            </Position>
            <AltitudeMeters>110.59999847412109375</AltitudeMeters>
            <DistanceMeters>NAN</DistanceMeters>
          </Trackpoint>
          <Trackpoint>
            <Time>2022-07-14T18:47:34.000Z</Time>
            <Position>
              <LatitudeDegrees>43.3872643299400806427001953125</LatitudeDegrees>
              <LongitudeDegrees>-4.3092948384582996368408203125</LongitudeDegrees>
            </Position>
            <AltitudeMeters>110</AltitudeMeters>
            <DistanceMeters>NAN</DistanceMeters>
          </Trackpoint>
          <Trackpoint>
            <Time>2022-07-14T18:47:35.000Z</Time>
            <Position>
              <LatitudeDegrees>43.3872713707387447357177734375</LatitudeDegrees>
              <LongitudeDegrees>-4.309308417141437530517578125</LongitudeDegrees>
            </Position>
            <AltitudeMeters>109.8000030517578125</AltitudeMeters>
            <DistanceMeters>NAN</DistanceMeters>
          </Trackpoint>
          <Trackpoint>
            <Time>2022-07-14T18:47:36.000Z</Time>
            <Position>
              <LatitudeDegrees>43.38728000409901142120361328125</LatitudeDegrees>
              <LongitudeDegrees>-4.30932140909135341644287109375</LongitudeDegrees>
            </Position>
            <AltitudeMeters>109.8000030517578125</AltitudeMeters>
            <DistanceMeters>NAN</DistanceMeters>
          </Trackpoint>
          <Trackpoint>
            <Time>2022-07-14T18:47:39.000Z</Time>
            <Position>
              <LatitudeDegrees>43.38729408569633960723876953125</LatitudeDegrees>
              <LongitudeDegrees>-4.309328533709049224853515625</LongitudeDegrees>
            </Position>
            <AltitudeMeters>109.40000152587890625</AltitudeMeters>
            <DistanceMeters>NAN</DistanceMeters>
          </Trackpoint>
          <Trackpoint>
            <Time>2022-07-14T18:47:40.000Z</Time>
            <Position>
              <LatitudeDegrees>43.38729408569633960723876953125</LatitudeDegrees>
              <LongitudeDegrees>-4.309328533709049224853515625</LongitudeDegrees>
            </Position>
            <AltitudeMeters>109.40000152587890625</AltitudeMeters>
            <DistanceMeters>NAN</DistanceMeters>
          </Trackpoint>
          <Trackpoint>
            <Time>2022-07-14T18:47:49.000Z</Time>
            <Position>
              <LatitudeDegrees>43.38735627941787242889404296875</LatitudeDegrees>
              <LongitudeDegrees>-4.30925250984728336334228515625</LongitudeDegrees>
            </Position>
            <AltitudeMeters>109.1999969482421875</AltitudeMeters>
            <DistanceMeters>NAN</DistanceMeters>
          </Trackpoint>
          <Trackpoint>
            <Time>2022-07-14T18:47:52.000Z</Time>
            <Position>
              <LatitudeDegrees>43.3873903937637805938720703125</LatitudeDegrees>
              <LongitudeDegrees>-4.30924479849636554718017578125</LongitudeDegrees>
            </Position>
            <AltitudeMeters>109.1999969482421875</AltitudeMeters>
            <DistanceMeters>NAN</DistanceMeters>
          </Trackpoint>
          <Trackpoint>
            <Time>2022-07-14T18:47:57.000Z</Time>
            <Position>
              <LatitudeDegrees>43.38740841485559940338134765625</LatitudeDegrees>
              <LongitudeDegrees>-4.30923976935446262359619140625</LongitudeDegrees>
            </Position>
            <AltitudeMeters>106.8000030517578125</AltitudeMeters>
            <DistanceMeters>NAN</DistanceMeters>
          </Trackpoint>
          <Trackpoint>
            <Time>2022-07-14T18:48:13.000Z</Time>
            <Position>
              <LatitudeDegrees>43.38734840042889118194580078125</LatitudeDegrees>
              <LongitudeDegrees>-4.30926583707332611083984375</LongitudeDegrees>
            </Position>
            <AltitudeMeters>104.40000152587890625</AltitudeMeters>
            <DistanceMeters>NAN</DistanceMeters>
          </Trackpoint>
          <Trackpoint>
            <Time>2022-07-14T18:48:19.000Z</Time>
            <Position>
              <LatitudeDegrees>43.38726240210235118865966796875</LatitudeDegrees>
              <LongitudeDegrees>-4.30940204299986362457275390625</LongitudeDegrees>
            </Position>
            <AltitudeMeters>104.59999847412109375</AltitudeMeters>
            <DistanceMeters>NAN</DistanceMeters>
          </Trackpoint>
          <Trackpoint>
            <Time>2022-07-14T18:48:26.000Z</Time>
            <Position>
              <LatitudeDegrees>43.38718646205961704254150390625</LatitudeDegrees>
              <LongitudeDegrees>-4.3095939047634601593017578125</LongitudeDegrees>
            </Position>
            <AltitudeMeters>104.59999847412109375</AltitudeMeters>
            <DistanceMeters>NAN</DistanceMeters>
          </Trackpoint>
          <Trackpoint>
            <Time>2022-07-14T18:48:34.000Z</Time>
            <Position>
              <LatitudeDegrees>43.38711890392005443572998046875</LatitudeDegrees>
              <LongitudeDegrees>-4.309791214764118194580078125</LongitudeDegrees>
            </Position>
            <AltitudeMeters>105</AltitudeMeters>
            <DistanceMeters>NAN</DistanceMeters>
          </Trackpoint>
          <Trackpoint>
            <Time>2022-07-14T18:48:39.000Z</Time>
            <Position>
              <LatitudeDegrees>43.387069366872310638427734375</LatitudeDegrees>
              <LongitudeDegrees>-4.30988014675676822662353515625</LongitudeDegrees>
            </Position>
            <AltitudeMeters>105</AltitudeMeters>
            <DistanceMeters>NAN</DistanceMeters>
          </Trackpoint>
          <Trackpoint>
            <Time>2022-07-14T18:48:49.000Z</Time>
            <Position>
              <LatitudeDegrees>43.38692042045295238494873046875</LatitudeDegrees>
              <LongitudeDegrees>-4.31007578037679195404052734375</LongitudeDegrees>
            </Position>
            <AltitudeMeters>105.1999969482421875</AltitudeMeters>
            <DistanceMeters>NAN</DistanceMeters>
          </Trackpoint>
          <Trackpoint>
            <Time>2022-07-14T18:48:56.000Z</Time>
            <Position>
              <LatitudeDegrees>43.386848084628582000732421875</LatitudeDegrees>
              <LongitudeDegrees>-4.310237132012844085693359375</LongitudeDegrees>
            </Position>
            <AltitudeMeters>105.40000152587890625</AltitudeMeters>
            <DistanceMeters>NAN</DistanceMeters>
          </Trackpoint>
          <Trackpoint>
            <Time>2022-07-14T18:49:05.000Z</Time>
            <Position>
              <LatitudeDegrees>43.38677289895713329315185546875</LatitudeDegrees>
              <LongitudeDegrees>-4.3104706518352031707763671875</LongitudeDegrees>
            </Position>
            <AltitudeMeters>105.40000152587890625</AltitudeMeters>
            <DistanceMeters>NAN</DistanceMeters>
          </Trackpoint>
          <Trackpoint>
            <Time>2022-07-14T18:49:07.000Z</Time>
            <Position>
              <LatitudeDegrees>43.38675730861723423004150390625</LatitudeDegrees>
              <LongitudeDegrees>-4.31052890606224536895751953125</LongitudeDegrees>
            </Position>
            <AltitudeMeters>105.59999847412109375</AltitudeMeters>
            <DistanceMeters>NAN</DistanceMeters>
          </Trackpoint>
          <Trackpoint>
            <Time>2022-07-14T18:49:09.000Z</Time>
            <Position>
              <LatitudeDegrees>43.38673417456448078155517578125</LatitudeDegrees>
              <LongitudeDegrees>-4.310580790042877197265625</LongitudeDegrees>
            </Position>
            <AltitudeMeters>105.40000152587890625</AltitudeMeters>
            <DistanceMeters>NAN</DistanceMeters>
          </Trackpoint>
          <Trackpoint>
            <Time>2022-07-14T18:49:14.000Z</Time>
            <Position>
              <LatitudeDegrees>43.38663493283092975616455078125</LatitudeDegrees>
              <LongitudeDegrees>-4.31072789244353771209716796875</LongitudeDegrees>
            </Position>
            <AltitudeMeters>105.1999969482421875</AltitudeMeters>
            <DistanceMeters>NAN</DistanceMeters>
          </Trackpoint>
          <Trackpoint>
            <Time>2022-07-14T18:49:17.000Z</Time>
            <Position>
              <LatitudeDegrees>43.3865614235401153564453125</LatitudeDegrees>
              <LongitudeDegrees>-4.3108243681490421295166015625</LongitudeDegrees>
            </Position>
            <AltitudeMeters>104.59999847412109375</AltitudeMeters>
            <DistanceMeters>NAN</DistanceMeters>
          </Trackpoint>
          <Trackpoint>
            <Time>2022-07-14T18:49:18.000Z</Time>
            <Position>
              <LatitudeDegrees>43.3865317516028881072998046875</LatitudeDegrees>
              <LongitudeDegrees>-4.310858063399791717529296875</LongitudeDegrees>
            </Position>
            <AltitudeMeters>104.40000152587890625</AltitudeMeters>
            <DistanceMeters>NAN</DistanceMeters>
          </Trackpoint>
          <Trackpoint>
            <Time>2022-07-14T18:49:21.000Z</Time>
            <Position>
              <LatitudeDegrees>43.38643326424062252044677734375</LatitudeDegrees>
              <LongitudeDegrees>-4.31095386855304241180419921875</LongitudeDegrees>
            </Position>
            <AltitudeMeters>103.8000030517578125</AltitudeMeters>
            <DistanceMeters>NAN</DistanceMeters>
          </Trackpoint>
          <Trackpoint>
            <Time>2022-07-14T18:49:24.000Z</Time>
            <Position>
              <LatitudeDegrees>43.38634751737117767333984375</LatitudeDegrees>
              <LongitudeDegrees>-4.31104774586856365203857421875</LongitudeDegrees>
            </Position>
            <AltitudeMeters>103.40000152587890625</AltitudeMeters>
            <DistanceMeters>NAN</DistanceMeters>
          </Trackpoint>
          <Trackpoint>
            <Time>2022-07-14T18:49:30.000Z</Time>
            <Position>
              <LatitudeDegrees>43.38614542968571186065673828125</LatitudeDegrees>
              <LongitudeDegrees>-4.31123726069927215576171875</LongitudeDegrees>
            </Position>
            <AltitudeMeters>102</AltitudeMeters>
            <DistanceMeters>NAN</DistanceMeters>
          </Trackpoint>
          <Trackpoint>
            <Time>2022-07-14T18:49:36.000Z</Time>
            <Position>
              <LatitudeDegrees>43.38597242720425128936767578125</LatitudeDegrees>
              <LongitudeDegrees>-4.3114620633423328399658203125</LongitudeDegrees>
            </Position>
            <AltitudeMeters>101</AltitudeMeters>
            <DistanceMeters>NAN</DistanceMeters>
          </Trackpoint>
          <Trackpoint>
            <Time>2022-07-14T18:49:42.000Z</Time>
            <Position>
              <LatitudeDegrees>43.3858776278793811798095703125</LatitudeDegrees>
              <LongitudeDegrees>-4.3117649853229522705078125</LongitudeDegrees>
            </Position>
            <AltitudeMeters>99.8000030517578125</AltitudeMeters>
            <DistanceMeters>NAN</DistanceMeters>
          </Trackpoint>
          <Trackpoint>
            <Time>2022-07-14T18:49:43.000Z</Time>
            <Position>
              <LatitudeDegrees>43.3858648873865604400634765625</LatitudeDegrees>
              <LongitudeDegrees>-4.3118087388575077056884765625</LongitudeDegrees>
            </Position>
            <AltitudeMeters>99.8000030517578125</AltitudeMeters>
            <DistanceMeters>NAN</DistanceMeters>
          </Trackpoint>
          <Trackpoint>
            <Time>2022-07-14T18:49:46.000Z</Time>
            <Position>
              <LatitudeDegrees>43.38582188822329044342041015625</LatitudeDegrees>
              <LongitudeDegrees>-4.31195466779172420501708984375</LongitudeDegrees>
            </Position>
            <AltitudeMeters>99.40000152587890625</AltitudeMeters>
            <DistanceMeters>NAN</DistanceMeters>
          </Trackpoint>
          <Trackpoint>
            <Time>2022-07-14T18:49:48.000Z</Time>
            <Position>
              <LatitudeDegrees>43.38580110110342502593994140625</LatitudeDegrees>
              <LongitudeDegrees>-4.3120283447206020355224609375</LongitudeDegrees>
            </Position>
            <AltitudeMeters>99.1999969482421875</AltitudeMeters>
            <DistanceMeters>NAN</DistanceMeters>
          </Trackpoint>
          <Trackpoint>
            <Time>2022-07-14T18:49:49.000Z</Time>
            <Position>
              <LatitudeDegrees>43.3858018554747104644775390625</LatitudeDegrees>
              <LongitudeDegrees>-4.31205374188721179962158203125</LongitudeDegrees>
            </Position>
            <AltitudeMeters>99</AltitudeMeters>
            <DistanceMeters>NAN</DistanceMeters>
          </Trackpoint>
          <Trackpoint>
            <Time>2022-07-14T18:49:51.000Z</Time>
            <Position>
              <LatitudeDegrees>43.38582046329975128173828125</LatitudeDegrees>
              <LongitudeDegrees>-4.31207804940640926361083984375</LongitudeDegrees>
            </Position>
            <AltitudeMeters>99</AltitudeMeters>
            <DistanceMeters>NAN</DistanceMeters>
          </Trackpoint>
          <Trackpoint>
            <Time>2022-07-14T18:49:53.000Z</Time>
            <Position>
              <LatitudeDegrees>43.38582046329975128173828125</LatitudeDegrees>
              <LongitudeDegrees>-4.31207804940640926361083984375</LongitudeDegrees>
            </Position>
            <AltitudeMeters>99</AltitudeMeters>
            <DistanceMeters>NAN</DistanceMeters>
          </Trackpoint>
          <Trackpoint>
            <Time>2022-07-14T18:52:03.000Z</Time>
            <Position>
              <LatitudeDegrees>43.38583982549607753753662109375</LatitudeDegrees>
              <LongitudeDegrees>-4.312039911746978759765625</LongitudeDegrees>
            </Position>
            <AltitudeMeters>99</AltitudeMeters>
            <DistanceMeters>NAN</DistanceMeters>
          </Trackpoint>
          <Trackpoint>
            <Time>2022-07-14T18:52:04.000Z</Time>
            <Position>
              <LatitudeDegrees>43.3858345448970794677734375</LatitudeDegrees>
              <LongitudeDegrees>-4.31202742271125316619873046875</LongitudeDegrees>
            </Position>
            <AltitudeMeters>99</AltitudeMeters>
            <DistanceMeters>NAN</DistanceMeters>
          </Trackpoint>
          <Trackpoint>
            <Time>2022-07-14T18:52:06.000Z</Time>
            <Position>
              <LatitudeDegrees>43.3858263306319713592529296875</LatitudeDegrees>
              <LongitudeDegrees>-4.3119747005403041839599609375</LongitudeDegrees>
            </Position>
            <AltitudeMeters>99</AltitudeMeters>
            <DistanceMeters>NAN</DistanceMeters>
          </Trackpoint>
          <Trackpoint>
            <Time>2022-07-14T18:52:08.000Z</Time>
            <Position>
              <LatitudeDegrees>43.38584192097187042236328125</LatitudeDegrees>
              <LongitudeDegrees>-4.3118972517549991607666015625</LongitudeDegrees>
            </Position>
            <AltitudeMeters>99.40000152587890625</AltitudeMeters>
            <DistanceMeters>NAN</DistanceMeters>
          </Trackpoint>
          <Trackpoint>
            <Time>2022-07-14T18:52:15.000Z</Time>
            <Position>
              <LatitudeDegrees>43.38590738363564014434814453125</LatitudeDegrees>
              <LongitudeDegrees>-4.31162894703447818756103515625</LongitudeDegrees>
            </Position>
            <AltitudeMeters>100</AltitudeMeters>
            <DistanceMeters>NAN</DistanceMeters>
          </Trackpoint>
          <Trackpoint>
            <Time>2022-07-14T18:52:20.000Z</Time>
            <Position>
              <LatitudeDegrees>43.38597066700458526611328125</LatitudeDegrees>
              <LongitudeDegrees>-4.31147270835936069488525390625</LongitudeDegrees>
            </Position>
            <AltitudeMeters>100.40000152587890625</AltitudeMeters>
            <DistanceMeters>NAN</DistanceMeters>
          </Trackpoint>
          <Trackpoint>
            <Time>2022-07-14T18:52:22.000Z</Time>
            <Position>
              <LatitudeDegrees>43.38599975220859050750732421875</LatitudeDegrees>
              <LongitudeDegrees>-4.311423003673553466796875</LongitudeDegrees>
            </Position>
            <AltitudeMeters>100.59999847412109375</AltitudeMeters>
            <DistanceMeters>NAN</DistanceMeters>
          </Trackpoint>
          <Trackpoint>
            <Time>2022-07-14T18:52:24.000Z</Time>
            <Position>
              <LatitudeDegrees>43.38603210635483264923095703125</LatitudeDegrees>
              <LongitudeDegrees>-4.3113715387880802154541015625</LongitudeDegrees>
            </Position>
            <AltitudeMeters>101</AltitudeMeters>
            <DistanceMeters>NAN</DistanceMeters>
          </Trackpoint>
          <Trackpoint>
            <Time>2022-07-14T18:52:25.000Z</Time>
            <Position>
              <LatitudeDegrees>43.386050797998905181884765625</LatitudeDegrees>
              <LongitudeDegrees>-4.311344884335994720458984375</LongitudeDegrees>
            </Position>
            <AltitudeMeters>101</AltitudeMeters>
            <DistanceMeters>NAN</DistanceMeters>
          </Trackpoint>
          <Trackpoint>
            <Time>2022-07-14T18:52:34.000Z</Time>
            <Position>
              <LatitudeDegrees>43.38620779104530811309814453125</LatitudeDegrees>
              <LongitudeDegrees>-4.31115335784852504730224609375</LongitudeDegrees>
            </Position>
            <AltitudeMeters>102</AltitudeMeters>
            <DistanceMeters>NAN</DistanceMeters>
          </Trackpoint>
          <Trackpoint>
            <Time>2022-07-14T18:52:36.000Z</Time>
            <Position>
              <LatitudeDegrees>43.3862414024770259857177734375</LatitudeDegrees>
              <LongitudeDegrees>-4.31111932732164859771728515625</LongitudeDegrees>
            </Position>
            <AltitudeMeters>102.1999969482421875</AltitudeMeters>
            <DistanceMeters>NAN</DistanceMeters>
          </Trackpoint>
          <Trackpoint>
            <Time>2022-07-14T18:52:38.000Z</Time>
            <Position>
              <LatitudeDegrees>43.38627367280423641204833984375</LatitudeDegrees>
              <LongitudeDegrees>-4.3110862188041210174560546875</LongitudeDegrees>
            </Position>
            <AltitudeMeters>102.40000152587890625</AltitudeMeters>
            <DistanceMeters>NAN</DistanceMeters>
          </Trackpoint>
          <Trackpoint>
            <Time>2022-07-14T18:52:40.000Z</Time>
            <Position>
              <LatitudeDegrees>43.386304937303066253662109375</LatitudeDegrees>
              <LongitudeDegrees>-4.31105864234268665313720703125</LongitudeDegrees>
            </Position>
            <AltitudeMeters>102.59999847412109375</AltitudeMeters>
            <DistanceMeters>NAN</DistanceMeters>
          </Trackpoint>
          <Trackpoint>
            <Time>2022-07-14T18:52:42.000Z</Time>
            <Position>
              <LatitudeDegrees>43.3863309212028980255126953125</LatitudeDegrees>
              <LongitudeDegrees>-4.3110359273850917816162109375</LongitudeDegrees>
            </Position>
            <AltitudeMeters>102.8000030517578125</AltitudeMeters>
            <DistanceMeters>NAN</DistanceMeters>
          </Trackpoint>
          <Trackpoint>
            <Time>2022-07-14T18:52:44.000Z</Time>
            <Position>
              <LatitudeDegrees>43.38635983876883983612060546875</LatitudeDegrees>
              <LongitudeDegrees>-4.3110193312168121337890625</LongitudeDegrees>
            </Position>
            <AltitudeMeters>103.1999969482421875</AltitudeMeters>
            <DistanceMeters>NAN</DistanceMeters>
          </Trackpoint>
          <Trackpoint>
            <Time>2022-07-14T18:52:51.000Z</Time>
            <Position>
              <LatitudeDegrees>43.38645287789404392242431640625</LatitudeDegrees>
              <LongitudeDegrees>-4.31093811057507991790771484375</LongitudeDegrees>
            </Position>
            <AltitudeMeters>103.8000030517578125</AltitudeMeters>
            <DistanceMeters>NAN</DistanceMeters>
          </Trackpoint>
          <Trackpoint>
            <Time>2022-07-14T18:52:52.000Z</Time>
            <Position>
              <LatitudeDegrees>43.3864646963775157928466796875</LatitudeDegrees>
              <LongitudeDegrees>-4.31091899983584880828857421875</LongitudeDegrees>
            </Position>
            <AltitudeMeters>104</AltitudeMeters>
            <DistanceMeters>NAN</DistanceMeters>
          </Trackpoint>
          <Trackpoint>
            <Time>2022-07-14T18:52:54.000Z</Time>
            <Position>
              <LatitudeDegrees>43.38648707605898380279541015625</LatitudeDegrees>
              <LongitudeDegrees>-4.3108825385570526123046875</LongitudeDegrees>
            </Position>
            <AltitudeMeters>104.1999969482421875</AltitudeMeters>
            <DistanceMeters>NAN</DistanceMeters>
          </Trackpoint>
          <Trackpoint>
            <Time>2022-07-14T18:52:59.000Z</Time>
            <Position>
              <LatitudeDegrees>43.38655077852308750152587890625</LatitudeDegrees>
              <LongitudeDegrees>-4.31081338785588741302490234375</LongitudeDegrees>
            </Position>
            <AltitudeMeters>104.40000152587890625</AltitudeMeters>
            <DistanceMeters>NAN</DistanceMeters>
          </Trackpoint>
          <Trackpoint>
            <Time>2022-07-14T18:53:07.000Z</Time>
            <Position>
              <LatitudeDegrees>43.38665186427533626556396484375</LatitudeDegrees>
              <LongitudeDegrees>-4.31069017387926578521728515625</LongitudeDegrees>
            </Position>
            <AltitudeMeters>105.1999969482421875</AltitudeMeters>
            <DistanceMeters>NAN</DistanceMeters>
          </Trackpoint>
          <Trackpoint>
            <Time>2022-07-14T18:53:08.000Z</Time>
            <Position>
              <LatitudeDegrees>43.386662006378173828125</LatitudeDegrees>
              <LongitudeDegrees>-4.310673661530017852783203125</LongitudeDegrees>
            </Position>
            <AltitudeMeters>105.1999969482421875</AltitudeMeters>
            <DistanceMeters>NAN</DistanceMeters>
          </Trackpoint>
          <Trackpoint>
            <Time>2022-07-14T18:53:15.000Z</Time>
            <Position>
              <LatitudeDegrees>43.386722020804882049560546875</LatitudeDegrees>
              <LongitudeDegrees>-4.310545586049556732177734375</LongitudeDegrees>
            </Position>
            <AltitudeMeters>106</AltitudeMeters>
            <DistanceMeters>NAN</DistanceMeters>
          </Trackpoint>
          <Trackpoint>
            <Time>2022-07-14T18:53:18.000Z</Time>
            <Position>
              <LatitudeDegrees>43.386745490133762359619140625</LatitudeDegrees>
              <LongitudeDegrees>-4.31048414669930934906005859375</LongitudeDegrees>
            </Position>
            <AltitudeMeters>106.1999969482421875</AltitudeMeters>
            <DistanceMeters>NAN</DistanceMeters>
          </Trackpoint>
          <Trackpoint>
            <Time>2022-07-14T18:53:24.000Z</Time>
            <Position>
              <LatitudeDegrees>43.3867929317057132720947265625</LatitudeDegrees>
              <LongitudeDegrees>-4.3103425763547420501708984375</LongitudeDegrees>
            </Position>
            <AltitudeMeters>106.40000152587890625</AltitudeMeters>
            <DistanceMeters>NAN</DistanceMeters>
          </Trackpoint>
          <Trackpoint>
            <Time>2022-07-14T18:53:28.000Z</Time>
            <Position>
              <LatitudeDegrees>43.3868162333965301513671875</LatitudeDegrees>
              <LongitudeDegrees>-4.31025045923888683319091796875</LongitudeDegrees>
            </Position>
            <AltitudeMeters>106.59999847412109375</AltitudeMeters>
            <DistanceMeters>NAN</DistanceMeters>
          </Trackpoint>
          <Trackpoint>
            <Time>2022-07-14T18:53:32.000Z</Time>
            <Position>
              <LatitudeDegrees>43.38684464804828166961669921875</LatitudeDegrees>
              <LongitudeDegrees>-4.310147948563098907470703125</LongitudeDegrees>
            </Position>
            <AltitudeMeters>106.59999847412109375</AltitudeMeters>
            <DistanceMeters>NAN</DistanceMeters>
          </Trackpoint>
          <Trackpoint>
            <Time>2022-07-14T18:53:33.000Z</Time>
            <Position>
              <LatitudeDegrees>43.38685554452240467071533203125</LatitudeDegrees>
              <LongitudeDegrees>-4.310118444263935089111328125</LongitudeDegrees>
            </Position>
            <AltitudeMeters>106.59999847412109375</AltitudeMeters>
            <DistanceMeters>NAN</DistanceMeters>
          </Trackpoint>
          <Trackpoint>
            <Time>2022-07-14T18:53:38.000Z</Time>
            <Position>
              <LatitudeDegrees>43.3869334124028682708740234375</LatitudeDegrees>
              <LongitudeDegrees>-4.3099905364215373992919921875</LongitudeDegrees>
            </Position>
            <AltitudeMeters>106.59999847412109375</AltitudeMeters>
            <DistanceMeters>NAN</DistanceMeters>
          </Trackpoint>
          <Trackpoint>
            <Time>2022-07-14T18:53:40.000Z</Time>
            <Position>
              <LatitudeDegrees>43.38697289116680622100830078125</LatitudeDegrees>
              <LongitudeDegrees>-4.30994736962020397186279296875</LongitudeDegrees>
            </Position>
            <AltitudeMeters>106.59999847412109375</AltitudeMeters>
            <DistanceMeters>NAN</DistanceMeters>
          </Trackpoint>
          <Trackpoint>
            <Time>2022-07-14T18:53:47.000Z</Time>
            <Position>
              <LatitudeDegrees>43.38710951618850231170654296875</LatitudeDegrees>
              <LongitudeDegrees>-4.3097876943647861480712890625</LongitudeDegrees>
            </Position>
            <AltitudeMeters>106.40000152587890625</AltitudeMeters>
            <DistanceMeters>NAN</DistanceMeters>
          </Trackpoint>
          <Trackpoint>
            <Time>2022-07-14T18:53:48.000Z</Time>
            <Position>
              <LatitudeDegrees>43.38712208904325962066650390625</LatitudeDegrees>
              <LongitudeDegrees>-4.3097595311701297760009765625</LongitudeDegrees>
            </Position>
            <AltitudeMeters>106.40000152587890625</AltitudeMeters>
            <DistanceMeters>NAN</DistanceMeters>
          </Trackpoint>
          <Trackpoint>
            <Time>2022-07-14T18:53:55.000Z</Time>
            <Position>
              <LatitudeDegrees>43.3871989510953426361083984375</LatitudeDegrees>
              <LongitudeDegrees>-4.30953967384994029998779296875</LongitudeDegrees>
            </Position>
            <AltitudeMeters>106</AltitudeMeters>
            <DistanceMeters>NAN</DistanceMeters>
          </Trackpoint>
          <Trackpoint>
            <Time>2022-07-14T18:53:57.000Z</Time>
            <Position>
              <LatitudeDegrees>43.3872220851480960845947265625</LatitudeDegrees>
              <LongitudeDegrees>-4.30947882123291492462158203125</LongitudeDegrees>
            </Position>
            <AltitudeMeters>106</AltitudeMeters>
            <DistanceMeters>NAN</DistanceMeters>
          </Trackpoint>
          <Trackpoint>
            <Time>2022-07-14T18:54:02.000Z</Time>
            <Position>
              <LatitudeDegrees>43.3872867934405803680419921875</LatitudeDegrees>
              <LongitudeDegrees>-4.30934228003025054931640625</LongitudeDegrees>
            </Position>
            <AltitudeMeters>105.8000030517578125</AltitudeMeters>
            <DistanceMeters>NAN</DistanceMeters>
          </Trackpoint>
          <Trackpoint>
            <Time>2022-07-14T18:54:05.000Z</Time>
            <Position>
              <LatitudeDegrees>43.387326858937740325927734375</LatitudeDegrees>
              <LongitudeDegrees>-4.3092743866145610809326171875</LongitudeDegrees>
            </Position>
            <AltitudeMeters>105.59999847412109375</AltitudeMeters>
            <DistanceMeters>NAN</DistanceMeters>
          </Trackpoint>
          <Trackpoint>
            <Time>2022-07-14T18:54:14.000Z</Time>
            <Position>
              <LatitudeDegrees>43.38751989416778087615966796875</LatitudeDegrees>
              <LongitudeDegrees>-4.30907079018652439117431640625</LongitudeDegrees>
            </Position>
            <AltitudeMeters>105.1999969482421875</AltitudeMeters>
            <DistanceMeters>NAN</DistanceMeters>
          </Trackpoint>
          <Trackpoint>
            <Time>2022-07-14T18:54:15.000Z</Time>
            <Position>
              <LatitudeDegrees>43.38754939846694469451904296875</LatitudeDegrees>
              <LongitudeDegrees>-4.30905117653310298919677734375</LongitudeDegrees>
            </Position>
            <AltitudeMeters>105</AltitudeMeters>
            <DistanceMeters>NAN</DistanceMeters>
          </Trackpoint>
          <Trackpoint>
            <Time>2022-07-14T18:54:20.000Z</Time>
            <Position>
              <LatitudeDegrees>43.3877303637564182281494140625</LatitudeDegrees>
              <LongitudeDegrees>-4.3089565448462963104248046875</LongitudeDegrees>
            </Position>
            <AltitudeMeters>104</AltitudeMeters>
            <DistanceMeters>NAN</DistanceMeters>
          </Trackpoint>
          <Trackpoint>
            <Time>2022-07-14T18:54:21.000Z</Time>
            <Position>
              <LatitudeDegrees>43.38777218945324420928955078125</LatitudeDegrees>
              <LongitudeDegrees>-4.308944642543792724609375</LongitudeDegrees>
            </Position>
            <AltitudeMeters>103.59999847412109375</AltitudeMeters>
            <DistanceMeters>NAN</DistanceMeters>
          </Trackpoint>
          <Trackpoint>
            <Time>2022-07-14T18:54:23.000Z</Time>
            <Position>
              <LatitudeDegrees>43.3878624625504016876220703125</LatitudeDegrees>
              <LongitudeDegrees>-4.30892813019454479217529296875</LongitudeDegrees>
            </Position>
            <AltitudeMeters>102.8000030517578125</AltitudeMeters>
            <DistanceMeters>NAN</DistanceMeters>
          </Trackpoint>
          <Trackpoint>
            <Time>2022-07-14T18:54:25.000Z</Time>
            <Position>
              <LatitudeDegrees>43.3879472874104976654052734375</LatitudeDegrees>
              <LongitudeDegrees>-4.3089084327220916748046875</LongitudeDegrees>
            </Position>
            <AltitudeMeters>101.59999847412109375</AltitudeMeters>
            <DistanceMeters>NAN</DistanceMeters>
          </Trackpoint>
          <Trackpoint>
            <Time>2022-07-14T18:54:27.000Z</Time>
            <Position>
              <LatitudeDegrees>43.38803420774638652801513671875</LatitudeDegrees>
              <LongitudeDegrees>-4.3088680319488048553466796875</LongitudeDegrees>
            </Position>
            <AltitudeMeters>100.8000030517578125</AltitudeMeters>
            <DistanceMeters>NAN</DistanceMeters>
          </Trackpoint>
          <Trackpoint>
            <Time>2022-07-14T18:54:28.000Z</Time>
            <Position>
              <LatitudeDegrees>43.38807829655706882476806640625</LatitudeDegrees>
              <LongitudeDegrees>-4.30884246714413166046142578125</LongitudeDegrees>
            </Position>
            <AltitudeMeters>100.40000152587890625</AltitudeMeters>
            <DistanceMeters>NAN</DistanceMeters>
          </Trackpoint>
          <Trackpoint>
            <Time>2022-07-14T18:54:29.000Z</Time>
            <Position>
              <LatitudeDegrees>43.38812372647225856781005859375</LatitudeDegrees>
              <LongitudeDegrees>-4.30881665088236331939697265625</LongitudeDegrees>
            </Position>
            <AltitudeMeters>99.8000030517578125</AltitudeMeters>
            <DistanceMeters>NAN</DistanceMeters>
          </Trackpoint>
          <Trackpoint>
            <Time>2022-07-14T18:54:30.000Z</Time>
            <Position>
              <LatitudeDegrees>43.38816680945456027984619140625</LatitudeDegrees>
              <LongitudeDegrees>-4.3087828718125820159912109375</LongitudeDegrees>
            </Position>
            <AltitudeMeters>99.1999969482421875</AltitudeMeters>
            <DistanceMeters>NAN</DistanceMeters>
          </Trackpoint>
          <Trackpoint>
            <Time>2022-07-14T18:54:32.000Z</Time>
            <Position>
              <LatitudeDegrees>43.3882426656782627105712890625</LatitudeDegrees>
              <LongitudeDegrees>-4.30870567448437213897705078125</LongitudeDegrees>
            </Position>
            <AltitudeMeters>98</AltitudeMeters>
            <DistanceMeters>NAN</DistanceMeters>
          </Trackpoint>
          <Trackpoint>
            <Time>2022-07-14T18:54:33.000Z</Time>
            <Position>
              <LatitudeDegrees>43.38828130625188350677490234375</LatitudeDegrees>
              <LongitudeDegrees>-4.3086628429591655731201171875</LongitudeDegrees>
            </Position>
            <AltitudeMeters>97.40000152587890625</AltitudeMeters>
            <DistanceMeters>NAN</DistanceMeters>
          </Trackpoint>
          <Trackpoint>
            <Time>2022-07-14T18:54:34.000Z</Time>
            <Position>
              <LatitudeDegrees>43.38832019828259944915771484375</LatitudeDegrees>
              <LongitudeDegrees>-4.3086214363574981689453125</LongitudeDegrees>
            </Position>
            <AltitudeMeters>96.8000030517578125</AltitudeMeters>
            <DistanceMeters>NAN</DistanceMeters>
          </Trackpoint>
          <Trackpoint>
            <Time>2022-07-14T18:54:37.000Z</Time>
            <Position>
              <LatitudeDegrees>43.38844634592533111572265625</LatitudeDegrees>
              <LongitudeDegrees>-4.30849394761025905609130859375</LongitudeDegrees>
            </Position>
            <AltitudeMeters>95.59999847412109375</AltitudeMeters>
            <DistanceMeters>NAN</DistanceMeters>
          </Trackpoint>
          <Trackpoint>
            <Time>2022-07-14T18:54:40.000Z</Time>
            <Position>
              <LatitudeDegrees>43.3885772712528705596923828125</LatitudeDegrees>
              <LongitudeDegrees>-4.30836587212979793548583984375</LongitudeDegrees>
            </Position>
            <AltitudeMeters>94.40000152587890625</AltitudeMeters>
            <DistanceMeters>NAN</DistanceMeters>
          </Trackpoint>
          <Trackpoint>
            <Time>2022-07-14T18:54:41.000Z</Time>
            <Position>
              <LatitudeDegrees>43.388618342578411102294921875</LatitudeDegrees>
              <LongitudeDegrees>-4.30831633508205413818359375</LongitudeDegrees>
            </Position>
            <AltitudeMeters>94</AltitudeMeters>
            <DistanceMeters>NAN</DistanceMeters>
          </Trackpoint>
          <Trackpoint>
            <Time>2022-07-14T18:54:43.000Z</Time>
            <Position>
              <LatitudeDegrees>43.38869134895503520965576171875</LatitudeDegrees>
              <LongitudeDegrees>-4.30821583606302738189697265625</LongitudeDegrees>
            </Position>
            <AltitudeMeters>93</AltitudeMeters>
            <DistanceMeters>NAN</DistanceMeters>
          </Trackpoint>
          <Trackpoint>
            <Time>2022-07-14T18:54:45.000Z</Time>
            <Position>
              <LatitudeDegrees>43.38875773362815380096435546875</LatitudeDegrees>
              <LongitudeDegrees>-4.308109469711780548095703125</LongitudeDegrees>
            </Position>
            <AltitudeMeters>91.8000030517578125</AltitudeMeters>
            <DistanceMeters>NAN</DistanceMeters>
          </Trackpoint>
          <Trackpoint>
            <Time>2022-07-14T18:54:47.000Z</Time>
            <Position>
              <LatitudeDegrees>43.38881959207355976104736328125</LatitudeDegrees>
              <LongitudeDegrees>-4.3080144189298152923583984375</LongitudeDegrees>
            </Position>
            <AltitudeMeters>90.8000030517578125</AltitudeMeters>
            <DistanceMeters>NAN</DistanceMeters>
          </Trackpoint>
          <Trackpoint>
            <Time>2022-07-14T18:54:49.000Z</Time>
            <Position>
              <LatitudeDegrees>43.38888647966086864471435546875</LatitudeDegrees>
              <LongitudeDegrees>-4.307915009558200836181640625</LongitudeDegrees>
            </Position>
            <AltitudeMeters>89.59999847412109375</AltitudeMeters>
            <DistanceMeters>NAN</DistanceMeters>
          </Trackpoint>
          <Trackpoint>
            <Time>2022-07-14T18:54:50.000Z</Time>
            <Position>
              <LatitudeDegrees>43.38891061954200267791748046875</LatitudeDegrees>
              <LongitudeDegrees>-4.307877458631992340087890625</LongitudeDegrees>
            </Position>
            <AltitudeMeters>89.1999969482421875</AltitudeMeters>
            <DistanceMeters>NAN</DistanceMeters>
          </Trackpoint>
          <Trackpoint>
            <Time>2022-07-14T18:54:52.000Z</Time>
            <Position>
              <LatitudeDegrees>43.38896409608423709869384765625</LatitudeDegrees>
              <LongitudeDegrees>-4.30779523216187953948974609375</LongitudeDegrees>
            </Position>
            <AltitudeMeters>88.40000152587890625</AltitudeMeters>
            <DistanceMeters>NAN</DistanceMeters>
          </Trackpoint>
          <Trackpoint>
            <Time>2022-07-14T18:54:55.000Z</Time>
            <Position>
              <LatitudeDegrees>43.38902838528156280517578125</LatitudeDegrees>
              <LongitudeDegrees>-4.30769029073417186737060546875</LongitudeDegrees>
            </Position>
            <AltitudeMeters>87</AltitudeMeters>
            <DistanceMeters>NAN</DistanceMeters>
          </Trackpoint>
          <Trackpoint>
            <Time>2022-07-14T18:54:58.000Z</Time>
            <Position>
              <LatitudeDegrees>43.38906484656035900115966796875</LatitudeDegrees>
              <LongitudeDegrees>-4.30762692354619503021240234375</LongitudeDegrees>
            </Position>
            <AltitudeMeters>86</AltitudeMeters>
            <DistanceMeters>NAN</DistanceMeters>
          </Trackpoint>
          <Trackpoint>
            <Time>2022-07-14T18:55:00.000Z</Time>
            <Position>
              <LatitudeDegrees>43.38908328674733638763427734375</LatitudeDegrees>
              <LongitudeDegrees>-4.30758819915354251861572265625</LongitudeDegrees>
            </Position>
            <AltitudeMeters>85.40000152587890625</AltitudeMeters>
            <DistanceMeters>NAN</DistanceMeters>
          </Trackpoint>
          <Trackpoint>
            <Time>2022-07-14T18:55:03.000Z</Time>
            <Position>
              <LatitudeDegrees>43.389100134372711181640625</LatitudeDegrees>
              <LongitudeDegrees>-4.30755483917891979217529296875</LongitudeDegrees>
            </Position>
            <AltitudeMeters>84.8000030517578125</AltitudeMeters>
            <DistanceMeters>NAN</DistanceMeters>
          </Trackpoint>
          <Trackpoint>
            <Time>2022-07-14T18:55:05.000Z</Time>
            <Position>
              <LatitudeDegrees>43.389100134372711181640625</LatitudeDegrees>
              <LongitudeDegrees>-4.30755483917891979217529296875</LongitudeDegrees>
            </Position>
            <AltitudeMeters>84.8000030517578125</AltitudeMeters>
            <DistanceMeters>NAN</DistanceMeters>
          </Trackpoint>
          <Trackpoint>
            <Time>2022-07-14T18:55:23.000Z</Time>
            <Position>
              <LatitudeDegrees>43.38908462785184383392333984375</LatitudeDegrees>
              <LongitudeDegrees>-4.3075249157845973968505859375</LongitudeDegrees>
            </Position>
            <AltitudeMeters>84.8000030517578125</AltitudeMeters>
            <DistanceMeters>NAN</DistanceMeters>
          </Trackpoint>
          <Trackpoint>
            <Time>2022-07-14T18:55:24.000Z</Time>
            <Position>
              <LatitudeDegrees>43.38907222263514995574951171875</LatitudeDegrees>
              <LongitudeDegrees>-4.307524748146533966064453125</LongitudeDegrees>
            </Position>
            <AltitudeMeters>84.8000030517578125</AltitudeMeters>
            <DistanceMeters>NAN</DistanceMeters>
          </Trackpoint>
          <Trackpoint>
            <Time>2022-07-14T18:55:26.000Z</Time>
            <Position>
              <LatitudeDegrees>43.38904984295368194580078125</LatitudeDegrees>
              <LongitudeDegrees>-4.30754997767508029937744140625</LongitudeDegrees>
            </Position>
            <AltitudeMeters>84.8000030517578125</AltitudeMeters>
            <DistanceMeters>NAN</DistanceMeters>
          </Trackpoint>
          <Trackpoint>
            <Time>2022-07-14T18:55:27.000Z</Time>
            <Position>
              <LatitudeDegrees>43.3890449814498424530029296875</LatitudeDegrees>
              <LongitudeDegrees>-4.30757545866072177886962890625</LongitudeDegrees>
            </Position>
            <AltitudeMeters>85</AltitudeMeters>
            <DistanceMeters>NAN</DistanceMeters>
          </Trackpoint>
          <Trackpoint>
            <Time>2022-07-14T18:55:33.000Z</Time>
            <Position>
              <LatitudeDegrees>43.38900516740977764129638671875</LatitudeDegrees>
              <LongitudeDegrees>-4.30772985331714153289794921875</LongitudeDegrees>
            </Position>
            <AltitudeMeters>85.8000030517578125</AltitudeMeters>
            <DistanceMeters>NAN</DistanceMeters>
          </Trackpoint>
          <Trackpoint>
            <Time>2022-07-14T18:55:35.000Z</Time>
            <Position>
              <LatitudeDegrees>43.3889722265303134918212890625</LatitudeDegrees>
              <LongitudeDegrees>-4.307767488062381744384765625</LongitudeDegrees>
            </Position>
            <AltitudeMeters>86.1999969482421875</AltitudeMeters>
            <DistanceMeters>NAN</DistanceMeters>
          </Trackpoint>
          <Trackpoint>
            <Time>2022-07-14T18:55:38.000Z</Time>
            <Position>
              <LatitudeDegrees>43.388932161033153533935546875</LatitudeDegrees>
              <LongitudeDegrees>-4.30783077143132686614990234375</LongitudeDegrees>
            </Position>
            <AltitudeMeters>87</AltitudeMeters>
            <DistanceMeters>NAN</DistanceMeters>
          </Trackpoint>
          <Trackpoint>
            <Time>2022-07-14T18:55:43.000Z</Time>
            <Position>
              <LatitudeDegrees>43.388869464397430419921875</LatitudeDegrees>
              <LongitudeDegrees>-4.3079181946814060211181640625</LongitudeDegrees>
            </Position>
            <AltitudeMeters>87.40000152587890625</AltitudeMeters>
            <DistanceMeters>NAN</DistanceMeters>
          </Trackpoint>
          <Trackpoint>
            <Time>2022-07-14T18:55:47.000Z</Time>
            <Position>
              <LatitudeDegrees>43.38882914744317531585693359375</LatitudeDegrees>
              <LongitudeDegrees>-4.30799849331378936767578125</LongitudeDegrees>
            </Position>
            <AltitudeMeters>88</AltitudeMeters>
            <DistanceMeters>NAN</DistanceMeters>
          </Trackpoint>
          <Trackpoint>
            <Time>2022-07-14T18:55:50.000Z</Time>
            <Position>
              <LatitudeDegrees>43.38879310525953769683837890625</LatitudeDegrees>
              <LongitudeDegrees>-4.30804585106670856475830078125</LongitudeDegrees>
            </Position>
            <AltitudeMeters>88.8000030517578125</AltitudeMeters>
            <DistanceMeters>NAN</DistanceMeters>
          </Trackpoint>
          <Trackpoint>
            <Time>2022-07-14T18:55:52.000Z</Time>
            <Position>
              <LatitudeDegrees>43.38876946829259395599365234375</LatitudeDegrees>
              <LongitudeDegrees>-4.308076612651348114013671875</LongitudeDegrees>
            </Position>
            <AltitudeMeters>89.1999969482421875</AltitudeMeters>
            <DistanceMeters>NAN</DistanceMeters>
          </Trackpoint>
          <Trackpoint>
            <Time>2022-07-14T18:55:59.000Z</Time>
            <Position>
              <LatitudeDegrees>43.38870408944785594940185546875</LatitudeDegrees>
              <LongitudeDegrees>-4.3082028441131114959716796875</LongitudeDegrees>
            </Position>
            <AltitudeMeters>90.40000152587890625</AltitudeMeters>
            <DistanceMeters>NAN</DistanceMeters>
          </Trackpoint>
          <Trackpoint>
            <Time>2022-07-14T18:56:06.000Z</Time>
            <Position>
              <LatitudeDegrees>43.38862312026321887969970703125</LatitudeDegrees>
              <LongitudeDegrees>-4.308307953178882598876953125</LongitudeDegrees>
            </Position>
            <AltitudeMeters>91.40000152587890625</AltitudeMeters>
            <DistanceMeters>NAN</DistanceMeters>
          </Trackpoint>
          <Trackpoint>
            <Time>2022-07-14T18:56:07.000Z</Time>
            <Position>
              <LatitudeDegrees>43.388610966503620147705078125</LatitudeDegrees>
              <LongitudeDegrees>-4.30832513608038425445556640625</LongitudeDegrees>
            </Position>
            <AltitudeMeters>91.8000030517578125</AltitudeMeters>
            <DistanceMeters>NAN</DistanceMeters>
          </Trackpoint>
          <Trackpoint>
            <Time>2022-07-14T18:56:13.000Z</Time>
            <Position>
              <LatitudeDegrees>43.38851784355938434600830078125</LatitudeDegrees>
              <LongitudeDegrees>-4.30842437781393527984619140625</LongitudeDegrees>
            </Position>
            <AltitudeMeters>92.59999847412109375</AltitudeMeters>
            <DistanceMeters>NAN</DistanceMeters>
          </Trackpoint>
          <Trackpoint>
            <Time>2022-07-14T18:56:14.000Z</Time>
            <Position>
              <LatitudeDegrees>43.3885095454752445220947265625</LatitudeDegrees>
              <LongitudeDegrees>-4.3084351904690265655517578125</LongitudeDegrees>
            </Position>
            <AltitudeMeters>92.8000030517578125</AltitudeMeters>
            <DistanceMeters>NAN</DistanceMeters>
          </Trackpoint>
          <Trackpoint>
            <Time>2022-07-14T18:56:21.000Z</Time>
            <Position>
              <LatitudeDegrees>43.38842698372900485992431640625</LatitudeDegrees>
              <LongitudeDegrees>-4.30852328427135944366455078125</LongitudeDegrees>
            </Position>
            <AltitudeMeters>93.59999847412109375</AltitudeMeters>
            <DistanceMeters>NAN</DistanceMeters>
          </Trackpoint>
          <Trackpoint>
            <Time>2022-07-14T18:56:24.000Z</Time>
            <Position>
              <LatitudeDegrees>43.3883898518979549407958984375</LatitudeDegrees>
              <LongitudeDegrees>-4.30856049992144107818603515625</LongitudeDegrees>
            </Position>
            <AltitudeMeters>94</AltitudeMeters>
            <DistanceMeters>NAN</DistanceMeters>
          </Trackpoint>
          <Trackpoint>
            <Time>2022-07-14T18:56:25.000Z</Time>
            <Position>
              <LatitudeDegrees>43.38837853632867336273193359375</LatitudeDegrees>
              <LongitudeDegrees>-4.3085716478526592254638671875</LongitudeDegrees>
            </Position>
            <AltitudeMeters>94</AltitudeMeters>
            <DistanceMeters>NAN</DistanceMeters>
          </Trackpoint>
          <Trackpoint>
            <Time>2022-07-14T18:56:27.000Z</Time>
            <Position>
              <LatitudeDegrees>43.38835070841014385223388671875</LatitudeDegrees>
              <LongitudeDegrees>-4.3085977993905544281005859375</LongitudeDegrees>
            </Position>
            <AltitudeMeters>94.40000152587890625</AltitudeMeters>
            <DistanceMeters>NAN</DistanceMeters>
          </Trackpoint>
          <Trackpoint>
            <Time>2022-07-14T18:56:28.000Z</Time>
            <Position>
              <LatitudeDegrees>43.38834148831665515899658203125</LatitudeDegrees>
              <LongitudeDegrees>-4.30860509164631366729736328125</LongitudeDegrees>
            </Position>
            <AltitudeMeters>94.40000152587890625</AltitudeMeters>
            <DistanceMeters>NAN</DistanceMeters>
          </Trackpoint>
          <Trackpoint>
            <Time>2022-07-14T18:56:29.000Z</Time>
            <Position>
              <LatitudeDegrees>43.3883305080235004425048828125</LatitudeDegrees>
              <LongitudeDegrees>-4.30861498229205608367919921875</LongitudeDegrees>
            </Position>
            <AltitudeMeters>94.59999847412109375</AltitudeMeters>
            <DistanceMeters>NAN</DistanceMeters>
          </Trackpoint>
          <Trackpoint>
            <Time>2022-07-14T18:56:30.000Z</Time>
            <Position>
              <LatitudeDegrees>43.388321287930011749267578125</LatitudeDegrees>
              <LongitudeDegrees>-4.3086283095180988311767578125</LongitudeDegrees>
            </Position>
            <AltitudeMeters>94.8000030517578125</AltitudeMeters>
            <DistanceMeters>NAN</DistanceMeters>
          </Trackpoint>
          <Trackpoint>
            <Time>2022-07-14T18:56:31.000Z</Time>
            <Position>
              <LatitudeDegrees>43.38830963708460330963134765625</LatitudeDegrees>
              <LongitudeDegrees>-4.308637194335460662841796875</LongitudeDegrees>
            </Position>
            <AltitudeMeters>94.8000030517578125</AltitudeMeters>
            <DistanceMeters>NAN</DistanceMeters>
          </Trackpoint>
          <Trackpoint>
            <Time>2022-07-14T18:56:33.000Z</Time>
            <Position>
              <LatitudeDegrees>43.3882855810225009918212890625</LatitudeDegrees>
              <LongitudeDegrees>-4.3086574785411357879638671875</LongitudeDegrees>
            </Position>
            <AltitudeMeters>95.1999969482421875</AltitudeMeters>
            <DistanceMeters>NAN</DistanceMeters>
          </Trackpoint>
          <Trackpoint>
            <Time>2022-07-14T18:56:35.000Z</Time>
            <Position>
              <LatitudeDegrees>43.38826471008360385894775390625</LatitudeDegrees>
              <LongitudeDegrees>-4.308676086366176605224609375</LongitudeDegrees>
            </Position>
            <AltitudeMeters>95.40000152587890625</AltitudeMeters>
            <DistanceMeters>NAN</DistanceMeters>
          </Trackpoint>
          <Trackpoint>
            <Time>2022-07-14T18:56:38.000Z</Time>
            <Position>
              <LatitudeDegrees>43.38823302648961544036865234375</LatitudeDegrees>
              <LongitudeDegrees>-4.30870500393211841583251953125</LongitudeDegrees>
            </Position>
            <AltitudeMeters>95.8000030517578125</AltitudeMeters>
            <DistanceMeters>NAN</DistanceMeters>
          </Trackpoint>
          <Trackpoint>
            <Time>2022-07-14T18:56:45.000Z</Time>
            <Position>
              <LatitudeDegrees>43.38816144503653049468994140625</LatitudeDegrees>
              <LongitudeDegrees>-4.30878882296383380889892578125</LongitudeDegrees>
            </Position>
            <AltitudeMeters>96.59999847412109375</AltitudeMeters>
            <DistanceMeters>NAN</DistanceMeters>
          </Trackpoint>
          <Trackpoint>
            <Time>2022-07-14T18:56:46.000Z</Time>
            <Position>
              <LatitudeDegrees>43.38815172202885150909423828125</LatitudeDegrees>
              <LongitudeDegrees>-4.308798797428607940673828125</LongitudeDegrees>
            </Position>
            <AltitudeMeters>96.8000030517578125</AltitudeMeters>
            <DistanceMeters>NAN</DistanceMeters>
          </Trackpoint>
          <Trackpoint>
            <Time>2022-07-14T18:56:54.000Z</Time>
            <Position>
              <LatitudeDegrees>43.38806002400815486907958984375</LatitudeDegrees>
              <LongitudeDegrees>-4.3088844604790210723876953125</LongitudeDegrees>
            </Position>
            <AltitudeMeters>98</AltitudeMeters>
            <DistanceMeters>NAN</DistanceMeters>
          </Trackpoint>
          <Trackpoint>
            <Time>2022-07-14T18:57:01.000Z</Time>
            <Position>
              <LatitudeDegrees>43.38798710145056247711181640625</LatitudeDegrees>
              <LongitudeDegrees>-4.3089270405471324920654296875</LongitudeDegrees>
            </Position>
            <AltitudeMeters>99.1999969482421875</AltitudeMeters>
            <DistanceMeters>NAN</DistanceMeters>
          </Trackpoint>
          <Trackpoint>
            <Time>2022-07-14T18:57:02.000Z</Time>
            <Position>
              <LatitudeDegrees>43.3879751153290271759033203125</LatitudeDegrees>
              <LongitudeDegrees>-4.30893533863127231597900390625</LongitudeDegrees>
            </Position>
            <AltitudeMeters>99.1999969482421875</AltitudeMeters>
            <DistanceMeters>NAN</DistanceMeters>
          </Trackpoint>
          <Trackpoint>
            <Time>2022-07-14T18:57:08.000Z</Time>
            <Position>
              <LatitudeDegrees>43.38790261186659336090087890625</LatitudeDegrees>
              <LongitudeDegrees>-4.3089666031301021575927734375</LongitudeDegrees>
            </Position>
            <AltitudeMeters>100.1999969482421875</AltitudeMeters>
            <DistanceMeters>NAN</DistanceMeters>
          </Trackpoint>
          <Trackpoint>
            <Time>2022-07-14T18:57:09.000Z</Time>
            <Position>
              <LatitudeDegrees>43.3878902904689311981201171875</LatitudeDegrees>
              <LongitudeDegrees>-4.30896752513945102691650390625</LongitudeDegrees>
            </Position>
            <AltitudeMeters>100.1999969482421875</AltitudeMeters>
            <DistanceMeters>NAN</DistanceMeters>
          </Trackpoint>
          <Trackpoint>
            <Time>2022-07-14T18:57:10.000Z</Time>
            <Position>
              <LatitudeDegrees>43.38788014836609363555908203125</LatitudeDegrees>
              <LongitudeDegrees>-4.30897037498652935028076171875</LongitudeDegrees>
            </Position>
            <AltitudeMeters>100.40000152587890625</AltitudeMeters>
            <DistanceMeters>NAN</DistanceMeters>
          </Trackpoint>
          <Trackpoint>
            <Time>2022-07-14T18:57:14.000Z</Time>
            <Position>
              <LatitudeDegrees>43.3878322876989841461181640625</LatitudeDegrees>
              <LongitudeDegrees>-4.30897942744195461273193359375</LongitudeDegrees>
            </Position>
            <AltitudeMeters>101.1999969482421875</AltitudeMeters>
            <DistanceMeters>NAN</DistanceMeters>
          </Trackpoint>
          <Trackpoint>
            <Time>2022-07-14T18:57:15.000Z</Time>
            <Position>
              <LatitudeDegrees>43.3878239057958126068115234375</LatitudeDegrees>
              <LongitudeDegrees>-4.30898143909871578216552734375</LongitudeDegrees>
            </Position>
            <AltitudeMeters>101.1999969482421875</AltitudeMeters>
            <DistanceMeters>NAN</DistanceMeters>
          </Trackpoint>
          <Trackpoint>
            <Time>2022-07-14T18:57:18.000Z</Time>
            <Position>
              <LatitudeDegrees>43.38778358884155750274658203125</LatitudeDegrees>
              <LongitudeDegrees>-4.3089847080409526824951171875</LongitudeDegrees>
            </Position>
            <AltitudeMeters>101.8000030517578125</AltitudeMeters>
            <DistanceMeters>NAN</DistanceMeters>
          </Trackpoint>
          <Trackpoint>
            <Time>2022-07-14T18:57:22.000Z</Time>
            <Position>
              <LatitudeDegrees>43.3877323754131793975830078125</LatitudeDegrees>
              <LongitudeDegrees>-4.30899049155414104461669921875</LongitudeDegrees>
            </Position>
            <AltitudeMeters>102.1999969482421875</AltitudeMeters>
            <DistanceMeters>NAN</DistanceMeters>
          </Trackpoint>
          <Trackpoint>
            <Time>2022-07-14T18:57:25.000Z</Time>
            <Position>
              <LatitudeDegrees>43.3876985125243663787841796875</LatitudeDegrees>
              <LongitudeDegrees>-4.30899887345731258392333984375</LongitudeDegrees>
            </Position>
            <AltitudeMeters>102.8000030517578125</AltitudeMeters>
            <DistanceMeters>NAN</DistanceMeters>
          </Trackpoint>
          <Trackpoint>
            <Time>2022-07-14T18:57:29.000Z</Time>
            <Position>
              <LatitudeDegrees>43.38765031658113002777099609375</LatitudeDegrees>
              <LongitudeDegrees>-4.30901194922626018524169921875</LongitudeDegrees>
            </Position>
            <AltitudeMeters>103.40000152587890625</AltitudeMeters>
            <DistanceMeters>NAN</DistanceMeters>
          </Trackpoint>
          <Trackpoint>
            <Time>2022-07-14T18:57:34.000Z</Time>
            <Position>
              <LatitudeDegrees>43.3875935710966587066650390625</LatitudeDegrees>
              <LongitudeDegrees>-4.3090417049825191497802734375</LongitudeDegrees>
            </Position>
            <AltitudeMeters>104.1999969482421875</AltitudeMeters>
            <DistanceMeters>NAN</DistanceMeters>
          </Trackpoint>
          <Trackpoint>
            <Time>2022-07-14T18:57:36.000Z</Time>
            <Position>
              <LatitudeDegrees>43.3875680901110172271728515625</LatitudeDegrees>
              <LongitudeDegrees>-4.30905804969370365142822265625</LongitudeDegrees>
            </Position>
            <AltitudeMeters>104.40000152587890625</AltitudeMeters>
            <DistanceMeters>NAN</DistanceMeters>
          </Trackpoint>
          <Trackpoint>
            <Time>2022-07-14T18:57:40.000Z</Time>
            <Position>
              <LatitudeDegrees>43.387524001300334930419921875</LatitudeDegrees>
              <LongitudeDegrees>-4.30909023620188236236572265625</LongitudeDegrees>
            </Position>
            <AltitudeMeters>105</AltitudeMeters>
            <DistanceMeters>NAN</DistanceMeters>
          </Trackpoint>
          <Trackpoint>
            <Time>2022-07-14T18:57:43.000Z</Time>
            <Position>
              <LatitudeDegrees>43.38749089278280735015869140625</LatitudeDegrees>
              <LongitudeDegrees>-4.30911739356815814971923828125</LongitudeDegrees>
            </Position>
            <AltitudeMeters>105.40000152587890625</AltitudeMeters>
            <DistanceMeters>NAN</DistanceMeters>
          </Trackpoint>
          <Trackpoint>
            <Time>2022-07-14T18:57:45.000Z</Time>
            <Position>
              <LatitudeDegrees>43.38746733963489532470703125</LatitudeDegrees>
              <LongitudeDegrees>-4.30913968943059444427490234375</LongitudeDegrees>
            </Position>
            <AltitudeMeters>105.59999847412109375</AltitudeMeters>
            <DistanceMeters>NAN</DistanceMeters>
          </Trackpoint>
          <Trackpoint>
            <Time>2022-07-14T18:57:50.000Z</Time>
            <Position>
              <LatitudeDegrees>43.38740975596010684967041015625</LatitudeDegrees>
              <LongitudeDegrees>-4.3091892264783382415771484375</LongitudeDegrees>
            </Position>
            <AltitudeMeters>105.8000030517578125</AltitudeMeters>
            <DistanceMeters>NAN</DistanceMeters>
          </Trackpoint>
          <Trackpoint>
            <Time>2022-07-14T18:57:55.000Z</Time>
            <Position>
              <LatitudeDegrees>43.38735108263790607452392578125</LatitudeDegrees>
              <LongitudeDegrees>-4.3092489056289196014404296875</LongitudeDegrees>
            </Position>
            <AltitudeMeters>106.1999969482421875</AltitudeMeters>
            <DistanceMeters>NAN</DistanceMeters>
          </Trackpoint>
          <Trackpoint>
            <Time>2022-07-14T18:57:58.000Z</Time>
            <Position>
              <LatitudeDegrees>43.38731705211102962493896484375</LatitudeDegrees>
              <LongitudeDegrees>-4.3092770688235759735107421875</LongitudeDegrees>
            </Position>
            <AltitudeMeters>106.40000152587890625</AltitudeMeters>
            <DistanceMeters>NAN</DistanceMeters>
          </Trackpoint>
          <Trackpoint>
            <Time>2022-07-14T18:58:01.000Z</Time>
            <Position>
              <LatitudeDegrees>43.3872730471193790435791015625</LatitudeDegrees>
              <LongitudeDegrees>-4.309314787387847900390625</LongitudeDegrees>
            </Position>
            <AltitudeMeters>106.40000152587890625</AltitudeMeters>
            <DistanceMeters>NAN</DistanceMeters>
          </Trackpoint>
          <Trackpoint>
            <Time>2022-07-14T18:58:03.000Z</Time>
            <Position>
              <LatitudeDegrees>43.38724480010569095611572265625</LatitudeDegrees>
              <LongitudeDegrees>-4.30930632166564464569091796875</LongitudeDegrees>
            </Position>
            <AltitudeMeters>106.59999847412109375</AltitudeMeters>
            <DistanceMeters>NAN</DistanceMeters>
          </Trackpoint>
          <Trackpoint>
            <Time>2022-07-14T18:58:04.000Z</Time>
            <Position>
              <LatitudeDegrees>43.3872321434319019317626953125</LatitudeDegrees>
              <LongitudeDegrees>-4.3092904798686504364013671875</LongitudeDegrees>
            </Position>
            <AltitudeMeters>106.59999847412109375</AltitudeMeters>
            <DistanceMeters>NAN</DistanceMeters>
          </Trackpoint>
          <Trackpoint>
            <Time>2022-07-14T18:58:08.000Z</Time>
            <Position>
              <LatitudeDegrees>43.387222923338413238525390625</LatitudeDegrees>
              <LongitudeDegrees>-4.3092053197324275970458984375</LongitudeDegrees>
            </Position>
            <AltitudeMeters>107</AltitudeMeters>
            <DistanceMeters>NAN</DistanceMeters>
          </Trackpoint>
          <Trackpoint>
            <Time>2022-07-14T18:58:10.000Z</Time>
            <Position>
              <LatitudeDegrees>43.38722527027130126953125</LatitudeDegrees>
              <LongitudeDegrees>-4.30916014127433300018310546875</LongitudeDegrees>
            </Position>
            <AltitudeMeters>107.59999847412109375</AltitudeMeters>
            <DistanceMeters>NAN</DistanceMeters>
          </Trackpoint>
          <Trackpoint>
            <Time>2022-07-14T18:58:16.000Z</Time>
            <Position>
              <LatitudeDegrees>43.38720993138849735260009765625</LatitudeDegrees>
              <LongitudeDegrees>-4.3090222589671611785888671875</LongitudeDegrees>
            </Position>
            <AltitudeMeters>108.59999847412109375</AltitudeMeters>
            <DistanceMeters>NAN</DistanceMeters>
          </Trackpoint>
          <Trackpoint>
            <Time>2022-07-14T18:58:17.000Z</Time>
            <Position>
              <LatitudeDegrees>43.387208841741085052490234375</LatitudeDegrees>
              <LongitudeDegrees>-4.3089969456195831298828125</LongitudeDegrees>
            </Position>
            <AltitudeMeters>108.8000030517578125</AltitudeMeters>
            <DistanceMeters>NAN</DistanceMeters>
          </Trackpoint>
          <Trackpoint>
            <Time>2022-07-14T18:58:24.000Z</Time>
            <Position>
              <LatitudeDegrees>43.38722334243357181549072265625</LatitudeDegrees>
              <LongitudeDegrees>-4.30881514213979244232177734375</LongitudeDegrees>
            </Position>
            <AltitudeMeters>109.59999847412109375</AltitudeMeters>
            <DistanceMeters>NAN</DistanceMeters>
          </Trackpoint>
          <Trackpoint>
            <Time>2022-07-14T18:58:27.000Z</Time>
            <Position>
              <LatitudeDegrees>43.3872204087674617767333984375</LatitudeDegrees>
              <LongitudeDegrees>-4.30874322541058063507080078125</LongitudeDegrees>
            </Position>
            <AltitudeMeters>109.8000030517578125</AltitudeMeters>
            <DistanceMeters>NAN</DistanceMeters>
          </Trackpoint>
          <Trackpoint>
            <Time>2022-07-14T18:58:33.000Z</Time>
            <Position>
              <LatitudeDegrees>43.38719333522021770477294921875</LatitudeDegrees>
              <LongitudeDegrees>-4.308598972856998443603515625</LongitudeDegrees>
            </Position>
            <AltitudeMeters>110.1999969482421875</AltitudeMeters>
            <DistanceMeters>NAN</DistanceMeters>
          </Trackpoint>
          <Trackpoint>
            <Time>2022-07-14T18:58:40.000Z</Time>
            <Position>
              <LatitudeDegrees>43.387137092649936676025390625</LatitudeDegrees>
              <LongitudeDegrees>-4.30847416631877422332763671875</LongitudeDegrees>
            </Position>
            <AltitudeMeters>110.8000030517578125</AltitudeMeters>
            <DistanceMeters>NAN</DistanceMeters>
          </Trackpoint>
          <Trackpoint>
            <Time>2022-07-14T18:58:41.000Z</Time>
            <Position>
              <LatitudeDegrees>43.38712929747998714447021484375</LatitudeDegrees>
              <LongitudeDegrees>-4.3084551393985748291015625</LongitudeDegrees>
            </Position>
            <AltitudeMeters>111</AltitudeMeters>
            <DistanceMeters>NAN</DistanceMeters>
          </Trackpoint>
          <Trackpoint>
            <Time>2022-07-14T18:58:49.000Z</Time>
            <Position>
              <LatitudeDegrees>43.387072719633579254150390625</LatitudeDegrees>
              <LongitudeDegrees>-4.30827677249908447265625</LongitudeDegrees>
            </Position>
            <AltitudeMeters>111.8000030517578125</AltitudeMeters>
            <DistanceMeters>NAN</DistanceMeters>
          </Trackpoint>
          <Trackpoint>
            <Time>2022-07-14T18:58:50.000Z</Time>
            <Position>
              <LatitudeDegrees>43.387068025767803192138671875</LatitudeDegrees>
              <LongitudeDegrees>-4.30825590156018733978271484375</LongitudeDegrees>
            </Position>
            <AltitudeMeters>112</AltitudeMeters>
            <DistanceMeters>NAN</DistanceMeters>
          </Trackpoint>
          <Trackpoint>
            <Time>2022-07-14T18:58:56.000Z</Time>
            <Position>
              <LatitudeDegrees>43.38701899163424968719482421875</LatitudeDegrees>
              <LongitudeDegrees>-4.3081160075962543487548828125</LongitudeDegrees>
            </Position>
            <AltitudeMeters>112</AltitudeMeters>
            <DistanceMeters>NAN</DistanceMeters>
          </Trackpoint>
          <Trackpoint>
            <Time>2022-07-14T18:59:01.000Z</Time>
            <Position>
              <LatitudeDegrees>43.38699250482022762298583984375</LatitudeDegrees>
              <LongitudeDegrees>-4.30790805257856845855712890625</LongitudeDegrees>
            </Position>
            <AltitudeMeters>111.59999847412109375</AltitudeMeters>
            <DistanceMeters>NAN</DistanceMeters>
          </Trackpoint>
          <Trackpoint>
            <Time>2022-07-14T18:59:03.000Z</Time>
            <Position>
              <LatitudeDegrees>43.38698261417448520660400390625</LatitudeDegrees>
              <LongitudeDegrees>-4.30782616138458251953125</LongitudeDegrees>
            </Position>
            <AltitudeMeters>111.1999969482421875</AltitudeMeters>
            <DistanceMeters>NAN</DistanceMeters>
          </Trackpoint>
          <Trackpoint>
            <Time>2022-07-14T18:59:05.000Z</Time>
            <Position>
              <LatitudeDegrees>43.386978842318058013916015625</LatitudeDegrees>
              <LongitudeDegrees>-4.307764805853366851806640625</LongitudeDegrees>
            </Position>
            <AltitudeMeters>110.8000030517578125</AltitudeMeters>
            <DistanceMeters>NAN</DistanceMeters>
          </Trackpoint>
          <Trackpoint>
            <Time>2022-07-14T18:59:07.000Z</Time>
            <Position>
              <LatitudeDegrees>43.38697515428066253662109375</LatitudeDegrees>
              <LongitudeDegrees>-4.3077076412737369537353515625</LongitudeDegrees>
            </Position>
            <AltitudeMeters>110</AltitudeMeters>
            <DistanceMeters>NAN</DistanceMeters>
          </Trackpoint>
          <Trackpoint>
            <Time>2022-07-14T18:59:09.000Z</Time>
            <Position>
              <LatitudeDegrees>43.38697087951004505157470703125</LatitudeDegrees>
              <LongitudeDegrees>-4.30765575729310512542724609375</LongitudeDegrees>
            </Position>
            <AltitudeMeters>109.59999847412109375</AltitudeMeters>
            <DistanceMeters>NAN</DistanceMeters>
          </Trackpoint>
          <Trackpoint>
            <Time>2022-07-14T18:59:12.000Z</Time>
            <Position>
              <LatitudeDegrees>43.38698730804026126861572265625</LatitudeDegrees>
              <LongitudeDegrees>-4.30754193104803562164306640625</LongitudeDegrees>
            </Position>
            <AltitudeMeters>109</AltitudeMeters>
            <DistanceMeters>NAN</DistanceMeters>
          </Trackpoint>
          <Trackpoint>
            <Time>2022-07-14T18:59:18.000Z</Time>
            <Position>
              <LatitudeDegrees>43.38705738075077533721923828125</LatitudeDegrees>
              <LongitudeDegrees>-4.3073086626827716827392578125</LongitudeDegrees>
            </Position>
            <AltitudeMeters>108.40000152587890625</AltitudeMeters>
            <DistanceMeters>NAN</DistanceMeters>
          </Trackpoint>
          <Trackpoint>
            <Time>2022-07-14T18:59:19.000Z</Time>
            <Position>
              <LatitudeDegrees>43.38706794194877147674560546875</LatitudeDegrees>
              <LongitudeDegrees>-4.30726549588143825531005859375</LongitudeDegrees>
            </Position>
            <AltitudeMeters>108.1999969482421875</AltitudeMeters>
            <DistanceMeters>NAN</DistanceMeters>
          </Trackpoint>
          <Trackpoint>
            <Time>2022-07-14T18:59:22.000Z</Time>
            <Position>
              <LatitudeDegrees>43.38708378374576568603515625</LatitudeDegrees>
              <LongitudeDegrees>-4.30715150199830532073974609375</LongitudeDegrees>
            </Position>
            <AltitudeMeters>107.1999969482421875</AltitudeMeters>
            <DistanceMeters>NAN</DistanceMeters>
          </Trackpoint>
          <Trackpoint>
            <Time>2022-07-14T18:59:25.000Z</Time>
            <Position>
              <LatitudeDegrees>43.38707548566162586212158203125</LatitudeDegrees>
              <LongitudeDegrees>-4.3070515058934688568115234375</LongitudeDegrees>
            </Position>
            <AltitudeMeters>106.1999969482421875</AltitudeMeters>
            <DistanceMeters>NAN</DistanceMeters>
          </Trackpoint>
          <Trackpoint>
            <Time>2022-07-14T18:59:26.000Z</Time>
            <Position>
              <LatitudeDegrees>43.38706576265394687652587890625</LatitudeDegrees>
              <LongitudeDegrees>-4.30702158249914646148681640625</LongitudeDegrees>
            </Position>
            <AltitudeMeters>105.8000030517578125</AltitudeMeters>
            <DistanceMeters>NAN</DistanceMeters>
          </Trackpoint>
          <Trackpoint>
            <Time>2022-07-14T18:59:30.000Z</Time>
            <Position>
              <LatitudeDegrees>43.3870319835841655731201171875</LatitudeDegrees>
              <LongitudeDegrees>-4.306925944983959197998046875</LongitudeDegrees>
            </Position>
            <AltitudeMeters>104.1999969482421875</AltitudeMeters>
            <DistanceMeters>NAN</DistanceMeters>
          </Trackpoint>
          <Trackpoint>
            <Time>2022-07-14T18:59:31.000Z</Time>
            <Position>
              <LatitudeDegrees>43.38702620007097721099853515625</LatitudeDegrees>
              <LongitudeDegrees>-4.30689652450382709503173828125</LongitudeDegrees>
            </Position>
            <AltitudeMeters>103.8000030517578125</AltitudeMeters>
            <DistanceMeters>NAN</DistanceMeters>
          </Trackpoint>
          <Trackpoint>
            <Time>2022-07-14T18:59:33.000Z</Time>
            <Position>
              <LatitudeDegrees>43.3870199136435985565185546875</LatitudeDegrees>
              <LongitudeDegrees>-4.30682368576526641845703125</LongitudeDegrees>
            </Position>
            <AltitudeMeters>103</AltitudeMeters>
            <DistanceMeters>NAN</DistanceMeters>
          </Trackpoint>
          <Trackpoint>
            <Time>2022-07-14T18:59:37.000Z</Time>
            <Position>
              <LatitudeDegrees>43.38694774545729160308837890625</LatitudeDegrees>
              <LongitudeDegrees>-4.30665696971118450164794921875</LongitudeDegrees>
            </Position>
            <AltitudeMeters>101.8000030517578125</AltitudeMeters>
            <DistanceMeters>NAN</DistanceMeters>
          </Trackpoint>
          <Trackpoint>
            <Time>2022-07-14T18:59:43.000Z</Time>
            <Position>
              <LatitudeDegrees>43.38683559559285640716552734375</LatitudeDegrees>
              <LongitudeDegrees>-4.30644415318965911865234375</LongitudeDegrees>
            </Position>
            <AltitudeMeters>100.40000152587890625</AltitudeMeters>
            <DistanceMeters>NAN</DistanceMeters>
          </Trackpoint>
          <Trackpoint>
            <Time>2022-07-14T18:59:49.000Z</Time>
            <Position>
              <LatitudeDegrees>43.38674188591539859771728515625</LatitudeDegrees>
              <LongitudeDegrees>-4.30622630752623081207275390625</LongitudeDegrees>
            </Position>
            <AltitudeMeters>99.40000152587890625</AltitudeMeters>
            <DistanceMeters>NAN</DistanceMeters>
          </Trackpoint>
          <Trackpoint>
            <Time>2022-07-14T18:59:50.000Z</Time>
            <Position>
              <LatitudeDegrees>43.38672780431807041168212890625</LatitudeDegrees>
              <LongitudeDegrees>-4.30619277991354465484619140625</LongitudeDegrees>
            </Position>
            <AltitudeMeters>99.1999969482421875</AltitudeMeters>
            <DistanceMeters>NAN</DistanceMeters>
          </Trackpoint>
          <Trackpoint>
            <Time>2022-07-14T18:59:55.000Z</Time>
            <Position>
              <LatitudeDegrees>43.38665706105530261993408203125</LatitudeDegrees>
              <LongitudeDegrees>-4.306031428277492523193359375</LongitudeDegrees>
            </Position>
            <AltitudeMeters>98.1999969482421875</AltitudeMeters>
            <DistanceMeters>NAN</DistanceMeters>
          </Trackpoint>
          <Trackpoint>
            <Time>2022-07-14T18:59:57.000Z</Time>
            <Position>
              <LatitudeDegrees>43.3866242878139019012451171875</LatitudeDegrees>
              <LongitudeDegrees>-4.3059662170708179473876953125</LongitudeDegrees>
            </Position>
            <AltitudeMeters>97.8000030517578125</AltitudeMeters>
            <DistanceMeters>NAN</DistanceMeters>
          </Trackpoint>
          <Trackpoint>
            <Time>2022-07-14T19:00:01.000Z</Time>
            <Position>
              <LatitudeDegrees>43.38656888343393802642822265625</LatitudeDegrees>
              <LongitudeDegrees>-4.3057915382087230682373046875</LongitudeDegrees>
            </Position>
            <AltitudeMeters>97.40000152587890625</AltitudeMeters>
            <DistanceMeters>NAN</DistanceMeters>
          </Trackpoint>
          <Trackpoint>
            <Time>2022-07-14T19:00:02.000Z</Time>
            <Position>
              <LatitudeDegrees>43.38656117208302021026611328125</LatitudeDegrees>
              <LongitudeDegrees>-4.30574853904545307159423828125</LongitudeDegrees>
            </Position>
            <AltitudeMeters>97.1999969482421875</AltitudeMeters>
            <DistanceMeters>NAN</DistanceMeters>
          </Trackpoint>
          <Trackpoint>
            <Time>2022-07-14T19:00:03.000Z</Time>
            <Position>
              <LatitudeDegrees>43.3865568973124027252197265625</LatitudeDegrees>
              <LongitudeDegrees>-4.30570595897734165191650390625</LongitudeDegrees>
            </Position>
            <AltitudeMeters>97.1999969482421875</AltitudeMeters>
            <DistanceMeters>NAN</DistanceMeters>
          </Trackpoint>
          <Trackpoint>
            <Time>2022-07-14T19:00:07.000Z</Time>
            <Position>
              <LatitudeDegrees>43.3865351043641567230224609375</LatitudeDegrees>
              <LongitudeDegrees>-4.30554821155965328216552734375</LongitudeDegrees>
            </Position>
            <AltitudeMeters>96.59999847412109375</AltitudeMeters>
            <DistanceMeters>NAN</DistanceMeters>
          </Trackpoint>
          <Trackpoint>
            <Time>2022-07-14T19:00:09.000Z</Time>
            <Position>
              <LatitudeDegrees>43.38652412407100200653076171875</LatitudeDegrees>
              <LongitudeDegrees>-4.30548216216266155242919921875</LongitudeDegrees>
            </Position>
            <AltitudeMeters>96.1999969482421875</AltitudeMeters>
            <DistanceMeters>NAN</DistanceMeters>
          </Trackpoint>
          <Trackpoint>
            <Time>2022-07-14T19:00:11.000Z</Time>
            <Position>
              <LatitudeDegrees>43.38652797974646091461181640625</LatitudeDegrees>
              <LongitudeDegrees>-4.3054207228124141693115234375</LongitudeDegrees>
            </Position>
            <AltitudeMeters>95.59999847412109375</AltitudeMeters>
            <DistanceMeters>NAN</DistanceMeters>
          </Trackpoint>
          <Trackpoint>
            <Time>2022-07-14T19:00:13.000Z</Time>
            <Position>
              <LatitudeDegrees>43.386558406054973602294921875</LatitudeDegrees>
              <LongitudeDegrees>-4.30538325570523738861083984375</LongitudeDegrees>
            </Position>
            <AltitudeMeters>95.1999969482421875</AltitudeMeters>
            <DistanceMeters>NAN</DistanceMeters>
          </Trackpoint>
          <Trackpoint>
            <Time>2022-07-14T19:00:14.000Z</Time>
            <Position>
              <LatitudeDegrees>43.38657927699387073516845703125</LatitudeDegrees>
              <LongitudeDegrees>-4.30536699481308460235595703125</LongitudeDegrees>
            </Position>
            <AltitudeMeters>95.1999969482421875</AltitudeMeters>
            <DistanceMeters>NAN</DistanceMeters>
          </Trackpoint>
          <Trackpoint>
            <Time>2022-07-14T19:00:18.000Z</Time>
            <Position>
              <LatitudeDegrees>43.38668170385062694549560546875</LatitudeDegrees>
              <LongitudeDegrees>-4.30527680553495883941650390625</LongitudeDegrees>
            </Position>
            <AltitudeMeters>94.1999969482421875</AltitudeMeters>
            <DistanceMeters>NAN</DistanceMeters>
          </Trackpoint>
          <Trackpoint>
            <Time>2022-07-14T19:00:21.000Z</Time>
            <Position>
              <LatitudeDegrees>43.38676535524427890777587890625</LatitudeDegrees>
              <LongitudeDegrees>-4.30518276058137416839599609375</LongitudeDegrees>
            </Position>
            <AltitudeMeters>94</AltitudeMeters>
            <DistanceMeters>NAN</DistanceMeters>
          </Trackpoint>
          <Trackpoint>
            <Time>2022-07-14T19:00:25.000Z</Time>
            <Position>
              <LatitudeDegrees>43.3868402056396007537841796875</LatitudeDegrees>
              <LongitudeDegrees>-4.30504999123513698577880859375</LongitudeDegrees>
            </Position>
            <AltitudeMeters>94</AltitudeMeters>
            <DistanceMeters>NAN</DistanceMeters>
          </Trackpoint>
          <Trackpoint>
            <Time>2022-07-14T19:00:31.000Z</Time>
            <Position>
              <LatitudeDegrees>43.38691882789134979248046875</LatitudeDegrees>
              <LongitudeDegrees>-4.30489920079708099365234375</LongitudeDegrees>
            </Position>
            <AltitudeMeters>94.1999969482421875</AltitudeMeters>
            <DistanceMeters>NAN</DistanceMeters>
          </Trackpoint>
          <Trackpoint>
            <Time>2022-07-14T19:00:40.000Z</Time>
            <Position>
              <LatitudeDegrees>43.38703558780252933502197265625</LatitudeDegrees>
              <LongitudeDegrees>-4.30460373871028423309326171875</LongitudeDegrees>
            </Position>
            <AltitudeMeters>94.40000152587890625</AltitudeMeters>
            <DistanceMeters>NAN</DistanceMeters>
          </Trackpoint>
          <Trackpoint>
            <Time>2022-07-14T19:00:45.000Z</Time>
            <Position>
              <LatitudeDegrees>43.387097530066967010498046875</LatitudeDegrees>
              <LongitudeDegrees>-4.3044613301753997802734375</LongitudeDegrees>
            </Position>
            <AltitudeMeters>94.59999847412109375</AltitudeMeters>
            <DistanceMeters>NAN</DistanceMeters>
          </Trackpoint>
          <Trackpoint>
            <Time>2022-07-14T19:00:50.000Z</Time>
            <Position>
              <LatitudeDegrees>43.38713985867798328399658203125</LatitudeDegrees>
              <LongitudeDegrees>-4.30429478175938129425048828125</LongitudeDegrees>
            </Position>
            <AltitudeMeters>94.59999847412109375</AltitudeMeters>
            <DistanceMeters>NAN</DistanceMeters>
          </Trackpoint>
          <Trackpoint>
            <Time>2022-07-14T19:00:56.000Z</Time>
            <Position>
              <LatitudeDegrees>43.38711370714008808135986328125</LatitudeDegrees>
              <LongitudeDegrees>-4.30410434491932392120361328125</LongitudeDegrees>
            </Position>
            <AltitudeMeters>94.8000030517578125</AltitudeMeters>
            <DistanceMeters>NAN</DistanceMeters>
          </Trackpoint>
          <Trackpoint>
            <Time>2022-07-14T19:01:00.000Z</Time>
            <Position>
              <LatitudeDegrees>43.3870450593531131744384765625</LatitudeDegrees>
              <LongitudeDegrees>-4.30403460748493671417236328125</LongitudeDegrees>
            </Position>
            <AltitudeMeters>94.8000030517578125</AltitudeMeters>
            <DistanceMeters>NAN</DistanceMeters>
          </Trackpoint>
          <Trackpoint>
            <Time>2022-07-14T19:01:02.000Z</Time>
            <Position>
              <LatitudeDegrees>43.38699929416179656982421875</LatitudeDegrees>
              <LongitudeDegrees>-4.304009713232517242431640625</LongitudeDegrees>
            </Position>
            <AltitudeMeters>94.8000030517578125</AltitudeMeters>
            <DistanceMeters>NAN</DistanceMeters>
          </Trackpoint>
          <Trackpoint>
            <Time>2022-07-14T19:01:04.000Z</Time>
            <Position>
              <LatitudeDegrees>43.38695093058049678802490234375</LatitudeDegrees>
              <LongitudeDegrees>-4.3039787001907825469970703125</LongitudeDegrees>
            </Position>
            <AltitudeMeters>94.59999847412109375</AltitudeMeters>
            <DistanceMeters>NAN</DistanceMeters>
          </Trackpoint>
          <Trackpoint>
            <Time>2022-07-14T19:01:11.000Z</Time>
            <Position>
              <LatitudeDegrees>43.38679368607699871063232421875</LatitudeDegrees>
              <LongitudeDegrees>-4.303907789289951324462890625</LongitudeDegrees>
            </Position>
            <AltitudeMeters>93</AltitudeMeters>
            <DistanceMeters>NAN</DistanceMeters>
          </Trackpoint>
          <Trackpoint>
            <Time>2022-07-14T19:01:15.000Z</Time>
            <Position>
              <LatitudeDegrees>43.3867034129798412322998046875</LatitudeDegrees>
              <LongitudeDegrees>-4.3038878403604030609130859375</LongitudeDegrees>
            </Position>
            <AltitudeMeters>92.1999969482421875</AltitudeMeters>
            <DistanceMeters>NAN</DistanceMeters>
          </Trackpoint>
          <Trackpoint>
            <Time>2022-07-14T19:01:17.000Z</Time>
            <Position>
              <LatitudeDegrees>43.38665060698986053466796875</LatitudeDegrees>
              <LongitudeDegrees>-4.3038784526288509368896484375</LongitudeDegrees>
            </Position>
            <AltitudeMeters>92</AltitudeMeters>
            <DistanceMeters>NAN</DistanceMeters>
          </Trackpoint>
          <Trackpoint>
            <Time>2022-07-14T19:01:23.000Z</Time>
            <Position>
              <LatitudeDegrees>43.38650920428335666656494140625</LatitudeDegrees>
              <LongitudeDegrees>-4.3038281612098217010498046875</LongitudeDegrees>
            </Position>
            <AltitudeMeters>90.8000030517578125</AltitudeMeters>
            <DistanceMeters>NAN</DistanceMeters>
          </Trackpoint>
          <Trackpoint>
            <Time>2022-07-14T19:01:24.000Z</Time>
            <Position>
              <LatitudeDegrees>43.38648741133511066436767578125</LatitudeDegrees>
              <LongitudeDegrees>-4.30381734855473041534423828125</LongitudeDegrees>
            </Position>
            <AltitudeMeters>90.59999847412109375</AltitudeMeters>
            <DistanceMeters>NAN</DistanceMeters>
          </Trackpoint>
          <Trackpoint>
            <Time>2022-07-14T19:01:27.000Z</Time>
            <Position>
              <LatitudeDegrees>43.38644114322960376739501953125</LatitudeDegrees>
              <LongitudeDegrees>-4.30380242876708507537841796875</LongitudeDegrees>
            </Position>
            <AltitudeMeters>90.40000152587890625</AltitudeMeters>
            <DistanceMeters>NAN</DistanceMeters>
          </Trackpoint>
          <Trackpoint>
            <Time>2022-07-14T19:01:29.000Z</Time>
            <Position>
              <LatitudeDegrees>43.386420942842960357666015625</LatitudeDegrees>
              <LongitudeDegrees>-4.3038258142769336700439453125</LongitudeDegrees>
            </Position>
            <AltitudeMeters>90.40000152587890625</AltitudeMeters>
            <DistanceMeters>NAN</DistanceMeters>
          </Trackpoint>
          <Trackpoint>
            <Time>2022-07-14T19:01:31.000Z</Time>
            <Position>
              <LatitudeDegrees>43.38641717098653316497802734375</LatitudeDegrees>
              <LongitudeDegrees>-4.3038700707256793975830078125</LongitudeDegrees>
            </Position>
            <AltitudeMeters>90.1999969482421875</AltitudeMeters>
            <DistanceMeters>NAN</DistanceMeters>
          </Trackpoint>
          <Trackpoint>
            <Time>2022-07-14T19:01:34.000Z</Time>
            <Position>
              <LatitudeDegrees>43.38645237497985363006591796875</LatitudeDegrees>
              <LongitudeDegrees>-4.30393318645656108856201171875</LongitudeDegrees>
            </Position>
            <AltitudeMeters>90.1999969482421875</AltitudeMeters>
            <DistanceMeters>NAN</DistanceMeters>
          </Trackpoint>
          <Trackpoint>
            <Time>2022-07-14T19:01:43.000Z</Time>
            <Position>
              <LatitudeDegrees>43.38653929531574249267578125</LatitudeDegrees>
              <LongitudeDegrees>-4.30412915535271167755126953125</LongitudeDegrees>
            </Position>
            <AltitudeMeters>90.40000152587890625</AltitudeMeters>
            <DistanceMeters>NAN</DistanceMeters>
          </Trackpoint>
          <Trackpoint>
            <Time>2022-07-14T19:01:45.000Z</Time>
            <Position>
              <LatitudeDegrees>43.3865609206259250640869140625</LatitudeDegrees>
              <LongitudeDegrees>-4.30416603572666645050048828125</LongitudeDegrees>
            </Position>
            <AltitudeMeters>90.59999847412109375</AltitudeMeters>
            <DistanceMeters>NAN</DistanceMeters>
          </Trackpoint>
          <Trackpoint>
            <Time>2022-07-14T19:01:49.000Z</Time>
            <Position>
              <LatitudeDegrees>43.38658095337450504302978515625</LatitudeDegrees>
              <LongitudeDegrees>-4.304249770939350128173828125</LongitudeDegrees>
            </Position>
            <AltitudeMeters>90.8000030517578125</AltitudeMeters>
            <DistanceMeters>NAN</DistanceMeters>
          </Trackpoint>
          <Trackpoint>
            <Time>2022-07-14T19:01:51.000Z</Time>
            <Position>
              <LatitudeDegrees>43.38659537024796009063720703125</LatitudeDegrees>
              <LongitudeDegrees>-4.30428455583751201629638671875</LongitudeDegrees>
            </Position>
            <AltitudeMeters>90.8000030517578125</AltitudeMeters>
            <DistanceMeters>NAN</DistanceMeters>
          </Trackpoint>
          <Trackpoint>
            <Time>2022-07-14T19:01:53.000Z</Time>
            <Position>
              <LatitudeDegrees>43.386607356369495391845703125</LatitudeDegrees>
              <LongitudeDegrees>-4.3043206818401813507080078125</LongitudeDegrees>
            </Position>
            <AltitudeMeters>90.8000030517578125</AltitudeMeters>
            <DistanceMeters>NAN</DistanceMeters>
          </Trackpoint>
          <Trackpoint>
            <Time>2022-07-14T19:01:58.000Z</Time>
            <Position>
              <LatitudeDegrees>43.38661900721490383148193359375</LatitudeDegrees>
              <LongitudeDegrees>-4.30442285723984241485595703125</LongitudeDegrees>
            </Position>
            <AltitudeMeters>91</AltitudeMeters>
            <DistanceMeters>NAN</DistanceMeters>
          </Trackpoint>
          <Trackpoint>
            <Time>2022-07-14T19:02:06.000Z</Time>
            <Position>
              <LatitudeDegrees>43.38663518428802490234375</LatitudeDegrees>
              <LongitudeDegrees>-4.30453383363783359527587890625</LongitudeDegrees>
            </Position>
            <AltitudeMeters>91.1999969482421875</AltitudeMeters>
            <DistanceMeters>NAN</DistanceMeters>
          </Trackpoint>
          <Trackpoint>
            <Time>2022-07-14T19:02:20.000Z</Time>
            <Position>
              <LatitudeDegrees>43.38663845323026180267333984375</LatitudeDegrees>
              <LongitudeDegrees>-4.30458496324717998504638671875</LongitudeDegrees>
            </Position>
            <AltitudeMeters>91.40000152587890625</AltitudeMeters>
            <DistanceMeters>NAN</DistanceMeters>
          </Trackpoint>
          <Trackpoint>
            <Time>2022-07-14T19:02:21.000Z</Time>
            <Position>
              <LatitudeDegrees>43.38664080016314983367919921875</LatitudeDegrees>
              <LongitudeDegrees>-4.3046093545854091644287109375</LongitudeDegrees>
            </Position>
            <AltitudeMeters>91.40000152587890625</AltitudeMeters>
            <DistanceMeters>NAN</DistanceMeters>
          </Trackpoint>
          <Trackpoint>
            <Time>2022-07-14T19:02:23.000Z</Time>
            <Position>
              <LatitudeDegrees>43.3866534568369388580322265625</LatitudeDegrees>
              <LongitudeDegrees>-4.30465268902480602264404296875</LongitudeDegrees>
            </Position>
            <AltitudeMeters>91.40000152587890625</AltitudeMeters>
            <DistanceMeters>NAN</DistanceMeters>
          </Trackpoint>
          <Trackpoint>
            <Time>2022-07-14T19:02:26.000Z</Time>
            <Position>
              <LatitudeDegrees>43.38667399249970912933349609375</LatitudeDegrees>
              <LongitudeDegrees>-4.30471605621278285980224609375</LongitudeDegrees>
            </Position>
            <AltitudeMeters>91.59999847412109375</AltitudeMeters>
            <DistanceMeters>NAN</DistanceMeters>
          </Trackpoint>
          <Trackpoint>
            <Time>2022-07-14T19:02:31.000Z</Time>
            <Position>
              <LatitudeDegrees>43.38668555952608585357666015625</LatitudeDegrees>
              <LongitudeDegrees>-4.30476735346019268035888671875</LongitudeDegrees>
            </Position>
            <AltitudeMeters>91.8000030517578125</AltitudeMeters>
            <DistanceMeters>NAN</DistanceMeters>
          </Trackpoint>
          <Trackpoint>
            <Time>2022-07-14T19:02:32.000Z</Time>
            <Position>
              <LatitudeDegrees>43.38668555952608585357666015625</LatitudeDegrees>
              <LongitudeDegrees>-4.30476735346019268035888671875</LongitudeDegrees>
            </Position>
            <AltitudeMeters>91.8000030517578125</AltitudeMeters>
            <DistanceMeters>NAN</DistanceMeters>
          </Trackpoint>
          <Trackpoint>
            <Time>2022-07-14T19:02:39.000Z</Time>
            <Position>
              <LatitudeDegrees>43.38667835108935832977294921875</LatitudeDegrees>
              <LongitudeDegrees>-4.304823763668537139892578125</LongitudeDegrees>
            </Position>
            <AltitudeMeters>91.8000030517578125</AltitudeMeters>
            <DistanceMeters>NAN</DistanceMeters>
          </Trackpoint>
          <Trackpoint>
            <Time>2022-07-14T19:02:41.000Z</Time>
            <Position>
              <LatitudeDegrees>43.38667885400354862213134765625</LatitudeDegrees>
              <LongitudeDegrees>-4.30487279780209064483642578125</LongitudeDegrees>
            </Position>
            <AltitudeMeters>92</AltitudeMeters>
            <DistanceMeters>NAN</DistanceMeters>
          </Trackpoint>
          <Trackpoint>
            <Time>2022-07-14T19:02:42.000Z</Time>
            <Position>
              <LatitudeDegrees>43.38668287731707096099853515625</LatitudeDegrees>
              <LongitudeDegrees>-4.3048946745693683624267578125</LongitudeDegrees>
            </Position>
            <AltitudeMeters>92.1999969482421875</AltitudeMeters>
            <DistanceMeters>NAN</DistanceMeters>
          </Trackpoint>
          <Trackpoint>
            <Time>2022-07-14T19:02:48.000Z</Time>
            <Position>
              <LatitudeDegrees>43.386695198714733123779296875</LatitudeDegrees>
              <LongitudeDegrees>-4.30501713417470455169677734375</LongitudeDegrees>
            </Position>
            <AltitudeMeters>92.8000030517578125</AltitudeMeters>
            <DistanceMeters>NAN</DistanceMeters>
          </Trackpoint>
          <Trackpoint>
            <Time>2022-07-14T19:02:50.000Z</Time>
            <Position>
              <LatitudeDegrees>43.38669679127633571624755859375</LatitudeDegrees>
              <LongitudeDegrees>-4.30505032651126384735107421875</LongitudeDegrees>
            </Position>
            <AltitudeMeters>93</AltitudeMeters>
            <DistanceMeters>NAN</DistanceMeters>
          </Trackpoint>
          <Trackpoint>
            <Time>2022-07-14T19:02:51.000Z</Time>
            <Position>
              <LatitudeDegrees>43.38669679127633571624755859375</LatitudeDegrees>
              <LongitudeDegrees>-4.30505032651126384735107421875</LongitudeDegrees>
            </Position>
            <AltitudeMeters>93.1999969482421875</AltitudeMeters>
            <DistanceMeters>NAN</DistanceMeters>
          </Trackpoint>
          <Trackpoint>
            <Time>2022-07-14T19:02:53.000Z</Time>
            <Position>
              <LatitudeDegrees>43.38669679127633571624755859375</LatitudeDegrees>
              <LongitudeDegrees>-4.30505032651126384735107421875</LongitudeDegrees>
            </Position>
            <AltitudeMeters>93.1999969482421875</AltitudeMeters>
            <DistanceMeters>NAN</DistanceMeters>
          </Trackpoint>
          <Trackpoint>
            <Time>2022-07-14T19:20:37.000Z</Time>
            <Position>
              <LatitudeDegrees>43.38650710880756378173828125</LatitudeDegrees>
              <LongitudeDegrees>-4.30469392798840999603271484375</LongitudeDegrees>
            </Position>
            <AltitudeMeters>56.200000762939453125</AltitudeMeters>
            <DistanceMeters>NAN</DistanceMeters>
          </Trackpoint>
          <Trackpoint>
            <Time>2022-07-14T19:20:44.000Z</Time>
            <Position>
              <LatitudeDegrees>43.38650844991207122802734375</LatitudeDegrees>
              <LongitudeDegrees>-4.30450986139476299285888671875</LongitudeDegrees>
            </Position>
            <AltitudeMeters>56.200000762939453125</AltitudeMeters>
            <DistanceMeters>NAN</DistanceMeters>
          </Trackpoint>
          <Trackpoint>
            <Time>2022-07-14T19:20:49.000Z</Time>
            <Position>
              <LatitudeDegrees>43.38646947406232357025146484375</LatitudeDegrees>
              <LongitudeDegrees>-4.30434490554034709930419921875</LongitudeDegrees>
            </Position>
            <AltitudeMeters>55.799999237060546875</AltitudeMeters>
            <DistanceMeters>NAN</DistanceMeters>
          </Trackpoint>
          <Trackpoint>
            <Time>2022-07-14T19:20:57.000Z</Time>
            <Position>
              <LatitudeDegrees>43.3864107169210910797119140625</LatitudeDegrees>
              <LongitudeDegrees>-4.304087497293949127197265625</LongitudeDegrees>
            </Position>
            <AltitudeMeters>55.799999237060546875</AltitudeMeters>
            <DistanceMeters>NAN</DistanceMeters>
          </Trackpoint>
          <Trackpoint>
            <Time>2022-07-14T19:21:05.000Z</Time>
            <Position>
              <LatitudeDegrees>43.3863979764282703399658203125</LatitudeDegrees>
              <LongitudeDegrees>-4.30386227555572986602783203125</LongitudeDegrees>
            </Position>
            <AltitudeMeters>56.200000762939453125</AltitudeMeters>
            <DistanceMeters>NAN</DistanceMeters>
          </Trackpoint>
          <Trackpoint>
            <Time>2022-07-14T19:21:07.000Z</Time>
            <Position>
              <LatitudeDegrees>43.38641859591007232666015625</LatitudeDegrees>
              <LongitudeDegrees>-4.3038229644298553466796875</LongitudeDegrees>
            </Position>
            <AltitudeMeters>56.40000152587890625</AltitudeMeters>
            <DistanceMeters>NAN</DistanceMeters>
          </Trackpoint>
          <Trackpoint>
            <Time>2022-07-14T19:21:09.000Z</Time>
            <Position>
              <LatitudeDegrees>43.3864449150860309600830078125</LatitudeDegrees>
              <LongitudeDegrees>-4.30380561389029026031494140625</LongitudeDegrees>
            </Position>
            <AltitudeMeters>57</AltitudeMeters>
            <DistanceMeters>NAN</DistanceMeters>
          </Trackpoint>
          <Trackpoint>
            <Time>2022-07-14T19:21:10.000Z</Time>
            <Position>
              <LatitudeDegrees>43.3864648640155792236328125</LatitudeDegrees>
              <LongitudeDegrees>-4.30380511097609996795654296875</LongitudeDegrees>
            </Position>
            <AltitudeMeters>57.200000762939453125</AltitudeMeters>
            <DistanceMeters>NAN</DistanceMeters>
          </Trackpoint>
          <Trackpoint>
            <Time>2022-07-14T19:21:16.000Z</Time>
            <Position>
              <LatitudeDegrees>43.38657693006098270416259765625</LatitudeDegrees>
              <LongitudeDegrees>-4.30388255976140499114990234375</LongitudeDegrees>
            </Position>
            <AltitudeMeters>57.40000152587890625</AltitudeMeters>
            <DistanceMeters>NAN</DistanceMeters>
          </Trackpoint>
          <Trackpoint>
            <Time>2022-07-14T19:21:17.000Z</Time>
            <Position>
              <LatitudeDegrees>43.386599309742450714111328125</LatitudeDegrees>
              <LongitudeDegrees>-4.30389077402651309967041015625</LongitudeDegrees>
            </Position>
            <AltitudeMeters>57.40000152587890625</AltitudeMeters>
            <DistanceMeters>NAN</DistanceMeters>
          </Trackpoint>
          <Trackpoint>
            <Time>2022-07-14T19:21:23.000Z</Time>
            <Position>
              <LatitudeDegrees>43.38669612072408199310302734375</LatitudeDegrees>
              <LongitudeDegrees>-4.30390753783285617828369140625</LongitudeDegrees>
            </Position>
            <AltitudeMeters>58.40000152587890625</AltitudeMeters>
            <DistanceMeters>NAN</DistanceMeters>
          </Trackpoint>
          <Trackpoint>
            <Time>2022-07-14T19:21:25.000Z</Time>
            <Position>
              <LatitudeDegrees>43.3867319114506244659423828125</LatitudeDegrees>
              <LongitudeDegrees>-4.3039141595363616943359375</LongitudeDegrees>
            </Position>
            <AltitudeMeters>59</AltitudeMeters>
            <DistanceMeters>NAN</DistanceMeters>
          </Trackpoint>
          <Trackpoint>
            <Time>2022-07-14T19:21:30.000Z</Time>
            <Position>
              <LatitudeDegrees>43.38682101108133792877197265625</LatitudeDegrees>
              <LongitudeDegrees>-4.30395481176674365997314453125</LongitudeDegrees>
            </Position>
            <AltitudeMeters>60</AltitudeMeters>
            <DistanceMeters>NAN</DistanceMeters>
          </Trackpoint>
          <Trackpoint>
            <Time>2022-07-14T19:21:32.000Z</Time>
            <Position>
              <LatitudeDegrees>43.38685051538050174713134765625</LatitudeDegrees>
              <LongitudeDegrees>-4.30396721698343753814697265625</LongitudeDegrees>
            </Position>
            <AltitudeMeters>60.59999847412109375</AltitudeMeters>
            <DistanceMeters>NAN</DistanceMeters>
          </Trackpoint>
          <Trackpoint>
            <Time>2022-07-14T19:21:37.000Z</Time>
            <Position>
              <LatitudeDegrees>43.3869220130145549774169921875</LatitudeDegrees>
              <LongitudeDegrees>-4.30400761775672435760498046875</LongitudeDegrees>
            </Position>
            <AltitudeMeters>61.200000762939453125</AltitudeMeters>
            <DistanceMeters>NAN</DistanceMeters>
          </Trackpoint>
          <Trackpoint>
            <Time>2022-07-14T19:21:41.000Z</Time>
            <Position>
              <LatitudeDegrees>43.3869838714599609375</LatitudeDegrees>
              <LongitudeDegrees>-4.3040350265800952911376953125</LongitudeDegrees>
            </Position>
            <AltitudeMeters>62.200000762939453125</AltitudeMeters>
            <DistanceMeters>NAN</DistanceMeters>
          </Trackpoint>
          <Trackpoint>
            <Time>2022-07-14T19:21:42.000Z</Time>
            <Position>
              <LatitudeDegrees>43.38699786923825740814208984375</LatitudeDegrees>
              <LongitudeDegrees>-4.30404089391231536865234375</LongitudeDegrees>
            </Position>
            <AltitudeMeters>62.40000152587890625</AltitudeMeters>
            <DistanceMeters>NAN</DistanceMeters>
          </Trackpoint>
          <Trackpoint>
            <Time>2022-07-14T19:21:43.000Z</Time>
            <Position>
              <LatitudeDegrees>43.38701178319752216339111328125</LatitudeDegrees>
              <LongitudeDegrees>-4.30404919199645519256591796875</LongitudeDegrees>
            </Position>
            <AltitudeMeters>62.40000152587890625</AltitudeMeters>
            <DistanceMeters>NAN</DistanceMeters>
          </Trackpoint>
          <Trackpoint>
            <Time>2022-07-14T19:21:46.000Z</Time>
            <Position>
              <LatitudeDegrees>43.387053944170475006103515625</LatitudeDegrees>
              <LongitudeDegrees>-4.304073750972747802734375</LongitudeDegrees>
            </Position>
            <AltitudeMeters>63.200000762939453125</AltitudeMeters>
            <DistanceMeters>NAN</DistanceMeters>
          </Trackpoint>
          <Trackpoint>
            <Time>2022-07-14T19:21:49.000Z</Time>
            <Position>
              <LatitudeDegrees>43.38709811680018901824951171875</LatitudeDegrees>
              <LongitudeDegrees>-4.30409981869161128997802734375</LongitudeDegrees>
            </Position>
            <AltitudeMeters>63.40000152587890625</AltitudeMeters>
            <DistanceMeters>NAN</DistanceMeters>
          </Trackpoint>
          <Trackpoint>
            <Time>2022-07-14T19:21:51.000Z</Time>
            <Position>
              <LatitudeDegrees>43.3871218375861644744873046875</LatitudeDegrees>
              <LongitudeDegrees>-4.3041265569627285003662109375</LongitudeDegrees>
            </Position>
            <AltitudeMeters>63.40000152587890625</AltitudeMeters>
            <DistanceMeters>NAN</DistanceMeters>
          </Trackpoint>
          <Trackpoint>
            <Time>2022-07-14T19:21:57.000Z</Time>
            <Position>
              <LatitudeDegrees>43.38713415898382663726806640625</LatitudeDegrees>
              <LongitudeDegrees>-4.30429042316973209381103515625</LongitudeDegrees>
            </Position>
            <AltitudeMeters>63.59999847412109375</AltitudeMeters>
            <DistanceMeters>NAN</DistanceMeters>
          </Trackpoint>
          <Trackpoint>
            <Time>2022-07-14T19:22:04.000Z</Time>
            <Position>
              <LatitudeDegrees>43.3870805986225605010986328125</LatitudeDegrees>
              <LongitudeDegrees>-4.3045094422996044158935546875</LongitudeDegrees>
            </Position>
            <AltitudeMeters>63.799999237060546875</AltitudeMeters>
            <DistanceMeters>NAN</DistanceMeters>
          </Trackpoint>
          <Trackpoint>
            <Time>2022-07-14T19:22:11.000Z</Time>
            <Position>
              <LatitudeDegrees>43.3869619108736515045166015625</LatitudeDegrees>
              <LongitudeDegrees>-4.30476014502346515655517578125</LongitudeDegrees>
            </Position>
            <AltitudeMeters>63.59999847412109375</AltitudeMeters>
            <DistanceMeters>NAN</DistanceMeters>
          </Trackpoint>
          <Trackpoint>
            <Time>2022-07-14T19:22:15.000Z</Time>
            <Position>
              <LatitudeDegrees>43.386909104883670806884765625</LatitudeDegrees>
              <LongitudeDegrees>-4.304890818893909454345703125</LongitudeDegrees>
            </Position>
            <AltitudeMeters>63.799999237060546875</AltitudeMeters>
            <DistanceMeters>NAN</DistanceMeters>
          </Trackpoint>
          <Trackpoint>
            <Time>2022-07-14T19:22:21.000Z</Time>
            <Position>
              <LatitudeDegrees>43.3868348412215709686279296875</LatitudeDegrees>
              <LongitudeDegrees>-4.3050656653940677642822265625</LongitudeDegrees>
            </Position>
            <AltitudeMeters>62.200000762939453125</AltitudeMeters>
            <DistanceMeters>NAN</DistanceMeters>
          </Trackpoint>
          <Trackpoint>
            <Time>2022-07-14T19:22:26.000Z</Time>
            <Position>
              <LatitudeDegrees>43.38673886843025684356689453125</LatitudeDegrees>
              <LongitudeDegrees>-4.3052198924124240875244140625</LongitudeDegrees>
            </Position>
            <AltitudeMeters>63.40000152587890625</AltitudeMeters>
            <DistanceMeters>NAN</DistanceMeters>
          </Trackpoint>
          <Trackpoint>
            <Time>2022-07-14T19:22:30.000Z</Time>
            <Position>
              <LatitudeDegrees>43.38665957562625408172607421875</LatitudeDegrees>
              <LongitudeDegrees>-4.30530488491058349609375</LongitudeDegrees>
            </Position>
            <AltitudeMeters>63.59999847412109375</AltitudeMeters>
            <DistanceMeters>NAN</DistanceMeters>
          </Trackpoint>
          <Trackpoint>
            <Time>2022-07-14T19:22:34.000Z</Time>
            <Position>
              <LatitudeDegrees>43.3865843899548053741455078125</LatitudeDegrees>
              <LongitudeDegrees>-4.30536213330924510955810546875</LongitudeDegrees>
            </Position>
            <AltitudeMeters>63.799999237060546875</AltitudeMeters>
            <DistanceMeters>NAN</DistanceMeters>
          </Trackpoint>
          <Trackpoint>
            <Time>2022-07-14T19:22:36.000Z</Time>
            <Position>
              <LatitudeDegrees>43.3865609206259250640869140625</LatitudeDegrees>
              <LongitudeDegrees>-4.305398762226104736328125</LongitudeDegrees>
            </Position>
            <AltitudeMeters>64.1999969482421875</AltitudeMeters>
            <DistanceMeters>NAN</DistanceMeters>
          </Trackpoint>
          <Trackpoint>
            <Time>2022-07-14T19:22:38.000Z</Time>
            <Position>
              <LatitudeDegrees>43.38654256425797939300537109375</LatitudeDegrees>
              <LongitudeDegrees>-4.305431284010410308837890625</LongitudeDegrees>
            </Position>
            <AltitudeMeters>64.40000152587890625</AltitudeMeters>
            <DistanceMeters>NAN</DistanceMeters>
          </Trackpoint>
          <Trackpoint>
            <Time>2022-07-14T19:22:42.000Z</Time>
            <Position>
              <LatitudeDegrees>43.38651373051106929779052734375</LatitudeDegrees>
              <LongitudeDegrees>-4.30550194345414638519287109375</LongitudeDegrees>
            </Position>
            <AltitudeMeters>65.40000152587890625</AltitudeMeters>
            <DistanceMeters>NAN</DistanceMeters>
          </Trackpoint>
          <Trackpoint>
            <Time>2022-07-14T19:22:43.000Z</Time>
            <Position>
              <LatitudeDegrees>43.38651021011173725128173828125</LatitudeDegrees>
              <LongitudeDegrees>-4.305523149669170379638671875</LongitudeDegrees>
            </Position>
            <AltitudeMeters>65.8000030517578125</AltitudeMeters>
            <DistanceMeters>NAN</DistanceMeters>
          </Trackpoint>
          <Trackpoint>
            <Time>2022-07-14T19:22:48.000Z</Time>
            <Position>
              <LatitudeDegrees>43.38652228005230426788330078125</LatitudeDegrees>
              <LongitudeDegrees>-4.305622391402721405029296875</LongitudeDegrees>
            </Position>
            <AltitudeMeters>66.1999969482421875</AltitudeMeters>
            <DistanceMeters>NAN</DistanceMeters>
          </Trackpoint>
          <Trackpoint>
            <Time>2022-07-14T19:22:51.000Z</Time>
            <Position>
              <LatitudeDegrees>43.38653284125030040740966796875</LatitudeDegrees>
              <LongitudeDegrees>-4.30569489486515522003173828125</LongitudeDegrees>
            </Position>
            <AltitudeMeters>66.59999847412109375</AltitudeMeters>
            <DistanceMeters>NAN</DistanceMeters>
          </Trackpoint>
          <Trackpoint>
            <Time>2022-07-14T19:22:53.000Z</Time>
            <Position>
              <LatitudeDegrees>43.38653619401156902313232421875</LatitudeDegrees>
              <LongitudeDegrees>-4.305734373629093170166015625</LongitudeDegrees>
            </Position>
            <AltitudeMeters>66.8000030517578125</AltitudeMeters>
            <DistanceMeters>NAN</DistanceMeters>
          </Trackpoint>
          <Trackpoint>
            <Time>2022-07-14T19:22:59.000Z</Time>
            <Position>
              <LatitudeDegrees>43.3865709789097309112548828125</LatitudeDegrees>
              <LongitudeDegrees>-4.3058748543262481689453125</LongitudeDegrees>
            </Position>
            <AltitudeMeters>67</AltitudeMeters>
            <DistanceMeters>NAN</DistanceMeters>
          </Trackpoint>
          <Trackpoint>
            <Time>2022-07-14T19:23:01.000Z</Time>
            <Position>
              <LatitudeDegrees>43.3865837194025516510009765625</LatitudeDegrees>
              <LongitudeDegrees>-4.3059209547936916351318359375</LongitudeDegrees>
            </Position>
            <AltitudeMeters>67</AltitudeMeters>
            <DistanceMeters>NAN</DistanceMeters>
          </Trackpoint>
          <Trackpoint>
            <Time>2022-07-14T19:23:07.000Z</Time>
            <Position>
              <LatitudeDegrees>43.38663518428802490234375</LatitudeDegrees>
              <LongitudeDegrees>-4.30602346546947956085205078125</LongitudeDegrees>
            </Position>
            <AltitudeMeters>67.40000152587890625</AltitudeMeters>
            <DistanceMeters>NAN</DistanceMeters>
          </Trackpoint>
          <Trackpoint>
            <Time>2022-07-14T19:23:09.000Z</Time>
            <Position>
              <LatitudeDegrees>43.38665069080889225006103515625</LatitudeDegrees>
              <LongitudeDegrees>-4.3060627765953540802001953125</LongitudeDegrees>
            </Position>
            <AltitudeMeters>67.59999847412109375</AltitudeMeters>
            <DistanceMeters>NAN</DistanceMeters>
          </Trackpoint>
          <Trackpoint>
            <Time>2022-07-14T19:23:10.000Z</Time>
            <Position>
              <LatitudeDegrees>43.386659659445285797119140625</LatitudeDegrees>
              <LongitudeDegrees>-4.30608113296329975128173828125</LongitudeDegrees>
            </Position>
            <AltitudeMeters>68</AltitudeMeters>
            <DistanceMeters>NAN</DistanceMeters>
          </Trackpoint>
          <Trackpoint>
            <Time>2022-07-14T19:23:15.000Z</Time>
            <Position>
              <LatitudeDegrees>43.38670852594077587127685546875</LatitudeDegrees>
              <LongitudeDegrees>-4.30614651180803775787353515625</LongitudeDegrees>
            </Position>
            <AltitudeMeters>69.1999969482421875</AltitudeMeters>
            <DistanceMeters>NAN</DistanceMeters>
          </Trackpoint>
          <Trackpoint>
            <Time>2022-07-14T19:23:16.000Z</Time>
            <Position>
              <LatitudeDegrees>43.38671405799686908721923828125</LatitudeDegrees>
              <LongitudeDegrees>-4.30616478435695171356201171875</LongitudeDegrees>
            </Position>
            <AltitudeMeters>69.40000152587890625</AltitudeMeters>
            <DistanceMeters>NAN</DistanceMeters>
          </Trackpoint>
          <Trackpoint>
            <Time>2022-07-14T19:23:24.000Z</Time>
            <Position>
              <LatitudeDegrees>43.38675747625529766082763671875</LatitudeDegrees>
              <LongitudeDegrees>-4.30631163530051708221435546875</LongitudeDegrees>
            </Position>
            <AltitudeMeters>69.59999847412109375</AltitudeMeters>
            <DistanceMeters>NAN</DistanceMeters>
          </Trackpoint>
          <Trackpoint>
            <Time>2022-07-14T19:23:30.000Z</Time>
            <Position>
              <LatitudeDegrees>43.38683375157415866851806640625</LatitudeDegrees>
              <LongitudeDegrees>-4.30642797611653804779052734375</LongitudeDegrees>
            </Position>
            <AltitudeMeters>70.1999969482421875</AltitudeMeters>
            <DistanceMeters>NAN</DistanceMeters>
          </Trackpoint>
          <Trackpoint>
            <Time>2022-07-14T19:23:32.000Z</Time>
            <Position>
              <LatitudeDegrees>43.38686040602624416351318359375</LatitudeDegrees>
              <LongitudeDegrees>-4.30646602995693683624267578125</LongitudeDegrees>
            </Position>
            <AltitudeMeters>70.40000152587890625</AltitudeMeters>
            <DistanceMeters>NAN</DistanceMeters>
          </Trackpoint>
          <Trackpoint>
            <Time>2022-07-14T19:23:37.000Z</Time>
            <Position>
              <LatitudeDegrees>43.38691589422523975372314453125</LatitudeDegrees>
              <LongitudeDegrees>-4.3065586499869823455810546875</LongitudeDegrees>
            </Position>
            <AltitudeMeters>71.1999969482421875</AltitudeMeters>
            <DistanceMeters>NAN</DistanceMeters>
          </Trackpoint>
          <Trackpoint>
            <Time>2022-07-14T19:23:39.000Z</Time>
            <Position>
              <LatitudeDegrees>43.3869317360222339630126953125</LatitudeDegrees>
              <LongitudeDegrees>-4.30658555589616298675537109375</LongitudeDegrees>
            </Position>
            <AltitudeMeters>71.59999847412109375</AltitudeMeters>
            <DistanceMeters>NAN</DistanceMeters>
          </Trackpoint>
          <Trackpoint>
            <Time>2022-07-14T19:23:45.000Z</Time>
            <Position>
              <LatitudeDegrees>43.38700926862657070159912109375</LatitudeDegrees>
              <LongitudeDegrees>-4.3067212589085102081298828125</LongitudeDegrees>
            </Position>
            <AltitudeMeters>71.8000030517578125</AltitudeMeters>
            <DistanceMeters>NAN</DistanceMeters>
          </Trackpoint>
          <Trackpoint>
            <Time>2022-07-14T19:23:46.000Z</Time>
            <Position>
              <LatitudeDegrees>43.3870160579681396484375</LatitudeDegrees>
              <LongitudeDegrees>-4.30674179457128047943115234375</LongitudeDegrees>
            </Position>
            <AltitudeMeters>72.1999969482421875</AltitudeMeters>
            <DistanceMeters>NAN</DistanceMeters>
          </Trackpoint>
          <Trackpoint>
            <Time>2022-07-14T19:23:47.000Z</Time>
            <Position>
              <LatitudeDegrees>43.3870225958526134490966796875</LatitudeDegrees>
              <LongitudeDegrees>-4.3067641742527484893798828125</LongitudeDegrees>
            </Position>
            <AltitudeMeters>72.40000152587890625</AltitudeMeters>
            <DistanceMeters>NAN</DistanceMeters>
          </Trackpoint>
          <Trackpoint>
            <Time>2022-07-14T19:23:49.000Z</Time>
            <Position>
              <LatitudeDegrees>43.38703793473541736602783203125</LatitudeDegrees>
              <LongitudeDegrees>-4.30681220255792140960693359375</LongitudeDegrees>
            </Position>
            <AltitudeMeters>72.59999847412109375</AltitudeMeters>
            <DistanceMeters>NAN</DistanceMeters>
          </Trackpoint>
          <Trackpoint>
            <Time>2022-07-14T19:23:51.000Z</Time>
            <Position>
              <LatitudeDegrees>43.38705754838883876800537109375</LatitudeDegrees>
              <LongitudeDegrees>-4.30685319006443023681640625</LongitudeDegrees>
            </Position>
            <AltitudeMeters>73</AltitudeMeters>
            <DistanceMeters>NAN</DistanceMeters>
          </Trackpoint>
          <Trackpoint>
            <Time>2022-07-14T19:23:53.000Z</Time>
            <Position>
              <LatitudeDegrees>43.38708302937448024749755859375</LatitudeDegrees>
              <LongitudeDegrees>-4.30689736269414424896240234375</LongitudeDegrees>
            </Position>
            <AltitudeMeters>73.40000152587890625</AltitudeMeters>
            <DistanceMeters>NAN</DistanceMeters>
          </Trackpoint>
          <Trackpoint>
            <Time>2022-07-14T19:23:58.000Z</Time>
            <Position>
              <LatitudeDegrees>43.38708805851638317108154296875</LatitudeDegrees>
              <LongitudeDegrees>-4.30698771961033344268798828125</LongitudeDegrees>
            </Position>
            <AltitudeMeters>74.40000152587890625</AltitudeMeters>
            <DistanceMeters>NAN</DistanceMeters>
          </Trackpoint>
          <Trackpoint>
            <Time>2022-07-14T19:24:01.000Z</Time>
            <Position>
              <LatitudeDegrees>43.3871064148843288421630859375</LatitudeDegrees>
              <LongitudeDegrees>-4.307037256658077239990234375</LongitudeDegrees>
            </Position>
            <AltitudeMeters>75.40000152587890625</AltitudeMeters>
            <DistanceMeters>NAN</DistanceMeters>
          </Trackpoint>
          <Trackpoint>
            <Time>2022-07-14T19:24:05.000Z</Time>
            <Position>
              <LatitudeDegrees>43.38711806572973728179931640625</LatitudeDegrees>
              <LongitudeDegrees>-4.30711596272885799407958984375</LongitudeDegrees>
            </Position>
            <AltitudeMeters>76.59999847412109375</AltitudeMeters>
            <DistanceMeters>NAN</DistanceMeters>
          </Trackpoint>
          <Trackpoint>
            <Time>2022-07-14T19:24:08.000Z</Time>
            <Position>
              <LatitudeDegrees>43.3871181495487689971923828125</LatitudeDegrees>
              <LongitudeDegrees>-4.307167343795299530029296875</LongitudeDegrees>
            </Position>
            <AltitudeMeters>77.40000152587890625</AltitudeMeters>
            <DistanceMeters>NAN</DistanceMeters>
          </Trackpoint>
          <Trackpoint>
            <Time>2022-07-14T19:24:10.000Z</Time>
            <Position>
              <LatitudeDegrees>43.3871193230152130126953125</LatitudeDegrees>
              <LongitudeDegrees>-4.3072070740163326263427734375</LongitudeDegrees>
            </Position>
            <AltitudeMeters>77.8000030517578125</AltitudeMeters>
            <DistanceMeters>NAN</DistanceMeters>
          </Trackpoint>
          <Trackpoint>
            <Time>2022-07-14T19:24:15.000Z</Time>
            <Position>
              <LatitudeDegrees>43.3871107734739780426025390625</LatitudeDegrees>
              <LongitudeDegrees>-4.30730036459863185882568359375</LongitudeDegrees>
            </Position>
            <AltitudeMeters>78.59999847412109375</AltitudeMeters>
            <DistanceMeters>NAN</DistanceMeters>
          </Trackpoint>
          <Trackpoint>
            <Time>2022-07-14T19:24:16.000Z</Time>
            <Position>
              <LatitudeDegrees>43.3871084265410900115966796875</LatitudeDegrees>
              <LongitudeDegrees>-4.3073163740336894989013671875</LongitudeDegrees>
            </Position>
            <AltitudeMeters>78.8000030517578125</AltitudeMeters>
            <DistanceMeters>NAN</DistanceMeters>
          </Trackpoint>
          <Trackpoint>
            <Time>2022-07-14T19:24:22.000Z</Time>
            <Position>
              <LatitudeDegrees>43.38706274516880512237548828125</LatitudeDegrees>
              <LongitudeDegrees>-4.30741938762366771697998046875</LongitudeDegrees>
            </Position>
            <AltitudeMeters>79.40000152587890625</AltitudeMeters>
            <DistanceMeters>NAN</DistanceMeters>
          </Trackpoint>
          <Trackpoint>
            <Time>2022-07-14T19:24:28.000Z</Time>
            <Position>
              <LatitudeDegrees>43.387029133737087249755859375</LatitudeDegrees>
              <LongitudeDegrees>-4.30751946754753589630126953125</LongitudeDegrees>
            </Position>
            <AltitudeMeters>79.1999969482421875</AltitudeMeters>
            <DistanceMeters>NAN</DistanceMeters>
          </Trackpoint>
          <Trackpoint>
            <Time>2022-07-14T19:24:30.000Z</Time>
            <Position>
              <LatitudeDegrees>43.387009017169475555419921875</LatitudeDegrees>
              <LongitudeDegrees>-4.307552911341190338134765625</LongitudeDegrees>
            </Position>
            <AltitudeMeters>79.40000152587890625</AltitudeMeters>
            <DistanceMeters>NAN</DistanceMeters>
          </Trackpoint>
          <Trackpoint>
            <Time>2022-07-14T19:24:31.000Z</Time>
            <Position>
              <LatitudeDegrees>43.38700507767498493194580078125</LatitudeDegrees>
              <LongitudeDegrees>-4.30756573565304279327392578125</LongitudeDegrees>
            </Position>
            <AltitudeMeters>79.40000152587890625</AltitudeMeters>
            <DistanceMeters>NAN</DistanceMeters>
          </Trackpoint>
          <Trackpoint>
            <Time>2022-07-14T19:24:33.000Z</Time>
            <Position>
              <LatitudeDegrees>43.38700960390269756317138671875</LatitudeDegrees>
              <LongitudeDegrees>-4.3075902946293354034423828125</LongitudeDegrees>
            </Position>
            <AltitudeMeters>79.8000030517578125</AltitudeMeters>
            <DistanceMeters>NAN</DistanceMeters>
          </Trackpoint>
          <Trackpoint>
            <Time>2022-07-14T19:24:35.000Z</Time>
            <Position>
              <LatitudeDegrees>43.3870120346546173095703125</LatitudeDegrees>
              <LongitudeDegrees>-4.30759758688509464263916015625</LongitudeDegrees>
            </Position>
            <AltitudeMeters>80</AltitudeMeters>
            <DistanceMeters>NAN</DistanceMeters>
          </Trackpoint>
          <Trackpoint>
            <Time>2022-07-14T19:24:52.000Z</Time>
            <Position>
              <LatitudeDegrees>43.3870028145611286163330078125</LatitudeDegrees>
              <LongitudeDegrees>-4.30766724050045013427734375</LongitudeDegrees>
            </Position>
            <AltitudeMeters>80.8000030517578125</AltitudeMeters>
            <DistanceMeters>NAN</DistanceMeters>
          </Trackpoint>
          <Trackpoint>
            <Time>2022-07-14T19:24:54.000Z</Time>
            <Position>
              <LatitudeDegrees>43.38699300773441791534423828125</LatitudeDegrees>
              <LongitudeDegrees>-4.307702444493770599365234375</LongitudeDegrees>
            </Position>
            <AltitudeMeters>80.8000030517578125</AltitudeMeters>
            <DistanceMeters>NAN</DistanceMeters>
          </Trackpoint>
          <Trackpoint>
            <Time>2022-07-14T19:24:55.000Z</Time>
            <Position>
              <LatitudeDegrees>43.386991582810878753662109375</LatitudeDegrees>
              <LongitudeDegrees>-4.307720549404621124267578125</LongitudeDegrees>
            </Position>
            <AltitudeMeters>81</AltitudeMeters>
            <DistanceMeters>NAN</DistanceMeters>
          </Trackpoint>
          <Trackpoint>
            <Time>2022-07-14T19:25:00.000Z</Time>
            <Position>
              <LatitudeDegrees>43.3869857154786586761474609375</LatitudeDegrees>
              <LongitudeDegrees>-4.307822473347187042236328125</LongitudeDegrees>
            </Position>
            <AltitudeMeters>81.1999969482421875</AltitudeMeters>
            <DistanceMeters>NAN</DistanceMeters>
          </Trackpoint>
          <Trackpoint>
            <Time>2022-07-14T19:25:03.000Z</Time>
            <Position>
              <LatitudeDegrees>43.386986218392848968505859375</LatitudeDegrees>
              <LongitudeDegrees>-4.3078776262700557708740234375</LongitudeDegrees>
            </Position>
            <AltitudeMeters>81.8000030517578125</AltitudeMeters>
            <DistanceMeters>NAN</DistanceMeters>
          </Trackpoint>
          <Trackpoint>
            <Time>2022-07-14T19:25:04.000Z</Time>
            <Position>
              <LatitudeDegrees>43.3869900740683078765869140625</LatitudeDegrees>
              <LongitudeDegrees>-4.30789531208574771881103515625</LongitudeDegrees>
            </Position>
            <AltitudeMeters>82</AltitudeMeters>
            <DistanceMeters>NAN</DistanceMeters>
          </Trackpoint>
          <Trackpoint>
            <Time>2022-07-14T19:25:09.000Z</Time>
            <Position>
              <LatitudeDegrees>43.3870199136435985565185546875</LatitudeDegrees>
              <LongitudeDegrees>-4.3079859204590320587158203125</LongitudeDegrees>
            </Position>
            <AltitudeMeters>82.40000152587890625</AltitudeMeters>
            <DistanceMeters>NAN</DistanceMeters>
          </Trackpoint>
          <Trackpoint>
            <Time>2022-07-14T19:25:14.000Z</Time>
            <Position>
              <LatitudeDegrees>43.38702569715678691864013671875</LatitudeDegrees>
              <LongitudeDegrees>-4.30805590935051441192626953125</LongitudeDegrees>
            </Position>
            <AltitudeMeters>82.59999847412109375</AltitudeMeters>
            <DistanceMeters>NAN</DistanceMeters>
          </Trackpoint>
          <Trackpoint>
            <Time>2022-07-14T19:25:16.000Z</Time>
            <Position>
              <LatitudeDegrees>43.38702821172773838043212890625</LatitudeDegrees>
              <LongitudeDegrees>-4.30808725766837596893310546875</LongitudeDegrees>
            </Position>
            <AltitudeMeters>82.59999847412109375</AltitudeMeters>
            <DistanceMeters>NAN</DistanceMeters>
          </Trackpoint>
          <Trackpoint>
            <Time>2022-07-14T19:25:19.000Z</Time>
            <Position>
              <LatitudeDegrees>43.3870437182486057281494140625</LatitudeDegrees>
              <LongitudeDegrees>-4.30814676918089389801025390625</LongitudeDegrees>
            </Position>
            <AltitudeMeters>83</AltitudeMeters>
            <DistanceMeters>NAN</DistanceMeters>
          </Trackpoint>
          <Trackpoint>
            <Time>2022-07-14T19:25:22.000Z</Time>
            <Position>
              <LatitudeDegrees>43.387051932513713836669921875</LatitudeDegrees>
              <LongitudeDegrees>-4.30820879526436328887939453125</LongitudeDegrees>
            </Position>
            <AltitudeMeters>83</AltitudeMeters>
            <DistanceMeters>NAN</DistanceMeters>
          </Trackpoint>
          <Trackpoint>
            <Time>2022-07-14T19:25:27.000Z</Time>
            <Position>
              <LatitudeDegrees>43.38708688504993915557861328125</LatitudeDegrees>
              <LongitudeDegrees>-4.3083647824823856353759765625</LongitudeDegrees>
            </Position>
            <AltitudeMeters>82.8000030517578125</AltitudeMeters>
            <DistanceMeters>NAN</DistanceMeters>
          </Trackpoint>
          <Trackpoint>
            <Time>2022-07-14T19:25:34.000Z</Time>
            <Position>
              <LatitudeDegrees>43.387174308300018310546875</LatitudeDegrees>
              <LongitudeDegrees>-4.3085599131882190704345703125</LongitudeDegrees>
            </Position>
            <AltitudeMeters>82</AltitudeMeters>
            <DistanceMeters>NAN</DistanceMeters>
          </Trackpoint>
          <Trackpoint>
            <Time>2022-07-14T19:25:35.000Z</Time>
            <Position>
              <LatitudeDegrees>43.3871841989457607269287109375</LatitudeDegrees>
              <LongitudeDegrees>-4.30858782492578029632568359375</LongitudeDegrees>
            </Position>
            <AltitudeMeters>82</AltitudeMeters>
            <DistanceMeters>NAN</DistanceMeters>
          </Trackpoint>
          <Trackpoint>
            <Time>2022-07-14T19:25:42.000Z</Time>
            <Position>
              <LatitudeDegrees>43.387220241129398345947265625</LatitudeDegrees>
              <LongitudeDegrees>-4.30885470472276210784912109375</LongitudeDegrees>
            </Position>
            <AltitudeMeters>81</AltitudeMeters>
            <DistanceMeters>NAN</DistanceMeters>
          </Trackpoint>
          <Trackpoint>
            <Time>2022-07-14T19:25:43.000Z</Time>
            <Position>
              <LatitudeDegrees>43.38722191751003265380859375</LatitudeDegrees>
              <LongitudeDegrees>-4.3088992126286029815673828125</LongitudeDegrees>
            </Position>
            <AltitudeMeters>80.59999847412109375</AltitudeMeters>
            <DistanceMeters>NAN</DistanceMeters>
          </Trackpoint>
          <Trackpoint>
            <Time>2022-07-14T19:25:49.000Z</Time>
            <Position>
              <LatitudeDegrees>43.38723507709801197052001953125</LatitudeDegrees>
              <LongitudeDegrees>-4.30916449986398220062255859375</LongitudeDegrees>
            </Position>
            <AltitudeMeters>79.59999847412109375</AltitudeMeters>
            <DistanceMeters>NAN</DistanceMeters>
          </Trackpoint>
          <Trackpoint>
            <Time>2022-07-14T19:25:50.000Z</Time>
            <Position>
              <LatitudeDegrees>43.38723809458315372467041015625</LatitudeDegrees>
              <LongitudeDegrees>-4.30920707993209362030029296875</LongitudeDegrees>
            </Position>
            <AltitudeMeters>79.40000152587890625</AltitudeMeters>
            <DistanceMeters>NAN</DistanceMeters>
          </Trackpoint>
          <Trackpoint>
            <Time>2022-07-14T19:25:52.000Z</Time>
            <Position>
              <LatitudeDegrees>43.387239016592502593994140625</LatitudeDegrees>
              <LongitudeDegrees>-4.30929601192474365234375</LongitudeDegrees>
            </Position>
            <AltitudeMeters>78.59999847412109375</AltitudeMeters>
            <DistanceMeters>NAN</DistanceMeters>
          </Trackpoint>
          <Trackpoint>
            <Time>2022-07-14T19:25:57.000Z</Time>
            <Position>
              <LatitudeDegrees>43.387216888368129730224609375</LatitudeDegrees>
              <LongitudeDegrees>-4.30944898165762424468994140625</LongitudeDegrees>
            </Position>
            <AltitudeMeters>77.40000152587890625</AltitudeMeters>
            <DistanceMeters>NAN</DistanceMeters>
          </Trackpoint>
          <Trackpoint>
            <Time>2022-07-14T19:26:03.000Z</Time>
            <Position>
              <LatitudeDegrees>43.3871774934232234954833984375</LatitudeDegrees>
              <LongitudeDegrees>-4.309604465961456298828125</LongitudeDegrees>
            </Position>
            <AltitudeMeters>77.59999847412109375</AltitudeMeters>
            <DistanceMeters>NAN</DistanceMeters>
          </Trackpoint>
          <Trackpoint>
            <Time>2022-07-14T19:26:06.000Z</Time>
            <Position>
              <LatitudeDegrees>43.387159220874309539794921875</LatitudeDegrees>
              <LongitudeDegrees>-4.3096452020108699798583984375</LongitudeDegrees>
            </Position>
            <AltitudeMeters>77.59999847412109375</AltitudeMeters>
            <DistanceMeters>NAN</DistanceMeters>
          </Trackpoint>
          <Trackpoint>
            <Time>2022-07-14T19:26:08.000Z</Time>
            <Position>
              <LatitudeDegrees>43.38715997524559497833251953125</LatitudeDegrees>
              <LongitudeDegrees>-4.30964746512472629547119140625</LongitudeDegrees>
            </Position>
            <AltitudeMeters>77.8000030517578125</AltitudeMeters>
            <DistanceMeters>NAN</DistanceMeters>
          </Trackpoint>
          <Trackpoint>
            <Time>2022-07-14T19:30:26.000Z</Time>
            <Position>
              <LatitudeDegrees>43.38715888559818267822265625</LatitudeDegrees>
              <LongitudeDegrees>-4.30973312817513942718505859375</LongitudeDegrees>
            </Position>
            <AltitudeMeters>81</AltitudeMeters>
            <DistanceMeters>NAN</DistanceMeters>
          </Trackpoint>
          <Trackpoint>
            <Time>2022-07-14T19:30:27.000Z</Time>
            <Position>
              <LatitudeDegrees>43.38714815676212310791015625</LatitudeDegrees>
              <LongitudeDegrees>-4.309756346046924591064453125</LongitudeDegrees>
            </Position>
            <AltitudeMeters>81</AltitudeMeters>
            <DistanceMeters>NAN</DistanceMeters>
          </Trackpoint>
          <Trackpoint>
            <Time>2022-07-14T19:30:29.000Z</Time>
            <Position>
              <LatitudeDegrees>43.38713315315544605255126953125</LatitudeDegrees>
              <LongitudeDegrees>-4.30980253033339977264404296875</LongitudeDegrees>
            </Position>
            <AltitudeMeters>81</AltitudeMeters>
            <DistanceMeters>NAN</DistanceMeters>
          </Trackpoint>
          <Trackpoint>
            <Time>2022-07-14T19:30:36.000Z</Time>
            <Position>
              <LatitudeDegrees>43.3870189078152179718017578125</LatitudeDegrees>
              <LongitudeDegrees>-4.30998005904257297515869140625</LongitudeDegrees>
            </Position>
            <AltitudeMeters>80.59999847412109375</AltitudeMeters>
            <DistanceMeters>NAN</DistanceMeters>
          </Trackpoint>
          <Trackpoint>
            <Time>2022-07-14T19:30:43.000Z</Time>
            <Position>
              <LatitudeDegrees>43.38687599636614322662353515625</LatitudeDegrees>
              <LongitudeDegrees>-4.31019698269665241241455078125</LongitudeDegrees>
            </Position>
            <AltitudeMeters>80.59999847412109375</AltitudeMeters>
            <DistanceMeters>NAN</DistanceMeters>
          </Trackpoint>
          <Trackpoint>
            <Time>2022-07-14T19:30:50.000Z</Time>
            <Position>
              <LatitudeDegrees>43.38678228668868541717529296875</LatitudeDegrees>
              <LongitudeDegrees>-4.31049101985991001129150390625</LongitudeDegrees>
            </Position>
            <AltitudeMeters>80.8000030517578125</AltitudeMeters>
            <DistanceMeters>NAN</DistanceMeters>
          </Trackpoint>
          <Trackpoint>
            <Time>2022-07-14T19:30:57.000Z</Time>
            <Position>
              <LatitudeDegrees>43.3866138942539691925048828125</LatitudeDegrees>
              <LongitudeDegrees>-4.3107653595507144927978515625</LongitudeDegrees>
            </Position>
            <AltitudeMeters>80.40000152587890625</AltitudeMeters>
            <DistanceMeters>NAN</DistanceMeters>
          </Trackpoint>
          <Trackpoint>
            <Time>2022-07-14T19:31:01.000Z</Time>
            <Position>
              <LatitudeDegrees>43.38646151125431060791015625</LatitudeDegrees>
              <LongitudeDegrees>-4.31094163097441196441650390625</LongitudeDegrees>
            </Position>
            <AltitudeMeters>79.8000030517578125</AltitudeMeters>
            <DistanceMeters>NAN</DistanceMeters>
          </Trackpoint>
          <Trackpoint>
            <Time>2022-07-14T19:31:04.000Z</Time>
            <Position>
              <LatitudeDegrees>43.38634978048503398895263671875</LatitudeDegrees>
              <LongitudeDegrees>-4.31106383912265300750732421875</LongitudeDegrees>
            </Position>
            <AltitudeMeters>79.1999969482421875</AltitudeMeters>
            <DistanceMeters>NAN</DistanceMeters>
          </Trackpoint>
          <Trackpoint>
            <Time>2022-07-14T19:31:06.000Z</Time>
            <Position>
              <LatitudeDegrees>43.38627233169972896575927734375</LatitudeDegrees>
              <LongitudeDegrees>-4.3111355043947696685791015625</LongitudeDegrees>
            </Position>
            <AltitudeMeters>78.8000030517578125</AltitudeMeters>
            <DistanceMeters>NAN</DistanceMeters>
          </Trackpoint>
          <Trackpoint>
            <Time>2022-07-14T19:31:10.000Z</Time>
            <Position>
              <LatitudeDegrees>43.38611223734915256500244140625</LatitudeDegrees>
              <LongitudeDegrees>-4.31129316799342632293701171875</LongitudeDegrees>
            </Position>
            <AltitudeMeters>77.40000152587890625</AltitudeMeters>
            <DistanceMeters>NAN</DistanceMeters>
          </Trackpoint>
          <Trackpoint>
            <Time>2022-07-14T19:31:12.000Z</Time>
            <Position>
              <LatitudeDegrees>43.386027328670024871826171875</LatitudeDegrees>
              <LongitudeDegrees>-4.31140221655368804931640625</LongitudeDegrees>
            </Position>
            <AltitudeMeters>77</AltitudeMeters>
            <DistanceMeters>NAN</DistanceMeters>
          </Trackpoint>
          <Trackpoint>
            <Time>2022-07-14T19:31:15.000Z</Time>
            <Position>
              <LatitudeDegrees>43.38593848049640655517578125</LatitudeDegrees>
              <LongitudeDegrees>-4.31156155653297901153564453125</LongitudeDegrees>
            </Position>
            <AltitudeMeters>76.59999847412109375</AltitudeMeters>
            <DistanceMeters>NAN</DistanceMeters>
          </Trackpoint>
          <Trackpoint>
            <Time>2022-07-14T19:31:16.000Z</Time>
            <Position>
              <LatitudeDegrees>43.3859131671488285064697265625</LatitudeDegrees>
              <LongitudeDegrees>-4.3116263486444950103759765625</LongitudeDegrees>
            </Position>
            <AltitudeMeters>76.1999969482421875</AltitudeMeters>
            <DistanceMeters>NAN</DistanceMeters>
          </Trackpoint>
          <Trackpoint>
            <Time>2022-07-14T19:31:18.000Z</Time>
            <Position>
              <LatitudeDegrees>43.38587318547070026397705078125</LatitudeDegrees>
              <LongitudeDegrees>-4.31176699697971343994140625</LongitudeDegrees>
            </Position>
            <AltitudeMeters>76</AltitudeMeters>
            <DistanceMeters>NAN</DistanceMeters>
          </Trackpoint>
          <Trackpoint>
            <Time>2022-07-14T19:31:22.000Z</Time>
            <Position>
              <LatitudeDegrees>43.38578618131577968597412109375</LatitudeDegrees>
              <LongitudeDegrees>-4.31203345768153667449951171875</LongitudeDegrees>
            </Position>
            <AltitudeMeters>75.1999969482421875</AltitudeMeters>
            <DistanceMeters>NAN</DistanceMeters>
          </Trackpoint>
          <Trackpoint>
            <Time>2022-07-14T19:31:23.000Z</Time>
            <Position>
              <LatitudeDegrees>43.38575684465467929840087890625</LatitudeDegrees>
              <LongitudeDegrees>-4.31208609603345394134521484375</LongitudeDegrees>
            </Position>
            <AltitudeMeters>75</AltitudeMeters>
            <DistanceMeters>NAN</DistanceMeters>
          </Trackpoint>
          <Trackpoint>
            <Time>2022-07-14T19:31:24.000Z</Time>
            <Position>
              <LatitudeDegrees>43.385727591812610626220703125</LatitudeDegrees>
              <LongitudeDegrees>-4.31213219650089740753173828125</LongitudeDegrees>
            </Position>
            <AltitudeMeters>75</AltitudeMeters>
            <DistanceMeters>NAN</DistanceMeters>
          </Trackpoint>
          <Trackpoint>
            <Time>2022-07-14T19:31:27.000Z</Time>
            <Position>
              <LatitudeDegrees>43.38564234785735607147216796875</LatitudeDegrees>
              <LongitudeDegrees>-4.31224577128887176513671875</LongitudeDegrees>
            </Position>
            <AltitudeMeters>75</AltitudeMeters>
            <DistanceMeters>NAN</DistanceMeters>
          </Trackpoint>
          <Trackpoint>
            <Time>2022-07-14T19:31:30.000Z</Time>
            <Position>
              <LatitudeDegrees>43.38555467315018177032470703125</LatitudeDegrees>
              <LongitudeDegrees>-4.31234509684145450592041015625</LongitudeDegrees>
            </Position>
            <AltitudeMeters>75</AltitudeMeters>
            <DistanceMeters>NAN</DistanceMeters>
          </Trackpoint>
          <Trackpoint>
            <Time>2022-07-14T19:31:36.000Z</Time>
            <Position>
              <LatitudeDegrees>43.38538519106805324554443359375</LatitudeDegrees>
              <LongitudeDegrees>-4.31248457171022891998291015625</LongitudeDegrees>
            </Position>
            <AltitudeMeters>75</AltitudeMeters>
            <DistanceMeters>NAN</DistanceMeters>
          </Trackpoint>
          <Trackpoint>
            <Time>2022-07-14T19:31:42.000Z</Time>
            <Position>
              <LatitudeDegrees>43.38521872647106647491455078125</LatitudeDegrees>
              <LongitudeDegrees>-4.31251801550388336181640625</LongitudeDegrees>
            </Position>
            <AltitudeMeters>75.59999847412109375</AltitudeMeters>
            <DistanceMeters>NAN</DistanceMeters>
          </Trackpoint>
          <Trackpoint>
            <Time>2022-07-14T19:31:43.000Z</Time>
            <Position>
              <LatitudeDegrees>43.38519089855253696441650390625</LatitudeDegrees>
              <LongitudeDegrees>-4.31251726113259792327880859375</LongitudeDegrees>
            </Position>
            <AltitudeMeters>75.59999847412109375</AltitudeMeters>
            <DistanceMeters>NAN</DistanceMeters>
          </Trackpoint>
          <Trackpoint>
            <Time>2022-07-14T19:31:50.000Z</Time>
            <Position>
              <LatitudeDegrees>43.384974896907806396484375</LatitudeDegrees>
              <LongitudeDegrees>-4.31249664165079593658447265625</LongitudeDegrees>
            </Position>
            <AltitudeMeters>75.8000030517578125</AltitudeMeters>
            <DistanceMeters>NAN</DistanceMeters>
          </Trackpoint>
          <Trackpoint>
            <Time>2022-07-14T19:31:52.000Z</Time>
            <Position>
              <LatitudeDegrees>43.384894095361232757568359375</LatitudeDegrees>
              <LongitudeDegrees>-4.31250954978168010711669921875</LongitudeDegrees>
            </Position>
            <AltitudeMeters>75.1999969482421875</AltitudeMeters>
            <DistanceMeters>NAN</DistanceMeters>
          </Trackpoint>
          <Trackpoint>
            <Time>2022-07-14T19:31:54.000Z</Time>
            <Position>
              <LatitudeDegrees>43.38483097963035106658935546875</LatitudeDegrees>
              <LongitudeDegrees>-4.31251466274261474609375</LongitudeDegrees>
            </Position>
            <AltitudeMeters>74.8000030517578125</AltitudeMeters>
            <DistanceMeters>NAN</DistanceMeters>
          </Trackpoint>
          <Trackpoint>
            <Time>2022-07-14T19:31:58.000Z</Time>
            <Position>
              <LatitudeDegrees>43.38478622026741504669189453125</LatitudeDegrees>
              <LongitudeDegrees>-4.31249613873660564422607421875</LongitudeDegrees>
            </Position>
            <AltitudeMeters>74.1999969482421875</AltitudeMeters>
            <DistanceMeters>NAN</DistanceMeters>
          </Trackpoint>
          <Trackpoint>
            <Time>2022-07-14T19:31:59.000Z</Time>
            <Position>
              <LatitudeDegrees>43.38478622026741504669189453125</LatitudeDegrees>
              <LongitudeDegrees>-4.31249613873660564422607421875</LongitudeDegrees>
            </Position>
            <AltitudeMeters>74.1999969482421875</AltitudeMeters>
            <DistanceMeters>NAN</DistanceMeters>
          </Trackpoint>
          <Trackpoint>
            <Time>2022-07-14T19:32:48.000Z</Time>
            <Position>
              <LatitudeDegrees>43.38478035293519496917724609375</LatitudeDegrees>
              <LongitudeDegrees>-4.312598146498203277587890625</LongitudeDegrees>
            </Position>
            <AltitudeMeters>73.1999969482421875</AltitudeMeters>
            <DistanceMeters>NAN</DistanceMeters>
          </Trackpoint>
          <Trackpoint>
            <Time>2022-07-14T19:32:49.000Z</Time>
            <Position>
              <LatitudeDegrees>43.3847806043922901153564453125</LatitudeDegrees>
              <LongitudeDegrees>-4.31264902465045452117919921875</LongitudeDegrees>
            </Position>
            <AltitudeMeters>73</AltitudeMeters>
            <DistanceMeters>NAN</DistanceMeters>
          </Trackpoint>
          <Trackpoint>
            <Time>2022-07-14T19:32:51.000Z</Time>
            <Position>
              <LatitudeDegrees>43.384758643805980682373046875</LatitudeDegrees>
              <LongitudeDegrees>-4.312753379344940185546875</LongitudeDegrees>
            </Position>
            <AltitudeMeters>72</AltitudeMeters>
            <DistanceMeters>NAN</DistanceMeters>
          </Trackpoint>
          <Trackpoint>
            <Time>2022-07-14T19:32:52.000Z</Time>
            <Position>
              <LatitudeDegrees>43.3847289718687534332275390625</LatitudeDegrees>
              <LongitudeDegrees>-4.312796629965305328369140625</LongitudeDegrees>
            </Position>
            <AltitudeMeters>71.40000152587890625</AltitudeMeters>
            <DistanceMeters>NAN</DistanceMeters>
          </Trackpoint>
          <Trackpoint>
            <Time>2022-07-14T19:32:53.000Z</Time>
            <Position>
              <LatitudeDegrees>43.38468949310481548309326171875</LatitudeDegrees>
              <LongitudeDegrees>-4.312839210033416748046875</LongitudeDegrees>
            </Position>
            <AltitudeMeters>70.8000030517578125</AltitudeMeters>
            <DistanceMeters>NAN</DistanceMeters>
          </Trackpoint>
          <Trackpoint>
            <Time>2022-07-14T19:32:56.000Z</Time>
            <Position>
              <LatitudeDegrees>43.3845552988350391387939453125</LatitudeDegrees>
              <LongitudeDegrees>-4.3129681237041950225830078125</LongitudeDegrees>
            </Position>
            <AltitudeMeters>69.59999847412109375</AltitudeMeters>
            <DistanceMeters>NAN</DistanceMeters>
          </Trackpoint>
          <Trackpoint>
            <Time>2022-07-14T19:32:57.000Z</Time>
            <Position>
              <LatitudeDegrees>43.38451783172786235809326171875</LatitudeDegrees>
              <LongitudeDegrees>-4.31300709955394268035888671875</LongitudeDegrees>
            </Position>
            <AltitudeMeters>69.1999969482421875</AltitudeMeters>
            <DistanceMeters>NAN</DistanceMeters>
          </Trackpoint>
          <Trackpoint>
            <Time>2022-07-14T19:32:58.000Z</Time>
            <Position>
              <LatitudeDegrees>43.3844808675348758697509765625</LatitudeDegrees>
              <LongitudeDegrees>-4.31304029189050197601318359375</LongitudeDegrees>
            </Position>
            <AltitudeMeters>68.59999847412109375</AltitudeMeters>
            <DistanceMeters>NAN</DistanceMeters>
          </Trackpoint>
          <Trackpoint>
            <Time>2022-07-14T19:32:59.000Z</Time>
            <Position>
              <LatitudeDegrees>43.3844433166086673736572265625</LatitudeDegrees>
              <LongitudeDegrees>-4.31306359358131885528564453125</LongitudeDegrees>
            </Position>
            <AltitudeMeters>68</AltitudeMeters>
            <DistanceMeters>NAN</DistanceMeters>
          </Trackpoint>
          <Trackpoint>
            <Time>2022-07-14T19:33:01.000Z</Time>
            <Position>
              <LatitudeDegrees>43.38435865938663482666015625</LatitudeDegrees>
              <LongitudeDegrees>-4.3130953609943389892578125</LongitudeDegrees>
            </Position>
            <AltitudeMeters>67.40000152587890625</AltitudeMeters>
            <DistanceMeters>NAN</DistanceMeters>
          </Trackpoint>
          <Trackpoint>
            <Time>2022-07-14T19:33:02.000Z</Time>
            <Position>
              <LatitudeDegrees>43.3842921070754528045654296875</LatitudeDegrees>
              <LongitudeDegrees>-4.31311539374291896820068359375</LongitudeDegrees>
            </Position>
            <AltitudeMeters>67.1999969482421875</AltitudeMeters>
            <DistanceMeters>NAN</DistanceMeters>
          </Trackpoint>
          <Trackpoint>
            <Time>2022-07-14T19:33:04.000Z</Time>
            <Position>
              <LatitudeDegrees>43.38418297469615936279296875</LatitudeDegrees>
              <LongitudeDegrees>-4.31315948255360126495361328125</LongitudeDegrees>
            </Position>
            <AltitudeMeters>65.8000030517578125</AltitudeMeters>
            <DistanceMeters>NAN</DistanceMeters>
          </Trackpoint>
          <Trackpoint>
            <Time>2022-07-14T19:33:06.000Z</Time>
            <Position>
              <LatitudeDegrees>43.38407970964908599853515625</LatitudeDegrees>
              <LongitudeDegrees>-4.31322217918932437896728515625</LongitudeDegrees>
            </Position>
            <AltitudeMeters>64.40000152587890625</AltitudeMeters>
            <DistanceMeters>NAN</DistanceMeters>
          </Trackpoint>
          <Trackpoint>
            <Time>2022-07-14T19:33:07.000Z</Time>
            <Position>
              <LatitudeDegrees>43.38403168134391307830810546875</LatitudeDegrees>
              <LongitudeDegrees>-4.313259981572628021240234375</LongitudeDegrees>
            </Position>
            <AltitudeMeters>64</AltitudeMeters>
            <DistanceMeters>NAN</DistanceMeters>
          </Trackpoint>
          <Trackpoint>
            <Time>2022-07-14T19:33:08.000Z</Time>
            <Position>
              <LatitudeDegrees>43.38399061001837253570556640625</LatitudeDegrees>
              <LongitudeDegrees>-4.31330926716327667236328125</LongitudeDegrees>
            </Position>
            <AltitudeMeters>63.59999847412109375</AltitudeMeters>
            <DistanceMeters>NAN</DistanceMeters>
          </Trackpoint>
          <Trackpoint>
            <Time>2022-07-14T19:33:09.000Z</Time>
            <Position>
              <LatitudeDegrees>43.38395557366311550140380859375</LatitudeDegrees>
              <LongitudeDegrees>-4.3133644200861454010009765625</LongitudeDegrees>
            </Position>
            <AltitudeMeters>62.799999237060546875</AltitudeMeters>
            <DistanceMeters>NAN</DistanceMeters>
          </Trackpoint>
          <Trackpoint>
            <Time>2022-07-14T19:33:11.000Z</Time>
            <Position>
              <LatitudeDegrees>43.38389472104609012603759765625</LatitudeDegrees>
              <LongitudeDegrees>-4.31345636956393718719482421875</LongitudeDegrees>
            </Position>
            <AltitudeMeters>62</AltitudeMeters>
            <DistanceMeters>NAN</DistanceMeters>
          </Trackpoint>
          <Trackpoint>
            <Time>2022-07-14T19:33:12.000Z</Time>
            <Position>
              <LatitudeDegrees>43.38385230861604213714599609375</LatitudeDegrees>
              <LongitudeDegrees>-4.3134921602904796600341796875</LongitudeDegrees>
            </Position>
            <AltitudeMeters>61.799999237060546875</AltitudeMeters>
            <DistanceMeters>NAN</DistanceMeters>
          </Trackpoint>
          <Trackpoint>
            <Time>2022-07-14T19:33:13.000Z</Time>
            <Position>
              <LatitudeDegrees>43.383807130157947540283203125</LatitudeDegrees>
              <LongitudeDegrees>-4.313512109220027923583984375</LongitudeDegrees>
            </Position>
            <AltitudeMeters>61.799999237060546875</AltitudeMeters>
            <DistanceMeters>NAN</DistanceMeters>
          </Trackpoint>
          <Trackpoint>
            <Time>2022-07-14T19:33:16.000Z</Time>
            <Position>
              <LatitudeDegrees>43.38366656564176082611083984375</LatitudeDegrees>
              <LongitudeDegrees>-4.31352443061769008636474609375</LongitudeDegrees>
            </Position>
            <AltitudeMeters>61.59999847412109375</AltitudeMeters>
            <DistanceMeters>NAN</DistanceMeters>
          </Trackpoint>
          <Trackpoint>
            <Time>2022-07-14T19:33:18.000Z</Time>
            <Position>
              <LatitudeDegrees>43.383583165705204010009765625</LatitudeDegrees>
              <LongitudeDegrees>-4.31352258659899234771728515625</LongitudeDegrees>
            </Position>
            <AltitudeMeters>61.59999847412109375</AltitudeMeters>
            <DistanceMeters>NAN</DistanceMeters>
          </Trackpoint>
          <Trackpoint>
            <Time>2022-07-14T19:33:21.000Z</Time>
            <Position>
              <LatitudeDegrees>43.3834710158407688140869140625</LatitudeDegrees>
              <LongitudeDegrees>-4.31354303844273090362548828125</LongitudeDegrees>
            </Position>
            <AltitudeMeters>61.799999237060546875</AltitudeMeters>
            <DistanceMeters>NAN</DistanceMeters>
          </Trackpoint>
          <Trackpoint>
            <Time>2022-07-14T19:33:23.000Z</Time>
            <Position>
              <LatitudeDegrees>43.38340303860604763031005859375</LatitudeDegrees>
              <LongitudeDegrees>-4.313535578548908233642578125</LongitudeDegrees>
            </Position>
            <AltitudeMeters>61.799999237060546875</AltitudeMeters>
            <DistanceMeters>NAN</DistanceMeters>
          </Trackpoint>
          <Trackpoint>
            <Time>2022-07-14T19:33:30.000Z</Time>
            <Position>
              <LatitudeDegrees>43.3831900544464588165283203125</LatitudeDegrees>
              <LongitudeDegrees>-4.313397109508514404296875</LongitudeDegrees>
            </Position>
            <AltitudeMeters>61.59999847412109375</AltitudeMeters>
            <DistanceMeters>NAN</DistanceMeters>
          </Trackpoint>
          <Trackpoint>
            <Time>2022-07-14T19:33:34.000Z</Time>
            <Position>
              <LatitudeDegrees>43.38302828371524810791015625</LatitudeDegrees>
              <LongitudeDegrees>-4.31334321387112140655517578125</LongitudeDegrees>
            </Position>
            <AltitudeMeters>61</AltitudeMeters>
            <DistanceMeters>NAN</DistanceMeters>
          </Trackpoint>
          <Trackpoint>
            <Time>2022-07-14T19:33:35.000Z</Time>
            <Position>
              <LatitudeDegrees>43.3829848654568195343017578125</LatitudeDegrees>
              <LongitudeDegrees>-4.3133436329662799835205078125</LongitudeDegrees>
            </Position>
            <AltitudeMeters>60.59999847412109375</AltitudeMeters>
            <DistanceMeters>NAN</DistanceMeters>
          </Trackpoint>
          <Trackpoint>
            <Time>2022-07-14T19:33:39.000Z</Time>
            <Position>
              <LatitudeDegrees>43.3828036487102508544921875</LatitudeDegrees>
              <LongitudeDegrees>-4.3133476562798023223876953125</LongitudeDegrees>
            </Position>
            <AltitudeMeters>59.59999847412109375</AltitudeMeters>
            <DistanceMeters>NAN</DistanceMeters>
          </Trackpoint>
          <Trackpoint>
            <Time>2022-07-14T19:33:42.000Z</Time>
            <Position>
              <LatitudeDegrees>43.3826643414795398712158203125</LatitudeDegrees>
              <LongitudeDegrees>-4.31332997046411037445068359375</LongitudeDegrees>
            </Position>
            <AltitudeMeters>59</AltitudeMeters>
            <DistanceMeters>NAN</DistanceMeters>
          </Trackpoint>
          <Trackpoint>
            <Time>2022-07-14T19:33:43.000Z</Time>
            <Position>
              <LatitudeDegrees>43.38262653909623622894287109375</LatitudeDegrees>
              <LongitudeDegrees>-4.313315637409687042236328125</LongitudeDegrees>
            </Position>
            <AltitudeMeters>58.799999237060546875</AltitudeMeters>
            <DistanceMeters>NAN</DistanceMeters>
          </Trackpoint>
          <Trackpoint>
            <Time>2022-07-14T19:33:44.000Z</Time>
            <Position>
              <LatitudeDegrees>43.38259200565516948699951171875</LatitudeDegrees>
              <LongitudeDegrees>-4.3133007176220417022705078125</LongitudeDegrees>
            </Position>
            <AltitudeMeters>58.200000762939453125</AltitudeMeters>
            <DistanceMeters>NAN</DistanceMeters>
          </Trackpoint>
          <Trackpoint>
            <Time>2022-07-14T19:33:46.000Z</Time>
            <Position>
              <LatitudeDegrees>43.3825355954468250274658203125</LatitudeDegrees>
              <LongitudeDegrees>-4.31328437291085720062255859375</LongitudeDegrees>
            </Position>
            <AltitudeMeters>57.59999847412109375</AltitudeMeters>
            <DistanceMeters>NAN</DistanceMeters>
          </Trackpoint>
          <Trackpoint>
            <Time>2022-07-14T19:33:48.000Z</Time>
            <Position>
              <LatitudeDegrees>43.3825007267296314239501953125</LatitudeDegrees>
              <LongitudeDegrees>-4.31328487582504749298095703125</LongitudeDegrees>
            </Position>
            <AltitudeMeters>57.200000762939453125</AltitudeMeters>
            <DistanceMeters>NAN</DistanceMeters>
          </Trackpoint>
          <Trackpoint>
            <Time>2022-07-14T19:33:50.000Z</Time>
            <Position>
              <LatitudeDegrees>43.38248203508555889129638671875</LatitudeDegrees>
              <LongitudeDegrees>-4.31328646838665008544921875</LongitudeDegrees>
            </Position>
            <AltitudeMeters>57</AltitudeMeters>
            <DistanceMeters>NAN</DistanceMeters>
          </Trackpoint>
          <Trackpoint>
            <Time>2022-07-14T19:33:52.000Z</Time>
            <Position>
              <LatitudeDegrees>43.3824782632291316986083984375</LatitudeDegrees>
              <LongitudeDegrees>-4.31328554637730121612548828125</LongitudeDegrees>
            </Position>
            <AltitudeMeters>56.799999237060546875</AltitudeMeters>
            <DistanceMeters>NAN</DistanceMeters>
          </Trackpoint>
          <Trackpoint>
            <Time>2022-07-14T19:34:07.000Z</Time>
            <Position>
              <LatitudeDegrees>43.382452614605426788330078125</LatitudeDegrees>
              <LongitudeDegrees>-4.3133272044360637664794921875</LongitudeDegrees>
            </Position>
            <AltitudeMeters>56.40000152587890625</AltitudeMeters>
            <DistanceMeters>NAN</DistanceMeters>
          </Trackpoint>
          <Trackpoint>
            <Time>2022-07-14T19:34:08.000Z</Time>
            <Position>
              <LatitudeDegrees>43.38241196237504482269287109375</LatitudeDegrees>
              <LongitudeDegrees>-4.31335930712521076202392578125</LongitudeDegrees>
            </Position>
            <AltitudeMeters>56</AltitudeMeters>
            <DistanceMeters>NAN</DistanceMeters>
          </Trackpoint>
          <Trackpoint>
            <Time>2022-07-14T19:34:11.000Z</Time>
            <Position>
              <LatitudeDegrees>43.382280282676219940185546875</LatitudeDegrees>
              <LongitudeDegrees>-4.3134378455579280853271484375</LongitudeDegrees>
            </Position>
            <AltitudeMeters>54.799999237060546875</AltitudeMeters>
            <DistanceMeters>NAN</DistanceMeters>
          </Trackpoint>
          <Trackpoint>
            <Time>2022-07-14T19:34:12.000Z</Time>
            <Position>
              <LatitudeDegrees>43.38222789578139781951904296875</LatitudeDegrees>
              <LongitudeDegrees>-4.3134735524654388427734375</LongitudeDegrees>
            </Position>
            <AltitudeMeters>54.200000762939453125</AltitudeMeters>
            <DistanceMeters>NAN</DistanceMeters>
          </Trackpoint>
          <Trackpoint>
            <Time>2022-07-14T19:34:13.000Z</Time>
            <Position>
              <LatitudeDegrees>43.3821808733046054840087890625</LatitudeDegrees>
              <LongitudeDegrees>-4.31351420469582080841064453125</LongitudeDegrees>
            </Position>
            <AltitudeMeters>53.40000152587890625</AltitudeMeters>
            <DistanceMeters>NAN</DistanceMeters>
          </Trackpoint>
          <Trackpoint>
            <Time>2022-07-14T19:34:14.000Z</Time>
            <Position>
              <LatitudeDegrees>43.3821411430835723876953125</LatitudeDegrees>
              <LongitudeDegrees>-4.3135608918964862823486328125</LongitudeDegrees>
            </Position>
            <AltitudeMeters>52.40000152587890625</AltitudeMeters>
            <DistanceMeters>NAN</DistanceMeters>
          </Trackpoint>
          <Trackpoint>
            <Time>2022-07-14T19:34:16.000Z</Time>
            <Position>
              <LatitudeDegrees>43.38206880725920200347900390625</LatitudeDegrees>
              <LongitudeDegrees>-4.31367211975157260894775390625</LongitudeDegrees>
            </Position>
            <AltitudeMeters>51.200000762939453125</AltitudeMeters>
            <DistanceMeters>NAN</DistanceMeters>
          </Trackpoint>
          <Trackpoint>
            <Time>2022-07-14T19:34:18.000Z</Time>
            <Position>
              <LatitudeDegrees>43.382029831409454345703125</LatitudeDegrees>
              <LongitudeDegrees>-4.31378158740699291229248046875</LongitudeDegrees>
            </Position>
            <AltitudeMeters>49.40000152587890625</AltitudeMeters>
            <DistanceMeters>NAN</DistanceMeters>
          </Trackpoint>
          <Trackpoint>
            <Time>2022-07-14T19:34:19.000Z</Time>
            <Position>
              <LatitudeDegrees>43.382031507790088653564453125</LatitudeDegrees>
              <LongitudeDegrees>-4.31382835842669010162353515625</LongitudeDegrees>
            </Position>
            <AltitudeMeters>48.59999847412109375</AltitudeMeters>
            <DistanceMeters>NAN</DistanceMeters>
          </Trackpoint>
          <Trackpoint>
            <Time>2022-07-14T19:34:20.000Z</Time>
            <Position>
              <LatitudeDegrees>43.3820444159209728240966796875</LatitudeDegrees>
              <LongitudeDegrees>-4.31387747637927532196044921875</LongitudeDegrees>
            </Position>
            <AltitudeMeters>47.799999237060546875</AltitudeMeters>
            <DistanceMeters>NAN</DistanceMeters>
          </Trackpoint>
          <Trackpoint>
            <Time>2022-07-14T19:34:21.000Z</Time>
            <Position>
              <LatitudeDegrees>43.38207249529659748077392578125</LatitudeDegrees>
              <LongitudeDegrees>-4.31391133926808834075927734375</LongitudeDegrees>
            </Position>
            <AltitudeMeters>47.40000152587890625</AltitudeMeters>
            <DistanceMeters>NAN</DistanceMeters>
          </Trackpoint>
          <Trackpoint>
            <Time>2022-07-14T19:34:22.000Z</Time>
            <Position>
              <LatitudeDegrees>43.38210568763315677642822265625</LatitudeDegrees>
              <LongitudeDegrees>-4.3139263428747653961181640625</LongitudeDegrees>
            </Position>
            <AltitudeMeters>47.200000762939453125</AltitudeMeters>
            <DistanceMeters>NAN</DistanceMeters>
          </Trackpoint>
          <Trackpoint>
            <Time>2022-07-14T19:34:25.000Z</Time>
            <Position>
              <LatitudeDegrees>43.38219277560710906982421875</LatitudeDegrees>
              <LongitudeDegrees>-4.3139397539198398590087890625</LongitudeDegrees>
            </Position>
            <AltitudeMeters>46.799999237060546875</AltitudeMeters>
            <DistanceMeters>NAN</DistanceMeters>
          </Trackpoint>
          <Trackpoint>
            <Time>2022-07-14T19:34:26.000Z</Time>
            <Position>
              <LatitudeDegrees>43.38221398182213306427001953125</LatitudeDegrees>
              <LongitudeDegrees>-4.31394335813820362091064453125</LongitudeDegrees>
            </Position>
            <AltitudeMeters>46.799999237060546875</AltitudeMeters>
            <DistanceMeters>NAN</DistanceMeters>
          </Trackpoint>
          <Trackpoint>
            <Time>2022-07-14T19:34:31.000Z</Time>
            <Position>
              <LatitudeDegrees>43.38225890882313251495361328125</LatitudeDegrees>
              <LongitudeDegrees>-4.3139622174203395843505859375</LongitudeDegrees>
            </Position>
            <AltitudeMeters>46.799999237060546875</AltitudeMeters>
            <DistanceMeters>NAN</DistanceMeters>
          </Trackpoint>
          <Trackpoint>
            <Time>2022-07-14T19:34:32.000Z</Time>
            <Position>
              <LatitudeDegrees>43.38225991465151309967041015625</LatitudeDegrees>
              <LongitudeDegrees>-4.3139598704874515533447265625</LongitudeDegrees>
            </Position>
            <AltitudeMeters>47</AltitudeMeters>
            <DistanceMeters>NAN</DistanceMeters>
          </Trackpoint>
          <Trackpoint>
            <Time>2022-07-14T19:34:54.000Z</Time>
            <Position>
              <LatitudeDegrees>43.382210545241832733154296875</LatitudeDegrees>
              <LongitudeDegrees>-4.3139347247779369354248046875</LongitudeDegrees>
            </Position>
            <AltitudeMeters>47</AltitudeMeters>
            <DistanceMeters>NAN</DistanceMeters>
          </Trackpoint>
          <Trackpoint>
            <Time>2022-07-14T19:34:56.000Z</Time>
            <Position>
              <LatitudeDegrees>43.38213619776070117950439453125</LatitudeDegrees>
              <LongitudeDegrees>-4.31391410529613494873046875</LongitudeDegrees>
            </Position>
            <AltitudeMeters>46.799999237060546875</AltitudeMeters>
            <DistanceMeters>NAN</DistanceMeters>
          </Trackpoint>
          <Trackpoint>
            <Time>2022-07-14T19:34:58.000Z</Time>
            <Position>
              <LatitudeDegrees>43.3820672146975994110107421875</LatitudeDegrees>
              <LongitudeDegrees>-4.31386356242001056671142578125</LongitudeDegrees>
            </Position>
            <AltitudeMeters>46.799999237060546875</AltitudeMeters>
            <DistanceMeters>NAN</DistanceMeters>
          </Trackpoint>
          <Trackpoint>
            <Time>2022-07-14T19:34:59.000Z</Time>
            <Position>
              <LatitudeDegrees>43.38205003179609775543212890625</LatitudeDegrees>
              <LongitudeDegrees>-4.31382718496024608612060546875</LongitudeDegrees>
            </Position>
            <AltitudeMeters>47</AltitudeMeters>
            <DistanceMeters>NAN</DistanceMeters>
          </Trackpoint>
          <Trackpoint>
            <Time>2022-07-14T19:35:00.000Z</Time>
            <Position>
              <LatitudeDegrees>43.38204919360578060150146484375</LatitudeDegrees>
              <LongitudeDegrees>-4.313792400062084197998046875</LongitudeDegrees>
            </Position>
            <AltitudeMeters>47.200000762939453125</AltitudeMeters>
            <DistanceMeters>NAN</DistanceMeters>
          </Trackpoint>
          <Trackpoint>
            <Time>2022-07-14T19:35:01.000Z</Time>
            <Position>
              <LatitudeDegrees>43.3820561505854129791259765625</LatitudeDegrees>
              <LongitudeDegrees>-4.31375778280198574066162109375</LongitudeDegrees>
            </Position>
            <AltitudeMeters>47.59999847412109375</AltitudeMeters>
            <DistanceMeters>NAN</DistanceMeters>
          </Trackpoint>
          <Trackpoint>
            <Time>2022-07-14T19:35:02.000Z</Time>
            <Position>
              <LatitudeDegrees>43.3820705674588680267333984375</LatitudeDegrees>
              <LongitudeDegrees>-4.3137310445308685302734375</LongitudeDegrees>
            </Position>
            <AltitudeMeters>47.799999237060546875</AltitudeMeters>
            <DistanceMeters>NAN</DistanceMeters>
          </Trackpoint>
          <Trackpoint>
            <Time>2022-07-14T19:35:04.000Z</Time>
            <Position>
              <LatitudeDegrees>43.38210267014801502227783203125</LatitudeDegrees>
              <LongitudeDegrees>-4.31369408033788204193115234375</LongitudeDegrees>
            </Position>
            <AltitudeMeters>48.200000762939453125</AltitudeMeters>
            <DistanceMeters>NAN</DistanceMeters>
          </Trackpoint>
          <Trackpoint>
            <Time>2022-07-14T19:35:06.000Z</Time>
            <Position>
              <LatitudeDegrees>43.38212647475302219390869140625</LatitudeDegrees>
              <LongitudeDegrees>-4.3136532604694366455078125</LongitudeDegrees>
            </Position>
            <AltitudeMeters>49</AltitudeMeters>
            <DistanceMeters>NAN</DistanceMeters>
          </Trackpoint>
          <Trackpoint>
            <Time>2022-07-14T19:35:09.000Z</Time>
            <Position>
              <LatitudeDegrees>43.38216888718307018280029296875</LatitudeDegrees>
              <LongitudeDegrees>-4.31360405869781970977783203125</LongitudeDegrees>
            </Position>
            <AltitudeMeters>50.200000762939453125</AltitudeMeters>
            <DistanceMeters>NAN</DistanceMeters>
          </Trackpoint>
          <Trackpoint>
            <Time>2022-07-14T19:35:12.000Z</Time>
            <Position>
              <LatitudeDegrees>43.3822076953947544097900390625</LatitudeDegrees>
              <LongitudeDegrees>-4.313561730086803436279296875</LongitudeDegrees>
            </Position>
            <AltitudeMeters>50.799999237060546875</AltitudeMeters>
            <DistanceMeters>NAN</DistanceMeters>
          </Trackpoint>
          <Trackpoint>
            <Time>2022-07-14T19:35:14.000Z</Time>
            <Position>
              <LatitudeDegrees>43.38223912753164768218994140625</LatitudeDegrees>
              <LongitudeDegrees>-4.313547648489475250244140625</LongitudeDegrees>
            </Position>
            <AltitudeMeters>51.40000152587890625</AltitudeMeters>
            <DistanceMeters>NAN</DistanceMeters>
          </Trackpoint>
          <Trackpoint>
            <Time>2022-07-14T19:35:19.000Z</Time>
            <Position>
              <LatitudeDegrees>43.382292352616786956787109375</LatitudeDegrees>
              <LongitudeDegrees>-4.3135079182684421539306640625</LongitudeDegrees>
            </Position>
            <AltitudeMeters>52.40000152587890625</AltitudeMeters>
            <DistanceMeters>NAN</DistanceMeters>
          </Trackpoint>
          <Trackpoint>
            <Time>2022-07-14T19:35:24.000Z</Time>
            <Position>
              <LatitudeDegrees>43.38238212279975414276123046875</LatitudeDegrees>
              <LongitudeDegrees>-4.3134576268494129180908203125</LongitudeDegrees>
            </Position>
            <AltitudeMeters>53.59999847412109375</AltitudeMeters>
            <DistanceMeters>NAN</DistanceMeters>
          </Trackpoint>
          <Trackpoint>
            <Time>2022-07-14T19:35:26.000Z</Time>
            <Position>
              <LatitudeDegrees>43.38241196237504482269287109375</LatitudeDegrees>
              <LongitudeDegrees>-4.31344128213822841644287109375</LongitudeDegrees>
            </Position>
            <AltitudeMeters>54.200000762939453125</AltitudeMeters>
            <DistanceMeters>NAN</DistanceMeters>
          </Trackpoint>
          <Trackpoint>
            <Time>2022-07-14T19:35:29.000Z</Time>
            <Position>
              <LatitudeDegrees>43.38245823048055171966552734375</LatitudeDegrees>
              <LongitudeDegrees>-4.3134261108934879302978515625</LongitudeDegrees>
            </Position>
            <AltitudeMeters>54.59999847412109375</AltitudeMeters>
            <DistanceMeters>NAN</DistanceMeters>
          </Trackpoint>
          <Trackpoint>
            <Time>2022-07-14T19:35:30.000Z</Time>
            <Position>
              <LatitudeDegrees>43.38247298263013362884521484375</LatitudeDegrees>
              <LongitudeDegrees>-4.31342150084674358367919921875</LongitudeDegrees>
            </Position>
            <AltitudeMeters>54.799999237060546875</AltitudeMeters>
            <DistanceMeters>NAN</DistanceMeters>
          </Trackpoint>
          <Trackpoint>
            <Time>2022-07-14T19:35:31.000Z</Time>
            <Position>
              <LatitudeDegrees>43.38248689658939838409423828125</LatitudeDegrees>
              <LongitudeDegrees>-4.313412867486476898193359375</LongitudeDegrees>
            </Position>
            <AltitudeMeters>55</AltitudeMeters>
            <DistanceMeters>NAN</DistanceMeters>
          </Trackpoint>
          <Trackpoint>
            <Time>2022-07-14T19:35:32.000Z</Time>
            <Position>
              <LatitudeDegrees>43.38250282220542430877685546875</LatitudeDegrees>
              <LongitudeDegrees>-4.31340448558330535888671875</LongitudeDegrees>
            </Position>
            <AltitudeMeters>55.200000762939453125</AltitudeMeters>
            <DistanceMeters>NAN</DistanceMeters>
          </Trackpoint>
          <Trackpoint>
            <Time>2022-07-14T19:35:33.000Z</Time>
            <Position>
              <LatitudeDegrees>43.38251640088856220245361328125</LatitudeDegrees>
              <LongitudeDegrees>-4.31339032016694545745849609375</LongitudeDegrees>
            </Position>
            <AltitudeMeters>55.40000152587890625</AltitudeMeters>
            <DistanceMeters>NAN</DistanceMeters>
          </Trackpoint>
          <Trackpoint>
            <Time>2022-07-14T19:35:35.000Z</Time>
            <Position>
              <LatitudeDegrees>43.38252897374331951141357421875</LatitudeDegrees>
              <LongitudeDegrees>-4.31335620582103729248046875</LongitudeDegrees>
            </Position>
            <AltitudeMeters>56</AltitudeMeters>
            <DistanceMeters>NAN</DistanceMeters>
          </Trackpoint>
          <Trackpoint>
            <Time>2022-07-14T19:35:37.000Z</Time>
            <Position>
              <LatitudeDegrees>43.38251992128789424896240234375</LatitudeDegrees>
              <LongitudeDegrees>-4.31331932544708251953125</LongitudeDegrees>
            </Position>
            <AltitudeMeters>56.40000152587890625</AltitudeMeters>
            <DistanceMeters>NAN</DistanceMeters>
          </Trackpoint>
          <Trackpoint>
            <Time>2022-07-14T19:35:40.000Z</Time>
            <Position>
              <LatitudeDegrees>43.38247801177203655242919921875</LatitudeDegrees>
              <LongitudeDegrees>-4.3132938444614410400390625</LongitudeDegrees>
            </Position>
            <AltitudeMeters>57</AltitudeMeters>
            <DistanceMeters>NAN</DistanceMeters>
          </Trackpoint>
          <Trackpoint>
            <Time>2022-07-14T19:35:46.000Z</Time>
            <Position>
              <LatitudeDegrees>43.38235496543347835540771484375</LatitudeDegrees>
              <LongitudeDegrees>-4.31321647949516773223876953125</LongitudeDegrees>
            </Position>
            <AltitudeMeters>57</AltitudeMeters>
            <DistanceMeters>NAN</DistanceMeters>
          </Trackpoint>
          <Trackpoint>
            <Time>2022-07-14T19:35:48.000Z</Time>
            <Position>
              <LatitudeDegrees>43.38231724686920642852783203125</LatitudeDegrees>
              <LongitudeDegrees>-4.31318177841603755950927734375</LongitudeDegrees>
            </Position>
            <AltitudeMeters>57</AltitudeMeters>
            <DistanceMeters>NAN</DistanceMeters>
          </Trackpoint>
          <Trackpoint>
            <Time>2022-07-14T19:35:54.000Z</Time>
            <Position>
              <LatitudeDegrees>43.3822190947830677032470703125</LatitudeDegrees>
              <LongitudeDegrees>-4.3130630068480968475341796875</LongitudeDegrees>
            </Position>
            <AltitudeMeters>57.40000152587890625</AltitudeMeters>
            <DistanceMeters>NAN</DistanceMeters>
          </Trackpoint>
          <Trackpoint>
            <Time>2022-07-14T19:35:58.000Z</Time>
            <Position>
              <LatitudeDegrees>43.38214441202580928802490234375</LatitudeDegrees>
              <LongitudeDegrees>-4.31295714341104030609130859375</LongitudeDegrees>
            </Position>
            <AltitudeMeters>57.59999847412109375</AltitudeMeters>
            <DistanceMeters>NAN</DistanceMeters>
          </Trackpoint>
          <Trackpoint>
            <Time>2022-07-14T19:36:06.000Z</Time>
            <Position>
              <LatitudeDegrees>43.38198901154100894927978515625</LatitudeDegrees>
              <LongitudeDegrees>-4.31275513954460620880126953125</LongitudeDegrees>
            </Position>
            <AltitudeMeters>57.799999237060546875</AltitudeMeters>
            <DistanceMeters>NAN</DistanceMeters>
          </Trackpoint>
          <Trackpoint>
            <Time>2022-07-14T19:36:14.000Z</Time>
            <Position>
              <LatitudeDegrees>43.381812907755374908447265625</LatitudeDegrees>
              <LongitudeDegrees>-4.31253553368151187896728515625</LongitudeDegrees>
            </Position>
            <AltitudeMeters>57.799999237060546875</AltitudeMeters>
            <DistanceMeters>NAN</DistanceMeters>
          </Trackpoint>
          <Trackpoint>
            <Time>2022-07-14T19:36:20.000Z</Time>
            <Position>
              <LatitudeDegrees>43.3816330321133136749267578125</LatitudeDegrees>
              <LongitudeDegrees>-4.3124276585876941680908203125</LongitudeDegrees>
            </Position>
            <AltitudeMeters>57.799999237060546875</AltitudeMeters>
            <DistanceMeters>NAN</DistanceMeters>
          </Trackpoint>
          <Trackpoint>
            <Time>2022-07-14T19:36:25.000Z</Time>
            <Position>
              <LatitudeDegrees>43.3815002627670764923095703125</LatitudeDegrees>
              <LongitudeDegrees>-4.31252245791256427764892578125</LongitudeDegrees>
            </Position>
            <AltitudeMeters>57.200000762939453125</AltitudeMeters>
            <DistanceMeters>NAN</DistanceMeters>
          </Trackpoint>
          <Trackpoint>
            <Time>2022-07-14T19:36:33.000Z</Time>
            <Position>
              <LatitudeDegrees>43.3812813274562358856201171875</LatitudeDegrees>
              <LongitudeDegrees>-4.31272094137966632843017578125</LongitudeDegrees>
            </Position>
            <AltitudeMeters>56</AltitudeMeters>
            <DistanceMeters>NAN</DistanceMeters>
          </Trackpoint>
          <Trackpoint>
            <Time>2022-07-14T19:36:34.000Z</Time>
            <Position>
              <LatitudeDegrees>43.38124486617743968963623046875</LatitudeDegrees>
              <LongitudeDegrees>-4.31275161914527416229248046875</LongitudeDegrees>
            </Position>
            <AltitudeMeters>55.799999237060546875</AltitudeMeters>
            <DistanceMeters>NAN</DistanceMeters>
          </Trackpoint>
          <Trackpoint>
            <Time>2022-07-14T19:36:39.000Z</Time>
            <Position>
              <LatitudeDegrees>43.3810627274215221405029296875</LatitudeDegrees>
              <LongitudeDegrees>-4.31292797438800334930419921875</LongitudeDegrees>
            </Position>
            <AltitudeMeters>54.799999237060546875</AltitudeMeters>
            <DistanceMeters>NAN</DistanceMeters>
          </Trackpoint>
          <Trackpoint>
            <Time>2022-07-14T19:36:42.000Z</Time>
            <Position>
              <LatitudeDegrees>43.3809500746428966522216796875</LatitudeDegrees>
              <LongitudeDegrees>-4.31304431520402431488037109375</LongitudeDegrees>
            </Position>
            <AltitudeMeters>53.59999847412109375</AltitudeMeters>
            <DistanceMeters>NAN</DistanceMeters>
          </Trackpoint>
          <Trackpoint>
            <Time>2022-07-14T19:36:43.000Z</Time>
            <Position>
              <LatitudeDegrees>43.38091671466827392578125</LatitudeDegrees>
              <LongitudeDegrees>-4.3130901642143726348876953125</LongitudeDegrees>
            </Position>
            <AltitudeMeters>53.200000762939453125</AltitudeMeters>
            <DistanceMeters>NAN</DistanceMeters>
          </Trackpoint>
          <Trackpoint>
            <Time>2022-07-14T19:36:45.000Z</Time>
            <Position>
              <LatitudeDegrees>43.38084437884390354156494140625</LatitudeDegrees>
              <LongitudeDegrees>-4.3131997995078563690185546875</LongitudeDegrees>
            </Position>
            <AltitudeMeters>52.59999847412109375</AltitudeMeters>
            <DistanceMeters>NAN</DistanceMeters>
          </Trackpoint>
          <Trackpoint>
            <Time>2022-07-14T19:36:49.000Z</Time>
            <Position>
              <LatitudeDegrees>43.3807100169360637664794921875</LatitudeDegrees>
              <LongitudeDegrees>-4.313450753688812255859375</LongitudeDegrees>
            </Position>
            <AltitudeMeters>51.200000762939453125</AltitudeMeters>
            <DistanceMeters>NAN</DistanceMeters>
          </Trackpoint>
          <Trackpoint>
            <Time>2022-07-14T19:36:50.000Z</Time>
            <Position>
              <LatitudeDegrees>43.3806768245995044708251953125</LatitudeDegrees>
              <LongitudeDegrees>-4.3135111033916473388671875</LongitudeDegrees>
            </Position>
            <AltitudeMeters>50.799999237060546875</AltitudeMeters>
            <DistanceMeters>NAN</DistanceMeters>
          </Trackpoint>
          <Trackpoint>
            <Time>2022-07-14T19:36:53.000Z</Time>
            <Position>
              <LatitudeDegrees>43.380569033324718475341796875</LatitudeDegrees>
              <LongitudeDegrees>-4.31370531208813190460205078125</LongitudeDegrees>
            </Position>
            <AltitudeMeters>50</AltitudeMeters>
            <DistanceMeters>NAN</DistanceMeters>
          </Trackpoint>
          <Trackpoint>
            <Time>2022-07-14T19:36:56.000Z</Time>
            <Position>
              <LatitudeDegrees>43.3804558776319026947021484375</LatitudeDegrees>
              <LongitudeDegrees>-4.31390161626040935516357421875</LongitudeDegrees>
            </Position>
            <AltitudeMeters>48.59999847412109375</AltitudeMeters>
            <DistanceMeters>NAN</DistanceMeters>
          </Trackpoint>
          <Trackpoint>
            <Time>2022-07-14T19:36:59.000Z</Time>
            <Position>
              <LatitudeDegrees>43.3803552947938442230224609375</LatitudeDegrees>
              <LongitudeDegrees>-4.3141231499612331390380859375</LongitudeDegrees>
            </Position>
            <AltitudeMeters>47.200000762939453125</AltitudeMeters>
            <DistanceMeters>NAN</DistanceMeters>
          </Trackpoint>
          <Trackpoint>
            <Time>2022-07-14T19:37:02.000Z</Time>
            <Position>
              <LatitudeDegrees>43.38027005083858966827392578125</LatitudeDegrees>
              <LongitudeDegrees>-4.31434853933751583099365234375</LongitudeDegrees>
            </Position>
            <AltitudeMeters>46</AltitudeMeters>
            <DistanceMeters>NAN</DistanceMeters>
          </Trackpoint>
          <Trackpoint>
            <Time>2022-07-14T19:37:05.000Z</Time>
            <Position>
              <LatitudeDegrees>43.38019897229969501495361328125</LatitudeDegrees>
              <LongitudeDegrees>-4.3145831488072872161865234375</LongitudeDegrees>
            </Position>
            <AltitudeMeters>44.799999237060546875</AltitudeMeters>
            <DistanceMeters>NAN</DistanceMeters>
          </Trackpoint>
          <Trackpoint>
            <Time>2022-07-14T19:37:07.000Z</Time>
            <Position>
              <LatitudeDegrees>43.38017416186630725860595703125</LatitudeDegrees>
              <LongitudeDegrees>-4.31474450044333934783935546875</LongitudeDegrees>
            </Position>
            <AltitudeMeters>43.799999237060546875</AltitudeMeters>
            <DistanceMeters>NAN</DistanceMeters>
          </Trackpoint>
          <Trackpoint>
            <Time>2022-07-14T19:37:09.000Z</Time>
            <Position>
              <LatitudeDegrees>43.38015890680253505706787109375</LatitudeDegrees>
              <LongitudeDegrees>-4.31490375660359859466552734375</LongitudeDegrees>
            </Position>
            <AltitudeMeters>42.59999847412109375</AltitudeMeters>
            <DistanceMeters>NAN</DistanceMeters>
          </Trackpoint>
          <Trackpoint>
            <Time>2022-07-14T19:37:11.000Z</Time>
            <Position>
              <LatitudeDegrees>43.38014029897749423980712890625</LatitudeDegrees>
              <LongitudeDegrees>-4.31503904052078723907470703125</LongitudeDegrees>
            </Position>
            <AltitudeMeters>41</AltitudeMeters>
            <DistanceMeters>NAN</DistanceMeters>
          </Trackpoint>
          <Trackpoint>
            <Time>2022-07-14T19:37:13.000Z</Time>
            <Position>
              <LatitudeDegrees>43.3801294863224029541015625</LatitudeDegrees>
              <LongitudeDegrees>-4.31513442657887935638427734375</LongitudeDegrees>
            </Position>
            <AltitudeMeters>39.59999847412109375</AltitudeMeters>
            <DistanceMeters>NAN</DistanceMeters>
          </Trackpoint>
          <Trackpoint>
            <Time>2022-07-14T19:37:15.000Z</Time>
            <Position>
              <LatitudeDegrees>43.3801214396953582763671875</LatitudeDegrees>
              <LongitudeDegrees>-4.315181784331798553466796875</LongitudeDegrees>
            </Position>
            <AltitudeMeters>38.40000152587890625</AltitudeMeters>
            <DistanceMeters>NAN</DistanceMeters>
          </Trackpoint>
          <Trackpoint>
            <Time>2022-07-14T19:37:19.000Z</Time>
            <Position>
              <LatitudeDegrees>43.38011808693408966064453125</LatitudeDegrees>
              <LongitudeDegrees>-4.31520399637520313262939453125</LongitudeDegrees>
            </Position>
            <AltitudeMeters>37.799999237060546875</AltitudeMeters>
            <DistanceMeters>NAN</DistanceMeters>
          </Trackpoint>
          <Trackpoint>
            <Time>2022-07-14T19:37:29.000Z</Time>
            <Position>
              <LatitudeDegrees>43.38015739805996417999267578125</LatitudeDegrees>
              <LongitudeDegrees>-4.31523400358855724334716796875</LongitudeDegrees>
            </Position>
            <AltitudeMeters>37.40000152587890625</AltitudeMeters>
            <DistanceMeters>NAN</DistanceMeters>
          </Trackpoint>
          <Trackpoint>
            <Time>2022-07-14T19:37:30.000Z</Time>
            <Position>
              <LatitudeDegrees>43.38017709553241729736328125</LatitudeDegrees>
              <LongitudeDegrees>-4.3152411282062530517578125</LongitudeDegrees>
            </Position>
            <AltitudeMeters>37.200000762939453125</AltitudeMeters>
            <DistanceMeters>NAN</DistanceMeters>
          </Trackpoint>
          <Trackpoint>
            <Time>2022-07-14T19:37:34.000Z</Time>
            <Position>
              <LatitudeDegrees>43.380281366407871246337890625</LatitudeDegrees>
              <LongitudeDegrees>-4.31529217399656772613525390625</LongitudeDegrees>
            </Position>
            <AltitudeMeters>35.799999237060546875</AltitudeMeters>
            <DistanceMeters>NAN</DistanceMeters>
          </Trackpoint>
          <Trackpoint>
            <Time>2022-07-14T19:37:36.000Z</Time>
            <Position>
              <LatitudeDegrees>43.38034062646329402923583984375</LatitudeDegrees>
              <LongitudeDegrees>-4.315327294170856475830078125</LongitudeDegrees>
            </Position>
            <AltitudeMeters>34.799999237060546875</AltitudeMeters>
            <DistanceMeters>NAN</DistanceMeters>
          </Trackpoint>
          <Trackpoint>
            <Time>2022-07-14T19:37:39.000Z</Time>
            <Position>
              <LatitudeDegrees>43.3804206736385822296142578125</LatitudeDegrees>
              <LongitudeDegrees>-4.31537188589572906494140625</LongitudeDegrees>
            </Position>
            <AltitudeMeters>33.200000762939453125</AltitudeMeters>
            <DistanceMeters>NAN</DistanceMeters>
          </Trackpoint>
          <Trackpoint>
            <Time>2022-07-14T19:37:41.000Z</Time>
            <Position>
              <LatitudeDegrees>43.38048211298882961273193359375</LatitudeDegrees>
              <LongitudeDegrees>-4.31538772769272327423095703125</LongitudeDegrees>
            </Position>
            <AltitudeMeters>32.59999847412109375</AltitudeMeters>
            <DistanceMeters>NAN</DistanceMeters>
          </Trackpoint>
          <Trackpoint>
            <Time>2022-07-14T19:37:45.000Z</Time>
            <Position>
              <LatitudeDegrees>43.3805557899177074432373046875</LatitudeDegrees>
              <LongitudeDegrees>-4.31538395583629608154296875</LongitudeDegrees>
            </Position>
            <AltitudeMeters>32</AltitudeMeters>
            <DistanceMeters>NAN</DistanceMeters>
          </Trackpoint>
          <Trackpoint>
            <Time>2022-07-14T19:37:46.000Z</Time>
            <Position>
              <LatitudeDegrees>43.3805645070970058441162109375</LatitudeDegrees>
              <LongitudeDegrees>-4.315386302769184112548828125</LongitudeDegrees>
            </Position>
            <AltitudeMeters>31.799999237060546875</AltitudeMeters>
            <DistanceMeters>NAN</DistanceMeters>
          </Trackpoint>
          <Trackpoint>
            <Time>2022-07-14T19:37:47.000Z</Time>
            <Position>
              <LatitudeDegrees>43.38057163171470165252685546875</LatitudeDegrees>
              <LongitudeDegrees>-4.31539325974881649017333984375</LongitudeDegrees>
            </Position>
            <AltitudeMeters>31.6000003814697265625</AltitudeMeters>
            <DistanceMeters>NAN</DistanceMeters>
          </Trackpoint>
          <Trackpoint>
            <Time>2022-07-14T19:37:49.000Z</Time>
            <Position>
              <LatitudeDegrees>43.38059610687196254730224609375</LatitudeDegrees>
              <LongitudeDegrees>-4.31542863138020038604736328125</LongitudeDegrees>
            </Position>
            <AltitudeMeters>31</AltitudeMeters>
            <DistanceMeters>NAN</DistanceMeters>
          </Trackpoint>
          <Trackpoint>
            <Time>2022-07-14T19:37:51.000Z</Time>
            <Position>
              <LatitudeDegrees>43.3806198276579380035400390625</LatitudeDegrees>
              <LongitudeDegrees>-4.31548328138887882232666015625</LongitudeDegrees>
            </Position>
            <AltitudeMeters>30.6000003814697265625</AltitudeMeters>
            <DistanceMeters>NAN</DistanceMeters>
          </Trackpoint>
          <Trackpoint>
            <Time>2022-07-14T19:37:52.000Z</Time>
            <Position>
              <LatitudeDegrees>43.3806282095611095428466796875</LatitudeDegrees>
              <LongitudeDegrees>-4.31551395915448665618896484375</LongitudeDegrees>
            </Position>
            <AltitudeMeters>30</AltitudeMeters>
            <DistanceMeters>NAN</DistanceMeters>
          </Trackpoint>
          <Trackpoint>
            <Time>2022-07-14T19:37:55.000Z</Time>
            <Position>
              <LatitudeDegrees>43.38066768832504749298095703125</LatitudeDegrees>
              <LongitudeDegrees>-4.31560364551842212677001953125</LongitudeDegrees>
            </Position>
            <AltitudeMeters>28.799999237060546875</AltitudeMeters>
            <DistanceMeters>NAN</DistanceMeters>
          </Trackpoint>
          <Trackpoint>
            <Time>2022-07-14T19:37:56.000Z</Time>
            <Position>
              <LatitudeDegrees>43.38068998418748378753662109375</LatitudeDegrees>
              <LongitudeDegrees>-4.31561403907835483551025390625</LongitudeDegrees>
            </Position>
            <AltitudeMeters>28.6000003814697265625</AltitudeMeters>
            <DistanceMeters>NAN</DistanceMeters>
          </Trackpoint>
          <Trackpoint>
            <Time>2022-07-14T19:37:59.000Z</Time>
            <Position>
              <LatitudeDegrees>43.38075335137546062469482421875</LatitudeDegrees>
              <LongitudeDegrees>-4.3155919946730136871337890625</LongitudeDegrees>
            </Position>
            <AltitudeMeters>27.799999237060546875</AltitudeMeters>
            <DistanceMeters>NAN</DistanceMeters>
          </Trackpoint>
          <Trackpoint>
            <Time>2022-07-14T19:38:01.000Z</Time>
            <Position>
              <LatitudeDegrees>43.3807837776839733123779296875</LatitudeDegrees>
              <LongitudeDegrees>-4.315572045743465423583984375</LongitudeDegrees>
            </Position>
            <AltitudeMeters>27.6000003814697265625</AltitudeMeters>
            <DistanceMeters>NAN</DistanceMeters>
          </Trackpoint>
          <Trackpoint>
            <Time>2022-07-14T19:38:07.000Z</Time>
            <Position>
              <LatitudeDegrees>43.38088117539882659912109375</LatitudeDegrees>
              <LongitudeDegrees>-4.31552904658019542694091796875</LongitudeDegrees>
            </Position>
            <AltitudeMeters>28.3999996185302734375</AltitudeMeters>
            <DistanceMeters>NAN</DistanceMeters>
          </Trackpoint>
          <Trackpoint>
            <Time>2022-07-14T19:38:09.000Z</Time>
            <Position>
              <LatitudeDegrees>43.3809188939630985260009765625</LatitudeDegrees>
              <LongitudeDegrees>-4.31551714427769184112548828125</LongitudeDegrees>
            </Position>
            <AltitudeMeters>28.6000003814697265625</AltitudeMeters>
            <DistanceMeters>NAN</DistanceMeters>
          </Trackpoint>
          <Trackpoint>
            <Time>2022-07-14T19:38:11.000Z</Time>
            <Position>
              <LatitudeDegrees>43.38095200248062610626220703125</LatitudeDegrees>
              <LongitudeDegrees>-4.31550540961325168609619140625</LongitudeDegrees>
            </Position>
            <AltitudeMeters>28.799999237060546875</AltitudeMeters>
            <DistanceMeters>NAN</DistanceMeters>
          </Trackpoint>
          <Trackpoint>
            <Time>2022-07-14T19:38:13.000Z</Time>
            <Position>
              <LatitudeDegrees>43.38095703162252902984619140625</LatitudeDegrees>
              <LongitudeDegrees>-4.31550557725131511688232421875</LongitudeDegrees>
            </Position>
            <AltitudeMeters>29</AltitudeMeters>
            <DistanceMeters>NAN</DistanceMeters>
          </Trackpoint>
          <Trackpoint>
            <Time>2022-07-15T05:59:31.000Z</Time>
            <Position>
              <LatitudeDegrees>43.38112366385757923126220703125</LatitudeDegrees>
              <LongitudeDegrees>-4.31546702049672603607177734375</LongitudeDegrees>
            </Position>
            <AltitudeMeters>12</AltitudeMeters>
            <DistanceMeters>NAN</DistanceMeters>
          </Trackpoint>
          <Trackpoint>
            <Time>2022-07-15T05:59:39.000Z</Time>
            <Position>
              <LatitudeDegrees>43.381029032170772552490234375</LatitudeDegrees>
              <LongitudeDegrees>-4.3154370971024036407470703125</LongitudeDegrees>
            </Position>
            <AltitudeMeters>11.80000019073486328125</AltitudeMeters>
            <DistanceMeters>NAN</DistanceMeters>
          </Trackpoint>
          <Trackpoint>
            <Time>2022-07-15T05:59:41.000Z</Time>
            <Position>
              <LatitudeDegrees>43.38098368607461452484130859375</LatitudeDegrees>
              <LongitudeDegrees>-4.3154652602970600128173828125</LongitudeDegrees>
            </Position>
            <AltitudeMeters>10.19999980926513671875</AltitudeMeters>
            <DistanceMeters>NAN</DistanceMeters>
          </Trackpoint>
          <Trackpoint>
            <Time>2022-07-15T05:59:45.000Z</Time>
            <Position>
              <LatitudeDegrees>43.38096373714506626129150390625</LatitudeDegrees>
              <LongitudeDegrees>-4.31549124419689178466796875</LongitudeDegrees>
            </Position>
            <AltitudeMeters>10.19999980926513671875</AltitudeMeters>
            <DistanceMeters>NAN</DistanceMeters>
          </Trackpoint>
          <Trackpoint>
            <Time>2022-07-15T05:59:51.000Z</Time>
            <Position>
              <LatitudeDegrees>43.38091830722987651824951171875</LatitudeDegrees>
              <LongitudeDegrees>-4.31551094166934490203857421875</LongitudeDegrees>
            </Position>
            <AltitudeMeters>9.80000019073486328125</AltitudeMeters>
            <DistanceMeters>NAN</DistanceMeters>
          </Trackpoint>
          <Trackpoint>
            <Time>2022-07-15T05:59:53.000Z</Time>
            <Position>
              <LatitudeDegrees>43.3808536827564239501953125</LatitudeDegrees>
              <LongitudeDegrees>-4.31554019451141357421875</LongitudeDegrees>
            </Position>
            <AltitudeMeters>9.3999996185302734375</AltitudeMeters>
            <DistanceMeters>NAN</DistanceMeters>
          </Trackpoint>
          <Trackpoint>
            <Time>2022-07-15T05:59:55.000Z</Time>
            <Position>
              <LatitudeDegrees>43.38080146349966526031494140625</LatitudeDegrees>
              <LongitudeDegrees>-4.3155748955905437469482421875</LongitudeDegrees>
            </Position>
            <AltitudeMeters>8.80000019073486328125</AltitudeMeters>
            <DistanceMeters>NAN</DistanceMeters>
          </Trackpoint>
          <Trackpoint>
            <Time>2022-07-15T05:59:58.000Z</Time>
            <Position>
              <LatitudeDegrees>43.38074245490133762359619140625</LatitudeDegrees>
              <LongitudeDegrees>-4.31561353616416454315185546875</LongitudeDegrees>
            </Position>
            <AltitudeMeters>7.80000019073486328125</AltitudeMeters>
            <DistanceMeters>NAN</DistanceMeters>
          </Trackpoint>
          <Trackpoint>
            <Time>2022-07-15T05:59:59.000Z</Time>
            <Position>
              <LatitudeDegrees>43.38072434999048709869384765625</LatitudeDegrees>
              <LongitudeDegrees>-4.315616972744464874267578125</LongitudeDegrees>
            </Position>
            <AltitudeMeters>7.599999904632568359375</AltitudeMeters>
            <DistanceMeters>NAN</DistanceMeters>
          </Trackpoint>
          <Trackpoint>
            <Time>2022-07-15T06:00:06.000Z</Time>
            <Position>
              <LatitudeDegrees>43.380610942840576171875</LatitudeDegrees>
              <LongitudeDegrees>-4.31555435992777347564697265625</LongitudeDegrees>
            </Position>
            <AltitudeMeters>7.599999904632568359375</AltitudeMeters>
            <DistanceMeters>NAN</DistanceMeters>
          </Trackpoint>
          <Trackpoint>
            <Time>2022-07-15T06:00:14.000Z</Time>
            <Position>
              <LatitudeDegrees>43.38052167557179927825927734375</LatitudeDegrees>
              <LongitudeDegrees>-4.31551597081124782562255859375</LongitudeDegrees>
            </Position>
            <AltitudeMeters>9.19999980926513671875</AltitudeMeters>
            <DistanceMeters>NAN</DistanceMeters>
          </Trackpoint>
          <Trackpoint>
            <Time>2022-07-15T06:00:19.000Z</Time>
            <Position>
              <LatitudeDegrees>43.38048311881721019744873046875</LatitudeDegrees>
              <LongitudeDegrees>-4.31548881344497203826904296875</LongitudeDegrees>
            </Position>
            <AltitudeMeters>10.19999980926513671875</AltitudeMeters>
            <DistanceMeters>NAN</DistanceMeters>
          </Trackpoint>
          <Trackpoint>
            <Time>2022-07-15T06:00:22.000Z</Time>
            <Position>
              <LatitudeDegrees>43.38044372387230396270751953125</LatitudeDegrees>
              <LongitudeDegrees>-4.31546500883996486663818359375</LongitudeDegrees>
            </Position>
            <AltitudeMeters>11</AltitudeMeters>
            <DistanceMeters>NAN</DistanceMeters>
          </Trackpoint>
          <Trackpoint>
            <Time>2022-07-15T06:00:24.000Z</Time>
            <Position>
              <LatitudeDegrees>43.38042746298015117645263671875</LatitudeDegrees>
              <LongitudeDegrees>-4.3154451437294483184814453125</LongitudeDegrees>
            </Position>
            <AltitudeMeters>11.19999980926513671875</AltitudeMeters>
            <DistanceMeters>NAN</DistanceMeters>
          </Trackpoint>
          <Trackpoint>
            <Time>2022-07-15T06:00:34.000Z</Time>
            <Position>
              <LatitudeDegrees>43.3803495950996875762939453125</LatitudeDegrees>
              <LongitudeDegrees>-4.3153304792940616607666015625</LongitudeDegrees>
            </Position>
            <AltitudeMeters>12.19999980926513671875</AltitudeMeters>
            <DistanceMeters>NAN</DistanceMeters>
          </Trackpoint>
          <Trackpoint>
            <Time>2022-07-15T06:00:41.000Z</Time>
            <Position>
              <LatitudeDegrees>43.38029083795845508575439453125</LatitudeDegrees>
              <LongitudeDegrees>-4.31525713764131069183349609375</LongitudeDegrees>
            </Position>
            <AltitudeMeters>13.6000003814697265625</AltitudeMeters>
            <DistanceMeters>NAN</DistanceMeters>
          </Trackpoint>
          <Trackpoint>
            <Time>2022-07-15T06:00:42.000Z</Time>
            <Position>
              <LatitudeDegrees>43.3802825398743152618408203125</LatitudeDegrees>
              <LongitudeDegrees>-4.31524825282394886016845703125</LongitudeDegrees>
            </Position>
            <AltitudeMeters>13.80000019073486328125</AltitudeMeters>
            <DistanceMeters>NAN</DistanceMeters>
          </Trackpoint>
          <Trackpoint>
            <Time>2022-07-15T06:00:45.000Z</Time>
            <Position>
              <LatitudeDegrees>43.3802503533661365509033203125</LatitudeDegrees>
              <LongitudeDegrees>-4.315240122377872467041015625</LongitudeDegrees>
            </Position>
            <AltitudeMeters>14.6000003814697265625</AltitudeMeters>
            <DistanceMeters>NAN</DistanceMeters>
          </Trackpoint>
          <Trackpoint>
            <Time>2022-07-15T06:00:46.000Z</Time>
            <Position>
              <LatitudeDegrees>43.3802409656345844268798828125</LatitudeDegrees>
              <LongitudeDegrees>-4.31523635052144527435302734375</LongitudeDegrees>
            </Position>
            <AltitudeMeters>14.6000003814697265625</AltitudeMeters>
            <DistanceMeters>NAN</DistanceMeters>
          </Trackpoint>
          <Trackpoint>
            <Time>2022-07-15T06:00:47.000Z</Time>
            <Position>
              <LatitudeDegrees>43.380233086645603179931640625</LatitudeDegrees>
              <LongitudeDegrees>-4.31522830389440059661865234375</LongitudeDegrees>
            </Position>
            <AltitudeMeters>14.80000019073486328125</AltitudeMeters>
            <DistanceMeters>NAN</DistanceMeters>
          </Trackpoint>
          <Trackpoint>
            <Time>2022-07-15T06:00:48.000Z</Time>
            <Position>
              <LatitudeDegrees>43.38022512383759021759033203125</LatitudeDegrees>
              <LongitudeDegrees>-4.31521975435316562652587890625</LongitudeDegrees>
            </Position>
            <AltitudeMeters>14.80000019073486328125</AltitudeMeters>
            <DistanceMeters>NAN</DistanceMeters>
          </Trackpoint>
          <Trackpoint>
            <Time>2022-07-15T06:00:49.000Z</Time>
            <Position>
              <LatitudeDegrees>43.38021690957248210906982421875</LatitudeDegrees>
              <LongitudeDegrees>-4.31521221064031124114990234375</LongitudeDegrees>
            </Position>
            <AltitudeMeters>15.19999980926513671875</AltitudeMeters>
            <DistanceMeters>NAN</DistanceMeters>
          </Trackpoint>
          <Trackpoint>
            <Time>2022-07-15T06:00:50.000Z</Time>
            <Position>
              <LatitudeDegrees>43.38021104224026203155517578125</LatitudeDegrees>
              <LongitudeDegrees>-4.3152067624032497406005859375</LongitudeDegrees>
            </Position>
            <AltitudeMeters>15.3999996185302734375</AltitudeMeters>
            <DistanceMeters>NAN</DistanceMeters>
          </Trackpoint>
          <Trackpoint>
            <Time>2022-07-15T06:00:51.000Z</Time>
            <Position>
              <LatitudeDegrees>43.38020953349769115447998046875</LatitudeDegrees>
              <LongitudeDegrees>-4.31520315818488597869873046875</LongitudeDegrees>
            </Position>
            <AltitudeMeters>15.6000003814697265625</AltitudeMeters>
            <DistanceMeters>NAN</DistanceMeters>
          </Trackpoint>
          <Trackpoint>
            <Time>2022-07-15T06:00:52.000Z</Time>
            <Position>
              <LatitudeDegrees>43.3802050910890102386474609375</LatitudeDegrees>
              <LongitudeDegrees>-4.31520156562328338623046875</LongitudeDegrees>
            </Position>
            <AltitudeMeters>15.6000003814697265625</AltitudeMeters>
            <DistanceMeters>NAN</DistanceMeters>
          </Trackpoint>
          <Trackpoint>
            <Time>2022-07-15T06:05:46.000Z</Time>
            <Position>
              <LatitudeDegrees>43.3801175840198993682861328125</LatitudeDegrees>
              <LongitudeDegrees>-4.31516896001994609832763671875</LongitudeDegrees>
            </Position>
            <AltitudeMeters>19.200000762939453125</AltitudeMeters>
            <DistanceMeters>NAN</DistanceMeters>
          </Trackpoint>
          <Trackpoint>
            <Time>2022-07-15T06:05:47.000Z</Time>
            <Position>
              <LatitudeDegrees>43.38009755127131938934326171875</LatitudeDegrees>
              <LongitudeDegrees>-4.31520533747971057891845703125</LongitudeDegrees>
            </Position>
            <AltitudeMeters>19</AltitudeMeters>
            <DistanceMeters>NAN</DistanceMeters>
          </Trackpoint>
          <Trackpoint>
            <Time>2022-07-15T06:05:49.000Z</Time>
            <Position>
              <LatitudeDegrees>43.38003485463559627532958984375</LatitudeDegrees>
              <LongitudeDegrees>-4.3152781762182712554931640625</LongitudeDegrees>
            </Position>
            <AltitudeMeters>19</AltitudeMeters>
            <DistanceMeters>NAN</DistanceMeters>
          </Trackpoint>
          <Trackpoint>
            <Time>2022-07-15T06:05:50.000Z</Time>
            <Position>
              <LatitudeDegrees>43.37999344803392887115478515625</LatitudeDegrees>
              <LongitudeDegrees>-4.3153108656406402587890625</LongitudeDegrees>
            </Position>
            <AltitudeMeters>18.799999237060546875</AltitudeMeters>
            <DistanceMeters>NAN</DistanceMeters>
          </Trackpoint>
          <Trackpoint>
            <Time>2022-07-15T06:05:53.000Z</Time>
            <Position>
              <LatitudeDegrees>43.37985523045063018798828125</LatitudeDegrees>
              <LongitudeDegrees>-4.315393008291721343994140625</LongitudeDegrees>
            </Position>
            <AltitudeMeters>18</AltitudeMeters>
            <DistanceMeters>NAN</DistanceMeters>
          </Trackpoint>
          <Trackpoint>
            <Time>2022-07-15T06:05:55.000Z</Time>
            <Position>
              <LatitudeDegrees>43.37975598871707916259765625</LatitudeDegrees>
              <LongitudeDegrees>-4.31543894112110137939453125</LongitudeDegrees>
            </Position>
            <AltitudeMeters>17.3999996185302734375</AltitudeMeters>
            <DistanceMeters>NAN</DistanceMeters>
          </Trackpoint>
          <Trackpoint>
            <Time>2022-07-15T06:05:56.000Z</Time>
            <Position>
              <LatitudeDegrees>43.3797058649361133575439453125</LatitudeDegrees>
              <LongitudeDegrees>-4.31544925086200237274169921875</LongitudeDegrees>
            </Position>
            <AltitudeMeters>17.200000762939453125</AltitudeMeters>
            <DistanceMeters>NAN</DistanceMeters>
          </Trackpoint>
          <Trackpoint>
            <Time>2022-07-15T06:05:57.000Z</Time>
            <Position>
              <LatitudeDegrees>43.37966068647801876068115234375</LatitudeDegrees>
              <LongitudeDegrees>-4.3154474906623363494873046875</LongitudeDegrees>
            </Position>
            <AltitudeMeters>16.799999237060546875</AltitudeMeters>
            <DistanceMeters>NAN</DistanceMeters>
          </Trackpoint>
          <Trackpoint>
            <Time>2022-07-15T06:05:59.000Z</Time>
            <Position>
              <LatitudeDegrees>43.37957519106566905975341796875</LatitudeDegrees>
              <LongitudeDegrees>-4.31540918536484241485595703125</LongitudeDegrees>
            </Position>
            <AltitudeMeters>16</AltitudeMeters>
            <DistanceMeters>NAN</DistanceMeters>
          </Trackpoint>
          <Trackpoint>
            <Time>2022-07-15T06:06:01.000Z</Time>
            <Position>
              <LatitudeDegrees>43.37949170731008052825927734375</LatitudeDegrees>
              <LongitudeDegrees>-4.31532050482928752899169921875</LongitudeDegrees>
            </Position>
            <AltitudeMeters>15.6000003814697265625</AltitudeMeters>
            <DistanceMeters>NAN</DistanceMeters>
          </Trackpoint>
          <Trackpoint>
            <Time>2022-07-15T06:06:03.000Z</Time>
            <Position>
              <LatitudeDegrees>43.3794205449521541595458984375</LatitudeDegrees>
              <LongitudeDegrees>-4.315205924212932586669921875</LongitudeDegrees>
            </Position>
            <AltitudeMeters>14.80000019073486328125</AltitudeMeters>
            <DistanceMeters>NAN</DistanceMeters>
          </Trackpoint>
          <Trackpoint>
            <Time>2022-07-15T06:06:04.000Z</Time>
            <Position>
              <LatitudeDegrees>43.37938986718654632568359375</LatitudeDegrees>
              <LongitudeDegrees>-4.31514398194849491119384765625</LongitudeDegrees>
            </Position>
            <AltitudeMeters>14.6000003814697265625</AltitudeMeters>
            <DistanceMeters>NAN</DistanceMeters>
          </Trackpoint>
          <Trackpoint>
            <Time>2022-07-15T06:06:07.000Z</Time>
            <Position>
              <LatitudeDegrees>43.37931736372411251068115234375</LatitudeDegrees>
              <LongitudeDegrees>-4.31494583375751972198486328125</LongitudeDegrees>
            </Position>
            <AltitudeMeters>13.3999996185302734375</AltitudeMeters>
            <DistanceMeters>NAN</DistanceMeters>
          </Trackpoint>
          <Trackpoint>
            <Time>2022-07-15T06:06:09.000Z</Time>
            <Position>
              <LatitudeDegrees>43.37927050888538360595703125</LatitudeDegrees>
              <LongitudeDegrees>-4.31481574662029743194580078125</LongitudeDegrees>
            </Position>
            <AltitudeMeters>12.6000003814697265625</AltitudeMeters>
            <DistanceMeters>NAN</DistanceMeters>
          </Trackpoint>
          <Trackpoint>
            <Time>2022-07-15T06:06:10.000Z</Time>
            <Position>
              <LatitudeDegrees>43.37924812920391559600830078125</LatitudeDegrees>
              <LongitudeDegrees>-4.31475472636520862579345703125</LongitudeDegrees>
            </Position>
            <AltitudeMeters>12</AltitudeMeters>
            <DistanceMeters>NAN</DistanceMeters>
          </Trackpoint>
          <Trackpoint>
            <Time>2022-07-15T06:06:12.000Z</Time>
            <Position>
              <LatitudeDegrees>43.379212506115436553955078125</LatitudeDegrees>
              <LongitudeDegrees>-4.314641989767551422119140625</LongitudeDegrees>
            </Position>
            <AltitudeMeters>11</AltitudeMeters>
            <DistanceMeters>NAN</DistanceMeters>
          </Trackpoint>
          <Trackpoint>
            <Time>2022-07-15T06:06:13.000Z</Time>
            <Position>
              <LatitudeDegrees>43.37920152582228183746337890625</LatitudeDegrees>
              <LongitudeDegrees>-4.31459580548107624053955078125</LongitudeDegrees>
            </Position>
            <AltitudeMeters>10.80000019073486328125</AltitudeMeters>
            <DistanceMeters>NAN</DistanceMeters>
          </Trackpoint>
          <Trackpoint>
            <Time>2022-07-15T06:06:14.000Z</Time>
            <Position>
              <LatitudeDegrees>43.37919272482395172119140625</LatitudeDegrees>
              <LongitudeDegrees>-4.31455607526004314422607421875</LongitudeDegrees>
            </Position>
            <AltitudeMeters>10.19999980926513671875</AltitudeMeters>
            <DistanceMeters>NAN</DistanceMeters>
          </Trackpoint>
          <Trackpoint>
            <Time>2022-07-15T06:06:16.000Z</Time>
            <Position>
              <LatitudeDegrees>43.379181325435638427734375</LatitudeDegrees>
              <LongitudeDegrees>-4.31449203751981258392333984375</LongitudeDegrees>
            </Position>
            <AltitudeMeters>9</AltitudeMeters>
            <DistanceMeters>NAN</DistanceMeters>
          </Trackpoint>
          <Trackpoint>
            <Time>2022-07-15T06:06:17.000Z</Time>
            <Position>
              <LatitudeDegrees>43.37917705066502094268798828125</LatitudeDegrees>
              <LongitudeDegrees>-4.31446739472448825836181640625</LongitudeDegrees>
            </Position>
            <AltitudeMeters>8.6000003814697265625</AltitudeMeters>
            <DistanceMeters>NAN</DistanceMeters>
          </Trackpoint>
          <Trackpoint>
            <Time>2022-07-15T06:06:18.000Z</Time>
            <Position>
              <LatitudeDegrees>43.3791719377040863037109375</LatitudeDegrees>
              <LongitudeDegrees>-4.31444786489009857177734375</LongitudeDegrees>
            </Position>
            <AltitudeMeters>8.3999996185302734375</AltitudeMeters>
            <DistanceMeters>NAN</DistanceMeters>
          </Trackpoint>
          <Trackpoint>
            <Time>2022-07-15T06:06:19.000Z</Time>
            <Position>
              <LatitudeDegrees>43.379167579114437103271484375</LatitudeDegrees>
              <LongitudeDegrees>-4.314433448016643524169921875</LongitudeDegrees>
            </Position>
            <AltitudeMeters>8</AltitudeMeters>
            <DistanceMeters>NAN</DistanceMeters>
          </Trackpoint>
          <Trackpoint>
            <Time>2022-07-15T06:06:23.000Z</Time>
            <Position>
              <LatitudeDegrees>43.37916397489607334136962890625</LatitudeDegrees>
              <LongitudeDegrees>-4.31441911496222019195556640625</LongitudeDegrees>
            </Position>
            <AltitudeMeters>7.400000095367431640625</AltitudeMeters>
            <DistanceMeters>NAN</DistanceMeters>
          </Trackpoint>
          <Trackpoint>
            <Time>2022-07-15T06:06:31.000Z</Time>
            <Position>
              <LatitudeDegrees>43.37912340648472309112548828125</LatitudeDegrees>
              <LongitudeDegrees>-4.314363040030002593994140625</LongitudeDegrees>
            </Position>
            <AltitudeMeters>7.19999980926513671875</AltitudeMeters>
            <DistanceMeters>NAN</DistanceMeters>
          </Trackpoint>
          <Trackpoint>
            <Time>2022-07-15T06:06:35.000Z</Time>
            <Position>
              <LatitudeDegrees>43.37905433960258960723876953125</LatitudeDegrees>
              <LongitudeDegrees>-4.31431769393384456634521484375</LongitudeDegrees>
            </Position>
            <AltitudeMeters>6.80000019073486328125</AltitudeMeters>
            <DistanceMeters>NAN</DistanceMeters>
          </Trackpoint>
          <Trackpoint>
            <Time>2022-07-15T06:06:37.000Z</Time>
            <Position>
              <LatitudeDegrees>43.379031457006931304931640625</LatitudeDegrees>
              <LongitudeDegrees>-4.314302690327167510986328125</LongitudeDegrees>
            </Position>
            <AltitudeMeters>6.400000095367431640625</AltitudeMeters>
            <DistanceMeters>NAN</DistanceMeters>
          </Trackpoint>
          <Trackpoint>
            <Time>2022-07-15T06:06:43.000Z</Time>
            <Position>
              <LatitudeDegrees>43.378970436751842498779296875</LatitudeDegrees>
              <LongitudeDegrees>-4.314211495220661163330078125</LongitudeDegrees>
            </Position>
            <AltitudeMeters>6</AltitudeMeters>
            <DistanceMeters>NAN</DistanceMeters>
          </Trackpoint>
          <Trackpoint>
            <Time>2022-07-15T06:06:45.000Z</Time>
            <Position>
              <LatitudeDegrees>43.37895526550710201263427734375</LatitudeDegrees>
              <LongitudeDegrees>-4.31420386768877506256103515625</LongitudeDegrees>
            </Position>
            <AltitudeMeters>6</AltitudeMeters>
            <DistanceMeters>NAN</DistanceMeters>
          </Trackpoint>
          <Trackpoint>
            <Time>2022-07-15T06:06:47.000Z</Time>
            <Position>
              <LatitudeDegrees>43.3789330534636974334716796875</LatitudeDegrees>
              <LongitudeDegrees>-4.3142301030457019805908203125</LongitudeDegrees>
            </Position>
            <AltitudeMeters>6</AltitudeMeters>
            <DistanceMeters>NAN</DistanceMeters>
          </Trackpoint>
          <Trackpoint>
            <Time>2022-07-15T06:06:48.000Z</Time>
            <Position>
              <LatitudeDegrees>43.378928862512111663818359375</LatitudeDegrees>
              <LongitudeDegrees>-4.314252398908138275146484375</LongitudeDegrees>
            </Position>
            <AltitudeMeters>6</AltitudeMeters>
            <DistanceMeters>NAN</DistanceMeters>
          </Trackpoint>
          <Trackpoint>
            <Time>2022-07-15T06:06:53.000Z</Time>
            <Position>
              <LatitudeDegrees>43.37892726995050907135009765625</LatitudeDegrees>
              <LongitudeDegrees>-4.31435893289744853973388671875</LongitudeDegrees>
            </Position>
            <AltitudeMeters>5.80000019073486328125</AltitudeMeters>
            <DistanceMeters>NAN</DistanceMeters>
          </Trackpoint>
          <Trackpoint>
            <Time>2022-07-15T06:06:55.000Z</Time>
            <Position>
              <LatitudeDegrees>43.3789265155792236328125</LatitudeDegrees>
              <LongitudeDegrees>-4.31440955959260463714599609375</LongitudeDegrees>
            </Position>
            <AltitudeMeters>5.80000019073486328125</AltitudeMeters>
            <DistanceMeters>NAN</DistanceMeters>
          </Trackpoint>
          <Trackpoint>
            <Time>2022-07-15T06:06:57.000Z</Time>
            <Position>
              <LatitudeDegrees>43.3789280243217945098876953125</LatitudeDegrees>
              <LongitudeDegrees>-4.31446555070579051971435546875</LongitudeDegrees>
            </Position>
            <AltitudeMeters>5.80000019073486328125</AltitudeMeters>
            <DistanceMeters>NAN</DistanceMeters>
          </Trackpoint>
          <Trackpoint>
            <Time>2022-07-15T06:06:59.000Z</Time>
            <Position>
              <LatitudeDegrees>43.378920815885066986083984375</LatitudeDegrees>
              <LongitudeDegrees>-4.31452053599059581756591796875</LongitudeDegrees>
            </Position>
            <AltitudeMeters>5.80000019073486328125</AltitudeMeters>
            <DistanceMeters>NAN</DistanceMeters>
          </Trackpoint>
          <Trackpoint>
            <Time>2022-07-15T06:07:01.000Z</Time>
            <Position>
              <LatitudeDegrees>43.3788971789181232452392578125</LatitudeDegrees>
              <LongitudeDegrees>-4.31458625011146068572998046875</LongitudeDegrees>
            </Position>
            <AltitudeMeters>5.80000019073486328125</AltitudeMeters>
            <DistanceMeters>NAN</DistanceMeters>
          </Trackpoint>
          <Trackpoint>
            <Time>2022-07-15T06:07:07.000Z</Time>
            <Position>
              <LatitudeDegrees>43.3788532577455043792724609375</LatitudeDegrees>
              <LongitudeDegrees>-4.31481474079191684722900390625</LongitudeDegrees>
            </Position>
            <AltitudeMeters>5.80000019073486328125</AltitudeMeters>
            <DistanceMeters>NAN</DistanceMeters>
          </Trackpoint>
          <Trackpoint>
            <Time>2022-07-15T06:07:14.000Z</Time>
            <Position>
              <LatitudeDegrees>43.3788328059017658233642578125</LatitudeDegrees>
              <LongitudeDegrees>-4.31510861031711101531982421875</LongitudeDegrees>
            </Position>
            <AltitudeMeters>5.599999904632568359375</AltitudeMeters>
            <DistanceMeters>NAN</DistanceMeters>
          </Trackpoint>
          <Trackpoint>
            <Time>2022-07-15T06:07:18.000Z</Time>
            <Position>
              <LatitudeDegrees>43.37883205153048038482666015625</LatitudeDegrees>
              <LongitudeDegrees>-4.31529100053012371063232421875</LongitudeDegrees>
            </Position>
            <AltitudeMeters>5.400000095367431640625</AltitudeMeters>
            <DistanceMeters>NAN</DistanceMeters>
          </Trackpoint>
          <Trackpoint>
            <Time>2022-07-15T06:07:21.000Z</Time>
            <Position>
              <LatitudeDegrees>43.37883590720593929290771484375</LatitudeDegrees>
              <LongitudeDegrees>-4.31543014012277126312255859375</LongitudeDegrees>
            </Position>
            <AltitudeMeters>5.19999980926513671875</AltitudeMeters>
            <DistanceMeters>NAN</DistanceMeters>
          </Trackpoint>
          <Trackpoint>
            <Time>2022-07-15T06:07:24.000Z</Time>
            <Position>
              <LatitudeDegrees>43.37884127162396907806396484375</LatitudeDegrees>
              <LongitudeDegrees>-4.31558780372142791748046875</LongitudeDegrees>
            </Position>
            <AltitudeMeters>4.80000019073486328125</AltitudeMeters>
            <DistanceMeters>NAN</DistanceMeters>
          </Trackpoint>
          <Trackpoint>
            <Time>2022-07-15T06:07:26.000Z</Time>
            <Position>
              <LatitudeDegrees>43.37885820306837558746337890625</LatitudeDegrees>
              <LongitudeDegrees>-4.31571227498352527618408203125</LongitudeDegrees>
            </Position>
            <AltitudeMeters>4.599999904632568359375</AltitudeMeters>
            <DistanceMeters>NAN</DistanceMeters>
          </Trackpoint>
          <Trackpoint>
            <Time>2022-07-15T06:07:28.000Z</Time>
            <Position>
              <LatitudeDegrees>43.37886876426637172698974609375</LatitudeDegrees>
              <LongitudeDegrees>-4.315815456211566925048828125</LongitudeDegrees>
            </Position>
            <AltitudeMeters>4.599999904632568359375</AltitudeMeters>
            <DistanceMeters>NAN</DistanceMeters>
          </Trackpoint>
          <Trackpoint>
            <Time>2022-07-15T06:07:31.000Z</Time>
            <Position>
              <LatitudeDegrees>43.37890782393515110015869140625</LatitudeDegrees>
              <LongitudeDegrees>-4.31600966490805149078369140625</LongitudeDegrees>
            </Position>
            <AltitudeMeters>4.599999904632568359375</AltitudeMeters>
            <DistanceMeters>NAN</DistanceMeters>
          </Trackpoint>
          <Trackpoint>
            <Time>2022-07-15T06:07:33.000Z</Time>
            <Position>
              <LatitudeDegrees>43.3789323829114437103271484375</LatitudeDegrees>
              <LongitudeDegrees>-4.3161183781921863555908203125</LongitudeDegrees>
            </Position>
            <AltitudeMeters>4.400000095367431640625</AltitudeMeters>
            <DistanceMeters>NAN</DistanceMeters>
          </Trackpoint>
          <Trackpoint>
            <Time>2022-07-15T06:07:37.000Z</Time>
            <Position>
              <LatitudeDegrees>43.379024080932140350341796875</LatitudeDegrees>
              <LongitudeDegrees>-4.31636639870703220367431640625</LongitudeDegrees>
            </Position>
            <AltitudeMeters>4.19999980926513671875</AltitudeMeters>
            <DistanceMeters>NAN</DistanceMeters>
          </Trackpoint>
          <Trackpoint>
            <Time>2022-07-15T06:07:39.000Z</Time>
            <Position>
              <LatitudeDegrees>43.37908954359591007232666015625</LatitudeDegrees>
              <LongitudeDegrees>-4.3164717592298984527587890625</LongitudeDegrees>
            </Position>
            <AltitudeMeters>4</AltitudeMeters>
            <DistanceMeters>NAN</DistanceMeters>
          </Trackpoint>
          <Trackpoint>
            <Time>2022-07-15T06:07:41.000Z</Time>
            <Position>
              <LatitudeDegrees>43.37914042174816131591796875</LatitudeDegrees>
              <LongitudeDegrees>-4.31656924076378345489501953125</LongitudeDegrees>
            </Position>
            <AltitudeMeters>3.599999904632568359375</AltitudeMeters>
            <DistanceMeters>NAN</DistanceMeters>
          </Trackpoint>
          <Trackpoint>
            <Time>2022-07-15T06:07:42.000Z</Time>
            <Position>
              <LatitudeDegrees>43.3791741169989109039306640625</LatitudeDegrees>
              <LongitudeDegrees>-4.31661986745893955230712890625</LongitudeDegrees>
            </Position>
            <AltitudeMeters>3.400000095367431640625</AltitudeMeters>
            <DistanceMeters>NAN</DistanceMeters>
          </Trackpoint>
          <Trackpoint>
            <Time>2022-07-15T06:07:43.000Z</Time>
            <Position>
              <LatitudeDegrees>43.37919079698622226715087890625</LatitudeDegrees>
              <LongitudeDegrees>-4.3166598491370677947998046875</LongitudeDegrees>
            </Position>
            <AltitudeMeters>3.2000000476837158203125</AltitudeMeters>
            <DistanceMeters>NAN</DistanceMeters>
          </Trackpoint>
          <Trackpoint>
            <Time>2022-07-15T06:07:45.000Z</Time>
            <Position>
              <LatitudeDegrees>43.37922214530408382415771484375</LatitudeDegrees>
              <LongitudeDegrees>-4.31673889048397541046142578125</LongitudeDegrees>
            </Position>
            <AltitudeMeters>2.7999999523162841796875</AltitudeMeters>
            <DistanceMeters>NAN</DistanceMeters>
          </Trackpoint>
          <Trackpoint>
            <Time>2022-07-15T06:07:49.000Z</Time>
            <Position>
              <LatitudeDegrees>43.37932608090341091156005859375</LatitudeDegrees>
              <LongitudeDegrees>-4.31686260737478733062744140625</LongitudeDegrees>
            </Position>
            <AltitudeMeters>2.599999904632568359375</AltitudeMeters>
            <DistanceMeters>NAN</DistanceMeters>
          </Trackpoint>
          <Trackpoint>
            <Time>2022-07-15T06:07:51.000Z</Time>
            <Position>
              <LatitudeDegrees>43.37939246557652950286865234375</LatitudeDegrees>
              <LongitudeDegrees>-4.3169470131397247314453125</LongitudeDegrees>
            </Position>
            <AltitudeMeters>2.2000000476837158203125</AltitudeMeters>
            <DistanceMeters>NAN</DistanceMeters>
          </Trackpoint>
          <Trackpoint>
            <Time>2022-07-15T06:07:57.000Z</Time>
            <Position>
              <LatitudeDegrees>43.37958139367401599884033203125</LatitudeDegrees>
              <LongitudeDegrees>-4.31717625819146633148193359375</LongitudeDegrees>
            </Position>
            <AltitudeMeters>1.60000002384185791015625</AltitudeMeters>
            <DistanceMeters>NAN</DistanceMeters>
          </Trackpoint>
          <Trackpoint>
            <Time>2022-07-15T06:07:58.000Z</Time>
            <Position>
              <LatitudeDegrees>43.3796252310276031494140625</LatitudeDegrees>
              <LongitudeDegrees>-4.31720123626291751861572265625</LongitudeDegrees>
            </Position>
            <AltitudeMeters>1.39999997615814208984375</AltitudeMeters>
            <DistanceMeters>NAN</DistanceMeters>
          </Trackpoint>
          <Trackpoint>
            <Time>2022-07-15T06:08:02.000Z</Time>
            <Position>
              <LatitudeDegrees>43.37982161901891231536865234375</LatitudeDegrees>
              <LongitudeDegrees>-4.31733601726591587066650390625</LongitudeDegrees>
            </Position>
            <AltitudeMeters>0.4000000059604644775390625</AltitudeMeters>
            <DistanceMeters>NAN</DistanceMeters>
          </Trackpoint>
          <Trackpoint>
            <Time>2022-07-15T06:08:03.000Z</Time>
            <Position>
              <LatitudeDegrees>43.379859589040279388427734375</LatitudeDegrees>
              <LongitudeDegrees>-4.31736476719379425048828125</LongitudeDegrees>
            </Position>
            <AltitudeMeters>0.20000000298023223876953125</AltitudeMeters>
            <DistanceMeters>NAN</DistanceMeters>
          </Trackpoint>
          <Trackpoint>
            <Time>2022-07-15T06:08:09.000Z</Time>
            <Position>
              <LatitudeDegrees>43.38013409636914730072021484375</LatitudeDegrees>
              <LongitudeDegrees>-4.31756568141281604766845703125</LongitudeDegrees>
            </Position>
            <AltitudeMeters>0.20000000298023223876953125</AltitudeMeters>
            <DistanceMeters>NAN</DistanceMeters>
          </Trackpoint>
          <Trackpoint>
            <Time>2022-07-15T06:08:12.000Z</Time>
            <Position>
              <LatitudeDegrees>43.3802577294409275054931640625</LatitudeDegrees>
              <LongitudeDegrees>-4.3176569603383541107177734375</LongitudeDegrees>
            </Position>
            <AltitudeMeters>-0.20000000298023223876953125</AltitudeMeters>
            <DistanceMeters>NAN</DistanceMeters>
          </Trackpoint>
          <Trackpoint>
            <Time>2022-07-15T06:08:13.000Z</Time>
            <Position>
              <LatitudeDegrees>43.38028983213007450103759765625</LatitudeDegrees>
              <LongitudeDegrees>-4.31767414323985576629638671875</LongitudeDegrees>
            </Position>
            <AltitudeMeters>-0.4000000059604644775390625</AltitudeMeters>
            <DistanceMeters>NAN</DistanceMeters>
          </Trackpoint>
          <Trackpoint>
            <Time>2022-07-15T06:08:16.000Z</Time>
            <Position>
              <LatitudeDegrees>43.38040969334542751312255859375</LatitudeDegrees>
              <LongitudeDegrees>-4.31774756871163845062255859375</LongitudeDegrees>
            </Position>
            <AltitudeMeters>-0.60000002384185791015625</AltitudeMeters>
            <DistanceMeters>NAN</DistanceMeters>
          </Trackpoint>
          <Trackpoint>
            <Time>2022-07-15T06:08:17.000Z</Time>
            <Position>
              <LatitudeDegrees>43.38045445270836353302001953125</LatitudeDegrees>
              <LongitudeDegrees>-4.31777941994369029998779296875</LongitudeDegrees>
            </Position>
            <AltitudeMeters>-0.60000002384185791015625</AltitudeMeters>
            <DistanceMeters>NAN</DistanceMeters>
          </Trackpoint>
          <Trackpoint>
            <Time>2022-07-15T06:08:18.000Z</Time>
            <Position>
              <LatitudeDegrees>43.38048010133206844329833984375</LatitudeDegrees>
              <LongitudeDegrees>-4.31780121289193630218505859375</LongitudeDegrees>
            </Position>
            <AltitudeMeters>-0.60000002384185791015625</AltitudeMeters>
            <DistanceMeters>NAN</DistanceMeters>
          </Trackpoint>
          <Trackpoint>
            <Time>2022-07-15T06:08:20.000Z</Time>
            <Position>
              <LatitudeDegrees>43.380551598966121673583984375</LatitudeDegrees>
              <LongitudeDegrees>-4.3178551085293292999267578125</LongitudeDegrees>
            </Position>
            <AltitudeMeters>-0.60000002384185791015625</AltitudeMeters>
            <DistanceMeters>NAN</DistanceMeters>
          </Trackpoint>
          <Trackpoint>
            <Time>2022-07-15T06:08:21.000Z</Time>
            <Position>
              <LatitudeDegrees>43.38058856315910816192626953125</LatitudeDegrees>
              <LongitudeDegrees>-4.3178812600672245025634765625</LongitudeDegrees>
            </Position>
            <AltitudeMeters>-0.4000000059604644775390625</AltitudeMeters>
            <DistanceMeters>NAN</DistanceMeters>
          </Trackpoint>
          <Trackpoint>
            <Time>2022-07-15T06:08:23.000Z</Time>
            <Position>
              <LatitudeDegrees>43.38066852651536464691162109375</LatitudeDegrees>
              <LongitudeDegrees>-4.3179359100759029388427734375</LongitudeDegrees>
            </Position>
            <AltitudeMeters>-0.20000000298023223876953125</AltitudeMeters>
            <DistanceMeters>NAN</DistanceMeters>
          </Trackpoint>
          <Trackpoint>
            <Time>2022-07-15T06:08:31.000Z</Time>
            <Position>
              <LatitudeDegrees>43.38095518760383129119873046875</LatitudeDegrees>
              <LongitudeDegrees>-4.31807664223015308380126953125</LongitudeDegrees>
            </Position>
            <AltitudeMeters>0</AltitudeMeters>
            <DistanceMeters>NAN</DistanceMeters>
          </Trackpoint>
          <Trackpoint>
            <Time>2022-07-15T06:08:36.000Z</Time>
            <Position>
              <LatitudeDegrees>43.38110111653804779052734375</LatitudeDegrees>
              <LongitudeDegrees>-4.3181069009006023406982421875</LongitudeDegrees>
            </Position>
            <AltitudeMeters>0</AltitudeMeters>
            <DistanceMeters>NAN</DistanceMeters>
          </Trackpoint>
          <Trackpoint>
            <Time>2022-07-15T06:08:40.000Z</Time>
            <Position>
              <LatitudeDegrees>43.38119641877710819244384765625</LatitudeDegrees>
              <LongitudeDegrees>-4.31812291033565998077392578125</LongitudeDegrees>
            </Position>
            <AltitudeMeters>0.4000000059604644775390625</AltitudeMeters>
            <DistanceMeters>NAN</DistanceMeters>
          </Trackpoint>
          <Trackpoint>
            <Time>2022-07-15T06:08:44.000Z</Time>
            <Position>
              <LatitudeDegrees>43.3812773041427135467529296875</LatitudeDegrees>
              <LongitudeDegrees>-4.3181541748344898223876953125</LongitudeDegrees>
            </Position>
            <AltitudeMeters>0.800000011920928955078125</AltitudeMeters>
            <DistanceMeters>NAN</DistanceMeters>
          </Trackpoint>
          <Trackpoint>
            <Time>2022-07-15T06:08:50.000Z</Time>
            <Position>
              <LatitudeDegrees>43.38138786144554615020751953125</LatitudeDegrees>
              <LongitudeDegrees>-4.31821930222213268280029296875</LongitudeDegrees>
            </Position>
            <AltitudeMeters>1.39999997615814208984375</AltitudeMeters>
            <DistanceMeters>NAN</DistanceMeters>
          </Trackpoint>
          <Trackpoint>
            <Time>2022-07-15T06:08:54.000Z</Time>
            <Position>
              <LatitudeDegrees>43.38145558722317218780517578125</LatitudeDegrees>
              <LongitudeDegrees>-4.31827043183147907257080078125</LongitudeDegrees>
            </Position>
            <AltitudeMeters>1.7999999523162841796875</AltitudeMeters>
            <DistanceMeters>NAN</DistanceMeters>
          </Trackpoint>
          <Trackpoint>
            <Time>2022-07-15T06:09:00.000Z</Time>
            <Position>
              <LatitudeDegrees>43.381547033786773681640625</LatitudeDegrees>
              <LongitudeDegrees>-4.3183586932718753814697265625</LongitudeDegrees>
            </Position>
            <AltitudeMeters>2.599999904632568359375</AltitudeMeters>
            <DistanceMeters>NAN</DistanceMeters>
          </Trackpoint>
          <Trackpoint>
            <Time>2022-07-15T06:09:04.000Z</Time>
            <Position>
              <LatitudeDegrees>43.38159606792032718658447265625</LatitudeDegrees>
              <LongitudeDegrees>-4.3184193782508373260498046875</LongitudeDegrees>
            </Position>
            <AltitudeMeters>3</AltitudeMeters>
            <DistanceMeters>NAN</DistanceMeters>
          </Trackpoint>
          <Trackpoint>
            <Time>2022-07-15T06:09:06.000Z</Time>
            <Position>
              <LatitudeDegrees>43.381621129810810089111328125</LatitudeDegrees>
              <LongitudeDegrees>-4.31844477541744709014892578125</LongitudeDegrees>
            </Position>
            <AltitudeMeters>3.2000000476837158203125</AltitudeMeters>
            <DistanceMeters>NAN</DistanceMeters>
          </Trackpoint>
          <Trackpoint>
            <Time>2022-07-15T06:09:09.000Z</Time>
            <Position>
              <LatitudeDegrees>43.3816712535917758941650390625</LatitudeDegrees>
              <LongitudeDegrees>-4.31848869659006595611572265625</LongitudeDegrees>
            </Position>
            <AltitudeMeters>3.599999904632568359375</AltitudeMeters>
            <DistanceMeters>NAN</DistanceMeters>
          </Trackpoint>
          <Trackpoint>
            <Time>2022-07-15T06:09:10.000Z</Time>
            <Position>
              <LatitudeDegrees>43.38169028051197528839111328125</LatitudeDegrees>
              <LongitudeDegrees>-4.31851518340408802032470703125</LongitudeDegrees>
            </Position>
            <AltitudeMeters>3.7999999523162841796875</AltitudeMeters>
            <DistanceMeters>NAN</DistanceMeters>
          </Trackpoint>
          <Trackpoint>
            <Time>2022-07-15T06:09:11.000Z</Time>
            <Position>
              <LatitudeDegrees>43.38170385919511318206787109375</LatitudeDegrees>
              <LongitudeDegrees>-4.31853094138205051422119140625</LongitudeDegrees>
            </Position>
            <AltitudeMeters>3.7999999523162841796875</AltitudeMeters>
            <DistanceMeters>NAN</DistanceMeters>
          </Trackpoint>
          <Trackpoint>
            <Time>2022-07-15T06:09:12.000Z</Time>
            <Position>
              <LatitudeDegrees>43.38171861134469509124755859375</LatitudeDegrees>
              <LongitudeDegrees>-4.31854988448321819305419921875</LongitudeDegrees>
            </Position>
            <AltitudeMeters>3.7999999523162841796875</AltitudeMeters>
            <DistanceMeters>NAN</DistanceMeters>
          </Trackpoint>
          <Trackpoint>
            <Time>2022-07-15T06:09:13.000Z</Time>
            <Position>
              <LatitudeDegrees>43.38173017837107181549072265625</LatitudeDegrees>
              <LongitudeDegrees>-4.31856798939406871795654296875</LongitudeDegrees>
            </Position>
            <AltitudeMeters>4</AltitudeMeters>
            <DistanceMeters>NAN</DistanceMeters>
          </Trackpoint>
          <Trackpoint>
            <Time>2022-07-15T06:09:19.000Z</Time>
            <Position>
              <LatitudeDegrees>43.3817949704825878143310546875</LatitudeDegrees>
              <LongitudeDegrees>-4.31864912621676921844482421875</LongitudeDegrees>
            </Position>
            <AltitudeMeters>4.599999904632568359375</AltitudeMeters>
            <DistanceMeters>NAN</DistanceMeters>
          </Trackpoint>
          <Trackpoint>
            <Time>2022-07-15T06:09:25.000Z</Time>
            <Position>
              <LatitudeDegrees>43.38182665407657623291015625</LatitudeDegrees>
              <LongitudeDegrees>-4.3187134154140949249267578125</LongitudeDegrees>
            </Position>
            <AltitudeMeters>5.19999980926513671875</AltitudeMeters>
            <DistanceMeters>NAN</DistanceMeters>
          </Trackpoint>
          <Trackpoint>
            <Time>2022-07-15T06:09:31.000Z</Time>
            <Position>
              <LatitudeDegrees>43.38186554610729217529296875</LatitudeDegrees>
              <LongitudeDegrees>-4.31868701241910457611083984375</LongitudeDegrees>
            </Position>
            <AltitudeMeters>5.599999904632568359375</AltitudeMeters>
            <DistanceMeters>NAN</DistanceMeters>
          </Trackpoint>
          <Trackpoint>
            <Time>2022-07-15T06:09:34.000Z</Time>
            <Position>
              <LatitudeDegrees>43.3819331042468547821044921875</LatitudeDegrees>
              <LongitudeDegrees>-4.3186607770621776580810546875</LongitudeDegrees>
            </Position>
            <AltitudeMeters>5.599999904632568359375</AltitudeMeters>
            <DistanceMeters>NAN</DistanceMeters>
          </Trackpoint>
          <Trackpoint>
            <Time>2022-07-15T06:09:36.000Z</Time>
            <Position>
              <LatitudeDegrees>43.381965123116970062255859375</LatitudeDegrees>
              <LongitudeDegrees>-4.3186393193900585174560546875</LongitudeDegrees>
            </Position>
            <AltitudeMeters>5.599999904632568359375</AltitudeMeters>
            <DistanceMeters>NAN</DistanceMeters>
          </Trackpoint>
          <Trackpoint>
            <Time>2022-07-15T06:09:39.000Z</Time>
            <Position>
              <LatitudeDegrees>43.3820088766515254974365234375</LatitudeDegrees>
              <LongitudeDegrees>-4.3186108209192752838134765625</LongitudeDegrees>
            </Position>
            <AltitudeMeters>6</AltitudeMeters>
            <DistanceMeters>NAN</DistanceMeters>
          </Trackpoint>
          <Trackpoint>
            <Time>2022-07-15T06:09:40.000Z</Time>
            <Position>
              <LatitudeDegrees>43.38202740065753459930419921875</LatitudeDegrees>
              <LongitudeDegrees>-4.3185994215309619903564453125</LongitudeDegrees>
            </Position>
            <AltitudeMeters>6</AltitudeMeters>
            <DistanceMeters>NAN</DistanceMeters>
          </Trackpoint>
          <Trackpoint>
            <Time>2022-07-15T06:09:41.000Z</Time>
            <Position>
              <LatitudeDegrees>43.38204433210194110870361328125</LatitudeDegrees>
              <LongitudeDegrees>-4.3185933865606784820556640625</LongitudeDegrees>
            </Position>
            <AltitudeMeters>6.19999980926513671875</AltitudeMeters>
            <DistanceMeters>NAN</DistanceMeters>
          </Trackpoint>
          <Trackpoint>
            <Time>2022-07-15T06:09:46.000Z</Time>
            <Position>
              <LatitudeDegrees>43.382140137255191802978515625</LatitudeDegrees>
              <LongitudeDegrees>-4.31857452727854251861572265625</LongitudeDegrees>
            </Position>
            <AltitudeMeters>6.599999904632568359375</AltitudeMeters>
            <DistanceMeters>NAN</DistanceMeters>
          </Trackpoint>
          <Trackpoint>
            <Time>2022-07-15T06:09:47.000Z</Time>
            <Position>
              <LatitudeDegrees>43.38216193020343780517578125</LatitudeDegrees>
              <LongitudeDegrees>-4.31858383119106292724609375</LongitudeDegrees>
            </Position>
            <AltitudeMeters>6.80000019073486328125</AltitudeMeters>
            <DistanceMeters>NAN</DistanceMeters>
          </Trackpoint>
          <Trackpoint>
            <Time>2022-07-15T06:09:50.000Z</Time>
            <Position>
              <LatitudeDegrees>43.38221565820276737213134765625</LatitudeDegrees>
              <LongitudeDegrees>-4.31861056946218013763427734375</LongitudeDegrees>
            </Position>
            <AltitudeMeters>7</AltitudeMeters>
            <DistanceMeters>NAN</DistanceMeters>
          </Trackpoint>
          <Trackpoint>
            <Time>2022-07-15T06:09:54.000Z</Time>
            <Position>
              <LatitudeDegrees>43.3822824619710445404052734375</LatitudeDegrees>
              <LongitudeDegrees>-4.31866438128054141998291015625</LongitudeDegrees>
            </Position>
            <AltitudeMeters>7</AltitudeMeters>
            <DistanceMeters>NAN</DistanceMeters>
          </Trackpoint>
          <Trackpoint>
            <Time>2022-07-15T06:10:00.000Z</Time>
            <Position>
              <LatitudeDegrees>43.38232780806720256805419921875</LatitudeDegrees>
              <LongitudeDegrees>-4.31879932992160320281982421875</LongitudeDegrees>
            </Position>
            <AltitudeMeters>7</AltitudeMeters>
            <DistanceMeters>NAN</DistanceMeters>
          </Trackpoint>
          <Trackpoint>
            <Time>2022-07-15T06:10:07.000Z</Time>
            <Position>
              <LatitudeDegrees>43.38235504925251007080078125</LatitudeDegrees>
              <LongitudeDegrees>-4.31898524053394794464111328125</LongitudeDegrees>
            </Position>
            <AltitudeMeters>7.19999980926513671875</AltitudeMeters>
            <DistanceMeters>NAN</DistanceMeters>
          </Trackpoint>
          <Trackpoint>
            <Time>2022-07-15T06:10:15.000Z</Time>
            <Position>
              <LatitudeDegrees>43.38230811059474945068359375</LatitudeDegrees>
              <LongitudeDegrees>-4.319270141422748565673828125</LongitudeDegrees>
            </Position>
            <AltitudeMeters>6.80000019073486328125</AltitudeMeters>
            <DistanceMeters>NAN</DistanceMeters>
          </Trackpoint>
          <Trackpoint>
            <Time>2022-07-15T06:10:20.000Z</Time>
            <Position>
              <LatitudeDegrees>43.38223426602780818939208984375</LatitudeDegrees>
              <LongitudeDegrees>-4.31944549083709716796875</LongitudeDegrees>
            </Position>
            <AltitudeMeters>6.599999904632568359375</AltitudeMeters>
            <DistanceMeters>NAN</DistanceMeters>
          </Trackpoint>
          <Trackpoint>
            <Time>2022-07-15T06:10:27.000Z</Time>
            <Position>
              <LatitudeDegrees>43.38209847919642925262451171875</LatitudeDegrees>
              <LongitudeDegrees>-4.31965981610119342803955078125</LongitudeDegrees>
            </Position>
            <AltitudeMeters>6</AltitudeMeters>
            <DistanceMeters>NAN</DistanceMeters>
          </Trackpoint>
          <Trackpoint>
            <Time>2022-07-15T06:10:28.000Z</Time>
            <Position>
              <LatitudeDegrees>43.382078446447849273681640625</LatitudeDegrees>
              <LongitudeDegrees>-4.31969418190419673919677734375</LongitudeDegrees>
            </Position>
            <AltitudeMeters>6</AltitudeMeters>
            <DistanceMeters>NAN</DistanceMeters>
          </Trackpoint>
          <Trackpoint>
            <Time>2022-07-15T06:10:33.000Z</Time>
            <Position>
              <LatitudeDegrees>43.38201080448925495147705078125</LatitudeDegrees>
              <LongitudeDegrees>-4.31991152465343475341796875</LongitudeDegrees>
            </Position>
            <AltitudeMeters>6</AltitudeMeters>
            <DistanceMeters>NAN</DistanceMeters>
          </Trackpoint>
          <Trackpoint>
            <Time>2022-07-15T06:10:37.000Z</Time>
            <Position>
              <LatitudeDegrees>43.38201197795569896697998046875</LatitudeDegrees>
              <LongitudeDegrees>-4.3201173841953277587890625</LongitudeDegrees>
            </Position>
            <AltitudeMeters>5.599999904632568359375</AltitudeMeters>
            <DistanceMeters>NAN</DistanceMeters>
          </Trackpoint>
          <Trackpoint>
            <Time>2022-07-15T06:10:39.000Z</Time>
            <Position>
              <LatitudeDegrees>43.38201499544084072113037109375</LatitudeDegrees>
              <LongitudeDegrees>-4.32020933367311954498291015625</LongitudeDegrees>
            </Position>
            <AltitudeMeters>5.400000095367431640625</AltitudeMeters>
            <DistanceMeters>NAN</DistanceMeters>
          </Trackpoint>
          <Trackpoint>
            <Time>2022-07-15T06:10:42.000Z</Time>
            <Position>
              <LatitudeDegrees>43.3820192702114582061767578125</LatitudeDegrees>
              <LongitudeDegrees>-4.320365823805332183837890625</LongitudeDegrees>
            </Position>
            <AltitudeMeters>5.19999980926513671875</AltitudeMeters>
            <DistanceMeters>NAN</DistanceMeters>
          </Trackpoint>
          <Trackpoint>
            <Time>2022-07-15T06:10:49.000Z</Time>
            <Position>
              <LatitudeDegrees>43.38202388025820255279541015625</LatitudeDegrees>
              <LongitudeDegrees>-4.3207529000937938690185546875</LongitudeDegrees>
            </Position>
            <AltitudeMeters>4.80000019073486328125</AltitudeMeters>
            <DistanceMeters>NAN</DistanceMeters>
          </Trackpoint>
          <Trackpoint>
            <Time>2022-07-15T06:10:51.000Z</Time>
            <Position>
              <LatitudeDegrees>43.38202505372464656829833984375</LatitudeDegrees>
              <LongitudeDegrees>-4.32085960172116756439208984375</LongitudeDegrees>
            </Position>
            <AltitudeMeters>4.599999904632568359375</AltitudeMeters>
            <DistanceMeters>NAN</DistanceMeters>
          </Trackpoint>
          <Trackpoint>
            <Time>2022-07-15T06:10:53.000Z</Time>
            <Position>
              <LatitudeDegrees>43.38203318417072296142578125</LatitudeDegrees>
              <LongitudeDegrees>-4.32098952122032642364501953125</LongitudeDegrees>
            </Position>
            <AltitudeMeters>4.400000095367431640625</AltitudeMeters>
            <DistanceMeters>NAN</DistanceMeters>
          </Trackpoint>
          <Trackpoint>
            <Time>2022-07-15T06:10:55.000Z</Time>
            <Position>
              <LatitudeDegrees>43.38206193409860134124755859375</LatitudeDegrees>
              <LongitudeDegrees>-4.3210945464670658111572265625</LongitudeDegrees>
            </Position>
            <AltitudeMeters>4.19999980926513671875</AltitudeMeters>
            <DistanceMeters>NAN</DistanceMeters>
          </Trackpoint>
          <Trackpoint>
            <Time>2022-07-15T06:10:57.000Z</Time>
            <Position>
              <LatitudeDegrees>43.38210158050060272216796875</LatitudeDegrees>
              <LongitudeDegrees>-4.3211996555328369140625</LongitudeDegrees>
            </Position>
            <AltitudeMeters>4</AltitudeMeters>
            <DistanceMeters>NAN</DistanceMeters>
          </Trackpoint>
          <Trackpoint>
            <Time>2022-07-15T06:11:00.000Z</Time>
            <Position>
              <LatitudeDegrees>43.38217944838106632232666015625</LatitudeDegrees>
              <LongitudeDegrees>-4.3213498592376708984375</LongitudeDegrees>
            </Position>
            <AltitudeMeters>3.7999999523162841796875</AltitudeMeters>
            <DistanceMeters>NAN</DistanceMeters>
          </Trackpoint>
          <Trackpoint>
            <Time>2022-07-15T06:11:01.000Z</Time>
            <Position>
              <LatitudeDegrees>43.38221012614667415618896484375</LatitudeDegrees>
              <LongitudeDegrees>-4.32138699106872081756591796875</LongitudeDegrees>
            </Position>
            <AltitudeMeters>3.599999904632568359375</AltitudeMeters>
            <DistanceMeters>NAN</DistanceMeters>
          </Trackpoint>
          <Trackpoint>
            <Time>2022-07-15T06:11:04.000Z</Time>
            <Position>
              <LatitudeDegrees>43.382315151393413543701171875</LatitudeDegrees>
              <LongitudeDegrees>-4.32146678678691387176513671875</LongitudeDegrees>
            </Position>
            <AltitudeMeters>3.599999904632568359375</AltitudeMeters>
            <DistanceMeters>NAN</DistanceMeters>
          </Trackpoint>
          <Trackpoint>
            <Time>2022-07-15T06:11:05.000Z</Time>
            <Position>
              <LatitudeDegrees>43.3823505230247974395751953125</LatitudeDegrees>
              <LongitudeDegrees>-4.321492351591587066650390625</LongitudeDegrees>
            </Position>
            <AltitudeMeters>3.599999904632568359375</AltitudeMeters>
            <DistanceMeters>NAN</DistanceMeters>
          </Trackpoint>
          <Trackpoint>
            <Time>2022-07-15T06:11:06.000Z</Time>
            <Position>
              <LatitudeDegrees>43.38237826712429523468017578125</LatitudeDegrees>
              <LongitudeDegrees>-4.3215055949985980987548828125</LongitudeDegrees>
            </Position>
            <AltitudeMeters>3.599999904632568359375</AltitudeMeters>
            <DistanceMeters>NAN</DistanceMeters>
          </Trackpoint>
          <Trackpoint>
            <Time>2022-07-15T06:11:09.000Z</Time>
            <Position>
              <LatitudeDegrees>43.3824853040277957916259765625</LatitudeDegrees>
              <LongitudeDegrees>-4.3215394578874111175537109375</LongitudeDegrees>
            </Position>
            <AltitudeMeters>3.400000095367431640625</AltitudeMeters>
            <DistanceMeters>NAN</DistanceMeters>
          </Trackpoint>
          <Trackpoint>
            <Time>2022-07-15T06:11:12.000Z</Time>
            <Position>
              <LatitudeDegrees>43.38256736285984516143798828125</LatitudeDegrees>
              <LongitudeDegrees>-4.3215334229171276092529296875</LongitudeDegrees>
            </Position>
            <AltitudeMeters>3.400000095367431640625</AltitudeMeters>
            <DistanceMeters>NAN</DistanceMeters>
          </Trackpoint>
          <Trackpoint>
            <Time>2022-07-15T06:11:19.000Z</Time>
            <Position>
              <LatitudeDegrees>43.38274220936000347137451171875</LatitudeDegrees>
              <LongitudeDegrees>-4.3215109594166278839111328125</LongitudeDegrees>
            </Position>
            <AltitudeMeters>4</AltitudeMeters>
            <DistanceMeters>NAN</DistanceMeters>
          </Trackpoint>
          <Trackpoint>
            <Time>2022-07-15T06:11:24.000Z</Time>
            <Position>
              <LatitudeDegrees>43.3828447200357913970947265625</LatitudeDegrees>
              <LongitudeDegrees>-4.32145488448441028594970703125</LongitudeDegrees>
            </Position>
            <AltitudeMeters>4.599999904632568359375</AltitudeMeters>
            <DistanceMeters>NAN</DistanceMeters>
          </Trackpoint>
          <Trackpoint>
            <Time>2022-07-15T06:11:26.000Z</Time>
            <Position>
              <LatitudeDegrees>43.38288134895265102386474609375</LatitudeDegrees>
              <LongitudeDegrees>-4.32142856530845165252685546875</LongitudeDegrees>
            </Position>
            <AltitudeMeters>4.80000019073486328125</AltitudeMeters>
            <DistanceMeters>NAN</DistanceMeters>
          </Trackpoint>
          <Trackpoint>
            <Time>2022-07-15T06:11:34.000Z</Time>
            <Position>
              <LatitudeDegrees>43.3830217458307743072509765625</LatitudeDegrees>
              <LongitudeDegrees>-4.32132597081363201141357421875</LongitudeDegrees>
            </Position>
            <AltitudeMeters>5.599999904632568359375</AltitudeMeters>
            <DistanceMeters>NAN</DistanceMeters>
          </Trackpoint>
          <Trackpoint>
            <Time>2022-07-15T06:11:35.000Z</Time>
            <Position>
              <LatitudeDegrees>43.38303725235164165496826171875</LatitudeDegrees>
              <LongitudeDegrees>-4.3213163316249847412109375</LongitudeDegrees>
            </Position>
            <AltitudeMeters>5.599999904632568359375</AltitudeMeters>
            <DistanceMeters>NAN</DistanceMeters>
          </Trackpoint>
          <Trackpoint>
            <Time>2022-07-15T06:11:40.000Z</Time>
            <Position>
              <LatitudeDegrees>43.3831122703850269317626953125</LatitudeDegrees>
              <LongitudeDegrees>-4.32125489227473735809326171875</LongitudeDegrees>
            </Position>
            <AltitudeMeters>6.19999980926513671875</AltitudeMeters>
            <DistanceMeters>NAN</DistanceMeters>
          </Trackpoint>
          <Trackpoint>
            <Time>2022-07-15T06:11:43.000Z</Time>
            <Position>
              <LatitudeDegrees>43.38316616602241992950439453125</LatitudeDegrees>
              <LongitudeDegrees>-4.3212232924997806549072265625</LongitudeDegrees>
            </Position>
            <AltitudeMeters>6.400000095367431640625</AltitudeMeters>
            <DistanceMeters>NAN</DistanceMeters>
          </Trackpoint>
          <Trackpoint>
            <Time>2022-07-15T06:11:44.000Z</Time>
            <Position>
              <LatitudeDegrees>43.383190892636775970458984375</LatitudeDegrees>
              <LongitudeDegrees>-4.3212122283875942230224609375</LongitudeDegrees>
            </Position>
            <AltitudeMeters>6.400000095367431640625</AltitudeMeters>
            <DistanceMeters>NAN</DistanceMeters>
          </Trackpoint>
          <Trackpoint>
            <Time>2022-07-15T06:11:46.000Z</Time>
            <Position>
              <LatitudeDegrees>43.3832282759249210357666015625</LatitudeDegrees>
              <LongitudeDegrees>-4.32118984870612621307373046875</LongitudeDegrees>
            </Position>
            <AltitudeMeters>6.599999904632568359375</AltitudeMeters>
            <DistanceMeters>NAN</DistanceMeters>
          </Trackpoint>
          <Trackpoint>
            <Time>2022-07-15T06:11:53.000Z</Time>
            <Position>
              <LatitudeDegrees>43.38334687985479831695556640625</LatitudeDegrees>
              <LongitudeDegrees>-4.32112547568976879119873046875</LongitudeDegrees>
            </Position>
            <AltitudeMeters>7.400000095367431640625</AltitudeMeters>
            <DistanceMeters>NAN</DistanceMeters>
          </Trackpoint>
          <Trackpoint>
            <Time>2022-07-15T06:12:00.000Z</Time>
            <Position>
              <LatitudeDegrees>43.38347218930721282958984375</LatitudeDegrees>
              <LongitudeDegrees>-4.32109731249511241912841796875</LongitudeDegrees>
            </Position>
            <AltitudeMeters>7.80000019073486328125</AltitudeMeters>
            <DistanceMeters>NAN</DistanceMeters>
          </Trackpoint>
          <Trackpoint>
            <Time>2022-07-15T06:12:02.000Z</Time>
            <Position>
              <LatitudeDegrees>43.3835102431476116180419921875</LatitudeDegrees>
              <LongitudeDegrees>-4.32109161280095577239990234375</LongitudeDegrees>
            </Position>
            <AltitudeMeters>8</AltitudeMeters>
            <DistanceMeters>NAN</DistanceMeters>
          </Trackpoint>
          <Trackpoint>
            <Time>2022-07-15T06:12:11.000Z</Time>
            <Position>
              <LatitudeDegrees>43.383692465722560882568359375</LatitudeDegrees>
              <LongitudeDegrees>-4.321111142635345458984375</LongitudeDegrees>
            </Position>
            <AltitudeMeters>8</AltitudeMeters>
            <DistanceMeters>NAN</DistanceMeters>
          </Trackpoint>
          <Trackpoint>
            <Time>2022-07-15T06:12:16.000Z</Time>
            <Position>
              <LatitudeDegrees>43.38378039188683032989501953125</LatitudeDegrees>
              <LongitudeDegrees>-4.32113352231681346893310546875</LongitudeDegrees>
            </Position>
            <AltitudeMeters>8</AltitudeMeters>
            <DistanceMeters>NAN</DistanceMeters>
          </Trackpoint>
          <Trackpoint>
            <Time>2022-07-15T06:12:18.000Z</Time>
            <Position>
              <LatitudeDegrees>43.38378039188683032989501953125</LatitudeDegrees>
              <LongitudeDegrees>-4.32113352231681346893310546875</LongitudeDegrees>
            </Position>
            <AltitudeMeters>8</AltitudeMeters>
            <DistanceMeters>NAN</DistanceMeters>
          </Trackpoint>
          <Trackpoint>
            <Time>2022-07-15T06:13:27.000Z</Time>
            <Position>
              <LatitudeDegrees>43.3838309347629547119140625</LatitudeDegrees>
              <LongitudeDegrees>-4.3211361207067966461181640625</LongitudeDegrees>
            </Position>
            <AltitudeMeters>7.80000019073486328125</AltitudeMeters>
            <DistanceMeters>NAN</DistanceMeters>
          </Trackpoint>
          <Trackpoint>
            <Time>2022-07-15T06:13:28.000Z</Time>
            <Position>
              <LatitudeDegrees>43.38386152870953083038330078125</LatitudeDegrees>
              <LongitudeDegrees>-4.32114064693450927734375</LongitudeDegrees>
            </Position>
            <AltitudeMeters>7.80000019073486328125</AltitudeMeters>
            <DistanceMeters>NAN</DistanceMeters>
          </Trackpoint>
          <Trackpoint>
            <Time>2022-07-15T06:13:29.000Z</Time>
            <Position>
              <LatitudeDegrees>43.38389086537063121795654296875</LatitudeDegrees>
              <LongitudeDegrees>-4.3211458437144756317138671875</LongitudeDegrees>
            </Position>
            <AltitudeMeters>7.80000019073486328125</AltitudeMeters>
            <DistanceMeters>NAN</DistanceMeters>
          </Trackpoint>
          <Trackpoint>
            <Time>2022-07-15T06:13:31.000Z</Time>
            <Position>
              <LatitudeDegrees>43.38395507074892520904541015625</LatitudeDegrees>
              <LongitudeDegrees>-4.3211634457111358642578125</LongitudeDegrees>
            </Position>
            <AltitudeMeters>7.80000019073486328125</AltitudeMeters>
            <DistanceMeters>NAN</DistanceMeters>
          </Trackpoint>
          <Trackpoint>
            <Time>2022-07-15T06:13:36.000Z</Time>
            <Position>
              <LatitudeDegrees>43.38414014317095279693603515625</LatitudeDegrees>
              <LongitudeDegrees>-4.32120309211313724517822265625</LongitudeDegrees>
            </Position>
            <AltitudeMeters>8</AltitudeMeters>
            <DistanceMeters>NAN</DistanceMeters>
          </Trackpoint>
          <Trackpoint>
            <Time>2022-07-15T06:13:42.000Z</Time>
            <Position>
              <LatitudeDegrees>43.38434935547411441802978515625</LatitudeDegrees>
              <LongitudeDegrees>-4.321252293884754180908203125</LongitudeDegrees>
            </Position>
            <AltitudeMeters>7.599999904632568359375</AltitudeMeters>
            <DistanceMeters>NAN</DistanceMeters>
          </Trackpoint>
          <Trackpoint>
            <Time>2022-07-15T06:13:46.000Z</Time>
            <Position>
              <LatitudeDegrees>43.38452671654522418975830078125</LatitudeDegrees>
              <LongitudeDegrees>-4.321224130690097808837890625</LongitudeDegrees>
            </Position>
            <AltitudeMeters>7.19999980926513671875</AltitudeMeters>
            <DistanceMeters>NAN</DistanceMeters>
          </Trackpoint>
          <Trackpoint>
            <Time>2022-07-15T06:13:50.000Z</Time>
            <Position>
              <LatitudeDegrees>43.3846820332109928131103515625</LatitudeDegrees>
              <LongitudeDegrees>-4.3213268928229808807373046875</LongitudeDegrees>
            </Position>
            <AltitudeMeters>7</AltitudeMeters>
            <DistanceMeters>NAN</DistanceMeters>
          </Trackpoint>
          <Trackpoint>
            <Time>2022-07-15T06:13:52.000Z</Time>
            <Position>
              <LatitudeDegrees>43.3847293071448802947998046875</LatitudeDegrees>
              <LongitudeDegrees>-4.321456141769886016845703125</LongitudeDegrees>
            </Position>
            <AltitudeMeters>7</AltitudeMeters>
            <DistanceMeters>NAN</DistanceMeters>
          </Trackpoint>
          <Trackpoint>
            <Time>2022-07-15T06:13:53.000Z</Time>
            <Position>
              <LatitudeDegrees>43.38473442010581493377685546875</LatitudeDegrees>
              <LongitudeDegrees>-4.321520514786243438720703125</LongitudeDegrees>
            </Position>
            <AltitudeMeters>6.80000019073486328125</AltitudeMeters>
            <DistanceMeters>NAN</DistanceMeters>
          </Trackpoint>
          <Trackpoint>
            <Time>2022-07-15T06:13:54.000Z</Time>
            <Position>
              <LatitudeDegrees>43.3847386948764324188232421875</LatitudeDegrees>
              <LongitudeDegrees>-4.3215550482273101806640625</LongitudeDegrees>
            </Position>
            <AltitudeMeters>6.80000019073486328125</AltitudeMeters>
            <DistanceMeters>NAN</DistanceMeters>
          </Trackpoint>
          <Trackpoint>
            <Time>2022-07-15T06:13:55.000Z</Time>
            <Position>
              <LatitudeDegrees>43.384748585522174835205078125</LatitudeDegrees>
              <LongitudeDegrees>-4.321574829518795013427734375</LongitudeDegrees>
            </Position>
            <AltitudeMeters>6.400000095367431640625</AltitudeMeters>
            <DistanceMeters>NAN</DistanceMeters>
          </Trackpoint>
          <Trackpoint>
            <Time>2022-07-15T06:13:56.000Z</Time>
            <Position>
              <LatitudeDegrees>43.3847584761679172515869140625</LatitudeDegrees>
              <LongitudeDegrees>-4.321576841175556182861328125</LongitudeDegrees>
            </Position>
            <AltitudeMeters>6.19999980926513671875</AltitudeMeters>
            <DistanceMeters>NAN</DistanceMeters>
          </Trackpoint>
          <Trackpoint>
            <Time>2022-07-15T06:14:00.000Z</Time>
            <Position>
              <LatitudeDegrees>43.38476392440497875213623046875</LatitudeDegrees>
              <LongitudeDegrees>-4.321538619697093963623046875</LongitudeDegrees>
            </Position>
            <AltitudeMeters>5.80000019073486328125</AltitudeMeters>
            <DistanceMeters>NAN</DistanceMeters>
          </Trackpoint>
          <Trackpoint>
            <Time>2022-07-15T06:14:04.000Z</Time>
            <Position>
              <LatitudeDegrees>43.38476325385272502899169921875</LatitudeDegrees>
              <LongitudeDegrees>-4.32151774875819683074951171875</LongitudeDegrees>
            </Position>
            <AltitudeMeters>5.80000019073486328125</AltitudeMeters>
            <DistanceMeters>NAN</DistanceMeters>
          </Trackpoint>
          <Trackpoint>
            <Time>2022-07-15T06:14:05.000Z</Time>
            <Position>
              <LatitudeDegrees>43.38476325385272502899169921875</LatitudeDegrees>
              <LongitudeDegrees>-4.32151774875819683074951171875</LongitudeDegrees>
            </Position>
            <AltitudeMeters>5.599999904632568359375</AltitudeMeters>
            <DistanceMeters>NAN</DistanceMeters>
          </Trackpoint>
          <Trackpoint>
            <Time>2022-07-15T06:14:39.000Z</Time>
            <Position>
              <LatitudeDegrees>43.38475554250180721282958984375</LatitudeDegrees>
              <LongitudeDegrees>-4.32155513204634189605712890625</LongitudeDegrees>
            </Position>
            <AltitudeMeters>5.80000019073486328125</AltitudeMeters>
            <DistanceMeters>NAN</DistanceMeters>
          </Trackpoint>
          <Trackpoint>
            <Time>2022-07-15T06:14:40.000Z</Time>
            <Position>
              <LatitudeDegrees>43.38475654833018779754638671875</LatitudeDegrees>
              <LongitudeDegrees>-4.32158329524099826812744140625</LongitudeDegrees>
            </Position>
            <AltitudeMeters>6.80000019073486328125</AltitudeMeters>
            <DistanceMeters>NAN</DistanceMeters>
          </Trackpoint>
          <Trackpoint>
            <Time>2022-07-15T06:14:45.000Z</Time>
            <Position>
              <LatitudeDegrees>43.38472545146942138671875</LatitudeDegrees>
              <LongitudeDegrees>-4.3217845447361469268798828125</LongitudeDegrees>
            </Position>
            <AltitudeMeters>6.80000019073486328125</AltitudeMeters>
            <DistanceMeters>NAN</DistanceMeters>
          </Trackpoint>
          <Trackpoint>
            <Time>2022-07-15T06:14:50.000Z</Time>
            <Position>
              <LatitudeDegrees>43.38468915782868862152099609375</LatitudeDegrees>
              <LongitudeDegrees>-4.322025775909423828125</LongitudeDegrees>
            </Position>
            <AltitudeMeters>6.19999980926513671875</AltitudeMeters>
            <DistanceMeters>NAN</DistanceMeters>
          </Trackpoint>
          <Trackpoint>
            <Time>2022-07-15T06:14:53.000Z</Time>
            <Position>
              <LatitudeDegrees>43.38467591442167758941650390625</LatitudeDegrees>
              <LongitudeDegrees>-4.3221800029277801513671875</LongitudeDegrees>
            </Position>
            <AltitudeMeters>5.80000019073486328125</AltitudeMeters>
            <DistanceMeters>NAN</DistanceMeters>
          </Trackpoint>
          <Trackpoint>
            <Time>2022-07-15T06:14:55.000Z</Time>
            <Position>
              <LatitudeDegrees>43.38466870598495006561279296875</LatitudeDegrees>
              <LongitudeDegrees>-4.322284944355487823486328125</LongitudeDegrees>
            </Position>
            <AltitudeMeters>5.599999904632568359375</AltitudeMeters>
            <DistanceMeters>NAN</DistanceMeters>
          </Trackpoint>
          <Trackpoint>
            <Time>2022-07-15T06:14:57.000Z</Time>
            <Position>
              <LatitudeDegrees>43.3846659399569034576416015625</LatitudeDegrees>
              <LongitudeDegrees>-4.32238091714680194854736328125</LongitudeDegrees>
            </Position>
            <AltitudeMeters>5.19999980926513671875</AltitudeMeters>
            <DistanceMeters>NAN</DistanceMeters>
          </Trackpoint>
          <Trackpoint>
            <Time>2022-07-15T06:15:01.000Z</Time>
            <Position>
              <LatitudeDegrees>43.38465596549212932586669921875</LatitudeDegrees>
              <LongitudeDegrees>-4.32254084385931491851806640625</LongitudeDegrees>
            </Position>
            <AltitudeMeters>4.599999904632568359375</AltitudeMeters>
            <DistanceMeters>NAN</DistanceMeters>
          </Trackpoint>
          <Trackpoint>
            <Time>2022-07-15T06:15:06.000Z</Time>
            <Position>
              <LatitudeDegrees>43.38463702239096164703369140625</LatitudeDegrees>
              <LongitudeDegrees>-4.32278282940387725830078125</LongitudeDegrees>
            </Position>
            <AltitudeMeters>4</AltitudeMeters>
            <DistanceMeters>NAN</DistanceMeters>
          </Trackpoint>
          <Trackpoint>
            <Time>2022-07-15T06:15:10.000Z</Time>
            <Position>
              <LatitudeDegrees>43.3846079371869564056396484375</LatitudeDegrees>
              <LongitudeDegrees>-4.32297586463391780853271484375</LongitudeDegrees>
            </Position>
            <AltitudeMeters>3.400000095367431640625</AltitudeMeters>
            <DistanceMeters>NAN</DistanceMeters>
          </Trackpoint>
          <Trackpoint>
            <Time>2022-07-15T06:15:15.000Z</Time>
            <Position>
              <LatitudeDegrees>43.38459662161767482757568359375</LatitudeDegrees>
              <LongitudeDegrees>-4.32316143997013568878173828125</LongitudeDegrees>
            </Position>
            <AltitudeMeters>2.7999999523162841796875</AltitudeMeters>
            <DistanceMeters>NAN</DistanceMeters>
          </Trackpoint>
          <Trackpoint>
            <Time>2022-07-15T06:15:25.000Z</Time>
            <Position>
              <LatitudeDegrees>43.38455420918762683868408203125</LatitudeDegrees>
              <LongitudeDegrees>-4.32363484986126422882080078125</LongitudeDegrees>
            </Position>
            <AltitudeMeters>2.400000095367431640625</AltitudeMeters>
            <DistanceMeters>NAN</DistanceMeters>
          </Trackpoint>
          <Trackpoint>
            <Time>2022-07-15T06:15:29.000Z</Time>
            <Position>
              <LatitudeDegrees>43.3845321647822856903076171875</LatitudeDegrees>
              <LongitudeDegrees>-4.3238357640802860260009765625</LongitudeDegrees>
            </Position>
            <AltitudeMeters>2.400000095367431640625</AltitudeMeters>
            <DistanceMeters>NAN</DistanceMeters>
          </Trackpoint>
          <Trackpoint>
            <Time>2022-07-15T06:15:33.000Z</Time>
            <Position>
              <LatitudeDegrees>43.38450307957828044891357421875</LatitudeDegrees>
              <LongitudeDegrees>-4.32404137216508388519287109375</LongitudeDegrees>
            </Position>
            <AltitudeMeters>2.2000000476837158203125</AltitudeMeters>
            <DistanceMeters>NAN</DistanceMeters>
          </Trackpoint>
          <Trackpoint>
            <Time>2022-07-15T06:15:34.000Z</Time>
            <Position>
              <LatitudeDegrees>43.38450073264539241790771484375</LatitudeDegrees>
              <LongitudeDegrees>-4.32408546097576618194580078125</LongitudeDegrees>
            </Position>
            <AltitudeMeters>2.2000000476837158203125</AltitudeMeters>
            <DistanceMeters>NAN</DistanceMeters>
          </Trackpoint>
          <Trackpoint>
            <Time>2022-07-15T06:15:38.000Z</Time>
            <Position>
              <LatitudeDegrees>43.38450576178729534149169921875</LatitudeDegrees>
              <LongitudeDegrees>-4.3242468126118183135986328125</LongitudeDegrees>
            </Position>
            <AltitudeMeters>1.7999999523162841796875</AltitudeMeters>
            <DistanceMeters>NAN</DistanceMeters>
          </Trackpoint>
          <Trackpoint>
            <Time>2022-07-15T06:15:44.000Z</Time>
            <Position>
              <LatitudeDegrees>43.38448430411517620086669921875</LatitudeDegrees>
              <LongitudeDegrees>-4.3244727887213230133056640625</LongitudeDegrees>
            </Position>
            <AltitudeMeters>2.2000000476837158203125</AltitudeMeters>
            <DistanceMeters>NAN</DistanceMeters>
          </Trackpoint>
          <Trackpoint>
            <Time>2022-07-15T06:15:50.000Z</Time>
            <Position>
              <LatitudeDegrees>43.38446016423404216766357421875</LatitudeDegrees>
              <LongitudeDegrees>-4.324705302715301513671875</LongitudeDegrees>
            </Position>
            <AltitudeMeters>2.599999904632568359375</AltitudeMeters>
            <DistanceMeters>NAN</DistanceMeters>
          </Trackpoint>
          <Trackpoint>
            <Time>2022-07-15T06:15:51.000Z</Time>
            <Position>
              <LatitudeDegrees>43.3844527043402194976806640625</LatitudeDegrees>
              <LongitudeDegrees>-4.3247514031827449798583984375</LongitudeDegrees>
            </Position>
            <AltitudeMeters>2.599999904632568359375</AltitudeMeters>
            <DistanceMeters>NAN</DistanceMeters>
          </Trackpoint>
          <Trackpoint>
            <Time>2022-07-15T06:15:59.000Z</Time>
            <Position>
              <LatitudeDegrees>43.38442043401300907135009765625</LatitudeDegrees>
              <LongitudeDegrees>-4.32507888413965702056884765625</LongitudeDegrees>
            </Position>
            <AltitudeMeters>2.7999999523162841796875</AltitudeMeters>
            <DistanceMeters>NAN</DistanceMeters>
          </Trackpoint>
          <Trackpoint>
            <Time>2022-07-15T06:16:06.000Z</Time>
            <Position>
              <LatitudeDegrees>43.3843866549432277679443359375</LatitudeDegrees>
              <LongitudeDegrees>-4.32537023909389972686767578125</LongitudeDegrees>
            </Position>
            <AltitudeMeters>3</AltitudeMeters>
            <DistanceMeters>NAN</DistanceMeters>
          </Trackpoint>
          <Trackpoint>
            <Time>2022-07-15T06:16:13.000Z</Time>
            <Position>
              <LatitudeDegrees>43.3843584917485713958740234375</LatitudeDegrees>
              <LongitudeDegrees>-4.325676597654819488525390625</LongitudeDegrees>
            </Position>
            <AltitudeMeters>3</AltitudeMeters>
            <DistanceMeters>NAN</DistanceMeters>
          </Trackpoint>
          <Trackpoint>
            <Time>2022-07-15T06:16:16.000Z</Time>
            <Position>
              <LatitudeDegrees>43.38432689197361469268798828125</LatitudeDegrees>
              <LongitudeDegrees>-4.32582981884479522705078125</LongitudeDegrees>
            </Position>
            <AltitudeMeters>3</AltitudeMeters>
            <DistanceMeters>NAN</DistanceMeters>
          </Trackpoint>
          <Trackpoint>
            <Time>2022-07-15T06:16:20.000Z</Time>
            <Position>
              <LatitudeDegrees>43.38430702686309814453125</LatitudeDegrees>
              <LongitudeDegrees>-4.3260046653449535369873046875</LongitudeDegrees>
            </Position>
            <AltitudeMeters>3.2000000476837158203125</AltitudeMeters>
            <DistanceMeters>NAN</DistanceMeters>
          </Trackpoint>
          <Trackpoint>
            <Time>2022-07-15T06:16:25.000Z</Time>
            <Position>
              <LatitudeDegrees>43.38428489863872528076171875</LatitudeDegrees>
              <LongitudeDegrees>-4.32623122818768024444580078125</LongitudeDegrees>
            </Position>
            <AltitudeMeters>3.2000000476837158203125</AltitudeMeters>
            <DistanceMeters>NAN</DistanceMeters>
          </Trackpoint>
          <Trackpoint>
            <Time>2022-07-15T06:16:27.000Z</Time>
            <Position>
              <LatitudeDegrees>43.38427282869815826416015625</LatitudeDegrees>
              <LongitudeDegrees>-4.32632242329418659210205078125</LongitudeDegrees>
            </Position>
            <AltitudeMeters>3.2000000476837158203125</AltitudeMeters>
            <DistanceMeters>NAN</DistanceMeters>
          </Trackpoint>
          <Trackpoint>
            <Time>2022-07-15T06:16:29.000Z</Time>
            <Position>
              <LatitudeDegrees>43.38426386006176471710205078125</LatitudeDegrees>
              <LongitudeDegrees>-4.32642065919935703277587890625</LongitudeDegrees>
            </Position>
            <AltitudeMeters>3.2000000476837158203125</AltitudeMeters>
            <DistanceMeters>NAN</DistanceMeters>
          </Trackpoint>
          <Trackpoint>
            <Time>2022-07-15T06:16:30.000Z</Time>
            <Position>
              <LatitudeDegrees>43.38426235131919384002685546875</LatitudeDegrees>
              <LongitudeDegrees>-4.32647296227514743804931640625</LongitudeDegrees>
            </Position>
            <AltitudeMeters>3.2000000476837158203125</AltitudeMeters>
            <DistanceMeters>NAN</DistanceMeters>
          </Trackpoint>
          <Trackpoint>
            <Time>2022-07-15T06:16:37.000Z</Time>
            <Position>
              <LatitudeDegrees>43.384232930839061737060546875</LatitudeDegrees>
              <LongitudeDegrees>-4.3267989344894886016845703125</LongitudeDegrees>
            </Position>
            <AltitudeMeters>3.400000095367431640625</AltitudeMeters>
            <DistanceMeters>NAN</DistanceMeters>
          </Trackpoint>
          <Trackpoint>
            <Time>2022-07-15T06:16:40.000Z</Time>
            <Position>
              <LatitudeDegrees>43.3842237107455730438232421875</LatitudeDegrees>
              <LongitudeDegrees>-4.326942265033721923828125</LongitudeDegrees>
            </Position>
            <AltitudeMeters>3.400000095367431640625</AltitudeMeters>
            <DistanceMeters>NAN</DistanceMeters>
          </Trackpoint>
          <Trackpoint>
            <Time>2022-07-15T06:16:46.000Z</Time>
            <Position>
              <LatitudeDegrees>43.38419412262737751007080078125</LatitudeDegrees>
              <LongitudeDegrees>-4.32719908654689788818359375</LongitudeDegrees>
            </Position>
            <AltitudeMeters>3.599999904632568359375</AltitudeMeters>
            <DistanceMeters>NAN</DistanceMeters>
          </Trackpoint>
          <Trackpoint>
            <Time>2022-07-15T06:16:51.000Z</Time>
            <Position>
              <LatitudeDegrees>43.38416956365108489990234375</LatitudeDegrees>
              <LongitudeDegrees>-4.32741039432585239410400390625</LongitudeDegrees>
            </Position>
            <AltitudeMeters>3.7999999523162841796875</AltitudeMeters>
            <DistanceMeters>NAN</DistanceMeters>
          </Trackpoint>
          <Trackpoint>
            <Time>2022-07-15T06:16:55.000Z</Time>
            <Position>
              <LatitudeDegrees>43.384159505367279052734375</LatitudeDegrees>
              <LongitudeDegrees>-4.3276009149849414825439453125</LongitudeDegrees>
            </Position>
            <AltitudeMeters>3.7999999523162841796875</AltitudeMeters>
            <DistanceMeters>NAN</DistanceMeters>
          </Trackpoint>
          <Trackpoint>
            <Time>2022-07-15T06:16:57.000Z</Time>
            <Position>
              <LatitudeDegrees>43.38414609432220458984375</LatitudeDegrees>
              <LongitudeDegrees>-4.327695630490779876708984375</LongitudeDegrees>
            </Position>
            <AltitudeMeters>3.7999999523162841796875</AltitudeMeters>
            <DistanceMeters>NAN</DistanceMeters>
          </Trackpoint>
          <Trackpoint>
            <Time>2022-07-15T06:17:05.000Z</Time>
            <Position>
              <LatitudeDegrees>43.38413226418197154998779296875</LatitudeDegrees>
              <LongitudeDegrees>-4.32805865071713924407958984375</LongitudeDegrees>
            </Position>
            <AltitudeMeters>4.19999980926513671875</AltitudeMeters>
            <DistanceMeters>NAN</DistanceMeters>
          </Trackpoint>
          <Trackpoint>
            <Time>2022-07-15T06:17:11.000Z</Time>
            <Position>
              <LatitudeDegrees>43.3841063641011714935302734375</LatitudeDegrees>
              <LongitudeDegrees>-4.3283227644860744476318359375</LongitudeDegrees>
            </Position>
            <AltitudeMeters>4.400000095367431640625</AltitudeMeters>
            <DistanceMeters>NAN</DistanceMeters>
          </Trackpoint>
          <Trackpoint>
            <Time>2022-07-15T06:17:14.000Z</Time>
            <Position>
              <LatitudeDegrees>43.38409538380801677703857421875</LatitudeDegrees>
              <LongitudeDegrees>-4.328468106687068939208984375</LongitudeDegrees>
            </Position>
            <AltitudeMeters>4.400000095367431640625</AltitudeMeters>
            <DistanceMeters>NAN</DistanceMeters>
          </Trackpoint>
          <Trackpoint>
            <Time>2022-07-15T06:17:23.000Z</Time>
            <Position>
              <LatitudeDegrees>43.38410259224474430084228515625</LatitudeDegrees>
              <LongitudeDegrees>-4.32892047800123691558837890625</LongitudeDegrees>
            </Position>
            <AltitudeMeters>4.599999904632568359375</AltitudeMeters>
            <DistanceMeters>NAN</DistanceMeters>
          </Trackpoint>
          <Trackpoint>
            <Time>2022-07-15T06:17:32.000Z</Time>
            <Position>
              <LatitudeDegrees>43.384238965809345245361328125</LatitudeDegrees>
              <LongitudeDegrees>-4.3293021060526371002197265625</LongitudeDegrees>
            </Position>
            <AltitudeMeters>4.80000019073486328125</AltitudeMeters>
            <DistanceMeters>NAN</DistanceMeters>
          </Trackpoint>
          <Trackpoint>
            <Time>2022-07-15T06:17:34.000Z</Time>
            <Position>
              <LatitudeDegrees>43.38427123613655567169189453125</LatitudeDegrees>
              <LongitudeDegrees>-4.32937427423894405364990234375</LongitudeDegrees>
            </Position>
            <AltitudeMeters>4.80000019073486328125</AltitudeMeters>
            <DistanceMeters>NAN</DistanceMeters>
          </Trackpoint>
          <Trackpoint>
            <Time>2022-07-15T06:17:41.000Z</Time>
            <Position>
              <LatitudeDegrees>43.3843982219696044921875</LatitudeDegrees>
              <LongitudeDegrees>-4.32962791062891483306884765625</LongitudeDegrees>
            </Position>
            <AltitudeMeters>5</AltitudeMeters>
            <DistanceMeters>NAN</DistanceMeters>
          </Trackpoint>
          <Trackpoint>
            <Time>2022-07-15T06:17:49.000Z</Time>
            <Position>
              <LatitudeDegrees>43.38453107513487339019775390625</LatitudeDegrees>
              <LongitudeDegrees>-4.32992077432572841644287109375</LongitudeDegrees>
            </Position>
            <AltitudeMeters>5.19999980926513671875</AltitudeMeters>
            <DistanceMeters>NAN</DistanceMeters>
          </Trackpoint>
          <Trackpoint>
            <Time>2022-07-15T06:17:51.000Z</Time>
            <Position>
              <LatitudeDegrees>43.38455672375857830047607421875</LatitudeDegrees>
              <LongitudeDegrees>-4.329990260303020477294921875</LongitudeDegrees>
            </Position>
            <AltitudeMeters>5.400000095367431640625</AltitudeMeters>
            <DistanceMeters>NAN</DistanceMeters>
          </Trackpoint>
          <Trackpoint>
            <Time>2022-07-15T06:17:54.000Z</Time>
            <Position>
              <LatitudeDegrees>43.3845988847315311431884765625</LatitudeDegrees>
              <LongitudeDegrees>-4.330087490379810333251953125</LongitudeDegrees>
            </Position>
            <AltitudeMeters>5.400000095367431640625</AltitudeMeters>
            <DistanceMeters>NAN</DistanceMeters>
          </Trackpoint>
          <Trackpoint>
            <Time>2022-07-15T06:17:57.000Z</Time>
            <Position>
              <LatitudeDegrees>43.38466300629079341888427734375</LatitudeDegrees>
              <LongitudeDegrees>-4.33017793111503124237060546875</LongitudeDegrees>
            </Position>
            <AltitudeMeters>5.599999904632568359375</AltitudeMeters>
            <DistanceMeters>NAN</DistanceMeters>
          </Trackpoint>
          <Trackpoint>
            <Time>2022-07-15T06:18:02.000Z</Time>
            <Position>
              <LatitudeDegrees>43.38478806428611278533935546875</LatitudeDegrees>
              <LongitudeDegrees>-4.33021246455609798431396484375</LongitudeDegrees>
            </Position>
            <AltitudeMeters>6.19999980926513671875</AltitudeMeters>
            <DistanceMeters>NAN</DistanceMeters>
          </Trackpoint>
          <Trackpoint>
            <Time>2022-07-15T06:18:09.000Z</Time>
            <Position>
              <LatitudeDegrees>43.38497154414653778076171875</LatitudeDegrees>
              <LongitudeDegrees>-4.3301473371684551239013671875</LongitudeDegrees>
            </Position>
            <AltitudeMeters>6.400000095367431640625</AltitudeMeters>
            <DistanceMeters>NAN</DistanceMeters>
          </Trackpoint>
          <Trackpoint>
            <Time>2022-07-15T06:18:13.000Z</Time>
            <Position>
              <LatitudeDegrees>43.38507288135588169097900390625</LatitudeDegrees>
              <LongitudeDegrees>-4.330082125961780548095703125</LongitudeDegrees>
            </Position>
            <AltitudeMeters>6.400000095367431640625</AltitudeMeters>
            <DistanceMeters>NAN</DistanceMeters>
          </Trackpoint>
          <Trackpoint>
            <Time>2022-07-15T06:18:15.000Z</Time>
            <Position>
              <LatitudeDegrees>43.38511378504335880279541015625</LatitudeDegrees>
              <LongitudeDegrees>-4.33007231913506984710693359375</LongitudeDegrees>
            </Position>
            <AltitudeMeters>6.599999904632568359375</AltitudeMeters>
            <DistanceMeters>NAN</DistanceMeters>
          </Trackpoint>
          <Trackpoint>
            <Time>2022-07-15T06:18:21.000Z</Time>
            <Position>
              <LatitudeDegrees>43.38522593490779399871826171875</LatitudeDegrees>
              <LongitudeDegrees>-4.3300625123083591461181640625</LongitudeDegrees>
            </Position>
            <AltitudeMeters>6.80000019073486328125</AltitudeMeters>
            <DistanceMeters>NAN</DistanceMeters>
          </Trackpoint>
          <Trackpoint>
            <Time>2022-07-15T06:18:22.000Z</Time>
            <Position>
              <LatitudeDegrees>43.38524856604635715484619140625</LatitudeDegrees>
              <LongitudeDegrees>-4.33004918508231639862060546875</LongitudeDegrees>
            </Position>
            <AltitudeMeters>6.80000019073486328125</AltitudeMeters>
            <DistanceMeters>NAN</DistanceMeters>
          </Trackpoint>
          <Trackpoint>
            <Time>2022-07-15T06:18:26.000Z</Time>
            <Position>
              <LatitudeDegrees>43.38534168899059295654296875</LatitudeDegrees>
              <LongitudeDegrees>-4.33001272380352020263671875</LongitudeDegrees>
            </Position>
            <AltitudeMeters>7</AltitudeMeters>
            <DistanceMeters>NAN</DistanceMeters>
          </Trackpoint>
          <Trackpoint>
            <Time>2022-07-15T06:18:28.000Z</Time>
            <Position>
              <LatitudeDegrees>43.38538234122097492218017578125</LatitudeDegrees>
              <LongitudeDegrees>-4.33000794611871242523193359375</LongitudeDegrees>
            </Position>
            <AltitudeMeters>7.19999980926513671875</AltitudeMeters>
            <DistanceMeters>NAN</DistanceMeters>
          </Trackpoint>
          <Trackpoint>
            <Time>2022-07-15T06:18:32.000Z</Time>
            <Position>
              <LatitudeDegrees>43.3854635618627071380615234375</LatitudeDegrees>
              <LongitudeDegrees>-4.329970814287662506103515625</LongitudeDegrees>
            </Position>
            <AltitudeMeters>7.400000095367431640625</AltitudeMeters>
            <DistanceMeters>NAN</DistanceMeters>
          </Trackpoint>
          <Trackpoint>
            <Time>2022-07-15T06:18:34.000Z</Time>
            <Position>
              <LatitudeDegrees>43.3855168707668781280517578125</LatitudeDegrees>
              <LongitudeDegrees>-4.329971484839916229248046875</LongitudeDegrees>
            </Position>
            <AltitudeMeters>7.599999904632568359375</AltitudeMeters>
            <DistanceMeters>NAN</DistanceMeters>
          </Trackpoint>
          <Trackpoint>
            <Time>2022-07-15T06:18:36.000Z</Time>
            <Position>
              <LatitudeDegrees>43.38556489907205104827880859375</LatitudeDegrees>
              <LongitudeDegrees>-4.32997207157313823699951171875</LongitudeDegrees>
            </Position>
            <AltitudeMeters>8</AltitudeMeters>
            <DistanceMeters>NAN</DistanceMeters>
          </Trackpoint>
          <Trackpoint>
            <Time>2022-07-15T06:18:38.000Z</Time>
            <Position>
              <LatitudeDegrees>43.385591804981231689453125</LatitudeDegrees>
              <LongitudeDegrees>-4.329961426556110382080078125</LongitudeDegrees>
            </Position>
            <AltitudeMeters>8.19999980926513671875</AltitudeMeters>
            <DistanceMeters>NAN</DistanceMeters>
          </Trackpoint>
          <Trackpoint>
            <Time>2022-07-15T06:18:43.000Z</Time>
            <Position>
              <LatitudeDegrees>43.38570839725434780120849609375</LatitudeDegrees>
              <LongitudeDegrees>-4.3299682997167110443115234375</LongitudeDegrees>
            </Position>
            <AltitudeMeters>8.6000003814697265625</AltitudeMeters>
            <DistanceMeters>NAN</DistanceMeters>
          </Trackpoint>
          <Trackpoint>
            <Time>2022-07-15T06:18:49.000Z</Time>
            <Position>
              <LatitudeDegrees>43.38579791598021984100341796875</LatitudeDegrees>
              <LongitudeDegrees>-4.32998724281787872314453125</LongitudeDegrees>
            </Position>
            <AltitudeMeters>9</AltitudeMeters>
            <DistanceMeters>NAN</DistanceMeters>
          </Trackpoint>
          <Trackpoint>
            <Time>2022-07-15T06:18:50.000Z</Time>
            <Position>
              <LatitudeDegrees>43.38581484742462635040283203125</LatitudeDegrees>
              <LongitudeDegrees>-4.32998950593173503875732421875</LongitudeDegrees>
            </Position>
            <AltitudeMeters>9</AltitudeMeters>
            <DistanceMeters>NAN</DistanceMeters>
          </Trackpoint>
          <Trackpoint>
            <Time>2022-07-15T06:18:51.000Z</Time>
            <Position>
              <LatitudeDegrees>43.3858276717364788055419921875</LatitudeDegrees>
              <LongitudeDegrees>-4.33000174351036548614501953125</LongitudeDegrees>
            </Position>
            <AltitudeMeters>9</AltitudeMeters>
            <DistanceMeters>NAN</DistanceMeters>
          </Trackpoint>
          <Trackpoint>
            <Time>2022-07-15T06:18:54.000Z</Time>
            <Position>
              <LatitudeDegrees>43.3858776278793811798095703125</LatitudeDegrees>
              <LongitudeDegrees>-4.33006913401186466217041015625</LongitudeDegrees>
            </Position>
            <AltitudeMeters>9</AltitudeMeters>
            <DistanceMeters>NAN</DistanceMeters>
          </Trackpoint>
          <Trackpoint>
            <Time>2022-07-15T06:18:59.000Z</Time>
            <Position>
              <LatitudeDegrees>43.386060185730457305908203125</LatitudeDegrees>
              <LongitudeDegrees>-4.33009997941553592681884765625</LongitudeDegrees>
            </Position>
            <AltitudeMeters>8.80000019073486328125</AltitudeMeters>
            <DistanceMeters>NAN</DistanceMeters>
          </Trackpoint>
          <Trackpoint>
            <Time>2022-07-15T06:19:04.000Z</Time>
            <Position>
              <LatitudeDegrees>43.38624400086700916290283203125</LatitudeDegrees>
              <LongitudeDegrees>-4.3301711417734622955322265625</LongitudeDegrees>
            </Position>
            <AltitudeMeters>8.3999996185302734375</AltitudeMeters>
            <DistanceMeters>NAN</DistanceMeters>
          </Trackpoint>
          <Trackpoint>
            <Time>2022-07-15T06:19:10.000Z</Time>
            <Position>
              <LatitudeDegrees>43.386552371084690093994140625</LatitudeDegrees>
              <LongitudeDegrees>-4.3302023224532604217529296875</LongitudeDegrees>
            </Position>
            <AltitudeMeters>8.19999980926513671875</AltitudeMeters>
            <DistanceMeters>NAN</DistanceMeters>
          </Trackpoint>
          <Trackpoint>
            <Time>2022-07-15T06:19:12.000Z</Time>
            <Position>
              <LatitudeDegrees>43.38667483069002628326416015625</LatitudeDegrees>
              <LongitudeDegrees>-4.33020181953907012939453125</LongitudeDegrees>
            </Position>
            <AltitudeMeters>7.400000095367431640625</AltitudeMeters>
            <DistanceMeters>NAN</DistanceMeters>
          </Trackpoint>
          <Trackpoint>
            <Time>2022-07-15T06:19:13.000Z</Time>
            <Position>
              <LatitudeDegrees>43.38674406521022319793701171875</LatitudeDegrees>
              <LongitudeDegrees>-4.33019645512104034423828125</LongitudeDegrees>
            </Position>
            <AltitudeMeters>7.19999980926513671875</AltitudeMeters>
            <DistanceMeters>NAN</DistanceMeters>
          </Trackpoint>
          <Trackpoint>
            <Time>2022-07-15T06:19:15.000Z</Time>
            <Position>
              <LatitudeDegrees>43.38687716983258724212646484375</LatitudeDegrees>
              <LongitudeDegrees>-4.330159239470958709716796875</LongitudeDegrees>
            </Position>
            <AltitudeMeters>6.599999904632568359375</AltitudeMeters>
            <DistanceMeters>NAN</DistanceMeters>
          </Trackpoint>
          <Trackpoint>
            <Time>2022-07-15T06:19:17.000Z</Time>
            <Position>
              <LatitudeDegrees>43.386975489556789398193359375</LatitudeDegrees>
              <LongitudeDegrees>-4.33009847067296504974365234375</LongitudeDegrees>
            </Position>
            <AltitudeMeters>6.400000095367431640625</AltitudeMeters>
            <DistanceMeters>NAN</DistanceMeters>
          </Trackpoint>
          <Trackpoint>
            <Time>2022-07-15T06:19:18.000Z</Time>
            <Position>
              <LatitudeDegrees>43.38702536188066005706787109375</LatitudeDegrees>
              <LongitudeDegrees>-4.330048598349094390869140625</LongitudeDegrees>
            </Position>
            <AltitudeMeters>6.400000095367431640625</AltitudeMeters>
            <DistanceMeters>NAN</DistanceMeters>
          </Trackpoint>
          <Trackpoint>
            <Time>2022-07-15T06:19:20.000Z</Time>
            <Position>
              <LatitudeDegrees>43.38709459640085697174072265625</LatitudeDegrees>
              <LongitudeDegrees>-4.3299565650522708892822265625</LongitudeDegrees>
            </Position>
            <AltitudeMeters>6.19999980926513671875</AltitudeMeters>
            <DistanceMeters>NAN</DistanceMeters>
          </Trackpoint>
          <Trackpoint>
            <Time>2022-07-15T06:19:26.000Z</Time>
            <Position>
              <LatitudeDegrees>43.387229628860950469970703125</LatitudeDegrees>
              <LongitudeDegrees>-4.32969848625361919403076171875</LongitudeDegrees>
            </Position>
            <AltitudeMeters>6.400000095367431640625</AltitudeMeters>
            <DistanceMeters>NAN</DistanceMeters>
          </Trackpoint>
          <Trackpoint>
            <Time>2022-07-15T06:19:34.000Z</Time>
            <Position>
              <LatitudeDegrees>43.38734303601086139678955078125</LatitudeDegrees>
              <LongitudeDegrees>-4.3292932212352752685546875</LongitudeDegrees>
            </Position>
            <AltitudeMeters>6.599999904632568359375</AltitudeMeters>
            <DistanceMeters>NAN</DistanceMeters>
          </Trackpoint>
          <Trackpoint>
            <Time>2022-07-15T06:19:43.000Z</Time>
            <Position>
              <LatitudeDegrees>43.38743289001286029815673828125</LatitudeDegrees>
              <LongitudeDegrees>-4.32881805114448070526123046875</LongitudeDegrees>
            </Position>
            <AltitudeMeters>6.400000095367431640625</AltitudeMeters>
            <DistanceMeters>NAN</DistanceMeters>
          </Trackpoint>
          <Trackpoint>
            <Time>2022-07-15T06:19:51.000Z</Time>
            <Position>
              <LatitudeDegrees>43.3875815011560916900634765625</LatitudeDegrees>
              <LongitudeDegrees>-4.32839157991111278533935546875</LongitudeDegrees>
            </Position>
            <AltitudeMeters>6.19999980926513671875</AltitudeMeters>
            <DistanceMeters>NAN</DistanceMeters>
          </Trackpoint>
          <Trackpoint>
            <Time>2022-07-15T06:19:52.000Z</Time>
            <Position>
              <LatitudeDegrees>43.387608826160430908203125</LatitudeDegrees>
              <LongitudeDegrees>-4.32834631763398647308349609375</LongitudeDegrees>
            </Position>
            <AltitudeMeters>6</AltitudeMeters>
            <DistanceMeters>NAN</DistanceMeters>
          </Trackpoint>
          <Trackpoint>
            <Time>2022-07-15T06:19:56.000Z</Time>
            <Position>
              <LatitudeDegrees>43.3877337165176868438720703125</LatitudeDegrees>
              <LongitudeDegrees>-4.32817013002932071685791015625</LongitudeDegrees>
            </Position>
            <AltitudeMeters>5.80000019073486328125</AltitudeMeters>
            <DistanceMeters>NAN</DistanceMeters>
          </Trackpoint>
          <Trackpoint>
            <Time>2022-07-15T06:19:59.000Z</Time>
            <Position>
              <LatitudeDegrees>43.3878326229751110076904296875</LatitudeDegrees>
              <LongitudeDegrees>-4.32807491160929203033447265625</LongitudeDegrees>
            </Position>
            <AltitudeMeters>5.80000019073486328125</AltitudeMeters>
            <DistanceMeters>NAN</DistanceMeters>
          </Trackpoint>
          <Trackpoint>
            <Time>2022-07-15T06:20:00.000Z</Time>
            <Position>
              <LatitudeDegrees>43.387861959636211395263671875</LatitudeDegrees>
              <LongitudeDegrees>-4.32805538177490234375</LongitudeDegrees>
            </Position>
            <AltitudeMeters>5.599999904632568359375</AltitudeMeters>
            <DistanceMeters>NAN</DistanceMeters>
          </Trackpoint>
          <Trackpoint>
            <Time>2022-07-15T06:20:02.000Z</Time>
            <Position>
              <LatitudeDegrees>43.38794234208762645721435546875</LatitudeDegrees>
              <LongitudeDegrees>-4.3280149810016155242919921875</LongitudeDegrees>
            </Position>
            <AltitudeMeters>5.599999904632568359375</AltitudeMeters>
            <DistanceMeters>NAN</DistanceMeters>
          </Trackpoint>
          <Trackpoint>
            <Time>2022-07-15T06:20:06.000Z</Time>
            <Position>
              <LatitudeDegrees>43.38808751665055751800537109375</LatitudeDegrees>
              <LongitudeDegrees>-4.3279896676540374755859375</LongitudeDegrees>
            </Position>
            <AltitudeMeters>5.400000095367431640625</AltitudeMeters>
            <DistanceMeters>NAN</DistanceMeters>
          </Trackpoint>
          <Trackpoint>
            <Time>2022-07-15T06:20:08.000Z</Time>
            <Position>
              <LatitudeDegrees>43.388172425329685211181640625</LatitudeDegrees>
              <LongitudeDegrees>-4.3279896676540374755859375</LongitudeDegrees>
            </Position>
            <AltitudeMeters>5</AltitudeMeters>
            <DistanceMeters>NAN</DistanceMeters>
          </Trackpoint>
          <Trackpoint>
            <Time>2022-07-15T06:20:11.000Z</Time>
            <Position>
              <LatitudeDegrees>43.388289771974086761474609375</LatitudeDegrees>
              <LongitudeDegrees>-4.32803434319794178009033203125</LongitudeDegrees>
            </Position>
            <AltitudeMeters>4.80000019073486328125</AltitudeMeters>
            <DistanceMeters>NAN</DistanceMeters>
          </Trackpoint>
          <Trackpoint>
            <Time>2022-07-15T06:20:13.000Z</Time>
            <Position>
              <LatitudeDegrees>43.38835892267525196075439453125</LatitudeDegrees>
              <LongitudeDegrees>-4.32809955440461635589599609375</LongitudeDegrees>
            </Position>
            <AltitudeMeters>4.80000019073486328125</AltitudeMeters>
            <DistanceMeters>NAN</DistanceMeters>
          </Trackpoint>
          <Trackpoint>
            <Time>2022-07-15T06:20:16.000Z</Time>
            <Position>
              <LatitudeDegrees>43.3884441666305065155029296875</LatitudeDegrees>
              <LongitudeDegrees>-4.32823014445602893829345703125</LongitudeDegrees>
            </Position>
            <AltitudeMeters>4.400000095367431640625</AltitudeMeters>
            <DistanceMeters>NAN</DistanceMeters>
          </Trackpoint>
          <Trackpoint>
            <Time>2022-07-15T06:20:20.000Z</Time>
            <Position>
              <LatitudeDegrees>43.3885397203266620635986328125</LatitudeDegrees>
              <LongitudeDegrees>-4.32844136841595172882080078125</LongitudeDegrees>
            </Position>
            <AltitudeMeters>4.400000095367431640625</AltitudeMeters>
            <DistanceMeters>NAN</DistanceMeters>
          </Trackpoint>
          <Trackpoint>
            <Time>2022-07-15T06:20:21.000Z</Time>
            <Position>
              <LatitudeDegrees>43.38855757378041744232177734375</LatitudeDegrees>
              <LongitudeDegrees>-4.32847925461828708648681640625</LongitudeDegrees>
            </Position>
            <AltitudeMeters>4.400000095367431640625</AltitudeMeters>
            <DistanceMeters>NAN</DistanceMeters>
          </Trackpoint>
          <Trackpoint>
            <Time>2022-07-15T06:20:22.000Z</Time>
            <Position>
              <LatitudeDegrees>43.3885811269283294677734375</LatitudeDegrees>
              <LongitudeDegrees>-4.32852485217154026031494140625</LongitudeDegrees>
            </Position>
            <AltitudeMeters>4.19999980926513671875</AltitudeMeters>
            <DistanceMeters>NAN</DistanceMeters>
          </Trackpoint>
          <Trackpoint>
            <Time>2022-07-15T06:20:25.000Z</Time>
            <Position>
              <LatitudeDegrees>43.38863678276538848876953125</LatitudeDegrees>
              <LongitudeDegrees>-4.32866516523063182830810546875</LongitudeDegrees>
            </Position>
            <AltitudeMeters>4.19999980926513671875</AltitudeMeters>
            <DistanceMeters>NAN</DistanceMeters>
          </Trackpoint>
          <Trackpoint>
            <Time>2022-07-15T06:20:27.000Z</Time>
            <Position>
              <LatitudeDegrees>43.388658575713634490966796875</LatitudeDegrees>
              <LongitudeDegrees>-4.32874764315783977508544921875</LongitudeDegrees>
            </Position>
            <AltitudeMeters>4.400000095367431640625</AltitudeMeters>
            <DistanceMeters>NAN</DistanceMeters>
          </Trackpoint>
          <Trackpoint>
            <Time>2022-07-15T06:20:29.000Z</Time>
            <Position>
              <LatitudeDegrees>43.3886983059346675872802734375</LatitudeDegrees>
              <LongitudeDegrees>-4.32884084992110729217529296875</LongitudeDegrees>
            </Position>
            <AltitudeMeters>4.400000095367431640625</AltitudeMeters>
            <DistanceMeters>NAN</DistanceMeters>
          </Trackpoint>
          <Trackpoint>
            <Time>2022-07-15T06:20:31.000Z</Time>
            <Position>
              <LatitudeDegrees>43.38873091153800487518310546875</LatitudeDegrees>
              <LongitudeDegrees>-4.32891779579222202301025390625</LongitudeDegrees>
            </Position>
            <AltitudeMeters>4.400000095367431640625</AltitudeMeters>
            <DistanceMeters>NAN</DistanceMeters>
          </Trackpoint>
          <Trackpoint>
            <Time>2022-07-15T06:20:33.000Z</Time>
            <Position>
              <LatitudeDegrees>43.38875957764685153961181640625</LatitudeDegrees>
              <LongitudeDegrees>-4.3290127627551555633544921875</LongitudeDegrees>
            </Position>
            <AltitudeMeters>4.400000095367431640625</AltitudeMeters>
            <DistanceMeters>NAN</DistanceMeters>
          </Trackpoint>
          <Trackpoint>
            <Time>2022-07-15T06:20:35.000Z</Time>
            <Position>
              <LatitudeDegrees>43.3887796103954315185546875</LatitudeDegrees>
              <LongitudeDegrees>-4.32909884490072727203369140625</LongitudeDegrees>
            </Position>
            <AltitudeMeters>4.400000095367431640625</AltitudeMeters>
            <DistanceMeters>NAN</DistanceMeters>
          </Trackpoint>
          <Trackpoint>
            <Time>2022-07-15T06:20:41.000Z</Time>
            <Position>
              <LatitudeDegrees>43.3888320811092853546142578125</LatitudeDegrees>
              <LongitudeDegrees>-4.32938500307500362396240234375</LongitudeDegrees>
            </Position>
            <AltitudeMeters>4.19999980926513671875</AltitudeMeters>
            <DistanceMeters>NAN</DistanceMeters>
          </Trackpoint>
          <Trackpoint>
            <Time>2022-07-15T06:20:42.000Z</Time>
            <Position>
              <LatitudeDegrees>43.3888438157737255096435546875</LatitudeDegrees>
              <LongitudeDegrees>-4.32943177409470081329345703125</LongitudeDegrees>
            </Position>
            <AltitudeMeters>4.19999980926513671875</AltitudeMeters>
            <DistanceMeters>NAN</DistanceMeters>
          </Trackpoint>
          <Trackpoint>
            <Time>2022-07-15T06:20:52.000Z</Time>
            <Position>
              <LatitudeDegrees>43.388940207660198211669921875</LatitudeDegrees>
              <LongitudeDegrees>-4.32990166358649730682373046875</LongitudeDegrees>
            </Position>
            <AltitudeMeters>4.400000095367431640625</AltitudeMeters>
            <DistanceMeters>NAN</DistanceMeters>
          </Trackpoint>
          <Trackpoint>
            <Time>2022-07-15T06:21:00.000Z</Time>
            <Position>
              <LatitudeDegrees>43.38905210606753826141357421875</LatitudeDegrees>
              <LongitudeDegrees>-4.3303124606609344482421875</LongitudeDegrees>
            </Position>
            <AltitudeMeters>4.19999980926513671875</AltitudeMeters>
            <DistanceMeters>NAN</DistanceMeters>
          </Trackpoint>
          <Trackpoint>
            <Time>2022-07-15T06:21:08.000Z</Time>
            <Position>
              <LatitudeDegrees>43.38917816989123821258544921875</LatitudeDegrees>
              <LongitudeDegrees>-4.33061211369931697845458984375</LongitudeDegrees>
            </Position>
            <AltitudeMeters>4.19999980926513671875</AltitudeMeters>
            <DistanceMeters>NAN</DistanceMeters>
          </Trackpoint>
          <Trackpoint>
            <Time>2022-07-15T06:21:10.000Z</Time>
            <Position>
              <LatitudeDegrees>43.38921672664582729339599609375</LatitudeDegrees>
              <LongitudeDegrees>-4.33068620972335338592529296875</LongitudeDegrees>
            </Position>
            <AltitudeMeters>4.19999980926513671875</AltitudeMeters>
            <DistanceMeters>NAN</DistanceMeters>
          </Trackpoint>
          <Trackpoint>
            <Time>2022-07-15T06:21:16.000Z</Time>
            <Position>
              <LatitudeDegrees>43.3893266133964061737060546875</LatitudeDegrees>
              <LongitudeDegrees>-4.330882094800472259521484375</LongitudeDegrees>
            </Position>
            <AltitudeMeters>4.400000095367431640625</AltitudeMeters>
            <DistanceMeters>NAN</DistanceMeters>
          </Trackpoint>
          <Trackpoint>
            <Time>2022-07-15T06:21:23.000Z</Time>
            <Position>
              <LatitudeDegrees>43.38945963419973850250244140625</LatitudeDegrees>
              <LongitudeDegrees>-4.3310586176812648773193359375</LongitudeDegrees>
            </Position>
            <AltitudeMeters>4.599999904632568359375</AltitudeMeters>
            <DistanceMeters>NAN</DistanceMeters>
          </Trackpoint>
          <Trackpoint>
            <Time>2022-07-15T06:21:26.000Z</Time>
            <Position>
              <LatitudeDegrees>43.389500789344310760498046875</LatitudeDegrees>
              <LongitudeDegrees>-4.33112340979278087615966796875</LongitudeDegrees>
            </Position>
            <AltitudeMeters>5</AltitudeMeters>
            <DistanceMeters>NAN</DistanceMeters>
          </Trackpoint>
          <Trackpoint>
            <Time>2022-07-15T06:21:28.000Z</Time>
            <Position>
              <LatitudeDegrees>43.38951897807419300079345703125</LatitudeDegrees>
              <LongitudeDegrees>-4.33117319829761981964111328125</LongitudeDegrees>
            </Position>
            <AltitudeMeters>5</AltitudeMeters>
            <DistanceMeters>NAN</DistanceMeters>
          </Trackpoint>
          <Trackpoint>
            <Time>2022-07-15T06:21:31.000Z</Time>
            <Position>
              <LatitudeDegrees>43.38954663835465908050537109375</LatitudeDegrees>
              <LongitudeDegrees>-4.331249892711639404296875</LongitudeDegrees>
            </Position>
            <AltitudeMeters>5.19999980926513671875</AltitudeMeters>
            <DistanceMeters>NAN</DistanceMeters>
          </Trackpoint>
          <Trackpoint>
            <Time>2022-07-15T06:21:32.000Z</Time>
            <Position>
              <LatitudeDegrees>43.38955518789589405059814453125</LatitudeDegrees>
              <LongitudeDegrees>-4.331271685659885406494140625</LongitudeDegrees>
            </Position>
            <AltitudeMeters>5.400000095367431640625</AltitudeMeters>
            <DistanceMeters>NAN</DistanceMeters>
          </Trackpoint>
          <Trackpoint>
            <Time>2022-07-15T06:21:34.000Z</Time>
            <Position>
              <LatitudeDegrees>43.38957278989255428314208984375</LatitudeDegrees>
              <LongitudeDegrees>-4.33131451718509197235107421875</LongitudeDegrees>
            </Position>
            <AltitudeMeters>5.400000095367431640625</AltitudeMeters>
            <DistanceMeters>NAN</DistanceMeters>
          </Trackpoint>
          <Trackpoint>
            <Time>2022-07-15T06:21:39.000Z</Time>
            <Position>
              <LatitudeDegrees>43.3896152861416339874267578125</LatitudeDegrees>
              <LongitudeDegrees>-4.33140437118709087371826171875</LongitudeDegrees>
            </Position>
            <AltitudeMeters>6</AltitudeMeters>
            <DistanceMeters>NAN</DistanceMeters>
          </Trackpoint>
          <Trackpoint>
            <Time>2022-07-15T06:21:41.000Z</Time>
            <Position>
              <LatitudeDegrees>43.3896397612988948822021484375</LatitudeDegrees>
              <LongitudeDegrees>-4.3314448557794094085693359375</LongitudeDegrees>
            </Position>
            <AltitudeMeters>6.19999980926513671875</AltitudeMeters>
            <DistanceMeters>NAN</DistanceMeters>
          </Trackpoint>
          <Trackpoint>
            <Time>2022-07-15T06:21:44.000Z</Time>
            <Position>
              <LatitudeDegrees>43.38968443684279918670654296875</LatitudeDegrees>
              <LongitudeDegrees>-4.33150528930127620697021484375</LongitudeDegrees>
            </Position>
            <AltitudeMeters>6.400000095367431640625</AltitudeMeters>
            <DistanceMeters>NAN</DistanceMeters>
          </Trackpoint>
          <Trackpoint>
            <Time>2022-07-15T06:21:46.000Z</Time>
            <Position>
              <LatitudeDegrees>43.3897192217409610748291015625</LatitudeDegrees>
              <LongitudeDegrees>-4.33155574835836887359619140625</LongitudeDegrees>
            </Position>
            <AltitudeMeters>6.599999904632568359375</AltitudeMeters>
            <DistanceMeters>NAN</DistanceMeters>
          </Trackpoint>
          <Trackpoint>
            <Time>2022-07-15T06:21:48.000Z</Time>
            <Position>
              <LatitudeDegrees>43.3897373266518115997314453125</LatitudeDegrees>
              <LongitudeDegrees>-4.331593215465545654296875</LongitudeDegrees>
            </Position>
            <AltitudeMeters>6.80000019073486328125</AltitudeMeters>
            <DistanceMeters>NAN</DistanceMeters>
          </Trackpoint>
          <Trackpoint>
            <Time>2022-07-15T06:21:51.000Z</Time>
            <Position>
              <LatitudeDegrees>43.38974855840206146240234375</LatitudeDegrees>
              <LongitudeDegrees>-4.33163923211395740509033203125</LongitudeDegrees>
            </Position>
            <AltitudeMeters>7</AltitudeMeters>
            <DistanceMeters>NAN</DistanceMeters>
          </Trackpoint>
          <Trackpoint>
            <Time>2022-07-15T06:21:52.000Z</Time>
            <Position>
              <LatitudeDegrees>43.38975283317267894744873046875</LatitudeDegrees>
              <LongitudeDegrees>-4.33164275251328945159912109375</LongitudeDegrees>
            </Position>
            <AltitudeMeters>7</AltitudeMeters>
            <DistanceMeters>NAN</DistanceMeters>
          </Trackpoint>
          <Trackpoint>
            <Time>2022-07-15T06:21:54.000Z</Time>
            <Position>
              <LatitudeDegrees>43.389777056872844696044921875</LatitudeDegrees>
              <LongitudeDegrees>-4.3316711671650409698486328125</LongitudeDegrees>
            </Position>
            <AltitudeMeters>7.19999980926513671875</AltitudeMeters>
            <DistanceMeters>NAN</DistanceMeters>
          </Trackpoint>
          <Trackpoint>
            <Time>2022-07-15T06:21:56.000Z</Time>
            <Position>
              <LatitudeDegrees>43.3897959999740123748779296875</LatitudeDegrees>
              <LongitudeDegrees>-4.33170863427221775054931640625</LongitudeDegrees>
            </Position>
            <AltitudeMeters>7.599999904632568359375</AltitudeMeters>
            <DistanceMeters>NAN</DistanceMeters>
          </Trackpoint>
          <Trackpoint>
            <Time>2022-07-15T06:22:00.000Z</Time>
            <Position>
              <LatitudeDegrees>43.3898181281983852386474609375</LatitudeDegrees>
              <LongitudeDegrees>-4.331804104149341583251953125</LongitudeDegrees>
            </Position>
            <AltitudeMeters>8</AltitudeMeters>
            <DistanceMeters>NAN</DistanceMeters>
          </Trackpoint>
          <Trackpoint>
            <Time>2022-07-15T06:22:03.000Z</Time>
            <Position>
              <LatitudeDegrees>43.38982910849153995513916015625</LatitudeDegrees>
              <LongitudeDegrees>-4.33186621405184268951416015625</LongitudeDegrees>
            </Position>
            <AltitudeMeters>8.19999980926513671875</AltitudeMeters>
            <DistanceMeters>NAN</DistanceMeters>
          </Trackpoint>
          <Trackpoint>
            <Time>2022-07-15T06:22:05.000Z</Time>
            <Position>
              <LatitudeDegrees>43.3898446150124073028564453125</LatitudeDegrees>
              <LongitudeDegrees>-4.33189454488456249237060546875</LongitudeDegrees>
            </Position>
            <AltitudeMeters>8.3999996185302734375</AltitudeMeters>
            <DistanceMeters>NAN</DistanceMeters>
          </Trackpoint>
          <Trackpoint>
            <Time>2022-07-15T06:22:07.000Z</Time>
            <Position>
              <LatitudeDegrees>43.38986389338970184326171875</LatitudeDegrees>
              <LongitudeDegrees>-4.33193813078105449676513671875</LongitudeDegrees>
            </Position>
            <AltitudeMeters>8.6000003814697265625</AltitudeMeters>
            <DistanceMeters>NAN</DistanceMeters>
          </Trackpoint>
          <Trackpoint>
            <Time>2022-07-15T06:22:11.000Z</Time>
            <Position>
              <LatitudeDegrees>43.38988040573894977569580078125</LatitudeDegrees>
              <LongitudeDegrees>-4.33202865533530712127685546875</LongitudeDegrees>
            </Position>
            <AltitudeMeters>9</AltitudeMeters>
            <DistanceMeters>NAN</DistanceMeters>
          </Trackpoint>
          <Trackpoint>
            <Time>2022-07-15T06:22:17.000Z</Time>
            <Position>
              <LatitudeDegrees>43.3899280987679958343505859375</LatitudeDegrees>
              <LongitudeDegrees>-4.33211959898471832275390625</LongitudeDegrees>
            </Position>
            <AltitudeMeters>9.6000003814697265625</AltitudeMeters>
            <DistanceMeters>NAN</DistanceMeters>
          </Trackpoint>
          <Trackpoint>
            <Time>2022-07-15T06:22:18.000Z</Time>
            <Position>
              <LatitudeDegrees>43.38993488810956478118896484375</LatitudeDegrees>
              <LongitudeDegrees>-4.33213569223880767822265625</LongitudeDegrees>
            </Position>
            <AltitudeMeters>9.6000003814697265625</AltitudeMeters>
            <DistanceMeters>NAN</DistanceMeters>
          </Trackpoint>
          <Trackpoint>
            <Time>2022-07-15T06:22:26.000Z</Time>
            <Position>
              <LatitudeDegrees>43.38999339379370212554931640625</LatitudeDegrees>
              <LongitudeDegrees>-4.33228296227753162384033203125</LongitudeDegrees>
            </Position>
            <AltitudeMeters>10.6000003814697265625</AltitudeMeters>
            <DistanceMeters>NAN</DistanceMeters>
          </Trackpoint>
          <Trackpoint>
            <Time>2022-07-15T06:22:28.000Z</Time>
            <Position>
              <LatitudeDegrees>43.38999942876398563385009765625</LatitudeDegrees>
              <LongitudeDegrees>-4.33232286013662815093994140625</LongitudeDegrees>
            </Position>
            <AltitudeMeters>10.6000003814697265625</AltitudeMeters>
            <DistanceMeters>NAN</DistanceMeters>
          </Trackpoint>
          <Trackpoint>
            <Time>2022-07-15T06:22:33.000Z</Time>
            <Position>
              <LatitudeDegrees>43.39003547094762325286865234375</LatitudeDegrees>
              <LongitudeDegrees>-4.332421012222766876220703125</LongitudeDegrees>
            </Position>
            <AltitudeMeters>11.19999980926513671875</AltitudeMeters>
            <DistanceMeters>NAN</DistanceMeters>
          </Trackpoint>
          <Trackpoint>
            <Time>2022-07-15T06:22:39.000Z</Time>
            <Position>
              <LatitudeDegrees>43.3900737762451171875</LatitudeDegrees>
              <LongitudeDegrees>-4.3325210921466350555419921875</LongitudeDegrees>
            </Position>
            <AltitudeMeters>11.80000019073486328125</AltitudeMeters>
            <DistanceMeters>NAN</DistanceMeters>
          </Trackpoint>
          <Trackpoint>
            <Time>2022-07-15T06:22:48.000Z</Time>
            <Position>
              <LatitudeDegrees>43.3901155181229114532470703125</LatitudeDegrees>
              <LongitudeDegrees>-4.33268110267817974090576171875</LongitudeDegrees>
            </Position>
            <AltitudeMeters>12.6000003814697265625</AltitudeMeters>
            <DistanceMeters>NAN</DistanceMeters>
          </Trackpoint>
          <Trackpoint>
            <Time>2022-07-15T06:22:49.000Z</Time>
            <Position>
              <LatitudeDegrees>43.39012398384511470794677734375</LatitudeDegrees>
              <LongitudeDegrees>-4.3326964415609836578369140625</LongitudeDegrees>
            </Position>
            <AltitudeMeters>12.80000019073486328125</AltitudeMeters>
            <DistanceMeters>NAN</DistanceMeters>
          </Trackpoint>
          <Trackpoint>
            <Time>2022-07-15T06:22:51.000Z</Time>
            <Position>
              <LatitudeDegrees>43.390133790671825408935546875</LatitudeDegrees>
              <LongitudeDegrees>-4.33273206464946269989013671875</LongitudeDegrees>
            </Position>
            <AltitudeMeters>12.80000019073486328125</AltitudeMeters>
            <DistanceMeters>NAN</DistanceMeters>
          </Trackpoint>
          <Trackpoint>
            <Time>2022-07-15T06:22:54.000Z</Time>
            <Position>
              <LatitudeDegrees>43.39015751145780086517333984375</LatitudeDegrees>
              <LongitudeDegrees>-4.3327738903462886810302734375</LongitudeDegrees>
            </Position>
            <AltitudeMeters>13.19999980926513671875</AltitudeMeters>
            <DistanceMeters>NAN</DistanceMeters>
          </Trackpoint>
          <Trackpoint>
            <Time>2022-07-15T06:23:00.000Z</Time>
            <Position>
              <LatitudeDegrees>43.39020696468651294708251953125</LatitudeDegrees>
              <LongitudeDegrees>-4.3328644149005413055419921875</LongitudeDegrees>
            </Position>
            <AltitudeMeters>13.80000019073486328125</AltitudeMeters>
            <DistanceMeters>NAN</DistanceMeters>
          </Trackpoint>
          <Trackpoint>
            <Time>2022-07-15T06:23:01.000Z</Time>
            <Position>
              <LatitudeDegrees>43.39021601714193820953369140625</LatitudeDegrees>
              <LongitudeDegrees>-4.33287732303142547607421875</LongitudeDegrees>
            </Position>
            <AltitudeMeters>13.80000019073486328125</AltitudeMeters>
            <DistanceMeters>NAN</DistanceMeters>
          </Trackpoint>
          <Trackpoint>
            <Time>2022-07-15T06:23:02.000Z</Time>
            <Position>
              <LatitudeDegrees>43.39022138155996799468994140625</LatitudeDegrees>
              <LongitudeDegrees>-4.33289316482841968536376953125</LongitudeDegrees>
            </Position>
            <AltitudeMeters>14</AltitudeMeters>
            <DistanceMeters>NAN</DistanceMeters>
          </Trackpoint>
          <Trackpoint>
            <Time>2022-07-15T06:23:09.000Z</Time>
            <Position>
              <LatitudeDegrees>43.39025658555328845977783203125</LatitudeDegrees>
              <LongitudeDegrees>-4.33301386423408985137939453125</LongitudeDegrees>
            </Position>
            <AltitudeMeters>14.3999996185302734375</AltitudeMeters>
            <DistanceMeters>NAN</DistanceMeters>
          </Trackpoint>
          <Trackpoint>
            <Time>2022-07-15T06:23:10.000Z</Time>
            <Position>
              <LatitudeDegrees>43.3902647159993648529052734375</LatitudeDegrees>
              <LongitudeDegrees>-4.33303180150687694549560546875</LongitudeDegrees>
            </Position>
            <AltitudeMeters>14.3999996185302734375</AltitudeMeters>
            <DistanceMeters>NAN</DistanceMeters>
          </Trackpoint>
          <Trackpoint>
            <Time>2022-07-15T06:23:14.000Z</Time>
            <Position>
              <LatitudeDegrees>43.3902955614030361175537109375</LatitudeDegrees>
              <LongitudeDegrees>-4.33310606516897678375244140625</LongitudeDegrees>
            </Position>
            <AltitudeMeters>14.80000019073486328125</AltitudeMeters>
            <DistanceMeters>NAN</DistanceMeters>
          </Trackpoint>
          <Trackpoint>
            <Time>2022-07-15T06:23:16.000Z</Time>
            <Position>
              <LatitudeDegrees>43.39030536822974681854248046875</LatitudeDegrees>
              <LongitudeDegrees>-4.33313372544944286346435546875</LongitudeDegrees>
            </Position>
            <AltitudeMeters>15</AltitudeMeters>
            <DistanceMeters>NAN</DistanceMeters>
          </Trackpoint>
          <Trackpoint>
            <Time>2022-07-15T06:23:18.000Z</Time>
            <Position>
              <LatitudeDegrees>43.39031039737164974212646484375</LatitudeDegrees>
              <LongitudeDegrees>-4.33317395858466625213623046875</LongitudeDegrees>
            </Position>
            <AltitudeMeters>15.19999980926513671875</AltitudeMeters>
            <DistanceMeters>NAN</DistanceMeters>
          </Trackpoint>
          <Trackpoint>
            <Time>2022-07-15T06:23:26.000Z</Time>
            <Position>
              <LatitudeDegrees>43.39037309400737285614013671875</LatitudeDegrees>
              <LongitudeDegrees>-4.33331443928182125091552734375</LongitudeDegrees>
            </Position>
            <AltitudeMeters>15.80000019073486328125</AltitudeMeters>
            <DistanceMeters>NAN</DistanceMeters>
          </Trackpoint>
          <Trackpoint>
            <Time>2022-07-15T06:23:27.000Z</Time>
            <Position>
              <LatitudeDegrees>43.39037879370152950286865234375</LatitudeDegrees>
              <LongitudeDegrees>-4.33333061635494232177734375</LongitudeDegrees>
            </Position>
            <AltitudeMeters>16</AltitudeMeters>
            <DistanceMeters>NAN</DistanceMeters>
          </Trackpoint>
          <Trackpoint>
            <Time>2022-07-15T06:23:29.000Z</Time>
            <Position>
              <LatitudeDegrees>43.390390612185001373291015625</LatitudeDegrees>
              <LongitudeDegrees>-4.33336389251053333282470703125</LongitudeDegrees>
            </Position>
            <AltitudeMeters>16.200000762939453125</AltitudeMeters>
            <DistanceMeters>NAN</DistanceMeters>
          </Trackpoint>
          <Trackpoint>
            <Time>2022-07-15T06:23:33.000Z</Time>
            <Position>
              <LatitudeDegrees>43.39042036794126033782958984375</LatitudeDegrees>
              <LongitudeDegrees>-4.33344326913356781005859375</LongitudeDegrees>
            </Position>
            <AltitudeMeters>16.6000003814697265625</AltitudeMeters>
            <DistanceMeters>NAN</DistanceMeters>
          </Trackpoint>
          <Trackpoint>
            <Time>2022-07-15T06:23:39.000Z</Time>
            <Position>
              <LatitudeDegrees>43.39045322500169277191162109375</LatitudeDegrees>
              <LongitudeDegrees>-4.333542846143245697021484375</LongitudeDegrees>
            </Position>
            <AltitudeMeters>17</AltitudeMeters>
            <DistanceMeters>NAN</DistanceMeters>
          </Trackpoint>
          <Trackpoint>
            <Time>2022-07-15T06:23:40.000Z</Time>
            <Position>
              <LatitudeDegrees>43.39046177454292774200439453125</LatitudeDegrees>
              <LongitudeDegrees>-4.3335634656250476837158203125</LongitudeDegrees>
            </Position>
            <AltitudeMeters>17</AltitudeMeters>
            <DistanceMeters>NAN</DistanceMeters>
          </Trackpoint>
          <Trackpoint>
            <Time>2022-07-15T06:23:49.000Z</Time>
            <Position>
              <LatitudeDegrees>43.39052597992122173309326171875</LatitudeDegrees>
              <LongitudeDegrees>-4.33372490108013153076171875</LongitudeDegrees>
            </Position>
            <AltitudeMeters>17.799999237060546875</AltitudeMeters>
            <DistanceMeters>NAN</DistanceMeters>
          </Trackpoint>
          <Trackpoint>
            <Time>2022-07-15T06:23:51.000Z</Time>
            <Position>
              <LatitudeDegrees>43.3905359543859958648681640625</LatitudeDegrees>
              <LongitudeDegrees>-4.33375884778797626495361328125</LongitudeDegrees>
            </Position>
            <AltitudeMeters>18</AltitudeMeters>
            <DistanceMeters>NAN</DistanceMeters>
          </Trackpoint>
          <Trackpoint>
            <Time>2022-07-15T06:23:52.000Z</Time>
            <Position>
              <LatitudeDegrees>43.3905413188040256500244140625</LatitudeDegrees>
              <LongitudeDegrees>-4.33377452194690704345703125</LongitudeDegrees>
            </Position>
            <AltitudeMeters>18.200000762939453125</AltitudeMeters>
            <DistanceMeters>NAN</DistanceMeters>
          </Trackpoint>
          <Trackpoint>
            <Time>2022-07-15T06:24:00.000Z</Time>
            <Position>
              <LatitudeDegrees>43.39059337042272090911865234375</LatitudeDegrees>
              <LongitudeDegrees>-4.33392296545207500457763671875</LongitudeDegrees>
            </Position>
            <AltitudeMeters>18.799999237060546875</AltitudeMeters>
            <DistanceMeters>NAN</DistanceMeters>
          </Trackpoint>
          <Trackpoint>
            <Time>2022-07-15T06:24:03.000Z</Time>
            <Position>
              <LatitudeDegrees>43.39061088860034942626953125</LatitudeDegrees>
              <LongitudeDegrees>-4.333976693451404571533203125</LongitudeDegrees>
            </Position>
            <AltitudeMeters>19.200000762939453125</AltitudeMeters>
            <DistanceMeters>NAN</DistanceMeters>
          </Trackpoint>
          <Trackpoint>
            <Time>2022-07-15T06:24:09.000Z</Time>
            <Position>
              <LatitudeDegrees>43.390655815601348876953125</LatitudeDegrees>
              <LongitudeDegrees>-4.33407719247043132781982421875</LongitudeDegrees>
            </Position>
            <AltitudeMeters>19.6000003814697265625</AltitudeMeters>
            <DistanceMeters>NAN</DistanceMeters>
          </Trackpoint>
          <Trackpoint>
            <Time>2022-07-15T06:24:14.000Z</Time>
            <Position>
              <LatitudeDegrees>43.39069269597530364990234375</LatitudeDegrees>
              <LongitudeDegrees>-4.33415313251316547393798828125</LongitudeDegrees>
            </Position>
            <AltitudeMeters>20.200000762939453125</AltitudeMeters>
            <DistanceMeters>NAN</DistanceMeters>
          </Trackpoint>
          <Trackpoint>
            <Time>2022-07-15T06:24:18.000Z</Time>
            <Position>
              <LatitudeDegrees>43.390729911625385284423828125</LatitudeDegrees>
              <LongitudeDegrees>-4.33422789908945560455322265625</LongitudeDegrees>
            </Position>
            <AltitudeMeters>20.6000003814697265625</AltitudeMeters>
            <DistanceMeters>NAN</DistanceMeters>
          </Trackpoint>
          <Trackpoint>
            <Time>2022-07-15T06:24:19.000Z</Time>
            <Position>
              <LatitudeDegrees>43.39073368348181247711181640625</LatitudeDegrees>
              <LongitudeDegrees>-4.3342450819909572601318359375</LongitudeDegrees>
            </Position>
            <AltitudeMeters>20.6000003814697265625</AltitudeMeters>
            <DistanceMeters>NAN</DistanceMeters>
          </Trackpoint>
          <Trackpoint>
            <Time>2022-07-15T06:24:23.000Z</Time>
            <Position>
              <LatitudeDegrees>43.39074960909783840179443359375</LatitudeDegrees>
              <LongitudeDegrees>-4.33431808836758136749267578125</LongitudeDegrees>
            </Position>
            <AltitudeMeters>20.799999237060546875</AltitudeMeters>
            <DistanceMeters>NAN</DistanceMeters>
          </Trackpoint>
          <Trackpoint>
            <Time>2022-07-15T06:24:26.000Z</Time>
            <Position>
              <LatitudeDegrees>43.39076838456094264984130859375</LatitudeDegrees>
              <LongitudeDegrees>-4.3343704752624034881591796875</LongitudeDegrees>
            </Position>
            <AltitudeMeters>21.200000762939453125</AltitudeMeters>
            <DistanceMeters>NAN</DistanceMeters>
          </Trackpoint>
          <Trackpoint>
            <Time>2022-07-15T06:24:30.000Z</Time>
            <Position>
              <LatitudeDegrees>43.390788920223712921142578125</LatitudeDegrees>
              <LongitudeDegrees>-4.3344485945999622344970703125</LongitudeDegrees>
            </Position>
            <AltitudeMeters>21.6000003814697265625</AltitudeMeters>
            <DistanceMeters>NAN</DistanceMeters>
          </Trackpoint>
          <Trackpoint>
            <Time>2022-07-15T06:24:39.000Z</Time>
            <Position>
              <LatitudeDegrees>43.390852622687816619873046875</LatitudeDegrees>
              <LongitudeDegrees>-4.334615059196949005126953125</LongitudeDegrees>
            </Position>
            <AltitudeMeters>22.3999996185302734375</AltitudeMeters>
            <DistanceMeters>NAN</DistanceMeters>
          </Trackpoint>
          <Trackpoint>
            <Time>2022-07-15T06:24:47.000Z</Time>
            <Position>
              <LatitudeDegrees>43.39089511893689632415771484375</LatitudeDegrees>
              <LongitudeDegrees>-4.33477205224335193634033203125</LongitudeDegrees>
            </Position>
            <AltitudeMeters>23</AltitudeMeters>
            <DistanceMeters>NAN</DistanceMeters>
          </Trackpoint>
          <Trackpoint>
            <Time>2022-07-15T06:24:51.000Z</Time>
            <Position>
              <LatitudeDegrees>43.39092344976961612701416015625</LatitudeDegrees>
              <LongitudeDegrees>-4.33485520072281360626220703125</LongitudeDegrees>
            </Position>
            <AltitudeMeters>23.3999996185302734375</AltitudeMeters>
            <DistanceMeters>NAN</DistanceMeters>
          </Trackpoint>
          <Trackpoint>
            <Time>2022-07-15T06:24:57.000Z</Time>
            <Position>
              <LatitudeDegrees>43.3909654431045055389404296875</LatitudeDegrees>
              <LongitudeDegrees>-4.3349709548056125640869140625</LongitudeDegrees>
            </Position>
            <AltitudeMeters>23.799999237060546875</AltitudeMeters>
            <DistanceMeters>NAN</DistanceMeters>
          </Trackpoint>
          <Trackpoint>
            <Time>2022-07-15T06:25:05.000Z</Time>
            <Position>
              <LatitudeDegrees>43.39104079641401767730712890625</LatitudeDegrees>
              <LongitudeDegrees>-4.33512057177722454071044921875</LongitudeDegrees>
            </Position>
            <AltitudeMeters>24.3999996185302734375</AltitudeMeters>
            <DistanceMeters>NAN</DistanceMeters>
          </Trackpoint>
          <Trackpoint>
            <Time>2022-07-15T06:25:08.000Z</Time>
            <Position>
              <LatitudeDegrees>43.3910710550844669342041015625</LatitudeDegrees>
              <LongitudeDegrees>-4.33518243022263050079345703125</LongitudeDegrees>
            </Position>
            <AltitudeMeters>24.6000003814697265625</AltitudeMeters>
            <DistanceMeters>NAN</DistanceMeters>
          </Trackpoint>
          <Trackpoint>
            <Time>2022-07-15T06:25:15.000Z</Time>
            <Position>
              <LatitudeDegrees>43.39112327434122562408447265625</LatitudeDegrees>
              <LongitudeDegrees>-4.33533363975584506988525390625</LongitudeDegrees>
            </Position>
            <AltitudeMeters>25.200000762939453125</AltitudeMeters>
            <DistanceMeters>NAN</DistanceMeters>
          </Trackpoint>
          <Trackpoint>
            <Time>2022-07-15T06:25:21.000Z</Time>
            <Position>
              <LatitudeDegrees>43.3911788463592529296875</LatitudeDegrees>
              <LongitudeDegrees>-4.33546959422528743743896484375</LongitudeDegrees>
            </Position>
            <AltitudeMeters>25.6000003814697265625</AltitudeMeters>
            <DistanceMeters>NAN</DistanceMeters>
          </Trackpoint>
          <Trackpoint>
            <Time>2022-07-15T06:25:23.000Z</Time>
            <Position>
              <LatitudeDegrees>43.3911974541842937469482421875</LatitudeDegrees>
              <LongitudeDegrees>-4.335517622530460357666015625</LongitudeDegrees>
            </Position>
            <AltitudeMeters>25.6000003814697265625</AltitudeMeters>
            <DistanceMeters>NAN</DistanceMeters>
          </Trackpoint>
          <Trackpoint>
            <Time>2022-07-15T06:25:29.000Z</Time>
            <Position>
              <LatitudeDegrees>43.39124481193721294403076171875</LatitudeDegrees>
              <LongitudeDegrees>-4.33566413819789886474609375</LongitudeDegrees>
            </Position>
            <AltitudeMeters>26</AltitudeMeters>
            <DistanceMeters>NAN</DistanceMeters>
          </Trackpoint>
          <Trackpoint>
            <Time>2022-07-15T06:25:37.000Z</Time>
            <Position>
              <LatitudeDegrees>43.3913446404039859771728515625</LatitudeDegrees>
              <LongitudeDegrees>-4.33583018369972705841064453125</LongitudeDegrees>
            </Position>
            <AltitudeMeters>26.3999996185302734375</AltitudeMeters>
            <DistanceMeters>NAN</DistanceMeters>
          </Trackpoint>
          <Trackpoint>
            <Time>2022-07-15T06:25:40.000Z</Time>
            <Position>
              <LatitudeDegrees>43.39137372560799121856689453125</LatitudeDegrees>
              <LongitudeDegrees>-4.335900843143463134765625</LongitudeDegrees>
            </Position>
            <AltitudeMeters>26.6000003814697265625</AltitudeMeters>
            <DistanceMeters>NAN</DistanceMeters>
          </Trackpoint>
          <Trackpoint>
            <Time>2022-07-15T06:25:42.000Z</Time>
            <Position>
              <LatitudeDegrees>43.3913934230804443359375</LatitudeDegrees>
              <LongitudeDegrees>-4.33594015426933765411376953125</LongitudeDegrees>
            </Position>
            <AltitudeMeters>26.6000003814697265625</AltitudeMeters>
            <DistanceMeters>NAN</DistanceMeters>
          </Trackpoint>
          <Trackpoint>
            <Time>2022-07-15T06:25:47.000Z</Time>
            <Position>
              <LatitudeDegrees>43.391429297626018524169921875</LatitudeDegrees>
              <LongitudeDegrees>-4.33603922836482524871826171875</LongitudeDegrees>
            </Position>
            <AltitudeMeters>26.799999237060546875</AltitudeMeters>
            <DistanceMeters>NAN</DistanceMeters>
          </Trackpoint>
          <Trackpoint>
            <Time>2022-07-15T06:25:57.000Z</Time>
            <Position>
              <LatitudeDegrees>43.39152879081666469573974609375</LatitudeDegrees>
              <LongitudeDegrees>-4.336260594427585601806640625</LongitudeDegrees>
            </Position>
            <AltitudeMeters>27.200000762939453125</AltitudeMeters>
            <DistanceMeters>NAN</DistanceMeters>
          </Trackpoint>
          <Trackpoint>
            <Time>2022-07-15T06:26:02.000Z</Time>
            <Position>
              <LatitudeDegrees>43.39156969450414180755615234375</LatitudeDegrees>
              <LongitudeDegrees>-4.3363858200609683990478515625</LongitudeDegrees>
            </Position>
            <AltitudeMeters>27.6000003814697265625</AltitudeMeters>
            <DistanceMeters>NAN</DistanceMeters>
          </Trackpoint>
          <Trackpoint>
            <Time>2022-07-15T06:26:07.000Z</Time>
            <Position>
              <LatitudeDegrees>43.39161680079996585845947265625</LatitudeDegrees>
              <LongitudeDegrees>-4.336510710418224334716796875</LongitudeDegrees>
            </Position>
            <AltitudeMeters>27.6000003814697265625</AltitudeMeters>
            <DistanceMeters>NAN</DistanceMeters>
          </Trackpoint>
          <Trackpoint>
            <Time>2022-07-15T06:26:15.000Z</Time>
            <Position>
              <LatitudeDegrees>43.39170581661164760589599609375</LatitudeDegrees>
              <LongitudeDegrees>-4.33673660270869731903076171875</LongitudeDegrees>
            </Position>
            <AltitudeMeters>27.799999237060546875</AltitudeMeters>
            <DistanceMeters>NAN</DistanceMeters>
          </Trackpoint>
          <Trackpoint>
            <Time>2022-07-15T06:26:26.000Z</Time>
            <Position>
              <LatitudeDegrees>43.39183531701564788818359375</LatitudeDegrees>
              <LongitudeDegrees>-4.33701488189399242401123046875</LongitudeDegrees>
            </Position>
            <AltitudeMeters>28.200000762939453125</AltitudeMeters>
            <DistanceMeters>NAN</DistanceMeters>
          </Trackpoint>
          <Trackpoint>
            <Time>2022-07-15T06:26:33.000Z</Time>
            <Position>
              <LatitudeDegrees>43.39190916158258914947509765625</LatitudeDegrees>
              <LongitudeDegrees>-4.337185956537723541259765625</LongitudeDegrees>
            </Position>
            <AltitudeMeters>28.3999996185302734375</AltitudeMeters>
            <DistanceMeters>NAN</DistanceMeters>
          </Trackpoint>
          <Trackpoint>
            <Time>2022-07-15T06:26:35.000Z</Time>
            <Position>
              <LatitudeDegrees>43.39192575775086879730224609375</LatitudeDegrees>
              <LongitudeDegrees>-4.33723666705191135406494140625</LongitudeDegrees>
            </Position>
            <AltitudeMeters>28.6000003814697265625</AltitudeMeters>
            <DistanceMeters>NAN</DistanceMeters>
          </Trackpoint>
          <Trackpoint>
            <Time>2022-07-15T06:26:41.000Z</Time>
            <Position>
              <LatitudeDegrees>43.391986191272735595703125</LatitudeDegrees>
              <LongitudeDegrees>-4.33736340142786502838134765625</LongitudeDegrees>
            </Position>
            <AltitudeMeters>29</AltitudeMeters>
            <DistanceMeters>NAN</DistanceMeters>
          </Trackpoint>
          <Trackpoint>
            <Time>2022-07-15T06:26:43.000Z</Time>
            <Position>
              <LatitudeDegrees>43.39200555346906185150146484375</LatitudeDegrees>
              <LongitudeDegrees>-4.33741034008562564849853515625</LongitudeDegrees>
            </Position>
            <AltitudeMeters>29</AltitudeMeters>
            <DistanceMeters>NAN</DistanceMeters>
          </Trackpoint>
          <Trackpoint>
            <Time>2022-07-15T06:26:45.000Z</Time>
            <Position>
              <LatitudeDegrees>43.3920208923518657684326171875</LatitudeDegrees>
              <LongitudeDegrees>-4.33745224960148334503173828125</LongitudeDegrees>
            </Position>
            <AltitudeMeters>29.200000762939453125</AltitudeMeters>
            <DistanceMeters>NAN</DistanceMeters>
          </Trackpoint>
          <Trackpoint>
            <Time>2022-07-15T06:26:48.000Z</Time>
            <Position>
              <LatitudeDegrees>43.3920467086136341094970703125</LatitudeDegrees>
              <LongitudeDegrees>-4.33751394040882587432861328125</LongitudeDegrees>
            </Position>
            <AltitudeMeters>29.200000762939453125</AltitudeMeters>
            <DistanceMeters>NAN</DistanceMeters>
          </Trackpoint>
          <Trackpoint>
            <Time>2022-07-15T06:26:52.000Z</Time>
            <Position>
              <LatitudeDegrees>43.3920835889875888824462890625</LatitudeDegrees>
              <LongitudeDegrees>-4.33759977109730243682861328125</LongitudeDegrees>
            </Position>
            <AltitudeMeters>29.6000003814697265625</AltitudeMeters>
            <DistanceMeters>NAN</DistanceMeters>
          </Trackpoint>
          <Trackpoint>
            <Time>2022-07-15T06:26:54.000Z</Time>
            <Position>
              <LatitudeDegrees>43.392101190984249114990234375</LatitudeDegrees>
              <LongitudeDegrees>-4.33763765729963779449462890625</LongitudeDegrees>
            </Position>
            <AltitudeMeters>29.799999237060546875</AltitudeMeters>
            <DistanceMeters>NAN</DistanceMeters>
          </Trackpoint>
          <Trackpoint>
            <Time>2022-07-15T06:27:01.000Z</Time>
            <Position>
              <LatitudeDegrees>43.39214871637523174285888671875</LatitudeDegrees>
              <LongitudeDegrees>-4.33778082020580768585205078125</LongitudeDegrees>
            </Position>
            <AltitudeMeters>30.3999996185302734375</AltitudeMeters>
            <DistanceMeters>NAN</DistanceMeters>
          </Trackpoint>
          <Trackpoint>
            <Time>2022-07-15T06:27:04.000Z</Time>
            <Position>
              <LatitudeDegrees>43.39218006469309329986572265625</LatitudeDegrees>
              <LongitudeDegrees>-4.337820969521999359130859375</LongitudeDegrees>
            </Position>
            <AltitudeMeters>30.6000003814697265625</AltitudeMeters>
            <DistanceMeters>NAN</DistanceMeters>
          </Trackpoint>
          <Trackpoint>
            <Time>2022-07-15T06:27:05.000Z</Time>
            <Position>
              <LatitudeDegrees>43.3921905420720577239990234375</LatitudeDegrees>
              <LongitudeDegrees>-4.3378281779587268829345703125</LongitudeDegrees>
            </Position>
            <AltitudeMeters>30.6000003814697265625</AltitudeMeters>
            <DistanceMeters>NAN</DistanceMeters>
          </Trackpoint>
          <Trackpoint>
            <Time>2022-07-15T06:27:07.000Z</Time>
            <Position>
              <LatitudeDegrees>43.392193727195262908935546875</LatitudeDegrees>
              <LongitudeDegrees>-4.33783161453902721405029296875</LongitudeDegrees>
            </Position>
            <AltitudeMeters>30.6000003814697265625</AltitudeMeters>
            <DistanceMeters>NAN</DistanceMeters>
          </Trackpoint>
          <Trackpoint>
            <Time>2022-07-15T06:27:12.000Z</Time>
            <Position>
              <LatitudeDegrees>43.392193727195262908935546875</LatitudeDegrees>
              <LongitudeDegrees>-4.33783161453902721405029296875</LongitudeDegrees>
            </Position>
            <AltitudeMeters>30.799999237060546875</AltitudeMeters>
            <DistanceMeters>NAN</DistanceMeters>
          </Trackpoint>
          <Trackpoint>
            <Time>2022-07-15T06:28:23.000Z</Time>
            <Position>
              <LatitudeDegrees>43.3922116644680500030517578125</LatitudeDegrees>
              <LongitudeDegrees>-4.33788944967091083526611328125</LongitudeDegrees>
            </Position>
            <AltitudeMeters>29.799999237060546875</AltitudeMeters>
            <DistanceMeters>NAN</DistanceMeters>
          </Trackpoint>
          <Trackpoint>
            <Time>2022-07-15T06:28:24.000Z</Time>
            <Position>
              <LatitudeDegrees>43.3922230638563632965087890625</LatitudeDegrees>
              <LongitudeDegrees>-4.3379176966845989227294921875</LongitudeDegrees>
            </Position>
            <AltitudeMeters>30</AltitudeMeters>
            <DistanceMeters>NAN</DistanceMeters>
          </Trackpoint>
          <Trackpoint>
            <Time>2022-07-15T06:28:30.000Z</Time>
            <Position>
              <LatitudeDegrees>43.39227226562798023223876953125</LatitudeDegrees>
              <LongitudeDegrees>-4.3380534835159778594970703125</LongitudeDegrees>
            </Position>
            <AltitudeMeters>30.6000003814697265625</AltitudeMeters>
            <DistanceMeters>NAN</DistanceMeters>
          </Trackpoint>
          <Trackpoint>
            <Time>2022-07-15T06:28:31.000Z</Time>
            <Position>
              <LatitudeDegrees>43.39228282682597637176513671875</LatitudeDegrees>
              <LongitudeDegrees>-4.33807837776839733123779296875</LongitudeDegrees>
            </Position>
            <AltitudeMeters>30.6000003814697265625</AltitudeMeters>
            <DistanceMeters>NAN</DistanceMeters>
          </Trackpoint>
          <Trackpoint>
            <Time>2022-07-15T06:28:39.000Z</Time>
            <Position>
              <LatitudeDegrees>43.39236580766737461090087890625</LatitudeDegrees>
              <LongitudeDegrees>-4.33823226951062679290771484375</LongitudeDegrees>
            </Position>
            <AltitudeMeters>31.200000762939453125</AltitudeMeters>
            <DistanceMeters>NAN</DistanceMeters>
          </Trackpoint>
          <Trackpoint>
            <Time>2022-07-15T06:28:40.000Z</Time>
            <Position>
              <LatitudeDegrees>43.3923782967031002044677734375</LatitudeDegrees>
              <LongitudeDegrees>-4.33824752457439899444580078125</LongitudeDegrees>
            </Position>
            <AltitudeMeters>31.3999996185302734375</AltitudeMeters>
            <DistanceMeters>NAN</DistanceMeters>
          </Trackpoint>
          <Trackpoint>
            <Time>2022-07-15T06:28:44.000Z</Time>
            <Position>
              <LatitudeDegrees>43.39240822009742259979248046875</LatitudeDegrees>
              <LongitudeDegrees>-4.3383146636188030242919921875</LongitudeDegrees>
            </Position>
            <AltitudeMeters>31.6000003814697265625</AltitudeMeters>
            <DistanceMeters>NAN</DistanceMeters>
          </Trackpoint>
          <Trackpoint>
            <Time>2022-07-15T06:28:46.000Z</Time>
            <Position>
              <LatitudeDegrees>43.39241928420960903167724609375</LatitudeDegrees>
              <LongitudeDegrees>-4.33835280127823352813720703125</LongitudeDegrees>
            </Position>
            <AltitudeMeters>31.799999237060546875</AltitudeMeters>
            <DistanceMeters>NAN</DistanceMeters>
          </Trackpoint>
          <Trackpoint>
            <Time>2022-07-15T06:28:48.000Z</Time>
            <Position>
              <LatitudeDegrees>43.39243269525468349456787109375</LatitudeDegrees>
              <LongitudeDegrees>-4.3383887596428394317626953125</LongitudeDegrees>
            </Position>
            <AltitudeMeters>32</AltitudeMeters>
            <DistanceMeters>NAN</DistanceMeters>
          </Trackpoint>
          <Trackpoint>
            <Time>2022-07-15T06:28:53.000Z</Time>
            <Position>
              <LatitudeDegrees>43.392466641962528228759765625</LatitudeDegrees>
              <LongitudeDegrees>-4.3384843133389949798583984375</LongitudeDegrees>
            </Position>
            <AltitudeMeters>32.59999847412109375</AltitudeMeters>
            <DistanceMeters>NAN</DistanceMeters>
          </Trackpoint>
          <Trackpoint>
            <Time>2022-07-15T06:28:55.000Z</Time>
            <Position>
              <LatitudeDegrees>43.3924865908920764923095703125</LatitudeDegrees>
              <LongitudeDegrees>-4.33851541019976139068603515625</LongitudeDegrees>
            </Position>
            <AltitudeMeters>32.799999237060546875</AltitudeMeters>
            <DistanceMeters>NAN</DistanceMeters>
          </Trackpoint>
          <Trackpoint>
            <Time>2022-07-15T06:29:03.000Z</Time>
            <Position>
              <LatitudeDegrees>43.39254702441394329071044921875</LatitudeDegrees>
              <LongitudeDegrees>-4.338647760450839996337890625</LongitudeDegrees>
            </Position>
            <AltitudeMeters>33.59999847412109375</AltitudeMeters>
            <DistanceMeters>NAN</DistanceMeters>
          </Trackpoint>
          <Trackpoint>
            <Time>2022-07-15T06:29:04.000Z</Time>
            <Position>
              <LatitudeDegrees>43.3925521373748779296875</LatitudeDegrees>
              <LongitudeDegrees>-4.33866628445684909820556640625</LongitudeDegrees>
            </Position>
            <AltitudeMeters>33.799999237060546875</AltitudeMeters>
            <DistanceMeters>NAN</DistanceMeters>
          </Trackpoint>
          <Trackpoint>
            <Time>2022-07-15T06:29:05.000Z</Time>
            <Position>
              <LatitudeDegrees>43.3925600163638591766357421875</LatitudeDegrees>
              <LongitudeDegrees>-4.33868371881544589996337890625</LongitudeDegrees>
            </Position>
            <AltitudeMeters>33.799999237060546875</AltitudeMeters>
            <DistanceMeters>NAN</DistanceMeters>
          </Trackpoint>
          <Trackpoint>
            <Time>2022-07-15T06:29:09.000Z</Time>
            <Position>
              <LatitudeDegrees>43.3925925381481647491455078125</LatitudeDegrees>
              <LongitudeDegrees>-4.33874876238405704498291015625</LongitudeDegrees>
            </Position>
            <AltitudeMeters>34.200000762939453125</AltitudeMeters>
            <DistanceMeters>NAN</DistanceMeters>
          </Trackpoint>
          <Trackpoint>
            <Time>2022-07-15T06:29:12.000Z</Time>
            <Position>
              <LatitudeDegrees>43.39261122979223728179931640625</LatitudeDegrees>
              <LongitudeDegrees>-4.33880123309791088104248046875</LongitudeDegrees>
            </Position>
            <AltitudeMeters>34.40000152587890625</AltitudeMeters>
            <DistanceMeters>NAN</DistanceMeters>
          </Trackpoint>
          <Trackpoint>
            <Time>2022-07-15T06:29:14.000Z</Time>
            <Position>
              <LatitudeDegrees>43.39263285510241985321044921875</LatitudeDegrees>
              <LongitudeDegrees>-4.33883258141577243804931640625</LongitudeDegrees>
            </Position>
            <AltitudeMeters>34.799999237060546875</AltitudeMeters>
            <DistanceMeters>NAN</DistanceMeters>
          </Trackpoint>
          <Trackpoint>
            <Time>2022-07-15T06:29:15.000Z</Time>
            <Position>
              <LatitudeDegrees>43.39264039881527423858642578125</LatitudeDegrees>
              <LongitudeDegrees>-4.338850267231464385986328125</LongitudeDegrees>
            </Position>
            <AltitudeMeters>34.799999237060546875</AltitudeMeters>
            <DistanceMeters>NAN</DistanceMeters>
          </Trackpoint>
          <Trackpoint>
            <Time>2022-07-15T06:29:22.000Z</Time>
            <Position>
              <LatitudeDegrees>43.39268549345433712005615234375</LatitudeDegrees>
              <LongitudeDegrees>-4.33898932300508022308349609375</LongitudeDegrees>
            </Position>
            <AltitudeMeters>35.59999847412109375</AltitudeMeters>
            <DistanceMeters>NAN</DistanceMeters>
          </Trackpoint>
          <Trackpoint>
            <Time>2022-07-15T06:29:23.000Z</Time>
            <Position>
              <LatitudeDegrees>43.392689265310764312744140625</LatitudeDegrees>
              <LongitudeDegrees>-4.33900860138237476348876953125</LongitudeDegrees>
            </Position>
            <AltitudeMeters>35.59999847412109375</AltitudeMeters>
            <DistanceMeters>NAN</DistanceMeters>
          </Trackpoint>
          <Trackpoint>
            <Time>2022-07-15T06:29:26.000Z</Time>
            <Position>
              <LatitudeDegrees>43.39270460419356822967529296875</LatitudeDegrees>
              <LongitudeDegrees>-4.33906425721943378448486328125</LongitudeDegrees>
            </Position>
            <AltitudeMeters>35.799999237060546875</AltitudeMeters>
            <DistanceMeters>NAN</DistanceMeters>
          </Trackpoint>
          <Trackpoint>
            <Time>2022-07-15T06:29:33.000Z</Time>
            <Position>
              <LatitudeDegrees>43.3927353657782077789306640625</LatitudeDegrees>
              <LongitudeDegrees>-4.339215718209743499755859375</LongitudeDegrees>
            </Position>
            <AltitudeMeters>36.40000152587890625</AltitudeMeters>
            <DistanceMeters>NAN</DistanceMeters>
          </Trackpoint>
          <Trackpoint>
            <Time>2022-07-15T06:29:40.000Z</Time>
            <Position>
              <LatitudeDegrees>43.392773084342479705810546875</LatitudeDegrees>
              <LongitudeDegrees>-4.33936868794262409210205078125</LongitudeDegrees>
            </Position>
            <AltitudeMeters>36.799999237060546875</AltitudeMeters>
            <DistanceMeters>NAN</DistanceMeters>
          </Trackpoint>
          <Trackpoint>
            <Time>2022-07-15T06:29:43.000Z</Time>
            <Position>
              <LatitudeDegrees>43.39278674684464931488037109375</LatitudeDegrees>
              <LongitudeDegrees>-4.33943456970155239105224609375</LongitudeDegrees>
            </Position>
            <AltitudeMeters>37</AltitudeMeters>
            <DistanceMeters>NAN</DistanceMeters>
          </Trackpoint>
          <Trackpoint>
            <Time>2022-07-15T06:29:45.000Z</Time>
            <Position>
              <LatitudeDegrees>43.3928020857274532318115234375</LatitudeDegrees>
              <LongitudeDegrees>-4.33947698213160037994384765625</LongitudeDegrees>
            </Position>
            <AltitudeMeters>37</AltitudeMeters>
            <DistanceMeters>NAN</DistanceMeters>
          </Trackpoint>
          <Trackpoint>
            <Time>2022-07-15T06:29:50.000Z</Time>
            <Position>
              <LatitudeDegrees>43.3928279019892215728759765625</LatitudeDegrees>
              <LongitudeDegrees>-4.33958158828318119049072265625</LongitudeDegrees>
            </Position>
            <AltitudeMeters>37.200000762939453125</AltitudeMeters>
            <DistanceMeters>NAN</DistanceMeters>
          </Trackpoint>
          <Trackpoint>
            <Time>2022-07-15T06:29:58.000Z</Time>
            <Position>
              <LatitudeDegrees>43.39287492446601390838623046875</LatitudeDegrees>
              <LongitudeDegrees>-4.33975576423108577728271484375</LongitudeDegrees>
            </Position>
            <AltitudeMeters>37.59999847412109375</AltitudeMeters>
            <DistanceMeters>NAN</DistanceMeters>
          </Trackpoint>
          <Trackpoint>
            <Time>2022-07-15T06:30:02.000Z</Time>
            <Position>
              <LatitudeDegrees>43.3929009921848773956298828125</LatitudeDegrees>
              <LongitudeDegrees>-4.3398337997496128082275390625</LongitudeDegrees>
            </Position>
            <AltitudeMeters>38</AltitudeMeters>
            <DistanceMeters>NAN</DistanceMeters>
          </Trackpoint>
          <Trackpoint>
            <Time>2022-07-15T06:30:05.000Z</Time>
            <Position>
              <LatitudeDegrees>43.39290929026901721954345703125</LatitudeDegrees>
              <LongitudeDegrees>-4.33989205397665500640869140625</LongitudeDegrees>
            </Position>
            <AltitudeMeters>38.200000762939453125</AltitudeMeters>
            <DistanceMeters>NAN</DistanceMeters>
          </Trackpoint>
          <Trackpoint>
            <Time>2022-07-15T06:30:12.000Z</Time>
            <Position>
              <LatitudeDegrees>43.39294365607202053070068359375</LatitudeDegrees>
              <LongitudeDegrees>-4.34002515859901905059814453125</LongitudeDegrees>
            </Position>
            <AltitudeMeters>38.799999237060546875</AltitudeMeters>
            <DistanceMeters>NAN</DistanceMeters>
          </Trackpoint>
          <Trackpoint>
            <Time>2022-07-15T06:30:15.000Z</Time>
            <Position>
              <LatitudeDegrees>43.392954804003238677978515625</LatitudeDegrees>
              <LongitudeDegrees>-4.3400772102177143096923828125</LongitudeDegrees>
            </Position>
            <AltitudeMeters>39</AltitudeMeters>
            <DistanceMeters>NAN</DistanceMeters>
          </Trackpoint>
          <Trackpoint>
            <Time>2022-07-15T06:30:20.000Z</Time>
            <Position>
              <LatitudeDegrees>43.3929834701120853424072265625</LatitudeDegrees>
              <LongitudeDegrees>-4.34016086161136627197265625</LongitudeDegrees>
            </Position>
            <AltitudeMeters>39.40000152587890625</AltitudeMeters>
            <DistanceMeters>NAN</DistanceMeters>
          </Trackpoint>
          <Trackpoint>
            <Time>2022-07-15T06:30:22.000Z</Time>
            <Position>
              <LatitudeDegrees>43.3929955400526523590087890625</LatitudeDegrees>
              <LongitudeDegrees>-4.34018827043473720550537109375</LongitudeDegrees>
            </Position>
            <AltitudeMeters>39.59999847412109375</AltitudeMeters>
            <DistanceMeters>NAN</DistanceMeters>
          </Trackpoint>
          <Trackpoint>
            <Time>2022-07-15T06:30:25.000Z</Time>
            <Position>
              <LatitudeDegrees>43.39301255531609058380126953125</LatitudeDegrees>
              <LongitudeDegrees>-4.3402339518070220947265625</LongitudeDegrees>
            </Position>
            <AltitudeMeters>40</AltitudeMeters>
            <DistanceMeters>NAN</DistanceMeters>
          </Trackpoint>
          <Trackpoint>
            <Time>2022-07-15T06:30:31.000Z</Time>
            <Position>
              <LatitudeDegrees>43.393054716289043426513671875</LatitudeDegrees>
              <LongitudeDegrees>-4.34033118188381195068359375</LongitudeDegrees>
            </Position>
            <AltitudeMeters>40.40000152587890625</AltitudeMeters>
            <DistanceMeters>NAN</DistanceMeters>
          </Trackpoint>
          <Trackpoint>
            <Time>2022-07-15T06:30:39.000Z</Time>
            <Position>
              <LatitudeDegrees>43.39310291223227977752685546875</LatitudeDegrees>
              <LongitudeDegrees>-4.3404627777636051177978515625</LongitudeDegrees>
            </Position>
            <AltitudeMeters>41</AltitudeMeters>
            <DistanceMeters>NAN</DistanceMeters>
          </Trackpoint>
          <Trackpoint>
            <Time>2022-07-15T06:30:40.000Z</Time>
            <Position>
              <LatitudeDegrees>43.39310760609805583953857421875</LatitudeDegrees>
              <LongitudeDegrees>-4.3404808826744556427001953125</LongitudeDegrees>
            </Position>
            <AltitudeMeters>41</AltitudeMeters>
            <DistanceMeters>NAN</DistanceMeters>
          </Trackpoint>
          <Trackpoint>
            <Time>2022-07-15T06:30:46.000Z</Time>
            <Position>
              <LatitudeDegrees>43.39316678233444690704345703125</LatitudeDegrees>
              <LongitudeDegrees>-4.340564198791980743408203125</LongitudeDegrees>
            </Position>
            <AltitudeMeters>41.40000152587890625</AltitudeMeters>
            <DistanceMeters>NAN</DistanceMeters>
          </Trackpoint>
          <Trackpoint>
            <Time>2022-07-15T06:30:52.000Z</Time>
            <Position>
              <LatitudeDegrees>43.3932067640125751495361328125</LatitudeDegrees>
              <LongitudeDegrees>-4.3406491912901401519775390625</LongitudeDegrees>
            </Position>
            <AltitudeMeters>42</AltitudeMeters>
            <DistanceMeters>NAN</DistanceMeters>
          </Trackpoint>
          <Trackpoint>
            <Time>2022-07-15T06:30:55.000Z</Time>
            <Position>
              <LatitudeDegrees>43.3932267129421234130859375</LatitudeDegrees>
              <LongitudeDegrees>-4.34068615548312664031982421875</LongitudeDegrees>
            </Position>
            <AltitudeMeters>42.200000762939453125</AltitudeMeters>
            <DistanceMeters>NAN</DistanceMeters>
          </Trackpoint>
          <Trackpoint>
            <Time>2022-07-15T06:30:57.000Z</Time>
            <Position>
              <LatitudeDegrees>43.39323408901691436767578125</LatitudeDegrees>
              <LongitudeDegrees>-4.340715743601322174072265625</LongitudeDegrees>
            </Position>
            <AltitudeMeters>42.200000762939453125</AltitudeMeters>
            <DistanceMeters>NAN</DistanceMeters>
          </Trackpoint>
          <Trackpoint>
            <Time>2022-07-15T06:31:01.000Z</Time>
            <Position>
              <LatitudeDegrees>43.39325546287000179290771484375</LatitudeDegrees>
              <LongitudeDegrees>-4.3407786078751087188720703125</LongitudeDegrees>
            </Position>
            <AltitudeMeters>42.59999847412109375</AltitudeMeters>
            <DistanceMeters>NAN</DistanceMeters>
          </Trackpoint>
          <Trackpoint>
            <Time>2022-07-15T06:31:04.000Z</Time>
            <Position>
              <LatitudeDegrees>43.39327507652342319488525390625</LatitudeDegrees>
              <LongitudeDegrees>-4.34082076884806156158447265625</LongitudeDegrees>
            </Position>
            <AltitudeMeters>42.799999237060546875</AltitudeMeters>
            <DistanceMeters>NAN</DistanceMeters>
          </Trackpoint>
          <Trackpoint>
            <Time>2022-07-15T06:31:07.000Z</Time>
            <Position>
              <LatitudeDegrees>43.393294773995876312255859375</LatitudeDegrees>
              <LongitudeDegrees>-4.34086703695356845855712890625</LongitudeDegrees>
            </Position>
            <AltitudeMeters>42.799999237060546875</AltitudeMeters>
            <DistanceMeters>NAN</DistanceMeters>
          </Trackpoint>
          <Trackpoint>
            <Time>2022-07-15T06:31:10.000Z</Time>
            <Position>
              <LatitudeDegrees>43.39332134462893009185791015625</LatitudeDegrees>
              <LongitudeDegrees>-4.340913556516170501708984375</LongitudeDegrees>
            </Position>
            <AltitudeMeters>43.200000762939453125</AltitudeMeters>
            <DistanceMeters>NAN</DistanceMeters>
          </Trackpoint>
          <Trackpoint>
            <Time>2022-07-15T06:31:15.000Z</Time>
            <Position>
              <LatitudeDegrees>43.39335705153644084930419921875</LatitudeDegrees>
              <LongitudeDegrees>-4.34099645353853702545166015625</LongitudeDegrees>
            </Position>
            <AltitudeMeters>43.40000152587890625</AltitudeMeters>
            <DistanceMeters>NAN</DistanceMeters>
          </Trackpoint>
          <Trackpoint>
            <Time>2022-07-15T06:31:17.000Z</Time>
            <Position>
              <LatitudeDegrees>43.393369875848293304443359375</LatitudeDegrees>
              <LongitudeDegrees>-4.3410300649702548980712890625</LongitudeDegrees>
            </Position>
            <AltitudeMeters>43.59999847412109375</AltitudeMeters>
            <DistanceMeters>NAN</DistanceMeters>
          </Trackpoint>
          <Trackpoint>
            <Time>2022-07-15T06:31:20.000Z</Time>
            <Position>
              <LatitudeDegrees>43.39338404126465320587158203125</LatitudeDegrees>
              <LongitudeDegrees>-4.34107926674187183380126953125</LongitudeDegrees>
            </Position>
            <AltitudeMeters>43.59999847412109375</AltitudeMeters>
            <DistanceMeters>NAN</DistanceMeters>
          </Trackpoint>
          <Trackpoint>
            <Time>2022-07-15T06:31:26.000Z</Time>
            <Position>
              <LatitudeDegrees>43.39343097992241382598876953125</LatitudeDegrees>
              <LongitudeDegrees>-4.3411618284881114959716796875</LongitudeDegrees>
            </Position>
            <AltitudeMeters>44</AltitudeMeters>
            <DistanceMeters>NAN</DistanceMeters>
          </Trackpoint>
          <Trackpoint>
            <Time>2022-07-15T06:31:29.000Z</Time>
            <Position>
              <LatitudeDegrees>43.3934592269361019134521484375</LatitudeDegrees>
              <LongitudeDegrees>-4.3412030674517154693603515625</LongitudeDegrees>
            </Position>
            <AltitudeMeters>44.200000762939453125</AltitudeMeters>
            <DistanceMeters>NAN</DistanceMeters>
          </Trackpoint>
          <Trackpoint>
            <Time>2022-07-15T06:31:34.000Z</Time>
            <Position>
              <LatitudeDegrees>43.393491245806217193603515625</LatitudeDegrees>
              <LongitudeDegrees>-4.34129032306373119354248046875</LongitudeDegrees>
            </Position>
            <AltitudeMeters>44.59999847412109375</AltitudeMeters>
            <DistanceMeters>NAN</DistanceMeters>
          </Trackpoint>
          <Trackpoint>
            <Time>2022-07-15T06:31:38.000Z</Time>
            <Position>
              <LatitudeDegrees>43.39352536015212535858154296875</LatitudeDegrees>
              <LongitudeDegrees>-4.34134212322533130645751953125</LongitudeDegrees>
            </Position>
            <AltitudeMeters>44.799999237060546875</AltitudeMeters>
            <DistanceMeters>NAN</DistanceMeters>
          </Trackpoint>
          <Trackpoint>
            <Time>2022-07-15T06:31:41.000Z</Time>
            <Position>
              <LatitudeDegrees>43.39354748837649822235107421875</LatitudeDegrees>
              <LongitudeDegrees>-4.34138990007340908050537109375</LongitudeDegrees>
            </Position>
            <AltitudeMeters>44.799999237060546875</AltitudeMeters>
            <DistanceMeters>NAN</DistanceMeters>
          </Trackpoint>
          <Trackpoint>
            <Time>2022-07-15T06:31:47.000Z</Time>
            <Position>
              <LatitudeDegrees>43.39361253194510936737060546875</LatitudeDegrees>
              <LongitudeDegrees>-4.341469444334506988525390625</LongitudeDegrees>
            </Position>
            <AltitudeMeters>45.200000762939453125</AltitudeMeters>
            <DistanceMeters>NAN</DistanceMeters>
          </Trackpoint>
          <Trackpoint>
            <Time>2022-07-15T06:31:48.000Z</Time>
            <Position>
              <LatitudeDegrees>43.39361823163926601409912109375</LatitudeDegrees>
              <LongitudeDegrees>-4.34148260392248630523681640625</LongitudeDegrees>
            </Position>
            <AltitudeMeters>45.40000152587890625</AltitudeMeters>
            <DistanceMeters>NAN</DistanceMeters>
          </Trackpoint>
          <Trackpoint>
            <Time>2022-07-15T06:31:57.000Z</Time>
            <Position>
              <LatitudeDegrees>43.39370372705161571502685546875</LatitudeDegrees>
              <LongitudeDegrees>-4.341577403247356414794921875</LongitudeDegrees>
            </Position>
            <AltitudeMeters>46.200000762939453125</AltitudeMeters>
            <DistanceMeters>NAN</DistanceMeters>
          </Trackpoint>
          <Trackpoint>
            <Time>2022-07-15T06:31:58.000Z</Time>
            <Position>
              <LatitudeDegrees>43.39371328242123126983642578125</LatitudeDegrees>
              <LongitudeDegrees>-4.34159047901630401611328125</LongitudeDegrees>
            </Position>
            <AltitudeMeters>46.200000762939453125</AltitudeMeters>
            <DistanceMeters>NAN</DistanceMeters>
          </Trackpoint>
          <Trackpoint>
            <Time>2022-07-15T06:31:59.000Z</Time>
            <Position>
              <LatitudeDegrees>43.3937274478375911712646484375</LatitudeDegrees>
              <LongitudeDegrees>-4.34160447679460048675537109375</LongitudeDegrees>
            </Position>
            <AltitudeMeters>46.40000152587890625</AltitudeMeters>
            <DistanceMeters>NAN</DistanceMeters>
          </Trackpoint>
          <Trackpoint>
            <Time>2022-07-15T06:32:01.000Z</Time>
            <Position>
              <LatitudeDegrees>43.3937542699277400970458984375</LatitudeDegrees>
              <LongitudeDegrees>-4.34161202050745487213134765625</LongitudeDegrees>
            </Position>
            <AltitudeMeters>46.59999847412109375</AltitudeMeters>
            <DistanceMeters>NAN</DistanceMeters>
          </Trackpoint>
          <Trackpoint>
            <Time>2022-07-15T06:32:03.000Z</Time>
            <Position>
              <LatitudeDegrees>43.393776230514049530029296875</LatitudeDegrees>
              <LongitudeDegrees>-4.34163733385503292083740234375</LongitudeDegrees>
            </Position>
            <AltitudeMeters>46.799999237060546875</AltitudeMeters>
            <DistanceMeters>NAN</DistanceMeters>
          </Trackpoint>
          <Trackpoint>
            <Time>2022-07-15T06:32:08.000Z</Time>
            <Position>
              <LatitudeDegrees>43.39383197017014026641845703125</LatitudeDegrees>
              <LongitudeDegrees>-4.34167203493416309356689453125</LongitudeDegrees>
            </Position>
            <AltitudeMeters>47.40000152587890625</AltitudeMeters>
            <DistanceMeters>NAN</DistanceMeters>
          </Trackpoint>
          <Trackpoint>
            <Time>2022-07-15T06:32:09.000Z</Time>
            <Position>
              <LatitudeDegrees>43.393844626843929290771484375</LatitudeDegrees>
              <LongitudeDegrees>-4.3416805006563663482666015625</LongitudeDegrees>
            </Position>
            <AltitudeMeters>47.40000152587890625</AltitudeMeters>
            <DistanceMeters>NAN</DistanceMeters>
          </Trackpoint>
          <Trackpoint>
            <Time>2022-07-15T06:32:15.000Z</Time>
            <Position>
              <LatitudeDegrees>43.3938967622816562652587890625</LatitudeDegrees>
              <LongitudeDegrees>-4.341721571981906890869140625</LongitudeDegrees>
            </Position>
            <AltitudeMeters>48</AltitudeMeters>
            <DistanceMeters>NAN</DistanceMeters>
          </Trackpoint>
          <Trackpoint>
            <Time>2022-07-15T06:32:19.000Z</Time>
            <Position>
              <LatitudeDegrees>43.39394378475844860076904296875</LatitudeDegrees>
              <LongitudeDegrees>-4.34172458946704864501953125</LongitudeDegrees>
            </Position>
            <AltitudeMeters>48.40000152587890625</AltitudeMeters>
            <DistanceMeters>NAN</DistanceMeters>
          </Trackpoint>
          <Trackpoint>
            <Time>2022-07-15T06:32:23.000Z</Time>
            <Position>
              <LatitudeDegrees>43.3939960040152072906494140625</LatitudeDegrees>
              <LongitudeDegrees>-4.341742359101772308349609375</LongitudeDegrees>
            </Position>
            <AltitudeMeters>48.799999237060546875</AltitudeMeters>
            <DistanceMeters>NAN</DistanceMeters>
          </Trackpoint>
          <Trackpoint>
            <Time>2022-07-15T06:32:26.000Z</Time>
            <Position>
              <LatitudeDegrees>43.39402760379016399383544921875</LatitudeDegrees>
              <LongitudeDegrees>-4.34173976071178913116455078125</LongitudeDegrees>
            </Position>
            <AltitudeMeters>49.200000762939453125</AltitudeMeters>
            <DistanceMeters>NAN</DistanceMeters>
          </Trackpoint>
          <Trackpoint>
            <Time>2022-07-15T06:32:27.000Z</Time>
            <Position>
              <LatitudeDegrees>43.39403866790235042572021484375</LatitudeDegrees>
              <LongitudeDegrees>-4.34174194000661373138427734375</LongitudeDegrees>
            </Position>
            <AltitudeMeters>49.40000152587890625</AltitudeMeters>
            <DistanceMeters>NAN</DistanceMeters>
          </Trackpoint>
          <Trackpoint>
            <Time>2022-07-15T06:32:28.000Z</Time>
            <Position>
              <LatitudeDegrees>43.3940493129193782806396484375</LatitudeDegrees>
              <LongitudeDegrees>-4.34174202382564544677734375</LongitudeDegrees>
            </Position>
            <AltitudeMeters>49.59999847412109375</AltitudeMeters>
            <DistanceMeters>NAN</DistanceMeters>
          </Trackpoint>
          <Trackpoint>
            <Time>2022-07-15T06:32:29.000Z</Time>
            <Position>
              <LatitudeDegrees>43.394063897430896759033203125</LatitudeDegrees>
              <LongitudeDegrees>-4.34174043126404285430908203125</LongitudeDegrees>
            </Position>
            <AltitudeMeters>49.59999847412109375</AltitudeMeters>
            <DistanceMeters>NAN</DistanceMeters>
          </Trackpoint>
          <Trackpoint>
            <Time>2022-07-15T06:32:31.000Z</Time>
            <Position>
              <LatitudeDegrees>43.3940912224352359771728515625</LatitudeDegrees>
              <LongitudeDegrees>-4.3417368270456790924072265625</LongitudeDegrees>
            </Position>
            <AltitudeMeters>49.799999237060546875</AltitudeMeters>
            <DistanceMeters>NAN</DistanceMeters>
          </Trackpoint>
          <Trackpoint>
            <Time>2022-07-15T06:32:35.000Z</Time>
            <Position>
              <LatitudeDegrees>43.394132964313030242919921875</LatitudeDegrees>
              <LongitudeDegrees>-4.3417448736727237701416015625</LongitudeDegrees>
            </Position>
            <AltitudeMeters>50.200000762939453125</AltitudeMeters>
            <DistanceMeters>NAN</DistanceMeters>
          </Trackpoint>
          <Trackpoint>
            <Time>2022-07-15T06:32:38.000Z</Time>
            <Position>
              <LatitudeDegrees>43.39416037313640117645263671875</LatitudeDegrees>
              <LongitudeDegrees>-4.34174948371946811676025390625</LongitudeDegrees>
            </Position>
            <AltitudeMeters>50.59999847412109375</AltitudeMeters>
            <DistanceMeters>NAN</DistanceMeters>
          </Trackpoint>
          <Trackpoint>
            <Time>2022-07-15T06:32:40.000Z</Time>
            <Position>
              <LatitudeDegrees>43.39417998678982257843017578125</LatitudeDegrees>
              <LongitudeDegrees>-4.3417532555758953094482421875</LongitudeDegrees>
            </Position>
            <AltitudeMeters>50.59999847412109375</AltitudeMeters>
            <DistanceMeters>NAN</DistanceMeters>
          </Trackpoint>
          <Trackpoint>
            <Time>2022-07-15T06:32:45.000Z</Time>
            <Position>
              <LatitudeDegrees>43.3942347206175327301025390625</LatitudeDegrees>
              <LongitudeDegrees>-4.34176490642130374908447265625</LongitudeDegrees>
            </Position>
            <AltitudeMeters>51.200000762939453125</AltitudeMeters>
            <DistanceMeters>NAN</DistanceMeters>
          </Trackpoint>
          <Trackpoint>
            <Time>2022-07-15T06:32:47.000Z</Time>
            <Position>
              <LatitudeDegrees>43.39425475336611270904541015625</LatitudeDegrees>
              <LongitudeDegrees>-4.34176825918257236480712890625</LongitudeDegrees>
            </Position>
            <AltitudeMeters>51.59999847412109375</AltitudeMeters>
            <DistanceMeters>NAN</DistanceMeters>
          </Trackpoint>
          <Trackpoint>
            <Time>2022-07-15T06:32:48.000Z</Time>
            <Position>
              <LatitudeDegrees>43.3942669071257114410400390625</LatitudeDegrees>
              <LongitudeDegrees>-4.34177027083933353424072265625</LongitudeDegrees>
            </Position>
            <AltitudeMeters>51.59999847412109375</AltitudeMeters>
            <DistanceMeters>NAN</DistanceMeters>
          </Trackpoint>
          <Trackpoint>
            <Time>2022-07-15T06:32:53.000Z</Time>
            <Position>
              <LatitudeDegrees>43.39429532177746295928955078125</LatitudeDegrees>
              <LongitudeDegrees>-4.34177177958190441131591796875</LongitudeDegrees>
            </Position>
            <AltitudeMeters>52.40000152587890625</AltitudeMeters>
            <DistanceMeters>NAN</DistanceMeters>
          </Trackpoint>
          <Trackpoint>
            <Time>2022-07-15T06:33:34.000Z</Time>
            <Position>
              <LatitudeDegrees>43.394316695630550384521484375</LatitudeDegrees>
              <LongitudeDegrees>-4.34177513234317302703857421875</LongitudeDegrees>
            </Position>
            <AltitudeMeters>52.40000152587890625</AltitudeMeters>
            <DistanceMeters>NAN</DistanceMeters>
          </Trackpoint>
          <Trackpoint>
            <Time>2022-07-15T06:33:35.000Z</Time>
            <Position>
              <LatitudeDegrees>43.3943322859704494476318359375</LatitudeDegrees>
              <LongitudeDegrees>-4.34177546761929988861083984375</LongitudeDegrees>
            </Position>
            <AltitudeMeters>52.59999847412109375</AltitudeMeters>
            <DistanceMeters>NAN</DistanceMeters>
          </Trackpoint>
          <Trackpoint>
            <Time>2022-07-15T06:33:40.000Z</Time>
            <Position>
              <LatitudeDegrees>43.3944080583751201629638671875</LatitudeDegrees>
              <LongitudeDegrees>-4.34179298579692840576171875</LongitudeDegrees>
            </Position>
            <AltitudeMeters>53</AltitudeMeters>
            <DistanceMeters>NAN</DistanceMeters>
          </Trackpoint>
          <Trackpoint>
            <Time>2022-07-15T06:33:42.000Z</Time>
            <Position>
              <LatitudeDegrees>43.39444401673972606658935546875</LatitudeDegrees>
              <LongitudeDegrees>-4.34181251563131809234619140625</LongitudeDegrees>
            </Position>
            <AltitudeMeters>53.200000762939453125</AltitudeMeters>
            <DistanceMeters>NAN</DistanceMeters>
          </Trackpoint>
          <Trackpoint>
            <Time>2022-07-15T06:33:48.000Z</Time>
            <Position>
              <LatitudeDegrees>43.394519202411174774169921875</LatitudeDegrees>
              <LongitudeDegrees>-4.34184470213949680328369140625</LongitudeDegrees>
            </Position>
            <AltitudeMeters>53.59999847412109375</AltitudeMeters>
            <DistanceMeters>NAN</DistanceMeters>
          </Trackpoint>
          <Trackpoint>
            <Time>2022-07-15T06:33:51.000Z</Time>
            <Position>
              <LatitudeDegrees>43.3945555798709392547607421875</LatitudeDegrees>
              <LongitudeDegrees>-4.34187621809542179107666015625</LongitudeDegrees>
            </Position>
            <AltitudeMeters>53.799999237060546875</AltitudeMeters>
            <DistanceMeters>NAN</DistanceMeters>
          </Trackpoint>
          <Trackpoint>
            <Time>2022-07-15T06:34:00.000Z</Time>
            <Position>
              <LatitudeDegrees>43.39465255849063396453857421875</LatitudeDegrees>
              <LongitudeDegrees>-4.3419825844466686248779296875</LongitudeDegrees>
            </Position>
            <AltitudeMeters>54.40000152587890625</AltitudeMeters>
            <DistanceMeters>NAN</DistanceMeters>
          </Trackpoint>
          <Trackpoint>
            <Time>2022-07-15T06:34:03.000Z</Time>
            <Position>
              <LatitudeDegrees>43.39467988349497318267822265625</LatitudeDegrees>
              <LongitudeDegrees>-4.34201854281127452850341796875</LongitudeDegrees>
            </Position>
            <AltitudeMeters>54.59999847412109375</AltitudeMeters>
            <DistanceMeters>NAN</DistanceMeters>
          </Trackpoint>
          <Trackpoint>
            <Time>2022-07-15T06:34:04.000Z</Time>
            <Position>
              <LatitudeDegrees>43.394687175750732421875</LatitudeDegrees>
              <LongitudeDegrees>-4.342032708227634429931640625</LongitudeDegrees>
            </Position>
            <AltitudeMeters>54.799999237060546875</AltitudeMeters>
            <DistanceMeters>NAN</DistanceMeters>
          </Trackpoint>
          <Trackpoint>
            <Time>2022-07-15T06:34:08.000Z</Time>
            <Position>
              <LatitudeDegrees>43.39472698979079723358154296875</LatitudeDegrees>
              <LongitudeDegrees>-4.34210068546235561370849609375</LongitudeDegrees>
            </Position>
            <AltitudeMeters>55</AltitudeMeters>
            <DistanceMeters>NAN</DistanceMeters>
          </Trackpoint>
          <Trackpoint>
            <Time>2022-07-15T06:34:13.000Z</Time>
            <Position>
              <LatitudeDegrees>43.3947661332786083221435546875</LatitudeDegrees>
              <LongitudeDegrees>-4.34215835295617580413818359375</LongitudeDegrees>
            </Position>
            <AltitudeMeters>55.40000152587890625</AltitudeMeters>
            <DistanceMeters>NAN</DistanceMeters>
          </Trackpoint>
          <Trackpoint>
            <Time>2022-07-15T06:34:15.000Z</Time>
            <Position>
              <LatitudeDegrees>43.39476856403052806854248046875</LatitudeDegrees>
              <LongitudeDegrees>-4.342198334634304046630859375</LongitudeDegrees>
            </Position>
            <AltitudeMeters>55.799999237060546875</AltitudeMeters>
            <DistanceMeters>NAN</DistanceMeters>
          </Trackpoint>
          <Trackpoint>
            <Time>2022-07-15T06:34:22.000Z</Time>
            <Position>
              <LatitudeDegrees>43.3947996608912944793701171875</LatitudeDegrees>
              <LongitudeDegrees>-4.3423051200807094573974609375</LongitudeDegrees>
            </Position>
            <AltitudeMeters>56.40000152587890625</AltitudeMeters>
            <DistanceMeters>NAN</DistanceMeters>
          </Trackpoint>
          <Trackpoint>
            <Time>2022-07-15T06:34:24.000Z</Time>
            <Position>
              <LatitudeDegrees>43.39480879716575145721435546875</LatitudeDegrees>
              <LongitudeDegrees>-4.3423383124172687530517578125</LongitudeDegrees>
            </Position>
            <AltitudeMeters>56.59999847412109375</AltitudeMeters>
            <DistanceMeters>NAN</DistanceMeters>
          </Trackpoint>
          <Trackpoint>
            <Time>2022-07-15T06:34:26.000Z</Time>
            <Position>
              <LatitudeDegrees>43.3948164246976375579833984375</LatitudeDegrees>
              <LongitudeDegrees>-4.34236622415482997894287109375</LongitudeDegrees>
            </Position>
            <AltitudeMeters>56.799999237060546875</AltitudeMeters>
            <DistanceMeters>NAN</DistanceMeters>
          </Trackpoint>
          <Trackpoint>
            <Time>2022-07-15T06:34:33.000Z</Time>
            <Position>
              <LatitudeDegrees>43.3948415704071521759033203125</LatitudeDegrees>
              <LongitudeDegrees>-4.34247954748570919036865234375</LongitudeDegrees>
            </Position>
            <AltitudeMeters>57.200000762939453125</AltitudeMeters>
            <DistanceMeters>NAN</DistanceMeters>
          </Trackpoint>
          <Trackpoint>
            <Time>2022-07-15T06:34:40.000Z</Time>
            <Position>
              <LatitudeDegrees>43.39485087431967258453369140625</LatitudeDegrees>
              <LongitudeDegrees>-4.342592619359493255615234375</LongitudeDegrees>
            </Position>
            <AltitudeMeters>57.799999237060546875</AltitudeMeters>
            <DistanceMeters>NAN</DistanceMeters>
          </Trackpoint>
          <Trackpoint>
            <Time>2022-07-15T06:34:42.000Z</Time>
            <Position>
              <LatitudeDegrees>43.39485322125256061553955078125</LatitudeDegrees>
              <LongitudeDegrees>-4.3426269851624965667724609375</LongitudeDegrees>
            </Position>
            <AltitudeMeters>58</AltitudeMeters>
            <DistanceMeters>NAN</DistanceMeters>
          </Trackpoint>
          <Trackpoint>
            <Time>2022-07-15T06:34:49.000Z</Time>
            <Position>
              <LatitudeDegrees>43.39486260898411273956298828125</LatitudeDegrees>
              <LongitudeDegrees>-4.34273955412209033966064453125</LongitudeDegrees>
            </Position>
            <AltitudeMeters>58.200000762939453125</AltitudeMeters>
            <DistanceMeters>NAN</DistanceMeters>
          </Trackpoint>
          <Trackpoint>
            <Time>2022-07-15T06:34:52.000Z</Time>
            <Position>
              <LatitudeDegrees>43.39486210606992244720458984375</LatitudeDegrees>
              <LongitudeDegrees>-4.3427919410169124603271484375</LongitudeDegrees>
            </Position>
            <AltitudeMeters>58.59999847412109375</AltitudeMeters>
            <DistanceMeters>NAN</DistanceMeters>
          </Trackpoint>
          <Trackpoint>
            <Time>2022-07-15T06:34:53.000Z</Time>
            <Position>
              <LatitudeDegrees>43.39486143551766872406005859375</LatitudeDegrees>
              <LongitudeDegrees>-4.3428100459277629852294921875</LongitudeDegrees>
            </Position>
            <AltitudeMeters>58.59999847412109375</AltitudeMeters>
            <DistanceMeters>NAN</DistanceMeters>
          </Trackpoint>
          <Trackpoint>
            <Time>2022-07-15T06:34:54.000Z</Time>
            <Position>
              <LatitudeDegrees>43.394860513508319854736328125</LatitudeDegrees>
              <LongitudeDegrees>-4.34282588772475719451904296875</LongitudeDegrees>
            </Position>
            <AltitudeMeters>58.799999237060546875</AltitudeMeters>
            <DistanceMeters>NAN</DistanceMeters>
          </Trackpoint>
          <Trackpoint>
            <Time>2022-07-15T06:35:02.000Z</Time>
            <Position>
              <LatitudeDegrees>43.394850455224514007568359375</LatitudeDegrees>
              <LongitudeDegrees>-4.34296821244060993194580078125</LongitudeDegrees>
            </Position>
            <AltitudeMeters>59.59999847412109375</AltitudeMeters>
            <DistanceMeters>NAN</DistanceMeters>
          </Trackpoint>
          <Trackpoint>
            <Time>2022-07-15T06:35:06.000Z</Time>
            <Position>
              <LatitudeDegrees>43.39484785683453083038330078125</LatitudeDegrees>
              <LongitudeDegrees>-4.34303644113242626190185546875</LongitudeDegrees>
            </Position>
            <AltitudeMeters>60</AltitudeMeters>
            <DistanceMeters>NAN</DistanceMeters>
          </Trackpoint>
          <Trackpoint>
            <Time>2022-07-15T06:35:11.000Z</Time>
            <Position>
              <LatitudeDegrees>43.39484366588294506072998046875</LatitudeDegrees>
              <LongitudeDegrees>-4.34312562458217144012451171875</LongitudeDegrees>
            </Position>
            <AltitudeMeters>60.40000152587890625</AltitudeMeters>
            <DistanceMeters>NAN</DistanceMeters>
          </Trackpoint>
          <Trackpoint>
            <Time>2022-07-15T06:35:16.000Z</Time>
            <Position>
              <LatitudeDegrees>43.3948479406535625457763671875</LatitudeDegrees>
              <LongitudeDegrees>-4.34321061708033084869384765625</LongitudeDegrees>
            </Position>
            <AltitudeMeters>61</AltitudeMeters>
            <DistanceMeters>NAN</DistanceMeters>
          </Trackpoint>
          <Trackpoint>
            <Time>2022-07-15T06:35:22.000Z</Time>
            <Position>
              <LatitudeDegrees>43.3948414027690887451171875</LatitudeDegrees>
              <LongitudeDegrees>-4.343303740024566650390625</LongitudeDegrees>
            </Position>
            <AltitudeMeters>61.40000152587890625</AltitudeMeters>
            <DistanceMeters>NAN</DistanceMeters>
          </Trackpoint>
          <Trackpoint>
            <Time>2022-07-15T06:35:23.000Z</Time>
            <Position>
              <LatitudeDegrees>43.39484031312167644500732421875</LatitudeDegrees>
              <LongitudeDegrees>-4.3433193303644657135009765625</LongitudeDegrees>
            </Position>
            <AltitudeMeters>61.59999847412109375</AltitudeMeters>
            <DistanceMeters>NAN</DistanceMeters>
          </Trackpoint>
          <Trackpoint>
            <Time>2022-07-15T06:35:24.000Z</Time>
            <Position>
              <LatitudeDegrees>43.39484048075973987579345703125</LatitudeDegrees>
              <LongitudeDegrees>-4.34333517216145992279052734375</LongitudeDegrees>
            </Position>
            <AltitudeMeters>61.59999847412109375</AltitudeMeters>
            <DistanceMeters>NAN</DistanceMeters>
          </Trackpoint>
          <Trackpoint>
            <Time>2022-07-15T06:35:29.000Z</Time>
            <Position>
              <LatitudeDegrees>43.39484115131199359893798828125</LatitudeDegrees>
              <LongitudeDegrees>-4.34341681189835071563720703125</LongitudeDegrees>
            </Position>
            <AltitudeMeters>62</AltitudeMeters>
            <DistanceMeters>NAN</DistanceMeters>
          </Trackpoint>
          <Trackpoint>
            <Time>2022-07-15T06:35:35.000Z</Time>
            <Position>
              <LatitudeDegrees>43.3948311768472194671630859375</LatitudeDegrees>
              <LongitudeDegrees>-4.3435134552419185638427734375</LongitudeDegrees>
            </Position>
            <AltitudeMeters>62.799999237060546875</AltitudeMeters>
            <DistanceMeters>NAN</DistanceMeters>
          </Trackpoint>
          <Trackpoint>
            <Time>2022-07-15T06:35:38.000Z</Time>
            <Position>
              <LatitudeDegrees>43.39483109302818775177001953125</LatitudeDegrees>
              <LongitudeDegrees>-4.34356651268899440765380859375</LongitudeDegrees>
            </Position>
            <AltitudeMeters>63</AltitudeMeters>
            <DistanceMeters>NAN</DistanceMeters>
          </Trackpoint>
          <Trackpoint>
            <Time>2022-07-15T06:35:42.000Z</Time>
            <Position>
              <LatitudeDegrees>43.3948311768472194671630859375</LatitudeDegrees>
              <LongitudeDegrees>-4.34358411468565464019775390625</LongitudeDegrees>
            </Position>
            <AltitudeMeters>63.40000152587890625</AltitudeMeters>
            <DistanceMeters>NAN</DistanceMeters>
          </Trackpoint>
          <Trackpoint>
            <Time>2022-07-15T06:37:14.000Z</Time>
            <Position>
              <LatitudeDegrees>43.3948274888098239898681640625</LatitudeDegrees>
              <LongitudeDegrees>-4.3436314724385738372802734375</LongitudeDegrees>
            </Position>
            <AltitudeMeters>63.799999237060546875</AltitudeMeters>
            <DistanceMeters>NAN</DistanceMeters>
          </Trackpoint>
          <Trackpoint>
            <Time>2022-07-15T06:37:15.000Z</Time>
            <Position>
              <LatitudeDegrees>43.3948221243917942047119140625</LatitudeDegrees>
              <LongitudeDegrees>-4.34365066699683666229248046875</LongitudeDegrees>
            </Position>
            <AltitudeMeters>63.799999237060546875</AltitudeMeters>
            <DistanceMeters>NAN</DistanceMeters>
          </Trackpoint>
          <Trackpoint>
            <Time>2022-07-15T06:37:17.000Z</Time>
            <Position>
              <LatitudeDegrees>43.39481231756508350372314453125</LatitudeDegrees>
              <LongitudeDegrees>-4.34368285350501537322998046875</LongitudeDegrees>
            </Position>
            <AltitudeMeters>64.1999969482421875</AltitudeMeters>
            <DistanceMeters>NAN</DistanceMeters>
          </Trackpoint>
          <Trackpoint>
            <Time>2022-07-15T06:37:22.000Z</Time>
            <Position>
              <LatitudeDegrees>43.39480846188962459564208984375</LatitudeDegrees>
              <LongitudeDegrees>-4.3437776528298854827880859375</LongitudeDegrees>
            </Position>
            <AltitudeMeters>65.1999969482421875</AltitudeMeters>
            <DistanceMeters>NAN</DistanceMeters>
          </Trackpoint>
          <Trackpoint>
            <Time>2022-07-15T06:37:24.000Z</Time>
            <Position>
              <LatitudeDegrees>43.39480779133737087249755859375</LatitudeDegrees>
              <LongitudeDegrees>-4.34381478466093540191650390625</LongitudeDegrees>
            </Position>
            <AltitudeMeters>65.40000152587890625</AltitudeMeters>
            <DistanceMeters>NAN</DistanceMeters>
          </Trackpoint>
          <Trackpoint>
            <Time>2022-07-15T06:37:27.000Z</Time>
            <Position>
              <LatitudeDegrees>43.394814245402812957763671875</LatitudeDegrees>
              <LongitudeDegrees>-4.34386524371802806854248046875</LongitudeDegrees>
            </Position>
            <AltitudeMeters>65.8000030517578125</AltitudeMeters>
            <DistanceMeters>NAN</DistanceMeters>
          </Trackpoint>
          <Trackpoint>
            <Time>2022-07-15T06:37:29.000Z</Time>
            <Position>
              <LatitudeDegrees>43.39481525123119354248046875</LatitudeDegrees>
              <LongitudeDegrees>-4.343897514045238494873046875</LongitudeDegrees>
            </Position>
            <AltitudeMeters>66</AltitudeMeters>
            <DistanceMeters>NAN</DistanceMeters>
          </Trackpoint>
          <Trackpoint>
            <Time>2022-07-15T06:37:31.000Z</Time>
            <Position>
              <LatitudeDegrees>43.394812904298305511474609375</LatitudeDegrees>
              <LongitudeDegrees>-4.34393146075308322906494140625</LongitudeDegrees>
            </Position>
            <AltitudeMeters>66.1999969482421875</AltitudeMeters>
            <DistanceMeters>NAN</DistanceMeters>
          </Trackpoint>
          <Trackpoint>
            <Time>2022-07-15T06:37:33.000Z</Time>
            <Position>
              <LatitudeDegrees>43.39480896480381488800048828125</LatitudeDegrees>
              <LongitudeDegrees>-4.34396415017545223236083984375</LongitudeDegrees>
            </Position>
            <AltitudeMeters>66.40000152587890625</AltitudeMeters>
            <DistanceMeters>NAN</DistanceMeters>
          </Trackpoint>
          <Trackpoint>
            <Time>2022-07-15T06:37:38.000Z</Time>
            <Position>
              <LatitudeDegrees>43.3948060311377048492431640625</LatitudeDegrees>
              <LongitudeDegrees>-4.34405953623354434967041015625</LongitudeDegrees>
            </Position>
            <AltitudeMeters>67</AltitudeMeters>
            <DistanceMeters>NAN</DistanceMeters>
          </Trackpoint>
          <Trackpoint>
            <Time>2022-07-15T06:37:41.000Z</Time>
            <Position>
              <LatitudeDegrees>43.39480184018611907958984375</LatitudeDegrees>
              <LongitudeDegrees>-4.3441192992031574249267578125</LongitudeDegrees>
            </Position>
            <AltitudeMeters>67.40000152587890625</AltitudeMeters>
            <DistanceMeters>NAN</DistanceMeters>
          </Trackpoint>
          <Trackpoint>
            <Time>2022-07-15T06:37:45.000Z</Time>
            <Position>
              <LatitudeDegrees>43.39479890652000904083251953125</LatitudeDegrees>
              <LongitudeDegrees>-4.3441927246749401092529296875</LongitudeDegrees>
            </Position>
            <AltitudeMeters>68</AltitudeMeters>
            <DistanceMeters>NAN</DistanceMeters>
          </Trackpoint>
          <Trackpoint>
            <Time>2022-07-15T06:37:47.000Z</Time>
            <Position>
              <LatitudeDegrees>43.394796811044216156005859375</LatitudeDegrees>
              <LongitudeDegrees>-4.34423052705824375152587890625</LongitudeDegrees>
            </Position>
            <AltitudeMeters>68.1999969482421875</AltitudeMeters>
            <DistanceMeters>NAN</DistanceMeters>
          </Trackpoint>
          <Trackpoint>
            <Time>2022-07-15T06:37:50.000Z</Time>
            <Position>
              <LatitudeDegrees>43.39479220099747180938720703125</LatitudeDegrees>
              <LongitudeDegrees>-4.34428232721984386444091796875</LongitudeDegrees>
            </Position>
            <AltitudeMeters>68.59999847412109375</AltitudeMeters>
            <DistanceMeters>NAN</DistanceMeters>
          </Trackpoint>
          <Trackpoint>
            <Time>2022-07-15T06:37:57.000Z</Time>
            <Position>
              <LatitudeDegrees>43.3947986550629138946533203125</LatitudeDegrees>
              <LongitudeDegrees>-4.344408810138702392578125</LongitudeDegrees>
            </Position>
            <AltitudeMeters>69.40000152587890625</AltitudeMeters>
            <DistanceMeters>NAN</DistanceMeters>
          </Trackpoint>
          <Trackpoint>
            <Time>2022-07-15T06:37:58.000Z</Time>
            <Position>
              <LatitudeDegrees>43.39479940943419933319091796875</LatitudeDegrees>
              <LongitudeDegrees>-4.34442582540214061737060546875</LongitudeDegrees>
            </Position>
            <AltitudeMeters>69.59999847412109375</AltitudeMeters>
            <DistanceMeters>NAN</DistanceMeters>
          </Trackpoint>
          <Trackpoint>
            <Time>2022-07-15T06:38:05.000Z</Time>
            <Position>
              <LatitudeDegrees>43.39477677829563617706298828125</LatitudeDegrees>
              <LongitudeDegrees>-4.3445541523396968841552734375</LongitudeDegrees>
            </Position>
            <AltitudeMeters>70.1999969482421875</AltitudeMeters>
            <DistanceMeters>NAN</DistanceMeters>
          </Trackpoint>
          <Trackpoint>
            <Time>2022-07-15T06:38:06.000Z</Time>
            <Position>
              <LatitudeDegrees>43.39477778412401676177978515625</LatitudeDegrees>
              <LongitudeDegrees>-4.34457133524119853973388671875</LongitudeDegrees>
            </Position>
            <AltitudeMeters>70.1999969482421875</AltitudeMeters>
            <DistanceMeters>NAN</DistanceMeters>
          </Trackpoint>
          <Trackpoint>
            <Time>2022-07-15T06:38:08.000Z</Time>
            <Position>
              <LatitudeDegrees>43.3947770297527313232421875</LatitudeDegrees>
              <LongitudeDegrees>-4.34460083954036235809326171875</LongitudeDegrees>
            </Position>
            <AltitudeMeters>70.59999847412109375</AltitudeMeters>
            <DistanceMeters>NAN</DistanceMeters>
          </Trackpoint>
          <Trackpoint>
            <Time>2022-07-15T06:38:16.000Z</Time>
            <Position>
              <LatitudeDegrees>43.39477493427693843841552734375</LatitudeDegrees>
              <LongitudeDegrees>-4.34474199078977108001708984375</LongitudeDegrees>
            </Position>
            <AltitudeMeters>71.59999847412109375</AltitudeMeters>
            <DistanceMeters>NAN</DistanceMeters>
          </Trackpoint>
          <Trackpoint>
            <Time>2022-07-15T06:38:26.000Z</Time>
            <Position>
              <LatitudeDegrees>43.3947716653347015380859375</LatitudeDegrees>
              <LongitudeDegrees>-4.34492714703083038330078125</LongitudeDegrees>
            </Position>
            <AltitudeMeters>72.8000030517578125</AltitudeMeters>
            <DistanceMeters>NAN</DistanceMeters>
          </Trackpoint>
          <Trackpoint>
            <Time>2022-07-15T06:38:30.000Z</Time>
            <Position>
              <LatitudeDegrees>43.39476688764989376068115234375</LatitudeDegrees>
              <LongitudeDegrees>-4.34501172043383121490478515625</LongitudeDegrees>
            </Position>
            <AltitudeMeters>73</AltitudeMeters>
            <DistanceMeters>NAN</DistanceMeters>
          </Trackpoint>
          <Trackpoint>
            <Time>2022-07-15T06:38:38.000Z</Time>
            <Position>
              <LatitudeDegrees>43.3947567455470561981201171875</LatitudeDegrees>
              <LongitudeDegrees>-4.3451553024351596832275390625</LongitudeDegrees>
            </Position>
            <AltitudeMeters>73.8000030517578125</AltitudeMeters>
            <DistanceMeters>NAN</DistanceMeters>
          </Trackpoint>
          <Trackpoint>
            <Time>2022-07-15T06:38:39.000Z</Time>
            <Position>
              <LatitudeDegrees>43.39475498534739017486572265625</LatitudeDegrees>
              <LongitudeDegrees>-4.3451730720698833465576171875</LongitudeDegrees>
            </Position>
            <AltitudeMeters>73.8000030517578125</AltitudeMeters>
            <DistanceMeters>NAN</DistanceMeters>
          </Trackpoint>
          <Trackpoint>
            <Time>2022-07-15T06:38:50.000Z</Time>
            <Position>
              <LatitudeDegrees>43.39476571418344974517822265625</LatitudeDegrees>
              <LongitudeDegrees>-4.3453812785446643829345703125</LongitudeDegrees>
            </Position>
            <AltitudeMeters>74.8000030517578125</AltitudeMeters>
            <DistanceMeters>NAN</DistanceMeters>
          </Trackpoint>
          <Trackpoint>
            <Time>2022-07-15T06:38:51.000Z</Time>
            <Position>
              <LatitudeDegrees>43.39476554654538631439208984375</LatitudeDegrees>
              <LongitudeDegrees>-4.3454017303884029388427734375</LongitudeDegrees>
            </Position>
            <AltitudeMeters>75</AltitudeMeters>
            <DistanceMeters>NAN</DistanceMeters>
          </Trackpoint>
          <Trackpoint>
            <Time>2022-07-15T06:38:56.000Z</Time>
            <Position>
              <LatitudeDegrees>43.3947671391069889068603515625</LatitudeDegrees>
              <LongitudeDegrees>-4.345499463379383087158203125</LongitudeDegrees>
            </Position>
            <AltitudeMeters>75.40000152587890625</AltitudeMeters>
            <DistanceMeters>NAN</DistanceMeters>
          </Trackpoint>
          <Trackpoint>
            <Time>2022-07-15T06:39:03.000Z</Time>
            <Position>
              <LatitudeDegrees>43.394769988954067230224609375</LatitudeDegrees>
              <LongitudeDegrees>-4.34563231654465198516845703125</LongitudeDegrees>
            </Position>
            <AltitudeMeters>75.8000030517578125</AltitudeMeters>
            <DistanceMeters>NAN</DistanceMeters>
          </Trackpoint>
          <Trackpoint>
            <Time>2022-07-15T06:39:08.000Z</Time>
            <Position>
              <LatitudeDegrees>43.3947745151817798614501953125</LatitudeDegrees>
              <LongitudeDegrees>-4.34572468511760234832763671875</LongitudeDegrees>
            </Position>
            <AltitudeMeters>76</AltitudeMeters>
            <DistanceMeters>NAN</DistanceMeters>
          </Trackpoint>
          <Trackpoint>
            <Time>2022-07-15T06:39:15.000Z</Time>
            <Position>
              <LatitudeDegrees>43.39477962814271450042724609375</LatitudeDegrees>
              <LongitudeDegrees>-4.34585896320641040802001953125</LongitudeDegrees>
            </Position>
            <AltitudeMeters>76.59999847412109375</AltitudeMeters>
            <DistanceMeters>NAN</DistanceMeters>
          </Trackpoint>
          <Trackpoint>
            <Time>2022-07-15T06:39:23.000Z</Time>
            <Position>
              <LatitudeDegrees>43.3947912789881229400634765625</LatitudeDegrees>
              <LongitudeDegrees>-4.3460132740437984466552734375</LongitudeDegrees>
            </Position>
            <AltitudeMeters>77</AltitudeMeters>
            <DistanceMeters>NAN</DistanceMeters>
          </Trackpoint>
          <Trackpoint>
            <Time>2022-07-15T06:39:25.000Z</Time>
            <Position>
              <LatitudeDegrees>43.3947882615029811859130859375</LatitudeDegrees>
              <LongitudeDegrees>-4.3460508249700069427490234375</LongitudeDegrees>
            </Position>
            <AltitudeMeters>77</AltitudeMeters>
            <DistanceMeters>NAN</DistanceMeters>
          </Trackpoint>
          <Trackpoint>
            <Time>2022-07-15T06:39:27.000Z</Time>
            <Position>
              <LatitudeDegrees>43.39478909969329833984375</LatitudeDegrees>
              <LongitudeDegrees>-4.346086196601390838623046875</LongitudeDegrees>
            </Position>
            <AltitudeMeters>77.40000152587890625</AltitudeMeters>
            <DistanceMeters>NAN</DistanceMeters>
          </Trackpoint>
          <Trackpoint>
            <Time>2022-07-15T06:39:29.000Z</Time>
            <Position>
              <LatitudeDegrees>43.39478365145623683929443359375</LatitudeDegrees>
              <LongitudeDegrees>-4.3461192212998867034912109375</LongitudeDegrees>
            </Position>
            <AltitudeMeters>77.40000152587890625</AltitudeMeters>
            <DistanceMeters>NAN</DistanceMeters>
          </Trackpoint>
          <Trackpoint>
            <Time>2022-07-15T06:39:30.000Z</Time>
            <Position>
              <LatitudeDegrees>43.39478398673236370086669921875</LatitudeDegrees>
              <LongitudeDegrees>-4.34613523073494434356689453125</LongitudeDegrees>
            </Position>
            <AltitudeMeters>77.59999847412109375</AltitudeMeters>
            <DistanceMeters>NAN</DistanceMeters>
          </Trackpoint>
          <Trackpoint>
            <Time>2022-07-15T06:39:32.000Z</Time>
            <Position>
              <LatitudeDegrees>43.3947845734655857086181640625</LatitudeDegrees>
              <LongitudeDegrees>-4.3461711890995502471923828125</LongitudeDegrees>
            </Position>
            <AltitudeMeters>77.59999847412109375</AltitudeMeters>
            <DistanceMeters>NAN</DistanceMeters>
          </Trackpoint>
          <Trackpoint>
            <Time>2022-07-15T06:39:33.000Z</Time>
            <Position>
              <LatitudeDegrees>43.39478650130331516265869140625</LatitudeDegrees>
              <LongitudeDegrees>-4.346191473305225372314453125</LongitudeDegrees>
            </Position>
            <AltitudeMeters>77.8000030517578125</AltitudeMeters>
            <DistanceMeters>NAN</DistanceMeters>
          </Trackpoint>
          <Trackpoint>
            <Time>2022-07-15T06:39:34.000Z</Time>
            <Position>
              <LatitudeDegrees>43.3947862498462200164794921875</LatitudeDegrees>
              <LongitudeDegrees>-4.346211589872837066650390625</LongitudeDegrees>
            </Position>
            <AltitudeMeters>77.8000030517578125</AltitudeMeters>
            <DistanceMeters>NAN</DistanceMeters>
          </Trackpoint>
          <Trackpoint>
            <Time>2022-07-15T06:39:36.000Z</Time>
            <Position>
              <LatitudeDegrees>43.39478851296007633209228515625</LatitudeDegrees>
              <LongitudeDegrees>-4.3462472967803478240966796875</LongitudeDegrees>
            </Position>
            <AltitudeMeters>77.8000030517578125</AltitudeMeters>
            <DistanceMeters>NAN</DistanceMeters>
          </Trackpoint>
          <Trackpoint>
            <Time>2022-07-15T06:39:37.000Z</Time>
            <Position>
              <LatitudeDegrees>43.39478985406458377838134765625</LatitudeDegrees>
              <LongitudeDegrees>-4.3462630547583103179931640625</LongitudeDegrees>
            </Position>
            <AltitudeMeters>77.8000030517578125</AltitudeMeters>
            <DistanceMeters>NAN</DistanceMeters>
          </Trackpoint>
          <Trackpoint>
            <Time>2022-07-15T06:39:39.000Z</Time>
            <Position>
              <LatitudeDegrees>43.3947909437119960784912109375</LatitudeDegrees>
              <LongitudeDegrees>-4.3462955765426158905029296875</LongitudeDegrees>
            </Position>
            <AltitudeMeters>78</AltitudeMeters>
            <DistanceMeters>NAN</DistanceMeters>
          </Trackpoint>
          <Trackpoint>
            <Time>2022-07-15T06:39:42.000Z</Time>
            <Position>
              <LatitudeDegrees>43.3948006667196750640869140625</LatitudeDegrees>
              <LongitudeDegrees>-4.34635919518768787384033203125</LongitudeDegrees>
            </Position>
            <AltitudeMeters>78.1999969482421875</AltitudeMeters>
            <DistanceMeters>NAN</DistanceMeters>
          </Trackpoint>
          <Trackpoint>
            <Time>2022-07-15T06:39:45.000Z</Time>
            <Position>
              <LatitudeDegrees>43.39479974471032619476318359375</LatitudeDegrees>
              <LongitudeDegrees>-4.3464119173586368560791015625</LongitudeDegrees>
            </Position>
            <AltitudeMeters>78.40000152587890625</AltitudeMeters>
            <DistanceMeters>NAN</DistanceMeters>
          </Trackpoint>
          <Trackpoint>
            <Time>2022-07-15T06:39:48.000Z</Time>
            <Position>
              <LatitudeDegrees>43.39479723013937473297119140625</LatitudeDegrees>
              <LongitudeDegrees>-4.34646564535796642303466796875</LongitudeDegrees>
            </Position>
            <AltitudeMeters>78.40000152587890625</AltitudeMeters>
            <DistanceMeters>NAN</DistanceMeters>
          </Trackpoint>
          <Trackpoint>
            <Time>2022-07-15T06:39:57.000Z</Time>
            <Position>
              <LatitudeDegrees>43.3947963081300258636474609375</LatitudeDegrees>
              <LongitudeDegrees>-4.3466264940798282623291015625</LongitudeDegrees>
            </Position>
            <AltitudeMeters>79.1999969482421875</AltitudeMeters>
            <DistanceMeters>NAN</DistanceMeters>
          </Trackpoint>
          <Trackpoint>
            <Time>2022-07-15T06:39:58.000Z</Time>
            <Position>
              <LatitudeDegrees>43.39479605667293071746826171875</LatitudeDegrees>
              <LongitudeDegrees>-4.3466479517519474029541015625</LongitudeDegrees>
            </Position>
            <AltitudeMeters>79.1999969482421875</AltitudeMeters>
            <DistanceMeters>NAN</DistanceMeters>
          </Trackpoint>
          <Trackpoint>
            <Time>2022-07-15T06:40:05.000Z</Time>
            <Position>
              <LatitudeDegrees>43.39480184018611907958984375</LatitudeDegrees>
              <LongitudeDegrees>-4.3467860855162143707275390625</LongitudeDegrees>
            </Position>
            <AltitudeMeters>79.59999847412109375</AltitudeMeters>
            <DistanceMeters>NAN</DistanceMeters>
          </Trackpoint>
          <Trackpoint>
            <Time>2022-07-15T06:40:07.000Z</Time>
            <Position>
              <LatitudeDegrees>43.39480544440448284149169921875</LatitudeDegrees>
              <LongitudeDegrees>-4.346819780766963958740234375</LongitudeDegrees>
            </Position>
            <AltitudeMeters>79.8000030517578125</AltitudeMeters>
            <DistanceMeters>NAN</DistanceMeters>
          </Trackpoint>
          <Trackpoint>
            <Time>2022-07-15T06:40:10.000Z</Time>
            <Position>
              <LatitudeDegrees>43.39480829425156116485595703125</LatitudeDegrees>
              <LongitudeDegrees>-4.3468766100704669952392578125</LongitudeDegrees>
            </Position>
            <AltitudeMeters>80</AltitudeMeters>
            <DistanceMeters>NAN</DistanceMeters>
          </Trackpoint>
          <Trackpoint>
            <Time>2022-07-15T06:40:15.000Z</Time>
            <Position>
              <LatitudeDegrees>43.3948118984699249267578125</LatitudeDegrees>
              <LongitudeDegrees>-4.3469765223562717437744140625</LongitudeDegrees>
            </Position>
            <AltitudeMeters>80.1999969482421875</AltitudeMeters>
            <DistanceMeters>NAN</DistanceMeters>
          </Trackpoint>
          <Trackpoint>
            <Time>2022-07-15T06:40:22.000Z</Time>
            <Position>
              <LatitudeDegrees>43.39481701143085956573486328125</LatitudeDegrees>
              <LongitudeDegrees>-4.34713192284107208251953125</LongitudeDegrees>
            </Position>
            <AltitudeMeters>80.8000030517578125</AltitudeMeters>
            <DistanceMeters>NAN</DistanceMeters>
          </Trackpoint>
          <Trackpoint>
            <Time>2022-07-15T06:40:24.000Z</Time>
            <Position>
              <LatitudeDegrees>43.394816257059574127197265625</LatitudeDegrees>
              <LongitudeDegrees>-4.34717140160501003265380859375</LongitudeDegrees>
            </Position>
            <AltitudeMeters>81</AltitudeMeters>
            <DistanceMeters>NAN</DistanceMeters>
          </Trackpoint>
          <Trackpoint>
            <Time>2022-07-15T06:40:29.000Z</Time>
            <Position>
              <LatitudeDegrees>43.39481600560247898101806640625</LatitudeDegrees>
              <LongitudeDegrees>-4.34727332554757595062255859375</LongitudeDegrees>
            </Position>
            <AltitudeMeters>81.1999969482421875</AltitudeMeters>
            <DistanceMeters>NAN</DistanceMeters>
          </Trackpoint>
          <Trackpoint>
            <Time>2022-07-15T06:40:36.000Z</Time>
            <Position>
              <LatitudeDegrees>43.39482204057276248931884765625</LatitudeDegrees>
              <LongitudeDegrees>-4.347418248653411865234375</LongitudeDegrees>
            </Position>
            <AltitudeMeters>81.59999847412109375</AltitudeMeters>
            <DistanceMeters>NAN</DistanceMeters>
          </Trackpoint>
          <Trackpoint>
            <Time>2022-07-15T06:40:45.000Z</Time>
            <Position>
              <LatitudeDegrees>43.3948191069066524505615234375</LatitudeDegrees>
              <LongitudeDegrees>-4.347613044083118438720703125</LongitudeDegrees>
            </Position>
            <AltitudeMeters>82.1999969482421875</AltitudeMeters>
            <DistanceMeters>NAN</DistanceMeters>
          </Trackpoint>
          <Trackpoint>
            <Time>2022-07-15T06:40:52.000Z</Time>
            <Position>
              <LatitudeDegrees>43.3948130719363689422607421875</LatitudeDegrees>
              <LongitudeDegrees>-4.3478023074567317962646484375</LongitudeDegrees>
            </Position>
            <AltitudeMeters>82.59999847412109375</AltitudeMeters>
            <DistanceMeters>NAN</DistanceMeters>
          </Trackpoint>
          <Trackpoint>
            <Time>2022-07-15T06:40:55.000Z</Time>
            <Position>
              <LatitudeDegrees>43.39480745606124401092529296875</LatitudeDegrees>
              <LongitudeDegrees>-4.347876571118831634521484375</LongitudeDegrees>
            </Position>
            <AltitudeMeters>82.8000030517578125</AltitudeMeters>
            <DistanceMeters>NAN</DistanceMeters>
          </Trackpoint>
          <Trackpoint>
            <Time>2022-07-15T06:41:04.000Z</Time>
            <Position>
              <LatitudeDegrees>43.394806198775768280029296875</LatitudeDegrees>
              <LongitudeDegrees>-4.34815384447574615478515625</LongitudeDegrees>
            </Position>
            <AltitudeMeters>83.40000152587890625</AltitudeMeters>
            <DistanceMeters>NAN</DistanceMeters>
          </Trackpoint>
          <Trackpoint>
            <Time>2022-07-15T06:41:16.000Z</Time>
            <Position>
              <LatitudeDegrees>43.39485070668160915374755859375</LatitudeDegrees>
              <LongitudeDegrees>-4.34849448502063751220703125</LongitudeDegrees>
            </Position>
            <AltitudeMeters>83.8000030517578125</AltitudeMeters>
            <DistanceMeters>NAN</DistanceMeters>
          </Trackpoint>
          <Trackpoint>
            <Time>2022-07-15T06:41:24.000Z</Time>
            <Position>
              <LatitudeDegrees>43.39488037861883640289306640625</LatitudeDegrees>
              <LongitudeDegrees>-4.34871308505535125732421875</LongitudeDegrees>
            </Position>
            <AltitudeMeters>84.1999969482421875</AltitudeMeters>
            <DistanceMeters>NAN</DistanceMeters>
          </Trackpoint>
          <Trackpoint>
            <Time>2022-07-15T06:41:25.000Z</Time>
            <Position>
              <LatitudeDegrees>43.3948843181133270263671875</LatitudeDegrees>
              <LongitudeDegrees>-4.348740912973880767822265625</LongitudeDegrees>
            </Position>
            <AltitudeMeters>84.40000152587890625</AltitudeMeters>
            <DistanceMeters>NAN</DistanceMeters>
          </Trackpoint>
          <Trackpoint>
            <Time>2022-07-15T06:41:35.000Z</Time>
            <Position>
              <LatitudeDegrees>43.394925892353057861328125</LatitudeDegrees>
              <LongitudeDegrees>-4.3490223772823810577392578125</LongitudeDegrees>
            </Position>
            <AltitudeMeters>84.59999847412109375</AltitudeMeters>
            <DistanceMeters>NAN</DistanceMeters>
          </Trackpoint>
          <Trackpoint>
            <Time>2022-07-15T06:41:41.000Z</Time>
            <Position>
              <LatitudeDegrees>43.3949481882154941558837890625</LatitudeDegrees>
              <LongitudeDegrees>-4.34921172447502613067626953125</LongitudeDegrees>
            </Position>
            <AltitudeMeters>84.59999847412109375</AltitudeMeters>
            <DistanceMeters>NAN</DistanceMeters>
          </Trackpoint>
          <Trackpoint>
            <Time>2022-07-15T06:41:47.000Z</Time>
            <Position>
              <LatitudeDegrees>43.39498230256140232086181640625</LatitudeDegrees>
              <LongitudeDegrees>-4.34939981438219547271728515625</LongitudeDegrees>
            </Position>
            <AltitudeMeters>85.1999969482421875</AltitudeMeters>
            <DistanceMeters>NAN</DistanceMeters>
          </Trackpoint>
          <Trackpoint>
            <Time>2022-07-15T06:41:57.000Z</Time>
            <Position>
              <LatitudeDegrees>43.395012728869915008544921875</LatitudeDegrees>
              <LongitudeDegrees>-4.34979594312608242034912109375</LongitudeDegrees>
            </Position>
            <AltitudeMeters>85</AltitudeMeters>
            <DistanceMeters>NAN</DistanceMeters>
          </Trackpoint>
          <Trackpoint>
            <Time>2022-07-15T06:42:07.000Z</Time>
            <Position>
              <LatitudeDegrees>43.39512211270630359649658203125</LatitudeDegrees>
              <LongitudeDegrees>-4.3501881323754787445068359375</LongitudeDegrees>
            </Position>
            <AltitudeMeters>85</AltitudeMeters>
            <DistanceMeters>NAN</DistanceMeters>
          </Trackpoint>
          <Trackpoint>
            <Time>2022-07-15T06:42:15.000Z</Time>
            <Position>
              <LatitudeDegrees>43.39523325674235820770263671875</LatitudeDegrees>
              <LongitudeDegrees>-4.3504263460636138916015625</LongitudeDegrees>
            </Position>
            <AltitudeMeters>85</AltitudeMeters>
            <DistanceMeters>NAN</DistanceMeters>
          </Trackpoint>
          <Trackpoint>
            <Time>2022-07-15T06:42:22.000Z</Time>
            <Position>
              <LatitudeDegrees>43.39529662393033504486083984375</LatitudeDegrees>
              <LongitudeDegrees>-4.35053204186260700225830078125</LongitudeDegrees>
            </Position>
            <AltitudeMeters>84.8000030517578125</AltitudeMeters>
            <DistanceMeters>NAN</DistanceMeters>
          </Trackpoint>
          <Trackpoint>
            <Time>2022-07-15T06:42:25.000Z</Time>
            <Position>
              <LatitudeDegrees>43.39529863558709621429443359375</LatitudeDegrees>
              <LongitudeDegrees>-4.3505384959280490875244140625</LongitudeDegrees>
            </Position>
            <AltitudeMeters>84.8000030517578125</AltitudeMeters>
            <DistanceMeters>NAN</DistanceMeters>
          </Trackpoint>
          <Trackpoint>
            <Time>2022-07-15T06:42:39.000Z</Time>
            <Position>
              <LatitudeDegrees>43.39528103359043598175048828125</LatitudeDegrees>
              <LongitudeDegrees>-4.3506011925637722015380859375</LongitudeDegrees>
            </Position>
            <AltitudeMeters>84.59999847412109375</AltitudeMeters>
            <DistanceMeters>NAN</DistanceMeters>
          </Trackpoint>
          <Trackpoint>
            <Time>2022-07-15T06:42:42.000Z</Time>
            <Position>
              <LatitudeDegrees>43.3952536247670650482177734375</LatitudeDegrees>
              <LongitudeDegrees>-4.35065978206694126129150390625</LongitudeDegrees>
            </Position>
            <AltitudeMeters>84.59999847412109375</AltitudeMeters>
            <DistanceMeters>NAN</DistanceMeters>
          </Trackpoint>
          <Trackpoint>
            <Time>2022-07-15T06:42:44.000Z</Time>
            <Position>
              <LatitudeDegrees>43.39524172246456146240234375</LatitudeDegrees>
              <LongitudeDegrees>-4.35072650201618671417236328125</LongitudeDegrees>
            </Position>
            <AltitudeMeters>84.59999847412109375</AltitudeMeters>
            <DistanceMeters>NAN</DistanceMeters>
          </Trackpoint>
          <Trackpoint>
            <Time>2022-07-15T06:42:49.000Z</Time>
            <Position>
              <LatitudeDegrees>43.3952633477747440338134765625</LatitudeDegrees>
              <LongitudeDegrees>-4.350968487560749053955078125</LongitudeDegrees>
            </Position>
            <AltitudeMeters>84.1999969482421875</AltitudeMeters>
            <DistanceMeters>NAN</DistanceMeters>
          </Trackpoint>
          <Trackpoint>
            <Time>2022-07-15T06:42:51.000Z</Time>
            <Position>
              <LatitudeDegrees>43.39527935720980167388916015625</LatitudeDegrees>
              <LongitudeDegrees>-4.35111424885690212249755859375</LongitudeDegrees>
            </Position>
            <AltitudeMeters>83.8000030517578125</AltitudeMeters>
            <DistanceMeters>NAN</DistanceMeters>
          </Trackpoint>
          <Trackpoint>
            <Time>2022-07-15T06:42:54.000Z</Time>
            <Position>
              <LatitudeDegrees>43.39531523175537586212158203125</LatitudeDegrees>
              <LongitudeDegrees>-4.35138531960546970367431640625</LongitudeDegrees>
            </Position>
            <AltitudeMeters>83.1999969482421875</AltitudeMeters>
            <DistanceMeters>NAN</DistanceMeters>
          </Trackpoint>
          <Trackpoint>
            <Time>2022-07-15T06:42:57.000Z</Time>
            <Position>
              <LatitudeDegrees>43.39533417485654354095458984375</LatitudeDegrees>
              <LongitudeDegrees>-4.3517293967306613922119140625</LongitudeDegrees>
            </Position>
            <AltitudeMeters>81.8000030517578125</AltitudeMeters>
            <DistanceMeters>NAN</DistanceMeters>
          </Trackpoint>
          <Trackpoint>
            <Time>2022-07-15T06:42:58.000Z</Time>
            <Position>
              <LatitudeDegrees>43.3953350968658924102783203125</LatitudeDegrees>
              <LongitudeDegrees>-4.3518635071814060211181640625</LongitudeDegrees>
            </Position>
            <AltitudeMeters>81.40000152587890625</AltitudeMeters>
            <DistanceMeters>NAN</DistanceMeters>
          </Trackpoint>
          <Trackpoint>
            <Time>2022-07-15T06:43:00.000Z</Time>
            <Position>
              <LatitudeDegrees>43.39532126672565937042236328125</LatitudeDegrees>
              <LongitudeDegrees>-4.3521602265536785125732421875</LongitudeDegrees>
            </Position>
            <AltitudeMeters>79.8000030517578125</AltitudeMeters>
            <DistanceMeters>NAN</DistanceMeters>
          </Trackpoint>
          <Trackpoint>
            <Time>2022-07-15T06:43:02.000Z</Time>
            <Position>
              <LatitudeDegrees>43.39528438635170459747314453125</LatitudeDegrees>
              <LongitudeDegrees>-4.3524743802845478057861328125</LongitudeDegrees>
            </Position>
            <AltitudeMeters>78.40000152587890625</AltitudeMeters>
            <DistanceMeters>NAN</DistanceMeters>
          </Trackpoint>
          <Trackpoint>
            <Time>2022-07-15T06:43:03.000Z</Time>
            <Position>
              <LatitudeDegrees>43.39525387622416019439697265625</LatitudeDegrees>
              <LongitudeDegrees>-4.35263447463512420654296875</LongitudeDegrees>
            </Position>
            <AltitudeMeters>77</AltitudeMeters>
            <DistanceMeters>NAN</DistanceMeters>
          </Trackpoint>
          <Trackpoint>
            <Time>2022-07-15T06:43:04.000Z</Time>
            <Position>
              <LatitudeDegrees>43.3952128887176513671875</LatitudeDegrees>
              <LongitudeDegrees>-4.3527999334037303924560546875</LongitudeDegrees>
            </Position>
            <AltitudeMeters>75.59999847412109375</AltitudeMeters>
            <DistanceMeters>NAN</DistanceMeters>
          </Trackpoint>
          <Trackpoint>
            <Time>2022-07-15T06:43:06.000Z</Time>
            <Position>
              <LatitudeDegrees>43.39511222206056118011474609375</LatitudeDegrees>
              <LongitudeDegrees>-4.3531087227165699005126953125</LongitudeDegrees>
            </Position>
            <AltitudeMeters>73.8000030517578125</AltitudeMeters>
            <DistanceMeters>NAN</DistanceMeters>
          </Trackpoint>
          <Trackpoint>
            <Time>2022-07-15T06:43:09.000Z</Time>
            <Position>
              <LatitudeDegrees>43.39492983184754848480224609375</LatitudeDegrees>
              <LongitudeDegrees>-4.35352069325745105743408203125</LongitudeDegrees>
            </Position>
            <AltitudeMeters>72.59999847412109375</AltitudeMeters>
            <DistanceMeters>NAN</DistanceMeters>
          </Trackpoint>
          <Trackpoint>
            <Time>2022-07-15T06:43:10.000Z</Time>
            <Position>
              <LatitudeDegrees>43.39486730284988880157470703125</LatitudeDegrees>
              <LongitudeDegrees>-4.35365295968949794769287109375</LongitudeDegrees>
            </Position>
            <AltitudeMeters>72.40000152587890625</AltitudeMeters>
            <DistanceMeters>NAN</DistanceMeters>
          </Trackpoint>
          <Trackpoint>
            <Time>2022-07-15T06:43:12.000Z</Time>
            <Position>
              <LatitudeDegrees>43.39474878273904323577880859375</LatitudeDegrees>
              <LongitudeDegrees>-4.35392637737095355987548828125</LongitudeDegrees>
            </Position>
            <AltitudeMeters>71.1999969482421875</AltitudeMeters>
            <DistanceMeters>NAN</DistanceMeters>
          </Trackpoint>
          <Trackpoint>
            <Time>2022-07-15T06:43:14.000Z</Time>
            <Position>
              <LatitudeDegrees>43.3946286700665950775146484375</LatitudeDegrees>
              <LongitudeDegrees>-4.3542013876140117645263671875</LongitudeDegrees>
            </Position>
            <AltitudeMeters>69.8000030517578125</AltitudeMeters>
            <DistanceMeters>NAN</DistanceMeters>
          </Trackpoint>
          <Trackpoint>
            <Time>2022-07-15T06:43:16.000Z</Time>
            <Position>
              <LatitudeDegrees>43.39450302533805370330810546875</LatitudeDegrees>
              <LongitudeDegrees>-4.35447170399129390716552734375</LongitudeDegrees>
            </Position>
            <AltitudeMeters>68.8000030517578125</AltitudeMeters>
            <DistanceMeters>NAN</DistanceMeters>
          </Trackpoint>
          <Trackpoint>
            <Time>2022-07-15T06:43:18.000Z</Time>
            <Position>
              <LatitudeDegrees>43.3943785540759563446044921875</LatitudeDegrees>
              <LongitudeDegrees>-4.35475031845271587371826171875</LongitudeDegrees>
            </Position>
            <AltitudeMeters>67.40000152587890625</AltitudeMeters>
            <DistanceMeters>NAN</DistanceMeters>
          </Trackpoint>
          <Trackpoint>
            <Time>2022-07-15T06:43:20.000Z</Time>
            <Position>
              <LatitudeDegrees>43.39425911195576190948486328125</LatitudeDegrees>
              <LongitudeDegrees>-4.35502566397190093994140625</LongitudeDegrees>
            </Position>
            <AltitudeMeters>66.1999969482421875</AltitudeMeters>
            <DistanceMeters>NAN</DistanceMeters>
          </Trackpoint>
          <Trackpoint>
            <Time>2022-07-15T06:43:23.000Z</Time>
            <Position>
              <LatitudeDegrees>43.39403430931270122528076171875</LatitudeDegrees>
              <LongitudeDegrees>-4.35539622791111469268798828125</LongitudeDegrees>
            </Position>
            <AltitudeMeters>64.8000030517578125</AltitudeMeters>
            <DistanceMeters>NAN</DistanceMeters>
          </Trackpoint>
          <Trackpoint>
            <Time>2022-07-15T06:43:24.000Z</Time>
            <Position>
              <LatitudeDegrees>43.39394152164459228515625</LatitudeDegrees>
              <LongitudeDegrees>-4.35550753958523273468017578125</LongitudeDegrees>
            </Position>
            <AltitudeMeters>64.40000152587890625</AltitudeMeters>
            <DistanceMeters>NAN</DistanceMeters>
          </Trackpoint>
          <Trackpoint>
            <Time>2022-07-15T06:43:25.000Z</Time>
            <Position>
              <LatitudeDegrees>43.393849320709705352783203125</LatitudeDegrees>
              <LongitudeDegrees>-4.35560577549040317535400390625</LongitudeDegrees>
            </Position>
            <AltitudeMeters>63.59999847412109375</AltitudeMeters>
            <DistanceMeters>NAN</DistanceMeters>
          </Trackpoint>
          <Trackpoint>
            <Time>2022-07-15T06:43:28.000Z</Time>
            <Position>
              <LatitudeDegrees>43.39355385862290859222412109375</LatitudeDegrees>
              <LongitudeDegrees>-4.35586125589907169342041015625</LongitudeDegrees>
            </Position>
            <AltitudeMeters>61.799999237060546875</AltitudeMeters>
            <DistanceMeters>NAN</DistanceMeters>
          </Trackpoint>
          <Trackpoint>
            <Time>2022-07-15T06:43:29.000Z</Time>
            <Position>
              <LatitudeDegrees>43.3934609033167362213134765625</LatitudeDegrees>
              <LongitudeDegrees>-4.35594909824430942535400390625</LongitudeDegrees>
            </Position>
            <AltitudeMeters>61.200000762939453125</AltitudeMeters>
            <DistanceMeters>NAN</DistanceMeters>
          </Trackpoint>
          <Trackpoint>
            <Time>2022-07-15T06:43:30.000Z</Time>
            <Position>
              <LatitudeDegrees>43.39336610399186611175537109375</LatitudeDegrees>
              <LongitudeDegrees>-4.35604088008403778076171875</LongitudeDegrees>
            </Position>
            <AltitudeMeters>60.200000762939453125</AltitudeMeters>
            <DistanceMeters>NAN</DistanceMeters>
          </Trackpoint>
          <Trackpoint>
            <Time>2022-07-15T06:43:31.000Z</Time>
            <Position>
              <LatitudeDegrees>43.3932795189321041107177734375</LatitudeDegrees>
              <LongitudeDegrees>-4.35614942573010921478271484375</LongitudeDegrees>
            </Position>
            <AltitudeMeters>59.59999847412109375</AltitudeMeters>
            <DistanceMeters>NAN</DistanceMeters>
          </Trackpoint>
          <Trackpoint>
            <Time>2022-07-15T06:43:32.000Z</Time>
            <Position>
              <LatitudeDegrees>43.39320483617484569549560546875</LatitudeDegrees>
              <LongitudeDegrees>-4.356256462633609771728515625</LongitudeDegrees>
            </Position>
            <AltitudeMeters>59.200000762939453125</AltitudeMeters>
            <DistanceMeters>NAN</DistanceMeters>
          </Trackpoint>
          <Trackpoint>
            <Time>2022-07-15T06:43:35.000Z</Time>
            <Position>
              <LatitudeDegrees>43.3930119685828685760498046875</LatitudeDegrees>
              <LongitudeDegrees>-4.356583692133426666259765625</LongitudeDegrees>
            </Position>
            <AltitudeMeters>58.200000762939453125</AltitudeMeters>
            <DistanceMeters>NAN</DistanceMeters>
          </Trackpoint>
          <Trackpoint>
            <Time>2022-07-15T06:43:36.000Z</Time>
            <Position>
              <LatitudeDegrees>43.3929633535444736480712890625</LatitudeDegrees>
              <LongitudeDegrees>-4.35669265687465667724609375</LongitudeDegrees>
            </Position>
            <AltitudeMeters>57.799999237060546875</AltitudeMeters>
            <DistanceMeters>NAN</DistanceMeters>
          </Trackpoint>
          <Trackpoint>
            <Time>2022-07-15T06:43:38.000Z</Time>
            <Position>
              <LatitudeDegrees>43.39291431941092014312744140625</LatitudeDegrees>
              <LongitudeDegrees>-4.3569131009280681610107421875</LongitudeDegrees>
            </Position>
            <AltitudeMeters>57.200000762939453125</AltitudeMeters>
            <DistanceMeters>NAN</DistanceMeters>
          </Trackpoint>
          <Trackpoint>
            <Time>2022-07-15T06:43:40.000Z</Time>
            <Position>
              <LatitudeDegrees>43.3928969688713550567626953125</LatitudeDegrees>
              <LongitudeDegrees>-4.35713647864758968353271484375</LongitudeDegrees>
            </Position>
            <AltitudeMeters>56.799999237060546875</AltitudeMeters>
            <DistanceMeters>NAN</DistanceMeters>
          </Trackpoint>
          <Trackpoint>
            <Time>2022-07-15T06:43:43.000Z</Time>
            <Position>
              <LatitudeDegrees>43.3928922750055789947509765625</LatitudeDegrees>
              <LongitudeDegrees>-4.35743696987628936767578125</LongitudeDegrees>
            </Position>
            <AltitudeMeters>57.40000152587890625</AltitudeMeters>
            <DistanceMeters>NAN</DistanceMeters>
          </Trackpoint>
          <Trackpoint>
            <Time>2022-07-15T06:43:49.000Z</Time>
            <Position>
              <LatitudeDegrees>43.392890430986881256103515625</LatitudeDegrees>
              <LongitudeDegrees>-4.357945583760738372802734375</LongitudeDegrees>
            </Position>
            <AltitudeMeters>57.200000762939453125</AltitudeMeters>
            <DistanceMeters>NAN</DistanceMeters>
          </Trackpoint>
          <Trackpoint>
            <Time>2022-07-15T06:43:50.000Z</Time>
            <Position>
              <LatitudeDegrees>43.39289856143295764923095703125</LatitudeDegrees>
              <LongitudeDegrees>-4.3580304086208343505859375</LongitudeDegrees>
            </Position>
            <AltitudeMeters>57</AltitudeMeters>
            <DistanceMeters>NAN</DistanceMeters>
          </Trackpoint>
          <Trackpoint>
            <Time>2022-07-15T06:43:53.000Z</Time>
            <Position>
              <LatitudeDegrees>43.39296326972544193267822265625</LatitudeDegrees>
              <LongitudeDegrees>-4.35830575414001941680908203125</LongitudeDegrees>
            </Position>
            <AltitudeMeters>56.59999847412109375</AltitudeMeters>
            <DistanceMeters>NAN</DistanceMeters>
          </Trackpoint>
          <Trackpoint>
            <Time>2022-07-15T06:43:56.000Z</Time>
            <Position>
              <LatitudeDegrees>43.39304943569004535675048828125</LatitudeDegrees>
              <LongitudeDegrees>-4.35863097198307514190673828125</LongitudeDegrees>
            </Position>
            <AltitudeMeters>55.40000152587890625</AltitudeMeters>
            <DistanceMeters>NAN</DistanceMeters>
          </Trackpoint>
          <Trackpoint>
            <Time>2022-07-15T06:43:58.000Z</Time>
            <Position>
              <LatitudeDegrees>43.393119759857654571533203125</LatitudeDegrees>
              <LongitudeDegrees>-4.35887874104082584381103515625</LongitudeDegrees>
            </Position>
            <AltitudeMeters>54</AltitudeMeters>
            <DistanceMeters>NAN</DistanceMeters>
          </Trackpoint>
          <Trackpoint>
            <Time>2022-07-15T06:44:00.000Z</Time>
            <Position>
              <LatitudeDegrees>43.39322025887668132781982421875</LatitudeDegrees>
              <LongitudeDegrees>-4.35913120396435260772705078125</LongitudeDegrees>
            </Position>
            <AltitudeMeters>52.40000152587890625</AltitudeMeters>
            <DistanceMeters>NAN</DistanceMeters>
          </Trackpoint>
          <Trackpoint>
            <Time>2022-07-15T06:44:02.000Z</Time>
            <Position>
              <LatitudeDegrees>43.39333391748368740081787109375</LatitudeDegrees>
              <LongitudeDegrees>-4.3593741953372955322265625</LongitudeDegrees>
            </Position>
            <AltitudeMeters>51.200000762939453125</AltitudeMeters>
            <DistanceMeters>NAN</DistanceMeters>
          </Trackpoint>
          <Trackpoint>
            <Time>2022-07-15T06:44:04.000Z</Time>
            <Position>
              <LatitudeDegrees>43.39344799518585205078125</LatitudeDegrees>
              <LongitudeDegrees>-4.35961333103477954864501953125</LongitudeDegrees>
            </Position>
            <AltitudeMeters>49.799999237060546875</AltitudeMeters>
            <DistanceMeters>NAN</DistanceMeters>
          </Trackpoint>
          <Trackpoint>
            <Time>2022-07-15T06:44:06.000Z</Time>
            <Position>
              <LatitudeDegrees>43.39355670846998691558837890625</LatitudeDegrees>
              <LongitudeDegrees>-4.359835870563983917236328125</LongitudeDegrees>
            </Position>
            <AltitudeMeters>48.200000762939453125</AltitudeMeters>
            <DistanceMeters>NAN</DistanceMeters>
          </Trackpoint>
          <Trackpoint>
            <Time>2022-07-15T06:44:08.000Z</Time>
            <Position>
              <LatitudeDegrees>43.3936282061040401458740234375</LatitudeDegrees>
              <LongitudeDegrees>-4.35997693799436092376708984375</LongitudeDegrees>
            </Position>
            <AltitudeMeters>46.200000762939453125</AltitudeMeters>
            <DistanceMeters>NAN</DistanceMeters>
          </Trackpoint>
          <Trackpoint>
            <Time>2022-07-15T06:44:09.000Z</Time>
            <Position>
              <LatitudeDegrees>43.3936476521193981170654296875</LatitudeDegrees>
              <LongitudeDegrees>-4.36001901514828205108642578125</LongitudeDegrees>
            </Position>
            <AltitudeMeters>44.59999847412109375</AltitudeMeters>
            <DistanceMeters>NAN</DistanceMeters>
          </Trackpoint>
          <Trackpoint>
            <Time>2022-07-15T06:44:10.000Z</Time>
            <Position>
              <LatitudeDegrees>43.39366416446864604949951171875</LatitudeDegrees>
              <LongitudeDegrees>-4.3600449152290821075439453125</LongitudeDegrees>
            </Position>
            <AltitudeMeters>43.40000152587890625</AltitudeMeters>
            <DistanceMeters>NAN</DistanceMeters>
          </Trackpoint>
          <Trackpoint>
            <Time>2022-07-15T06:44:11.000Z</Time>
            <Position>
              <LatitudeDegrees>43.3936754800379276275634765625</LatitudeDegrees>
              <LongitudeDegrees>-4.36005472205579280853271484375</LongitudeDegrees>
            </Position>
            <AltitudeMeters>42.40000152587890625</AltitudeMeters>
            <DistanceMeters>NAN</DistanceMeters>
          </Trackpoint>
          <Trackpoint>
            <Time>2022-07-15T06:44:12.000Z</Time>
            <Position>
              <LatitudeDegrees>43.39367799460887908935546875</LatitudeDegrees>
              <LongitudeDegrees>-4.36005958355963230133056640625</LongitudeDegrees>
            </Position>
            <AltitudeMeters>42</AltitudeMeters>
            <DistanceMeters>NAN</DistanceMeters>
          </Trackpoint>
          <Trackpoint>
            <Time>2022-07-15T06:44:14.000Z</Time>
            <Position>
              <LatitudeDegrees>43.39367799460887908935546875</LatitudeDegrees>
              <LongitudeDegrees>-4.36005958355963230133056640625</LongitudeDegrees>
            </Position>
            <AltitudeMeters>41.59999847412109375</AltitudeMeters>
            <DistanceMeters>NAN</DistanceMeters>
          </Trackpoint>
          <Trackpoint>
            <Time>2022-07-15T06:44:39.000Z</Time>
            <Position>
              <LatitudeDegrees>43.39368143118917942047119140625</LatitudeDegrees>
              <LongitudeDegrees>-4.3600876629352569580078125</LongitudeDegrees>
            </Position>
            <AltitudeMeters>41.59999847412109375</AltitudeMeters>
            <DistanceMeters>NAN</DistanceMeters>
          </Trackpoint>
          <Trackpoint>
            <Time>2022-07-15T06:44:44.000Z</Time>
            <Position>
              <LatitudeDegrees>43.39370607398450374603271484375</LatitudeDegrees>
              <LongitudeDegrees>-4.36030198819935321807861328125</LongitudeDegrees>
            </Position>
            <AltitudeMeters>41.40000152587890625</AltitudeMeters>
            <DistanceMeters>NAN</DistanceMeters>
          </Trackpoint>
          <Trackpoint>
            <Time>2022-07-15T06:44:45.000Z</Time>
            <Position>
              <LatitudeDegrees>43.39371210895478725433349609375</LatitudeDegrees>
              <LongitudeDegrees>-4.3603612482547760009765625</LongitudeDegrees>
            </Position>
            <AltitudeMeters>41</AltitudeMeters>
            <DistanceMeters>NAN</DistanceMeters>
          </Trackpoint>
          <Trackpoint>
            <Time>2022-07-15T06:44:49.000Z</Time>
            <Position>
              <LatitudeDegrees>43.39373767375946044921875</LatitudeDegrees>
              <LongitudeDegrees>-4.3606319837272167205810546875</LongitudeDegrees>
            </Position>
            <AltitudeMeters>40.200000762939453125</AltitudeMeters>
            <DistanceMeters>NAN</DistanceMeters>
          </Trackpoint>
          <Trackpoint>
            <Time>2022-07-15T06:44:51.000Z</Time>
            <Position>
              <LatitudeDegrees>43.39374479837715625762939453125</LatitudeDegrees>
              <LongitudeDegrees>-4.36079886741936206817626953125</LongitudeDegrees>
            </Position>
            <AltitudeMeters>39.799999237060546875</AltitudeMeters>
            <DistanceMeters>NAN</DistanceMeters>
          </Trackpoint>
          <Trackpoint>
            <Time>2022-07-15T06:44:55.000Z</Time>
            <Position>
              <LatitudeDegrees>43.39374630711972713470458984375</LatitudeDegrees>
              <LongitudeDegrees>-4.36117923818528652191162109375</LongitudeDegrees>
            </Position>
            <AltitudeMeters>39</AltitudeMeters>
            <DistanceMeters>NAN</DistanceMeters>
          </Trackpoint>
          <Trackpoint>
            <Time>2022-07-15T06:44:56.000Z</Time>
            <Position>
              <LatitudeDegrees>43.3937497437000274658203125</LatitudeDegrees>
              <LongitudeDegrees>-4.36128191649913787841796875</LongitudeDegrees>
            </Position>
            <AltitudeMeters>38.40000152587890625</AltitudeMeters>
            <DistanceMeters>NAN</DistanceMeters>
          </Trackpoint>
          <Trackpoint>
            <Time>2022-07-15T06:44:59.000Z</Time>
            <Position>
              <LatitudeDegrees>43.3937626518309116363525390625</LatitudeDegrees>
              <LongitudeDegrees>-4.3616123311221599578857421875</LongitudeDegrees>
            </Position>
            <AltitudeMeters>37.200000762939453125</AltitudeMeters>
            <DistanceMeters>NAN</DistanceMeters>
          </Trackpoint>
          <Trackpoint>
            <Time>2022-07-15T06:45:01.000Z</Time>
            <Position>
              <LatitudeDegrees>43.3937579579651355743408203125</LatitudeDegrees>
              <LongitudeDegrees>-4.3618483655154705047607421875</LongitudeDegrees>
            </Position>
            <AltitudeMeters>36.40000152587890625</AltitudeMeters>
            <DistanceMeters>NAN</DistanceMeters>
          </Trackpoint>
          <Trackpoint>
            <Time>2022-07-15T06:45:02.000Z</Time>
            <Position>
              <LatitudeDegrees>43.39374815113842487335205078125</LatitudeDegrees>
              <LongitudeDegrees>-4.3619727529585361480712890625</LongitudeDegrees>
            </Position>
            <AltitudeMeters>36</AltitudeMeters>
            <DistanceMeters>NAN</DistanceMeters>
          </Trackpoint>
          <Trackpoint>
            <Time>2022-07-15T06:45:05.000Z</Time>
            <Position>
              <LatitudeDegrees>43.39369903318583965301513671875</LatitudeDegrees>
              <LongitudeDegrees>-4.36236041598021984100341796875</LongitudeDegrees>
            </Position>
            <AltitudeMeters>34.799999237060546875</AltitudeMeters>
            <DistanceMeters>NAN</DistanceMeters>
          </Trackpoint>
          <Trackpoint>
            <Time>2022-07-15T06:45:06.000Z</Time>
            <Position>
              <LatitudeDegrees>43.3936764858663082122802734375</LatitudeDegrees>
              <LongitudeDegrees>-4.36249268241226673126220703125</LongitudeDegrees>
            </Position>
            <AltitudeMeters>34.200000762939453125</AltitudeMeters>
            <DistanceMeters>NAN</DistanceMeters>
          </Trackpoint>
          <Trackpoint>
            <Time>2022-07-15T06:45:07.000Z</Time>
            <Position>
              <LatitudeDegrees>43.39365242980420589447021484375</LatitudeDegrees>
              <LongitudeDegrees>-4.36262947507202625274658203125</LongitudeDegrees>
            </Position>
            <AltitudeMeters>33.799999237060546875</AltitudeMeters>
            <DistanceMeters>NAN</DistanceMeters>
          </Trackpoint>
          <Trackpoint>
            <Time>2022-07-15T06:45:09.000Z</Time>
            <Position>
              <LatitudeDegrees>43.393611609935760498046875</LatitudeDegrees>
              <LongitudeDegrees>-4.36290624551475048065185546875</LongitudeDegrees>
            </Position>
            <AltitudeMeters>32.40000152587890625</AltitudeMeters>
            <DistanceMeters>NAN</DistanceMeters>
          </Trackpoint>
          <Trackpoint>
            <Time>2022-07-15T06:45:11.000Z</Time>
            <Position>
              <LatitudeDegrees>43.393572382628917694091796875</LatitudeDegrees>
              <LongitudeDegrees>-4.363190643489360809326171875</LongitudeDegrees>
            </Position>
            <AltitudeMeters>31.200000762939453125</AltitudeMeters>
            <DistanceMeters>NAN</DistanceMeters>
          </Trackpoint>
          <Trackpoint>
            <Time>2022-07-15T06:45:13.000Z</Time>
            <Position>
              <LatitudeDegrees>43.393526114523410797119140625</LatitudeDegrees>
              <LongitudeDegrees>-4.363473616540431976318359375</LongitudeDegrees>
            </Position>
            <AltitudeMeters>30</AltitudeMeters>
            <DistanceMeters>NAN</DistanceMeters>
          </Trackpoint>
          <Trackpoint>
            <Time>2022-07-15T06:45:16.000Z</Time>
            <Position>
              <LatitudeDegrees>43.3934659324586391448974609375</LatitudeDegrees>
              <LongitudeDegrees>-4.3638989143073558807373046875</LongitudeDegrees>
            </Position>
            <AltitudeMeters>29</AltitudeMeters>
            <DistanceMeters>NAN</DistanceMeters>
          </Trackpoint>
          <Trackpoint>
            <Time>2022-07-15T06:45:18.000Z</Time>
            <Position>
              <LatitudeDegrees>43.39341807179152965545654296875</LatitudeDegrees>
              <LongitudeDegrees>-4.364189095795154571533203125</LongitudeDegrees>
            </Position>
            <AltitudeMeters>27.799999237060546875</AltitudeMeters>
            <DistanceMeters>NAN</DistanceMeters>
          </Trackpoint>
          <Trackpoint>
            <Time>2022-07-15T06:45:20.000Z</Time>
            <Position>
              <LatitudeDegrees>43.39336761273443698883056640625</LatitudeDegrees>
              <LongitudeDegrees>-4.36447517015039920806884765625</LongitudeDegrees>
            </Position>
            <AltitudeMeters>27</AltitudeMeters>
            <DistanceMeters>NAN</DistanceMeters>
          </Trackpoint>
          <Trackpoint>
            <Time>2022-07-15T06:45:21.000Z</Time>
            <Position>
              <LatitudeDegrees>43.39334431104362010955810546875</LatitudeDegrees>
              <LongitudeDegrees>-4.364614896476268768310546875</LongitudeDegrees>
            </Position>
            <AltitudeMeters>26.3999996185302734375</AltitudeMeters>
            <DistanceMeters>NAN</DistanceMeters>
          </Trackpoint>
          <Trackpoint>
            <Time>2022-07-15T06:45:24.000Z</Time>
            <Position>
              <LatitudeDegrees>43.3932728134095668792724609375</LatitudeDegrees>
              <LongitudeDegrees>-4.36503742821514606475830078125</LongitudeDegrees>
            </Position>
            <AltitudeMeters>25</AltitudeMeters>
            <DistanceMeters>NAN</DistanceMeters>
          </Trackpoint>
          <Trackpoint>
            <Time>2022-07-15T06:45:26.000Z</Time>
            <Position>
              <LatitudeDegrees>43.3932161517441272735595703125</LatitudeDegrees>
              <LongitudeDegrees>-4.3653023801743984222412109375</LongitudeDegrees>
            </Position>
            <AltitudeMeters>23.799999237060546875</AltitudeMeters>
            <DistanceMeters>NAN</DistanceMeters>
          </Trackpoint>
          <Trackpoint>
            <Time>2022-07-15T06:45:28.000Z</Time>
            <Position>
              <LatitudeDegrees>43.3931490965187549591064453125</LatitudeDegrees>
              <LongitudeDegrees>-4.36556448228657245635986328125</LongitudeDegrees>
            </Position>
            <AltitudeMeters>22.799999237060546875</AltitudeMeters>
            <DistanceMeters>NAN</DistanceMeters>
          </Trackpoint>
          <Trackpoint>
            <Time>2022-07-15T06:45:29.000Z</Time>
            <Position>
              <LatitudeDegrees>43.39311548508703708648681640625</LatitudeDegrees>
              <LongitudeDegrees>-4.36568786390125751495361328125</LongitudeDegrees>
            </Position>
            <AltitudeMeters>22.3999996185302734375</AltitudeMeters>
            <DistanceMeters>NAN</DistanceMeters>
          </Trackpoint>
          <Trackpoint>
            <Time>2022-07-15T06:45:31.000Z</Time>
            <Position>
              <LatitudeDegrees>43.39304440654814243316650390625</LatitudeDegrees>
              <LongitudeDegrees>-4.36592859216034412384033203125</LongitudeDegrees>
            </Position>
            <AltitudeMeters>21.3999996185302734375</AltitudeMeters>
            <DistanceMeters>NAN</DistanceMeters>
          </Trackpoint>
          <Trackpoint>
            <Time>2022-07-15T06:45:34.000Z</Time>
            <Position>
              <LatitudeDegrees>43.3929110504686832427978515625</LatitudeDegrees>
              <LongitudeDegrees>-4.366280548274517059326171875</LongitudeDegrees>
            </Position>
            <AltitudeMeters>20.799999237060546875</AltitudeMeters>
            <DistanceMeters>NAN</DistanceMeters>
          </Trackpoint>
          <Trackpoint>
            <Time>2022-07-15T06:45:35.000Z</Time>
            <Position>
              <LatitudeDegrees>43.39285447262227535247802734375</LatitudeDegrees>
              <LongitudeDegrees>-4.36637886799871921539306640625</LongitudeDegrees>
            </Position>
            <AltitudeMeters>20.3999996185302734375</AltitudeMeters>
            <DistanceMeters>NAN</DistanceMeters>
          </Trackpoint>
          <Trackpoint>
            <Time>2022-07-15T06:45:36.000Z</Time>
            <Position>
              <LatitudeDegrees>43.39279177598655223846435546875</LatitudeDegrees>
              <LongitudeDegrees>-4.36646218411624431610107421875</LongitudeDegrees>
            </Position>
            <AltitudeMeters>20</AltitudeMeters>
            <DistanceMeters>NAN</DistanceMeters>
          </Trackpoint>
          <Trackpoint>
            <Time>2022-07-15T06:45:37.000Z</Time>
            <Position>
              <LatitudeDegrees>43.3927224576473236083984375</LatitudeDegrees>
              <LongitudeDegrees>-4.366531334817409515380859375</LongitudeDegrees>
            </Position>
            <AltitudeMeters>19.200000762939453125</AltitudeMeters>
            <DistanceMeters>NAN</DistanceMeters>
          </Trackpoint>
          <Trackpoint>
            <Time>2022-07-15T06:45:38.000Z</Time>
            <Position>
              <LatitudeDegrees>43.39264936745166778564453125</LatitudeDegrees>
              <LongitudeDegrees>-4.36658925376832485198974609375</LongitudeDegrees>
            </Position>
            <AltitudeMeters>18.6000003814697265625</AltitudeMeters>
            <DistanceMeters>NAN</DistanceMeters>
          </Trackpoint>
          <Trackpoint>
            <Time>2022-07-15T06:45:39.000Z</Time>
            <Position>
              <LatitudeDegrees>43.39257828891277313232421875</LatitudeDegrees>
              <LongitudeDegrees>-4.36663786880671977996826171875</LongitudeDegrees>
            </Position>
            <AltitudeMeters>18.200000762939453125</AltitudeMeters>
            <DistanceMeters>NAN</DistanceMeters>
          </Trackpoint>
          <Trackpoint>
            <Time>2022-07-15T06:45:40.000Z</Time>
            <Position>
              <LatitudeDegrees>43.39250645600259304046630859375</LatitudeDegrees>
              <LongitudeDegrees>-4.36667458154261112213134765625</LongitudeDegrees>
            </Position>
            <AltitudeMeters>17.200000762939453125</AltitudeMeters>
            <DistanceMeters>NAN</DistanceMeters>
          </Trackpoint>
          <Trackpoint>
            <Time>2022-07-15T06:45:41.000Z</Time>
            <Position>
              <LatitudeDegrees>43.39243479073047637939453125</LatitudeDegrees>
              <LongitudeDegrees>-4.36669704504311084747314453125</LongitudeDegrees>
            </Position>
            <AltitudeMeters>16</AltitudeMeters>
            <DistanceMeters>NAN</DistanceMeters>
          </Trackpoint>
          <Trackpoint>
            <Time>2022-07-15T06:45:42.000Z</Time>
            <Position>
              <LatitudeDegrees>43.3923578448593616485595703125</LatitudeDegrees>
              <LongitudeDegrees>-4.3667127192020416259765625</LongitudeDegrees>
            </Position>
            <AltitudeMeters>15</AltitudeMeters>
            <DistanceMeters>NAN</DistanceMeters>
          </Trackpoint>
          <Trackpoint>
            <Time>2022-07-15T06:45:44.000Z</Time>
            <Position>
              <LatitudeDegrees>43.3922103233635425567626953125</LatitudeDegrees>
              <LongitudeDegrees>-4.36675789766013622283935546875</LongitudeDegrees>
            </Position>
            <AltitudeMeters>13.6000003814697265625</AltitudeMeters>
            <DistanceMeters>NAN</DistanceMeters>
          </Trackpoint>
          <Trackpoint>
            <Time>2022-07-15T06:45:46.000Z</Time>
            <Position>
              <LatitudeDegrees>43.392065651714801788330078125</LatitudeDegrees>
              <LongitudeDegrees>-4.3668146431446075439453125</LongitudeDegrees>
            </Position>
            <AltitudeMeters>12.19999980926513671875</AltitudeMeters>
            <DistanceMeters>NAN</DistanceMeters>
          </Trackpoint>
          <Trackpoint>
            <Time>2022-07-15T06:45:47.000Z</Time>
            <Position>
              <LatitudeDegrees>43.39199800975620746612548828125</LatitudeDegrees>
              <LongitudeDegrees>-4.3668429739773273468017578125</LongitudeDegrees>
            </Position>
            <AltitudeMeters>11.6000003814697265625</AltitudeMeters>
            <DistanceMeters>NAN</DistanceMeters>
          </Trackpoint>
          <Trackpoint>
            <Time>2022-07-15T06:45:48.000Z</Time>
            <Position>
              <LatitudeDegrees>43.39193321764469146728515625</LatitudeDegrees>
              <LongitudeDegrees>-4.366870634257793426513671875</LongitudeDegrees>
            </Position>
            <AltitudeMeters>11</AltitudeMeters>
            <DistanceMeters>NAN</DistanceMeters>
          </Trackpoint>
          <Trackpoint>
            <Time>2022-07-15T06:45:53.000Z</Time>
            <Position>
              <LatitudeDegrees>43.39165200479328632354736328125</LatitudeDegrees>
              <LongitudeDegrees>-4.3670069240033626556396484375</LongitudeDegrees>
            </Position>
            <AltitudeMeters>10.19999980926513671875</AltitudeMeters>
            <DistanceMeters>NAN</DistanceMeters>
          </Trackpoint>
          <Trackpoint>
            <Time>2022-07-15T06:45:54.000Z</Time>
            <Position>
              <LatitudeDegrees>43.3916155435144901275634765625</LatitudeDegrees>
              <LongitudeDegrees>-4.36704573221504688262939453125</LongitudeDegrees>
            </Position>
            <AltitudeMeters>10</AltitudeMeters>
            <DistanceMeters>NAN</DistanceMeters>
          </Trackpoint>
          <Trackpoint>
            <Time>2022-07-15T06:45:55.000Z</Time>
            <Position>
              <LatitudeDegrees>43.39158997870981693267822265625</LatitudeDegrees>
              <LongitudeDegrees>-4.3670843727886676788330078125</LongitudeDegrees>
            </Position>
            <AltitudeMeters>9.80000019073486328125</AltitudeMeters>
            <DistanceMeters>NAN</DistanceMeters>
          </Trackpoint>
          <Trackpoint>
            <Time>2022-07-15T06:45:56.000Z</Time>
            <Position>
              <LatitudeDegrees>43.39156977832317352294921875</LatitudeDegrees>
              <LongitudeDegrees>-4.36712150461971759796142578125</LongitudeDegrees>
            </Position>
            <AltitudeMeters>9.80000019073486328125</AltitudeMeters>
            <DistanceMeters>NAN</DistanceMeters>
          </Trackpoint>
          <Trackpoint>
            <Time>2022-07-15T06:46:00.000Z</Time>
            <Position>
              <LatitudeDegrees>43.39153985492885112762451171875</LatitudeDegrees>
              <LongitudeDegrees>-4.36727237887680530548095703125</LongitudeDegrees>
            </Position>
            <AltitudeMeters>9.80000019073486328125</AltitudeMeters>
            <DistanceMeters>NAN</DistanceMeters>
          </Trackpoint>
          <Trackpoint>
            <Time>2022-07-15T06:46:06.000Z</Time>
            <Position>
              <LatitudeDegrees>43.391532562673091888427734375</LatitudeDegrees>
              <LongitudeDegrees>-4.36739475466310977935791015625</LongitudeDegrees>
            </Position>
            <AltitudeMeters>10.6000003814697265625</AltitudeMeters>
            <DistanceMeters>NAN</DistanceMeters>
          </Trackpoint>
          <Trackpoint>
            <Time>2022-07-15T06:46:10.000Z</Time>
            <Position>
              <LatitudeDegrees>43.39155058376491069793701171875</LatitudeDegrees>
              <LongitudeDegrees>-4.36746734194457530975341796875</LongitudeDegrees>
            </Position>
            <AltitudeMeters>11</AltitudeMeters>
            <DistanceMeters>NAN</DistanceMeters>
          </Trackpoint>
          <Trackpoint>
            <Time>2022-07-15T06:46:12.000Z</Time>
            <Position>
              <LatitudeDegrees>43.39155712164938449859619140625</LatitudeDegrees>
              <LongitudeDegrees>-4.36750036664307117462158203125</LongitudeDegrees>
            </Position>
            <AltitudeMeters>11.19999980926513671875</AltitudeMeters>
            <DistanceMeters>NAN</DistanceMeters>
          </Trackpoint>
          <Trackpoint>
            <Time>2022-07-15T06:46:18.000Z</Time>
            <Position>
              <LatitudeDegrees>43.3915712870657444000244140625</LatitudeDegrees>
              <LongitudeDegrees>-4.367588460445404052734375</LongitudeDegrees>
            </Position>
            <AltitudeMeters>12</AltitudeMeters>
            <DistanceMeters>NAN</DistanceMeters>
          </Trackpoint>
          <Trackpoint>
            <Time>2022-07-15T06:46:19.000Z</Time>
            <Position>
              <LatitudeDegrees>43.3915763162076473236083984375</LatitudeDegrees>
              <LongitudeDegrees>-4.36760078184306621551513671875</LongitudeDegrees>
            </Position>
            <AltitudeMeters>12.19999980926513671875</AltitudeMeters>
            <DistanceMeters>NAN</DistanceMeters>
          </Trackpoint>
          <Trackpoint>
            <Time>2022-07-15T06:46:25.000Z</Time>
            <Position>
              <LatitudeDegrees>43.39160590432584285736083984375</LatitudeDegrees>
              <LongitudeDegrees>-4.367694072425365447998046875</LongitudeDegrees>
            </Position>
            <AltitudeMeters>13.19999980926513671875</AltitudeMeters>
            <DistanceMeters>NAN</DistanceMeters>
          </Trackpoint>
          <Trackpoint>
            <Time>2022-07-15T06:46:28.000Z</Time>
            <Position>
              <LatitudeDegrees>43.391610346734523773193359375</LatitudeDegrees>
              <LongitudeDegrees>-4.36775065027177333831787109375</LongitudeDegrees>
            </Position>
            <AltitudeMeters>13.3999996185302734375</AltitudeMeters>
            <DistanceMeters>NAN</DistanceMeters>
          </Trackpoint>
          <Trackpoint>
            <Time>2022-07-15T06:46:30.000Z</Time>
            <Position>
              <LatitudeDegrees>43.39161462150514125823974609375</LatitudeDegrees>
              <LongitudeDegrees>-4.36778300441801548004150390625</LongitudeDegrees>
            </Position>
            <AltitudeMeters>13.6000003814697265625</AltitudeMeters>
            <DistanceMeters>NAN</DistanceMeters>
          </Trackpoint>
          <Trackpoint>
            <Time>2022-07-15T06:46:35.000Z</Time>
            <Position>
              <LatitudeDegrees>43.39163859374821186065673828125</LatitudeDegrees>
              <LongitudeDegrees>-4.367857016623020172119140625</LongitudeDegrees>
            </Position>
            <AltitudeMeters>14</AltitudeMeters>
            <DistanceMeters>NAN</DistanceMeters>
          </Trackpoint>
          <Trackpoint>
            <Time>2022-07-15T06:46:36.000Z</Time>
            <Position>
              <LatitudeDegrees>43.39164395816624164581298828125</LatitudeDegrees>
              <LongitudeDegrees>-4.36787269078195095062255859375</LongitudeDegrees>
            </Position>
            <AltitudeMeters>14.19999980926513671875</AltitudeMeters>
            <DistanceMeters>NAN</DistanceMeters>
          </Trackpoint>
          <Trackpoint>
            <Time>2022-07-15T06:46:39.000Z</Time>
            <Position>
              <LatitudeDegrees>43.3916415274143218994140625</LatitudeDegrees>
              <LongitudeDegrees>-4.3679242394864559173583984375</LongitudeDegrees>
            </Position>
            <AltitudeMeters>14.80000019073486328125</AltitudeMeters>
            <DistanceMeters>NAN</DistanceMeters>
          </Trackpoint>
          <Trackpoint>
            <Time>2022-07-15T06:46:40.000Z</Time>
            <Position>
              <LatitudeDegrees>43.39164261706173419952392578125</LatitudeDegrees>
              <LongitudeDegrees>-4.36793941073119640350341796875</LongitudeDegrees>
            </Position>
            <AltitudeMeters>14.80000019073486328125</AltitudeMeters>
            <DistanceMeters>NAN</DistanceMeters>
          </Trackpoint>
          <Trackpoint>
            <Time>2022-07-15T06:46:42.000Z</Time>
            <Position>
              <LatitudeDegrees>43.3916500769555568695068359375</LatitudeDegrees>
              <LongitudeDegrees>-4.36796623282134532928466796875</LongitudeDegrees>
            </Position>
            <AltitudeMeters>15.19999980926513671875</AltitudeMeters>
            <DistanceMeters>NAN</DistanceMeters>
          </Trackpoint>
          <Trackpoint>
            <Time>2022-07-15T06:46:44.000Z</Time>
            <Position>
              <LatitudeDegrees>43.39166491292417049407958984375</LatitudeDegrees>
              <LongitudeDegrees>-4.36799976043403148651123046875</LongitudeDegrees>
            </Position>
            <AltitudeMeters>15.3999996185302734375</AltitudeMeters>
            <DistanceMeters>NAN</DistanceMeters>
          </Trackpoint>
          <Trackpoint>
            <Time>2022-07-15T06:46:49.000Z</Time>
            <Position>
              <LatitudeDegrees>43.39167228899896144866943359375</LatitudeDegrees>
              <LongitudeDegrees>-4.368082322180271148681640625</LongitudeDegrees>
            </Position>
            <AltitudeMeters>16.200000762939453125</AltitudeMeters>
            <DistanceMeters>NAN</DistanceMeters>
          </Trackpoint>
          <Trackpoint>
            <Time>2022-07-15T06:46:51.000Z</Time>
            <Position>
              <LatitudeDegrees>43.391676060855388641357421875</LatitudeDegrees>
              <LongitudeDegrees>-4.36812683008611202239990234375</LongitudeDegrees>
            </Position>
            <AltitudeMeters>16.3999996185302734375</AltitudeMeters>
            <DistanceMeters>NAN</DistanceMeters>
          </Trackpoint>
          <Trackpoint>
            <Time>2022-07-15T06:46:58.000Z</Time>
            <Position>
              <LatitudeDegrees>43.3916966803371906280517578125</LatitudeDegrees>
              <LongitudeDegrees>-4.36823763884603977203369140625</LongitudeDegrees>
            </Position>
            <AltitudeMeters>17.6000003814697265625</AltitudeMeters>
            <DistanceMeters>NAN</DistanceMeters>
          </Trackpoint>
          <Trackpoint>
            <Time>2022-07-15T06:47:04.000Z</Time>
            <Position>
              <LatitudeDegrees>43.39171872474253177642822265625</LatitudeDegrees>
              <LongitudeDegrees>-4.36833755113184452056884765625</LongitudeDegrees>
            </Position>
            <AltitudeMeters>18.6000003814697265625</AltitudeMeters>
            <DistanceMeters>NAN</DistanceMeters>
          </Trackpoint>
          <Trackpoint>
            <Time>2022-07-15T06:47:05.000Z</Time>
            <Position>
              <LatitudeDegrees>43.39172174222767353057861328125</LatitudeDegrees>
              <LongitudeDegrees>-4.368355907499790191650390625</LongitudeDegrees>
            </Position>
            <AltitudeMeters>18.6000003814697265625</AltitudeMeters>
            <DistanceMeters>NAN</DistanceMeters>
          </Trackpoint>
          <Trackpoint>
            <Time>2022-07-15T06:47:08.000Z</Time>
            <Position>
              <LatitudeDegrees>43.3917328901588916778564453125</LatitudeDegrees>
              <LongitudeDegrees>-4.3684100545942783355712890625</LongitudeDegrees>
            </Position>
            <AltitudeMeters>19</AltitudeMeters>
            <DistanceMeters>NAN</DistanceMeters>
          </Trackpoint>
          <Trackpoint>
            <Time>2022-07-15T06:47:11.000Z</Time>
            <Position>
              <LatitudeDegrees>43.39173364453017711639404296875</LatitudeDegrees>
              <LongitudeDegrees>-4.36845414340496063232421875</LongitudeDegrees>
            </Position>
            <AltitudeMeters>19.3999996185302734375</AltitudeMeters>
            <DistanceMeters>NAN</DistanceMeters>
          </Trackpoint>
          <Trackpoint>
            <Time>2022-07-15T06:47:12.000Z</Time>
            <Position>
              <LatitudeDegrees>43.39173397980630397796630859375</LatitudeDegrees>
              <LongitudeDegrees>-4.36847216449677944183349609375</LongitudeDegrees>
            </Position>
            <AltitudeMeters>19.6000003814697265625</AltitudeMeters>
            <DistanceMeters>NAN</DistanceMeters>
          </Trackpoint>
          <Trackpoint>
            <Time>2022-07-15T06:47:16.000Z</Time>
            <Position>
              <LatitudeDegrees>43.39172978885471820831298828125</LatitudeDegrees>
              <LongitudeDegrees>-4.36853704042732715606689453125</LongitudeDegrees>
            </Position>
            <AltitudeMeters>20</AltitudeMeters>
            <DistanceMeters>NAN</DistanceMeters>
          </Trackpoint>
          <Trackpoint>
            <Time>2022-07-15T06:47:20.000Z</Time>
            <Position>
              <LatitudeDegrees>43.391725011169910430908203125</LatitudeDegrees>
              <LongitudeDegrees>-4.368620105087757110595703125</LongitudeDegrees>
            </Position>
            <AltitudeMeters>20.6000003814697265625</AltitudeMeters>
            <DistanceMeters>NAN</DistanceMeters>
          </Trackpoint>
          <Trackpoint>
            <Time>2022-07-15T06:47:23.000Z</Time>
            <Position>
              <LatitudeDegrees>43.39171084575355052947998046875</LatitudeDegrees>
              <LongitudeDegrees>-4.368674419820308685302734375</LongitudeDegrees>
            </Position>
            <AltitudeMeters>21</AltitudeMeters>
            <DistanceMeters>NAN</DistanceMeters>
          </Trackpoint>
          <Trackpoint>
            <Time>2022-07-15T06:47:28.000Z</Time>
            <Position>
              <LatitudeDegrees>43.39167706668376922607421875</LatitudeDegrees>
              <LongitudeDegrees>-4.36875195242464542388916015625</LongitudeDegrees>
            </Position>
            <AltitudeMeters>21.6000003814697265625</AltitudeMeters>
            <DistanceMeters>NAN</DistanceMeters>
          </Trackpoint>
          <Trackpoint>
            <Time>2022-07-15T06:47:31.000Z</Time>
            <Position>
              <LatitudeDegrees>43.3916514180600643157958984375</LatitudeDegrees>
              <LongitudeDegrees>-4.36879478394985198974609375</LongitudeDegrees>
            </Position>
            <AltitudeMeters>22</AltitudeMeters>
            <DistanceMeters>NAN</DistanceMeters>
          </Trackpoint>
          <Trackpoint>
            <Time>2022-07-15T06:47:36.000Z</Time>
            <Position>
              <LatitudeDegrees>43.391617052257061004638671875</LatitudeDegrees>
              <LongitudeDegrees>-4.36885555274784564971923828125</LongitudeDegrees>
            </Position>
            <AltitudeMeters>22.6000003814697265625</AltitudeMeters>
            <DistanceMeters>NAN</DistanceMeters>
          </Trackpoint>
          <Trackpoint>
            <Time>2022-07-15T06:47:39.000Z</Time>
            <Position>
              <LatitudeDegrees>43.3915893919765949249267578125</LatitudeDegrees>
              <LongitudeDegrees>-4.36888639815151691436767578125</LongitudeDegrees>
            </Position>
            <AltitudeMeters>22.799999237060546875</AltitudeMeters>
            <DistanceMeters>NAN</DistanceMeters>
          </Trackpoint>
          <Trackpoint>
            <Time>2022-07-15T06:47:40.000Z</Time>
            <Position>
              <LatitudeDegrees>43.39158377610146999359130859375</LatitudeDegrees>
              <LongitudeDegrees>-4.36889796517789363861083984375</LongitudeDegrees>
            </Position>
            <AltitudeMeters>22.799999237060546875</AltitudeMeters>
            <DistanceMeters>NAN</DistanceMeters>
          </Trackpoint>
          <Trackpoint>
            <Time>2022-07-15T06:47:49.000Z</Time>
            <Position>
              <LatitudeDegrees>43.391504399478435516357421875</LatitudeDegrees>
              <LongitudeDegrees>-4.36899938620626926422119140625</LongitudeDegrees>
            </Position>
            <AltitudeMeters>23.6000003814697265625</AltitudeMeters>
            <DistanceMeters>NAN</DistanceMeters>
          </Trackpoint>
          <Trackpoint>
            <Time>2022-07-15T06:47:52.000Z</Time>
            <Position>
              <LatitudeDegrees>43.39147858321666717529296875</LatitudeDegrees>
              <LongitudeDegrees>-4.369036853313446044921875</LongitudeDegrees>
            </Position>
            <AltitudeMeters>24</AltitudeMeters>
            <DistanceMeters>NAN</DistanceMeters>
          </Trackpoint>
          <Trackpoint>
            <Time>2022-07-15T06:47:56.000Z</Time>
            <Position>
              <LatitudeDegrees>43.39143969118595123291015625</LatitudeDegrees>
              <LongitudeDegrees>-4.369078092277050018310546875</LongitudeDegrees>
            </Position>
            <AltitudeMeters>24.3999996185302734375</AltitudeMeters>
            <DistanceMeters>NAN</DistanceMeters>
          </Trackpoint>
          <Trackpoint>
            <Time>2022-07-15T06:48:01.000Z</Time>
            <Position>
              <LatitudeDegrees>43.3913892321288585662841796875</LatitudeDegrees>
              <LongitudeDegrees>-4.36913114972412586212158203125</LongitudeDegrees>
            </Position>
            <AltitudeMeters>25</AltitudeMeters>
            <DistanceMeters>NAN</DistanceMeters>
          </Trackpoint>
          <Trackpoint>
            <Time>2022-07-15T06:48:07.000Z</Time>
            <Position>
              <LatitudeDegrees>43.39133718051016330718994140625</LatitudeDegrees>
              <LongitudeDegrees>-4.3691912479698657989501953125</LongitudeDegrees>
            </Position>
            <AltitudeMeters>25.6000003814697265625</AltitudeMeters>
            <DistanceMeters>NAN</DistanceMeters>
          </Trackpoint>
          <Trackpoint>
            <Time>2022-07-15T06:48:14.000Z</Time>
            <Position>
              <LatitudeDegrees>43.3912762440741062164306640625</LatitudeDegrees>
              <LongitudeDegrees>-4.3692489154636859893798828125</LongitudeDegrees>
            </Position>
            <AltitudeMeters>26.200000762939453125</AltitudeMeters>
            <DistanceMeters>NAN</DistanceMeters>
          </Trackpoint>
          <Trackpoint>
            <Time>2022-07-15T06:48:18.000Z</Time>
            <Position>
              <LatitudeDegrees>43.39124632067978382110595703125</LatitudeDegrees>
              <LongitudeDegrees>-4.3692787550389766693115234375</LongitudeDegrees>
            </Position>
            <AltitudeMeters>26.6000003814697265625</AltitudeMeters>
            <DistanceMeters>NAN</DistanceMeters>
          </Trackpoint>
          <Trackpoint>
            <Time>2022-07-15T06:48:24.000Z</Time>
            <Position>
              <LatitudeDegrees>43.39117825962603092193603515625</LatitudeDegrees>
              <LongitudeDegrees>-4.369342625141143798828125</LongitudeDegrees>
            </Position>
            <AltitudeMeters>27.3999996185302734375</AltitudeMeters>
            <DistanceMeters>NAN</DistanceMeters>
          </Trackpoint>
          <Trackpoint>
            <Time>2022-07-15T06:48:28.000Z</Time>
            <Position>
              <LatitudeDegrees>43.39113794267177581787109375</LatitudeDegrees>
              <LongitudeDegrees>-4.36939719133079051971435546875</LongitudeDegrees>
            </Position>
            <AltitudeMeters>27.799999237060546875</AltitudeMeters>
            <DistanceMeters>NAN</DistanceMeters>
          </Trackpoint>
          <Trackpoint>
            <Time>2022-07-15T06:48:33.000Z</Time>
            <Position>
              <LatitudeDegrees>43.3910889923572540283203125</LatitudeDegrees>
              <LongitudeDegrees>-4.369447566568851470947265625</LongitudeDegrees>
            </Position>
            <AltitudeMeters>28.3999996185302734375</AltitudeMeters>
            <DistanceMeters>NAN</DistanceMeters>
          </Trackpoint>
          <Trackpoint>
            <Time>2022-07-15T06:48:38.000Z</Time>
            <Position>
              <LatitudeDegrees>43.39103794656693935394287109375</LatitudeDegrees>
              <LongitudeDegrees>-4.36949928291141986846923828125</LongitudeDegrees>
            </Position>
            <AltitudeMeters>28.799999237060546875</AltitudeMeters>
            <DistanceMeters>NAN</DistanceMeters>
          </Trackpoint>
          <Trackpoint>
            <Time>2022-07-15T06:48:45.000Z</Time>
            <Position>
              <LatitudeDegrees>43.39097457937896251678466796875</LatitudeDegrees>
              <LongitudeDegrees>-4.36956751160323619842529296875</LongitudeDegrees>
            </Position>
            <AltitudeMeters>29.3999996185302734375</AltitudeMeters>
            <DistanceMeters>NAN</DistanceMeters>
          </Trackpoint>
          <Trackpoint>
            <Time>2022-07-15T06:48:47.000Z</Time>
            <Position>
              <LatitudeDegrees>43.39095161296427249908447265625</LatitudeDegrees>
              <LongitudeDegrees>-4.369583688676357269287109375</LongitudeDegrees>
            </Position>
            <AltitudeMeters>29.6000003814697265625</AltitudeMeters>
            <DistanceMeters>NAN</DistanceMeters>
          </Trackpoint>
          <Trackpoint>
            <Time>2022-07-15T06:48:50.000Z</Time>
            <Position>
              <LatitudeDegrees>43.390912972390651702880859375</LatitudeDegrees>
              <LongitudeDegrees>-4.36960279941558837890625</LongitudeDegrees>
            </Position>
            <AltitudeMeters>30</AltitudeMeters>
            <DistanceMeters>NAN</DistanceMeters>
          </Trackpoint>
          <Trackpoint>
            <Time>2022-07-15T06:48:53.000Z</Time>
            <Position>
              <LatitudeDegrees>43.3908717334270477294921875</LatitudeDegrees>
              <LongitudeDegrees>-4.3696116842329502105712890625</LongitudeDegrees>
            </Position>
            <AltitudeMeters>30.200000762939453125</AltitudeMeters>
            <DistanceMeters>NAN</DistanceMeters>
          </Trackpoint>
          <Trackpoint>
            <Time>2022-07-15T06:49:01.000Z</Time>
            <Position>
              <LatitudeDegrees>43.390737958252429962158203125</LatitudeDegrees>
              <LongitudeDegrees>-4.36960975639522075653076171875</LongitudeDegrees>
            </Position>
            <AltitudeMeters>30.200000762939453125</AltitudeMeters>
            <DistanceMeters>NAN</DistanceMeters>
          </Trackpoint>
          <Trackpoint>
            <Time>2022-07-15T06:49:03.000Z</Time>
            <Position>
              <LatitudeDegrees>43.39069780893623828887939453125</LatitudeDegrees>
              <LongitudeDegrees>-4.369594752788543701171875</LongitudeDegrees>
            </Position>
            <AltitudeMeters>30.3999996185302734375</AltitudeMeters>
            <DistanceMeters>NAN</DistanceMeters>
          </Trackpoint>
          <Trackpoint>
            <Time>2022-07-15T06:49:08.000Z</Time>
            <Position>
              <LatitudeDegrees>43.39057006873190402984619140625</LatitudeDegrees>
              <LongitudeDegrees>-4.36954387463629245758056640625</LongitudeDegrees>
            </Position>
            <AltitudeMeters>30.3999996185302734375</AltitudeMeters>
            <DistanceMeters>NAN</DistanceMeters>
          </Trackpoint>
          <Trackpoint>
            <Time>2022-07-15T06:49:12.000Z</Time>
            <Position>
              <LatitudeDegrees>43.390436209738254547119140625</LatitudeDegrees>
              <LongitudeDegrees>-4.36946826986968517303466796875</LongitudeDegrees>
            </Position>
            <AltitudeMeters>30</AltitudeMeters>
            <DistanceMeters>NAN</DistanceMeters>
          </Trackpoint>
          <Trackpoint>
            <Time>2022-07-15T06:49:13.000Z</Time>
            <Position>
              <LatitudeDegrees>43.390399329364299774169921875</LatitudeDegrees>
              <LongitudeDegrees>-4.369450248777866363525390625</LongitudeDegrees>
            </Position>
            <AltitudeMeters>29.799999237060546875</AltitudeMeters>
            <DistanceMeters>NAN</DistanceMeters>
          </Trackpoint>
          <Trackpoint>
            <Time>2022-07-15T06:49:15.000Z</Time>
            <Position>
              <LatitudeDegrees>43.3903210423886775970458984375</LatitudeDegrees>
              <LongitudeDegrees>-4.3694202415645122528076171875</LongitudeDegrees>
            </Position>
            <AltitudeMeters>29.200000762939453125</AltitudeMeters>
            <DistanceMeters>NAN</DistanceMeters>
          </Trackpoint>
          <Trackpoint>
            <Time>2022-07-15T06:49:17.000Z</Time>
            <Position>
              <LatitudeDegrees>43.39022322557866573333740234375</LatitudeDegrees>
              <LongitudeDegrees>-4.36942736618220806121826171875</LongitudeDegrees>
            </Position>
            <AltitudeMeters>28.6000003814697265625</AltitudeMeters>
            <DistanceMeters>NAN</DistanceMeters>
          </Trackpoint>
          <Trackpoint>
            <Time>2022-07-15T06:49:18.000Z</Time>
            <Position>
              <LatitudeDegrees>43.3901731856167316436767578125</LatitudeDegrees>
              <LongitudeDegrees>-4.3694510869681835174560546875</LongitudeDegrees>
            </Position>
            <AltitudeMeters>28.200000762939453125</AltitudeMeters>
            <DistanceMeters>NAN</DistanceMeters>
          </Trackpoint>
          <Trackpoint>
            <Time>2022-07-15T06:49:19.000Z</Time>
            <Position>
              <LatitudeDegrees>43.3901255764067173004150390625</LatitudeDegrees>
              <LongitudeDegrees>-4.36949140392243862152099609375</LongitudeDegrees>
            </Position>
            <AltitudeMeters>27.799999237060546875</AltitudeMeters>
            <DistanceMeters>NAN</DistanceMeters>
          </Trackpoint>
          <Trackpoint>
            <Time>2022-07-15T06:49:20.000Z</Time>
            <Position>
              <LatitudeDegrees>43.3900831639766693115234375</LatitudeDegrees>
              <LongitudeDegrees>-4.36954571865499019622802734375</LongitudeDegrees>
            </Position>
            <AltitudeMeters>27.200000762939453125</AltitudeMeters>
            <DistanceMeters>NAN</DistanceMeters>
          </Trackpoint>
          <Trackpoint>
            <Time>2022-07-15T06:49:21.000Z</Time>
            <Position>
              <LatitudeDegrees>43.3900538273155689239501953125</LatitudeDegrees>
              <LongitudeDegrees>-4.36961595900356769561767578125</LongitudeDegrees>
            </Position>
            <AltitudeMeters>26.799999237060546875</AltitudeMeters>
            <DistanceMeters>NAN</DistanceMeters>
          </Trackpoint>
          <Trackpoint>
            <Time>2022-07-15T06:49:24.000Z</Time>
            <Position>
              <LatitudeDegrees>43.390000350773334503173828125</LatitudeDegrees>
              <LongitudeDegrees>-4.36986104585230350494384765625</LongitudeDegrees>
            </Position>
            <AltitudeMeters>26</AltitudeMeters>
            <DistanceMeters>NAN</DistanceMeters>
          </Trackpoint>
          <Trackpoint>
            <Time>2022-07-15T06:49:26.000Z</Time>
            <Position>
              <LatitudeDegrees>43.3899643085896968841552734375</LatitudeDegrees>
              <LongitudeDegrees>-4.37003203667700290679931640625</LongitudeDegrees>
            </Position>
            <AltitudeMeters>25.200000762939453125</AltitudeMeters>
            <DistanceMeters>NAN</DistanceMeters>
          </Trackpoint>
          <Trackpoint>
            <Time>2022-07-15T06:49:27.000Z</Time>
            <Position>
              <LatitudeDegrees>43.3899435214698314666748046875</LatitudeDegrees>
              <LongitudeDegrees>-4.37011401169002056121826171875</LongitudeDegrees>
            </Position>
            <AltitudeMeters>24.799999237060546875</AltitudeMeters>
            <DistanceMeters>NAN</DistanceMeters>
          </Trackpoint>
          <Trackpoint>
            <Time>2022-07-15T06:49:29.000Z</Time>
            <Position>
              <LatitudeDegrees>43.389903120696544647216796875</LatitudeDegrees>
              <LongitudeDegrees>-4.37026203610002994537353515625</LongitudeDegrees>
            </Position>
            <AltitudeMeters>24</AltitudeMeters>
            <DistanceMeters>NAN</DistanceMeters>
          </Trackpoint>
          <Trackpoint>
            <Time>2022-07-15T06:49:30.000Z</Time>
            <Position>
              <LatitudeDegrees>43.38988778181374073028564453125</LatitudeDegrees>
              <LongitudeDegrees>-4.3703352101147174835205078125</LongitudeDegrees>
            </Position>
            <AltitudeMeters>23.3999996185302734375</AltitudeMeters>
            <DistanceMeters>NAN</DistanceMeters>
          </Trackpoint>
          <Trackpoint>
            <Time>2022-07-15T06:49:31.000Z</Time>
            <Position>
              <LatitudeDegrees>43.3898685872554779052734375</LatitudeDegrees>
              <LongitudeDegrees>-4.37040067277848720550537109375</LongitudeDegrees>
            </Position>
            <AltitudeMeters>23</AltitudeMeters>
            <DistanceMeters>NAN</DistanceMeters>
          </Trackpoint>
          <Trackpoint>
            <Time>2022-07-15T06:49:32.000Z</Time>
            <Position>
              <LatitudeDegrees>43.38984469883143901824951171875</LatitudeDegrees>
              <LongitudeDegrees>-4.37046538107097148895263671875</LongitudeDegrees>
            </Position>
            <AltitudeMeters>22.3999996185302734375</AltitudeMeters>
            <DistanceMeters>NAN</DistanceMeters>
          </Trackpoint>
          <Trackpoint>
            <Time>2022-07-15T06:49:33.000Z</Time>
            <Position>
              <LatitudeDegrees>43.389811925590038299560546875</LatitudeDegrees>
              <LongitudeDegrees>-4.37052707187831401824951171875</LongitudeDegrees>
            </Position>
            <AltitudeMeters>21.799999237060546875</AltitudeMeters>
            <DistanceMeters>NAN</DistanceMeters>
          </Trackpoint>
          <Trackpoint>
            <Time>2022-07-15T06:49:35.000Z</Time>
            <Position>
              <LatitudeDegrees>43.3897249214351177215576171875</LatitudeDegrees>
              <LongitudeDegrees>-4.3706446699798107147216796875</LongitudeDegrees>
            </Position>
            <AltitudeMeters>21</AltitudeMeters>
            <DistanceMeters>NAN</DistanceMeters>
          </Trackpoint>
          <Trackpoint>
            <Time>2022-07-15T06:49:36.000Z</Time>
            <Position>
              <LatitudeDegrees>43.389673791825771331787109375</LatitudeDegrees>
              <LongitudeDegrees>-4.3706952966749668121337890625</LongitudeDegrees>
            </Position>
            <AltitudeMeters>20.3999996185302734375</AltitudeMeters>
            <DistanceMeters>NAN</DistanceMeters>
          </Trackpoint>
          <Trackpoint>
            <Time>2022-07-15T06:49:37.000Z</Time>
            <Position>
              <LatitudeDegrees>43.3896159566938877105712890625</LatitudeDegrees>
              <LongitudeDegrees>-4.37074013985693454742431640625</LongitudeDegrees>
            </Position>
            <AltitudeMeters>19.799999237060546875</AltitudeMeters>
            <DistanceMeters>NAN</DistanceMeters>
          </Trackpoint>
          <Trackpoint>
            <Time>2022-07-15T06:49:39.000Z</Time>
            <Position>
              <LatitudeDegrees>43.38948846794664859771728515625</LatitudeDegrees>
              <LongitudeDegrees>-4.370846338570117950439453125</LongitudeDegrees>
            </Position>
            <AltitudeMeters>18.3999996185302734375</AltitudeMeters>
            <DistanceMeters>NAN</DistanceMeters>
          </Trackpoint>
          <Trackpoint>
            <Time>2022-07-15T06:49:41.000Z</Time>
            <Position>
              <LatitudeDegrees>43.38935418985784053802490234375</LatitudeDegrees>
              <LongitudeDegrees>-4.3709682114422321319580078125</LongitudeDegrees>
            </Position>
            <AltitudeMeters>17.6000003814697265625</AltitudeMeters>
            <DistanceMeters>NAN</DistanceMeters>
          </Trackpoint>
          <Trackpoint>
            <Time>2022-07-15T06:49:42.000Z</Time>
            <Position>
              <LatitudeDegrees>43.3892857097089290618896484375</LatitudeDegrees>
              <LongitudeDegrees>-4.37102713622152805328369140625</LongitudeDegrees>
            </Position>
            <AltitudeMeters>17</AltitudeMeters>
            <DistanceMeters>NAN</DistanceMeters>
          </Trackpoint>
          <Trackpoint>
            <Time>2022-07-15T06:49:44.000Z</Time>
            <Position>
              <LatitudeDegrees>43.3891489170491695404052734375</LatitudeDegrees>
              <LongitudeDegrees>-4.37114397995173931121826171875</LongitudeDegrees>
            </Position>
            <AltitudeMeters>15.3999996185302734375</AltitudeMeters>
            <DistanceMeters>NAN</DistanceMeters>
          </Trackpoint>
          <Trackpoint>
            <Time>2022-07-15T06:49:45.000Z</Time>
            <Position>
              <LatitudeDegrees>43.38908513076603412628173828125</LatitudeDegrees>
              <LongitudeDegrees>-4.371213801205158233642578125</LongitudeDegrees>
            </Position>
            <AltitudeMeters>14.3999996185302734375</AltitudeMeters>
            <DistanceMeters>NAN</DistanceMeters>
          </Trackpoint>
          <Trackpoint>
            <Time>2022-07-15T06:49:46.000Z</Time>
            <Position>
              <LatitudeDegrees>43.38903198949992656707763671875</LatitudeDegrees>
              <LongitudeDegrees>-4.37130105681717395782470703125</LongitudeDegrees>
            </Position>
            <AltitudeMeters>13.80000019073486328125</AltitudeMeters>
            <DistanceMeters>NAN</DistanceMeters>
          </Trackpoint>
          <Trackpoint>
            <Time>2022-07-15T06:49:47.000Z</Time>
            <Position>
              <LatitudeDegrees>43.38900064118206501007080078125</LatitudeDegrees>
              <LongitudeDegrees>-4.37140482477843761444091796875</LongitudeDegrees>
            </Position>
            <AltitudeMeters>12.80000019073486328125</AltitudeMeters>
            <DistanceMeters>NAN</DistanceMeters>
          </Trackpoint>
          <Trackpoint>
            <Time>2022-07-15T06:49:48.000Z</Time>
            <Position>
              <LatitudeDegrees>43.38898639194667339324951171875</LatitudeDegrees>
              <LongitudeDegrees>-4.37152049504220485687255859375</LongitudeDegrees>
            </Position>
            <AltitudeMeters>12</AltitudeMeters>
            <DistanceMeters>NAN</DistanceMeters>
          </Trackpoint>
          <Trackpoint>
            <Time>2022-07-15T06:49:49.000Z</Time>
            <Position>
              <LatitudeDegrees>43.38897834531962871551513671875</LatitudeDegrees>
              <LongitudeDegrees>-4.37163968570530414581298828125</LongitudeDegrees>
            </Position>
            <AltitudeMeters>11</AltitudeMeters>
            <DistanceMeters>NAN</DistanceMeters>
          </Trackpoint>
          <Trackpoint>
            <Time>2022-07-15T06:49:51.000Z</Time>
            <Position>
              <LatitudeDegrees>43.38896258734166622161865234375</LatitudeDegrees>
              <LongitudeDegrees>-4.37188996933400630950927734375</LongitudeDegrees>
            </Position>
            <AltitudeMeters>9.80000019073486328125</AltitudeMeters>
            <DistanceMeters>NAN</DistanceMeters>
          </Trackpoint>
          <Trackpoint>
            <Time>2022-07-15T06:49:53.000Z</Time>
            <Position>
              <LatitudeDegrees>43.388949930667877197265625</LatitudeDegrees>
              <LongitudeDegrees>-4.3721319548785686492919921875</LongitudeDegrees>
            </Position>
            <AltitudeMeters>8.3999996185302734375</AltitudeMeters>
            <DistanceMeters>NAN</DistanceMeters>
          </Trackpoint>
          <Trackpoint>
            <Time>2022-07-15T06:49:54.000Z</Time>
            <Position>
              <LatitudeDegrees>43.38895261287689208984375</LatitudeDegrees>
              <LongitudeDegrees>-4.3722570128738880157470703125</LongitudeDegrees>
            </Position>
            <AltitudeMeters>8</AltitudeMeters>
            <DistanceMeters>NAN</DistanceMeters>
          </Trackpoint>
          <Trackpoint>
            <Time>2022-07-15T06:49:55.000Z</Time>
            <Position>
              <LatitudeDegrees>43.388963676989078521728515625</LatitudeDegrees>
              <LongitudeDegrees>-4.372377209365367889404296875</LongitudeDegrees>
            </Position>
            <AltitudeMeters>7.599999904632568359375</AltitudeMeters>
            <DistanceMeters>NAN</DistanceMeters>
          </Trackpoint>
          <Trackpoint>
            <Time>2022-07-15T06:49:56.000Z</Time>
            <Position>
              <LatitudeDegrees>43.388977758586406707763671875</LatitudeDegrees>
              <LongitudeDegrees>-4.372499249875545501708984375</LongitudeDegrees>
            </Position>
            <AltitudeMeters>7.400000095367431640625</AltitudeMeters>
            <DistanceMeters>NAN</DistanceMeters>
          </Trackpoint>
          <Trackpoint>
            <Time>2022-07-15T06:49:57.000Z</Time>
            <Position>
              <LatitudeDegrees>43.38900080882012844085693359375</LatitudeDegrees>
              <LongitudeDegrees>-4.3726073764264583587646484375</LongitudeDegrees>
            </Position>
            <AltitudeMeters>7</AltitudeMeters>
            <DistanceMeters>NAN</DistanceMeters>
          </Trackpoint>
          <Trackpoint>
            <Time>2022-07-15T06:49:58.000Z</Time>
            <Position>
              <LatitudeDegrees>43.38904137723147869110107421875</LatitudeDegrees>
              <LongitudeDegrees>-4.37270318157970905303955078125</LongitudeDegrees>
            </Position>
            <AltitudeMeters>6.599999904632568359375</AltitudeMeters>
            <DistanceMeters>NAN</DistanceMeters>
          </Trackpoint>
          <Trackpoint>
            <Time>2022-07-15T06:49:59.000Z</Time>
            <Position>
              <LatitudeDegrees>43.38909669779241085052490234375</LatitudeDegrees>
              <LongitudeDegrees>-4.3727825582027435302734375</LongitudeDegrees>
            </Position>
            <AltitudeMeters>6.400000095367431640625</AltitudeMeters>
            <DistanceMeters>NAN</DistanceMeters>
          </Trackpoint>
          <Trackpoint>
            <Time>2022-07-15T06:50:00.000Z</Time>
            <Position>
              <LatitudeDegrees>43.3891586400568485260009765625</LatitudeDegrees>
              <LongitudeDegrees>-4.37285070307552814483642578125</LongitudeDegrees>
            </Position>
            <AltitudeMeters>6.19999980926513671875</AltitudeMeters>
            <DistanceMeters>NAN</DistanceMeters>
          </Trackpoint>
          <Trackpoint>
            <Time>2022-07-15T06:50:01.000Z</Time>
            <Position>
              <LatitudeDegrees>43.3892196603119373321533203125</LatitudeDegrees>
              <LongitudeDegrees>-4.3729020841419696807861328125</LongitudeDegrees>
            </Position>
            <AltitudeMeters>6.19999980926513671875</AltitudeMeters>
            <DistanceMeters>NAN</DistanceMeters>
          </Trackpoint>
          <Trackpoint>
            <Time>2022-07-15T06:50:07.000Z</Time>
            <Position>
              <LatitudeDegrees>43.38950975798070430755615234375</LatitudeDegrees>
              <LongitudeDegrees>-4.3731200136244297027587890625</LongitudeDegrees>
            </Position>
            <AltitudeMeters>6.19999980926513671875</AltitudeMeters>
            <DistanceMeters>NAN</DistanceMeters>
          </Trackpoint>
          <Trackpoint>
            <Time>2022-07-15T06:50:11.000Z</Time>
            <Position>
              <LatitudeDegrees>43.38966096751391887664794921875</LatitudeDegrees>
              <LongitudeDegrees>-4.37329075299203395843505859375</LongitudeDegrees>
            </Position>
            <AltitudeMeters>6</AltitudeMeters>
            <DistanceMeters>NAN</DistanceMeters>
          </Trackpoint>
          <Trackpoint>
            <Time>2022-07-15T06:50:12.000Z</Time>
            <Position>
              <LatitudeDegrees>43.38968376629054546356201171875</LatitudeDegrees>
              <LongitudeDegrees>-4.37333199195563793182373046875</LongitudeDegrees>
            </Position>
            <AltitudeMeters>6</AltitudeMeters>
            <DistanceMeters>NAN</DistanceMeters>
          </Trackpoint>
          <Trackpoint>
            <Time>2022-07-15T06:50:18.000Z</Time>
            <Position>
              <LatitudeDegrees>43.3897876180708408355712890625</LatitudeDegrees>
              <LongitudeDegrees>-4.37352913431823253631591796875</LongitudeDegrees>
            </Position>
            <AltitudeMeters>6.19999980926513671875</AltitudeMeters>
            <DistanceMeters>NAN</DistanceMeters>
          </Trackpoint>
          <Trackpoint>
            <Time>2022-07-15T06:50:24.000Z</Time>
            <Position>
              <LatitudeDegrees>43.38985475711524486541748046875</LatitudeDegrees>
              <LongitudeDegrees>-4.37367414124310016632080078125</LongitudeDegrees>
            </Position>
            <AltitudeMeters>6.80000019073486328125</AltitudeMeters>
            <DistanceMeters>NAN</DistanceMeters>
          </Trackpoint>
          <Trackpoint>
            <Time>2022-07-15T06:50:30.000Z</Time>
            <Position>
              <LatitudeDegrees>43.38988895528018474578857421875</LatitudeDegrees>
              <LongitudeDegrees>-4.3737945891916751861572265625</LongitudeDegrees>
            </Position>
            <AltitudeMeters>7</AltitudeMeters>
            <DistanceMeters>NAN</DistanceMeters>
          </Trackpoint>
          <Trackpoint>
            <Time>2022-07-15T06:50:36.000Z</Time>
            <Position>
              <LatitudeDegrees>43.38992734439671039581298828125</LatitudeDegrees>
              <LongitudeDegrees>-4.3739250116050243377685546875</LongitudeDegrees>
            </Position>
            <AltitudeMeters>7.599999904632568359375</AltitudeMeters>
            <DistanceMeters>NAN</DistanceMeters>
          </Trackpoint>
          <Trackpoint>
            <Time>2022-07-15T06:50:39.000Z</Time>
            <Position>
              <LatitudeDegrees>43.38994461111724376678466796875</LatitudeDegrees>
              <LongitudeDegrees>-4.37398896552622318267822265625</LongitudeDegrees>
            </Position>
            <AltitudeMeters>8.19999980926513671875</AltitudeMeters>
            <DistanceMeters>NAN</DistanceMeters>
          </Trackpoint>
          <Trackpoint>
            <Time>2022-07-15T06:50:41.000Z</Time>
            <Position>
              <LatitudeDegrees>43.38995777070522308349609375</LatitudeDegrees>
              <LongitudeDegrees>-4.37403523363173007965087890625</LongitudeDegrees>
            </Position>
            <AltitudeMeters>8.6000003814697265625</AltitudeMeters>
            <DistanceMeters>NAN</DistanceMeters>
          </Trackpoint>
          <Trackpoint>
            <Time>2022-07-15T06:50:48.000Z</Time>
            <Position>
              <LatitudeDegrees>43.39000261388719081878662109375</LatitudeDegrees>
              <LongitudeDegrees>-4.3741690926253795623779296875</LongitudeDegrees>
            </Position>
            <AltitudeMeters>9.19999980926513671875</AltitudeMeters>
            <DistanceMeters>NAN</DistanceMeters>
          </Trackpoint>
          <Trackpoint>
            <Time>2022-07-15T06:50:52.000Z</Time>
            <Position>
              <LatitudeDegrees>43.39002256281673908233642578125</LatitudeDegrees>
              <LongitudeDegrees>-4.37424863688647747039794921875</LongitudeDegrees>
            </Position>
            <AltitudeMeters>9.6000003814697265625</AltitudeMeters>
            <DistanceMeters>NAN</DistanceMeters>
          </Trackpoint>
          <Trackpoint>
            <Time>2022-07-15T06:50:57.000Z</Time>
            <Position>
              <LatitudeDegrees>43.3900454454123973846435546875</LatitudeDegrees>
              <LongitudeDegrees>-4.37433622777462005615234375</LongitudeDegrees>
            </Position>
            <AltitudeMeters>10.19999980926513671875</AltitudeMeters>
            <DistanceMeters>NAN</DistanceMeters>
          </Trackpoint>
          <Trackpoint>
            <Time>2022-07-15T06:51:00.000Z</Time>
            <Position>
              <LatitudeDegrees>43.39006103575229644775390625</LatitudeDegrees>
              <LongitudeDegrees>-4.37438878230750560760498046875</LongitudeDegrees>
            </Position>
            <AltitudeMeters>10.6000003814697265625</AltitudeMeters>
            <DistanceMeters>NAN</DistanceMeters>
          </Trackpoint>
          <Trackpoint>
            <Time>2022-07-15T06:51:05.000Z</Time>
            <Position>
              <LatitudeDegrees>43.39009481482207775115966796875</LatitudeDegrees>
              <LongitudeDegrees>-4.37448550947010517120361328125</LongitudeDegrees>
            </Position>
            <AltitudeMeters>11</AltitudeMeters>
            <DistanceMeters>NAN</DistanceMeters>
          </Trackpoint>
          <Trackpoint>
            <Time>2022-07-15T06:51:10.000Z</Time>
            <Position>
              <LatitudeDegrees>43.3901242353022098541259765625</LatitudeDegrees>
              <LongitudeDegrees>-4.37457201071083545684814453125</LongitudeDegrees>
            </Position>
            <AltitudeMeters>11.3999996185302734375</AltitudeMeters>
            <DistanceMeters>NAN</DistanceMeters>
          </Trackpoint>
          <Trackpoint>
            <Time>2022-07-15T06:51:12.000Z</Time>
            <Position>
              <LatitudeDegrees>43.3901339583098888397216796875</LatitudeDegrees>
              <LongitudeDegrees>-4.3746042810380458831787109375</LongitudeDegrees>
            </Position>
            <AltitudeMeters>11.80000019073486328125</AltitudeMeters>
            <DistanceMeters>NAN</DistanceMeters>
          </Trackpoint>
          <Trackpoint>
            <Time>2022-07-15T06:51:14.000Z</Time>
            <Position>
              <LatitudeDegrees>43.39014711789786815643310546875</LatitudeDegrees>
              <LongitudeDegrees>-4.3746331147849559783935546875</LongitudeDegrees>
            </Position>
            <AltitudeMeters>12</AltitudeMeters>
            <DistanceMeters>NAN</DistanceMeters>
          </Trackpoint>
          <Trackpoint>
            <Time>2022-07-15T06:51:19.000Z</Time>
            <Position>
              <LatitudeDegrees>43.3901564218103885650634765625</LatitudeDegrees>
              <LongitudeDegrees>-4.37466706149280071258544921875</LongitudeDegrees>
            </Position>
            <AltitudeMeters>12.6000003814697265625</AltitudeMeters>
            <DistanceMeters>NAN</DistanceMeters>
          </Trackpoint>
          <Trackpoint>
            <Time>2022-07-15T06:52:23.000Z</Time>
            <Position>
              <LatitudeDegrees>43.39016421698033809661865234375</LatitudeDegrees>
              <LongitudeDegrees>-4.37469086609780788421630859375</LongitudeDegrees>
            </Position>
            <AltitudeMeters>12.80000019073486328125</AltitudeMeters>
            <DistanceMeters>NAN</DistanceMeters>
          </Trackpoint>
          <Trackpoint>
            <Time>2022-07-15T06:52:24.000Z</Time>
            <Position>
              <LatitudeDegrees>43.39016974903643131256103515625</LatitudeDegrees>
              <LongitudeDegrees>-4.37470905482769012451171875</LongitudeDegrees>
            </Position>
            <AltitudeMeters>12.80000019073486328125</AltitudeMeters>
            <DistanceMeters>NAN</DistanceMeters>
          </Trackpoint>
          <Trackpoint>
            <Time>2022-07-15T06:52:27.000Z</Time>
            <Position>
              <LatitudeDegrees>43.39018735103309154510498046875</LatitudeDegrees>
              <LongitudeDegrees>-4.374757669866085052490234375</LongitudeDegrees>
            </Position>
            <AltitudeMeters>12.80000019073486328125</AltitudeMeters>
            <DistanceMeters>NAN</DistanceMeters>
          </Trackpoint>
          <Trackpoint>
            <Time>2022-07-15T06:52:28.000Z</Time>
            <Position>
              <LatitudeDegrees>43.3901917934417724609375</LatitudeDegrees>
              <LongitudeDegrees>-4.3747813068330287933349609375</LongitudeDegrees>
            </Position>
            <AltitudeMeters>13</AltitudeMeters>
            <DistanceMeters>NAN</DistanceMeters>
          </Trackpoint>
          <Trackpoint>
            <Time>2022-07-15T06:52:29.000Z</Time>
            <Position>
              <LatitudeDegrees>43.39019640348851680755615234375</LatitudeDegrees>
              <LongitudeDegrees>-4.37480502761900424957275390625</LongitudeDegrees>
            </Position>
            <AltitudeMeters>13.3999996185302734375</AltitudeMeters>
            <DistanceMeters>NAN</DistanceMeters>
          </Trackpoint>
          <Trackpoint>
            <Time>2022-07-15T06:52:35.000Z</Time>
            <Position>
              <LatitudeDegrees>43.39023001492023468017578125</LatitudeDegrees>
              <LongitudeDegrees>-4.37492975033819675445556640625</LongitudeDegrees>
            </Position>
            <AltitudeMeters>13.80000019073486328125</AltitudeMeters>
            <DistanceMeters>NAN</DistanceMeters>
          </Trackpoint>
          <Trackpoint>
            <Time>2022-07-15T06:52:37.000Z</Time>
            <Position>
              <LatitudeDegrees>43.3902402408421039581298828125</LatitudeDegrees>
              <LongitudeDegrees>-4.3749647028744220733642578125</LongitudeDegrees>
            </Position>
            <AltitudeMeters>14</AltitudeMeters>
            <DistanceMeters>NAN</DistanceMeters>
          </Trackpoint>
          <Trackpoint>
            <Time>2022-07-15T06:52:44.000Z</Time>
            <Position>
              <LatitudeDegrees>43.39026329107582569122314453125</LatitudeDegrees>
              <LongitudeDegrees>-4.37509655021131038665771484375</LongitudeDegrees>
            </Position>
            <AltitudeMeters>14.80000019073486328125</AltitudeMeters>
            <DistanceMeters>NAN</DistanceMeters>
          </Trackpoint>
          <Trackpoint>
            <Time>2022-07-15T06:52:47.000Z</Time>
            <Position>
              <LatitudeDegrees>43.390269242227077484130859375</LatitudeDegrees>
              <LongitudeDegrees>-4.3751534633338451385498046875</LongitudeDegrees>
            </Position>
            <AltitudeMeters>15.19999980926513671875</AltitudeMeters>
            <DistanceMeters>NAN</DistanceMeters>
          </Trackpoint>
          <Trackpoint>
            <Time>2022-07-15T06:52:49.000Z</Time>
            <Position>
              <LatitudeDegrees>43.3902714215219020843505859375</LatitudeDegrees>
              <LongitudeDegrees>-4.3751911818981170654296875</LongitudeDegrees>
            </Position>
            <AltitudeMeters>15.3999996185302734375</AltitudeMeters>
            <DistanceMeters>NAN</DistanceMeters>
          </Trackpoint>
          <Trackpoint>
            <Time>2022-07-15T06:52:53.000Z</Time>
            <Position>
              <LatitudeDegrees>43.3902776241302490234375</LatitudeDegrees>
              <LongitudeDegrees>-4.37526552937924861907958984375</LongitudeDegrees>
            </Position>
            <AltitudeMeters>16</AltitudeMeters>
            <DistanceMeters>NAN</DistanceMeters>
          </Trackpoint>
          <Trackpoint>
            <Time>2022-07-15T06:52:56.000Z</Time>
            <Position>
              <LatitudeDegrees>43.390281312167644500732421875</LatitudeDegrees>
              <LongitudeDegrees>-4.37532068230211734771728515625</LongitudeDegrees>
            </Position>
            <AltitudeMeters>16.200000762939453125</AltitudeMeters>
            <DistanceMeters>NAN</DistanceMeters>
          </Trackpoint>
          <Trackpoint>
            <Time>2022-07-15T06:53:03.000Z</Time>
            <Position>
              <LatitudeDegrees>43.39029028080403804779052734375</LatitudeDegrees>
              <LongitudeDegrees>-4.3754513561725616455078125</LongitudeDegrees>
            </Position>
            <AltitudeMeters>17</AltitudeMeters>
            <DistanceMeters>NAN</DistanceMeters>
          </Trackpoint>
          <Trackpoint>
            <Time>2022-07-15T06:53:05.000Z</Time>
            <Position>
              <LatitudeDegrees>43.3902915380895137786865234375</LatitudeDegrees>
              <LongitudeDegrees>-4.37548144720494747161865234375</LongitudeDegrees>
            </Position>
            <AltitudeMeters>17.200000762939453125</AltitudeMeters>
            <DistanceMeters>NAN</DistanceMeters>
          </Trackpoint>
          <Trackpoint>
            <Time>2022-07-15T06:53:15.000Z</Time>
            <Position>
              <LatitudeDegrees>43.39029614813625812530517578125</LatitudeDegrees>
              <LongitudeDegrees>-4.3756215088069438934326171875</LongitudeDegrees>
            </Position>
            <AltitudeMeters>18</AltitudeMeters>
            <DistanceMeters>NAN</DistanceMeters>
          </Trackpoint>
          <Trackpoint>
            <Time>2022-07-15T06:53:16.000Z</Time>
            <Position>
              <LatitudeDegrees>43.39029614813625812530517578125</LatitudeDegrees>
              <LongitudeDegrees>-4.3756215088069438934326171875</LongitudeDegrees>
            </Position>
            <AltitudeMeters>18.200000762939453125</AltitudeMeters>
            <DistanceMeters>NAN</DistanceMeters>
          </Trackpoint>
          <Trackpoint>
            <Time>2022-07-15T06:53:59.000Z</Time>
            <Position>
              <LatitudeDegrees>43.39028256945312023162841796875</LatitudeDegrees>
              <LongitudeDegrees>-4.37573960982263088226318359375</LongitudeDegrees>
            </Position>
            <AltitudeMeters>18.6000003814697265625</AltitudeMeters>
            <DistanceMeters>NAN</DistanceMeters>
          </Trackpoint>
          <Trackpoint>
            <Time>2022-07-15T06:54:02.000Z</Time>
            <Position>
              <LatitudeDegrees>43.3902694098651409149169921875</LatitudeDegrees>
              <LongitudeDegrees>-4.37582208774983882904052734375</LongitudeDegrees>
            </Position>
            <AltitudeMeters>18.799999237060546875</AltitudeMeters>
            <DistanceMeters>NAN</DistanceMeters>
          </Trackpoint>
          <Trackpoint>
            <Time>2022-07-15T06:54:07.000Z</Time>
            <Position>
              <LatitudeDegrees>43.39025105349719524383544921875</LatitudeDegrees>
              <LongitudeDegrees>-4.375973381102085113525390625</LongitudeDegrees>
            </Position>
            <AltitudeMeters>19</AltitudeMeters>
            <DistanceMeters>NAN</DistanceMeters>
          </Trackpoint>
          <Trackpoint>
            <Time>2022-07-15T06:54:10.000Z</Time>
            <Position>
              <LatitudeDegrees>43.39023428969085216522216796875</LatitudeDegrees>
              <LongitudeDegrees>-4.37604605220258235931396484375</LongitudeDegrees>
            </Position>
            <AltitudeMeters>19.200000762939453125</AltitudeMeters>
            <DistanceMeters>NAN</DistanceMeters>
          </Trackpoint>
          <Trackpoint>
            <Time>2022-07-15T06:54:17.000Z</Time>
            <Position>
              <LatitudeDegrees>43.39019087143242359161376953125</LatitudeDegrees>
              <LongitudeDegrees>-4.3762240000069141387939453125</LongitudeDegrees>
            </Position>
            <AltitudeMeters>20.200000762939453125</AltitudeMeters>
            <DistanceMeters>NAN</DistanceMeters>
          </Trackpoint>
          <Trackpoint>
            <Time>2022-07-15T06:54:20.000Z</Time>
            <Position>
              <LatitudeDegrees>43.3901658095419406890869140625</LatitudeDegrees>
              <LongitudeDegrees>-4.37629499472677707672119140625</LongitudeDegrees>
            </Position>
            <AltitudeMeters>20.3999996185302734375</AltitudeMeters>
            <DistanceMeters>NAN</DistanceMeters>
          </Trackpoint>
          <Trackpoint>
            <Time>2022-07-15T06:54:23.000Z</Time>
            <Position>
              <LatitudeDegrees>43.39013840071856975555419921875</LatitudeDegrees>
              <LongitudeDegrees>-4.376362971961498260498046875</LongitudeDegrees>
            </Position>
            <AltitudeMeters>20.799999237060546875</AltitudeMeters>
            <DistanceMeters>NAN</DistanceMeters>
          </Trackpoint>
          <Trackpoint>
            <Time>2022-07-15T06:54:27.000Z</Time>
            <Position>
              <LatitudeDegrees>43.39010059833526611328125</LatitudeDegrees>
              <LongitudeDegrees>-4.37646347098052501678466796875</LongitudeDegrees>
            </Position>
            <AltitudeMeters>21.200000762939453125</AltitudeMeters>
            <DistanceMeters>NAN</DistanceMeters>
          </Trackpoint>
          <Trackpoint>
            <Time>2022-07-15T06:54:28.000Z</Time>
            <Position>
              <LatitudeDegrees>43.3900947310030460357666015625</LatitudeDegrees>
              <LongitudeDegrees>-4.376488029956817626953125</LongitudeDegrees>
            </Position>
            <AltitudeMeters>21.200000762939453125</AltitudeMeters>
            <DistanceMeters>NAN</DistanceMeters>
          </Trackpoint>
          <Trackpoint>
            <Time>2022-07-15T06:54:34.000Z</Time>
            <Position>
              <LatitudeDegrees>43.39004787616431713104248046875</LatitudeDegrees>
              <LongitudeDegrees>-4.37662373296916484832763671875</LongitudeDegrees>
            </Position>
            <AltitudeMeters>21.799999237060546875</AltitudeMeters>
            <DistanceMeters>NAN</DistanceMeters>
          </Trackpoint>
          <Trackpoint>
            <Time>2022-07-15T06:54:43.000Z</Time>
            <Position>
              <LatitudeDegrees>43.38996204547584056854248046875</LatitudeDegrees>
              <LongitudeDegrees>-4.37682925723493099212646484375</LongitudeDegrees>
            </Position>
            <AltitudeMeters>22.200000762939453125</AltitudeMeters>
            <DistanceMeters>NAN</DistanceMeters>
          </Trackpoint>
          <Trackpoint>
            <Time>2022-07-15T06:54:48.000Z</Time>
            <Position>
              <LatitudeDegrees>43.3899321220815181732177734375</LatitudeDegrees>
              <LongitudeDegrees>-4.37693931162357330322265625</LongitudeDegrees>
            </Position>
            <AltitudeMeters>22.6000003814697265625</AltitudeMeters>
            <DistanceMeters>NAN</DistanceMeters>
          </Trackpoint>
          <Trackpoint>
            <Time>2022-07-15T06:54:52.000Z</Time>
            <Position>
              <LatitudeDegrees>43.389898426830768585205078125</LatitudeDegrees>
              <LongitudeDegrees>-4.3770276568830013275146484375</LongitudeDegrees>
            </Position>
            <AltitudeMeters>22.799999237060546875</AltitudeMeters>
            <DistanceMeters>NAN</DistanceMeters>
          </Trackpoint>
          <Trackpoint>
            <Time>2022-07-15T06:54:57.000Z</Time>
            <Position>
              <LatitudeDegrees>43.3898540027439594268798828125</LatitudeDegrees>
              <LongitudeDegrees>-4.377142488956451416015625</LongitudeDegrees>
            </Position>
            <AltitudeMeters>23</AltitudeMeters>
            <DistanceMeters>NAN</DistanceMeters>
          </Trackpoint>
          <Trackpoint>
            <Time>2022-07-15T06:55:00.000Z</Time>
            <Position>
              <LatitudeDegrees>43.389825336635112762451171875</LatitudeDegrees>
              <LongitudeDegrees>-4.37720811925828456878662109375</LongitudeDegrees>
            </Position>
            <AltitudeMeters>23</AltitudeMeters>
            <DistanceMeters>NAN</DistanceMeters>
          </Trackpoint>
          <Trackpoint>
            <Time>2022-07-15T06:55:04.000Z</Time>
            <Position>
              <LatitudeDegrees>43.38979256339371204376220703125</LatitudeDegrees>
              <LongitudeDegrees>-4.37730769626796245574951171875</LongitudeDegrees>
            </Position>
            <AltitudeMeters>23.200000762939453125</AltitudeMeters>
            <DistanceMeters>NAN</DistanceMeters>
          </Trackpoint>
          <Trackpoint>
            <Time>2022-07-15T06:55:06.000Z</Time>
            <Position>
              <LatitudeDegrees>43.3897773921489715576171875</LatitudeDegrees>
              <LongitudeDegrees>-4.37735564075410366058349609375</LongitudeDegrees>
            </Position>
            <AltitudeMeters>23.3999996185302734375</AltitudeMeters>
            <DistanceMeters>NAN</DistanceMeters>
          </Trackpoint>
          <Trackpoint>
            <Time>2022-07-15T06:55:11.000Z</Time>
            <Position>
              <LatitudeDegrees>43.38975199498236179351806640625</LatitudeDegrees>
              <LongitudeDegrees>-4.37746703624725341796875</LongitudeDegrees>
            </Position>
            <AltitudeMeters>23.799999237060546875</AltitudeMeters>
            <DistanceMeters>NAN</DistanceMeters>
          </Trackpoint>
          <Trackpoint>
            <Time>2022-07-15T06:55:14.000Z</Time>
            <Position>
              <LatitudeDegrees>43.389720730483531951904296875</LatitudeDegrees>
              <LongitudeDegrees>-4.37753451056778430938720703125</LongitudeDegrees>
            </Position>
            <AltitudeMeters>24</AltitudeMeters>
            <DistanceMeters>NAN</DistanceMeters>
          </Trackpoint>
          <Trackpoint>
            <Time>2022-07-15T06:55:18.000Z</Time>
            <Position>
              <LatitudeDegrees>43.38969893753528594970703125</LatitudeDegrees>
              <LongitudeDegrees>-4.3776207603514194488525390625</LongitudeDegrees>
            </Position>
            <AltitudeMeters>24.3999996185302734375</AltitudeMeters>
            <DistanceMeters>NAN</DistanceMeters>
          </Trackpoint>
          <Trackpoint>
            <Time>2022-07-15T06:55:23.000Z</Time>
            <Position>
              <LatitudeDegrees>43.3896665833890438079833984375</LatitudeDegrees>
              <LongitudeDegrees>-4.37771086581051349639892578125</LongitudeDegrees>
            </Position>
            <AltitudeMeters>25</AltitudeMeters>
            <DistanceMeters>NAN</DistanceMeters>
          </Trackpoint>
          <Trackpoint>
            <Time>2022-07-15T06:55:27.000Z</Time>
            <Position>
              <LatitudeDegrees>43.38964101858437061309814453125</LatitudeDegrees>
              <LongitudeDegrees>-4.37777037732303142547607421875</LongitudeDegrees>
            </Position>
            <AltitudeMeters>25.3999996185302734375</AltitudeMeters>
            <DistanceMeters>NAN</DistanceMeters>
          </Trackpoint>
          <Trackpoint>
            <Time>2022-07-15T06:55:31.000Z</Time>
            <Position>
              <LatitudeDegrees>43.3896159566938877105712890625</LatitudeDegrees>
              <LongitudeDegrees>-4.37783877365291118621826171875</LongitudeDegrees>
            </Position>
            <AltitudeMeters>25.799999237060546875</AltitudeMeters>
            <DistanceMeters>NAN</DistanceMeters>
          </Trackpoint>
          <Trackpoint>
            <Time>2022-07-15T06:55:38.000Z</Time>
            <Position>
              <LatitudeDegrees>43.3895760588347911834716796875</LatitudeDegrees>
              <LongitudeDegrees>-4.37794555909931659698486328125</LongitudeDegrees>
            </Position>
            <AltitudeMeters>26.6000003814697265625</AltitudeMeters>
            <DistanceMeters>NAN</DistanceMeters>
          </Trackpoint>
          <Trackpoint>
            <Time>2022-07-15T06:55:39.000Z</Time>
            <Position>
              <LatitudeDegrees>43.389569856226444244384765625</LatitudeDegrees>
              <LongitudeDegrees>-4.377962909638881683349609375</LongitudeDegrees>
            </Position>
            <AltitudeMeters>26.6000003814697265625</AltitudeMeters>
            <DistanceMeters>NAN</DistanceMeters>
          </Trackpoint>
          <Trackpoint>
            <Time>2022-07-15T06:55:43.000Z</Time>
            <Position>
              <LatitudeDegrees>43.3895556069910526275634765625</LatitudeDegrees>
              <LongitudeDegrees>-4.378025941550731658935546875</LongitudeDegrees>
            </Position>
            <AltitudeMeters>27.200000762939453125</AltitudeMeters>
            <DistanceMeters>NAN</DistanceMeters>
          </Trackpoint>
          <Trackpoint>
            <Time>2022-07-15T06:55:46.000Z</Time>
            <Position>
              <LatitudeDegrees>43.3895385079085826873779296875</LatitudeDegrees>
              <LongitudeDegrees>-4.37807447277009487152099609375</LongitudeDegrees>
            </Position>
            <AltitudeMeters>27.6000003814697265625</AltitudeMeters>
            <DistanceMeters>NAN</DistanceMeters>
          </Trackpoint>
          <Trackpoint>
            <Time>2022-07-15T06:55:48.000Z</Time>
            <Position>
              <LatitudeDegrees>43.38953020982444286346435546875</LatitudeDegrees>
              <LongitudeDegrees>-4.37810649164021015167236328125</LongitudeDegrees>
            </Position>
            <AltitudeMeters>27.799999237060546875</AltitudeMeters>
            <DistanceMeters>NAN</DistanceMeters>
          </Trackpoint>
          <Trackpoint>
            <Time>2022-07-15T06:55:54.000Z</Time>
            <Position>
              <LatitudeDegrees>43.389491401612758636474609375</LatitudeDegrees>
              <LongitudeDegrees>-4.37821093015372753143310546875</LongitudeDegrees>
            </Position>
            <AltitudeMeters>28.799999237060546875</AltitudeMeters>
            <DistanceMeters>NAN</DistanceMeters>
          </Trackpoint>
          <Trackpoint>
            <Time>2022-07-15T06:55:57.000Z</Time>
            <Position>
              <LatitudeDegrees>43.38947891257703304290771484375</LatitudeDegrees>
              <LongitudeDegrees>-4.37825954519212245941162109375</LongitudeDegrees>
            </Position>
            <AltitudeMeters>29</AltitudeMeters>
            <DistanceMeters>NAN</DistanceMeters>
          </Trackpoint>
          <Trackpoint>
            <Time>2022-07-15T06:55:58.000Z</Time>
            <Position>
              <LatitudeDegrees>43.3894716203212738037109375</LatitudeDegrees>
              <LongitudeDegrees>-4.37827371060848236083984375</LongitudeDegrees>
            </Position>
            <AltitudeMeters>29.200000762939453125</AltitudeMeters>
            <DistanceMeters>NAN</DistanceMeters>
          </Trackpoint>
          <Trackpoint>
            <Time>2022-07-15T06:56:02.000Z</Time>
            <Position>
              <LatitudeDegrees>43.38945125229656696319580078125</LatitudeDegrees>
              <LongitudeDegrees>-4.37832995317876338958740234375</LongitudeDegrees>
            </Position>
            <AltitudeMeters>29.799999237060546875</AltitudeMeters>
            <DistanceMeters>NAN</DistanceMeters>
          </Trackpoint>
          <Trackpoint>
            <Time>2022-07-15T06:56:06.000Z</Time>
            <Position>
              <LatitudeDegrees>43.38942979462444782257080078125</LatitudeDegrees>
              <LongitudeDegrees>-4.37840379774570465087890625</LongitudeDegrees>
            </Position>
            <AltitudeMeters>30.3999996185302734375</AltitudeMeters>
            <DistanceMeters>NAN</DistanceMeters>
          </Trackpoint>
          <Trackpoint>
            <Time>2022-07-15T06:56:10.000Z</Time>
            <Position>
              <LatitudeDegrees>43.3894161321222782135009765625</LatitudeDegrees>
              <LongitudeDegrees>-4.37846423126757144927978515625</LongitudeDegrees>
            </Position>
            <AltitudeMeters>31</AltitudeMeters>
            <DistanceMeters>NAN</DistanceMeters>
          </Trackpoint>
          <Trackpoint>
            <Time>2022-07-15T06:56:16.000Z</Time>
            <Position>
              <LatitudeDegrees>43.38939559645950794219970703125</LatitudeDegrees>
              <LongitudeDegrees>-4.37856816686689853668212890625</LongitudeDegrees>
            </Position>
            <AltitudeMeters>31.799999237060546875</AltitudeMeters>
            <DistanceMeters>NAN</DistanceMeters>
          </Trackpoint>
          <Trackpoint>
            <Time>2022-07-15T06:56:19.000Z</Time>
            <Position>
              <LatitudeDegrees>43.38938252069056034088134765625</LatitudeDegrees>
              <LongitudeDegrees>-4.3786115013062953948974609375</LongitudeDegrees>
            </Position>
            <AltitudeMeters>32</AltitudeMeters>
            <DistanceMeters>NAN</DistanceMeters>
          </Trackpoint>
          <Trackpoint>
            <Time>2022-07-15T06:56:23.000Z</Time>
            <Position>
              <LatitudeDegrees>43.38935335166752338409423828125</LatitudeDegrees>
              <LongitudeDegrees>-4.37867092899978160858154296875</LongitudeDegrees>
            </Position>
            <AltitudeMeters>32.59999847412109375</AltitudeMeters>
            <DistanceMeters>NAN</DistanceMeters>
          </Trackpoint>
          <Trackpoint>
            <Time>2022-07-15T06:56:25.000Z</Time>
            <Position>
              <LatitudeDegrees>43.38934513740241527557373046875</LatitudeDegrees>
              <LongitudeDegrees>-4.37870395369827747344970703125</LongitudeDegrees>
            </Position>
            <AltitudeMeters>33</AltitudeMeters>
            <DistanceMeters>NAN</DistanceMeters>
          </Trackpoint>
          <Trackpoint>
            <Time>2022-07-15T06:56:27.000Z</Time>
            <Position>
              <LatitudeDegrees>43.38933692313730716705322265625</LatitudeDegrees>
              <LongitudeDegrees>-4.37873379327356815338134765625</LongitudeDegrees>
            </Position>
            <AltitudeMeters>33.200000762939453125</AltitudeMeters>
            <DistanceMeters>NAN</DistanceMeters>
          </Trackpoint>
          <Trackpoint>
            <Time>2022-07-15T06:56:32.000Z</Time>
            <Position>
              <LatitudeDegrees>43.38931915350258350372314453125</LatitudeDegrees>
              <LongitudeDegrees>-4.37880218960344791412353515625</LongitudeDegrees>
            </Position>
            <AltitudeMeters>33.59999847412109375</AltitudeMeters>
            <DistanceMeters>NAN</DistanceMeters>
          </Trackpoint>
          <Trackpoint>
            <Time>2022-07-15T06:56:34.000Z</Time>
            <Position>
              <LatitudeDegrees>43.3893142081797122955322265625</LatitudeDegrees>
              <LongitudeDegrees>-4.37883454374969005584716796875</LongitudeDegrees>
            </Position>
            <AltitudeMeters>33.799999237060546875</AltitudeMeters>
            <DistanceMeters>NAN</DistanceMeters>
          </Trackpoint>
          <Trackpoint>
            <Time>2022-07-15T06:56:37.000Z</Time>
            <Position>
              <LatitudeDegrees>43.3893192373216152191162109375</LatitudeDegrees>
              <LongitudeDegrees>-4.37888952903449535369873046875</LongitudeDegrees>
            </Position>
            <AltitudeMeters>34.200000762939453125</AltitudeMeters>
            <DistanceMeters>NAN</DistanceMeters>
          </Trackpoint>
          <Trackpoint>
            <Time>2022-07-15T06:56:42.000Z</Time>
            <Position>
              <LatitudeDegrees>43.38933072052896022796630859375</LatitudeDegrees>
              <LongitudeDegrees>-4.37898659147322177886962890625</LongitudeDegrees>
            </Position>
            <AltitudeMeters>34.40000152587890625</AltitudeMeters>
            <DistanceMeters>NAN</DistanceMeters>
          </Trackpoint>
          <Trackpoint>
            <Time>2022-07-15T06:56:45.000Z</Time>
            <Position>
              <LatitudeDegrees>43.389322757720947265625</LatitudeDegrees>
              <LongitudeDegrees>-4.379062615334987640380859375</LongitudeDegrees>
            </Position>
            <AltitudeMeters>34.40000152587890625</AltitudeMeters>
            <DistanceMeters>NAN</DistanceMeters>
          </Trackpoint>
          <Trackpoint>
            <Time>2022-07-15T06:56:46.000Z</Time>
            <Position>
              <LatitudeDegrees>43.3893235959112644195556640625</LatitudeDegrees>
              <LongitudeDegrees>-4.37908834777772426605224609375</LongitudeDegrees>
            </Position>
            <AltitudeMeters>34.40000152587890625</AltitudeMeters>
            <DistanceMeters>NAN</DistanceMeters>
          </Trackpoint>
          <Trackpoint>
            <Time>2022-07-15T06:56:52.000Z</Time>
            <Position>
              <LatitudeDegrees>43.38930691592395305633544921875</LatitudeDegrees>
              <LongitudeDegrees>-4.37924693338572978973388671875</LongitudeDegrees>
            </Position>
            <AltitudeMeters>34.799999237060546875</AltitudeMeters>
            <DistanceMeters>NAN</DistanceMeters>
          </Trackpoint>
          <Trackpoint>
            <Time>2022-07-15T06:57:02.000Z</Time>
            <Position>
              <LatitudeDegrees>43.38930624537169933319091796875</LatitudeDegrees>
              <LongitudeDegrees>-4.37948162667453289031982421875</LongitudeDegrees>
            </Position>
            <AltitudeMeters>35</AltitudeMeters>
            <DistanceMeters>NAN</DistanceMeters>
          </Trackpoint>
          <Trackpoint>
            <Time>2022-07-15T06:57:04.000Z</Time>
            <Position>
              <LatitudeDegrees>43.38931295089423656463623046875</LatitudeDegrees>
              <LongitudeDegrees>-4.37953141517937183380126953125</LongitudeDegrees>
            </Position>
            <AltitudeMeters>35.200000762939453125</AltitudeMeters>
            <DistanceMeters>NAN</DistanceMeters>
          </Trackpoint>
          <Trackpoint>
            <Time>2022-07-15T06:57:08.000Z</Time>
            <Position>
              <LatitudeDegrees>43.38933843187987804412841796875</LatitudeDegrees>
              <LongitudeDegrees>-4.3796471692621707916259765625</LongitudeDegrees>
            </Position>
            <AltitudeMeters>35.200000762939453125</AltitudeMeters>
            <DistanceMeters>NAN</DistanceMeters>
          </Trackpoint>
          <Trackpoint>
            <Time>2022-07-15T06:57:11.000Z</Time>
            <Position>
              <LatitudeDegrees>43.38934614323079586029052734375</LatitudeDegrees>
              <LongitudeDegrees>-4.3797319941222667694091796875</LongitudeDegrees>
            </Position>
            <AltitudeMeters>35.40000152587890625</AltitudeMeters>
            <DistanceMeters>NAN</DistanceMeters>
          </Trackpoint>
          <Trackpoint>
            <Time>2022-07-15T06:57:18.000Z</Time>
            <Position>
              <LatitudeDegrees>43.38934346102178096771240234375</LatitudeDegrees>
              <LongitudeDegrees>-4.37990038655698299407958984375</LongitudeDegrees>
            </Position>
            <AltitudeMeters>35.59999847412109375</AltitudeMeters>
            <DistanceMeters>NAN</DistanceMeters>
          </Trackpoint>
          <Trackpoint>
            <Time>2022-07-15T06:57:26.000Z</Time>
            <Position>
              <LatitudeDegrees>43.3892997913062572479248046875</LatitudeDegrees>
              <LongitudeDegrees>-4.380114041268825531005859375</LongitudeDegrees>
            </Position>
            <AltitudeMeters>35.799999237060546875</AltitudeMeters>
            <DistanceMeters>NAN</DistanceMeters>
          </Trackpoint>
          <Trackpoint>
            <Time>2022-07-15T06:57:27.000Z</Time>
            <Position>
              <LatitudeDegrees>43.389298617839813232421875</LatitudeDegrees>
              <LongitudeDegrees>-4.38013860024511814117431640625</LongitudeDegrees>
            </Position>
            <AltitudeMeters>35.799999237060546875</AltitudeMeters>
            <DistanceMeters>NAN</DistanceMeters>
          </Trackpoint>
          <Trackpoint>
            <Time>2022-07-15T06:57:32.000Z</Time>
            <Position>
              <LatitudeDegrees>43.38936902582645416259765625</LatitudeDegrees>
              <LongitudeDegrees>-4.380323924124240875244140625</LongitudeDegrees>
            </Position>
            <AltitudeMeters>35.200000762939453125</AltitudeMeters>
            <DistanceMeters>NAN</DistanceMeters>
          </Trackpoint>
          <Trackpoint>
            <Time>2022-07-15T06:57:35.000Z</Time>
            <Position>
              <LatitudeDegrees>43.38946382515132427215576171875</LatitudeDegrees>
              <LongitudeDegrees>-4.3804937414824962615966796875</LongitudeDegrees>
            </Position>
            <AltitudeMeters>33.40000152587890625</AltitudeMeters>
            <DistanceMeters>NAN</DistanceMeters>
          </Trackpoint>
          <Trackpoint>
            <Time>2022-07-15T06:57:37.000Z</Time>
            <Position>
              <LatitudeDegrees>43.38951193727552890777587890625</LatitudeDegrees>
              <LongitudeDegrees>-4.380600862205028533935546875</LongitudeDegrees>
            </Position>
            <AltitudeMeters>31.799999237060546875</AltitudeMeters>
            <DistanceMeters>NAN</DistanceMeters>
          </Trackpoint>
          <Trackpoint>
            <Time>2022-07-15T06:57:38.000Z</Time>
            <Position>
              <LatitudeDegrees>43.3895281143486499786376953125</LatitudeDegrees>
              <LongitudeDegrees>-4.38066615723073482513427734375</LongitudeDegrees>
            </Position>
            <AltitudeMeters>30.799999237060546875</AltitudeMeters>
            <DistanceMeters>NAN</DistanceMeters>
          </Trackpoint>
          <Trackpoint>
            <Time>2022-07-15T06:57:39.000Z</Time>
            <Position>
              <LatitudeDegrees>43.38953532278537750244140625</LatitudeDegrees>
              <LongitudeDegrees>-4.38074947334825992584228515625</LongitudeDegrees>
            </Position>
            <AltitudeMeters>29.3999996185302734375</AltitudeMeters>
            <DistanceMeters>NAN</DistanceMeters>
          </Trackpoint>
          <Trackpoint>
            <Time>2022-07-15T06:57:40.000Z</Time>
            <Position>
              <LatitudeDegrees>43.3895311318337917327880859375</LatitudeDegrees>
              <LongitudeDegrees>-4.380825497210025787353515625</LongitudeDegrees>
            </Position>
            <AltitudeMeters>28.3999996185302734375</AltitudeMeters>
            <DistanceMeters>NAN</DistanceMeters>
          </Trackpoint>
          <Trackpoint>
            <Time>2022-07-15T06:57:41.000Z</Time>
            <Position>
              <LatitudeDegrees>43.3895214088261127471923828125</LatitudeDegrees>
              <LongitudeDegrees>-4.380907304584980010986328125</LongitudeDegrees>
            </Position>
            <AltitudeMeters>27.3999996185302734375</AltitudeMeters>
            <DistanceMeters>NAN</DistanceMeters>
          </Trackpoint>
          <Trackpoint>
            <Time>2022-07-15T06:57:42.000Z</Time>
            <Position>
              <LatitudeDegrees>43.3895103447139263153076171875</LatitudeDegrees>
              <LongitudeDegrees>-4.38099212944507598876953125</LongitudeDegrees>
            </Position>
            <AltitudeMeters>26.3999996185302734375</AltitudeMeters>
            <DistanceMeters>NAN</DistanceMeters>
          </Trackpoint>
          <Trackpoint>
            <Time>2022-07-15T06:57:43.000Z</Time>
            <Position>
              <LatitudeDegrees>43.389498107135295867919921875</LatitudeDegrees>
              <LongitudeDegrees>-4.38107552938163280487060546875</LongitudeDegrees>
            </Position>
            <AltitudeMeters>25.200000762939453125</AltitudeMeters>
            <DistanceMeters>NAN</DistanceMeters>
          </Trackpoint>
          <Trackpoint>
            <Time>2022-07-15T06:57:45.000Z</Time>
            <Position>
              <LatitudeDegrees>43.38947908021509647369384765625</LatitudeDegrees>
              <LongitudeDegrees>-4.3812259845435619354248046875</LongitudeDegrees>
            </Position>
            <AltitudeMeters>23.200000762939453125</AltitudeMeters>
            <DistanceMeters>NAN</DistanceMeters>
          </Trackpoint>
          <Trackpoint>
            <Time>2022-07-15T06:57:46.000Z</Time>
            <Position>
              <LatitudeDegrees>43.3894731290638446807861328125</LatitudeDegrees>
              <LongitudeDegrees>-4.38129144720733165740966796875</LongitudeDegrees>
            </Position>
            <AltitudeMeters>22.200000762939453125</AltitudeMeters>
            <DistanceMeters>NAN</DistanceMeters>
          </Trackpoint>
          <Trackpoint>
            <Time>2022-07-15T06:57:47.000Z</Time>
            <Position>
              <LatitudeDegrees>43.3894694410264492034912109375</LatitudeDegrees>
              <LongitudeDegrees>-4.38134442083537578582763671875</LongitudeDegrees>
            </Position>
            <AltitudeMeters>21.200000762939453125</AltitudeMeters>
            <DistanceMeters>NAN</DistanceMeters>
          </Trackpoint>
          <Trackpoint>
            <Time>2022-07-15T06:57:48.000Z</Time>
            <Position>
              <LatitudeDegrees>43.38946449570357799530029296875</LatitudeDegrees>
              <LongitudeDegrees>-4.38138582743704319000244140625</LongitudeDegrees>
            </Position>
            <AltitudeMeters>20.200000762939453125</AltitudeMeters>
            <DistanceMeters>NAN</DistanceMeters>
          </Trackpoint>
          <Trackpoint>
            <Time>2022-07-15T06:57:49.000Z</Time>
            <Position>
              <LatitudeDegrees>43.38945896364748477935791015625</LatitudeDegrees>
              <LongitudeDegrees>-4.38142237253487110137939453125</LongitudeDegrees>
            </Position>
            <AltitudeMeters>19.3999996185302734375</AltitudeMeters>
            <DistanceMeters>NAN</DistanceMeters>
          </Trackpoint>
          <Trackpoint>
            <Time>2022-07-15T06:57:51.000Z</Time>
            <Position>
              <LatitudeDegrees>43.3894389308989048004150390625</LatitudeDegrees>
              <LongitudeDegrees>-4.381515495479106903076171875</LongitudeDegrees>
            </Position>
            <AltitudeMeters>17.799999237060546875</AltitudeMeters>
            <DistanceMeters>NAN</DistanceMeters>
          </Trackpoint>
          <Trackpoint>
            <Time>2022-07-15T06:57:53.000Z</Time>
            <Position>
              <LatitudeDegrees>43.3894164673984050750732421875</LatitudeDegrees>
              <LongitudeDegrees>-4.381632506847381591796875</LongitudeDegrees>
            </Position>
            <AltitudeMeters>16.3999996185302734375</AltitudeMeters>
            <DistanceMeters>NAN</DistanceMeters>
          </Trackpoint>
          <Trackpoint>
            <Time>2022-07-15T06:57:55.000Z</Time>
            <Position>
              <LatitudeDegrees>43.38939090259373188018798828125</LatitudeDegrees>
              <LongitudeDegrees>-4.38176871277391910552978515625</LongitudeDegrees>
            </Position>
            <AltitudeMeters>15</AltitudeMeters>
            <DistanceMeters>NAN</DistanceMeters>
          </Trackpoint>
          <Trackpoint>
            <Time>2022-07-15T06:57:57.000Z</Time>
            <Position>
              <LatitudeDegrees>43.3893701992928981781005859375</LatitudeDegrees>
              <LongitudeDegrees>-4.3818988837301731109619140625</LongitudeDegrees>
            </Position>
            <AltitudeMeters>13</AltitudeMeters>
            <DistanceMeters>NAN</DistanceMeters>
          </Trackpoint>
          <Trackpoint>
            <Time>2022-07-15T06:57:59.000Z</Time>
            <Position>
              <LatitudeDegrees>43.38935050182044506072998046875</LatitudeDegrees>
              <LongitudeDegrees>-4.382016398012638092041015625</LongitudeDegrees>
            </Position>
            <AltitudeMeters>11.19999980926513671875</AltitudeMeters>
            <DistanceMeters>NAN</DistanceMeters>
          </Trackpoint>
          <Trackpoint>
            <Time>2022-07-15T06:58:01.000Z</Time>
            <Position>
              <LatitudeDegrees>43.38933373801410198211669921875</LatitudeDegrees>
              <LongitudeDegrees>-4.382116310298442840576171875</LongitudeDegrees>
            </Position>
            <AltitudeMeters>9.6000003814697265625</AltitudeMeters>
            <DistanceMeters>NAN</DistanceMeters>
          </Trackpoint>
          <Trackpoint>
            <Time>2022-07-15T06:58:03.000Z</Time>
            <Position>
              <LatitudeDegrees>43.38931479491293430328369140625</LatitudeDegrees>
              <LongitudeDegrees>-4.38221228308975696563720703125</LongitudeDegrees>
            </Position>
            <AltitudeMeters>8.3999996185302734375</AltitudeMeters>
            <DistanceMeters>NAN</DistanceMeters>
          </Trackpoint>
          <Trackpoint>
            <Time>2022-07-15T06:58:05.000Z</Time>
            <Position>
              <LatitudeDegrees>43.38928797282278537750244140625</LatitudeDegrees>
              <LongitudeDegrees>-4.38229945488274097442626953125</LongitudeDegrees>
            </Position>
            <AltitudeMeters>7.599999904632568359375</AltitudeMeters>
            <DistanceMeters>NAN</DistanceMeters>
          </Trackpoint>
          <Trackpoint>
            <Time>2022-07-15T06:58:07.000Z</Time>
            <Position>
              <LatitudeDegrees>43.3892568759620189666748046875</LatitudeDegrees>
              <LongitudeDegrees>-4.38238444738090038299560546875</LongitudeDegrees>
            </Position>
            <AltitudeMeters>7</AltitudeMeters>
            <DistanceMeters>NAN</DistanceMeters>
          </Trackpoint>
          <Trackpoint>
            <Time>2022-07-15T06:58:11.000Z</Time>
            <Position>
              <LatitudeDegrees>43.3892082609236240386962890625</LatitudeDegrees>
              <LongitudeDegrees>-4.3825610540807247161865234375</LongitudeDegrees>
            </Position>
            <AltitudeMeters>5.80000019073486328125</AltitudeMeters>
            <DistanceMeters>NAN</DistanceMeters>
          </Trackpoint>
          <Trackpoint>
            <Time>2022-07-15T06:58:12.000Z</Time>
            <Position>
              <LatitudeDegrees>43.38919359259307384490966796875</LatitudeDegrees>
              <LongitudeDegrees>-4.3825989402830600738525390625</LongitudeDegrees>
            </Position>
            <AltitudeMeters>5.599999904632568359375</AltitudeMeters>
            <DistanceMeters>NAN</DistanceMeters>
          </Trackpoint>
          <Trackpoint>
            <Time>2022-07-15T06:58:19.000Z</Time>
            <Position>
              <LatitudeDegrees>43.389134667813777923583984375</LatitudeDegrees>
              <LongitudeDegrees>-4.38284846954047679901123046875</LongitudeDegrees>
            </Position>
            <AltitudeMeters>5</AltitudeMeters>
            <DistanceMeters>NAN</DistanceMeters>
          </Trackpoint>
          <Trackpoint>
            <Time>2022-07-15T06:58:20.000Z</Time>
            <Position>
              <LatitudeDegrees>43.38912804611027240753173828125</LatitudeDegrees>
              <LongitudeDegrees>-4.38287864439189434051513671875</LongitudeDegrees>
            </Position>
            <AltitudeMeters>4.80000019073486328125</AltitudeMeters>
            <DistanceMeters>NAN</DistanceMeters>
          </Trackpoint>
          <Trackpoint>
            <Time>2022-07-15T06:58:24.000Z</Time>
            <Position>
              <LatitudeDegrees>43.38910524733364582061767578125</LatitudeDegrees>
              <LongitudeDegrees>-4.3829831667244434356689453125</LongitudeDegrees>
            </Position>
            <AltitudeMeters>4.599999904632568359375</AltitudeMeters>
            <DistanceMeters>NAN</DistanceMeters>
          </Trackpoint>
          <Trackpoint>
            <Time>2022-07-15T06:58:26.000Z</Time>
            <Position>
              <LatitudeDegrees>43.38910591788589954376220703125</LatitudeDegrees>
              <LongitudeDegrees>-4.38300470821559429168701171875</LongitudeDegrees>
            </Position>
            <AltitudeMeters>4.599999904632568359375</AltitudeMeters>
            <DistanceMeters>NAN</DistanceMeters>
          </Trackpoint>
          <Trackpoint>
            <Time>2022-07-15T06:58:28.000Z</Time>
            <Position>
              <LatitudeDegrees>43.38910591788589954376220703125</LatitudeDegrees>
              <LongitudeDegrees>-4.38300470821559429168701171875</LongitudeDegrees>
            </Position>
            <AltitudeMeters>4.599999904632568359375</AltitudeMeters>
            <DistanceMeters>NAN</DistanceMeters>
          </Trackpoint>
          <Trackpoint>
            <Time>2022-07-15T07:01:39.000Z</Time>
            <Position>
              <LatitudeDegrees>43.38909753598272800445556640625</LatitudeDegrees>
              <LongitudeDegrees>-4.3830327875912189483642578125</LongitudeDegrees>
            </Position>
            <AltitudeMeters>3.7999999523162841796875</AltitudeMeters>
            <DistanceMeters>NAN</DistanceMeters>
          </Trackpoint>
          <Trackpoint>
            <Time>2022-07-15T07:01:40.000Z</Time>
            <Position>
              <LatitudeDegrees>43.38909284211695194244384765625</LatitudeDegrees>
              <LongitudeDegrees>-4.383059442043304443359375</LongitudeDegrees>
            </Position>
            <AltitudeMeters>3.7999999523162841796875</AltitudeMeters>
            <DistanceMeters>NAN</DistanceMeters>
          </Trackpoint>
          <Trackpoint>
            <Time>2022-07-15T07:01:42.000Z</Time>
            <Position>
              <LatitudeDegrees>43.3890999667346477508544921875</LatitudeDegrees>
              <LongitudeDegrees>-4.3831176124513149261474609375</LongitudeDegrees>
            </Position>
            <AltitudeMeters>3.7999999523162841796875</AltitudeMeters>
            <DistanceMeters>NAN</DistanceMeters>
          </Trackpoint>
          <Trackpoint>
            <Time>2022-07-15T07:01:44.000Z</Time>
            <Position>
              <LatitudeDegrees>43.3891120366752147674560546875</LatitudeDegrees>
              <LongitudeDegrees>-4.3831519782543182373046875</LongitudeDegrees>
            </Position>
            <AltitudeMeters>4.19999980926513671875</AltitudeMeters>
            <DistanceMeters>NAN</DistanceMeters>
          </Trackpoint>
          <Trackpoint>
            <Time>2022-07-15T07:01:45.000Z</Time>
            <Position>
              <LatitudeDegrees>43.389117233455181121826171875</LatitudeDegrees>
              <LongitudeDegrees>-4.3831618689000606536865234375</LongitudeDegrees>
            </Position>
            <AltitudeMeters>4.400000095367431640625</AltitudeMeters>
            <DistanceMeters>NAN</DistanceMeters>
          </Trackpoint>
          <Trackpoint>
            <Time>2022-07-15T07:01:49.000Z</Time>
            <Position>
              <LatitudeDegrees>43.3891619928181171417236328125</LatitudeDegrees>
              <LongitudeDegrees>-4.38322850503027439117431640625</LongitudeDegrees>
            </Position>
            <AltitudeMeters>4.599999904632568359375</AltitudeMeters>
            <DistanceMeters>NAN</DistanceMeters>
          </Trackpoint>
          <Trackpoint>
            <Time>2022-07-15T07:01:55.000Z</Time>
            <Position>
              <LatitudeDegrees>43.3891710452735424041748046875</LatitudeDegrees>
              <LongitudeDegrees>-4.38334870152175426483154296875</LongitudeDegrees>
            </Position>
            <AltitudeMeters>4.599999904632568359375</AltitudeMeters>
            <DistanceMeters>NAN</DistanceMeters>
          </Trackpoint>
          <Trackpoint>
            <Time>2022-07-15T07:01:57.000Z</Time>
            <Position>
              <LatitudeDegrees>43.3891811035573482513427734375</LatitudeDegrees>
              <LongitudeDegrees>-4.38339798711240291595458984375</LongitudeDegrees>
            </Position>
            <AltitudeMeters>4.80000019073486328125</AltitudeMeters>
            <DistanceMeters>NAN</DistanceMeters>
          </Trackpoint>
          <Trackpoint>
            <Time>2022-07-15T07:02:00.000Z</Time>
            <Position>
              <LatitudeDegrees>43.3892142958939075469970703125</LatitudeDegrees>
              <LongitudeDegrees>-4.38345707952976226806640625</LongitudeDegrees>
            </Position>
            <AltitudeMeters>4.599999904632568359375</AltitudeMeters>
            <DistanceMeters>NAN</DistanceMeters>
          </Trackpoint>
          <Trackpoint>
            <Time>2022-07-15T07:02:07.000Z</Time>
            <Position>
              <LatitudeDegrees>43.38922016322612762451171875</LatitudeDegrees>
              <LongitudeDegrees>-4.3836859054863452911376953125</LongitudeDegrees>
            </Position>
            <AltitudeMeters>5</AltitudeMeters>
            <DistanceMeters>NAN</DistanceMeters>
          </Trackpoint>
          <Trackpoint>
            <Time>2022-07-15T07:02:18.000Z</Time>
            <Position>
              <LatitudeDegrees>43.3892022259533405303955078125</LatitudeDegrees>
              <LongitudeDegrees>-4.38404238782823085784912109375</LongitudeDegrees>
            </Position>
            <AltitudeMeters>5</AltitudeMeters>
            <DistanceMeters>NAN</DistanceMeters>
          </Trackpoint>
          <Trackpoint>
            <Time>2022-07-15T07:02:21.000Z</Time>
            <Position>
              <LatitudeDegrees>43.38920004665851593017578125</LatitudeDegrees>
              <LongitudeDegrees>-4.3841348402202129364013671875</LongitudeDegrees>
            </Position>
            <AltitudeMeters>5</AltitudeMeters>
            <DistanceMeters>NAN</DistanceMeters>
          </Trackpoint>
          <Trackpoint>
            <Time>2022-07-15T07:02:24.000Z</Time>
            <Position>
              <LatitudeDegrees>43.38919945992529392242431640625</LatitudeDegrees>
              <LongitudeDegrees>-4.3842230178415775299072265625</LongitudeDegrees>
            </Position>
            <AltitudeMeters>5</AltitudeMeters>
            <DistanceMeters>NAN</DistanceMeters>
          </Trackpoint>
          <Trackpoint>
            <Time>2022-07-15T07:02:28.000Z</Time>
            <Position>
              <LatitudeDegrees>43.389200381934642791748046875</LatitudeDegrees>
              <LongitudeDegrees>-4.384335838258266448974609375</LongitudeDegrees>
            </Position>
            <AltitudeMeters>5.400000095367431640625</AltitudeMeters>
            <DistanceMeters>NAN</DistanceMeters>
          </Trackpoint>
          <Trackpoint>
            <Time>2022-07-15T07:02:30.000Z</Time>
            <Position>
              <LatitudeDegrees>43.3892002142965793609619140625</LatitudeDegrees>
              <LongitudeDegrees>-4.38438738696277141571044921875</LongitudeDegrees>
            </Position>
            <AltitudeMeters>5.599999904632568359375</AltitudeMeters>
            <DistanceMeters>NAN</DistanceMeters>
          </Trackpoint>
          <Trackpoint>
            <Time>2022-07-15T07:02:38.000Z</Time>
            <Position>
              <LatitudeDegrees>43.38918521068990230560302734375</LatitudeDegrees>
              <LongitudeDegrees>-4.3845884688198566436767578125</LongitudeDegrees>
            </Position>
            <AltitudeMeters>5.80000019073486328125</AltitudeMeters>
            <DistanceMeters>NAN</DistanceMeters>
          </Trackpoint>
          <Trackpoint>
            <Time>2022-07-15T07:02:41.000Z</Time>
            <Position>
              <LatitudeDegrees>43.3891841210424900054931640625</LatitudeDegrees>
              <LongitudeDegrees>-4.38466407358646392822265625</LongitudeDegrees>
            </Position>
            <AltitudeMeters>5.80000019073486328125</AltitudeMeters>
            <DistanceMeters>NAN</DistanceMeters>
          </Trackpoint>
          <Trackpoint>
            <Time>2022-07-15T07:02:48.000Z</Time>
            <Position>
              <LatitudeDegrees>43.3891633339226245880126953125</LatitudeDegrees>
              <LongitudeDegrees>-4.38483296893537044525146484375</LongitudeDegrees>
            </Position>
            <AltitudeMeters>6.19999980926513671875</AltitudeMeters>
            <DistanceMeters>NAN</DistanceMeters>
          </Trackpoint>
          <Trackpoint>
            <Time>2022-07-15T07:02:56.000Z</Time>
            <Position>
              <LatitudeDegrees>43.38916911743581295013427734375</LatitudeDegrees>
              <LongitudeDegrees>-4.38502960838377475738525390625</LongitudeDegrees>
            </Position>
            <AltitudeMeters>6.400000095367431640625</AltitudeMeters>
            <DistanceMeters>NAN</DistanceMeters>
          </Trackpoint>
          <Trackpoint>
            <Time>2022-07-15T07:03:01.000Z</Time>
            <Position>
              <LatitudeDegrees>43.3891676925122737884521484375</LatitudeDegrees>
              <LongitudeDegrees>-4.3851363100111484527587890625</LongitudeDegrees>
            </Position>
            <AltitudeMeters>6.599999904632568359375</AltitudeMeters>
            <DistanceMeters>NAN</DistanceMeters>
          </Trackpoint>
          <Trackpoint>
            <Time>2022-07-15T07:03:02.000Z</Time>
            <Position>
              <LatitudeDegrees>43.38916609995067119598388671875</LatitudeDegrees>
              <LongitudeDegrees>-4.38515483401715755462646484375</LongitudeDegrees>
            </Position>
            <AltitudeMeters>6.599999904632568359375</AltitudeMeters>
            <DistanceMeters>NAN</DistanceMeters>
          </Trackpoint>
          <Trackpoint>
            <Time>2022-07-15T07:03:05.000Z</Time>
            <Position>
              <LatitudeDegrees>43.3891683630645275115966796875</LatitudeDegrees>
              <LongitudeDegrees>-4.385202191770076751708984375</LongitudeDegrees>
            </Position>
            <AltitudeMeters>6.599999904632568359375</AltitudeMeters>
            <DistanceMeters>NAN</DistanceMeters>
          </Trackpoint>
          <Trackpoint>
            <Time>2022-07-15T07:03:07.000Z</Time>
            <Position>
              <LatitudeDegrees>43.38919359259307384490966796875</LatitudeDegrees>
              <LongitudeDegrees>-4.38523110933601856231689453125</LongitudeDegrees>
            </Position>
            <AltitudeMeters>6.599999904632568359375</AltitudeMeters>
            <DistanceMeters>NAN</DistanceMeters>
          </Trackpoint>
          <Trackpoint>
            <Time>2022-07-15T07:03:13.000Z</Time>
            <Position>
              <LatitudeDegrees>43.389257378876209259033203125</LatitudeDegrees>
              <LongitudeDegrees>-4.38534669578075408935546875</LongitudeDegrees>
            </Position>
            <AltitudeMeters>6.599999904632568359375</AltitudeMeters>
            <DistanceMeters>NAN</DistanceMeters>
          </Trackpoint>
          <Trackpoint>
            <Time>2022-07-15T07:03:16.000Z</Time>
            <Position>
              <LatitudeDegrees>43.38928294368088245391845703125</LatitudeDegrees>
              <LongitudeDegrees>-4.385414756834506988525390625</LongitudeDegrees>
            </Position>
            <AltitudeMeters>6.599999904632568359375</AltitudeMeters>
            <DistanceMeters>NAN</DistanceMeters>
          </Trackpoint>
          <Trackpoint>
            <Time>2022-07-15T07:03:19.000Z</Time>
            <Position>
              <LatitudeDegrees>43.38932208716869354248046875</LatitudeDegrees>
              <LongitudeDegrees>-4.38545172102749347686767578125</LongitudeDegrees>
            </Position>
            <AltitudeMeters>6.400000095367431640625</AltitudeMeters>
            <DistanceMeters>NAN</DistanceMeters>
          </Trackpoint>
          <Trackpoint>
            <Time>2022-07-15T07:03:23.000Z</Time>
            <Position>
              <LatitudeDegrees>43.38937447406351566314697265625</LatitudeDegrees>
              <LongitudeDegrees>-4.38549463637173175811767578125</LongitudeDegrees>
            </Position>
            <AltitudeMeters>6.400000095367431640625</AltitudeMeters>
            <DistanceMeters>NAN</DistanceMeters>
          </Trackpoint>
          <Trackpoint>
            <Time>2022-07-15T07:03:26.000Z</Time>
            <Position>
              <LatitudeDegrees>43.38941940106451511383056640625</LatitudeDegrees>
              <LongitudeDegrees>-4.3854930438101291656494140625</LongitudeDegrees>
            </Position>
            <AltitudeMeters>6.400000095367431640625</AltitudeMeters>
            <DistanceMeters>NAN</DistanceMeters>
          </Trackpoint>
          <Trackpoint>
            <Time>2022-07-15T07:03:30.000Z</Time>
            <Position>
              <LatitudeDegrees>43.389480672776699066162109375</LatitudeDegrees>
              <LongitudeDegrees>-4.385501928627490997314453125</LongitudeDegrees>
            </Position>
            <AltitudeMeters>6.19999980926513671875</AltitudeMeters>
            <DistanceMeters>NAN</DistanceMeters>
          </Trackpoint>
          <Trackpoint>
            <Time>2022-07-15T07:03:33.000Z</Time>
            <Position>
              <LatitudeDegrees>43.38953590951859951019287109375</LatitudeDegrees>
              <LongitudeDegrees>-4.38550419174134731292724609375</LongitudeDegrees>
            </Position>
            <AltitudeMeters>6.19999980926513671875</AltitudeMeters>
            <DistanceMeters>NAN</DistanceMeters>
          </Trackpoint>
          <Trackpoint>
            <Time>2022-07-15T07:03:34.000Z</Time>
            <Position>
              <LatitudeDegrees>43.3895562775433063507080078125</LatitudeDegrees>
              <LongitudeDegrees>-4.38550016842782497406005859375</LongitudeDegrees>
            </Position>
            <AltitudeMeters>6.19999980926513671875</AltitudeMeters>
            <DistanceMeters>NAN</DistanceMeters>
          </Trackpoint>
          <Trackpoint>
            <Time>2022-07-15T07:03:43.000Z</Time>
            <Position>
              <LatitudeDegrees>43.3897131867706775665283203125</LatitudeDegrees>
              <LongitudeDegrees>-4.38546714372932910919189453125</LongitudeDegrees>
            </Position>
            <AltitudeMeters>6</AltitudeMeters>
            <DistanceMeters>NAN</DistanceMeters>
          </Trackpoint>
          <Trackpoint>
            <Time>2022-07-15T07:03:48.000Z</Time>
            <Position>
              <LatitudeDegrees>43.38976222090423107147216796875</LatitudeDegrees>
              <LongitudeDegrees>-4.38553554005920886993408203125</LongitudeDegrees>
            </Position>
            <AltitudeMeters>6</AltitudeMeters>
            <DistanceMeters>NAN</DistanceMeters>
          </Trackpoint>
          <Trackpoint>
            <Time>2022-07-15T07:03:50.000Z</Time>
            <Position>
              <LatitudeDegrees>43.38976222090423107147216796875</LatitudeDegrees>
              <LongitudeDegrees>-4.38553554005920886993408203125</LongitudeDegrees>
            </Position>
            <AltitudeMeters>6.19999980926513671875</AltitudeMeters>
            <DistanceMeters>NAN</DistanceMeters>
          </Trackpoint>
          <Trackpoint>
            <Time>2022-07-15T07:04:10.000Z</Time>
            <Position>
              <LatitudeDegrees>43.38968510739505290985107421875</LatitudeDegrees>
              <LongitudeDegrees>-4.38540478236973285675048828125</LongitudeDegrees>
            </Position>
            <AltitudeMeters>6.19999980926513671875</AltitudeMeters>
            <DistanceMeters>NAN</DistanceMeters>
          </Trackpoint>
          <Trackpoint>
            <Time>2022-07-15T07:04:11.000Z</Time>
            <Position>
              <LatitudeDegrees>43.389660380780696868896484375</LatitudeDegrees>
              <LongitudeDegrees>-4.3853969871997833251953125</LongitudeDegrees>
            </Position>
            <AltitudeMeters>6.19999980926513671875</AltitudeMeters>
            <DistanceMeters>NAN</DistanceMeters>
          </Trackpoint>
          <Trackpoint>
            <Time>2022-07-15T07:04:13.000Z</Time>
            <Position>
              <LatitudeDegrees>43.38962073437869548797607421875</LatitudeDegrees>
              <LongitudeDegrees>-4.3853847496211528778076171875</LongitudeDegrees>
            </Position>
            <AltitudeMeters>6.400000095367431640625</AltitudeMeters>
            <DistanceMeters>NAN</DistanceMeters>
          </Trackpoint>
          <Trackpoint>
            <Time>2022-07-15T07:04:19.000Z</Time>
            <Position>
              <LatitudeDegrees>43.3894714526832103729248046875</LatitudeDegrees>
              <LongitudeDegrees>-4.38532934524118900299072265625</LongitudeDegrees>
            </Position>
            <AltitudeMeters>6.400000095367431640625</AltitudeMeters>
            <DistanceMeters>NAN</DistanceMeters>
          </Trackpoint>
          <Trackpoint>
            <Time>2022-07-15T07:04:29.000Z</Time>
            <Position>
              <LatitudeDegrees>43.38922812603414058685302734375</LatitudeDegrees>
              <LongitudeDegrees>-4.38523312099277973175048828125</LongitudeDegrees>
            </Position>
            <AltitudeMeters>6.400000095367431640625</AltitudeMeters>
            <DistanceMeters>NAN</DistanceMeters>
          </Trackpoint>
          <Trackpoint>
            <Time>2022-07-15T07:04:36.000Z</Time>
            <Position>
              <LatitudeDegrees>43.38905462063848972320556640625</LatitudeDegrees>
              <LongitudeDegrees>-4.3852100707590579986572265625</LongitudeDegrees>
            </Position>
            <AltitudeMeters>6.599999904632568359375</AltitudeMeters>
            <DistanceMeters>NAN</DistanceMeters>
          </Trackpoint>
          <Trackpoint>
            <Time>2022-07-15T07:04:43.000Z</Time>
            <Position>
              <LatitudeDegrees>43.38891011662781238555908203125</LatitudeDegrees>
              <LongitudeDegrees>-4.38523395918309688568115234375</LongitudeDegrees>
            </Position>
            <AltitudeMeters>6.80000019073486328125</AltitudeMeters>
            <DistanceMeters>NAN</DistanceMeters>
          </Trackpoint>
          <Trackpoint>
            <Time>2022-07-15T07:04:46.000Z</Time>
            <Position>
              <LatitudeDegrees>43.3888418041169643402099609375</LatitudeDegrees>
              <LongitudeDegrees>-4.38524544239044189453125</LongitudeDegrees>
            </Position>
            <AltitudeMeters>6.80000019073486328125</AltitudeMeters>
            <DistanceMeters>NAN</DistanceMeters>
          </Trackpoint>
          <Trackpoint>
            <Time>2022-07-15T07:04:49.000Z</Time>
            <Position>
              <LatitudeDegrees>43.3887868188321590423583984375</LatitudeDegrees>
              <LongitudeDegrees>-4.3852670677006244659423828125</LongitudeDegrees>
            </Position>
            <AltitudeMeters>6.80000019073486328125</AltitudeMeters>
            <DistanceMeters>NAN</DistanceMeters>
          </Trackpoint>
          <Trackpoint>
            <Time>2022-07-15T07:04:51.000Z</Time>
            <Position>
              <LatitudeDegrees>43.38875957764685153961181640625</LatitudeDegrees>
              <LongitudeDegrees>-4.385307468473911285400390625</LongitudeDegrees>
            </Position>
            <AltitudeMeters>6.80000019073486328125</AltitudeMeters>
            <DistanceMeters>NAN</DistanceMeters>
          </Trackpoint>
          <Trackpoint>
            <Time>2022-07-15T07:04:53.000Z</Time>
            <Position>
              <LatitudeDegrees>43.3887365274131298065185546875</LatitudeDegrees>
              <LongitudeDegrees>-4.3853475339710712432861328125</LongitudeDegrees>
            </Position>
            <AltitudeMeters>7</AltitudeMeters>
            <DistanceMeters>NAN</DistanceMeters>
          </Trackpoint>
          <Trackpoint>
            <Time>2022-07-15T07:04:56.000Z</Time>
            <Position>
              <LatitudeDegrees>43.38867659680545330047607421875</LatitudeDegrees>
              <LongitudeDegrees>-4.38540679402649402618408203125</LongitudeDegrees>
            </Position>
            <AltitudeMeters>6.80000019073486328125</AltitudeMeters>
            <DistanceMeters>NAN</DistanceMeters>
          </Trackpoint>
          <Trackpoint>
            <Time>2022-07-15T07:05:03.000Z</Time>
            <Position>
              <LatitudeDegrees>43.388545252382755279541015625</LatitudeDegrees>
              <LongitudeDegrees>-4.38552967272698879241943359375</LongitudeDegrees>
            </Position>
            <AltitudeMeters>6.599999904632568359375</AltitudeMeters>
            <DistanceMeters>NAN</DistanceMeters>
          </Trackpoint>
          <Trackpoint>
            <Time>2022-07-15T07:05:08.000Z</Time>
            <Position>
              <LatitudeDegrees>43.38842648081481456756591796875</LatitudeDegrees>
              <LongitudeDegrees>-4.385597817599773406982421875</LongitudeDegrees>
            </Position>
            <AltitudeMeters>6.599999904632568359375</AltitudeMeters>
            <DistanceMeters>NAN</DistanceMeters>
          </Trackpoint>
          <Trackpoint>
            <Time>2022-07-15T07:05:16.000Z</Time>
            <Position>
              <LatitudeDegrees>43.3881933800876140594482421875</LatitudeDegrees>
              <LongitudeDegrees>-4.38568322919309139251708984375</LongitudeDegrees>
            </Position>
            <AltitudeMeters>6.400000095367431640625</AltitudeMeters>
            <DistanceMeters>NAN</DistanceMeters>
          </Trackpoint>
          <Trackpoint>
            <Time>2022-07-15T07:05:22.000Z</Time>
            <Position>
              <LatitudeDegrees>43.38800671510398387908935546875</LatitudeDegrees>
              <LongitudeDegrees>-4.3857429921627044677734375</LongitudeDegrees>
            </Position>
            <AltitudeMeters>6.19999980926513671875</AltitudeMeters>
            <DistanceMeters>NAN</DistanceMeters>
          </Trackpoint>
          <Trackpoint>
            <Time>2022-07-15T07:05:28.000Z</Time>
            <Position>
              <LatitudeDegrees>43.3877883665263652801513671875</LatitudeDegrees>
              <LongitudeDegrees>-4.38581750728189945220947265625</LongitudeDegrees>
            </Position>
            <AltitudeMeters>6</AltitudeMeters>
            <DistanceMeters>NAN</DistanceMeters>
          </Trackpoint>
          <Trackpoint>
            <Time>2022-07-15T07:05:32.000Z</Time>
            <Position>
              <LatitudeDegrees>43.3877156116068363189697265625</LatitudeDegrees>
              <LongitudeDegrees>-4.385846592485904693603515625</LongitudeDegrees>
            </Position>
            <AltitudeMeters>5.80000019073486328125</AltitudeMeters>
            <DistanceMeters>NAN</DistanceMeters>
          </Trackpoint>
          <Trackpoint>
            <Time>2022-07-15T07:05:33.000Z</Time>
            <Position>
              <LatitudeDegrees>43.387711085379123687744140625</LatitudeDegrees>
              <LongitudeDegrees>-4.38584449701011180877685546875</LongitudeDegrees>
            </Position>
            <AltitudeMeters>5.80000019073486328125</AltitudeMeters>
            <DistanceMeters>NAN</DistanceMeters>
          </Trackpoint>
          <Trackpoint>
            <Time>2022-07-15T07:05:34.000Z</Time>
            <Position>
              <LatitudeDegrees>43.387711085379123687744140625</LatitudeDegrees>
              <LongitudeDegrees>-4.38584449701011180877685546875</LongitudeDegrees>
            </Position>
            <AltitudeMeters>5.599999904632568359375</AltitudeMeters>
            <DistanceMeters>NAN</DistanceMeters>
          </Trackpoint>
          <Trackpoint>
            <Time>2022-07-15T07:05:35.000Z</Time>
            <Position>
              <LatitudeDegrees>43.387711085379123687744140625</LatitudeDegrees>
              <LongitudeDegrees>-4.38584449701011180877685546875</LongitudeDegrees>
            </Position>
            <AltitudeMeters>5.599999904632568359375</AltitudeMeters>
            <DistanceMeters>NAN</DistanceMeters>
          </Trackpoint>
          <Trackpoint>
            <Time>2022-07-15T07:05:51.000Z</Time>
            <Position>
              <LatitudeDegrees>43.387721814215183258056640625</LatitudeDegrees>
              <LongitudeDegrees>-4.3857954628765583038330078125</LongitudeDegrees>
            </Position>
            <AltitudeMeters>5.599999904632568359375</AltitudeMeters>
            <DistanceMeters>NAN</DistanceMeters>
          </Trackpoint>
          <Trackpoint>
            <Time>2022-07-15T07:05:52.000Z</Time>
            <Position>
              <LatitudeDegrees>43.38770932517945766448974609375</LatitudeDegrees>
              <LongitudeDegrees>-4.385768137872219085693359375</LongitudeDegrees>
            </Position>
            <AltitudeMeters>5.599999904632568359375</AltitudeMeters>
            <DistanceMeters>NAN</DistanceMeters>
          </Trackpoint>
          <Trackpoint>
            <Time>2022-07-15T07:05:55.000Z</Time>
            <Position>
              <LatitudeDegrees>43.3876482211053371429443359375</LatitudeDegrees>
              <LongitudeDegrees>-4.38571206294000148773193359375</LongitudeDegrees>
            </Position>
            <AltitudeMeters>5.599999904632568359375</AltitudeMeters>
            <DistanceMeters>NAN</DistanceMeters>
          </Trackpoint>
          <Trackpoint>
            <Time>2022-07-15T07:05:56.000Z</Time>
            <Position>
              <LatitudeDegrees>43.3876317925751209259033203125</LatitudeDegrees>
              <LongitudeDegrees>-4.38571575097739696502685546875</LongitudeDegrees>
            </Position>
            <AltitudeMeters>5.599999904632568359375</AltitudeMeters>
            <DistanceMeters>NAN</DistanceMeters>
          </Trackpoint>
          <Trackpoint>
            <Time>2022-07-15T07:06:00.000Z</Time>
            <Position>
              <LatitudeDegrees>43.38758946396410465240478515625</LatitudeDegrees>
              <LongitudeDegrees>-4.38571415841579437255859375</LongitudeDegrees>
            </Position>
            <AltitudeMeters>5.599999904632568359375</AltitudeMeters>
            <DistanceMeters>NAN</DistanceMeters>
          </Trackpoint>
          <Trackpoint>
            <Time>2022-07-15T07:06:03.000Z</Time>
            <Position>
              <LatitudeDegrees>43.38758057914674282073974609375</LatitudeDegrees>
              <LongitudeDegrees>-4.38571642152965068817138671875</LongitudeDegrees>
            </Position>
            <AltitudeMeters>5.400000095367431640625</AltitudeMeters>
            <DistanceMeters>NAN</DistanceMeters>
          </Trackpoint>
          <Trackpoint>
            <Time>2022-07-15T07:06:04.000Z</Time>
            <Position>
              <LatitudeDegrees>43.38758426718413829803466796875</LatitudeDegrees>
              <LongitudeDegrees>-4.3857247196137905120849609375</LongitudeDegrees>
            </Position>
            <AltitudeMeters>5.400000095367431640625</AltitudeMeters>
            <DistanceMeters>NAN</DistanceMeters>
          </Trackpoint>
          <Trackpoint>
            <Time>2022-07-15T07:06:07.000Z</Time>
            <Position>
              <LatitudeDegrees>43.3875885419547557830810546875</LatitudeDegrees>
              <LongitudeDegrees>-4.3857404775917530059814453125</LongitudeDegrees>
            </Position>
            <AltitudeMeters>5.400000095367431640625</AltitudeMeters>
            <DistanceMeters>NAN</DistanceMeters>
          </Trackpoint>
          <Trackpoint>
            <Time>2022-07-15T07:06:24.000Z</Time>
            <Position>
              <LatitudeDegrees>43.38755040429532527923583984375</LatitudeDegrees>
              <LongitudeDegrees>-4.385833851993083953857421875</LongitudeDegrees>
            </Position>
            <AltitudeMeters>5</AltitudeMeters>
            <DistanceMeters>NAN</DistanceMeters>
          </Trackpoint>
          <Trackpoint>
            <Time>2022-07-15T07:06:26.000Z</Time>
            <Position>
              <LatitudeDegrees>43.38750681839883327484130859375</LatitudeDegrees>
              <LongitudeDegrees>-4.38582236878573894500732421875</LongitudeDegrees>
            </Position>
            <AltitudeMeters>4.80000019073486328125</AltitudeMeters>
            <DistanceMeters>NAN</DistanceMeters>
          </Trackpoint>
          <Trackpoint>
            <Time>2022-07-15T07:06:29.000Z</Time>
            <Position>
              <LatitudeDegrees>43.3875028789043426513671875</LatitudeDegrees>
              <LongitudeDegrees>-4.38583276234567165374755859375</LongitudeDegrees>
            </Position>
            <AltitudeMeters>4.599999904632568359375</AltitudeMeters>
            <DistanceMeters>NAN</DistanceMeters>
          </Trackpoint>
          <Trackpoint>
            <Time>2022-07-15T07:06:50.000Z</Time>
            <Position>
              <LatitudeDegrees>43.38756130076944828033447265625</LatitudeDegrees>
              <LongitudeDegrees>-4.385982714593410491943359375</LongitudeDegrees>
            </Position>
            <AltitudeMeters>4.599999904632568359375</AltitudeMeters>
            <DistanceMeters>NAN</DistanceMeters>
          </Trackpoint>
          <Trackpoint>
            <Time>2022-07-15T07:06:52.000Z</Time>
            <Position>
              <LatitudeDegrees>43.38757689110934734344482421875</LatitudeDegrees>
              <LongitudeDegrees>-4.38601163215935230255126953125</LongitudeDegrees>
            </Position>
            <AltitudeMeters>4.599999904632568359375</AltitudeMeters>
            <DistanceMeters>NAN</DistanceMeters>
          </Trackpoint>
          <Trackpoint>
            <Time>2022-07-15T07:06:57.000Z</Time>
            <Position>
              <LatitudeDegrees>43.38764436542987823486328125</LatitudeDegrees>
              <LongitudeDegrees>-4.38611154444515705108642578125</LongitudeDegrees>
            </Position>
            <AltitudeMeters>4.599999904632568359375</AltitudeMeters>
            <DistanceMeters>NAN</DistanceMeters>
          </Trackpoint>
          <Trackpoint>
            <Time>2022-07-15T07:07:01.000Z</Time>
            <Position>
              <LatitudeDegrees>43.38761276565492153167724609375</LatitudeDegrees>
              <LongitudeDegrees>-4.38592026941478252410888671875</LongitudeDegrees>
            </Position>
            <AltitudeMeters>4.80000019073486328125</AltitudeMeters>
            <DistanceMeters>NAN</DistanceMeters>
          </Trackpoint>
          <Trackpoint>
            <Time>2022-07-15T07:15:06.000Z</Time>
            <Position>
              <LatitudeDegrees>43.3876931481063365936279296875</LatitudeDegrees>
              <LongitudeDegrees>-4.38574089668691158294677734375</LongitudeDegrees>
            </Position>
            <AltitudeMeters>5</AltitudeMeters>
            <DistanceMeters>NAN</DistanceMeters>
          </Trackpoint>
          <Trackpoint>
            <Time>2022-07-15T07:15:11.000Z</Time>
            <Position>
              <LatitudeDegrees>43.387672193348407745361328125</LatitudeDegrees>
              <LongitudeDegrees>-4.38573016785085201263427734375</LongitudeDegrees>
            </Position>
            <AltitudeMeters>4.80000019073486328125</AltitudeMeters>
            <DistanceMeters>NAN</DistanceMeters>
          </Trackpoint>
          <Trackpoint>
            <Time>2022-07-15T07:15:15.000Z</Time>
            <Position>
              <LatitudeDegrees>43.3876257576048374176025390625</LatitudeDegrees>
              <LongitudeDegrees>-4.3856757692992687225341796875</LongitudeDegrees>
            </Position>
            <AltitudeMeters>4.599999904632568359375</AltitudeMeters>
            <DistanceMeters>NAN</DistanceMeters>
          </Trackpoint>
          <Trackpoint>
            <Time>2022-07-15T07:15:16.000Z</Time>
            <Position>
              <LatitudeDegrees>43.38762827217578887939453125</LatitudeDegrees>
              <LongitudeDegrees>-4.385682642459869384765625</LongitudeDegrees>
            </Position>
            <AltitudeMeters>4.599999904632568359375</AltitudeMeters>
            <DistanceMeters>NAN</DistanceMeters>
          </Trackpoint>
          <Trackpoint>
            <Time>2022-07-15T07:15:20.000Z</Time>
            <Position>
              <LatitudeDegrees>43.38765350170433521270751953125</LatitudeDegrees>
              <LongitudeDegrees>-4.3857237137854099273681640625</LongitudeDegrees>
            </Position>
            <AltitudeMeters>4.400000095367431640625</AltitudeMeters>
            <DistanceMeters>NAN</DistanceMeters>
          </Trackpoint>
          <Trackpoint>
            <Time>2022-07-15T07:15:24.000Z</Time>
            <Position>
              <LatitudeDegrees>43.38768451474606990814208984375</LatitudeDegrees>
              <LongitudeDegrees>-4.38575330190360546112060546875</LongitudeDegrees>
            </Position>
            <AltitudeMeters>4.19999980926513671875</AltitudeMeters>
            <DistanceMeters>NAN</DistanceMeters>
          </Trackpoint>
          <Trackpoint>
            <Time>2022-07-15T07:15:30.000Z</Time>
            <Position>
              <LatitudeDegrees>43.38767512701451778411865234375</LatitudeDegrees>
              <LongitudeDegrees>-4.38570653088390827178955078125</LongitudeDegrees>
            </Position>
            <AltitudeMeters>4.400000095367431640625</AltitudeMeters>
            <DistanceMeters>NAN</DistanceMeters>
          </Trackpoint>
          <Trackpoint>
            <Time>2022-07-15T07:15:35.000Z</Time>
            <Position>
              <LatitudeDegrees>43.38766154833137989044189453125</LatitudeDegrees>
              <LongitudeDegrees>-4.38565649092197418212890625</LongitudeDegrees>
            </Position>
            <AltitudeMeters>4.400000095367431640625</AltitudeMeters>
            <DistanceMeters>NAN</DistanceMeters>
          </Trackpoint>
          <Trackpoint>
            <Time>2022-07-15T07:15:36.000Z</Time>
            <Position>
              <LatitudeDegrees>43.3876790665090084075927734375</LatitudeDegrees>
              <LongitudeDegrees>-4.38566864468157291412353515625</LongitudeDegrees>
            </Position>
            <AltitudeMeters>4.400000095367431640625</AltitudeMeters>
            <DistanceMeters>NAN</DistanceMeters>
          </Trackpoint>
          <Trackpoint>
            <Time>2022-07-15T07:15:37.000Z</Time>
            <Position>
              <LatitudeDegrees>43.387691974639892578125</LatitudeDegrees>
              <LongitudeDegrees>-4.385658837854862213134765625</LongitudeDegrees>
            </Position>
            <AltitudeMeters>4.599999904632568359375</AltitudeMeters>
            <DistanceMeters>NAN</DistanceMeters>
          </Trackpoint>
          <Trackpoint>
            <Time>2022-07-15T07:15:40.000Z</Time>
            <Position>
              <LatitudeDegrees>43.387699015438556671142578125</LatitudeDegrees>
              <LongitudeDegrees>-4.3856479413807392120361328125</LongitudeDegrees>
            </Position>
            <AltitudeMeters>4.80000019073486328125</AltitudeMeters>
            <DistanceMeters>NAN</DistanceMeters>
          </Trackpoint>
          <Trackpoint>
            <Time>2022-07-15T07:15:41.000Z</Time>
            <Position>
              <LatitudeDegrees>43.3877027034759521484375</LatitudeDegrees>
              <LongitudeDegrees>-4.385643415153026580810546875</LongitudeDegrees>
            </Position>
            <AltitudeMeters>4.80000019073486328125</AltitudeMeters>
            <DistanceMeters>NAN</DistanceMeters>
          </Trackpoint>
          <Trackpoint>
            <Time>2022-07-15T07:15:57.000Z</Time>
            <Position>
              <LatitudeDegrees>43.3877343870699405670166015625</LatitudeDegrees>
              <LongitudeDegrees>-4.38588271848857402801513671875</LongitudeDegrees>
            </Position>
            <AltitudeMeters>4.80000019073486328125</AltitudeMeters>
            <DistanceMeters>NAN</DistanceMeters>
          </Trackpoint>
          <Trackpoint>
            <Time>2022-07-15T07:15:59.000Z</Time>
            <Position>
              <LatitudeDegrees>43.38774754665791988372802734375</LatitudeDegrees>
              <LongitudeDegrees>-4.385878778994083404541015625</LongitudeDegrees>
            </Position>
            <AltitudeMeters>4.80000019073486328125</AltitudeMeters>
            <DistanceMeters>NAN</DistanceMeters>
          </Trackpoint>
          <Trackpoint>
            <Time>2022-07-15T07:16:01.000Z</Time>
            <Position>
              <LatitudeDegrees>43.387749977409839630126953125</LatitudeDegrees>
              <LongitudeDegrees>-4.385882802307605743408203125</LongitudeDegrees>
            </Position>
            <AltitudeMeters>4.599999904632568359375</AltitudeMeters>
            <DistanceMeters>NAN</DistanceMeters>
          </Trackpoint>
          <Trackpoint>
            <Time>2022-07-15T07:16:04.000Z</Time>
            <Position>
              <LatitudeDegrees>43.38777185417711734771728515625</LatitudeDegrees>
              <LongitudeDegrees>-4.3858631886541843414306640625</LongitudeDegrees>
            </Position>
            <AltitudeMeters>4.599999904632568359375</AltitudeMeters>
            <DistanceMeters>NAN</DistanceMeters>
          </Trackpoint>
          <Trackpoint>
            <Time>2022-07-15T07:16:05.000Z</Time>
            <Position>
              <LatitudeDegrees>43.38777319528162479400634765625</LatitudeDegrees>
              <LongitudeDegrees>-4.38583997078239917755126953125</LongitudeDegrees>
            </Position>
            <AltitudeMeters>4.599999904632568359375</AltitudeMeters>
            <DistanceMeters>NAN</DistanceMeters>
          </Trackpoint>
          <Trackpoint>
            <Time>2022-07-15T07:16:06.000Z</Time>
            <Position>
              <LatitudeDegrees>43.3877471275627613067626953125</LatitudeDegrees>
              <LongitudeDegrees>-4.38582773320376873016357421875</LongitudeDegrees>
            </Position>
            <AltitudeMeters>4.599999904632568359375</AltitudeMeters>
            <DistanceMeters>NAN</DistanceMeters>
          </Trackpoint>
          <Trackpoint>
            <Time>2022-07-15T07:16:09.000Z</Time>
            <Position>
              <LatitudeDegrees>43.3877276815474033355712890625</LatitudeDegrees>
              <LongitudeDegrees>-4.385908283293247222900390625</LongitudeDegrees>
            </Position>
            <AltitudeMeters>4.400000095367431640625</AltitudeMeters>
            <DistanceMeters>NAN</DistanceMeters>
          </Trackpoint>
          <Trackpoint>
            <Time>2022-07-15T07:16:13.000Z</Time>
            <Position>
              <LatitudeDegrees>43.38769842870533466339111328125</LatitudeDegrees>
              <LongitudeDegrees>-4.38589998520910739898681640625</LongitudeDegrees>
            </Position>
            <AltitudeMeters>4.599999904632568359375</AltitudeMeters>
            <DistanceMeters>NAN</DistanceMeters>
          </Trackpoint>
          <Trackpoint>
            <Time>2022-07-15T07:16:14.000Z</Time>
            <Position>
              <LatitudeDegrees>43.387690968811511993408203125</LatitudeDegrees>
              <LongitudeDegrees>-4.3858730792999267578125</LongitudeDegrees>
            </Position>
            <AltitudeMeters>4.599999904632568359375</AltitudeMeters>
            <DistanceMeters>NAN</DistanceMeters>
          </Trackpoint>
          <Trackpoint>
            <Time>2022-07-15T07:16:15.000Z</Time>
            <Position>
              <LatitudeDegrees>43.38772055692970752716064453125</LatitudeDegrees>
              <LongitudeDegrees>-4.385855309665203094482421875</LongitudeDegrees>
            </Position>
            <AltitudeMeters>4.599999904632568359375</AltitudeMeters>
            <DistanceMeters>NAN</DistanceMeters>
          </Trackpoint>
          <Trackpoint>
            <Time>2022-07-15T07:16:16.000Z</Time>
            <Position>
              <LatitudeDegrees>43.38773614726960659027099609375</LatitudeDegrees>
              <LongitudeDegrees>-4.38583142124116420745849609375</LongitudeDegrees>
            </Position>
            <AltitudeMeters>4.80000019073486328125</AltitudeMeters>
            <DistanceMeters>NAN</DistanceMeters>
          </Trackpoint>
          <Trackpoint>
            <Time>2022-07-15T07:16:17.000Z</Time>
            <Position>
              <LatitudeDegrees>43.38772625662386417388916015625</LatitudeDegrees>
              <LongitudeDegrees>-4.38579219393432140350341796875</LongitudeDegrees>
            </Position>
            <AltitudeMeters>4.80000019073486328125</AltitudeMeters>
            <DistanceMeters>NAN</DistanceMeters>
          </Trackpoint>
          <Trackpoint>
            <Time>2022-07-15T07:16:18.000Z</Time>
            <Position>
              <LatitudeDegrees>43.3877062238752841949462890625</LatitudeDegrees>
              <LongitudeDegrees>-4.385819770395755767822265625</LongitudeDegrees>
            </Position>
            <AltitudeMeters>4.80000019073486328125</AltitudeMeters>
            <DistanceMeters>NAN</DistanceMeters>
          </Trackpoint>
          <Trackpoint>
            <Time>2022-07-15T07:16:20.000Z</Time>
            <Position>
              <LatitudeDegrees>43.3876696787774562835693359375</LatitudeDegrees>
              <LongitudeDegrees>-4.385803677141666412353515625</LongitudeDegrees>
            </Position>
            <AltitudeMeters>4.80000019073486328125</AltitudeMeters>
            <DistanceMeters>NAN</DistanceMeters>
          </Trackpoint>
          <Trackpoint>
            <Time>2022-07-15T07:16:21.000Z</Time>
            <Position>
              <LatitudeDegrees>43.38764495216310024261474609375</LatitudeDegrees>
              <LongitudeDegrees>-4.38577794469892978668212890625</LongitudeDegrees>
            </Position>
            <AltitudeMeters>4.80000019073486328125</AltitudeMeters>
            <DistanceMeters>NAN</DistanceMeters>
          </Trackpoint>
          <Trackpoint>
            <Time>2022-07-15T07:16:24.000Z</Time>
            <Position>
              <LatitudeDegrees>43.3876049704849720001220703125</LatitudeDegrees>
              <LongitudeDegrees>-4.38585204072296619415283203125</LongitudeDegrees>
            </Position>
            <AltitudeMeters>5</AltitudeMeters>
            <DistanceMeters>NAN</DistanceMeters>
          </Trackpoint>
          <Trackpoint>
            <Time>2022-07-15T07:16:25.000Z</Time>
            <Position>
              <LatitudeDegrees>43.38759072124958038330078125</LatitudeDegrees>
              <LongitudeDegrees>-4.38589923083782196044921875</LongitudeDegrees>
            </Position>
            <AltitudeMeters>5</AltitudeMeters>
            <DistanceMeters>NAN</DistanceMeters>
          </Trackpoint>
          <Trackpoint>
            <Time>2022-07-15T07:16:28.000Z</Time>
            <Position>
              <LatitudeDegrees>43.3875134401023387908935546875</LatitudeDegrees>
              <LongitudeDegrees>-4.38585170544683933258056640625</LongitudeDegrees>
            </Position>
            <AltitudeMeters>5.19999980926513671875</AltitudeMeters>
            <DistanceMeters>NAN</DistanceMeters>
          </Trackpoint>
          <Trackpoint>
            <Time>2022-07-15T07:16:30.000Z</Time>
            <Position>
              <LatitudeDegrees>43.38748636655509471893310546875</LatitudeDegrees>
              <LongitudeDegrees>-4.38571390695869922637939453125</LongitudeDegrees>
            </Position>
            <AltitudeMeters>5.19999980926513671875</AltitudeMeters>
            <DistanceMeters>NAN</DistanceMeters>
          </Trackpoint>
          <Trackpoint>
            <Time>2022-07-15T07:16:33.000Z</Time>
            <Position>
              <LatitudeDegrees>43.387459628283977508544921875</LatitudeDegrees>
              <LongitudeDegrees>-4.38570435158908367156982421875</LongitudeDegrees>
            </Position>
            <AltitudeMeters>5.19999980926513671875</AltitudeMeters>
            <DistanceMeters>NAN</DistanceMeters>
          </Trackpoint>
          <Trackpoint>
            <Time>2022-07-15T07:16:39.000Z</Time>
            <Position>
              <LatitudeDegrees>43.387308754026889801025390625</LatitudeDegrees>
              <LongitudeDegrees>-4.38574894331395626068115234375</LongitudeDegrees>
            </Position>
            <AltitudeMeters>5.19999980926513671875</AltitudeMeters>
            <DistanceMeters>NAN</DistanceMeters>
          </Trackpoint>
          <Trackpoint>
            <Time>2022-07-15T07:16:46.000Z</Time>
            <Position>
              <LatitudeDegrees>43.387115299701690673828125</LatitudeDegrees>
              <LongitudeDegrees>-4.38579487614333629608154296875</LongitudeDegrees>
            </Position>
            <AltitudeMeters>5.19999980926513671875</AltitudeMeters>
            <DistanceMeters>NAN</DistanceMeters>
          </Trackpoint>
          <Trackpoint>
            <Time>2022-07-15T07:16:54.000Z</Time>
            <Position>
              <LatitudeDegrees>43.3868539519608020782470703125</LatitudeDegrees>
              <LongitudeDegrees>-4.38586243428289890289306640625</LongitudeDegrees>
            </Position>
            <AltitudeMeters>5</AltitudeMeters>
            <DistanceMeters>NAN</DistanceMeters>
          </Trackpoint>
          <Trackpoint>
            <Time>2022-07-15T07:17:00.000Z</Time>
            <Position>
              <LatitudeDegrees>43.3866511099040508270263671875</LatitudeDegrees>
              <LongitudeDegrees>-4.38588506542146205902099609375</LongitudeDegrees>
            </Position>
            <AltitudeMeters>5.19999980926513671875</AltitudeMeters>
            <DistanceMeters>NAN</DistanceMeters>
          </Trackpoint>
          <Trackpoint>
            <Time>2022-07-15T07:17:04.000Z</Time>
            <Position>
              <LatitudeDegrees>43.38653200305998325347900390625</LatitudeDegrees>
              <LongitudeDegrees>-4.38590669073164463043212890625</LongitudeDegrees>
            </Position>
            <AltitudeMeters>5.19999980926513671875</AltitudeMeters>
            <DistanceMeters>NAN</DistanceMeters>
          </Trackpoint>
          <Trackpoint>
            <Time>2022-07-15T07:17:06.000Z</Time>
            <Position>
              <LatitudeDegrees>43.38648238219320774078369140625</LatitudeDegrees>
              <LongitudeDegrees>-4.3859413079917430877685546875</LongitudeDegrees>
            </Position>
            <AltitudeMeters>5.19999980926513671875</AltitudeMeters>
            <DistanceMeters>NAN</DistanceMeters>
          </Trackpoint>
          <Trackpoint>
            <Time>2022-07-15T07:17:08.000Z</Time>
            <Position>
              <LatitudeDegrees>43.38642840273678302764892578125</LatitudeDegrees>
              <LongitudeDegrees>-4.3859667889773845672607421875</LongitudeDegrees>
            </Position>
            <AltitudeMeters>5.19999980926513671875</AltitudeMeters>
            <DistanceMeters>NAN</DistanceMeters>
          </Trackpoint>
          <Trackpoint>
            <Time>2022-07-15T07:17:09.000Z</Time>
            <Position>
              <LatitudeDegrees>43.38638900779187679290771484375</LatitudeDegrees>
              <LongitudeDegrees>-4.385999478399753570556640625</LongitudeDegrees>
            </Position>
            <AltitudeMeters>5.19999980926513671875</AltitudeMeters>
            <DistanceMeters>NAN</DistanceMeters>
          </Trackpoint>
          <Trackpoint>
            <Time>2022-07-15T07:17:13.000Z</Time>
            <Position>
              <LatitudeDegrees>43.38625271804630756378173828125</LatitudeDegrees>
              <LongitudeDegrees>-4.38609411008656024932861328125</LongitudeDegrees>
            </Position>
            <AltitudeMeters>5.80000019073486328125</AltitudeMeters>
            <DistanceMeters>NAN</DistanceMeters>
          </Trackpoint>
          <Trackpoint>
            <Time>2022-07-15T07:17:14.000Z</Time>
            <Position>
              <LatitudeDegrees>43.3862283267080783843994140625</LatitudeDegrees>
              <LongitudeDegrees>-4.38611841760575771331787109375</LongitudeDegrees>
            </Position>
            <AltitudeMeters>6</AltitudeMeters>
            <DistanceMeters>NAN</DistanceMeters>
          </Trackpoint>
          <Trackpoint>
            <Time>2022-07-15T07:17:22.000Z</Time>
            <Position>
              <LatitudeDegrees>43.38607166893780231475830078125</LatitudeDegrees>
              <LongitudeDegrees>-4.3863181583583354949951171875</LongitudeDegrees>
            </Position>
            <AltitudeMeters>6.19999980926513671875</AltitudeMeters>
            <DistanceMeters>NAN</DistanceMeters>
          </Trackpoint>
          <Trackpoint>
            <Time>2022-07-15T07:17:27.000Z</Time>
            <Position>
              <LatitudeDegrees>43.38599614799022674560546875</LatitudeDegrees>
              <LongitudeDegrees>-4.3864257819950580596923828125</LongitudeDegrees>
            </Position>
            <AltitudeMeters>6.599999904632568359375</AltitudeMeters>
            <DistanceMeters>NAN</DistanceMeters>
          </Trackpoint>
          <Trackpoint>
            <Time>2022-07-15T07:17:28.000Z</Time>
            <Position>
              <LatitudeDegrees>43.38598533533513545989990234375</LatitudeDegrees>
              <LongitudeDegrees>-4.38645084388554096221923828125</LongitudeDegrees>
            </Position>
            <AltitudeMeters>6.80000019073486328125</AltitudeMeters>
            <DistanceMeters>NAN</DistanceMeters>
          </Trackpoint>
          <Trackpoint>
            <Time>2022-07-15T07:17:29.000Z</Time>
            <Position>
              <LatitudeDegrees>43.38597577996551990509033203125</LatitudeDegrees>
              <LongitudeDegrees>-4.38647230155766010284423828125</LongitudeDegrees>
            </Position>
            <AltitudeMeters>7</AltitudeMeters>
            <DistanceMeters>NAN</DistanceMeters>
          </Trackpoint>
          <Trackpoint>
            <Time>2022-07-15T07:17:35.000Z</Time>
            <Position>
              <LatitudeDegrees>43.3858893625438213348388671875</LatitudeDegrees>
              <LongitudeDegrees>-4.3865538574755191802978515625</LongitudeDegrees>
            </Position>
            <AltitudeMeters>7.400000095367431640625</AltitudeMeters>
            <DistanceMeters>NAN</DistanceMeters>
          </Trackpoint>
          <Trackpoint>
            <Time>2022-07-15T07:17:38.000Z</Time>
            <Position>
              <LatitudeDegrees>43.38585474528372287750244140625</LatitudeDegrees>
              <LongitudeDegrees>-4.3865937553346157073974609375</LongitudeDegrees>
            </Position>
            <AltitudeMeters>7.80000019073486328125</AltitudeMeters>
            <DistanceMeters>NAN</DistanceMeters>
          </Trackpoint>
          <Trackpoint>
            <Time>2022-07-15T07:17:39.000Z</Time>
            <Position>
              <LatitudeDegrees>43.3858474530279636383056640625</LatitudeDegrees>
              <LongitudeDegrees>-4.38660959713160991668701171875</LongitudeDegrees>
            </Position>
            <AltitudeMeters>8</AltitudeMeters>
            <DistanceMeters>NAN</DistanceMeters>
          </Trackpoint>
          <Trackpoint>
            <Time>2022-07-15T07:17:41.000Z</Time>
            <Position>
              <LatitudeDegrees>43.38582272641360759735107421875</LatitudeDegrees>
              <LongitudeDegrees>-4.38665452413260936737060546875</LongitudeDegrees>
            </Position>
            <AltitudeMeters>8.19999980926513671875</AltitudeMeters>
            <DistanceMeters>NAN</DistanceMeters>
          </Trackpoint>
          <Trackpoint>
            <Time>2022-07-15T07:17:50.000Z</Time>
            <Position>
              <LatitudeDegrees>43.38569163344800472259521484375</LatitudeDegrees>
              <LongitudeDegrees>-4.38686977140605449676513671875</LongitudeDegrees>
            </Position>
            <AltitudeMeters>8.3999996185302734375</AltitudeMeters>
            <DistanceMeters>NAN</DistanceMeters>
          </Trackpoint>
          <Trackpoint>
            <Time>2022-07-15T07:17:54.000Z</Time>
            <Position>
              <LatitudeDegrees>43.38566900230944156646728515625</LatitudeDegrees>
              <LongitudeDegrees>-4.38688586466014385223388671875</LongitudeDegrees>
            </Position>
            <AltitudeMeters>8.80000019073486328125</AltitudeMeters>
            <DistanceMeters>NAN</DistanceMeters>
          </Trackpoint>
          <Trackpoint>
            <Time>2022-07-15T07:17:58.000Z</Time>
            <Position>
              <LatitudeDegrees>43.38567822240293025970458984375</LatitudeDegrees>
              <LongitudeDegrees>-4.386899359524250030517578125</LongitudeDegrees>
            </Position>
            <AltitudeMeters>9</AltitudeMeters>
            <DistanceMeters>NAN</DistanceMeters>
          </Trackpoint>
          <Trackpoint>
            <Time>2022-07-15T07:23:21.000Z</Time>
            <Position>
              <LatitudeDegrees>43.3855778910219669342041015625</LatitudeDegrees>
              <LongitudeDegrees>-4.387005977332592010498046875</LongitudeDegrees>
            </Position>
            <AltitudeMeters>8.3999996185302734375</AltitudeMeters>
            <DistanceMeters>NAN</DistanceMeters>
          </Trackpoint>
          <Trackpoint>
            <Time>2022-07-15T07:23:22.000Z</Time>
            <Position>
              <LatitudeDegrees>43.38556431233882904052734375</LatitudeDegrees>
              <LongitudeDegrees>-4.38703271560370922088623046875</LongitudeDegrees>
            </Position>
            <AltitudeMeters>8</AltitudeMeters>
            <DistanceMeters>NAN</DistanceMeters>
          </Trackpoint>
          <Trackpoint>
            <Time>2022-07-15T07:23:27.000Z</Time>
            <Position>
              <LatitudeDegrees>43.385476805269718170166015625</LatitudeDegrees>
              <LongitudeDegrees>-4.3871516548097133636474609375</LongitudeDegrees>
            </Position>
            <AltitudeMeters>7.80000019073486328125</AltitudeMeters>
            <DistanceMeters>NAN</DistanceMeters>
          </Trackpoint>
          <Trackpoint>
            <Time>2022-07-15T07:23:30.000Z</Time>
            <Position>
              <LatitudeDegrees>43.38543900288641452789306640625</LatitudeDegrees>
              <LongitudeDegrees>-4.38720119185745716094970703125</LongitudeDegrees>
            </Position>
            <AltitudeMeters>7.80000019073486328125</AltitudeMeters>
            <DistanceMeters>NAN</DistanceMeters>
          </Trackpoint>
          <Trackpoint>
            <Time>2022-07-15T07:23:32.000Z</Time>
            <Position>
              <LatitudeDegrees>43.38541436009109020233154296875</LatitudeDegrees>
              <LongitudeDegrees>-4.3872083164751529693603515625</LongitudeDegrees>
            </Position>
            <AltitudeMeters>8</AltitudeMeters>
            <DistanceMeters>NAN</DistanceMeters>
          </Trackpoint>
          <Trackpoint>
            <Time>2022-07-15T07:23:36.000Z</Time>
            <Position>
              <LatitudeDegrees>43.385390304028987884521484375</LatitudeDegrees>
              <LongitudeDegrees>-4.387243688106536865234375</LongitudeDegrees>
            </Position>
            <AltitudeMeters>8</AltitudeMeters>
            <DistanceMeters>NAN</DistanceMeters>
          </Trackpoint>
          <Trackpoint>
            <Time>2022-07-15T07:23:37.000Z</Time>
            <Position>
              <LatitudeDegrees>43.3853841014206409454345703125</LatitudeDegrees>
              <LongitudeDegrees>-4.3872639723122119903564453125</LongitudeDegrees>
            </Position>
            <AltitudeMeters>8</AltitudeMeters>
            <DistanceMeters>NAN</DistanceMeters>
          </Trackpoint>
          <Trackpoint>
            <Time>2022-07-15T07:23:43.000Z</Time>
            <Position>
              <LatitudeDegrees>43.38531008921563625335693359375</LatitudeDegrees>
              <LongitudeDegrees>-4.3874215520918369293212890625</LongitudeDegrees>
            </Position>
            <AltitudeMeters>8.3999996185302734375</AltitudeMeters>
            <DistanceMeters>NAN</DistanceMeters>
          </Trackpoint>
          <Trackpoint>
            <Time>2022-07-15T07:23:51.000Z</Time>
            <Position>
              <LatitudeDegrees>43.38519643060863018035888671875</LatitudeDegrees>
              <LongitudeDegrees>-4.38765800558030605316162109375</LongitudeDegrees>
            </Position>
            <AltitudeMeters>8.6000003814697265625</AltitudeMeters>
            <DistanceMeters>NAN</DistanceMeters>
          </Trackpoint>
          <Trackpoint>
            <Time>2022-07-15T07:23:52.000Z</Time>
            <Position>
              <LatitudeDegrees>43.38517949916422367095947265625</LatitudeDegrees>
              <LongitudeDegrees>-4.3876911140978336334228515625</LongitudeDegrees>
            </Position>
            <AltitudeMeters>8.6000003814697265625</AltitudeMeters>
            <DistanceMeters>NAN</DistanceMeters>
          </Trackpoint>
          <Trackpoint>
            <Time>2022-07-15T07:23:59.000Z</Time>
            <Position>
              <LatitudeDegrees>43.38506567291915416717529296875</LatitudeDegrees>
              <LongitudeDegrees>-4.38791432417929172515869140625</LongitudeDegrees>
            </Position>
            <AltitudeMeters>8.80000019073486328125</AltitudeMeters>
            <DistanceMeters>NAN</DistanceMeters>
          </Trackpoint>
          <Trackpoint>
            <Time>2022-07-15T07:24:00.000Z</Time>
            <Position>
              <LatitudeDegrees>43.38504287414252758026123046875</LatitudeDegrees>
              <LongitudeDegrees>-4.38794852234423160552978515625</LongitudeDegrees>
            </Position>
            <AltitudeMeters>8.80000019073486328125</AltitudeMeters>
            <DistanceMeters>NAN</DistanceMeters>
          </Trackpoint>
          <Trackpoint>
            <Time>2022-07-15T07:24:06.000Z</Time>
            <Position>
              <LatitudeDegrees>43.3848769962787628173828125</LatitudeDegrees>
              <LongitudeDegrees>-4.3881863169372081756591796875</LongitudeDegrees>
            </Position>
            <AltitudeMeters>8.3999996185302734375</AltitudeMeters>
            <DistanceMeters>NAN</DistanceMeters>
          </Trackpoint>
          <Trackpoint>
            <Time>2022-07-15T07:24:07.000Z</Time>
            <Position>
              <LatitudeDegrees>43.3848396129906177520751953125</LatitudeDegrees>
              <LongitudeDegrees>-4.3882302381098270416259765625</LongitudeDegrees>
            </Position>
            <AltitudeMeters>8.3999996185302734375</AltitudeMeters>
            <DistanceMeters>NAN</DistanceMeters>
          </Trackpoint>
          <Trackpoint>
            <Time>2022-07-15T07:24:08.000Z</Time>
            <Position>
              <LatitudeDegrees>43.38480700738728046417236328125</LatitudeDegrees>
              <LongitudeDegrees>-4.38827692531049251556396484375</LongitudeDegrees>
            </Position>
            <AltitudeMeters>8.19999980926513671875</AltitudeMeters>
            <DistanceMeters>NAN</DistanceMeters>
          </Trackpoint>
          <Trackpoint>
            <Time>2022-07-15T07:24:13.000Z</Time>
            <Position>
              <LatitudeDegrees>43.38462729938328266143798828125</LatitudeDegrees>
              <LongitudeDegrees>-4.38850290141999721527099609375</LongitudeDegrees>
            </Position>
            <AltitudeMeters>7.80000019073486328125</AltitudeMeters>
            <DistanceMeters>NAN</DistanceMeters>
          </Trackpoint>
          <Trackpoint>
            <Time>2022-07-15T07:24:16.000Z</Time>
            <Position>
              <LatitudeDegrees>43.384493105113506317138671875</LatitudeDegrees>
              <LongitudeDegrees>-4.38858278095722198486328125</LongitudeDegrees>
            </Position>
            <AltitudeMeters>7.599999904632568359375</AltitudeMeters>
            <DistanceMeters>NAN</DistanceMeters>
          </Trackpoint>
          <Trackpoint>
            <Time>2022-07-15T07:24:18.000Z</Time>
            <Position>
              <LatitudeDegrees>43.38439864106476306915283203125</LatitudeDegrees>
              <LongitudeDegrees>-4.38861220143735408782958984375</LongitudeDegrees>
            </Position>
            <AltitudeMeters>7.400000095367431640625</AltitudeMeters>
            <DistanceMeters>NAN</DistanceMeters>
          </Trackpoint>
          <Trackpoint>
            <Time>2022-07-15T07:24:20.000Z</Time>
            <Position>
              <LatitudeDegrees>43.384304679930210113525390625</LatitudeDegrees>
              <LongitudeDegrees>-4.38863265328109264373779296875</LongitudeDegrees>
            </Position>
            <AltitudeMeters>7.19999980926513671875</AltitudeMeters>
            <DistanceMeters>NAN</DistanceMeters>
          </Trackpoint>
          <Trackpoint>
            <Time>2022-07-15T07:24:21.000Z</Time>
            <Position>
              <LatitudeDegrees>43.384253047406673431396484375</LatitudeDegrees>
              <LongitudeDegrees>-4.38863785006105899810791015625</LongitudeDegrees>
            </Position>
            <AltitudeMeters>7</AltitudeMeters>
            <DistanceMeters>NAN</DistanceMeters>
          </Trackpoint>
          <Trackpoint>
            <Time>2022-07-15T07:24:22.000Z</Time>
            <Position>
              <LatitudeDegrees>43.384183309972286224365234375</LatitudeDegrees>
              <LongitudeDegrees>-4.38863919116556644439697265625</LongitudeDegrees>
            </Position>
            <AltitudeMeters>6.80000019073486328125</AltitudeMeters>
            <DistanceMeters>NAN</DistanceMeters>
          </Trackpoint>
          <Trackpoint>
            <Time>2022-07-15T07:24:24.000Z</Time>
            <Position>
              <LatitudeDegrees>43.38405699469149112701416015625</LatitudeDegrees>
              <LongitudeDegrees>-4.38865528441965579986572265625</LongitudeDegrees>
            </Position>
            <AltitudeMeters>6.599999904632568359375</AltitudeMeters>
            <DistanceMeters>NAN</DistanceMeters>
          </Trackpoint>
          <Trackpoint>
            <Time>2022-07-15T07:24:29.000Z</Time>
            <Position>
              <LatitudeDegrees>43.38376262225210666656494140625</LatitudeDegrees>
              <LongitudeDegrees>-4.38870859332382678985595703125</LongitudeDegrees>
            </Position>
            <AltitudeMeters>6</AltitudeMeters>
            <DistanceMeters>NAN</DistanceMeters>
          </Trackpoint>
          <Trackpoint>
            <Time>2022-07-15T07:24:30.000Z</Time>
            <Position>
              <LatitudeDegrees>43.3837063796818256378173828125</LatitudeDegrees>
              <LongitudeDegrees>-4.38872493803501129150390625</LongitudeDegrees>
            </Position>
            <AltitudeMeters>5.80000019073486328125</AltitudeMeters>
            <DistanceMeters>NAN</DistanceMeters>
          </Trackpoint>
          <Trackpoint>
            <Time>2022-07-15T07:24:31.000Z</Time>
            <Position>
              <LatitudeDegrees>43.383648879826068878173828125</LatitudeDegrees>
              <LongitudeDegrees>-4.38874237239360809326171875</LongitudeDegrees>
            </Position>
            <AltitudeMeters>5.599999904632568359375</AltitudeMeters>
            <DistanceMeters>NAN</DistanceMeters>
          </Trackpoint>
          <Trackpoint>
            <Time>2022-07-15T07:24:37.000Z</Time>
            <Position>
              <LatitudeDegrees>43.38331997394561767578125</LatitudeDegrees>
              <LongitudeDegrees>-4.38888913951814174652099609375</LongitudeDegrees>
            </Position>
            <AltitudeMeters>5.19999980926513671875</AltitudeMeters>
            <DistanceMeters>NAN</DistanceMeters>
          </Trackpoint>
          <Trackpoint>
            <Time>2022-07-15T07:24:39.000Z</Time>
            <Position>
              <LatitudeDegrees>43.383227773010730743408203125</LatitudeDegrees>
              <LongitudeDegrees>-4.38896239735186100006103515625</LongitudeDegrees>
            </Position>
            <AltitudeMeters>5.19999980926513671875</AltitudeMeters>
            <DistanceMeters>NAN</DistanceMeters>
          </Trackpoint>
          <Trackpoint>
            <Time>2022-07-15T07:24:42.000Z</Time>
            <Position>
              <LatitudeDegrees>43.38310883380472660064697265625</LatitudeDegrees>
              <LongitudeDegrees>-4.38911478035151958465576171875</LongitudeDegrees>
            </Position>
            <AltitudeMeters>4.80000019073486328125</AltitudeMeters>
            <DistanceMeters>NAN</DistanceMeters>
          </Trackpoint>
          <Trackpoint>
            <Time>2022-07-15T07:24:44.000Z</Time>
            <Position>
              <LatitudeDegrees>43.38305535726249217987060546875</LatitudeDegrees>
              <LongitudeDegrees>-4.38924168236553668975830078125</LongitudeDegrees>
            </Position>
            <AltitudeMeters>4.599999904632568359375</AltitudeMeters>
            <DistanceMeters>NAN</DistanceMeters>
          </Trackpoint>
          <Trackpoint>
            <Time>2022-07-15T07:24:48.000Z</Time>
            <Position>
              <LatitudeDegrees>43.38296734727919101715087890625</LatitudeDegrees>
              <LongitudeDegrees>-4.389514513313770294189453125</LongitudeDegrees>
            </Position>
            <AltitudeMeters>4.19999980926513671875</AltitudeMeters>
            <DistanceMeters>NAN</DistanceMeters>
          </Trackpoint>
          <Trackpoint>
            <Time>2022-07-15T07:24:50.000Z</Time>
            <Position>
              <LatitudeDegrees>43.3829251863062381744384765625</LatitudeDegrees>
              <LongitudeDegrees>-4.38964887522161006927490234375</LongitudeDegrees>
            </Position>
            <AltitudeMeters>4</AltitudeMeters>
            <DistanceMeters>NAN</DistanceMeters>
          </Trackpoint>
          <Trackpoint>
            <Time>2022-07-15T07:24:51.000Z</Time>
            <Position>
              <LatitudeDegrees>43.382898867130279541015625</LatitudeDegrees>
              <LongitudeDegrees>-4.3897088058292865753173828125</LongitudeDegrees>
            </Position>
            <AltitudeMeters>3.7999999523162841796875</AltitudeMeters>
            <DistanceMeters>NAN</DistanceMeters>
          </Trackpoint>
          <Trackpoint>
            <Time>2022-07-15T07:24:52.000Z</Time>
            <Position>
              <LatitudeDegrees>43.38286777026951313018798828125</LatitudeDegrees>
              <LongitudeDegrees>-4.3897631205618381500244140625</LongitudeDegrees>
            </Position>
            <AltitudeMeters>3.599999904632568359375</AltitudeMeters>
            <DistanceMeters>NAN</DistanceMeters>
          </Trackpoint>
          <Trackpoint>
            <Time>2022-07-15T07:24:55.000Z</Time>
            <Position>
              <LatitudeDegrees>43.382756374776363372802734375</LatitudeDegrees>
              <LongitudeDegrees>-4.38991491682827472686767578125</LongitudeDegrees>
            </Position>
            <AltitudeMeters>3.400000095367431640625</AltitudeMeters>
            <DistanceMeters>NAN</DistanceMeters>
          </Trackpoint>
          <Trackpoint>
            <Time>2022-07-15T07:24:56.000Z</Time>
            <Position>
              <LatitudeDegrees>43.38271941058337688446044921875</LatitudeDegrees>
              <LongitudeDegrees>-4.38995917327702045440673828125</LongitudeDegrees>
            </Position>
            <AltitudeMeters>3.400000095367431640625</AltitudeMeters>
            <DistanceMeters>NAN</DistanceMeters>
          </Trackpoint>
          <Trackpoint>
            <Time>2022-07-15T07:25:01.000Z</Time>
            <Position>
              <LatitudeDegrees>43.382497541606426239013671875</LatitudeDegrees>
              <LongitudeDegrees>-4.39008909277617931365966796875</LongitudeDegrees>
            </Position>
            <AltitudeMeters>3.2000000476837158203125</AltitudeMeters>
            <DistanceMeters>NAN</DistanceMeters>
          </Trackpoint>
          <Trackpoint>
            <Time>2022-07-15T07:25:03.000Z</Time>
            <Position>
              <LatitudeDegrees>43.3824200928211212158203125</LatitudeDegrees>
              <LongitudeDegrees>-4.390157572925090789794921875</LongitudeDegrees>
            </Position>
            <AltitudeMeters>3.2000000476837158203125</AltitudeMeters>
            <DistanceMeters>NAN</DistanceMeters>
          </Trackpoint>
          <Trackpoint>
            <Time>2022-07-15T07:25:05.000Z</Time>
            <Position>
              <LatitudeDegrees>43.38236385025084018707275390625</LatitudeDegrees>
              <LongitudeDegrees>-4.39026561565697193145751953125</LongitudeDegrees>
            </Position>
            <AltitudeMeters>3.2000000476837158203125</AltitudeMeters>
            <DistanceMeters>NAN</DistanceMeters>
          </Trackpoint>
          <Trackpoint>
            <Time>2022-07-15T07:25:13.000Z</Time>
            <Position>
              <LatitudeDegrees>43.3822154067456722259521484375</LatitudeDegrees>
              <LongitudeDegrees>-4.390738271176815032958984375</LongitudeDegrees>
            </Position>
            <AltitudeMeters>3</AltitudeMeters>
            <DistanceMeters>NAN</DistanceMeters>
          </Trackpoint>
          <Trackpoint>
            <Time>2022-07-15T07:25:18.000Z</Time>
            <Position>
              <LatitudeDegrees>43.38215564377605915069580078125</LatitudeDegrees>
              <LongitudeDegrees>-4.39102585427463054656982421875</LongitudeDegrees>
            </Position>
            <AltitudeMeters>2.7999999523162841796875</AltitudeMeters>
            <DistanceMeters>NAN</DistanceMeters>
          </Trackpoint>
          <Trackpoint>
            <Time>2022-07-15T07:25:20.000Z</Time>
            <Position>
              <LatitudeDegrees>43.3821319229900836944580078125</LatitudeDegrees>
              <LongitudeDegrees>-4.3911387585103511810302734375</LongitudeDegrees>
            </Position>
            <AltitudeMeters>2.7999999523162841796875</AltitudeMeters>
            <DistanceMeters>NAN</DistanceMeters>
          </Trackpoint>
          <Trackpoint>
            <Time>2022-07-15T07:25:23.000Z</Time>
            <Position>
              <LatitudeDegrees>43.38210426270961761474609375</LatitudeDegrees>
              <LongitudeDegrees>-4.39130279235541820526123046875</LongitudeDegrees>
            </Position>
            <AltitudeMeters>2.599999904632568359375</AltitudeMeters>
            <DistanceMeters>NAN</DistanceMeters>
          </Trackpoint>
          <Trackpoint>
            <Time>2022-07-15T07:25:31.000Z</Time>
            <Position>
              <LatitudeDegrees>43.38204517029225826263427734375</LatitudeDegrees>
              <LongitudeDegrees>-4.391712248325347900390625</LongitudeDegrees>
            </Position>
            <AltitudeMeters>2.7999999523162841796875</AltitudeMeters>
            <DistanceMeters>NAN</DistanceMeters>
          </Trackpoint>
          <Trackpoint>
            <Time>2022-07-15T07:25:39.000Z</Time>
            <Position>
              <LatitudeDegrees>43.3819882571697235107421875</LatitudeDegrees>
              <LongitudeDegrees>-4.39210611395537853240966796875</LongitudeDegrees>
            </Position>
            <AltitudeMeters>2.7999999523162841796875</AltitudeMeters>
            <DistanceMeters>NAN</DistanceMeters>
          </Trackpoint>
          <Trackpoint>
            <Time>2022-07-15T07:25:41.000Z</Time>
            <Position>
              <LatitudeDegrees>43.38197643868625164031982421875</LatitudeDegrees>
              <LongitudeDegrees>-4.39220401458442211151123046875</LongitudeDegrees>
            </Position>
            <AltitudeMeters>2.7999999523162841796875</AltitudeMeters>
            <DistanceMeters>NAN</DistanceMeters>
          </Trackpoint>
          <Trackpoint>
            <Time>2022-07-15T07:25:53.000Z</Time>
            <Position>
              <LatitudeDegrees>43.3819035999476909637451171875</LatitudeDegrees>
              <LongitudeDegrees>-4.392749257385730743408203125</LongitudeDegrees>
            </Position>
            <AltitudeMeters>3.400000095367431640625</AltitudeMeters>
            <DistanceMeters>NAN</DistanceMeters>
          </Trackpoint>
          <Trackpoint>
            <Time>2022-07-15T07:25:59.000Z</Time>
            <Position>
              <LatitudeDegrees>43.38186663575470447540283203125</LatitudeDegrees>
              <LongitudeDegrees>-4.39303298480808734893798828125</LongitudeDegrees>
            </Position>
            <AltitudeMeters>3.7999999523162841796875</AltitudeMeters>
            <DistanceMeters>NAN</DistanceMeters>
          </Trackpoint>
          <Trackpoint>
            <Time>2022-07-15T07:26:03.000Z</Time>
            <Position>
              <LatitudeDegrees>43.38184081949293613433837890625</LatitudeDegrees>
              <LongitudeDegrees>-4.3932392634451389312744140625</LongitudeDegrees>
            </Position>
            <AltitudeMeters>4</AltitudeMeters>
            <DistanceMeters>NAN</DistanceMeters>
          </Trackpoint>
          <Trackpoint>
            <Time>2022-07-15T07:26:15.000Z</Time>
            <Position>
              <LatitudeDegrees>43.38176789693534374237060546875</LatitudeDegrees>
              <LongitudeDegrees>-4.39382155425846576690673828125</LongitudeDegrees>
            </Position>
            <AltitudeMeters>4.19999980926513671875</AltitudeMeters>
            <DistanceMeters>NAN</DistanceMeters>
          </Trackpoint>
          <Trackpoint>
            <Time>2022-07-15T07:26:23.000Z</Time>
            <Position>
              <LatitudeDegrees>43.3817222155630588531494140625</LatitudeDegrees>
              <LongitudeDegrees>-4.39420628361403942108154296875</LongitudeDegrees>
            </Position>
            <AltitudeMeters>4.400000095367431640625</AltitudeMeters>
            <DistanceMeters>NAN</DistanceMeters>
          </Trackpoint>
          <Trackpoint>
            <Time>2022-07-15T07:26:30.000Z</Time>
            <Position>
              <LatitudeDegrees>43.381676115095615386962890625</LatitudeDegrees>
              <LongitudeDegrees>-4.39456947147846221923828125</LongitudeDegrees>
            </Position>
            <AltitudeMeters>4.80000019073486328125</AltitudeMeters>
            <DistanceMeters>NAN</DistanceMeters>
          </Trackpoint>
          <Trackpoint>
            <Time>2022-07-15T07:26:34.000Z</Time>
            <Position>
              <LatitudeDegrees>43.38164837099611759185791015625</LatitudeDegrees>
              <LongitudeDegrees>-4.39477792941033840179443359375</LongitudeDegrees>
            </Position>
            <AltitudeMeters>4.80000019073486328125</AltitudeMeters>
            <DistanceMeters>NAN</DistanceMeters>
          </Trackpoint>
          <Trackpoint>
            <Time>2022-07-15T07:26:37.000Z</Time>
            <Position>
              <LatitudeDegrees>43.38163110427558422088623046875</LatitudeDegrees>
              <LongitudeDegrees>-4.3949347548186779022216796875</LongitudeDegrees>
            </Position>
            <AltitudeMeters>4.80000019073486328125</AltitudeMeters>
            <DistanceMeters>NAN</DistanceMeters>
          </Trackpoint>
          <Trackpoint>
            <Time>2022-07-15T07:26:39.000Z</Time>
            <Position>
              <LatitudeDegrees>43.38161383755505084991455078125</LatitudeDegrees>
              <LongitudeDegrees>-4.3950386904180049896240234375</LongitudeDegrees>
            </Position>
            <AltitudeMeters>4.80000019073486328125</AltitudeMeters>
            <DistanceMeters>NAN</DistanceMeters>
          </Trackpoint>
          <Trackpoint>
            <Time>2022-07-15T07:26:43.000Z</Time>
            <Position>
              <LatitudeDegrees>43.38159330189228057861328125</LatitudeDegrees>
              <LongitudeDegrees>-4.39524077810347080230712890625</LongitudeDegrees>
            </Position>
            <AltitudeMeters>4.80000019073486328125</AltitudeMeters>
            <DistanceMeters>NAN</DistanceMeters>
          </Trackpoint>
          <Trackpoint>
            <Time>2022-07-15T07:26:45.000Z</Time>
            <Position>
              <LatitudeDegrees>43.38157989084720611572265625</LatitudeDegrees>
              <LongitudeDegrees>-4.3953387625515460968017578125</LongitudeDegrees>
            </Position>
            <AltitudeMeters>4.80000019073486328125</AltitudeMeters>
            <DistanceMeters>NAN</DistanceMeters>
          </Trackpoint>
          <Trackpoint>
            <Time>2022-07-15T07:26:50.000Z</Time>
            <Position>
              <LatitudeDegrees>43.38154342956840991973876953125</LatitudeDegrees>
              <LongitudeDegrees>-4.39559097401797771453857421875</LongitudeDegrees>
            </Position>
            <AltitudeMeters>5</AltitudeMeters>
            <DistanceMeters>NAN</DistanceMeters>
          </Trackpoint>
          <Trackpoint>
            <Time>2022-07-15T07:26:53.000Z</Time>
            <Position>
              <LatitudeDegrees>43.3815210498869419097900390625</LatitudeDegrees>
              <LongitudeDegrees>-4.3957410939037799835205078125</LongitudeDegrees>
            </Position>
            <AltitudeMeters>5</AltitudeMeters>
            <DistanceMeters>NAN</DistanceMeters>
          </Trackpoint>
          <Trackpoint>
            <Time>2022-07-15T07:27:00.000Z</Time>
            <Position>
              <LatitudeDegrees>43.38148333132266998291015625</LatitudeDegrees>
              <LongitudeDegrees>-4.3960730172693729400634765625</LongitudeDegrees>
            </Position>
            <AltitudeMeters>5</AltitudeMeters>
            <DistanceMeters>NAN</DistanceMeters>
          </Trackpoint>
          <Trackpoint>
            <Time>2022-07-15T07:27:03.000Z</Time>
            <Position>
              <LatitudeDegrees>43.3814704231917858123779296875</LatitudeDegrees>
              <LongitudeDegrees>-4.39621861092746257781982421875</LongitudeDegrees>
            </Position>
            <AltitudeMeters>5</AltitudeMeters>
            <DistanceMeters>NAN</DistanceMeters>
          </Trackpoint>
          <Trackpoint>
            <Time>2022-07-15T07:27:11.000Z</Time>
            <Position>
              <LatitudeDegrees>43.38142440654337406158447265625</LatitudeDegrees>
              <LongitudeDegrees>-4.3966074474155902862548828125</LongitudeDegrees>
            </Position>
            <AltitudeMeters>5.19999980926513671875</AltitudeMeters>
            <DistanceMeters>NAN</DistanceMeters>
          </Trackpoint>
          <Trackpoint>
            <Time>2022-07-15T07:27:18.000Z</Time>
            <Position>
              <LatitudeDegrees>43.38142004795372486114501953125</LatitudeDegrees>
              <LongitudeDegrees>-4.39691447652876377105712890625</LongitudeDegrees>
            </Position>
            <AltitudeMeters>5.400000095367431640625</AltitudeMeters>
            <DistanceMeters>NAN</DistanceMeters>
          </Trackpoint>
          <Trackpoint>
            <Time>2022-07-15T07:27:23.000Z</Time>
            <Position>
              <LatitudeDegrees>43.38151861913502216339111328125</LatitudeDegrees>
              <LongitudeDegrees>-4.3970868922770023345947265625</LongitudeDegrees>
            </Position>
            <AltitudeMeters>5</AltitudeMeters>
            <DistanceMeters>NAN</DistanceMeters>
          </Trackpoint>
          <Trackpoint>
            <Time>2022-07-15T07:27:26.000Z</Time>
            <Position>
              <LatitudeDegrees>43.38159573264420032501220703125</LatitudeDegrees>
              <LongitudeDegrees>-4.3971328251063823699951171875</LongitudeDegrees>
            </Position>
            <AltitudeMeters>4.80000019073486328125</AltitudeMeters>
            <DistanceMeters>NAN</DistanceMeters>
          </Trackpoint>
          <Trackpoint>
            <Time>2022-07-15T07:27:28.000Z</Time>
            <Position>
              <LatitudeDegrees>43.3816467784345149993896484375</LatitudeDegrees>
              <LongitudeDegrees>-4.39716878347098827362060546875</LongitudeDegrees>
            </Position>
            <AltitudeMeters>4.80000019073486328125</AltitudeMeters>
            <DistanceMeters>NAN</DistanceMeters>
          </Trackpoint>
          <Trackpoint>
            <Time>2022-07-15T07:27:33.000Z</Time>
            <Position>
              <LatitudeDegrees>43.38180209510028362274169921875</LatitudeDegrees>
              <LongitudeDegrees>-4.39722888171672821044921875</LongitudeDegrees>
            </Position>
            <AltitudeMeters>4.400000095367431640625</AltitudeMeters>
            <DistanceMeters>NAN</DistanceMeters>
          </Trackpoint>
          <Trackpoint>
            <Time>2022-07-15T07:27:34.000Z</Time>
            <Position>
              <LatitudeDegrees>43.38183277286589145660400390625</LatitudeDegrees>
              <LongitudeDegrees>-4.39721471630036830902099609375</LongitudeDegrees>
            </Position>
            <AltitudeMeters>4.19999980926513671875</AltitudeMeters>
            <DistanceMeters>NAN</DistanceMeters>
          </Trackpoint>
          <Trackpoint>
            <Time>2022-07-15T07:27:38.000Z</Time>
            <Position>
              <LatitudeDegrees>43.381948359310626983642578125</LatitudeDegrees>
              <LongitudeDegrees>-4.3970956094563007354736328125</LongitudeDegrees>
            </Position>
            <AltitudeMeters>4</AltitudeMeters>
            <DistanceMeters>NAN</DistanceMeters>
          </Trackpoint>
          <Trackpoint>
            <Time>2022-07-15T07:27:39.000Z</Time>
            <Position>
              <LatitudeDegrees>43.38196814060211181640625</LatitudeDegrees>
              <LongitudeDegrees>-4.3970543704926967620849609375</LongitudeDegrees>
            </Position>
            <AltitudeMeters>4</AltitudeMeters>
            <DistanceMeters>NAN</DistanceMeters>
          </Trackpoint>
          <Trackpoint>
            <Time>2022-07-15T07:27:44.000Z</Time>
            <Position>
              <LatitudeDegrees>43.3820960484445095062255859375</LatitudeDegrees>
              <LongitudeDegrees>-4.396907351911067962646484375</LongitudeDegrees>
            </Position>
            <AltitudeMeters>3.7999999523162841796875</AltitudeMeters>
            <DistanceMeters>NAN</DistanceMeters>
          </Trackpoint>
          <Trackpoint>
            <Time>2022-07-15T07:27:45.000Z</Time>
            <Position>
              <LatitudeDegrees>43.38212781585752964019775390625</LatitudeDegrees>
              <LongitudeDegrees>-4.39690492115914821624755859375</LongitudeDegrees>
            </Position>
            <AltitudeMeters>3.7999999523162841796875</AltitudeMeters>
            <DistanceMeters>NAN</DistanceMeters>
          </Trackpoint>
          <Trackpoint>
            <Time>2022-07-15T07:27:47.000Z</Time>
            <Position>
              <LatitudeDegrees>43.38218984194099903106689453125</LatitudeDegrees>
              <LongitudeDegrees>-4.396899975836277008056640625</LongitudeDegrees>
            </Position>
            <AltitudeMeters>3.599999904632568359375</AltitudeMeters>
            <DistanceMeters>NAN</DistanceMeters>
          </Trackpoint>
          <Trackpoint>
            <Time>2022-07-15T07:27:49.000Z</Time>
            <Position>
              <LatitudeDegrees>43.38225538842380046844482421875</LatitudeDegrees>
              <LongitudeDegrees>-4.3968870677053928375244140625</LongitudeDegrees>
            </Position>
            <AltitudeMeters>3.400000095367431640625</AltitudeMeters>
            <DistanceMeters>NAN</DistanceMeters>
          </Trackpoint>
          <Trackpoint>
            <Time>2022-07-15T07:27:52.000Z</Time>
            <Position>
              <LatitudeDegrees>43.382335267961025238037109375</LatitudeDegrees>
              <LongitudeDegrees>-4.39692042768001556396484375</LongitudeDegrees>
            </Position>
            <AltitudeMeters>3.400000095367431640625</AltitudeMeters>
            <DistanceMeters>NAN</DistanceMeters>
          </Trackpoint>
          <Trackpoint>
            <Time>2022-07-15T07:27:54.000Z</Time>
            <Position>
              <LatitudeDegrees>43.38238614611327648162841796875</LatitudeDegrees>
              <LongitudeDegrees>-4.39695487730205059051513671875</LongitudeDegrees>
            </Position>
            <AltitudeMeters>3.2000000476837158203125</AltitudeMeters>
            <DistanceMeters>NAN</DistanceMeters>
          </Trackpoint>
          <Trackpoint>
            <Time>2022-07-15T07:28:04.000Z</Time>
            <Position>
              <LatitudeDegrees>43.3826505951583385467529296875</LatitudeDegrees>
              <LongitudeDegrees>-4.39717012457549571990966796875</LongitudeDegrees>
            </Position>
            <AltitudeMeters>3.2000000476837158203125</AltitudeMeters>
            <DistanceMeters>NAN</DistanceMeters>
          </Trackpoint>
          <Trackpoint>
            <Time>2022-07-15T07:28:13.000Z</Time>
            <Position>
              <LatitudeDegrees>43.38292811997234821319580078125</LatitudeDegrees>
              <LongitudeDegrees>-4.3973976932466030120849609375</LongitudeDegrees>
            </Position>
            <AltitudeMeters>3.2000000476837158203125</AltitudeMeters>
            <DistanceMeters>NAN</DistanceMeters>
          </Trackpoint>
          <Trackpoint>
            <Time>2022-07-15T07:28:22.000Z</Time>
            <Position>
              <LatitudeDegrees>43.3832215704023838043212890625</LatitudeDegrees>
              <LongitudeDegrees>-4.39767010509967803955078125</LongitudeDegrees>
            </Position>
            <AltitudeMeters>3.2000000476837158203125</AltitudeMeters>
            <DistanceMeters>NAN</DistanceMeters>
          </Trackpoint>
          <Trackpoint>
            <Time>2022-07-15T07:28:23.000Z</Time>
            <Position>
              <LatitudeDegrees>43.38325761258602142333984375</LatitudeDegrees>
              <LongitudeDegrees>-4.39768980257213115692138671875</LongitudeDegrees>
            </Position>
            <AltitudeMeters>3.2000000476837158203125</AltitudeMeters>
            <DistanceMeters>NAN</DistanceMeters>
          </Trackpoint>
          <Trackpoint>
            <Time>2022-07-15T07:28:25.000Z</Time>
            <Position>
              <LatitudeDegrees>43.38332123123109340667724609375</LatitudeDegrees>
              <LongitudeDegrees>-4.39773313701152801513671875</LongitudeDegrees>
            </Position>
            <AltitudeMeters>3.2000000476837158203125</AltitudeMeters>
            <DistanceMeters>NAN</DistanceMeters>
          </Trackpoint>
          <Trackpoint>
            <Time>2022-07-15T07:28:32.000Z</Time>
            <Position>
              <LatitudeDegrees>43.38352985680103302001953125</LatitudeDegrees>
              <LongitudeDegrees>-4.3979126773774623870849609375</LongitudeDegrees>
            </Position>
            <AltitudeMeters>3.2000000476837158203125</AltitudeMeters>
            <DistanceMeters>NAN</DistanceMeters>
          </Trackpoint>
          <Trackpoint>
            <Time>2022-07-15T07:28:34.000Z</Time>
            <Position>
              <LatitudeDegrees>43.38358375243842601776123046875</LatitudeDegrees>
              <LongitudeDegrees>-4.3979555927217006683349609375</LongitudeDegrees>
            </Position>
            <AltitudeMeters>3.2000000476837158203125</AltitudeMeters>
            <DistanceMeters>NAN</DistanceMeters>
          </Trackpoint>
          <Trackpoint>
            <Time>2022-07-15T07:28:42.000Z</Time>
            <Position>
              <LatitudeDegrees>43.38382079266011714935302734375</LatitudeDegrees>
              <LongitudeDegrees>-4.39815424382686614990234375</LongitudeDegrees>
            </Position>
            <AltitudeMeters>3.2000000476837158203125</AltitudeMeters>
            <DistanceMeters>NAN</DistanceMeters>
          </Trackpoint>
          <Trackpoint>
            <Time>2022-07-15T07:28:46.000Z</Time>
            <Position>
              <LatitudeDegrees>43.38393763639032840728759765625</LatitudeDegrees>
              <LongitudeDegrees>-4.398253820836544036865234375</LongitudeDegrees>
            </Position>
            <AltitudeMeters>3.2000000476837158203125</AltitudeMeters>
            <DistanceMeters>NAN</DistanceMeters>
          </Trackpoint>
          <Trackpoint>
            <Time>2022-07-15T07:28:52.000Z</Time>
            <Position>
              <LatitudeDegrees>43.38407224975526332855224609375</LatitudeDegrees>
              <LongitudeDegrees>-4.39836689271032810211181640625</LongitudeDegrees>
            </Position>
            <AltitudeMeters>3.2000000476837158203125</AltitudeMeters>
            <DistanceMeters>NAN</DistanceMeters>
          </Trackpoint>
          <Trackpoint>
            <Time>2022-07-15T07:28:55.000Z</Time>
            <Position>
              <LatitudeDegrees>43.3841382153332233428955078125</LatitudeDegrees>
              <LongitudeDegrees>-4.39842246472835540771484375</LongitudeDegrees>
            </Position>
            <AltitudeMeters>3</AltitudeMeters>
            <DistanceMeters>NAN</DistanceMeters>
          </Trackpoint>
          <Trackpoint>
            <Time>2022-07-15T07:28:56.000Z</Time>
            <Position>
              <LatitudeDegrees>43.3841621875762939453125</LatitudeDegrees>
              <LongitudeDegrees>-4.398442246019840240478515625</LongitudeDegrees>
            </Position>
            <AltitudeMeters>3</AltitudeMeters>
            <DistanceMeters>NAN</DistanceMeters>
          </Trackpoint>
          <Trackpoint>
            <Time>2022-07-15T07:29:03.000Z</Time>
            <Position>
              <LatitudeDegrees>43.38431851007044315338134765625</LatitudeDegrees>
              <LongitudeDegrees>-4.3985745124518871307373046875</LongitudeDegrees>
            </Position>
            <AltitudeMeters>3</AltitudeMeters>
            <DistanceMeters>NAN</DistanceMeters>
          </Trackpoint>
          <Trackpoint>
            <Time>2022-07-15T07:29:09.000Z</Time>
            <Position>
              <LatitudeDegrees>43.38445060886442661285400390625</LatitudeDegrees>
              <LongitudeDegrees>-4.39866922795772552490234375</LongitudeDegrees>
            </Position>
            <AltitudeMeters>3</AltitudeMeters>
            <DistanceMeters>NAN</DistanceMeters>
          </Trackpoint>
          <Trackpoint>
            <Time>2022-07-15T07:29:12.000Z</Time>
            <Position>
              <LatitudeDegrees>43.3845143951475620269775390625</LatitudeDegrees>
              <LongitudeDegrees>-4.39863142557442188262939453125</LongitudeDegrees>
            </Position>
            <AltitudeMeters>2.7999999523162841796875</AltitudeMeters>
            <DistanceMeters>NAN</DistanceMeters>
          </Trackpoint>
          <Trackpoint>
            <Time>2022-07-15T07:29:14.000Z</Time>
            <Position>
              <LatitudeDegrees>43.384556807577610015869140625</LatitudeDegrees>
              <LongitudeDegrees>-4.3985778652131557464599609375</LongitudeDegrees>
            </Position>
            <AltitudeMeters>2.599999904632568359375</AltitudeMeters>
            <DistanceMeters>NAN</DistanceMeters>
          </Trackpoint>
          <Trackpoint>
            <Time>2022-07-15T07:29:22.000Z</Time>
            <Position>
              <LatitudeDegrees>43.3847132138907909393310546875</LatitudeDegrees>
              <LongitudeDegrees>-4.39835809171199798583984375</LongitudeDegrees>
            </Position>
            <AltitudeMeters>2.7999999523162841796875</AltitudeMeters>
            <DistanceMeters>NAN</DistanceMeters>
          </Trackpoint>
          <Trackpoint>
            <Time>2022-07-15T07:29:29.000Z</Time>
            <Position>
              <LatitudeDegrees>43.3848520182073116302490234375</LatitudeDegrees>
              <LongitudeDegrees>-4.39823336899280548095703125</LongitudeDegrees>
            </Position>
            <AltitudeMeters>2.599999904632568359375</AltitudeMeters>
            <DistanceMeters>NAN</DistanceMeters>
          </Trackpoint>
          <Trackpoint>
            <Time>2022-07-15T07:29:33.000Z</Time>
            <Position>
              <LatitudeDegrees>43.3848627470433712005615234375</LatitudeDegrees>
              <LongitudeDegrees>-4.3982315249741077423095703125</LongitudeDegrees>
            </Position>
            <AltitudeMeters>2.400000095367431640625</AltitudeMeters>
            <DistanceMeters>NAN</DistanceMeters>
          </Trackpoint>
          <Trackpoint>
            <Time>2022-07-15T07:49:54.000Z</Time>
            <Position>
              <LatitudeDegrees>43.38486299850046634674072265625</LatitudeDegrees>
              <LongitudeDegrees>-4.39833604730665683746337890625</LongitudeDegrees>
            </Position>
            <AltitudeMeters>-3.2000000476837158203125</AltitudeMeters>
            <DistanceMeters>NAN</DistanceMeters>
          </Trackpoint>
          <Trackpoint>
            <Time>2022-07-15T07:49:55.000Z</Time>
            <Position>
              <LatitudeDegrees>43.3848607353866100311279296875</LatitudeDegrees>
              <LongitudeDegrees>-4.39835063181817531585693359375</LongitudeDegrees>
            </Position>
            <AltitudeMeters>-3.2000000476837158203125</AltitudeMeters>
            <DistanceMeters>NAN</DistanceMeters>
          </Trackpoint>
          <Trackpoint>
            <Time>2022-07-15T07:50:00.000Z</Time>
            <Position>
              <LatitudeDegrees>43.3848587237298488616943359375</LatitudeDegrees>
              <LongitudeDegrees>-4.3983813934028148651123046875</LongitudeDegrees>
            </Position>
            <AltitudeMeters>-4.19999980926513671875</AltitudeMeters>
            <DistanceMeters>NAN</DistanceMeters>
          </Trackpoint>
          <Trackpoint>
            <Time>2022-07-15T07:50:01.000Z</Time>
            <Position>
              <LatitudeDegrees>43.3848587237298488616943359375</LatitudeDegrees>
              <LongitudeDegrees>-4.3983813934028148651123046875</LongitudeDegrees>
            </Position>
            <AltitudeMeters>-4</AltitudeMeters>
            <DistanceMeters>NAN</DistanceMeters>
          </Trackpoint>
          <Trackpoint>
            <Time>2022-07-15T07:50:07.000Z</Time>
            <Position>
              <LatitudeDegrees>43.38488864712417125701904296875</LatitudeDegrees>
              <LongitudeDegrees>-4.39834199845790863037109375</LongitudeDegrees>
            </Position>
            <AltitudeMeters>-4</AltitudeMeters>
            <DistanceMeters>NAN</DistanceMeters>
          </Trackpoint>
          <Trackpoint>
            <Time>2022-07-15T07:50:10.000Z</Time>
            <Position>
              <LatitudeDegrees>43.3849127031862735748291015625</LatitudeDegrees>
              <LongitudeDegrees>-4.398290030658245086669921875</LongitudeDegrees>
            </Position>
            <AltitudeMeters>-4.19999980926513671875</AltitudeMeters>
            <DistanceMeters>NAN</DistanceMeters>
          </Trackpoint>
          <Trackpoint>
            <Time>2022-07-15T07:50:13.000Z</Time>
            <Position>
              <LatitudeDegrees>43.38491178117692470550537109375</LatitudeDegrees>
              <LongitudeDegrees>-4.3982264958322048187255859375</LongitudeDegrees>
            </Position>
            <AltitudeMeters>-4.19999980926513671875</AltitudeMeters>
            <DistanceMeters>NAN</DistanceMeters>
          </Trackpoint>
          <Trackpoint>
            <Time>2022-07-15T07:50:16.000Z</Time>
            <Position>
              <LatitudeDegrees>43.38491111062467098236083984375</LatitudeDegrees>
              <LongitudeDegrees>-4.39822155050933361053466796875</LongitudeDegrees>
            </Position>
            <AltitudeMeters>-4.19999980926513671875</AltitudeMeters>
            <DistanceMeters>NAN</DistanceMeters>
          </Trackpoint>
          <Trackpoint>
            <Time>2022-07-15T07:57:48.000Z</Time>
            <Position>
              <LatitudeDegrees>43.38486014865338802337646484375</LatitudeDegrees>
              <LongitudeDegrees>-4.3982982449233531951904296875</LongitudeDegrees>
            </Position>
            <AltitudeMeters>-6.80000019073486328125</AltitudeMeters>
            <DistanceMeters>NAN</DistanceMeters>
          </Trackpoint>
          <Trackpoint>
            <Time>2022-07-15T07:57:49.000Z</Time>
            <Position>
              <LatitudeDegrees>43.38484472595155239105224609375</LatitudeDegrees>
              <LongitudeDegrees>-4.3983217142522335052490234375</LongitudeDegrees>
            </Position>
            <AltitudeMeters>-6.80000019073486328125</AltitudeMeters>
            <DistanceMeters>NAN</DistanceMeters>
          </Trackpoint>
          <Trackpoint>
            <Time>2022-07-15T07:57:50.000Z</Time>
            <Position>
              <LatitudeDegrees>43.38482804596424102783203125</LatitudeDegrees>
              <LongitudeDegrees>-4.3983408249914646148681640625</LongitudeDegrees>
            </Position>
            <AltitudeMeters>-5.80000019073486328125</AltitudeMeters>
            <DistanceMeters>NAN</DistanceMeters>
          </Trackpoint>
          <Trackpoint>
            <Time>2022-07-15T07:57:53.000Z</Time>
            <Position>
              <LatitudeDegrees>43.38476124219596385955810546875</LatitudeDegrees>
              <LongitudeDegrees>-4.39839270897209644317626953125</LongitudeDegrees>
            </Position>
            <AltitudeMeters>-4.599999904632568359375</AltitudeMeters>
            <DistanceMeters>NAN</DistanceMeters>
          </Trackpoint>
          <Trackpoint>
            <Time>2022-07-15T07:57:57.000Z</Time>
            <Position>
              <LatitudeDegrees>43.38469904847443103790283203125</LatitudeDegrees>
              <LongitudeDegrees>-4.39845456741750240325927734375</LongitudeDegrees>
            </Position>
            <AltitudeMeters>-4.400000095367431640625</AltitudeMeters>
            <DistanceMeters>NAN</DistanceMeters>
          </Trackpoint>
          <Trackpoint>
            <Time>2022-07-15T07:58:05.000Z</Time>
            <Position>
              <LatitudeDegrees>43.3846210129559040069580078125</LatitudeDegrees>
              <LongitudeDegrees>-4.398587085306644439697265625</LongitudeDegrees>
            </Position>
            <AltitudeMeters>-4.400000095367431640625</AltitudeMeters>
            <DistanceMeters>NAN</DistanceMeters>
          </Trackpoint>
          <Trackpoint>
            <Time>2022-07-15T07:58:06.000Z</Time>
            <Position>
              <LatitudeDegrees>43.384615145623683929443359375</LatitudeDegrees>
              <LongitudeDegrees>-4.3986097164452075958251953125</LongitudeDegrees>
            </Position>
            <AltitudeMeters>-4.400000095367431640625</AltitudeMeters>
            <DistanceMeters>NAN</DistanceMeters>
          </Trackpoint>
          <Trackpoint>
            <Time>2022-07-15T07:58:08.000Z</Time>
            <Position>
              <LatitudeDegrees>43.3846210129559040069580078125</LatitudeDegrees>
              <LongitudeDegrees>-4.39865523017942905426025390625</LongitudeDegrees>
            </Position>
            <AltitudeMeters>-4.19999980926513671875</AltitudeMeters>
            <DistanceMeters>NAN</DistanceMeters>
          </Trackpoint>
          <Trackpoint>
            <Time>2022-07-15T07:58:09.000Z</Time>
            <Position>
              <LatitudeDegrees>43.38463014923036098480224609375</LatitudeDegrees>
              <LongitudeDegrees>-4.3986650370061397552490234375</LongitudeDegrees>
            </Position>
            <AltitudeMeters>-4.19999980926513671875</AltitudeMeters>
            <DistanceMeters>NAN</DistanceMeters>
          </Trackpoint>
          <Trackpoint>
            <Time>2022-07-15T07:58:12.000Z</Time>
            <Position>
              <LatitudeDegrees>43.384650014340877532958984375</LatitudeDegrees>
              <LongitudeDegrees>-4.39864584244787693023681640625</LongitudeDegrees>
            </Position>
            <AltitudeMeters>-4.19999980926513671875</AltitudeMeters>
            <DistanceMeters>NAN</DistanceMeters>
          </Trackpoint>
          <Trackpoint>
            <Time>2022-07-15T07:58:13.000Z</Time>
            <Position>
              <LatitudeDegrees>43.384658731520175933837890625</LatitudeDegrees>
              <LongitudeDegrees>-4.39863326959311962127685546875</LongitudeDegrees>
            </Position>
            <AltitudeMeters>-4.19999980926513671875</AltitudeMeters>
            <DistanceMeters>NAN</DistanceMeters>
          </Trackpoint>
          <Trackpoint>
            <Time>2022-07-15T07:58:15.000Z</Time>
            <Position>
              <LatitudeDegrees>43.38466820307075977325439453125</LatitudeDegrees>
              <LongitudeDegrees>-4.3985942937433719635009765625</LongitudeDegrees>
            </Position>
            <AltitudeMeters>-4.19999980926513671875</AltitudeMeters>
            <DistanceMeters>NAN</DistanceMeters>
          </Trackpoint>
          <Trackpoint>
            <Time>2022-07-15T07:58:18.000Z</Time>
            <Position>
              <LatitudeDegrees>43.3846458233892917633056640625</LatitudeDegrees>
              <LongitudeDegrees>-4.39857090823352336883544921875</LongitudeDegrees>
            </Position>
            <AltitudeMeters>-4.19999980926513671875</AltitudeMeters>
            <DistanceMeters>NAN</DistanceMeters>
          </Trackpoint>
          <Trackpoint>
            <Time>2022-07-15T07:58:23.000Z</Time>
            <Position>
              <LatitudeDegrees>43.38457633741199970245361328125</LatitudeDegrees>
              <LongitudeDegrees>-4.39864416606724262237548828125</LongitudeDegrees>
            </Position>
            <AltitudeMeters>-4.19999980926513671875</AltitudeMeters>
            <DistanceMeters>NAN</DistanceMeters>
          </Trackpoint>
          <Trackpoint>
            <Time>2022-07-15T07:58:25.000Z</Time>
            <Position>
              <LatitudeDegrees>43.38454247452318668365478515625</LatitudeDegrees>
              <LongitudeDegrees>-4.3986693955957889556884765625</LongitudeDegrees>
            </Position>
            <AltitudeMeters>-4.19999980926513671875</AltitudeMeters>
            <DistanceMeters>NAN</DistanceMeters>
          </Trackpoint>
          <Trackpoint>
            <Time>2022-07-15T07:58:31.000Z</Time>
            <Position>
              <LatitudeDegrees>43.384435437619686126708984375</LatitudeDegrees>
              <LongitudeDegrees>-4.398680292069911956787109375</LongitudeDegrees>
            </Position>
            <AltitudeMeters>-4</AltitudeMeters>
            <DistanceMeters>NAN</DistanceMeters>
          </Trackpoint>
          <Trackpoint>
            <Time>2022-07-15T07:58:32.000Z</Time>
            <Position>
              <LatitudeDegrees>43.3844215236604213714599609375</LatitudeDegrees>
              <LongitudeDegrees>-4.398672580718994140625</LongitudeDegrees>
            </Position>
            <AltitudeMeters>-3.7999999523162841796875</AltitudeMeters>
            <DistanceMeters>NAN</DistanceMeters>
          </Trackpoint>
          <Trackpoint>
            <Time>2022-07-15T07:58:42.000Z</Time>
            <Position>
              <LatitudeDegrees>43.38426821865141391754150390625</LatitudeDegrees>
              <LongitudeDegrees>-4.3985156714916229248046875</LongitudeDegrees>
            </Position>
            <AltitudeMeters>-3.599999904632568359375</AltitudeMeters>
            <DistanceMeters>NAN</DistanceMeters>
          </Trackpoint>
          <Trackpoint>
            <Time>2022-07-15T07:58:46.000Z</Time>
            <Position>
              <LatitudeDegrees>43.38419177569448947906494140625</LatitudeDegrees>
              <LongitudeDegrees>-4.3984662182629108428955078125</LongitudeDegrees>
            </Position>
            <AltitudeMeters>-3.599999904632568359375</AltitudeMeters>
            <DistanceMeters>NAN</DistanceMeters>
          </Trackpoint>
          <Trackpoint>
            <Time>2022-07-15T07:58:47.000Z</Time>
            <Position>
              <LatitudeDegrees>43.3841885067522525787353515625</LatitudeDegrees>
              <LongitudeDegrees>-4.39846563152968883514404296875</LongitudeDegrees>
            </Position>
            <AltitudeMeters>-3.599999904632568359375</AltitudeMeters>
            <DistanceMeters>NAN</DistanceMeters>
          </Trackpoint>
          <Trackpoint>
            <Time>2022-07-15T07:58:48.000Z</Time>
            <Position>
              <LatitudeDegrees>43.3841885067522525787353515625</LatitudeDegrees>
              <LongitudeDegrees>-4.39846563152968883514404296875</LongitudeDegrees>
            </Position>
            <AltitudeMeters>-3.599999904632568359375</AltitudeMeters>
            <DistanceMeters>NAN</DistanceMeters>
          </Trackpoint>
          <Trackpoint>
            <Time>2022-07-15T07:58:49.000Z</Time>
            <Position>
              <LatitudeDegrees>43.3841885067522525787353515625</LatitudeDegrees>
              <LongitudeDegrees>-4.39846563152968883514404296875</LongitudeDegrees>
            </Position>
            <AltitudeMeters>-3.400000095367431640625</AltitudeMeters>
            <DistanceMeters>NAN</DistanceMeters>
          </Trackpoint>
          <Trackpoint>
            <Time>2022-07-15T07:59:48.000Z</Time>
            <Position>
              <LatitudeDegrees>43.38415791280567646026611328125</LatitudeDegrees>
              <LongitudeDegrees>-4.3984082154929637908935546875</LongitudeDegrees>
            </Position>
            <AltitudeMeters>-4</AltitudeMeters>
            <DistanceMeters>NAN</DistanceMeters>
          </Trackpoint>
          <Trackpoint>
            <Time>2022-07-15T07:59:50.000Z</Time>
            <Position>
              <LatitudeDegrees>43.3841402269899845123291015625</LatitudeDegrees>
              <LongitudeDegrees>-4.398379884660243988037109375</LongitudeDegrees>
            </Position>
            <AltitudeMeters>-4</AltitudeMeters>
            <DistanceMeters>NAN</DistanceMeters>
          </Trackpoint>
          <Trackpoint>
            <Time>2022-07-15T07:59:55.000Z</Time>
            <Position>
              <LatitudeDegrees>43.38405280373990535736083984375</LatitudeDegrees>
              <LongitudeDegrees>-4.39830620773136615753173828125</LongitudeDegrees>
            </Position>
            <AltitudeMeters>-3.7999999523162841796875</AltitudeMeters>
            <DistanceMeters>NAN</DistanceMeters>
          </Trackpoint>
          <Trackpoint>
            <Time>2022-07-15T07:59:57.000Z</Time>
            <Position>
              <LatitudeDegrees>43.3840151689946651458740234375</LatitudeDegrees>
              <LongitudeDegrees>-4.39827552996575832366943359375</LongitudeDegrees>
            </Position>
            <AltitudeMeters>-3.7999999523162841796875</AltitudeMeters>
            <DistanceMeters>NAN</DistanceMeters>
          </Trackpoint>
          <Trackpoint>
            <Time>2022-07-15T08:00:02.000Z</Time>
            <Position>
              <LatitudeDegrees>43.3839041925966739654541015625</LatitudeDegrees>
              <LongitudeDegrees>-4.398178048431873321533203125</LongitudeDegrees>
            </Position>
            <AltitudeMeters>-4</AltitudeMeters>
            <DistanceMeters>NAN</DistanceMeters>
          </Trackpoint>
          <Trackpoint>
            <Time>2022-07-15T08:00:07.000Z</Time>
            <Position>
              <LatitudeDegrees>43.3837759494781494140625</LatitudeDegrees>
              <LongitudeDegrees>-4.39808945171535015106201171875</LongitudeDegrees>
            </Position>
            <AltitudeMeters>-4</AltitudeMeters>
            <DistanceMeters>NAN</DistanceMeters>
          </Trackpoint>
          <Trackpoint>
            <Time>2022-07-15T08:00:10.000Z</Time>
            <Position>
              <LatitudeDegrees>43.38372565805912017822265625</LatitudeDegrees>
              <LongitudeDegrees>-4.39803279004991054534912109375</LongitudeDegrees>
            </Position>
            <AltitudeMeters>-4</AltitudeMeters>
            <DistanceMeters>NAN</DistanceMeters>
          </Trackpoint>
          <Trackpoint>
            <Time>2022-07-15T08:00:14.000Z</Time>
            <Position>
              <LatitudeDegrees>43.38364896364510059356689453125</LatitudeDegrees>
              <LongitudeDegrees>-4.3979901261627674102783203125</LongitudeDegrees>
            </Position>
            <AltitudeMeters>-4</AltitudeMeters>
            <DistanceMeters>NAN</DistanceMeters>
          </Trackpoint>
          <Trackpoint>
            <Time>2022-07-15T08:00:19.000Z</Time>
            <Position>
              <LatitudeDegrees>43.38356816209852695465087890625</LatitudeDegrees>
              <LongitudeDegrees>-4.39790924079716205596923828125</LongitudeDegrees>
            </Position>
            <AltitudeMeters>-4</AltitudeMeters>
            <DistanceMeters>NAN</DistanceMeters>
          </Trackpoint>
          <Trackpoint>
            <Time>2022-07-15T08:00:20.000Z</Time>
            <Position>
              <LatitudeDegrees>43.38355558924376964569091796875</LatitudeDegrees>
              <LongitudeDegrees>-4.39789482392370700836181640625</LongitudeDegrees>
            </Position>
            <AltitudeMeters>-4</AltitudeMeters>
            <DistanceMeters>NAN</DistanceMeters>
          </Trackpoint>
          <Trackpoint>
            <Time>2022-07-15T08:00:26.000Z</Time>
            <Position>
              <LatitudeDegrees>43.38346020318567752838134765625</LatitudeDegrees>
              <LongitudeDegrees>-4.3977943249046802520751953125</LongitudeDegrees>
            </Position>
            <AltitudeMeters>-4.19999980926513671875</AltitudeMeters>
            <DistanceMeters>NAN</DistanceMeters>
          </Trackpoint>
          <Trackpoint>
            <Time>2022-07-15T08:00:28.000Z</Time>
            <Position>
              <LatitudeDegrees>43.3834240771830081939697265625</LatitudeDegrees>
              <LongitudeDegrees>-4.39776440151035785675048828125</LongitudeDegrees>
            </Position>
            <AltitudeMeters>-4</AltitudeMeters>
            <DistanceMeters>NAN</DistanceMeters>
          </Trackpoint>
          <Trackpoint>
            <Time>2022-07-15T08:00:35.000Z</Time>
            <Position>
              <LatitudeDegrees>43.3832852728664875030517578125</LatitudeDegrees>
              <LongitudeDegrees>-4.39765870571136474609375</LongitudeDegrees>
            </Position>
            <AltitudeMeters>-4</AltitudeMeters>
            <DistanceMeters>NAN</DistanceMeters>
          </Trackpoint>
          <Trackpoint>
            <Time>2022-07-15T08:00:44.000Z</Time>
            <Position>
              <LatitudeDegrees>43.3830978535115718841552734375</LatitudeDegrees>
              <LongitudeDegrees>-4.39750925637781620025634765625</LongitudeDegrees>
            </Position>
            <AltitudeMeters>-4</AltitudeMeters>
            <DistanceMeters>NAN</DistanceMeters>
          </Trackpoint>
          <Trackpoint>
            <Time>2022-07-15T08:00:53.000Z</Time>
            <Position>
              <LatitudeDegrees>43.38293817825615406036376953125</LatitudeDegrees>
              <LongitudeDegrees>-4.39740867353975772857666015625</LongitudeDegrees>
            </Position>
            <AltitudeMeters>-4.19999980926513671875</AltitudeMeters>
            <DistanceMeters>NAN</DistanceMeters>
          </Trackpoint>
          <Trackpoint>
            <Time>2022-07-15T08:01:00.000Z</Time>
            <Position>
              <LatitudeDegrees>43.382820077240467071533203125</LatitudeDegrees>
              <LongitudeDegrees>-4.3972957693040370941162109375</LongitudeDegrees>
            </Position>
            <AltitudeMeters>-4</AltitudeMeters>
            <DistanceMeters>NAN</DistanceMeters>
          </Trackpoint>
          <Trackpoint>
            <Time>2022-07-15T08:01:04.000Z</Time>
            <Position>
              <LatitudeDegrees>43.382770456373691558837890625</LatitudeDegrees>
              <LongitudeDegrees>-4.3972267024219036102294921875</LongitudeDegrees>
            </Position>
            <AltitudeMeters>-4</AltitudeMeters>
            <DistanceMeters>NAN</DistanceMeters>
          </Trackpoint>
          <Trackpoint>
            <Time>2022-07-15T08:01:05.000Z</Time>
            <Position>
              <LatitudeDegrees>43.3827588893473148345947265625</LatitudeDegrees>
              <LongitudeDegrees>-4.39720750786364078521728515625</LongitudeDegrees>
            </Position>
            <AltitudeMeters>-4</AltitudeMeters>
            <DistanceMeters>NAN</DistanceMeters>
          </Trackpoint>
          <Trackpoint>
            <Time>2022-07-15T08:01:06.000Z</Time>
            <Position>
              <LatitudeDegrees>43.38274455629289150238037109375</LatitudeDegrees>
              <LongitudeDegrees>-4.39719158224761486053466796875</LongitudeDegrees>
            </Position>
            <AltitudeMeters>-4</AltitudeMeters>
            <DistanceMeters>NAN</DistanceMeters>
          </Trackpoint>
          <Trackpoint>
            <Time>2022-07-15T08:01:12.000Z</Time>
            <Position>
              <LatitudeDegrees>43.3826405368745326995849609375</LatitudeDegrees>
              <LongitudeDegrees>-4.39709049649536609649658203125</LongitudeDegrees>
            </Position>
            <AltitudeMeters>-3.7999999523162841796875</AltitudeMeters>
            <DistanceMeters>NAN</DistanceMeters>
          </Trackpoint>
          <Trackpoint>
            <Time>2022-07-15T08:01:18.000Z</Time>
            <Position>
              <LatitudeDegrees>43.38251304812729358673095703125</LatitudeDegrees>
              <LongitudeDegrees>-4.3970198370516300201416015625</LongitudeDegrees>
            </Position>
            <AltitudeMeters>-3.7999999523162841796875</AltitudeMeters>
            <DistanceMeters>NAN</DistanceMeters>
          </Trackpoint>
          <Trackpoint>
            <Time>2022-07-15T08:01:20.000Z</Time>
            <Position>
              <LatitudeDegrees>43.38245621882379055023193359375</LatitudeDegrees>
              <LongitudeDegrees>-4.397001899778842926025390625</LongitudeDegrees>
            </Position>
            <AltitudeMeters>-3.7999999523162841796875</AltitudeMeters>
            <DistanceMeters>NAN</DistanceMeters>
          </Trackpoint>
          <Trackpoint>
            <Time>2022-07-15T08:01:23.000Z</Time>
            <Position>
              <LatitudeDegrees>43.38238011114299297332763671875</LatitudeDegrees>
              <LongitudeDegrees>-4.39702796749770641326904296875</LongitudeDegrees>
            </Position>
            <AltitudeMeters>-3.7999999523162841796875</AltitudeMeters>
            <DistanceMeters>NAN</DistanceMeters>
          </Trackpoint>
          <Trackpoint>
            <Time>2022-07-15T08:01:29.000Z</Time>
            <Position>
              <LatitudeDegrees>43.38226854801177978515625</LatitudeDegrees>
              <LongitudeDegrees>-4.39711329527199268341064453125</LongitudeDegrees>
            </Position>
            <AltitudeMeters>-3.599999904632568359375</AltitudeMeters>
            <DistanceMeters>NAN</DistanceMeters>
          </Trackpoint>
          <Trackpoint>
            <Time>2022-07-15T08:01:30.000Z</Time>
            <Position>
              <LatitudeDegrees>43.38225337676703929901123046875</LatitudeDegrees>
              <LongitudeDegrees>-4.397136680781841278076171875</LongitudeDegrees>
            </Position>
            <AltitudeMeters>-3.599999904632568359375</AltitudeMeters>
            <DistanceMeters>NAN</DistanceMeters>
          </Trackpoint>
          <Trackpoint>
            <Time>2022-07-15T08:01:31.000Z</Time>
            <Position>
              <LatitudeDegrees>43.38223879225552082061767578125</LatitudeDegrees>
              <LongitudeDegrees>-4.39716073684394359588623046875</LongitudeDegrees>
            </Position>
            <AltitudeMeters>-3.599999904632568359375</AltitudeMeters>
            <DistanceMeters>NAN</DistanceMeters>
          </Trackpoint>
          <Trackpoint>
            <Time>2022-07-15T08:01:33.000Z</Time>
            <Position>
              <LatitudeDegrees>43.382219262421131134033203125</LatitudeDegrees>
              <LongitudeDegrees>-4.3972102738916873931884765625</LongitudeDegrees>
            </Position>
            <AltitudeMeters>-3.400000095367431640625</AltitudeMeters>
            <DistanceMeters>NAN</DistanceMeters>
          </Trackpoint>
          <Trackpoint>
            <Time>2022-07-15T08:01:34.000Z</Time>
            <Position>
              <LatitudeDegrees>43.38222152553498744964599609375</LatitudeDegrees>
              <LongitudeDegrees>-4.39723013900220394134521484375</LongitudeDegrees>
            </Position>
            <AltitudeMeters>-3.400000095367431640625</AltitudeMeters>
            <DistanceMeters>NAN</DistanceMeters>
          </Trackpoint>
          <Trackpoint>
            <Time>2022-07-15T08:01:39.000Z</Time>
            <Position>
              <LatitudeDegrees>43.3822382055222988128662109375</LatitudeDegrees>
              <LongitudeDegrees>-4.3972847051918506622314453125</LongitudeDegrees>
            </Position>
            <AltitudeMeters>-3.599999904632568359375</AltitudeMeters>
            <DistanceMeters>NAN</DistanceMeters>
          </Trackpoint>
          <Trackpoint>
            <Time>2022-07-15T08:01:41.000Z</Time>
            <Position>
              <LatitudeDegrees>43.38224465958774089813232421875</LatitudeDegrees>
              <LongitudeDegrees>-4.39729937352240085601806640625</LongitudeDegrees>
            </Position>
            <AltitudeMeters>-3.599999904632568359375</AltitudeMeters>
            <DistanceMeters>NAN</DistanceMeters>
          </Trackpoint>
          <Trackpoint>
            <Time>2022-07-15T08:01:45.000Z</Time>
            <Position>
              <LatitudeDegrees>43.3822784386575222015380859375</LatitudeDegrees>
              <LongitudeDegrees>-4.3973628245294094085693359375</LongitudeDegrees>
            </Position>
            <AltitudeMeters>-3.599999904632568359375</AltitudeMeters>
            <DistanceMeters>NAN</DistanceMeters>
          </Trackpoint>
          <Trackpoint>
            <Time>2022-07-15T08:01:48.000Z</Time>
            <Position>
              <LatitudeDegrees>43.3822935260832309722900390625</LatitudeDegrees>
              <LongitudeDegrees>-4.397427700459957122802734375</LongitudeDegrees>
            </Position>
            <AltitudeMeters>-3.400000095367431640625</AltitudeMeters>
            <DistanceMeters>NAN</DistanceMeters>
          </Trackpoint>
          <Trackpoint>
            <Time>2022-07-15T08:01:50.000Z</Time>
            <Position>
              <LatitudeDegrees>43.38229847140610218048095703125</LatitudeDegrees>
              <LongitudeDegrees>-4.39745745621621608734130859375</LongitudeDegrees>
            </Position>
            <AltitudeMeters>-3.2000000476837158203125</AltitudeMeters>
            <DistanceMeters>NAN</DistanceMeters>
          </Trackpoint>
          <Trackpoint>
            <Time>2022-07-15T08:01:51.000Z</Time>
            <Position>
              <LatitudeDegrees>43.38230115361511707305908203125</LatitudeDegrees>
              <LongitudeDegrees>-4.39745980314910411834716796875</LongitudeDegrees>
            </Position>
            <AltitudeMeters>-3.2000000476837158203125</AltitudeMeters>
            <DistanceMeters>NAN</DistanceMeters>
          </Trackpoint>
          <Trackpoint>
            <Time>2022-07-15T08:01:53.000Z</Time>
            <Position>
              <LatitudeDegrees>43.38230115361511707305908203125</LatitudeDegrees>
              <LongitudeDegrees>-4.39745980314910411834716796875</LongitudeDegrees>
            </Position>
            <AltitudeMeters>-3.2000000476837158203125</AltitudeMeters>
            <DistanceMeters>NAN</DistanceMeters>
          </Trackpoint>
          <Trackpoint>
            <Time>2022-07-15T08:02:16.000Z</Time>
            <Position>
              <LatitudeDegrees>43.38231288827955722808837890625</LatitudeDegrees>
              <LongitudeDegrees>-4.3975110165774822235107421875</LongitudeDegrees>
            </Position>
            <AltitudeMeters>-3.2000000476837158203125</AltitudeMeters>
            <DistanceMeters>NAN</DistanceMeters>
          </Trackpoint>
          <Trackpoint>
            <Time>2022-07-15T08:02:17.000Z</Time>
            <Position>
              <LatitudeDegrees>43.38232152163982391357421875</LatitudeDegrees>
              <LongitudeDegrees>-4.3975338153541088104248046875</LongitudeDegrees>
            </Position>
            <AltitudeMeters>-3.2000000476837158203125</AltitudeMeters>
            <DistanceMeters>NAN</DistanceMeters>
          </Trackpoint>
          <Trackpoint>
            <Time>2022-07-15T08:02:22.000Z</Time>
            <Position>
              <LatitudeDegrees>43.38236200623214244842529296875</LatitudeDegrees>
              <LongitudeDegrees>-4.39765895716845989227294921875</LongitudeDegrees>
            </Position>
            <AltitudeMeters>-3.2000000476837158203125</AltitudeMeters>
            <DistanceMeters>NAN</DistanceMeters>
          </Trackpoint>
          <Trackpoint>
            <Time>2022-07-15T08:02:24.000Z</Time>
            <Position>
              <LatitudeDegrees>43.38237407617270946502685546875</LatitudeDegrees>
              <LongitudeDegrees>-4.3977001123130321502685546875</LongitudeDegrees>
            </Position>
            <AltitudeMeters>-3.400000095367431640625</AltitudeMeters>
            <DistanceMeters>NAN</DistanceMeters>
          </Trackpoint>
          <Trackpoint>
            <Time>2022-07-15T08:02:26.000Z</Time>
            <Position>
              <LatitudeDegrees>43.38237273506820201873779296875</LatitudeDegrees>
              <LongitudeDegrees>-4.3977229110896587371826171875</LongitudeDegrees>
            </Position>
            <AltitudeMeters>-3.400000095367431640625</AltitudeMeters>
            <DistanceMeters>NAN</DistanceMeters>
          </Trackpoint>
          <Trackpoint>
            <Time>2022-07-15T08:02:28.000Z</Time>
            <Position>
              <LatitudeDegrees>43.38237273506820201873779296875</LatitudeDegrees>
              <LongitudeDegrees>-4.3977229110896587371826171875</LongitudeDegrees>
            </Position>
            <AltitudeMeters>-3.599999904632568359375</AltitudeMeters>
            <DistanceMeters>NAN</DistanceMeters>
          </Trackpoint>
          <Trackpoint>
            <Time>2022-07-15T08:02:34.000Z</Time>
            <Position>
              <LatitudeDegrees>43.38230685330927371978759765625</LatitudeDegrees>
              <LongitudeDegrees>-4.39768561162054538726806640625</LongitudeDegrees>
            </Position>
            <AltitudeMeters>-3.599999904632568359375</AltitudeMeters>
            <DistanceMeters>NAN</DistanceMeters>
          </Trackpoint>
          <Trackpoint>
            <Time>2022-07-15T08:02:35.000Z</Time>
            <Position>
              <LatitudeDegrees>43.382284641265869140625</LatitudeDegrees>
              <LongitudeDegrees>-4.397667758166790008544921875</LongitudeDegrees>
            </Position>
            <AltitudeMeters>-3.599999904632568359375</AltitudeMeters>
            <DistanceMeters>NAN</DistanceMeters>
          </Trackpoint>
          <Trackpoint>
            <Time>2022-07-15T08:02:40.000Z</Time>
            <Position>
              <LatitudeDegrees>43.38218732737004756927490234375</LatitudeDegrees>
              <LongitudeDegrees>-4.3975876271724700927734375</LongitudeDegrees>
            </Position>
            <AltitudeMeters>-3.400000095367431640625</AltitudeMeters>
            <DistanceMeters>NAN</DistanceMeters>
          </Trackpoint>
          <Trackpoint>
            <Time>2022-07-15T08:02:45.000Z</Time>
            <Position>
              <LatitudeDegrees>43.38212245143949985504150390625</LatitudeDegrees>
              <LongitudeDegrees>-4.39760212786495685577392578125</LongitudeDegrees>
            </Position>
            <AltitudeMeters>-3.400000095367431640625</AltitudeMeters>
            <DistanceMeters>NAN</DistanceMeters>
          </Trackpoint>
          <Trackpoint>
            <Time>2022-07-15T08:02:48.000Z</Time>
            <Position>
              <LatitudeDegrees>43.38207383640110492706298828125</LatitudeDegrees>
              <LongitudeDegrees>-4.39764864742755889892578125</LongitudeDegrees>
            </Position>
            <AltitudeMeters>-3.400000095367431640625</AltitudeMeters>
            <DistanceMeters>NAN</DistanceMeters>
          </Trackpoint>
          <Trackpoint>
            <Time>2022-07-15T08:02:50.000Z</Time>
            <Position>
              <LatitudeDegrees>43.38202639482915401458740234375</LatitudeDegrees>
              <LongitudeDegrees>-4.39764386974275112152099609375</LongitudeDegrees>
            </Position>
            <AltitudeMeters>-3.400000095367431640625</AltitudeMeters>
            <DistanceMeters>NAN</DistanceMeters>
          </Trackpoint>
          <Trackpoint>
            <Time>2022-07-15T08:02:56.000Z</Time>
            <Position>
              <LatitudeDegrees>43.3818533085286617279052734375</LatitudeDegrees>
              <LongitudeDegrees>-4.397520907223224639892578125</LongitudeDegrees>
            </Position>
            <AltitudeMeters>-3.2000000476837158203125</AltitudeMeters>
            <DistanceMeters>NAN</DistanceMeters>
          </Trackpoint>
          <Trackpoint>
            <Time>2022-07-15T08:02:58.000Z</Time>
            <Position>
              <LatitudeDegrees>43.381800837814807891845703125</LatitudeDegrees>
              <LongitudeDegrees>-4.39747807569801807403564453125</LongitudeDegrees>
            </Position>
            <AltitudeMeters>-3.2000000476837158203125</AltitudeMeters>
            <DistanceMeters>NAN</DistanceMeters>
          </Trackpoint>
          <Trackpoint>
            <Time>2022-07-15T08:03:02.000Z</Time>
            <Position>
              <LatitudeDegrees>43.3817173540592193603515625</LatitudeDegrees>
              <LongitudeDegrees>-4.39739107154309749603271484375</LongitudeDegrees>
            </Position>
            <AltitudeMeters>-2.7999999523162841796875</AltitudeMeters>
            <DistanceMeters>NAN</DistanceMeters>
          </Trackpoint>
          <Trackpoint>
            <Time>2022-07-15T08:03:05.000Z</Time>
            <Position>
              <LatitudeDegrees>43.38165608234703540802001953125</LatitudeDegrees>
              <LongitudeDegrees>-4.39733843319118022918701171875</LongitudeDegrees>
            </Position>
            <AltitudeMeters>-2.599999904632568359375</AltitudeMeters>
            <DistanceMeters>NAN</DistanceMeters>
          </Trackpoint>
          <Trackpoint>
            <Time>2022-07-15T08:03:10.000Z</Time>
            <Position>
              <LatitudeDegrees>43.3815478719770908355712890625</LatitudeDegrees>
              <LongitudeDegrees>-4.3972625769674777984619140625</LongitudeDegrees>
            </Position>
            <AltitudeMeters>-2.2000000476837158203125</AltitudeMeters>
            <DistanceMeters>NAN</DistanceMeters>
          </Trackpoint>
          <Trackpoint>
            <Time>2022-07-15T08:03:16.000Z</Time>
            <Position>
              <LatitudeDegrees>43.38140294887125492095947265625</LatitudeDegrees>
              <LongitudeDegrees>-4.3972474895417690277099609375</LongitudeDegrees>
            </Position>
            <AltitudeMeters>-1.60000002384185791015625</AltitudeMeters>
            <DistanceMeters>NAN</DistanceMeters>
          </Trackpoint>
          <Trackpoint>
            <Time>2022-07-15T08:03:17.000Z</Time>
            <Position>
              <LatitudeDegrees>43.3813809044659137725830078125</LatitudeDegrees>
              <LongitudeDegrees>-4.39725394360721111297607421875</LongitudeDegrees>
            </Position>
            <AltitudeMeters>-1.60000002384185791015625</AltitudeMeters>
            <DistanceMeters>NAN</DistanceMeters>
          </Trackpoint>
          <Trackpoint>
            <Time>2022-07-15T08:03:18.000Z</Time>
            <Position>
              <LatitudeDegrees>43.3813581056892871856689453125</LatitudeDegrees>
              <LongitudeDegrees>-4.39725570380687713623046875</LongitudeDegrees>
            </Position>
            <AltitudeMeters>-1.60000002384185791015625</AltitudeMeters>
            <DistanceMeters>NAN</DistanceMeters>
          </Trackpoint>
          <Trackpoint>
            <Time>2022-07-15T08:03:21.000Z</Time>
            <Position>
              <LatitudeDegrees>43.38129549287259578704833984375</LatitudeDegrees>
              <LongitudeDegrees>-4.39729283563792705535888671875</LongitudeDegrees>
            </Position>
            <AltitudeMeters>-1.2000000476837158203125</AltitudeMeters>
            <DistanceMeters>NAN</DistanceMeters>
          </Trackpoint>
          <Trackpoint>
            <Time>2022-07-15T08:03:23.000Z</Time>
            <Position>
              <LatitudeDegrees>43.38127286173403263092041015625</LatitudeDegrees>
              <LongitudeDegrees>-4.39733675681054592132568359375</LongitudeDegrees>
            </Position>
            <AltitudeMeters>-1</AltitudeMeters>
            <DistanceMeters>NAN</DistanceMeters>
          </Trackpoint>
          <Trackpoint>
            <Time>2022-07-15T08:03:28.000Z</Time>
            <Position>
              <LatitudeDegrees>43.381229527294635772705078125</LatitudeDegrees>
              <LongitudeDegrees>-4.39741269685328006744384765625</LongitudeDegrees>
            </Position>
            <AltitudeMeters>-0.4000000059604644775390625</AltitudeMeters>
            <DistanceMeters>NAN</DistanceMeters>
          </Trackpoint>
          <Trackpoint>
            <Time>2022-07-15T08:03:30.000Z</Time>
            <Position>
              <LatitudeDegrees>43.3812149427831172943115234375</LatitudeDegrees>
              <LongitudeDegrees>-4.3974456377327442169189453125</LongitudeDegrees>
            </Position>
            <AltitudeMeters>0</AltitudeMeters>
            <DistanceMeters>NAN</DistanceMeters>
          </Trackpoint>
          <Trackpoint>
            <Time>2022-07-15T08:03:34.000Z</Time>
            <Position>
              <LatitudeDegrees>43.38121234439313411712646484375</LatitudeDegrees>
              <LongitudeDegrees>-4.397557117044925689697265625</LongitudeDegrees>
            </Position>
            <AltitudeMeters>0.4000000059604644775390625</AltitudeMeters>
            <DistanceMeters>NAN</DistanceMeters>
          </Trackpoint>
          <Trackpoint>
            <Time>2022-07-15T08:03:35.000Z</Time>
            <Position>
              <LatitudeDegrees>43.3812166191637516021728515625</LatitudeDegrees>
              <LongitudeDegrees>-4.3975827656686305999755859375</LongitudeDegrees>
            </Position>
            <AltitudeMeters>0.4000000059604644775390625</AltitudeMeters>
            <DistanceMeters>NAN</DistanceMeters>
          </Trackpoint>
          <Trackpoint>
            <Time>2022-07-15T08:03:36.000Z</Time>
            <Position>
              <LatitudeDegrees>43.3812226541340351104736328125</LatitudeDegrees>
              <LongitudeDegrees>-4.39760464243590831756591796875</LongitudeDegrees>
            </Position>
            <AltitudeMeters>0.800000011920928955078125</AltitudeMeters>
            <DistanceMeters>NAN</DistanceMeters>
          </Trackpoint>
          <Trackpoint>
            <Time>2022-07-15T08:03:37.000Z</Time>
            <Position>
              <LatitudeDegrees>43.38123765774071216583251953125</LatitudeDegrees>
              <LongitudeDegrees>-4.39761838875710964202880859375</LongitudeDegrees>
            </Position>
            <AltitudeMeters>1</AltitudeMeters>
            <DistanceMeters>NAN</DistanceMeters>
          </Trackpoint>
          <Trackpoint>
            <Time>2022-07-15T08:03:38.000Z</Time>
            <Position>
              <LatitudeDegrees>43.38124888949096202850341796875</LatitudeDegrees>
              <LongitudeDegrees>-4.3976224958896636962890625</LongitudeDegrees>
            </Position>
            <AltitudeMeters>1.2000000476837158203125</AltitudeMeters>
            <DistanceMeters>NAN</DistanceMeters>
          </Trackpoint>
          <Trackpoint>
            <Time>2022-07-15T08:03:41.000Z</Time>
            <Position>
              <LatitudeDegrees>43.38127705268561840057373046875</LatitudeDegrees>
              <LongitudeDegrees>-4.3976504914462566375732421875</LongitudeDegrees>
            </Position>
            <AltitudeMeters>1.7999999523162841796875</AltitudeMeters>
            <DistanceMeters>NAN</DistanceMeters>
          </Trackpoint>
          <Trackpoint>
            <Time>2022-07-15T08:03:43.000Z</Time>
            <Position>
              <LatitudeDegrees>43.38129415176808834075927734375</LatitudeDegrees>
              <LongitudeDegrees>-4.39766432158648967742919921875</LongitudeDegrees>
            </Position>
            <AltitudeMeters>2.2000000476837158203125</AltitudeMeters>
            <DistanceMeters>NAN</DistanceMeters>
          </Trackpoint>
          <Trackpoint>
            <Time>2022-07-15T08:03:44.000Z</Time>
            <Position>
              <LatitudeDegrees>43.38130136020481586456298828125</LatitudeDegrees>
              <LongitudeDegrees>-4.39766851253807544708251953125</LongitudeDegrees>
            </Position>
            <AltitudeMeters>2.400000095367431640625</AltitudeMeters>
            <DistanceMeters>NAN</DistanceMeters>
          </Trackpoint>
          <Trackpoint>
            <Time>2022-07-15T08:03:46.000Z</Time>
            <Position>
              <LatitudeDegrees>43.38132767938077449798583984375</LatitudeDegrees>
              <LongitudeDegrees>-4.3976853601634502410888671875</LongitudeDegrees>
            </Position>
            <AltitudeMeters>2.7999999523162841796875</AltitudeMeters>
            <DistanceMeters>NAN</DistanceMeters>
          </Trackpoint>
          <Trackpoint>
            <Time>2022-07-15T08:03:52.000Z</Time>
            <Position>
              <LatitudeDegrees>43.381387777626514434814453125</LatitudeDegrees>
              <LongitudeDegrees>-4.39774478785693645477294921875</LongitudeDegrees>
            </Position>
            <AltitudeMeters>4</AltitudeMeters>
            <DistanceMeters>NAN</DistanceMeters>
          </Trackpoint>
          <Trackpoint>
            <Time>2022-07-15T08:03:53.000Z</Time>
            <Position>
              <LatitudeDegrees>43.38139741681516170501708984375</LatitudeDegrees>
              <LongitudeDegrees>-4.397764317691326141357421875</LongitudeDegrees>
            </Position>
            <AltitudeMeters>4.19999980926513671875</AltitudeMeters>
            <DistanceMeters>NAN</DistanceMeters>
          </Trackpoint>
          <Trackpoint>
            <Time>2022-07-15T08:03:56.000Z</Time>
            <Position>
              <LatitudeDegrees>43.38143211789429187774658203125</LatitudeDegrees>
              <LongitudeDegrees>-4.39779843203723430633544921875</LongitudeDegrees>
            </Position>
            <AltitudeMeters>4.80000019073486328125</AltitudeMeters>
            <DistanceMeters>NAN</DistanceMeters>
          </Trackpoint>
          <Trackpoint>
            <Time>2022-07-15T08:03:57.000Z</Time>
            <Position>
              <LatitudeDegrees>43.38144066743552684783935546875</LatitudeDegrees>
              <LongitudeDegrees>-4.3978020362555980682373046875</LongitudeDegrees>
            </Position>
            <AltitudeMeters>5</AltitudeMeters>
            <DistanceMeters>NAN</DistanceMeters>
          </Trackpoint>
          <Trackpoint>
            <Time>2022-07-15T08:04:00.000Z</Time>
            <Position>
              <LatitudeDegrees>43.38145994581282138824462890625</LatitudeDegrees>
              <LongitudeDegrees>-4.3978087417781352996826171875</LongitudeDegrees>
            </Position>
            <AltitudeMeters>5.80000019073486328125</AltitudeMeters>
            <DistanceMeters>NAN</DistanceMeters>
          </Trackpoint>
          <Trackpoint>
            <Time>2022-07-15T08:04:01.000Z</Time>
            <Position>
              <LatitudeDegrees>43.38146832771599292755126953125</LatitudeDegrees>
              <LongitudeDegrees>-4.3978209793567657470703125</LongitudeDegrees>
            </Position>
            <AltitudeMeters>5.80000019073486328125</AltitudeMeters>
            <DistanceMeters>NAN</DistanceMeters>
          </Trackpoint>
          <Trackpoint>
            <Time>2022-07-15T08:04:02.000Z</Time>
            <Position>
              <LatitudeDegrees>43.38147855363786220550537109375</LatitudeDegrees>
              <LongitudeDegrees>-4.39783782698214054107666015625</LongitudeDegrees>
            </Position>
            <AltitudeMeters>6</AltitudeMeters>
            <DistanceMeters>NAN</DistanceMeters>
          </Trackpoint>
          <Trackpoint>
            <Time>2022-07-15T08:04:06.000Z</Time>
            <Position>
              <LatitudeDegrees>43.38151794858276844024658203125</LatitudeDegrees>
              <LongitudeDegrees>-4.3979006074368953704833984375</LongitudeDegrees>
            </Position>
            <AltitudeMeters>7</AltitudeMeters>
            <DistanceMeters>NAN</DistanceMeters>
          </Trackpoint>
          <Trackpoint>
            <Time>2022-07-15T08:04:07.000Z</Time>
            <Position>
              <LatitudeDegrees>43.381525240838527679443359375</LatitudeDegrees>
              <LongitudeDegrees>-4.3979203887283802032470703125</LongitudeDegrees>
            </Position>
            <AltitudeMeters>7.19999980926513671875</AltitudeMeters>
            <DistanceMeters>NAN</DistanceMeters>
          </Trackpoint>
          <Trackpoint>
            <Time>2022-07-15T08:04:11.000Z</Time>
            <Position>
              <LatitudeDegrees>43.3815430104732513427734375</LatitudeDegrees>
              <LongitudeDegrees>-4.39798526465892791748046875</LongitudeDegrees>
            </Position>
            <AltitudeMeters>8</AltitudeMeters>
            <DistanceMeters>NAN</DistanceMeters>
          </Trackpoint>
          <Trackpoint>
            <Time>2022-07-15T08:04:12.000Z</Time>
            <Position>
              <LatitudeDegrees>43.38154770433902740478515625</LatitudeDegrees>
              <LongitudeDegrees>-4.39800177700817584991455078125</LongitudeDegrees>
            </Position>
            <AltitudeMeters>8.19999980926513671875</AltitudeMeters>
            <DistanceMeters>NAN</DistanceMeters>
          </Trackpoint>
          <Trackpoint>
            <Time>2022-07-15T08:04:16.000Z</Time>
            <Position>
              <LatitudeDegrees>43.3815663121640682220458984375</LatitudeDegrees>
              <LongitudeDegrees>-4.39806975424289703369140625</LongitudeDegrees>
            </Position>
            <AltitudeMeters>9</AltitudeMeters>
            <DistanceMeters>NAN</DistanceMeters>
          </Trackpoint>
          <Trackpoint>
            <Time>2022-07-15T08:04:18.000Z</Time>
            <Position>
              <LatitudeDegrees>43.38157452642917633056640625</LatitudeDegrees>
              <LongitudeDegrees>-4.39810059964656829833984375</LongitudeDegrees>
            </Position>
            <AltitudeMeters>9.3999996185302734375</AltitudeMeters>
            <DistanceMeters>NAN</DistanceMeters>
          </Trackpoint>
          <Trackpoint>
            <Time>2022-07-15T08:04:19.000Z</Time>
            <Position>
              <LatitudeDegrees>43.38157586753368377685546875</LatitudeDegrees>
              <LongitudeDegrees>-4.3981168605387210845947265625</LongitudeDegrees>
            </Position>
            <AltitudeMeters>9.6000003814697265625</AltitudeMeters>
            <DistanceMeters>NAN</DistanceMeters>
          </Trackpoint>
          <Trackpoint>
            <Time>2022-07-15T08:04:24.000Z</Time>
            <Position>
              <LatitudeDegrees>43.38160830549895763397216796875</LatitudeDegrees>
              <LongitudeDegrees>-4.39818902872502803802490234375</LongitudeDegrees>
            </Position>
            <AltitudeMeters>10</AltitudeMeters>
            <DistanceMeters>NAN</DistanceMeters>
          </Trackpoint>
          <Trackpoint>
            <Time>2022-07-15T08:04:26.000Z</Time>
            <Position>
              <LatitudeDegrees>43.38161878287792205810546875</LatitudeDegrees>
              <LongitudeDegrees>-4.39822942949831485748291015625</LongitudeDegrees>
            </Position>
            <AltitudeMeters>10.3999996185302734375</AltitudeMeters>
            <DistanceMeters>NAN</DistanceMeters>
          </Trackpoint>
          <Trackpoint>
            <Time>2022-07-15T08:04:27.000Z</Time>
            <Position>
              <LatitudeDegrees>43.3816249854862689971923828125</LatitudeDegrees>
              <LongitudeDegrees>-4.3982466123998165130615234375</LongitudeDegrees>
            </Position>
            <AltitudeMeters>10.3999996185302734375</AltitudeMeters>
            <DistanceMeters>NAN</DistanceMeters>
          </Trackpoint>
          <Trackpoint>
            <Time>2022-07-15T08:04:32.000Z</Time>
            <Position>
              <LatitudeDegrees>43.38164962828159332275390625</LatitudeDegrees>
              <LongitudeDegrees>-4.398324899375438690185546875</LongitudeDegrees>
            </Position>
            <AltitudeMeters>11.3999996185302734375</AltitudeMeters>
            <DistanceMeters>NAN</DistanceMeters>
          </Trackpoint>
          <Trackpoint>
            <Time>2022-07-15T08:04:33.000Z</Time>
            <Position>
              <LatitudeDegrees>43.38165122084319591522216796875</LatitudeDegrees>
              <LongitudeDegrees>-4.39834560267627239227294921875</LongitudeDegrees>
            </Position>
            <AltitudeMeters>11.6000003814697265625</AltitudeMeters>
            <DistanceMeters>NAN</DistanceMeters>
          </Trackpoint>
          <Trackpoint>
            <Time>2022-07-15T08:04:38.000Z</Time>
            <Position>
              <LatitudeDegrees>43.3816538192331790924072265625</LatitudeDegrees>
              <LongitudeDegrees>-4.398428499698638916015625</LongitudeDegrees>
            </Position>
            <AltitudeMeters>12.6000003814697265625</AltitudeMeters>
            <DistanceMeters>NAN</DistanceMeters>
          </Trackpoint>
          <Trackpoint>
            <Time>2022-07-15T08:04:41.000Z</Time>
            <Position>
              <LatitudeDegrees>43.3816665597259998321533203125</LatitudeDegrees>
              <LongitudeDegrees>-4.39847384579479694366455078125</LongitudeDegrees>
            </Position>
            <AltitudeMeters>13.3999996185302734375</AltitudeMeters>
            <DistanceMeters>NAN</DistanceMeters>
          </Trackpoint>
          <Trackpoint>
            <Time>2022-07-15T08:04:43.000Z</Time>
            <Position>
              <LatitudeDegrees>43.381665050983428955078125</LatitudeDegrees>
              <LongitudeDegrees>-4.39851424656808376312255859375</LongitudeDegrees>
            </Position>
            <AltitudeMeters>13.80000019073486328125</AltitudeMeters>
            <DistanceMeters>NAN</DistanceMeters>
          </Trackpoint>
          <Trackpoint>
            <Time>2022-07-15T08:04:45.000Z</Time>
            <Position>
              <LatitudeDegrees>43.38167116977274417877197265625</LatitudeDegrees>
              <LongitudeDegrees>-4.39854358322918415069580078125</LongitudeDegrees>
            </Position>
            <AltitudeMeters>14</AltitudeMeters>
            <DistanceMeters>NAN</DistanceMeters>
          </Trackpoint>
          <Trackpoint>
            <Time>2022-07-15T08:04:49.000Z</Time>
            <Position>
              <LatitudeDegrees>43.38167913258075714111328125</LatitudeDegrees>
              <LongitudeDegrees>-4.398608542978763580322265625</LongitudeDegrees>
            </Position>
            <AltitudeMeters>14.80000019073486328125</AltitudeMeters>
            <DistanceMeters>NAN</DistanceMeters>
          </Trackpoint>
          <Trackpoint>
            <Time>2022-07-15T08:04:53.000Z</Time>
            <Position>
              <LatitudeDegrees>43.38167955167591571807861328125</LatitudeDegrees>
              <LongitudeDegrees>-4.39867819659411907196044921875</LongitudeDegrees>
            </Position>
            <AltitudeMeters>15.6000003814697265625</AltitudeMeters>
            <DistanceMeters>NAN</DistanceMeters>
          </Trackpoint>
          <Trackpoint>
            <Time>2022-07-15T08:04:55.000Z</Time>
            <Position>
              <LatitudeDegrees>43.3816793002188205718994140625</LatitudeDegrees>
              <LongitudeDegrees>-4.3987133167684078216552734375</LongitudeDegrees>
            </Position>
            <AltitudeMeters>15.80000019073486328125</AltitudeMeters>
            <DistanceMeters>NAN</DistanceMeters>
          </Trackpoint>
          <Trackpoint>
            <Time>2022-07-15T08:04:58.000Z</Time>
            <Position>
              <LatitudeDegrees>43.3816960640251636505126953125</LatitudeDegrees>
              <LongitudeDegrees>-4.3987575732171535491943359375</LongitudeDegrees>
            </Position>
            <AltitudeMeters>16.3999996185302734375</AltitudeMeters>
            <DistanceMeters>NAN</DistanceMeters>
          </Trackpoint>
          <Trackpoint>
            <Time>2022-07-15T08:05:03.000Z</Time>
            <Position>
              <LatitudeDegrees>43.3817141689360141754150390625</LatitudeDegrees>
              <LongitudeDegrees>-4.39883376471698284149169921875</LongitudeDegrees>
            </Position>
            <AltitudeMeters>17</AltitudeMeters>
            <DistanceMeters>NAN</DistanceMeters>
          </Trackpoint>
          <Trackpoint>
            <Time>2022-07-15T08:05:04.000Z</Time>
            <Position>
              <LatitudeDegrees>43.38171442039310932159423828125</LatitudeDegrees>
              <LongitudeDegrees>-4.3988511152565479278564453125</LongitudeDegrees>
            </Position>
            <AltitudeMeters>17.200000762939453125</AltitudeMeters>
            <DistanceMeters>NAN</DistanceMeters>
          </Trackpoint>
          <Trackpoint>
            <Time>2022-07-15T08:05:11.000Z</Time>
            <Position>
              <LatitudeDegrees>43.38172330521047115325927734375</LatitudeDegrees>
              <LongitudeDegrees>-4.3989738263189792633056640625</LongitudeDegrees>
            </Position>
            <AltitudeMeters>18</AltitudeMeters>
            <DistanceMeters>NAN</DistanceMeters>
          </Trackpoint>
          <Trackpoint>
            <Time>2022-07-15T08:05:13.000Z</Time>
            <Position>
              <LatitudeDegrees>43.381721712648868560791015625</LatitudeDegrees>
              <LongitudeDegrees>-4.39900576137006282806396484375</LongitudeDegrees>
            </Position>
            <AltitudeMeters>18.200000762939453125</AltitudeMeters>
            <DistanceMeters>NAN</DistanceMeters>
          </Trackpoint>
          <Trackpoint>
            <Time>2022-07-15T08:05:17.000Z</Time>
            <Position>
              <LatitudeDegrees>43.3817121572792530059814453125</LatitudeDegrees>
              <LongitudeDegrees>-4.39907616935670375823974609375</LongitudeDegrees>
            </Position>
            <AltitudeMeters>18.6000003814697265625</AltitudeMeters>
            <DistanceMeters>NAN</DistanceMeters>
          </Trackpoint>
          <Trackpoint>
            <Time>2022-07-15T08:05:21.000Z</Time>
            <Position>
              <LatitudeDegrees>43.38169229216873645782470703125</LatitudeDegrees>
              <LongitudeDegrees>-4.399118833243846893310546875</LongitudeDegrees>
            </Position>
            <AltitudeMeters>18.799999237060546875</AltitudeMeters>
            <DistanceMeters>NAN</DistanceMeters>
          </Trackpoint>
          <Trackpoint>
            <Time>2022-07-15T08:05:23.000Z</Time>
            <Position>
              <LatitudeDegrees>43.38169229216873645782470703125</LatitudeDegrees>
              <LongitudeDegrees>-4.399118833243846893310546875</LongitudeDegrees>
            </Position>
            <AltitudeMeters>19</AltitudeMeters>
            <DistanceMeters>NAN</DistanceMeters>
          </Trackpoint>
          <Trackpoint>
            <Time>2022-07-15T08:05:59.000Z</Time>
            <Position>
              <LatitudeDegrees>43.38165507651865482330322265625</LatitudeDegrees>
              <LongitudeDegrees>-4.39915982075035572052001953125</LongitudeDegrees>
            </Position>
            <AltitudeMeters>19</AltitudeMeters>
            <DistanceMeters>NAN</DistanceMeters>
          </Trackpoint>
          <Trackpoint>
            <Time>2022-07-15T08:06:00.000Z</Time>
            <Position>
              <LatitudeDegrees>43.38164334185421466827392578125</LatitudeDegrees>
              <LongitudeDegrees>-4.39916552044451236724853515625</LongitudeDegrees>
            </Position>
            <AltitudeMeters>19</AltitudeMeters>
            <DistanceMeters>NAN</DistanceMeters>
          </Trackpoint>
          <Trackpoint>
            <Time>2022-07-15T08:06:01.000Z</Time>
            <Position>
              <LatitudeDegrees>43.38163009844720363616943359375</LatitudeDegrees>
              <LongitudeDegrees>-4.39917339943349361419677734375</LongitudeDegrees>
            </Position>
            <AltitudeMeters>19.3999996185302734375</AltitudeMeters>
            <DistanceMeters>NAN</DistanceMeters>
          </Trackpoint>
          <Trackpoint>
            <Time>2022-07-15T08:06:02.000Z</Time>
            <Position>
              <LatitudeDegrees>43.38162012398242950439453125</LatitudeDegrees>
              <LongitudeDegrees>-4.39918731339275836944580078125</LongitudeDegrees>
            </Position>
            <AltitudeMeters>19.6000003814697265625</AltitudeMeters>
            <DistanceMeters>NAN</DistanceMeters>
          </Trackpoint>
          <Trackpoint>
            <Time>2022-07-15T08:06:04.000Z</Time>
            <Position>
              <LatitudeDegrees>43.38160537183284759521484375</LatitudeDegrees>
              <LongitudeDegrees>-4.39922176301479339599609375</LongitudeDegrees>
            </Position>
            <AltitudeMeters>20.3999996185302734375</AltitudeMeters>
            <DistanceMeters>NAN</DistanceMeters>
          </Trackpoint>
          <Trackpoint>
            <Time>2022-07-15T08:06:06.000Z</Time>
            <Position>
              <LatitudeDegrees>43.38159606792032718658447265625</LatitudeDegrees>
              <LongitudeDegrees>-4.39925638027489185333251953125</LongitudeDegrees>
            </Position>
            <AltitudeMeters>20.799999237060546875</AltitudeMeters>
            <DistanceMeters>NAN</DistanceMeters>
          </Trackpoint>
          <Trackpoint>
            <Time>2022-07-15T08:06:10.000Z</Time>
            <Position>
              <LatitudeDegrees>43.38156438432633876800537109375</LatitudeDegrees>
              <LongitudeDegrees>-4.399317987263202667236328125</LongitudeDegrees>
            </Position>
            <AltitudeMeters>21.6000003814697265625</AltitudeMeters>
            <DistanceMeters>NAN</DistanceMeters>
          </Trackpoint>
          <Trackpoint>
            <Time>2022-07-15T08:06:11.000Z</Time>
            <Position>
              <LatitudeDegrees>43.38156622834503650665283203125</LatitudeDegrees>
              <LongitudeDegrees>-4.39933651126921176910400390625</LongitudeDegrees>
            </Position>
            <AltitudeMeters>21.799999237060546875</AltitudeMeters>
            <DistanceMeters>NAN</DistanceMeters>
          </Trackpoint>
          <Trackpoint>
            <Time>2022-07-15T08:06:12.000Z</Time>
            <Position>
              <LatitudeDegrees>43.38156916201114654541015625</LatitudeDegrees>
              <LongitudeDegrees>-4.39935361035168170928955078125</LongitudeDegrees>
            </Position>
            <AltitudeMeters>22</AltitudeMeters>
            <DistanceMeters>NAN</DistanceMeters>
          </Trackpoint>
          <Trackpoint>
            <Time>2022-07-15T08:06:15.000Z</Time>
            <Position>
              <LatitudeDegrees>43.381568156182765960693359375</LatitudeDegrees>
              <LongitudeDegrees>-4.39940440468490123748779296875</LongitudeDegrees>
            </Position>
            <AltitudeMeters>22.6000003814697265625</AltitudeMeters>
            <DistanceMeters>NAN</DistanceMeters>
          </Trackpoint>
          <Trackpoint>
            <Time>2022-07-15T08:06:18.000Z</Time>
            <Position>
              <LatitudeDegrees>43.3815384842455387115478515625</LatitudeDegrees>
              <LongitudeDegrees>-4.39944581128656864166259765625</LongitudeDegrees>
            </Position>
            <AltitudeMeters>23.200000762939453125</AltitudeMeters>
            <DistanceMeters>NAN</DistanceMeters>
          </Trackpoint>
          <Trackpoint>
            <Time>2022-07-15T08:06:20.000Z</Time>
            <Position>
              <LatitudeDegrees>43.3815220557153224945068359375</LatitudeDegrees>
              <LongitudeDegrees>-4.399474225938320159912109375</LongitudeDegrees>
            </Position>
            <AltitudeMeters>23.6000003814697265625</AltitudeMeters>
            <DistanceMeters>NAN</DistanceMeters>
          </Trackpoint>
          <Trackpoint>
            <Time>2022-07-15T08:06:24.000Z</Time>
            <Position>
              <LatitudeDegrees>43.3814885281026363372802734375</LatitudeDegrees>
              <LongitudeDegrees>-4.3995411135256290435791015625</LongitudeDegrees>
            </Position>
            <AltitudeMeters>24.200000762939453125</AltitudeMeters>
            <DistanceMeters>NAN</DistanceMeters>
          </Trackpoint>
          <Trackpoint>
            <Time>2022-07-15T08:06:25.000Z</Time>
            <Position>
              <LatitudeDegrees>43.38148727081716060638427734375</LatitudeDegrees>
              <LongitudeDegrees>-4.3995541892945766448974609375</LongitudeDegrees>
            </Position>
            <AltitudeMeters>24.6000003814697265625</AltitudeMeters>
            <DistanceMeters>NAN</DistanceMeters>
          </Trackpoint>
          <Trackpoint>
            <Time>2022-07-15T08:06:26.000Z</Time>
            <Position>
              <LatitudeDegrees>43.38148475624620914459228515625</LatitudeDegrees>
              <LongitudeDegrees>-4.3995699472725391387939453125</LongitudeDegrees>
            </Position>
            <AltitudeMeters>24.6000003814697265625</AltitudeMeters>
            <DistanceMeters>NAN</DistanceMeters>
          </Trackpoint>
          <Trackpoint>
            <Time>2022-07-15T08:06:27.000Z</Time>
            <Position>
              <LatitudeDegrees>43.38148307986557483673095703125</LatitudeDegrees>
              <LongitudeDegrees>-4.39958679489791393280029296875</LongitudeDegrees>
            </Position>
            <AltitudeMeters>24.799999237060546875</AltitudeMeters>
            <DistanceMeters>NAN</DistanceMeters>
          </Trackpoint>
          <Trackpoint>
            <Time>2022-07-15T08:06:31.000Z</Time>
            <Position>
              <LatitudeDegrees>43.38146916590631008148193359375</LatitudeDegrees>
              <LongitudeDegrees>-4.39964479766786098480224609375</LongitudeDegrees>
            </Position>
            <AltitudeMeters>25.3999996185302734375</AltitudeMeters>
            <DistanceMeters>NAN</DistanceMeters>
          </Trackpoint>
          <Trackpoint>
            <Time>2022-07-15T08:06:33.000Z</Time>
            <Position>
              <LatitudeDegrees>43.38145592249929904937744140625</LatitudeDegrees>
              <LongitudeDegrees>-4.3996772356331348419189453125</LongitudeDegrees>
            </Position>
            <AltitudeMeters>25.6000003814697265625</AltitudeMeters>
            <DistanceMeters>NAN</DistanceMeters>
          </Trackpoint>
          <Trackpoint>
            <Time>2022-07-15T08:06:35.000Z</Time>
            <Position>
              <LatitudeDegrees>43.3814439363777637481689453125</LatitudeDegrees>
              <LongitudeDegrees>-4.39971000887453556060791015625</LongitudeDegrees>
            </Position>
            <AltitudeMeters>25.799999237060546875</AltitudeMeters>
            <DistanceMeters>NAN</DistanceMeters>
          </Trackpoint>
          <Trackpoint>
            <Time>2022-07-15T08:06:39.000Z</Time>
            <Position>
              <LatitudeDegrees>43.38142356835305690765380859375</LatitudeDegrees>
              <LongitudeDegrees>-4.399763233959674835205078125</LongitudeDegrees>
            </Position>
            <AltitudeMeters>26</AltitudeMeters>
            <DistanceMeters>NAN</DistanceMeters>
          </Trackpoint>
          <Trackpoint>
            <Time>2022-07-15T08:06:41.000Z</Time>
            <Position>
              <LatitudeDegrees>43.3814184553921222686767578125</LatitudeDegrees>
              <LongitudeDegrees>-4.39977387897670269012451171875</LongitudeDegrees>
            </Position>
            <AltitudeMeters>26.200000762939453125</AltitudeMeters>
            <DistanceMeters>NAN</DistanceMeters>
          </Trackpoint>
          <Trackpoint>
            <Time>2022-07-15T08:06:46.000Z</Time>
            <Position>
              <LatitudeDegrees>43.38137780316174030303955078125</LatitudeDegrees>
              <LongitudeDegrees>-4.3998368270695209503173828125</LongitudeDegrees>
            </Position>
            <AltitudeMeters>26.799999237060546875</AltitudeMeters>
            <DistanceMeters>NAN</DistanceMeters>
          </Trackpoint>
          <Trackpoint>
            <Time>2022-07-15T08:06:50.000Z</Time>
            <Position>
              <LatitudeDegrees>43.38134586811065673828125</LatitudeDegrees>
              <LongitudeDegrees>-4.3998938240110874176025390625</LongitudeDegrees>
            </Position>
            <AltitudeMeters>27.3999996185302734375</AltitudeMeters>
            <DistanceMeters>NAN</DistanceMeters>
          </Trackpoint>
          <Trackpoint>
            <Time>2022-07-15T08:06:53.000Z</Time>
            <Position>
              <LatitudeDegrees>43.3813131786882877349853515625</LatitudeDegrees>
              <LongitudeDegrees>-4.39992022700607776641845703125</LongitudeDegrees>
            </Position>
            <AltitudeMeters>27.799999237060546875</AltitudeMeters>
            <DistanceMeters>NAN</DistanceMeters>
          </Trackpoint>
          <Trackpoint>
            <Time>2022-07-15T08:06:54.000Z</Time>
            <Position>
              <LatitudeDegrees>43.3813061378896236419677734375</LatitudeDegrees>
              <LongitudeDegrees>-4.3999340571463108062744140625</LongitudeDegrees>
            </Position>
            <AltitudeMeters>28</AltitudeMeters>
            <DistanceMeters>NAN</DistanceMeters>
          </Trackpoint>
          <Trackpoint>
            <Time>2022-07-15T08:06:55.000Z</Time>
            <Position>
              <LatitudeDegrees>43.381303958594799041748046875</LatitudeDegrees>
              <LongitudeDegrees>-4.39995073713362216949462890625</LongitudeDegrees>
            </Position>
            <AltitudeMeters>28</AltitudeMeters>
            <DistanceMeters>NAN</DistanceMeters>
          </Trackpoint>
          <Trackpoint>
            <Time>2022-07-15T08:06:56.000Z</Time>
            <Position>
              <LatitudeDegrees>43.38129884563386440277099609375</LatitudeDegrees>
              <LongitudeDegrees>-4.3999618850648403167724609375</LongitudeDegrees>
            </Position>
            <AltitudeMeters>28.200000762939453125</AltitudeMeters>
            <DistanceMeters>NAN</DistanceMeters>
          </Trackpoint>
          <Trackpoint>
            <Time>2022-07-15T08:06:57.000Z</Time>
            <Position>
              <LatitudeDegrees>43.38128979317843914031982421875</LatitudeDegrees>
              <LongitudeDegrees>-4.39997144043445587158203125</LongitudeDegrees>
            </Position>
            <AltitudeMeters>28.3999996185302734375</AltitudeMeters>
            <DistanceMeters>NAN</DistanceMeters>
          </Trackpoint>
          <Trackpoint>
            <Time>2022-07-15T08:07:01.000Z</Time>
            <Position>
              <LatitudeDegrees>43.3812427707016468048095703125</LatitudeDegrees>
              <LongitudeDegrees>-4.40001879818737506866455078125</LongitudeDegrees>
            </Position>
            <AltitudeMeters>29</AltitudeMeters>
            <DistanceMeters>NAN</DistanceMeters>
          </Trackpoint>
          <Trackpoint>
            <Time>2022-07-15T08:07:02.000Z</Time>
            <Position>
              <LatitudeDegrees>43.38123380206525325775146484375</LatitudeDegrees>
              <LongitudeDegrees>-4.40002785064280033111572265625</LongitudeDegrees>
            </Position>
            <AltitudeMeters>29</AltitudeMeters>
            <DistanceMeters>NAN</DistanceMeters>
          </Trackpoint>
          <Trackpoint>
            <Time>2022-07-15T08:07:07.000Z</Time>
            <Position>
              <LatitudeDegrees>43.381192646920680999755859375</LatitudeDegrees>
              <LongitudeDegrees>-4.4000835902988910675048828125</LongitudeDegrees>
            </Position>
            <AltitudeMeters>29.799999237060546875</AltitudeMeters>
            <DistanceMeters>NAN</DistanceMeters>
          </Trackpoint>
          <Trackpoint>
            <Time>2022-07-15T08:07:09.000Z</Time>
            <Position>
              <LatitudeDegrees>43.38117898441851139068603515625</LatitudeDegrees>
              <LongitudeDegrees>-4.4001035392284393310546875</LongitudeDegrees>
            </Position>
            <AltitudeMeters>30</AltitudeMeters>
            <DistanceMeters>NAN</DistanceMeters>
          </Trackpoint>
          <Trackpoint>
            <Time>2022-07-15T08:07:14.000Z</Time>
            <Position>
              <LatitudeDegrees>43.38115752674639225006103515625</LatitudeDegrees>
              <LongitudeDegrees>-4.40017654560506343841552734375</LongitudeDegrees>
            </Position>
            <AltitudeMeters>30.799999237060546875</AltitudeMeters>
            <DistanceMeters>NAN</DistanceMeters>
          </Trackpoint>
          <Trackpoint>
            <Time>2022-07-15T08:07:17.000Z</Time>
            <Position>
              <LatitudeDegrees>43.3811321295797824859619140625</LatitudeDegrees>
              <LongitudeDegrees>-4.40021644346415996551513671875</LongitudeDegrees>
            </Position>
            <AltitudeMeters>31.200000762939453125</AltitudeMeters>
            <DistanceMeters>NAN</DistanceMeters>
          </Trackpoint>
          <Trackpoint>
            <Time>2022-07-15T08:07:19.000Z</Time>
            <Position>
              <LatitudeDegrees>43.3811200596392154693603515625</LatitudeDegrees>
              <LongitudeDegrees>-4.40025147981941699981689453125</LongitudeDegrees>
            </Position>
            <AltitudeMeters>31.3999996185302734375</AltitudeMeters>
            <DistanceMeters>NAN</DistanceMeters>
          </Trackpoint>
          <Trackpoint>
            <Time>2022-07-15T08:07:20.000Z</Time>
            <Position>
              <LatitudeDegrees>43.38111226446926593780517578125</LatitudeDegrees>
              <LongitudeDegrees>-4.40025969408452510833740234375</LongitudeDegrees>
            </Position>
            <AltitudeMeters>31.6000003814697265625</AltitudeMeters>
            <DistanceMeters>NAN</DistanceMeters>
          </Trackpoint>
          <Trackpoint>
            <Time>2022-07-15T08:07:21.000Z</Time>
            <Position>
              <LatitudeDegrees>43.38110254146158695220947265625</LatitudeDegrees>
              <LongitudeDegrees>-4.400272853672504425048828125</LongitudeDegrees>
            </Position>
            <AltitudeMeters>31.6000003814697265625</AltitudeMeters>
            <DistanceMeters>NAN</DistanceMeters>
          </Trackpoint>
          <Trackpoint>
            <Time>2022-07-15T08:07:26.000Z</Time>
            <Position>
              <LatitudeDegrees>43.38105618953704833984375</LatitudeDegrees>
              <LongitudeDegrees>-4.40033663995563983917236328125</LongitudeDegrees>
            </Position>
            <AltitudeMeters>32.200000762939453125</AltitudeMeters>
            <DistanceMeters>NAN</DistanceMeters>
          </Trackpoint>
          <Trackpoint>
            <Time>2022-07-15T08:07:27.000Z</Time>
            <Position>
              <LatitudeDegrees>43.38104738853871822357177734375</LatitudeDegrees>
              <LongitudeDegrees>-4.40035499632358551025390625</LongitudeDegrees>
            </Position>
            <AltitudeMeters>32.40000152587890625</AltitudeMeters>
            <DistanceMeters>NAN</DistanceMeters>
          </Trackpoint>
          <Trackpoint>
            <Time>2022-07-15T08:07:34.000Z</Time>
            <Position>
              <LatitudeDegrees>43.38098368607461452484130859375</LatitudeDegrees>
              <LongitudeDegrees>-4.40045348368585109710693359375</LongitudeDegrees>
            </Position>
            <AltitudeMeters>33</AltitudeMeters>
            <DistanceMeters>NAN</DistanceMeters>
          </Trackpoint>
          <Trackpoint>
            <Time>2022-07-15T08:07:35.000Z</Time>
            <Position>
              <LatitudeDegrees>43.380978740751743316650390625</LatitudeDegrees>
              <LongitudeDegrees>-4.40047477371990680694580078125</LongitudeDegrees>
            </Position>
            <AltitudeMeters>33</AltitudeMeters>
            <DistanceMeters>NAN</DistanceMeters>
          </Trackpoint>
          <Trackpoint>
            <Time>2022-07-15T08:07:39.000Z</Time>
            <Position>
              <LatitudeDegrees>43.38095854036509990692138671875</LatitudeDegrees>
              <LongitudeDegrees>-4.4005127437412738800048828125</LongitudeDegrees>
            </Position>
            <AltitudeMeters>33.40000152587890625</AltitudeMeters>
            <DistanceMeters>NAN</DistanceMeters>
          </Trackpoint>
          <Trackpoint>
            <Time>2022-07-15T08:07:42.000Z</Time>
            <Position>
              <LatitudeDegrees>43.380957283079624176025390625</LatitudeDegrees>
              <LongitudeDegrees>-4.40051726996898651123046875</LongitudeDegrees>
            </Position>
            <AltitudeMeters>33.59999847412109375</AltitudeMeters>
            <DistanceMeters>NAN</DistanceMeters>
          </Trackpoint>
          <Trackpoint>
            <Time>2022-07-15T08:07:45.000Z</Time>
            <Position>
              <LatitudeDegrees>43.380976058542728424072265625</LatitudeDegrees>
              <LongitudeDegrees>-4.4004939682781696319580078125</LongitudeDegrees>
            </Position>
            <AltitudeMeters>33.59999847412109375</AltitudeMeters>
            <DistanceMeters>NAN</DistanceMeters>
          </Trackpoint>
          <Trackpoint>
            <Time>2022-07-15T08:07:47.000Z</Time>
            <Position>
              <LatitudeDegrees>43.380976058542728424072265625</LatitudeDegrees>
              <LongitudeDegrees>-4.4004939682781696319580078125</LongitudeDegrees>
            </Position>
            <AltitudeMeters>33.59999847412109375</AltitudeMeters>
            <DistanceMeters>NAN</DistanceMeters>
          </Trackpoint>
          <Trackpoint>
            <Time>2022-07-15T08:07:50.000Z</Time>
            <Position>
              <LatitudeDegrees>43.380976058542728424072265625</LatitudeDegrees>
              <LongitudeDegrees>-4.4004939682781696319580078125</LongitudeDegrees>
            </Position>
            <AltitudeMeters>33.59999847412109375</AltitudeMeters>
            <DistanceMeters>NAN</DistanceMeters>
          </Trackpoint>
          <Trackpoint>
            <Time>2022-07-15T08:13:15.000Z</Time>
            <Position>
              <LatitudeDegrees>43.3809349872171878814697265625</LatitudeDegrees>
              <LongitudeDegrees>-4.40055389888584613800048828125</LongitudeDegrees>
            </Position>
            <AltitudeMeters>37.799999237060546875</AltitudeMeters>
            <DistanceMeters>NAN</DistanceMeters>
          </Trackpoint>
          <Trackpoint>
            <Time>2022-07-15T08:13:16.000Z</Time>
            <Position>
              <LatitudeDegrees>43.38092140853404998779296875</LatitudeDegrees>
              <LongitudeDegrees>-4.4005648791790008544921875</LongitudeDegrees>
            </Position>
            <AltitudeMeters>38</AltitudeMeters>
            <DistanceMeters>NAN</DistanceMeters>
          </Trackpoint>
          <Trackpoint>
            <Time>2022-07-15T08:13:17.000Z</Time>
            <Position>
              <LatitudeDegrees>43.38090665638446807861328125</LatitudeDegrees>
              <LongitudeDegrees>-4.40058021806180477142333984375</LongitudeDegrees>
            </Position>
            <AltitudeMeters>38</AltitudeMeters>
            <DistanceMeters>NAN</DistanceMeters>
          </Trackpoint>
          <Trackpoint>
            <Time>2022-07-15T08:13:23.000Z</Time>
            <Position>
              <LatitudeDegrees>43.3808233402669429779052734375</LatitudeDegrees>
              <LongitudeDegrees>-4.40067493356764316558837890625</LongitudeDegrees>
            </Position>
            <AltitudeMeters>38.40000152587890625</AltitudeMeters>
            <DistanceMeters>NAN</DistanceMeters>
          </Trackpoint>
          <Trackpoint>
            <Time>2022-07-15T08:13:29.000Z</Time>
            <Position>
              <LatitudeDegrees>43.380733989179134368896484375</LatitudeDegrees>
              <LongitudeDegrees>-4.40075322054326534271240234375</LongitudeDegrees>
            </Position>
            <AltitudeMeters>39</AltitudeMeters>
            <DistanceMeters>NAN</DistanceMeters>
          </Trackpoint>
          <Trackpoint>
            <Time>2022-07-15T08:13:31.000Z</Time>
            <Position>
              <LatitudeDegrees>43.38070875965058803558349609375</LatitudeDegrees>
              <LongitudeDegrees>-4.4007861614227294921875</LongitudeDegrees>
            </Position>
            <AltitudeMeters>39</AltitudeMeters>
            <DistanceMeters>NAN</DistanceMeters>
          </Trackpoint>
          <Trackpoint>
            <Time>2022-07-15T08:13:40.000Z</Time>
            <Position>
              <LatitudeDegrees>43.38063977658748626708984375</LatitudeDegrees>
              <LongitudeDegrees>-4.40093301236629486083984375</LongitudeDegrees>
            </Position>
            <AltitudeMeters>39.799999237060546875</AltitudeMeters>
            <DistanceMeters>NAN</DistanceMeters>
          </Trackpoint>
          <Trackpoint>
            <Time>2022-07-15T08:13:42.000Z</Time>
            <Position>
              <LatitudeDegrees>43.38063097558915615081787109375</LatitudeDegrees>
              <LongitudeDegrees>-4.400964193046092987060546875</LongitudeDegrees>
            </Position>
            <AltitudeMeters>40</AltitudeMeters>
            <DistanceMeters>NAN</DistanceMeters>
          </Trackpoint>
          <Trackpoint>
            <Time>2022-07-15T08:13:47.000Z</Time>
            <Position>
              <LatitudeDegrees>43.38062745518982410430908203125</LatitudeDegrees>
              <LongitudeDegrees>-4.4010530412197113037109375</LongitudeDegrees>
            </Position>
            <AltitudeMeters>40.40000152587890625</AltitudeMeters>
            <DistanceMeters>NAN</DistanceMeters>
          </Trackpoint>
          <Trackpoint>
            <Time>2022-07-15T08:13:49.000Z</Time>
            <Position>
              <LatitudeDegrees>43.3806337416172027587890625</LatitudeDegrees>
              <LongitudeDegrees>-4.40108992159366607666015625</LongitudeDegrees>
            </Position>
            <AltitudeMeters>40.40000152587890625</AltitudeMeters>
            <DistanceMeters>NAN</DistanceMeters>
          </Trackpoint>
          <Trackpoint>
            <Time>2022-07-15T08:13:57.000Z</Time>
            <Position>
              <LatitudeDegrees>43.3806443028151988983154296875</LatitudeDegrees>
              <LongitudeDegrees>-4.401272647082805633544921875</LongitudeDegrees>
            </Position>
            <AltitudeMeters>40.799999237060546875</AltitudeMeters>
            <DistanceMeters>NAN</DistanceMeters>
          </Trackpoint>
          <Trackpoint>
            <Time>2022-07-15T08:13:58.000Z</Time>
            <Position>
              <LatitudeDegrees>43.38064354844391345977783203125</LatitudeDegrees>
              <LongitudeDegrees>-4.40129645168781280517578125</LongitudeDegrees>
            </Position>
            <AltitudeMeters>40.799999237060546875</AltitudeMeters>
            <DistanceMeters>NAN</DistanceMeters>
          </Trackpoint>
          <Trackpoint>
            <Time>2022-07-15T08:14:03.000Z</Time>
            <Position>
              <LatitudeDegrees>43.38062100112438201904296875</LatitudeDegrees>
              <LongitudeDegrees>-4.4014196656644344329833984375</LongitudeDegrees>
            </Position>
            <AltitudeMeters>40.799999237060546875</AltitudeMeters>
            <DistanceMeters>NAN</DistanceMeters>
          </Trackpoint>
          <Trackpoint>
            <Time>2022-07-15T08:14:05.000Z</Time>
            <Position>
              <LatitudeDegrees>43.38060088455677032470703125</LatitudeDegrees>
              <LongitudeDegrees>-4.40145126543939113616943359375</LongitudeDegrees>
            </Position>
            <AltitudeMeters>40.799999237060546875</AltitudeMeters>
            <DistanceMeters>NAN</DistanceMeters>
          </Trackpoint>
          <Trackpoint>
            <Time>2022-07-15T08:14:08.000Z</Time>
            <Position>
              <LatitudeDegrees>43.3805398643016815185546875</LatitudeDegrees>
              <LongitudeDegrees>-4.40149736590683460235595703125</LongitudeDegrees>
            </Position>
            <AltitudeMeters>40.799999237060546875</AltitudeMeters>
            <DistanceMeters>NAN</DistanceMeters>
          </Trackpoint>
          <Trackpoint>
            <Time>2022-07-15T08:14:11.000Z</Time>
            <Position>
              <LatitudeDegrees>43.380466438829898834228515625</LatitudeDegrees>
              <LongitudeDegrees>-4.40152854658663272857666015625</LongitudeDegrees>
            </Position>
            <AltitudeMeters>40.59999847412109375</AltitudeMeters>
            <DistanceMeters>NAN</DistanceMeters>
          </Trackpoint>
          <Trackpoint>
            <Time>2022-07-15T08:14:14.000Z</Time>
            <Position>
              <LatitudeDegrees>43.38038362562656402587890625</LatitudeDegrees>
              <LongitudeDegrees>-4.4015557877719402313232421875</LongitudeDegrees>
            </Position>
            <AltitudeMeters>40.59999847412109375</AltitudeMeters>
            <DistanceMeters>NAN</DistanceMeters>
          </Trackpoint>
          <Trackpoint>
            <Time>2022-07-15T08:14:17.000Z</Time>
            <Position>
              <LatitudeDegrees>43.38031212799251079559326171875</LatitudeDegrees>
              <LongitudeDegrees>-4.4015883095562458038330078125</LongitudeDegrees>
            </Position>
            <AltitudeMeters>40.40000152587890625</AltitudeMeters>
            <DistanceMeters>NAN</DistanceMeters>
          </Trackpoint>
          <Trackpoint>
            <Time>2022-07-15T08:14:21.000Z</Time>
            <Position>
              <LatitudeDegrees>43.38022403419017791748046875</LatitudeDegrees>
              <LongitudeDegrees>-4.40164304338395595550537109375</LongitudeDegrees>
            </Position>
            <AltitudeMeters>40.59999847412109375</AltitudeMeters>
            <DistanceMeters>NAN</DistanceMeters>
          </Trackpoint>
          <Trackpoint>
            <Time>2022-07-15T08:14:26.000Z</Time>
            <Position>
              <LatitudeDegrees>43.380135186016559600830078125</LatitudeDegrees>
              <LongitudeDegrees>-4.40173122100532054901123046875</LongitudeDegrees>
            </Position>
            <AltitudeMeters>41</AltitudeMeters>
            <DistanceMeters>NAN</DistanceMeters>
          </Trackpoint>
          <Trackpoint>
            <Time>2022-07-15T08:14:34.000Z</Time>
            <Position>
              <LatitudeDegrees>43.38004030287265777587890625</LatitudeDegrees>
              <LongitudeDegrees>-4.4019011221826076507568359375</LongitudeDegrees>
            </Position>
            <AltitudeMeters>41.799999237060546875</AltitudeMeters>
            <DistanceMeters>NAN</DistanceMeters>
          </Trackpoint>
          <Trackpoint>
            <Time>2022-07-15T08:14:36.000Z</Time>
            <Position>
              <LatitudeDegrees>43.3800183422863483428955078125</LatitudeDegrees>
              <LongitudeDegrees>-4.401939846575260162353515625</LongitudeDegrees>
            </Position>
            <AltitudeMeters>42</AltitudeMeters>
            <DistanceMeters>NAN</DistanceMeters>
          </Trackpoint>
          <Trackpoint>
            <Time>2022-07-15T08:14:42.000Z</Time>
            <Position>
              <LatitudeDegrees>43.3799564838409423828125</LatitudeDegrees>
              <LongitudeDegrees>-4.40202374942600727081298828125</LongitudeDegrees>
            </Position>
            <AltitudeMeters>42.40000152587890625</AltitudeMeters>
            <DistanceMeters>NAN</DistanceMeters>
          </Trackpoint>
          <Trackpoint>
            <Time>2022-07-15T08:14:47.000Z</Time>
            <Position>
              <LatitudeDegrees>43.37992094457149505615234375</LatitudeDegrees>
              <LongitudeDegrees>-4.4021143577992916107177734375</LongitudeDegrees>
            </Position>
            <AltitudeMeters>42.799999237060546875</AltitudeMeters>
            <DistanceMeters>NAN</DistanceMeters>
          </Trackpoint>
          <Trackpoint>
            <Time>2022-07-15T08:14:49.000Z</Time>
            <Position>
              <LatitudeDegrees>43.379910551011562347412109375</LatitudeDegrees>
              <LongitudeDegrees>-4.4021438620984554290771484375</LongitudeDegrees>
            </Position>
            <AltitudeMeters>43.200000762939453125</AltitudeMeters>
            <DistanceMeters>NAN</DistanceMeters>
          </Trackpoint>
          <Trackpoint>
            <Time>2022-07-15T08:14:51.000Z</Time>
            <Position>
              <LatitudeDegrees>43.37989638559520244598388671875</LatitudeDegrees>
              <LongitudeDegrees>-4.40218334086239337921142578125</LongitudeDegrees>
            </Position>
            <AltitudeMeters>43.200000762939453125</AltitudeMeters>
            <DistanceMeters>NAN</DistanceMeters>
          </Trackpoint>
          <Trackpoint>
            <Time>2022-07-15T08:14:56.000Z</Time>
            <Position>
              <LatitudeDegrees>43.3798424899578094482421875</LatitudeDegrees>
              <LongitudeDegrees>-4.40225257538259029388427734375</LongitudeDegrees>
            </Position>
            <AltitudeMeters>43.799999237060546875</AltitudeMeters>
            <DistanceMeters>NAN</DistanceMeters>
          </Trackpoint>
          <Trackpoint>
            <Time>2022-07-15T08:15:00.000Z</Time>
            <Position>
              <LatitudeDegrees>43.37981508113443851470947265625</LatitudeDegrees>
              <LongitudeDegrees>-4.40230839885771274566650390625</LongitudeDegrees>
            </Position>
            <AltitudeMeters>44.200000762939453125</AltitudeMeters>
            <DistanceMeters>NAN</DistanceMeters>
          </Trackpoint>
          <Trackpoint>
            <Time>2022-07-15T08:15:04.000Z</Time>
            <Position>
              <LatitudeDegrees>43.379791863262653350830078125</LatitudeDegrees>
              <LongitudeDegrees>-4.40235726535320281982421875</LongitudeDegrees>
            </Position>
            <AltitudeMeters>44.40000152587890625</AltitudeMeters>
            <DistanceMeters>NAN</DistanceMeters>
          </Trackpoint>
          <Trackpoint>
            <Time>2022-07-15T08:15:11.000Z</Time>
            <Position>
              <LatitudeDegrees>43.37972941808402538299560546875</LatitudeDegrees>
              <LongitudeDegrees>-4.4024598598480224609375</LongitudeDegrees>
            </Position>
            <AltitudeMeters>45.200000762939453125</AltitudeMeters>
            <DistanceMeters>NAN</DistanceMeters>
          </Trackpoint>
          <Trackpoint>
            <Time>2022-07-15T08:15:12.000Z</Time>
            <Position>
              <LatitudeDegrees>43.37972111999988555908203125</LatitudeDegrees>
              <LongitudeDegrees>-4.40247385762631893157958984375</LongitudeDegrees>
            </Position>
            <AltitudeMeters>45.200000762939453125</AltitudeMeters>
            <DistanceMeters>NAN</DistanceMeters>
          </Trackpoint>
          <Trackpoint>
            <Time>2022-07-15T08:15:17.000Z</Time>
            <Position>
              <LatitudeDegrees>43.37968264706432819366455078125</LatitudeDegrees>
              <LongitudeDegrees>-4.4025363028049468994140625</LongitudeDegrees>
            </Position>
            <AltitudeMeters>45.799999237060546875</AltitudeMeters>
            <DistanceMeters>NAN</DistanceMeters>
          </Trackpoint>
          <Trackpoint>
            <Time>2022-07-15T08:15:18.000Z</Time>
            <Position>
              <LatitudeDegrees>43.37967258878052234649658203125</LatitudeDegrees>
              <LongitudeDegrees>-4.40255147404968738555908203125</LongitudeDegrees>
            </Position>
            <AltitudeMeters>45.799999237060546875</AltitudeMeters>
            <DistanceMeters>NAN</DistanceMeters>
          </Trackpoint>
          <Trackpoint>
            <Time>2022-07-15T08:15:20.000Z</Time>
            <Position>
              <LatitudeDegrees>43.37965347804129123687744140625</LatitudeDegrees>
              <LongitudeDegrees>-4.40258014015853404998779296875</LongitudeDegrees>
            </Position>
            <AltitudeMeters>46</AltitudeMeters>
            <DistanceMeters>NAN</DistanceMeters>
          </Trackpoint>
          <Trackpoint>
            <Time>2022-07-15T08:15:22.000Z</Time>
            <Position>
              <LatitudeDegrees>43.3796357922255992889404296875</LatitudeDegrees>
              <LongitudeDegrees>-4.40260662697255611419677734375</LongitudeDegrees>
            </Position>
            <AltitudeMeters>46.200000762939453125</AltitudeMeters>
            <DistanceMeters>NAN</DistanceMeters>
          </Trackpoint>
          <Trackpoint>
            <Time>2022-07-15T08:15:33.000Z</Time>
            <Position>
              <LatitudeDegrees>43.37954250164330005645751953125</LatitudeDegrees>
              <LongitudeDegrees>-4.4027668051421642303466796875</LongitudeDegrees>
            </Position>
            <AltitudeMeters>47.200000762939453125</AltitudeMeters>
            <DistanceMeters>NAN</DistanceMeters>
          </Trackpoint>
          <Trackpoint>
            <Time>2022-07-15T08:15:38.000Z</Time>
            <Position>
              <LatitudeDegrees>43.37950210087001323699951171875</LatitudeDegrees>
              <LongitudeDegrees>-4.40283394418656826019287109375</LongitudeDegrees>
            </Position>
            <AltitudeMeters>47.40000152587890625</AltitudeMeters>
            <DistanceMeters>NAN</DistanceMeters>
          </Trackpoint>
          <Trackpoint>
            <Time>2022-07-15T08:15:42.000Z</Time>
            <Position>
              <LatitudeDegrees>43.379461951553821563720703125</LatitudeDegrees>
              <LongitudeDegrees>-4.40290468744933605194091796875</LongitudeDegrees>
            </Position>
            <AltitudeMeters>47.59999847412109375</AltitudeMeters>
            <DistanceMeters>NAN</DistanceMeters>
          </Trackpoint>
          <Trackpoint>
            <Time>2022-07-15T08:15:50.000Z</Time>
            <Position>
              <LatitudeDegrees>43.37936111725866794586181640625</LatitudeDegrees>
              <LongitudeDegrees>-4.4030809588730335235595703125</LongitudeDegrees>
            </Position>
            <AltitudeMeters>47.799999237060546875</AltitudeMeters>
            <DistanceMeters>NAN</DistanceMeters>
          </Trackpoint>
          <Trackpoint>
            <Time>2022-07-15T08:15:51.000Z</Time>
            <Position>
              <LatitudeDegrees>43.3793457783758640289306640625</LatitudeDegrees>
              <LongitudeDegrees>-4.4031057693064212799072265625</LongitudeDegrees>
            </Position>
            <AltitudeMeters>47.59999847412109375</AltitudeMeters>
            <DistanceMeters>NAN</DistanceMeters>
          </Trackpoint>
          <Trackpoint>
            <Time>2022-07-15T08:15:54.000Z</Time>
            <Position>
              <LatitudeDegrees>43.37929741479456424713134765625</LatitudeDegrees>
              <LongitudeDegrees>-4.40318397246301174163818359375</LongitudeDegrees>
            </Position>
            <AltitudeMeters>47.799999237060546875</AltitudeMeters>
            <DistanceMeters>NAN</DistanceMeters>
          </Trackpoint>
          <Trackpoint>
            <Time>2022-07-15T08:15:57.000Z</Time>
            <Position>
              <LatitudeDegrees>43.3792389929294586181640625</LatitudeDegrees>
              <LongitudeDegrees>-4.40329779870808124542236328125</LongitudeDegrees>
            </Position>
            <AltitudeMeters>47.799999237060546875</AltitudeMeters>
            <DistanceMeters>NAN</DistanceMeters>
          </Trackpoint>
          <Trackpoint>
            <Time>2022-07-15T08:15:58.000Z</Time>
            <Position>
              <LatitudeDegrees>43.379222564399242401123046875</LatitudeDegrees>
              <LongitudeDegrees>-4.40333317033946514129638671875</LongitudeDegrees>
            </Position>
            <AltitudeMeters>47.799999237060546875</AltitudeMeters>
            <DistanceMeters>NAN</DistanceMeters>
          </Trackpoint>
          <Trackpoint>
            <Time>2022-07-15T08:16:01.000Z</Time>
            <Position>
              <LatitudeDegrees>43.3791737817227840423583984375</LatitudeDegrees>
              <LongitudeDegrees>-4.40344163216650485992431640625</LongitudeDegrees>
            </Position>
            <AltitudeMeters>47.40000152587890625</AltitudeMeters>
            <DistanceMeters>NAN</DistanceMeters>
          </Trackpoint>
          <Trackpoint>
            <Time>2022-07-15T08:16:03.000Z</Time>
            <Position>
              <LatitudeDegrees>43.37914712727069854736328125</LatitudeDegrees>
              <LongitudeDegrees>-4.4035057537257671356201171875</LongitudeDegrees>
            </Position>
            <AltitudeMeters>47.40000152587890625</AltitudeMeters>
            <DistanceMeters>NAN</DistanceMeters>
          </Trackpoint>
          <Trackpoint>
            <Time>2022-07-15T08:16:05.000Z</Time>
            <Position>
              <LatitudeDegrees>43.3791141025722026824951171875</LatitudeDegrees>
              <LongitudeDegrees>-4.40359200350940227508544921875</LongitudeDegrees>
            </Position>
            <AltitudeMeters>47.200000762939453125</AltitudeMeters>
            <DistanceMeters>NAN</DistanceMeters>
          </Trackpoint>
          <Trackpoint>
            <Time>2022-07-15T08:16:07.000Z</Time>
            <Position>
              <LatitudeDegrees>43.379083089530467987060546875</LatitudeDegrees>
              <LongitudeDegrees>-4.403680264949798583984375</LongitudeDegrees>
            </Position>
            <AltitudeMeters>47.200000762939453125</AltitudeMeters>
            <DistanceMeters>NAN</DistanceMeters>
          </Trackpoint>
          <Trackpoint>
            <Time>2022-07-15T08:16:09.000Z</Time>
            <Position>
              <LatitudeDegrees>43.37903581559658050537109375</LatitudeDegrees>
              <LongitudeDegrees>-4.403775818645954132080078125</LongitudeDegrees>
            </Position>
            <AltitudeMeters>47</AltitudeMeters>
            <DistanceMeters>NAN</DistanceMeters>
          </Trackpoint>
          <Trackpoint>
            <Time>2022-07-15T08:16:11.000Z</Time>
            <Position>
              <LatitudeDegrees>43.37896783836185932159423828125</LatitudeDegrees>
              <LongitudeDegrees>-4.403877742588520050048828125</LongitudeDegrees>
            </Position>
            <AltitudeMeters>46.799999237060546875</AltitudeMeters>
            <DistanceMeters>NAN</DistanceMeters>
          </Trackpoint>
          <Trackpoint>
            <Time>2022-07-15T08:16:13.000Z</Time>
            <Position>
              <LatitudeDegrees>43.378876559436321258544921875</LatitudeDegrees>
              <LongitudeDegrees>-4.4039833545684814453125</LongitudeDegrees>
            </Position>
            <AltitudeMeters>46.200000762939453125</AltitudeMeters>
            <DistanceMeters>NAN</DistanceMeters>
          </Trackpoint>
          <Trackpoint>
            <Time>2022-07-15T08:16:16.000Z</Time>
            <Position>
              <LatitudeDegrees>43.37870850227773189544677734375</LatitudeDegrees>
              <LongitudeDegrees>-4.4041518308222293853759765625</LongitudeDegrees>
            </Position>
            <AltitudeMeters>45.200000762939453125</AltitudeMeters>
            <DistanceMeters>NAN</DistanceMeters>
          </Trackpoint>
          <Trackpoint>
            <Time>2022-07-15T08:16:17.000Z</Time>
            <Position>
              <LatitudeDegrees>43.37865586392581462860107421875</LatitudeDegrees>
              <LongitudeDegrees>-4.40419617109000682830810546875</LongitudeDegrees>
            </Position>
            <AltitudeMeters>44.59999847412109375</AltitudeMeters>
            <DistanceMeters>NAN</DistanceMeters>
          </Trackpoint>
          <Trackpoint>
            <Time>2022-07-15T08:16:19.000Z</Time>
            <Position>
              <LatitudeDegrees>43.3785045705735683441162109375</LatitudeDegrees>
              <LongitudeDegrees>-4.40433430485427379608154296875</LongitudeDegrees>
            </Position>
            <AltitudeMeters>43.40000152587890625</AltitudeMeters>
            <DistanceMeters>NAN</DistanceMeters>
          </Trackpoint>
          <Trackpoint>
            <Time>2022-07-15T08:16:21.000Z</Time>
            <Position>
              <LatitudeDegrees>43.3783771656453609466552734375</LatitudeDegrees>
              <LongitudeDegrees>-4.40447880886495113372802734375</LongitudeDegrees>
            </Position>
            <AltitudeMeters>42.200000762939453125</AltitudeMeters>
            <DistanceMeters>NAN</DistanceMeters>
          </Trackpoint>
          <Trackpoint>
            <Time>2022-07-15T08:16:23.000Z</Time>
            <Position>
              <LatitudeDegrees>43.3782859705388545989990234375</LatitudeDegrees>
              <LongitudeDegrees>-4.40465952269732952117919921875</LongitudeDegrees>
            </Position>
            <AltitudeMeters>41.40000152587890625</AltitudeMeters>
            <DistanceMeters>NAN</DistanceMeters>
          </Trackpoint>
          <Trackpoint>
            <Time>2022-07-15T08:16:24.000Z</Time>
            <Position>
              <LatitudeDegrees>43.37825453840196132659912109375</LatitudeDegrees>
              <LongitudeDegrees>-4.40475792624056339263916015625</LongitudeDegrees>
            </Position>
            <AltitudeMeters>41</AltitudeMeters>
            <DistanceMeters>NAN</DistanceMeters>
          </Trackpoint>
          <Trackpoint>
            <Time>2022-07-15T08:16:25.000Z</Time>
            <Position>
              <LatitudeDegrees>43.37822838686406612396240234375</LatitudeDegrees>
              <LongitudeDegrees>-4.40485968254506587982177734375</LongitudeDegrees>
            </Position>
            <AltitudeMeters>40.59999847412109375</AltitudeMeters>
            <DistanceMeters>NAN</DistanceMeters>
          </Trackpoint>
          <Trackpoint>
            <Time>2022-07-15T08:16:27.000Z</Time>
            <Position>
              <LatitudeDegrees>43.37819586507976055145263671875</LatitudeDegrees>
              <LongitudeDegrees>-4.40504659898579120635986328125</LongitudeDegrees>
            </Position>
            <AltitudeMeters>40</AltitudeMeters>
            <DistanceMeters>NAN</DistanceMeters>
          </Trackpoint>
          <Trackpoint>
            <Time>2022-07-15T08:16:28.000Z</Time>
            <Position>
              <LatitudeDegrees>43.37819083593785762786865234375</LatitudeDegrees>
              <LongitudeDegrees>-4.4051744230091571807861328125</LongitudeDegrees>
            </Position>
            <AltitudeMeters>39.59999847412109375</AltitudeMeters>
            <DistanceMeters>NAN</DistanceMeters>
          </Trackpoint>
          <Trackpoint>
            <Time>2022-07-15T08:16:32.000Z</Time>
            <Position>
              <LatitudeDegrees>43.378221429884433746337890625</LatitudeDegrees>
              <LongitudeDegrees>-4.40557030029594898223876953125</LongitudeDegrees>
            </Position>
            <AltitudeMeters>38.799999237060546875</AltitudeMeters>
            <DistanceMeters>NAN</DistanceMeters>
          </Trackpoint>
          <Trackpoint>
            <Time>2022-07-15T08:16:34.000Z</Time>
            <Position>
              <LatitudeDegrees>43.37824079208076000213623046875</LatitudeDegrees>
              <LongitudeDegrees>-4.405790828168392181396484375</LongitudeDegrees>
            </Position>
            <AltitudeMeters>38.799999237060546875</AltitudeMeters>
            <DistanceMeters>NAN</DistanceMeters>
          </Trackpoint>
          <Trackpoint>
            <Time>2022-07-15T08:16:37.000Z</Time>
            <Position>
              <LatitudeDegrees>43.37826333940029144287109375</LatitudeDegrees>
              <LongitudeDegrees>-4.4060528464615345001220703125</LongitudeDegrees>
            </Position>
            <AltitudeMeters>38.799999237060546875</AltitudeMeters>
            <DistanceMeters>NAN</DistanceMeters>
          </Trackpoint>
          <Trackpoint>
            <Time>2022-07-15T08:16:39.000Z</Time>
            <Position>
              <LatitudeDegrees>43.37828253395855426788330078125</LatitudeDegrees>
              <LongitudeDegrees>-4.4062362425029277801513671875</LongitudeDegrees>
            </Position>
            <AltitudeMeters>39</AltitudeMeters>
            <DistanceMeters>NAN</DistanceMeters>
          </Trackpoint>
          <Trackpoint>
            <Time>2022-07-15T08:16:40.000Z</Time>
            <Position>
              <LatitudeDegrees>43.37828957475721836090087890625</LatitudeDegrees>
              <LongitudeDegrees>-4.4063110090792179107666015625</LongitudeDegrees>
            </Position>
            <AltitudeMeters>39</AltitudeMeters>
            <DistanceMeters>NAN</DistanceMeters>
          </Trackpoint>
          <Trackpoint>
            <Time>2022-07-15T08:16:42.000Z</Time>
            <Position>
              <LatitudeDegrees>43.3782913349568843841552734375</LatitudeDegrees>
              <LongitudeDegrees>-4.40645559690892696380615234375</LongitudeDegrees>
            </Position>
            <AltitudeMeters>39</AltitudeMeters>
            <DistanceMeters>NAN</DistanceMeters>
          </Trackpoint>
          <Trackpoint>
            <Time>2022-07-15T08:16:44.000Z</Time>
            <Position>
              <LatitudeDegrees>43.37827381677925586700439453125</LatitudeDegrees>
              <LongitudeDegrees>-4.40658467821776866912841796875</LongitudeDegrees>
            </Position>
            <AltitudeMeters>39.200000762939453125</AltitudeMeters>
            <DistanceMeters>NAN</DistanceMeters>
          </Trackpoint>
          <Trackpoint>
            <Time>2022-07-15T08:16:45.000Z</Time>
            <Position>
              <LatitudeDegrees>43.378259651362895965576171875</LatitudeDegrees>
              <LongitudeDegrees>-4.40663849003612995147705078125</LongitudeDegrees>
            </Position>
            <AltitudeMeters>39.200000762939453125</AltitudeMeters>
            <DistanceMeters>NAN</DistanceMeters>
          </Trackpoint>
          <Trackpoint>
            <Time>2022-07-15T08:16:46.000Z</Time>
            <Position>
              <LatitudeDegrees>43.378237523138523101806640625</LatitudeDegrees>
              <LongitudeDegrees>-4.40668777562677860260009765625</LongitudeDegrees>
            </Position>
            <AltitudeMeters>39.200000762939453125</AltitudeMeters>
            <DistanceMeters>NAN</DistanceMeters>
          </Trackpoint>
          <Trackpoint>
            <Time>2022-07-15T08:16:48.000Z</Time>
            <Position>
              <LatitudeDegrees>43.37819016538560390472412109375</LatitudeDegrees>
              <LongitudeDegrees>-4.40677846781909465789794921875</LongitudeDegrees>
            </Position>
            <AltitudeMeters>39.40000152587890625</AltitudeMeters>
            <DistanceMeters>NAN</DistanceMeters>
          </Trackpoint>
          <Trackpoint>
            <Time>2022-07-15T08:16:50.000Z</Time>
            <Position>
              <LatitudeDegrees>43.37812730111181735992431640625</LatitudeDegrees>
              <LongitudeDegrees>-4.40685759298503398895263671875</LongitudeDegrees>
            </Position>
            <AltitudeMeters>39.40000152587890625</AltitudeMeters>
            <DistanceMeters>NAN</DistanceMeters>
          </Trackpoint>
          <Trackpoint>
            <Time>2022-07-15T08:16:53.000Z</Time>
            <Position>
              <LatitudeDegrees>43.37802571244537830352783203125</LatitudeDegrees>
              <LongitudeDegrees>-4.406959600746631622314453125</LongitudeDegrees>
            </Position>
            <AltitudeMeters>39.40000152587890625</AltitudeMeters>
            <DistanceMeters>NAN</DistanceMeters>
          </Trackpoint>
          <Trackpoint>
            <Time>2022-07-15T08:16:56.000Z</Time>
            <Position>
              <LatitudeDegrees>43.3779252134263515472412109375</LatitudeDegrees>
              <LongitudeDegrees>-4.40704316832125186920166015625</LongitudeDegrees>
            </Position>
            <AltitudeMeters>39.40000152587890625</AltitudeMeters>
            <DistanceMeters>NAN</DistanceMeters>
          </Trackpoint>
          <Trackpoint>
            <Time>2022-07-15T08:16:59.000Z</Time>
            <Position>
              <LatitudeDegrees>43.37779856286942958831787109375</LatitudeDegrees>
              <LongitudeDegrees>-4.40713704563677310943603515625</LongitudeDegrees>
            </Position>
            <AltitudeMeters>39.40000152587890625</AltitudeMeters>
            <DistanceMeters>NAN</DistanceMeters>
          </Trackpoint>
          <Trackpoint>
            <Time>2022-07-15T08:17:01.000Z</Time>
            <Position>
              <LatitudeDegrees>43.3777146600186824798583984375</LatitudeDegrees>
              <LongitudeDegrees>-4.40717627294361591339111328125</LongitudeDegrees>
            </Position>
            <AltitudeMeters>39.40000152587890625</AltitudeMeters>
            <DistanceMeters>NAN</DistanceMeters>
          </Trackpoint>
          <Trackpoint>
            <Time>2022-07-15T08:17:04.000Z</Time>
            <Position>
              <LatitudeDegrees>43.37757174856960773468017578125</LatitudeDegrees>
              <LongitudeDegrees>-4.40726168453693389892578125</LongitudeDegrees>
            </Position>
            <AltitudeMeters>38.59999847412109375</AltitudeMeters>
            <DistanceMeters>NAN</DistanceMeters>
          </Trackpoint>
          <Trackpoint>
            <Time>2022-07-15T08:17:11.000Z</Time>
            <Position>
              <LatitudeDegrees>43.37731241248548030853271484375</LatitudeDegrees>
              <LongitudeDegrees>-4.4074594974517822265625</LongitudeDegrees>
            </Position>
            <AltitudeMeters>38.799999237060546875</AltitudeMeters>
            <DistanceMeters>NAN</DistanceMeters>
          </Trackpoint>
          <Trackpoint>
            <Time>2022-07-15T08:17:14.000Z</Time>
            <Position>
              <LatitudeDegrees>43.377230353653430938720703125</LatitudeDegrees>
              <LongitudeDegrees>-4.40754876472055912017822265625</LongitudeDegrees>
            </Position>
            <AltitudeMeters>39.200000762939453125</AltitudeMeters>
            <DistanceMeters>NAN</DistanceMeters>
          </Trackpoint>
          <Trackpoint>
            <Time>2022-07-15T08:17:17.000Z</Time>
            <Position>
              <LatitudeDegrees>43.3771721832454204559326171875</LatitudeDegrees>
              <LongitudeDegrees>-4.40761531703174114227294921875</LongitudeDegrees>
            </Position>
            <AltitudeMeters>40</AltitudeMeters>
            <DistanceMeters>NAN</DistanceMeters>
          </Trackpoint>
          <Trackpoint>
            <Time>2022-07-15T08:17:20.000Z</Time>
            <Position>
              <LatitudeDegrees>43.37712197564542293548583984375</LatitudeDegrees>
              <LongitudeDegrees>-4.40767633728682994842529296875</LongitudeDegrees>
            </Position>
            <AltitudeMeters>40.40000152587890625</AltitudeMeters>
            <DistanceMeters>NAN</DistanceMeters>
          </Trackpoint>
          <Trackpoint>
            <Time>2022-07-15T08:17:23.000Z</Time>
            <Position>
              <LatitudeDegrees>43.37706447578966617584228515625</LatitudeDegrees>
              <LongitudeDegrees>-4.4077288918197154998779296875</LongitudeDegrees>
            </Position>
            <AltitudeMeters>40.799999237060546875</AltitudeMeters>
            <DistanceMeters>NAN</DistanceMeters>
          </Trackpoint>
          <Trackpoint>
            <Time>2022-07-15T08:17:24.000Z</Time>
            <Position>
              <LatitudeDegrees>43.37705223821103572845458984375</LatitudeDegrees>
              <LongitudeDegrees>-4.4077423028647899627685546875</LongitudeDegrees>
            </Position>
            <AltitudeMeters>41</AltitudeMeters>
            <DistanceMeters>NAN</DistanceMeters>
          </Trackpoint>
          <Trackpoint>
            <Time>2022-07-15T08:17:27.000Z</Time>
            <Position>
              <LatitudeDegrees>43.37699222378432750701904296875</LatitudeDegrees>
              <LongitudeDegrees>-4.40779200755059719085693359375</LongitudeDegrees>
            </Position>
            <AltitudeMeters>41.200000762939453125</AltitudeMeters>
            <DistanceMeters>NAN</DistanceMeters>
          </Trackpoint>
          <Trackpoint>
            <Time>2022-07-15T08:17:30.000Z</Time>
            <Position>
              <LatitudeDegrees>43.37692349217832088470458984375</LatitudeDegrees>
              <LongitudeDegrees>-4.4078308157622814178466796875</LongitudeDegrees>
            </Position>
            <AltitudeMeters>41.59999847412109375</AltitudeMeters>
            <DistanceMeters>NAN</DistanceMeters>
          </Trackpoint>
          <Trackpoint>
            <Time>2022-07-15T08:17:31.000Z</Time>
            <Position>
              <LatitudeDegrees>43.37689097039401531219482421875</LatitudeDegrees>
              <LongitudeDegrees>-4.407846070826053619384765625</LongitudeDegrees>
            </Position>
            <AltitudeMeters>41.59999847412109375</AltitudeMeters>
            <DistanceMeters>NAN</DistanceMeters>
          </Trackpoint>
          <Trackpoint>
            <Time>2022-07-15T08:17:34.000Z</Time>
            <Position>
              <LatitudeDegrees>43.3767852745950222015380859375</LatitudeDegrees>
              <LongitudeDegrees>-4.4078911654651165008544921875</LongitudeDegrees>
            </Position>
            <AltitudeMeters>41.40000152587890625</AltitudeMeters>
            <DistanceMeters>NAN</DistanceMeters>
          </Trackpoint>
          <Trackpoint>
            <Time>2022-07-15T08:17:36.000Z</Time>
            <Position>
              <LatitudeDegrees>43.37670321576297283172607421875</LatitudeDegrees>
              <LongitudeDegrees>-4.40792611800134181976318359375</LongitudeDegrees>
            </Position>
            <AltitudeMeters>41.200000762939453125</AltitudeMeters>
            <DistanceMeters>NAN</DistanceMeters>
          </Trackpoint>
          <Trackpoint>
            <Time>2022-07-15T08:17:40.000Z</Time>
            <Position>
              <LatitudeDegrees>43.3765535987913608551025390625</LatitudeDegrees>
              <LongitudeDegrees>-4.40802988596260547637939453125</LongitudeDegrees>
            </Position>
            <AltitudeMeters>40.59999847412109375</AltitudeMeters>
            <DistanceMeters>NAN</DistanceMeters>
          </Trackpoint>
          <Trackpoint>
            <Time>2022-07-15T08:17:42.000Z</Time>
            <Position>
              <LatitudeDegrees>43.3764905668795108795166015625</LatitudeDegrees>
              <LongitudeDegrees>-4.4081151299178600311279296875</LongitudeDegrees>
            </Position>
            <AltitudeMeters>40.40000152587890625</AltitudeMeters>
            <DistanceMeters>NAN</DistanceMeters>
          </Trackpoint>
          <Trackpoint>
            <Time>2022-07-15T08:17:44.000Z</Time>
            <Position>
              <LatitudeDegrees>43.3764446340501308441162109375</LatitudeDegrees>
              <LongitudeDegrees>-4.4082063250243663787841796875</LongitudeDegrees>
            </Position>
            <AltitudeMeters>40.40000152587890625</AltitudeMeters>
            <DistanceMeters>NAN</DistanceMeters>
          </Trackpoint>
          <Trackpoint>
            <Time>2022-07-15T08:17:47.000Z</Time>
            <Position>
              <LatitudeDegrees>43.37637699209153652191162109375</LatitudeDegrees>
              <LongitudeDegrees>-4.40835175104439258575439453125</LongitudeDegrees>
            </Position>
            <AltitudeMeters>40.59999847412109375</AltitudeMeters>
            <DistanceMeters>NAN</DistanceMeters>
          </Trackpoint>
          <Trackpoint>
            <Time>2022-07-15T08:17:50.000Z</Time>
            <Position>
              <LatitudeDegrees>43.37632368318736553192138671875</LatitudeDegrees>
              <LongitudeDegrees>-4.4084800779819488525390625</LongitudeDegrees>
            </Position>
            <AltitudeMeters>40.59999847412109375</AltitudeMeters>
            <DistanceMeters>NAN</DistanceMeters>
          </Trackpoint>
          <Trackpoint>
            <Time>2022-07-15T08:17:55.000Z</Time>
            <Position>
              <LatitudeDegrees>43.37625034153461456298828125</LatitudeDegrees>
              <LongitudeDegrees>-4.40866473130881786346435546875</LongitudeDegrees>
            </Position>
            <AltitudeMeters>41</AltitudeMeters>
            <DistanceMeters>NAN</DistanceMeters>
          </Trackpoint>
          <Trackpoint>
            <Time>2022-07-15T08:18:01.000Z</Time>
            <Position>
              <LatitudeDegrees>43.37619611062109470367431640625</LatitudeDegrees>
              <LongitudeDegrees>-4.4088591076433658599853515625</LongitudeDegrees>
            </Position>
            <AltitudeMeters>41.59999847412109375</AltitudeMeters>
            <DistanceMeters>NAN</DistanceMeters>
          </Trackpoint>
          <Trackpoint>
            <Time>2022-07-15T08:18:02.000Z</Time>
            <Position>
              <LatitudeDegrees>43.37618437595665454864501953125</LatitudeDegrees>
              <LongitudeDegrees>-4.40888601355254650115966796875</LongitudeDegrees>
            </Position>
            <AltitudeMeters>41.799999237060546875</AltitudeMeters>
            <DistanceMeters>NAN</DistanceMeters>
          </Trackpoint>
          <Trackpoint>
            <Time>2022-07-15T08:18:05.000Z</Time>
            <Position>
              <LatitudeDegrees>43.3761544525623321533203125</LatitudeDegrees>
              <LongitudeDegrees>-4.4089858420193195343017578125</LongitudeDegrees>
            </Position>
            <AltitudeMeters>41.799999237060546875</AltitudeMeters>
            <DistanceMeters>NAN</DistanceMeters>
          </Trackpoint>
          <Trackpoint>
            <Time>2022-07-15T08:18:07.000Z</Time>
            <Position>
              <LatitudeDegrees>43.37612452916800975799560546875</LatitudeDegrees>
              <LongitudeDegrees>-4.40904661081731319427490234375</LongitudeDegrees>
            </Position>
            <AltitudeMeters>42</AltitudeMeters>
            <DistanceMeters>NAN</DistanceMeters>
          </Trackpoint>
          <Trackpoint>
            <Time>2022-07-15T08:18:11.000Z</Time>
            <Position>
              <LatitudeDegrees>43.37605646811425685882568359375</LatitudeDegrees>
              <LongitudeDegrees>-4.409159012138843536376953125</LongitudeDegrees>
            </Position>
            <AltitudeMeters>42.200000762939453125</AltitudeMeters>
            <DistanceMeters>NAN</DistanceMeters>
          </Trackpoint>
          <Trackpoint>
            <Time>2022-07-15T08:18:18.000Z</Time>
            <Position>
              <LatitudeDegrees>43.37588564492762088775634765625</LatitudeDegrees>
              <LongitudeDegrees>-4.4093479402363300323486328125</LongitudeDegrees>
            </Position>
            <AltitudeMeters>42.200000762939453125</AltitudeMeters>
            <DistanceMeters>NAN</DistanceMeters>
          </Trackpoint>
          <Trackpoint>
            <Time>2022-07-15T08:18:21.000Z</Time>
            <Position>
              <LatitudeDegrees>43.37581582367420196533203125</LatitudeDegrees>
              <LongitudeDegrees>-4.40946419723331928253173828125</LongitudeDegrees>
            </Position>
            <AltitudeMeters>42</AltitudeMeters>
            <DistanceMeters>NAN</DistanceMeters>
          </Trackpoint>
          <Trackpoint>
            <Time>2022-07-15T08:18:24.000Z</Time>
            <Position>
              <LatitudeDegrees>43.3757160790264606475830078125</LatitudeDegrees>
              <LongitudeDegrees>-4.40961406566202640533447265625</LongitudeDegrees>
            </Position>
            <AltitudeMeters>41.59999847412109375</AltitudeMeters>
            <DistanceMeters>NAN</DistanceMeters>
          </Trackpoint>
          <Trackpoint>
            <Time>2022-07-15T08:18:27.000Z</Time>
            <Position>
              <LatitudeDegrees>43.3755866624414920806884765625</LatitudeDegrees>
              <LongitudeDegrees>-4.4097502715885639190673828125</LongitudeDegrees>
            </Position>
            <AltitudeMeters>40.799999237060546875</AltitudeMeters>
            <DistanceMeters>NAN</DistanceMeters>
          </Trackpoint>
          <Trackpoint>
            <Time>2022-07-15T08:18:29.000Z</Time>
            <Position>
              <LatitudeDegrees>43.37547426111996173858642578125</LatitudeDegrees>
              <LongitudeDegrees>-4.40985010005533695220947265625</LongitudeDegrees>
            </Position>
            <AltitudeMeters>40.59999847412109375</AltitudeMeters>
            <DistanceMeters>NAN</DistanceMeters>
          </Trackpoint>
          <Trackpoint>
            <Time>2022-07-15T08:18:32.000Z</Time>
            <Position>
              <LatitudeDegrees>43.3753372170031070709228515625</LatitudeDegrees>
              <LongitudeDegrees>-4.40994389355182647705078125</LongitudeDegrees>
            </Position>
            <AltitudeMeters>39.59999847412109375</AltitudeMeters>
            <DistanceMeters>NAN</DistanceMeters>
          </Trackpoint>
          <Trackpoint>
            <Time>2022-07-15T08:18:34.000Z</Time>
            <Position>
              <LatitudeDegrees>43.3752590976655483245849609375</LatitudeDegrees>
              <LongitudeDegrees>-4.40998052246868610382080078125</LongitudeDegrees>
            </Position>
            <AltitudeMeters>39.200000762939453125</AltitudeMeters>
            <DistanceMeters>NAN</DistanceMeters>
          </Trackpoint>
          <Trackpoint>
            <Time>2022-07-15T08:18:38.000Z</Time>
            <Position>
              <LatitudeDegrees>43.37516211904585361480712890625</LatitudeDegrees>
              <LongitudeDegrees>-4.41002746112644672393798828125</LongitudeDegrees>
            </Position>
            <AltitudeMeters>38.59999847412109375</AltitudeMeters>
            <DistanceMeters>NAN</DistanceMeters>
          </Trackpoint>
          <Trackpoint>
            <Time>2022-07-15T08:18:40.000Z</Time>
            <Position>
              <LatitudeDegrees>43.3751176111400127410888671875</LatitudeDegrees>
              <LongitudeDegrees>-4.41006551496684551239013671875</LongitudeDegrees>
            </Position>
            <AltitudeMeters>38.59999847412109375</AltitudeMeters>
            <DistanceMeters>NAN</DistanceMeters>
          </Trackpoint>
          <Trackpoint>
            <Time>2022-07-15T08:18:49.000Z</Time>
            <Position>
              <LatitudeDegrees>43.37486632168292999267578125</LatitudeDegrees>
              <LongitudeDegrees>-4.41024891100823879241943359375</LongitudeDegrees>
            </Position>
            <AltitudeMeters>38.59999847412109375</AltitudeMeters>
            <DistanceMeters>NAN</DistanceMeters>
          </Trackpoint>
          <Trackpoint>
            <Time>2022-07-15T08:18:56.000Z</Time>
            <Position>
              <LatitudeDegrees>43.3747270144522190093994140625</LatitudeDegrees>
              <LongitudeDegrees>-4.4103963486850261688232421875</LongitudeDegrees>
            </Position>
            <AltitudeMeters>39.200000762939453125</AltitudeMeters>
            <DistanceMeters>NAN</DistanceMeters>
          </Trackpoint>
          <Trackpoint>
            <Time>2022-07-15T08:18:59.000Z</Time>
            <Position>
              <LatitudeDegrees>43.37468703277409076690673828125</LatitudeDegrees>
              <LongitudeDegrees>-4.410434402525424957275390625</LongitudeDegrees>
            </Position>
            <AltitudeMeters>39.59999847412109375</AltitudeMeters>
            <DistanceMeters>NAN</DistanceMeters>
          </Trackpoint>
          <Trackpoint>
            <Time>2022-07-15T08:19:02.000Z</Time>
            <Position>
              <LatitudeDegrees>43.3746401779353618621826171875</LatitudeDegrees>
              <LongitudeDegrees>-4.41047019325196743011474609375</LongitudeDegrees>
            </Position>
            <AltitudeMeters>40</AltitudeMeters>
            <DistanceMeters>NAN</DistanceMeters>
          </Trackpoint>
          <Trackpoint>
            <Time>2022-07-15T08:19:03.000Z</Time>
            <Position>
              <LatitudeDegrees>43.37462903000414371490478515625</LatitudeDegrees>
              <LongitudeDegrees>-4.41047622822225093841552734375</LongitudeDegrees>
            </Position>
            <AltitudeMeters>40.200000762939453125</AltitudeMeters>
            <DistanceMeters>NAN</DistanceMeters>
          </Trackpoint>
          <Trackpoint>
            <Time>2022-07-15T08:19:08.000Z</Time>
            <Position>
              <LatitudeDegrees>43.37458125315606594085693359375</LatitudeDegrees>
              <LongitudeDegrees>-4.41054194234311580657958984375</LongitudeDegrees>
            </Position>
            <AltitudeMeters>40.59999847412109375</AltitudeMeters>
            <DistanceMeters>NAN</DistanceMeters>
          </Trackpoint>
          <Trackpoint>
            <Time>2022-07-15T08:19:09.000Z</Time>
            <Position>
              <LatitudeDegrees>43.37457303889095783233642578125</LatitudeDegrees>
              <LongitudeDegrees>-4.41055635921657085418701171875</LongitudeDegrees>
            </Position>
            <AltitudeMeters>40.799999237060546875</AltitudeMeters>
            <DistanceMeters>NAN</DistanceMeters>
          </Trackpoint>
          <Trackpoint>
            <Time>2022-07-15T08:19:15.000Z</Time>
            <Position>
              <LatitudeDegrees>43.37451386265456676483154296875</LatitudeDegrees>
              <LongitudeDegrees>-4.41060363315045833587646484375</LongitudeDegrees>
            </Position>
            <AltitudeMeters>41.799999237060546875</AltitudeMeters>
            <DistanceMeters>NAN</DistanceMeters>
          </Trackpoint>
          <Trackpoint>
            <Time>2022-07-15T08:19:16.000Z</Time>
            <Position>
              <LatitudeDegrees>43.3745048940181732177734375</LatitudeDegrees>
              <LongitudeDegrees>-4.4106177985668182373046875</LongitudeDegrees>
            </Position>
            <AltitudeMeters>42</AltitudeMeters>
            <DistanceMeters>NAN</DistanceMeters>
          </Trackpoint>
          <Trackpoint>
            <Time>2022-07-15T08:19:19.000Z</Time>
            <Position>
              <LatitudeDegrees>43.3744772337377071380615234375</LatitudeDegrees>
              <LongitudeDegrees>-4.4106404297053813934326171875</LongitudeDegrees>
            </Position>
            <AltitudeMeters>42.40000152587890625</AltitudeMeters>
            <DistanceMeters>NAN</DistanceMeters>
          </Trackpoint>
          <Trackpoint>
            <Time>2022-07-15T08:19:21.000Z</Time>
            <Position>
              <LatitudeDegrees>43.3744500763714313507080078125</LatitudeDegrees>
              <LongitudeDegrees>-4.41065040417015552520751953125</LongitudeDegrees>
            </Position>
            <AltitudeMeters>42.799999237060546875</AltitudeMeters>
            <DistanceMeters>NAN</DistanceMeters>
          </Trackpoint>
          <Trackpoint>
            <Time>2022-07-15T08:19:22.000Z</Time>
            <Position>
              <LatitudeDegrees>43.37443758733570575714111328125</LatitudeDegrees>
              <LongitudeDegrees>-4.41065878607332706451416015625</LongitudeDegrees>
            </Position>
            <AltitudeMeters>43</AltitudeMeters>
            <DistanceMeters>NAN</DistanceMeters>
          </Trackpoint>
          <Trackpoint>
            <Time>2022-07-15T08:19:24.000Z</Time>
            <Position>
              <LatitudeDegrees>43.374420739710330963134765625</LatitudeDegrees>
              <LongitudeDegrees>-4.4106816686689853668212890625</LongitudeDegrees>
            </Position>
            <AltitudeMeters>43.59999847412109375</AltitudeMeters>
            <DistanceMeters>NAN</DistanceMeters>
          </Trackpoint>
          <Trackpoint>
            <Time>2022-07-15T08:19:27.000Z</Time>
            <Position>
              <LatitudeDegrees>43.37439534254372119903564453125</LatitudeDegrees>
              <LongitudeDegrees>-4.41070823930203914642333984375</LongitudeDegrees>
            </Position>
            <AltitudeMeters>44</AltitudeMeters>
            <DistanceMeters>NAN</DistanceMeters>
          </Trackpoint>
          <Trackpoint>
            <Time>2022-07-15T08:19:29.000Z</Time>
            <Position>
              <LatitudeDegrees>43.3743759803473949432373046875</LatitudeDegrees>
              <LongitudeDegrees>-4.4107222370803356170654296875</LongitudeDegrees>
            </Position>
            <AltitudeMeters>44.40000152587890625</AltitudeMeters>
            <DistanceMeters>NAN</DistanceMeters>
          </Trackpoint>
          <Trackpoint>
            <Time>2022-07-15T08:19:30.000Z</Time>
            <Position>
              <LatitudeDegrees>43.37436500005424022674560546875</LatitudeDegrees>
              <LongitudeDegrees>-4.41072299145162105560302734375</LongitudeDegrees>
            </Position>
            <AltitudeMeters>44.59999847412109375</AltitudeMeters>
            <DistanceMeters>NAN</DistanceMeters>
          </Trackpoint>
          <Trackpoint>
            <Time>2022-07-15T08:19:32.000Z</Time>
            <Position>
              <LatitudeDegrees>43.37434060871601104736328125</LatitudeDegrees>
              <LongitudeDegrees>-4.410721398890018463134765625</LongitudeDegrees>
            </Position>
            <AltitudeMeters>45</AltitudeMeters>
            <DistanceMeters>NAN</DistanceMeters>
          </Trackpoint>
          <Trackpoint>
            <Time>2022-07-15T08:19:35.000Z</Time>
            <Position>
              <LatitudeDegrees>43.37429341860115528106689453125</LatitudeDegrees>
              <LongitudeDegrees>-4.4107210636138916015625</LongitudeDegrees>
            </Position>
            <AltitudeMeters>45.59999847412109375</AltitudeMeters>
            <DistanceMeters>NAN</DistanceMeters>
          </Trackpoint>
          <Trackpoint>
            <Time>2022-07-15T08:19:37.000Z</Time>
            <Position>
              <LatitudeDegrees>43.37426173500716686248779296875</LatitudeDegrees>
              <LongitudeDegrees>-4.41071636974811553955078125</LongitudeDegrees>
            </Position>
            <AltitudeMeters>46</AltitudeMeters>
            <DistanceMeters>NAN</DistanceMeters>
          </Trackpoint>
          <Trackpoint>
            <Time>2022-07-15T08:19:39.000Z</Time>
            <Position>
              <LatitudeDegrees>43.37423273362219333648681640625</LatitudeDegrees>
              <LongitudeDegrees>-4.410716705024242401123046875</LongitudeDegrees>
            </Position>
            <AltitudeMeters>46.40000152587890625</AltitudeMeters>
            <DistanceMeters>NAN</DistanceMeters>
          </Trackpoint>
          <Trackpoint>
            <Time>2022-07-15T08:19:42.000Z</Time>
            <Position>
              <LatitudeDegrees>43.37420591153204441070556640625</LatitudeDegrees>
              <LongitudeDegrees>-4.41071695648133754730224609375</LongitudeDegrees>
            </Position>
            <AltitudeMeters>46.799999237060546875</AltitudeMeters>
            <DistanceMeters>NAN</DistanceMeters>
          </Trackpoint>
          <Trackpoint>
            <Time>2022-07-15T08:19:43.000Z</Time>
            <Position>
              <LatitudeDegrees>43.3741937577724456787109375</LatitudeDegrees>
              <LongitudeDegrees>-4.41071528010070323944091796875</LongitudeDegrees>
            </Position>
            <AltitudeMeters>47</AltitudeMeters>
            <DistanceMeters>NAN</DistanceMeters>
          </Trackpoint>
          <Trackpoint>
            <Time>2022-07-15T08:19:44.000Z</Time>
            <Position>
              <LatitudeDegrees>43.374184705317020416259765625</LatitudeDegrees>
              <LongitudeDegrees>-4.4107202254235744476318359375</LongitudeDegrees>
            </Position>
            <AltitudeMeters>47.200000762939453125</AltitudeMeters>
            <DistanceMeters>NAN</DistanceMeters>
          </Trackpoint>
          <Trackpoint>
            <Time>2022-07-15T08:19:48.000Z</Time>
            <Position>
              <LatitudeDegrees>43.37414346635341644287109375</LatitudeDegrees>
              <LongitudeDegrees>-4.41070220433175563812255859375</LongitudeDegrees>
            </Position>
            <AltitudeMeters>48</AltitudeMeters>
            <DistanceMeters>NAN</DistanceMeters>
          </Trackpoint>
          <Trackpoint>
            <Time>2022-07-15T08:19:50.000Z</Time>
            <Position>
              <LatitudeDegrees>43.3741111122071743011474609375</LatitudeDegrees>
              <LongitudeDegrees>-4.41069432534277439117431640625</LongitudeDegrees>
            </Position>
            <AltitudeMeters>48.200000762939453125</AltitudeMeters>
            <DistanceMeters>NAN</DistanceMeters>
          </Trackpoint>
          <Trackpoint>
            <Time>2022-07-15T08:19:54.000Z</Time>
            <Position>
              <LatitudeDegrees>43.3740561269223690032958984375</LatitudeDegrees>
              <LongitudeDegrees>-4.41068627871572971343994140625</LongitudeDegrees>
            </Position>
            <AltitudeMeters>48.799999237060546875</AltitudeMeters>
            <DistanceMeters>NAN</DistanceMeters>
          </Trackpoint>
          <Trackpoint>
            <Time>2022-07-15T08:19:58.000Z</Time>
            <Position>
              <LatitudeDegrees>43.37401363067328929901123046875</LatitudeDegrees>
              <LongitudeDegrees>-4.41065710969269275665283203125</LongitudeDegrees>
            </Position>
            <AltitudeMeters>49.40000152587890625</AltitudeMeters>
            <DistanceMeters>NAN</DistanceMeters>
          </Trackpoint>
          <Trackpoint>
            <Time>2022-07-15T08:19:59.000Z</Time>
            <Position>
              <LatitudeDegrees>43.37399720214307308197021484375</LatitudeDegrees>
              <LongitudeDegrees>-4.41065224818885326385498046875</LongitudeDegrees>
            </Position>
            <AltitudeMeters>49.59999847412109375</AltitudeMeters>
            <DistanceMeters>NAN</DistanceMeters>
          </Trackpoint>
          <Trackpoint>
            <Time>2022-07-15T08:20:03.000Z</Time>
            <Position>
              <LatitudeDegrees>43.3739443123340606689453125</LatitudeDegrees>
              <LongitudeDegrees>-4.41063783131539821624755859375</LongitudeDegrees>
            </Position>
            <AltitudeMeters>50</AltitudeMeters>
            <DistanceMeters>NAN</DistanceMeters>
          </Trackpoint>
          <Trackpoint>
            <Time>2022-07-15T08:20:06.000Z</Time>
            <Position>
              <LatitudeDegrees>43.37390366010367870330810546875</LatitudeDegrees>
              <LongitudeDegrees>-4.41061955876648426055908203125</LongitudeDegrees>
            </Position>
            <AltitudeMeters>50.200000762939453125</AltitudeMeters>
            <DistanceMeters>NAN</DistanceMeters>
          </Trackpoint>
          <Trackpoint>
            <Time>2022-07-15T08:20:08.000Z</Time>
            <Position>
              <LatitudeDegrees>43.37387801147997379302978515625</LatitudeDegrees>
              <LongitudeDegrees>-4.41060681827366352081298828125</LongitudeDegrees>
            </Position>
            <AltitudeMeters>50.40000152587890625</AltitudeMeters>
            <DistanceMeters>NAN</DistanceMeters>
          </Trackpoint>
          <Trackpoint>
            <Time>2022-07-15T08:20:11.000Z</Time>
            <Position>
              <LatitudeDegrees>43.3738370239734649658203125</LatitudeDegrees>
              <LongitudeDegrees>-4.41059977747499942779541015625</LongitudeDegrees>
            </Position>
            <AltitudeMeters>50.40000152587890625</AltitudeMeters>
            <DistanceMeters>NAN</DistanceMeters>
          </Trackpoint>
          <Trackpoint>
            <Time>2022-07-15T08:20:12.000Z</Time>
            <Position>
              <LatitudeDegrees>43.37382026016712188720703125</LatitudeDegrees>
              <LongitudeDegrees>-4.41059977747499942779541015625</LongitudeDegrees>
            </Position>
            <AltitudeMeters>50.40000152587890625</AltitudeMeters>
            <DistanceMeters>NAN</DistanceMeters>
          </Trackpoint>
          <Trackpoint>
            <Time>2022-07-15T08:20:18.000Z</Time>
            <Position>
              <LatitudeDegrees>43.37368405424058437347412109375</LatitudeDegrees>
              <LongitudeDegrees>-4.4106538407504558563232421875</LongitudeDegrees>
            </Position>
            <AltitudeMeters>50.40000152587890625</AltitudeMeters>
            <DistanceMeters>NAN</DistanceMeters>
          </Trackpoint>
          <Trackpoint>
            <Time>2022-07-15T08:20:23.000Z</Time>
            <Position>
              <LatitudeDegrees>43.3734724111855030059814453125</LatitudeDegrees>
              <LongitudeDegrees>-4.41076037473976612091064453125</LongitudeDegrees>
            </Position>
            <AltitudeMeters>49.59999847412109375</AltitudeMeters>
            <DistanceMeters>NAN</DistanceMeters>
          </Trackpoint>
          <Trackpoint>
            <Time>2022-07-15T08:20:25.000Z</Time>
            <Position>
              <LatitudeDegrees>43.3733745105564594268798828125</LatitudeDegrees>
              <LongitudeDegrees>-4.41081334836781024932861328125</LongitudeDegrees>
            </Position>
            <AltitudeMeters>49.200000762939453125</AltitudeMeters>
            <DistanceMeters>NAN</DistanceMeters>
          </Trackpoint>
          <Trackpoint>
            <Time>2022-07-15T08:20:30.000Z</Time>
            <Position>
              <LatitudeDegrees>43.37307460606098175048828125</LatitudeDegrees>
              <LongitudeDegrees>-4.41097511909902095794677734375</LongitudeDegrees>
            </Position>
            <AltitudeMeters>48.40000152587890625</AltitudeMeters>
            <DistanceMeters>NAN</DistanceMeters>
          </Trackpoint>
          <Trackpoint>
            <Time>2022-07-15T08:20:31.000Z</Time>
            <Position>
              <LatitudeDegrees>43.3730194531381130218505859375</LatitudeDegrees>
              <LongitudeDegrees>-4.411009065806865692138671875</LongitudeDegrees>
            </Position>
            <AltitudeMeters>48.200000762939453125</AltitudeMeters>
            <DistanceMeters>NAN</DistanceMeters>
          </Trackpoint>
          <Trackpoint>
            <Time>2022-07-15T08:20:35.000Z</Time>
            <Position>
              <LatitudeDegrees>43.37279339320957660675048828125</LatitudeDegrees>
              <LongitudeDegrees>-4.41108777187764644622802734375</LongitudeDegrees>
            </Position>
            <AltitudeMeters>47.59999847412109375</AltitudeMeters>
            <DistanceMeters>NAN</DistanceMeters>
          </Trackpoint>
          <Trackpoint>
            <Time>2022-07-15T08:20:36.000Z</Time>
            <Position>
              <LatitudeDegrees>43.37274343706667423248291015625</LatitudeDegrees>
              <LongitudeDegrees>-4.4110913760960102081298828125</LongitudeDegrees>
            </Position>
            <AltitudeMeters>47.59999847412109375</AltitudeMeters>
            <DistanceMeters>NAN</DistanceMeters>
          </Trackpoint>
          <Trackpoint>
            <Time>2022-07-15T08:20:40.000Z</Time>
            <Position>
              <LatitudeDegrees>43.37256859056651592254638671875</LatitudeDegrees>
              <LongitudeDegrees>-4.41106547601521015167236328125</LongitudeDegrees>
            </Position>
            <AltitudeMeters>47.59999847412109375</AltitudeMeters>
            <DistanceMeters>NAN</DistanceMeters>
          </Trackpoint>
          <Trackpoint>
            <Time>2022-07-15T08:20:41.000Z</Time>
            <Position>
              <LatitudeDegrees>43.37253414094448089599609375</LatitudeDegrees>
              <LongitudeDegrees>-4.4110494665801525115966796875</LongitudeDegrees>
            </Position>
            <AltitudeMeters>47.59999847412109375</AltitudeMeters>
            <DistanceMeters>NAN</DistanceMeters>
          </Trackpoint>
          <Trackpoint>
            <Time>2022-07-15T08:20:46.000Z</Time>
            <Position>
              <LatitudeDegrees>43.3723961748182773590087890625</LatitudeDegrees>
              <LongitudeDegrees>-4.41093496978282928466796875</LongitudeDegrees>
            </Position>
            <AltitudeMeters>48</AltitudeMeters>
            <DistanceMeters>NAN</DistanceMeters>
          </Trackpoint>
          <Trackpoint>
            <Time>2022-07-15T08:20:49.000Z</Time>
            <Position>
              <LatitudeDegrees>43.37235032580792903900146484375</LatitudeDegrees>
              <LongitudeDegrees>-4.4108712673187255859375</LongitudeDegrees>
            </Position>
            <AltitudeMeters>48.40000152587890625</AltitudeMeters>
            <DistanceMeters>NAN</DistanceMeters>
          </Trackpoint>
          <Trackpoint>
            <Time>2022-07-15T08:20:52.000Z</Time>
            <Position>
              <LatitudeDegrees>43.372309170663356781005859375</LatitudeDegrees>
              <LongitudeDegrees>-4.41081695258617401123046875</LongitudeDegrees>
            </Position>
            <AltitudeMeters>48.799999237060546875</AltitudeMeters>
            <DistanceMeters>NAN</DistanceMeters>
          </Trackpoint>
          <Trackpoint>
            <Time>2022-07-15T08:20:54.000Z</Time>
            <Position>
              <LatitudeDegrees>43.3722815103828907012939453125</LatitudeDegrees>
              <LongitudeDegrees>-4.41078669391572475433349609375</LongitudeDegrees>
            </Position>
            <AltitudeMeters>49</AltitudeMeters>
            <DistanceMeters>NAN</DistanceMeters>
          </Trackpoint>
          <Trackpoint>
            <Time>2022-07-15T08:20:56.000Z</Time>
            <Position>
              <LatitudeDegrees>43.37225846014916896820068359375</LatitudeDegrees>
              <LongitudeDegrees>-4.410748220980167388916015625</LongitudeDegrees>
            </Position>
            <AltitudeMeters>49.200000762939453125</AltitudeMeters>
            <DistanceMeters>NAN</DistanceMeters>
          </Trackpoint>
          <Trackpoint>
            <Time>2022-07-15T08:20:58.000Z</Time>
            <Position>
              <LatitudeDegrees>43.37223851121962070465087890625</LatitudeDegrees>
              <LongitudeDegrees>-4.41071595065295696258544921875</LongitudeDegrees>
            </Position>
            <AltitudeMeters>49.40000152587890625</AltitudeMeters>
            <DistanceMeters>NAN</DistanceMeters>
          </Trackpoint>
          <Trackpoint>
            <Time>2022-07-15T08:21:00.000Z</Time>
            <Position>
              <LatitudeDegrees>43.37221956811845302581787109375</LatitudeDegrees>
              <LongitudeDegrees>-4.41067613661289215087890625</LongitudeDegrees>
            </Position>
            <AltitudeMeters>49.799999237060546875</AltitudeMeters>
            <DistanceMeters>NAN</DistanceMeters>
          </Trackpoint>
          <Trackpoint>
            <Time>2022-07-15T08:21:02.000Z</Time>
            <Position>
              <LatitudeDegrees>43.37220548652112483978271484375</LatitudeDegrees>
              <LongitudeDegrees>-4.410634897649288177490234375</LongitudeDegrees>
            </Position>
            <AltitudeMeters>50.200000762939453125</AltitudeMeters>
            <DistanceMeters>NAN</DistanceMeters>
          </Trackpoint>
          <Trackpoint>
            <Time>2022-07-15T08:21:07.000Z</Time>
            <Position>
              <LatitudeDegrees>43.3721660077571868896484375</LatitudeDegrees>
              <LongitudeDegrees>-4.410538338124752044677734375</LongitudeDegrees>
            </Position>
            <AltitudeMeters>51</AltitudeMeters>
            <DistanceMeters>NAN</DistanceMeters>
          </Trackpoint>
          <Trackpoint>
            <Time>2022-07-15T08:21:09.000Z</Time>
            <Position>
              <LatitudeDegrees>43.372148238122463226318359375</LatitudeDegrees>
              <LongitudeDegrees>-4.4104982726275920867919921875</LongitudeDegrees>
            </Position>
            <AltitudeMeters>51.40000152587890625</AltitudeMeters>
            <DistanceMeters>NAN</DistanceMeters>
          </Trackpoint>
          <Trackpoint>
            <Time>2022-07-15T08:21:14.000Z</Time>
            <Position>
              <LatitudeDegrees>43.37209266610443592071533203125</LatitudeDegrees>
              <LongitudeDegrees>-4.410400204360485076904296875</LongitudeDegrees>
            </Position>
            <AltitudeMeters>52.200000762939453125</AltitudeMeters>
            <DistanceMeters>NAN</DistanceMeters>
          </Trackpoint>
          <Trackpoint>
            <Time>2022-07-15T08:21:17.000Z</Time>
            <Position>
              <LatitudeDegrees>43.3720478229224681854248046875</LatitudeDegrees>
              <LongitudeDegrees>-4.41034664399921894073486328125</LongitudeDegrees>
            </Position>
            <AltitudeMeters>52.40000152587890625</AltitudeMeters>
            <DistanceMeters>NAN</DistanceMeters>
          </Trackpoint>
          <Trackpoint>
            <Time>2022-07-15T08:21:22.000Z</Time>
            <Position>
              <LatitudeDegrees>43.3719629980623722076416015625</LatitudeDegrees>
              <LongitudeDegrees>-4.41026441752910614013671875</LongitudeDegrees>
            </Position>
            <AltitudeMeters>52.200000762939453125</AltitudeMeters>
            <DistanceMeters>NAN</DistanceMeters>
          </Trackpoint>
          <Trackpoint>
            <Time>2022-07-15T08:21:27.000Z</Time>
            <Position>
              <LatitudeDegrees>43.3718325756490230560302734375</LatitudeDegrees>
              <LongitudeDegrees>-4.41009543836116790771484375</LongitudeDegrees>
            </Position>
            <AltitudeMeters>51.59999847412109375</AltitudeMeters>
            <DistanceMeters>NAN</DistanceMeters>
          </Trackpoint>
          <Trackpoint>
            <Time>2022-07-15T08:21:31.000Z</Time>
            <Position>
              <LatitudeDegrees>43.37173609994351863861083984375</LatitudeDegrees>
              <LongitudeDegrees>-4.4098733179271221160888671875</LongitudeDegrees>
            </Position>
            <AltitudeMeters>51</AltitudeMeters>
            <DistanceMeters>NAN</DistanceMeters>
          </Trackpoint>
          <Trackpoint>
            <Time>2022-07-15T08:21:33.000Z</Time>
            <Position>
              <LatitudeDegrees>43.371690921485424041748046875</LatitudeDegrees>
              <LongitudeDegrees>-4.40974800847470760345458984375</LongitudeDegrees>
            </Position>
            <AltitudeMeters>50.40000152587890625</AltitudeMeters>
            <DistanceMeters>NAN</DistanceMeters>
          </Trackpoint>
          <Trackpoint>
            <Time>2022-07-15T08:21:36.000Z</Time>
            <Position>
              <LatitudeDegrees>43.37161925621330738067626953125</LatitudeDegrees>
              <LongitudeDegrees>-4.40957886166870594024658203125</LongitudeDegrees>
            </Position>
            <AltitudeMeters>49.59999847412109375</AltitudeMeters>
            <DistanceMeters>NAN</DistanceMeters>
          </Trackpoint>
          <Trackpoint>
            <Time>2022-07-15T08:21:37.000Z</Time>
            <Position>
              <LatitudeDegrees>43.37158673442900180816650390625</LatitudeDegrees>
              <LongitudeDegrees>-4.4095246307551860809326171875</LongitudeDegrees>
            </Position>
            <AltitudeMeters>49.40000152587890625</AltitudeMeters>
            <DistanceMeters>NAN</DistanceMeters>
          </Trackpoint>
          <Trackpoint>
            <Time>2022-07-15T08:21:38.000Z</Time>
            <Position>
              <LatitudeDegrees>43.3715449087321758270263671875</LatitudeDegrees>
              <LongitudeDegrees>-4.40947190858423709869384765625</LongitudeDegrees>
            </Position>
            <AltitudeMeters>48.799999237060546875</AltitudeMeters>
            <DistanceMeters>NAN</DistanceMeters>
          </Trackpoint>
          <Trackpoint>
            <Time>2022-07-15T08:21:39.000Z</Time>
            <Position>
              <LatitudeDegrees>43.37149470113217830657958984375</LatitudeDegrees>
              <LongitudeDegrees>-4.40943100489675998687744140625</LongitudeDegrees>
            </Position>
            <AltitudeMeters>48.200000762939453125</AltitudeMeters>
            <DistanceMeters>NAN</DistanceMeters>
          </Trackpoint>
          <Trackpoint>
            <Time>2022-07-15T08:21:40.000Z</Time>
            <Position>
              <LatitudeDegrees>43.3714376203715801239013671875</LatitudeDegrees>
              <LongitudeDegrees>-4.409406445920467376708984375</LongitudeDegrees>
            </Position>
            <AltitudeMeters>47.799999237060546875</AltitudeMeters>
            <DistanceMeters>NAN</DistanceMeters>
          </Trackpoint>
          <Trackpoint>
            <Time>2022-07-15T08:21:41.000Z</Time>
            <Position>
              <LatitudeDegrees>43.37137274444103240966796875</LatitudeDegrees>
              <LongitudeDegrees>-4.409396387636661529541015625</LongitudeDegrees>
            </Position>
            <AltitudeMeters>47.200000762939453125</AltitudeMeters>
            <DistanceMeters>NAN</DistanceMeters>
          </Trackpoint>
          <Trackpoint>
            <Time>2022-07-15T08:21:42.000Z</Time>
            <Position>
              <LatitudeDegrees>43.37130527012050151824951171875</LatitudeDegrees>
              <LongitudeDegrees>-4.4093992374837398529052734375</LongitudeDegrees>
            </Position>
            <AltitudeMeters>46.40000152587890625</AltitudeMeters>
            <DistanceMeters>NAN</DistanceMeters>
          </Trackpoint>
          <Trackpoint>
            <Time>2022-07-15T08:21:43.000Z</Time>
            <Position>
              <LatitudeDegrees>43.3712351135909557342529296875</LatitudeDegrees>
              <LongitudeDegrees>-4.409413821995258331298828125</LongitudeDegrees>
            </Position>
            <AltitudeMeters>46</AltitudeMeters>
            <DistanceMeters>NAN</DistanceMeters>
          </Trackpoint>
          <Trackpoint>
            <Time>2022-07-15T08:21:45.000Z</Time>
            <Position>
              <LatitudeDegrees>43.37109513580799102783203125</LatitudeDegrees>
              <LongitudeDegrees>-4.40946268849074840545654296875</LongitudeDegrees>
            </Position>
            <AltitudeMeters>44.59999847412109375</AltitudeMeters>
            <DistanceMeters>NAN</DistanceMeters>
          </Trackpoint>
          <Trackpoint>
            <Time>2022-07-15T08:21:47.000Z</Time>
            <Position>
              <LatitudeDegrees>43.370965383946895599365234375</LatitudeDegrees>
              <LongitudeDegrees>-4.409517757594585418701171875</LongitudeDegrees>
            </Position>
            <AltitudeMeters>43.40000152587890625</AltitudeMeters>
            <DistanceMeters>NAN</DistanceMeters>
          </Trackpoint>
          <Trackpoint>
            <Time>2022-07-15T08:21:49.000Z</Time>
            <Position>
              <LatitudeDegrees>43.37083093822002410888671875</LatitudeDegrees>
              <LongitudeDegrees>-4.4095717370510101318359375</LongitudeDegrees>
            </Position>
            <AltitudeMeters>43</AltitudeMeters>
            <DistanceMeters>NAN</DistanceMeters>
          </Trackpoint>
          <Trackpoint>
            <Time>2022-07-15T08:21:52.000Z</Time>
            <Position>
              <LatitudeDegrees>43.37065014056861400604248046875</LatitudeDegrees>
              <LongitudeDegrees>-4.409642480313777923583984375</LongitudeDegrees>
            </Position>
            <AltitudeMeters>42.40000152587890625</AltitudeMeters>
            <DistanceMeters>NAN</DistanceMeters>
          </Trackpoint>
          <Trackpoint>
            <Time>2022-07-15T08:21:53.000Z</Time>
            <Position>
              <LatitudeDegrees>43.37059113197028636932373046875</LatitudeDegrees>
              <LongitudeDegrees>-4.40966770984232425689697265625</LongitudeDegrees>
            </Position>
            <AltitudeMeters>42.200000762939453125</AltitudeMeters>
            <DistanceMeters>NAN</DistanceMeters>
          </Trackpoint>
          <Trackpoint>
            <Time>2022-07-15T08:21:56.000Z</Time>
            <Position>
              <LatitudeDegrees>43.37041921913623809814453125</LatitudeDegrees>
              <LongitudeDegrees>-4.4097425602376461029052734375</LongitudeDegrees>
            </Position>
            <AltitudeMeters>41.59999847412109375</AltitudeMeters>
            <DistanceMeters>NAN</DistanceMeters>
          </Trackpoint>
          <Trackpoint>
            <Time>2022-07-15T08:21:59.000Z</Time>
            <Position>
              <LatitudeDegrees>43.3702470548450946807861328125</LatitudeDegrees>
              <LongitudeDegrees>-4.4097975455224514007568359375</LongitudeDegrees>
            </Position>
            <AltitudeMeters>41.40000152587890625</AltitudeMeters>
            <DistanceMeters>NAN</DistanceMeters>
          </Trackpoint>
          <Trackpoint>
            <Time>2022-07-15T08:22:00.000Z</Time>
            <Position>
              <LatitudeDegrees>43.3701843582093715667724609375</LatitudeDegrees>
              <LongitudeDegrees>-4.4097970426082611083984375</LongitudeDegrees>
            </Position>
            <AltitudeMeters>41.200000762939453125</AltitudeMeters>
            <DistanceMeters>NAN</DistanceMeters>
          </Trackpoint>
          <Trackpoint>
            <Time>2022-07-15T08:22:05.000Z</Time>
            <Position>
              <LatitudeDegrees>43.369861654937267303466796875</LatitudeDegrees>
              <LongitudeDegrees>-4.4097536243498325347900390625</LongitudeDegrees>
            </Position>
            <AltitudeMeters>40</AltitudeMeters>
            <DistanceMeters>NAN</DistanceMeters>
          </Trackpoint>
          <Trackpoint>
            <Time>2022-07-15T08:22:08.000Z</Time>
            <Position>
              <LatitudeDegrees>43.3696516044437885284423828125</LatitudeDegrees>
              <LongitudeDegrees>-4.40971791744232177734375</LongitudeDegrees>
            </Position>
            <AltitudeMeters>39</AltitudeMeters>
            <DistanceMeters>NAN</DistanceMeters>
          </Trackpoint>
          <Trackpoint>
            <Time>2022-07-15T08:22:10.000Z</Time>
            <Position>
              <LatitudeDegrees>43.369535766541957855224609375</LatitudeDegrees>
              <LongitudeDegrees>-4.40970106981694698333740234375</LongitudeDegrees>
            </Position>
            <AltitudeMeters>37.59999847412109375</AltitudeMeters>
            <DistanceMeters>NAN</DistanceMeters>
          </Trackpoint>
          <Trackpoint>
            <Time>2022-07-15T08:22:12.000Z</Time>
            <Position>
              <LatitudeDegrees>43.36946309544146060943603515625</LatitudeDegrees>
              <LongitudeDegrees>-4.40969838760793209075927734375</LongitudeDegrees>
            </Position>
            <AltitudeMeters>36.40000152587890625</AltitudeMeters>
            <DistanceMeters>NAN</DistanceMeters>
          </Trackpoint>
          <Trackpoint>
            <Time>2022-07-15T08:22:15.000Z</Time>
            <Position>
              <LatitudeDegrees>43.36942118592560291290283203125</LatitudeDegrees>
              <LongitudeDegrees>-4.40971028991043567657470703125</LongitudeDegrees>
            </Position>
            <AltitudeMeters>35.200000762939453125</AltitudeMeters>
            <DistanceMeters>NAN</DistanceMeters>
          </Trackpoint>
          <Trackpoint>
            <Time>2022-07-15T08:22:16.000Z</Time>
            <Position>
              <LatitudeDegrees>43.3694162406027317047119140625</LatitudeDegrees>
              <LongitudeDegrees>-4.40970693714916706085205078125</LongitudeDegrees>
            </Position>
            <AltitudeMeters>35</AltitudeMeters>
            <DistanceMeters>NAN</DistanceMeters>
          </Trackpoint>
          <Trackpoint>
            <Time>2022-07-15T08:22:18.000Z</Time>
            <Position>
              <LatitudeDegrees>43.3693931065499782562255859375</LatitudeDegrees>
              <LongitudeDegrees>-4.4096885807812213897705078125</LongitudeDegrees>
            </Position>
            <AltitudeMeters>34.799999237060546875</AltitudeMeters>
            <DistanceMeters>NAN</DistanceMeters>
          </Trackpoint>
          <Trackpoint>
            <Time>2022-07-15T08:22:21.000Z</Time>
            <Position>
              <LatitudeDegrees>43.369380198419094085693359375</LatitudeDegrees>
              <LongitudeDegrees>-4.40968061797320842742919921875</LongitudeDegrees>
            </Position>
            <AltitudeMeters>34.40000152587890625</AltitudeMeters>
            <DistanceMeters>NAN</DistanceMeters>
          </Trackpoint>
          <Trackpoint>
            <Time>2022-07-15T08:23:05.000Z</Time>
            <Position>
              <LatitudeDegrees>43.36931859143078327178955078125</LatitudeDegrees>
              <LongitudeDegrees>-4.4096617586910724639892578125</LongitudeDegrees>
            </Position>
            <AltitudeMeters>34.200000762939453125</AltitudeMeters>
            <DistanceMeters>NAN</DistanceMeters>
          </Trackpoint>
          <Trackpoint>
            <Time>2022-07-15T08:23:06.000Z</Time>
            <Position>
              <LatitudeDegrees>43.36929881013929843902587890625</LatitudeDegrees>
              <LongitudeDegrees>-4.4096563942730426788330078125</LongitudeDegrees>
            </Position>
            <AltitudeMeters>34.200000762939453125</AltitudeMeters>
            <DistanceMeters>NAN</DistanceMeters>
          </Trackpoint>
          <Trackpoint>
            <Time>2022-07-15T08:23:07.000Z</Time>
            <Position>
              <LatitudeDegrees>43.36927617900073528289794921875</LatitudeDegrees>
              <LongitudeDegrees>-4.40965329296886920928955078125</LongitudeDegrees>
            </Position>
            <AltitudeMeters>34.200000762939453125</AltitudeMeters>
            <DistanceMeters>NAN</DistanceMeters>
          </Trackpoint>
          <Trackpoint>
            <Time>2022-07-15T08:23:14.000Z</Time>
            <Position>
              <LatitudeDegrees>43.36914005689322948455810546875</LatitudeDegrees>
              <LongitudeDegrees>-4.409634768962860107421875</LongitudeDegrees>
            </Position>
            <AltitudeMeters>33.799999237060546875</AltitudeMeters>
            <DistanceMeters>NAN</DistanceMeters>
          </Trackpoint>
          <Trackpoint>
            <Time>2022-07-15T08:23:16.000Z</Time>
            <Position>
              <LatitudeDegrees>43.3691054396331310272216796875</LatitudeDegrees>
              <LongitudeDegrees>-4.409629404544830322265625</LongitudeDegrees>
            </Position>
            <AltitudeMeters>33.799999237060546875</AltitudeMeters>
            <DistanceMeters>NAN</DistanceMeters>
          </Trackpoint>
          <Trackpoint>
            <Time>2022-07-15T08:23:24.000Z</Time>
            <Position>
              <LatitudeDegrees>43.36894291453063488006591796875</LatitudeDegrees>
              <LongitudeDegrees>-4.40957467071712017059326171875</LongitudeDegrees>
            </Position>
            <AltitudeMeters>33.799999237060546875</AltitudeMeters>
            <DistanceMeters>NAN</DistanceMeters>
          </Trackpoint>
          <Trackpoint>
            <Time>2022-07-15T08:23:27.000Z</Time>
            <Position>
              <LatitudeDegrees>43.3688616938889026641845703125</LatitudeDegrees>
              <LongitudeDegrees>-4.4095449149608612060546875</LongitudeDegrees>
            </Position>
            <AltitudeMeters>33.200000762939453125</AltitudeMeters>
            <DistanceMeters>NAN</DistanceMeters>
          </Trackpoint>
          <Trackpoint>
            <Time>2022-07-15T08:23:32.000Z</Time>
            <Position>
              <LatitudeDegrees>43.36870101280510425567626953125</LatitudeDegrees>
              <LongitudeDegrees>-4.40953007899224758148193359375</LongitudeDegrees>
            </Position>
            <AltitudeMeters>32.40000152587890625</AltitudeMeters>
            <DistanceMeters>NAN</DistanceMeters>
          </Trackpoint>
          <Trackpoint>
            <Time>2022-07-15T08:23:34.000Z</Time>
            <Position>
              <LatitudeDegrees>43.36861677467823028564453125</LatitudeDegrees>
              <LongitudeDegrees>-4.40954332239925861358642578125</LongitudeDegrees>
            </Position>
            <AltitudeMeters>32</AltitudeMeters>
            <DistanceMeters>NAN</DistanceMeters>
          </Trackpoint>
          <Trackpoint>
            <Time>2022-07-15T08:23:36.000Z</Time>
            <Position>
              <LatitudeDegrees>43.3685140125453472137451171875</LatitudeDegrees>
              <LongitudeDegrees>-4.40956377424299716949462890625</LongitudeDegrees>
            </Position>
            <AltitudeMeters>31.3999996185302734375</AltitudeMeters>
            <DistanceMeters>NAN</DistanceMeters>
          </Trackpoint>
          <Trackpoint>
            <Time>2022-07-15T08:23:39.000Z</Time>
            <Position>
              <LatitudeDegrees>43.36834427900612354278564453125</LatitudeDegrees>
              <LongitudeDegrees>-4.40959990024566650390625</LongitudeDegrees>
            </Position>
            <AltitudeMeters>30.6000003814697265625</AltitudeMeters>
            <DistanceMeters>NAN</DistanceMeters>
          </Trackpoint>
          <Trackpoint>
            <Time>2022-07-15T08:23:41.000Z</Time>
            <Position>
              <LatitudeDegrees>43.36821083910763263702392578125</LatitudeDegrees>
              <LongitudeDegrees>-4.4096195138990879058837890625</LongitudeDegrees>
            </Position>
            <AltitudeMeters>30.200000762939453125</AltitudeMeters>
            <DistanceMeters>NAN</DistanceMeters>
          </Trackpoint>
          <Trackpoint>
            <Time>2022-07-15T08:23:42.000Z</Time>
            <Position>
              <LatitudeDegrees>43.3681452088057994842529296875</LatitudeDegrees>
              <LongitudeDegrees>-4.40961892716586589813232421875</LongitudeDegrees>
            </Position>
            <AltitudeMeters>29.799999237060546875</AltitudeMeters>
            <DistanceMeters>NAN</DistanceMeters>
          </Trackpoint>
          <Trackpoint>
            <Time>2022-07-15T08:23:43.000Z</Time>
            <Position>
              <LatitudeDegrees>43.36808226071298122406005859375</LatitudeDegrees>
              <LongitudeDegrees>-4.409609623253345489501953125</LongitudeDegrees>
            </Position>
            <AltitudeMeters>29.6000003814697265625</AltitudeMeters>
            <DistanceMeters>NAN</DistanceMeters>
          </Trackpoint>
          <Trackpoint>
            <Time>2022-07-15T08:23:45.000Z</Time>
            <Position>
              <LatitudeDegrees>43.36795804090797901153564453125</LatitudeDegrees>
              <LongitudeDegrees>-4.40957668237388134002685546875</LongitudeDegrees>
            </Position>
            <AltitudeMeters>29.3999996185302734375</AltitudeMeters>
            <DistanceMeters>NAN</DistanceMeters>
          </Trackpoint>
          <Trackpoint>
            <Time>2022-07-15T08:23:46.000Z</Time>
            <Position>
              <LatitudeDegrees>43.3678972721099853515625</LatitudeDegrees>
              <LongitudeDegrees>-4.40955773927271366119384765625</LongitudeDegrees>
            </Position>
            <AltitudeMeters>29.3999996185302734375</AltitudeMeters>
            <DistanceMeters>NAN</DistanceMeters>
          </Trackpoint>
          <Trackpoint>
            <Time>2022-07-15T08:23:48.000Z</Time>
            <Position>
              <LatitudeDegrees>43.36780079640448093414306640625</LatitudeDegrees>
              <LongitudeDegrees>-4.4095165841281414031982421875</LongitudeDegrees>
            </Position>
            <AltitudeMeters>29.6000003814697265625</AltitudeMeters>
            <DistanceMeters>NAN</DistanceMeters>
          </Trackpoint>
          <Trackpoint>
            <Time>2022-07-15T08:23:53.000Z</Time>
            <Position>
              <LatitudeDegrees>43.36762779392302036285400390625</LatitudeDegrees>
              <LongitudeDegrees>-4.40942756831645965576171875</LongitudeDegrees>
            </Position>
            <AltitudeMeters>30</AltitudeMeters>
            <DistanceMeters>NAN</DistanceMeters>
          </Trackpoint>
          <Trackpoint>
            <Time>2022-07-15T08:23:57.000Z</Time>
            <Position>
              <LatitudeDegrees>43.3675284683704376220703125</LatitudeDegrees>
              <LongitudeDegrees>-4.40938062965869903564453125</LongitudeDegrees>
            </Position>
            <AltitudeMeters>30.200000762939453125</AltitudeMeters>
            <DistanceMeters>NAN</DistanceMeters>
          </Trackpoint>
          <Trackpoint>
            <Time>2022-07-15T08:24:00.000Z</Time>
            <Position>
              <LatitudeDegrees>43.36746342480182647705078125</LatitudeDegrees>
              <LongitudeDegrees>-4.40935112535953521728515625</LongitudeDegrees>
            </Position>
            <AltitudeMeters>30.6000003814697265625</AltitudeMeters>
            <DistanceMeters>NAN</DistanceMeters>
          </Trackpoint>
          <Trackpoint>
            <Time>2022-07-15T08:24:01.000Z</Time>
            <Position>
              <LatitudeDegrees>43.3674394525587558746337890625</LatitudeDegrees>
              <LongitudeDegrees>-4.4093398936092853546142578125</LongitudeDegrees>
            </Position>
            <AltitudeMeters>30.6000003814697265625</AltitudeMeters>
            <DistanceMeters>NAN</DistanceMeters>
          </Trackpoint>
          <Trackpoint>
            <Time>2022-07-15T08:24:06.000Z</Time>
            <Position>
              <LatitudeDegrees>43.36734297685325145721435546875</LatitudeDegrees>
              <LongitudeDegrees>-4.40928901545703411102294921875</LongitudeDegrees>
            </Position>
            <AltitudeMeters>31.3999996185302734375</AltitudeMeters>
            <DistanceMeters>NAN</DistanceMeters>
          </Trackpoint>
          <Trackpoint>
            <Time>2022-07-15T08:24:07.000Z</Time>
            <Position>
              <LatitudeDegrees>43.367324285209178924560546875</LatitudeDegrees>
              <LongitudeDegrees>-4.409283064305782318115234375</LongitudeDegrees>
            </Position>
            <AltitudeMeters>31.6000003814697265625</AltitudeMeters>
            <DistanceMeters>NAN</DistanceMeters>
          </Trackpoint>
          <Trackpoint>
            <Time>2022-07-15T08:24:09.000Z</Time>
            <Position>
              <LatitudeDegrees>43.36728950031101703643798828125</LatitudeDegrees>
              <LongitudeDegrees>-4.40927023999392986297607421875</LongitudeDegrees>
            </Position>
            <AltitudeMeters>31.799999237060546875</AltitudeMeters>
            <DistanceMeters>NAN</DistanceMeters>
          </Trackpoint>
          <Trackpoint>
            <Time>2022-07-15T08:24:13.000Z</Time>
            <Position>
              <LatitudeDegrees>43.3672225289046764373779296875</LatitudeDegrees>
              <LongitudeDegrees>-4.40925297327339649200439453125</LongitudeDegrees>
            </Position>
            <AltitudeMeters>32</AltitudeMeters>
            <DistanceMeters>NAN</DistanceMeters>
          </Trackpoint>
          <Trackpoint>
            <Time>2022-07-15T08:24:15.000Z</Time>
            <Position>
              <LatitudeDegrees>43.36719260551035404205322265625</LatitudeDegrees>
              <LongitudeDegrees>-4.4092450104653835296630859375</LongitudeDegrees>
            </Position>
            <AltitudeMeters>32.40000152587890625</AltitudeMeters>
            <DistanceMeters>NAN</DistanceMeters>
          </Trackpoint>
          <Trackpoint>
            <Time>2022-07-15T08:24:16.000Z</Time>
            <Position>
              <LatitudeDegrees>43.3671744167804718017578125</LatitudeDegrees>
              <LongitudeDegrees>-4.409237802028656005859375</LongitudeDegrees>
            </Position>
            <AltitudeMeters>32.40000152587890625</AltitudeMeters>
            <DistanceMeters>NAN</DistanceMeters>
          </Trackpoint>
          <Trackpoint>
            <Time>2022-07-15T08:24:18.000Z</Time>
            <Position>
              <LatitudeDegrees>43.36714181117713451385498046875</LatitudeDegrees>
              <LongitudeDegrees>-4.40922212786972522735595703125</LongitudeDegrees>
            </Position>
            <AltitudeMeters>32.59999847412109375</AltitudeMeters>
            <DistanceMeters>NAN</DistanceMeters>
          </Trackpoint>
          <Trackpoint>
            <Time>2022-07-15T08:24:19.000Z</Time>
            <Position>
              <LatitudeDegrees>43.367127142846584320068359375</LatitudeDegrees>
              <LongitudeDegrees>-4.409218020737171173095703125</LongitudeDegrees>
            </Position>
            <AltitudeMeters>32.799999237060546875</AltitudeMeters>
            <DistanceMeters>NAN</DistanceMeters>
          </Trackpoint>
          <Trackpoint>
            <Time>2022-07-15T08:24:20.000Z</Time>
            <Position>
              <LatitudeDegrees>43.36711146868765354156494140625</LatitudeDegrees>
              <LongitudeDegrees>-4.40921626053750514984130859375</LongitudeDegrees>
            </Position>
            <AltitudeMeters>32.799999237060546875</AltitudeMeters>
            <DistanceMeters>NAN</DistanceMeters>
          </Trackpoint>
          <Trackpoint>
            <Time>2022-07-15T08:24:22.000Z</Time>
            <Position>
              <LatitudeDegrees>43.3670817129313945770263671875</LatitudeDegrees>
              <LongitudeDegrees>-4.40921139903366565704345703125</LongitudeDegrees>
            </Position>
            <AltitudeMeters>33</AltitudeMeters>
            <DistanceMeters>NAN</DistanceMeters>
          </Trackpoint>
          <Trackpoint>
            <Time>2022-07-15T08:24:24.000Z</Time>
            <Position>
              <LatitudeDegrees>43.36704642511904239654541015625</LatitudeDegrees>
              <LongitudeDegrees>-4.40920167602598667144775390625</LongitudeDegrees>
            </Position>
            <AltitudeMeters>33.200000762939453125</AltitudeMeters>
            <DistanceMeters>NAN</DistanceMeters>
          </Trackpoint>
          <Trackpoint>
            <Time>2022-07-15T08:24:27.000Z</Time>
            <Position>
              <LatitudeDegrees>43.3670072816312313079833984375</LatitudeDegrees>
              <LongitudeDegrees>-4.4092042744159698486328125</LongitudeDegrees>
            </Position>
            <AltitudeMeters>33.40000152587890625</AltitudeMeters>
            <DistanceMeters>NAN</DistanceMeters>
          </Trackpoint>
          <Trackpoint>
            <Time>2022-07-15T08:24:32.000Z</Time>
            <Position>
              <LatitudeDegrees>43.36694709956645965576171875</LatitudeDegrees>
              <LongitudeDegrees>-4.4092015922069549560546875</LongitudeDegrees>
            </Position>
            <AltitudeMeters>33.799999237060546875</AltitudeMeters>
            <DistanceMeters>NAN</DistanceMeters>
          </Trackpoint>
          <Trackpoint>
            <Time>2022-07-15T08:24:34.000Z</Time>
            <Position>
              <LatitudeDegrees>43.36691516451537609100341796875</LatitudeDegrees>
              <LongitudeDegrees>-4.40920335240662097930908203125</LongitudeDegrees>
            </Position>
            <AltitudeMeters>33.799999237060546875</AltitudeMeters>
            <DistanceMeters>NAN</DistanceMeters>
          </Trackpoint>
          <Trackpoint>
            <Time>2022-07-15T08:24:38.000Z</Time>
            <Position>
              <LatitudeDegrees>43.36683033965528011322021484375</LatitudeDegrees>
              <LongitudeDegrees>-4.4092161767184734344482421875</LongitudeDegrees>
            </Position>
            <AltitudeMeters>34</AltitudeMeters>
            <DistanceMeters>NAN</DistanceMeters>
          </Trackpoint>
          <Trackpoint>
            <Time>2022-07-15T08:24:42.000Z</Time>
            <Position>
              <LatitudeDegrees>43.3667521364986896514892578125</LatitudeDegrees>
              <LongitudeDegrees>-4.40920536406338214874267578125</LongitudeDegrees>
            </Position>
            <AltitudeMeters>34.40000152587890625</AltitudeMeters>
            <DistanceMeters>NAN</DistanceMeters>
          </Trackpoint>
          <Trackpoint>
            <Time>2022-07-15T08:24:43.000Z</Time>
            <Position>
              <LatitudeDegrees>43.36673461832106113433837890625</LatitudeDegrees>
              <LongitudeDegrees>-4.40920293331146240234375</LongitudeDegrees>
            </Position>
            <AltitudeMeters>34.40000152587890625</AltitudeMeters>
            <DistanceMeters>NAN</DistanceMeters>
          </Trackpoint>
          <Trackpoint>
            <Time>2022-07-15T08:24:49.000Z</Time>
            <Position>
              <LatitudeDegrees>43.36661048233509063720703125</LatitudeDegrees>
              <LongitudeDegrees>-4.40922908484935760498046875</LongitudeDegrees>
            </Position>
            <AltitudeMeters>34.799999237060546875</AltitudeMeters>
            <DistanceMeters>NAN</DistanceMeters>
          </Trackpoint>
          <Trackpoint>
            <Time>2022-07-15T08:24:50.000Z</Time>
            <Position>
              <LatitudeDegrees>43.36659573018550872802734375</LatitudeDegrees>
              <LongitudeDegrees>-4.4092473573982715606689453125</LongitudeDegrees>
            </Position>
            <AltitudeMeters>34.799999237060546875</AltitudeMeters>
            <DistanceMeters>NAN</DistanceMeters>
          </Trackpoint>
          <Trackpoint>
            <Time>2022-07-15T08:24:58.000Z</Time>
            <Position>
              <LatitudeDegrees>43.36649757809937000274658203125</LatitudeDegrees>
              <LongitudeDegrees>-4.40939211286604404449462890625</LongitudeDegrees>
            </Position>
            <AltitudeMeters>35.200000762939453125</AltitudeMeters>
            <DistanceMeters>NAN</DistanceMeters>
          </Trackpoint>
          <Trackpoint>
            <Time>2022-07-15T08:25:01.000Z</Time>
            <Position>
              <LatitudeDegrees>43.36646203882992267608642578125</LatitudeDegrees>
              <LongitudeDegrees>-4.4094351120293140411376953125</LongitudeDegrees>
            </Position>
            <AltitudeMeters>35.59999847412109375</AltitudeMeters>
            <DistanceMeters>NAN</DistanceMeters>
          </Trackpoint>
          <Trackpoint>
            <Time>2022-07-15T08:25:04.000Z</Time>
            <Position>
              <LatitudeDegrees>43.3664547465741634368896484375</LatitudeDegrees>
              <LongitudeDegrees>-4.4094820506870746612548828125</LongitudeDegrees>
            </Position>
            <AltitudeMeters>36</AltitudeMeters>
            <DistanceMeters>NAN</DistanceMeters>
          </Trackpoint>
          <Trackpoint>
            <Time>2022-07-15T08:25:06.000Z</Time>
            <Position>
              <LatitudeDegrees>43.36646304465830326080322265625</LatitudeDegrees>
              <LongitudeDegrees>-4.40951683558523654937744140625</LongitudeDegrees>
            </Position>
            <AltitudeMeters>36.200000762939453125</AltitudeMeters>
            <DistanceMeters>NAN</DistanceMeters>
          </Trackpoint>
          <Trackpoint>
            <Time>2022-07-15T08:25:09.000Z</Time>
            <Position>
              <LatitudeDegrees>43.3664855919778347015380859375</LatitudeDegrees>
              <LongitudeDegrees>-4.4095578230917453765869140625</LongitudeDegrees>
            </Position>
            <AltitudeMeters>36.59999847412109375</AltitudeMeters>
            <DistanceMeters>NAN</DistanceMeters>
          </Trackpoint>
          <Trackpoint>
            <Time>2022-07-15T08:25:12.000Z</Time>
            <Position>
              <LatitudeDegrees>43.3665127493441104888916015625</LatitudeDegrees>
              <LongitudeDegrees>-4.409602917730808258056640625</LongitudeDegrees>
            </Position>
            <AltitudeMeters>37.200000762939453125</AltitudeMeters>
            <DistanceMeters>NAN</DistanceMeters>
          </Trackpoint>
          <Trackpoint>
            <Time>2022-07-15T08:25:13.000Z</Time>
            <Position>
              <LatitudeDegrees>43.3665174432098865509033203125</LatitudeDegrees>
              <LongitudeDegrees>-4.409615993499755859375</LongitudeDegrees>
            </Position>
            <AltitudeMeters>37.200000762939453125</AltitudeMeters>
            <DistanceMeters>NAN</DistanceMeters>
          </Trackpoint>
          <Trackpoint>
            <Time>2022-07-15T08:25:16.000Z</Time>
            <Position>
              <LatitudeDegrees>43.36654342710971832275390625</LatitudeDegrees>
              <LongitudeDegrees>-4.40967055968940258026123046875</LongitudeDegrees>
            </Position>
            <AltitudeMeters>37.59999847412109375</AltitudeMeters>
            <DistanceMeters>NAN</DistanceMeters>
          </Trackpoint>
          <Trackpoint>
            <Time>2022-07-15T08:25:19.000Z</Time>
            <Position>
              <LatitudeDegrees>43.3665576763451099395751953125</LatitudeDegrees>
              <LongitudeDegrees>-4.40973577089607715606689453125</LongitudeDegrees>
            </Position>
            <AltitudeMeters>37.799999237060546875</AltitudeMeters>
            <DistanceMeters>NAN</DistanceMeters>
          </Trackpoint>
          <Trackpoint>
            <Time>2022-07-15T08:25:22.000Z</Time>
            <Position>
              <LatitudeDegrees>43.36656832136213779449462890625</LatitudeDegrees>
              <LongitudeDegrees>-4.40979503095149993896484375</LongitudeDegrees>
            </Position>
            <AltitudeMeters>38</AltitudeMeters>
            <DistanceMeters>NAN</DistanceMeters>
          </Trackpoint>
          <Trackpoint>
            <Time>2022-07-15T08:25:23.000Z</Time>
            <Position>
              <LatitudeDegrees>43.36657033301889896392822265625</LatitudeDegrees>
              <LongitudeDegrees>-4.40981908701360225677490234375</LongitudeDegrees>
            </Position>
            <AltitudeMeters>38.200000762939453125</AltitudeMeters>
            <DistanceMeters>NAN</DistanceMeters>
          </Trackpoint>
          <Trackpoint>
            <Time>2022-07-15T08:25:31.000Z</Time>
            <Position>
              <LatitudeDegrees>43.36662565357983112335205078125</LatitudeDegrees>
              <LongitudeDegrees>-4.40997448749840259552001953125</LongitudeDegrees>
            </Position>
            <AltitudeMeters>39</AltitudeMeters>
            <DistanceMeters>NAN</DistanceMeters>
          </Trackpoint>
          <Trackpoint>
            <Time>2022-07-15T08:25:34.000Z</Time>
            <Position>
              <LatitudeDegrees>43.3666411601006984710693359375</LatitudeDegrees>
              <LongitudeDegrees>-4.4100473262369632720947265625</LongitudeDegrees>
            </Position>
            <AltitudeMeters>39.200000762939453125</AltitudeMeters>
            <DistanceMeters>NAN</DistanceMeters>
          </Trackpoint>
          <Trackpoint>
            <Time>2022-07-15T08:25:42.000Z</Time>
            <Position>
              <LatitudeDegrees>43.366669826209545135498046875</LatitudeDegrees>
              <LongitudeDegrees>-4.41024027764797210693359375</LongitudeDegrees>
            </Position>
            <AltitudeMeters>40</AltitudeMeters>
            <DistanceMeters>NAN</DistanceMeters>
          </Trackpoint>
          <Trackpoint>
            <Time>2022-07-15T08:25:45.000Z</Time>
            <Position>
              <LatitudeDegrees>43.3666864223778247833251953125</LatitudeDegrees>
              <LongitudeDegrees>-4.4103133678436279296875</LongitudeDegrees>
            </Position>
            <AltitudeMeters>40.200000762939453125</AltitudeMeters>
            <DistanceMeters>NAN</DistanceMeters>
          </Trackpoint>
          <Trackpoint>
            <Time>2022-07-15T08:25:49.000Z</Time>
            <Position>
              <LatitudeDegrees>43.36670226417481899261474609375</LatitudeDegrees>
              <LongitudeDegrees>-4.4104131124913692474365234375</LongitudeDegrees>
            </Position>
            <AltitudeMeters>40.59999847412109375</AltitudeMeters>
            <DistanceMeters>NAN</DistanceMeters>
          </Trackpoint>
          <Trackpoint>
            <Time>2022-07-15T08:25:53.000Z</Time>
            <Position>
              <LatitudeDegrees>43.36671768687665462493896484375</LatitudeDegrees>
              <LongitudeDegrees>-4.41050112247467041015625</LongitudeDegrees>
            </Position>
            <AltitudeMeters>40.799999237060546875</AltitudeMeters>
            <DistanceMeters>NAN</DistanceMeters>
          </Trackpoint>
          <Trackpoint>
            <Time>2022-07-15T08:25:57.000Z</Time>
            <Position>
              <LatitudeDegrees>43.36673118174076080322265625</LatitudeDegrees>
              <LongitudeDegrees>-4.41060598008334636688232421875</LongitudeDegrees>
            </Position>
            <AltitudeMeters>41</AltitudeMeters>
            <DistanceMeters>NAN</DistanceMeters>
          </Trackpoint>
          <Trackpoint>
            <Time>2022-07-15T08:25:58.000Z</Time>
            <Position>
              <LatitudeDegrees>43.3667340315878391265869140625</LatitudeDegrees>
              <LongitudeDegrees>-4.41062442027032375335693359375</LongitudeDegrees>
            </Position>
            <AltitudeMeters>41</AltitudeMeters>
            <DistanceMeters>NAN</DistanceMeters>
          </Trackpoint>
          <Trackpoint>
            <Time>2022-07-15T08:26:01.000Z</Time>
            <Position>
              <LatitudeDegrees>43.36674048565328121185302734375</LatitudeDegrees>
              <LongitudeDegrees>-4.41070119850337505340576171875</LongitudeDegrees>
            </Position>
            <AltitudeMeters>41.40000152587890625</AltitudeMeters>
            <DistanceMeters>NAN</DistanceMeters>
          </Trackpoint>
          <Trackpoint>
            <Time>2022-07-15T08:26:06.000Z</Time>
            <Position>
              <LatitudeDegrees>43.366754986345767974853515625</LatitudeDegrees>
              <LongitudeDegrees>-4.41082491539418697357177734375</LongitudeDegrees>
            </Position>
            <AltitudeMeters>41.59999847412109375</AltitudeMeters>
            <DistanceMeters>NAN</DistanceMeters>
          </Trackpoint>
          <Trackpoint>
            <Time>2022-07-15T08:26:13.000Z</Time>
            <Position>
              <LatitudeDegrees>43.36678826250135898590087890625</LatitudeDegrees>
              <LongitudeDegrees>-4.4110013544559478759765625</LongitudeDegrees>
            </Position>
            <AltitudeMeters>42.200000762939453125</AltitudeMeters>
            <DistanceMeters>NAN</DistanceMeters>
          </Trackpoint>
          <Trackpoint>
            <Time>2022-07-15T08:26:14.000Z</Time>
            <Position>
              <LatitudeDegrees>43.36679362691938877105712890625</LatitudeDegrees>
              <LongitudeDegrees>-4.4110259972512722015380859375</LongitudeDegrees>
            </Position>
            <AltitudeMeters>42.40000152587890625</AltitudeMeters>
            <DistanceMeters>NAN</DistanceMeters>
          </Trackpoint>
          <Trackpoint>
            <Time>2022-07-15T08:26:22.000Z</Time>
            <Position>
              <LatitudeDegrees>43.36680653505027294158935546875</LatitudeDegrees>
              <LongitudeDegrees>-4.41118751652538776397705078125</LongitudeDegrees>
            </Position>
            <AltitudeMeters>43</AltitudeMeters>
            <DistanceMeters>NAN</DistanceMeters>
          </Trackpoint>
          <Trackpoint>
            <Time>2022-07-15T08:26:28.000Z</Time>
            <Position>
              <LatitudeDegrees>43.36683972738683223724365234375</LatitudeDegrees>
              <LongitudeDegrees>-4.4113156758248805999755859375</LongitudeDegrees>
            </Position>
            <AltitudeMeters>43.40000152587890625</AltitudeMeters>
            <DistanceMeters>NAN</DistanceMeters>
          </Trackpoint>
          <Trackpoint>
            <Time>2022-07-15T08:26:38.000Z</Time>
            <Position>
              <LatitudeDegrees>43.3668872527778148651123046875</LatitudeDegrees>
              <LongitudeDegrees>-4.41151793114840984344482421875</LongitudeDegrees>
            </Position>
            <AltitudeMeters>44.40000152587890625</AltitudeMeters>
            <DistanceMeters>NAN</DistanceMeters>
          </Trackpoint>
          <Trackpoint>
            <Time>2022-07-15T08:26:46.000Z</Time>
            <Position>
              <LatitudeDegrees>43.3669090457260608673095703125</LatitudeDegrees>
              <LongitudeDegrees>-4.41168875433504581451416015625</LongitudeDegrees>
            </Position>
            <AltitudeMeters>45.40000152587890625</AltitudeMeters>
            <DistanceMeters>NAN</DistanceMeters>
          </Trackpoint>
          <Trackpoint>
            <Time>2022-07-15T08:26:47.000Z</Time>
            <Position>
              <LatitudeDegrees>43.36691181175410747528076171875</LatitudeDegrees>
              <LongitudeDegrees>-4.411708451807498931884765625</LongitudeDegrees>
            </Position>
            <AltitudeMeters>45.40000152587890625</AltitudeMeters>
            <DistanceMeters>NAN</DistanceMeters>
          </Trackpoint>
          <Trackpoint>
            <Time>2022-07-15T08:26:50.000Z</Time>
            <Position>
              <LatitudeDegrees>43.36692832410335540771484375</LatitudeDegrees>
              <LongitudeDegrees>-4.41175832413136959075927734375</LongitudeDegrees>
            </Position>
            <AltitudeMeters>46</AltitudeMeters>
            <DistanceMeters>NAN</DistanceMeters>
          </Trackpoint>
          <Trackpoint>
            <Time>2022-07-15T08:26:53.000Z</Time>
            <Position>
              <LatitudeDegrees>43.366945423185825347900390625</LatitudeDegrees>
              <LongitudeDegrees>-4.41181481815874576568603515625</LongitudeDegrees>
            </Position>
            <AltitudeMeters>46.40000152587890625</AltitudeMeters>
            <DistanceMeters>NAN</DistanceMeters>
          </Trackpoint>
          <Trackpoint>
            <Time>2022-07-15T08:26:55.000Z</Time>
            <Position>
              <LatitudeDegrees>43.36695053614675998687744140625</LatitudeDegrees>
              <LongitudeDegrees>-4.411853961646556854248046875</LongitudeDegrees>
            </Position>
            <AltitudeMeters>46.59999847412109375</AltitudeMeters>
            <DistanceMeters>NAN</DistanceMeters>
          </Trackpoint>
          <Trackpoint>
            <Time>2022-07-15T08:27:00.000Z</Time>
            <Position>
              <LatitudeDegrees>43.36696495302021503448486328125</LatitudeDegrees>
              <LongitudeDegrees>-4.411951862275600433349609375</LongitudeDegrees>
            </Position>
            <AltitudeMeters>47.40000152587890625</AltitudeMeters>
            <DistanceMeters>NAN</DistanceMeters>
          </Trackpoint>
          <Trackpoint>
            <Time>2022-07-15T08:27:02.000Z</Time>
            <Position>
              <LatitudeDegrees>43.36697802878916263580322265625</LatitudeDegrees>
              <LongitudeDegrees>-4.411996789276599884033203125</LongitudeDegrees>
            </Position>
            <AltitudeMeters>47.59999847412109375</AltitudeMeters>
            <DistanceMeters>NAN</DistanceMeters>
          </Trackpoint>
          <Trackpoint>
            <Time>2022-07-15T08:27:03.000Z</Time>
            <Position>
              <LatitudeDegrees>43.36698238737881183624267578125</LatitudeDegrees>
              <LongitudeDegrees>-4.41203056834638118743896484375</LongitudeDegrees>
            </Position>
            <AltitudeMeters>47.59999847412109375</AltitudeMeters>
            <DistanceMeters>NAN</DistanceMeters>
          </Trackpoint>
          <Trackpoint>
            <Time>2022-07-15T08:27:07.000Z</Time>
            <Position>
              <LatitudeDegrees>43.3669952116906642913818359375</LatitudeDegrees>
              <LongitudeDegrees>-4.4121246971189975738525390625</LongitudeDegrees>
            </Position>
            <AltitudeMeters>48.200000762939453125</AltitudeMeters>
            <DistanceMeters>NAN</DistanceMeters>
          </Trackpoint>
          <Trackpoint>
            <Time>2022-07-15T08:27:08.000Z</Time>
            <Position>
              <LatitudeDegrees>43.36700133047997951507568359375</LatitudeDegrees>
              <LongitudeDegrees>-4.41214137710630893707275390625</LongitudeDegrees>
            </Position>
            <AltitudeMeters>48.40000152587890625</AltitudeMeters>
            <DistanceMeters>NAN</DistanceMeters>
          </Trackpoint>
          <Trackpoint>
            <Time>2022-07-15T08:27:09.000Z</Time>
            <Position>
              <LatitudeDegrees>43.36700535379350185394287109375</LatitudeDegrees>
              <LongitudeDegrees>-4.41215948201715946197509765625</LongitudeDegrees>
            </Position>
            <AltitudeMeters>48.59999847412109375</AltitudeMeters>
            <DistanceMeters>NAN</DistanceMeters>
          </Trackpoint>
          <Trackpoint>
            <Time>2022-07-15T08:27:14.000Z</Time>
            <Position>
              <LatitudeDegrees>43.3670119754970073699951171875</LatitudeDegrees>
              <LongitudeDegrees>-4.412234835326671600341796875</LongitudeDegrees>
            </Position>
            <AltitudeMeters>49.200000762939453125</AltitudeMeters>
            <DistanceMeters>NAN</DistanceMeters>
          </Trackpoint>
          <Trackpoint>
            <Time>2022-07-15T08:27:18.000Z</Time>
            <Position>
              <LatitudeDegrees>43.36702865548431873321533203125</LatitudeDegrees>
              <LongitudeDegrees>-4.4122946821153163909912109375</LongitudeDegrees>
            </Position>
            <AltitudeMeters>49.799999237060546875</AltitudeMeters>
            <DistanceMeters>NAN</DistanceMeters>
          </Trackpoint>
          <Trackpoint>
            <Time>2022-07-15T08:27:21.000Z</Time>
            <Position>
              <LatitudeDegrees>43.36703737266361713409423828125</LatitudeDegrees>
              <LongitudeDegrees>-4.4123540259897708892822265625</LongitudeDegrees>
            </Position>
            <AltitudeMeters>50.40000152587890625</AltitudeMeters>
            <DistanceMeters>NAN</DistanceMeters>
          </Trackpoint>
          <Trackpoint>
            <Time>2022-07-15T08:27:27.000Z</Time>
            <Position>
              <LatitudeDegrees>43.36704944260418415069580078125</LatitudeDegrees>
              <LongitudeDegrees>-4.412459470331668853759765625</LongitudeDegrees>
            </Position>
            <AltitudeMeters>50.799999237060546875</AltitudeMeters>
            <DistanceMeters>NAN</DistanceMeters>
          </Trackpoint>
          <Trackpoint>
            <Time>2022-07-15T08:27:29.000Z</Time>
            <Position>
              <LatitudeDegrees>43.3670545555651187896728515625</LatitudeDegrees>
              <LongitudeDegrees>-4.41250548698008060455322265625</LongitudeDegrees>
            </Position>
            <AltitudeMeters>51.200000762939453125</AltitudeMeters>
            <DistanceMeters>NAN</DistanceMeters>
          </Trackpoint>
          <Trackpoint>
            <Time>2022-07-15T08:27:30.000Z</Time>
            <Position>
              <LatitudeDegrees>43.3670575730502605438232421875</LatitudeDegrees>
              <LongitudeDegrees>-4.4125250168144702911376953125</LongitudeDegrees>
            </Position>
            <AltitudeMeters>51.40000152587890625</AltitudeMeters>
            <DistanceMeters>NAN</DistanceMeters>
          </Trackpoint>
          <Trackpoint>
            <Time>2022-07-15T08:27:35.000Z</Time>
            <Position>
              <LatitudeDegrees>43.3670907653868198394775390625</LatitudeDegrees>
              <LongitudeDegrees>-4.4126738794147968292236328125</LongitudeDegrees>
            </Position>
            <AltitudeMeters>51.799999237060546875</AltitudeMeters>
            <DistanceMeters>NAN</DistanceMeters>
          </Trackpoint>
          <Trackpoint>
            <Time>2022-07-15T08:27:36.000Z</Time>
            <Position>
              <LatitudeDegrees>43.3670978061854839324951171875</LatitudeDegrees>
              <LongitudeDegrees>-4.41269810311496257781982421875</LongitudeDegrees>
            </Position>
            <AltitudeMeters>52</AltitudeMeters>
            <DistanceMeters>NAN</DistanceMeters>
          </Trackpoint>
          <Trackpoint>
            <Time>2022-07-15T08:27:43.000Z</Time>
            <Position>
              <LatitudeDegrees>43.36713225580751895904541015625</LatitudeDegrees>
              <LongitudeDegrees>-4.412835650146007537841796875</LongitudeDegrees>
            </Position>
            <AltitudeMeters>53</AltitudeMeters>
            <DistanceMeters>NAN</DistanceMeters>
          </Trackpoint>
          <Trackpoint>
            <Time>2022-07-15T08:27:44.000Z</Time>
            <Position>
              <LatitudeDegrees>43.36713812313973903656005859375</LatitudeDegrees>
              <LongitudeDegrees>-4.41285165958106517791748046875</LongitudeDegrees>
            </Position>
            <AltitudeMeters>53</AltitudeMeters>
            <DistanceMeters>NAN</DistanceMeters>
          </Trackpoint>
          <Trackpoint>
            <Time>2022-07-15T08:27:52.000Z</Time>
            <Position>
              <LatitudeDegrees>43.36717106401920318603515625</LatitudeDegrees>
              <LongitudeDegrees>-4.4130098260939121246337890625</LongitudeDegrees>
            </Position>
            <AltitudeMeters>54.200000762939453125</AltitudeMeters>
            <DistanceMeters>NAN</DistanceMeters>
          </Trackpoint>
          <Trackpoint>
            <Time>2022-07-15T08:27:53.000Z</Time>
            <Position>
              <LatitudeDegrees>43.36717215366661548614501953125</LatitudeDegrees>
              <LongitudeDegrees>-4.41302617080509662628173828125</LongitudeDegrees>
            </Position>
            <AltitudeMeters>54.40000152587890625</AltitudeMeters>
            <DistanceMeters>NAN</DistanceMeters>
          </Trackpoint>
          <Trackpoint>
            <Time>2022-07-15T08:28:01.000Z</Time>
            <Position>
              <LatitudeDegrees>43.36720735765993595123291015625</LatitudeDegrees>
              <LongitudeDegrees>-4.41322381608188152313232421875</LongitudeDegrees>
            </Position>
            <AltitudeMeters>55.200000762939453125</AltitudeMeters>
            <DistanceMeters>NAN</DistanceMeters>
          </Trackpoint>
          <Trackpoint>
            <Time>2022-07-15T08:28:02.000Z</Time>
            <Position>
              <LatitudeDegrees>43.36721305735409259796142578125</LatitudeDegrees>
              <LongitudeDegrees>-4.4132428430020809173583984375</LongitudeDegrees>
            </Position>
            <AltitudeMeters>55.59999847412109375</AltitudeMeters>
            <DistanceMeters>NAN</DistanceMeters>
          </Trackpoint>
          <Trackpoint>
            <Time>2022-07-15T08:28:07.000Z</Time>
            <Position>
              <LatitudeDegrees>43.36723007261753082275390625</LatitudeDegrees>
              <LongitudeDegrees>-4.41335557959973812103271484375</LongitudeDegrees>
            </Position>
            <AltitudeMeters>56.200000762939453125</AltitudeMeters>
            <DistanceMeters>NAN</DistanceMeters>
          </Trackpoint>
          <Trackpoint>
            <Time>2022-07-15T08:28:09.000Z</Time>
            <Position>
              <LatitudeDegrees>43.367235772311687469482421875</LatitudeDegrees>
              <LongitudeDegrees>-4.4133885204792022705078125</LongitudeDegrees>
            </Position>
            <AltitudeMeters>56.200000762939453125</AltitudeMeters>
            <DistanceMeters>NAN</DistanceMeters>
          </Trackpoint>
          <Trackpoint>
            <Time>2022-07-15T08:28:18.000Z</Time>
            <Position>
              <LatitudeDegrees>43.36729109287261962890625</LatitudeDegrees>
              <LongitudeDegrees>-4.41354610025882720947265625</LongitudeDegrees>
            </Position>
            <AltitudeMeters>57.200000762939453125</AltitudeMeters>
            <DistanceMeters>NAN</DistanceMeters>
          </Trackpoint>
          <Trackpoint>
            <Time>2022-07-15T08:28:19.000Z</Time>
            <Position>
              <LatitudeDegrees>43.3672976307570934295654296875</LatitudeDegrees>
              <LongitudeDegrees>-4.41355817019939422607421875</LongitudeDegrees>
            </Position>
            <AltitudeMeters>57.40000152587890625</AltitudeMeters>
            <DistanceMeters>NAN</DistanceMeters>
          </Trackpoint>
          <Trackpoint>
            <Time>2022-07-15T08:28:28.000Z</Time>
            <Position>
              <LatitudeDegrees>43.36733400821685791015625</LatitudeDegrees>
              <LongitudeDegrees>-4.41375254653394222259521484375</LongitudeDegrees>
            </Position>
            <AltitudeMeters>58.40000152587890625</AltitudeMeters>
            <DistanceMeters>NAN</DistanceMeters>
          </Trackpoint>
          <Trackpoint>
            <Time>2022-07-15T08:28:29.000Z</Time>
            <Position>
              <LatitudeDegrees>43.36733610369265079498291015625</LatitudeDegrees>
              <LongitudeDegrees>-4.4137742556631565093994140625</LongitudeDegrees>
            </Position>
            <AltitudeMeters>58.40000152587890625</AltitudeMeters>
            <DistanceMeters>NAN</DistanceMeters>
          </Trackpoint>
          <Trackpoint>
            <Time>2022-07-15T08:28:36.000Z</Time>
            <Position>
              <LatitudeDegrees>43.367367200553417205810546875</LatitudeDegrees>
              <LongitudeDegrees>-4.4139395467936992645263671875</LongitudeDegrees>
            </Position>
            <AltitudeMeters>59.40000152587890625</AltitudeMeters>
            <DistanceMeters>NAN</DistanceMeters>
          </Trackpoint>
          <Trackpoint>
            <Time>2022-07-15T08:28:40.000Z</Time>
            <Position>
              <LatitudeDegrees>43.3673844672739505767822265625</LatitudeDegrees>
              <LongitudeDegrees>-4.41401842050254344940185546875</LongitudeDegrees>
            </Position>
            <AltitudeMeters>59.40000152587890625</AltitudeMeters>
            <DistanceMeters>NAN</DistanceMeters>
          </Trackpoint>
          <Trackpoint>
            <Time>2022-07-15T08:28:42.000Z</Time>
            <Position>
              <LatitudeDegrees>43.36738723330199718475341796875</LatitudeDegrees>
              <LongitudeDegrees>-4.41407038830220699310302734375</LongitudeDegrees>
            </Position>
            <AltitudeMeters>59.799999237060546875</AltitudeMeters>
            <DistanceMeters>NAN</DistanceMeters>
          </Trackpoint>
          <Trackpoint>
            <Time>2022-07-15T08:28:43.000Z</Time>
            <Position>
              <LatitudeDegrees>43.367392010986804962158203125</LatitudeDegrees>
              <LongitudeDegrees>-4.4140884093940258026123046875</LongitudeDegrees>
            </Position>
            <AltitudeMeters>59.799999237060546875</AltitudeMeters>
            <DistanceMeters>NAN</DistanceMeters>
          </Trackpoint>
          <Trackpoint>
            <Time>2022-07-15T08:28:47.000Z</Time>
            <Position>
              <LatitudeDegrees>43.36741254664957523345947265625</LatitudeDegrees>
              <LongitudeDegrees>-4.414158649742603302001953125</LongitudeDegrees>
            </Position>
            <AltitudeMeters>60.40000152587890625</AltitudeMeters>
            <DistanceMeters>NAN</DistanceMeters>
          </Trackpoint>
          <Trackpoint>
            <Time>2022-07-15T08:28:49.000Z</Time>
            <Position>
              <LatitudeDegrees>43.3674240298569202423095703125</LatitudeDegrees>
              <LongitudeDegrees>-4.41419863142073154449462890625</LongitudeDegrees>
            </Position>
            <AltitudeMeters>60.59999847412109375</AltitudeMeters>
            <DistanceMeters>NAN</DistanceMeters>
          </Trackpoint>
          <Trackpoint>
            <Time>2022-07-15T08:28:54.000Z</Time>
            <Position>
              <LatitudeDegrees>43.36743660271167755126953125</LatitudeDegrees>
              <LongitudeDegrees>-4.4143006391823291778564453125</LongitudeDegrees>
            </Position>
            <AltitudeMeters>61.200000762939453125</AltitudeMeters>
            <DistanceMeters>NAN</DistanceMeters>
          </Trackpoint>
          <Trackpoint>
            <Time>2022-07-15T08:28:56.000Z</Time>
            <Position>
              <LatitudeDegrees>43.36744808591902256011962890625</LatitudeDegrees>
              <LongitudeDegrees>-4.41433441825211048126220703125</LongitudeDegrees>
            </Position>
            <AltitudeMeters>61.40000152587890625</AltitudeMeters>
            <DistanceMeters>NAN</DistanceMeters>
          </Trackpoint>
          <Trackpoint>
            <Time>2022-07-15T08:28:58.000Z</Time>
            <Position>
              <LatitudeDegrees>43.3674560487270355224609375</LatitudeDegrees>
              <LongitudeDegrees>-4.4143633358180522918701171875</LongitudeDegrees>
            </Position>
            <AltitudeMeters>61.59999847412109375</AltitudeMeters>
            <DistanceMeters>NAN</DistanceMeters>
          </Trackpoint>
          <Trackpoint>
            <Time>2022-07-15T08:29:02.000Z</Time>
            <Position>
              <LatitudeDegrees>43.36745738983154296875</LatitudeDegrees>
              <LongitudeDegrees>-4.41443835385143756866455078125</LongitudeDegrees>
            </Position>
            <AltitudeMeters>62</AltitudeMeters>
            <DistanceMeters>NAN</DistanceMeters>
          </Trackpoint>
          <Trackpoint>
            <Time>2022-07-15T08:29:07.000Z</Time>
            <Position>
              <LatitudeDegrees>43.36747574619948863983154296875</LatitudeDegrees>
              <LongitudeDegrees>-4.4145262800157070159912109375</LongitudeDegrees>
            </Position>
            <AltitudeMeters>62.59999847412109375</AltitudeMeters>
            <DistanceMeters>NAN</DistanceMeters>
          </Trackpoint>
          <Trackpoint>
            <Time>2022-07-15T08:29:09.000Z</Time>
            <Position>
              <LatitudeDegrees>43.36749158799648284912109375</LatitudeDegrees>
              <LongitudeDegrees>-4.4145608134567737579345703125</LongitudeDegrees>
            </Position>
            <AltitudeMeters>62.799999237060546875</AltitudeMeters>
            <DistanceMeters>NAN</DistanceMeters>
          </Trackpoint>
          <Trackpoint>
            <Time>2022-07-15T08:29:13.000Z</Time>
            <Position>
              <LatitudeDegrees>43.36750022135674953460693359375</LatitudeDegrees>
              <LongitudeDegrees>-4.4146399386227130889892578125</LongitudeDegrees>
            </Position>
            <AltitudeMeters>63.200000762939453125</AltitudeMeters>
            <DistanceMeters>NAN</DistanceMeters>
          </Trackpoint>
          <Trackpoint>
            <Time>2022-07-15T08:29:16.000Z</Time>
            <Position>
              <LatitudeDegrees>43.36749955080449581146240234375</LatitudeDegrees>
              <LongitudeDegrees>-4.41469467245042324066162109375</LongitudeDegrees>
            </Position>
            <AltitudeMeters>63.59999847412109375</AltitudeMeters>
            <DistanceMeters>NAN</DistanceMeters>
          </Trackpoint>
          <Trackpoint>
            <Time>2022-07-15T08:29:24.000Z</Time>
            <Position>
              <LatitudeDegrees>43.3675068430602550506591796875</LatitudeDegrees>
              <LongitudeDegrees>-4.414839930832386016845703125</LongitudeDegrees>
            </Position>
            <AltitudeMeters>64.40000152587890625</AltitudeMeters>
            <DistanceMeters>NAN</DistanceMeters>
          </Trackpoint>
          <Trackpoint>
            <Time>2022-07-15T08:29:26.000Z</Time>
            <Position>
              <LatitudeDegrees>43.3675098605453968048095703125</LatitudeDegrees>
              <LongitudeDegrees>-4.41487245261669158935546875</LongitudeDegrees>
            </Position>
            <AltitudeMeters>64.59999847412109375</AltitudeMeters>
            <DistanceMeters>NAN</DistanceMeters>
          </Trackpoint>
          <Trackpoint>
            <Time>2022-07-15T08:29:27.000Z</Time>
            <Position>
              <LatitudeDegrees>43.36751631461083889007568359375</LatitudeDegrees>
              <LongitudeDegrees>-4.41488779149949550628662109375</LongitudeDegrees>
            </Position>
            <AltitudeMeters>64.8000030517578125</AltitudeMeters>
            <DistanceMeters>NAN</DistanceMeters>
          </Trackpoint>
          <Trackpoint>
            <Time>2022-07-15T08:29:28.000Z</Time>
            <Position>
              <LatitudeDegrees>43.36751715280115604400634765625</LatitudeDegrees>
              <LongitudeDegrees>-4.414905644953250885009765625</LongitudeDegrees>
            </Position>
            <AltitudeMeters>64.8000030517578125</AltitudeMeters>
            <DistanceMeters>NAN</DistanceMeters>
          </Trackpoint>
          <Trackpoint>
            <Time>2022-07-15T08:29:29.000Z</Time>
            <Position>
              <LatitudeDegrees>43.36751396767795085906982421875</LatitudeDegrees>
              <LongitudeDegrees>-4.41492668353021144866943359375</LongitudeDegrees>
            </Position>
            <AltitudeMeters>65</AltitudeMeters>
            <DistanceMeters>NAN</DistanceMeters>
          </Trackpoint>
          <Trackpoint>
            <Time>2022-07-15T08:29:38.000Z</Time>
            <Position>
              <LatitudeDegrees>43.36752469651401042938232421875</LatitudeDegrees>
              <LongitudeDegrees>-4.41511829383671283721923828125</LongitudeDegrees>
            </Position>
            <AltitudeMeters>65.59999847412109375</AltitudeMeters>
            <DistanceMeters>NAN</DistanceMeters>
          </Trackpoint>
          <Trackpoint>
            <Time>2022-07-15T08:29:40.000Z</Time>
            <Position>
              <LatitudeDegrees>43.36752503179013729095458984375</LatitudeDegrees>
              <LongitudeDegrees>-4.4151614606380462646484375</LongitudeDegrees>
            </Position>
            <AltitudeMeters>65.8000030517578125</AltitudeMeters>
            <DistanceMeters>NAN</DistanceMeters>
          </Trackpoint>
          <Trackpoint>
            <Time>2022-07-15T08:29:46.000Z</Time>
            <Position>
              <LatitudeDegrees>43.36752033792436122894287109375</LatitudeDegrees>
              <LongitudeDegrees>-4.415273778140544891357421875</LongitudeDegrees>
            </Position>
            <AltitudeMeters>66.8000030517578125</AltitudeMeters>
            <DistanceMeters>NAN</DistanceMeters>
          </Trackpoint>
          <Trackpoint>
            <Time>2022-07-15T08:29:48.000Z</Time>
            <Position>
              <LatitudeDegrees>43.3675110340118408203125</LatitudeDegrees>
              <LongitudeDegrees>-4.41531862132251262664794921875</LongitudeDegrees>
            </Position>
            <AltitudeMeters>67</AltitudeMeters>
            <DistanceMeters>NAN</DistanceMeters>
          </Trackpoint>
          <Trackpoint>
            <Time>2022-07-15T08:29:56.000Z</Time>
            <Position>
              <LatitudeDegrees>43.3674863912165164947509765625</LatitudeDegrees>
              <LongitudeDegrees>-4.4154717586934566497802734375</LongitudeDegrees>
            </Position>
            <AltitudeMeters>67.59999847412109375</AltitudeMeters>
            <DistanceMeters>NAN</DistanceMeters>
          </Trackpoint>
          <Trackpoint>
            <Time>2022-07-15T08:29:59.000Z</Time>
            <Position>
              <LatitudeDegrees>43.3674545399844646453857421875</LatitudeDegrees>
              <LongitudeDegrees>-4.415530599653720855712890625</LongitudeDegrees>
            </Position>
            <AltitudeMeters>67.8000030517578125</AltitudeMeters>
            <DistanceMeters>NAN</DistanceMeters>
          </Trackpoint>
          <Trackpoint>
            <Time>2022-07-15T08:30:04.000Z</Time>
            <Position>
              <LatitudeDegrees>43.3673968724906444549560546875</LatitudeDegrees>
              <LongitudeDegrees>-4.4156122393906116485595703125</LongitudeDegrees>
            </Position>
            <AltitudeMeters>68.1999969482421875</AltitudeMeters>
            <DistanceMeters>NAN</DistanceMeters>
          </Trackpoint>
          <Trackpoint>
            <Time>2022-07-15T08:30:08.000Z</Time>
            <Position>
              <LatitudeDegrees>43.36734448559582233428955078125</LatitudeDegrees>
              <LongitudeDegrees>-4.415664039552211761474609375</LongitudeDegrees>
            </Position>
            <AltitudeMeters>68.40000152587890625</AltitudeMeters>
            <DistanceMeters>NAN</DistanceMeters>
          </Trackpoint>
          <Trackpoint>
            <Time>2022-07-15T08:30:13.000Z</Time>
            <Position>
              <LatitudeDegrees>43.36725530214607715606689453125</LatitudeDegrees>
              <LongitudeDegrees>-4.41571039147675037384033203125</LongitudeDegrees>
            </Position>
            <AltitudeMeters>68.8000030517578125</AltitudeMeters>
            <DistanceMeters>NAN</DistanceMeters>
          </Trackpoint>
          <Trackpoint>
            <Time>2022-07-15T08:30:21.000Z</Time>
            <Position>
              <LatitudeDegrees>43.367065452039241790771484375</LatitudeDegrees>
              <LongitudeDegrees>-4.41569815389811992645263671875</LongitudeDegrees>
            </Position>
            <AltitudeMeters>68.59999847412109375</AltitudeMeters>
            <DistanceMeters>NAN</DistanceMeters>
          </Trackpoint>
          <Trackpoint>
            <Time>2022-07-15T08:30:26.000Z</Time>
            <Position>
              <LatitudeDegrees>43.36693712510168552398681640625</LatitudeDegrees>
              <LongitudeDegrees>-4.41560804843902587890625</LongitudeDegrees>
            </Position>
            <AltitudeMeters>68.59999847412109375</AltitudeMeters>
            <DistanceMeters>NAN</DistanceMeters>
          </Trackpoint>
          <Trackpoint>
            <Time>2022-07-15T08:30:28.000Z</Time>
            <Position>
              <LatitudeDegrees>43.36687459610402584075927734375</LatitudeDegrees>
              <LongitudeDegrees>-4.4155589304864406585693359375</LongitudeDegrees>
            </Position>
            <AltitudeMeters>68.59999847412109375</AltitudeMeters>
            <DistanceMeters>NAN</DistanceMeters>
          </Trackpoint>
          <Trackpoint>
            <Time>2022-07-15T08:30:32.000Z</Time>
            <Position>
              <LatitudeDegrees>43.36673394776880741119384765625</LatitudeDegrees>
              <LongitudeDegrees>-4.41550486721098423004150390625</LongitudeDegrees>
            </Position>
            <AltitudeMeters>68.40000152587890625</AltitudeMeters>
            <DistanceMeters>NAN</DistanceMeters>
          </Trackpoint>
          <Trackpoint>
            <Time>2022-07-15T08:30:33.000Z</Time>
            <Position>
              <LatitudeDegrees>43.366693966090679168701171875</LatitudeDegrees>
              <LongitudeDegrees>-4.41551123745739459991455078125</LongitudeDegrees>
            </Position>
            <AltitudeMeters>68.40000152587890625</AltitudeMeters>
            <DistanceMeters>NAN</DistanceMeters>
          </Trackpoint>
          <Trackpoint>
            <Time>2022-07-15T08:30:35.000Z</Time>
            <Position>
              <LatitudeDegrees>43.3666200377047061920166015625</LatitudeDegrees>
              <LongitudeDegrees>-4.4155368022620677947998046875</LongitudeDegrees>
            </Position>
            <AltitudeMeters>68.40000152587890625</AltitudeMeters>
            <DistanceMeters>NAN</DistanceMeters>
          </Trackpoint>
          <Trackpoint>
            <Time>2022-07-15T08:30:37.000Z</Time>
            <Position>
              <LatitudeDegrees>43.3665650524199008941650390625</LatitudeDegrees>
              <LongitudeDegrees>-4.4155750237405300140380859375</LongitudeDegrees>
            </Position>
            <AltitudeMeters>68.59999847412109375</AltitudeMeters>
            <DistanceMeters>NAN</DistanceMeters>
          </Trackpoint>
          <Trackpoint>
            <Time>2022-07-15T08:30:41.000Z</Time>
            <Position>
              <LatitudeDegrees>43.366498164832592010498046875</LatitudeDegrees>
              <LongitudeDegrees>-4.4156598486006259918212890625</LongitudeDegrees>
            </Position>
            <AltitudeMeters>69</AltitudeMeters>
            <DistanceMeters>NAN</DistanceMeters>
          </Trackpoint>
          <Trackpoint>
            <Time>2022-07-15T08:30:42.000Z</Time>
            <Position>
              <LatitudeDegrees>43.36648978292942047119140625</LatitudeDegrees>
              <LongitudeDegrees>-4.4156786240637302398681640625</LongitudeDegrees>
            </Position>
            <AltitudeMeters>69.1999969482421875</AltitudeMeters>
            <DistanceMeters>NAN</DistanceMeters>
          </Trackpoint>
          <Trackpoint>
            <Time>2022-07-15T08:30:48.000Z</Time>
            <Position>
              <LatitudeDegrees>43.3664456941187381744384765625</LatitudeDegrees>
              <LongitudeDegrees>-4.41577828489243984222412109375</LongitudeDegrees>
            </Position>
            <AltitudeMeters>70</AltitudeMeters>
            <DistanceMeters>NAN</DistanceMeters>
          </Trackpoint>
          <Trackpoint>
            <Time>2022-07-15T08:30:49.000Z</Time>
            <Position>
              <LatitudeDegrees>43.366439826786518096923828125</LatitudeDegrees>
              <LongitudeDegrees>-4.415796138346195220947265625</LongitudeDegrees>
            </Position>
            <AltitudeMeters>70.1999969482421875</AltitudeMeters>
            <DistanceMeters>NAN</DistanceMeters>
          </Trackpoint>
          <Trackpoint>
            <Time>2022-07-15T08:30:54.000Z</Time>
            <Position>
              <LatitudeDegrees>43.36640755645930767059326171875</LatitudeDegrees>
              <LongitudeDegrees>-4.41588305868208408355712890625</LongitudeDegrees>
            </Position>
            <AltitudeMeters>71</AltitudeMeters>
            <DistanceMeters>NAN</DistanceMeters>
          </Trackpoint>
          <Trackpoint>
            <Time>2022-07-15T08:30:55.000Z</Time>
            <Position>
              <LatitudeDegrees>43.36639950983226299285888671875</LatitudeDegrees>
              <LongitudeDegrees>-4.415900744497776031494140625</LongitudeDegrees>
            </Position>
            <AltitudeMeters>71.1999969482421875</AltitudeMeters>
            <DistanceMeters>NAN</DistanceMeters>
          </Trackpoint>
          <Trackpoint>
            <Time>2022-07-15T08:30:57.000Z</Time>
            <Position>
              <LatitudeDegrees>43.366382159292697906494140625</LatitudeDegrees>
              <LongitudeDegrees>-4.415939636528491973876953125</LongitudeDegrees>
            </Position>
            <AltitudeMeters>71.40000152587890625</AltitudeMeters>
            <DistanceMeters>NAN</DistanceMeters>
          </Trackpoint>
          <Trackpoint>
            <Time>2022-07-15T08:30:59.000Z</Time>
            <Position>
              <LatitudeDegrees>43.366371430456638336181640625</LatitudeDegrees>
              <LongitudeDegrees>-4.415967464447021484375</LongitudeDegrees>
            </Position>
            <AltitudeMeters>71.59999847412109375</AltitudeMeters>
            <DistanceMeters>NAN</DistanceMeters>
          </Trackpoint>
          <Trackpoint>
            <Time>2022-07-15T08:31:03.000Z</Time>
            <Position>
              <LatitudeDegrees>43.3663404174149036407470703125</LatitudeDegrees>
              <LongitudeDegrees>-4.41602454520761966705322265625</LongitudeDegrees>
            </Position>
            <AltitudeMeters>72</AltitudeMeters>
            <DistanceMeters>NAN</DistanceMeters>
          </Trackpoint>
          <Trackpoint>
            <Time>2022-07-15T08:31:05.000Z</Time>
            <Position>
              <LatitudeDegrees>43.3663156069815158843994140625</LatitudeDegrees>
              <LongitudeDegrees>-4.41605740226805210113525390625</LongitudeDegrees>
            </Position>
            <AltitudeMeters>72.1999969482421875</AltitudeMeters>
            <DistanceMeters>NAN</DistanceMeters>
          </Trackpoint>
          <Trackpoint>
            <Time>2022-07-15T08:31:13.000Z</Time>
            <Position>
              <LatitudeDegrees>43.36621443741023540496826171875</LatitudeDegrees>
              <LongitudeDegrees>-4.41617709584534168243408203125</LongitudeDegrees>
            </Position>
            <AltitudeMeters>72.8000030517578125</AltitudeMeters>
            <DistanceMeters>NAN</DistanceMeters>
          </Trackpoint>
          <Trackpoint>
            <Time>2022-07-15T08:31:21.000Z</Time>
            <Position>
              <LatitudeDegrees>43.3660601265728473663330078125</LatitudeDegrees>
              <LongitudeDegrees>-4.41629092209041118621826171875</LongitudeDegrees>
            </Position>
            <AltitudeMeters>73</AltitudeMeters>
            <DistanceMeters>NAN</DistanceMeters>
          </Trackpoint>
          <Trackpoint>
            <Time>2022-07-15T08:31:22.000Z</Time>
            <Position>
              <LatitudeDegrees>43.36604394949972629547119140625</LatitudeDegrees>
              <LongitudeDegrees>-4.41630550660192966461181640625</LongitudeDegrees>
            </Position>
            <AltitudeMeters>73</AltitudeMeters>
            <DistanceMeters>NAN</DistanceMeters>
          </Trackpoint>
          <Trackpoint>
            <Time>2022-07-15T08:31:27.000Z</Time>
            <Position>
              <LatitudeDegrees>43.36594085209071636199951171875</LatitudeDegrees>
              <LongitudeDegrees>-4.41643123514950275421142578125</LongitudeDegrees>
            </Position>
            <AltitudeMeters>72.8000030517578125</AltitudeMeters>
            <DistanceMeters>NAN</DistanceMeters>
          </Trackpoint>
          <Trackpoint>
            <Time>2022-07-15T08:31:30.000Z</Time>
            <Position>
              <LatitudeDegrees>43.36589165031909942626953125</LatitudeDegrees>
              <LongitudeDegrees>-4.416541121900081634521484375</LongitudeDegrees>
            </Position>
            <AltitudeMeters>73</AltitudeMeters>
            <DistanceMeters>NAN</DistanceMeters>
          </Trackpoint>
          <Trackpoint>
            <Time>2022-07-15T08:31:35.000Z</Time>
            <Position>
              <LatitudeDegrees>43.36583171971142292022705078125</LatitudeDegrees>
              <LongitudeDegrees>-4.41672409884631633758544921875</LongitudeDegrees>
            </Position>
            <AltitudeMeters>73</AltitudeMeters>
            <DistanceMeters>NAN</DistanceMeters>
          </Trackpoint>
          <Trackpoint>
            <Time>2022-07-15T08:31:39.000Z</Time>
            <Position>
              <LatitudeDegrees>43.3657838590443134307861328125</LatitudeDegrees>
              <LongitudeDegrees>-4.4168792478740215301513671875</LongitudeDegrees>
            </Position>
            <AltitudeMeters>73.1999969482421875</AltitudeMeters>
            <DistanceMeters>NAN</DistanceMeters>
          </Trackpoint>
          <Trackpoint>
            <Time>2022-07-15T08:31:40.000Z</Time>
            <Position>
              <LatitudeDegrees>43.36577187292277812957763671875</LatitudeDegrees>
              <LongitudeDegrees>-4.41691587679088115692138671875</LongitudeDegrees>
            </Position>
            <AltitudeMeters>73.1999969482421875</AltitudeMeters>
            <DistanceMeters>NAN</DistanceMeters>
          </Trackpoint>
          <Trackpoint>
            <Time>2022-07-15T08:31:45.000Z</Time>
            <Position>
              <LatitudeDegrees>43.36571353487670421600341796875</LatitudeDegrees>
              <LongitudeDegrees>-4.4170926511287689208984375</LongitudeDegrees>
            </Position>
            <AltitudeMeters>73.40000152587890625</AltitudeMeters>
            <DistanceMeters>NAN</DistanceMeters>
          </Trackpoint>
          <Trackpoint>
            <Time>2022-07-15T08:31:49.000Z</Time>
            <Position>
              <LatitudeDegrees>43.365659974515438079833984375</LatitudeDegrees>
              <LongitudeDegrees>-4.41723505966365337371826171875</LongitudeDegrees>
            </Position>
            <AltitudeMeters>73.59999847412109375</AltitudeMeters>
            <DistanceMeters>NAN</DistanceMeters>
          </Trackpoint>
          <Trackpoint>
            <Time>2022-07-15T08:32:00.000Z</Time>
            <Position>
              <LatitudeDegrees>43.36554287932813167572021484375</LatitudeDegrees>
              <LongitudeDegrees>-4.417589865624904632568359375</LongitudeDegrees>
            </Position>
            <AltitudeMeters>74.1999969482421875</AltitudeMeters>
            <DistanceMeters>NAN</DistanceMeters>
          </Trackpoint>
          <Trackpoint>
            <Time>2022-07-15T08:32:07.000Z</Time>
            <Position>
              <LatitudeDegrees>43.36549862287938594818115234375</LatitudeDegrees>
              <LongitudeDegrees>-4.417737387120723724365234375</LongitudeDegrees>
            </Position>
            <AltitudeMeters>74.40000152587890625</AltitudeMeters>
            <DistanceMeters>NAN</DistanceMeters>
          </Trackpoint>
          <Trackpoint>
            <Time>2022-07-15T08:32:08.000Z</Time>
            <Position>
              <LatitudeDegrees>43.36549862287938594818115234375</LatitudeDegrees>
              <LongitudeDegrees>-4.417737387120723724365234375</LongitudeDegrees>
            </Position>
            <AltitudeMeters>74.40000152587890625</AltitudeMeters>
            <DistanceMeters>NAN</DistanceMeters>
          </Trackpoint>
          <Trackpoint>
            <Time>2022-07-15T08:32:30.000Z</Time>
            <Position>
              <LatitudeDegrees>43.36548931896686553955078125</LatitudeDegrees>
              <LongitudeDegrees>-4.4177918694913387298583984375</LongitudeDegrees>
            </Position>
            <AltitudeMeters>74.40000152587890625</AltitudeMeters>
            <DistanceMeters>NAN</DistanceMeters>
          </Trackpoint>
          <Trackpoint>
            <Time>2022-07-15T08:32:31.000Z</Time>
            <Position>
              <LatitudeDegrees>43.3654794283211231231689453125</LatitudeDegrees>
              <LongitudeDegrees>-4.41783185116946697235107421875</LongitudeDegrees>
            </Position>
            <AltitudeMeters>74.40000152587890625</AltitudeMeters>
            <DistanceMeters>NAN</DistanceMeters>
          </Trackpoint>
          <Trackpoint>
            <Time>2022-07-15T08:32:32.000Z</Time>
            <Position>
              <LatitudeDegrees>43.36546978913247585296630859375</LatitudeDegrees>
              <LongitudeDegrees>-4.417866803705692291259765625</LongitudeDegrees>
            </Position>
            <AltitudeMeters>74.40000152587890625</AltitudeMeters>
            <DistanceMeters>NAN</DistanceMeters>
          </Trackpoint>
          <Trackpoint>
            <Time>2022-07-15T08:32:36.000Z</Time>
            <Position>
              <LatitudeDegrees>43.36544564925134181976318359375</LatitudeDegrees>
              <LongitudeDegrees>-4.4180067814886569976806640625</LongitudeDegrees>
            </Position>
            <AltitudeMeters>74.59999847412109375</AltitudeMeters>
            <DistanceMeters>NAN</DistanceMeters>
          </Trackpoint>
          <Trackpoint>
            <Time>2022-07-15T08:32:37.000Z</Time>
            <Position>
              <LatitudeDegrees>43.36543961428105831146240234375</LatitudeDegrees>
              <LongitudeDegrees>-4.4180403091013431549072265625</LongitudeDegrees>
            </Position>
            <AltitudeMeters>74.59999847412109375</AltitudeMeters>
            <DistanceMeters>NAN</DistanceMeters>
          </Trackpoint>
          <Trackpoint>
            <Time>2022-07-15T08:32:40.000Z</Time>
            <Position>
              <LatitudeDegrees>43.3654264546930789947509765625</LatitudeDegrees>
              <LongitudeDegrees>-4.41813343204557895660400390625</LongitudeDegrees>
            </Position>
            <AltitudeMeters>75</AltitudeMeters>
            <DistanceMeters>NAN</DistanceMeters>
          </Trackpoint>
          <Trackpoint>
            <Time>2022-07-15T08:32:44.000Z</Time>
            <Position>
              <LatitudeDegrees>43.365422599017620086669921875</LatitudeDegrees>
              <LongitudeDegrees>-4.41827005706727504730224609375</LongitudeDegrees>
            </Position>
            <AltitudeMeters>75.40000152587890625</AltitudeMeters>
            <DistanceMeters>NAN</DistanceMeters>
          </Trackpoint>
          <Trackpoint>
            <Time>2022-07-15T08:32:51.000Z</Time>
            <Position>
              <LatitudeDegrees>43.36543307639658451080322265625</LatitudeDegrees>
              <LongitudeDegrees>-4.41848362796008586883544921875</LongitudeDegrees>
            </Position>
            <AltitudeMeters>76.1999969482421875</AltitudeMeters>
            <DistanceMeters>NAN</DistanceMeters>
          </Trackpoint>
          <Trackpoint>
            <Time>2022-07-15T08:32:52.000Z</Time>
            <Position>
              <LatitudeDegrees>43.36543391458690166473388671875</LatitudeDegrees>
              <LongitudeDegrees>-4.41851028241217136383056640625</LongitudeDegrees>
            </Position>
            <AltitudeMeters>76.40000152587890625</AltitudeMeters>
            <DistanceMeters>NAN</DistanceMeters>
          </Trackpoint>
          <Trackpoint>
            <Time>2022-07-15T08:32:59.000Z</Time>
            <Position>
              <LatitudeDegrees>43.3654448948800563812255859375</LatitudeDegrees>
              <LongitudeDegrees>-4.4187098555266857147216796875</LongitudeDegrees>
            </Position>
            <AltitudeMeters>76.8000030517578125</AltitudeMeters>
            <DistanceMeters>NAN</DistanceMeters>
          </Trackpoint>
          <Trackpoint>
            <Time>2022-07-15T08:33:03.000Z</Time>
            <Position>
              <LatitudeDegrees>43.36545134894549846649169921875</LatitudeDegrees>
              <LongitudeDegrees>-4.4188144616782665252685546875</LongitudeDegrees>
            </Position>
            <AltitudeMeters>77.40000152587890625</AltitudeMeters>
            <DistanceMeters>NAN</DistanceMeters>
          </Trackpoint>
          <Trackpoint>
            <Time>2022-07-15T08:33:05.000Z</Time>
            <Position>
              <LatitudeDegrees>43.365455456078052520751953125</LatitudeDegrees>
              <LongitudeDegrees>-4.41886232234537601470947265625</LongitudeDegrees>
            </Position>
            <AltitudeMeters>77.59999847412109375</AltitudeMeters>
            <DistanceMeters>NAN</DistanceMeters>
          </Trackpoint>
          <Trackpoint>
            <Time>2022-07-15T08:33:06.000Z</Time>
            <Position>
              <LatitudeDegrees>43.36545671336352825164794921875</LatitudeDegrees>
              <LongitudeDegrees>-4.4188898988068103790283203125</LongitudeDegrees>
            </Position>
            <AltitudeMeters>77.8000030517578125</AltitudeMeters>
            <DistanceMeters>NAN</DistanceMeters>
          </Trackpoint>
          <Trackpoint>
            <Time>2022-07-15T08:33:08.000Z</Time>
            <Position>
              <LatitudeDegrees>43.36545847356319427490234375</LatitudeDegrees>
              <LongitudeDegrees>-4.41894597373902797698974609375</LongitudeDegrees>
            </Position>
            <AltitudeMeters>78</AltitudeMeters>
            <DistanceMeters>NAN</DistanceMeters>
          </Trackpoint>
          <Trackpoint>
            <Time>2022-07-15T08:33:10.000Z</Time>
            <Position>
              <LatitudeDegrees>43.36546006612479686737060546875</LatitudeDegrees>
              <LongitudeDegrees>-4.41899903118610382080078125</LongitudeDegrees>
            </Position>
            <AltitudeMeters>78.40000152587890625</AltitudeMeters>
            <DistanceMeters>NAN</DistanceMeters>
          </Trackpoint>
          <Trackpoint>
            <Time>2022-07-15T08:33:14.000Z</Time>
            <Position>
              <LatitudeDegrees>43.36545235477387905120849609375</LatitudeDegrees>
              <LongitudeDegrees>-4.41909919492900371551513671875</LongitudeDegrees>
            </Position>
            <AltitudeMeters>79</AltitudeMeters>
            <DistanceMeters>NAN</DistanceMeters>
          </Trackpoint>
          <Trackpoint>
            <Time>2022-07-15T08:33:15.000Z</Time>
            <Position>
              <LatitudeDegrees>43.36545051075518131256103515625</LatitudeDegrees>
              <LongitudeDegrees>-4.41912467591464519500732421875</LongitudeDegrees>
            </Position>
            <AltitudeMeters>79</AltitudeMeters>
            <DistanceMeters>NAN</DistanceMeters>
          </Trackpoint>
          <Trackpoint>
            <Time>2022-07-15T08:33:18.000Z</Time>
            <Position>
              <LatitudeDegrees>43.36544162593781948089599609375</LatitudeDegrees>
              <LongitudeDegrees>-4.41920346580445766448974609375</LongitudeDegrees>
            </Position>
            <AltitudeMeters>79.59999847412109375</AltitudeMeters>
            <DistanceMeters>NAN</DistanceMeters>
          </Trackpoint>
          <Trackpoint>
            <Time>2022-07-15T08:33:24.000Z</Time>
            <Position>
              <LatitudeDegrees>43.36538915522396564483642578125</LatitudeDegrees>
              <LongitudeDegrees>-4.4193458743393421173095703125</LongitudeDegrees>
            </Position>
            <AltitudeMeters>80.40000152587890625</AltitudeMeters>
            <DistanceMeters>NAN</DistanceMeters>
          </Trackpoint>
          <Trackpoint>
            <Time>2022-07-15T08:33:26.000Z</Time>
            <Position>
              <LatitudeDegrees>43.36536820046603679656982421875</LatitudeDegrees>
              <LongitudeDegrees>-4.41938501782715320587158203125</LongitudeDegrees>
            </Position>
            <AltitudeMeters>80.59999847412109375</AltitudeMeters>
            <DistanceMeters>NAN</DistanceMeters>
          </Trackpoint>
          <Trackpoint>
            <Time>2022-07-15T08:33:33.000Z</Time>
            <Position>
              <LatitudeDegrees>43.36525018326938152313232421875</LatitudeDegrees>
              <LongitudeDegrees>-4.419541172683238983154296875</LongitudeDegrees>
            </Position>
            <AltitudeMeters>80.8000030517578125</AltitudeMeters>
            <DistanceMeters>NAN</DistanceMeters>
          </Trackpoint>
          <Trackpoint>
            <Time>2022-07-15T08:33:37.000Z</Time>
            <Position>
              <LatitudeDegrees>43.36517072282731533050537109375</LatitudeDegrees>
              <LongitudeDegrees>-4.41961920820176601409912109375</LongitudeDegrees>
            </Position>
            <AltitudeMeters>80.8000030517578125</AltitudeMeters>
            <DistanceMeters>NAN</DistanceMeters>
          </Trackpoint>
          <Trackpoint>
            <Time>2022-07-15T08:33:40.000Z</Time>
            <Position>
              <LatitudeDegrees>43.36511054076254367828369140625</LatitudeDegrees>
              <LongitudeDegrees>-4.4196868501603603363037109375</LongitudeDegrees>
            </Position>
            <AltitudeMeters>80.8000030517578125</AltitudeMeters>
            <DistanceMeters>NAN</DistanceMeters>
          </Trackpoint>
          <Trackpoint>
            <Time>2022-07-15T08:33:41.000Z</Time>
            <Position>
              <LatitudeDegrees>43.36509427987039089202880859375</LatitudeDegrees>
              <LongitudeDegrees>-4.419712834060192108154296875</LongitudeDegrees>
            </Position>
            <AltitudeMeters>80.8000030517578125</AltitudeMeters>
            <DistanceMeters>NAN</DistanceMeters>
          </Trackpoint>
          <Trackpoint>
            <Time>2022-07-15T08:33:48.000Z</Time>
            <Position>
              <LatitudeDegrees>43.36494826711714267730712890625</LatitudeDegrees>
              <LongitudeDegrees>-4.41988592036068439483642578125</LongitudeDegrees>
            </Position>
            <AltitudeMeters>80.8000030517578125</AltitudeMeters>
            <DistanceMeters>NAN</DistanceMeters>
          </Trackpoint>
          <Trackpoint>
            <Time>2022-07-15T08:33:52.000Z</Time>
            <Position>
              <LatitudeDegrees>43.364857323467731475830078125</LatitudeDegrees>
              <LongitudeDegrees>-4.42000293172895908355712890625</LongitudeDegrees>
            </Position>
            <AltitudeMeters>80.8000030517578125</AltitudeMeters>
            <DistanceMeters>NAN</DistanceMeters>
          </Trackpoint>
          <Trackpoint>
            <Time>2022-07-15T08:33:55.000Z</Time>
            <Position>
              <LatitudeDegrees>43.36477995850145816802978515625</LatitudeDegrees>
              <LongitudeDegrees>-4.42007652483880519866943359375</LongitudeDegrees>
            </Position>
            <AltitudeMeters>80.8000030517578125</AltitudeMeters>
            <DistanceMeters>NAN</DistanceMeters>
          </Trackpoint>
          <Trackpoint>
            <Time>2022-07-15T08:33:56.000Z</Time>
            <Position>
              <LatitudeDegrees>43.364750035107135772705078125</LatitudeDegrees>
              <LongitudeDegrees>-4.42010753788053989410400390625</LongitudeDegrees>
            </Position>
            <AltitudeMeters>80.8000030517578125</AltitudeMeters>
            <DistanceMeters>NAN</DistanceMeters>
          </Trackpoint>
          <Trackpoint>
            <Time>2022-07-15T08:34:03.000Z</Time>
            <Position>
              <LatitudeDegrees>43.3645316027104854583740234375</LatitudeDegrees>
              <LongitudeDegrees>-4.42023418843746185302734375</LongitudeDegrees>
            </Position>
            <AltitudeMeters>80.8000030517578125</AltitudeMeters>
            <DistanceMeters>NAN</DistanceMeters>
          </Trackpoint>
          <Trackpoint>
            <Time>2022-07-15T08:34:06.000Z</Time>
            <Position>
              <LatitudeDegrees>43.36440042592585086822509765625</LatitudeDegrees>
              <LongitudeDegrees>-4.4202346913516521453857421875</LongitudeDegrees>
            </Position>
            <AltitudeMeters>80.59999847412109375</AltitudeMeters>
            <DistanceMeters>NAN</DistanceMeters>
          </Trackpoint>
          <Trackpoint>
            <Time>2022-07-15T08:34:08.000Z</Time>
            <Position>
              <LatitudeDegrees>43.36432096548378467559814453125</LatitudeDegrees>
              <LongitudeDegrees>-4.420200996100902557373046875</LongitudeDegrees>
            </Position>
            <AltitudeMeters>80.40000152587890625</AltitudeMeters>
            <DistanceMeters>NAN</DistanceMeters>
          </Trackpoint>
          <Trackpoint>
            <Time>2022-07-15T08:34:10.000Z</Time>
            <Position>
              <LatitudeDegrees>43.3642325364053249359130859375</LatitudeDegrees>
              <LongitudeDegrees>-4.4201409816741943359375</LongitudeDegrees>
            </Position>
            <AltitudeMeters>80.1999969482421875</AltitudeMeters>
            <DistanceMeters>NAN</DistanceMeters>
          </Trackpoint>
          <Trackpoint>
            <Time>2022-07-15T08:34:12.000Z</Time>
            <Position>
              <LatitudeDegrees>43.3641327917575836181640625</LatitudeDegrees>
              <LongitudeDegrees>-4.42003629170358180999755859375</LongitudeDegrees>
            </Position>
            <AltitudeMeters>79.8000030517578125</AltitudeMeters>
            <DistanceMeters>NAN</DistanceMeters>
          </Trackpoint>
          <Trackpoint>
            <Time>2022-07-15T08:34:15.000Z</Time>
            <Position>
              <LatitudeDegrees>43.3639951609075069427490234375</LatitudeDegrees>
              <LongitudeDegrees>-4.41987133584916591644287109375</LongitudeDegrees>
            </Position>
            <AltitudeMeters>79.40000152587890625</AltitudeMeters>
            <DistanceMeters>NAN</DistanceMeters>
          </Trackpoint>
          <Trackpoint>
            <Time>2022-07-15T08:34:18.000Z</Time>
            <Position>
              <LatitudeDegrees>43.36382660083472728729248046875</LatitudeDegrees>
              <LongitudeDegrees>-4.41965885460376739501953125</LongitudeDegrees>
            </Position>
            <AltitudeMeters>79</AltitudeMeters>
            <DistanceMeters>NAN</DistanceMeters>
          </Trackpoint>
          <Trackpoint>
            <Time>2022-07-15T08:34:21.000Z</Time>
            <Position>
              <LatitudeDegrees>43.363670445978641510009765625</LatitudeDegrees>
              <LongitudeDegrees>-4.4194518215954303741455078125</LongitudeDegrees>
            </Position>
            <AltitudeMeters>78</AltitudeMeters>
            <DistanceMeters>NAN</DistanceMeters>
          </Trackpoint>
          <Trackpoint>
            <Time>2022-07-15T08:34:23.000Z</Time>
            <Position>
              <LatitudeDegrees>43.36355385370552539825439453125</LatitudeDegrees>
              <LongitudeDegrees>-4.41929943859577178955078125</LongitudeDegrees>
            </Position>
            <AltitudeMeters>77</AltitudeMeters>
            <DistanceMeters>NAN</DistanceMeters>
          </Trackpoint>
          <Trackpoint>
            <Time>2022-07-15T08:34:24.000Z</Time>
            <Position>
              <LatitudeDegrees>43.3634912408888339996337890625</LatitudeDegrees>
              <LongitudeDegrees>-4.41922475583851337432861328125</LongitudeDegrees>
            </Position>
            <AltitudeMeters>76.40000152587890625</AltitudeMeters>
            <DistanceMeters>NAN</DistanceMeters>
          </Trackpoint>
          <Trackpoint>
            <Time>2022-07-15T08:34:26.000Z</Time>
            <Position>
              <LatitudeDegrees>43.3633675239980220794677734375</LatitudeDegrees>
              <LongitudeDegrees>-4.41907471977174282073974609375</LongitudeDegrees>
            </Position>
            <AltitudeMeters>75.8000030517578125</AltitudeMeters>
            <DistanceMeters>NAN</DistanceMeters>
          </Trackpoint>
          <Trackpoint>
            <Time>2022-07-15T08:34:30.000Z</Time>
            <Position>
              <LatitudeDegrees>43.36315445601940155029296875</LatitudeDegrees>
              <LongitudeDegrees>-4.41876375116407871246337890625</LongitudeDegrees>
            </Position>
            <AltitudeMeters>75.1999969482421875</AltitudeMeters>
            <DistanceMeters>NAN</DistanceMeters>
          </Trackpoint>
          <Trackpoint>
            <Time>2022-07-15T08:34:31.000Z</Time>
            <Position>
              <LatitudeDegrees>43.363114893436431884765625</LatitudeDegrees>
              <LongitudeDegrees>-4.41867892630398273468017578125</LongitudeDegrees>
            </Position>
            <AltitudeMeters>75.1999969482421875</AltitudeMeters>
            <DistanceMeters>NAN</DistanceMeters>
          </Trackpoint>
          <Trackpoint>
            <Time>2022-07-15T08:34:34.000Z</Time>
            <Position>
              <LatitudeDegrees>43.36300232447683811187744140625</LatitudeDegrees>
              <LongitudeDegrees>-4.41840089857578277587890625</LongitudeDegrees>
            </Position>
            <AltitudeMeters>74.8000030517578125</AltitudeMeters>
            <DistanceMeters>NAN</DistanceMeters>
          </Trackpoint>
          <Trackpoint>
            <Time>2022-07-15T08:34:36.000Z</Time>
            <Position>
              <LatitudeDegrees>43.36289159953594207763671875</LatitudeDegrees>
              <LongitudeDegrees>-4.41824139095842838287353515625</LongitudeDegrees>
            </Position>
            <AltitudeMeters>74</AltitudeMeters>
            <DistanceMeters>NAN</DistanceMeters>
          </Trackpoint>
          <Trackpoint>
            <Time>2022-07-15T08:34:37.000Z</Time>
            <Position>
              <LatitudeDegrees>43.362828902900218963623046875</LatitudeDegrees>
              <LongitudeDegrees>-4.41819981671869754791259765625</LongitudeDegrees>
            </Position>
            <AltitudeMeters>73.8000030517578125</AltitudeMeters>
            <DistanceMeters>NAN</DistanceMeters>
          </Trackpoint>
          <Trackpoint>
            <Time>2022-07-15T08:34:38.000Z</Time>
            <Position>
              <LatitudeDegrees>43.36277425289154052734375</LatitudeDegrees>
              <LongitudeDegrees>-4.418174922466278076171875</LongitudeDegrees>
            </Position>
            <AltitudeMeters>73.8000030517578125</AltitudeMeters>
            <DistanceMeters>NAN</DistanceMeters>
          </Trackpoint>
          <Trackpoint>
            <Time>2022-07-15T08:34:39.000Z</Time>
            <Position>
              <LatitudeDegrees>43.36270208470523357391357421875</LatitudeDegrees>
              <LongitudeDegrees>-4.4181620143353939056396484375</LongitudeDegrees>
            </Position>
            <AltitudeMeters>73.40000152587890625</AltitudeMeters>
            <DistanceMeters>NAN</DistanceMeters>
          </Trackpoint>
          <Trackpoint>
            <Time>2022-07-15T08:34:40.000Z</Time>
            <Position>
              <LatitudeDegrees>43.36261474527418613433837890625</LatitudeDegrees>
              <LongitudeDegrees>-4.4181747548282146453857421875</LongitudeDegrees>
            </Position>
            <AltitudeMeters>73.1999969482421875</AltitudeMeters>
            <DistanceMeters>NAN</DistanceMeters>
          </Trackpoint>
          <Trackpoint>
            <Time>2022-07-15T08:34:43.000Z</Time>
            <Position>
              <LatitudeDegrees>43.3624096401035785675048828125</LatitudeDegrees>
              <LongitudeDegrees>-4.41828698851168155670166015625</LongitudeDegrees>
            </Position>
            <AltitudeMeters>72.40000152587890625</AltitudeMeters>
            <DistanceMeters>NAN</DistanceMeters>
          </Trackpoint>
          <Trackpoint>
            <Time>2022-07-15T08:34:45.000Z</Time>
            <Position>
              <LatitudeDegrees>43.3622540719807147979736328125</LatitudeDegrees>
              <LongitudeDegrees>-4.418370723724365234375</LongitudeDegrees>
            </Position>
            <AltitudeMeters>71.8000030517578125</AltitudeMeters>
            <DistanceMeters>NAN</DistanceMeters>
          </Trackpoint>
          <Trackpoint>
            <Time>2022-07-15T08:34:46.000Z</Time>
            <Position>
              <LatitudeDegrees>43.36218240670859813690185546875</LatitudeDegrees>
              <LongitudeDegrees>-4.4183953665196895599365234375</LongitudeDegrees>
            </Position>
            <AltitudeMeters>71.8000030517578125</AltitudeMeters>
            <DistanceMeters>NAN</DistanceMeters>
          </Trackpoint>
          <Trackpoint>
            <Time>2022-07-15T08:34:49.000Z</Time>
            <Position>
              <LatitudeDegrees>43.3619751222431659698486328125</LatitudeDegrees>
              <LongitudeDegrees>-4.41841506399214267730712890625</LongitudeDegrees>
            </Position>
            <AltitudeMeters>71.59999847412109375</AltitudeMeters>
            <DistanceMeters>NAN</DistanceMeters>
          </Trackpoint>
          <Trackpoint>
            <Time>2022-07-15T08:34:52.000Z</Time>
            <Position>
              <LatitudeDegrees>43.3617410995066165924072265625</LatitudeDegrees>
              <LongitudeDegrees>-4.4183705560863018035888671875</LongitudeDegrees>
            </Position>
            <AltitudeMeters>71.59999847412109375</AltitudeMeters>
            <DistanceMeters>NAN</DistanceMeters>
          </Trackpoint>
          <Trackpoint>
            <Time>2022-07-15T08:34:55.000Z</Time>
            <Position>
              <LatitudeDegrees>43.3615473099052906036376953125</LatitudeDegrees>
              <LongitudeDegrees>-4.41832856275141239166259765625</LongitudeDegrees>
            </Position>
            <AltitudeMeters>71.40000152587890625</AltitudeMeters>
            <DistanceMeters>NAN</DistanceMeters>
          </Trackpoint>
          <Trackpoint>
            <Time>2022-07-15T08:34:58.000Z</Time>
            <Position>
              <LatitudeDegrees>43.36136802099645137786865234375</LatitudeDegrees>
              <LongitudeDegrees>-4.4183071888983249664306640625</LongitudeDegrees>
            </Position>
            <AltitudeMeters>70.8000030517578125</AltitudeMeters>
            <DistanceMeters>NAN</DistanceMeters>
          </Trackpoint>
          <Trackpoint>
            <Time>2022-07-15T08:34:59.000Z</Time>
            <Position>
              <LatitudeDegrees>43.36132242344319820404052734375</LatitudeDegrees>
              <LongitudeDegrees>-4.41831951029598712921142578125</LongitudeDegrees>
            </Position>
            <AltitudeMeters>70.59999847412109375</AltitudeMeters>
            <DistanceMeters>NAN</DistanceMeters>
          </Trackpoint>
          <Trackpoint>
            <Time>2022-07-15T08:35:01.000Z</Time>
            <Position>
              <LatitudeDegrees>43.36125251837074756622314453125</LatitudeDegrees>
              <LongitudeDegrees>-4.41836091689765453338623046875</LongitudeDegrees>
            </Position>
            <AltitudeMeters>70.1999969482421875</AltitudeMeters>
            <DistanceMeters>NAN</DistanceMeters>
          </Trackpoint>
          <Trackpoint>
            <Time>2022-07-15T08:35:03.000Z</Time>
            <Position>
              <LatitudeDegrees>43.36119703017175197601318359375</LatitudeDegrees>
              <LongitudeDegrees>-4.41839779727160930633544921875</LongitudeDegrees>
            </Position>
            <AltitudeMeters>69.8000030517578125</AltitudeMeters>
            <DistanceMeters>NAN</DistanceMeters>
          </Trackpoint>
          <Trackpoint>
            <Time>2022-07-15T08:35:05.000Z</Time>
            <Position>
              <LatitudeDegrees>43.36113131605088710784912109375</LatitudeDegrees>
              <LongitudeDegrees>-4.4184875674545764923095703125</LongitudeDegrees>
            </Position>
            <AltitudeMeters>69.59999847412109375</AltitudeMeters>
            <DistanceMeters>NAN</DistanceMeters>
          </Trackpoint>
          <Trackpoint>
            <Time>2022-07-15T08:35:07.000Z</Time>
            <Position>
              <LatitudeDegrees>43.3610916696488857269287109375</LatitudeDegrees>
              <LongitudeDegrees>-4.41860265098512172698974609375</LongitudeDegrees>
            </Position>
            <AltitudeMeters>69.40000152587890625</AltitudeMeters>
            <DistanceMeters>NAN</DistanceMeters>
          </Trackpoint>
          <Trackpoint>
            <Time>2022-07-15T08:35:08.000Z</Time>
            <Position>
              <LatitudeDegrees>43.36106811650097370147705078125</LatitudeDegrees>
              <LongitudeDegrees>-4.41869149915874004364013671875</LongitudeDegrees>
            </Position>
            <AltitudeMeters>69.1999969482421875</AltitudeMeters>
            <DistanceMeters>NAN</DistanceMeters>
          </Trackpoint>
          <Trackpoint>
            <Time>2022-07-15T08:35:09.000Z</Time>
            <Position>
              <LatitudeDegrees>43.36105001159012317657470703125</LatitudeDegrees>
              <LongitudeDegrees>-4.4187705405056476593017578125</LongitudeDegrees>
            </Position>
            <AltitudeMeters>69</AltitudeMeters>
            <DistanceMeters>NAN</DistanceMeters>
          </Trackpoint>
          <Trackpoint>
            <Time>2022-07-15T08:35:12.000Z</Time>
            <Position>
              <LatitudeDegrees>43.36100944317877292633056640625</LatitudeDegrees>
              <LongitudeDegrees>-4.41904923878610134124755859375</LongitudeDegrees>
            </Position>
            <AltitudeMeters>68.1999969482421875</AltitudeMeters>
            <DistanceMeters>NAN</DistanceMeters>
          </Trackpoint>
          <Trackpoint>
            <Time>2022-07-15T08:35:13.000Z</Time>
            <Position>
              <LatitudeDegrees>43.36099636740982532501220703125</LatitudeDegrees>
              <LongitudeDegrees>-4.419144205749034881591796875</LongitudeDegrees>
            </Position>
            <AltitudeMeters>68</AltitudeMeters>
            <DistanceMeters>NAN</DistanceMeters>
          </Trackpoint>
          <Trackpoint>
            <Time>2022-07-15T08:35:18.000Z</Time>
            <Position>
              <LatitudeDegrees>43.36091841571033000946044921875</LatitudeDegrees>
              <LongitudeDegrees>-4.41964250989258289337158203125</LongitudeDegrees>
            </Position>
            <AltitudeMeters>66.8000030517578125</AltitudeMeters>
            <DistanceMeters>NAN</DistanceMeters>
          </Trackpoint>
          <Trackpoint>
            <Time>2022-07-15T08:35:21.000Z</Time>
            <Position>
              <LatitudeDegrees>43.36078262887895107269287109375</LatitudeDegrees>
              <LongitudeDegrees>-4.419977031648159027099609375</LongitudeDegrees>
            </Position>
            <AltitudeMeters>65.59999847412109375</AltitudeMeters>
            <DistanceMeters>NAN</DistanceMeters>
          </Trackpoint>
          <Trackpoint>
            <Time>2022-07-15T08:35:22.000Z</Time>
            <Position>
              <LatitudeDegrees>43.360739462077617645263671875</LatitudeDegrees>
              <LongitudeDegrees>-4.4200854934751987457275390625</LongitudeDegrees>
            </Position>
            <AltitudeMeters>65.1999969482421875</AltitudeMeters>
            <DistanceMeters>NAN</DistanceMeters>
          </Trackpoint>
          <Trackpoint>
            <Time>2022-07-15T08:35:24.000Z</Time>
            <Position>
              <LatitudeDegrees>43.36067014373838901519775390625</LatitudeDegrees>
              <LongitudeDegrees>-4.42030258476734161376953125</LongitudeDegrees>
            </Position>
            <AltitudeMeters>64.1999969482421875</AltitudeMeters>
            <DistanceMeters>NAN</DistanceMeters>
          </Trackpoint>
          <Trackpoint>
            <Time>2022-07-15T08:35:25.000Z</Time>
            <Position>
              <LatitudeDegrees>43.3606484346091747283935546875</LatitudeDegrees>
              <LongitudeDegrees>-4.42042688839137554168701171875</LongitudeDegrees>
            </Position>
            <AltitudeMeters>64</AltitudeMeters>
            <DistanceMeters>NAN</DistanceMeters>
          </Trackpoint>
          <Trackpoint>
            <Time>2022-07-15T08:35:26.000Z</Time>
            <Position>
              <LatitudeDegrees>43.3606403879821300506591796875</LatitudeDegrees>
              <LongitudeDegrees>-4.42055244930088520050048828125</LongitudeDegrees>
            </Position>
            <AltitudeMeters>63.799999237060546875</AltitudeMeters>
            <DistanceMeters>NAN</DistanceMeters>
          </Trackpoint>
          <Trackpoint>
            <Time>2022-07-15T08:35:27.000Z</Time>
            <Position>
              <LatitudeDegrees>43.360641561448574066162109375</LatitudeDegrees>
              <LongitudeDegrees>-4.42067809402942657470703125</LongitudeDegrees>
            </Position>
            <AltitudeMeters>63.59999847412109375</AltitudeMeters>
            <DistanceMeters>NAN</DistanceMeters>
          </Trackpoint>
          <Trackpoint>
            <Time>2022-07-15T08:35:30.000Z</Time>
            <Position>
              <LatitudeDegrees>43.3606781065464019775390625</LatitudeDegrees>
              <LongitudeDegrees>-4.421021081507205963134765625</LongitudeDegrees>
            </Position>
            <AltitudeMeters>63.799999237060546875</AltitudeMeters>
            <DistanceMeters>NAN</DistanceMeters>
          </Trackpoint>
          <Trackpoint>
            <Time>2022-07-15T08:35:32.000Z</Time>
            <Position>
              <LatitudeDegrees>43.36070635356009006500244140625</LatitudeDegrees>
              <LongitudeDegrees>-4.4212071597576141357421875</LongitudeDegrees>
            </Position>
            <AltitudeMeters>64</AltitudeMeters>
            <DistanceMeters>NAN</DistanceMeters>
          </Trackpoint>
          <Trackpoint>
            <Time>2022-07-15T08:35:34.000Z</Time>
            <Position>
              <LatitudeDegrees>43.36072714067995548248291015625</LatitudeDegrees>
              <LongitudeDegrees>-4.42135308869183063507080078125</LongitudeDegrees>
            </Position>
            <AltitudeMeters>64.1999969482421875</AltitudeMeters>
            <DistanceMeters>NAN</DistanceMeters>
          </Trackpoint>
          <Trackpoint>
            <Time>2022-07-15T08:35:35.000Z</Time>
            <Position>
              <LatitudeDegrees>43.36072797887027263641357421875</LatitudeDegrees>
              <LongitudeDegrees>-4.42143313586711883544921875</LongitudeDegrees>
            </Position>
            <AltitudeMeters>64.40000152587890625</AltitudeMeters>
            <DistanceMeters>NAN</DistanceMeters>
          </Trackpoint>
          <Trackpoint>
            <Time>2022-07-15T08:35:37.000Z</Time>
            <Position>
              <LatitudeDegrees>43.3607111312448978424072265625</LatitudeDegrees>
              <LongitudeDegrees>-4.4215422682464122772216796875</LongitudeDegrees>
            </Position>
            <AltitudeMeters>64.8000030517578125</AltitudeMeters>
            <DistanceMeters>NAN</DistanceMeters>
          </Trackpoint>
          <Trackpoint>
            <Time>2022-07-15T08:35:38.000Z</Time>
            <Position>
              <LatitudeDegrees>43.3606950379908084869384765625</LatitudeDegrees>
              <LongitudeDegrees>-4.42159784026443958282470703125</LongitudeDegrees>
            </Position>
            <AltitudeMeters>65</AltitudeMeters>
            <DistanceMeters>NAN</DistanceMeters>
          </Trackpoint>
          <Trackpoint>
            <Time>2022-07-15T08:35:39.000Z</Time>
            <Position>
              <LatitudeDegrees>43.36067768745124340057373046875</LatitudeDegrees>
              <LongitudeDegrees>-4.42164905369281768798828125</LongitudeDegrees>
            </Position>
            <AltitudeMeters>65.1999969482421875</AltitudeMeters>
            <DistanceMeters>NAN</DistanceMeters>
          </Trackpoint>
          <Trackpoint>
            <Time>2022-07-15T08:35:41.000Z</Time>
            <Position>
              <LatitudeDegrees>43.360625468194484710693359375</LatitudeDegrees>
              <LongitudeDegrees>-4.42175357602536678314208984375</LongitudeDegrees>
            </Position>
            <AltitudeMeters>65.40000152587890625</AltitudeMeters>
            <DistanceMeters>NAN</DistanceMeters>
          </Trackpoint>
          <Trackpoint>
            <Time>2022-07-15T08:35:42.000Z</Time>
            <Position>
              <LatitudeDegrees>43.360601998865604400634765625</LatitudeDegrees>
              <LongitudeDegrees>-4.42179481498897075653076171875</LongitudeDegrees>
            </Position>
            <AltitudeMeters>65.40000152587890625</AltitudeMeters>
            <DistanceMeters>NAN</DistanceMeters>
          </Trackpoint>
          <Trackpoint>
            <Time>2022-07-15T08:35:43.000Z</Time>
            <Position>
              <LatitudeDegrees>43.3605823852121829986572265625</LatitudeDegrees>
              <LongitudeDegrees>-4.42183018662035465240478515625</LongitudeDegrees>
            </Position>
            <AltitudeMeters>65.59999847412109375</AltitudeMeters>
            <DistanceMeters>NAN</DistanceMeters>
          </Trackpoint>
          <Trackpoint>
            <Time>2022-07-15T08:35:47.000Z</Time>
            <Position>
              <LatitudeDegrees>43.360550701618194580078125</LatitudeDegrees>
              <LongitudeDegrees>-4.422014169394969940185546875</LongitudeDegrees>
            </Position>
            <AltitudeMeters>66.1999969482421875</AltitudeMeters>
            <DistanceMeters>NAN</DistanceMeters>
          </Trackpoint>
          <Trackpoint>
            <Time>2022-07-15T08:35:50.000Z</Time>
            <Position>
              <LatitudeDegrees>43.36059152148663997650146484375</LatitudeDegrees>
              <LongitudeDegrees>-4.42216278053820133209228515625</LongitudeDegrees>
            </Position>
            <AltitudeMeters>66.40000152587890625</AltitudeMeters>
            <DistanceMeters>NAN</DistanceMeters>
          </Trackpoint>
          <Trackpoint>
            <Time>2022-07-15T08:35:51.000Z</Time>
            <Position>
              <LatitudeDegrees>43.36061113514006137847900390625</LatitudeDegrees>
              <LongitudeDegrees>-4.42220427095890045166015625</LongitudeDegrees>
            </Position>
            <AltitudeMeters>66.40000152587890625</AltitudeMeters>
            <DistanceMeters>NAN</DistanceMeters>
          </Trackpoint>
          <Trackpoint>
            <Time>2022-07-15T08:35:52.000Z</Time>
            <Position>
              <LatitudeDegrees>43.360629491508007049560546875</LatitudeDegrees>
              <LongitudeDegrees>-4.42224157042801380157470703125</LongitudeDegrees>
            </Position>
            <AltitudeMeters>66.59999847412109375</AltitudeMeters>
            <DistanceMeters>NAN</DistanceMeters>
          </Trackpoint>
          <Trackpoint>
            <Time>2022-07-15T08:35:53.000Z</Time>
            <Position>
              <LatitudeDegrees>43.36064633913338184356689453125</LatitudeDegrees>
              <LongitudeDegrees>-4.42228130064904689788818359375</LongitudeDegrees>
            </Position>
            <AltitudeMeters>66.59999847412109375</AltitudeMeters>
            <DistanceMeters>NAN</DistanceMeters>
          </Trackpoint>
          <Trackpoint>
            <Time>2022-07-15T08:35:54.000Z</Time>
            <Position>
              <LatitudeDegrees>43.36066268384456634521484375</LatitudeDegrees>
              <LongitudeDegrees>-4.42232589237391948699951171875</LongitudeDegrees>
            </Position>
            <AltitudeMeters>66.8000030517578125</AltitudeMeters>
            <DistanceMeters>NAN</DistanceMeters>
          </Trackpoint>
          <Trackpoint>
            <Time>2022-07-15T08:35:56.000Z</Time>
            <Position>
              <LatitudeDegrees>43.3606943674385547637939453125</LatitudeDegrees>
              <LongitudeDegrees>-4.42239713855087757110595703125</LongitudeDegrees>
            </Position>
            <AltitudeMeters>67</AltitudeMeters>
            <DistanceMeters>NAN</DistanceMeters>
          </Trackpoint>
          <Trackpoint>
            <Time>2022-07-15T08:35:57.000Z</Time>
            <Position>
              <LatitudeDegrees>43.36070970632135868072509765625</LatitudeDegrees>
              <LongitudeDegrees>-4.42242630757391452789306640625</LongitudeDegrees>
            </Position>
            <AltitudeMeters>67</AltitudeMeters>
            <DistanceMeters>NAN</DistanceMeters>
          </Trackpoint>
          <Trackpoint>
            <Time>2022-07-15T08:36:01.000Z</Time>
            <Position>
              <LatitudeDegrees>43.3607282303273677825927734375</LatitudeDegrees>
              <LongitudeDegrees>-4.42255035974085330963134765625</LongitudeDegrees>
            </Position>
            <AltitudeMeters>67.40000152587890625</AltitudeMeters>
            <DistanceMeters>NAN</DistanceMeters>
          </Trackpoint>
          <Trackpoint>
            <Time>2022-07-15T08:36:02.000Z</Time>
            <Position>
              <LatitudeDegrees>43.3607225306332111358642578125</LatitudeDegrees>
              <LongitudeDegrees>-4.4225910119712352752685546875</LongitudeDegrees>
            </Position>
            <AltitudeMeters>67.40000152587890625</AltitudeMeters>
            <DistanceMeters>NAN</DistanceMeters>
          </Trackpoint>
          <Trackpoint>
            <Time>2022-07-15T08:36:08.000Z</Time>
            <Position>
              <LatitudeDegrees>43.3606719039380550384521484375</LatitudeDegrees>
              <LongitudeDegrees>-4.4228163175284862518310546875</LongitudeDegrees>
            </Position>
            <AltitudeMeters>67.8000030517578125</AltitudeMeters>
            <DistanceMeters>NAN</DistanceMeters>
          </Trackpoint>
          <Trackpoint>
            <Time>2022-07-15T08:36:12.000Z</Time>
            <Position>
              <LatitudeDegrees>43.3606326766312122344970703125</LatitudeDegrees>
              <LongitudeDegrees>-4.42293928004801273345947265625</LongitudeDegrees>
            </Position>
            <AltitudeMeters>68.1999969482421875</AltitudeMeters>
            <DistanceMeters>NAN</DistanceMeters>
          </Trackpoint>
          <Trackpoint>
            <Time>2022-07-15T08:36:13.000Z</Time>
            <Position>
              <LatitudeDegrees>43.360622785985469818115234375</LatitudeDegrees>
              <LongitudeDegrees>-4.422973059117794036865234375</LongitudeDegrees>
            </Position>
            <AltitudeMeters>68.40000152587890625</AltitudeMeters>
            <DistanceMeters>NAN</DistanceMeters>
          </Trackpoint>
          <Trackpoint>
            <Time>2022-07-15T08:36:17.000Z</Time>
            <Position>
              <LatitudeDegrees>43.36057760752737522125244140625</LatitudeDegrees>
              <LongitudeDegrees>-4.4231110252439975738525390625</LongitudeDegrees>
            </Position>
            <AltitudeMeters>69</AltitudeMeters>
            <DistanceMeters>NAN</DistanceMeters>
          </Trackpoint>
          <Trackpoint>
            <Time>2022-07-15T08:36:20.000Z</Time>
            <Position>
              <LatitudeDegrees>43.36053620092570781707763671875</LatitudeDegrees>
              <LongitudeDegrees>-4.42320146597921848297119140625</LongitudeDegrees>
            </Position>
            <AltitudeMeters>69.40000152587890625</AltitudeMeters>
            <DistanceMeters>NAN</DistanceMeters>
          </Trackpoint>
          <Trackpoint>
            <Time>2022-07-15T08:36:23.000Z</Time>
            <Position>
              <LatitudeDegrees>43.360483981668949127197265625</LatitudeDegrees>
              <LongitudeDegrees>-4.4232535175979137420654296875</LongitudeDegrees>
            </Position>
            <AltitudeMeters>69.59999847412109375</AltitudeMeters>
            <DistanceMeters>NAN</DistanceMeters>
          </Trackpoint>
          <Trackpoint>
            <Time>2022-07-15T08:36:24.000Z</Time>
            <Position>
              <LatitudeDegrees>43.3604610152542591094970703125</LatitudeDegrees>
              <LongitudeDegrees>-4.42327036522328853607177734375</LongitudeDegrees>
            </Position>
            <AltitudeMeters>69.59999847412109375</AltitudeMeters>
            <DistanceMeters>NAN</DistanceMeters>
          </Trackpoint>
          <Trackpoint>
            <Time>2022-07-15T08:36:30.000Z</Time>
            <Position>
              <LatitudeDegrees>43.36028893478214740753173828125</LatitudeDegrees>
              <LongitudeDegrees>-4.4233561120927333831787109375</LongitudeDegrees>
            </Position>
            <AltitudeMeters>69.59999847412109375</AltitudeMeters>
            <DistanceMeters>NAN</DistanceMeters>
          </Trackpoint>
          <Trackpoint>
            <Time>2022-07-15T08:36:34.000Z</Time>
            <Position>
              <LatitudeDegrees>43.36013219319283962249755859375</LatitudeDegrees>
              <LongitudeDegrees>-4.423434399068355560302734375</LongitudeDegrees>
            </Position>
            <AltitudeMeters>68.8000030517578125</AltitudeMeters>
            <DistanceMeters>NAN</DistanceMeters>
          </Trackpoint>
          <Trackpoint>
            <Time>2022-07-15T08:36:35.000Z</Time>
            <Position>
              <LatitudeDegrees>43.3600866794586181640625</LatitudeDegrees>
              <LongitudeDegrees>-4.42347697913646697998046875</LongitudeDegrees>
            </Position>
            <AltitudeMeters>68.59999847412109375</AltitudeMeters>
            <DistanceMeters>NAN</DistanceMeters>
          </Trackpoint>
          <Trackpoint>
            <Time>2022-07-15T08:36:36.000Z</Time>
            <Position>
              <LatitudeDegrees>43.3600439317524433135986328125</LatitudeDegrees>
              <LongitudeDegrees>-4.42352919839322566986083984375</LongitudeDegrees>
            </Position>
            <AltitudeMeters>68.59999847412109375</AltitudeMeters>
            <DistanceMeters>NAN</DistanceMeters>
          </Trackpoint>
          <Trackpoint>
            <Time>2022-07-15T08:36:39.000Z</Time>
            <Position>
              <LatitudeDegrees>43.35992046631872653961181640625</LatitudeDegrees>
              <LongitudeDegrees>-4.42371410317718982696533203125</LongitudeDegrees>
            </Position>
            <AltitudeMeters>68.40000152587890625</AltitudeMeters>
            <DistanceMeters>NAN</DistanceMeters>
          </Trackpoint>
          <Trackpoint>
            <Time>2022-07-15T08:36:40.000Z</Time>
            <Position>
              <LatitudeDegrees>43.35988593287765979766845703125</LatitudeDegrees>
              <LongitudeDegrees>-4.4237872771918773651123046875</LongitudeDegrees>
            </Position>
            <AltitudeMeters>68.40000152587890625</AltitudeMeters>
            <DistanceMeters>NAN</DistanceMeters>
          </Trackpoint>
          <Trackpoint>
            <Time>2022-07-15T08:36:43.000Z</Time>
            <Position>
              <LatitudeDegrees>43.35979574359953403472900390625</LatitudeDegrees>
              <LongitudeDegrees>-4.4240011833608150482177734375</LongitudeDegrees>
            </Position>
            <AltitudeMeters>68</AltitudeMeters>
            <DistanceMeters>NAN</DistanceMeters>
          </Trackpoint>
          <Trackpoint>
            <Time>2022-07-15T08:36:44.000Z</Time>
            <Position>
              <LatitudeDegrees>43.35977378301322460174560546875</LatitudeDegrees>
              <LongitudeDegrees>-4.42408676259219646453857421875</LongitudeDegrees>
            </Position>
            <AltitudeMeters>68</AltitudeMeters>
            <DistanceMeters>NAN</DistanceMeters>
          </Trackpoint>
          <Trackpoint>
            <Time>2022-07-15T08:36:46.000Z</Time>
            <Position>
              <LatitudeDegrees>43.35973505862057209014892578125</LatitudeDegrees>
              <LongitudeDegrees>-4.42422875203192234039306640625</LongitudeDegrees>
            </Position>
            <AltitudeMeters>68</AltitudeMeters>
            <DistanceMeters>NAN</DistanceMeters>
          </Trackpoint>
          <Trackpoint>
            <Time>2022-07-15T08:36:52.000Z</Time>
            <Position>
              <LatitudeDegrees>43.3596432767808437347412109375</LatitudeDegrees>
              <LongitudeDegrees>-4.42461582832038402557373046875</LongitudeDegrees>
            </Position>
            <AltitudeMeters>68.1999969482421875</AltitudeMeters>
            <DistanceMeters>NAN</DistanceMeters>
          </Trackpoint>
          <Trackpoint>
            <Time>2022-07-15T08:36:53.000Z</Time>
            <Position>
              <LatitudeDegrees>43.35963581688702106475830078125</LatitudeDegrees>
              <LongitudeDegrees>-4.42466964013874530792236328125</LongitudeDegrees>
            </Position>
            <AltitudeMeters>68.40000152587890625</AltitudeMeters>
            <DistanceMeters>NAN</DistanceMeters>
          </Trackpoint>
          <Trackpoint>
            <Time>2022-07-15T08:36:59.000Z</Time>
            <Position>
              <LatitudeDegrees>43.359600193798542022705078125</LatitudeDegrees>
              <LongitudeDegrees>-4.42493031732738018035888671875</LongitudeDegrees>
            </Position>
            <AltitudeMeters>69</AltitudeMeters>
            <DistanceMeters>NAN</DistanceMeters>
          </Trackpoint>
          <Trackpoint>
            <Time>2022-07-15T08:37:02.000Z</Time>
            <Position>
              <LatitudeDegrees>43.3596043847501277923583984375</LatitudeDegrees>
              <LongitudeDegrees>-4.4250599853694438934326171875</LongitudeDegrees>
            </Position>
            <AltitudeMeters>69.40000152587890625</AltitudeMeters>
            <DistanceMeters>NAN</DistanceMeters>
          </Trackpoint>
          <Trackpoint>
            <Time>2022-07-15T08:37:05.000Z</Time>
            <Position>
              <LatitudeDegrees>43.35961905308067798614501953125</LatitudeDegrees>
              <LongitudeDegrees>-4.4251803494989871978759765625</LongitudeDegrees>
            </Position>
            <AltitudeMeters>69.59999847412109375</AltitudeMeters>
            <DistanceMeters>NAN</DistanceMeters>
          </Trackpoint>
          <Trackpoint>
            <Time>2022-07-15T08:37:06.000Z</Time>
            <Position>
              <LatitudeDegrees>43.3596228249371051788330078125</LatitudeDegrees>
              <LongitudeDegrees>-4.42522108554840087890625</LongitudeDegrees>
            </Position>
            <AltitudeMeters>69.8000030517578125</AltitudeMeters>
            <DistanceMeters>NAN</DistanceMeters>
          </Trackpoint>
          <Trackpoint>
            <Time>2022-07-15T08:37:15.000Z</Time>
            <Position>
              <LatitudeDegrees>43.35965283215045928955078125</LatitudeDegrees>
              <LongitudeDegrees>-4.42556214518845081329345703125</LongitudeDegrees>
            </Position>
            <AltitudeMeters>70.1999969482421875</AltitudeMeters>
            <DistanceMeters>NAN</DistanceMeters>
          </Trackpoint>
          <Trackpoint>
            <Time>2022-07-15T08:37:24.000Z</Time>
            <Position>
              <LatitudeDegrees>43.35963673889636993408203125</LatitudeDegrees>
              <LongitudeDegrees>-4.42593396641314029693603515625</LongitudeDegrees>
            </Position>
            <AltitudeMeters>70.40000152587890625</AltitudeMeters>
            <DistanceMeters>NAN</DistanceMeters>
          </Trackpoint>
          <Trackpoint>
            <Time>2022-07-15T08:37:27.000Z</Time>
            <Position>
              <LatitudeDegrees>43.359622992575168609619140625</LatitudeDegrees>
              <LongitudeDegrees>-4.42606187425553798675537109375</LongitudeDegrees>
            </Position>
            <AltitudeMeters>70.59999847412109375</AltitudeMeters>
            <DistanceMeters>NAN</DistanceMeters>
          </Trackpoint>
          <Trackpoint>
            <Time>2022-07-15T08:37:30.000Z</Time>
            <Position>
              <LatitudeDegrees>43.359599523246288299560546875</LatitudeDegrees>
              <LongitudeDegrees>-4.4261932186782360076904296875</LongitudeDegrees>
            </Position>
            <AltitudeMeters>70.59999847412109375</AltitudeMeters>
            <DistanceMeters>NAN</DistanceMeters>
          </Trackpoint>
          <Trackpoint>
            <Time>2022-07-15T08:37:33.000Z</Time>
            <Position>
              <LatitudeDegrees>43.35954797454178333282470703125</LatitudeDegrees>
              <LongitudeDegrees>-4.42631215788424015045166015625</LongitudeDegrees>
            </Position>
            <AltitudeMeters>70.59999847412109375</AltitudeMeters>
            <DistanceMeters>NAN</DistanceMeters>
          </Trackpoint>
          <Trackpoint>
            <Time>2022-07-15T08:37:38.000Z</Time>
            <Position>
              <LatitudeDegrees>43.359365165233612060546875</LatitudeDegrees>
              <LongitudeDegrees>-4.42641978152096271514892578125</LongitudeDegrees>
            </Position>
            <AltitudeMeters>70.40000152587890625</AltitudeMeters>
            <DistanceMeters>NAN</DistanceMeters>
          </Trackpoint>
          <Trackpoint>
            <Time>2022-07-15T08:37:42.000Z</Time>
            <Position>
              <LatitudeDegrees>43.359195180237293243408203125</LatitudeDegrees>
              <LongitudeDegrees>-4.42648884840309619903564453125</LongitudeDegrees>
            </Position>
            <AltitudeMeters>70.40000152587890625</AltitudeMeters>
            <DistanceMeters>NAN</DistanceMeters>
          </Trackpoint>
          <Trackpoint>
            <Time>2022-07-15T08:37:43.000Z</Time>
            <Position>
              <LatitudeDegrees>43.3591546118259429931640625</LatitudeDegrees>
              <LongitudeDegrees>-4.42651449702680110931396484375</LongitudeDegrees>
            </Position>
            <AltitudeMeters>70.40000152587890625</AltitudeMeters>
            <DistanceMeters>NAN</DistanceMeters>
          </Trackpoint>
          <Trackpoint>
            <Time>2022-07-15T08:37:44.000Z</Time>
            <Position>
              <LatitudeDegrees>43.35912167094647884368896484375</LatitudeDegrees>
              <LongitudeDegrees>-4.4265435822308063507080078125</LongitudeDegrees>
            </Position>
            <AltitudeMeters>70.40000152587890625</AltitudeMeters>
            <DistanceMeters>NAN</DistanceMeters>
          </Trackpoint>
          <Trackpoint>
            <Time>2022-07-15T08:37:50.000Z</Time>
            <Position>
              <LatitudeDegrees>43.35899611003696918487548828125</LatitudeDegrees>
              <LongitudeDegrees>-4.42675069905817508697509765625</LongitudeDegrees>
            </Position>
            <AltitudeMeters>70.40000152587890625</AltitudeMeters>
            <DistanceMeters>NAN</DistanceMeters>
          </Trackpoint>
          <Trackpoint>
            <Time>2022-07-15T08:37:53.000Z</Time>
            <Position>
              <LatitudeDegrees>43.35895302705466747283935546875</LatitudeDegrees>
              <LongitudeDegrees>-4.42685027606785297393798828125</LongitudeDegrees>
            </Position>
            <AltitudeMeters>70.8000030517578125</AltitudeMeters>
            <DistanceMeters>NAN</DistanceMeters>
          </Trackpoint>
          <Trackpoint>
            <Time>2022-07-15T08:37:56.000Z</Time>
            <Position>
              <LatitudeDegrees>43.3589130453765392303466796875</LatitudeDegrees>
              <LongitudeDegrees>-4.42693895660340785980224609375</LongitudeDegrees>
            </Position>
            <AltitudeMeters>71</AltitudeMeters>
            <DistanceMeters>NAN</DistanceMeters>
          </Trackpoint>
          <Trackpoint>
            <Time>2022-07-15T08:38:03.000Z</Time>
            <Position>
              <LatitudeDegrees>43.35882729850709438323974609375</LatitudeDegrees>
              <LongitudeDegrees>-4.42715370096266269683837890625</LongitudeDegrees>
            </Position>
            <AltitudeMeters>71.59999847412109375</AltitudeMeters>
            <DistanceMeters>NAN</DistanceMeters>
          </Trackpoint>
          <Trackpoint>
            <Time>2022-07-15T08:38:05.000Z</Time>
            <Position>
              <LatitudeDegrees>43.3588101156055927276611328125</LatitudeDegrees>
              <LongitudeDegrees>-4.42720985971391201019287109375</LongitudeDegrees>
            </Position>
            <AltitudeMeters>71.8000030517578125</AltitudeMeters>
            <DistanceMeters>NAN</DistanceMeters>
          </Trackpoint>
          <Trackpoint>
            <Time>2022-07-15T08:38:13.000Z</Time>
            <Position>
              <LatitudeDegrees>43.35873694159090518951416015625</LatitudeDegrees>
              <LongitudeDegrees>-4.4274176470935344696044921875</LongitudeDegrees>
            </Position>
            <AltitudeMeters>72.59999847412109375</AltitudeMeters>
            <DistanceMeters>NAN</DistanceMeters>
          </Trackpoint>
          <Trackpoint>
            <Time>2022-07-15T08:38:20.000Z</Time>
            <Position>
              <LatitudeDegrees>43.3586840517818927764892578125</LatitudeDegrees>
              <LongitudeDegrees>-4.42757832817733287811279296875</LongitudeDegrees>
            </Position>
            <AltitudeMeters>73.1999969482421875</AltitudeMeters>
            <DistanceMeters>NAN</DistanceMeters>
          </Trackpoint>
          <Trackpoint>
            <Time>2022-07-15T08:38:21.000Z</Time>
            <Position>
              <LatitudeDegrees>43.35868111811578273773193359375</LatitudeDegrees>
              <LongitudeDegrees>-4.4276023842394351959228515625</LongitudeDegrees>
            </Position>
            <AltitudeMeters>73.40000152587890625</AltitudeMeters>
            <DistanceMeters>NAN</DistanceMeters>
          </Trackpoint>
          <Trackpoint>
            <Time>2022-07-15T08:38:25.000Z</Time>
            <Position>
              <LatitudeDegrees>43.358667790889739990234375</LatitudeDegrees>
              <LongitudeDegrees>-4.42771218717098236083984375</LongitudeDegrees>
            </Position>
            <AltitudeMeters>73.8000030517578125</AltitudeMeters>
            <DistanceMeters>NAN</DistanceMeters>
          </Trackpoint>
          <Trackpoint>
            <Time>2022-07-15T08:38:29.000Z</Time>
            <Position>
              <LatitudeDegrees>43.3586637675762176513671875</LatitudeDegrees>
              <LongitudeDegrees>-4.42779441364109516143798828125</LongitudeDegrees>
            </Position>
            <AltitudeMeters>74</AltitudeMeters>
            <DistanceMeters>NAN</DistanceMeters>
          </Trackpoint>
          <Trackpoint>
            <Time>2022-07-15T08:38:30.000Z</Time>
            <Position>
              <LatitudeDegrees>43.358662091195583343505859375</LatitudeDegrees>
              <LongitudeDegrees>-4.4278129376471042633056640625</LongitudeDegrees>
            </Position>
            <AltitudeMeters>74.1999969482421875</AltitudeMeters>
            <DistanceMeters>NAN</DistanceMeters>
          </Trackpoint>
          <Trackpoint>
            <Time>2022-07-15T08:38:34.000Z</Time>
            <Position>
              <LatitudeDegrees>43.35866368375718593597412109375</LatitudeDegrees>
              <LongitudeDegrees>-4.4278947450220584869384765625</LongitudeDegrees>
            </Position>
            <AltitudeMeters>74.40000152587890625</AltitudeMeters>
            <DistanceMeters>NAN</DistanceMeters>
          </Trackpoint>
          <Trackpoint>
            <Time>2022-07-15T08:38:40.000Z</Time>
            <Position>
              <LatitudeDegrees>43.3586449921131134033203125</LatitudeDegrees>
              <LongitudeDegrees>-4.428007900714874267578125</LongitudeDegrees>
            </Position>
            <AltitudeMeters>74.8000030517578125</AltitudeMeters>
            <DistanceMeters>NAN</DistanceMeters>
          </Trackpoint>
          <Trackpoint>
            <Time>2022-07-15T08:38:41.000Z</Time>
            <Position>
              <LatitudeDegrees>43.3586421422660350799560546875</LatitudeDegrees>
              <LongitudeDegrees>-4.428028352558612823486328125</LongitudeDegrees>
            </Position>
            <AltitudeMeters>75</AltitudeMeters>
            <DistanceMeters>NAN</DistanceMeters>
          </Trackpoint>
          <Trackpoint>
            <Time>2022-07-15T08:38:48.000Z</Time>
            <Position>
              <LatitudeDegrees>43.3586099557578563690185546875</LatitudeDegrees>
              <LongitudeDegrees>-4.42817813716828823089599609375</LongitudeDegrees>
            </Position>
            <AltitudeMeters>75.40000152587890625</AltitudeMeters>
            <DistanceMeters>NAN</DistanceMeters>
          </Trackpoint>
          <Trackpoint>
            <Time>2022-07-15T08:38:49.000Z</Time>
            <Position>
              <LatitudeDegrees>43.3586069382727146148681640625</LatitudeDegrees>
              <LongitudeDegrees>-4.42819456569850444793701171875</LongitudeDegrees>
            </Position>
            <AltitudeMeters>75.59999847412109375</AltitudeMeters>
            <DistanceMeters>NAN</DistanceMeters>
          </Trackpoint>
          <Trackpoint>
            <Time>2022-07-15T08:38:53.000Z</Time>
            <Position>
              <LatitudeDegrees>43.3585848100483417510986328125</LatitudeDegrees>
              <LongitudeDegrees>-4.428273104131221771240234375</LongitudeDegrees>
            </Position>
            <AltitudeMeters>75.8000030517578125</AltitudeMeters>
            <DistanceMeters>NAN</DistanceMeters>
          </Trackpoint>
          <Trackpoint>
            <Time>2022-07-15T08:38:54.000Z</Time>
            <Position>
              <LatitudeDegrees>43.35858724080026149749755859375</LatitudeDegrees>
              <LongitudeDegrees>-4.42829062230885028839111328125</LongitudeDegrees>
            </Position>
            <AltitudeMeters>75.8000030517578125</AltitudeMeters>
            <DistanceMeters>NAN</DistanceMeters>
          </Trackpoint>
          <Trackpoint>
            <Time>2022-07-15T08:39:00.000Z</Time>
            <Position>
              <LatitudeDegrees>43.3585988916456699371337890625</LatitudeDegrees>
              <LongitudeDegrees>-4.42838835529983043670654296875</LongitudeDegrees>
            </Position>
            <AltitudeMeters>76.1999969482421875</AltitudeMeters>
            <DistanceMeters>NAN</DistanceMeters>
          </Trackpoint>
          <Trackpoint>
            <Time>2022-07-15T08:39:05.000Z</Time>
            <Position>
              <LatitudeDegrees>43.3585757575929164886474609375</LatitudeDegrees>
              <LongitudeDegrees>-4.4285096414387226104736328125</LongitudeDegrees>
            </Position>
            <AltitudeMeters>76.8000030517578125</AltitudeMeters>
            <DistanceMeters>NAN</DistanceMeters>
          </Trackpoint>
          <Trackpoint>
            <Time>2022-07-15T08:39:07.000Z</Time>
            <Position>
              <LatitudeDegrees>43.35856511257588863372802734375</LatitudeDegrees>
              <LongitudeDegrees>-4.4285679794847965240478515625</LongitudeDegrees>
            </Position>
            <AltitudeMeters>76.8000030517578125</AltitudeMeters>
            <DistanceMeters>NAN</DistanceMeters>
          </Trackpoint>
          <Trackpoint>
            <Time>2022-07-15T08:39:15.000Z</Time>
            <Position>
              <LatitudeDegrees>43.3585412241518497467041015625</LatitudeDegrees>
              <LongitudeDegrees>-4.428770653903484344482421875</LongitudeDegrees>
            </Position>
            <AltitudeMeters>77.40000152587890625</AltitudeMeters>
            <DistanceMeters>NAN</DistanceMeters>
          </Trackpoint>
          <Trackpoint>
            <Time>2022-07-15T08:39:21.000Z</Time>
            <Position>
              <LatitudeDegrees>43.35853912867605686187744140625</LatitudeDegrees>
              <LongitudeDegrees>-4.42892161197960376739501953125</LongitudeDegrees>
            </Position>
            <AltitudeMeters>77.8000030517578125</AltitudeMeters>
            <DistanceMeters>NAN</DistanceMeters>
          </Trackpoint>
          <Trackpoint>
            <Time>2022-07-15T08:39:23.000Z</Time>
            <Position>
              <LatitudeDegrees>43.35855119861662387847900390625</LatitudeDegrees>
              <LongitudeDegrees>-4.428973160684108734130859375</LongitudeDegrees>
            </Position>
            <AltitudeMeters>78</AltitudeMeters>
            <DistanceMeters>NAN</DistanceMeters>
          </Trackpoint>
          <Trackpoint>
            <Time>2022-07-15T08:39:29.000Z</Time>
            <Position>
              <LatitudeDegrees>43.3585341833531856536865234375</LatitudeDegrees>
              <LongitudeDegrees>-4.4291302375495433807373046875</LongitudeDegrees>
            </Position>
            <AltitudeMeters>78.40000152587890625</AltitudeMeters>
            <DistanceMeters>NAN</DistanceMeters>
          </Trackpoint>
          <Trackpoint>
            <Time>2022-07-15T08:39:31.000Z</Time>
            <Position>
              <LatitudeDegrees>43.3585311658680438995361328125</LatitudeDegrees>
              <LongitudeDegrees>-4.42917424254119396209716796875</LongitudeDegrees>
            </Position>
            <AltitudeMeters>78.59999847412109375</AltitudeMeters>
            <DistanceMeters>NAN</DistanceMeters>
          </Trackpoint>
          <Trackpoint>
            <Time>2022-07-15T08:39:36.000Z</Time>
            <Position>
              <LatitudeDegrees>43.35853627882897853851318359375</LatitudeDegrees>
              <LongitudeDegrees>-4.42928689531981945037841796875</LongitudeDegrees>
            </Position>
            <AltitudeMeters>79</AltitudeMeters>
            <DistanceMeters>NAN</DistanceMeters>
          </Trackpoint>
          <Trackpoint>
            <Time>2022-07-15T08:39:44.000Z</Time>
            <Position>
              <LatitudeDegrees>43.35854013450443744659423828125</LatitudeDegrees>
              <LongitudeDegrees>-4.42947305738925933837890625</LongitudeDegrees>
            </Position>
            <AltitudeMeters>79.40000152587890625</AltitudeMeters>
            <DistanceMeters>NAN</DistanceMeters>
          </Trackpoint>
          <Trackpoint>
            <Time>2022-07-15T08:39:52.000Z</Time>
            <Position>
              <LatitudeDegrees>43.3585589937865734100341796875</LatitudeDegrees>
              <LongitudeDegrees>-4.4296251051127910614013671875</LongitudeDegrees>
            </Position>
            <AltitudeMeters>80</AltitudeMeters>
            <DistanceMeters>NAN</DistanceMeters>
          </Trackpoint>
          <Trackpoint>
            <Time>2022-07-15T08:39:54.000Z</Time>
            <Position>
              <LatitudeDegrees>43.3585653640329837799072265625</LatitudeDegrees>
              <LongitudeDegrees>-4.42965771071612834930419921875</LongitudeDegrees>
            </Position>
            <AltitudeMeters>80</AltitudeMeters>
            <DistanceMeters>NAN</DistanceMeters>
          </Trackpoint>
          <Trackpoint>
            <Time>2022-07-15T08:40:01.000Z</Time>
            <Position>
              <LatitudeDegrees>43.35861121304333209991455078125</LatitudeDegrees>
              <LongitudeDegrees>-4.42979517392814159393310546875</LongitudeDegrees>
            </Position>
            <AltitudeMeters>80.59999847412109375</AltitudeMeters>
            <DistanceMeters>NAN</DistanceMeters>
          </Trackpoint>
          <Trackpoint>
            <Time>2022-07-15T08:40:08.000Z</Time>
            <Position>
              <LatitudeDegrees>43.35865362547338008880615234375</LatitudeDegrees>
              <LongitudeDegrees>-4.429943449795246124267578125</LongitudeDegrees>
            </Position>
            <AltitudeMeters>81</AltitudeMeters>
            <DistanceMeters>NAN</DistanceMeters>
          </Trackpoint>
          <Trackpoint>
            <Time>2022-07-15T08:40:12.000Z</Time>
            <Position>
              <LatitudeDegrees>43.358690254390239715576171875</LatitudeDegrees>
              <LongitudeDegrees>-4.4300502352416515350341796875</LongitudeDegrees>
            </Position>
            <AltitudeMeters>81.1999969482421875</AltitudeMeters>
            <DistanceMeters>NAN</DistanceMeters>
          </Trackpoint>
          <Trackpoint>
            <Time>2022-07-15T08:40:15.000Z</Time>
            <Position>
              <LatitudeDegrees>43.35871514864265918731689453125</LatitudeDegrees>
              <LongitudeDegrees>-4.43015635013580322265625</LongitudeDegrees>
            </Position>
            <AltitudeMeters>81.40000152587890625</AltitudeMeters>
            <DistanceMeters>NAN</DistanceMeters>
          </Trackpoint>
          <Trackpoint>
            <Time>2022-07-15T08:40:22.000Z</Time>
            <Position>
              <LatitudeDegrees>43.35877566598355770111083984375</LatitudeDegrees>
              <LongitudeDegrees>-4.43038425408303737640380859375</LongitudeDegrees>
            </Position>
            <AltitudeMeters>81.8000030517578125</AltitudeMeters>
            <DistanceMeters>NAN</DistanceMeters>
          </Trackpoint>
          <Trackpoint>
            <Time>2022-07-15T08:40:29.000Z</Time>
            <Position>
              <LatitudeDegrees>43.358816988766193389892578125</LatitudeDegrees>
              <LongitudeDegrees>-4.43055273033678531646728515625</LongitudeDegrees>
            </Position>
            <AltitudeMeters>82.1999969482421875</AltitudeMeters>
            <DistanceMeters>NAN</DistanceMeters>
          </Trackpoint>
          <Trackpoint>
            <Time>2022-07-15T08:40:36.000Z</Time>
            <Position>
              <LatitudeDegrees>43.358869291841983795166015625</LatitudeDegrees>
              <LongitudeDegrees>-4.430724643170833587646484375</LongitudeDegrees>
            </Position>
            <AltitudeMeters>82.59999847412109375</AltitudeMeters>
            <DistanceMeters>NAN</DistanceMeters>
          </Trackpoint>
          <Trackpoint>
            <Time>2022-07-15T08:40:37.000Z</Time>
            <Position>
              <LatitudeDegrees>43.35887432098388671875</LatitudeDegrees>
              <LongitudeDegrees>-4.4307489506900310516357421875</LongitudeDegrees>
            </Position>
            <AltitudeMeters>82.8000030517578125</AltitudeMeters>
            <DistanceMeters>NAN</DistanceMeters>
          </Trackpoint>
          <Trackpoint>
            <Time>2022-07-15T08:40:45.000Z</Time>
            <Position>
              <LatitudeDegrees>43.358941040933132171630859375</LatitudeDegrees>
              <LongitudeDegrees>-4.4310309179127216339111328125</LongitudeDegrees>
            </Position>
            <AltitudeMeters>83.1999969482421875</AltitudeMeters>
            <DistanceMeters>NAN</DistanceMeters>
          </Trackpoint>
          <Trackpoint>
            <Time>2022-07-15T08:40:48.000Z</Time>
            <Position>
              <LatitudeDegrees>43.35897783748805522918701171875</LatitudeDegrees>
              <LongitudeDegrees>-4.43114449270069599151611328125</LongitudeDegrees>
            </Position>
            <AltitudeMeters>83.1999969482421875</AltitudeMeters>
            <DistanceMeters>NAN</DistanceMeters>
          </Trackpoint>
          <Trackpoint>
            <Time>2022-07-15T08:40:51.000Z</Time>
            <Position>
              <LatitudeDegrees>43.35901035927236080169677734375</LatitudeDegrees>
              <LongitudeDegrees>-4.43125882185995578765869140625</LongitudeDegrees>
            </Position>
            <AltitudeMeters>83.1999969482421875</AltitudeMeters>
            <DistanceMeters>NAN</DistanceMeters>
          </Trackpoint>
          <Trackpoint>
            <Time>2022-07-15T08:40:58.000Z</Time>
            <Position>
              <LatitudeDegrees>43.359055034816265106201171875</LatitudeDegrees>
              <LongitudeDegrees>-4.43151824176311492919921875</LongitudeDegrees>
            </Position>
            <AltitudeMeters>83.40000152587890625</AltitudeMeters>
            <DistanceMeters>NAN</DistanceMeters>
          </Trackpoint>
          <Trackpoint>
            <Time>2022-07-15T08:41:01.000Z</Time>
            <Position>
              <LatitudeDegrees>43.35908822715282440185546875</LatitudeDegrees>
              <LongitudeDegrees>-4.43161614239215850830078125</LongitudeDegrees>
            </Position>
            <AltitudeMeters>83.59999847412109375</AltitudeMeters>
            <DistanceMeters>NAN</DistanceMeters>
          </Trackpoint>
          <Trackpoint>
            <Time>2022-07-15T08:41:06.000Z</Time>
            <Position>
              <LatitudeDegrees>43.3591363392770290374755859375</LatitudeDegrees>
              <LongitudeDegrees>-4.431799538433551788330078125</LongitudeDegrees>
            </Position>
            <AltitudeMeters>84</AltitudeMeters>
            <DistanceMeters>NAN</DistanceMeters>
          </Trackpoint>
          <Trackpoint>
            <Time>2022-07-15T08:41:14.000Z</Time>
            <Position>
              <LatitudeDegrees>43.3592174760997295379638671875</LatitudeDegrees>
              <LongitudeDegrees>-4.4320499897003173828125</LongitudeDegrees>
            </Position>
            <AltitudeMeters>84.1999969482421875</AltitudeMeters>
            <DistanceMeters>NAN</DistanceMeters>
          </Trackpoint>
          <Trackpoint>
            <Time>2022-07-15T08:41:15.000Z</Time>
            <Position>
              <LatitudeDegrees>43.35922376252710819244384765625</LatitudeDegrees>
              <LongitudeDegrees>-4.43207236938178539276123046875</LongitudeDegrees>
            </Position>
            <AltitudeMeters>84.40000152587890625</AltitudeMeters>
            <DistanceMeters>NAN</DistanceMeters>
          </Trackpoint>
          <Trackpoint>
            <Time>2022-07-15T08:41:24.000Z</Time>
            <Position>
              <LatitudeDegrees>43.35930255241692066192626953125</LatitudeDegrees>
              <LongitudeDegrees>-4.43231862969696521759033203125</LongitudeDegrees>
            </Position>
            <AltitudeMeters>85.1999969482421875</AltitudeMeters>
            <DistanceMeters>NAN</DistanceMeters>
          </Trackpoint>
          <Trackpoint>
            <Time>2022-07-15T08:41:25.000Z</Time>
            <Position>
              <LatitudeDegrees>43.35930825211107730865478515625</LatitudeDegrees>
              <LongitudeDegrees>-4.432338662445545196533203125</LongitudeDegrees>
            </Position>
            <AltitudeMeters>85.1999969482421875</AltitudeMeters>
            <DistanceMeters>NAN</DistanceMeters>
          </Trackpoint>
          <Trackpoint>
            <Time>2022-07-15T08:41:32.000Z</Time>
            <Position>
              <LatitudeDegrees>43.3593472279608249664306640625</LatitudeDegrees>
              <LongitudeDegrees>-4.43249934352934360504150390625</LongitudeDegrees>
            </Position>
            <AltitudeMeters>85.8000030517578125</AltitudeMeters>
            <DistanceMeters>NAN</DistanceMeters>
          </Trackpoint>
          <Trackpoint>
            <Time>2022-07-15T08:41:35.000Z</Time>
            <Position>
              <LatitudeDegrees>43.35936005227267742156982421875</LatitudeDegrees>
              <LongitudeDegrees>-4.4325555860996246337890625</LongitudeDegrees>
            </Position>
            <AltitudeMeters>86</AltitudeMeters>
            <DistanceMeters>NAN</DistanceMeters>
          </Trackpoint>
          <Trackpoint>
            <Time>2022-07-15T08:41:38.000Z</Time>
            <Position>
              <LatitudeDegrees>43.35937631316483020782470703125</LatitudeDegrees>
              <LongitudeDegrees>-4.43263982422649860382080078125</LongitudeDegrees>
            </Position>
            <AltitudeMeters>86.1999969482421875</AltitudeMeters>
            <DistanceMeters>NAN</DistanceMeters>
          </Trackpoint>
          <Trackpoint>
            <Time>2022-07-15T08:41:40.000Z</Time>
            <Position>
              <LatitudeDegrees>43.35938972420990467071533203125</LatitudeDegrees>
              <LongitudeDegrees>-4.43267184309661388397216796875</LongitudeDegrees>
            </Position>
            <AltitudeMeters>86.59999847412109375</AltitudeMeters>
            <DistanceMeters>NAN</DistanceMeters>
          </Trackpoint>
          <Trackpoint>
            <Time>2022-07-15T08:41:46.000Z</Time>
            <Position>
              <LatitudeDegrees>43.35941771976649761199951171875</LatitudeDegrees>
              <LongitudeDegrees>-4.43278349004685878753662109375</LongitudeDegrees>
            </Position>
            <AltitudeMeters>87.1999969482421875</AltitudeMeters>
            <DistanceMeters>NAN</DistanceMeters>
          </Trackpoint>
          <Trackpoint>
            <Time>2022-07-15T08:41:47.000Z</Time>
            <Position>
              <LatitudeDegrees>43.35942006669938564300537109375</LatitudeDegrees>
              <LongitudeDegrees>-4.43280436098575592041015625</LongitudeDegrees>
            </Position>
            <AltitudeMeters>87.40000152587890625</AltitudeMeters>
            <DistanceMeters>NAN</DistanceMeters>
          </Trackpoint>
          <Trackpoint>
            <Time>2022-07-15T08:41:48.000Z</Time>
            <Position>
              <LatitudeDegrees>43.359424509108066558837890625</LatitudeDegrees>
              <LongitudeDegrees>-4.4328290037810802459716796875</LongitudeDegrees>
            </Position>
            <AltitudeMeters>87.40000152587890625</AltitudeMeters>
            <DistanceMeters>NAN</DistanceMeters>
          </Trackpoint>
          <Trackpoint>
            <Time>2022-07-15T08:41:56.000Z</Time>
            <Position>
              <LatitudeDegrees>43.3594726212322711944580078125</LatitudeDegrees>
              <LongitudeDegrees>-4.43299756385385990142822265625</LongitudeDegrees>
            </Position>
            <AltitudeMeters>88.40000152587890625</AltitudeMeters>
            <DistanceMeters>NAN</DistanceMeters>
          </Trackpoint>
          <Trackpoint>
            <Time>2022-07-15T08:41:57.000Z</Time>
            <Position>
              <LatitudeDegrees>43.35947656072676181793212890625</LatitudeDegrees>
              <LongitudeDegrees>-4.4330140762031078338623046875</LongitudeDegrees>
            </Position>
            <AltitudeMeters>88.40000152587890625</AltitudeMeters>
            <DistanceMeters>NAN</DistanceMeters>
          </Trackpoint>
          <Trackpoint>
            <Time>2022-07-15T08:41:59.000Z</Time>
            <Position>
              <LatitudeDegrees>43.35949164815247058868408203125</LatitudeDegrees>
              <LongitudeDegrees>-4.4330553151667118072509765625</LongitudeDegrees>
            </Position>
            <AltitudeMeters>88.59999847412109375</AltitudeMeters>
            <DistanceMeters>NAN</DistanceMeters>
          </Trackpoint>
          <Trackpoint>
            <Time>2022-07-15T08:42:01.000Z</Time>
            <Position>
              <LatitudeDegrees>43.35950505919754505157470703125</LatitudeDegrees>
              <LongitudeDegrees>-4.4330928660929203033447265625</LongitudeDegrees>
            </Position>
            <AltitudeMeters>88.8000030517578125</AltitudeMeters>
            <DistanceMeters>NAN</DistanceMeters>
          </Trackpoint>
          <Trackpoint>
            <Time>2022-07-15T08:42:07.000Z</Time>
            <Position>
              <LatitudeDegrees>43.359531797468662261962890625</LatitudeDegrees>
              <LongitudeDegrees>-4.433198310434818267822265625</LongitudeDegrees>
            </Position>
            <AltitudeMeters>89.59999847412109375</AltitudeMeters>
            <DistanceMeters>NAN</DistanceMeters>
          </Trackpoint>
          <Trackpoint>
            <Time>2022-07-15T08:42:09.000Z</Time>
            <Position>
              <LatitudeDegrees>43.35953908972442150115966796875</LatitudeDegrees>
              <LongitudeDegrees>-4.4332286529242992401123046875</LongitudeDegrees>
            </Position>
            <AltitudeMeters>89.59999847412109375</AltitudeMeters>
            <DistanceMeters>NAN</DistanceMeters>
          </Trackpoint>
          <Trackpoint>
            <Time>2022-07-15T08:42:15.000Z</Time>
            <Position>
              <LatitudeDegrees>43.3595695160329341888427734375</LatitudeDegrees>
              <LongitudeDegrees>-4.43332328461110591888427734375</LongitudeDegrees>
            </Position>
            <AltitudeMeters>90.40000152587890625</AltitudeMeters>
            <DistanceMeters>NAN</DistanceMeters>
          </Trackpoint>
          <Trackpoint>
            <Time>2022-07-15T08:42:16.000Z</Time>
            <Position>
              <LatitudeDegrees>43.35957697592675685882568359375</LatitudeDegrees>
              <LongitudeDegrees>-4.4333389587700366973876953125</LongitudeDegrees>
            </Position>
            <AltitudeMeters>90.59999847412109375</AltitudeMeters>
            <DistanceMeters>NAN</DistanceMeters>
          </Trackpoint>
          <Trackpoint>
            <Time>2022-07-15T08:42:19.000Z</Time>
            <Position>
              <LatitudeDegrees>43.35958854295313358306884765625</LatitudeDegrees>
              <LongitudeDegrees>-4.433388411998748779296875</LongitudeDegrees>
            </Position>
            <AltitudeMeters>90.8000030517578125</AltitudeMeters>
            <DistanceMeters>NAN</DistanceMeters>
          </Trackpoint>
          <Trackpoint>
            <Time>2022-07-15T08:42:22.000Z</Time>
            <Position>
              <LatitudeDegrees>43.35959851741790771484375</LatitudeDegrees>
              <LongitudeDegrees>-4.43345454521477222442626953125</LongitudeDegrees>
            </Position>
            <AltitudeMeters>91</AltitudeMeters>
            <DistanceMeters>NAN</DistanceMeters>
          </Trackpoint>
          <Trackpoint>
            <Time>2022-07-15T08:42:25.000Z</Time>
            <Position>
              <LatitudeDegrees>43.35961385630071163177490234375</LatitudeDegrees>
              <LongitudeDegrees>-4.43350466899573802947998046875</LongitudeDegrees>
            </Position>
            <AltitudeMeters>91.40000152587890625</AltitudeMeters>
            <DistanceMeters>NAN</DistanceMeters>
          </Trackpoint>
          <Trackpoint>
            <Time>2022-07-15T08:42:28.000Z</Time>
            <Position>
              <LatitudeDegrees>43.35960480384528636932373046875</LatitudeDegrees>
              <LongitudeDegrees>-4.43357013165950775146484375</LongitudeDegrees>
            </Position>
            <AltitudeMeters>91.59999847412109375</AltitudeMeters>
            <DistanceMeters>NAN</DistanceMeters>
          </Trackpoint>
          <Trackpoint>
            <Time>2022-07-15T08:42:29.000Z</Time>
            <Position>
              <LatitudeDegrees>43.35960580967366695404052734375</LatitudeDegrees>
              <LongitudeDegrees>-4.43358664400875568389892578125</LongitudeDegrees>
            </Position>
            <AltitudeMeters>91.59999847412109375</AltitudeMeters>
            <DistanceMeters>NAN</DistanceMeters>
          </Trackpoint>
          <Trackpoint>
            <Time>2022-07-15T08:42:33.000Z</Time>
            <Position>
              <LatitudeDegrees>43.359616287052631378173828125</LatitudeDegrees>
              <LongitudeDegrees>-4.43365151993930339813232421875</LongitudeDegrees>
            </Position>
            <AltitudeMeters>92</AltitudeMeters>
            <DistanceMeters>NAN</DistanceMeters>
          </Trackpoint>
          <Trackpoint>
            <Time>2022-07-15T08:42:35.000Z</Time>
            <Position>
              <LatitudeDegrees>43.35961519740521907806396484375</LatitudeDegrees>
              <LongitudeDegrees>-4.43369946442544460296630859375</LongitudeDegrees>
            </Position>
            <AltitudeMeters>92.40000152587890625</AltitudeMeters>
            <DistanceMeters>NAN</DistanceMeters>
          </Trackpoint>
          <Trackpoint>
            <Time>2022-07-15T08:42:38.000Z</Time>
            <Position>
              <LatitudeDegrees>43.35961402393877506256103515625</LatitudeDegrees>
              <LongitudeDegrees>-4.4337811879813671112060546875</LongitudeDegrees>
            </Position>
            <AltitudeMeters>92.59999847412109375</AltitudeMeters>
            <DistanceMeters>NAN</DistanceMeters>
          </Trackpoint>
          <Trackpoint>
            <Time>2022-07-15T08:42:41.000Z</Time>
            <Position>
              <LatitudeDegrees>43.35964478552341461181640625</LatitudeDegrees>
              <LongitudeDegrees>-4.43383391015231609344482421875</LongitudeDegrees>
            </Position>
            <AltitudeMeters>93</AltitudeMeters>
            <DistanceMeters>NAN</DistanceMeters>
          </Trackpoint>
          <Trackpoint>
            <Time>2022-07-15T08:42:43.000Z</Time>
            <Position>
              <LatitudeDegrees>43.35965157486498355865478515625</LatitudeDegrees>
              <LongitudeDegrees>-4.4338779151439666748046875</LongitudeDegrees>
            </Position>
            <AltitudeMeters>93.1999969482421875</AltitudeMeters>
            <DistanceMeters>NAN</DistanceMeters>
          </Trackpoint>
          <Trackpoint>
            <Time>2022-07-15T08:42:45.000Z</Time>
            <Position>
              <LatitudeDegrees>43.35963246412575244903564453125</LatitudeDegrees>
              <LongitudeDegrees>-4.43392275832593441009521484375</LongitudeDegrees>
            </Position>
            <AltitudeMeters>93.40000152587890625</AltitudeMeters>
            <DistanceMeters>NAN</DistanceMeters>
          </Trackpoint>
          <Trackpoint>
            <Time>2022-07-15T08:42:48.000Z</Time>
            <Position>
              <LatitudeDegrees>43.3596526645123958587646484375</LatitudeDegrees>
              <LongitudeDegrees>-4.43396986462175846099853515625</LongitudeDegrees>
            </Position>
            <AltitudeMeters>93.59999847412109375</AltitudeMeters>
            <DistanceMeters>NAN</DistanceMeters>
          </Trackpoint>
          <Trackpoint>
            <Time>2022-07-15T08:42:49.000Z</Time>
            <Position>
              <LatitudeDegrees>43.3596560172736644744873046875</LatitudeDegrees>
              <LongitudeDegrees>-4.433986879885196685791015625</LongitudeDegrees>
            </Position>
            <AltitudeMeters>93.8000030517578125</AltitudeMeters>
            <DistanceMeters>NAN</DistanceMeters>
          </Trackpoint>
          <Trackpoint>
            <Time>2022-07-15T08:42:53.000Z</Time>
            <Position>
              <LatitudeDegrees>43.359669260680675506591796875</LatitudeDegrees>
              <LongitudeDegrees>-4.43405284546315670013427734375</LongitudeDegrees>
            </Position>
            <AltitudeMeters>94.1999969482421875</AltitudeMeters>
            <DistanceMeters>NAN</DistanceMeters>
          </Trackpoint>
          <Trackpoint>
            <Time>2022-07-15T08:42:55.000Z</Time>
            <Position>
              <LatitudeDegrees>43.35967294871807098388671875</LatitudeDegrees>
              <LongitudeDegrees>-4.43408603779971599578857421875</LongitudeDegrees>
            </Position>
            <AltitudeMeters>94.1999969482421875</AltitudeMeters>
            <DistanceMeters>NAN</DistanceMeters>
          </Trackpoint>
          <Trackpoint>
            <Time>2022-07-15T08:42:58.000Z</Time>
            <Position>
              <LatitudeDegrees>43.35967605002224445343017578125</LatitudeDegrees>
              <LongitudeDegrees>-4.43413716740906238555908203125</LongitudeDegrees>
            </Position>
            <AltitudeMeters>94.59999847412109375</AltitudeMeters>
            <DistanceMeters>NAN</DistanceMeters>
          </Trackpoint>
          <Trackpoint>
            <Time>2022-07-15T08:42:59.000Z</Time>
            <Position>
              <LatitudeDegrees>43.3596804924309253692626953125</LatitudeDegrees>
              <LongitudeDegrees>-4.4341399334371089935302734375</LongitudeDegrees>
            </Position>
            <AltitudeMeters>94.8000030517578125</AltitudeMeters>
            <DistanceMeters>NAN</DistanceMeters>
          </Trackpoint>
          <Trackpoint>
            <Time>2022-07-15T08:43:00.000Z</Time>
            <Position>
              <LatitudeDegrees>43.359684683382511138916015625</LatitudeDegrees>
              <LongitudeDegrees>-4.43415191955864429473876953125</LongitudeDegrees>
            </Position>
            <AltitudeMeters>95</AltitudeMeters>
            <DistanceMeters>NAN</DistanceMeters>
          </Trackpoint>
          <Trackpoint>
            <Time>2022-07-15T08:43:03.000Z</Time>
            <Position>
              <LatitudeDegrees>43.35970974527299404144287109375</LatitudeDegrees>
              <LongitudeDegrees>-4.4341764785349369049072265625</LongitudeDegrees>
            </Position>
            <AltitudeMeters>95.40000152587890625</AltitudeMeters>
            <DistanceMeters>NAN</DistanceMeters>
          </Trackpoint>
          <Trackpoint>
            <Time>2022-07-15T08:43:06.000Z</Time>
            <Position>
              <LatitudeDegrees>43.35971997119486331939697265625</LatitudeDegrees>
              <LongitudeDegrees>-4.43419768474996089935302734375</LongitudeDegrees>
            </Position>
            <AltitudeMeters>95.40000152587890625</AltitudeMeters>
            <DistanceMeters>NAN</DistanceMeters>
          </Trackpoint>
          <Trackpoint>
            <Time>2022-07-15T08:43:10.000Z</Time>
            <Position>
              <LatitudeDegrees>43.359747044742107391357421875</LatitudeDegrees>
              <LongitudeDegrees>-4.43425669334828853607177734375</LongitudeDegrees>
            </Position>
            <AltitudeMeters>96</AltitudeMeters>
            <DistanceMeters>NAN</DistanceMeters>
          </Trackpoint>
          <Trackpoint>
            <Time>2022-07-15T08:43:16.000Z</Time>
            <Position>
              <LatitudeDegrees>43.3597495593130588531494140625</LatitudeDegrees>
              <LongitudeDegrees>-4.43436046130955219268798828125</LongitudeDegrees>
            </Position>
            <AltitudeMeters>96.40000152587890625</AltitudeMeters>
            <DistanceMeters>NAN</DistanceMeters>
          </Trackpoint>
          <Trackpoint>
            <Time>2022-07-15T08:43:17.000Z</Time>
            <Position>
              <LatitudeDegrees>43.359749726951122283935546875</LatitudeDegrees>
              <LongitudeDegrees>-4.4343665800988674163818359375</LongitudeDegrees>
            </Position>
            <AltitudeMeters>96.59999847412109375</AltitudeMeters>
            <DistanceMeters>NAN</DistanceMeters>
          </Trackpoint>
          <Trackpoint>
            <Time>2022-07-15T08:43:20.000Z</Time>
            <Position>
              <LatitudeDegrees>43.35976053960621356964111328125</LatitudeDegrees>
              <LongitudeDegrees>-4.43440295755863189697265625</LongitudeDegrees>
            </Position>
            <AltitudeMeters>97</AltitudeMeters>
            <DistanceMeters>NAN</DistanceMeters>
          </Trackpoint>
          <Trackpoint>
            <Time>2022-07-15T08:43:22.000Z</Time>
            <Position>
              <LatitudeDegrees>43.35977881215512752532958984375</LatitudeDegrees>
              <LongitudeDegrees>-4.4344276003539562225341796875</LongitudeDegrees>
            </Position>
            <AltitudeMeters>97.1999969482421875</AltitudeMeters>
            <DistanceMeters>NAN</DistanceMeters>
          </Trackpoint>
          <Trackpoint>
            <Time>2022-07-15T08:43:23.000Z</Time>
            <Position>
              <LatitudeDegrees>43.359786607325077056884765625</LatitudeDegrees>
              <LongitudeDegrees>-4.43444679491221904754638671875</LongitudeDegrees>
            </Position>
            <AltitudeMeters>97.1999969482421875</AltitudeMeters>
            <DistanceMeters>NAN</DistanceMeters>
          </Trackpoint>
          <Trackpoint>
            <Time>2022-07-15T08:43:29.000Z</Time>
            <Position>
              <LatitudeDegrees>43.35980379022657871246337890625</LatitudeDegrees>
              <LongitudeDegrees>-4.434534050524234771728515625</LongitudeDegrees>
            </Position>
            <AltitudeMeters>98</AltitudeMeters>
            <DistanceMeters>NAN</DistanceMeters>
          </Trackpoint>
          <Trackpoint>
            <Time>2022-07-15T08:43:30.000Z</Time>
            <Position>
              <LatitudeDegrees>43.3598032034933567047119140625</LatitudeDegrees>
              <LongitudeDegrees>-4.4345516525208950042724609375</LongitudeDegrees>
            </Position>
            <AltitudeMeters>98.1999969482421875</AltitudeMeters>
            <DistanceMeters>NAN</DistanceMeters>
          </Trackpoint>
          <Trackpoint>
            <Time>2022-07-15T08:43:32.000Z</Time>
            <Position>
              <LatitudeDegrees>43.35980261676013469696044921875</LatitudeDegrees>
              <LongitudeDegrees>-4.4345851801335811614990234375</LongitudeDegrees>
            </Position>
            <AltitudeMeters>98.40000152587890625</AltitudeMeters>
            <DistanceMeters>NAN</DistanceMeters>
          </Trackpoint>
          <Trackpoint>
            <Time>2022-07-15T08:43:34.000Z</Time>
            <Position>
              <LatitudeDegrees>43.35980144329369068145751953125</LatitudeDegrees>
              <LongitudeDegrees>-4.43461443297564983367919921875</LongitudeDegrees>
            </Position>
            <AltitudeMeters>98.59999847412109375</AltitudeMeters>
            <DistanceMeters>NAN</DistanceMeters>
          </Trackpoint>
          <Trackpoint>
            <Time>2022-07-15T08:43:35.000Z</Time>
            <Position>
              <LatitudeDegrees>43.3598062209784984588623046875</LatitudeDegrees>
              <LongitudeDegrees>-4.4346301071345806121826171875</LongitudeDegrees>
            </Position>
            <AltitudeMeters>98.59999847412109375</AltitudeMeters>
            <DistanceMeters>NAN</DistanceMeters>
          </Trackpoint>
          <Trackpoint>
            <Time>2022-07-15T08:43:36.000Z</Time>
            <Position>
              <LatitudeDegrees>43.3598119206726551055908203125</LatitudeDegrees>
              <LongitudeDegrees>-4.434642679989337921142578125</LongitudeDegrees>
            </Position>
            <AltitudeMeters>98.59999847412109375</AltitudeMeters>
            <DistanceMeters>NAN</DistanceMeters>
          </Trackpoint>
          <Trackpoint>
            <Time>2022-07-15T08:43:39.000Z</Time>
            <Position>
              <LatitudeDegrees>43.35983061231672763824462890625</LatitudeDegrees>
              <LongitudeDegrees>-4.4347068853676319122314453125</LongitudeDegrees>
            </Position>
            <AltitudeMeters>98.8000030517578125</AltitudeMeters>
            <DistanceMeters>NAN</DistanceMeters>
          </Trackpoint>
          <Trackpoint>
            <Time>2022-07-15T08:43:41.000Z</Time>
            <Position>
              <LatitudeDegrees>43.35982642136514186859130859375</LatitudeDegrees>
              <LongitudeDegrees>-4.43474921397864818572998046875</LongitudeDegrees>
            </Position>
            <AltitudeMeters>99</AltitudeMeters>
            <DistanceMeters>NAN</DistanceMeters>
          </Trackpoint>
          <Trackpoint>
            <Time>2022-07-15T08:43:49.000Z</Time>
            <Position>
              <LatitudeDegrees>43.3598236553370952606201171875</LatitudeDegrees>
              <LongitudeDegrees>-4.4349238090217113494873046875</LongitudeDegrees>
            </Position>
            <AltitudeMeters>99.8000030517578125</AltitudeMeters>
            <DistanceMeters>NAN</DistanceMeters>
          </Trackpoint>
          <Trackpoint>
            <Time>2022-07-15T08:43:52.000Z</Time>
            <Position>
              <LatitudeDegrees>43.35982315242290496826171875</LatitudeDegrees>
              <LongitudeDegrees>-4.43497351370751857757568359375</LongitudeDegrees>
            </Position>
            <AltitudeMeters>100.1999969482421875</AltitudeMeters>
            <DistanceMeters>NAN</DistanceMeters>
          </Trackpoint>
          <Trackpoint>
            <Time>2022-07-15T08:43:55.000Z</Time>
            <Position>
              <LatitudeDegrees>43.3598199672996997833251953125</LatitudeDegrees>
              <LongitudeDegrees>-4.435014165937900543212890625</LongitudeDegrees>
            </Position>
            <AltitudeMeters>100.40000152587890625</AltitudeMeters>
            <DistanceMeters>NAN</DistanceMeters>
          </Trackpoint>
          <Trackpoint>
            <Time>2022-07-15T08:43:56.000Z</Time>
            <Position>
              <LatitudeDegrees>43.3598162792623043060302734375</LatitudeDegrees>
              <LongitudeDegrees>-4.4350314326584339141845703125</LongitudeDegrees>
            </Position>
            <AltitudeMeters>100.40000152587890625</AltitudeMeters>
            <DistanceMeters>NAN</DistanceMeters>
          </Trackpoint>
          <Trackpoint>
            <Time>2022-07-15T08:43:58.000Z</Time>
            <Position>
              <LatitudeDegrees>43.3598075620830059051513671875</LatitudeDegrees>
              <LongitudeDegrees>-4.43508155643939971923828125</LongitudeDegrees>
            </Position>
            <AltitudeMeters>100.59999847412109375</AltitudeMeters>
            <DistanceMeters>NAN</DistanceMeters>
          </Trackpoint>
          <Trackpoint>
            <Time>2022-07-15T08:44:01.000Z</Time>
            <Position>
              <LatitudeDegrees>43.3597901277244091033935546875</LatitudeDegrees>
              <LongitudeDegrees>-4.43516059778630733489990234375</LongitudeDegrees>
            </Position>
            <AltitudeMeters>101</AltitudeMeters>
            <DistanceMeters>NAN</DistanceMeters>
          </Trackpoint>
          <Trackpoint>
            <Time>2022-07-15T08:44:04.000Z</Time>
            <Position>
              <LatitudeDegrees>43.35979909636080265045166015625</LatitudeDegrees>
              <LongitudeDegrees>-4.4352332688868045806884765625</LongitudeDegrees>
            </Position>
            <AltitudeMeters>101.1999969482421875</AltitudeMeters>
            <DistanceMeters>NAN</DistanceMeters>
          </Trackpoint>
          <Trackpoint>
            <Time>2022-07-15T08:44:06.000Z</Time>
            <Position>
              <LatitudeDegrees>43.3598156087100505828857421875</LatitudeDegrees>
              <LongitudeDegrees>-4.4352963007986545562744140625</LongitudeDegrees>
            </Position>
            <AltitudeMeters>101.59999847412109375</AltitudeMeters>
            <DistanceMeters>NAN</DistanceMeters>
          </Trackpoint>
          <Trackpoint>
            <Time>2022-07-15T08:44:07.000Z</Time>
            <Position>
              <LatitudeDegrees>43.35981233976781368255615234375</LatitudeDegrees>
              <LongitudeDegrees>-4.43532639183104038238525390625</LongitudeDegrees>
            </Position>
            <AltitudeMeters>101.59999847412109375</AltitudeMeters>
            <DistanceMeters>NAN</DistanceMeters>
          </Trackpoint>
          <Trackpoint>
            <Time>2022-07-15T08:44:13.000Z</Time>
            <Position>
              <LatitudeDegrees>43.3597911335527896881103515625</LatitudeDegrees>
              <LongitudeDegrees>-4.43550023250281810760498046875</LongitudeDegrees>
            </Position>
            <AltitudeMeters>102.1999969482421875</AltitudeMeters>
            <DistanceMeters>NAN</DistanceMeters>
          </Trackpoint>
          <Trackpoint>
            <Time>2022-07-15T08:44:14.000Z</Time>
            <Position>
              <LatitudeDegrees>43.35980781354010105133056640625</LatitudeDegrees>
              <LongitudeDegrees>-4.43550962023437023162841796875</LongitudeDegrees>
            </Position>
            <AltitudeMeters>102.1999969482421875</AltitudeMeters>
            <DistanceMeters>NAN</DistanceMeters>
          </Trackpoint>
          <Trackpoint>
            <Time>2022-07-15T08:44:16.000Z</Time>
            <Position>
              <LatitudeDegrees>43.3598233200609683990478515625</LatitudeDegrees>
              <LongitudeDegrees>-4.43554247729480266571044921875</LongitudeDegrees>
            </Position>
            <AltitudeMeters>102.40000152587890625</AltitudeMeters>
            <DistanceMeters>NAN</DistanceMeters>
          </Trackpoint>
          <Trackpoint>
            <Time>2022-07-15T08:44:20.000Z</Time>
            <Position>
              <LatitudeDegrees>43.35979406721889972686767578125</LatitudeDegrees>
              <LongitudeDegrees>-4.43558983504772186279296875</LongitudeDegrees>
            </Position>
            <AltitudeMeters>102.8000030517578125</AltitudeMeters>
            <DistanceMeters>NAN</DistanceMeters>
          </Trackpoint>
          <Trackpoint>
            <Time>2022-07-15T08:44:22.000Z</Time>
            <Position>
              <LatitudeDegrees>43.35978300310671329498291015625</LatitudeDegrees>
              <LongitudeDegrees>-4.4356315769255161285400390625</LongitudeDegrees>
            </Position>
            <AltitudeMeters>103</AltitudeMeters>
            <DistanceMeters>NAN</DistanceMeters>
          </Trackpoint>
          <Trackpoint>
            <Time>2022-07-15T08:44:25.000Z</Time>
            <Position>
              <LatitudeDegrees>43.359772525727748870849609375</LatitudeDegrees>
              <LongitudeDegrees>-4.43569771014153957366943359375</LongitudeDegrees>
            </Position>
            <AltitudeMeters>103.1999969482421875</AltitudeMeters>
            <DistanceMeters>NAN</DistanceMeters>
          </Trackpoint>
          <Trackpoint>
            <Time>2022-07-15T08:44:26.000Z</Time>
            <Position>
              <LatitudeDegrees>43.359772525727748870849609375</LatitudeDegrees>
              <LongitudeDegrees>-4.43572604097425937652587890625</LongitudeDegrees>
            </Position>
            <AltitudeMeters>103.40000152587890625</AltitudeMeters>
            <DistanceMeters>NAN</DistanceMeters>
          </Trackpoint>
          <Trackpoint>
            <Time>2022-07-15T08:44:27.000Z</Time>
            <Position>
              <LatitudeDegrees>43.35977009497582912445068359375</LatitudeDegrees>
              <LongitudeDegrees>-4.43574607372283935546875</LongitudeDegrees>
            </Position>
            <AltitudeMeters>103.40000152587890625</AltitudeMeters>
            <DistanceMeters>NAN</DistanceMeters>
          </Trackpoint>
          <Trackpoint>
            <Time>2022-07-15T08:44:29.000Z</Time>
            <Position>
              <LatitudeDegrees>43.35977344773709774017333984375</LatitudeDegrees>
              <LongitudeDegrees>-4.43578102625906467437744140625</LongitudeDegrees>
            </Position>
            <AltitudeMeters>103.59999847412109375</AltitudeMeters>
            <DistanceMeters>NAN</DistanceMeters>
          </Trackpoint>
          <Trackpoint>
            <Time>2022-07-15T08:44:31.000Z</Time>
            <Position>
              <LatitudeDegrees>43.35976791568100452423095703125</LatitudeDegrees>
              <LongitudeDegrees>-4.43581975065171718597412109375</LongitudeDegrees>
            </Position>
            <AltitudeMeters>103.8000030517578125</AltitudeMeters>
            <DistanceMeters>NAN</DistanceMeters>
          </Trackpoint>
          <Trackpoint>
            <Time>2022-07-15T08:44:37.000Z</Time>
            <Position>
              <LatitudeDegrees>43.3597495593130588531494140625</LatitudeDegrees>
              <LongitudeDegrees>-4.43594112060964107513427734375</LongitudeDegrees>
            </Position>
            <AltitudeMeters>104.40000152587890625</AltitudeMeters>
            <DistanceMeters>NAN</DistanceMeters>
          </Trackpoint>
          <Trackpoint>
            <Time>2022-07-15T08:44:38.000Z</Time>
            <Position>
              <LatitudeDegrees>43.3597455359995365142822265625</LatitudeDegrees>
              <LongitudeDegrees>-4.4359635002911090850830078125</LongitudeDegrees>
            </Position>
            <AltitudeMeters>104.40000152587890625</AltitudeMeters>
            <DistanceMeters>NAN</DistanceMeters>
          </Trackpoint>
          <Trackpoint>
            <Time>2022-07-15T08:44:43.000Z</Time>
            <Position>
              <LatitudeDegrees>43.35970840416848659515380859375</LatitudeDegrees>
              <LongitudeDegrees>-4.436066932976245880126953125</LongitudeDegrees>
            </Position>
            <AltitudeMeters>105</AltitudeMeters>
            <DistanceMeters>NAN</DistanceMeters>
          </Trackpoint>
          <Trackpoint>
            <Time>2022-07-15T08:44:45.000Z</Time>
            <Position>
              <LatitudeDegrees>43.35968409664928913116455078125</LatitudeDegrees>
              <LongitudeDegrees>-4.436136670410633087158203125</LongitudeDegrees>
            </Position>
            <AltitudeMeters>105.40000152587890625</AltitudeMeters>
            <DistanceMeters>NAN</DistanceMeters>
          </Trackpoint>
          <Trackpoint>
            <Time>2022-07-15T08:44:46.000Z</Time>
            <Position>
              <LatitudeDegrees>43.35968510247766971588134765625</LatitudeDegrees>
              <LongitudeDegrees>-4.43613725714385509490966796875</LongitudeDegrees>
            </Position>
            <AltitudeMeters>105.40000152587890625</AltitudeMeters>
            <DistanceMeters>NAN</DistanceMeters>
          </Trackpoint>
          <Trackpoint>
            <Time>2022-07-15T08:44:51.000Z</Time>
            <Position>
              <LatitudeDegrees>43.35968242026865482330322265625</LatitudeDegrees>
              <LongitudeDegrees>-4.4362025521695613861083984375</LongitudeDegrees>
            </Position>
            <AltitudeMeters>105.8000030517578125</AltitudeMeters>
            <DistanceMeters>NAN</DistanceMeters>
          </Trackpoint>
          <Trackpoint>
            <Time>2022-07-15T08:44:58.000Z</Time>
            <Position>
              <LatitudeDegrees>43.35964880883693695068359375</LatitudeDegrees>
              <LongitudeDegrees>-4.436281509697437286376953125</LongitudeDegrees>
            </Position>
            <AltitudeMeters>106.40000152587890625</AltitudeMeters>
            <DistanceMeters>NAN</DistanceMeters>
          </Trackpoint>
          <Trackpoint>
            <Time>2022-07-15T08:44:59.000Z</Time>
            <Position>
              <LatitudeDegrees>43.35964101366698741912841796875</LatitudeDegrees>
              <LongitudeDegrees>-4.43630422465503215789794921875</LongitudeDegrees>
            </Position>
            <AltitudeMeters>106.59999847412109375</AltitudeMeters>
            <DistanceMeters>NAN</DistanceMeters>
          </Trackpoint>
          <Trackpoint>
            <Time>2022-07-15T08:45:05.000Z</Time>
            <Position>
              <LatitudeDegrees>43.359608240425586700439453125</LatitudeDegrees>
              <LongitudeDegrees>-4.43640916608273983001708984375</LongitudeDegrees>
            </Position>
            <AltitudeMeters>107.1999969482421875</AltitudeMeters>
            <DistanceMeters>NAN</DistanceMeters>
          </Trackpoint>
          <Trackpoint>
            <Time>2022-07-15T08:45:07.000Z</Time>
            <Position>
              <LatitudeDegrees>43.35959575138986110687255859375</LatitudeDegrees>
              <LongitudeDegrees>-4.4364345632493495941162109375</LongitudeDegrees>
            </Position>
            <AltitudeMeters>107.40000152587890625</AltitudeMeters>
            <DistanceMeters>NAN</DistanceMeters>
          </Trackpoint>
          <Trackpoint>
            <Time>2022-07-15T08:45:08.000Z</Time>
            <Position>
              <LatitudeDegrees>43.35959021933376789093017578125</LatitudeDegrees>
              <LongitudeDegrees>-4.43644680082798004150390625</LongitudeDegrees>
            </Position>
            <AltitudeMeters>107.40000152587890625</AltitudeMeters>
            <DistanceMeters>NAN</DistanceMeters>
          </Trackpoint>
          <Trackpoint>
            <Time>2022-07-15T08:45:16.000Z</Time>
            <Position>
              <LatitudeDegrees>43.35951796732842922210693359375</LatitudeDegrees>
              <LongitudeDegrees>-4.4365693442523479461669921875</LongitudeDegrees>
            </Position>
            <AltitudeMeters>108.1999969482421875</AltitudeMeters>
            <DistanceMeters>NAN</DistanceMeters>
          </Trackpoint>
          <Trackpoint>
            <Time>2022-07-15T08:45:20.000Z</Time>
            <Position>
              <LatitudeDegrees>43.3594803325831890106201171875</LatitudeDegrees>
              <LongitudeDegrees>-4.4366370700299739837646484375</LongitudeDegrees>
            </Position>
            <AltitudeMeters>108.40000152587890625</AltitudeMeters>
            <DistanceMeters>NAN</DistanceMeters>
          </Trackpoint>
          <Trackpoint>
            <Time>2022-07-15T08:45:26.000Z</Time>
            <Position>
              <LatitudeDegrees>43.35940472781658172607421875</LatitudeDegrees>
              <LongitudeDegrees>-4.43671845830976963043212890625</LongitudeDegrees>
            </Position>
            <AltitudeMeters>109</AltitudeMeters>
            <DistanceMeters>NAN</DistanceMeters>
          </Trackpoint>
          <Trackpoint>
            <Time>2022-07-15T08:45:32.000Z</Time>
            <Position>
              <LatitudeDegrees>43.359347395598888397216796875</LatitudeDegrees>
              <LongitudeDegrees>-4.43680730648338794708251953125</LongitudeDegrees>
            </Position>
            <AltitudeMeters>109.59999847412109375</AltitudeMeters>
            <DistanceMeters>NAN</DistanceMeters>
          </Trackpoint>
          <Trackpoint>
            <Time>2022-07-15T08:45:36.000Z</Time>
            <Position>
              <LatitudeDegrees>43.35930909030139446258544921875</LatitudeDegrees>
              <LongitudeDegrees>-4.4368747808039188385009765625</LongitudeDegrees>
            </Position>
            <AltitudeMeters>109.8000030517578125</AltitudeMeters>
            <DistanceMeters>NAN</DistanceMeters>
          </Trackpoint>
          <Trackpoint>
            <Time>2022-07-15T08:45:42.000Z</Time>
            <Position>
              <LatitudeDegrees>43.35925829596817493438720703125</LatitudeDegrees>
              <LongitudeDegrees>-4.43695298396050930023193359375</LongitudeDegrees>
            </Position>
            <AltitudeMeters>110.40000152587890625</AltitudeMeters>
            <DistanceMeters>NAN</DistanceMeters>
          </Trackpoint>
          <Trackpoint>
            <Time>2022-07-15T08:45:43.000Z</Time>
            <Position>
              <LatitudeDegrees>43.35924915969371795654296875</LatitudeDegrees>
              <LongitudeDegrees>-4.43696706555783748626708984375</LongitudeDegrees>
            </Position>
            <AltitudeMeters>110.59999847412109375</AltitudeMeters>
            <DistanceMeters>NAN</DistanceMeters>
          </Trackpoint>
          <Trackpoint>
            <Time>2022-07-15T08:45:54.000Z</Time>
            <Position>
              <LatitudeDegrees>43.35914027877151966094970703125</LatitudeDegrees>
              <LongitudeDegrees>-4.437152557075023651123046875</LongitudeDegrees>
            </Position>
            <AltitudeMeters>111.59999847412109375</AltitudeMeters>
            <DistanceMeters>NAN</DistanceMeters>
          </Trackpoint>
          <Trackpoint>
            <Time>2022-07-15T08:45:56.000Z</Time>
            <Position>
              <LatitudeDegrees>43.35911773145198822021484375</LatitudeDegrees>
              <LongitudeDegrees>-4.43718482740223407745361328125</LongitudeDegrees>
            </Position>
            <AltitudeMeters>111.8000030517578125</AltitudeMeters>
            <DistanceMeters>NAN</DistanceMeters>
          </Trackpoint>
          <Trackpoint>
            <Time>2022-07-15T08:46:01.000Z</Time>
            <Position>
              <LatitudeDegrees>43.3590622432529926300048828125</LatitudeDegrees>
              <LongitudeDegrees>-4.43725070916116237640380859375</LongitudeDegrees>
            </Position>
            <AltitudeMeters>112.1999969482421875</AltitudeMeters>
            <DistanceMeters>NAN</DistanceMeters>
          </Trackpoint>
          <Trackpoint>
            <Time>2022-07-15T08:46:02.000Z</Time>
            <Position>
              <LatitudeDegrees>43.3590545319020748138427734375</LatitudeDegrees>
              <LongitudeDegrees>-4.437253475189208984375</LongitudeDegrees>
            </Position>
            <AltitudeMeters>112.1999969482421875</AltitudeMeters>
            <DistanceMeters>NAN</DistanceMeters>
          </Trackpoint>
          <Trackpoint>
            <Time>2022-07-15T08:46:07.000Z</Time>
            <Position>
              <LatitudeDegrees>43.3590032346546649932861328125</LatitudeDegrees>
              <LongitudeDegrees>-4.43730837665498256683349609375</LongitudeDegrees>
            </Position>
            <AltitudeMeters>112.8000030517578125</AltitudeMeters>
            <DistanceMeters>NAN</DistanceMeters>
          </Trackpoint>
          <Trackpoint>
            <Time>2022-07-15T08:46:10.000Z</Time>
            <Position>
              <LatitudeDegrees>43.35897213779389858245849609375</LatitudeDegrees>
              <LongitudeDegrees>-4.43733385764062404632568359375</LongitudeDegrees>
            </Position>
            <AltitudeMeters>113</AltitudeMeters>
            <DistanceMeters>NAN</DistanceMeters>
          </Trackpoint>
          <Trackpoint>
            <Time>2022-07-15T08:46:19.000Z</Time>
            <Position>
              <LatitudeDegrees>43.35889670066535472869873046875</LatitudeDegrees>
              <LongitudeDegrees>-4.4374829716980457305908203125</LongitudeDegrees>
            </Position>
            <AltitudeMeters>113.59999847412109375</AltitudeMeters>
            <DistanceMeters>NAN</DistanceMeters>
          </Trackpoint>
          <Trackpoint>
            <Time>2022-07-15T08:46:23.000Z</Time>
            <Position>
              <LatitudeDegrees>43.35886669345200061798095703125</LatitudeDegrees>
              <LongitudeDegrees>-4.43754558451473712921142578125</LongitudeDegrees>
            </Position>
            <AltitudeMeters>113.8000030517578125</AltitudeMeters>
            <DistanceMeters>NAN</DistanceMeters>
          </Trackpoint>
          <Trackpoint>
            <Time>2022-07-15T08:46:24.000Z</Time>
            <Position>
              <LatitudeDegrees>43.3588594011962413787841796875</LatitudeDegrees>
              <LongitudeDegrees>-4.43756519816815853118896484375</LongitudeDegrees>
            </Position>
            <AltitudeMeters>113.8000030517578125</AltitudeMeters>
            <DistanceMeters>NAN</DistanceMeters>
          </Trackpoint>
          <Trackpoint>
            <Time>2022-07-15T08:46:25.000Z</Time>
            <Position>
              <LatitudeDegrees>43.35885294713079929351806640625</LatitudeDegrees>
              <LongitudeDegrees>-4.43758430890738964080810546875</LongitudeDegrees>
            </Position>
            <AltitudeMeters>113.8000030517578125</AltitudeMeters>
            <DistanceMeters>NAN</DistanceMeters>
          </Trackpoint>
          <Trackpoint>
            <Time>2022-07-15T08:46:31.000Z</Time>
            <Position>
              <LatitudeDegrees>43.35880567319691181182861328125</LatitudeDegrees>
              <LongitudeDegrees>-4.437735937535762786865234375</LongitudeDegrees>
            </Position>
            <AltitudeMeters>114</AltitudeMeters>
            <DistanceMeters>NAN</DistanceMeters>
          </Trackpoint>
          <Trackpoint>
            <Time>2022-07-15T08:46:38.000Z</Time>
            <Position>
              <LatitudeDegrees>43.35873576812446117401123046875</LatitudeDegrees>
              <LongitudeDegrees>-4.4379620812833309173583984375</LongitudeDegrees>
            </Position>
            <AltitudeMeters>114</AltitudeMeters>
            <DistanceMeters>NAN</DistanceMeters>
          </Trackpoint>
          <Trackpoint>
            <Time>2022-07-15T08:46:43.000Z</Time>
            <Position>
              <LatitudeDegrees>43.35869117639958858489990234375</LatitudeDegrees>
              <LongitudeDegrees>-4.43815662525594234466552734375</LongitudeDegrees>
            </Position>
            <AltitudeMeters>114</AltitudeMeters>
            <DistanceMeters>NAN</DistanceMeters>
          </Trackpoint>
          <Trackpoint>
            <Time>2022-07-15T08:46:45.000Z</Time>
            <Position>
              <LatitudeDegrees>43.3586672879755496978759765625</LatitudeDegrees>
              <LongitudeDegrees>-4.43825955502688884735107421875</LongitudeDegrees>
            </Position>
            <AltitudeMeters>113.8000030517578125</AltitudeMeters>
            <DistanceMeters>NAN</DistanceMeters>
          </Trackpoint>
          <Trackpoint>
            <Time>2022-07-15T08:46:46.000Z</Time>
            <Position>
              <LatitudeDegrees>43.35865731351077556610107421875</LatitudeDegrees>
              <LongitudeDegrees>-4.4383194856345653533935546875</LongitudeDegrees>
            </Position>
            <AltitudeMeters>113.8000030517578125</AltitudeMeters>
            <DistanceMeters>NAN</DistanceMeters>
          </Trackpoint>
          <Trackpoint>
            <Time>2022-07-15T08:46:47.000Z</Time>
            <Position>
              <LatitudeDegrees>43.35865127854049205780029296875</LatitudeDegrees>
              <LongitudeDegrees>-4.4383865408599376678466796875</LongitudeDegrees>
            </Position>
            <AltitudeMeters>113.59999847412109375</AltitudeMeters>
            <DistanceMeters>NAN</DistanceMeters>
          </Trackpoint>
          <Trackpoint>
            <Time>2022-07-15T08:46:48.000Z</Time>
            <Position>
              <LatitudeDegrees>43.35864960215985774993896484375</LatitudeDegrees>
              <LongitudeDegrees>-4.4384549371898174285888671875</LongitudeDegrees>
            </Position>
            <AltitudeMeters>113.59999847412109375</AltitudeMeters>
            <DistanceMeters>NAN</DistanceMeters>
          </Trackpoint>
          <Trackpoint>
            <Time>2022-07-15T08:46:50.000Z</Time>
            <Position>
              <LatitudeDegrees>43.35865429602563381195068359375</LatitudeDegrees>
              <LongitudeDegrees>-4.438599608838558197021484375</LongitudeDegrees>
            </Position>
            <AltitudeMeters>113.40000152587890625</AltitudeMeters>
            <DistanceMeters>NAN</DistanceMeters>
          </Trackpoint>
          <Trackpoint>
            <Time>2022-07-15T08:46:53.000Z</Time>
            <Position>
              <LatitudeDegrees>43.35865748114883899688720703125</LatitudeDegrees>
              <LongitudeDegrees>-4.438831619918346405029296875</LongitudeDegrees>
            </Position>
            <AltitudeMeters>113</AltitudeMeters>
            <DistanceMeters>NAN</DistanceMeters>
          </Trackpoint>
          <Trackpoint>
            <Time>2022-07-15T08:46:54.000Z</Time>
            <Position>
              <LatitudeDegrees>43.358653374016284942626953125</LatitudeDegrees>
              <LongitudeDegrees>-4.43889272399246692657470703125</LongitudeDegrees>
            </Position>
            <AltitudeMeters>112.8000030517578125</AltitudeMeters>
            <DistanceMeters>NAN</DistanceMeters>
          </Trackpoint>
          <Trackpoint>
            <Time>2022-07-15T08:46:58.000Z</Time>
            <Position>
              <LatitudeDegrees>43.3586280606687068939208984375</LatitudeDegrees>
              <LongitudeDegrees>-4.43920000456273555755615234375</LongitudeDegrees>
            </Position>
            <AltitudeMeters>112.40000152587890625</AltitudeMeters>
            <DistanceMeters>NAN</DistanceMeters>
          </Trackpoint>
          <Trackpoint>
            <Time>2022-07-15T08:46:59.000Z</Time>
            <Position>
              <LatitudeDegrees>43.3586143143475055694580078125</LatitudeDegrees>
              <LongitudeDegrees>-4.439282901585102081298828125</LongitudeDegrees>
            </Position>
            <AltitudeMeters>112.40000152587890625</AltitudeMeters>
            <DistanceMeters>NAN</DistanceMeters>
          </Trackpoint>
          <Trackpoint>
            <Time>2022-07-15T08:47:01.000Z</Time>
            <Position>
              <LatitudeDegrees>43.35860182531177997589111328125</LatitudeDegrees>
              <LongitudeDegrees>-4.4394141621887683868408203125</LongitudeDegrees>
            </Position>
            <AltitudeMeters>112.1999969482421875</AltitudeMeters>
            <DistanceMeters>NAN</DistanceMeters>
          </Trackpoint>
          <Trackpoint>
            <Time>2022-07-15T08:47:04.000Z</Time>
            <Position>
              <LatitudeDegrees>43.3585878275334835052490234375</LatitudeDegrees>
              <LongitudeDegrees>-4.439599402248859405517578125</LongitudeDegrees>
            </Position>
            <AltitudeMeters>112.1999969482421875</AltitudeMeters>
            <DistanceMeters>NAN</DistanceMeters>
          </Trackpoint>
          <Trackpoint>
            <Time>2022-07-15T08:47:09.000Z</Time>
            <Position>
              <LatitudeDegrees>43.3585928566753864288330078125</LatitudeDegrees>
              <LongitudeDegrees>-4.43980358541011810302734375</LongitudeDegrees>
            </Position>
            <AltitudeMeters>112.59999847412109375</AltitudeMeters>
            <DistanceMeters>NAN</DistanceMeters>
          </Trackpoint>
          <Trackpoint>
            <Time>2022-07-15T08:47:14.000Z</Time>
            <Position>
              <LatitudeDegrees>43.35858137346804141998291015625</LatitudeDegrees>
              <LongitudeDegrees>-4.4399948604404926300048828125</LongitudeDegrees>
            </Position>
            <AltitudeMeters>113</AltitudeMeters>
            <DistanceMeters>NAN</DistanceMeters>
          </Trackpoint>
          <Trackpoint>
            <Time>2022-07-15T08:47:17.000Z</Time>
            <Position>
              <LatitudeDegrees>43.35858531296253204345703125</LatitudeDegrees>
              <LongitudeDegrees>-4.44009200669825077056884765625</LongitudeDegrees>
            </Position>
            <AltitudeMeters>113.40000152587890625</AltitudeMeters>
            <DistanceMeters>NAN</DistanceMeters>
          </Trackpoint>
          <Trackpoint>
            <Time>2022-07-15T08:47:18.000Z</Time>
            <Position>
              <LatitudeDegrees>43.3585898391902446746826171875</LatitudeDegrees>
              <LongitudeDegrees>-4.44012804888188838958740234375</LongitudeDegrees>
            </Position>
            <AltitudeMeters>113.40000152587890625</AltitudeMeters>
            <DistanceMeters>NAN</DistanceMeters>
          </Trackpoint>
          <Trackpoint>
            <Time>2022-07-15T08:47:21.000Z</Time>
            <Position>
              <LatitudeDegrees>43.35859763436019420623779296875</LatitudeDegrees>
              <LongitudeDegrees>-4.44024422205984592437744140625</LongitudeDegrees>
            </Position>
            <AltitudeMeters>113.59999847412109375</AltitudeMeters>
            <DistanceMeters>NAN</DistanceMeters>
          </Trackpoint>
          <Trackpoint>
            <Time>2022-07-15T08:47:23.000Z</Time>
            <Position>
              <LatitudeDegrees>43.35859830491244792938232421875</LatitudeDegrees>
              <LongitudeDegrees>-4.4403036497533321380615234375</LongitudeDegrees>
            </Position>
            <AltitudeMeters>113.59999847412109375</AltitudeMeters>
            <DistanceMeters>NAN</DistanceMeters>
          </Trackpoint>
          <Trackpoint>
            <Time>2022-07-15T08:47:24.000Z</Time>
            <Position>
              <LatitudeDegrees>43.35859243758022785186767578125</LatitudeDegrees>
              <LongitudeDegrees>-4.4403241015970706939697265625</LongitudeDegrees>
            </Position>
            <AltitudeMeters>113.8000030517578125</AltitudeMeters>
            <DistanceMeters>NAN</DistanceMeters>
          </Trackpoint>
          <Trackpoint>
            <Time>2022-07-15T08:47:28.000Z</Time>
            <Position>
              <LatitudeDegrees>43.3585707284510135650634765625</LatitudeDegrees>
              <LongitudeDegrees>-4.44044086150825023651123046875</LongitudeDegrees>
            </Position>
            <AltitudeMeters>114.40000152587890625</AltitudeMeters>
            <DistanceMeters>NAN</DistanceMeters>
          </Trackpoint>
          <Trackpoint>
            <Time>2022-07-15T08:47:35.000Z</Time>
            <Position>
              <LatitudeDegrees>43.35851716808974742889404296875</LatitudeDegrees>
              <LongitudeDegrees>-4.4406520016491413116455078125</LongitudeDegrees>
            </Position>
            <AltitudeMeters>114.8000030517578125</AltitudeMeters>
            <DistanceMeters>NAN</DistanceMeters>
          </Trackpoint>
          <Trackpoint>
            <Time>2022-07-15T08:47:41.000Z</Time>
            <Position>
              <LatitudeDegrees>43.3584979735314846038818359375</LatitudeDegrees>
              <LongitudeDegrees>-4.44083690643310546875</LongitudeDegrees>
            </Position>
            <AltitudeMeters>115</AltitudeMeters>
            <DistanceMeters>NAN</DistanceMeters>
          </Trackpoint>
          <Trackpoint>
            <Time>2022-07-15T08:47:44.000Z</Time>
            <Position>
              <LatitudeDegrees>43.35846704430878162384033203125</LatitudeDegrees>
              <LongitudeDegrees>-4.44089264608919620513916015625</LongitudeDegrees>
            </Position>
            <AltitudeMeters>115.1999969482421875</AltitudeMeters>
            <DistanceMeters>NAN</DistanceMeters>
          </Trackpoint>
          <Trackpoint>
            <Time>2022-07-15T08:47:46.000Z</Time>
            <Position>
              <LatitudeDegrees>43.358485065400600433349609375</LatitudeDegrees>
              <LongitudeDegrees>-4.4409245811402797698974609375</LongitudeDegrees>
            </Position>
            <AltitudeMeters>115.1999969482421875</AltitudeMeters>
            <DistanceMeters>NAN</DistanceMeters>
          </Trackpoint>
          <Trackpoint>
            <Time>2022-07-15T08:47:52.000Z</Time>
            <Position>
              <LatitudeDegrees>43.3585888333618640899658203125</LatitudeDegrees>
              <LongitudeDegrees>-4.4409120082855224609375</LongitudeDegrees>
            </Position>
            <AltitudeMeters>115.59999847412109375</AltitudeMeters>
            <DistanceMeters>NAN</DistanceMeters>
          </Trackpoint>
          <Trackpoint>
            <Time>2022-07-15T08:47:54.000Z</Time>
            <Position>
              <LatitudeDegrees>43.3586226962506771087646484375</LatitudeDegrees>
              <LongitudeDegrees>-4.4409265927970409393310546875</LongitudeDegrees>
            </Position>
            <AltitudeMeters>115.8000030517578125</AltitudeMeters>
            <DistanceMeters>NAN</DistanceMeters>
          </Trackpoint>
          <Trackpoint>
            <Time>2022-07-15T08:47:57.000Z</Time>
            <Position>
              <LatitudeDegrees>43.35866502486169338226318359375</LatitudeDegrees>
              <LongitudeDegrees>-4.44095819257199764251708984375</LongitudeDegrees>
            </Position>
            <AltitudeMeters>116.1999969482421875</AltitudeMeters>
            <DistanceMeters>NAN</DistanceMeters>
          </Trackpoint>
          <Trackpoint>
            <Time>2022-07-15T08:47:59.000Z</Time>
            <Position>
              <LatitudeDegrees>43.3586944453418254852294921875</LatitudeDegrees>
              <LongitudeDegrees>-4.44099037908017635345458984375</LongitudeDegrees>
            </Position>
            <AltitudeMeters>116.40000152587890625</AltitudeMeters>
            <DistanceMeters>NAN</DistanceMeters>
          </Trackpoint>
          <Trackpoint>
            <Time>2022-07-15T08:48:03.000Z</Time>
            <Position>
              <LatitudeDegrees>43.3587407134473323822021484375</LatitudeDegrees>
              <LongitudeDegrees>-4.44103874266147613525390625</LongitudeDegrees>
            </Position>
            <AltitudeMeters>116.8000030517578125</AltitudeMeters>
            <DistanceMeters>NAN</DistanceMeters>
          </Trackpoint>
          <Trackpoint>
            <Time>2022-07-15T08:48:06.000Z</Time>
            <Position>
              <LatitudeDegrees>43.3587876521050930023193359375</LatitudeDegrees>
              <LongitudeDegrees>-4.441069252789020538330078125</LongitudeDegrees>
            </Position>
            <AltitudeMeters>117.1999969482421875</AltitudeMeters>
            <DistanceMeters>NAN</DistanceMeters>
          </Trackpoint>
          <Trackpoint>
            <Time>2022-07-15T08:48:12.000Z</Time>
            <Position>
              <LatitudeDegrees>43.35888261906802654266357421875</LatitudeDegrees>
              <LongitudeDegrees>-4.44118232466280460357666015625</LongitudeDegrees>
            </Position>
            <AltitudeMeters>117.8000030517578125</AltitudeMeters>
            <DistanceMeters>NAN</DistanceMeters>
          </Trackpoint>
          <Trackpoint>
            <Time>2022-07-15T08:48:13.000Z</Time>
            <Position>
              <LatitudeDegrees>43.35890206508338451385498046875</LatitudeDegrees>
              <LongitudeDegrees>-4.4412011839449405670166015625</LongitudeDegrees>
            </Position>
            <AltitudeMeters>118</AltitudeMeters>
            <DistanceMeters>NAN</DistanceMeters>
          </Trackpoint>
          <Trackpoint>
            <Time>2022-07-15T08:48:18.000Z</Time>
            <Position>
              <LatitudeDegrees>43.35897264070808887481689453125</LatitudeDegrees>
              <LongitudeDegrees>-4.44128743372857570648193359375</LongitudeDegrees>
            </Position>
            <AltitudeMeters>118.40000152587890625</AltitudeMeters>
            <DistanceMeters>NAN</DistanceMeters>
          </Trackpoint>
          <Trackpoint>
            <Time>2022-07-15T08:48:19.000Z</Time>
            <Position>
              <LatitudeDegrees>43.358979932963848114013671875</LatitudeDegrees>
              <LongitudeDegrees>-4.44129916839301586151123046875</LongitudeDegrees>
            </Position>
            <AltitudeMeters>118.59999847412109375</AltitudeMeters>
            <DistanceMeters>NAN</DistanceMeters>
          </Trackpoint>
          <Trackpoint>
            <Time>2022-07-15T08:48:21.000Z</Time>
            <Position>
              <LatitudeDegrees>43.35899342782795429229736328125</LatitudeDegrees>
              <LongitudeDegrees>-4.44132062606513500213623046875</LongitudeDegrees>
            </Position>
            <AltitudeMeters>118.8000030517578125</AltitudeMeters>
            <DistanceMeters>NAN</DistanceMeters>
          </Trackpoint>
          <Trackpoint>
            <Time>2022-07-15T08:48:22.000Z</Time>
            <Position>
              <LatitudeDegrees>43.359002061188220977783203125</LatitudeDegrees>
              <LongitudeDegrees>-4.4413306005299091339111328125</LongitudeDegrees>
            </Position>
            <AltitudeMeters>118.8000030517578125</AltitudeMeters>
            <DistanceMeters>NAN</DistanceMeters>
          </Trackpoint>
          <Trackpoint>
            <Time>2022-07-15T08:48:25.000Z</Time>
            <Position>
              <LatitudeDegrees>43.3590203337371349334716796875</LatitudeDegrees>
              <LongitudeDegrees>-4.4413802213966846466064453125</LongitudeDegrees>
            </Position>
            <AltitudeMeters>119</AltitudeMeters>
            <DistanceMeters>NAN</DistanceMeters>
          </Trackpoint>
          <Trackpoint>
            <Time>2022-07-15T08:48:26.000Z</Time>
            <Position>
              <LatitudeDegrees>43.35902460850775241851806640625</LatitudeDegrees>
              <LongitudeDegrees>-4.4414023496210575103759765625</LongitudeDegrees>
            </Position>
            <AltitudeMeters>119.1999969482421875</AltitudeMeters>
            <DistanceMeters>NAN</DistanceMeters>
          </Trackpoint>
          <Trackpoint>
            <Time>2022-07-15T08:48:30.000Z</Time>
            <Position>
              <LatitudeDegrees>43.35904908366501331329345703125</LatitudeDegrees>
              <LongitudeDegrees>-4.441491700708866119384765625</LongitudeDegrees>
            </Position>
            <AltitudeMeters>119.40000152587890625</AltitudeMeters>
            <DistanceMeters>NAN</DistanceMeters>
          </Trackpoint>
          <Trackpoint>
            <Time>2022-07-15T08:48:31.000Z</Time>
            <Position>
              <LatitudeDegrees>43.3590572141110897064208984375</LatitudeDegrees>
              <LongitudeDegrees>-4.44151240400969982147216796875</LongitudeDegrees>
            </Position>
            <AltitudeMeters>119.59999847412109375</AltitudeMeters>
            <DistanceMeters>NAN</DistanceMeters>
          </Trackpoint>
          <Trackpoint>
            <Time>2022-07-15T08:48:32.000Z</Time>
            <Position>
              <LatitudeDegrees>43.3590575493872165679931640625</LatitudeDegrees>
              <LongitudeDegrees>-4.4415324367582798004150390625</LongitudeDegrees>
            </Position>
            <AltitudeMeters>119.59999847412109375</AltitudeMeters>
            <DistanceMeters>NAN</DistanceMeters>
          </Trackpoint>
          <Trackpoint>
            <Time>2022-07-15T08:48:34.000Z</Time>
            <Position>
              <LatitudeDegrees>43.3590607345104217529296875</LatitudeDegrees>
              <LongitudeDegrees>-4.441585578024387359619140625</LongitudeDegrees>
            </Position>
            <AltitudeMeters>119.8000030517578125</AltitudeMeters>
            <DistanceMeters>NAN</DistanceMeters>
          </Trackpoint>
          <Trackpoint>
            <Time>2022-07-15T08:48:35.000Z</Time>
            <Position>
              <LatitudeDegrees>43.35907481610774993896484375</LatitudeDegrees>
              <LongitudeDegrees>-4.44160443730652332305908203125</LongitudeDegrees>
            </Position>
            <AltitudeMeters>119.8000030517578125</AltitudeMeters>
            <DistanceMeters>NAN</DistanceMeters>
          </Trackpoint>
          <Trackpoint>
            <Time>2022-07-15T08:48:36.000Z</Time>
            <Position>
              <LatitudeDegrees>43.3590860478579998016357421875</LatitudeDegrees>
              <LongitudeDegrees>-4.441625140607357025146484375</LongitudeDegrees>
            </Position>
            <AltitudeMeters>120</AltitudeMeters>
            <DistanceMeters>NAN</DistanceMeters>
          </Trackpoint>
          <Trackpoint>
            <Time>2022-07-15T08:48:38.000Z</Time>
            <Position>
              <LatitudeDegrees>43.35912644863128662109375</LatitudeDegrees>
              <LongitudeDegrees>-4.4416605122387409210205078125</LongitudeDegrees>
            </Position>
            <AltitudeMeters>120</AltitudeMeters>
            <DistanceMeters>NAN</DistanceMeters>
          </Trackpoint>
          <Trackpoint>
            <Time>2022-07-15T08:48:39.000Z</Time>
            <Position>
              <LatitudeDegrees>43.35914379917085170745849609375</LatitudeDegrees>
              <LongitudeDegrees>-4.44167886860668659210205078125</LongitudeDegrees>
            </Position>
            <AltitudeMeters>120</AltitudeMeters>
            <DistanceMeters>NAN</DistanceMeters>
          </Trackpoint>
          <Trackpoint>
            <Time>2022-07-15T08:48:42.000Z</Time>
            <Position>
              <LatitudeDegrees>43.359169699251651763916015625</LatitudeDegrees>
              <LongitudeDegrees>-4.44174550473690032958984375</LongitudeDegrees>
            </Position>
            <AltitudeMeters>120.40000152587890625</AltitudeMeters>
            <DistanceMeters>NAN</DistanceMeters>
          </Trackpoint>
          <Trackpoint>
            <Time>2022-07-15T08:48:43.000Z</Time>
            <Position>
              <LatitudeDegrees>43.35917942225933074951171875</LatitudeDegrees>
              <LongitudeDegrees>-4.44176319055259227752685546875</LongitudeDegrees>
            </Position>
            <AltitudeMeters>120.59999847412109375</AltitudeMeters>
            <DistanceMeters>NAN</DistanceMeters>
          </Trackpoint>
          <Trackpoint>
            <Time>2022-07-15T08:48:45.000Z</Time>
            <Position>
              <LatitudeDegrees>43.359197191894054412841796875</LatitudeDegrees>
              <LongitudeDegrees>-4.44180451333522796630859375</LongitudeDegrees>
            </Position>
            <AltitudeMeters>120.8000030517578125</AltitudeMeters>
            <DistanceMeters>NAN</DistanceMeters>
          </Trackpoint>
          <Trackpoint>
            <Time>2022-07-15T08:48:49.000Z</Time>
            <Position>
              <LatitudeDegrees>43.35925175808370113372802734375</LatitudeDegrees>
              <LongitudeDegrees>-4.441873244941234588623046875</LongitudeDegrees>
            </Position>
            <AltitudeMeters>121</AltitudeMeters>
            <DistanceMeters>NAN</DistanceMeters>
          </Trackpoint>
          <Trackpoint>
            <Time>2022-07-15T08:48:50.000Z</Time>
            <Position>
              <LatitudeDegrees>43.35926667787134647369384765625</LatitudeDegrees>
              <LongitudeDegrees>-4.44189663045108318328857421875</LongitudeDegrees>
            </Position>
            <AltitudeMeters>121</AltitudeMeters>
            <DistanceMeters>NAN</DistanceMeters>
          </Trackpoint>
          <Trackpoint>
            <Time>2022-07-15T08:48:51.000Z</Time>
            <Position>
              <LatitudeDegrees>43.3592764846980571746826171875</LatitudeDegrees>
              <LongitudeDegrees>-4.4419133104383945465087890625</LongitudeDegrees>
            </Position>
            <AltitudeMeters>121</AltitudeMeters>
            <DistanceMeters>NAN</DistanceMeters>
          </Trackpoint>
          <Trackpoint>
            <Time>2022-07-15T08:48:58.000Z</Time>
            <Position>
              <LatitudeDegrees>43.3594012074172496795654296875</LatitudeDegrees>
              <LongitudeDegrees>-4.4420433975756168365478515625</LongitudeDegrees>
            </Position>
            <AltitudeMeters>121.1999969482421875</AltitudeMeters>
            <DistanceMeters>NAN</DistanceMeters>
          </Trackpoint>
          <Trackpoint>
            <Time>2022-07-15T08:49:03.000Z</Time>
            <Position>
              <LatitudeDegrees>43.35954462178051471710205078125</LatitudeDegrees>
              <LongitudeDegrees>-4.44213769398629665374755859375</LongitudeDegrees>
            </Position>
            <AltitudeMeters>121</AltitudeMeters>
            <DistanceMeters>NAN</DistanceMeters>
          </Trackpoint>
          <Trackpoint>
            <Time>2022-07-15T08:49:06.000Z</Time>
            <Position>
              <LatitudeDegrees>43.3596768043935298919677734375</LatitudeDegrees>
              <LongitudeDegrees>-4.4421674497425556182861328125</LongitudeDegrees>
            </Position>
            <AltitudeMeters>120.8000030517578125</AltitudeMeters>
            <DistanceMeters>NAN</DistanceMeters>
          </Trackpoint>
          <Trackpoint>
            <Time>2022-07-15T08:49:08.000Z</Time>
            <Position>
              <LatitudeDegrees>43.3597515709698200225830078125</LatitudeDegrees>
              <LongitudeDegrees>-4.44221631623804569244384765625</LongitudeDegrees>
            </Position>
            <AltitudeMeters>120.59999847412109375</AltitudeMeters>
            <DistanceMeters>NAN</DistanceMeters>
          </Trackpoint>
          <Trackpoint>
            <Time>2022-07-15T08:49:12.000Z</Time>
            <Position>
              <LatitudeDegrees>43.35986983962357044219970703125</LatitudeDegrees>
              <LongitudeDegrees>-4.442407675087451934814453125</LongitudeDegrees>
            </Position>
            <AltitudeMeters>120.1999969482421875</AltitudeMeters>
            <DistanceMeters>NAN</DistanceMeters>
          </Trackpoint>
          <Trackpoint>
            <Time>2022-07-15T08:49:13.000Z</Time>
            <Position>
              <LatitudeDegrees>43.3598863519728183746337890625</LatitudeDegrees>
              <LongitudeDegrees>-4.4424671865999698638916015625</LongitudeDegrees>
            </Position>
            <AltitudeMeters>120</AltitudeMeters>
            <DistanceMeters>NAN</DistanceMeters>
          </Trackpoint>
          <Trackpoint>
            <Time>2022-07-15T08:49:14.000Z</Time>
            <Position>
              <LatitudeDegrees>43.35989666171371936798095703125</LatitudeDegrees>
              <LongitudeDegrees>-4.44252200424671173095703125</LongitudeDegrees>
            </Position>
            <AltitudeMeters>119.8000030517578125</AltitudeMeters>
            <DistanceMeters>NAN</DistanceMeters>
          </Trackpoint>
          <Trackpoint>
            <Time>2022-07-15T08:49:17.000Z</Time>
            <Position>
              <LatitudeDegrees>43.3599275909364223480224609375</LatitudeDegrees>
              <LongitudeDegrees>-4.44277287460863590240478515625</LongitudeDegrees>
            </Position>
            <AltitudeMeters>119.1999969482421875</AltitudeMeters>
            <DistanceMeters>NAN</DistanceMeters>
          </Trackpoint>
          <Trackpoint>
            <Time>2022-07-15T08:49:18.000Z</Time>
            <Position>
              <LatitudeDegrees>43.35994116961956024169921875</LatitudeDegrees>
              <LongitudeDegrees>-4.44286842830479145050048828125</LongitudeDegrees>
            </Position>
            <AltitudeMeters>118.8000030517578125</AltitudeMeters>
            <DistanceMeters>NAN</DistanceMeters>
          </Trackpoint>
          <Trackpoint>
            <Time>2022-07-15T08:49:21.000Z</Time>
            <Position>
              <LatitudeDegrees>43.35999573580920696258544921875</LatitudeDegrees>
              <LongitudeDegrees>-4.4431655667722225189208984375</LongitudeDegrees>
            </Position>
            <AltitudeMeters>117.8000030517578125</AltitudeMeters>
            <DistanceMeters>NAN</DistanceMeters>
          </Trackpoint>
          <Trackpoint>
            <Time>2022-07-15T08:49:22.000Z</Time>
            <Position>
              <LatitudeDegrees>43.3600140921771526336669921875</LatitudeDegrees>
              <LongitudeDegrees>-4.44326740689575672149658203125</LongitudeDegrees>
            </Position>
            <AltitudeMeters>117.40000152587890625</AltitudeMeters>
            <DistanceMeters>NAN</DistanceMeters>
          </Trackpoint>
          <Trackpoint>
            <Time>2022-07-15T08:49:24.000Z</Time>
            <Position>
              <LatitudeDegrees>43.36005591787397861480712890625</LatitudeDegrees>
              <LongitudeDegrees>-4.44346538744866847991943359375</LongitudeDegrees>
            </Position>
            <AltitudeMeters>116.8000030517578125</AltitudeMeters>
            <DistanceMeters>NAN</DistanceMeters>
          </Trackpoint>
          <Trackpoint>
            <Time>2022-07-15T08:49:27.000Z</Time>
            <Position>
              <LatitudeDegrees>43.36011978797614574432373046875</LatitudeDegrees>
              <LongitudeDegrees>-4.4437932036817073822021484375</LongitudeDegrees>
            </Position>
            <AltitudeMeters>115</AltitudeMeters>
            <DistanceMeters>NAN</DistanceMeters>
          </Trackpoint>
          <Trackpoint>
            <Time>2022-07-15T08:49:28.000Z</Time>
            <Position>
              <LatitudeDegrees>43.360143005847930908203125</LatitudeDegrees>
              <LongitudeDegrees>-4.44390107877552509307861328125</LongitudeDegrees>
            </Position>
            <AltitudeMeters>114.59999847412109375</AltitudeMeters>
            <DistanceMeters>NAN</DistanceMeters>
          </Trackpoint>
          <Trackpoint>
            <Time>2022-07-15T08:49:29.000Z</Time>
            <Position>
              <LatitudeDegrees>43.360166810452938079833984375</LatitudeDegrees>
              <LongitudeDegrees>-4.4439893402159214019775390625</LongitudeDegrees>
            </Position>
            <AltitudeMeters>114.1999969482421875</AltitudeMeters>
            <DistanceMeters>NAN</DistanceMeters>
          </Trackpoint>
          <Trackpoint>
            <Time>2022-07-15T08:49:30.000Z</Time>
            <Position>
              <LatitudeDegrees>43.36019488982856273651123046875</LatitudeDegrees>
              <LongitudeDegrees>-4.44410056807100772857666015625</LongitudeDegrees>
            </Position>
            <AltitudeMeters>113.8000030517578125</AltitudeMeters>
            <DistanceMeters>NAN</DistanceMeters>
          </Trackpoint>
          <Trackpoint>
            <Time>2022-07-15T08:49:31.000Z</Time>
            <Position>
              <LatitudeDegrees>43.36023244075477123260498046875</LatitudeDegrees>
              <LongitudeDegrees>-4.4442387856543064117431640625</LongitudeDegrees>
            </Position>
            <AltitudeMeters>113.40000152587890625</AltitudeMeters>
            <DistanceMeters>NAN</DistanceMeters>
          </Trackpoint>
          <Trackpoint>
            <Time>2022-07-15T08:49:33.000Z</Time>
            <Position>
              <LatitudeDegrees>43.360329754650592803955078125</LatitudeDegrees>
              <LongitudeDegrees>-4.44445378147065639495849609375</LongitudeDegrees>
            </Position>
            <AltitudeMeters>112.59999847412109375</AltitudeMeters>
            <DistanceMeters>NAN</DistanceMeters>
          </Trackpoint>
          <Trackpoint>
            <Time>2022-07-15T08:49:35.000Z</Time>
            <Position>
              <LatitudeDegrees>43.3604465983808040618896484375</LatitudeDegrees>
              <LongitudeDegrees>-4.44462711922824382781982421875</LongitudeDegrees>
            </Position>
            <AltitudeMeters>112</AltitudeMeters>
            <DistanceMeters>NAN</DistanceMeters>
          </Trackpoint>
          <Trackpoint>
            <Time>2022-07-15T08:49:36.000Z</Time>
            <Position>
              <LatitudeDegrees>43.36053888313472270965576171875</LatitudeDegrees>
              <LongitudeDegrees>-4.44472351111471652984619140625</LongitudeDegrees>
            </Position>
            <AltitudeMeters>111.8000030517578125</AltitudeMeters>
            <DistanceMeters>NAN</DistanceMeters>
          </Trackpoint>
          <Trackpoint>
            <Time>2022-07-15T08:49:37.000Z</Time>
            <Position>
              <LatitudeDegrees>43.36062404327094554901123046875</LatitudeDegrees>
              <LongitudeDegrees>-4.44479878060519695281982421875</LongitudeDegrees>
            </Position>
            <AltitudeMeters>111.40000152587890625</AltitudeMeters>
            <DistanceMeters>NAN</DistanceMeters>
          </Trackpoint>
          <Trackpoint>
            <Time>2022-07-15T08:49:39.000Z</Time>
            <Position>
              <LatitudeDegrees>43.36077827028930187225341796875</LatitudeDegrees>
              <LongitudeDegrees>-4.44493490271270275115966796875</LongitudeDegrees>
            </Position>
            <AltitudeMeters>110.1999969482421875</AltitudeMeters>
            <DistanceMeters>NAN</DistanceMeters>
          </Trackpoint>
          <Trackpoint>
            <Time>2022-07-15T08:49:41.000Z</Time>
            <Position>
              <LatitudeDegrees>43.360954709351062774658203125</LatitudeDegrees>
              <LongitudeDegrees>-4.4451094977557659149169921875</LongitudeDegrees>
            </Position>
            <AltitudeMeters>108.59999847412109375</AltitudeMeters>
            <DistanceMeters>NAN</DistanceMeters>
          </Trackpoint>
          <Trackpoint>
            <Time>2022-07-15T08:49:43.000Z</Time>
            <Position>
              <LatitudeDegrees>43.36109577678143978118896484375</LatitudeDegrees>
              <LongitudeDegrees>-4.44523463957011699676513671875</LongitudeDegrees>
            </Position>
            <AltitudeMeters>107.8000030517578125</AltitudeMeters>
            <DistanceMeters>NAN</DistanceMeters>
          </Trackpoint>
          <Trackpoint>
            <Time>2022-07-15T08:49:44.000Z</Time>
            <Position>
              <LatitudeDegrees>43.36117858998477458953857421875</LatitudeDegrees>
              <LongitudeDegrees>-4.44528878666460514068603515625</LongitudeDegrees>
            </Position>
            <AltitudeMeters>107.40000152587890625</AltitudeMeters>
            <DistanceMeters>NAN</DistanceMeters>
          </Trackpoint>
          <Trackpoint>
            <Time>2022-07-15T08:49:46.000Z</Time>
            <Position>
              <LatitudeDegrees>43.36134673096239566802978515625</LatitudeDegrees>
              <LongitudeDegrees>-4.44534108974039554595947265625</LongitudeDegrees>
            </Position>
            <AltitudeMeters>106.40000152587890625</AltitudeMeters>
            <DistanceMeters>NAN</DistanceMeters>
          </Trackpoint>
          <Trackpoint>
            <Time>2022-07-15T08:49:50.000Z</Time>
            <Position>
              <LatitudeDegrees>43.3616093359887599945068359375</LatitudeDegrees>
              <LongitudeDegrees>-4.44533622823655605316162109375</LongitudeDegrees>
            </Position>
            <AltitudeMeters>106</AltitudeMeters>
            <DistanceMeters>NAN</DistanceMeters>
          </Trackpoint>
          <Trackpoint>
            <Time>2022-07-15T08:49:52.000Z</Time>
            <Position>
              <LatitudeDegrees>43.3617122657597064971923828125</LatitudeDegrees>
              <LongitudeDegrees>-4.44538970477879047393798828125</LongitudeDegrees>
            </Position>
            <AltitudeMeters>106.1999969482421875</AltitudeMeters>
            <DistanceMeters>NAN</DistanceMeters>
          </Trackpoint>
          <Trackpoint>
            <Time>2022-07-15T08:49:53.000Z</Time>
            <Position>
              <LatitudeDegrees>43.3617364056408405303955078125</LatitudeDegrees>
              <LongitudeDegrees>-4.44541367702186107635498046875</LongitudeDegrees>
            </Position>
            <AltitudeMeters>106.40000152587890625</AltitudeMeters>
            <DistanceMeters>NAN</DistanceMeters>
          </Trackpoint>
          <Trackpoint>
            <Time>2022-07-15T08:49:54.000Z</Time>
            <Position>
              <LatitudeDegrees>43.3617638982832431793212890625</LatitudeDegrees>
              <LongitudeDegrees>-4.4454484619200229644775390625</LongitudeDegrees>
            </Position>
            <AltitudeMeters>106.40000152587890625</AltitudeMeters>
            <DistanceMeters>NAN</DistanceMeters>
          </Trackpoint>
          <Trackpoint>
            <Time>2022-07-15T08:49:57.000Z</Time>
            <Position>
              <LatitudeDegrees>43.361796252429485321044921875</LatitudeDegrees>
              <LongitudeDegrees>-4.44558617658913135528564453125</LongitudeDegrees>
            </Position>
            <AltitudeMeters>106.8000030517578125</AltitudeMeters>
            <DistanceMeters>NAN</DistanceMeters>
          </Trackpoint>
          <Trackpoint>
            <Time>2022-07-15T08:50:01.000Z</Time>
            <Position>
              <LatitudeDegrees>43.361780829727649688720703125</LatitudeDegrees>
              <LongitudeDegrees>-4.445747025310993194580078125</LongitudeDegrees>
            </Position>
            <AltitudeMeters>107.40000152587890625</AltitudeMeters>
            <DistanceMeters>NAN</DistanceMeters>
          </Trackpoint>
          <Trackpoint>
            <Time>2022-07-15T08:50:02.000Z</Time>
            <Position>
              <LatitudeDegrees>43.36177018471062183380126953125</LatitudeDegrees>
              <LongitudeDegrees>-4.44578398950397968292236328125</LongitudeDegrees>
            </Position>
            <AltitudeMeters>107.40000152587890625</AltitudeMeters>
            <DistanceMeters>NAN</DistanceMeters>
          </Trackpoint>
          <Trackpoint>
            <Time>2022-07-15T08:50:05.000Z</Time>
            <Position>
              <LatitudeDegrees>43.36176029406487941741943359375</LatitudeDegrees>
              <LongitudeDegrees>-4.445911310613155364990234375</LongitudeDegrees>
            </Position>
            <AltitudeMeters>107.8000030517578125</AltitudeMeters>
            <DistanceMeters>NAN</DistanceMeters>
          </Trackpoint>
          <Trackpoint>
            <Time>2022-07-15T08:50:07.000Z</Time>
            <Position>
              <LatitudeDegrees>43.36176180280745029449462890625</LatitudeDegrees>
              <LongitudeDegrees>-4.44598766975104808807373046875</LongitudeDegrees>
            </Position>
            <AltitudeMeters>108.1999969482421875</AltitudeMeters>
            <DistanceMeters>NAN</DistanceMeters>
          </Trackpoint>
          <Trackpoint>
            <Time>2022-07-15T08:50:08.000Z</Time>
            <Position>
              <LatitudeDegrees>43.36176549084484577178955078125</LatitudeDegrees>
              <LongitudeDegrees>-4.44602362811565399169921875</LongitudeDegrees>
            </Position>
            <AltitudeMeters>108.40000152587890625</AltitudeMeters>
            <DistanceMeters>NAN</DistanceMeters>
          </Trackpoint>
          <Trackpoint>
            <Time>2022-07-15T08:50:09.000Z</Time>
            <Position>
              <LatitudeDegrees>43.361770771443843841552734375</LatitudeDegrees>
              <LongitudeDegrees>-4.44606243632733821868896484375</LongitudeDegrees>
            </Position>
            <AltitudeMeters>108.40000152587890625</AltitudeMeters>
            <DistanceMeters>NAN</DistanceMeters>
          </Trackpoint>
          <Trackpoint>
            <Time>2022-07-15T08:50:14.000Z</Time>
            <Position>
              <LatitudeDegrees>43.36180522106587886810302734375</LatitudeDegrees>
              <LongitudeDegrees>-4.446245916187763214111328125</LongitudeDegrees>
            </Position>
            <AltitudeMeters>109</AltitudeMeters>
            <DistanceMeters>NAN</DistanceMeters>
          </Trackpoint>
          <Trackpoint>
            <Time>2022-07-15T08:50:16.000Z</Time>
            <Position>
              <LatitudeDegrees>43.3618239127099514007568359375</LatitudeDegrees>
              <LongitudeDegrees>-4.4463174976408481597900390625</LongitudeDegrees>
            </Position>
            <AltitudeMeters>109</AltitudeMeters>
            <DistanceMeters>NAN</DistanceMeters>
          </Trackpoint>
          <Trackpoint>
            <Time>2022-07-15T08:50:18.000Z</Time>
            <Position>
              <LatitudeDegrees>43.3618507348001003265380859375</LatitudeDegrees>
              <LongitudeDegrees>-4.4463872350752353668212890625</LongitudeDegrees>
            </Position>
            <AltitudeMeters>109.1999969482421875</AltitudeMeters>
            <DistanceMeters>NAN</DistanceMeters>
          </Trackpoint>
          <Trackpoint>
            <Time>2022-07-15T08:50:20.000Z</Time>
            <Position>
              <LatitudeDegrees>43.36188174784183502197265625</LatitudeDegrees>
              <LongitudeDegrees>-4.44644381292164325714111328125</LongitudeDegrees>
            </Position>
            <AltitudeMeters>109.40000152587890625</AltitudeMeters>
            <DistanceMeters>NAN</DistanceMeters>
          </Trackpoint>
          <Trackpoint>
            <Time>2022-07-15T08:50:22.000Z</Time>
            <Position>
              <LatitudeDegrees>43.3619275130331516265869140625</LatitudeDegrees>
              <LongitudeDegrees>-4.446480274200439453125</LongitudeDegrees>
            </Position>
            <AltitudeMeters>109.59999847412109375</AltitudeMeters>
            <DistanceMeters>NAN</DistanceMeters>
          </Trackpoint>
          <Trackpoint>
            <Time>2022-07-15T08:50:26.000Z</Time>
            <Position>
              <LatitudeDegrees>43.36199666373431682586669921875</LatitudeDegrees>
              <LongitudeDegrees>-4.44655663333833217620849609375</LongitudeDegrees>
            </Position>
            <AltitudeMeters>110</AltitudeMeters>
            <DistanceMeters>NAN</DistanceMeters>
          </Trackpoint>
          <Trackpoint>
            <Time>2022-07-15T08:50:30.000Z</Time>
            <Position>
              <LatitudeDegrees>43.362047374248504638671875</LatitudeDegrees>
              <LongitudeDegrees>-4.44666442461311817169189453125</LongitudeDegrees>
            </Position>
            <AltitudeMeters>110.40000152587890625</AltitudeMeters>
            <DistanceMeters>NAN</DistanceMeters>
          </Trackpoint>
          <Trackpoint>
            <Time>2022-07-15T08:50:36.000Z</Time>
            <Position>
              <LatitudeDegrees>43.36203790269792079925537109375</LatitudeDegrees>
              <LongitudeDegrees>-4.4468945078551769256591796875</LongitudeDegrees>
            </Position>
            <AltitudeMeters>110.59999847412109375</AltitudeMeters>
            <DistanceMeters>NAN</DistanceMeters>
          </Trackpoint>
          <Trackpoint>
            <Time>2022-07-15T08:50:37.000Z</Time>
            <Position>
              <LatitudeDegrees>43.36203354410827159881591796875</LatitudeDegrees>
              <LongitudeDegrees>-4.44693683646619319915771484375</LongitudeDegrees>
            </Position>
            <AltitudeMeters>110.59999847412109375</AltitudeMeters>
            <DistanceMeters>NAN</DistanceMeters>
          </Trackpoint>
          <Trackpoint>
            <Time>2022-07-15T08:50:39.000Z</Time>
            <Position>
              <LatitudeDegrees>43.36203220300376415252685546875</LatitudeDegrees>
              <LongitudeDegrees>-4.447021074593067169189453125</LongitudeDegrees>
            </Position>
            <AltitudeMeters>110.59999847412109375</AltitudeMeters>
            <DistanceMeters>NAN</DistanceMeters>
          </Trackpoint>
          <Trackpoint>
            <Time>2022-07-15T08:50:43.000Z</Time>
            <Position>
              <LatitudeDegrees>43.3620220609009265899658203125</LatitudeDegrees>
              <LongitudeDegrees>-4.4471885450184345245361328125</LongitudeDegrees>
            </Position>
            <AltitudeMeters>110.59999847412109375</AltitudeMeters>
            <DistanceMeters>NAN</DistanceMeters>
          </Trackpoint>
          <Trackpoint>
            <Time>2022-07-15T08:50:46.000Z</Time>
            <Position>
              <LatitudeDegrees>43.36201183497905731201171875</LatitudeDegrees>
              <LongitudeDegrees>-4.44730815477669239044189453125</LongitudeDegrees>
            </Position>
            <AltitudeMeters>110.59999847412109375</AltitudeMeters>
            <DistanceMeters>NAN</DistanceMeters>
          </Trackpoint>
          <Trackpoint>
            <Time>2022-07-15T08:50:53.000Z</Time>
            <Position>
              <LatitudeDegrees>43.36203069426119327545166015625</LatitudeDegrees>
              <LongitudeDegrees>-4.44761820137500762939453125</LongitudeDegrees>
            </Position>
            <AltitudeMeters>110</AltitudeMeters>
            <DistanceMeters>NAN</DistanceMeters>
          </Trackpoint>
          <Trackpoint>
            <Time>2022-07-15T08:51:00.000Z</Time>
            <Position>
              <LatitudeDegrees>43.36213781498372554779052734375</LatitudeDegrees>
              <LongitudeDegrees>-4.44795473478734493255615234375</LongitudeDegrees>
            </Position>
            <AltitudeMeters>109.59999847412109375</AltitudeMeters>
            <DistanceMeters>NAN</DistanceMeters>
          </Trackpoint>
          <Trackpoint>
            <Time>2022-07-15T08:51:02.000Z</Time>
            <Position>
              <LatitudeDegrees>43.36216111667454242706298828125</LatitudeDegrees>
              <LongitudeDegrees>-4.44805883802473545074462890625</LongitudeDegrees>
            </Position>
            <AltitudeMeters>109.59999847412109375</AltitudeMeters>
            <DistanceMeters>NAN</DistanceMeters>
          </Trackpoint>
          <Trackpoint>
            <Time>2022-07-15T08:51:06.000Z</Time>
            <Position>
              <LatitudeDegrees>43.36221626959741115570068359375</LatitudeDegrees>
              <LongitudeDegrees>-4.4482812099158763885498046875</LongitudeDegrees>
            </Position>
            <AltitudeMeters>109.1999969482421875</AltitudeMeters>
            <DistanceMeters>NAN</DistanceMeters>
          </Trackpoint>
          <Trackpoint>
            <Time>2022-07-15T08:51:07.000Z</Time>
            <Position>
              <LatitudeDegrees>43.362232111394405364990234375</LatitudeDegrees>
              <LongitudeDegrees>-4.44833946414291858673095703125</LongitudeDegrees>
            </Position>
            <AltitudeMeters>109</AltitudeMeters>
            <DistanceMeters>NAN</DistanceMeters>
          </Trackpoint>
          <Trackpoint>
            <Time>2022-07-15T08:51:09.000Z</Time>
            <Position>
              <LatitudeDegrees>43.36227561347186565399169921875</LatitudeDegrees>
              <LongitudeDegrees>-4.448457397520542144775390625</LongitudeDegrees>
            </Position>
            <AltitudeMeters>108.8000030517578125</AltitudeMeters>
            <DistanceMeters>NAN</DistanceMeters>
          </Trackpoint>
          <Trackpoint>
            <Time>2022-07-15T08:51:11.000Z</Time>
            <Position>
              <LatitudeDegrees>43.36233076639473438262939453125</LatitudeDegrees>
              <LongitudeDegrees>-4.44856493733823299407958984375</LongitudeDegrees>
            </Position>
            <AltitudeMeters>108.40000152587890625</AltitudeMeters>
            <DistanceMeters>NAN</DistanceMeters>
          </Trackpoint>
          <Trackpoint>
            <Time>2022-07-15T08:51:16.000Z</Time>
            <Position>
              <LatitudeDegrees>43.36244677193462848663330078125</LatitudeDegrees>
              <LongitudeDegrees>-4.44878672249615192413330078125</LongitudeDegrees>
            </Position>
            <AltitudeMeters>108.40000152587890625</AltitudeMeters>
            <DistanceMeters>NAN</DistanceMeters>
          </Trackpoint>
          <Trackpoint>
            <Time>2022-07-15T08:51:18.000Z</Time>
            <Position>
              <LatitudeDegrees>43.3624874241650104522705078125</LatitudeDegrees>
              <LongitudeDegrees>-4.448880515992641448974609375</LongitudeDegrees>
            </Position>
            <AltitudeMeters>108.40000152587890625</AltitudeMeters>
            <DistanceMeters>NAN</DistanceMeters>
          </Trackpoint>
          <Trackpoint>
            <Time>2022-07-15T08:51:22.000Z</Time>
            <Position>
              <LatitudeDegrees>43.36254517547786235809326171875</LatitudeDegrees>
              <LongitudeDegrees>-4.449036084115505218505859375</LongitudeDegrees>
            </Position>
            <AltitudeMeters>108.8000030517578125</AltitudeMeters>
            <DistanceMeters>NAN</DistanceMeters>
          </Trackpoint>
          <Trackpoint>
            <Time>2022-07-15T08:51:25.000Z</Time>
            <Position>
              <LatitudeDegrees>43.3625863306224346160888671875</LatitudeDegrees>
              <LongitudeDegrees>-4.44913499057292938232421875</LongitudeDegrees>
            </Position>
            <AltitudeMeters>109</AltitudeMeters>
            <DistanceMeters>NAN</DistanceMeters>
          </Trackpoint>
          <Trackpoint>
            <Time>2022-07-15T08:51:27.000Z</Time>
            <Position>
              <LatitudeDegrees>43.3625957183539867401123046875</LatitudeDegrees>
              <LongitudeDegrees>-4.449210427701473236083984375</LongitudeDegrees>
            </Position>
            <AltitudeMeters>109.1999969482421875</AltitudeMeters>
            <DistanceMeters>NAN</DistanceMeters>
          </Trackpoint>
          <Trackpoint>
            <Time>2022-07-15T08:51:30.000Z</Time>
            <Position>
              <LatitudeDegrees>43.36263050325214862823486328125</LatitudeDegrees>
              <LongitudeDegrees>-4.4493235833942890167236328125</LongitudeDegrees>
            </Position>
            <AltitudeMeters>109.59999847412109375</AltitudeMeters>
            <DistanceMeters>NAN</DistanceMeters>
          </Trackpoint>
          <Trackpoint>
            <Time>2022-07-15T08:51:35.000Z</Time>
            <Position>
              <LatitudeDegrees>43.3626513741910457611083984375</LatitudeDegrees>
              <LongitudeDegrees>-4.4495059736073017120361328125</LongitudeDegrees>
            </Position>
            <AltitudeMeters>110</AltitudeMeters>
            <DistanceMeters>NAN</DistanceMeters>
          </Trackpoint>
          <Trackpoint>
            <Time>2022-07-15T08:51:39.000Z</Time>
            <Position>
              <LatitudeDegrees>43.36266084574162960052490234375</LatitudeDegrees>
              <LongitudeDegrees>-4.44963463582098484039306640625</LongitudeDegrees>
            </Position>
            <AltitudeMeters>110.40000152587890625</AltitudeMeters>
            <DistanceMeters>NAN</DistanceMeters>
          </Trackpoint>
          <Trackpoint>
            <Time>2022-07-15T08:51:40.000Z</Time>
            <Position>
              <LatitudeDegrees>43.36266235448420047760009765625</LatitudeDegrees>
              <LongitudeDegrees>-4.44966665469110012054443359375</LongitudeDegrees>
            </Position>
            <AltitudeMeters>110.59999847412109375</AltitudeMeters>
            <DistanceMeters>NAN</DistanceMeters>
          </Trackpoint>
          <Trackpoint>
            <Time>2022-07-15T08:51:43.000Z</Time>
            <Position>
              <LatitudeDegrees>43.36267660371959209442138671875</LatitudeDegrees>
              <LongitudeDegrees>-4.44974963553249835968017578125</LongitudeDegrees>
            </Position>
            <AltitudeMeters>111</AltitudeMeters>
            <DistanceMeters>NAN</DistanceMeters>
          </Trackpoint>
          <Trackpoint>
            <Time>2022-07-15T08:51:48.000Z</Time>
            <Position>
              <LatitudeDegrees>43.3626621030271053314208984375</LatitudeDegrees>
              <LongitudeDegrees>-4.44989405572414398193359375</LongitudeDegrees>
            </Position>
            <AltitudeMeters>111.59999847412109375</AltitudeMeters>
            <DistanceMeters>NAN</DistanceMeters>
          </Trackpoint>
          <Trackpoint>
            <Time>2022-07-15T08:51:49.000Z</Time>
            <Position>
              <LatitudeDegrees>43.36265916936099529266357421875</LatitudeDegrees>
              <LongitudeDegrees>-4.44992096163332462310791015625</LongitudeDegrees>
            </Position>
            <AltitudeMeters>111.8000030517578125</AltitudeMeters>
            <DistanceMeters>NAN</DistanceMeters>
          </Trackpoint>
          <Trackpoint>
            <Time>2022-07-15T08:51:52.000Z</Time>
            <Position>
              <LatitudeDegrees>43.36264626123011112213134765625</LatitudeDegrees>
              <LongitudeDegrees>-4.45000913925468921661376953125</LongitudeDegrees>
            </Position>
            <AltitudeMeters>112.1999969482421875</AltitudeMeters>
            <DistanceMeters>NAN</DistanceMeters>
          </Trackpoint>
          <Trackpoint>
            <Time>2022-07-15T08:51:55.000Z</Time>
            <Position>
              <LatitudeDegrees>43.3626349456608295440673828125</LatitudeDegrees>
              <LongitudeDegrees>-4.45009547285735607147216796875</LongitudeDegrees>
            </Position>
            <AltitudeMeters>112.59999847412109375</AltitudeMeters>
            <DistanceMeters>NAN</DistanceMeters>
          </Trackpoint>
          <Trackpoint>
            <Time>2022-07-15T08:51:56.000Z</Time>
            <Position>
              <LatitudeDegrees>43.36263469420373439788818359375</LatitudeDegrees>
              <LongitudeDegrees>-4.4501285813748836517333984375</LongitudeDegrees>
            </Position>
            <AltitudeMeters>112.59999847412109375</AltitudeMeters>
            <DistanceMeters>NAN</DistanceMeters>
          </Trackpoint>
          <Trackpoint>
            <Time>2022-07-15T08:51:59.000Z</Time>
            <Position>
              <LatitudeDegrees>43.362643830478191375732421875</LatitudeDegrees>
              <LongitudeDegrees>-4.45021768100559711456298828125</LongitudeDegrees>
            </Position>
            <AltitudeMeters>112.8000030517578125</AltitudeMeters>
            <DistanceMeters>NAN</DistanceMeters>
          </Trackpoint>
          <Trackpoint>
            <Time>2022-07-15T08:52:02.000Z</Time>
            <Position>
              <LatitudeDegrees>43.362643830478191375732421875</LatitudeDegrees>
              <LongitudeDegrees>-4.45030351169407367706298828125</LongitudeDegrees>
            </Position>
            <AltitudeMeters>113</AltitudeMeters>
            <DistanceMeters>NAN</DistanceMeters>
          </Trackpoint>
          <Trackpoint>
            <Time>2022-07-15T08:52:06.000Z</Time>
            <Position>
              <LatitudeDegrees>43.362633101642131805419921875</LatitudeDegrees>
              <LongitudeDegrees>-4.4504135660827159881591796875</LongitudeDegrees>
            </Position>
            <AltitudeMeters>113.1999969482421875</AltitudeMeters>
            <DistanceMeters>NAN</DistanceMeters>
          </Trackpoint>
          <Trackpoint>
            <Time>2022-07-15T08:52:10.000Z</Time>
            <Position>
              <LatitudeDegrees>43.3626272343099117279052734375</LatitudeDegrees>
              <LongitudeDegrees>-4.4505312480032444000244140625</LongitudeDegrees>
            </Position>
            <AltitudeMeters>113.8000030517578125</AltitudeMeters>
            <DistanceMeters>NAN</DistanceMeters>
          </Trackpoint>
          <Trackpoint>
            <Time>2022-07-15T08:52:12.000Z</Time>
            <Position>
              <LatitudeDegrees>43.36262631230056285858154296875</LatitudeDegrees>
              <LongitudeDegrees>-4.4505899213254451751708984375</LongitudeDegrees>
            </Position>
            <AltitudeMeters>114</AltitudeMeters>
            <DistanceMeters>NAN</DistanceMeters>
          </Trackpoint>
          <Trackpoint>
            <Time>2022-07-15T08:52:20.000Z</Time>
            <Position>
              <LatitudeDegrees>43.362610302865505218505859375</LatitudeDegrees>
              <LongitudeDegrees>-4.4508199207484722137451171875</LongitudeDegrees>
            </Position>
            <AltitudeMeters>114.59999847412109375</AltitudeMeters>
            <DistanceMeters>NAN</DistanceMeters>
          </Trackpoint>
          <Trackpoint>
            <Time>2022-07-15T08:52:21.000Z</Time>
            <Position>
              <LatitudeDegrees>43.36260837502777576446533203125</LatitudeDegrees>
              <LongitudeDegrees>-4.45085034705698490142822265625</LongitudeDegrees>
            </Position>
            <AltitudeMeters>114.8000030517578125</AltitudeMeters>
            <DistanceMeters>NAN</DistanceMeters>
          </Trackpoint>
          <Trackpoint>
            <Time>2022-07-15T08:52:28.000Z</Time>
            <Position>
              <LatitudeDegrees>43.3626165054738521575927734375</LatitudeDegrees>
              <LongitudeDegrees>-4.451090656220912933349609375</LongitudeDegrees>
            </Position>
            <AltitudeMeters>115.1999969482421875</AltitudeMeters>
            <DistanceMeters>NAN</DistanceMeters>
          </Trackpoint>
          <Trackpoint>
            <Time>2022-07-15T08:52:33.000Z</Time>
            <Position>
              <LatitudeDegrees>43.36263536475598812103271484375</LatitudeDegrees>
              <LongitudeDegrees>-4.45123289711773395538330078125</LongitudeDegrees>
            </Position>
            <AltitudeMeters>115.8000030517578125</AltitudeMeters>
            <DistanceMeters>NAN</DistanceMeters>
          </Trackpoint>
          <Trackpoint>
            <Time>2022-07-15T08:52:34.000Z</Time>
            <Position>
              <LatitudeDegrees>43.36263854987919330596923828125</LatitudeDegrees>
              <LongitudeDegrees>-4.451258964836597442626953125</LongitudeDegrees>
            </Position>
            <AltitudeMeters>116</AltitudeMeters>
            <DistanceMeters>NAN</DistanceMeters>
          </Trackpoint>
          <Trackpoint>
            <Time>2022-07-15T08:52:41.000Z</Time>
            <Position>
              <LatitudeDegrees>43.3626607619225978851318359375</LatitudeDegrees>
              <LongitudeDegrees>-4.451428949832916259765625</LongitudeDegrees>
            </Position>
            <AltitudeMeters>117</AltitudeMeters>
            <DistanceMeters>NAN</DistanceMeters>
          </Trackpoint>
          <Trackpoint>
            <Time>2022-07-15T08:52:44.000Z</Time>
            <Position>
              <LatitudeDegrees>43.362652547657489776611328125</LatitudeDegrees>
              <LongitudeDegrees>-4.45149206556379795074462890625</LongitudeDegrees>
            </Position>
            <AltitudeMeters>117.40000152587890625</AltitudeMeters>
            <DistanceMeters>NAN</DistanceMeters>
          </Trackpoint>
          <Trackpoint>
            <Time>2022-07-15T08:52:50.000Z</Time>
            <Position>
              <LatitudeDegrees>43.36263787932693958282470703125</LatitudeDegrees>
              <LongitudeDegrees>-4.4516395032405853271484375</LongitudeDegrees>
            </Position>
            <AltitudeMeters>117.8000030517578125</AltitudeMeters>
            <DistanceMeters>NAN</DistanceMeters>
          </Trackpoint>
          <Trackpoint>
            <Time>2022-07-15T08:52:52.000Z</Time>
            <Position>
              <LatitudeDegrees>43.36263150908052921295166015625</LatitudeDegrees>
              <LongitudeDegrees>-4.4516889564692974090576171875</LongitudeDegrees>
            </Position>
            <AltitudeMeters>118</AltitudeMeters>
            <DistanceMeters>NAN</DistanceMeters>
          </Trackpoint>
          <Trackpoint>
            <Time>2022-07-15T08:52:58.000Z</Time>
            <Position>
              <LatitudeDegrees>43.36262413300573825836181640625</LatitudeDegrees>
              <LongitudeDegrees>-4.45183857344090938568115234375</LongitudeDegrees>
            </Position>
            <AltitudeMeters>118.1999969482421875</AltitudeMeters>
            <DistanceMeters>NAN</DistanceMeters>
          </Trackpoint>
          <Trackpoint>
            <Time>2022-07-15T08:53:08.000Z</Time>
            <Position>
              <LatitudeDegrees>43.36264559067785739898681640625</LatitudeDegrees>
              <LongitudeDegrees>-4.45210813544690608978271484375</LongitudeDegrees>
            </Position>
            <AltitudeMeters>118.1999969482421875</AltitudeMeters>
            <DistanceMeters>NAN</DistanceMeters>
          </Trackpoint>
          <Trackpoint>
            <Time>2022-07-15T08:53:10.000Z</Time>
            <Position>
              <LatitudeDegrees>43.36265129037201404571533203125</LatitudeDegrees>
              <LongitudeDegrees>-4.4521759450435638427734375</LongitudeDegrees>
            </Position>
            <AltitudeMeters>118.1999969482421875</AltitudeMeters>
            <DistanceMeters>NAN</DistanceMeters>
          </Trackpoint>
          <Trackpoint>
            <Time>2022-07-15T08:53:15.000Z</Time>
            <Position>
              <LatitudeDegrees>43.3626671321690082550048828125</LatitudeDegrees>
              <LongitudeDegrees>-4.45233763195574283599853515625</LongitudeDegrees>
            </Position>
            <AltitudeMeters>118.1999969482421875</AltitudeMeters>
            <DistanceMeters>NAN</DistanceMeters>
          </Trackpoint>
          <Trackpoint>
            <Time>2022-07-15T08:53:20.000Z</Time>
            <Position>
              <LatitudeDegrees>43.36267769336700439453125</LatitudeDegrees>
              <LongitudeDegrees>-4.452539049088954925537109375</LongitudeDegrees>
            </Position>
            <AltitudeMeters>118</AltitudeMeters>
            <DistanceMeters>NAN</DistanceMeters>
          </Trackpoint>
          <Trackpoint>
            <Time>2022-07-15T08:53:23.000Z</Time>
            <Position>
              <LatitudeDegrees>43.36268565617501735687255859375</LatitudeDegrees>
              <LongitudeDegrees>-4.45266553200781345367431640625</LongitudeDegrees>
            </Position>
            <AltitudeMeters>117.8000030517578125</AltitudeMeters>
            <DistanceMeters>NAN</DistanceMeters>
          </Trackpoint>
          <Trackpoint>
            <Time>2022-07-15T08:53:29.000Z</Time>
            <Position>
              <LatitudeDegrees>43.36268783546984195709228515625</LatitudeDegrees>
              <LongitudeDegrees>-4.45293559692800045013427734375</LongitudeDegrees>
            </Position>
            <AltitudeMeters>117.59999847412109375</AltitudeMeters>
            <DistanceMeters>NAN</DistanceMeters>
          </Trackpoint>
          <Trackpoint>
            <Time>2022-07-15T08:53:33.000Z</Time>
            <Position>
              <LatitudeDegrees>43.36265665479004383087158203125</LatitudeDegrees>
              <LongitudeDegrees>-4.4531457312405109405517578125</LongitudeDegrees>
            </Position>
            <AltitudeMeters>117.40000152587890625</AltitudeMeters>
            <DistanceMeters>NAN</DistanceMeters>
          </Trackpoint>
          <Trackpoint>
            <Time>2022-07-15T08:53:37.000Z</Time>
            <Position>
              <LatitudeDegrees>43.36262597702443599700927734375</LatitudeDegrees>
              <LongitudeDegrees>-4.45336441509425640106201171875</LongitudeDegrees>
            </Position>
            <AltitudeMeters>117</AltitudeMeters>
            <DistanceMeters>NAN</DistanceMeters>
          </Trackpoint>
          <Trackpoint>
            <Time>2022-07-15T08:53:39.000Z</Time>
            <Position>
              <LatitudeDegrees>43.3626218698918819427490234375</LatitudeDegrees>
              <LongitudeDegrees>-4.45348092354834079742431640625</LongitudeDegrees>
            </Position>
            <AltitudeMeters>116.8000030517578125</AltitudeMeters>
            <DistanceMeters>NAN</DistanceMeters>
          </Trackpoint>
          <Trackpoint>
            <Time>2022-07-15T08:53:45.000Z</Time>
            <Position>
              <LatitudeDegrees>43.36261935532093048095703125</LatitudeDegrees>
              <LongitudeDegrees>-4.453801698982715606689453125</LongitudeDegrees>
            </Position>
            <AltitudeMeters>116.40000152587890625</AltitudeMeters>
            <DistanceMeters>NAN</DistanceMeters>
          </Trackpoint>
          <Trackpoint>
            <Time>2022-07-15T08:53:51.000Z</Time>
            <Position>
              <LatitudeDegrees>43.3626419864594936370849609375</LatitudeDegrees>
              <LongitudeDegrees>-4.4541686587035655975341796875</LongitudeDegrees>
            </Position>
            <AltitudeMeters>116.1999969482421875</AltitudeMeters>
            <DistanceMeters>NAN</DistanceMeters>
          </Trackpoint>
          <Trackpoint>
            <Time>2022-07-15T08:53:53.000Z</Time>
            <Position>
              <LatitudeDegrees>43.3626453392207622528076171875</LatitudeDegrees>
              <LongitudeDegrees>-4.454306624829769134521484375</LongitudeDegrees>
            </Position>
            <AltitudeMeters>116</AltitudeMeters>
            <DistanceMeters>NAN</DistanceMeters>
          </Trackpoint>
          <Trackpoint>
            <Time>2022-07-15T08:53:54.000Z</Time>
            <Position>
              <LatitudeDegrees>43.36264676414430141448974609375</LatitudeDegrees>
              <LongitudeDegrees>-4.4543778710067272186279296875</LongitudeDegrees>
            </Position>
            <AltitudeMeters>115.8000030517578125</AltitudeMeters>
            <DistanceMeters>NAN</DistanceMeters>
          </Trackpoint>
          <Trackpoint>
            <Time>2022-07-15T08:53:59.000Z</Time>
            <Position>
              <LatitudeDegrees>43.3626507036387920379638671875</LatitudeDegrees>
              <LongitudeDegrees>-4.45476226508617401123046875</LongitudeDegrees>
            </Position>
            <AltitudeMeters>115.1999969482421875</AltitudeMeters>
            <DistanceMeters>NAN</DistanceMeters>
          </Trackpoint>
          <Trackpoint>
            <Time>2022-07-15T08:54:02.000Z</Time>
            <Position>
              <LatitudeDegrees>43.3626218698918819427490234375</LatitudeDegrees>
              <LongitudeDegrees>-4.455017410218715667724609375</LongitudeDegrees>
            </Position>
            <AltitudeMeters>114.8000030517578125</AltitudeMeters>
            <DistanceMeters>NAN</DistanceMeters>
          </Trackpoint>
          <Trackpoint>
            <Time>2022-07-15T08:54:04.000Z</Time>
            <Position>
              <LatitudeDegrees>43.3625943772494792938232421875</LatitudeDegrees>
              <LongitudeDegrees>-4.45519954897463321685791015625</LongitudeDegrees>
            </Position>
            <AltitudeMeters>114.40000152587890625</AltitudeMeters>
            <DistanceMeters>NAN</DistanceMeters>
          </Trackpoint>
          <Trackpoint>
            <Time>2022-07-15T08:54:06.000Z</Time>
            <Position>
              <LatitudeDegrees>43.36256110109388828277587890625</LatitudeDegrees>
              <LongitudeDegrees>-4.45539317093789577484130859375</LongitudeDegrees>
            </Position>
            <AltitudeMeters>113.59999847412109375</AltitudeMeters>
            <DistanceMeters>NAN</DistanceMeters>
          </Trackpoint>
          <Trackpoint>
            <Time>2022-07-15T08:54:10.000Z</Time>
            <Position>
              <LatitudeDegrees>43.36247242055833339691162109375</LatitudeDegrees>
              <LongitudeDegrees>-4.45577555336058139801025390625</LongitudeDegrees>
            </Position>
            <AltitudeMeters>113</AltitudeMeters>
            <DistanceMeters>NAN</DistanceMeters>
          </Trackpoint>
          <Trackpoint>
            <Time>2022-07-15T08:54:11.000Z</Time>
            <Position>
              <LatitudeDegrees>43.36245884187519550323486328125</LatitudeDegrees>
              <LongitudeDegrees>-4.4558701850473880767822265625</LongitudeDegrees>
            </Position>
            <AltitudeMeters>112.8000030517578125</AltitudeMeters>
            <DistanceMeters>NAN</DistanceMeters>
          </Trackpoint>
          <Trackpoint>
            <Time>2022-07-15T08:54:14.000Z</Time>
            <Position>
              <LatitudeDegrees>43.36245498619973659515380859375</LatitudeDegrees>
              <LongitudeDegrees>-4.4561504758894443511962890625</LongitudeDegrees>
            </Position>
            <AltitudeMeters>112.8000030517578125</AltitudeMeters>
            <DistanceMeters>NAN</DistanceMeters>
          </Trackpoint>
          <Trackpoint>
            <Time>2022-07-15T08:54:16.000Z</Time>
            <Position>
              <LatitudeDegrees>43.362463451921939849853515625</LatitudeDegrees>
              <LongitudeDegrees>-4.4563415832817554473876953125</LongitudeDegrees>
            </Position>
            <AltitudeMeters>112.59999847412109375</AltitudeMeters>
            <DistanceMeters>NAN</DistanceMeters>
          </Trackpoint>
          <Trackpoint>
            <Time>2022-07-15T08:54:20.000Z</Time>
            <Position>
              <LatitudeDegrees>43.36243889294564723968505859375</LatitudeDegrees>
              <LongitudeDegrees>-4.4567345269024372100830078125</LongitudeDegrees>
            </Position>
            <AltitudeMeters>111.40000152587890625</AltitudeMeters>
            <DistanceMeters>NAN</DistanceMeters>
          </Trackpoint>
          <Trackpoint>
            <Time>2022-07-15T08:54:22.000Z</Time>
            <Position>
              <LatitudeDegrees>43.362432606518268585205078125</LatitudeDegrees>
              <LongitudeDegrees>-4.45692705921828746795654296875</LongitudeDegrees>
            </Position>
            <AltitudeMeters>111</AltitudeMeters>
            <DistanceMeters>NAN</DistanceMeters>
          </Trackpoint>
          <Trackpoint>
            <Time>2022-07-15T08:54:25.000Z</Time>
            <Position>
              <LatitudeDegrees>43.36244895122945308685302734375</LatitudeDegrees>
              <LongitudeDegrees>-4.45720374584197998046875</LongitudeDegrees>
            </Position>
            <AltitudeMeters>110.8000030517578125</AltitudeMeters>
            <DistanceMeters>NAN</DistanceMeters>
          </Trackpoint>
          <Trackpoint>
            <Time>2022-07-15T08:54:29.000Z</Time>
            <Position>
              <LatitudeDegrees>43.3624629490077495574951171875</LatitudeDegrees>
              <LongitudeDegrees>-4.45756408385932445526123046875</LongitudeDegrees>
            </Position>
            <AltitudeMeters>110.8000030517578125</AltitudeMeters>
            <DistanceMeters>NAN</DistanceMeters>
          </Trackpoint>
          <Trackpoint>
            <Time>2022-07-15T08:54:30.000Z</Time>
            <Position>
              <LatitudeDegrees>43.362468816339969635009765625</LatitudeDegrees>
              <LongitudeDegrees>-4.45764253847301006317138671875</LongitudeDegrees>
            </Position>
            <AltitudeMeters>110.8000030517578125</AltitudeMeters>
            <DistanceMeters>NAN</DistanceMeters>
          </Trackpoint>
          <Trackpoint>
            <Time>2022-07-15T08:54:31.000Z</Time>
            <Position>
              <LatitudeDegrees>43.36248113773763179779052734375</LatitudeDegrees>
              <LongitudeDegrees>-4.45771529339253902435302734375</LongitudeDegrees>
            </Position>
            <AltitudeMeters>110.8000030517578125</AltitudeMeters>
            <DistanceMeters>NAN</DistanceMeters>
          </Trackpoint>
          <Trackpoint>
            <Time>2022-07-15T08:54:36.000Z</Time>
            <Position>
              <LatitudeDegrees>43.36253629066050052642822265625</LatitudeDegrees>
              <LongitudeDegrees>-4.45806750096380710601806640625</LongitudeDegrees>
            </Position>
            <AltitudeMeters>110.59999847412109375</AltitudeMeters>
            <DistanceMeters>NAN</DistanceMeters>
          </Trackpoint>
          <Trackpoint>
            <Time>2022-07-15T08:54:37.000Z</Time>
            <Position>
              <LatitudeDegrees>43.362540565431118011474609375</LatitudeDegrees>
              <LongitudeDegrees>-4.45814042352139949798583984375</LongitudeDegrees>
            </Position>
            <AltitudeMeters>110.40000152587890625</AltitudeMeters>
            <DistanceMeters>NAN</DistanceMeters>
          </Trackpoint>
          <Trackpoint>
            <Time>2022-07-15T08:54:38.000Z</Time>
            <Position>
              <LatitudeDegrees>43.362539224326610565185546875</LatitudeDegrees>
              <LongitudeDegrees>-4.45821519009768962860107421875</LongitudeDegrees>
            </Position>
            <AltitudeMeters>110.40000152587890625</AltitudeMeters>
            <DistanceMeters>NAN</DistanceMeters>
          </Trackpoint>
          <Trackpoint>
            <Time>2022-07-15T08:54:40.000Z</Time>
            <Position>
              <LatitudeDegrees>43.36250997148454189300537109375</LatitudeDegrees>
              <LongitudeDegrees>-4.45837142877280712127685546875</LongitudeDegrees>
            </Position>
            <AltitudeMeters>110</AltitudeMeters>
            <DistanceMeters>NAN</DistanceMeters>
          </Trackpoint>
          <Trackpoint>
            <Time>2022-07-15T08:54:41.000Z</Time>
            <Position>
              <LatitudeDegrees>43.36248616687953472137451171875</LatitudeDegrees>
              <LongitudeDegrees>-4.45844887755811214447021484375</LongitudeDegrees>
            </Position>
            <AltitudeMeters>109.8000030517578125</AltitudeMeters>
            <DistanceMeters>NAN</DistanceMeters>
          </Trackpoint>
          <Trackpoint>
            <Time>2022-07-15T08:54:44.000Z</Time>
            <Position>
              <LatitudeDegrees>43.36239044554531574249267578125</LatitudeDegrees>
              <LongitudeDegrees>-4.45868943817913532257080078125</LongitudeDegrees>
            </Position>
            <AltitudeMeters>109.40000152587890625</AltitudeMeters>
            <DistanceMeters>NAN</DistanceMeters>
          </Trackpoint>
          <Trackpoint>
            <Time>2022-07-15T08:54:46.000Z</Time>
            <Position>
              <LatitudeDegrees>43.3623422496020793914794921875</LatitudeDegrees>
              <LongitudeDegrees>-4.45884098298847675323486328125</LongitudeDegrees>
            </Position>
            <AltitudeMeters>108.8000030517578125</AltitudeMeters>
            <DistanceMeters>NAN</DistanceMeters>
          </Trackpoint>
          <Trackpoint>
            <Time>2022-07-15T08:54:48.000Z</Time>
            <Position>
              <LatitudeDegrees>43.3623127453029155731201171875</LatitudeDegrees>
              <LongitudeDegrees>-4.459044747054576873779296875</LongitudeDegrees>
            </Position>
            <AltitudeMeters>108.1999969482421875</AltitudeMeters>
            <DistanceMeters>NAN</DistanceMeters>
          </Trackpoint>
          <Trackpoint>
            <Time>2022-07-15T08:54:50.000Z</Time>
            <Position>
              <LatitudeDegrees>43.3623114041984081268310546875</LatitudeDegrees>
              <LongitudeDegrees>-4.4592604972422122955322265625</LongitudeDegrees>
            </Position>
            <AltitudeMeters>107.40000152587890625</AltitudeMeters>
            <DistanceMeters>NAN</DistanceMeters>
          </Trackpoint>
          <Trackpoint>
            <Time>2022-07-15T08:54:51.000Z</Time>
            <Position>
              <LatitudeDegrees>43.36231735534965991973876953125</LatitudeDegrees>
              <LongitudeDegrees>-4.45937298238277435302734375</LongitudeDegrees>
            </Position>
            <AltitudeMeters>106.59999847412109375</AltitudeMeters>
            <DistanceMeters>NAN</DistanceMeters>
          </Trackpoint>
          <Trackpoint>
            <Time>2022-07-15T08:54:54.000Z</Time>
            <Position>
              <LatitudeDegrees>43.362338729202747344970703125</LatitudeDegrees>
              <LongitudeDegrees>-4.45972527377307415008544921875</LongitudeDegrees>
            </Position>
            <AltitudeMeters>105.59999847412109375</AltitudeMeters>
            <DistanceMeters>NAN</DistanceMeters>
          </Trackpoint>
          <Trackpoint>
            <Time>2022-07-15T08:54:55.000Z</Time>
            <Position>
              <LatitudeDegrees>43.3623365499079227447509765625</LatitudeDegrees>
              <LongitudeDegrees>-4.459798447787761688232421875</LongitudeDegrees>
            </Position>
            <AltitudeMeters>105.40000152587890625</AltitudeMeters>
            <DistanceMeters>NAN</DistanceMeters>
          </Trackpoint>
          <Trackpoint>
            <Time>2022-07-15T08:54:57.000Z</Time>
            <Position>
              <LatitudeDegrees>43.362323977053165435791015625</LatitudeDegrees>
              <LongitudeDegrees>-4.4599605537950992584228515625</LongitudeDegrees>
            </Position>
            <AltitudeMeters>105.40000152587890625</AltitudeMeters>
            <DistanceMeters>NAN</DistanceMeters>
          </Trackpoint>
          <Trackpoint>
            <Time>2022-07-15T08:54:59.000Z</Time>
            <Position>
              <LatitudeDegrees>43.36228215135633945465087890625</LatitudeDegrees>
              <LongitudeDegrees>-4.46012592874467372894287109375</LongitudeDegrees>
            </Position>
            <AltitudeMeters>105.40000152587890625</AltitudeMeters>
            <DistanceMeters>NAN</DistanceMeters>
          </Trackpoint>
          <Trackpoint>
            <Time>2022-07-15T08:55:01.000Z</Time>
            <Position>
              <LatitudeDegrees>43.362213335931301116943359375</LatitudeDegrees>
              <LongitudeDegrees>-4.460257776081562042236328125</LongitudeDegrees>
            </Position>
            <AltitudeMeters>105</AltitudeMeters>
            <DistanceMeters>NAN</DistanceMeters>
          </Trackpoint>
          <Trackpoint>
            <Time>2022-07-15T08:55:02.000Z</Time>
            <Position>
              <LatitudeDegrees>43.36215793155133724212646484375</LatitudeDegrees>
              <LongitudeDegrees>-4.460320137441158294677734375</LongitudeDegrees>
            </Position>
            <AltitudeMeters>104.8000030517578125</AltitudeMeters>
            <DistanceMeters>NAN</DistanceMeters>
          </Trackpoint>
          <Trackpoint>
            <Time>2022-07-15T08:55:03.000Z</Time>
            <Position>
              <LatitudeDegrees>43.3620921336114406585693359375</LatitudeDegrees>
              <LongitudeDegrees>-4.46036933921277523040771484375</LongitudeDegrees>
            </Position>
            <AltitudeMeters>104.40000152587890625</AltitudeMeters>
            <DistanceMeters>NAN</DistanceMeters>
          </Trackpoint>
          <Trackpoint>
            <Time>2022-07-15T08:55:05.000Z</Time>
            <Position>
              <LatitudeDegrees>43.361936397850513458251953125</LatitudeDegrees>
              <LongitudeDegrees>-4.4604384899139404296875</LongitudeDegrees>
            </Position>
            <AltitudeMeters>104</AltitudeMeters>
            <DistanceMeters>NAN</DistanceMeters>
          </Trackpoint>
          <Trackpoint>
            <Time>2022-07-15T08:55:06.000Z</Time>
            <Position>
              <LatitudeDegrees>43.3618582785129547119140625</LatitudeDegrees>
              <LongitudeDegrees>-4.460471682250499725341796875</LongitudeDegrees>
            </Position>
            <AltitudeMeters>103.1999969482421875</AltitudeMeters>
            <DistanceMeters>NAN</DistanceMeters>
          </Trackpoint>
          <Trackpoint>
            <Time>2022-07-15T08:55:07.000Z</Time>
            <Position>
              <LatitudeDegrees>43.36177823133766651153564453125</LatitudeDegrees>
              <LongitudeDegrees>-4.46051484905183315277099609375</LongitudeDegrees>
            </Position>
            <AltitudeMeters>102.59999847412109375</AltitudeMeters>
            <DistanceMeters>NAN</DistanceMeters>
          </Trackpoint>
          <Trackpoint>
            <Time>2022-07-15T08:55:08.000Z</Time>
            <Position>
              <LatitudeDegrees>43.36170815862715244293212890625</LatitudeDegrees>
              <LongitudeDegrees>-4.46056564338505268096923828125</LongitudeDegrees>
            </Position>
            <AltitudeMeters>101.59999847412109375</AltitudeMeters>
            <DistanceMeters>NAN</DistanceMeters>
          </Trackpoint>
          <Trackpoint>
            <Time>2022-07-15T08:55:09.000Z</Time>
            <Position>
              <LatitudeDegrees>43.36165233515202999114990234375</LatitudeDegrees>
              <LongitudeDegrees>-4.46061945520341396331787109375</LongitudeDegrees>
            </Position>
            <AltitudeMeters>100.8000030517578125</AltitudeMeters>
            <DistanceMeters>NAN</DistanceMeters>
          </Trackpoint>
          <Trackpoint>
            <Time>2022-07-15T08:55:10.000Z</Time>
            <Position>
              <LatitudeDegrees>43.3616103418171405792236328125</LatitudeDegrees>
              <LongitudeDegrees>-4.4606820680201053619384765625</LongitudeDegrees>
            </Position>
            <AltitudeMeters>99.59999847412109375</AltitudeMeters>
            <DistanceMeters>NAN</DistanceMeters>
          </Trackpoint>
          <Trackpoint>
            <Time>2022-07-15T08:55:11.000Z</Time>
            <Position>
              <LatitudeDegrees>43.361581005156040191650390625</LatitudeDegrees>
              <LongitudeDegrees>-4.460739903151988983154296875</LongitudeDegrees>
            </Position>
            <AltitudeMeters>98.40000152587890625</AltitudeMeters>
            <DistanceMeters>NAN</DistanceMeters>
          </Trackpoint>
          <Trackpoint>
            <Time>2022-07-15T08:55:12.000Z</Time>
            <Position>
              <LatitudeDegrees>43.36155979894101619720458984375</LatitudeDegrees>
              <LongitudeDegrees>-4.46078516542911529541015625</LongitudeDegrees>
            </Position>
            <AltitudeMeters>97.40000152587890625</AltitudeMeters>
            <DistanceMeters>NAN</DistanceMeters>
          </Trackpoint>
          <Trackpoint>
            <Time>2022-07-15T08:55:13.000Z</Time>
            <Position>
              <LatitudeDegrees>43.3615458011627197265625</LatitudeDegrees>
              <LongitudeDegrees>-4.460810311138629913330078125</LongitudeDegrees>
            </Position>
            <AltitudeMeters>96.8000030517578125</AltitudeMeters>
            <DistanceMeters>NAN</DistanceMeters>
          </Trackpoint>
          <Trackpoint>
            <Time>2022-07-15T08:55:15.000Z</Time>
            <Position>
              <LatitudeDegrees>43.36153247393667697906494140625</LatitudeDegrees>
              <LongitudeDegrees>-4.46083000861108303070068359375</LongitudeDegrees>
            </Position>
            <AltitudeMeters>96</AltitudeMeters>
            <DistanceMeters>NAN</DistanceMeters>
          </Trackpoint>
          <Trackpoint>
            <Time>2022-07-15T08:55:16.000Z</Time>
            <Position>
              <LatitudeDegrees>43.3615281991660594940185546875</LatitudeDegrees>
              <LongitudeDegrees>-4.460838139057159423828125</LongitudeDegrees>
            </Position>
            <AltitudeMeters>95.8000030517578125</AltitudeMeters>
            <DistanceMeters>NAN</DistanceMeters>
          </Trackpoint>
          <Trackpoint>
            <Time>2022-07-15T08:55:21.000Z</Time>
            <Position>
              <LatitudeDegrees>43.361537419259548187255859375</LatitudeDegrees>
              <LongitudeDegrees>-4.4609687291085720062255859375</LongitudeDegrees>
            </Position>
            <AltitudeMeters>95.1999969482421875</AltitudeMeters>
            <DistanceMeters>NAN</DistanceMeters>
          </Trackpoint>
          <Trackpoint>
            <Time>2022-07-15T08:55:24.000Z</Time>
            <Position>
              <LatitudeDegrees>43.36155476979911327362060546875</LatitudeDegrees>
              <LongitudeDegrees>-4.4611645303666591644287109375</LongitudeDegrees>
            </Position>
            <AltitudeMeters>94.8000030517578125</AltitudeMeters>
            <DistanceMeters>NAN</DistanceMeters>
          </Trackpoint>
          <Trackpoint>
            <Time>2022-07-15T08:55:25.000Z</Time>
            <Position>
              <LatitudeDegrees>43.36155946366488933563232421875</LatitudeDegrees>
              <LongitudeDegrees>-4.46122781373560428619384765625</LongitudeDegrees>
            </Position>
            <AltitudeMeters>94.40000152587890625</AltitudeMeters>
            <DistanceMeters>NAN</DistanceMeters>
          </Trackpoint>
          <Trackpoint>
            <Time>2022-07-15T08:55:31.000Z</Time>
            <Position>
              <LatitudeDegrees>43.36159818805754184722900390625</LatitudeDegrees>
              <LongitudeDegrees>-4.46170893497765064239501953125</LongitudeDegrees>
            </Position>
            <AltitudeMeters>93.8000030517578125</AltitudeMeters>
            <DistanceMeters>NAN</DistanceMeters>
          </Trackpoint>
          <Trackpoint>
            <Time>2022-07-15T08:55:32.000Z</Time>
            <Position>
              <LatitudeDegrees>43.36160522885620594024658203125</LatitudeDegrees>
              <LongitudeDegrees>-4.46178990416228771209716796875</LongitudeDegrees>
            </Position>
            <AltitudeMeters>93.59999847412109375</AltitudeMeters>
            <DistanceMeters>NAN</DistanceMeters>
          </Trackpoint>
          <Trackpoint>
            <Time>2022-07-15T08:55:33.000Z</Time>
            <Position>
              <LatitudeDegrees>43.361603133380413055419921875</LatitudeDegrees>
              <LongitudeDegrees>-4.46188327856361865997314453125</LongitudeDegrees>
            </Position>
            <AltitudeMeters>93.59999847412109375</AltitudeMeters>
            <DistanceMeters>NAN</DistanceMeters>
          </Trackpoint>
          <Trackpoint>
            <Time>2022-07-15T08:55:35.000Z</Time>
            <Position>
              <LatitudeDegrees>43.36158947087824344635009765625</LatitudeDegrees>
              <LongitudeDegrees>-4.46201621554791927337646484375</LongitudeDegrees>
            </Position>
            <AltitudeMeters>93.59999847412109375</AltitudeMeters>
            <DistanceMeters>NAN</DistanceMeters>
          </Trackpoint>
          <Trackpoint>
            <Time>2022-07-15T08:55:36.000Z</Time>
            <Position>
              <LatitudeDegrees>43.3615697734057903289794921875</LatitudeDegrees>
              <LongitudeDegrees>-4.4620915688574314117431640625</LongitudeDegrees>
            </Position>
            <AltitudeMeters>93.40000152587890625</AltitudeMeters>
            <DistanceMeters>NAN</DistanceMeters>
          </Trackpoint>
          <Trackpoint>
            <Time>2022-07-15T08:55:41.000Z</Time>
            <Position>
              <LatitudeDegrees>43.3614463917911052703857421875</LatitudeDegrees>
              <LongitudeDegrees>-4.46244503371417522430419921875</LongitudeDegrees>
            </Position>
            <AltitudeMeters>93</AltitudeMeters>
            <DistanceMeters>NAN</DistanceMeters>
          </Trackpoint>
          <Trackpoint>
            <Time>2022-07-15T08:55:43.000Z</Time>
            <Position>
              <LatitudeDegrees>43.36138109676539897918701171875</LatitudeDegrees>
              <LongitudeDegrees>-4.4625820778310298919677734375</LongitudeDegrees>
            </Position>
            <AltitudeMeters>92.40000152587890625</AltitudeMeters>
            <DistanceMeters>NAN</DistanceMeters>
          </Trackpoint>
          <Trackpoint>
            <Time>2022-07-15T08:55:47.000Z</Time>
            <Position>
              <LatitudeDegrees>43.36124732159078121185302734375</LatitudeDegrees>
              <LongitudeDegrees>-4.462902434170246124267578125</LongitudeDegrees>
            </Position>
            <AltitudeMeters>91.1999969482421875</AltitudeMeters>
            <DistanceMeters>NAN</DistanceMeters>
          </Trackpoint>
          <Trackpoint>
            <Time>2022-07-15T08:55:48.000Z</Time>
            <Position>
              <LatitudeDegrees>43.36121614091098308563232421875</LatitudeDegrees>
              <LongitudeDegrees>-4.4630093872547149658203125</LongitudeDegrees>
            </Position>
            <AltitudeMeters>91.1999969482421875</AltitudeMeters>
            <DistanceMeters>NAN</DistanceMeters>
          </Trackpoint>
          <Trackpoint>
            <Time>2022-07-15T08:55:55.000Z</Time>
            <Position>
              <LatitudeDegrees>43.36108387447893619537353515625</LatitudeDegrees>
              <LongitudeDegrees>-4.46354792453348636627197265625</LongitudeDegrees>
            </Position>
            <AltitudeMeters>90.8000030517578125</AltitudeMeters>
            <DistanceMeters>NAN</DistanceMeters>
          </Trackpoint>
          <Trackpoint>
            <Time>2022-07-15T08:56:01.000Z</Time>
            <Position>
              <LatitudeDegrees>43.36098496802151203155517578125</LatitudeDegrees>
              <LongitudeDegrees>-4.46389325894415378570556640625</LongitudeDegrees>
            </Position>
            <AltitudeMeters>91.1999969482421875</AltitudeMeters>
            <DistanceMeters>NAN</DistanceMeters>
          </Trackpoint>
          <Trackpoint>
            <Time>2022-07-15T08:56:08.000Z</Time>
            <Position>
              <LatitudeDegrees>43.3608915098011493682861328125</LatitudeDegrees>
              <LongitudeDegrees>-4.464172460138797760009765625</LongitudeDegrees>
            </Position>
            <AltitudeMeters>92.1999969482421875</AltitudeMeters>
            <DistanceMeters>NAN</DistanceMeters>
          </Trackpoint>
          <Trackpoint>
            <Time>2022-07-15T08:56:11.000Z</Time>
            <Position>
              <LatitudeDegrees>43.3608485944569110870361328125</LatitudeDegrees>
              <LongitudeDegrees>-4.4642658345401287078857421875</LongitudeDegrees>
            </Position>
            <AltitudeMeters>92.40000152587890625</AltitudeMeters>
            <DistanceMeters>NAN</DistanceMeters>
          </Trackpoint>
          <Trackpoint>
            <Time>2022-07-15T08:56:14.000Z</Time>
            <Position>
              <LatitudeDegrees>43.36081397719681262969970703125</LatitudeDegrees>
              <LongitudeDegrees>-4.464346133172512054443359375</LongitudeDegrees>
            </Position>
            <AltitudeMeters>92.8000030517578125</AltitudeMeters>
            <DistanceMeters>NAN</DistanceMeters>
          </Trackpoint>
          <Trackpoint>
            <Time>2022-07-15T08:56:23.000Z</Time>
            <Position>
              <LatitudeDegrees>43.3606967143714427947998046875</LatitudeDegrees>
              <LongitudeDegrees>-4.46459331549704074859619140625</LongitudeDegrees>
            </Position>
            <AltitudeMeters>93.40000152587890625</AltitudeMeters>
            <DistanceMeters>NAN</DistanceMeters>
          </Trackpoint>
          <Trackpoint>
            <Time>2022-07-15T08:56:24.000Z</Time>
            <Position>
              <LatitudeDegrees>43.3606839738786220550537109375</LatitudeDegrees>
              <LongitudeDegrees>-4.4646195508539676666259765625</LongitudeDegrees>
            </Position>
            <AltitudeMeters>93.40000152587890625</AltitudeMeters>
            <DistanceMeters>NAN</DistanceMeters>
          </Trackpoint>
          <Trackpoint>
            <Time>2022-07-15T08:56:27.000Z</Time>
            <Position>
              <LatitudeDegrees>43.36064013652503490447998046875</LatitudeDegrees>
              <LongitudeDegrees>-4.46470043621957302093505859375</LongitudeDegrees>
            </Position>
            <AltitudeMeters>93.59999847412109375</AltitudeMeters>
            <DistanceMeters>NAN</DistanceMeters>
          </Trackpoint>
          <Trackpoint>
            <Time>2022-07-15T08:56:30.000Z</Time>
            <Position>
              <LatitudeDegrees>43.36059286259114742279052734375</LatitudeDegrees>
              <LongitudeDegrees>-4.46478341706097126007080078125</LongitudeDegrees>
            </Position>
            <AltitudeMeters>93.8000030517578125</AltitudeMeters>
            <DistanceMeters>NAN</DistanceMeters>
          </Trackpoint>
          <Trackpoint>
            <Time>2022-07-15T08:56:33.000Z</Time>
            <Position>
              <LatitudeDegrees>43.3605505339801311492919921875</LatitudeDegrees>
              <LongitudeDegrees>-4.46485449559986591339111328125</LongitudeDegrees>
            </Position>
            <AltitudeMeters>93.8000030517578125</AltitudeMeters>
            <DistanceMeters>NAN</DistanceMeters>
          </Trackpoint>
          <Trackpoint>
            <Time>2022-07-15T08:56:40.000Z</Time>
            <Position>
              <LatitudeDegrees>43.360461853444576263427734375</LatitudeDegrees>
              <LongitudeDegrees>-4.4650228880345821380615234375</LongitudeDegrees>
            </Position>
            <AltitudeMeters>94.40000152587890625</AltitudeMeters>
            <DistanceMeters>NAN</DistanceMeters>
          </Trackpoint>
          <Trackpoint>
            <Time>2022-07-15T08:56:45.000Z</Time>
            <Position>
              <LatitudeDegrees>43.36040494032204151153564453125</LatitudeDegrees>
              <LongitudeDegrees>-4.4651663862168788909912109375</LongitudeDegrees>
            </Position>
            <AltitudeMeters>94.59999847412109375</AltitudeMeters>
            <DistanceMeters>NAN</DistanceMeters>
          </Trackpoint>
          <Trackpoint>
            <Time>2022-07-15T08:56:50.000Z</Time>
            <Position>
              <LatitudeDegrees>43.3603597618639469146728515625</LatitudeDegrees>
              <LongitudeDegrees>-4.4653142429888248443603515625</LongitudeDegrees>
            </Position>
            <AltitudeMeters>94.59999847412109375</AltitudeMeters>
            <DistanceMeters>NAN</DistanceMeters>
          </Trackpoint>
          <Trackpoint>
            <Time>2022-07-15T08:56:53.000Z</Time>
            <Position>
              <LatitudeDegrees>43.3603374660015106201171875</LatitudeDegrees>
              <LongitudeDegrees>-4.4654047675430774688720703125</LongitudeDegrees>
            </Position>
            <AltitudeMeters>94.59999847412109375</AltitudeMeters>
            <DistanceMeters>NAN</DistanceMeters>
          </Trackpoint>
          <Trackpoint>
            <Time>2022-07-15T08:56:59.000Z</Time>
            <Position>
              <LatitudeDegrees>43.360281474888324737548828125</LatitudeDegrees>
              <LongitudeDegrees>-4.465663768351078033447265625</LongitudeDegrees>
            </Position>
            <AltitudeMeters>94.59999847412109375</AltitudeMeters>
            <DistanceMeters>NAN</DistanceMeters>
          </Trackpoint>
          <Trackpoint>
            <Time>2022-07-15T08:57:01.000Z</Time>
            <Position>
              <LatitudeDegrees>43.3602715842425823211669921875</LatitudeDegrees>
              <LongitudeDegrees>-4.465763010084629058837890625</LongitudeDegrees>
            </Position>
            <AltitudeMeters>94.40000152587890625</AltitudeMeters>
            <DistanceMeters>NAN</DistanceMeters>
          </Trackpoint>
          <Trackpoint>
            <Time>2022-07-15T08:57:05.000Z</Time>
            <Position>
              <LatitudeDegrees>43.360249288380146026611328125</LatitudeDegrees>
              <LongitudeDegrees>-4.46599946357309818267822265625</LongitudeDegrees>
            </Position>
            <AltitudeMeters>93.59999847412109375</AltitudeMeters>
            <DistanceMeters>NAN</DistanceMeters>
          </Trackpoint>
          <Trackpoint>
            <Time>2022-07-15T08:57:06.000Z</Time>
            <Position>
              <LatitudeDegrees>43.36025892756879329681396484375</LatitudeDegrees>
              <LongitudeDegrees>-4.46607423014938831329345703125</LongitudeDegrees>
            </Position>
            <AltitudeMeters>93.59999847412109375</AltitudeMeters>
            <DistanceMeters>NAN</DistanceMeters>
          </Trackpoint>
          <Trackpoint>
            <Time>2022-07-15T08:57:09.000Z</Time>
            <Position>
              <LatitudeDegrees>43.3602980710566043853759765625</LatitudeDegrees>
              <LongitudeDegrees>-4.466308839619159698486328125</LongitudeDegrees>
            </Position>
            <AltitudeMeters>93.40000152587890625</AltitudeMeters>
            <DistanceMeters>NAN</DistanceMeters>
          </Trackpoint>
          <Trackpoint>
            <Time>2022-07-15T08:57:11.000Z</Time>
            <Position>
              <LatitudeDegrees>43.3603356219828128814697265625</LatitudeDegrees>
              <LongitudeDegrees>-4.46649801917374134063720703125</LongitudeDegrees>
            </Position>
            <AltitudeMeters>92.8000030517578125</AltitudeMeters>
            <DistanceMeters>NAN</DistanceMeters>
          </Trackpoint>
          <Trackpoint>
            <Time>2022-07-15T08:57:12.000Z</Time>
            <Position>
              <LatitudeDegrees>43.36036118678748607635498046875</LatitudeDegrees>
              <LongitudeDegrees>-4.46660011075437068939208984375</LongitudeDegrees>
            </Position>
            <AltitudeMeters>92.1999969482421875</AltitudeMeters>
            <DistanceMeters>NAN</DistanceMeters>
          </Trackpoint>
          <Trackpoint>
            <Time>2022-07-15T08:57:14.000Z</Time>
            <Position>
              <LatitudeDegrees>43.36041986010968685150146484375</LatitudeDegrees>
              <LongitudeDegrees>-4.46681535802781581878662109375</LongitudeDegrees>
            </Position>
            <AltitudeMeters>91.1999969482421875</AltitudeMeters>
            <DistanceMeters>NAN</DistanceMeters>
          </Trackpoint>
          <Trackpoint>
            <Time>2022-07-15T08:57:15.000Z</Time>
            <Position>
              <LatitudeDegrees>43.36045120842754840850830078125</LatitudeDegrees>
              <LongitudeDegrees>-4.46692968718707561492919921875</LongitudeDegrees>
            </Position>
            <AltitudeMeters>90.8000030517578125</AltitudeMeters>
            <DistanceMeters>NAN</DistanceMeters>
          </Trackpoint>
          <Trackpoint>
            <Time>2022-07-15T08:57:17.000Z</Time>
            <Position>
              <LatitudeDegrees>43.36051524616777896881103515625</LatitudeDegrees>
              <LongitudeDegrees>-4.467204026877880096435546875</LongitudeDegrees>
            </Position>
            <AltitudeMeters>90</AltitudeMeters>
            <DistanceMeters>NAN</DistanceMeters>
          </Trackpoint>
          <Trackpoint>
            <Time>2022-07-15T08:57:19.000Z</Time>
            <Position>
              <LatitudeDegrees>43.3605740033090114593505859375</LatitudeDegrees>
              <LongitudeDegrees>-4.4674331881105899810791015625</LongitudeDegrees>
            </Position>
            <AltitudeMeters>88.59999847412109375</AltitudeMeters>
            <DistanceMeters>NAN</DistanceMeters>
          </Trackpoint>
          <Trackpoint>
            <Time>2022-07-15T08:57:21.000Z</Time>
            <Position>
              <LatitudeDegrees>43.3606511168181896209716796875</LatitudeDegrees>
              <LongitudeDegrees>-4.4677059352397918701171875</LongitudeDegrees>
            </Position>
            <AltitudeMeters>87.40000152587890625</AltitudeMeters>
            <DistanceMeters>NAN</DistanceMeters>
          </Trackpoint>
          <Trackpoint>
            <Time>2022-07-15T08:57:23.000Z</Time>
            <Position>
              <LatitudeDegrees>43.36070735938847064971923828125</LatitudeDegrees>
              <LongitudeDegrees>-4.4679464958608150482177734375</LongitudeDegrees>
            </Position>
            <AltitudeMeters>85.8000030517578125</AltitudeMeters>
            <DistanceMeters>NAN</DistanceMeters>
          </Trackpoint>
          <Trackpoint>
            <Time>2022-07-15T08:57:26.000Z</Time>
            <Position>
              <LatitudeDegrees>43.3608070202171802520751953125</LatitudeDegrees>
              <LongitudeDegrees>-4.46837673895061016082763671875</LongitudeDegrees>
            </Position>
            <AltitudeMeters>84.59999847412109375</AltitudeMeters>
            <DistanceMeters>NAN</DistanceMeters>
          </Trackpoint>
          <Trackpoint>
            <Time>2022-07-15T08:57:28.000Z</Time>
            <Position>
              <LatitudeDegrees>43.36086443625390529632568359375</LatitudeDegrees>
              <LongitudeDegrees>-4.46862534619867801666259765625</LongitudeDegrees>
            </Position>
            <AltitudeMeters>83.59999847412109375</AltitudeMeters>
            <DistanceMeters>NAN</DistanceMeters>
          </Trackpoint>
          <Trackpoint>
            <Time>2022-07-15T08:57:30.000Z</Time>
            <Position>
              <LatitudeDegrees>43.3609141409397125244140625</LatitudeDegrees>
              <LongitudeDegrees>-4.4689328782260417938232421875</LongitudeDegrees>
            </Position>
            <AltitudeMeters>82.59999847412109375</AltitudeMeters>
            <DistanceMeters>NAN</DistanceMeters>
          </Trackpoint>
          <Trackpoint>
            <Time>2022-07-15T08:57:32.000Z</Time>
            <Position>
              <LatitudeDegrees>43.360997624695301055908203125</LatitudeDegrees>
              <LongitudeDegrees>-4.46914770640432834625244140625</LongitudeDegrees>
            </Position>
            <AltitudeMeters>81.59999847412109375</AltitudeMeters>
            <DistanceMeters>NAN</DistanceMeters>
          </Trackpoint>
          <Trackpoint>
            <Time>2022-07-15T08:57:33.000Z</Time>
            <Position>
              <LatitudeDegrees>43.36105051450431346893310546875</LatitudeDegrees>
              <LongitudeDegrees>-4.46925968863070011138916015625</LongitudeDegrees>
            </Position>
            <AltitudeMeters>81.1999969482421875</AltitudeMeters>
            <DistanceMeters>NAN</DistanceMeters>
          </Trackpoint>
          <Trackpoint>
            <Time>2022-07-15T08:57:34.000Z</Time>
            <Position>
              <LatitudeDegrees>43.361107595264911651611328125</LatitudeDegrees>
              <LongitudeDegrees>-4.46935708634555339813232421875</LongitudeDegrees>
            </Position>
            <AltitudeMeters>81.1999969482421875</AltitudeMeters>
            <DistanceMeters>NAN</DistanceMeters>
          </Trackpoint>
          <Trackpoint>
            <Time>2022-07-15T08:57:37.000Z</Time>
            <Position>
              <LatitudeDegrees>43.361291997134685516357421875</LatitudeDegrees>
              <LongitudeDegrees>-4.4696131534874439239501953125</LongitudeDegrees>
            </Position>
            <AltitudeMeters>80.40000152587890625</AltitudeMeters>
            <DistanceMeters>NAN</DistanceMeters>
          </Trackpoint>
          <Trackpoint>
            <Time>2022-07-15T08:57:38.000Z</Time>
            <Position>
              <LatitudeDegrees>43.36135444231331348419189453125</LatitudeDegrees>
              <LongitudeDegrees>-4.46969278156757354736328125</LongitudeDegrees>
            </Position>
            <AltitudeMeters>80.1999969482421875</AltitudeMeters>
            <DistanceMeters>NAN</DistanceMeters>
          </Trackpoint>
          <Trackpoint>
            <Time>2022-07-15T08:57:42.000Z</Time>
            <Position>
              <LatitudeDegrees>43.361606486141681671142578125</LatitudeDegrees>
              <LongitudeDegrees>-4.47001003660261631011962890625</LongitudeDegrees>
            </Position>
            <AltitudeMeters>79.1999969482421875</AltitudeMeters>
            <DistanceMeters>NAN</DistanceMeters>
          </Trackpoint>
          <Trackpoint>
            <Time>2022-07-15T08:57:44.000Z</Time>
            <Position>
              <LatitudeDegrees>43.36173313669860363006591796875</LatitudeDegrees>
              <LongitudeDegrees>-4.47016619145870208740234375</LongitudeDegrees>
            </Position>
            <AltitudeMeters>78.40000152587890625</AltitudeMeters>
            <DistanceMeters>NAN</DistanceMeters>
          </Trackpoint>
          <Trackpoint>
            <Time>2022-07-15T08:57:47.000Z</Time>
            <Position>
              <LatitudeDegrees>43.361907899379730224609375</LatitudeDegrees>
              <LongitudeDegrees>-4.4704007171094417572021484375</LongitudeDegrees>
            </Position>
            <AltitudeMeters>78</AltitudeMeters>
            <DistanceMeters>NAN</DistanceMeters>
          </Trackpoint>
          <Trackpoint>
            <Time>2022-07-15T08:57:50.000Z</Time>
            <Position>
              <LatitudeDegrees>43.3620572648942470550537109375</LatitudeDegrees>
              <LongitudeDegrees>-4.47061487473547458648681640625</LongitudeDegrees>
            </Position>
            <AltitudeMeters>77.59999847412109375</AltitudeMeters>
            <DistanceMeters>NAN</DistanceMeters>
          </Trackpoint>
          <Trackpoint>
            <Time>2022-07-15T08:57:51.000Z</Time>
            <Position>
              <LatitudeDegrees>43.36209766566753387451171875</LatitudeDegrees>
              <LongitudeDegrees>-4.4706907309591770172119140625</LongitudeDegrees>
            </Position>
            <AltitudeMeters>77.40000152587890625</AltitudeMeters>
            <DistanceMeters>NAN</DistanceMeters>
          </Trackpoint>
          <Trackpoint>
            <Time>2022-07-15T08:57:53.000Z</Time>
            <Position>
              <LatitudeDegrees>43.36216203868389129638671875</LatitudeDegrees>
              <LongitudeDegrees>-4.47086884640157222747802734375</LongitudeDegrees>
            </Position>
            <AltitudeMeters>76.8000030517578125</AltitudeMeters>
            <DistanceMeters>NAN</DistanceMeters>
          </Trackpoint>
          <Trackpoint>
            <Time>2022-07-15T08:57:54.000Z</Time>
            <Position>
              <LatitudeDegrees>43.3621987514197826385498046875</LatitudeDegrees>
              <LongitudeDegrees>-4.47098200209438800811767578125</LongitudeDegrees>
            </Position>
            <AltitudeMeters>76.59999847412109375</AltitudeMeters>
            <DistanceMeters>NAN</DistanceMeters>
          </Trackpoint>
          <Trackpoint>
            <Time>2022-07-15T08:57:56.000Z</Time>
            <Position>
              <LatitudeDegrees>43.36227125488221645355224609375</LatitudeDegrees>
              <LongitudeDegrees>-4.47117025963962078094482421875</LongitudeDegrees>
            </Position>
            <AltitudeMeters>76.1999969482421875</AltitudeMeters>
            <DistanceMeters>NAN</DistanceMeters>
          </Trackpoint>
          <Trackpoint>
            <Time>2022-07-15T08:57:58.000Z</Time>
            <Position>
              <LatitudeDegrees>43.36233948357403278350830078125</LatitudeDegrees>
              <LongitudeDegrees>-4.47137318551540374755859375</LongitudeDegrees>
            </Position>
            <AltitudeMeters>75.59999847412109375</AltitudeMeters>
            <DistanceMeters>NAN</DistanceMeters>
          </Trackpoint>
          <Trackpoint>
            <Time>2022-07-15T08:57:59.000Z</Time>
            <Position>
              <LatitudeDegrees>43.3623744361102581024169921875</LatitudeDegrees>
              <LongitudeDegrees>-4.47147519327700138092041015625</LongitudeDegrees>
            </Position>
            <AltitudeMeters>75.59999847412109375</AltitudeMeters>
            <DistanceMeters>NAN</DistanceMeters>
          </Trackpoint>
          <Trackpoint>
            <Time>2022-07-15T08:58:01.000Z</Time>
            <Position>
              <LatitudeDegrees>43.3624475263059139251708984375</LatitudeDegrees>
              <LongitudeDegrees>-4.4716777838766574859619140625</LongitudeDegrees>
            </Position>
            <AltitudeMeters>75</AltitudeMeters>
            <DistanceMeters>NAN</DistanceMeters>
          </Trackpoint>
          <Trackpoint>
            <Time>2022-07-15T08:58:02.000Z</Time>
            <Position>
              <LatitudeDegrees>43.36249253712594509124755859375</LatitudeDegrees>
              <LongitudeDegrees>-4.471776522696018218994140625</LongitudeDegrees>
            </Position>
            <AltitudeMeters>74.59999847412109375</AltitudeMeters>
            <DistanceMeters>NAN</DistanceMeters>
          </Trackpoint>
          <Trackpoint>
            <Time>2022-07-15T08:58:05.000Z</Time>
            <Position>
              <LatitudeDegrees>43.36260032840073108673095703125</LatitudeDegrees>
              <LongitudeDegrees>-4.47208464145660400390625</LongitudeDegrees>
            </Position>
            <AltitudeMeters>73.59999847412109375</AltitudeMeters>
            <DistanceMeters>NAN</DistanceMeters>
          </Trackpoint>
          <Trackpoint>
            <Time>2022-07-15T08:58:06.000Z</Time>
            <Position>
              <LatitudeDegrees>43.36262983269989490509033203125</LatitudeDegrees>
              <LongitudeDegrees>-4.47216820903122425079345703125</LongitudeDegrees>
            </Position>
            <AltitudeMeters>73.1999969482421875</AltitudeMeters>
            <DistanceMeters>NAN</DistanceMeters>
          </Trackpoint>
          <Trackpoint>
            <Time>2022-07-15T08:58:08.000Z</Time>
            <Position>
              <LatitudeDegrees>43.3627140708267688751220703125</LatitudeDegrees>
              <LongitudeDegrees>-4.47239686734974384307861328125</LongitudeDegrees>
            </Position>
            <AltitudeMeters>72.1999969482421875</AltitudeMeters>
            <DistanceMeters>NAN</DistanceMeters>
          </Trackpoint>
          <Trackpoint>
            <Time>2022-07-15T08:58:09.000Z</Time>
            <Position>
              <LatitudeDegrees>43.36274919100105762481689453125</LatitudeDegrees>
              <LongitudeDegrees>-4.4725052453577518463134765625</LongitudeDegrees>
            </Position>
            <AltitudeMeters>71.59999847412109375</AltitudeMeters>
            <DistanceMeters>NAN</DistanceMeters>
          </Trackpoint>
          <Trackpoint>
            <Time>2022-07-15T08:58:11.000Z</Time>
            <Position>
              <LatitudeDegrees>43.36281809024512767791748046875</LatitudeDegrees>
              <LongitudeDegrees>-4.4727322272956371307373046875</LongitudeDegrees>
            </Position>
            <AltitudeMeters>70.8000030517578125</AltitudeMeters>
            <DistanceMeters>NAN</DistanceMeters>
          </Trackpoint>
          <Trackpoint>
            <Time>2022-07-15T08:58:12.000Z</Time>
            <Position>
              <LatitudeDegrees>43.36285580880939960479736328125</LatitudeDegrees>
              <LongitudeDegrees>-4.472846053540706634521484375</LongitudeDegrees>
            </Position>
            <AltitudeMeters>70.1999969482421875</AltitudeMeters>
            <DistanceMeters>NAN</DistanceMeters>
          </Trackpoint>
          <Trackpoint>
            <Time>2022-07-15T08:58:14.000Z</Time>
            <Position>
              <LatitudeDegrees>43.36292537860572338104248046875</LatitudeDegrees>
              <LongitudeDegrees>-4.473075382411479949951171875</LongitudeDegrees>
            </Position>
            <AltitudeMeters>69.40000152587890625</AltitudeMeters>
            <DistanceMeters>NAN</DistanceMeters>
          </Trackpoint>
          <Trackpoint>
            <Time>2022-07-15T08:58:16.000Z</Time>
            <Position>
              <LatitudeDegrees>43.3630309067666530609130859375</LatitudeDegrees>
              <LongitudeDegrees>-4.473269842565059661865234375</LongitudeDegrees>
            </Position>
            <AltitudeMeters>68</AltitudeMeters>
            <DistanceMeters>NAN</DistanceMeters>
          </Trackpoint>
          <Trackpoint>
            <Time>2022-07-15T08:58:18.000Z</Time>
            <Position>
              <LatitudeDegrees>43.3631189167499542236328125</LatitudeDegrees>
              <LongitudeDegrees>-4.47346606291830539703369140625</LongitudeDegrees>
            </Position>
            <AltitudeMeters>66.1999969482421875</AltitudeMeters>
            <DistanceMeters>NAN</DistanceMeters>
          </Trackpoint>
          <Trackpoint>
            <Time>2022-07-15T08:58:20.000Z</Time>
            <Position>
              <LatitudeDegrees>43.36321086622774600982666015625</LatitudeDegrees>
              <LongitudeDegrees>-4.4736763648688793182373046875</LongitudeDegrees>
            </Position>
            <AltitudeMeters>65</AltitudeMeters>
            <DistanceMeters>NAN</DistanceMeters>
          </Trackpoint>
          <Trackpoint>
            <Time>2022-07-15T08:58:21.000Z</Time>
            <Position>
              <LatitudeDegrees>43.3632612414658069610595703125</LatitudeDegrees>
              <LongitudeDegrees>-4.4737806357443332672119140625</LongitudeDegrees>
            </Position>
            <AltitudeMeters>64.59999847412109375</AltitudeMeters>
            <DistanceMeters>NAN</DistanceMeters>
          </Trackpoint>
          <Trackpoint>
            <Time>2022-07-15T08:58:22.000Z</Time>
            <Position>
              <LatitudeDegrees>43.363316394388675689697265625</LatitudeDegrees>
              <LongitudeDegrees>-4.47387426160275936126708984375</LongitudeDegrees>
            </Position>
            <AltitudeMeters>64.1999969482421875</AltitudeMeters>
            <DistanceMeters>NAN</DistanceMeters>
          </Trackpoint>
          <Trackpoint>
            <Time>2022-07-15T08:58:23.000Z</Time>
            <Position>
              <LatitudeDegrees>43.3633762411773204803466796875</LatitudeDegrees>
              <LongitudeDegrees>-4.47395456023514270782470703125</LongitudeDegrees>
            </Position>
            <AltitudeMeters>63.799999237060546875</AltitudeMeters>
            <DistanceMeters>NAN</DistanceMeters>
          </Trackpoint>
          <Trackpoint>
            <Time>2022-07-15T08:58:24.000Z</Time>
            <Position>
              <LatitudeDegrees>43.363433741033077239990234375</LatitudeDegrees>
              <LongitudeDegrees>-4.4740364514291286468505859375</LongitudeDegrees>
            </Position>
            <AltitudeMeters>62.799999237060546875</AltitudeMeters>
            <DistanceMeters>NAN</DistanceMeters>
          </Trackpoint>
          <Trackpoint>
            <Time>2022-07-15T08:58:25.000Z</Time>
            <Position>
              <LatitudeDegrees>43.3634828589856624603271484375</LatitudeDegrees>
              <LongitudeDegrees>-4.47412471286952495574951171875</LongitudeDegrees>
            </Position>
            <AltitudeMeters>62</AltitudeMeters>
            <DistanceMeters>NAN</DistanceMeters>
          </Trackpoint>
          <Trackpoint>
            <Time>2022-07-15T08:58:26.000Z</Time>
            <Position>
              <LatitudeDegrees>43.36352334357798099517822265625</LatitudeDegrees>
              <LongitudeDegrees>-4.47422127239406108856201171875</LongitudeDegrees>
            </Position>
            <AltitudeMeters>61.200000762939453125</AltitudeMeters>
            <DistanceMeters>NAN</DistanceMeters>
          </Trackpoint>
          <Trackpoint>
            <Time>2022-07-15T08:58:27.000Z</Time>
            <Position>
              <LatitudeDegrees>43.36355184204876422882080078125</LatitudeDegrees>
              <LongitudeDegrees>-4.47433124296367168426513671875</LongitudeDegrees>
            </Position>
            <AltitudeMeters>60.40000152587890625</AltitudeMeters>
            <DistanceMeters>NAN</DistanceMeters>
          </Trackpoint>
          <Trackpoint>
            <Time>2022-07-15T08:58:29.000Z</Time>
            <Position>
              <LatitudeDegrees>43.36361219175159931182861328125</LatitudeDegrees>
              <LongitudeDegrees>-4.4745621643960475921630859375</LongitudeDegrees>
            </Position>
            <AltitudeMeters>59</AltitudeMeters>
            <DistanceMeters>NAN</DistanceMeters>
          </Trackpoint>
          <Trackpoint>
            <Time>2022-07-15T08:58:31.000Z</Time>
            <Position>
              <LatitudeDegrees>43.3636890538036823272705078125</LatitudeDegrees>
              <LongitudeDegrees>-4.47478319518268108367919921875</LongitudeDegrees>
            </Position>
            <AltitudeMeters>57.799999237060546875</AltitudeMeters>
            <DistanceMeters>NAN</DistanceMeters>
          </Trackpoint>
          <Trackpoint>
            <Time>2022-07-15T08:58:32.000Z</Time>
            <Position>
              <LatitudeDegrees>43.36372978985309600830078125</LatitudeDegrees>
              <LongitudeDegrees>-4.47489283047616481781005859375</LongitudeDegrees>
            </Position>
            <AltitudeMeters>56.799999237060546875</AltitudeMeters>
            <DistanceMeters>NAN</DistanceMeters>
          </Trackpoint>
          <Trackpoint>
            <Time>2022-07-15T08:58:33.000Z</Time>
            <Position>
              <LatitudeDegrees>43.36377228610217571258544921875</LatitudeDegrees>
              <LongitudeDegrees>-4.4750043936073780059814453125</LongitudeDegrees>
            </Position>
            <AltitudeMeters>56</AltitudeMeters>
            <DistanceMeters>NAN</DistanceMeters>
          </Trackpoint>
          <Trackpoint>
            <Time>2022-07-15T08:58:35.000Z</Time>
            <Position>
              <LatitudeDegrees>43.3638607151806354522705078125</LatitudeDegrees>
              <LongitudeDegrees>-4.4752353988587856292724609375</LongitudeDegrees>
            </Position>
            <AltitudeMeters>54.799999237060546875</AltitudeMeters>
            <DistanceMeters>NAN</DistanceMeters>
          </Trackpoint>
          <Trackpoint>
            <Time>2022-07-15T08:58:37.000Z</Time>
            <Position>
              <LatitudeDegrees>43.36394797079265117645263671875</LatitudeDegrees>
              <LongitudeDegrees>-4.47547604329884052276611328125</LongitudeDegrees>
            </Position>
            <AltitudeMeters>53.40000152587890625</AltitudeMeters>
            <DistanceMeters>NAN</DistanceMeters>
          </Trackpoint>
          <Trackpoint>
            <Time>2022-07-15T08:58:39.000Z</Time>
            <Position>
              <LatitudeDegrees>43.3640320412814617156982421875</LatitudeDegrees>
              <LongitudeDegrees>-4.47572397999465465545654296875</LongitudeDegrees>
            </Position>
            <AltitudeMeters>52.200000762939453125</AltitudeMeters>
            <DistanceMeters>NAN</DistanceMeters>
          </Trackpoint>
          <Trackpoint>
            <Time>2022-07-15T08:58:40.000Z</Time>
            <Position>
              <LatitudeDegrees>43.36405911482870578765869140625</LatitudeDegrees>
              <LongitudeDegrees>-4.4758486188948154449462890625</LongitudeDegrees>
            </Position>
            <AltitudeMeters>51.799999237060546875</AltitudeMeters>
            <DistanceMeters>NAN</DistanceMeters>
          </Trackpoint>
          <Trackpoint>
            <Time>2022-07-15T08:58:41.000Z</Time>
            <Position>
              <LatitudeDegrees>43.364083506166934967041015625</LatitudeDegrees>
              <LongitudeDegrees>-4.4759683124721050262451171875</LongitudeDegrees>
            </Position>
            <AltitudeMeters>51.40000152587890625</AltitudeMeters>
            <DistanceMeters>NAN</DistanceMeters>
          </Trackpoint>
          <Trackpoint>
            <Time>2022-07-15T08:58:42.000Z</Time>
            <Position>
              <LatitudeDegrees>43.36411125026643276214599609375</LatitudeDegrees>
              <LongitudeDegrees>-4.47608540765941143035888671875</LongitudeDegrees>
            </Position>
            <AltitudeMeters>51</AltitudeMeters>
            <DistanceMeters>NAN</DistanceMeters>
          </Trackpoint>
          <Trackpoint>
            <Time>2022-07-15T08:58:45.000Z</Time>
            <Position>
              <LatitudeDegrees>43.3642065525054931640625</LatitudeDegrees>
              <LongitudeDegrees>-4.4763840548694133758544921875</LongitudeDegrees>
            </Position>
            <AltitudeMeters>50.40000152587890625</AltitudeMeters>
            <DistanceMeters>NAN</DistanceMeters>
          </Trackpoint>
          <Trackpoint>
            <Time>2022-07-15T08:58:47.000Z</Time>
            <Position>
              <LatitudeDegrees>43.36425826884806156158447265625</LatitudeDegrees>
              <LongitudeDegrees>-4.47656719945371150970458984375</LongitudeDegrees>
            </Position>
            <AltitudeMeters>50.40000152587890625</AltitudeMeters>
            <DistanceMeters>NAN</DistanceMeters>
          </Trackpoint>
          <Trackpoint>
            <Time>2022-07-15T08:58:49.000Z</Time>
            <Position>
              <LatitudeDegrees>43.36430084891617298126220703125</LatitudeDegrees>
              <LongitudeDegrees>-4.4767360948026180267333984375</LongitudeDegrees>
            </Position>
            <AltitudeMeters>50.200000762939453125</AltitudeMeters>
            <DistanceMeters>NAN</DistanceMeters>
          </Trackpoint>
          <Trackpoint>
            <Time>2022-07-15T08:58:50.000Z</Time>
            <Position>
              <LatitudeDegrees>43.3643312752246856689453125</LatitudeDegrees>
              <LongitudeDegrees>-4.47681664489209651947021484375</LongitudeDegrees>
            </Position>
            <AltitudeMeters>50.200000762939453125</AltitudeMeters>
            <DistanceMeters>NAN</DistanceMeters>
          </Trackpoint>
          <Trackpoint>
            <Time>2022-07-15T08:58:51.000Z</Time>
            <Position>
              <LatitudeDegrees>43.364353738725185394287109375</LatitudeDegrees>
              <LongitudeDegrees>-4.476900883018970489501953125</LongitudeDegrees>
            </Position>
            <AltitudeMeters>50</AltitudeMeters>
            <DistanceMeters>NAN</DistanceMeters>
          </Trackpoint>
          <Trackpoint>
            <Time>2022-07-15T08:58:52.000Z</Time>
            <Position>
              <LatitudeDegrees>43.3643706701695919036865234375</LatitudeDegrees>
              <LongitudeDegrees>-4.47698512114584445953369140625</LongitudeDegrees>
            </Position>
            <AltitudeMeters>50</AltitudeMeters>
            <DistanceMeters>NAN</DistanceMeters>
          </Trackpoint>
          <Trackpoint>
            <Time>2022-07-15T08:58:53.000Z</Time>
            <Position>
              <LatitudeDegrees>43.3643877692520618438720703125</LatitudeDegrees>
              <LongitudeDegrees>-4.47706759907305240631103515625</LongitudeDegrees>
            </Position>
            <AltitudeMeters>49.799999237060546875</AltitudeMeters>
            <DistanceMeters>NAN</DistanceMeters>
          </Trackpoint>
          <Trackpoint>
            <Time>2022-07-15T08:58:54.000Z</Time>
            <Position>
              <LatitudeDegrees>43.364393301308155059814453125</LatitudeDegrees>
              <LongitudeDegrees>-4.47715342976152896881103515625</LongitudeDegrees>
            </Position>
            <AltitudeMeters>49.59999847412109375</AltitudeMeters>
            <DistanceMeters>NAN</DistanceMeters>
          </Trackpoint>
          <Trackpoint>
            <Time>2022-07-15T08:58:56.000Z</Time>
            <Position>
              <LatitudeDegrees>43.36439237929880619049072265625</LatitudeDegrees>
              <LongitudeDegrees>-4.477333724498748779296875</LongitudeDegrees>
            </Position>
            <AltitudeMeters>48.799999237060546875</AltitudeMeters>
            <DistanceMeters>NAN</DistanceMeters>
          </Trackpoint>
          <Trackpoint>
            <Time>2022-07-15T08:58:59.000Z</Time>
            <Position>
              <LatitudeDegrees>43.36440947838127613067626953125</LatitudeDegrees>
              <LongitudeDegrees>-4.47762499563395977020263671875</LongitudeDegrees>
            </Position>
            <AltitudeMeters>47.799999237060546875</AltitudeMeters>
            <DistanceMeters>NAN</DistanceMeters>
          </Trackpoint>
          <Trackpoint>
            <Time>2022-07-15T08:59:01.000Z</Time>
            <Position>
              <LatitudeDegrees>43.3644451014697551727294921875</LatitudeDegrees>
              <LongitudeDegrees>-4.47783906944096088409423828125</LongitudeDegrees>
            </Position>
            <AltitudeMeters>46.40000152587890625</AltitudeMeters>
            <DistanceMeters>NAN</DistanceMeters>
          </Trackpoint>
          <Trackpoint>
            <Time>2022-07-15T08:59:02.000Z</Time>
            <Position>
              <LatitudeDegrees>43.36446362547576427459716796875</LatitudeDegrees>
              <LongitudeDegrees>-4.47795071639120578765869140625</LongitudeDegrees>
            </Position>
            <AltitudeMeters>45.200000762939453125</AltitudeMeters>
            <DistanceMeters>NAN</DistanceMeters>
          </Trackpoint>
          <Trackpoint>
            <Time>2022-07-15T08:59:04.000Z</Time>
            <Position>
              <LatitudeDegrees>43.3645074628293514251708984375</LatitudeDegrees>
              <LongitudeDegrees>-4.4781818054616451263427734375</LongitudeDegrees>
            </Position>
            <AltitudeMeters>43</AltitudeMeters>
            <DistanceMeters>NAN</DistanceMeters>
          </Trackpoint>
          <Trackpoint>
            <Time>2022-07-15T08:59:06.000Z</Time>
            <Position>
              <LatitudeDegrees>43.3645646274089813232421875</LatitudeDegrees>
              <LongitudeDegrees>-4.47842203080654144287109375</LongitudeDegrees>
            </Position>
            <AltitudeMeters>41.200000762939453125</AltitudeMeters>
            <DistanceMeters>NAN</DistanceMeters>
          </Trackpoint>
          <Trackpoint>
            <Time>2022-07-15T08:59:07.000Z</Time>
            <Position>
              <LatitudeDegrees>43.3645914494991302490234375</LatitudeDegrees>
              <LongitudeDegrees>-4.4785482622683048248291015625</LongitudeDegrees>
            </Position>
            <AltitudeMeters>39.799999237060546875</AltitudeMeters>
            <DistanceMeters>NAN</DistanceMeters>
          </Trackpoint>
          <Trackpoint>
            <Time>2022-07-15T08:59:08.000Z</Time>
            <Position>
              <LatitudeDegrees>43.364617936313152313232421875</LatitudeDegrees>
              <LongitudeDegrees>-4.47867440991103649139404296875</LongitudeDegrees>
            </Position>
            <AltitudeMeters>38.59999847412109375</AltitudeMeters>
            <DistanceMeters>NAN</DistanceMeters>
          </Trackpoint>
          <Trackpoint>
            <Time>2022-07-15T08:59:09.000Z</Time>
            <Position>
              <LatitudeDegrees>43.3646402321755886077880859375</LatitudeDegrees>
              <LongitudeDegrees>-4.4787970371544361114501953125</LongitudeDegrees>
            </Position>
            <AltitudeMeters>37.59999847412109375</AltitudeMeters>
            <DistanceMeters>NAN</DistanceMeters>
          </Trackpoint>
          <Trackpoint>
            <Time>2022-07-15T08:59:11.000Z</Time>
            <Position>
              <LatitudeDegrees>43.3646824769675731658935546875</LatitudeDegrees>
              <LongitudeDegrees>-4.47903198190033435821533203125</LongitudeDegrees>
            </Position>
            <AltitudeMeters>35.59999847412109375</AltitudeMeters>
            <DistanceMeters>NAN</DistanceMeters>
          </Trackpoint>
          <Trackpoint>
            <Time>2022-07-15T08:59:13.000Z</Time>
            <Position>
              <LatitudeDegrees>43.36473687551915645599365234375</LatitudeDegrees>
              <LongitudeDegrees>-4.47924069128930568695068359375</LongitudeDegrees>
            </Position>
            <AltitudeMeters>33.799999237060546875</AltitudeMeters>
            <DistanceMeters>NAN</DistanceMeters>
          </Trackpoint>
          <Trackpoint>
            <Time>2022-07-15T08:59:15.000Z</Time>
            <Position>
              <LatitudeDegrees>43.36482320912182331085205078125</LatitudeDegrees>
              <LongitudeDegrees>-4.47941905818879604339599609375</LongitudeDegrees>
            </Position>
            <AltitudeMeters>32.200000762939453125</AltitudeMeters>
            <DistanceMeters>NAN</DistanceMeters>
          </Trackpoint>
          <Trackpoint>
            <Time>2022-07-15T08:59:17.000Z</Time>
            <Position>
              <LatitudeDegrees>43.36491172201931476593017578125</LatitudeDegrees>
              <LongitudeDegrees>-4.47958619333803653717041015625</LongitudeDegrees>
            </Position>
            <AltitudeMeters>30.6000003814697265625</AltitudeMeters>
            <DistanceMeters>NAN</DistanceMeters>
          </Trackpoint>
          <Trackpoint>
            <Time>2022-07-15T08:59:19.000Z</Time>
            <Position>
              <LatitudeDegrees>43.36497676558792591094970703125</LatitudeDegrees>
              <LongitudeDegrees>-4.47977914474904537200927734375</LongitudeDegrees>
            </Position>
            <AltitudeMeters>28.799999237060546875</AltitudeMeters>
            <DistanceMeters>NAN</DistanceMeters>
          </Trackpoint>
          <Trackpoint>
            <Time>2022-07-15T08:59:21.000Z</Time>
            <Position>
              <LatitudeDegrees>43.3650087006390094757080078125</LatitudeDegrees>
              <LongitudeDegrees>-4.47999103926122188568115234375</LongitudeDegrees>
            </Position>
            <AltitudeMeters>27</AltitudeMeters>
            <DistanceMeters>NAN</DistanceMeters>
          </Trackpoint>
          <Trackpoint>
            <Time>2022-07-15T08:59:23.000Z</Time>
            <Position>
              <LatitudeDegrees>43.3650549687445163726806640625</LatitudeDegrees>
              <LongitudeDegrees>-4.48020092211663722991943359375</LongitudeDegrees>
            </Position>
            <AltitudeMeters>25.6000003814697265625</AltitudeMeters>
            <DistanceMeters>NAN</DistanceMeters>
          </Trackpoint>
          <Trackpoint>
            <Time>2022-07-15T08:59:24.000Z</Time>
            <Position>
              <LatitudeDegrees>43.36508438922464847564697265625</LatitudeDegrees>
              <LongitudeDegrees>-4.4803067855536937713623046875</LongitudeDegrees>
            </Position>
            <AltitudeMeters>24.200000762939453125</AltitudeMeters>
            <DistanceMeters>NAN</DistanceMeters>
          </Trackpoint>
          <Trackpoint>
            <Time>2022-07-15T08:59:25.000Z</Time>
            <Position>
              <LatitudeDegrees>43.36512160487473011016845703125</LatitudeDegrees>
              <LongitudeDegrees>-4.4804100506007671356201171875</LongitudeDegrees>
            </Position>
            <AltitudeMeters>23.200000762939453125</AltitudeMeters>
            <DistanceMeters>NAN</DistanceMeters>
          </Trackpoint>
          <Trackpoint>
            <Time>2022-07-15T08:59:26.000Z</Time>
            <Position>
              <LatitudeDegrees>43.365161754190921783447265625</LatitudeDegrees>
              <LongitudeDegrees>-4.48050853796303272247314453125</LongitudeDegrees>
            </Position>
            <AltitudeMeters>22</AltitudeMeters>
            <DistanceMeters>NAN</DistanceMeters>
          </Trackpoint>
          <Trackpoint>
            <Time>2022-07-15T08:59:27.000Z</Time>
            <Position>
              <LatitudeDegrees>43.3652115426957607269287109375</LatitudeDegrees>
              <LongitudeDegrees>-4.4806038402020931243896484375</LongitudeDegrees>
            </Position>
            <AltitudeMeters>20.799999237060546875</AltitudeMeters>
            <DistanceMeters>NAN</DistanceMeters>
          </Trackpoint>
          <Trackpoint>
            <Time>2022-07-15T08:59:29.000Z</Time>
            <Position>
              <LatitudeDegrees>43.365325368940830230712890625</LatitudeDegrees>
              <LongitudeDegrees>-4.480788744986057281494140625</LongitudeDegrees>
            </Position>
            <AltitudeMeters>19</AltitudeMeters>
            <DistanceMeters>NAN</DistanceMeters>
          </Trackpoint>
          <Trackpoint>
            <Time>2022-07-15T08:59:31.000Z</Time>
            <Position>
              <LatitudeDegrees>43.3654311485588550567626953125</LatitudeDegrees>
              <LongitudeDegrees>-4.48094540275633335113525390625</LongitudeDegrees>
            </Position>
            <AltitudeMeters>17</AltitudeMeters>
            <DistanceMeters>NAN</DistanceMeters>
          </Trackpoint>
          <Trackpoint>
            <Time>2022-07-15T08:59:32.000Z</Time>
            <Position>
              <LatitudeDegrees>43.365485630929470062255859375</LatitudeDegrees>
              <LongitudeDegrees>-4.48101664893329143524169921875</LongitudeDegrees>
            </Position>
            <AltitudeMeters>16</AltitudeMeters>
            <DistanceMeters>NAN</DistanceMeters>
          </Trackpoint>
          <Trackpoint>
            <Time>2022-07-15T08:59:34.000Z</Time>
            <Position>
              <LatitudeDegrees>43.36558244191110134124755859375</LatitudeDegrees>
              <LongitudeDegrees>-4.48115377686917781829833984375</LongitudeDegrees>
            </Position>
            <AltitudeMeters>14.3999996185302734375</AltitudeMeters>
            <DistanceMeters>NAN</DistanceMeters>
          </Trackpoint>
          <Trackpoint>
            <Time>2022-07-15T08:59:36.000Z</Time>
            <Position>
              <LatitudeDegrees>43.365677408874034881591796875</LatitudeDegrees>
              <LongitudeDegrees>-4.48125653900206089019775390625</LongitudeDegrees>
            </Position>
            <AltitudeMeters>13.19999980926513671875</AltitudeMeters>
            <DistanceMeters>NAN</DistanceMeters>
          </Trackpoint>
          <Trackpoint>
            <Time>2022-07-15T08:59:37.000Z</Time>
            <Position>
              <LatitudeDegrees>43.3657191507518291473388671875</LatitudeDegrees>
              <LongitudeDegrees>-4.481307081878185272216796875</LongitudeDegrees>
            </Position>
            <AltitudeMeters>12.3999996185302734375</AltitudeMeters>
            <DistanceMeters>NAN</DistanceMeters>
          </Trackpoint>
          <Trackpoint>
            <Time>2022-07-15T08:59:38.000Z</Time>
            <Position>
              <LatitudeDegrees>43.36576047353446483612060546875</LatitudeDegrees>
              <LongitudeDegrees>-4.4813503324985504150390625</LongitudeDegrees>
            </Position>
            <AltitudeMeters>11.80000019073486328125</AltitudeMeters>
            <DistanceMeters>NAN</DistanceMeters>
          </Trackpoint>
          <Trackpoint>
            <Time>2022-07-15T08:59:41.000Z</Time>
            <Position>
              <LatitudeDegrees>43.36588419042527675628662109375</LatitudeDegrees>
              <LongitudeDegrees>-4.4814564473927021026611328125</LongitudeDegrees>
            </Position>
            <AltitudeMeters>10.6000003814697265625</AltitudeMeters>
            <DistanceMeters>NAN</DistanceMeters>
          </Trackpoint>
          <Trackpoint>
            <Time>2022-07-15T08:59:42.000Z</Time>
            <Position>
              <LatitudeDegrees>43.36592425592243671417236328125</LatitudeDegrees>
              <LongitudeDegrees>-4.481499195098876953125</LongitudeDegrees>
            </Position>
            <AltitudeMeters>10</AltitudeMeters>
            <DistanceMeters>NAN</DistanceMeters>
          </Trackpoint>
          <Trackpoint>
            <Time>2022-07-15T08:59:43.000Z</Time>
            <Position>
              <LatitudeDegrees>43.3659773133695125579833984375</LatitudeDegrees>
              <LongitudeDegrees>-4.48152962140738964080810546875</LongitudeDegrees>
            </Position>
            <AltitudeMeters>9.80000019073486328125</AltitudeMeters>
            <DistanceMeters>NAN</DistanceMeters>
          </Trackpoint>
          <Trackpoint>
            <Time>2022-07-15T08:59:45.000Z</Time>
            <Position>
              <LatitudeDegrees>43.36605752818286418914794921875</LatitudeDegrees>
              <LongitudeDegrees>-4.48155074380338191986083984375</LongitudeDegrees>
            </Position>
            <AltitudeMeters>9.3999996185302734375</AltitudeMeters>
            <DistanceMeters>NAN</DistanceMeters>
          </Trackpoint>
          <Trackpoint>
            <Time>2022-07-15T08:59:46.000Z</Time>
            <Position>
              <LatitudeDegrees>43.3661070652306079864501953125</LatitudeDegrees>
              <LongitudeDegrees>-4.48155158199369907379150390625</LongitudeDegrees>
            </Position>
            <AltitudeMeters>9.3999996185302734375</AltitudeMeters>
            <DistanceMeters>NAN</DistanceMeters>
          </Trackpoint>
          <Trackpoint>
            <Time>2022-07-15T08:59:48.000Z</Time>
            <Position>
              <LatitudeDegrees>43.366204462945461273193359375</LatitudeDegrees>
              <LongitudeDegrees>-4.48155610822141170501708984375</LongitudeDegrees>
            </Position>
            <AltitudeMeters>9.3999996185302734375</AltitudeMeters>
            <DistanceMeters>NAN</DistanceMeters>
          </Trackpoint>
          <Trackpoint>
            <Time>2022-07-15T08:59:53.000Z</Time>
            <Position>
              <LatitudeDegrees>43.36640671826899051666259765625</LatitudeDegrees>
              <LongitudeDegrees>-4.48163456283509731292724609375</LongitudeDegrees>
            </Position>
            <AltitudeMeters>9.6000003814697265625</AltitudeMeters>
            <DistanceMeters>NAN</DistanceMeters>
          </Trackpoint>
          <Trackpoint>
            <Time>2022-07-15T08:59:55.000Z</Time>
            <Position>
              <LatitudeDegrees>43.3664718456566333770751953125</LatitudeDegrees>
              <LongitudeDegrees>-4.48167831636965274810791015625</LongitudeDegrees>
            </Position>
            <AltitudeMeters>9.3999996185302734375</AltitudeMeters>
            <DistanceMeters>NAN</DistanceMeters>
          </Trackpoint>
          <Trackpoint>
            <Time>2022-07-15T09:00:00.000Z</Time>
            <Position>
              <LatitudeDegrees>43.36663194000720977783203125</LatitudeDegrees>
              <LongitudeDegrees>-4.4817890413105487823486328125</LongitudeDegrees>
            </Position>
            <AltitudeMeters>10</AltitudeMeters>
            <DistanceMeters>NAN</DistanceMeters>
          </Trackpoint>
          <Trackpoint>
            <Time>2022-07-15T09:00:02.000Z</Time>
            <Position>
              <LatitudeDegrees>43.36668482981622219085693359375</LatitudeDegrees>
              <LongitudeDegrees>-4.481829106807708740234375</LongitudeDegrees>
            </Position>
            <AltitudeMeters>10.19999980926513671875</AltitudeMeters>
            <DistanceMeters>NAN</DistanceMeters>
          </Trackpoint>
          <Trackpoint>
            <Time>2022-07-15T09:00:07.000Z</Time>
            <Position>
              <LatitudeDegrees>43.36682329885661602020263671875</LatitudeDegrees>
              <LongitudeDegrees>-4.4819382391870021820068359375</LongitudeDegrees>
            </Position>
            <AltitudeMeters>10.3999996185302734375</AltitudeMeters>
            <DistanceMeters>NAN</DistanceMeters>
          </Trackpoint>
          <Trackpoint>
            <Time>2022-07-15T09:00:08.000Z</Time>
            <Position>
              <LatitudeDegrees>43.36685347370803356170654296875</LatitudeDegrees>
              <LongitudeDegrees>-4.48196162469685077667236328125</LongitudeDegrees>
            </Position>
            <AltitudeMeters>10.3999996185302734375</AltitudeMeters>
            <DistanceMeters>NAN</DistanceMeters>
          </Trackpoint>
          <Trackpoint>
            <Time>2022-07-15T09:00:09.000Z</Time>
            <Position>
              <LatitudeDegrees>43.3668815530836582183837890625</LatitudeDegrees>
              <LongitudeDegrees>-4.4819767959415912628173828125</LongitudeDegrees>
            </Position>
            <AltitudeMeters>10.3999996185302734375</AltitudeMeters>
            <DistanceMeters>NAN</DistanceMeters>
          </Trackpoint>
          <Trackpoint>
            <Time>2022-07-15T09:00:14.000Z</Time>
            <Position>
              <LatitudeDegrees>43.367028571665287017822265625</LatitudeDegrees>
              <LongitudeDegrees>-4.48203370906412601470947265625</LongitudeDegrees>
            </Position>
            <AltitudeMeters>10.80000019073486328125</AltitudeMeters>
            <DistanceMeters>NAN</DistanceMeters>
          </Trackpoint>
          <Trackpoint>
            <Time>2022-07-15T09:00:15.000Z</Time>
            <Position>
              <LatitudeDegrees>43.36705841124057769775390625</LatitudeDegrees>
              <LongitudeDegrees>-4.48204913176596164703369140625</LongitudeDegrees>
            </Position>
            <AltitudeMeters>10.80000019073486328125</AltitudeMeters>
            <DistanceMeters>NAN</DistanceMeters>
          </Trackpoint>
          <Trackpoint>
            <Time>2022-07-15T09:00:21.000Z</Time>
            <Position>
              <LatitudeDegrees>43.367215655744075775146484375</LatitudeDegrees>
              <LongitudeDegrees>-4.48213513009250164031982421875</LongitudeDegrees>
            </Position>
            <AltitudeMeters>11</AltitudeMeters>
            <DistanceMeters>NAN</DistanceMeters>
          </Trackpoint>
          <Trackpoint>
            <Time>2022-07-15T09:00:24.000Z</Time>
            <Position>
              <LatitudeDegrees>43.36730643175542354583740234375</LatitudeDegrees>
              <LongitudeDegrees>-4.48217066936194896697998046875</LongitudeDegrees>
            </Position>
            <AltitudeMeters>11.19999980926513671875</AltitudeMeters>
            <DistanceMeters>NAN</DistanceMeters>
          </Trackpoint>
          <Trackpoint>
            <Time>2022-07-15T09:00:27.000Z</Time>
            <Position>
              <LatitudeDegrees>43.36740173399448394775390625</LatitudeDegrees>
              <LongitudeDegrees>-4.48221777565777301788330078125</LongitudeDegrees>
            </Position>
            <AltitudeMeters>11.3999996185302734375</AltitudeMeters>
            <DistanceMeters>NAN</DistanceMeters>
          </Trackpoint>
          <Trackpoint>
            <Time>2022-07-15T09:00:30.000Z</Time>
            <Position>
              <LatitudeDegrees>43.36748027242720127105712890625</LatitudeDegrees>
              <LongitudeDegrees>-4.48226119391620159149169921875</LongitudeDegrees>
            </Position>
            <AltitudeMeters>11.3999996185302734375</AltitudeMeters>
            <DistanceMeters>NAN</DistanceMeters>
          </Trackpoint>
          <Trackpoint>
            <Time>2022-07-15T09:00:32.000Z</Time>
            <Position>
              <LatitudeDegrees>43.36753844283521175384521484375</LatitudeDegrees>
              <LongitudeDegrees>-4.482295811176300048828125</LongitudeDegrees>
            </Position>
            <AltitudeMeters>11.6000003814697265625</AltitudeMeters>
            <DistanceMeters>NAN</DistanceMeters>
          </Trackpoint>
          <Trackpoint>
            <Time>2022-07-15T09:00:33.000Z</Time>
            <Position>
              <LatitudeDegrees>43.3675645105540752410888671875</LatitudeDegrees>
              <LongitudeDegrees>-4.48231165297329425811767578125</LongitudeDegrees>
            </Position>
            <AltitudeMeters>11.6000003814697265625</AltitudeMeters>
            <DistanceMeters>NAN</DistanceMeters>
          </Trackpoint>
          <Trackpoint>
            <Time>2022-07-15T09:00:37.000Z</Time>
            <Position>
              <LatitudeDegrees>43.36767473258078098297119140625</LatitudeDegrees>
              <LongitudeDegrees>-4.482365883886814117431640625</LongitudeDegrees>
            </Position>
            <AltitudeMeters>11.80000019073486328125</AltitudeMeters>
            <DistanceMeters>NAN</DistanceMeters>
          </Trackpoint>
          <Trackpoint>
            <Time>2022-07-15T09:00:42.000Z</Time>
            <Position>
              <LatitudeDegrees>43.3678042329847812652587890625</LatitudeDegrees>
              <LongitudeDegrees>-4.482440650463104248046875</LongitudeDegrees>
            </Position>
            <AltitudeMeters>12</AltitudeMeters>
            <DistanceMeters>NAN</DistanceMeters>
          </Trackpoint>
          <Trackpoint>
            <Time>2022-07-15T09:00:46.000Z</Time>
            <Position>
              <LatitudeDegrees>43.3678900636732578277587890625</LatitudeDegrees>
              <LongitudeDegrees>-4.4824981503188610076904296875</LongitudeDegrees>
            </Position>
            <AltitudeMeters>12.19999980926513671875</AltitudeMeters>
            <DistanceMeters>NAN</DistanceMeters>
          </Trackpoint>
          <Trackpoint>
            <Time>2022-07-15T09:00:48.000Z</Time>
            <Position>
              <LatitudeDegrees>43.36792048998177051544189453125</LatitudeDegrees>
              <LongitudeDegrees>-4.4825286604464054107666015625</LongitudeDegrees>
            </Position>
            <AltitudeMeters>12.3999996185302734375</AltitudeMeters>
            <DistanceMeters>NAN</DistanceMeters>
          </Trackpoint>
          <Trackpoint>
            <Time>2022-07-15T09:00:51.000Z</Time>
            <Position>
              <LatitudeDegrees>43.36799508891999721527099609375</LatitudeDegrees>
              <LongitudeDegrees>-4.48255808092653751373291015625</LongitudeDegrees>
            </Position>
            <AltitudeMeters>12.6000003814697265625</AltitudeMeters>
            <DistanceMeters>NAN</DistanceMeters>
          </Trackpoint>
          <Trackpoint>
            <Time>2022-07-15T09:00:53.000Z</Time>
            <Position>
              <LatitudeDegrees>43.36803951300680637359619140625</LatitudeDegrees>
              <LongitudeDegrees>-4.48259244672954082489013671875</LongitudeDegrees>
            </Position>
            <AltitudeMeters>12.80000019073486328125</AltitudeMeters>
            <DistanceMeters>NAN</DistanceMeters>
          </Trackpoint>
          <Trackpoint>
            <Time>2022-07-15T09:00:58.000Z</Time>
            <Position>
              <LatitudeDegrees>43.36814261041581630706787109375</LatitudeDegrees>
              <LongitudeDegrees>-4.4826976396143436431884765625</LongitudeDegrees>
            </Position>
            <AltitudeMeters>13.19999980926513671875</AltitudeMeters>
            <DistanceMeters>NAN</DistanceMeters>
          </Trackpoint>
          <Trackpoint>
            <Time>2022-07-15T09:01:01.000Z</Time>
            <Position>
              <LatitudeDegrees>43.36819172836840152740478515625</LatitudeDegrees>
              <LongitudeDegrees>-4.482770226895809173583984375</LongitudeDegrees>
            </Position>
            <AltitudeMeters>13.3999996185302734375</AltitudeMeters>
            <DistanceMeters>NAN</DistanceMeters>
          </Trackpoint>
          <Trackpoint>
            <Time>2022-07-15T09:01:04.000Z</Time>
            <Position>
              <LatitudeDegrees>43.36823481135070323944091796875</LatitudeDegrees>
              <LongitudeDegrees>-4.48285304009914398193359375</LongitudeDegrees>
            </Position>
            <AltitudeMeters>13.6000003814697265625</AltitudeMeters>
            <DistanceMeters>NAN</DistanceMeters>
          </Trackpoint>
          <Trackpoint>
            <Time>2022-07-15T09:01:07.000Z</Time>
            <Position>
              <LatitudeDegrees>43.36828225292265415191650390625</LatitudeDegrees>
              <LongitudeDegrees>-4.48293275199830532073974609375</LongitudeDegrees>
            </Position>
            <AltitudeMeters>13.6000003814697265625</AltitudeMeters>
            <DistanceMeters>NAN</DistanceMeters>
          </Trackpoint>
          <Trackpoint>
            <Time>2022-07-15T09:01:10.000Z</Time>
            <Position>
              <LatitudeDegrees>43.36834176443517208099365234375</LatitudeDegrees>
              <LongitudeDegrees>-4.483020007610321044921875</LongitudeDegrees>
            </Position>
            <AltitudeMeters>13.80000019073486328125</AltitudeMeters>
            <DistanceMeters>NAN</DistanceMeters>
          </Trackpoint>
          <Trackpoint>
            <Time>2022-07-15T09:01:15.000Z</Time>
            <Position>
              <LatitudeDegrees>43.3684154413640499114990234375</LatitudeDegrees>
              <LongitudeDegrees>-4.48317063041031360626220703125</LongitudeDegrees>
            </Position>
            <AltitudeMeters>14</AltitudeMeters>
            <DistanceMeters>NAN</DistanceMeters>
          </Trackpoint>
          <Trackpoint>
            <Time>2022-07-15T09:01:20.000Z</Time>
            <Position>
              <LatitudeDegrees>43.36851057596504688262939453125</LatitudeDegrees>
              <LongitudeDegrees>-4.48329267092049121856689453125</LongitudeDegrees>
            </Position>
            <AltitudeMeters>13.80000019073486328125</AltitudeMeters>
            <DistanceMeters>NAN</DistanceMeters>
          </Trackpoint>
          <Trackpoint>
            <Time>2022-07-15T09:01:25.000Z</Time>
            <Position>
              <LatitudeDegrees>43.3685552515089511871337890625</LatitudeDegrees>
              <LongitudeDegrees>-4.483441449701786041259765625</LongitudeDegrees>
            </Position>
            <AltitudeMeters>14</AltitudeMeters>
            <DistanceMeters>NAN</DistanceMeters>
          </Trackpoint>
          <Trackpoint>
            <Time>2022-07-15T09:01:27.000Z</Time>
            <Position>
              <LatitudeDegrees>43.3685532398521900177001953125</LatitudeDegrees>
              <LongitudeDegrees>-4.4835096783936023712158203125</LongitudeDegrees>
            </Position>
            <AltitudeMeters>14</AltitudeMeters>
            <DistanceMeters>NAN</DistanceMeters>
          </Trackpoint>
          <Trackpoint>
            <Time>2022-07-15T09:01:33.000Z</Time>
            <Position>
              <LatitudeDegrees>43.368564806878566741943359375</LatitudeDegrees>
              <LongitudeDegrees>-4.4837155379354953765869140625</LongitudeDegrees>
            </Position>
            <AltitudeMeters>14.3999996185302734375</AltitudeMeters>
            <DistanceMeters>NAN</DistanceMeters>
          </Trackpoint>
          <Trackpoint>
            <Time>2022-07-15T09:01:34.000Z</Time>
            <Position>
              <LatitudeDegrees>43.3685713447630405426025390625</LatitudeDegrees>
              <LongitudeDegrees>-4.4837554357945919036865234375</LongitudeDegrees>
            </Position>
            <AltitudeMeters>14.3999996185302734375</AltitudeMeters>
            <DistanceMeters>NAN</DistanceMeters>
          </Trackpoint>
          <Trackpoint>
            <Time>2022-07-15T09:01:39.000Z</Time>
            <Position>
              <LatitudeDegrees>43.36862482130527496337890625</LatitudeDegrees>
              <LongitudeDegrees>-4.4839042983949184417724609375</LongitudeDegrees>
            </Position>
            <AltitudeMeters>14.3999996185302734375</AltitudeMeters>
            <DistanceMeters>NAN</DistanceMeters>
          </Trackpoint>
          <Trackpoint>
            <Time>2022-07-15T09:01:41.000Z</Time>
            <Position>
              <LatitudeDegrees>43.368644602596759796142578125</LatitudeDegrees>
              <LongitudeDegrees>-4.48395685292780399322509765625</LongitudeDegrees>
            </Position>
            <AltitudeMeters>14</AltitudeMeters>
            <DistanceMeters>NAN</DistanceMeters>
          </Trackpoint>
          <Trackpoint>
            <Time>2022-07-15T09:01:44.000Z</Time>
            <Position>
              <LatitudeDegrees>43.36865759454667568206787109375</LatitudeDegrees>
              <LongitudeDegrees>-4.48398233391344547271728515625</LongitudeDegrees>
            </Position>
            <AltitudeMeters>13.80000019073486328125</AltitudeMeters>
            <DistanceMeters>NAN</DistanceMeters>
          </Trackpoint>
          <Trackpoint>
            <Time>2022-07-15T09:01:45.000Z</Time>
            <Position>
              <LatitudeDegrees>43.36865759454667568206787109375</LatitudeDegrees>
              <LongitudeDegrees>-4.48398233391344547271728515625</LongitudeDegrees>
            </Position>
            <AltitudeMeters>13.6000003814697265625</AltitudeMeters>
            <DistanceMeters>NAN</DistanceMeters>
          </Trackpoint>
          <Trackpoint>
            <Time>2022-07-15T09:01:46.000Z</Time>
            <Position>
              <LatitudeDegrees>43.36865759454667568206787109375</LatitudeDegrees>
              <LongitudeDegrees>-4.48398233391344547271728515625</LongitudeDegrees>
            </Position>
            <AltitudeMeters>13.3999996185302734375</AltitudeMeters>
            <DistanceMeters>NAN</DistanceMeters>
          </Trackpoint>
          <Trackpoint>
            <Time>2022-07-15T09:01:47.000Z</Time>
            <Position>
              <LatitudeDegrees>43.36865759454667568206787109375</LatitudeDegrees>
              <LongitudeDegrees>-4.48398233391344547271728515625</LongitudeDegrees>
            </Position>
            <AltitudeMeters>13.19999980926513671875</AltitudeMeters>
            <DistanceMeters>NAN</DistanceMeters>
          </Trackpoint>
          <Trackpoint>
            <Time>2022-07-15T09:02:09.000Z</Time>
            <Position>
              <LatitudeDegrees>43.36871442385017871856689453125</LatitudeDegrees>
              <LongitudeDegrees>-4.48402558453381061553955078125</LongitudeDegrees>
            </Position>
            <AltitudeMeters>13</AltitudeMeters>
            <DistanceMeters>NAN</DistanceMeters>
          </Trackpoint>
          <Trackpoint>
            <Time>2022-07-15T09:02:11.000Z</Time>
            <Position>
              <LatitudeDegrees>43.36873588152229785919189453125</LatitudeDegrees>
              <LongitudeDegrees>-4.48402910493314266204833984375</LongitudeDegrees>
            </Position>
            <AltitudeMeters>12.80000019073486328125</AltitudeMeters>
            <DistanceMeters>NAN</DistanceMeters>
          </Trackpoint>
          <Trackpoint>
            <Time>2022-07-15T09:02:13.000Z</Time>
            <Position>
              <LatitudeDegrees>43.36873588152229785919189453125</LatitudeDegrees>
              <LongitudeDegrees>-4.48402910493314266204833984375</LongitudeDegrees>
            </Position>
            <AltitudeMeters>12.6000003814697265625</AltitudeMeters>
            <DistanceMeters>NAN</DistanceMeters>
          </Trackpoint>
          <Trackpoint>
            <Time>2022-07-15T09:03:15.000Z</Time>
            <Position>
              <LatitudeDegrees>43.36879656650125980377197265625</LatitudeDegrees>
              <LongitudeDegrees>-4.48400865308940410614013671875</LongitudeDegrees>
            </Position>
            <AltitudeMeters>12.3999996185302734375</AltitudeMeters>
            <DistanceMeters>NAN</DistanceMeters>
          </Trackpoint>
          <Trackpoint>
            <Time>2022-07-15T09:03:16.000Z</Time>
            <Position>
              <LatitudeDegrees>43.36882322095334529876708984375</LatitudeDegrees>
              <LongitudeDegrees>-4.48398970998823642730712890625</LongitudeDegrees>
            </Position>
            <AltitudeMeters>12.6000003814697265625</AltitudeMeters>
            <DistanceMeters>NAN</DistanceMeters>
          </Trackpoint>
          <Trackpoint>
            <Time>2022-07-15T09:03:23.000Z</Time>
            <Position>
              <LatitudeDegrees>43.368965797126293182373046875</LatitudeDegrees>
              <LongitudeDegrees>-4.48384948074817657470703125</LongitudeDegrees>
            </Position>
            <AltitudeMeters>12.6000003814697265625</AltitudeMeters>
            <DistanceMeters>NAN</DistanceMeters>
          </Trackpoint>
          <Trackpoint>
            <Time>2022-07-15T09:03:28.000Z</Time>
            <Position>
              <LatitudeDegrees>43.36908976547420024871826171875</LatitudeDegrees>
              <LongitudeDegrees>-4.48378401808440685272216796875</LongitudeDegrees>
            </Position>
            <AltitudeMeters>12.3999996185302734375</AltitudeMeters>
            <DistanceMeters>NAN</DistanceMeters>
          </Trackpoint>
          <Trackpoint>
            <Time>2022-07-15T09:03:33.000Z</Time>
            <Position>
              <LatitudeDegrees>43.3692559786140918731689453125</LatitudeDegrees>
              <LongitudeDegrees>-4.483763985335826873779296875</LongitudeDegrees>
            </Position>
            <AltitudeMeters>11.3999996185302734375</AltitudeMeters>
            <DistanceMeters>NAN</DistanceMeters>
          </Trackpoint>
          <Trackpoint>
            <Time>2022-07-15T09:03:34.000Z</Time>
            <Position>
              <LatitudeDegrees>43.3693089522421360015869140625</LatitudeDegrees>
              <LongitudeDegrees>-4.48375551961362361907958984375</LongitudeDegrees>
            </Position>
            <AltitudeMeters>11.19999980926513671875</AltitudeMeters>
            <DistanceMeters>NAN</DistanceMeters>
          </Trackpoint>
          <Trackpoint>
            <Time>2022-07-15T09:03:35.000Z</Time>
            <Position>
              <LatitudeDegrees>43.36935765109956264495849609375</LatitudeDegrees>
              <LongitudeDegrees>-4.4837403483688831329345703125</LongitudeDegrees>
            </Position>
            <AltitudeMeters>11</AltitudeMeters>
            <DistanceMeters>NAN</DistanceMeters>
          </Trackpoint>
          <Trackpoint>
            <Time>2022-07-15T09:03:38.000Z</Time>
            <Position>
              <LatitudeDegrees>43.36950014345347881317138671875</LatitudeDegrees>
              <LongitudeDegrees>-4.48366248048841953277587890625</LongitudeDegrees>
            </Position>
            <AltitudeMeters>10.3999996185302734375</AltitudeMeters>
            <DistanceMeters>NAN</DistanceMeters>
          </Trackpoint>
          <Trackpoint>
            <Time>2022-07-15T09:03:39.000Z</Time>
            <Position>
              <LatitudeDegrees>43.36955227889120578765869140625</LatitudeDegrees>
              <LongitudeDegrees>-4.48362090624868869781494140625</LongitudeDegrees>
            </Position>
            <AltitudeMeters>10.19999980926513671875</AltitudeMeters>
            <DistanceMeters>NAN</DistanceMeters>
          </Trackpoint>
          <Trackpoint>
            <Time>2022-07-15T09:03:40.000Z</Time>
            <Position>
              <LatitudeDegrees>43.36961229331791400909423828125</LatitudeDegrees>
              <LongitudeDegrees>-4.48355737142264842987060546875</LongitudeDegrees>
            </Position>
            <AltitudeMeters>10</AltitudeMeters>
            <DistanceMeters>NAN</DistanceMeters>
          </Trackpoint>
          <Trackpoint>
            <Time>2022-07-15T09:03:44.000Z</Time>
            <Position>
              <LatitudeDegrees>43.3697629161179065704345703125</LatitudeDegrees>
              <LongitudeDegrees>-4.483314715325832366943359375</LongitudeDegrees>
            </Position>
            <AltitudeMeters>9.3999996185302734375</AltitudeMeters>
            <DistanceMeters>NAN</DistanceMeters>
          </Trackpoint>
          <Trackpoint>
            <Time>2022-07-15T09:03:45.000Z</Time>
            <Position>
              <LatitudeDegrees>43.3697850443422794342041015625</LatitudeDegrees>
              <LongitudeDegrees>-4.48323466815054416656494140625</LongitudeDegrees>
            </Position>
            <AltitudeMeters>9.19999980926513671875</AltitudeMeters>
            <DistanceMeters>NAN</DistanceMeters>
          </Trackpoint>
          <Trackpoint>
            <Time>2022-07-15T09:03:48.000Z</Time>
            <Position>
              <LatitudeDegrees>43.36983927525579929351806640625</LatitudeDegrees>
              <LongitudeDegrees>-4.48300349526107311248779296875</LongitudeDegrees>
            </Position>
            <AltitudeMeters>8.3999996185302734375</AltitudeMeters>
            <DistanceMeters>NAN</DistanceMeters>
          </Trackpoint>
          <Trackpoint>
            <Time>2022-07-15T09:03:50.000Z</Time>
            <Position>
              <LatitudeDegrees>43.36986190639436244964599609375</LatitudeDegrees>
              <LongitudeDegrees>-4.48284742422401905059814453125</LongitudeDegrees>
            </Position>
            <AltitudeMeters>8.19999980926513671875</AltitudeMeters>
            <DistanceMeters>NAN</DistanceMeters>
          </Trackpoint>
          <Trackpoint>
            <Time>2022-07-15T09:03:52.000Z</Time>
            <Position>
              <LatitudeDegrees>43.36988822557032108306884765625</LatitudeDegrees>
              <LongitudeDegrees>-4.48268867097795009613037109375</LongitudeDegrees>
            </Position>
            <AltitudeMeters>8</AltitudeMeters>
            <DistanceMeters>NAN</DistanceMeters>
          </Trackpoint>
          <Trackpoint>
            <Time>2022-07-15T09:03:54.000Z</Time>
            <Position>
              <LatitudeDegrees>43.36991387419402599334716796875</LatitudeDegrees>
              <LongitudeDegrees>-4.482567720115184783935546875</LongitudeDegrees>
            </Position>
            <AltitudeMeters>7.80000019073486328125</AltitudeMeters>
            <DistanceMeters>NAN</DistanceMeters>
          </Trackpoint>
          <Trackpoint>
            <Time>2022-07-15T09:03:56.000Z</Time>
            <Position>
              <LatitudeDegrees>43.36992879398167133331298828125</LatitudeDegrees>
              <LongitudeDegrees>-4.482463784515857696533203125</LongitudeDegrees>
            </Position>
            <AltitudeMeters>7.80000019073486328125</AltitudeMeters>
            <DistanceMeters>NAN</DistanceMeters>
          </Trackpoint>
          <Trackpoint>
            <Time>2022-07-15T09:03:59.000Z</Time>
            <Position>
              <LatitudeDegrees>43.3699386008083820343017578125</LatitudeDegrees>
              <LongitudeDegrees>-4.48233671486377716064453125</LongitudeDegrees>
            </Position>
            <AltitudeMeters>7.80000019073486328125</AltitudeMeters>
            <DistanceMeters>NAN</DistanceMeters>
          </Trackpoint>
          <Trackpoint>
            <Time>2022-07-15T09:04:03.000Z</Time>
            <Position>
              <LatitudeDegrees>43.36996584199368953704833984375</LatitudeDegrees>
              <LongitudeDegrees>-4.4821749441325664520263671875</LongitudeDegrees>
            </Position>
            <AltitudeMeters>7.599999904632568359375</AltitudeMeters>
            <DistanceMeters>NAN</DistanceMeters>
          </Trackpoint>
          <Trackpoint>
            <Time>2022-07-15T09:04:09.000Z</Time>
            <Position>
              <LatitudeDegrees>43.37000691331923007965087890625</LatitudeDegrees>
              <LongitudeDegrees>-4.48192633688449859619140625</LongitudeDegrees>
            </Position>
            <AltitudeMeters>7.400000095367431640625</AltitudeMeters>
            <DistanceMeters>NAN</DistanceMeters>
          </Trackpoint>
          <Trackpoint>
            <Time>2022-07-15T09:04:13.000Z</Time>
            <Position>
              <LatitudeDegrees>43.37001822888851165771484375</LatitudeDegrees>
              <LongitudeDegrees>-4.48179884813725948333740234375</LongitudeDegrees>
            </Position>
            <AltitudeMeters>7.19999980926513671875</AltitudeMeters>
            <DistanceMeters>NAN</DistanceMeters>
          </Trackpoint>
          <Trackpoint>
            <Time>2022-07-15T09:04:14.000Z</Time>
            <Position>
              <LatitudeDegrees>43.37002937681972980499267578125</LatitudeDegrees>
              <LongitudeDegrees>-4.48175794444978237152099609375</LongitudeDegrees>
            </Position>
            <AltitudeMeters>7.19999980926513671875</AltitudeMeters>
            <DistanceMeters>NAN</DistanceMeters>
          </Trackpoint>
          <Trackpoint>
            <Time>2022-07-15T09:04:16.000Z</Time>
            <Position>
              <LatitudeDegrees>43.37005670182406902313232421875</LatitudeDegrees>
              <LongitudeDegrees>-4.48167798109352588653564453125</LongitudeDegrees>
            </Position>
            <AltitudeMeters>7.400000095367431640625</AltitudeMeters>
            <DistanceMeters>NAN</DistanceMeters>
          </Trackpoint>
          <Trackpoint>
            <Time>2022-07-15T09:04:19.000Z</Time>
            <Position>
              <LatitudeDegrees>43.37009442038834095001220703125</LatitudeDegrees>
              <LongitudeDegrees>-4.4815246760845184326171875</LongitudeDegrees>
            </Position>
            <AltitudeMeters>7.400000095367431640625</AltitudeMeters>
            <DistanceMeters>NAN</DistanceMeters>
          </Trackpoint>
          <Trackpoint>
            <Time>2022-07-15T09:04:23.000Z</Time>
            <Position>
              <LatitudeDegrees>43.370160721242427825927734375</LatitudeDegrees>
              <LongitudeDegrees>-4.4813236780464649200439453125</LongitudeDegrees>
            </Position>
            <AltitudeMeters>7.19999980926513671875</AltitudeMeters>
            <DistanceMeters>NAN</DistanceMeters>
          </Trackpoint>
          <Trackpoint>
            <Time>2022-07-15T09:04:29.000Z</Time>
            <Position>
              <LatitudeDegrees>43.370225094258785247802734375</LatitudeDegrees>
              <LongitudeDegrees>-4.481032155454158782958984375</LongitudeDegrees>
            </Position>
            <AltitudeMeters>7.400000095367431640625</AltitudeMeters>
            <DistanceMeters>NAN</DistanceMeters>
          </Trackpoint>
          <Trackpoint>
            <Time>2022-07-15T09:04:36.000Z</Time>
            <Position>
              <LatitudeDegrees>43.37029994465410709381103515625</LatitudeDegrees>
              <LongitudeDegrees>-4.480699561536312103271484375</LongitudeDegrees>
            </Position>
            <AltitudeMeters>7.599999904632568359375</AltitudeMeters>
            <DistanceMeters>NAN</DistanceMeters>
          </Trackpoint>
          <Trackpoint>
            <Time>2022-07-15T09:04:43.000Z</Time>
            <Position>
              <LatitudeDegrees>43.37037839926779270172119140625</LatitudeDegrees>
              <LongitudeDegrees>-4.48039890266954898834228515625</LongitudeDegrees>
            </Position>
            <AltitudeMeters>7.599999904632568359375</AltitudeMeters>
            <DistanceMeters>NAN</DistanceMeters>
          </Trackpoint>
          <Trackpoint>
            <Time>2022-07-15T09:04:44.000Z</Time>
            <Position>
              <LatitudeDegrees>43.37038979865610599517822265625</LatitudeDegrees>
              <LongitudeDegrees>-4.480360262095928192138671875</LongitudeDegrees>
            </Position>
            <AltitudeMeters>7.599999904632568359375</AltitudeMeters>
            <DistanceMeters>NAN</DistanceMeters>
          </Trackpoint>
          <Trackpoint>
            <Time>2022-07-15T09:04:53.000Z</Time>
            <Position>
              <LatitudeDegrees>43.37046925909817218780517578125</LatitudeDegrees>
              <LongitudeDegrees>-4.480016268789768218994140625</LongitudeDegrees>
            </Position>
            <AltitudeMeters>8.3999996185302734375</AltitudeMeters>
            <DistanceMeters>NAN</DistanceMeters>
          </Trackpoint>
          <Trackpoint>
            <Time>2022-07-15T09:04:57.000Z</Time>
            <Position>
              <LatitudeDegrees>43.37050144560635089874267578125</LatitudeDegrees>
              <LongitudeDegrees>-4.47989447973668575286865234375</LongitudeDegrees>
            </Position>
            <AltitudeMeters>8.6000003814697265625</AltitudeMeters>
            <DistanceMeters>NAN</DistanceMeters>
          </Trackpoint>
          <Trackpoint>
            <Time>2022-07-15T09:05:00.000Z</Time>
            <Position>
              <LatitudeDegrees>43.370523490011692047119140625</LatitudeDegrees>
              <LongitudeDegrees>-4.47979825548827648162841796875</LongitudeDegrees>
            </Position>
            <AltitudeMeters>8.80000019073486328125</AltitudeMeters>
            <DistanceMeters>NAN</DistanceMeters>
          </Trackpoint>
          <Trackpoint>
            <Time>2022-07-15T09:05:02.000Z</Time>
            <Position>
              <LatitudeDegrees>43.3705313690006732940673828125</LatitudeDegrees>
              <LongitudeDegrees>-4.47973840869963169097900390625</LongitudeDegrees>
            </Position>
            <AltitudeMeters>9</AltitudeMeters>
            <DistanceMeters>NAN</DistanceMeters>
          </Trackpoint>
          <Trackpoint>
            <Time>2022-07-15T09:05:03.000Z</Time>
            <Position>
              <LatitudeDegrees>43.3705367334187030792236328125</LatitudeDegrees>
              <LongitudeDegrees>-4.479709826409816741943359375</LongitudeDegrees>
            </Position>
            <AltitudeMeters>9.19999980926513671875</AltitudeMeters>
            <DistanceMeters>NAN</DistanceMeters>
          </Trackpoint>
          <Trackpoint>
            <Time>2022-07-15T09:05:04.000Z</Time>
            <Position>
              <LatitudeDegrees>43.37054285220801830291748046875</LatitudeDegrees>
              <LongitudeDegrees>-4.47968224994838237762451171875</LongitudeDegrees>
            </Position>
            <AltitudeMeters>9.3999996185302734375</AltitudeMeters>
            <DistanceMeters>NAN</DistanceMeters>
          </Trackpoint>
          <Trackpoint>
            <Time>2022-07-15T09:05:05.000Z</Time>
            <Position>
              <LatitudeDegrees>43.370549641549587249755859375</LatitudeDegrees>
              <LongitudeDegrees>-4.4796556793153285980224609375</LongitudeDegrees>
            </Position>
            <AltitudeMeters>9.6000003814697265625</AltitudeMeters>
            <DistanceMeters>NAN</DistanceMeters>
          </Trackpoint>
          <Trackpoint>
            <Time>2022-07-15T09:05:06.000Z</Time>
            <Position>
              <LatitudeDegrees>43.370558358728885650634765625</LatitudeDegrees>
              <LongitudeDegrees>-4.4796265102922916412353515625</LongitudeDegrees>
            </Position>
            <AltitudeMeters>9.6000003814697265625</AltitudeMeters>
            <DistanceMeters>NAN</DistanceMeters>
          </Trackpoint>
          <Trackpoint>
            <Time>2022-07-15T09:05:10.000Z</Time>
            <Position>
              <LatitudeDegrees>43.3705846779048442840576171875</LatitudeDegrees>
              <LongitudeDegrees>-4.4795155338943004608154296875</LongitudeDegrees>
            </Position>
            <AltitudeMeters>9.80000019073486328125</AltitudeMeters>
            <DistanceMeters>NAN</DistanceMeters>
          </Trackpoint>
          <Trackpoint>
            <Time>2022-07-15T09:05:11.000Z</Time>
            <Position>
              <LatitudeDegrees>43.3705915510654449462890625</LatitudeDegrees>
              <LongitudeDegrees>-4.4794860295951366424560546875</LongitudeDegrees>
            </Position>
            <AltitudeMeters>9.80000019073486328125</AltitudeMeters>
            <DistanceMeters>NAN</DistanceMeters>
          </Trackpoint>
          <Trackpoint>
            <Time>2022-07-15T09:05:13.000Z</Time>
            <Position>
              <LatitudeDegrees>43.37060722522437572479248046875</LatitudeDegrees>
              <LongitudeDegrees>-4.47943188250064849853515625</LongitudeDegrees>
            </Position>
            <AltitudeMeters>9.80000019073486328125</AltitudeMeters>
            <DistanceMeters>NAN</DistanceMeters>
          </Trackpoint>
          <Trackpoint>
            <Time>2022-07-15T09:05:16.000Z</Time>
            <Position>
              <LatitudeDegrees>43.3706376515328884124755859375</LatitudeDegrees>
              <LongitudeDegrees>-4.479353092610836029052734375</LongitudeDegrees>
            </Position>
            <AltitudeMeters>10</AltitudeMeters>
            <DistanceMeters>NAN</DistanceMeters>
          </Trackpoint>
          <Trackpoint>
            <Time>2022-07-15T09:05:18.000Z</Time>
            <Position>
              <LatitudeDegrees>43.3706668205559253692626953125</LatitudeDegrees>
              <LongitudeDegrees>-4.4793118536472320556640625</LongitudeDegrees>
            </Position>
            <AltitudeMeters>10.19999980926513671875</AltitudeMeters>
            <DistanceMeters>NAN</DistanceMeters>
          </Trackpoint>
          <Trackpoint>
            <Time>2022-07-15T09:05:19.000Z</Time>
            <Position>
              <LatitudeDegrees>43.37068702094256877899169921875</LatitudeDegrees>
              <LongitudeDegrees>-4.479296766221523284912109375</LongitudeDegrees>
            </Position>
            <AltitudeMeters>10.19999980926513671875</AltitudeMeters>
            <DistanceMeters>NAN</DistanceMeters>
          </Trackpoint>
          <Trackpoint>
            <Time>2022-07-15T09:05:24.000Z</Time>
            <Position>
              <LatitudeDegrees>43.37081325240433216094970703125</LatitudeDegrees>
              <LongitudeDegrees>-4.4793019630014896392822265625</LongitudeDegrees>
            </Position>
            <AltitudeMeters>10.19999980926513671875</AltitudeMeters>
            <DistanceMeters>NAN</DistanceMeters>
          </Trackpoint>
          <Trackpoint>
            <Time>2022-07-15T09:05:33.000Z</Time>
            <Position>
              <LatitudeDegrees>43.3711016736924648284912109375</LatitudeDegrees>
              <LongitudeDegrees>-4.47935636155307292938232421875</LongitudeDegrees>
            </Position>
            <AltitudeMeters>10.6000003814697265625</AltitudeMeters>
            <DistanceMeters>NAN</DistanceMeters>
          </Trackpoint>
          <Trackpoint>
            <Time>2022-07-15T09:05:37.000Z</Time>
            <Position>
              <LatitudeDegrees>43.37122782133519649505615234375</LatitudeDegrees>
              <LongitudeDegrees>-4.47938226163387298583984375</LongitudeDegrees>
            </Position>
            <AltitudeMeters>10.80000019073486328125</AltitudeMeters>
            <DistanceMeters>NAN</DistanceMeters>
          </Trackpoint>
          <Trackpoint>
            <Time>2022-07-15T09:05:43.000Z</Time>
            <Position>
              <LatitudeDegrees>43.37141473777592182159423828125</LatitudeDegrees>
              <LongitudeDegrees>-4.47941419668495655059814453125</LongitudeDegrees>
            </Position>
            <AltitudeMeters>10.6000003814697265625</AltitudeMeters>
            <DistanceMeters>NAN</DistanceMeters>
          </Trackpoint>
          <Trackpoint>
            <Time>2022-07-15T09:05:53.000Z</Time>
            <Position>
              <LatitudeDegrees>43.3717343397438526153564453125</LatitudeDegrees>
              <LongitudeDegrees>-4.4794820062816143035888671875</LongitudeDegrees>
            </Position>
            <AltitudeMeters>10.19999980926513671875</AltitudeMeters>
            <DistanceMeters>NAN</DistanceMeters>
          </Trackpoint>
          <Trackpoint>
            <Time>2022-07-15T09:06:03.000Z</Time>
            <Position>
              <LatitudeDegrees>43.37205536663532257080078125</LatitudeDegrees>
              <LongitudeDegrees>-4.47954327799379825592041015625</LongitudeDegrees>
            </Position>
            <AltitudeMeters>10</AltitudeMeters>
            <DistanceMeters>NAN</DistanceMeters>
          </Trackpoint>
          <Trackpoint>
            <Time>2022-07-15T09:06:06.000Z</Time>
            <Position>
              <LatitudeDegrees>43.3721470646560192108154296875</LatitudeDegrees>
              <LongitudeDegrees>-4.47955735959112644195556640625</LongitudeDegrees>
            </Position>
            <AltitudeMeters>10</AltitudeMeters>
            <DistanceMeters>NAN</DistanceMeters>
          </Trackpoint>
          <Trackpoint>
            <Time>2022-07-15T09:06:11.000Z</Time>
            <Position>
              <LatitudeDegrees>43.3722925744950771331787109375</LatitudeDegrees>
              <LongitudeDegrees>-4.4796073995530605316162109375</LongitudeDegrees>
            </Position>
            <AltitudeMeters>10</AltitudeMeters>
            <DistanceMeters>NAN</DistanceMeters>
          </Trackpoint>
          <Trackpoint>
            <Time>2022-07-15T09:06:12.000Z</Time>
            <Position>
              <LatitudeDegrees>43.37231495417654514312744140625</LatitudeDegrees>
              <LongitudeDegrees>-4.47961628437042236328125</LongitudeDegrees>
            </Position>
            <AltitudeMeters>10</AltitudeMeters>
            <DistanceMeters>NAN</DistanceMeters>
          </Trackpoint>
          <Trackpoint>
            <Time>2022-07-15T09:06:15.000Z</Time>
            <Position>
              <LatitudeDegrees>43.37237563915550708770751953125</LatitudeDegrees>
              <LongitudeDegrees>-4.47965609841048717498779296875</LongitudeDegrees>
            </Position>
            <AltitudeMeters>10</AltitudeMeters>
            <DistanceMeters>NAN</DistanceMeters>
          </Trackpoint>
          <Trackpoint>
            <Time>2022-07-15T09:06:16.000Z</Time>
            <Position>
              <LatitudeDegrees>43.372378908097743988037109375</LatitudeDegrees>
              <LongitudeDegrees>-4.479687027633190155029296875</LongitudeDegrees>
            </Position>
            <AltitudeMeters>10</AltitudeMeters>
            <DistanceMeters>NAN</DistanceMeters>
          </Trackpoint>
          <Trackpoint>
            <Time>2022-07-15T09:06:19.000Z</Time>
            <Position>
              <LatitudeDegrees>43.37235585786402225494384765625</LatitudeDegrees>
              <LongitudeDegrees>-4.47984318248927593231201171875</LongitudeDegrees>
            </Position>
            <AltitudeMeters>9.6000003814697265625</AltitudeMeters>
            <DistanceMeters>NAN</DistanceMeters>
          </Trackpoint>
          <Trackpoint>
            <Time>2022-07-15T09:06:20.000Z</Time>
            <Position>
              <LatitudeDegrees>43.37233741767704486846923828125</LatitudeDegrees>
              <LongitudeDegrees>-4.4799051247537136077880859375</LongitudeDegrees>
            </Position>
            <AltitudeMeters>9.3999996185302734375</AltitudeMeters>
            <DistanceMeters>NAN</DistanceMeters>
          </Trackpoint>
          <Trackpoint>
            <Time>2022-07-15T09:06:21.000Z</Time>
            <Position>
              <LatitudeDegrees>43.37231763638556003570556640625</LatitudeDegrees>
              <LongitudeDegrees>-4.4799738563597202301025390625</LongitudeDegrees>
            </Position>
            <AltitudeMeters>9.19999980926513671875</AltitudeMeters>
            <DistanceMeters>NAN</DistanceMeters>
          </Trackpoint>
          <Trackpoint>
            <Time>2022-07-15T09:06:26.000Z</Time>
            <Position>
              <LatitudeDegrees>43.37220347486436367034912109375</LatitudeDegrees>
              <LongitudeDegrees>-4.48036034591495990753173828125</LongitudeDegrees>
            </Position>
            <AltitudeMeters>8</AltitudeMeters>
            <DistanceMeters>NAN</DistanceMeters>
          </Trackpoint>
          <Trackpoint>
            <Time>2022-07-15T09:06:28.000Z</Time>
            <Position>
              <LatitudeDegrees>43.37217874825000762939453125</LatitudeDegrees>
              <LongitudeDegrees>-4.48047132231295108795166015625</LongitudeDegrees>
            </Position>
            <AltitudeMeters>7.80000019073486328125</AltitudeMeters>
            <DistanceMeters>NAN</DistanceMeters>
          </Trackpoint>
          <Trackpoint>
            <Time>2022-07-15T09:06:30.000Z</Time>
            <Position>
              <LatitudeDegrees>43.37216458283364772796630859375</LatitudeDegrees>
              <LongitudeDegrees>-4.48055681772530078887939453125</LongitudeDegrees>
            </Position>
            <AltitudeMeters>7.80000019073486328125</AltitudeMeters>
            <DistanceMeters>NAN</DistanceMeters>
          </Trackpoint>
          <Trackpoint>
            <Time>2022-07-15T09:06:35.000Z</Time>
            <Position>
              <LatitudeDegrees>43.37214228697121143341064453125</LatitudeDegrees>
              <LongitudeDegrees>-4.48066393844783306121826171875</LongitudeDegrees>
            </Position>
            <AltitudeMeters>8.80000019073486328125</AltitudeMeters>
            <DistanceMeters>NAN</DistanceMeters>
          </Trackpoint>
          <Trackpoint>
            <Time>2022-07-15T09:06:37.000Z</Time>
            <Position>
              <LatitudeDegrees>43.37213641963899135589599609375</LatitudeDegrees>
              <LongitudeDegrees>-4.48069646023213863372802734375</LongitudeDegrees>
            </Position>
            <AltitudeMeters>9.19999980926513671875</AltitudeMeters>
            <DistanceMeters>NAN</DistanceMeters>
          </Trackpoint>
          <Trackpoint>
            <Time>2022-07-15T09:06:41.000Z</Time>
            <Position>
              <LatitudeDegrees>43.37214195169508457183837890625</LatitudeDegrees>
              <LongitudeDegrees>-4.4807607494294643402099609375</LongitudeDegrees>
            </Position>
            <AltitudeMeters>9.80000019073486328125</AltitudeMeters>
            <DistanceMeters>NAN</DistanceMeters>
          </Trackpoint>
          <Trackpoint>
            <Time>2022-07-15T09:06:45.000Z</Time>
            <Position>
              <LatitudeDegrees>43.3721373416483402252197265625</LatitudeDegrees>
              <LongitudeDegrees>-4.48083878494799137115478515625</LongitudeDegrees>
            </Position>
            <AltitudeMeters>10.19999980926513671875</AltitudeMeters>
            <DistanceMeters>NAN</DistanceMeters>
          </Trackpoint>
          <Trackpoint>
            <Time>2022-07-15T09:06:47.000Z</Time>
            <Position>
              <LatitudeDegrees>43.37213759310543537139892578125</LatitudeDegrees>
              <LongitudeDegrees>-4.48088387958705425262451171875</LongitudeDegrees>
            </Position>
            <AltitudeMeters>10.6000003814697265625</AltitudeMeters>
            <DistanceMeters>NAN</DistanceMeters>
          </Trackpoint>
          <Trackpoint>
            <Time>2022-07-15T09:06:51.000Z</Time>
            <Position>
              <LatitudeDegrees>43.372134827077388763427734375</LatitudeDegrees>
              <LongitudeDegrees>-4.48095311410725116729736328125</LongitudeDegrees>
            </Position>
            <AltitudeMeters>11.3999996185302734375</AltitudeMeters>
            <DistanceMeters>NAN</DistanceMeters>
          </Trackpoint>
          <Trackpoint>
            <Time>2022-07-15T09:06:54.000Z</Time>
            <Position>
              <LatitudeDegrees>43.37213994003832340240478515625</LatitudeDegrees>
              <LongitudeDegrees>-4.4810031540691852569580078125</LongitudeDegrees>
            </Position>
            <AltitudeMeters>12</AltitudeMeters>
            <DistanceMeters>NAN</DistanceMeters>
          </Trackpoint>
          <Trackpoint>
            <Time>2022-07-15T09:06:59.000Z</Time>
            <Position>
              <LatitudeDegrees>43.372143208980560302734375</LatitudeDegrees>
              <LongitudeDegrees>-4.48109661228954792022705078125</LongitudeDegrees>
            </Position>
            <AltitudeMeters>12.3999996185302734375</AltitudeMeters>
            <DistanceMeters>NAN</DistanceMeters>
          </Trackpoint>
          <Trackpoint>
            <Time>2022-07-15T09:07:04.000Z</Time>
            <Position>
              <LatitudeDegrees>43.37213071994483470916748046875</LatitudeDegrees>
              <LongitudeDegrees>-4.48119199834764003753662109375</LongitudeDegrees>
            </Position>
            <AltitudeMeters>13.3999996185302734375</AltitudeMeters>
            <DistanceMeters>NAN</DistanceMeters>
          </Trackpoint>
          <Trackpoint>
            <Time>2022-07-15T09:07:06.000Z</Time>
            <Position>
              <LatitudeDegrees>43.37212602607905864715576171875</LatitudeDegrees>
              <LongitudeDegrees>-4.4812204129993915557861328125</LongitudeDegrees>
            </Position>
            <AltitudeMeters>13.6000003814697265625</AltitudeMeters>
            <DistanceMeters>NAN</DistanceMeters>
          </Trackpoint>
          <Trackpoint>
            <Time>2022-07-15T09:07:08.000Z</Time>
            <Position>
              <LatitudeDegrees>43.3721232600510120391845703125</LatitudeDegrees>
              <LongitudeDegrees>-4.48125846683979034423828125</LongitudeDegrees>
            </Position>
            <AltitudeMeters>13.80000019073486328125</AltitudeMeters>
            <DistanceMeters>NAN</DistanceMeters>
          </Trackpoint>
          <Trackpoint>
            <Time>2022-07-15T09:07:09.000Z</Time>
            <Position>
              <LatitudeDegrees>43.37212267331779003143310546875</LatitudeDegrees>
              <LongitudeDegrees>-4.4812784157693386077880859375</LongitudeDegrees>
            </Position>
            <AltitudeMeters>14</AltitudeMeters>
            <DistanceMeters>NAN</DistanceMeters>
          </Trackpoint>
          <Trackpoint>
            <Time>2022-07-15T09:07:11.000Z</Time>
            <Position>
              <LatitudeDegrees>43.3721313066780567169189453125</LatitudeDegrees>
              <LongitudeDegrees>-4.48130934499204158782958984375</LongitudeDegrees>
            </Position>
            <AltitudeMeters>14.19999980926513671875</AltitudeMeters>
            <DistanceMeters>NAN</DistanceMeters>
          </Trackpoint>
          <Trackpoint>
            <Time>2022-07-15T09:07:12.000Z</Time>
            <Position>
              <LatitudeDegrees>43.372140191495418548583984375</LatitudeDegrees>
              <LongitudeDegrees>-4.48131923563778400421142578125</LongitudeDegrees>
            </Position>
            <AltitudeMeters>14.19999980926513671875</AltitudeMeters>
            <DistanceMeters>NAN</DistanceMeters>
          </Trackpoint>
          <Trackpoint>
            <Time>2022-07-15T09:07:14.000Z</Time>
            <Position>
              <LatitudeDegrees>43.372143544256687164306640625</LatitudeDegrees>
              <LongitudeDegrees>-4.4813421182334423065185546875</LongitudeDegrees>
            </Position>
            <AltitudeMeters>14.3999996185302734375</AltitudeMeters>
            <DistanceMeters>NAN</DistanceMeters>
          </Trackpoint>
          <Trackpoint>
            <Time>2022-07-15T09:07:16.000Z</Time>
            <Position>
              <LatitudeDegrees>43.3721339888870716094970703125</LatitudeDegrees>
              <LongitudeDegrees>-4.481369443237781524658203125</LongitudeDegrees>
            </Position>
            <AltitudeMeters>14.6000003814697265625</AltitudeMeters>
            <DistanceMeters>NAN</DistanceMeters>
          </Trackpoint>
          <Trackpoint>
            <Time>2022-07-15T09:07:17.000Z</Time>
            <Position>
              <LatitudeDegrees>43.372129462659358978271484375</LatitudeDegrees>
              <LongitudeDegrees>-4.48138394393026828765869140625</LongitudeDegrees>
            </Position>
            <AltitudeMeters>14.80000019073486328125</AltitudeMeters>
            <DistanceMeters>NAN</DistanceMeters>
          </Trackpoint>
          <Trackpoint>
            <Time>2022-07-15T09:07:21.000Z</Time>
            <Position>
              <LatitudeDegrees>43.37212200276553630828857421875</LatitudeDegrees>
              <LongitudeDegrees>-4.48144831694662570953369140625</LongitudeDegrees>
            </Position>
            <AltitudeMeters>15.3999996185302734375</AltitudeMeters>
            <DistanceMeters>NAN</DistanceMeters>
          </Trackpoint>
          <Trackpoint>
            <Time>2022-07-15T09:07:23.000Z</Time>
            <Position>
              <LatitudeDegrees>43.37211965583264827728271484375</LatitudeDegrees>
              <LongitudeDegrees>-4.48148067109286785125732421875</LongitudeDegrees>
            </Position>
            <AltitudeMeters>15.80000019073486328125</AltitudeMeters>
            <DistanceMeters>NAN</DistanceMeters>
          </Trackpoint>
          <Trackpoint>
            <Time>2022-07-15T09:07:25.000Z</Time>
            <Position>
              <LatitudeDegrees>43.37211663834750652313232421875</LatitudeDegrees>
              <LongitudeDegrees>-4.48152291588485240936279296875</LongitudeDegrees>
            </Position>
            <AltitudeMeters>16</AltitudeMeters>
            <DistanceMeters>NAN</DistanceMeters>
          </Trackpoint>
          <Trackpoint>
            <Time>2022-07-15T09:07:30.000Z</Time>
            <Position>
              <LatitudeDegrees>43.37210741825401782989501953125</LatitudeDegrees>
              <LongitudeDegrees>-4.481607489287853240966796875</LongitudeDegrees>
            </Position>
            <AltitudeMeters>16.799999237060546875</AltitudeMeters>
            <DistanceMeters>NAN</DistanceMeters>
          </Trackpoint>
          <Trackpoint>
            <Time>2022-07-15T09:07:32.000Z</Time>
            <Position>
              <LatitudeDegrees>43.3721011318266391754150390625</LatitudeDegrees>
              <LongitudeDegrees>-4.48163908906280994415283203125</LongitudeDegrees>
            </Position>
            <AltitudeMeters>17.200000762939453125</AltitudeMeters>
            <DistanceMeters>NAN</DistanceMeters>
          </Trackpoint>
          <Trackpoint>
            <Time>2022-07-15T09:07:36.000Z</Time>
            <Position>
              <LatitudeDegrees>43.3721028082072734832763671875</LatitudeDegrees>
              <LongitudeDegrees>-4.48172056116163730621337890625</LongitudeDegrees>
            </Position>
            <AltitudeMeters>18</AltitudeMeters>
            <DistanceMeters>NAN</DistanceMeters>
          </Trackpoint>
          <Trackpoint>
            <Time>2022-07-15T09:07:38.000Z</Time>
            <Position>
              <LatitudeDegrees>43.3720989525318145751953125</LatitudeDegrees>
              <LongitudeDegrees>-4.48175911791622638702392578125</LongitudeDegrees>
            </Position>
            <AltitudeMeters>18.200000762939453125</AltitudeMeters>
            <DistanceMeters>NAN</DistanceMeters>
          </Trackpoint>
          <Trackpoint>
            <Time>2022-07-15T09:07:39.000Z</Time>
            <Position>
              <LatitudeDegrees>43.372096605598926544189453125</LatitudeDegrees>
              <LongitudeDegrees>-4.4817809946835041046142578125</LongitudeDegrees>
            </Position>
            <AltitudeMeters>18.3999996185302734375</AltitudeMeters>
            <DistanceMeters>NAN</DistanceMeters>
          </Trackpoint>
          <Trackpoint>
            <Time>2022-07-15T09:07:42.000Z</Time>
            <Position>
              <LatitudeDegrees>43.37208344601094722747802734375</LatitudeDegrees>
              <LongitudeDegrees>-4.48183111846446990966796875</LongitudeDegrees>
            </Position>
            <AltitudeMeters>19</AltitudeMeters>
            <DistanceMeters>NAN</DistanceMeters>
          </Trackpoint>
          <Trackpoint>
            <Time>2022-07-15T09:07:43.000Z</Time>
            <Position>
              <LatitudeDegrees>43.3720779977738857269287109375</LatitudeDegrees>
              <LongitudeDegrees>-4.4818520732223987579345703125</LongitudeDegrees>
            </Position>
            <AltitudeMeters>19.200000762939453125</AltitudeMeters>
            <DistanceMeters>NAN</DistanceMeters>
          </Trackpoint>
          <Trackpoint>
            <Time>2022-07-15T09:07:44.000Z</Time>
            <Position>
              <LatitudeDegrees>43.372081182897090911865234375</LatitudeDegrees>
              <LongitudeDegrees>-4.48187344707548618316650390625</LongitudeDegrees>
            </Position>
            <AltitudeMeters>19.200000762939453125</AltitudeMeters>
            <DistanceMeters>NAN</DistanceMeters>
          </Trackpoint>
          <Trackpoint>
            <Time>2022-07-15T09:07:46.000Z</Time>
            <Position>
              <LatitudeDegrees>43.3720833621919155120849609375</LatitudeDegrees>
              <LongitudeDegrees>-4.4819067232310771942138671875</LongitudeDegrees>
            </Position>
            <AltitudeMeters>19.6000003814697265625</AltitudeMeters>
            <DistanceMeters>NAN</DistanceMeters>
          </Trackpoint>
          <Trackpoint>
            <Time>2022-07-15T09:07:47.000Z</Time>
            <Position>
              <LatitudeDegrees>43.372083865106105804443359375</LatitudeDegrees>
              <LongitudeDegrees>-4.4819254986941814422607421875</LongitudeDegrees>
            </Position>
            <AltitudeMeters>19.799999237060546875</AltitudeMeters>
            <DistanceMeters>NAN</DistanceMeters>
          </Trackpoint>
          <Trackpoint>
            <Time>2022-07-15T09:07:48.000Z</Time>
            <Position>
              <LatitudeDegrees>43.3720823563635349273681640625</LatitudeDegrees>
              <LongitudeDegrees>-4.481938071548938751220703125</LongitudeDegrees>
            </Position>
            <AltitudeMeters>20</AltitudeMeters>
            <DistanceMeters>NAN</DistanceMeters>
          </Trackpoint>
          <Trackpoint>
            <Time>2022-07-15T09:07:51.000Z</Time>
            <Position>
              <LatitudeDegrees>43.37207087315618991851806640625</LatitudeDegrees>
              <LongitudeDegrees>-4.4819868542253971099853515625</LongitudeDegrees>
            </Position>
            <AltitudeMeters>20.3999996185302734375</AltitudeMeters>
            <DistanceMeters>NAN</DistanceMeters>
          </Trackpoint>
          <Trackpoint>
            <Time>2022-07-15T09:07:53.000Z</Time>
            <Position>
              <LatitudeDegrees>43.3720640838146209716796875</LatitudeDegrees>
              <LongitudeDegrees>-4.482011832296848297119140625</LongitudeDegrees>
            </Position>
            <AltitudeMeters>21</AltitudeMeters>
            <DistanceMeters>NAN</DistanceMeters>
          </Trackpoint>
          <Trackpoint>
            <Time>2022-07-15T09:07:54.000Z</Time>
            <Position>
              <LatitudeDegrees>43.3720608986914157867431640625</LatitudeDegrees>
              <LongitudeDegrees>-4.4820262491703033447265625</LongitudeDegrees>
            </Position>
            <AltitudeMeters>21</AltitudeMeters>
            <DistanceMeters>NAN</DistanceMeters>
          </Trackpoint>
          <Trackpoint>
            <Time>2022-07-15T09:07:56.000Z</Time>
            <Position>
              <LatitudeDegrees>43.37205830030143260955810546875</LatitudeDegrees>
              <LongitudeDegrees>-4.4820441864430904388427734375</LongitudeDegrees>
            </Position>
            <AltitudeMeters>21.3999996185302734375</AltitudeMeters>
            <DistanceMeters>NAN</DistanceMeters>
          </Trackpoint>
          <Trackpoint>
            <Time>2022-07-15T09:07:58.000Z</Time>
            <Position>
              <LatitudeDegrees>43.372052013874053955078125</LatitudeDegrees>
              <LongitudeDegrees>-4.48204913176596164703369140625</LongitudeDegrees>
            </Position>
            <AltitudeMeters>21.799999237060546875</AltitudeMeters>
            <DistanceMeters>NAN</DistanceMeters>
          </Trackpoint>
          <Trackpoint>
            <Time>2022-07-15T09:07:59.000Z</Time>
            <Position>
              <LatitudeDegrees>43.3720538578927516937255859375</LatitudeDegrees>
              <LongitudeDegrees>-4.482057429850101470947265625</LongitudeDegrees>
            </Position>
            <AltitudeMeters>21.799999237060546875</AltitudeMeters>
            <DistanceMeters>NAN</DistanceMeters>
          </Trackpoint>
          <Trackpoint>
            <Time>2022-07-15T09:08:01.000Z</Time>
            <Position>
              <LatitudeDegrees>43.372053690254688262939453125</LatitudeDegrees>
              <LongitudeDegrees>-4.48208550922572612762451171875</LongitudeDegrees>
            </Position>
            <AltitudeMeters>22</AltitudeMeters>
            <DistanceMeters>NAN</DistanceMeters>
          </Trackpoint>
          <Trackpoint>
            <Time>2022-07-15T09:08:02.000Z</Time>
            <Position>
              <LatitudeDegrees>43.37204975076019763946533203125</LatitudeDegrees>
              <LongitudeDegrees>-4.48209539987146854400634765625</LongitudeDegrees>
            </Position>
            <AltitudeMeters>22.200000762939453125</AltitudeMeters>
            <DistanceMeters>NAN</DistanceMeters>
          </Trackpoint>
          <Trackpoint>
            <Time>2022-07-15T09:08:03.000Z</Time>
            <Position>
              <LatitudeDegrees>43.37204505689442157745361328125</LatitudeDegrees>
              <LongitudeDegrees>-4.48211736045777797698974609375</LongitudeDegrees>
            </Position>
            <AltitudeMeters>22.3999996185302734375</AltitudeMeters>
            <DistanceMeters>NAN</DistanceMeters>
          </Trackpoint>
          <Trackpoint>
            <Time>2022-07-15T09:08:04.000Z</Time>
            <Position>
              <LatitudeDegrees>43.37204421870410442352294921875</LatitudeDegrees>
              <LongitudeDegrees>-4.4821414165198802947998046875</LongitudeDegrees>
            </Position>
            <AltitudeMeters>22.799999237060546875</AltitudeMeters>
            <DistanceMeters>NAN</DistanceMeters>
          </Trackpoint>
          <Trackpoint>
            <Time>2022-07-15T09:08:07.000Z</Time>
            <Position>
              <LatitudeDegrees>43.372038267552852630615234375</LatitudeDegrees>
              <LongitudeDegrees>-4.48219832964241504669189453125</LongitudeDegrees>
            </Position>
            <AltitudeMeters>23.200000762939453125</AltitudeMeters>
            <DistanceMeters>NAN</DistanceMeters>
          </Trackpoint>
          <Trackpoint>
            <Time>2022-07-15T09:08:08.000Z</Time>
            <Position>
              <LatitudeDegrees>43.372036926448345184326171875</LatitudeDegrees>
              <LongitudeDegrees>-4.4822145067155361175537109375</LongitudeDegrees>
            </Position>
            <AltitudeMeters>23.200000762939453125</AltitudeMeters>
            <DistanceMeters>NAN</DistanceMeters>
          </Trackpoint>
          <Trackpoint>
            <Time>2022-07-15T09:08:09.000Z</Time>
            <Position>
              <LatitudeDegrees>43.37203399278223514556884765625</LatitudeDegrees>
              <LongitudeDegrees>-4.4822327792644500732421875</LongitudeDegrees>
            </Position>
            <AltitudeMeters>23.3999996185302734375</AltitudeMeters>
            <DistanceMeters>NAN</DistanceMeters>
          </Trackpoint>
          <Trackpoint>
            <Time>2022-07-15T09:08:11.000Z</Time>
            <Position>
              <LatitudeDegrees>43.3720340766012668609619140625</LatitudeDegrees>
              <LongitudeDegrees>-4.482259936630725860595703125</LongitudeDegrees>
            </Position>
            <AltitudeMeters>23.799999237060546875</AltitudeMeters>
            <DistanceMeters>NAN</DistanceMeters>
          </Trackpoint>
          <Trackpoint>
            <Time>2022-07-15T09:08:14.000Z</Time>
            <Position>
              <LatitudeDegrees>43.37203717790544033050537109375</LatitudeDegrees>
              <LongitudeDegrees>-4.4822818972170352935791015625</LongitudeDegrees>
            </Position>
            <AltitudeMeters>24</AltitudeMeters>
            <DistanceMeters>NAN</DistanceMeters>
          </Trackpoint>
          <Trackpoint>
            <Time>2022-07-15T09:08:15.000Z</Time>
            <Position>
              <LatitudeDegrees>43.37203633971512317657470703125</LatitudeDegrees>
              <LongitudeDegrees>-4.48229916393756866455078125</LongitudeDegrees>
            </Position>
            <AltitudeMeters>24</AltitudeMeters>
            <DistanceMeters>NAN</DistanceMeters>
          </Trackpoint>
          <Trackpoint>
            <Time>2022-07-15T09:08:16.000Z</Time>
            <Position>
              <LatitudeDegrees>43.37203851900994777679443359375</LatitudeDegrees>
              <LongitudeDegrees>-4.4823181070387363433837890625</LongitudeDegrees>
            </Position>
            <AltitudeMeters>24.200000762939453125</AltitudeMeters>
            <DistanceMeters>NAN</DistanceMeters>
          </Trackpoint>
          <Trackpoint>
            <Time>2022-07-15T09:08:19.000Z</Time>
            <Position>
              <LatitudeDegrees>43.3720461465418338775634765625</LatitudeDegrees>
              <LongitudeDegrees>-4.48238097131252288818359375</LongitudeDegrees>
            </Position>
            <AltitudeMeters>24.799999237060546875</AltitudeMeters>
            <DistanceMeters>NAN</DistanceMeters>
          </Trackpoint>
          <Trackpoint>
            <Time>2022-07-15T09:08:21.000Z</Time>
            <Position>
              <LatitudeDegrees>43.372057043015956878662109375</LatitudeDegrees>
              <LongitudeDegrees>-4.48240385390818119049072265625</LongitudeDegrees>
            </Position>
            <AltitudeMeters>25</AltitudeMeters>
            <DistanceMeters>NAN</DistanceMeters>
          </Trackpoint>
          <Trackpoint>
            <Time>2022-07-15T09:08:22.000Z</Time>
            <Position>
              <LatitudeDegrees>43.372060395777225494384765625</LatitudeDegrees>
              <LongitudeDegrees>-4.48241986334323883056640625</LongitudeDegrees>
            </Position>
            <AltitudeMeters>25.200000762939453125</AltitudeMeters>
            <DistanceMeters>NAN</DistanceMeters>
          </Trackpoint>
          <Trackpoint>
            <Time>2022-07-15T09:08:24.000Z</Time>
            <Position>
              <LatitudeDegrees>43.37206115014851093292236328125</LatitudeDegrees>
              <LongitudeDegrees>-4.4824446737766265869140625</LongitudeDegrees>
            </Position>
            <AltitudeMeters>25.6000003814697265625</AltitudeMeters>
            <DistanceMeters>NAN</DistanceMeters>
          </Trackpoint>
          <Trackpoint>
            <Time>2022-07-15T09:08:28.000Z</Time>
            <Position>
              <LatitudeDegrees>43.3720511756837368011474609375</LatitudeDegrees>
              <LongitudeDegrees>-4.48250259272754192352294921875</LongitudeDegrees>
            </Position>
            <AltitudeMeters>26.3999996185302734375</AltitudeMeters>
            <DistanceMeters>NAN</DistanceMeters>
          </Trackpoint>
          <Trackpoint>
            <Time>2022-07-15T09:08:34.000Z</Time>
            <Position>
              <LatitudeDegrees>43.37206852622330188751220703125</LatitudeDegrees>
              <LongitudeDegrees>-4.48260820470750331878662109375</LongitudeDegrees>
            </Position>
            <AltitudeMeters>27.6000003814697265625</AltitudeMeters>
            <DistanceMeters>NAN</DistanceMeters>
          </Trackpoint>
          <Trackpoint>
            <Time>2022-07-15T09:08:36.000Z</Time>
            <Position>
              <LatitudeDegrees>43.37206517346203327178955078125</LatitudeDegrees>
              <LongitudeDegrees>-4.48262639343738555908203125</LongitudeDegrees>
            </Position>
            <AltitudeMeters>27.799999237060546875</AltitudeMeters>
            <DistanceMeters>NAN</DistanceMeters>
          </Trackpoint>
          <Trackpoint>
            <Time>2022-07-15T09:08:40.000Z</Time>
            <Position>
              <LatitudeDegrees>43.37207053788006305694580078125</LatitudeDegrees>
              <LongitudeDegrees>-4.48270258493721485137939453125</LongitudeDegrees>
            </Position>
            <AltitudeMeters>28.799999237060546875</AltitudeMeters>
            <DistanceMeters>NAN</DistanceMeters>
          </Trackpoint>
          <Trackpoint>
            <Time>2022-07-15T09:08:42.000Z</Time>
            <Position>
              <LatitudeDegrees>43.37208126671612262725830078125</LatitudeDegrees>
              <LongitudeDegrees>-4.4827315025031566619873046875</LongitudeDegrees>
            </Position>
            <AltitudeMeters>29.200000762939453125</AltitudeMeters>
            <DistanceMeters>NAN</DistanceMeters>
          </Trackpoint>
          <Trackpoint>
            <Time>2022-07-15T09:08:43.000Z</Time>
            <Position>
              <LatitudeDegrees>43.37208126671612262725830078125</LatitudeDegrees>
              <LongitudeDegrees>-4.48274784721434116363525390625</LongitudeDegrees>
            </Position>
            <AltitudeMeters>29.200000762939453125</AltitudeMeters>
            <DistanceMeters>NAN</DistanceMeters>
          </Trackpoint>
          <Trackpoint>
            <Time>2022-07-15T09:08:45.000Z</Time>
            <Position>
              <LatitudeDegrees>43.37207305245101451873779296875</LatitudeDegrees>
              <LongitudeDegrees>-4.482788331806659698486328125</LongitudeDegrees>
            </Position>
            <AltitudeMeters>29.6000003814697265625</AltitudeMeters>
            <DistanceMeters>NAN</DistanceMeters>
          </Trackpoint>
          <Trackpoint>
            <Time>2022-07-15T09:08:46.000Z</Time>
            <Position>
              <LatitudeDegrees>43.3720694482326507568359375</LatitudeDegrees>
              <LongitudeDegrees>-4.48280735872685909271240234375</LongitudeDegrees>
            </Position>
            <AltitudeMeters>29.799999237060546875</AltitudeMeters>
            <DistanceMeters>NAN</DistanceMeters>
          </Trackpoint>
          <Trackpoint>
            <Time>2022-07-15T09:08:47.000Z</Time>
            <Position>
              <LatitudeDegrees>43.37206668220460414886474609375</LatitudeDegrees>
              <LongitudeDegrees>-4.4828283973038196563720703125</LongitudeDegrees>
            </Position>
            <AltitudeMeters>30</AltitudeMeters>
            <DistanceMeters>NAN</DistanceMeters>
          </Trackpoint>
          <Trackpoint>
            <Time>2022-07-15T09:08:50.000Z</Time>
            <Position>
              <LatitudeDegrees>43.37206718511879444122314453125</LatitudeDegrees>
              <LongitudeDegrees>-4.48287391103804111480712890625</LongitudeDegrees>
            </Position>
            <AltitudeMeters>30.799999237060546875</AltitudeMeters>
            <DistanceMeters>NAN</DistanceMeters>
          </Trackpoint>
          <Trackpoint>
            <Time>2022-07-15T09:08:51.000Z</Time>
            <Position>
              <LatitudeDegrees>43.37206785567104816436767578125</LatitudeDegrees>
              <LongitudeDegrees>-4.4828931055963039398193359375</LongitudeDegrees>
            </Position>
            <AltitudeMeters>31</AltitudeMeters>
            <DistanceMeters>NAN</DistanceMeters>
          </Trackpoint>
          <Trackpoint>
            <Time>2022-07-15T09:08:54.000Z</Time>
            <Position>
              <LatitudeDegrees>43.3720588870346546173095703125</LatitudeDegrees>
              <LongitudeDegrees>-4.48294113390147686004638671875</LongitudeDegrees>
            </Position>
            <AltitudeMeters>31.6000003814697265625</AltitudeMeters>
            <DistanceMeters>NAN</DistanceMeters>
          </Trackpoint>
          <Trackpoint>
            <Time>2022-07-15T09:08:57.000Z</Time>
            <Position>
              <LatitudeDegrees>43.37207405827939510345458984375</LatitudeDegrees>
              <LongitudeDegrees>-4.4829891622066497802734375</LongitudeDegrees>
            </Position>
            <AltitudeMeters>32</AltitudeMeters>
            <DistanceMeters>NAN</DistanceMeters>
          </Trackpoint>
          <Trackpoint>
            <Time>2022-07-15T09:09:03.000Z</Time>
            <Position>
              <LatitudeDegrees>43.372119404375553131103515625</LatitudeDegrees>
              <LongitudeDegrees>-4.48309016413986682891845703125</LongitudeDegrees>
            </Position>
            <AltitudeMeters>33</AltitudeMeters>
            <DistanceMeters>NAN</DistanceMeters>
          </Trackpoint>
          <Trackpoint>
            <Time>2022-07-15T09:09:12.000Z</Time>
            <Position>
              <LatitudeDegrees>43.37215804494917392730712890625</LatitudeDegrees>
              <LongitudeDegrees>-4.48325931094586849212646484375</LongitudeDegrees>
            </Position>
            <AltitudeMeters>33.799999237060546875</AltitudeMeters>
            <DistanceMeters>NAN</DistanceMeters>
          </Trackpoint>
          <Trackpoint>
            <Time>2022-07-15T09:09:16.000Z</Time>
            <Position>
              <LatitudeDegrees>43.3721929974853992462158203125</LatitudeDegrees>
              <LongitudeDegrees>-4.48335134424269199371337890625</LongitudeDegrees>
            </Position>
            <AltitudeMeters>34</AltitudeMeters>
            <DistanceMeters>NAN</DistanceMeters>
          </Trackpoint>
          <Trackpoint>
            <Time>2022-07-15T09:09:20.000Z</Time>
            <Position>
              <LatitudeDegrees>43.37222476489841938018798828125</LatitudeDegrees>
              <LongitudeDegrees>-4.4834516756236553192138671875</LongitudeDegrees>
            </Position>
            <AltitudeMeters>34.200000762939453125</AltitudeMeters>
            <DistanceMeters>NAN</DistanceMeters>
          </Trackpoint>
          <Trackpoint>
            <Time>2022-07-15T09:09:21.000Z</Time>
            <Position>
              <LatitudeDegrees>43.372232057154178619384765625</LatitudeDegrees>
              <LongitudeDegrees>-4.48346097953617572784423828125</LongitudeDegrees>
            </Position>
            <AltitudeMeters>34.200000762939453125</AltitudeMeters>
            <DistanceMeters>NAN</DistanceMeters>
          </Trackpoint>
          <Trackpoint>
            <Time>2022-07-15T09:09:22.000Z</Time>
            <Position>
              <LatitudeDegrees>43.3722510002553462982177734375</LatitudeDegrees>
              <LongitudeDegrees>-4.483463577926158905029296875</LongitudeDegrees>
            </Position>
            <AltitudeMeters>34.200000762939453125</AltitudeMeters>
            <DistanceMeters>NAN</DistanceMeters>
          </Trackpoint>
          <Trackpoint>
            <Time>2022-07-15T09:09:24.000Z</Time>
            <Position>
              <LatitudeDegrees>43.3722640760242938995361328125</LatitudeDegrees>
              <LongitudeDegrees>-4.48343507945537567138671875</LongitudeDegrees>
            </Position>
            <AltitudeMeters>34.200000762939453125</AltitudeMeters>
            <DistanceMeters>NAN</DistanceMeters>
          </Trackpoint>
          <Trackpoint>
            <Time>2022-07-15T09:09:26.000Z</Time>
            <Position>
              <LatitudeDegrees>43.37224991060793399810791015625</LatitudeDegrees>
              <LongitudeDegrees>-4.48339442722499370574951171875</LongitudeDegrees>
            </Position>
            <AltitudeMeters>34.200000762939453125</AltitudeMeters>
            <DistanceMeters>NAN</DistanceMeters>
          </Trackpoint>
          <Trackpoint>
            <Time>2022-07-15T09:09:28.000Z</Time>
            <Position>
              <LatitudeDegrees>43.37222845293581485748291015625</LatitudeDegrees>
              <LongitudeDegrees>-4.48338436894118785858154296875</LongitudeDegrees>
            </Position>
            <AltitudeMeters>34.200000762939453125</AltitudeMeters>
            <DistanceMeters>NAN</DistanceMeters>
          </Trackpoint>
          <Trackpoint>
            <Time>2022-07-15T09:09:31.000Z</Time>
            <Position>
              <LatitudeDegrees>43.37222300469875335693359375</LatitudeDegrees>
              <LongitudeDegrees>-4.4833861291408538818359375</LongitudeDegrees>
            </Position>
            <AltitudeMeters>34.200000762939453125</AltitudeMeters>
            <DistanceMeters>NAN</DistanceMeters>
          </Trackpoint>
          <Trackpoint>
            <Time>2022-07-15T09:09:46.000Z</Time>
            <Position>
              <LatitudeDegrees>43.37224169634282588958740234375</LatitudeDegrees>
              <LongitudeDegrees>-4.483460895717144012451171875</LongitudeDegrees>
            </Position>
            <AltitudeMeters>34</AltitudeMeters>
            <DistanceMeters>NAN</DistanceMeters>
          </Trackpoint>
          <Trackpoint>
            <Time>2022-07-15T09:09:47.000Z</Time>
            <Position>
              <LatitudeDegrees>43.37225426919758319854736328125</LatitudeDegrees>
              <LongitudeDegrees>-4.483486376702785491943359375</LongitudeDegrees>
            </Position>
            <AltitudeMeters>34</AltitudeMeters>
            <DistanceMeters>NAN</DistanceMeters>
          </Trackpoint>
          <Trackpoint>
            <Time>2022-07-15T09:09:51.000Z</Time>
            <Position>
              <LatitudeDegrees>43.37229349650442600250244140625</LatitudeDegrees>
              <LongitudeDegrees>-4.48360531590878963470458984375</LongitudeDegrees>
            </Position>
            <AltitudeMeters>34</AltitudeMeters>
            <DistanceMeters>NAN</DistanceMeters>
          </Trackpoint>
          <Trackpoint>
            <Time>2022-07-15T09:09:53.000Z</Time>
            <Position>
              <LatitudeDegrees>43.37230606935918331146240234375</LatitudeDegrees>
              <LongitudeDegrees>-4.4836635701358318328857421875</LongitudeDegrees>
            </Position>
            <AltitudeMeters>34</AltitudeMeters>
            <DistanceMeters>NAN</DistanceMeters>
          </Trackpoint>
          <Trackpoint>
            <Time>2022-07-15T09:09:57.000Z</Time>
            <Position>
              <LatitudeDegrees>43.372339345514774322509765625</LatitudeDegrees>
              <LongitudeDegrees>-4.4837688468396663665771484375</LongitudeDegrees>
            </Position>
            <AltitudeMeters>34</AltitudeMeters>
            <DistanceMeters>NAN</DistanceMeters>
          </Trackpoint>
          <Trackpoint>
            <Time>2022-07-15T09:09:59.000Z</Time>
            <Position>
              <LatitudeDegrees>43.37235686369240283966064453125</LatitudeDegrees>
              <LongitudeDegrees>-4.4838255085051059722900390625</LongitudeDegrees>
            </Position>
            <AltitudeMeters>34.200000762939453125</AltitudeMeters>
            <DistanceMeters>NAN</DistanceMeters>
          </Trackpoint>
          <Trackpoint>
            <Time>2022-07-15T09:10:03.000Z</Time>
            <Position>
              <LatitudeDegrees>43.372379243373870849609375</LatitudeDegrees>
              <LongitudeDegrees>-4.48393405415117740631103515625</LongitudeDegrees>
            </Position>
            <AltitudeMeters>34.40000152587890625</AltitudeMeters>
            <DistanceMeters>NAN</DistanceMeters>
          </Trackpoint>
          <Trackpoint>
            <Time>2022-07-15T09:10:06.000Z</Time>
            <Position>
              <LatitudeDegrees>43.37239374406635761260986328125</LatitudeDegrees>
              <LongitudeDegrees>-4.48401250876486301422119140625</LongitudeDegrees>
            </Position>
            <AltitudeMeters>34.59999847412109375</AltitudeMeters>
            <DistanceMeters>NAN</DistanceMeters>
          </Trackpoint>
          <Trackpoint>
            <Time>2022-07-15T09:10:07.000Z</Time>
            <Position>
              <LatitudeDegrees>43.37240916676819324493408203125</LatitudeDegrees>
              <LongitudeDegrees>-4.48403044603765010833740234375</LongitudeDegrees>
            </Position>
            <AltitudeMeters>34.799999237060546875</AltitudeMeters>
            <DistanceMeters>NAN</DistanceMeters>
          </Trackpoint>
          <Trackpoint>
            <Time>2022-07-15T09:10:10.000Z</Time>
            <Position>
              <LatitudeDegrees>43.3724390901625156402587890625</LatitudeDegrees>
              <LongitudeDegrees>-4.48409699834883213043212890625</LongitudeDegrees>
            </Position>
            <AltitudeMeters>35.200000762939453125</AltitudeMeters>
            <DistanceMeters>NAN</DistanceMeters>
          </Trackpoint>
          <Trackpoint>
            <Time>2022-07-15T09:10:15.000Z</Time>
            <Position>
              <LatitudeDegrees>43.3724568597972393035888671875</LatitudeDegrees>
              <LongitudeDegrees>-4.4842114113271236419677734375</LongitudeDegrees>
            </Position>
            <AltitudeMeters>35.59999847412109375</AltitudeMeters>
            <DistanceMeters>NAN</DistanceMeters>
          </Trackpoint>
          <Trackpoint>
            <Time>2022-07-15T09:10:22.000Z</Time>
            <Position>
              <LatitudeDegrees>43.37250924669206142425537109375</LatitudeDegrees>
              <LongitudeDegrees>-4.48433764278888702392578125</LongitudeDegrees>
            </Position>
            <AltitudeMeters>36.200000762939453125</AltitudeMeters>
            <DistanceMeters>NAN</DistanceMeters>
          </Trackpoint>
          <Trackpoint>
            <Time>2022-07-15T09:10:29.000Z</Time>
            <Position>
              <LatitudeDegrees>43.37254579178988933563232421875</LatitudeDegrees>
              <LongitudeDegrees>-4.4844697415828704833984375</LongitudeDegrees>
            </Position>
            <AltitudeMeters>37.200000762939453125</AltitudeMeters>
            <DistanceMeters>NAN</DistanceMeters>
          </Trackpoint>
          <Trackpoint>
            <Time>2022-07-15T09:10:34.000Z</Time>
            <Position>
              <LatitudeDegrees>43.37257412262260913848876953125</LatitudeDegrees>
              <LongitudeDegrees>-4.48454459197819232940673828125</LongitudeDegrees>
            </Position>
            <AltitudeMeters>37.799999237060546875</AltitudeMeters>
            <DistanceMeters>NAN</DistanceMeters>
          </Trackpoint>
          <Trackpoint>
            <Time>2022-07-15T09:10:37.000Z</Time>
            <Position>
              <LatitudeDegrees>43.372578732669353485107421875</LatitudeDegrees>
              <LongitudeDegrees>-4.48459672741591930389404296875</LongitudeDegrees>
            </Position>
            <AltitudeMeters>38</AltitudeMeters>
            <DistanceMeters>NAN</DistanceMeters>
          </Trackpoint>
          <Trackpoint>
            <Time>2022-07-15T09:10:40.000Z</Time>
            <Position>
              <LatitudeDegrees>43.37259356863796710968017578125</LatitudeDegrees>
              <LongitudeDegrees>-4.48464567773044109344482421875</LongitudeDegrees>
            </Position>
            <AltitudeMeters>38.40000152587890625</AltitudeMeters>
            <DistanceMeters>NAN</DistanceMeters>
          </Trackpoint>
          <Trackpoint>
            <Time>2022-07-15T09:10:43.000Z</Time>
            <Position>
              <LatitudeDegrees>43.37261267937719821929931640625</LatitudeDegrees>
              <LongitudeDegrees>-4.484693706035614013671875</LongitudeDegrees>
            </Position>
            <AltitudeMeters>38.799999237060546875</AltitudeMeters>
            <DistanceMeters>NAN</DistanceMeters>
          </Trackpoint>
          <Trackpoint>
            <Time>2022-07-15T09:10:46.000Z</Time>
            <Position>
              <LatitudeDegrees>43.37263396941125392913818359375</LatitudeDegrees>
              <LongitudeDegrees>-4.4847555644810199737548828125</LongitudeDegrees>
            </Position>
            <AltitudeMeters>39.200000762939453125</AltitudeMeters>
            <DistanceMeters>NAN</DistanceMeters>
          </Trackpoint>
          <Trackpoint>
            <Time>2022-07-15T09:10:49.000Z</Time>
            <Position>
              <LatitudeDegrees>43.37265056557953357696533203125</LatitudeDegrees>
              <LongitudeDegrees>-4.4848098792135715484619140625</LongitudeDegrees>
            </Position>
            <AltitudeMeters>39.40000152587890625</AltitudeMeters>
            <DistanceMeters>NAN</DistanceMeters>
          </Trackpoint>
          <Trackpoint>
            <Time>2022-07-15T09:10:55.000Z</Time>
            <Position>
              <LatitudeDegrees>43.37265961803495883941650390625</LatitudeDegrees>
              <LongitudeDegrees>-4.48493720032274723052978515625</LongitudeDegrees>
            </Position>
            <AltitudeMeters>40.200000762939453125</AltitudeMeters>
            <DistanceMeters>NAN</DistanceMeters>
          </Trackpoint>
          <Trackpoint>
            <Time>2022-07-15T09:10:56.000Z</Time>
            <Position>
              <LatitudeDegrees>43.3726630546152591705322265625</LatitudeDegrees>
              <LongitudeDegrees>-4.4849547185003757476806640625</LongitudeDegrees>
            </Position>
            <AltitudeMeters>40.40000152587890625</AltitudeMeters>
            <DistanceMeters>NAN</DistanceMeters>
          </Trackpoint>
          <Trackpoint>
            <Time>2022-07-15T09:11:03.000Z</Time>
            <Position>
              <LatitudeDegrees>43.37269197218120098114013671875</LatitudeDegrees>
              <LongitudeDegrees>-4.48506561107933521270751953125</LongitudeDegrees>
            </Position>
            <AltitudeMeters>41.59999847412109375</AltitudeMeters>
            <DistanceMeters>NAN</DistanceMeters>
          </Trackpoint>
          <Trackpoint>
            <Time>2022-07-15T09:11:10.000Z</Time>
            <Position>
              <LatitudeDegrees>43.37271116673946380615234375</LatitudeDegrees>
              <LongitudeDegrees>-4.48518580757081508636474609375</LongitudeDegrees>
            </Position>
            <AltitudeMeters>42.59999847412109375</AltitudeMeters>
            <DistanceMeters>NAN</DistanceMeters>
          </Trackpoint>
          <Trackpoint>
            <Time>2022-07-15T09:11:12.000Z</Time>
            <Position>
              <LatitudeDegrees>43.37271594442427158355712890625</LatitudeDegrees>
              <LongitudeDegrees>-4.48522151447832584381103515625</LongitudeDegrees>
            </Position>
            <AltitudeMeters>42.799999237060546875</AltitudeMeters>
            <DistanceMeters>NAN</DistanceMeters>
          </Trackpoint>
          <Trackpoint>
            <Time>2022-07-15T09:11:16.000Z</Time>
            <Position>
              <LatitudeDegrees>43.372723571956157684326171875</LatitudeDegrees>
              <LongitudeDegrees>-4.48529611341655254364013671875</LongitudeDegrees>
            </Position>
            <AltitudeMeters>44</AltitudeMeters>
            <DistanceMeters>NAN</DistanceMeters>
          </Trackpoint>
          <Trackpoint>
            <Time>2022-07-15T09:11:17.000Z</Time>
            <Position>
              <LatitudeDegrees>43.372722901403903961181640625</LatitudeDegrees>
              <LongitudeDegrees>-4.4853158108890056610107421875</LongitudeDegrees>
            </Position>
            <AltitudeMeters>44.200000762939453125</AltitudeMeters>
            <DistanceMeters>NAN</DistanceMeters>
          </Trackpoint>
          <Trackpoint>
            <Time>2022-07-15T09:11:19.000Z</Time>
            <Position>
              <LatitudeDegrees>43.37273371405899524688720703125</LatitudeDegrees>
              <LongitudeDegrees>-4.4853443093597888946533203125</LongitudeDegrees>
            </Position>
            <AltitudeMeters>44.40000152587890625</AltitudeMeters>
            <DistanceMeters>NAN</DistanceMeters>
          </Trackpoint>
          <Trackpoint>
            <Time>2022-07-15T09:11:25.000Z</Time>
            <Position>
              <LatitudeDegrees>43.372748382389545440673828125</LatitudeDegrees>
              <LongitudeDegrees>-4.48544581420719623565673828125</LongitudeDegrees>
            </Position>
            <AltitudeMeters>45</AltitudeMeters>
            <DistanceMeters>NAN</DistanceMeters>
          </Trackpoint>
          <Trackpoint>
            <Time>2022-07-15T09:11:28.000Z</Time>
            <Position>
              <LatitudeDegrees>43.3727673254907131195068359375</LatitudeDegrees>
              <LongitudeDegrees>-4.48548973537981510162353515625</LongitudeDegrees>
            </Position>
            <AltitudeMeters>45.200000762939453125</AltitudeMeters>
            <DistanceMeters>NAN</DistanceMeters>
          </Trackpoint>
          <Trackpoint>
            <Time>2022-07-15T09:11:35.000Z</Time>
            <Position>
              <LatitudeDegrees>43.3727721869945526123046875</LatitudeDegrees>
              <LongitudeDegrees>-4.4856142066419124603271484375</LongitudeDegrees>
            </Position>
            <AltitudeMeters>46</AltitudeMeters>
            <DistanceMeters>NAN</DistanceMeters>
          </Trackpoint>
          <Trackpoint>
            <Time>2022-07-15T09:11:46.000Z</Time>
            <Position>
              <LatitudeDegrees>43.37276439182460308074951171875</LatitudeDegrees>
              <LongitudeDegrees>-4.48582031764090061187744140625</LongitudeDegrees>
            </Position>
            <AltitudeMeters>47</AltitudeMeters>
            <DistanceMeters>NAN</DistanceMeters>
          </Trackpoint>
          <Trackpoint>
            <Time>2022-07-15T09:11:48.000Z</Time>
            <Position>
              <LatitudeDegrees>43.3727641403675079345703125</LatitudeDegrees>
              <LongitudeDegrees>-4.485854096710681915283203125</LongitudeDegrees>
            </Position>
            <AltitudeMeters>47.200000762939453125</AltitudeMeters>
            <DistanceMeters>NAN</DistanceMeters>
          </Trackpoint>
          <Trackpoint>
            <Time>2022-07-15T09:11:53.000Z</Time>
            <Position>
              <LatitudeDegrees>43.37276606820523738861083984375</LatitudeDegrees>
              <LongitudeDegrees>-4.4859637320041656494140625</LongitudeDegrees>
            </Position>
            <AltitudeMeters>47.59999847412109375</AltitudeMeters>
            <DistanceMeters>NAN</DistanceMeters>
          </Trackpoint>
          <Trackpoint>
            <Time>2022-07-15T09:11:57.000Z</Time>
            <Position>
              <LatitudeDegrees>43.37276481091976165771484375</LatitudeDegrees>
              <LongitudeDegrees>-4.4860400073230266571044921875</LongitudeDegrees>
            </Position>
            <AltitudeMeters>48.200000762939453125</AltitudeMeters>
            <DistanceMeters>NAN</DistanceMeters>
          </Trackpoint>
          <Trackpoint>
            <Time>2022-07-15T09:12:02.000Z</Time>
            <Position>
              <LatitudeDegrees>43.3727820776402950286865234375</LatitudeDegrees>
              <LongitudeDegrees>-4.48612927459180355072021484375</LongitudeDegrees>
            </Position>
            <AltitudeMeters>48.799999237060546875</AltitudeMeters>
            <DistanceMeters>NAN</DistanceMeters>
          </Trackpoint>
          <Trackpoint>
            <Time>2022-07-15T09:12:04.000Z</Time>
            <Position>
              <LatitudeDegrees>43.37280093692243099212646484375</LatitudeDegrees>
              <LongitudeDegrees>-4.486158527433872222900390625</LongitudeDegrees>
            </Position>
            <AltitudeMeters>49.200000762939453125</AltitudeMeters>
            <DistanceMeters>NAN</DistanceMeters>
          </Trackpoint>
          <Trackpoint>
            <Time>2022-07-15T09:12:06.000Z</Time>
            <Position>
              <LatitudeDegrees>43.372815437614917755126953125</LatitudeDegrees>
              <LongitudeDegrees>-4.4861888699233531951904296875</LongitudeDegrees>
            </Position>
            <AltitudeMeters>49.40000152587890625</AltitudeMeters>
            <DistanceMeters>NAN</DistanceMeters>
          </Trackpoint>
          <Trackpoint>
            <Time>2022-07-15T09:12:09.000Z</Time>
            <Position>
              <LatitudeDegrees>43.37285357527434825897216796875</LatitudeDegrees>
              <LongitudeDegrees>-4.4862002693116664886474609375</LongitudeDegrees>
            </Position>
            <AltitudeMeters>50</AltitudeMeters>
            <DistanceMeters>NAN</DistanceMeters>
          </Trackpoint>
          <Trackpoint>
            <Time>2022-07-15T09:12:10.000Z</Time>
            <Position>
              <LatitudeDegrees>43.37286715395748615264892578125</LatitudeDegrees>
              <LongitudeDegrees>-4.4862036220729351043701171875</LongitudeDegrees>
            </Position>
            <AltitudeMeters>50</AltitudeMeters>
            <DistanceMeters>NAN</DistanceMeters>
          </Trackpoint>
          <Trackpoint>
            <Time>2022-07-15T09:12:12.000Z</Time>
            <Position>
              <LatitudeDegrees>43.37289431132376194000244140625</LatitudeDegrees>
              <LongitudeDegrees>-4.4862153567373752593994140625</LongitudeDegrees>
            </Position>
            <AltitudeMeters>50.200000762939453125</AltitudeMeters>
            <DistanceMeters>NAN</DistanceMeters>
          </Trackpoint>
          <Trackpoint>
            <Time>2022-07-15T09:12:15.000Z</Time>
            <Position>
              <LatitudeDegrees>43.37293035350739955902099609375</LatitudeDegrees>
              <LongitudeDegrees>-4.4862287677824497222900390625</LongitudeDegrees>
            </Position>
            <AltitudeMeters>50.59999847412109375</AltitudeMeters>
            <DistanceMeters>NAN</DistanceMeters>
          </Trackpoint>
          <Trackpoint>
            <Time>2022-07-15T09:12:19.000Z</Time>
            <Position>
              <LatitudeDegrees>43.372969329357147216796875</LatitudeDegrees>
              <LongitudeDegrees>-4.48627646081149578094482421875</LongitudeDegrees>
            </Position>
            <AltitudeMeters>51</AltitudeMeters>
            <DistanceMeters>NAN</DistanceMeters>
          </Trackpoint>
          <Trackpoint>
            <Time>2022-07-15T09:12:24.000Z</Time>
            <Position>
              <LatitudeDegrees>43.37303705513477325439453125</LatitudeDegrees>
              <LongitudeDegrees>-4.4863097369670867919921875</LongitudeDegrees>
            </Position>
            <AltitudeMeters>51.200000762939453125</AltitudeMeters>
            <DistanceMeters>NAN</DistanceMeters>
          </Trackpoint>
          <Trackpoint>
            <Time>2022-07-15T09:12:25.000Z</Time>
            <Position>
              <LatitudeDegrees>43.3730472810566425323486328125</LatitudeDegrees>
              <LongitudeDegrees>-4.4863236509263515472412109375</LongitudeDegrees>
            </Position>
            <AltitudeMeters>51.200000762939453125</AltitudeMeters>
            <DistanceMeters>NAN</DistanceMeters>
          </Trackpoint>
          <Trackpoint>
            <Time>2022-07-15T09:12:32.000Z</Time>
            <Position>
              <LatitudeDegrees>43.3731557428836822509765625</LatitudeDegrees>
              <LongitudeDegrees>-4.4864869304001331329345703125</LongitudeDegrees>
            </Position>
            <AltitudeMeters>51</AltitudeMeters>
            <DistanceMeters>NAN</DistanceMeters>
          </Trackpoint>
          <Trackpoint>
            <Time>2022-07-15T09:12:33.000Z</Time>
            <Position>
              <LatitudeDegrees>43.373178206384181976318359375</LatitudeDegrees>
              <LongitudeDegrees>-4.48651702143251895904541015625</LongitudeDegrees>
            </Position>
            <AltitudeMeters>51</AltitudeMeters>
            <DistanceMeters>NAN</DistanceMeters>
          </Trackpoint>
          <Trackpoint>
            <Time>2022-07-15T09:12:36.000Z</Time>
            <Position>
              <LatitudeDegrees>43.37325255386531352996826171875</LatitudeDegrees>
              <LongitudeDegrees>-4.4866086356341838836669921875</LongitudeDegrees>
            </Position>
            <AltitudeMeters>50.799999237060546875</AltitudeMeters>
            <DistanceMeters>NAN</DistanceMeters>
          </Trackpoint>
          <Trackpoint>
            <Time>2022-07-15T09:12:39.000Z</Time>
            <Position>
              <LatitudeDegrees>43.37333234958350658416748046875</LatitudeDegrees>
              <LongitudeDegrees>-4.48671231977641582489013671875</LongitudeDegrees>
            </Position>
            <AltitudeMeters>50.40000152587890625</AltitudeMeters>
            <DistanceMeters>NAN</DistanceMeters>
          </Trackpoint>
          <Trackpoint>
            <Time>2022-07-15T09:12:41.000Z</Time>
            <Position>
              <LatitudeDegrees>43.37338230572640895843505859375</LatitudeDegrees>
              <LongitudeDegrees>-4.4867849908769130706787109375</LongitudeDegrees>
            </Position>
            <AltitudeMeters>50.200000762939453125</AltitudeMeters>
            <DistanceMeters>NAN</DistanceMeters>
          </Trackpoint>
          <Trackpoint>
            <Time>2022-07-15T09:12:42.000Z</Time>
            <Position>
              <LatitudeDegrees>43.37341734208166599273681640625</LatitudeDegrees>
              <LongitudeDegrees>-4.4868389703333377838134765625</LongitudeDegrees>
            </Position>
            <AltitudeMeters>50</AltitudeMeters>
            <DistanceMeters>NAN</DistanceMeters>
          </Trackpoint>
          <Trackpoint>
            <Time>2022-07-15T09:12:43.000Z</Time>
            <Position>
              <LatitudeDegrees>43.37344902567565441131591796875</LatitudeDegrees>
              <LongitudeDegrees>-4.4868855737149715423583984375</LongitudeDegrees>
            </Position>
            <AltitudeMeters>49.799999237060546875</AltitudeMeters>
            <DistanceMeters>NAN</DistanceMeters>
          </Trackpoint>
          <Trackpoint>
            <Time>2022-07-15T09:12:45.000Z</Time>
            <Position>
              <LatitudeDegrees>43.373510129749774932861328125</LatitudeDegrees>
              <LongitudeDegrees>-4.4869710691273212432861328125</LongitudeDegrees>
            </Position>
            <AltitudeMeters>49.200000762939453125</AltitudeMeters>
            <DistanceMeters>NAN</DistanceMeters>
          </Trackpoint>
          <Trackpoint>
            <Time>2022-07-15T09:12:46.000Z</Time>
            <Position>
              <LatitudeDegrees>43.37354692630469799041748046875</LatitudeDegrees>
              <LongitudeDegrees>-4.4870233722031116485595703125</LongitudeDegrees>
            </Position>
            <AltitudeMeters>49</AltitudeMeters>
            <DistanceMeters>NAN</DistanceMeters>
          </Trackpoint>
          <Trackpoint>
            <Time>2022-07-15T09:12:50.000Z</Time>
            <Position>
              <LatitudeDegrees>43.3736893348395824432373046875</LatitudeDegrees>
              <LongitudeDegrees>-4.4872620888054370880126953125</LongitudeDegrees>
            </Position>
            <AltitudeMeters>47.799999237060546875</AltitudeMeters>
            <DistanceMeters>NAN</DistanceMeters>
          </Trackpoint>
          <Trackpoint>
            <Time>2022-07-15T09:12:51.000Z</Time>
            <Position>
              <LatitudeDegrees>43.37371297180652618408203125</LatitudeDegrees>
              <LongitudeDegrees>-4.48730726726353168487548828125</LongitudeDegrees>
            </Position>
            <AltitudeMeters>47.40000152587890625</AltitudeMeters>
            <DistanceMeters>NAN</DistanceMeters>
          </Trackpoint>
          <Trackpoint>
            <Time>2022-07-15T09:12:53.000Z</Time>
            <Position>
              <LatitudeDegrees>43.373780362308025360107421875</LatitudeDegrees>
              <LongitudeDegrees>-4.48740902356803417205810546875</LongitudeDegrees>
            </Position>
            <AltitudeMeters>46.40000152587890625</AltitudeMeters>
            <DistanceMeters>NAN</DistanceMeters>
          </Trackpoint>
          <Trackpoint>
            <Time>2022-07-15T09:12:54.000Z</Time>
            <Position>
              <LatitudeDegrees>43.373811542987823486328125</LatitudeDegrees>
              <LongitudeDegrees>-4.48744489811360836029052734375</LongitudeDegrees>
            </Position>
            <AltitudeMeters>46</AltitudeMeters>
            <DistanceMeters>NAN</DistanceMeters>
          </Trackpoint>
          <Trackpoint>
            <Time>2022-07-15T09:12:55.000Z</Time>
            <Position>
              <LatitudeDegrees>43.37383291684091091156005859375</LatitudeDegrees>
              <LongitudeDegrees>-4.48747976683080196380615234375</LongitudeDegrees>
            </Position>
            <AltitudeMeters>45.40000152587890625</AltitudeMeters>
            <DistanceMeters>NAN</DistanceMeters>
          </Trackpoint>
          <Trackpoint>
            <Time>2022-07-15T09:12:56.000Z</Time>
            <Position>
              <LatitudeDegrees>43.37385940365493297576904296875</LatitudeDegrees>
              <LongitudeDegrees>-4.48754112236201763153076171875</LongitudeDegrees>
            </Position>
            <AltitudeMeters>45</AltitudeMeters>
            <DistanceMeters>NAN</DistanceMeters>
          </Trackpoint>
          <Trackpoint>
            <Time>2022-07-15T09:12:58.000Z</Time>
            <Position>
              <LatitudeDegrees>43.37388974614441394805908203125</LatitudeDegrees>
              <LongitudeDegrees>-4.487667270004749298095703125</LongitudeDegrees>
            </Position>
            <AltitudeMeters>44.40000152587890625</AltitudeMeters>
            <DistanceMeters>NAN</DistanceMeters>
          </Trackpoint>
          <Trackpoint>
            <Time>2022-07-15T09:13:01.000Z</Time>
            <Position>
              <LatitudeDegrees>43.3739461563527584075927734375</LatitudeDegrees>
              <LongitudeDegrees>-4.48787891305983066558837890625</LongitudeDegrees>
            </Position>
            <AltitudeMeters>44</AltitudeMeters>
            <DistanceMeters>NAN</DistanceMeters>
          </Trackpoint>
          <Trackpoint>
            <Time>2022-07-15T09:13:02.000Z</Time>
            <Position>
              <LatitudeDegrees>43.37396987713873386383056640625</LatitudeDegrees>
              <LongitudeDegrees>-4.48795468546450138092041015625</LongitudeDegrees>
            </Position>
            <AltitudeMeters>44</AltitudeMeters>
            <DistanceMeters>NAN</DistanceMeters>
          </Trackpoint>
          <Trackpoint>
            <Time>2022-07-15T09:13:06.000Z</Time>
            <Position>
              <LatitudeDegrees>43.3740624971687793731689453125</LatitudeDegrees>
              <LongitudeDegrees>-4.4882887043058872222900390625</LongitudeDegrees>
            </Position>
            <AltitudeMeters>43</AltitudeMeters>
            <DistanceMeters>NAN</DistanceMeters>
          </Trackpoint>
          <Trackpoint>
            <Time>2022-07-15T09:13:08.000Z</Time>
            <Position>
              <LatitudeDegrees>43.37410029955208301544189453125</LatitudeDegrees>
              <LongitudeDegrees>-4.4884635508060455322265625</LongitudeDegrees>
            </Position>
            <AltitudeMeters>42.799999237060546875</AltitudeMeters>
            <DistanceMeters>NAN</DistanceMeters>
          </Trackpoint>
          <Trackpoint>
            <Time>2022-07-15T09:13:10.000Z</Time>
            <Position>
              <LatitudeDegrees>43.37413164786994457244873046875</LatitudeDegrees>
              <LongitudeDegrees>-4.48859757743775844573974609375</LongitudeDegrees>
            </Position>
            <AltitudeMeters>42.59999847412109375</AltitudeMeters>
            <DistanceMeters>NAN</DistanceMeters>
          </Trackpoint>
          <Trackpoint>
            <Time>2022-07-15T09:13:12.000Z</Time>
            <Position>
              <LatitudeDegrees>43.37418545968830585479736328125</LatitudeDegrees>
              <LongitudeDegrees>-4.4887067936360836029052734375</LongitudeDegrees>
            </Position>
            <AltitudeMeters>42.40000152587890625</AltitudeMeters>
            <DistanceMeters>NAN</DistanceMeters>
          </Trackpoint>
          <Trackpoint>
            <Time>2022-07-15T09:13:15.000Z</Time>
            <Position>
              <LatitudeDegrees>43.37428872473537921905517578125</LatitudeDegrees>
              <LongitudeDegrees>-4.48888692073523998260498046875</LongitudeDegrees>
            </Position>
            <AltitudeMeters>41.40000152587890625</AltitudeMeters>
            <DistanceMeters>NAN</DistanceMeters>
          </Trackpoint>
          <Trackpoint>
            <Time>2022-07-15T09:13:17.000Z</Time>
            <Position>
              <LatitudeDegrees>43.374350331723690032958984375</LatitudeDegrees>
              <LongitudeDegrees>-4.4890407286584377288818359375</LongitudeDegrees>
            </Position>
            <AltitudeMeters>40.200000762939453125</AltitudeMeters>
            <DistanceMeters>NAN</DistanceMeters>
          </Trackpoint>
          <Trackpoint>
            <Time>2022-07-15T09:13:19.000Z</Time>
            <Position>
              <LatitudeDegrees>43.3744071610271930694580078125</LatitudeDegrees>
              <LongitudeDegrees>-4.48919403366744518280029296875</LongitudeDegrees>
            </Position>
            <AltitudeMeters>39.200000762939453125</AltitudeMeters>
            <DistanceMeters>NAN</DistanceMeters>
          </Trackpoint>
          <Trackpoint>
            <Time>2022-07-15T09:13:22.000Z</Time>
            <Position>
              <LatitudeDegrees>43.37445971556007862091064453125</LatitudeDegrees>
              <LongitudeDegrees>-4.48943492956459522247314453125</LongitudeDegrees>
            </Position>
            <AltitudeMeters>38</AltitudeMeters>
            <DistanceMeters>NAN</DistanceMeters>
          </Trackpoint>
          <Trackpoint>
            <Time>2022-07-15T09:13:23.000Z</Time>
            <Position>
              <LatitudeDegrees>43.37447145022451877593994140625</LatitudeDegrees>
              <LongitudeDegrees>-4.4895176589488983154296875</LongitudeDegrees>
            </Position>
            <AltitudeMeters>37.40000152587890625</AltitudeMeters>
            <DistanceMeters>NAN</DistanceMeters>
          </Trackpoint>
          <Trackpoint>
            <Time>2022-07-15T09:13:24.000Z</Time>
            <Position>
              <LatitudeDegrees>43.3744847774505615234375</LatitudeDegrees>
              <LongitudeDegrees>-4.48959343135356903076171875</LongitudeDegrees>
            </Position>
            <AltitudeMeters>36.799999237060546875</AltitudeMeters>
            <DistanceMeters>NAN</DistanceMeters>
          </Trackpoint>
          <Trackpoint>
            <Time>2022-07-15T09:13:26.000Z</Time>
            <Position>
              <LatitudeDegrees>43.3745075762271881103515625</LatitudeDegrees>
              <LongitudeDegrees>-4.48973047547042369842529296875</LongitudeDegrees>
            </Position>
            <AltitudeMeters>35.59999847412109375</AltitudeMeters>
            <DistanceMeters>NAN</DistanceMeters>
          </Trackpoint>
          <Trackpoint>
            <Time>2022-07-15T09:13:27.000Z</Time>
            <Position>
              <LatitudeDegrees>43.3745181374251842498779296875</LatitudeDegrees>
              <LongitudeDegrees>-4.48979820124804973602294921875</LongitudeDegrees>
            </Position>
            <AltitudeMeters>35</AltitudeMeters>
            <DistanceMeters>NAN</DistanceMeters>
          </Trackpoint>
          <Trackpoint>
            <Time>2022-07-15T09:13:29.000Z</Time>
            <Position>
              <LatitudeDegrees>43.37453632615506649017333984375</LatitudeDegrees>
              <LongitudeDegrees>-4.489940106868743896484375</LongitudeDegrees>
            </Position>
            <AltitudeMeters>34.59999847412109375</AltitudeMeters>
            <DistanceMeters>NAN</DistanceMeters>
          </Trackpoint>
          <Trackpoint>
            <Time>2022-07-15T09:13:30.000Z</Time>
            <Position>
              <LatitudeDegrees>43.3745446242392063140869140625</LatitudeDegrees>
              <LongitudeDegrees>-4.49001319706439971923828125</LongitudeDegrees>
            </Position>
            <AltitudeMeters>34.40000152587890625</AltitudeMeters>
            <DistanceMeters>NAN</DistanceMeters>
          </Trackpoint>
          <Trackpoint>
            <Time>2022-07-15T09:13:32.000Z</Time>
            <Position>
              <LatitudeDegrees>43.3745556883513927459716796875</LatitudeDegrees>
              <LongitudeDegrees>-4.490165412425994873046875</LongitudeDegrees>
            </Position>
            <AltitudeMeters>33.799999237060546875</AltitudeMeters>
            <DistanceMeters>NAN</DistanceMeters>
          </Trackpoint>
          <Trackpoint>
            <Time>2022-07-15T09:13:34.000Z</Time>
            <Position>
              <LatitudeDegrees>43.37456247769296169281005859375</LatitudeDegrees>
              <LongitudeDegrees>-4.49031888507306575775146484375</LongitudeDegrees>
            </Position>
            <AltitudeMeters>33.200000762939453125</AltitudeMeters>
            <DistanceMeters>NAN</DistanceMeters>
          </Trackpoint>
          <Trackpoint>
            <Time>2022-07-15T09:13:37.000Z</Time>
            <Position>
              <LatitudeDegrees>43.37457261979579925537109375</LatitudeDegrees>
              <LongitudeDegrees>-4.49055726639926433563232421875</LongitudeDegrees>
            </Position>
            <AltitudeMeters>32</AltitudeMeters>
            <DistanceMeters>NAN</DistanceMeters>
          </Trackpoint>
          <Trackpoint>
            <Time>2022-07-15T09:13:39.000Z</Time>
            <Position>
              <LatitudeDegrees>43.37456348352134227752685546875</LatitudeDegrees>
              <LongitudeDegrees>-4.49072021059691905975341796875</LongitudeDegrees>
            </Position>
            <AltitudeMeters>30.799999237060546875</AltitudeMeters>
            <DistanceMeters>NAN</DistanceMeters>
          </Trackpoint>
          <Trackpoint>
            <Time>2022-07-15T09:13:41.000Z</Time>
            <Position>
              <LatitudeDegrees>43.3745533414185047149658203125</LatitudeDegrees>
              <LongitudeDegrees>-4.4908901117742061614990234375</LongitudeDegrees>
            </Position>
            <AltitudeMeters>29.799999237060546875</AltitudeMeters>
            <DistanceMeters>NAN</DistanceMeters>
          </Trackpoint>
          <Trackpoint>
            <Time>2022-07-15T09:13:44.000Z</Time>
            <Position>
              <LatitudeDegrees>43.37454713881015777587890625</LatitudeDegrees>
              <LongitudeDegrees>-4.49108700267970561981201171875</LongitudeDegrees>
            </Position>
            <AltitudeMeters>28.3999996185302734375</AltitudeMeters>
            <DistanceMeters>NAN</DistanceMeters>
          </Trackpoint>
          <Trackpoint>
            <Time>2022-07-15T09:13:45.000Z</Time>
            <Position>
              <LatitudeDegrees>43.3745478093624114990234375</LatitudeDegrees>
              <LongitudeDegrees>-4.491152130067348480224609375</LongitudeDegrees>
            </Position>
            <AltitudeMeters>28</AltitudeMeters>
            <DistanceMeters>NAN</DistanceMeters>
          </Trackpoint>
          <Trackpoint>
            <Time>2022-07-15T09:13:46.000Z</Time>
            <Position>
              <LatitudeDegrees>43.374558202922344207763671875</LatitudeDegrees>
              <LongitudeDegrees>-4.49121541343629360198974609375</LongitudeDegrees>
            </Position>
            <AltitudeMeters>27.6000003814697265625</AltitudeMeters>
            <DistanceMeters>NAN</DistanceMeters>
          </Trackpoint>
          <Trackpoint>
            <Time>2022-07-15T09:13:47.000Z</Time>
            <Position>
              <LatitudeDegrees>43.37457588873803615570068359375</LatitudeDegrees>
              <LongitudeDegrees>-4.49127760715782642364501953125</LongitudeDegrees>
            </Position>
            <AltitudeMeters>27</AltitudeMeters>
            <DistanceMeters>NAN</DistanceMeters>
          </Trackpoint>
          <Trackpoint>
            <Time>2022-07-15T09:13:49.000Z</Time>
            <Position>
              <LatitudeDegrees>43.37462089955806732177734375</LatitudeDegrees>
              <LongitudeDegrees>-4.49140585027635097503662109375</LongitudeDegrees>
            </Position>
            <AltitudeMeters>25.200000762939453125</AltitudeMeters>
            <DistanceMeters>NAN</DistanceMeters>
          </Trackpoint>
          <Trackpoint>
            <Time>2022-07-15T09:13:51.000Z</Time>
            <Position>
              <LatitudeDegrees>43.37464177049696445465087890625</LatitudeDegrees>
              <LongitudeDegrees>-4.49156326241791248321533203125</LongitudeDegrees>
            </Position>
            <AltitudeMeters>24.200000762939453125</AltitudeMeters>
            <DistanceMeters>NAN</DistanceMeters>
          </Trackpoint>
          <Trackpoint>
            <Time>2022-07-15T09:13:54.000Z</Time>
            <Position>
              <LatitudeDegrees>43.37461821734905242919921875</LatitudeDegrees>
              <LongitudeDegrees>-4.49181991629302501678466796875</LongitudeDegrees>
            </Position>
            <AltitudeMeters>23.200000762939453125</AltitudeMeters>
            <DistanceMeters>NAN</DistanceMeters>
          </Trackpoint>
          <Trackpoint>
            <Time>2022-07-15T09:13:55.000Z</Time>
            <Position>
              <LatitudeDegrees>43.37460656650364398956298828125</LatitudeDegrees>
              <LongitudeDegrees>-4.49190909974277019500732421875</LongitudeDegrees>
            </Position>
            <AltitudeMeters>22.799999237060546875</AltitudeMeters>
            <DistanceMeters>NAN</DistanceMeters>
          </Trackpoint>
          <Trackpoint>
            <Time>2022-07-15T09:14:04.000Z</Time>
            <Position>
              <LatitudeDegrees>43.3745181374251842498779296875</LatitudeDegrees>
              <LongitudeDegrees>-4.49269473552703857421875</LongitudeDegrees>
            </Position>
            <AltitudeMeters>22.3999996185302734375</AltitudeMeters>
            <DistanceMeters>NAN</DistanceMeters>
          </Trackpoint>
          <Trackpoint>
            <Time>2022-07-15T09:14:08.000Z</Time>
            <Position>
              <LatitudeDegrees>43.37446072138845920562744140625</LatitudeDegrees>
              <LongitudeDegrees>-4.4929074682295322418212890625</LongitudeDegrees>
            </Position>
            <AltitudeMeters>21.799999237060546875</AltitudeMeters>
            <DistanceMeters>NAN</DistanceMeters>
          </Trackpoint>
          <Trackpoint>
            <Time>2022-07-15T09:14:09.000Z</Time>
            <Position>
              <LatitudeDegrees>43.3744349889457225799560546875</LatitudeDegrees>
              <LongitudeDegrees>-4.49297569692134857177734375</LongitudeDegrees>
            </Position>
            <AltitudeMeters>21.3999996185302734375</AltitudeMeters>
            <DistanceMeters>NAN</DistanceMeters>
          </Trackpoint>
          <Trackpoint>
            <Time>2022-07-15T09:14:10.000Z</Time>
            <Position>
              <LatitudeDegrees>43.3744142018258571624755859375</LatitudeDegrees>
              <LongitudeDegrees>-4.49304183013737201690673828125</LongitudeDegrees>
            </Position>
            <AltitudeMeters>20.799999237060546875</AltitudeMeters>
            <DistanceMeters>NAN</DistanceMeters>
          </Trackpoint>
          <Trackpoint>
            <Time>2022-07-15T09:14:11.000Z</Time>
            <Position>
              <LatitudeDegrees>43.3743927441537380218505859375</LatitudeDegrees>
              <LongitudeDegrees>-4.49310955591499805450439453125</LongitudeDegrees>
            </Position>
            <AltitudeMeters>20.6000003814697265625</AltitudeMeters>
            <DistanceMeters>NAN</DistanceMeters>
          </Trackpoint>
          <Trackpoint>
            <Time>2022-07-15T09:14:14.000Z</Time>
            <Position>
              <LatitudeDegrees>43.3743297122418880462646484375</LatitudeDegrees>
              <LongitudeDegrees>-4.49329487979412078857421875</LongitudeDegrees>
            </Position>
            <AltitudeMeters>19.6000003814697265625</AltitudeMeters>
            <DistanceMeters>NAN</DistanceMeters>
          </Trackpoint>
          <Trackpoint>
            <Time>2022-07-15T09:14:15.000Z</Time>
            <Position>
              <LatitudeDegrees>43.37430649437010288238525390625</LatitudeDegrees>
              <LongitudeDegrees>-4.49336486868560314178466796875</LongitudeDegrees>
            </Position>
            <AltitudeMeters>19.200000762939453125</AltitudeMeters>
            <DistanceMeters>NAN</DistanceMeters>
          </Trackpoint>
          <Trackpoint>
            <Time>2022-07-15T09:14:17.000Z</Time>
            <Position>
              <LatitudeDegrees>43.37426542304456233978271484375</LatitudeDegrees>
              <LongitudeDegrees>-4.4934529624879360198974609375</LongitudeDegrees>
            </Position>
            <AltitudeMeters>19</AltitudeMeters>
            <DistanceMeters>NAN</DistanceMeters>
          </Trackpoint>
          <Trackpoint>
            <Time>2022-07-15T09:14:18.000Z</Time>
            <Position>
              <LatitudeDegrees>43.37423575110733509063720703125</LatitudeDegrees>
              <LongitudeDegrees>-4.49348825030028820037841796875</LongitudeDegrees>
            </Position>
            <AltitudeMeters>18.3999996185302734375</AltitudeMeters>
            <DistanceMeters>NAN</DistanceMeters>
          </Trackpoint>
          <Trackpoint>
            <Time>2022-07-15T09:14:19.000Z</Time>
            <Position>
              <LatitudeDegrees>43.37419685907661914825439453125</LatitudeDegrees>
              <LongitudeDegrees>-4.49352613650262355804443359375</LongitudeDegrees>
            </Position>
            <AltitudeMeters>18</AltitudeMeters>
            <DistanceMeters>NAN</DistanceMeters>
          </Trackpoint>
          <Trackpoint>
            <Time>2022-07-15T09:14:21.000Z</Time>
            <Position>
              <LatitudeDegrees>43.3741131238639354705810546875</LatitudeDegrees>
              <LongitudeDegrees>-4.49358447454869747161865234375</LongitudeDegrees>
            </Position>
            <AltitudeMeters>17.3999996185302734375</AltitudeMeters>
            <DistanceMeters>NAN</DistanceMeters>
          </Trackpoint>
          <Trackpoint>
            <Time>2022-07-15T09:14:24.000Z</Time>
            <Position>
              <LatitudeDegrees>43.3739756606519222259521484375</LatitudeDegrees>
              <LongitudeDegrees>-4.49368178844451904296875</LongitudeDegrees>
            </Position>
            <AltitudeMeters>16.799999237060546875</AltitudeMeters>
            <DistanceMeters>NAN</DistanceMeters>
          </Trackpoint>
          <Trackpoint>
            <Time>2022-07-15T09:14:26.000Z</Time>
            <Position>
              <LatitudeDegrees>43.373917154967784881591796875</LatitudeDegrees>
              <LongitudeDegrees>-4.49379435740411281585693359375</LongitudeDegrees>
            </Position>
            <AltitudeMeters>16.3999996185302734375</AltitudeMeters>
            <DistanceMeters>NAN</DistanceMeters>
          </Trackpoint>
          <Trackpoint>
            <Time>2022-07-15T09:14:30.000Z</Time>
            <Position>
              <LatitudeDegrees>43.37392159737646579742431640625</LatitudeDegrees>
              <LongitudeDegrees>-4.493991248309612274169921875</LongitudeDegrees>
            </Position>
            <AltitudeMeters>15.80000019073486328125</AltitudeMeters>
            <DistanceMeters>NAN</DistanceMeters>
          </Trackpoint>
          <Trackpoint>
            <Time>2022-07-15T09:14:36.000Z</Time>
            <Position>
              <LatitudeDegrees>43.37393601424992084503173828125</LatitudeDegrees>
              <LongitudeDegrees>-4.49420414865016937255859375</LongitudeDegrees>
            </Position>
            <AltitudeMeters>16</AltitudeMeters>
            <DistanceMeters>NAN</DistanceMeters>
          </Trackpoint>
          <Trackpoint>
            <Time>2022-07-15T09:14:41.000Z</Time>
            <Position>
              <LatitudeDegrees>43.3739121258258819580078125</LatitudeDegrees>
              <LongitudeDegrees>-4.4943773187696933746337890625</LongitudeDegrees>
            </Position>
            <AltitudeMeters>16.6000003814697265625</AltitudeMeters>
            <DistanceMeters>NAN</DistanceMeters>
          </Trackpoint>
          <Trackpoint>
            <Time>2022-07-15T09:14:47.000Z</Time>
            <Position>
              <LatitudeDegrees>43.37389427237212657928466796875</LatitudeDegrees>
              <LongitudeDegrees>-4.494643025100231170654296875</LongitudeDegrees>
            </Position>
            <AltitudeMeters>16.6000003814697265625</AltitudeMeters>
            <DistanceMeters>NAN</DistanceMeters>
          </Trackpoint>
          <Trackpoint>
            <Time>2022-07-15T09:14:52.000Z</Time>
            <Position>
              <LatitudeDegrees>43.3739054203033447265625</LatitudeDegrees>
              <LongitudeDegrees>-4.4949142634868621826171875</LongitudeDegrees>
            </Position>
            <AltitudeMeters>15.80000019073486328125</AltitudeMeters>
            <DistanceMeters>NAN</DistanceMeters>
          </Trackpoint>
          <Trackpoint>
            <Time>2022-07-15T09:14:56.000Z</Time>
            <Position>
              <LatitudeDegrees>43.3739042468369007110595703125</LatitudeDegrees>
              <LongitudeDegrees>-4.49516781605780124664306640625</LongitudeDegrees>
            </Position>
            <AltitudeMeters>15.19999980926513671875</AltitudeMeters>
            <DistanceMeters>NAN</DistanceMeters>
          </Trackpoint>
          <Trackpoint>
            <Time>2022-07-15T09:14:58.000Z</Time>
            <Position>
              <LatitudeDegrees>43.37389091961085796356201171875</LatitudeDegrees>
              <LongitudeDegrees>-4.4953117333352565765380859375</LongitudeDegrees>
            </Position>
            <AltitudeMeters>15</AltitudeMeters>
            <DistanceMeters>NAN</DistanceMeters>
          </Trackpoint>
          <Trackpoint>
            <Time>2022-07-15T09:15:02.000Z</Time>
            <Position>
              <LatitudeDegrees>43.37386183440685272216796875</LatitudeDegrees>
              <LongitudeDegrees>-4.4955955445766448974609375</LongitudeDegrees>
            </Position>
            <AltitudeMeters>14.6000003814697265625</AltitudeMeters>
            <DistanceMeters>NAN</DistanceMeters>
          </Trackpoint>
          <Trackpoint>
            <Time>2022-07-15T09:15:04.000Z</Time>
            <Position>
              <LatitudeDegrees>43.37386049330234527587890625</LatitudeDegrees>
              <LongitudeDegrees>-4.49575312435626983642578125</LongitudeDegrees>
            </Position>
            <AltitudeMeters>14.6000003814697265625</AltitudeMeters>
            <DistanceMeters>NAN</DistanceMeters>
          </Trackpoint>
          <Trackpoint>
            <Time>2022-07-15T09:15:09.000Z</Time>
            <Position>
              <LatitudeDegrees>43.373871557414531707763671875</LatitudeDegrees>
              <LongitudeDegrees>-4.4960764981806278228759765625</LongitudeDegrees>
            </Position>
            <AltitudeMeters>14.19999980926513671875</AltitudeMeters>
            <DistanceMeters>NAN</DistanceMeters>
          </Trackpoint>
          <Trackpoint>
            <Time>2022-07-15T09:15:10.000Z</Time>
            <Position>
              <LatitudeDegrees>43.37387122213840484619140625</LatitudeDegrees>
              <LongitudeDegrees>-4.49614698998630046844482421875</LongitudeDegrees>
            </Position>
            <AltitudeMeters>14.19999980926513671875</AltitudeMeters>
            <DistanceMeters>NAN</DistanceMeters>
          </Trackpoint>
          <Trackpoint>
            <Time>2022-07-15T09:15:13.000Z</Time>
            <Position>
              <LatitudeDegrees>43.37385940365493297576904296875</LatitudeDegrees>
              <LongitudeDegrees>-4.4963742233812808990478515625</LongitudeDegrees>
            </Position>
            <AltitudeMeters>13.6000003814697265625</AltitudeMeters>
            <DistanceMeters>NAN</DistanceMeters>
          </Trackpoint>
          <Trackpoint>
            <Time>2022-07-15T09:15:15.000Z</Time>
            <Position>
              <LatitudeDegrees>43.37385688908398151397705078125</LatitudeDegrees>
              <LongitudeDegrees>-4.49648578651249408721923828125</LongitudeDegrees>
            </Position>
            <AltitudeMeters>13.3999996185302734375</AltitudeMeters>
            <DistanceMeters>NAN</DistanceMeters>
          </Trackpoint>
          <Trackpoint>
            <Time>2022-07-15T09:15:16.000Z</Time>
            <Position>
              <LatitudeDegrees>43.3738636784255504608154296875</LatitudeDegrees>
              <LongitudeDegrees>-4.49655099771916866302490234375</LongitudeDegrees>
            </Position>
            <AltitudeMeters>13.19999980926513671875</AltitudeMeters>
            <DistanceMeters>NAN</DistanceMeters>
          </Trackpoint>
          <Trackpoint>
            <Time>2022-07-15T09:15:18.000Z</Time>
            <Position>
              <LatitudeDegrees>43.37387968786060810089111328125</LatitudeDegrees>
              <LongitudeDegrees>-4.49665728025138378143310546875</LongitudeDegrees>
            </Position>
            <AltitudeMeters>12.3999996185302734375</AltitudeMeters>
            <DistanceMeters>NAN</DistanceMeters>
          </Trackpoint>
          <Trackpoint>
            <Time>2022-07-15T09:15:20.000Z</Time>
            <Position>
              <LatitudeDegrees>43.37389678694307804107666015625</LatitudeDegrees>
              <LongitudeDegrees>-4.49677077122032642364501953125</LongitudeDegrees>
            </Position>
            <AltitudeMeters>12.19999980926513671875</AltitudeMeters>
            <DistanceMeters>NAN</DistanceMeters>
          </Trackpoint>
          <Trackpoint>
            <Time>2022-07-15T09:15:21.000Z</Time>
            <Position>
              <LatitudeDegrees>43.3739079348742961883544921875</LatitudeDegrees>
              <LongitudeDegrees>-4.496823661029338836669921875</LongitudeDegrees>
            </Position>
            <AltitudeMeters>12</AltitudeMeters>
            <DistanceMeters>NAN</DistanceMeters>
          </Trackpoint>
          <Trackpoint>
            <Time>2022-07-15T09:15:23.000Z</Time>
            <Position>
              <LatitudeDegrees>43.3739223517477512359619140625</LatitudeDegrees>
              <LongitudeDegrees>-4.4969227351248264312744140625</LongitudeDegrees>
            </Position>
            <AltitudeMeters>11.80000019073486328125</AltitudeMeters>
            <DistanceMeters>NAN</DistanceMeters>
          </Trackpoint>
          <Trackpoint>
            <Time>2022-07-15T09:15:30.000Z</Time>
            <Position>
              <LatitudeDegrees>43.3739314042031764984130859375</LatitudeDegrees>
              <LongitudeDegrees>-4.49730872176587581634521484375</LongitudeDegrees>
            </Position>
            <AltitudeMeters>11.80000019073486328125</AltitudeMeters>
            <DistanceMeters>NAN</DistanceMeters>
          </Trackpoint>
          <Trackpoint>
            <Time>2022-07-15T09:15:31.000Z</Time>
            <Position>
              <LatitudeDegrees>43.3739337511360645294189453125</LatitudeDegrees>
              <LongitudeDegrees>-4.4973502121865749359130859375</LongitudeDegrees>
            </Position>
            <AltitudeMeters>11.80000019073486328125</AltitudeMeters>
            <DistanceMeters>NAN</DistanceMeters>
          </Trackpoint>
          <Trackpoint>
            <Time>2022-07-15T09:15:37.000Z</Time>
            <Position>
              <LatitudeDegrees>43.37394674308598041534423828125</LatitudeDegrees>
              <LongitudeDegrees>-4.49753838591277599334716796875</LongitudeDegrees>
            </Position>
            <AltitudeMeters>11.80000019073486328125</AltitudeMeters>
            <DistanceMeters>NAN</DistanceMeters>
          </Trackpoint>
          <Trackpoint>
            <Time>2022-07-15T09:15:39.000Z</Time>
            <Position>
              <LatitudeDegrees>43.3739525265991687774658203125</LatitudeDegrees>
              <LongitudeDegrees>-4.49759337119758129119873046875</LongitudeDegrees>
            </Position>
            <AltitudeMeters>12</AltitudeMeters>
            <DistanceMeters>NAN</DistanceMeters>
          </Trackpoint>
          <Trackpoint>
            <Time>2022-07-15T09:15:43.000Z</Time>
            <Position>
              <LatitudeDegrees>43.373977839946746826171875</LatitudeDegrees>
              <LongitudeDegrees>-4.49766495265066623687744140625</LongitudeDegrees>
            </Position>
            <AltitudeMeters>12.80000019073486328125</AltitudeMeters>
            <DistanceMeters>NAN</DistanceMeters>
          </Trackpoint>
          <Trackpoint>
            <Time>2022-07-15T09:15:45.000Z</Time>
            <Position>
              <LatitudeDegrees>43.3739823661744594573974609375</LatitudeDegrees>
              <LongitudeDegrees>-4.497703425586223602294921875</LongitudeDegrees>
            </Position>
            <AltitudeMeters>13.19999980926513671875</AltitudeMeters>
            <DistanceMeters>NAN</DistanceMeters>
          </Trackpoint>
          <Trackpoint>
            <Time>2022-07-15T09:15:49.000Z</Time>
            <Position>
              <LatitudeDegrees>43.3739796839654445648193359375</LatitudeDegrees>
              <LongitudeDegrees>-4.49778355658054351806640625</LongitudeDegrees>
            </Position>
            <AltitudeMeters>13.3999996185302734375</AltitudeMeters>
            <DistanceMeters>NAN</DistanceMeters>
          </Trackpoint>
          <Trackpoint>
            <Time>2022-07-15T09:15:52.000Z</Time>
            <Position>
              <LatitudeDegrees>43.37397909723222255706787109375</LatitudeDegrees>
              <LongitudeDegrees>-4.49784231372177600860595703125</LongitudeDegrees>
            </Position>
            <AltitudeMeters>13.6000003814697265625</AltitudeMeters>
            <DistanceMeters>NAN</DistanceMeters>
          </Trackpoint>
          <Trackpoint>
            <Time>2022-07-15T09:15:54.000Z</Time>
            <Position>
              <LatitudeDegrees>43.3739793486893177032470703125</LatitudeDegrees>
              <LongitudeDegrees>-4.49787349440157413482666015625</LongitudeDegrees>
            </Position>
            <AltitudeMeters>13.6000003814697265625</AltitudeMeters>
            <DistanceMeters>NAN</DistanceMeters>
          </Trackpoint>
          <Trackpoint>
            <Time>2022-07-15T09:15:57.000Z</Time>
            <Position>
              <LatitudeDegrees>43.37396367453038692474365234375</LatitudeDegrees>
              <LongitudeDegrees>-4.49795295484364032745361328125</LongitudeDegrees>
            </Position>
            <AltitudeMeters>13.80000019073486328125</AltitudeMeters>
            <DistanceMeters>NAN</DistanceMeters>
          </Trackpoint>
          <Trackpoint>
            <Time>2022-07-15T09:16:05.000Z</Time>
            <Position>
              <LatitudeDegrees>43.373985551297664642333984375</LatitudeDegrees>
              <LongitudeDegrees>-4.49821807444095611572265625</LongitudeDegrees>
            </Position>
            <AltitudeMeters>13.80000019073486328125</AltitudeMeters>
            <DistanceMeters>NAN</DistanceMeters>
          </Trackpoint>
          <Trackpoint>
            <Time>2022-07-15T09:16:07.000Z</Time>
            <Position>
              <LatitudeDegrees>43.37398680858314037322998046875</LatitudeDegrees>
              <LongitudeDegrees>-4.4982903264462947845458984375</LongitudeDegrees>
            </Position>
            <AltitudeMeters>13.6000003814697265625</AltitudeMeters>
            <DistanceMeters>NAN</DistanceMeters>
          </Trackpoint>
          <Trackpoint>
            <Time>2022-07-15T09:16:12.000Z</Time>
            <Position>
              <LatitudeDegrees>43.3739823661744594573974609375</LatitudeDegrees>
              <LongitudeDegrees>-4.4984968565404415130615234375</LongitudeDegrees>
            </Position>
            <AltitudeMeters>13.6000003814697265625</AltitudeMeters>
            <DistanceMeters>NAN</DistanceMeters>
          </Trackpoint>
          <Trackpoint>
            <Time>2022-07-15T09:16:18.000Z</Time>
            <Position>
              <LatitudeDegrees>43.37398253381252288818359375</LatitudeDegrees>
              <LongitudeDegrees>-4.49875107966363430023193359375</LongitudeDegrees>
            </Position>
            <AltitudeMeters>13.19999980926513671875</AltitudeMeters>
            <DistanceMeters>NAN</DistanceMeters>
          </Trackpoint>
          <Trackpoint>
            <Time>2022-07-15T09:16:20.000Z</Time>
            <Position>
              <LatitudeDegrees>43.37398781441152095794677734375</LatitudeDegrees>
              <LongitudeDegrees>-4.498821906745433807373046875</LongitudeDegrees>
            </Position>
            <AltitudeMeters>13.19999980926513671875</AltitudeMeters>
            <DistanceMeters>NAN</DistanceMeters>
          </Trackpoint>
          <Trackpoint>
            <Time>2022-07-15T09:16:23.000Z</Time>
            <Position>
              <LatitudeDegrees>43.37399594485759735107421875</LatitudeDegrees>
              <LongitudeDegrees>-4.498889632523059844970703125</LongitudeDegrees>
            </Position>
            <AltitudeMeters>12.80000019073486328125</AltitudeMeters>
            <DistanceMeters>NAN</DistanceMeters>
          </Trackpoint>
          <Trackpoint>
            <Time>2022-07-15T09:16:24.000Z</Time>
            <Position>
              <LatitudeDegrees>43.37399787269532680511474609375</LatitudeDegrees>
              <LongitudeDegrees>-4.49891201220452785491943359375</LongitudeDegrees>
            </Position>
            <AltitudeMeters>12.80000019073486328125</AltitudeMeters>
            <DistanceMeters>NAN</DistanceMeters>
          </Trackpoint>
          <Trackpoint>
            <Time>2022-07-15T09:16:28.000Z</Time>
            <Position>
              <LatitudeDegrees>43.374000973999500274658203125</LatitudeDegrees>
              <LongitudeDegrees>-4.4989176280796527862548828125</LongitudeDegrees>
            </Position>
            <AltitudeMeters>12.6000003814697265625</AltitudeMeters>
            <DistanceMeters>NAN</DistanceMeters>
          </Trackpoint>
          <Trackpoint>
            <Time>2022-07-15T09:18:24.000Z</Time>
            <Position>
              <LatitudeDegrees>43.3739872276782989501953125</LatitudeDegrees>
              <LongitudeDegrees>-4.49898376129567623138427734375</LongitudeDegrees>
            </Position>
            <AltitudeMeters>12.3999996185302734375</AltitudeMeters>
            <DistanceMeters>NAN</DistanceMeters>
          </Trackpoint>
          <Trackpoint>
            <Time>2022-07-15T09:18:25.000Z</Time>
            <Position>
              <LatitudeDegrees>43.37398731149733066558837890625</LatitudeDegrees>
              <LongitudeDegrees>-4.49900924228131771087646484375</LongitudeDegrees>
            </Position>
            <AltitudeMeters>12.3999996185302734375</AltitudeMeters>
            <DistanceMeters>NAN</DistanceMeters>
          </Trackpoint>
          <Trackpoint>
            <Time>2022-07-15T09:18:29.000Z</Time>
            <Position>
              <LatitudeDegrees>43.37399753741919994354248046875</LatitudeDegrees>
              <LongitudeDegrees>-4.49916397221386432647705078125</LongitudeDegrees>
            </Position>
            <AltitudeMeters>12.19999980926513671875</AltitudeMeters>
            <DistanceMeters>NAN</DistanceMeters>
          </Trackpoint>
          <Trackpoint>
            <Time>2022-07-15T09:18:30.000Z</Time>
            <Position>
              <LatitudeDegrees>43.3739981241524219512939453125</LatitudeDegrees>
              <LongitudeDegrees>-4.4991910457611083984375</LongitudeDegrees>
            </Position>
            <AltitudeMeters>12</AltitudeMeters>
            <DistanceMeters>NAN</DistanceMeters>
          </Trackpoint>
          <Trackpoint>
            <Time>2022-07-15T09:18:34.000Z</Time>
            <Position>
              <LatitudeDegrees>43.37399301119148731231689453125</LatitudeDegrees>
              <LongitudeDegrees>-4.49922381900250911712646484375</LongitudeDegrees>
            </Position>
            <AltitudeMeters>12</AltitudeMeters>
            <DistanceMeters>NAN</DistanceMeters>
          </Trackpoint>
          <Trackpoint>
            <Time>2022-07-15T09:18:39.000Z</Time>
            <Position>
              <LatitudeDegrees>43.3739917539060115814208984375</LatitudeDegrees>
              <LongitudeDegrees>-4.4992693327367305755615234375</LongitudeDegrees>
            </Position>
            <AltitudeMeters>12</AltitudeMeters>
            <DistanceMeters>NAN</DistanceMeters>
          </Trackpoint>
          <Trackpoint>
            <Time>2022-07-15T09:18:41.000Z</Time>
            <Position>
              <LatitudeDegrees>43.37398714385926723480224609375</LatitudeDegrees>
              <LongitudeDegrees>-4.49933546595275402069091796875</LongitudeDegrees>
            </Position>
            <AltitudeMeters>11.80000019073486328125</AltitudeMeters>
            <DistanceMeters>NAN</DistanceMeters>
          </Trackpoint>
          <Trackpoint>
            <Time>2022-07-15T09:18:43.000Z</Time>
            <Position>
              <LatitudeDegrees>43.3739847131073474884033203125</LatitudeDegrees>
              <LongitudeDegrees>-4.4994203746318817138671875</LongitudeDegrees>
            </Position>
            <AltitudeMeters>11.80000019073486328125</AltitudeMeters>
            <DistanceMeters>NAN</DistanceMeters>
          </Trackpoint>
          <Trackpoint>
            <Time>2022-07-15T09:18:47.000Z</Time>
            <Position>
              <LatitudeDegrees>43.373990245163440704345703125</LatitudeDegrees>
              <LongitudeDegrees>-4.499589689075946807861328125</LongitudeDegrees>
            </Position>
            <AltitudeMeters>11.6000003814697265625</AltitudeMeters>
            <DistanceMeters>NAN</DistanceMeters>
          </Trackpoint>
          <Trackpoint>
            <Time>2022-07-15T09:18:51.000Z</Time>
            <Position>
              <LatitudeDegrees>43.37399116717278957366943359375</LatitudeDegrees>
              <LongitudeDegrees>-4.4997839815914630889892578125</LongitudeDegrees>
            </Position>
            <AltitudeMeters>11</AltitudeMeters>
            <DistanceMeters>NAN</DistanceMeters>
          </Trackpoint>
          <Trackpoint>
            <Time>2022-07-15T09:18:53.000Z</Time>
            <Position>
              <LatitudeDegrees>43.37399720214307308197021484375</LatitudeDegrees>
              <LongitudeDegrees>-4.4998644478619098663330078125</LongitudeDegrees>
            </Position>
            <AltitudeMeters>11</AltitudeMeters>
            <DistanceMeters>NAN</DistanceMeters>
          </Trackpoint>
          <Trackpoint>
            <Time>2022-07-15T09:18:54.000Z</Time>
            <Position>
              <LatitudeDegrees>43.37398831732571125030517578125</LatitudeDegrees>
              <LongitudeDegrees>-4.499920941889286041259765625</LongitudeDegrees>
            </Position>
            <AltitudeMeters>11</AltitudeMeters>
            <DistanceMeters>NAN</DistanceMeters>
          </Trackpoint>
          <Trackpoint>
            <Time>2022-07-15T09:18:58.000Z</Time>
            <Position>
              <LatitudeDegrees>43.37398295290768146514892578125</LatitudeDegrees>
              <LongitudeDegrees>-4.5001122169196605682373046875</LongitudeDegrees>
            </Position>
            <AltitudeMeters>10.80000019073486328125</AltitudeMeters>
            <DistanceMeters>NAN</DistanceMeters>
          </Trackpoint>
          <Trackpoint>
            <Time>2022-07-15T09:19:03.000Z</Time>
            <Position>
              <LatitudeDegrees>43.37398052215576171875</LatitudeDegrees>
              <LongitudeDegrees>-4.5003834553062915802001953125</LongitudeDegrees>
            </Position>
            <AltitudeMeters>10.19999980926513671875</AltitudeMeters>
            <DistanceMeters>NAN</DistanceMeters>
          </Trackpoint>
          <Trackpoint>
            <Time>2022-07-15T09:19:05.000Z</Time>
            <Position>
              <LatitudeDegrees>43.373976834118366241455078125</LatitudeDegrees>
              <LongitudeDegrees>-4.50048856437206268310546875</LongitudeDegrees>
            </Position>
            <AltitudeMeters>10</AltitudeMeters>
            <DistanceMeters>NAN</DistanceMeters>
          </Trackpoint>
          <Trackpoint>
            <Time>2022-07-15T09:19:10.000Z</Time>
            <Position>
              <LatitudeDegrees>43.3739773370325565338134765625</LatitudeDegrees>
              <LongitudeDegrees>-4.5006550289690494537353515625</LongitudeDegrees>
            </Position>
            <AltitudeMeters>9.80000019073486328125</AltitudeMeters>
            <DistanceMeters>NAN</DistanceMeters>
          </Trackpoint>
          <Trackpoint>
            <Time>2022-07-15T09:19:13.000Z</Time>
            <Position>
              <LatitudeDegrees>43.37397742085158824920654296875</LatitudeDegrees>
              <LongitudeDegrees>-4.50065913610160350799560546875</LongitudeDegrees>
            </Position>
            <AltitudeMeters>9.3999996185302734375</AltitudeMeters>
            <DistanceMeters>NAN</DistanceMeters>
          </Trackpoint>
          <Trackpoint>
            <Time>2022-07-15T09:19:20.000Z</Time>
            <Position>
              <LatitudeDegrees>43.37396199814975261688232421875</LatitudeDegrees>
              <LongitudeDegrees>-4.50071445666253566741943359375</LongitudeDegrees>
            </Position>
            <AltitudeMeters>9.3999996185302734375</AltitudeMeters>
            <DistanceMeters>NAN</DistanceMeters>
          </Trackpoint>
          <Trackpoint>
            <Time>2022-07-15T09:19:26.000Z</Time>
            <Position>
              <LatitudeDegrees>43.37396317161619663238525390625</LatitudeDegrees>
              <LongitudeDegrees>-4.50074681080877780914306640625</LongitudeDegrees>
            </Position>
            <AltitudeMeters>9.3999996185302734375</AltitudeMeters>
            <DistanceMeters>NAN</DistanceMeters>
          </Trackpoint>
          <Trackpoint>
            <Time>2022-07-15T09:20:56.000Z</Time>
            <Position>
              <LatitudeDegrees>43.37395043112337589263916015625</LatitudeDegrees>
              <LongitudeDegrees>-4.50078117661178112030029296875</LongitudeDegrees>
            </Position>
            <AltitudeMeters>9.6000003814697265625</AltitudeMeters>
            <DistanceMeters>NAN</DistanceMeters>
          </Trackpoint>
          <Trackpoint>
            <Time>2022-07-15T09:20:58.000Z</Time>
            <Position>
              <LatitudeDegrees>43.37395009584724903106689453125</LatitudeDegrees>
              <LongitudeDegrees>-4.50085409916937351226806640625</LongitudeDegrees>
            </Position>
            <AltitudeMeters>9.6000003814697265625</AltitudeMeters>
            <DistanceMeters>NAN</DistanceMeters>
          </Trackpoint>
          <Trackpoint>
            <Time>2022-07-15T09:21:03.000Z</Time>
            <Position>
              <LatitudeDegrees>43.37394942529499530792236328125</LatitudeDegrees>
              <LongitudeDegrees>-4.50102626346051692962646484375</LongitudeDegrees>
            </Position>
            <AltitudeMeters>9.6000003814697265625</AltitudeMeters>
            <DistanceMeters>NAN</DistanceMeters>
          </Trackpoint>
          <Trackpoint>
            <Time>2022-07-15T09:21:04.000Z</Time>
            <Position>
              <LatitudeDegrees>43.37394942529499530792236328125</LatitudeDegrees>
              <LongitudeDegrees>-4.501056186854839324951171875</LongitudeDegrees>
            </Position>
            <AltitudeMeters>9.3999996185302734375</AltitudeMeters>
            <DistanceMeters>NAN</DistanceMeters>
          </Trackpoint>
          <Trackpoint>
            <Time>2022-07-15T09:21:07.000Z</Time>
            <Position>
              <LatitudeDegrees>43.3739585615694522857666015625</LatitudeDegrees>
              <LongitudeDegrees>-4.50114436447620391845703125</LongitudeDegrees>
            </Position>
            <AltitudeMeters>9</AltitudeMeters>
            <DistanceMeters>NAN</DistanceMeters>
          </Trackpoint>
          <Trackpoint>
            <Time>2022-07-15T09:21:10.000Z</Time>
            <Position>
              <LatitudeDegrees>43.37395613081753253936767578125</LatitudeDegrees>
              <LongitudeDegrees>-4.501244612038135528564453125</LongitudeDegrees>
            </Position>
            <AltitudeMeters>9</AltitudeMeters>
            <DistanceMeters>NAN</DistanceMeters>
          </Trackpoint>
          <Trackpoint>
            <Time>2022-07-15T09:21:15.000Z</Time>
            <Position>
              <LatitudeDegrees>43.373953364789485931396484375</LatitudeDegrees>
              <LongitudeDegrees>-4.5014335401356220245361328125</LongitudeDegrees>
            </Position>
            <AltitudeMeters>8.80000019073486328125</AltitudeMeters>
            <DistanceMeters>NAN</DistanceMeters>
          </Trackpoint>
          <Trackpoint>
            <Time>2022-07-15T09:21:16.000Z</Time>
            <Position>
              <LatitudeDegrees>43.37395680136978626251220703125</LatitudeDegrees>
              <LongitudeDegrees>-4.501461200416088104248046875</LongitudeDegrees>
            </Position>
            <AltitudeMeters>9</AltitudeMeters>
            <DistanceMeters>NAN</DistanceMeters>
          </Trackpoint>
          <Trackpoint>
            <Time>2022-07-15T09:21:23.000Z</Time>
            <Position>
              <LatitudeDegrees>43.37393031455576419830322265625</LatitudeDegrees>
              <LongitudeDegrees>-4.50173218734562397003173828125</LongitudeDegrees>
            </Position>
            <AltitudeMeters>9.19999980926513671875</AltitudeMeters>
            <DistanceMeters>NAN</DistanceMeters>
          </Trackpoint>
          <Trackpoint>
            <Time>2022-07-15T09:21:24.000Z</Time>
            <Position>
              <LatitudeDegrees>43.3739317394793033599853515625</LatitudeDegrees>
              <LongitudeDegrees>-4.501765631139278411865234375</LongitudeDegrees>
            </Position>
            <AltitudeMeters>9.19999980926513671875</AltitudeMeters>
            <DistanceMeters>NAN</DistanceMeters>
          </Trackpoint>
          <Trackpoint>
            <Time>2022-07-15T09:21:27.000Z</Time>
            <Position>
              <LatitudeDegrees>43.3739230223000049591064453125</LatitudeDegrees>
              <LongitudeDegrees>-4.50189714320003986358642578125</LongitudeDegrees>
            </Position>
            <AltitudeMeters>9.19999980926513671875</AltitudeMeters>
            <DistanceMeters>NAN</DistanceMeters>
          </Trackpoint>
          <Trackpoint>
            <Time>2022-07-15T09:21:31.000Z</Time>
            <Position>
              <LatitudeDegrees>43.37395814247429370880126953125</LatitudeDegrees>
              <LongitudeDegrees>-4.50206167995929718017578125</LongitudeDegrees>
            </Position>
            <AltitudeMeters>9.3999996185302734375</AltitudeMeters>
            <DistanceMeters>NAN</DistanceMeters>
          </Trackpoint>
          <Trackpoint>
            <Time>2022-07-15T09:21:34.000Z</Time>
            <Position>
              <LatitudeDegrees>43.373986892402172088623046875</LatitudeDegrees>
              <LongitudeDegrees>-4.5021637715399265289306640625</LongitudeDegrees>
            </Position>
            <AltitudeMeters>9.3999996185302734375</AltitudeMeters>
            <DistanceMeters>NAN</DistanceMeters>
          </Trackpoint>
          <Trackpoint>
            <Time>2022-07-15T09:21:37.000Z</Time>
            <Position>
              <LatitudeDegrees>43.374004326760768890380859375</LatitudeDegrees>
              <LongitudeDegrees>-4.5022915117442607879638671875</LongitudeDegrees>
            </Position>
            <AltitudeMeters>9.19999980926513671875</AltitudeMeters>
            <DistanceMeters>NAN</DistanceMeters>
          </Trackpoint>
          <Trackpoint>
            <Time>2022-07-15T09:21:38.000Z</Time>
            <Position>
              <LatitudeDegrees>43.3740088529884815216064453125</LatitudeDegrees>
              <LongitudeDegrees>-4.50232093222439289093017578125</LongitudeDegrees>
            </Position>
            <AltitudeMeters>9.19999980926513671875</AltitudeMeters>
            <DistanceMeters>NAN</DistanceMeters>
          </Trackpoint>
          <Trackpoint>
            <Time>2022-07-15T09:21:43.000Z</Time>
            <Position>
              <LatitudeDegrees>43.374026119709014892578125</LatitudeDegrees>
              <LongitudeDegrees>-4.50246132910251617431640625</LongitudeDegrees>
            </Position>
            <AltitudeMeters>9.6000003814697265625</AltitudeMeters>
            <DistanceMeters>NAN</DistanceMeters>
          </Trackpoint>
          <Trackpoint>
            <Time>2022-07-15T09:21:44.000Z</Time>
            <Position>
              <LatitudeDegrees>43.3740326575934886932373046875</LatitudeDegrees>
              <LongitudeDegrees>-4.50248806737363338470458984375</LongitudeDegrees>
            </Position>
            <AltitudeMeters>9.80000019073486328125</AltitudeMeters>
            <DistanceMeters>NAN</DistanceMeters>
          </Trackpoint>
          <Trackpoint>
            <Time>2022-07-15T09:21:47.000Z</Time>
            <Position>
              <LatitudeDegrees>43.37405227124691009521484375</LatitudeDegrees>
              <LongitudeDegrees>-4.502613544464111328125</LongitudeDegrees>
            </Position>
            <AltitudeMeters>9.80000019073486328125</AltitudeMeters>
            <DistanceMeters>NAN</DistanceMeters>
          </Trackpoint>
          <Trackpoint>
            <Time>2022-07-15T09:21:49.000Z</Time>
            <Position>
              <LatitudeDegrees>43.37406593374907970428466796875</LatitudeDegrees>
              <LongitudeDegrees>-4.5026765763759613037109375</LongitudeDegrees>
            </Position>
            <AltitudeMeters>9.80000019073486328125</AltitudeMeters>
            <DistanceMeters>NAN</DistanceMeters>
          </Trackpoint>
          <Trackpoint>
            <Time>2022-07-15T09:21:56.000Z</Time>
            <Position>
              <LatitudeDegrees>43.37416131980717182159423828125</LatitudeDegrees>
              <LongitudeDegrees>-4.502929039299488067626953125</LongitudeDegrees>
            </Position>
            <AltitudeMeters>9.6000003814697265625</AltitudeMeters>
            <DistanceMeters>NAN</DistanceMeters>
          </Trackpoint>
          <Trackpoint>
            <Time>2022-07-15T09:22:02.000Z</Time>
            <Position>
              <LatitudeDegrees>43.3742814324796199798583984375</LatitudeDegrees>
              <LongitudeDegrees>-4.50310883112251758575439453125</LongitudeDegrees>
            </Position>
            <AltitudeMeters>9.80000019073486328125</AltitudeMeters>
            <DistanceMeters>NAN</DistanceMeters>
          </Trackpoint>
          <Trackpoint>
            <Time>2022-07-15T09:22:04.000Z</Time>
            <Position>
              <LatitudeDegrees>43.37431319989264011383056640625</LatitudeDegrees>
              <LongitudeDegrees>-4.50317102484405040740966796875</LongitudeDegrees>
            </Position>
            <AltitudeMeters>10</AltitudeMeters>
            <DistanceMeters>NAN</DistanceMeters>
          </Trackpoint>
          <Trackpoint>
            <Time>2022-07-15T09:22:08.000Z</Time>
            <Position>
              <LatitudeDegrees>43.3744142018258571624755859375</LatitudeDegrees>
              <LongitudeDegrees>-4.5033888705074787139892578125</LongitudeDegrees>
            </Position>
            <AltitudeMeters>10</AltitudeMeters>
            <DistanceMeters>NAN</DistanceMeters>
          </Trackpoint>
          <Trackpoint>
            <Time>2022-07-15T09:22:11.000Z</Time>
            <Position>
              <LatitudeDegrees>43.374495171010494232177734375</LatitudeDegrees>
              <LongitudeDegrees>-4.50353823602199554443359375</LongitudeDegrees>
            </Position>
            <AltitudeMeters>9.3999996185302734375</AltitudeMeters>
            <DistanceMeters>NAN</DistanceMeters>
          </Trackpoint>
          <Trackpoint>
            <Time>2022-07-15T09:22:13.000Z</Time>
            <Position>
              <LatitudeDegrees>43.37454722262918949127197265625</LatitudeDegrees>
              <LongitudeDegrees>-4.50366773642599582672119140625</LongitudeDegrees>
            </Position>
            <AltitudeMeters>8.80000019073486328125</AltitudeMeters>
            <DistanceMeters>NAN</DistanceMeters>
          </Trackpoint>
          <Trackpoint>
            <Time>2022-07-15T09:22:14.000Z</Time>
            <Position>
              <LatitudeDegrees>43.37456331588327884674072265625</LatitudeDegrees>
              <LongitudeDegrees>-4.50373764149844646453857421875</LongitudeDegrees>
            </Position>
            <AltitudeMeters>8.6000003814697265625</AltitudeMeters>
            <DistanceMeters>NAN</DistanceMeters>
          </Trackpoint>
          <Trackpoint>
            <Time>2022-07-15T09:22:18.000Z</Time>
            <Position>
              <LatitudeDegrees>43.374613188207149505615234375</LatitudeDegrees>
              <LongitudeDegrees>-4.50391617603600025177001953125</LongitudeDegrees>
            </Position>
            <AltitudeMeters>8.6000003814697265625</AltitudeMeters>
            <DistanceMeters>NAN</DistanceMeters>
          </Trackpoint>
          <Trackpoint>
            <Time>2022-07-15T09:22:24.000Z</Time>
            <Position>
              <LatitudeDegrees>43.37462299503386020660400390625</LatitudeDegrees>
              <LongitudeDegrees>-4.50409412384033203125</LongitudeDegrees>
            </Position>
            <AltitudeMeters>9.6000003814697265625</AltitudeMeters>
            <DistanceMeters>NAN</DistanceMeters>
          </Trackpoint>
          <Trackpoint>
            <Time>2022-07-15T09:22:25.000Z</Time>
            <Position>
              <LatitudeDegrees>43.37462416850030422210693359375</LatitudeDegrees>
              <LongitudeDegrees>-4.50411834754049777984619140625</LongitudeDegrees>
            </Position>
            <AltitudeMeters>10</AltitudeMeters>
            <DistanceMeters>NAN</DistanceMeters>
          </Trackpoint>
          <Trackpoint>
            <Time>2022-07-15T09:22:27.000Z</Time>
            <Position>
              <LatitudeDegrees>43.374630622565746307373046875</LatitudeDegrees>
              <LongitudeDegrees>-4.50418020598590373992919921875</LongitudeDegrees>
            </Position>
            <AltitudeMeters>10.3999996185302734375</AltitudeMeters>
            <DistanceMeters>NAN</DistanceMeters>
          </Trackpoint>
          <Trackpoint>
            <Time>2022-07-15T09:22:29.000Z</Time>
            <Position>
              <LatitudeDegrees>43.37464478798210620880126953125</LatitudeDegrees>
              <LongitudeDegrees>-4.5042461715638637542724609375</LongitudeDegrees>
            </Position>
            <AltitudeMeters>10.6000003814697265625</AltitudeMeters>
            <DistanceMeters>NAN</DistanceMeters>
          </Trackpoint>
          <Trackpoint>
            <Time>2022-07-15T09:22:33.000Z</Time>
            <Position>
              <LatitudeDegrees>43.3746980130672454833984375</LatitudeDegrees>
              <LongitudeDegrees>-4.50443099252879619598388671875</LongitudeDegrees>
            </Position>
            <AltitudeMeters>10.19999980926513671875</AltitudeMeters>
            <DistanceMeters>NAN</DistanceMeters>
          </Trackpoint>
          <Trackpoint>
            <Time>2022-07-15T09:22:38.000Z</Time>
            <Position>
              <LatitudeDegrees>43.3747642301023006439208984375</LatitudeDegrees>
              <LongitudeDegrees>-4.5047628320753574371337890625</LongitudeDegrees>
            </Position>
            <AltitudeMeters>9.6000003814697265625</AltitudeMeters>
            <DistanceMeters>NAN</DistanceMeters>
          </Trackpoint>
          <Trackpoint>
            <Time>2022-07-15T09:22:43.000Z</Time>
            <Position>
              <LatitudeDegrees>43.3748356439173221588134765625</LatitudeDegrees>
              <LongitudeDegrees>-4.50500481761991977691650390625</LongitudeDegrees>
            </Position>
            <AltitudeMeters>9.6000003814697265625</AltitudeMeters>
            <DistanceMeters>NAN</DistanceMeters>
          </Trackpoint>
          <Trackpoint>
            <Time>2022-07-15T09:22:49.000Z</Time>
            <Position>
              <LatitudeDegrees>43.3748711831867694854736328125</LatitudeDegrees>
              <LongitudeDegrees>-4.50515887700021266937255859375</LongitudeDegrees>
            </Position>
            <AltitudeMeters>10.80000019073486328125</AltitudeMeters>
            <DistanceMeters>NAN</DistanceMeters>
          </Trackpoint>
          <Trackpoint>
            <Time>2022-07-15T09:22:53.000Z</Time>
            <Position>
              <LatitudeDegrees>43.374888785183429718017578125</LatitudeDegrees>
              <LongitudeDegrees>-4.50527773238718509674072265625</LongitudeDegrees>
            </Position>
            <AltitudeMeters>11.19999980926513671875</AltitudeMeters>
            <DistanceMeters>NAN</DistanceMeters>
          </Trackpoint>
          <Trackpoint>
            <Time>2022-07-15T09:22:56.000Z</Time>
            <Position>
              <LatitudeDegrees>43.374902866780757904052734375</LatitudeDegrees>
              <LongitudeDegrees>-4.50538787059485912322998046875</LongitudeDegrees>
            </Position>
            <AltitudeMeters>11.19999980926513671875</AltitudeMeters>
            <DistanceMeters>NAN</DistanceMeters>
          </Trackpoint>
          <Trackpoint>
            <Time>2022-07-15T09:23:02.000Z</Time>
            <Position>
              <LatitudeDegrees>43.3749412558972835540771484375</LatitudeDegrees>
              <LongitudeDegrees>-4.50572230853140354156494140625</LongitudeDegrees>
            </Position>
            <AltitudeMeters>10.6000003814697265625</AltitudeMeters>
            <DistanceMeters>NAN</DistanceMeters>
          </Trackpoint>
          <Trackpoint>
            <Time>2022-07-15T09:23:04.000Z</Time>
            <Position>
              <LatitudeDegrees>43.37495408020913600921630859375</LatitudeDegrees>
              <LongitudeDegrees>-4.5058511383831501007080078125</LongitudeDegrees>
            </Position>
            <AltitudeMeters>10.3999996185302734375</AltitudeMeters>
            <DistanceMeters>NAN</DistanceMeters>
          </Trackpoint>
          <Trackpoint>
            <Time>2022-07-15T09:23:07.000Z</Time>
            <Position>
              <LatitudeDegrees>43.37497226893901824951171875</LatitudeDegrees>
              <LongitudeDegrees>-4.50608222745358943939208984375</LongitudeDegrees>
            </Position>
            <AltitudeMeters>10</AltitudeMeters>
            <DistanceMeters>NAN</DistanceMeters>
          </Trackpoint>
          <Trackpoint>
            <Time>2022-07-15T09:23:08.000Z</Time>
            <Position>
              <LatitudeDegrees>43.37498023174703121185302734375</LatitudeDegrees>
              <LongitudeDegrees>-4.50616353191435337066650390625</LongitudeDegrees>
            </Position>
            <AltitudeMeters>10</AltitudeMeters>
            <DistanceMeters>NAN</DistanceMeters>
          </Trackpoint>
          <Trackpoint>
            <Time>2022-07-15T09:23:14.000Z</Time>
            <Position>
              <LatitudeDegrees>43.3750297687947750091552734375</LatitudeDegrees>
              <LongitudeDegrees>-4.50660928152501583099365234375</LongitudeDegrees>
            </Position>
            <AltitudeMeters>9</AltitudeMeters>
            <DistanceMeters>NAN</DistanceMeters>
          </Trackpoint>
          <Trackpoint>
            <Time>2022-07-15T09:23:15.000Z</Time>
            <Position>
              <LatitudeDegrees>43.3750317804515361785888671875</LatitudeDegrees>
              <LongitudeDegrees>-4.50667315162718296051025390625</LongitudeDegrees>
            </Position>
            <AltitudeMeters>8.80000019073486328125</AltitudeMeters>
            <DistanceMeters>NAN</DistanceMeters>
          </Trackpoint>
          <Trackpoint>
            <Time>2022-07-15T09:23:17.000Z</Time>
            <Position>
              <LatitudeDegrees>43.37502784095704555511474609375</LatitudeDegrees>
              <LongitudeDegrees>-4.50679049827158451080322265625</LongitudeDegrees>
            </Position>
            <AltitudeMeters>8.6000003814697265625</AltitudeMeters>
            <DistanceMeters>NAN</DistanceMeters>
          </Trackpoint>
          <Trackpoint>
            <Time>2022-07-15T09:23:19.000Z</Time>
            <Position>
              <LatitudeDegrees>43.37503957562148571014404296875</LatitudeDegrees>
              <LongitudeDegrees>-4.50687951408326625823974609375</LongitudeDegrees>
            </Position>
            <AltitudeMeters>8.3999996185302734375</AltitudeMeters>
            <DistanceMeters>NAN</DistanceMeters>
          </Trackpoint>
          <Trackpoint>
            <Time>2022-07-15T09:23:22.000Z</Time>
            <Position>
              <LatitudeDegrees>43.37504996918141841888427734375</LatitudeDegrees>
              <LongitudeDegrees>-4.50697288848459720611572265625</LongitudeDegrees>
            </Position>
            <AltitudeMeters>8.3999996185302734375</AltitudeMeters>
            <DistanceMeters>NAN</DistanceMeters>
          </Trackpoint>
          <Trackpoint>
            <Time>2022-07-15T09:23:24.000Z</Time>
            <Position>
              <LatitudeDegrees>43.3750525675714015960693359375</LatitudeDegrees>
              <LongitudeDegrees>-4.5070326514542102813720703125</LongitudeDegrees>
            </Position>
            <AltitudeMeters>8.19999980926513671875</AltitudeMeters>
            <DistanceMeters>NAN</DistanceMeters>
          </Trackpoint>
          <Trackpoint>
            <Time>2022-07-15T09:23:26.000Z</Time>
            <Position>
              <LatitudeDegrees>43.37505935691297054290771484375</LatitudeDegrees>
              <LongitudeDegrees>-4.50706425122916698455810546875</LongitudeDegrees>
            </Position>
            <AltitudeMeters>8</AltitudeMeters>
            <DistanceMeters>NAN</DistanceMeters>
          </Trackpoint>
          <Trackpoint>
            <Time>2022-07-15T09:23:27.000Z</Time>
            <Position>
              <LatitudeDegrees>43.37505952455103397369384765625</LatitudeDegrees>
              <LongitudeDegrees>-4.507069699466228485107421875</LongitudeDegrees>
            </Position>
            <AltitudeMeters>8</AltitudeMeters>
            <DistanceMeters>NAN</DistanceMeters>
          </Trackpoint>
          <Trackpoint>
            <Time>2022-07-15T09:23:28.000Z</Time>
            <Position>
              <LatitudeDegrees>43.37505952455103397369384765625</LatitudeDegrees>
              <LongitudeDegrees>-4.507069699466228485107421875</LongitudeDegrees>
            </Position>
            <AltitudeMeters>8</AltitudeMeters>
            <DistanceMeters>NAN</DistanceMeters>
          </Trackpoint>
          <Trackpoint>
            <Time>2022-07-15T09:23:29.000Z</Time>
            <Position>
              <LatitudeDegrees>43.37505952455103397369384765625</LatitudeDegrees>
              <LongitudeDegrees>-4.507069699466228485107421875</LongitudeDegrees>
            </Position>
            <AltitudeMeters>8</AltitudeMeters>
            <DistanceMeters>NAN</DistanceMeters>
          </Trackpoint>
          <Trackpoint>
            <Time>2022-07-15T09:23:39.000Z</Time>
            <Position>
              <LatitudeDegrees>43.37508316151797771453857421875</LatitudeDegrees>
              <LongitudeDegrees>-4.50717992149293422698974609375</LongitudeDegrees>
            </Position>
            <AltitudeMeters>7.80000019073486328125</AltitudeMeters>
            <DistanceMeters>NAN</DistanceMeters>
          </Trackpoint>
          <Trackpoint>
            <Time>2022-07-15T09:23:41.000Z</Time>
            <Position>
              <LatitudeDegrees>43.37511350400745868682861328125</LatitudeDegrees>
              <LongitudeDegrees>-4.507248401641845703125</LongitudeDegrees>
            </Position>
            <AltitudeMeters>7.599999904632568359375</AltitudeMeters>
            <DistanceMeters>NAN</DistanceMeters>
          </Trackpoint>
          <Trackpoint>
            <Time>2022-07-15T09:23:46.000Z</Time>
            <Position>
              <LatitudeDegrees>43.3751048706471920013427734375</LatitudeDegrees>
              <LongitudeDegrees>-4.50752726756036281585693359375</LongitudeDegrees>
            </Position>
            <AltitudeMeters>7.19999980926513671875</AltitudeMeters>
            <DistanceMeters>NAN</DistanceMeters>
          </Trackpoint>
          <Trackpoint>
            <Time>2022-07-15T09:23:48.000Z</Time>
            <Position>
              <LatitudeDegrees>43.37509724311530590057373046875</LatitudeDegrees>
              <LongitudeDegrees>-4.507651068270206451416015625</LongitudeDegrees>
            </Position>
            <AltitudeMeters>7</AltitudeMeters>
            <DistanceMeters>NAN</DistanceMeters>
          </Trackpoint>
          <Trackpoint>
            <Time>2022-07-15T09:23:51.000Z</Time>
            <Position>
              <LatitudeDegrees>43.375087268650531768798828125</LatitudeDegrees>
              <LongitudeDegrees>-4.507822059094905853271484375</LongitudeDegrees>
            </Position>
            <AltitudeMeters>6.80000019073486328125</AltitudeMeters>
            <DistanceMeters>NAN</DistanceMeters>
          </Trackpoint>
          <Trackpoint>
            <Time>2022-07-15T09:23:53.000Z</Time>
            <Position>
              <LatitudeDegrees>43.3750887773931026458740234375</LatitudeDegrees>
              <LongitudeDegrees>-4.50787696056067943572998046875</LongitudeDegrees>
            </Position>
            <AltitudeMeters>6.599999904632568359375</AltitudeMeters>
            <DistanceMeters>NAN</DistanceMeters>
          </Trackpoint>
          <Trackpoint>
            <Time>2022-07-15T09:23:56.000Z</Time>
            <Position>
              <LatitudeDegrees>43.375091291964054107666015625</LatitudeDegrees>
              <LongitudeDegrees>-4.50788634829223155975341796875</LongitudeDegrees>
            </Position>
            <AltitudeMeters>6.599999904632568359375</AltitudeMeters>
            <DistanceMeters>NAN</DistanceMeters>
          </Trackpoint>
          <Trackpoint>
            <Time>2022-07-15T09:26:35.000Z</Time>
            <Position>
              <LatitudeDegrees>43.3751467801630496978759765625</LatitudeDegrees>
              <LongitudeDegrees>-4.50804845429956912994384765625</LongitudeDegrees>
            </Position>
            <AltitudeMeters>4.599999904632568359375</AltitudeMeters>
            <DistanceMeters>NAN</DistanceMeters>
          </Trackpoint>
          <Trackpoint>
            <Time>2022-07-15T09:26:41.000Z</Time>
            <Position>
              <LatitudeDegrees>43.37515591643750667572021484375</LatitudeDegrees>
              <LongitudeDegrees>-4.5082312636077404022216796875</LongitudeDegrees>
            </Position>
            <AltitudeMeters>4.599999904632568359375</AltitudeMeters>
            <DistanceMeters>NAN</DistanceMeters>
          </Trackpoint>
          <Trackpoint>
            <Time>2022-07-15T09:26:43.000Z</Time>
            <Position>
              <LatitudeDegrees>43.37515658698976039886474609375</LatitudeDegrees>
              <LongitudeDegrees>-4.50828432105481624603271484375</LongitudeDegrees>
            </Position>
            <AltitudeMeters>4.400000095367431640625</AltitudeMeters>
            <DistanceMeters>NAN</DistanceMeters>
          </Trackpoint>
          <Trackpoint>
            <Time>2022-07-15T09:26:48.000Z</Time>
            <Position>
              <LatitudeDegrees>43.3751414157450199127197265625</LatitudeDegrees>
              <LongitudeDegrees>-4.50843050144612789154052734375</LongitudeDegrees>
            </Position>
            <AltitudeMeters>4.400000095367431640625</AltitudeMeters>
            <DistanceMeters>NAN</DistanceMeters>
          </Trackpoint>
          <Trackpoint>
            <Time>2022-07-15T09:26:57.000Z</Time>
            <Position>
              <LatitudeDegrees>43.3750790543854236602783203125</LatitudeDegrees>
              <LongitudeDegrees>-4.50875706039369106292724609375</LongitudeDegrees>
            </Position>
            <AltitudeMeters>4.599999904632568359375</AltitudeMeters>
            <DistanceMeters>NAN</DistanceMeters>
          </Trackpoint>
          <Trackpoint>
            <Time>2022-07-15T09:26:58.000Z</Time>
            <Position>
              <LatitudeDegrees>43.37507151067256927490234375</LatitudeDegrees>
              <LongitudeDegrees>-4.50880265794694423675537109375</LongitudeDegrees>
            </Position>
            <AltitudeMeters>4.599999904632568359375</AltitudeMeters>
            <DistanceMeters>NAN</DistanceMeters>
          </Trackpoint>
          <Trackpoint>
            <Time>2022-07-15T09:27:02.000Z</Time>
            <Position>
              <LatitudeDegrees>43.37505935691297054290771484375</LatitudeDegrees>
              <LongitudeDegrees>-4.5090000517666339874267578125</LongitudeDegrees>
            </Position>
            <AltitudeMeters>4.599999904632568359375</AltitudeMeters>
            <DistanceMeters>NAN</DistanceMeters>
          </Trackpoint>
          <Trackpoint>
            <Time>2022-07-15T09:27:04.000Z</Time>
            <Position>
              <LatitudeDegrees>43.37505801580846309661865234375</LatitudeDegrees>
              <LongitudeDegrees>-4.50909845530986785888671875</LongitudeDegrees>
            </Position>
            <AltitudeMeters>4.400000095367431640625</AltitudeMeters>
            <DistanceMeters>NAN</DistanceMeters>
          </Trackpoint>
          <Trackpoint>
            <Time>2022-07-15T09:27:10.000Z</Time>
            <Position>
              <LatitudeDegrees>43.37506975047290325164794921875</LatitudeDegrees>
              <LongitudeDegrees>-4.509346224367618560791015625</LongitudeDegrees>
            </Position>
            <AltitudeMeters>4.19999980926513671875</AltitudeMeters>
            <DistanceMeters>NAN</DistanceMeters>
          </Trackpoint>
          <Trackpoint>
            <Time>2022-07-15T09:27:14.000Z</Time>
            <Position>
              <LatitudeDegrees>43.3750837482511997222900390625</LatitudeDegrees>
              <LongitudeDegrees>-4.5094840228557586669921875</LongitudeDegrees>
            </Position>
            <AltitudeMeters>4.19999980926513671875</AltitudeMeters>
            <DistanceMeters>NAN</DistanceMeters>
          </Trackpoint>
          <Trackpoint>
            <Time>2022-07-15T09:27:16.000Z</Time>
            <Position>
              <LatitudeDegrees>43.37508383207023143768310546875</LatitudeDegrees>
              <LongitudeDegrees>-4.5095435343682765960693359375</LongitudeDegrees>
            </Position>
            <AltitudeMeters>4.19999980926513671875</AltitudeMeters>
            <DistanceMeters>NAN</DistanceMeters>
          </Trackpoint>
          <Trackpoint>
            <Time>2022-07-15T09:27:23.000Z</Time>
            <Position>
              <LatitudeDegrees>43.3750549145042896270751953125</LatitudeDegrees>
              <LongitudeDegrees>-4.50977194122970104217529296875</LongitudeDegrees>
            </Position>
            <AltitudeMeters>4.400000095367431640625</AltitudeMeters>
            <DistanceMeters>NAN</DistanceMeters>
          </Trackpoint>
          <Trackpoint>
            <Time>2022-07-15T09:27:30.000Z</Time>
            <Position>
              <LatitudeDegrees>43.3749972470104694366455078125</LatitudeDegrees>
              <LongitudeDegrees>-4.510016776621341705322265625</LongitudeDegrees>
            </Position>
            <AltitudeMeters>4.400000095367431640625</AltitudeMeters>
            <DistanceMeters>NAN</DistanceMeters>
          </Trackpoint>
          <Trackpoint>
            <Time>2022-07-15T09:27:35.000Z</Time>
            <Position>
              <LatitudeDegrees>43.3749744482338428497314453125</LatitudeDegrees>
              <LongitudeDegrees>-4.510264880955219268798828125</LongitudeDegrees>
            </Position>
            <AltitudeMeters>4.400000095367431640625</AltitudeMeters>
            <DistanceMeters>NAN</DistanceMeters>
          </Trackpoint>
          <Trackpoint>
            <Time>2022-07-15T09:27:36.000Z</Time>
            <Position>
              <LatitudeDegrees>43.374975286424160003662109375</LatitudeDegrees>
              <LongitudeDegrees>-4.5103166811168193817138671875</LongitudeDegrees>
            </Position>
            <AltitudeMeters>4.400000095367431640625</AltitudeMeters>
            <DistanceMeters>NAN</DistanceMeters>
          </Trackpoint>
          <Trackpoint>
            <Time>2022-07-15T09:27:41.000Z</Time>
            <Position>
              <LatitudeDegrees>43.37498425506055355072021484375</LatitudeDegrees>
              <LongitudeDegrees>-4.51052899472415447235107421875</LongitudeDegrees>
            </Position>
            <AltitudeMeters>4.400000095367431640625</AltitudeMeters>
            <DistanceMeters>NAN</DistanceMeters>
          </Trackpoint>
          <Trackpoint>
            <Time>2022-07-15T09:27:50.000Z</Time>
            <Position>
              <LatitudeDegrees>43.3749643899500370025634765625</LatitudeDegrees>
              <LongitudeDegrees>-4.51091355644166469573974609375</LongitudeDegrees>
            </Position>
            <AltitudeMeters>5</AltitudeMeters>
            <DistanceMeters>NAN</DistanceMeters>
          </Trackpoint>
          <Trackpoint>
            <Time>2022-07-15T09:27:54.000Z</Time>
            <Position>
              <LatitudeDegrees>43.374943099915981292724609375</LatitudeDegrees>
              <LongitudeDegrees>-4.51110030524432659149169921875</LongitudeDegrees>
            </Position>
            <AltitudeMeters>4.80000019073486328125</AltitudeMeters>
            <DistanceMeters>NAN</DistanceMeters>
          </Trackpoint>
          <Trackpoint>
            <Time>2022-07-15T09:27:57.000Z</Time>
            <Position>
              <LatitudeDegrees>43.37492491118609905242919921875</LatitudeDegrees>
              <LongitudeDegrees>-4.51124866493046283721923828125</LongitudeDegrees>
            </Position>
            <AltitudeMeters>4.80000019073486328125</AltitudeMeters>
            <DistanceMeters>NAN</DistanceMeters>
          </Trackpoint>
          <Trackpoint>
            <Time>2022-07-15T09:28:00.000Z</Time>
            <Position>
              <LatitudeDegrees>43.37492021732032299041748046875</LatitudeDegrees>
              <LongitudeDegrees>-4.51140917837619781494140625</LongitudeDegrees>
            </Position>
            <AltitudeMeters>4.80000019073486328125</AltitudeMeters>
            <DistanceMeters>NAN</DistanceMeters>
          </Trackpoint>
          <Trackpoint>
            <Time>2022-07-15T09:28:06.000Z</Time>
            <Position>
              <LatitudeDegrees>43.3748963288962841033935546875</LatitudeDegrees>
              <LongitudeDegrees>-4.511700533330440521240234375</LongitudeDegrees>
            </Position>
            <AltitudeMeters>5</AltitudeMeters>
            <DistanceMeters>NAN</DistanceMeters>
          </Trackpoint>
          <Trackpoint>
            <Time>2022-07-15T09:28:10.000Z</Time>
            <Position>
              <LatitudeDegrees>43.37488886900246143341064453125</LatitudeDegrees>
              <LongitudeDegrees>-4.5118958316743373870849609375</LongitudeDegrees>
            </Position>
            <AltitudeMeters>5</AltitudeMeters>
            <DistanceMeters>NAN</DistanceMeters>
          </Trackpoint>
          <Trackpoint>
            <Time>2022-07-15T09:28:17.000Z</Time>
            <Position>
              <LatitudeDegrees>43.3748614601790904998779296875</LatitudeDegrees>
              <LongitudeDegrees>-4.51226773671805858612060546875</LongitudeDegrees>
            </Position>
            <AltitudeMeters>5</AltitudeMeters>
            <DistanceMeters>NAN</DistanceMeters>
          </Trackpoint>
          <Trackpoint>
            <Time>2022-07-15T09:28:20.000Z</Time>
            <Position>
              <LatitudeDegrees>43.37484444491565227508544921875</LatitudeDegrees>
              <LongitudeDegrees>-4.51242305338382720947265625</LongitudeDegrees>
            </Position>
            <AltitudeMeters>5</AltitudeMeters>
            <DistanceMeters>NAN</DistanceMeters>
          </Trackpoint>
          <Trackpoint>
            <Time>2022-07-15T09:28:28.000Z</Time>
            <Position>
              <LatitudeDegrees>43.37482349015772342681884765625</LatitudeDegrees>
              <LongitudeDegrees>-4.5128037594258785247802734375</LongitudeDegrees>
            </Position>
            <AltitudeMeters>5.19999980926513671875</AltitudeMeters>
            <DistanceMeters>NAN</DistanceMeters>
          </Trackpoint>
          <Trackpoint>
            <Time>2022-07-15T09:28:30.000Z</Time>
            <Position>
              <LatitudeDegrees>43.37481460534036159515380859375</LatitudeDegrees>
              <LongitudeDegrees>-4.512900151312351226806640625</LongitudeDegrees>
            </Position>
            <AltitudeMeters>5.19999980926513671875</AltitudeMeters>
            <DistanceMeters>NAN</DistanceMeters>
          </Trackpoint>
          <Trackpoint>
            <Time>2022-07-15T09:28:35.000Z</Time>
            <Position>
              <LatitudeDegrees>43.3747997693717479705810546875</LatitudeDegrees>
              <LongitudeDegrees>-4.51312084682285785675048828125</LongitudeDegrees>
            </Position>
            <AltitudeMeters>5.19999980926513671875</AltitudeMeters>
            <DistanceMeters>NAN</DistanceMeters>
          </Trackpoint>
          <Trackpoint>
            <Time>2022-07-15T09:28:48.000Z</Time>
            <Position>
              <LatitudeDegrees>43.37476112879812717437744140625</LatitudeDegrees>
              <LongitudeDegrees>-4.51373188756406307220458984375</LongitudeDegrees>
            </Position>
            <AltitudeMeters>4.80000019073486328125</AltitudeMeters>
            <DistanceMeters>NAN</DistanceMeters>
          </Trackpoint>
          <Trackpoint>
            <Time>2022-07-15T09:28:50.000Z</Time>
            <Position>
              <LatitudeDegrees>43.3747561834752559661865234375</LatitudeDegrees>
              <LongitudeDegrees>-4.5138236694037914276123046875</LongitudeDegrees>
            </Position>
            <AltitudeMeters>5</AltitudeMeters>
            <DistanceMeters>NAN</DistanceMeters>
          </Trackpoint>
          <Trackpoint>
            <Time>2022-07-15T09:28:59.000Z</Time>
            <Position>
              <LatitudeDegrees>43.37475056760013103485107421875</LatitudeDegrees>
              <LongitudeDegrees>-4.51418258249759674072265625</LongitudeDegrees>
            </Position>
            <AltitudeMeters>5.19999980926513671875</AltitudeMeters>
            <DistanceMeters>NAN</DistanceMeters>
          </Trackpoint>
          <Trackpoint>
            <Time>2022-07-15T09:29:03.000Z</Time>
            <Position>
              <LatitudeDegrees>43.374727852642536163330078125</LatitudeDegrees>
              <LongitudeDegrees>-4.51432415284216403961181640625</LongitudeDegrees>
            </Position>
            <AltitudeMeters>5.19999980926513671875</AltitudeMeters>
            <DistanceMeters>NAN</DistanceMeters>
          </Trackpoint>
          <Trackpoint>
            <Time>2022-07-15T09:29:05.000Z</Time>
            <Position>
              <LatitudeDegrees>43.37472726590931415557861328125</LatitudeDegrees>
              <LongitudeDegrees>-4.51440118253231048583984375</LongitudeDegrees>
            </Position>
            <AltitudeMeters>5.19999980926513671875</AltitudeMeters>
            <DistanceMeters>NAN</DistanceMeters>
          </Trackpoint>
          <Trackpoint>
            <Time>2022-07-15T09:29:10.000Z</Time>
            <Position>
              <LatitudeDegrees>43.3747367374598979949951171875</LatitudeDegrees>
              <LongitudeDegrees>-4.51462824828922748565673828125</LongitudeDegrees>
            </Position>
            <AltitudeMeters>5</AltitudeMeters>
            <DistanceMeters>NAN</DistanceMeters>
          </Trackpoint>
          <Trackpoint>
            <Time>2022-07-15T09:29:11.000Z</Time>
            <Position>
              <LatitudeDegrees>43.37473179213702678680419921875</LatitudeDegrees>
              <LongitudeDegrees>-4.514675103127956390380859375</LongitudeDegrees>
            </Position>
            <AltitudeMeters>5</AltitudeMeters>
            <DistanceMeters>NAN</DistanceMeters>
          </Trackpoint>
          <Trackpoint>
            <Time>2022-07-15T09:29:12.000Z</Time>
            <Position>
              <LatitudeDegrees>43.37472173385322093963623046875</LatitudeDegrees>
              <LongitudeDegrees>-4.514720700681209564208984375</LongitudeDegrees>
            </Position>
            <AltitudeMeters>5</AltitudeMeters>
            <DistanceMeters>NAN</DistanceMeters>
          </Trackpoint>
          <Trackpoint>
            <Time>2022-07-15T09:29:18.000Z</Time>
            <Position>
              <LatitudeDegrees>43.37461126036942005157470703125</LatitudeDegrees>
              <LongitudeDegrees>-4.5149763487279415130615234375</LongitudeDegrees>
            </Position>
            <AltitudeMeters>4.80000019073486328125</AltitudeMeters>
            <DistanceMeters>NAN</DistanceMeters>
          </Trackpoint>
          <Trackpoint>
            <Time>2022-07-15T09:29:25.000Z</Time>
            <Position>
              <LatitudeDegrees>43.37458225898444652557373046875</LatitudeDegrees>
              <LongitudeDegrees>-4.51529444195330142974853515625</LongitudeDegrees>
            </Position>
            <AltitudeMeters>4.599999904632568359375</AltitudeMeters>
            <DistanceMeters>NAN</DistanceMeters>
          </Trackpoint>
          <Trackpoint>
            <Time>2022-07-15T09:29:28.000Z</Time>
            <Position>
              <LatitudeDegrees>43.3745764754712581634521484375</LatitudeDegrees>
              <LongitudeDegrees>-4.515454955399036407470703125</LongitudeDegrees>
            </Position>
            <AltitudeMeters>4.599999904632568359375</AltitudeMeters>
            <DistanceMeters>NAN</DistanceMeters>
          </Trackpoint>
          <Trackpoint>
            <Time>2022-07-15T09:29:34.000Z</Time>
            <Position>
              <LatitudeDegrees>43.37455057539045810699462890625</LatitudeDegrees>
              <LongitudeDegrees>-4.515755362808704376220703125</LongitudeDegrees>
            </Position>
            <AltitudeMeters>4.80000019073486328125</AltitudeMeters>
            <DistanceMeters>NAN</DistanceMeters>
          </Trackpoint>
          <Trackpoint>
            <Time>2022-07-15T09:29:41.000Z</Time>
            <Position>
              <LatitudeDegrees>43.3745382539927959442138671875</LatitudeDegrees>
              <LongitudeDegrees>-4.516120813786983489990234375</LongitudeDegrees>
            </Position>
            <AltitudeMeters>4.599999904632568359375</AltitudeMeters>
            <DistanceMeters>NAN</DistanceMeters>
          </Trackpoint>
          <Trackpoint>
            <Time>2022-07-15T09:29:46.000Z</Time>
            <Position>
              <LatitudeDegrees>43.3745067380368709564208984375</LatitudeDegrees>
              <LongitudeDegrees>-4.516351483762264251708984375</LongitudeDegrees>
            </Position>
            <AltitudeMeters>4.80000019073486328125</AltitudeMeters>
            <DistanceMeters>NAN</DistanceMeters>
          </Trackpoint>
          <Trackpoint>
            <Time>2022-07-15T09:29:47.000Z</Time>
            <Position>
              <LatitudeDegrees>43.3745017088949680328369140625</LatitudeDegrees>
              <LongitudeDegrees>-4.51638995669782161712646484375</LongitudeDegrees>
            </Position>
            <AltitudeMeters>4.80000019073486328125</AltitudeMeters>
            <DistanceMeters>NAN</DistanceMeters>
          </Trackpoint>
          <Trackpoint>
            <Time>2022-07-15T09:29:55.000Z</Time>
            <Position>
              <LatitudeDegrees>43.37448117323219776153564453125</LatitudeDegrees>
              <LongitudeDegrees>-4.51669941656291484832763671875</LongitudeDegrees>
            </Position>
            <AltitudeMeters>4.80000019073486328125</AltitudeMeters>
            <DistanceMeters>NAN</DistanceMeters>
          </Trackpoint>
          <Trackpoint>
            <Time>2022-07-15T09:30:00.000Z</Time>
            <Position>
              <LatitudeDegrees>43.37447279132902622222900390625</LatitudeDegrees>
              <LongitudeDegrees>-4.51691969297826290130615234375</LongitudeDegrees>
            </Position>
            <AltitudeMeters>4.80000019073486328125</AltitudeMeters>
            <DistanceMeters>NAN</DistanceMeters>
          </Trackpoint>
          <Trackpoint>
            <Time>2022-07-15T09:30:04.000Z</Time>
            <Position>
              <LatitudeDegrees>43.3744619786739349365234375</LatitudeDegrees>
              <LongitudeDegrees>-4.5170989818871021270751953125</LongitudeDegrees>
            </Position>
            <AltitudeMeters>4.80000019073486328125</AltitudeMeters>
            <DistanceMeters>NAN</DistanceMeters>
          </Trackpoint>
          <Trackpoint>
            <Time>2022-07-15T09:30:08.000Z</Time>
            <Position>
              <LatitudeDegrees>43.3744463883340358734130859375</LatitudeDegrees>
              <LongitudeDegrees>-4.51727340929210186004638671875</LongitudeDegrees>
            </Position>
            <AltitudeMeters>5</AltitudeMeters>
            <DistanceMeters>NAN</DistanceMeters>
          </Trackpoint>
          <Trackpoint>
            <Time>2022-07-15T09:30:12.000Z</Time>
            <Position>
              <LatitudeDegrees>43.374429456889629364013671875</LatitudeDegrees>
              <LongitudeDegrees>-4.51742378063499927520751953125</LongitudeDegrees>
            </Position>
            <AltitudeMeters>5.19999980926513671875</AltitudeMeters>
            <DistanceMeters>NAN</DistanceMeters>
          </Trackpoint>
          <Trackpoint>
            <Time>2022-07-15T09:30:21.000Z</Time>
            <Position>
              <LatitudeDegrees>43.374424092471599578857421875</LatitudeDegrees>
              <LongitudeDegrees>-4.51775520108640193939208984375</LongitudeDegrees>
            </Position>
            <AltitudeMeters>5.19999980926513671875</AltitudeMeters>
            <DistanceMeters>NAN</DistanceMeters>
          </Trackpoint>
          <Trackpoint>
            <Time>2022-07-15T09:30:29.000Z</Time>
            <Position>
              <LatitudeDegrees>43.37445787154138088226318359375</LatitudeDegrees>
              <LongitudeDegrees>-4.5180105976760387420654296875</LongitudeDegrees>
            </Position>
            <AltitudeMeters>5.599999904632568359375</AltitudeMeters>
            <DistanceMeters>NAN</DistanceMeters>
          </Trackpoint>
          <Trackpoint>
            <Time>2022-07-15T09:30:30.000Z</Time>
            <Position>
              <LatitudeDegrees>43.3744661696255207061767578125</LatitudeDegrees>
              <LongitudeDegrees>-4.5180260203778743743896484375</LongitudeDegrees>
            </Position>
            <AltitudeMeters>5.599999904632568359375</AltitudeMeters>
            <DistanceMeters>NAN</DistanceMeters>
          </Trackpoint>
          <Trackpoint>
            <Time>2022-07-15T09:30:34.000Z</Time>
            <Position>
              <LatitudeDegrees>43.374493159353733062744140625</LatitudeDegrees>
              <LongitudeDegrees>-4.518114365637302398681640625</LongitudeDegrees>
            </Position>
            <AltitudeMeters>5.80000019073486328125</AltitudeMeters>
            <DistanceMeters>NAN</DistanceMeters>
          </Trackpoint>
          <Trackpoint>
            <Time>2022-07-15T09:30:37.000Z</Time>
            <Position>
              <LatitudeDegrees>43.37450422346591949462890625</LatitudeDegrees>
              <LongitudeDegrees>-4.51817882247269153594970703125</LongitudeDegrees>
            </Position>
            <AltitudeMeters>5.80000019073486328125</AltitudeMeters>
            <DistanceMeters>NAN</DistanceMeters>
          </Trackpoint>
          <Trackpoint>
            <Time>2022-07-15T09:30:39.000Z</Time>
            <Position>
              <LatitudeDegrees>43.37449156679213047027587890625</LatitudeDegrees>
              <LongitudeDegrees>-4.518212936818599700927734375</LongitudeDegrees>
            </Position>
            <AltitudeMeters>6.19999980926513671875</AltitudeMeters>
            <DistanceMeters>NAN</DistanceMeters>
          </Trackpoint>
          <Trackpoint>
            <Time>2022-07-15T09:30:43.000Z</Time>
            <Position>
              <LatitudeDegrees>43.37452836334705352783203125</LatitudeDegrees>
              <LongitudeDegrees>-4.51831544749438762664794921875</LongitudeDegrees>
            </Position>
            <AltitudeMeters>6.400000095367431640625</AltitudeMeters>
            <DistanceMeters>NAN</DistanceMeters>
          </Trackpoint>
          <Trackpoint>
            <Time>2022-07-15T09:30:47.000Z</Time>
            <Position>
              <LatitudeDegrees>43.3745885454118251800537109375</LatitudeDegrees>
              <LongitudeDegrees>-4.5184229873120784759521484375</LongitudeDegrees>
            </Position>
            <AltitudeMeters>6.80000019073486328125</AltitudeMeters>
            <DistanceMeters>NAN</DistanceMeters>
          </Trackpoint>
          <Trackpoint>
            <Time>2022-07-15T09:30:50.000Z</Time>
            <Position>
              <LatitudeDegrees>43.37464026175439357757568359375</LatitudeDegrees>
              <LongitudeDegrees>-4.51850420795381069183349609375</LongitudeDegrees>
            </Position>
            <AltitudeMeters>6.80000019073486328125</AltitudeMeters>
            <DistanceMeters>NAN</DistanceMeters>
          </Trackpoint>
          <Trackpoint>
            <Time>2022-07-15T09:30:51.000Z</Time>
            <Position>
              <LatitudeDegrees>43.3746545948088169097900390625</LatitudeDegrees>
              <LongitudeDegrees>-4.51854108832776546478271484375</LongitudeDegrees>
            </Position>
            <AltitudeMeters>6.80000019073486328125</AltitudeMeters>
            <DistanceMeters>NAN</DistanceMeters>
          </Trackpoint>
          <Trackpoint>
            <Time>2022-07-15T09:31:02.000Z</Time>
            <Position>
              <LatitudeDegrees>43.374820388853549957275390625</LatitudeDegrees>
              <LongitudeDegrees>-4.518886841833591461181640625</LongitudeDegrees>
            </Position>
            <AltitudeMeters>6.599999904632568359375</AltitudeMeters>
            <DistanceMeters>NAN</DistanceMeters>
          </Trackpoint>
          <Trackpoint>
            <Time>2022-07-15T09:31:10.000Z</Time>
            <Position>
              <LatitudeDegrees>43.37490244768559932708740234375</LatitudeDegrees>
              <LongitudeDegrees>-4.5190445892512798309326171875</LongitudeDegrees>
            </Position>
            <AltitudeMeters>6.19999980926513671875</AltitudeMeters>
            <DistanceMeters>NAN</DistanceMeters>
          </Trackpoint>
          <Trackpoint>
            <Time>2022-07-15T09:31:11.000Z</Time>
            <Position>
              <LatitudeDegrees>43.37490244768559932708740234375</LatitudeDegrees>
              <LongitudeDegrees>-4.5190445892512798309326171875</LongitudeDegrees>
            </Position>
            <AltitudeMeters>6.19999980926513671875</AltitudeMeters>
            <DistanceMeters>NAN</DistanceMeters>
          </Trackpoint>
          <Trackpoint>
            <Time>2022-07-15T09:31:59.000Z</Time>
            <Position>
              <LatitudeDegrees>43.37491787038743495941162109375</LatitudeDegrees>
              <LongitudeDegrees>-4.51906286180019378662109375</LongitudeDegrees>
            </Position>
            <AltitudeMeters>6.19999980926513671875</AltitudeMeters>
            <DistanceMeters>NAN</DistanceMeters>
          </Trackpoint>
          <Trackpoint>
            <Time>2022-07-15T09:32:01.000Z</Time>
            <Position>
              <LatitudeDegrees>43.3749563433229923248291015625</LatitudeDegrees>
              <LongitudeDegrees>-4.5191079564392566680908203125</LongitudeDegrees>
            </Position>
            <AltitudeMeters>6.19999980926513671875</AltitudeMeters>
            <DistanceMeters>NAN</DistanceMeters>
          </Trackpoint>
          <Trackpoint>
            <Time>2022-07-15T09:32:04.000Z</Time>
            <Position>
              <LatitudeDegrees>43.37499448098242282867431640625</LatitudeDegrees>
              <LongitudeDegrees>-4.51919739134609699249267578125</LongitudeDegrees>
            </Position>
            <AltitudeMeters>6.19999980926513671875</AltitudeMeters>
            <DistanceMeters>NAN</DistanceMeters>
          </Trackpoint>
          <Trackpoint>
            <Time>2022-07-15T09:32:05.000Z</Time>
            <Position>
              <LatitudeDegrees>43.37499029003083705902099609375</LatitudeDegrees>
              <LongitudeDegrees>-4.51921499334275722503662109375</LongitudeDegrees>
            </Position>
            <AltitudeMeters>6.19999980926513671875</AltitudeMeters>
            <DistanceMeters>NAN</DistanceMeters>
          </Trackpoint>
          <Trackpoint>
            <Time>2022-07-15T09:32:07.000Z</Time>
            <Position>
              <LatitudeDegrees>43.3749744482338428497314453125</LatitudeDegrees>
              <LongitudeDegrees>-4.5192487724125385284423828125</LongitudeDegrees>
            </Position>
            <AltitudeMeters>6.400000095367431640625</AltitudeMeters>
            <DistanceMeters>NAN</DistanceMeters>
          </Trackpoint>
          <Trackpoint>
            <Time>2022-07-15T09:32:11.000Z</Time>
            <Position>
              <LatitudeDegrees>43.37494770996272563934326171875</LatitudeDegrees>
              <LongitudeDegrees>-4.51930317096412181854248046875</LongitudeDegrees>
            </Position>
            <AltitudeMeters>7.80000019073486328125</AltitudeMeters>
            <DistanceMeters>NAN</DistanceMeters>
          </Trackpoint>
          <Trackpoint>
            <Time>2022-07-15T09:32:15.000Z</Time>
            <Position>
              <LatitudeDegrees>43.3749479614198207855224609375</LatitudeDegrees>
              <LongitudeDegrees>-4.51931205578148365020751953125</LongitudeDegrees>
            </Position>
            <AltitudeMeters>8.80000019073486328125</AltitudeMeters>
            <DistanceMeters>NAN</DistanceMeters>
          </Trackpoint>
          <Trackpoint>
            <Time>2022-07-15T09:33:52.000Z</Time>
            <Position>
              <LatitudeDegrees>43.37473179213702678680419921875</LatitudeDegrees>
              <LongitudeDegrees>-4.520090483129024505615234375</LongitudeDegrees>
            </Position>
            <AltitudeMeters>18.799999237060546875</AltitudeMeters>
            <DistanceMeters>NAN</DistanceMeters>
          </Trackpoint>
          <Trackpoint>
            <Time>2022-07-15T09:33:53.000Z</Time>
            <Position>
              <LatitudeDegrees>43.37472743354737758636474609375</LatitudeDegrees>
              <LongitudeDegrees>-4.5201017148792743682861328125</LongitudeDegrees>
            </Position>
            <AltitudeMeters>19</AltitudeMeters>
            <DistanceMeters>NAN</DistanceMeters>
          </Trackpoint>
          <Trackpoint>
            <Time>2022-07-15T09:33:56.000Z</Time>
            <Position>
              <LatitudeDegrees>43.3747219853103160858154296875</LatitudeDegrees>
              <LongitudeDegrees>-4.52011965215206146240234375</LongitudeDegrees>
            </Position>
            <AltitudeMeters>19.3999996185302734375</AltitudeMeters>
            <DistanceMeters>NAN</DistanceMeters>
          </Trackpoint>
          <Trackpoint>
            <Time>2022-07-15T09:33:58.000Z</Time>
            <Position>
              <LatitudeDegrees>43.37471972219645977020263671875</LatitudeDegrees>
              <LongitudeDegrees>-4.5201432891190052032470703125</LongitudeDegrees>
            </Position>
            <AltitudeMeters>19.6000003814697265625</AltitudeMeters>
            <DistanceMeters>NAN</DistanceMeters>
          </Trackpoint>
          <Trackpoint>
            <Time>2022-07-15T09:33:59.000Z</Time>
            <Position>
              <LatitudeDegrees>43.3747196383774280548095703125</LatitudeDegrees>
              <LongitudeDegrees>-4.520155526697635650634765625</LongitudeDegrees>
            </Position>
            <AltitudeMeters>19.6000003814697265625</AltitudeMeters>
            <DistanceMeters>NAN</DistanceMeters>
          </Trackpoint>
          <Trackpoint>
            <Time>2022-07-15T09:34:01.000Z</Time>
            <Position>
              <LatitudeDegrees>43.374721817672252655029296875</LatitudeDegrees>
              <LongitudeDegrees>-4.52018226496875286102294921875</LongitudeDegrees>
            </Position>
            <AltitudeMeters>19.799999237060546875</AltitudeMeters>
            <DistanceMeters>NAN</DistanceMeters>
          </Trackpoint>
          <Trackpoint>
            <Time>2022-07-15T09:34:07.000Z</Time>
            <Position>
              <LatitudeDegrees>43.3747146092355251312255859375</LatitudeDegrees>
              <LongitudeDegrees>-4.5202066563069820404052734375</LongitudeDegrees>
            </Position>
            <AltitudeMeters>20.6000003814697265625</AltitudeMeters>
            <DistanceMeters>NAN</DistanceMeters>
          </Trackpoint>
          <Trackpoint>
            <Time>2022-07-15T09:34:15.000Z</Time>
            <Position>
              <LatitudeDegrees>43.37468636222183704376220703125</LatitudeDegrees>
              <LongitudeDegrees>-4.5202616415917873382568359375</LongitudeDegrees>
            </Position>
            <AltitudeMeters>21</AltitudeMeters>
            <DistanceMeters>NAN</DistanceMeters>
          </Trackpoint>
          <Trackpoint>
            <Time>2022-07-15T09:34:18.000Z</Time>
            <Position>
              <LatitudeDegrees>43.374676890671253204345703125</LatitudeDegrees>
              <LongitudeDegrees>-4.5203152857720851898193359375</LongitudeDegrees>
            </Position>
            <AltitudeMeters>21.3999996185302734375</AltitudeMeters>
            <DistanceMeters>NAN</DistanceMeters>
          </Trackpoint>
          <Trackpoint>
            <Time>2022-07-15T09:34:24.000Z</Time>
            <Position>
              <LatitudeDegrees>43.3746566064655780792236328125</LatitudeDegrees>
              <LongitudeDegrees>-4.5204322971403598785400390625</LongitudeDegrees>
            </Position>
            <AltitudeMeters>22</AltitudeMeters>
            <DistanceMeters>NAN</DistanceMeters>
          </Trackpoint>
          <Trackpoint>
            <Time>2022-07-15T09:34:27.000Z</Time>
            <Position>
              <LatitudeDegrees>43.374647386372089385986328125</LatitudeDegrees>
              <LongitudeDegrees>-4.5204785652458667755126953125</LongitudeDegrees>
            </Position>
            <AltitudeMeters>22.6000003814697265625</AltitudeMeters>
            <DistanceMeters>NAN</DistanceMeters>
          </Trackpoint>
          <Trackpoint>
            <Time>2022-07-15T09:34:31.000Z</Time>
            <Position>
              <LatitudeDegrees>43.37462299503386020660400390625</LatitudeDegrees>
              <LongitudeDegrees>-4.52054679393768310546875</LongitudeDegrees>
            </Position>
            <AltitudeMeters>23.200000762939453125</AltitudeMeters>
            <DistanceMeters>NAN</DistanceMeters>
          </Trackpoint>
          <Trackpoint>
            <Time>2022-07-15T09:34:37.000Z</Time>
            <Position>
              <LatitudeDegrees>43.3745945803821086883544921875</LatitudeDegrees>
              <LongitudeDegrees>-4.52064645476639270782470703125</LongitudeDegrees>
            </Position>
            <AltitudeMeters>23.799999237060546875</AltitudeMeters>
            <DistanceMeters>NAN</DistanceMeters>
          </Trackpoint>
          <Trackpoint>
            <Time>2022-07-15T09:34:39.000Z</Time>
            <Position>
              <LatitudeDegrees>43.3745865337550640106201171875</LatitudeDegrees>
              <LongitudeDegrees>-4.52068249695003032684326171875</LongitudeDegrees>
            </Position>
            <AltitudeMeters>24.200000762939453125</AltitudeMeters>
            <DistanceMeters>NAN</DistanceMeters>
          </Trackpoint>
          <Trackpoint>
            <Time>2022-07-15T09:34:46.000Z</Time>
            <Position>
              <LatitudeDegrees>43.3745687641203403472900390625</LatitudeDegrees>
              <LongitudeDegrees>-4.52080638147890567779541015625</LongitudeDegrees>
            </Position>
            <AltitudeMeters>24.799999237060546875</AltitudeMeters>
            <DistanceMeters>NAN</DistanceMeters>
          </Trackpoint>
          <Trackpoint>
            <Time>2022-07-15T09:34:50.000Z</Time>
            <Position>
              <LatitudeDegrees>43.37457622401416301727294921875</LatitudeDegrees>
              <LongitudeDegrees>-4.52088047750294208526611328125</LongitudeDegrees>
            </Position>
            <AltitudeMeters>25.3999996185302734375</AltitudeMeters>
            <DistanceMeters>NAN</DistanceMeters>
          </Trackpoint>
          <Trackpoint>
            <Time>2022-07-15T09:34:53.000Z</Time>
            <Position>
              <LatitudeDegrees>43.37457806803286075592041015625</LatitudeDegrees>
              <LongitudeDegrees>-4.52093630097806453704833984375</LongitudeDegrees>
            </Position>
            <AltitudeMeters>25.6000003814697265625</AltitudeMeters>
            <DistanceMeters>NAN</DistanceMeters>
          </Trackpoint>
          <Trackpoint>
            <Time>2022-07-15T09:34:59.000Z</Time>
            <Position>
              <LatitudeDegrees>43.3745650760829448699951171875</LatitudeDegrees>
              <LongitudeDegrees>-4.5210317708551883697509765625</LongitudeDegrees>
            </Position>
            <AltitudeMeters>26.3999996185302734375</AltitudeMeters>
            <DistanceMeters>NAN</DistanceMeters>
          </Trackpoint>
          <Trackpoint>
            <Time>2022-07-15T09:35:01.000Z</Time>
            <Position>
              <LatitudeDegrees>43.37456968612968921661376953125</LatitudeDegrees>
              <LongitudeDegrees>-4.5210577547550201416015625</LongitudeDegrees>
            </Position>
            <AltitudeMeters>26.6000003814697265625</AltitudeMeters>
            <DistanceMeters>NAN</DistanceMeters>
          </Trackpoint>
          <Trackpoint>
            <Time>2022-07-15T09:35:07.000Z</Time>
            <Position>
              <LatitudeDegrees>43.37456264533102512359619140625</LatitudeDegrees>
              <LongitudeDegrees>-4.52116797678172588348388671875</LongitudeDegrees>
            </Position>
            <AltitudeMeters>27.6000003814697265625</AltitudeMeters>
            <DistanceMeters>NAN</DistanceMeters>
          </Trackpoint>
          <Trackpoint>
            <Time>2022-07-15T09:35:08.000Z</Time>
            <Position>
              <LatitudeDegrees>43.37456750683486461639404296875</LatitudeDegrees>
              <LongitudeDegrees>-4.52118541114032268524169921875</LongitudeDegrees>
            </Position>
            <AltitudeMeters>27.6000003814697265625</AltitudeMeters>
            <DistanceMeters>NAN</DistanceMeters>
          </Trackpoint>
          <Trackpoint>
            <Time>2022-07-15T09:35:09.000Z</Time>
            <Position>
              <LatitudeDegrees>43.37456859648227691650390625</LatitudeDegrees>
              <LongitudeDegrees>-4.52120468951761722564697265625</LongitudeDegrees>
            </Position>
            <AltitudeMeters>27.799999237060546875</AltitudeMeters>
            <DistanceMeters>NAN</DistanceMeters>
          </Trackpoint>
          <Trackpoint>
            <Time>2022-07-15T09:35:16.000Z</Time>
            <Position>
              <LatitudeDegrees>43.37458762340247631072998046875</LatitudeDegrees>
              <LongitudeDegrees>-4.5213224552571773529052734375</LongitudeDegrees>
            </Position>
            <AltitudeMeters>28.799999237060546875</AltitudeMeters>
            <DistanceMeters>NAN</DistanceMeters>
          </Trackpoint>
          <Trackpoint>
            <Time>2022-07-15T09:35:17.000Z</Time>
            <Position>
              <LatitudeDegrees>43.37458695285022258758544921875</LatitudeDegrees>
              <LongitudeDegrees>-4.5213382132351398468017578125</LongitudeDegrees>
            </Position>
            <AltitudeMeters>29</AltitudeMeters>
            <DistanceMeters>NAN</DistanceMeters>
          </Trackpoint>
          <Trackpoint>
            <Time>2022-07-15T09:35:22.000Z</Time>
            <Position>
              <LatitudeDegrees>43.3745982684195041656494140625</LatitudeDegrees>
              <LongitudeDegrees>-4.52143125236034393310546875</LongitudeDegrees>
            </Position>
            <AltitudeMeters>29.6000003814697265625</AltitudeMeters>
            <DistanceMeters>NAN</DistanceMeters>
          </Trackpoint>
          <Trackpoint>
            <Time>2022-07-15T09:35:23.000Z</Time>
            <Position>
              <LatitudeDegrees>43.37460153736174106597900390625</LatitudeDegrees>
              <LongitudeDegrees>-4.52145044691860675811767578125</LongitudeDegrees>
            </Position>
            <AltitudeMeters>29.799999237060546875</AltitudeMeters>
            <DistanceMeters>NAN</DistanceMeters>
          </Trackpoint>
          <Trackpoint>
            <Time>2022-07-15T09:35:25.000Z</Time>
            <Position>
              <LatitudeDegrees>43.3745982684195041656494140625</LatitudeDegrees>
              <LongitudeDegrees>-4.52148363925516605377197265625</LongitudeDegrees>
            </Position>
            <AltitudeMeters>30</AltitudeMeters>
            <DistanceMeters>NAN</DistanceMeters>
          </Trackpoint>
          <Trackpoint>
            <Time>2022-07-15T09:35:31.000Z</Time>
            <Position>
              <LatitudeDegrees>43.374589718878269195556640625</LatitudeDegrees>
              <LongitudeDegrees>-4.52158816158771514892578125</LongitudeDegrees>
            </Position>
            <AltitudeMeters>31</AltitudeMeters>
            <DistanceMeters>NAN</DistanceMeters>
          </Trackpoint>
          <Trackpoint>
            <Time>2022-07-15T09:35:33.000Z</Time>
            <Position>
              <LatitudeDegrees>43.37459483183920383453369140625</LatitudeDegrees>
              <LongitudeDegrees>-4.52162462286651134490966796875</LongitudeDegrees>
            </Position>
            <AltitudeMeters>31.200000762939453125</AltitudeMeters>
            <DistanceMeters>NAN</DistanceMeters>
          </Trackpoint>
          <Trackpoint>
            <Time>2022-07-15T09:35:38.000Z</Time>
            <Position>
              <LatitudeDegrees>43.374594412744045257568359375</LatitudeDegrees>
              <LongitudeDegrees>-4.52170223928987979888916015625</LongitudeDegrees>
            </Position>
            <AltitudeMeters>32</AltitudeMeters>
            <DistanceMeters>NAN</DistanceMeters>
          </Trackpoint>
          <Trackpoint>
            <Time>2022-07-15T09:35:41.000Z</Time>
            <Position>
              <LatitudeDegrees>43.37459231726825237274169921875</LatitudeDegrees>
              <LongitudeDegrees>-4.52174683101475238800048828125</LongitudeDegrees>
            </Position>
            <AltitudeMeters>32.40000152587890625</AltitudeMeters>
            <DistanceMeters>NAN</DistanceMeters>
          </Trackpoint>
          <Trackpoint>
            <Time>2022-07-15T09:35:45.000Z</Time>
            <Position>
              <LatitudeDegrees>43.3745969273149967193603515625</LatitudeDegrees>
              <LongitudeDegrees>-4.52181480824947357177734375</LongitudeDegrees>
            </Position>
            <AltitudeMeters>33.200000762939453125</AltitudeMeters>
            <DistanceMeters>NAN</DistanceMeters>
          </Trackpoint>
          <Trackpoint>
            <Time>2022-07-15T09:35:49.000Z</Time>
            <Position>
              <LatitudeDegrees>43.374589383602142333984375</LatitudeDegrees>
              <LongitudeDegrees>-4.5218803547322750091552734375</LongitudeDegrees>
            </Position>
            <AltitudeMeters>33.799999237060546875</AltitudeMeters>
            <DistanceMeters>NAN</DistanceMeters>
          </Trackpoint>
          <Trackpoint>
            <Time>2022-07-15T09:35:54.000Z</Time>
            <Position>
              <LatitudeDegrees>43.3745717816054821014404296875</LatitudeDegrees>
              <LongitudeDegrees>-4.52195185236632823944091796875</LongitudeDegrees>
            </Position>
            <AltitudeMeters>34.40000152587890625</AltitudeMeters>
            <DistanceMeters>NAN</DistanceMeters>
          </Trackpoint>
          <Trackpoint>
            <Time>2022-07-15T09:35:58.000Z</Time>
            <Position>
              <LatitudeDegrees>43.37457261979579925537109375</LatitudeDegrees>
              <LongitudeDegrees>-4.5220094360411167144775390625</LongitudeDegrees>
            </Position>
            <AltitudeMeters>34.799999237060546875</AltitudeMeters>
            <DistanceMeters>NAN</DistanceMeters>
          </Trackpoint>
          <Trackpoint>
            <Time>2022-07-15T09:36:00.000Z</Time>
            <Position>
              <LatitudeDegrees>43.3745751343667507171630859375</LatitudeDegrees>
              <LongitudeDegrees>-4.52204438857734203338623046875</LongitudeDegrees>
            </Position>
            <AltitudeMeters>35.200000762939453125</AltitudeMeters>
            <DistanceMeters>NAN</DistanceMeters>
          </Trackpoint>
          <Trackpoint>
            <Time>2022-07-15T09:36:01.000Z</Time>
            <Position>
              <LatitudeDegrees>43.3745717816054821014404296875</LatitudeDegrees>
              <LongitudeDegrees>-4.52206165529787540435791015625</LongitudeDegrees>
            </Position>
            <AltitudeMeters>35.40000152587890625</AltitudeMeters>
            <DistanceMeters>NAN</DistanceMeters>
          </Trackpoint>
          <Trackpoint>
            <Time>2022-07-15T09:36:05.000Z</Time>
            <Position>
              <LatitudeDegrees>43.37456247769296169281005859375</LatitudeDegrees>
              <LongitudeDegrees>-4.52212770469486713409423828125</LongitudeDegrees>
            </Position>
            <AltitudeMeters>36</AltitudeMeters>
            <DistanceMeters>NAN</DistanceMeters>
          </Trackpoint>
          <Trackpoint>
            <Time>2022-07-15T09:36:09.000Z</Time>
            <Position>
              <LatitudeDegrees>43.37454856373369693756103515625</LatitudeDegrees>
              <LongitudeDegrees>-4.52219576574862003326416015625</LongitudeDegrees>
            </Position>
            <AltitudeMeters>36.59999847412109375</AltitudeMeters>
            <DistanceMeters>NAN</DistanceMeters>
          </Trackpoint>
          <Trackpoint>
            <Time>2022-07-15T09:36:12.000Z</Time>
            <Position>
              <LatitudeDegrees>43.37455040775239467620849609375</LatitudeDegrees>
              <LongitudeDegrees>-4.522241614758968353271484375</LongitudeDegrees>
            </Position>
            <AltitudeMeters>36.799999237060546875</AltitudeMeters>
            <DistanceMeters>NAN</DistanceMeters>
          </Trackpoint>
          <Trackpoint>
            <Time>2022-07-15T09:36:14.000Z</Time>
            <Position>
              <LatitudeDegrees>43.3745385892689228057861328125</LatitudeDegrees>
              <LongitudeDegrees>-4.52227455563843250274658203125</LongitudeDegrees>
            </Position>
            <AltitudeMeters>37.200000762939453125</AltitudeMeters>
            <DistanceMeters>NAN</DistanceMeters>
          </Trackpoint>
          <Trackpoint>
            <Time>2022-07-15T09:36:17.000Z</Time>
            <Position>
              <LatitudeDegrees>43.3745292015373706817626953125</LatitudeDegrees>
              <LongitudeDegrees>-4.52232434414327144622802734375</LongitudeDegrees>
            </Position>
            <AltitudeMeters>37.59999847412109375</AltitudeMeters>
            <DistanceMeters>NAN</DistanceMeters>
          </Trackpoint>
          <Trackpoint>
            <Time>2022-07-15T09:36:22.000Z</Time>
            <Position>
              <LatitudeDegrees>43.37451151572167873382568359375</LatitudeDegrees>
              <LongitudeDegrees>-4.5224037207663059234619140625</LongitudeDegrees>
            </Position>
            <AltitudeMeters>38.59999847412109375</AltitudeMeters>
            <DistanceMeters>NAN</DistanceMeters>
          </Trackpoint>
          <Trackpoint>
            <Time>2022-07-15T09:36:23.000Z</Time>
            <Position>
              <LatitudeDegrees>43.37450967170298099517822265625</LatitudeDegrees>
              <LongitudeDegrees>-4.52242358587682247161865234375</LongitudeDegrees>
            </Position>
            <AltitudeMeters>38.59999847412109375</AltitudeMeters>
            <DistanceMeters>NAN</DistanceMeters>
          </Trackpoint>
          <Trackpoint>
            <Time>2022-07-15T09:36:29.000Z</Time>
            <Position>
              <LatitudeDegrees>43.37451092898845672607421875</LatitudeDegrees>
              <LongitudeDegrees>-4.522519893944263458251953125</LongitudeDegrees>
            </Position>
            <AltitudeMeters>40</AltitudeMeters>
            <DistanceMeters>NAN</DistanceMeters>
          </Trackpoint>
          <Trackpoint>
            <Time>2022-07-15T09:36:31.000Z</Time>
            <Position>
              <LatitudeDegrees>43.37451771833002567291259765625</LatitudeDegrees>
              <LongitudeDegrees>-4.52255350537598133087158203125</LongitudeDegrees>
            </Position>
            <AltitudeMeters>40.40000152587890625</AltitudeMeters>
            <DistanceMeters>NAN</DistanceMeters>
          </Trackpoint>
          <Trackpoint>
            <Time>2022-07-15T09:36:36.000Z</Time>
            <Position>
              <LatitudeDegrees>43.37452375330030918121337890625</LatitudeDegrees>
              <LongitudeDegrees>-4.5226357318460941314697265625</LongitudeDegrees>
            </Position>
            <AltitudeMeters>41</AltitudeMeters>
            <DistanceMeters>NAN</DistanceMeters>
          </Trackpoint>
          <Trackpoint>
            <Time>2022-07-15T09:36:40.000Z</Time>
            <Position>
              <LatitudeDegrees>43.3745328895747661590576171875</LatitudeDegrees>
              <LongitudeDegrees>-4.5227004401385784149169921875</LongitudeDegrees>
            </Position>
            <AltitudeMeters>41.59999847412109375</AltitudeMeters>
            <DistanceMeters>NAN</DistanceMeters>
          </Trackpoint>
          <Trackpoint>
            <Time>2022-07-15T09:36:43.000Z</Time>
            <Position>
              <LatitudeDegrees>43.3745422773063182830810546875</LatitudeDegrees>
              <LongitudeDegrees>-4.52275584451854228973388671875</LongitudeDegrees>
            </Position>
            <AltitudeMeters>42.200000762939453125</AltitudeMeters>
            <DistanceMeters>NAN</DistanceMeters>
          </Trackpoint>
          <Trackpoint>
            <Time>2022-07-15T09:36:47.000Z</Time>
            <Position>
              <LatitudeDegrees>43.3745513297617435455322265625</LatitudeDegrees>
              <LongitudeDegrees>-4.5228318683803081512451171875</LongitudeDegrees>
            </Position>
            <AltitudeMeters>42.799999237060546875</AltitudeMeters>
            <DistanceMeters>NAN</DistanceMeters>
          </Trackpoint>
          <Trackpoint>
            <Time>2022-07-15T09:36:50.000Z</Time>
            <Position>
              <LatitudeDegrees>43.37455543689429759979248046875</LatitudeDegrees>
              <LongitudeDegrees>-4.52287905849516391754150390625</LongitudeDegrees>
            </Position>
            <AltitudeMeters>43.40000152587890625</AltitudeMeters>
            <DistanceMeters>NAN</DistanceMeters>
          </Trackpoint>
          <Trackpoint>
            <Time>2022-07-15T09:36:52.000Z</Time>
            <Position>
              <LatitudeDegrees>43.37455543689429759979248046875</LatitudeDegrees>
              <LongitudeDegrees>-4.52287905849516391754150390625</LongitudeDegrees>
            </Position>
            <AltitudeMeters>43.59999847412109375</AltitudeMeters>
            <DistanceMeters>NAN</DistanceMeters>
          </Trackpoint>
          <Trackpoint>
            <Time>2022-07-15T09:39:38.000Z</Time>
            <Position>
              <LatitudeDegrees>43.37453967891633510589599609375</LatitudeDegrees>
              <LongitudeDegrees>-4.52292650006711483001708984375</LongitudeDegrees>
            </Position>
            <AltitudeMeters>44</AltitudeMeters>
            <DistanceMeters>NAN</DistanceMeters>
          </Trackpoint>
          <Trackpoint>
            <Time>2022-07-15T09:39:41.000Z</Time>
            <Position>
              <LatitudeDegrees>43.3745451271533966064453125</LatitudeDegrees>
              <LongitudeDegrees>-4.52298559248447418212890625</LongitudeDegrees>
            </Position>
            <AltitudeMeters>44.40000152587890625</AltitudeMeters>
            <DistanceMeters>NAN</DistanceMeters>
          </Trackpoint>
          <Trackpoint>
            <Time>2022-07-15T09:39:45.000Z</Time>
            <Position>
              <LatitudeDegrees>43.374558873474597930908203125</LatitudeDegrees>
              <LongitudeDegrees>-4.523056335747241973876953125</LongitudeDegrees>
            </Position>
            <AltitudeMeters>45</AltitudeMeters>
            <DistanceMeters>NAN</DistanceMeters>
          </Trackpoint>
          <Trackpoint>
            <Time>2022-07-15T09:39:48.000Z</Time>
            <Position>
              <LatitudeDegrees>43.3745801635086536407470703125</LatitudeDegrees>
              <LongitudeDegrees>-4.52310419641435146331787109375</LongitudeDegrees>
            </Position>
            <AltitudeMeters>45.40000152587890625</AltitudeMeters>
            <DistanceMeters>NAN</DistanceMeters>
          </Trackpoint>
          <Trackpoint>
            <Time>2022-07-15T09:39:52.000Z</Time>
            <Position>
              <LatitudeDegrees>43.37458477355539798736572265625</LatitudeDegrees>
              <LongitudeDegrees>-4.52316236682236194610595703125</LongitudeDegrees>
            </Position>
            <AltitudeMeters>45.799999237060546875</AltitudeMeters>
            <DistanceMeters>NAN</DistanceMeters>
          </Trackpoint>
          <Trackpoint>
            <Time>2022-07-15T09:39:54.000Z</Time>
            <Position>
              <LatitudeDegrees>43.374591730535030364990234375</LatitudeDegrees>
              <LongitudeDegrees>-4.52318583615124225616455078125</LongitudeDegrees>
            </Position>
            <AltitudeMeters>46.200000762939453125</AltitudeMeters>
            <DistanceMeters>NAN</DistanceMeters>
          </Trackpoint>
          <Trackpoint>
            <Time>2022-07-15T09:39:56.000Z</Time>
            <Position>
              <LatitudeDegrees>43.37459868751466274261474609375</LatitudeDegrees>
              <LongitudeDegrees>-4.52321886084973812103271484375</LongitudeDegrees>
            </Position>
            <AltitudeMeters>46.40000152587890625</AltitudeMeters>
            <DistanceMeters>NAN</DistanceMeters>
          </Trackpoint>
          <Trackpoint>
            <Time>2022-07-15T09:39:57.000Z</Time>
            <Position>
              <LatitudeDegrees>43.3745975978672504425048828125</LatitudeDegrees>
              <LongitudeDegrees>-4.523234032094478607177734375</LongitudeDegrees>
            </Position>
            <AltitudeMeters>46.59999847412109375</AltitudeMeters>
            <DistanceMeters>NAN</DistanceMeters>
          </Trackpoint>
          <Trackpoint>
            <Time>2022-07-15T09:40:04.000Z</Time>
            <Position>
              <LatitudeDegrees>43.37461595423519611358642578125</LatitudeDegrees>
              <LongitudeDegrees>-4.52334366738796234130859375</LongitudeDegrees>
            </Position>
            <AltitudeMeters>47.40000152587890625</AltitudeMeters>
            <DistanceMeters>NAN</DistanceMeters>
          </Trackpoint>
          <Trackpoint>
            <Time>2022-07-15T09:40:05.000Z</Time>
            <Position>
              <LatitudeDegrees>43.37462048046290874481201171875</LatitudeDegrees>
              <LongitudeDegrees>-4.523359425365924835205078125</LongitudeDegrees>
            </Position>
            <AltitudeMeters>47.59999847412109375</AltitudeMeters>
            <DistanceMeters>NAN</DistanceMeters>
          </Trackpoint>
          <Trackpoint>
            <Time>2022-07-15T09:40:11.000Z</Time>
            <Position>
              <LatitudeDegrees>43.37462081573903560638427734375</LatitudeDegrees>
              <LongitudeDegrees>-4.52345891855657100677490234375</LongitudeDegrees>
            </Position>
            <AltitudeMeters>48.40000152587890625</AltitudeMeters>
            <DistanceMeters>NAN</DistanceMeters>
          </Trackpoint>
          <Trackpoint>
            <Time>2022-07-15T09:40:12.000Z</Time>
            <Position>
              <LatitudeDegrees>43.37461821734905242919921875</LatitudeDegrees>
              <LongitudeDegrees>-4.52347568236291408538818359375</LongitudeDegrees>
            </Position>
            <AltitudeMeters>48.40000152587890625</AltitudeMeters>
            <DistanceMeters>NAN</DistanceMeters>
          </Trackpoint>
          <Trackpoint>
            <Time>2022-07-15T09:40:15.000Z</Time>
            <Position>
              <LatitudeDegrees>43.37462198920547962188720703125</LatitudeDegrees>
              <LongitudeDegrees>-4.52353418804705142974853515625</LongitudeDegrees>
            </Position>
            <AltitudeMeters>48.799999237060546875</AltitudeMeters>
            <DistanceMeters>NAN</DistanceMeters>
          </Trackpoint>
          <Trackpoint>
            <Time>2022-07-15T09:40:18.000Z</Time>
            <Position>
              <LatitudeDegrees>43.37463003583252429962158203125</LatitudeDegrees>
              <LongitudeDegrees>-4.52358313836157321929931640625</LongitudeDegrees>
            </Position>
            <AltitudeMeters>49</AltitudeMeters>
            <DistanceMeters>NAN</DistanceMeters>
          </Trackpoint>
          <Trackpoint>
            <Time>2022-07-15T09:40:21.000Z</Time>
            <Position>
              <LatitudeDegrees>43.374637998640537261962890625</LatitudeDegrees>
              <LongitudeDegrees>-4.5236331783235073089599609375</LongitudeDegrees>
            </Position>
            <AltitudeMeters>49.40000152587890625</AltitudeMeters>
            <DistanceMeters>NAN</DistanceMeters>
          </Trackpoint>
          <Trackpoint>
            <Time>2022-07-15T09:40:22.000Z</Time>
            <Position>
              <LatitudeDegrees>43.37464294396340847015380859375</LatitudeDegrees>
              <LongitudeDegrees>-4.523649774491786956787109375</LongitudeDegrees>
            </Position>
            <AltitudeMeters>49.59999847412109375</AltitudeMeters>
            <DistanceMeters>NAN</DistanceMeters>
          </Trackpoint>
          <Trackpoint>
            <Time>2022-07-15T09:40:24.000Z</Time>
            <Position>
              <LatitudeDegrees>43.37464864365756511688232421875</LatitudeDegrees>
              <LongitudeDegrees>-4.52367760241031646728515625</LongitudeDegrees>
            </Position>
            <AltitudeMeters>49.799999237060546875</AltitudeMeters>
            <DistanceMeters>NAN</DistanceMeters>
          </Trackpoint>
          <Trackpoint>
            <Time>2022-07-15T09:40:27.000Z</Time>
            <Position>
              <LatitudeDegrees>43.37464327923953533172607421875</LatitudeDegrees>
              <LongitudeDegrees>-4.52372278086841106414794921875</LongitudeDegrees>
            </Position>
            <AltitudeMeters>50.59999847412109375</AltitudeMeters>
            <DistanceMeters>NAN</DistanceMeters>
          </Trackpoint>
          <Trackpoint>
            <Time>2022-07-15T09:40:29.000Z</Time>
            <Position>
              <LatitudeDegrees>43.3746351487934589385986328125</LatitudeDegrees>
              <LongitudeDegrees>-4.52375312335789203643798828125</LongitudeDegrees>
            </Position>
            <AltitudeMeters>50.799999237060546875</AltitudeMeters>
            <DistanceMeters>NAN</DistanceMeters>
          </Trackpoint>
          <Trackpoint>
            <Time>2022-07-15T09:40:32.000Z</Time>
            <Position>
              <LatitudeDegrees>43.37463472969830036163330078125</LatitudeDegrees>
              <LongitudeDegrees>-4.52380375005304813385009765625</LongitudeDegrees>
            </Position>
            <AltitudeMeters>51.40000152587890625</AltitudeMeters>
            <DistanceMeters>NAN</DistanceMeters>
          </Trackpoint>
          <Trackpoint>
            <Time>2022-07-15T09:40:33.000Z</Time>
            <Position>
              <LatitudeDegrees>43.3746331371366977691650390625</LatitudeDegrees>
              <LongitudeDegrees>-4.52381866984069347381591796875</LongitudeDegrees>
            </Position>
            <AltitudeMeters>51.59999847412109375</AltitudeMeters>
            <DistanceMeters>NAN</DistanceMeters>
          </Trackpoint>
          <Trackpoint>
            <Time>2022-07-15T09:40:38.000Z</Time>
            <Position>
              <LatitudeDegrees>43.3746442012488842010498046875</LatitudeDegrees>
              <LongitudeDegrees>-4.52389963902533054351806640625</LongitudeDegrees>
            </Position>
            <AltitudeMeters>52.59999847412109375</AltitudeMeters>
            <DistanceMeters>NAN</DistanceMeters>
          </Trackpoint>
          <Trackpoint>
            <Time>2022-07-15T09:40:39.000Z</Time>
            <Position>
              <LatitudeDegrees>43.374645374715328216552734375</LatitudeDegrees>
              <LongitudeDegrees>-4.5239148102700710296630859375</LongitudeDegrees>
            </Position>
            <AltitudeMeters>52.59999847412109375</AltitudeMeters>
            <DistanceMeters>NAN</DistanceMeters>
          </Trackpoint>
          <Trackpoint>
            <Time>2022-07-15T09:40:40.000Z</Time>
            <Position>
              <LatitudeDegrees>43.3746438659727573394775390625</LatitudeDegrees>
              <LongitudeDegrees>-4.52393165789544582366943359375</LongitudeDegrees>
            </Position>
            <AltitudeMeters>53</AltitudeMeters>
            <DistanceMeters>NAN</DistanceMeters>
          </Trackpoint>
          <Trackpoint>
            <Time>2022-07-15T09:40:43.000Z</Time>
            <Position>
              <LatitudeDegrees>43.37464679963886737823486328125</LatitudeDegrees>
              <LongitudeDegrees>-4.52397859655320644378662109375</LongitudeDegrees>
            </Position>
            <AltitudeMeters>53.799999237060546875</AltitudeMeters>
            <DistanceMeters>NAN</DistanceMeters>
          </Trackpoint>
          <Trackpoint>
            <Time>2022-07-15T09:40:49.000Z</Time>
            <Position>
              <LatitudeDegrees>43.374642692506313323974609375</LatitudeDegrees>
              <LongitudeDegrees>-4.52407188713550567626953125</LongitudeDegrees>
            </Position>
            <AltitudeMeters>55</AltitudeMeters>
            <DistanceMeters>NAN</DistanceMeters>
          </Trackpoint>
          <Trackpoint>
            <Time>2022-07-15T09:40:50.000Z</Time>
            <Position>
              <LatitudeDegrees>43.37464763782918453216552734375</LatitudeDegrees>
              <LongitudeDegrees>-4.524082951247692108154296875</LongitudeDegrees>
            </Position>
            <AltitudeMeters>55.200000762939453125</AltitudeMeters>
            <DistanceMeters>NAN</DistanceMeters>
          </Trackpoint>
          <Trackpoint>
            <Time>2022-07-15T09:40:51.000Z</Time>
            <Position>
              <LatitudeDegrees>43.37465048767626285552978515625</LatitudeDegrees>
              <LongitudeDegrees>-4.52409468591213226318359375</LongitudeDegrees>
            </Position>
            <AltitudeMeters>55.40000152587890625</AltitudeMeters>
            <DistanceMeters>NAN</DistanceMeters>
          </Trackpoint>
          <Trackpoint>
            <Time>2022-07-15T09:40:55.000Z</Time>
            <Position>
              <LatitudeDegrees>43.3746499009430408477783203125</LatitudeDegrees>
              <LongitudeDegrees>-4.52415830455720424652099609375</LongitudeDegrees>
            </Position>
            <AltitudeMeters>56.200000762939453125</AltitudeMeters>
            <DistanceMeters>NAN</DistanceMeters>
          </Trackpoint>
          <Trackpoint>
            <Time>2022-07-15T09:40:57.000Z</Time>
            <Position>
              <LatitudeDegrees>43.37464143522083759307861328125</LatitudeDegrees>
              <LongitudeDegrees>-4.52419166453182697296142578125</LongitudeDegrees>
            </Position>
            <AltitudeMeters>56.40000152587890625</AltitudeMeters>
            <DistanceMeters>NAN</DistanceMeters>
          </Trackpoint>
          <Trackpoint>
            <Time>2022-07-15T09:40:58.000Z</Time>
            <Position>
              <LatitudeDegrees>43.3746401779353618621826171875</LatitudeDegrees>
              <LongitudeDegrees>-4.52420867979526519775390625</LongitudeDegrees>
            </Position>
            <AltitudeMeters>56.59999847412109375</AltitudeMeters>
            <DistanceMeters>NAN</DistanceMeters>
          </Trackpoint>
          <Trackpoint>
            <Time>2022-07-15T09:41:00.000Z</Time>
            <Position>
              <LatitudeDegrees>43.37464026175439357757568359375</LatitudeDegrees>
              <LongitudeDegrees>-4.52424488961696624755859375</LongitudeDegrees>
            </Position>
            <AltitudeMeters>57</AltitudeMeters>
            <DistanceMeters>NAN</DistanceMeters>
          </Trackpoint>
          <Trackpoint>
            <Time>2022-07-15T09:41:01.000Z</Time>
            <Position>
              <LatitudeDegrees>43.3746443688869476318359375</LatitudeDegrees>
              <LongitudeDegrees>-4.524261988699436187744140625</LongitudeDegrees>
            </Position>
            <AltitudeMeters>57.200000762939453125</AltitudeMeters>
            <DistanceMeters>NAN</DistanceMeters>
          </Trackpoint>
          <Trackpoint>
            <Time>2022-07-15T09:41:03.000Z</Time>
            <Position>
              <LatitudeDegrees>43.37464646436274051666259765625</LatitudeDegrees>
              <LongitudeDegrees>-4.5243010483682155609130859375</LongitudeDegrees>
            </Position>
            <AltitudeMeters>57.59999847412109375</AltitudeMeters>
            <DistanceMeters>NAN</DistanceMeters>
          </Trackpoint>
          <Trackpoint>
            <Time>2022-07-15T09:41:06.000Z</Time>
            <Position>
              <LatitudeDegrees>43.37463908828794956207275390625</LatitudeDegrees>
              <LongitudeDegrees>-4.5243556983768939971923828125</LongitudeDegrees>
            </Position>
            <AltitudeMeters>58</AltitudeMeters>
            <DistanceMeters>NAN</DistanceMeters>
          </Trackpoint>
          <Trackpoint>
            <Time>2022-07-15T09:41:09.000Z</Time>
            <Position>
              <LatitudeDegrees>43.374638669192790985107421875</LatitudeDegrees>
              <LongitudeDegrees>-4.5244049839675426483154296875</LongitudeDegrees>
            </Position>
            <AltitudeMeters>58.40000152587890625</AltitudeMeters>
            <DistanceMeters>NAN</DistanceMeters>
          </Trackpoint>
          <Trackpoint>
            <Time>2022-07-15T09:41:13.000Z</Time>
            <Position>
              <LatitudeDegrees>43.374647386372089385986328125</LatitudeDegrees>
              <LongitudeDegrees>-4.5244700275361537933349609375</LongitudeDegrees>
            </Position>
            <AltitudeMeters>58.799999237060546875</AltitudeMeters>
            <DistanceMeters>NAN</DistanceMeters>
          </Trackpoint>
          <Trackpoint>
            <Time>2022-07-15T09:41:16.000Z</Time>
            <Position>
              <LatitudeDegrees>43.37465618737041950225830078125</LatitudeDegrees>
              <LongitudeDegrees>-4.5245186425745487213134765625</LongitudeDegrees>
            </Position>
            <AltitudeMeters>59.40000152587890625</AltitudeMeters>
            <DistanceMeters>NAN</DistanceMeters>
          </Trackpoint>
          <Trackpoint>
            <Time>2022-07-15T09:41:17.000Z</Time>
            <Position>
              <LatitudeDegrees>43.374654091894626617431640625</LatitudeDegrees>
              <LongitudeDegrees>-4.52452928759157657623291015625</LongitudeDegrees>
            </Position>
            <AltitudeMeters>59.40000152587890625</AltitudeMeters>
            <DistanceMeters>NAN</DistanceMeters>
          </Trackpoint>
          <Trackpoint>
            <Time>2022-07-15T09:41:20.000Z</Time>
            <Position>
              <LatitudeDegrees>43.3746435306966304779052734375</LatitudeDegrees>
              <LongitudeDegrees>-4.52458150684833526611328125</LongitudeDegrees>
            </Position>
            <AltitudeMeters>59.799999237060546875</AltitudeMeters>
            <DistanceMeters>NAN</DistanceMeters>
          </Trackpoint>
          <Trackpoint>
            <Time>2022-07-15T09:41:23.000Z</Time>
            <Position>
              <LatitudeDegrees>43.37464177049696445465087890625</LatitudeDegrees>
              <LongitudeDegrees>-4.5246363244950771331787109375</LongitudeDegrees>
            </Position>
            <AltitudeMeters>60.40000152587890625</AltitudeMeters>
            <DistanceMeters>NAN</DistanceMeters>
          </Trackpoint>
          <Trackpoint>
            <Time>2022-07-15T09:41:29.000Z</Time>
            <Position>
              <LatitudeDegrees>43.37464847601950168609619140625</LatitudeDegrees>
              <LongitudeDegrees>-4.524746127426624298095703125</LongitudeDegrees>
            </Position>
            <AltitudeMeters>61.200000762939453125</AltitudeMeters>
            <DistanceMeters>NAN</DistanceMeters>
          </Trackpoint>
          <Trackpoint>
            <Time>2022-07-15T09:41:30.000Z</Time>
            <Position>
              <LatitudeDegrees>43.3746472187340259552001953125</LatitudeDegrees>
              <LongitudeDegrees>-4.52476322650909423828125</LongitudeDegrees>
            </Position>
            <AltitudeMeters>61.40000152587890625</AltitudeMeters>
            <DistanceMeters>NAN</DistanceMeters>
          </Trackpoint>
          <Trackpoint>
            <Time>2022-07-15T09:41:31.000Z</Time>
            <Position>
              <LatitudeDegrees>43.374648056924343109130859375</LatitudeDegrees>
              <LongitudeDegrees>-4.52477839775383472442626953125</LongitudeDegrees>
            </Position>
            <AltitudeMeters>61.59999847412109375</AltitudeMeters>
            <DistanceMeters>NAN</DistanceMeters>
          </Trackpoint>
          <Trackpoint>
            <Time>2022-07-15T09:41:32.000Z</Time>
            <Position>
              <LatitudeDegrees>43.37464797310531139373779296875</LatitudeDegrees>
              <LongitudeDegrees>-4.524791054427623748779296875</LongitudeDegrees>
            </Position>
            <AltitudeMeters>61.799999237060546875</AltitudeMeters>
            <DistanceMeters>NAN</DistanceMeters>
          </Trackpoint>
          <Trackpoint>
            <Time>2022-07-15T09:41:34.000Z</Time>
            <Position>
              <LatitudeDegrees>43.37464780546724796295166015625</LatitudeDegrees>
              <LongitudeDegrees>-4.52482198365032672882080078125</LongitudeDegrees>
            </Position>
            <AltitudeMeters>62</AltitudeMeters>
            <DistanceMeters>NAN</DistanceMeters>
          </Trackpoint>
          <Trackpoint>
            <Time>2022-07-15T09:41:35.000Z</Time>
            <Position>
              <LatitudeDegrees>43.3746485598385334014892578125</LatitudeDegrees>
              <LongitudeDegrees>-4.52483975328505039215087890625</LongitudeDegrees>
            </Position>
            <AltitudeMeters>62</AltitudeMeters>
            <DistanceMeters>NAN</DistanceMeters>
          </Trackpoint>
          <Trackpoint>
            <Time>2022-07-15T09:41:36.000Z</Time>
            <Position>
              <LatitudeDegrees>43.3746497333049774169921875</LatitudeDegrees>
              <LongitudeDegrees>-4.52485643327236175537109375</LongitudeDegrees>
            </Position>
            <AltitudeMeters>62.200000762939453125</AltitudeMeters>
            <DistanceMeters>NAN</DistanceMeters>
          </Trackpoint>
          <Trackpoint>
            <Time>2022-07-15T09:41:39.000Z</Time>
            <Position>
              <LatitudeDegrees>43.37465015240013599395751953125</LatitudeDegrees>
              <LongitudeDegrees>-4.524909742176532745361328125</LongitudeDegrees>
            </Position>
            <AltitudeMeters>62.40000152587890625</AltitudeMeters>
            <DistanceMeters>NAN</DistanceMeters>
          </Trackpoint>
          <Trackpoint>
            <Time>2022-07-15T09:41:43.000Z</Time>
            <Position>
              <LatitudeDegrees>43.3746552653610706329345703125</LatitudeDegrees>
              <LongitudeDegrees>-4.5249756239354610443115234375</LongitudeDegrees>
            </Position>
            <AltitudeMeters>62.59999847412109375</AltitudeMeters>
            <DistanceMeters>NAN</DistanceMeters>
          </Trackpoint>
          <Trackpoint>
            <Time>2022-07-15T09:41:49.000Z</Time>
            <Position>
              <LatitudeDegrees>43.374646045267581939697265625</LatitudeDegrees>
              <LongitudeDegrees>-4.5250725187361240386962890625</LongitudeDegrees>
            </Position>
            <AltitudeMeters>63.200000762939453125</AltitudeMeters>
            <DistanceMeters>NAN</DistanceMeters>
          </Trackpoint>
          <Trackpoint>
            <Time>2022-07-15T09:41:53.000Z</Time>
            <Position>
              <LatitudeDegrees>43.3746431954205036163330078125</LatitudeDegrees>
              <LongitudeDegrees>-4.525143094360828399658203125</LongitudeDegrees>
            </Position>
            <AltitudeMeters>63.799999237060546875</AltitudeMeters>
            <DistanceMeters>NAN</DistanceMeters>
          </Trackpoint>
          <Trackpoint>
            <Time>2022-07-15T09:41:59.000Z</Time>
            <Position>
              <LatitudeDegrees>43.374653756618499755859375</LatitudeDegrees>
              <LongitudeDegrees>-4.52523370273411273956298828125</LongitudeDegrees>
            </Position>
            <AltitudeMeters>64.40000152587890625</AltitudeMeters>
            <DistanceMeters>NAN</DistanceMeters>
          </Trackpoint>
          <Trackpoint>
            <Time>2022-07-15T09:42:01.000Z</Time>
            <Position>
              <LatitudeDegrees>43.37465601973235607147216796875</LatitudeDegrees>
              <LongitudeDegrees>-4.5252639614045619964599609375</LongitudeDegrees>
            </Position>
            <AltitudeMeters>64.8000030517578125</AltitudeMeters>
            <DistanceMeters>NAN</DistanceMeters>
          </Trackpoint>
          <Trackpoint>
            <Time>2022-07-15T09:42:08.000Z</Time>
            <Position>
              <LatitudeDegrees>43.37466121651232242584228515625</LatitudeDegrees>
              <LongitudeDegrees>-4.5253761112689971923828125</LongitudeDegrees>
            </Position>
            <AltitudeMeters>65.8000030517578125</AltitudeMeters>
            <DistanceMeters>NAN</DistanceMeters>
          </Trackpoint>
          <Trackpoint>
            <Time>2022-07-15T09:42:15.000Z</Time>
            <Position>
              <LatitudeDegrees>43.37464696727693080902099609375</LatitudeDegrees>
              <LongitudeDegrees>-4.525508880615234375</LongitudeDegrees>
            </Position>
            <AltitudeMeters>66.8000030517578125</AltitudeMeters>
            <DistanceMeters>NAN</DistanceMeters>
          </Trackpoint>
          <Trackpoint>
            <Time>2022-07-15T09:42:17.000Z</Time>
            <Position>
              <LatitudeDegrees>43.374648056924343109130859375</LatitudeDegrees>
              <LongitudeDegrees>-4.5255462639033794403076171875</LongitudeDegrees>
            </Position>
            <AltitudeMeters>67.1999969482421875</AltitudeMeters>
            <DistanceMeters>NAN</DistanceMeters>
          </Trackpoint>
          <Trackpoint>
            <Time>2022-07-15T09:42:20.000Z</Time>
            <Position>
              <LatitudeDegrees>43.37465316988527774810791015625</LatitudeDegrees>
              <LongitudeDegrees>-4.52560518868267536163330078125</LongitudeDegrees>
            </Position>
            <AltitudeMeters>68</AltitudeMeters>
            <DistanceMeters>NAN</DistanceMeters>
          </Trackpoint>
          <Trackpoint>
            <Time>2022-07-15T09:42:25.000Z</Time>
            <Position>
              <LatitudeDegrees>43.374652750790119171142578125</LatitudeDegrees>
              <LongitudeDegrees>-4.52567987143993377685546875</LongitudeDegrees>
            </Position>
            <AltitudeMeters>68.59999847412109375</AltitudeMeters>
            <DistanceMeters>NAN</DistanceMeters>
          </Trackpoint>
          <Trackpoint>
            <Time>2022-07-15T09:42:27.000Z</Time>
            <Position>
              <LatitudeDegrees>43.37465132586658000946044921875</LatitudeDegrees>
              <LongitudeDegrees>-4.5257149077951908111572265625</LongitudeDegrees>
            </Position>
            <AltitudeMeters>69</AltitudeMeters>
            <DistanceMeters>NAN</DistanceMeters>
          </Trackpoint>
          <Trackpoint>
            <Time>2022-07-15T09:42:34.000Z</Time>
            <Position>
              <LatitudeDegrees>43.374656103551387786865234375</LatitudeDegrees>
              <LongitudeDegrees>-4.5258396305143833160400390625</LongitudeDegrees>
            </Position>
            <AltitudeMeters>70.1999969482421875</AltitudeMeters>
            <DistanceMeters>NAN</DistanceMeters>
          </Trackpoint>
          <Trackpoint>
            <Time>2022-07-15T09:42:40.000Z</Time>
            <Position>
              <LatitudeDegrees>43.374661467969417572021484375</LatitudeDegrees>
              <LongitudeDegrees>-4.52593727968633174896240234375</LongitudeDegrees>
            </Position>
            <AltitudeMeters>71.1999969482421875</AltitudeMeters>
            <DistanceMeters>NAN</DistanceMeters>
          </Trackpoint>
          <Trackpoint>
            <Time>2022-07-15T09:42:44.000Z</Time>
            <Position>
              <LatitudeDegrees>43.37465174496173858642578125</LatitudeDegrees>
              <LongitudeDegrees>-4.52600450254976749420166015625</LongitudeDegrees>
            </Position>
            <AltitudeMeters>71.8000030517578125</AltitudeMeters>
            <DistanceMeters>NAN</DistanceMeters>
          </Trackpoint>
          <Trackpoint>
            <Time>2022-07-15T09:42:48.000Z</Time>
            <Position>
              <LatitudeDegrees>43.37464964948594570159912109375</LatitudeDegrees>
              <LongitudeDegrees>-4.52607147395610809326171875</LongitudeDegrees>
            </Position>
            <AltitudeMeters>72.1999969482421875</AltitudeMeters>
            <DistanceMeters>NAN</DistanceMeters>
          </Trackpoint>
          <Trackpoint>
            <Time>2022-07-15T09:42:52.000Z</Time>
            <Position>
              <LatitudeDegrees>43.374652080237865447998046875</LatitudeDegrees>
              <LongitudeDegrees>-4.52614464797079563140869140625</LongitudeDegrees>
            </Position>
            <AltitudeMeters>72.8000030517578125</AltitudeMeters>
            <DistanceMeters>NAN</DistanceMeters>
          </Trackpoint>
          <Trackpoint>
            <Time>2022-07-15T09:42:55.000Z</Time>
            <Position>
              <LatitudeDegrees>43.3746505714952945709228515625</LatitudeDegrees>
              <LongitudeDegrees>-4.52619862742722034454345703125</LongitudeDegrees>
            </Position>
            <AltitudeMeters>73.40000152587890625</AltitudeMeters>
            <DistanceMeters>NAN</DistanceMeters>
          </Trackpoint>
          <Trackpoint>
            <Time>2022-07-15T09:43:02.000Z</Time>
            <Position>
              <LatitudeDegrees>43.37465115822851657867431640625</LatitudeDegrees>
              <LongitudeDegrees>-4.52631329186260700225830078125</LongitudeDegrees>
            </Position>
            <AltitudeMeters>74.40000152587890625</AltitudeMeters>
            <DistanceMeters>NAN</DistanceMeters>
          </Trackpoint>
          <Trackpoint>
            <Time>2022-07-15T09:43:03.000Z</Time>
            <Position>
              <LatitudeDegrees>43.3746535889804363250732421875</LatitudeDegrees>
              <LongitudeDegrees>-4.52633164823055267333984375</LongitudeDegrees>
            </Position>
            <AltitudeMeters>74.59999847412109375</AltitudeMeters>
            <DistanceMeters>NAN</DistanceMeters>
          </Trackpoint>
          <Trackpoint>
            <Time>2022-07-15T09:43:12.000Z</Time>
            <Position>
              <LatitudeDegrees>43.37466205470263957977294921875</LatitudeDegrees>
              <LongitudeDegrees>-4.52648855745792388916015625</LongitudeDegrees>
            </Position>
            <AltitudeMeters>75.40000152587890625</AltitudeMeters>
            <DistanceMeters>NAN</DistanceMeters>
          </Trackpoint>
          <Trackpoint>
            <Time>2022-07-15T09:43:13.000Z</Time>
            <Position>
              <LatitudeDegrees>43.3746626414358615875244140625</LatitudeDegrees>
              <LongitudeDegrees>-4.5265031419694423675537109375</LongitudeDegrees>
            </Position>
            <AltitudeMeters>75.59999847412109375</AltitudeMeters>
            <DistanceMeters>NAN</DistanceMeters>
          </Trackpoint>
          <Trackpoint>
            <Time>2022-07-15T09:43:20.000Z</Time>
            <Position>
              <LatitudeDegrees>43.37465048767626285552978515625</LatitudeDegrees>
              <LongitudeDegrees>-4.5265685208141803741455078125</LongitudeDegrees>
            </Position>
            <AltitudeMeters>76.1999969482421875</AltitudeMeters>
            <DistanceMeters>NAN</DistanceMeters>
          </Trackpoint>
          <Trackpoint>
            <Time>2022-07-15T09:43:55.000Z</Time>
            <Position>
              <LatitudeDegrees>43.37463506497442722320556640625</LatitudeDegrees>
              <LongitudeDegrees>-4.52661587856709957122802734375</LongitudeDegrees>
            </Position>
            <AltitudeMeters>76.1999969482421875</AltitudeMeters>
            <DistanceMeters>NAN</DistanceMeters>
          </Trackpoint>
          <Trackpoint>
            <Time>2022-07-15T09:43:56.000Z</Time>
            <Position>
              <LatitudeDegrees>43.37462953291833400726318359375</LatitudeDegrees>
              <LongitudeDegrees>-4.5266392640769481658935546875</LongitudeDegrees>
            </Position>
            <AltitudeMeters>76.1999969482421875</AltitudeMeters>
            <DistanceMeters>NAN</DistanceMeters>
          </Trackpoint>
          <Trackpoint>
            <Time>2022-07-15T09:43:58.000Z</Time>
            <Position>
              <LatitudeDegrees>43.37461955845355987548828125</LatitudeDegrees>
              <LongitudeDegrees>-4.52668125741183757781982421875</LongitudeDegrees>
            </Position>
            <AltitudeMeters>76.59999847412109375</AltitudeMeters>
            <DistanceMeters>NAN</DistanceMeters>
          </Trackpoint>
          <Trackpoint>
            <Time>2022-07-15T09:44:02.000Z</Time>
            <Position>
              <LatitudeDegrees>43.3745996095240116119384765625</LatitudeDegrees>
              <LongitudeDegrees>-4.52676373533904552459716796875</LongitudeDegrees>
            </Position>
            <AltitudeMeters>77</AltitudeMeters>
            <DistanceMeters>NAN</DistanceMeters>
          </Trackpoint>
          <Trackpoint>
            <Time>2022-07-15T09:44:04.000Z</Time>
            <Position>
              <LatitudeDegrees>43.374597094953060150146484375</LatitudeDegrees>
              <LongitudeDegrees>-4.526791982352733612060546875</LongitudeDegrees>
            </Position>
            <AltitudeMeters>77.1999969482421875</AltitudeMeters>
            <DistanceMeters>NAN</DistanceMeters>
          </Trackpoint>
          <Trackpoint>
            <Time>2022-07-15T09:44:09.000Z</Time>
            <Position>
              <LatitudeDegrees>43.37458200752735137939453125</LatitudeDegrees>
              <LongitudeDegrees>-4.52686498872935771942138671875</LongitudeDegrees>
            </Position>
            <AltitudeMeters>77.59999847412109375</AltitudeMeters>
            <DistanceMeters>NAN</DistanceMeters>
          </Trackpoint>
          <Trackpoint>
            <Time>2022-07-15T09:44:13.000Z</Time>
            <Position>
              <LatitudeDegrees>43.3745746314525604248046875</LatitudeDegrees>
              <LongitudeDegrees>-4.52693304978311061859130859375</LongitudeDegrees>
            </Position>
            <AltitudeMeters>78.1999969482421875</AltitudeMeters>
            <DistanceMeters>NAN</DistanceMeters>
          </Trackpoint>
          <Trackpoint>
            <Time>2022-07-15T09:44:14.000Z</Time>
            <Position>
              <LatitudeDegrees>43.37457354180514812469482421875</LatitudeDegrees>
              <LongitudeDegrees>-4.5269500650465488433837890625</LongitudeDegrees>
            </Position>
            <AltitudeMeters>78.1999969482421875</AltitudeMeters>
            <DistanceMeters>NAN</DistanceMeters>
          </Trackpoint>
          <Trackpoint>
            <Time>2022-07-15T09:44:18.000Z</Time>
            <Position>
              <LatitudeDegrees>43.37456080131232738494873046875</LatitudeDegrees>
              <LongitudeDegrees>-4.52702365815639495849609375</LongitudeDegrees>
            </Position>
            <AltitudeMeters>78.8000030517578125</AltitudeMeters>
            <DistanceMeters>NAN</DistanceMeters>
          </Trackpoint>
          <Trackpoint>
            <Time>2022-07-15T09:44:20.000Z</Time>
            <Position>
              <LatitudeDegrees>43.3745566941797733306884765625</LatitudeDegrees>
              <LongitudeDegrees>-4.52705911360681056976318359375</LongitudeDegrees>
            </Position>
            <AltitudeMeters>79</AltitudeMeters>
            <DistanceMeters>NAN</DistanceMeters>
          </Trackpoint>
          <Trackpoint>
            <Time>2022-07-15T09:44:21.000Z</Time>
            <Position>
              <LatitudeDegrees>43.37455627508461475372314453125</LatitudeDegrees>
              <LongitudeDegrees>-4.5270739495754241943359375</LongitudeDegrees>
            </Position>
            <AltitudeMeters>79</AltitudeMeters>
            <DistanceMeters>NAN</DistanceMeters>
          </Trackpoint>
          <Trackpoint>
            <Time>2022-07-15T09:44:23.000Z</Time>
            <Position>
              <LatitudeDegrees>43.37454873137176036834716796875</LatitudeDegrees>
              <LongitudeDegrees>-4.52710504643619060516357421875</LongitudeDegrees>
            </Position>
            <AltitudeMeters>79.1999969482421875</AltitudeMeters>
            <DistanceMeters>NAN</DistanceMeters>
          </Trackpoint>
          <Trackpoint>
            <Time>2022-07-15T09:44:25.000Z</Time>
            <Position>
              <LatitudeDegrees>43.37454454042017459869384765625</LatitudeDegrees>
              <LongitudeDegrees>-4.5271344669163227081298828125</LongitudeDegrees>
            </Position>
            <AltitudeMeters>79.59999847412109375</AltitudeMeters>
            <DistanceMeters>NAN</DistanceMeters>
          </Trackpoint>
          <Trackpoint>
            <Time>2022-07-15T09:44:26.000Z</Time>
            <Position>
              <LatitudeDegrees>43.37454403750598430633544921875</LatitudeDegrees>
              <LongitudeDegrees>-4.527148716151714324951171875</LongitudeDegrees>
            </Position>
            <AltitudeMeters>79.59999847412109375</AltitudeMeters>
            <DistanceMeters>NAN</DistanceMeters>
          </Trackpoint>
          <Trackpoint>
            <Time>2022-07-15T09:44:28.000Z</Time>
            <Position>
              <LatitudeDegrees>43.37454454042017459869384765625</LatitudeDegrees>
              <LongitudeDegrees>-4.52717863954603672027587890625</LongitudeDegrees>
            </Position>
            <AltitudeMeters>79.8000030517578125</AltitudeMeters>
            <DistanceMeters>NAN</DistanceMeters>
          </Trackpoint>
          <Trackpoint>
            <Time>2022-07-15T09:44:33.000Z</Time>
            <Position>
              <LatitudeDegrees>43.3745328895747661590576171875</LatitudeDegrees>
              <LongitudeDegrees>-4.52725022099912166595458984375</LongitudeDegrees>
            </Position>
            <AltitudeMeters>80.40000152587890625</AltitudeMeters>
            <DistanceMeters>NAN</DistanceMeters>
          </Trackpoint>
          <Trackpoint>
            <Time>2022-07-15T09:44:37.000Z</Time>
            <Position>
              <LatitudeDegrees>43.37453506886959075927734375</LatitudeDegrees>
              <LongitudeDegrees>-4.52731258235871791839599609375</LongitudeDegrees>
            </Position>
            <AltitudeMeters>80.8000030517578125</AltitudeMeters>
            <DistanceMeters>NAN</DistanceMeters>
          </Trackpoint>
          <Trackpoint>
            <Time>2022-07-15T09:44:42.000Z</Time>
            <Position>
              <LatitudeDegrees>43.3745372481644153594970703125</LatitudeDegrees>
              <LongitudeDegrees>-4.52739791013300418853759765625</LongitudeDegrees>
            </Position>
            <AltitudeMeters>81.40000152587890625</AltitudeMeters>
            <DistanceMeters>NAN</DistanceMeters>
          </Trackpoint>
          <Trackpoint>
            <Time>2022-07-15T09:44:48.000Z</Time>
            <Position>
              <LatitudeDegrees>43.3745452947914600372314453125</LatitudeDegrees>
              <LongitudeDegrees>-4.52749145217239856719970703125</LongitudeDegrees>
            </Position>
            <AltitudeMeters>81.8000030517578125</AltitudeMeters>
            <DistanceMeters>NAN</DistanceMeters>
          </Trackpoint>
          <Trackpoint>
            <Time>2022-07-15T09:44:51.000Z</Time>
            <Position>
              <LatitudeDegrees>43.374546468257904052734375</LatitudeDegrees>
              <LongitudeDegrees>-4.5275433361530303955078125</LongitudeDegrees>
            </Position>
            <AltitudeMeters>82.1999969482421875</AltitudeMeters>
            <DistanceMeters>NAN</DistanceMeters>
          </Trackpoint>
          <Trackpoint>
            <Time>2022-07-15T09:44:58.000Z</Time>
            <Position>
              <LatitudeDegrees>43.374566920101642608642578125</LatitudeDegrees>
              <LongitudeDegrees>-4.52767082490026950836181640625</LongitudeDegrees>
            </Position>
            <AltitudeMeters>82.8000030517578125</AltitudeMeters>
            <DistanceMeters>NAN</DistanceMeters>
          </Trackpoint>
          <Trackpoint>
            <Time>2022-07-15T09:44:59.000Z</Time>
            <Position>
              <LatitudeDegrees>43.3745697699487209320068359375</LatitudeDegrees>
              <LongitudeDegrees>-4.52768616378307342529296875</LongitudeDegrees>
            </Position>
            <AltitudeMeters>82.8000030517578125</AltitudeMeters>
            <DistanceMeters>NAN</DistanceMeters>
          </Trackpoint>
          <Trackpoint>
            <Time>2022-07-15T09:45:00.000Z</Time>
            <Position>
              <LatitudeDegrees>43.37457002140581607818603515625</LatitudeDegrees>
              <LongitudeDegrees>-4.5277024246752262115478515625</LongitudeDegrees>
            </Position>
            <AltitudeMeters>83</AltitudeMeters>
            <DistanceMeters>NAN</DistanceMeters>
          </Trackpoint>
          <Trackpoint>
            <Time>2022-07-15T09:45:05.000Z</Time>
            <Position>
              <LatitudeDegrees>43.37457270361483097076416015625</LatitudeDegrees>
              <LongitudeDegrees>-4.527785070240497589111328125</LongitudeDegrees>
            </Position>
            <AltitudeMeters>83.59999847412109375</AltitudeMeters>
            <DistanceMeters>NAN</DistanceMeters>
          </Trackpoint>
          <Trackpoint>
            <Time>2022-07-15T09:45:11.000Z</Time>
            <Position>
              <LatitudeDegrees>43.37458460591733455657958984375</LatitudeDegrees>
              <LongitudeDegrees>-4.5278864912688732147216796875</LongitudeDegrees>
            </Position>
            <AltitudeMeters>84.1999969482421875</AltitudeMeters>
            <DistanceMeters>NAN</DistanceMeters>
          </Trackpoint>
          <Trackpoint>
            <Time>2022-07-15T09:45:12.000Z</Time>
            <Position>
              <LatitudeDegrees>43.37458745576441287994384765625</LatitudeDegrees>
              <LongitudeDegrees>-4.52790736220777034759521484375</LongitudeDegrees>
            </Position>
            <AltitudeMeters>84.1999969482421875</AltitudeMeters>
            <DistanceMeters>NAN</DistanceMeters>
          </Trackpoint>
          <Trackpoint>
            <Time>2022-07-15T09:45:21.000Z</Time>
            <Position>
              <LatitudeDegrees>43.3746049739420413970947265625</LatitudeDegrees>
              <LongitudeDegrees>-4.5280770957469940185546875</LongitudeDegrees>
            </Position>
            <AltitudeMeters>85</AltitudeMeters>
            <DistanceMeters>NAN</DistanceMeters>
          </Trackpoint>
          <Trackpoint>
            <Time>2022-07-15T09:45:23.000Z</Time>
            <Position>
              <LatitudeDegrees>43.374606482684612274169921875</LatitudeDegrees>
              <LongitudeDegrees>-4.5281128026545047760009765625</LongitudeDegrees>
            </Position>
            <AltitudeMeters>85.1999969482421875</AltitudeMeters>
            <DistanceMeters>NAN</DistanceMeters>
          </Trackpoint>
          <Trackpoint>
            <Time>2022-07-15T09:45:28.000Z</Time>
            <Position>
              <LatitudeDegrees>43.374617211520671844482421875</LatitudeDegrees>
              <LongitudeDegrees>-4.52820223756134510040283203125</LongitudeDegrees>
            </Position>
            <AltitudeMeters>85.8000030517578125</AltitudeMeters>
            <DistanceMeters>NAN</DistanceMeters>
          </Trackpoint>
          <Trackpoint>
            <Time>2022-07-15T09:45:33.000Z</Time>
            <Position>
              <LatitudeDegrees>43.374643363058567047119140625</LatitudeDegrees>
              <LongitudeDegrees>-4.52828203327953815460205078125</LongitudeDegrees>
            </Position>
            <AltitudeMeters>86.1999969482421875</AltitudeMeters>
            <DistanceMeters>NAN</DistanceMeters>
          </Trackpoint>
          <Trackpoint>
            <Time>2022-07-15T09:45:36.000Z</Time>
            <Position>
              <LatitudeDegrees>43.37465518154203891754150390625</LatitudeDegrees>
              <LongitudeDegrees>-4.52833416871726512908935546875</LongitudeDegrees>
            </Position>
            <AltitudeMeters>86.59999847412109375</AltitudeMeters>
            <DistanceMeters>NAN</DistanceMeters>
          </Trackpoint>
          <Trackpoint>
            <Time>2022-07-15T09:45:44.000Z</Time>
            <Position>
              <LatitudeDegrees>43.3746800757944583892822265625</LatitudeDegrees>
              <LongitudeDegrees>-4.52846677042543888092041015625</LongitudeDegrees>
            </Position>
            <AltitudeMeters>87.40000152587890625</AltitudeMeters>
            <DistanceMeters>NAN</DistanceMeters>
          </Trackpoint>
          <Trackpoint>
            <Time>2022-07-15T09:45:45.000Z</Time>
            <Position>
              <LatitudeDegrees>43.37468200363218784332275390625</LatitudeDegrees>
              <LongitudeDegrees>-4.52848571352660655975341796875</LongitudeDegrees>
            </Position>
            <AltitudeMeters>87.59999847412109375</AltitudeMeters>
            <DistanceMeters>NAN</DistanceMeters>
          </Trackpoint>
          <Trackpoint>
            <Time>2022-07-15T09:45:53.000Z</Time>
            <Position>
              <LatitudeDegrees>43.3747022040188312530517578125</LatitudeDegrees>
              <LongitudeDegrees>-4.5286344923079013824462890625</LongitudeDegrees>
            </Position>
            <AltitudeMeters>88.40000152587890625</AltitudeMeters>
            <DistanceMeters>NAN</DistanceMeters>
          </Trackpoint>
          <Trackpoint>
            <Time>2022-07-15T09:45:55.000Z</Time>
            <Position>
              <LatitudeDegrees>43.37470832280814647674560546875</LatitudeDegrees>
              <LongitudeDegrees>-4.52866919338703155517578125</LongitudeDegrees>
            </Position>
            <AltitudeMeters>88.40000152587890625</AltitudeMeters>
            <DistanceMeters>NAN</DistanceMeters>
          </Trackpoint>
          <Trackpoint>
            <Time>2022-07-15T09:45:58.000Z</Time>
            <Position>
              <LatitudeDegrees>43.374720476567745208740234375</LatitudeDegrees>
              <LongitudeDegrees>-4.5287206582725048065185546875</LongitudeDegrees>
            </Position>
            <AltitudeMeters>89</AltitudeMeters>
            <DistanceMeters>NAN</DistanceMeters>
          </Trackpoint>
          <Trackpoint>
            <Time>2022-07-15T09:46:03.000Z</Time>
            <Position>
              <LatitudeDegrees>43.3747330494225025177001953125</LatitudeDegrees>
              <LongitudeDegrees>-4.528801627457141876220703125</LongitudeDegrees>
            </Position>
            <AltitudeMeters>89.40000152587890625</AltitudeMeters>
            <DistanceMeters>NAN</DistanceMeters>
          </Trackpoint>
          <Trackpoint>
            <Time>2022-07-15T09:46:05.000Z</Time>
            <Position>
              <LatitudeDegrees>43.3747382462024688720703125</LatitudeDegrees>
              <LongitudeDegrees>-4.5288336463272571563720703125</LongitudeDegrees>
            </Position>
            <AltitudeMeters>89.59999847412109375</AltitudeMeters>
            <DistanceMeters>NAN</DistanceMeters>
          </Trackpoint>
          <Trackpoint>
            <Time>2022-07-15T09:46:13.000Z</Time>
            <Position>
              <LatitudeDegrees>43.37474696338176727294921875</LatitudeDegrees>
              <LongitudeDegrees>-4.528966583311557769775390625</LongitudeDegrees>
            </Position>
            <AltitudeMeters>90.40000152587890625</AltitudeMeters>
            <DistanceMeters>NAN</DistanceMeters>
          </Trackpoint>
          <Trackpoint>
            <Time>2022-07-15T09:46:16.000Z</Time>
            <Position>
              <LatitudeDegrees>43.374744616448879241943359375</LatitudeDegrees>
              <LongitudeDegrees>-4.52902056276798248291015625</LongitudeDegrees>
            </Position>
            <AltitudeMeters>90.59999847412109375</AltitudeMeters>
            <DistanceMeters>NAN</DistanceMeters>
          </Trackpoint>
          <Trackpoint>
            <Time>2022-07-15T09:46:25.000Z</Time>
            <Position>
              <LatitudeDegrees>43.374742604792118072509765625</LatitudeDegrees>
              <LongitudeDegrees>-4.52916749753057956695556640625</LongitudeDegrees>
            </Position>
            <AltitudeMeters>91.40000152587890625</AltitudeMeters>
            <DistanceMeters>NAN</DistanceMeters>
          </Trackpoint>
          <Trackpoint>
            <Time>2022-07-15T09:46:26.000Z</Time>
            <Position>
              <LatitudeDegrees>43.3747380785644054412841796875</LatitudeDegrees>
              <LongitudeDegrees>-4.52918342314660549163818359375</LongitudeDegrees>
            </Position>
            <AltitudeMeters>91.40000152587890625</AltitudeMeters>
            <DistanceMeters>NAN</DistanceMeters>
          </Trackpoint>
          <Trackpoint>
            <Time>2022-07-15T09:46:35.000Z</Time>
            <Position>
              <LatitudeDegrees>43.37473833002150058746337890625</LatitudeDegrees>
              <LongitudeDegrees>-4.5293379016220569610595703125</LongitudeDegrees>
            </Position>
            <AltitudeMeters>92.40000152587890625</AltitudeMeters>
            <DistanceMeters>NAN</DistanceMeters>
          </Trackpoint>
          <Trackpoint>
            <Time>2022-07-15T09:46:37.000Z</Time>
            <Position>
              <LatitudeDegrees>43.3747353963553905487060546875</LatitudeDegrees>
              <LongitudeDegrees>-4.5293717645108699798583984375</LongitudeDegrees>
            </Position>
            <AltitudeMeters>92.59999847412109375</AltitudeMeters>
            <DistanceMeters>NAN</DistanceMeters>
          </Trackpoint>
          <Trackpoint>
            <Time>2022-07-15T09:46:44.000Z</Time>
            <Position>
              <LatitudeDegrees>43.37472961284220218658447265625</LatitudeDegrees>
              <LongitudeDegrees>-4.52950629405677318572998046875</LongitudeDegrees>
            </Position>
            <AltitudeMeters>93.1999969482421875</AltitudeMeters>
            <DistanceMeters>NAN</DistanceMeters>
          </Trackpoint>
          <Trackpoint>
            <Time>2022-07-15T09:46:49.000Z</Time>
            <Position>
              <LatitudeDegrees>43.37471972219645977020263671875</LatitudeDegrees>
              <LongitudeDegrees>-4.52960201539099216461181640625</LongitudeDegrees>
            </Position>
            <AltitudeMeters>93.59999847412109375</AltitudeMeters>
            <DistanceMeters>NAN</DistanceMeters>
          </Trackpoint>
          <Trackpoint>
            <Time>2022-07-15T09:46:55.000Z</Time>
            <Position>
              <LatitudeDegrees>43.37472156621515750885009765625</LatitudeDegrees>
              <LongitudeDegrees>-4.5297137461602687835693359375</LongitudeDegrees>
            </Position>
            <AltitudeMeters>94</AltitudeMeters>
            <DistanceMeters>NAN</DistanceMeters>
          </Trackpoint>
          <Trackpoint>
            <Time>2022-07-15T09:46:59.000Z</Time>
            <Position>
              <LatitudeDegrees>43.3747162856161594390869140625</LatitudeDegrees>
              <LongitudeDegrees>-4.5297915302217006683349609375</LongitudeDegrees>
            </Position>
            <AltitudeMeters>94.8000030517578125</AltitudeMeters>
            <DistanceMeters>NAN</DistanceMeters>
          </Trackpoint>
          <Trackpoint>
            <Time>2022-07-15T09:47:02.000Z</Time>
            <Position>
              <LatitudeDegrees>43.37471385486423969268798828125</LatitudeDegrees>
              <LongitudeDegrees>-4.5298502035439014434814453125</LongitudeDegrees>
            </Position>
            <AltitudeMeters>95</AltitudeMeters>
            <DistanceMeters>NAN</DistanceMeters>
          </Trackpoint>
          <Trackpoint>
            <Time>2022-07-15T09:47:10.000Z</Time>
            <Position>
              <LatitudeDegrees>43.37470128200948238372802734375</LatitudeDegrees>
              <LongitudeDegrees>-4.5300175063312053680419921875</LongitudeDegrees>
            </Position>
            <AltitudeMeters>95</AltitudeMeters>
            <DistanceMeters>NAN</DistanceMeters>
          </Trackpoint>
          <Trackpoint>
            <Time>2022-07-15T09:47:14.000Z</Time>
            <Position>
              <LatitudeDegrees>43.37469608522951602935791015625</LatitudeDegrees>
              <LongitudeDegrees>-4.53010526485741138458251953125</LongitudeDegrees>
            </Position>
            <AltitudeMeters>95.59999847412109375</AltitudeMeters>
            <DistanceMeters>NAN</DistanceMeters>
          </Trackpoint>
          <Trackpoint>
            <Time>2022-07-15T09:47:16.000Z</Time>
            <Position>
              <LatitudeDegrees>43.37469457648694515228271484375</LatitudeDegrees>
              <LongitudeDegrees>-4.5301479287445545196533203125</LongitudeDegrees>
            </Position>
            <AltitudeMeters>95.8000030517578125</AltitudeMeters>
            <DistanceMeters>NAN</DistanceMeters>
          </Trackpoint>
          <Trackpoint>
            <Time>2022-07-15T09:47:24.000Z</Time>
            <Position>
              <LatitudeDegrees>43.374672867357730865478515625</LatitudeDegrees>
              <LongitudeDegrees>-4.53032411634922027587890625</LongitudeDegrees>
            </Position>
            <AltitudeMeters>96.59999847412109375</AltitudeMeters>
            <DistanceMeters>NAN</DistanceMeters>
          </Trackpoint>
          <Trackpoint>
            <Time>2022-07-15T09:47:27.000Z</Time>
            <Position>
              <LatitudeDegrees>43.37466037832200527191162109375</LatitudeDegrees>
              <LongitudeDegrees>-4.53039544634521007537841796875</LongitudeDegrees>
            </Position>
            <AltitudeMeters>96.8000030517578125</AltitudeMeters>
            <DistanceMeters>NAN</DistanceMeters>
          </Trackpoint>
          <Trackpoint>
            <Time>2022-07-15T09:47:33.000Z</Time>
            <Position>
              <LatitudeDegrees>43.37464428506791591644287109375</LatitudeDegrees>
              <LongitudeDegrees>-4.530538022518157958984375</LongitudeDegrees>
            </Position>
            <AltitudeMeters>97.1999969482421875</AltitudeMeters>
            <DistanceMeters>NAN</DistanceMeters>
          </Trackpoint>
          <Trackpoint>
            <Time>2022-07-15T09:47:35.000Z</Time>
            <Position>
              <LatitudeDegrees>43.37463674135506153106689453125</LatitudeDegrees>
              <LongitudeDegrees>-4.5305836200714111328125</LongitudeDegrees>
            </Position>
            <AltitudeMeters>97.40000152587890625</AltitudeMeters>
            <DistanceMeters>NAN</DistanceMeters>
          </Trackpoint>
          <Trackpoint>
            <Time>2022-07-15T09:47:42.000Z</Time>
            <Position>
              <LatitudeDegrees>43.37462131865322589874267578125</LatitudeDegrees>
              <LongitudeDegrees>-4.530740194022655487060546875</LongitudeDegrees>
            </Position>
            <AltitudeMeters>97.8000030517578125</AltitudeMeters>
            <DistanceMeters>NAN</DistanceMeters>
          </Trackpoint>
          <Trackpoint>
            <Time>2022-07-15T09:47:44.000Z</Time>
            <Position>
              <LatitudeDegrees>43.3746170438826084136962890625</LatitudeDegrees>
              <LongitudeDegrees>-4.53078805468976497650146484375</LongitudeDegrees>
            </Position>
            <AltitudeMeters>97.8000030517578125</AltitudeMeters>
            <DistanceMeters>NAN</DistanceMeters>
          </Trackpoint>
          <Trackpoint>
            <Time>2022-07-15T09:47:47.000Z</Time>
            <Position>
              <LatitudeDegrees>43.37460614740848541259765625</LatitudeDegrees>
              <LongitudeDegrees>-4.530866257846355438232421875</LongitudeDegrees>
            </Position>
            <AltitudeMeters>98</AltitudeMeters>
            <DistanceMeters>NAN</DistanceMeters>
          </Trackpoint>
          <Trackpoint>
            <Time>2022-07-15T09:47:56.000Z</Time>
            <Position>
              <LatitudeDegrees>43.374589048326015472412109375</LatitudeDegrees>
              <LongitudeDegrees>-4.5311240851879119873046875</LongitudeDegrees>
            </Position>
            <AltitudeMeters>98.40000152587890625</AltitudeMeters>
            <DistanceMeters>NAN</DistanceMeters>
          </Trackpoint>
          <Trackpoint>
            <Time>2022-07-15T09:48:04.000Z</Time>
            <Position>
              <LatitudeDegrees>43.3745851926505565643310546875</LatitudeDegrees>
              <LongitudeDegrees>-4.531332962214946746826171875</LongitudeDegrees>
            </Position>
            <AltitudeMeters>99</AltitudeMeters>
            <DistanceMeters>NAN</DistanceMeters>
          </Trackpoint>
          <Trackpoint>
            <Time>2022-07-15T09:48:08.000Z</Time>
            <Position>
              <LatitudeDegrees>43.37458200752735137939453125</LatitudeDegrees>
              <LongitudeDegrees>-4.53143547289073467254638671875</LongitudeDegrees>
            </Position>
            <AltitudeMeters>99.40000152587890625</AltitudeMeters>
            <DistanceMeters>NAN</DistanceMeters>
          </Trackpoint>
          <Trackpoint>
            <Time>2022-07-15T09:48:14.000Z</Time>
            <Position>
              <LatitudeDegrees>43.37457689456641674041748046875</LatitudeDegrees>
              <LongitudeDegrees>-4.53162138350307941436767578125</LongitudeDegrees>
            </Position>
            <AltitudeMeters>99.40000152587890625</AltitudeMeters>
            <DistanceMeters>NAN</DistanceMeters>
          </Trackpoint>
          <Trackpoint>
            <Time>2022-07-15T09:48:18.000Z</Time>
            <Position>
              <LatitudeDegrees>43.37457555346190929412841796875</LatitudeDegrees>
              <LongitudeDegrees>-4.531755745410919189453125</LongitudeDegrees>
            </Position>
            <AltitudeMeters>99.1999969482421875</AltitudeMeters>
            <DistanceMeters>NAN</DistanceMeters>
          </Trackpoint>
          <Trackpoint>
            <Time>2022-07-15T09:48:20.000Z</Time>
            <Position>
              <LatitudeDegrees>43.3745751343667507171630859375</LatitudeDegrees>
              <LongitudeDegrees>-4.531827829778194427490234375</LongitudeDegrees>
            </Position>
            <AltitudeMeters>99.1999969482421875</AltitudeMeters>
            <DistanceMeters>NAN</DistanceMeters>
          </Trackpoint>
          <Trackpoint>
            <Time>2022-07-15T09:48:22.000Z</Time>
            <Position>
              <LatitudeDegrees>43.37457974441349506378173828125</LatitudeDegrees>
              <LongitudeDegrees>-4.5319030992686748504638671875</LongitudeDegrees>
            </Position>
            <AltitudeMeters>99.40000152587890625</AltitudeMeters>
            <DistanceMeters>NAN</DistanceMeters>
          </Trackpoint>
          <Trackpoint>
            <Time>2022-07-15T09:48:27.000Z</Time>
            <Position>
              <LatitudeDegrees>43.37457588873803615570068359375</LatitudeDegrees>
              <LongitudeDegrees>-4.532096721231937408447265625</LongitudeDegrees>
            </Position>
            <AltitudeMeters>99.59999847412109375</AltitudeMeters>
            <DistanceMeters>NAN</DistanceMeters>
          </Trackpoint>
          <Trackpoint>
            <Time>2022-07-15T09:48:36.000Z</Time>
            <Position>
              <LatitudeDegrees>43.374583013355731964111328125</LatitudeDegrees>
              <LongitudeDegrees>-4.53237759880721569061279296875</LongitudeDegrees>
            </Position>
            <AltitudeMeters>100</AltitudeMeters>
            <DistanceMeters>NAN</DistanceMeters>
          </Trackpoint>
          <Trackpoint>
            <Time>2022-07-15T09:48:43.000Z</Time>
            <Position>
              <LatitudeDegrees>43.374594748020172119140625</LatitudeDegrees>
              <LongitudeDegrees>-4.53261245973408222198486328125</LongitudeDegrees>
            </Position>
            <AltitudeMeters>100</AltitudeMeters>
            <DistanceMeters>NAN</DistanceMeters>
          </Trackpoint>
          <Trackpoint>
            <Time>2022-07-15T09:48:45.000Z</Time>
            <Position>
              <LatitudeDegrees>43.374600112438201904296875</LatitudeDegrees>
              <LongitudeDegrees>-4.532680772244930267333984375</LongitudeDegrees>
            </Position>
            <AltitudeMeters>100</AltitudeMeters>
            <DistanceMeters>NAN</DistanceMeters>
          </Trackpoint>
          <Trackpoint>
            <Time>2022-07-15T09:48:56.000Z</Time>
            <Position>
              <LatitudeDegrees>43.3746431954205036163330078125</LatitudeDegrees>
              <LongitudeDegrees>-4.533081091940402984619140625</LongitudeDegrees>
            </Position>
            <AltitudeMeters>99.8000030517578125</AltitudeMeters>
            <DistanceMeters>NAN</DistanceMeters>
          </Trackpoint>
          <Trackpoint>
            <Time>2022-07-15T09:49:04.000Z</Time>
            <Position>
              <LatitudeDegrees>43.3746817521750926971435546875</LatitudeDegrees>
              <LongitudeDegrees>-4.53337973915040493011474609375</LongitudeDegrees>
            </Position>
            <AltitudeMeters>100.1999969482421875</AltitudeMeters>
            <DistanceMeters>NAN</DistanceMeters>
          </Trackpoint>
          <Trackpoint>
            <Time>2022-07-15T09:49:06.000Z</Time>
            <Position>
              <LatitudeDegrees>43.3746877871453762054443359375</LatitudeDegrees>
              <LongitudeDegrees>-4.53344478271901607513427734375</LongitudeDegrees>
            </Position>
            <AltitudeMeters>100.40000152587890625</AltitudeMeters>
            <DistanceMeters>NAN</DistanceMeters>
          </Trackpoint>
          <Trackpoint>
            <Time>2022-07-15T09:49:13.000Z</Time>
            <Position>
              <LatitudeDegrees>43.374676890671253204345703125</LatitudeDegrees>
              <LongitudeDegrees>-4.53363932669162750244140625</LongitudeDegrees>
            </Position>
            <AltitudeMeters>100.8000030517578125</AltitudeMeters>
            <DistanceMeters>NAN</DistanceMeters>
          </Trackpoint>
          <Trackpoint>
            <Time>2022-07-15T09:49:14.000Z</Time>
            <Position>
              <LatitudeDegrees>43.374675549566745758056640625</LatitudeDegrees>
              <LongitudeDegrees>-4.533661790192127227783203125</LongitudeDegrees>
            </Position>
            <AltitudeMeters>101</AltitudeMeters>
            <DistanceMeters>NAN</DistanceMeters>
          </Trackpoint>
          <Trackpoint>
            <Time>2022-07-15T09:49:22.000Z</Time>
            <Position>
              <LatitudeDegrees>43.374652750790119171142578125</LatitudeDegrees>
              <LongitudeDegrees>-4.5338282547891139984130859375</LongitudeDegrees>
            </Position>
            <AltitudeMeters>101.59999847412109375</AltitudeMeters>
            <DistanceMeters>NAN</DistanceMeters>
          </Trackpoint>
          <Trackpoint>
            <Time>2022-07-15T09:49:26.000Z</Time>
            <Position>
              <LatitudeDegrees>43.3746381662786006927490234375</LatitudeDegrees>
              <LongitudeDegrees>-4.53389304690062999725341796875</LongitudeDegrees>
            </Position>
            <AltitudeMeters>102</AltitudeMeters>
            <DistanceMeters>NAN</DistanceMeters>
          </Trackpoint>
          <Trackpoint>
            <Time>2022-07-15T09:49:29.000Z</Time>
            <Position>
              <LatitudeDegrees>43.37462752126157283782958984375</LatitudeDegrees>
              <LongitudeDegrees>-4.53392565250396728515625</LongitudeDegrees>
            </Position>
            <AltitudeMeters>102</AltitudeMeters>
            <DistanceMeters>NAN</DistanceMeters>
          </Trackpoint>
          <Trackpoint>
            <Time>2022-07-15T09:49:30.000Z</Time>
            <Position>
              <LatitudeDegrees>43.37462752126157283782958984375</LatitudeDegrees>
              <LongitudeDegrees>-4.53392565250396728515625</LongitudeDegrees>
            </Position>
            <AltitudeMeters>102.1999969482421875</AltitudeMeters>
            <DistanceMeters>NAN</DistanceMeters>
          </Trackpoint>
          <Trackpoint>
            <Time>2022-07-15T09:50:46.000Z</Time>
            <Position>
              <LatitudeDegrees>43.374632634222507476806640625</LatitudeDegrees>
              <LongitudeDegrees>-4.53397820703685283660888671875</LongitudeDegrees>
            </Position>
            <AltitudeMeters>102.59999847412109375</AltitudeMeters>
            <DistanceMeters>NAN</DistanceMeters>
          </Trackpoint>
          <Trackpoint>
            <Time>2022-07-15T09:50:47.000Z</Time>
            <Position>
              <LatitudeDegrees>43.374632298946380615234375</LatitudeDegrees>
              <LongitudeDegrees>-4.53400276601314544677734375</LongitudeDegrees>
            </Position>
            <AltitudeMeters>102.59999847412109375</AltitudeMeters>
            <DistanceMeters>NAN</DistanceMeters>
          </Trackpoint>
          <Trackpoint>
            <Time>2022-07-15T09:50:49.000Z</Time>
            <Position>
              <LatitudeDegrees>43.37463355623185634613037109375</LatitudeDegrees>
              <LongitudeDegrees>-4.53404978848993778228759765625</LongitudeDegrees>
            </Position>
            <AltitudeMeters>103</AltitudeMeters>
            <DistanceMeters>NAN</DistanceMeters>
          </Trackpoint>
          <Trackpoint>
            <Time>2022-07-15T09:50:50.000Z</Time>
            <Position>
              <LatitudeDegrees>43.374634645879268646240234375</LatitudeDegrees>
              <LongitudeDegrees>-4.534072168171405792236328125</LongitudeDegrees>
            </Position>
            <AltitudeMeters>103.1999969482421875</AltitudeMeters>
            <DistanceMeters>NAN</DistanceMeters>
          </Trackpoint>
          <Trackpoint>
            <Time>2022-07-15T09:50:56.000Z</Time>
            <Position>
              <LatitudeDegrees>43.3746421895921230316162109375</LatitudeDegrees>
              <LongitudeDegrees>-4.5342403091490268707275390625</LongitudeDegrees>
            </Position>
            <AltitudeMeters>103.40000152587890625</AltitudeMeters>
            <DistanceMeters>NAN</DistanceMeters>
          </Trackpoint>
          <Trackpoint>
            <Time>2022-07-15T09:51:02.000Z</Time>
            <Position>
              <LatitudeDegrees>43.37466121651232242584228515625</LatitudeDegrees>
              <LongitudeDegrees>-4.5344327576458454132080078125</LongitudeDegrees>
            </Position>
            <AltitudeMeters>103.8000030517578125</AltitudeMeters>
            <DistanceMeters>NAN</DistanceMeters>
          </Trackpoint>
          <Trackpoint>
            <Time>2022-07-15T09:51:11.000Z</Time>
            <Position>
              <LatitudeDegrees>43.37471318431198596954345703125</LatitudeDegrees>
              <LongitudeDegrees>-4.53472964465618133544921875</LongitudeDegrees>
            </Position>
            <AltitudeMeters>103.59999847412109375</AltitudeMeters>
            <DistanceMeters>NAN</DistanceMeters>
          </Trackpoint>
          <Trackpoint>
            <Time>2022-07-15T09:51:16.000Z</Time>
            <Position>
              <LatitudeDegrees>43.37477973662316799163818359375</LatitudeDegrees>
              <LongitudeDegrees>-4.53493257053196430206298828125</LongitudeDegrees>
            </Position>
            <AltitudeMeters>103.40000152587890625</AltitudeMeters>
            <DistanceMeters>NAN</DistanceMeters>
          </Trackpoint>
          <Trackpoint>
            <Time>2022-07-15T09:51:19.000Z</Time>
            <Position>
              <LatitudeDegrees>43.374812342226505279541015625</LatitudeDegrees>
              <LongitudeDegrees>-4.53509853221476078033447265625</LongitudeDegrees>
            </Position>
            <AltitudeMeters>103</AltitudeMeters>
            <DistanceMeters>NAN</DistanceMeters>
          </Trackpoint>
          <Trackpoint>
            <Time>2022-07-15T09:51:21.000Z</Time>
            <Position>
              <LatitudeDegrees>43.37484746240079402923583984375</LatitudeDegrees>
              <LongitudeDegrees>-4.53521973453462123870849609375</LongitudeDegrees>
            </Position>
            <AltitudeMeters>102.59999847412109375</AltitudeMeters>
            <DistanceMeters>NAN</DistanceMeters>
          </Trackpoint>
          <Trackpoint>
            <Time>2022-07-15T09:51:26.000Z</Time>
            <Position>
              <LatitudeDegrees>43.37491250596940517425537109375</LatitudeDegrees>
              <LongitudeDegrees>-4.53553891740739345550537109375</LongitudeDegrees>
            </Position>
            <AltitudeMeters>102</AltitudeMeters>
            <DistanceMeters>NAN</DistanceMeters>
          </Trackpoint>
          <Trackpoint>
            <Time>2022-07-15T09:51:28.000Z</Time>
            <Position>
              <LatitudeDegrees>43.374927677214145660400390625</LatitudeDegrees>
              <LongitudeDegrees>-4.53566682524979114532470703125</LongitudeDegrees>
            </Position>
            <AltitudeMeters>101.8000030517578125</AltitudeMeters>
            <DistanceMeters>NAN</DistanceMeters>
          </Trackpoint>
          <Trackpoint>
            <Time>2022-07-15T09:51:36.000Z</Time>
            <Position>
              <LatitudeDegrees>43.37497788481414318084716796875</LatitudeDegrees>
              <LongitudeDegrees>-4.53621801920235157012939453125</LongitudeDegrees>
            </Position>
            <AltitudeMeters>101.59999847412109375</AltitudeMeters>
            <DistanceMeters>NAN</DistanceMeters>
          </Trackpoint>
          <Trackpoint>
            <Time>2022-07-15T09:51:44.000Z</Time>
            <Position>
              <LatitudeDegrees>43.3750493824481964111328125</LatitudeDegrees>
              <LongitudeDegrees>-4.53667751513421535491943359375</LongitudeDegrees>
            </Position>
            <AltitudeMeters>101.59999847412109375</AltitudeMeters>
            <DistanceMeters>NAN</DistanceMeters>
          </Trackpoint>
          <Trackpoint>
            <Time>2022-07-15T09:51:51.000Z</Time>
            <Position>
              <LatitudeDegrees>43.37509003467857837677001953125</LatitudeDegrees>
              <LongitudeDegrees>-4.53704179264605045318603515625</LongitudeDegrees>
            </Position>
            <AltitudeMeters>102</AltitudeMeters>
            <DistanceMeters>NAN</DistanceMeters>
          </Trackpoint>
          <Trackpoint>
            <Time>2022-07-15T09:51:57.000Z</Time>
            <Position>
              <LatitudeDegrees>43.3751028589904308319091796875</LatitudeDegrees>
              <LongitudeDegrees>-4.5372866280376911163330078125</LongitudeDegrees>
            </Position>
            <AltitudeMeters>102.1999969482421875</AltitudeMeters>
            <DistanceMeters>NAN</DistanceMeters>
          </Trackpoint>
          <Trackpoint>
            <Time>2022-07-15T09:52:03.000Z</Time>
            <Position>
              <LatitudeDegrees>43.37511082179844379425048828125</LatitudeDegrees>
              <LongitudeDegrees>-4.53749609179794788360595703125</LongitudeDegrees>
            </Position>
            <AltitudeMeters>102.8000030517578125</AltitudeMeters>
            <DistanceMeters>NAN</DistanceMeters>
          </Trackpoint>
          <Trackpoint>
            <Time>2022-07-15T09:52:10.000Z</Time>
            <Position>
              <LatitudeDegrees>43.3751062117516994476318359375</LatitudeDegrees>
              <LongitudeDegrees>-4.53774754889309406280517578125</LongitudeDegrees>
            </Position>
            <AltitudeMeters>103</AltitudeMeters>
            <DistanceMeters>NAN</DistanceMeters>
          </Trackpoint>
          <Trackpoint>
            <Time>2022-07-15T09:52:11.000Z</Time>
            <Position>
              <LatitudeDegrees>43.37510093115270137786865234375</LatitudeDegrees>
              <LongitudeDegrees>-4.5377871952950954437255859375</LongitudeDegrees>
            </Position>
            <AltitudeMeters>103</AltitudeMeters>
            <DistanceMeters>NAN</DistanceMeters>
          </Trackpoint>
          <Trackpoint>
            <Time>2022-07-15T09:52:14.000Z</Time>
            <Position>
              <LatitudeDegrees>43.37508089840412139892578125</LatitudeDegrees>
              <LongitudeDegrees>-4.53790697269141674041748046875</LongitudeDegrees>
            </Position>
            <AltitudeMeters>103</AltitudeMeters>
            <DistanceMeters>NAN</DistanceMeters>
          </Trackpoint>
          <Trackpoint>
            <Time>2022-07-15T09:52:18.000Z</Time>
            <Position>
              <LatitudeDegrees>43.375071845948696136474609375</LatitudeDegrees>
              <LongitudeDegrees>-4.5380621217191219329833984375</LongitudeDegrees>
            </Position>
            <AltitudeMeters>103</AltitudeMeters>
            <DistanceMeters>NAN</DistanceMeters>
          </Trackpoint>
          <Trackpoint>
            <Time>2022-07-15T09:52:19.000Z</Time>
            <Position>
              <LatitudeDegrees>43.37506874464452266693115234375</LatitudeDegrees>
              <LongitudeDegrees>-4.5380993373692035675048828125</LongitudeDegrees>
            </Position>
            <AltitudeMeters>103</AltitudeMeters>
            <DistanceMeters>NAN</DistanceMeters>
          </Trackpoint>
          <Trackpoint>
            <Time>2022-07-15T09:52:22.000Z</Time>
            <Position>
              <LatitudeDegrees>43.375075869262218475341796875</LatitudeDegrees>
              <LongitudeDegrees>-4.53820670954883098602294921875</LongitudeDegrees>
            </Position>
            <AltitudeMeters>103</AltitudeMeters>
            <DistanceMeters>NAN</DistanceMeters>
          </Trackpoint>
          <Trackpoint>
            <Time>2022-07-15T09:52:23.000Z</Time>
            <Position>
              <LatitudeDegrees>43.37508022785186767578125</LatitudeDegrees>
              <LongitudeDegrees>-4.53824711032211780548095703125</LongitudeDegrees>
            </Position>
            <AltitudeMeters>103</AltitudeMeters>
            <DistanceMeters>NAN</DistanceMeters>
          </Trackpoint>
          <Trackpoint>
            <Time>2022-07-15T09:52:25.000Z</Time>
            <Position>
              <LatitudeDegrees>43.37507913820445537567138671875</LatitudeDegrees>
              <LongitudeDegrees>-4.5383112318813800811767578125</LongitudeDegrees>
            </Position>
            <AltitudeMeters>103.1999969482421875</AltitudeMeters>
            <DistanceMeters>NAN</DistanceMeters>
          </Trackpoint>
          <Trackpoint>
            <Time>2022-07-15T09:52:29.000Z</Time>
            <Position>
              <LatitudeDegrees>43.3750931359827518463134765625</LatitudeDegrees>
              <LongitudeDegrees>-4.5384369604289531707763671875</LongitudeDegrees>
            </Position>
            <AltitudeMeters>103.59999847412109375</AltitudeMeters>
            <DistanceMeters>NAN</DistanceMeters>
          </Trackpoint>
          <Trackpoint>
            <Time>2022-07-15T09:52:32.000Z</Time>
            <Position>
              <LatitudeDegrees>43.3751001767814159393310546875</LatitudeDegrees>
              <LongitudeDegrees>-4.53852069564163684844970703125</LongitudeDegrees>
            </Position>
            <AltitudeMeters>103.8000030517578125</AltitudeMeters>
            <DistanceMeters>NAN</DistanceMeters>
          </Trackpoint>
          <Trackpoint>
            <Time>2022-07-15T09:52:34.000Z</Time>
            <Position>
              <LatitudeDegrees>43.37510109879076480865478515625</LatitudeDegrees>
              <LongitudeDegrees>-4.5385744236409664154052734375</LongitudeDegrees>
            </Position>
            <AltitudeMeters>104</AltitudeMeters>
            <DistanceMeters>NAN</DistanceMeters>
          </Trackpoint>
          <Trackpoint>
            <Time>2022-07-15T09:52:35.000Z</Time>
            <Position>
              <LatitudeDegrees>43.37509187869727611541748046875</LatitudeDegrees>
              <LongitudeDegrees>-4.5386045984923839569091796875</LongitudeDegrees>
            </Position>
            <AltitudeMeters>104.1999969482421875</AltitudeMeters>
            <DistanceMeters>NAN</DistanceMeters>
          </Trackpoint>
          <Trackpoint>
            <Time>2022-07-15T09:52:37.000Z</Time>
            <Position>
              <LatitudeDegrees>43.37507142685353755950927734375</LatitudeDegrees>
              <LongitudeDegrees>-4.53866972588002681732177734375</LongitudeDegrees>
            </Position>
            <AltitudeMeters>104.1999969482421875</AltitudeMeters>
            <DistanceMeters>NAN</DistanceMeters>
          </Trackpoint>
          <Trackpoint>
            <Time>2022-07-15T09:52:43.000Z</Time>
            <Position>
              <LatitudeDegrees>43.37508182041347026824951171875</LatitudeDegrees>
              <LongitudeDegrees>-4.53882596455514430999755859375</LongitudeDegrees>
            </Position>
            <AltitudeMeters>104.8000030517578125</AltitudeMeters>
            <DistanceMeters>NAN</DistanceMeters>
          </Trackpoint>
          <Trackpoint>
            <Time>2022-07-15T09:52:48.000Z</Time>
            <Position>
              <LatitudeDegrees>43.375106044113636016845703125</LatitudeDegrees>
              <LongitudeDegrees>-4.53894632868468761444091796875</LongitudeDegrees>
            </Position>
            <AltitudeMeters>105.1999969482421875</AltitudeMeters>
            <DistanceMeters>NAN</DistanceMeters>
          </Trackpoint>
          <Trackpoint>
            <Time>2022-07-15T09:52:49.000Z</Time>
            <Position>
              <LatitudeDegrees>43.3751115761697292327880859375</LatitudeDegrees>
              <LongitudeDegrees>-4.53897382132709026336669921875</LongitudeDegrees>
            </Position>
            <AltitudeMeters>105.1999969482421875</AltitudeMeters>
            <DistanceMeters>NAN</DistanceMeters>
          </Trackpoint>
          <Trackpoint>
            <Time>2022-07-15T09:52:51.000Z</Time>
            <Position>
              <LatitudeDegrees>43.37510948069393634796142578125</LatitudeDegrees>
              <LongitudeDegrees>-4.53902746550738811492919921875</LongitudeDegrees>
            </Position>
            <AltitudeMeters>105.40000152587890625</AltitudeMeters>
            <DistanceMeters>NAN</DistanceMeters>
          </Trackpoint>
          <Trackpoint>
            <Time>2022-07-15T09:52:53.000Z</Time>
            <Position>
              <LatitudeDegrees>43.375103361904621124267578125</LatitudeDegrees>
              <LongitudeDegrees>-4.53906820155680179595947265625</LongitudeDegrees>
            </Position>
            <AltitudeMeters>105.8000030517578125</AltitudeMeters>
            <DistanceMeters>NAN</DistanceMeters>
          </Trackpoint>
          <Trackpoint>
            <Time>2022-07-15T09:52:59.000Z</Time>
            <Position>
              <LatitudeDegrees>43.3751025237143039703369140625</LatitudeDegrees>
              <LongitudeDegrees>-4.53921874053776264190673828125</LongitudeDegrees>
            </Position>
            <AltitudeMeters>106.1999969482421875</AltitudeMeters>
            <DistanceMeters>NAN</DistanceMeters>
          </Trackpoint>
          <Trackpoint>
            <Time>2022-07-15T09:53:01.000Z</Time>
            <Position>
              <LatitudeDegrees>43.37510168552398681640625</LatitudeDegrees>
              <LongitudeDegrees>-4.53926165588200092315673828125</LongitudeDegrees>
            </Position>
            <AltitudeMeters>106.40000152587890625</AltitudeMeters>
            <DistanceMeters>NAN</DistanceMeters>
          </Trackpoint>
          <Trackpoint>
            <Time>2022-07-15T09:53:03.000Z</Time>
            <Position>
              <LatitudeDegrees>43.3751008473336696624755859375</LatitudeDegrees>
              <LongitudeDegrees>-4.53930012881755828857421875</LongitudeDegrees>
            </Position>
            <AltitudeMeters>106.59999847412109375</AltitudeMeters>
            <DistanceMeters>NAN</DistanceMeters>
          </Trackpoint>
          <Trackpoint>
            <Time>2022-07-15T09:53:07.000Z</Time>
            <Position>
              <LatitudeDegrees>43.3751253224909305572509765625</LatitudeDegrees>
              <LongitudeDegrees>-4.5393639989197254180908203125</LongitudeDegrees>
            </Position>
            <AltitudeMeters>107</AltitudeMeters>
            <DistanceMeters>NAN</DistanceMeters>
          </Trackpoint>
          <Trackpoint>
            <Time>2022-07-15T09:53:08.000Z</Time>
            <Position>
              <LatitudeDegrees>43.375128842890262603759765625</LatitudeDegrees>
              <LongitudeDegrees>-4.53937925398349761962890625</LongitudeDegrees>
            </Position>
            <AltitudeMeters>107.1999969482421875</AltitudeMeters>
            <DistanceMeters>NAN</DistanceMeters>
          </Trackpoint>
          <Trackpoint>
            <Time>2022-07-15T09:53:10.000Z</Time>
            <Position>
              <LatitudeDegrees>43.37513429112732410430908203125</LatitudeDegrees>
              <LongitudeDegrees>-4.53941169194877147674560546875</LongitudeDegrees>
            </Position>
            <AltitudeMeters>107.1999969482421875</AltitudeMeters>
            <DistanceMeters>NAN</DistanceMeters>
          </Trackpoint>
          <Trackpoint>
            <Time>2022-07-15T09:53:12.000Z</Time>
            <Position>
              <LatitudeDegrees>43.37512825615704059600830078125</LatitudeDegrees>
              <LongitudeDegrees>-4.53943985514342784881591796875</LongitudeDegrees>
            </Position>
            <AltitudeMeters>107.1999969482421875</AltitudeMeters>
            <DistanceMeters>NAN</DistanceMeters>
          </Trackpoint>
          <Trackpoint>
            <Time>2022-07-15T09:53:15.000Z</Time>
            <Position>
              <LatitudeDegrees>43.37512909434735774993896484375</LatitudeDegrees>
              <LongitudeDegrees>-4.53939408995211124420166015625</LongitudeDegrees>
            </Position>
            <AltitudeMeters>107.40000152587890625</AltitudeMeters>
            <DistanceMeters>NAN</DistanceMeters>
          </Trackpoint>
          <Trackpoint>
            <Time>2022-07-15T09:53:17.000Z</Time>
            <Position>
              <LatitudeDegrees>43.37512557394802570343017578125</LatitudeDegrees>
              <LongitudeDegrees>-4.53936290927231311798095703125</LongitudeDegrees>
            </Position>
            <AltitudeMeters>107.40000152587890625</AltitudeMeters>
            <DistanceMeters>NAN</DistanceMeters>
          </Trackpoint>
          <Trackpoint>
            <Time>2022-07-15T09:53:21.000Z</Time>
            <Position>
              <LatitudeDegrees>43.3750995062291622161865234375</LatitudeDegrees>
              <LongitudeDegrees>-4.5393378473818302154541015625</LongitudeDegrees>
            </Position>
            <AltitudeMeters>107.40000152587890625</AltitudeMeters>
            <DistanceMeters>NAN</DistanceMeters>
          </Trackpoint>
          <Trackpoint>
            <Time>2022-07-15T09:53:23.000Z</Time>
            <Position>
              <LatitudeDegrees>43.37509925477206707000732421875</LatitudeDegrees>
              <LongitudeDegrees>-4.53934094868600368499755859375</LongitudeDegrees>
            </Position>
            <AltitudeMeters>107.59999847412109375</AltitudeMeters>
            <DistanceMeters>NAN</DistanceMeters>
          </Trackpoint>
          <Trackpoint>
            <Time>2022-07-15T09:53:24.000Z</Time>
            <Position>
              <LatitudeDegrees>43.37509925477206707000732421875</LatitudeDegrees>
              <LongitudeDegrees>-4.53934094868600368499755859375</LongitudeDegrees>
            </Position>
            <AltitudeMeters>107.59999847412109375</AltitudeMeters>
            <DistanceMeters>NAN</DistanceMeters>
          </Trackpoint>
          <Trackpoint>
            <Time>2022-07-15T09:56:14.000Z</Time>
            <Position>
              <LatitudeDegrees>43.37508467026054859161376953125</LatitudeDegrees>
              <LongitudeDegrees>-4.5395899750292301177978515625</LongitudeDegrees>
            </Position>
            <AltitudeMeters>109.8000030517578125</AltitudeMeters>
            <DistanceMeters>NAN</DistanceMeters>
          </Trackpoint>
          <Trackpoint>
            <Time>2022-07-15T09:56:17.000Z</Time>
            <Position>
              <LatitudeDegrees>43.37507796473801136016845703125</LatitudeDegrees>
              <LongitudeDegrees>-4.53962735831737518310546875</LongitudeDegrees>
            </Position>
            <AltitudeMeters>110</AltitudeMeters>
            <DistanceMeters>NAN</DistanceMeters>
          </Trackpoint>
          <Trackpoint>
            <Time>2022-07-15T09:56:19.000Z</Time>
            <Position>
              <LatitudeDegrees>43.3750612847506999969482421875</LatitudeDegrees>
              <LongitudeDegrees>-4.5396442897617816925048828125</LongitudeDegrees>
            </Position>
            <AltitudeMeters>109.8000030517578125</AltitudeMeters>
            <DistanceMeters>NAN</DistanceMeters>
          </Trackpoint>
          <Trackpoint>
            <Time>2022-07-15T09:56:23.000Z</Time>
            <Position>
              <LatitudeDegrees>43.37501727975904941558837890625</LatitudeDegrees>
              <LongitudeDegrees>-4.53967991285026073455810546875</LongitudeDegrees>
            </Position>
            <AltitudeMeters>109.59999847412109375</AltitudeMeters>
            <DistanceMeters>NAN</DistanceMeters>
          </Trackpoint>
          <Trackpoint>
            <Time>2022-07-15T09:56:30.000Z</Time>
            <Position>
              <LatitudeDegrees>43.37498442269861698150634765625</LatitudeDegrees>
              <LongitudeDegrees>-4.53986079432070255279541015625</LongitudeDegrees>
            </Position>
            <AltitudeMeters>109.1999969482421875</AltitudeMeters>
            <DistanceMeters>NAN</DistanceMeters>
          </Trackpoint>
          <Trackpoint>
            <Time>2022-07-15T09:56:33.000Z</Time>
            <Position>
              <LatitudeDegrees>43.37498459033668041229248046875</LatitudeDegrees>
              <LongitudeDegrees>-4.5399621315300464630126953125</LongitudeDegrees>
            </Position>
            <AltitudeMeters>108.59999847412109375</AltitudeMeters>
            <DistanceMeters>NAN</DistanceMeters>
          </Trackpoint>
          <Trackpoint>
            <Time>2022-07-15T09:56:35.000Z</Time>
            <Position>
              <LatitudeDegrees>43.37498526088893413543701171875</LatitudeDegrees>
              <LongitudeDegrees>-4.54000546596944332122802734375</LongitudeDegrees>
            </Position>
            <AltitudeMeters>108.1999969482421875</AltitudeMeters>
            <DistanceMeters>NAN</DistanceMeters>
          </Trackpoint>
          <Trackpoint>
            <Time>2022-07-15T09:56:36.000Z</Time>
            <Position>
              <LatitudeDegrees>43.37498241104185581207275390625</LatitudeDegrees>
              <LongitudeDegrees>-4.540021307766437530517578125</LongitudeDegrees>
            </Position>
            <AltitudeMeters>108</AltitudeMeters>
            <DistanceMeters>NAN</DistanceMeters>
          </Trackpoint>
          <Trackpoint>
            <Time>2022-07-15T09:56:38.000Z</Time>
            <Position>
              <LatitudeDegrees>43.374974615871906280517578125</LatitudeDegrees>
              <LongitudeDegrees>-4.5400536619126796722412109375</LongitudeDegrees>
            </Position>
            <AltitudeMeters>107.8000030517578125</AltitudeMeters>
            <DistanceMeters>NAN</DistanceMeters>
          </Trackpoint>
          <Trackpoint>
            <Time>2022-07-15T09:56:40.000Z</Time>
            <Position>
              <LatitudeDegrees>43.37496413849294185638427734375</LatitudeDegrees>
              <LongitudeDegrees>-4.54006254673004150390625</LongitudeDegrees>
            </Position>
            <AltitudeMeters>107.40000152587890625</AltitudeMeters>
            <DistanceMeters>NAN</DistanceMeters>
          </Trackpoint>
          <Trackpoint>
            <Time>2022-07-15T09:56:41.000Z</Time>
            <Position>
              <LatitudeDegrees>43.37496288120746612548828125</LatitudeDegrees>
              <LongitudeDegrees>-4.54006497748196125030517578125</LongitudeDegrees>
            </Position>
            <AltitudeMeters>107.40000152587890625</AltitudeMeters>
            <DistanceMeters>NAN</DistanceMeters>
          </Trackpoint>
          <Trackpoint>
            <Time>2022-07-15T09:56:42.000Z</Time>
            <Position>
              <LatitudeDegrees>43.3749607019126415252685546875</LatitudeDegrees>
              <LongitudeDegrees>-4.5400643907487392425537109375</LongitudeDegrees>
            </Position>
            <AltitudeMeters>107.1999969482421875</AltitudeMeters>
            <DistanceMeters>NAN</DistanceMeters>
          </Trackpoint>
          <Trackpoint>
            <Time>2022-07-15T10:01:36.000Z</Time>
            <Position>
              <LatitudeDegrees>43.37497738189995288848876953125</LatitudeDegrees>
              <LongitudeDegrees>-4.54010403715074062347412109375</LongitudeDegrees>
            </Position>
            <AltitudeMeters>107.8000030517578125</AltitudeMeters>
            <DistanceMeters>NAN</DistanceMeters>
          </Trackpoint>
          <Trackpoint>
            <Time>2022-07-15T10:01:37.000Z</Time>
            <Position>
              <LatitudeDegrees>43.3749769628047943115234375</LatitudeDegrees>
              <LongitudeDegrees>-4.540140330791473388671875</LongitudeDegrees>
            </Position>
            <AltitudeMeters>107.8000030517578125</AltitudeMeters>
            <DistanceMeters>NAN</DistanceMeters>
          </Trackpoint>
          <Trackpoint>
            <Time>2022-07-15T10:01:38.000Z</Time>
            <Position>
              <LatitudeDegrees>43.3749724365770816802978515625</LatitudeDegrees>
              <LongitudeDegrees>-4.5401872694492340087890625</LongitudeDegrees>
            </Position>
            <AltitudeMeters>107.8000030517578125</AltitudeMeters>
            <DistanceMeters>NAN</DistanceMeters>
          </Trackpoint>
          <Trackpoint>
            <Time>2022-07-15T10:01:44.000Z</Time>
            <Position>
              <LatitudeDegrees>43.37491066195070743560791015625</LatitudeDegrees>
              <LongitudeDegrees>-4.54044878482818603515625</LongitudeDegrees>
            </Position>
            <AltitudeMeters>107.59999847412109375</AltitudeMeters>
            <DistanceMeters>NAN</DistanceMeters>
          </Trackpoint>
          <Trackpoint>
            <Time>2022-07-15T10:01:46.000Z</Time>
            <Position>
              <LatitudeDegrees>43.37489356286823749542236328125</LatitudeDegrees>
              <LongitudeDegrees>-4.5405156724154949188232421875</LongitudeDegrees>
            </Position>
            <AltitudeMeters>107.40000152587890625</AltitudeMeters>
            <DistanceMeters>NAN</DistanceMeters>
          </Trackpoint>
          <Trackpoint>
            <Time>2022-07-15T10:01:49.000Z</Time>
            <Position>
              <LatitudeDegrees>43.374873362481594085693359375</LatitudeDegrees>
              <LongitudeDegrees>-4.54057820141315460205078125</LongitudeDegrees>
            </Position>
            <AltitudeMeters>107</AltitudeMeters>
            <DistanceMeters>NAN</DistanceMeters>
          </Trackpoint>
          <Trackpoint>
            <Time>2022-07-15T10:01:55.000Z</Time>
            <Position>
              <LatitudeDegrees>43.3747811615467071533203125</LatitudeDegrees>
              <LongitudeDegrees>-4.54074625857174396514892578125</LongitudeDegrees>
            </Position>
            <AltitudeMeters>106.1999969482421875</AltitudeMeters>
            <DistanceMeters>NAN</DistanceMeters>
          </Trackpoint>
          <Trackpoint>
            <Time>2022-07-15T10:02:00.000Z</Time>
            <Position>
              <LatitudeDegrees>43.37474235333502292633056640625</LatitudeDegrees>
              <LongitudeDegrees>-4.54094323329627513885498046875</LongitudeDegrees>
            </Position>
            <AltitudeMeters>105.8000030517578125</AltitudeMeters>
            <DistanceMeters>NAN</DistanceMeters>
          </Trackpoint>
          <Trackpoint>
            <Time>2022-07-15T10:02:03.000Z</Time>
            <Position>
              <LatitudeDegrees>43.37471385486423969268798828125</LatitudeDegrees>
              <LongitudeDegrees>-4.54100735485553741455078125</LongitudeDegrees>
            </Position>
            <AltitudeMeters>105.8000030517578125</AltitudeMeters>
            <DistanceMeters>NAN</DistanceMeters>
          </Trackpoint>
          <Trackpoint>
            <Time>2022-07-15T10:02:04.000Z</Time>
            <Position>
              <LatitudeDegrees>43.3747115917503833770751953125</LatitudeDegrees>
              <LongitudeDegrees>-4.54101062379777431488037109375</LongitudeDegrees>
            </Position>
            <AltitudeMeters>105.8000030517578125</AltitudeMeters>
            <DistanceMeters>NAN</DistanceMeters>
          </Trackpoint>
          <Trackpoint>
            <Time>2022-07-15T10:02:05.000Z</Time>
            <Position>
              <LatitudeDegrees>43.37471351958811283111572265625</LatitudeDegrees>
              <LongitudeDegrees>-4.541009366512298583984375</LongitudeDegrees>
            </Position>
            <AltitudeMeters>105.59999847412109375</AltitudeMeters>
            <DistanceMeters>NAN</DistanceMeters>
          </Trackpoint>
          <Trackpoint>
            <Time>2022-07-15T10:03:48.000Z</Time>
            <Position>
              <LatitudeDegrees>43.37462903000414371490478515625</LatitudeDegrees>
              <LongitudeDegrees>-4.54090786166489124298095703125</LongitudeDegrees>
            </Position>
            <AltitudeMeters>105.59999847412109375</AltitudeMeters>
            <DistanceMeters>NAN</DistanceMeters>
          </Trackpoint>
          <Trackpoint>
            <Time>2022-07-15T10:03:49.000Z</Time>
            <Position>
              <LatitudeDegrees>43.37460958398878574371337890625</LatitudeDegrees>
              <LongitudeDegrees>-4.5409042574465274810791015625</LongitudeDegrees>
            </Position>
            <AltitudeMeters>105.59999847412109375</AltitudeMeters>
            <DistanceMeters>NAN</DistanceMeters>
          </Trackpoint>
          <Trackpoint>
            <Time>2022-07-15T10:03:50.000Z</Time>
            <Position>
              <LatitudeDegrees>43.3745858632028102874755859375</LatitudeDegrees>
              <LongitudeDegrees>-4.54090367071330547332763671875</LongitudeDegrees>
            </Position>
            <AltitudeMeters>105.8000030517578125</AltitudeMeters>
            <DistanceMeters>NAN</DistanceMeters>
          </Trackpoint>
          <Trackpoint>
            <Time>2022-07-15T10:03:56.000Z</Time>
            <Position>
              <LatitudeDegrees>43.37446558289229869842529296875</LatitudeDegrees>
              <LongitudeDegrees>-4.5409049279987812042236328125</LongitudeDegrees>
            </Position>
            <AltitudeMeters>106.1999969482421875</AltitudeMeters>
            <DistanceMeters>NAN</DistanceMeters>
          </Trackpoint>
          <Trackpoint>
            <Time>2022-07-15T10:03:58.000Z</Time>
            <Position>
              <LatitudeDegrees>43.37442719377577304840087890625</LatitudeDegrees>
              <LongitudeDegrees>-4.54092378728091716766357421875</LongitudeDegrees>
            </Position>
            <AltitudeMeters>106.40000152587890625</AltitudeMeters>
            <DistanceMeters>NAN</DistanceMeters>
          </Trackpoint>
          <Trackpoint>
            <Time>2022-07-15T10:04:00.000Z</Time>
            <Position>
              <LatitudeDegrees>43.3743917383253574371337890625</LatitudeDegrees>
              <LongitudeDegrees>-4.54093803651630878448486328125</LongitudeDegrees>
            </Position>
            <AltitudeMeters>106.40000152587890625</AltitudeMeters>
            <DistanceMeters>NAN</DistanceMeters>
          </Trackpoint>
          <Trackpoint>
            <Time>2022-07-15T10:04:02.000Z</Time>
            <Position>
              <LatitudeDegrees>43.3743598870933055877685546875</LatitudeDegrees>
              <LongitudeDegrees>-4.54095865599811077117919921875</LongitudeDegrees>
            </Position>
            <AltitudeMeters>106.8000030517578125</AltitudeMeters>
            <DistanceMeters>NAN</DistanceMeters>
          </Trackpoint>
          <Trackpoint>
            <Time>2022-07-15T10:04:03.000Z</Time>
            <Position>
              <LatitudeDegrees>43.37434236891567707061767578125</LatitudeDegrees>
              <LongitudeDegrees>-4.54096452333033084869384765625</LongitudeDegrees>
            </Position>
            <AltitudeMeters>107</AltitudeMeters>
            <DistanceMeters>NAN</DistanceMeters>
          </Trackpoint>
          <Trackpoint>
            <Time>2022-07-15T10:04:05.000Z</Time>
            <Position>
              <LatitudeDegrees>43.37430171668529510498046875</LatitudeDegrees>
              <LongitudeDegrees>-4.54097441397607326507568359375</LongitudeDegrees>
            </Position>
            <AltitudeMeters>107.1999969482421875</AltitudeMeters>
            <DistanceMeters>NAN</DistanceMeters>
          </Trackpoint>
          <Trackpoint>
            <Time>2022-07-15T10:04:11.000Z</Time>
            <Position>
              <LatitudeDegrees>43.3741888962686061859130859375</LatitudeDegrees>
              <LongitudeDegrees>-4.5410075224936008453369140625</LongitudeDegrees>
            </Position>
            <AltitudeMeters>108</AltitudeMeters>
            <DistanceMeters>NAN</DistanceMeters>
          </Trackpoint>
          <Trackpoint>
            <Time>2022-07-15T10:04:14.000Z</Time>
            <Position>
              <LatitudeDegrees>43.3741345815360546112060546875</LatitudeDegrees>
              <LongitudeDegrees>-4.54102856107056140899658203125</LongitudeDegrees>
            </Position>
            <AltitudeMeters>108.40000152587890625</AltitudeMeters>
            <DistanceMeters>NAN</DistanceMeters>
          </Trackpoint>
          <Trackpoint>
            <Time>2022-07-15T10:04:21.000Z</Time>
            <Position>
              <LatitudeDegrees>43.37401044555008411407470703125</LatitudeDegrees>
              <LongitudeDegrees>-4.54109058715403079986572265625</LongitudeDegrees>
            </Position>
            <AltitudeMeters>109.1999969482421875</AltitudeMeters>
            <DistanceMeters>NAN</DistanceMeters>
          </Trackpoint>
          <Trackpoint>
            <Time>2022-07-15T10:04:25.000Z</Time>
            <Position>
              <LatitudeDegrees>43.37393425405025482177734375</LatitudeDegrees>
              <LongitudeDegrees>-4.54112931154668331146240234375</LongitudeDegrees>
            </Position>
            <AltitudeMeters>109.59999847412109375</AltitudeMeters>
            <DistanceMeters>NAN</DistanceMeters>
          </Trackpoint>
          <Trackpoint>
            <Time>2022-07-15T10:04:28.000Z</Time>
            <Position>
              <LatitudeDegrees>43.37387667037546634674072265625</LatitudeDegrees>
              <LongitudeDegrees>-4.54115881584584712982177734375</LongitudeDegrees>
            </Position>
            <AltitudeMeters>109.8000030517578125</AltitudeMeters>
            <DistanceMeters>NAN</DistanceMeters>
          </Trackpoint>
          <Trackpoint>
            <Time>2022-07-15T10:04:29.000Z</Time>
            <Position>
              <LatitudeDegrees>43.37385856546461582183837890625</LatitudeDegrees>
              <LongitudeDegrees>-4.5411684550344944000244140625</LongitudeDegrees>
            </Position>
            <AltitudeMeters>109.8000030517578125</AltitudeMeters>
            <DistanceMeters>NAN</DistanceMeters>
          </Trackpoint>
          <Trackpoint>
            <Time>2022-07-15T10:04:31.000Z</Time>
            <Position>
              <LatitudeDegrees>43.37382302619516849517822265625</LatitudeDegrees>
              <LongitudeDegrees>-4.541184715926647186279296875</LongitudeDegrees>
            </Position>
            <AltitudeMeters>110</AltitudeMeters>
            <DistanceMeters>NAN</DistanceMeters>
          </Trackpoint>
          <Trackpoint>
            <Time>2022-07-15T10:04:33.000Z</Time>
            <Position>
              <LatitudeDegrees>43.3737915940582752227783203125</LatitudeDegrees>
              <LongitudeDegrees>-4.54120558686554431915283203125</LongitudeDegrees>
            </Position>
            <AltitudeMeters>110.1999969482421875</AltitudeMeters>
            <DistanceMeters>NAN</DistanceMeters>
          </Trackpoint>
          <Trackpoint>
            <Time>2022-07-15T10:04:34.000Z</Time>
            <Position>
              <LatitudeDegrees>43.37377105839550495147705078125</LatitudeDegrees>
              <LongitudeDegrees>-4.5412145555019378662109375</LongitudeDegrees>
            </Position>
            <AltitudeMeters>110.1999969482421875</AltitudeMeters>
            <DistanceMeters>NAN</DistanceMeters>
          </Trackpoint>
          <Trackpoint>
            <Time>2022-07-15T10:04:36.000Z</Time>
            <Position>
              <LatitudeDegrees>43.37373987771570682525634765625</LatitudeDegrees>
              <LongitudeDegrees>-4.54123777337372303009033203125</LongitudeDegrees>
            </Position>
            <AltitudeMeters>110.40000152587890625</AltitudeMeters>
            <DistanceMeters>NAN</DistanceMeters>
          </Trackpoint>
          <Trackpoint>
            <Time>2022-07-15T10:04:37.000Z</Time>
            <Position>
              <LatitudeDegrees>43.3737235330045223236083984375</LatitudeDegrees>
              <LongitudeDegrees>-4.54124900512397289276123046875</LongitudeDegrees>
            </Position>
            <AltitudeMeters>110.59999847412109375</AltitudeMeters>
            <DistanceMeters>NAN</DistanceMeters>
          </Trackpoint>
          <Trackpoint>
            <Time>2022-07-15T10:04:38.000Z</Time>
            <Position>
              <LatitudeDegrees>43.3737055957317352294921875</LatitudeDegrees>
              <LongitudeDegrees>-4.54125654883682727813720703125</LongitudeDegrees>
            </Position>
            <AltitudeMeters>110.8000030517578125</AltitudeMeters>
            <DistanceMeters>NAN</DistanceMeters>
          </Trackpoint>
          <Trackpoint>
            <Time>2022-07-15T10:04:42.000Z</Time>
            <Position>
              <LatitudeDegrees>43.37363225407898426055908203125</LatitudeDegrees>
              <LongitudeDegrees>-4.5412869751453399658203125</LongitudeDegrees>
            </Position>
            <AltitudeMeters>111.40000152587890625</AltitudeMeters>
            <DistanceMeters>NAN</DistanceMeters>
          </Trackpoint>
          <Trackpoint>
            <Time>2022-07-15T10:04:44.000Z</Time>
            <Position>
              <LatitudeDegrees>43.37359889410436153411865234375</LatitudeDegrees>
              <LongitudeDegrees>-4.5413032360374927520751953125</LongitudeDegrees>
            </Position>
            <AltitudeMeters>111.8000030517578125</AltitudeMeters>
            <DistanceMeters>NAN</DistanceMeters>
          </Trackpoint>
          <Trackpoint>
            <Time>2022-07-15T10:04:47.000Z</Time>
            <Position>
              <LatitudeDegrees>43.37356855161488056182861328125</LatitudeDegrees>
              <LongitudeDegrees>-4.5413521863520145416259765625</LongitudeDegrees>
            </Position>
            <AltitudeMeters>112</AltitudeMeters>
            <DistanceMeters>NAN</DistanceMeters>
          </Trackpoint>
          <Trackpoint>
            <Time>2022-07-15T10:04:50.000Z</Time>
            <Position>
              <LatitudeDegrees>43.37354759685695171356201171875</LatitudeDegrees>
              <LongitudeDegrees>-4.541441537439823150634765625</LongitudeDegrees>
            </Position>
            <AltitudeMeters>112.40000152587890625</AltitudeMeters>
            <DistanceMeters>NAN</DistanceMeters>
          </Trackpoint>
          <Trackpoint>
            <Time>2022-07-15T10:04:52.000Z</Time>
            <Position>
              <LatitudeDegrees>43.37352496571838855743408203125</LatitudeDegrees>
              <LongitudeDegrees>-4.54150431789457798004150390625</LongitudeDegrees>
            </Position>
            <AltitudeMeters>112.59999847412109375</AltitudeMeters>
            <DistanceMeters>NAN</DistanceMeters>
          </Trackpoint>
          <Trackpoint>
            <Time>2022-07-15T10:04:54.000Z</Time>
            <Position>
              <LatitudeDegrees>43.373522870242595672607421875</LatitudeDegrees>
              <LongitudeDegrees>-4.541565589606761932373046875</LongitudeDegrees>
            </Position>
            <AltitudeMeters>112.8000030517578125</AltitudeMeters>
            <DistanceMeters>NAN</DistanceMeters>
          </Trackpoint>
          <Trackpoint>
            <Time>2022-07-15T10:05:03.000Z</Time>
            <Position>
              <LatitudeDegrees>43.37349680252373218536376953125</LatitudeDegrees>
              <LongitudeDegrees>-4.54184378497302532196044921875</LongitudeDegrees>
            </Position>
            <AltitudeMeters>113</AltitudeMeters>
            <DistanceMeters>NAN</DistanceMeters>
          </Trackpoint>
          <Trackpoint>
            <Time>2022-07-15T10:05:10.000Z</Time>
            <Position>
              <LatitudeDegrees>43.3734003268182277679443359375</LatitudeDegrees>
              <LongitudeDegrees>-4.54202215187251567840576171875</LongitudeDegrees>
            </Position>
            <AltitudeMeters>113.59999847412109375</AltitudeMeters>
            <DistanceMeters>NAN</DistanceMeters>
          </Trackpoint>
          <Trackpoint>
            <Time>2022-07-15T10:05:13.000Z</Time>
            <Position>
              <LatitudeDegrees>43.3733409829437732696533203125</LatitudeDegrees>
              <LongitudeDegrees>-4.54206707887351512908935546875</LongitudeDegrees>
            </Position>
            <AltitudeMeters>113.59999847412109375</AltitudeMeters>
            <DistanceMeters>NAN</DistanceMeters>
          </Trackpoint>
          <Trackpoint>
            <Time>2022-07-15T10:05:17.000Z</Time>
            <Position>
              <LatitudeDegrees>43.3732657134532928466796875</LatitudeDegrees>
              <LongitudeDegrees>-4.54210898838937282562255859375</LongitudeDegrees>
            </Position>
            <AltitudeMeters>113.8000030517578125</AltitudeMeters>
            <DistanceMeters>NAN</DistanceMeters>
          </Trackpoint>
          <Trackpoint>
            <Time>2022-07-15T10:05:21.000Z</Time>
            <Position>
              <LatitudeDegrees>43.373211063444614410400390625</LatitudeDegrees>
              <LongitudeDegrees>-4.54214335419237613677978515625</LongitudeDegrees>
            </Position>
            <AltitudeMeters>114</AltitudeMeters>
            <DistanceMeters>NAN</DistanceMeters>
          </Trackpoint>
          <Trackpoint>
            <Time>2022-07-15T10:05:22.000Z</Time>
            <Position>
              <LatitudeDegrees>43.3732078783214092254638671875</LatitudeDegrees>
              <LongitudeDegrees>-4.5421494729816913604736328125</LongitudeDegrees>
            </Position>
            <AltitudeMeters>114</AltitudeMeters>
            <DistanceMeters>NAN</DistanceMeters>
          </Trackpoint>
          <Trackpoint>
            <Time>2022-07-15T10:05:24.000Z</Time>
            <Position>
              <LatitudeDegrees>43.37320645339787006378173828125</LatitudeDegrees>
              <LongitudeDegrees>-4.5421508140861988067626953125</LongitudeDegrees>
            </Position>
            <AltitudeMeters>114.1999969482421875</AltitudeMeters>
            <DistanceMeters>NAN</DistanceMeters>
          </Trackpoint>
          <Trackpoint>
            <Time>2022-07-15T10:05:52.000Z</Time>
            <Position>
              <LatitudeDegrees>43.37322405539453029632568359375</LatitudeDegrees>
              <LongitudeDegrees>-4.54211669974029064178466796875</LongitudeDegrees>
            </Position>
            <AltitudeMeters>113.59999847412109375</AltitudeMeters>
            <DistanceMeters>NAN</DistanceMeters>
          </Trackpoint>
          <Trackpoint>
            <Time>2022-07-15T10:05:53.000Z</Time>
            <Position>
              <LatitudeDegrees>43.37320427410304546356201171875</LatitudeDegrees>
              <LongitudeDegrees>-4.5420988462865352630615234375</LongitudeDegrees>
            </Position>
            <AltitudeMeters>113.59999847412109375</AltitudeMeters>
            <DistanceMeters>NAN</DistanceMeters>
          </Trackpoint>
          <Trackpoint>
            <Time>2022-07-15T10:05:58.000Z</Time>
            <Position>
              <LatitudeDegrees>43.37308793328702449798583984375</LatitudeDegrees>
              <LongitudeDegrees>-4.54213128425180912017822265625</LongitudeDegrees>
            </Position>
            <AltitudeMeters>113.8000030517578125</AltitudeMeters>
            <DistanceMeters>NAN</DistanceMeters>
          </Trackpoint>
          <Trackpoint>
            <Time>2022-07-15T10:06:03.000Z</Time>
            <Position>
              <LatitudeDegrees>43.37296790443360805511474609375</LatitudeDegrees>
              <LongitudeDegrees>-4.542177803814411163330078125</LongitudeDegrees>
            </Position>
            <AltitudeMeters>114.1999969482421875</AltitudeMeters>
            <DistanceMeters>NAN</DistanceMeters>
          </Trackpoint>
          <Trackpoint>
            <Time>2022-07-15T10:06:05.000Z</Time>
            <Position>
              <LatitudeDegrees>43.37292633019387722015380859375</LatitudeDegrees>
              <LongitudeDegrees>-4.542199932038784027099609375</LongitudeDegrees>
            </Position>
            <AltitudeMeters>114.40000152587890625</AltitudeMeters>
            <DistanceMeters>NAN</DistanceMeters>
          </Trackpoint>
          <Trackpoint>
            <Time>2022-07-15T10:06:09.000Z</Time>
            <Position>
              <LatitudeDegrees>43.3728555031120777130126953125</LatitudeDegrees>
              <LongitudeDegrees>-4.54227830283343791961669921875</LongitudeDegrees>
            </Position>
            <AltitudeMeters>114.8000030517578125</AltitudeMeters>
            <DistanceMeters>NAN</DistanceMeters>
          </Trackpoint>
          <Trackpoint>
            <Time>2022-07-15T10:06:10.000Z</Time>
            <Position>
              <LatitudeDegrees>43.372848965227603912353515625</LatitudeDegrees>
              <LongitudeDegrees>-4.54230646602809429168701171875</LongitudeDegrees>
            </Position>
            <AltitudeMeters>115</AltitudeMeters>
            <DistanceMeters>NAN</DistanceMeters>
          </Trackpoint>
          <Trackpoint>
            <Time>2022-07-15T10:06:17.000Z</Time>
            <Position>
              <LatitudeDegrees>43.37279926054179668426513671875</LatitudeDegrees>
              <LongitudeDegrees>-4.54250897280871868133544921875</LongitudeDegrees>
            </Position>
            <AltitudeMeters>115.59999847412109375</AltitudeMeters>
            <DistanceMeters>NAN</DistanceMeters>
          </Trackpoint>
          <Trackpoint>
            <Time>2022-07-15T10:06:19.000Z</Time>
            <Position>
              <LatitudeDegrees>43.37277931161224842071533203125</LatitudeDegrees>
              <LongitudeDegrees>-4.5425601862370967864990234375</LongitudeDegrees>
            </Position>
            <AltitudeMeters>115.8000030517578125</AltitudeMeters>
            <DistanceMeters>NAN</DistanceMeters>
          </Trackpoint>
          <Trackpoint>
            <Time>2022-07-15T10:06:22.000Z</Time>
            <Position>
              <LatitudeDegrees>43.372753746807575225830078125</LatitudeDegrees>
              <LongitudeDegrees>-4.54263210296630859375</LongitudeDegrees>
            </Position>
            <AltitudeMeters>116.1999969482421875</AltitudeMeters>
            <DistanceMeters>NAN</DistanceMeters>
          </Trackpoint>
          <Trackpoint>
            <Time>2022-07-15T10:06:23.000Z</Time>
            <Position>
              <LatitudeDegrees>43.372756429016590118408203125</LatitudeDegrees>
              <LongitudeDegrees>-4.54265297390520572662353515625</LongitudeDegrees>
            </Position>
            <AltitudeMeters>116.1999969482421875</AltitudeMeters>
            <DistanceMeters>NAN</DistanceMeters>
          </Trackpoint>
          <Trackpoint>
            <Time>2022-07-15T10:06:24.000Z</Time>
            <Position>
              <LatitudeDegrees>43.3727653138339519500732421875</LatitudeDegrees>
              <LongitudeDegrees>-4.5426664687693119049072265625</LongitudeDegrees>
            </Position>
            <AltitudeMeters>116.1999969482421875</AltitudeMeters>
            <DistanceMeters>NAN</DistanceMeters>
          </Trackpoint>
          <Trackpoint>
            <Time>2022-07-15T10:06:27.000Z</Time>
            <Position>
              <LatitudeDegrees>43.37277830578386783599853515625</LatitudeDegrees>
              <LongitudeDegrees>-4.54267434775829315185546875</LongitudeDegrees>
            </Position>
            <AltitudeMeters>116.1999969482421875</AltitudeMeters>
            <DistanceMeters>NAN</DistanceMeters>
          </Trackpoint>
          <Trackpoint>
            <Time>2022-07-15T10:06:36.000Z</Time>
            <Position>
              <LatitudeDegrees>43.37286581285297870635986328125</LatitudeDegrees>
              <LongitudeDegrees>-4.5426978170871734619140625</LongitudeDegrees>
            </Position>
            <AltitudeMeters>115.8000030517578125</AltitudeMeters>
            <DistanceMeters>NAN</DistanceMeters>
          </Trackpoint>
          <Trackpoint>
            <Time>2022-07-15T10:06:37.000Z</Time>
            <Position>
              <LatitudeDegrees>43.37287922389805316925048828125</LatitudeDegrees>
              <LongitudeDegrees>-4.54269421286880970001220703125</LongitudeDegrees>
            </Position>
            <AltitudeMeters>115.8000030517578125</AltitudeMeters>
            <DistanceMeters>NAN</DistanceMeters>
          </Trackpoint>
          <Trackpoint>
            <Time>2022-07-15T10:06:42.000Z</Time>
            <Position>
              <LatitudeDegrees>43.372916691005229949951171875</LatitudeDegrees>
              <LongitudeDegrees>-4.54267024062573909759521484375</LongitudeDegrees>
            </Position>
            <AltitudeMeters>115.40000152587890625</AltitudeMeters>
            <DistanceMeters>NAN</DistanceMeters>
          </Trackpoint>
          <Trackpoint>
            <Time>2022-07-15T10:06:43.000Z</Time>
            <Position>
              <LatitudeDegrees>43.37291903793811798095703125</LatitudeDegrees>
              <LongitudeDegrees>-4.54266739077866077423095703125</LongitudeDegrees>
            </Position>
            <AltitudeMeters>115.40000152587890625</AltitudeMeters>
            <DistanceMeters>NAN</DistanceMeters>
          </Trackpoint>
          <Trackpoint>
            <Time>2022-07-15T10:06:44.000Z</Time>
            <Position>
              <LatitudeDegrees>43.37291945703327655792236328125</LatitudeDegrees>
              <LongitudeDegrees>-4.54266454093158245086669921875</LongitudeDegrees>
            </Position>
            <AltitudeMeters>115.1999969482421875</AltitudeMeters>
            <DistanceMeters>NAN</DistanceMeters>
          </Trackpoint>
          <Trackpoint>
            <Time>2022-07-15T10:07:58.000Z</Time>
            <Position>
              <LatitudeDegrees>43.372880481183528900146484375</LatitudeDegrees>
              <LongitudeDegrees>-4.5427710749208927154541015625</LongitudeDegrees>
            </Position>
            <AltitudeMeters>115.59999847412109375</AltitudeMeters>
            <DistanceMeters>NAN</DistanceMeters>
          </Trackpoint>
          <Trackpoint>
            <Time>2022-07-15T10:08:00.000Z</Time>
            <Position>
              <LatitudeDegrees>43.37286564521491527557373046875</LatitudeDegrees>
              <LongitudeDegrees>-4.54280803911387920379638671875</LongitudeDegrees>
            </Position>
            <AltitudeMeters>115.40000152587890625</AltitudeMeters>
            <DistanceMeters>NAN</DistanceMeters>
          </Trackpoint>
          <Trackpoint>
            <Time>2022-07-15T10:08:02.000Z</Time>
            <Position>
              <LatitudeDegrees>43.37282692082226276397705078125</LatitudeDegrees>
              <LongitudeDegrees>-4.54283930361270904541015625</LongitudeDegrees>
            </Position>
            <AltitudeMeters>115.1999969482421875</AltitudeMeters>
            <DistanceMeters>NAN</DistanceMeters>
          </Trackpoint>
          <Trackpoint>
            <Time>2022-07-15T10:08:03.000Z</Time>
            <Position>
              <LatitudeDegrees>43.372821472585201263427734375</LatitudeDegrees>
              <LongitudeDegrees>-4.54285112209618091583251953125</LongitudeDegrees>
            </Position>
            <AltitudeMeters>115.1999969482421875</AltitudeMeters>
            <DistanceMeters>NAN</DistanceMeters>
          </Trackpoint>
          <Trackpoint>
            <Time>2022-07-15T10:08:06.000Z</Time>
            <Position>
              <LatitudeDegrees>43.37282792665064334869384765625</LatitudeDegrees>
              <LongitudeDegrees>-4.54290367662906646728515625</LongitudeDegrees>
            </Position>
            <AltitudeMeters>115.40000152587890625</AltitudeMeters>
            <DistanceMeters>NAN</DistanceMeters>
          </Trackpoint>
          <Trackpoint>
            <Time>2022-07-15T10:08:11.000Z</Time>
            <Position>
              <LatitudeDegrees>43.37282323278486728668212890625</LatitudeDegrees>
              <LongitudeDegrees>-4.54292647540569305419921875</LongitudeDegrees>
            </Position>
            <AltitudeMeters>115.8000030517578125</AltitudeMeters>
            <DistanceMeters>NAN</DistanceMeters>
          </Trackpoint>
          <Trackpoint>
            <Time>2022-07-15T10:08:15.000Z</Time>
            <Position>
              <LatitudeDegrees>43.37283588945865631103515625</LatitudeDegrees>
              <LongitudeDegrees>-4.5429152436554431915283203125</LongitudeDegrees>
            </Position>
            <AltitudeMeters>115.8000030517578125</AltitudeMeters>
            <DistanceMeters>NAN</DistanceMeters>
          </Trackpoint>
          <Trackpoint>
            <Time>2022-07-15T10:08:17.000Z</Time>
            <Position>
              <LatitudeDegrees>43.37285424582660198211669921875</LatitudeDegrees>
              <LongitudeDegrees>-4.5428934507071971893310546875</LongitudeDegrees>
            </Position>
            <AltitudeMeters>115.8000030517578125</AltitudeMeters>
            <DistanceMeters>NAN</DistanceMeters>
          </Trackpoint>
          <Trackpoint>
            <Time>2022-07-15T10:08:21.000Z</Time>
            <Position>
              <LatitudeDegrees>43.3728709258139133453369140625</LatitudeDegrees>
              <LongitudeDegrees>-4.54284760169684886932373046875</LongitudeDegrees>
            </Position>
            <AltitudeMeters>115.8000030517578125</AltitudeMeters>
            <DistanceMeters>NAN</DistanceMeters>
          </Trackpoint>
          <Trackpoint>
            <Time>2022-07-15T10:08:22.000Z</Time>
            <Position>
              <LatitudeDegrees>43.3728799782693386077880859375</LatitudeDegrees>
              <LongitudeDegrees>-4.542832262814044952392578125</LongitudeDegrees>
            </Position>
            <AltitudeMeters>115.8000030517578125</AltitudeMeters>
            <DistanceMeters>NAN</DistanceMeters>
          </Trackpoint>
          <Trackpoint>
            <Time>2022-07-15T10:08:26.000Z</Time>
            <Position>
              <LatitudeDegrees>43.37290856055915355682373046875</LatitudeDegrees>
              <LongitudeDegrees>-4.542781971395015716552734375</LongitudeDegrees>
            </Position>
            <AltitudeMeters>115.59999847412109375</AltitudeMeters>
            <DistanceMeters>NAN</DistanceMeters>
          </Trackpoint>
          <Trackpoint>
            <Time>2022-07-15T10:08:28.000Z</Time>
            <Position>
              <LatitudeDegrees>43.37291962467133998870849609375</LatitudeDegrees>
              <LongitudeDegrees>-4.54276478849351406097412109375</LongitudeDegrees>
            </Position>
            <AltitudeMeters>115.59999847412109375</AltitudeMeters>
            <DistanceMeters>NAN</DistanceMeters>
          </Trackpoint>
          <Trackpoint>
            <Time>2022-07-15T10:08:32.000Z</Time>
            <Position>
              <LatitudeDegrees>43.37294477038085460662841796875</LatitudeDegrees>
              <LongitudeDegrees>-4.54271550290286540985107421875</LongitudeDegrees>
            </Position>
            <AltitudeMeters>115.59999847412109375</AltitudeMeters>
            <DistanceMeters>NAN</DistanceMeters>
          </Trackpoint>
          <Trackpoint>
            <Time>2022-07-15T10:08:33.000Z</Time>
            <Position>
              <LatitudeDegrees>43.3729465305805206298828125</LatitudeDegrees>
              <LongitudeDegrees>-4.54271432943642139434814453125</LongitudeDegrees>
            </Position>
            <AltitudeMeters>115.8000030517578125</AltitudeMeters>
            <DistanceMeters>NAN</DistanceMeters>
          </Trackpoint>
          <Trackpoint>
            <Time>2022-07-15T10:08:34.000Z</Time>
            <Position>
              <LatitudeDegrees>43.3729591034352779388427734375</LatitudeDegrees>
              <LongitudeDegrees>-4.5427083782851696014404296875</LongitudeDegrees>
            </Position>
            <AltitudeMeters>116</AltitudeMeters>
            <DistanceMeters>NAN</DistanceMeters>
          </Trackpoint>
          <Trackpoint>
            <Time>2022-07-15T10:09:36.000Z</Time>
            <Position>
              <LatitudeDegrees>43.372718878090381622314453125</LatitudeDegrees>
              <LongitudeDegrees>-4.54267929308116436004638671875</LongitudeDegrees>
            </Position>
            <AltitudeMeters>116.59999847412109375</AltitudeMeters>
            <DistanceMeters>NAN</DistanceMeters>
          </Trackpoint>
          <Trackpoint>
            <Time>2022-07-15T10:09:37.000Z</Time>
            <Position>
              <LatitudeDegrees>43.3727897889912128448486328125</LatitudeDegrees>
              <LongitudeDegrees>-4.54266319982707500457763671875</LongitudeDegrees>
            </Position>
            <AltitudeMeters>116.59999847412109375</AltitudeMeters>
            <DistanceMeters>NAN</DistanceMeters>
          </Trackpoint>
          <Trackpoint>
            <Time>2022-07-15T10:09:42.000Z</Time>
            <Position>
              <LatitudeDegrees>43.37284125387668609619140625</LatitudeDegrees>
              <LongitudeDegrees>-4.5426844060420989990234375</LongitudeDegrees>
            </Position>
            <AltitudeMeters>116.59999847412109375</AltitudeMeters>
            <DistanceMeters>NAN</DistanceMeters>
          </Trackpoint>
          <Trackpoint>
            <Time>2022-07-15T10:09:49.000Z</Time>
            <Position>
              <LatitudeDegrees>43.3728642202913761138916015625</LatitudeDegrees>
              <LongitudeDegrees>-4.54271047376096248626708984375</LongitudeDegrees>
            </Position>
            <AltitudeMeters>116.8000030517578125</AltitudeMeters>
            <DistanceMeters>NAN</DistanceMeters>
          </Trackpoint>
          <Trackpoint>
            <Time>2022-07-15T10:09:54.000Z</Time>
            <Position>
              <LatitudeDegrees>43.37286732159554958343505859375</LatitudeDegrees>
              <LongitudeDegrees>-4.54267627559602260589599609375</LongitudeDegrees>
            </Position>
            <AltitudeMeters>116.8000030517578125</AltitudeMeters>
            <DistanceMeters>NAN</DistanceMeters>
          </Trackpoint>
          <Trackpoint>
            <Time>2022-07-15T10:09:58.000Z</Time>
            <Position>
              <LatitudeDegrees>43.37287503294646739959716796875</LatitudeDegrees>
              <LongitudeDegrees>-4.54271550290286540985107421875</LongitudeDegrees>
            </Position>
            <AltitudeMeters>116.8000030517578125</AltitudeMeters>
            <DistanceMeters>NAN</DistanceMeters>
          </Trackpoint>
          <Trackpoint>
            <Time>2022-07-15T10:10:00.000Z</Time>
            <Position>
              <LatitudeDegrees>43.372889198362827301025390625</LatitudeDegrees>
              <LongitudeDegrees>-4.54273109324276447296142578125</LongitudeDegrees>
            </Position>
            <AltitudeMeters>117.1999969482421875</AltitudeMeters>
            <DistanceMeters>NAN</DistanceMeters>
          </Trackpoint>
          <Trackpoint>
            <Time>2022-07-15T10:20:38.000Z</Time>
            <Position>
              <LatitudeDegrees>43.37299338541924953460693359375</LatitudeDegrees>
              <LongitudeDegrees>-4.54308397136628627777099609375</LongitudeDegrees>
            </Position>
            <AltitudeMeters>118</AltitudeMeters>
            <DistanceMeters>NAN</DistanceMeters>
          </Trackpoint>
          <Trackpoint>
            <Time>2022-07-15T10:21:11.000Z</Time>
            <Position>
              <LatitudeDegrees>43.3727907948195934295654296875</LatitudeDegrees>
              <LongitudeDegrees>-4.54271349124610424041748046875</LongitudeDegrees>
            </Position>
            <AltitudeMeters>121.59999847412109375</AltitudeMeters>
            <DistanceMeters>NAN</DistanceMeters>
          </Trackpoint>
          <Trackpoint>
            <Time>2022-07-15T10:21:12.000Z</Time>
            <Position>
              <LatitudeDegrees>43.3727834187448024749755859375</LatitudeDegrees>
              <LongitudeDegrees>-4.54270510934293270111083984375</LongitudeDegrees>
            </Position>
            <AltitudeMeters>121.59999847412109375</AltitudeMeters>
            <DistanceMeters>NAN</DistanceMeters>
          </Trackpoint>
          <Trackpoint>
            <Time>2022-07-15T10:21:18.000Z</Time>
            <Position>
              <LatitudeDegrees>43.37269515730440616607666015625</LatitudeDegrees>
              <LongitudeDegrees>-4.542610310018062591552734375</LongitudeDegrees>
            </Position>
            <AltitudeMeters>122</AltitudeMeters>
            <DistanceMeters>NAN</DistanceMeters>
          </Trackpoint>
          <Trackpoint>
            <Time>2022-07-15T10:21:22.000Z</Time>
            <Position>
              <LatitudeDegrees>43.3727292716503143310546875</LatitudeDegrees>
              <LongitudeDegrees>-4.54244895838201045989990234375</LongitudeDegrees>
            </Position>
            <AltitudeMeters>122</AltitudeMeters>
            <DistanceMeters>NAN</DistanceMeters>
          </Trackpoint>
          <Trackpoint>
            <Time>2022-07-15T10:21:28.000Z</Time>
            <Position>
              <LatitudeDegrees>43.3728498034179210662841796875</LatitudeDegrees>
              <LongitudeDegrees>-4.5421933941543102264404296875</LongitudeDegrees>
            </Position>
            <AltitudeMeters>121.59999847412109375</AltitudeMeters>
            <DistanceMeters>NAN</DistanceMeters>
          </Trackpoint>
          <Trackpoint>
            <Time>2022-07-15T10:21:32.000Z</Time>
            <Position>
              <LatitudeDegrees>43.37303345091640949249267578125</LatitudeDegrees>
              <LongitudeDegrees>-4.54211669974029064178466796875</LongitudeDegrees>
            </Position>
            <AltitudeMeters>120.8000030517578125</AltitudeMeters>
            <DistanceMeters>NAN</DistanceMeters>
          </Trackpoint>
          <Trackpoint>
            <Time>2022-07-15T10:21:36.000Z</Time>
            <Position>
              <LatitudeDegrees>43.37322606705129146575927734375</LatitudeDegrees>
              <LongitudeDegrees>-4.542051069438457489013671875</LongitudeDegrees>
            </Position>
            <AltitudeMeters>120.40000152587890625</AltitudeMeters>
            <DistanceMeters>NAN</DistanceMeters>
          </Trackpoint>
          <Trackpoint>
            <Time>2022-07-15T10:21:38.000Z</Time>
            <Position>
              <LatitudeDegrees>43.3733232133090496063232421875</LatitudeDegrees>
              <LongitudeDegrees>-4.54199566505849361419677734375</LongitudeDegrees>
            </Position>
            <AltitudeMeters>120.1999969482421875</AltitudeMeters>
            <DistanceMeters>NAN</DistanceMeters>
          </Trackpoint>
          <Trackpoint>
            <Time>2022-07-15T10:21:40.000Z</Time>
            <Position>
              <LatitudeDegrees>43.3734264783561229705810546875</LatitudeDegrees>
              <LongitudeDegrees>-4.541899524629116058349609375</LongitudeDegrees>
            </Position>
            <AltitudeMeters>120</AltitudeMeters>
            <DistanceMeters>NAN</DistanceMeters>
          </Trackpoint>
          <Trackpoint>
            <Time>2022-07-15T10:21:42.000Z</Time>
            <Position>
              <LatitudeDegrees>43.3734905160963535308837890625</LatitudeDegrees>
              <LongitudeDegrees>-4.5417685993015766143798828125</LongitudeDegrees>
            </Position>
            <AltitudeMeters>119.8000030517578125</AltitudeMeters>
            <DistanceMeters>NAN</DistanceMeters>
          </Trackpoint>
          <Trackpoint>
            <Time>2022-07-15T10:21:44.000Z</Time>
            <Position>
              <LatitudeDegrees>43.37352194823324680328369140625</LatitudeDegrees>
              <LongitudeDegrees>-4.54161755740642547607421875</LongitudeDegrees>
            </Position>
            <AltitudeMeters>119.40000152587890625</AltitudeMeters>
            <DistanceMeters>NAN</DistanceMeters>
          </Trackpoint>
          <Trackpoint>
            <Time>2022-07-15T10:21:46.000Z</Time>
            <Position>
              <LatitudeDegrees>43.373547680675983428955078125</LatitudeDegrees>
              <LongitudeDegrees>-4.54147682525217533111572265625</LongitudeDegrees>
            </Position>
            <AltitudeMeters>119</AltitudeMeters>
            <DistanceMeters>NAN</DistanceMeters>
          </Trackpoint>
          <Trackpoint>
            <Time>2022-07-15T10:21:47.000Z</Time>
            <Position>
              <LatitudeDegrees>43.37355966679751873016357421875</LatitudeDegrees>
              <LongitudeDegrees>-4.54140440560877323150634765625</LongitudeDegrees>
            </Position>
            <AltitudeMeters>119</AltitudeMeters>
            <DistanceMeters>NAN</DistanceMeters>
          </Trackpoint>
          <Trackpoint>
            <Time>2022-07-15T10:21:49.000Z</Time>
            <Position>
              <LatitudeDegrees>43.37361331097781658172607421875</LatitudeDegrees>
              <LongitudeDegrees>-4.54128504730761051177978515625</LongitudeDegrees>
            </Position>
            <AltitudeMeters>118.59999847412109375</AltitudeMeters>
            <DistanceMeters>NAN</DistanceMeters>
          </Trackpoint>
          <Trackpoint>
            <Time>2022-07-15T10:21:50.000Z</Time>
            <Position>
              <LatitudeDegrees>43.37363828904926776885986328125</LatitudeDegrees>
              <LongitudeDegrees>-4.5412358455359935760498046875</LongitudeDegrees>
            </Position>
            <AltitudeMeters>118.1999969482421875</AltitudeMeters>
            <DistanceMeters>NAN</DistanceMeters>
          </Trackpoint>
          <Trackpoint>
            <Time>2022-07-15T10:21:51.000Z</Time>
            <Position>
              <LatitudeDegrees>43.3736893348395824432373046875</LatitudeDegrees>
              <LongitudeDegrees>-4.5411949418485164642333984375</LongitudeDegrees>
            </Position>
            <AltitudeMeters>118</AltitudeMeters>
            <DistanceMeters>NAN</DistanceMeters>
          </Trackpoint>
          <Trackpoint>
            <Time>2022-07-15T10:21:53.000Z</Time>
            <Position>
              <LatitudeDegrees>43.37380190379917621612548828125</LatitudeDegrees>
              <LongitudeDegrees>-4.541139118373394012451171875</LongitudeDegrees>
            </Position>
            <AltitudeMeters>117.1999969482421875</AltitudeMeters>
            <DistanceMeters>NAN</DistanceMeters>
          </Trackpoint>
          <Trackpoint>
            <Time>2022-07-15T10:21:54.000Z</Time>
            <Position>
              <LatitudeDegrees>43.37385957129299640655517578125</LatitudeDegrees>
              <LongitudeDegrees>-4.541105590760707855224609375</LongitudeDegrees>
            </Position>
            <AltitudeMeters>116.8000030517578125</AltitudeMeters>
            <DistanceMeters>NAN</DistanceMeters>
          </Trackpoint>
          <Trackpoint>
            <Time>2022-07-15T10:21:56.000Z</Time>
            <Position>
              <LatitudeDegrees>43.3739736489951610565185546875</LatitudeDegrees>
              <LongitudeDegrees>-4.54103342257440090179443359375</LongitudeDegrees>
            </Position>
            <AltitudeMeters>116.1999969482421875</AltitudeMeters>
            <DistanceMeters>NAN</DistanceMeters>
          </Trackpoint>
          <Trackpoint>
            <Time>2022-07-15T10:21:59.000Z</Time>
            <Position>
              <LatitudeDegrees>43.3741588890552520751953125</LatitudeDegrees>
              <LongitudeDegrees>-4.54093904234468936920166015625</LongitudeDegrees>
            </Position>
            <AltitudeMeters>115</AltitudeMeters>
            <DistanceMeters>NAN</DistanceMeters>
          </Trackpoint>
          <Trackpoint>
            <Time>2022-07-15T10:22:00.000Z</Time>
            <Position>
              <LatitudeDegrees>43.37420926429331302642822265625</LatitudeDegrees>
              <LongitudeDegrees>-4.54092420637607574462890625</LongitudeDegrees>
            </Position>
            <AltitudeMeters>114.59999847412109375</AltitudeMeters>
            <DistanceMeters>NAN</DistanceMeters>
          </Trackpoint>
          <Trackpoint>
            <Time>2022-07-15T10:22:01.000Z</Time>
            <Position>
              <LatitudeDegrees>43.374272547662258148193359375</LatitudeDegrees>
              <LongitudeDegrees>-4.54090300016105175018310546875</LongitudeDegrees>
            </Position>
            <AltitudeMeters>114</AltitudeMeters>
            <DistanceMeters>NAN</DistanceMeters>
          </Trackpoint>
          <Trackpoint>
            <Time>2022-07-15T10:22:03.000Z</Time>
            <Position>
              <LatitudeDegrees>43.37441009469330310821533203125</LatitudeDegrees>
              <LongitudeDegrees>-4.54086645506322383880615234375</LongitudeDegrees>
            </Position>
            <AltitudeMeters>113</AltitudeMeters>
            <DistanceMeters>NAN</DistanceMeters>
          </Trackpoint>
          <Trackpoint>
            <Time>2022-07-15T10:22:05.000Z</Time>
            <Position>
              <LatitudeDegrees>43.3745281957089900970458984375</LatitudeDegrees>
              <LongitudeDegrees>-4.54084835015237331390380859375</LongitudeDegrees>
            </Position>
            <AltitudeMeters>111.8000030517578125</AltitudeMeters>
            <DistanceMeters>NAN</DistanceMeters>
          </Trackpoint>
          <Trackpoint>
            <Time>2022-07-15T10:22:06.000Z</Time>
            <Position>
              <LatitudeDegrees>43.37458142079412937164306640625</LatitudeDegrees>
              <LongitudeDegrees>-4.54084801487624645233154296875</LongitudeDegrees>
            </Position>
            <AltitudeMeters>111.1999969482421875</AltitudeMeters>
            <DistanceMeters>NAN</DistanceMeters>
          </Trackpoint>
          <Trackpoint>
            <Time>2022-07-15T10:22:07.000Z</Time>
            <Position>
              <LatitudeDegrees>43.3746314607560634613037109375</LatitudeDegrees>
              <LongitudeDegrees>-4.54085237346589565277099609375</LongitudeDegrees>
            </Position>
            <AltitudeMeters>110.59999847412109375</AltitudeMeters>
            <DistanceMeters>NAN</DistanceMeters>
          </Trackpoint>
          <Trackpoint>
            <Time>2022-07-15T10:22:09.000Z</Time>
            <Position>
              <LatitudeDegrees>43.37474302388727664947509765625</LatitudeDegrees>
              <LongitudeDegrees>-4.54084684140980243682861328125</LongitudeDegrees>
            </Position>
            <AltitudeMeters>110.1999969482421875</AltitudeMeters>
            <DistanceMeters>NAN</DistanceMeters>
          </Trackpoint>
          <Trackpoint>
            <Time>2022-07-15T10:22:10.000Z</Time>
            <Position>
              <LatitudeDegrees>43.37478124536573886871337890625</LatitudeDegrees>
              <LongitudeDegrees>-4.5408100448548793792724609375</LongitudeDegrees>
            </Position>
            <AltitudeMeters>110</AltitudeMeters>
            <DistanceMeters>NAN</DistanceMeters>
          </Trackpoint>
          <Trackpoint>
            <Time>2022-07-15T10:22:12.000Z</Time>
            <Position>
              <LatitudeDegrees>43.3748213946819305419921875</LatitudeDegrees>
              <LongitudeDegrees>-4.540718682110309600830078125</LongitudeDegrees>
            </Position>
            <AltitudeMeters>109.59999847412109375</AltitudeMeters>
            <DistanceMeters>NAN</DistanceMeters>
          </Trackpoint>
          <Trackpoint>
            <Time>2022-07-15T10:22:14.000Z</Time>
            <Position>
              <LatitudeDegrees>43.3748500607907772064208984375</LatitudeDegrees>
              <LongitudeDegrees>-4.54064902849495410919189453125</LongitudeDegrees>
            </Position>
            <AltitudeMeters>109.40000152587890625</AltitudeMeters>
            <DistanceMeters>NAN</DistanceMeters>
          </Trackpoint>
          <Trackpoint>
            <Time>2022-07-15T10:22:15.000Z</Time>
            <Position>
              <LatitudeDegrees>43.3748671598732471466064453125</LatitudeDegrees>
              <LongitudeDegrees>-4.54062555916607379913330078125</LongitudeDegrees>
            </Position>
            <AltitudeMeters>109.1999969482421875</AltitudeMeters>
            <DistanceMeters>NAN</DistanceMeters>
          </Trackpoint>
          <Trackpoint>
            <Time>2022-07-15T10:22:17.000Z</Time>
            <Position>
              <LatitudeDegrees>43.3749104104936122894287109375</LatitudeDegrees>
              <LongitudeDegrees>-4.54061164520680904388427734375</LongitudeDegrees>
            </Position>
            <AltitudeMeters>109.1999969482421875</AltitudeMeters>
            <DistanceMeters>NAN</DistanceMeters>
          </Trackpoint>
          <Trackpoint>
            <Time>2022-07-15T10:22:20.000Z</Time>
            <Position>
              <LatitudeDegrees>43.37495055980980396270751953125</LatitudeDegrees>
              <LongitudeDegrees>-4.5406325161457061767578125</LongitudeDegrees>
            </Position>
            <AltitudeMeters>109.59999847412109375</AltitudeMeters>
            <DistanceMeters>NAN</DistanceMeters>
          </Trackpoint>
          <Trackpoint>
            <Time>2022-07-15T10:22:21.000Z</Time>
            <Position>
              <LatitudeDegrees>43.37495324201881885528564453125</LatitudeDegrees>
              <LongitudeDegrees>-4.5406450890004634857177734375</LongitudeDegrees>
            </Position>
            <AltitudeMeters>109.59999847412109375</AltitudeMeters>
            <DistanceMeters>NAN</DistanceMeters>
          </Trackpoint>
          <Trackpoint>
            <Time>2022-07-15T10:22:26.000Z</Time>
            <Position>
              <LatitudeDegrees>43.3749783039093017578125</LatitudeDegrees>
              <LongitudeDegrees>-4.54075715504586696624755859375</LongitudeDegrees>
            </Position>
            <AltitudeMeters>110.40000152587890625</AltitudeMeters>
            <DistanceMeters>NAN</DistanceMeters>
          </Trackpoint>
          <Trackpoint>
            <Time>2022-07-15T10:22:27.000Z</Time>
            <Position>
              <LatitudeDegrees>43.374984674155712127685546875</LatitudeDegrees>
              <LongitudeDegrees>-4.54078699462115764617919921875</LongitudeDegrees>
            </Position>
            <AltitudeMeters>110.40000152587890625</AltitudeMeters>
            <DistanceMeters>NAN</DistanceMeters>
          </Trackpoint>
          <Trackpoint>
            <Time>2022-07-15T10:22:29.000Z</Time>
            <Position>
              <LatitudeDegrees>43.37495558895170688629150390625</LatitudeDegrees>
              <LongitudeDegrees>-4.54083192162215709686279296875</LongitudeDegrees>
            </Position>
            <AltitudeMeters>110.59999847412109375</AltitudeMeters>
            <DistanceMeters>NAN</DistanceMeters>
          </Trackpoint>
          <Trackpoint>
            <Time>2022-07-15T10:22:30.000Z</Time>
            <Position>
              <LatitudeDegrees>43.3749456144869327545166015625</LatitudeDegrees>
              <LongitudeDegrees>-4.54087953083217144012451171875</LongitudeDegrees>
            </Position>
            <AltitudeMeters>110.59999847412109375</AltitudeMeters>
            <DistanceMeters>NAN</DistanceMeters>
          </Trackpoint>
          <Trackpoint>
            <Time>2022-07-15T10:22:35.000Z</Time>
            <Position>
              <LatitudeDegrees>43.37494469247758388519287109375</LatitudeDegrees>
              <LongitudeDegrees>-4.54106560908257961273193359375</LongitudeDegrees>
            </Position>
            <AltitudeMeters>111</AltitudeMeters>
            <DistanceMeters>NAN</DistanceMeters>
          </Trackpoint>
          <Trackpoint>
            <Time>2022-07-15T10:22:42.000Z</Time>
            <Position>
              <LatitudeDegrees>43.37496556341648101806640625</LatitudeDegrees>
              <LongitudeDegrees>-4.5413002185523509979248046875</LongitudeDegrees>
            </Position>
            <AltitudeMeters>111.1999969482421875</AltitudeMeters>
            <DistanceMeters>NAN</DistanceMeters>
          </Trackpoint>
          <Trackpoint>
            <Time>2022-07-15T10:22:43.000Z</Time>
            <Position>
              <LatitudeDegrees>43.37497117929160594940185546875</LatitudeDegrees>
              <LongitudeDegrees>-4.541335590183734893798828125</LongitudeDegrees>
            </Position>
            <AltitudeMeters>111.1999969482421875</AltitudeMeters>
            <DistanceMeters>NAN</DistanceMeters>
          </Trackpoint>
          <Trackpoint>
            <Time>2022-07-15T10:22:46.000Z</Time>
            <Position>
              <LatitudeDegrees>43.37498945184051990509033203125</LatitudeDegrees>
              <LongitudeDegrees>-4.54144849441945552825927734375</LongitudeDegrees>
            </Position>
            <AltitudeMeters>111.1999969482421875</AltitudeMeters>
            <DistanceMeters>NAN</DistanceMeters>
          </Trackpoint>
          <Trackpoint>
            <Time>2022-07-15T10:22:50.000Z</Time>
            <Position>
              <LatitudeDegrees>43.37501124478876590728759765625</LatitudeDegrees>
              <LongitudeDegrees>-4.54157908447086811065673828125</LongitudeDegrees>
            </Position>
            <AltitudeMeters>111.59999847412109375</AltitudeMeters>
            <DistanceMeters>NAN</DistanceMeters>
          </Trackpoint>
          <Trackpoint>
            <Time>2022-07-15T10:22:51.000Z</Time>
            <Position>
              <LatitudeDegrees>43.37501727975904941558837890625</LatitudeDegrees>
              <LongitudeDegrees>-4.54160892404615879058837890625</LongitudeDegrees>
            </Position>
            <AltitudeMeters>111.59999847412109375</AltitudeMeters>
            <DistanceMeters>NAN</DistanceMeters>
          </Trackpoint>
          <Trackpoint>
            <Time>2022-07-15T10:22:56.000Z</Time>
            <Position>
              <LatitudeDegrees>43.3750512264668941497802734375</LatitudeDegrees>
              <LongitudeDegrees>-4.54176180996000766754150390625</LongitudeDegrees>
            </Position>
            <AltitudeMeters>111.8000030517578125</AltitudeMeters>
            <DistanceMeters>NAN</DistanceMeters>
          </Trackpoint>
          <Trackpoint>
            <Time>2022-07-15T10:22:57.000Z</Time>
            <Position>
              <LatitudeDegrees>43.37504175491631031036376953125</LatitudeDegrees>
              <LongitudeDegrees>-4.5417813397943973541259765625</LongitudeDegrees>
            </Position>
            <AltitudeMeters>111.8000030517578125</AltitudeMeters>
            <DistanceMeters>NAN</DistanceMeters>
          </Trackpoint>
          <Trackpoint>
            <Time>2022-07-15T10:23:00.000Z</Time>
            <Position>
              <LatitudeDegrees>43.3750371448695659637451171875</LatitudeDegrees>
              <LongitudeDegrees>-4.541850574314594268798828125</LongitudeDegrees>
            </Position>
            <AltitudeMeters>111.8000030517578125</AltitudeMeters>
            <DistanceMeters>NAN</DistanceMeters>
          </Trackpoint>
          <Trackpoint>
            <Time>2022-07-15T10:23:02.000Z</Time>
            <Position>
              <LatitudeDegrees>43.37504141964018344879150390625</LatitudeDegrees>
              <LongitudeDegrees>-4.54191871918737888336181640625</LongitudeDegrees>
            </Position>
            <AltitudeMeters>111.8000030517578125</AltitudeMeters>
            <DistanceMeters>NAN</DistanceMeters>
          </Trackpoint>
          <Trackpoint>
            <Time>2022-07-15T10:23:06.000Z</Time>
            <Position>
              <LatitudeDegrees>43.3751226402819156646728515625</LatitudeDegrees>
              <LongitudeDegrees>-4.541937410831451416015625</LongitudeDegrees>
            </Position>
            <AltitudeMeters>112</AltitudeMeters>
            <DistanceMeters>NAN</DistanceMeters>
          </Trackpoint>
          <Trackpoint>
            <Time>2022-07-15T10:23:10.000Z</Time>
            <Position>
              <LatitudeDegrees>43.3751754462718963623046875</LatitudeDegrees>
              <LongitudeDegrees>-4.5419191382825374603271484375</LongitudeDegrees>
            </Position>
            <AltitudeMeters>112.8000030517578125</AltitudeMeters>
            <DistanceMeters>NAN</DistanceMeters>
          </Trackpoint>
          <Trackpoint>
            <Time>2022-07-15T10:23:11.000Z</Time>
            <Position>
              <LatitudeDegrees>43.37518550455570220947265625</LatitudeDegrees>
              <LongitudeDegrees>-4.54192173667252063751220703125</LongitudeDegrees>
            </Position>
            <AltitudeMeters>113</AltitudeMeters>
            <DistanceMeters>NAN</DistanceMeters>
          </Trackpoint>
          <Trackpoint>
            <Time>2022-07-15T10:23:12.000Z</Time>
            <Position>
              <LatitudeDegrees>43.3751947246491909027099609375</LatitudeDegrees>
              <LongitudeDegrees>-4.54192676581442356109619140625</LongitudeDegrees>
            </Position>
            <AltitudeMeters>113.1999969482421875</AltitudeMeters>
            <DistanceMeters>NAN</DistanceMeters>
          </Trackpoint>
          <Trackpoint>
            <Time>2022-07-15T10:23:15.000Z</Time>
            <Position>
              <LatitudeDegrees>43.37523512542247772216796875</LatitudeDegrees>
              <LongitudeDegrees>-4.5419526658952236175537109375</LongitudeDegrees>
            </Position>
            <AltitudeMeters>114</AltitudeMeters>
            <DistanceMeters>NAN</DistanceMeters>
          </Trackpoint>
          <Trackpoint>
            <Time>2022-07-15T10:23:18.000Z</Time>
            <Position>
              <LatitudeDegrees>43.37525331415235996246337890625</LatitudeDegrees>
              <LongitudeDegrees>-4.54197454266250133514404296875</LongitudeDegrees>
            </Position>
            <AltitudeMeters>114.40000152587890625</AltitudeMeters>
            <DistanceMeters>NAN</DistanceMeters>
          </Trackpoint>
          <Trackpoint>
            <Time>2022-07-15T10:23:19.000Z</Time>
            <Position>
              <LatitudeDegrees>43.3752611093223094940185546875</LatitudeDegrees>
              <LongitudeDegrees>-4.54199046827852725982666015625</LongitudeDegrees>
            </Position>
            <AltitudeMeters>114.40000152587890625</AltitudeMeters>
            <DistanceMeters>NAN</DistanceMeters>
          </Trackpoint>
          <Trackpoint>
            <Time>2022-07-15T10:23:23.000Z</Time>
            <Position>
              <LatitudeDegrees>43.37529153563082218170166015625</LatitudeDegrees>
              <LongitudeDegrees>-4.542043693363666534423828125</LongitudeDegrees>
            </Position>
            <AltitudeMeters>115</AltitudeMeters>
            <DistanceMeters>NAN</DistanceMeters>
          </Trackpoint>
          <Trackpoint>
            <Time>2022-07-15T10:23:27.000Z</Time>
            <Position>
              <LatitudeDegrees>43.37532858364284038543701171875</LatitudeDegrees>
              <LongitudeDegrees>-4.54211854375898838043212890625</LongitudeDegrees>
            </Position>
            <AltitudeMeters>115.59999847412109375</AltitudeMeters>
            <DistanceMeters>NAN</DistanceMeters>
          </Trackpoint>
          <Trackpoint>
            <Time>2022-07-15T10:23:31.000Z</Time>
            <Position>
              <LatitudeDegrees>43.3753838203847408294677734375</LatitudeDegrees>
              <LongitudeDegrees>-4.542226754128932952880859375</LongitudeDegrees>
            </Position>
            <AltitudeMeters>115.59999847412109375</AltitudeMeters>
            <DistanceMeters>NAN</DistanceMeters>
          </Trackpoint>
          <Trackpoint>
            <Time>2022-07-15T10:23:33.000Z</Time>
            <Position>
              <LatitudeDegrees>43.37539580650627613067626953125</LatitudeDegrees>
              <LongitudeDegrees>-4.542256928980350494384765625</LongitudeDegrees>
            </Position>
            <AltitudeMeters>115.8000030517578125</AltitudeMeters>
            <DistanceMeters>NAN</DistanceMeters>
          </Trackpoint>
          <Trackpoint>
            <Time>2022-07-15T10:23:34.000Z</Time>
            <Position>
              <LatitudeDegrees>43.37539966218173503875732421875</LatitudeDegrees>
              <LongitudeDegrees>-4.5422607846558094024658203125</LongitudeDegrees>
            </Position>
            <AltitudeMeters>115.8000030517578125</AltitudeMeters>
            <DistanceMeters>NAN</DistanceMeters>
          </Trackpoint>
          <Trackpoint>
            <Time>2022-07-15T10:23:36.000Z</Time>
            <Position>
              <LatitudeDegrees>43.37542849592864513397216796875</LatitudeDegrees>
              <LongitudeDegrees>-4.542296826839447021484375</LongitudeDegrees>
            </Position>
            <AltitudeMeters>116.1999969482421875</AltitudeMeters>
            <DistanceMeters>NAN</DistanceMeters>
          </Trackpoint>
          <Trackpoint>
            <Time>2022-07-15T10:23:40.000Z</Time>
            <Position>
              <LatitudeDegrees>43.37546856142580509185791015625</LatitudeDegrees>
              <LongitudeDegrees>-4.54236161895096302032470703125</LongitudeDegrees>
            </Position>
            <AltitudeMeters>116.59999847412109375</AltitudeMeters>
            <DistanceMeters>NAN</DistanceMeters>
          </Trackpoint>
          <Trackpoint>
            <Time>2022-07-15T10:23:41.000Z</Time>
            <Position>
              <LatitudeDegrees>43.375489600002765655517578125</LatitudeDegrees>
              <LongitudeDegrees>-4.54237419180572032928466796875</LongitudeDegrees>
            </Position>
            <AltitudeMeters>116.59999847412109375</AltitudeMeters>
            <DistanceMeters>NAN</DistanceMeters>
          </Trackpoint>
          <Trackpoint>
            <Time>2022-07-15T10:23:44.000Z</Time>
            <Position>
              <LatitudeDegrees>43.37554500438272953033447265625</LatitudeDegrees>
              <LongitudeDegrees>-4.54241626895964145660400390625</LongitudeDegrees>
            </Position>
            <AltitudeMeters>116.8000030517578125</AltitudeMeters>
            <DistanceMeters>NAN</DistanceMeters>
          </Trackpoint>
          <Trackpoint>
            <Time>2022-07-15T10:23:47.000Z</Time>
            <Position>
              <LatitudeDegrees>43.3755652047693729400634765625</LatitudeDegrees>
              <LongitudeDegrees>-4.54244359396398067474365234375</LongitudeDegrees>
            </Position>
            <AltitudeMeters>117</AltitudeMeters>
            <DistanceMeters>NAN</DistanceMeters>
          </Trackpoint>
          <Trackpoint>
            <Time>2022-07-15T10:23:48.000Z</Time>
            <Position>
              <LatitudeDegrees>43.3755321800708770751953125</LatitudeDegrees>
              <LongitudeDegrees>-4.54244040884077548980712890625</LongitudeDegrees>
            </Position>
            <AltitudeMeters>117</AltitudeMeters>
            <DistanceMeters>NAN</DistanceMeters>
          </Trackpoint>
          <Trackpoint>
            <Time>2022-07-15T10:23:50.000Z</Time>
            <Position>
              <LatitudeDegrees>43.37552924640476703643798828125</LatitudeDegrees>
              <LongitudeDegrees>-4.542501680552959442138671875</LongitudeDegrees>
            </Position>
            <AltitudeMeters>117</AltitudeMeters>
            <DistanceMeters>NAN</DistanceMeters>
          </Trackpoint>
          <Trackpoint>
            <Time>2022-07-15T10:23:51.000Z</Time>
            <Position>
              <LatitudeDegrees>43.37554383091628551483154296875</LatitudeDegrees>
              <LongitudeDegrees>-4.5425078831613063812255859375</LongitudeDegrees>
            </Position>
            <AltitudeMeters>117.1999969482421875</AltitudeMeters>
            <DistanceMeters>NAN</DistanceMeters>
          </Trackpoint>
          <Trackpoint>
            <Time>2022-07-15T10:23:53.000Z</Time>
            <Position>
              <LatitudeDegrees>43.37557249702513217926025390625</LatitudeDegrees>
              <LongitudeDegrees>-4.542527161538600921630859375</LongitudeDegrees>
            </Position>
            <AltitudeMeters>117.59999847412109375</AltitudeMeters>
            <DistanceMeters>NAN</DistanceMeters>
          </Trackpoint>
          <Trackpoint>
            <Time>2022-07-15T10:23:57.000Z</Time>
            <Position>
              <LatitudeDegrees>43.37563938461244106292724609375</LatitudeDegrees>
              <LongitudeDegrees>-4.54262883402407169342041015625</LongitudeDegrees>
            </Position>
            <AltitudeMeters>118</AltitudeMeters>
            <DistanceMeters>NAN</DistanceMeters>
          </Trackpoint>
          <Trackpoint>
            <Time>2022-07-15T10:24:00.000Z</Time>
            <Position>
              <LatitudeDegrees>43.37565799243748188018798828125</LatitudeDegrees>
              <LongitudeDegrees>-4.5426460169255733489990234375</LongitudeDegrees>
            </Position>
            <AltitudeMeters>118.1999969482421875</AltitudeMeters>
            <DistanceMeters>NAN</DistanceMeters>
          </Trackpoint>
          <Trackpoint>
            <Time>2022-07-15T10:24:03.000Z</Time>
            <Position>
              <LatitudeDegrees>43.37569235824048519134521484375</LatitudeDegrees>
              <LongitudeDegrees>-4.54267929308116436004638671875</LongitudeDegrees>
            </Position>
            <AltitudeMeters>118.1999969482421875</AltitudeMeters>
            <DistanceMeters>NAN</DistanceMeters>
          </Trackpoint>
          <Trackpoint>
            <Time>2022-07-15T10:24:04.000Z</Time>
            <Position>
              <LatitudeDegrees>43.37570560164749622344970703125</LatitudeDegrees>
              <LongitudeDegrees>-4.54269907437264919281005859375</LongitudeDegrees>
            </Position>
            <AltitudeMeters>118.1999969482421875</AltitudeMeters>
            <DistanceMeters>NAN</DistanceMeters>
          </Trackpoint>
          <Trackpoint>
            <Time>2022-07-15T10:24:05.000Z</Time>
            <Position>
              <LatitudeDegrees>43.375712223351001739501953125</LatitudeDegrees>
              <LongitudeDegrees>-4.54271634109318256378173828125</LongitudeDegrees>
            </Position>
            <AltitudeMeters>118.1999969482421875</AltitudeMeters>
            <DistanceMeters>NAN</DistanceMeters>
          </Trackpoint>
          <Trackpoint>
            <Time>2022-07-15T10:24:08.000Z</Time>
            <Position>
              <LatitudeDegrees>43.375729657709598541259765625</LatitudeDegrees>
              <LongitudeDegrees>-4.542802758514881134033203125</LongitudeDegrees>
            </Position>
            <AltitudeMeters>118.1999969482421875</AltitudeMeters>
            <DistanceMeters>NAN</DistanceMeters>
          </Trackpoint>
          <Trackpoint>
            <Time>2022-07-15T10:24:15.000Z</Time>
            <Position>
              <LatitudeDegrees>43.37577718310058116912841796875</LatitudeDegrees>
              <LongitudeDegrees>-4.5429821312427520751953125</LongitudeDegrees>
            </Position>
            <AltitudeMeters>118.1999969482421875</AltitudeMeters>
            <DistanceMeters>NAN</DistanceMeters>
          </Trackpoint>
          <Trackpoint>
            <Time>2022-07-15T10:24:20.000Z</Time>
            <Position>
              <LatitudeDegrees>43.37581020779907703399658203125</LatitudeDegrees>
              <LongitudeDegrees>-4.54314884729683399200439453125</LongitudeDegrees>
            </Position>
            <AltitudeMeters>118.40000152587890625</AltitudeMeters>
            <DistanceMeters>NAN</DistanceMeters>
          </Trackpoint>
          <Trackpoint>
            <Time>2022-07-15T10:24:22.000Z</Time>
            <Position>
              <LatitudeDegrees>43.37581573985517024993896484375</LatitudeDegrees>
              <LongitudeDegrees>-4.54321774654090404510498046875</LongitudeDegrees>
            </Position>
            <AltitudeMeters>118.59999847412109375</AltitudeMeters>
            <DistanceMeters>NAN</DistanceMeters>
          </Trackpoint>
          <Trackpoint>
            <Time>2022-07-15T10:24:27.000Z</Time>
            <Position>
              <LatitudeDegrees>43.3758461661636829376220703125</LatitudeDegrees>
              <LongitudeDegrees>-4.54338069073855876922607421875</LongitudeDegrees>
            </Position>
            <AltitudeMeters>118.59999847412109375</AltitudeMeters>
            <DistanceMeters>NAN</DistanceMeters>
          </Trackpoint>
          <Trackpoint>
            <Time>2022-07-15T10:24:29.000Z</Time>
            <Position>
              <LatitudeDegrees>43.3758545480668544769287109375</LatitudeDegrees>
              <LongitudeDegrees>-4.54344556666910648345947265625</LongitudeDegrees>
            </Position>
            <AltitudeMeters>118.59999847412109375</AltitudeMeters>
            <DistanceMeters>NAN</DistanceMeters>
          </Trackpoint>
          <Trackpoint>
            <Time>2022-07-15T10:24:35.000Z</Time>
            <Position>
              <LatitudeDegrees>43.37579713203012943267822265625</LatitudeDegrees>
              <LongitudeDegrees>-4.54362787306308746337890625</LongitudeDegrees>
            </Position>
            <AltitudeMeters>118.59999847412109375</AltitudeMeters>
            <DistanceMeters>NAN</DistanceMeters>
          </Trackpoint>
          <Trackpoint>
            <Time>2022-07-15T10:24:41.000Z</Time>
            <Position>
              <LatitudeDegrees>43.37574650533497333526611328125</LatitudeDegrees>
              <LongitudeDegrees>-4.5437691919505596160888671875</LongitudeDegrees>
            </Position>
            <AltitudeMeters>118.8000030517578125</AltitudeMeters>
            <DistanceMeters>NAN</DistanceMeters>
          </Trackpoint>
          <Trackpoint>
            <Time>2022-07-15T10:24:47.000Z</Time>
            <Position>
              <LatitudeDegrees>43.37573292665183544158935546875</LatitudeDegrees>
              <LongitudeDegrees>-4.54394169151782989501953125</LongitudeDegrees>
            </Position>
            <AltitudeMeters>118.8000030517578125</AltitudeMeters>
            <DistanceMeters>NAN</DistanceMeters>
          </Trackpoint>
          <Trackpoint>
            <Time>2022-07-15T10:24:48.000Z</Time>
            <Position>
              <LatitudeDegrees>43.37573896162211894989013671875</LatitudeDegrees>
              <LongitudeDegrees>-4.5439656637609004974365234375</LongitudeDegrees>
            </Position>
            <AltitudeMeters>118.8000030517578125</AltitudeMeters>
            <DistanceMeters>NAN</DistanceMeters>
          </Trackpoint>
          <Trackpoint>
            <Time>2022-07-15T10:24:51.000Z</Time>
            <Position>
              <LatitudeDegrees>43.37577533908188343048095703125</LatitudeDegrees>
              <LongitudeDegrees>-4.5440308749675750732421875</LongitudeDegrees>
            </Position>
            <AltitudeMeters>118.8000030517578125</AltitudeMeters>
            <DistanceMeters>NAN</DistanceMeters>
          </Trackpoint>
          <Trackpoint>
            <Time>2022-07-15T10:24:54.000Z</Time>
            <Position>
              <LatitudeDegrees>43.3758057653903961181640625</LatitudeDegrees>
              <LongitudeDegrees>-4.5441001094877719879150390625</LongitudeDegrees>
            </Position>
            <AltitudeMeters>118.59999847412109375</AltitudeMeters>
            <DistanceMeters>NAN</DistanceMeters>
          </Trackpoint>
          <Trackpoint>
            <Time>2022-07-15T10:24:56.000Z</Time>
            <Position>
              <LatitudeDegrees>43.375828899443149566650390625</LatitudeDegrees>
              <LongitudeDegrees>-4.544164650142192840576171875</LongitudeDegrees>
            </Position>
            <AltitudeMeters>118.59999847412109375</AltitudeMeters>
            <DistanceMeters>NAN</DistanceMeters>
          </Trackpoint>
          <Trackpoint>
            <Time>2022-07-15T10:25:02.000Z</Time>
            <Position>
              <LatitudeDegrees>43.37591229937970638275146484375</LatitudeDegrees>
              <LongitudeDegrees>-4.5443753711879253387451171875</LongitudeDegrees>
            </Position>
            <AltitudeMeters>118.59999847412109375</AltitudeMeters>
            <DistanceMeters>NAN</DistanceMeters>
          </Trackpoint>
          <Trackpoint>
            <Time>2022-07-15T10:25:08.000Z</Time>
            <Position>
              <LatitudeDegrees>43.3760463260114192962646484375</LatitudeDegrees>
              <LongitudeDegrees>-4.54466722905635833740234375</LongitudeDegrees>
            </Position>
            <AltitudeMeters>117.59999847412109375</AltitudeMeters>
            <DistanceMeters>NAN</DistanceMeters>
          </Trackpoint>
          <Trackpoint>
            <Time>2022-07-15T10:25:09.000Z</Time>
            <Position>
              <LatitudeDegrees>43.37606702931225299835205078125</LatitudeDegrees>
              <LongitudeDegrees>-4.54472891986370086669921875</LongitudeDegrees>
            </Position>
            <AltitudeMeters>117.40000152587890625</AltitudeMeters>
            <DistanceMeters>NAN</DistanceMeters>
          </Trackpoint>
          <Trackpoint>
            <Time>2022-07-15T10:25:11.000Z</Time>
            <Position>
              <LatitudeDegrees>43.3761127106845378875732421875</LatitudeDegrees>
              <LongitudeDegrees>-4.54486546106636524200439453125</LongitudeDegrees>
            </Position>
            <AltitudeMeters>117.1999969482421875</AltitudeMeters>
            <DistanceMeters>NAN</DistanceMeters>
          </Trackpoint>
          <Trackpoint>
            <Time>2022-07-15T10:25:12.000Z</Time>
            <Position>
              <LatitudeDegrees>43.37613827548921108245849609375</LatitudeDegrees>
              <LongitudeDegrees>-4.54492799006402492523193359375</LongitudeDegrees>
            </Position>
            <AltitudeMeters>117</AltitudeMeters>
            <DistanceMeters>NAN</DistanceMeters>
          </Trackpoint>
          <Trackpoint>
            <Time>2022-07-15T10:25:18.000Z</Time>
            <Position>
              <LatitudeDegrees>43.37631077505648136138916015625</LatitudeDegrees>
              <LongitudeDegrees>-4.54532110132277011871337890625</LongitudeDegrees>
            </Position>
            <AltitudeMeters>116.59999847412109375</AltitudeMeters>
            <DistanceMeters>NAN</DistanceMeters>
          </Trackpoint>
          <Trackpoint>
            <Time>2022-07-15T10:25:21.000Z</Time>
            <Position>
              <LatitudeDegrees>43.37640129961073398590087890625</LatitudeDegrees>
              <LongitudeDegrees>-4.54553752206265926361083984375</LongitudeDegrees>
            </Position>
            <AltitudeMeters>116.59999847412109375</AltitudeMeters>
            <DistanceMeters>NAN</DistanceMeters>
          </Trackpoint>
          <Trackpoint>
            <Time>2022-07-15T10:25:25.000Z</Time>
            <Position>
              <LatitudeDegrees>43.3765204064548015594482421875</LatitudeDegrees>
              <LongitudeDegrees>-4.5458091795444488525390625</LongitudeDegrees>
            </Position>
            <AltitudeMeters>116.1999969482421875</AltitudeMeters>
            <DistanceMeters>NAN</DistanceMeters>
          </Trackpoint>
          <Trackpoint>
            <Time>2022-07-15T10:25:26.000Z</Time>
            <Position>
              <LatitudeDegrees>43.37655569426715373992919921875</LatitudeDegrees>
              <LongitudeDegrees>-4.5459018833935260772705078125</LongitudeDegrees>
            </Position>
            <AltitudeMeters>116</AltitudeMeters>
            <DistanceMeters>NAN</DistanceMeters>
          </Trackpoint>
          <Trackpoint>
            <Time>2022-07-15T10:25:27.000Z</Time>
            <Position>
              <LatitudeDegrees>43.37657488882541656494140625</LatitudeDegrees>
              <LongitudeDegrees>-4.54596315510571002960205078125</LongitudeDegrees>
            </Position>
            <AltitudeMeters>115.8000030517578125</AltitudeMeters>
            <DistanceMeters>NAN</DistanceMeters>
          </Trackpoint>
          <Trackpoint>
            <Time>2022-07-15T10:25:29.000Z</Time>
            <Position>
              <LatitudeDegrees>43.3766290359199047088623046875</LatitudeDegrees>
              <LongitudeDegrees>-4.54612643457949161529541015625</LongitudeDegrees>
            </Position>
            <AltitudeMeters>114.8000030517578125</AltitudeMeters>
            <DistanceMeters>NAN</DistanceMeters>
          </Trackpoint>
          <Trackpoint>
            <Time>2022-07-15T10:25:30.000Z</Time>
            <Position>
              <LatitudeDegrees>43.37663850747048854827880859375</LatitudeDegrees>
              <LongitudeDegrees>-4.546200446784496307373046875</LongitudeDegrees>
            </Position>
            <AltitudeMeters>114.40000152587890625</AltitudeMeters>
            <DistanceMeters>NAN</DistanceMeters>
          </Trackpoint>
          <Trackpoint>
            <Time>2022-07-15T10:25:32.000Z</Time>
            <Position>
              <LatitudeDegrees>43.37669651024043560028076171875</LatitudeDegrees>
              <LongitudeDegrees>-4.54632558859884738922119140625</LongitudeDegrees>
            </Position>
            <AltitudeMeters>113.8000030517578125</AltitudeMeters>
            <DistanceMeters>NAN</DistanceMeters>
          </Trackpoint>
          <Trackpoint>
            <Time>2022-07-15T10:25:33.000Z</Time>
            <Position>
              <LatitudeDegrees>43.3767245896160602569580078125</LatitudeDegrees>
              <LongitudeDegrees>-4.5463719405233860015869140625</LongitudeDegrees>
            </Position>
            <AltitudeMeters>113.8000030517578125</AltitudeMeters>
            <DistanceMeters>NAN</DistanceMeters>
          </Trackpoint>
          <Trackpoint>
            <Time>2022-07-15T10:25:39.000Z</Time>
            <Position>
              <LatitudeDegrees>43.376978896558284759521484375</LatitudeDegrees>
              <LongitudeDegrees>-4.54672004096210002899169921875</LongitudeDegrees>
            </Position>
            <AltitudeMeters>112.40000152587890625</AltitudeMeters>
            <DistanceMeters>NAN</DistanceMeters>
          </Trackpoint>
          <Trackpoint>
            <Time>2022-07-15T10:25:40.000Z</Time>
            <Position>
              <LatitudeDegrees>43.37701200507581233978271484375</LatitudeDegrees>
              <LongitudeDegrees>-4.5467554964125156402587890625</LongitudeDegrees>
            </Position>
            <AltitudeMeters>112</AltitudeMeters>
            <DistanceMeters>NAN</DistanceMeters>
          </Trackpoint>
          <Trackpoint>
            <Time>2022-07-15T10:25:42.000Z</Time>
            <Position>
              <LatitudeDegrees>43.3770598657429218292236328125</LatitudeDegrees>
              <LongitudeDegrees>-4.5468041114509105682373046875</LongitudeDegrees>
            </Position>
            <AltitudeMeters>110.59999847412109375</AltitudeMeters>
            <DistanceMeters>NAN</DistanceMeters>
          </Trackpoint>
          <Trackpoint>
            <Time>2022-07-15T10:25:44.000Z</Time>
            <Position>
              <LatitudeDegrees>43.37708878330886363983154296875</LatitudeDegrees>
              <LongitudeDegrees>-4.54683579504489898681640625</LongitudeDegrees>
            </Position>
            <AltitudeMeters>110</AltitudeMeters>
            <DistanceMeters>NAN</DistanceMeters>
          </Trackpoint>
          <Trackpoint>
            <Time>2022-07-15T10:25:45.000Z</Time>
            <Position>
              <LatitudeDegrees>43.37709984742105007171630859375</LatitudeDegrees>
              <LongitudeDegrees>-4.54684308730065822601318359375</LongitudeDegrees>
            </Position>
            <AltitudeMeters>109.59999847412109375</AltitudeMeters>
            <DistanceMeters>NAN</DistanceMeters>
          </Trackpoint>
          <Trackpoint>
            <Time>2022-07-15T10:25:49.000Z</Time>
            <Position>
              <LatitudeDegrees>43.377110324800014495849609375</LatitudeDegrees>
              <LongitudeDegrees>-4.54684861935675144195556640625</LongitudeDegrees>
            </Position>
            <AltitudeMeters>108.40000152587890625</AltitudeMeters>
            <DistanceMeters>NAN</DistanceMeters>
          </Trackpoint>
          <Trackpoint>
            <Time>2022-07-15T10:25:59.000Z</Time>
            <Position>
              <LatitudeDegrees>43.37711107917129993438720703125</LatitudeDegrees>
              <LongitudeDegrees>-4.54691885970532894134521484375</LongitudeDegrees>
            </Position>
            <AltitudeMeters>107.8000030517578125</AltitudeMeters>
            <DistanceMeters>NAN</DistanceMeters>
          </Trackpoint>
          <Trackpoint>
            <Time>2022-07-15T10:26:01.000Z</Time>
            <Position>
              <LatitudeDegrees>43.3771275915205478668212890625</LatitudeDegrees>
              <LongitudeDegrees>-4.546935372054576873779296875</LongitudeDegrees>
            </Position>
            <AltitudeMeters>107.8000030517578125</AltitudeMeters>
            <DistanceMeters>NAN</DistanceMeters>
          </Trackpoint>
          <Trackpoint>
            <Time>2022-07-15T10:26:04.000Z</Time>
            <Position>
              <LatitudeDegrees>43.37714225985109806060791015625</LatitudeDegrees>
              <LongitudeDegrees>-4.54694844782352447509765625</LongitudeDegrees>
            </Position>
            <AltitudeMeters>107.40000152587890625</AltitudeMeters>
            <DistanceMeters>NAN</DistanceMeters>
          </Trackpoint>
          <Trackpoint>
            <Time>2022-07-15T10:26:05.000Z</Time>
            <Position>
              <LatitudeDegrees>43.37714225985109806060791015625</LatitudeDegrees>
              <LongitudeDegrees>-4.54694844782352447509765625</LongitudeDegrees>
            </Position>
            <AltitudeMeters>107.40000152587890625</AltitudeMeters>
            <DistanceMeters>NAN</DistanceMeters>
          </Trackpoint>
          <Trackpoint>
            <Time>2022-07-15T10:26:28.000Z</Time>
            <Position>
              <LatitudeDegrees>43.37716229259967803955078125</LatitudeDegrees>
              <LongitudeDegrees>-4.546982310712337493896484375</LongitudeDegrees>
            </Position>
            <AltitudeMeters>107.40000152587890625</AltitudeMeters>
            <DistanceMeters>NAN</DistanceMeters>
          </Trackpoint>
          <Trackpoint>
            <Time>2022-07-15T10:26:29.000Z</Time>
            <Position>
              <LatitudeDegrees>43.377181403338909149169921875</LatitudeDegrees>
              <LongitudeDegrees>-4.54702547751367092132568359375</LongitudeDegrees>
            </Position>
            <AltitudeMeters>107.1999969482421875</AltitudeMeters>
            <DistanceMeters>NAN</DistanceMeters>
          </Trackpoint>
          <Trackpoint>
            <Time>2022-07-15T10:26:32.000Z</Time>
            <Position>
              <LatitudeDegrees>43.37724451906979084014892578125</LatitudeDegrees>
              <LongitudeDegrees>-4.5471853204071521759033203125</LongitudeDegrees>
            </Position>
            <AltitudeMeters>106.40000152587890625</AltitudeMeters>
            <DistanceMeters>NAN</DistanceMeters>
          </Trackpoint>
          <Trackpoint>
            <Time>2022-07-15T10:26:33.000Z</Time>
            <Position>
              <LatitudeDegrees>43.37726530618965625762939453125</LatitudeDegrees>
              <LongitudeDegrees>-4.5472387969493865966796875</LongitudeDegrees>
            </Position>
            <AltitudeMeters>106</AltitudeMeters>
            <DistanceMeters>NAN</DistanceMeters>
          </Trackpoint>
          <Trackpoint>
            <Time>2022-07-15T10:26:35.000Z</Time>
            <Position>
              <LatitudeDegrees>43.37730252183973789215087890625</LatitudeDegrees>
              <LongitudeDegrees>-4.54734952189028263092041015625</LongitudeDegrees>
            </Position>
            <AltitudeMeters>104.8000030517578125</AltitudeMeters>
            <DistanceMeters>NAN</DistanceMeters>
          </Trackpoint>
          <Trackpoint>
            <Time>2022-07-15T10:26:38.000Z</Time>
            <Position>
              <LatitudeDegrees>43.3773314394056797027587890625</LatitudeDegrees>
              <LongitudeDegrees>-4.54750902950763702392578125</LongitudeDegrees>
            </Position>
            <AltitudeMeters>103.40000152587890625</AltitudeMeters>
            <DistanceMeters>NAN</DistanceMeters>
          </Trackpoint>
          <Trackpoint>
            <Time>2022-07-15T10:26:39.000Z</Time>
            <Position>
              <LatitudeDegrees>43.377341330051422119140625</LatitudeDegrees>
              <LongitudeDegrees>-4.54755655489861965179443359375</LongitudeDegrees>
            </Position>
            <AltitudeMeters>103</AltitudeMeters>
            <DistanceMeters>NAN</DistanceMeters>
          </Trackpoint>
          <Trackpoint>
            <Time>2022-07-15T10:26:41.000Z</Time>
            <Position>
              <LatitudeDegrees>43.3773693256080150604248046875</LatitudeDegrees>
              <LongitudeDegrees>-4.5476526953279972076416015625</LongitudeDegrees>
            </Position>
            <AltitudeMeters>101.8000030517578125</AltitudeMeters>
            <DistanceMeters>NAN</DistanceMeters>
          </Trackpoint>
          <Trackpoint>
            <Time>2022-07-15T10:26:44.000Z</Time>
            <Position>
              <LatitudeDegrees>43.37742171250283718109130859375</LatitudeDegrees>
              <LongitudeDegrees>-4.5477832853794097900390625</LongitudeDegrees>
            </Position>
            <AltitudeMeters>100.59999847412109375</AltitudeMeters>
            <DistanceMeters>NAN</DistanceMeters>
          </Trackpoint>
          <Trackpoint>
            <Time>2022-07-15T10:26:47.000Z</Time>
            <Position>
              <LatitudeDegrees>43.37745808996260166168212890625</LatitudeDegrees>
              <LongitudeDegrees>-4.5479249395430088043212890625</LongitudeDegrees>
            </Position>
            <AltitudeMeters>99.59999847412109375</AltitudeMeters>
            <DistanceMeters>NAN</DistanceMeters>
          </Trackpoint>
          <Trackpoint>
            <Time>2022-07-15T10:26:50.000Z</Time>
            <Position>
              <LatitudeDegrees>43.37749714963138103485107421875</LatitudeDegrees>
              <LongitudeDegrees>-4.5480729639530181884765625</LongitudeDegrees>
            </Position>
            <AltitudeMeters>98.40000152587890625</AltitudeMeters>
            <DistanceMeters>NAN</DistanceMeters>
          </Trackpoint>
          <Trackpoint>
            <Time>2022-07-15T10:26:51.000Z</Time>
            <Position>
              <LatitudeDegrees>43.3775118179619312286376953125</LatitudeDegrees>
              <LongitudeDegrees>-4.5481197349727153778076171875</LongitudeDegrees>
            </Position>
            <AltitudeMeters>97.59999847412109375</AltitudeMeters>
            <DistanceMeters>NAN</DistanceMeters>
          </Trackpoint>
          <Trackpoint>
            <Time>2022-07-15T10:26:53.000Z</Time>
            <Position>
              <LatitudeDegrees>43.3775423280894756317138671875</LatitudeDegrees>
              <LongitudeDegrees>-4.548217467963695526123046875</LongitudeDegrees>
            </Position>
            <AltitudeMeters>97</AltitudeMeters>
            <DistanceMeters>NAN</DistanceMeters>
          </Trackpoint>
          <Trackpoint>
            <Time>2022-07-15T10:26:56.000Z</Time>
            <Position>
              <LatitudeDegrees>43.377590440213680267333984375</LatitudeDegrees>
              <LongitudeDegrees>-4.54837295226752758026123046875</LongitudeDegrees>
            </Position>
            <AltitudeMeters>95.8000030517578125</AltitudeMeters>
            <DistanceMeters>NAN</DistanceMeters>
          </Trackpoint>
          <Trackpoint>
            <Time>2022-07-15T10:26:58.000Z</Time>
            <Position>
              <LatitudeDegrees>43.37761960923671722412109375</LatitudeDegrees>
              <LongitudeDegrees>-4.54847185872495174407958984375</LongitudeDegrees>
            </Position>
            <AltitudeMeters>94.59999847412109375</AltitudeMeters>
            <DistanceMeters>NAN</DistanceMeters>
          </Trackpoint>
          <Trackpoint>
            <Time>2022-07-15T10:26:59.000Z</Time>
            <Position>
              <LatitudeDegrees>43.37763662450015544891357421875</LatitudeDegrees>
              <LongitudeDegrees>-4.5485106669366359710693359375</LongitudeDegrees>
            </Position>
            <AltitudeMeters>94.1999969482421875</AltitudeMeters>
            <DistanceMeters>NAN</DistanceMeters>
          </Trackpoint>
          <Trackpoint>
            <Time>2022-07-15T10:27:01.000Z</Time>
            <Position>
              <LatitudeDegrees>43.37766160257160663604736328125</LatitudeDegrees>
              <LongitudeDegrees>-4.54859876073896884918212890625</LongitudeDegrees>
            </Position>
            <AltitudeMeters>93</AltitudeMeters>
            <DistanceMeters>NAN</DistanceMeters>
          </Trackpoint>
          <Trackpoint>
            <Time>2022-07-15T10:27:04.000Z</Time>
            <Position>
              <LatitudeDegrees>43.3777039311826229095458984375</LatitudeDegrees>
              <LongitudeDegrees>-4.54877327196300029754638671875</LongitudeDegrees>
            </Position>
            <AltitudeMeters>91.8000030517578125</AltitudeMeters>
            <DistanceMeters>NAN</DistanceMeters>
          </Trackpoint>
          <Trackpoint>
            <Time>2022-07-15T10:27:07.000Z</Time>
            <Position>
              <LatitudeDegrees>43.37773251347243785858154296875</LatitudeDegrees>
              <LongitudeDegrees>-4.54894937574863433837890625</LongitudeDegrees>
            </Position>
            <AltitudeMeters>90.40000152587890625</AltitudeMeters>
            <DistanceMeters>NAN</DistanceMeters>
          </Trackpoint>
          <Trackpoint>
            <Time>2022-07-15T10:27:10.000Z</Time>
            <Position>
              <LatitudeDegrees>43.377770148217678070068359375</LatitudeDegrees>
              <LongitudeDegrees>-4.54913620837032794952392578125</LongitudeDegrees>
            </Position>
            <AltitudeMeters>89.1999969482421875</AltitudeMeters>
            <DistanceMeters>NAN</DistanceMeters>
          </Trackpoint>
          <Trackpoint>
            <Time>2022-07-15T10:27:12.000Z</Time>
            <Position>
              <LatitudeDegrees>43.37779873050749301910400390625</LatitudeDegrees>
              <LongitudeDegrees>-4.54925389029085636138916015625</LongitudeDegrees>
            </Position>
            <AltitudeMeters>88</AltitudeMeters>
            <DistanceMeters>NAN</DistanceMeters>
          </Trackpoint>
          <Trackpoint>
            <Time>2022-07-15T10:27:14.000Z</Time>
            <Position>
              <LatitudeDegrees>43.37782974354922771453857421875</LatitudeDegrees>
              <LongitudeDegrees>-4.549374841153621673583984375</LongitudeDegrees>
            </Position>
            <AltitudeMeters>86.8000030517578125</AltitudeMeters>
            <DistanceMeters>NAN</DistanceMeters>
          </Trackpoint>
          <Trackpoint>
            <Time>2022-07-15T10:27:17.000Z</Time>
            <Position>
              <LatitudeDegrees>43.3778578229248523712158203125</LatitudeDegrees>
              <LongitudeDegrees>-4.54955295659601688385009765625</LongitudeDegrees>
            </Position>
            <AltitudeMeters>85.59999847412109375</AltitudeMeters>
            <DistanceMeters>NAN</DistanceMeters>
          </Trackpoint>
          <Trackpoint>
            <Time>2022-07-15T10:27:19.000Z</Time>
            <Position>
              <LatitudeDegrees>43.3778755925595760345458984375</LatitudeDegrees>
              <LongitudeDegrees>-4.54966686666011810302734375</LongitudeDegrees>
            </Position>
            <AltitudeMeters>84.40000152587890625</AltitudeMeters>
            <DistanceMeters>NAN</DistanceMeters>
          </Trackpoint>
          <Trackpoint>
            <Time>2022-07-15T10:27:21.000Z</Time>
            <Position>
              <LatitudeDegrees>43.377899229526519775390625</LatitudeDegrees>
              <LongitudeDegrees>-4.549775160849094390869140625</LongitudeDegrees>
            </Position>
            <AltitudeMeters>83.1999969482421875</AltitudeMeters>
            <DistanceMeters>NAN</DistanceMeters>
          </Trackpoint>
          <Trackpoint>
            <Time>2022-07-15T10:27:22.000Z</Time>
            <Position>
              <LatitudeDegrees>43.377912975847721099853515625</LatitudeDegrees>
              <LongitudeDegrees>-4.54982503317296504974365234375</LongitudeDegrees>
            </Position>
            <AltitudeMeters>82.59999847412109375</AltitudeMeters>
            <DistanceMeters>NAN</DistanceMeters>
          </Trackpoint>
          <Trackpoint>
            <Time>2022-07-15T10:27:23.000Z</Time>
            <Position>
              <LatitudeDegrees>43.3779289014637470245361328125</LatitudeDegrees>
              <LongitudeDegrees>-4.549869708716869354248046875</LongitudeDegrees>
            </Position>
            <AltitudeMeters>81.59999847412109375</AltitudeMeters>
            <DistanceMeters>NAN</DistanceMeters>
          </Trackpoint>
          <Trackpoint>
            <Time>2022-07-15T10:27:25.000Z</Time>
            <Position>
              <LatitudeDegrees>43.37796435691416263580322265625</LatitudeDegrees>
              <LongitudeDegrees>-4.54996920190751552581787109375</LongitudeDegrees>
            </Position>
            <AltitudeMeters>80.59999847412109375</AltitudeMeters>
            <DistanceMeters>NAN</DistanceMeters>
          </Trackpoint>
          <Trackpoint>
            <Time>2022-07-15T10:27:28.000Z</Time>
            <Position>
              <LatitudeDegrees>43.37800894863903522491455078125</LatitudeDegrees>
              <LongitudeDegrees>-4.55012686550617218017578125</LongitudeDegrees>
            </Position>
            <AltitudeMeters>79.40000152587890625</AltitudeMeters>
            <DistanceMeters>NAN</DistanceMeters>
          </Trackpoint>
          <Trackpoint>
            <Time>2022-07-15T10:27:29.000Z</Time>
            <Position>
              <LatitudeDegrees>43.37802001275122165679931640625</LatitudeDegrees>
              <LongitudeDegrees>-4.55017589963972568511962890625</LongitudeDegrees>
            </Position>
            <AltitudeMeters>78.8000030517578125</AltitudeMeters>
            <DistanceMeters>NAN</DistanceMeters>
          </Trackpoint>
          <Trackpoint>
            <Time>2022-07-15T10:27:30.000Z</Time>
            <Position>
              <LatitudeDegrees>43.3780304901301860809326171875</LatitudeDegrees>
              <LongitudeDegrees>-4.55022476613521575927734375</LongitudeDegrees>
            </Position>
            <AltitudeMeters>78.1999969482421875</AltitudeMeters>
            <DistanceMeters>NAN</DistanceMeters>
          </Trackpoint>
          <Trackpoint>
            <Time>2022-07-15T10:27:33.000Z</Time>
            <Position>
              <LatitudeDegrees>43.3780650235712528228759765625</LatitudeDegrees>
              <LongitudeDegrees>-4.55038310028612613677978515625</LongitudeDegrees>
            </Position>
            <AltitudeMeters>77</AltitudeMeters>
            <DistanceMeters>NAN</DistanceMeters>
          </Trackpoint>
          <Trackpoint>
            <Time>2022-07-15T10:27:34.000Z</Time>
            <Position>
              <LatitudeDegrees>43.37808639742434024810791015625</LatitudeDegrees>
              <LongitudeDegrees>-4.5504317991435527801513671875</LongitudeDegrees>
            </Position>
            <AltitudeMeters>76.40000152587890625</AltitudeMeters>
            <DistanceMeters>NAN</DistanceMeters>
          </Trackpoint>
          <Trackpoint>
            <Time>2022-07-15T10:27:36.000Z</Time>
            <Position>
              <LatitudeDegrees>43.37813199497759342193603515625</LatitudeDegrees>
              <LongitudeDegrees>-4.55052089877426624298095703125</LongitudeDegrees>
            </Position>
            <AltitudeMeters>75.8000030517578125</AltitudeMeters>
            <DistanceMeters>NAN</DistanceMeters>
          </Trackpoint>
          <Trackpoint>
            <Time>2022-07-15T10:27:38.000Z</Time>
            <Position>
              <LatitudeDegrees>43.3781822025775909423828125</LatitudeDegrees>
              <LongitudeDegrees>-4.55061972141265869140625</LongitudeDegrees>
            </Position>
            <AltitudeMeters>74.59999847412109375</AltitudeMeters>
            <DistanceMeters>NAN</DistanceMeters>
          </Trackpoint>
          <Trackpoint>
            <Time>2022-07-15T10:27:40.000Z</Time>
            <Position>
              <LatitudeDegrees>43.37823157198727130889892578125</LatitudeDegrees>
              <LongitudeDegrees>-4.55072038806974887847900390625</LongitudeDegrees>
            </Position>
            <AltitudeMeters>73.59999847412109375</AltitudeMeters>
            <DistanceMeters>NAN</DistanceMeters>
          </Trackpoint>
          <Trackpoint>
            <Time>2022-07-15T10:27:41.000Z</Time>
            <Position>
              <LatitudeDegrees>43.378258980810642242431640625</LatitudeDegrees>
              <LongitudeDegrees>-4.550778977572917938232421875</LongitudeDegrees>
            </Position>
            <AltitudeMeters>73.1999969482421875</AltitudeMeters>
            <DistanceMeters>NAN</DistanceMeters>
          </Trackpoint>
          <Trackpoint>
            <Time>2022-07-15T10:27:42.000Z</Time>
            <Position>
              <LatitudeDegrees>43.3782852999866008758544921875</LatitudeDegrees>
              <LongitudeDegrees>-4.55084209330379962921142578125</LongitudeDegrees>
            </Position>
            <AltitudeMeters>73</AltitudeMeters>
            <DistanceMeters>NAN</DistanceMeters>
          </Trackpoint>
          <Trackpoint>
            <Time>2022-07-15T10:27:44.000Z</Time>
            <Position>
              <LatitudeDegrees>43.37833785451948642730712890625</LatitudeDegrees>
              <LongitudeDegrees>-4.55096899531781673431396484375</LongitudeDegrees>
            </Position>
            <AltitudeMeters>72.1999969482421875</AltitudeMeters>
            <DistanceMeters>NAN</DistanceMeters>
          </Trackpoint>
          <Trackpoint>
            <Time>2022-07-15T10:27:48.000Z</Time>
            <Position>
              <LatitudeDegrees>43.378411866724491119384765625</LatitudeDegrees>
              <LongitudeDegrees>-4.5512190274894237518310546875</LongitudeDegrees>
            </Position>
            <AltitudeMeters>70.8000030517578125</AltitudeMeters>
            <DistanceMeters>NAN</DistanceMeters>
          </Trackpoint>
          <Trackpoint>
            <Time>2022-07-15T10:27:49.000Z</Time>
            <Position>
              <LatitudeDegrees>43.37842787615954875946044921875</LatitudeDegrees>
              <LongitudeDegrees>-4.55128449015319347381591796875</LongitudeDegrees>
            </Position>
            <AltitudeMeters>70.59999847412109375</AltitudeMeters>
            <DistanceMeters>NAN</DistanceMeters>
          </Trackpoint>
          <Trackpoint>
            <Time>2022-07-15T10:27:52.000Z</Time>
            <Position>
              <LatitudeDegrees>43.37847313843667507171630859375</LatitudeDegrees>
              <LongitudeDegrees>-4.5514751784503459930419921875</LongitudeDegrees>
            </Position>
            <AltitudeMeters>69.59999847412109375</AltitudeMeters>
            <DistanceMeters>NAN</DistanceMeters>
          </Trackpoint>
          <Trackpoint>
            <Time>2022-07-15T10:27:56.000Z</Time>
            <Position>
              <LatitudeDegrees>43.37856148369610309600830078125</LatitudeDegrees>
              <LongitudeDegrees>-4.5517229475080966949462890625</LongitudeDegrees>
            </Position>
            <AltitudeMeters>68.8000030517578125</AltitudeMeters>
            <DistanceMeters>NAN</DistanceMeters>
          </Trackpoint>
          <Trackpoint>
            <Time>2022-07-15T10:27:57.000Z</Time>
            <Position>
              <LatitudeDegrees>43.37859299965202808380126953125</LatitudeDegrees>
              <LongitudeDegrees>-4.55178958363831043243408203125</LongitudeDegrees>
            </Position>
            <AltitudeMeters>68.59999847412109375</AltitudeMeters>
            <DistanceMeters>NAN</DistanceMeters>
          </Trackpoint>
          <Trackpoint>
            <Time>2022-07-15T10:28:01.000Z</Time>
            <Position>
              <LatitudeDegrees>43.378735072910785675048828125</LatitudeDegrees>
              <LongitudeDegrees>-4.55205813981592655181884765625</LongitudeDegrees>
            </Position>
            <AltitudeMeters>67.8000030517578125</AltitudeMeters>
            <DistanceMeters>NAN</DistanceMeters>
          </Trackpoint>
          <Trackpoint>
            <Time>2022-07-15T10:28:02.000Z</Time>
            <Position>
              <LatitudeDegrees>43.37877036072313785552978515625</LatitudeDegrees>
              <LongitudeDegrees>-4.55211848951876163482666015625</LongitudeDegrees>
            </Position>
            <AltitudeMeters>67.40000152587890625</AltitudeMeters>
            <DistanceMeters>NAN</DistanceMeters>
          </Trackpoint>
          <Trackpoint>
            <Time>2022-07-15T10:28:04.000Z</Time>
            <Position>
              <LatitudeDegrees>43.3788364939391613006591796875</LatitudeDegrees>
              <LongitudeDegrees>-4.552238769829273223876953125</LongitudeDegrees>
            </Position>
            <AltitudeMeters>67</AltitudeMeters>
            <DistanceMeters>NAN</DistanceMeters>
          </Trackpoint>
          <Trackpoint>
            <Time>2022-07-15T10:28:06.000Z</Time>
            <Position>
              <LatitudeDegrees>43.3789012022316455841064453125</LatitudeDegrees>
              <LongitudeDegrees>-4.55235167406499385833740234375</LongitudeDegrees>
            </Position>
            <AltitudeMeters>66.8000030517578125</AltitudeMeters>
            <DistanceMeters>NAN</DistanceMeters>
          </Trackpoint>
          <Trackpoint>
            <Time>2022-07-15T10:28:08.000Z</Time>
            <Position>
              <LatitudeDegrees>43.3789625577628612518310546875</LatitudeDegrees>
              <LongitudeDegrees>-4.552457369863986968994140625</LongitudeDegrees>
            </Position>
            <AltitudeMeters>67</AltitudeMeters>
            <DistanceMeters>NAN</DistanceMeters>
          </Trackpoint>
          <Trackpoint>
            <Time>2022-07-15T10:28:13.000Z</Time>
            <Position>
              <LatitudeDegrees>43.3790805749595165252685546875</LatitudeDegrees>
              <LongitudeDegrees>-4.552650488913059234619140625</LongitudeDegrees>
            </Position>
            <AltitudeMeters>66.8000030517578125</AltitudeMeters>
            <DistanceMeters>NAN</DistanceMeters>
          </Trackpoint>
          <Trackpoint>
            <Time>2022-07-15T10:28:21.000Z</Time>
            <Position>
              <LatitudeDegrees>43.379213176667690277099609375</LatitudeDegrees>
              <LongitudeDegrees>-4.55291502177715301513671875</LongitudeDegrees>
            </Position>
            <AltitudeMeters>67</AltitudeMeters>
            <DistanceMeters>NAN</DistanceMeters>
          </Trackpoint>
          <Trackpoint>
            <Time>2022-07-15T10:28:29.000Z</Time>
            <Position>
              <LatitudeDegrees>43.37937050499022006988525390625</LatitudeDegrees>
              <LongitudeDegrees>-4.55313638783991336822509765625</LongitudeDegrees>
            </Position>
            <AltitudeMeters>67.1999969482421875</AltitudeMeters>
            <DistanceMeters>NAN</DistanceMeters>
          </Trackpoint>
          <Trackpoint>
            <Time>2022-07-15T10:28:36.000Z</Time>
            <Position>
              <LatitudeDegrees>43.379519619047641754150390625</LatitudeDegrees>
              <LongitudeDegrees>-4.55336420796811580657958984375</LongitudeDegrees>
            </Position>
            <AltitudeMeters>67.40000152587890625</AltitudeMeters>
            <DistanceMeters>NAN</DistanceMeters>
          </Trackpoint>
          <Trackpoint>
            <Time>2022-07-15T10:28:37.000Z</Time>
            <Position>
              <LatitudeDegrees>43.379546105861663818359375</LatitudeDegrees>
              <LongitudeDegrees>-4.55340075306594371795654296875</LongitudeDegrees>
            </Position>
            <AltitudeMeters>67.1999969482421875</AltitudeMeters>
            <DistanceMeters>NAN</DistanceMeters>
          </Trackpoint>
          <Trackpoint>
            <Time>2022-07-15T10:28:39.000Z</Time>
            <Position>
              <LatitudeDegrees>43.3796010911464691162109375</LatitudeDegrees>
              <LongitudeDegrees>-4.5534791238605976104736328125</LongitudeDegrees>
            </Position>
            <AltitudeMeters>66.40000152587890625</AltitudeMeters>
            <DistanceMeters>NAN</DistanceMeters>
          </Trackpoint>
          <Trackpoint>
            <Time>2022-07-15T10:28:43.000Z</Time>
            <Position>
              <LatitudeDegrees>43.37972438894212245941162109375</LatitudeDegrees>
              <LongitudeDegrees>-4.55366008915007114410400390625</LongitudeDegrees>
            </Position>
            <AltitudeMeters>65.1999969482421875</AltitudeMeters>
            <DistanceMeters>NAN</DistanceMeters>
          </Trackpoint>
          <Trackpoint>
            <Time>2022-07-15T10:28:44.000Z</Time>
            <Position>
              <LatitudeDegrees>43.37975674308836460113525390625</LatitudeDegrees>
              <LongitudeDegrees>-4.5537084527313709259033203125</LongitudeDegrees>
            </Position>
            <AltitudeMeters>65.1999969482421875</AltitudeMeters>
            <DistanceMeters>NAN</DistanceMeters>
          </Trackpoint>
          <Trackpoint>
            <Time>2022-07-15T10:28:48.000Z</Time>
            <Position>
              <LatitudeDegrees>43.37988800369203090667724609375</LatitudeDegrees>
              <LongitudeDegrees>-4.5538874901831150054931640625</LongitudeDegrees>
            </Position>
            <AltitudeMeters>64.1999969482421875</AltitudeMeters>
            <DistanceMeters>NAN</DistanceMeters>
          </Trackpoint>
          <Trackpoint>
            <Time>2022-07-15T10:28:50.000Z</Time>
            <Position>
              <LatitudeDegrees>43.37993376888334751129150390625</LatitudeDegrees>
              <LongitudeDegrees>-4.55392160452902317047119140625</LongitudeDegrees>
            </Position>
            <AltitudeMeters>64</AltitudeMeters>
            <DistanceMeters>NAN</DistanceMeters>
          </Trackpoint>
          <Trackpoint>
            <Time>2022-07-15T10:28:51.000Z</Time>
            <Position>
              <LatitudeDegrees>43.37994148023426532745361328125</LatitudeDegrees>
              <LongitudeDegrees>-4.55393350683152675628662109375</LongitudeDegrees>
            </Position>
            <AltitudeMeters>63.799999237060546875</AltitudeMeters>
            <DistanceMeters>NAN</DistanceMeters>
          </Trackpoint>
          <Trackpoint>
            <Time>2022-07-15T10:28:53.000Z</Time>
            <Position>
              <LatitudeDegrees>43.3799593336880207061767578125</LatitudeDegrees>
              <LongitudeDegrees>-4.55394926480948925018310546875</LongitudeDegrees>
            </Position>
            <AltitudeMeters>63.799999237060546875</AltitudeMeters>
            <DistanceMeters>NAN</DistanceMeters>
          </Trackpoint>
          <Trackpoint>
            <Time>2022-07-15T10:28:55.000Z</Time>
            <Position>
              <LatitudeDegrees>43.37998121045529842376708984375</LatitudeDegrees>
              <LongitudeDegrees>-4.55393426120281219482421875</LongitudeDegrees>
            </Position>
            <AltitudeMeters>64</AltitudeMeters>
            <DistanceMeters>NAN</DistanceMeters>
          </Trackpoint>
          <Trackpoint>
            <Time>2022-07-15T10:28:57.000Z</Time>
            <Position>
              <LatitudeDegrees>43.3799891732633113861083984375</LatitudeDegrees>
              <LongitudeDegrees>-4.553892351686954498291015625</LongitudeDegrees>
            </Position>
            <AltitudeMeters>64</AltitudeMeters>
            <DistanceMeters>NAN</DistanceMeters>
          </Trackpoint>
          <Trackpoint>
            <Time>2022-07-15T10:29:05.000Z</Time>
            <Position>
              <LatitudeDegrees>43.3799992315471172332763671875</LatitudeDegrees>
              <LongitudeDegrees>-4.55366075970232486724853515625</LongitudeDegrees>
            </Position>
            <AltitudeMeters>65</AltitudeMeters>
            <DistanceMeters>NAN</DistanceMeters>
          </Trackpoint>
          <Trackpoint>
            <Time>2022-07-15T10:29:08.000Z</Time>
            <Position>
              <LatitudeDegrees>43.38001524098217487335205078125</LatitudeDegrees>
              <LongitudeDegrees>-4.55358549021184444427490234375</LongitudeDegrees>
            </Position>
            <AltitudeMeters>65.40000152587890625</AltitudeMeters>
            <DistanceMeters>NAN</DistanceMeters>
          </Trackpoint>
          <Trackpoint>
            <Time>2022-07-15T10:29:12.000Z</Time>
            <Position>
              <LatitudeDegrees>43.38000551797449588775634765625</LatitudeDegrees>
              <LongitudeDegrees>-4.55352128483355045318603515625</LongitudeDegrees>
            </Position>
            <AltitudeMeters>65.8000030517578125</AltitudeMeters>
            <DistanceMeters>NAN</DistanceMeters>
          </Trackpoint>
          <Trackpoint>
            <Time>2022-07-15T10:29:17.000Z</Time>
            <Position>
              <LatitudeDegrees>43.38004491291940212249755859375</LatitudeDegrees>
              <LongitudeDegrees>-4.55341097898781299591064453125</LongitudeDegrees>
            </Position>
            <AltitudeMeters>66.59999847412109375</AltitudeMeters>
            <DistanceMeters>NAN</DistanceMeters>
          </Trackpoint>
          <Trackpoint>
            <Time>2022-07-15T10:29:18.000Z</Time>
            <Position>
              <LatitudeDegrees>43.3800597488880157470703125</LatitudeDegrees>
              <LongitudeDegrees>-4.55339153297245502471923828125</LongitudeDegrees>
            </Position>
            <AltitudeMeters>66.59999847412109375</AltitudeMeters>
            <DistanceMeters>NAN</DistanceMeters>
          </Trackpoint>
          <Trackpoint>
            <Time>2022-07-15T10:29:19.000Z</Time>
            <Position>
              <LatitudeDegrees>43.38008112274110317230224609375</LatitudeDegrees>
              <LongitudeDegrees>-4.55337636172771453857421875</LongitudeDegrees>
            </Position>
            <AltitudeMeters>66.8000030517578125</AltitudeMeters>
            <DistanceMeters>NAN</DistanceMeters>
          </Trackpoint>
          <Trackpoint>
            <Time>2022-07-15T10:29:23.000Z</Time>
            <Position>
              <LatitudeDegrees>43.38013627566397190093994140625</LatitudeDegrees>
              <LongitudeDegrees>-4.55330201424658298492431640625</LongitudeDegrees>
            </Position>
            <AltitudeMeters>67.1999969482421875</AltitudeMeters>
            <DistanceMeters>NAN</DistanceMeters>
          </Trackpoint>
          <Trackpoint>
            <Time>2022-07-15T10:29:25.000Z</Time>
            <Position>
              <LatitudeDegrees>43.3801601640880107879638671875</LatitudeDegrees>
              <LongitudeDegrees>-4.55327577888965606689453125</LongitudeDegrees>
            </Position>
            <AltitudeMeters>67.40000152587890625</AltitudeMeters>
            <DistanceMeters>NAN</DistanceMeters>
          </Trackpoint>
          <Trackpoint>
            <Time>2022-07-15T10:29:26.000Z</Time>
            <Position>
              <LatitudeDegrees>43.38016795925796031951904296875</LatitudeDegrees>
              <LongitudeDegrees>-4.55326731316745281219482421875</LongitudeDegrees>
            </Position>
            <AltitudeMeters>67.59999847412109375</AltitudeMeters>
            <DistanceMeters>NAN</DistanceMeters>
          </Trackpoint>
          <Trackpoint>
            <Time>2022-07-15T10:29:29.000Z</Time>
            <Position>
              <LatitudeDegrees>43.38020970113575458526611328125</LatitudeDegrees>
              <LongitudeDegrees>-4.55324417911469936370849609375</LongitudeDegrees>
            </Position>
            <AltitudeMeters>68</AltitudeMeters>
            <DistanceMeters>NAN</DistanceMeters>
          </Trackpoint>
          <Trackpoint>
            <Time>2022-07-15T10:29:31.000Z</Time>
            <Position>
              <LatitudeDegrees>43.38023610413074493408203125</LatitudeDegrees>
              <LongitudeDegrees>-4.5532296784222126007080078125</LongitudeDegrees>
            </Position>
            <AltitudeMeters>68.59999847412109375</AltitudeMeters>
            <DistanceMeters>NAN</DistanceMeters>
          </Trackpoint>
          <Trackpoint>
            <Time>2022-07-15T10:29:37.000Z</Time>
            <Position>
              <LatitudeDegrees>43.38030374608933925628662109375</LatitudeDegrees>
              <LongitudeDegrees>-4.5531787164509296417236328125</LongitudeDegrees>
            </Position>
            <AltitudeMeters>69.8000030517578125</AltitudeMeters>
            <DistanceMeters>NAN</DistanceMeters>
          </Trackpoint>
          <Trackpoint>
            <Time>2022-07-15T10:29:39.000Z</Time>
            <Position>
              <LatitudeDegrees>43.38032252155244350433349609375</LatitudeDegrees>
              <LongitudeDegrees>-4.55317896790802478790283203125</LongitudeDegrees>
            </Position>
            <AltitudeMeters>70.1999969482421875</AltitudeMeters>
            <DistanceMeters>NAN</DistanceMeters>
          </Trackpoint>
          <Trackpoint>
            <Time>2022-07-15T10:29:46.000Z</Time>
            <Position>
              <LatitudeDegrees>43.38036610744893550872802734375</LatitudeDegrees>
              <LongitudeDegrees>-4.55320511944591999053955078125</LongitudeDegrees>
            </Position>
            <AltitudeMeters>70.59999847412109375</AltitudeMeters>
            <DistanceMeters>NAN</DistanceMeters>
          </Trackpoint>
          <Trackpoint>
            <Time>2022-07-15T10:29:49.000Z</Time>
            <Position>
              <LatitudeDegrees>43.380383960902690887451171875</LatitudeDegrees>
              <LongitudeDegrees>-4.5532451011240482330322265625</LongitudeDegrees>
            </Position>
            <AltitudeMeters>70.59999847412109375</AltitudeMeters>
            <DistanceMeters>NAN</DistanceMeters>
          </Trackpoint>
          <Trackpoint>
            <Time>2022-07-15T10:29:52.000Z</Time>
            <Position>
              <LatitudeDegrees>43.38041287846863269805908203125</LatitudeDegrees>
              <LongitudeDegrees>-4.553325064480304718017578125</LongitudeDegrees>
            </Position>
            <AltitudeMeters>70.1999969482421875</AltitudeMeters>
            <DistanceMeters>NAN</DistanceMeters>
          </Trackpoint>
          <Trackpoint>
            <Time>2022-07-15T10:29:59.000Z</Time>
            <Position>
              <LatitudeDegrees>43.380490243434906005859375</LatitudeDegrees>
              <LongitudeDegrees>-4.55356545746326446533203125</LongitudeDegrees>
            </Position>
            <AltitudeMeters>69.40000152587890625</AltitudeMeters>
            <DistanceMeters>NAN</DistanceMeters>
          </Trackpoint>
          <Trackpoint>
            <Time>2022-07-15T10:30:04.000Z</Time>
            <Position>
              <LatitudeDegrees>43.3806176483631134033203125</LatitudeDegrees>
              <LongitudeDegrees>-4.55375497229397296905517578125</LongitudeDegrees>
            </Position>
            <AltitudeMeters>69.1999969482421875</AltitudeMeters>
            <DistanceMeters>NAN</DistanceMeters>
          </Trackpoint>
          <Trackpoint>
            <Time>2022-07-15T10:30:06.000Z</Time>
            <Position>
              <LatitudeDegrees>43.380672298371791839599609375</LatitudeDegrees>
              <LongitudeDegrees>-4.55384348519146442413330078125</LongitudeDegrees>
            </Position>
            <AltitudeMeters>68.8000030517578125</AltitudeMeters>
            <DistanceMeters>NAN</DistanceMeters>
          </Trackpoint>
          <Trackpoint>
            <Time>2022-07-15T10:30:09.000Z</Time>
            <Position>
              <LatitudeDegrees>43.38074706494808197021484375</LatitudeDegrees>
              <LongitudeDegrees>-4.5539994724094867706298828125</LongitudeDegrees>
            </Position>
            <AltitudeMeters>68.1999969482421875</AltitudeMeters>
            <DistanceMeters>NAN</DistanceMeters>
          </Trackpoint>
          <Trackpoint>
            <Time>2022-07-15T10:30:11.000Z</Time>
            <Position>
              <LatitudeDegrees>43.380791656672954559326171875</LatitudeDegrees>
              <LongitudeDegrees>-4.55414523370563983917236328125</LongitudeDegrees>
            </Position>
            <AltitudeMeters>67.59999847412109375</AltitudeMeters>
            <DistanceMeters>NAN</DistanceMeters>
          </Trackpoint>
          <Trackpoint>
            <Time>2022-07-15T10:30:14.000Z</Time>
            <Position>
              <LatitudeDegrees>43.38087790645658969879150390625</LatitudeDegrees>
              <LongitudeDegrees>-4.5544217526912689208984375</LongitudeDegrees>
            </Position>
            <AltitudeMeters>66.40000152587890625</AltitudeMeters>
            <DistanceMeters>NAN</DistanceMeters>
          </Trackpoint>
          <Trackpoint>
            <Time>2022-07-15T10:30:17.000Z</Time>
            <Position>
              <LatitudeDegrees>43.38096725754439830780029296875</LatitudeDegrees>
              <LongitudeDegrees>-4.55470564775168895721435546875</LongitudeDegrees>
            </Position>
            <AltitudeMeters>66.1999969482421875</AltitudeMeters>
            <DistanceMeters>NAN</DistanceMeters>
          </Trackpoint>
          <Trackpoint>
            <Time>2022-07-15T10:30:18.000Z</Time>
            <Position>
              <LatitudeDegrees>43.380997516214847564697265625</LatitudeDegrees>
              <LongitudeDegrees>-4.5548058114945888519287109375</LongitudeDegrees>
            </Position>
            <AltitudeMeters>65.8000030517578125</AltitudeMeters>
            <DistanceMeters>NAN</DistanceMeters>
          </Trackpoint>
          <Trackpoint>
            <Time>2022-07-15T10:30:19.000Z</Time>
            <Position>
              <LatitudeDegrees>43.3810281939804553985595703125</LatitudeDegrees>
              <LongitudeDegrees>-4.55490463413298130035400390625</LongitudeDegrees>
            </Position>
            <AltitudeMeters>65.40000152587890625</AltitudeMeters>
            <DistanceMeters>NAN</DistanceMeters>
          </Trackpoint>
          <Trackpoint>
            <Time>2022-07-15T10:30:20.000Z</Time>
            <Position>
              <LatitudeDegrees>43.3810281939804553985595703125</LatitudeDegrees>
              <LongitudeDegrees>-4.55490463413298130035400390625</LongitudeDegrees>
            </Position>
            <AltitudeMeters>65.1999969482421875</AltitudeMeters>
            <DistanceMeters>NAN</DistanceMeters>
          </Trackpoint>
          <Trackpoint>
            <Time>2022-07-15T10:30:21.000Z</Time>
            <Position>
              <LatitudeDegrees>43.3810843527317047119140625</LatitudeDegrees>
              <LongitudeDegrees>-4.55509272404015064239501953125</LongitudeDegrees>
            </Position>
            <AltitudeMeters>64.8000030517578125</AltitudeMeters>
            <DistanceMeters>NAN</DistanceMeters>
          </Trackpoint>
          <Trackpoint>
            <Time>2022-07-15T10:30:23.000Z</Time>
            <Position>
              <LatitudeDegrees>43.3811562694609165191650390625</LatitudeDegrees>
              <LongitudeDegrees>-4.55533043481409549713134765625</LongitudeDegrees>
            </Position>
            <AltitudeMeters>64</AltitudeMeters>
            <DistanceMeters>NAN</DistanceMeters>
          </Trackpoint>
          <Trackpoint>
            <Time>2022-07-15T10:30:28.000Z</Time>
            <Position>
              <LatitudeDegrees>43.3813125081360340118408203125</LatitudeDegrees>
              <LongitudeDegrees>-4.55585245974361896514892578125</LongitudeDegrees>
            </Position>
            <AltitudeMeters>63</AltitudeMeters>
            <DistanceMeters>NAN</DistanceMeters>
          </Trackpoint>
          <Trackpoint>
            <Time>2022-07-15T10:30:29.000Z</Time>
            <Position>
              <LatitudeDegrees>43.38134117424488067626953125</LatitudeDegrees>
              <LongitudeDegrees>-4.5559511147439479827880859375</LongitudeDegrees>
            </Position>
            <AltitudeMeters>62.799999237060546875</AltitudeMeters>
            <DistanceMeters>NAN</DistanceMeters>
          </Trackpoint>
          <Trackpoint>
            <Time>2022-07-15T10:30:32.000Z</Time>
            <Position>
              <LatitudeDegrees>43.38142423890531063079833984375</LatitudeDegrees>
              <LongitudeDegrees>-4.5562330819666385650634765625</LongitudeDegrees>
            </Position>
            <AltitudeMeters>62.59999847412109375</AltitudeMeters>
            <DistanceMeters>NAN</DistanceMeters>
          </Trackpoint>
          <Trackpoint>
            <Time>2022-07-15T10:30:34.000Z</Time>
            <Position>
              <LatitudeDegrees>43.38147352449595928192138671875</LatitudeDegrees>
              <LongitudeDegrees>-4.55639946274459362030029296875</LongitudeDegrees>
            </Position>
            <AltitudeMeters>62.59999847412109375</AltitudeMeters>
            <DistanceMeters>NAN</DistanceMeters>
          </Trackpoint>
          <Trackpoint>
            <Time>2022-07-15T10:30:39.000Z</Time>
            <Position>
              <LatitudeDegrees>43.38158391416072845458984375</LatitudeDegrees>
              <LongitudeDegrees>-4.5567235909402370452880859375</LongitudeDegrees>
            </Position>
            <AltitudeMeters>63</AltitudeMeters>
            <DistanceMeters>NAN</DistanceMeters>
          </Trackpoint>
          <Trackpoint>
            <Time>2022-07-15T10:30:45.000Z</Time>
            <Position>
              <LatitudeDegrees>43.381653986871242523193359375</LatitudeDegrees>
              <LongitudeDegrees>-4.55697982572019100189208984375</LongitudeDegrees>
            </Position>
            <AltitudeMeters>63</AltitudeMeters>
            <DistanceMeters>NAN</DistanceMeters>
          </Trackpoint>
          <Trackpoint>
            <Time>2022-07-15T10:30:52.000Z</Time>
            <Position>
              <LatitudeDegrees>43.38171006180346012115478515625</LatitudeDegrees>
              <LongitudeDegrees>-4.5571802370250225067138671875</LongitudeDegrees>
            </Position>
            <AltitudeMeters>63.799999237060546875</AltitudeMeters>
            <DistanceMeters>NAN</DistanceMeters>
          </Trackpoint>
          <Trackpoint>
            <Time>2022-07-15T10:30:55.000Z</Time>
            <Position>
              <LatitudeDegrees>43.381731770932674407958984375</LatitudeDegrees>
              <LongitudeDegrees>-4.5572724379599094390869140625</LongitudeDegrees>
            </Position>
            <AltitudeMeters>64</AltitudeMeters>
            <DistanceMeters>NAN</DistanceMeters>
          </Trackpoint>
          <Trackpoint>
            <Time>2022-07-15T10:30:59.000Z</Time>
            <Position>
              <LatitudeDegrees>43.3817698247730731964111328125</LatitudeDegrees>
              <LongitudeDegrees>-4.55737696029245853424072265625</LongitudeDegrees>
            </Position>
            <AltitudeMeters>64.8000030517578125</AltitudeMeters>
            <DistanceMeters>NAN</DistanceMeters>
          </Trackpoint>
          <Trackpoint>
            <Time>2022-07-15T10:31:01.000Z</Time>
            <Position>
              <LatitudeDegrees>43.38178910315036773681640625</LatitudeDegrees>
              <LongitudeDegrees>-4.55741954036056995391845703125</LongitudeDegrees>
            </Position>
            <AltitudeMeters>65</AltitudeMeters>
            <DistanceMeters>NAN</DistanceMeters>
          </Trackpoint>
          <Trackpoint>
            <Time>2022-07-15T10:31:03.000Z</Time>
            <Position>
              <LatitudeDegrees>43.38182556442916393280029296875</LatitudeDegrees>
              <LongitudeDegrees>-4.55742917954921722412109375</LongitudeDegrees>
            </Position>
            <AltitudeMeters>65.1999969482421875</AltitudeMeters>
            <DistanceMeters>NAN</DistanceMeters>
          </Trackpoint>
          <Trackpoint>
            <Time>2022-07-15T10:31:09.000Z</Time>
            <Position>
              <LatitudeDegrees>43.38188189081847667694091796875</LatitudeDegrees>
              <LongitudeDegrees>-4.55740981735289096832275390625</LongitudeDegrees>
            </Position>
            <AltitudeMeters>65</AltitudeMeters>
            <DistanceMeters>NAN</DistanceMeters>
          </Trackpoint>
          <Trackpoint>
            <Time>2022-07-15T10:38:24.000Z</Time>
            <Position>
              <LatitudeDegrees>43.3818447589874267578125</LatitudeDegrees>
              <LongitudeDegrees>-4.55744267441332340240478515625</LongitudeDegrees>
            </Position>
            <AltitudeMeters>60.200000762939453125</AltitudeMeters>
            <DistanceMeters>NAN</DistanceMeters>
          </Trackpoint>
          <Trackpoint>
            <Time>2022-07-15T10:38:25.000Z</Time>
            <Position>
              <LatitudeDegrees>43.3818382211029529571533203125</LatitudeDegrees>
              <LongitudeDegrees>-4.5574648864567279815673828125</LongitudeDegrees>
            </Position>
            <AltitudeMeters>60.200000762939453125</AltitudeMeters>
            <DistanceMeters>NAN</DistanceMeters>
          </Trackpoint>
          <Trackpoint>
            <Time>2022-07-15T10:38:26.000Z</Time>
            <Position>
              <LatitudeDegrees>43.38183562271296977996826171875</LatitudeDegrees>
              <LongitudeDegrees>-4.5574886910617351531982421875</LongitudeDegrees>
            </Position>
            <AltitudeMeters>60.200000762939453125</AltitudeMeters>
            <DistanceMeters>NAN</DistanceMeters>
          </Trackpoint>
          <Trackpoint>
            <Time>2022-07-15T10:38:33.000Z</Time>
            <Position>
              <LatitudeDegrees>43.38185791857540607452392578125</LatitudeDegrees>
              <LongitudeDegrees>-4.55764803104102611541748046875</LongitudeDegrees>
            </Position>
            <AltitudeMeters>60.799999237060546875</AltitudeMeters>
            <DistanceMeters>NAN</DistanceMeters>
          </Trackpoint>
          <Trackpoint>
            <Time>2022-07-15T10:38:38.000Z</Time>
            <Position>
              <LatitudeDegrees>43.3818675577640533447265625</LatitudeDegrees>
              <LongitudeDegrees>-4.55780468881130218505859375</LongitudeDegrees>
            </Position>
            <AltitudeMeters>61.40000152587890625</AltitudeMeters>
            <DistanceMeters>NAN</DistanceMeters>
          </Trackpoint>
          <Trackpoint>
            <Time>2022-07-15T10:38:39.000Z</Time>
            <Position>
              <LatitudeDegrees>43.38187359273433685302734375</LatitudeDegrees>
              <LongitudeDegrees>-4.55783327110111713409423828125</LongitudeDegrees>
            </Position>
            <AltitudeMeters>61.59999847412109375</AltitudeMeters>
            <DistanceMeters>NAN</DistanceMeters>
          </Trackpoint>
          <Trackpoint>
            <Time>2022-07-15T10:38:47.000Z</Time>
            <Position>
              <LatitudeDegrees>43.38191516697406768798828125</LatitudeDegrees>
              <LongitudeDegrees>-4.55806595273315906524658203125</LongitudeDegrees>
            </Position>
            <AltitudeMeters>62.40000152587890625</AltitudeMeters>
            <DistanceMeters>NAN</DistanceMeters>
          </Trackpoint>
          <Trackpoint>
            <Time>2022-07-15T10:38:49.000Z</Time>
            <Position>
              <LatitudeDegrees>43.38192631490528583526611328125</LatitudeDegrees>
              <LongitudeDegrees>-4.55812521278858184814453125</LongitudeDegrees>
            </Position>
            <AltitudeMeters>62.40000152587890625</AltitudeMeters>
            <DistanceMeters>NAN</DistanceMeters>
          </Trackpoint>
          <Trackpoint>
            <Time>2022-07-15T10:38:50.000Z</Time>
            <Position>
              <LatitudeDegrees>43.38193201459944248199462890625</LatitudeDegrees>
              <LongitudeDegrees>-4.55815471708774566650390625</LongitudeDegrees>
            </Position>
            <AltitudeMeters>62.40000152587890625</AltitudeMeters>
            <DistanceMeters>NAN</DistanceMeters>
          </Trackpoint>
          <Trackpoint>
            <Time>2022-07-15T10:38:53.000Z</Time>
            <Position>
              <LatitudeDegrees>43.38194659911096096038818359375</LatitudeDegrees>
              <LongitudeDegrees>-4.55824700184166431427001953125</LongitudeDegrees>
            </Position>
            <AltitudeMeters>62.59999847412109375</AltitudeMeters>
            <DistanceMeters>NAN</DistanceMeters>
          </Trackpoint>
          <Trackpoint>
            <Time>2022-07-15T10:38:56.000Z</Time>
            <Position>
              <LatitudeDegrees>43.3819669671356678009033203125</LatitudeDegrees>
              <LongitudeDegrees>-4.55834289081394672393798828125</LongitudeDegrees>
            </Position>
            <AltitudeMeters>62.799999237060546875</AltitudeMeters>
            <DistanceMeters>NAN</DistanceMeters>
          </Trackpoint>
          <Trackpoint>
            <Time>2022-07-15T10:38:57.000Z</Time>
            <Position>
              <LatitudeDegrees>43.38197191245853900909423828125</LatitudeDegrees>
              <LongitudeDegrees>-4.55837524496018886566162109375</LongitudeDegrees>
            </Position>
            <AltitudeMeters>63</AltitudeMeters>
            <DistanceMeters>NAN</DistanceMeters>
          </Trackpoint>
          <Trackpoint>
            <Time>2022-07-15T10:38:59.000Z</Time>
            <Position>
              <LatitudeDegrees>43.381980545818805694580078125</LatitudeDegrees>
              <LongitudeDegrees>-4.55844397656619548797607421875</LongitudeDegrees>
            </Position>
            <AltitudeMeters>63</AltitudeMeters>
            <DistanceMeters>NAN</DistanceMeters>
          </Trackpoint>
          <Trackpoint>
            <Time>2022-07-15T10:39:05.000Z</Time>
            <Position>
              <LatitudeDegrees>43.38200996629893779754638671875</LatitudeDegrees>
              <LongitudeDegrees>-4.5586534403264522552490234375</LongitudeDegrees>
            </Position>
            <AltitudeMeters>63.200000762939453125</AltitudeMeters>
            <DistanceMeters>NAN</DistanceMeters>
          </Trackpoint>
          <Trackpoint>
            <Time>2022-07-15T10:39:09.000Z</Time>
            <Position>
              <LatitudeDegrees>43.3820320107042789459228515625</LatitudeDegrees>
              <LongitudeDegrees>-4.55880356021225452423095703125</LongitudeDegrees>
            </Position>
            <AltitudeMeters>63.200000762939453125</AltitudeMeters>
            <DistanceMeters>NAN</DistanceMeters>
          </Trackpoint>
          <Trackpoint>
            <Time>2022-07-15T10:39:14.000Z</Time>
            <Position>
              <LatitudeDegrees>43.38205304928123950958251953125</LatitudeDegrees>
              <LongitudeDegrees>-4.55900573171675205230712890625</LongitudeDegrees>
            </Position>
            <AltitudeMeters>63.59999847412109375</AltitudeMeters>
            <DistanceMeters>NAN</DistanceMeters>
          </Trackpoint>
          <Trackpoint>
            <Time>2022-07-15T10:39:19.000Z</Time>
            <Position>
              <LatitudeDegrees>43.38207718916237354278564453125</LatitudeDegrees>
              <LongitudeDegrees>-4.55921829678118228912353515625</LongitudeDegrees>
            </Position>
            <AltitudeMeters>63.40000152587890625</AltitudeMeters>
            <DistanceMeters>NAN</DistanceMeters>
          </Trackpoint>
          <Trackpoint>
            <Time>2022-07-15T10:39:27.000Z</Time>
            <Position>
              <LatitudeDegrees>43.38211272843182086944580078125</LatitudeDegrees>
              <LongitudeDegrees>-4.55961777828633785247802734375</LongitudeDegrees>
            </Position>
            <AltitudeMeters>63.200000762939453125</AltitudeMeters>
            <DistanceMeters>NAN</DistanceMeters>
          </Trackpoint>
          <Trackpoint>
            <Time>2022-07-15T10:39:34.000Z</Time>
            <Position>
              <LatitudeDegrees>43.382158912718296051025390625</LatitudeDegrees>
              <LongitudeDegrees>-4.56007115542888641357421875</LongitudeDegrees>
            </Position>
            <AltitudeMeters>62.40000152587890625</AltitudeMeters>
            <DistanceMeters>NAN</DistanceMeters>
          </Trackpoint>
          <Trackpoint>
            <Time>2022-07-15T10:39:41.000Z</Time>
            <Position>
              <LatitudeDegrees>43.38217341341078281402587890625</LatitudeDegrees>
              <LongitudeDegrees>-4.5605960302054882049560546875</LongitudeDegrees>
            </Position>
            <AltitudeMeters>62.200000762939453125</AltitudeMeters>
            <DistanceMeters>NAN</DistanceMeters>
          </Trackpoint>
          <Trackpoint>
            <Time>2022-07-15T10:39:48.000Z</Time>
            <Position>
              <LatitudeDegrees>43.38222630321979522705078125</LatitudeDegrees>
              <LongitudeDegrees>-4.56114781089127063751220703125</LongitudeDegrees>
            </Position>
            <AltitudeMeters>62</AltitudeMeters>
            <DistanceMeters>NAN</DistanceMeters>
          </Trackpoint>
          <Trackpoint>
            <Time>2022-07-15T10:39:51.000Z</Time>
            <Position>
              <LatitudeDegrees>43.38225538842380046844482421875</LatitudeDegrees>
              <LongitudeDegrees>-4.561389125883579254150390625</LongitudeDegrees>
            </Position>
            <AltitudeMeters>61.40000152587890625</AltitudeMeters>
            <DistanceMeters>NAN</DistanceMeters>
          </Trackpoint>
          <Trackpoint>
            <Time>2022-07-15T10:39:55.000Z</Time>
            <Position>
              <LatitudeDegrees>43.382293693721294403076171875</LatitudeDegrees>
              <LongitudeDegrees>-4.56171333789825439453125</LongitudeDegrees>
            </Position>
            <AltitudeMeters>61.200000762939453125</AltitudeMeters>
            <DistanceMeters>NAN</DistanceMeters>
          </Trackpoint>
          <Trackpoint>
            <Time>2022-07-15T10:39:56.000Z</Time>
            <Position>
              <LatitudeDegrees>43.38230433873832225799560546875</LatitudeDegrees>
              <LongitudeDegrees>-4.561798162758350372314453125</LongitudeDegrees>
            </Position>
            <AltitudeMeters>61</AltitudeMeters>
            <DistanceMeters>NAN</DistanceMeters>
          </Trackpoint>
          <Trackpoint>
            <Time>2022-07-15T10:39:59.000Z</Time>
            <Position>
              <LatitudeDegrees>43.38233283720910549163818359375</LatitudeDegrees>
              <LongitudeDegrees>-4.56204584799706935882568359375</LongitudeDegrees>
            </Position>
            <AltitudeMeters>60.200000762939453125</AltitudeMeters>
            <DistanceMeters>NAN</DistanceMeters>
          </Trackpoint>
          <Trackpoint>
            <Time>2022-07-15T10:40:04.000Z</Time>
            <Position>
              <LatitudeDegrees>43.38238832540810108184814453125</LatitudeDegrees>
              <LongitudeDegrees>-4.56251154653728008270263671875</LongitudeDegrees>
            </Position>
            <AltitudeMeters>59.40000152587890625</AltitudeMeters>
            <DistanceMeters>NAN</DistanceMeters>
          </Trackpoint>
          <Trackpoint>
            <Time>2022-07-15T10:40:07.000Z</Time>
            <Position>
              <LatitudeDegrees>43.38242084719240665435791015625</LatitudeDegrees>
              <LongitudeDegrees>-4.5628380216658115386962890625</LongitudeDegrees>
            </Position>
            <AltitudeMeters>59.200000762939453125</AltitudeMeters>
            <DistanceMeters>NAN</DistanceMeters>
          </Trackpoint>
          <Trackpoint>
            <Time>2022-07-15T10:40:10.000Z</Time>
            <Position>
              <LatitudeDegrees>43.38244800455868244171142578125</LatitudeDegrees>
              <LongitudeDegrees>-4.563188217580318450927734375</LongitudeDegrees>
            </Position>
            <AltitudeMeters>57.799999237060546875</AltitudeMeters>
            <DistanceMeters>NAN</DistanceMeters>
          </Trackpoint>
          <Trackpoint>
            <Time>2022-07-15T10:40:11.000Z</Time>
            <Position>
              <LatitudeDegrees>43.38245118968188762664794921875</LatitudeDegrees>
              <LongitudeDegrees>-4.56330531276762485504150390625</LongitudeDegrees>
            </Position>
            <AltitudeMeters>57.59999847412109375</AltitudeMeters>
            <DistanceMeters>NAN</DistanceMeters>
          </Trackpoint>
          <Trackpoint>
            <Time>2022-07-15T10:40:13.000Z</Time>
            <Position>
              <LatitudeDegrees>43.3824638463556766510009765625</LatitudeDegrees>
              <LongitudeDegrees>-4.56353581510484218597412109375</LongitudeDegrees>
            </Position>
            <AltitudeMeters>56.40000152587890625</AltitudeMeters>
            <DistanceMeters>NAN</DistanceMeters>
          </Trackpoint>
          <Trackpoint>
            <Time>2022-07-15T10:40:16.000Z</Time>
            <Position>
              <LatitudeDegrees>43.3824665285646915435791015625</LatitudeDegrees>
              <LongitudeDegrees>-4.56388852559030055999755859375</LongitudeDegrees>
            </Position>
            <AltitudeMeters>55</AltitudeMeters>
            <DistanceMeters>NAN</DistanceMeters>
          </Trackpoint>
          <Trackpoint>
            <Time>2022-07-15T10:40:17.000Z</Time>
            <Position>
              <LatitudeDegrees>43.3824588172137737274169921875</LatitudeDegrees>
              <LongitudeDegrees>-4.5640091411769390106201171875</LongitudeDegrees>
            </Position>
            <AltitudeMeters>54.40000152587890625</AltitudeMeters>
            <DistanceMeters>NAN</DistanceMeters>
          </Trackpoint>
          <Trackpoint>
            <Time>2022-07-15T10:40:19.000Z</Time>
            <Position>
              <LatitudeDegrees>43.3824273012578487396240234375</LatitudeDegrees>
              <LongitudeDegrees>-4.56425716169178485870361328125</LongitudeDegrees>
            </Position>
            <AltitudeMeters>53.799999237060546875</AltitudeMeters>
            <DistanceMeters>NAN</DistanceMeters>
          </Trackpoint>
          <Trackpoint>
            <Time>2022-07-15T10:40:22.000Z</Time>
            <Position>
              <LatitudeDegrees>43.38235261850059032440185546875</LatitudeDegrees>
              <LongitudeDegrees>-4.56463149748742580413818359375</LongitudeDegrees>
            </Position>
            <AltitudeMeters>52.40000152587890625</AltitudeMeters>
            <DistanceMeters>NAN</DistanceMeters>
          </Trackpoint>
          <Trackpoint>
            <Time>2022-07-15T10:40:25.000Z</Time>
            <Position>
              <LatitudeDegrees>43.38225605897605419158935546875</LatitudeDegrees>
              <LongitudeDegrees>-4.5649837888777256011962890625</LongitudeDegrees>
            </Position>
            <AltitudeMeters>51.200000762939453125</AltitudeMeters>
            <DistanceMeters>NAN</DistanceMeters>
          </Trackpoint>
          <Trackpoint>
            <Time>2022-07-15T10:40:26.000Z</Time>
            <Position>
              <LatitudeDegrees>43.38223493658006191253662109375</LatitudeDegrees>
              <LongitudeDegrees>-4.56508981995284557342529296875</LongitudeDegrees>
            </Position>
            <AltitudeMeters>50.799999237060546875</AltitudeMeters>
            <DistanceMeters>NAN</DistanceMeters>
          </Trackpoint>
          <Trackpoint>
            <Time>2022-07-15T10:40:27.000Z</Time>
            <Position>
              <LatitudeDegrees>43.38223191909492015838623046875</LatitudeDegrees>
              <LongitudeDegrees>-4.56519492901861667633056640625</LongitudeDegrees>
            </Position>
            <AltitudeMeters>50.40000152587890625</AltitudeMeters>
            <DistanceMeters>NAN</DistanceMeters>
          </Trackpoint>
          <Trackpoint>
            <Time>2022-07-15T10:40:28.000Z</Time>
            <Position>
              <LatitudeDegrees>43.38224784471094608306884765625</LatitudeDegrees>
              <LongitudeDegrees>-4.5652972720563411712646484375</LongitudeDegrees>
            </Position>
            <AltitudeMeters>49.799999237060546875</AltitudeMeters>
            <DistanceMeters>NAN</DistanceMeters>
          </Trackpoint>
          <Trackpoint>
            <Time>2022-07-15T10:40:30.000Z</Time>
            <Position>
              <LatitudeDegrees>43.38231758214533329010009765625</LatitudeDegrees>
              <LongitudeDegrees>-4.56548611633479595184326171875</LongitudeDegrees>
            </Position>
            <AltitudeMeters>49.40000152587890625</AltitudeMeters>
            <DistanceMeters>NAN</DistanceMeters>
          </Trackpoint>
          <Trackpoint>
            <Time>2022-07-15T10:40:32.000Z</Time>
            <Position>
              <LatitudeDegrees>43.38242788799107074737548828125</LatitudeDegrees>
              <LongitudeDegrees>-4.56563548184931278228759765625</LongitudeDegrees>
            </Position>
            <AltitudeMeters>49.40000152587890625</AltitudeMeters>
            <DistanceMeters>NAN</DistanceMeters>
          </Trackpoint>
          <Trackpoint>
            <Time>2022-07-15T10:40:33.000Z</Time>
            <Position>
              <LatitudeDegrees>43.38249242864549160003662109375</LatitudeDegrees>
              <LongitudeDegrees>-4.5656875334680080413818359375</LongitudeDegrees>
            </Position>
            <AltitudeMeters>49.40000152587890625</AltitudeMeters>
            <DistanceMeters>NAN</DistanceMeters>
          </Trackpoint>
          <Trackpoint>
            <Time>2022-07-15T10:40:34.000Z</Time>
            <Position>
              <LatitudeDegrees>43.3825595676898956298828125</LatitudeDegrees>
              <LongitudeDegrees>-4.565726257860660552978515625</LongitudeDegrees>
            </Position>
            <AltitudeMeters>49.40000152587890625</AltitudeMeters>
            <DistanceMeters>NAN</DistanceMeters>
          </Trackpoint>
          <Trackpoint>
            <Time>2022-07-15T10:40:35.000Z</Time>
            <Position>
              <LatitudeDegrees>43.3826266229152679443359375</LatitudeDegrees>
              <LongitudeDegrees>-4.56575752235949039459228515625</LongitudeDegrees>
            </Position>
            <AltitudeMeters>49.200000762939453125</AltitudeMeters>
            <DistanceMeters>NAN</DistanceMeters>
          </Trackpoint>
          <Trackpoint>
            <Time>2022-07-15T10:40:36.000Z</Time>
            <Position>
              <LatitudeDegrees>43.38269392959773540496826171875</LatitudeDegrees>
              <LongitudeDegrees>-4.56578149460256099700927734375</LongitudeDegrees>
            </Position>
            <AltitudeMeters>49.200000762939453125</AltitudeMeters>
            <DistanceMeters>NAN</DistanceMeters>
          </Trackpoint>
          <Trackpoint>
            <Time>2022-07-15T10:40:40.000Z</Time>
            <Position>
              <LatitudeDegrees>43.38296391069889068603515625</LatitudeDegrees>
              <LongitudeDegrees>-4.56587235443294048309326171875</LongitudeDegrees>
            </Position>
            <AltitudeMeters>48.799999237060546875</AltitudeMeters>
            <DistanceMeters>NAN</DistanceMeters>
          </Trackpoint>
          <Trackpoint>
            <Time>2022-07-15T10:40:43.000Z</Time>
            <Position>
              <LatitudeDegrees>43.38313766755163669586181640625</LatitudeDegrees>
              <LongitudeDegrees>-4.56595013849437236785888671875</LongitudeDegrees>
            </Position>
            <AltitudeMeters>48.40000152587890625</AltitudeMeters>
            <DistanceMeters>NAN</DistanceMeters>
          </Trackpoint>
          <Trackpoint>
            <Time>2022-07-15T10:40:44.000Z</Time>
            <Position>
              <LatitudeDegrees>43.38318779133260250091552734375</LatitudeDegrees>
              <LongitudeDegrees>-4.5659391582012176513671875</LongitudeDegrees>
            </Position>
            <AltitudeMeters>48.40000152587890625</AltitudeMeters>
            <DistanceMeters>NAN</DistanceMeters>
          </Trackpoint>
          <Trackpoint>
            <Time>2022-07-15T10:40:45.000Z</Time>
            <Position>
              <LatitudeDegrees>43.38323137722909450531005859375</LatitudeDegrees>
              <LongitudeDegrees>-4.5659128390252590179443359375</LongitudeDegrees>
            </Position>
            <AltitudeMeters>48.59999847412109375</AltitudeMeters>
            <DistanceMeters>NAN</DistanceMeters>
          </Trackpoint>
          <Trackpoint>
            <Time>2022-07-15T10:40:46.000Z</Time>
            <Position>
              <LatitudeDegrees>43.3832755498588085174560546875</LatitudeDegrees>
              <LongitudeDegrees>-4.565873444080352783203125</LongitudeDegrees>
            </Position>
            <AltitudeMeters>48.799999237060546875</AltitudeMeters>
            <DistanceMeters>NAN</DistanceMeters>
          </Trackpoint>
          <Trackpoint>
            <Time>2022-07-15T10:40:49.000Z</Time>
            <Position>
              <LatitudeDegrees>43.38338895700871944427490234375</LatitudeDegrees>
              <LongitudeDegrees>-4.56579859368503093719482421875</LongitudeDegrees>
            </Position>
            <AltitudeMeters>49</AltitudeMeters>
            <DistanceMeters>NAN</DistanceMeters>
          </Trackpoint>
          <Trackpoint>
            <Time>2022-07-15T10:40:51.000Z</Time>
            <Position>
              <LatitudeDegrees>43.38346824981272220611572265625</LatitudeDegrees>
              <LongitudeDegrees>-4.56579691730439662933349609375</LongitudeDegrees>
            </Position>
            <AltitudeMeters>49</AltitudeMeters>
            <DistanceMeters>NAN</DistanceMeters>
          </Trackpoint>
          <Trackpoint>
            <Time>2022-07-15T10:40:52.000Z</Time>
            <Position>
              <LatitudeDegrees>43.38350596837699413299560546875</LatitudeDegrees>
              <LongitudeDegrees>-4.5658077299594879150390625</LongitudeDegrees>
            </Position>
            <AltitudeMeters>49</AltitudeMeters>
            <DistanceMeters>NAN</DistanceMeters>
          </Trackpoint>
          <Trackpoint>
            <Time>2022-07-15T10:40:55.000Z</Time>
            <Position>
              <LatitudeDegrees>43.383604623377323150634765625</LatitudeDegrees>
              <LongitudeDegrees>-4.56588685512542724609375</LongitudeDegrees>
            </Position>
            <AltitudeMeters>49</AltitudeMeters>
            <DistanceMeters>NAN</DistanceMeters>
          </Trackpoint>
          <Trackpoint>
            <Time>2022-07-15T10:40:58.000Z</Time>
            <Position>
              <LatitudeDegrees>43.38367561809718608856201171875</LatitudeDegrees>
              <LongitudeDegrees>-4.566010572016239166259765625</LongitudeDegrees>
            </Position>
            <AltitudeMeters>49.40000152587890625</AltitudeMeters>
            <DistanceMeters>NAN</DistanceMeters>
          </Trackpoint>
          <Trackpoint>
            <Time>2022-07-15T10:41:00.000Z</Time>
            <Position>
              <LatitudeDegrees>43.38369757868349552154541015625</LatitudeDegrees>
              <LongitudeDegrees>-4.56610537134110927581787109375</LongitudeDegrees>
            </Position>
            <AltitudeMeters>49.40000152587890625</AltitudeMeters>
            <DistanceMeters>NAN</DistanceMeters>
          </Trackpoint>
          <Trackpoint>
            <Time>2022-07-15T10:41:02.000Z</Time>
            <Position>
              <LatitudeDegrees>43.38370948098599910736083984375</LatitudeDegrees>
              <LongitudeDegrees>-4.5662115700542926788330078125</LongitudeDegrees>
            </Position>
            <AltitudeMeters>49.59999847412109375</AltitudeMeters>
            <DistanceMeters>NAN</DistanceMeters>
          </Trackpoint>
          <Trackpoint>
            <Time>2022-07-15T10:41:07.000Z</Time>
            <Position>
              <LatitudeDegrees>43.38378910906612873077392578125</LatitudeDegrees>
              <LongitudeDegrees>-4.566466547548770904541015625</LongitudeDegrees>
            </Position>
            <AltitudeMeters>49.799999237060546875</AltitudeMeters>
            <DistanceMeters>NAN</DistanceMeters>
          </Trackpoint>
          <Trackpoint>
            <Time>2022-07-15T10:41:09.000Z</Time>
            <Position>
              <LatitudeDegrees>43.38384107686579227447509765625</LatitudeDegrees>
              <LongitudeDegrees>-4.56657526083290576934814453125</LongitudeDegrees>
            </Position>
            <AltitudeMeters>49.799999237060546875</AltitudeMeters>
            <DistanceMeters>NAN</DistanceMeters>
          </Trackpoint>
          <Trackpoint>
            <Time>2022-07-15T10:41:11.000Z</Time>
            <Position>
              <LatitudeDegrees>43.38389463722705841064453125</LatitudeDegrees>
              <LongitudeDegrees>-4.566705264151096343994140625</LongitudeDegrees>
            </Position>
            <AltitudeMeters>49.799999237060546875</AltitudeMeters>
            <DistanceMeters>NAN</DistanceMeters>
          </Trackpoint>
          <Trackpoint>
            <Time>2022-07-15T10:41:12.000Z</Time>
            <Position>
              <LatitudeDegrees>43.3839202858507633209228515625</LatitudeDegrees>
              <LongitudeDegrees>-4.56677801907062530517578125</LongitudeDegrees>
            </Position>
            <AltitudeMeters>49.40000152587890625</AltitudeMeters>
            <DistanceMeters>NAN</DistanceMeters>
          </Trackpoint>
          <Trackpoint>
            <Time>2022-07-15T10:41:15.000Z</Time>
            <Position>
              <LatitudeDegrees>43.38399832136929035186767578125</LatitudeDegrees>
              <LongitudeDegrees>-4.56702687777578830718994140625</LongitudeDegrees>
            </Position>
            <AltitudeMeters>48</AltitudeMeters>
            <DistanceMeters>NAN</DistanceMeters>
          </Trackpoint>
          <Trackpoint>
            <Time>2022-07-15T10:41:16.000Z</Time>
            <Position>
              <LatitudeDegrees>43.38402271270751953125</LatitudeDegrees>
              <LongitudeDegrees>-4.56711472012102603912353515625</LongitudeDegrees>
            </Position>
            <AltitudeMeters>47.799999237060546875</AltitudeMeters>
            <DistanceMeters>NAN</DistanceMeters>
          </Trackpoint>
          <Trackpoint>
            <Time>2022-07-15T10:41:18.000Z</Time>
            <Position>
              <LatitudeDegrees>43.38408113457262516021728515625</LatitudeDegrees>
              <LongitudeDegrees>-4.56729711033403873443603515625</LongitudeDegrees>
            </Position>
            <AltitudeMeters>47.59999847412109375</AltitudeMeters>
            <DistanceMeters>NAN</DistanceMeters>
          </Trackpoint>
          <Trackpoint>
            <Time>2022-07-15T10:41:22.000Z</Time>
            <Position>
              <LatitudeDegrees>43.38420954532921314239501953125</LatitudeDegrees>
              <LongitudeDegrees>-4.56769407726824283599853515625</LongitudeDegrees>
            </Position>
            <AltitudeMeters>46.799999237060546875</AltitudeMeters>
            <DistanceMeters>NAN</DistanceMeters>
          </Trackpoint>
          <Trackpoint>
            <Time>2022-07-15T10:41:25.000Z</Time>
            <Position>
              <LatitudeDegrees>43.38430945761501789093017578125</LatitudeDegrees>
              <LongitudeDegrees>-4.56798392347991466522216796875</LongitudeDegrees>
            </Position>
            <AltitudeMeters>46</AltitudeMeters>
            <DistanceMeters>NAN</DistanceMeters>
          </Trackpoint>
          <Trackpoint>
            <Time>2022-07-15T10:41:26.000Z</Time>
            <Position>
              <LatitudeDegrees>43.38434533216059207916259765625</LatitudeDegrees>
              <LongitudeDegrees>-4.56807780079543590545654296875</LongitudeDegrees>
            </Position>
            <AltitudeMeters>45.799999237060546875</AltitudeMeters>
            <DistanceMeters>NAN</DistanceMeters>
          </Trackpoint>
          <Trackpoint>
            <Time>2022-07-15T10:41:27.000Z</Time>
            <Position>
              <LatitudeDegrees>43.38437835685908794403076171875</LatitudeDegrees>
              <LongitudeDegrees>-4.5681719295680522918701171875</LongitudeDegrees>
            </Position>
            <AltitudeMeters>45.59999847412109375</AltitudeMeters>
            <DistanceMeters>NAN</DistanceMeters>
          </Trackpoint>
          <Trackpoint>
            <Time>2022-07-15T10:41:31.000Z</Time>
            <Position>
              <LatitudeDegrees>43.38451397605240345001220703125</LatitudeDegrees>
              <LongitudeDegrees>-4.5685491152107715606689453125</LongitudeDegrees>
            </Position>
            <AltitudeMeters>44.799999237060546875</AltitudeMeters>
            <DistanceMeters>NAN</DistanceMeters>
          </Trackpoint>
          <Trackpoint>
            <Time>2022-07-15T10:41:32.000Z</Time>
            <Position>
              <LatitudeDegrees>43.38454867713153362274169921875</LatitudeDegrees>
              <LongitudeDegrees>-4.568641483783721923828125</LongitudeDegrees>
            </Position>
            <AltitudeMeters>44.59999847412109375</AltitudeMeters>
            <DistanceMeters>NAN</DistanceMeters>
          </Trackpoint>
          <Trackpoint>
            <Time>2022-07-15T10:41:37.000Z</Time>
            <Position>
              <LatitudeDegrees>43.3847044967114925384521484375</LatitudeDegrees>
              <LongitudeDegrees>-4.56906996667385101318359375</LongitudeDegrees>
            </Position>
            <AltitudeMeters>43.799999237060546875</AltitudeMeters>
            <DistanceMeters>NAN</DistanceMeters>
          </Trackpoint>
          <Trackpoint>
            <Time>2022-07-15T10:41:38.000Z</Time>
            <Position>
              <LatitudeDegrees>43.38473550975322723388671875</LatitudeDegrees>
              <LongitudeDegrees>-4.56915403716266155242919921875</LongitudeDegrees>
            </Position>
            <AltitudeMeters>43.59999847412109375</AltitudeMeters>
            <DistanceMeters>NAN</DistanceMeters>
          </Trackpoint>
          <Trackpoint>
            <Time>2022-07-15T10:41:44.000Z</Time>
            <Position>
              <LatitudeDegrees>43.3849066682159900665283203125</LatitudeDegrees>
              <LongitudeDegrees>-4.56964689306914806365966796875</LongitudeDegrees>
            </Position>
            <AltitudeMeters>42.59999847412109375</AltitudeMeters>
            <DistanceMeters>NAN</DistanceMeters>
          </Trackpoint>
          <Trackpoint>
            <Time>2022-07-15T10:41:45.000Z</Time>
            <Position>
              <LatitudeDegrees>43.3849333226680755615234375</LatitudeDegrees>
              <LongitudeDegrees>-4.5697289519011974334716796875</LongitudeDegrees>
            </Position>
            <AltitudeMeters>42.59999847412109375</AltitudeMeters>
            <DistanceMeters>NAN</DistanceMeters>
          </Trackpoint>
          <Trackpoint>
            <Time>2022-07-15T10:41:54.000Z</Time>
            <Position>
              <LatitudeDegrees>43.3851520903408527374267578125</LatitudeDegrees>
              <LongitudeDegrees>-4.570449292659759521484375</LongitudeDegrees>
            </Position>
            <AltitudeMeters>42.59999847412109375</AltitudeMeters>
            <DistanceMeters>NAN</DistanceMeters>
          </Trackpoint>
          <Trackpoint>
            <Time>2022-07-15T10:41:55.000Z</Time>
            <Position>
              <LatitudeDegrees>43.3851685188710689544677734375</LatitudeDegrees>
              <LongitudeDegrees>-4.57046949304640293121337890625</LongitudeDegrees>
            </Position>
            <AltitudeMeters>42.40000152587890625</AltitudeMeters>
            <DistanceMeters>NAN</DistanceMeters>
          </Trackpoint>
          <Trackpoint>
            <Time>2022-07-15T10:41:56.000Z</Time>
            <Position>
              <LatitudeDegrees>43.38518209755420684814453125</LatitudeDegrees>
              <LongitudeDegrees>-4.57047007977962493896484375</LongitudeDegrees>
            </Position>
            <AltitudeMeters>42.200000762939453125</AltitudeMeters>
            <DistanceMeters>NAN</DistanceMeters>
          </Trackpoint>
          <Trackpoint>
            <Time>2022-07-15T10:41:58.000Z</Time>
            <Position>
              <LatitudeDegrees>43.38518268428742885589599609375</LatitudeDegrees>
              <LongitudeDegrees>-4.5704394020140171051025390625</LongitudeDegrees>
            </Position>
            <AltitudeMeters>42</AltitudeMeters>
            <DistanceMeters>NAN</DistanceMeters>
          </Trackpoint>
          <Trackpoint>
            <Time>2022-07-15T10:42:02.000Z</Time>
            <Position>
              <LatitudeDegrees>43.38518251664936542510986328125</LatitudeDegrees>
              <LongitudeDegrees>-4.570368826389312744140625</LongitudeDegrees>
            </Position>
            <AltitudeMeters>42</AltitudeMeters>
            <DistanceMeters>NAN</DistanceMeters>
          </Trackpoint>
          <Trackpoint>
            <Time>2022-07-15T10:42:03.000Z</Time>
            <Position>
              <LatitudeDegrees>43.3851859532296657562255859375</LatitudeDegrees>
              <LongitudeDegrees>-4.57036538980901241302490234375</LongitudeDegrees>
            </Position>
            <AltitudeMeters>42</AltitudeMeters>
            <DistanceMeters>NAN</DistanceMeters>
          </Trackpoint>
          <Trackpoint>
            <Time>2022-07-15T10:42:05.000Z</Time>
            <Position>
              <LatitudeDegrees>43.3851859532296657562255859375</LatitudeDegrees>
              <LongitudeDegrees>-4.57036538980901241302490234375</LongitudeDegrees>
            </Position>
            <AltitudeMeters>41.799999237060546875</AltitudeMeters>
            <DistanceMeters>NAN</DistanceMeters>
          </Trackpoint>
          <Trackpoint>
            <Time>2022-07-15T10:43:08.000Z</Time>
            <Position>
              <LatitudeDegrees>43.38518536649644374847412109375</LatitudeDegrees>
              <LongitudeDegrees>-4.570458345115184783935546875</LongitudeDegrees>
            </Position>
            <AltitudeMeters>41.40000152587890625</AltitudeMeters>
            <DistanceMeters>NAN</DistanceMeters>
          </Trackpoint>
          <Trackpoint>
            <Time>2022-07-15T10:43:09.000Z</Time>
            <Position>
              <LatitudeDegrees>43.38519106619060039520263671875</LatitudeDegrees>
              <LongitudeDegrees>-4.5704920403659343719482421875</LongitudeDegrees>
            </Position>
            <AltitudeMeters>41.40000152587890625</AltitudeMeters>
            <DistanceMeters>NAN</DistanceMeters>
          </Trackpoint>
          <Trackpoint>
            <Time>2022-07-15T10:43:15.000Z</Time>
            <Position>
              <LatitudeDegrees>43.38524018414318561553955078125</LatitudeDegrees>
              <LongitudeDegrees>-4.5707123167812824249267578125</LongitudeDegrees>
            </Position>
            <AltitudeMeters>41</AltitudeMeters>
            <DistanceMeters>NAN</DistanceMeters>
          </Trackpoint>
          <Trackpoint>
            <Time>2022-07-15T10:43:20.000Z</Time>
            <Position>
              <LatitudeDegrees>43.38532852940261363983154296875</LatitudeDegrees>
              <LongitudeDegrees>-4.5709738321602344512939453125</LongitudeDegrees>
            </Position>
            <AltitudeMeters>40.40000152587890625</AltitudeMeters>
            <DistanceMeters>NAN</DistanceMeters>
          </Trackpoint>
          <Trackpoint>
            <Time>2022-07-15T10:43:22.000Z</Time>
            <Position>
              <LatitudeDegrees>43.38534898124635219573974609375</LatitudeDegrees>
              <LongitudeDegrees>-4.57108321599662303924560546875</LongitudeDegrees>
            </Position>
            <AltitudeMeters>40.200000762939453125</AltitudeMeters>
            <DistanceMeters>NAN</DistanceMeters>
          </Trackpoint>
          <Trackpoint>
            <Time>2022-07-15T10:43:29.000Z</Time>
            <Position>
              <LatitudeDegrees>43.38544897735118865966796875</LatitudeDegrees>
              <LongitudeDegrees>-4.571509100496768951416015625</LongitudeDegrees>
            </Position>
            <AltitudeMeters>39.799999237060546875</AltitudeMeters>
            <DistanceMeters>NAN</DistanceMeters>
          </Trackpoint>
          <Trackpoint>
            <Time>2022-07-15T10:43:34.000Z</Time>
            <Position>
              <LatitudeDegrees>43.38552919216454029083251953125</LatitudeDegrees>
              <LongitudeDegrees>-4.57184714265167713165283203125</LongitudeDegrees>
            </Position>
            <AltitudeMeters>39.200000762939453125</AltitudeMeters>
            <DistanceMeters>NAN</DistanceMeters>
          </Trackpoint>
          <Trackpoint>
            <Time>2022-07-15T10:43:37.000Z</Time>
            <Position>
              <LatitudeDegrees>43.3855862729251384735107421875</LatitudeDegrees>
              <LongitudeDegrees>-4.5720577798783779144287109375</LongitudeDegrees>
            </Position>
            <AltitudeMeters>39.200000762939453125</AltitudeMeters>
            <DistanceMeters>NAN</DistanceMeters>
          </Trackpoint>
          <Trackpoint>
            <Time>2022-07-15T10:43:47.000Z</Time>
            <Position>
              <LatitudeDegrees>43.38577427901327610015869140625</LatitudeDegrees>
              <LongitudeDegrees>-4.57276462577283382415771484375</LongitudeDegrees>
            </Position>
            <AltitudeMeters>38.40000152587890625</AltitudeMeters>
            <DistanceMeters>NAN</DistanceMeters>
          </Trackpoint>
          <Trackpoint>
            <Time>2022-07-15T10:43:50.000Z</Time>
            <Position>
              <LatitudeDegrees>43.3858358860015869140625</LatitudeDegrees>
              <LongitudeDegrees>-4.57298406399786472320556640625</LongitudeDegrees>
            </Position>
            <AltitudeMeters>38.40000152587890625</AltitudeMeters>
            <DistanceMeters>NAN</DistanceMeters>
          </Trackpoint>
          <Trackpoint>
            <Time>2022-07-15T10:43:52.000Z</Time>
            <Position>
              <LatitudeDegrees>43.38587435893714427947998046875</LatitudeDegrees>
              <LongitudeDegrees>-4.5731172524392604827880859375</LongitudeDegrees>
            </Position>
            <AltitudeMeters>38.40000152587890625</AltitudeMeters>
            <DistanceMeters>NAN</DistanceMeters>
          </Trackpoint>
          <Trackpoint>
            <Time>2022-07-15T10:43:54.000Z</Time>
            <Position>
              <LatitudeDegrees>43.38591207750141620635986328125</LatitudeDegrees>
              <LongitudeDegrees>-4.57324088551104068756103515625</LongitudeDegrees>
            </Position>
            <AltitudeMeters>37.799999237060546875</AltitudeMeters>
            <DistanceMeters>NAN</DistanceMeters>
          </Trackpoint>
          <Trackpoint>
            <Time>2022-07-15T10:43:55.000Z</Time>
            <Position>
              <LatitudeDegrees>43.38592532090842723846435546875</LatitudeDegrees>
              <LongitudeDegrees>-4.5732892490923404693603515625</LongitudeDegrees>
            </Position>
            <AltitudeMeters>37.59999847412109375</AltitudeMeters>
            <DistanceMeters>NAN</DistanceMeters>
          </Trackpoint>
          <Trackpoint>
            <Time>2022-07-15T10:43:58.000Z</Time>
            <Position>
              <LatitudeDegrees>43.3859500475227832794189453125</LatitudeDegrees>
              <LongitudeDegrees>-4.57336711697280406951904296875</LongitudeDegrees>
            </Position>
            <AltitudeMeters>37</AltitudeMeters>
            <DistanceMeters>NAN</DistanceMeters>
          </Trackpoint>
          <Trackpoint>
            <Time>2022-07-15T10:43:59.000Z</Time>
            <Position>
              <LatitudeDegrees>43.385949544608592987060546875</LatitudeDegrees>
              <LongitudeDegrees>-4.57337759435176849365234375</LongitudeDegrees>
            </Position>
            <AltitudeMeters>37</AltitudeMeters>
            <DistanceMeters>NAN</DistanceMeters>
          </Trackpoint>
          <Trackpoint>
            <Time>2022-07-15T10:44:00.000Z</Time>
            <Position>
              <LatitudeDegrees>43.38594996370375156402587890625</LatitudeDegrees>
              <LongitudeDegrees>-4.57338287495076656341552734375</LongitudeDegrees>
            </Position>
            <AltitudeMeters>36.799999237060546875</AltitudeMeters>
            <DistanceMeters>NAN</DistanceMeters>
          </Trackpoint>
          <Trackpoint>
            <Time>2022-07-15T10:44:02.000Z</Time>
            <Position>
              <LatitudeDegrees>43.38594744913280010223388671875</LatitudeDegrees>
              <LongitudeDegrees>-4.57338555715978145599365234375</LongitudeDegrees>
            </Position>
            <AltitudeMeters>36.799999237060546875</AltitudeMeters>
            <DistanceMeters>NAN</DistanceMeters>
          </Trackpoint>
          <Trackpoint>
            <Time>2022-07-15T10:44:10.000Z</Time>
            <Position>
              <LatitudeDegrees>43.38585021905601024627685546875</LatitudeDegrees>
              <LongitudeDegrees>-4.57341891713440418243408203125</LongitudeDegrees>
            </Position>
            <AltitudeMeters>36.59999847412109375</AltitudeMeters>
            <DistanceMeters>NAN</DistanceMeters>
          </Trackpoint>
          <Trackpoint>
            <Time>2022-07-15T10:44:11.000Z</Time>
            <Position>
              <LatitudeDegrees>43.38583211414515972137451171875</LatitudeDegrees>
              <LongitudeDegrees>-4.5734153129160404205322265625</LongitudeDegrees>
            </Position>
            <AltitudeMeters>36.59999847412109375</AltitudeMeters>
            <DistanceMeters>NAN</DistanceMeters>
          </Trackpoint>
          <Trackpoint>
            <Time>2022-07-15T10:44:14.000Z</Time>
            <Position>
              <LatitudeDegrees>43.38581484742462635040283203125</LatitudeDegrees>
              <LongitudeDegrees>-4.5734144747257232666015625</LongitudeDegrees>
            </Position>
            <AltitudeMeters>36.59999847412109375</AltitudeMeters>
            <DistanceMeters>NAN</DistanceMeters>
          </Trackpoint>
          <Trackpoint>
            <Time>2022-07-15T10:44:15.000Z</Time>
            <Position>
              <LatitudeDegrees>43.38581484742462635040283203125</LatitudeDegrees>
              <LongitudeDegrees>-4.5734144747257232666015625</LongitudeDegrees>
            </Position>
            <AltitudeMeters>36.40000152587890625</AltitudeMeters>
            <DistanceMeters>NAN</DistanceMeters>
          </Trackpoint>
          <Trackpoint>
            <Time>2022-07-15T10:45:12.000Z</Time>
            <Position>
              <LatitudeDegrees>43.38586078025400638580322265625</LatitudeDegrees>
              <LongitudeDegrees>-4.57339025102555751800537109375</LongitudeDegrees>
            </Position>
            <AltitudeMeters>36.200000762939453125</AltitudeMeters>
            <DistanceMeters>NAN</DistanceMeters>
          </Trackpoint>
          <Trackpoint>
            <Time>2022-07-15T10:45:13.000Z</Time>
            <Position>
              <LatitudeDegrees>43.38588240556418895721435546875</LatitudeDegrees>
              <LongitudeDegrees>-4.57340114749968051910400390625</LongitudeDegrees>
            </Position>
            <AltitudeMeters>36.200000762939453125</AltitudeMeters>
            <DistanceMeters>NAN</DistanceMeters>
          </Trackpoint>
          <Trackpoint>
            <Time>2022-07-15T10:45:17.000Z</Time>
            <Position>
              <LatitudeDegrees>43.38598181493580341339111328125</LatitudeDegrees>
              <LongitudeDegrees>-4.57351949997246265411376953125</LongitudeDegrees>
            </Position>
            <AltitudeMeters>36.200000762939453125</AltitudeMeters>
            <DistanceMeters>NAN</DistanceMeters>
          </Trackpoint>
          <Trackpoint>
            <Time>2022-07-15T10:45:20.000Z</Time>
            <Position>
              <LatitudeDegrees>43.3860338665544986724853515625</LatitudeDegrees>
              <LongitudeDegrees>-4.57364455796778202056884765625</LongitudeDegrees>
            </Position>
            <AltitudeMeters>36</AltitudeMeters>
            <DistanceMeters>NAN</DistanceMeters>
          </Trackpoint>
          <Trackpoint>
            <Time>2022-07-15T10:45:22.000Z</Time>
            <Position>
              <LatitudeDegrees>43.38606831617653369903564453125</LatitudeDegrees>
              <LongitudeDegrees>-4.57373826764523983001708984375</LongitudeDegrees>
            </Position>
            <AltitudeMeters>36</AltitudeMeters>
            <DistanceMeters>NAN</DistanceMeters>
          </Trackpoint>
          <Trackpoint>
            <Time>2022-07-15T10:45:23.000Z</Time>
            <Position>
              <LatitudeDegrees>43.38608424179255962371826171875</LatitudeDegrees>
              <LongitudeDegrees>-4.57378302700817584991455078125</LongitudeDegrees>
            </Position>
            <AltitudeMeters>36</AltitudeMeters>
            <DistanceMeters>NAN</DistanceMeters>
          </Trackpoint>
          <Trackpoint>
            <Time>2022-07-15T10:45:26.000Z</Time>
            <Position>
              <LatitudeDegrees>43.38613520376384258270263671875</LatitudeDegrees>
              <LongitudeDegrees>-4.573920406401157379150390625</LongitudeDegrees>
            </Position>
            <AltitudeMeters>35.799999237060546875</AltitudeMeters>
            <DistanceMeters>NAN</DistanceMeters>
          </Trackpoint>
          <Trackpoint>
            <Time>2022-07-15T10:45:29.000Z</Time>
            <Position>
              <LatitudeDegrees>43.38618130423128604888916015625</LatitudeDegrees>
              <LongitudeDegrees>-4.57405460067093372344970703125</LongitudeDegrees>
            </Position>
            <AltitudeMeters>34.59999847412109375</AltitudeMeters>
            <DistanceMeters>NAN</DistanceMeters>
          </Trackpoint>
          <Trackpoint>
            <Time>2022-07-15T10:45:30.000Z</Time>
            <Position>
              <LatitudeDegrees>43.3861968107521533966064453125</LatitudeDegrees>
              <LongitudeDegrees>-4.5741049759089946746826171875</LongitudeDegrees>
            </Position>
            <AltitudeMeters>34.40000152587890625</AltitudeMeters>
            <DistanceMeters>NAN</DistanceMeters>
          </Trackpoint>
          <Trackpoint>
            <Time>2022-07-15T10:45:37.000Z</Time>
            <Position>
              <LatitudeDegrees>43.3863416500389575958251953125</LatitudeDegrees>
              <LongitudeDegrees>-4.5744885317981243133544921875</LongitudeDegrees>
            </Position>
            <AltitudeMeters>34.59999847412109375</AltitudeMeters>
            <DistanceMeters>NAN</DistanceMeters>
          </Trackpoint>
          <Trackpoint>
            <Time>2022-07-15T10:45:43.000Z</Time>
            <Position>
              <LatitudeDegrees>43.3864968828856945037841796875</LatitudeDegrees>
              <LongitudeDegrees>-4.57489681430160999298095703125</LongitudeDegrees>
            </Position>
            <AltitudeMeters>34</AltitudeMeters>
            <DistanceMeters>NAN</DistanceMeters>
          </Trackpoint>
          <Trackpoint>
            <Time>2022-07-15T10:45:49.000Z</Time>
            <Position>
              <LatitudeDegrees>43.3866836316883563995361328125</LatitudeDegrees>
              <LongitudeDegrees>-4.57533351145684719085693359375</LongitudeDegrees>
            </Position>
            <AltitudeMeters>33.59999847412109375</AltitudeMeters>
            <DistanceMeters>NAN</DistanceMeters>
          </Trackpoint>
          <Trackpoint>
            <Time>2022-07-15T10:45:50.000Z</Time>
            <Position>
              <LatitudeDegrees>43.38672176934778690338134765625</LatitudeDegrees>
              <LongitudeDegrees>-4.57540827803313732147216796875</LongitudeDegrees>
            </Position>
            <AltitudeMeters>33.40000152587890625</AltitudeMeters>
            <DistanceMeters>NAN</DistanceMeters>
          </Trackpoint>
          <Trackpoint>
            <Time>2022-07-15T10:45:55.000Z</Time>
            <Position>
              <LatitudeDegrees>43.38693081401288509368896484375</LatitudeDegrees>
              <LongitudeDegrees>-4.57580558024346828460693359375</LongitudeDegrees>
            </Position>
            <AltitudeMeters>32.40000152587890625</AltitudeMeters>
            <DistanceMeters>NAN</DistanceMeters>
          </Trackpoint>
          <Trackpoint>
            <Time>2022-07-15T10:45:56.000Z</Time>
            <Position>
              <LatitudeDegrees>43.38697792030870914459228515625</LatitudeDegrees>
              <LongitudeDegrees>-4.5758879743516445159912109375</LongitudeDegrees>
            </Position>
            <AltitudeMeters>32.40000152587890625</AltitudeMeters>
            <DistanceMeters>NAN</DistanceMeters>
          </Trackpoint>
          <Trackpoint>
            <Time>2022-07-15T10:46:00.000Z</Time>
            <Position>
              <LatitudeDegrees>43.3871729671955108642578125</LatitudeDegrees>
              <LongitudeDegrees>-4.576213695108890533447265625</LongitudeDegrees>
            </Position>
            <AltitudeMeters>31.200000762939453125</AltitudeMeters>
            <DistanceMeters>NAN</DistanceMeters>
          </Trackpoint>
          <Trackpoint>
            <Time>2022-07-15T10:46:01.000Z</Time>
            <Position>
              <LatitudeDegrees>43.38722451590001583099365234375</LatitudeDegrees>
              <LongitudeDegrees>-4.57629407756030559539794921875</LongitudeDegrees>
            </Position>
            <AltitudeMeters>31</AltitudeMeters>
            <DistanceMeters>NAN</DistanceMeters>
          </Trackpoint>
          <Trackpoint>
            <Time>2022-07-15T10:46:04.000Z</Time>
            <Position>
              <LatitudeDegrees>43.38738025166094303131103515625</LatitudeDegrees>
              <LongitudeDegrees>-4.57651846110820770263671875</LongitudeDegrees>
            </Position>
            <AltitudeMeters>30.6000003814697265625</AltitudeMeters>
            <DistanceMeters>NAN</DistanceMeters>
          </Trackpoint>
          <Trackpoint>
            <Time>2022-07-15T10:46:06.000Z</Time>
            <Position>
              <LatitudeDegrees>43.3874825946986675262451171875</LatitudeDegrees>
              <LongitudeDegrees>-4.5766674913465976715087890625</LongitudeDegrees>
            </Position>
            <AltitudeMeters>29.799999237060546875</AltitudeMeters>
            <DistanceMeters>NAN</DistanceMeters>
          </Trackpoint>
          <Trackpoint>
            <Time>2022-07-15T10:46:07.000Z</Time>
            <Position>
              <LatitudeDegrees>43.38753548450767993927001953125</LatitudeDegrees>
              <LongitudeDegrees>-4.5767425931990146636962890625</LongitudeDegrees>
            </Position>
            <AltitudeMeters>29.200000762939453125</AltitudeMeters>
            <DistanceMeters>NAN</DistanceMeters>
          </Trackpoint>
          <Trackpoint>
            <Time>2022-07-15T10:46:08.000Z</Time>
            <Position>
              <LatitudeDegrees>43.3875875361263751983642578125</LatitudeDegrees>
              <LongitudeDegrees>-4.57681995816528797149658203125</LongitudeDegrees>
            </Position>
            <AltitudeMeters>28.799999237060546875</AltitudeMeters>
            <DistanceMeters>NAN</DistanceMeters>
          </Trackpoint>
          <Trackpoint>
            <Time>2022-07-15T10:46:09.000Z</Time>
            <Position>
              <LatitudeDegrees>43.38763606734573841094970703125</LatitudeDegrees>
              <LongitudeDegrees>-4.57689656876027584075927734375</LongitudeDegrees>
            </Position>
            <AltitudeMeters>28.3999996185302734375</AltitudeMeters>
            <DistanceMeters>NAN</DistanceMeters>
          </Trackpoint>
          <Trackpoint>
            <Time>2022-07-15T10:46:10.000Z</Time>
            <Position>
              <LatitudeDegrees>43.387684263288974761962890625</LatitudeDegrees>
              <LongitudeDegrees>-4.57697711884975433349609375</LongitudeDegrees>
            </Position>
            <AltitudeMeters>27.799999237060546875</AltitudeMeters>
            <DistanceMeters>NAN</DistanceMeters>
          </Trackpoint>
          <Trackpoint>
            <Time>2022-07-15T10:46:12.000Z</Time>
            <Position>
              <LatitudeDegrees>43.3877910487353801727294921875</LatitudeDegrees>
              <LongitudeDegrees>-4.5771315135061740875244140625</LongitudeDegrees>
            </Position>
            <AltitudeMeters>27</AltitudeMeters>
            <DistanceMeters>NAN</DistanceMeters>
          </Trackpoint>
          <Trackpoint>
            <Time>2022-07-15T10:46:13.000Z</Time>
            <Position>
              <LatitudeDegrees>43.38784645311534404754638671875</LatitudeDegrees>
              <LongitudeDegrees>-4.57720971666276454925537109375</LongitudeDegrees>
            </Position>
            <AltitudeMeters>26.6000003814697265625</AltitudeMeters>
            <DistanceMeters>NAN</DistanceMeters>
          </Trackpoint>
          <Trackpoint>
            <Time>2022-07-15T10:46:16.000Z</Time>
            <Position>
              <LatitudeDegrees>43.3880173601210117340087890625</LatitudeDegrees>
              <LongitudeDegrees>-4.5774565637111663818359375</LongitudeDegrees>
            </Position>
            <AltitudeMeters>25.3999996185302734375</AltitudeMeters>
            <DistanceMeters>NAN</DistanceMeters>
          </Trackpoint>
          <Trackpoint>
            <Time>2022-07-15T10:46:19.000Z</Time>
            <Position>
              <LatitudeDegrees>43.3881873451173305511474609375</LatitudeDegrees>
              <LongitudeDegrees>-4.5777212642133235931396484375</LongitudeDegrees>
            </Position>
            <AltitudeMeters>25</AltitudeMeters>
            <DistanceMeters>NAN</DistanceMeters>
          </Trackpoint>
          <Trackpoint>
            <Time>2022-07-15T10:46:23.000Z</Time>
            <Position>
              <LatitudeDegrees>43.388408459722995758056640625</LatitudeDegrees>
              <LongitudeDegrees>-4.57806366495788097381591796875</LongitudeDegrees>
            </Position>
            <AltitudeMeters>24.200000762939453125</AltitudeMeters>
            <DistanceMeters>NAN</DistanceMeters>
          </Trackpoint>
          <Trackpoint>
            <Time>2022-07-15T10:46:25.000Z</Time>
            <Position>
              <LatitudeDegrees>43.38852505199611186981201171875</LatitudeDegrees>
              <LongitudeDegrees>-4.5782164670526981353759765625</LongitudeDegrees>
            </Position>
            <AltitudeMeters>24</AltitudeMeters>
            <DistanceMeters>NAN</DistanceMeters>
          </Trackpoint>
          <Trackpoint>
            <Time>2022-07-15T10:46:29.000Z</Time>
            <Position>
              <LatitudeDegrees>43.38876175694167613983154296875</LatitudeDegrees>
              <LongitudeDegrees>-4.57849516533315181732177734375</LongitudeDegrees>
            </Position>
            <AltitudeMeters>23</AltitudeMeters>
            <DistanceMeters>NAN</DistanceMeters>
          </Trackpoint>
          <Trackpoint>
            <Time>2022-07-15T10:46:31.000Z</Time>
            <Position>
              <LatitudeDegrees>43.38889553211629390716552734375</LatitudeDegrees>
              <LongitudeDegrees>-4.57862290553748607635498046875</LongitudeDegrees>
            </Position>
            <AltitudeMeters>22.200000762939453125</AltitudeMeters>
            <DistanceMeters>NAN</DistanceMeters>
          </Trackpoint>
          <Trackpoint>
            <Time>2022-07-15T10:46:32.000Z</Time>
            <Position>
              <LatitudeDegrees>43.38896359317004680633544921875</LatitudeDegrees>
              <LongitudeDegrees>-4.5786801539361476898193359375</LongitudeDegrees>
            </Position>
            <AltitudeMeters>22</AltitudeMeters>
            <DistanceMeters>NAN</DistanceMeters>
          </Trackpoint>
          <Trackpoint>
            <Time>2022-07-15T10:46:36.000Z</Time>
            <Position>
              <LatitudeDegrees>43.3892334066331386566162109375</LatitudeDegrees>
              <LongitudeDegrees>-4.5788498036563396453857421875</LongitudeDegrees>
            </Position>
            <AltitudeMeters>21</AltitudeMeters>
            <DistanceMeters>NAN</DistanceMeters>
          </Trackpoint>
          <Trackpoint>
            <Time>2022-07-15T10:46:37.000Z</Time>
            <Position>
              <LatitudeDegrees>43.38929669000208377838134765625</LatitudeDegrees>
              <LongitudeDegrees>-4.578884504735469818115234375</LongitudeDegrees>
            </Position>
            <AltitudeMeters>20.6000003814697265625</AltitudeMeters>
            <DistanceMeters>NAN</DistanceMeters>
          </Trackpoint>
          <Trackpoint>
            <Time>2022-07-15T10:46:39.000Z</Time>
            <Position>
              <LatitudeDegrees>43.389416970312595367431640625</LatitudeDegrees>
              <LongitudeDegrees>-4.57894091494381427764892578125</LongitudeDegrees>
            </Position>
            <AltitudeMeters>19.3999996185302734375</AltitudeMeters>
            <DistanceMeters>NAN</DistanceMeters>
          </Trackpoint>
          <Trackpoint>
            <Time>2022-07-15T10:46:41.000Z</Time>
            <Position>
              <LatitudeDegrees>43.38952861726284027099609375</LatitudeDegrees>
              <LongitudeDegrees>-4.57898986525833606719970703125</LongitudeDegrees>
            </Position>
            <AltitudeMeters>18</AltitudeMeters>
            <DistanceMeters>NAN</DistanceMeters>
          </Trackpoint>
          <Trackpoint>
            <Time>2022-07-15T10:46:45.000Z</Time>
            <Position>
              <LatitudeDegrees>43.38970337994396686553955078125</LatitudeDegrees>
              <LongitudeDegrees>-4.5790771208703517913818359375</LongitudeDegrees>
            </Position>
            <AltitudeMeters>16.799999237060546875</AltitudeMeters>
            <DistanceMeters>NAN</DistanceMeters>
          </Trackpoint>
          <Trackpoint>
            <Time>2022-07-15T10:46:46.000Z</Time>
            <Position>
              <LatitudeDegrees>43.389736823737621307373046875</LatitudeDegrees>
              <LongitudeDegrees>-4.57910813391208648681640625</LongitudeDegrees>
            </Position>
            <AltitudeMeters>16.6000003814697265625</AltitudeMeters>
            <DistanceMeters>NAN</DistanceMeters>
          </Trackpoint>
          <Trackpoint>
            <Time>2022-07-15T10:46:47.000Z</Time>
            <Position>
              <LatitudeDegrees>43.38976942934095859527587890625</LatitudeDegrees>
              <LongitudeDegrees>-4.57914141006767749786376953125</LongitudeDegrees>
            </Position>
            <AltitudeMeters>16.6000003814697265625</AltitudeMeters>
            <DistanceMeters>NAN</DistanceMeters>
          </Trackpoint>
          <Trackpoint>
            <Time>2022-07-15T10:46:49.000Z</Time>
            <Position>
              <LatitudeDegrees>43.38980731554329395294189453125</LatitudeDegrees>
              <LongitudeDegrees>-4.57923679612576961517333984375</LongitudeDegrees>
            </Position>
            <AltitudeMeters>16.200000762939453125</AltitudeMeters>
            <DistanceMeters>NAN</DistanceMeters>
          </Trackpoint>
          <Trackpoint>
            <Time>2022-07-15T10:46:50.000Z</Time>
            <Position>
              <LatitudeDegrees>43.38981519453227519989013671875</LatitudeDegrees>
              <LongitudeDegrees>-4.57929882220923900604248046875</LongitudeDegrees>
            </Position>
            <AltitudeMeters>16.200000762939453125</AltitudeMeters>
            <DistanceMeters>NAN</DistanceMeters>
          </Trackpoint>
          <Trackpoint>
            <Time>2022-07-15T10:46:52.000Z</Time>
            <Position>
              <LatitudeDegrees>43.38981217704713344573974609375</LatitudeDegrees>
              <LongitudeDegrees>-4.579426981508731842041015625</LongitudeDegrees>
            </Position>
            <AltitudeMeters>15.80000019073486328125</AltitudeMeters>
            <DistanceMeters>NAN</DistanceMeters>
          </Trackpoint>
          <Trackpoint>
            <Time>2022-07-15T10:46:55.000Z</Time>
            <Position>
              <LatitudeDegrees>43.38981829583644866943359375</LatitudeDegrees>
              <LongitudeDegrees>-4.57959973253309726715087890625</LongitudeDegrees>
            </Position>
            <AltitudeMeters>14.6000003814697265625</AltitudeMeters>
            <DistanceMeters>NAN</DistanceMeters>
          </Trackpoint>
          <Trackpoint>
            <Time>2022-07-15T10:46:57.000Z</Time>
            <Position>
              <LatitudeDegrees>43.38982273824512958526611328125</LatitudeDegrees>
              <LongitudeDegrees>-4.57968204282224178314208984375</LongitudeDegrees>
            </Position>
            <AltitudeMeters>14</AltitudeMeters>
            <DistanceMeters>NAN</DistanceMeters>
          </Trackpoint>
          <Trackpoint>
            <Time>2022-07-15T10:46:59.000Z</Time>
            <Position>
              <LatitudeDegrees>43.3898372389376163482666015625</LatitudeDegrees>
              <LongitudeDegrees>-4.57977742888033390045166015625</LongitudeDegrees>
            </Position>
            <AltitudeMeters>13.6000003814697265625</AltitudeMeters>
            <DistanceMeters>NAN</DistanceMeters>
          </Trackpoint>
          <Trackpoint>
            <Time>2022-07-15T10:47:03.000Z</Time>
            <Position>
              <LatitudeDegrees>43.38989431969821453094482421875</LatitudeDegrees>
              <LongitudeDegrees>-4.57997851073741912841796875</LongitudeDegrees>
            </Position>
            <AltitudeMeters>13.19999980926513671875</AltitudeMeters>
            <DistanceMeters>NAN</DistanceMeters>
          </Trackpoint>
          <Trackpoint>
            <Time>2022-07-15T10:47:07.000Z</Time>
            <Position>
              <LatitudeDegrees>43.39002474211156368255615234375</LatitudeDegrees>
              <LongitudeDegrees>-4.58008982241153717041015625</LongitudeDegrees>
            </Position>
            <AltitudeMeters>12.3999996185302734375</AltitudeMeters>
            <DistanceMeters>NAN</DistanceMeters>
          </Trackpoint>
          <Trackpoint>
            <Time>2022-07-15T10:47:08.000Z</Time>
            <Position>
              <LatitudeDegrees>43.3900759555399417877197265625</LatitudeDegrees>
              <LongitudeDegrees>-4.58008722402155399322509765625</LongitudeDegrees>
            </Position>
            <AltitudeMeters>11.6000003814697265625</AltitudeMeters>
            <DistanceMeters>NAN</DistanceMeters>
          </Trackpoint>
          <Trackpoint>
            <Time>2022-07-15T10:47:09.000Z</Time>
            <Position>
              <LatitudeDegrees>43.39010638184845447540283203125</LatitudeDegrees>
              <LongitudeDegrees>-4.5800609886646270751953125</LongitudeDegrees>
            </Position>
            <AltitudeMeters>11</AltitudeMeters>
            <DistanceMeters>NAN</DistanceMeters>
          </Trackpoint>
          <Trackpoint>
            <Time>2022-07-15T10:47:10.000Z</Time>
            <Position>
              <LatitudeDegrees>43.3901198767125606536865234375</LatitudeDegrees>
              <LongitudeDegrees>-4.580014385282993316650390625</LongitudeDegrees>
            </Position>
            <AltitudeMeters>10.6000003814697265625</AltitudeMeters>
            <DistanceMeters>NAN</DistanceMeters>
          </Trackpoint>
          <Trackpoint>
            <Time>2022-07-15T10:47:12.000Z</Time>
            <Position>
              <LatitudeDegrees>43.39007670991122722625732421875</LatitudeDegrees>
              <LongitudeDegrees>-4.57990332506597042083740234375</LongitudeDegrees>
            </Position>
            <AltitudeMeters>9.6000003814697265625</AltitudeMeters>
            <DistanceMeters>NAN</DistanceMeters>
          </Trackpoint>
          <Trackpoint>
            <Time>2022-07-15T10:47:13.000Z</Time>
            <Position>
              <LatitudeDegrees>43.39005927555263042449951171875</LatitudeDegrees>
              <LongitudeDegrees>-4.57984171807765960693359375</LongitudeDegrees>
            </Position>
            <AltitudeMeters>9.19999980926513671875</AltitudeMeters>
            <DistanceMeters>NAN</DistanceMeters>
          </Trackpoint>
          <Trackpoint>
            <Time>2022-07-15T10:47:15.000Z</Time>
            <Position>
              <LatitudeDegrees>43.39009565301239490509033203125</LatitudeDegrees>
              <LongitudeDegrees>-4.57973987795412540435791015625</LongitudeDegrees>
            </Position>
            <AltitudeMeters>8.6000003814697265625</AltitudeMeters>
            <DistanceMeters>NAN</DistanceMeters>
          </Trackpoint>
          <Trackpoint>
            <Time>2022-07-15T10:47:17.000Z</Time>
            <Position>
              <LatitudeDegrees>43.39021903462707996368408203125</LatitudeDegrees>
              <LongitudeDegrees>-4.5797409676015377044677734375</LongitudeDegrees>
            </Position>
            <AltitudeMeters>7.80000019073486328125</AltitudeMeters>
            <DistanceMeters>NAN</DistanceMeters>
          </Trackpoint>
          <Trackpoint>
            <Time>2022-07-15T10:47:18.000Z</Time>
            <Position>
              <LatitudeDegrees>43.390288688242435455322265625</LatitudeDegrees>
              <LongitudeDegrees>-4.579775668680667877197265625</LongitudeDegrees>
            </Position>
            <AltitudeMeters>7.80000019073486328125</AltitudeMeters>
            <DistanceMeters>NAN</DistanceMeters>
          </Trackpoint>
          <Trackpoint>
            <Time>2022-07-15T10:47:20.000Z</Time>
            <Position>
              <LatitudeDegrees>43.3904122374951839447021484375</LatitudeDegrees>
              <LongitudeDegrees>-4.57984833978116512298583984375</LongitudeDegrees>
            </Position>
            <AltitudeMeters>7.400000095367431640625</AltitudeMeters>
            <DistanceMeters>NAN</DistanceMeters>
          </Trackpoint>
          <Trackpoint>
            <Time>2022-07-15T10:47:22.000Z</Time>
            <Position>
              <LatitudeDegrees>43.39054794050753116607666015625</LatitudeDegrees>
              <LongitudeDegrees>-4.57989293150603771209716796875</LongitudeDegrees>
            </Position>
            <AltitudeMeters>7.19999980926513671875</AltitudeMeters>
            <DistanceMeters>NAN</DistanceMeters>
          </Trackpoint>
          <Trackpoint>
            <Time>2022-07-15T10:47:24.000Z</Time>
            <Position>
              <LatitudeDegrees>43.390672244131565093994140625</LatitudeDegrees>
              <LongitudeDegrees>-4.5798361860215663909912109375</LongitudeDegrees>
            </Position>
            <AltitudeMeters>6.80000019073486328125</AltitudeMeters>
            <DistanceMeters>NAN</DistanceMeters>
          </Trackpoint>
          <Trackpoint>
            <Time>2022-07-15T10:47:25.000Z</Time>
            <Position>
              <LatitudeDegrees>43.390716500580310821533203125</LatitudeDegrees>
              <LongitudeDegrees>-4.57975856959819793701171875</LongitudeDegrees>
            </Position>
            <AltitudeMeters>6.400000095367431640625</AltitudeMeters>
            <DistanceMeters>NAN</DistanceMeters>
          </Trackpoint>
          <Trackpoint>
            <Time>2022-07-15T10:47:26.000Z</Time>
            <Position>
              <LatitudeDegrees>43.39076184667646884918212890625</LatitudeDegrees>
              <LongitudeDegrees>-4.57967676222324371337890625</LongitudeDegrees>
            </Position>
            <AltitudeMeters>6.19999980926513671875</AltitudeMeters>
            <DistanceMeters>NAN</DistanceMeters>
          </Trackpoint>
          <Trackpoint>
            <Time>2022-07-15T10:47:28.000Z</Time>
            <Position>
              <LatitudeDegrees>43.390833176672458648681640625</LatitudeDegrees>
              <LongitudeDegrees>-4.5795599184930324554443359375</LongitudeDegrees>
            </Position>
            <AltitudeMeters>5</AltitudeMeters>
            <DistanceMeters>NAN</DistanceMeters>
          </Trackpoint>
          <Trackpoint>
            <Time>2022-07-15T10:47:31.000Z</Time>
            <Position>
              <LatitudeDegrees>43.39093317277729511260986328125</LatitudeDegrees>
              <LongitudeDegrees>-4.5793929509818553924560546875</LongitudeDegrees>
            </Position>
            <AltitudeMeters>4.599999904632568359375</AltitudeMeters>
            <DistanceMeters>NAN</DistanceMeters>
          </Trackpoint>
          <Trackpoint>
            <Time>2022-07-15T10:47:35.000Z</Time>
            <Position>
              <LatitudeDegrees>43.39106208644807338714599609375</LatitudeDegrees>
              <LongitudeDegrees>-4.57918868400156497955322265625</LongitudeDegrees>
            </Position>
            <AltitudeMeters>4.599999904632568359375</AltitudeMeters>
            <DistanceMeters>NAN</DistanceMeters>
          </Trackpoint>
          <Trackpoint>
            <Time>2022-07-15T10:47:36.000Z</Time>
            <Position>
              <LatitudeDegrees>43.39110164903104305267333984375</LatitudeDegrees>
              <LongitudeDegrees>-4.5791463553905487060546875</LongitudeDegrees>
            </Position>
            <AltitudeMeters>4.599999904632568359375</AltitudeMeters>
            <DistanceMeters>NAN</DistanceMeters>
          </Trackpoint>
          <Trackpoint>
            <Time>2022-07-15T10:47:37.000Z</Time>
            <Position>
              <LatitudeDegrees>43.39112813584506511688232421875</LatitudeDegrees>
              <LongitudeDegrees>-4.57910235039889812469482421875</LongitudeDegrees>
            </Position>
            <AltitudeMeters>4.599999904632568359375</AltitudeMeters>
            <DistanceMeters>NAN</DistanceMeters>
          </Trackpoint>
          <Trackpoint>
            <Time>2022-07-15T10:47:40.000Z</Time>
            <Position>
              <LatitudeDegrees>43.39117624796926975250244140625</LatitudeDegrees>
              <LongitudeDegrees>-4.57897963933646678924560546875</LongitudeDegrees>
            </Position>
            <AltitudeMeters>4.80000019073486328125</AltitudeMeters>
            <DistanceMeters>NAN</DistanceMeters>
          </Trackpoint>
          <Trackpoint>
            <Time>2022-07-15T10:47:41.000Z</Time>
            <Position>
              <LatitudeDegrees>43.391202650964260101318359375</LatitudeDegrees>
              <LongitudeDegrees>-4.5789487101137638092041015625</LongitudeDegrees>
            </Position>
            <AltitudeMeters>4.80000019073486328125</AltitudeMeters>
            <DistanceMeters>NAN</DistanceMeters>
          </Trackpoint>
          <Trackpoint>
            <Time>2022-07-15T10:47:45.000Z</Time>
            <Position>
              <LatitudeDegrees>43.39131362736225128173828125</LatitudeDegrees>
              <LongitudeDegrees>-4.57886614836752414703369140625</LongitudeDegrees>
            </Position>
            <AltitudeMeters>5.80000019073486328125</AltitudeMeters>
            <DistanceMeters>NAN</DistanceMeters>
          </Trackpoint>
          <Trackpoint>
            <Time>2022-07-15T10:47:47.000Z</Time>
            <Position>
              <LatitudeDegrees>43.39135930873453617095947265625</LatitudeDegrees>
              <LongitudeDegrees>-4.57883731462061405181884765625</LongitudeDegrees>
            </Position>
            <AltitudeMeters>6</AltitudeMeters>
            <DistanceMeters>NAN</DistanceMeters>
          </Trackpoint>
          <Trackpoint>
            <Time>2022-07-15T10:47:52.000Z</Time>
            <Position>
              <LatitudeDegrees>43.39147531427443027496337890625</LatitudeDegrees>
              <LongitudeDegrees>-4.57879590801894664764404296875</LongitudeDegrees>
            </Position>
            <AltitudeMeters>6.80000019073486328125</AltitudeMeters>
            <DistanceMeters>NAN</DistanceMeters>
          </Trackpoint>
          <Trackpoint>
            <Time>2022-07-15T10:47:54.000Z</Time>
            <Position>
              <LatitudeDegrees>43.39152946136891841888427734375</LatitudeDegrees>
              <LongitudeDegrees>-4.57878719083964824676513671875</LongitudeDegrees>
            </Position>
            <AltitudeMeters>7</AltitudeMeters>
            <DistanceMeters>NAN</DistanceMeters>
          </Trackpoint>
          <Trackpoint>
            <Time>2022-07-15T10:47:57.000Z</Time>
            <Position>
              <LatitudeDegrees>43.39161336421966552734375</LatitudeDegrees>
              <LongitudeDegrees>-4.578761793673038482666015625</LongitudeDegrees>
            </Position>
            <AltitudeMeters>7.400000095367431640625</AltitudeMeters>
            <DistanceMeters>NAN</DistanceMeters>
          </Trackpoint>
          <Trackpoint>
            <Time>2022-07-15T10:48:00.000Z</Time>
            <Position>
              <LatitudeDegrees>43.3916933275759220123291015625</LatitudeDegrees>
              <LongitudeDegrees>-4.57873119972646236419677734375</LongitudeDegrees>
            </Position>
            <AltitudeMeters>7.599999904632568359375</AltitudeMeters>
            <DistanceMeters>NAN</DistanceMeters>
          </Trackpoint>
          <Trackpoint>
            <Time>2022-07-15T10:48:06.000Z</Time>
            <Position>
              <LatitudeDegrees>43.39183607138693332672119140625</LatitudeDegrees>
              <LongitudeDegrees>-4.5786677487194538116455078125</LongitudeDegrees>
            </Position>
            <AltitudeMeters>8</AltitudeMeters>
            <DistanceMeters>NAN</DistanceMeters>
          </Trackpoint>
          <Trackpoint>
            <Time>2022-07-15T10:48:07.000Z</Time>
            <Position>
              <LatitudeDegrees>43.3918589539825916290283203125</LatitudeDegrees>
              <LongitudeDegrees>-4.57865618169307708740234375</LongitudeDegrees>
            </Position>
            <AltitudeMeters>8</AltitudeMeters>
            <DistanceMeters>NAN</DistanceMeters>
          </Trackpoint>
          <Trackpoint>
            <Time>2022-07-15T10:48:08.000Z</Time>
            <Position>
              <LatitudeDegrees>43.39188166894018650054931640625</LatitudeDegrees>
              <LongitudeDegrees>-4.578645788133144378662109375</LongitudeDegrees>
            </Position>
            <AltitudeMeters>8.19999980926513671875</AltitudeMeters>
            <DistanceMeters>NAN</DistanceMeters>
          </Trackpoint>
          <Trackpoint>
            <Time>2022-07-15T10:48:15.000Z</Time>
            <Position>
              <LatitudeDegrees>43.392018377780914306640625</LatitudeDegrees>
              <LongitudeDegrees>-4.57857982255518436431884765625</LongitudeDegrees>
            </Position>
            <AltitudeMeters>8.19999980926513671875</AltitudeMeters>
            <DistanceMeters>NAN</DistanceMeters>
          </Trackpoint>
          <Trackpoint>
            <Time>2022-07-15T10:48:17.000Z</Time>
            <Position>
              <LatitudeDegrees>43.39205014519393444061279296875</LatitudeDegrees>
              <LongitudeDegrees>-4.57855761051177978515625</LongitudeDegrees>
            </Position>
            <AltitudeMeters>8.3999996185302734375</AltitudeMeters>
            <DistanceMeters>NAN</DistanceMeters>
          </Trackpoint>
          <Trackpoint>
            <Time>2022-07-15T10:48:19.000Z</Time>
            <Position>
              <LatitudeDegrees>43.392085097730159759521484375</LatitudeDegrees>
              <LongitudeDegrees>-4.57853103987872600555419921875</LongitudeDegrees>
            </Position>
            <AltitudeMeters>8.6000003814697265625</AltitudeMeters>
            <DistanceMeters>NAN</DistanceMeters>
          </Trackpoint>
          <Trackpoint>
            <Time>2022-07-15T10:48:21.000Z</Time>
            <Position>
              <LatitudeDegrees>43.392114602029323577880859375</LatitudeDegrees>
              <LongitudeDegrees>-4.5784986019134521484375</LongitudeDegrees>
            </Position>
            <AltitudeMeters>8.80000019073486328125</AltitudeMeters>
            <DistanceMeters>NAN</DistanceMeters>
          </Trackpoint>
          <Trackpoint>
            <Time>2022-07-15T10:48:23.000Z</Time>
            <Position>
              <LatitudeDegrees>43.39215089567005634307861328125</LatitudeDegrees>
              <LongitudeDegrees>-4.57847286947071552276611328125</LongitudeDegrees>
            </Position>
            <AltitudeMeters>9.19999980926513671875</AltitudeMeters>
            <DistanceMeters>NAN</DistanceMeters>
          </Trackpoint>
          <Trackpoint>
            <Time>2022-07-15T10:48:27.000Z</Time>
            <Position>
              <LatitudeDegrees>43.39220839552581310272216796875</LatitudeDegrees>
              <LongitudeDegrees>-4.57841922529041767120361328125</LongitudeDegrees>
            </Position>
            <AltitudeMeters>9.80000019073486328125</AltitudeMeters>
            <DistanceMeters>NAN</DistanceMeters>
          </Trackpoint>
          <Trackpoint>
            <Time>2022-07-15T10:48:29.000Z</Time>
            <Position>
              <LatitudeDegrees>43.39224569499492645263671875</LatitudeDegrees>
              <LongitudeDegrees>-4.57838620059192180633544921875</LongitudeDegrees>
            </Position>
            <AltitudeMeters>10.19999980926513671875</AltitudeMeters>
            <DistanceMeters>NAN</DistanceMeters>
          </Trackpoint>
          <Trackpoint>
            <Time>2022-07-15T10:48:31.000Z</Time>
            <Position>
              <LatitudeDegrees>43.39227595366537570953369140625</LatitudeDegrees>
              <LongitudeDegrees>-4.578348062932491302490234375</LongitudeDegrees>
            </Position>
            <AltitudeMeters>10.80000019073486328125</AltitudeMeters>
            <DistanceMeters>NAN</DistanceMeters>
          </Trackpoint>
          <Trackpoint>
            <Time>2022-07-15T10:48:35.000Z</Time>
            <Position>
              <LatitudeDegrees>43.39231417514383792877197265625</LatitudeDegrees>
              <LongitudeDegrees>-4.57824714481830596923828125</LongitudeDegrees>
            </Position>
            <AltitudeMeters>11.3999996185302734375</AltitudeMeters>
            <DistanceMeters>NAN</DistanceMeters>
          </Trackpoint>
          <Trackpoint>
            <Time>2022-07-15T10:48:36.000Z</Time>
            <Position>
              <LatitudeDegrees>43.39233211241662502288818359375</LatitudeDegrees>
              <LongitudeDegrees>-4.57822711206972599029541015625</LongitudeDegrees>
            </Position>
            <AltitudeMeters>11.6000003814697265625</AltitudeMeters>
            <DistanceMeters>NAN</DistanceMeters>
          </Trackpoint>
          <Trackpoint>
            <Time>2022-07-15T10:48:39.000Z</Time>
            <Position>
              <LatitudeDegrees>43.39236396364867687225341796875</LatitudeDegrees>
              <LongitudeDegrees>-4.57817832939326763153076171875</LongitudeDegrees>
            </Position>
            <AltitudeMeters>12</AltitudeMeters>
            <DistanceMeters>NAN</DistanceMeters>
          </Trackpoint>
          <Trackpoint>
            <Time>2022-07-15T10:48:40.000Z</Time>
            <Position>
              <LatitudeDegrees>43.3923779614269733428955078125</LatitudeDegrees>
              <LongitudeDegrees>-4.578168354928493499755859375</LongitudeDegrees>
            </Position>
            <AltitudeMeters>12</AltitudeMeters>
            <DistanceMeters>NAN</DistanceMeters>
          </Trackpoint>
          <Trackpoint>
            <Time>2022-07-15T10:48:45.000Z</Time>
            <Position>
              <LatitudeDegrees>43.39244510047137737274169921875</LatitudeDegrees>
              <LongitudeDegrees>-4.57811412401497364044189453125</LongitudeDegrees>
            </Position>
            <AltitudeMeters>12.19999980926513671875</AltitudeMeters>
            <DistanceMeters>NAN</DistanceMeters>
          </Trackpoint>
          <Trackpoint>
            <Time>2022-07-15T10:48:53.000Z</Time>
            <Position>
              <LatitudeDegrees>43.39252959005534648895263671875</LatitudeDegrees>
              <LongitudeDegrees>-4.57799023948609828948974609375</LongitudeDegrees>
            </Position>
            <AltitudeMeters>10.80000019073486328125</AltitudeMeters>
            <DistanceMeters>NAN</DistanceMeters>
          </Trackpoint>
          <Trackpoint>
            <Time>2022-07-15T10:48:54.000Z</Time>
            <Position>
              <LatitudeDegrees>43.39254249818623065948486328125</LatitudeDegrees>
              <LongitudeDegrees>-4.577972553670406341552734375</LongitudeDegrees>
            </Position>
            <AltitudeMeters>10.6000003814697265625</AltitudeMeters>
            <DistanceMeters>NAN</DistanceMeters>
          </Trackpoint>
          <Trackpoint>
            <Time>2022-07-15T10:48:55.000Z</Time>
            <Position>
              <LatitudeDegrees>43.39253797195851802825927734375</LatitudeDegrees>
              <LongitudeDegrees>-4.5779633335769176483154296875</LongitudeDegrees>
            </Position>
            <AltitudeMeters>10.3999996185302734375</AltitudeMeters>
            <DistanceMeters>NAN</DistanceMeters>
          </Trackpoint>
          <Trackpoint>
            <Time>2022-07-15T10:48:57.000Z</Time>
            <Position>
              <LatitudeDegrees>43.39252975769340991973876953125</LatitudeDegrees>
              <LongitudeDegrees>-4.5779495872557163238525390625</LongitudeDegrees>
            </Position>
            <AltitudeMeters>10</AltitudeMeters>
            <DistanceMeters>NAN</DistanceMeters>
          </Trackpoint>
          <Trackpoint>
            <Time>2022-07-15T10:48:58.000Z</Time>
            <Position>
              <LatitudeDegrees>43.39252992533147335052490234375</LatitudeDegrees>
              <LongitudeDegrees>-4.57793056033551692962646484375</LongitudeDegrees>
            </Position>
            <AltitudeMeters>9.6000003814697265625</AltitudeMeters>
            <DistanceMeters>NAN</DistanceMeters>
          </Trackpoint>
          <Trackpoint>
            <Time>2022-07-15T10:48:59.000Z</Time>
            <Position>
              <LatitudeDegrees>43.39253160171210765838623046875</LatitudeDegrees>
              <LongitudeDegrees>-4.5779070071876049041748046875</LongitudeDegrees>
            </Position>
            <AltitudeMeters>9.19999980926513671875</AltitudeMeters>
            <DistanceMeters>NAN</DistanceMeters>
          </Trackpoint>
          <Trackpoint>
            <Time>2022-07-15T10:49:01.000Z</Time>
            <Position>
              <LatitudeDegrees>43.39252464473247528076171875</LatitudeDegrees>
              <LongitudeDegrees>-4.5778101123869419097900390625</LongitudeDegrees>
            </Position>
            <AltitudeMeters>8.6000003814697265625</AltitudeMeters>
            <DistanceMeters>NAN</DistanceMeters>
          </Trackpoint>
          <Trackpoint>
            <Time>2022-07-15T10:49:03.000Z</Time>
            <Position>
              <LatitudeDegrees>43.3924976550042629241943359375</LatitudeDegrees>
              <LongitudeDegrees>-4.57771263085305690765380859375</LongitudeDegrees>
            </Position>
            <AltitudeMeters>8</AltitudeMeters>
            <DistanceMeters>NAN</DistanceMeters>
          </Trackpoint>
          <Trackpoint>
            <Time>2022-07-15T10:49:05.000Z</Time>
            <Position>
              <LatitudeDegrees>43.39247158728539943695068359375</LatitudeDegrees>
              <LongitudeDegrees>-4.57763149403035640716552734375</LongitudeDegrees>
            </Position>
            <AltitudeMeters>7</AltitudeMeters>
            <DistanceMeters>NAN</DistanceMeters>
          </Trackpoint>
          <Trackpoint>
            <Time>2022-07-15T10:49:06.000Z</Time>
            <Position>
              <LatitudeDegrees>43.3924607746303081512451171875</LatitudeDegrees>
              <LongitudeDegrees>-4.57758556120097637176513671875</LongitudeDegrees>
            </Position>
            <AltitudeMeters>6.599999904632568359375</AltitudeMeters>
            <DistanceMeters>NAN</DistanceMeters>
          </Trackpoint>
          <Trackpoint>
            <Time>2022-07-15T10:49:07.000Z</Time>
            <Position>
              <LatitudeDegrees>43.39246253482997417449951171875</LatitudeDegrees>
              <LongitudeDegrees>-4.57755756564438343048095703125</LongitudeDegrees>
            </Position>
            <AltitudeMeters>6</AltitudeMeters>
            <DistanceMeters>NAN</DistanceMeters>
          </Trackpoint>
          <Trackpoint>
            <Time>2022-07-15T10:49:08.000Z</Time>
            <Position>
              <LatitudeDegrees>43.3924761973321437835693359375</LatitudeDegrees>
              <LongitudeDegrees>-4.5775365270674228668212890625</LongitudeDegrees>
            </Position>
            <AltitudeMeters>5.80000019073486328125</AltitudeMeters>
            <DistanceMeters>NAN</DistanceMeters>
          </Trackpoint>
          <Trackpoint>
            <Time>2022-07-15T10:49:09.000Z</Time>
            <Position>
              <LatitudeDegrees>43.39248801581561565399169921875</LatitudeDegrees>
              <LongitudeDegrees>-4.577520601451396942138671875</LongitudeDegrees>
            </Position>
            <AltitudeMeters>5.599999904632568359375</AltitudeMeters>
            <DistanceMeters>NAN</DistanceMeters>
          </Trackpoint>
          <Trackpoint>
            <Time>2022-07-15T10:49:16.000Z</Time>
            <Position>
              <LatitudeDegrees>43.39260972104966640472412109375</LatitudeDegrees>
              <LongitudeDegrees>-4.5774208568036556243896484375</LongitudeDegrees>
            </Position>
            <AltitudeMeters>5.19999980926513671875</AltitudeMeters>
            <DistanceMeters>NAN</DistanceMeters>
          </Trackpoint>
          <Trackpoint>
            <Time>2022-07-15T10:49:23.000Z</Time>
            <Position>
              <LatitudeDegrees>43.392688930034637451171875</LatitudeDegrees>
              <LongitudeDegrees>-4.5773279853165149688720703125</LongitudeDegrees>
            </Position>
            <AltitudeMeters>5.400000095367431640625</AltitudeMeters>
            <DistanceMeters>NAN</DistanceMeters>
          </Trackpoint>
          <Trackpoint>
            <Time>2022-07-15T10:49:25.000Z</Time>
            <Position>
              <LatitudeDegrees>43.3926860801875591278076171875</LatitudeDegrees>
              <LongitudeDegrees>-4.57733117043972015380859375</LongitudeDegrees>
            </Position>
            <AltitudeMeters>5</AltitudeMeters>
            <DistanceMeters>NAN</DistanceMeters>
          </Trackpoint>
          <Trackpoint>
            <Time>2022-07-15T10:49:49.000Z</Time>
            <Position>
              <LatitudeDegrees>43.39265565387904644012451171875</LatitudeDegrees>
              <LongitudeDegrees>-4.57728448323905467987060546875</LongitudeDegrees>
            </Position>
            <AltitudeMeters>5</AltitudeMeters>
            <DistanceMeters>NAN</DistanceMeters>
          </Trackpoint>
          <Trackpoint>
            <Time>2022-07-15T10:49:50.000Z</Time>
            <Position>
              <LatitudeDegrees>43.3926662988960742950439453125</LatitudeDegrees>
              <LongitudeDegrees>-4.57727241329848766326904296875</LongitudeDegrees>
            </Position>
            <AltitudeMeters>5.19999980926513671875</AltitudeMeters>
            <DistanceMeters>NAN</DistanceMeters>
          </Trackpoint>
          <Trackpoint>
            <Time>2022-07-15T10:49:56.000Z</Time>
            <Position>
              <LatitudeDegrees>43.39271642267704010009765625</LatitudeDegrees>
              <LongitudeDegrees>-4.57720921374857425689697265625</LongitudeDegrees>
            </Position>
            <AltitudeMeters>4.80000019073486328125</AltitudeMeters>
            <DistanceMeters>NAN</DistanceMeters>
          </Trackpoint>
          <Trackpoint>
            <Time>2022-07-15T10:49:58.000Z</Time>
            <Position>
              <LatitudeDegrees>43.39271767996251583099365234375</LatitudeDegrees>
              <LongitudeDegrees>-4.57720586098730564117431640625</LongitudeDegrees>
            </Position>
            <AltitudeMeters>4.599999904632568359375</AltitudeMeters>
            <DistanceMeters>NAN</DistanceMeters>
          </Trackpoint>
          <Trackpoint>
            <Time>2022-07-15T10:50:03.000Z</Time>
            <Position>
              <LatitudeDegrees>43.39272857643663883209228515625</LatitudeDegrees>
              <LongitudeDegrees>-4.577185995876789093017578125</LongitudeDegrees>
            </Position>
            <AltitudeMeters>4.80000019073486328125</AltitudeMeters>
            <DistanceMeters>NAN</DistanceMeters>
          </Trackpoint>
          <Trackpoint>
            <Time>2022-07-15T10:50:04.000Z</Time>
            <Position>
              <LatitudeDegrees>43.39272857643663883209228515625</LatitudeDegrees>
              <LongitudeDegrees>-4.577185995876789093017578125</LongitudeDegrees>
            </Position>
            <AltitudeMeters>4.80000019073486328125</AltitudeMeters>
            <DistanceMeters>NAN</DistanceMeters>
          </Trackpoint>
          <Trackpoint>
            <Time>2022-07-15T10:52:57.000Z</Time>
            <Position>
              <LatitudeDegrees>43.392726145684719085693359375</LatitudeDegrees>
              <LongitudeDegrees>-4.57715188153088092803955078125</LongitudeDegrees>
            </Position>
            <AltitudeMeters>6.400000095367431640625</AltitudeMeters>
            <DistanceMeters>NAN</DistanceMeters>
          </Trackpoint>
          <Trackpoint>
            <Time>2022-07-15T10:52:59.000Z</Time>
            <Position>
              <LatitudeDegrees>43.39271642267704010009765625</LatitudeDegrees>
              <LongitudeDegrees>-4.57715204916894435882568359375</LongitudeDegrees>
            </Position>
            <AltitudeMeters>6.400000095367431640625</AltitudeMeters>
            <DistanceMeters>NAN</DistanceMeters>
          </Trackpoint>
          <Trackpoint>
            <Time>2022-07-15T10:53:00.000Z</Time>
            <Position>
              <LatitudeDegrees>43.39271642267704010009765625</LatitudeDegrees>
              <LongitudeDegrees>-4.57715204916894435882568359375</LongitudeDegrees>
            </Position>
            <AltitudeMeters>6.19999980926513671875</AltitudeMeters>
            <DistanceMeters>NAN</DistanceMeters>
          </Trackpoint>
          <Trackpoint>
            <Time>2022-07-15T10:57:51.000Z</Time>
            <Position>
              <LatitudeDegrees>43.39271214790642261505126953125</LatitudeDegrees>
              <LongitudeDegrees>-4.57715825177729129791259765625</LongitudeDegrees>
            </Position>
            <AltitudeMeters>8.3999996185302734375</AltitudeMeters>
            <DistanceMeters>NAN</DistanceMeters>
          </Trackpoint>
          <Trackpoint>
            <Time>2022-07-15T10:57:52.000Z</Time>
            <Position>
              <LatitudeDegrees>43.39271214790642261505126953125</LatitudeDegrees>
              <LongitudeDegrees>-4.57715825177729129791259765625</LongitudeDegrees>
            </Position>
            <AltitudeMeters>8.3999996185302734375</AltitudeMeters>
            <DistanceMeters>NAN</DistanceMeters>
          </Trackpoint>
          <Trackpoint>
            <Time>2022-07-15T10:57:53.000Z</Time>
            <Position>
              <LatitudeDegrees>43.39271214790642261505126953125</LatitudeDegrees>
              <LongitudeDegrees>-4.57715825177729129791259765625</LongitudeDegrees>
            </Position>
            <AltitudeMeters>8.3999996185302734375</AltitudeMeters>
            <DistanceMeters>NAN</DistanceMeters>
          </Trackpoint>
          <Trackpoint>
            <Time>2022-07-15T11:11:15.000Z</Time>
            <Position>
              <LatitudeDegrees>43.39254048652946949005126953125</LatitudeDegrees>
              <LongitudeDegrees>-4.57745748572051525115966796875</LongitudeDegrees>
            </Position>
            <AltitudeMeters>10.3999996185302734375</AltitudeMeters>
            <DistanceMeters>NAN</DistanceMeters>
          </Trackpoint>
          <Trackpoint>
            <Time>2022-07-15T11:11:16.000Z</Time>
            <Position>
              <LatitudeDegrees>43.392522968351840972900390625</LatitudeDegrees>
              <LongitudeDegrees>-4.5774686336517333984375</LongitudeDegrees>
            </Position>
            <AltitudeMeters>10.19999980926513671875</AltitudeMeters>
            <DistanceMeters>NAN</DistanceMeters>
          </Trackpoint>
          <Trackpoint>
            <Time>2022-07-15T11:11:17.000Z</Time>
            <Position>
              <LatitudeDegrees>43.392500840127468109130859375</LatitudeDegrees>
              <LongitudeDegrees>-4.57748078741133213043212890625</LongitudeDegrees>
            </Position>
            <AltitudeMeters>10.19999980926513671875</AltitudeMeters>
            <DistanceMeters>NAN</DistanceMeters>
          </Trackpoint>
          <Trackpoint>
            <Time>2022-07-15T11:11:24.000Z</Time>
            <Position>
              <LatitudeDegrees>43.39242783375084400177001953125</LatitudeDegrees>
              <LongitudeDegrees>-4.5775777660310268402099609375</LongitudeDegrees>
            </Position>
            <AltitudeMeters>10.80000019073486328125</AltitudeMeters>
            <DistanceMeters>NAN</DistanceMeters>
          </Trackpoint>
          <Trackpoint>
            <Time>2022-07-15T11:11:30.000Z</Time>
            <Position>
              <LatitudeDegrees>43.39244225062429904937744140625</LatitudeDegrees>
              <LongitudeDegrees>-4.577673487365245819091796875</LongitudeDegrees>
            </Position>
            <AltitudeMeters>11</AltitudeMeters>
            <DistanceMeters>NAN</DistanceMeters>
          </Trackpoint>
          <Trackpoint>
            <Time>2022-07-15T11:11:35.000Z</Time>
            <Position>
              <LatitudeDegrees>43.392456583678722381591796875</LatitudeDegrees>
              <LongitudeDegrees>-4.57774615846574306488037109375</LongitudeDegrees>
            </Position>
            <AltitudeMeters>11.3999996185302734375</AltitudeMeters>
            <DistanceMeters>NAN</DistanceMeters>
          </Trackpoint>
          <Trackpoint>
            <Time>2022-07-15T11:11:37.000Z</Time>
            <Position>
              <LatitudeDegrees>43.39246337302029132843017578125</LatitudeDegrees>
              <LongitudeDegrees>-4.5777749083936214447021484375</LongitudeDegrees>
            </Position>
            <AltitudeMeters>11.80000019073486328125</AltitudeMeters>
            <DistanceMeters>NAN</DistanceMeters>
          </Trackpoint>
          <Trackpoint>
            <Time>2022-07-15T11:11:46.000Z</Time>
            <Position>
              <LatitudeDegrees>43.3925030194222927093505859375</LatitudeDegrees>
              <LongitudeDegrees>-4.57792184315621852874755859375</LongitudeDegrees>
            </Position>
            <AltitudeMeters>12.6000003814697265625</AltitudeMeters>
            <DistanceMeters>NAN</DistanceMeters>
          </Trackpoint>
          <Trackpoint>
            <Time>2022-07-15T11:11:52.000Z</Time>
            <Position>
              <LatitudeDegrees>43.39249312877655029296875</LatitudeDegrees>
              <LongitudeDegrees>-4.5780112780630588531494140625</LongitudeDegrees>
            </Position>
            <AltitudeMeters>13.6000003814697265625</AltitudeMeters>
            <DistanceMeters>NAN</DistanceMeters>
          </Trackpoint>
          <Trackpoint>
            <Time>2022-07-15T11:11:54.000Z</Time>
            <Position>
              <LatitudeDegrees>43.39248902164399623870849609375</LatitudeDegrees>
              <LongitudeDegrees>-4.578039608895778656005859375</LongitudeDegrees>
            </Position>
            <AltitudeMeters>14</AltitudeMeters>
            <DistanceMeters>NAN</DistanceMeters>
          </Trackpoint>
          <Trackpoint>
            <Time>2022-07-15T11:11:58.000Z</Time>
            <Position>
              <LatitudeDegrees>43.3924835734069347381591796875</LatitudeDegrees>
              <LongitudeDegrees>-4.578093588352203369140625</LongitudeDegrees>
            </Position>
            <AltitudeMeters>15</AltitudeMeters>
            <DistanceMeters>NAN</DistanceMeters>
          </Trackpoint>
          <Trackpoint>
            <Time>2022-07-15T11:12:03.000Z</Time>
            <Position>
              <LatitudeDegrees>43.3924567513167858123779296875</LatitudeDegrees>
              <LongitudeDegrees>-4.57815636880695819854736328125</LongitudeDegrees>
            </Position>
            <AltitudeMeters>15.80000019073486328125</AltitudeMeters>
            <DistanceMeters>NAN</DistanceMeters>
          </Trackpoint>
          <Trackpoint>
            <Time>2022-07-15T11:12:04.000Z</Time>
            <Position>
              <LatitudeDegrees>43.3924530632793903350830078125</LatitudeDegrees>
              <LongitudeDegrees>-4.5781715400516986846923828125</LongitudeDegrees>
            </Position>
            <AltitudeMeters>16</AltitudeMeters>
            <DistanceMeters>NAN</DistanceMeters>
          </Trackpoint>
          <Trackpoint>
            <Time>2022-07-15T11:12:05.000Z</Time>
            <Position>
              <LatitudeDegrees>43.39244778268039226531982421875</LatitudeDegrees>
              <LongitudeDegrees>-4.57818034105002880096435546875</LongitudeDegrees>
            </Position>
            <AltitudeMeters>16</AltitudeMeters>
            <DistanceMeters>NAN</DistanceMeters>
          </Trackpoint>
          <Trackpoint>
            <Time>2022-07-15T11:12:07.000Z</Time>
            <Position>
              <LatitudeDegrees>43.392433114349842071533203125</LatitudeDegrees>
              <LongitudeDegrees>-4.5781916566193103790283203125</LongitudeDegrees>
            </Position>
            <AltitudeMeters>16</AltitudeMeters>
            <DistanceMeters>NAN</DistanceMeters>
          </Trackpoint>
          <Trackpoint>
            <Time>2022-07-15T11:12:12.000Z</Time>
            <Position>
              <LatitudeDegrees>43.3923682384192943572998046875</LatitudeDegrees>
              <LongitudeDegrees>-4.57823683507740497589111328125</LongitudeDegrees>
            </Position>
            <AltitudeMeters>16.3999996185302734375</AltitudeMeters>
            <DistanceMeters>NAN</DistanceMeters>
          </Trackpoint>
          <Trackpoint>
            <Time>2022-07-15T11:12:19.000Z</Time>
            <Position>
              <LatitudeDegrees>43.39227712713181972503662109375</LatitudeDegrees>
              <LongitudeDegrees>-4.57841210067272186279296875</LongitudeDegrees>
            </Position>
            <AltitudeMeters>16.200000762939453125</AltitudeMeters>
            <DistanceMeters>NAN</DistanceMeters>
          </Trackpoint>
          <Trackpoint>
            <Time>2022-07-15T11:12:24.000Z</Time>
            <Position>
              <LatitudeDegrees>43.39209926314651966094970703125</LatitudeDegrees>
              <LongitudeDegrees>-4.57856188528239727020263671875</LongitudeDegrees>
            </Position>
            <AltitudeMeters>15.19999980926513671875</AltitudeMeters>
            <DistanceMeters>NAN</DistanceMeters>
          </Trackpoint>
          <Trackpoint>
            <Time>2022-07-15T11:12:25.000Z</Time>
            <Position>
              <LatitudeDegrees>43.39205215685069561004638671875</LatitudeDegrees>
              <LongitudeDegrees>-4.57859516143798828125</LongitudeDegrees>
            </Position>
            <AltitudeMeters>15</AltitudeMeters>
            <DistanceMeters>NAN</DistanceMeters>
          </Trackpoint>
          <Trackpoint>
            <Time>2022-07-15T11:12:29.000Z</Time>
            <Position>
              <LatitudeDegrees>43.39182919822633266448974609375</LatitudeDegrees>
              <LongitudeDegrees>-4.57871912978589534759521484375</LongitudeDegrees>
            </Position>
            <AltitudeMeters>14</AltitudeMeters>
            <DistanceMeters>NAN</DistanceMeters>
          </Trackpoint>
          <Trackpoint>
            <Time>2022-07-15T11:12:32.000Z</Time>
            <Position>
              <LatitudeDegrees>43.391641192138195037841796875</LatitudeDegrees>
              <LongitudeDegrees>-4.57878501154482364654541015625</LongitudeDegrees>
            </Position>
            <AltitudeMeters>12.80000019073486328125</AltitudeMeters>
            <DistanceMeters>NAN</DistanceMeters>
          </Trackpoint>
          <Trackpoint>
            <Time>2022-07-15T11:12:34.000Z</Time>
            <Position>
              <LatitudeDegrees>43.39149643667042255401611328125</LatitudeDegrees>
              <LongitudeDegrees>-4.57883379422128200531005859375</LongitudeDegrees>
            </Position>
            <AltitudeMeters>12.19999980926513671875</AltitudeMeters>
            <DistanceMeters>NAN</DistanceMeters>
          </Trackpoint>
          <Trackpoint>
            <Time>2022-07-15T11:12:37.000Z</Time>
            <Position>
              <LatitudeDegrees>43.39129946194589138031005859375</LatitudeDegrees>
              <LongitudeDegrees>-4.57890621386468410491943359375</LongitudeDegrees>
            </Position>
            <AltitudeMeters>11.80000019073486328125</AltitudeMeters>
            <DistanceMeters>NAN</DistanceMeters>
          </Trackpoint>
          <Trackpoint>
            <Time>2022-07-15T11:12:38.000Z</Time>
            <Position>
              <LatitudeDegrees>43.39123860932886600494384765625</LatitudeDegrees>
              <LongitudeDegrees>-4.5789460279047489166259765625</LongitudeDegrees>
            </Position>
            <AltitudeMeters>11.6000003814697265625</AltitudeMeters>
            <DistanceMeters>NAN</DistanceMeters>
          </Trackpoint>
          <Trackpoint>
            <Time>2022-07-15T11:12:39.000Z</Time>
            <Position>
              <LatitudeDegrees>43.3911853842437267303466796875</LatitudeDegrees>
              <LongitudeDegrees>-4.57899321801960468292236328125</LongitudeDegrees>
            </Position>
            <AltitudeMeters>11.6000003814697265625</AltitudeMeters>
            <DistanceMeters>NAN</DistanceMeters>
          </Trackpoint>
          <Trackpoint>
            <Time>2022-07-15T11:12:41.000Z</Time>
            <Position>
              <LatitudeDegrees>43.3910831250250339508056640625</LatitudeDegrees>
              <LongitudeDegrees>-4.57911760546267032623291015625</LongitudeDegrees>
            </Position>
            <AltitudeMeters>11.6000003814697265625</AltitudeMeters>
            <DistanceMeters>NAN</DistanceMeters>
          </Trackpoint>
          <Trackpoint>
            <Time>2022-07-15T11:12:43.000Z</Time>
            <Position>
              <LatitudeDegrees>43.39101330377161502838134765625</LatitudeDegrees>
              <LongitudeDegrees>-4.57922657020390033721923828125</LongitudeDegrees>
            </Position>
            <AltitudeMeters>11.6000003814697265625</AltitudeMeters>
            <DistanceMeters>NAN</DistanceMeters>
          </Trackpoint>
          <Trackpoint>
            <Time>2022-07-15T11:12:44.000Z</Time>
            <Position>
              <LatitudeDegrees>43.39096787385642528533935546875</LatitudeDegrees>
              <LongitudeDegrees>-4.57930033095180988311767578125</LongitudeDegrees>
            </Position>
            <AltitudeMeters>11.6000003814697265625</AltitudeMeters>
            <DistanceMeters>NAN</DistanceMeters>
          </Trackpoint>
          <Trackpoint>
            <Time>2022-07-15T11:12:47.000Z</Time>
            <Position>
              <LatitudeDegrees>43.3908792771399021148681640625</LatitudeDegrees>
              <LongitudeDegrees>-4.57946880720555782318115234375</LongitudeDegrees>
            </Position>
            <AltitudeMeters>11</AltitudeMeters>
            <DistanceMeters>NAN</DistanceMeters>
          </Trackpoint>
          <Trackpoint>
            <Time>2022-07-15T11:12:50.000Z</Time>
            <Position>
              <LatitudeDegrees>43.3907810412347316741943359375</LatitudeDegrees>
              <LongitudeDegrees>-4.5796192623674869537353515625</LongitudeDegrees>
            </Position>
            <AltitudeMeters>10.6000003814697265625</AltitudeMeters>
            <DistanceMeters>NAN</DistanceMeters>
          </Trackpoint>
          <Trackpoint>
            <Time>2022-07-15T11:12:53.000Z</Time>
            <Position>
              <LatitudeDegrees>43.39070518501102924346923828125</LatitudeDegrees>
              <LongitudeDegrees>-4.5797570608556270599365234375</LongitudeDegrees>
            </Position>
            <AltitudeMeters>10</AltitudeMeters>
            <DistanceMeters>NAN</DistanceMeters>
          </Trackpoint>
          <Trackpoint>
            <Time>2022-07-15T11:12:55.000Z</Time>
            <Position>
              <LatitudeDegrees>43.39065908454358577728271484375</LatitudeDegrees>
              <LongitudeDegrees>-4.5798311568796634674072265625</LongitudeDegrees>
            </Position>
            <AltitudeMeters>9.3999996185302734375</AltitudeMeters>
            <DistanceMeters>NAN</DistanceMeters>
          </Trackpoint>
          <Trackpoint>
            <Time>2022-07-15T11:13:00.000Z</Time>
            <Position>
              <LatitudeDegrees>43.39053981006145477294921875</LatitudeDegrees>
              <LongitudeDegrees>-4.5799528621137142181396484375</LongitudeDegrees>
            </Position>
            <AltitudeMeters>8.3999996185302734375</AltitudeMeters>
            <DistanceMeters>NAN</DistanceMeters>
          </Trackpoint>
          <Trackpoint>
            <Time>2022-07-15T11:13:04.000Z</Time>
            <Position>
              <LatitudeDegrees>43.39044199325144290924072265625</LatitudeDegrees>
              <LongitudeDegrees>-4.579925537109375</LongitudeDegrees>
            </Position>
            <AltitudeMeters>8.3999996185302734375</AltitudeMeters>
            <DistanceMeters>NAN</DistanceMeters>
          </Trackpoint>
          <Trackpoint>
            <Time>2022-07-15T11:13:10.000Z</Time>
            <Position>
              <LatitudeDegrees>43.3903636224567890167236328125</LatitudeDegrees>
              <LongitudeDegrees>-4.5798438973724842071533203125</LongitudeDegrees>
            </Position>
            <AltitudeMeters>9.3999996185302734375</AltitudeMeters>
            <DistanceMeters>NAN</DistanceMeters>
          </Trackpoint>
          <Trackpoint>
            <Time>2022-07-15T11:13:11.000Z</Time>
            <Position>
              <LatitudeDegrees>43.39035800658166408538818359375</LatitudeDegrees>
              <LongitudeDegrees>-4.57982973195612430572509765625</LongitudeDegrees>
            </Position>
            <AltitudeMeters>9.3999996185302734375</AltitudeMeters>
            <DistanceMeters>NAN</DistanceMeters>
          </Trackpoint>
          <Trackpoint>
            <Time>2022-07-15T11:13:13.000Z</Time>
            <Position>
              <LatitudeDegrees>43.3903391472995281219482421875</LatitudeDegrees>
              <LongitudeDegrees>-4.579801149666309356689453125</LongitudeDegrees>
            </Position>
            <AltitudeMeters>9.80000019073486328125</AltitudeMeters>
            <DistanceMeters>NAN</DistanceMeters>
          </Trackpoint>
          <Trackpoint>
            <Time>2022-07-15T11:13:14.000Z</Time>
            <Position>
              <LatitudeDegrees>43.39031425304710865020751953125</LatitudeDegrees>
              <LongitudeDegrees>-4.57979586906731128692626953125</LongitudeDegrees>
            </Position>
            <AltitudeMeters>10</AltitudeMeters>
            <DistanceMeters>NAN</DistanceMeters>
          </Trackpoint>
          <Trackpoint>
            <Time>2022-07-15T11:13:18.000Z</Time>
            <Position>
              <LatitudeDegrees>43.39022004045546054840087890625</LatitudeDegrees>
              <LongitudeDegrees>-4.5797590725123882293701171875</LongitudeDegrees>
            </Position>
            <AltitudeMeters>10.3999996185302734375</AltitudeMeters>
            <DistanceMeters>NAN</DistanceMeters>
          </Trackpoint>
          <Trackpoint>
            <Time>2022-07-15T11:13:19.000Z</Time>
            <Position>
              <LatitudeDegrees>43.3902073837816715240478515625</LatitudeDegrees>
              <LongitudeDegrees>-4.579744823276996612548828125</LongitudeDegrees>
            </Position>
            <AltitudeMeters>10.6000003814697265625</AltitudeMeters>
            <DistanceMeters>NAN</DistanceMeters>
          </Trackpoint>
          <Trackpoint>
            <Time>2022-07-15T11:13:21.000Z</Time>
            <Position>
              <LatitudeDegrees>43.3901797235012054443359375</LatitudeDegrees>
              <LongitudeDegrees>-4.57972780801355838775634765625</LongitudeDegrees>
            </Position>
            <AltitudeMeters>10.80000019073486328125</AltitudeMeters>
            <DistanceMeters>NAN</DistanceMeters>
          </Trackpoint>
          <Trackpoint>
            <Time>2022-07-15T11:13:24.000Z</Time>
            <Position>
              <LatitudeDegrees>43.390135131776332855224609375</LatitudeDegrees>
              <LongitudeDegrees>-4.57972194068133831024169921875</LongitudeDegrees>
            </Position>
            <AltitudeMeters>11.19999980926513671875</AltitudeMeters>
            <DistanceMeters>NAN</DistanceMeters>
          </Trackpoint>
          <Trackpoint>
            <Time>2022-07-15T11:13:25.000Z</Time>
            <Position>
              <LatitudeDegrees>43.39012029580771923065185546875</LatitudeDegrees>
              <LongitudeDegrees>-4.57972076721489429473876953125</LongitudeDegrees>
            </Position>
            <AltitudeMeters>11.3999996185302734375</AltitudeMeters>
            <DistanceMeters>NAN</DistanceMeters>
          </Trackpoint>
          <Trackpoint>
            <Time>2022-07-15T11:13:28.000Z</Time>
            <Position>
              <LatitudeDegrees>43.390074111521244049072265625</LatitudeDegrees>
              <LongitudeDegrees>-4.5797426439821720123291015625</LongitudeDegrees>
            </Position>
            <AltitudeMeters>12.19999980926513671875</AltitudeMeters>
            <DistanceMeters>NAN</DistanceMeters>
          </Trackpoint>
          <Trackpoint>
            <Time>2022-07-15T11:13:30.000Z</Time>
            <Position>
              <LatitudeDegrees>43.39005835354328155517578125</LatitudeDegrees>
              <LongitudeDegrees>-4.57977860234677791595458984375</LongitudeDegrees>
            </Position>
            <AltitudeMeters>12.6000003814697265625</AltitudeMeters>
            <DistanceMeters>NAN</DistanceMeters>
          </Trackpoint>
          <Trackpoint>
            <Time>2022-07-15T11:13:31.000Z</Time>
            <Position>
              <LatitudeDegrees>43.39005357585847377777099609375</LatitudeDegrees>
              <LongitudeDegrees>-4.57980391569435596466064453125</LongitudeDegrees>
            </Position>
            <AltitudeMeters>12.80000019073486328125</AltitudeMeters>
            <DistanceMeters>NAN</DistanceMeters>
          </Trackpoint>
          <Trackpoint>
            <Time>2022-07-15T11:13:35.000Z</Time>
            <Position>
              <LatitudeDegrees>43.3900776319205760955810546875</LatitudeDegrees>
              <LongitudeDegrees>-4.57988304086029529571533203125</LongitudeDegrees>
            </Position>
            <AltitudeMeters>13</AltitudeMeters>
            <DistanceMeters>NAN</DistanceMeters>
          </Trackpoint>
          <Trackpoint>
            <Time>2022-07-15T11:13:39.000Z</Time>
            <Position>
              <LatitudeDegrees>43.3901239000260829925537109375</LatitudeDegrees>
              <LongitudeDegrees>-4.57994498312473297119140625</LongitudeDegrees>
            </Position>
            <AltitudeMeters>13.3999996185302734375</AltitudeMeters>
            <DistanceMeters>NAN</DistanceMeters>
          </Trackpoint>
          <Trackpoint>
            <Time>2022-07-15T11:13:41.000Z</Time>
            <Position>
              <LatitudeDegrees>43.39014845900237560272216796875</LatitudeDegrees>
              <LongitudeDegrees>-4.5799686200916767120361328125</LongitudeDegrees>
            </Position>
            <AltitudeMeters>13.6000003814697265625</AltitudeMeters>
            <DistanceMeters>NAN</DistanceMeters>
          </Trackpoint>
          <Trackpoint>
            <Time>2022-07-15T11:13:42.000Z</Time>
            <Position>
              <LatitudeDegrees>43.39017561636865139007568359375</LatitudeDegrees>
              <LongitudeDegrees>-4.57997842691838741302490234375</LongitudeDegrees>
            </Position>
            <AltitudeMeters>13.80000019073486328125</AltitudeMeters>
            <DistanceMeters>NAN</DistanceMeters>
          </Trackpoint>
          <Trackpoint>
            <Time>2022-07-15T11:13:44.000Z</Time>
            <Position>
              <LatitudeDegrees>43.39018173515796661376953125</LatitudeDegrees>
              <LongitudeDegrees>-4.58000960759818553924560546875</LongitudeDegrees>
            </Position>
            <AltitudeMeters>14</AltitudeMeters>
            <DistanceMeters>NAN</DistanceMeters>
          </Trackpoint>
          <Trackpoint>
            <Time>2022-07-15T11:13:46.000Z</Time>
            <Position>
              <LatitudeDegrees>43.390186764299869537353515625</LatitudeDegrees>
              <LongitudeDegrees>-4.5800373516976833343505859375</LongitudeDegrees>
            </Position>
            <AltitudeMeters>14.3999996185302734375</AltitudeMeters>
            <DistanceMeters>NAN</DistanceMeters>
          </Trackpoint>
          <Trackpoint>
            <Time>2022-07-15T11:13:49.000Z</Time>
            <Position>
              <LatitudeDegrees>43.39015868492424488067626953125</LatitudeDegrees>
              <LongitudeDegrees>-4.58007632754743099212646484375</LongitudeDegrees>
            </Position>
            <AltitudeMeters>14.80000019073486328125</AltitudeMeters>
            <DistanceMeters>NAN</DistanceMeters>
          </Trackpoint>
          <Trackpoint>
            <Time>2022-07-15T11:13:51.000Z</Time>
            <Position>
              <LatitudeDegrees>43.390138149261474609375</LatitudeDegrees>
              <LongitudeDegrees>-4.58009979687631130218505859375</LongitudeDegrees>
            </Position>
            <AltitudeMeters>14.80000019073486328125</AltitudeMeters>
            <DistanceMeters>NAN</DistanceMeters>
          </Trackpoint>
          <Trackpoint>
            <Time>2022-07-15T11:13:55.000Z</Time>
            <Position>
              <LatitudeDegrees>43.3900907076895236968994140625</LatitudeDegrees>
              <LongitudeDegrees>-4.58012091927230358123779296875</LongitudeDegrees>
            </Position>
            <AltitudeMeters>14.6000003814697265625</AltitudeMeters>
            <DistanceMeters>NAN</DistanceMeters>
          </Trackpoint>
          <Trackpoint>
            <Time>2022-07-15T11:13:56.000Z</Time>
            <Position>
              <LatitudeDegrees>43.39007553644478321075439453125</LatitudeDegrees>
              <LongitudeDegrees>-4.5801241882145404815673828125</LongitudeDegrees>
            </Position>
            <AltitudeMeters>14.6000003814697265625</AltitudeMeters>
            <DistanceMeters>NAN</DistanceMeters>
          </Trackpoint>
          <Trackpoint>
            <Time>2022-07-15T11:14:00.000Z</Time>
            <Position>
              <LatitudeDegrees>43.3900456130504608154296875</LatitudeDegrees>
              <LongitudeDegrees>-4.58011253736913204193115234375</LongitudeDegrees>
            </Position>
            <AltitudeMeters>14.6000003814697265625</AltitudeMeters>
            <DistanceMeters>NAN</DistanceMeters>
          </Trackpoint>
          <Trackpoint>
            <Time>2022-07-15T11:14:01.000Z</Time>
            <Position>
              <LatitudeDegrees>43.39002910070121288299560546875</LatitudeDegrees>
              <LongitudeDegrees>-4.580098874866962432861328125</LongitudeDegrees>
            </Position>
            <AltitudeMeters>14.6000003814697265625</AltitudeMeters>
            <DistanceMeters>NAN</DistanceMeters>
          </Trackpoint>
          <Trackpoint>
            <Time>2022-07-15T11:14:09.000Z</Time>
            <Position>
              <LatitudeDegrees>43.389904797077178955078125</LatitudeDegrees>
              <LongitudeDegrees>-4.5799847133457660675048828125</LongitudeDegrees>
            </Position>
            <AltitudeMeters>14.80000019073486328125</AltitudeMeters>
            <DistanceMeters>NAN</DistanceMeters>
          </Trackpoint>
          <Trackpoint>
            <Time>2022-07-15T11:14:12.000Z</Time>
            <Position>
              <LatitudeDegrees>43.38983145542442798614501953125</LatitudeDegrees>
              <LongitudeDegrees>-4.57991539500653743743896484375</LongitudeDegrees>
            </Position>
            <AltitudeMeters>15.19999980926513671875</AltitudeMeters>
            <DistanceMeters>NAN</DistanceMeters>
          </Trackpoint>
          <Trackpoint>
            <Time>2022-07-15T11:14:14.000Z</Time>
            <Position>
              <LatitudeDegrees>43.3898040466010570526123046875</LatitudeDegrees>
              <LongitudeDegrees>-4.5798878185451030731201171875</LongitudeDegrees>
            </Position>
            <AltitudeMeters>15.3999996185302734375</AltitudeMeters>
            <DistanceMeters>NAN</DistanceMeters>
          </Trackpoint>
          <Trackpoint>
            <Time>2022-07-15T11:14:15.000Z</Time>
            <Position>
              <LatitudeDegrees>43.389799855649471282958984375</LatitudeDegrees>
              <LongitudeDegrees>-4.57987281493842601776123046875</LongitudeDegrees>
            </Position>
            <AltitudeMeters>15.6000003814697265625</AltitudeMeters>
            <DistanceMeters>NAN</DistanceMeters>
          </Trackpoint>
          <Trackpoint>
            <Time>2022-07-15T11:14:17.000Z</Time>
            <Position>
              <LatitudeDegrees>43.3898120932281017303466796875</LatitudeDegrees>
              <LongitudeDegrees>-4.57982487045228481292724609375</LongitudeDegrees>
            </Position>
            <AltitudeMeters>15.80000019073486328125</AltitudeMeters>
            <DistanceMeters>NAN</DistanceMeters>
          </Trackpoint>
          <Trackpoint>
            <Time>2022-07-15T11:14:23.000Z</Time>
            <Position>
              <LatitudeDegrees>43.38982743211090564727783203125</LatitudeDegrees>
              <LongitudeDegrees>-4.57969897426664829254150390625</LongitudeDegrees>
            </Position>
            <AltitudeMeters>16.3999996185302734375</AltitudeMeters>
            <DistanceMeters>NAN</DistanceMeters>
          </Trackpoint>
          <Trackpoint>
            <Time>2022-07-15T11:14:25.000Z</Time>
            <Position>
              <LatitudeDegrees>43.38981804437935352325439453125</LatitudeDegrees>
              <LongitudeDegrees>-4.5796534605324268341064453125</LongitudeDegrees>
            </Position>
            <AltitudeMeters>16.6000003814697265625</AltitudeMeters>
            <DistanceMeters>NAN</DistanceMeters>
          </Trackpoint>
          <Trackpoint>
            <Time>2022-07-15T11:14:27.000Z</Time>
            <Position>
              <LatitudeDegrees>43.3897943235933780670166015625</LatitudeDegrees>
              <LongitudeDegrees>-4.57960610277950763702392578125</LongitudeDegrees>
            </Position>
            <AltitudeMeters>16.799999237060546875</AltitudeMeters>
            <DistanceMeters>NAN</DistanceMeters>
          </Trackpoint>
          <Trackpoint>
            <Time>2022-07-15T11:14:28.000Z</Time>
            <Position>
              <LatitudeDegrees>43.389775045216083526611328125</LatitudeDegrees>
              <LongitudeDegrees>-4.579573161900043487548828125</LongitudeDegrees>
            </Position>
            <AltitudeMeters>17</AltitudeMeters>
            <DistanceMeters>NAN</DistanceMeters>
          </Trackpoint>
          <Trackpoint>
            <Time>2022-07-15T11:14:29.000Z</Time>
            <Position>
              <LatitudeDegrees>43.3897866122424602508544921875</LatitudeDegrees>
              <LongitudeDegrees>-4.57953904755413532257080078125</LongitudeDegrees>
            </Position>
            <AltitudeMeters>17.200000762939453125</AltitudeMeters>
            <DistanceMeters>NAN</DistanceMeters>
          </Trackpoint>
          <Trackpoint>
            <Time>2022-07-15T11:14:32.000Z</Time>
            <Position>
              <LatitudeDegrees>43.3897634781897068023681640625</LatitudeDegrees>
              <LongitudeDegrees>-4.57945237867534160614013671875</LongitudeDegrees>
            </Position>
            <AltitudeMeters>17.3999996185302734375</AltitudeMeters>
            <DistanceMeters>NAN</DistanceMeters>
          </Trackpoint>
          <Trackpoint>
            <Time>2022-07-15T11:14:34.000Z</Time>
            <Position>
              <LatitudeDegrees>43.389740176498889923095703125</LatitudeDegrees>
              <LongitudeDegrees>-4.57939806394279003143310546875</LongitudeDegrees>
            </Position>
            <AltitudeMeters>17.6000003814697265625</AltitudeMeters>
            <DistanceMeters>NAN</DistanceMeters>
          </Trackpoint>
          <Trackpoint>
            <Time>2022-07-15T11:14:37.000Z</Time>
            <Position>
              <LatitudeDegrees>43.3897229097783565521240234375</LatitudeDegrees>
              <LongitudeDegrees>-4.57933469675481319427490234375</LongitudeDegrees>
            </Position>
            <AltitudeMeters>17.799999237060546875</AltitudeMeters>
            <DistanceMeters>NAN</DistanceMeters>
          </Trackpoint>
          <Trackpoint>
            <Time>2022-07-15T11:14:40.000Z</Time>
            <Position>
              <LatitudeDegrees>43.3897182159125804901123046875</LatitudeDegrees>
              <LongitudeDegrees>-4.57925691269338130950927734375</LongitudeDegrees>
            </Position>
            <AltitudeMeters>17.799999237060546875</AltitudeMeters>
            <DistanceMeters>NAN</DistanceMeters>
          </Trackpoint>
          <Trackpoint>
            <Time>2022-07-15T11:14:41.000Z</Time>
            <Position>
              <LatitudeDegrees>43.38971997611224651336669921875</LatitudeDegrees>
              <LongitudeDegrees>-4.57923419773578643798828125</LongitudeDegrees>
            </Position>
            <AltitudeMeters>17.799999237060546875</AltitudeMeters>
            <DistanceMeters>NAN</DistanceMeters>
          </Trackpoint>
          <Trackpoint>
            <Time>2022-07-15T11:14:43.000Z</Time>
            <Position>
              <LatitudeDegrees>43.38973112404346466064453125</LatitudeDegrees>
              <LongitudeDegrees>-4.57919153384864330291748046875</LongitudeDegrees>
            </Position>
            <AltitudeMeters>18</AltitudeMeters>
            <DistanceMeters>NAN</DistanceMeters>
          </Trackpoint>
          <Trackpoint>
            <Time>2022-07-15T11:14:48.000Z</Time>
            <Position>
              <LatitudeDegrees>43.38984151370823383331298828125</LatitudeDegrees>
              <LongitudeDegrees>-4.5791176892817020416259765625</LongitudeDegrees>
            </Position>
            <AltitudeMeters>18</AltitudeMeters>
            <DistanceMeters>NAN</DistanceMeters>
          </Trackpoint>
          <Trackpoint>
            <Time>2022-07-15T11:14:53.000Z</Time>
            <Position>
              <LatitudeDegrees>43.389957435429096221923828125</LatitudeDegrees>
              <LongitudeDegrees>-4.57913302816450595855712890625</LongitudeDegrees>
            </Position>
            <AltitudeMeters>17.799999237060546875</AltitudeMeters>
            <DistanceMeters>NAN</DistanceMeters>
          </Trackpoint>
          <Trackpoint>
            <Time>2022-07-15T11:14:55.000Z</Time>
            <Position>
              <LatitudeDegrees>43.3900199644267559051513671875</LatitudeDegrees>
              <LongitudeDegrees>-4.57917342893779277801513671875</LongitudeDegrees>
            </Position>
            <AltitudeMeters>17.6000003814697265625</AltitudeMeters>
            <DistanceMeters>NAN</DistanceMeters>
          </Trackpoint>
          <Trackpoint>
            <Time>2022-07-15T11:14:59.000Z</Time>
            <Position>
              <LatitudeDegrees>43.39015399105846881866455078125</LatitudeDegrees>
              <LongitudeDegrees>-4.57926596514880657196044921875</LongitudeDegrees>
            </Position>
            <AltitudeMeters>17.3999996185302734375</AltitudeMeters>
            <DistanceMeters>NAN</DistanceMeters>
          </Trackpoint>
          <Trackpoint>
            <Time>2022-07-15T11:15:06.000Z</Time>
            <Position>
              <LatitudeDegrees>43.3903756923973560333251953125</LatitudeDegrees>
              <LongitudeDegrees>-4.579475261270999908447265625</LongitudeDegrees>
            </Position>
            <AltitudeMeters>17.3999996185302734375</AltitudeMeters>
            <DistanceMeters>NAN</DistanceMeters>
          </Trackpoint>
          <Trackpoint>
            <Time>2022-07-15T11:15:14.000Z</Time>
            <Position>
              <LatitudeDegrees>43.39060694910585880279541015625</LatitudeDegrees>
              <LongitudeDegrees>-4.57977223210036754608154296875</LongitudeDegrees>
            </Position>
            <AltitudeMeters>17.3999996185302734375</AltitudeMeters>
            <DistanceMeters>NAN</DistanceMeters>
          </Trackpoint>
          <Trackpoint>
            <Time>2022-07-15T11:15:19.000Z</Time>
            <Position>
              <LatitudeDegrees>43.39072010479867458343505859375</LatitudeDegrees>
              <LongitudeDegrees>-4.57996753044426441192626953125</LongitudeDegrees>
            </Position>
            <AltitudeMeters>19.3999996185302734375</AltitudeMeters>
            <DistanceMeters>NAN</DistanceMeters>
          </Trackpoint>
          <Trackpoint>
            <Time>2022-07-15T11:15:20.000Z</Time>
            <Position>
              <LatitudeDegrees>43.3907421492040157318115234375</LatitudeDegrees>
              <LongitudeDegrees>-4.5800058357417583465576171875</LongitudeDegrees>
            </Position>
            <AltitudeMeters>19.6000003814697265625</AltitudeMeters>
            <DistanceMeters>NAN</DistanceMeters>
          </Trackpoint>
          <Trackpoint>
            <Time>2022-07-15T11:15:27.000Z</Time>
            <Position>
              <LatitudeDegrees>43.3908722363412380218505859375</LatitudeDegrees>
              <LongitudeDegrees>-4.5802556164562702178955078125</LongitudeDegrees>
            </Position>
            <AltitudeMeters>19.200000762939453125</AltitudeMeters>
            <DistanceMeters>NAN</DistanceMeters>
          </Trackpoint>
          <Trackpoint>
            <Time>2022-07-15T11:15:29.000Z</Time>
            <Position>
              <LatitudeDegrees>43.3909060992300510406494140625</LatitudeDegrees>
              <LongitudeDegrees>-4.5803028903901576995849609375</LongitudeDegrees>
            </Position>
            <AltitudeMeters>18.200000762939453125</AltitudeMeters>
            <DistanceMeters>NAN</DistanceMeters>
          </Trackpoint>
          <Trackpoint>
            <Time>2022-07-15T11:15:34.000Z</Time>
            <Position>
              <LatitudeDegrees>43.39096636511385440826416015625</LatitudeDegrees>
              <LongitudeDegrees>-4.5804199017584323883056640625</LongitudeDegrees>
            </Position>
            <AltitudeMeters>17.799999237060546875</AltitudeMeters>
            <DistanceMeters>NAN</DistanceMeters>
          </Trackpoint>
          <Trackpoint>
            <Time>2022-07-15T11:15:41.000Z</Time>
            <Position>
              <LatitudeDegrees>43.391030989587306976318359375</LatitudeDegrees>
              <LongitudeDegrees>-4.58055024035274982452392578125</LongitudeDegrees>
            </Position>
            <AltitudeMeters>18.799999237060546875</AltitudeMeters>
            <DistanceMeters>NAN</DistanceMeters>
          </Trackpoint>
          <Trackpoint>
            <Time>2022-07-15T11:15:47.000Z</Time>
            <Position>
              <LatitudeDegrees>43.391082622110843658447265625</LatitudeDegrees>
              <LongitudeDegrees>-4.58067588508129119873046875</LongitudeDegrees>
            </Position>
            <AltitudeMeters>19.200000762939453125</AltitudeMeters>
            <DistanceMeters>NAN</DistanceMeters>
          </Trackpoint>
          <Trackpoint>
            <Time>2022-07-15T11:15:49.000Z</Time>
            <Position>
              <LatitudeDegrees>43.3911055885255336761474609375</LatitudeDegrees>
              <LongitudeDegrees>-4.58070228807628154754638671875</LongitudeDegrees>
            </Position>
            <AltitudeMeters>19.3999996185302734375</AltitudeMeters>
            <DistanceMeters>NAN</DistanceMeters>
          </Trackpoint>
          <Trackpoint>
            <Time>2022-07-15T11:15:51.000Z</Time>
            <Position>
              <LatitudeDegrees>43.3911381103098392486572265625</LatitudeDegrees>
              <LongitudeDegrees>-4.58073413930833339691162109375</LongitudeDegrees>
            </Position>
            <AltitudeMeters>19.6000003814697265625</AltitudeMeters>
            <DistanceMeters>NAN</DistanceMeters>
          </Trackpoint>
          <Trackpoint>
            <Time>2022-07-15T11:15:52.000Z</Time>
            <Position>
              <LatitudeDegrees>43.39115261100232601165771484375</LatitudeDegrees>
              <LongitudeDegrees>-4.58075559698045253753662109375</LongitudeDegrees>
            </Position>
            <AltitudeMeters>19.799999237060546875</AltitudeMeters>
            <DistanceMeters>NAN</DistanceMeters>
          </Trackpoint>
          <Trackpoint>
            <Time>2022-07-15T11:15:56.000Z</Time>
            <Position>
              <LatitudeDegrees>43.39119988493621349334716796875</LatitudeDegrees>
              <LongitudeDegrees>-4.58084092475473880767822265625</LongitudeDegrees>
            </Position>
            <AltitudeMeters>20.200000762939453125</AltitudeMeters>
            <DistanceMeters>NAN</DistanceMeters>
          </Trackpoint>
          <Trackpoint>
            <Time>2022-07-15T11:15:58.000Z</Time>
            <Position>
              <LatitudeDegrees>43.3912252821028232574462890625</LatitudeDegrees>
              <LongitudeDegrees>-4.580875374376773834228515625</LongitudeDegrees>
            </Position>
            <AltitudeMeters>20.6000003814697265625</AltitudeMeters>
            <DistanceMeters>NAN</DistanceMeters>
          </Trackpoint>
          <Trackpoint>
            <Time>2022-07-15T11:16:06.000Z</Time>
            <Position>
              <LatitudeDegrees>43.391315639019012451171875</LatitudeDegrees>
              <LongitudeDegrees>-4.58102314732968807220458984375</LongitudeDegrees>
            </Position>
            <AltitudeMeters>21.200000762939453125</AltitudeMeters>
            <DistanceMeters>NAN</DistanceMeters>
          </Trackpoint>
          <Trackpoint>
            <Time>2022-07-15T11:16:07.000Z</Time>
            <Position>
              <LatitudeDegrees>43.39132678695023059844970703125</LatitudeDegrees>
              <LongitudeDegrees>-4.58104393444955348968505859375</LongitudeDegrees>
            </Position>
            <AltitudeMeters>21.200000762939453125</AltitudeMeters>
            <DistanceMeters>NAN</DistanceMeters>
          </Trackpoint>
          <Trackpoint>
            <Time>2022-07-15T11:16:09.000Z</Time>
            <Position>
              <LatitudeDegrees>43.3913412876427173614501953125</LatitudeDegrees>
              <LongitudeDegrees>-4.5810763724148273468017578125</LongitudeDegrees>
            </Position>
            <AltitudeMeters>21.3999996185302734375</AltitudeMeters>
            <DistanceMeters>NAN</DistanceMeters>
          </Trackpoint>
          <Trackpoint>
            <Time>2022-07-15T11:16:16.000Z</Time>
            <Position>
              <LatitudeDegrees>43.39142368175089359283447265625</LatitudeDegrees>
              <LongitudeDegrees>-4.581182487308979034423828125</LongitudeDegrees>
            </Position>
            <AltitudeMeters>22</AltitudeMeters>
            <DistanceMeters>NAN</DistanceMeters>
          </Trackpoint>
          <Trackpoint>
            <Time>2022-07-15T11:16:20.000Z</Time>
            <Position>
              <LatitudeDegrees>43.3914566226303577423095703125</LatitudeDegrees>
              <LongitudeDegrees>-4.5812557451426982879638671875</LongitudeDegrees>
            </Position>
            <AltitudeMeters>22.3999996185302734375</AltitudeMeters>
            <DistanceMeters>NAN</DistanceMeters>
          </Trackpoint>
          <Trackpoint>
            <Time>2022-07-15T11:16:26.000Z</Time>
            <Position>
              <LatitudeDegrees>43.3915169723331928253173828125</LatitudeDegrees>
              <LongitudeDegrees>-4.58135255612432956695556640625</LongitudeDegrees>
            </Position>
            <AltitudeMeters>22.799999237060546875</AltitudeMeters>
            <DistanceMeters>NAN</DistanceMeters>
          </Trackpoint>
          <Trackpoint>
            <Time>2022-07-15T11:16:29.000Z</Time>
            <Position>
              <LatitudeDegrees>43.391538597643375396728515625</LatitudeDegrees>
              <LongitudeDegrees>-4.58141072653234004974365234375</LongitudeDegrees>
            </Position>
            <AltitudeMeters>23</AltitudeMeters>
            <DistanceMeters>NAN</DistanceMeters>
          </Trackpoint>
          <Trackpoint>
            <Time>2022-07-15T11:16:31.000Z</Time>
            <Position>
              <LatitudeDegrees>43.391558043658733367919921875</LatitudeDegrees>
              <LongitudeDegrees>-4.5814431644976139068603515625</LongitudeDegrees>
            </Position>
            <AltitudeMeters>23.200000762939453125</AltitudeMeters>
            <DistanceMeters>NAN</DistanceMeters>
          </Trackpoint>
          <Trackpoint>
            <Time>2022-07-15T11:16:32.000Z</Time>
            <Position>
              <LatitudeDegrees>43.39157019741833209991455078125</LatitudeDegrees>
              <LongitudeDegrees>-4.58145448006689548492431640625</LongitudeDegrees>
            </Position>
            <AltitudeMeters>23.3999996185302734375</AltitudeMeters>
            <DistanceMeters>NAN</DistanceMeters>
          </Trackpoint>
          <Trackpoint>
            <Time>2022-07-15T11:16:36.000Z</Time>
            <Position>
              <LatitudeDegrees>43.3916229195892810821533203125</LatitudeDegrees>
              <LongitudeDegrees>-4.58150125108659267425537109375</LongitudeDegrees>
            </Position>
            <AltitudeMeters>24</AltitudeMeters>
            <DistanceMeters>NAN</DistanceMeters>
          </Trackpoint>
          <Trackpoint>
            <Time>2022-07-15T11:16:38.000Z</Time>
            <Position>
              <LatitudeDegrees>43.39163557626307010650634765625</LatitudeDegrees>
              <LongitudeDegrees>-4.581532515585422515869140625</LongitudeDegrees>
            </Position>
            <AltitudeMeters>24.200000762939453125</AltitudeMeters>
            <DistanceMeters>NAN</DistanceMeters>
          </Trackpoint>
          <Trackpoint>
            <Time>2022-07-15T11:16:39.000Z</Time>
            <Position>
              <LatitudeDegrees>43.39164177887141704559326171875</LatitudeDegrees>
              <LongitudeDegrees>-4.581540562212467193603515625</LongitudeDegrees>
            </Position>
            <AltitudeMeters>24.3999996185302734375</AltitudeMeters>
            <DistanceMeters>NAN</DistanceMeters>
          </Trackpoint>
          <Trackpoint>
            <Time>2022-07-15T11:16:41.000Z</Time>
            <Position>
              <LatitudeDegrees>43.391668684780597686767578125</LatitudeDegrees>
              <LongitudeDegrees>-4.5815588347613811492919921875</LongitudeDegrees>
            </Position>
            <AltitudeMeters>24.6000003814697265625</AltitudeMeters>
            <DistanceMeters>NAN</DistanceMeters>
          </Trackpoint>
          <Trackpoint>
            <Time>2022-07-15T11:16:42.000Z</Time>
            <Position>
              <LatitudeDegrees>43.39168352074921131134033203125</LatitudeDegrees>
              <LongitudeDegrees>-4.58156730048358440399169921875</LongitudeDegrees>
            </Position>
            <AltitudeMeters>24.6000003814697265625</AltitudeMeters>
            <DistanceMeters>NAN</DistanceMeters>
          </Trackpoint>
          <Trackpoint>
            <Time>2022-07-15T11:16:43.000Z</Time>
            <Position>
              <LatitudeDegrees>43.3916951715946197509765625</LatitudeDegrees>
              <LongitudeDegrees>-4.5815695635974407196044921875</LongitudeDegrees>
            </Position>
            <AltitudeMeters>24.799999237060546875</AltitudeMeters>
            <DistanceMeters>NAN</DistanceMeters>
          </Trackpoint>
          <Trackpoint>
            <Time>2022-07-15T11:16:49.000Z</Time>
            <Position>
              <LatitudeDegrees>43.39177052490413188934326171875</LatitudeDegrees>
              <LongitudeDegrees>-4.58152153529226779937744140625</LongitudeDegrees>
            </Position>
            <AltitudeMeters>24.799999237060546875</AltitudeMeters>
            <DistanceMeters>NAN</DistanceMeters>
          </Trackpoint>
          <Trackpoint>
            <Time>2022-07-15T11:16:51.000Z</Time>
            <Position>
              <LatitudeDegrees>43.391792736947536468505859375</LatitudeDegrees>
              <LongitudeDegrees>-4.581512399017810821533203125</LongitudeDegrees>
            </Position>
            <AltitudeMeters>24.799999237060546875</AltitudeMeters>
            <DistanceMeters>NAN</DistanceMeters>
          </Trackpoint>
          <Trackpoint>
            <Time>2022-07-15T11:16:53.000Z</Time>
            <Position>
              <LatitudeDegrees>43.3918116800487041473388671875</LatitudeDegrees>
              <LongitudeDegrees>-4.581523127853870391845703125</LongitudeDegrees>
            </Position>
            <AltitudeMeters>24.799999237060546875</AltitudeMeters>
            <DistanceMeters>NAN</DistanceMeters>
          </Trackpoint>
          <Trackpoint>
            <Time>2022-07-15T11:16:54.000Z</Time>
            <Position>
              <LatitudeDegrees>43.391814194619655609130859375</LatitudeDegrees>
              <LongitudeDegrees>-4.5815353654325008392333984375</LongitudeDegrees>
            </Position>
            <AltitudeMeters>24.799999237060546875</AltitudeMeters>
            <DistanceMeters>NAN</DistanceMeters>
          </Trackpoint>
          <Trackpoint>
            <Time>2022-07-15T11:16:58.000Z</Time>
            <Position>
              <LatitudeDegrees>43.391779325902462005615234375</LatitudeDegrees>
              <LongitudeDegrees>-4.58161407150328159332275390625</LongitudeDegrees>
            </Position>
            <AltitudeMeters>24.799999237060546875</AltitudeMeters>
            <DistanceMeters>NAN</DistanceMeters>
          </Trackpoint>
          <Trackpoint>
            <Time>2022-07-15T11:17:00.000Z</Time>
            <Position>
              <LatitudeDegrees>43.39176314882934093475341796875</LatitudeDegrees>
              <LongitudeDegrees>-4.58166386000812053680419921875</LongitudeDegrees>
            </Position>
            <AltitudeMeters>25</AltitudeMeters>
            <DistanceMeters>NAN</DistanceMeters>
          </Trackpoint>
          <Trackpoint>
            <Time>2022-07-15T11:17:03.000Z</Time>
            <Position>
              <LatitudeDegrees>43.3917583711445331573486328125</LatitudeDegrees>
              <LongitudeDegrees>-4.58173527382314205169677734375</LongitudeDegrees>
            </Position>
            <AltitudeMeters>25.6000003814697265625</AltitudeMeters>
            <DistanceMeters>NAN</DistanceMeters>
          </Trackpoint>
          <Trackpoint>
            <Time>2022-07-15T11:17:04.000Z</Time>
            <Position>
              <LatitudeDegrees>43.3917607180774211883544921875</LatitudeDegrees>
              <LongitudeDegrees>-4.58175706677138805389404296875</LongitudeDegrees>
            </Position>
            <AltitudeMeters>25.6000003814697265625</AltitudeMeters>
            <DistanceMeters>NAN</DistanceMeters>
          </Trackpoint>
          <Trackpoint>
            <Time>2022-07-15T11:17:05.000Z</Time>
            <Position>
              <LatitudeDegrees>43.39176801033318042755126953125</LatitudeDegrees>
              <LongitudeDegrees>-4.581777267158031463623046875</LongitudeDegrees>
            </Position>
            <AltitudeMeters>25.6000003814697265625</AltitudeMeters>
            <DistanceMeters>NAN</DistanceMeters>
          </Trackpoint>
          <Trackpoint>
            <Time>2022-07-15T11:17:11.000Z</Time>
            <Position>
              <LatitudeDegrees>43.39182970114052295684814453125</LatitudeDegrees>
              <LongitudeDegrees>-4.58188178949058055877685546875</LongitudeDegrees>
            </Position>
            <AltitudeMeters>26</AltitudeMeters>
            <DistanceMeters>NAN</DistanceMeters>
          </Trackpoint>
          <Trackpoint>
            <Time>2022-07-15T11:17:18.000Z</Time>
            <Position>
              <LatitudeDegrees>43.39188049547374248504638671875</LatitudeDegrees>
              <LongitudeDegrees>-4.5819832943379878997802734375</LongitudeDegrees>
            </Position>
            <AltitudeMeters>26.3999996185302734375</AltitudeMeters>
            <DistanceMeters>NAN</DistanceMeters>
          </Trackpoint>
          <Trackpoint>
            <Time>2022-07-15T11:17:19.000Z</Time>
            <Position>
              <LatitudeDegrees>43.39188896119594573974609375</LatitudeDegrees>
              <LongitudeDegrees>-4.581993520259857177734375</LongitudeDegrees>
            </Position>
            <AltitudeMeters>26.6000003814697265625</AltitudeMeters>
            <DistanceMeters>NAN</DistanceMeters>
          </Trackpoint>
          <Trackpoint>
            <Time>2022-07-15T11:17:27.000Z</Time>
            <Position>
              <LatitudeDegrees>43.3919300325214862823486328125</LatitudeDegrees>
              <LongitudeDegrees>-4.5821311511099338531494140625</LongitudeDegrees>
            </Position>
            <AltitudeMeters>27.200000762939453125</AltitudeMeters>
            <DistanceMeters>NAN</DistanceMeters>
          </Trackpoint>
          <Trackpoint>
            <Time>2022-07-15T11:17:31.000Z</Time>
            <Position>
              <LatitudeDegrees>43.39196096174418926239013671875</LatitudeDegrees>
              <LongitudeDegrees>-4.58218035288155078887939453125</LongitudeDegrees>
            </Position>
            <AltitudeMeters>27.6000003814697265625</AltitudeMeters>
            <DistanceMeters>NAN</DistanceMeters>
          </Trackpoint>
          <Trackpoint>
            <Time>2022-07-15T11:17:33.000Z</Time>
            <Position>
              <LatitudeDegrees>43.39198828674852848052978515625</LatitudeDegrees>
              <LongitudeDegrees>-4.58221279084682464599609375</LongitudeDegrees>
            </Position>
            <AltitudeMeters>27.799999237060546875</AltitudeMeters>
            <DistanceMeters>NAN</DistanceMeters>
          </Trackpoint>
          <Trackpoint>
            <Time>2022-07-15T11:17:37.000Z</Time>
            <Position>
              <LatitudeDegrees>43.39201234281063079833984375</LatitudeDegrees>
              <LongitudeDegrees>-4.5822632499039173126220703125</LongitudeDegrees>
            </Position>
            <AltitudeMeters>28</AltitudeMeters>
            <DistanceMeters>NAN</DistanceMeters>
          </Trackpoint>
          <Trackpoint>
            <Time>2022-07-15T11:17:40.000Z</Time>
            <Position>
              <LatitudeDegrees>43.39203187264502048492431640625</LatitudeDegrees>
              <LongitudeDegrees>-4.58230691961944103240966796875</LongitudeDegrees>
            </Position>
            <AltitudeMeters>28.200000762939453125</AltitudeMeters>
            <DistanceMeters>NAN</DistanceMeters>
          </Trackpoint>
          <Trackpoint>
            <Time>2022-07-15T11:17:44.000Z</Time>
            <Position>
              <LatitudeDegrees>43.3920742012560367584228515625</LatitudeDegrees>
              <LongitudeDegrees>-4.58236173726618289947509765625</LongitudeDegrees>
            </Position>
            <AltitudeMeters>28.799999237060546875</AltitudeMeters>
            <DistanceMeters>NAN</DistanceMeters>
          </Trackpoint>
          <Trackpoint>
            <Time>2022-07-15T11:17:49.000Z</Time>
            <Position>
              <LatitudeDegrees>43.39210311882197856903076171875</LatitudeDegrees>
              <LongitudeDegrees>-4.5824481546878814697265625</LongitudeDegrees>
            </Position>
            <AltitudeMeters>29.3999996185302734375</AltitudeMeters>
            <DistanceMeters>NAN</DistanceMeters>
          </Trackpoint>
          <Trackpoint>
            <Time>2022-07-15T11:17:55.000Z</Time>
            <Position>
              <LatitudeDegrees>43.392140753567218780517578125</LatitudeDegrees>
              <LongitudeDegrees>-4.58254798315465450286865234375</LongitudeDegrees>
            </Position>
            <AltitudeMeters>30</AltitudeMeters>
            <DistanceMeters>NAN</DistanceMeters>
          </Trackpoint>
          <Trackpoint>
            <Time>2022-07-15T11:17:57.000Z</Time>
            <Position>
              <LatitudeDegrees>43.3921509794890880584716796875</LatitudeDegrees>
              <LongitudeDegrees>-4.58258134312927722930908203125</LongitudeDegrees>
            </Position>
            <AltitudeMeters>30.200000762939453125</AltitudeMeters>
            <DistanceMeters>NAN</DistanceMeters>
          </Trackpoint>
          <Trackpoint>
            <Time>2022-07-15T11:18:04.000Z</Time>
            <Position>
              <LatitudeDegrees>43.39220336638391017913818359375</LatitudeDegrees>
              <LongitudeDegrees>-4.58268620073795318603515625</LongitudeDegrees>
            </Position>
            <AltitudeMeters>30.799999237060546875</AltitudeMeters>
            <DistanceMeters>NAN</DistanceMeters>
          </Trackpoint>
          <Trackpoint>
            <Time>2022-07-15T11:18:06.000Z</Time>
            <Position>
              <LatitudeDegrees>43.39222750626504421234130859375</LatitudeDegrees>
              <LongitudeDegrees>-4.5827121846377849578857421875</LongitudeDegrees>
            </Position>
            <AltitudeMeters>31</AltitudeMeters>
            <DistanceMeters>NAN</DistanceMeters>
          </Trackpoint>
          <Trackpoint>
            <Time>2022-07-15T11:18:12.000Z</Time>
            <Position>
              <LatitudeDegrees>43.39224703609943389892578125</LatitudeDegrees>
              <LongitudeDegrees>-4.5828238315880298614501953125</LongitudeDegrees>
            </Position>
            <AltitudeMeters>31.200000762939453125</AltitudeMeters>
            <DistanceMeters>NAN</DistanceMeters>
          </Trackpoint>
          <Trackpoint>
            <Time>2022-07-15T11:18:21.000Z</Time>
            <Position>
              <LatitudeDegrees>43.3923156000673770904541015625</LatitudeDegrees>
              <LongitudeDegrees>-4.58298903889954090118408203125</LongitudeDegrees>
            </Position>
            <AltitudeMeters>31</AltitudeMeters>
            <DistanceMeters>NAN</DistanceMeters>
          </Trackpoint>
          <Trackpoint>
            <Time>2022-07-15T11:18:30.000Z</Time>
            <Position>
              <LatitudeDegrees>43.39237804524600505828857421875</LatitudeDegrees>
              <LongitudeDegrees>-4.58314326591789722442626953125</LongitudeDegrees>
            </Position>
            <AltitudeMeters>31.6000003814697265625</AltitudeMeters>
            <DistanceMeters>NAN</DistanceMeters>
          </Trackpoint>
          <Trackpoint>
            <Time>2022-07-15T11:18:33.000Z</Time>
            <Position>
              <LatitudeDegrees>43.3923893608152866363525390625</LatitudeDegrees>
              <LongitudeDegrees>-4.58319288678467273712158203125</LongitudeDegrees>
            </Position>
            <AltitudeMeters>32</AltitudeMeters>
            <DistanceMeters>NAN</DistanceMeters>
          </Trackpoint>
          <Trackpoint>
            <Time>2022-07-15T11:18:37.000Z</Time>
            <Position>
              <LatitudeDegrees>43.3924326114356517791748046875</LatitudeDegrees>
              <LongitudeDegrees>-4.58324250765144824981689453125</LongitudeDegrees>
            </Position>
            <AltitudeMeters>32.40000152587890625</AltitudeMeters>
            <DistanceMeters>NAN</DistanceMeters>
          </Trackpoint>
          <Trackpoint>
            <Time>2022-07-15T11:18:45.000Z</Time>
            <Position>
              <LatitudeDegrees>43.39249237440526485443115234375</LatitudeDegrees>
              <LongitudeDegrees>-4.5833770371973514556884765625</LongitudeDegrees>
            </Position>
            <AltitudeMeters>32.799999237060546875</AltitudeMeters>
            <DistanceMeters>NAN</DistanceMeters>
          </Trackpoint>
          <Trackpoint>
            <Time>2022-07-15T11:18:51.000Z</Time>
            <Position>
              <LatitudeDegrees>43.39253277517855167388916015625</LatitudeDegrees>
              <LongitudeDegrees>-4.58348474465310573577880859375</LongitudeDegrees>
            </Position>
            <AltitudeMeters>33</AltitudeMeters>
            <DistanceMeters>NAN</DistanceMeters>
          </Trackpoint>
          <Trackpoint>
            <Time>2022-07-15T11:18:54.000Z</Time>
            <Position>
              <LatitudeDegrees>43.39255440048873424530029296875</LatitudeDegrees>
              <LongitudeDegrees>-4.58353503607213497161865234375</LongitudeDegrees>
            </Position>
            <AltitudeMeters>33.200000762939453125</AltitudeMeters>
            <DistanceMeters>NAN</DistanceMeters>
          </Trackpoint>
          <Trackpoint>
            <Time>2022-07-15T11:19:02.000Z</Time>
            <Position>
              <LatitudeDegrees>43.39260469190776348114013671875</LatitudeDegrees>
              <LongitudeDegrees>-4.58366545848548412322998046875</LongitudeDegrees>
            </Position>
            <AltitudeMeters>33.799999237060546875</AltitudeMeters>
            <DistanceMeters>NAN</DistanceMeters>
          </Trackpoint>
          <Trackpoint>
            <Time>2022-07-15T11:19:06.000Z</Time>
            <Position>
              <LatitudeDegrees>43.3926247246563434600830078125</LatitudeDegrees>
              <LongitudeDegrees>-4.5837223716080188751220703125</LongitudeDegrees>
            </Position>
            <AltitudeMeters>34</AltitudeMeters>
            <DistanceMeters>NAN</DistanceMeters>
          </Trackpoint>
          <Trackpoint>
            <Time>2022-07-15T11:19:10.000Z</Time>
            <Position>
              <LatitudeDegrees>43.3926582522690296173095703125</LatitudeDegrees>
              <LongitudeDegrees>-4.5837810449302196502685546875</LongitudeDegrees>
            </Position>
            <AltitudeMeters>34.40000152587890625</AltitudeMeters>
            <DistanceMeters>NAN</DistanceMeters>
          </Trackpoint>
          <Trackpoint>
            <Time>2022-07-15T11:19:24.000Z</Time>
            <Position>
              <LatitudeDegrees>43.3927729167044162750244140625</LatitudeDegrees>
              <LongitudeDegrees>-4.584041051566600799560546875</LongitudeDegrees>
            </Position>
            <AltitudeMeters>34.799999237060546875</AltitudeMeters>
            <DistanceMeters>NAN</DistanceMeters>
          </Trackpoint>
          <Trackpoint>
            <Time>2022-07-15T11:19:27.000Z</Time>
            <Position>
              <LatitudeDegrees>43.3927926979959011077880859375</LatitudeDegrees>
              <LongitudeDegrees>-4.5840968750417232513427734375</LongitudeDegrees>
            </Position>
            <AltitudeMeters>35.200000762939453125</AltitudeMeters>
            <DistanceMeters>NAN</DistanceMeters>
          </Trackpoint>
          <Trackpoint>
            <Time>2022-07-15T11:19:32.000Z</Time>
            <Position>
              <LatitudeDegrees>43.39284257031977176666259765625</LatitudeDegrees>
              <LongitudeDegrees>-4.5841679535806179046630859375</LongitudeDegrees>
            </Position>
            <AltitudeMeters>35.799999237060546875</AltitudeMeters>
            <DistanceMeters>NAN</DistanceMeters>
          </Trackpoint>
          <Trackpoint>
            <Time>2022-07-15T11:19:33.000Z</Time>
            <Position>
              <LatitudeDegrees>43.39286394417285919189453125</LatitudeDegrees>
              <LongitudeDegrees>-4.58417692221701145172119140625</LongitudeDegrees>
            </Position>
            <AltitudeMeters>35.799999237060546875</AltitudeMeters>
            <DistanceMeters>NAN</DistanceMeters>
          </Trackpoint>
          <Trackpoint>
            <Time>2022-07-15T11:19:36.000Z</Time>
            <Position>
              <LatitudeDegrees>43.39289017952978610992431640625</LatitudeDegrees>
              <LongitudeDegrees>-4.58422235213220119476318359375</LongitudeDegrees>
            </Position>
            <AltitudeMeters>36.200000762939453125</AltitudeMeters>
            <DistanceMeters>NAN</DistanceMeters>
          </Trackpoint>
          <Trackpoint>
            <Time>2022-07-15T11:19:37.000Z</Time>
            <Position>
              <LatitudeDegrees>43.392899148166179656982421875</LatitudeDegrees>
              <LongitudeDegrees>-4.58424246869981288909912109375</LongitudeDegrees>
            </Position>
            <AltitudeMeters>36.200000762939453125</AltitudeMeters>
            <DistanceMeters>NAN</DistanceMeters>
          </Trackpoint>
          <Trackpoint>
            <Time>2022-07-15T11:19:42.000Z</Time>
            <Position>
              <LatitudeDegrees>43.392944075167179107666015625</LatitudeDegrees>
              <LongitudeDegrees>-4.5843188278377056121826171875</LongitudeDegrees>
            </Position>
            <AltitudeMeters>36.40000152587890625</AltitudeMeters>
            <DistanceMeters>NAN</DistanceMeters>
          </Trackpoint>
          <Trackpoint>
            <Time>2022-07-15T11:19:51.000Z</Time>
            <Position>
              <LatitudeDegrees>43.39301280677318572998046875</LatitudeDegrees>
              <LongitudeDegrees>-4.58449291996657848358154296875</LongitudeDegrees>
            </Position>
            <AltitudeMeters>37</AltitudeMeters>
            <DistanceMeters>NAN</DistanceMeters>
          </Trackpoint>
          <Trackpoint>
            <Time>2022-07-15T11:19:54.000Z</Time>
            <Position>
              <LatitudeDegrees>43.3930347673594951629638671875</LatitudeDegrees>
              <LongitudeDegrees>-4.5845511741936206817626953125</LongitudeDegrees>
            </Position>
            <AltitudeMeters>37.40000152587890625</AltitudeMeters>
            <DistanceMeters>NAN</DistanceMeters>
          </Trackpoint>
          <Trackpoint>
            <Time>2022-07-15T11:20:00.000Z</Time>
            <Position>
              <LatitudeDegrees>43.39306016452610492706298828125</LatitudeDegrees>
              <LongitudeDegrees>-4.584646560251712799072265625</LongitudeDegrees>
            </Position>
            <AltitudeMeters>37.799999237060546875</AltitudeMeters>
            <DistanceMeters>NAN</DistanceMeters>
          </Trackpoint>
          <Trackpoint>
            <Time>2022-07-15T11:20:04.000Z</Time>
            <Position>
              <LatitudeDegrees>43.3930642716586589813232421875</LatitudeDegrees>
              <LongitudeDegrees>-4.584733732044696807861328125</LongitudeDegrees>
            </Position>
            <AltitudeMeters>38</AltitudeMeters>
            <DistanceMeters>NAN</DistanceMeters>
          </Trackpoint>
          <Trackpoint>
            <Time>2022-07-15T11:20:06.000Z</Time>
            <Position>
              <LatitudeDegrees>43.39306854642927646636962890625</LatitudeDegrees>
              <LongitudeDegrees>-4.584786705672740936279296875</LongitudeDegrees>
            </Position>
            <AltitudeMeters>38.200000762939453125</AltitudeMeters>
            <DistanceMeters>NAN</DistanceMeters>
          </Trackpoint>
          <Trackpoint>
            <Time>2022-07-15T11:20:10.000Z</Time>
            <Position>
              <LatitudeDegrees>43.3931100368499755859375</LatitudeDegrees>
              <LongitudeDegrees>-4.5848358236253261566162109375</LongitudeDegrees>
            </Position>
            <AltitudeMeters>38.40000152587890625</AltitudeMeters>
            <DistanceMeters>NAN</DistanceMeters>
          </Trackpoint>
          <Trackpoint>
            <Time>2022-07-15T11:20:13.000Z</Time>
            <Position>
              <LatitudeDegrees>43.39311213232576847076416015625</LatitudeDegrees>
              <LongitudeDegrees>-4.58488821052014827728271484375</LongitudeDegrees>
            </Position>
            <AltitudeMeters>38.799999237060546875</AltitudeMeters>
            <DistanceMeters>NAN</DistanceMeters>
          </Trackpoint>
          <Trackpoint>
            <Time>2022-07-15T11:20:15.000Z</Time>
            <Position>
              <LatitudeDegrees>43.39311732910573482513427734375</LatitudeDegrees>
              <LongitudeDegrees>-4.58491654135286808013916015625</LongitudeDegrees>
            </Position>
            <AltitudeMeters>38.799999237060546875</AltitudeMeters>
            <DistanceMeters>NAN</DistanceMeters>
          </Trackpoint>
          <Trackpoint>
            <Time>2022-07-15T11:20:18.000Z</Time>
            <Position>
              <LatitudeDegrees>43.39315169490873813629150390625</LatitudeDegrees>
              <LongitudeDegrees>-4.58496272563934326171875</LongitudeDegrees>
            </Position>
            <AltitudeMeters>39</AltitudeMeters>
            <DistanceMeters>NAN</DistanceMeters>
          </Trackpoint>
          <Trackpoint>
            <Time>2022-07-15T11:20:24.000Z</Time>
            <Position>
              <LatitudeDegrees>43.39325043372809886932373046875</LatitudeDegrees>
              <LongitudeDegrees>-4.58503782749176025390625</LongitudeDegrees>
            </Position>
            <AltitudeMeters>39.59999847412109375</AltitudeMeters>
            <DistanceMeters>NAN</DistanceMeters>
          </Trackpoint>
          <Trackpoint>
            <Time>2022-07-15T11:20:26.000Z</Time>
            <Position>
              <LatitudeDegrees>43.39326920919120311737060546875</LatitudeDegrees>
              <LongitudeDegrees>-4.58507462404668331146240234375</LongitudeDegrees>
            </Position>
            <AltitudeMeters>39.59999847412109375</AltitudeMeters>
            <DistanceMeters>NAN</DistanceMeters>
          </Trackpoint>
          <Trackpoint>
            <Time>2022-07-15T11:20:34.000Z</Time>
            <Position>
              <LatitudeDegrees>43.39334146119654178619384765625</LatitudeDegrees>
              <LongitudeDegrees>-4.58521611057221889495849609375</LongitudeDegrees>
            </Position>
            <AltitudeMeters>39.799999237060546875</AltitudeMeters>
            <DistanceMeters>NAN</DistanceMeters>
          </Trackpoint>
          <Trackpoint>
            <Time>2022-07-15T11:20:41.000Z</Time>
            <Position>
              <LatitudeDegrees>43.39340499602258205413818359375</LatitudeDegrees>
              <LongitudeDegrees>-4.58534167148172855377197265625</LongitudeDegrees>
            </Position>
            <AltitudeMeters>39.799999237060546875</AltitudeMeters>
            <DistanceMeters>NAN</DistanceMeters>
          </Trackpoint>
          <Trackpoint>
            <Time>2022-07-15T11:20:44.000Z</Time>
            <Position>
              <LatitudeDegrees>43.3934359252452850341796875</LatitudeDegrees>
              <LongitudeDegrees>-4.585400931537151336669921875</LongitudeDegrees>
            </Position>
            <AltitudeMeters>39.799999237060546875</AltitudeMeters>
            <DistanceMeters>NAN</DistanceMeters>
          </Trackpoint>
          <Trackpoint>
            <Time>2022-07-15T11:20:53.000Z</Time>
            <Position>
              <LatitudeDegrees>43.39352150447666645050048828125</LatitudeDegrees>
              <LongitudeDegrees>-4.585647024214267730712890625</LongitudeDegrees>
            </Position>
            <AltitudeMeters>39.799999237060546875</AltitudeMeters>
            <DistanceMeters>NAN</DistanceMeters>
          </Trackpoint>
          <Trackpoint>
            <Time>2022-07-15T11:20:59.000Z</Time>
            <Position>
              <LatitudeDegrees>43.39358453638851642608642578125</LatitudeDegrees>
              <LongitudeDegrees>-4.585793204605579376220703125</LongitudeDegrees>
            </Position>
            <AltitudeMeters>40.59999847412109375</AltitudeMeters>
            <DistanceMeters>NAN</DistanceMeters>
          </Trackpoint>
          <Trackpoint>
            <Time>2022-07-15T11:21:01.000Z</Time>
            <Position>
              <LatitudeDegrees>43.3935983665287494659423828125</LatitudeDegrees>
              <LongitudeDegrees>-4.58584710024297237396240234375</LongitudeDegrees>
            </Position>
            <AltitudeMeters>40.799999237060546875</AltitudeMeters>
            <DistanceMeters>NAN</DistanceMeters>
          </Trackpoint>
          <Trackpoint>
            <Time>2022-07-15T11:21:04.000Z</Time>
            <Position>
              <LatitudeDegrees>43.393624685704708099365234375</LatitudeDegrees>
              <LongitudeDegrees>-4.58592119626700878143310546875</LongitudeDegrees>
            </Position>
            <AltitudeMeters>41</AltitudeMeters>
            <DistanceMeters>NAN</DistanceMeters>
          </Trackpoint>
          <Trackpoint>
            <Time>2022-07-15T11:21:09.000Z</Time>
            <Position>
              <LatitudeDegrees>43.39366198517382144927978515625</LatitudeDegrees>
              <LongitudeDegrees>-4.586097300052642822265625</LongitudeDegrees>
            </Position>
            <AltitudeMeters>41.200000762939453125</AltitudeMeters>
            <DistanceMeters>NAN</DistanceMeters>
          </Trackpoint>
          <Trackpoint>
            <Time>2022-07-15T11:21:13.000Z</Time>
            <Position>
              <LatitudeDegrees>43.3936738036572933197021484375</LatitudeDegrees>
              <LongitudeDegrees>-4.586201570928096771240234375</LongitudeDegrees>
            </Position>
            <AltitudeMeters>41.59999847412109375</AltitudeMeters>
            <DistanceMeters>NAN</DistanceMeters>
          </Trackpoint>
          <Trackpoint>
            <Time>2022-07-15T11:21:14.000Z</Time>
            <Position>
              <LatitudeDegrees>43.39367623440921306610107421875</LatitudeDegrees>
              <LongitudeDegrees>-4.58623099140822887420654296875</LongitudeDegrees>
            </Position>
            <AltitudeMeters>41.799999237060546875</AltitudeMeters>
            <DistanceMeters>NAN</DistanceMeters>
          </Trackpoint>
          <Trackpoint>
            <Time>2022-07-15T11:21:15.000Z</Time>
            <Position>
              <LatitudeDegrees>43.393681012094020843505859375</LatitudeDegrees>
              <LongitudeDegrees>-4.5862570591270923614501953125</LongitudeDegrees>
            </Position>
            <AltitudeMeters>41.799999237060546875</AltitudeMeters>
            <DistanceMeters>NAN</DistanceMeters>
          </Trackpoint>
          <Trackpoint>
            <Time>2022-07-15T11:21:23.000Z</Time>
            <Position>
              <LatitudeDegrees>43.39374211616814136505126953125</LatitudeDegrees>
              <LongitudeDegrees>-4.58650139160454273223876953125</LongitudeDegrees>
            </Position>
            <AltitudeMeters>42</AltitudeMeters>
            <DistanceMeters>NAN</DistanceMeters>
          </Trackpoint>
          <Trackpoint>
            <Time>2022-07-15T11:21:30.000Z</Time>
            <Position>
              <LatitudeDegrees>43.39385636150836944580078125</LatitudeDegrees>
              <LongitudeDegrees>-4.58669719286262989044189453125</LongitudeDegrees>
            </Position>
            <AltitudeMeters>41.799999237060546875</AltitudeMeters>
            <DistanceMeters>NAN</DistanceMeters>
          </Trackpoint>
          <Trackpoint>
            <Time>2022-07-15T11:21:37.000Z</Time>
            <Position>
              <LatitudeDegrees>43.39394730515778064727783203125</LatitudeDegrees>
              <LongitudeDegrees>-4.58693993277847766876220703125</LongitudeDegrees>
            </Position>
            <AltitudeMeters>42</AltitudeMeters>
            <DistanceMeters>NAN</DistanceMeters>
          </Trackpoint>
          <Trackpoint>
            <Time>2022-07-15T11:21:43.000Z</Time>
            <Position>
              <LatitudeDegrees>43.3940523304045200347900390625</LatitudeDegrees>
              <LongitudeDegrees>-4.58713606931269168853759765625</LongitudeDegrees>
            </Position>
            <AltitudeMeters>42.200000762939453125</AltitudeMeters>
            <DistanceMeters>NAN</DistanceMeters>
          </Trackpoint>
          <Trackpoint>
            <Time>2022-07-15T11:21:45.000Z</Time>
            <Position>
              <LatitudeDegrees>43.39407856576144695281982421875</LatitudeDegrees>
              <LongitudeDegrees>-4.5872166194021701812744140625</LongitudeDegrees>
            </Position>
            <AltitudeMeters>42.200000762939453125</AltitudeMeters>
            <DistanceMeters>NAN</DistanceMeters>
          </Trackpoint>
          <Trackpoint>
            <Time>2022-07-15T11:21:53.000Z</Time>
            <Position>
              <LatitudeDegrees>43.39423120021820068359375</LatitudeDegrees>
              <LongitudeDegrees>-4.58753538317978382110595703125</LongitudeDegrees>
            </Position>
            <AltitudeMeters>42.200000762939453125</AltitudeMeters>
            <DistanceMeters>NAN</DistanceMeters>
          </Trackpoint>
          <Trackpoint>
            <Time>2022-07-15T11:22:02.000Z</Time>
            <Position>
              <LatitudeDegrees>43.3943939767777919769287109375</LatitudeDegrees>
              <LongitudeDegrees>-4.58787669427692890167236328125</LongitudeDegrees>
            </Position>
            <AltitudeMeters>42.200000762939453125</AltitudeMeters>
            <DistanceMeters>NAN</DistanceMeters>
          </Trackpoint>
          <Trackpoint>
            <Time>2022-07-15T11:22:10.000Z</Time>
            <Position>
              <LatitudeDegrees>43.39454032480716705322265625</LatitudeDegrees>
              <LongitudeDegrees>-4.58825304172933101654052734375</LongitudeDegrees>
            </Position>
            <AltitudeMeters>42</AltitudeMeters>
            <DistanceMeters>NAN</DistanceMeters>
          </Trackpoint>
          <Trackpoint>
            <Time>2022-07-15T11:22:18.000Z</Time>
            <Position>
              <LatitudeDegrees>43.394693545997142791748046875</LatitudeDegrees>
              <LongitudeDegrees>-4.5886683650314807891845703125</LongitudeDegrees>
            </Position>
            <AltitudeMeters>41.799999237060546875</AltitudeMeters>
            <DistanceMeters>NAN</DistanceMeters>
          </Trackpoint>
          <Trackpoint>
            <Time>2022-07-15T11:22:19.000Z</Time>
            <Position>
              <LatitudeDegrees>43.39471600949764251708984375</LatitudeDegrees>
              <LongitudeDegrees>-4.588720500469207763671875</LongitudeDegrees>
            </Position>
            <AltitudeMeters>42</AltitudeMeters>
            <DistanceMeters>NAN</DistanceMeters>
          </Trackpoint>
          <Trackpoint>
            <Time>2022-07-15T11:22:21.000Z</Time>
            <Position>
              <LatitudeDegrees>43.3947627805173397064208984375</LatitudeDegrees>
              <LongitudeDegrees>-4.5888155512511730194091796875</LongitudeDegrees>
            </Position>
            <AltitudeMeters>42.200000762939453125</AltitudeMeters>
            <DistanceMeters>NAN</DistanceMeters>
          </Trackpoint>
          <Trackpoint>
            <Time>2022-07-15T11:22:23.000Z</Time>
            <Position>
              <LatitudeDegrees>43.39479018934071063995361328125</LatitudeDegrees>
              <LongitudeDegrees>-4.58891537971794605255126953125</LongitudeDegrees>
            </Position>
            <AltitudeMeters>42.200000762939453125</AltitudeMeters>
            <DistanceMeters>NAN</DistanceMeters>
          </Trackpoint>
          <Trackpoint>
            <Time>2022-07-15T11:22:25.000Z</Time>
            <Position>
              <LatitudeDegrees>43.39482287876307964324951171875</LatitudeDegrees>
              <LongitudeDegrees>-4.5890247635543346405029296875</LongitudeDegrees>
            </Position>
            <AltitudeMeters>42.200000762939453125</AltitudeMeters>
            <DistanceMeters>NAN</DistanceMeters>
          </Trackpoint>
          <Trackpoint>
            <Time>2022-07-15T11:22:27.000Z</Time>
            <Position>
              <LatitudeDegrees>43.39485506527125835418701171875</LatitudeDegrees>
              <LongitudeDegrees>-4.58913934417068958282470703125</LongitudeDegrees>
            </Position>
            <AltitudeMeters>42</AltitudeMeters>
            <DistanceMeters>NAN</DistanceMeters>
          </Trackpoint>
          <Trackpoint>
            <Time>2022-07-15T11:22:28.000Z</Time>
            <Position>
              <LatitudeDegrees>43.39486755430698394775390625</LatitudeDegrees>
              <LongitudeDegrees>-4.5891991071403026580810546875</LongitudeDegrees>
            </Position>
            <AltitudeMeters>42</AltitudeMeters>
            <DistanceMeters>NAN</DistanceMeters>
          </Trackpoint>
          <Trackpoint>
            <Time>2022-07-15T11:22:29.000Z</Time>
            <Position>
              <LatitudeDegrees>43.3948789536952972412109375</LatitudeDegrees>
              <LongitudeDegrees>-4.5892628096044063568115234375</LongitudeDegrees>
            </Position>
            <AltitudeMeters>42</AltitudeMeters>
            <DistanceMeters>NAN</DistanceMeters>
          </Trackpoint>
          <Trackpoint>
            <Time>2022-07-15T11:22:34.000Z</Time>
            <Position>
              <LatitudeDegrees>43.39496050961315631866455078125</LatitudeDegrees>
              <LongitudeDegrees>-4.58955022506415843963623046875</LongitudeDegrees>
            </Position>
            <AltitudeMeters>42.200000762939453125</AltitudeMeters>
            <DistanceMeters>NAN</DistanceMeters>
          </Trackpoint>
          <Trackpoint>
            <Time>2022-07-15T11:22:35.000Z</Time>
            <Position>
              <LatitudeDegrees>43.39497459121048450469970703125</LatitudeDegrees>
              <LongitudeDegrees>-4.58960889838635921478271484375</LongitudeDegrees>
            </Position>
            <AltitudeMeters>42.200000762939453125</AltitudeMeters>
            <DistanceMeters>NAN</DistanceMeters>
          </Trackpoint>
          <Trackpoint>
            <Time>2022-07-15T11:22:42.000Z</Time>
            <Position>
              <LatitudeDegrees>43.3950507827103137969970703125</LatitudeDegrees>
              <LongitudeDegrees>-4.5900641195476055145263671875</LongitudeDegrees>
            </Position>
            <AltitudeMeters>42</AltitudeMeters>
            <DistanceMeters>NAN</DistanceMeters>
          </Trackpoint>
          <Trackpoint>
            <Time>2022-07-15T11:22:43.000Z</Time>
            <Position>
              <LatitudeDegrees>43.3950625173747539520263671875</LatitudeDegrees>
              <LongitudeDegrees>-4.59012589417397975921630859375</LongitudeDegrees>
            </Position>
            <AltitudeMeters>42</AltitudeMeters>
            <DistanceMeters>NAN</DistanceMeters>
          </Trackpoint>
          <Trackpoint>
            <Time>2022-07-15T11:22:45.000Z</Time>
            <Position>
              <LatitudeDegrees>43.39507274329662322998046875</LatitudeDegrees>
              <LongitudeDegrees>-4.5902528800070285797119140625</LongitudeDegrees>
            </Position>
            <AltitudeMeters>42</AltitudeMeters>
            <DistanceMeters>NAN</DistanceMeters>
          </Trackpoint>
          <Trackpoint>
            <Time>2022-07-15T11:22:48.000Z</Time>
            <Position>
              <LatitudeDegrees>43.395091183483600616455078125</LatitudeDegrees>
              <LongitudeDegrees>-4.59035153500735759735107421875</LongitudeDegrees>
            </Position>
            <AltitudeMeters>42</AltitudeMeters>
            <DistanceMeters>NAN</DistanceMeters>
          </Trackpoint>
          <Trackpoint>
            <Time>2022-07-15T11:22:52.000Z</Time>
            <Position>
              <LatitudeDegrees>43.3951069414615631103515625</LatitudeDegrees>
              <LongitudeDegrees>-4.59036712534725666046142578125</LongitudeDegrees>
            </Position>
            <AltitudeMeters>42</AltitudeMeters>
            <DistanceMeters>NAN</DistanceMeters>
          </Trackpoint>
          <Trackpoint>
            <Time>2022-07-15T11:22:53.000Z</Time>
            <Position>
              <LatitudeDegrees>43.3951069414615631103515625</LatitudeDegrees>
              <LongitudeDegrees>-4.59036712534725666046142578125</LongitudeDegrees>
            </Position>
            <AltitudeMeters>42</AltitudeMeters>
            <DistanceMeters>NAN</DistanceMeters>
          </Trackpoint>
          <Trackpoint>
            <Time>2022-07-15T11:23:40.000Z</Time>
            <Position>
              <LatitudeDegrees>43.39517843909561634063720703125</LatitudeDegrees>
              <LongitudeDegrees>-4.5903097093105316162109375</LongitudeDegrees>
            </Position>
            <AltitudeMeters>40.799999237060546875</AltitudeMeters>
            <DistanceMeters>NAN</DistanceMeters>
          </Trackpoint>
          <Trackpoint>
            <Time>2022-07-15T11:23:41.000Z</Time>
            <Position>
              <LatitudeDegrees>43.3951914310455322265625</LatitudeDegrees>
              <LongitudeDegrees>-4.59029722027480602264404296875</LongitudeDegrees>
            </Position>
            <AltitudeMeters>40.59999847412109375</AltitudeMeters>
            <DistanceMeters>NAN</DistanceMeters>
          </Trackpoint>
          <Trackpoint>
            <Time>2022-07-15T11:23:43.000Z</Time>
            <Position>
              <LatitudeDegrees>43.395225293934345245361328125</LatitudeDegrees>
              <LongitudeDegrees>-4.5902721583843231201171875</LongitudeDegrees>
            </Position>
            <AltitudeMeters>40.200000762939453125</AltitudeMeters>
            <DistanceMeters>NAN</DistanceMeters>
          </Trackpoint>
          <Trackpoint>
            <Time>2022-07-15T11:23:46.000Z</Time>
            <Position>
              <LatitudeDegrees>43.39527717791497707366943359375</LatitudeDegrees>
              <LongitudeDegrees>-4.59023502655327320098876953125</LongitudeDegrees>
            </Position>
            <AltitudeMeters>39.40000152587890625</AltitudeMeters>
            <DistanceMeters>NAN</DistanceMeters>
          </Trackpoint>
          <Trackpoint>
            <Time>2022-07-15T11:23:47.000Z</Time>
            <Position>
              <LatitudeDegrees>43.39528740383684635162353515625</LatitudeDegrees>
              <LongitudeDegrees>-4.5902237109839916229248046875</LongitudeDegrees>
            </Position>
            <AltitudeMeters>39</AltitudeMeters>
            <DistanceMeters>NAN</DistanceMeters>
          </Trackpoint>
          <Trackpoint>
            <Time>2022-07-15T11:23:48.000Z</Time>
            <Position>
              <LatitudeDegrees>43.39529645629227161407470703125</LatitudeDegrees>
              <LongitudeDegrees>-4.590213485062122344970703125</LongitudeDegrees>
            </Position>
            <AltitudeMeters>38.799999237060546875</AltitudeMeters>
            <DistanceMeters>NAN</DistanceMeters>
          </Trackpoint>
          <Trackpoint>
            <Time>2022-07-15T11:23:53.000Z</Time>
            <Position>
              <LatitudeDegrees>43.39534456841647624969482421875</LatitudeDegrees>
              <LongitudeDegrees>-4.59015623666346073150634765625</LongitudeDegrees>
            </Position>
            <AltitudeMeters>38.40000152587890625</AltitudeMeters>
            <DistanceMeters>NAN</DistanceMeters>
          </Trackpoint>
          <Trackpoint>
            <Time>2022-07-15T11:23:54.000Z</Time>
            <Position>
              <LatitudeDegrees>43.39535345323383808135986328125</LatitudeDegrees>
              <LongitudeDegrees>-4.590160846710205078125</LongitudeDegrees>
            </Position>
            <AltitudeMeters>38.200000762939453125</AltitudeMeters>
            <DistanceMeters>NAN</DistanceMeters>
          </Trackpoint>
          <Trackpoint>
            <Time>2022-07-15T11:23:57.000Z</Time>
            <Position>
              <LatitudeDegrees>43.39535932056605815887451171875</LatitudeDegrees>
              <LongitudeDegrees>-4.5901610143482685089111328125</LongitudeDegrees>
            </Position>
            <AltitudeMeters>38.40000152587890625</AltitudeMeters>
            <DistanceMeters>NAN</DistanceMeters>
          </Trackpoint>
          <Trackpoint>
            <Time>2022-07-15T11:27:26.000Z</Time>
            <Position>
              <LatitudeDegrees>43.39546476490795612335205078125</LatitudeDegrees>
              <LongitudeDegrees>-4.59008105099201202392578125</LongitudeDegrees>
            </Position>
            <AltitudeMeters>39</AltitudeMeters>
            <DistanceMeters>NAN</DistanceMeters>
          </Trackpoint>
          <Trackpoint>
            <Time>2022-07-15T11:27:27.000Z</Time>
            <Position>
              <LatitudeDegrees>43.39550265111029148101806640625</LatitudeDegrees>
              <LongitudeDegrees>-4.5900983177125453948974609375</LongitudeDegrees>
            </Position>
            <AltitudeMeters>39</AltitudeMeters>
            <DistanceMeters>NAN</DistanceMeters>
          </Trackpoint>
          <Trackpoint>
            <Time>2022-07-15T11:27:33.000Z</Time>
            <Position>
              <LatitudeDegrees>43.39565151371061801910400390625</LatitudeDegrees>
              <LongitudeDegrees>-4.5901707373559474945068359375</LongitudeDegrees>
            </Position>
            <AltitudeMeters>37.40000152587890625</AltitudeMeters>
            <DistanceMeters>NAN</DistanceMeters>
          </Trackpoint>
          <Trackpoint>
            <Time>2022-07-15T11:27:39.000Z</Time>
            <Position>
              <LatitudeDegrees>43.39581948705017566680908203125</LatitudeDegrees>
              <LongitudeDegrees>-4.59019102156162261962890625</LongitudeDegrees>
            </Position>
            <AltitudeMeters>36.40000152587890625</AltitudeMeters>
            <DistanceMeters>NAN</DistanceMeters>
          </Trackpoint>
          <Trackpoint>
            <Time>2022-07-15T11:27:46.000Z</Time>
            <Position>
              <LatitudeDegrees>43.39602920226752758026123046875</LatitudeDegrees>
              <LongitudeDegrees>-4.5901660434901714324951171875</LongitudeDegrees>
            </Position>
            <AltitudeMeters>35.59999847412109375</AltitudeMeters>
            <DistanceMeters>NAN</DistanceMeters>
          </Trackpoint>
          <Trackpoint>
            <Time>2022-07-15T11:27:48.000Z</Time>
            <Position>
              <LatitudeDegrees>43.39608670212328433990478515625</LatitudeDegrees>
              <LongitudeDegrees>-4.590182639658451080322265625</LongitudeDegrees>
            </Position>
            <AltitudeMeters>35.40000152587890625</AltitudeMeters>
            <DistanceMeters>NAN</DistanceMeters>
          </Trackpoint>
          <Trackpoint>
            <Time>2022-07-15T11:27:52.000Z</Time>
            <Position>
              <LatitudeDegrees>43.3961913920938968658447265625</LatitudeDegrees>
              <LongitudeDegrees>-4.59024609066545963287353515625</LongitudeDegrees>
            </Position>
            <AltitudeMeters>35</AltitudeMeters>
            <DistanceMeters>NAN</DistanceMeters>
          </Trackpoint>
          <Trackpoint>
            <Time>2022-07-15T11:27:53.000Z</Time>
            <Position>
              <LatitudeDegrees>43.3962162025272846221923828125</LatitudeDegrees>
              <LongitudeDegrees>-4.5902622677385807037353515625</LongitudeDegrees>
            </Position>
            <AltitudeMeters>35</AltitudeMeters>
            <DistanceMeters>NAN</DistanceMeters>
          </Trackpoint>
          <Trackpoint>
            <Time>2022-07-15T11:27:59.000Z</Time>
            <Position>
              <LatitudeDegrees>43.3963244967162609100341796875</LatitudeDegrees>
              <LongitudeDegrees>-4.59031582809984683990478515625</LongitudeDegrees>
            </Position>
            <AltitudeMeters>34.799999237060546875</AltitudeMeters>
            <DistanceMeters>NAN</DistanceMeters>
          </Trackpoint>
          <Trackpoint>
            <Time>2022-07-15T11:28:03.000Z</Time>
            <Position>
              <LatitudeDegrees>43.3963962458074092864990234375</LatitudeDegrees>
              <LongitudeDegrees>-4.59034298546612262725830078125</LongitudeDegrees>
            </Position>
            <AltitudeMeters>34.200000762939453125</AltitudeMeters>
            <DistanceMeters>NAN</DistanceMeters>
          </Trackpoint>
          <Trackpoint>
            <Time>2022-07-15T11:28:06.000Z</Time>
            <Position>
              <LatitudeDegrees>43.396433629095554351806640625</LatitudeDegrees>
              <LongitudeDegrees>-4.590343572199344635009765625</LongitudeDegrees>
            </Position>
            <AltitudeMeters>34.200000762939453125</AltitudeMeters>
            <DistanceMeters>NAN</DistanceMeters>
          </Trackpoint>
          <Trackpoint>
            <Time>2022-07-15T11:28:09.000Z</Time>
            <Position>
              <LatitudeDegrees>43.3964622952044010162353515625</LatitudeDegrees>
              <LongitudeDegrees>-4.5903470925986766815185546875</LongitudeDegrees>
            </Position>
            <AltitudeMeters>34.59999847412109375</AltitudeMeters>
            <DistanceMeters>NAN</DistanceMeters>
          </Trackpoint>
          <Trackpoint>
            <Time>2022-07-15T11:28:12.000Z</Time>
            <Position>
              <LatitudeDegrees>43.3964686654508113861083984375</LatitudeDegrees>
              <LongitudeDegrees>-4.59034482948482036590576171875</LongitudeDegrees>
            </Position>
            <AltitudeMeters>34.59999847412109375</AltitudeMeters>
            <DistanceMeters>NAN</DistanceMeters>
          </Trackpoint>
          <Trackpoint>
            <Time>2022-07-15T11:28:20.000Z</Time>
            <Position>
              <LatitudeDegrees>43.39649942703545093536376953125</LatitudeDegrees>
              <LongitudeDegrees>-4.590299986302852630615234375</LongitudeDegrees>
            </Position>
            <AltitudeMeters>34.200000762939453125</AltitudeMeters>
            <DistanceMeters>NAN</DistanceMeters>
          </Trackpoint>
          <Trackpoint>
            <Time>2022-07-15T11:28:22.000Z</Time>
            <Position>
              <LatitudeDegrees>43.39647646062076091766357421875</LatitudeDegrees>
              <LongitudeDegrees>-4.5902729965746402740478515625</LongitudeDegrees>
            </Position>
            <AltitudeMeters>34</AltitudeMeters>
            <DistanceMeters>NAN</DistanceMeters>
          </Trackpoint>
          <Trackpoint>
            <Time>2022-07-15T11:28:24.000Z</Time>
            <Position>
              <LatitudeDegrees>43.39644628576934337615966796875</LatitudeDegrees>
              <LongitudeDegrees>-4.59027685225009918212890625</LongitudeDegrees>
            </Position>
            <AltitudeMeters>34</AltitudeMeters>
            <DistanceMeters>NAN</DistanceMeters>
          </Trackpoint>
          <Trackpoint>
            <Time>2022-07-15T11:28:26.000Z</Time>
            <Position>
              <LatitudeDegrees>43.39643572457134723663330078125</LatitudeDegrees>
              <LongitudeDegrees>-4.59030576981604099273681640625</LongitudeDegrees>
            </Position>
            <AltitudeMeters>34</AltitudeMeters>
            <DistanceMeters>NAN</DistanceMeters>
          </Trackpoint>
          <Trackpoint>
            <Time>2022-07-15T11:28:31.000Z</Time>
            <Position>
              <LatitudeDegrees>43.3964773826301097869873046875</LatitudeDegrees>
              <LongitudeDegrees>-4.59039310924708843231201171875</LongitudeDegrees>
            </Position>
            <AltitudeMeters>34.200000762939453125</AltitudeMeters>
            <DistanceMeters>NAN</DistanceMeters>
          </Trackpoint>
          <Trackpoint>
            <Time>2022-07-15T11:28:37.000Z</Time>
            <Position>
              <LatitudeDegrees>43.3965249918401241302490234375</LatitudeDegrees>
              <LongitudeDegrees>-4.5905378647148609161376953125</LongitudeDegrees>
            </Position>
            <AltitudeMeters>34</AltitudeMeters>
            <DistanceMeters>NAN</DistanceMeters>
          </Trackpoint>
          <Trackpoint>
            <Time>2022-07-15T11:28:41.000Z</Time>
            <Position>
              <LatitudeDegrees>43.396524824202060699462890625</LatitudeDegrees>
              <LongitudeDegrees>-4.5905445702373981475830078125</LongitudeDegrees>
            </Position>
            <AltitudeMeters>34.59999847412109375</AltitudeMeters>
            <DistanceMeters>NAN</DistanceMeters>
          </Trackpoint>
          <Trackpoint>
            <Time>2022-07-15T11:35:28.000Z</Time>
            <Position>
              <LatitudeDegrees>43.39663378894329071044921875</LatitudeDegrees>
              <LongitudeDegrees>-4.59113960154354572296142578125</LongitudeDegrees>
            </Position>
            <AltitudeMeters>34.59999847412109375</AltitudeMeters>
            <DistanceMeters>NAN</DistanceMeters>
          </Trackpoint>
          <Trackpoint>
            <Time>2022-07-15T11:35:29.000Z</Time>
            <Position>
              <LatitudeDegrees>43.39661861769855022430419921875</LatitudeDegrees>
              <LongitudeDegrees>-4.591130129992961883544921875</LongitudeDegrees>
            </Position>
            <AltitudeMeters>34.799999237060546875</AltitudeMeters>
            <DistanceMeters>NAN</DistanceMeters>
          </Trackpoint>
          <Trackpoint>
            <Time>2022-07-15T11:35:31.000Z</Time>
            <Position>
              <LatitudeDegrees>43.396587185561656951904296875</LatitudeDegrees>
              <LongitudeDegrees>-4.59111579693853855133056640625</LongitudeDegrees>
            </Position>
            <AltitudeMeters>35.40000152587890625</AltitudeMeters>
            <DistanceMeters>NAN</DistanceMeters>
          </Trackpoint>
          <Trackpoint>
            <Time>2022-07-15T11:35:33.000Z</Time>
            <Position>
              <LatitudeDegrees>43.39656128548085689544677734375</LatitudeDegrees>
              <LongitudeDegrees>-4.59110942669212818145751953125</LongitudeDegrees>
            </Position>
            <AltitudeMeters>35.59999847412109375</AltitudeMeters>
            <DistanceMeters>NAN</DistanceMeters>
          </Trackpoint>
          <Trackpoint>
            <Time>2022-07-15T11:35:35.000Z</Time>
            <Position>
              <LatitudeDegrees>43.3965430967509746551513671875</LatitudeDegrees>
              <LongitudeDegrees>-4.5911172218620777130126953125</LongitudeDegrees>
            </Position>
            <AltitudeMeters>36</AltitudeMeters>
            <DistanceMeters>NAN</DistanceMeters>
          </Trackpoint>
          <Trackpoint>
            <Time>2022-07-15T11:35:37.000Z</Time>
            <Position>
              <LatitudeDegrees>43.3965430967509746551513671875</LatitudeDegrees>
              <LongitudeDegrees>-4.5911172218620777130126953125</LongitudeDegrees>
            </Position>
            <AltitudeMeters>36</AltitudeMeters>
            <DistanceMeters>NAN</DistanceMeters>
          </Trackpoint>
          <Trackpoint>
            <Time>2022-07-15T11:35:44.000Z</Time>
            <Position>
              <LatitudeDegrees>43.3965541608631610870361328125</LatitudeDegrees>
              <LongitudeDegrees>-4.59116064012050628662109375</LongitudeDegrees>
            </Position>
            <AltitudeMeters>36.200000762939453125</AltitudeMeters>
            <DistanceMeters>NAN</DistanceMeters>
          </Trackpoint>
          <Trackpoint>
            <Time>2022-07-15T11:35:45.000Z</Time>
            <Position>
              <LatitudeDegrees>43.39655826799571514129638671875</LatitudeDegrees>
              <LongitudeDegrees>-4.5911876298487186431884765625</LongitudeDegrees>
            </Position>
            <AltitudeMeters>36.200000762939453125</AltitudeMeters>
            <DistanceMeters>NAN</DistanceMeters>
          </Trackpoint>
          <Trackpoint>
            <Time>2022-07-15T11:35:51.000Z</Time>
            <Position>
              <LatitudeDegrees>43.39654753915965557098388671875</LatitudeDegrees>
              <LongitudeDegrees>-4.59135266952216625213623046875</LongitudeDegrees>
            </Position>
            <AltitudeMeters>35.40000152587890625</AltitudeMeters>
            <DistanceMeters>NAN</DistanceMeters>
          </Trackpoint>
          <Trackpoint>
            <Time>2022-07-15T11:35:58.000Z</Time>
            <Position>
              <LatitudeDegrees>43.3965575136244297027587890625</LatitudeDegrees>
              <LongitudeDegrees>-4.5915098302066326141357421875</LongitudeDegrees>
            </Position>
            <AltitudeMeters>35.200000762939453125</AltitudeMeters>
            <DistanceMeters>NAN</DistanceMeters>
          </Trackpoint>
          <Trackpoint>
            <Time>2022-07-15T11:35:59.000Z</Time>
            <Position>
              <LatitudeDegrees>43.396555669605731964111328125</LatitudeDegrees>
              <LongitudeDegrees>-4.59152810275554656982421875</LongitudeDegrees>
            </Position>
            <AltitudeMeters>35.200000762939453125</AltitudeMeters>
            <DistanceMeters>NAN</DistanceMeters>
          </Trackpoint>
          <Trackpoint>
            <Time>2022-07-15T11:36:02.000Z</Time>
            <Position>
              <LatitudeDegrees>43.39654854498803615570068359375</LatitudeDegrees>
              <LongitudeDegrees>-4.59155819378793239593505859375</LongitudeDegrees>
            </Position>
            <AltitudeMeters>35.200000762939453125</AltitudeMeters>
            <DistanceMeters>NAN</DistanceMeters>
          </Trackpoint>
          <Trackpoint>
            <Time>2022-07-15T11:36:04.000Z</Time>
            <Position>
              <LatitudeDegrees>43.39655064046382904052734375</LatitudeDegrees>
              <LongitudeDegrees>-4.59155584685504436492919921875</LongitudeDegrees>
            </Position>
            <AltitudeMeters>35</AltitudeMeters>
            <DistanceMeters>NAN</DistanceMeters>
          </Trackpoint>
          <Trackpoint>
            <Time>2022-07-15T11:36:11.000Z</Time>
            <Position>
              <LatitudeDegrees>43.3965595252811908721923828125</LatitudeDegrees>
              <LongitudeDegrees>-4.59156020544469356536865234375</LongitudeDegrees>
            </Position>
            <AltitudeMeters>34.799999237060546875</AltitudeMeters>
            <DistanceMeters>NAN</DistanceMeters>
          </Trackpoint>
          <Trackpoint>
            <Time>2022-07-15T11:36:12.000Z</Time>
            <Position>
              <LatitudeDegrees>43.39656346477568149566650390625</LatitudeDegrees>
              <LongitudeDegrees>-4.5915768854320049285888671875</LongitudeDegrees>
            </Position>
            <AltitudeMeters>34.799999237060546875</AltitudeMeters>
            <DistanceMeters>NAN</DistanceMeters>
          </Trackpoint>
          <Trackpoint>
            <Time>2022-07-15T11:36:16.000Z</Time>
            <Position>
              <LatitudeDegrees>43.396574445068836212158203125</LatitudeDegrees>
              <LongitudeDegrees>-4.59165927954018115997314453125</LongitudeDegrees>
            </Position>
            <AltitudeMeters>34</AltitudeMeters>
            <DistanceMeters>NAN</DistanceMeters>
          </Trackpoint>
          <Trackpoint>
            <Time>2022-07-15T11:36:17.000Z</Time>
            <Position>
              <LatitudeDegrees>43.39657771401107311248779296875</LatitudeDegrees>
              <LongitudeDegrees>-4.59167428314685821533203125</LongitudeDegrees>
            </Position>
            <AltitudeMeters>34</AltitudeMeters>
            <DistanceMeters>NAN</DistanceMeters>
          </Trackpoint>
          <Trackpoint>
            <Time>2022-07-15T11:36:19.000Z</Time>
            <Position>
              <LatitudeDegrees>43.39657821692526340484619140625</LatitudeDegrees>
              <LongitudeDegrees>-4.5916965790092945098876953125</LongitudeDegrees>
            </Position>
            <AltitudeMeters>33.59999847412109375</AltitudeMeters>
            <DistanceMeters>NAN</DistanceMeters>
          </Trackpoint>
          <Trackpoint>
            <Time>2022-07-15T11:36:22.000Z</Time>
            <Position>
              <LatitudeDegrees>43.39657737873494625091552734375</LatitudeDegrees>
              <LongitudeDegrees>-4.5917009375989437103271484375</LongitudeDegrees>
            </Position>
            <AltitudeMeters>33.59999847412109375</AltitudeMeters>
            <DistanceMeters>NAN</DistanceMeters>
          </Trackpoint>
          <Trackpoint>
            <Time>2022-07-15T11:37:08.000Z</Time>
            <Position>
              <LatitudeDegrees>43.3965236507356166839599609375</LatitudeDegrees>
              <LongitudeDegrees>-4.5920080505311489105224609375</LongitudeDegrees>
            </Position>
            <AltitudeMeters>32.200000762939453125</AltitudeMeters>
            <DistanceMeters>NAN</DistanceMeters>
          </Trackpoint>
          <Trackpoint>
            <Time>2022-07-15T11:37:09.000Z</Time>
            <Position>
              <LatitudeDegrees>43.39651250280439853668212890625</LatitudeDegrees>
              <LongitudeDegrees>-4.5920288376510143280029296875</LongitudeDegrees>
            </Position>
            <AltitudeMeters>31.799999237060546875</AltitudeMeters>
            <DistanceMeters>NAN</DistanceMeters>
          </Trackpoint>
          <Trackpoint>
            <Time>2022-07-15T11:37:10.000Z</Time>
            <Position>
              <LatitudeDegrees>43.3965001814067363739013671875</LatitudeDegrees>
              <LongitudeDegrees>-4.59204417653381824493408203125</LongitudeDegrees>
            </Position>
            <AltitudeMeters>31.6000003814697265625</AltitudeMeters>
            <DistanceMeters>NAN</DistanceMeters>
          </Trackpoint>
          <Trackpoint>
            <Time>2022-07-15T11:37:13.000Z</Time>
            <Position>
              <LatitudeDegrees>43.39648920111358165740966796875</LatitudeDegrees>
              <LongitudeDegrees>-4.5920854993164539337158203125</LongitudeDegrees>
            </Position>
            <AltitudeMeters>31.3999996185302734375</AltitudeMeters>
            <DistanceMeters>NAN</DistanceMeters>
          </Trackpoint>
          <Trackpoint>
            <Time>2022-07-15T11:37:14.000Z</Time>
            <Position>
              <LatitudeDegrees>43.3964931406080722808837890625</LatitudeDegrees>
              <LongitudeDegrees>-4.5921049453318119049072265625</LongitudeDegrees>
            </Position>
            <AltitudeMeters>31</AltitudeMeters>
            <DistanceMeters>NAN</DistanceMeters>
          </Trackpoint>
          <Trackpoint>
            <Time>2022-07-15T11:37:15.000Z</Time>
            <Position>
              <LatitudeDegrees>43.3964931406080722808837890625</LatitudeDegrees>
              <LongitudeDegrees>-4.592110477387905120849609375</LongitudeDegrees>
            </Position>
            <AltitudeMeters>30.799999237060546875</AltitudeMeters>
            <DistanceMeters>NAN</DistanceMeters>
          </Trackpoint>
          <Trackpoint>
            <Time>2022-07-15T11:37:16.000Z</Time>
            <Position>
              <LatitudeDegrees>43.3964931406080722808837890625</LatitudeDegrees>
              <LongitudeDegrees>-4.592110477387905120849609375</LongitudeDegrees>
            </Position>
            <AltitudeMeters>30.6000003814697265625</AltitudeMeters>
            <DistanceMeters>NAN</DistanceMeters>
          </Trackpoint>
          <Trackpoint>
            <Time>2022-07-15T11:37:21.000Z</Time>
            <Position>
              <LatitudeDegrees>43.39650143869221210479736328125</LatitudeDegrees>
              <LongitudeDegrees>-4.5921803824603557586669921875</LongitudeDegrees>
            </Position>
            <AltitudeMeters>29.799999237060546875</AltitudeMeters>
            <DistanceMeters>NAN</DistanceMeters>
          </Trackpoint>
          <Trackpoint>
            <Time>2022-07-15T11:37:23.000Z</Time>
            <Position>
              <LatitudeDegrees>43.3965209685266017913818359375</LatitudeDegrees>
              <LongitudeDegrees>-4.5922471024096012115478515625</LongitudeDegrees>
            </Position>
            <AltitudeMeters>29</AltitudeMeters>
            <DistanceMeters>NAN</DistanceMeters>
          </Trackpoint>
          <Trackpoint>
            <Time>2022-07-15T11:37:24.000Z</Time>
            <Position>
              <LatitudeDegrees>43.3965392410755157470703125</LatitudeDegrees>
              <LongitudeDegrees>-4.592277109622955322265625</LongitudeDegrees>
            </Position>
            <AltitudeMeters>28.799999237060546875</AltitudeMeters>
            <DistanceMeters>NAN</DistanceMeters>
          </Trackpoint>
          <Trackpoint>
            <Time>2022-07-15T11:37:28.000Z</Time>
            <Position>
              <LatitudeDegrees>43.3965923823416233062744140625</LatitudeDegrees>
              <LongitudeDegrees>-4.59240627475082874298095703125</LongitudeDegrees>
            </Position>
            <AltitudeMeters>28.200000762939453125</AltitudeMeters>
            <DistanceMeters>NAN</DistanceMeters>
          </Trackpoint>
          <Trackpoint>
            <Time>2022-07-15T11:37:32.000Z</Time>
            <Position>
              <LatitudeDegrees>43.39664108119904994964599609375</LatitudeDegrees>
              <LongitudeDegrees>-4.59246419370174407958984375</LongitudeDegrees>
            </Position>
            <AltitudeMeters>28.799999237060546875</AltitudeMeters>
            <DistanceMeters>NAN</DistanceMeters>
          </Trackpoint>
          <Trackpoint>
            <Time>2022-07-15T11:37:33.000Z</Time>
            <Position>
              <LatitudeDegrees>43.3966554142534732818603515625</LatitudeDegrees>
              <LongitudeDegrees>-4.59247081540524959564208984375</LongitudeDegrees>
            </Position>
            <AltitudeMeters>28.799999237060546875</AltitudeMeters>
            <DistanceMeters>NAN</DistanceMeters>
          </Trackpoint>
          <Trackpoint>
            <Time>2022-07-15T11:37:34.000Z</Time>
            <Position>
              <LatitudeDegrees>43.39666723273694515228271484375</LatitudeDegrees>
              <LongitudeDegrees>-4.5924848131835460662841796875</LongitudeDegrees>
            </Position>
            <AltitudeMeters>28.799999237060546875</AltitudeMeters>
            <DistanceMeters>NAN</DistanceMeters>
          </Trackpoint>
          <Trackpoint>
            <Time>2022-07-15T11:37:38.000Z</Time>
            <Position>
              <LatitudeDegrees>43.39668584056198596954345703125</LatitudeDegrees>
              <LongitudeDegrees>-4.59251389838755130767822265625</LongitudeDegrees>
            </Position>
            <AltitudeMeters>29</AltitudeMeters>
            <DistanceMeters>NAN</DistanceMeters>
          </Trackpoint>
          <Trackpoint>
            <Time>2022-07-15T11:38:09.000Z</Time>
            <Position>
              <LatitudeDegrees>43.39667058549821376800537109375</LatitudeDegrees>
              <LongitudeDegrees>-4.59253535605967044830322265625</LongitudeDegrees>
            </Position>
            <AltitudeMeters>28.6000003814697265625</AltitudeMeters>
            <DistanceMeters>NAN</DistanceMeters>
          </Trackpoint>
          <Trackpoint>
            <Time>2022-07-15T11:38:12.000Z</Time>
            <Position>
              <LatitudeDegrees>43.39663035236299037933349609375</LatitudeDegrees>
              <LongitudeDegrees>-4.59260224364697933197021484375</LongitudeDegrees>
            </Position>
            <AltitudeMeters>28.799999237060546875</AltitudeMeters>
            <DistanceMeters>NAN</DistanceMeters>
          </Trackpoint>
          <Trackpoint>
            <Time>2022-07-15T11:38:16.000Z</Time>
            <Position>
              <LatitudeDegrees>43.3966245688498020172119140625</LatitudeDegrees>
              <LongitudeDegrees>-4.592673741281032562255859375</LongitudeDegrees>
            </Position>
            <AltitudeMeters>29.799999237060546875</AltitudeMeters>
            <DistanceMeters>NAN</DistanceMeters>
          </Trackpoint>
          <Trackpoint>
            <Time>2022-07-15T11:38:17.000Z</Time>
            <Position>
              <LatitudeDegrees>43.39663052000105381011962890625</LatitudeDegrees>
              <LongitudeDegrees>-4.59269427694380283355712890625</LongitudeDegrees>
            </Position>
            <AltitudeMeters>30</AltitudeMeters>
            <DistanceMeters>NAN</DistanceMeters>
          </Trackpoint>
          <Trackpoint>
            <Time>2022-07-15T11:38:21.000Z</Time>
            <Position>
              <LatitudeDegrees>43.39664929546415805816650390625</LatitudeDegrees>
              <LongitudeDegrees>-4.592773653566837310791015625</LongitudeDegrees>
            </Position>
            <AltitudeMeters>30.3999996185302734375</AltitudeMeters>
            <DistanceMeters>NAN</DistanceMeters>
          </Trackpoint>
          <Trackpoint>
            <Time>2022-07-15T11:38:23.000Z</Time>
            <Position>
              <LatitudeDegrees>43.3966492116451263427734375</LatitudeDegrees>
              <LongitudeDegrees>-4.59282067604362964630126953125</LongitudeDegrees>
            </Position>
            <AltitudeMeters>30.3999996185302734375</AltitudeMeters>
            <DistanceMeters>NAN</DistanceMeters>
          </Trackpoint>
          <Trackpoint>
            <Time>2022-07-15T11:38:25.000Z</Time>
            <Position>
              <LatitudeDegrees>43.39663621969521045684814453125</LatitudeDegrees>
              <LongitudeDegrees>-4.5928573049604892730712890625</LongitudeDegrees>
            </Position>
            <AltitudeMeters>30.200000762939453125</AltitudeMeters>
            <DistanceMeters>NAN</DistanceMeters>
          </Trackpoint>
          <Trackpoint>
            <Time>2022-07-15T11:38:26.000Z</Time>
            <Position>
              <LatitudeDegrees>43.39662465266883373260498046875</LatitudeDegrees>
              <LongitudeDegrees>-4.59287188947200775146484375</LongitudeDegrees>
            </Position>
            <AltitudeMeters>30</AltitudeMeters>
            <DistanceMeters>NAN</DistanceMeters>
          </Trackpoint>
          <Trackpoint>
            <Time>2022-07-15T11:38:29.000Z</Time>
            <Position>
              <LatitudeDegrees>43.39661828242242336273193359375</LatitudeDegrees>
              <LongitudeDegrees>-4.59287901408970355987548828125</LongitudeDegrees>
            </Position>
            <AltitudeMeters>29.200000762939453125</AltitudeMeters>
            <DistanceMeters>NAN</DistanceMeters>
          </Trackpoint>
          <Trackpoint>
            <Time>2022-07-15T11:38:54.000Z</Time>
            <Position>
              <LatitudeDegrees>43.396612666547298431396484375</LatitudeDegrees>
              <LongitudeDegrees>-4.5930212549865245819091796875</LongitudeDegrees>
            </Position>
            <AltitudeMeters>26.6000003814697265625</AltitudeMeters>
            <DistanceMeters>NAN</DistanceMeters>
          </Trackpoint>
          <Trackpoint>
            <Time>2022-07-15T11:38:56.000Z</Time>
            <Position>
              <LatitudeDegrees>43.396634794771671295166015625</LatitudeDegrees>
              <LongitudeDegrees>-4.593079090118408203125</LongitudeDegrees>
            </Position>
            <AltitudeMeters>26.3999996185302734375</AltitudeMeters>
            <DistanceMeters>NAN</DistanceMeters>
          </Trackpoint>
          <Trackpoint>
            <Time>2022-07-15T11:38:59.000Z</Time>
            <Position>
              <LatitudeDegrees>43.3966591022908687591552734375</LatitudeDegrees>
              <LongitudeDegrees>-4.59315679036080837249755859375</LongitudeDegrees>
            </Position>
            <AltitudeMeters>25.6000003814697265625</AltitudeMeters>
            <DistanceMeters>NAN</DistanceMeters>
          </Trackpoint>
          <Trackpoint>
            <Time>2022-07-15T11:39:02.000Z</Time>
            <Position>
              <LatitudeDegrees>43.39669774286448955535888671875</LatitudeDegrees>
              <LongitudeDegrees>-4.593245051801204681396484375</LongitudeDegrees>
            </Position>
            <AltitudeMeters>25</AltitudeMeters>
            <DistanceMeters>NAN</DistanceMeters>
          </Trackpoint>
          <Trackpoint>
            <Time>2022-07-15T11:39:03.000Z</Time>
            <Position>
              <LatitudeDegrees>43.39670562185347080230712890625</LatitudeDegrees>
              <LongitudeDegrees>-4.59326558746397495269775390625</LongitudeDegrees>
            </Position>
            <AltitudeMeters>25</AltitudeMeters>
            <DistanceMeters>NAN</DistanceMeters>
          </Trackpoint>
          <Trackpoint>
            <Time>2022-07-15T11:39:07.000Z</Time>
            <Position>
              <LatitudeDegrees>43.39671961963176727294921875</LatitudeDegrees>
              <LongitudeDegrees>-4.5933084189891815185546875</LongitudeDegrees>
            </Position>
            <AltitudeMeters>24.799999237060546875</AltitudeMeters>
            <DistanceMeters>NAN</DistanceMeters>
          </Trackpoint>
          <Trackpoint>
            <Time>2022-07-15T11:39:08.000Z</Time>
            <Position>
              <LatitudeDegrees>43.39671961963176727294921875</LatitudeDegrees>
              <LongitudeDegrees>-4.5933084189891815185546875</LongitudeDegrees>
            </Position>
            <AltitudeMeters>24.799999237060546875</AltitudeMeters>
            <DistanceMeters>NAN</DistanceMeters>
          </Trackpoint>
          <Trackpoint>
            <Time>2022-07-15T11:40:24.000Z</Time>
            <Position>
              <LatitudeDegrees>43.3967908658087253570556640625</LatitudeDegrees>
              <LongitudeDegrees>-4.5935245044529438018798828125</LongitudeDegrees>
            </Position>
            <AltitudeMeters>28.3999996185302734375</AltitudeMeters>
            <DistanceMeters>NAN</DistanceMeters>
          </Trackpoint>
          <Trackpoint>
            <Time>2022-07-15T11:40:27.000Z</Time>
            <Position>
              <LatitudeDegrees>43.3968113176524639129638671875</LatitudeDegrees>
              <LongitudeDegrees>-4.59356599487364292144775390625</LongitudeDegrees>
            </Position>
            <AltitudeMeters>28.3999996185302734375</AltitudeMeters>
            <DistanceMeters>NAN</DistanceMeters>
          </Trackpoint>
          <Trackpoint>
            <Time>2022-07-15T11:40:32.000Z</Time>
            <Position>
              <LatitudeDegrees>43.39681626297533512115478515625</LatitudeDegrees>
              <LongitudeDegrees>-4.59363623522222042083740234375</LongitudeDegrees>
            </Position>
            <AltitudeMeters>28.6000003814697265625</AltitudeMeters>
            <DistanceMeters>NAN</DistanceMeters>
          </Trackpoint>
          <Trackpoint>
            <Time>2022-07-15T11:40:34.000Z</Time>
            <Position>
              <LatitudeDegrees>43.3968160115182399749755859375</LatitudeDegrees>
              <LongitudeDegrees>-4.5936663262546062469482421875</LongitudeDegrees>
            </Position>
            <AltitudeMeters>28.799999237060546875</AltitudeMeters>
            <DistanceMeters>NAN</DistanceMeters>
          </Trackpoint>
          <Trackpoint>
            <Time>2022-07-15T11:40:37.000Z</Time>
            <Position>
              <LatitudeDegrees>43.3968176878988742828369140625</LatitudeDegrees>
              <LongitudeDegrees>-4.59367118775844573974609375</LongitudeDegrees>
            </Position>
            <AltitudeMeters>29.200000762939453125</AltitudeMeters>
            <DistanceMeters>NAN</DistanceMeters>
          </Trackpoint>
          <Trackpoint>
            <Time>2022-07-15T11:41:55.000Z</Time>
            <Position>
              <LatitudeDegrees>43.39683403261005878448486328125</LatitudeDegrees>
              <LongitudeDegrees>-4.593711085617542266845703125</LongitudeDegrees>
            </Position>
            <AltitudeMeters>28.6000003814697265625</AltitudeMeters>
            <DistanceMeters>NAN</DistanceMeters>
          </Trackpoint>
          <Trackpoint>
            <Time>2022-07-15T11:41:56.000Z</Time>
            <Position>
              <LatitudeDegrees>43.39682984165847301483154296875</LatitudeDegrees>
              <LongitudeDegrees>-4.59368753246963024139404296875</LongitudeDegrees>
            </Position>
            <AltitudeMeters>28.6000003814697265625</AltitudeMeters>
            <DistanceMeters>NAN</DistanceMeters>
          </Trackpoint>
          <Trackpoint>
            <Time>2022-07-15T11:42:04.000Z</Time>
            <Position>
              <LatitudeDegrees>43.396797068417072296142578125</LatitudeDegrees>
              <LongitudeDegrees>-4.59352257661521434783935546875</LongitudeDegrees>
            </Position>
            <AltitudeMeters>28.799999237060546875</AltitudeMeters>
            <DistanceMeters>NAN</DistanceMeters>
          </Trackpoint>
          <Trackpoint>
            <Time>2022-07-15T11:42:10.000Z</Time>
            <Position>
              <LatitudeDegrees>43.3967724256217479705810546875</LatitudeDegrees>
              <LongitudeDegrees>-4.59345937706530094146728515625</LongitudeDegrees>
            </Position>
            <AltitudeMeters>28</AltitudeMeters>
            <DistanceMeters>NAN</DistanceMeters>
          </Trackpoint>
          <Trackpoint>
            <Time>2022-07-15T11:42:13.000Z</Time>
            <Position>
              <LatitudeDegrees>43.396766893565654754638671875</LatitudeDegrees>
              <LongitudeDegrees>-4.593429453670978546142578125</LongitudeDegrees>
            </Position>
            <AltitudeMeters>27.3999996185302734375</AltitudeMeters>
            <DistanceMeters>NAN</DistanceMeters>
          </Trackpoint>
          <Trackpoint>
            <Time>2022-07-15T11:42:17.000Z</Time>
            <Position>
              <LatitudeDegrees>43.3967430889606475830078125</LatitudeDegrees>
              <LongitudeDegrees>-4.59338393993675708770751953125</LongitudeDegrees>
            </Position>
            <AltitudeMeters>26.6000003814697265625</AltitudeMeters>
            <DistanceMeters>NAN</DistanceMeters>
          </Trackpoint>
          <Trackpoint>
            <Time>2022-07-15T11:42:18.000Z</Time>
            <Position>
              <LatitudeDegrees>43.39674334041774272918701171875</LatitudeDegrees>
              <LongitudeDegrees>-4.59337388165295124053955078125</LongitudeDegrees>
            </Position>
            <AltitudeMeters>26.3999996185302734375</AltitudeMeters>
            <DistanceMeters>NAN</DistanceMeters>
          </Trackpoint>
          <Trackpoint>
            <Time>2022-07-15T11:42:22.000Z</Time>
            <Position>
              <LatitudeDegrees>43.39674015529453754425048828125</LatitudeDegrees>
              <LongitudeDegrees>-4.5933432877063751220703125</LongitudeDegrees>
            </Position>
            <AltitudeMeters>25.799999237060546875</AltitudeMeters>
            <DistanceMeters>NAN</DistanceMeters>
          </Trackpoint>
          <Trackpoint>
            <Time>2022-07-15T11:42:24.000Z</Time>
            <Position>
              <LatitudeDegrees>43.39674015529453754425048828125</LatitudeDegrees>
              <LongitudeDegrees>-4.5933432877063751220703125</LongitudeDegrees>
            </Position>
            <AltitudeMeters>25.200000762939453125</AltitudeMeters>
            <DistanceMeters>NAN</DistanceMeters>
          </Trackpoint>
          <Trackpoint>
            <Time>2022-07-15T11:42:25.000Z</Time>
            <Position>
              <LatitudeDegrees>43.39674166403710842132568359375</LatitudeDegrees>
              <LongitudeDegrees>-4.593340270221233367919921875</LongitudeDegrees>
            </Position>
            <AltitudeMeters>25</AltitudeMeters>
            <DistanceMeters>NAN</DistanceMeters>
          </Trackpoint>
          <Trackpoint>
            <Time>2022-07-15T11:47:33.000Z</Time>
            <Position>
              <LatitudeDegrees>43.39682632125914096832275390625</LatitudeDegrees>
              <LongitudeDegrees>-4.59372843615710735321044921875</LongitudeDegrees>
            </Position>
            <AltitudeMeters>30</AltitudeMeters>
            <DistanceMeters>NAN</DistanceMeters>
          </Trackpoint>
          <Trackpoint>
            <Time>2022-07-15T11:47:34.000Z</Time>
            <Position>
              <LatitudeDegrees>43.39682950638234615325927734375</LatitudeDegrees>
              <LongitudeDegrees>-4.593735225498676300048828125</LongitudeDegrees>
            </Position>
            <AltitudeMeters>30</AltitudeMeters>
            <DistanceMeters>NAN</DistanceMeters>
          </Trackpoint>
          <Trackpoint>
            <Time>2022-07-15T11:47:39.000Z</Time>
            <Position>
              <LatitudeDegrees>43.39684777893126010894775390625</LatitudeDegrees>
              <LongitudeDegrees>-4.59378384053707122802734375</LongitudeDegrees>
            </Position>
            <AltitudeMeters>29.3999996185302734375</AltitudeMeters>
            <DistanceMeters>NAN</DistanceMeters>
          </Trackpoint>
          <Trackpoint>
            <Time>2022-07-15T11:47:41.000Z</Time>
            <Position>
              <LatitudeDegrees>43.39685314334928989410400390625</LatitudeDegrees>
              <LongitudeDegrees>-4.59381795488297939300537109375</LongitudeDegrees>
            </Position>
            <AltitudeMeters>29.200000762939453125</AltitudeMeters>
            <DistanceMeters>NAN</DistanceMeters>
          </Trackpoint>
          <Trackpoint>
            <Time>2022-07-15T11:47:43.000Z</Time>
            <Position>
              <LatitudeDegrees>43.39686118997633457183837890625</LatitudeDegrees>
              <LongitudeDegrees>-4.59385852329432964324951171875</LongitudeDegrees>
            </Position>
            <AltitudeMeters>29.200000762939453125</AltitudeMeters>
            <DistanceMeters>NAN</DistanceMeters>
          </Trackpoint>
          <Trackpoint>
            <Time>2022-07-15T11:47:45.000Z</Time>
            <Position>
              <LatitudeDegrees>43.39687208645045757293701171875</LatitudeDegrees>
              <LongitudeDegrees>-4.593900851905345916748046875</LongitudeDegrees>
            </Position>
            <AltitudeMeters>29</AltitudeMeters>
            <DistanceMeters>NAN</DistanceMeters>
          </Trackpoint>
          <Trackpoint>
            <Time>2022-07-15T11:47:48.000Z</Time>
            <Position>
              <LatitudeDegrees>43.39689572341740131378173828125</LatitudeDegrees>
              <LongitudeDegrees>-4.59397385828197002410888671875</LongitudeDegrees>
            </Position>
            <AltitudeMeters>29</AltitudeMeters>
            <DistanceMeters>NAN</DistanceMeters>
          </Trackpoint>
          <Trackpoint>
            <Time>2022-07-15T11:47:52.000Z</Time>
            <Position>
              <LatitudeDegrees>43.39692858047783374786376953125</LatitudeDegrees>
              <LongitudeDegrees>-4.59407075308263301849365234375</LongitudeDegrees>
            </Position>
            <AltitudeMeters>28.3999996185302734375</AltitudeMeters>
            <DistanceMeters>NAN</DistanceMeters>
          </Trackpoint>
          <Trackpoint>
            <Time>2022-07-15T11:47:54.000Z</Time>
            <Position>
              <LatitudeDegrees>43.396935202181339263916015625</LatitudeDegrees>
              <LongitudeDegrees>-4.59411283023655414581298828125</LongitudeDegrees>
            </Position>
            <AltitudeMeters>28</AltitudeMeters>
            <DistanceMeters>NAN</DistanceMeters>
          </Trackpoint>
          <Trackpoint>
            <Time>2022-07-15T11:47:55.000Z</Time>
            <Position>
              <LatitudeDegrees>43.39694316498935222625732421875</LatitudeDegrees>
              <LongitudeDegrees>-4.594130180776119232177734375</LongitudeDegrees>
            </Position>
            <AltitudeMeters>28</AltitudeMeters>
            <DistanceMeters>NAN</DistanceMeters>
          </Trackpoint>
          <Trackpoint>
            <Time>2022-07-15T11:47:58.000Z</Time>
            <Position>
              <LatitudeDegrees>43.3969548158347606658935546875</LatitudeDegrees>
              <LongitudeDegrees>-4.59418105892837047576904296875</LongitudeDegrees>
            </Position>
            <AltitudeMeters>27.6000003814697265625</AltitudeMeters>
            <DistanceMeters>NAN</DistanceMeters>
          </Trackpoint>
          <Trackpoint>
            <Time>2022-07-15T11:47:59.000Z</Time>
            <Position>
              <LatitudeDegrees>43.39695297181606292724609375</LatitudeDegrees>
              <LongitudeDegrees>-4.5942044444382190704345703125</LongitudeDegrees>
            </Position>
            <AltitudeMeters>27.6000003814697265625</AltitudeMeters>
            <DistanceMeters>NAN</DistanceMeters>
          </Trackpoint>
          <Trackpoint>
            <Time>2022-07-15T11:48:01.000Z</Time>
            <Position>
              <LatitudeDegrees>43.3969635330140590667724609375</LatitudeDegrees>
              <LongitudeDegrees>-4.59425565786659717559814453125</LongitudeDegrees>
            </Position>
            <AltitudeMeters>27.3999996185302734375</AltitudeMeters>
            <DistanceMeters>NAN</DistanceMeters>
          </Trackpoint>
          <Trackpoint>
            <Time>2022-07-15T11:48:03.000Z</Time>
            <Position>
              <LatitudeDegrees>43.39698021300137042999267578125</LatitudeDegrees>
              <LongitudeDegrees>-4.59428541362285614013671875</LongitudeDegrees>
            </Position>
            <AltitudeMeters>27</AltitudeMeters>
            <DistanceMeters>NAN</DistanceMeters>
          </Trackpoint>
          <Trackpoint>
            <Time>2022-07-15T11:48:04.000Z</Time>
            <Position>
              <LatitudeDegrees>43.39698113501071929931640625</LatitudeDegrees>
              <LongitudeDegrees>-4.59429287351667881011962890625</LongitudeDegrees>
            </Position>
            <AltitudeMeters>26.799999237060546875</AltitudeMeters>
            <DistanceMeters>NAN</DistanceMeters>
          </Trackpoint>
          <Trackpoint>
            <Time>2022-07-15T11:48:07.000Z</Time>
            <Position>
              <LatitudeDegrees>43.39698113501071929931640625</LatitudeDegrees>
              <LongitudeDegrees>-4.59429287351667881011962890625</LongitudeDegrees>
            </Position>
            <AltitudeMeters>26.6000003814697265625</AltitudeMeters>
            <DistanceMeters>NAN</DistanceMeters>
          </Trackpoint>
          <Trackpoint>
            <Time>2022-07-15T11:49:21.000Z</Time>
            <Position>
              <LatitudeDegrees>43.39698608033359050750732421875</LatitudeDegrees>
              <LongitudeDegrees>-4.59440745413303375244140625</LongitudeDegrees>
            </Position>
            <AltitudeMeters>25.200000762939453125</AltitudeMeters>
            <DistanceMeters>NAN</DistanceMeters>
          </Trackpoint>
          <Trackpoint>
            <Time>2022-07-15T11:49:22.000Z</Time>
            <Position>
              <LatitudeDegrees>43.3969873376190662384033203125</LatitudeDegrees>
              <LongitudeDegrees>-4.5944381318986415863037109375</LongitudeDegrees>
            </Position>
            <AltitudeMeters>25.200000762939453125</AltitudeMeters>
            <DistanceMeters>NAN</DistanceMeters>
          </Trackpoint>
          <Trackpoint>
            <Time>2022-07-15T11:49:28.000Z</Time>
            <Position>
              <LatitudeDegrees>43.396978788077831268310546875</LatitudeDegrees>
              <LongitudeDegrees>-4.59461792372167110443115234375</LongitudeDegrees>
            </Position>
            <AltitudeMeters>24.6000003814697265625</AltitudeMeters>
            <DistanceMeters>NAN</DistanceMeters>
          </Trackpoint>
          <Trackpoint>
            <Time>2022-07-15T11:49:34.000Z</Time>
            <Position>
              <LatitudeDegrees>43.3969702385365962982177734375</LatitudeDegrees>
              <LongitudeDegrees>-4.59470123983919620513916015625</LongitudeDegrees>
            </Position>
            <AltitudeMeters>24.6000003814697265625</AltitudeMeters>
            <DistanceMeters>NAN</DistanceMeters>
          </Trackpoint>
          <Trackpoint>
            <Time>2022-07-15T11:49:38.000Z</Time>
            <Position>
              <LatitudeDegrees>43.3969724178314208984375</LatitudeDegrees>
              <LongitudeDegrees>-4.59474164061248302459716796875</LongitudeDegrees>
            </Position>
            <AltitudeMeters>24.3999996185302734375</AltitudeMeters>
            <DistanceMeters>NAN</DistanceMeters>
          </Trackpoint>
          <Trackpoint>
            <Time>2022-07-15T11:49:39.000Z</Time>
            <Position>
              <LatitudeDegrees>43.3969782851636409759521484375</LatitudeDegrees>
              <LongitudeDegrees>-4.5947586558759212493896484375</LongitudeDegrees>
            </Position>
            <AltitudeMeters>24.3999996185302734375</AltitudeMeters>
            <DistanceMeters>NAN</DistanceMeters>
          </Trackpoint>
          <Trackpoint>
            <Time>2022-07-15T11:49:40.000Z</Time>
            <Position>
              <LatitudeDegrees>43.396979458630084991455078125</LatitudeDegrees>
              <LongitudeDegrees>-4.5947801135480403900146484375</LongitudeDegrees>
            </Position>
            <AltitudeMeters>24.3999996185302734375</AltitudeMeters>
            <DistanceMeters>NAN</DistanceMeters>
          </Trackpoint>
          <Trackpoint>
            <Time>2022-07-15T11:49:42.000Z</Time>
            <Position>
              <LatitudeDegrees>43.39697048999369144439697265625</LatitudeDegrees>
              <LongitudeDegrees>-4.59480852819979190826416015625</LongitudeDegrees>
            </Position>
            <AltitudeMeters>24.200000762939453125</AltitudeMeters>
            <DistanceMeters>NAN</DistanceMeters>
          </Trackpoint>
          <Trackpoint>
            <Time>2022-07-15T11:49:44.000Z</Time>
            <Position>
              <LatitudeDegrees>43.39697048999369144439697265625</LatitudeDegrees>
              <LongitudeDegrees>-4.59480852819979190826416015625</LongitudeDegrees>
            </Position>
            <AltitudeMeters>24</AltitudeMeters>
            <DistanceMeters>NAN</DistanceMeters>
          </Trackpoint>
          <Trackpoint>
            <Time>2022-07-15T11:52:59.000Z</Time>
            <Position>
              <LatitudeDegrees>43.39690611697733402252197265625</LatitudeDegrees>
              <LongitudeDegrees>-4.594936184585094451904296875</LongitudeDegrees>
            </Position>
            <AltitudeMeters>23.200000762939453125</AltitudeMeters>
            <DistanceMeters>NAN</DistanceMeters>
          </Trackpoint>
          <Trackpoint>
            <Time>2022-07-15T11:53:00.000Z</Time>
            <Position>
              <LatitudeDegrees>43.3968810550868511199951171875</LatitudeDegrees>
              <LongitudeDegrees>-4.59495772607624530792236328125</LongitudeDegrees>
            </Position>
            <AltitudeMeters>22.799999237060546875</AltitudeMeters>
            <DistanceMeters>NAN</DistanceMeters>
          </Trackpoint>
          <Trackpoint>
            <Time>2022-07-15T11:53:01.000Z</Time>
            <Position>
              <LatitudeDegrees>43.3968495391309261322021484375</LatitudeDegrees>
              <LongitudeDegrees>-4.59497901611030101776123046875</LongitudeDegrees>
            </Position>
            <AltitudeMeters>22.6000003814697265625</AltitudeMeters>
            <DistanceMeters>NAN</DistanceMeters>
          </Trackpoint>
          <Trackpoint>
            <Time>2022-07-15T11:53:05.000Z</Time>
            <Position>
              <LatitudeDegrees>43.3967137522995471954345703125</LatitudeDegrees>
              <LongitudeDegrees>-4.59506300278007984161376953125</LongitudeDegrees>
            </Position>
            <AltitudeMeters>22</AltitudeMeters>
            <DistanceMeters>NAN</DistanceMeters>
          </Trackpoint>
          <Trackpoint>
            <Time>2022-07-15T11:53:06.000Z</Time>
            <Position>
              <LatitudeDegrees>43.39668751694262027740478515625</LatitudeDegrees>
              <LongitudeDegrees>-4.5950821973383426666259765625</LongitudeDegrees>
            </Position>
            <AltitudeMeters>22</AltitudeMeters>
            <DistanceMeters>NAN</DistanceMeters>
          </Trackpoint>
          <Trackpoint>
            <Time>2022-07-15T11:53:13.000Z</Time>
            <Position>
              <LatitudeDegrees>43.39656530879437923431396484375</LatitudeDegrees>
              <LongitudeDegrees>-4.595223180949687957763671875</LongitudeDegrees>
            </Position>
            <AltitudeMeters>21.799999237060546875</AltitudeMeters>
            <DistanceMeters>NAN</DistanceMeters>
          </Trackpoint>
          <Trackpoint>
            <Time>2022-07-15T11:53:18.000Z</Time>
            <Position>
              <LatitudeDegrees>43.39653429575264453887939453125</LatitudeDegrees>
              <LongitudeDegrees>-4.5953745581209659576416015625</LongitudeDegrees>
            </Position>
            <AltitudeMeters>21.799999237060546875</AltitudeMeters>
            <DistanceMeters>NAN</DistanceMeters>
          </Trackpoint>
          <Trackpoint>
            <Time>2022-07-15T11:53:24.000Z</Time>
            <Position>
              <LatitudeDegrees>43.39652121998369693756103515625</LatitudeDegrees>
              <LongitudeDegrees>-4.595511518418788909912109375</LongitudeDegrees>
            </Position>
            <AltitudeMeters>22.200000762939453125</AltitudeMeters>
            <DistanceMeters>NAN</DistanceMeters>
          </Trackpoint>
          <Trackpoint>
            <Time>2022-07-15T11:53:29.000Z</Time>
            <Position>
              <LatitudeDegrees>43.39650495909154415130615234375</LatitudeDegrees>
              <LongitudeDegrees>-4.59571561776101589202880859375</LongitudeDegrees>
            </Position>
            <AltitudeMeters>21.6000003814697265625</AltitudeMeters>
            <DistanceMeters>NAN</DistanceMeters>
          </Trackpoint>
          <Trackpoint>
            <Time>2022-07-15T11:53:31.000Z</Time>
            <Position>
              <LatitudeDegrees>43.39647042565047740936279296875</LatitudeDegrees>
              <LongitudeDegrees>-4.59579859860241413116455078125</LongitudeDegrees>
            </Position>
            <AltitudeMeters>20.799999237060546875</AltitudeMeters>
            <DistanceMeters>NAN</DistanceMeters>
          </Trackpoint>
          <Trackpoint>
            <Time>2022-07-15T11:53:35.000Z</Time>
            <Position>
              <LatitudeDegrees>43.3963908813893795013427734375</LatitudeDegrees>
              <LongitudeDegrees>-4.595951400697231292724609375</LongitudeDegrees>
            </Position>
            <AltitudeMeters>20.200000762939453125</AltitudeMeters>
            <DistanceMeters>NAN</DistanceMeters>
          </Trackpoint>
          <Trackpoint>
            <Time>2022-07-15T11:53:37.000Z</Time>
            <Position>
              <LatitudeDegrees>43.39637822471559047698974609375</LatitudeDegrees>
              <LongitudeDegrees>-4.5959840901196002960205078125</LongitudeDegrees>
            </Position>
            <AltitudeMeters>19.6000003814697265625</AltitudeMeters>
            <DistanceMeters>NAN</DistanceMeters>
          </Trackpoint>
          <Trackpoint>
            <Time>2022-07-15T11:53:38.000Z</Time>
            <Position>
              <LatitudeDegrees>43.396376632153987884521484375</LatitudeDegrees>
              <LongitudeDegrees>-4.5959874428808689117431640625</LongitudeDegrees>
            </Position>
            <AltitudeMeters>19.3999996185302734375</AltitudeMeters>
            <DistanceMeters>NAN</DistanceMeters>
          </Trackpoint>
          <Trackpoint>
            <Time>2022-07-15T11:53:39.000Z</Time>
            <Position>
              <LatitudeDegrees>43.396376632153987884521484375</LatitudeDegrees>
              <LongitudeDegrees>-4.5959874428808689117431640625</LongitudeDegrees>
            </Position>
            <AltitudeMeters>19.200000762939453125</AltitudeMeters>
            <DistanceMeters>NAN</DistanceMeters>
          </Trackpoint>
          <Trackpoint>
            <Time>2022-07-15T11:54:27.000Z</Time>
            <Position>
              <LatitudeDegrees>43.39636045508086681365966796875</LatitudeDegrees>
              <LongitudeDegrees>-4.5959126763045787811279296875</LongitudeDegrees>
            </Position>
            <AltitudeMeters>19.6000003814697265625</AltitudeMeters>
            <DistanceMeters>NAN</DistanceMeters>
          </Trackpoint>
          <Trackpoint>
            <Time>2022-07-15T11:54:29.000Z</Time>
            <Position>
              <LatitudeDegrees>43.39635089971125125885009765625</LatitudeDegrees>
              <LongitudeDegrees>-4.5958731137216091156005859375</LongitudeDegrees>
            </Position>
            <AltitudeMeters>20</AltitudeMeters>
            <DistanceMeters>NAN</DistanceMeters>
          </Trackpoint>
          <Trackpoint>
            <Time>2022-07-15T11:54:33.000Z</Time>
            <Position>
              <LatitudeDegrees>43.39633950032293796539306640625</LatitudeDegrees>
              <LongitudeDegrees>-4.59576071240007877349853515625</LongitudeDegrees>
            </Position>
            <AltitudeMeters>20.799999237060546875</AltitudeMeters>
            <DistanceMeters>NAN</DistanceMeters>
          </Trackpoint>
          <Trackpoint>
            <Time>2022-07-15T11:54:34.000Z</Time>
            <Position>
              <LatitudeDegrees>43.39632667601108551025390625</LatitudeDegrees>
              <LongitudeDegrees>-4.59572550840675830841064453125</LongitudeDegrees>
            </Position>
            <AltitudeMeters>20.799999237060546875</AltitudeMeters>
            <DistanceMeters>NAN</DistanceMeters>
          </Trackpoint>
          <Trackpoint>
            <Time>2022-07-15T11:54:36.000Z</Time>
            <Position>
              <LatitudeDegrees>43.39629314839839935302734375</LatitudeDegrees>
              <LongitudeDegrees>-4.5956716127693653106689453125</LongitudeDegrees>
            </Position>
            <AltitudeMeters>21.3999996185302734375</AltitudeMeters>
            <DistanceMeters>NAN</DistanceMeters>
          </Trackpoint>
          <Trackpoint>
            <Time>2022-07-15T11:54:37.000Z</Time>
            <Position>
              <LatitudeDegrees>43.39627328328788280487060546875</LatitudeDegrees>
              <LongitudeDegrees>-4.59565325640141963958740234375</LongitudeDegrees>
            </Position>
            <AltitudeMeters>21.799999237060546875</AltitudeMeters>
            <DistanceMeters>NAN</DistanceMeters>
          </Trackpoint>
          <Trackpoint>
            <Time>2022-07-15T11:54:40.000Z</Time>
            <Position>
              <LatitudeDegrees>43.39621938765048980712890625</LatitudeDegrees>
              <LongitudeDegrees>-4.595624841749668121337890625</LongitudeDegrees>
            </Position>
            <AltitudeMeters>22.3999996185302734375</AltitudeMeters>
            <DistanceMeters>NAN</DistanceMeters>
          </Trackpoint>
          <Trackpoint>
            <Time>2022-07-15T11:54:41.000Z</Time>
            <Position>
              <LatitudeDegrees>43.39620538987219333648681640625</LatitudeDegrees>
              <LongitudeDegrees>-4.595614783465862274169921875</LongitudeDegrees>
            </Position>
            <AltitudeMeters>23</AltitudeMeters>
            <DistanceMeters>NAN</DistanceMeters>
          </Trackpoint>
          <Trackpoint>
            <Time>2022-07-15T11:54:43.000Z</Time>
            <Position>
              <LatitudeDegrees>43.39616842567920684814453125</LatitudeDegrees>
              <LongitudeDegrees>-4.595598019659519195556640625</LongitudeDegrees>
            </Position>
            <AltitudeMeters>23.6000003814697265625</AltitudeMeters>
            <DistanceMeters>NAN</DistanceMeters>
          </Trackpoint>
          <Trackpoint>
            <Time>2022-07-15T11:54:45.000Z</Time>
            <Position>
              <LatitudeDegrees>43.39613498188555240631103515625</LatitudeDegrees>
              <LongitudeDegrees>-4.59561671130359172821044921875</LongitudeDegrees>
            </Position>
            <AltitudeMeters>24</AltitudeMeters>
            <DistanceMeters>NAN</DistanceMeters>
          </Trackpoint>
          <Trackpoint>
            <Time>2022-07-15T11:54:49.000Z</Time>
            <Position>
              <LatitudeDegrees>43.3961176313459873199462890625</LatitudeDegrees>
              <LongitudeDegrees>-4.59564051590859889984130859375</LongitudeDegrees>
            </Position>
            <AltitudeMeters>25.200000762939453125</AltitudeMeters>
            <DistanceMeters>NAN</DistanceMeters>
          </Trackpoint>
          <Trackpoint>
            <Time>2022-07-15T11:54:50.000Z</Time>
            <Position>
              <LatitudeDegrees>43.39611385948956012725830078125</LatitudeDegrees>
              <LongitudeDegrees>-4.59565325640141963958740234375</LongitudeDegrees>
            </Position>
            <AltitudeMeters>25.3999996185302734375</AltitudeMeters>
            <DistanceMeters>NAN</DistanceMeters>
          </Trackpoint>
          <Trackpoint>
            <Time>2022-07-15T11:54:53.000Z</Time>
            <Position>
              <LatitudeDegrees>43.396099694073200225830078125</LatitudeDegrees>
              <LongitudeDegrees>-4.59568996913731098175048828125</LongitudeDegrees>
            </Position>
            <AltitudeMeters>25.799999237060546875</AltitudeMeters>
            <DistanceMeters>NAN</DistanceMeters>
          </Trackpoint>
          <Trackpoint>
            <Time>2022-07-15T11:54:56.000Z</Time>
            <Position>
              <LatitudeDegrees>43.3960921503603458404541015625</LatitudeDegrees>
              <LongitudeDegrees>-4.59573523141443729400634765625</LongitudeDegrees>
            </Position>
            <AltitudeMeters>25.799999237060546875</AltitudeMeters>
            <DistanceMeters>NAN</DistanceMeters>
          </Trackpoint>
          <Trackpoint>
            <Time>2022-07-15T11:54:58.000Z</Time>
            <Position>
              <LatitudeDegrees>43.3960810862481594085693359375</LatitudeDegrees>
              <LongitudeDegrees>-4.5957661606371402740478515625</LongitudeDegrees>
            </Position>
            <AltitudeMeters>26</AltitudeMeters>
            <DistanceMeters>NAN</DistanceMeters>
          </Trackpoint>
          <Trackpoint>
            <Time>2022-07-15T11:55:01.000Z</Time>
            <Position>
              <LatitudeDegrees>43.396064825356006622314453125</LatitudeDegrees>
              <LongitudeDegrees>-4.59581787697970867156982421875</LongitudeDegrees>
            </Position>
            <AltitudeMeters>26.200000762939453125</AltitudeMeters>
            <DistanceMeters>NAN</DistanceMeters>
          </Trackpoint>
          <Trackpoint>
            <Time>2022-07-15T11:55:03.000Z</Time>
            <Position>
              <LatitudeDegrees>43.39606381952762603759765625</LatitudeDegrees>
              <LongitudeDegrees>-4.5958486385643482208251953125</LongitudeDegrees>
            </Position>
            <AltitudeMeters>26.200000762939453125</AltitudeMeters>
            <DistanceMeters>NAN</DistanceMeters>
          </Trackpoint>
          <Trackpoint>
            <Time>2022-07-15T11:55:05.000Z</Time>
            <Position>
              <LatitudeDegrees>43.39606256224215030670166015625</LatitudeDegrees>
              <LongitudeDegrees>-4.5958818309009075164794921875</LongitudeDegrees>
            </Position>
            <AltitudeMeters>26.3999996185302734375</AltitudeMeters>
            <DistanceMeters>NAN</DistanceMeters>
          </Trackpoint>
          <Trackpoint>
            <Time>2022-07-15T11:55:07.000Z</Time>
            <Position>
              <LatitudeDegrees>43.3960552699863910675048828125</LatitudeDegrees>
              <LongitudeDegrees>-4.59594435989856719970703125</LongitudeDegrees>
            </Position>
            <AltitudeMeters>26.3999996185302734375</AltitudeMeters>
            <DistanceMeters>NAN</DistanceMeters>
          </Trackpoint>
          <Trackpoint>
            <Time>2022-07-15T11:55:08.000Z</Time>
            <Position>
              <LatitudeDegrees>43.39605283923447132110595703125</LatitudeDegrees>
              <LongitudeDegrees>-4.5959804020822048187255859375</LongitudeDegrees>
            </Position>
            <AltitudeMeters>26.6000003814697265625</AltitudeMeters>
            <DistanceMeters>NAN</DistanceMeters>
          </Trackpoint>
          <Trackpoint>
            <Time>2022-07-15T11:55:11.000Z</Time>
            <Position>
              <LatitudeDegrees>43.39605770073831081390380859375</LatitudeDegrees>
              <LongitudeDegrees>-4.5960521511733531951904296875</LongitudeDegrees>
            </Position>
            <AltitudeMeters>27.799999237060546875</AltitudeMeters>
            <DistanceMeters>NAN</DistanceMeters>
          </Trackpoint>
          <Trackpoint>
            <Time>2022-07-15T11:55:12.000Z</Time>
            <Position>
              <LatitudeDegrees>43.3960572816431522369384765625</LatitudeDegrees>
              <LongitudeDegrees>-4.5960662327706813812255859375</LongitudeDegrees>
            </Position>
            <AltitudeMeters>28.200000762939453125</AltitudeMeters>
            <DistanceMeters>NAN</DistanceMeters>
          </Trackpoint>
          <Trackpoint>
            <Time>2022-07-15T11:55:15.000Z</Time>
            <Position>
              <LatitudeDegrees>43.396067507565021514892578125</LatitudeDegrees>
              <LongitudeDegrees>-4.5961081422865390777587890625</LongitudeDegrees>
            </Position>
            <AltitudeMeters>28.6000003814697265625</AltitudeMeters>
            <DistanceMeters>NAN</DistanceMeters>
          </Trackpoint>
          <Trackpoint>
            <Time>2022-07-15T11:55:17.000Z</Time>
            <Position>
              <LatitudeDegrees>43.39606993831694126129150390625</LatitudeDegrees>
              <LongitudeDegrees>-4.59611811675131320953369140625</LongitudeDegrees>
            </Position>
            <AltitudeMeters>28.6000003814697265625</AltitudeMeters>
            <DistanceMeters>NAN</DistanceMeters>
          </Trackpoint>
          <Trackpoint>
            <Time>2022-07-15T11:55:19.000Z</Time>
            <Position>
              <LatitudeDegrees>43.39606708846986293792724609375</LatitudeDegrees>
              <LongitudeDegrees>-4.5961537398397922515869140625</LongitudeDegrees>
            </Position>
            <AltitudeMeters>28.6000003814697265625</AltitudeMeters>
            <DistanceMeters>NAN</DistanceMeters>
          </Trackpoint>
          <Trackpoint>
            <Time>2022-07-15T11:55:25.000Z</Time>
            <Position>
              <LatitudeDegrees>43.3960579521954059600830078125</LatitudeDegrees>
              <LongitudeDegrees>-4.59625340066850185394287109375</LongitudeDegrees>
            </Position>
            <AltitudeMeters>28.200000762939453125</AltitudeMeters>
            <DistanceMeters>NAN</DistanceMeters>
          </Trackpoint>
          <Trackpoint>
            <Time>2022-07-15T11:55:26.000Z</Time>
            <Position>
              <LatitudeDegrees>43.3960582874715328216552734375</LatitudeDegrees>
              <LongitudeDegrees>-4.59626764990389347076416015625</LongitudeDegrees>
            </Position>
            <AltitudeMeters>28.200000762939453125</AltitudeMeters>
            <DistanceMeters>NAN</DistanceMeters>
          </Trackpoint>
          <Trackpoint>
            <Time>2022-07-15T11:55:32.000Z</Time>
            <Position>
              <LatitudeDegrees>43.396048061549663543701171875</LatitudeDegrees>
              <LongitudeDegrees>-4.5963312685489654541015625</LongitudeDegrees>
            </Position>
            <AltitudeMeters>28</AltitudeMeters>
            <DistanceMeters>NAN</DistanceMeters>
          </Trackpoint>
          <Trackpoint>
            <Time>2022-07-15T11:55:33.000Z</Time>
            <Position>
              <LatitudeDegrees>43.396048061549663543701171875</LatitudeDegrees>
              <LongitudeDegrees>-4.5963312685489654541015625</LongitudeDegrees>
            </Position>
            <AltitudeMeters>28</AltitudeMeters>
            <DistanceMeters>NAN</DistanceMeters>
          </Trackpoint>
          <Trackpoint>
            <Time>2022-07-15T11:55:39.000Z</Time>
            <Position>
              <LatitudeDegrees>43.39605149812996387481689453125</LatitudeDegrees>
              <LongitudeDegrees>-4.59622926078736782073974609375</LongitudeDegrees>
            </Position>
            <AltitudeMeters>28.3999996185302734375</AltitudeMeters>
            <DistanceMeters>NAN</DistanceMeters>
          </Trackpoint>
          <Trackpoint>
            <Time>2022-07-15T11:55:45.000Z</Time>
            <Position>
              <LatitudeDegrees>43.39605602435767650604248046875</LatitudeDegrees>
              <LongitudeDegrees>-4.59608442150056362152099609375</LongitudeDegrees>
            </Position>
            <AltitudeMeters>28.799999237060546875</AltitudeMeters>
            <DistanceMeters>NAN</DistanceMeters>
          </Trackpoint>
          <Trackpoint>
            <Time>2022-07-15T11:55:47.000Z</Time>
            <Position>
              <LatitudeDegrees>43.3960512466728687286376953125</LatitudeDegrees>
              <LongitudeDegrees>-4.596035219728946685791015625</LongitudeDegrees>
            </Position>
            <AltitudeMeters>29</AltitudeMeters>
            <DistanceMeters>NAN</DistanceMeters>
          </Trackpoint>
          <Trackpoint>
            <Time>2022-07-15T11:55:51.000Z</Time>
            <Position>
              <LatitudeDegrees>43.39605216868221759796142578125</LatitudeDegrees>
              <LongitudeDegrees>-4.5959436893463134765625</LongitudeDegrees>
            </Position>
            <AltitudeMeters>28.3999996185302734375</AltitudeMeters>
            <DistanceMeters>NAN</DistanceMeters>
          </Trackpoint>
          <Trackpoint>
            <Time>2022-07-15T11:55:52.000Z</Time>
            <Position>
              <LatitudeDegrees>43.39605283923447132110595703125</LatitudeDegrees>
              <LongitudeDegrees>-4.595915861427783966064453125</LongitudeDegrees>
            </Position>
            <AltitudeMeters>28.200000762939453125</AltitudeMeters>
            <DistanceMeters>NAN</DistanceMeters>
          </Trackpoint>
          <Trackpoint>
            <Time>2022-07-15T11:55:53.000Z</Time>
            <Position>
              <LatitudeDegrees>43.39605669490993022918701171875</LatitudeDegrees>
              <LongitudeDegrees>-4.59588132798671722412109375</LongitudeDegrees>
            </Position>
            <AltitudeMeters>28</AltitudeMeters>
            <DistanceMeters>NAN</DistanceMeters>
          </Trackpoint>
          <Trackpoint>
            <Time>2022-07-15T11:55:56.000Z</Time>
            <Position>
              <LatitudeDegrees>43.3960690163075923919677734375</LatitudeDegrees>
              <LongitudeDegrees>-4.59581804461777210235595703125</LongitudeDegrees>
            </Position>
            <AltitudeMeters>27.3999996185302734375</AltitudeMeters>
            <DistanceMeters>NAN</DistanceMeters>
          </Trackpoint>
          <Trackpoint>
            <Time>2022-07-15T11:56:02.000Z</Time>
            <Position>
              <LatitudeDegrees>43.39611335657536983489990234375</LatitudeDegrees>
              <LongitudeDegrees>-4.59571905434131622314453125</LongitudeDegrees>
            </Position>
            <AltitudeMeters>27.200000762939453125</AltitudeMeters>
            <DistanceMeters>NAN</DistanceMeters>
          </Trackpoint>
          <Trackpoint>
            <Time>2022-07-15T11:56:05.000Z</Time>
            <Position>
              <LatitudeDegrees>43.3961602114140987396240234375</LatitudeDegrees>
              <LongitudeDegrees>-4.59570229053497314453125</LongitudeDegrees>
            </Position>
            <AltitudeMeters>26.799999237060546875</AltitudeMeters>
            <DistanceMeters>NAN</DistanceMeters>
          </Trackpoint>
          <Trackpoint>
            <Time>2022-07-15T11:56:09.000Z</Time>
            <Position>
              <LatitudeDegrees>43.39623439125716686248779296875</LatitudeDegrees>
              <LongitudeDegrees>-4.59565996192395687103271484375</LongitudeDegrees>
            </Position>
            <AltitudeMeters>26</AltitudeMeters>
            <DistanceMeters>NAN</DistanceMeters>
          </Trackpoint>
          <Trackpoint>
            <Time>2022-07-15T11:56:10.000Z</Time>
            <Position>
              <LatitudeDegrees>43.3962537534534931182861328125</LatitudeDegrees>
              <LongitudeDegrees>-4.59565107710659503936767578125</LongitudeDegrees>
            </Position>
            <AltitudeMeters>25.6000003814697265625</AltitudeMeters>
            <DistanceMeters>NAN</DistanceMeters>
          </Trackpoint>
          <Trackpoint>
            <Time>2022-07-15T11:56:11.000Z</Time>
            <Position>
              <LatitudeDegrees>43.3962745405733585357666015625</LatitudeDegrees>
              <LongitudeDegrees>-4.595651663839817047119140625</LongitudeDegrees>
            </Position>
            <AltitudeMeters>25.3999996185302734375</AltitudeMeters>
            <DistanceMeters>NAN</DistanceMeters>
          </Trackpoint>
          <Trackpoint>
            <Time>2022-07-15T11:56:13.000Z</Time>
            <Position>
              <LatitudeDegrees>43.39630999602377414703369140625</LatitudeDegrees>
              <LongitudeDegrees>-4.59567002020776271820068359375</LongitudeDegrees>
            </Position>
            <AltitudeMeters>24.6000003814697265625</AltitudeMeters>
            <DistanceMeters>NAN</DistanceMeters>
          </Trackpoint>
          <Trackpoint>
            <Time>2022-07-15T11:56:14.000Z</Time>
            <Position>
              <LatitudeDegrees>43.39632390998303890228271484375</LatitudeDegrees>
              <LongitudeDegrees>-4.59568083286285400390625</LongitudeDegrees>
            </Position>
            <AltitudeMeters>24.3999996185302734375</AltitudeMeters>
            <DistanceMeters>NAN</DistanceMeters>
          </Trackpoint>
          <Trackpoint>
            <Time>2022-07-15T11:56:16.000Z</Time>
            <Position>
              <LatitudeDegrees>43.3963407576084136962890625</LatitudeDegrees>
              <LongitudeDegrees>-4.595715701580047607421875</LongitudeDegrees>
            </Position>
            <AltitudeMeters>24.200000762939453125</AltitudeMeters>
            <DistanceMeters>NAN</DistanceMeters>
          </Trackpoint>
          <Trackpoint>
            <Time>2022-07-15T11:56:18.000Z</Time>
            <Position>
              <LatitudeDegrees>43.3963459543883800506591796875</LatitudeDegrees>
              <LongitudeDegrees>-4.595755599439144134521484375</LongitudeDegrees>
            </Position>
            <AltitudeMeters>24</AltitudeMeters>
            <DistanceMeters>NAN</DistanceMeters>
          </Trackpoint>
          <Trackpoint>
            <Time>2022-07-15T11:56:19.000Z</Time>
            <Position>
              <LatitudeDegrees>43.3963462896645069122314453125</LatitudeDegrees>
              <LongitudeDegrees>-4.59577680565416812896728515625</LongitudeDegrees>
            </Position>
            <AltitudeMeters>23.799999237060546875</AltitudeMeters>
            <DistanceMeters>NAN</DistanceMeters>
          </Trackpoint>
          <Trackpoint>
            <Time>2022-07-15T11:56:21.000Z</Time>
            <Position>
              <LatitudeDegrees>43.396358527243137359619140625</LatitudeDegrees>
              <LongitudeDegrees>-4.5958181284368038177490234375</LongitudeDegrees>
            </Position>
            <AltitudeMeters>23.3999996185302734375</AltitudeMeters>
            <DistanceMeters>NAN</DistanceMeters>
          </Trackpoint>
          <Trackpoint>
            <Time>2022-07-15T11:56:24.000Z</Time>
            <Position>
              <LatitudeDegrees>43.39636732824146747589111328125</LatitudeDegrees>
              <LongitudeDegrees>-4.595876634120941162109375</LongitudeDegrees>
            </Position>
            <AltitudeMeters>22.799999237060546875</AltitudeMeters>
            <DistanceMeters>NAN</DistanceMeters>
          </Trackpoint>
          <Trackpoint>
            <Time>2022-07-15T11:56:26.000Z</Time>
            <Position>
              <LatitudeDegrees>43.39636749587953090667724609375</LatitudeDegrees>
              <LongitudeDegrees>-4.595925919711589813232421875</LongitudeDegrees>
            </Position>
            <AltitudeMeters>22.200000762939453125</AltitudeMeters>
            <DistanceMeters>NAN</DistanceMeters>
          </Trackpoint>
          <Trackpoint>
            <Time>2022-07-15T11:56:27.000Z</Time>
            <Position>
              <LatitudeDegrees>43.39636431075632572174072265625</LatitudeDegrees>
              <LongitudeDegrees>-4.5959477126598358154296875</LongitudeDegrees>
            </Position>
            <AltitudeMeters>22</AltitudeMeters>
            <DistanceMeters>NAN</DistanceMeters>
          </Trackpoint>
          <Trackpoint>
            <Time>2022-07-15T11:56:30.000Z</Time>
            <Position>
              <LatitudeDegrees>43.3963593654334545135498046875</LatitudeDegrees>
              <LongitudeDegrees>-4.5959750376641750335693359375</LongitudeDegrees>
            </Position>
            <AltitudeMeters>21.200000762939453125</AltitudeMeters>
            <DistanceMeters>NAN</DistanceMeters>
          </Trackpoint>
          <Trackpoint>
            <Time>2022-07-15T11:56:31.000Z</Time>
            <Position>
              <LatitudeDegrees>43.3963593654334545135498046875</LatitudeDegrees>
              <LongitudeDegrees>-4.5959750376641750335693359375</LongitudeDegrees>
            </Position>
            <AltitudeMeters>20.799999237060546875</AltitudeMeters>
            <DistanceMeters>NAN</DistanceMeters>
          </Trackpoint>
          <Trackpoint>
            <Time>2022-07-15T11:58:27.000Z</Time>
            <Position>
              <LatitudeDegrees>43.39636162854731082916259765625</LatitudeDegrees>
              <LongitudeDegrees>-4.595887362957000732421875</LongitudeDegrees>
            </Position>
            <AltitudeMeters>21</AltitudeMeters>
            <DistanceMeters>NAN</DistanceMeters>
          </Trackpoint>
          <Trackpoint>
            <Time>2022-07-15T11:58:28.000Z</Time>
            <Position>
              <LatitudeDegrees>43.39635475538671016693115234375</LatitudeDegrees>
              <LongitudeDegrees>-4.595863558351993560791015625</LongitudeDegrees>
            </Position>
            <AltitudeMeters>21</AltitudeMeters>
            <DistanceMeters>NAN</DistanceMeters>
          </Trackpoint>
          <Trackpoint>
            <Time>2022-07-15T11:58:30.000Z</Time>
            <Position>
              <LatitudeDegrees>43.396340422332286834716796875</LatitudeDegrees>
              <LongitudeDegrees>-4.59581871517002582550048828125</LongitudeDegrees>
            </Position>
            <AltitudeMeters>22.6000003814697265625</AltitudeMeters>
            <DistanceMeters>NAN</DistanceMeters>
          </Trackpoint>
          <Trackpoint>
            <Time>2022-07-15T11:58:32.000Z</Time>
            <Position>
              <LatitudeDegrees>43.39632273651659488677978515625</LatitudeDegrees>
              <LongitudeDegrees>-4.5957718603312969207763671875</LongitudeDegrees>
            </Position>
            <AltitudeMeters>24</AltitudeMeters>
            <DistanceMeters>NAN</DistanceMeters>
          </Trackpoint>
          <Trackpoint>
            <Time>2022-07-15T11:58:34.000Z</Time>
            <Position>
              <LatitudeDegrees>43.39630530215799808502197265625</LatitudeDegrees>
              <LongitudeDegrees>-4.59572986699640750885009765625</LongitudeDegrees>
            </Position>
            <AltitudeMeters>24.799999237060546875</AltitudeMeters>
            <DistanceMeters>NAN</DistanceMeters>
          </Trackpoint>
          <Trackpoint>
            <Time>2022-07-15T11:58:35.000Z</Time>
            <Position>
              <LatitudeDegrees>43.39629675261676311492919921875</LatitudeDegrees>
              <LongitudeDegrees>-4.5957125164568424224853515625</LongitudeDegrees>
            </Position>
            <AltitudeMeters>25.200000762939453125</AltitudeMeters>
            <DistanceMeters>NAN</DistanceMeters>
          </Trackpoint>
          <Trackpoint>
            <Time>2022-07-15T11:58:41.000Z</Time>
            <Position>
              <LatitudeDegrees>43.39622785337269306182861328125</LatitudeDegrees>
              <LongitudeDegrees>-4.59563666023313999176025390625</LongitudeDegrees>
            </Position>
            <AltitudeMeters>26.200000762939453125</AltitudeMeters>
            <DistanceMeters>NAN</DistanceMeters>
          </Trackpoint>
          <Trackpoint>
            <Time>2022-07-15T11:58:42.000Z</Time>
            <Position>
              <LatitudeDegrees>43.39621259830892086029052734375</LatitudeDegrees>
              <LongitudeDegrees>-4.595628865063190460205078125</LongitudeDegrees>
            </Position>
            <AltitudeMeters>26.3999996185302734375</AltitudeMeters>
            <DistanceMeters>NAN</DistanceMeters>
          </Trackpoint>
          <Trackpoint>
            <Time>2022-07-15T11:58:46.000Z</Time>
            <Position>
              <LatitudeDegrees>43.39616842567920684814453125</LatitudeDegrees>
              <LongitudeDegrees>-4.59560397081077098846435546875</LongitudeDegrees>
            </Position>
            <AltitudeMeters>27</AltitudeMeters>
            <DistanceMeters>NAN</DistanceMeters>
          </Trackpoint>
          <Trackpoint>
            <Time>2022-07-15T11:58:48.000Z</Time>
            <Position>
              <LatitudeDegrees>43.396153338253498077392578125</LatitudeDegrees>
              <LongitudeDegrees>-4.59560095332562923431396484375</LongitudeDegrees>
            </Position>
            <AltitudeMeters>27.200000762939453125</AltitudeMeters>
            <DistanceMeters>NAN</DistanceMeters>
          </Trackpoint>
          <Trackpoint>
            <Time>2022-07-15T11:58:50.000Z</Time>
            <Position>
              <LatitudeDegrees>43.39615308679640293121337890625</LatitudeDegrees>
              <LongitudeDegrees>-4.5956025458872318267822265625</LongitudeDegrees>
            </Position>
            <AltitudeMeters>27.200000762939453125</AltitudeMeters>
            <DistanceMeters>NAN</DistanceMeters>
          </Trackpoint>
          <Trackpoint>
            <Time>2022-07-15T11:59:15.000Z</Time>
            <Position>
              <LatitudeDegrees>43.3961065672338008880615234375</LatitudeDegrees>
              <LongitudeDegrees>-4.59569851867854595184326171875</LongitudeDegrees>
            </Position>
            <AltitudeMeters>28.799999237060546875</AltitudeMeters>
            <DistanceMeters>NAN</DistanceMeters>
          </Trackpoint>
          <Trackpoint>
            <Time>2022-07-15T11:59:16.000Z</Time>
            <Position>
              <LatitudeDegrees>43.39609608985483646392822265625</LatitudeDegrees>
              <LongitudeDegrees>-4.59572718478739261627197265625</LongitudeDegrees>
            </Position>
            <AltitudeMeters>28.799999237060546875</AltitudeMeters>
            <DistanceMeters>NAN</DistanceMeters>
          </Trackpoint>
          <Trackpoint>
            <Time>2022-07-15T11:59:19.000Z</Time>
            <Position>
              <LatitudeDegrees>43.39607060886919498443603515625</LatitudeDegrees>
              <LongitudeDegrees>-4.59581234492361545562744140625</LongitudeDegrees>
            </Position>
            <AltitudeMeters>28.799999237060546875</AltitudeMeters>
            <DistanceMeters>NAN</DistanceMeters>
          </Trackpoint>
          <Trackpoint>
            <Time>2022-07-15T11:59:22.000Z</Time>
            <Position>
              <LatitudeDegrees>43.39605703018605709075927734375</LatitudeDegrees>
              <LongitudeDegrees>-4.59588074125349521636962890625</LongitudeDegrees>
            </Position>
            <AltitudeMeters>28.799999237060546875</AltitudeMeters>
            <DistanceMeters>NAN</DistanceMeters>
          </Trackpoint>
          <Trackpoint>
            <Time>2022-07-15T11:59:24.000Z</Time>
            <Position>
              <LatitudeDegrees>43.3960535936057567596435546875</LatitudeDegrees>
              <LongitudeDegrees>-4.5959378220140933990478515625</LongitudeDegrees>
            </Position>
            <AltitudeMeters>28.799999237060546875</AltitudeMeters>
            <DistanceMeters>NAN</DistanceMeters>
          </Trackpoint>
          <Trackpoint>
            <Time>2022-07-15T11:59:28.000Z</Time>
            <Position>
              <LatitudeDegrees>43.39605585671961307525634765625</LatitudeDegrees>
              <LongitudeDegrees>-4.59604016505181789398193359375</LongitudeDegrees>
            </Position>
            <AltitudeMeters>29.6000003814697265625</AltitudeMeters>
            <DistanceMeters>NAN</DistanceMeters>
          </Trackpoint>
          <Trackpoint>
            <Time>2022-07-15T11:59:29.000Z</Time>
            <Position>
              <LatitudeDegrees>43.396056778728961944580078125</LatitudeDegrees>
              <LongitudeDegrees>-4.59606380201876163482666015625</LongitudeDegrees>
            </Position>
            <AltitudeMeters>29.799999237060546875</AltitudeMeters>
            <DistanceMeters>NAN</DistanceMeters>
          </Trackpoint>
          <Trackpoint>
            <Time>2022-07-15T11:59:30.000Z</Time>
            <Position>
              <LatitudeDegrees>43.3960606344044208526611328125</LatitudeDegrees>
              <LongitudeDegrees>-4.5960856787860393524169921875</LongitudeDegrees>
            </Position>
            <AltitudeMeters>30</AltitudeMeters>
            <DistanceMeters>NAN</DistanceMeters>
          </Trackpoint>
          <Trackpoint>
            <Time>2022-07-15T11:59:32.000Z</Time>
            <Position>
              <LatitudeDegrees>43.39606524445116519927978515625</LatitudeDegrees>
              <LongitudeDegrees>-4.59613253362476825714111328125</LongitudeDegrees>
            </Position>
            <AltitudeMeters>30.200000762939453125</AltitudeMeters>
            <DistanceMeters>NAN</DistanceMeters>
          </Trackpoint>
          <Trackpoint>
            <Time>2022-07-15T11:59:33.000Z</Time>
            <Position>
              <LatitudeDegrees>43.3960653282701969146728515625</LatitudeDegrees>
              <LongitudeDegrees>-4.59615499712526798248291015625</LongitudeDegrees>
            </Position>
            <AltitudeMeters>30.200000762939453125</AltitudeMeters>
            <DistanceMeters>NAN</DistanceMeters>
          </Trackpoint>
          <Trackpoint>
            <Time>2022-07-15T11:59:35.000Z</Time>
            <Position>
              <LatitudeDegrees>43.3960643224418163299560546875</LatitudeDegrees>
              <LongitudeDegrees>-4.5962043665349483489990234375</LongitudeDegrees>
            </Position>
            <AltitudeMeters>30.200000762939453125</AltitudeMeters>
            <DistanceMeters>NAN</DistanceMeters>
          </Trackpoint>
          <Trackpoint>
            <Time>2022-07-15T11:59:36.000Z</Time>
            <Position>
              <LatitudeDegrees>43.3960636518895626068115234375</LatitudeDegrees>
              <LongitudeDegrees>-4.5962285064160823822021484375</LongitudeDegrees>
            </Position>
            <AltitudeMeters>30.200000762939453125</AltitudeMeters>
            <DistanceMeters>NAN</DistanceMeters>
          </Trackpoint>
          <Trackpoint>
            <Time>2022-07-15T11:59:37.000Z</Time>
            <Position>
              <LatitudeDegrees>43.39606113731861114501953125</LatitudeDegrees>
              <LongitudeDegrees>-4.5962583459913730621337890625</LongitudeDegrees>
            </Position>
            <AltitudeMeters>30</AltitudeMeters>
            <DistanceMeters>NAN</DistanceMeters>
          </Trackpoint>
          <Trackpoint>
            <Time>2022-07-15T11:59:38.000Z</Time>
            <Position>
              <LatitudeDegrees>43.3960562758147716522216796875</LatitudeDegrees>
              <LongitudeDegrees>-4.59628634154796600341796875</LongitudeDegrees>
            </Position>
            <AltitudeMeters>30</AltitudeMeters>
            <DistanceMeters>NAN</DistanceMeters>
          </Trackpoint>
          <Trackpoint>
            <Time>2022-07-15T11:59:40.000Z</Time>
            <Position>
              <LatitudeDegrees>43.396045379340648651123046875</LatitudeDegrees>
              <LongitudeDegrees>-4.596319533884525299072265625</LongitudeDegrees>
            </Position>
            <AltitudeMeters>29.799999237060546875</AltitudeMeters>
            <DistanceMeters>NAN</DistanceMeters>
          </Trackpoint>
          <Trackpoint>
            <Time>2022-07-15T11:59:41.000Z</Time>
            <Position>
              <LatitudeDegrees>43.396045379340648651123046875</LatitudeDegrees>
              <LongitudeDegrees>-4.596319533884525299072265625</LongitudeDegrees>
            </Position>
            <AltitudeMeters>29.799999237060546875</AltitudeMeters>
            <DistanceMeters>NAN</DistanceMeters>
          </Trackpoint>
          <Trackpoint>
            <Time>2022-07-15T12:00:13.000Z</Time>
            <Position>
              <LatitudeDegrees>43.3960046432912349700927734375</LatitudeDegrees>
              <LongitudeDegrees>-4.59645439870655536651611328125</LongitudeDegrees>
            </Position>
            <AltitudeMeters>27</AltitudeMeters>
            <DistanceMeters>NAN</DistanceMeters>
          </Trackpoint>
          <Trackpoint>
            <Time>2022-07-15T12:00:14.000Z</Time>
            <Position>
              <LatitudeDegrees>43.39599751867353916168212890625</LatitudeDegrees>
              <LongitudeDegrees>-4.59647619165480136871337890625</LongitudeDegrees>
            </Position>
            <AltitudeMeters>27.200000762939453125</AltitudeMeters>
            <DistanceMeters>NAN</DistanceMeters>
          </Trackpoint>
          <Trackpoint>
            <Time>2022-07-15T12:00:16.000Z</Time>
            <Position>
              <LatitudeDegrees>43.39598008431494235992431640625</LatitudeDegrees>
              <LongitudeDegrees>-4.5965138264000415802001953125</LongitudeDegrees>
            </Position>
            <AltitudeMeters>27.200000762939453125</AltitudeMeters>
            <DistanceMeters>NAN</DistanceMeters>
          </Trackpoint>
          <Trackpoint>
            <Time>2022-07-15T12:00:17.000Z</Time>
            <Position>
              <LatitudeDegrees>43.39597396552562713623046875</LatitudeDegrees>
              <LongitudeDegrees>-4.59653067402541637420654296875</LongitudeDegrees>
            </Position>
            <AltitudeMeters>27.3999996185302734375</AltitudeMeters>
            <DistanceMeters>NAN</DistanceMeters>
          </Trackpoint>
          <Trackpoint>
            <Time>2022-07-15T12:00:18.000Z</Time>
            <Position>
              <LatitudeDegrees>43.3959704451262950897216796875</LatitudeDegrees>
              <LongitudeDegrees>-4.596547521650791168212890625</LongitudeDegrees>
            </Position>
            <AltitudeMeters>27.6000003814697265625</AltitudeMeters>
            <DistanceMeters>NAN</DistanceMeters>
          </Trackpoint>
          <Trackpoint>
            <Time>2022-07-15T12:00:19.000Z</Time>
            <Position>
              <LatitudeDegrees>43.39597002603113651275634765625</LatitudeDegrees>
              <LongitudeDegrees>-4.59655665792524814605712890625</LongitudeDegrees>
            </Position>
            <AltitudeMeters>27.799999237060546875</AltitudeMeters>
            <DistanceMeters>NAN</DistanceMeters>
          </Trackpoint>
          <Trackpoint>
            <Time>2022-07-15T12:00:21.000Z</Time>
            <Position>
              <LatitudeDegrees>43.39597891084849834442138671875</LatitudeDegrees>
              <LongitudeDegrees>-4.5965802110731601715087890625</LongitudeDegrees>
            </Position>
            <AltitudeMeters>28.200000762939453125</AltitudeMeters>
            <DistanceMeters>NAN</DistanceMeters>
          </Trackpoint>
          <Trackpoint>
            <Time>2022-07-15T12:00:27.000Z</Time>
            <Position>
              <LatitudeDegrees>43.39600238017737865447998046875</LatitudeDegrees>
              <LongitudeDegrees>-4.59665514528751373291015625</LongitudeDegrees>
            </Position>
            <AltitudeMeters>28.799999237060546875</AltitudeMeters>
            <DistanceMeters>NAN</DistanceMeters>
          </Trackpoint>
          <Trackpoint>
            <Time>2022-07-15T12:00:30.000Z</Time>
            <Position>
              <LatitudeDegrees>43.3960068225860595703125</LatitudeDegrees>
              <LongitudeDegrees>-4.59667886607348918914794921875</LongitudeDegrees>
            </Position>
            <AltitudeMeters>29</AltitudeMeters>
            <DistanceMeters>NAN</DistanceMeters>
          </Trackpoint>
          <Trackpoint>
            <Time>2022-07-15T12:00:32.000Z</Time>
            <Position>
              <LatitudeDegrees>43.3960068225860595703125</LatitudeDegrees>
              <LongitudeDegrees>-4.59667886607348918914794921875</LongitudeDegrees>
            </Position>
            <AltitudeMeters>29</AltitudeMeters>
            <DistanceMeters>NAN</DistanceMeters>
          </Trackpoint>
          <Trackpoint>
            <Time>2022-07-15T12:00:37.000Z</Time>
            <Position>
              <LatitudeDegrees>43.39604160748422145843505859375</LatitudeDegrees>
              <LongitudeDegrees>-4.59673921577632427215576171875</LongitudeDegrees>
            </Position>
            <AltitudeMeters>28.6000003814697265625</AltitudeMeters>
            <DistanceMeters>NAN</DistanceMeters>
          </Trackpoint>
          <Trackpoint>
            <Time>2022-07-15T12:00:38.000Z</Time>
            <Position>
              <LatitudeDegrees>43.39605577290058135986328125</LatitudeDegrees>
              <LongitudeDegrees>-4.5967632718384265899658203125</LongitudeDegrees>
            </Position>
            <AltitudeMeters>28.3999996185302734375</AltitudeMeters>
            <DistanceMeters>NAN</DistanceMeters>
          </Trackpoint>
          <Trackpoint>
            <Time>2022-07-15T12:00:44.000Z</Time>
            <Position>
              <LatitudeDegrees>43.39606876485049724578857421875</LatitudeDegrees>
              <LongitudeDegrees>-4.59693409502506256103515625</LongitudeDegrees>
            </Position>
            <AltitudeMeters>27.799999237060546875</AltitudeMeters>
            <DistanceMeters>NAN</DistanceMeters>
          </Trackpoint>
          <Trackpoint>
            <Time>2022-07-15T12:00:46.000Z</Time>
            <Position>
              <LatitudeDegrees>43.39607848785817623138427734375</LatitudeDegrees>
              <LongitudeDegrees>-4.59699000231921672821044921875</LongitudeDegrees>
            </Position>
            <AltitudeMeters>27.200000762939453125</AltitudeMeters>
            <DistanceMeters>NAN</DistanceMeters>
          </Trackpoint>
          <Trackpoint>
            <Time>2022-07-15T12:00:47.000Z</Time>
            <Position>
              <LatitudeDegrees>43.39608368463814258575439453125</LatitudeDegrees>
              <LongitudeDegrees>-4.5970190875232219696044921875</LongitudeDegrees>
            </Position>
            <AltitudeMeters>27</AltitudeMeters>
            <DistanceMeters>NAN</DistanceMeters>
          </Trackpoint>
          <Trackpoint>
            <Time>2022-07-15T12:00:49.000Z</Time>
            <Position>
              <LatitudeDegrees>43.39610799215734004974365234375</LatitudeDegrees>
              <LongitudeDegrees>-4.59709075279533863067626953125</LongitudeDegrees>
            </Position>
            <AltitudeMeters>26.799999237060546875</AltitudeMeters>
            <DistanceMeters>NAN</DistanceMeters>
          </Trackpoint>
          <Trackpoint>
            <Time>2022-07-15T12:00:51.000Z</Time>
            <Position>
              <LatitudeDegrees>43.39614202268421649932861328125</LatitudeDegrees>
              <LongitudeDegrees>-4.59715914912521839141845703125</LongitudeDegrees>
            </Position>
            <AltitudeMeters>26</AltitudeMeters>
            <DistanceMeters>NAN</DistanceMeters>
          </Trackpoint>
          <Trackpoint>
            <Time>2022-07-15T12:00:54.000Z</Time>
            <Position>
              <LatitudeDegrees>43.396207652986049652099609375</LatitudeDegrees>
              <LongitudeDegrees>-4.59725461900234222412109375</LongitudeDegrees>
            </Position>
            <AltitudeMeters>25</AltitudeMeters>
            <DistanceMeters>NAN</DistanceMeters>
          </Trackpoint>
          <Trackpoint>
            <Time>2022-07-15T12:00:55.000Z</Time>
            <Position>
              <LatitudeDegrees>43.3962249197065830230712890625</LatitudeDegrees>
              <LongitudeDegrees>-4.5972873084247112274169921875</LongitudeDegrees>
            </Position>
            <AltitudeMeters>24.799999237060546875</AltitudeMeters>
            <DistanceMeters>NAN</DistanceMeters>
          </Trackpoint>
          <Trackpoint>
            <Time>2022-07-15T12:00:57.000Z</Time>
            <Position>
              <LatitudeDegrees>43.39625501073896884918212890625</LatitudeDegrees>
              <LongitudeDegrees>-4.597352854907512664794921875</LongitudeDegrees>
            </Position>
            <AltitudeMeters>24</AltitudeMeters>
            <DistanceMeters>NAN</DistanceMeters>
          </Trackpoint>
          <Trackpoint>
            <Time>2022-07-15T12:00:58.000Z</Time>
            <Position>
              <LatitudeDegrees>43.3962634764611721038818359375</LatitudeDegrees>
              <LongitudeDegrees>-4.597391746938228607177734375</LongitudeDegrees>
            </Position>
            <AltitudeMeters>23.6000003814697265625</AltitudeMeters>
            <DistanceMeters>NAN</DistanceMeters>
          </Trackpoint>
          <Trackpoint>
            <Time>2022-07-15T12:01:00.000Z</Time>
            <Position>
              <LatitudeDegrees>43.39626632630825042724609375</LatitudeDegrees>
              <LongitudeDegrees>-4.59746441803872585296630859375</LongitudeDegrees>
            </Position>
            <AltitudeMeters>22.799999237060546875</AltitudeMeters>
            <DistanceMeters>NAN</DistanceMeters>
          </Trackpoint>
          <Trackpoint>
            <Time>2022-07-15T12:01:04.000Z</Time>
            <Position>
              <LatitudeDegrees>43.39625149033963680267333984375</LatitudeDegrees>
              <LongitudeDegrees>-4.59761076606810092926025390625</LongitudeDegrees>
            </Position>
            <AltitudeMeters>21.6000003814697265625</AltitudeMeters>
            <DistanceMeters>NAN</DistanceMeters>
          </Trackpoint>
          <Trackpoint>
            <Time>2022-07-15T12:01:07.000Z</Time>
            <Position>
              <LatitudeDegrees>43.3962366543710231781005859375</LatitudeDegrees>
              <LongitudeDegrees>-4.59768653847277164459228515625</LongitudeDegrees>
            </Position>
            <AltitudeMeters>20.799999237060546875</AltitudeMeters>
            <DistanceMeters>NAN</DistanceMeters>
          </Trackpoint>
          <Trackpoint>
            <Time>2022-07-15T12:01:08.000Z</Time>
            <Position>
              <LatitudeDegrees>43.3962265960872173309326171875</LatitudeDegrees>
              <LongitudeDegrees>-4.59771269001066684722900390625</LongitudeDegrees>
            </Position>
            <AltitudeMeters>20.3999996185302734375</AltitudeMeters>
            <DistanceMeters>NAN</DistanceMeters>
          </Trackpoint>
          <Trackpoint>
            <Time>2022-07-15T12:01:12.000Z</Time>
            <Position>
              <LatitudeDegrees>43.39621393941342830657958984375</LatitudeDegrees>
              <LongitudeDegrees>-4.59781377576291561126708984375</LongitudeDegrees>
            </Position>
            <AltitudeMeters>19.3999996185302734375</AltitudeMeters>
            <DistanceMeters>NAN</DistanceMeters>
          </Trackpoint>
          <Trackpoint>
            <Time>2022-07-15T12:01:15.000Z</Time>
            <Position>
              <LatitudeDegrees>43.39620019309222698211669921875</LatitudeDegrees>
              <LongitudeDegrees>-4.5979156158864498138427734375</LongitudeDegrees>
            </Position>
            <AltitudeMeters>18</AltitudeMeters>
            <DistanceMeters>NAN</DistanceMeters>
          </Trackpoint>
          <Trackpoint>
            <Time>2022-07-15T12:01:17.000Z</Time>
            <Position>
              <LatitudeDegrees>43.39617379009723663330078125</LatitudeDegrees>
              <LongitudeDegrees>-4.59800161421298980712890625</LongitudeDegrees>
            </Position>
            <AltitudeMeters>16.799999237060546875</AltitudeMeters>
            <DistanceMeters>NAN</DistanceMeters>
          </Trackpoint>
          <Trackpoint>
            <Time>2022-07-15T12:01:19.000Z</Time>
            <Position>
              <LatitudeDegrees>43.39615945704281330108642578125</LatitudeDegrees>
              <LongitudeDegrees>-4.59812088869512081146240234375</LongitudeDegrees>
            </Position>
            <AltitudeMeters>15.6000003814697265625</AltitudeMeters>
            <DistanceMeters>NAN</DistanceMeters>
          </Trackpoint>
          <Trackpoint>
            <Time>2022-07-15T12:01:20.000Z</Time>
            <Position>
              <LatitudeDegrees>43.39614638127386569976806640625</LatitudeDegrees>
              <LongitudeDegrees>-4.59818408824503421783447265625</LongitudeDegrees>
            </Position>
            <AltitudeMeters>14.80000019073486328125</AltitudeMeters>
            <DistanceMeters>NAN</DistanceMeters>
          </Trackpoint>
          <Trackpoint>
            <Time>2022-07-15T12:01:21.000Z</Time>
            <Position>
              <LatitudeDegrees>43.39613665826618671417236328125</LatitudeDegrees>
              <LongitudeDegrees>-4.5982431806623935699462890625</LongitudeDegrees>
            </Position>
            <AltitudeMeters>14.3999996185302734375</AltitudeMeters>
            <DistanceMeters>NAN</DistanceMeters>
          </Trackpoint>
          <Trackpoint>
            <Time>2022-07-15T12:01:22.000Z</Time>
            <Position>
              <LatitudeDegrees>43.3961256779730319976806640625</LatitudeDegrees>
              <LongitudeDegrees>-4.59830311127007007598876953125</LongitudeDegrees>
            </Position>
            <AltitudeMeters>14</AltitudeMeters>
            <DistanceMeters>NAN</DistanceMeters>
          </Trackpoint>
          <Trackpoint>
            <Time>2022-07-15T12:01:24.000Z</Time>
            <Position>
              <LatitudeDegrees>43.39610631577670574188232421875</LatitudeDegrees>
              <LongitudeDegrees>-4.59840469993650913238525390625</LongitudeDegrees>
            </Position>
            <AltitudeMeters>13</AltitudeMeters>
            <DistanceMeters>NAN</DistanceMeters>
          </Trackpoint>
          <Trackpoint>
            <Time>2022-07-15T12:01:27.000Z</Time>
            <Position>
              <LatitudeDegrees>43.39605770073831081390380859375</LatitudeDegrees>
              <LongitudeDegrees>-4.59854417480528354644775390625</LongitudeDegrees>
            </Position>
            <AltitudeMeters>11.80000019073486328125</AltitudeMeters>
            <DistanceMeters>NAN</DistanceMeters>
          </Trackpoint>
          <Trackpoint>
            <Time>2022-07-15T12:01:31.000Z</Time>
            <Position>
              <LatitudeDegrees>43.39598695747554302215576171875</LatitudeDegrees>
              <LongitudeDegrees>-4.59873964078724384307861328125</LongitudeDegrees>
            </Position>
            <AltitudeMeters>10.80000019073486328125</AltitudeMeters>
            <DistanceMeters>NAN</DistanceMeters>
          </Trackpoint>
          <Trackpoint>
            <Time>2022-07-15T12:01:34.000Z</Time>
            <Position>
              <LatitudeDegrees>43.395971618592739105224609375</LatitudeDegrees>
              <LongitudeDegrees>-4.59887609817087650299072265625</LongitudeDegrees>
            </Position>
            <AltitudeMeters>10.3999996185302734375</AltitudeMeters>
            <DistanceMeters>NAN</DistanceMeters>
          </Trackpoint>
          <Trackpoint>
            <Time>2022-07-15T12:01:37.000Z</Time>
            <Position>
              <LatitudeDegrees>43.3959634043276309967041015625</LatitudeDegrees>
              <LongitudeDegrees>-4.59890057332813739776611328125</LongitudeDegrees>
            </Position>
            <AltitudeMeters>10.19999980926513671875</AltitudeMeters>
            <DistanceMeters>NAN</DistanceMeters>
          </Trackpoint>
          <Trackpoint>
            <Time>2022-07-15T12:01:38.000Z</Time>
            <Position>
              <LatitudeDegrees>43.3959634043276309967041015625</LatitudeDegrees>
              <LongitudeDegrees>-4.59890057332813739776611328125</LongitudeDegrees>
            </Position>
            <AltitudeMeters>10.19999980926513671875</AltitudeMeters>
            <DistanceMeters>NAN</DistanceMeters>
          </Trackpoint>
          <Trackpoint>
            <Time>2022-07-15T12:03:02.000Z</Time>
            <Position>
              <LatitudeDegrees>43.39603188447654247283935546875</LatitudeDegrees>
              <LongitudeDegrees>-4.59900484420359134674072265625</LongitudeDegrees>
            </Position>
            <AltitudeMeters>10.3999996185302734375</AltitudeMeters>
            <DistanceMeters>NAN</DistanceMeters>
          </Trackpoint>
          <Trackpoint>
            <Time>2022-07-15T12:03:03.000Z</Time>
            <Position>
              <LatitudeDegrees>43.39603439904749393463134765625</LatitudeDegrees>
              <LongitudeDegrees>-4.59902211092412471771240234375</LongitudeDegrees>
            </Position>
            <AltitudeMeters>10.3999996185302734375</AltitudeMeters>
            <DistanceMeters>NAN</DistanceMeters>
          </Trackpoint>
          <Trackpoint>
            <Time>2022-07-15T12:03:04.000Z</Time>
            <Position>
              <LatitudeDegrees>43.396037332713603973388671875</LatitudeDegrees>
              <LongitudeDegrees>-4.59904457442462444305419921875</LongitudeDegrees>
            </Position>
            <AltitudeMeters>10.3999996185302734375</AltitudeMeters>
            <DistanceMeters>NAN</DistanceMeters>
          </Trackpoint>
          <Trackpoint>
            <Time>2022-07-15T12:03:05.000Z</Time>
            <Position>
              <LatitudeDegrees>43.39603674598038196563720703125</LatitudeDegrees>
              <LongitudeDegrees>-4.59906645119190216064453125</LongitudeDegrees>
            </Position>
            <AltitudeMeters>10.6000003814697265625</AltitudeMeters>
            <DistanceMeters>NAN</DistanceMeters>
          </Trackpoint>
          <Trackpoint>
            <Time>2022-07-15T12:03:07.000Z</Time>
            <Position>
              <LatitudeDegrees>43.39603163301944732666015625</LatitudeDegrees>
              <LongitudeDegrees>-4.599078856408596038818359375</LongitudeDegrees>
            </Position>
            <AltitudeMeters>11.19999980926513671875</AltitudeMeters>
            <DistanceMeters>NAN</DistanceMeters>
          </Trackpoint>
          <Trackpoint>
            <Time>2022-07-15T12:03:08.000Z</Time>
            <Position>
              <LatitudeDegrees>43.39603163301944732666015625</LatitudeDegrees>
              <LongitudeDegrees>-4.599078856408596038818359375</LongitudeDegrees>
            </Position>
            <AltitudeMeters>11.3999996185302734375</AltitudeMeters>
            <DistanceMeters>NAN</DistanceMeters>
          </Trackpoint>
          <Trackpoint>
            <Time>2022-07-15T12:03:45.000Z</Time>
            <Position>
              <LatitudeDegrees>43.39602249674499034881591796875</LatitudeDegrees>
              <LongitudeDegrees>-4.59936576895415782928466796875</LongitudeDegrees>
            </Position>
            <AltitudeMeters>17</AltitudeMeters>
            <DistanceMeters>NAN</DistanceMeters>
          </Trackpoint>
          <Trackpoint>
            <Time>2022-07-15T12:03:48.000Z</Time>
            <Position>
              <LatitudeDegrees>43.39601947925984859466552734375</LatitudeDegrees>
              <LongitudeDegrees>-4.5994370989501476287841796875</LongitudeDegrees>
            </Position>
            <AltitudeMeters>17</AltitudeMeters>
            <DistanceMeters>NAN</DistanceMeters>
          </Trackpoint>
          <Trackpoint>
            <Time>2022-07-15T12:03:54.000Z</Time>
            <Position>
              <LatitudeDegrees>43.3960143662989139556884765625</LatitudeDegrees>
              <LongitudeDegrees>-4.5996308885514736175537109375</LongitudeDegrees>
            </Position>
            <AltitudeMeters>16.6000003814697265625</AltitudeMeters>
            <DistanceMeters>NAN</DistanceMeters>
          </Trackpoint>
          <Trackpoint>
            <Time>2022-07-15T12:03:58.000Z</Time>
            <Position>
              <LatitudeDegrees>43.3960059843957424163818359375</LatitudeDegrees>
              <LongitudeDegrees>-4.59972417913377285003662109375</LongitudeDegrees>
            </Position>
            <AltitudeMeters>16</AltitudeMeters>
            <DistanceMeters>NAN</DistanceMeters>
          </Trackpoint>
          <Trackpoint>
            <Time>2022-07-15T12:03:59.000Z</Time>
            <Position>
              <LatitudeDegrees>43.39600724168121814727783203125</LatitudeDegrees>
              <LongitudeDegrees>-4.59973038174211978912353515625</LongitudeDegrees>
            </Position>
            <AltitudeMeters>16</AltitudeMeters>
            <DistanceMeters>NAN</DistanceMeters>
          </Trackpoint>
          <Trackpoint>
            <Time>2022-07-15T12:04:02.000Z</Time>
            <Position>
              <LatitudeDegrees>43.3960022963583469390869140625</LatitudeDegrees>
              <LongitudeDegrees>-4.59975435398519039154052734375</LongitudeDegrees>
            </Position>
            <AltitudeMeters>15.80000019073486328125</AltitudeMeters>
            <DistanceMeters>NAN</DistanceMeters>
          </Trackpoint>
          <Trackpoint>
            <Time>2022-07-15T12:04:03.000Z</Time>
            <Position>
              <LatitudeDegrees>43.3959999494254589080810546875</LatitudeDegrees>
              <LongitudeDegrees>-4.5997660048305988311767578125</LongitudeDegrees>
            </Position>
            <AltitudeMeters>16</AltitudeMeters>
            <DistanceMeters>NAN</DistanceMeters>
          </Trackpoint>
          <Trackpoint>
            <Time>2022-07-15T12:04:05.000Z</Time>
            <Position>
              <LatitudeDegrees>43.3959902264177799224853515625</LatitudeDegrees>
              <LongitudeDegrees>-4.59979534149169921875</LongitudeDegrees>
            </Position>
            <AltitudeMeters>16</AltitudeMeters>
            <DistanceMeters>NAN</DistanceMeters>
          </Trackpoint>
          <Trackpoint>
            <Time>2022-07-15T12:04:11.000Z</Time>
            <Position>
              <LatitudeDegrees>43.3959352411329746246337890625</LatitudeDegrees>
              <LongitudeDegrees>-4.59991361014544963836669921875</LongitudeDegrees>
            </Position>
            <AltitudeMeters>16</AltitudeMeters>
            <DistanceMeters>NAN</DistanceMeters>
          </Trackpoint>
          <Trackpoint>
            <Time>2022-07-15T12:04:14.000Z</Time>
            <Position>
              <LatitudeDegrees>43.3959181420505046844482421875</LatitudeDegrees>
              <LongitudeDegrees>-4.59998183883726596832275390625</LongitudeDegrees>
            </Position>
            <AltitudeMeters>16.200000762939453125</AltitudeMeters>
            <DistanceMeters>NAN</DistanceMeters>
          </Trackpoint>
          <Trackpoint>
            <Time>2022-07-15T12:04:16.000Z</Time>
            <Position>
              <LatitudeDegrees>43.3959342353045940399169921875</LatitudeDegrees>
              <LongitudeDegrees>-4.6000087447464466094970703125</LongitudeDegrees>
            </Position>
            <AltitudeMeters>16.3999996185302734375</AltitudeMeters>
            <DistanceMeters>NAN</DistanceMeters>
          </Trackpoint>
          <Trackpoint>
            <Time>2022-07-15T12:04:20.000Z</Time>
            <Position>
              <LatitudeDegrees>43.395976983010768890380859375</LatitudeDegrees>
              <LongitudeDegrees>-4.6000085771083831787109375</LongitudeDegrees>
            </Position>
            <AltitudeMeters>16.6000003814697265625</AltitudeMeters>
            <DistanceMeters>NAN</DistanceMeters>
          </Trackpoint>
          <Trackpoint>
            <Time>2022-07-15T12:04:21.000Z</Time>
            <Position>
              <LatitudeDegrees>43.395976983010768890380859375</LatitudeDegrees>
              <LongitudeDegrees>-4.6000085771083831787109375</LongitudeDegrees>
            </Position>
            <AltitudeMeters>16.6000003814697265625</AltitudeMeters>
            <DistanceMeters>NAN</DistanceMeters>
          </Trackpoint>
          <Trackpoint>
            <Time>2022-07-15T12:04:22.000Z</Time>
            <Position>
              <LatitudeDegrees>43.395976983010768890380859375</LatitudeDegrees>
              <LongitudeDegrees>-4.6000085771083831787109375</LongitudeDegrees>
            </Position>
            <AltitudeMeters>16.3999996185302734375</AltitudeMeters>
            <DistanceMeters>NAN</DistanceMeters>
          </Trackpoint>
          <Trackpoint>
            <Time>2022-07-15T12:04:42.000Z</Time>
            <Position>
              <LatitudeDegrees>43.39596952311694622039794921875</LatitudeDegrees>
              <LongitudeDegrees>-4.60007756017148494720458984375</LongitudeDegrees>
            </Position>
            <AltitudeMeters>15.80000019073486328125</AltitudeMeters>
            <DistanceMeters>NAN</DistanceMeters>
          </Trackpoint>
          <Trackpoint>
            <Time>2022-07-15T12:04:43.000Z</Time>
            <Position>
              <LatitudeDegrees>43.39596147648990154266357421875</LatitudeDegrees>
              <LongitudeDegrees>-4.6001089923083782196044921875</LongitudeDegrees>
            </Position>
            <AltitudeMeters>15.80000019073486328125</AltitudeMeters>
            <DistanceMeters>NAN</DistanceMeters>
          </Trackpoint>
          <Trackpoint>
            <Time>2022-07-15T12:04:44.000Z</Time>
            <Position>
              <LatitudeDegrees>43.39594940654933452606201171875</LatitudeDegrees>
              <LongitudeDegrees>-4.6001453697681427001953125</LongitudeDegrees>
            </Position>
            <AltitudeMeters>15.80000019073486328125</AltitudeMeters>
            <DistanceMeters>NAN</DistanceMeters>
          </Trackpoint>
          <Trackpoint>
            <Time>2022-07-15T12:04:47.000Z</Time>
            <Position>
              <LatitudeDegrees>43.3959194831550121307373046875</LatitudeDegrees>
              <LongitudeDegrees>-4.60022575221955776214599609375</LongitudeDegrees>
            </Position>
            <AltitudeMeters>15.80000019073486328125</AltitudeMeters>
            <DistanceMeters>NAN</DistanceMeters>
          </Trackpoint>
          <Trackpoint>
            <Time>2022-07-15T12:04:51.000Z</Time>
            <Position>
              <LatitudeDegrees>43.39587950147688388824462890625</LatitudeDegrees>
              <LongitudeDegrees>-4.6003094874322414398193359375</LongitudeDegrees>
            </Position>
            <AltitudeMeters>16</AltitudeMeters>
            <DistanceMeters>NAN</DistanceMeters>
          </Trackpoint>
          <Trackpoint>
            <Time>2022-07-15T12:04:53.000Z</Time>
            <Position>
              <LatitudeDegrees>43.39586533606052398681640625</LatitudeDegrees>
              <LongitudeDegrees>-4.6003460325300693511962890625</LongitudeDegrees>
            </Position>
            <AltitudeMeters>16</AltitudeMeters>
            <DistanceMeters>NAN</DistanceMeters>
          </Trackpoint>
          <Trackpoint>
            <Time>2022-07-15T12:04:56.000Z</Time>
            <Position>
              <LatitudeDegrees>43.3958279527723789215087890625</LatitudeDegrees>
              <LongitudeDegrees>-4.60038349963724613189697265625</LongitudeDegrees>
            </Position>
            <AltitudeMeters>16.799999237060546875</AltitudeMeters>
            <DistanceMeters>NAN</DistanceMeters>
          </Trackpoint>
          <Trackpoint>
            <Time>2022-07-15T12:04:58.000Z</Time>
            <Position>
              <LatitudeDegrees>43.39580154977738857269287109375</LatitudeDegrees>
              <LongitudeDegrees>-4.60040889680385589599609375</LongitudeDegrees>
            </Position>
            <AltitudeMeters>17.3999996185302734375</AltitudeMeters>
            <DistanceMeters>NAN</DistanceMeters>
          </Trackpoint>
          <Trackpoint>
            <Time>2022-07-15T12:05:00.000Z</Time>
            <Position>
              <LatitudeDegrees>43.395775146782398223876953125</LatitudeDegrees>
              <LongitudeDegrees>-4.6004171110689640045166015625</LongitudeDegrees>
            </Position>
            <AltitudeMeters>17.799999237060546875</AltitudeMeters>
            <DistanceMeters>NAN</DistanceMeters>
          </Trackpoint>
          <Trackpoint>
            <Time>2022-07-15T12:05:02.000Z</Time>
            <Position>
              <LatitudeDegrees>43.3957380987703800201416015625</LatitudeDegrees>
              <LongitudeDegrees>-4.60043370723724365234375</LongitudeDegrees>
            </Position>
            <AltitudeMeters>18.200000762939453125</AltitudeMeters>
            <DistanceMeters>NAN</DistanceMeters>
          </Trackpoint>
          <Trackpoint>
            <Time>2022-07-15T12:05:04.000Z</Time>
            <Position>
              <LatitudeDegrees>43.395714461803436279296875</LatitudeDegrees>
              <LongitudeDegrees>-4.60046078078448772430419921875</LongitudeDegrees>
            </Position>
            <AltitudeMeters>18.6000003814697265625</AltitudeMeters>
            <DistanceMeters>NAN</DistanceMeters>
          </Trackpoint>
          <Trackpoint>
            <Time>2022-07-15T12:05:06.000Z</Time>
            <Position>
              <LatitudeDegrees>43.39568856172263622283935546875</LatitudeDegrees>
              <LongitudeDegrees>-4.60050235502421855926513671875</LongitudeDegrees>
            </Position>
            <AltitudeMeters>19</AltitudeMeters>
            <DistanceMeters>NAN</DistanceMeters>
          </Trackpoint>
          <Trackpoint>
            <Time>2022-07-15T12:05:08.000Z</Time>
            <Position>
              <LatitudeDegrees>43.3956656791269779205322265625</LatitudeDegrees>
              <LongitudeDegrees>-4.60053630173206329345703125</LongitudeDegrees>
            </Position>
            <AltitudeMeters>19.6000003814697265625</AltitudeMeters>
            <DistanceMeters>NAN</DistanceMeters>
          </Trackpoint>
          <Trackpoint>
            <Time>2022-07-15T12:05:12.000Z</Time>
            <Position>
              <LatitudeDegrees>43.39565075933933258056640625</LatitudeDegrees>
              <LongitudeDegrees>-4.60055465810000896453857421875</LongitudeDegrees>
            </Position>
            <AltitudeMeters>20.799999237060546875</AltitudeMeters>
            <DistanceMeters>NAN</DistanceMeters>
          </Trackpoint>
          <Trackpoint>
            <Time>2022-07-15T12:05:39.000Z</Time>
            <Position>
              <LatitudeDegrees>43.39558294974267482757568359375</LatitudeDegrees>
              <LongitudeDegrees>-4.6006638742983341217041015625</LongitudeDegrees>
            </Position>
            <AltitudeMeters>22</AltitudeMeters>
            <DistanceMeters>NAN</DistanceMeters>
          </Trackpoint>
          <Trackpoint>
            <Time>2022-07-15T12:05:40.000Z</Time>
            <Position>
              <LatitudeDegrees>43.3955620788037776947021484375</LatitudeDegrees>
              <LongitudeDegrees>-4.6006816439330577850341796875</LongitudeDegrees>
            </Position>
            <AltitudeMeters>22</AltitudeMeters>
            <DistanceMeters>NAN</DistanceMeters>
          </Trackpoint>
          <Trackpoint>
            <Time>2022-07-15T12:05:42.000Z</Time>
            <Position>
              <LatitudeDegrees>43.39552679099142551422119140625</LatitudeDegrees>
              <LongitudeDegrees>-4.60072539746761322021484375</LongitudeDegrees>
            </Position>
            <AltitudeMeters>22</AltitudeMeters>
            <DistanceMeters>NAN</DistanceMeters>
          </Trackpoint>
          <Trackpoint>
            <Time>2022-07-15T12:05:49.000Z</Time>
            <Position>
              <LatitudeDegrees>43.39548178017139434814453125</LatitudeDegrees>
              <LongitudeDegrees>-4.60090870968997478485107421875</LongitudeDegrees>
            </Position>
            <AltitudeMeters>22.6000003814697265625</AltitudeMeters>
            <DistanceMeters>NAN</DistanceMeters>
          </Trackpoint>
          <Trackpoint>
            <Time>2022-07-15T12:05:53.000Z</Time>
            <Position>
              <LatitudeDegrees>43.39546493254601955413818359375</LatitudeDegrees>
              <LongitudeDegrees>-4.60102714598178863525390625</LongitudeDegrees>
            </Position>
            <AltitudeMeters>22.799999237060546875</AltitudeMeters>
            <DistanceMeters>NAN</DistanceMeters>
          </Trackpoint>
          <Trackpoint>
            <Time>2022-07-15T12:05:57.000Z</Time>
            <Position>
              <LatitudeDegrees>43.39546007104218006134033203125</LatitudeDegrees>
              <LongitudeDegrees>-4.6011520363390445709228515625</LongitudeDegrees>
            </Position>
            <AltitudeMeters>22.6000003814697265625</AltitudeMeters>
            <DistanceMeters>NAN</DistanceMeters>
          </Trackpoint>
          <Trackpoint>
            <Time>2022-07-15T12:06:01.000Z</Time>
            <Position>
              <LatitudeDegrees>43.3954836241900920867919921875</LatitudeDegrees>
              <LongitudeDegrees>-4.6012764237821102142333984375</LongitudeDegrees>
            </Position>
            <AltitudeMeters>22.799999237060546875</AltitudeMeters>
            <DistanceMeters>NAN</DistanceMeters>
          </Trackpoint>
          <Trackpoint>
            <Time>2022-07-15T12:06:03.000Z</Time>
            <Position>
              <LatitudeDegrees>43.39548982679843902587890625</LatitudeDegrees>
              <LongitudeDegrees>-4.6013307385146617889404296875</LongitudeDegrees>
            </Position>
            <AltitudeMeters>22.6000003814697265625</AltitudeMeters>
            <DistanceMeters>NAN</DistanceMeters>
          </Trackpoint>
          <Trackpoint>
            <Time>2022-07-15T12:06:06.000Z</Time>
            <Position>
              <LatitudeDegrees>43.3955039083957672119140625</LatitudeDegrees>
              <LongitudeDegrees>-4.6014390327036380767822265625</LongitudeDegrees>
            </Position>
            <AltitudeMeters>22.799999237060546875</AltitudeMeters>
            <DistanceMeters>NAN</DistanceMeters>
          </Trackpoint>
          <Trackpoint>
            <Time>2022-07-15T12:06:10.000Z</Time>
            <Position>
              <LatitudeDegrees>43.395525030791759490966796875</LatitudeDegrees>
              <LongitudeDegrees>-4.60156350396573543548583984375</LongitudeDegrees>
            </Position>
            <AltitudeMeters>22.799999237060546875</AltitudeMeters>
            <DistanceMeters>NAN</DistanceMeters>
          </Trackpoint>
          <Trackpoint>
            <Time>2022-07-15T12:06:11.000Z</Time>
            <Position>
              <LatitudeDegrees>43.39552813209593296051025390625</LatitudeDegrees>
              <LongitudeDegrees>-4.60159552283585071563720703125</LongitudeDegrees>
            </Position>
            <AltitudeMeters>22.799999237060546875</AltitudeMeters>
            <DistanceMeters>NAN</DistanceMeters>
          </Trackpoint>
          <Trackpoint>
            <Time>2022-07-15T12:06:16.000Z</Time>
            <Position>
              <LatitudeDegrees>43.39553282596170902252197265625</LatitudeDegrees>
              <LongitudeDegrees>-4.60172183811664581298828125</LongitudeDegrees>
            </Position>
            <AltitudeMeters>22.799999237060546875</AltitudeMeters>
            <DistanceMeters>NAN</DistanceMeters>
          </Trackpoint>
          <Trackpoint>
            <Time>2022-07-15T12:06:23.000Z</Time>
            <Position>
              <LatitudeDegrees>43.3955543674528598785400390625</LatitudeDegrees>
              <LongitudeDegrees>-4.60187313146889209747314453125</LongitudeDegrees>
            </Position>
            <AltitudeMeters>22.799999237060546875</AltitudeMeters>
            <DistanceMeters>NAN</DistanceMeters>
          </Trackpoint>
          <Trackpoint>
            <Time>2022-07-15T12:06:28.000Z</Time>
            <Position>
              <LatitudeDegrees>43.395547159016132354736328125</LatitudeDegrees>
              <LongitudeDegrees>-4.6019446291029453277587890625</LongitudeDegrees>
            </Position>
            <AltitudeMeters>23</AltitudeMeters>
            <DistanceMeters>NAN</DistanceMeters>
          </Trackpoint>
          <Trackpoint>
            <Time>2022-07-15T12:06:29.000Z</Time>
            <Position>
              <LatitudeDegrees>43.395547159016132354736328125</LatitudeDegrees>
              <LongitudeDegrees>-4.6019446291029453277587890625</LongitudeDegrees>
            </Position>
            <AltitudeMeters>23</AltitudeMeters>
            <DistanceMeters>NAN</DistanceMeters>
          </Trackpoint>
          <Trackpoint>
            <Time>2022-07-15T12:08:21.000Z</Time>
            <Position>
              <LatitudeDegrees>43.39554439298808574676513671875</LatitudeDegrees>
              <LongitudeDegrees>-4.6020036377012729644775390625</LongitudeDegrees>
            </Position>
            <AltitudeMeters>23.799999237060546875</AltitudeMeters>
            <DistanceMeters>NAN</DistanceMeters>
          </Trackpoint>
          <Trackpoint>
            <Time>2022-07-15T12:08:22.000Z</Time>
            <Position>
              <LatitudeDegrees>43.39554539881646633148193359375</LatitudeDegrees>
              <LongitudeDegrees>-4.60201277397572994232177734375</LongitudeDegrees>
            </Position>
            <AltitudeMeters>24</AltitudeMeters>
            <DistanceMeters>NAN</DistanceMeters>
          </Trackpoint>
          <Trackpoint>
            <Time>2022-07-15T12:08:24.000Z</Time>
            <Position>
              <LatitudeDegrees>43.39554539881646633148193359375</LatitudeDegrees>
              <LongitudeDegrees>-4.60201277397572994232177734375</LongitudeDegrees>
            </Position>
            <AltitudeMeters>24</AltitudeMeters>
            <DistanceMeters>NAN</DistanceMeters>
          </Trackpoint>
          <Trackpoint>
            <Time>2022-07-15T12:08:30.000Z</Time>
            <Position>
              <LatitudeDegrees>43.39552980847656726837158203125</LatitudeDegrees>
              <LongitudeDegrees>-4.60206155665218830108642578125</LongitudeDegrees>
            </Position>
            <AltitudeMeters>24</AltitudeMeters>
            <DistanceMeters>NAN</DistanceMeters>
          </Trackpoint>
          <Trackpoint>
            <Time>2022-07-15T12:08:33.000Z</Time>
            <Position>
              <LatitudeDegrees>43.39550399221479892730712890625</LatitudeDegrees>
              <LongitudeDegrees>-4.60214051418006420135498046875</LongitudeDegrees>
            </Position>
            <AltitudeMeters>24.200000762939453125</AltitudeMeters>
            <DistanceMeters>NAN</DistanceMeters>
          </Trackpoint>
          <Trackpoint>
            <Time>2022-07-15T12:08:36.000Z</Time>
            <Position>
              <LatitudeDegrees>43.3954722248017787933349609375</LatitudeDegrees>
              <LongitudeDegrees>-4.60220572538673877716064453125</LongitudeDegrees>
            </Position>
            <AltitudeMeters>25</AltitudeMeters>
            <DistanceMeters>NAN</DistanceMeters>
          </Trackpoint>
          <Trackpoint>
            <Time>2022-07-15T12:08:39.000Z</Time>
            <Position>
              <LatitudeDegrees>43.395441882312297821044921875</LatitudeDegrees>
              <LongitudeDegrees>-4.60224478505551815032958984375</LongitudeDegrees>
            </Position>
            <AltitudeMeters>25.799999237060546875</AltitudeMeters>
            <DistanceMeters>NAN</DistanceMeters>
          </Trackpoint>
          <Trackpoint>
            <Time>2022-07-15T12:08:41.000Z</Time>
            <Position>
              <LatitudeDegrees>43.39543894864618778228759765625</LatitudeDegrees>
              <LongitudeDegrees>-4.60227034986019134521484375</LongitudeDegrees>
            </Position>
            <AltitudeMeters>26.200000762939453125</AltitudeMeters>
            <DistanceMeters>NAN</DistanceMeters>
          </Trackpoint>
          <Trackpoint>
            <Time>2022-07-15T12:08:43.000Z</Time>
            <Position>
              <LatitudeDegrees>43.395453281700611114501953125</LatitudeDegrees>
              <LongitudeDegrees>-4.6022571064531803131103515625</LongitudeDegrees>
            </Position>
            <AltitudeMeters>26.6000003814697265625</AltitudeMeters>
            <DistanceMeters>NAN</DistanceMeters>
          </Trackpoint>
          <Trackpoint>
            <Time>2022-07-15T12:08:50.000Z</Time>
            <Position>
              <LatitudeDegrees>43.39550851844251155853271484375</LatitudeDegrees>
              <LongitudeDegrees>-4.6021525003015995025634765625</LongitudeDegrees>
            </Position>
            <AltitudeMeters>26</AltitudeMeters>
            <DistanceMeters>NAN</DistanceMeters>
          </Trackpoint>
          <Trackpoint>
            <Time>2022-07-15T12:09:00.000Z</Time>
            <Position>
              <LatitudeDegrees>43.39556132443249225616455078125</LatitudeDegrees>
              <LongitudeDegrees>-4.6020160429179668426513671875</LongitudeDegrees>
            </Position>
            <AltitudeMeters>25.200000762939453125</AltitudeMeters>
            <DistanceMeters>NAN</DistanceMeters>
          </Trackpoint>
          <Trackpoint>
            <Time>2022-07-15T12:09:02.000Z</Time>
            <Position>
              <LatitudeDegrees>43.39556761085987091064453125</LatitudeDegrees>
              <LongitudeDegrees>-4.602002464234828948974609375</LongitudeDegrees>
            </Position>
            <AltitudeMeters>25</AltitudeMeters>
            <DistanceMeters>NAN</DistanceMeters>
          </Trackpoint>
          <Trackpoint>
            <Time>2022-07-15T12:09:05.000Z</Time>
            <Position>
              <LatitudeDegrees>43.395558893680572509765625</LatitudeDegrees>
              <LongitudeDegrees>-4.60198511369526386260986328125</LongitudeDegrees>
            </Position>
            <AltitudeMeters>24.799999237060546875</AltitudeMeters>
            <DistanceMeters>NAN</DistanceMeters>
          </Trackpoint>
          <Trackpoint>
            <Time>2022-07-15T12:09:09.000Z</Time>
            <Position>
              <LatitudeDegrees>43.39554615318775177001953125</LatitudeDegrees>
              <LongitudeDegrees>-4.60198695771396160125732421875</LongitudeDegrees>
            </Position>
            <AltitudeMeters>24.3999996185302734375</AltitudeMeters>
            <DistanceMeters>NAN</DistanceMeters>
          </Trackpoint>
          <Trackpoint>
            <Time>2022-07-15T12:10:06.000Z</Time>
            <Position>
              <LatitudeDegrees>43.39554942212998867034912109375</LatitudeDegrees>
              <LongitudeDegrees>-4.602001793682575225830078125</LongitudeDegrees>
            </Position>
            <AltitudeMeters>25</AltitudeMeters>
            <DistanceMeters>NAN</DistanceMeters>
          </Trackpoint>
          <Trackpoint>
            <Time>2022-07-15T12:10:10.000Z</Time>
            <Position>
              <LatitudeDegrees>43.3955516852438449859619140625</LatitudeDegrees>
              <LongitudeDegrees>-4.6019835211336612701416015625</LongitudeDegrees>
            </Position>
            <AltitudeMeters>24.6000003814697265625</AltitudeMeters>
            <DistanceMeters>NAN</DistanceMeters>
          </Trackpoint>
          <Trackpoint>
            <Time>2022-07-15T12:10:11.000Z</Time>
            <Position>
              <LatitudeDegrees>43.3955516852438449859619140625</LatitudeDegrees>
              <LongitudeDegrees>-4.6019835211336612701416015625</LongitudeDegrees>
            </Position>
            <AltitudeMeters>24.3999996185302734375</AltitudeMeters>
            <DistanceMeters>NAN</DistanceMeters>
          </Trackpoint>
          <Trackpoint>
            <Time>2022-07-15T12:15:26.000Z</Time>
            <Position>
              <LatitudeDegrees>43.39551991783082485198974609375</LatitudeDegrees>
              <LongitudeDegrees>-4.602110087871551513671875</LongitudeDegrees>
            </Position>
            <AltitudeMeters>25.799999237060546875</AltitudeMeters>
            <DistanceMeters>NAN</DistanceMeters>
          </Trackpoint>
          <Trackpoint>
            <Time>2022-07-15T12:15:27.000Z</Time>
            <Position>
              <LatitudeDegrees>43.3955074287950992584228515625</LatitudeDegrees>
              <LongitudeDegrees>-4.60212894715368747711181640625</LongitudeDegrees>
            </Position>
            <AltitudeMeters>25.799999237060546875</AltitudeMeters>
            <DistanceMeters>NAN</DistanceMeters>
          </Trackpoint>
          <Trackpoint>
            <Time>2022-07-15T12:15:29.000Z</Time>
            <Position>
              <LatitudeDegrees>43.39548806659877300262451171875</LatitudeDegrees>
              <LongitudeDegrees>-4.602168761193752288818359375</LongitudeDegrees>
            </Position>
            <AltitudeMeters>26.3999996185302734375</AltitudeMeters>
            <DistanceMeters>NAN</DistanceMeters>
          </Trackpoint>
          <Trackpoint>
            <Time>2022-07-15T12:15:34.000Z</Time>
            <Position>
              <LatitudeDegrees>43.3954274654388427734375</LatitudeDegrees>
              <LongitudeDegrees>-4.60227034986019134521484375</LongitudeDegrees>
            </Position>
            <AltitudeMeters>27.3999996185302734375</AltitudeMeters>
            <DistanceMeters>NAN</DistanceMeters>
          </Trackpoint>
          <Trackpoint>
            <Time>2022-07-15T12:15:35.000Z</Time>
            <Position>
              <LatitudeDegrees>43.3954127132892608642578125</LatitudeDegrees>
              <LongitudeDegrees>-4.60229180753231048583984375</LongitudeDegrees>
            </Position>
            <AltitudeMeters>27.6000003814697265625</AltitudeMeters>
            <DistanceMeters>NAN</DistanceMeters>
          </Trackpoint>
          <Trackpoint>
            <Time>2022-07-15T12:15:39.000Z</Time>
            <Position>
              <LatitudeDegrees>43.39537356980144977569580078125</LatitudeDegrees>
              <LongitudeDegrees>-4.60238425992429256439208984375</LongitudeDegrees>
            </Position>
            <AltitudeMeters>28.3999996185302734375</AltitudeMeters>
            <DistanceMeters>NAN</DistanceMeters>
          </Trackpoint>
          <Trackpoint>
            <Time>2022-07-15T12:15:41.000Z</Time>
            <Position>
              <LatitudeDegrees>43.39536468498408794403076171875</LatitudeDegrees>
              <LongitudeDegrees>-4.6024359762668609619140625</LongitudeDegrees>
            </Position>
            <AltitudeMeters>28.799999237060546875</AltitudeMeters>
            <DistanceMeters>NAN</DistanceMeters>
          </Trackpoint>
          <Trackpoint>
            <Time>2022-07-15T12:15:43.000Z</Time>
            <Position>
              <LatitudeDegrees>43.39536099694669246673583984375</LatitudeDegrees>
              <LongitudeDegrees>-4.6024827472865581512451171875</LongitudeDegrees>
            </Position>
            <AltitudeMeters>29</AltitudeMeters>
            <DistanceMeters>NAN</DistanceMeters>
          </Trackpoint>
          <Trackpoint>
            <Time>2022-07-15T12:15:46.000Z</Time>
            <Position>
              <LatitudeDegrees>43.3953635953366756439208984375</LatitudeDegrees>
              <LongitudeDegrees>-4.6025494672358036041259765625</LongitudeDegrees>
            </Position>
            <AltitudeMeters>29.3999996185302734375</AltitudeMeters>
            <DistanceMeters>NAN</DistanceMeters>
          </Trackpoint>
          <Trackpoint>
            <Time>2022-07-15T12:15:49.000Z</Time>
            <Position>
              <LatitudeDegrees>43.3953810296952724456787109375</LatitudeDegrees>
              <LongitudeDegrees>-4.6026108227670192718505859375</LongitudeDegrees>
            </Position>
            <AltitudeMeters>30</AltitudeMeters>
            <DistanceMeters>NAN</DistanceMeters>
          </Trackpoint>
          <Trackpoint>
            <Time>2022-07-15T12:15:50.000Z</Time>
            <Position>
              <LatitudeDegrees>43.39538781903684139251708984375</LatitudeDegrees>
              <LongitudeDegrees>-4.6026352979242801666259765625</LongitudeDegrees>
            </Position>
            <AltitudeMeters>30.200000762939453125</AltitudeMeters>
            <DistanceMeters>NAN</DistanceMeters>
          </Trackpoint>
          <Trackpoint>
            <Time>2022-07-15T12:15:52.000Z</Time>
            <Position>
              <LatitudeDegrees>43.3954058401286602020263671875</LatitudeDegrees>
              <LongitudeDegrees>-4.60269422270357608795166015625</LongitudeDegrees>
            </Position>
            <AltitudeMeters>30.200000762939453125</AltitudeMeters>
            <DistanceMeters>NAN</DistanceMeters>
          </Trackpoint>
          <Trackpoint>
            <Time>2022-07-15T12:15:56.000Z</Time>
            <Position>
              <LatitudeDegrees>43.39545118622481822967529296875</LatitudeDegrees>
              <LongitudeDegrees>-4.60285934619605541229248046875</LongitudeDegrees>
            </Position>
            <AltitudeMeters>30</AltitudeMeters>
            <DistanceMeters>NAN</DistanceMeters>
          </Trackpoint>
          <Trackpoint>
            <Time>2022-07-15T12:16:02.000Z</Time>
            <Position>
              <LatitudeDegrees>43.39545370079576969146728515625</LatitudeDegrees>
              <LongitudeDegrees>-4.603167213499546051025390625</LongitudeDegrees>
            </Position>
            <AltitudeMeters>29.200000762939453125</AltitudeMeters>
            <DistanceMeters>NAN</DistanceMeters>
          </Trackpoint>
          <Trackpoint>
            <Time>2022-07-15T12:16:07.000Z</Time>
            <Position>
              <LatitudeDegrees>43.39541799388825893402099609375</LatitudeDegrees>
              <LongitudeDegrees>-4.60332722403109073638916015625</LongitudeDegrees>
            </Position>
            <AltitudeMeters>28.799999237060546875</AltitudeMeters>
            <DistanceMeters>NAN</DistanceMeters>
          </Trackpoint>
          <Trackpoint>
            <Time>2022-07-15T12:16:10.000Z</Time>
            <Position>
              <LatitudeDegrees>43.3954234421253204345703125</LatitudeDegrees>
              <LongitudeDegrees>-4.6034459955990314483642578125</LongitudeDegrees>
            </Position>
            <AltitudeMeters>28.200000762939453125</AltitudeMeters>
            <DistanceMeters>NAN</DistanceMeters>
          </Trackpoint>
          <Trackpoint>
            <Time>2022-07-15T12:16:13.000Z</Time>
            <Position>
              <LatitudeDegrees>43.395422436296939849853515625</LatitudeDegrees>
              <LongitudeDegrees>-4.603585638105869293212890625</LongitudeDegrees>
            </Position>
            <AltitudeMeters>27</AltitudeMeters>
            <DistanceMeters>NAN</DistanceMeters>
          </Trackpoint>
          <Trackpoint>
            <Time>2022-07-15T12:16:14.000Z</Time>
            <Position>
              <LatitudeDegrees>43.39541749097406864166259765625</LatitudeDegrees>
              <LongitudeDegrees>-4.60362964309751987457275390625</LongitudeDegrees>
            </Position>
            <AltitudeMeters>26.799999237060546875</AltitudeMeters>
            <DistanceMeters>NAN</DistanceMeters>
          </Trackpoint>
          <Trackpoint>
            <Time>2022-07-15T12:16:16.000Z</Time>
            <Position>
              <LatitudeDegrees>43.39539997279644012451171875</LatitudeDegrees>
              <LongitudeDegrees>-4.603711031377315521240234375</LongitudeDegrees>
            </Position>
            <AltitudeMeters>26</AltitudeMeters>
            <DistanceMeters>NAN</DistanceMeters>
          </Trackpoint>
          <Trackpoint>
            <Time>2022-07-15T12:16:19.000Z</Time>
            <Position>
              <LatitudeDegrees>43.3953456580638885498046875</LatitudeDegrees>
              <LongitudeDegrees>-4.60381069220602512359619140625</LongitudeDegrees>
            </Position>
            <AltitudeMeters>24.799999237060546875</AltitudeMeters>
            <DistanceMeters>NAN</DistanceMeters>
          </Trackpoint>
          <Trackpoint>
            <Time>2022-07-15T12:16:22.000Z</Time>
            <Position>
              <LatitudeDegrees>43.3952558040618896484375</LatitudeDegrees>
              <LongitudeDegrees>-4.6038842014968395233154296875</LongitudeDegrees>
            </Position>
            <AltitudeMeters>23.799999237060546875</AltitudeMeters>
            <DistanceMeters>NAN</DistanceMeters>
          </Trackpoint>
          <Trackpoint>
            <Time>2022-07-15T12:16:25.000Z</Time>
            <Position>
              <LatitudeDegrees>43.3951252140104770660400390625</LatitudeDegrees>
              <LongitudeDegrees>-4.603941701352596282958984375</LongitudeDegrees>
            </Position>
            <AltitudeMeters>23</AltitudeMeters>
            <DistanceMeters>NAN</DistanceMeters>
          </Trackpoint>
          <Trackpoint>
            <Time>2022-07-15T12:16:26.000Z</Time>
            <Position>
              <LatitudeDegrees>43.3950779400765895843505859375</LatitudeDegrees>
              <LongitudeDegrees>-4.60395704023540019989013671875</LongitudeDegrees>
            </Position>
            <AltitudeMeters>22.6000003814697265625</AltitudeMeters>
            <DistanceMeters>NAN</DistanceMeters>
          </Trackpoint>
          <Trackpoint>
            <Time>2022-07-15T12:16:27.000Z</Time>
            <Position>
              <LatitudeDegrees>43.39503544382750988006591796875</LatitudeDegrees>
              <LongitudeDegrees>-4.60397732444107532501220703125</LongitudeDegrees>
            </Position>
            <AltitudeMeters>22.3999996185302734375</AltitudeMeters>
            <DistanceMeters>NAN</DistanceMeters>
          </Trackpoint>
          <Trackpoint>
            <Time>2022-07-15T12:16:30.000Z</Time>
            <Position>
              <LatitudeDegrees>43.39492656290531158447265625</LatitudeDegrees>
              <LongitudeDegrees>-4.6040667593479156494140625</LongitudeDegrees>
            </Position>
            <AltitudeMeters>21.799999237060546875</AltitudeMeters>
            <DistanceMeters>NAN</DistanceMeters>
          </Trackpoint>
          <Trackpoint>
            <Time>2022-07-15T12:16:31.000Z</Time>
            <Position>
              <LatitudeDegrees>43.39489714242517948150634765625</LatitudeDegrees>
              <LongitudeDegrees>-4.6041034720838069915771484375</LongitudeDegrees>
            </Position>
            <AltitudeMeters>21.799999237060546875</AltitudeMeters>
            <DistanceMeters>NAN</DistanceMeters>
          </Trackpoint>
          <Trackpoint>
            <Time>2022-07-15T12:16:32.000Z</Time>
            <Position>
              <LatitudeDegrees>43.39487182907760143280029296875</LatitudeDegrees>
              <LongitudeDegrees>-4.60413959808647632598876953125</LongitudeDegrees>
            </Position>
            <AltitudeMeters>21.6000003814697265625</AltitudeMeters>
            <DistanceMeters>NAN</DistanceMeters>
          </Trackpoint>
          <Trackpoint>
            <Time>2022-07-15T12:16:35.000Z</Time>
            <Position>
              <LatitudeDegrees>43.3948147483170032501220703125</LatitudeDegrees>
              <LongitudeDegrees>-4.60425392724573612213134765625</LongitudeDegrees>
            </Position>
            <AltitudeMeters>21</AltitudeMeters>
            <DistanceMeters>NAN</DistanceMeters>
          </Trackpoint>
          <Trackpoint>
            <Time>2022-07-15T12:16:41.000Z</Time>
            <Position>
              <LatitudeDegrees>43.394676111638545989990234375</LatitudeDegrees>
              <LongitudeDegrees>-4.60446464829146862030029296875</LongitudeDegrees>
            </Position>
            <AltitudeMeters>20.3999996185302734375</AltitudeMeters>
            <DistanceMeters>NAN</DistanceMeters>
          </Trackpoint>
          <Trackpoint>
            <Time>2022-07-15T12:16:42.000Z</Time>
            <Position>
              <LatitudeDegrees>43.39464333839714527130126953125</LatitudeDegrees>
              <LongitudeDegrees>-4.60449901409447193145751953125</LongitudeDegrees>
            </Position>
            <AltitudeMeters>20.3999996185302734375</AltitudeMeters>
            <DistanceMeters>NAN</DistanceMeters>
          </Trackpoint>
          <Trackpoint>
            <Time>2022-07-15T12:16:44.000Z</Time>
            <Position>
              <LatitudeDegrees>43.394566141068935394287109375</LatitudeDegrees>
              <LongitudeDegrees>-4.6045587770640850067138671875</LongitudeDegrees>
            </Position>
            <AltitudeMeters>20</AltitudeMeters>
            <DistanceMeters>NAN</DistanceMeters>
          </Trackpoint>
          <Trackpoint>
            <Time>2022-07-15T12:16:47.000Z</Time>
            <Position>
              <LatitudeDegrees>43.39446379803121089935302734375</LatitudeDegrees>
              <LongitudeDegrees>-4.60462407208979129791259765625</LongitudeDegrees>
            </Position>
            <AltitudeMeters>19.799999237060546875</AltitudeMeters>
            <DistanceMeters>NAN</DistanceMeters>
          </Trackpoint>
          <Trackpoint>
            <Time>2022-07-15T12:16:51.000Z</Time>
            <Position>
              <LatitudeDegrees>43.3943570964038372039794921875</LatitudeDegrees>
              <LongitudeDegrees>-4.60468794219195842742919921875</LongitudeDegrees>
            </Position>
            <AltitudeMeters>20</AltitudeMeters>
            <DistanceMeters>NAN</DistanceMeters>
          </Trackpoint>
          <Trackpoint>
            <Time>2022-07-15T12:16:54.000Z</Time>
            <Position>
              <LatitudeDegrees>43.3942897059023380279541015625</LatitudeDegrees>
              <LongitudeDegrees>-4.60473303683102130889892578125</LongitudeDegrees>
            </Position>
            <AltitudeMeters>20.3999996185302734375</AltitudeMeters>
            <DistanceMeters>NAN</DistanceMeters>
          </Trackpoint>
          <Trackpoint>
            <Time>2022-07-15T12:16:55.000Z</Time>
            <Position>
              <LatitudeDegrees>43.39426816441118717193603515625</LatitudeDegrees>
              <LongitudeDegrees>-4.6047475375235080718994140625</LongitudeDegrees>
            </Position>
            <AltitudeMeters>20.3999996185302734375</AltitudeMeters>
            <DistanceMeters>NAN</DistanceMeters>
          </Trackpoint>
          <Trackpoint>
            <Time>2022-07-15T12:17:00.000Z</Time>
            <Position>
              <LatitudeDegrees>43.39419725351035594940185546875</LatitudeDegrees>
              <LongitudeDegrees>-4.60482515394687652587890625</LongitudeDegrees>
            </Position>
            <AltitudeMeters>21.3999996185302734375</AltitudeMeters>
            <DistanceMeters>NAN</DistanceMeters>
          </Trackpoint>
          <Trackpoint>
            <Time>2022-07-15T12:17:01.000Z</Time>
            <Position>
              <LatitudeDegrees>43.39419390074908733367919921875</LatitudeDegrees>
              <LongitudeDegrees>-4.60484099574387073516845703125</LongitudeDegrees>
            </Position>
            <AltitudeMeters>21.6000003814697265625</AltitudeMeters>
            <DistanceMeters>NAN</DistanceMeters>
          </Trackpoint>
          <Trackpoint>
            <Time>2022-07-15T12:17:06.000Z</Time>
            <Position>
              <LatitudeDegrees>43.3941545896232128143310546875</LatitudeDegrees>
              <LongitudeDegrees>-4.60492908954620361328125</LongitudeDegrees>
            </Position>
            <AltitudeMeters>22.200000762939453125</AltitudeMeters>
            <DistanceMeters>NAN</DistanceMeters>
          </Trackpoint>
          <Trackpoint>
            <Time>2022-07-15T12:17:08.000Z</Time>
            <Position>
              <LatitudeDegrees>43.3941378258168697357177734375</LatitudeDegrees>
              <LongitudeDegrees>-4.6049694903194904327392578125</LongitudeDegrees>
            </Position>
            <AltitudeMeters>22.3999996185302734375</AltitudeMeters>
            <DistanceMeters>NAN</DistanceMeters>
          </Trackpoint>
          <Trackpoint>
            <Time>2022-07-15T12:17:09.000Z</Time>
            <Position>
              <LatitudeDegrees>43.394126258790493011474609375</LatitudeDegrees>
              <LongitudeDegrees>-4.6049909479916095733642578125</LongitudeDegrees>
            </Position>
            <AltitudeMeters>22.6000003814697265625</AltitudeMeters>
            <DistanceMeters>NAN</DistanceMeters>
          </Trackpoint>
          <Trackpoint>
            <Time>2022-07-15T12:17:12.000Z</Time>
            <Position>
              <LatitudeDegrees>43.39410270564258098602294921875</LatitudeDegrees>
              <LongitudeDegrees>-4.6050650440156459808349609375</LongitudeDegrees>
            </Position>
            <AltitudeMeters>23</AltitudeMeters>
            <DistanceMeters>NAN</DistanceMeters>
          </Trackpoint>
          <Trackpoint>
            <Time>2022-07-15T12:17:14.000Z</Time>
            <Position>
              <LatitudeDegrees>43.394094742834568023681640625</LatitudeDegrees>
              <LongitudeDegrees>-4.605107121169567108154296875</LongitudeDegrees>
            </Position>
            <AltitudeMeters>23.3999996185302734375</AltitudeMeters>
            <DistanceMeters>NAN</DistanceMeters>
          </Trackpoint>
          <Trackpoint>
            <Time>2022-07-15T12:17:15.000Z</Time>
            <Position>
              <LatitudeDegrees>43.39409147389233112335205078125</LatitudeDegrees>
              <LongitudeDegrees>-4.6051260642707347869873046875</LongitudeDegrees>
            </Position>
            <AltitudeMeters>23.6000003814697265625</AltitudeMeters>
            <DistanceMeters>NAN</DistanceMeters>
          </Trackpoint>
          <Trackpoint>
            <Time>2022-07-15T12:17:16.000Z</Time>
            <Position>
              <LatitudeDegrees>43.39408678002655506134033203125</LatitudeDegrees>
              <LongitudeDegrees>-4.6051461808383464813232421875</LongitudeDegrees>
            </Position>
            <AltitudeMeters>23.6000003814697265625</AltitudeMeters>
            <DistanceMeters>NAN</DistanceMeters>
          </Trackpoint>
          <Trackpoint>
            <Time>2022-07-15T12:17:19.000Z</Time>
            <Position>
              <LatitudeDegrees>43.3940768055617809295654296875</LatitudeDegrees>
              <LongitudeDegrees>-4.605200998485088348388671875</LongitudeDegrees>
            </Position>
            <AltitudeMeters>24.200000762939453125</AltitudeMeters>
            <DistanceMeters>NAN</DistanceMeters>
          </Trackpoint>
          <Trackpoint>
            <Time>2022-07-15T12:17:21.000Z</Time>
            <Position>
              <LatitudeDegrees>43.39406867511570453643798828125</LatitudeDegrees>
              <LongitudeDegrees>-4.605233855545520782470703125</LongitudeDegrees>
            </Position>
            <AltitudeMeters>24.799999237060546875</AltitudeMeters>
            <DistanceMeters>NAN</DistanceMeters>
          </Trackpoint>
          <Trackpoint>
            <Time>2022-07-15T12:17:24.000Z</Time>
            <Position>
              <LatitudeDegrees>43.39404738508164882659912109375</LatitudeDegrees>
              <LongitudeDegrees>-4.60529747419059276580810546875</LongitudeDegrees>
            </Position>
            <AltitudeMeters>25.200000762939453125</AltitudeMeters>
            <DistanceMeters>NAN</DistanceMeters>
          </Trackpoint>
          <Trackpoint>
            <Time>2022-07-15T12:17:27.000Z</Time>
            <Position>
              <LatitudeDegrees>43.39404118247330188751220703125</LatitudeDegrees>
              <LongitudeDegrees>-4.6053595840930938720703125</LongitudeDegrees>
            </Position>
            <AltitudeMeters>25.799999237060546875</AltitudeMeters>
            <DistanceMeters>NAN</DistanceMeters>
          </Trackpoint>
          <Trackpoint>
            <Time>2022-07-15T12:17:28.000Z</Time>
            <Position>
              <LatitudeDegrees>43.39403581805527210235595703125</LatitudeDegrees>
              <LongitudeDegrees>-4.6053785271942615509033203125</LongitudeDegrees>
            </Position>
            <AltitudeMeters>26</AltitudeMeters>
            <DistanceMeters>NAN</DistanceMeters>
          </Trackpoint>
          <Trackpoint>
            <Time>2022-07-15T12:17:31.000Z</Time>
            <Position>
              <LatitudeDegrees>43.39401989243924617767333984375</LatitudeDegrees>
              <LongitudeDegrees>-4.60543778724968433380126953125</LongitudeDegrees>
            </Position>
            <AltitudeMeters>26.6000003814697265625</AltitudeMeters>
            <DistanceMeters>NAN</DistanceMeters>
          </Trackpoint>
          <Trackpoint>
            <Time>2022-07-15T12:17:34.000Z</Time>
            <Position>
              <LatitudeDegrees>43.39400648139417171478271484375</LatitudeDegrees>
              <LongitudeDegrees>-4.60549361072480678558349609375</LongitudeDegrees>
            </Position>
            <AltitudeMeters>27</AltitudeMeters>
            <DistanceMeters>NAN</DistanceMeters>
          </Trackpoint>
          <Trackpoint>
            <Time>2022-07-15T12:17:35.000Z</Time>
            <Position>
              <LatitudeDegrees>43.394003212451934814453125</LatitudeDegrees>
              <LongitudeDegrees>-4.60551640950143337249755859375</LongitudeDegrees>
            </Position>
            <AltitudeMeters>27</AltitudeMeters>
            <DistanceMeters>NAN</DistanceMeters>
          </Trackpoint>
          <Trackpoint>
            <Time>2022-07-15T12:17:39.000Z</Time>
            <Position>
              <LatitudeDegrees>43.39396909810602664947509765625</LatitudeDegrees>
              <LongitudeDegrees>-4.60559134371578693389892578125</LongitudeDegrees>
            </Position>
            <AltitudeMeters>27.6000003814697265625</AltitudeMeters>
            <DistanceMeters>NAN</DistanceMeters>
          </Trackpoint>
          <Trackpoint>
            <Time>2022-07-15T12:17:45.000Z</Time>
            <Position>
              <LatitudeDegrees>43.393905647099018096923828125</LatitudeDegrees>
              <LongitudeDegrees>-4.6056819520890712738037109375</LongitudeDegrees>
            </Position>
            <AltitudeMeters>28.3999996185302734375</AltitudeMeters>
            <DistanceMeters>NAN</DistanceMeters>
          </Trackpoint>
          <Trackpoint>
            <Time>2022-07-15T12:17:50.000Z</Time>
            <Position>
              <LatitudeDegrees>43.39381889440119266510009765625</LatitudeDegrees>
              <LongitudeDegrees>-4.6057409606873989105224609375</LongitudeDegrees>
            </Position>
            <AltitudeMeters>28.6000003814697265625</AltitudeMeters>
            <DistanceMeters>NAN</DistanceMeters>
          </Trackpoint>
          <Trackpoint>
            <Time>2022-07-15T12:17:56.000Z</Time>
            <Position>
              <LatitudeDegrees>43.39369635097682476043701171875</LatitudeDegrees>
              <LongitudeDegrees>-4.6058048307895660400390625</LongitudeDegrees>
            </Position>
            <AltitudeMeters>28.200000762939453125</AltitudeMeters>
            <DistanceMeters>NAN</DistanceMeters>
          </Trackpoint>
          <Trackpoint>
            <Time>2022-07-15T12:18:00.000Z</Time>
            <Position>
              <LatitudeDegrees>43.3936349116265773773193359375</LatitudeDegrees>
              <LongitudeDegrees>-4.60589359514415264129638671875</LongitudeDegrees>
            </Position>
            <AltitudeMeters>28</AltitudeMeters>
            <DistanceMeters>NAN</DistanceMeters>
          </Trackpoint>
          <Trackpoint>
            <Time>2022-07-15T12:18:01.000Z</Time>
            <Position>
              <LatitudeDegrees>43.39362594299018383026123046875</LatitudeDegrees>
              <LongitudeDegrees>-4.60591471754014492034912109375</LongitudeDegrees>
            </Position>
            <AltitudeMeters>28.200000762939453125</AltitudeMeters>
            <DistanceMeters>NAN</DistanceMeters>
          </Trackpoint>
          <Trackpoint>
            <Time>2022-07-15T12:18:03.000Z</Time>
            <Position>
              <LatitudeDegrees>43.39361454360187053680419921875</LatitudeDegrees>
              <LongitudeDegrees>-4.60595704615116119384765625</LongitudeDegrees>
            </Position>
            <AltitudeMeters>28.200000762939453125</AltitudeMeters>
            <DistanceMeters>NAN</DistanceMeters>
          </Trackpoint>
          <Trackpoint>
            <Time>2022-07-15T12:18:07.000Z</Time>
            <Position>
              <LatitudeDegrees>43.39360289275646209716796875</LatitudeDegrees>
              <LongitudeDegrees>-4.60605067200958728790283203125</LongitudeDegrees>
            </Position>
            <AltitudeMeters>28.200000762939453125</AltitudeMeters>
            <DistanceMeters>NAN</DistanceMeters>
          </Trackpoint>
          <Trackpoint>
            <Time>2022-07-15T12:18:09.000Z</Time>
            <Position>
              <LatitudeDegrees>43.39360331185162067413330078125</LatitudeDegrees>
              <LongitudeDegrees>-4.60609911940991878509521484375</LongitudeDegrees>
            </Position>
            <AltitudeMeters>28.200000762939453125</AltitudeMeters>
            <DistanceMeters>NAN</DistanceMeters>
          </Trackpoint>
          <Trackpoint>
            <Time>2022-07-15T12:18:11.000Z</Time>
            <Position>
              <LatitudeDegrees>43.39360197074711322784423828125</LatitudeDegrees>
              <LongitudeDegrees>-4.60614756681025028228759765625</LongitudeDegrees>
            </Position>
            <AltitudeMeters>28.200000762939453125</AltitudeMeters>
            <DistanceMeters>NAN</DistanceMeters>
          </Trackpoint>
          <Trackpoint>
            <Time>2022-07-15T12:18:14.000Z</Time>
            <Position>
              <LatitudeDegrees>43.39357045479118824005126953125</LatitudeDegrees>
              <LongitudeDegrees>-4.60622602142393589019775390625</LongitudeDegrees>
            </Position>
            <AltitudeMeters>28.6000003814697265625</AltitudeMeters>
            <DistanceMeters>NAN</DistanceMeters>
          </Trackpoint>
          <Trackpoint>
            <Time>2022-07-15T12:18:16.000Z</Time>
            <Position>
              <LatitudeDegrees>43.3935346640646457672119140625</LatitudeDegrees>
              <LongitudeDegrees>-4.6062903106212615966796875</LongitudeDegrees>
            </Position>
            <AltitudeMeters>28.799999237060546875</AltitudeMeters>
            <DistanceMeters>NAN</DistanceMeters>
          </Trackpoint>
          <Trackpoint>
            <Time>2022-07-15T12:18:18.000Z</Time>
            <Position>
              <LatitudeDegrees>43.39351731352508068084716796875</LatitudeDegrees>
              <LongitudeDegrees>-4.60634420625865459442138671875</LongitudeDegrees>
            </Position>
            <AltitudeMeters>28.799999237060546875</AltitudeMeters>
            <DistanceMeters>NAN</DistanceMeters>
          </Trackpoint>
          <Trackpoint>
            <Time>2022-07-15T12:18:19.000Z</Time>
            <Position>
              <LatitudeDegrees>43.39351597242057323455810546875</LatitudeDegrees>
              <LongitudeDegrees>-4.606385864317417144775390625</LongitudeDegrees>
            </Position>
            <AltitudeMeters>29</AltitudeMeters>
            <DistanceMeters>NAN</DistanceMeters>
          </Trackpoint>
          <Trackpoint>
            <Time>2022-07-15T12:18:22.000Z</Time>
            <Position>
              <LatitudeDegrees>43.39351094327867031097412109375</LatitudeDegrees>
              <LongitudeDegrees>-4.60649340413510799407958984375</LongitudeDegrees>
            </Position>
            <AltitudeMeters>29.3999996185302734375</AltitudeMeters>
            <DistanceMeters>NAN</DistanceMeters>
          </Trackpoint>
          <Trackpoint>
            <Time>2022-07-15T12:18:24.000Z</Time>
            <Position>
              <LatitudeDegrees>43.39350490830838680267333984375</LatitudeDegrees>
              <LongitudeDegrees>-4.6065590344369411468505859375</LongitudeDegrees>
            </Position>
            <AltitudeMeters>29.6000003814697265625</AltitudeMeters>
            <DistanceMeters>NAN</DistanceMeters>
          </Trackpoint>
          <Trackpoint>
            <Time>2022-07-15T12:18:25.000Z</Time>
            <Position>
              <LatitudeDegrees>43.39350306428968906402587890625</LatitudeDegrees>
              <LongitudeDegrees>-4.60658627562224864959716796875</LongitudeDegrees>
            </Position>
            <AltitudeMeters>29.6000003814697265625</AltitudeMeters>
            <DistanceMeters>NAN</DistanceMeters>
          </Trackpoint>
          <Trackpoint>
            <Time>2022-07-15T12:18:28.000Z</Time>
            <Position>
              <LatitudeDegrees>43.393492586910724639892578125</LatitudeDegrees>
              <LongitudeDegrees>-4.6066760458052158355712890625</LongitudeDegrees>
            </Position>
            <AltitudeMeters>29.3999996185302734375</AltitudeMeters>
            <DistanceMeters>NAN</DistanceMeters>
          </Trackpoint>
          <Trackpoint>
            <Time>2022-07-15T12:18:34.000Z</Time>
            <Position>
              <LatitudeDegrees>43.3934930898249149322509765625</LatitudeDegrees>
              <LongitudeDegrees>-4.6068497188389301300048828125</LongitudeDegrees>
            </Position>
            <AltitudeMeters>29.6000003814697265625</AltitudeMeters>
            <DistanceMeters>NAN</DistanceMeters>
          </Trackpoint>
          <Trackpoint>
            <Time>2022-07-15T12:18:41.000Z</Time>
            <Position>
              <LatitudeDegrees>43.393477834761142730712890625</LatitudeDegrees>
              <LongitudeDegrees>-4.6070267446339130401611328125</LongitudeDegrees>
            </Position>
            <AltitudeMeters>30.6000003814697265625</AltitudeMeters>
            <DistanceMeters>NAN</DistanceMeters>
          </Trackpoint>
          <Trackpoint>
            <Time>2022-07-15T12:18:43.000Z</Time>
            <Position>
              <LatitudeDegrees>43.39350054971873760223388671875</LatitudeDegrees>
              <LongitudeDegrees>-4.60707058198750019073486328125</LongitudeDegrees>
            </Position>
            <AltitudeMeters>30.799999237060546875</AltitudeMeters>
            <DistanceMeters>NAN</DistanceMeters>
          </Trackpoint>
          <Trackpoint>
            <Time>2022-07-15T12:18:46.000Z</Time>
            <Position>
              <LatitudeDegrees>43.393555618822574615478515625</LatitudeDegrees>
              <LongitudeDegrees>-4.60710042156279087066650390625</LongitudeDegrees>
            </Position>
            <AltitudeMeters>31</AltitudeMeters>
            <DistanceMeters>NAN</DistanceMeters>
          </Trackpoint>
          <Trackpoint>
            <Time>2022-07-15T12:18:52.000Z</Time>
            <Position>
              <LatitudeDegrees>43.39366332627832889556884765625</LatitudeDegrees>
              <LongitudeDegrees>-4.60709556005895137786865234375</LongitudeDegrees>
            </Position>
            <AltitudeMeters>31.3999996185302734375</AltitudeMeters>
            <DistanceMeters>NAN</DistanceMeters>
          </Trackpoint>
          <Trackpoint>
            <Time>2022-07-15T12:18:54.000Z</Time>
            <Position>
              <LatitudeDegrees>43.39369920082390308380126953125</LatitudeDegrees>
              <LongitudeDegrees>-4.60708281956613063812255859375</LongitudeDegrees>
            </Position>
            <AltitudeMeters>31.3999996185302734375</AltitudeMeters>
            <DistanceMeters>NAN</DistanceMeters>
          </Trackpoint>
          <Trackpoint>
            <Time>2022-07-15T12:18:58.000Z</Time>
            <Position>
              <LatitudeDegrees>43.39376156218349933624267578125</LatitudeDegrees>
              <LongitudeDegrees>-4.60704945959150791168212890625</LongitudeDegrees>
            </Position>
            <AltitudeMeters>31.3999996185302734375</AltitudeMeters>
            <DistanceMeters>NAN</DistanceMeters>
          </Trackpoint>
          <Trackpoint>
            <Time>2022-07-15T12:18:59.000Z</Time>
            <Position>
              <LatitudeDegrees>43.3937784098088741302490234375</LatitudeDegrees>
              <LongitudeDegrees>-4.60703588090837001800537109375</LongitudeDegrees>
            </Position>
            <AltitudeMeters>31.6000003814697265625</AltitudeMeters>
            <DistanceMeters>NAN</DistanceMeters>
          </Trackpoint>
          <Trackpoint>
            <Time>2022-07-15T12:19:00.000Z</Time>
            <Position>
              <LatitudeDegrees>43.39379735291004180908203125</LatitudeDegrees>
              <LongitudeDegrees>-4.60703051649034023284912109375</LongitudeDegrees>
            </Position>
            <AltitudeMeters>31.799999237060546875</AltitudeMeters>
            <DistanceMeters>NAN</DistanceMeters>
          </Trackpoint>
          <Trackpoint>
            <Time>2022-07-15T12:19:07.000Z</Time>
            <Position>
              <LatitudeDegrees>43.39397496543824672698974609375</LatitudeDegrees>
              <LongitudeDegrees>-4.6070049516856670379638671875</LongitudeDegrees>
            </Position>
            <AltitudeMeters>31.3999996185302734375</AltitudeMeters>
            <DistanceMeters>NAN</DistanceMeters>
          </Trackpoint>
          <Trackpoint>
            <Time>2022-07-15T12:19:09.000Z</Time>
            <Position>
              <LatitudeDegrees>43.39404352940618991851806640625</LatitudeDegrees>
              <LongitudeDegrees>-4.607018195092678070068359375</LongitudeDegrees>
            </Position>
            <AltitudeMeters>31</AltitudeMeters>
            <DistanceMeters>NAN</DistanceMeters>
          </Trackpoint>
          <Trackpoint>
            <Time>2022-07-15T12:19:11.000Z</Time>
            <Position>
              <LatitudeDegrees>43.3941011130809783935546875</LatitudeDegrees>
              <LongitudeDegrees>-4.6070428378880023956298828125</LongitudeDegrees>
            </Position>
            <AltitudeMeters>30.200000762939453125</AltitudeMeters>
            <DistanceMeters>NAN</DistanceMeters>
          </Trackpoint>
          <Trackpoint>
            <Time>2022-07-15T12:19:13.000Z</Time>
            <Position>
              <LatitudeDegrees>43.39415936730802059173583984375</LatitudeDegrees>
              <LongitudeDegrees>-4.6070802211761474609375</LongitudeDegrees>
            </Position>
            <AltitudeMeters>29.799999237060546875</AltitudeMeters>
            <DistanceMeters>NAN</DistanceMeters>
          </Trackpoint>
          <Trackpoint>
            <Time>2022-07-15T12:19:15.000Z</Time>
            <Position>
              <LatitudeDegrees>43.3942474611103534698486328125</LatitudeDegrees>
              <LongitudeDegrees>-4.6071055345237255096435546875</LongitudeDegrees>
            </Position>
            <AltitudeMeters>29.3999996185302734375</AltitudeMeters>
            <DistanceMeters>NAN</DistanceMeters>
          </Trackpoint>
          <Trackpoint>
            <Time>2022-07-15T12:19:16.000Z</Time>
            <Position>
              <LatitudeDegrees>43.39429515413939952850341796875</LatitudeDegrees>
              <LongitudeDegrees>-4.6071105636656284332275390625</LongitudeDegrees>
            </Position>
            <AltitudeMeters>29</AltitudeMeters>
            <DistanceMeters>NAN</DistanceMeters>
          </Trackpoint>
          <Trackpoint>
            <Time>2022-07-15T12:19:18.000Z</Time>
            <Position>
              <LatitudeDegrees>43.39439590461552143096923828125</LatitudeDegrees>
              <LongitudeDegrees>-4.6071152575314044952392578125</LongitudeDegrees>
            </Position>
            <AltitudeMeters>28.6000003814697265625</AltitudeMeters>
            <DistanceMeters>NAN</DistanceMeters>
          </Trackpoint>
          <Trackpoint>
            <Time>2022-07-15T12:19:20.000Z</Time>
            <Position>
              <LatitudeDegrees>43.39446161873638629913330078125</LatitudeDegrees>
              <LongitudeDegrees>-4.60712003521621227264404296875</LongitudeDegrees>
            </Position>
            <AltitudeMeters>28</AltitudeMeters>
            <DistanceMeters>NAN</DistanceMeters>
          </Trackpoint>
          <Trackpoint>
            <Time>2022-07-15T12:19:23.000Z</Time>
            <Position>
              <LatitudeDegrees>43.3945436775684356689453125</LatitudeDegrees>
              <LongitudeDegrees>-4.60713881067931652069091796875</LongitudeDegrees>
            </Position>
            <AltitudeMeters>27.200000762939453125</AltitudeMeters>
            <DistanceMeters>NAN</DistanceMeters>
          </Trackpoint>
          <Trackpoint>
            <Time>2022-07-15T12:19:24.000Z</Time>
            <Position>
              <LatitudeDegrees>43.39456924237310886383056640625</LatitudeDegrees>
              <LongitudeDegrees>-4.60714451037347316741943359375</LongitudeDegrees>
            </Position>
            <AltitudeMeters>26.799999237060546875</AltitudeMeters>
            <DistanceMeters>NAN</DistanceMeters>
          </Trackpoint>
          <Trackpoint>
            <Time>2022-07-15T12:19:28.000Z</Time>
            <Position>
              <LatitudeDegrees>43.39467351324856281280517578125</LatitudeDegrees>
              <LongitudeDegrees>-4.60719396360218524932861328125</LongitudeDegrees>
            </Position>
            <AltitudeMeters>25.799999237060546875</AltitudeMeters>
            <DistanceMeters>NAN</DistanceMeters>
          </Trackpoint>
          <Trackpoint>
            <Time>2022-07-15T12:19:29.000Z</Time>
            <Position>
              <LatitudeDegrees>43.39469882659614086151123046875</LatitudeDegrees>
              <LongitudeDegrees>-4.607227407395839691162109375</LongitudeDegrees>
            </Position>
            <AltitudeMeters>25.200000762939453125</AltitudeMeters>
            <DistanceMeters>NAN</DistanceMeters>
          </Trackpoint>
          <Trackpoint>
            <Time>2022-07-15T12:19:33.000Z</Time>
            <Position>
              <LatitudeDegrees>43.39477761648595333099365234375</LatitudeDegrees>
              <LongitudeDegrees>-4.60741306655108928680419921875</LongitudeDegrees>
            </Position>
            <AltitudeMeters>24.200000762939453125</AltitudeMeters>
            <DistanceMeters>NAN</DistanceMeters>
          </Trackpoint>
          <Trackpoint>
            <Time>2022-07-15T12:19:34.000Z</Time>
            <Position>
              <LatitudeDegrees>43.39479505084455013275146484375</LatitudeDegrees>
              <LongitudeDegrees>-4.60746067576110363006591796875</LongitudeDegrees>
            </Position>
            <AltitudeMeters>24.200000762939453125</AltitudeMeters>
            <DistanceMeters>NAN</DistanceMeters>
          </Trackpoint>
          <Trackpoint>
            <Time>2022-07-15T12:19:38.000Z</Time>
            <Position>
              <LatitudeDegrees>43.394903428852558135986328125</LatitudeDegrees>
              <LongitudeDegrees>-4.6076064370572566986083984375</LongitudeDegrees>
            </Position>
            <AltitudeMeters>23.6000003814697265625</AltitudeMeters>
            <DistanceMeters>NAN</DistanceMeters>
          </Trackpoint>
          <Trackpoint>
            <Time>2022-07-15T12:19:41.000Z</Time>
            <Position>
              <LatitudeDegrees>43.39497844688594341278076171875</LatitudeDegrees>
              <LongitudeDegrees>-4.6076902560889720916748046875</LongitudeDegrees>
            </Position>
            <AltitudeMeters>23</AltitudeMeters>
            <DistanceMeters>NAN</DistanceMeters>
          </Trackpoint>
          <Trackpoint>
            <Time>2022-07-15T12:19:43.000Z</Time>
            <Position>
              <LatitudeDegrees>43.395024798810482025146484375</LatitudeDegrees>
              <LongitudeDegrees>-4.60773241706192493438720703125</LongitudeDegrees>
            </Position>
            <AltitudeMeters>22.799999237060546875</AltitudeMeters>
            <DistanceMeters>NAN</DistanceMeters>
          </Trackpoint>
          <Trackpoint>
            <Time>2022-07-15T12:19:44.000Z</Time>
            <Position>
              <LatitudeDegrees>43.3950420655310153961181640625</LatitudeDegrees>
              <LongitudeDegrees>-4.60774197243154048919677734375</LongitudeDegrees>
            </Position>
            <AltitudeMeters>22.799999237060546875</AltitudeMeters>
            <DistanceMeters>NAN</DistanceMeters>
          </Trackpoint>
          <Trackpoint>
            <Time>2022-07-15T12:19:46.000Z</Time>
            <Position>
              <LatitudeDegrees>43.395087160170078277587890625</LatitudeDegrees>
              <LongitudeDegrees>-4.6077499352395534515380859375</LongitudeDegrees>
            </Position>
            <AltitudeMeters>22.799999237060546875</AltitudeMeters>
            <DistanceMeters>NAN</DistanceMeters>
          </Trackpoint>
          <Trackpoint>
            <Time>2022-07-15T12:19:47.000Z</Time>
            <Position>
              <LatitudeDegrees>43.39509730227291584014892578125</LatitudeDegrees>
              <LongitudeDegrees>-4.60774918086826801300048828125</LongitudeDegrees>
            </Position>
            <AltitudeMeters>22.799999237060546875</AltitudeMeters>
            <DistanceMeters>NAN</DistanceMeters>
          </Trackpoint>
          <Trackpoint>
            <Time>2022-07-15T12:19:48.000Z</Time>
            <Position>
              <LatitudeDegrees>43.395102918148040771484375</LatitudeDegrees>
              <LongitudeDegrees>-4.60774834267795085906982421875</LongitudeDegrees>
            </Position>
            <AltitudeMeters>22.6000003814697265625</AltitudeMeters>
            <DistanceMeters>NAN</DistanceMeters>
          </Trackpoint>
          <Trackpoint>
            <Time>2022-07-15T12:19:49.000Z</Time>
            <Position>
              <LatitudeDegrees>43.395102918148040771484375</LatitudeDegrees>
              <LongitudeDegrees>-4.60774834267795085906982421875</LongitudeDegrees>
            </Position>
            <AltitudeMeters>22.200000762939453125</AltitudeMeters>
            <DistanceMeters>NAN</DistanceMeters>
          </Trackpoint>
          <Trackpoint>
            <Time>2022-07-15T12:19:50.000Z</Time>
            <Position>
              <LatitudeDegrees>43.395102918148040771484375</LatitudeDegrees>
              <LongitudeDegrees>-4.60774834267795085906982421875</LongitudeDegrees>
            </Position>
            <AltitudeMeters>22.200000762939453125</AltitudeMeters>
            <DistanceMeters>NAN</DistanceMeters>
          </Trackpoint>
          <Trackpoint>
            <Time>2022-07-15T12:24:08.000Z</Time>
            <Position>
              <LatitudeDegrees>43.39519344270229339599609375</LatitudeDegrees>
              <LongitudeDegrees>-4.60774163715541362762451171875</LongitudeDegrees>
            </Position>
            <AltitudeMeters>23.200000762939453125</AltitudeMeters>
            <DistanceMeters>NAN</DistanceMeters>
          </Trackpoint>
          <Trackpoint>
            <Time>2022-07-15T12:24:09.000Z</Time>
            <Position>
              <LatitudeDegrees>43.39522671885788440704345703125</LatitudeDegrees>
              <LongitudeDegrees>-4.6077341772615909576416015625</LongitudeDegrees>
            </Position>
            <AltitudeMeters>23</AltitudeMeters>
            <DistanceMeters>NAN</DistanceMeters>
          </Trackpoint>
          <Trackpoint>
            <Time>2022-07-15T12:24:13.000Z</Time>
            <Position>
              <LatitudeDegrees>43.3953092806041240692138671875</LatitudeDegrees>
              <LongitudeDegrees>-4.60766536183655261993408203125</LongitudeDegrees>
            </Position>
            <AltitudeMeters>22</AltitudeMeters>
            <DistanceMeters>NAN</DistanceMeters>
          </Trackpoint>
          <Trackpoint>
            <Time>2022-07-15T12:24:19.000Z</Time>
            <Position>
              <LatitudeDegrees>43.39542017318308353424072265625</LatitudeDegrees>
              <LongitudeDegrees>-4.6075836382806301116943359375</LongitudeDegrees>
            </Position>
            <AltitudeMeters>21</AltitudeMeters>
            <DistanceMeters>NAN</DistanceMeters>
          </Trackpoint>
          <Trackpoint>
            <Time>2022-07-15T12:24:20.000Z</Time>
            <Position>
              <LatitudeDegrees>43.3954314887523651123046875</LatitudeDegrees>
              <LongitudeDegrees>-4.60757039487361907958984375</LongitudeDegrees>
            </Position>
            <AltitudeMeters>20.799999237060546875</AltitudeMeters>
            <DistanceMeters>NAN</DistanceMeters>
          </Trackpoint>
          <Trackpoint>
            <Time>2022-07-15T12:24:22.000Z</Time>
            <Position>
              <LatitudeDegrees>43.39543274603784084320068359375</LatitudeDegrees>
              <LongitudeDegrees>-4.607566706836223602294921875</LongitudeDegrees>
            </Position>
            <AltitudeMeters>20.200000762939453125</AltitudeMeters>
            <DistanceMeters>NAN</DistanceMeters>
          </Trackpoint>
          <Trackpoint>
            <Time>2022-07-15T12:24:23.000Z</Time>
            <Position>
              <LatitudeDegrees>43.39543618261814117431640625</LatitudeDegrees>
              <LongitudeDegrees>-4.60756578482687473297119140625</LongitudeDegrees>
            </Position>
            <AltitudeMeters>20</AltitudeMeters>
            <DistanceMeters>NAN</DistanceMeters>
          </Trackpoint>
          <Trackpoint>
            <Time>2022-07-15T12:24:35.000Z</Time>
            <Position>
              <LatitudeDegrees>43.39549385011196136474609375</LatitudeDegrees>
              <LongitudeDegrees>-4.60751716978847980499267578125</LongitudeDegrees>
            </Position>
            <AltitudeMeters>19.6000003814697265625</AltitudeMeters>
            <DistanceMeters>NAN</DistanceMeters>
          </Trackpoint>
          <Trackpoint>
            <Time>2022-07-15T12:24:38.000Z</Time>
            <Position>
              <LatitudeDegrees>43.39552679099142551422119140625</LatitudeDegrees>
              <LongitudeDegrees>-4.6074703149497509002685546875</LongitudeDegrees>
            </Position>
            <AltitudeMeters>19.6000003814697265625</AltitudeMeters>
            <DistanceMeters>NAN</DistanceMeters>
          </Trackpoint>
          <Trackpoint>
            <Time>2022-07-15T12:24:46.000Z</Time>
            <Position>
              <LatitudeDegrees>43.3956254459917545318603515625</LatitudeDegrees>
              <LongitudeDegrees>-4.60738389752805233001708984375</LongitudeDegrees>
            </Position>
            <AltitudeMeters>19</AltitudeMeters>
            <DistanceMeters>NAN</DistanceMeters>
          </Trackpoint>
          <Trackpoint>
            <Time>2022-07-15T12:24:52.000Z</Time>
            <Position>
              <LatitudeDegrees>43.3957156352698802947998046875</LatitudeDegrees>
              <LongitudeDegrees>-4.60733595304191112518310546875</LongitudeDegrees>
            </Position>
            <AltitudeMeters>18.6000003814697265625</AltitudeMeters>
            <DistanceMeters>NAN</DistanceMeters>
          </Trackpoint>
          <Trackpoint>
            <Time>2022-07-15T12:24:55.000Z</Time>
            <Position>
              <LatitudeDegrees>43.39573449455201625823974609375</LatitudeDegrees>
              <LongitudeDegrees>-4.6073244698345661163330078125</LongitudeDegrees>
            </Position>
            <AltitudeMeters>18.3999996185302734375</AltitudeMeters>
            <DistanceMeters>NAN</DistanceMeters>
          </Trackpoint>
          <Trackpoint>
            <Time>2022-07-15T12:25:48.000Z</Time>
            <Position>
              <LatitudeDegrees>43.3957533538341522216796875</LatitudeDegrees>
              <LongitudeDegrees>-4.6073170937597751617431640625</LongitudeDegrees>
            </Position>
            <AltitudeMeters>18.799999237060546875</AltitudeMeters>
            <DistanceMeters>NAN</DistanceMeters>
          </Trackpoint>
          <Trackpoint>
            <Time>2022-07-15T12:25:49.000Z</Time>
            <Position>
              <LatitudeDegrees>43.39577305130660533905029296875</LatitudeDegrees>
              <LongitudeDegrees>-4.6073041856288909912109375</LongitudeDegrees>
            </Position>
            <AltitudeMeters>18.799999237060546875</AltitudeMeters>
            <DistanceMeters>NAN</DistanceMeters>
          </Trackpoint>
          <Trackpoint>
            <Time>2022-07-15T12:25:51.000Z</Time>
            <Position>
              <LatitudeDegrees>43.395811021327972412109375</LatitudeDegrees>
              <LongitudeDegrees>-4.60727929137647151947021484375</LongitudeDegrees>
            </Position>
            <AltitudeMeters>19</AltitudeMeters>
            <DistanceMeters>NAN</DistanceMeters>
          </Trackpoint>
          <Trackpoint>
            <Time>2022-07-15T12:25:55.000Z</Time>
            <Position>
              <LatitudeDegrees>43.3958661742508411407470703125</LatitudeDegrees>
              <LongitudeDegrees>-4.6072317659854888916015625</LongitudeDegrees>
            </Position>
            <AltitudeMeters>18.3999996185302734375</AltitudeMeters>
            <DistanceMeters>NAN</DistanceMeters>
          </Trackpoint>
          <Trackpoint>
            <Time>2022-07-15T12:25:56.000Z</Time>
            <Position>
              <LatitudeDegrees>43.39588142931461334228515625</LatitudeDegrees>
              <LongitudeDegrees>-4.60723319090902805328369140625</LongitudeDegrees>
            </Position>
            <AltitudeMeters>18.3999996185302734375</AltitudeMeters>
            <DistanceMeters>NAN</DistanceMeters>
          </Trackpoint>
          <Trackpoint>
            <Time>2022-07-15T12:25:59.000Z</Time>
            <Position>
              <LatitudeDegrees>43.3959345705807209014892578125</LatitudeDegrees>
              <LongitudeDegrees>-4.60724048316478729248046875</LongitudeDegrees>
            </Position>
            <AltitudeMeters>17.200000762939453125</AltitudeMeters>
            <DistanceMeters>NAN</DistanceMeters>
          </Trackpoint>
          <Trackpoint>
            <Time>2022-07-15T12:26:00.000Z</Time>
            <Position>
              <LatitudeDegrees>43.3959463052451610565185546875</LatitudeDegrees>
              <LongitudeDegrees>-4.6072409860789775848388671875</LongitudeDegrees>
            </Position>
            <AltitudeMeters>16.799999237060546875</AltitudeMeters>
            <DistanceMeters>NAN</DistanceMeters>
          </Trackpoint>
          <Trackpoint>
            <Time>2022-07-15T12:26:02.000Z</Time>
            <Position>
              <LatitudeDegrees>43.39597103185951709747314453125</LatitudeDegrees>
              <LongitudeDegrees>-4.6072708256542682647705078125</LongitudeDegrees>
            </Position>
            <AltitudeMeters>16</AltitudeMeters>
            <DistanceMeters>NAN</DistanceMeters>
          </Trackpoint>
          <Trackpoint>
            <Time>2022-07-15T12:26:05.000Z</Time>
            <Position>
              <LatitudeDegrees>43.39601445011794567108154296875</LatitudeDegrees>
              <LongitudeDegrees>-4.60735824890434741973876953125</LongitudeDegrees>
            </Position>
            <AltitudeMeters>14.80000019073486328125</AltitudeMeters>
            <DistanceMeters>NAN</DistanceMeters>
          </Trackpoint>
          <Trackpoint>
            <Time>2022-07-15T12:26:08.000Z</Time>
            <Position>
              <LatitudeDegrees>43.396055437624454498291015625</LatitudeDegrees>
              <LongitudeDegrees>-4.607424549758434295654296875</LongitudeDegrees>
            </Position>
            <AltitudeMeters>14.19999980926513671875</AltitudeMeters>
            <DistanceMeters>NAN</DistanceMeters>
          </Trackpoint>
          <Trackpoint>
            <Time>2022-07-15T12:26:10.000Z</Time>
            <Position>
              <LatitudeDegrees>43.3960908092558383941650390625</LatitudeDegrees>
              <LongitudeDegrees>-4.6074646152555942535400390625</LongitudeDegrees>
            </Position>
            <AltitudeMeters>13.80000019073486328125</AltitudeMeters>
            <DistanceMeters>NAN</DistanceMeters>
          </Trackpoint>
          <Trackpoint>
            <Time>2022-07-15T12:26:16.000Z</Time>
            <Position>
              <LatitudeDegrees>43.39614822529256343841552734375</LatitudeDegrees>
              <LongitudeDegrees>-4.60756259970366954803466796875</LongitudeDegrees>
            </Position>
            <AltitudeMeters>13.80000019073486328125</AltitudeMeters>
            <DistanceMeters>NAN</DistanceMeters>
          </Trackpoint>
          <Trackpoint>
            <Time>2022-07-15T12:26:21.000Z</Time>
            <Position>
              <LatitudeDegrees>43.39620136655867099761962890625</LatitudeDegrees>
              <LongitudeDegrees>-4.60761775262653827667236328125</LongitudeDegrees>
            </Position>
            <AltitudeMeters>14</AltitudeMeters>
            <DistanceMeters>NAN</DistanceMeters>
          </Trackpoint>
          <Trackpoint>
            <Time>2022-07-15T12:26:23.000Z</Time>
            <Position>
              <LatitudeDegrees>43.3962208963930606842041015625</LatitudeDegrees>
              <LongitudeDegrees>-4.6076470054686069488525390625</LongitudeDegrees>
            </Position>
            <AltitudeMeters>13.6000003814697265625</AltitudeMeters>
            <DistanceMeters>NAN</DistanceMeters>
          </Trackpoint>
          <Trackpoint>
            <Time>2022-07-15T12:26:27.000Z</Time>
            <Position>
              <LatitudeDegrees>43.39625936932861804962158203125</LatitudeDegrees>
              <LongitudeDegrees>-4.60783182643353939056396484375</LongitudeDegrees>
            </Position>
            <AltitudeMeters>13</AltitudeMeters>
            <DistanceMeters>NAN</DistanceMeters>
          </Trackpoint>
          <Trackpoint>
            <Time>2022-07-15T12:26:32.000Z</Time>
            <Position>
              <LatitudeDegrees>43.3962906338274478912353515625</LatitudeDegrees>
              <LongitudeDegrees>-4.60798504762351512908935546875</LongitudeDegrees>
            </Position>
            <AltitudeMeters>13.19999980926513671875</AltitudeMeters>
            <DistanceMeters>NAN</DistanceMeters>
          </Trackpoint>
          <Trackpoint>
            <Time>2022-07-15T12:26:35.000Z</Time>
            <Position>
              <LatitudeDegrees>43.39629356749355792999267578125</LatitudeDegrees>
              <LongitudeDegrees>-4.6079956926405429840087890625</LongitudeDegrees>
            </Position>
            <AltitudeMeters>13.6000003814697265625</AltitudeMeters>
            <DistanceMeters>NAN</DistanceMeters>
          </Trackpoint>
          <Trackpoint>
            <Time>2022-07-15T12:27:38.000Z</Time>
            <Position>
              <LatitudeDegrees>43.39646472595632076263427734375</LatitudeDegrees>
              <LongitudeDegrees>-4.60839911364018917083740234375</LongitudeDegrees>
            </Position>
            <AltitudeMeters>20.6000003814697265625</AltitudeMeters>
            <DistanceMeters>NAN</DistanceMeters>
          </Trackpoint>
          <Trackpoint>
            <Time>2022-07-15T12:27:39.000Z</Time>
            <Position>
              <LatitudeDegrees>43.39647419750690460205078125</LatitudeDegrees>
              <LongitudeDegrees>-4.60842208005487918853759765625</LongitudeDegrees>
            </Position>
            <AltitudeMeters>20.6000003814697265625</AltitudeMeters>
            <DistanceMeters>NAN</DistanceMeters>
          </Trackpoint>
          <Trackpoint>
            <Time>2022-07-15T12:27:45.000Z</Time>
            <Position>
              <LatitudeDegrees>43.39653245173394680023193359375</LatitudeDegrees>
              <LongitudeDegrees>-4.608573876321315765380859375</LongitudeDegrees>
            </Position>
            <AltitudeMeters>20.3999996185302734375</AltitudeMeters>
            <DistanceMeters>NAN</DistanceMeters>
          </Trackpoint>
          <Trackpoint>
            <Time>2022-07-15T12:27:50.000Z</Time>
            <Position>
              <LatitudeDegrees>43.39657385833561420440673828125</LatitudeDegrees>
              <LongitudeDegrees>-4.608726762235164642333984375</LongitudeDegrees>
            </Position>
            <AltitudeMeters>19.799999237060546875</AltitudeMeters>
            <DistanceMeters>NAN</DistanceMeters>
          </Trackpoint>
          <Trackpoint>
            <Time>2022-07-15T12:27:52.000Z</Time>
            <Position>
              <LatitudeDegrees>43.39659397490322589874267578125</LatitudeDegrees>
              <LongitudeDegrees>-4.60880043916404247283935546875</LongitudeDegrees>
            </Position>
            <AltitudeMeters>19.6000003814697265625</AltitudeMeters>
            <DistanceMeters>NAN</DistanceMeters>
          </Trackpoint>
          <Trackpoint>
            <Time>2022-07-15T12:27:53.000Z</Time>
            <Position>
              <LatitudeDegrees>43.39660353027284145355224609375</LatitudeDegrees>
              <LongitudeDegrees>-4.6088384091854095458984375</LongitudeDegrees>
            </Position>
            <AltitudeMeters>19.3999996185302734375</AltitudeMeters>
            <DistanceMeters>NAN</DistanceMeters>
          </Trackpoint>
          <Trackpoint>
            <Time>2022-07-15T12:27:56.000Z</Time>
            <Position>
              <LatitudeDegrees>43.39663739316165447235107421875</LatitudeDegrees>
              <LongitudeDegrees>-4.60893404670059680938720703125</LongitudeDegrees>
            </Position>
            <AltitudeMeters>19</AltitudeMeters>
            <DistanceMeters>NAN</DistanceMeters>
          </Trackpoint>
          <Trackpoint>
            <Time>2022-07-15T12:27:59.000Z</Time>
            <Position>
              <LatitudeDegrees>43.396671675145626068115234375</LatitudeDegrees>
              <LongitudeDegrees>-4.60899389348924160003662109375</LongitudeDegrees>
            </Position>
            <AltitudeMeters>19</AltitudeMeters>
            <DistanceMeters>NAN</DistanceMeters>
          </Trackpoint>
          <Trackpoint>
            <Time>2022-07-15T12:28:00.000Z</Time>
            <Position>
              <LatitudeDegrees>43.3966829068958759307861328125</LatitudeDegrees>
              <LongitudeDegrees>-4.609015099704265594482421875</LongitudeDegrees>
            </Position>
            <AltitudeMeters>19</AltitudeMeters>
            <DistanceMeters>NAN</DistanceMeters>
          </Trackpoint>
          <Trackpoint>
            <Time>2022-07-15T12:28:05.000Z</Time>
            <Position>
              <LatitudeDegrees>43.3967288397252559661865234375</LatitudeDegrees>
              <LongitudeDegrees>-4.609127752482891082763671875</LongitudeDegrees>
            </Position>
            <AltitudeMeters>19.3999996185302734375</AltitudeMeters>
            <DistanceMeters>NAN</DistanceMeters>
          </Trackpoint>
          <Trackpoint>
            <Time>2022-07-15T12:28:07.000Z</Time>
            <Position>
              <LatitudeDegrees>43.39673931710422039031982421875</LatitudeDegrees>
              <LongitudeDegrees>-4.6091782115399837493896484375</LongitudeDegrees>
            </Position>
            <AltitudeMeters>19.3999996185302734375</AltitudeMeters>
            <DistanceMeters>NAN</DistanceMeters>
          </Trackpoint>
          <Trackpoint>
            <Time>2022-07-15T12:28:11.000Z</Time>
            <Position>
              <LatitudeDegrees>43.39677049778401851654052734375</LatitudeDegrees>
              <LongitudeDegrees>-4.60927762091159820556640625</LongitudeDegrees>
            </Position>
            <AltitudeMeters>19</AltitudeMeters>
            <DistanceMeters>NAN</DistanceMeters>
          </Trackpoint>
          <Trackpoint>
            <Time>2022-07-15T12:28:15.000Z</Time>
            <Position>
              <LatitudeDegrees>43.39678457938134670257568359375</LatitudeDegrees>
              <LongitudeDegrees>-4.6094075404107570648193359375</LongitudeDegrees>
            </Position>
            <AltitudeMeters>18.799999237060546875</AltitudeMeters>
            <DistanceMeters>NAN</DistanceMeters>
          </Trackpoint>
          <Trackpoint>
            <Time>2022-07-15T12:28:22.000Z</Time>
            <Position>
              <LatitudeDegrees>43.39679815806448459625244140625</LatitudeDegrees>
              <LongitudeDegrees>-4.609571658074855804443359375</LongitudeDegrees>
            </Position>
            <AltitudeMeters>19</AltitudeMeters>
            <DistanceMeters>NAN</DistanceMeters>
          </Trackpoint>
          <Trackpoint>
            <Time>2022-07-15T12:28:25.000Z</Time>
            <Position>
              <LatitudeDegrees>43.39676789939403533935546875</LatitudeDegrees>
              <LongitudeDegrees>-4.60960711352527141571044921875</LongitudeDegrees>
            </Position>
            <AltitudeMeters>18.6000003814697265625</AltitudeMeters>
            <DistanceMeters>NAN</DistanceMeters>
          </Trackpoint>
          <Trackpoint>
            <Time>2022-07-15T12:28:26.000Z</Time>
            <Position>
              <LatitudeDegrees>43.39675306342542171478271484375</LatitudeDegrees>
              <LongitudeDegrees>-4.6096077002584934234619140625</LongitudeDegrees>
            </Position>
            <AltitudeMeters>18.3999996185302734375</AltitudeMeters>
            <DistanceMeters>NAN</DistanceMeters>
          </Trackpoint>
          <Trackpoint>
            <Time>2022-07-15T12:28:27.000Z</Time>
            <Position>
              <LatitudeDegrees>43.39673839509487152099609375</LatitudeDegrees>
              <LongitudeDegrees>-4.60960996337234973907470703125</LongitudeDegrees>
            </Position>
            <AltitudeMeters>18.200000762939453125</AltitudeMeters>
            <DistanceMeters>NAN</DistanceMeters>
          </Trackpoint>
          <Trackpoint>
            <Time>2022-07-15T12:28:29.000Z</Time>
            <Position>
              <LatitudeDegrees>43.3967315219342708587646484375</LatitudeDegrees>
              <LongitudeDegrees>-4.60961281321942806243896484375</LongitudeDegrees>
            </Position>
            <AltitudeMeters>18</AltitudeMeters>
            <DistanceMeters>NAN</DistanceMeters>
          </Trackpoint>
          <Trackpoint>
            <Time>2022-07-15T12:28:30.000Z</Time>
            <Position>
              <LatitudeDegrees>43.3967315219342708587646484375</LatitudeDegrees>
              <LongitudeDegrees>-4.60961281321942806243896484375</LongitudeDegrees>
            </Position>
            <AltitudeMeters>17.799999237060546875</AltitudeMeters>
            <DistanceMeters>NAN</DistanceMeters>
          </Trackpoint>
          <Trackpoint>
            <Time>2022-07-15T12:29:11.000Z</Time>
            <Position>
              <LatitudeDegrees>43.39675641618669033050537109375</LatitudeDegrees>
              <LongitudeDegrees>-4.609612561762332916259765625</LongitudeDegrees>
            </Position>
            <AltitudeMeters>17.799999237060546875</AltitudeMeters>
            <DistanceMeters>NAN</DistanceMeters>
          </Trackpoint>
          <Trackpoint>
            <Time>2022-07-15T12:29:12.000Z</Time>
            <Position>
              <LatitudeDegrees>43.3967737667262554168701171875</LatitudeDegrees>
              <LongitudeDegrees>-4.60961163975298404693603515625</LongitudeDegrees>
            </Position>
            <AltitudeMeters>17.799999237060546875</AltitudeMeters>
            <DistanceMeters>NAN</DistanceMeters>
          </Trackpoint>
          <Trackpoint>
            <Time>2022-07-15T12:29:13.000Z</Time>
            <Position>
              <LatitudeDegrees>43.39678726159036159515380859375</LatitudeDegrees>
              <LongitudeDegrees>-4.6096087060868740081787109375</LongitudeDegrees>
            </Position>
            <AltitudeMeters>18</AltitudeMeters>
            <DistanceMeters>NAN</DistanceMeters>
          </Trackpoint>
          <Trackpoint>
            <Time>2022-07-15T12:29:16.000Z</Time>
            <Position>
              <LatitudeDegrees>43.3968233875930309295654296875</LatitudeDegrees>
              <LongitudeDegrees>-4.6096382103860378265380859375</LongitudeDegrees>
            </Position>
            <AltitudeMeters>18.200000762939453125</AltitudeMeters>
            <DistanceMeters>NAN</DistanceMeters>
          </Trackpoint>
          <Trackpoint>
            <Time>2022-07-15T12:29:22.000Z</Time>
            <Position>
              <LatitudeDegrees>43.39688348583877086639404296875</LatitudeDegrees>
              <LongitudeDegrees>-4.60969872772693634033203125</LongitudeDegrees>
            </Position>
            <AltitudeMeters>17.200000762939453125</AltitudeMeters>
            <DistanceMeters>NAN</DistanceMeters>
          </Trackpoint>
          <Trackpoint>
            <Time>2022-07-15T12:29:25.000Z</Time>
            <Position>
              <LatitudeDegrees>43.396899998188018798828125</LatitudeDegrees>
              <LongitudeDegrees>-4.60972563363611698150634765625</LongitudeDegrees>
            </Position>
            <AltitudeMeters>17</AltitudeMeters>
            <DistanceMeters>NAN</DistanceMeters>
          </Trackpoint>
          <Trackpoint>
            <Time>2022-07-15T12:29:27.000Z</Time>
            <Position>
              <LatitudeDegrees>43.39690611697733402252197265625</LatitudeDegrees>
              <LongitudeDegrees>-4.60974834859371185302734375</LongitudeDegrees>
            </Position>
            <AltitudeMeters>16.799999237060546875</AltitudeMeters>
            <DistanceMeters>NAN</DistanceMeters>
          </Trackpoint>
          <Trackpoint>
            <Time>2022-07-15T12:29:29.000Z</Time>
            <Position>
              <LatitudeDegrees>43.39691064320504665374755859375</LatitudeDegrees>
              <LongitudeDegrees>-4.60976310074329376220703125</LongitudeDegrees>
            </Position>
            <AltitudeMeters>16.200000762939453125</AltitudeMeters>
            <DistanceMeters>NAN</DistanceMeters>
          </Trackpoint>
          <Trackpoint>
            <Time>2022-07-15T12:29:30.000Z</Time>
            <Position>
              <LatitudeDegrees>43.39691449888050556182861328125</LatitudeDegrees>
              <LongitudeDegrees>-4.6097682975232601165771484375</LongitudeDegrees>
            </Position>
            <AltitudeMeters>16.200000762939453125</AltitudeMeters>
            <DistanceMeters>NAN</DistanceMeters>
          </Trackpoint>
          <Trackpoint>
            <Time>2022-07-15T12:29:36.000Z</Time>
            <Position>
              <LatitudeDegrees>43.3969174325466156005859375</LatitudeDegrees>
              <LongitudeDegrees>-4.60981548763811588287353515625</LongitudeDegrees>
            </Position>
            <AltitudeMeters>15</AltitudeMeters>
            <DistanceMeters>NAN</DistanceMeters>
          </Trackpoint>
          <Trackpoint>
            <Time>2022-07-15T12:29:38.000Z</Time>
            <Position>
              <LatitudeDegrees>43.396914415061473846435546875</LatitudeDegrees>
              <LongitudeDegrees>-4.60982613265514373779296875</LongitudeDegrees>
            </Position>
            <AltitudeMeters>14.80000019073486328125</AltitudeMeters>
            <DistanceMeters>NAN</DistanceMeters>
          </Trackpoint>
          <Trackpoint>
            <Time>2022-07-15T12:29:44.000Z</Time>
            <Position>
              <LatitudeDegrees>43.39691014029085636138916015625</LatitudeDegrees>
              <LongitudeDegrees>-4.609833173453807830810546875</LongitudeDegrees>
            </Position>
            <AltitudeMeters>14</AltitudeMeters>
            <DistanceMeters>NAN</DistanceMeters>
          </Trackpoint>
          <Trackpoint>
            <Time>2022-07-15T12:29:46.000Z</Time>
            <Position>
              <LatitudeDegrees>43.39690494351089000701904296875</LatitudeDegrees>
              <LongitudeDegrees>-4.60984381847083568572998046875</LongitudeDegrees>
            </Position>
            <AltitudeMeters>13.80000019073486328125</AltitudeMeters>
            <DistanceMeters>NAN</DistanceMeters>
          </Trackpoint>
          <Trackpoint>
            <Time>2022-07-15T12:29:48.000Z</Time>
            <Position>
              <LatitudeDegrees>43.39690494351089000701904296875</LatitudeDegrees>
              <LongitudeDegrees>-4.60984381847083568572998046875</LongitudeDegrees>
            </Position>
            <AltitudeMeters>13.3999996185302734375</AltitudeMeters>
            <DistanceMeters>NAN</DistanceMeters>
          </Trackpoint>
          <Trackpoint>
            <Time>2022-07-15T12:31:12.000Z</Time>
            <Position>
              <LatitudeDegrees>43.396927826106548309326171875</LatitudeDegrees>
              <LongitudeDegrees>-4.60991925559937953948974609375</LongitudeDegrees>
            </Position>
            <AltitudeMeters>12.6000003814697265625</AltitudeMeters>
            <DistanceMeters>NAN</DistanceMeters>
          </Trackpoint>
          <Trackpoint>
            <Time>2022-07-15T12:31:13.000Z</Time>
            <Position>
              <LatitudeDegrees>43.39691885747015476226806640625</LatitudeDegrees>
              <LongitudeDegrees>-4.6099077723920345306396484375</LongitudeDegrees>
            </Position>
            <AltitudeMeters>12.6000003814697265625</AltitudeMeters>
            <DistanceMeters>NAN</DistanceMeters>
          </Trackpoint>
          <Trackpoint>
            <Time>2022-07-15T12:31:14.000Z</Time>
            <Position>
              <LatitudeDegrees>43.3969142474234104156494140625</LatitudeDegrees>
              <LongitudeDegrees>-4.6098963730037212371826171875</LongitudeDegrees>
            </Position>
            <AltitudeMeters>12.80000019073486328125</AltitudeMeters>
            <DistanceMeters>NAN</DistanceMeters>
          </Trackpoint>
          <Trackpoint>
            <Time>2022-07-15T12:31:17.000Z</Time>
            <Position>
              <LatitudeDegrees>43.39689672924578189849853515625</LatitudeDegrees>
              <LongitudeDegrees>-4.609861336648464202880859375</LongitudeDegrees>
            </Position>
            <AltitudeMeters>13</AltitudeMeters>
            <DistanceMeters>NAN</DistanceMeters>
          </Trackpoint>
          <Trackpoint>
            <Time>2022-07-15T12:31:19.000Z</Time>
            <Position>
              <LatitudeDegrees>43.3968971483409404754638671875</LatitudeDegrees>
              <LongitudeDegrees>-4.60983996279537677764892578125</LongitudeDegrees>
            </Position>
            <AltitudeMeters>13</AltitudeMeters>
            <DistanceMeters>NAN</DistanceMeters>
          </Trackpoint>
          <Trackpoint>
            <Time>2022-07-15T12:31:21.000Z</Time>
            <Position>
              <LatitudeDegrees>43.39688985608518123626708984375</LatitudeDegrees>
              <LongitudeDegrees>-4.6098242886364459991455078125</LongitudeDegrees>
            </Position>
            <AltitudeMeters>13.19999980926513671875</AltitudeMeters>
            <DistanceMeters>NAN</DistanceMeters>
          </Trackpoint>
          <Trackpoint>
            <Time>2022-07-15T12:31:23.000Z</Time>
            <Position>
              <LatitudeDegrees>43.39687309227883815765380859375</LatitudeDegrees>
              <LongitudeDegrees>-4.60980928502976894378662109375</LongitudeDegrees>
            </Position>
            <AltitudeMeters>13.6000003814697265625</AltitudeMeters>
            <DistanceMeters>NAN</DistanceMeters>
          </Trackpoint>
          <Trackpoint>
            <Time>2022-07-15T12:31:26.000Z</Time>
            <Position>
              <LatitudeDegrees>43.39684811420738697052001953125</LatitudeDegrees>
              <LongitudeDegrees>-4.6097986400127410888671875</LongitudeDegrees>
            </Position>
            <AltitudeMeters>13.80000019073486328125</AltitudeMeters>
            <DistanceMeters>NAN</DistanceMeters>
          </Trackpoint>
          <Trackpoint>
            <Time>2022-07-15T12:31:27.000Z</Time>
            <Position>
              <LatitudeDegrees>43.39683822356164455413818359375</LatitudeDegrees>
              <LongitudeDegrees>-4.609789587557315826416015625</LongitudeDegrees>
            </Position>
            <AltitudeMeters>13.80000019073486328125</AltitudeMeters>
            <DistanceMeters>NAN</DistanceMeters>
          </Trackpoint>
          <Trackpoint>
            <Time>2022-07-15T12:31:32.000Z</Time>
            <Position>
              <LatitudeDegrees>43.396811150014400482177734375</LatitudeDegrees>
              <LongitudeDegrees>-4.6097289025783538818359375</LongitudeDegrees>
            </Position>
            <AltitudeMeters>14.19999980926513671875</AltitudeMeters>
            <DistanceMeters>NAN</DistanceMeters>
          </Trackpoint>
          <Trackpoint>
            <Time>2022-07-15T12:31:36.000Z</Time>
            <Position>
              <LatitudeDegrees>43.39680167846381664276123046875</LatitudeDegrees>
              <LongitudeDegrees>-4.6096653677523136138916015625</LongitudeDegrees>
            </Position>
            <AltitudeMeters>15</AltitudeMeters>
            <DistanceMeters>NAN</DistanceMeters>
          </Trackpoint>
          <Trackpoint>
            <Time>2022-07-15T12:31:39.000Z</Time>
            <Position>
              <LatitudeDegrees>43.396784327924251556396484375</LatitudeDegrees>
              <LongitudeDegrees>-4.60962572135031223297119140625</LongitudeDegrees>
            </Position>
            <AltitudeMeters>16</AltitudeMeters>
            <DistanceMeters>NAN</DistanceMeters>
          </Trackpoint>
          <Trackpoint>
            <Time>2022-07-15T12:31:40.000Z</Time>
            <Position>
              <LatitudeDegrees>43.39677460491657257080078125</LatitudeDegrees>
              <LongitudeDegrees>-4.6096204407513141632080078125</LongitudeDegrees>
            </Position>
            <AltitudeMeters>16.3999996185302734375</AltitudeMeters>
            <DistanceMeters>NAN</DistanceMeters>
          </Trackpoint>
          <Trackpoint>
            <Time>2022-07-15T12:31:41.000Z</Time>
            <Position>
              <LatitudeDegrees>43.3967663906514644622802734375</LatitudeDegrees>
              <LongitudeDegrees>-4.609609209001064300537109375</LongitudeDegrees>
            </Position>
            <AltitudeMeters>16.3999996185302734375</AltitudeMeters>
            <DistanceMeters>NAN</DistanceMeters>
          </Trackpoint>
          <Trackpoint>
            <Time>2022-07-15T12:31:44.000Z</Time>
            <Position>
              <LatitudeDegrees>43.39674501679837703704833984375</LatitudeDegrees>
              <LongitudeDegrees>-4.609565623104572296142578125</LongitudeDegrees>
            </Position>
            <AltitudeMeters>17.3999996185302734375</AltitudeMeters>
            <DistanceMeters>NAN</DistanceMeters>
          </Trackpoint>
          <Trackpoint>
            <Time>2022-07-15T12:31:45.000Z</Time>
            <Position>
              <LatitudeDegrees>43.39673227630555629730224609375</LatitudeDegrees>
              <LongitudeDegrees>-4.6095513738691806793212890625</LongitudeDegrees>
            </Position>
            <AltitudeMeters>17.3999996185302734375</AltitudeMeters>
            <DistanceMeters>NAN</DistanceMeters>
          </Trackpoint>
          <Trackpoint>
            <Time>2022-07-15T12:31:46.000Z</Time>
            <Position>
              <LatitudeDegrees>43.3967217989265918731689453125</LatitudeDegrees>
              <LongitudeDegrees>-4.60954793728888034820556640625</LongitudeDegrees>
            </Position>
            <AltitudeMeters>17.6000003814697265625</AltitudeMeters>
            <DistanceMeters>NAN</DistanceMeters>
          </Trackpoint>
          <Trackpoint>
            <Time>2022-07-15T12:31:50.000Z</Time>
            <Position>
              <LatitudeDegrees>43.39671903289854526519775390625</LatitudeDegrees>
              <LongitudeDegrees>-4.60954844020307064056396484375</LongitudeDegrees>
            </Position>
            <AltitudeMeters>17.200000762939453125</AltitudeMeters>
            <DistanceMeters>NAN</DistanceMeters>
          </Trackpoint>
          <Trackpoint>
            <Time>2022-07-15T12:32:13.000Z</Time>
            <Position>
              <LatitudeDegrees>43.39667125605046749114990234375</LatitudeDegrees>
              <LongitudeDegrees>-4.60953704081475734710693359375</LongitudeDegrees>
            </Position>
            <AltitudeMeters>17.6000003814697265625</AltitudeMeters>
            <DistanceMeters>NAN</DistanceMeters>
          </Trackpoint>
          <Trackpoint>
            <Time>2022-07-15T12:32:17.000Z</Time>
            <Position>
              <LatitudeDegrees>43.39655776508152484893798828125</LatitudeDegrees>
              <LongitudeDegrees>-4.609454311430454254150390625</LongitudeDegrees>
            </Position>
            <AltitudeMeters>17.3999996185302734375</AltitudeMeters>
            <DistanceMeters>NAN</DistanceMeters>
          </Trackpoint>
          <Trackpoint>
            <Time>2022-07-15T12:32:19.000Z</Time>
            <Position>
              <LatitudeDegrees>43.3964971639215946197509765625</LatitudeDegrees>
              <LongitudeDegrees>-4.60940209217369556427001953125</LongitudeDegrees>
            </Position>
            <AltitudeMeters>17</AltitudeMeters>
            <DistanceMeters>NAN</DistanceMeters>
          </Trackpoint>
          <Trackpoint>
            <Time>2022-07-15T12:32:22.000Z</Time>
            <Position>
              <LatitudeDegrees>43.3963962458074092864990234375</LatitudeDegrees>
              <LongitudeDegrees>-4.6093321032822132110595703125</LongitudeDegrees>
            </Position>
            <AltitudeMeters>15.80000019073486328125</AltitudeMeters>
            <DistanceMeters>NAN</DistanceMeters>
          </Trackpoint>
          <Trackpoint>
            <Time>2022-07-15T12:32:25.000Z</Time>
            <Position>
              <LatitudeDegrees>43.39630831964313983917236328125</LatitudeDegrees>
              <LongitudeDegrees>-4.60929312743246555328369140625</LongitudeDegrees>
            </Position>
            <AltitudeMeters>14.6000003814697265625</AltitudeMeters>
            <DistanceMeters>NAN</DistanceMeters>
          </Trackpoint>
          <Trackpoint>
            <Time>2022-07-15T12:32:26.000Z</Time>
            <Position>
              <LatitudeDegrees>43.3962708525359630584716796875</LatitudeDegrees>
              <LongitudeDegrees>-4.6092948876321315765380859375</LongitudeDegrees>
            </Position>
            <AltitudeMeters>14.3999996185302734375</AltitudeMeters>
            <DistanceMeters>NAN</DistanceMeters>
          </Trackpoint>
          <Trackpoint>
            <Time>2022-07-15T12:32:28.000Z</Time>
            <Position>
              <LatitudeDegrees>43.39623145759105682373046875</LatitudeDegrees>
              <LongitudeDegrees>-4.60934258066117763519287109375</LongitudeDegrees>
            </Position>
            <AltitudeMeters>13.6000003814697265625</AltitudeMeters>
            <DistanceMeters>NAN</DistanceMeters>
          </Trackpoint>
          <Trackpoint>
            <Time>2022-07-15T12:32:29.000Z</Time>
            <Position>
              <LatitudeDegrees>43.39623237960040569305419921875</LatitudeDegrees>
              <LongitudeDegrees>-4.60937015712261199951171875</LongitudeDegrees>
            </Position>
            <AltitudeMeters>13.19999980926513671875</AltitudeMeters>
            <DistanceMeters>NAN</DistanceMeters>
          </Trackpoint>
          <Trackpoint>
            <Time>2022-07-15T12:32:32.000Z</Time>
            <Position>
              <LatitudeDegrees>43.39626632630825042724609375</LatitudeDegrees>
              <LongitudeDegrees>-4.60943344049155712127685546875</LongitudeDegrees>
            </Position>
            <AltitudeMeters>12.3999996185302734375</AltitudeMeters>
            <DistanceMeters>NAN</DistanceMeters>
          </Trackpoint>
          <Trackpoint>
            <Time>2022-07-15T12:32:33.000Z</Time>
            <Position>
              <LatitudeDegrees>43.39627412147819995880126953125</LatitudeDegrees>
              <LongitudeDegrees>-4.60945506580173969268798828125</LongitudeDegrees>
            </Position>
            <AltitudeMeters>12</AltitudeMeters>
            <DistanceMeters>NAN</DistanceMeters>
          </Trackpoint>
          <Trackpoint>
            <Time>2022-07-15T12:32:34.000Z</Time>
            <Position>
              <LatitudeDegrees>43.396278060972690582275390625</LatitudeDegrees>
              <LongitudeDegrees>-4.60947568528354167938232421875</LongitudeDegrees>
            </Position>
            <AltitudeMeters>11.3999996185302734375</AltitudeMeters>
            <DistanceMeters>NAN</DistanceMeters>
          </Trackpoint>
          <Trackpoint>
            <Time>2022-07-15T12:32:35.000Z</Time>
            <Position>
              <LatitudeDegrees>43.3962795697152614593505859375</LatitudeDegrees>
              <LongitudeDegrees>-4.60949756205081939697265625</LongitudeDegrees>
            </Position>
            <AltitudeMeters>10.80000019073486328125</AltitudeMeters>
            <DistanceMeters>NAN</DistanceMeters>
          </Trackpoint>
          <Trackpoint>
            <Time>2022-07-15T12:32:37.000Z</Time>
            <Position>
              <LatitudeDegrees>43.3962762169539928436279296875</LatitudeDegrees>
              <LongitudeDegrees>-4.60954441688954830169677734375</LongitudeDegrees>
            </Position>
            <AltitudeMeters>9.3999996185302734375</AltitudeMeters>
            <DistanceMeters>NAN</DistanceMeters>
          </Trackpoint>
          <Trackpoint>
            <Time>2022-07-15T12:32:38.000Z</Time>
            <Position>
              <LatitudeDegrees>43.3962643146514892578125</LatitudeDegrees>
              <LongitudeDegrees>-4.60956486873328685760498046875</LongitudeDegrees>
            </Position>
            <AltitudeMeters>8.80000019073486328125</AltitudeMeters>
            <DistanceMeters>NAN</DistanceMeters>
          </Trackpoint>
          <Trackpoint>
            <Time>2022-07-15T12:32:39.000Z</Time>
            <Position>
              <LatitudeDegrees>43.39624428190290927886962890625</LatitudeDegrees>
              <LongitudeDegrees>-4.609585739672183990478515625</LongitudeDegrees>
            </Position>
            <AltitudeMeters>8.3999996185302734375</AltitudeMeters>
            <DistanceMeters>NAN</DistanceMeters>
          </Trackpoint>
          <Trackpoint>
            <Time>2022-07-15T12:32:41.000Z</Time>
            <Position>
              <LatitudeDegrees>43.3961843512952327728271484375</LatitudeDegrees>
              <LongitudeDegrees>-4.60961482487618923187255859375</LongitudeDegrees>
            </Position>
            <AltitudeMeters>7.19999980926513671875</AltitudeMeters>
            <DistanceMeters>NAN</DistanceMeters>
          </Trackpoint>
          <Trackpoint>
            <Time>2022-07-15T12:32:43.000Z</Time>
            <Position>
              <LatitudeDegrees>43.39614428579807281494140625</LatitudeDegrees>
              <LongitudeDegrees>-4.6096457540988922119140625</LongitudeDegrees>
            </Position>
            <AltitudeMeters>6</AltitudeMeters>
            <DistanceMeters>NAN</DistanceMeters>
          </Trackpoint>
          <Trackpoint>
            <Time>2022-07-15T12:32:47.000Z</Time>
            <Position>
              <LatitudeDegrees>43.39613799937069416046142578125</LatitudeDegrees>
              <LongitudeDegrees>-4.609668217599391937255859375</LongitudeDegrees>
            </Position>
            <AltitudeMeters>5.80000019073486328125</AltitudeMeters>
            <DistanceMeters>NAN</DistanceMeters>
          </Trackpoint>
          <Trackpoint>
            <Time>2022-07-15T12:39:59.000Z</Time>
            <Position>
              <LatitudeDegrees>43.39591939933598041534423828125</LatitudeDegrees>
              <LongitudeDegrees>-4.60979436524212360382080078125</LongitudeDegrees>
            </Position>
            <AltitudeMeters>-0.800000011920928955078125</AltitudeMeters>
            <DistanceMeters>NAN</DistanceMeters>
          </Trackpoint>
          <Trackpoint>
            <Time>2022-07-15T12:40:01.000Z</Time>
            <Position>
              <LatitudeDegrees>43.39594907127320766448974609375</LatitudeDegrees>
              <LongitudeDegrees>-4.60980794392526149749755859375</LongitudeDegrees>
            </Position>
            <AltitudeMeters>-1</AltitudeMeters>
            <DistanceMeters>NAN</DistanceMeters>
          </Trackpoint>
          <Trackpoint>
            <Time>2022-07-15T12:40:05.000Z</Time>
            <Position>
              <LatitudeDegrees>43.39595410041511058807373046875</LatitudeDegrees>
              <LongitudeDegrees>-4.609837196767330169677734375</LongitudeDegrees>
            </Position>
            <AltitudeMeters>-1.7999999523162841796875</AltitudeMeters>
            <DistanceMeters>NAN</DistanceMeters>
          </Trackpoint>
          <Trackpoint>
            <Time>2022-07-15T12:40:06.000Z</Time>
            <Position>
              <LatitudeDegrees>43.39594806544482707977294921875</LatitudeDegrees>
              <LongitudeDegrees>-4.60984666831791400909423828125</LongitudeDegrees>
            </Position>
            <AltitudeMeters>-1.7999999523162841796875</AltitudeMeters>
            <DistanceMeters>NAN</DistanceMeters>
          </Trackpoint>
          <Trackpoint>
            <Time>2022-07-15T12:40:07.000Z</Time>
            <Position>
              <LatitudeDegrees>43.39594420976936817169189453125</LatitudeDegrees>
              <LongitudeDegrees>-4.60985974408686161041259765625</LongitudeDegrees>
            </Position>
            <AltitudeMeters>-2</AltitudeMeters>
            <DistanceMeters>NAN</DistanceMeters>
          </Trackpoint>
          <Trackpoint>
            <Time>2022-07-15T12:40:12.000Z</Time>
            <Position>
              <LatitudeDegrees>43.3959312178194522857666015625</LatitudeDegrees>
              <LongitudeDegrees>-4.6099032461643218994140625</LongitudeDegrees>
            </Position>
            <AltitudeMeters>-2.2000000476837158203125</AltitudeMeters>
            <DistanceMeters>NAN</DistanceMeters>
          </Trackpoint>
          <Trackpoint>
            <Time>2022-07-15T12:40:17.000Z</Time>
            <Position>
              <LatitudeDegrees>43.39593733660876750946044921875</LatitudeDegrees>
              <LongitudeDegrees>-4.6099245361983776092529296875</LongitudeDegrees>
            </Position>
            <AltitudeMeters>-1.39999997615814208984375</AltitudeMeters>
            <DistanceMeters>NAN</DistanceMeters>
          </Trackpoint>
          <Trackpoint>
            <Time>2022-07-15T12:40:22.000Z</Time>
            <Position>
              <LatitudeDegrees>43.39593733660876750946044921875</LatitudeDegrees>
              <LongitudeDegrees>-4.6099245361983776092529296875</LongitudeDegrees>
            </Position>
            <AltitudeMeters>-1</AltitudeMeters>
            <DistanceMeters>NAN</DistanceMeters>
          </Trackpoint>
          <Trackpoint>
            <Time>2022-07-15T12:40:24.000Z</Time>
            <Position>
              <LatitudeDegrees>43.39593733660876750946044921875</LatitudeDegrees>
              <LongitudeDegrees>-4.6099245361983776092529296875</LongitudeDegrees>
            </Position>
            <AltitudeMeters>-1</AltitudeMeters>
            <DistanceMeters>NAN</DistanceMeters>
          </Trackpoint>
          <Trackpoint>
            <Time>2022-07-15T13:17:54.000Z</Time>
            <Position>
              <LatitudeDegrees>43.39590531773865222930908203125</LatitudeDegrees>
              <LongitudeDegrees>-4.61000843904912471771240234375</LongitudeDegrees>
            </Position>
            <AltitudeMeters>-8.3999996185302734375</AltitudeMeters>
            <DistanceMeters>NAN</DistanceMeters>
          </Trackpoint>
          <Trackpoint>
            <Time>2022-07-15T13:17:56.000Z</Time>
            <Position>
              <LatitudeDegrees>43.39590531773865222930908203125</LatitudeDegrees>
              <LongitudeDegrees>-4.61000843904912471771240234375</LongitudeDegrees>
            </Position>
            <AltitudeMeters>-8.3999996185302734375</AltitudeMeters>
            <DistanceMeters>NAN</DistanceMeters>
          </Trackpoint>
          <Trackpoint>
            <Time>2022-07-15T13:38:18.000Z</Time>
            <Position>
              <LatitudeDegrees>43.3958929963409900665283203125</LatitudeDegrees>
              <LongitudeDegrees>-4.60996426641941070556640625</LongitudeDegrees>
            </Position>
            <AltitudeMeters>-11.80000019073486328125</AltitudeMeters>
            <DistanceMeters>NAN</DistanceMeters>
          </Trackpoint>
          <Trackpoint>
            <Time>2022-07-15T13:38:20.000Z</Time>
            <Position>
              <LatitudeDegrees>43.3958966843783855438232421875</LatitudeDegrees>
              <LongitudeDegrees>-4.60997273214161396026611328125</LongitudeDegrees>
            </Position>
            <AltitudeMeters>-11.80000019073486328125</AltitudeMeters>
            <DistanceMeters>NAN</DistanceMeters>
          </Trackpoint>
          <Trackpoint>
            <Time>2022-07-15T13:38:21.000Z</Time>
            <Position>
              <LatitudeDegrees>43.3958966843783855438232421875</LatitudeDegrees>
              <LongitudeDegrees>-4.60997273214161396026611328125</LongitudeDegrees>
            </Position>
            <AltitudeMeters>-11.80000019073486328125</AltitudeMeters>
            <DistanceMeters>NAN</DistanceMeters>
          </Trackpoint>
          <Trackpoint>
            <Time>2022-07-15T13:39:14.000Z</Time>
            <Position>
              <LatitudeDegrees>43.3959211595356464385986328125</LatitudeDegrees>
              <LongitudeDegrees>-4.60997365415096282958984375</LongitudeDegrees>
            </Position>
            <AltitudeMeters>-8</AltitudeMeters>
            <DistanceMeters>NAN</DistanceMeters>
          </Trackpoint>
          <Trackpoint>
            <Time>2022-07-15T13:39:17.000Z</Time>
            <Position>
              <LatitudeDegrees>43.39592635631561279296875</LatitudeDegrees>
              <LongitudeDegrees>-4.60996091365814208984375</LongitudeDegrees>
            </Position>
            <AltitudeMeters>-8</AltitudeMeters>
            <DistanceMeters>NAN</DistanceMeters>
          </Trackpoint>
          <Trackpoint>
            <Time>2022-07-15T13:39:19.000Z</Time>
            <Position>
              <LatitudeDegrees>43.39592300355434417724609375</LatitudeDegrees>
              <LongitudeDegrees>-4.60996217094361782073974609375</LongitudeDegrees>
            </Position>
            <AltitudeMeters>-8</AltitudeMeters>
            <DistanceMeters>NAN</DistanceMeters>
          </Trackpoint>
          <Trackpoint>
            <Time>2022-07-15T13:39:24.000Z</Time>
            <Position>
              <LatitudeDegrees>43.3959489874541759490966796875</LatitudeDegrees>
              <LongitudeDegrees>-4.61000575684010982513427734375</LongitudeDegrees>
            </Position>
            <AltitudeMeters>-8.19999980926513671875</AltitudeMeters>
            <DistanceMeters>NAN</DistanceMeters>
          </Trackpoint>
          <Trackpoint>
            <Time>2022-07-15T13:39:25.000Z</Time>
            <Position>
              <LatitudeDegrees>43.3959489874541759490966796875</LatitudeDegrees>
              <LongitudeDegrees>-4.61000575684010982513427734375</LongitudeDegrees>
            </Position>
            <AltitudeMeters>-8.19999980926513671875</AltitudeMeters>
            <DistanceMeters>NAN</DistanceMeters>
          </Trackpoint>
          <Trackpoint>
            <Time>2022-07-15T13:39:31.000Z</Time>
            <Position>
              <LatitudeDegrees>43.395952172577381134033203125</LatitudeDegrees>
              <LongitudeDegrees>-4.61004029028117656707763671875</LongitudeDegrees>
            </Position>
            <AltitudeMeters>-8.19999980926513671875</AltitudeMeters>
            <DistanceMeters>NAN</DistanceMeters>
          </Trackpoint>
          <Trackpoint>
            <Time>2022-07-15T13:39:36.000Z</Time>
            <Position>
              <LatitudeDegrees>43.395946808159351348876953125</LatitudeDegrees>
              <LongitudeDegrees>-4.61003157310187816619873046875</LongitudeDegrees>
            </Position>
            <AltitudeMeters>-8.19999980926513671875</AltitudeMeters>
            <DistanceMeters>NAN</DistanceMeters>
          </Trackpoint>
          <Trackpoint>
            <Time>2022-07-15T13:39:38.000Z</Time>
            <Position>
              <LatitudeDegrees>43.395946808159351348876953125</LatitudeDegrees>
              <LongitudeDegrees>-4.61003157310187816619873046875</LongitudeDegrees>
            </Position>
            <AltitudeMeters>-8.19999980926513671875</AltitudeMeters>
            <DistanceMeters>NAN</DistanceMeters>
          </Trackpoint>
          <Trackpoint>
            <Time>2022-07-15T13:39:59.000Z</Time>
            <Position>
              <LatitudeDegrees>43.3959483169019222259521484375</LatitudeDegrees>
              <LongitudeDegrees>-4.6099993027746677398681640625</LongitudeDegrees>
            </Position>
            <AltitudeMeters>-8.6000003814697265625</AltitudeMeters>
            <DistanceMeters>NAN</DistanceMeters>
          </Trackpoint>
          <Trackpoint>
            <Time>2022-07-15T13:40:00.000Z</Time>
            <Position>
              <LatitudeDegrees>43.395956866443157196044921875</LatitudeDegrees>
              <LongitudeDegrees>-4.60997206158936023712158203125</LongitudeDegrees>
            </Position>
            <AltitudeMeters>-8.6000003814697265625</AltitudeMeters>
            <DistanceMeters>NAN</DistanceMeters>
          </Trackpoint>
          <Trackpoint>
            <Time>2022-07-15T13:40:05.000Z</Time>
            <Position>
              <LatitudeDegrees>43.39595384895801544189453125</LatitudeDegrees>
              <LongitudeDegrees>-4.60996468551456928253173828125</LongitudeDegrees>
            </Position>
            <AltitudeMeters>-8.3999996185302734375</AltitudeMeters>
            <DistanceMeters>NAN</DistanceMeters>
          </Trackpoint>
          <Trackpoint>
            <Time>2022-07-15T13:40:17.000Z</Time>
            <Position>
              <LatitudeDegrees>43.395974636077880859375</LatitudeDegrees>
              <LongitudeDegrees>-4.60990928113460540771484375</LongitudeDegrees>
            </Position>
            <AltitudeMeters>-8.3999996185302734375</AltitudeMeters>
            <DistanceMeters>NAN</DistanceMeters>
          </Trackpoint>
          <Trackpoint>
            <Time>2022-07-15T13:40:19.000Z</Time>
            <Position>
              <LatitudeDegrees>43.39597840793430805206298828125</LatitudeDegrees>
              <LongitudeDegrees>-4.6099003963172435760498046875</LongitudeDegrees>
            </Position>
            <AltitudeMeters>-8.3999996185302734375</AltitudeMeters>
            <DistanceMeters>NAN</DistanceMeters>
          </Trackpoint>
          <Trackpoint>
            <Time>2022-07-15T13:40:22.000Z</Time>
            <Position>
              <LatitudeDegrees>43.39598067104816436767578125</LatitudeDegrees>
              <LongitudeDegrees>-4.60988975130021572113037109375</LongitudeDegrees>
            </Position>
            <AltitudeMeters>-8.3999996185302734375</AltitudeMeters>
            <DistanceMeters>NAN</DistanceMeters>
          </Trackpoint>
          <Trackpoint>
            <Time>2022-07-15T13:40:26.000Z</Time>
            <Position>
              <LatitudeDegrees>43.39598092250525951385498046875</LatitudeDegrees>
              <LongitudeDegrees>-4.60988505743443965911865234375</LongitudeDegrees>
            </Position>
            <AltitudeMeters>-8.3999996185302734375</AltitudeMeters>
            <DistanceMeters>NAN</DistanceMeters>
          </Trackpoint>
          <Trackpoint>
            <Time>2022-07-15T13:40:36.000Z</Time>
            <Position>
              <LatitudeDegrees>43.3959439583122730255126953125</LatitudeDegrees>
              <LongitudeDegrees>-4.60994322784245014190673828125</LongitudeDegrees>
            </Position>
            <AltitudeMeters>-8.6000003814697265625</AltitudeMeters>
            <DistanceMeters>NAN</DistanceMeters>
          </Trackpoint>
          <Trackpoint>
            <Time>2022-07-15T13:40:38.000Z</Time>
            <Position>
              <LatitudeDegrees>43.3959322236478328704833984375</LatitudeDegrees>
              <LongitudeDegrees>-4.609982036054134368896484375</LongitudeDegrees>
            </Position>
            <AltitudeMeters>-8.6000003814697265625</AltitudeMeters>
            <DistanceMeters>NAN</DistanceMeters>
          </Trackpoint>
          <Trackpoint>
            <Time>2022-07-15T13:40:40.000Z</Time>
            <Position>
              <LatitudeDegrees>43.3959322236478328704833984375</LatitudeDegrees>
              <LongitudeDegrees>-4.609982036054134368896484375</LongitudeDegrees>
            </Position>
            <AltitudeMeters>-8.6000003814697265625</AltitudeMeters>
            <DistanceMeters>NAN</DistanceMeters>
          </Trackpoint>
          <Trackpoint>
            <Time>2022-07-15T14:07:22.000Z</Time>
            <Position>
              <LatitudeDegrees>43.39643974788486957550048828125</LatitudeDegrees>
              <LongitudeDegrees>-4.60917779244482517242431640625</LongitudeDegrees>
            </Position>
            <AltitudeMeters>17.6000003814697265625</AltitudeMeters>
            <DistanceMeters>NAN</DistanceMeters>
          </Trackpoint>
          <Trackpoint>
            <Time>2022-07-15T14:07:23.000Z</Time>
            <Position>
              <LatitudeDegrees>43.39645248837769031524658203125</LatitudeDegrees>
              <LongitudeDegrees>-4.60918365977704524993896484375</LongitudeDegrees>
            </Position>
            <AltitudeMeters>17.799999237060546875</AltitudeMeters>
            <DistanceMeters>NAN</DistanceMeters>
          </Trackpoint>
          <Trackpoint>
            <Time>2022-07-15T14:07:25.000Z</Time>
            <Position>
              <LatitudeDegrees>43.39648551307618618011474609375</LatitudeDegrees>
              <LongitudeDegrees>-4.60919137112796306610107421875</LongitudeDegrees>
            </Position>
            <AltitudeMeters>18</AltitudeMeters>
            <DistanceMeters>NAN</DistanceMeters>
          </Trackpoint>
          <Trackpoint>
            <Time>2022-07-15T14:07:27.000Z</Time>
            <Position>
              <LatitudeDegrees>43.39651820249855518341064453125</LatitudeDegrees>
              <LongitudeDegrees>-4.609169326722621917724609375</LongitudeDegrees>
            </Position>
            <AltitudeMeters>18.6000003814697265625</AltitudeMeters>
            <DistanceMeters>NAN</DistanceMeters>
          </Trackpoint>
          <Trackpoint>
            <Time>2022-07-15T14:07:28.000Z</Time>
            <Position>
              <LatitudeDegrees>43.39652591384947299957275390625</LatitudeDegrees>
              <LongitudeDegrees>-4.60915817879140377044677734375</LongitudeDegrees>
            </Position>
            <AltitudeMeters>18.6000003814697265625</AltitudeMeters>
            <DistanceMeters>NAN</DistanceMeters>
          </Trackpoint>
          <Trackpoint>
            <Time>2022-07-15T14:07:35.000Z</Time>
            <Position>
              <LatitudeDegrees>43.39658894576132297515869140625</LatitudeDegrees>
              <LongitudeDegrees>-4.6090202964842319488525390625</LongitudeDegrees>
            </Position>
            <AltitudeMeters>19.200000762939453125</AltitudeMeters>
            <DistanceMeters>NAN</DistanceMeters>
          </Trackpoint>
          <Trackpoint>
            <Time>2022-07-15T14:07:42.000Z</Time>
            <Position>
              <LatitudeDegrees>43.3966242335736751556396484375</LatitudeDegrees>
              <LongitudeDegrees>-4.6088855154812335968017578125</LongitudeDegrees>
            </Position>
            <AltitudeMeters>19.6000003814697265625</AltitudeMeters>
            <DistanceMeters>NAN</DistanceMeters>
          </Trackpoint>
          <Trackpoint>
            <Time>2022-07-15T14:07:43.000Z</Time>
            <Position>
              <LatitudeDegrees>43.39661903679370880126953125</LatitudeDegrees>
              <LongitudeDegrees>-4.60886581800878047943115234375</LongitudeDegrees>
            </Position>
            <AltitudeMeters>19.799999237060546875</AltitudeMeters>
            <DistanceMeters>NAN</DistanceMeters>
          </Trackpoint>
          <Trackpoint>
            <Time>2022-07-15T14:07:51.000Z</Time>
            <Position>
              <LatitudeDegrees>43.39656044729053974151611328125</LatitudeDegrees>
              <LongitudeDegrees>-4.608693234622478485107421875</LongitudeDegrees>
            </Position>
            <AltitudeMeters>19.200000762939453125</AltitudeMeters>
            <DistanceMeters>NAN</DistanceMeters>
          </Trackpoint>
          <Trackpoint>
            <Time>2022-07-15T14:07:56.000Z</Time>
            <Position>
              <LatitudeDegrees>43.3965394087135791778564453125</LatitudeDegrees>
              <LongitudeDegrees>-4.60857312195003032684326171875</LongitudeDegrees>
            </Position>
            <AltitudeMeters>20.200000762939453125</AltitudeMeters>
            <DistanceMeters>NAN</DistanceMeters>
          </Trackpoint>
          <Trackpoint>
            <Time>2022-07-15T14:07:58.000Z</Time>
            <Position>
              <LatitudeDegrees>43.39652876369655132293701171875</LatitudeDegrees>
              <LongitudeDegrees>-4.6085281111299991607666015625</LongitudeDegrees>
            </Position>
            <AltitudeMeters>20.799999237060546875</AltitudeMeters>
            <DistanceMeters>NAN</DistanceMeters>
          </Trackpoint>
          <Trackpoint>
            <Time>2022-07-15T14:08:00.000Z</Time>
            <Position>
              <LatitudeDegrees>43.39651468209922313690185546875</LatitudeDegrees>
              <LongitudeDegrees>-4.60848242975771427154541015625</LongitudeDegrees>
            </Position>
            <AltitudeMeters>21.6000003814697265625</AltitudeMeters>
            <DistanceMeters>NAN</DistanceMeters>
          </Trackpoint>
          <Trackpoint>
            <Time>2022-07-15T14:08:03.000Z</Time>
            <Position>
              <LatitudeDegrees>43.39649288915097713470458984375</LatitudeDegrees>
              <LongitudeDegrees>-4.60842627100646495819091796875</LongitudeDegrees>
            </Position>
            <AltitudeMeters>21.799999237060546875</AltitudeMeters>
            <DistanceMeters>NAN</DistanceMeters>
          </Trackpoint>
          <Trackpoint>
            <Time>2022-07-15T14:08:08.000Z</Time>
            <Position>
              <LatitudeDegrees>43.3964445255696773529052734375</LatitudeDegrees>
              <LongitudeDegrees>-4.6083427034318447113037109375</LongitudeDegrees>
            </Position>
            <AltitudeMeters>22</AltitudeMeters>
            <DistanceMeters>NAN</DistanceMeters>
          </Trackpoint>
          <Trackpoint>
            <Time>2022-07-15T14:08:12.000Z</Time>
            <Position>
              <LatitudeDegrees>43.39643673039972782135009765625</LatitudeDegrees>
              <LongitudeDegrees>-4.60832820273935794830322265625</LongitudeDegrees>
            </Position>
            <AltitudeMeters>22.200000762939453125</AltitudeMeters>
            <DistanceMeters>NAN</DistanceMeters>
          </Trackpoint>
          <Trackpoint>
            <Time>2022-07-15T14:08:29.000Z</Time>
            <Position>
              <LatitudeDegrees>43.396362550556659698486328125</LatitudeDegrees>
              <LongitudeDegrees>-4.60816140286624431610107421875</LongitudeDegrees>
            </Position>
            <AltitudeMeters>21.200000762939453125</AltitudeMeters>
            <DistanceMeters>NAN</DistanceMeters>
          </Trackpoint>
          <Trackpoint>
            <Time>2022-07-15T14:08:30.000Z</Time>
            <Position>
              <LatitudeDegrees>43.3963452838361263275146484375</LatitudeDegrees>
              <LongitudeDegrees>-4.608145058155059814453125</LongitudeDegrees>
            </Position>
            <AltitudeMeters>20.6000003814697265625</AltitudeMeters>
            <DistanceMeters>NAN</DistanceMeters>
          </Trackpoint>
          <Trackpoint>
            <Time>2022-07-15T14:08:33.000Z</Time>
            <Position>
              <LatitudeDegrees>43.39631326496601104736328125</LatitudeDegrees>
              <LongitudeDegrees>-4.608068950474262237548828125</LongitudeDegrees>
            </Position>
            <AltitudeMeters>19.3999996185302734375</AltitudeMeters>
            <DistanceMeters>NAN</DistanceMeters>
          </Trackpoint>
          <Trackpoint>
            <Time>2022-07-15T14:08:34.000Z</Time>
            <Position>
              <LatitudeDegrees>43.39631058275699615478515625</LatitudeDegrees>
              <LongitudeDegrees>-4.6080389432609081268310546875</LongitudeDegrees>
            </Position>
            <AltitudeMeters>18.6000003814697265625</AltitudeMeters>
            <DistanceMeters>NAN</DistanceMeters>
          </Trackpoint>
          <Trackpoint>
            <Time>2022-07-15T14:08:35.000Z</Time>
            <Position>
              <LatitudeDegrees>43.3963043801486492156982421875</LatitudeDegrees>
              <LongitudeDegrees>-4.608013965189456939697265625</LongitudeDegrees>
            </Position>
            <AltitudeMeters>18</AltitudeMeters>
            <DistanceMeters>NAN</DistanceMeters>
          </Trackpoint>
          <Trackpoint>
            <Time>2022-07-15T14:08:38.000Z</Time>
            <Position>
              <LatitudeDegrees>43.396274037659168243408203125</LatitudeDegrees>
              <LongitudeDegrees>-4.60792033933103084564208984375</LongitudeDegrees>
            </Position>
            <AltitudeMeters>16.799999237060546875</AltitudeMeters>
            <DistanceMeters>NAN</DistanceMeters>
          </Trackpoint>
          <Trackpoint>
            <Time>2022-07-15T14:08:39.000Z</Time>
            <Position>
              <LatitudeDegrees>43.39626322500407695770263671875</LatitudeDegrees>
              <LongitudeDegrees>-4.6078729815781116485595703125</LongitudeDegrees>
            </Position>
            <AltitudeMeters>16.6000003814697265625</AltitudeMeters>
            <DistanceMeters>NAN</DistanceMeters>
          </Trackpoint>
          <Trackpoint>
            <Time>2022-07-15T14:08:40.000Z</Time>
            <Position>
              <LatitudeDegrees>43.39624964632093906402587890625</LatitudeDegrees>
              <LongitudeDegrees>-4.60781539790332317352294921875</LongitudeDegrees>
            </Position>
            <AltitudeMeters>16.200000762939453125</AltitudeMeters>
            <DistanceMeters>NAN</DistanceMeters>
          </Trackpoint>
          <Trackpoint>
            <Time>2022-07-15T14:08:42.000Z</Time>
            <Position>
              <LatitudeDegrees>43.39622148312628269195556640625</LatitudeDegrees>
              <LongitudeDegrees>-4.60770693607628345489501953125</LongitudeDegrees>
            </Position>
            <AltitudeMeters>16</AltitudeMeters>
            <DistanceMeters>NAN</DistanceMeters>
          </Trackpoint>
          <Trackpoint>
            <Time>2022-07-15T14:08:43.000Z</Time>
            <Position>
              <LatitudeDegrees>43.39621176011860370635986328125</LatitudeDegrees>
              <LongitudeDegrees>-4.60766519419848918914794921875</LongitudeDegrees>
            </Position>
            <AltitudeMeters>16</AltitudeMeters>
            <DistanceMeters>NAN</DistanceMeters>
          </Trackpoint>
          <Trackpoint>
            <Time>2022-07-15T14:08:47.000Z</Time>
            <Position>
              <LatitudeDegrees>43.39617437683045864105224609375</LatitudeDegrees>
              <LongitudeDegrees>-4.60756645537912845611572265625</LongitudeDegrees>
            </Position>
            <AltitudeMeters>16.3999996185302734375</AltitudeMeters>
            <DistanceMeters>NAN</DistanceMeters>
          </Trackpoint>
          <Trackpoint>
            <Time>2022-07-15T14:08:53.000Z</Time>
            <Position>
              <LatitudeDegrees>43.396104387938976287841796875</LatitudeDegrees>
              <LongitudeDegrees>-4.60749755613505840301513671875</LongitudeDegrees>
            </Position>
            <AltitudeMeters>18</AltitudeMeters>
            <DistanceMeters>NAN</DistanceMeters>
          </Trackpoint>
          <Trackpoint>
            <Time>2022-07-15T14:08:54.000Z</Time>
            <Position>
              <LatitudeDegrees>43.39608770795166492462158203125</LatitudeDegrees>
              <LongitudeDegrees>-4.60747274570167064666748046875</LongitudeDegrees>
            </Position>
            <AltitudeMeters>18</AltitudeMeters>
            <DistanceMeters>NAN</DistanceMeters>
          </Trackpoint>
          <Trackpoint>
            <Time>2022-07-15T14:08:59.000Z</Time>
            <Position>
              <LatitudeDegrees>43.3960135281085968017578125</LatitudeDegrees>
              <LongitudeDegrees>-4.607355482876300811767578125</LongitudeDegrees>
            </Position>
            <AltitudeMeters>17.6000003814697265625</AltitudeMeters>
            <DistanceMeters>NAN</DistanceMeters>
          </Trackpoint>
          <Trackpoint>
            <Time>2022-07-15T14:09:06.000Z</Time>
            <Position>
              <LatitudeDegrees>43.39595519006252288818359375</LatitudeDegrees>
              <LongitudeDegrees>-4.60723914206027984619140625</LongitudeDegrees>
            </Position>
            <AltitudeMeters>18.3999996185302734375</AltitudeMeters>
            <DistanceMeters>NAN</DistanceMeters>
          </Trackpoint>
          <Trackpoint>
            <Time>2022-07-15T14:09:10.000Z</Time>
            <Position>
              <LatitudeDegrees>43.39594873599708080291748046875</LatitudeDegrees>
              <LongitudeDegrees>-4.607214666903018951416015625</LongitudeDegrees>
            </Position>
            <AltitudeMeters>18.799999237060546875</AltitudeMeters>
            <DistanceMeters>NAN</DistanceMeters>
          </Trackpoint>
          <Trackpoint>
            <Time>2022-07-15T14:09:53.000Z</Time>
            <Position>
              <LatitudeDegrees>43.3958326466381549835205078125</LatitudeDegrees>
              <LongitudeDegrees>-4.607256911695003509521484375</LongitudeDegrees>
            </Position>
            <AltitudeMeters>22.799999237060546875</AltitudeMeters>
            <DistanceMeters>NAN</DistanceMeters>
          </Trackpoint>
          <Trackpoint>
            <Time>2022-07-15T14:09:54.000Z</Time>
            <Position>
              <LatitudeDegrees>43.39581680484116077423095703125</LatitudeDegrees>
              <LongitudeDegrees>-4.60727258585393428802490234375</LongitudeDegrees>
            </Position>
            <AltitudeMeters>23</AltitudeMeters>
            <DistanceMeters>NAN</DistanceMeters>
          </Trackpoint>
          <Trackpoint>
            <Time>2022-07-15T14:10:00.000Z</Time>
            <Position>
              <LatitudeDegrees>43.39571605436503887176513671875</LatitudeDegrees>
              <LongitudeDegrees>-4.60733561776578426361083984375</LongitudeDegrees>
            </Position>
            <AltitudeMeters>23</AltitudeMeters>
            <DistanceMeters>NAN</DistanceMeters>
          </Trackpoint>
          <Trackpoint>
            <Time>2022-07-15T14:10:08.000Z</Time>
            <Position>
              <LatitudeDegrees>43.39558764360845088958740234375</LatitudeDegrees>
              <LongitudeDegrees>-4.6074106357991695404052734375</LongitudeDegrees>
            </Position>
            <AltitudeMeters>23.200000762939453125</AltitudeMeters>
            <DistanceMeters>NAN</DistanceMeters>
          </Trackpoint>
          <Trackpoint>
            <Time>2022-07-15T14:10:16.000Z</Time>
            <Position>
              <LatitudeDegrees>43.39548823423683643341064453125</LatitudeDegrees>
              <LongitudeDegrees>-4.60751499049365520477294921875</LongitudeDegrees>
            </Position>
            <AltitudeMeters>23.6000003814697265625</AltitudeMeters>
            <DistanceMeters>NAN</DistanceMeters>
          </Trackpoint>
          <Trackpoint>
            <Time>2022-07-15T14:10:20.000Z</Time>
            <Position>
              <LatitudeDegrees>43.39543274603784084320068359375</LatitudeDegrees>
              <LongitudeDegrees>-4.607557319104671478271484375</LongitudeDegrees>
            </Position>
            <AltitudeMeters>23.799999237060546875</AltitudeMeters>
            <DistanceMeters>NAN</DistanceMeters>
          </Trackpoint>
          <Trackpoint>
            <Time>2022-07-15T14:10:26.000Z</Time>
            <Position>
              <LatitudeDegrees>43.39535303413867950439453125</LatitudeDegrees>
              <LongitudeDegrees>-4.60762211121618747711181640625</LongitudeDegrees>
            </Position>
            <AltitudeMeters>24.6000003814697265625</AltitudeMeters>
            <DistanceMeters>NAN</DistanceMeters>
          </Trackpoint>
          <Trackpoint>
            <Time>2022-07-15T14:10:29.000Z</Time>
            <Position>
              <LatitudeDegrees>43.395318500697612762451171875</LatitudeDegrees>
              <LongitudeDegrees>-4.6076547168195247650146484375</LongitudeDegrees>
            </Position>
            <AltitudeMeters>25</AltitudeMeters>
            <DistanceMeters>NAN</DistanceMeters>
          </Trackpoint>
          <Trackpoint>
            <Time>2022-07-15T14:10:35.000Z</Time>
            <Position>
              <LatitudeDegrees>43.3952603302896022796630859375</LatitudeDegrees>
              <LongitudeDegrees>-4.60771347396075725555419921875</LongitudeDegrees>
            </Position>
            <AltitudeMeters>26</AltitudeMeters>
            <DistanceMeters>NAN</DistanceMeters>
          </Trackpoint>
          <Trackpoint>
            <Time>2022-07-15T14:10:40.000Z</Time>
            <Position>
              <LatitudeDegrees>43.3952043391764163970947265625</LatitudeDegrees>
              <LongitudeDegrees>-4.607721604406833648681640625</LongitudeDegrees>
            </Position>
            <AltitudeMeters>26.6000003814697265625</AltitudeMeters>
            <DistanceMeters>NAN</DistanceMeters>
          </Trackpoint>
          <Trackpoint>
            <Time>2022-07-15T14:10:42.000Z</Time>
            <Position>
              <LatitudeDegrees>43.39517408050596714019775390625</LatitudeDegrees>
              <LongitudeDegrees>-4.60771129466593265533447265625</LongitudeDegrees>
            </Position>
            <AltitudeMeters>26.799999237060546875</AltitudeMeters>
            <DistanceMeters>NAN</DistanceMeters>
          </Trackpoint>
          <Trackpoint>
            <Time>2022-07-15T14:10:46.000Z</Time>
            <Position>
              <LatitudeDegrees>43.3951268903911113739013671875</LatitudeDegrees>
              <LongitudeDegrees>-4.60772051475942134857177734375</LongitudeDegrees>
            </Position>
            <AltitudeMeters>27</AltitudeMeters>
            <DistanceMeters>NAN</DistanceMeters>
          </Trackpoint>
          <Trackpoint>
            <Time>2022-07-15T14:10:48.000Z</Time>
            <Position>
              <LatitudeDegrees>43.395124040544033050537109375</LatitudeDegrees>
              <LongitudeDegrees>-4.607721604406833648681640625</LongitudeDegrees>
            </Position>
            <AltitudeMeters>27.200000762939453125</AltitudeMeters>
            <DistanceMeters>NAN</DistanceMeters>
          </Trackpoint>
          <Trackpoint>
            <Time>2022-07-15T14:10:49.000Z</Time>
            <Position>
              <LatitudeDegrees>43.395124040544033050537109375</LatitudeDegrees>
              <LongitudeDegrees>-4.607721604406833648681640625</LongitudeDegrees>
            </Position>
            <AltitudeMeters>27.3999996185302734375</AltitudeMeters>
            <DistanceMeters>NAN</DistanceMeters>
          </Trackpoint>
          <Trackpoint>
            <Time>2022-07-15T14:15:23.000Z</Time>
            <Position>
              <LatitudeDegrees>43.39502857066690921783447265625</LatitudeDegrees>
              <LongitudeDegrees>-4.6076862327754497528076171875</LongitudeDegrees>
            </Position>
            <AltitudeMeters>27.3999996185302734375</AltitudeMeters>
            <DistanceMeters>NAN</DistanceMeters>
          </Trackpoint>
          <Trackpoint>
            <Time>2022-07-15T14:15:24.000Z</Time>
            <Position>
              <LatitudeDegrees>43.395013399422168731689453125</LatitudeDegrees>
              <LongitudeDegrees>-4.6076770126819610595703125</LongitudeDegrees>
            </Position>
            <AltitudeMeters>27.3999996185302734375</AltitudeMeters>
            <DistanceMeters>NAN</DistanceMeters>
          </Trackpoint>
          <Trackpoint>
            <Time>2022-07-15T14:15:25.000Z</Time>
            <Position>
              <LatitudeDegrees>43.3949927799403667449951171875</LatitudeDegrees>
              <LongitudeDegrees>-4.60766368545591831207275390625</LongitudeDegrees>
            </Position>
            <AltitudeMeters>27.3999996185302734375</AltitudeMeters>
            <DistanceMeters>NAN</DistanceMeters>
          </Trackpoint>
          <Trackpoint>
            <Time>2022-07-15T14:15:29.000Z</Time>
            <Position>
              <LatitudeDegrees>43.3949310891330242156982421875</LatitudeDegrees>
              <LongitudeDegrees>-4.60762948729097843170166015625</LongitudeDegrees>
            </Position>
            <AltitudeMeters>28.200000762939453125</AltitudeMeters>
            <DistanceMeters>NAN</DistanceMeters>
          </Trackpoint>
          <Trackpoint>
            <Time>2022-07-15T14:15:33.000Z</Time>
            <Position>
              <LatitudeDegrees>43.3948848210275173187255859375</LatitudeDegrees>
              <LongitudeDegrees>-4.60757869295775890350341796875</LongitudeDegrees>
            </Position>
            <AltitudeMeters>28.3999996185302734375</AltitudeMeters>
            <DistanceMeters>NAN</DistanceMeters>
          </Trackpoint>
          <Trackpoint>
            <Time>2022-07-15T14:15:39.000Z</Time>
            <Position>
              <LatitudeDegrees>43.39481315575540065765380859375</LatitudeDegrees>
              <LongitudeDegrees>-4.6074914373457431793212890625</LongitudeDegrees>
            </Position>
            <AltitudeMeters>27.799999237060546875</AltitudeMeters>
            <DistanceMeters>NAN</DistanceMeters>
          </Trackpoint>
          <Trackpoint>
            <Time>2022-07-15T14:15:46.000Z</Time>
            <Position>
              <LatitudeDegrees>43.39476001448929309844970703125</LatitudeDegrees>
              <LongitudeDegrees>-4.607361517846584320068359375</LongitudeDegrees>
            </Position>
            <AltitudeMeters>28.799999237060546875</AltitudeMeters>
            <DistanceMeters>NAN</DistanceMeters>
          </Trackpoint>
          <Trackpoint>
            <Time>2022-07-15T14:15:51.000Z</Time>
            <Position>
              <LatitudeDegrees>43.39471659623086452484130859375</LatitudeDegrees>
              <LongitudeDegrees>-4.60726353339850902557373046875</LongitudeDegrees>
            </Position>
            <AltitudeMeters>29.200000762939453125</AltitudeMeters>
            <DistanceMeters>NAN</DistanceMeters>
          </Trackpoint>
          <Trackpoint>
            <Time>2022-07-15T14:15:56.000Z</Time>
            <Position>
              <LatitudeDegrees>43.39466772973537445068359375</LatitudeDegrees>
              <LongitudeDegrees>-4.60717518813908100128173828125</LongitudeDegrees>
            </Position>
            <AltitudeMeters>29.6000003814697265625</AltitudeMeters>
            <DistanceMeters>NAN</DistanceMeters>
          </Trackpoint>
          <Trackpoint>
            <Time>2022-07-15T14:15:59.000Z</Time>
            <Position>
              <LatitudeDegrees>43.39463529177010059356689453125</LatitudeDegrees>
              <LongitudeDegrees>-4.60713478736579418182373046875</LongitudeDegrees>
            </Position>
            <AltitudeMeters>30.200000762939453125</AltitudeMeters>
            <DistanceMeters>NAN</DistanceMeters>
          </Trackpoint>
          <Trackpoint>
            <Time>2022-07-15T14:16:03.000Z</Time>
            <Position>
              <LatitudeDegrees>43.394582904875278472900390625</LatitudeDegrees>
              <LongitudeDegrees>-4.60710830055177211761474609375</LongitudeDegrees>
            </Position>
            <AltitudeMeters>30.799999237060546875</AltitudeMeters>
            <DistanceMeters>NAN</DistanceMeters>
          </Trackpoint>
          <Trackpoint>
            <Time>2022-07-15T14:16:06.000Z</Time>
            <Position>
              <LatitudeDegrees>43.39454996399581432342529296875</LatitudeDegrees>
              <LongitudeDegrees>-4.60710008628666400909423828125</LongitudeDegrees>
            </Position>
            <AltitudeMeters>31.3999996185302734375</AltitudeMeters>
            <DistanceMeters>NAN</DistanceMeters>
          </Trackpoint>
          <Trackpoint>
            <Time>2022-07-15T14:16:09.000Z</Time>
            <Position>
              <LatitudeDegrees>43.3945133350789546966552734375</LatitudeDegrees>
              <LongitudeDegrees>-4.60709296166896820068359375</LongitudeDegrees>
            </Position>
            <AltitudeMeters>32</AltitudeMeters>
            <DistanceMeters>NAN</DistanceMeters>
          </Trackpoint>
          <Trackpoint>
            <Time>2022-07-15T14:16:13.000Z</Time>
            <Position>
              <LatitudeDegrees>43.39446145109832286834716796875</LatitudeDegrees>
              <LongitudeDegrees>-4.60708935745060443878173828125</LongitudeDegrees>
            </Position>
            <AltitudeMeters>32.59999847412109375</AltitudeMeters>
            <DistanceMeters>NAN</DistanceMeters>
          </Trackpoint>
          <Trackpoint>
            <Time>2022-07-15T14:16:20.000Z</Time>
            <Position>
              <LatitudeDegrees>43.39435935951769351959228515625</LatitudeDegrees>
              <LongitudeDegrees>-4.60708684287965297698974609375</LongitudeDegrees>
            </Position>
            <AltitudeMeters>33.40000152587890625</AltitudeMeters>
            <DistanceMeters>NAN</DistanceMeters>
          </Trackpoint>
          <Trackpoint>
            <Time>2022-07-15T14:16:21.000Z</Time>
            <Position>
              <LatitudeDegrees>43.39434226043522357940673828125</LatitudeDegrees>
              <LongitudeDegrees>-4.6070867590606212615966796875</LongitudeDegrees>
            </Position>
            <AltitudeMeters>33.59999847412109375</AltitudeMeters>
            <DistanceMeters>NAN</DistanceMeters>
          </Trackpoint>
          <Trackpoint>
            <Time>2022-07-15T14:16:25.000Z</Time>
            <Position>
              <LatitudeDegrees>43.39428417384624481201171875</LatitudeDegrees>
              <LongitudeDegrees>-4.60708298720419406890869140625</LongitudeDegrees>
            </Position>
            <AltitudeMeters>34</AltitudeMeters>
            <DistanceMeters>NAN</DistanceMeters>
          </Trackpoint>
          <Trackpoint>
            <Time>2022-07-15T14:16:28.000Z</Time>
            <Position>
              <LatitudeDegrees>43.39423698373138904571533203125</LatitudeDegrees>
              <LongitudeDegrees>-4.60707963444292545318603515625</LongitudeDegrees>
            </Position>
            <AltitudeMeters>34</AltitudeMeters>
            <DistanceMeters>NAN</DistanceMeters>
          </Trackpoint>
          <Trackpoint>
            <Time>2022-07-15T14:16:29.000Z</Time>
            <Position>
              <LatitudeDegrees>43.394223153591156005859375</LatitudeDegrees>
              <LongitudeDegrees>-4.60707644931972026824951171875</LongitudeDegrees>
            </Position>
            <AltitudeMeters>34</AltitudeMeters>
            <DistanceMeters>NAN</DistanceMeters>
          </Trackpoint>
          <Trackpoint>
            <Time>2022-07-15T14:16:36.000Z</Time>
            <Position>
              <LatitudeDegrees>43.3941224031150341033935546875</LatitudeDegrees>
              <LongitudeDegrees>-4.60703772492706775665283203125</LongitudeDegrees>
            </Position>
            <AltitudeMeters>34.200000762939453125</AltitudeMeters>
            <DistanceMeters>NAN</DistanceMeters>
          </Trackpoint>
          <Trackpoint>
            <Time>2022-07-15T14:16:38.000Z</Time>
            <Position>
              <LatitudeDegrees>43.39409650303423404693603515625</LatitudeDegrees>
              <LongitudeDegrees>-4.6070243977010250091552734375</LongitudeDegrees>
            </Position>
            <AltitudeMeters>34.59999847412109375</AltitudeMeters>
            <DistanceMeters>NAN</DistanceMeters>
          </Trackpoint>
          <Trackpoint>
            <Time>2022-07-15T14:16:45.000Z</Time>
            <Position>
              <LatitudeDegrees>43.3939936570823192596435546875</LatitudeDegrees>
              <LongitudeDegrees>-4.60699698887765407562255859375</LongitudeDegrees>
            </Position>
            <AltitudeMeters>35.59999847412109375</AltitudeMeters>
            <DistanceMeters>NAN</DistanceMeters>
          </Trackpoint>
          <Trackpoint>
            <Time>2022-07-15T14:16:46.000Z</Time>
            <Position>
              <LatitudeDegrees>43.39397949166595935821533203125</LatitudeDegrees>
              <LongitudeDegrees>-4.606995396316051483154296875</LongitudeDegrees>
            </Position>
            <AltitudeMeters>35.799999237060546875</AltitudeMeters>
            <DistanceMeters>NAN</DistanceMeters>
          </Trackpoint>
          <Trackpoint>
            <Time>2022-07-15T14:16:50.000Z</Time>
            <Position>
              <LatitudeDegrees>43.39391537010669708251953125</LatitudeDegrees>
              <LongitudeDegrees>-4.60699246264994144439697265625</LongitudeDegrees>
            </Position>
            <AltitudeMeters>36.59999847412109375</AltitudeMeters>
            <DistanceMeters>NAN</DistanceMeters>
          </Trackpoint>
          <Trackpoint>
            <Time>2022-07-15T14:16:51.000Z</Time>
            <Position>
              <LatitudeDegrees>43.3939014561474323272705078125</LatitudeDegrees>
              <LongitudeDegrees>-4.60699581541121006011962890625</LongitudeDegrees>
            </Position>
            <AltitudeMeters>37</AltitudeMeters>
            <DistanceMeters>NAN</DistanceMeters>
          </Trackpoint>
          <Trackpoint>
            <Time>2022-07-15T14:16:52.000Z</Time>
            <Position>
              <LatitudeDegrees>43.393889553844928741455078125</LatitudeDegrees>
              <LongitudeDegrees>-4.60700067691504955291748046875</LongitudeDegrees>
            </Position>
            <AltitudeMeters>37</AltitudeMeters>
            <DistanceMeters>NAN</DistanceMeters>
          </Trackpoint>
          <Trackpoint>
            <Time>2022-07-15T14:16:56.000Z</Time>
            <Position>
              <LatitudeDegrees>43.3938387595117092132568359375</LatitudeDegrees>
              <LongitudeDegrees>-4.6070217154920101165771484375</LongitudeDegrees>
            </Position>
            <AltitudeMeters>37.59999847412109375</AltitudeMeters>
            <DistanceMeters>NAN</DistanceMeters>
          </Trackpoint>
          <Trackpoint>
            <Time>2022-07-15T14:17:00.000Z</Time>
            <Position>
              <LatitudeDegrees>43.393774218857288360595703125</LatitudeDegrees>
              <LongitudeDegrees>-4.6070344559848308563232421875</LongitudeDegrees>
            </Position>
            <AltitudeMeters>37.59999847412109375</AltitudeMeters>
            <DistanceMeters>NAN</DistanceMeters>
          </Trackpoint>
          <Trackpoint>
            <Time>2022-07-15T14:17:08.000Z</Time>
            <Position>
              <LatitudeDegrees>43.39359492994844913482666015625</LatitudeDegrees>
              <LongitudeDegrees>-4.6070911176502704620361328125</LongitudeDegrees>
            </Position>
            <AltitudeMeters>36.799999237060546875</AltitudeMeters>
            <DistanceMeters>NAN</DistanceMeters>
          </Trackpoint>
          <Trackpoint>
            <Time>2022-07-15T14:17:10.000Z</Time>
            <Position>
              <LatitudeDegrees>43.3935507573187351226806640625</LatitudeDegrees>
              <LongitudeDegrees>-4.60708550177514553070068359375</LongitudeDegrees>
            </Position>
            <AltitudeMeters>36.59999847412109375</AltitudeMeters>
            <DistanceMeters>NAN</DistanceMeters>
          </Trackpoint>
          <Trackpoint>
            <Time>2022-07-15T14:17:13.000Z</Time>
            <Position>
              <LatitudeDegrees>43.3934709616005420684814453125</LatitudeDegrees>
              <LongitudeDegrees>-4.60704962722957134246826171875</LongitudeDegrees>
            </Position>
            <AltitudeMeters>36.59999847412109375</AltitudeMeters>
            <DistanceMeters>NAN</DistanceMeters>
          </Trackpoint>
          <Trackpoint>
            <Time>2022-07-15T14:17:14.000Z</Time>
            <Position>
              <LatitudeDegrees>43.393455035984516143798828125</LatitudeDegrees>
              <LongitudeDegrees>-4.607042334973812103271484375</LongitudeDegrees>
            </Position>
            <AltitudeMeters>36.40000152587890625</AltitudeMeters>
            <DistanceMeters>NAN</DistanceMeters>
          </Trackpoint>
          <Trackpoint>
            <Time>2022-07-15T14:17:16.000Z</Time>
            <Position>
              <LatitudeDegrees>43.39343500323593616485595703125</LatitudeDegrees>
              <LongitudeDegrees>-4.60703856311738491058349609375</LongitudeDegrees>
            </Position>
            <AltitudeMeters>36.200000762939453125</AltitudeMeters>
            <DistanceMeters>NAN</DistanceMeters>
          </Trackpoint>
          <Trackpoint>
            <Time>2022-07-15T14:17:18.000Z</Time>
            <Position>
              <LatitudeDegrees>43.39339560829102993011474609375</LatitudeDegrees>
              <LongitudeDegrees>-4.60704325698316097259521484375</LongitudeDegrees>
            </Position>
            <AltitudeMeters>36.200000762939453125</AltitudeMeters>
            <DistanceMeters>NAN</DistanceMeters>
          </Trackpoint>
          <Trackpoint>
            <Time>2022-07-15T14:17:19.000Z</Time>
            <Position>
              <LatitudeDegrees>43.39337549172341823577880859375</LatitudeDegrees>
              <LongitudeDegrees>-4.6070552431046962738037109375</LongitudeDegrees>
            </Position>
            <AltitudeMeters>36.200000762939453125</AltitudeMeters>
            <DistanceMeters>NAN</DistanceMeters>
          </Trackpoint>
          <Trackpoint>
            <Time>2022-07-15T14:17:20.000Z</Time>
            <Position>
              <LatitudeDegrees>43.3933599852025508880615234375</LatitudeDegrees>
              <LongitudeDegrees>-4.6070740185678005218505859375</LongitudeDegrees>
            </Position>
            <AltitudeMeters>36.200000762939453125</AltitudeMeters>
            <DistanceMeters>NAN</DistanceMeters>
          </Trackpoint>
          <Trackpoint>
            <Time>2022-07-15T14:17:23.000Z</Time>
            <Position>
              <LatitudeDegrees>43.39331765659153461456298828125</LatitudeDegrees>
              <LongitudeDegrees>-4.6071662195026874542236328125</LongitudeDegrees>
            </Position>
            <AltitudeMeters>36</AltitudeMeters>
            <DistanceMeters>NAN</DistanceMeters>
          </Trackpoint>
          <Trackpoint>
            <Time>2022-07-15T14:17:26.000Z</Time>
            <Position>
              <LatitudeDegrees>43.39329385198652744293212890625</LatitudeDegrees>
              <LongitudeDegrees>-4.60725724697113037109375</LongitudeDegrees>
            </Position>
            <AltitudeMeters>36</AltitudeMeters>
            <DistanceMeters>NAN</DistanceMeters>
          </Trackpoint>
          <Trackpoint>
            <Time>2022-07-15T14:17:27.000Z</Time>
            <Position>
              <LatitudeDegrees>43.39328907430171966552734375</LatitudeDegrees>
              <LongitudeDegrees>-4.60728364996612071990966796875</LongitudeDegrees>
            </Position>
            <AltitudeMeters>36</AltitudeMeters>
            <DistanceMeters>NAN</DistanceMeters>
          </Trackpoint>
          <Trackpoint>
            <Time>2022-07-15T14:17:29.000Z</Time>
            <Position>
              <LatitudeDegrees>43.39327239431440830230712890625</LatitudeDegrees>
              <LongitudeDegrees>-4.607325978577136993408203125</LongitudeDegrees>
            </Position>
            <AltitudeMeters>36.200000762939453125</AltitudeMeters>
            <DistanceMeters>NAN</DistanceMeters>
          </Trackpoint>
          <Trackpoint>
            <Time>2022-07-15T14:17:34.000Z</Time>
            <Position>
              <LatitudeDegrees>43.39323853142559528350830078125</LatitudeDegrees>
              <LongitudeDegrees>-4.6074114739894866943359375</LongitudeDegrees>
            </Position>
            <AltitudeMeters>36.200000762939453125</AltitudeMeters>
            <DistanceMeters>NAN</DistanceMeters>
          </Trackpoint>
          <Trackpoint>
            <Time>2022-07-15T14:17:40.000Z</Time>
            <Position>
              <LatitudeDegrees>43.39320668019354343414306640625</LatitudeDegrees>
              <LongitudeDegrees>-4.607551284134387969970703125</LongitudeDegrees>
            </Position>
            <AltitudeMeters>37</AltitudeMeters>
            <DistanceMeters>NAN</DistanceMeters>
          </Trackpoint>
          <Trackpoint>
            <Time>2022-07-15T14:17:42.000Z</Time>
            <Position>
              <LatitudeDegrees>43.39319276623427867889404296875</LatitudeDegrees>
              <LongitudeDegrees>-4.60760593414306640625</LongitudeDegrees>
            </Position>
            <AltitudeMeters>37.40000152587890625</AltitudeMeters>
            <DistanceMeters>NAN</DistanceMeters>
          </Trackpoint>
          <Trackpoint>
            <Time>2022-07-15T14:17:46.000Z</Time>
            <Position>
              <LatitudeDegrees>43.3931677043437957763671875</LatitudeDegrees>
              <LongitudeDegrees>-4.60769377648830413818359375</LongitudeDegrees>
            </Position>
            <AltitudeMeters>37.59999847412109375</AltitudeMeters>
            <DistanceMeters>NAN</DistanceMeters>
          </Trackpoint>
          <Trackpoint>
            <Time>2022-07-15T14:17:50.000Z</Time>
            <Position>
              <LatitudeDegrees>43.393129147589206695556640625</LatitudeDegrees>
              <LongitudeDegrees>-4.607788659632205963134765625</LongitudeDegrees>
            </Position>
            <AltitudeMeters>38</AltitudeMeters>
            <DistanceMeters>NAN</DistanceMeters>
          </Trackpoint>
          <Trackpoint>
            <Time>2022-07-15T14:17:53.000Z</Time>
            <Position>
              <LatitudeDegrees>43.39310056529939174652099609375</LatitudeDegrees>
              <LongitudeDegrees>-4.60785898379981517791748046875</LongitudeDegrees>
            </Position>
            <AltitudeMeters>38.59999847412109375</AltitudeMeters>
            <DistanceMeters>NAN</DistanceMeters>
          </Trackpoint>
          <Trackpoint>
            <Time>2022-07-15T14:17:56.000Z</Time>
            <Position>
              <LatitudeDegrees>43.3930711448192596435546875</LatitudeDegrees>
              <LongitudeDegrees>-4.60792603902518749237060546875</LongitudeDegrees>
            </Position>
            <AltitudeMeters>39.200000762939453125</AltitudeMeters>
            <DistanceMeters>NAN</DistanceMeters>
          </Trackpoint>
          <Trackpoint>
            <Time>2022-07-15T14:17:59.000Z</Time>
            <Position>
              <LatitudeDegrees>43.393041975796222686767578125</LatitudeDegrees>
              <LongitudeDegrees>-4.60800885222852230072021484375</LongitudeDegrees>
            </Position>
            <AltitudeMeters>39.40000152587890625</AltitudeMeters>
            <DistanceMeters>NAN</DistanceMeters>
          </Trackpoint>
          <Trackpoint>
            <Time>2022-07-15T14:18:01.000Z</Time>
            <Position>
              <LatitudeDegrees>43.39301414787769317626953125</LatitudeDegrees>
              <LongitudeDegrees>-4.6080525219440460205078125</LongitudeDegrees>
            </Position>
            <AltitudeMeters>39.40000152587890625</AltitudeMeters>
            <DistanceMeters>NAN</DistanceMeters>
          </Trackpoint>
          <Trackpoint>
            <Time>2022-07-15T14:18:02.000Z</Time>
            <Position>
              <LatitudeDegrees>43.39300400577485561370849609375</LatitudeDegrees>
              <LongitudeDegrees>-4.6080785058438777923583984375</LongitudeDegrees>
            </Position>
            <AltitudeMeters>39.40000152587890625</AltitudeMeters>
            <DistanceMeters>NAN</DistanceMeters>
          </Trackpoint>
          <Trackpoint>
            <Time>2022-07-15T14:18:06.000Z</Time>
            <Position>
              <LatitudeDegrees>43.39297659695148468017578125</LatitudeDegrees>
              <LongitudeDegrees>-4.6082206629216670989990234375</LongitudeDegrees>
            </Position>
            <AltitudeMeters>39.40000152587890625</AltitudeMeters>
            <DistanceMeters>NAN</DistanceMeters>
          </Trackpoint>
          <Trackpoint>
            <Time>2022-07-15T14:18:11.000Z</Time>
            <Position>
              <LatitudeDegrees>43.39290509931743144989013671875</LatitudeDegrees>
              <LongitudeDegrees>-4.60842895321547985076904296875</LongitudeDegrees>
            </Position>
            <AltitudeMeters>38.799999237060546875</AltitudeMeters>
            <DistanceMeters>NAN</DistanceMeters>
          </Trackpoint>
          <Trackpoint>
            <Time>2022-07-15T14:18:17.000Z</Time>
            <Position>
              <LatitudeDegrees>43.392835445702075958251953125</LatitudeDegrees>
              <LongitudeDegrees>-4.60869767703115940093994140625</LongitudeDegrees>
            </Position>
            <AltitudeMeters>39</AltitudeMeters>
            <DistanceMeters>NAN</DistanceMeters>
          </Trackpoint>
          <Trackpoint>
            <Time>2022-07-15T14:18:21.000Z</Time>
            <Position>
              <LatitudeDegrees>43.39277945458889007568359375</LatitudeDegrees>
              <LongitudeDegrees>-4.608873613178730010986328125</LongitudeDegrees>
            </Position>
            <AltitudeMeters>39.200000762939453125</AltitudeMeters>
            <DistanceMeters>NAN</DistanceMeters>
          </Trackpoint>
          <Trackpoint>
            <Time>2022-07-15T14:18:23.000Z</Time>
            <Position>
              <LatitudeDegrees>43.39273729361593723297119140625</LatitudeDegrees>
              <LongitudeDegrees>-4.60896790958940982818603515625</LongitudeDegrees>
            </Position>
            <AltitudeMeters>39.200000762939453125</AltitudeMeters>
            <DistanceMeters>NAN</DistanceMeters>
          </Trackpoint>
          <Trackpoint>
            <Time>2022-07-15T14:18:25.000Z</Time>
            <Position>
              <LatitudeDegrees>43.392713069915771484375</LatitudeDegrees>
              <LongitudeDegrees>-4.6090769581496715545654296875</LongitudeDegrees>
            </Position>
            <AltitudeMeters>39.200000762939453125</AltitudeMeters>
            <DistanceMeters>NAN</DistanceMeters>
          </Trackpoint>
          <Trackpoint>
            <Time>2022-07-15T14:18:28.000Z</Time>
            <Position>
              <LatitudeDegrees>43.392679877579212188720703125</LatitudeDegrees>
              <LongitudeDegrees>-4.60925373248755931854248046875</LongitudeDegrees>
            </Position>
            <AltitudeMeters>39.200000762939453125</AltitudeMeters>
            <DistanceMeters>NAN</DistanceMeters>
          </Trackpoint>
          <Trackpoint>
            <Time>2022-07-15T14:18:32.000Z</Time>
            <Position>
              <LatitudeDegrees>43.39263729751110076904296875</LatitudeDegrees>
              <LongitudeDegrees>-4.6094762720167636871337890625</LongitudeDegrees>
            </Position>
            <AltitudeMeters>39</AltitudeMeters>
            <DistanceMeters>NAN</DistanceMeters>
          </Trackpoint>
          <Trackpoint>
            <Time>2022-07-15T14:18:33.000Z</Time>
            <Position>
              <LatitudeDegrees>43.39262648485600948333740234375</LatitudeDegrees>
              <LongitudeDegrees>-4.6095312573015689849853515625</LongitudeDegrees>
            </Position>
            <AltitudeMeters>39</AltitudeMeters>
            <DistanceMeters>NAN</DistanceMeters>
          </Trackpoint>
          <Trackpoint>
            <Time>2022-07-15T14:18:41.000Z</Time>
            <Position>
              <LatitudeDegrees>43.39253679849207401275634765625</LatitudeDegrees>
              <LongitudeDegrees>-4.61000709794461727142333984375</LongitudeDegrees>
            </Position>
            <AltitudeMeters>38.799999237060546875</AltitudeMeters>
            <DistanceMeters>NAN</DistanceMeters>
          </Trackpoint>
          <Trackpoint>
            <Time>2022-07-15T14:18:47.000Z</Time>
            <Position>
              <LatitudeDegrees>43.39249388314783573150634765625</LatitudeDegrees>
              <LongitudeDegrees>-4.61036249063909053802490234375</LongitudeDegrees>
            </Position>
            <AltitudeMeters>38.799999237060546875</AltitudeMeters>
            <DistanceMeters>NAN</DistanceMeters>
          </Trackpoint>
          <Trackpoint>
            <Time>2022-07-15T14:18:52.000Z</Time>
            <Position>
              <LatitudeDegrees>43.39245717041194438934326171875</LatitudeDegrees>
              <LongitudeDegrees>-4.610671363770961761474609375</LongitudeDegrees>
            </Position>
            <AltitudeMeters>38.40000152587890625</AltitudeMeters>
            <DistanceMeters>NAN</DistanceMeters>
          </Trackpoint>
          <Trackpoint>
            <Time>2022-07-15T14:18:59.000Z</Time>
            <Position>
              <LatitudeDegrees>43.39242364279925823211669921875</LatitudeDegrees>
              <LongitudeDegrees>-4.61110889911651611328125</LongitudeDegrees>
            </Position>
            <AltitudeMeters>38.40000152587890625</AltitudeMeters>
            <DistanceMeters>NAN</DistanceMeters>
          </Trackpoint>
          <Trackpoint>
            <Time>2022-07-15T14:19:02.000Z</Time>
            <Position>
              <LatitudeDegrees>43.39241257868707180023193359375</LatitudeDegrees>
              <LongitudeDegrees>-4.61128835566341876983642578125</LongitudeDegrees>
            </Position>
            <AltitudeMeters>38.40000152587890625</AltitudeMeters>
            <DistanceMeters>NAN</DistanceMeters>
          </Trackpoint>
          <Trackpoint>
            <Time>2022-07-15T14:19:05.000Z</Time>
            <Position>
              <LatitudeDegrees>43.39239330030977725982666015625</LatitudeDegrees>
              <LongitudeDegrees>-4.6114554069936275482177734375</LongitudeDegrees>
            </Position>
            <AltitudeMeters>38</AltitudeMeters>
            <DistanceMeters>NAN</DistanceMeters>
          </Trackpoint>
          <Trackpoint>
            <Time>2022-07-15T14:19:10.000Z</Time>
            <Position>
              <LatitudeDegrees>43.39236547239124774932861328125</LatitudeDegrees>
              <LongitudeDegrees>-4.61174131371080875396728515625</LongitudeDegrees>
            </Position>
            <AltitudeMeters>37.799999237060546875</AltitudeMeters>
            <DistanceMeters>NAN</DistanceMeters>
          </Trackpoint>
          <Trackpoint>
            <Time>2022-07-15T14:19:14.000Z</Time>
            <Position>
              <LatitudeDegrees>43.39234493672847747802734375</LatitudeDegrees>
              <LongitudeDegrees>-4.6119827963411808013916015625</LongitudeDegrees>
            </Position>
            <AltitudeMeters>38</AltitudeMeters>
            <DistanceMeters>NAN</DistanceMeters>
          </Trackpoint>
          <Trackpoint>
            <Time>2022-07-15T14:19:18.000Z</Time>
            <Position>
              <LatitudeDegrees>43.392318785190582275390625</LatitudeDegrees>
              <LongitudeDegrees>-4.6122448146343231201171875</LongitudeDegrees>
            </Position>
            <AltitudeMeters>38</AltitudeMeters>
            <DistanceMeters>NAN</DistanceMeters>
          </Trackpoint>
          <Trackpoint>
            <Time>2022-07-15T14:19:20.000Z</Time>
            <Position>
              <LatitudeDegrees>43.392306379973888397216796875</LatitudeDegrees>
              <LongitudeDegrees>-4.61237247101962566375732421875</LongitudeDegrees>
            </Position>
            <AltitudeMeters>38</AltitudeMeters>
            <DistanceMeters>NAN</DistanceMeters>
          </Trackpoint>
          <Trackpoint>
            <Time>2022-07-15T14:19:26.000Z</Time>
            <Position>
              <LatitudeDegrees>43.3922740258276462554931640625</LatitudeDegrees>
              <LongitudeDegrees>-4.61273289285600185394287109375</LongitudeDegrees>
            </Position>
            <AltitudeMeters>37.799999237060546875</AltitudeMeters>
            <DistanceMeters>NAN</DistanceMeters>
          </Trackpoint>
          <Trackpoint>
            <Time>2022-07-15T14:19:28.000Z</Time>
            <Position>
              <LatitudeDegrees>43.39226287789642810821533203125</LatitudeDegrees>
              <LongitudeDegrees>-4.61286616511642932891845703125</LongitudeDegrees>
            </Position>
            <AltitudeMeters>37.59999847412109375</AltitudeMeters>
            <DistanceMeters>NAN</DistanceMeters>
          </Trackpoint>
          <Trackpoint>
            <Time>2022-07-15T14:19:32.000Z</Time>
            <Position>
              <LatitudeDegrees>43.3922398276627063751220703125</LatitudeDegrees>
              <LongitudeDegrees>-4.613090045750141143798828125</LongitudeDegrees>
            </Position>
            <AltitudeMeters>37.799999237060546875</AltitudeMeters>
            <DistanceMeters>NAN</DistanceMeters>
          </Trackpoint>
          <Trackpoint>
            <Time>2022-07-15T14:19:38.000Z</Time>
            <Position>
              <LatitudeDegrees>43.39220319874584674835205078125</LatitudeDegrees>
              <LongitudeDegrees>-4.61333437822759151458740234375</LongitudeDegrees>
            </Position>
            <AltitudeMeters>38.200000762939453125</AltitudeMeters>
            <DistanceMeters>NAN</DistanceMeters>
          </Trackpoint>
          <Trackpoint>
            <Time>2022-07-15T14:19:46.000Z</Time>
            <Position>
              <LatitudeDegrees>43.392174951732158660888671875</LatitudeDegrees>
              <LongitudeDegrees>-4.61360963992774486541748046875</LongitudeDegrees>
            </Position>
            <AltitudeMeters>38.799999237060546875</AltitudeMeters>
            <DistanceMeters>NAN</DistanceMeters>
          </Trackpoint>
          <Trackpoint>
            <Time>2022-07-15T14:19:48.000Z</Time>
            <Position>
              <LatitudeDegrees>43.39216380380094051361083984375</LatitudeDegrees>
              <LongitudeDegrees>-4.6136717498302459716796875</LongitudeDegrees>
            </Position>
            <AltitudeMeters>39</AltitudeMeters>
            <DistanceMeters>NAN</DistanceMeters>
          </Trackpoint>
          <Trackpoint>
            <Time>2022-07-15T14:19:50.000Z</Time>
            <Position>
              <LatitudeDegrees>43.39215475134551525115966796875</LatitudeDegrees>
              <LongitudeDegrees>-4.61371994577348232269287109375</LongitudeDegrees>
            </Position>
            <AltitudeMeters>39.200000762939453125</AltitudeMeters>
            <DistanceMeters>NAN</DistanceMeters>
          </Trackpoint>
          <Trackpoint>
            <Time>2022-07-15T14:19:53.000Z</Time>
            <Position>
              <LatitudeDegrees>43.392136394977569580078125</LatitudeDegrees>
              <LongitudeDegrees>-4.6137869171798229217529296875</LongitudeDegrees>
            </Position>
            <AltitudeMeters>39.799999237060546875</AltitudeMeters>
            <DistanceMeters>NAN</DistanceMeters>
          </Trackpoint>
          <Trackpoint>
            <Time>2022-07-15T14:19:54.000Z</Time>
            <Position>
              <LatitudeDegrees>43.39213111437857151031494140625</LatitudeDegrees>
              <LongitudeDegrees>-4.61381591856479644775390625</LongitudeDegrees>
            </Position>
            <AltitudeMeters>40</AltitudeMeters>
            <DistanceMeters>NAN</DistanceMeters>
          </Trackpoint>
          <Trackpoint>
            <Time>2022-07-15T14:19:56.000Z</Time>
            <Position>
              <LatitudeDegrees>43.392133377492427825927734375</LatitudeDegrees>
              <LongitudeDegrees>-4.613871239125728607177734375</LongitudeDegrees>
            </Position>
            <AltitudeMeters>40.200000762939453125</AltitudeMeters>
            <DistanceMeters>NAN</DistanceMeters>
          </Trackpoint>
          <Trackpoint>
            <Time>2022-07-15T14:20:00.000Z</Time>
            <Position>
              <LatitudeDegrees>43.39212826453149318695068359375</LatitudeDegrees>
              <LongitudeDegrees>-4.61397693492472171783447265625</LongitudeDegrees>
            </Position>
            <AltitudeMeters>40.59999847412109375</AltitudeMeters>
            <DistanceMeters>NAN</DistanceMeters>
          </Trackpoint>
          <Trackpoint>
            <Time>2022-07-15T14:20:04.000Z</Time>
            <Position>
              <LatitudeDegrees>43.39211937971413135528564453125</LatitudeDegrees>
              <LongitudeDegrees>-4.61409260518848896026611328125</LongitudeDegrees>
            </Position>
            <AltitudeMeters>41</AltitudeMeters>
            <DistanceMeters>NAN</DistanceMeters>
          </Trackpoint>
          <Trackpoint>
            <Time>2022-07-15T14:20:06.000Z</Time>
            <Position>
              <LatitudeDegrees>43.3921216428279876708984375</LatitudeDegrees>
              <LongitudeDegrees>-4.614144153892993927001953125</LongitudeDegrees>
            </Position>
            <AltitudeMeters>41.200000762939453125</AltitudeMeters>
            <DistanceMeters>NAN</DistanceMeters>
          </Trackpoint>
          <Trackpoint>
            <Time>2022-07-15T14:20:09.000Z</Time>
            <Position>
              <LatitudeDegrees>43.3921244926750659942626953125</LatitudeDegrees>
              <LongitudeDegrees>-4.6142254583537578582763671875</LongitudeDegrees>
            </Position>
            <AltitudeMeters>41.40000152587890625</AltitudeMeters>
            <DistanceMeters>NAN</DistanceMeters>
          </Trackpoint>
          <Trackpoint>
            <Time>2022-07-15T14:20:13.000Z</Time>
            <Position>
              <LatitudeDegrees>43.392162881791591644287109375</LatitudeDegrees>
              <LongitudeDegrees>-4.61432344280183315277099609375</LongitudeDegrees>
            </Position>
            <AltitudeMeters>41.59999847412109375</AltitudeMeters>
            <DistanceMeters>NAN</DistanceMeters>
          </Trackpoint>
          <Trackpoint>
            <Time>2022-07-15T14:20:17.000Z</Time>
            <Position>
              <LatitudeDegrees>43.3922073058784008026123046875</LatitudeDegrees>
              <LongitudeDegrees>-4.614405333995819091796875</LongitudeDegrees>
            </Position>
            <AltitudeMeters>41.799999237060546875</AltitudeMeters>
            <DistanceMeters>NAN</DistanceMeters>
          </Trackpoint>
          <Trackpoint>
            <Time>2022-07-15T14:20:19.000Z</Time>
            <Position>
              <LatitudeDegrees>43.39221091009676456451416015625</LatitudeDegrees>
              <LongitudeDegrees>-4.6144093573093414306640625</LongitudeDegrees>
            </Position>
            <AltitudeMeters>41.59999847412109375</AltitudeMeters>
            <DistanceMeters>NAN</DistanceMeters>
          </Trackpoint>
          <Trackpoint>
            <Time>2022-07-15T14:21:00.000Z</Time>
            <Position>
              <LatitudeDegrees>43.39223228394985198974609375</LatitudeDegrees>
              <LongitudeDegrees>-4.6144249476492404937744140625</LongitudeDegrees>
            </Position>
            <AltitudeMeters>41.799999237060546875</AltitudeMeters>
            <DistanceMeters>NAN</DistanceMeters>
          </Trackpoint>
          <Trackpoint>
            <Time>2022-07-15T14:21:01.000Z</Time>
            <Position>
              <LatitudeDegrees>43.3922515623271465301513671875</LatitudeDegrees>
              <LongitudeDegrees>-4.61444213055074214935302734375</LongitudeDegrees>
            </Position>
            <AltitudeMeters>41.799999237060546875</AltitudeMeters>
            <DistanceMeters>NAN</DistanceMeters>
          </Trackpoint>
          <Trackpoint>
            <Time>2022-07-15T14:21:05.000Z</Time>
            <Position>
              <LatitudeDegrees>43.39231945574283599853515625</LatitudeDegrees>
              <LongitudeDegrees>-4.614539444446563720703125</LongitudeDegrees>
            </Position>
            <AltitudeMeters>42.40000152587890625</AltitudeMeters>
            <DistanceMeters>NAN</DistanceMeters>
          </Trackpoint>
          <Trackpoint>
            <Time>2022-07-15T14:21:07.000Z</Time>
            <Position>
              <LatitudeDegrees>43.39235340245068073272705078125</LatitudeDegrees>
              <LongitudeDegrees>-4.6145868860185146331787109375</LongitudeDegrees>
            </Position>
            <AltitudeMeters>42.59999847412109375</AltitudeMeters>
            <DistanceMeters>NAN</DistanceMeters>
          </Trackpoint>
          <Trackpoint>
            <Time>2022-07-15T14:21:11.000Z</Time>
            <Position>
              <LatitudeDegrees>43.39240771718323230743408203125</LatitudeDegrees>
              <LongitudeDegrees>-4.61467062123119831085205078125</LongitudeDegrees>
            </Position>
            <AltitudeMeters>43.200000762939453125</AltitudeMeters>
            <DistanceMeters>NAN</DistanceMeters>
          </Trackpoint>
          <Trackpoint>
            <Time>2022-07-15T14:21:12.000Z</Time>
            <Position>
              <LatitudeDegrees>43.39242003858089447021484375</LatitudeDegrees>
              <LongitudeDegrees>-4.61467288434505462646484375</LongitudeDegrees>
            </Position>
            <AltitudeMeters>43.40000152587890625</AltitudeMeters>
            <DistanceMeters>NAN</DistanceMeters>
          </Trackpoint>
          <Trackpoint>
            <Time>2022-07-15T14:21:13.000Z</Time>
            <Position>
              <LatitudeDegrees>43.39243479073047637939453125</LatitudeDegrees>
              <LongitudeDegrees>-4.61468302644789218902587890625</LongitudeDegrees>
            </Position>
            <AltitudeMeters>43.40000152587890625</AltitudeMeters>
            <DistanceMeters>NAN</DistanceMeters>
          </Trackpoint>
          <Trackpoint>
            <Time>2022-07-15T14:21:16.000Z</Time>
            <Position>
              <LatitudeDegrees>43.39250293560326099395751953125</LatitudeDegrees>
              <LongitudeDegrees>-4.614736251533031463623046875</LongitudeDegrees>
            </Position>
            <AltitudeMeters>44</AltitudeMeters>
            <DistanceMeters>NAN</DistanceMeters>
          </Trackpoint>
          <Trackpoint>
            <Time>2022-07-15T14:21:19.000Z</Time>
            <Position>
              <LatitudeDegrees>43.39256429113447666168212890625</LatitudeDegrees>
              <LongitudeDegrees>-4.6147649176418781280517578125</LongitudeDegrees>
            </Position>
            <AltitudeMeters>44.40000152587890625</AltitudeMeters>
            <DistanceMeters>NAN</DistanceMeters>
          </Trackpoint>
          <Trackpoint>
            <Time>2022-07-15T14:21:23.000Z</Time>
            <Position>
              <LatitudeDegrees>43.39265146292746067047119140625</LatitudeDegrees>
              <LongitudeDegrees>-4.614803977310657501220703125</LongitudeDegrees>
            </Position>
            <AltitudeMeters>44.40000152587890625</AltitudeMeters>
            <DistanceMeters>NAN</DistanceMeters>
          </Trackpoint>
          <Trackpoint>
            <Time>2022-07-15T14:21:24.000Z</Time>
            <Position>
              <LatitudeDegrees>43.39267359115183353424072265625</LatitudeDegrees>
              <LongitudeDegrees>-4.61481143720448017120361328125</LongitudeDegrees>
            </Position>
            <AltitudeMeters>44.59999847412109375</AltitudeMeters>
            <DistanceMeters>NAN</DistanceMeters>
          </Trackpoint>
          <Trackpoint>
            <Time>2022-07-15T14:21:26.000Z</Time>
            <Position>
              <LatitudeDegrees>43.39272036217153072357177734375</LatitudeDegrees>
              <LongitudeDegrees>-4.61480389349162578582763671875</LongitudeDegrees>
            </Position>
            <AltitudeMeters>44.59999847412109375</AltitudeMeters>
            <DistanceMeters>NAN</DistanceMeters>
          </Trackpoint>
          <Trackpoint>
            <Time>2022-07-15T14:21:28.000Z</Time>
            <Position>
              <LatitudeDegrees>43.39276998303830623626708984375</LatitudeDegrees>
              <LongitudeDegrees>-4.61475469172000885009765625</LongitudeDegrees>
            </Position>
            <AltitudeMeters>44.59999847412109375</AltitudeMeters>
            <DistanceMeters>NAN</DistanceMeters>
          </Trackpoint>
          <Trackpoint>
            <Time>2022-07-15T14:21:29.000Z</Time>
            <Position>
              <LatitudeDegrees>43.3927806280553340911865234375</LatitudeDegrees>
              <LongitudeDegrees>-4.61472610943019390106201171875</LongitudeDegrees>
            </Position>
            <AltitudeMeters>44.59999847412109375</AltitudeMeters>
            <DistanceMeters>NAN</DistanceMeters>
          </Trackpoint>
          <Trackpoint>
            <Time>2022-07-15T14:21:35.000Z</Time>
            <Position>
              <LatitudeDegrees>43.3928138203918933868408203125</LatitudeDegrees>
              <LongitudeDegrees>-4.61456635035574436187744140625</LongitudeDegrees>
            </Position>
            <AltitudeMeters>44.200000762939453125</AltitudeMeters>
            <DistanceMeters>NAN</DistanceMeters>
          </Trackpoint>
          <Trackpoint>
            <Time>2022-07-15T14:21:38.000Z</Time>
            <Position>
              <LatitudeDegrees>43.3927973918616771697998046875</LatitudeDegrees>
              <LongitudeDegrees>-4.614561907947063446044921875</LongitudeDegrees>
            </Position>
            <AltitudeMeters>44.200000762939453125</AltitudeMeters>
            <DistanceMeters>NAN</DistanceMeters>
          </Trackpoint>
          <Trackpoint>
            <Time>2022-07-15T14:45:47.000Z</Time>
            <Position>
              <LatitudeDegrees>43.392779789865016937255859375</LatitudeDegrees>
              <LongitudeDegrees>-4.6145664341747760772705078125</LongitudeDegrees>
            </Position>
            <AltitudeMeters>56.799999237060546875</AltitudeMeters>
            <DistanceMeters>NAN</DistanceMeters>
          </Trackpoint>
          <Trackpoint>
            <Time>2022-07-15T14:45:48.000Z</Time>
            <Position>
              <LatitudeDegrees>43.392779789865016937255859375</LatitudeDegrees>
              <LongitudeDegrees>-4.6145664341747760772705078125</LongitudeDegrees>
            </Position>
            <AltitudeMeters>56.799999237060546875</AltitudeMeters>
            <DistanceMeters>NAN</DistanceMeters>
          </Trackpoint>
          <Trackpoint>
            <Time>2022-07-15T14:45:50.000Z</Time>
            <Position>
              <LatitudeDegrees>43.39277819730341434478759765625</LatitudeDegrees>
              <LongitudeDegrees>-4.61456961929798126220703125</LongitudeDegrees>
            </Position>
            <AltitudeMeters>56.799999237060546875</AltitudeMeters>
            <DistanceMeters>NAN</DistanceMeters>
          </Trackpoint>
          <Trackpoint>
            <Time>2022-07-15T14:45:51.000Z</Time>
            <Position>
              <LatitudeDegrees>43.39277819730341434478759765625</LatitudeDegrees>
              <LongitudeDegrees>-4.61456961929798126220703125</LongitudeDegrees>
            </Position>
            <AltitudeMeters>56.799999237060546875</AltitudeMeters>
            <DistanceMeters>NAN</DistanceMeters>
          </Trackpoint>
          <Trackpoint>
            <Time>2022-07-15T14:46:23.000Z</Time>
            <Position>
              <LatitudeDegrees>43.3927655406296253204345703125</LatitudeDegrees>
              <LongitudeDegrees>-4.614640362560749053955078125</LongitudeDegrees>
            </Position>
            <AltitudeMeters>55.799999237060546875</AltitudeMeters>
            <DistanceMeters>NAN</DistanceMeters>
          </Trackpoint>
          <Trackpoint>
            <Time>2022-07-15T14:46:26.000Z</Time>
            <Position>
              <LatitudeDegrees>43.392746262252330780029296875</LatitudeDegrees>
              <LongitudeDegrees>-4.614708423614501953125</LongitudeDegrees>
            </Position>
            <AltitudeMeters>55.59999847412109375</AltitudeMeters>
            <DistanceMeters>NAN</DistanceMeters>
          </Trackpoint>
          <Trackpoint>
            <Time>2022-07-15T14:46:27.000Z</Time>
            <Position>
              <LatitudeDegrees>43.3927439153194427490234375</LatitudeDegrees>
              <LongitudeDegrees>-4.6147287078201770782470703125</LongitudeDegrees>
            </Position>
            <AltitudeMeters>55.40000152587890625</AltitudeMeters>
            <DistanceMeters>NAN</DistanceMeters>
          </Trackpoint>
          <Trackpoint>
            <Time>2022-07-15T14:46:32.000Z</Time>
            <Position>
              <LatitudeDegrees>43.39273964054882526397705078125</LatitudeDegrees>
              <LongitudeDegrees>-4.61483976803719997406005859375</LongitudeDegrees>
            </Position>
            <AltitudeMeters>55.200000762939453125</AltitudeMeters>
            <DistanceMeters>NAN</DistanceMeters>
          </Trackpoint>
          <Trackpoint>
            <Time>2022-07-15T14:46:38.000Z</Time>
            <Position>
              <LatitudeDegrees>43.39271298609673976898193359375</LatitudeDegrees>
              <LongitudeDegrees>-4.615025930106639862060546875</LongitudeDegrees>
            </Position>
            <AltitudeMeters>55.40000152587890625</AltitudeMeters>
            <DistanceMeters>NAN</DistanceMeters>
          </Trackpoint>
          <Trackpoint>
            <Time>2022-07-15T14:46:40.000Z</Time>
            <Position>
              <LatitudeDegrees>43.39271030388772487640380859375</LatitudeDegrees>
              <LongitudeDegrees>-4.61509156040847301483154296875</LongitudeDegrees>
            </Position>
            <AltitudeMeters>55.40000152587890625</AltitudeMeters>
            <DistanceMeters>NAN</DistanceMeters>
          </Trackpoint>
          <Trackpoint>
            <Time>2022-07-15T14:46:43.000Z</Time>
            <Position>
              <LatitudeDegrees>43.392712064087390899658203125</LatitudeDegrees>
              <LongitudeDegrees>-4.6151927299797534942626953125</LongitudeDegrees>
            </Position>
            <AltitudeMeters>55.40000152587890625</AltitudeMeters>
            <DistanceMeters>NAN</DistanceMeters>
          </Trackpoint>
          <Trackpoint>
            <Time>2022-07-15T14:46:45.000Z</Time>
            <Position>
              <LatitudeDegrees>43.39271843433380126953125</LatitudeDegrees>
              <LongitudeDegrees>-4.61525618098676204681396484375</LongitudeDegrees>
            </Position>
            <AltitudeMeters>55.59999847412109375</AltitudeMeters>
            <DistanceMeters>NAN</DistanceMeters>
          </Trackpoint>
          <Trackpoint>
            <Time>2022-07-15T14:46:46.000Z</Time>
            <Position>
              <LatitudeDegrees>43.39272153563797473907470703125</LatitudeDegrees>
              <LongitudeDegrees>-4.61528576910495758056640625</LongitudeDegrees>
            </Position>
            <AltitudeMeters>55.799999237060546875</AltitudeMeters>
            <DistanceMeters>NAN</DistanceMeters>
          </Trackpoint>
          <Trackpoint>
            <Time>2022-07-15T14:46:48.000Z</Time>
            <Position>
              <LatitudeDegrees>43.39272170327603816986083984375</LatitudeDegrees>
              <LongitudeDegrees>-4.61534083820879459381103515625</LongitudeDegrees>
            </Position>
            <AltitudeMeters>55.799999237060546875</AltitudeMeters>
            <DistanceMeters>NAN</DistanceMeters>
          </Trackpoint>
          <Trackpoint>
            <Time>2022-07-15T14:46:51.000Z</Time>
            <Position>
              <LatitudeDegrees>43.39273427613079547882080078125</LatitudeDegrees>
              <LongitudeDegrees>-4.61541895754635334014892578125</LongitudeDegrees>
            </Position>
            <AltitudeMeters>55.799999237060546875</AltitudeMeters>
            <DistanceMeters>NAN</DistanceMeters>
          </Trackpoint>
          <Trackpoint>
            <Time>2022-07-15T14:46:58.000Z</Time>
            <Position>
              <LatitudeDegrees>43.39274324476718902587890625</LatitudeDegrees>
              <LongitudeDegrees>-4.61560620926320552825927734375</LongitudeDegrees>
            </Position>
            <AltitudeMeters>56</AltitudeMeters>
            <DistanceMeters>NAN</DistanceMeters>
          </Trackpoint>
          <Trackpoint>
            <Time>2022-07-15T14:47:03.000Z</Time>
            <Position>
              <LatitudeDegrees>43.39270971715450286865234375</LatitudeDegrees>
              <LongitudeDegrees>-4.61573579348623752593994140625</LongitudeDegrees>
            </Position>
            <AltitudeMeters>56.200000762939453125</AltitudeMeters>
            <DistanceMeters>NAN</DistanceMeters>
          </Trackpoint>
          <Trackpoint>
            <Time>2022-07-15T14:47:12.000Z</Time>
            <Position>
              <LatitudeDegrees>43.3925883471965789794921875</LatitudeDegrees>
              <LongitudeDegrees>-4.6160114742815494537353515625</LongitudeDegrees>
            </Position>
            <AltitudeMeters>55.59999847412109375</AltitudeMeters>
            <DistanceMeters>NAN</DistanceMeters>
          </Trackpoint>
          <Trackpoint>
            <Time>2022-07-15T14:47:17.000Z</Time>
            <Position>
              <LatitudeDegrees>43.39242674410343170166015625</LatitudeDegrees>
              <LongitudeDegrees>-4.6160154975950717926025390625</LongitudeDegrees>
            </Position>
            <AltitudeMeters>55.40000152587890625</AltitudeMeters>
            <DistanceMeters>NAN</DistanceMeters>
          </Trackpoint>
          <Trackpoint>
            <Time>2022-07-15T14:47:22.000Z</Time>
            <Position>
              <LatitudeDegrees>43.39228936471045017242431640625</LatitudeDegrees>
              <LongitudeDegrees>-4.61601088754832744598388671875</LongitudeDegrees>
            </Position>
            <AltitudeMeters>55.40000152587890625</AltitudeMeters>
            <DistanceMeters>NAN</DistanceMeters>
          </Trackpoint>
          <Trackpoint>
            <Time>2022-07-15T14:47:23.000Z</Time>
            <Position>
              <LatitudeDegrees>43.39227260090410709381103515625</LatitudeDegrees>
              <LongitudeDegrees>-4.61604324169456958770751953125</LongitudeDegrees>
            </Position>
            <AltitudeMeters>55.40000152587890625</AltitudeMeters>
            <DistanceMeters>NAN</DistanceMeters>
          </Trackpoint>
          <Trackpoint>
            <Time>2022-07-15T14:47:29.000Z</Time>
            <Position>
              <LatitudeDegrees>43.39224527589976787567138671875</LatitudeDegrees>
              <LongitudeDegrees>-4.61629293859004974365234375</LongitudeDegrees>
            </Position>
            <AltitudeMeters>55.200000762939453125</AltitudeMeters>
            <DistanceMeters>NAN</DistanceMeters>
          </Trackpoint>
          <Trackpoint>
            <Time>2022-07-15T14:47:37.000Z</Time>
            <Position>
              <LatitudeDegrees>43.39219632558524608612060546875</LatitudeDegrees>
              <LongitudeDegrees>-4.61665906012058258056640625</LongitudeDegrees>
            </Position>
            <AltitudeMeters>54.799999237060546875</AltitudeMeters>
            <DistanceMeters>NAN</DistanceMeters>
          </Trackpoint>
          <Trackpoint>
            <Time>2022-07-15T14:47:39.000Z</Time>
            <Position>
              <LatitudeDegrees>43.392176963388919830322265625</LatitudeDegrees>
              <LongitudeDegrees>-4.61675318889319896697998046875</LongitudeDegrees>
            </Position>
            <AltitudeMeters>54.799999237060546875</AltitudeMeters>
            <DistanceMeters>NAN</DistanceMeters>
          </Trackpoint>
          <Trackpoint>
            <Time>2022-07-15T14:47:40.000Z</Time>
            <Position>
              <LatitudeDegrees>43.39216883294284343719482421875</LatitudeDegrees>
              <LongitudeDegrees>-4.61679979227483272552490234375</LongitudeDegrees>
            </Position>
            <AltitudeMeters>54.799999237060546875</AltitudeMeters>
            <DistanceMeters>NAN</DistanceMeters>
          </Trackpoint>
          <Trackpoint>
            <Time>2022-07-15T14:47:44.000Z</Time>
            <Position>
              <LatitudeDegrees>43.39213530533015727996826171875</LatitudeDegrees>
              <LongitudeDegrees>-4.61698553524911403656005859375</LongitudeDegrees>
            </Position>
            <AltitudeMeters>54.799999237060546875</AltitudeMeters>
            <DistanceMeters>NAN</DistanceMeters>
          </Trackpoint>
          <Trackpoint>
            <Time>2022-07-15T14:47:45.000Z</Time>
            <Position>
              <LatitudeDegrees>43.392125666141510009765625</LatitudeDegrees>
              <LongitudeDegrees>-4.6170310489833354949951171875</LongitudeDegrees>
            </Position>
            <AltitudeMeters>54.799999237060546875</AltitudeMeters>
            <DistanceMeters>NAN</DistanceMeters>
          </Trackpoint>
          <Trackpoint>
            <Time>2022-07-15T14:47:53.000Z</Time>
            <Position>
              <LatitudeDegrees>43.39208333753049373626708984375</LatitudeDegrees>
              <LongitudeDegrees>-4.61742122657597064971923828125</LongitudeDegrees>
            </Position>
            <AltitudeMeters>54.200000762939453125</AltitudeMeters>
            <DistanceMeters>NAN</DistanceMeters>
          </Trackpoint>
          <Trackpoint>
            <Time>2022-07-15T14:48:00.000Z</Time>
            <Position>
              <LatitudeDegrees>43.392081744968891143798828125</LatitudeDegrees>
              <LongitudeDegrees>-4.617755413055419921875</LongitudeDegrees>
            </Position>
            <AltitudeMeters>54</AltitudeMeters>
            <DistanceMeters>NAN</DistanceMeters>
          </Trackpoint>
          <Trackpoint>
            <Time>2022-07-15T14:48:02.000Z</Time>
            <Position>
              <LatitudeDegrees>43.39208149351179599761962890625</LatitudeDegrees>
              <LongitudeDegrees>-4.61784702725708484649658203125</LongitudeDegrees>
            </Position>
            <AltitudeMeters>54</AltitudeMeters>
            <DistanceMeters>NAN</DistanceMeters>
          </Trackpoint>
          <Trackpoint>
            <Time>2022-07-15T14:48:09.000Z</Time>
            <Position>
              <LatitudeDegrees>43.392093814909458160400390625</LatitudeDegrees>
              <LongitudeDegrees>-4.61815631948411464691162109375</LongitudeDegrees>
            </Position>
            <AltitudeMeters>54</AltitudeMeters>
            <DistanceMeters>NAN</DistanceMeters>
          </Trackpoint>
          <Trackpoint>
            <Time>2022-07-15T14:48:16.000Z</Time>
            <Position>
              <LatitudeDegrees>43.39212407357990741729736328125</LatitudeDegrees>
              <LongitudeDegrees>-4.6184194274246692657470703125</LongitudeDegrees>
            </Position>
            <AltitudeMeters>54.200000762939453125</AltitudeMeters>
            <DistanceMeters>NAN</DistanceMeters>
          </Trackpoint>
          <Trackpoint>
            <Time>2022-07-15T14:48:17.000Z</Time>
            <Position>
              <LatitudeDegrees>43.392128013074398040771484375</LatitudeDegrees>
              <LongitudeDegrees>-4.6184589900076389312744140625</LongitudeDegrees>
            </Position>
            <AltitudeMeters>54.200000762939453125</AltitudeMeters>
            <DistanceMeters>NAN</DistanceMeters>
          </Trackpoint>
          <Trackpoint>
            <Time>2022-07-15T14:48:21.000Z</Time>
            <Position>
              <LatitudeDegrees>43.39213907718658447265625</LatitudeDegrees>
              <LongitudeDegrees>-4.61862511932849884033203125</LongitudeDegrees>
            </Position>
            <AltitudeMeters>54.40000152587890625</AltitudeMeters>
            <DistanceMeters>NAN</DistanceMeters>
          </Trackpoint>
          <Trackpoint>
            <Time>2022-07-15T14:48:24.000Z</Time>
            <Position>
              <LatitudeDegrees>43.39213664643466472625732421875</LatitudeDegrees>
              <LongitudeDegrees>-4.618742801249027252197265625</LongitudeDegrees>
            </Position>
            <AltitudeMeters>54.40000152587890625</AltitudeMeters>
            <DistanceMeters>NAN</DistanceMeters>
          </Trackpoint>
          <Trackpoint>
            <Time>2022-07-15T14:48:32.000Z</Time>
            <Position>
              <LatitudeDegrees>43.39214251376688480377197265625</LatitudeDegrees>
              <LongitudeDegrees>-4.6190494112670421600341796875</LongitudeDegrees>
            </Position>
            <AltitudeMeters>54.59999847412109375</AltitudeMeters>
            <DistanceMeters>NAN</DistanceMeters>
          </Trackpoint>
          <Trackpoint>
            <Time>2022-07-15T14:48:37.000Z</Time>
            <Position>
              <LatitudeDegrees>43.39215458370745182037353515625</LatitudeDegrees>
              <LongitudeDegrees>-4.6192646585404872894287109375</LongitudeDegrees>
            </Position>
            <AltitudeMeters>54.59999847412109375</AltitudeMeters>
            <DistanceMeters>NAN</DistanceMeters>
          </Trackpoint>
          <Trackpoint>
            <Time>2022-07-15T14:48:42.000Z</Time>
            <Position>
              <LatitudeDegrees>43.39217252098023891448974609375</LatitudeDegrees>
              <LongitudeDegrees>-4.619485437870025634765625</LongitudeDegrees>
            </Position>
            <AltitudeMeters>54.40000152587890625</AltitudeMeters>
            <DistanceMeters>NAN</DistanceMeters>
          </Trackpoint>
          <Trackpoint>
            <Time>2022-07-15T14:48:47.000Z</Time>
            <Position>
              <LatitudeDegrees>43.3921620436012744903564453125</LatitudeDegrees>
              <LongitudeDegrees>-4.6197254955768585205078125</LongitudeDegrees>
            </Position>
            <AltitudeMeters>53.799999237060546875</AltitudeMeters>
            <DistanceMeters>NAN</DistanceMeters>
          </Trackpoint>
          <Trackpoint>
            <Time>2022-07-15T14:48:49.000Z</Time>
            <Position>
              <LatitudeDegrees>43.3921630494296550750732421875</LatitudeDegrees>
              <LongitudeDegrees>-4.6198151819407939910888671875</LongitudeDegrees>
            </Position>
            <AltitudeMeters>53.799999237060546875</AltitudeMeters>
            <DistanceMeters>NAN</DistanceMeters>
          </Trackpoint>
          <Trackpoint>
            <Time>2022-07-15T14:48:57.000Z</Time>
            <Position>
              <LatitudeDegrees>43.3921580202877521514892578125</LatitudeDegrees>
              <LongitudeDegrees>-4.62022011168301105499267578125</LongitudeDegrees>
            </Position>
            <AltitudeMeters>54</AltitudeMeters>
            <DistanceMeters>NAN</DistanceMeters>
          </Trackpoint>
          <Trackpoint>
            <Time>2022-07-15T14:48:59.000Z</Time>
            <Position>
              <LatitudeDegrees>43.392160870134830474853515625</LatitudeDegrees>
              <LongitudeDegrees>-4.62033377029001712799072265625</LongitudeDegrees>
            </Position>
            <AltitudeMeters>54</AltitudeMeters>
            <DistanceMeters>NAN</DistanceMeters>
          </Trackpoint>
          <Trackpoint>
            <Time>2022-07-15T14:49:01.000Z</Time>
            <Position>
              <LatitudeDegrees>43.3921633847057819366455078125</LatitudeDegrees>
              <LongitudeDegrees>-4.62044742889702320098876953125</LongitudeDegrees>
            </Position>
            <AltitudeMeters>54</AltitudeMeters>
            <DistanceMeters>NAN</DistanceMeters>
          </Trackpoint>
          <Trackpoint>
            <Time>2022-07-15T14:49:03.000Z</Time>
            <Position>
              <LatitudeDegrees>43.3921576850116252899169921875</LatitudeDegrees>
              <LongitudeDegrees>-4.62056343443691730499267578125</LongitudeDegrees>
            </Position>
            <AltitudeMeters>54</AltitudeMeters>
            <DistanceMeters>NAN</DistanceMeters>
          </Trackpoint>
          <Trackpoint>
            <Time>2022-07-15T14:49:13.000Z</Time>
            <Position>
              <LatitudeDegrees>43.39214703999459743499755859375</LatitudeDegrees>
              <LongitudeDegrees>-4.6211472339928150177001953125</LongitudeDegrees>
            </Position>
            <AltitudeMeters>54.200000762939453125</AltitudeMeters>
            <DistanceMeters>NAN</DistanceMeters>
          </Trackpoint>
          <Trackpoint>
            <Time>2022-07-15T14:49:20.000Z</Time>
            <Position>
              <LatitudeDegrees>43.39214871637523174285888671875</LatitudeDegrees>
              <LongitudeDegrees>-4.62156540714204311370849609375</LongitudeDegrees>
            </Position>
            <AltitudeMeters>54</AltitudeMeters>
            <DistanceMeters>NAN</DistanceMeters>
          </Trackpoint>
          <Trackpoint>
            <Time>2022-07-15T14:49:22.000Z</Time>
            <Position>
              <LatitudeDegrees>43.39215181767940521240234375</LatitudeDegrees>
              <LongitudeDegrees>-4.62169448845088481903076171875</LongitudeDegrees>
            </Position>
            <AltitudeMeters>53.799999237060546875</AltitudeMeters>
            <DistanceMeters>NAN</DistanceMeters>
          </Trackpoint>
          <Trackpoint>
            <Time>2022-07-15T14:49:23.000Z</Time>
            <Position>
              <LatitudeDegrees>43.39215173386037349700927734375</LatitudeDegrees>
              <LongitudeDegrees>-4.6217584423720836639404296875</LongitudeDegrees>
            </Position>
            <AltitudeMeters>53.59999847412109375</AltitudeMeters>
            <DistanceMeters>NAN</DistanceMeters>
          </Trackpoint>
          <Trackpoint>
            <Time>2022-07-15T14:49:27.000Z</Time>
            <Position>
              <LatitudeDegrees>43.39215592481195926666259765625</LatitudeDegrees>
              <LongitudeDegrees>-4.6220182813704013824462890625</LongitudeDegrees>
            </Position>
            <AltitudeMeters>53.40000152587890625</AltitudeMeters>
            <DistanceMeters>NAN</DistanceMeters>
          </Trackpoint>
          <Trackpoint>
            <Time>2022-07-15T14:49:29.000Z</Time>
            <Position>
              <LatitudeDegrees>43.3921596966683864593505859375</LatitudeDegrees>
              <LongitudeDegrees>-4.62214685976505279541015625</LongitudeDegrees>
            </Position>
            <AltitudeMeters>53.40000152587890625</AltitudeMeters>
            <DistanceMeters>NAN</DistanceMeters>
          </Trackpoint>
          <Trackpoint>
            <Time>2022-07-15T14:49:34.000Z</Time>
            <Position>
              <LatitudeDegrees>43.3921415917575359344482421875</LatitudeDegrees>
              <LongitudeDegrees>-4.62249546311795711517333984375</LongitudeDegrees>
            </Position>
            <AltitudeMeters>53.200000762939453125</AltitudeMeters>
            <DistanceMeters>NAN</DistanceMeters>
          </Trackpoint>
          <Trackpoint>
            <Time>2022-07-15T14:49:38.000Z</Time>
            <Position>
              <LatitudeDegrees>43.3921449445188045501708984375</LatitudeDegrees>
              <LongitudeDegrees>-4.6227525360882282257080078125</LongitudeDegrees>
            </Position>
            <AltitudeMeters>53.40000152587890625</AltitudeMeters>
            <DistanceMeters>NAN</DistanceMeters>
          </Trackpoint>
          <Trackpoint>
            <Time>2022-07-15T14:49:43.000Z</Time>
            <Position>
              <LatitudeDegrees>43.392138071358203887939453125</LatitudeDegrees>
              <LongitudeDegrees>-4.62305855937302112579345703125</LongitudeDegrees>
            </Position>
            <AltitudeMeters>53.59999847412109375</AltitudeMeters>
            <DistanceMeters>NAN</DistanceMeters>
          </Trackpoint>
          <Trackpoint>
            <Time>2022-07-15T14:49:47.000Z</Time>
            <Position>
              <LatitudeDegrees>43.392138741910457611083984375</LatitudeDegrees>
              <LongitudeDegrees>-4.62321102619171142578125</LongitudeDegrees>
            </Position>
            <AltitudeMeters>53.59999847412109375</AltitudeMeters>
            <DistanceMeters>NAN</DistanceMeters>
          </Trackpoint>
          <Trackpoint>
            <Time>2022-07-15T14:49:51.000Z</Time>
            <Position>
              <LatitudeDegrees>43.39212424121797084808349609375</LatitudeDegrees>
              <LongitudeDegrees>-4.6233312226831912994384765625</LongitudeDegrees>
            </Position>
            <AltitudeMeters>53.59999847412109375</AltitudeMeters>
            <DistanceMeters>NAN</DistanceMeters>
          </Trackpoint>
          <Trackpoint>
            <Time>2022-07-15T14:49:52.000Z</Time>
            <Position>
              <LatitudeDegrees>43.39211158454418182373046875</LatitudeDegrees>
              <LongitudeDegrees>-4.623340778052806854248046875</LongitudeDegrees>
            </Position>
            <AltitudeMeters>53.799999237060546875</AltitudeMeters>
            <DistanceMeters>NAN</DistanceMeters>
          </Trackpoint>
          <Trackpoint>
            <Time>2022-07-15T14:49:53.000Z</Time>
            <Position>
              <LatitudeDegrees>43.3920966647565364837646484375</LatitudeDegrees>
              <LongitudeDegrees>-4.62334354408085346221923828125</LongitudeDegrees>
            </Position>
            <AltitudeMeters>54</AltitudeMeters>
            <DistanceMeters>NAN</DistanceMeters>
          </Trackpoint>
          <Trackpoint>
            <Time>2022-07-15T14:49:55.000Z</Time>
            <Position>
              <LatitudeDegrees>43.39208316989243030548095703125</LatitudeDegrees>
              <LongitudeDegrees>-4.6232966892421245574951171875</LongitudeDegrees>
            </Position>
            <AltitudeMeters>54</AltitudeMeters>
            <DistanceMeters>NAN</DistanceMeters>
          </Trackpoint>
          <Trackpoint>
            <Time>2022-07-15T14:49:57.000Z</Time>
            <Position>
              <LatitudeDegrees>43.39210529811680316925048828125</LatitudeDegrees>
              <LongitudeDegrees>-4.623229466378688812255859375</LongitudeDegrees>
            </Position>
            <AltitudeMeters>54.200000762939453125</AltitudeMeters>
            <DistanceMeters>NAN</DistanceMeters>
          </Trackpoint>
          <Trackpoint>
            <Time>2022-07-15T14:49:59.000Z</Time>
            <Position>
              <LatitudeDegrees>43.39214385487139225006103515625</LatitudeDegrees>
              <LongitudeDegrees>-4.62317674420773983001708984375</LongitudeDegrees>
            </Position>
            <AltitudeMeters>54.200000762939453125</AltitudeMeters>
            <DistanceMeters>NAN</DistanceMeters>
          </Trackpoint>
          <Trackpoint>
            <Time>2022-07-15T14:50:01.000Z</Time>
            <Position>
              <LatitudeDegrees>43.3921747840940952301025390625</LatitudeDegrees>
              <LongitudeDegrees>-4.62314723990857601165771484375</LongitudeDegrees>
            </Position>
            <AltitudeMeters>54.200000762939453125</AltitudeMeters>
            <DistanceMeters>NAN</DistanceMeters>
          </Trackpoint>
          <Trackpoint>
            <Time>2022-07-15T14:50:03.000Z</Time>
            <Position>
              <LatitudeDegrees>43.39219196699559688568115234375</LatitudeDegrees>
              <LongitudeDegrees>-4.62315813638269901275634765625</LongitudeDegrees>
            </Position>
            <AltitudeMeters>54.200000762939453125</AltitudeMeters>
            <DistanceMeters>NAN</DistanceMeters>
          </Trackpoint>
          <Trackpoint>
            <Time>2022-07-15T14:50:08.000Z</Time>
            <Position>
              <LatitudeDegrees>43.39219699613749980926513671875</LatitudeDegrees>
              <LongitudeDegrees>-4.62328922934830188751220703125</LongitudeDegrees>
            </Position>
            <AltitudeMeters>53.59999847412109375</AltitudeMeters>
            <DistanceMeters>NAN</DistanceMeters>
          </Trackpoint>
          <Trackpoint>
            <Time>2022-07-15T14:50:13.000Z</Time>
            <Position>
              <LatitudeDegrees>43.39221811853349208831787109375</LatitudeDegrees>
              <LongitudeDegrees>-4.62351688183844089508056640625</LongitudeDegrees>
            </Position>
            <AltitudeMeters>53.40000152587890625</AltitudeMeters>
            <DistanceMeters>NAN</DistanceMeters>
          </Trackpoint>
          <Trackpoint>
            <Time>2022-07-15T14:50:16.000Z</Time>
            <Position>
              <LatitudeDegrees>43.39223085902631282806396484375</LatitudeDegrees>
              <LongitudeDegrees>-4.62372005917131900787353515625</LongitudeDegrees>
            </Position>
            <AltitudeMeters>53</AltitudeMeters>
            <DistanceMeters>NAN</DistanceMeters>
          </Trackpoint>
          <Trackpoint>
            <Time>2022-07-15T14:50:18.000Z</Time>
            <Position>
              <LatitudeDegrees>43.39224544353783130645751953125</LatitudeDegrees>
              <LongitudeDegrees>-4.62387847714126110076904296875</LongitudeDegrees>
            </Position>
            <AltitudeMeters>52.59999847412109375</AltitudeMeters>
            <DistanceMeters>NAN</DistanceMeters>
          </Trackpoint>
          <Trackpoint>
            <Time>2022-07-15T14:50:22.000Z</Time>
            <Position>
              <LatitudeDegrees>43.39226706884801387786865234375</LatitudeDegrees>
              <LongitudeDegrees>-4.62424526922404766082763671875</LongitudeDegrees>
            </Position>
            <AltitudeMeters>51.40000152587890625</AltitudeMeters>
            <DistanceMeters>NAN</DistanceMeters>
          </Trackpoint>
          <Trackpoint>
            <Time>2022-07-15T14:50:23.000Z</Time>
            <Position>
              <LatitudeDegrees>43.39226824231445789337158203125</LatitudeDegrees>
              <LongitudeDegrees>-4.624348618090152740478515625</LongitudeDegrees>
            </Position>
            <AltitudeMeters>51</AltitudeMeters>
            <DistanceMeters>NAN</DistanceMeters>
          </Trackpoint>
          <Trackpoint>
            <Time>2022-07-15T14:50:25.000Z</Time>
            <Position>
              <LatitudeDegrees>43.39227519929409027099609375</LatitudeDegrees>
              <LongitudeDegrees>-4.6245677210390567779541015625</LongitudeDegrees>
            </Position>
            <AltitudeMeters>50.200000762939453125</AltitudeMeters>
            <DistanceMeters>NAN</DistanceMeters>
          </Trackpoint>
          <Trackpoint>
            <Time>2022-07-15T14:50:27.000Z</Time>
            <Position>
              <LatitudeDegrees>43.3922877721488475799560546875</LatitudeDegrees>
              <LongitudeDegrees>-4.6247896738350391387939453125</LongitudeDegrees>
            </Position>
            <AltitudeMeters>49.200000762939453125</AltitudeMeters>
            <DistanceMeters>NAN</DistanceMeters>
          </Trackpoint>
          <Trackpoint>
            <Time>2022-07-15T14:50:29.000Z</Time>
            <Position>
              <LatitudeDegrees>43.39230361394584178924560546875</LatitudeDegrees>
              <LongitudeDegrees>-4.6250402927398681640625</LongitudeDegrees>
            </Position>
            <AltitudeMeters>48.40000152587890625</AltitudeMeters>
            <DistanceMeters>NAN</DistanceMeters>
          </Trackpoint>
          <Trackpoint>
            <Time>2022-07-15T14:50:31.000Z</Time>
            <Position>
              <LatitudeDegrees>43.392325825989246368408203125</LatitudeDegrees>
              <LongitudeDegrees>-4.62524020113050937652587890625</LongitudeDegrees>
            </Position>
            <AltitudeMeters>47.799999237060546875</AltitudeMeters>
            <DistanceMeters>NAN</DistanceMeters>
          </Trackpoint>
          <Trackpoint>
            <Time>2022-07-15T14:50:33.000Z</Time>
            <Position>
              <LatitudeDegrees>43.3923732675611972808837890625</LatitudeDegrees>
              <LongitudeDegrees>-4.62545335292816162109375</LongitudeDegrees>
            </Position>
            <AltitudeMeters>47</AltitudeMeters>
            <DistanceMeters>NAN</DistanceMeters>
          </Trackpoint>
          <Trackpoint>
            <Time>2022-07-15T14:50:34.000Z</Time>
            <Position>
              <LatitudeDegrees>43.39241626672446727752685546875</LatitudeDegrees>
              <LongitudeDegrees>-4.62555100210011005401611328125</LongitudeDegrees>
            </Position>
            <AltitudeMeters>46.59999847412109375</AltitudeMeters>
            <DistanceMeters>NAN</DistanceMeters>
          </Trackpoint>
          <Trackpoint>
            <Time>2022-07-15T14:50:35.000Z</Time>
            <Position>
              <LatitudeDegrees>43.3924487046897411346435546875</LatitudeDegrees>
              <LongitudeDegrees>-4.62565326131880283355712890625</LongitudeDegrees>
            </Position>
            <AltitudeMeters>46</AltitudeMeters>
            <DistanceMeters>NAN</DistanceMeters>
          </Trackpoint>
          <Trackpoint>
            <Time>2022-07-15T14:50:36.000Z</Time>
            <Position>
              <LatitudeDegrees>43.39247494004666805267333984375</LatitudeDegrees>
              <LongitudeDegrees>-4.6257589571177959442138671875</LongitudeDegrees>
            </Position>
            <AltitudeMeters>45.59999847412109375</AltitudeMeters>
            <DistanceMeters>NAN</DistanceMeters>
          </Trackpoint>
          <Trackpoint>
            <Time>2022-07-15T14:50:38.000Z</Time>
            <Position>
              <LatitudeDegrees>43.392502181231975555419921875</LatitudeDegrees>
              <LongitudeDegrees>-4.62591712363064289093017578125</LongitudeDegrees>
            </Position>
            <AltitudeMeters>45</AltitudeMeters>
            <DistanceMeters>NAN</DistanceMeters>
          </Trackpoint>
          <Trackpoint>
            <Time>2022-07-15T14:50:40.000Z</Time>
            <Position>
              <LatitudeDegrees>43.3925174362957477569580078125</LatitudeDegrees>
              <LongitudeDegrees>-4.62599423713982105255126953125</LongitudeDegrees>
            </Position>
            <AltitudeMeters>44.40000152587890625</AltitudeMeters>
            <DistanceMeters>NAN</DistanceMeters>
          </Trackpoint>
          <Trackpoint>
            <Time>2022-07-15T14:50:47.000Z</Time>
            <Position>
              <LatitudeDegrees>43.39254467748105525970458984375</LatitudeDegrees>
              <LongitudeDegrees>-4.626271761953830718994140625</LongitudeDegrees>
            </Position>
            <AltitudeMeters>44.40000152587890625</AltitudeMeters>
            <DistanceMeters>NAN</DistanceMeters>
          </Trackpoint>
          <Trackpoint>
            <Time>2022-07-15T14:50:48.000Z</Time>
            <Position>
              <LatitudeDegrees>43.392549119889736175537109375</LatitudeDegrees>
              <LongitudeDegrees>-4.6263237297534942626953125</LongitudeDegrees>
            </Position>
            <AltitudeMeters>44.59999847412109375</AltitudeMeters>
            <DistanceMeters>NAN</DistanceMeters>
          </Trackpoint>
          <Trackpoint>
            <Time>2022-07-15T14:50:54.000Z</Time>
            <Position>
              <LatitudeDegrees>43.39257954619824886322021484375</LatitudeDegrees>
              <LongitudeDegrees>-4.6266786195337772369384765625</LongitudeDegrees>
            </Position>
            <AltitudeMeters>45.40000152587890625</AltitudeMeters>
            <DistanceMeters>NAN</DistanceMeters>
          </Trackpoint>
          <Trackpoint>
            <Time>2022-07-15T14:50:55.000Z</Time>
            <Position>
              <LatitudeDegrees>43.3925905264914035797119140625</LatitudeDegrees>
              <LongitudeDegrees>-4.62674684822559356689453125</LongitudeDegrees>
            </Position>
            <AltitudeMeters>45.40000152587890625</AltitudeMeters>
            <DistanceMeters>NAN</DistanceMeters>
          </Trackpoint>
          <Trackpoint>
            <Time>2022-07-15T14:51:01.000Z</Time>
            <Position>
              <LatitudeDegrees>43.39264333248138427734375</LatitudeDegrees>
              <LongitudeDegrees>-4.6270672045648097991943359375</LongitudeDegrees>
            </Position>
            <AltitudeMeters>45.59999847412109375</AltitudeMeters>
            <DistanceMeters>NAN</DistanceMeters>
          </Trackpoint>
          <Trackpoint>
            <Time>2022-07-15T14:51:04.000Z</Time>
            <Position>
              <LatitudeDegrees>43.39266587980091571807861328125</LatitudeDegrees>
              <LongitudeDegrees>-4.6272308193147182464599609375</LongitudeDegrees>
            </Position>
            <AltitudeMeters>46</AltitudeMeters>
            <DistanceMeters>NAN</DistanceMeters>
          </Trackpoint>
          <Trackpoint>
            <Time>2022-07-15T14:51:06.000Z</Time>
            <Position>
              <LatitudeDegrees>43.3926820568740367889404296875</LatitudeDegrees>
              <LongitudeDegrees>-4.62733550928533077239990234375</LongitudeDegrees>
            </Position>
            <AltitudeMeters>46</AltitudeMeters>
            <DistanceMeters>NAN</DistanceMeters>
          </Trackpoint>
          <Trackpoint>
            <Time>2022-07-15T14:51:08.000Z</Time>
            <Position>
              <LatitudeDegrees>43.392693959176540374755859375</LatitudeDegrees>
              <LongitudeDegrees>-4.6274433843791484832763671875</LongitudeDegrees>
            </Position>
            <AltitudeMeters>46.200000762939453125</AltitudeMeters>
            <DistanceMeters>NAN</DistanceMeters>
          </Trackpoint>
          <Trackpoint>
            <Time>2022-07-15T14:51:09.000Z</Time>
            <Position>
              <LatitudeDegrees>43.39269496500492095947265625</LatitudeDegrees>
              <LongitudeDegrees>-4.62748386897146701812744140625</LongitudeDegrees>
            </Position>
            <AltitudeMeters>46.200000762939453125</AltitudeMeters>
            <DistanceMeters>NAN</DistanceMeters>
          </Trackpoint>
          <Trackpoint>
            <Time>2022-07-15T14:51:11.000Z</Time>
            <Position>
              <LatitudeDegrees>43.392701335251331329345703125</LatitudeDegrees>
              <LongitudeDegrees>-4.627580009400844573974609375</LongitudeDegrees>
            </Position>
            <AltitudeMeters>46.200000762939453125</AltitudeMeters>
            <DistanceMeters>NAN</DistanceMeters>
          </Trackpoint>
          <Trackpoint>
            <Time>2022-07-15T14:51:13.000Z</Time>
            <Position>
              <LatitudeDegrees>43.39271097443997859954833984375</LatitudeDegrees>
              <LongitudeDegrees>-4.627678580582141876220703125</LongitudeDegrees>
            </Position>
            <AltitudeMeters>46.200000762939453125</AltitudeMeters>
            <DistanceMeters>NAN</DistanceMeters>
          </Trackpoint>
          <Trackpoint>
            <Time>2022-07-15T14:51:17.000Z</Time>
            <Position>
              <LatitudeDegrees>43.39272740297019481658935546875</LatitudeDegrees>
              <LongitudeDegrees>-4.6278678439557552337646484375</LongitudeDegrees>
            </Position>
            <AltitudeMeters>46.59999847412109375</AltitudeMeters>
            <DistanceMeters>NAN</DistanceMeters>
          </Trackpoint>
          <Trackpoint>
            <Time>2022-07-15T14:51:19.000Z</Time>
            <Position>
              <LatitudeDegrees>43.392738886177539825439453125</LatitudeDegrees>
              <LongitudeDegrees>-4.62796113453805446624755859375</LongitudeDegrees>
            </Position>
            <AltitudeMeters>46.59999847412109375</AltitudeMeters>
            <DistanceMeters>NAN</DistanceMeters>
          </Trackpoint>
          <Trackpoint>
            <Time>2022-07-15T14:51:26.000Z</Time>
            <Position>
              <LatitudeDegrees>43.392770402133464813232421875</LatitudeDegrees>
              <LongitudeDegrees>-4.6283219754695892333984375</LongitudeDegrees>
            </Position>
            <AltitudeMeters>47</AltitudeMeters>
            <DistanceMeters>NAN</DistanceMeters>
          </Trackpoint>
          <Trackpoint>
            <Time>2022-07-15T14:51:34.000Z</Time>
            <Position>
              <LatitudeDegrees>43.392802588641643524169921875</LatitudeDegrees>
              <LongitudeDegrees>-4.62874417193233966827392578125</LongitudeDegrees>
            </Position>
            <AltitudeMeters>46.799999237060546875</AltitudeMeters>
            <DistanceMeters>NAN</DistanceMeters>
          </Trackpoint>
          <Trackpoint>
            <Time>2022-07-15T14:51:44.000Z</Time>
            <Position>
              <LatitudeDegrees>43.39284407906234264373779296875</LatitudeDegrees>
              <LongitudeDegrees>-4.62926317937672138214111328125</LongitudeDegrees>
            </Position>
            <AltitudeMeters>46.799999237060546875</AltitudeMeters>
            <DistanceMeters>NAN</DistanceMeters>
          </Trackpoint>
          <Trackpoint>
            <Time>2022-07-15T14:51:52.000Z</Time>
            <Position>
              <LatitudeDegrees>43.39287936687469482421875</LatitudeDegrees>
              <LongitudeDegrees>-4.629715383052825927734375</LongitudeDegrees>
            </Position>
            <AltitudeMeters>46.59999847412109375</AltitudeMeters>
            <DistanceMeters>NAN</DistanceMeters>
          </Trackpoint>
          <Trackpoint>
            <Time>2022-07-15T14:51:56.000Z</Time>
            <Position>
              <LatitudeDegrees>43.39290015399456024169921875</LatitudeDegrees>
              <LongitudeDegrees>-4.62990556843578815460205078125</LongitudeDegrees>
            </Position>
            <AltitudeMeters>46.59999847412109375</AltitudeMeters>
            <DistanceMeters>NAN</DistanceMeters>
          </Trackpoint>
          <Trackpoint>
            <Time>2022-07-15T14:51:57.000Z</Time>
            <Position>
              <LatitudeDegrees>43.39290191419422626495361328125</LatitudeDegrees>
              <LongitudeDegrees>-4.629946388304233551025390625</LongitudeDegrees>
            </Position>
            <AltitudeMeters>46.40000152587890625</AltitudeMeters>
            <DistanceMeters>NAN</DistanceMeters>
          </Trackpoint>
          <Trackpoint>
            <Time>2022-07-15T14:51:58.000Z</Time>
            <Position>
              <LatitudeDegrees>43.392910547554492950439453125</LatitudeDegrees>
              <LongitudeDegrees>-4.62998083792626857757568359375</LongitudeDegrees>
            </Position>
            <AltitudeMeters>46.200000762939453125</AltitudeMeters>
            <DistanceMeters>NAN</DistanceMeters>
          </Trackpoint>
          <Trackpoint>
            <Time>2022-07-15T14:52:03.000Z</Time>
            <Position>
              <LatitudeDegrees>43.392960168421268463134765625</LatitudeDegrees>
              <LongitudeDegrees>-4.6302255056798458099365234375</LongitudeDegrees>
            </Position>
            <AltitudeMeters>46.200000762939453125</AltitudeMeters>
            <DistanceMeters>NAN</DistanceMeters>
          </Trackpoint>
          <Trackpoint>
            <Time>2022-07-15T14:52:04.000Z</Time>
            <Position>
              <LatitudeDegrees>43.3929707296192646026611328125</LatitudeDegrees>
              <LongitudeDegrees>-4.6302905492484569549560546875</LongitudeDegrees>
            </Position>
            <AltitudeMeters>46.200000762939453125</AltitudeMeters>
            <DistanceMeters>NAN</DistanceMeters>
          </Trackpoint>
          <Trackpoint>
            <Time>2022-07-15T14:52:09.000Z</Time>
            <Position>
              <LatitudeDegrees>43.3929918520152568817138671875</LatitudeDegrees>
              <LongitudeDegrees>-4.63057343848049640655517578125</LongitudeDegrees>
            </Position>
            <AltitudeMeters>46.40000152587890625</AltitudeMeters>
            <DistanceMeters>NAN</DistanceMeters>
          </Trackpoint>
          <Trackpoint>
            <Time>2022-07-15T14:52:17.000Z</Time>
            <Position>
              <LatitudeDegrees>43.39307609014213085174560546875</LatitudeDegrees>
              <LongitudeDegrees>-4.63102941401302814483642578125</LongitudeDegrees>
            </Position>
            <AltitudeMeters>46.200000762939453125</AltitudeMeters>
            <DistanceMeters>NAN</DistanceMeters>
          </Trackpoint>
          <Trackpoint>
            <Time>2022-07-15T14:52:24.000Z</Time>
            <Position>
              <LatitudeDegrees>43.39322143234312534332275390625</LatitudeDegrees>
              <LongitudeDegrees>-4.63136368431150913238525390625</LongitudeDegrees>
            </Position>
            <AltitudeMeters>46</AltitudeMeters>
            <DistanceMeters>NAN</DistanceMeters>
          </Trackpoint>
          <Trackpoint>
            <Time>2022-07-15T14:52:31.000Z</Time>
            <Position>
              <LatitudeDegrees>43.39336208067834377288818359375</LatitudeDegrees>
              <LongitudeDegrees>-4.63166199624538421630859375</LongitudeDegrees>
            </Position>
            <AltitudeMeters>46.200000762939453125</AltitudeMeters>
            <DistanceMeters>NAN</DistanceMeters>
          </Trackpoint>
          <Trackpoint>
            <Time>2022-07-15T14:52:41.000Z</Time>
            <Position>
              <LatitudeDegrees>43.39358051307499408721923828125</LatitudeDegrees>
              <LongitudeDegrees>-4.632121659815311431884765625</LongitudeDegrees>
            </Position>
            <AltitudeMeters>46.200000762939453125</AltitudeMeters>
            <DistanceMeters>NAN</DistanceMeters>
          </Trackpoint>
          <Trackpoint>
            <Time>2022-07-15T14:52:45.000Z</Time>
            <Position>
              <LatitudeDegrees>43.3936543576419353485107421875</LatitudeDegrees>
              <LongitudeDegrees>-4.63232207112014293670654296875</LongitudeDegrees>
            </Position>
            <AltitudeMeters>46</AltitudeMeters>
            <DistanceMeters>NAN</DistanceMeters>
          </Trackpoint>
          <Trackpoint>
            <Time>2022-07-15T14:52:47.000Z</Time>
            <Position>
              <LatitudeDegrees>43.39370079338550567626953125</LatitudeDegrees>
              <LongitudeDegrees>-4.6324054710566997528076171875</LongitudeDegrees>
            </Position>
            <AltitudeMeters>45.799999237060546875</AltitudeMeters>
            <DistanceMeters>NAN</DistanceMeters>
          </Trackpoint>
          <Trackpoint>
            <Time>2022-07-15T14:52:48.000Z</Time>
            <Position>
              <LatitudeDegrees>43.39372669346630573272705078125</LatitudeDegrees>
              <LongitudeDegrees>-4.63245836086571216583251953125</LongitudeDegrees>
            </Position>
            <AltitudeMeters>45.799999237060546875</AltitudeMeters>
            <DistanceMeters>NAN</DistanceMeters>
          </Trackpoint>
          <Trackpoint>
            <Time>2022-07-15T14:52:53.000Z</Time>
            <Position>
              <LatitudeDegrees>43.393853008747100830078125</LatitudeDegrees>
              <LongitudeDegrees>-4.632746614515781402587890625</LongitudeDegrees>
            </Position>
            <AltitudeMeters>45.59999847412109375</AltitudeMeters>
            <DistanceMeters>NAN</DistanceMeters>
          </Trackpoint>
          <Trackpoint>
            <Time>2022-07-15T14:52:55.000Z</Time>
            <Position>
              <LatitudeDegrees>43.39391729794442653656005859375</LatitudeDegrees>
              <LongitudeDegrees>-4.6328725107014179229736328125</LongitudeDegrees>
            </Position>
            <AltitudeMeters>45.59999847412109375</AltitudeMeters>
            <DistanceMeters>NAN</DistanceMeters>
          </Trackpoint>
          <Trackpoint>
            <Time>2022-07-15T14:53:00.000Z</Time>
            <Position>
              <LatitudeDegrees>43.39403598569333553314208984375</LatitudeDegrees>
              <LongitudeDegrees>-4.63313964195549488067626953125</LongitudeDegrees>
            </Position>
            <AltitudeMeters>45.40000152587890625</AltitudeMeters>
            <DistanceMeters>NAN</DistanceMeters>
          </Trackpoint>
          <Trackpoint>
            <Time>2022-07-15T14:53:08.000Z</Time>
            <Position>
              <LatitudeDegrees>43.39422927238047122955322265625</LatitudeDegrees>
              <LongitudeDegrees>-4.63362193666398525238037109375</LongitudeDegrees>
            </Position>
            <AltitudeMeters>44.799999237060546875</AltitudeMeters>
            <DistanceMeters>NAN</DistanceMeters>
          </Trackpoint>
          <Trackpoint>
            <Time>2022-07-15T14:53:11.000Z</Time>
            <Position>
              <LatitudeDegrees>43.3942995965480804443359375</LatitudeDegrees>
              <LongitudeDegrees>-4.63382092304527759552001953125</LongitudeDegrees>
            </Position>
            <AltitudeMeters>44.40000152587890625</AltitudeMeters>
            <DistanceMeters>NAN</DistanceMeters>
          </Trackpoint>
          <Trackpoint>
            <Time>2022-07-15T14:53:16.000Z</Time>
            <Position>
              <LatitudeDegrees>43.39440613053739070892333984375</LatitudeDegrees>
              <LongitudeDegrees>-4.63413943536579608917236328125</LongitudeDegrees>
            </Position>
            <AltitudeMeters>44</AltitudeMeters>
            <DistanceMeters>NAN</DistanceMeters>
          </Trackpoint>
          <Trackpoint>
            <Time>2022-07-15T14:53:24.000Z</Time>
            <Position>
              <LatitudeDegrees>43.394596315920352935791015625</LatitudeDegrees>
              <LongitudeDegrees>-4.63466833345592021942138671875</LongitudeDegrees>
            </Position>
            <AltitudeMeters>43.40000152587890625</AltitudeMeters>
            <DistanceMeters>NAN</DistanceMeters>
          </Trackpoint>
          <Trackpoint>
            <Time>2022-07-15T14:53:25.000Z</Time>
            <Position>
              <LatitudeDegrees>43.3946276642382144927978515625</LatitudeDegrees>
              <LongitudeDegrees>-4.63475055992603302001953125</LongitudeDegrees>
            </Position>
            <AltitudeMeters>43.40000152587890625</AltitudeMeters>
            <DistanceMeters>NAN</DistanceMeters>
          </Trackpoint>
          <Trackpoint>
            <Time>2022-07-15T14:53:28.000Z</Time>
            <Position>
              <LatitudeDegrees>43.39472682215273380279541015625</LatitudeDegrees>
              <LongitudeDegrees>-4.63490922935307025909423828125</LongitudeDegrees>
            </Position>
            <AltitudeMeters>43.40000152587890625</AltitudeMeters>
            <DistanceMeters>NAN</DistanceMeters>
          </Trackpoint>
          <Trackpoint>
            <Time>2022-07-15T14:53:30.000Z</Time>
            <Position>
              <LatitudeDegrees>43.394813239574432373046875</LatitudeDegrees>
              <LongitudeDegrees>-4.6349857561290264129638671875</LongitudeDegrees>
            </Position>
            <AltitudeMeters>43.40000152587890625</AltitudeMeters>
            <DistanceMeters>NAN</DistanceMeters>
          </Trackpoint>
          <Trackpoint>
            <Time>2022-07-15T14:53:34.000Z</Time>
            <Position>
              <LatitudeDegrees>43.39503142051398754119873046875</LatitudeDegrees>
              <LongitudeDegrees>-4.63506437838077545166015625</LongitudeDegrees>
            </Position>
            <AltitudeMeters>43.40000152587890625</AltitudeMeters>
            <DistanceMeters>NAN</DistanceMeters>
          </Trackpoint>
          <Trackpoint>
            <Time>2022-07-15T14:53:36.000Z</Time>
            <Position>
              <LatitudeDegrees>43.39513284154236316680908203125</LatitudeDegrees>
              <LongitudeDegrees>-4.63507586158812046051025390625</LongitudeDegrees>
            </Position>
            <AltitudeMeters>43.59999847412109375</AltitudeMeters>
            <DistanceMeters>NAN</DistanceMeters>
          </Trackpoint>
          <Trackpoint>
            <Time>2022-07-15T14:53:38.000Z</Time>
            <Position>
              <LatitudeDegrees>43.39523308910429477691650390625</LatitudeDegrees>
              <LongitudeDegrees>-4.6350704133510589599609375</LongitudeDegrees>
            </Position>
            <AltitudeMeters>44</AltitudeMeters>
            <DistanceMeters>NAN</DistanceMeters>
          </Trackpoint>
          <Trackpoint>
            <Time>2022-07-15T14:53:42.000Z</Time>
            <Position>
              <LatitudeDegrees>43.395381532609462738037109375</LatitudeDegrees>
              <LongitudeDegrees>-4.635042250156402587890625</LongitudeDegrees>
            </Position>
            <AltitudeMeters>44.200000762939453125</AltitudeMeters>
            <DistanceMeters>NAN</DistanceMeters>
          </Trackpoint>
          <Trackpoint>
            <Time>2022-07-15T14:53:43.000Z</Time>
            <Position>
              <LatitudeDegrees>43.3954112045466899871826171875</LatitudeDegrees>
              <LongitudeDegrees>-4.63503981940448284149169921875</LongitudeDegrees>
            </Position>
            <AltitudeMeters>44.200000762939453125</AltitudeMeters>
            <DistanceMeters>NAN</DistanceMeters>
          </Trackpoint>
          <Trackpoint>
            <Time>2022-07-15T14:53:48.000Z</Time>
            <Position>
              <LatitudeDegrees>43.3955334126949310302734375</LatitudeDegrees>
              <LongitudeDegrees>-4.6350280009210109710693359375</LongitudeDegrees>
            </Position>
            <AltitudeMeters>44.59999847412109375</AltitudeMeters>
            <DistanceMeters>NAN</DistanceMeters>
          </Trackpoint>
          <Trackpoint>
            <Time>2022-07-15T14:53:53.000Z</Time>
            <Position>
              <LatitudeDegrees>43.3956455625593662261962890625</LatitudeDegrees>
              <LongitudeDegrees>-4.63502272032201290130615234375</LongitudeDegrees>
            </Position>
            <AltitudeMeters>45</AltitudeMeters>
            <DistanceMeters>NAN</DistanceMeters>
          </Trackpoint>
          <Trackpoint>
            <Time>2022-07-15T14:53:54.000Z</Time>
            <Position>
              <LatitudeDegrees>43.3956686966121196746826171875</LatitudeDegrees>
              <LongitudeDegrees>-4.63501953519880771636962890625</LongitudeDegrees>
            </Position>
            <AltitudeMeters>45</AltitudeMeters>
            <DistanceMeters>NAN</DistanceMeters>
          </Trackpoint>
          <Trackpoint>
            <Time>2022-07-15T14:53:58.000Z</Time>
            <Position>
              <LatitudeDegrees>43.39574857614934444427490234375</LatitudeDegrees>
              <LongitudeDegrees>-4.63503428734838962554931640625</LongitudeDegrees>
            </Position>
            <AltitudeMeters>45.200000762939453125</AltitudeMeters>
            <DistanceMeters>NAN</DistanceMeters>
          </Trackpoint>
          <Trackpoint>
            <Time>2022-07-15T14:54:01.000Z</Time>
            <Position>
              <LatitudeDegrees>43.39582183398306369781494140625</LatitudeDegrees>
              <LongitudeDegrees>-4.63503462262451648712158203125</LongitudeDegrees>
            </Position>
            <AltitudeMeters>45.59999847412109375</AltitudeMeters>
            <DistanceMeters>NAN</DistanceMeters>
          </Trackpoint>
          <Trackpoint>
            <Time>2022-07-15T14:54:06.000Z</Time>
            <Position>
              <LatitudeDegrees>43.3959265239536762237548828125</LatitudeDegrees>
              <LongitudeDegrees>-4.6350677311420440673828125</LongitudeDegrees>
            </Position>
            <AltitudeMeters>45.59999847412109375</AltitudeMeters>
            <DistanceMeters>NAN</DistanceMeters>
          </Trackpoint>
          <Trackpoint>
            <Time>2022-07-15T14:54:07.000Z</Time>
            <Position>
              <LatitudeDegrees>43.39595074765384197235107421875</LatitudeDegrees>
              <LongitudeDegrees>-4.6350843273103237152099609375</LongitudeDegrees>
            </Position>
            <AltitudeMeters>45.799999237060546875</AltitudeMeters>
            <DistanceMeters>NAN</DistanceMeters>
          </Trackpoint>
          <Trackpoint>
            <Time>2022-07-15T14:54:08.000Z</Time>
            <Position>
              <LatitudeDegrees>43.39597874321043491363525390625</LatitudeDegrees>
              <LongitudeDegrees>-4.63509966619312763214111328125</LongitudeDegrees>
            </Position>
            <AltitudeMeters>45.799999237060546875</AltitudeMeters>
            <DistanceMeters>NAN</DistanceMeters>
          </Trackpoint>
          <Trackpoint>
            <Time>2022-07-15T14:54:16.000Z</Time>
            <Position>
              <LatitudeDegrees>43.39610497467219829559326171875</LatitudeDegrees>
              <LongitudeDegrees>-4.63523427955806255340576171875</LongitudeDegrees>
            </Position>
            <AltitudeMeters>46.59999847412109375</AltitudeMeters>
            <DistanceMeters>NAN</DistanceMeters>
          </Trackpoint>
          <Trackpoint>
            <Time>2022-07-15T14:54:17.000Z</Time>
            <Position>
              <LatitudeDegrees>43.39612291194498538970947265625</LatitudeDegrees>
              <LongitudeDegrees>-4.63524945080280303955078125</LongitudeDegrees>
            </Position>
            <AltitudeMeters>46.799999237060546875</AltitudeMeters>
            <DistanceMeters>NAN</DistanceMeters>
          </Trackpoint>
          <Trackpoint>
            <Time>2022-07-15T14:54:22.000Z</Time>
            <Position>
              <LatitudeDegrees>43.39619482867419719696044921875</LatitudeDegrees>
              <LongitudeDegrees>-4.635350368916988372802734375</LongitudeDegrees>
            </Position>
            <AltitudeMeters>47.59999847412109375</AltitudeMeters>
            <DistanceMeters>NAN</DistanceMeters>
          </Trackpoint>
          <Trackpoint>
            <Time>2022-07-15T14:54:24.000Z</Time>
            <Position>
              <LatitudeDegrees>43.39622349478304386138916015625</LatitudeDegrees>
              <LongitudeDegrees>-4.63539906777441501617431640625</LongitudeDegrees>
            </Position>
            <AltitudeMeters>47.799999237060546875</AltitudeMeters>
            <DistanceMeters>NAN</DistanceMeters>
          </Trackpoint>
          <Trackpoint>
            <Time>2022-07-15T14:54:25.000Z</Time>
            <Position>
              <LatitudeDegrees>43.39623841457068920135498046875</LatitudeDegrees>
              <LongitudeDegrees>-4.6354216150939464569091796875</LongitudeDegrees>
            </Position>
            <AltitudeMeters>48</AltitudeMeters>
            <DistanceMeters>NAN</DistanceMeters>
          </Trackpoint>
          <Trackpoint>
            <Time>2022-07-15T14:54:30.000Z</Time>
            <Position>
              <LatitudeDegrees>43.3963003568351268768310546875</LatitudeDegrees>
              <LongitudeDegrees>-4.6355443261563777923583984375</LongitudeDegrees>
            </Position>
            <AltitudeMeters>48.200000762939453125</AltitudeMeters>
            <DistanceMeters>NAN</DistanceMeters>
          </Trackpoint>
          <Trackpoint>
            <Time>2022-07-15T14:54:33.000Z</Time>
            <Position>
              <LatitudeDegrees>43.39634184725582599639892578125</LatitudeDegrees>
              <LongitudeDegrees>-4.63562839664518833160400390625</LongitudeDegrees>
            </Position>
            <AltitudeMeters>48.40000152587890625</AltitudeMeters>
            <DistanceMeters>NAN</DistanceMeters>
          </Trackpoint>
          <Trackpoint>
            <Time>2022-07-15T14:54:35.000Z</Time>
            <Position>
              <LatitudeDegrees>43.396375961601734161376953125</LatitudeDegrees>
              <LongitudeDegrees>-4.635686986148357391357421875</LongitudeDegrees>
            </Position>
            <AltitudeMeters>48.59999847412109375</AltitudeMeters>
            <DistanceMeters>NAN</DistanceMeters>
          </Trackpoint>
          <Trackpoint>
            <Time>2022-07-15T14:54:39.000Z</Time>
            <Position>
              <LatitudeDegrees>43.396414183080196380615234375</LatitudeDegrees>
              <LongitudeDegrees>-4.6358098648488521575927734375</LongitudeDegrees>
            </Position>
            <AltitudeMeters>49</AltitudeMeters>
            <DistanceMeters>NAN</DistanceMeters>
          </Trackpoint>
          <Trackpoint>
            <Time>2022-07-15T14:54:42.000Z</Time>
            <Position>
              <LatitudeDegrees>43.396450392901897430419921875</LatitudeDegrees>
              <LongitudeDegrees>-4.6358911693096160888671875</LongitudeDegrees>
            </Position>
            <AltitudeMeters>49.200000762939453125</AltitudeMeters>
            <DistanceMeters>NAN</DistanceMeters>
          </Trackpoint>
          <Trackpoint>
            <Time>2022-07-15T14:54:49.000Z</Time>
            <Position>
              <LatitudeDegrees>43.39653412811458110809326171875</LatitudeDegrees>
              <LongitudeDegrees>-4.63607062585651874542236328125</LongitudeDegrees>
            </Position>
            <AltitudeMeters>49.799999237060546875</AltitudeMeters>
            <DistanceMeters>NAN</DistanceMeters>
          </Trackpoint>
          <Trackpoint>
            <Time>2022-07-15T14:54:52.000Z</Time>
            <Position>
              <LatitudeDegrees>43.39656748808920383453369140625</LatitudeDegrees>
              <LongitudeDegrees>-4.6361498348414897918701171875</LongitudeDegrees>
            </Position>
            <AltitudeMeters>50.200000762939453125</AltitudeMeters>
            <DistanceMeters>NAN</DistanceMeters>
          </Trackpoint>
          <Trackpoint>
            <Time>2022-07-15T14:54:53.000Z</Time>
            <Position>
              <LatitudeDegrees>43.396580480039119720458984375</LatitudeDegrees>
              <LongitudeDegrees>-4.636175818741321563720703125</LongitudeDegrees>
            </Position>
            <AltitudeMeters>50.200000762939453125</AltitudeMeters>
            <DistanceMeters>NAN</DistanceMeters>
          </Trackpoint>
          <Trackpoint>
            <Time>2022-07-15T14:55:00.000Z</Time>
            <Position>
              <LatitudeDegrees>43.39664929546415805816650390625</LatitudeDegrees>
              <LongitudeDegrees>-4.63635494001209735870361328125</LongitudeDegrees>
            </Position>
            <AltitudeMeters>51</AltitudeMeters>
            <DistanceMeters>NAN</DistanceMeters>
          </Trackpoint>
          <Trackpoint>
            <Time>2022-07-15T14:55:02.000Z</Time>
            <Position>
              <LatitudeDegrees>43.39667477644979953765869140625</LatitudeDegrees>
              <LongitudeDegrees>-4.6364113502204418182373046875</LongitudeDegrees>
            </Position>
            <AltitudeMeters>51.200000762939453125</AltitudeMeters>
            <DistanceMeters>NAN</DistanceMeters>
          </Trackpoint>
          <Trackpoint>
            <Time>2022-07-15T14:55:10.000Z</Time>
            <Position>
              <LatitudeDegrees>43.39673596434295177459716796875</LatitudeDegrees>
              <LongitudeDegrees>-4.63662399910390377044677734375</LongitudeDegrees>
            </Position>
            <AltitudeMeters>52.200000762939453125</AltitudeMeters>
            <DistanceMeters>NAN</DistanceMeters>
          </Trackpoint>
          <Trackpoint>
            <Time>2022-07-15T14:55:12.000Z</Time>
            <Position>
              <LatitudeDegrees>43.39675205759704113006591796875</LatitudeDegrees>
              <LongitudeDegrees>-4.6366842649877071380615234375</LongitudeDegrees>
            </Position>
            <AltitudeMeters>52.40000152587890625</AltitudeMeters>
            <DistanceMeters>NAN</DistanceMeters>
          </Trackpoint>
          <Trackpoint>
            <Time>2022-07-15T14:55:21.000Z</Time>
            <Position>
              <LatitudeDegrees>43.39679145254194736480712890625</LatitudeDegrees>
              <LongitudeDegrees>-4.63697788305580615997314453125</LongitudeDegrees>
            </Position>
            <AltitudeMeters>52.59999847412109375</AltitudeMeters>
            <DistanceMeters>NAN</DistanceMeters>
          </Trackpoint>
          <Trackpoint>
            <Time>2022-07-15T14:55:28.000Z</Time>
            <Position>
              <LatitudeDegrees>43.3967814780771732330322265625</LatitudeDegrees>
              <LongitudeDegrees>-4.63722598738968372344970703125</LongitudeDegrees>
            </Position>
            <AltitudeMeters>52.200000762939453125</AltitudeMeters>
            <DistanceMeters>NAN</DistanceMeters>
          </Trackpoint>
          <Trackpoint>
            <Time>2022-07-15T14:55:34.000Z</Time>
            <Position>
              <LatitudeDegrees>43.39675473980605602264404296875</LatitudeDegrees>
              <LongitudeDegrees>-4.63753460906445980072021484375</LongitudeDegrees>
            </Position>
            <AltitudeMeters>51.799999237060546875</AltitudeMeters>
            <DistanceMeters>NAN</DistanceMeters>
          </Trackpoint>
          <Trackpoint>
            <Time>2022-07-15T14:55:36.000Z</Time>
            <Position>
              <LatitudeDegrees>43.396728001534938812255859375</LatitudeDegrees>
              <LongitudeDegrees>-4.63766804896295070648193359375</LongitudeDegrees>
            </Position>
            <AltitudeMeters>51.40000152587890625</AltitudeMeters>
            <DistanceMeters>NAN</DistanceMeters>
          </Trackpoint>
          <Trackpoint>
            <Time>2022-07-15T14:55:39.000Z</Time>
            <Position>
              <LatitudeDegrees>43.39668072760105133056640625</LatitudeDegrees>
              <LongitudeDegrees>-4.63788245804607868194580078125</LongitudeDegrees>
            </Position>
            <AltitudeMeters>51</AltitudeMeters>
            <DistanceMeters>NAN</DistanceMeters>
          </Trackpoint>
          <Trackpoint>
            <Time>2022-07-15T14:55:46.000Z</Time>
            <Position>
              <LatitudeDegrees>43.39653278701007366180419921875</LatitudeDegrees>
              <LongitudeDegrees>-4.63832317851483821868896484375</LongitudeDegrees>
            </Position>
            <AltitudeMeters>51</AltitudeMeters>
            <DistanceMeters>NAN</DistanceMeters>
          </Trackpoint>
          <Trackpoint>
            <Time>2022-07-15T14:55:50.000Z</Time>
            <Position>
              <LatitudeDegrees>43.39649875648319721221923828125</LatitudeDegrees>
              <LongitudeDegrees>-4.6383985318243503570556640625</LongitudeDegrees>
            </Position>
            <AltitudeMeters>51.200000762939453125</AltitudeMeters>
            <DistanceMeters>NAN</DistanceMeters>
          </Trackpoint>
          <Trackpoint>
            <Time>2022-07-15T14:55:51.000Z</Time>
            <Position>
              <LatitudeDegrees>43.39649875648319721221923828125</LatitudeDegrees>
              <LongitudeDegrees>-4.6383985318243503570556640625</LongitudeDegrees>
            </Position>
            <AltitudeMeters>51.40000152587890625</AltitudeMeters>
            <DistanceMeters>NAN</DistanceMeters>
          </Trackpoint>
          <Trackpoint>
            <Time>2022-07-15T14:56:42.000Z</Time>
            <Position>
              <LatitudeDegrees>43.39649540372192859649658203125</LatitudeDegrees>
              <LongitudeDegrees>-4.6384173072874546051025390625</LongitudeDegrees>
            </Position>
            <AltitudeMeters>51.200000762939453125</AltitudeMeters>
            <DistanceMeters>NAN</DistanceMeters>
          </Trackpoint>
          <Trackpoint>
            <Time>2022-07-15T14:56:44.000Z</Time>
            <Position>
              <LatitudeDegrees>43.3964733593165874481201171875</LatitudeDegrees>
              <LongitudeDegrees>-4.63847522623836994171142578125</LongitudeDegrees>
            </Position>
            <AltitudeMeters>51.200000762939453125</AltitudeMeters>
            <DistanceMeters>NAN</DistanceMeters>
          </Trackpoint>
          <Trackpoint>
            <Time>2022-07-15T14:56:47.000Z</Time>
            <Position>
              <LatitudeDegrees>43.3964344672858715057373046875</LatitudeDegrees>
              <LongitudeDegrees>-4.638560302555561065673828125</LongitudeDegrees>
            </Position>
            <AltitudeMeters>51.40000152587890625</AltitudeMeters>
            <DistanceMeters>NAN</DistanceMeters>
          </Trackpoint>
          <Trackpoint>
            <Time>2022-07-15T14:56:49.000Z</Time>
            <Position>
              <LatitudeDegrees>43.39641476981341838836669921875</LatitudeDegrees>
              <LongitudeDegrees>-4.63857027702033519744873046875</LongitudeDegrees>
            </Position>
            <AltitudeMeters>51.59999847412109375</AltitudeMeters>
            <DistanceMeters>NAN</DistanceMeters>
          </Trackpoint>
          <Trackpoint>
            <Time>2022-07-15T14:56:52.000Z</Time>
            <Position>
              <LatitudeDegrees>43.3964319527149200439453125</LatitudeDegrees>
              <LongitudeDegrees>-4.63851009495556354522705078125</LongitudeDegrees>
            </Position>
            <AltitudeMeters>52</AltitudeMeters>
            <DistanceMeters>NAN</DistanceMeters>
          </Trackpoint>
          <Trackpoint>
            <Time>2022-07-15T14:56:57.000Z</Time>
            <Position>
              <LatitudeDegrees>43.3965119160711765289306640625</LatitudeDegrees>
              <LongitudeDegrees>-4.63835888542234897613525390625</LongitudeDegrees>
            </Position>
            <AltitudeMeters>52.200000762939453125</AltitudeMeters>
            <DistanceMeters>NAN</DistanceMeters>
          </Trackpoint>
          <Trackpoint>
            <Time>2022-07-15T14:56:58.000Z</Time>
            <Position>
              <LatitudeDegrees>43.3965283446013927459716796875</LatitudeDegrees>
              <LongitudeDegrees>-4.638353772461414337158203125</LongitudeDegrees>
            </Position>
            <AltitudeMeters>52.200000762939453125</AltitudeMeters>
            <DistanceMeters>NAN</DistanceMeters>
          </Trackpoint>
          <Trackpoint>
            <Time>2022-07-15T14:57:01.000Z</Time>
            <Position>
              <LatitudeDegrees>43.3965553343296051025390625</LatitudeDegrees>
              <LongitudeDegrees>-4.63844471611082553863525390625</LongitudeDegrees>
            </Position>
            <AltitudeMeters>51.59999847412109375</AltitudeMeters>
            <DistanceMeters>NAN</DistanceMeters>
          </Trackpoint>
          <Trackpoint>
            <Time>2022-07-15T14:57:03.000Z</Time>
            <Position>
              <LatitudeDegrees>43.39657821692526340484619140625</LatitudeDegrees>
              <LongitudeDegrees>-4.63849400170147418975830078125</LongitudeDegrees>
            </Position>
            <AltitudeMeters>51</AltitudeMeters>
            <DistanceMeters>NAN</DistanceMeters>
          </Trackpoint>
          <Trackpoint>
            <Time>2022-07-15T14:57:05.000Z</Time>
            <Position>
              <LatitudeDegrees>43.39660000987350940704345703125</LatitudeDegrees>
              <LongitudeDegrees>-4.63849961757659912109375</LongitudeDegrees>
            </Position>
            <AltitudeMeters>50.59999847412109375</AltitudeMeters>
            <DistanceMeters>NAN</DistanceMeters>
          </Trackpoint>
          <Trackpoint>
            <Time>2022-07-15T14:57:06.000Z</Time>
            <Position>
              <LatitudeDegrees>43.39660000987350940704345703125</LatitudeDegrees>
              <LongitudeDegrees>-4.63849961757659912109375</LongitudeDegrees>
            </Position>
            <AltitudeMeters>50.40000152587890625</AltitudeMeters>
            <DistanceMeters>NAN</DistanceMeters>
          </Trackpoint>
          <Trackpoint>
            <Time>2022-07-15T14:57:07.000Z</Time>
            <Position>
              <LatitudeDegrees>43.39660000987350940704345703125</LatitudeDegrees>
              <LongitudeDegrees>-4.63849961757659912109375</LongitudeDegrees>
            </Position>
            <AltitudeMeters>49</AltitudeMeters>
            <DistanceMeters>NAN</DistanceMeters>
          </Trackpoint>
          <Trackpoint>
            <Time>2022-07-15T14:57:11.000Z</Time>
            <Position>
              <LatitudeDegrees>43.396635465323925018310546875</LatitudeDegrees>
              <LongitudeDegrees>-4.6384655870497226715087890625</LongitudeDegrees>
            </Position>
            <AltitudeMeters>45.40000152587890625</AltitudeMeters>
            <DistanceMeters>NAN</DistanceMeters>
          </Trackpoint>
          <Trackpoint>
            <Time>2022-07-15T14:57:12.000Z</Time>
            <Position>
              <LatitudeDegrees>43.39664988219738006591796875</LatitudeDegrees>
              <LongitudeDegrees>-4.63844840414822101593017578125</LongitudeDegrees>
            </Position>
            <AltitudeMeters>45.200000762939453125</AltitudeMeters>
            <DistanceMeters>NAN</DistanceMeters>
          </Trackpoint>
          <Trackpoint>
            <Time>2022-07-15T14:57:19.000Z</Time>
            <Position>
              <LatitudeDegrees>43.39675717055797576904296875</LatitudeDegrees>
              <LongitudeDegrees>-4.63826282881200313568115234375</LongitudeDegrees>
            </Position>
            <AltitudeMeters>45.799999237060546875</AltitudeMeters>
            <DistanceMeters>NAN</DistanceMeters>
          </Trackpoint>
          <Trackpoint>
            <Time>2022-07-15T14:57:23.000Z</Time>
            <Position>
              <LatitudeDegrees>43.3968253992497920989990234375</LatitudeDegrees>
              <LongitudeDegrees>-4.63816459290683269500732421875</LongitudeDegrees>
            </Position>
            <AltitudeMeters>46.40000152587890625</AltitudeMeters>
            <DistanceMeters>NAN</DistanceMeters>
          </Trackpoint>
          <Trackpoint>
            <Time>2022-07-15T14:57:25.000Z</Time>
            <Position>
              <LatitudeDegrees>43.396847359836101531982421875</LatitudeDegrees>
              <LongitudeDegrees>-4.63811245746910572052001953125</LongitudeDegrees>
            </Position>
            <AltitudeMeters>46.799999237060546875</AltitudeMeters>
            <DistanceMeters>NAN</DistanceMeters>
          </Trackpoint>
          <Trackpoint>
            <Time>2022-07-15T14:57:28.000Z</Time>
            <Position>
              <LatitudeDegrees>43.39686957187950611114501953125</LatitudeDegrees>
              <LongitudeDegrees>-4.63802461512386798858642578125</LongitudeDegrees>
            </Position>
            <AltitudeMeters>47.59999847412109375</AltitudeMeters>
            <DistanceMeters>NAN</DistanceMeters>
          </Trackpoint>
          <Trackpoint>
            <Time>2022-07-15T14:57:33.000Z</Time>
            <Position>
              <LatitudeDegrees>43.396910727024078369140625</LatitudeDegrees>
              <LongitudeDegrees>-4.63785077445209026336669921875</LongitudeDegrees>
            </Position>
            <AltitudeMeters>48</AltitudeMeters>
            <DistanceMeters>NAN</DistanceMeters>
          </Trackpoint>
          <Trackpoint>
            <Time>2022-07-15T14:57:37.000Z</Time>
            <Position>
              <LatitudeDegrees>43.3969548158347606658935546875</LatitudeDegrees>
              <LongitudeDegrees>-4.63771649636328220367431640625</LongitudeDegrees>
            </Position>
            <AltitudeMeters>48.200000762939453125</AltitudeMeters>
            <DistanceMeters>NAN</DistanceMeters>
          </Trackpoint>
          <Trackpoint>
            <Time>2022-07-15T14:57:38.000Z</Time>
            <Position>
              <LatitudeDegrees>43.3969618566334247589111328125</LatitudeDegrees>
              <LongitudeDegrees>-4.63767341338098049163818359375</LongitudeDegrees>
            </Position>
            <AltitudeMeters>48.200000762939453125</AltitudeMeters>
            <DistanceMeters>NAN</DistanceMeters>
          </Trackpoint>
          <Trackpoint>
            <Time>2022-07-15T14:57:44.000Z</Time>
            <Position>
              <LatitudeDegrees>43.396988175809383392333984375</LatitudeDegrees>
              <LongitudeDegrees>-4.63756419718265533447265625</LongitudeDegrees>
            </Position>
            <AltitudeMeters>48.59999847412109375</AltitudeMeters>
            <DistanceMeters>NAN</DistanceMeters>
          </Trackpoint>
          <Trackpoint>
            <Time>2022-07-15T14:57:45.000Z</Time>
            <Position>
              <LatitudeDegrees>43.39699923992156982421875</LatitudeDegrees>
              <LongitudeDegrees>-4.637551121413707733154296875</LongitudeDegrees>
            </Position>
            <AltitudeMeters>48.59999847412109375</AltitudeMeters>
            <DistanceMeters>NAN</DistanceMeters>
          </Trackpoint>
          <Trackpoint>
            <Time>2022-07-15T14:57:48.000Z</Time>
            <Position>
              <LatitudeDegrees>43.3970305882394313812255859375</LatitudeDegrees>
              <LongitudeDegrees>-4.6375660412013530731201171875</LongitudeDegrees>
            </Position>
            <AltitudeMeters>49</AltitudeMeters>
            <DistanceMeters>NAN</DistanceMeters>
          </Trackpoint>
          <Trackpoint>
            <Time>2022-07-15T14:57:51.000Z</Time>
            <Position>
              <LatitudeDegrees>43.397069312632083892822265625</LatitudeDegrees>
              <LongitudeDegrees>-4.637582637369632720947265625</LongitudeDegrees>
            </Position>
            <AltitudeMeters>49.40000152587890625</AltitudeMeters>
            <DistanceMeters>NAN</DistanceMeters>
          </Trackpoint>
          <Trackpoint>
            <Time>2022-07-15T14:57:52.000Z</Time>
            <Position>
              <LatitudeDegrees>43.39707995764911174774169921875</LatitudeDegrees>
              <LongitudeDegrees>-4.63759412057697772979736328125</LongitudeDegrees>
            </Position>
            <AltitudeMeters>49.59999847412109375</AltitudeMeters>
            <DistanceMeters>NAN</DistanceMeters>
          </Trackpoint>
          <Trackpoint>
            <Time>2022-07-15T14:57:54.000Z</Time>
            <Position>
              <LatitudeDegrees>43.3971033431589603424072265625</LatitudeDegrees>
              <LongitudeDegrees>-4.6376186795532703399658203125</LongitudeDegrees>
            </Position>
            <AltitudeMeters>50.200000762939453125</AltitudeMeters>
            <DistanceMeters>NAN</DistanceMeters>
          </Trackpoint>
          <Trackpoint>
            <Time>2022-07-15T14:57:55.000Z</Time>
            <Position>
              <LatitudeDegrees>43.39710745029151439666748046875</LatitudeDegrees>
              <LongitudeDegrees>-4.63764340616762638092041015625</LongitudeDegrees>
            </Position>
            <AltitudeMeters>50.59999847412109375</AltitudeMeters>
            <DistanceMeters>NAN</DistanceMeters>
          </Trackpoint>
          <Trackpoint>
            <Time>2022-07-15T14:57:56.000Z</Time>
            <Position>
              <LatitudeDegrees>43.3971051871776580810546875</LatitudeDegrees>
              <LongitudeDegrees>-4.63766335509717464447021484375</LongitudeDegrees>
            </Position>
            <AltitudeMeters>51</AltitudeMeters>
            <DistanceMeters>NAN</DistanceMeters>
          </Trackpoint>
          <Trackpoint>
            <Time>2022-07-15T14:57:58.000Z</Time>
            <Position>
              <LatitudeDegrees>43.397108875215053558349609375</LatitudeDegrees>
              <LongitudeDegrees>-4.6376967988908290863037109375</LongitudeDegrees>
            </Position>
            <AltitudeMeters>51.40000152587890625</AltitudeMeters>
            <DistanceMeters>NAN</DistanceMeters>
          </Trackpoint>
          <Trackpoint>
            <Time>2022-07-15T14:57:59.000Z</Time>
            <Position>
              <LatitudeDegrees>43.39711365289986133575439453125</LatitudeDegrees>
              <LongitudeDegrees>-4.63772186078131198883056640625</LongitudeDegrees>
            </Position>
            <AltitudeMeters>51.59999847412109375</AltitudeMeters>
            <DistanceMeters>NAN</DistanceMeters>
          </Trackpoint>
          <Trackpoint>
            <Time>2022-07-15T14:58:00.000Z</Time>
            <Position>
              <LatitudeDegrees>43.3971134014427661895751953125</LatitudeDegrees>
              <LongitudeDegrees>-4.63775438256561756134033203125</LongitudeDegrees>
            </Position>
            <AltitudeMeters>51.59999847412109375</AltitudeMeters>
            <DistanceMeters>NAN</DistanceMeters>
          </Trackpoint>
          <Trackpoint>
            <Time>2022-07-15T14:58:03.000Z</Time>
            <Position>
              <LatitudeDegrees>43.3971362002193927764892578125</LatitudeDegrees>
              <LongitudeDegrees>-4.6378131397068500518798828125</LongitudeDegrees>
            </Position>
            <AltitudeMeters>52.40000152587890625</AltitudeMeters>
            <DistanceMeters>NAN</DistanceMeters>
          </Trackpoint>
          <Trackpoint>
            <Time>2022-07-15T14:58:05.000Z</Time>
            <Position>
              <LatitudeDegrees>43.39714902453124523162841796875</LatitudeDegrees>
              <LongitudeDegrees>-4.6378446556627750396728515625</LongitudeDegrees>
            </Position>
            <AltitudeMeters>52.799999237060546875</AltitudeMeters>
            <DistanceMeters>NAN</DistanceMeters>
          </Trackpoint>
          <Trackpoint>
            <Time>2022-07-15T14:58:07.000Z</Time>
            <Position>
              <LatitudeDegrees>43.39714852161705493927001953125</LatitudeDegrees>
              <LongitudeDegrees>-4.637884385883808135986328125</LongitudeDegrees>
            </Position>
            <AltitudeMeters>53.200000762939453125</AltitudeMeters>
            <DistanceMeters>NAN</DistanceMeters>
          </Trackpoint>
          <Trackpoint>
            <Time>2022-07-15T14:58:10.000Z</Time>
            <Position>
              <LatitudeDegrees>43.39717090129852294921875</LatitudeDegrees>
              <LongitudeDegrees>-4.6379455737769603729248046875</LongitudeDegrees>
            </Position>
            <AltitudeMeters>53.59999847412109375</AltitudeMeters>
            <DistanceMeters>NAN</DistanceMeters>
          </Trackpoint>
          <Trackpoint>
            <Time>2022-07-15T14:58:12.000Z</Time>
            <Position>
              <LatitudeDegrees>43.39719437062740325927734375</LatitudeDegrees>
              <LongitudeDegrees>-4.63798119686543941497802734375</LongitudeDegrees>
            </Position>
            <AltitudeMeters>54</AltitudeMeters>
            <DistanceMeters>NAN</DistanceMeters>
          </Trackpoint>
          <Trackpoint>
            <Time>2022-07-15T14:58:14.000Z</Time>
            <Position>
              <LatitudeDegrees>43.39720803312957286834716796875</LatitudeDegrees>
              <LongitudeDegrees>-4.638019166886806488037109375</LongitudeDegrees>
            </Position>
            <AltitudeMeters>54.59999847412109375</AltitudeMeters>
            <DistanceMeters>NAN</DistanceMeters>
          </Trackpoint>
          <Trackpoint>
            <Time>2022-07-15T14:58:16.000Z</Time>
            <Position>
              <LatitudeDegrees>43.3972233720123767852783203125</LatitudeDegrees>
              <LongitudeDegrees>-4.6380612440407276153564453125</LongitudeDegrees>
            </Position>
            <AltitudeMeters>55</AltitudeMeters>
            <DistanceMeters>NAN</DistanceMeters>
          </Trackpoint>
          <Trackpoint>
            <Time>2022-07-15T14:58:18.000Z</Time>
            <Position>
              <LatitudeDegrees>43.39725111611187458038330078125</LatitudeDegrees>
              <LongitudeDegrees>-4.63809200562536716461181640625</LongitudeDegrees>
            </Position>
            <AltitudeMeters>55.40000152587890625</AltitudeMeters>
            <DistanceMeters>NAN</DistanceMeters>
          </Trackpoint>
          <Trackpoint>
            <Time>2022-07-15T14:58:21.000Z</Time>
            <Position>
              <LatitudeDegrees>43.3972860686480998992919921875</LatitudeDegrees>
              <LongitudeDegrees>-4.63813550770282745361328125</LongitudeDegrees>
            </Position>
            <AltitudeMeters>56</AltitudeMeters>
            <DistanceMeters>NAN</DistanceMeters>
          </Trackpoint>
          <Trackpoint>
            <Time>2022-07-15T14:58:22.000Z</Time>
            <Position>
              <LatitudeDegrees>43.3972910977900028228759765625</LatitudeDegrees>
              <LongitudeDegrees>-4.63815453462302684783935546875</LongitudeDegrees>
            </Position>
            <AltitudeMeters>56.200000762939453125</AltitudeMeters>
            <DistanceMeters>NAN</DistanceMeters>
          </Trackpoint>
          <Trackpoint>
            <Time>2022-07-15T14:58:27.000Z</Time>
            <Position>
              <LatitudeDegrees>43.39731347747147083282470703125</LatitudeDegrees>
              <LongitudeDegrees>-4.6382595598697662353515625</LongitudeDegrees>
            </Position>
            <AltitudeMeters>56.59999847412109375</AltitudeMeters>
            <DistanceMeters>NAN</DistanceMeters>
          </Trackpoint>
          <Trackpoint>
            <Time>2022-07-15T14:58:30.000Z</Time>
            <Position>
              <LatitudeDegrees>43.397308029234409332275390625</LatitudeDegrees>
              <LongitudeDegrees>-4.6383505873382091522216796875</LongitudeDegrees>
            </Position>
            <AltitudeMeters>56.799999237060546875</AltitudeMeters>
            <DistanceMeters>NAN</DistanceMeters>
          </Trackpoint>
          <Trackpoint>
            <Time>2022-07-15T14:58:31.000Z</Time>
            <Position>
              <LatitudeDegrees>43.3973090350627899169921875</LatitudeDegrees>
              <LongitudeDegrees>-4.6383797563612461090087890625</LongitudeDegrees>
            </Position>
            <AltitudeMeters>56.799999237060546875</AltitudeMeters>
            <DistanceMeters>NAN</DistanceMeters>
          </Trackpoint>
          <Trackpoint>
            <Time>2022-07-15T14:58:34.000Z</Time>
            <Position>
              <LatitudeDegrees>43.397320099174976348876953125</LatitudeDegrees>
              <LongitudeDegrees>-4.638478495180606842041015625</LongitudeDegrees>
            </Position>
            <AltitudeMeters>56.799999237060546875</AltitudeMeters>
            <DistanceMeters>NAN</DistanceMeters>
          </Trackpoint>
          <Trackpoint>
            <Time>2022-07-15T14:58:36.000Z</Time>
            <Position>
              <LatitudeDegrees>43.39732454158365726470947265625</LatitudeDegrees>
              <LongitudeDegrees>-4.63854814879596233367919921875</LongitudeDegrees>
            </Position>
            <AltitudeMeters>56.799999237060546875</AltitudeMeters>
            <DistanceMeters>NAN</DistanceMeters>
          </Trackpoint>
          <Trackpoint>
            <Time>2022-07-15T14:58:41.000Z</Time>
            <Position>
              <LatitudeDegrees>43.397334180772304534912109375</LatitudeDegrees>
              <LongitudeDegrees>-4.63879709132015705108642578125</LongitudeDegrees>
            </Position>
            <AltitudeMeters>56.200000762939453125</AltitudeMeters>
            <DistanceMeters>NAN</DistanceMeters>
          </Trackpoint>
          <Trackpoint>
            <Time>2022-07-15T14:58:44.000Z</Time>
            <Position>
              <LatitudeDegrees>43.3973330073058605194091796875</LatitudeDegrees>
              <LongitudeDegrees>-4.63895852677524089813232421875</LongitudeDegrees>
            </Position>
            <AltitudeMeters>55</AltitudeMeters>
            <DistanceMeters>NAN</DistanceMeters>
          </Trackpoint>
          <Trackpoint>
            <Time>2022-07-15T14:58:46.000Z</Time>
            <Position>
              <LatitudeDegrees>43.3973568119108676910400390625</LatitudeDegrees>
              <LongitudeDegrees>-4.63907604105770587921142578125</LongitudeDegrees>
            </Position>
            <AltitudeMeters>54.40000152587890625</AltitudeMeters>
            <DistanceMeters>NAN</DistanceMeters>
          </Trackpoint>
          <Trackpoint>
            <Time>2022-07-15T14:58:47.000Z</Time>
            <Position>
              <LatitudeDegrees>43.397375755012035369873046875</LatitudeDegrees>
              <LongitudeDegrees>-4.6391205489635467529296875</LongitudeDegrees>
            </Position>
            <AltitudeMeters>54.200000762939453125</AltitudeMeters>
            <DistanceMeters>NAN</DistanceMeters>
          </Trackpoint>
          <Trackpoint>
            <Time>2022-07-15T14:58:48.000Z</Time>
            <Position>
              <LatitudeDegrees>43.39740852825343608856201171875</LatitudeDegrees>
              <LongitudeDegrees>-4.639186598360538482666015625</LongitudeDegrees>
            </Position>
            <AltitudeMeters>53.799999237060546875</AltitudeMeters>
            <DistanceMeters>NAN</DistanceMeters>
          </Trackpoint>
          <Trackpoint>
            <Time>2022-07-15T14:58:51.000Z</Time>
            <Position>
              <LatitudeDegrees>43.39750626124441623687744140625</LatitudeDegrees>
              <LongitudeDegrees>-4.639327414333820343017578125</LongitudeDegrees>
            </Position>
            <AltitudeMeters>52.799999237060546875</AltitudeMeters>
            <DistanceMeters>NAN</DistanceMeters>
          </Trackpoint>
          <Trackpoint>
            <Time>2022-07-15T14:58:52.000Z</Time>
            <Position>
              <LatitudeDegrees>43.39753408916294574737548828125</LatitudeDegrees>
              <LongitudeDegrees>-4.63937862776219844818115234375</LongitudeDegrees>
            </Position>
            <AltitudeMeters>52.799999237060546875</AltitudeMeters>
            <DistanceMeters>NAN</DistanceMeters>
          </Trackpoint>
          <Trackpoint>
            <Time>2022-07-15T14:58:54.000Z</Time>
            <Position>
              <LatitudeDegrees>43.39755772612988948822021484375</LatitudeDegrees>
              <LongitudeDegrees>-4.639478288590908050537109375</LongitudeDegrees>
            </Position>
            <AltitudeMeters>52.59999847412109375</AltitudeMeters>
            <DistanceMeters>NAN</DistanceMeters>
          </Trackpoint>
          <Trackpoint>
            <Time>2022-07-15T14:58:56.000Z</Time>
            <Position>
              <LatitudeDegrees>43.39756719768047332763671875</LatitudeDegrees>
              <LongitudeDegrees>-4.6395773626863956451416015625</LongitudeDegrees>
            </Position>
            <AltitudeMeters>52.59999847412109375</AltitudeMeters>
            <DistanceMeters>NAN</DistanceMeters>
          </Trackpoint>
          <Trackpoint>
            <Time>2022-07-15T14:58:57.000Z</Time>
            <Position>
              <LatitudeDegrees>43.397549092769622802734375</LatitudeDegrees>
              <LongitudeDegrees>-4.639646597206592559814453125</LongitudeDegrees>
            </Position>
            <AltitudeMeters>52.59999847412109375</AltitudeMeters>
            <DistanceMeters>NAN</DistanceMeters>
          </Trackpoint>
          <Trackpoint>
            <Time>2022-07-15T14:59:06.000Z</Time>
            <Position>
              <LatitudeDegrees>43.3974134735763072967529296875</LatitudeDegrees>
              <LongitudeDegrees>-4.64007231406867504119873046875</LongitudeDegrees>
            </Position>
            <AltitudeMeters>52.40000152587890625</AltitudeMeters>
            <DistanceMeters>NAN</DistanceMeters>
          </Trackpoint>
          <Trackpoint>
            <Time>2022-07-15T14:59:08.000Z</Time>
            <Position>
              <LatitudeDegrees>43.39738070033490657806396484375</LatitudeDegrees>
              <LongitudeDegrees>-4.6401399560272693634033203125</LongitudeDegrees>
            </Position>
            <AltitudeMeters>52.799999237060546875</AltitudeMeters>
            <DistanceMeters>NAN</DistanceMeters>
          </Trackpoint>
          <Trackpoint>
            <Time>2022-07-15T14:59:09.000Z</Time>
            <Position>
              <LatitudeDegrees>43.39736360125243663787841796875</LatitudeDegrees>
              <LongitudeDegrees>-4.6401795186102390289306640625</LongitudeDegrees>
            </Position>
            <AltitudeMeters>53</AltitudeMeters>
            <DistanceMeters>NAN</DistanceMeters>
          </Trackpoint>
          <Trackpoint>
            <Time>2022-07-15T14:59:12.000Z</Time>
            <Position>
              <LatitudeDegrees>43.39734784327447414398193359375</LatitudeDegrees>
              <LongitudeDegrees>-4.6402646787464618682861328125</LongitudeDegrees>
            </Position>
            <AltitudeMeters>53.40000152587890625</AltitudeMeters>
            <DistanceMeters>NAN</DistanceMeters>
          </Trackpoint>
          <Trackpoint>
            <Time>2022-07-15T14:59:17.000Z</Time>
            <Position>
              <LatitudeDegrees>43.39731012471020221710205078125</LatitudeDegrees>
              <LongitudeDegrees>-4.6403669379651546478271484375</LongitudeDegrees>
            </Position>
            <AltitudeMeters>53.799999237060546875</AltitudeMeters>
            <DistanceMeters>NAN</DistanceMeters>
          </Trackpoint>
          <Trackpoint>
            <Time>2022-07-15T14:59:18.000Z</Time>
            <Position>
              <LatitudeDegrees>43.39729989878833293914794921875</LatitudeDegrees>
              <LongitudeDegrees>-4.64038529433310031890869140625</LongitudeDegrees>
            </Position>
            <AltitudeMeters>53.799999237060546875</AltitudeMeters>
            <DistanceMeters>NAN</DistanceMeters>
          </Trackpoint>
          <Trackpoint>
            <Time>2022-07-15T14:59:24.000Z</Time>
            <Position>
              <LatitudeDegrees>43.3972558937966823577880859375</LatitudeDegrees>
              <LongitudeDegrees>-4.64048889465630054473876953125</LongitudeDegrees>
            </Position>
            <AltitudeMeters>54.59999847412109375</AltitudeMeters>
            <DistanceMeters>NAN</DistanceMeters>
          </Trackpoint>
          <Trackpoint>
            <Time>2022-07-15T14:59:26.000Z</Time>
            <Position>
              <LatitudeDegrees>43.397235609591007232666015625</LatitudeDegrees>
              <LongitudeDegrees>-4.64051789604127407073974609375</LongitudeDegrees>
            </Position>
            <AltitudeMeters>55</AltitudeMeters>
            <DistanceMeters>NAN</DistanceMeters>
          </Trackpoint>
          <Trackpoint>
            <Time>2022-07-15T14:59:32.000Z</Time>
            <Position>
              <LatitudeDegrees>43.39719059877097606658935546875</LatitudeDegrees>
              <LongitudeDegrees>-4.64065535925328731536865234375</LongitudeDegrees>
            </Position>
            <AltitudeMeters>56</AltitudeMeters>
            <DistanceMeters>NAN</DistanceMeters>
          </Trackpoint>
          <Trackpoint>
            <Time>2022-07-15T14:59:37.000Z</Time>
            <Position>
              <LatitudeDegrees>43.3971563167870044708251953125</LatitudeDegrees>
              <LongitudeDegrees>-4.64081109501421451568603515625</LongitudeDegrees>
            </Position>
            <AltitudeMeters>56</AltitudeMeters>
            <DistanceMeters>NAN</DistanceMeters>
          </Trackpoint>
          <Trackpoint>
            <Time>2022-07-15T14:59:38.000Z</Time>
            <Position>
              <LatitudeDegrees>43.3971539698541164398193359375</LatitudeDegrees>
              <LongitudeDegrees>-4.64087043888866901397705078125</LongitudeDegrees>
            </Position>
            <AltitudeMeters>56</AltitudeMeters>
            <DistanceMeters>NAN</DistanceMeters>
          </Trackpoint>
          <Trackpoint>
            <Time>2022-07-15T14:59:40.000Z</Time>
            <Position>
              <LatitudeDegrees>43.39715673588216304779052734375</LatitudeDegrees>
              <LongitudeDegrees>-4.64097688905894756317138671875</LongitudeDegrees>
            </Position>
            <AltitudeMeters>55.799999237060546875</AltitudeMeters>
            <DistanceMeters>NAN</DistanceMeters>
          </Trackpoint>
          <Trackpoint>
            <Time>2022-07-15T14:59:43.000Z</Time>
            <Position>
              <LatitudeDegrees>43.39718758128583431243896484375</LatitudeDegrees>
              <LongitudeDegrees>-4.641166068613529205322265625</LongitudeDegrees>
            </Position>
            <AltitudeMeters>55</AltitudeMeters>
            <DistanceMeters>NAN</DistanceMeters>
          </Trackpoint>
          <Trackpoint>
            <Time>2022-07-15T14:59:44.000Z</Time>
            <Position>
              <LatitudeDegrees>43.3971958793699741363525390625</LatitudeDegrees>
              <LongitudeDegrees>-4.6412339620292186737060546875</LongitudeDegrees>
            </Position>
            <AltitudeMeters>54.799999237060546875</AltitudeMeters>
            <DistanceMeters>NAN</DistanceMeters>
          </Trackpoint>
          <Trackpoint>
            <Time>2022-07-15T14:59:49.000Z</Time>
            <Position>
              <LatitudeDegrees>43.39722865261137485504150390625</LatitudeDegrees>
              <LongitudeDegrees>-4.6415893547236919403076171875</LongitudeDegrees>
            </Position>
            <AltitudeMeters>54</AltitudeMeters>
            <DistanceMeters>NAN</DistanceMeters>
          </Trackpoint>
          <Trackpoint>
            <Time>2022-07-15T14:59:50.000Z</Time>
            <Position>
              <LatitudeDegrees>43.39722664095461368560791015625</LatitudeDegrees>
              <LongitudeDegrees>-4.64166118763387203216552734375</LongitudeDegrees>
            </Position>
            <AltitudeMeters>53.799999237060546875</AltitudeMeters>
            <DistanceMeters>NAN</DistanceMeters>
          </Trackpoint>
          <Trackpoint>
            <Time>2022-07-15T14:59:58.000Z</Time>
            <Position>
              <LatitudeDegrees>43.397184312343597412109375</LatitudeDegrees>
              <LongitudeDegrees>-4.64225680567324161529541015625</LongitudeDegrees>
            </Position>
            <AltitudeMeters>53.40000152587890625</AltitudeMeters>
            <DistanceMeters>NAN</DistanceMeters>
          </Trackpoint>
          <Trackpoint>
            <Time>2022-07-15T15:00:00.000Z</Time>
            <Position>
              <LatitudeDegrees>43.39716277085244655609130859375</LatitudeDegrees>
              <LongitudeDegrees>-4.64239041320979595184326171875</LongitudeDegrees>
            </Position>
            <AltitudeMeters>53.200000762939453125</AltitudeMeters>
            <DistanceMeters>NAN</DistanceMeters>
          </Trackpoint>
          <Trackpoint>
            <Time>2022-07-15T15:00:03.000Z</Time>
            <Position>
              <LatitudeDegrees>43.39712974615395069122314453125</LatitudeDegrees>
              <LongitudeDegrees>-4.642589986324310302734375</LongitudeDegrees>
            </Position>
            <AltitudeMeters>52.799999237060546875</AltitudeMeters>
            <DistanceMeters>NAN</DistanceMeters>
          </Trackpoint>
          <Trackpoint>
            <Time>2022-07-15T15:00:04.000Z</Time>
            <Position>
              <LatitudeDegrees>43.39711952023208141326904296875</LatitudeDegrees>
              <LongitudeDegrees>-4.6426555328071117401123046875</LongitudeDegrees>
            </Position>
            <AltitudeMeters>52.799999237060546875</AltitudeMeters>
            <DistanceMeters>NAN</DistanceMeters>
          </Trackpoint>
          <Trackpoint>
            <Time>2022-07-15T15:00:05.000Z</Time>
            <Position>
              <LatitudeDegrees>43.3971110545098781585693359375</LatitudeDegrees>
              <LongitudeDegrees>-4.64271764270961284637451171875</LongitudeDegrees>
            </Position>
            <AltitudeMeters>52.799999237060546875</AltitudeMeters>
            <DistanceMeters>NAN</DistanceMeters>
          </Trackpoint>
          <Trackpoint>
            <Time>2022-07-15T15:00:11.000Z</Time>
            <Position>
              <LatitudeDegrees>43.3970999903976917266845703125</LatitudeDegrees>
              <LongitudeDegrees>-4.64313556440174579620361328125</LongitudeDegrees>
            </Position>
            <AltitudeMeters>52.200000762939453125</AltitudeMeters>
            <DistanceMeters>NAN</DistanceMeters>
          </Trackpoint>
          <Trackpoint>
            <Time>2022-07-15T15:00:12.000Z</Time>
            <Position>
              <LatitudeDegrees>43.39710711501538753509521484375</LatitudeDegrees>
              <LongitudeDegrees>-4.64321049861609935760498046875</LongitudeDegrees>
            </Position>
            <AltitudeMeters>52.200000762939453125</AltitudeMeters>
            <DistanceMeters>NAN</DistanceMeters>
          </Trackpoint>
          <Trackpoint>
            <Time>2022-07-15T15:00:14.000Z</Time>
            <Position>
              <LatitudeDegrees>43.397137038409709930419921875</LatitudeDegrees>
              <LongitudeDegrees>-4.64333874173462390899658203125</LongitudeDegrees>
            </Position>
            <AltitudeMeters>52.40000152587890625</AltitudeMeters>
            <DistanceMeters>NAN</DistanceMeters>
          </Trackpoint>
          <Trackpoint>
            <Time>2022-07-15T15:00:15.000Z</Time>
            <Position>
              <LatitudeDegrees>43.39715681970119476318359375</LatitudeDegrees>
              <LongitudeDegrees>-4.6433830820024013519287109375</LongitudeDegrees>
            </Position>
            <AltitudeMeters>52.40000152587890625</AltitudeMeters>
            <DistanceMeters>NAN</DistanceMeters>
          </Trackpoint>
          <Trackpoint>
            <Time>2022-07-15T15:00:20.000Z</Time>
            <Position>
              <LatitudeDegrees>43.39722362346947193145751953125</LatitudeDegrees>
              <LongitudeDegrees>-4.64355465956032276153564453125</LongitudeDegrees>
            </Position>
            <AltitudeMeters>53.59999847412109375</AltitudeMeters>
            <DistanceMeters>NAN</DistanceMeters>
          </Trackpoint>
          <Trackpoint>
            <Time>2022-07-15T15:00:25.000Z</Time>
            <Position>
              <LatitudeDegrees>43.3972991444170475006103515625</LatitudeDegrees>
              <LongitudeDegrees>-4.64375683106482028961181640625</LongitudeDegrees>
            </Position>
            <AltitudeMeters>53.799999237060546875</AltitudeMeters>
            <DistanceMeters>NAN</DistanceMeters>
          </Trackpoint>
          <Trackpoint>
            <Time>2022-07-15T15:00:29.000Z</Time>
            <Position>
              <LatitudeDegrees>43.39736795984208583831787109375</LatitudeDegrees>
              <LongitudeDegrees>-4.64393578469753265380859375</LongitudeDegrees>
            </Position>
            <AltitudeMeters>53.799999237060546875</AltitudeMeters>
            <DistanceMeters>NAN</DistanceMeters>
          </Trackpoint>
          <Trackpoint>
            <Time>2022-07-15T15:00:30.000Z</Time>
            <Position>
              <LatitudeDegrees>43.39738103561103343963623046875</LatitudeDegrees>
              <LongitudeDegrees>-4.64398213662207126617431640625</LongitudeDegrees>
            </Position>
            <AltitudeMeters>53.59999847412109375</AltitudeMeters>
            <DistanceMeters>NAN</DistanceMeters>
          </Trackpoint>
          <Trackpoint>
            <Time>2022-07-15T15:00:36.000Z</Time>
            <Position>
              <LatitudeDegrees>43.3974426425993442535400390625</LatitudeDegrees>
              <LongitudeDegrees>-4.6442896686494350433349609375</LongitudeDegrees>
            </Position>
            <AltitudeMeters>53.40000152587890625</AltitudeMeters>
            <DistanceMeters>NAN</DistanceMeters>
          </Trackpoint>
          <Trackpoint>
            <Time>2022-07-15T15:00:38.000Z</Time>
            <Position>
              <LatitudeDegrees>43.39746586047112941741943359375</LatitudeDegrees>
              <LongitudeDegrees>-4.644407518208026885986328125</LongitudeDegrees>
            </Position>
            <AltitudeMeters>53.200000762939453125</AltitudeMeters>
            <DistanceMeters>NAN</DistanceMeters>
          </Trackpoint>
          <Trackpoint>
            <Time>2022-07-15T15:00:42.000Z</Time>
            <Position>
              <LatitudeDegrees>43.3975147269666194915771484375</LatitudeDegrees>
              <LongitudeDegrees>-4.64465864002704620361328125</LongitudeDegrees>
            </Position>
            <AltitudeMeters>52.799999237060546875</AltitudeMeters>
            <DistanceMeters>NAN</DistanceMeters>
          </Trackpoint>
          <Trackpoint>
            <Time>2022-07-15T15:00:45.000Z</Time>
            <Position>
              <LatitudeDegrees>43.39755286462604999542236328125</LatitudeDegrees>
              <LongitudeDegrees>-4.64485737495124340057373046875</LongitudeDegrees>
            </Position>
            <AltitudeMeters>52.200000762939453125</AltitudeMeters>
            <DistanceMeters>NAN</DistanceMeters>
          </Trackpoint>
          <Trackpoint>
            <Time>2022-07-15T15:00:51.000Z</Time>
            <Position>
              <LatitudeDegrees>43.39762729592621326446533203125</LatitudeDegrees>
              <LongitudeDegrees>-4.645234979689121246337890625</LongitudeDegrees>
            </Position>
            <AltitudeMeters>51.799999237060546875</AltitudeMeters>
            <DistanceMeters>NAN</DistanceMeters>
          </Trackpoint>
          <Trackpoint>
            <Time>2022-07-15T15:00:54.000Z</Time>
            <Position>
              <LatitudeDegrees>43.3976577222347259521484375</LatitudeDegrees>
              <LongitudeDegrees>-4.645418040454387664794921875</LongitudeDegrees>
            </Position>
            <AltitudeMeters>51.799999237060546875</AltitudeMeters>
            <DistanceMeters>NAN</DistanceMeters>
          </Trackpoint>
          <Trackpoint>
            <Time>2022-07-15T15:01:02.000Z</Time>
            <Position>
              <LatitudeDegrees>43.39771446771919727325439453125</LatitudeDegrees>
              <LongitudeDegrees>-4.645933024585247039794921875</LongitudeDegrees>
            </Position>
            <AltitudeMeters>51.59999847412109375</AltitudeMeters>
            <DistanceMeters>NAN</DistanceMeters>
          </Trackpoint>
          <Trackpoint>
            <Time>2022-07-15T15:01:05.000Z</Time>
            <Position>
              <LatitudeDegrees>43.39774900116026401519775390625</LatitudeDegrees>
              <LongitudeDegrees>-4.646158330142498016357421875</LongitudeDegrees>
            </Position>
            <AltitudeMeters>51</AltitudeMeters>
            <DistanceMeters>NAN</DistanceMeters>
          </Trackpoint>
          <Trackpoint>
            <Time>2022-07-15T15:01:06.000Z</Time>
            <Position>
              <LatitudeDegrees>43.3977698720991611480712890625</LatitudeDegrees>
              <LongitudeDegrees>-4.64623234234750270843505859375</LongitudeDegrees>
            </Position>
            <AltitudeMeters>50.59999847412109375</AltitudeMeters>
            <DistanceMeters>NAN</DistanceMeters>
          </Trackpoint>
          <Trackpoint>
            <Time>2022-07-15T15:01:07.000Z</Time>
            <Position>
              <LatitudeDegrees>43.3977953530848026275634765625</LatitudeDegrees>
              <LongitudeDegrees>-4.64630417525768280029296875</LongitudeDegrees>
            </Position>
            <AltitudeMeters>50.40000152587890625</AltitudeMeters>
            <DistanceMeters>NAN</DistanceMeters>
          </Trackpoint>
          <Trackpoint>
            <Time>2022-07-15T15:01:09.000Z</Time>
            <Position>
              <LatitudeDegrees>43.397860229015350341796875</LatitudeDegrees>
              <LongitudeDegrees>-4.6464340947568416595458984375</LongitudeDegrees>
            </Position>
            <AltitudeMeters>50.200000762939453125</AltitudeMeters>
            <DistanceMeters>NAN</DistanceMeters>
          </Trackpoint>
          <Trackpoint>
            <Time>2022-07-15T15:01:10.000Z</Time>
            <Position>
              <LatitudeDegrees>43.39790356345474720001220703125</LatitudeDegrees>
              <LongitudeDegrees>-4.64648731984198093414306640625</LongitudeDegrees>
            </Position>
            <AltitudeMeters>50.200000762939453125</AltitudeMeters>
            <DistanceMeters>NAN</DistanceMeters>
          </Trackpoint>
          <Trackpoint>
            <Time>2022-07-15T15:01:11.000Z</Time>
            <Position>
              <LatitudeDegrees>43.39795318432152271270751953125</LatitudeDegrees>
              <LongitudeDegrees>-4.64653082191944122314453125</LongitudeDegrees>
            </Position>
            <AltitudeMeters>50.200000762939453125</AltitudeMeters>
            <DistanceMeters>NAN</DistanceMeters>
          </Trackpoint>
          <Trackpoint>
            <Time>2022-07-15T15:01:14.000Z</Time>
            <Position>
              <LatitudeDegrees>43.398099951446056365966796875</LatitudeDegrees>
              <LongitudeDegrees>-4.6466151438653469085693359375</LongitudeDegrees>
            </Position>
            <AltitudeMeters>50.40000152587890625</AltitudeMeters>
            <DistanceMeters>NAN</DistanceMeters>
          </Trackpoint>
          <Trackpoint>
            <Time>2022-07-15T15:01:19.000Z</Time>
            <Position>
              <LatitudeDegrees>43.39831561781466007232666015625</LatitudeDegrees>
              <LongitudeDegrees>-4.64670608751475811004638671875</LongitudeDegrees>
            </Position>
            <AltitudeMeters>50.799999237060546875</AltitudeMeters>
            <DistanceMeters>NAN</DistanceMeters>
          </Trackpoint>
          <Trackpoint>
            <Time>2022-07-15T15:01:21.000Z</Time>
            <Position>
              <LatitudeDegrees>43.3983874507248401641845703125</LatitudeDegrees>
              <LongitudeDegrees>-4.6467541158199310302734375</LongitudeDegrees>
            </Position>
            <AltitudeMeters>50.799999237060546875</AltitudeMeters>
            <DistanceMeters>NAN</DistanceMeters>
          </Trackpoint>
          <Trackpoint>
            <Time>2022-07-15T15:01:26.000Z</Time>
            <Position>
              <LatitudeDegrees>43.39849029667675495147705078125</LatitudeDegrees>
              <LongitudeDegrees>-4.64683684520423412322998046875</LongitudeDegrees>
            </Position>
            <AltitudeMeters>51.200000762939453125</AltitudeMeters>
            <DistanceMeters>NAN</DistanceMeters>
          </Trackpoint>
          <Trackpoint>
            <Time>2022-07-15T15:01:30.000Z</Time>
            <Position>
              <LatitudeDegrees>43.39854352176189422607421875</LatitudeDegrees>
              <LongitudeDegrees>-4.6469400264322757720947265625</LongitudeDegrees>
            </Position>
            <AltitudeMeters>51.59999847412109375</AltitudeMeters>
            <DistanceMeters>NAN</DistanceMeters>
          </Trackpoint>
          <Trackpoint>
            <Time>2022-07-15T15:01:31.000Z</Time>
            <Position>
              <LatitudeDegrees>43.39856573380529880523681640625</LatitudeDegrees>
              <LongitudeDegrees>-4.6469847857952117919921875</LongitudeDegrees>
            </Position>
            <AltitudeMeters>51.799999237060546875</AltitudeMeters>
            <DistanceMeters>NAN</DistanceMeters>
          </Trackpoint>
          <Trackpoint>
            <Time>2022-07-15T15:01:33.000Z</Time>
            <Position>
              <LatitudeDegrees>43.39860613457858562469482421875</LatitudeDegrees>
              <LongitudeDegrees>-4.64706919156014919281005859375</LongitudeDegrees>
            </Position>
            <AltitudeMeters>51.799999237060546875</AltitudeMeters>
            <DistanceMeters>NAN</DistanceMeters>
          </Trackpoint>
          <Trackpoint>
            <Time>2022-07-15T15:01:36.000Z</Time>
            <Position>
              <LatitudeDegrees>43.3986821584403514862060546875</LatitudeDegrees>
              <LongitudeDegrees>-4.647213108837604522705078125</LongitudeDegrees>
            </Position>
            <AltitudeMeters>51</AltitudeMeters>
            <DistanceMeters>NAN</DistanceMeters>
          </Trackpoint>
          <Trackpoint>
            <Time>2022-07-15T15:01:37.000Z</Time>
            <Position>
              <LatitudeDegrees>43.3987089805305004119873046875</LatitudeDegrees>
              <LongitudeDegrees>-4.64727136306464672088623046875</LongitudeDegrees>
            </Position>
            <AltitudeMeters>50.59999847412109375</AltitudeMeters>
            <DistanceMeters>NAN</DistanceMeters>
          </Trackpoint>
          <Trackpoint>
            <Time>2022-07-15T15:01:40.000Z</Time>
            <Position>
              <LatitudeDegrees>43.39875550009310245513916015625</LatitudeDegrees>
              <LongitudeDegrees>-4.64740832336246967315673828125</LongitudeDegrees>
            </Position>
            <AltitudeMeters>50.200000762939453125</AltitudeMeters>
            <DistanceMeters>NAN</DistanceMeters>
          </Trackpoint>
          <Trackpoint>
            <Time>2022-07-15T15:01:42.000Z</Time>
            <Position>
              <LatitudeDegrees>43.3987529017031192779541015625</LatitudeDegrees>
              <LongitudeDegrees>-4.64750136248767375946044921875</LongitudeDegrees>
            </Position>
            <AltitudeMeters>49.59999847412109375</AltitudeMeters>
            <DistanceMeters>NAN</DistanceMeters>
          </Trackpoint>
          <Trackpoint>
            <Time>2022-07-15T15:01:43.000Z</Time>
            <Position>
              <LatitudeDegrees>43.3987441845238208770751953125</LatitudeDegrees>
              <LongitudeDegrees>-4.64753639884293079376220703125</LongitudeDegrees>
            </Position>
            <AltitudeMeters>49.40000152587890625</AltitudeMeters>
            <DistanceMeters>NAN</DistanceMeters>
          </Trackpoint>
          <Trackpoint>
            <Time>2022-07-15T15:01:46.000Z</Time>
            <Position>
              <LatitudeDegrees>43.3987163566052913665771484375</LatitudeDegrees>
              <LongitudeDegrees>-4.64770118705928325653076171875</LongitudeDegrees>
            </Position>
            <AltitudeMeters>48.200000762939453125</AltitudeMeters>
            <DistanceMeters>NAN</DistanceMeters>
          </Trackpoint>
          <Trackpoint>
            <Time>2022-07-15T15:01:47.000Z</Time>
            <Position>
              <LatitudeDegrees>43.39871208183467388153076171875</LatitudeDegrees>
              <LongitudeDegrees>-4.64773572050034999847412109375</LongitudeDegrees>
            </Position>
            <AltitudeMeters>47.59999847412109375</AltitudeMeters>
            <DistanceMeters>NAN</DistanceMeters>
          </Trackpoint>
          <Trackpoint>
            <Time>2022-07-15T15:01:49.000Z</Time>
            <Position>
              <LatitudeDegrees>43.39869665913283824920654296875</LatitudeDegrees>
              <LongitudeDegrees>-4.64780998416244983673095703125</LongitudeDegrees>
            </Position>
            <AltitudeMeters>46.59999847412109375</AltitudeMeters>
            <DistanceMeters>NAN</DistanceMeters>
          </Trackpoint>
          <Trackpoint>
            <Time>2022-07-15T15:01:51.000Z</Time>
            <Position>
              <LatitudeDegrees>43.39867905713617801666259765625</LatitudeDegrees>
              <LongitudeDegrees>-4.647878967225551605224609375</LongitudeDegrees>
            </Position>
            <AltitudeMeters>45.59999847412109375</AltitudeMeters>
            <DistanceMeters>NAN</DistanceMeters>
          </Trackpoint>
          <Trackpoint>
            <Time>2022-07-15T15:01:52.000Z</Time>
            <Position>
              <LatitudeDegrees>43.3986689150333404541015625</LatitudeDegrees>
              <LongitudeDegrees>-4.647905789315700531005859375</LongitudeDegrees>
            </Position>
            <AltitudeMeters>45.40000152587890625</AltitudeMeters>
            <DistanceMeters>NAN</DistanceMeters>
          </Trackpoint>
          <Trackpoint>
            <Time>2022-07-15T15:01:56.000Z</Time>
            <Position>
              <LatitudeDegrees>43.39861485175788402557373046875</LatitudeDegrees>
              <LongitudeDegrees>-4.648023135960102081298828125</LongitudeDegrees>
            </Position>
            <AltitudeMeters>44.200000762939453125</AltitudeMeters>
            <DistanceMeters>NAN</DistanceMeters>
          </Trackpoint>
          <Trackpoint>
            <Time>2022-07-15T15:01:58.000Z</Time>
            <Position>
              <LatitudeDegrees>43.39857394807040691375732421875</LatitudeDegrees>
              <LongitudeDegrees>-4.648131430149078369140625</LongitudeDegrees>
            </Position>
            <AltitudeMeters>43</AltitudeMeters>
            <DistanceMeters>NAN</DistanceMeters>
          </Trackpoint>
          <Trackpoint>
            <Time>2022-07-15T15:02:00.000Z</Time>
            <Position>
              <LatitudeDegrees>43.39857193641364574432373046875</LatitudeDegrees>
              <LongitudeDegrees>-4.64822052977979183197021484375</LongitudeDegrees>
            </Position>
            <AltitudeMeters>42.200000762939453125</AltitudeMeters>
            <DistanceMeters>NAN</DistanceMeters>
          </Trackpoint>
          <Trackpoint>
            <Time>2022-07-15T15:02:05.000Z</Time>
            <Position>
              <LatitudeDegrees>43.39860680513083934783935546875</LatitudeDegrees>
              <LongitudeDegrees>-4.648411385715007781982421875</LongitudeDegrees>
            </Position>
            <AltitudeMeters>42.200000762939453125</AltitudeMeters>
            <DistanceMeters>NAN</DistanceMeters>
          </Trackpoint>
          <Trackpoint>
            <Time>2022-07-15T15:02:07.000Z</Time>
            <Position>
              <LatitudeDegrees>43.39861233718693256378173828125</LatitudeDegrees>
              <LongitudeDegrees>-4.64847416616976261138916015625</LongitudeDegrees>
            </Position>
            <AltitudeMeters>42</AltitudeMeters>
            <DistanceMeters>NAN</DistanceMeters>
          </Trackpoint>
          <Trackpoint>
            <Time>2022-07-15T15:02:10.000Z</Time>
            <Position>
              <LatitudeDegrees>43.39857713319361209869384765625</LatitudeDegrees>
              <LongitudeDegrees>-4.648634679615497589111328125</LongitudeDegrees>
            </Position>
            <AltitudeMeters>41.59999847412109375</AltitudeMeters>
            <DistanceMeters>NAN</DistanceMeters>
          </Trackpoint>
          <Trackpoint>
            <Time>2022-07-15T15:02:11.000Z</Time>
            <Position>
              <LatitudeDegrees>43.39856036938726902008056640625</LatitudeDegrees>
              <LongitudeDegrees>-4.64868220500648021697998046875</LongitudeDegrees>
            </Position>
            <AltitudeMeters>41.40000152587890625</AltitudeMeters>
            <DistanceMeters>NAN</DistanceMeters>
          </Trackpoint>
          <Trackpoint>
            <Time>2022-07-15T15:02:14.000Z</Time>
            <Position>
              <LatitudeDegrees>43.39848426170647144317626953125</LatitudeDegrees>
              <LongitudeDegrees>-4.64878966100513935089111328125</LongitudeDegrees>
            </Position>
            <AltitudeMeters>41.40000152587890625</AltitudeMeters>
            <DistanceMeters>NAN</DistanceMeters>
          </Trackpoint>
          <Trackpoint>
            <Time>2022-07-15T15:02:19.000Z</Time>
            <Position>
              <LatitudeDegrees>43.39834579266607761383056640625</LatitudeDegrees>
              <LongitudeDegrees>-4.64881815947592258453369140625</LongitudeDegrees>
            </Position>
            <AltitudeMeters>41.40000152587890625</AltitudeMeters>
            <DistanceMeters>NAN</DistanceMeters>
          </Trackpoint>
          <Trackpoint>
            <Time>2022-07-15T15:02:21.000Z</Time>
            <Position>
              <LatitudeDegrees>43.39827974326908588409423828125</LatitudeDegrees>
              <LongitudeDegrees>-4.64883727021515369415283203125</LongitudeDegrees>
            </Position>
            <AltitudeMeters>40.799999237060546875</AltitudeMeters>
            <DistanceMeters>NAN</DistanceMeters>
          </Trackpoint>
          <Trackpoint>
            <Time>2022-07-15T15:02:23.000Z</Time>
            <Position>
              <LatitudeDegrees>43.3982389234006404876708984375</LatitudeDegrees>
              <LongitudeDegrees>-4.6488956920802593231201171875</LongitudeDegrees>
            </Position>
            <AltitudeMeters>39.59999847412109375</AltitudeMeters>
            <DistanceMeters>NAN</DistanceMeters>
          </Trackpoint>
          <Trackpoint>
            <Time>2022-07-15T15:02:25.000Z</Time>
            <Position>
              <LatitudeDegrees>43.39820145629346370697021484375</LatitudeDegrees>
              <LongitudeDegrees>-4.64900323189795017242431640625</LongitudeDegrees>
            </Position>
            <AltitudeMeters>38.40000152587890625</AltitudeMeters>
            <DistanceMeters>NAN</DistanceMeters>
          </Trackpoint>
          <Trackpoint>
            <Time>2022-07-15T15:02:27.000Z</Time>
            <Position>
              <LatitudeDegrees>43.3981762267649173736572265625</LatitudeDegrees>
              <LongitudeDegrees>-4.64912376366555690765380859375</LongitudeDegrees>
            </Position>
            <AltitudeMeters>37</AltitudeMeters>
            <DistanceMeters>NAN</DistanceMeters>
          </Trackpoint>
          <Trackpoint>
            <Time>2022-07-15T15:02:30.000Z</Time>
            <Position>
              <LatitudeDegrees>43.398117385804653167724609375</LatitudeDegrees>
              <LongitudeDegrees>-4.649355523288249969482421875</LongitudeDegrees>
            </Position>
            <AltitudeMeters>35.799999237060546875</AltitudeMeters>
            <DistanceMeters>NAN</DistanceMeters>
          </Trackpoint>
          <Trackpoint>
            <Time>2022-07-15T15:02:32.000Z</Time>
            <Position>
              <LatitudeDegrees>43.39810389094054698944091796875</LatitudeDegrees>
              <LongitudeDegrees>-4.64949038811028003692626953125</LongitudeDegrees>
            </Position>
            <AltitudeMeters>35.40000152587890625</AltitudeMeters>
            <DistanceMeters>NAN</DistanceMeters>
          </Trackpoint>
          <Trackpoint>
            <Time>2022-07-15T15:02:36.000Z</Time>
            <Position>
              <LatitudeDegrees>43.39808662422001361846923828125</LatitudeDegrees>
              <LongitudeDegrees>-4.6496778912842273712158203125</LongitudeDegrees>
            </Position>
            <AltitudeMeters>35.59999847412109375</AltitudeMeters>
            <DistanceMeters>NAN</DistanceMeters>
          </Trackpoint>
          <Trackpoint>
            <Time>2022-07-15T15:02:41.000Z</Time>
            <Position>
              <LatitudeDegrees>43.39805192314088344573974609375</LatitudeDegrees>
              <LongitudeDegrees>-4.64990747161209583282470703125</LongitudeDegrees>
            </Position>
            <AltitudeMeters>35.799999237060546875</AltitudeMeters>
            <DistanceMeters>NAN</DistanceMeters>
          </Trackpoint>
          <Trackpoint>
            <Time>2022-07-15T15:02:45.000Z</Time>
            <Position>
              <LatitudeDegrees>43.39812903665006160736083984375</LatitudeDegrees>
              <LongitudeDegrees>-4.6500550769269466400146484375</LongitudeDegrees>
            </Position>
            <AltitudeMeters>34.799999237060546875</AltitudeMeters>
            <DistanceMeters>NAN</DistanceMeters>
          </Trackpoint>
          <Trackpoint>
            <Time>2022-07-15T15:02:46.000Z</Time>
            <Position>
              <LatitudeDegrees>43.3981525897979736328125</LatitudeDegrees>
              <LongitudeDegrees>-4.650091119110584259033203125</LongitudeDegrees>
            </Position>
            <AltitudeMeters>34</AltitudeMeters>
            <DistanceMeters>NAN</DistanceMeters>
          </Trackpoint>
          <Trackpoint>
            <Time>2022-07-15T15:02:48.000Z</Time>
            <Position>
              <LatitudeDegrees>43.39818737469613552093505859375</LatitudeDegrees>
              <LongitudeDegrees>-4.65017057955265045166015625</LongitudeDegrees>
            </Position>
            <AltitudeMeters>32.799999237060546875</AltitudeMeters>
            <DistanceMeters>NAN</DistanceMeters>
          </Trackpoint>
          <Trackpoint>
            <Time>2022-07-15T15:02:50.000Z</Time>
            <Position>
              <LatitudeDegrees>43.398222662508487701416015625</LatitudeDegrees>
              <LongitudeDegrees>-4.650272838771343231201171875</LongitudeDegrees>
            </Position>
            <AltitudeMeters>30.6000003814697265625</AltitudeMeters>
            <DistanceMeters>NAN</DistanceMeters>
          </Trackpoint>
          <Trackpoint>
            <Time>2022-07-15T15:02:52.000Z</Time>
            <Position>
              <LatitudeDegrees>43.39824789203703403472900390625</LatitudeDegrees>
              <LongitudeDegrees>-4.650337211787700653076171875</LongitudeDegrees>
            </Position>
            <AltitudeMeters>28.200000762939453125</AltitudeMeters>
            <DistanceMeters>NAN</DistanceMeters>
          </Trackpoint>
          <Trackpoint>
            <Time>2022-07-15T15:02:53.000Z</Time>
            <Position>
              <LatitudeDegrees>43.3982526697218418121337890625</LatitudeDegrees>
              <LongitudeDegrees>-4.65038104914128780364990234375</LongitudeDegrees>
            </Position>
            <AltitudeMeters>27</AltitudeMeters>
            <DistanceMeters>NAN</DistanceMeters>
          </Trackpoint>
          <Trackpoint>
            <Time>2022-07-15T15:02:54.000Z</Time>
            <Position>
              <LatitudeDegrees>43.39826247654855251312255859375</LatitudeDegrees>
              <LongitudeDegrees>-4.65043636970221996307373046875</LongitudeDegrees>
            </Position>
            <AltitudeMeters>25.799999237060546875</AltitudeMeters>
            <DistanceMeters>NAN</DistanceMeters>
          </Trackpoint>
          <Trackpoint>
            <Time>2022-07-15T15:02:55.000Z</Time>
            <Position>
              <LatitudeDegrees>43.3982727862894535064697265625</LatitudeDegrees>
              <LongitudeDegrees>-4.65047257952392101287841796875</LongitudeDegrees>
            </Position>
            <AltitudeMeters>24.799999237060546875</AltitudeMeters>
            <DistanceMeters>NAN</DistanceMeters>
          </Trackpoint>
          <Trackpoint>
            <Time>2022-07-15T15:02:57.000Z</Time>
            <Position>
              <LatitudeDegrees>43.3982734568417072296142578125</LatitudeDegrees>
              <LongitudeDegrees>-4.65054667554795742034912109375</LongitudeDegrees>
            </Position>
            <AltitudeMeters>23.3999996185302734375</AltitudeMeters>
            <DistanceMeters>NAN</DistanceMeters>
          </Trackpoint>
          <Trackpoint>
            <Time>2022-07-15T15:02:59.000Z</Time>
            <Position>
              <LatitudeDegrees>43.3982580341398715972900390625</LatitudeDegrees>
              <LongitudeDegrees>-4.6506015770137310028076171875</LongitudeDegrees>
            </Position>
            <AltitudeMeters>23</AltitudeMeters>
            <DistanceMeters>NAN</DistanceMeters>
          </Trackpoint>
          <Trackpoint>
            <Time>2022-07-15T15:03:05.000Z</Time>
            <Position>
              <LatitudeDegrees>43.39825409464538097381591796875</LatitudeDegrees>
              <LongitudeDegrees>-4.65070744045078754425048828125</LongitudeDegrees>
            </Position>
            <AltitudeMeters>23</AltitudeMeters>
            <DistanceMeters>NAN</DistanceMeters>
          </Trackpoint>
          <Trackpoint>
            <Time>2022-07-15T15:03:08.000Z</Time>
            <Position>
              <LatitudeDegrees>43.39827773161232471466064453125</LatitudeDegrees>
              <LongitudeDegrees>-4.65075823478400707244873046875</LongitudeDegrees>
            </Position>
            <AltitudeMeters>23.3999996185302734375</AltitudeMeters>
            <DistanceMeters>NAN</DistanceMeters>
          </Trackpoint>
          <Trackpoint>
            <Time>2022-07-15T15:03:11.000Z</Time>
            <Position>
              <LatitudeDegrees>43.3983120135962963104248046875</LatitudeDegrees>
              <LongitudeDegrees>-4.65083937160670757293701171875</LongitudeDegrees>
            </Position>
            <AltitudeMeters>23.799999237060546875</AltitudeMeters>
            <DistanceMeters>NAN</DistanceMeters>
          </Trackpoint>
          <Trackpoint>
            <Time>2022-07-15T15:03:17.000Z</Time>
            <Position>
              <LatitudeDegrees>43.39844285510480403900146484375</LatitudeDegrees>
              <LongitudeDegrees>-4.65091816149652004241943359375</LongitudeDegrees>
            </Position>
            <AltitudeMeters>23.6000003814697265625</AltitudeMeters>
            <DistanceMeters>NAN</DistanceMeters>
          </Trackpoint>
          <Trackpoint>
            <Time>2022-07-15T15:03:21.000Z</Time>
            <Position>
              <LatitudeDegrees>43.398514688014984130859375</LatitudeDegrees>
              <LongitudeDegrees>-4.651041291654109954833984375</LongitudeDegrees>
            </Position>
            <AltitudeMeters>22.799999237060546875</AltitudeMeters>
            <DistanceMeters>NAN</DistanceMeters>
          </Trackpoint>
          <Trackpoint>
            <Time>2022-07-15T15:03:24.000Z</Time>
            <Position>
              <LatitudeDegrees>43.39850328862667083740234375</LatitudeDegrees>
              <LongitudeDegrees>-4.65119828470051288604736328125</LongitudeDegrees>
            </Position>
            <AltitudeMeters>22.200000762939453125</AltitudeMeters>
            <DistanceMeters>NAN</DistanceMeters>
          </Trackpoint>
          <Trackpoint>
            <Time>2022-07-15T15:03:26.000Z</Time>
            <Position>
              <LatitudeDegrees>43.39848862029612064361572265625</LatitudeDegrees>
              <LongitudeDegrees>-4.6512818522751331329345703125</LongitudeDegrees>
            </Position>
            <AltitudeMeters>21.3999996185302734375</AltitudeMeters>
            <DistanceMeters>NAN</DistanceMeters>
          </Trackpoint>
          <Trackpoint>
            <Time>2022-07-15T15:03:27.000Z</Time>
            <Position>
              <LatitudeDegrees>43.39848040603101253509521484375</LatitudeDegrees>
              <LongitudeDegrees>-4.65133105404675006866455078125</LongitudeDegrees>
            </Position>
            <AltitudeMeters>20.799999237060546875</AltitudeMeters>
            <DistanceMeters>NAN</DistanceMeters>
          </Trackpoint>
          <Trackpoint>
            <Time>2022-07-15T15:03:31.000Z</Time>
            <Position>
              <LatitudeDegrees>43.3984786458313465118408203125</LatitudeDegrees>
              <LongitudeDegrees>-4.6514924056828022003173828125</LongitudeDegrees>
            </Position>
            <AltitudeMeters>19.799999237060546875</AltitudeMeters>
            <DistanceMeters>NAN</DistanceMeters>
          </Trackpoint>
          <Trackpoint>
            <Time>2022-07-15T15:03:35.000Z</Time>
            <Position>
              <LatitudeDegrees>43.39850521646440029144287109375</LatitudeDegrees>
              <LongitudeDegrees>-4.6515701897442340850830078125</LongitudeDegrees>
            </Position>
            <AltitudeMeters>19.200000762939453125</AltitudeMeters>
            <DistanceMeters>NAN</DistanceMeters>
          </Trackpoint>
          <Trackpoint>
            <Time>2022-07-15T15:03:39.000Z</Time>
            <Position>
              <LatitudeDegrees>43.39851393364369869232177734375</LatitudeDegrees>
              <LongitudeDegrees>-4.651612937450408935546875</LongitudeDegrees>
            </Position>
            <AltitudeMeters>19</AltitudeMeters>
            <DistanceMeters>NAN</DistanceMeters>
          </Trackpoint>
          <Trackpoint>
            <Time>2022-07-15T15:04:00.000Z</Time>
            <Position>
              <LatitudeDegrees>43.39851208962500095367431640625</LatitudeDegrees>
              <LongitudeDegrees>-4.651675634086132049560546875</LongitudeDegrees>
            </Position>
            <AltitudeMeters>19.3999996185302734375</AltitudeMeters>
            <DistanceMeters>NAN</DistanceMeters>
          </Trackpoint>
          <Trackpoint>
            <Time>2022-07-15T15:04:01.000Z</Time>
            <Position>
              <LatitudeDegrees>43.398515023291110992431640625</LatitudeDegrees>
              <LongitudeDegrees>-4.6517143584787845611572265625</LongitudeDegrees>
            </Position>
            <AltitudeMeters>19.3999996185302734375</AltitudeMeters>
            <DistanceMeters>NAN</DistanceMeters>
          </Trackpoint>
          <Trackpoint>
            <Time>2022-07-15T15:04:06.000Z</Time>
            <Position>
              <LatitudeDegrees>43.39853371493518352508544921875</LatitudeDegrees>
              <LongitudeDegrees>-4.65196087025105953216552734375</LongitudeDegrees>
            </Position>
            <AltitudeMeters>19.3999996185302734375</AltitudeMeters>
            <DistanceMeters>NAN</DistanceMeters>
          </Trackpoint>
          <Trackpoint>
            <Time>2022-07-15T15:04:09.000Z</Time>
            <Position>
              <LatitudeDegrees>43.39858367107808589935302734375</LatitudeDegrees>
              <LongitudeDegrees>-4.652126915752887725830078125</LongitudeDegrees>
            </Position>
            <AltitudeMeters>19.200000762939453125</AltitudeMeters>
            <DistanceMeters>NAN</DistanceMeters>
          </Trackpoint>
          <Trackpoint>
            <Time>2022-07-15T15:04:11.000Z</Time>
            <Position>
              <LatitudeDegrees>43.39862843044102191925048828125</LatitudeDegrees>
              <LongitudeDegrees>-4.6522082202136516571044921875</LongitudeDegrees>
            </Position>
            <AltitudeMeters>19</AltitudeMeters>
            <DistanceMeters>NAN</DistanceMeters>
          </Trackpoint>
          <Trackpoint>
            <Time>2022-07-15T15:04:13.000Z</Time>
            <Position>
              <LatitudeDegrees>43.39869565330445766448974609375</LatitudeDegrees>
              <LongitudeDegrees>-4.6522910334169864654541015625</LongitudeDegrees>
            </Position>
            <AltitudeMeters>18</AltitudeMeters>
            <DistanceMeters>NAN</DistanceMeters>
          </Trackpoint>
          <Trackpoint>
            <Time>2022-07-15T15:04:14.000Z</Time>
            <Position>
              <LatitudeDegrees>43.3987284265458583831787109375</LatitudeDegrees>
              <LongitudeDegrees>-4.65233855880796909332275390625</LongitudeDegrees>
            </Position>
            <AltitudeMeters>17.6000003814697265625</AltitudeMeters>
            <DistanceMeters>NAN</DistanceMeters>
          </Trackpoint>
          <Trackpoint>
            <Time>2022-07-15T15:04:16.000Z</Time>
            <Position>
              <LatitudeDegrees>43.3987860940396785736083984375</LatitudeDegrees>
              <LongitudeDegrees>-4.65244718827307224273681640625</LongitudeDegrees>
            </Position>
            <AltitudeMeters>17.200000762939453125</AltitudeMeters>
            <DistanceMeters>NAN</DistanceMeters>
          </Trackpoint>
          <Trackpoint>
            <Time>2022-07-15T15:04:17.000Z</Time>
            <Position>
              <LatitudeDegrees>43.398812748491764068603515625</LatitudeDegrees>
              <LongitudeDegrees>-4.65250284411013126373291015625</LongitudeDegrees>
            </Position>
            <AltitudeMeters>17.200000762939453125</AltitudeMeters>
            <DistanceMeters>NAN</DistanceMeters>
          </Trackpoint>
          <Trackpoint>
            <Time>2022-07-15T15:04:18.000Z</Time>
            <Position>
              <LatitudeDegrees>43.39884887449443340301513671875</LatitudeDegrees>
              <LongitudeDegrees>-4.65257249772548675537109375</LongitudeDegrees>
            </Position>
            <AltitudeMeters>17</AltitudeMeters>
            <DistanceMeters>NAN</DistanceMeters>
          </Trackpoint>
          <Trackpoint>
            <Time>2022-07-15T15:04:21.000Z</Time>
            <Position>
              <LatitudeDegrees>43.3989369682967662811279296875</LatitudeDegrees>
              <LongitudeDegrees>-4.6527339331805706024169921875</LongitudeDegrees>
            </Position>
            <AltitudeMeters>16.6000003814697265625</AltitudeMeters>
            <DistanceMeters>NAN</DistanceMeters>
          </Trackpoint>
          <Trackpoint>
            <Time>2022-07-15T15:04:23.000Z</Time>
            <Position>
              <LatitudeDegrees>43.3989664725959300994873046875</LatitudeDegrees>
              <LongitudeDegrees>-4.6528298221528530120849609375</LongitudeDegrees>
            </Position>
            <AltitudeMeters>16.200000762939453125</AltitudeMeters>
            <DistanceMeters>NAN</DistanceMeters>
          </Trackpoint>
          <Trackpoint>
            <Time>2022-07-15T15:04:25.000Z</Time>
            <Position>
              <LatitudeDegrees>43.39898231439292430877685546875</LatitudeDegrees>
              <LongitudeDegrees>-4.6529337577521800994873046875</LongitudeDegrees>
            </Position>
            <AltitudeMeters>16</AltitudeMeters>
            <DistanceMeters>NAN</DistanceMeters>
          </Trackpoint>
          <Trackpoint>
            <Time>2022-07-15T15:04:28.000Z</Time>
            <Position>
              <LatitudeDegrees>43.39901718311011791229248046875</LatitudeDegrees>
              <LongitudeDegrees>-4.653058983385562896728515625</LongitudeDegrees>
            </Position>
            <AltitudeMeters>15.3999996185302734375</AltitudeMeters>
            <DistanceMeters>NAN</DistanceMeters>
          </Trackpoint>
          <Trackpoint>
            <Time>2022-07-15T15:04:29.000Z</Time>
            <Position>
              <LatitudeDegrees>43.39904484339058399200439453125</LatitudeDegrees>
              <LongitudeDegrees>-4.6530948579311370849609375</LongitudeDegrees>
            </Position>
            <AltitudeMeters>15.3999996185302734375</AltitudeMeters>
            <DistanceMeters>NAN</DistanceMeters>
          </Trackpoint>
          <Trackpoint>
            <Time>2022-07-15T15:04:31.000Z</Time>
            <Position>
              <LatitudeDegrees>43.3991210348904132843017578125</LatitudeDegrees>
              <LongitudeDegrees>-4.6531466580927371978759765625</LongitudeDegrees>
            </Position>
            <AltitudeMeters>15.19999980926513671875</AltitudeMeters>
            <DistanceMeters>NAN</DistanceMeters>
          </Trackpoint>
          <Trackpoint>
            <Time>2022-07-15T15:04:32.000Z</Time>
            <Position>
              <LatitudeDegrees>43.399163782596588134765625</LatitudeDegrees>
              <LongitudeDegrees>-4.6531671099364757537841796875</LongitudeDegrees>
            </Position>
            <AltitudeMeters>15.19999980926513671875</AltitudeMeters>
            <DistanceMeters>NAN</DistanceMeters>
          </Trackpoint>
          <Trackpoint>
            <Time>2022-07-15T15:04:38.000Z</Time>
            <Position>
              <LatitudeDegrees>43.399365283548831939697265625</LatitudeDegrees>
              <LongitudeDegrees>-4.65323642827570438385009765625</LongitudeDegrees>
            </Position>
            <AltitudeMeters>15</AltitudeMeters>
            <DistanceMeters>NAN</DistanceMeters>
          </Trackpoint>
          <Trackpoint>
            <Time>2022-07-15T15:04:39.000Z</Time>
            <Position>
              <LatitudeDegrees>43.39940492995083332061767578125</LatitudeDegrees>
              <LongitudeDegrees>-4.653228633105754852294921875</LongitudeDegrees>
            </Position>
            <AltitudeMeters>15</AltitudeMeters>
            <DistanceMeters>NAN</DistanceMeters>
          </Trackpoint>
          <Trackpoint>
            <Time>2022-07-15T15:04:43.000Z</Time>
            <Position>
              <LatitudeDegrees>43.39952730573713779449462890625</LatitudeDegrees>
              <LongitudeDegrees>-4.65319904498755931854248046875</LongitudeDegrees>
            </Position>
            <AltitudeMeters>14.3999996185302734375</AltitudeMeters>
            <DistanceMeters>NAN</DistanceMeters>
          </Trackpoint>
          <Trackpoint>
            <Time>2022-07-15T15:04:44.000Z</Time>
            <Position>
              <LatitudeDegrees>43.3995491825044155120849609375</LatitudeDegrees>
              <LongitudeDegrees>-4.6532106958329677581787109375</LongitudeDegrees>
            </Position>
            <AltitudeMeters>14.19999980926513671875</AltitudeMeters>
            <DistanceMeters>NAN</DistanceMeters>
          </Trackpoint>
          <Trackpoint>
            <Time>2022-07-15T15:04:46.000Z</Time>
            <Position>
              <LatitudeDegrees>43.3995806984603404998779296875</LatitudeDegrees>
              <LongitudeDegrees>-4.65323206968605518341064453125</LongitudeDegrees>
            </Position>
            <AltitudeMeters>13.80000019073486328125</AltitudeMeters>
            <DistanceMeters>NAN</DistanceMeters>
          </Trackpoint>
          <Trackpoint>
            <Time>2022-07-15T15:04:48.000Z</Time>
            <Position>
              <LatitudeDegrees>43.39962311089038848876953125</LatitudeDegrees>
              <LongitudeDegrees>-4.6532475762069225311279296875</LongitudeDegrees>
            </Position>
            <AltitudeMeters>13.80000019073486328125</AltitudeMeters>
            <DistanceMeters>NAN</DistanceMeters>
          </Trackpoint>
          <Trackpoint>
            <Time>2022-07-15T15:04:52.000Z</Time>
            <Position>
              <LatitudeDegrees>43.39971321634948253631591796875</LatitudeDegrees>
              <LongitudeDegrees>-4.65317373163998126983642578125</LongitudeDegrees>
            </Position>
            <AltitudeMeters>13.80000019073486328125</AltitudeMeters>
            <DistanceMeters>NAN</DistanceMeters>
          </Trackpoint>
          <Trackpoint>
            <Time>2022-07-15T15:04:57.000Z</Time>
            <Position>
              <LatitudeDegrees>43.399868197739124298095703125</LatitudeDegrees>
              <LongitudeDegrees>-4.6530760824680328369140625</LongitudeDegrees>
            </Position>
            <AltitudeMeters>13.19999980926513671875</AltitudeMeters>
            <DistanceMeters>NAN</DistanceMeters>
          </Trackpoint>
          <Trackpoint>
            <Time>2022-07-15T15:04:59.000Z</Time>
            <Position>
              <LatitudeDegrees>43.39994740672409534454345703125</LatitudeDegrees>
              <LongitudeDegrees>-4.65305672027170658111572265625</LongitudeDegrees>
            </Position>
            <AltitudeMeters>12.80000019073486328125</AltitudeMeters>
            <DistanceMeters>NAN</DistanceMeters>
          </Trackpoint>
          <Trackpoint>
            <Time>2022-07-15T15:05:02.000Z</Time>
            <Position>
              <LatitudeDegrees>43.400032818317413330078125</LatitudeDegrees>
              <LongitudeDegrees>-4.6530447341501712799072265625</LongitudeDegrees>
            </Position>
            <AltitudeMeters>12.3999996185302734375</AltitudeMeters>
            <DistanceMeters>NAN</DistanceMeters>
          </Trackpoint>
          <Trackpoint>
            <Time>2022-07-15T15:05:04.000Z</Time>
            <Position>
              <LatitudeDegrees>43.40005821548402309417724609375</LatitudeDegrees>
              <LongitudeDegrees>-4.6530219353735446929931640625</LongitudeDegrees>
            </Position>
            <AltitudeMeters>11.6000003814697265625</AltitudeMeters>
            <DistanceMeters>NAN</DistanceMeters>
          </Trackpoint>
          <Trackpoint>
            <Time>2022-07-15T15:05:07.000Z</Time>
            <Position>
              <LatitudeDegrees>43.40010456740856170654296875</LatitudeDegrees>
              <LongitudeDegrees>-4.65297994203865528106689453125</LongitudeDegrees>
            </Position>
            <AltitudeMeters>11</AltitudeMeters>
            <DistanceMeters>NAN</DistanceMeters>
          </Trackpoint>
          <Trackpoint>
            <Time>2022-07-15T15:05:12.000Z</Time>
            <Position>
              <LatitudeDegrees>43.40013046748936176300048828125</LatitudeDegrees>
              <LongitudeDegrees>-4.6529703028500080108642578125</LongitudeDegrees>
            </Position>
            <AltitudeMeters>10.80000019073486328125</AltitudeMeters>
            <DistanceMeters>NAN</DistanceMeters>
          </Trackpoint>
          <Trackpoint>
            <Time>2022-07-15T15:05:15.000Z</Time>
            <Position>
              <LatitudeDegrees>43.40013884939253330230712890625</LatitudeDegrees>
              <LongitudeDegrees>-4.6529619209468364715576171875</LongitudeDegrees>
            </Position>
            <AltitudeMeters>10.80000019073486328125</AltitudeMeters>
            <DistanceMeters>NAN</DistanceMeters>
          </Trackpoint>
          <Trackpoint>
            <Time>2022-07-15T15:05:19.000Z</Time>
            <Position>
              <LatitudeDegrees>43.40015142224729061126708984375</LatitudeDegrees>
              <LongitudeDegrees>-4.65295915491878986358642578125</LongitudeDegrees>
            </Position>
            <AltitudeMeters>10.80000019073486328125</AltitudeMeters>
            <DistanceMeters>NAN</DistanceMeters>
          </Trackpoint>
          <Trackpoint>
            <Time>2022-07-15T15:05:24.000Z</Time>
            <Position>
              <LatitudeDegrees>43.40015142224729061126708984375</LatitudeDegrees>
              <LongitudeDegrees>-4.65295915491878986358642578125</LongitudeDegrees>
            </Position>
            <AltitudeMeters>10.80000019073486328125</AltitudeMeters>
            <DistanceMeters>NAN</DistanceMeters>
          </Trackpoint>
          <Trackpoint>
            <Time>2022-07-15T15:06:42.000Z</Time>
            <Position>
              <LatitudeDegrees>43.40021747164428234100341796875</LatitudeDegrees>
              <LongitudeDegrees>-4.65292830951511859893798828125</LongitudeDegrees>
            </Position>
            <AltitudeMeters>13</AltitudeMeters>
            <DistanceMeters>NAN</DistanceMeters>
          </Trackpoint>
          <Trackpoint>
            <Time>2022-07-15T15:06:43.000Z</Time>
            <Position>
              <LatitudeDegrees>43.40020992793142795562744140625</LatitudeDegrees>
              <LongitudeDegrees>-4.65294054709374904632568359375</LongitudeDegrees>
            </Position>
            <AltitudeMeters>13</AltitudeMeters>
            <DistanceMeters>NAN</DistanceMeters>
          </Trackpoint>
          <Trackpoint>
            <Time>2022-07-15T15:06:44.000Z</Time>
            <Position>
              <LatitudeDegrees>43.4001996181905269622802734375</LatitudeDegrees>
              <LongitudeDegrees>-4.6529501862823963165283203125</LongitudeDegrees>
            </Position>
            <AltitudeMeters>13</AltitudeMeters>
            <DistanceMeters>NAN</DistanceMeters>
          </Trackpoint>
          <Trackpoint>
            <Time>2022-07-15T15:06:45.000Z</Time>
            <Position>
              <LatitudeDegrees>43.40019316412508487701416015625</LatitudeDegrees>
              <LongitudeDegrees>-4.6529622562229633331298828125</LongitudeDegrees>
            </Position>
            <AltitudeMeters>13</AltitudeMeters>
            <DistanceMeters>NAN</DistanceMeters>
          </Trackpoint>
          <Trackpoint>
            <Time>2022-07-15T15:06:50.000Z</Time>
            <Position>
              <LatitudeDegrees>43.40018997900187969207763671875</LatitudeDegrees>
              <LongitudeDegrees>-4.6529719792306423187255859375</LongitudeDegrees>
            </Position>
            <AltitudeMeters>13.19999980926513671875</AltitudeMeters>
            <DistanceMeters>NAN</DistanceMeters>
          </Trackpoint>
          <Trackpoint>
            <Time>2022-07-15T15:08:02.000Z</Time>
            <Position>
              <LatitudeDegrees>43.40012325905263423919677734375</LatitudeDegrees>
              <LongitudeDegrees>-4.65298111550509929656982421875</LongitudeDegrees>
            </Position>
            <AltitudeMeters>14.19999980926513671875</AltitudeMeters>
            <DistanceMeters>NAN</DistanceMeters>
          </Trackpoint>
          <Trackpoint>
            <Time>2022-07-15T15:08:03.000Z</Time>
            <Position>
              <LatitudeDegrees>43.40010230429470539093017578125</LatitudeDegrees>
              <LongitudeDegrees>-4.65298153460025787353515625</LongitudeDegrees>
            </Position>
            <AltitudeMeters>14.19999980926513671875</AltitudeMeters>
            <DistanceMeters>NAN</DistanceMeters>
          </Trackpoint>
          <Trackpoint>
            <Time>2022-07-15T15:08:05.000Z</Time>
            <Position>
              <LatitudeDegrees>43.4000675193965435028076171875</LatitudeDegrees>
              <LongitudeDegrees>-4.65299435891211032867431640625</LongitudeDegrees>
            </Position>
            <AltitudeMeters>14.19999980926513671875</AltitudeMeters>
            <DistanceMeters>NAN</DistanceMeters>
          </Trackpoint>
          <Trackpoint>
            <Time>2022-07-15T15:08:12.000Z</Time>
            <Position>
              <LatitudeDegrees>43.399924524128437042236328125</LatitudeDegrees>
              <LongitudeDegrees>-4.65303727425634860992431640625</LongitudeDegrees>
            </Position>
            <AltitudeMeters>14.6000003814697265625</AltitudeMeters>
            <DistanceMeters>NAN</DistanceMeters>
          </Trackpoint>
          <Trackpoint>
            <Time>2022-07-15T15:08:14.000Z</Time>
            <Position>
              <LatitudeDegrees>43.39988755993545055389404296875</LatitudeDegrees>
              <LongitudeDegrees>-4.65304766781628131866455078125</LongitudeDegrees>
            </Position>
            <AltitudeMeters>14.80000019073486328125</AltitudeMeters>
            <DistanceMeters>NAN</DistanceMeters>
          </Trackpoint>
          <Trackpoint>
            <Time>2022-07-15T15:08:17.000Z</Time>
            <Position>
              <LatitudeDegrees>43.39982804842293262481689453125</LatitudeDegrees>
              <LongitudeDegrees>-4.6530614979565143585205078125</LongitudeDegrees>
            </Position>
            <AltitudeMeters>15.19999980926513671875</AltitudeMeters>
            <DistanceMeters>NAN</DistanceMeters>
          </Trackpoint>
          <Trackpoint>
            <Time>2022-07-15T15:08:18.000Z</Time>
            <Position>
              <LatitudeDegrees>43.399811871349811553955078125</LatitudeDegrees>
              <LongitudeDegrees>-4.6530544571578502655029296875</LongitudeDegrees>
            </Position>
            <AltitudeMeters>15.19999980926513671875</AltitudeMeters>
            <DistanceMeters>NAN</DistanceMeters>
          </Trackpoint>
          <Trackpoint>
            <Time>2022-07-15T15:08:21.000Z</Time>
            <Position>
              <LatitudeDegrees>43.39976384304463863372802734375</LatitudeDegrees>
              <LongitudeDegrees>-4.6530806086957454681396484375</LongitudeDegrees>
            </Position>
            <AltitudeMeters>15.6000003814697265625</AltitudeMeters>
            <DistanceMeters>NAN</DistanceMeters>
          </Trackpoint>
          <Trackpoint>
            <Time>2022-07-15T15:08:23.000Z</Time>
            <Position>
              <LatitudeDegrees>43.39974171482026576995849609375</LatitudeDegrees>
              <LongitudeDegrees>-4.65309955179691314697265625</LongitudeDegrees>
            </Position>
            <AltitudeMeters>15.80000019073486328125</AltitudeMeters>
            <DistanceMeters>NAN</DistanceMeters>
          </Trackpoint>
          <Trackpoint>
            <Time>2022-07-15T15:08:25.000Z</Time>
            <Position>
              <LatitudeDegrees>43.3997158147394657135009765625</LatitudeDegrees>
              <LongitudeDegrees>-4.65311028063297271728515625</LongitudeDegrees>
            </Position>
            <AltitudeMeters>16</AltitudeMeters>
            <DistanceMeters>NAN</DistanceMeters>
          </Trackpoint>
          <Trackpoint>
            <Time>2022-07-15T15:08:28.000Z</Time>
            <Position>
              <LatitudeDegrees>43.39967943727970123291015625</LatitudeDegrees>
              <LongitudeDegrees>-4.6531201712787151336669921875</LongitudeDegrees>
            </Position>
            <AltitudeMeters>16.3999996185302734375</AltitudeMeters>
            <DistanceMeters>NAN</DistanceMeters>
          </Trackpoint>
          <Trackpoint>
            <Time>2022-07-15T15:08:29.000Z</Time>
            <Position>
              <LatitudeDegrees>43.39966795407235622406005859375</LatitudeDegrees>
              <LongitudeDegrees>-4.65312947519123554229736328125</LongitudeDegrees>
            </Position>
            <AltitudeMeters>16.6000003814697265625</AltitudeMeters>
            <DistanceMeters>NAN</DistanceMeters>
          </Trackpoint>
          <Trackpoint>
            <Time>2022-07-15T15:08:34.000Z</Time>
            <Position>
              <LatitudeDegrees>43.39962956495583057403564453125</LatitudeDegrees>
              <LongitudeDegrees>-4.653219915926456451416015625</LongitudeDegrees>
            </Position>
            <AltitudeMeters>16.799999237060546875</AltitudeMeters>
            <DistanceMeters>NAN</DistanceMeters>
          </Trackpoint>
          <Trackpoint>
            <Time>2022-07-15T15:08:35.000Z</Time>
            <Position>
              <LatitudeDegrees>43.39962654747068881988525390625</LatitudeDegrees>
              <LongitudeDegrees>-4.65324380435049533843994140625</LongitudeDegrees>
            </Position>
            <AltitudeMeters>16.799999237060546875</AltitudeMeters>
            <DistanceMeters>NAN</DistanceMeters>
          </Trackpoint>
          <Trackpoint>
            <Time>2022-07-15T15:08:38.000Z</Time>
            <Position>
              <LatitudeDegrees>43.3996061794459819793701171875</LatitudeDegrees>
              <LongitudeDegrees>-4.65331739746034145355224609375</LongitudeDegrees>
            </Position>
            <AltitudeMeters>17</AltitudeMeters>
            <DistanceMeters>NAN</DistanceMeters>
          </Trackpoint>
          <Trackpoint>
            <Time>2022-07-15T15:08:44.000Z</Time>
            <Position>
              <LatitudeDegrees>43.3995642699301242828369140625</LatitudeDegrees>
              <LongitudeDegrees>-4.65346944518387317657470703125</LongitudeDegrees>
            </Position>
            <AltitudeMeters>17.3999996185302734375</AltitudeMeters>
            <DistanceMeters>NAN</DistanceMeters>
          </Trackpoint>
          <Trackpoint>
            <Time>2022-07-15T15:08:45.000Z</Time>
            <Position>
              <LatitudeDegrees>43.3995578996837139129638671875</LatitudeDegrees>
              <LongitudeDegrees>-4.65348444879055023193359375</LongitudeDegrees>
            </Position>
            <AltitudeMeters>17.6000003814697265625</AltitudeMeters>
            <DistanceMeters>NAN</DistanceMeters>
          </Trackpoint>
          <Trackpoint>
            <Time>2022-07-15T15:08:53.000Z</Time>
            <Position>
              <LatitudeDegrees>43.39951355941593647003173828125</LatitudeDegrees>
              <LongitudeDegrees>-4.65359332971274852752685546875</LongitudeDegrees>
            </Position>
            <AltitudeMeters>18.3999996185302734375</AltitudeMeters>
            <DistanceMeters>NAN</DistanceMeters>
          </Trackpoint>
          <Trackpoint>
            <Time>2022-07-15T15:08:54.000Z</Time>
            <Position>
              <LatitudeDegrees>43.39951037429273128509521484375</LatitudeDegrees>
              <LongitudeDegrees>-4.65360271744430065155029296875</LongitudeDegrees>
            </Position>
            <AltitudeMeters>18.6000003814697265625</AltitudeMeters>
            <DistanceMeters>NAN</DistanceMeters>
          </Trackpoint>
          <Trackpoint>
            <Time>2022-07-15T15:09:00.000Z</Time>
            <Position>
              <LatitudeDegrees>43.39947248809039592742919921875</LatitudeDegrees>
              <LongitudeDegrees>-4.6536904759705066680908203125</LongitudeDegrees>
            </Position>
            <AltitudeMeters>19.200000762939453125</AltitudeMeters>
            <DistanceMeters>NAN</DistanceMeters>
          </Trackpoint>
          <Trackpoint>
            <Time>2022-07-15T15:09:01.000Z</Time>
            <Position>
              <LatitudeDegrees>43.39946620166301727294921875</LatitudeDegrees>
              <LongitudeDegrees>-4.6536961756646633148193359375</LongitudeDegrees>
            </Position>
            <AltitudeMeters>19.3999996185302734375</AltitudeMeters>
            <DistanceMeters>NAN</DistanceMeters>
          </Trackpoint>
          <Trackpoint>
            <Time>2022-07-15T15:09:04.000Z</Time>
            <Position>
              <LatitudeDegrees>43.399452455341815948486328125</LatitudeDegrees>
              <LongitudeDegrees>-4.653727523982524871826171875</LongitudeDegrees>
            </Position>
            <AltitudeMeters>19.799999237060546875</AltitudeMeters>
            <DistanceMeters>NAN</DistanceMeters>
          </Trackpoint>
          <Trackpoint>
            <Time>2022-07-15T15:09:07.000Z</Time>
            <Position>
              <LatitudeDegrees>43.3994221128523349761962890625</LatitudeDegrees>
              <LongitudeDegrees>-4.65373917482793331146240234375</LongitudeDegrees>
            </Position>
            <AltitudeMeters>20.3999996185302734375</AltitudeMeters>
            <DistanceMeters>NAN</DistanceMeters>
          </Trackpoint>
          <Trackpoint>
            <Time>2022-07-15T15:09:10.000Z</Time>
            <Position>
              <LatitudeDegrees>43.39941599406301975250244140625</LatitudeDegrees>
              <LongitudeDegrees>-4.6537357382476329803466796875</LongitudeDegrees>
            </Position>
            <AltitudeMeters>20.799999237060546875</AltitudeMeters>
            <DistanceMeters>NAN</DistanceMeters>
          </Trackpoint>
          <Trackpoint>
            <Time>2022-07-15T15:09:13.000Z</Time>
            <Position>
              <LatitudeDegrees>43.39941322803497314453125</LatitudeDegrees>
              <LongitudeDegrees>-4.65373481623828411102294921875</LongitudeDegrees>
            </Position>
            <AltitudeMeters>21.200000762939453125</AltitudeMeters>
            <DistanceMeters>NAN</DistanceMeters>
          </Trackpoint>
          <Trackpoint>
            <Time>2022-07-15T15:09:56.000Z</Time>
            <Position>
              <LatitudeDegrees>43.39940710924565792083740234375</LatitudeDegrees>
              <LongitudeDegrees>-4.653790555894374847412109375</LongitudeDegrees>
            </Position>
            <AltitudeMeters>21.6000003814697265625</AltitudeMeters>
            <DistanceMeters>NAN</DistanceMeters>
          </Trackpoint>
          <Trackpoint>
            <Time>2022-07-15T15:09:58.000Z</Time>
            <Position>
              <LatitudeDegrees>43.399433009326457977294921875</LatitudeDegrees>
              <LongitudeDegrees>-4.6538188867270946502685546875</LongitudeDegrees>
            </Position>
            <AltitudeMeters>21.6000003814697265625</AltitudeMeters>
            <DistanceMeters>NAN</DistanceMeters>
          </Trackpoint>
          <Trackpoint>
            <Time>2022-07-15T15:10:01.000Z</Time>
            <Position>
              <LatitudeDegrees>43.39948900043964385986328125</LatitudeDegrees>
              <LongitudeDegrees>-4.65381494723260402679443359375</LongitudeDegrees>
            </Position>
            <AltitudeMeters>22</AltitudeMeters>
            <DistanceMeters>NAN</DistanceMeters>
          </Trackpoint>
          <Trackpoint>
            <Time>2022-07-15T15:10:02.000Z</Time>
            <Position>
              <LatitudeDegrees>43.39949713088572025299072265625</LatitudeDegrees>
              <LongitudeDegrees>-4.65382718481123447418212890625</LongitudeDegrees>
            </Position>
            <AltitudeMeters>22.200000762939453125</AltitudeMeters>
            <DistanceMeters>NAN</DistanceMeters>
          </Trackpoint>
          <Trackpoint>
            <Time>2022-07-15T15:10:03.000Z</Time>
            <Position>
              <LatitudeDegrees>43.3995055966079235076904296875</LatitudeDegrees>
              <LongitudeDegrees>-4.65381394140422344207763671875</LongitudeDegrees>
            </Position>
            <AltitudeMeters>22.3999996185302734375</AltitudeMeters>
            <DistanceMeters>NAN</DistanceMeters>
          </Trackpoint>
          <Trackpoint>
            <Time>2022-07-15T15:10:05.000Z</Time>
            <Position>
              <LatitudeDegrees>43.39953032322227954864501953125</LatitudeDegrees>
              <LongitudeDegrees>-4.6537826769053936004638671875</LongitudeDegrees>
            </Position>
            <AltitudeMeters>22.799999237060546875</AltitudeMeters>
            <DistanceMeters>NAN</DistanceMeters>
          </Trackpoint>
          <Trackpoint>
            <Time>2022-07-15T15:10:06.000Z</Time>
            <Position>
              <LatitudeDegrees>43.39954306371510028839111328125</LatitudeDegrees>
              <LongitudeDegrees>-4.65378393419086933135986328125</LongitudeDegrees>
            </Position>
            <AltitudeMeters>23</AltitudeMeters>
            <DistanceMeters>NAN</DistanceMeters>
          </Trackpoint>
          <Trackpoint>
            <Time>2022-07-15T15:10:10.000Z</Time>
            <Position>
              <LatitudeDegrees>43.39955865405499935150146484375</LatitudeDegrees>
              <LongitudeDegrees>-4.65381276793777942657470703125</LongitudeDegrees>
            </Position>
            <AltitudeMeters>24</AltitudeMeters>
            <DistanceMeters>NAN</DistanceMeters>
          </Trackpoint>
          <Trackpoint>
            <Time>2022-07-15T15:10:13.000Z</Time>
            <Position>
              <LatitudeDegrees>43.3995920978486537933349609375</LatitudeDegrees>
              <LongitudeDegrees>-4.653816036880016326904296875</LongitudeDegrees>
            </Position>
            <AltitudeMeters>24.6000003814697265625</AltitudeMeters>
            <DistanceMeters>NAN</DistanceMeters>
          </Trackpoint>
          <Trackpoint>
            <Time>2022-07-15T15:10:14.000Z</Time>
            <Position>
              <LatitudeDegrees>43.3996021561324596405029296875</LatitudeDegrees>
              <LongitudeDegrees>-4.65382852591574192047119140625</LongitudeDegrees>
            </Position>
            <AltitudeMeters>24.799999237060546875</AltitudeMeters>
            <DistanceMeters>NAN</DistanceMeters>
          </Trackpoint>
          <Trackpoint>
            <Time>2022-07-15T15:10:15.000Z</Time>
            <Position>
              <LatitudeDegrees>43.399609029293060302734375</LatitudeDegrees>
              <LongitudeDegrees>-4.65384243987500667572021484375</LongitudeDegrees>
            </Position>
            <AltitudeMeters>25.200000762939453125</AltitudeMeters>
            <DistanceMeters>NAN</DistanceMeters>
          </Trackpoint>
          <Trackpoint>
            <Time>2022-07-15T15:10:16.000Z</Time>
            <Position>
              <LatitudeDegrees>43.39961179532110691070556640625</LatitudeDegrees>
              <LongitudeDegrees>-4.6538607962429523468017578125</LongitudeDegrees>
            </Position>
            <AltitudeMeters>25.3999996185302734375</AltitudeMeters>
            <DistanceMeters>NAN</DistanceMeters>
          </Trackpoint>
          <Trackpoint>
            <Time>2022-07-15T15:10:19.000Z</Time>
            <Position>
              <LatitudeDegrees>43.39962386526167392730712890625</LatitudeDegrees>
              <LongitudeDegrees>-4.65392525307834148406982421875</LongitudeDegrees>
            </Position>
            <AltitudeMeters>26.3999996185302734375</AltitudeMeters>
            <DistanceMeters>NAN</DistanceMeters>
          </Trackpoint>
          <Trackpoint>
            <Time>2022-07-15T15:10:20.000Z</Time>
            <Position>
              <LatitudeDegrees>43.399632833898067474365234375</LatitudeDegrees>
              <LongitudeDegrees>-4.653943441808223724365234375</LongitudeDegrees>
            </Position>
            <AltitudeMeters>26.6000003814697265625</AltitudeMeters>
            <DistanceMeters>NAN</DistanceMeters>
          </Trackpoint>
          <Trackpoint>
            <Time>2022-07-15T15:10:24.000Z</Time>
            <Position>
              <LatitudeDegrees>43.399648927152156829833984375</LatitudeDegrees>
              <LongitudeDegrees>-4.6540183760225772857666015625</LongitudeDegrees>
            </Position>
            <AltitudeMeters>27.3999996185302734375</AltitudeMeters>
            <DistanceMeters>NAN</DistanceMeters>
          </Trackpoint>
          <Trackpoint>
            <Time>2022-07-15T15:10:28.000Z</Time>
            <Position>
              <LatitudeDegrees>43.3996631763875484466552734375</LatitudeDegrees>
              <LongitudeDegrees>-4.65409389697015285491943359375</LongitudeDegrees>
            </Position>
            <AltitudeMeters>28.6000003814697265625</AltitudeMeters>
            <DistanceMeters>NAN</DistanceMeters>
          </Trackpoint>
          <Trackpoint>
            <Time>2022-07-15T15:10:29.000Z</Time>
            <Position>
              <LatitudeDegrees>43.3996621705591678619384765625</LatitudeDegrees>
              <LongitudeDegrees>-4.654107056558132171630859375</LongitudeDegrees>
            </Position>
            <AltitudeMeters>28.799999237060546875</AltitudeMeters>
            <DistanceMeters>NAN</DistanceMeters>
          </Trackpoint>
          <Trackpoint>
            <Time>2022-07-15T15:10:34.000Z</Time>
            <Position>
              <LatitudeDegrees>43.39966527186334133148193359375</LatitudeDegrees>
              <LongitudeDegrees>-4.6542021073400974273681640625</LongitudeDegrees>
            </Position>
            <AltitudeMeters>29.799999237060546875</AltitudeMeters>
            <DistanceMeters>NAN</DistanceMeters>
          </Trackpoint>
          <Trackpoint>
            <Time>2022-07-15T15:10:37.000Z</Time>
            <Position>
              <LatitudeDegrees>43.399652950465679168701171875</LatitudeDegrees>
              <LongitudeDegrees>-4.65425550006330013275146484375</LongitudeDegrees>
            </Position>
            <AltitudeMeters>30.3999996185302734375</AltitudeMeters>
            <DistanceMeters>NAN</DistanceMeters>
          </Trackpoint>
          <Trackpoint>
            <Time>2022-07-15T15:10:39.000Z</Time>
            <Position>
              <LatitudeDegrees>43.3996507711708545684814453125</LatitudeDegrees>
              <LongitudeDegrees>-4.6542896144092082977294921875</LongitudeDegrees>
            </Position>
            <AltitudeMeters>30.799999237060546875</AltitudeMeters>
            <DistanceMeters>NAN</DistanceMeters>
          </Trackpoint>
          <Trackpoint>
            <Time>2022-07-15T15:10:42.000Z</Time>
            <Position>
              <LatitudeDegrees>43.3996467478573322296142578125</LatitudeDegrees>
              <LongitudeDegrees>-4.6543442644178867340087890625</LongitudeDegrees>
            </Position>
            <AltitudeMeters>31.799999237060546875</AltitudeMeters>
            <DistanceMeters>NAN</DistanceMeters>
          </Trackpoint>
          <Trackpoint>
            <Time>2022-07-15T15:10:45.000Z</Time>
            <Position>
              <LatitudeDegrees>43.399653621017932891845703125</LatitudeDegrees>
              <LongitudeDegrees>-4.65439564548432826995849609375</LongitudeDegrees>
            </Position>
            <AltitudeMeters>32.59999847412109375</AltitudeMeters>
            <DistanceMeters>NAN</DistanceMeters>
          </Trackpoint>
          <Trackpoint>
            <Time>2022-07-15T15:10:46.000Z</Time>
            <Position>
              <LatitudeDegrees>43.39965102262794971466064453125</LatitudeDegrees>
              <LongitudeDegrees>-4.65440905652940273284912109375</LongitudeDegrees>
            </Position>
            <AltitudeMeters>33</AltitudeMeters>
            <DistanceMeters>NAN</DistanceMeters>
          </Trackpoint>
          <Trackpoint>
            <Time>2022-07-15T15:10:49.000Z</Time>
            <Position>
              <LatitudeDegrees>43.399652279913425445556640625</LatitudeDegrees>
              <LongitudeDegrees>-4.65445348061621189117431640625</LongitudeDegrees>
            </Position>
            <AltitudeMeters>33.59999847412109375</AltitudeMeters>
            <DistanceMeters>NAN</DistanceMeters>
          </Trackpoint>
          <Trackpoint>
            <Time>2022-07-15T15:10:50.000Z</Time>
            <Position>
              <LatitudeDegrees>43.39965454302728176116943359375</LatitudeDegrees>
              <LongitudeDegrees>-4.65446873567998409271240234375</LongitudeDegrees>
            </Position>
            <AltitudeMeters>34</AltitudeMeters>
            <DistanceMeters>NAN</DistanceMeters>
          </Trackpoint>
          <Trackpoint>
            <Time>2022-07-15T15:10:52.000Z</Time>
            <Position>
              <LatitudeDegrees>43.399660326540470123291015625</LatitudeDegrees>
              <LongitudeDegrees>-4.65449857525527477264404296875</LongitudeDegrees>
            </Position>
            <AltitudeMeters>34.59999847412109375</AltitudeMeters>
            <DistanceMeters>NAN</DistanceMeters>
          </Trackpoint>
          <Trackpoint>
            <Time>2022-07-15T15:10:54.000Z</Time>
            <Position>
              <LatitudeDegrees>43.3996678702533245086669921875</LatitudeDegrees>
              <LongitudeDegrees>-4.6545217931270599365234375</LongitudeDegrees>
            </Position>
            <AltitudeMeters>35.200000762939453125</AltitudeMeters>
            <DistanceMeters>NAN</DistanceMeters>
          </Trackpoint>
          <Trackpoint>
            <Time>2022-07-15T15:10:55.000Z</Time>
            <Position>
              <LatitudeDegrees>43.399673067033290863037109375</LatitudeDegrees>
              <LongitudeDegrees>-4.65454014949500560760498046875</LongitudeDegrees>
            </Position>
            <AltitudeMeters>35.40000152587890625</AltitudeMeters>
            <DistanceMeters>NAN</DistanceMeters>
          </Trackpoint>
          <Trackpoint>
            <Time>2022-07-15T15:10:59.000Z</Time>
            <Position>
              <LatitudeDegrees>43.39968438260257244110107421875</LatitudeDegrees>
              <LongitudeDegrees>-4.65460184030234813690185546875</LongitudeDegrees>
            </Position>
            <AltitudeMeters>36.200000762939453125</AltitudeMeters>
            <DistanceMeters>NAN</DistanceMeters>
          </Trackpoint>
          <Trackpoint>
            <Time>2022-07-15T15:11:08.000Z</Time>
            <Position>
              <LatitudeDegrees>43.39969217777252197265625</LatitudeDegrees>
              <LongitudeDegrees>-4.65476813726127147674560546875</LongitudeDegrees>
            </Position>
            <AltitudeMeters>37.200000762939453125</AltitudeMeters>
            <DistanceMeters>NAN</DistanceMeters>
          </Trackpoint>
          <Trackpoint>
            <Time>2022-07-15T15:11:13.000Z</Time>
            <Position>
              <LatitudeDegrees>43.399723358452320098876953125</LatitudeDegrees>
              <LongitudeDegrees>-4.65483368374407291412353515625</LongitudeDegrees>
            </Position>
            <AltitudeMeters>37.799999237060546875</AltitudeMeters>
            <DistanceMeters>NAN</DistanceMeters>
          </Trackpoint>
          <Trackpoint>
            <Time>2022-07-15T15:11:15.000Z</Time>
            <Position>
              <LatitudeDegrees>43.39974992908537387847900390625</LatitudeDegrees>
              <LongitudeDegrees>-4.65485128574073314666748046875</LongitudeDegrees>
            </Position>
            <AltitudeMeters>38.200000762939453125</AltitudeMeters>
            <DistanceMeters>NAN</DistanceMeters>
          </Trackpoint>
          <Trackpoint>
            <Time>2022-07-15T15:11:16.000Z</Time>
            <Position>
              <LatitudeDegrees>43.39976049028337001800537109375</LatitudeDegrees>
              <LongitudeDegrees>-4.65485832653939723968505859375</LongitudeDegrees>
            </Position>
            <AltitudeMeters>38.40000152587890625</AltitudeMeters>
            <DistanceMeters>NAN</DistanceMeters>
          </Trackpoint>
          <Trackpoint>
            <Time>2022-07-15T15:11:18.000Z</Time>
            <Position>
              <LatitudeDegrees>43.3997832052409648895263671875</LatitudeDegrees>
              <LongitudeDegrees>-4.6548723243176937103271484375</LongitudeDegrees>
            </Position>
            <AltitudeMeters>38.40000152587890625</AltitudeMeters>
            <DistanceMeters>NAN</DistanceMeters>
          </Trackpoint>
          <Trackpoint>
            <Time>2022-07-15T15:11:20.000Z</Time>
            <Position>
              <LatitudeDegrees>43.399796783924102783203125</LatitudeDegrees>
              <LongitudeDegrees>-4.65489864349365234375</LongitudeDegrees>
            </Position>
            <AltitudeMeters>38.40000152587890625</AltitudeMeters>
            <DistanceMeters>NAN</DistanceMeters>
          </Trackpoint>
          <Trackpoint>
            <Time>2022-07-15T15:11:21.000Z</Time>
            <Position>
              <LatitudeDegrees>43.39980709366500377655029296875</LatitudeDegrees>
              <LongitudeDegrees>-4.6549145691096782684326171875</LongitudeDegrees>
            </Position>
            <AltitudeMeters>38.40000152587890625</AltitudeMeters>
            <DistanceMeters>NAN</DistanceMeters>
          </Trackpoint>
          <Trackpoint>
            <Time>2022-07-15T15:11:25.000Z</Time>
            <Position>
              <LatitudeDegrees>43.399840034544467926025390625</LatitudeDegrees>
              <LongitudeDegrees>-4.65498003177344799041748046875</LongitudeDegrees>
            </Position>
            <AltitudeMeters>38.200000762939453125</AltitudeMeters>
            <DistanceMeters>NAN</DistanceMeters>
          </Trackpoint>
          <Trackpoint>
            <Time>2022-07-15T15:11:29.000Z</Time>
            <Position>
              <LatitudeDegrees>43.39982385747134685516357421875</LatitudeDegrees>
              <LongitudeDegrees>-4.65505161322653293609619140625</LongitudeDegrees>
            </Position>
            <AltitudeMeters>38.200000762939453125</AltitudeMeters>
            <DistanceMeters>NAN</DistanceMeters>
          </Trackpoint>
          <Trackpoint>
            <Time>2022-07-15T15:11:36.000Z</Time>
            <Position>
              <LatitudeDegrees>43.39978630654513835906982421875</LatitudeDegrees>
              <LongitudeDegrees>-4.655204080045223236083984375</LongitudeDegrees>
            </Position>
            <AltitudeMeters>38.200000762939453125</AltitudeMeters>
            <DistanceMeters>NAN</DistanceMeters>
          </Trackpoint>
          <Trackpoint>
            <Time>2022-07-15T15:11:45.000Z</Time>
            <Position>
              <LatitudeDegrees>43.3997047506272792816162109375</LatitudeDegrees>
              <LongitudeDegrees>-4.6554030664265155792236328125</LongitudeDegrees>
            </Position>
            <AltitudeMeters>38.200000762939453125</AltitudeMeters>
            <DistanceMeters>NAN</DistanceMeters>
          </Trackpoint>
          <Trackpoint>
            <Time>2022-07-15T15:11:52.000Z</Time>
            <Position>
              <LatitudeDegrees>43.3996988832950592041015625</LatitudeDegrees>
              <LongitudeDegrees>-4.655527286231517791748046875</LongitudeDegrees>
            </Position>
            <AltitudeMeters>38.799999237060546875</AltitudeMeters>
            <DistanceMeters>NAN</DistanceMeters>
          </Trackpoint>
          <Trackpoint>
            <Time>2022-07-15T15:11:54.000Z</Time>
            <Position>
              <LatitudeDegrees>43.399693854153156280517578125</LatitudeDegrees>
              <LongitudeDegrees>-4.65556710027158260345458984375</LongitudeDegrees>
            </Position>
            <AltitudeMeters>39.40000152587890625</AltitudeMeters>
            <DistanceMeters>NAN</DistanceMeters>
          </Trackpoint>
          <Trackpoint>
            <Time>2022-07-15T15:11:59.000Z</Time>
            <Position>
              <LatitudeDegrees>43.39968689717352390289306640625</LatitudeDegrees>
              <LongitudeDegrees>-4.65564119629561901092529296875</LongitudeDegrees>
            </Position>
            <AltitudeMeters>40.799999237060546875</AltitudeMeters>
            <DistanceMeters>NAN</DistanceMeters>
          </Trackpoint>
          <Trackpoint>
            <Time>2022-07-15T15:12:03.000Z</Time>
            <Position>
              <LatitudeDegrees>43.399689495563507080078125</LatitudeDegrees>
              <LongitudeDegrees>-4.65572082437574863433837890625</LongitudeDegrees>
            </Position>
            <AltitudeMeters>41.799999237060546875</AltitudeMeters>
            <DistanceMeters>NAN</DistanceMeters>
          </Trackpoint>
          <Trackpoint>
            <Time>2022-07-15T15:12:10.000Z</Time>
            <Position>
              <LatitudeDegrees>43.39968077838420867919921875</LatitudeDegrees>
              <LongitudeDegrees>-4.655861556529998779296875</LongitudeDegrees>
            </Position>
            <AltitudeMeters>42.59999847412109375</AltitudeMeters>
            <DistanceMeters>NAN</DistanceMeters>
          </Trackpoint>
          <Trackpoint>
            <Time>2022-07-15T15:12:12.000Z</Time>
            <Position>
              <LatitudeDegrees>43.39966527186334133148193359375</LatitudeDegrees>
              <LongitudeDegrees>-4.6559150330722332000732421875</LongitudeDegrees>
            </Position>
            <AltitudeMeters>42.59999847412109375</AltitudeMeters>
            <DistanceMeters>NAN</DistanceMeters>
          </Trackpoint>
          <Trackpoint>
            <Time>2022-07-15T15:12:14.000Z</Time>
            <Position>
              <LatitudeDegrees>43.39965404011309146881103515625</LatitudeDegrees>
              <LongitudeDegrees>-4.65597177855670452117919921875</LongitudeDegrees>
            </Position>
            <AltitudeMeters>42.40000152587890625</AltitudeMeters>
            <DistanceMeters>NAN</DistanceMeters>
          </Trackpoint>
          <Trackpoint>
            <Time>2022-07-15T15:12:16.000Z</Time>
            <Position>
              <LatitudeDegrees>43.39964582584798336029052734375</LatitudeDegrees>
              <LongitudeDegrees>-4.65602860786020755767822265625</LongitudeDegrees>
            </Position>
            <AltitudeMeters>42.40000152587890625</AltitudeMeters>
            <DistanceMeters>NAN</DistanceMeters>
          </Trackpoint>
          <Trackpoint>
            <Time>2022-07-15T15:12:17.000Z</Time>
            <Position>
              <LatitudeDegrees>43.39964054524898529052734375</LatitudeDegrees>
              <LongitudeDegrees>-4.656055681407451629638671875</LongitudeDegrees>
            </Position>
            <AltitudeMeters>42.40000152587890625</AltitudeMeters>
            <DistanceMeters>NAN</DistanceMeters>
          </Trackpoint>
          <Trackpoint>
            <Time>2022-07-15T15:12:23.000Z</Time>
            <Position>
              <LatitudeDegrees>43.39966812171041965484619140625</LatitudeDegrees>
              <LongitudeDegrees>-4.6562437713146209716796875</LongitudeDegrees>
            </Position>
            <AltitudeMeters>42.200000762939453125</AltitudeMeters>
            <DistanceMeters>NAN</DistanceMeters>
          </Trackpoint>
          <Trackpoint>
            <Time>2022-07-15T15:12:25.000Z</Time>
            <Position>
              <LatitudeDegrees>43.399700559675693511962890625</LatitudeDegrees>
              <LongitudeDegrees>-4.65631845407187938690185546875</LongitudeDegrees>
            </Position>
            <AltitudeMeters>42.200000762939453125</AltitudeMeters>
            <DistanceMeters>NAN</DistanceMeters>
          </Trackpoint>
          <Trackpoint>
            <Time>2022-07-15T15:12:28.000Z</Time>
            <Position>
              <LatitudeDegrees>43.399745486676692962646484375</LatitudeDegrees>
              <LongitudeDegrees>-4.656407050788402557373046875</LongitudeDegrees>
            </Position>
            <AltitudeMeters>42</AltitudeMeters>
            <DistanceMeters>NAN</DistanceMeters>
          </Trackpoint>
          <Trackpoint>
            <Time>2022-07-15T15:12:30.000Z</Time>
            <Position>
              <LatitudeDegrees>43.3997739851474761962890625</LatitudeDegrees>
              <LongitudeDegrees>-4.65647737495601177215576171875</LongitudeDegrees>
            </Position>
            <AltitudeMeters>42</AltitudeMeters>
            <DistanceMeters>NAN</DistanceMeters>
          </Trackpoint>
          <Trackpoint>
            <Time>2022-07-15T15:12:32.000Z</Time>
            <Position>
              <LatitudeDegrees>43.39979351498186588287353515625</LatitudeDegrees>
              <LongitudeDegrees>-4.65655197389423847198486328125</LongitudeDegrees>
            </Position>
            <AltitudeMeters>41.799999237060546875</AltitudeMeters>
            <DistanceMeters>NAN</DistanceMeters>
          </Trackpoint>
          <Trackpoint>
            <Time>2022-07-15T15:12:38.000Z</Time>
            <Position>
              <LatitudeDegrees>43.3998277969658374786376953125</LatitudeDegrees>
              <LongitudeDegrees>-4.65672933496534824371337890625</LongitudeDegrees>
            </Position>
            <AltitudeMeters>41.799999237060546875</AltitudeMeters>
            <DistanceMeters>NAN</DistanceMeters>
          </Trackpoint>
          <Trackpoint>
            <Time>2022-07-15T15:12:39.000Z</Time>
            <Position>
              <LatitudeDegrees>43.39983190409839153289794921875</LatitudeDegrees>
              <LongitudeDegrees>-4.656750373542308807373046875</LongitudeDegrees>
            </Position>
            <AltitudeMeters>41.799999237060546875</AltitudeMeters>
            <DistanceMeters>NAN</DistanceMeters>
          </Trackpoint>
          <Trackpoint>
            <Time>2022-07-15T15:12:42.000Z</Time>
            <Position>
              <LatitudeDegrees>43.399876914918422698974609375</LatitudeDegrees>
              <LongitudeDegrees>-4.65685439296066761016845703125</LongitudeDegrees>
            </Position>
            <AltitudeMeters>41.799999237060546875</AltitudeMeters>
            <DistanceMeters>NAN</DistanceMeters>
          </Trackpoint>
          <Trackpoint>
            <Time>2022-07-15T15:12:50.000Z</Time>
            <Position>
              <LatitudeDegrees>43.39999753050506114959716796875</LatitudeDegrees>
              <LongitudeDegrees>-4.657218419015407562255859375</LongitudeDegrees>
            </Position>
            <AltitudeMeters>41.799999237060546875</AltitudeMeters>
            <DistanceMeters>NAN</DistanceMeters>
          </Trackpoint>
          <Trackpoint>
            <Time>2022-07-15T15:12:54.000Z</Time>
            <Position>
              <LatitudeDegrees>43.40005989186465740203857421875</LatitudeDegrees>
              <LongitudeDegrees>-4.657416902482509613037109375</LongitudeDegrees>
            </Position>
            <AltitudeMeters>41.59999847412109375</AltitudeMeters>
            <DistanceMeters>NAN</DistanceMeters>
          </Trackpoint>
          <Trackpoint>
            <Time>2022-07-15T15:12:58.000Z</Time>
            <Position>
              <LatitudeDegrees>43.40013298206031322479248046875</LatitudeDegrees>
              <LongitudeDegrees>-4.65756987221539020538330078125</LongitudeDegrees>
            </Position>
            <AltitudeMeters>41.200000762939453125</AltitudeMeters>
            <DistanceMeters>NAN</DistanceMeters>
          </Trackpoint>
          <Trackpoint>
            <Time>2022-07-15T15:13:05.000Z</Time>
            <Position>
              <LatitudeDegrees>43.40026860125362873077392578125</LatitudeDegrees>
              <LongitudeDegrees>-4.65783054940402507781982421875</LongitudeDegrees>
            </Position>
            <AltitudeMeters>40.59999847412109375</AltitudeMeters>
            <DistanceMeters>NAN</DistanceMeters>
          </Trackpoint>
          <Trackpoint>
            <Time>2022-07-15T15:13:08.000Z</Time>
            <Position>
              <LatitudeDegrees>43.40036180801689624786376953125</LatitudeDegrees>
              <LongitudeDegrees>-4.6579548530280590057373046875</LongitudeDegrees>
            </Position>
            <AltitudeMeters>40</AltitudeMeters>
            <DistanceMeters>NAN</DistanceMeters>
          </Trackpoint>
          <Trackpoint>
            <Time>2022-07-15T15:13:10.000Z</Time>
            <Position>
              <LatitudeDegrees>43.4004433639347553253173828125</LatitudeDegrees>
              <LongitudeDegrees>-4.65802467428147792816162109375</LongitudeDegrees>
            </Position>
            <AltitudeMeters>39.799999237060546875</AltitudeMeters>
            <DistanceMeters>NAN</DistanceMeters>
          </Trackpoint>
          <Trackpoint>
            <Time>2022-07-15T15:13:11.000Z</Time>
            <Position>
              <LatitudeDegrees>43.400487117469310760498046875</LatitudeDegrees>
              <LongitudeDegrees>-4.6580507420003414154052734375</LongitudeDegrees>
            </Position>
            <AltitudeMeters>39.799999237060546875</AltitudeMeters>
            <DistanceMeters>NAN</DistanceMeters>
          </Trackpoint>
          <Trackpoint>
            <Time>2022-07-15T15:13:15.000Z</Time>
            <Position>
              <LatitudeDegrees>43.4006700105965137481689453125</LatitudeDegrees>
              <LongitudeDegrees>-4.65815912000834941864013671875</LongitudeDegrees>
            </Position>
            <AltitudeMeters>39.799999237060546875</AltitudeMeters>
            <DistanceMeters>NAN</DistanceMeters>
          </Trackpoint>
          <Trackpoint>
            <Time>2022-07-15T15:13:16.000Z</Time>
            <Position>
              <LatitudeDegrees>43.40071351267397403717041015625</LatitudeDegrees>
              <LongitudeDegrees>-4.65818963013589382171630859375</LongitudeDegrees>
            </Position>
            <AltitudeMeters>39.59999847412109375</AltitudeMeters>
            <DistanceMeters>NAN</DistanceMeters>
          </Trackpoint>
          <Trackpoint>
            <Time>2022-07-15T15:13:17.000Z</Time>
            <Position>
              <LatitudeDegrees>43.40075961314141750335693359375</LatitudeDegrees>
              <LongitudeDegrees>-4.6582210622727870941162109375</LongitudeDegrees>
            </Position>
            <AltitudeMeters>39.40000152587890625</AltitudeMeters>
            <DistanceMeters>NAN</DistanceMeters>
          </Trackpoint>
          <Trackpoint>
            <Time>2022-07-15T15:13:18.000Z</Time>
            <Position>
              <LatitudeDegrees>43.40080588124692440032958984375</LatitudeDegrees>
              <LongitudeDegrees>-4.6582505665719509124755859375</LongitudeDegrees>
            </Position>
            <AltitudeMeters>39.200000762939453125</AltitudeMeters>
            <DistanceMeters>NAN</DistanceMeters>
          </Trackpoint>
          <Trackpoint>
            <Time>2022-07-15T15:13:21.000Z</Time>
            <Position>
              <LatitudeDegrees>43.40094267390668392181396484375</LatitudeDegrees>
              <LongitudeDegrees>-4.65832541696727275848388671875</LongitudeDegrees>
            </Position>
            <AltitudeMeters>38.59999847412109375</AltitudeMeters>
            <DistanceMeters>NAN</DistanceMeters>
          </Trackpoint>
          <Trackpoint>
            <Time>2022-07-15T15:13:22.000Z</Time>
            <Position>
              <LatitudeDegrees>43.40098030865192413330078125</LatitudeDegrees>
              <LongitudeDegrees>-4.6583519876003265380859375</LongitudeDegrees>
            </Position>
            <AltitudeMeters>38.200000762939453125</AltitudeMeters>
            <DistanceMeters>NAN</DistanceMeters>
          </Trackpoint>
          <Trackpoint>
            <Time>2022-07-15T15:13:23.000Z</Time>
            <Position>
              <LatitudeDegrees>43.40101023204624652862548828125</LatitudeDegrees>
              <LongitudeDegrees>-4.65838107280433177947998046875</LongitudeDegrees>
            </Position>
            <AltitudeMeters>38.200000762939453125</AltitudeMeters>
            <DistanceMeters>NAN</DistanceMeters>
          </Trackpoint>
          <Trackpoint>
            <Time>2022-07-15T15:13:26.000Z</Time>
            <Position>
              <LatitudeDegrees>43.40105147100985050201416015625</LatitudeDegrees>
              <LongitudeDegrees>-4.65845684520900249481201171875</LongitudeDegrees>
            </Position>
            <AltitudeMeters>38.200000762939453125</AltitudeMeters>
            <DistanceMeters>NAN</DistanceMeters>
          </Trackpoint>
          <Trackpoint>
            <Time>2022-07-15T15:13:30.000Z</Time>
            <Position>
              <LatitudeDegrees>43.40106773190200328826904296875</LatitudeDegrees>
              <LongitudeDegrees>-4.65853479690849781036376953125</LongitudeDegrees>
            </Position>
            <AltitudeMeters>38.799999237060546875</AltitudeMeters>
            <DistanceMeters>NAN</DistanceMeters>
          </Trackpoint>
          <Trackpoint>
            <Time>2022-07-15T15:13:32.000Z</Time>
            <Position>
              <LatitudeDegrees>43.40106303803622722625732421875</LatitudeDegrees>
              <LongitudeDegrees>-4.6585858426988124847412109375</LongitudeDegrees>
            </Position>
            <AltitudeMeters>39.200000762939453125</AltitudeMeters>
            <DistanceMeters>NAN</DistanceMeters>
          </Trackpoint>
          <Trackpoint>
            <Time>2022-07-15T15:13:37.000Z</Time>
            <Position>
              <LatitudeDegrees>43.4010411612689495086669921875</LatitudeDegrees>
              <LongitudeDegrees>-4.6586984954774379730224609375</LongitudeDegrees>
            </Position>
            <AltitudeMeters>39.59999847412109375</AltitudeMeters>
            <DistanceMeters>NAN</DistanceMeters>
          </Trackpoint>
          <Trackpoint>
            <Time>2022-07-15T15:13:40.000Z</Time>
            <Position>
              <LatitudeDegrees>43.401031605899333953857421875</LatitudeDegrees>
              <LongitudeDegrees>-4.6587564982473850250244140625</LongitudeDegrees>
            </Position>
            <AltitudeMeters>40.59999847412109375</AltitudeMeters>
            <DistanceMeters>NAN</DistanceMeters>
          </Trackpoint>
          <Trackpoint>
            <Time>2022-07-15T15:13:43.000Z</Time>
            <Position>
              <LatitudeDegrees>43.40102900750935077667236328125</LatitudeDegrees>
              <LongitudeDegrees>-4.65881927870213985443115234375</LongitudeDegrees>
            </Position>
            <AltitudeMeters>41.200000762939453125</AltitudeMeters>
            <DistanceMeters>NAN</DistanceMeters>
          </Trackpoint>
          <Trackpoint>
            <Time>2022-07-15T15:13:47.000Z</Time>
            <Position>
              <LatitudeDegrees>43.401019535958766937255859375</LatitudeDegrees>
              <LongitudeDegrees>-4.6589476056396961212158203125</LongitudeDegrees>
            </Position>
            <AltitudeMeters>41.200000762939453125</AltitudeMeters>
            <DistanceMeters>NAN</DistanceMeters>
          </Trackpoint>
          <Trackpoint>
            <Time>2022-07-15T15:13:49.000Z</Time>
            <Position>
              <LatitudeDegrees>43.40100721456110477447509765625</LatitudeDegrees>
              <LongitudeDegrees>-4.6590357832610607147216796875</LongitudeDegrees>
            </Position>
            <AltitudeMeters>41</AltitudeMeters>
            <DistanceMeters>NAN</DistanceMeters>
          </Trackpoint>
          <Trackpoint>
            <Time>2022-07-15T15:13:55.000Z</Time>
            <Position>
              <LatitudeDegrees>43.40093881823122501373291015625</LatitudeDegrees>
              <LongitudeDegrees>-4.6593512780964374542236328125</LongitudeDegrees>
            </Position>
            <AltitudeMeters>40.40000152587890625</AltitudeMeters>
            <DistanceMeters>NAN</DistanceMeters>
          </Trackpoint>
          <Trackpoint>
            <Time>2022-07-15T15:13:57.000Z</Time>
            <Position>
              <LatitudeDegrees>43.40091618709266185760498046875</LatitudeDegrees>
              <LongitudeDegrees>-4.65947021730244159698486328125</LongitudeDegrees>
            </Position>
            <AltitudeMeters>40</AltitudeMeters>
            <DistanceMeters>NAN</DistanceMeters>
          </Trackpoint>
          <Trackpoint>
            <Time>2022-07-15T15:14:01.000Z</Time>
            <Position>
              <LatitudeDegrees>43.4008329547941684722900390625</LatitudeDegrees>
              <LongitudeDegrees>-4.6597361750900745391845703125</LongitudeDegrees>
            </Position>
            <AltitudeMeters>39.40000152587890625</AltitudeMeters>
            <DistanceMeters>NAN</DistanceMeters>
          </Trackpoint>
          <Trackpoint>
            <Time>2022-07-15T15:14:03.000Z</Time>
            <Position>
              <LatitudeDegrees>43.4007840044796466827392578125</LatitudeDegrees>
              <LongitudeDegrees>-4.65987590141594409942626953125</LongitudeDegrees>
            </Position>
            <AltitudeMeters>38.40000152587890625</AltitudeMeters>
            <DistanceMeters>NAN</DistanceMeters>
          </Trackpoint>
          <Trackpoint>
            <Time>2022-07-15T15:14:04.000Z</Time>
            <Position>
              <LatitudeDegrees>43.40075500309467315673828125</LatitudeDegrees>
              <LongitudeDegrees>-4.65993792749941349029541015625</LongitudeDegrees>
            </Position>
            <AltitudeMeters>38.200000762939453125</AltitudeMeters>
            <DistanceMeters>NAN</DistanceMeters>
          </Trackpoint>
          <Trackpoint>
            <Time>2022-07-15T15:14:05.000Z</Time>
            <Position>
              <LatitudeDegrees>43.40072415769100189208984375</LatitudeDegrees>
              <LongitudeDegrees>-4.65999173931777477264404296875</LongitudeDegrees>
            </Position>
            <AltitudeMeters>38</AltitudeMeters>
            <DistanceMeters>NAN</DistanceMeters>
          </Trackpoint>
          <Trackpoint>
            <Time>2022-07-15T15:14:06.000Z</Time>
            <Position>
              <LatitudeDegrees>43.400682248175144195556640625</LatitudeDegrees>
              <LongitudeDegrees>-4.66003842651844024658203125</LongitudeDegrees>
            </Position>
            <AltitudeMeters>37.59999847412109375</AltitudeMeters>
            <DistanceMeters>NAN</DistanceMeters>
          </Trackpoint>
          <Trackpoint>
            <Time>2022-07-15T15:14:07.000Z</Time>
            <Position>
              <LatitudeDegrees>43.4006344713270664215087890625</LatitudeDegrees>
              <LongitudeDegrees>-4.66007438488304615020751953125</LongitudeDegrees>
            </Position>
            <AltitudeMeters>37.59999847412109375</AltitudeMeters>
            <DistanceMeters>NAN</DistanceMeters>
          </Trackpoint>
          <Trackpoint>
            <Time>2022-07-15T15:14:10.000Z</Time>
            <Position>
              <LatitudeDegrees>43.40045920573174953460693359375</LatitudeDegrees>
              <LongitudeDegrees>-4.6601391769945621490478515625</LongitudeDegrees>
            </Position>
            <AltitudeMeters>37</AltitudeMeters>
            <DistanceMeters>NAN</DistanceMeters>
          </Trackpoint>
          <Trackpoint>
            <Time>2022-07-15T15:14:13.000Z</Time>
            <Position>
              <LatitudeDegrees>43.40027111582458019256591796875</LatitudeDegrees>
              <LongitudeDegrees>-4.66019935905933380126953125</LongitudeDegrees>
            </Position>
            <AltitudeMeters>36.200000762939453125</AltitudeMeters>
            <DistanceMeters>NAN</DistanceMeters>
          </Trackpoint>
          <Trackpoint>
            <Time>2022-07-15T15:14:15.000Z</Time>
            <Position>
              <LatitudeDegrees>43.4001533500850200653076171875</LatitudeDegrees>
              <LongitudeDegrees>-4.660280831158161163330078125</LongitudeDegrees>
            </Position>
            <AltitudeMeters>35.59999847412109375</AltitudeMeters>
            <DistanceMeters>NAN</DistanceMeters>
          </Trackpoint>
          <Trackpoint>
            <Time>2022-07-15T15:14:18.000Z</Time>
            <Position>
              <LatitudeDegrees>43.40001077391207218170166015625</LatitudeDegrees>
              <LongitudeDegrees>-4.66042441315948963165283203125</LongitudeDegrees>
            </Position>
            <AltitudeMeters>35.40000152587890625</AltitudeMeters>
            <DistanceMeters>NAN</DistanceMeters>
          </Trackpoint>
          <Trackpoint>
            <Time>2022-07-15T15:14:20.000Z</Time>
            <Position>
              <LatitudeDegrees>43.3999716304242610931396484375</LatitudeDegrees>
              <LongitudeDegrees>-4.66050513088703155517578125</LongitudeDegrees>
            </Position>
            <AltitudeMeters>36</AltitudeMeters>
            <DistanceMeters>NAN</DistanceMeters>
          </Trackpoint>
          <Trackpoint>
            <Time>2022-07-15T15:14:22.000Z</Time>
            <Position>
              <LatitudeDegrees>43.39996333234012126922607421875</LatitudeDegrees>
              <LongitudeDegrees>-4.66055299155414104461669921875</LongitudeDegrees>
            </Position>
            <AltitudeMeters>36.799999237060546875</AltitudeMeters>
            <DistanceMeters>NAN</DistanceMeters>
          </Trackpoint>
          <Trackpoint>
            <Time>2022-07-15T15:14:24.000Z</Time>
            <Position>
              <LatitudeDegrees>43.39996241033077239990234375</LatitudeDegrees>
              <LongitudeDegrees>-4.6605820767581462860107421875</LongitudeDegrees>
            </Position>
            <AltitudeMeters>37.59999847412109375</AltitudeMeters>
            <DistanceMeters>NAN</DistanceMeters>
          </Trackpoint>
          <Trackpoint>
            <Time>2022-07-15T15:14:25.000Z</Time>
            <Position>
              <LatitudeDegrees>43.39995763264596462249755859375</LatitudeDegrees>
              <LongitudeDegrees>-4.66059875674545764923095703125</LongitudeDegrees>
            </Position>
            <AltitudeMeters>38</AltitudeMeters>
            <DistanceMeters>NAN</DistanceMeters>
          </Trackpoint>
          <Trackpoint>
            <Time>2022-07-15T15:14:29.000Z</Time>
            <Position>
              <LatitudeDegrees>43.3999163098633289337158203125</LatitudeDegrees>
              <LongitudeDegrees>-4.66070788912475109100341796875</LongitudeDegrees>
            </Position>
            <AltitudeMeters>38.59999847412109375</AltitudeMeters>
            <DistanceMeters>NAN</DistanceMeters>
          </Trackpoint>
          <Trackpoint>
            <Time>2022-07-15T15:14:30.000Z</Time>
            <Position>
              <LatitudeDegrees>43.3998982049524784088134765625</LatitudeDegrees>
              <LongitudeDegrees>-4.66073504649102687835693359375</LongitudeDegrees>
            </Position>
            <AltitudeMeters>38.59999847412109375</AltitudeMeters>
            <DistanceMeters>NAN</DistanceMeters>
          </Trackpoint>
          <Trackpoint>
            <Time>2022-07-15T15:14:31.000Z</Time>
            <Position>
              <LatitudeDegrees>43.3998784236609935760498046875</LatitudeDegrees>
              <LongitudeDegrees>-4.6607661433517932891845703125</LongitudeDegrees>
            </Position>
            <AltitudeMeters>38.59999847412109375</AltitudeMeters>
            <DistanceMeters>NAN</DistanceMeters>
          </Trackpoint>
          <Trackpoint>
            <Time>2022-07-15T15:14:35.000Z</Time>
            <Position>
              <LatitudeDegrees>43.39982134290039539337158203125</LatitudeDegrees>
              <LongitudeDegrees>-4.66090989299118518829345703125</LongitudeDegrees>
            </Position>
            <AltitudeMeters>38.799999237060546875</AltitudeMeters>
            <DistanceMeters>NAN</DistanceMeters>
          </Trackpoint>
          <Trackpoint>
            <Time>2022-07-15T15:14:41.000Z</Time>
            <Position>
              <LatitudeDegrees>43.3998190797865390777587890625</LatitudeDegrees>
              <LongitudeDegrees>-4.6611758507788181304931640625</LongitudeDegrees>
            </Position>
            <AltitudeMeters>39</AltitudeMeters>
            <DistanceMeters>NAN</DistanceMeters>
          </Trackpoint>
          <Trackpoint>
            <Time>2022-07-15T15:14:42.000Z</Time>
            <Position>
              <LatitudeDegrees>43.39982352219521999359130859375</LatitudeDegrees>
              <LongitudeDegrees>-4.66121834702789783477783203125</LongitudeDegrees>
            </Position>
            <AltitudeMeters>39</AltitudeMeters>
            <DistanceMeters>NAN</DistanceMeters>
          </Trackpoint>
          <Trackpoint>
            <Time>2022-07-15T15:14:46.000Z</Time>
            <Position>
              <LatitudeDegrees>43.399831987917423248291015625</LatitudeDegrees>
              <LongitudeDegrees>-4.66138715855777263641357421875</LongitudeDegrees>
            </Position>
            <AltitudeMeters>39.200000762939453125</AltitudeMeters>
            <DistanceMeters>NAN</DistanceMeters>
          </Trackpoint>
          <Trackpoint>
            <Time>2022-07-15T15:14:49.000Z</Time>
            <Position>
              <LatitudeDegrees>43.39983441866934299468994140625</LatitudeDegrees>
              <LongitudeDegrees>-4.66149159707129001617431640625</LongitudeDegrees>
            </Position>
            <AltitudeMeters>39.40000152587890625</AltitudeMeters>
            <DistanceMeters>NAN</DistanceMeters>
          </Trackpoint>
          <Trackpoint>
            <Time>2022-07-15T15:14:50.000Z</Time>
            <Position>
              <LatitudeDegrees>43.39983542449772357940673828125</LatitudeDegrees>
              <LongitudeDegrees>-4.661521017551422119140625</LongitudeDegrees>
            </Position>
            <AltitudeMeters>39.799999237060546875</AltitudeMeters>
            <DistanceMeters>NAN</DistanceMeters>
          </Trackpoint>
          <Trackpoint>
            <Time>2022-07-15T15:14:52.000Z</Time>
            <Position>
              <LatitudeDegrees>43.39983366429805755615234375</LatitudeDegrees>
              <LongitudeDegrees>-4.66157625429332256317138671875</LongitudeDegrees>
            </Position>
            <AltitudeMeters>40.200000762939453125</AltitudeMeters>
            <DistanceMeters>NAN</DistanceMeters>
          </Trackpoint>
          <Trackpoint>
            <Time>2022-07-15T15:14:56.000Z</Time>
            <Position>
              <LatitudeDegrees>43.39983659796416759490966796875</LatitudeDegrees>
              <LongitudeDegrees>-4.66168672777712345123291015625</LongitudeDegrees>
            </Position>
            <AltitudeMeters>41</AltitudeMeters>
            <DistanceMeters>NAN</DistanceMeters>
          </Trackpoint>
          <Trackpoint>
            <Time>2022-07-15T15:15:01.000Z</Time>
            <Position>
              <LatitudeDegrees>43.39987456798553466796875</LatitudeDegrees>
              <LongitudeDegrees>-4.66192577965557575225830078125</LongitudeDegrees>
            </Position>
            <AltitudeMeters>40.799999237060546875</AltitudeMeters>
            <DistanceMeters>NAN</DistanceMeters>
          </Trackpoint>
          <Trackpoint>
            <Time>2022-07-15T15:15:04.000Z</Time>
            <Position>
              <LatitudeDegrees>43.399902395904064178466796875</LatitudeDegrees>
              <LongitudeDegrees>-4.662077911198139190673828125</LongitudeDegrees>
            </Position>
            <AltitudeMeters>40.200000762939453125</AltitudeMeters>
            <DistanceMeters>NAN</DistanceMeters>
          </Trackpoint>
          <Trackpoint>
            <Time>2022-07-15T15:15:09.000Z</Time>
            <Position>
              <LatitudeDegrees>43.39995528571307659149169921875</LatitudeDegrees>
              <LongitudeDegrees>-4.6623007021844387054443359375</LongitudeDegrees>
            </Position>
            <AltitudeMeters>40</AltitudeMeters>
            <DistanceMeters>NAN</DistanceMeters>
          </Trackpoint>
          <Trackpoint>
            <Time>2022-07-15T15:15:15.000Z</Time>
            <Position>
              <LatitudeDegrees>43.40001630596816539764404296875</LatitudeDegrees>
              <LongitudeDegrees>-4.66251368634402751922607421875</LongitudeDegrees>
            </Position>
            <AltitudeMeters>40</AltitudeMeters>
            <DistanceMeters>NAN</DistanceMeters>
          </Trackpoint>
          <Trackpoint>
            <Time>2022-07-15T15:15:16.000Z</Time>
            <Position>
              <LatitudeDegrees>43.400023765861988067626953125</LatitudeDegrees>
              <LongitudeDegrees>-4.66253958642482757568359375</LongitudeDegrees>
            </Position>
            <AltitudeMeters>40</AltitudeMeters>
            <DistanceMeters>NAN</DistanceMeters>
          </Trackpoint>
          <Trackpoint>
            <Time>2022-07-15T15:15:19.000Z</Time>
            <Position>
              <LatitudeDegrees>43.4000423736870288848876953125</LatitudeDegrees>
              <LongitudeDegrees>-4.6626047976315021514892578125</LongitudeDegrees>
            </Position>
            <AltitudeMeters>40.59999847412109375</AltitudeMeters>
            <DistanceMeters>NAN</DistanceMeters>
          </Trackpoint>
          <Trackpoint>
            <Time>2022-07-15T15:15:23.000Z</Time>
            <Position>
              <LatitudeDegrees>43.40005922131240367889404296875</LatitudeDegrees>
              <LongitudeDegrees>-4.66269020922482013702392578125</LongitudeDegrees>
            </Position>
            <AltitudeMeters>41.40000152587890625</AltitudeMeters>
            <DistanceMeters>NAN</DistanceMeters>
          </Trackpoint>
          <Trackpoint>
            <Time>2022-07-15T15:15:31.000Z</Time>
            <Position>
              <LatitudeDegrees>43.400091826915740966796875</LatitudeDegrees>
              <LongitudeDegrees>-4.66284443624317646026611328125</LongitudeDegrees>
            </Position>
            <AltitudeMeters>42.40000152587890625</AltitudeMeters>
            <DistanceMeters>NAN</DistanceMeters>
          </Trackpoint>
          <Trackpoint>
            <Time>2022-07-15T15:15:32.000Z</Time>
            <Position>
              <LatitudeDegrees>43.40009341947734355926513671875</LatitudeDegrees>
              <LongitudeDegrees>-4.66286388225853443145751953125</LongitudeDegrees>
            </Position>
            <AltitudeMeters>42.59999847412109375</AltitudeMeters>
            <DistanceMeters>NAN</DistanceMeters>
          </Trackpoint>
          <Trackpoint>
            <Time>2022-07-15T15:15:37.000Z</Time>
            <Position>
              <LatitudeDegrees>43.40011420659720897674560546875</LatitudeDegrees>
              <LongitudeDegrees>-4.662948288023471832275390625</LongitudeDegrees>
            </Position>
            <AltitudeMeters>43.59999847412109375</AltitudeMeters>
            <DistanceMeters>NAN</DistanceMeters>
          </Trackpoint>
          <Trackpoint>
            <Time>2022-07-15T15:15:40.000Z</Time>
            <Position>
              <LatitudeDegrees>43.4001181460916996002197265625</LatitudeDegrees>
              <LongitudeDegrees>-4.66300218366086483001708984375</LongitudeDegrees>
            </Position>
            <AltitudeMeters>44</AltitudeMeters>
            <DistanceMeters>NAN</DistanceMeters>
          </Trackpoint>
          <Trackpoint>
            <Time>2022-07-15T15:15:43.000Z</Time>
            <Position>
              <LatitudeDegrees>43.4001164697110652923583984375</LatitudeDegrees>
              <LongitudeDegrees>-4.66305783949792385101318359375</LongitudeDegrees>
            </Position>
            <AltitudeMeters>44.200000762939453125</AltitudeMeters>
            <DistanceMeters>NAN</DistanceMeters>
          </Trackpoint>
          <Trackpoint>
            <Time>2022-07-15T15:15:45.000Z</Time>
            <Position>
              <LatitudeDegrees>43.40011269785463809967041015625</LatitudeDegrees>
              <LongitudeDegrees>-4.66309740208089351654052734375</LongitudeDegrees>
            </Position>
            <AltitudeMeters>44.40000152587890625</AltitudeMeters>
            <DistanceMeters>NAN</DistanceMeters>
          </Trackpoint>
          <Trackpoint>
            <Time>2022-07-15T15:15:46.000Z</Time>
            <Position>
              <LatitudeDegrees>43.40011403895914554595947265625</LatitudeDegrees>
              <LongitudeDegrees>-4.66311550699174404144287109375</LongitudeDegrees>
            </Position>
            <AltitudeMeters>44.799999237060546875</AltitudeMeters>
            <DistanceMeters>NAN</DistanceMeters>
          </Trackpoint>
          <Trackpoint>
            <Time>2022-07-15T15:15:48.000Z</Time>
            <Position>
              <LatitudeDegrees>43.40011990629136562347412109375</LatitudeDegrees>
              <LongitudeDegrees>-4.663148783147335052490234375</LongitudeDegrees>
            </Position>
            <AltitudeMeters>45.200000762939453125</AltitudeMeters>
            <DistanceMeters>NAN</DistanceMeters>
          </Trackpoint>
          <Trackpoint>
            <Time>2022-07-15T15:15:50.000Z</Time>
            <Position>
              <LatitudeDegrees>43.4001157991588115692138671875</LatitudeDegrees>
              <LongitudeDegrees>-4.6631865017116069793701171875</LongitudeDegrees>
            </Position>
            <AltitudeMeters>45.799999237060546875</AltitudeMeters>
            <DistanceMeters>NAN</DistanceMeters>
          </Trackpoint>
          <Trackpoint>
            <Time>2022-07-15T15:15:51.000Z</Time>
            <Position>
              <LatitudeDegrees>43.4001173079013824462890625</LatitudeDegrees>
              <LongitudeDegrees>-4.66320351697504520416259765625</LongitudeDegrees>
            </Position>
            <AltitudeMeters>46</AltitudeMeters>
            <DistanceMeters>NAN</DistanceMeters>
          </Trackpoint>
          <Trackpoint>
            <Time>2022-07-15T15:15:53.000Z</Time>
            <Position>
              <LatitudeDegrees>43.4001191519200801849365234375</LatitudeDegrees>
              <LongitudeDegrees>-4.66324274428188800811767578125</LongitudeDegrees>
            </Position>
            <AltitudeMeters>46.40000152587890625</AltitudeMeters>
            <DistanceMeters>NAN</DistanceMeters>
          </Trackpoint>
          <Trackpoint>
            <Time>2022-07-15T15:15:56.000Z</Time>
            <Position>
              <LatitudeDegrees>43.400118649005889892578125</LatitudeDegrees>
              <LongitudeDegrees>-4.66329655610024929046630859375</LongitudeDegrees>
            </Position>
            <AltitudeMeters>47.200000762939453125</AltitudeMeters>
            <DistanceMeters>NAN</DistanceMeters>
          </Trackpoint>
          <Trackpoint>
            <Time>2022-07-15T15:16:02.000Z</Time>
            <Position>
              <LatitudeDegrees>43.400134406983852386474609375</LatitudeDegrees>
              <LongitudeDegrees>-4.663402251899242401123046875</LongitudeDegrees>
            </Position>
            <AltitudeMeters>48.200000762939453125</AltitudeMeters>
            <DistanceMeters>NAN</DistanceMeters>
          </Trackpoint>
          <Trackpoint>
            <Time>2022-07-15T15:16:03.000Z</Time>
            <Position>
              <LatitudeDegrees>43.40013566426932811737060546875</LatitudeDegrees>
              <LongitudeDegrees>-4.66341876424849033355712890625</LongitudeDegrees>
            </Position>
            <AltitudeMeters>48.200000762939453125</AltitudeMeters>
            <DistanceMeters>NAN</DistanceMeters>
          </Trackpoint>
          <Trackpoint>
            <Time>2022-07-15T15:16:06.000Z</Time>
            <Position>
              <LatitudeDegrees>43.400139100849628448486328125</LatitudeDegrees>
              <LongitudeDegrees>-4.66347341425716876983642578125</LongitudeDegrees>
            </Position>
            <AltitudeMeters>48.40000152587890625</AltitudeMeters>
            <DistanceMeters>NAN</DistanceMeters>
          </Trackpoint>
          <Trackpoint>
            <Time>2022-07-15T15:16:11.000Z</Time>
            <Position>
              <LatitudeDegrees>43.40014924295246601104736328125</LatitudeDegrees>
              <LongitudeDegrees>-4.66356284916400909423828125</LongitudeDegrees>
            </Position>
            <AltitudeMeters>49</AltitudeMeters>
            <DistanceMeters>NAN</DistanceMeters>
          </Trackpoint>
          <Trackpoint>
            <Time>2022-07-15T15:16:12.000Z</Time>
            <Position>
              <LatitudeDegrees>43.4001506678760051727294921875</LatitudeDegrees>
              <LongitudeDegrees>-4.66358036734163761138916015625</LongitudeDegrees>
            </Position>
            <AltitudeMeters>49.200000762939453125</AltitudeMeters>
            <DistanceMeters>NAN</DistanceMeters>
          </Trackpoint>
          <Trackpoint>
            <Time>2022-07-15T15:16:19.000Z</Time>
            <Position>
              <LatitudeDegrees>43.40018369257450103759765625</LatitudeDegrees>
              <LongitudeDegrees>-4.6637024916708469390869140625</LongitudeDegrees>
            </Position>
            <AltitudeMeters>50.200000762939453125</AltitudeMeters>
            <DistanceMeters>NAN</DistanceMeters>
          </Trackpoint>
          <Trackpoint>
            <Time>2022-07-15T15:16:20.000Z</Time>
            <Position>
              <LatitudeDegrees>43.40019182302057743072509765625</LatitudeDegrees>
              <LongitudeDegrees>-4.66372252441942691802978515625</LongitudeDegrees>
            </Position>
            <AltitudeMeters>50.200000762939453125</AltitudeMeters>
            <DistanceMeters>NAN</DistanceMeters>
          </Trackpoint>
          <Trackpoint>
            <Time>2022-07-15T15:16:28.000Z</Time>
            <Position>
              <LatitudeDegrees>43.400237001478672027587890625</LatitudeDegrees>
              <LongitudeDegrees>-4.66388027183711528778076171875</LongitudeDegrees>
            </Position>
            <AltitudeMeters>50.799999237060546875</AltitudeMeters>
            <DistanceMeters>NAN</DistanceMeters>
          </Trackpoint>
          <Trackpoint>
            <Time>2022-07-15T15:16:32.000Z</Time>
            <Position>
              <LatitudeDegrees>43.40025435201823711395263671875</LatitudeDegrees>
              <LongitudeDegrees>-4.663970209658145904541015625</LongitudeDegrees>
            </Position>
            <AltitudeMeters>50.799999237060546875</AltitudeMeters>
            <DistanceMeters>NAN</DistanceMeters>
          </Trackpoint>
          <Trackpoint>
            <Time>2022-07-15T15:16:36.000Z</Time>
            <Position>
              <LatitudeDegrees>43.40027966536581516265869140625</LatitudeDegrees>
              <LongitudeDegrees>-4.66408093459904193878173828125</LongitudeDegrees>
            </Position>
            <AltitudeMeters>50.799999237060546875</AltitudeMeters>
            <DistanceMeters>NAN</DistanceMeters>
          </Trackpoint>
          <Trackpoint>
            <Time>2022-07-15T15:16:41.000Z</Time>
            <Position>
              <LatitudeDegrees>43.40030833147466182708740234375</LatitudeDegrees>
              <LongitudeDegrees>-4.664271958172321319580078125</LongitudeDegrees>
            </Position>
            <AltitudeMeters>50.799999237060546875</AltitudeMeters>
            <DistanceMeters>NAN</DistanceMeters>
          </Trackpoint>
          <Trackpoint>
            <Time>2022-07-15T15:16:42.000Z</Time>
            <Position>
              <LatitudeDegrees>43.40031637810170650482177734375</LatitudeDegrees>
              <LongitudeDegrees>-4.6643140353262424468994140625</LongitudeDegrees>
            </Position>
            <AltitudeMeters>50.59999847412109375</AltitudeMeters>
            <DistanceMeters>NAN</DistanceMeters>
          </Trackpoint>
          <Trackpoint>
            <Time>2022-07-15T15:16:45.000Z</Time>
            <Position>
              <LatitudeDegrees>43.4003424458205699920654296875</LatitudeDegrees>
              <LongitudeDegrees>-4.66444395482540130615234375</LongitudeDegrees>
            </Position>
            <AltitudeMeters>50.40000152587890625</AltitudeMeters>
            <DistanceMeters>NAN</DistanceMeters>
          </Trackpoint>
          <Trackpoint>
            <Time>2022-07-15T15:16:49.000Z</Time>
            <Position>
              <LatitudeDegrees>43.400389216840267181396484375</LatitudeDegrees>
              <LongitudeDegrees>-4.66463028453290462493896484375</LongitudeDegrees>
            </Position>
            <AltitudeMeters>50</AltitudeMeters>
            <DistanceMeters>NAN</DistanceMeters>
          </Trackpoint>
          <Trackpoint>
            <Time>2022-07-15T15:16:54.000Z</Time>
            <Position>
              <LatitudeDegrees>43.40046440251171588897705078125</LatitudeDegrees>
              <LongitudeDegrees>-4.66490797698497772216796875</LongitudeDegrees>
            </Position>
            <AltitudeMeters>49.59999847412109375</AltitudeMeters>
            <DistanceMeters>NAN</DistanceMeters>
          </Trackpoint>
          <Trackpoint>
            <Time>2022-07-15T15:16:57.000Z</Time>
            <Position>
              <LatitudeDegrees>43.4005062282085418701171875</LatitudeDegrees>
              <LongitudeDegrees>-4.665104448795318603515625</LongitudeDegrees>
            </Position>
            <AltitudeMeters>49.200000762939453125</AltitudeMeters>
            <DistanceMeters>NAN</DistanceMeters>
          </Trackpoint>
          <Trackpoint>
            <Time>2022-07-15T15:17:00.000Z</Time>
            <Position>
              <LatitudeDegrees>43.4005583636462688446044921875</LatitudeDegrees>
              <LongitudeDegrees>-4.66529983095824718475341796875</LongitudeDegrees>
            </Position>
            <AltitudeMeters>47.799999237060546875</AltitudeMeters>
            <DistanceMeters>NAN</DistanceMeters>
          </Trackpoint>
          <Trackpoint>
            <Time>2022-07-15T15:17:03.000Z</Time>
            <Position>
              <LatitudeDegrees>43.400607146322727203369140625</LatitudeDegrees>
              <LongitudeDegrees>-4.66549747623503208160400390625</LongitudeDegrees>
            </Position>
            <AltitudeMeters>46.799999237060546875</AltitudeMeters>
            <DistanceMeters>NAN</DistanceMeters>
          </Trackpoint>
          <Trackpoint>
            <Time>2022-07-15T15:17:06.000Z</Time>
            <Position>
              <LatitudeDegrees>43.40065970085561275482177734375</LatitudeDegrees>
              <LongitudeDegrees>-4.66569797135889530181884765625</LongitudeDegrees>
            </Position>
            <AltitudeMeters>45.40000152587890625</AltitudeMeters>
            <DistanceMeters>NAN</DistanceMeters>
          </Trackpoint>
          <Trackpoint>
            <Time>2022-07-15T15:17:07.000Z</Time>
            <Position>
              <LatitudeDegrees>43.40068333782255649566650390625</LatitudeDegrees>
              <LongitudeDegrees>-4.665769636631011962890625</LongitudeDegrees>
            </Position>
            <AltitudeMeters>44.40000152587890625</AltitudeMeters>
            <DistanceMeters>NAN</DistanceMeters>
          </Trackpoint>
          <Trackpoint>
            <Time>2022-07-15T15:17:08.000Z</Time>
            <Position>
              <LatitudeDegrees>43.40070999227464199066162109375</LatitudeDegrees>
              <LongitudeDegrees>-4.6658495999872684478759765625</LongitudeDegrees>
            </Position>
            <AltitudeMeters>43.40000152587890625</AltitudeMeters>
            <DistanceMeters>NAN</DistanceMeters>
          </Trackpoint>
          <Trackpoint>
            <Time>2022-07-15T15:17:10.000Z</Time>
            <Position>
              <LatitudeDegrees>43.4007744491100311279296875</LatitudeDegrees>
              <LongitudeDegrees>-4.66601732186973094940185546875</LongitudeDegrees>
            </Position>
            <AltitudeMeters>42.40000152587890625</AltitudeMeters>
            <DistanceMeters>NAN</DistanceMeters>
          </Trackpoint>
          <Trackpoint>
            <Time>2022-07-15T15:17:11.000Z</Time>
            <Position>
              <LatitudeDegrees>43.40081711299717426300048828125</LatitudeDegrees>
              <LongitudeDegrees>-4.66609929688274860382080078125</LongitudeDegrees>
            </Position>
            <AltitudeMeters>41.59999847412109375</AltitudeMeters>
            <DistanceMeters>NAN</DistanceMeters>
          </Trackpoint>
          <Trackpoint>
            <Time>2022-07-15T15:17:12.000Z</Time>
            <Position>
              <LatitudeDegrees>43.4008648060262203216552734375</LatitudeDegrees>
              <LongitudeDegrees>-4.6661738120019435882568359375</LongitudeDegrees>
            </Position>
            <AltitudeMeters>41.200000762939453125</AltitudeMeters>
            <DistanceMeters>NAN</DistanceMeters>
          </Trackpoint>
          <Trackpoint>
            <Time>2022-07-15T15:17:15.000Z</Time>
            <Position>
              <LatitudeDegrees>43.4010026045143604278564453125</LatitudeDegrees>
              <LongitudeDegrees>-4.66638562269508838653564453125</LongitudeDegrees>
            </Position>
            <AltitudeMeters>40.799999237060546875</AltitudeMeters>
            <DistanceMeters>NAN</DistanceMeters>
          </Trackpoint>
          <Trackpoint>
            <Time>2022-07-15T15:17:16.000Z</Time>
            <Position>
              <LatitudeDegrees>43.401043005287647247314453125</LatitudeDegrees>
              <LongitudeDegrees>-4.66645720414817333221435546875</LongitudeDegrees>
            </Position>
            <AltitudeMeters>40.799999237060546875</AltitudeMeters>
            <DistanceMeters>NAN</DistanceMeters>
          </Trackpoint>
          <Trackpoint>
            <Time>2022-07-15T15:17:20.000Z</Time>
            <Position>
              <LatitudeDegrees>43.401159681379795074462890625</LatitudeDegrees>
              <LongitudeDegrees>-4.66672777198255062103271484375</LongitudeDegrees>
            </Position>
            <AltitudeMeters>39.799999237060546875</AltitudeMeters>
            <DistanceMeters>NAN</DistanceMeters>
          </Trackpoint>
          <Trackpoint>
            <Time>2022-07-15T15:17:21.000Z</Time>
            <Position>
              <LatitudeDegrees>43.40117585845291614532470703125</LatitudeDegrees>
              <LongitudeDegrees>-4.6667662449181079864501953125</LongitudeDegrees>
            </Position>
            <AltitudeMeters>39.40000152587890625</AltitudeMeters>
            <DistanceMeters>NAN</DistanceMeters>
          </Trackpoint>
          <Trackpoint>
            <Time>2022-07-15T15:17:24.000Z</Time>
            <Position>
              <LatitudeDegrees>43.401205949485301971435546875</LatitudeDegrees>
              <LongitudeDegrees>-4.66687177307903766632080078125</LongitudeDegrees>
            </Position>
            <AltitudeMeters>38.59999847412109375</AltitudeMeters>
            <DistanceMeters>NAN</DistanceMeters>
          </Trackpoint>
          <Trackpoint>
            <Time>2022-07-15T15:17:26.000Z</Time>
            <Position>
              <LatitudeDegrees>43.4012269042432308197021484375</LatitudeDegrees>
              <LongitudeDegrees>-4.666957855224609375</LongitudeDegrees>
            </Position>
            <AltitudeMeters>38</AltitudeMeters>
            <DistanceMeters>NAN</DistanceMeters>
          </Trackpoint>
          <Trackpoint>
            <Time>2022-07-15T15:17:28.000Z</Time>
            <Position>
              <LatitudeDegrees>43.40124827809631824493408203125</LatitudeDegrees>
              <LongitudeDegrees>-4.667062461376190185546875</LongitudeDegrees>
            </Position>
            <AltitudeMeters>37.59999847412109375</AltitudeMeters>
            <DistanceMeters>NAN</DistanceMeters>
          </Trackpoint>
          <Trackpoint>
            <Time>2022-07-15T15:17:32.000Z</Time>
            <Position>
              <LatitudeDegrees>43.40129488147795200347900390625</LatitudeDegrees>
              <LongitudeDegrees>-4.66728801839053630828857421875</LongitudeDegrees>
            </Position>
            <AltitudeMeters>37</AltitudeMeters>
            <DistanceMeters>NAN</DistanceMeters>
          </Trackpoint>
          <Trackpoint>
            <Time>2022-07-15T15:17:41.000Z</Time>
            <Position>
              <LatitudeDegrees>43.40137115679681301116943359375</LatitudeDegrees>
              <LongitudeDegrees>-4.66776712797582149505615234375</LongitudeDegrees>
            </Position>
            <AltitudeMeters>37</AltitudeMeters>
            <DistanceMeters>NAN</DistanceMeters>
          </Trackpoint>
          <Trackpoint>
            <Time>2022-07-15T15:17:45.000Z</Time>
            <Position>
              <LatitudeDegrees>43.40140946209430694580078125</LatitudeDegrees>
              <LongitudeDegrees>-4.6680101193487644195556640625</LongitudeDegrees>
            </Position>
            <AltitudeMeters>36.799999237060546875</AltitudeMeters>
            <DistanceMeters>NAN</DistanceMeters>
          </Trackpoint>
          <Trackpoint>
            <Time>2022-07-15T15:17:48.000Z</Time>
            <Position>
              <LatitudeDegrees>43.40142798610031604766845703125</LatitudeDegrees>
              <LongitudeDegrees>-4.66818454675376415252685546875</LongitudeDegrees>
            </Position>
            <AltitudeMeters>36.799999237060546875</AltitudeMeters>
            <DistanceMeters>NAN</DistanceMeters>
          </Trackpoint>
          <Trackpoint>
            <Time>2022-07-15T15:17:49.000Z</Time>
            <Position>
              <LatitudeDegrees>43.401443324983119964599609375</LatitudeDegrees>
              <LongitudeDegrees>-4.66823366470634937286376953125</LongitudeDegrees>
            </Position>
            <AltitudeMeters>37</AltitudeMeters>
            <DistanceMeters>NAN</DistanceMeters>
          </Trackpoint>
          <Trackpoint>
            <Time>2022-07-15T15:17:53.000Z</Time>
            <Position>
              <LatitudeDegrees>43.401539213955402374267578125</LatitudeDegrees>
              <LongitudeDegrees>-4.66835889033973217010498046875</LongitudeDegrees>
            </Position>
            <AltitudeMeters>37</AltitudeMeters>
            <DistanceMeters>NAN</DistanceMeters>
          </Trackpoint>
          <Trackpoint>
            <Time>2022-07-15T15:17:58.000Z</Time>
            <Position>
              <LatitudeDegrees>43.4016936086118221282958984375</LatitudeDegrees>
              <LongitudeDegrees>-4.6683849580585956573486328125</LongitudeDegrees>
            </Position>
            <AltitudeMeters>37.200000762939453125</AltitudeMeters>
            <DistanceMeters>NAN</DistanceMeters>
          </Trackpoint>
          <Trackpoint>
            <Time>2022-07-15T15:18:00.000Z</Time>
            <Position>
              <LatitudeDegrees>43.40175353921949863433837890625</LatitudeDegrees>
              <LongitudeDegrees>-4.6683832816779613494873046875</LongitudeDegrees>
            </Position>
            <AltitudeMeters>37.200000762939453125</AltitudeMeters>
            <DistanceMeters>NAN</DistanceMeters>
          </Trackpoint>
          <Trackpoint>
            <Time>2022-07-15T15:18:03.000Z</Time>
            <Position>
              <LatitudeDegrees>43.4018401242792606353759765625</LatitudeDegrees>
              <LongitudeDegrees>-4.668388478457927703857421875</LongitudeDegrees>
            </Position>
            <AltitudeMeters>37</AltitudeMeters>
            <DistanceMeters>NAN</DistanceMeters>
          </Trackpoint>
          <Trackpoint>
            <Time>2022-07-15T15:18:04.000Z</Time>
            <Position>
              <LatitudeDegrees>43.4018741548061370849609375</LatitudeDegrees>
              <LongitudeDegrees>-4.66839141212403774261474609375</LongitudeDegrees>
            </Position>
            <AltitudeMeters>37</AltitudeMeters>
            <DistanceMeters>NAN</DistanceMeters>
          </Trackpoint>
          <Trackpoint>
            <Time>2022-07-15T15:18:09.000Z</Time>
            <Position>
              <LatitudeDegrees>43.402022011578083038330078125</LatitudeDegrees>
              <LongitudeDegrees>-4.668363668024539947509765625</LongitudeDegrees>
            </Position>
            <AltitudeMeters>37.200000762939453125</AltitudeMeters>
            <DistanceMeters>NAN</DistanceMeters>
          </Trackpoint>
          <Trackpoint>
            <Time>2022-07-15T15:18:12.000Z</Time>
            <Position>
              <LatitudeDegrees>43.40209535323083400726318359375</LatitudeDegrees>
              <LongitudeDegrees>-4.66836743988096714019775390625</LongitudeDegrees>
            </Position>
            <AltitudeMeters>37.200000762939453125</AltitudeMeters>
            <DistanceMeters>NAN</DistanceMeters>
          </Trackpoint>
          <Trackpoint>
            <Time>2022-07-15T15:18:15.000Z</Time>
            <Position>
              <LatitudeDegrees>43.40216224081814289093017578125</LatitudeDegrees>
              <LongitudeDegrees>-4.668382443487644195556640625</LongitudeDegrees>
            </Position>
            <AltitudeMeters>37.40000152587890625</AltitudeMeters>
            <DistanceMeters>NAN</DistanceMeters>
          </Trackpoint>
          <Trackpoint>
            <Time>2022-07-15T15:18:18.000Z</Time>
            <Position>
              <LatitudeDegrees>43.4022510051727294921875</LatitudeDegrees>
              <LongitudeDegrees>-4.6683976985514163970947265625</LongitudeDegrees>
            </Position>
            <AltitudeMeters>37.40000152587890625</AltitudeMeters>
            <DistanceMeters>NAN</DistanceMeters>
          </Trackpoint>
          <Trackpoint>
            <Time>2022-07-15T15:18:19.000Z</Time>
            <Position>
              <LatitudeDegrees>43.40228780172765254974365234375</LatitudeDegrees>
              <LongitudeDegrees>-4.66840364970266819000244140625</LongitudeDegrees>
            </Position>
            <AltitudeMeters>37.40000152587890625</AltitudeMeters>
            <DistanceMeters>NAN</DistanceMeters>
          </Trackpoint>
          <Trackpoint>
            <Time>2022-07-15T15:18:22.000Z</Time>
            <Position>
              <LatitudeDegrees>43.402410261332988739013671875</LatitudeDegrees>
              <LongitudeDegrees>-4.6684285439550876617431640625</LongitudeDegrees>
            </Position>
            <AltitudeMeters>37.40000152587890625</AltitudeMeters>
            <DistanceMeters>NAN</DistanceMeters>
          </Trackpoint>
          <Trackpoint>
            <Time>2022-07-15T15:18:24.000Z</Time>
            <Position>
              <LatitudeDegrees>43.4024925716221332550048828125</LatitudeDegrees>
              <LongitudeDegrees>-4.6684898994863033294677734375</LongitudeDegrees>
            </Position>
            <AltitudeMeters>37.200000762939453125</AltitudeMeters>
            <DistanceMeters>NAN</DistanceMeters>
          </Trackpoint>
          <Trackpoint>
            <Time>2022-07-15T15:18:26.000Z</Time>
            <Position>
              <LatitudeDegrees>43.4025378338992595672607421875</LatitudeDegrees>
              <LongitudeDegrees>-4.6685898117721080780029296875</LongitudeDegrees>
            </Position>
            <AltitudeMeters>36.59999847412109375</AltitudeMeters>
            <DistanceMeters>NAN</DistanceMeters>
          </Trackpoint>
          <Trackpoint>
            <Time>2022-07-15T15:18:27.000Z</Time>
            <Position>
              <LatitudeDegrees>43.40254671871662139892578125</LatitudeDegrees>
              <LongitudeDegrees>-4.6686417795717716217041015625</LongitudeDegrees>
            </Position>
            <AltitudeMeters>36.59999847412109375</AltitudeMeters>
            <DistanceMeters>NAN</DistanceMeters>
          </Trackpoint>
          <Trackpoint>
            <Time>2022-07-15T15:18:31.000Z</Time>
            <Position>
              <LatitudeDegrees>43.40256147086620330810546875</LatitudeDegrees>
              <LongitudeDegrees>-4.66875535435974597930908203125</LongitudeDegrees>
            </Position>
            <AltitudeMeters>36.799999237060546875</AltitudeMeters>
            <DistanceMeters>NAN</DistanceMeters>
          </Trackpoint>
          <Trackpoint>
            <Time>2022-07-15T15:18:34.000Z</Time>
            <Position>
              <LatitudeDegrees>43.40257513336837291717529296875</LatitudeDegrees>
              <LongitudeDegrees>-4.66881863772869110107421875</LongitudeDegrees>
            </Position>
            <AltitudeMeters>37.59999847412109375</AltitudeMeters>
            <DistanceMeters>NAN</DistanceMeters>
          </Trackpoint>
          <Trackpoint>
            <Time>2022-07-15T15:18:38.000Z</Time>
            <Position>
              <LatitudeDegrees>43.4026157855987548828125</LatitudeDegrees>
              <LongitudeDegrees>-4.66889600269496440887451171875</LongitudeDegrees>
            </Position>
            <AltitudeMeters>38.200000762939453125</AltitudeMeters>
            <DistanceMeters>NAN</DistanceMeters>
          </Trackpoint>
          <Trackpoint>
            <Time>2022-07-15T15:18:42.000Z</Time>
            <Position>
              <LatitudeDegrees>43.40266113169491291046142578125</LatitudeDegrees>
              <LongitudeDegrees>-4.6689884550869464874267578125</LongitudeDegrees>
            </Position>
            <AltitudeMeters>38.59999847412109375</AltitudeMeters>
            <DistanceMeters>NAN</DistanceMeters>
          </Trackpoint>
          <Trackpoint>
            <Time>2022-07-15T15:18:47.000Z</Time>
            <Position>
              <LatitudeDegrees>43.4027098305523395538330078125</LatitudeDegrees>
              <LongitudeDegrees>-4.66910689137876033782958984375</LongitudeDegrees>
            </Position>
            <AltitudeMeters>39.40000152587890625</AltitudeMeters>
            <DistanceMeters>NAN</DistanceMeters>
          </Trackpoint>
          <Trackpoint>
            <Time>2022-07-15T15:18:52.000Z</Time>
            <Position>
              <LatitudeDegrees>43.40281519107520580291748046875</LatitudeDegrees>
              <LongitudeDegrees>-4.66925458051264286041259765625</LongitudeDegrees>
            </Position>
            <AltitudeMeters>39.59999847412109375</AltitudeMeters>
            <DistanceMeters>NAN</DistanceMeters>
          </Trackpoint>
          <Trackpoint>
            <Time>2022-07-15T15:18:56.000Z</Time>
            <Position>
              <LatitudeDegrees>43.40295952744781970977783203125</LatitudeDegrees>
              <LongitudeDegrees>-4.66926413588225841522216796875</LongitudeDegrees>
            </Position>
            <AltitudeMeters>39.59999847412109375</AltitudeMeters>
            <DistanceMeters>NAN</DistanceMeters>
          </Trackpoint>
          <Trackpoint>
            <Time>2022-07-15T15:19:00.000Z</Time>
            <Position>
              <LatitudeDegrees>43.40314862318336963653564453125</LatitudeDegrees>
              <LongitudeDegrees>-4.66924955137073993682861328125</LongitudeDegrees>
            </Position>
            <AltitudeMeters>39.200000762939453125</AltitudeMeters>
            <DistanceMeters>NAN</DistanceMeters>
          </Trackpoint>
          <Trackpoint>
            <Time>2022-07-15T15:19:01.000Z</Time>
            <Position>
              <LatitudeDegrees>43.403199501335620880126953125</LatitudeDegrees>
              <LongitudeDegrees>-4.669241420924663543701171875</LongitudeDegrees>
            </Position>
            <AltitudeMeters>38.799999237060546875</AltitudeMeters>
            <DistanceMeters>NAN</DistanceMeters>
          </Trackpoint>
          <Trackpoint>
            <Time>2022-07-15T15:19:04.000Z</Time>
            <Position>
              <LatitudeDegrees>43.403333611786365509033203125</LatitudeDegrees>
              <LongitudeDegrees>-4.6691933088004589080810546875</LongitudeDegrees>
            </Position>
            <AltitudeMeters>38.40000152587890625</AltitudeMeters>
            <DistanceMeters>NAN</DistanceMeters>
          </Trackpoint>
          <Trackpoint>
            <Time>2022-07-15T15:19:06.000Z</Time>
            <Position>
              <LatitudeDegrees>43.4033968113362789154052734375</LatitudeDegrees>
              <LongitudeDegrees>-4.6691681630909442901611328125</LongitudeDegrees>
            </Position>
            <AltitudeMeters>38.59999847412109375</AltitudeMeters>
            <DistanceMeters>NAN</DistanceMeters>
          </Trackpoint>
          <Trackpoint>
            <Time>2022-07-15T15:19:11.000Z</Time>
            <Position>
              <LatitudeDegrees>43.40350854210555553436279296875</LatitudeDegrees>
              <LongitudeDegrees>-4.66915181837975978851318359375</LongitudeDegrees>
            </Position>
            <AltitudeMeters>39.40000152587890625</AltitudeMeters>
            <DistanceMeters>NAN</DistanceMeters>
          </Trackpoint>
          <Trackpoint>
            <Time>2022-07-15T15:19:14.000Z</Time>
            <Position>
              <LatitudeDegrees>43.40359454043209552764892578125</LatitudeDegrees>
              <LongitudeDegrees>-4.66914729215204715728759765625</LongitudeDegrees>
            </Position>
            <AltitudeMeters>39.799999237060546875</AltitudeMeters>
            <DistanceMeters>NAN</DistanceMeters>
          </Trackpoint>
          <Trackpoint>
            <Time>2022-07-15T15:19:19.000Z</Time>
            <Position>
              <LatitudeDegrees>43.40372948907315731048583984375</LatitudeDegrees>
              <LongitudeDegrees>-4.669171683490276336669921875</LongitudeDegrees>
            </Position>
            <AltitudeMeters>39.59999847412109375</AltitudeMeters>
            <DistanceMeters>NAN</DistanceMeters>
          </Trackpoint>
          <Trackpoint>
            <Time>2022-07-15T15:19:20.000Z</Time>
            <Position>
              <LatitudeDegrees>43.40375413186848163604736328125</LatitudeDegrees>
              <LongitudeDegrees>-4.669181406497955322265625</LongitudeDegrees>
            </Position>
            <AltitudeMeters>39.59999847412109375</AltitudeMeters>
            <DistanceMeters>NAN</DistanceMeters>
          </Trackpoint>
          <Trackpoint>
            <Time>2022-07-15T15:19:22.000Z</Time>
            <Position>
              <LatitudeDegrees>43.403800986707210540771484375</LatitudeDegrees>
              <LongitudeDegrees>-4.66920831240713596343994140625</LongitudeDegrees>
            </Position>
            <AltitudeMeters>39.59999847412109375</AltitudeMeters>
            <DistanceMeters>NAN</DistanceMeters>
          </Trackpoint>
          <Trackpoint>
            <Time>2022-07-15T15:19:25.000Z</Time>
            <Position>
              <LatitudeDegrees>43.403864689171314239501953125</LatitudeDegrees>
              <LongitudeDegrees>-4.66926815919578075408935546875</LongitudeDegrees>
            </Position>
            <AltitudeMeters>39.59999847412109375</AltitudeMeters>
            <DistanceMeters>NAN</DistanceMeters>
          </Trackpoint>
          <Trackpoint>
            <Time>2022-07-15T15:19:27.000Z</Time>
            <Position>
              <LatitudeDegrees>43.40389846824109554290771484375</LatitudeDegrees>
              <LongitudeDegrees>-4.66931023634970188140869140625</LongitudeDegrees>
            </Position>
            <AltitudeMeters>39.799999237060546875</AltitudeMeters>
            <DistanceMeters>NAN</DistanceMeters>
          </Trackpoint>
          <Trackpoint>
            <Time>2022-07-15T15:19:34.000Z</Time>
            <Position>
              <LatitudeDegrees>43.40397390536963939666748046875</LatitudeDegrees>
              <LongitudeDegrees>-4.66943060047924518585205078125</LongitudeDegrees>
            </Position>
            <AltitudeMeters>40.799999237060546875</AltitudeMeters>
            <DistanceMeters>NAN</DistanceMeters>
          </Trackpoint>
          <Trackpoint>
            <Time>2022-07-15T15:19:35.000Z</Time>
            <Position>
              <LatitudeDegrees>43.4039865620434284210205078125</LatitudeDegrees>
              <LongitudeDegrees>-4.66944493353366851806640625</LongitudeDegrees>
            </Position>
            <AltitudeMeters>41</AltitudeMeters>
            <DistanceMeters>NAN</DistanceMeters>
          </Trackpoint>
          <Trackpoint>
            <Time>2022-07-15T15:19:44.000Z</Time>
            <Position>
              <LatitudeDegrees>43.404156379401683807373046875</LatitudeDegrees>
              <LongitudeDegrees>-4.66952179558575153350830078125</LongitudeDegrees>
            </Position>
            <AltitudeMeters>41.799999237060546875</AltitudeMeters>
            <DistanceMeters>NAN</DistanceMeters>
          </Trackpoint>
          <Trackpoint>
            <Time>2022-07-15T15:19:45.000Z</Time>
            <Position>
              <LatitudeDegrees>43.404177837073802947998046875</LatitudeDegrees>
              <LongitudeDegrees>-4.66952011920511722564697265625</LongitudeDegrees>
            </Position>
            <AltitudeMeters>41.799999237060546875</AltitudeMeters>
            <DistanceMeters>NAN</DistanceMeters>
          </Trackpoint>
          <Trackpoint>
            <Time>2022-07-15T15:19:47.000Z</Time>
            <Position>
              <LatitudeDegrees>43.40421832166612148284912109375</LatitudeDegrees>
              <LongitudeDegrees>-4.6695158444344997406005859375</LongitudeDegrees>
            </Position>
            <AltitudeMeters>42</AltitudeMeters>
            <DistanceMeters>NAN</DistanceMeters>
          </Trackpoint>
          <Trackpoint>
            <Time>2022-07-15T15:19:52.000Z</Time>
            <Position>
              <LatitudeDegrees>43.404319323599338531494140625</LatitudeDegrees>
              <LongitudeDegrees>-4.66948960907757282257080078125</LongitudeDegrees>
            </Position>
            <AltitudeMeters>42</AltitudeMeters>
            <DistanceMeters>NAN</DistanceMeters>
          </Trackpoint>
          <Trackpoint>
            <Time>2022-07-15T15:19:53.000Z</Time>
            <Position>
              <LatitudeDegrees>43.40433600358664989471435546875</LatitudeDegrees>
              <LongitudeDegrees>-4.66948776505887508392333984375</LongitudeDegrees>
            </Position>
            <AltitudeMeters>42</AltitudeMeters>
            <DistanceMeters>NAN</DistanceMeters>
          </Trackpoint>
          <Trackpoint>
            <Time>2022-07-15T15:19:57.000Z</Time>
            <Position>
              <LatitudeDegrees>43.4043932519853115081787109375</LatitudeDegrees>
              <LongitudeDegrees>-4.66948189772665500640869140625</LongitudeDegrees>
            </Position>
            <AltitudeMeters>43</AltitudeMeters>
            <DistanceMeters>NAN</DistanceMeters>
          </Trackpoint>
          <Trackpoint>
            <Time>2022-07-15T15:20:00.000Z</Time>
            <Position>
              <LatitudeDegrees>43.40444161556661128997802734375</LatitudeDegrees>
              <LongitudeDegrees>-4.66947686858475208282470703125</LongitudeDegrees>
            </Position>
            <AltitudeMeters>43.59999847412109375</AltitudeMeters>
            <DistanceMeters>NAN</DistanceMeters>
          </Trackpoint>
          <Trackpoint>
            <Time>2022-07-15T15:20:08.000Z</Time>
            <Position>
              <LatitudeDegrees>43.40461671352386474609375</LatitudeDegrees>
              <LongitudeDegrees>-4.66954727657139301300048828125</LongitudeDegrees>
            </Position>
            <AltitudeMeters>43.40000152587890625</AltitudeMeters>
            <DistanceMeters>NAN</DistanceMeters>
          </Trackpoint>
          <Trackpoint>
            <Time>2022-07-15T15:20:14.000Z</Time>
            <Position>
              <LatitudeDegrees>43.404753170907497406005859375</LatitudeDegrees>
              <LongitudeDegrees>-4.66972849331796169281005859375</LongitudeDegrees>
            </Position>
            <AltitudeMeters>43.40000152587890625</AltitudeMeters>
            <DistanceMeters>NAN</DistanceMeters>
          </Trackpoint>
          <Trackpoint>
            <Time>2022-07-15T15:20:16.000Z</Time>
            <Position>
              <LatitudeDegrees>43.40479801408946514129638671875</LatitudeDegrees>
              <LongitudeDegrees>-4.66982983052730560302734375</LongitudeDegrees>
            </Position>
            <AltitudeMeters>43</AltitudeMeters>
            <DistanceMeters>NAN</DistanceMeters>
          </Trackpoint>
          <Trackpoint>
            <Time>2022-07-15T15:20:18.000Z</Time>
            <Position>
              <LatitudeDegrees>43.404849730432033538818359375</LatitudeDegrees>
              <LongitudeDegrees>-4.66990250162780284881591796875</LongitudeDegrees>
            </Position>
            <AltitudeMeters>42.799999237060546875</AltitudeMeters>
            <DistanceMeters>NAN</DistanceMeters>
          </Trackpoint>
          <Trackpoint>
            <Time>2022-07-15T15:20:23.000Z</Time>
            <Position>
              <LatitudeDegrees>43.40499314479529857635498046875</LatitudeDegrees>
              <LongitudeDegrees>-4.66994558461010456085205078125</LongitudeDegrees>
            </Position>
            <AltitudeMeters>43.200000762939453125</AltitudeMeters>
            <DistanceMeters>NAN</DistanceMeters>
          </Trackpoint>
          <Trackpoint>
            <Time>2022-07-15T15:20:26.000Z</Time>
            <Position>
              <LatitudeDegrees>43.40507193468511104583740234375</LatitudeDegrees>
              <LongitudeDegrees>-4.66990518383681774139404296875</LongitudeDegrees>
            </Position>
            <AltitudeMeters>43.59999847412109375</AltitudeMeters>
            <DistanceMeters>NAN</DistanceMeters>
          </Trackpoint>
          <Trackpoint>
            <Time>2022-07-15T15:20:28.000Z</Time>
            <Position>
              <LatitudeDegrees>43.4051338769495487213134765625</LatitudeDegrees>
              <LongitudeDegrees>-4.6698720753192901611328125</LongitudeDegrees>
            </Position>
            <AltitudeMeters>43.59999847412109375</AltitudeMeters>
            <DistanceMeters>NAN</DistanceMeters>
          </Trackpoint>
          <Trackpoint>
            <Time>2022-07-15T15:20:33.000Z</Time>
            <Position>
              <LatitudeDegrees>43.40531785972416400909423828125</LatitudeDegrees>
              <LongitudeDegrees>-4.66983293183147907257080078125</LongitudeDegrees>
            </Position>
            <AltitudeMeters>43.40000152587890625</AltitudeMeters>
            <DistanceMeters>NAN</DistanceMeters>
          </Trackpoint>
          <Trackpoint>
            <Time>2022-07-15T15:20:36.000Z</Time>
            <Position>
              <LatitudeDegrees>43.40548097155988216400146484375</LatitudeDegrees>
              <LongitudeDegrees>-4.6697884239256381988525390625</LongitudeDegrees>
            </Position>
            <AltitudeMeters>42.799999237060546875</AltitudeMeters>
            <DistanceMeters>NAN</DistanceMeters>
          </Trackpoint>
          <Trackpoint>
            <Time>2022-07-15T15:20:37.000Z</Time>
            <Position>
              <LatitudeDegrees>43.40554140508174896240234375</LatitudeDegrees>
              <LongitudeDegrees>-4.669785909354686737060546875</LongitudeDegrees>
            </Position>
            <AltitudeMeters>42.40000152587890625</AltitudeMeters>
            <DistanceMeters>NAN</DistanceMeters>
          </Trackpoint>
          <Trackpoint>
            <Time>2022-07-15T15:20:39.000Z</Time>
            <Position>
              <LatitudeDegrees>43.4056612662971019744873046875</LatitudeDegrees>
              <LongitudeDegrees>-4.66983259655535221099853515625</LongitudeDegrees>
            </Position>
            <AltitudeMeters>41.799999237060546875</AltitudeMeters>
            <DistanceMeters>NAN</DistanceMeters>
          </Trackpoint>
          <Trackpoint>
            <Time>2022-07-15T15:20:41.000Z</Time>
            <Position>
              <LatitudeDegrees>43.40574181638658046722412109375</LatitudeDegrees>
              <LongitudeDegrees>-4.66989076696336269378662109375</LongitudeDegrees>
            </Position>
            <AltitudeMeters>41.40000152587890625</AltitudeMeters>
            <DistanceMeters>NAN</DistanceMeters>
          </Trackpoint>
          <Trackpoint>
            <Time>2022-07-15T15:20:42.000Z</Time>
            <Position>
              <LatitudeDegrees>43.40576930902898311614990234375</LatitudeDegrees>
              <LongitudeDegrees>-4.6699203550815582275390625</LongitudeDegrees>
            </Position>
            <AltitudeMeters>41.40000152587890625</AltitudeMeters>
            <DistanceMeters>NAN</DistanceMeters>
          </Trackpoint>
          <Trackpoint>
            <Time>2022-07-15T15:20:46.000Z</Time>
            <Position>
              <LatitudeDegrees>43.405843488872051239013671875</LatitudeDegrees>
              <LongitudeDegrees>-4.67003577388823032379150390625</LongitudeDegrees>
            </Position>
            <AltitudeMeters>41.59999847412109375</AltitudeMeters>
            <DistanceMeters>NAN</DistanceMeters>
          </Trackpoint>
          <Trackpoint>
            <Time>2022-07-15T15:20:51.000Z</Time>
            <Position>
              <LatitudeDegrees>43.4059123881161212921142578125</LatitudeDegrees>
              <LongitudeDegrees>-4.67013132758438587188720703125</LongitudeDegrees>
            </Position>
            <AltitudeMeters>42.799999237060546875</AltitudeMeters>
            <DistanceMeters>NAN</DistanceMeters>
          </Trackpoint>
          <Trackpoint>
            <Time>2022-07-15T15:20:52.000Z</Time>
            <Position>
              <LatitudeDegrees>43.40591984800994396209716796875</LatitudeDegrees>
              <LongitudeDegrees>-4.67014205642044544219970703125</LongitudeDegrees>
            </Position>
            <AltitudeMeters>43</AltitudeMeters>
            <DistanceMeters>NAN</DistanceMeters>
          </Trackpoint>
          <Trackpoint>
            <Time>2022-07-15T15:20:55.000Z</Time>
            <Position>
              <LatitudeDegrees>43.40592227876186370849609375</LatitudeDegrees>
              <LongitudeDegrees>-4.670147001743316650390625</LongitudeDegrees>
            </Position>
            <AltitudeMeters>43.200000762939453125</AltitudeMeters>
            <DistanceMeters>NAN</DistanceMeters>
          </Trackpoint>
          <Trackpoint>
            <Time>2022-07-15T15:21:22.000Z</Time>
            <Position>
              <LatitudeDegrees>43.40595781803131103515625</LatitudeDegrees>
              <LongitudeDegrees>-4.67017474584281444549560546875</LongitudeDegrees>
            </Position>
            <AltitudeMeters>43.40000152587890625</AltitudeMeters>
            <DistanceMeters>NAN</DistanceMeters>
          </Trackpoint>
          <Trackpoint>
            <Time>2022-07-15T15:21:28.000Z</Time>
            <Position>
              <LatitudeDegrees>43.4060538746416568756103515625</LatitudeDegrees>
              <LongitudeDegrees>-4.67032243497669696807861328125</LongitudeDegrees>
            </Position>
            <AltitudeMeters>43.59999847412109375</AltitudeMeters>
            <DistanceMeters>NAN</DistanceMeters>
          </Trackpoint>
          <Trackpoint>
            <Time>2022-07-15T15:21:32.000Z</Time>
            <Position>
              <LatitudeDegrees>43.4060776792466640472412109375</LatitudeDegrees>
              <LongitudeDegrees>-4.67043257318437099456787109375</LongitudeDegrees>
            </Position>
            <AltitudeMeters>43.799999237060546875</AltitudeMeters>
            <DistanceMeters>NAN</DistanceMeters>
          </Trackpoint>
          <Trackpoint>
            <Time>2022-07-15T15:21:37.000Z</Time>
            <Position>
              <LatitudeDegrees>43.40609536506235599517822265625</LatitudeDegrees>
              <LongitudeDegrees>-4.6705515123903751373291015625</LongitudeDegrees>
            </Position>
            <AltitudeMeters>44.59999847412109375</AltitudeMeters>
            <DistanceMeters>NAN</DistanceMeters>
          </Trackpoint>
          <Trackpoint>
            <Time>2022-07-15T15:21:38.000Z</Time>
            <Position>
              <LatitudeDegrees>43.40610274113714694976806640625</LatitudeDegrees>
              <LongitudeDegrees>-4.67057540081441402435302734375</LongitudeDegrees>
            </Position>
            <AltitudeMeters>44.799999237060546875</AltitudeMeters>
            <DistanceMeters>NAN</DistanceMeters>
          </Trackpoint>
          <Trackpoint>
            <Time>2022-07-15T15:21:39.000Z</Time>
            <Position>
              <LatitudeDegrees>43.40611196123063564300537109375</LatitudeDegrees>
              <LongitudeDegrees>-4.6705949306488037109375</LongitudeDegrees>
            </Position>
            <AltitudeMeters>45</AltitudeMeters>
            <DistanceMeters>NAN</DistanceMeters>
          </Trackpoint>
          <Trackpoint>
            <Time>2022-07-15T15:21:43.000Z</Time>
            <Position>
              <LatitudeDegrees>43.40616560541093349456787109375</LatitudeDegrees>
              <LongitudeDegrees>-4.6706688590347766876220703125</LongitudeDegrees>
            </Position>
            <AltitudeMeters>45.40000152587890625</AltitudeMeters>
            <DistanceMeters>NAN</DistanceMeters>
          </Trackpoint>
          <Trackpoint>
            <Time>2022-07-15T15:21:49.000Z</Time>
            <Position>
              <LatitudeDegrees>43.406210280954837799072265625</LatitudeDegrees>
              <LongitudeDegrees>-4.67088838107883930206298828125</LongitudeDegrees>
            </Position>
            <AltitudeMeters>44.799999237060546875</AltitudeMeters>
            <DistanceMeters>NAN</DistanceMeters>
          </Trackpoint>
          <Trackpoint>
            <Time>2022-07-15T15:21:50.000Z</Time>
            <Position>
              <LatitudeDegrees>43.4062034077942371368408203125</LatitudeDegrees>
              <LongitudeDegrees>-4.67095811851322650909423828125</LongitudeDegrees>
            </Position>
            <AltitudeMeters>44.40000152587890625</AltitudeMeters>
            <DistanceMeters>NAN</DistanceMeters>
          </Trackpoint>
          <Trackpoint>
            <Time>2022-07-15T15:21:52.000Z</Time>
            <Position>
              <LatitudeDegrees>43.40617985464632511138916015625</LatitudeDegrees>
              <LongitudeDegrees>-4.67110899277031421661376953125</LongitudeDegrees>
            </Position>
            <AltitudeMeters>43.799999237060546875</AltitudeMeters>
            <DistanceMeters>NAN</DistanceMeters>
          </Trackpoint>
          <Trackpoint>
            <Time>2022-07-15T15:21:53.000Z</Time>
            <Position>
              <LatitudeDegrees>43.406167365610599517822265625</LatitudeDegrees>
              <LongitudeDegrees>-4.67118476517498493194580078125</LongitudeDegrees>
            </Position>
            <AltitudeMeters>43.40000152587890625</AltitudeMeters>
            <DistanceMeters>NAN</DistanceMeters>
          </Trackpoint>
          <Trackpoint>
            <Time>2022-07-15T15:21:56.000Z</Time>
            <Position>
              <LatitudeDegrees>43.4061239473521709442138671875</LatitudeDegrees>
              <LongitudeDegrees>-4.6714406646788120269775390625</LongitudeDegrees>
            </Position>
            <AltitudeMeters>42.59999847412109375</AltitudeMeters>
            <DistanceMeters>NAN</DistanceMeters>
          </Trackpoint>
          <Trackpoint>
            <Time>2022-07-15T15:21:58.000Z</Time>
            <Position>
              <LatitudeDegrees>43.406105339527130126953125</LatitudeDegrees>
              <LongitudeDegrees>-4.67163763940334320068359375</LongitudeDegrees>
            </Position>
            <AltitudeMeters>41.59999847412109375</AltitudeMeters>
            <DistanceMeters>NAN</DistanceMeters>
          </Trackpoint>
          <Trackpoint>
            <Time>2022-07-15T15:21:59.000Z</Time>
            <Position>
              <LatitudeDegrees>43.4061031602323055267333984375</LatitudeDegrees>
              <LongitudeDegrees>-4.67172187753021717071533203125</LongitudeDegrees>
            </Position>
            <AltitudeMeters>41</AltitudeMeters>
            <DistanceMeters>NAN</DistanceMeters>
          </Trackpoint>
          <Trackpoint>
            <Time>2022-07-15T15:22:00.000Z</Time>
            <Position>
              <LatitudeDegrees>43.4061018191277980804443359375</LatitudeDegrees>
              <LongitudeDegrees>-4.67184123583137989044189453125</LongitudeDegrees>
            </Position>
            <AltitudeMeters>40.40000152587890625</AltitudeMeters>
            <DistanceMeters>NAN</DistanceMeters>
          </Trackpoint>
          <Trackpoint>
            <Time>2022-07-15T15:22:04.000Z</Time>
            <Position>
              <LatitudeDegrees>43.40608849190175533294677734375</LatitudeDegrees>
              <LongitudeDegrees>-4.67207509092986583709716796875</LongitudeDegrees>
            </Position>
            <AltitudeMeters>40</AltitudeMeters>
            <DistanceMeters>NAN</DistanceMeters>
          </Trackpoint>
          <Trackpoint>
            <Time>2022-07-15T15:22:07.000Z</Time>
            <Position>
              <LatitudeDegrees>43.406103663146495819091796875</LatitudeDegrees>
              <LongitudeDegrees>-4.67214323580265045166015625</LongitudeDegrees>
            </Position>
            <AltitudeMeters>41.59999847412109375</AltitudeMeters>
            <DistanceMeters>NAN</DistanceMeters>
          </Trackpoint>
          <Trackpoint>
            <Time>2022-07-15T15:22:08.000Z</Time>
            <Position>
              <LatitudeDegrees>43.40610466897487640380859375</LatitudeDegrees>
              <LongitudeDegrees>-4.67216460965573787689208984375</LongitudeDegrees>
            </Position>
            <AltitudeMeters>41.799999237060546875</AltitudeMeters>
            <DistanceMeters>NAN</DistanceMeters>
          </Trackpoint>
          <Trackpoint>
            <Time>2022-07-15T15:22:12.000Z</Time>
            <Position>
              <LatitudeDegrees>43.40610777027904987335205078125</LatitudeDegrees>
              <LongitudeDegrees>-4.6722587384283542633056640625</LongitudeDegrees>
            </Position>
            <AltitudeMeters>42.59999847412109375</AltitudeMeters>
            <DistanceMeters>NAN</DistanceMeters>
          </Trackpoint>
          <Trackpoint>
            <Time>2022-07-15T15:22:17.000Z</Time>
            <Position>
              <LatitudeDegrees>43.4061336703598499298095703125</LatitudeDegrees>
              <LongitudeDegrees>-4.6724072657525539398193359375</LongitudeDegrees>
            </Position>
            <AltitudeMeters>43</AltitudeMeters>
            <DistanceMeters>NAN</DistanceMeters>
          </Trackpoint>
          <Trackpoint>
            <Time>2022-07-15T15:22:23.000Z</Time>
            <Position>
              <LatitudeDegrees>43.4061688743531703948974609375</LatitudeDegrees>
              <LongitudeDegrees>-4.67255118303000926971435546875</LongitudeDegrees>
            </Position>
            <AltitudeMeters>43.40000152587890625</AltitudeMeters>
            <DistanceMeters>NAN</DistanceMeters>
          </Trackpoint>
          <Trackpoint>
            <Time>2022-07-15T15:22:28.000Z</Time>
            <Position>
              <LatitudeDegrees>43.406278677284717559814453125</LatitudeDegrees>
              <LongitudeDegrees>-4.67273977585136890411376953125</LongitudeDegrees>
            </Position>
            <AltitudeMeters>43</AltitudeMeters>
            <DistanceMeters>NAN</DistanceMeters>
          </Trackpoint>
          <Trackpoint>
            <Time>2022-07-15T15:22:29.000Z</Time>
            <Position>
              <LatitudeDegrees>43.4063177369534969329833984375</LatitudeDegrees>
              <LongitudeDegrees>-4.67280079610645771026611328125</LongitudeDegrees>
            </Position>
            <AltitudeMeters>42.799999237060546875</AltitudeMeters>
            <DistanceMeters>NAN</DistanceMeters>
          </Trackpoint>
          <Trackpoint>
            <Time>2022-07-15T15:22:33.000Z</Time>
            <Position>
              <LatitudeDegrees>43.40640381909906864166259765625</LatitudeDegrees>
              <LongitudeDegrees>-4.67295334674417972564697265625</LongitudeDegrees>
            </Position>
            <AltitudeMeters>43</AltitudeMeters>
            <DistanceMeters>NAN</DistanceMeters>
          </Trackpoint>
          <Trackpoint>
            <Time>2022-07-15T15:22:36.000Z</Time>
            <Position>
              <LatitudeDegrees>43.4064280427992343902587890625</LatitudeDegrees>
              <LongitudeDegrees>-4.67304655350744724273681640625</LongitudeDegrees>
            </Position>
            <AltitudeMeters>43.40000152587890625</AltitudeMeters>
            <DistanceMeters>NAN</DistanceMeters>
          </Trackpoint>
          <Trackpoint>
            <Time>2022-07-15T15:22:39.000Z</Time>
            <Position>
              <LatitudeDegrees>43.40644908137619495391845703125</LatitudeDegrees>
              <LongitudeDegrees>-4.6731604635715484619140625</LongitudeDegrees>
            </Position>
            <AltitudeMeters>43.59999847412109375</AltitudeMeters>
            <DistanceMeters>NAN</DistanceMeters>
          </Trackpoint>
          <Trackpoint>
            <Time>2022-07-15T15:22:45.000Z</Time>
            <Position>
              <LatitudeDegrees>43.40653248131275177001953125</LatitudeDegrees>
              <LongitudeDegrees>-4.67342088930308818817138671875</LongitudeDegrees>
            </Position>
            <AltitudeMeters>43</AltitudeMeters>
            <DistanceMeters>NAN</DistanceMeters>
          </Trackpoint>
          <Trackpoint>
            <Time>2022-07-15T15:22:47.000Z</Time>
            <Position>
              <LatitudeDegrees>43.4065403603017330169677734375</LatitudeDegrees>
              <LongitudeDegrees>-4.6735346317291259765625</LongitudeDegrees>
            </Position>
            <AltitudeMeters>42.40000152587890625</AltitudeMeters>
            <DistanceMeters>NAN</DistanceMeters>
          </Trackpoint>
          <Trackpoint>
            <Time>2022-07-15T15:22:49.000Z</Time>
            <Position>
              <LatitudeDegrees>43.40652803890407085418701171875</LatitudeDegrees>
              <LongitudeDegrees>-4.67366865836083889007568359375</LongitudeDegrees>
            </Position>
            <AltitudeMeters>41.40000152587890625</AltitudeMeters>
            <DistanceMeters>NAN</DistanceMeters>
          </Trackpoint>
          <Trackpoint>
            <Time>2022-07-15T15:22:51.000Z</Time>
            <Position>
              <LatitudeDegrees>43.40652803890407085418701171875</LatitudeDegrees>
              <LongitudeDegrees>-4.67383797280490398406982421875</LongitudeDegrees>
            </Position>
            <AltitudeMeters>40.59999847412109375</AltitudeMeters>
            <DistanceMeters>NAN</DistanceMeters>
          </Trackpoint>
          <Trackpoint>
            <Time>2022-07-15T15:22:52.000Z</Time>
            <Position>
              <LatitudeDegrees>43.40653784573078155517578125</LatitudeDegrees>
              <LongitudeDegrees>-4.673900417983531951904296875</LongitudeDegrees>
            </Position>
            <AltitudeMeters>40</AltitudeMeters>
            <DistanceMeters>NAN</DistanceMeters>
          </Trackpoint>
          <Trackpoint>
            <Time>2022-07-15T15:22:53.000Z</Time>
            <Position>
              <LatitudeDegrees>43.40656357817351818084716796875</LatitudeDegrees>
              <LongitudeDegrees>-4.6739733405411243438720703125</LongitudeDegrees>
            </Position>
            <AltitudeMeters>39.799999237060546875</AltitudeMeters>
            <DistanceMeters>NAN</DistanceMeters>
          </Trackpoint>
          <Trackpoint>
            <Time>2022-07-15T15:22:55.000Z</Time>
            <Position>
              <LatitudeDegrees>43.40665276162326335906982421875</LatitudeDegrees>
              <LongitudeDegrees>-4.6741081215441226959228515625</LongitudeDegrees>
            </Position>
            <AltitudeMeters>39.40000152587890625</AltitudeMeters>
            <DistanceMeters>NAN</DistanceMeters>
          </Trackpoint>
          <Trackpoint>
            <Time>2022-07-15T15:22:57.000Z</Time>
            <Position>
              <LatitudeDegrees>43.406723923981189727783203125</LatitudeDegrees>
              <LongitudeDegrees>-4.67419604770839214324951171875</LongitudeDegrees>
            </Position>
            <AltitudeMeters>39</AltitudeMeters>
            <DistanceMeters>NAN</DistanceMeters>
          </Trackpoint>
          <Trackpoint>
            <Time>2022-07-15T15:22:58.000Z</Time>
            <Position>
              <LatitudeDegrees>43.4067532606422901153564453125</LatitudeDegrees>
              <LongitudeDegrees>-4.674243070185184478759765625</LongitudeDegrees>
            </Position>
            <AltitudeMeters>38.799999237060546875</AltitudeMeters>
            <DistanceMeters>NAN</DistanceMeters>
          </Trackpoint>
          <Trackpoint>
            <Time>2022-07-15T15:23:00.000Z</Time>
            <Position>
              <LatitudeDegrees>43.406778909265995025634765625</LatitudeDegrees>
              <LongitudeDegrees>-4.674357064068317413330078125</LongitudeDegrees>
            </Position>
            <AltitudeMeters>38.59999847412109375</AltitudeMeters>
            <DistanceMeters>NAN</DistanceMeters>
          </Trackpoint>
          <Trackpoint>
            <Time>2022-07-15T15:23:08.000Z</Time>
            <Position>
              <LatitudeDegrees>43.40686080045998096466064453125</LatitudeDegrees>
              <LongitudeDegrees>-4.674704074859619140625</LongitudeDegrees>
            </Position>
            <AltitudeMeters>38.59999847412109375</AltitudeMeters>
            <DistanceMeters>NAN</DistanceMeters>
          </Trackpoint>
          <Trackpoint>
            <Time>2022-07-15T15:23:17.000Z</Time>
            <Position>
              <LatitudeDegrees>43.40686750598251819610595703125</LatitudeDegrees>
              <LongitudeDegrees>-4.675120152533054351806640625</LongitudeDegrees>
            </Position>
            <AltitudeMeters>38.59999847412109375</AltitudeMeters>
            <DistanceMeters>NAN</DistanceMeters>
          </Trackpoint>
          <Trackpoint>
            <Time>2022-07-15T15:23:22.000Z</Time>
            <Position>
              <LatitudeDegrees>43.4068692661821842193603515625</LatitudeDegrees>
              <LongitudeDegrees>-4.67542986385524272918701171875</LongitudeDegrees>
            </Position>
            <AltitudeMeters>38</AltitudeMeters>
            <DistanceMeters>NAN</DistanceMeters>
          </Trackpoint>
          <Trackpoint>
            <Time>2022-07-15T15:23:23.000Z</Time>
            <Position>
              <LatitudeDegrees>43.406873457133769989013671875</LatitudeDegrees>
              <LongitudeDegrees>-4.67552550137042999267578125</LongitudeDegrees>
            </Position>
            <AltitudeMeters>37.59999847412109375</AltitudeMeters>
            <DistanceMeters>NAN</DistanceMeters>
          </Trackpoint>
          <Trackpoint>
            <Time>2022-07-15T15:23:26.000Z</Time>
            <Position>
              <LatitudeDegrees>43.40687672607600688934326171875</LatitudeDegrees>
              <LongitudeDegrees>-4.675771929323673248291015625</LongitudeDegrees>
            </Position>
            <AltitudeMeters>36.40000152587890625</AltitudeMeters>
            <DistanceMeters>NAN</DistanceMeters>
          </Trackpoint>
          <Trackpoint>
            <Time>2022-07-15T15:23:27.000Z</Time>
            <Position>
              <LatitudeDegrees>43.4068833477795124053955078125</LatitudeDegrees>
              <LongitudeDegrees>-4.6758565865457057952880859375</LongitudeDegrees>
            </Position>
            <AltitudeMeters>36.40000152587890625</AltitudeMeters>
            <DistanceMeters>NAN</DistanceMeters>
          </Trackpoint>
          <Trackpoint>
            <Time>2022-07-15T15:23:29.000Z</Time>
            <Position>
              <LatitudeDegrees>43.40691268444061279296875</LatitudeDegrees>
              <LongitudeDegrees>-4.676003940403461456298828125</LongitudeDegrees>
            </Position>
            <AltitudeMeters>36.200000762939453125</AltitudeMeters>
            <DistanceMeters>NAN</DistanceMeters>
          </Trackpoint>
          <Trackpoint>
            <Time>2022-07-15T15:23:31.000Z</Time>
            <Position>
              <LatitudeDegrees>43.40695149265229701995849609375</LatitudeDegrees>
              <LongitudeDegrees>-4.67609002254903316497802734375</LongitudeDegrees>
            </Position>
            <AltitudeMeters>36.59999847412109375</AltitudeMeters>
            <DistanceMeters>NAN</DistanceMeters>
          </Trackpoint>
          <Trackpoint>
            <Time>2022-07-15T15:23:35.000Z</Time>
            <Position>
              <LatitudeDegrees>43.4069748781621456146240234375</LatitudeDegrees>
              <LongitudeDegrees>-4.676158837974071502685546875</LongitudeDegrees>
            </Position>
            <AltitudeMeters>37.59999847412109375</AltitudeMeters>
            <DistanceMeters>NAN</DistanceMeters>
          </Trackpoint>
          <Trackpoint>
            <Time>2022-07-15T15:23:41.000Z</Time>
            <Position>
              <LatitudeDegrees>43.40701167471706867218017578125</LatitudeDegrees>
              <LongitudeDegrees>-4.676285572350025177001953125</LongitudeDegrees>
            </Position>
            <AltitudeMeters>38.799999237060546875</AltitudeMeters>
            <DistanceMeters>NAN</DistanceMeters>
          </Trackpoint>
          <Trackpoint>
            <Time>2022-07-15T15:23:43.000Z</Time>
            <Position>
              <LatitudeDegrees>43.4070154465734958648681640625</LatitudeDegrees>
              <LongitudeDegrees>-4.6763424016535282135009765625</LongitudeDegrees>
            </Position>
            <AltitudeMeters>39.200000762939453125</AltitudeMeters>
            <DistanceMeters>NAN</DistanceMeters>
          </Trackpoint>
          <Trackpoint>
            <Time>2022-07-15T15:23:49.000Z</Time>
            <Position>
              <LatitudeDegrees>43.40696121565997600555419921875</LatitudeDegrees>
              <LongitudeDegrees>-4.67651146464049816131591796875</LongitudeDegrees>
            </Position>
            <AltitudeMeters>39.200000762939453125</AltitudeMeters>
            <DistanceMeters>NAN</DistanceMeters>
          </Trackpoint>
          <Trackpoint>
            <Time>2022-07-15T15:23:59.000Z</Time>
            <Position>
              <LatitudeDegrees>43.40682911686599254608154296875</LatitudeDegrees>
              <LongitudeDegrees>-4.676743559539318084716796875</LongitudeDegrees>
            </Position>
            <AltitudeMeters>39.799999237060546875</AltitudeMeters>
            <DistanceMeters>NAN</DistanceMeters>
          </Trackpoint>
          <Trackpoint>
            <Time>2022-07-15T15:24:06.000Z</Time>
            <Position>
              <LatitudeDegrees>43.40672702528536319732666015625</LatitudeDegrees>
              <LongitudeDegrees>-4.6768583916127681732177734375</LongitudeDegrees>
            </Position>
            <AltitudeMeters>40.59999847412109375</AltitudeMeters>
            <DistanceMeters>NAN</DistanceMeters>
          </Trackpoint>
          <Trackpoint>
            <Time>2022-07-15T15:24:09.000Z</Time>
            <Position>
              <LatitudeDegrees>43.4066841937601566314697265625</LatitudeDegrees>
              <LongitudeDegrees>-4.67692905105650424957275390625</LongitudeDegrees>
            </Position>
            <AltitudeMeters>41</AltitudeMeters>
            <DistanceMeters>NAN</DistanceMeters>
          </Trackpoint>
          <Trackpoint>
            <Time>2022-07-15T15:24:14.000Z</Time>
            <Position>
              <LatitudeDegrees>43.40663817711174488067626953125</LatitudeDegrees>
              <LongitudeDegrees>-4.677037261426448822021484375</LongitudeDegrees>
            </Position>
            <AltitudeMeters>41.59999847412109375</AltitudeMeters>
            <DistanceMeters>NAN</DistanceMeters>
          </Trackpoint>
          <Trackpoint>
            <Time>2022-07-15T15:24:16.000Z</Time>
            <Position>
              <LatitudeDegrees>43.40662233531475067138671875</LatitudeDegrees>
              <LongitudeDegrees>-4.67708093114197254180908203125</LongitudeDegrees>
            </Position>
            <AltitudeMeters>41.799999237060546875</AltitudeMeters>
            <DistanceMeters>NAN</DistanceMeters>
          </Trackpoint>
          <Trackpoint>
            <Time>2022-07-15T15:24:19.000Z</Time>
            <Position>
              <LatitudeDegrees>43.40659727342426776885986328125</LatitudeDegrees>
              <LongitudeDegrees>-4.67714563943445682525634765625</LongitudeDegrees>
            </Position>
            <AltitudeMeters>42</AltitudeMeters>
            <DistanceMeters>NAN</DistanceMeters>
          </Trackpoint>
          <Trackpoint>
            <Time>2022-07-15T15:24:24.000Z</Time>
            <Position>
              <LatitudeDegrees>43.4065779112279415130615234375</LatitudeDegrees>
              <LongitudeDegrees>-4.6772801689803600311279296875</LongitudeDegrees>
            </Position>
            <AltitudeMeters>42.799999237060546875</AltitudeMeters>
            <DistanceMeters>NAN</DistanceMeters>
          </Trackpoint>
          <Trackpoint>
            <Time>2022-07-15T15:24:30.000Z</Time>
            <Position>
              <LatitudeDegrees>43.40653491206467151641845703125</LatitudeDegrees>
              <LongitudeDegrees>-4.67744906432926654815673828125</LongitudeDegrees>
            </Position>
            <AltitudeMeters>43</AltitudeMeters>
            <DistanceMeters>NAN</DistanceMeters>
          </Trackpoint>
          <Trackpoint>
            <Time>2022-07-15T15:24:32.000Z</Time>
            <Position>
              <LatitudeDegrees>43.40650473721325397491455078125</LatitudeDegrees>
              <LongitudeDegrees>-4.67748820781707763671875</LongitudeDegrees>
            </Position>
            <AltitudeMeters>43</AltitudeMeters>
            <DistanceMeters>NAN</DistanceMeters>
          </Trackpoint>
          <Trackpoint>
            <Time>2022-07-15T15:24:35.000Z</Time>
            <Position>
              <LatitudeDegrees>43.4064518474042415618896484375</LatitudeDegrees>
              <LongitudeDegrees>-4.67753254808485507965087890625</LongitudeDegrees>
            </Position>
            <AltitudeMeters>43.200000762939453125</AltitudeMeters>
            <DistanceMeters>NAN</DistanceMeters>
          </Trackpoint>
          <Trackpoint>
            <Time>2022-07-15T15:24:41.000Z</Time>
            <Position>
              <LatitudeDegrees>43.40634397231042385101318359375</LatitudeDegrees>
              <LongitudeDegrees>-4.677659533917903900146484375</LongitudeDegrees>
            </Position>
            <AltitudeMeters>43.40000152587890625</AltitudeMeters>
            <DistanceMeters>NAN</DistanceMeters>
          </Trackpoint>
          <Trackpoint>
            <Time>2022-07-15T15:24:46.000Z</Time>
            <Position>
              <LatitudeDegrees>43.4063489176332950592041015625</LatitudeDegrees>
              <LongitudeDegrees>-4.6778793074190616607666015625</LongitudeDegrees>
            </Position>
            <AltitudeMeters>43.200000762939453125</AltitudeMeters>
            <DistanceMeters>NAN</DistanceMeters>
          </Trackpoint>
          <Trackpoint>
            <Time>2022-07-15T15:24:53.000Z</Time>
            <Position>
              <LatitudeDegrees>43.40643567033112049102783203125</LatitudeDegrees>
              <LongitudeDegrees>-4.67823914252221584320068359375</LongitudeDegrees>
            </Position>
            <AltitudeMeters>42.59999847412109375</AltitudeMeters>
            <DistanceMeters>NAN</DistanceMeters>
          </Trackpoint>
          <Trackpoint>
            <Time>2022-07-15T15:24:55.000Z</Time>
            <Position>
              <LatitudeDegrees>43.40648822486400604248046875</LatitudeDegrees>
              <LongitudeDegrees>-4.67836730182170867919921875</LongitudeDegrees>
            </Position>
            <AltitudeMeters>42</AltitudeMeters>
            <DistanceMeters>NAN</DistanceMeters>
          </Trackpoint>
          <Trackpoint>
            <Time>2022-07-15T15:24:56.000Z</Time>
            <Position>
              <LatitudeDegrees>43.406523764133453369140625</LatitudeDegrees>
              <LongitudeDegrees>-4.678428657352924346923828125</LongitudeDegrees>
            </Position>
            <AltitudeMeters>41.799999237060546875</AltitudeMeters>
            <DistanceMeters>NAN</DistanceMeters>
          </Trackpoint>
          <Trackpoint>
            <Time>2022-07-15T15:24:57.000Z</Time>
            <Position>
              <LatitudeDegrees>43.406560979783535003662109375</LatitudeDegrees>
              <LongitudeDegrees>-4.678482301533222198486328125</LongitudeDegrees>
            </Position>
            <AltitudeMeters>41.59999847412109375</AltitudeMeters>
            <DistanceMeters>NAN</DistanceMeters>
          </Trackpoint>
          <Trackpoint>
            <Time>2022-07-15T15:24:59.000Z</Time>
            <Position>
              <LatitudeDegrees>43.40664002113044261932373046875</LatitudeDegrees>
              <LongitudeDegrees>-4.67858782969415187835693359375</LongitudeDegrees>
            </Position>
            <AltitudeMeters>40.59999847412109375</AltitudeMeters>
            <DistanceMeters>NAN</DistanceMeters>
          </Trackpoint>
          <Trackpoint>
            <Time>2022-07-15T15:25:01.000Z</Time>
            <Position>
              <LatitudeDegrees>43.4066999517381191253662109375</LatitudeDegrees>
              <LongitudeDegrees>-4.678730070590972900390625</LongitudeDegrees>
            </Position>
            <AltitudeMeters>40.200000762939453125</AltitudeMeters>
            <DistanceMeters>NAN</DistanceMeters>
          </Trackpoint>
          <Trackpoint>
            <Time>2022-07-15T15:25:02.000Z</Time>
            <Position>
              <LatitudeDegrees>43.40671462006866931915283203125</LatitudeDegrees>
              <LongitudeDegrees>-4.67880508862435817718505859375</LongitudeDegrees>
            </Position>
            <AltitudeMeters>40</AltitudeMeters>
            <DistanceMeters>NAN</DistanceMeters>
          </Trackpoint>
          <Trackpoint>
            <Time>2022-07-15T15:25:03.000Z</Time>
            <Position>
              <LatitudeDegrees>43.4067113511264324188232421875</LatitudeDegrees>
              <LongitudeDegrees>-4.678879268467426300048828125</LongitudeDegrees>
            </Position>
            <AltitudeMeters>39.799999237060546875</AltitudeMeters>
            <DistanceMeters>NAN</DistanceMeters>
          </Trackpoint>
          <Trackpoint>
            <Time>2022-07-15T15:25:05.000Z</Time>
            <Position>
              <LatitudeDegrees>43.40669333003461360931396484375</LatitudeDegrees>
              <LongitudeDegrees>-4.67900960706174373626708984375</LongitudeDegrees>
            </Position>
            <AltitudeMeters>39.59999847412109375</AltitudeMeters>
            <DistanceMeters>NAN</DistanceMeters>
          </Trackpoint>
          <Trackpoint>
            <Time>2022-07-15T15:25:06.000Z</Time>
            <Position>
              <LatitudeDegrees>43.40668461285531520843505859375</LatitudeDegrees>
              <LongitudeDegrees>-4.67906844802200794219970703125</LongitudeDegrees>
            </Position>
            <AltitudeMeters>39.59999847412109375</AltitudeMeters>
            <DistanceMeters>NAN</DistanceMeters>
          </Trackpoint>
          <Trackpoint>
            <Time>2022-07-15T15:25:07.000Z</Time>
            <Position>
              <LatitudeDegrees>43.40667597949504852294921875</LatitudeDegrees>
              <LongitudeDegrees>-4.67912896536290645599365234375</LongitudeDegrees>
            </Position>
            <AltitudeMeters>39.59999847412109375</AltitudeMeters>
            <DistanceMeters>NAN</DistanceMeters>
          </Trackpoint>
          <Trackpoint>
            <Time>2022-07-15T15:25:09.000Z</Time>
            <Position>
              <LatitudeDegrees>43.40668612159788608551025390625</LatitudeDegrees>
              <LongitudeDegrees>-4.6792257763445377349853515625</LongitudeDegrees>
            </Position>
            <AltitudeMeters>39.799999237060546875</AltitudeMeters>
            <DistanceMeters>NAN</DistanceMeters>
          </Trackpoint>
          <Trackpoint>
            <Time>2022-07-15T15:25:10.000Z</Time>
            <Position>
              <LatitudeDegrees>43.40669475495815277099609375</LatitudeDegrees>
              <LongitudeDegrees>-4.67927263118326663970947265625</LongitudeDegrees>
            </Position>
            <AltitudeMeters>40</AltitudeMeters>
            <DistanceMeters>NAN</DistanceMeters>
          </Trackpoint>
          <Trackpoint>
            <Time>2022-07-15T15:25:18.000Z</Time>
            <Position>
              <LatitudeDegrees>43.4067489020526409149169921875</LatitudeDegrees>
              <LongitudeDegrees>-4.67967714183032512664794921875</LongitudeDegrees>
            </Position>
            <AltitudeMeters>40</AltitudeMeters>
            <DistanceMeters>NAN</DistanceMeters>
          </Trackpoint>
          <Trackpoint>
            <Time>2022-07-15T15:25:21.000Z</Time>
            <Position>
              <LatitudeDegrees>43.40672501362860202789306640625</LatitudeDegrees>
              <LongitudeDegrees>-4.6798299439251422882080078125</LongitudeDegrees>
            </Position>
            <AltitudeMeters>39.59999847412109375</AltitudeMeters>
            <DistanceMeters>NAN</DistanceMeters>
          </Trackpoint>
          <Trackpoint>
            <Time>2022-07-15T15:25:23.000Z</Time>
            <Position>
              <LatitudeDegrees>43.40669282712042331695556640625</LatitudeDegrees>
              <LongitudeDegrees>-4.6799362264573574066162109375</LongitudeDegrees>
            </Position>
            <AltitudeMeters>39.59999847412109375</AltitudeMeters>
            <DistanceMeters>NAN</DistanceMeters>
          </Trackpoint>
          <Trackpoint>
            <Time>2022-07-15T15:25:25.000Z</Time>
            <Position>
              <LatitudeDegrees>43.40664085932075977325439453125</LatitudeDegrees>
              <LongitudeDegrees>-4.6800314448773860931396484375</LongitudeDegrees>
            </Position>
            <AltitudeMeters>39.200000762939453125</AltitudeMeters>
            <DistanceMeters>NAN</DistanceMeters>
          </Trackpoint>
          <Trackpoint>
            <Time>2022-07-15T15:25:27.000Z</Time>
            <Position>
              <LatitudeDegrees>43.40656600892543792724609375</LatitudeDegrees>
              <LongitudeDegrees>-4.68009808100759983062744140625</LongitudeDegrees>
            </Position>
            <AltitudeMeters>38.799999237060546875</AltitudeMeters>
            <DistanceMeters>NAN</DistanceMeters>
          </Trackpoint>
          <Trackpoint>
            <Time>2022-07-15T15:25:31.000Z</Time>
            <Position>
              <LatitudeDegrees>43.40638571418821811676025390625</LatitudeDegrees>
              <LongitudeDegrees>-4.68017217703163623809814453125</LongitudeDegrees>
            </Position>
            <AltitudeMeters>38.59999847412109375</AltitudeMeters>
            <DistanceMeters>NAN</DistanceMeters>
          </Trackpoint>
          <Trackpoint>
            <Time>2022-07-15T15:25:33.000Z</Time>
            <Position>
              <LatitudeDegrees>43.4062946029007434844970703125</LatitudeDegrees>
              <LongitudeDegrees>-4.6802248992025852203369140625</LongitudeDegrees>
            </Position>
            <AltitudeMeters>38.40000152587890625</AltitudeMeters>
            <DistanceMeters>NAN</DistanceMeters>
          </Trackpoint>
          <Trackpoint>
            <Time>2022-07-15T15:25:37.000Z</Time>
            <Position>
              <LatitudeDegrees>43.4061656892299652099609375</LatitudeDegrees>
              <LongitudeDegrees>-4.68033780343830585479736328125</LongitudeDegrees>
            </Position>
            <AltitudeMeters>37.40000152587890625</AltitudeMeters>
            <DistanceMeters>NAN</DistanceMeters>
          </Trackpoint>
          <Trackpoint>
            <Time>2022-07-15T15:25:38.000Z</Time>
            <Position>
              <LatitudeDegrees>43.4061551280319690704345703125</LatitudeDegrees>
              <LongitudeDegrees>-4.680362530052661895751953125</LongitudeDegrees>
            </Position>
            <AltitudeMeters>37.200000762939453125</AltitudeMeters>
            <DistanceMeters>NAN</DistanceMeters>
          </Trackpoint>
          <Trackpoint>
            <Time>2022-07-15T15:25:40.000Z</Time>
            <Position>
              <LatitudeDegrees>43.406159989535808563232421875</LatitudeDegrees>
              <LongitudeDegrees>-4.68040368519723415374755859375</LongitudeDegrees>
            </Position>
            <AltitudeMeters>37</AltitudeMeters>
            <DistanceMeters>NAN</DistanceMeters>
          </Trackpoint>
          <Trackpoint>
            <Time>2022-07-15T15:25:42.000Z</Time>
            <Position>
              <LatitudeDegrees>43.40616225264966487884521484375</LatitudeDegrees>
              <LongitudeDegrees>-4.68040854670107364654541015625</LongitudeDegrees>
            </Position>
            <AltitudeMeters>37</AltitudeMeters>
            <DistanceMeters>NAN</DistanceMeters>
          </Trackpoint>
          <Trackpoint>
            <Time>2022-07-15T15:25:43.000Z</Time>
            <Position>
              <LatitudeDegrees>43.40616225264966487884521484375</LatitudeDegrees>
              <LongitudeDegrees>-4.68040854670107364654541015625</LongitudeDegrees>
            </Position>
            <AltitudeMeters>36.799999237060546875</AltitudeMeters>
            <DistanceMeters>NAN</DistanceMeters>
          </Trackpoint>
          <Trackpoint>
            <Time>2022-07-15T15:25:54.000Z</Time>
            <Position>
              <LatitudeDegrees>43.40619712136685848236083984375</LatitudeDegrees>
              <LongitudeDegrees>-4.680465795099735260009765625</LongitudeDegrees>
            </Position>
            <AltitudeMeters>36.799999237060546875</AltitudeMeters>
            <DistanceMeters>NAN</DistanceMeters>
          </Trackpoint>
          <Trackpoint>
            <Time>2022-07-15T15:25:55.000Z</Time>
            <Position>
              <LatitudeDegrees>43.406216986477375030517578125</LatitudeDegrees>
              <LongitudeDegrees>-4.680487923324108123779296875</LongitudeDegrees>
            </Position>
            <AltitudeMeters>36.799999237060546875</AltitudeMeters>
            <DistanceMeters>NAN</DistanceMeters>
          </Trackpoint>
          <Trackpoint>
            <Time>2022-07-15T15:25:56.000Z</Time>
            <Position>
              <LatitudeDegrees>43.4062376059591770172119140625</LatitudeDegrees>
              <LongitudeDegrees>-4.68051013536751270294189453125</LongitudeDegrees>
            </Position>
            <AltitudeMeters>36.799999237060546875</AltitudeMeters>
            <DistanceMeters>NAN</DistanceMeters>
          </Trackpoint>
          <Trackpoint>
            <Time>2022-07-15T15:26:02.000Z</Time>
            <Position>
              <LatitudeDegrees>43.40636643581092357635498046875</LatitudeDegrees>
              <LongitudeDegrees>-4.68068179674446582794189453125</LongitudeDegrees>
            </Position>
            <AltitudeMeters>37</AltitudeMeters>
            <DistanceMeters>NAN</DistanceMeters>
          </Trackpoint>
          <Trackpoint>
            <Time>2022-07-15T15:26:08.000Z</Time>
            <Position>
              <LatitudeDegrees>43.4064634144306182861328125</LatitudeDegrees>
              <LongitudeDegrees>-4.6809366904199123382568359375</LongitudeDegrees>
            </Position>
            <AltitudeMeters>37</AltitudeMeters>
            <DistanceMeters>NAN</DistanceMeters>
          </Trackpoint>
          <Trackpoint>
            <Time>2022-07-15T15:26:10.000Z</Time>
            <Position>
              <LatitudeDegrees>43.4064714610576629638671875</LatitudeDegrees>
              <LongitudeDegrees>-4.68105579726397991180419921875</LongitudeDegrees>
            </Position>
            <AltitudeMeters>36.799999237060546875</AltitudeMeters>
            <DistanceMeters>NAN</DistanceMeters>
          </Trackpoint>
          <Trackpoint>
            <Time>2022-07-15T15:26:13.000Z</Time>
            <Position>
              <LatitudeDegrees>43.40644908137619495391845703125</LatitudeDegrees>
              <LongitudeDegrees>-4.68123131431639194488525390625</LongitudeDegrees>
            </Position>
            <AltitudeMeters>36.59999847412109375</AltitudeMeters>
            <DistanceMeters>NAN</DistanceMeters>
          </Trackpoint>
          <Trackpoint>
            <Time>2022-07-15T15:26:18.000Z</Time>
            <Position>
              <LatitudeDegrees>43.406420834362506866455078125</LatitudeDegrees>
              <LongitudeDegrees>-4.68142233788967132568359375</LongitudeDegrees>
            </Position>
            <AltitudeMeters>36.59999847412109375</AltitudeMeters>
            <DistanceMeters>NAN</DistanceMeters>
          </Trackpoint>
          <Trackpoint>
            <Time>2022-07-15T15:26:23.000Z</Time>
            <Position>
              <LatitudeDegrees>43.40638068504631519317626953125</LatitudeDegrees>
              <LongitudeDegrees>-4.68155871145427227020263671875</LongitudeDegrees>
            </Position>
            <AltitudeMeters>37</AltitudeMeters>
            <DistanceMeters>NAN</DistanceMeters>
          </Trackpoint>
          <Trackpoint>
            <Time>2022-07-15T15:26:24.000Z</Time>
            <Position>
              <LatitudeDegrees>43.40636744163930416107177734375</LatitudeDegrees>
              <LongitudeDegrees>-4.681583940982818603515625</LongitudeDegrees>
            </Position>
            <AltitudeMeters>37</AltitudeMeters>
            <DistanceMeters>NAN</DistanceMeters>
          </Trackpoint>
          <Trackpoint>
            <Time>2022-07-15T15:26:28.000Z</Time>
            <Position>
              <LatitudeDegrees>43.40632461011409759521484375</LatitudeDegrees>
              <LongitudeDegrees>-4.68168796040117740631103515625</LongitudeDegrees>
            </Position>
            <AltitudeMeters>37.200000762939453125</AltitudeMeters>
            <DistanceMeters>NAN</DistanceMeters>
          </Trackpoint>
          <Trackpoint>
            <Time>2022-07-15T15:26:32.000Z</Time>
            <Position>
              <LatitudeDegrees>43.4062959440052509307861328125</LatitudeDegrees>
              <LongitudeDegrees>-4.68178669922053813934326171875</LongitudeDegrees>
            </Position>
            <AltitudeMeters>37.799999237060546875</AltitudeMeters>
            <DistanceMeters>NAN</DistanceMeters>
          </Trackpoint>
          <Trackpoint>
            <Time>2022-07-15T15:26:40.000Z</Time>
            <Position>
              <LatitudeDegrees>43.4062590636312961578369140625</LatitudeDegrees>
              <LongitudeDegrees>-4.6820219792425632476806640625</LongitudeDegrees>
            </Position>
            <AltitudeMeters>38.40000152587890625</AltitudeMeters>
            <DistanceMeters>NAN</DistanceMeters>
          </Trackpoint>
          <Trackpoint>
            <Time>2022-07-15T15:26:43.000Z</Time>
            <Position>
              <LatitudeDegrees>43.40623232536017894744873046875</LatitudeDegrees>
              <LongitudeDegrees>-4.682111330330371856689453125</LongitudeDegrees>
            </Position>
            <AltitudeMeters>38.59999847412109375</AltitudeMeters>
            <DistanceMeters>NAN</DistanceMeters>
          </Trackpoint>
          <Trackpoint>
            <Time>2022-07-15T15:26:46.000Z</Time>
            <Position>
              <LatitudeDegrees>43.4062419645488262176513671875</LatitudeDegrees>
              <LongitudeDegrees>-4.6822021901607513427734375</LongitudeDegrees>
            </Position>
            <AltitudeMeters>39.200000762939453125</AltitudeMeters>
            <DistanceMeters>NAN</DistanceMeters>
          </Trackpoint>
          <Trackpoint>
            <Time>2022-07-15T15:26:50.000Z</Time>
            <Position>
              <LatitudeDegrees>43.40623718686401844024658203125</LatitudeDegrees>
              <LongitudeDegrees>-4.682305790483951568603515625</LongitudeDegrees>
            </Position>
            <AltitudeMeters>39.40000152587890625</AltitudeMeters>
            <DistanceMeters>NAN</DistanceMeters>
          </Trackpoint>
          <Trackpoint>
            <Time>2022-07-15T15:26:52.000Z</Time>
            <Position>
              <LatitudeDegrees>43.40622142888605594635009765625</LatitudeDegrees>
              <LongitudeDegrees>-4.68235683627426624298095703125</LongitudeDegrees>
            </Position>
            <AltitudeMeters>39.40000152587890625</AltitudeMeters>
            <DistanceMeters>NAN</DistanceMeters>
          </Trackpoint>
          <Trackpoint>
            <Time>2022-07-15T15:27:01.000Z</Time>
            <Position>
              <LatitudeDegrees>43.406135179102420806884765625</LatitudeDegrees>
              <LongitudeDegrees>-4.68257225118577480316162109375</LongitudeDegrees>
            </Position>
            <AltitudeMeters>40.40000152587890625</AltitudeMeters>
            <DistanceMeters>NAN</DistanceMeters>
          </Trackpoint>
          <Trackpoint>
            <Time>2022-07-15T15:27:09.000Z</Time>
            <Position>
              <LatitudeDegrees>43.4061085246503353118896484375</LatitudeDegrees>
              <LongitudeDegrees>-4.68278716318309307098388671875</LongitudeDegrees>
            </Position>
            <AltitudeMeters>41</AltitudeMeters>
            <DistanceMeters>NAN</DistanceMeters>
          </Trackpoint>
          <Trackpoint>
            <Time>2022-07-15T15:27:14.000Z</Time>
            <Position>
              <LatitudeDegrees>43.4061004780232906341552734375</LatitudeDegrees>
              <LongitudeDegrees>-4.68294910155236721038818359375</LongitudeDegrees>
            </Position>
            <AltitudeMeters>41.200000762939453125</AltitudeMeters>
            <DistanceMeters>NAN</DistanceMeters>
          </Trackpoint>
          <Trackpoint>
            <Time>2022-07-15T15:27:16.000Z</Time>
            <Position>
              <LatitudeDegrees>43.40610290877521038055419921875</LatitudeDegrees>
              <LongitudeDegrees>-4.6830097027122974395751953125</LongitudeDegrees>
            </Position>
            <AltitudeMeters>41.200000762939453125</AltitudeMeters>
            <DistanceMeters>NAN</DistanceMeters>
          </Trackpoint>
          <Trackpoint>
            <Time>2022-07-15T15:27:22.000Z</Time>
            <Position>
              <LatitudeDegrees>43.40609184466302394866943359375</LatitudeDegrees>
              <LongitudeDegrees>-4.6833057515323162078857421875</LongitudeDegrees>
            </Position>
            <AltitudeMeters>40.200000762939453125</AltitudeMeters>
            <DistanceMeters>NAN</DistanceMeters>
          </Trackpoint>
          <Trackpoint>
            <Time>2022-07-15T15:27:30.000Z</Time>
            <Position>
              <LatitudeDegrees>43.40606317855417728424072265625</LatitudeDegrees>
              <LongitudeDegrees>-4.6837955899536609649658203125</LongitudeDegrees>
            </Position>
            <AltitudeMeters>39.40000152587890625</AltitudeMeters>
            <DistanceMeters>NAN</DistanceMeters>
          </Trackpoint>
          <Trackpoint>
            <Time>2022-07-15T15:27:36.000Z</Time>
            <Position>
              <LatitudeDegrees>43.4060736559331417083740234375</LatitudeDegrees>
              <LongitudeDegrees>-4.68406272120773792266845703125</LongitudeDegrees>
            </Position>
            <AltitudeMeters>39.59999847412109375</AltitudeMeters>
            <DistanceMeters>NAN</DistanceMeters>
          </Trackpoint>
          <Trackpoint>
            <Time>2022-07-15T15:27:41.000Z</Time>
            <Position>
              <LatitudeDegrees>43.40618287213146686553955078125</LatitudeDegrees>
              <LongitudeDegrees>-4.68422482721507549285888671875</LongitudeDegrees>
            </Position>
            <AltitudeMeters>39.59999847412109375</AltitudeMeters>
            <DistanceMeters>NAN</DistanceMeters>
          </Trackpoint>
          <Trackpoint>
            <Time>2022-07-15T15:27:46.000Z</Time>
            <Position>
              <LatitudeDegrees>43.40629778802394866943359375</LatitudeDegrees>
              <LongitudeDegrees>-4.6842814050614833831787109375</LongitudeDegrees>
            </Position>
            <AltitudeMeters>40</AltitudeMeters>
            <DistanceMeters>NAN</DistanceMeters>
          </Trackpoint>
          <Trackpoint>
            <Time>2022-07-15T15:27:51.000Z</Time>
            <Position>
              <LatitudeDegrees>43.406359814107418060302734375</LatitudeDegrees>
              <LongitudeDegrees>-4.68439581803977489471435546875</LongitudeDegrees>
            </Position>
            <AltitudeMeters>40.59999847412109375</AltitudeMeters>
            <DistanceMeters>NAN</DistanceMeters>
          </Trackpoint>
          <Trackpoint>
            <Time>2022-07-15T15:27:58.000Z</Time>
            <Position>
              <LatitudeDegrees>43.40642209164798259735107421875</LatitudeDegrees>
              <LongitudeDegrees>-4.68456680886447429656982421875</LongitudeDegrees>
            </Position>
            <AltitudeMeters>41.200000762939453125</AltitudeMeters>
            <DistanceMeters>NAN</DistanceMeters>
          </Trackpoint>
          <Trackpoint>
            <Time>2022-07-15T15:28:03.000Z</Time>
            <Position>
              <LatitudeDegrees>43.4065316431224346160888671875</LatitudeDegrees>
              <LongitudeDegrees>-4.684718437492847442626953125</LongitudeDegrees>
            </Position>
            <AltitudeMeters>41</AltitudeMeters>
            <DistanceMeters>NAN</DistanceMeters>
          </Trackpoint>
          <Trackpoint>
            <Time>2022-07-15T15:28:07.000Z</Time>
            <Position>
              <LatitudeDegrees>43.40664111077785491943359375</LatitudeDegrees>
              <LongitudeDegrees>-4.6848698146641254425048828125</LongitudeDegrees>
            </Position>
            <AltitudeMeters>40.40000152587890625</AltitudeMeters>
            <DistanceMeters>NAN</DistanceMeters>
          </Trackpoint>
          <Trackpoint>
            <Time>2022-07-15T15:28:11.000Z</Time>
            <Position>
              <LatitudeDegrees>43.406725265085697174072265625</LatitudeDegrees>
              <LongitudeDegrees>-4.68520383350551128387451171875</LongitudeDegrees>
            </Position>
            <AltitudeMeters>39</AltitudeMeters>
            <DistanceMeters>NAN</DistanceMeters>
          </Trackpoint>
          <Trackpoint>
            <Time>2022-07-15T15:28:13.000Z</Time>
            <Position>
              <LatitudeDegrees>43.40678452514111995697021484375</LatitudeDegrees>
              <LongitudeDegrees>-4.68541488982737064361572265625</LongitudeDegrees>
            </Position>
            <AltitudeMeters>37.799999237060546875</AltitudeMeters>
            <DistanceMeters>NAN</DistanceMeters>
          </Trackpoint>
          <Trackpoint>
            <Time>2022-07-15T15:28:15.000Z</Time>
            <Position>
              <LatitudeDegrees>43.40683900751173496246337890625</LatitudeDegrees>
              <LongitudeDegrees>-4.68563265167176723480224609375</LongitudeDegrees>
            </Position>
            <AltitudeMeters>36.59999847412109375</AltitudeMeters>
            <DistanceMeters>NAN</DistanceMeters>
          </Trackpoint>
          <Trackpoint>
            <Time>2022-07-15T15:28:16.000Z</Time>
            <Position>
              <LatitudeDegrees>43.40686650015413761138916015625</LatitudeDegrees>
              <LongitudeDegrees>-4.68573139049112796783447265625</LongitudeDegrees>
            </Position>
            <AltitudeMeters>36.200000762939453125</AltitudeMeters>
            <DistanceMeters>NAN</DistanceMeters>
          </Trackpoint>
          <Trackpoint>
            <Time>2022-07-15T15:28:17.000Z</Time>
            <Position>
              <LatitudeDegrees>43.40690053068101406097412109375</LatitudeDegrees>
              <LongitudeDegrees>-4.6858124434947967529296875</LongitudeDegrees>
            </Position>
            <AltitudeMeters>35.200000762939453125</AltitudeMeters>
            <DistanceMeters>NAN</DistanceMeters>
          </Trackpoint>
          <Trackpoint>
            <Time>2022-07-15T15:28:18.000Z</Time>
            <Position>
              <LatitudeDegrees>43.40694394893944263458251953125</LatitudeDegrees>
              <LongitudeDegrees>-4.6858821809291839599609375</LongitudeDegrees>
            </Position>
            <AltitudeMeters>34.799999237060546875</AltitudeMeters>
            <DistanceMeters>NAN</DistanceMeters>
          </Trackpoint>
          <Trackpoint>
            <Time>2022-07-15T15:28:19.000Z</Time>
            <Position>
              <LatitudeDegrees>43.40698954649269580841064453125</LatitudeDegrees>
              <LongitudeDegrees>-4.68593875877559185028076171875</LongitudeDegrees>
            </Position>
            <AltitudeMeters>34.40000152587890625</AltitudeMeters>
            <DistanceMeters>NAN</DistanceMeters>
          </Trackpoint>
          <Trackpoint>
            <Time>2022-07-15T15:28:20.000Z</Time>
            <Position>
              <LatitudeDegrees>43.40704117901623249053955078125</LatitudeDegrees>
              <LongitudeDegrees>-4.68598703853785991668701171875</LongitudeDegrees>
            </Position>
            <AltitudeMeters>34</AltitudeMeters>
            <DistanceMeters>NAN</DistanceMeters>
          </Trackpoint>
          <Trackpoint>
            <Time>2022-07-15T15:28:23.000Z</Time>
            <Position>
              <LatitudeDegrees>43.40719255618751049041748046875</LatitudeDegrees>
              <LongitudeDegrees>-4.68611142598092555999755859375</LongitudeDegrees>
            </Position>
            <AltitudeMeters>32.799999237060546875</AltitudeMeters>
            <DistanceMeters>NAN</DistanceMeters>
          </Trackpoint>
          <Trackpoint>
            <Time>2022-07-15T15:28:25.000Z</Time>
            <Position>
              <LatitudeDegrees>43.407287858426570892333984375</LatitudeDegrees>
              <LongitudeDegrees>-4.6862005256116390228271484375</LongitudeDegrees>
            </Position>
            <AltitudeMeters>31.6000003814697265625</AltitudeMeters>
            <DistanceMeters>NAN</DistanceMeters>
          </Trackpoint>
          <Trackpoint>
            <Time>2022-07-15T15:28:27.000Z</Time>
            <Position>
              <LatitudeDegrees>43.40735633857548236846923828125</LatitudeDegrees>
              <LongitudeDegrees>-4.6863158605992794036865234375</LongitudeDegrees>
            </Position>
            <AltitudeMeters>31.200000762939453125</AltitudeMeters>
            <DistanceMeters>NAN</DistanceMeters>
          </Trackpoint>
          <Trackpoint>
            <Time>2022-07-15T15:28:28.000Z</Time>
            <Position>
              <LatitudeDegrees>43.407372348010540008544921875</LatitudeDegrees>
              <LongitudeDegrees>-4.686385095119476318359375</LongitudeDegrees>
            </Position>
            <AltitudeMeters>30.3999996185302734375</AltitudeMeters>
            <DistanceMeters>NAN</DistanceMeters>
          </Trackpoint>
          <Trackpoint>
            <Time>2022-07-15T15:28:29.000Z</Time>
            <Position>
              <LatitudeDegrees>43.40738617815077304840087890625</LatitudeDegrees>
              <LongitudeDegrees>-4.68645558692514896392822265625</LongitudeDegrees>
            </Position>
            <AltitudeMeters>29.799999237060546875</AltitudeMeters>
            <DistanceMeters>NAN</DistanceMeters>
          </Trackpoint>
          <Trackpoint>
            <Time>2022-07-15T15:28:30.000Z</Time>
            <Position>
              <LatitudeDegrees>43.407394476234912872314453125</LatitudeDegrees>
              <LongitudeDegrees>-4.686524569988250732421875</LongitudeDegrees>
            </Position>
            <AltitudeMeters>29.200000762939453125</AltitudeMeters>
            <DistanceMeters>NAN</DistanceMeters>
          </Trackpoint>
          <Trackpoint>
            <Time>2022-07-15T15:28:33.000Z</Time>
            <Position>
              <LatitudeDegrees>43.40741652064025402069091796875</LatitudeDegrees>
              <LongitudeDegrees>-4.68673218972980976104736328125</LongitudeDegrees>
            </Position>
            <AltitudeMeters>28</AltitudeMeters>
            <DistanceMeters>NAN</DistanceMeters>
          </Trackpoint>
          <Trackpoint>
            <Time>2022-07-15T15:28:40.000Z</Time>
            <Position>
              <LatitudeDegrees>43.40747603215277194976806640625</LatitudeDegrees>
              <LongitudeDegrees>-4.6872040070593357086181640625</LongitudeDegrees>
            </Position>
            <AltitudeMeters>27.3999996185302734375</AltitudeMeters>
            <DistanceMeters>NAN</DistanceMeters>
          </Trackpoint>
          <Trackpoint>
            <Time>2022-07-15T15:28:43.000Z</Time>
            <Position>
              <LatitudeDegrees>43.4075478650629520416259765625</LatitudeDegrees>
              <LongitudeDegrees>-4.68734264373779296875</LongitudeDegrees>
            </Position>
            <AltitudeMeters>27</AltitudeMeters>
            <DistanceMeters>NAN</DistanceMeters>
          </Trackpoint>
          <Trackpoint>
            <Time>2022-07-15T15:28:45.000Z</Time>
            <Position>
              <LatitudeDegrees>43.407569825649261474609375</LatitudeDegrees>
              <LongitudeDegrees>-4.68741305172443389892578125</LongitudeDegrees>
            </Position>
            <AltitudeMeters>26.799999237060546875</AltitudeMeters>
            <DistanceMeters>NAN</DistanceMeters>
          </Trackpoint>
          <Trackpoint>
            <Time>2022-07-15T15:28:49.000Z</Time>
            <Position>
              <LatitudeDegrees>43.4075904451310634613037109375</LatitudeDegrees>
              <LongitudeDegrees>-4.68751941807568073272705078125</LongitudeDegrees>
            </Position>
            <AltitudeMeters>26.200000762939453125</AltitudeMeters>
            <DistanceMeters>NAN</DistanceMeters>
          </Trackpoint>
          <Trackpoint>
            <Time>2022-07-15T15:28:50.000Z</Time>
            <Position>
              <LatitudeDegrees>43.40759597718715667724609375</LatitudeDegrees>
              <LongitudeDegrees>-4.68753735534846782684326171875</LongitudeDegrees>
            </Position>
            <AltitudeMeters>26</AltitudeMeters>
            <DistanceMeters>NAN</DistanceMeters>
          </Trackpoint>
          <Trackpoint>
            <Time>2022-07-15T15:28:53.000Z</Time>
            <Position>
              <LatitudeDegrees>43.40759907849133014678955078125</LatitudeDegrees>
              <LongitudeDegrees>-4.687544815242290496826171875</LongitudeDegrees>
            </Position>
            <AltitudeMeters>25.799999237060546875</AltitudeMeters>
            <DistanceMeters>NAN</DistanceMeters>
          </Trackpoint>
          <Trackpoint>
            <Time>2022-07-15T15:35:59.000Z</Time>
            <Position>
              <LatitudeDegrees>43.40742808766663074493408203125</LatitudeDegrees>
              <LongitudeDegrees>-4.6875637583434581756591796875</LongitudeDegrees>
            </Position>
            <AltitudeMeters>29.6000003814697265625</AltitudeMeters>
            <DistanceMeters>NAN</DistanceMeters>
          </Trackpoint>
          <Trackpoint>
            <Time>2022-07-15T15:36:00.000Z</Time>
            <Position>
              <LatitudeDegrees>43.4074184484779834747314453125</LatitudeDegrees>
              <LongitudeDegrees>-4.68758747912943363189697265625</LongitudeDegrees>
            </Position>
            <AltitudeMeters>29.6000003814697265625</AltitudeMeters>
            <DistanceMeters>NAN</DistanceMeters>
          </Trackpoint>
          <Trackpoint>
            <Time>2022-07-15T15:36:02.000Z</Time>
            <Position>
              <LatitudeDegrees>43.40739456005394458770751953125</LatitudeDegrees>
              <LongitudeDegrees>-4.68764380551874637603759765625</LongitudeDegrees>
            </Position>
            <AltitudeMeters>29.6000003814697265625</AltitudeMeters>
            <DistanceMeters>NAN</DistanceMeters>
          </Trackpoint>
          <Trackpoint>
            <Time>2022-07-15T15:36:08.000Z</Time>
            <Position>
              <LatitudeDegrees>43.40727754868566989898681640625</LatitudeDegrees>
              <LongitudeDegrees>-4.6878212504088878631591796875</LongitudeDegrees>
            </Position>
            <AltitudeMeters>29.799999237060546875</AltitudeMeters>
            <DistanceMeters>NAN</DistanceMeters>
          </Trackpoint>
          <Trackpoint>
            <Time>2022-07-15T15:36:12.000Z</Time>
            <Position>
              <LatitudeDegrees>43.40720931999385356903076171875</LatitudeDegrees>
              <LongitudeDegrees>-4.68794555403292179107666015625</LongitudeDegrees>
            </Position>
            <AltitudeMeters>30.3999996185302734375</AltitudeMeters>
            <DistanceMeters>NAN</DistanceMeters>
          </Trackpoint>
          <Trackpoint>
            <Time>2022-07-15T15:36:15.000Z</Time>
            <Position>
              <LatitudeDegrees>43.4071713499724864959716796875</LatitudeDegrees>
              <LongitudeDegrees>-4.68808829784393310546875</LongitudeDegrees>
            </Position>
            <AltitudeMeters>30.200000762939453125</AltitudeMeters>
            <DistanceMeters>NAN</DistanceMeters>
          </Trackpoint>
          <Trackpoint>
            <Time>2022-07-15T15:36:19.000Z</Time>
            <Position>
              <LatitudeDegrees>43.40710739605128765106201171875</LatitudeDegrees>
              <LongitudeDegrees>-4.68835157342255115509033203125</LongitudeDegrees>
            </Position>
            <AltitudeMeters>29.3999996185302734375</AltitudeMeters>
            <DistanceMeters>NAN</DistanceMeters>
          </Trackpoint>
          <Trackpoint>
            <Time>2022-07-15T15:36:20.000Z</Time>
            <Position>
              <LatitudeDegrees>43.40709767304360866546630859375</LatitudeDegrees>
              <LongitudeDegrees>-4.6884329617023468017578125</LongitudeDegrees>
            </Position>
            <AltitudeMeters>29.200000762939453125</AltitudeMeters>
            <DistanceMeters>NAN</DistanceMeters>
          </Trackpoint>
          <Trackpoint>
            <Time>2022-07-15T15:36:21.000Z</Time>
            <Position>
              <LatitudeDegrees>43.407098092138767242431640625</LatitudeDegrees>
              <LongitudeDegrees>-4.68851636163890361785888671875</LongitudeDegrees>
            </Position>
            <AltitudeMeters>29</AltitudeMeters>
            <DistanceMeters>NAN</DistanceMeters>
          </Trackpoint>
          <Trackpoint>
            <Time>2022-07-15T15:36:24.000Z</Time>
            <Position>
              <LatitudeDegrees>43.40712147764861583709716796875</LatitudeDegrees>
              <LongitudeDegrees>-4.68875289894640445709228515625</LongitudeDegrees>
            </Position>
            <AltitudeMeters>28.6000003814697265625</AltitudeMeters>
            <DistanceMeters>NAN</DistanceMeters>
          </Trackpoint>
          <Trackpoint>
            <Time>2022-07-15T15:36:27.000Z</Time>
            <Position>
              <LatitudeDegrees>43.40709750540554523468017578125</LatitudeDegrees>
              <LongitudeDegrees>-4.6889149211347103118896484375</LongitudeDegrees>
            </Position>
            <AltitudeMeters>28.6000003814697265625</AltitudeMeters>
            <DistanceMeters>NAN</DistanceMeters>
          </Trackpoint>
          <Trackpoint>
            <Time>2022-07-15T15:36:31.000Z</Time>
            <Position>
              <LatitudeDegrees>43.407098092138767242431640625</LatitudeDegrees>
              <LongitudeDegrees>-4.6890041045844554901123046875</LongitudeDegrees>
            </Position>
            <AltitudeMeters>29.3999996185302734375</AltitudeMeters>
            <DistanceMeters>NAN</DistanceMeters>
          </Trackpoint>
          <Trackpoint>
            <Time>2022-07-15T15:36:32.000Z</Time>
            <Position>
              <LatitudeDegrees>43.407095409929752349853515625</LatitudeDegrees>
              <LongitudeDegrees>-4.68902505934238433837890625</LongitudeDegrees>
            </Position>
            <AltitudeMeters>29.799999237060546875</AltitudeMeters>
            <DistanceMeters>NAN</DistanceMeters>
          </Trackpoint>
          <Trackpoint>
            <Time>2022-07-15T15:36:36.000Z</Time>
            <Position>
              <LatitudeDegrees>43.407073952257633209228515625</LatitudeDegrees>
              <LongitudeDegrees>-4.6891006641089916229248046875</LongitudeDegrees>
            </Position>
            <AltitudeMeters>30.799999237060546875</AltitudeMeters>
            <DistanceMeters>NAN</DistanceMeters>
          </Trackpoint>
          <Trackpoint>
            <Time>2022-07-15T15:36:37.000Z</Time>
            <Position>
              <LatitudeDegrees>43.40706749819219112396240234375</LatitudeDegrees>
              <LongitudeDegrees>-4.68911902047693729400634765625</LongitudeDegrees>
            </Position>
            <AltitudeMeters>31</AltitudeMeters>
            <DistanceMeters>NAN</DistanceMeters>
          </Trackpoint>
          <Trackpoint>
            <Time>2022-07-15T15:36:43.000Z</Time>
            <Position>
              <LatitudeDegrees>43.40704218484461307525634765625</LatitudeDegrees>
              <LongitudeDegrees>-4.68923251144587993621826171875</LongitudeDegrees>
            </Position>
            <AltitudeMeters>31.799999237060546875</AltitudeMeters>
            <DistanceMeters>NAN</DistanceMeters>
          </Trackpoint>
          <Trackpoint>
            <Time>2022-07-15T15:36:44.000Z</Time>
            <Position>
              <LatitudeDegrees>43.40703799389302730560302734375</LatitudeDegrees>
              <LongitudeDegrees>-4.68925229273736476898193359375</LongitudeDegrees>
            </Position>
            <AltitudeMeters>31.799999237060546875</AltitudeMeters>
            <DistanceMeters>NAN</DistanceMeters>
          </Trackpoint>
          <Trackpoint>
            <Time>2022-07-15T15:36:48.000Z</Time>
            <Position>
              <LatitudeDegrees>43.4070278517901897430419921875</LatitudeDegrees>
              <LongitudeDegrees>-4.689331166446208953857421875</LongitudeDegrees>
            </Position>
            <AltitudeMeters>32.799999237060546875</AltitudeMeters>
            <DistanceMeters>NAN</DistanceMeters>
          </Trackpoint>
          <Trackpoint>
            <Time>2022-07-15T15:36:49.000Z</Time>
            <Position>
              <LatitudeDegrees>43.40702944435179233551025390625</LatitudeDegrees>
              <LongitudeDegrees>-4.6893484331667423248291015625</LongitudeDegrees>
            </Position>
            <AltitudeMeters>33</AltitudeMeters>
            <DistanceMeters>NAN</DistanceMeters>
          </Trackpoint>
          <Trackpoint>
            <Time>2022-07-15T15:36:51.000Z</Time>
            <Position>
              <LatitudeDegrees>43.40703112073242664337158203125</LatitudeDegrees>
              <LongitudeDegrees>-4.689388833940029144287109375</LongitudeDegrees>
            </Position>
            <AltitudeMeters>33.200000762939453125</AltitudeMeters>
            <DistanceMeters>NAN</DistanceMeters>
          </Trackpoint>
          <Trackpoint>
            <Time>2022-07-15T15:36:56.000Z</Time>
            <Position>
              <LatitudeDegrees>43.40701703913509845733642578125</LatitudeDegrees>
              <LongitudeDegrees>-4.68948933295905590057373046875</LongitudeDegrees>
            </Position>
            <AltitudeMeters>34</AltitudeMeters>
            <DistanceMeters>NAN</DistanceMeters>
          </Trackpoint>
          <Trackpoint>
            <Time>2022-07-15T15:37:00.000Z</Time>
            <Position>
              <LatitudeDegrees>43.407016955316066741943359375</LatitudeDegrees>
              <LongitudeDegrees>-4.68957248143851757049560546875</LongitudeDegrees>
            </Position>
            <AltitudeMeters>34.40000152587890625</AltitudeMeters>
            <DistanceMeters>NAN</DistanceMeters>
          </Trackpoint>
          <Trackpoint>
            <Time>2022-07-15T15:37:01.000Z</Time>
            <Position>
              <LatitudeDegrees>43.40701418928802013397216796875</LatitudeDegrees>
              <LongitudeDegrees>-4.68959100544452667236328125</LongitudeDegrees>
            </Position>
            <AltitudeMeters>34.59999847412109375</AltitudeMeters>
            <DistanceMeters>NAN</DistanceMeters>
          </Trackpoint>
          <Trackpoint>
            <Time>2022-07-15T15:37:04.000Z</Time>
            <Position>
              <LatitudeDegrees>43.4069976769387722015380859375</LatitudeDegrees>
              <LongitudeDegrees>-4.689646326005458831787109375</LongitudeDegrees>
            </Position>
            <AltitudeMeters>35</AltitudeMeters>
            <DistanceMeters>NAN</DistanceMeters>
          </Trackpoint>
          <Trackpoint>
            <Time>2022-07-15T15:37:10.000Z</Time>
            <Position>
              <LatitudeDegrees>43.4069956652820110321044921875</LatitudeDegrees>
              <LongitudeDegrees>-4.6897507645189762115478515625</LongitudeDegrees>
            </Position>
            <AltitudeMeters>35.59999847412109375</AltitudeMeters>
            <DistanceMeters>NAN</DistanceMeters>
          </Trackpoint>
          <Trackpoint>
            <Time>2022-07-15T15:37:11.000Z</Time>
            <Position>
              <LatitudeDegrees>43.40699641965329647064208984375</LatitudeDegrees>
              <LongitudeDegrees>-4.689756967127323150634765625</LongitudeDegrees>
            </Position>
            <AltitudeMeters>35.59999847412109375</AltitudeMeters>
            <DistanceMeters>NAN</DistanceMeters>
          </Trackpoint>
          <Trackpoint>
            <Time>2022-07-15T15:37:13.000Z</Time>
            <Position>
              <LatitudeDegrees>43.40699641965329647064208984375</LatitudeDegrees>
              <LongitudeDegrees>-4.689756967127323150634765625</LongitudeDegrees>
            </Position>
            <AltitudeMeters>35.59999847412109375</AltitudeMeters>
            <DistanceMeters>NAN</DistanceMeters>
          </Trackpoint>
          <Trackpoint>
            <Time>2022-07-15T15:37:46.000Z</Time>
            <Position>
              <LatitudeDegrees>43.4069916419684886932373046875</LatitudeDegrees>
              <LongitudeDegrees>-4.68978320248425006866455078125</LongitudeDegrees>
            </Position>
            <AltitudeMeters>35</AltitudeMeters>
            <DistanceMeters>NAN</DistanceMeters>
          </Trackpoint>
          <Trackpoint>
            <Time>2022-07-15T15:37:47.000Z</Time>
            <Position>
              <LatitudeDegrees>43.4069864451885223388671875</LatitudeDegrees>
              <LongitudeDegrees>-4.68981094658374786376953125</LongitudeDegrees>
            </Position>
            <AltitudeMeters>35</AltitudeMeters>
            <DistanceMeters>NAN</DistanceMeters>
          </Trackpoint>
          <Trackpoint>
            <Time>2022-07-15T15:37:48.000Z</Time>
            <Position>
              <LatitudeDegrees>43.40697982348501682281494140625</LatitudeDegrees>
              <LongitudeDegrees>-4.689842797815799713134765625</LongitudeDegrees>
            </Position>
            <AltitudeMeters>34.799999237060546875</AltitudeMeters>
            <DistanceMeters>NAN</DistanceMeters>
          </Trackpoint>
          <Trackpoint>
            <Time>2022-07-15T15:37:51.000Z</Time>
            <Position>
              <LatitudeDegrees>43.40692634694278240203857421875</LatitudeDegrees>
              <LongitudeDegrees>-4.68998738564550876617431640625</LongitudeDegrees>
            </Position>
            <AltitudeMeters>34.40000152587890625</AltitudeMeters>
            <DistanceMeters>NAN</DistanceMeters>
          </Trackpoint>
          <Trackpoint>
            <Time>2022-07-15T15:37:52.000Z</Time>
            <Position>
              <LatitudeDegrees>43.406898267567157745361328125</LatitudeDegrees>
              <LongitudeDegrees>-4.69003356993198394775390625</LongitudeDegrees>
            </Position>
            <AltitudeMeters>33.799999237060546875</AltitudeMeters>
            <DistanceMeters>NAN</DistanceMeters>
          </Trackpoint>
          <Trackpoint>
            <Time>2022-07-15T15:37:55.000Z</Time>
            <Position>
              <LatitudeDegrees>43.4067799150943756103515625</LatitudeDegrees>
              <LongitudeDegrees>-4.69017505645751953125</LongitudeDegrees>
            </Position>
            <AltitudeMeters>32.59999847412109375</AltitudeMeters>
            <DistanceMeters>NAN</DistanceMeters>
          </Trackpoint>
          <Trackpoint>
            <Time>2022-07-15T15:37:57.000Z</Time>
            <Position>
              <LatitudeDegrees>43.40671277604997158050537109375</LatitudeDegrees>
              <LongitudeDegrees>-4.69024722464382648468017578125</LongitudeDegrees>
            </Position>
            <AltitudeMeters>32.40000152587890625</AltitudeMeters>
            <DistanceMeters>NAN</DistanceMeters>
          </Trackpoint>
          <Trackpoint>
            <Time>2022-07-15T15:38:00.000Z</Time>
            <Position>
              <LatitudeDegrees>43.40668670833110809326171875</LatitudeDegrees>
              <LongitudeDegrees>-4.6903244219720363616943359375</LongitudeDegrees>
            </Position>
            <AltitudeMeters>32.40000152587890625</AltitudeMeters>
            <DistanceMeters>NAN</DistanceMeters>
          </Trackpoint>
          <Trackpoint>
            <Time>2022-07-15T15:38:06.000Z</Time>
            <Position>
              <LatitudeDegrees>43.4066872112452983856201171875</LatitudeDegrees>
              <LongitudeDegrees>-4.6905832551419734954833984375</LongitudeDegrees>
            </Position>
            <AltitudeMeters>32.200000762939453125</AltitudeMeters>
            <DistanceMeters>NAN</DistanceMeters>
          </Trackpoint>
          <Trackpoint>
            <Time>2022-07-15T15:38:08.000Z</Time>
            <Position>
              <LatitudeDegrees>43.40669601224362850189208984375</LatitudeDegrees>
              <LongitudeDegrees>-4.69073840416967868804931640625</LongitudeDegrees>
            </Position>
            <AltitudeMeters>31.200000762939453125</AltitudeMeters>
            <DistanceMeters>NAN</DistanceMeters>
          </Trackpoint>
          <Trackpoint>
            <Time>2022-07-15T15:38:10.000Z</Time>
            <Position>
              <LatitudeDegrees>43.40672216378152370452880859375</LatitudeDegrees>
              <LongitudeDegrees>-4.69088978134095668792724609375</LongitudeDegrees>
            </Position>
            <AltitudeMeters>30.6000003814697265625</AltitudeMeters>
            <DistanceMeters>NAN</DistanceMeters>
          </Trackpoint>
          <Trackpoint>
            <Time>2022-07-15T15:38:11.000Z</Time>
            <Position>
              <LatitudeDegrees>43.40673238970339298248291015625</LatitudeDegrees>
              <LongitudeDegrees>-4.6909517236053943634033203125</LongitudeDegrees>
            </Position>
            <AltitudeMeters>30.3999996185302734375</AltitudeMeters>
            <DistanceMeters>NAN</DistanceMeters>
          </Trackpoint>
          <Trackpoint>
            <Time>2022-07-15T15:38:13.000Z</Time>
            <Position>
              <LatitudeDegrees>43.40671445243060588836669921875</LatitudeDegrees>
              <LongitudeDegrees>-4.6910476125776767730712890625</LongitudeDegrees>
            </Position>
            <AltitudeMeters>30</AltitudeMeters>
            <DistanceMeters>NAN</DistanceMeters>
          </Trackpoint>
          <Trackpoint>
            <Time>2022-07-15T15:38:15.000Z</Time>
            <Position>
              <LatitudeDegrees>43.406670950353145599365234375</LatitudeDegrees>
              <LongitudeDegrees>-4.6911170147359371185302734375</LongitudeDegrees>
            </Position>
            <AltitudeMeters>30</AltitudeMeters>
            <DistanceMeters>NAN</DistanceMeters>
          </Trackpoint>
          <Trackpoint>
            <Time>2022-07-15T15:38:17.000Z</Time>
            <Position>
              <LatitudeDegrees>43.40663247741758823394775390625</LatitudeDegrees>
              <LongitudeDegrees>-4.691166467964649200439453125</LongitudeDegrees>
            </Position>
            <AltitudeMeters>30</AltitudeMeters>
            <DistanceMeters>NAN</DistanceMeters>
          </Trackpoint>
          <Trackpoint>
            <Time>2022-07-15T15:38:20.000Z</Time>
            <Position>
              <LatitudeDegrees>43.40658352710306644439697265625</LatitudeDegrees>
              <LongitudeDegrees>-4.69122455455362796783447265625</LongitudeDegrees>
            </Position>
            <AltitudeMeters>30</AltitudeMeters>
            <DistanceMeters>NAN</DistanceMeters>
          </Trackpoint>
          <Trackpoint>
            <Time>2022-07-15T15:38:22.000Z</Time>
            <Position>
              <LatitudeDegrees>43.40655603446066379547119140625</LatitudeDegrees>
              <LongitudeDegrees>-4.6912601776421070098876953125</LongitudeDegrees>
            </Position>
            <AltitudeMeters>30.200000762939453125</AltitudeMeters>
            <DistanceMeters>NAN</DistanceMeters>
          </Trackpoint>
          <Trackpoint>
            <Time>2022-07-15T15:38:23.000Z</Time>
            <Position>
              <LatitudeDegrees>43.40655351988971233367919921875</LatitudeDegrees>
              <LongitudeDegrees>-4.6912682242691516876220703125</LongitudeDegrees>
            </Position>
            <AltitudeMeters>30.200000762939453125</AltitudeMeters>
            <DistanceMeters>NAN</DistanceMeters>
          </Trackpoint>
          <Trackpoint>
            <Time>2022-07-15T15:38:25.000Z</Time>
            <Position>
              <LatitudeDegrees>43.40655351988971233367919921875</LatitudeDegrees>
              <LongitudeDegrees>-4.6912682242691516876220703125</LongitudeDegrees>
            </Position>
            <AltitudeMeters>30.200000762939453125</AltitudeMeters>
            <DistanceMeters>NAN</DistanceMeters>
          </Trackpoint>
          <Trackpoint>
            <Time>2022-07-15T15:39:30.000Z</Time>
            <Position>
              <LatitudeDegrees>43.4064902365207672119140625</LatitudeDegrees>
              <LongitudeDegrees>-4.69131038524210453033447265625</LongitudeDegrees>
            </Position>
            <AltitudeMeters>30.799999237060546875</AltitudeMeters>
            <DistanceMeters>NAN</DistanceMeters>
          </Trackpoint>
          <Trackpoint>
            <Time>2022-07-15T15:39:31.000Z</Time>
            <Position>
              <LatitudeDegrees>43.406471796333789825439453125</LatitudeDegrees>
              <LongitudeDegrees>-4.6912903524935245513916015625</LongitudeDegrees>
            </Position>
            <AltitudeMeters>31.200000762939453125</AltitudeMeters>
            <DistanceMeters>NAN</DistanceMeters>
          </Trackpoint>
          <Trackpoint>
            <Time>2022-07-15T15:39:38.000Z</Time>
            <Position>
              <LatitudeDegrees>43.40637029148638248443603515625</LatitudeDegrees>
              <LongitudeDegrees>-4.69110318459570407867431640625</LongitudeDegrees>
            </Position>
            <AltitudeMeters>32.200000762939453125</AltitudeMeters>
            <DistanceMeters>NAN</DistanceMeters>
          </Trackpoint>
          <Trackpoint>
            <Time>2022-07-15T15:39:39.000Z</Time>
            <Position>
              <LatitudeDegrees>43.406359143555164337158203125</LatitudeDegrees>
              <LongitudeDegrees>-4.6910710819065570831298828125</LongitudeDegrees>
            </Position>
            <AltitudeMeters>32.200000762939453125</AltitudeMeters>
            <DistanceMeters>NAN</DistanceMeters>
          </Trackpoint>
          <Trackpoint>
            <Time>2022-07-15T15:39:45.000Z</Time>
            <Position>
              <LatitudeDegrees>43.4062875621020793914794921875</LatitudeDegrees>
              <LongitudeDegrees>-4.6909272484481334686279296875</LongitudeDegrees>
            </Position>
            <AltitudeMeters>33.200000762939453125</AltitudeMeters>
            <DistanceMeters>NAN</DistanceMeters>
          </Trackpoint>
          <Trackpoint>
            <Time>2022-07-15T15:39:47.000Z</Time>
            <Position>
              <LatitudeDegrees>43.4062530286610126495361328125</LatitudeDegrees>
              <LongitudeDegrees>-4.69089925289154052734375</LongitudeDegrees>
            </Position>
            <AltitudeMeters>33.40000152587890625</AltitudeMeters>
            <DistanceMeters>NAN</DistanceMeters>
          </Trackpoint>
          <Trackpoint>
            <Time>2022-07-15T15:39:50.000Z</Time>
            <Position>
              <LatitudeDegrees>43.4061846323311328887939453125</LatitudeDegrees>
              <LongitudeDegrees>-4.69089648686349391937255859375</LongitudeDegrees>
            </Position>
            <AltitudeMeters>33.40000152587890625</AltitudeMeters>
            <DistanceMeters>NAN</DistanceMeters>
          </Trackpoint>
          <Trackpoint>
            <Time>2022-07-15T15:39:57.000Z</Time>
            <Position>
              <LatitudeDegrees>43.406065441668033599853515625</LatitudeDegrees>
              <LongitudeDegrees>-4.690974019467830657958984375</LongitudeDegrees>
            </Position>
            <AltitudeMeters>34.40000152587890625</AltitudeMeters>
            <DistanceMeters>NAN</DistanceMeters>
          </Trackpoint>
          <Trackpoint>
            <Time>2022-07-15T15:40:04.000Z</Time>
            <Position>
              <LatitudeDegrees>43.405978269875049591064453125</LatitudeDegrees>
              <LongitudeDegrees>-4.6910399012267589569091796875</LongitudeDegrees>
            </Position>
            <AltitudeMeters>35.59999847412109375</AltitudeMeters>
            <DistanceMeters>NAN</DistanceMeters>
          </Trackpoint>
          <Trackpoint>
            <Time>2022-07-15T15:40:05.000Z</Time>
            <Position>
              <LatitudeDegrees>43.40596259571611881256103515625</LatitudeDegrees>
              <LongitudeDegrees>-4.69105322845280170440673828125</LongitudeDegrees>
            </Position>
            <AltitudeMeters>35.59999847412109375</AltitudeMeters>
            <DistanceMeters>NAN</DistanceMeters>
          </Trackpoint>
          <Trackpoint>
            <Time>2022-07-15T15:40:11.000Z</Time>
            <Position>
              <LatitudeDegrees>43.40590157546103000640869140625</LatitudeDegrees>
              <LongitudeDegrees>-4.69113604165613651275634765625</LongitudeDegrees>
            </Position>
            <AltitudeMeters>36.59999847412109375</AltitudeMeters>
            <DistanceMeters>NAN</DistanceMeters>
          </Trackpoint>
          <Trackpoint>
            <Time>2022-07-15T15:40:13.000Z</Time>
            <Position>
              <LatitudeDegrees>43.40587777085602283477783203125</LatitudeDegrees>
              <LongitudeDegrees>-4.691163115203380584716796875</LongitudeDegrees>
            </Position>
            <AltitudeMeters>36.59999847412109375</AltitudeMeters>
            <DistanceMeters>NAN</DistanceMeters>
          </Trackpoint>
          <Trackpoint>
            <Time>2022-07-15T15:40:14.000Z</Time>
            <Position>
              <LatitudeDegrees>43.4058614261448383331298828125</LatitudeDegrees>
              <LongitudeDegrees>-4.69117694534361362457275390625</LongitudeDegrees>
            </Position>
            <AltitudeMeters>36.59999847412109375</AltitudeMeters>
            <DistanceMeters>NAN</DistanceMeters>
          </Trackpoint>
          <Trackpoint>
            <Time>2022-07-15T15:40:16.000Z</Time>
            <Position>
              <LatitudeDegrees>43.40582127682864665985107421875</LatitudeDegrees>
              <LongitudeDegrees>-4.6912226267158985137939453125</LongitudeDegrees>
            </Position>
            <AltitudeMeters>36.59999847412109375</AltitudeMeters>
            <DistanceMeters>NAN</DistanceMeters>
          </Trackpoint>
          <Trackpoint>
            <Time>2022-07-15T15:40:19.000Z</Time>
            <Position>
              <LatitudeDegrees>43.4057628549635410308837890625</LatitudeDegrees>
              <LongitudeDegrees>-4.6913537196815013885498046875</LongitudeDegrees>
            </Position>
            <AltitudeMeters>36.40000152587890625</AltitudeMeters>
            <DistanceMeters>NAN</DistanceMeters>
          </Trackpoint>
          <Trackpoint>
            <Time>2022-07-15T15:40:23.000Z</Time>
            <Position>
              <LatitudeDegrees>43.40565196238458156585693359375</LatitudeDegrees>
              <LongitudeDegrees>-4.6915267221629619598388671875</LongitudeDegrees>
            </Position>
            <AltitudeMeters>36</AltitudeMeters>
            <DistanceMeters>NAN</DistanceMeters>
          </Trackpoint>
          <Trackpoint>
            <Time>2022-07-15T15:40:24.000Z</Time>
            <Position>
              <LatitudeDegrees>43.4056220389902591705322265625</LatitudeDegrees>
              <LongitudeDegrees>-4.69156888313591480255126953125</LongitudeDegrees>
            </Position>
            <AltitudeMeters>36</AltitudeMeters>
            <DistanceMeters>NAN</DistanceMeters>
          </Trackpoint>
          <Trackpoint>
            <Time>2022-07-15T15:40:26.000Z</Time>
            <Position>
              <LatitudeDegrees>43.4055751003324985504150390625</LatitudeDegrees>
              <LongitudeDegrees>-4.69164465554058551788330078125</LongitudeDegrees>
            </Position>
            <AltitudeMeters>35.799999237060546875</AltitudeMeters>
            <DistanceMeters>NAN</DistanceMeters>
          </Trackpoint>
          <Trackpoint>
            <Time>2022-07-15T15:40:29.000Z</Time>
            <Position>
              <LatitudeDegrees>43.40552690438926219940185546875</LatitudeDegrees>
              <LongitudeDegrees>-4.6917285583913326263427734375</LongitudeDegrees>
            </Position>
            <AltitudeMeters>35.799999237060546875</AltitudeMeters>
            <DistanceMeters>NAN</DistanceMeters>
          </Trackpoint>
          <Trackpoint>
            <Time>2022-07-15T15:40:34.000Z</Time>
            <Position>
              <LatitudeDegrees>43.40547024272382259368896484375</LatitudeDegrees>
              <LongitudeDegrees>-4.6918125450611114501953125</LongitudeDegrees>
            </Position>
            <AltitudeMeters>36.40000152587890625</AltitudeMeters>
            <DistanceMeters>NAN</DistanceMeters>
          </Trackpoint>
          <Trackpoint>
            <Time>2022-07-15T15:40:35.000Z</Time>
            <Position>
              <LatitudeDegrees>43.4054575860500335693359375</LatitudeDegrees>
              <LongitudeDegrees>-4.6918221004307270050048828125</LongitudeDegrees>
            </Position>
            <AltitudeMeters>36.40000152587890625</AltitudeMeters>
            <DistanceMeters>NAN</DistanceMeters>
          </Trackpoint>
          <Trackpoint>
            <Time>2022-07-15T15:40:40.000Z</Time>
            <Position>
              <LatitudeDegrees>43.40538742952048778533935546875</LatitudeDegrees>
              <LongitudeDegrees>-4.6918817795813083648681640625</LongitudeDegrees>
            </Position>
            <AltitudeMeters>37.40000152587890625</AltitudeMeters>
            <DistanceMeters>NAN</DistanceMeters>
          </Trackpoint>
          <Trackpoint>
            <Time>2022-07-15T15:40:41.000Z</Time>
            <Position>
              <LatitudeDegrees>43.4053769521415233612060546875</LatitudeDegrees>
              <LongitudeDegrees>-4.6918951906263828277587890625</LongitudeDegrees>
            </Position>
            <AltitudeMeters>37.59999847412109375</AltitudeMeters>
            <DistanceMeters>NAN</DistanceMeters>
          </Trackpoint>
          <Trackpoint>
            <Time>2022-07-15T15:40:45.000Z</Time>
            <Position>
              <LatitudeDegrees>43.40532272122800350189208984375</LatitudeDegrees>
              <LongitudeDegrees>-4.69194456003606319427490234375</LongitudeDegrees>
            </Position>
            <AltitudeMeters>38.200000762939453125</AltitudeMeters>
            <DistanceMeters>NAN</DistanceMeters>
          </Trackpoint>
          <Trackpoint>
            <Time>2022-07-15T15:40:49.000Z</Time>
            <Position>
              <LatitudeDegrees>43.405295312404632568359375</LatitudeDegrees>
              <LongitudeDegrees>-4.69200423918664455413818359375</LongitudeDegrees>
            </Position>
            <AltitudeMeters>38.799999237060546875</AltitudeMeters>
            <DistanceMeters>NAN</DistanceMeters>
          </Trackpoint>
          <Trackpoint>
            <Time>2022-07-15T15:40:51.000Z</Time>
            <Position>
              <LatitudeDegrees>43.40527586638927459716796875</LatitudeDegrees>
              <LongitudeDegrees>-4.69202779233455657958984375</LongitudeDegrees>
            </Position>
            <AltitudeMeters>39.40000152587890625</AltitudeMeters>
            <DistanceMeters>NAN</DistanceMeters>
          </Trackpoint>
          <Trackpoint>
            <Time>2022-07-15T15:40:54.000Z</Time>
            <Position>
              <LatitudeDegrees>43.40524577535688877105712890625</LatitudeDegrees>
              <LongitudeDegrees>-4.69207179732620716094970703125</LongitudeDegrees>
            </Position>
            <AltitudeMeters>39.799999237060546875</AltitudeMeters>
            <DistanceMeters>NAN</DistanceMeters>
          </Trackpoint>
          <Trackpoint>
            <Time>2022-07-15T15:40:56.000Z</Time>
            <Position>
              <LatitudeDegrees>43.40522892773151397705078125</LatitudeDegrees>
              <LongitudeDegrees>-4.69208453781902790069580078125</LongitudeDegrees>
            </Position>
            <AltitudeMeters>40</AltitudeMeters>
            <DistanceMeters>NAN</DistanceMeters>
          </Trackpoint>
          <Trackpoint>
            <Time>2022-07-15T15:40:57.000Z</Time>
            <Position>
              <LatitudeDegrees>43.4052233956754207611083984375</LatitudeDegrees>
              <LongitudeDegrees>-4.69208319671452045440673828125</LongitudeDegrees>
            </Position>
            <AltitudeMeters>40.200000762939453125</AltitudeMeters>
            <DistanceMeters>NAN</DistanceMeters>
          </Trackpoint>
          <Trackpoint>
            <Time>2022-07-15T15:41:02.000Z</Time>
            <Position>
              <LatitudeDegrees>43.4051674045622348785400390625</LatitudeDegrees>
              <LongitudeDegrees>-4.692030139267444610595703125</LongitudeDegrees>
            </Position>
            <AltitudeMeters>40.799999237060546875</AltitudeMeters>
            <DistanceMeters>NAN</DistanceMeters>
          </Trackpoint>
          <Trackpoint>
            <Time>2022-07-15T15:41:03.000Z</Time>
            <Position>
              <LatitudeDegrees>43.40513999573886394500732421875</LatitudeDegrees>
              <LongitudeDegrees>-4.69202284701168537139892578125</LongitudeDegrees>
            </Position>
            <AltitudeMeters>40.799999237060546875</AltitudeMeters>
            <DistanceMeters>NAN</DistanceMeters>
          </Trackpoint>
          <Trackpoint>
            <Time>2022-07-15T15:41:07.000Z</Time>
            <Position>
              <LatitudeDegrees>43.40505735017359256744384765625</LatitudeDegrees>
              <LongitudeDegrees>-4.69198294915258884429931640625</LongitudeDegrees>
            </Position>
            <AltitudeMeters>41</AltitudeMeters>
            <DistanceMeters>NAN</DistanceMeters>
          </Trackpoint>
          <Trackpoint>
            <Time>2022-07-15T15:41:14.000Z</Time>
            <Position>
              <LatitudeDegrees>43.4049394167959690093994140625</LatitudeDegrees>
              <LongitudeDegrees>-4.6919018961489200592041015625</LongitudeDegrees>
            </Position>
            <AltitudeMeters>41.59999847412109375</AltitudeMeters>
            <DistanceMeters>NAN</DistanceMeters>
          </Trackpoint>
          <Trackpoint>
            <Time>2022-07-15T15:41:17.000Z</Time>
            <Position>
              <LatitudeDegrees>43.4048619680106639862060546875</LatitudeDegrees>
              <LongitudeDegrees>-4.69188831746578216552734375</LongitudeDegrees>
            </Position>
            <AltitudeMeters>42</AltitudeMeters>
            <DistanceMeters>NAN</DistanceMeters>
          </Trackpoint>
          <Trackpoint>
            <Time>2022-07-15T15:41:21.000Z</Time>
            <Position>
              <LatitudeDegrees>43.40478233993053436279296875</LatitudeDegrees>
              <LongitudeDegrees>-4.69189141876995563507080078125</LongitudeDegrees>
            </Position>
            <AltitudeMeters>42.59999847412109375</AltitudeMeters>
            <DistanceMeters>NAN</DistanceMeters>
          </Trackpoint>
          <Trackpoint>
            <Time>2022-07-15T15:41:22.000Z</Time>
            <Position>
              <LatitudeDegrees>43.40476565994322299957275390625</LatitudeDegrees>
              <LongitudeDegrees>-4.69190784730017185211181640625</LongitudeDegrees>
            </Position>
            <AltitudeMeters>42.799999237060546875</AltitudeMeters>
            <DistanceMeters>NAN</DistanceMeters>
          </Trackpoint>
          <Trackpoint>
            <Time>2022-07-15T15:41:23.000Z</Time>
            <Position>
              <LatitudeDegrees>43.40474688448011875152587890625</LatitudeDegrees>
              <LongitudeDegrees>-4.69191874377429485321044921875</LongitudeDegrees>
            </Position>
            <AltitudeMeters>43</AltitudeMeters>
            <DistanceMeters>NAN</DistanceMeters>
          </Trackpoint>
          <Trackpoint>
            <Time>2022-07-15T15:41:30.000Z</Time>
            <Position>
              <LatitudeDegrees>43.40461746789515018463134765625</LatitudeDegrees>
              <LongitudeDegrees>-4.6920024789869785308837890625</LongitudeDegrees>
            </Position>
            <AltitudeMeters>43.799999237060546875</AltitudeMeters>
            <DistanceMeters>NAN</DistanceMeters>
          </Trackpoint>
          <Trackpoint>
            <Time>2022-07-15T15:41:33.000Z</Time>
            <Position>
              <LatitudeDegrees>43.40457312762737274169921875</LatitudeDegrees>
              <LongitudeDegrees>-4.692033492028713226318359375</LongitudeDegrees>
            </Position>
            <AltitudeMeters>44.200000762939453125</AltitudeMeters>
            <DistanceMeters>NAN</DistanceMeters>
          </Trackpoint>
          <Trackpoint>
            <Time>2022-07-15T15:41:39.000Z</Time>
            <Position>
              <LatitudeDegrees>43.40451034717261791229248046875</LatitudeDegrees>
              <LongitudeDegrees>-4.69215427525341510772705078125</LongitudeDegrees>
            </Position>
            <AltitudeMeters>45</AltitudeMeters>
            <DistanceMeters>NAN</DistanceMeters>
          </Trackpoint>
          <Trackpoint>
            <Time>2022-07-15T15:41:41.000Z</Time>
            <Position>
              <LatitudeDegrees>43.40449668467044830322265625</LatitudeDegrees>
              <LongitudeDegrees>-4.69220171682536602020263671875</LongitudeDegrees>
            </Position>
            <AltitudeMeters>45.40000152587890625</AltitudeMeters>
            <DistanceMeters>NAN</DistanceMeters>
          </Trackpoint>
          <Trackpoint>
            <Time>2022-07-15T15:41:44.000Z</Time>
            <Position>
              <LatitudeDegrees>43.40448369272053241729736328125</LatitudeDegrees>
              <LongitudeDegrees>-4.69227866269648075103759765625</LongitudeDegrees>
            </Position>
            <AltitudeMeters>45.40000152587890625</AltitudeMeters>
            <DistanceMeters>NAN</DistanceMeters>
          </Trackpoint>
          <Trackpoint>
            <Time>2022-07-15T15:41:50.000Z</Time>
            <Position>
              <LatitudeDegrees>43.40446290560066699981689453125</LatitudeDegrees>
              <LongitudeDegrees>-4.6924155391752719879150390625</LongitudeDegrees>
            </Position>
            <AltitudeMeters>46.200000762939453125</AltitudeMeters>
            <DistanceMeters>NAN</DistanceMeters>
          </Trackpoint>
          <Trackpoint>
            <Time>2022-07-15T15:41:51.000Z</Time>
            <Position>
              <LatitudeDegrees>43.4044586308300495147705078125</LatitudeDegrees>
              <LongitudeDegrees>-4.692439846694469451904296875</LongitudeDegrees>
            </Position>
            <AltitudeMeters>46.200000762939453125</AltitudeMeters>
            <DistanceMeters>NAN</DistanceMeters>
          </Trackpoint>
          <Trackpoint>
            <Time>2022-07-15T15:41:52.000Z</Time>
            <Position>
              <LatitudeDegrees>43.40445854701101779937744140625</LatitudeDegrees>
              <LongitudeDegrees>-4.6924670040607452392578125</LongitudeDegrees>
            </Position>
            <AltitudeMeters>46.40000152587890625</AltitudeMeters>
            <DistanceMeters>NAN</DistanceMeters>
          </Trackpoint>
          <Trackpoint>
            <Time>2022-07-15T15:41:57.000Z</Time>
            <Position>
              <LatitudeDegrees>43.40441948734223842620849609375</LatitudeDegrees>
              <LongitudeDegrees>-4.69258225522935390472412109375</LongitudeDegrees>
            </Position>
            <AltitudeMeters>47</AltitudeMeters>
            <DistanceMeters>NAN</DistanceMeters>
          </Trackpoint>
          <Trackpoint>
            <Time>2022-07-15T15:42:01.000Z</Time>
            <Position>
              <LatitudeDegrees>43.4043701179325580596923828125</LatitudeDegrees>
              <LongitudeDegrees>-4.6926918067038059234619140625</LongitudeDegrees>
            </Position>
            <AltitudeMeters>47.200000762939453125</AltitudeMeters>
            <DistanceMeters>NAN</DistanceMeters>
          </Trackpoint>
          <Trackpoint>
            <Time>2022-07-15T15:42:03.000Z</Time>
            <Position>
              <LatitudeDegrees>43.4043453074991703033447265625</LatitudeDegrees>
              <LongitudeDegrees>-4.6927377395331859588623046875</LongitudeDegrees>
            </Position>
            <AltitudeMeters>47.200000762939453125</AltitudeMeters>
            <DistanceMeters>NAN</DistanceMeters>
          </Trackpoint>
          <Trackpoint>
            <Time>2022-07-15T15:42:07.000Z</Time>
            <Position>
              <LatitudeDegrees>43.4043406136333942413330078125</LatitudeDegrees>
              <LongitudeDegrees>-4.692846871912479400634765625</LongitudeDegrees>
            </Position>
            <AltitudeMeters>47.40000152587890625</AltitudeMeters>
            <DistanceMeters>NAN</DistanceMeters>
          </Trackpoint>
          <Trackpoint>
            <Time>2022-07-15T15:42:08.000Z</Time>
            <Position>
              <LatitudeDegrees>43.40434991754591464996337890625</LatitudeDegrees>
              <LongitudeDegrees>-4.69287914223968982696533203125</LongitudeDegrees>
            </Position>
            <AltitudeMeters>47.40000152587890625</AltitudeMeters>
            <DistanceMeters>NAN</DistanceMeters>
          </Trackpoint>
          <Trackpoint>
            <Time>2022-07-15T15:42:09.000Z</Time>
            <Position>
              <LatitudeDegrees>43.40435796417295932769775390625</LatitudeDegrees>
              <LongitudeDegrees>-4.69290512613952159881591796875</LongitudeDegrees>
            </Position>
            <AltitudeMeters>47.40000152587890625</AltitudeMeters>
            <DistanceMeters>NAN</DistanceMeters>
          </Trackpoint>
          <Trackpoint>
            <Time>2022-07-15T15:42:12.000Z</Time>
            <Position>
              <LatitudeDegrees>43.4043892286717891693115234375</LatitudeDegrees>
              <LongitudeDegrees>-4.6930240653455257415771484375</LongitudeDegrees>
            </Position>
            <AltitudeMeters>47.40000152587890625</AltitudeMeters>
            <DistanceMeters>NAN</DistanceMeters>
          </Trackpoint>
          <Trackpoint>
            <Time>2022-07-15T15:42:13.000Z</Time>
            <Position>
              <LatitudeDegrees>43.40440054424107074737548828125</LatitudeDegrees>
              <LongitudeDegrees>-4.6930642984807491302490234375</LongitudeDegrees>
            </Position>
            <AltitudeMeters>47.40000152587890625</AltitudeMeters>
            <DistanceMeters>NAN</DistanceMeters>
          </Trackpoint>
          <Trackpoint>
            <Time>2022-07-15T15:42:18.000Z</Time>
            <Position>
              <LatitudeDegrees>43.40439685620367527008056640625</LatitudeDegrees>
              <LongitudeDegrees>-4.693259932100772857666015625</LongitudeDegrees>
            </Position>
            <AltitudeMeters>47.59999847412109375</AltitudeMeters>
            <DistanceMeters>NAN</DistanceMeters>
          </Trackpoint>
          <Trackpoint>
            <Time>2022-07-15T15:42:23.000Z</Time>
            <Position>
              <LatitudeDegrees>43.404336757957935333251953125</LatitudeDegrees>
              <LongitudeDegrees>-4.6934461779892444610595703125</LongitudeDegrees>
            </Position>
            <AltitudeMeters>47.59999847412109375</AltitudeMeters>
            <DistanceMeters>NAN</DistanceMeters>
          </Trackpoint>
          <Trackpoint>
            <Time>2022-07-15T15:42:28.000Z</Time>
            <Position>
              <LatitudeDegrees>43.40430046431720256805419921875</LatitudeDegrees>
              <LongitudeDegrees>-4.6935833059251308441162109375</LongitudeDegrees>
            </Position>
            <AltitudeMeters>48</AltitudeMeters>
            <DistanceMeters>NAN</DistanceMeters>
          </Trackpoint>
          <Trackpoint>
            <Time>2022-07-15T15:42:31.000Z</Time>
            <Position>
              <LatitudeDegrees>43.40428068302571773529052734375</LatitudeDegrees>
              <LongitudeDegrees>-4.6936647780239582061767578125</LongitudeDegrees>
            </Position>
            <AltitudeMeters>48.59999847412109375</AltitudeMeters>
            <DistanceMeters>NAN</DistanceMeters>
          </Trackpoint>
          <Trackpoint>
            <Time>2022-07-15T15:42:34.000Z</Time>
            <Position>
              <LatitudeDegrees>43.40427246876060962677001953125</LatitudeDegrees>
              <LongitudeDegrees>-4.69374801032245159149169921875</LongitudeDegrees>
            </Position>
            <AltitudeMeters>49</AltitudeMeters>
            <DistanceMeters>NAN</DistanceMeters>
          </Trackpoint>
          <Trackpoint>
            <Time>2022-07-15T15:42:35.000Z</Time>
            <Position>
              <LatitudeDegrees>43.40427096001803874969482421875</LatitudeDegrees>
              <LongitudeDegrees>-4.693772234022617340087890625</LongitudeDegrees>
            </Position>
            <AltitudeMeters>49.200000762939453125</AltitudeMeters>
            <DistanceMeters>NAN</DistanceMeters>
          </Trackpoint>
          <Trackpoint>
            <Time>2022-07-15T15:42:37.000Z</Time>
            <Position>
              <LatitudeDegrees>43.4042712114751338958740234375</LatitudeDegrees>
              <LongitudeDegrees>-4.6938220225274562835693359375</LongitudeDegrees>
            </Position>
            <AltitudeMeters>49.40000152587890625</AltitudeMeters>
            <DistanceMeters>NAN</DistanceMeters>
          </Trackpoint>
          <Trackpoint>
            <Time>2022-07-15T15:42:38.000Z</Time>
            <Position>
              <LatitudeDegrees>43.4042728878557682037353515625</LatitudeDegrees>
              <LongitudeDegrees>-4.6938438154757022857666015625</LongitudeDegrees>
            </Position>
            <AltitudeMeters>49.59999847412109375</AltitudeMeters>
            <DistanceMeters>NAN</DistanceMeters>
          </Trackpoint>
          <Trackpoint>
            <Time>2022-07-15T15:42:41.000Z</Time>
            <Position>
              <LatitudeDegrees>43.40427129529416561126708984375</LatitudeDegrees>
              <LongitudeDegrees>-4.69393325038254261016845703125</LongitudeDegrees>
            </Position>
            <AltitudeMeters>49.799999237060546875</AltitudeMeters>
            <DistanceMeters>NAN</DistanceMeters>
          </Trackpoint>
          <Trackpoint>
            <Time>2022-07-15T15:42:44.000Z</Time>
            <Position>
              <LatitudeDegrees>43.40428076684474945068359375</LatitudeDegrees>
              <LongitudeDegrees>-4.69405126757919788360595703125</LongitudeDegrees>
            </Position>
            <AltitudeMeters>49.799999237060546875</AltitudeMeters>
            <DistanceMeters>NAN</DistanceMeters>
          </Trackpoint>
          <Trackpoint>
            <Time>2022-07-15T15:42:49.000Z</Time>
            <Position>
              <LatitudeDegrees>43.4042640030384063720703125</LatitudeDegrees>
              <LongitudeDegrees>-4.6943135373294353485107421875</LongitudeDegrees>
            </Position>
            <AltitudeMeters>48.799999237060546875</AltitudeMeters>
            <DistanceMeters>NAN</DistanceMeters>
          </Trackpoint>
          <Trackpoint>
            <Time>2022-07-15T15:42:50.000Z</Time>
            <Position>
              <LatitudeDegrees>43.404267020523548126220703125</LatitudeDegrees>
              <LongitudeDegrees>-4.6943792514503002166748046875</LongitudeDegrees>
            </Position>
            <AltitudeMeters>48.59999847412109375</AltitudeMeters>
            <DistanceMeters>NAN</DistanceMeters>
          </Trackpoint>
          <Trackpoint>
            <Time>2022-07-15T15:42:51.000Z</Time>
            <Position>
              <LatitudeDegrees>43.40426375158131122589111328125</LatitudeDegrees>
              <LongitudeDegrees>-4.69444739632308483123779296875</LongitudeDegrees>
            </Position>
            <AltitudeMeters>48.200000762939453125</AltitudeMeters>
            <DistanceMeters>NAN</DistanceMeters>
          </Trackpoint>
          <Trackpoint>
            <Time>2022-07-15T15:42:53.000Z</Time>
            <Position>
              <LatitudeDegrees>43.404229469597339630126953125</LatitudeDegrees>
              <LongitudeDegrees>-4.69459324143826961517333984375</LongitudeDegrees>
            </Position>
            <AltitudeMeters>47.59999847412109375</AltitudeMeters>
            <DistanceMeters>NAN</DistanceMeters>
          </Trackpoint>
          <Trackpoint>
            <Time>2022-07-15T15:42:55.000Z</Time>
            <Position>
              <LatitudeDegrees>43.4041862189769744873046875</LatitudeDegrees>
              <LongitudeDegrees>-4.6947078220546245574951171875</LongitudeDegrees>
            </Position>
            <AltitudeMeters>47.200000762939453125</AltitudeMeters>
            <DistanceMeters>NAN</DistanceMeters>
          </Trackpoint>
          <Trackpoint>
            <Time>2022-07-15T15:42:58.000Z</Time>
            <Position>
              <LatitudeDegrees>43.4040931798517704010009765625</LatitudeDegrees>
              <LongitudeDegrees>-4.6948503144085407257080078125</LongitudeDegrees>
            </Position>
            <AltitudeMeters>46.59999847412109375</AltitudeMeters>
            <DistanceMeters>NAN</DistanceMeters>
          </Trackpoint>
          <Trackpoint>
            <Time>2022-07-15T15:42:59.000Z</Time>
            <Position>
              <LatitudeDegrees>43.40407264418900012969970703125</LatitudeDegrees>
              <LongitudeDegrees>-4.69487638212740421295166015625</LongitudeDegrees>
            </Position>
            <AltitudeMeters>46.40000152587890625</AltitudeMeters>
            <DistanceMeters>NAN</DistanceMeters>
          </Trackpoint>
          <Trackpoint>
            <Time>2022-07-15T15:43:01.000Z</Time>
            <Position>
              <LatitudeDegrees>43.4040415473282337188720703125</LatitudeDegrees>
              <LongitudeDegrees>-4.69494603574275970458984375</LongitudeDegrees>
            </Position>
            <AltitudeMeters>46</AltitudeMeters>
            <DistanceMeters>NAN</DistanceMeters>
          </Trackpoint>
          <Trackpoint>
            <Time>2022-07-15T15:43:02.000Z</Time>
            <Position>
              <LatitudeDegrees>43.4040438942611217498779296875</LatitudeDegrees>
              <LongitudeDegrees>-4.6949721872806549072265625</LongitudeDegrees>
            </Position>
            <AltitudeMeters>45.799999237060546875</AltitudeMeters>
            <DistanceMeters>NAN</DistanceMeters>
          </Trackpoint>
          <Trackpoint>
            <Time>2022-07-15T15:43:05.000Z</Time>
            <Position>
              <LatitudeDegrees>43.4040837921202182769775390625</LatitudeDegrees>
              <LongitudeDegrees>-4.6950286813080310821533203125</LongitudeDegrees>
            </Position>
            <AltitudeMeters>45.40000152587890625</AltitudeMeters>
            <DistanceMeters>NAN</DistanceMeters>
          </Trackpoint>
          <Trackpoint>
            <Time>2022-07-15T15:43:07.000Z</Time>
            <Position>
              <LatitudeDegrees>43.40413819067180156707763671875</LatitudeDegrees>
              <LongitudeDegrees>-4.69506514258682727813720703125</LongitudeDegrees>
            </Position>
            <AltitudeMeters>45</AltitudeMeters>
            <DistanceMeters>NAN</DistanceMeters>
          </Trackpoint>
          <Trackpoint>
            <Time>2022-07-15T15:43:11.000Z</Time>
            <Position>
              <LatitudeDegrees>43.40424145571887493133544921875</LatitudeDegrees>
              <LongitudeDegrees>-4.6951979957520961761474609375</LongitudeDegrees>
            </Position>
            <AltitudeMeters>44.59999847412109375</AltitudeMeters>
            <DistanceMeters>NAN</DistanceMeters>
          </Trackpoint>
          <Trackpoint>
            <Time>2022-07-15T15:43:12.000Z</Time>
            <Position>
              <LatitudeDegrees>43.40425520204007625579833984375</LatitudeDegrees>
              <LongitudeDegrees>-4.69525105319917201995849609375</LongitudeDegrees>
            </Position>
            <AltitudeMeters>44.59999847412109375</AltitudeMeters>
            <DistanceMeters>NAN</DistanceMeters>
          </Trackpoint>
          <Trackpoint>
            <Time>2022-07-15T15:43:15.000Z</Time>
            <Position>
              <LatitudeDegrees>43.40426106937229633331298828125</LatitudeDegrees>
              <LongitudeDegrees>-4.6954330243170261383056640625</LongitudeDegrees>
            </Position>
            <AltitudeMeters>44.200000762939453125</AltitudeMeters>
            <DistanceMeters>NAN</DistanceMeters>
          </Trackpoint>
          <Trackpoint>
            <Time>2022-07-15T15:43:21.000Z</Time>
            <Position>
              <LatitudeDegrees>43.4042782522737979888916015625</LatitudeDegrees>
              <LongitudeDegrees>-4.6957636065781116485595703125</LongitudeDegrees>
            </Position>
            <AltitudeMeters>43.799999237060546875</AltitudeMeters>
            <DistanceMeters>NAN</DistanceMeters>
          </Trackpoint>
          <Trackpoint>
            <Time>2022-07-15T15:43:22.000Z</Time>
            <Position>
              <LatitudeDegrees>43.40428638271987438201904296875</LatitudeDegrees>
              <LongitudeDegrees>-4.6958149038255214691162109375</LongitudeDegrees>
            </Position>
            <AltitudeMeters>43.799999237060546875</AltitudeMeters>
            <DistanceMeters>NAN</DistanceMeters>
          </Trackpoint>
          <Trackpoint>
            <Time>2022-07-15T15:43:24.000Z</Time>
            <Position>
              <LatitudeDegrees>43.40431706048548221588134765625</LatitudeDegrees>
              <LongitudeDegrees>-4.69590869732201099395751953125</LongitudeDegrees>
            </Position>
            <AltitudeMeters>43.799999237060546875</AltitudeMeters>
            <DistanceMeters>NAN</DistanceMeters>
          </Trackpoint>
          <Trackpoint>
            <Time>2022-07-15T15:43:26.000Z</Time>
            <Position>
              <LatitudeDegrees>43.404380343854427337646484375</LatitudeDegrees>
              <LongitudeDegrees>-4.69603073783218860626220703125</LongitudeDegrees>
            </Position>
            <AltitudeMeters>43.40000152587890625</AltitudeMeters>
            <DistanceMeters>NAN</DistanceMeters>
          </Trackpoint>
          <Trackpoint>
            <Time>2022-07-15T15:43:27.000Z</Time>
            <Position>
              <LatitudeDegrees>43.40441999025642871856689453125</LatitudeDegrees>
              <LongitudeDegrees>-4.6960799396038055419921875</LongitudeDegrees>
            </Position>
            <AltitudeMeters>43.200000762939453125</AltitudeMeters>
            <DistanceMeters>NAN</DistanceMeters>
          </Trackpoint>
          <Trackpoint>
            <Time>2022-07-15T15:43:30.000Z</Time>
            <Position>
              <LatitudeDegrees>43.40455778874456882476806640625</LatitudeDegrees>
              <LongitudeDegrees>-4.69624179415404796600341796875</LongitudeDegrees>
            </Position>
            <AltitudeMeters>42.59999847412109375</AltitudeMeters>
            <DistanceMeters>NAN</DistanceMeters>
          </Trackpoint>
          <Trackpoint>
            <Time>2022-07-15T15:43:32.000Z</Time>
            <Position>
              <LatitudeDegrees>43.4046259336173534393310546875</LatitudeDegrees>
              <LongitudeDegrees>-4.6963758207857608795166015625</LongitudeDegrees>
            </Position>
            <AltitudeMeters>42.200000762939453125</AltitudeMeters>
            <DistanceMeters>NAN</DistanceMeters>
          </Trackpoint>
          <Trackpoint>
            <Time>2022-07-15T15:43:34.000Z</Time>
            <Position>
              <LatitudeDegrees>43.40465887449681758880615234375</LatitudeDegrees>
              <LongitudeDegrees>-4.69648704864084720611572265625</LongitudeDegrees>
            </Position>
            <AltitudeMeters>41.59999847412109375</AltitudeMeters>
            <DistanceMeters>NAN</DistanceMeters>
          </Trackpoint>
          <Trackpoint>
            <Time>2022-07-15T15:43:38.000Z</Time>
            <Position>
              <LatitudeDegrees>43.40467228554189205169677734375</LatitudeDegrees>
              <LongitudeDegrees>-4.69668544828891754150390625</LongitudeDegrees>
            </Position>
            <AltitudeMeters>41.40000152587890625</AltitudeMeters>
            <DistanceMeters>NAN</DistanceMeters>
          </Trackpoint>
          <Trackpoint>
            <Time>2022-07-15T15:43:45.000Z</Time>
            <Position>
              <LatitudeDegrees>43.4046852774918079376220703125</LatitudeDegrees>
              <LongitudeDegrees>-4.69695693813264369964599609375</LongitudeDegrees>
            </Position>
            <AltitudeMeters>41.799999237060546875</AltitudeMeters>
            <DistanceMeters>NAN</DistanceMeters>
          </Trackpoint>
          <Trackpoint>
            <Time>2022-07-15T15:43:48.000Z</Time>
            <Position>
              <LatitudeDegrees>43.4047090820968151092529296875</LatitudeDegrees>
              <LongitudeDegrees>-4.69704486429691314697265625</LongitudeDegrees>
            </Position>
            <AltitudeMeters>42.200000762939453125</AltitudeMeters>
            <DistanceMeters>NAN</DistanceMeters>
          </Trackpoint>
          <Trackpoint>
            <Time>2022-07-15T15:43:49.000Z</Time>
            <Position>
              <LatitudeDegrees>43.40471788309514522552490234375</LatitudeDegrees>
              <LongitudeDegrees>-4.69707411713898181915283203125</LongitudeDegrees>
            </Position>
            <AltitudeMeters>42.59999847412109375</AltitudeMeters>
            <DistanceMeters>NAN</DistanceMeters>
          </Trackpoint>
          <Trackpoint>
            <Time>2022-07-15T15:43:51.000Z</Time>
            <Position>
              <LatitudeDegrees>43.40475006960332393646240234375</LatitudeDegrees>
              <LongitudeDegrees>-4.69709574244916439056396484375</LongitudeDegrees>
            </Position>
            <AltitudeMeters>43.200000762939453125</AltitudeMeters>
            <DistanceMeters>NAN</DistanceMeters>
          </Trackpoint>
          <Trackpoint>
            <Time>2022-07-15T15:43:58.000Z</Time>
            <Position>
              <LatitudeDegrees>43.40490412898361682891845703125</LatitudeDegrees>
              <LongitudeDegrees>-4.6971194632351398468017578125</LongitudeDegrees>
            </Position>
            <AltitudeMeters>44</AltitudeMeters>
            <DistanceMeters>NAN</DistanceMeters>
          </Trackpoint>
          <Trackpoint>
            <Time>2022-07-15T15:44:02.000Z</Time>
            <Position>
              <LatitudeDegrees>43.4049528278410434722900390625</LatitudeDegrees>
              <LongitudeDegrees>-4.697205461561679840087890625</LongitudeDegrees>
            </Position>
            <AltitudeMeters>44</AltitudeMeters>
            <DistanceMeters>NAN</DistanceMeters>
          </Trackpoint>
          <Trackpoint>
            <Time>2022-07-15T15:44:03.000Z</Time>
            <Position>
              <LatitudeDegrees>43.4049518220126628875732421875</LatitudeDegrees>
              <LongitudeDegrees>-4.69722750596702098846435546875</LongitudeDegrees>
            </Position>
            <AltitudeMeters>44</AltitudeMeters>
            <DistanceMeters>NAN</DistanceMeters>
          </Trackpoint>
          <Trackpoint>
            <Time>2022-07-15T15:44:04.000Z</Time>
            <Position>
              <LatitudeDegrees>43.40494637377560138702392578125</LatitudeDegrees>
              <LongitudeDegrees>-4.6972542442381381988525390625</LongitudeDegrees>
            </Position>
            <AltitudeMeters>44.200000762939453125</AltitudeMeters>
            <DistanceMeters>NAN</DistanceMeters>
          </Trackpoint>
          <Trackpoint>
            <Time>2022-07-15T15:44:05.000Z</Time>
            <Position>
              <LatitudeDegrees>43.40493665076792240142822265625</LatitudeDegrees>
              <LongitudeDegrees>-4.697283245623111724853515625</LongitudeDegrees>
            </Position>
            <AltitudeMeters>44.200000762939453125</AltitudeMeters>
            <DistanceMeters>NAN</DistanceMeters>
          </Trackpoint>
          <Trackpoint>
            <Time>2022-07-15T15:44:09.000Z</Time>
            <Position>
              <LatitudeDegrees>43.40490010567009449005126953125</LatitudeDegrees>
              <LongitudeDegrees>-4.6974064595997333526611328125</LongitudeDegrees>
            </Position>
            <AltitudeMeters>44.40000152587890625</AltitudeMeters>
            <DistanceMeters>NAN</DistanceMeters>
          </Trackpoint>
          <Trackpoint>
            <Time>2022-07-15T15:44:13.000Z</Time>
            <Position>
              <LatitudeDegrees>43.40488937683403491973876953125</LatitudeDegrees>
              <LongitudeDegrees>-4.697593711316585540771484375</LongitudeDegrees>
            </Position>
            <AltitudeMeters>44.200000762939453125</AltitudeMeters>
            <DistanceMeters>NAN</DistanceMeters>
          </Trackpoint>
          <Trackpoint>
            <Time>2022-07-15T15:44:15.000Z</Time>
            <Position>
              <LatitudeDegrees>43.40488501824438571929931640625</LatitudeDegrees>
              <LongitudeDegrees>-4.6977363713085651397705078125</LongitudeDegrees>
            </Position>
            <AltitudeMeters>43.40000152587890625</AltitudeMeters>
            <DistanceMeters>NAN</DistanceMeters>
          </Trackpoint>
          <Trackpoint>
            <Time>2022-07-15T15:44:16.000Z</Time>
            <Position>
              <LatitudeDegrees>43.404867164790630340576171875</LatitudeDegrees>
              <LongitudeDegrees>-4.6977839805185794830322265625</LongitudeDegrees>
            </Position>
            <AltitudeMeters>43.200000762939453125</AltitudeMeters>
            <DistanceMeters>NAN</DistanceMeters>
          </Trackpoint>
          <Trackpoint>
            <Time>2022-07-15T15:44:17.000Z</Time>
            <Position>
              <LatitudeDegrees>43.4048381634056568145751953125</LatitudeDegrees>
              <LongitudeDegrees>-4.697818346321582794189453125</LongitudeDegrees>
            </Position>
            <AltitudeMeters>42.59999847412109375</AltitudeMeters>
            <DistanceMeters>NAN</DistanceMeters>
          </Trackpoint>
          <Trackpoint>
            <Time>2022-07-15T15:44:19.000Z</Time>
            <Position>
              <LatitudeDegrees>43.40475820004940032958984375</LatitudeDegrees>
              <LongitudeDegrees>-4.697843492031097412109375</LongitudeDegrees>
            </Position>
            <AltitudeMeters>42</AltitudeMeters>
            <DistanceMeters>NAN</DistanceMeters>
          </Trackpoint>
          <Trackpoint>
            <Time>2022-07-15T15:44:22.000Z</Time>
            <Position>
              <LatitudeDegrees>43.404646553099155426025390625</LatitudeDegrees>
              <LongitudeDegrees>-4.6978855691850185394287109375</LongitudeDegrees>
            </Position>
            <AltitudeMeters>41.799999237060546875</AltitudeMeters>
            <DistanceMeters>NAN</DistanceMeters>
          </Trackpoint>
          <Trackpoint>
            <Time>2022-07-15T15:44:26.000Z</Time>
            <Position>
              <LatitudeDegrees>43.40452124364674091339111328125</LatitudeDegrees>
              <LongitudeDegrees>-4.69793326221406459808349609375</LongitudeDegrees>
            </Position>
            <AltitudeMeters>41.59999847412109375</AltitudeMeters>
            <DistanceMeters>NAN</DistanceMeters>
          </Trackpoint>
          <Trackpoint>
            <Time>2022-07-15T15:44:30.000Z</Time>
            <Position>
              <LatitudeDegrees>43.4043855406343936920166015625</LatitudeDegrees>
              <LongitudeDegrees>-4.6980910934507846832275390625</LongitudeDegrees>
            </Position>
            <AltitudeMeters>41.200000762939453125</AltitudeMeters>
            <DistanceMeters>NAN</DistanceMeters>
          </Trackpoint>
          <Trackpoint>
            <Time>2022-07-15T15:44:37.000Z</Time>
            <Position>
              <LatitudeDegrees>43.40420105494558811187744140625</LatitudeDegrees>
              <LongitudeDegrees>-4.6983683668076992034912109375</LongitudeDegrees>
            </Position>
            <AltitudeMeters>41</AltitudeMeters>
            <DistanceMeters>NAN</DistanceMeters>
          </Trackpoint>
          <Trackpoint>
            <Time>2022-07-15T15:44:43.000Z</Time>
            <Position>
              <LatitudeDegrees>43.4040060080587863922119140625</LatitudeDegrees>
              <LongitudeDegrees>-4.69869065098464488983154296875</LongitudeDegrees>
            </Position>
            <AltitudeMeters>40</AltitudeMeters>
            <DistanceMeters>NAN</DistanceMeters>
          </Trackpoint>
          <Trackpoint>
            <Time>2022-07-15T15:44:46.000Z</Time>
            <Position>
              <LatitudeDegrees>43.40388103388249874114990234375</LatitudeDegrees>
              <LongitudeDegrees>-4.69889768399298191070556640625</LongitudeDegrees>
            </Position>
            <AltitudeMeters>38.799999237060546875</AltitudeMeters>
            <DistanceMeters>NAN</DistanceMeters>
          </Trackpoint>
          <Trackpoint>
            <Time>2022-07-15T15:44:47.000Z</Time>
            <Position>
              <LatitudeDegrees>43.4038568101823329925537109375</LatitudeDegrees>
              <LongitudeDegrees>-4.69897479750216007232666015625</LongitudeDegrees>
            </Position>
            <AltitudeMeters>38.59999847412109375</AltitudeMeters>
            <DistanceMeters>NAN</DistanceMeters>
          </Trackpoint>
          <Trackpoint>
            <Time>2022-07-15T15:44:48.000Z</Time>
            <Position>
              <LatitudeDegrees>43.403844572603702545166015625</LatitudeDegrees>
              <LongitudeDegrees>-4.69905006699264049530029296875</LongitudeDegrees>
            </Position>
            <AltitudeMeters>38.200000762939453125</AltitudeMeters>
            <DistanceMeters>NAN</DistanceMeters>
          </Trackpoint>
          <Trackpoint>
            <Time>2022-07-15T15:44:50.000Z</Time>
            <Position>
              <LatitudeDegrees>43.40384130366146564483642578125</LatitudeDegrees>
              <LongitudeDegrees>-4.69920630566775798797607421875</LongitudeDegrees>
            </Position>
            <AltitudeMeters>37.799999237060546875</AltitudeMeters>
            <DistanceMeters>NAN</DistanceMeters>
          </Trackpoint>
          <Trackpoint>
            <Time>2022-07-15T15:44:51.000Z</Time>
            <Position>
              <LatitudeDegrees>43.40384415350854396820068359375</LatitudeDegrees>
              <LongitudeDegrees>-4.69926682300865650177001953125</LongitudeDegrees>
            </Position>
            <AltitudeMeters>37.40000152587890625</AltitudeMeters>
            <DistanceMeters>NAN</DistanceMeters>
          </Trackpoint>
          <Trackpoint>
            <Time>2022-07-15T15:44:53.000Z</Time>
            <Position>
              <LatitudeDegrees>43.40384222567081451416015625</LatitudeDegrees>
              <LongitudeDegrees>-4.69942021183669567108154296875</LongitudeDegrees>
            </Position>
            <AltitudeMeters>37</AltitudeMeters>
            <DistanceMeters>NAN</DistanceMeters>
          </Trackpoint>
          <Trackpoint>
            <Time>2022-07-15T15:44:55.000Z</Time>
            <Position>
              <LatitudeDegrees>43.4038246236741542816162109375</LatitudeDegrees>
              <LongitudeDegrees>-4.69951651990413665771484375</LongitudeDegrees>
            </Position>
            <AltitudeMeters>37</AltitudeMeters>
            <DistanceMeters>NAN</DistanceMeters>
          </Trackpoint>
          <Trackpoint>
            <Time>2022-07-15T15:44:58.000Z</Time>
            <Position>
              <LatitudeDegrees>43.4038135595619678497314453125</LatitudeDegrees>
              <LongitudeDegrees>-4.69956605695188045501708984375</LongitudeDegrees>
            </Position>
            <AltitudeMeters>37.59999847412109375</AltitudeMeters>
            <DistanceMeters>NAN</DistanceMeters>
          </Trackpoint>
          <Trackpoint>
            <Time>2022-07-15T15:45:03.000Z</Time>
            <Position>
              <LatitudeDegrees>43.403800986707210540771484375</LatitudeDegrees>
              <LongitudeDegrees>-4.6995907835662364959716796875</LongitudeDegrees>
            </Position>
            <AltitudeMeters>38</AltitudeMeters>
            <DistanceMeters>NAN</DistanceMeters>
          </Trackpoint>
          <Trackpoint>
            <Time>2022-07-15T15:45:04.000Z</Time>
            <Position>
              <LatitudeDegrees>43.403798639774322509765625</LatitudeDegrees>
              <LongitudeDegrees>-4.69960276968777179718017578125</LongitudeDegrees>
            </Position>
            <AltitudeMeters>38</AltitudeMeters>
            <DistanceMeters>NAN</DistanceMeters>
          </Trackpoint>
          <Trackpoint>
            <Time>2022-07-15T15:45:10.000Z</Time>
            <Position>
              <LatitudeDegrees>43.4037465043365955352783203125</LatitudeDegrees>
              <LongitudeDegrees>-4.69964635558426380157470703125</LongitudeDegrees>
            </Position>
            <AltitudeMeters>38.40000152587890625</AltitudeMeters>
            <DistanceMeters>NAN</DistanceMeters>
          </Trackpoint>
          <Trackpoint>
            <Time>2022-07-15T15:45:11.000Z</Time>
            <Position>
              <LatitudeDegrees>43.40374373830854892730712890625</LatitudeDegrees>
              <LongitudeDegrees>-4.699647612869739532470703125</LongitudeDegrees>
            </Position>
            <AltitudeMeters>38.40000152587890625</AltitudeMeters>
            <DistanceMeters>NAN</DistanceMeters>
          </Trackpoint>
          <Trackpoint>
            <Time>2022-07-15T15:45:12.000Z</Time>
            <Position>
              <LatitudeDegrees>43.40374373830854892730712890625</LatitudeDegrees>
              <LongitudeDegrees>-4.699647612869739532470703125</LongitudeDegrees>
            </Position>
            <AltitudeMeters>38.59999847412109375</AltitudeMeters>
            <DistanceMeters>NAN</DistanceMeters>
          </Trackpoint>
          <Trackpoint>
            <Time>2022-07-15T15:54:53.000Z</Time>
            <Position>
              <LatitudeDegrees>43.40381515212357044219970703125</LatitudeDegrees>
              <LongitudeDegrees>-4.6996950544416904449462890625</LongitudeDegrees>
            </Position>
            <AltitudeMeters>33.200000762939453125</AltitudeMeters>
            <DistanceMeters>NAN</DistanceMeters>
          </Trackpoint>
          <Trackpoint>
            <Time>2022-07-15T15:54:54.000Z</Time>
            <Position>
              <LatitudeDegrees>43.40382236056029796600341796875</LatitudeDegrees>
              <LongitudeDegrees>-4.69971022568643093109130859375</LongitudeDegrees>
            </Position>
            <AltitudeMeters>33</AltitudeMeters>
            <DistanceMeters>NAN</DistanceMeters>
          </Trackpoint>
          <Trackpoint>
            <Time>2022-07-15T15:54:56.000Z</Time>
            <Position>
              <LatitudeDegrees>43.4038293175399303436279296875</LatitudeDegrees>
              <LongitudeDegrees>-4.6997423283755779266357421875</LongitudeDegrees>
            </Position>
            <AltitudeMeters>32.799999237060546875</AltitudeMeters>
            <DistanceMeters>NAN</DistanceMeters>
          </Trackpoint>
          <Trackpoint>
            <Time>2022-07-15T15:54:57.000Z</Time>
            <Position>
              <LatitudeDegrees>43.40383761562407016754150390625</LatitudeDegrees>
              <LongitudeDegrees>-4.69975766725838184356689453125</LongitudeDegrees>
            </Position>
            <AltitudeMeters>32.59999847412109375</AltitudeMeters>
            <DistanceMeters>NAN</DistanceMeters>
          </Trackpoint>
          <Trackpoint>
            <Time>2022-07-15T15:54:59.000Z</Time>
            <Position>
              <LatitudeDegrees>43.40385907329618930816650390625</LatitudeDegrees>
              <LongitudeDegrees>-4.69977174885571002960205078125</LongitudeDegrees>
            </Position>
            <AltitudeMeters>32.40000152587890625</AltitudeMeters>
            <DistanceMeters>NAN</DistanceMeters>
          </Trackpoint>
          <Trackpoint>
            <Time>2022-07-15T15:55:01.000Z</Time>
            <Position>
              <LatitudeDegrees>43.4038802795112133026123046875</LatitudeDegrees>
              <LongitudeDegrees>-4.69977258704602718353271484375</LongitudeDegrees>
            </Position>
            <AltitudeMeters>32.40000152587890625</AltitudeMeters>
            <DistanceMeters>NAN</DistanceMeters>
          </Trackpoint>
          <Trackpoint>
            <Time>2022-07-15T15:55:03.000Z</Time>
            <Position>
              <LatitudeDegrees>43.4038843028247356414794921875</LatitudeDegrees>
              <LongitudeDegrees>-4.69977493397891521453857421875</LongitudeDegrees>
            </Position>
            <AltitudeMeters>32.200000762939453125</AltitudeMeters>
            <DistanceMeters>NAN</DistanceMeters>
          </Trackpoint>
          <Trackpoint>
            <Time>2022-07-15T15:55:04.000Z</Time>
            <Position>
              <LatitudeDegrees>43.4038843028247356414794921875</LatitudeDegrees>
              <LongitudeDegrees>-4.69977493397891521453857421875</LongitudeDegrees>
            </Position>
            <AltitudeMeters>32.200000762939453125</AltitudeMeters>
            <DistanceMeters>NAN</DistanceMeters>
          </Trackpoint>
          <Trackpoint>
            <Time>2022-07-15T15:55:06.000Z</Time>
            <Position>
              <LatitudeDegrees>43.4038843028247356414794921875</LatitudeDegrees>
              <LongitudeDegrees>-4.69977493397891521453857421875</LongitudeDegrees>
            </Position>
            <AltitudeMeters>32</AltitudeMeters>
            <DistanceMeters>NAN</DistanceMeters>
          </Trackpoint>
          <Trackpoint>
            <Time>2022-07-15T15:59:34.000Z</Time>
            <Position>
              <LatitudeDegrees>43.40372596867382526397705078125</LatitudeDegrees>
              <LongitudeDegrees>-4.6996682323515415191650390625</LongitudeDegrees>
            </Position>
            <AltitudeMeters>31.3999996185302734375</AltitudeMeters>
            <DistanceMeters>NAN</DistanceMeters>
          </Trackpoint>
          <Trackpoint>
            <Time>2022-07-15T15:59:35.000Z</Time>
            <Position>
              <LatitudeDegrees>43.40371222235262393951416015625</LatitudeDegrees>
              <LongitudeDegrees>-4.69968038611114025115966796875</LongitudeDegrees>
            </Position>
            <AltitudeMeters>31.3999996185302734375</AltitudeMeters>
            <DistanceMeters>NAN</DistanceMeters>
          </Trackpoint>
          <Trackpoint>
            <Time>2022-07-15T15:59:41.000Z</Time>
            <Position>
              <LatitudeDegrees>43.40361968614161014556884765625</LatitudeDegrees>
              <LongitudeDegrees>-4.69973486848175525665283203125</LongitudeDegrees>
            </Position>
            <AltitudeMeters>31.200000762939453125</AltitudeMeters>
            <DistanceMeters>NAN</DistanceMeters>
          </Trackpoint>
          <Trackpoint>
            <Time>2022-07-15T15:59:42.000Z</Time>
            <Position>
              <LatitudeDegrees>43.4035986475646495819091796875</LatitudeDegrees>
              <LongitudeDegrees>-4.699740819633007049560546875</LongitudeDegrees>
            </Position>
            <AltitudeMeters>31</AltitudeMeters>
            <DistanceMeters>NAN</DistanceMeters>
          </Trackpoint>
          <Trackpoint>
            <Time>2022-07-15T15:59:46.000Z</Time>
            <Position>
              <LatitudeDegrees>43.4034886769950389862060546875</LatitudeDegrees>
              <LongitudeDegrees>-4.699755571782588958740234375</LongitudeDegrees>
            </Position>
            <AltitudeMeters>29.200000762939453125</AltitudeMeters>
            <DistanceMeters>NAN</DistanceMeters>
          </Trackpoint>
          <Trackpoint>
            <Time>2022-07-15T15:59:48.000Z</Time>
            <Position>
              <LatitudeDegrees>43.40342673473060131072998046875</LatitudeDegrees>
              <LongitudeDegrees>-4.69976772554218769073486328125</LongitudeDegrees>
            </Position>
            <AltitudeMeters>28</AltitudeMeters>
            <DistanceMeters>NAN</DistanceMeters>
          </Trackpoint>
          <Trackpoint>
            <Time>2022-07-15T15:59:50.000Z</Time>
            <Position>
              <LatitudeDegrees>43.4033679775893688201904296875</LatitudeDegrees>
              <LongitudeDegrees>-4.6997869201004505157470703125</LongitudeDegrees>
            </Position>
            <AltitudeMeters>26.6000003814697265625</AltitudeMeters>
            <DistanceMeters>NAN</DistanceMeters>
          </Trackpoint>
          <Trackpoint>
            <Time>2022-07-15T15:59:52.000Z</Time>
            <Position>
              <LatitudeDegrees>43.4033064544200897216796875</LatitudeDegrees>
              <LongitudeDegrees>-4.6998164243996143341064453125</LongitudeDegrees>
            </Position>
            <AltitudeMeters>25.3999996185302734375</AltitudeMeters>
            <DistanceMeters>NAN</DistanceMeters>
          </Trackpoint>
          <Trackpoint>
            <Time>2022-07-15T15:59:54.000Z</Time>
            <Position>
              <LatitudeDegrees>43.40324535034596920013427734375</LatitudeDegrees>
              <LongitudeDegrees>-4.69985523261129856109619140625</LongitudeDegrees>
            </Position>
            <AltitudeMeters>24.200000762939453125</AltitudeMeters>
            <DistanceMeters>NAN</DistanceMeters>
          </Trackpoint>
          <Trackpoint>
            <Time>2022-07-15T15:59:57.000Z</Time>
            <Position>
              <LatitudeDegrees>43.4031560830771923065185546875</LatitudeDegrees>
              <LongitudeDegrees>-4.69990535639226436614990234375</LongitudeDegrees>
            </Position>
            <AltitudeMeters>22.6000003814697265625</AltitudeMeters>
            <DistanceMeters>NAN</DistanceMeters>
          </Trackpoint>
          <Trackpoint>
            <Time>2022-07-15T15:59:59.000Z</Time>
            <Position>
              <LatitudeDegrees>43.40309112332761287689208984375</LatitudeDegrees>
              <LongitudeDegrees>-4.69991574995219707489013671875</LongitudeDegrees>
            </Position>
            <AltitudeMeters>21.6000003814697265625</AltitudeMeters>
            <DistanceMeters>NAN</DistanceMeters>
          </Trackpoint>
          <Trackpoint>
            <Time>2022-07-15T16:00:00.000Z</Time>
            <Position>
              <LatitudeDegrees>43.40306228958070278167724609375</LatitudeDegrees>
              <LongitudeDegrees>-4.69991273246705532073974609375</LongitudeDegrees>
            </Position>
            <AltitudeMeters>21.200000762939453125</AltitudeMeters>
            <DistanceMeters>NAN</DistanceMeters>
          </Trackpoint>
          <Trackpoint>
            <Time>2022-07-15T16:00:02.000Z</Time>
            <Position>
              <LatitudeDegrees>43.4030038677155971527099609375</LatitudeDegrees>
              <LongitudeDegrees>-4.699895717203617095947265625</LongitudeDegrees>
            </Position>
            <AltitudeMeters>20.200000762939453125</AltitudeMeters>
            <DistanceMeters>NAN</DistanceMeters>
          </Trackpoint>
          <Trackpoint>
            <Time>2022-07-15T16:00:04.000Z</Time>
            <Position>
              <LatitudeDegrees>43.4029505588114261627197265625</LatitudeDegrees>
              <LongitudeDegrees>-4.69986881129443645477294921875</LongitudeDegrees>
            </Position>
            <AltitudeMeters>19.200000762939453125</AltitudeMeters>
            <DistanceMeters>NAN</DistanceMeters>
          </Trackpoint>
          <Trackpoint>
            <Time>2022-07-15T16:00:07.000Z</Time>
            <Position>
              <LatitudeDegrees>43.4028556756675243377685546875</LatitudeDegrees>
              <LongitudeDegrees>-4.699840061366558074951171875</LongitudeDegrees>
            </Position>
            <AltitudeMeters>18</AltitudeMeters>
            <DistanceMeters>NAN</DistanceMeters>
          </Trackpoint>
          <Trackpoint>
            <Time>2022-07-15T16:00:08.000Z</Time>
            <Position>
              <LatitudeDegrees>43.40283312834799289703369140625</LatitudeDegrees>
              <LongitudeDegrees>-4.6998378820717334747314453125</LongitudeDegrees>
            </Position>
            <AltitudeMeters>17.6000003814697265625</AltitudeMeters>
            <DistanceMeters>NAN</DistanceMeters>
          </Trackpoint>
          <Trackpoint>
            <Time>2022-07-15T16:00:10.000Z</Time>
            <Position>
              <LatitudeDegrees>43.402784429490566253662109375</LatitudeDegrees>
              <LongitudeDegrees>-4.6998362056910991668701171875</LongitudeDegrees>
            </Position>
            <AltitudeMeters>16.6000003814697265625</AltitudeMeters>
            <DistanceMeters>NAN</DistanceMeters>
          </Trackpoint>
          <Trackpoint>
            <Time>2022-07-15T16:00:12.000Z</Time>
            <Position>
              <LatitudeDegrees>43.4027540870010852813720703125</LatitudeDegrees>
              <LongitudeDegrees>-4.6998623572289943695068359375</LongitudeDegrees>
            </Position>
            <AltitudeMeters>16.200000762939453125</AltitudeMeters>
            <DistanceMeters>NAN</DistanceMeters>
          </Trackpoint>
          <Trackpoint>
            <Time>2022-07-15T16:00:13.000Z</Time>
            <Position>
              <LatitudeDegrees>43.40275232680141925811767578125</LatitudeDegrees>
              <LongitudeDegrees>-4.69987819902598857879638671875</LongitudeDegrees>
            </Position>
            <AltitudeMeters>15.80000019073486328125</AltitudeMeters>
            <DistanceMeters>NAN</DistanceMeters>
          </Trackpoint>
          <Trackpoint>
            <Time>2022-07-15T16:00:14.000Z</Time>
            <Position>
              <LatitudeDegrees>43.40275417082011699676513671875</LatitudeDegrees>
              <LongitudeDegrees>-4.69988800585269927978515625</LongitudeDegrees>
            </Position>
            <AltitudeMeters>15.6000003814697265625</AltitudeMeters>
            <DistanceMeters>NAN</DistanceMeters>
          </Trackpoint>
          <Trackpoint>
            <Time>2022-07-15T16:00:16.000Z</Time>
            <Position>
              <LatitudeDegrees>43.4027554281055927276611328125</LatitudeDegrees>
              <LongitudeDegrees>-4.69989026896655559539794921875</LongitudeDegrees>
            </Position>
            <AltitudeMeters>15</AltitudeMeters>
            <DistanceMeters>NAN</DistanceMeters>
          </Trackpoint>
          <Trackpoint>
            <Time>2022-07-15T16:00:17.000Z</Time>
            <Position>
              <LatitudeDegrees>43.4027554281055927276611328125</LatitudeDegrees>
              <LongitudeDegrees>-4.69989026896655559539794921875</LongitudeDegrees>
            </Position>
            <AltitudeMeters>14.80000019073486328125</AltitudeMeters>
            <DistanceMeters>NAN</DistanceMeters>
          </Trackpoint>
          <Trackpoint>
            <Time>2022-07-15T16:00:28.000Z</Time>
            <Position>
              <LatitudeDegrees>43.40278954245150089263916015625</LatitudeDegrees>
              <LongitudeDegrees>-4.6999455057084560394287109375</LongitudeDegrees>
            </Position>
            <AltitudeMeters>14.3999996185302734375</AltitudeMeters>
            <DistanceMeters>NAN</DistanceMeters>
          </Trackpoint>
          <Trackpoint>
            <Time>2022-07-15T16:00:29.000Z</Time>
            <Position>
              <LatitudeDegrees>43.4028060548007488250732421875</LatitudeDegrees>
              <LongitudeDegrees>-4.6999756805598735809326171875</LongitudeDegrees>
            </Position>
            <AltitudeMeters>14</AltitudeMeters>
            <DistanceMeters>NAN</DistanceMeters>
          </Trackpoint>
          <Trackpoint>
            <Time>2022-07-15T16:00:31.000Z</Time>
            <Position>
              <LatitudeDegrees>43.40285718441009521484375</LatitudeDegrees>
              <LongitudeDegrees>-4.70006712712347507476806640625</LongitudeDegrees>
            </Position>
            <AltitudeMeters>12.6000003814697265625</AltitudeMeters>
            <DistanceMeters>NAN</DistanceMeters>
          </Trackpoint>
          <Trackpoint>
            <Time>2022-07-15T16:00:33.000Z</Time>
            <Position>
              <LatitudeDegrees>43.4028922207653522491455078125</LatitudeDegrees>
              <LongitudeDegrees>-4.70014742575585842132568359375</LongitudeDegrees>
            </Position>
            <AltitudeMeters>10.80000019073486328125</AltitudeMeters>
            <DistanceMeters>NAN</DistanceMeters>
          </Trackpoint>
          <Trackpoint>
            <Time>2022-07-15T16:00:34.000Z</Time>
            <Position>
              <LatitudeDegrees>43.4028935618698596954345703125</LatitudeDegrees>
              <LongitudeDegrees>-4.700183384120464324951171875</LongitudeDegrees>
            </Position>
            <AltitudeMeters>9.80000019073486328125</AltitudeMeters>
            <DistanceMeters>NAN</DistanceMeters>
          </Trackpoint>
          <Trackpoint>
            <Time>2022-07-15T16:00:35.000Z</Time>
            <Position>
              <LatitudeDegrees>43.4028880298137664794921875</LatitudeDegrees>
              <LongitudeDegrees>-4.70021414570510387420654296875</LongitudeDegrees>
            </Position>
            <AltitudeMeters>8.6000003814697265625</AltitudeMeters>
            <DistanceMeters>NAN</DistanceMeters>
          </Trackpoint>
          <Trackpoint>
            <Time>2022-07-15T16:00:38.000Z</Time>
            <Position>
              <LatitudeDegrees>43.402859531342983245849609375</LatitudeDegrees>
              <LongitudeDegrees>-4.700295031070709228515625</LongitudeDegrees>
            </Position>
            <AltitudeMeters>7.400000095367431640625</AltitudeMeters>
            <DistanceMeters>NAN</DistanceMeters>
          </Trackpoint>
          <Trackpoint>
            <Time>2022-07-15T16:00:43.000Z</Time>
            <Position>
              <LatitudeDegrees>43.40280714444816112518310546875</LatitudeDegrees>
              <LongitudeDegrees>-4.70041531138122081756591796875</LongitudeDegrees>
            </Position>
            <AltitudeMeters>7.400000095367431640625</AltitudeMeters>
            <DistanceMeters>NAN</DistanceMeters>
          </Trackpoint>
          <Trackpoint>
            <Time>2022-07-15T16:00:50.000Z</Time>
            <Position>
              <LatitudeDegrees>43.4026628918945789337158203125</LatitudeDegrees>
              <LongitudeDegrees>-4.70060088671743869781494140625</LongitudeDegrees>
            </Position>
            <AltitudeMeters>6.400000095367431640625</AltitudeMeters>
            <DistanceMeters>NAN</DistanceMeters>
          </Trackpoint>
          <Trackpoint>
            <Time>2022-07-15T16:00:51.000Z</Time>
            <Position>
              <LatitudeDegrees>43.40262316167354583740234375</LatitudeDegrees>
              <LongitudeDegrees>-4.7006209194660186767578125</LongitudeDegrees>
            </Position>
            <AltitudeMeters>6.19999980926513671875</AltitudeMeters>
            <DistanceMeters>NAN</DistanceMeters>
          </Trackpoint>
          <Trackpoint>
            <Time>2022-07-15T16:00:52.000Z</Time>
            <Position>
              <LatitudeDegrees>43.40258737094700336456298828125</LatitudeDegrees>
              <LongitudeDegrees>-4.70063407905399799346923828125</LongitudeDegrees>
            </Position>
            <AltitudeMeters>6</AltitudeMeters>
            <DistanceMeters>NAN</DistanceMeters>
          </Trackpoint>
          <Trackpoint>
            <Time>2022-07-15T16:00:55.000Z</Time>
            <Position>
              <LatitudeDegrees>43.40248863212764263153076171875</LatitudeDegrees>
              <LongitudeDegrees>-4.70065587200224399566650390625</LongitudeDegrees>
            </Position>
            <AltitudeMeters>5.80000019073486328125</AltitudeMeters>
            <DistanceMeters>NAN</DistanceMeters>
          </Trackpoint>
          <Trackpoint>
            <Time>2022-07-15T16:00:56.000Z</Time>
            <Position>
              <LatitudeDegrees>43.40244236402213573455810546875</LatitudeDegrees>
              <LongitudeDegrees>-4.700655452907085418701171875</LongitudeDegrees>
            </Position>
            <AltitudeMeters>5.80000019073486328125</AltitudeMeters>
            <DistanceMeters>NAN</DistanceMeters>
          </Trackpoint>
          <Trackpoint>
            <Time>2022-07-15T16:01:00.000Z</Time>
            <Position>
              <LatitudeDegrees>43.40228947810828685760498046875</LatitudeDegrees>
              <LongitudeDegrees>-4.70066190697252750396728515625</LongitudeDegrees>
            </Position>
            <AltitudeMeters>5.400000095367431640625</AltitudeMeters>
            <DistanceMeters>NAN</DistanceMeters>
          </Trackpoint>
          <Trackpoint>
            <Time>2022-07-15T16:01:01.000Z</Time>
            <Position>
              <LatitudeDegrees>43.40226198546588420867919921875</LatitudeDegrees>
              <LongitudeDegrees>-4.7006785869598388671875</LongitudeDegrees>
            </Position>
            <AltitudeMeters>5.19999980926513671875</AltitudeMeters>
            <DistanceMeters>NAN</DistanceMeters>
          </Trackpoint>
          <Trackpoint>
            <Time>2022-07-15T16:01:02.000Z</Time>
            <Position>
              <LatitudeDegrees>43.40223734267055988311767578125</LatitudeDegrees>
              <LongitudeDegrees>-4.7006955184042453765869140625</LongitudeDegrees>
            </Position>
            <AltitudeMeters>5.19999980926513671875</AltitudeMeters>
            <DistanceMeters>NAN</DistanceMeters>
          </Trackpoint>
          <Trackpoint>
            <Time>2022-07-15T16:01:04.000Z</Time>
            <Position>
              <LatitudeDegrees>43.4021988697350025177001953125</LatitudeDegrees>
              <LongitudeDegrees>-4.700727872550487518310546875</LongitudeDegrees>
            </Position>
            <AltitudeMeters>5.599999904632568359375</AltitudeMeters>
            <DistanceMeters>NAN</DistanceMeters>
          </Trackpoint>
          <Trackpoint>
            <Time>2022-07-15T16:01:05.000Z</Time>
            <Position>
              <LatitudeDegrees>43.402183614671230316162109375</LatitudeDegrees>
              <LongitudeDegrees>-4.7007380984723567962646484375</LongitudeDegrees>
            </Position>
            <AltitudeMeters>5.80000019073486328125</AltitudeMeters>
            <DistanceMeters>NAN</DistanceMeters>
          </Trackpoint>
          <Trackpoint>
            <Time>2022-07-15T16:01:08.000Z</Time>
            <Position>
              <LatitudeDegrees>43.4021502546966075897216796875</LatitudeDegrees>
              <LongitudeDegrees>-4.7007763199508190155029296875</LongitudeDegrees>
            </Position>
            <AltitudeMeters>6.19999980926513671875</AltitudeMeters>
            <DistanceMeters>NAN</DistanceMeters>
          </Trackpoint>
          <Trackpoint>
            <Time>2022-07-15T16:01:09.000Z</Time>
            <Position>
              <LatitudeDegrees>43.40213407762348651885986328125</LatitudeDegrees>
              <LongitudeDegrees>-4.70078193582594394683837890625</LongitudeDegrees>
            </Position>
            <AltitudeMeters>6.19999980926513671875</AltitudeMeters>
            <DistanceMeters>NAN</DistanceMeters>
          </Trackpoint>
          <Trackpoint>
            <Time>2022-07-15T16:01:10.000Z</Time>
            <Position>
              <LatitudeDegrees>43.4021163918077945709228515625</LatitudeDegrees>
              <LongitudeDegrees>-4.700782187283039093017578125</LongitudeDegrees>
            </Position>
            <AltitudeMeters>6.400000095367431640625</AltitudeMeters>
            <DistanceMeters>NAN</DistanceMeters>
          </Trackpoint>
          <Trackpoint>
            <Time>2022-07-15T16:01:14.000Z</Time>
            <Position>
              <LatitudeDegrees>43.40204657055437564849853515625</LatitudeDegrees>
              <LongitudeDegrees>-4.70081998966634273529052734375</LongitudeDegrees>
            </Position>
            <AltitudeMeters>7.19999980926513671875</AltitudeMeters>
            <DistanceMeters>NAN</DistanceMeters>
          </Trackpoint>
          <Trackpoint>
            <Time>2022-07-15T16:01:15.000Z</Time>
            <Position>
              <LatitudeDegrees>43.402037434279918670654296875</LatitudeDegrees>
              <LongitudeDegrees>-4.700828455388545989990234375</LongitudeDegrees>
            </Position>
            <AltitudeMeters>7.400000095367431640625</AltitudeMeters>
            <DistanceMeters>NAN</DistanceMeters>
          </Trackpoint>
          <Trackpoint>
            <Time>2022-07-15T16:01:16.000Z</Time>
            <Position>
              <LatitudeDegrees>43.4020225144922733306884765625</LatitudeDegrees>
              <LongitudeDegrees>-4.700833149254322052001953125</LongitudeDegrees>
            </Position>
            <AltitudeMeters>7.400000095367431640625</AltitudeMeters>
            <DistanceMeters>NAN</DistanceMeters>
          </Trackpoint>
          <Trackpoint>
            <Time>2022-07-15T16:01:19.000Z</Time>
            <Position>
              <LatitudeDegrees>43.40194992721080780029296875</LatitudeDegrees>
              <LongitudeDegrees>-4.70086944289505481719970703125</LongitudeDegrees>
            </Position>
            <AltitudeMeters>7.80000019073486328125</AltitudeMeters>
            <DistanceMeters>NAN</DistanceMeters>
          </Trackpoint>
          <Trackpoint>
            <Time>2022-07-15T16:01:23.000Z</Time>
            <Position>
              <LatitudeDegrees>43.4018810279667377471923828125</LatitudeDegrees>
              <LongitudeDegrees>-4.7009114362299442291259765625</LongitudeDegrees>
            </Position>
            <AltitudeMeters>8.19999980926513671875</AltitudeMeters>
            <DistanceMeters>NAN</DistanceMeters>
          </Trackpoint>
          <Trackpoint>
            <Time>2022-07-15T16:01:24.000Z</Time>
            <Position>
              <LatitudeDegrees>43.40186602436006069183349609375</LatitudeDegrees>
              <LongitudeDegrees>-4.70091436989605426788330078125</LongitudeDegrees>
            </Position>
            <AltitudeMeters>8.3999996185302734375</AltitudeMeters>
            <DistanceMeters>NAN</DistanceMeters>
          </Trackpoint>
          <Trackpoint>
            <Time>2022-07-15T16:01:29.000Z</Time>
            <Position>
              <LatitudeDegrees>43.4017982147634029388427734375</LatitudeDegrees>
              <LongitudeDegrees>-4.70092996023595333099365234375</LongitudeDegrees>
            </Position>
            <AltitudeMeters>9</AltitudeMeters>
            <DistanceMeters>NAN</DistanceMeters>
          </Trackpoint>
          <Trackpoint>
            <Time>2022-07-15T16:01:31.000Z</Time>
            <Position>
              <LatitudeDegrees>43.40177692472934722900390625</LatitudeDegrees>
              <LongitudeDegrees>-4.7009385935962200164794921875</LongitudeDegrees>
            </Position>
            <AltitudeMeters>9.3999996185302734375</AltitudeMeters>
            <DistanceMeters>NAN</DistanceMeters>
          </Trackpoint>
          <Trackpoint>
            <Time>2022-07-15T16:01:32.000Z</Time>
            <Position>
              <LatitudeDegrees>43.40177047066390514373779296875</LatitudeDegrees>
              <LongitudeDegrees>-4.70095410011708736419677734375</LongitudeDegrees>
            </Position>
            <AltitudeMeters>9.6000003814697265625</AltitudeMeters>
            <DistanceMeters>NAN</DistanceMeters>
          </Trackpoint>
          <Trackpoint>
            <Time>2022-07-15T16:01:35.000Z</Time>
            <Position>
              <LatitudeDegrees>43.40174281038343906402587890625</LatitudeDegrees>
              <LongitudeDegrees>-4.700996764004230499267578125</LongitudeDegrees>
            </Position>
            <AltitudeMeters>10.19999980926513671875</AltitudeMeters>
            <DistanceMeters>NAN</DistanceMeters>
          </Trackpoint>
          <Trackpoint>
            <Time>2022-07-15T16:01:36.000Z</Time>
            <Position>
              <LatitudeDegrees>43.40173191390931606292724609375</LatitudeDegrees>
              <LongitudeDegrees>-4.70101051032543182373046875</LongitudeDegrees>
            </Position>
            <AltitudeMeters>10.80000019073486328125</AltitudeMeters>
            <DistanceMeters>NAN</DistanceMeters>
          </Trackpoint>
          <Trackpoint>
            <Time>2022-07-15T16:01:41.000Z</Time>
            <Position>
              <LatitudeDegrees>43.40169084258377552032470703125</LatitudeDegrees>
              <LongitudeDegrees>-4.70108284614980220794677734375</LongitudeDegrees>
            </Position>
            <AltitudeMeters>11.80000019073486328125</AltitudeMeters>
            <DistanceMeters>NAN</DistanceMeters>
          </Trackpoint>
          <Trackpoint>
            <Time>2022-07-15T16:01:44.000Z</Time>
            <Position>
              <LatitudeDegrees>43.40167189948260784149169921875</LatitudeDegrees>
              <LongitudeDegrees>-4.7011313773691654205322265625</LongitudeDegrees>
            </Position>
            <AltitudeMeters>12.19999980926513671875</AltitudeMeters>
            <DistanceMeters>NAN</DistanceMeters>
          </Trackpoint>
          <Trackpoint>
            <Time>2022-07-15T16:01:46.000Z</Time>
            <Position>
              <LatitudeDegrees>43.40166837908327579498291015625</LatitudeDegrees>
              <LongitudeDegrees>-4.70116415061056613922119140625</LongitudeDegrees>
            </Position>
            <AltitudeMeters>12.80000019073486328125</AltitudeMeters>
            <DistanceMeters>NAN</DistanceMeters>
          </Trackpoint>
          <Trackpoint>
            <Time>2022-07-15T16:01:50.000Z</Time>
            <Position>
              <LatitudeDegrees>43.40167541988193988800048828125</LatitudeDegrees>
              <LongitudeDegrees>-4.7012131847441196441650390625</LongitudeDegrees>
            </Position>
            <AltitudeMeters>13.80000019073486328125</AltitudeMeters>
            <DistanceMeters>NAN</DistanceMeters>
          </Trackpoint>
          <Trackpoint>
            <Time>2022-07-15T16:01:52.000Z</Time>
            <Position>
              <LatitudeDegrees>43.40167541988193988800048828125</LatitudeDegrees>
              <LongitudeDegrees>-4.7012131847441196441650390625</LongitudeDegrees>
            </Position>
            <AltitudeMeters>14</AltitudeMeters>
            <DistanceMeters>NAN</DistanceMeters>
          </Trackpoint>
          <Trackpoint>
            <Time>2022-07-15T16:02:36.000Z</Time>
            <Position>
              <LatitudeDegrees>43.4015983901917934417724609375</LatitudeDegrees>
              <LongitudeDegrees>-4.70136313699185848236083984375</LongitudeDegrees>
            </Position>
            <AltitudeMeters>14.19999980926513671875</AltitudeMeters>
            <DistanceMeters>NAN</DistanceMeters>
          </Trackpoint>
          <Trackpoint>
            <Time>2022-07-15T16:02:38.000Z</Time>
            <Position>
              <LatitudeDegrees>43.4015762619674205780029296875</LatitudeDegrees>
              <LongitudeDegrees>-4.70139431767165660858154296875</LongitudeDegrees>
            </Position>
            <AltitudeMeters>14.19999980926513671875</AltitudeMeters>
            <DistanceMeters>NAN</DistanceMeters>
          </Trackpoint>
          <Trackpoint>
            <Time>2022-07-15T16:02:39.000Z</Time>
            <Position>
              <LatitudeDegrees>43.4015682153403759002685546875</LatitudeDegrees>
              <LongitudeDegrees>-4.70141074620187282562255859375</LongitudeDegrees>
            </Position>
            <AltitudeMeters>16.3999996185302734375</AltitudeMeters>
            <DistanceMeters>NAN</DistanceMeters>
          </Trackpoint>
          <Trackpoint>
            <Time>2022-07-15T16:02:40.000Z</Time>
            <Position>
              <LatitudeDegrees>43.40155740268528461456298828125</LatitudeDegrees>
              <LongitudeDegrees>-4.70141912810504436492919921875</LongitudeDegrees>
            </Position>
            <AltitudeMeters>17.3999996185302734375</AltitudeMeters>
            <DistanceMeters>NAN</DistanceMeters>
          </Trackpoint>
          <Trackpoint>
            <Time>2022-07-15T16:02:43.000Z</Time>
            <Position>
              <LatitudeDegrees>43.40152890421450138092041015625</LatitudeDegrees>
              <LongitudeDegrees>-4.701466150581836700439453125</LongitudeDegrees>
            </Position>
            <AltitudeMeters>18.799999237060546875</AltitudeMeters>
            <DistanceMeters>NAN</DistanceMeters>
          </Trackpoint>
          <Trackpoint>
            <Time>2022-07-15T16:02:45.000Z</Time>
            <Position>
              <LatitudeDegrees>43.4015095420181751251220703125</LatitudeDegrees>
              <LongitudeDegrees>-4.70148953609168529510498046875</LongitudeDegrees>
            </Position>
            <AltitudeMeters>19.6000003814697265625</AltitudeMeters>
            <DistanceMeters>NAN</DistanceMeters>
          </Trackpoint>
          <Trackpoint>
            <Time>2022-07-15T16:02:47.000Z</Time>
            <Position>
              <LatitudeDegrees>43.40148883871734142303466796875</LatitudeDegrees>
              <LongitudeDegrees>-4.70151887275278568267822265625</LongitudeDegrees>
            </Position>
            <AltitudeMeters>20</AltitudeMeters>
            <DistanceMeters>NAN</DistanceMeters>
          </Trackpoint>
          <Trackpoint>
            <Time>2022-07-15T16:02:52.000Z</Time>
            <Position>
              <LatitudeDegrees>43.401461429893970489501953125</LatitudeDegrees>
              <LongitudeDegrees>-4.7016054578125476837158203125</LongitudeDegrees>
            </Position>
            <AltitudeMeters>21</AltitudeMeters>
            <DistanceMeters>NAN</DistanceMeters>
          </Trackpoint>
          <Trackpoint>
            <Time>2022-07-15T16:02:53.000Z</Time>
            <Position>
              <LatitudeDegrees>43.40146101079881191253662109375</LatitudeDegrees>
              <LongitudeDegrees>-4.70161861740052700042724609375</LongitudeDegrees>
            </Position>
            <AltitudeMeters>21.200000762939453125</AltitudeMeters>
            <DistanceMeters>NAN</DistanceMeters>
          </Trackpoint>
          <Trackpoint>
            <Time>2022-07-15T16:02:56.000Z</Time>
            <Position>
              <LatitudeDegrees>43.4014522098004817962646484375</LatitudeDegrees>
              <LongitudeDegrees>-4.701668322086334228515625</LongitudeDegrees>
            </Position>
            <AltitudeMeters>21.799999237060546875</AltitudeMeters>
            <DistanceMeters>NAN</DistanceMeters>
          </Trackpoint>
          <Trackpoint>
            <Time>2022-07-15T16:02:59.000Z</Time>
            <Position>
              <LatitudeDegrees>43.40143871493637561798095703125</LatitudeDegrees>
              <LongitudeDegrees>-4.7017171047627925872802734375</LongitudeDegrees>
            </Position>
            <AltitudeMeters>22.3999996185302734375</AltitudeMeters>
            <DistanceMeters>NAN</DistanceMeters>
          </Trackpoint>
          <Trackpoint>
            <Time>2022-07-15T16:03:00.000Z</Time>
            <Position>
              <LatitudeDegrees>43.4014347754418849945068359375</LatitudeDegrees>
              <LongitudeDegrees>-4.70173068344593048095703125</LongitudeDegrees>
            </Position>
            <AltitudeMeters>22.6000003814697265625</AltitudeMeters>
            <DistanceMeters>NAN</DistanceMeters>
          </Trackpoint>
          <Trackpoint>
            <Time>2022-07-15T16:03:05.000Z</Time>
            <Position>
              <LatitudeDegrees>43.40141876600682735443115234375</LatitudeDegrees>
              <LongitudeDegrees>-4.70181249082088470458984375</LongitudeDegrees>
            </Position>
            <AltitudeMeters>23.6000003814697265625</AltitudeMeters>
            <DistanceMeters>NAN</DistanceMeters>
          </Trackpoint>
          <Trackpoint>
            <Time>2022-07-15T16:03:08.000Z</Time>
            <Position>
              <LatitudeDegrees>43.40142957866191864013671875</LatitudeDegrees>
              <LongitudeDegrees>-4.7018669731914997100830078125</LongitudeDegrees>
            </Position>
            <AltitudeMeters>24.200000762939453125</AltitudeMeters>
            <DistanceMeters>NAN</DistanceMeters>
          </Trackpoint>
          <Trackpoint>
            <Time>2022-07-15T16:03:11.000Z</Time>
            <Position>
              <LatitudeDegrees>43.40142865665256977081298828125</LatitudeDegrees>
              <LongitudeDegrees>-4.70190611667931079864501953125</LongitudeDegrees>
            </Position>
            <AltitudeMeters>24.799999237060546875</AltitudeMeters>
            <DistanceMeters>NAN</DistanceMeters>
          </Trackpoint>
          <Trackpoint>
            <Time>2022-07-15T16:03:15.000Z</Time>
            <Position>
              <LatitudeDegrees>43.40142915956676006317138671875</LatitudeDegrees>
              <LongitudeDegrees>-4.701963029801845550537109375</LongitudeDegrees>
            </Position>
            <AltitudeMeters>25.3999996185302734375</AltitudeMeters>
            <DistanceMeters>NAN</DistanceMeters>
          </Trackpoint>
          <Trackpoint>
            <Time>2022-07-15T16:03:16.000Z</Time>
            <Position>
              <LatitudeDegrees>43.4014310874044895172119140625</LatitudeDegrees>
              <LongitudeDegrees>-4.70197820104658603668212890625</LongitudeDegrees>
            </Position>
            <AltitudeMeters>25.3999996185302734375</AltitudeMeters>
            <DistanceMeters>NAN</DistanceMeters>
          </Trackpoint>
          <Trackpoint>
            <Time>2022-07-15T16:03:20.000Z</Time>
            <Position>
              <LatitudeDegrees>43.40144223533570766448974609375</LatitudeDegrees>
              <LongitudeDegrees>-4.7020500339567661285400390625</LongitudeDegrees>
            </Position>
            <AltitudeMeters>25.799999237060546875</AltitudeMeters>
            <DistanceMeters>NAN</DistanceMeters>
          </Trackpoint>
          <Trackpoint>
            <Time>2022-07-15T16:03:24.000Z</Time>
            <Position>
              <LatitudeDegrees>43.4014584124088287353515625</LatitudeDegrees>
              <LongitudeDegrees>-4.7021254710853099822998046875</LongitudeDegrees>
            </Position>
            <AltitudeMeters>26.3999996185302734375</AltitudeMeters>
            <DistanceMeters>NAN</DistanceMeters>
          </Trackpoint>
          <Trackpoint>
            <Time>2022-07-15T16:03:25.000Z</Time>
            <Position>
              <LatitudeDegrees>43.40145799331367015838623046875</LatitudeDegrees>
              <LongitudeDegrees>-4.702139385044574737548828125</LongitudeDegrees>
            </Position>
            <AltitudeMeters>26.6000003814697265625</AltitudeMeters>
            <DistanceMeters>NAN</DistanceMeters>
          </Trackpoint>
          <Trackpoint>
            <Time>2022-07-15T16:03:27.000Z</Time>
            <Position>
              <LatitudeDegrees>43.40146453119814395904541015625</LatitudeDegrees>
              <LongitudeDegrees>-4.7021610103547573089599609375</LongitudeDegrees>
            </Position>
            <AltitudeMeters>27</AltitudeMeters>
            <DistanceMeters>NAN</DistanceMeters>
          </Trackpoint>
          <Trackpoint>
            <Time>2022-07-15T16:03:31.000Z</Time>
            <Position>
              <LatitudeDegrees>43.40147090144455432891845703125</LatitudeDegrees>
              <LongitudeDegrees>-4.7022086195647716522216796875</LongitudeDegrees>
            </Position>
            <AltitudeMeters>28</AltitudeMeters>
            <DistanceMeters>NAN</DistanceMeters>
          </Trackpoint>
          <Trackpoint>
            <Time>2022-07-15T16:03:32.000Z</Time>
            <Position>
              <LatitudeDegrees>43.401465117931365966796875</LatitudeDegrees>
              <LongitudeDegrees>-4.70222647301852703094482421875</LongitudeDegrees>
            </Position>
            <AltitudeMeters>28.200000762939453125</AltitudeMeters>
            <DistanceMeters>NAN</DistanceMeters>
          </Trackpoint>
          <Trackpoint>
            <Time>2022-07-15T16:03:36.000Z</Time>
            <Position>
              <LatitudeDegrees>43.40144692920148372650146484375</LatitudeDegrees>
              <LongitudeDegrees>-4.702306687831878662109375</LongitudeDegrees>
            </Position>
            <AltitudeMeters>29</AltitudeMeters>
            <DistanceMeters>NAN</DistanceMeters>
          </Trackpoint>
          <Trackpoint>
            <Time>2022-07-15T16:03:42.000Z</Time>
            <Position>
              <LatitudeDegrees>43.4014317579567432403564453125</LatitudeDegrees>
              <LongitudeDegrees>-4.70239092595875263214111328125</LongitudeDegrees>
            </Position>
            <AltitudeMeters>30</AltitudeMeters>
            <DistanceMeters>NAN</DistanceMeters>
          </Trackpoint>
          <Trackpoint>
            <Time>2022-07-15T16:03:49.000Z</Time>
            <Position>
              <LatitudeDegrees>43.40140543878078460693359375</LatitudeDegrees>
              <LongitudeDegrees>-4.7024738229811191558837890625</LongitudeDegrees>
            </Position>
            <AltitudeMeters>30.799999237060546875</AltitudeMeters>
            <DistanceMeters>NAN</DistanceMeters>
          </Trackpoint>
          <Trackpoint>
            <Time>2022-07-15T16:03:53.000Z</Time>
            <Position>
              <LatitudeDegrees>43.40135405771434307098388671875</LatitudeDegrees>
              <LongitudeDegrees>-4.702542722225189208984375</LongitudeDegrees>
            </Position>
            <AltitudeMeters>31.200000762939453125</AltitudeMeters>
            <DistanceMeters>NAN</DistanceMeters>
          </Trackpoint>
          <Trackpoint>
            <Time>2022-07-15T16:03:55.000Z</Time>
            <Position>
              <LatitudeDegrees>43.401328660547733306884765625</LatitudeDegrees>
              <LongitudeDegrees>-4.7025693766772747039794921875</LongitudeDegrees>
            </Position>
            <AltitudeMeters>31.6000003814697265625</AltitudeMeters>
            <DistanceMeters>NAN</DistanceMeters>
          </Trackpoint>
          <Trackpoint>
            <Time>2022-07-15T16:03:58.000Z</Time>
            <Position>
              <LatitudeDegrees>43.40129286982119083404541015625</LatitudeDegrees>
              <LongitudeDegrees>-4.70262092538177967071533203125</LongitudeDegrees>
            </Position>
            <AltitudeMeters>32</AltitudeMeters>
            <DistanceMeters>NAN</DistanceMeters>
          </Trackpoint>
          <Trackpoint>
            <Time>2022-07-15T16:03:59.000Z</Time>
            <Position>
              <LatitudeDegrees>43.401277363300323486328125</LatitudeDegrees>
              <LongitudeDegrees>-4.70263618044555187225341796875</LongitudeDegrees>
            </Position>
            <AltitudeMeters>32.200000762939453125</AltitudeMeters>
            <DistanceMeters>NAN</DistanceMeters>
          </Trackpoint>
          <Trackpoint>
            <Time>2022-07-15T16:04:07.000Z</Time>
            <Position>
              <LatitudeDegrees>43.40115197002887725830078125</LatitudeDegrees>
              <LongitudeDegrees>-4.7027557902038097381591796875</LongitudeDegrees>
            </Position>
            <AltitudeMeters>33</AltitudeMeters>
            <DistanceMeters>NAN</DistanceMeters>
          </Trackpoint>
          <Trackpoint>
            <Time>2022-07-15T16:04:08.000Z</Time>
            <Position>
              <LatitudeDegrees>43.4011336974799633026123046875</LatitudeDegrees>
              <LongitudeDegrees>-4.70277532003819942474365234375</LongitudeDegrees>
            </Position>
            <AltitudeMeters>33.200000762939453125</AltitudeMeters>
            <DistanceMeters>NAN</DistanceMeters>
          </Trackpoint>
          <Trackpoint>
            <Time>2022-07-15T16:04:12.000Z</Time>
            <Position>
              <LatitudeDegrees>43.40104090981185436248779296875</LatitudeDegrees>
              <LongitudeDegrees>-4.7029007971286773681640625</LongitudeDegrees>
            </Position>
            <AltitudeMeters>33.200000762939453125</AltitudeMeters>
            <DistanceMeters>NAN</DistanceMeters>
          </Trackpoint>
          <Trackpoint>
            <Time>2022-07-15T16:04:15.000Z</Time>
            <Position>
              <LatitudeDegrees>43.40097762644290924072265625</LatitudeDegrees>
              <LongitudeDegrees>-4.70305242575705051422119140625</LongitudeDegrees>
            </Position>
            <AltitudeMeters>32.799999237060546875</AltitudeMeters>
            <DistanceMeters>NAN</DistanceMeters>
          </Trackpoint>
          <Trackpoint>
            <Time>2022-07-15T16:04:17.000Z</Time>
            <Position>
              <LatitudeDegrees>43.4009486250579357147216796875</LatitudeDegrees>
              <LongitudeDegrees>-4.70315518788993358612060546875</LongitudeDegrees>
            </Position>
            <AltitudeMeters>32.59999847412109375</AltitudeMeters>
            <DistanceMeters>NAN</DistanceMeters>
          </Trackpoint>
          <Trackpoint>
            <Time>2022-07-15T16:04:21.000Z</Time>
            <Position>
              <LatitudeDegrees>43.40091803111135959625244140625</LatitudeDegrees>
              <LongitudeDegrees>-4.7033458761870861053466796875</LongitudeDegrees>
            </Position>
            <AltitudeMeters>32.200000762939453125</AltitudeMeters>
            <DistanceMeters>NAN</DistanceMeters>
          </Trackpoint>
          <Trackpoint>
            <Time>2022-07-15T16:04:24.000Z</Time>
            <Position>
              <LatitudeDegrees>43.4008835814893245697021484375</LatitudeDegrees>
              <LongitudeDegrees>-4.70351493917405605316162109375</LongitudeDegrees>
            </Position>
            <AltitudeMeters>31.6000003814697265625</AltitudeMeters>
            <DistanceMeters>NAN</DistanceMeters>
          </Trackpoint>
          <Trackpoint>
            <Time>2022-07-15T16:04:25.000Z</Time>
            <Position>
              <LatitudeDegrees>43.400864638388156890869140625</LatitudeDegrees>
              <LongitudeDegrees>-4.7035785578191280364990234375</LongitudeDegrees>
            </Position>
            <AltitudeMeters>31.3999996185302734375</AltitudeMeters>
            <DistanceMeters>NAN</DistanceMeters>
          </Trackpoint>
          <Trackpoint>
            <Time>2022-07-15T16:04:27.000Z</Time>
            <Position>
              <LatitudeDegrees>43.4008265845477581024169921875</LatitudeDegrees>
              <LongitudeDegrees>-4.7037150152027606964111328125</LongitudeDegrees>
            </Position>
            <AltitudeMeters>31</AltitudeMeters>
            <DistanceMeters>NAN</DistanceMeters>
          </Trackpoint>
          <Trackpoint>
            <Time>2022-07-15T16:04:28.000Z</Time>
            <Position>
              <LatitudeDegrees>43.40080705471336841583251953125</LatitudeDegrees>
              <LongitudeDegrees>-4.70378584228456020355224609375</LongitudeDegrees>
            </Position>
            <AltitudeMeters>30.799999237060546875</AltitudeMeters>
            <DistanceMeters>NAN</DistanceMeters>
          </Trackpoint>
          <Trackpoint>
            <Time>2022-07-15T16:04:31.000Z</Time>
            <Position>
              <LatitudeDegrees>43.4007583558559417724609375</LatitudeDegrees>
              <LongitudeDegrees>-4.70399404875934123992919921875</LongitudeDegrees>
            </Position>
            <AltitudeMeters>30</AltitudeMeters>
            <DistanceMeters>NAN</DistanceMeters>
          </Trackpoint>
          <Trackpoint>
            <Time>2022-07-15T16:04:32.000Z</Time>
            <Position>
              <LatitudeDegrees>43.400753326714038848876953125</LatitudeDegrees>
              <LongitudeDegrees>-4.70406009815633296966552734375</LongitudeDegrees>
            </Position>
            <AltitudeMeters>30</AltitudeMeters>
            <DistanceMeters>NAN</DistanceMeters>
          </Trackpoint>
          <Trackpoint>
            <Time>2022-07-15T16:04:33.000Z</Time>
            <Position>
              <LatitudeDegrees>43.400750644505023956298828125</LatitudeDegrees>
              <LongitudeDegrees>-4.704125560820102691650390625</LongitudeDegrees>
            </Position>
            <AltitudeMeters>30</AltitudeMeters>
            <DistanceMeters>NAN</DistanceMeters>
          </Trackpoint>
          <Trackpoint>
            <Time>2022-07-15T16:04:34.000Z</Time>
            <Position>
              <LatitudeDegrees>43.40074921958148479461669921875</LatitudeDegrees>
              <LongitudeDegrees>-4.70419303514063358306884765625</LongitudeDegrees>
            </Position>
            <AltitudeMeters>30</AltitudeMeters>
            <DistanceMeters>NAN</DistanceMeters>
          </Trackpoint>
          <Trackpoint>
            <Time>2022-07-15T16:04:38.000Z</Time>
            <Position>
              <LatitudeDegrees>43.40074695646762847900390625</LatitudeDegrees>
              <LongitudeDegrees>-4.70432429574429988861083984375</LongitudeDegrees>
            </Position>
            <AltitudeMeters>31</AltitudeMeters>
            <DistanceMeters>NAN</DistanceMeters>
          </Trackpoint>
          <Trackpoint>
            <Time>2022-07-15T16:04:46.000Z</Time>
            <Position>
              <LatitudeDegrees>43.40075223706662654876708984375</LatitudeDegrees>
              <LongitudeDegrees>-4.704522192478179931640625</LongitudeDegrees>
            </Position>
            <AltitudeMeters>31.799999237060546875</AltitudeMeters>
            <DistanceMeters>NAN</DistanceMeters>
          </Trackpoint>
          <Trackpoint>
            <Time>2022-07-15T16:04:47.000Z</Time>
            <Position>
              <LatitudeDegrees>43.40075022540986537933349609375</LatitudeDegrees>
              <LongitudeDegrees>-4.70454557798802852630615234375</LongitudeDegrees>
            </Position>
            <AltitudeMeters>32</AltitudeMeters>
            <DistanceMeters>NAN</DistanceMeters>
          </Trackpoint>
          <Trackpoint>
            <Time>2022-07-15T16:04:49.000Z</Time>
            <Position>
              <LatitudeDegrees>43.4007578529417514801025390625</LatitudeDegrees>
              <LongitudeDegrees>-4.7045806981623172760009765625</LongitudeDegrees>
            </Position>
            <AltitudeMeters>32.200000762939453125</AltitudeMeters>
            <DistanceMeters>NAN</DistanceMeters>
          </Trackpoint>
          <Trackpoint>
            <Time>2022-07-15T16:04:51.000Z</Time>
            <Position>
              <LatitudeDegrees>43.40075768530368804931640625</LatitudeDegrees>
              <LongitudeDegrees>-4.70461632125079631805419921875</LongitudeDegrees>
            </Position>
            <AltitudeMeters>32.40000152587890625</AltitudeMeters>
            <DistanceMeters>NAN</DistanceMeters>
          </Trackpoint>
          <Trackpoint>
            <Time>2022-07-15T16:04:55.000Z</Time>
            <Position>
              <LatitudeDegrees>43.40075676329433917999267578125</LatitudeDegrees>
              <LongitudeDegrees>-4.704625792801380157470703125</LongitudeDegrees>
            </Position>
            <AltitudeMeters>32.59999847412109375</AltitudeMeters>
            <DistanceMeters>NAN</DistanceMeters>
          </Trackpoint>
          <Trackpoint>
            <Time>2022-07-15T16:05:57.000Z</Time>
            <Position>
              <LatitudeDegrees>43.40076983906328678131103515625</LatitudeDegrees>
              <LongitudeDegrees>-4.70464616082608699798583984375</LongitudeDegrees>
            </Position>
            <AltitudeMeters>32.40000152587890625</AltitudeMeters>
            <DistanceMeters>NAN</DistanceMeters>
          </Trackpoint>
          <Trackpoint>
            <Time>2022-07-15T16:06:02.000Z</Time>
            <Position>
              <LatitudeDegrees>43.400902189314365386962890625</LatitudeDegrees>
              <LongitudeDegrees>-4.7047486715018749237060546875</LongitudeDegrees>
            </Position>
            <AltitudeMeters>32.40000152587890625</AltitudeMeters>
            <DistanceMeters>NAN</DistanceMeters>
          </Trackpoint>
          <Trackpoint>
            <Time>2022-07-15T16:06:07.000Z</Time>
            <Position>
              <LatitudeDegrees>43.40103789232671260833740234375</LatitudeDegrees>
              <LongitudeDegrees>-4.70492611639201641082763671875</LongitudeDegrees>
            </Position>
            <AltitudeMeters>32.59999847412109375</AltitudeMeters>
            <DistanceMeters>NAN</DistanceMeters>
          </Trackpoint>
          <Trackpoint>
            <Time>2022-07-15T16:06:08.000Z</Time>
            <Position>
              <LatitudeDegrees>43.40106521733105182647705078125</LatitudeDegrees>
              <LongitudeDegrees>-4.70495981164276599884033203125</LongitudeDegrees>
            </Position>
            <AltitudeMeters>32.799999237060546875</AltitudeMeters>
            <DistanceMeters>NAN</DistanceMeters>
          </Trackpoint>
          <Trackpoint>
            <Time>2022-07-15T16:06:15.000Z</Time>
            <Position>
              <LatitudeDegrees>43.4012319333851337432861328125</LatitudeDegrees>
              <LongitudeDegrees>-4.7051456384360790252685546875</LongitudeDegrees>
            </Position>
            <AltitudeMeters>32.799999237060546875</AltitudeMeters>
            <DistanceMeters>NAN</DistanceMeters>
          </Trackpoint>
          <Trackpoint>
            <Time>2022-07-15T16:06:21.000Z</Time>
            <Position>
              <LatitudeDegrees>43.40133930556476116180419921875</LatitudeDegrees>
              <LongitudeDegrees>-4.70530782826244831085205078125</LongitudeDegrees>
            </Position>
            <AltitudeMeters>32.40000152587890625</AltitudeMeters>
            <DistanceMeters>NAN</DistanceMeters>
          </Trackpoint>
          <Trackpoint>
            <Time>2022-07-15T16:06:27.000Z</Time>
            <Position>
              <LatitudeDegrees>43.40143385343253612518310546875</LatitudeDegrees>
              <LongitudeDegrees>-4.70549390651285648345947265625</LongitudeDegrees>
            </Position>
            <AltitudeMeters>33.40000152587890625</AltitudeMeters>
            <DistanceMeters>NAN</DistanceMeters>
          </Trackpoint>
          <Trackpoint>
            <Time>2022-07-15T16:06:28.000Z</Time>
            <Position>
              <LatitudeDegrees>43.4014448337256908416748046875</LatitudeDegrees>
              <LongitudeDegrees>-4.7055214829742908477783203125</LongitudeDegrees>
            </Position>
            <AltitudeMeters>33.40000152587890625</AltitudeMeters>
            <DistanceMeters>NAN</DistanceMeters>
          </Trackpoint>
          <Trackpoint>
            <Time>2022-07-15T16:06:30.000Z</Time>
            <Position>
              <LatitudeDegrees>43.40147710405290126800537109375</LatitudeDegrees>
              <LongitudeDegrees>-4.70558124594390392303466796875</LongitudeDegrees>
            </Position>
            <AltitudeMeters>33.799999237060546875</AltitudeMeters>
            <DistanceMeters>NAN</DistanceMeters>
          </Trackpoint>
          <Trackpoint>
            <Time>2022-07-15T16:06:32.000Z</Time>
            <Position>
              <LatitudeDegrees>43.40151582844555377960205078125</LatitudeDegrees>
              <LongitudeDegrees>-4.70565282739698886871337890625</LongitudeDegrees>
            </Position>
            <AltitudeMeters>34.200000762939453125</AltitudeMeters>
            <DistanceMeters>NAN</DistanceMeters>
          </Trackpoint>
          <Trackpoint>
            <Time>2022-07-15T16:06:34.000Z</Time>
            <Position>
              <LatitudeDegrees>43.4015514515340328216552734375</LatitudeDegrees>
              <LongitudeDegrees>-4.7057142667472362518310546875</LongitudeDegrees>
            </Position>
            <AltitudeMeters>34.40000152587890625</AltitudeMeters>
            <DistanceMeters>NAN</DistanceMeters>
          </Trackpoint>
          <Trackpoint>
            <Time>2022-07-15T16:06:36.000Z</Time>
            <Position>
              <LatitudeDegrees>43.40159193612635135650634765625</LatitudeDegrees>
              <LongitudeDegrees>-4.70577319152653217315673828125</LongitudeDegrees>
            </Position>
            <AltitudeMeters>34.799999237060546875</AltitudeMeters>
            <DistanceMeters>NAN</DistanceMeters>
          </Trackpoint>
          <Trackpoint>
            <Time>2022-07-15T16:06:39.000Z</Time>
            <Position>
              <LatitudeDegrees>43.4016359411180019378662109375</LatitudeDegrees>
              <LongitudeDegrees>-4.70589213073253631591796875</LongitudeDegrees>
            </Position>
            <AltitudeMeters>35.40000152587890625</AltitudeMeters>
            <DistanceMeters>NAN</DistanceMeters>
          </Trackpoint>
          <Trackpoint>
            <Time>2022-07-15T16:06:41.000Z</Time>
            <Position>
              <LatitudeDegrees>43.40166435576975345611572265625</LatitudeDegrees>
              <LongitudeDegrees>-4.70598592422902584075927734375</LongitudeDegrees>
            </Position>
            <AltitudeMeters>35.40000152587890625</AltitudeMeters>
            <DistanceMeters>NAN</DistanceMeters>
          </Trackpoint>
          <Trackpoint>
            <Time>2022-07-15T16:06:42.000Z</Time>
            <Position>
              <LatitudeDegrees>43.40168162249028682708740234375</LatitudeDegrees>
              <LongitudeDegrees>-4.7060351260006427764892578125</LongitudeDegrees>
            </Position>
            <AltitudeMeters>35.40000152587890625</AltitudeMeters>
            <DistanceMeters>NAN</DistanceMeters>
          </Trackpoint>
          <Trackpoint>
            <Time>2022-07-15T16:06:43.000Z</Time>
            <Position>
              <LatitudeDegrees>43.40170710347592830657958984375</LatitudeDegrees>
              <LongitudeDegrees>-4.70609069801867008209228515625</LongitudeDegrees>
            </Position>
            <AltitudeMeters>35.40000152587890625</AltitudeMeters>
            <DistanceMeters>NAN</DistanceMeters>
          </Trackpoint>
          <Trackpoint>
            <Time>2022-07-15T16:06:45.000Z</Time>
            <Position>
              <LatitudeDegrees>43.40177432633936405181884765625</LatitudeDegrees>
              <LongitudeDegrees>-4.7061927057802677154541015625</LongitudeDegrees>
            </Position>
            <AltitudeMeters>35.200000762939453125</AltitudeMeters>
            <DistanceMeters>NAN</DistanceMeters>
          </Trackpoint>
          <Trackpoint>
            <Time>2022-07-15T16:06:46.000Z</Time>
            <Position>
              <LatitudeDegrees>43.40181875042617321014404296875</LatitudeDegrees>
              <LongitudeDegrees>-4.70624257810413837432861328125</LongitudeDegrees>
            </Position>
            <AltitudeMeters>35.200000762939453125</AltitudeMeters>
            <DistanceMeters>NAN</DistanceMeters>
          </Trackpoint>
          <Trackpoint>
            <Time>2022-07-15T16:06:48.000Z</Time>
            <Position>
              <LatitudeDegrees>43.4018964506685733795166015625</LatitudeDegrees>
              <LongitudeDegrees>-4.70635171048343181610107421875</LongitudeDegrees>
            </Position>
            <AltitudeMeters>34.40000152587890625</AltitudeMeters>
            <DistanceMeters>NAN</DistanceMeters>
          </Trackpoint>
          <Trackpoint>
            <Time>2022-07-15T16:06:51.000Z</Time>
            <Position>
              <LatitudeDegrees>43.40199359692633152008056640625</LatitudeDegrees>
              <LongitudeDegrees>-4.70656611956655979156494140625</LongitudeDegrees>
            </Position>
            <AltitudeMeters>33.200000762939453125</AltitudeMeters>
            <DistanceMeters>NAN</DistanceMeters>
          </Trackpoint>
          <Trackpoint>
            <Time>2022-07-15T16:06:52.000Z</Time>
            <Position>
              <LatitudeDegrees>43.402032069861888885498046875</LatitudeDegrees>
              <LongitudeDegrees>-4.7066372819244861602783203125</LongitudeDegrees>
            </Position>
            <AltitudeMeters>33</AltitudeMeters>
            <DistanceMeters>NAN</DistanceMeters>
          </Trackpoint>
          <Trackpoint>
            <Time>2022-07-15T16:06:55.000Z</Time>
            <Position>
              <LatitudeDegrees>43.40215989388525485992431640625</LatitudeDegrees>
              <LongitudeDegrees>-4.70680835656821727752685546875</LongitudeDegrees>
            </Position>
            <AltitudeMeters>32</AltitudeMeters>
            <DistanceMeters>NAN</DistanceMeters>
          </Trackpoint>
          <Trackpoint>
            <Time>2022-07-15T16:06:59.000Z</Time>
            <Position>
              <LatitudeDegrees>43.40235670097172260284423828125</LatitudeDegrees>
              <LongitudeDegrees>-4.70703047700226306915283203125</LongitudeDegrees>
            </Position>
            <AltitudeMeters>30.3999996185302734375</AltitudeMeters>
            <DistanceMeters>NAN</DistanceMeters>
          </Trackpoint>
          <Trackpoint>
            <Time>2022-07-15T16:07:02.000Z</Time>
            <Position>
              <LatitudeDegrees>43.40247203595936298370361328125</LatitudeDegrees>
              <LongitudeDegrees>-4.70721982419490814208984375</LongitudeDegrees>
            </Position>
            <AltitudeMeters>29.200000762939453125</AltitudeMeters>
            <DistanceMeters>NAN</DistanceMeters>
          </Trackpoint>
          <Trackpoint>
            <Time>2022-07-15T16:07:04.000Z</Time>
            <Position>
              <LatitudeDegrees>43.4025254286825656890869140625</LatitudeDegrees>
              <LongitudeDegrees>-4.7073621489107608795166015625</LongitudeDegrees>
            </Position>
            <AltitudeMeters>28.200000762939453125</AltitudeMeters>
            <DistanceMeters>NAN</DistanceMeters>
          </Trackpoint>
          <Trackpoint>
            <Time>2022-07-15T16:07:06.000Z</Time>
            <Position>
              <LatitudeDegrees>43.40254495851695537567138671875</LatitudeDegrees>
              <LongitudeDegrees>-4.7075193934142589569091796875</LongitudeDegrees>
            </Position>
            <AltitudeMeters>27.3999996185302734375</AltitudeMeters>
            <DistanceMeters>NAN</DistanceMeters>
          </Trackpoint>
          <Trackpoint>
            <Time>2022-07-15T16:07:07.000Z</Time>
            <Position>
              <LatitudeDegrees>43.40255610644817352294921875</LatitudeDegrees>
              <LongitudeDegrees>-4.707597009837627410888671875</LongitudeDegrees>
            </Position>
            <AltitudeMeters>27.3999996185302734375</AltitudeMeters>
            <DistanceMeters>NAN</DistanceMeters>
          </Trackpoint>
          <Trackpoint>
            <Time>2022-07-15T16:07:09.000Z</Time>
            <Position>
              <LatitudeDegrees>43.40259231626987457275390625</LatitudeDegrees>
              <LongitudeDegrees>-4.70774327404797077178955078125</LongitudeDegrees>
            </Position>
            <AltitudeMeters>27.200000762939453125</AltitudeMeters>
            <DistanceMeters>NAN</DistanceMeters>
          </Trackpoint>
          <Trackpoint>
            <Time>2022-07-15T16:07:10.000Z</Time>
            <Position>
              <LatitudeDegrees>43.4026246704161167144775390625</LatitudeDegrees>
              <LongitudeDegrees>-4.70779960043728351593017578125</LongitudeDegrees>
            </Position>
            <AltitudeMeters>27.200000762939453125</AltitudeMeters>
            <DistanceMeters>NAN</DistanceMeters>
          </Trackpoint>
          <Trackpoint>
            <Time>2022-07-15T16:07:11.000Z</Time>
            <Position>
              <LatitudeDegrees>43.4026627242565155029296875</LatitudeDegrees>
              <LongitudeDegrees>-4.70784318633377552032470703125</LongitudeDegrees>
            </Position>
            <AltitudeMeters>27</AltitudeMeters>
            <DistanceMeters>NAN</DistanceMeters>
          </Trackpoint>
          <Trackpoint>
            <Time>2022-07-15T16:07:13.000Z</Time>
            <Position>
              <LatitudeDegrees>43.40273589827120304107666015625</LatitudeDegrees>
              <LongitudeDegrees>-4.70788878388702869415283203125</LongitudeDegrees>
            </Position>
            <AltitudeMeters>27</AltitudeMeters>
            <DistanceMeters>NAN</DistanceMeters>
          </Trackpoint>
          <Trackpoint>
            <Time>2022-07-15T16:07:18.000Z</Time>
            <Position>
              <LatitudeDegrees>43.40285039506852626800537109375</LatitudeDegrees>
              <LongitudeDegrees>-4.70795835368335247039794921875</LongitudeDegrees>
            </Position>
            <AltitudeMeters>27</AltitudeMeters>
            <DistanceMeters>NAN</DistanceMeters>
          </Trackpoint>
          <Trackpoint>
            <Time>2022-07-15T16:07:24.000Z</Time>
            <Position>
              <LatitudeDegrees>43.40292817912995815277099609375</LatitudeDegrees>
              <LongitudeDegrees>-4.70803680829703807830810546875</LongitudeDegrees>
            </Position>
            <AltitudeMeters>28</AltitudeMeters>
            <DistanceMeters>NAN</DistanceMeters>
          </Trackpoint>
          <Trackpoint>
            <Time>2022-07-15T16:07:26.000Z</Time>
            <Position>
              <LatitudeDegrees>43.402935974299907684326171875</LatitudeDegrees>
              <LongitudeDegrees>-4.7080648876726627349853515625</LongitudeDegrees>
            </Position>
            <AltitudeMeters>28.200000762939453125</AltitudeMeters>
            <DistanceMeters>NAN</DistanceMeters>
          </Trackpoint>
          <Trackpoint>
            <Time>2022-07-15T16:07:30.000Z</Time>
            <Position>
              <LatitudeDegrees>43.4029257483780384063720703125</LatitudeDegrees>
              <LongitudeDegrees>-4.7081228904426097869873046875</LongitudeDegrees>
            </Position>
            <AltitudeMeters>28.6000003814697265625</AltitudeMeters>
            <DistanceMeters>NAN</DistanceMeters>
          </Trackpoint>
          <Trackpoint>
            <Time>2022-07-15T16:07:31.000Z</Time>
            <Position>
              <LatitudeDegrees>43.40291962958872318267822265625</LatitudeDegrees>
              <LongitudeDegrees>-4.708135128021240234375</LongitudeDegrees>
            </Position>
            <AltitudeMeters>28.799999237060546875</AltitudeMeters>
            <DistanceMeters>NAN</DistanceMeters>
          </Trackpoint>
          <Trackpoint>
            <Time>2022-07-15T16:07:33.000Z</Time>
            <Position>
              <LatitudeDegrees>43.40290487743914127349853515625</LatitudeDegrees>
              <LongitudeDegrees>-4.70815331675112247467041015625</LongitudeDegrees>
            </Position>
            <AltitudeMeters>29</AltitudeMeters>
            <DistanceMeters>NAN</DistanceMeters>
          </Trackpoint>
          <Trackpoint>
            <Time>2022-07-15T16:07:34.000Z</Time>
            <Position>
              <LatitudeDegrees>43.4028987586498260498046875</LatitudeDegrees>
              <LongitudeDegrees>-4.70816236920654773712158203125</LongitudeDegrees>
            </Position>
            <AltitudeMeters>29.200000762939453125</AltitudeMeters>
            <DistanceMeters>NAN</DistanceMeters>
          </Trackpoint>
          <Trackpoint>
            <Time>2022-07-15T16:07:36.000Z</Time>
            <Position>
              <LatitudeDegrees>43.40289532206952571868896484375</LatitudeDegrees>
              <LongitudeDegrees>-4.7081922926008701324462890625</LongitudeDegrees>
            </Position>
            <AltitudeMeters>29.3999996185302734375</AltitudeMeters>
            <DistanceMeters>NAN</DistanceMeters>
          </Trackpoint>
          <Trackpoint>
            <Time>2022-07-15T16:07:40.000Z</Time>
            <Position>
              <LatitudeDegrees>43.40289129875600337982177734375</LatitudeDegrees>
              <LongitudeDegrees>-4.708272926509380340576171875</LongitudeDegrees>
            </Position>
            <AltitudeMeters>29.799999237060546875</AltitudeMeters>
            <DistanceMeters>NAN</DistanceMeters>
          </Trackpoint>
          <Trackpoint>
            <Time>2022-07-15T16:07:43.000Z</Time>
            <Position>
              <LatitudeDegrees>43.4028960764408111572265625</LatitudeDegrees>
              <LongitudeDegrees>-4.708339311182498931884765625</LongitudeDegrees>
            </Position>
            <AltitudeMeters>30.200000762939453125</AltitudeMeters>
            <DistanceMeters>NAN</DistanceMeters>
          </Trackpoint>
          <Trackpoint>
            <Time>2022-07-15T16:07:45.000Z</Time>
            <Position>
              <LatitudeDegrees>43.4029089845716953277587890625</LatitudeDegrees>
              <LongitudeDegrees>-4.708384573459625244140625</LongitudeDegrees>
            </Position>
            <AltitudeMeters>30.6000003814697265625</AltitudeMeters>
            <DistanceMeters>NAN</DistanceMeters>
          </Trackpoint>
          <Trackpoint>
            <Time>2022-07-15T16:07:52.000Z</Time>
            <Position>
              <LatitudeDegrees>43.4029696695506572723388671875</LatitudeDegrees>
              <LongitudeDegrees>-4.70852245576679706573486328125</LongitudeDegrees>
            </Position>
            <AltitudeMeters>31.200000762939453125</AltitudeMeters>
            <DistanceMeters>NAN</DistanceMeters>
          </Trackpoint>
          <Trackpoint>
            <Time>2022-07-15T16:07:53.000Z</Time>
            <Position>
              <LatitudeDegrees>43.4029800631105899810791015625</LatitudeDegrees>
              <LongitudeDegrees>-4.70853201113641262054443359375</LongitudeDegrees>
            </Position>
            <AltitudeMeters>31.3999996185302734375</AltitudeMeters>
            <DistanceMeters>NAN</DistanceMeters>
          </Trackpoint>
          <Trackpoint>
            <Time>2022-07-15T16:07:56.000Z</Time>
            <Position>
              <LatitudeDegrees>43.40300646610558032989501953125</LatitudeDegrees>
              <LongitudeDegrees>-4.70857190899550914764404296875</LongitudeDegrees>
            </Position>
            <AltitudeMeters>31.6000003814697265625</AltitudeMeters>
            <DistanceMeters>NAN</DistanceMeters>
          </Trackpoint>
          <Trackpoint>
            <Time>2022-07-15T16:08:00.000Z</Time>
            <Position>
              <LatitudeDegrees>43.40304837562143802642822265625</LatitudeDegrees>
              <LongitudeDegrees>-4.708621613681316375732421875</LongitudeDegrees>
            </Position>
            <AltitudeMeters>32</AltitudeMeters>
            <DistanceMeters>NAN</DistanceMeters>
          </Trackpoint>
          <Trackpoint>
            <Time>2022-07-15T16:08:03.000Z</Time>
            <Position>
              <LatitudeDegrees>43.40306078083813190460205078125</LatitudeDegrees>
              <LongitudeDegrees>-4.70868238247931003570556640625</LongitudeDegrees>
            </Position>
            <AltitudeMeters>32.40000152587890625</AltitudeMeters>
            <DistanceMeters>NAN</DistanceMeters>
          </Trackpoint>
          <Trackpoint>
            <Time>2022-07-15T16:08:06.000Z</Time>
            <Position>
              <LatitudeDegrees>43.4030722640454769134521484375</LatitudeDegrees>
              <LongitudeDegrees>-4.70872429199516773223876953125</LongitudeDegrees>
            </Position>
            <AltitudeMeters>33</AltitudeMeters>
            <DistanceMeters>NAN</DistanceMeters>
          </Trackpoint>
          <Trackpoint>
            <Time>2022-07-15T16:08:08.000Z</Time>
            <Position>
              <LatitudeDegrees>43.4030786342918872833251953125</LatitudeDegrees>
              <LongitudeDegrees>-4.7087574005126953125</LongitudeDegrees>
            </Position>
            <AltitudeMeters>33.200000762939453125</AltitudeMeters>
            <DistanceMeters>NAN</DistanceMeters>
          </Trackpoint>
          <Trackpoint>
            <Time>2022-07-15T16:08:10.000Z</Time>
            <Position>
              <LatitudeDegrees>43.40308391489088535308837890625</LatitudeDegrees>
              <LongitudeDegrees>-4.70879553817212581634521484375</LongitudeDegrees>
            </Position>
            <AltitudeMeters>33.40000152587890625</AltitudeMeters>
            <DistanceMeters>NAN</DistanceMeters>
          </Trackpoint>
          <Trackpoint>
            <Time>2022-07-15T16:08:12.000Z</Time>
            <Position>
              <LatitudeDegrees>43.40308123268187046051025390625</LatitudeDegrees>
              <LongitudeDegrees>-4.70883241854608058929443359375</LongitudeDegrees>
            </Position>
            <AltitudeMeters>34</AltitudeMeters>
            <DistanceMeters>NAN</DistanceMeters>
          </Trackpoint>
          <Trackpoint>
            <Time>2022-07-15T16:08:15.000Z</Time>
            <Position>
              <LatitudeDegrees>43.403094895184040069580078125</LatitudeDegrees>
              <LongitudeDegrees>-4.70888857729732990264892578125</LongitudeDegrees>
            </Position>
            <AltitudeMeters>34.40000152587890625</AltitudeMeters>
            <DistanceMeters>NAN</DistanceMeters>
          </Trackpoint>
          <Trackpoint>
            <Time>2022-07-15T16:08:18.000Z</Time>
            <Position>
              <LatitudeDegrees>43.4030923806130886077880859375</LatitudeDegrees>
              <LongitudeDegrees>-4.7089491784572601318359375</LongitudeDegrees>
            </Position>
            <AltitudeMeters>35.200000762939453125</AltitudeMeters>
            <DistanceMeters>NAN</DistanceMeters>
          </Trackpoint>
          <Trackpoint>
            <Time>2022-07-15T16:08:22.000Z</Time>
            <Position>
              <LatitudeDegrees>43.40309011749923229217529296875</LatitudeDegrees>
              <LongitudeDegrees>-4.7090190835297107696533203125</LongitudeDegrees>
            </Position>
            <AltitudeMeters>35.59999847412109375</AltitudeMeters>
            <DistanceMeters>NAN</DistanceMeters>
          </Trackpoint>
          <Trackpoint>
            <Time>2022-07-15T16:08:26.000Z</Time>
            <Position>
              <LatitudeDegrees>43.403102271258831024169921875</LatitudeDegrees>
              <LongitudeDegrees>-4.7090878151357173919677734375</LongitudeDegrees>
            </Position>
            <AltitudeMeters>36</AltitudeMeters>
            <DistanceMeters>NAN</DistanceMeters>
          </Trackpoint>
          <Trackpoint>
            <Time>2022-07-15T16:08:29.000Z</Time>
            <Position>
              <LatitudeDegrees>43.40310805477201938629150390625</LatitudeDegrees>
              <LongitudeDegrees>-4.70913249067962169647216796875</LongitudeDegrees>
            </Position>
            <AltitudeMeters>36.59999847412109375</AltitudeMeters>
            <DistanceMeters>NAN</DistanceMeters>
          </Trackpoint>
          <Trackpoint>
            <Time>2022-07-15T16:08:33.000Z</Time>
            <Position>
              <LatitudeDegrees>43.4031041152775287628173828125</LatitudeDegrees>
              <LongitudeDegrees>-4.709199629724025726318359375</LongitudeDegrees>
            </Position>
            <AltitudeMeters>37</AltitudeMeters>
            <DistanceMeters>NAN</DistanceMeters>
          </Trackpoint>
          <Trackpoint>
            <Time>2022-07-15T16:08:38.000Z</Time>
            <Position>
              <LatitudeDegrees>43.4030950628221035003662109375</LatitudeDegrees>
              <LongitudeDegrees>-4.70928051508963108062744140625</LongitudeDegrees>
            </Position>
            <AltitudeMeters>37.59999847412109375</AltitudeMeters>
            <DistanceMeters>NAN</DistanceMeters>
          </Trackpoint>
          <Trackpoint>
            <Time>2022-07-15T16:08:40.000Z</Time>
            <Position>
              <LatitudeDegrees>43.40309229679405689239501953125</LatitudeDegrees>
              <LongitudeDegrees>-4.7093147970736026763916015625</LongitudeDegrees>
            </Position>
            <AltitudeMeters>38</AltitudeMeters>
            <DistanceMeters>NAN</DistanceMeters>
          </Trackpoint>
          <Trackpoint>
            <Time>2022-07-15T16:08:43.000Z</Time>
            <Position>
              <LatitudeDegrees>43.40307704173028469085693359375</LatitudeDegrees>
              <LongitudeDegrees>-4.709368608891963958740234375</LongitudeDegrees>
            </Position>
            <AltitudeMeters>38.799999237060546875</AltitudeMeters>
            <DistanceMeters>NAN</DistanceMeters>
          </Trackpoint>
          <Trackpoint>
            <Time>2022-07-15T16:08:46.000Z</Time>
            <Position>
              <LatitudeDegrees>43.403084166347980499267578125</LatitudeDegrees>
              <LongitudeDegrees>-4.7094076685607433319091796875</LongitudeDegrees>
            </Position>
            <AltitudeMeters>39.40000152587890625</AltitudeMeters>
            <DistanceMeters>NAN</DistanceMeters>
          </Trackpoint>
          <Trackpoint>
            <Time>2022-07-15T16:08:47.000Z</Time>
            <Position>
              <LatitudeDegrees>43.4030930511653423309326171875</LatitudeDegrees>
              <LongitudeDegrees>-4.709421582520008087158203125</LongitudeDegrees>
            </Position>
            <AltitudeMeters>39.40000152587890625</AltitudeMeters>
            <DistanceMeters>NAN</DistanceMeters>
          </Trackpoint>
          <Trackpoint>
            <Time>2022-07-15T16:08:50.000Z</Time>
            <Position>
              <LatitudeDegrees>43.40309615246951580047607421875</LatitudeDegrees>
              <LongitudeDegrees>-4.70947095192968845367431640625</LongitudeDegrees>
            </Position>
            <AltitudeMeters>39.799999237060546875</AltitudeMeters>
            <DistanceMeters>NAN</DistanceMeters>
          </Trackpoint>
          <Trackpoint>
            <Time>2022-07-15T16:08:54.000Z</Time>
            <Position>
              <LatitudeDegrees>43.4031098149716854095458984375</LatitudeDegrees>
              <LongitudeDegrees>-4.70953859388828277587890625</LongitudeDegrees>
            </Position>
            <AltitudeMeters>40.40000152587890625</AltitudeMeters>
            <DistanceMeters>NAN</DistanceMeters>
          </Trackpoint>
          <Trackpoint>
            <Time>2022-07-15T16:08:57.000Z</Time>
            <Position>
              <LatitudeDegrees>43.40311643667519092559814453125</LatitudeDegrees>
              <LongitudeDegrees>-4.70959031023085117340087890625</LongitudeDegrees>
            </Position>
            <AltitudeMeters>41</AltitudeMeters>
            <DistanceMeters>NAN</DistanceMeters>
          </Trackpoint>
          <Trackpoint>
            <Time>2022-07-15T16:09:01.000Z</Time>
            <Position>
              <LatitudeDegrees>43.40310805477201938629150390625</LatitudeDegrees>
              <LongitudeDegrees>-4.709650240838527679443359375</LongitudeDegrees>
            </Position>
            <AltitudeMeters>41.59999847412109375</AltitudeMeters>
            <DistanceMeters>NAN</DistanceMeters>
          </Trackpoint>
          <Trackpoint>
            <Time>2022-07-15T16:09:05.000Z</Time>
            <Position>
              <LatitudeDegrees>43.403118364512920379638671875</LatitudeDegrees>
              <LongitudeDegrees>-4.7096926532685756683349609375</LongitudeDegrees>
            </Position>
            <AltitudeMeters>42.200000762939453125</AltitudeMeters>
            <DistanceMeters>NAN</DistanceMeters>
          </Trackpoint>
          <Trackpoint>
            <Time>2022-07-15T16:09:10.000Z</Time>
            <Position>
              <LatitudeDegrees>43.4031346254050731658935546875</LatitudeDegrees>
              <LongitudeDegrees>-4.7097556851804256439208984375</LongitudeDegrees>
            </Position>
            <AltitudeMeters>42.59999847412109375</AltitudeMeters>
            <DistanceMeters>NAN</DistanceMeters>
          </Trackpoint>
          <Trackpoint>
            <Time>2022-07-15T16:09:15.000Z</Time>
            <Position>
              <LatitudeDegrees>43.403152562677860260009765625</LatitudeDegrees>
              <LongitudeDegrees>-4.7098529152572154998779296875</LongitudeDegrees>
            </Position>
            <AltitudeMeters>43.200000762939453125</AltitudeMeters>
            <DistanceMeters>NAN</DistanceMeters>
          </Trackpoint>
          <Trackpoint>
            <Time>2022-07-15T16:09:20.000Z</Time>
            <Position>
              <LatitudeDegrees>43.40318567119538784027099609375</LatitudeDegrees>
              <LongitudeDegrees>-4.70997302792966365814208984375</LongitudeDegrees>
            </Position>
            <AltitudeMeters>43.799999237060546875</AltitudeMeters>
            <DistanceMeters>NAN</DistanceMeters>
          </Trackpoint>
          <Trackpoint>
            <Time>2022-07-15T16:09:23.000Z</Time>
            <Position>
              <LatitudeDegrees>43.40321903117001056671142578125</LatitudeDegrees>
              <LongitudeDegrees>-4.71004243008792400360107421875</LongitudeDegrees>
            </Position>
            <AltitudeMeters>44.200000762939453125</AltitudeMeters>
            <DistanceMeters>NAN</DistanceMeters>
          </Trackpoint>
          <Trackpoint>
            <Time>2022-07-15T16:09:24.000Z</Time>
            <Position>
              <LatitudeDegrees>43.403220959007740020751953125</LatitudeDegrees>
              <LongitudeDegrees>-4.71006841398775577545166015625</LongitudeDegrees>
            </Position>
            <AltitudeMeters>44.200000762939453125</AltitudeMeters>
            <DistanceMeters>NAN</DistanceMeters>
          </Trackpoint>
          <Trackpoint>
            <Time>2022-07-15T16:09:25.000Z</Time>
            <Position>
              <LatitudeDegrees>43.4032261557877063751220703125</LatitudeDegrees>
              <LongitudeDegrees>-4.7100969962775707244873046875</LongitudeDegrees>
            </Position>
            <AltitudeMeters>44.40000152587890625</AltitudeMeters>
            <DistanceMeters>NAN</DistanceMeters>
          </Trackpoint>
          <Trackpoint>
            <Time>2022-07-15T16:09:26.000Z</Time>
            <Position>
              <LatitudeDegrees>43.40323747135698795318603515625</LatitudeDegrees>
              <LongitudeDegrees>-4.7101254947483539581298828125</LongitudeDegrees>
            </Position>
            <AltitudeMeters>44.40000152587890625</AltitudeMeters>
            <DistanceMeters>NAN</DistanceMeters>
          </Trackpoint>
          <Trackpoint>
            <Time>2022-07-15T16:09:29.000Z</Time>
            <Position>
              <LatitudeDegrees>43.4032958932220935821533203125</LatitudeDegrees>
              <LongitudeDegrees>-4.7102136723697185516357421875</LongitudeDegrees>
            </Position>
            <AltitudeMeters>44.200000762939453125</AltitudeMeters>
            <DistanceMeters>NAN</DistanceMeters>
          </Trackpoint>
          <Trackpoint>
            <Time>2022-07-15T16:09:33.000Z</Time>
            <Position>
              <LatitudeDegrees>43.40344618074595928192138671875</LatitudeDegrees>
              <LongitudeDegrees>-4.7103189490735530853271484375</LongitudeDegrees>
            </Position>
            <AltitudeMeters>43.799999237060546875</AltitudeMeters>
            <DistanceMeters>NAN</DistanceMeters>
          </Trackpoint>
          <Trackpoint>
            <Time>2022-07-15T16:09:37.000Z</Time>
            <Position>
              <LatitudeDegrees>43.40358783490955829620361328125</LatitudeDegrees>
              <LongitudeDegrees>-4.7104621119797229766845703125</LongitudeDegrees>
            </Position>
            <AltitudeMeters>43.59999847412109375</AltitudeMeters>
            <DistanceMeters>NAN</DistanceMeters>
          </Trackpoint>
          <Trackpoint>
            <Time>2022-07-15T16:09:41.000Z</Time>
            <Position>
              <LatitudeDegrees>43.40363075025379657745361328125</LatitudeDegrees>
              <LongitudeDegrees>-4.71061508171260356903076171875</LongitudeDegrees>
            </Position>
            <AltitudeMeters>43.799999237060546875</AltitudeMeters>
            <DistanceMeters>NAN</DistanceMeters>
          </Trackpoint>
          <Trackpoint>
            <Time>2022-07-15T16:09:46.000Z</Time>
            <Position>
              <LatitudeDegrees>43.403612561523914337158203125</LatitudeDegrees>
              <LongitudeDegrees>-4.71080870367586612701416015625</LongitudeDegrees>
            </Position>
            <AltitudeMeters>44.40000152587890625</AltitudeMeters>
            <DistanceMeters>NAN</DistanceMeters>
          </Trackpoint>
          <Trackpoint>
            <Time>2022-07-15T16:09:47.000Z</Time>
            <Position>
              <LatitudeDegrees>43.40361231006681919097900390625</LatitudeDegrees>
              <LongitudeDegrees>-4.71084290184080600738525390625</LongitudeDegrees>
            </Position>
            <AltitudeMeters>44.59999847412109375</AltitudeMeters>
            <DistanceMeters>NAN</DistanceMeters>
          </Trackpoint>
          <Trackpoint>
            <Time>2022-07-15T16:09:50.000Z</Time>
            <Position>
              <LatitudeDegrees>43.4036140702664852142333984375</LatitudeDegrees>
              <LongitudeDegrees>-4.7109358571469783782958984375</LongitudeDegrees>
            </Position>
            <AltitudeMeters>44.799999237060546875</AltitudeMeters>
            <DistanceMeters>NAN</DistanceMeters>
          </Trackpoint>
          <Trackpoint>
            <Time>2022-07-15T16:09:53.000Z</Time>
            <Position>
              <LatitudeDegrees>43.4036097116768360137939453125</LatitudeDegrees>
              <LongitudeDegrees>-4.71103820018470287322998046875</LongitudeDegrees>
            </Position>
            <AltitudeMeters>45.200000762939453125</AltitudeMeters>
            <DistanceMeters>NAN</DistanceMeters>
          </Trackpoint>
          <Trackpoint>
            <Time>2022-07-15T16:09:56.000Z</Time>
            <Position>
              <LatitudeDegrees>43.4036127291619777679443359375</LatitudeDegrees>
              <LongitudeDegrees>-4.7111601568758487701416015625</LongitudeDegrees>
            </Position>
            <AltitudeMeters>45.200000762939453125</AltitudeMeters>
            <DistanceMeters>NAN</DistanceMeters>
          </Trackpoint>
          <Trackpoint>
            <Time>2022-07-15T16:10:00.000Z</Time>
            <Position>
              <LatitudeDegrees>43.40359152294695377349853515625</LatitudeDegrees>
              <LongitudeDegrees>-4.71128663979470729827880859375</LongitudeDegrees>
            </Position>
            <AltitudeMeters>45.799999237060546875</AltitudeMeters>
            <DistanceMeters>NAN</DistanceMeters>
          </Trackpoint>
          <Trackpoint>
            <Time>2022-07-15T16:10:03.000Z</Time>
            <Position>
              <LatitudeDegrees>43.40357593260705471038818359375</LatitudeDegrees>
              <LongitudeDegrees>-4.7113851271569728851318359375</LongitudeDegrees>
            </Position>
            <AltitudeMeters>46.40000152587890625</AltitudeMeters>
            <DistanceMeters>NAN</DistanceMeters>
          </Trackpoint>
          <Trackpoint>
            <Time>2022-07-15T16:10:06.000Z</Time>
            <Position>
              <LatitudeDegrees>43.403567634522914886474609375</LatitudeDegrees>
              <LongitudeDegrees>-4.71150465309619903564453125</LongitudeDegrees>
            </Position>
            <AltitudeMeters>46.59999847412109375</AltitudeMeters>
            <DistanceMeters>NAN</DistanceMeters>
          </Trackpoint>
          <Trackpoint>
            <Time>2022-07-15T16:10:10.000Z</Time>
            <Position>
              <LatitudeDegrees>43.403554894030094146728515625</LatitudeDegrees>
              <LongitudeDegrees>-4.71169416792690753936767578125</LongitudeDegrees>
            </Position>
            <AltitudeMeters>46.59999847412109375</AltitudeMeters>
            <DistanceMeters>NAN</DistanceMeters>
          </Trackpoint>
          <Trackpoint>
            <Time>2022-07-15T16:10:15.000Z</Time>
            <Position>
              <LatitudeDegrees>43.40349378995597362518310546875</LatitudeDegrees>
              <LongitudeDegrees>-4.7119641490280628204345703125</LongitudeDegrees>
            </Position>
            <AltitudeMeters>45.40000152587890625</AltitudeMeters>
            <DistanceMeters>NAN</DistanceMeters>
          </Trackpoint>
          <Trackpoint>
            <Time>2022-07-15T16:10:16.000Z</Time>
            <Position>
              <LatitudeDegrees>43.403489179909229278564453125</LatitudeDegrees>
              <LongitudeDegrees>-4.71202902495861053466796875</LongitudeDegrees>
            </Position>
            <AltitudeMeters>45.200000762939453125</AltitudeMeters>
            <DistanceMeters>NAN</DistanceMeters>
          </Trackpoint>
          <Trackpoint>
            <Time>2022-07-15T16:10:18.000Z</Time>
            <Position>
              <LatitudeDegrees>43.40351625345647335052490234375</LatitudeDegrees>
              <LongitudeDegrees>-4.71216690726578235626220703125</LongitudeDegrees>
            </Position>
            <AltitudeMeters>44.799999237060546875</AltitudeMeters>
            <DistanceMeters>NAN</DistanceMeters>
          </Trackpoint>
          <Trackpoint>
            <Time>2022-07-15T16:10:19.000Z</Time>
            <Position>
              <LatitudeDegrees>43.403538800776004791259765625</LatitudeDegrees>
              <LongitudeDegrees>-4.712231196463108062744140625</LongitudeDegrees>
            </Position>
            <AltitudeMeters>44.799999237060546875</AltitudeMeters>
            <DistanceMeters>NAN</DistanceMeters>
          </Trackpoint>
          <Trackpoint>
            <Time>2022-07-15T16:10:20.000Z</Time>
            <Position>
              <LatitudeDegrees>43.40356461703777313232421875</LatitudeDegrees>
              <LongitudeDegrees>-4.7122853435575962066650390625</LongitudeDegrees>
            </Position>
            <AltitudeMeters>44.59999847412109375</AltitudeMeters>
            <DistanceMeters>NAN</DistanceMeters>
          </Trackpoint>
          <Trackpoint>
            <Time>2022-07-15T16:10:23.000Z</Time>
            <Position>
              <LatitudeDegrees>43.40365522541105747222900390625</LatitudeDegrees>
              <LongitudeDegrees>-4.7124459408223628997802734375</LongitudeDegrees>
            </Position>
            <AltitudeMeters>44.200000762939453125</AltitudeMeters>
            <DistanceMeters>NAN</DistanceMeters>
          </Trackpoint>
          <Trackpoint>
            <Time>2022-07-15T16:10:24.000Z</Time>
            <Position>
              <LatitudeDegrees>43.403672911226749420166015625</LatitudeDegrees>
              <LongitudeDegrees>-4.71250168047845363616943359375</LongitudeDegrees>
            </Position>
            <AltitudeMeters>43.799999237060546875</AltitudeMeters>
            <DistanceMeters>NAN</DistanceMeters>
          </Trackpoint>
          <Trackpoint>
            <Time>2022-07-15T16:10:28.000Z</Time>
            <Position>
              <LatitudeDegrees>43.403706438839435577392578125</LatitudeDegrees>
              <LongitudeDegrees>-4.7126621939241886138916015625</LongitudeDegrees>
            </Position>
            <AltitudeMeters>43.40000152587890625</AltitudeMeters>
            <DistanceMeters>NAN</DistanceMeters>
          </Trackpoint>
          <Trackpoint>
            <Time>2022-07-15T16:10:35.000Z</Time>
            <Position>
              <LatitudeDegrees>43.40385957621037960052490234375</LatitudeDegrees>
              <LongitudeDegrees>-4.71288674511015415191650390625</LongitudeDegrees>
            </Position>
            <AltitudeMeters>44.799999237060546875</AltitudeMeters>
            <DistanceMeters>NAN</DistanceMeters>
          </Trackpoint>
          <Trackpoint>
            <Time>2022-07-15T16:10:37.000Z</Time>
            <Position>
              <LatitudeDegrees>43.40390886180102825164794921875</LatitudeDegrees>
              <LongitudeDegrees>-4.712925218045711517333984375</LongitudeDegrees>
            </Position>
            <AltitudeMeters>45.40000152587890625</AltitudeMeters>
            <DistanceMeters>NAN</DistanceMeters>
          </Trackpoint>
          <Trackpoint>
            <Time>2022-07-15T16:10:41.000Z</Time>
            <Position>
              <LatitudeDegrees>43.4039962850511074066162109375</LatitudeDegrees>
              <LongitudeDegrees>-4.712975509464740753173828125</LongitudeDegrees>
            </Position>
            <AltitudeMeters>46.40000152587890625</AltitudeMeters>
            <DistanceMeters>NAN</DistanceMeters>
          </Trackpoint>
          <Trackpoint>
            <Time>2022-07-15T16:10:42.000Z</Time>
            <Position>
              <LatitudeDegrees>43.40402101166546344757080078125</LatitudeDegrees>
              <LongitudeDegrees>-4.71297852694988250732421875</LongitudeDegrees>
            </Position>
            <AltitudeMeters>46.59999847412109375</AltitudeMeters>
            <DistanceMeters>NAN</DistanceMeters>
          </Trackpoint>
          <Trackpoint>
            <Time>2022-07-15T16:10:46.000Z</Time>
            <Position>
              <LatitudeDegrees>43.40411958284676074981689453125</LatitudeDegrees>
              <LongitudeDegrees>-4.7130132280290126800537109375</LongitudeDegrees>
            </Position>
            <AltitudeMeters>47.200000762939453125</AltitudeMeters>
            <DistanceMeters>NAN</DistanceMeters>
          </Trackpoint>
          <Trackpoint>
            <Time>2022-07-15T16:10:51.000Z</Time>
            <Position>
              <LatitudeDegrees>43.4042400307953357696533203125</LatitudeDegrees>
              <LongitudeDegrees>-4.71315697766840457916259765625</LongitudeDegrees>
            </Position>
            <AltitudeMeters>47</AltitudeMeters>
            <DistanceMeters>NAN</DistanceMeters>
          </Trackpoint>
          <Trackpoint>
            <Time>2022-07-15T16:10:56.000Z</Time>
            <Position>
              <LatitudeDegrees>43.4042812697589397430419921875</LatitudeDegrees>
              <LongitudeDegrees>-4.71334205009043216705322265625</LongitudeDegrees>
            </Position>
            <AltitudeMeters>47</AltitudeMeters>
            <DistanceMeters>NAN</DistanceMeters>
          </Trackpoint>
          <Trackpoint>
            <Time>2022-07-15T16:11:01.000Z</Time>
            <Position>
              <LatitudeDegrees>43.4043386019766330718994140625</LatitudeDegrees>
              <LongitudeDegrees>-4.713450260460376739501953125</LongitudeDegrees>
            </Position>
            <AltitudeMeters>47.200000762939453125</AltitudeMeters>
            <DistanceMeters>NAN</DistanceMeters>
          </Trackpoint>
          <Trackpoint>
            <Time>2022-07-15T16:11:07.000Z</Time>
            <Position>
              <LatitudeDegrees>43.40449609793722629547119140625</LatitudeDegrees>
              <LongitudeDegrees>-4.7135158069431781768798828125</LongitudeDegrees>
            </Position>
            <AltitudeMeters>47.40000152587890625</AltitudeMeters>
            <DistanceMeters>NAN</DistanceMeters>
          </Trackpoint>
          <Trackpoint>
            <Time>2022-07-15T16:11:14.000Z</Time>
            <Position>
              <LatitudeDegrees>43.40465820394456386566162109375</LatitudeDegrees>
              <LongitudeDegrees>-4.713654108345508575439453125</LongitudeDegrees>
            </Position>
            <AltitudeMeters>47.799999237060546875</AltitudeMeters>
            <DistanceMeters>NAN</DistanceMeters>
          </Trackpoint>
          <Trackpoint>
            <Time>2022-07-15T16:11:15.000Z</Time>
            <Position>
              <LatitudeDegrees>43.40468712151050567626953125</LatitudeDegrees>
              <LongitudeDegrees>-4.71367430873215198516845703125</LongitudeDegrees>
            </Position>
            <AltitudeMeters>47.799999237060546875</AltitudeMeters>
            <DistanceMeters>NAN</DistanceMeters>
          </Trackpoint>
          <Trackpoint>
            <Time>2022-07-15T16:11:21.000Z</Time>
            <Position>
              <LatitudeDegrees>43.40480086393654346466064453125</LatitudeDegrees>
              <LongitudeDegrees>-4.71383255906403064727783203125</LongitudeDegrees>
            </Position>
            <AltitudeMeters>48.40000152587890625</AltitudeMeters>
            <DistanceMeters>NAN</DistanceMeters>
          </Trackpoint>
          <Trackpoint>
            <Time>2022-07-15T16:11:25.000Z</Time>
            <Position>
              <LatitudeDegrees>43.4048549272119998931884765625</LatitudeDegrees>
              <LongitudeDegrees>-4.7139885462820529937744140625</LongitudeDegrees>
            </Position>
            <AltitudeMeters>48.59999847412109375</AltitudeMeters>
            <DistanceMeters>NAN</DistanceMeters>
          </Trackpoint>
          <Trackpoint>
            <Time>2022-07-15T16:11:26.000Z</Time>
            <Position>
              <LatitudeDegrees>43.40487076900899410247802734375</LatitudeDegrees>
              <LongitudeDegrees>-4.71401880495250225067138671875</LongitudeDegrees>
            </Position>
            <AltitudeMeters>48.799999237060546875</AltitudeMeters>
            <DistanceMeters>NAN</DistanceMeters>
          </Trackpoint>
          <Trackpoint>
            <Time>2022-07-15T16:11:27.000Z</Time>
            <Position>
              <LatitudeDegrees>43.404886610805988311767578125</LatitudeDegrees>
              <LongitudeDegrees>-4.714046381413936614990234375</LongitudeDegrees>
            </Position>
            <AltitudeMeters>48.799999237060546875</AltitudeMeters>
            <DistanceMeters>NAN</DistanceMeters>
          </Trackpoint>
          <Trackpoint>
            <Time>2022-07-15T16:11:33.000Z</Time>
            <Position>
              <LatitudeDegrees>43.40496481396257877349853515625</LatitudeDegrees>
              <LongitudeDegrees>-4.71419624984264373779296875</LongitudeDegrees>
            </Position>
            <AltitudeMeters>49.59999847412109375</AltitudeMeters>
            <DistanceMeters>NAN</DistanceMeters>
          </Trackpoint>
          <Trackpoint>
            <Time>2022-07-15T16:11:37.000Z</Time>
            <Position>
              <LatitudeDegrees>43.40501644648611545562744140625</LatitudeDegrees>
              <LongitudeDegrees>-4.71432943828403949737548828125</LongitudeDegrees>
            </Position>
            <AltitudeMeters>49.799999237060546875</AltitudeMeters>
            <DistanceMeters>NAN</DistanceMeters>
          </Trackpoint>
          <Trackpoint>
            <Time>2022-07-15T16:11:41.000Z</Time>
            <Position>
              <LatitudeDegrees>43.40509238652884960174560546875</LatitudeDegrees>
              <LongitudeDegrees>-4.714474193751811981201171875</LongitudeDegrees>
            </Position>
            <AltitudeMeters>50</AltitudeMeters>
            <DistanceMeters>NAN</DistanceMeters>
          </Trackpoint>
          <Trackpoint>
            <Time>2022-07-15T16:11:48.000Z</Time>
            <Position>
              <LatitudeDegrees>43.40517620556056499481201171875</LatitudeDegrees>
              <LongitudeDegrees>-4.71475012600421905517578125</LongitudeDegrees>
            </Position>
            <AltitudeMeters>50.200000762939453125</AltitudeMeters>
            <DistanceMeters>NAN</DistanceMeters>
          </Trackpoint>
          <Trackpoint>
            <Time>2022-07-15T16:11:54.000Z</Time>
            <Position>
              <LatitudeDegrees>43.40525038540363311767578125</LatitudeDegrees>
              <LongitudeDegrees>-4.71495799720287322998046875</LongitudeDegrees>
            </Position>
            <AltitudeMeters>50.40000152587890625</AltitudeMeters>
            <DistanceMeters>NAN</DistanceMeters>
          </Trackpoint>
          <Trackpoint>
            <Time>2022-07-15T16:12:03.000Z</Time>
            <Position>
              <LatitudeDegrees>43.40542330406606197357177734375</LatitudeDegrees>
              <LongitudeDegrees>-4.71529117785394191741943359375</LongitudeDegrees>
            </Position>
            <AltitudeMeters>50.59999847412109375</AltitudeMeters>
            <DistanceMeters>NAN</DistanceMeters>
          </Trackpoint>
          <Trackpoint>
            <Time>2022-07-15T16:12:04.000Z</Time>
            <Position>
              <LatitudeDegrees>43.40544627048075199127197265625</LatitudeDegrees>
              <LongitudeDegrees>-4.7153058461844921112060546875</LongitudeDegrees>
            </Position>
            <AltitudeMeters>50.59999847412109375</AltitudeMeters>
            <DistanceMeters>NAN</DistanceMeters>
          </Trackpoint>
          <Trackpoint>
            <Time>2022-07-15T16:12:06.000Z</Time>
            <Position>
              <LatitudeDegrees>43.40549807064235210418701171875</LatitudeDegrees>
              <LongitudeDegrees>-4.71533082425594329833984375</LongitudeDegrees>
            </Position>
            <AltitudeMeters>51</AltitudeMeters>
            <DistanceMeters>NAN</DistanceMeters>
          </Trackpoint>
          <Trackpoint>
            <Time>2022-07-15T16:12:13.000Z</Time>
            <Position>
              <LatitudeDegrees>43.40566344559192657470703125</LatitudeDegrees>
              <LongitudeDegrees>-4.715376086533069610595703125</LongitudeDegrees>
            </Position>
            <AltitudeMeters>51.40000152587890625</AltitudeMeters>
            <DistanceMeters>NAN</DistanceMeters>
          </Trackpoint>
          <Trackpoint>
            <Time>2022-07-15T16:12:19.000Z</Time>
            <Position>
              <LatitudeDegrees>43.40581239201128482818603515625</LatitudeDegrees>
              <LongitudeDegrees>-4.71545663662254810333251953125</LongitudeDegrees>
            </Position>
            <AltitudeMeters>52</AltitudeMeters>
            <DistanceMeters>NAN</DistanceMeters>
          </Trackpoint>
          <Trackpoint>
            <Time>2022-07-15T16:12:22.000Z</Time>
            <Position>
              <LatitudeDegrees>43.40587089769542217254638671875</LatitudeDegrees>
              <LongitudeDegrees>-4.71549988724291324615478515625</LongitudeDegrees>
            </Position>
            <AltitudeMeters>52.200000762939453125</AltitudeMeters>
            <DistanceMeters>NAN</DistanceMeters>
          </Trackpoint>
          <Trackpoint>
            <Time>2022-07-15T16:12:28.000Z</Time>
            <Position>
              <LatitudeDegrees>43.40597181580960750579833984375</LatitudeDegrees>
              <LongitudeDegrees>-4.71556861884891986846923828125</LongitudeDegrees>
            </Position>
            <AltitudeMeters>52.40000152587890625</AltitudeMeters>
            <DistanceMeters>NAN</DistanceMeters>
          </Trackpoint>
          <Trackpoint>
            <Time>2022-07-15T16:12:32.000Z</Time>
            <Position>
              <LatitudeDegrees>43.406032584607601165771484375</LatitudeDegrees>
              <LongitudeDegrees>-4.71564196050167083740234375</LongitudeDegrees>
            </Position>
            <AltitudeMeters>52.799999237060546875</AltitudeMeters>
            <DistanceMeters>NAN</DistanceMeters>
          </Trackpoint>
          <Trackpoint>
            <Time>2022-07-15T16:12:33.000Z</Time>
            <Position>
              <LatitudeDegrees>43.40605236589908599853515625</LatitudeDegrees>
              <LongitudeDegrees>-4.71565713174641132354736328125</LongitudeDegrees>
            </Position>
            <AltitudeMeters>53</AltitudeMeters>
            <DistanceMeters>NAN</DistanceMeters>
          </Trackpoint>
          <Trackpoint>
            <Time>2022-07-15T16:12:38.000Z</Time>
            <Position>
              <LatitudeDegrees>43.406133837997913360595703125</LatitudeDegrees>
              <LongitudeDegrees>-4.715730138123035430908203125</LongitudeDegrees>
            </Position>
            <AltitudeMeters>54.200000762939453125</AltitudeMeters>
            <DistanceMeters>NAN</DistanceMeters>
          </Trackpoint>
          <Trackpoint>
            <Time>2022-07-15T16:12:40.000Z</Time>
            <Position>
              <LatitudeDegrees>43.4061732329428195953369140625</LatitudeDegrees>
              <LongitudeDegrees>-4.71576240845024585723876953125</LongitudeDegrees>
            </Position>
            <AltitudeMeters>54.59999847412109375</AltitudeMeters>
            <DistanceMeters>NAN</DistanceMeters>
          </Trackpoint>
          <Trackpoint>
            <Time>2022-07-15T16:12:45.000Z</Time>
            <Position>
              <LatitudeDegrees>43.40626887045800685882568359375</LatitudeDegrees>
              <LongitudeDegrees>-4.71576592884957790374755859375</LongitudeDegrees>
            </Position>
            <AltitudeMeters>55</AltitudeMeters>
            <DistanceMeters>NAN</DistanceMeters>
          </Trackpoint>
          <Trackpoint>
            <Time>2022-07-15T16:12:48.000Z</Time>
            <Position>
              <LatitudeDegrees>43.40636274777352809906005859375</LatitudeDegrees>
              <LongitudeDegrees>-4.71579073928296566009521484375</LongitudeDegrees>
            </Position>
            <AltitudeMeters>55</AltitudeMeters>
            <DistanceMeters>NAN</DistanceMeters>
          </Trackpoint>
          <Trackpoint>
            <Time>2022-07-15T16:12:50.000Z</Time>
            <Position>
              <LatitudeDegrees>43.406400717794895172119140625</LatitudeDegrees>
              <LongitudeDegrees>-4.71580901183187961578369140625</LongitudeDegrees>
            </Position>
            <AltitudeMeters>55.40000152587890625</AltitudeMeters>
            <DistanceMeters>NAN</DistanceMeters>
          </Trackpoint>
          <Trackpoint>
            <Time>2022-07-15T16:12:53.000Z</Time>
            <Position>
              <LatitudeDegrees>43.40645561926066875457763671875</LatitudeDegrees>
              <LongitudeDegrees>-4.71582560800015926361083984375</LongitudeDegrees>
            </Position>
            <AltitudeMeters>56</AltitudeMeters>
            <DistanceMeters>NAN</DistanceMeters>
          </Trackpoint>
          <Trackpoint>
            <Time>2022-07-15T16:12:55.000Z</Time>
            <Position>
              <LatitudeDegrees>43.40649635531008243560791015625</LatitudeDegrees>
              <LongitudeDegrees>-4.71583105623722076416015625</LongitudeDegrees>
            </Position>
            <AltitudeMeters>56.40000152587890625</AltitudeMeters>
            <DistanceMeters>NAN</DistanceMeters>
          </Trackpoint>
          <Trackpoint>
            <Time>2022-07-15T16:13:00.000Z</Time>
            <Position>
              <LatitudeDegrees>43.40659844689071178436279296875</LatitudeDegrees>
              <LongitudeDegrees>-4.71584807150065898895263671875</LongitudeDegrees>
            </Position>
            <AltitudeMeters>57.40000152587890625</AltitudeMeters>
            <DistanceMeters>NAN</DistanceMeters>
          </Trackpoint>
          <Trackpoint>
            <Time>2022-07-15T16:13:01.000Z</Time>
            <Position>
              <LatitudeDegrees>43.40661940164864063262939453125</LatitudeDegrees>
              <LongitudeDegrees>-4.71585142426192760467529296875</LongitudeDegrees>
            </Position>
            <AltitudeMeters>57.59999847412109375</AltitudeMeters>
            <DistanceMeters>NAN</DistanceMeters>
          </Trackpoint>
          <Trackpoint>
            <Time>2022-07-15T16:13:08.000Z</Time>
            <Position>
              <LatitudeDegrees>43.40673523955047130584716796875</LatitudeDegrees>
              <LongitudeDegrees>-4.7158634103834629058837890625</LongitudeDegrees>
            </Position>
            <AltitudeMeters>58.59999847412109375</AltitudeMeters>
            <DistanceMeters>NAN</DistanceMeters>
          </Trackpoint>
          <Trackpoint>
            <Time>2022-07-15T16:13:15.000Z</Time>
            <Position>
              <LatitudeDegrees>43.40684101916849613189697265625</LatitudeDegrees>
              <LongitudeDegrees>-4.715950079262256622314453125</LongitudeDegrees>
            </Position>
            <AltitudeMeters>59.799999237060546875</AltitudeMeters>
            <DistanceMeters>NAN</DistanceMeters>
          </Trackpoint>
          <Trackpoint>
            <Time>2022-07-15T16:13:16.000Z</Time>
            <Position>
              <LatitudeDegrees>43.40685107745230197906494140625</LatitudeDegrees>
              <LongitudeDegrees>-4.71596592105925083160400390625</LongitudeDegrees>
            </Position>
            <AltitudeMeters>60</AltitudeMeters>
            <DistanceMeters>NAN</DistanceMeters>
          </Trackpoint>
          <Trackpoint>
            <Time>2022-07-15T16:13:21.000Z</Time>
            <Position>
              <LatitudeDegrees>43.4069061465561389923095703125</LatitudeDegrees>
              <LongitudeDegrees>-4.71605309285223484039306640625</LongitudeDegrees>
            </Position>
            <AltitudeMeters>60.799999237060546875</AltitudeMeters>
            <DistanceMeters>NAN</DistanceMeters>
          </Trackpoint>
          <Trackpoint>
            <Time>2022-07-15T16:13:22.000Z</Time>
            <Position>
              <LatitudeDegrees>43.4069219045341014862060546875</LatitudeDegrees>
              <LongitudeDegrees>-4.71607253886759281158447265625</LongitudeDegrees>
            </Position>
            <AltitudeMeters>60.799999237060546875</AltitudeMeters>
            <DistanceMeters>NAN</DistanceMeters>
          </Trackpoint>
          <Trackpoint>
            <Time>2022-07-15T16:13:25.000Z</Time>
            <Position>
              <LatitudeDegrees>43.406968005001544952392578125</LatitudeDegrees>
              <LongitudeDegrees>-4.71613070927560329437255859375</LongitudeDegrees>
            </Position>
            <AltitudeMeters>61.40000152587890625</AltitudeMeters>
            <DistanceMeters>NAN</DistanceMeters>
          </Trackpoint>
          <Trackpoint>
            <Time>2022-07-15T16:13:29.000Z</Time>
            <Position>
              <LatitudeDegrees>43.40700857341289520263671875</LatitudeDegrees>
              <LongitudeDegrees>-4.71621402539312839508056640625</LongitudeDegrees>
            </Position>
            <AltitudeMeters>62</AltitudeMeters>
            <DistanceMeters>NAN</DistanceMeters>
          </Trackpoint>
          <Trackpoint>
            <Time>2022-07-15T16:13:36.000Z</Time>
            <Position>
              <LatitudeDegrees>43.4070922248065471649169921875</LatitudeDegrees>
              <LongitudeDegrees>-4.716366827487945556640625</LongitudeDegrees>
            </Position>
            <AltitudeMeters>62.799999237060546875</AltitudeMeters>
            <DistanceMeters>NAN</DistanceMeters>
          </Trackpoint>
          <Trackpoint>
            <Time>2022-07-15T16:13:39.000Z</Time>
            <Position>
              <LatitudeDegrees>43.40710253454744815826416015625</LatitudeDegrees>
              <LongitudeDegrees>-4.7164360620081424713134765625</LongitudeDegrees>
            </Position>
            <AltitudeMeters>63</AltitudeMeters>
            <DistanceMeters>NAN</DistanceMeters>
          </Trackpoint>
          <Trackpoint>
            <Time>2022-07-15T16:13:43.000Z</Time>
            <Position>
              <LatitudeDegrees>43.40711678378283977508544921875</LatitudeDegrees>
              <LongitudeDegrees>-4.7165574319660663604736328125</LongitudeDegrees>
            </Position>
            <AltitudeMeters>63.40000152587890625</AltitudeMeters>
            <DistanceMeters>NAN</DistanceMeters>
          </Trackpoint>
          <Trackpoint>
            <Time>2022-07-15T16:13:49.000Z</Time>
            <Position>
              <LatitudeDegrees>43.40715299360454082489013671875</LatitudeDegrees>
              <LongitudeDegrees>-4.7167230583727359771728515625</LongitudeDegrees>
            </Position>
            <AltitudeMeters>63.799999237060546875</AltitudeMeters>
            <DistanceMeters>NAN</DistanceMeters>
          </Trackpoint>
          <Trackpoint>
            <Time>2022-07-15T16:13:52.000Z</Time>
            <Position>
              <LatitudeDegrees>43.4071492217481136322021484375</LatitudeDegrees>
              <LongitudeDegrees>-4.71681542694568634033203125</LongitudeDegrees>
            </Position>
            <AltitudeMeters>64</AltitudeMeters>
            <DistanceMeters>NAN</DistanceMeters>
          </Trackpoint>
          <Trackpoint>
            <Time>2022-07-15T16:13:56.000Z</Time>
            <Position>
              <LatitudeDegrees>43.40715383179485797882080078125</LatitudeDegrees>
              <LongitudeDegrees>-4.7169218771159648895263671875</LongitudeDegrees>
            </Position>
            <AltitudeMeters>64.59999847412109375</AltitudeMeters>
            <DistanceMeters>NAN</DistanceMeters>
          </Trackpoint>
          <Trackpoint>
            <Time>2022-07-15T16:13:58.000Z</Time>
            <Position>
              <LatitudeDegrees>43.40715768747031688690185546875</LatitudeDegrees>
              <LongitudeDegrees>-4.71697174943983554840087890625</LongitudeDegrees>
            </Position>
            <AltitudeMeters>64.8000030517578125</AltitudeMeters>
            <DistanceMeters>NAN</DistanceMeters>
          </Trackpoint>
          <Trackpoint>
            <Time>2022-07-15T16:14:03.000Z</Time>
            <Position>
              <LatitudeDegrees>43.407147713005542755126953125</LatitudeDegrees>
              <LongitudeDegrees>-4.7171082906424999237060546875</LongitudeDegrees>
            </Position>
            <AltitudeMeters>65.1999969482421875</AltitudeMeters>
            <DistanceMeters>NAN</DistanceMeters>
          </Trackpoint>
          <Trackpoint>
            <Time>2022-07-15T16:14:06.000Z</Time>
            <Position>
              <LatitudeDegrees>43.407135307788848876953125</LatitudeDegrees>
              <LongitudeDegrees>-4.717190600931644439697265625</LongitudeDegrees>
            </Position>
            <AltitudeMeters>65.59999847412109375</AltitudeMeters>
            <DistanceMeters>NAN</DistanceMeters>
          </Trackpoint>
          <Trackpoint>
            <Time>2022-07-15T16:14:10.000Z</Time>
            <Position>
              <LatitudeDegrees>43.4071230702102184295654296875</LatitudeDegrees>
              <LongitudeDegrees>-4.7172829695045948028564453125</LongitudeDegrees>
            </Position>
            <AltitudeMeters>66.1999969482421875</AltitudeMeters>
            <DistanceMeters>NAN</DistanceMeters>
          </Trackpoint>
          <Trackpoint>
            <Time>2022-07-15T16:14:14.000Z</Time>
            <Position>
              <LatitudeDegrees>43.4071230702102184295654296875</LatitudeDegrees>
              <LongitudeDegrees>-4.7173704765737056732177734375</LongitudeDegrees>
            </Position>
            <AltitudeMeters>66.59999847412109375</AltitudeMeters>
            <DistanceMeters>NAN</DistanceMeters>
          </Trackpoint>
          <Trackpoint>
            <Time>2022-07-15T16:14:20.000Z</Time>
            <Position>
              <LatitudeDegrees>43.40712885372340679168701171875</LatitudeDegrees>
              <LongitudeDegrees>-4.7175042517483234405517578125</LongitudeDegrees>
            </Position>
            <AltitudeMeters>67.1999969482421875</AltitudeMeters>
            <DistanceMeters>NAN</DistanceMeters>
          </Trackpoint>
          <Trackpoint>
            <Time>2022-07-15T16:14:23.000Z</Time>
            <Position>
              <LatitudeDegrees>43.40712617151439189910888671875</LatitudeDegrees>
              <LongitudeDegrees>-4.71756719984114170074462890625</LongitudeDegrees>
            </Position>
            <AltitudeMeters>67.8000030517578125</AltitudeMeters>
            <DistanceMeters>NAN</DistanceMeters>
          </Trackpoint>
          <Trackpoint>
            <Time>2022-07-15T16:14:28.000Z</Time>
            <Position>
              <LatitudeDegrees>43.4071250818669795989990234375</LatitudeDegrees>
              <LongitudeDegrees>-4.717676080763339996337890625</LongitudeDegrees>
            </Position>
            <AltitudeMeters>68.1999969482421875</AltitudeMeters>
            <DistanceMeters>NAN</DistanceMeters>
          </Trackpoint>
          <Trackpoint>
            <Time>2022-07-15T16:14:33.000Z</Time>
            <Position>
              <LatitudeDegrees>43.40710639022290706634521484375</LatitudeDegrees>
              <LongitudeDegrees>-4.71780558116734027862548828125</LongitudeDegrees>
            </Position>
            <AltitudeMeters>69.1999969482421875</AltitudeMeters>
            <DistanceMeters>NAN</DistanceMeters>
          </Trackpoint>
          <Trackpoint>
            <Time>2022-07-15T16:14:35.000Z</Time>
            <Position>
              <LatitudeDegrees>43.40709867887198925018310546875</LatitudeDegrees>
              <LongitudeDegrees>-4.7178730554878711700439453125</LongitudeDegrees>
            </Position>
            <AltitudeMeters>69.40000152587890625</AltitudeMeters>
            <DistanceMeters>NAN</DistanceMeters>
          </Trackpoint>
          <Trackpoint>
            <Time>2022-07-15T16:14:42.000Z</Time>
            <Position>
              <LatitudeDegrees>43.40708040632307529449462890625</LatitudeDegrees>
              <LongitudeDegrees>-4.71811302937567234039306640625</LongitudeDegrees>
            </Position>
            <AltitudeMeters>69.40000152587890625</AltitudeMeters>
            <DistanceMeters>NAN</DistanceMeters>
          </Trackpoint>
          <Trackpoint>
            <Time>2022-07-15T16:14:49.000Z</Time>
            <Position>
              <LatitudeDegrees>43.407064564526081085205078125</LatitudeDegrees>
              <LongitudeDegrees>-4.71837940625846385955810546875</LongitudeDegrees>
            </Position>
            <AltitudeMeters>69.1999969482421875</AltitudeMeters>
            <DistanceMeters>NAN</DistanceMeters>
          </Trackpoint>
          <Trackpoint>
            <Time>2022-07-15T16:14:52.000Z</Time>
            <Position>
              <LatitudeDegrees>43.40706112794578075408935546875</LatitudeDegrees>
              <LongitudeDegrees>-4.71847680397331714630126953125</LongitudeDegrees>
            </Position>
            <AltitudeMeters>69.1999969482421875</AltitudeMeters>
            <DistanceMeters>NAN</DistanceMeters>
          </Trackpoint>
          <Trackpoint>
            <Time>2022-07-15T16:14:54.000Z</Time>
            <Position>
              <LatitudeDegrees>43.40705727227032184600830078125</LatitudeDegrees>
              <LongitudeDegrees>-4.7185488045215606689453125</LongitudeDegrees>
            </Position>
            <AltitudeMeters>69.40000152587890625</AltitudeMeters>
            <DistanceMeters>NAN</DistanceMeters>
          </Trackpoint>
          <Trackpoint>
            <Time>2022-07-15T16:15:03.000Z</Time>
            <Position>
              <LatitudeDegrees>43.4070332162082195281982421875</LatitudeDegrees>
              <LongitudeDegrees>-4.7188835777342319488525390625</LongitudeDegrees>
            </Position>
            <AltitudeMeters>69.59999847412109375</AltitudeMeters>
            <DistanceMeters>NAN</DistanceMeters>
          </Trackpoint>
          <Trackpoint>
            <Time>2022-07-15T16:15:05.000Z</Time>
            <Position>
              <LatitudeDegrees>43.40703447349369525909423828125</LatitudeDegrees>
              <LongitudeDegrees>-4.71894166432321071624755859375</LongitudeDegrees>
            </Position>
            <AltitudeMeters>69.8000030517578125</AltitudeMeters>
            <DistanceMeters>NAN</DistanceMeters>
          </Trackpoint>
          <Trackpoint>
            <Time>2022-07-15T16:15:07.000Z</Time>
            <Position>
              <LatitudeDegrees>43.40705727227032184600830078125</LatitudeDegrees>
              <LongitudeDegrees>-4.71897519193589687347412109375</LongitudeDegrees>
            </Position>
            <AltitudeMeters>69.8000030517578125</AltitudeMeters>
            <DistanceMeters>NAN</DistanceMeters>
          </Trackpoint>
          <Trackpoint>
            <Time>2022-07-15T16:15:09.000Z</Time>
            <Position>
              <LatitudeDegrees>43.4070804901421070098876953125</LatitudeDegrees>
              <LongitudeDegrees>-4.7189476154744625091552734375</LongitudeDegrees>
            </Position>
            <AltitudeMeters>70.40000152587890625</AltitudeMeters>
            <DistanceMeters>NAN</DistanceMeters>
          </Trackpoint>
          <Trackpoint>
            <Time>2022-07-15T16:15:10.000Z</Time>
            <Position>
              <LatitudeDegrees>43.40708711184561252593994140625</LatitudeDegrees>
              <LongitudeDegrees>-4.7189269959926605224609375</LongitudeDegrees>
            </Position>
            <AltitudeMeters>70.59999847412109375</AltitudeMeters>
            <DistanceMeters>NAN</DistanceMeters>
          </Trackpoint>
          <Trackpoint>
            <Time>2022-07-15T16:15:13.000Z</Time>
            <Position>
              <LatitudeDegrees>43.40710203163325786590576171875</LatitudeDegrees>
              <LongitudeDegrees>-4.718848206102848052978515625</LongitudeDegrees>
            </Position>
            <AltitudeMeters>71</AltitudeMeters>
            <DistanceMeters>NAN</DistanceMeters>
          </Trackpoint>
          <Trackpoint>
            <Time>2022-07-15T16:15:17.000Z</Time>
            <Position>
              <LatitudeDegrees>43.40713639743626117706298828125</LatitudeDegrees>
              <LongitudeDegrees>-4.7187558375298976898193359375</LongitudeDegrees>
            </Position>
            <AltitudeMeters>71.40000152587890625</AltitudeMeters>
            <DistanceMeters>NAN</DistanceMeters>
          </Trackpoint>
          <Trackpoint>
            <Time>2022-07-15T16:15:18.000Z</Time>
            <Position>
              <LatitudeDegrees>43.40714511461555957794189453125</LatitudeDegrees>
              <LongitudeDegrees>-4.718732871115207672119140625</LongitudeDegrees>
            </Position>
            <AltitudeMeters>71.59999847412109375</AltitudeMeters>
            <DistanceMeters>NAN</DistanceMeters>
          </Trackpoint>
          <Trackpoint>
            <Time>2022-07-15T16:15:21.000Z</Time>
            <Position>
              <LatitudeDegrees>43.40715852566063404083251953125</LatitudeDegrees>
              <LongitudeDegrees>-4.718665145337581634521484375</LongitudeDegrees>
            </Position>
            <AltitudeMeters>72</AltitudeMeters>
            <DistanceMeters>NAN</DistanceMeters>
          </Trackpoint>
          <Trackpoint>
            <Time>2022-07-15T16:15:24.000Z</Time>
            <Position>
              <LatitudeDegrees>43.40718970634043216705322265625</LatitudeDegrees>
              <LongitudeDegrees>-4.7186230681836605072021484375</LongitudeDegrees>
            </Position>
            <AltitudeMeters>72.40000152587890625</AltitudeMeters>
            <DistanceMeters>NAN</DistanceMeters>
          </Trackpoint>
          <Trackpoint>
            <Time>2022-07-15T16:15:25.000Z</Time>
            <Position>
              <LatitudeDegrees>43.407206721603870391845703125</LatitudeDegrees>
              <LongitudeDegrees>-4.71860605292022228240966796875</LongitudeDegrees>
            </Position>
            <AltitudeMeters>72.8000030517578125</AltitudeMeters>
            <DistanceMeters>NAN</DistanceMeters>
          </Trackpoint>
          <Trackpoint>
            <Time>2022-07-15T16:15:32.000Z</Time>
            <Position>
              <LatitudeDegrees>43.4072883613407611846923828125</LatitudeDegrees>
              <LongitudeDegrees>-4.718485772609710693359375</LongitudeDegrees>
            </Position>
            <AltitudeMeters>73.59999847412109375</AltitudeMeters>
            <DistanceMeters>NAN</DistanceMeters>
          </Trackpoint>
          <Trackpoint>
            <Time>2022-07-15T16:15:34.000Z</Time>
            <Position>
              <LatitudeDegrees>43.407306969165802001953125</LatitudeDegrees>
              <LongitudeDegrees>-4.7184544242918491363525390625</LongitudeDegrees>
            </Position>
            <AltitudeMeters>73.8000030517578125</AltitudeMeters>
            <DistanceMeters>NAN</DistanceMeters>
          </Trackpoint>
          <Trackpoint>
            <Time>2022-07-15T16:15:40.000Z</Time>
            <Position>
              <LatitudeDegrees>43.40736354701220989227294921875</LatitudeDegrees>
              <LongitudeDegrees>-4.71834923140704631805419921875</LongitudeDegrees>
            </Position>
            <AltitudeMeters>74.59999847412109375</AltitudeMeters>
            <DistanceMeters>NAN</DistanceMeters>
          </Trackpoint>
          <Trackpoint>
            <Time>2022-07-15T16:15:41.000Z</Time>
            <Position>
              <LatitudeDegrees>43.4073721803724765777587890625</LatitudeDegrees>
              <LongitudeDegrees>-4.71833246760070323944091796875</LongitudeDegrees>
            </Position>
            <AltitudeMeters>74.8000030517578125</AltitudeMeters>
            <DistanceMeters>NAN</DistanceMeters>
          </Trackpoint>
          <Trackpoint>
            <Time>2022-07-15T16:15:45.000Z</Time>
            <Position>
              <LatitudeDegrees>43.4074110724031925201416015625</LatitudeDegrees>
              <LongitudeDegrees>-4.7182673402130603790283203125</LongitudeDegrees>
            </Position>
            <AltitudeMeters>75.40000152587890625</AltitudeMeters>
            <DistanceMeters>NAN</DistanceMeters>
          </Trackpoint>
          <Trackpoint>
            <Time>2022-07-15T16:15:49.000Z</Time>
            <Position>
              <LatitudeDegrees>43.40744216926395893096923828125</LatitudeDegrees>
              <LongitudeDegrees>-4.71820087172091007232666015625</LongitudeDegrees>
            </Position>
            <AltitudeMeters>75.8000030517578125</AltitudeMeters>
            <DistanceMeters>NAN</DistanceMeters>
          </Trackpoint>
          <Trackpoint>
            <Time>2022-07-15T16:15:53.000Z</Time>
            <Position>
              <LatitudeDegrees>43.40747167356312274932861328125</LatitudeDegrees>
              <LongitudeDegrees>-4.7181305475533008575439453125</LongitudeDegrees>
            </Position>
            <AltitudeMeters>76.40000152587890625</AltitudeMeters>
            <DistanceMeters>NAN</DistanceMeters>
          </Trackpoint>
          <Trackpoint>
            <Time>2022-07-15T16:15:55.000Z</Time>
            <Position>
              <LatitudeDegrees>43.407487012445926666259765625</LatitudeDegrees>
              <LongitudeDegrees>-4.71809593029320240020751953125</LongitudeDegrees>
            </Position>
            <AltitudeMeters>77</AltitudeMeters>
            <DistanceMeters>NAN</DistanceMeters>
          </Trackpoint>
          <Trackpoint>
            <Time>2022-07-15T16:16:02.000Z</Time>
            <Position>
              <LatitudeDegrees>43.40752984397113323211669921875</LatitudeDegrees>
              <LongitudeDegrees>-4.7179535217583179473876953125</LongitudeDegrees>
            </Position>
            <AltitudeMeters>78</AltitudeMeters>
            <DistanceMeters>NAN</DistanceMeters>
          </Trackpoint>
          <Trackpoint>
            <Time>2022-07-15T16:16:03.000Z</Time>
            <Position>
              <LatitudeDegrees>43.4075416624546051025390625</LatitudeDegrees>
              <LongitudeDegrees>-4.71793550066649913787841796875</LongitudeDegrees>
            </Position>
            <AltitudeMeters>78</AltitudeMeters>
            <DistanceMeters>NAN</DistanceMeters>
          </Trackpoint>
          <Trackpoint>
            <Time>2022-07-15T16:16:08.000Z</Time>
            <Position>
              <LatitudeDegrees>43.40759488753974437713623046875</LatitudeDegrees>
              <LongitudeDegrees>-4.71786844544112682342529296875</LongitudeDegrees>
            </Position>
            <AltitudeMeters>79</AltitudeMeters>
            <DistanceMeters>NAN</DistanceMeters>
          </Trackpoint>
          <Trackpoint>
            <Time>2022-07-15T16:16:11.000Z</Time>
            <Position>
              <LatitudeDegrees>43.4076246432960033416748046875</LatitudeDegrees>
              <LongitudeDegrees>-4.71786190755665302276611328125</LongitudeDegrees>
            </Position>
            <AltitudeMeters>79.59999847412109375</AltitudeMeters>
            <DistanceMeters>NAN</DistanceMeters>
          </Trackpoint>
          <Trackpoint>
            <Time>2022-07-15T16:16:13.000Z</Time>
            <Position>
              <LatitudeDegrees>43.40765389613807201385498046875</LatitudeDegrees>
              <LongitudeDegrees>-4.7178800962865352630615234375</LongitudeDegrees>
            </Position>
            <AltitudeMeters>80</AltitudeMeters>
            <DistanceMeters>NAN</DistanceMeters>
          </Trackpoint>
          <Trackpoint>
            <Time>2022-07-15T16:16:14.000Z</Time>
            <Position>
              <LatitudeDegrees>43.407662697136402130126953125</LatitudeDegrees>
              <LongitudeDegrees>-4.717890657484531402587890625</LongitudeDegrees>
            </Position>
            <AltitudeMeters>80.1999969482421875</AltitudeMeters>
            <DistanceMeters>NAN</DistanceMeters>
          </Trackpoint>
          <Trackpoint>
            <Time>2022-07-15T16:16:18.000Z</Time>
            <Position>
              <LatitudeDegrees>43.40769379399716854095458984375</LatitudeDegrees>
              <LongitudeDegrees>-4.71795796416699886322021484375</LongitudeDegrees>
            </Position>
            <AltitudeMeters>80.59999847412109375</AltitudeMeters>
            <DistanceMeters>NAN</DistanceMeters>
          </Trackpoint>
          <Trackpoint>
            <Time>2022-07-15T16:16:21.000Z</Time>
            <Position>
              <LatitudeDegrees>43.407714664936065673828125</LatitudeDegrees>
              <LongitudeDegrees>-4.718022085726261138916015625</LongitudeDegrees>
            </Position>
            <AltitudeMeters>81.1999969482421875</AltitudeMeters>
            <DistanceMeters>NAN</DistanceMeters>
          </Trackpoint>
          <Trackpoint>
            <Time>2022-07-15T16:16:24.000Z</Time>
            <Position>
              <LatitudeDegrees>43.40770033188164234161376953125</LatitudeDegrees>
              <LongitudeDegrees>-4.7180832736194133758544921875</LongitudeDegrees>
            </Position>
            <AltitudeMeters>81.59999847412109375</AltitudeMeters>
            <DistanceMeters>NAN</DistanceMeters>
          </Trackpoint>
          <Trackpoint>
            <Time>2022-07-15T16:16:27.000Z</Time>
            <Position>
              <LatitudeDegrees>43.40767920948565006256103515625</LatitudeDegrees>
              <LongitudeDegrees>-4.71813767217099666595458984375</LongitudeDegrees>
            </Position>
            <AltitudeMeters>82</AltitudeMeters>
            <DistanceMeters>NAN</DistanceMeters>
          </Trackpoint>
          <Trackpoint>
            <Time>2022-07-15T16:16:30.000Z</Time>
            <Position>
              <LatitudeDegrees>43.40765708126127719879150390625</LatitudeDegrees>
              <LongitudeDegrees>-4.7181952558457851409912109375</LongitudeDegrees>
            </Position>
            <AltitudeMeters>82.1999969482421875</AltitudeMeters>
            <DistanceMeters>NAN</DistanceMeters>
          </Trackpoint>
          <Trackpoint>
            <Time>2022-07-15T16:16:35.000Z</Time>
            <Position>
              <LatitudeDegrees>43.4076122380793094635009765625</LatitudeDegrees>
              <LongitudeDegrees>-4.71829676069319248199462890625</LongitudeDegrees>
            </Position>
            <AltitudeMeters>82.8000030517578125</AltitudeMeters>
            <DistanceMeters>NAN</DistanceMeters>
          </Trackpoint>
          <Trackpoint>
            <Time>2022-07-15T16:16:39.000Z</Time>
            <Position>
              <LatitudeDegrees>43.40759723447263240814208984375</LatitudeDegrees>
              <LongitudeDegrees>-4.71839390695095062255859375</LongitudeDegrees>
            </Position>
            <AltitudeMeters>83.1999969482421875</AltitudeMeters>
            <DistanceMeters>NAN</DistanceMeters>
          </Trackpoint>
          <Trackpoint>
            <Time>2022-07-15T16:16:43.000Z</Time>
            <Position>
              <LatitudeDegrees>43.40757510624825954437255859375</LatitudeDegrees>
              <LongitudeDegrees>-4.71849021501839160919189453125</LongitudeDegrees>
            </Position>
            <AltitudeMeters>83.59999847412109375</AltitudeMeters>
            <DistanceMeters>NAN</DistanceMeters>
          </Trackpoint>
          <Trackpoint>
            <Time>2022-07-15T16:16:49.000Z</Time>
            <Position>
              <LatitudeDegrees>43.4075512178242206573486328125</LatitudeDegrees>
              <LongitudeDegrees>-4.71861544065177440643310546875</LongitudeDegrees>
            </Position>
            <AltitudeMeters>84.40000152587890625</AltitudeMeters>
            <DistanceMeters>NAN</DistanceMeters>
          </Trackpoint>
          <Trackpoint>
            <Time>2022-07-15T16:16:52.000Z</Time>
            <Position>
              <LatitudeDegrees>43.4075458534061908721923828125</LatitudeDegrees>
              <LongitudeDegrees>-4.7186857648193836212158203125</LongitudeDegrees>
            </Position>
            <AltitudeMeters>84.8000030517578125</AltitudeMeters>
            <DistanceMeters>NAN</DistanceMeters>
          </Trackpoint>
          <Trackpoint>
            <Time>2022-07-15T16:16:57.000Z</Time>
            <Position>
              <LatitudeDegrees>43.40752582065761089324951171875</LatitudeDegrees>
              <LongitudeDegrees>-4.718761704862117767333984375</LongitudeDegrees>
            </Position>
            <AltitudeMeters>85.40000152587890625</AltitudeMeters>
            <DistanceMeters>NAN</DistanceMeters>
          </Trackpoint>
          <Trackpoint>
            <Time>2022-07-15T16:16:58.000Z</Time>
            <Position>
              <LatitudeDegrees>43.407525904476642608642578125</LatitudeDegrees>
              <LongitudeDegrees>-4.7187779657542705535888671875</LongitudeDegrees>
            </Position>
            <AltitudeMeters>85.40000152587890625</AltitudeMeters>
            <DistanceMeters>NAN</DistanceMeters>
          </Trackpoint>
          <Trackpoint>
            <Time>2022-07-15T16:17:03.000Z</Time>
            <Position>
              <LatitudeDegrees>43.40753889642655849456787109375</LatitudeDegrees>
              <LongitudeDegrees>-4.71887595020234584808349609375</LongitudeDegrees>
            </Position>
            <AltitudeMeters>86.1999969482421875</AltitudeMeters>
            <DistanceMeters>NAN</DistanceMeters>
          </Trackpoint>
          <Trackpoint>
            <Time>2022-07-15T16:17:05.000Z</Time>
            <Position>
              <LatitudeDegrees>43.40755180455744266510009765625</LatitudeDegrees>
              <LongitudeDegrees>-4.71892037428915500640869140625</LongitudeDegrees>
            </Position>
            <AltitudeMeters>86.40000152587890625</AltitudeMeters>
            <DistanceMeters>NAN</DistanceMeters>
          </Trackpoint>
          <Trackpoint>
            <Time>2022-07-15T16:17:07.000Z</Time>
            <Position>
              <LatitudeDegrees>43.4075592644512653350830078125</LatitudeDegrees>
              <LongitudeDegrees>-4.71896915696561336517333984375</LongitudeDegrees>
            </Position>
            <AltitudeMeters>86.8000030517578125</AltitudeMeters>
            <DistanceMeters>NAN</DistanceMeters>
          </Trackpoint>
          <Trackpoint>
            <Time>2022-07-15T16:17:12.000Z</Time>
            <Position>
              <LatitudeDegrees>43.40757108293473720550537109375</LatitudeDegrees>
              <LongitudeDegrees>-4.71907979808747768402099609375</LongitudeDegrees>
            </Position>
            <AltitudeMeters>87.40000152587890625</AltitudeMeters>
            <DistanceMeters>NAN</DistanceMeters>
          </Trackpoint>
          <Trackpoint>
            <Time>2022-07-15T16:17:13.000Z</Time>
            <Position>
              <LatitudeDegrees>43.40757678262889385223388671875</LatitudeDegrees>
              <LongitudeDegrees>-4.7191021777689456939697265625</LongitudeDegrees>
            </Position>
            <AltitudeMeters>87.40000152587890625</AltitudeMeters>
            <DistanceMeters>NAN</DistanceMeters>
          </Trackpoint>
          <Trackpoint>
            <Time>2022-07-15T16:17:14.000Z</Time>
            <Position>
              <LatitudeDegrees>43.407576195895671844482421875</LatitudeDegrees>
              <LongitudeDegrees>-4.7191229648888111114501953125</LongitudeDegrees>
            </Position>
            <AltitudeMeters>87.59999847412109375</AltitudeMeters>
            <DistanceMeters>NAN</DistanceMeters>
          </Trackpoint>
          <Trackpoint>
            <Time>2022-07-15T16:17:21.000Z</Time>
            <Position>
              <LatitudeDegrees>43.4075663052499294281005859375</LatitudeDegrees>
              <LongitudeDegrees>-4.7192694805562496185302734375</LongitudeDegrees>
            </Position>
            <AltitudeMeters>88.59999847412109375</AltitudeMeters>
            <DistanceMeters>NAN</DistanceMeters>
          </Trackpoint>
          <Trackpoint>
            <Time>2022-07-15T16:17:22.000Z</Time>
            <Position>
              <LatitudeDegrees>43.4075676463544368743896484375</LatitudeDegrees>
              <LongitudeDegrees>-4.71928783692419528961181640625</LongitudeDegrees>
            </Position>
            <AltitudeMeters>88.59999847412109375</AltitudeMeters>
            <DistanceMeters>NAN</DistanceMeters>
          </Trackpoint>
          <Trackpoint>
            <Time>2022-07-15T16:17:26.000Z</Time>
            <Position>
              <LatitudeDegrees>43.4075656346976757049560546875</LatitudeDegrees>
              <LongitudeDegrees>-4.7193653695285320281982421875</LongitudeDegrees>
            </Position>
            <AltitudeMeters>89.1999969482421875</AltitudeMeters>
            <DistanceMeters>NAN</DistanceMeters>
          </Trackpoint>
          <Trackpoint>
            <Time>2022-07-15T16:17:28.000Z</Time>
            <Position>
              <LatitudeDegrees>43.40755364857614040374755859375</LatitudeDegrees>
              <LongitudeDegrees>-4.7194012440741062164306640625</LongitudeDegrees>
            </Position>
            <AltitudeMeters>89.40000152587890625</AltitudeMeters>
            <DistanceMeters>NAN</DistanceMeters>
          </Trackpoint>
          <Trackpoint>
            <Time>2022-07-15T16:17:29.000Z</Time>
            <Position>
              <LatitudeDegrees>43.4075470268726348876953125</LatitudeDegrees>
              <LongitudeDegrees>-4.719426222145557403564453125</LongitudeDegrees>
            </Position>
            <AltitudeMeters>89.59999847412109375</AltitudeMeters>
            <DistanceMeters>NAN</DistanceMeters>
          </Trackpoint>
          <Trackpoint>
            <Time>2022-07-15T16:17:34.000Z</Time>
            <Position>
              <LatitudeDegrees>43.40751416981220245361328125</LatitudeDegrees>
              <LongitudeDegrees>-4.71952504478394985198974609375</LongitudeDegrees>
            </Position>
            <AltitudeMeters>90.40000152587890625</AltitudeMeters>
            <DistanceMeters>NAN</DistanceMeters>
          </Trackpoint>
          <Trackpoint>
            <Time>2022-07-15T16:17:36.000Z</Time>
            <Position>
              <LatitudeDegrees>43.40751014649868011474609375</LatitudeDegrees>
              <LongitudeDegrees>-4.71956175751984119415283203125</LongitudeDegrees>
            </Position>
            <AltitudeMeters>90.59999847412109375</AltitudeMeters>
            <DistanceMeters>NAN</DistanceMeters>
          </Trackpoint>
          <Trackpoint>
            <Time>2022-07-15T16:17:38.000Z</Time>
            <Position>
              <LatitudeDegrees>43.4075026027858257293701171875</LatitudeDegrees>
              <LongitudeDegrees>-4.71960400231182575225830078125</LongitudeDegrees>
            </Position>
            <AltitudeMeters>90.8000030517578125</AltitudeMeters>
            <DistanceMeters>NAN</DistanceMeters>
          </Trackpoint>
          <Trackpoint>
            <Time>2022-07-15T16:17:40.000Z</Time>
            <Position>
              <LatitudeDegrees>43.40750821866095066070556640625</LatitudeDegrees>
              <LongitudeDegrees>-4.71964322961866855621337890625</LongitudeDegrees>
            </Position>
            <AltitudeMeters>91.40000152587890625</AltitudeMeters>
            <DistanceMeters>NAN</DistanceMeters>
          </Trackpoint>
          <Trackpoint>
            <Time>2022-07-15T16:17:42.000Z</Time>
            <Position>
              <LatitudeDegrees>43.40752582065761089324951171875</LatitudeDegrees>
              <LongitudeDegrees>-4.7196726500988006591796875</LongitudeDegrees>
            </Position>
            <AltitudeMeters>91.8000030517578125</AltitudeMeters>
            <DistanceMeters>NAN</DistanceMeters>
          </Trackpoint>
          <Trackpoint>
            <Time>2022-07-15T16:17:44.000Z</Time>
            <Position>
              <LatitudeDegrees>43.40755616314709186553955078125</LatitudeDegrees>
              <LongitudeDegrees>-4.719668962061405181884765625</LongitudeDegrees>
            </Position>
            <AltitudeMeters>92.1999969482421875</AltitudeMeters>
            <DistanceMeters>NAN</DistanceMeters>
          </Trackpoint>
          <Trackpoint>
            <Time>2022-07-15T16:17:45.000Z</Time>
            <Position>
              <LatitudeDegrees>43.4075663052499294281005859375</LatitudeDegrees>
              <LongitudeDegrees>-4.71965529955923557281494140625</LongitudeDegrees>
            </Position>
            <AltitudeMeters>92.40000152587890625</AltitudeMeters>
            <DistanceMeters>NAN</DistanceMeters>
          </Trackpoint>
          <Trackpoint>
            <Time>2022-07-15T16:17:51.000Z</Time>
            <Position>
              <LatitudeDegrees>43.40760427527129650115966796875</LatitudeDegrees>
              <LongitudeDegrees>-4.7195494361221790313720703125</LongitudeDegrees>
            </Position>
            <AltitudeMeters>93</AltitudeMeters>
            <DistanceMeters>NAN</DistanceMeters>
          </Trackpoint>
          <Trackpoint>
            <Time>2022-07-15T16:17:52.000Z</Time>
            <Position>
              <LatitudeDegrees>43.4076122380793094635009765625</LatitudeDegrees>
              <LongitudeDegrees>-4.7195320017635822296142578125</LongitudeDegrees>
            </Position>
            <AltitudeMeters>93</AltitudeMeters>
            <DistanceMeters>NAN</DistanceMeters>
          </Trackpoint>
          <Trackpoint>
            <Time>2022-07-15T16:17:59.000Z</Time>
            <Position>
              <LatitudeDegrees>43.4076605178415775299072265625</LatitudeDegrees>
              <LongitudeDegrees>-4.71941708587110042572021484375</LongitudeDegrees>
            </Position>
            <AltitudeMeters>93.8000030517578125</AltitudeMeters>
            <DistanceMeters>NAN</DistanceMeters>
          </Trackpoint>
          <Trackpoint>
            <Time>2022-07-15T16:18:00.000Z</Time>
            <Position>
              <LatitudeDegrees>43.407668732106685638427734375</LatitudeDegrees>
              <LongitudeDegrees>-4.71939763985574245452880859375</LongitudeDegrees>
            </Position>
            <AltitudeMeters>94</AltitudeMeters>
            <DistanceMeters>NAN</DistanceMeters>
          </Trackpoint>
          <Trackpoint>
            <Time>2022-07-15T16:18:05.000Z</Time>
            <Position>
              <LatitudeDegrees>43.4077087976038455963134765625</LatitudeDegrees>
              <LongitudeDegrees>-4.7193056903779506683349609375</LongitudeDegrees>
            </Position>
            <AltitudeMeters>94.59999847412109375</AltitudeMeters>
            <DistanceMeters>NAN</DistanceMeters>
          </Trackpoint>
          <Trackpoint>
            <Time>2022-07-15T16:18:07.000Z</Time>
            <Position>
              <LatitudeDegrees>43.407719694077968597412109375</LatitudeDegrees>
              <LongitudeDegrees>-4.7192674688994884490966796875</LongitudeDegrees>
            </Position>
            <AltitudeMeters>95</AltitudeMeters>
            <DistanceMeters>NAN</DistanceMeters>
          </Trackpoint>
          <Trackpoint>
            <Time>2022-07-15T16:18:08.000Z</Time>
            <Position>
              <LatitudeDegrees>43.4077215380966663360595703125</LatitudeDegrees>
              <LongitudeDegrees>-4.71924894489347934722900390625</LongitudeDegrees>
            </Position>
            <AltitudeMeters>95</AltitudeMeters>
            <DistanceMeters>NAN</DistanceMeters>
          </Trackpoint>
          <Trackpoint>
            <Time>2022-07-15T16:18:10.000Z</Time>
            <Position>
              <LatitudeDegrees>43.4077294170856475830078125</LatitudeDegrees>
              <LongitudeDegrees>-4.71921273507177829742431640625</LongitudeDegrees>
            </Position>
            <AltitudeMeters>95.40000152587890625</AltitudeMeters>
            <DistanceMeters>NAN</DistanceMeters>
          </Trackpoint>
          <Trackpoint>
            <Time>2022-07-15T16:18:17.000Z</Time>
            <Position>
              <LatitudeDegrees>43.4077735058963298797607421875</LatitudeDegrees>
              <LongitudeDegrees>-4.71907694824039936065673828125</LongitudeDegrees>
            </Position>
            <AltitudeMeters>96</AltitudeMeters>
            <DistanceMeters>NAN</DistanceMeters>
          </Trackpoint>
          <Trackpoint>
            <Time>2022-07-15T16:18:21.000Z</Time>
            <Position>
              <LatitudeDegrees>43.4077966399490833282470703125</LatitudeDegrees>
              <LongitudeDegrees>-4.71900939010083675384521484375</LongitudeDegrees>
            </Position>
            <AltitudeMeters>96.8000030517578125</AltitudeMeters>
            <DistanceMeters>NAN</DistanceMeters>
          </Trackpoint>
          <Trackpoint>
            <Time>2022-07-15T16:18:23.000Z</Time>
            <Position>
              <LatitudeDegrees>43.40781533159315586090087890625</LatitudeDegrees>
              <LongitudeDegrees>-4.71898172982037067413330078125</LongitudeDegrees>
            </Position>
            <AltitudeMeters>97</AltitudeMeters>
            <DistanceMeters>NAN</DistanceMeters>
          </Trackpoint>
          <Trackpoint>
            <Time>2022-07-15T16:18:24.000Z</Time>
            <Position>
              <LatitudeDegrees>43.40782354585826396942138671875</LatitudeDegrees>
              <LongitudeDegrees>-4.71896681003272533416748046875</LongitudeDegrees>
            </Position>
            <AltitudeMeters>97.1999969482421875</AltitudeMeters>
            <DistanceMeters>NAN</DistanceMeters>
          </Trackpoint>
          <Trackpoint>
            <Time>2022-07-15T16:18:29.000Z</Time>
            <Position>
              <LatitudeDegrees>43.4078556485474109649658203125</LatitudeDegrees>
              <LongitudeDegrees>-4.71888265572488307952880859375</LongitudeDegrees>
            </Position>
            <AltitudeMeters>97.8000030517578125</AltitudeMeters>
            <DistanceMeters>NAN</DistanceMeters>
          </Trackpoint>
          <Trackpoint>
            <Time>2022-07-15T16:18:30.000Z</Time>
            <Position>
              <LatitudeDegrees>43.4078581631183624267578125</LatitudeDegrees>
              <LongitudeDegrees>-4.71886773593723773956298828125</LongitudeDegrees>
            </Position>
            <AltitudeMeters>98</AltitudeMeters>
            <DistanceMeters>NAN</DistanceMeters>
          </Trackpoint>
          <Trackpoint>
            <Time>2022-07-15T16:18:32.000Z</Time>
            <Position>
              <LatitudeDegrees>43.40786159969866275787353515625</LatitudeDegrees>
              <LongitudeDegrees>-4.71882934682071208953857421875</LongitudeDegrees>
            </Position>
            <AltitudeMeters>98.1999969482421875</AltitudeMeters>
            <DistanceMeters>NAN</DistanceMeters>
          </Trackpoint>
          <Trackpoint>
            <Time>2022-07-15T16:18:33.000Z</Time>
            <Position>
              <LatitudeDegrees>43.4078635275363922119140625</LatitudeDegrees>
              <LongitudeDegrees>-4.7188116610050201416015625</LongitudeDegrees>
            </Position>
            <AltitudeMeters>98.1999969482421875</AltitudeMeters>
            <DistanceMeters>NAN</DistanceMeters>
          </Trackpoint>
          <Trackpoint>
            <Time>2022-07-15T16:18:35.000Z</Time>
            <Position>
              <LatitudeDegrees>43.4078828059136867523193359375</LatitudeDegrees>
              <LongitudeDegrees>-4.718791544437408447265625</LongitudeDegrees>
            </Position>
            <AltitudeMeters>98.59999847412109375</AltitudeMeters>
            <DistanceMeters>NAN</DistanceMeters>
          </Trackpoint>
          <Trackpoint>
            <Time>2022-07-15T16:18:39.000Z</Time>
            <Position>
              <LatitudeDegrees>43.4078935347497463226318359375</LatitudeDegrees>
              <LongitudeDegrees>-4.7187642194330692291259765625</LongitudeDegrees>
            </Position>
            <AltitudeMeters>99</AltitudeMeters>
            <DistanceMeters>NAN</DistanceMeters>
          </Trackpoint>
          <Trackpoint>
            <Time>2022-07-15T16:18:41.000Z</Time>
            <Position>
              <LatitudeDegrees>43.40791021473705768585205078125</LatitudeDegrees>
              <LongitudeDegrees>-4.7187244892120361328125</LongitudeDegrees>
            </Position>
            <AltitudeMeters>99</AltitudeMeters>
            <DistanceMeters>NAN</DistanceMeters>
          </Trackpoint>
          <Trackpoint>
            <Time>2022-07-15T16:18:42.000Z</Time>
            <Position>
              <LatitudeDegrees>43.4079166688024997711181640625</LatitudeDegrees>
              <LongitudeDegrees>-4.71870412118732929229736328125</LongitudeDegrees>
            </Position>
            <AltitudeMeters>99</AltitudeMeters>
            <DistanceMeters>NAN</DistanceMeters>
          </Trackpoint>
          <Trackpoint>
            <Time>2022-07-15T16:18:45.000Z</Time>
            <Position>
              <LatitudeDegrees>43.40793795883655548095703125</LatitudeDegrees>
              <LongitudeDegrees>-4.7186545841395854949951171875</LongitudeDegrees>
            </Position>
            <AltitudeMeters>99.40000152587890625</AltitudeMeters>
            <DistanceMeters>NAN</DistanceMeters>
          </Trackpoint>
          <Trackpoint>
            <Time>2022-07-15T16:18:50.000Z</Time>
            <Position>
              <LatitudeDegrees>43.40798816643655300140380859375</LatitudeDegrees>
              <LongitudeDegrees>-4.71859029494225978851318359375</LongitudeDegrees>
            </Position>
            <AltitudeMeters>100.1999969482421875</AltitudeMeters>
            <DistanceMeters>NAN</DistanceMeters>
          </Trackpoint>
          <Trackpoint>
            <Time>2022-07-15T16:18:52.000Z</Time>
            <Position>
              <LatitudeDegrees>43.40801398269832134246826171875</LatitudeDegrees>
              <LongitudeDegrees>-4.718557186424732208251953125</LongitudeDegrees>
            </Position>
            <AltitudeMeters>100.59999847412109375</AltitudeMeters>
            <DistanceMeters>NAN</DistanceMeters>
          </Trackpoint>
          <Trackpoint>
            <Time>2022-07-15T16:18:59.000Z</Time>
            <Position>
              <LatitudeDegrees>43.4080923534929752349853515625</LatitudeDegrees>
              <LongitudeDegrees>-4.7184495627880096435546875</LongitudeDegrees>
            </Position>
            <AltitudeMeters>101.40000152587890625</AltitudeMeters>
            <DistanceMeters>NAN</DistanceMeters>
          </Trackpoint>
          <Trackpoint>
            <Time>2022-07-15T16:19:00.000Z</Time>
            <Position>
              <LatitudeDegrees>43.408101238310337066650390625</LatitudeDegrees>
              <LongitudeDegrees>-4.718433134257793426513671875</LongitudeDegrees>
            </Position>
            <AltitudeMeters>101.59999847412109375</AltitudeMeters>
            <DistanceMeters>NAN</DistanceMeters>
          </Trackpoint>
          <Trackpoint>
            <Time>2022-07-15T16:19:08.000Z</Time>
            <Position>
              <LatitudeDegrees>43.40817474760115146636962890625</LatitudeDegrees>
              <LongitudeDegrees>-4.7183216549456119537353515625</LongitudeDegrees>
            </Position>
            <AltitudeMeters>102.40000152587890625</AltitudeMeters>
            <DistanceMeters>NAN</DistanceMeters>
          </Trackpoint>
          <Trackpoint>
            <Time>2022-07-15T16:19:09.000Z</Time>
            <Position>
              <LatitudeDegrees>43.4081812016665935516357421875</LatitudeDegrees>
              <LongitudeDegrees>-4.7183119319379329681396484375</LongitudeDegrees>
            </Position>
            <AltitudeMeters>102.59999847412109375</AltitudeMeters>
            <DistanceMeters>NAN</DistanceMeters>
          </Trackpoint>
          <Trackpoint>
            <Time>2022-07-15T16:19:16.000Z</Time>
            <Position>
              <LatitudeDegrees>43.40824029408395290374755859375</LatitudeDegrees>
              <LongitudeDegrees>-4.71821528859436511993408203125</LongitudeDegrees>
            </Position>
            <AltitudeMeters>103.59999847412109375</AltitudeMeters>
            <DistanceMeters>NAN</DistanceMeters>
          </Trackpoint>
          <Trackpoint>
            <Time>2022-07-15T16:19:17.000Z</Time>
            <Position>
              <LatitudeDegrees>43.40825186111032962799072265625</LatitudeDegrees>
              <LongitudeDegrees>-4.71820472739636898040771484375</LongitudeDegrees>
            </Position>
            <AltitudeMeters>103.59999847412109375</AltitudeMeters>
            <DistanceMeters>NAN</DistanceMeters>
          </Trackpoint>
          <Trackpoint>
            <Time>2022-07-15T16:19:23.000Z</Time>
            <Position>
              <LatitudeDegrees>43.4082980453968048095703125</LatitudeDegrees>
              <LongitudeDegrees>-4.7181550227105617523193359375</LongitudeDegrees>
            </Position>
            <AltitudeMeters>104.40000152587890625</AltitudeMeters>
            <DistanceMeters>NAN</DistanceMeters>
          </Trackpoint>
          <Trackpoint>
            <Time>2022-07-15T16:19:24.000Z</Time>
            <Position>
              <LatitudeDegrees>43.4083102829754352569580078125</LatitudeDegrees>
              <LongitudeDegrees>-4.71815644763410091400146484375</LongitudeDegrees>
            </Position>
            <AltitudeMeters>104.59999847412109375</AltitudeMeters>
            <DistanceMeters>NAN</DistanceMeters>
          </Trackpoint>
          <Trackpoint>
            <Time>2022-07-15T16:19:26.000Z</Time>
            <Position>
              <LatitudeDegrees>43.40832763351500034332275390625</LatitudeDegrees>
              <LongitudeDegrees>-4.7181231714785099029541015625</LongitudeDegrees>
            </Position>
            <AltitudeMeters>104.8000030517578125</AltitudeMeters>
            <DistanceMeters>NAN</DistanceMeters>
          </Trackpoint>
          <Trackpoint>
            <Time>2022-07-15T16:19:30.000Z</Time>
            <Position>
              <LatitudeDegrees>43.4083629213273525238037109375</LatitudeDegrees>
              <LongitudeDegrees>-4.71803859807550907135009765625</LongitudeDegrees>
            </Position>
            <AltitudeMeters>105.40000152587890625</AltitudeMeters>
            <DistanceMeters>NAN</DistanceMeters>
          </Trackpoint>
          <Trackpoint>
            <Time>2022-07-15T16:19:33.000Z</Time>
            <Position>
              <LatitudeDegrees>43.4083776734769344329833984375</LatitudeDegrees>
              <LongitudeDegrees>-4.717973805963993072509765625</LongitudeDegrees>
            </Position>
            <AltitudeMeters>105.8000030517578125</AltitudeMeters>
            <DistanceMeters>NAN</DistanceMeters>
          </Trackpoint>
          <Trackpoint>
            <Time>2022-07-15T16:19:35.000Z</Time>
            <Position>
              <LatitudeDegrees>43.40838815085589885711669921875</LatitudeDegrees>
              <LongitudeDegrees>-4.717940278351306915283203125</LongitudeDegrees>
            </Position>
            <AltitudeMeters>106.1999969482421875</AltitudeMeters>
            <DistanceMeters>NAN</DistanceMeters>
          </Trackpoint>
          <Trackpoint>
            <Time>2022-07-15T16:19:36.000Z</Time>
            <Position>
              <LatitudeDegrees>43.40839049778878688812255859375</LatitudeDegrees>
              <LongitudeDegrees>-4.71791354008018970489501953125</LongitudeDegrees>
            </Position>
            <AltitudeMeters>106.40000152587890625</AltitudeMeters>
            <DistanceMeters>NAN</DistanceMeters>
          </Trackpoint>
          <Trackpoint>
            <Time>2022-07-15T16:19:40.000Z</Time>
            <Position>
              <LatitudeDegrees>43.40840198099613189697265625</LatitudeDegrees>
              <LongitudeDegrees>-4.7178475745022296905517578125</LongitudeDegrees>
            </Position>
            <AltitudeMeters>106.8000030517578125</AltitudeMeters>
            <DistanceMeters>NAN</DistanceMeters>
          </Trackpoint>
          <Trackpoint>
            <Time>2022-07-15T16:19:43.000Z</Time>
            <Position>
              <LatitudeDegrees>43.40842100791633129119873046875</LatitudeDegrees>
              <LongitudeDegrees>-4.7178009711205959320068359375</LongitudeDegrees>
            </Position>
            <AltitudeMeters>107.1999969482421875</AltitudeMeters>
            <DistanceMeters>NAN</DistanceMeters>
          </Trackpoint>
          <Trackpoint>
            <Time>2022-07-15T16:19:48.000Z</Time>
            <Position>
              <LatitudeDegrees>43.4084226004779338836669921875</LatitudeDegrees>
              <LongitudeDegrees>-4.71771136857569217681884765625</LongitudeDegrees>
            </Position>
            <AltitudeMeters>107.59999847412109375</AltitudeMeters>
            <DistanceMeters>NAN</DistanceMeters>
          </Trackpoint>
          <Trackpoint>
            <Time>2022-07-15T16:19:50.000Z</Time>
            <Position>
              <LatitudeDegrees>43.408422432839870452880859375</LatitudeDegrees>
              <LongitudeDegrees>-4.71767297945916652679443359375</LongitudeDegrees>
            </Position>
            <AltitudeMeters>107.8000030517578125</AltitudeMeters>
            <DistanceMeters>NAN</DistanceMeters>
          </Trackpoint>
          <Trackpoint>
            <Time>2022-07-15T16:19:51.000Z</Time>
            <Position>
              <LatitudeDegrees>43.40842503122985363006591796875</LatitudeDegrees>
              <LongitudeDegrees>-4.71765789203345775604248046875</LongitudeDegrees>
            </Position>
            <AltitudeMeters>108</AltitudeMeters>
            <DistanceMeters>NAN</DistanceMeters>
          </Trackpoint>
          <Trackpoint>
            <Time>2022-07-15T16:19:57.000Z</Time>
            <Position>
              <LatitudeDegrees>43.40845696628093719482421875</LatitudeDegrees>
              <LongitudeDegrees>-4.7175830416381359100341796875</LongitudeDegrees>
            </Position>
            <AltitudeMeters>108.8000030517578125</AltitudeMeters>
            <DistanceMeters>NAN</DistanceMeters>
          </Trackpoint>
          <Trackpoint>
            <Time>2022-07-15T16:19:58.000Z</Time>
            <Position>
              <LatitudeDegrees>43.4084574691951274871826171875</LatitudeDegrees>
              <LongitudeDegrees>-4.71757742576301097869873046875</LongitudeDegrees>
            </Position>
            <AltitudeMeters>109</AltitudeMeters>
            <DistanceMeters>NAN</DistanceMeters>
          </Trackpoint>
          <Trackpoint>
            <Time>2022-07-15T16:19:59.000Z</Time>
            <Position>
              <LatitudeDegrees>43.4084594808518886566162109375</LatitudeDegrees>
              <LongitudeDegrees>-4.7175662778317928314208984375</LongitudeDegrees>
            </Position>
            <AltitudeMeters>109</AltitudeMeters>
            <DistanceMeters>NAN</DistanceMeters>
          </Trackpoint>
          <Trackpoint>
            <Time>2022-07-15T16:20:03.000Z</Time>
            <Position>
              <LatitudeDegrees>43.40849041007459163665771484375</LatitudeDegrees>
              <LongitudeDegrees>-4.71750617958605289459228515625</LongitudeDegrees>
            </Position>
            <AltitudeMeters>109.8000030517578125</AltitudeMeters>
            <DistanceMeters>NAN</DistanceMeters>
          </Trackpoint>
          <Trackpoint>
            <Time>2022-07-15T16:20:04.000Z</Time>
            <Position>
              <LatitudeDegrees>43.408500216901302337646484375</LatitudeDegrees>
              <LongitudeDegrees>-4.7174920141696929931640625</LongitudeDegrees>
            </Position>
            <AltitudeMeters>109.8000030517578125</AltitudeMeters>
            <DistanceMeters>NAN</DistanceMeters>
          </Trackpoint>
          <Trackpoint>
            <Time>2022-07-15T16:20:05.000Z</Time>
            <Position>
              <LatitudeDegrees>43.408508598804473876953125</LatitudeDegrees>
              <LongitudeDegrees>-4.71747483126819133758544921875</LongitudeDegrees>
            </Position>
            <AltitudeMeters>110</AltitudeMeters>
            <DistanceMeters>NAN</DistanceMeters>
          </Trackpoint>
          <Trackpoint>
            <Time>2022-07-15T16:20:08.000Z</Time>
            <Position>
              <LatitudeDegrees>43.4085288830101490020751953125</LatitudeDegrees>
              <LongitudeDegrees>-4.71743392758071422576904296875</LongitudeDegrees>
            </Position>
            <AltitudeMeters>110.40000152587890625</AltitudeMeters>
            <DistanceMeters>NAN</DistanceMeters>
          </Trackpoint>
          <Trackpoint>
            <Time>2022-07-15T16:20:12.000Z</Time>
            <Position>
              <LatitudeDegrees>43.4085448086261749267578125</LatitudeDegrees>
              <LongitudeDegrees>-4.71736259758472442626953125</LongitudeDegrees>
            </Position>
            <AltitudeMeters>111</AltitudeMeters>
            <DistanceMeters>NAN</DistanceMeters>
          </Trackpoint>
          <Trackpoint>
            <Time>2022-07-15T16:20:13.000Z</Time>
            <Position>
              <LatitudeDegrees>43.40854522772133350372314453125</LatitudeDegrees>
              <LongitudeDegrees>-4.7173413075506687164306640625</LongitudeDegrees>
            </Position>
            <AltitudeMeters>111.1999969482421875</AltitudeMeters>
            <DistanceMeters>NAN</DistanceMeters>
          </Trackpoint>
          <Trackpoint>
            <Time>2022-07-15T16:20:15.000Z</Time>
            <Position>
              <LatitudeDegrees>43.408572636544704437255859375</LatitudeDegrees>
              <LongitudeDegrees>-4.71727081574499607086181640625</LongitudeDegrees>
            </Position>
            <AltitudeMeters>111.40000152587890625</AltitudeMeters>
            <DistanceMeters>NAN</DistanceMeters>
          </Trackpoint>
          <Trackpoint>
            <Time>2022-07-15T16:20:19.000Z</Time>
            <Position>
              <LatitudeDegrees>43.40857137925922870635986328125</LatitudeDegrees>
              <LongitudeDegrees>-4.7171713225543498992919921875</LongitudeDegrees>
            </Position>
            <AltitudeMeters>112</AltitudeMeters>
            <DistanceMeters>NAN</DistanceMeters>
          </Trackpoint>
          <Trackpoint>
            <Time>2022-07-15T16:20:23.000Z</Time>
            <Position>
              <LatitudeDegrees>43.4086038172245025634765625</LatitudeDegrees>
              <LongitudeDegrees>-4.71709596924483776092529296875</LongitudeDegrees>
            </Position>
            <AltitudeMeters>112.59999847412109375</AltitudeMeters>
            <DistanceMeters>NAN</DistanceMeters>
          </Trackpoint>
          <Trackpoint>
            <Time>2022-07-15T16:20:27.000Z</Time>
            <Position>
              <LatitudeDegrees>43.40864648111164569854736328125</LatitudeDegrees>
              <LongitudeDegrees>-4.7170328535139560699462890625</LongitudeDegrees>
            </Position>
            <AltitudeMeters>113.1999969482421875</AltitudeMeters>
            <DistanceMeters>NAN</DistanceMeters>
          </Trackpoint>
          <Trackpoint>
            <Time>2022-07-15T16:20:28.000Z</Time>
            <Position>
              <LatitudeDegrees>43.40865385718643665313720703125</LatitudeDegrees>
              <LongitudeDegrees>-4.717011563479900360107421875</LongitudeDegrees>
            </Position>
            <AltitudeMeters>113.40000152587890625</AltitudeMeters>
            <DistanceMeters>NAN</DistanceMeters>
          </Trackpoint>
          <Trackpoint>
            <Time>2022-07-15T16:20:30.000Z</Time>
            <Position>
              <LatitudeDegrees>43.408658467233180999755859375</LatitudeDegrees>
              <LongitudeDegrees>-4.7169716656208038330078125</LongitudeDegrees>
            </Position>
            <AltitudeMeters>113.59999847412109375</AltitudeMeters>
            <DistanceMeters>NAN</DistanceMeters>
          </Trackpoint>
          <Trackpoint>
            <Time>2022-07-15T16:20:34.000Z</Time>
            <Position>
              <LatitudeDegrees>43.40868093073368072509765625</LatitudeDegrees>
              <LongitudeDegrees>-4.716902263462543487548828125</LongitudeDegrees>
            </Position>
            <AltitudeMeters>114.40000152587890625</AltitudeMeters>
            <DistanceMeters>NAN</DistanceMeters>
          </Trackpoint>
          <Trackpoint>
            <Time>2022-07-15T16:20:36.000Z</Time>
            <Position>
              <LatitudeDegrees>43.40868788771331310272216796875</LatitudeDegrees>
              <LongitudeDegrees>-4.71686647273600101470947265625</LongitudeDegrees>
            </Position>
            <AltitudeMeters>114.59999847412109375</AltitudeMeters>
            <DistanceMeters>NAN</DistanceMeters>
          </Trackpoint>
          <Trackpoint>
            <Time>2022-07-15T16:20:41.000Z</Time>
            <Position>
              <LatitudeDegrees>43.408710099756717681884765625</LatitudeDegrees>
              <LongitudeDegrees>-4.7167763672769069671630859375</LongitudeDegrees>
            </Position>
            <AltitudeMeters>115.40000152587890625</AltitudeMeters>
            <DistanceMeters>NAN</DistanceMeters>
          </Trackpoint>
          <Trackpoint>
            <Time>2022-07-15T16:20:42.000Z</Time>
            <Position>
              <LatitudeDegrees>43.40871135704219341278076171875</LatitudeDegrees>
              <LongitudeDegrees>-4.716761447489261627197265625</LongitudeDegrees>
            </Position>
            <AltitudeMeters>115.59999847412109375</AltitudeMeters>
            <DistanceMeters>NAN</DistanceMeters>
          </Trackpoint>
          <Trackpoint>
            <Time>2022-07-15T16:20:49.000Z</Time>
            <Position>
              <LatitudeDegrees>43.4087312221527099609375</LatitudeDegrees>
              <LongitudeDegrees>-4.71666480414569377899169921875</LongitudeDegrees>
            </Position>
            <AltitudeMeters>116.59999847412109375</AltitudeMeters>
            <DistanceMeters>NAN</DistanceMeters>
          </Trackpoint>
          <Trackpoint>
            <Time>2022-07-15T16:20:52.000Z</Time>
            <Position>
              <LatitudeDegrees>43.40874052606523036956787109375</LatitudeDegrees>
              <LongitudeDegrees>-4.7166053764522075653076171875</LongitudeDegrees>
            </Position>
            <AltitudeMeters>117.1999969482421875</AltitudeMeters>
            <DistanceMeters>NAN</DistanceMeters>
          </Trackpoint>
          <Trackpoint>
            <Time>2022-07-15T16:20:56.000Z</Time>
            <Position>
              <LatitudeDegrees>43.40875712223351001739501953125</LatitudeDegrees>
              <LongitudeDegrees>-4.71653245389461517333984375</LongitudeDegrees>
            </Position>
            <AltitudeMeters>117.8000030517578125</AltitudeMeters>
            <DistanceMeters>NAN</DistanceMeters>
          </Trackpoint>
          <Trackpoint>
            <Time>2022-07-15T16:20:57.000Z</Time>
            <Position>
              <LatitudeDegrees>43.40876013971865177154541015625</LatitudeDegrees>
              <LongitudeDegrees>-4.71651191823184490203857421875</LongitudeDegrees>
            </Position>
            <AltitudeMeters>117.8000030517578125</AltitudeMeters>
            <DistanceMeters>NAN</DistanceMeters>
          </Trackpoint>
          <Trackpoint>
            <Time>2022-07-15T16:21:02.000Z</Time>
            <Position>
              <LatitudeDegrees>43.40875427238643169403076171875</LatitudeDegrees>
              <LongitudeDegrees>-4.7164218127727508544921875</LongitudeDegrees>
            </Position>
            <AltitudeMeters>118.8000030517578125</AltitudeMeters>
            <DistanceMeters>NAN</DistanceMeters>
          </Trackpoint>
          <Trackpoint>
            <Time>2022-07-15T16:21:04.000Z</Time>
            <Position>
              <LatitudeDegrees>43.40875259600579738616943359375</LatitudeDegrees>
              <LongitudeDegrees>-4.7163810767233371734619140625</LongitudeDegrees>
            </Position>
            <AltitudeMeters>119.1999969482421875</AltitudeMeters>
            <DistanceMeters>NAN</DistanceMeters>
          </Trackpoint>
          <Trackpoint>
            <Time>2022-07-15T16:21:06.000Z</Time>
            <Position>
              <LatitudeDegrees>43.40876030735671520233154296875</LatitudeDegrees>
              <LongitudeDegrees>-4.71634947694838047027587890625</LongitudeDegrees>
            </Position>
            <AltitudeMeters>119.59999847412109375</AltitudeMeters>
            <DistanceMeters>NAN</DistanceMeters>
          </Trackpoint>
          <Trackpoint>
            <Time>2022-07-15T16:21:09.000Z</Time>
            <Position>
              <LatitudeDegrees>43.40875846333801746368408203125</LatitudeDegrees>
              <LongitudeDegrees>-4.71630756743252277374267578125</LongitudeDegrees>
            </Position>
            <AltitudeMeters>120</AltitudeMeters>
            <DistanceMeters>NAN</DistanceMeters>
          </Trackpoint>
          <Trackpoint>
            <Time>2022-07-15T16:21:11.000Z</Time>
            <Position>
              <LatitudeDegrees>43.40876298956573009490966796875</LatitudeDegrees>
              <LongitudeDegrees>-4.71628367900848388671875</LongitudeDegrees>
            </Position>
            <AltitudeMeters>120.1999969482421875</AltitudeMeters>
            <DistanceMeters>NAN</DistanceMeters>
          </Trackpoint>
          <Trackpoint>
            <Time>2022-07-15T16:21:14.000Z</Time>
            <Position>
              <LatitudeDegrees>43.40878092683851718902587890625</LatitudeDegrees>
              <LongitudeDegrees>-4.71623933874070644378662109375</LongitudeDegrees>
            </Position>
            <AltitudeMeters>120.40000152587890625</AltitudeMeters>
            <DistanceMeters>NAN</DistanceMeters>
          </Trackpoint>
          <Trackpoint>
            <Time>2022-07-15T16:21:18.000Z</Time>
            <Position>
              <LatitudeDegrees>43.408796600997447967529296875</LatitudeDegrees>
              <LongitudeDegrees>-4.71617077477276325225830078125</LongitudeDegrees>
            </Position>
            <AltitudeMeters>121</AltitudeMeters>
            <DistanceMeters>NAN</DistanceMeters>
          </Trackpoint>
          <Trackpoint>
            <Time>2022-07-15T16:21:25.000Z</Time>
            <Position>
              <LatitudeDegrees>43.40880959294736385345458984375</LatitudeDegrees>
              <LongitudeDegrees>-4.71603515557944774627685546875</LongitudeDegrees>
            </Position>
            <AltitudeMeters>122.1999969482421875</AltitudeMeters>
            <DistanceMeters>NAN</DistanceMeters>
          </Trackpoint>
          <Trackpoint>
            <Time>2022-07-15T16:21:31.000Z</Time>
            <Position>
              <LatitudeDegrees>43.40881680138409137725830078125</LatitudeDegrees>
              <LongitudeDegrees>-4.715921916067600250244140625</LongitudeDegrees>
            </Position>
            <AltitudeMeters>123</AltitudeMeters>
            <DistanceMeters>NAN</DistanceMeters>
          </Trackpoint>
          <Trackpoint>
            <Time>2022-07-15T16:21:34.000Z</Time>
            <Position>
              <LatitudeDegrees>43.40882702730596065521240234375</LatitudeDegrees>
              <LongitudeDegrees>-4.7158751450479030609130859375</LongitudeDegrees>
            </Position>
            <AltitudeMeters>123.1999969482421875</AltitudeMeters>
            <DistanceMeters>NAN</DistanceMeters>
          </Trackpoint>
          <Trackpoint>
            <Time>2022-07-15T16:21:39.000Z</Time>
            <Position>
              <LatitudeDegrees>43.40885451994836330413818359375</LatitudeDegrees>
              <LongitudeDegrees>-4.7158020548522472381591796875</LongitudeDegrees>
            </Position>
            <AltitudeMeters>124.1999969482421875</AltitudeMeters>
            <DistanceMeters>NAN</DistanceMeters>
          </Trackpoint>
          <Trackpoint>
            <Time>2022-07-15T16:21:40.000Z</Time>
            <Position>
              <LatitudeDegrees>43.40886466205120086669921875</LatitudeDegrees>
              <LongitudeDegrees>-4.71578688360750675201416015625</LongitudeDegrees>
            </Position>
            <AltitudeMeters>124.40000152587890625</AltitudeMeters>
            <DistanceMeters>NAN</DistanceMeters>
          </Trackpoint>
          <Trackpoint>
            <Time>2022-07-15T16:21:44.000Z</Time>
            <Position>
              <LatitudeDegrees>43.40888679027557373046875</LatitudeDegrees>
              <LongitudeDegrees>-4.71571647562086582183837890625</LongitudeDegrees>
            </Position>
            <AltitudeMeters>125</AltitudeMeters>
            <DistanceMeters>NAN</DistanceMeters>
          </Trackpoint>
          <Trackpoint>
            <Time>2022-07-15T16:21:46.000Z</Time>
            <Position>
              <LatitudeDegrees>43.4088976867496967315673828125</LatitudeDegrees>
              <LongitudeDegrees>-4.71569200046360492706298828125</LongitudeDegrees>
            </Position>
            <AltitudeMeters>125.40000152587890625</AltitudeMeters>
            <DistanceMeters>NAN</DistanceMeters>
          </Trackpoint>
          <Trackpoint>
            <Time>2022-07-15T16:21:47.000Z</Time>
            <Position>
              <LatitudeDegrees>43.4089047275483608245849609375</LatitudeDegrees>
              <LongitudeDegrees>-4.7156763263046741485595703125</LongitudeDegrees>
            </Position>
            <AltitudeMeters>125.40000152587890625</AltitudeMeters>
            <DistanceMeters>NAN</DistanceMeters>
          </Trackpoint>
          <Trackpoint>
            <Time>2022-07-15T16:21:53.000Z</Time>
            <Position>
              <LatitudeDegrees>43.40894638560712337493896484375</LatitudeDegrees>
              <LongitudeDegrees>-4.71559527330100536346435546875</LongitudeDegrees>
            </Position>
            <AltitudeMeters>126.1999969482421875</AltitudeMeters>
            <DistanceMeters>NAN</DistanceMeters>
          </Trackpoint>
          <Trackpoint>
            <Time>2022-07-15T16:21:55.000Z</Time>
            <Position>
              <LatitudeDegrees>43.4089565277099609375</LatitudeDegrees>
              <LongitudeDegrees>-4.7155623324215412139892578125</LongitudeDegrees>
            </Position>
            <AltitudeMeters>126.59999847412109375</AltitudeMeters>
            <DistanceMeters>NAN</DistanceMeters>
          </Trackpoint>
          <Trackpoint>
            <Time>2022-07-15T16:22:00.000Z</Time>
            <Position>
              <LatitudeDegrees>43.40898360125720500946044921875</LatitudeDegrees>
              <LongitudeDegrees>-4.7154748253524303436279296875</LongitudeDegrees>
            </Position>
            <AltitudeMeters>127.1999969482421875</AltitudeMeters>
            <DistanceMeters>NAN</DistanceMeters>
          </Trackpoint>
          <Trackpoint>
            <Time>2022-07-15T16:22:03.000Z</Time>
            <Position>
              <LatitudeDegrees>43.4089999459683895111083984375</LatitudeDegrees>
              <LongitudeDegrees>-4.71542361192405223846435546875</LongitudeDegrees>
            </Position>
            <AltitudeMeters>127.59999847412109375</AltitudeMeters>
            <DistanceMeters>NAN</DistanceMeters>
          </Trackpoint>
          <Trackpoint>
            <Time>2022-07-15T16:22:06.000Z</Time>
            <Position>
              <LatitudeDegrees>43.4090291149914264678955078125</LatitudeDegrees>
              <LongitudeDegrees>-4.71536778844892978668212890625</LongitudeDegrees>
            </Position>
            <AltitudeMeters>127.8000030517578125</AltitudeMeters>
            <DistanceMeters>NAN</DistanceMeters>
          </Trackpoint>
          <Trackpoint>
            <Time>2022-07-15T16:22:12.000Z</Time>
            <Position>
              <LatitudeDegrees>43.40907144360244274139404296875</LatitudeDegrees>
              <LongitudeDegrees>-4.71525245346128940582275390625</LongitudeDegrees>
            </Position>
            <AltitudeMeters>128.600006103515625</AltitudeMeters>
            <DistanceMeters>NAN</DistanceMeters>
          </Trackpoint>
          <Trackpoint>
            <Time>2022-07-15T16:22:14.000Z</Time>
            <Position>
              <LatitudeDegrees>43.409090973436832427978515625</LatitudeDegrees>
              <LongitudeDegrees>-4.7152210213243961334228515625</LongitudeDegrees>
            </Position>
            <AltitudeMeters>128.8000030517578125</AltitudeMeters>
            <DistanceMeters>NAN</DistanceMeters>
          </Trackpoint>
          <Trackpoint>
            <Time>2022-07-15T16:22:18.000Z</Time>
            <Position>
              <LatitudeDegrees>43.40911167673766613006591796875</LatitudeDegrees>
              <LongitudeDegrees>-4.71515379846096038818359375</LongitudeDegrees>
            </Position>
            <AltitudeMeters>129.399993896484375</AltitudeMeters>
            <DistanceMeters>NAN</DistanceMeters>
          </Trackpoint>
          <Trackpoint>
            <Time>2022-07-15T16:22:20.000Z</Time>
            <Position>
              <LatitudeDegrees>43.409127853810787200927734375</LatitudeDegrees>
              <LongitudeDegrees>-4.71512370742857456207275390625</LongitudeDegrees>
            </Position>
            <AltitudeMeters>129.600006103515625</AltitudeMeters>
            <DistanceMeters>NAN</DistanceMeters>
          </Trackpoint>
          <Trackpoint>
            <Time>2022-07-15T16:22:21.000Z</Time>
            <Position>
              <LatitudeDegrees>43.409131877124309539794921875</LatitudeDegrees>
              <LongitudeDegrees>-4.7151036746799945831298828125</LongitudeDegrees>
            </Position>
            <AltitudeMeters>130</AltitudeMeters>
            <DistanceMeters>NAN</DistanceMeters>
          </Trackpoint>
          <Trackpoint>
            <Time>2022-07-15T16:22:22.000Z</Time>
            <Position>
              <LatitudeDegrees>43.409134559333324432373046875</LatitudeDegrees>
              <LongitudeDegrees>-4.71508531831204891204833984375</LongitudeDegrees>
            </Position>
            <AltitudeMeters>130.1999969482421875</AltitudeMeters>
            <DistanceMeters>NAN</DistanceMeters>
          </Trackpoint>
          <Trackpoint>
            <Time>2022-07-15T16:22:26.000Z</Time>
            <Position>
              <LatitudeDegrees>43.40915308333933353424072265625</LatitudeDegrees>
              <LongitudeDegrees>-4.715018011629581451416015625</LongitudeDegrees>
            </Position>
            <AltitudeMeters>131</AltitudeMeters>
            <DistanceMeters>NAN</DistanceMeters>
          </Trackpoint>
          <Trackpoint>
            <Time>2022-07-15T16:22:27.000Z</Time>
            <Position>
              <LatitudeDegrees>43.409156017005443572998046875</LatitudeDegrees>
              <LongitudeDegrees>-4.714998900890350341796875</LongitudeDegrees>
            </Position>
            <AltitudeMeters>131.1999969482421875</AltitudeMeters>
            <DistanceMeters>NAN</DistanceMeters>
          </Trackpoint>
          <Trackpoint>
            <Time>2022-07-15T16:22:29.000Z</Time>
            <Position>
              <LatitudeDegrees>43.40916817076504230499267578125</LatitudeDegrees>
              <LongitudeDegrees>-4.71496528945863246917724609375</LongitudeDegrees>
            </Position>
            <AltitudeMeters>131.600006103515625</AltitudeMeters>
            <DistanceMeters>NAN</DistanceMeters>
          </Trackpoint>
          <Trackpoint>
            <Time>2022-07-15T16:22:31.000Z</Time>
            <Position>
              <LatitudeDegrees>43.4091934002935886383056640625</LatitudeDegrees>
              <LongitudeDegrees>-4.71493913792073726654052734375</LongitudeDegrees>
            </Position>
            <AltitudeMeters>132</AltitudeMeters>
            <DistanceMeters>NAN</DistanceMeters>
          </Trackpoint>
          <Trackpoint>
            <Time>2022-07-15T16:22:33.000Z</Time>
            <Position>
              <LatitudeDegrees>43.4092111699283123016357421875</LatitudeDegrees>
              <LongitudeDegrees>-4.71490493975579738616943359375</LongitudeDegrees>
            </Position>
            <AltitudeMeters>132.399993896484375</AltitudeMeters>
            <DistanceMeters>NAN</DistanceMeters>
          </Trackpoint>
          <Trackpoint>
            <Time>2022-07-15T16:22:41.000Z</Time>
            <Position>
              <LatitudeDegrees>43.4092634730041027069091796875</LatitudeDegrees>
              <LongitudeDegrees>-4.71476496197283267974853515625</LongitudeDegrees>
            </Position>
            <AltitudeMeters>133.1999969482421875</AltitudeMeters>
            <DistanceMeters>NAN</DistanceMeters>
          </Trackpoint>
          <Trackpoint>
            <Time>2022-07-15T16:22:47.000Z</Time>
            <Position>
              <LatitudeDegrees>43.40929071418941020965576171875</LatitudeDegrees>
              <LongitudeDegrees>-4.7146637924015522003173828125</LongitudeDegrees>
            </Position>
            <AltitudeMeters>134.1999969482421875</AltitudeMeters>
            <DistanceMeters>NAN</DistanceMeters>
          </Trackpoint>
          <Trackpoint>
            <Time>2022-07-15T16:22:51.000Z</Time>
            <Position>
              <LatitudeDegrees>43.409313596785068511962890625</LatitudeDegrees>
              <LongitudeDegrees>-4.7145940549671649932861328125</LongitudeDegrees>
            </Position>
            <AltitudeMeters>135.1999969482421875</AltitudeMeters>
            <DistanceMeters>NAN</DistanceMeters>
          </Trackpoint>
          <Trackpoint>
            <Time>2022-07-15T16:22:53.000Z</Time>
            <Position>
              <LatitudeDegrees>43.40932474471628665924072265625</LatitudeDegrees>
              <LongitudeDegrees>-4.71456329338252544403076171875</LongitudeDegrees>
            </Position>
            <AltitudeMeters>135.399993896484375</AltitudeMeters>
            <DistanceMeters>NAN</DistanceMeters>
          </Trackpoint>
          <Trackpoint>
            <Time>2022-07-15T16:23:00.000Z</Time>
            <Position>
              <LatitudeDegrees>43.409415520727634429931640625</LatitudeDegrees>
              <LongitudeDegrees>-4.71449338831007480621337890625</LongitudeDegrees>
            </Position>
            <AltitudeMeters>136.399993896484375</AltitudeMeters>
            <DistanceMeters>NAN</DistanceMeters>
          </Trackpoint>
          <Trackpoint>
            <Time>2022-07-15T16:23:01.000Z</Time>
            <Position>
              <LatitudeDegrees>43.40943404473364353179931640625</LatitudeDegrees>
              <LongitudeDegrees>-4.7144948132336139678955078125</LongitudeDegrees>
            </Position>
            <AltitudeMeters>136.600006103515625</AltitudeMeters>
            <DistanceMeters>NAN</DistanceMeters>
          </Trackpoint>
          <Trackpoint>
            <Time>2022-07-15T16:23:06.000Z</Time>
            <Position>
              <LatitudeDegrees>43.40950906276702880859375</LatitudeDegrees>
              <LongitudeDegrees>-4.714505709707736968994140625</LongitudeDegrees>
            </Position>
            <AltitudeMeters>137</AltitudeMeters>
            <DistanceMeters>NAN</DistanceMeters>
          </Trackpoint>
          <Trackpoint>
            <Time>2022-07-15T16:23:12.000Z</Time>
            <Position>
              <LatitudeDegrees>43.4095870144665241241455078125</LatitudeDegrees>
              <LongitudeDegrees>-4.71455432474613189697265625</LongitudeDegrees>
            </Position>
            <AltitudeMeters>137.399993896484375</AltitudeMeters>
            <DistanceMeters>NAN</DistanceMeters>
          </Trackpoint>
          <Trackpoint>
            <Time>2022-07-15T16:23:13.000Z</Time>
            <Position>
              <LatitudeDegrees>43.409596569836139678955078125</LatitudeDegrees>
              <LongitudeDegrees>-4.714567400515079498291015625</LongitudeDegrees>
            </Position>
            <AltitudeMeters>137.399993896484375</AltitudeMeters>
            <DistanceMeters>NAN</DistanceMeters>
          </Trackpoint>
          <Trackpoint>
            <Time>2022-07-15T16:23:18.000Z</Time>
            <Position>
              <LatitudeDegrees>43.40965432114899158477783203125</LatitudeDegrees>
              <LongitudeDegrees>-4.71461735665798187255859375</LongitudeDegrees>
            </Position>
            <AltitudeMeters>138</AltitudeMeters>
            <DistanceMeters>NAN</DistanceMeters>
          </Trackpoint>
          <Trackpoint>
            <Time>2022-07-15T16:23:21.000Z</Time>
            <Position>
              <LatitudeDegrees>43.4096929617226123809814453125</LatitudeDegrees>
              <LongitudeDegrees>-4.71465214155614376068115234375</LongitudeDegrees>
            </Position>
            <AltitudeMeters>138.1999969482421875</AltitudeMeters>
            <DistanceMeters>NAN</DistanceMeters>
          </Trackpoint>
          <Trackpoint>
            <Time>2022-07-15T16:23:24.000Z</Time>
            <Position>
              <LatitudeDegrees>43.40972431004047393798828125</LatitudeDegrees>
              <LongitudeDegrees>-4.71467728726565837860107421875</LongitudeDegrees>
            </Position>
            <AltitudeMeters>138.1999969482421875</AltitudeMeters>
            <DistanceMeters>NAN</DistanceMeters>
          </Trackpoint>
          <Trackpoint>
            <Time>2022-07-15T16:23:27.000Z</Time>
            <Position>
              <LatitudeDegrees>43.40976529754698276519775390625</LatitudeDegrees>
              <LongitudeDegrees>-4.71471785567700862884521484375</LongitudeDegrees>
            </Position>
            <AltitudeMeters>138</AltitudeMeters>
            <DistanceMeters>NAN</DistanceMeters>
          </Trackpoint>
          <Trackpoint>
            <Time>2022-07-15T16:23:28.000Z</Time>
            <Position>
              <LatitudeDegrees>43.40978239662945270538330078125</LatitudeDegrees>
              <LongitudeDegrees>-4.71471752040088176727294921875</LongitudeDegrees>
            </Position>
            <AltitudeMeters>138</AltitudeMeters>
            <DistanceMeters>NAN</DistanceMeters>
          </Trackpoint>
          <Trackpoint>
            <Time>2022-07-15T16:23:31.000Z</Time>
            <Position>
              <LatitudeDegrees>43.40979916043579578399658203125</LatitudeDegrees>
              <LongitudeDegrees>-4.71469539217650890350341796875</LongitudeDegrees>
            </Position>
            <AltitudeMeters>137.600006103515625</AltitudeMeters>
            <DistanceMeters>NAN</DistanceMeters>
          </Trackpoint>
          <Trackpoint>
            <Time>2022-07-15T16:23:32.000Z</Time>
            <Position>
              <LatitudeDegrees>43.40979916043579578399658203125</LatitudeDegrees>
              <LongitudeDegrees>-4.71469539217650890350341796875</LongitudeDegrees>
            </Position>
            <AltitudeMeters>137.600006103515625</AltitudeMeters>
            <DistanceMeters>NAN</DistanceMeters>
          </Trackpoint>
          <Trackpoint>
            <Time>2022-07-15T16:24:17.000Z</Time>
            <Position>
              <LatitudeDegrees>43.40978792868554592132568359375</LatitudeDegrees>
              <LongitudeDegrees>-4.71481692977249622344970703125</LongitudeDegrees>
            </Position>
            <AltitudeMeters>136.1999969482421875</AltitudeMeters>
            <DistanceMeters>NAN</DistanceMeters>
          </Trackpoint>
          <Trackpoint>
            <Time>2022-07-15T16:24:18.000Z</Time>
            <Position>
              <LatitudeDegrees>43.40977661311626434326171875</LatitudeDegrees>
              <LongitudeDegrees>-4.71483520232141017913818359375</LongitudeDegrees>
            </Position>
            <AltitudeMeters>136.1999969482421875</AltitudeMeters>
            <DistanceMeters>NAN</DistanceMeters>
          </Trackpoint>
          <Trackpoint>
            <Time>2022-07-15T16:24:19.000Z</Time>
            <Position>
              <LatitudeDegrees>43.4097670577466487884521484375</LatitudeDegrees>
              <LongitudeDegrees>-4.71485313959419727325439453125</LongitudeDegrees>
            </Position>
            <AltitudeMeters>136.1999969482421875</AltitudeMeters>
            <DistanceMeters>NAN</DistanceMeters>
          </Trackpoint>
          <Trackpoint>
            <Time>2022-07-15T16:24:20.000Z</Time>
            <Position>
              <LatitudeDegrees>43.40976077131927013397216796875</LatitudeDegrees>
              <LongitudeDegrees>-4.7148743458092212677001953125</LongitudeDegrees>
            </Position>
            <AltitudeMeters>136</AltitudeMeters>
            <DistanceMeters>NAN</DistanceMeters>
          </Trackpoint>
          <Trackpoint>
            <Time>2022-07-15T16:24:21.000Z</Time>
            <Position>
              <LatitudeDegrees>43.4097623638808727264404296875</LatitudeDegrees>
              <LongitudeDegrees>-4.71490259282290935516357421875</LongitudeDegrees>
            </Position>
            <AltitudeMeters>136</AltitudeMeters>
            <DistanceMeters>NAN</DistanceMeters>
          </Trackpoint>
          <Trackpoint>
            <Time>2022-07-15T16:24:24.000Z</Time>
            <Position>
              <LatitudeDegrees>43.4097858332097530364990234375</LatitudeDegrees>
              <LongitudeDegrees>-4.7150248847901821136474609375</LongitudeDegrees>
            </Position>
            <AltitudeMeters>135.600006103515625</AltitudeMeters>
            <DistanceMeters>NAN</DistanceMeters>
          </Trackpoint>
          <Trackpoint>
            <Time>2022-07-15T16:24:28.000Z</Time>
            <Position>
              <LatitudeDegrees>43.4098300896584987640380859375</LatitudeDegrees>
              <LongitudeDegrees>-4.7151640243828296661376953125</LongitudeDegrees>
            </Position>
            <AltitudeMeters>135</AltitudeMeters>
            <DistanceMeters>NAN</DistanceMeters>
          </Trackpoint>
          <Trackpoint>
            <Time>2022-07-15T16:24:29.000Z</Time>
            <Position>
              <LatitudeDegrees>43.40983319096267223358154296875</LatitudeDegrees>
              <LongitudeDegrees>-4.71518187783658504486083984375</LongitudeDegrees>
            </Position>
            <AltitudeMeters>134.8000030517578125</AltitudeMeters>
            <DistanceMeters>NAN</DistanceMeters>
          </Trackpoint>
          <Trackpoint>
            <Time>2022-07-15T16:24:32.000Z</Time>
            <Position>
              <LatitudeDegrees>43.40983520261943340301513671875</LatitudeDegrees>
              <LongitudeDegrees>-4.715186990797519683837890625</LongitudeDegrees>
            </Position>
            <AltitudeMeters>134.600006103515625</AltitudeMeters>
            <DistanceMeters>NAN</DistanceMeters>
          </Trackpoint>
          <Trackpoint>
            <Time>2022-07-15T16:25:11.000Z</Time>
            <Position>
              <LatitudeDegrees>43.409838974475860595703125</LatitudeDegrees>
              <LongitudeDegrees>-4.71521548926830291748046875</LongitudeDegrees>
            </Position>
            <AltitudeMeters>134</AltitudeMeters>
            <DistanceMeters>NAN</DistanceMeters>
          </Trackpoint>
          <Trackpoint>
            <Time>2022-07-15T16:25:12.000Z</Time>
            <Position>
              <LatitudeDegrees>43.40983587317168712615966796875</LatitudeDegrees>
              <LongitudeDegrees>-4.71524205990135669708251953125</LongitudeDegrees>
            </Position>
            <AltitudeMeters>134</AltitudeMeters>
            <DistanceMeters>NAN</DistanceMeters>
          </Trackpoint>
          <Trackpoint>
            <Time>2022-07-15T16:25:17.000Z</Time>
            <Position>
              <LatitudeDegrees>43.40983503498136997222900390625</LatitudeDegrees>
              <LongitudeDegrees>-4.71542478539049625396728515625</LongitudeDegrees>
            </Position>
            <AltitudeMeters>133.8000030517578125</AltitudeMeters>
            <DistanceMeters>NAN</DistanceMeters>
          </Trackpoint>
          <Trackpoint>
            <Time>2022-07-15T16:25:23.000Z</Time>
            <Position>
              <LatitudeDegrees>43.4098880924284458160400390625</LatitudeDegrees>
              <LongitudeDegrees>-4.71573122777044773101806640625</LongitudeDegrees>
            </Position>
            <AltitudeMeters>133.1999969482421875</AltitudeMeters>
            <DistanceMeters>NAN</DistanceMeters>
          </Trackpoint>
          <Trackpoint>
            <Time>2022-07-15T16:25:25.000Z</Time>
            <Position>
              <LatitudeDegrees>43.409914076328277587890625</LatitudeDegrees>
              <LongitudeDegrees>-4.71585913561284542083740234375</LongitudeDegrees>
            </Position>
            <AltitudeMeters>132.8000030517578125</AltitudeMeters>
            <DistanceMeters>NAN</DistanceMeters>
          </Trackpoint>
          <Trackpoint>
            <Time>2022-07-15T16:25:30.000Z</Time>
            <Position>
              <LatitudeDegrees>43.40997484512627124786376953125</LatitudeDegrees>
              <LongitudeDegrees>-4.71619985997676849365234375</LongitudeDegrees>
            </Position>
            <AltitudeMeters>131.8000030517578125</AltitudeMeters>
            <DistanceMeters>NAN</DistanceMeters>
          </Trackpoint>
          <Trackpoint>
            <Time>2022-07-15T16:25:34.000Z</Time>
            <Position>
              <LatitudeDegrees>43.410025723278522491455078125</LatitudeDegrees>
              <LongitudeDegrees>-4.716448970139026641845703125</LongitudeDegrees>
            </Position>
            <AltitudeMeters>130.8000030517578125</AltitudeMeters>
            <DistanceMeters>NAN</DistanceMeters>
          </Trackpoint>
          <Trackpoint>
            <Time>2022-07-15T16:25:36.000Z</Time>
            <Position>
              <LatitudeDegrees>43.41003720648586750030517578125</LatitudeDegrees>
              <LongitudeDegrees>-4.71654460765421390533447265625</LongitudeDegrees>
            </Position>
            <AltitudeMeters>130</AltitudeMeters>
            <DistanceMeters>NAN</DistanceMeters>
          </Trackpoint>
          <Trackpoint>
            <Time>2022-07-15T16:25:37.000Z</Time>
            <Position>
              <LatitudeDegrees>43.41003905050456523895263671875</LatitudeDegrees>
              <LongitudeDegrees>-4.716578386723995208740234375</LongitudeDegrees>
            </Position>
            <AltitudeMeters>129.600006103515625</AltitudeMeters>
            <DistanceMeters>NAN</DistanceMeters>
          </Trackpoint>
          <Trackpoint>
            <Time>2022-07-15T16:25:39.000Z</Time>
            <Position>
              <LatitudeDegrees>43.41003452427685260772705078125</LatitudeDegrees>
              <LongitudeDegrees>-4.71661970950663089752197265625</LongitudeDegrees>
            </Position>
            <AltitudeMeters>129.1999969482421875</AltitudeMeters>
            <DistanceMeters>NAN</DistanceMeters>
          </Trackpoint>
          <Trackpoint>
            <Time>2022-07-15T16:25:40.000Z</Time>
            <Position>
              <LatitudeDegrees>43.41002798639237880706787109375</LatitudeDegrees>
              <LongitudeDegrees>-4.71663706004619598388671875</LongitudeDegrees>
            </Position>
            <AltitudeMeters>129.1999969482421875</AltitudeMeters>
            <DistanceMeters>NAN</DistanceMeters>
          </Trackpoint>
          <Trackpoint>
            <Time>2022-07-15T16:25:45.000Z</Time>
            <Position>
              <LatitudeDegrees>43.40997115708887577056884765625</LatitudeDegrees>
              <LongitudeDegrees>-4.7167331166565418243408203125</LongitudeDegrees>
            </Position>
            <AltitudeMeters>129.1999969482421875</AltitudeMeters>
            <DistanceMeters>NAN</DistanceMeters>
          </Trackpoint>
          <Trackpoint>
            <Time>2022-07-15T16:25:51.000Z</Time>
            <Position>
              <LatitudeDegrees>43.4099554829299449920654296875</LatitudeDegrees>
              <LongitudeDegrees>-4.71688005141913890838623046875</LongitudeDegrees>
            </Position>
            <AltitudeMeters>130.600006103515625</AltitudeMeters>
            <DistanceMeters>NAN</DistanceMeters>
          </Trackpoint>
          <Trackpoint>
            <Time>2022-07-15T16:25:52.000Z</Time>
            <Position>
              <LatitudeDegrees>43.4099564887583255767822265625</LatitudeDegrees>
              <LongitudeDegrees>-4.71691190265119075775146484375</LongitudeDegrees>
            </Position>
            <AltitudeMeters>130.8000030517578125</AltitudeMeters>
            <DistanceMeters>NAN</DistanceMeters>
          </Trackpoint>
          <Trackpoint>
            <Time>2022-07-15T16:25:57.000Z</Time>
            <Position>
              <LatitudeDegrees>43.4099695645272731781005859375</LatitudeDegrees>
              <LongitudeDegrees>-4.7170761041343212127685546875</LongitudeDegrees>
            </Position>
            <AltitudeMeters>131.600006103515625</AltitudeMeters>
            <DistanceMeters>NAN</DistanceMeters>
          </Trackpoint>
          <Trackpoint>
            <Time>2022-07-15T16:26:00.000Z</Time>
            <Position>
              <LatitudeDegrees>43.4099695645272731781005859375</LatitudeDegrees>
              <LongitudeDegrees>-4.7171786986291408538818359375</LongitudeDegrees>
            </Position>
            <AltitudeMeters>131.8000030517578125</AltitudeMeters>
            <DistanceMeters>NAN</DistanceMeters>
          </Trackpoint>
          <Trackpoint>
            <Time>2022-07-15T16:26:05.000Z</Time>
            <Position>
              <LatitudeDegrees>43.4099732525646686553955078125</LatitudeDegrees>
              <LongitudeDegrees>-4.7173708118498325347900390625</LongitudeDegrees>
            </Position>
            <AltitudeMeters>132</AltitudeMeters>
            <DistanceMeters>NAN</DistanceMeters>
          </Trackpoint>
          <Trackpoint>
            <Time>2022-07-15T16:26:13.000Z</Time>
            <Position>
              <LatitudeDegrees>43.40999864973127841949462890625</LatitudeDegrees>
              <LongitudeDegrees>-4.7176148928701877593994140625</LongitudeDegrees>
            </Position>
            <AltitudeMeters>131.600006103515625</AltitudeMeters>
            <DistanceMeters>NAN</DistanceMeters>
          </Trackpoint>
          <Trackpoint>
            <Time>2022-07-15T16:26:15.000Z</Time>
            <Position>
              <LatitudeDegrees>43.40999864973127841949462890625</LatitudeDegrees>
              <LongitudeDegrees>-4.7176148928701877593994140625</LongitudeDegrees>
            </Position>
            <AltitudeMeters>131.399993896484375</AltitudeMeters>
            <DistanceMeters>NAN</DistanceMeters>
          </Trackpoint>
          <Trackpoint>
            <Time>2022-07-15T16:28:38.000Z</Time>
            <Position>
              <LatitudeDegrees>43.409996218979358673095703125</LatitudeDegrees>
              <LongitudeDegrees>-4.71767432056367397308349609375</LongitudeDegrees>
            </Position>
            <AltitudeMeters>131.600006103515625</AltitudeMeters>
            <DistanceMeters>NAN</DistanceMeters>
          </Trackpoint>
          <Trackpoint>
            <Time>2022-07-15T16:28:39.000Z</Time>
            <Position>
              <LatitudeDegrees>43.40999529697000980377197265625</LatitudeDegrees>
              <LongitudeDegrees>-4.7177101112902164459228515625</LongitudeDegrees>
            </Position>
            <AltitudeMeters>131.600006103515625</AltitudeMeters>
            <DistanceMeters>NAN</DistanceMeters>
          </Trackpoint>
          <Trackpoint>
            <Time>2022-07-15T16:28:46.000Z</Time>
            <Position>
              <LatitudeDegrees>43.409983813762664794921875</LatitudeDegrees>
              <LongitudeDegrees>-4.7180041484534740447998046875</LongitudeDegrees>
            </Position>
            <AltitudeMeters>132.600006103515625</AltitudeMeters>
            <DistanceMeters>NAN</DistanceMeters>
          </Trackpoint>
          <Trackpoint>
            <Time>2022-07-15T16:28:51.000Z</Time>
            <Position>
              <LatitudeDegrees>43.40998205356299877166748046875</LatitudeDegrees>
              <LongitudeDegrees>-4.71828569658100605010986328125</LongitudeDegrees>
            </Position>
            <AltitudeMeters>132.399993896484375</AltitudeMeters>
            <DistanceMeters>NAN</DistanceMeters>
          </Trackpoint>
          <Trackpoint>
            <Time>2022-07-15T16:28:56.000Z</Time>
            <Position>
              <LatitudeDegrees>43.40999789535999298095703125</LatitudeDegrees>
              <LongitudeDegrees>-4.718452580273151397705078125</LongitudeDegrees>
            </Position>
            <AltitudeMeters>132.8000030517578125</AltitudeMeters>
            <DistanceMeters>NAN</DistanceMeters>
          </Trackpoint>
          <Trackpoint>
            <Time>2022-07-15T16:28:57.000Z</Time>
            <Position>
              <LatitudeDegrees>43.40999848209321498870849609375</LatitudeDegrees>
              <LongitudeDegrees>-4.7184819169342517852783203125</LongitudeDegrees>
            </Position>
            <AltitudeMeters>132.8000030517578125</AltitudeMeters>
            <DistanceMeters>NAN</DistanceMeters>
          </Trackpoint>
          <Trackpoint>
            <Time>2022-07-15T16:29:03.000Z</Time>
            <Position>
              <LatitudeDegrees>43.40999789535999298095703125</LatitudeDegrees>
              <LongitudeDegrees>-4.71867746673524379730224609375</LongitudeDegrees>
            </Position>
            <AltitudeMeters>133.600006103515625</AltitudeMeters>
            <DistanceMeters>NAN</DistanceMeters>
          </Trackpoint>
          <Trackpoint>
            <Time>2022-07-15T16:29:08.000Z</Time>
            <Position>
              <LatitudeDegrees>43.40999194420874118804931640625</LatitudeDegrees>
              <LongitudeDegrees>-4.71884292550384998321533203125</LongitudeDegrees>
            </Position>
            <AltitudeMeters>133.600006103515625</AltitudeMeters>
            <DistanceMeters>NAN</DistanceMeters>
          </Trackpoint>
          <Trackpoint>
            <Time>2022-07-15T16:29:10.000Z</Time>
            <Position>
              <LatitudeDegrees>43.409996889531612396240234375</LatitudeDegrees>
              <LongitudeDegrees>-4.71892272122204303741455078125</LongitudeDegrees>
            </Position>
            <AltitudeMeters>133.600006103515625</AltitudeMeters>
            <DistanceMeters>NAN</DistanceMeters>
          </Trackpoint>
          <Trackpoint>
            <Time>2022-07-15T16:29:13.000Z</Time>
            <Position>
              <LatitudeDegrees>43.41006050817668437957763671875</LatitudeDegrees>
              <LongitudeDegrees>-4.71906186081469058990478515625</LongitudeDegrees>
            </Position>
            <AltitudeMeters>132.399993896484375</AltitudeMeters>
            <DistanceMeters>NAN</DistanceMeters>
          </Trackpoint>
          <Trackpoint>
            <Time>2022-07-15T16:29:14.000Z</Time>
            <Position>
              <LatitudeDegrees>43.4100976400077342987060546875</LatitudeDegrees>
              <LongitudeDegrees>-4.719094969332218170166015625</LongitudeDegrees>
            </Position>
            <AltitudeMeters>132.1999969482421875</AltitudeMeters>
            <DistanceMeters>NAN</DistanceMeters>
          </Trackpoint>
          <Trackpoint>
            <Time>2022-07-15T16:29:15.000Z</Time>
            <Position>
              <LatitudeDegrees>43.41013259254395961761474609375</LatitudeDegrees>
              <LongitudeDegrees>-4.71911081112921237945556640625</LongitudeDegrees>
            </Position>
            <AltitudeMeters>131.600006103515625</AltitudeMeters>
            <DistanceMeters>NAN</DistanceMeters>
          </Trackpoint>
          <Trackpoint>
            <Time>2022-07-15T16:29:17.000Z</Time>
            <Position>
              <LatitudeDegrees>43.41018388979136943817138671875</LatitudeDegrees>
              <LongitudeDegrees>-4.719090946018695831298828125</LongitudeDegrees>
            </Position>
            <AltitudeMeters>131.1999969482421875</AltitudeMeters>
            <DistanceMeters>NAN</DistanceMeters>
          </Trackpoint>
          <Trackpoint>
            <Time>2022-07-15T16:29:22.000Z</Time>
            <Position>
              <LatitudeDegrees>43.41023870743811130523681640625</LatitudeDegrees>
              <LongitudeDegrees>-4.71905046142637729644775390625</LongitudeDegrees>
            </Position>
            <AltitudeMeters>131.1999969482421875</AltitudeMeters>
            <DistanceMeters>NAN</DistanceMeters>
          </Trackpoint>
          <Trackpoint>
            <Time>2022-07-15T16:29:25.000Z</Time>
            <Position>
              <LatitudeDegrees>43.41024239547550678253173828125</LatitudeDegrees>
              <LongitudeDegrees>-4.71904861740767955780029296875</LongitudeDegrees>
            </Position>
            <AltitudeMeters>131.600006103515625</AltitudeMeters>
            <DistanceMeters>NAN</DistanceMeters>
          </Trackpoint>
          <Trackpoint>
            <Time>2022-07-15T16:30:04.000Z</Time>
            <Position>
              <LatitudeDegrees>43.41040081344544887542724609375</LatitudeDegrees>
              <LongitudeDegrees>-4.71918004564940929412841796875</LongitudeDegrees>
            </Position>
            <AltitudeMeters>136</AltitudeMeters>
            <DistanceMeters>NAN</DistanceMeters>
          </Trackpoint>
          <Trackpoint>
            <Time>2022-07-15T16:30:05.000Z</Time>
            <Position>
              <LatitudeDegrees>43.41040265746414661407470703125</LatitudeDegrees>
              <LongitudeDegrees>-4.71920468844473361968994140625</LongitudeDegrees>
            </Position>
            <AltitudeMeters>136</AltitudeMeters>
            <DistanceMeters>NAN</DistanceMeters>
          </Trackpoint>
          <Trackpoint>
            <Time>2022-07-15T16:30:13.000Z</Time>
            <Position>
              <LatitudeDegrees>43.41041338630020618438720703125</LatitudeDegrees>
              <LongitudeDegrees>-4.71940015442669391632080078125</LongitudeDegrees>
            </Position>
            <AltitudeMeters>136.8000030517578125</AltitudeMeters>
            <DistanceMeters>NAN</DistanceMeters>
          </Trackpoint>
          <Trackpoint>
            <Time>2022-07-15T16:30:15.000Z</Time>
            <Position>
              <LatitudeDegrees>43.41041305102407932281494140625</LatitudeDegrees>
              <LongitudeDegrees>-4.71944935619831085205078125</LongitudeDegrees>
            </Position>
            <AltitudeMeters>137</AltitudeMeters>
            <DistanceMeters>NAN</DistanceMeters>
          </Trackpoint>
          <Trackpoint>
            <Time>2022-07-15T16:30:22.000Z</Time>
            <Position>
              <LatitudeDegrees>43.41043149121105670928955078125</LatitudeDegrees>
              <LongitudeDegrees>-4.71965731121599674224853515625</LongitudeDegrees>
            </Position>
            <AltitudeMeters>137.1999969482421875</AltitudeMeters>
            <DistanceMeters>NAN</DistanceMeters>
          </Trackpoint>
          <Trackpoint>
            <Time>2022-07-15T16:30:29.000Z</Time>
            <Position>
              <LatitudeDegrees>43.4104741550981998443603515625</LatitudeDegrees>
              <LongitudeDegrees>-4.7199081815779209136962890625</LongitudeDegrees>
            </Position>
            <AltitudeMeters>137</AltitudeMeters>
            <DistanceMeters>NAN</DistanceMeters>
          </Trackpoint>
          <Trackpoint>
            <Time>2022-07-15T16:30:36.000Z</Time>
            <Position>
              <LatitudeDegrees>43.41052763164043426513671875</LatitudeDegrees>
              <LongitudeDegrees>-4.72025074996054172515869140625</LongitudeDegrees>
            </Position>
            <AltitudeMeters>136.1999969482421875</AltitudeMeters>
            <DistanceMeters>NAN</DistanceMeters>
          </Trackpoint>
          <Trackpoint>
            <Time>2022-07-15T16:30:37.000Z</Time>
            <Position>
              <LatitudeDegrees>43.41053576208651065826416015625</LatitudeDegrees>
              <LongitudeDegrees>-4.7203168831765651702880859375</LongitudeDegrees>
            </Position>
            <AltitudeMeters>136</AltitudeMeters>
            <DistanceMeters>NAN</DistanceMeters>
          </Trackpoint>
          <Trackpoint>
            <Time>2022-07-15T16:30:41.000Z</Time>
            <Position>
              <LatitudeDegrees>43.4105591475963592529296875</LatitudeDegrees>
              <LongitudeDegrees>-4.720610417425632476806640625</LongitudeDegrees>
            </Position>
            <AltitudeMeters>135.399993896484375</AltitudeMeters>
            <DistanceMeters>NAN</DistanceMeters>
          </Trackpoint>
          <Trackpoint>
            <Time>2022-07-15T16:30:48.000Z</Time>
            <Position>
              <LatitudeDegrees>43.4105630032718181610107421875</LatitudeDegrees>
              <LongitudeDegrees>-4.72109262831509113311767578125</LongitudeDegrees>
            </Position>
            <AltitudeMeters>135.1999969482421875</AltitudeMeters>
            <DistanceMeters>NAN</DistanceMeters>
          </Trackpoint>
          <Trackpoint>
            <Time>2022-07-15T16:30:51.000Z</Time>
            <Position>
              <LatitudeDegrees>43.41058655641973018646240234375</LatitudeDegrees>
              <LongitudeDegrees>-4.72127191722393035888671875</LongitudeDegrees>
            </Position>
            <AltitudeMeters>135</AltitudeMeters>
            <DistanceMeters>NAN</DistanceMeters>
          </Trackpoint>
          <Trackpoint>
            <Time>2022-07-15T16:30:53.000Z</Time>
            <Position>
              <LatitudeDegrees>43.410599045455455780029296875</LatitudeDegrees>
              <LongitudeDegrees>-4.7213921137154102325439453125</LongitudeDegrees>
            </Position>
            <AltitudeMeters>134.600006103515625</AltitudeMeters>
            <DistanceMeters>NAN</DistanceMeters>
          </Trackpoint>
          <Trackpoint>
            <Time>2022-07-15T16:30:54.000Z</Time>
            <Position>
              <LatitudeDegrees>43.41060164384543895721435546875</LatitudeDegrees>
              <LongitudeDegrees>-4.72145355306565761566162109375</LongitudeDegrees>
            </Position>
            <AltitudeMeters>134.399993896484375</AltitudeMeters>
            <DistanceMeters>NAN</DistanceMeters>
          </Trackpoint>
          <Trackpoint>
            <Time>2022-07-15T16:30:56.000Z</Time>
            <Position>
              <LatitudeDegrees>43.4105861373245716094970703125</LatitudeDegrees>
              <LongitudeDegrees>-4.7215657867491245269775390625</LongitudeDegrees>
            </Position>
            <AltitudeMeters>133.399993896484375</AltitudeMeters>
            <DistanceMeters>NAN</DistanceMeters>
          </Trackpoint>
          <Trackpoint>
            <Time>2022-07-15T16:30:58.000Z</Time>
            <Position>
              <LatitudeDegrees>43.410547077655792236328125</LatitudeDegrees>
              <LongitudeDegrees>-4.72164784558117389678955078125</LongitudeDegrees>
            </Position>
            <AltitudeMeters>132.399993896484375</AltitudeMeters>
            <DistanceMeters>NAN</DistanceMeters>
          </Trackpoint>
          <Trackpoint>
            <Time>2022-07-15T16:31:04.000Z</Time>
            <Position>
              <LatitudeDegrees>43.41036275960505008697509765625</LatitudeDegrees>
              <LongitudeDegrees>-4.721908606588840484619140625</LongitudeDegrees>
            </Position>
            <AltitudeMeters>131.1999969482421875</AltitudeMeters>
            <DistanceMeters>NAN</DistanceMeters>
          </Trackpoint>
          <Trackpoint>
            <Time>2022-07-15T16:31:06.000Z</Time>
            <Position>
              <LatitudeDegrees>43.4103038348257541656494140625</LatitudeDegrees>
              <LongitudeDegrees>-4.7220033220946788787841796875</LongitudeDegrees>
            </Position>
            <AltitudeMeters>131</AltitudeMeters>
            <DistanceMeters>NAN</DistanceMeters>
          </Trackpoint>
          <Trackpoint>
            <Time>2022-07-15T16:31:08.000Z</Time>
            <Position>
              <LatitudeDegrees>43.41029671020805835723876953125</LatitudeDegrees>
              <LongitudeDegrees>-4.72207926213741302490234375</LongitudeDegrees>
            </Position>
            <AltitudeMeters>131</AltitudeMeters>
            <DistanceMeters>NAN</DistanceMeters>
          </Trackpoint>
          <Trackpoint>
            <Time>2022-07-15T16:31:15.000Z</Time>
            <Position>
              <LatitudeDegrees>43.41039276681840419769287109375</LatitudeDegrees>
              <LongitudeDegrees>-4.7222205810248851776123046875</LongitudeDegrees>
            </Position>
            <AltitudeMeters>132</AltitudeMeters>
            <DistanceMeters>NAN</DistanceMeters>
          </Trackpoint>
          <Trackpoint>
            <Time>2022-07-15T16:31:17.000Z</Time>
            <Position>
              <LatitudeDegrees>43.410415984690189361572265625</LatitudeDegrees>
              <LongitudeDegrees>-4.72226961515843868255615234375</LongitudeDegrees>
            </Position>
            <AltitudeMeters>132.600006103515625</AltitudeMeters>
            <DistanceMeters>NAN</DistanceMeters>
          </Trackpoint>
          <Trackpoint>
            <Time>2022-07-15T16:31:22.000Z</Time>
            <Position>
              <LatitudeDegrees>43.41049200855195522308349609375</LatitudeDegrees>
              <LongitudeDegrees>-4.72240271978080272674560546875</LongitudeDegrees>
            </Position>
            <AltitudeMeters>133.8000030517578125</AltitudeMeters>
            <DistanceMeters>NAN</DistanceMeters>
          </Trackpoint>
          <Trackpoint>
            <Time>2022-07-15T16:31:26.000Z</Time>
            <Position>
              <LatitudeDegrees>43.410536684095859527587890625</LatitudeDegrees>
              <LongitudeDegrees>-4.7225089184939861297607421875</LongitudeDegrees>
            </Position>
            <AltitudeMeters>134.1999969482421875</AltitudeMeters>
            <DistanceMeters>NAN</DistanceMeters>
          </Trackpoint>
          <Trackpoint>
            <Time>2022-07-15T16:31:34.000Z</Time>
            <Position>
              <LatitudeDegrees>43.410577587783336639404296875</LatitudeDegrees>
              <LongitudeDegrees>-4.72273506224155426025390625</LongitudeDegrees>
            </Position>
            <AltitudeMeters>134.600006103515625</AltitudeMeters>
            <DistanceMeters>NAN</DistanceMeters>
          </Trackpoint>
          <Trackpoint>
            <Time>2022-07-15T16:31:35.000Z</Time>
            <Position>
              <LatitudeDegrees>43.41057666577398777008056640625</LatitudeDegrees>
              <LongitudeDegrees>-4.722756184637546539306640625</LongitudeDegrees>
            </Position>
            <AltitudeMeters>134.8000030517578125</AltitudeMeters>
            <DistanceMeters>NAN</DistanceMeters>
          </Trackpoint>
          <Trackpoint>
            <Time>2022-07-15T16:31:38.000Z</Time>
            <Position>
              <LatitudeDegrees>43.41058068908751010894775390625</LatitudeDegrees>
              <LongitudeDegrees>-4.7228183783590793609619140625</LongitudeDegrees>
            </Position>
            <AltitudeMeters>135</AltitudeMeters>
            <DistanceMeters>NAN</DistanceMeters>
          </Trackpoint>
          <Trackpoint>
            <Time>2022-07-15T16:31:41.000Z</Time>
            <Position>
              <LatitudeDegrees>43.41059795580804347991943359375</LatitudeDegrees>
              <LongitudeDegrees>-4.72288333810865879058837890625</LongitudeDegrees>
            </Position>
            <AltitudeMeters>135.1999969482421875</AltitudeMeters>
            <DistanceMeters>NAN</DistanceMeters>
          </Trackpoint>
          <Trackpoint>
            <Time>2022-07-15T16:31:48.000Z</Time>
            <Position>
              <LatitudeDegrees>43.41062511317431926727294921875</LatitudeDegrees>
              <LongitudeDegrees>-4.723122306168079376220703125</LongitudeDegrees>
            </Position>
            <AltitudeMeters>135.399993896484375</AltitudeMeters>
            <DistanceMeters>NAN</DistanceMeters>
          </Trackpoint>
          <Trackpoint>
            <Time>2022-07-15T16:31:54.000Z</Time>
            <Position>
              <LatitudeDegrees>43.41070021502673625946044921875</LatitudeDegrees>
              <LongitudeDegrees>-4.723386503756046295166015625</LongitudeDegrees>
            </Position>
            <AltitudeMeters>135</AltitudeMeters>
            <DistanceMeters>NAN</DistanceMeters>
          </Trackpoint>
          <Trackpoint>
            <Time>2022-07-15T16:31:58.000Z</Time>
            <Position>
              <LatitudeDegrees>43.4108198247849941253662109375</LatitudeDegrees>
              <LongitudeDegrees>-4.72345163114368915557861328125</LongitudeDegrees>
            </Position>
            <AltitudeMeters>135</AltitudeMeters>
            <DistanceMeters>NAN</DistanceMeters>
          </Trackpoint>
          <Trackpoint>
            <Time>2022-07-15T16:32:03.000Z</Time>
            <Position>
              <LatitudeDegrees>43.41093666851520538330078125</LatitudeDegrees>
              <LongitudeDegrees>-4.72343034110963344573974609375</LongitudeDegrees>
            </Position>
            <AltitudeMeters>135.1999969482421875</AltitudeMeters>
            <DistanceMeters>NAN</DistanceMeters>
          </Trackpoint>
          <Trackpoint>
            <Time>2022-07-15T16:32:10.000Z</Time>
            <Position>
              <LatitudeDegrees>43.41106700710952281951904296875</LatitudeDegrees>
              <LongitudeDegrees>-4.72346604801714420318603515625</LongitudeDegrees>
            </Position>
            <AltitudeMeters>135.8000030517578125</AltitudeMeters>
            <DistanceMeters>NAN</DistanceMeters>
          </Trackpoint>
          <Trackpoint>
            <Time>2022-07-15T16:32:16.000Z</Time>
            <Position>
              <LatitudeDegrees>43.4111138619482517242431640625</LatitudeDegrees>
              <LongitudeDegrees>-4.7236146591603755950927734375</LongitudeDegrees>
            </Position>
            <AltitudeMeters>136.600006103515625</AltitudeMeters>
            <DistanceMeters>NAN</DistanceMeters>
          </Trackpoint>
          <Trackpoint>
            <Time>2022-07-15T16:32:22.000Z</Time>
            <Position>
              <LatitudeDegrees>43.41111847199499607086181640625</LatitudeDegrees>
              <LongitudeDegrees>-4.72375690005719661712646484375</LongitudeDegrees>
            </Position>
            <AltitudeMeters>136.8000030517578125</AltitudeMeters>
            <DistanceMeters>NAN</DistanceMeters>
          </Trackpoint>
          <Trackpoint>
            <Time>2022-07-15T16:32:23.000Z</Time>
            <Position>
              <LatitudeDegrees>43.41112601570785045623779296875</LatitudeDegrees>
              <LongitudeDegrees>-4.7237849794328212738037109375</LongitudeDegrees>
            </Position>
            <AltitudeMeters>136.8000030517578125</AltitudeMeters>
            <DistanceMeters>NAN</DistanceMeters>
          </Trackpoint>
          <Trackpoint>
            <Time>2022-07-15T16:32:25.000Z</Time>
            <Position>
              <LatitudeDegrees>43.4111245907843112945556640625</LatitudeDegrees>
              <LongitudeDegrees>-4.72383552230894565582275390625</LongitudeDegrees>
            </Position>
            <AltitudeMeters>137</AltitudeMeters>
            <DistanceMeters>NAN</DistanceMeters>
          </Trackpoint>
          <Trackpoint>
            <Time>2022-07-15T16:32:34.000Z</Time>
            <Position>
              <LatitudeDegrees>43.411108665168285369873046875</LatitudeDegrees>
              <LongitudeDegrees>-4.72401958890259265899658203125</LongitudeDegrees>
            </Position>
            <AltitudeMeters>137.600006103515625</AltitudeMeters>
            <DistanceMeters>NAN</DistanceMeters>
          </Trackpoint>
          <Trackpoint>
            <Time>2022-07-15T16:32:38.000Z</Time>
            <Position>
              <LatitudeDegrees>43.41110296547412872314453125</LatitudeDegrees>
              <LongitudeDegrees>-4.72410357557237148284912109375</LongitudeDegrees>
            </Position>
            <AltitudeMeters>138</AltitudeMeters>
            <DistanceMeters>NAN</DistanceMeters>
          </Trackpoint>
          <Trackpoint>
            <Time>2022-07-15T16:32:43.000Z</Time>
            <Position>
              <LatitudeDegrees>43.41108242981135845184326171875</LatitudeDegrees>
              <LongitudeDegrees>-4.72420985810458660125732421875</LongitudeDegrees>
            </Position>
            <AltitudeMeters>138.1999969482421875</AltitudeMeters>
            <DistanceMeters>NAN</DistanceMeters>
          </Trackpoint>
          <Trackpoint>
            <Time>2022-07-15T16:32:44.000Z</Time>
            <Position>
              <LatitudeDegrees>43.41107689775526523590087890625</LatitudeDegrees>
              <LongitudeDegrees>-4.72423299215734004974365234375</LongitudeDegrees>
            </Position>
            <AltitudeMeters>138.1999969482421875</AltitudeMeters>
            <DistanceMeters>NAN</DistanceMeters>
          </Trackpoint>
          <Trackpoint>
            <Time>2022-07-15T16:32:53.000Z</Time>
            <Position>
              <LatitudeDegrees>43.41102392412722110748291015625</LatitudeDegrees>
              <LongitudeDegrees>-4.72443801350891590118408203125</LongitudeDegrees>
            </Position>
            <AltitudeMeters>139</AltitudeMeters>
            <DistanceMeters>NAN</DistanceMeters>
          </Trackpoint>
          <Trackpoint>
            <Time>2022-07-15T16:33:00.000Z</Time>
            <Position>
              <LatitudeDegrees>43.41102643869817256927490234375</LatitudeDegrees>
              <LongitudeDegrees>-4.724608249962329864501953125</LongitudeDegrees>
            </Position>
            <AltitudeMeters>139</AltitudeMeters>
            <DistanceMeters>NAN</DistanceMeters>
          </Trackpoint>
          <Trackpoint>
            <Time>2022-07-15T16:33:05.000Z</Time>
            <Position>
              <LatitudeDegrees>43.4110635705292224884033203125</LatitudeDegrees>
              <LongitudeDegrees>-4.72482793964445590972900390625</LongitudeDegrees>
            </Position>
            <AltitudeMeters>138.1999969482421875</AltitudeMeters>
            <DistanceMeters>NAN</DistanceMeters>
          </Trackpoint>
          <Trackpoint>
            <Time>2022-07-15T16:33:06.000Z</Time>
            <Position>
              <LatitudeDegrees>43.411073125898838043212890625</LatitudeDegrees>
              <LongitudeDegrees>-4.7248897142708301544189453125</LongitudeDegrees>
            </Position>
            <AltitudeMeters>137.600006103515625</AltitudeMeters>
            <DistanceMeters>NAN</DistanceMeters>
          </Trackpoint>
          <Trackpoint>
            <Time>2022-07-15T16:33:07.000Z</Time>
            <Position>
              <LatitudeDegrees>43.41107555665075778961181640625</LatitudeDegrees>
              <LongitudeDegrees>-4.72495366819202899932861328125</LongitudeDegrees>
            </Position>
            <AltitudeMeters>137</AltitudeMeters>
            <DistanceMeters>NAN</DistanceMeters>
          </Trackpoint>
          <Trackpoint>
            <Time>2022-07-15T16:33:08.000Z</Time>
            <Position>
              <LatitudeDegrees>43.411063738167285919189453125</LatitudeDegrees>
              <LongitudeDegrees>-4.72502742893993854522705078125</LongitudeDegrees>
            </Position>
            <AltitudeMeters>136.399993896484375</AltitudeMeters>
            <DistanceMeters>NAN</DistanceMeters>
          </Trackpoint>
          <Trackpoint>
            <Time>2022-07-15T16:33:09.000Z</Time>
            <Position>
              <LatitudeDegrees>43.4110484831035137176513671875</LatitudeDegrees>
              <LongitudeDegrees>-4.72507369704544544219970703125</LongitudeDegrees>
            </Position>
            <AltitudeMeters>135.8000030517578125</AltitudeMeters>
            <DistanceMeters>NAN</DistanceMeters>
          </Trackpoint>
          <Trackpoint>
            <Time>2022-07-15T16:33:10.000Z</Time>
            <Position>
              <LatitudeDegrees>43.41102384030818939208984375</LatitudeDegrees>
              <LongitudeDegrees>-4.72512583248317241668701171875</LongitudeDegrees>
            </Position>
            <AltitudeMeters>135</AltitudeMeters>
            <DistanceMeters>NAN</DistanceMeters>
          </Trackpoint>
          <Trackpoint>
            <Time>2022-07-15T16:33:13.000Z</Time>
            <Position>
              <LatitudeDegrees>43.41093138791620731353759765625</LatitudeDegrees>
              <LongitudeDegrees>-4.725254662334918975830078125</LongitudeDegrees>
            </Position>
            <AltitudeMeters>133.600006103515625</AltitudeMeters>
            <DistanceMeters>NAN</DistanceMeters>
          </Trackpoint>
          <Trackpoint>
            <Time>2022-07-15T16:33:14.000Z</Time>
            <Position>
              <LatitudeDegrees>43.41089886613190174102783203125</LatitudeDegrees>
              <LongitudeDegrees>-4.72528978250920772552490234375</LongitudeDegrees>
            </Position>
            <AltitudeMeters>132.8000030517578125</AltitudeMeters>
            <DistanceMeters>NAN</DistanceMeters>
          </Trackpoint>
          <Trackpoint>
            <Time>2022-07-15T16:33:15.000Z</Time>
            <Position>
              <LatitudeDegrees>43.41086550615727901458740234375</LatitudeDegrees>
              <LongitudeDegrees>-4.7253267467021942138671875</LongitudeDegrees>
            </Position>
            <AltitudeMeters>132.1999969482421875</AltitudeMeters>
            <DistanceMeters>NAN</DistanceMeters>
          </Trackpoint>
          <Trackpoint>
            <Time>2022-07-15T16:33:18.000Z</Time>
            <Position>
              <LatitudeDegrees>43.410745896399021148681640625</LatitudeDegrees>
              <LongitudeDegrees>-4.72543059848248958587646484375</LongitudeDegrees>
            </Position>
            <AltitudeMeters>130.8000030517578125</AltitudeMeters>
            <DistanceMeters>NAN</DistanceMeters>
          </Trackpoint>
          <Trackpoint>
            <Time>2022-07-15T16:33:19.000Z</Time>
            <Position>
              <LatitudeDegrees>43.4107071720063686370849609375</LatitudeDegrees>
              <LongitudeDegrees>-4.72546881996095180511474609375</LongitudeDegrees>
            </Position>
            <AltitudeMeters>130.1999969482421875</AltitudeMeters>
            <DistanceMeters>NAN</DistanceMeters>
          </Trackpoint>
          <Trackpoint>
            <Time>2022-07-15T16:33:20.000Z</Time>
            <Position>
              <LatitudeDegrees>43.410677500069141387939453125</LatitudeDegrees>
              <LongitudeDegrees>-4.72551458515226840972900390625</LongitudeDegrees>
            </Position>
            <AltitudeMeters>129.8000030517578125</AltitudeMeters>
            <DistanceMeters>NAN</DistanceMeters>
          </Trackpoint>
          <Trackpoint>
            <Time>2022-07-15T16:33:21.000Z</Time>
            <Position>
              <LatitudeDegrees>43.4106612391769886016845703125</LatitudeDegrees>
              <LongitudeDegrees>-4.72556521184742450714111328125</LongitudeDegrees>
            </Position>
            <AltitudeMeters>129.1999969482421875</AltitudeMeters>
            <DistanceMeters>NAN</DistanceMeters>
          </Trackpoint>
          <Trackpoint>
            <Time>2022-07-15T16:33:22.000Z</Time>
            <Position>
              <LatitudeDegrees>43.41066115535795688629150390625</LatitudeDegrees>
              <LongitudeDegrees>-4.7256175987422466278076171875</LongitudeDegrees>
            </Position>
            <AltitudeMeters>128.1999969482421875</AltitudeMeters>
            <DistanceMeters>NAN</DistanceMeters>
          </Trackpoint>
          <Trackpoint>
            <Time>2022-07-15T16:33:23.000Z</Time>
            <Position>
              <LatitudeDegrees>43.41067708097398281097412109375</LatitudeDegrees>
              <LongitudeDegrees>-4.72565908916294574737548828125</LongitudeDegrees>
            </Position>
            <AltitudeMeters>127.59999847412109375</AltitudeMeters>
            <DistanceMeters>NAN</DistanceMeters>
          </Trackpoint>
          <Trackpoint>
            <Time>2022-07-15T16:33:24.000Z</Time>
            <Position>
              <LatitudeDegrees>43.41069887392222881317138671875</LatitudeDegrees>
              <LongitudeDegrees>-4.72569060511887073516845703125</LongitudeDegrees>
            </Position>
            <AltitudeMeters>127.1999969482421875</AltitudeMeters>
            <DistanceMeters>NAN</DistanceMeters>
          </Trackpoint>
          <Trackpoint>
            <Time>2022-07-15T16:33:26.000Z</Time>
            <Position>
              <LatitudeDegrees>43.4107272885739803314208984375</LatitudeDegrees>
              <LongitudeDegrees>-4.7257103025913238525390625</LongitudeDegrees>
            </Position>
            <AltitudeMeters>126.59999847412109375</AltitudeMeters>
            <DistanceMeters>NAN</DistanceMeters>
          </Trackpoint>
          <Trackpoint>
            <Time>2022-07-15T16:33:28.000Z</Time>
            <Position>
              <LatitudeDegrees>43.4107272885739803314208984375</LatitudeDegrees>
              <LongitudeDegrees>-4.7257103025913238525390625</LongitudeDegrees>
            </Position>
            <AltitudeMeters>126.40000152587890625</AltitudeMeters>
            <DistanceMeters>NAN</DistanceMeters>
          </Trackpoint>
          <Trackpoint>
            <Time>2022-07-15T16:33:54.000Z</Time>
            <Position>
              <LatitudeDegrees>43.4107671864330768585205078125</LatitudeDegrees>
              <LongitudeDegrees>-4.7257332690060138702392578125</LongitudeDegrees>
            </Position>
            <AltitudeMeters>126.40000152587890625</AltitudeMeters>
            <DistanceMeters>NAN</DistanceMeters>
          </Trackpoint>
          <Trackpoint>
            <Time>2022-07-15T16:33:55.000Z</Time>
            <Position>
              <LatitudeDegrees>43.410780765116214752197265625</LatitudeDegrees>
              <LongitudeDegrees>-4.72574676387012004852294921875</LongitudeDegrees>
            </Position>
            <AltitudeMeters>126.40000152587890625</AltitudeMeters>
            <DistanceMeters>NAN</DistanceMeters>
          </Trackpoint>
          <Trackpoint>
            <Time>2022-07-15T16:33:57.000Z</Time>
            <Position>
              <LatitudeDegrees>43.41081839986145496368408203125</LatitudeDegrees>
              <LongitudeDegrees>-4.72579303197562694549560546875</LongitudeDegrees>
            </Position>
            <AltitudeMeters>127</AltitudeMeters>
            <DistanceMeters>NAN</DistanceMeters>
          </Trackpoint>
          <Trackpoint>
            <Time>2022-07-15T16:34:02.000Z</Time>
            <Position>
              <LatitudeDegrees>43.41090942732989788055419921875</LatitudeDegrees>
              <LongitudeDegrees>-4.72587634809315204620361328125</LongitudeDegrees>
            </Position>
            <AltitudeMeters>128</AltitudeMeters>
            <DistanceMeters>NAN</DistanceMeters>
          </Trackpoint>
          <Trackpoint>
            <Time>2022-07-15T16:34:03.000Z</Time>
            <Position>
              <LatitudeDegrees>43.41092350892722606658935546875</LatitudeDegrees>
              <LongitudeDegrees>-4.7258881665766239166259765625</LongitudeDegrees>
            </Position>
            <AltitudeMeters>128.1999969482421875</AltitudeMeters>
            <DistanceMeters>NAN</DistanceMeters>
          </Trackpoint>
          <Trackpoint>
            <Time>2022-07-15T16:34:09.000Z</Time>
            <Position>
              <LatitudeDegrees>43.4110129438340663909912109375</LatitudeDegrees>
              <LongitudeDegrees>-4.72598589956760406494140625</LongitudeDegrees>
            </Position>
            <AltitudeMeters>129</AltitudeMeters>
            <DistanceMeters>NAN</DistanceMeters>
          </Trackpoint>
          <Trackpoint>
            <Time>2022-07-15T16:34:10.000Z</Time>
            <Position>
              <LatitudeDegrees>43.41102191247045993804931640625</LatitudeDegrees>
              <LongitudeDegrees>-4.7260125540196895599365234375</LongitudeDegrees>
            </Position>
            <AltitudeMeters>129.399993896484375</AltitudeMeters>
            <DistanceMeters>NAN</DistanceMeters>
          </Trackpoint>
          <Trackpoint>
            <Time>2022-07-15T16:34:14.000Z</Time>
            <Position>
              <LatitudeDegrees>43.4110246784985065460205078125</LatitudeDegrees>
              <LongitudeDegrees>-4.72610869444906711578369140625</LongitudeDegrees>
            </Position>
            <AltitudeMeters>129.600006103515625</AltitudeMeters>
            <DistanceMeters>NAN</DistanceMeters>
          </Trackpoint>
          <Trackpoint>
            <Time>2022-07-15T16:34:15.000Z</Time>
            <Position>
              <LatitudeDegrees>43.41101386584341526031494140625</LatitudeDegrees>
              <LongitudeDegrees>-4.72612663172185420989990234375</LongitudeDegrees>
            </Position>
            <AltitudeMeters>129.600006103515625</AltitudeMeters>
            <DistanceMeters>NAN</DistanceMeters>
          </Trackpoint>
          <Trackpoint>
            <Time>2022-07-15T16:34:18.000Z</Time>
            <Position>
              <LatitudeDegrees>43.41098234988749027252197265625</LatitudeDegrees>
              <LongitudeDegrees>-4.7261811979115009307861328125</LongitudeDegrees>
            </Position>
            <AltitudeMeters>129.600006103515625</AltitudeMeters>
            <DistanceMeters>NAN</DistanceMeters>
          </Trackpoint>
          <Trackpoint>
            <Time>2022-07-15T16:34:22.000Z</Time>
            <Position>
              <LatitudeDegrees>43.41091194190084934234619140625</LatitudeDegrees>
              <LongitudeDegrees>-4.72627331502735614776611328125</LongitudeDegrees>
            </Position>
            <AltitudeMeters>129.600006103515625</AltitudeMeters>
            <DistanceMeters>NAN</DistanceMeters>
          </Trackpoint>
          <Trackpoint>
            <Time>2022-07-15T16:34:29.000Z</Time>
            <Position>
              <LatitudeDegrees>43.41074262745678424835205078125</LatitudeDegrees>
              <LongitudeDegrees>-4.72653449513018131256103515625</LongitudeDegrees>
            </Position>
            <AltitudeMeters>129</AltitudeMeters>
            <DistanceMeters>NAN</DistanceMeters>
          </Trackpoint>
          <Trackpoint>
            <Time>2022-07-15T16:34:31.000Z</Time>
            <Position>
              <LatitudeDegrees>43.41066819615662097930908203125</LatitudeDegrees>
              <LongitudeDegrees>-4.72664304077625274658203125</LongitudeDegrees>
            </Position>
            <AltitudeMeters>128.1999969482421875</AltitudeMeters>
            <DistanceMeters>NAN</DistanceMeters>
          </Trackpoint>
          <Trackpoint>
            <Time>2022-07-15T16:34:33.000Z</Time>
            <Position>
              <LatitudeDegrees>43.410577587783336639404296875</LatitudeDegrees>
              <LongitudeDegrees>-4.726768098771572113037109375</LongitudeDegrees>
            </Position>
            <AltitudeMeters>127.1999969482421875</AltitudeMeters>
            <DistanceMeters>NAN</DistanceMeters>
          </Trackpoint>
          <Trackpoint>
            <Time>2022-07-15T16:34:34.000Z</Time>
            <Position>
              <LatitudeDegrees>43.4105348400771617889404296875</LatitudeDegrees>
              <LongitudeDegrees>-4.72683741711080074310302734375</LongitudeDegrees>
            </Position>
            <AltitudeMeters>126.1999969482421875</AltitudeMeters>
            <DistanceMeters>NAN</DistanceMeters>
          </Trackpoint>
          <Trackpoint>
            <Time>2022-07-15T16:34:35.000Z</Time>
            <Position>
              <LatitudeDegrees>43.41049502603709697723388671875</LatitudeDegrees>
              <LongitudeDegrees>-4.72691369242966175079345703125</LongitudeDegrees>
            </Position>
            <AltitudeMeters>125.59999847412109375</AltitudeMeters>
            <DistanceMeters>NAN</DistanceMeters>
          </Trackpoint>
          <Trackpoint>
            <Time>2022-07-15T16:34:37.000Z</Time>
            <Position>
              <LatitudeDegrees>43.410434760153293609619140625</LatitudeDegrees>
              <LongitudeDegrees>-4.72708099521696567535400390625</LongitudeDegrees>
            </Position>
            <AltitudeMeters>124</AltitudeMeters>
            <DistanceMeters>NAN</DistanceMeters>
          </Trackpoint>
          <Trackpoint>
            <Time>2022-07-15T16:34:38.000Z</Time>
            <Position>
              <LatitudeDegrees>43.41040785424411296844482421875</LatitudeDegrees>
              <LongitudeDegrees>-4.7271622158586978912353515625</LongitudeDegrees>
            </Position>
            <AltitudeMeters>123.1999969482421875</AltitudeMeters>
            <DistanceMeters>NAN</DistanceMeters>
          </Trackpoint>
          <Trackpoint>
            <Time>2022-07-15T16:34:39.000Z</Time>
            <Position>
              <LatitudeDegrees>43.41038371436297893524169921875</LatitudeDegrees>
              <LongitudeDegrees>-4.7272391617298126220703125</LongitudeDegrees>
            </Position>
            <AltitudeMeters>122.59999847412109375</AltitudeMeters>
            <DistanceMeters>NAN</DistanceMeters>
          </Trackpoint>
          <Trackpoint>
            <Time>2022-07-15T16:34:40.000Z</Time>
            <Position>
              <LatitudeDegrees>43.4103688783943653106689453125</LatitudeDegrees>
              <LongitudeDegrees>-4.7273110784590244293212890625</LongitudeDegrees>
            </Position>
            <AltitudeMeters>122</AltitudeMeters>
            <DistanceMeters>NAN</DistanceMeters>
          </Trackpoint>
          <Trackpoint>
            <Time>2022-07-15T16:34:42.000Z</Time>
            <Position>
              <LatitudeDegrees>43.41038304381072521209716796875</LatitudeDegrees>
              <LongitudeDegrees>-4.72743018530309200286865234375</LongitudeDegrees>
            </Position>
            <AltitudeMeters>121.40000152587890625</AltitudeMeters>
            <DistanceMeters>NAN</DistanceMeters>
          </Trackpoint>
          <Trackpoint>
            <Time>2022-07-15T16:34:44.000Z</Time>
            <Position>
              <LatitudeDegrees>43.41043216176331043243408203125</LatitudeDegrees>
              <LongitudeDegrees>-4.7274820692837238311767578125</LongitudeDegrees>
            </Position>
            <AltitudeMeters>121.1999969482421875</AltitudeMeters>
            <DistanceMeters>NAN</DistanceMeters>
          </Trackpoint>
          <Trackpoint>
            <Time>2022-07-15T16:34:45.000Z</Time>
            <Position>
              <LatitudeDegrees>43.410455547273159027099609375</LatitudeDegrees>
              <LongitudeDegrees>-4.727482907474040985107421875</LongitudeDegrees>
            </Position>
            <AltitudeMeters>121.1999969482421875</AltitudeMeters>
            <DistanceMeters>NAN</DistanceMeters>
          </Trackpoint>
          <Trackpoint>
            <Time>2022-07-15T16:34:49.000Z</Time>
            <Position>
              <LatitudeDegrees>43.41054213233292102813720703125</LatitudeDegrees>
              <LongitudeDegrees>-4.7274408303201198577880859375</LongitudeDegrees>
            </Position>
            <AltitudeMeters>121.40000152587890625</AltitudeMeters>
            <DistanceMeters>NAN</DistanceMeters>
          </Trackpoint>
          <Trackpoint>
            <Time>2022-07-15T16:34:51.000Z</Time>
            <Position>
              <LatitudeDegrees>43.4105752408504486083984375</LatitudeDegrees>
              <LongitudeDegrees>-4.72743269987404346466064453125</LongitudeDegrees>
            </Position>
            <AltitudeMeters>121.59999847412109375</AltitudeMeters>
            <DistanceMeters>NAN</DistanceMeters>
          </Trackpoint>
          <Trackpoint>
            <Time>2022-07-15T16:34:57.000Z</Time>
            <Position>
              <LatitudeDegrees>43.41067238710820674896240234375</LatitudeDegrees>
              <LongitudeDegrees>-4.7274295985698699951171875</LongitudeDegrees>
            </Position>
            <AltitudeMeters>122.40000152587890625</AltitudeMeters>
            <DistanceMeters>NAN</DistanceMeters>
          </Trackpoint>
          <Trackpoint>
            <Time>2022-07-15T16:34:58.000Z</Time>
            <Position>
              <LatitudeDegrees>43.41068965382874011993408203125</LatitudeDegrees>
              <LongitudeDegrees>-4.72743370570242404937744140625</LongitudeDegrees>
            </Position>
            <AltitudeMeters>122.59999847412109375</AltitudeMeters>
            <DistanceMeters>NAN</DistanceMeters>
          </Trackpoint>
          <Trackpoint>
            <Time>2022-07-15T16:35:00.000Z</Time>
            <Position>
              <LatitudeDegrees>43.41071681119501590728759765625</LatitudeDegrees>
              <LongitudeDegrees>-4.7274376451969146728515625</LongitudeDegrees>
            </Position>
            <AltitudeMeters>122.8000030517578125</AltitudeMeters>
            <DistanceMeters>NAN</DistanceMeters>
          </Trackpoint>
          <Trackpoint>
            <Time>2022-07-15T16:35:04.000Z</Time>
            <Position>
              <LatitudeDegrees>43.410764001309871673583984375</LatitudeDegrees>
              <LongitudeDegrees>-4.7274488769471645355224609375</LongitudeDegrees>
            </Position>
            <AltitudeMeters>123</AltitudeMeters>
            <DistanceMeters>NAN</DistanceMeters>
          </Trackpoint>
          <Trackpoint>
            <Time>2022-07-15T16:35:06.000Z</Time>
            <Position>
              <LatitudeDegrees>43.41078956611454486846923828125</LatitudeDegrees>
              <LongitudeDegrees>-4.72745885141193866729736328125</LongitudeDegrees>
            </Position>
            <AltitudeMeters>123.59999847412109375</AltitudeMeters>
            <DistanceMeters>NAN</DistanceMeters>
          </Trackpoint>
          <Trackpoint>
            <Time>2022-07-15T16:35:07.000Z</Time>
            <Position>
              <LatitudeDegrees>43.41080666519701480865478515625</LatitudeDegrees>
              <LongitudeDegrees>-4.72746589221060276031494140625</LongitudeDegrees>
            </Position>
            <AltitudeMeters>124</AltitudeMeters>
            <DistanceMeters>NAN</DistanceMeters>
          </Trackpoint>
          <Trackpoint>
            <Time>2022-07-15T16:35:11.000Z</Time>
            <Position>
              <LatitudeDegrees>43.41086517088115215301513671875</LatitudeDegrees>
              <LongitudeDegrees>-4.7274995036423206329345703125</LongitudeDegrees>
            </Position>
            <AltitudeMeters>125.40000152587890625</AltitudeMeters>
            <DistanceMeters>NAN</DistanceMeters>
          </Trackpoint>
          <Trackpoint>
            <Time>2022-07-15T16:35:15.000Z</Time>
            <Position>
              <LatitudeDegrees>43.410905487835407257080078125</LatitudeDegrees>
              <LongitudeDegrees>-4.7275502979755401611328125</LongitudeDegrees>
            </Position>
            <AltitudeMeters>126.59999847412109375</AltitudeMeters>
            <DistanceMeters>NAN</DistanceMeters>
          </Trackpoint>
          <Trackpoint>
            <Time>2022-07-15T16:35:19.000Z</Time>
            <Position>
              <LatitudeDegrees>43.41093457303941249847412109375</LatitudeDegrees>
              <LongitudeDegrees>-4.72759882919490337371826171875</LongitudeDegrees>
            </Position>
            <AltitudeMeters>128</AltitudeMeters>
            <DistanceMeters>NAN</DistanceMeters>
          </Trackpoint>
          <Trackpoint>
            <Time>2022-07-15T16:35:20.000Z</Time>
            <Position>
              <LatitudeDegrees>43.41093624942004680633544921875</LatitudeDegrees>
              <LongitudeDegrees>-4.72761358134448528289794921875</LongitudeDegrees>
            </Position>
            <AltitudeMeters>128.1999969482421875</AltitudeMeters>
            <DistanceMeters>NAN</DistanceMeters>
          </Trackpoint>
          <Trackpoint>
            <Time>2022-07-15T16:35:24.000Z</Time>
            <Position>
              <LatitudeDegrees>43.410926274955272674560546875</LatitudeDegrees>
              <LongitudeDegrees>-4.72768642008304595947265625</LongitudeDegrees>
            </Position>
            <AltitudeMeters>129.1999969482421875</AltitudeMeters>
            <DistanceMeters>NAN</DistanceMeters>
          </Trackpoint>
          <Trackpoint>
            <Time>2022-07-15T16:35:26.000Z</Time>
            <Position>
              <LatitudeDegrees>43.41091462410986423492431640625</LatitudeDegrees>
              <LongitudeDegrees>-4.72771734930574893951416015625</LongitudeDegrees>
            </Position>
            <AltitudeMeters>129.399993896484375</AltitudeMeters>
            <DistanceMeters>NAN</DistanceMeters>
          </Trackpoint>
          <Trackpoint>
            <Time>2022-07-15T16:35:27.000Z</Time>
            <Position>
              <LatitudeDegrees>43.410911522805690765380859375</LatitudeDegrees>
              <LongitudeDegrees>-4.7277321852743625640869140625</LongitudeDegrees>
            </Position>
            <AltitudeMeters>129.8000030517578125</AltitudeMeters>
            <DistanceMeters>NAN</DistanceMeters>
          </Trackpoint>
          <Trackpoint>
            <Time>2022-07-15T16:35:29.000Z</Time>
            <Position>
              <LatitudeDegrees>43.41089920140802860260009765625</LatitudeDegrees>
              <LongitudeDegrees>-4.7277586720883846282958984375</LongitudeDegrees>
            </Position>
            <AltitudeMeters>130.399993896484375</AltitudeMeters>
            <DistanceMeters>NAN</DistanceMeters>
          </Trackpoint>
          <Trackpoint>
            <Time>2022-07-15T16:35:32.000Z</Time>
            <Position>
              <LatitudeDegrees>43.410882689058780670166015625</LatitudeDegrees>
              <LongitudeDegrees>-4.72780535928905010223388671875</LongitudeDegrees>
            </Position>
            <AltitudeMeters>131.399993896484375</AltitudeMeters>
            <DistanceMeters>NAN</DistanceMeters>
          </Trackpoint>
          <Trackpoint>
            <Time>2022-07-15T16:35:36.000Z</Time>
            <Position>
              <LatitudeDegrees>43.4108647517859935760498046875</LatitudeDegrees>
              <LongitudeDegrees>-4.72786637954413890838623046875</LongitudeDegrees>
            </Position>
            <AltitudeMeters>132.600006103515625</AltitudeMeters>
            <DistanceMeters>NAN</DistanceMeters>
          </Trackpoint>
          <Trackpoint>
            <Time>2022-07-15T16:35:41.000Z</Time>
            <Position>
              <LatitudeDegrees>43.41083080507814884185791015625</LatitudeDegrees>
              <LongitudeDegrees>-4.7279424034059047698974609375</LongitudeDegrees>
            </Position>
            <AltitudeMeters>133.399993896484375</AltitudeMeters>
            <DistanceMeters>NAN</DistanceMeters>
          </Trackpoint>
          <Trackpoint>
            <Time>2022-07-15T16:35:42.000Z</Time>
            <Position>
              <LatitudeDegrees>43.41082879342138767242431640625</LatitudeDegrees>
              <LongitudeDegrees>-4.72795941866934299468994140625</LongitudeDegrees>
            </Position>
            <AltitudeMeters>133.600006103515625</AltitudeMeters>
            <DistanceMeters>NAN</DistanceMeters>
          </Trackpoint>
          <Trackpoint>
            <Time>2022-07-15T16:35:44.000Z</Time>
            <Position>
              <LatitudeDegrees>43.410816304385662078857421875</LatitudeDegrees>
              <LongitudeDegrees>-4.7279947064816951751708984375</LongitudeDegrees>
            </Position>
            <AltitudeMeters>133.8000030517578125</AltitudeMeters>
            <DistanceMeters>NAN</DistanceMeters>
          </Trackpoint>
          <Trackpoint>
            <Time>2022-07-15T16:35:50.000Z</Time>
            <Position>
              <LatitudeDegrees>43.41077196411788463592529296875</LatitudeDegrees>
              <LongitudeDegrees>-4.72809017635881900787353515625</LongitudeDegrees>
            </Position>
            <AltitudeMeters>134.8000030517578125</AltitudeMeters>
            <DistanceMeters>NAN</DistanceMeters>
          </Trackpoint>
          <Trackpoint>
            <Time>2022-07-15T16:35:51.000Z</Time>
            <Position>
              <LatitudeDegrees>43.41076358221471309661865234375</LatitudeDegrees>
              <LongitudeDegrees>-4.7281073592603206634521484375</LongitudeDegrees>
            </Position>
            <AltitudeMeters>135</AltitudeMeters>
            <DistanceMeters>NAN</DistanceMeters>
          </Trackpoint>
          <Trackpoint>
            <Time>2022-07-15T16:35:59.000Z</Time>
            <Position>
              <LatitudeDegrees>43.4107319824397563934326171875</LatitudeDegrees>
              <LongitudeDegrees>-4.72825429402291774749755859375</LongitudeDegrees>
            </Position>
            <AltitudeMeters>135.600006103515625</AltitudeMeters>
            <DistanceMeters>NAN</DistanceMeters>
          </Trackpoint>
          <Trackpoint>
            <Time>2022-07-15T16:36:00.000Z</Time>
            <Position>
              <LatitudeDegrees>43.410729467868804931640625</LatitudeDegrees>
              <LongitudeDegrees>-4.72827516496181488037109375</LongitudeDegrees>
            </Position>
            <AltitudeMeters>135.8000030517578125</AltitudeMeters>
            <DistanceMeters>NAN</DistanceMeters>
          </Trackpoint>
          <Trackpoint>
            <Time>2022-07-15T16:36:05.000Z</Time>
            <Position>
              <LatitudeDegrees>43.4107165597379207611083984375</LatitudeDegrees>
              <LongitudeDegrees>-4.7283916734158992767333984375</LongitudeDegrees>
            </Position>
            <AltitudeMeters>136.1999969482421875</AltitudeMeters>
            <DistanceMeters>NAN</DistanceMeters>
          </Trackpoint>
          <Trackpoint>
            <Time>2022-07-15T16:36:08.000Z</Time>
            <Position>
              <LatitudeDegrees>43.41070004738867282867431640625</LatitudeDegrees>
              <LongitudeDegrees>-4.72846702672541141510009765625</LongitudeDegrees>
            </Position>
            <AltitudeMeters>136.1999969482421875</AltitudeMeters>
            <DistanceMeters>NAN</DistanceMeters>
          </Trackpoint>
          <Trackpoint>
            <Time>2022-07-15T16:36:14.000Z</Time>
            <Position>
              <LatitudeDegrees>43.41067674569785594940185546875</LatitudeDegrees>
              <LongitudeDegrees>-4.7286991216242313385009765625</LongitudeDegrees>
            </Position>
            <AltitudeMeters>135.8000030517578125</AltitudeMeters>
            <DistanceMeters>NAN</DistanceMeters>
          </Trackpoint>
          <Trackpoint>
            <Time>2022-07-15T16:36:18.000Z</Time>
            <Position>
              <LatitudeDegrees>43.41064439155161380767822265625</LatitudeDegrees>
              <LongitudeDegrees>-4.72897077910602092742919921875</LongitudeDegrees>
            </Position>
            <AltitudeMeters>134.8000030517578125</AltitudeMeters>
            <DistanceMeters>NAN</DistanceMeters>
          </Trackpoint>
          <Trackpoint>
            <Time>2022-07-15T16:36:21.000Z</Time>
            <Position>
              <LatitudeDegrees>43.41059611178934574127197265625</LatitudeDegrees>
              <LongitudeDegrees>-4.72921519540250301361083984375</LongitudeDegrees>
            </Position>
            <AltitudeMeters>133.600006103515625</AltitudeMeters>
            <DistanceMeters>NAN</DistanceMeters>
          </Trackpoint>
          <Trackpoint>
            <Time>2022-07-15T16:36:23.000Z</Time>
            <Position>
              <LatitudeDegrees>43.410553447902202606201171875</LatitudeDegrees>
              <LongitudeDegrees>-4.72939372994005680084228515625</LongitudeDegrees>
            </Position>
            <AltitudeMeters>133.399993896484375</AltitudeMeters>
            <DistanceMeters>NAN</DistanceMeters>
          </Trackpoint>
          <Trackpoint>
            <Time>2022-07-15T16:36:25.000Z</Time>
            <Position>
              <LatitudeDegrees>43.4105127118527889251708984375</LatitudeDegrees>
              <LongitudeDegrees>-4.72956673242151737213134765625</LongitudeDegrees>
            </Position>
            <AltitudeMeters>132.1999969482421875</AltitudeMeters>
            <DistanceMeters>NAN</DistanceMeters>
          </Trackpoint>
          <Trackpoint>
            <Time>2022-07-15T16:36:28.000Z</Time>
            <Position>
              <LatitudeDegrees>43.41048044152557849884033203125</LatitudeDegrees>
              <LongitudeDegrees>-4.729713834822177886962890625</LongitudeDegrees>
            </Position>
            <AltitudeMeters>131</AltitudeMeters>
            <DistanceMeters>NAN</DistanceMeters>
          </Trackpoint>
          <Trackpoint>
            <Time>2022-07-15T16:36:34.000Z</Time>
            <Position>
              <LatitudeDegrees>43.4104376100003719329833984375</LatitudeDegrees>
              <LongitudeDegrees>-4.72989119589328765869140625</LongitudeDegrees>
            </Position>
            <AltitudeMeters>130.8000030517578125</AltitudeMeters>
            <DistanceMeters>NAN</DistanceMeters>
          </Trackpoint>
          <Trackpoint>
            <Time>2022-07-15T16:36:40.000Z</Time>
            <Position>
              <LatitudeDegrees>43.41041003353893756866455078125</LatitudeDegrees>
              <LongitudeDegrees>-4.73002589307725429534912109375</LongitudeDegrees>
            </Position>
            <AltitudeMeters>131.600006103515625</AltitudeMeters>
            <DistanceMeters>NAN</DistanceMeters>
          </Trackpoint>
          <Trackpoint>
            <Time>2022-07-15T16:36:42.000Z</Time>
            <Position>
              <LatitudeDegrees>43.410399891436100006103515625</LatitudeDegrees>
              <LongitudeDegrees>-4.7300727479159832000732421875</LongitudeDegrees>
            </Position>
            <AltitudeMeters>132</AltitudeMeters>
            <DistanceMeters>NAN</DistanceMeters>
          </Trackpoint>
          <Trackpoint>
            <Time>2022-07-15T16:36:47.000Z</Time>
            <Position>
              <LatitudeDegrees>43.41038270853459835052490234375</LatitudeDegrees>
              <LongitudeDegrees>-4.73015262745320796966552734375</LongitudeDegrees>
            </Position>
            <AltitudeMeters>132.600006103515625</AltitudeMeters>
            <DistanceMeters>NAN</DistanceMeters>
          </Trackpoint>
          <Trackpoint>
            <Time>2022-07-15T16:36:49.000Z</Time>
            <Position>
              <LatitudeDegrees>43.41038270853459835052490234375</LatitudeDegrees>
              <LongitudeDegrees>-4.73015262745320796966552734375</LongitudeDegrees>
            </Position>
            <AltitudeMeters>132.8000030517578125</AltitudeMeters>
            <DistanceMeters>NAN</DistanceMeters>
          </Trackpoint>
          <Trackpoint>
            <Time>2022-07-15T16:39:17.000Z</Time>
            <Position>
              <LatitudeDegrees>43.41038924641907215118408203125</LatitudeDegrees>
              <LongitudeDegrees>-4.73008825443685054779052734375</LongitudeDegrees>
            </Position>
            <AltitudeMeters>131.8000030517578125</AltitudeMeters>
            <DistanceMeters>NAN</DistanceMeters>
          </Trackpoint>
          <Trackpoint>
            <Time>2022-07-15T16:39:18.000Z</Time>
            <Position>
              <LatitudeDegrees>43.410394527018070220947265625</LatitudeDegrees>
              <LongitudeDegrees>-4.73005170933902263641357421875</LongitudeDegrees>
            </Position>
            <AltitudeMeters>131.8000030517578125</AltitudeMeters>
            <DistanceMeters>NAN</DistanceMeters>
          </Trackpoint>
          <Trackpoint>
            <Time>2022-07-15T16:39:21.000Z</Time>
            <Position>
              <LatitudeDegrees>43.41042964719235897064208984375</LatitudeDegrees>
              <LongitudeDegrees>-4.72993520088493824005126953125</LongitudeDegrees>
            </Position>
            <AltitudeMeters>131.8000030517578125</AltitudeMeters>
            <DistanceMeters>NAN</DistanceMeters>
          </Trackpoint>
          <Trackpoint>
            <Time>2022-07-15T16:39:24.000Z</Time>
            <Position>
              <LatitudeDegrees>43.41045881621539592742919921875</LatitudeDegrees>
              <LongitudeDegrees>-4.72978365607559680938720703125</LongitudeDegrees>
            </Position>
            <AltitudeMeters>132</AltitudeMeters>
            <DistanceMeters>NAN</DistanceMeters>
          </Trackpoint>
          <Trackpoint>
            <Time>2022-07-15T16:39:28.000Z</Time>
            <Position>
              <LatitudeDegrees>43.410501815378665924072265625</LatitudeDegrees>
              <LongitudeDegrees>-4.7295700013637542724609375</LongitudeDegrees>
            </Position>
            <AltitudeMeters>131</AltitudeMeters>
            <DistanceMeters>NAN</DistanceMeters>
          </Trackpoint>
          <Trackpoint>
            <Time>2022-07-15T16:39:30.000Z</Time>
            <Position>
              <LatitudeDegrees>43.41052838601171970367431640625</LatitudeDegrees>
              <LongitudeDegrees>-4.72948106937110424041748046875</LongitudeDegrees>
            </Position>
            <AltitudeMeters>130.8000030517578125</AltitudeMeters>
            <DistanceMeters>NAN</DistanceMeters>
          </Trackpoint>
          <Trackpoint>
            <Time>2022-07-15T16:39:33.000Z</Time>
            <Position>
              <LatitudeDegrees>43.41056342236697673797607421875</LatitudeDegrees>
              <LongitudeDegrees>-4.72936523146927356719970703125</LongitudeDegrees>
            </Position>
            <AltitudeMeters>130.600006103515625</AltitudeMeters>
            <DistanceMeters>NAN</DistanceMeters>
          </Trackpoint>
          <Trackpoint>
            <Time>2022-07-15T16:39:37.000Z</Time>
            <Position>
              <LatitudeDegrees>43.41059460304677486419677734375</LatitudeDegrees>
              <LongitudeDegrees>-4.72923950292170047760009765625</LongitudeDegrees>
            </Position>
            <AltitudeMeters>130.8000030517578125</AltitudeMeters>
            <DistanceMeters>NAN</DistanceMeters>
          </Trackpoint>
          <Trackpoint>
            <Time>2022-07-15T16:39:42.000Z</Time>
            <Position>
              <LatitudeDegrees>43.41063131578266620635986328125</LatitudeDegrees>
              <LongitudeDegrees>-4.72909248434007167816162109375</LongitudeDegrees>
            </Position>
            <AltitudeMeters>131.600006103515625</AltitudeMeters>
            <DistanceMeters>NAN</DistanceMeters>
          </Trackpoint>
          <Trackpoint>
            <Time>2022-07-15T16:39:43.000Z</Time>
            <Position>
              <LatitudeDegrees>43.41063684783875942230224609375</LatitudeDegrees>
              <LongitudeDegrees>-4.72906046546995639801025390625</LongitudeDegrees>
            </Position>
            <AltitudeMeters>132</AltitudeMeters>
            <DistanceMeters>NAN</DistanceMeters>
          </Trackpoint>
          <Trackpoint>
            <Time>2022-07-15T16:39:48.000Z</Time>
            <Position>
              <LatitudeDegrees>43.41066333465278148651123046875</LatitudeDegrees>
              <LongitudeDegrees>-4.72890389151871204376220703125</LongitudeDegrees>
            </Position>
            <AltitudeMeters>133.1999969482421875</AltitudeMeters>
            <DistanceMeters>NAN</DistanceMeters>
          </Trackpoint>
          <Trackpoint>
            <Time>2022-07-15T16:39:51.000Z</Time>
            <Position>
              <LatitudeDegrees>43.4106746502220630645751953125</LatitudeDegrees>
              <LongitudeDegrees>-4.7288121096789836883544921875</LongitudeDegrees>
            </Position>
            <AltitudeMeters>133.600006103515625</AltitudeMeters>
            <DistanceMeters>NAN</DistanceMeters>
          </Trackpoint>
          <Trackpoint>
            <Time>2022-07-15T16:39:53.000Z</Time>
            <Position>
              <LatitudeDegrees>43.41067892499268054962158203125</LatitudeDegrees>
              <LongitudeDegrees>-4.728755950927734375</LongitudeDegrees>
            </Position>
            <AltitudeMeters>133.8000030517578125</AltitudeMeters>
            <DistanceMeters>NAN</DistanceMeters>
          </Trackpoint>
          <Trackpoint>
            <Time>2022-07-15T16:39:57.000Z</Time>
            <Position>
              <LatitudeDegrees>43.41068278066813945770263671875</LatitudeDegrees>
              <LongitudeDegrees>-4.7286307252943515777587890625</LongitudeDegrees>
            </Position>
            <AltitudeMeters>134.399993896484375</AltitudeMeters>
            <DistanceMeters>NAN</DistanceMeters>
          </Trackpoint>
          <Trackpoint>
            <Time>2022-07-15T16:40:00.000Z</Time>
            <Position>
              <LatitudeDegrees>43.4106904082000255584716796875</LatitudeDegrees>
              <LongitudeDegrees>-4.72854414023458957672119140625</LongitudeDegrees>
            </Position>
            <AltitudeMeters>135</AltitudeMeters>
            <DistanceMeters>NAN</DistanceMeters>
          </Trackpoint>
          <Trackpoint>
            <Time>2022-07-15T16:40:01.000Z</Time>
            <Position>
              <LatitudeDegrees>43.41069367714226245880126953125</LatitudeDegrees>
              <LongitudeDegrees>-4.72851363010704517364501953125</LongitudeDegrees>
            </Position>
            <AltitudeMeters>135.399993896484375</AltitudeMeters>
            <DistanceMeters>NAN</DistanceMeters>
          </Trackpoint>
          <Trackpoint>
            <Time>2022-07-15T16:40:05.000Z</Time>
            <Position>
              <LatitudeDegrees>43.4106994606554508209228515625</LatitudeDegrees>
              <LongitudeDegrees>-4.7283859737217426300048828125</LongitudeDegrees>
            </Position>
            <AltitudeMeters>136.399993896484375</AltitudeMeters>
            <DistanceMeters>NAN</DistanceMeters>
          </Trackpoint>
          <Trackpoint>
            <Time>2022-07-15T16:40:09.000Z</Time>
            <Position>
              <LatitudeDegrees>43.41071630828082561492919921875</LatitudeDegrees>
              <LongitudeDegrees>-4.728266783058643341064453125</LongitudeDegrees>
            </Position>
            <AltitudeMeters>137.1999969482421875</AltitudeMeters>
            <DistanceMeters>NAN</DistanceMeters>
          </Trackpoint>
          <Trackpoint>
            <Time>2022-07-15T16:40:16.000Z</Time>
            <Position>
              <LatitudeDegrees>43.41078512370586395263671875</LatitudeDegrees>
              <LongitudeDegrees>-4.727985821664333343505859375</LongitudeDegrees>
            </Position>
            <AltitudeMeters>137</AltitudeMeters>
            <DistanceMeters>NAN</DistanceMeters>
          </Trackpoint>
          <Trackpoint>
            <Time>2022-07-15T16:40:21.000Z</Time>
            <Position>
              <LatitudeDegrees>43.4108729660511016845703125</LatitudeDegrees>
              <LongitudeDegrees>-4.727743081748485565185546875</LongitudeDegrees>
            </Position>
            <AltitudeMeters>136.1999969482421875</AltitudeMeters>
            <DistanceMeters>NAN</DistanceMeters>
          </Trackpoint>
          <Trackpoint>
            <Time>2022-07-15T16:40:23.000Z</Time>
            <Position>
              <LatitudeDegrees>43.41091076843440532684326171875</LatitudeDegrees>
              <LongitudeDegrees>-4.72763285972177982330322265625</LongitudeDegrees>
            </Position>
            <AltitudeMeters>135.600006103515625</AltitudeMeters>
            <DistanceMeters>NAN</DistanceMeters>
          </Trackpoint>
          <Trackpoint>
            <Time>2022-07-15T16:40:24.000Z</Time>
            <Position>
              <LatitudeDegrees>43.410920910537242889404296875</LatitudeDegrees>
              <LongitudeDegrees>-4.72758173011243343353271484375</LongitudeDegrees>
            </Position>
            <AltitudeMeters>134.399993896484375</AltitudeMeters>
            <DistanceMeters>NAN</DistanceMeters>
          </Trackpoint>
          <Trackpoint>
            <Time>2022-07-15T16:40:26.000Z</Time>
            <Position>
              <LatitudeDegrees>43.41091043315827846527099609375</LatitudeDegrees>
              <LongitudeDegrees>-4.72748299129307270050048828125</LongitudeDegrees>
            </Position>
            <AltitudeMeters>133.1999969482421875</AltitudeMeters>
            <DistanceMeters>NAN</DistanceMeters>
          </Trackpoint>
          <Trackpoint>
            <Time>2022-07-15T16:40:28.000Z</Time>
            <Position>
              <LatitudeDegrees>43.41085678897798061370849609375</LatitudeDegrees>
              <LongitudeDegrees>-4.7274086438119411468505859375</LongitudeDegrees>
            </Position>
            <AltitudeMeters>131.600006103515625</AltitudeMeters>
            <DistanceMeters>NAN</DistanceMeters>
          </Trackpoint>
          <Trackpoint>
            <Time>2022-07-15T16:40:29.000Z</Time>
            <Position>
              <LatitudeDegrees>43.41081865131855010986328125</LatitudeDegrees>
              <LongitudeDegrees>-4.72738559357821941375732421875</LongitudeDegrees>
            </Position>
            <AltitudeMeters>130.1999969482421875</AltitudeMeters>
            <DistanceMeters>NAN</DistanceMeters>
          </Trackpoint>
          <Trackpoint>
            <Time>2022-07-15T16:40:30.000Z</Time>
            <Position>
              <LatitudeDegrees>43.410774730145931243896484375</LatitudeDegrees>
              <LongitudeDegrees>-4.7273663990199565887451171875</LongitudeDegrees>
            </Position>
            <AltitudeMeters>128.8000030517578125</AltitudeMeters>
            <DistanceMeters>NAN</DistanceMeters>
          </Trackpoint>
          <Trackpoint>
            <Time>2022-07-15T16:40:31.000Z</Time>
            <Position>
              <LatitudeDegrees>43.4107256121933460235595703125</LatitudeDegrees>
              <LongitudeDegrees>-4.72734938375651836395263671875</LongitudeDegrees>
            </Position>
            <AltitudeMeters>127.59999847412109375</AltitudeMeters>
            <DistanceMeters>NAN</DistanceMeters>
          </Trackpoint>
          <Trackpoint>
            <Time>2022-07-15T16:40:33.000Z</Time>
            <Position>
              <LatitudeDegrees>43.41061480343341827392578125</LatitudeDegrees>
              <LongitudeDegrees>-4.7273358888924121856689453125</LongitudeDegrees>
            </Position>
            <AltitudeMeters>126</AltitudeMeters>
            <DistanceMeters>NAN</DistanceMeters>
          </Trackpoint>
          <Trackpoint>
            <Time>2022-07-15T16:40:34.000Z</Time>
            <Position>
              <LatitudeDegrees>43.4105552919209003448486328125</LatitudeDegrees>
              <LongitudeDegrees>-4.7273385711014270782470703125</LongitudeDegrees>
            </Position>
            <AltitudeMeters>125.59999847412109375</AltitudeMeters>
            <DistanceMeters>NAN</DistanceMeters>
          </Trackpoint>
          <Trackpoint>
            <Time>2022-07-15T16:40:35.000Z</Time>
            <Position>
              <LatitudeDegrees>43.410501144826412200927734375</LatitudeDegrees>
              <LongitudeDegrees>-4.7273482941091060638427734375</LongitudeDegrees>
            </Position>
            <AltitudeMeters>124.8000030517578125</AltitudeMeters>
            <DistanceMeters>NAN</DistanceMeters>
          </Trackpoint>
          <Trackpoint>
            <Time>2022-07-15T16:40:36.000Z</Time>
            <Position>
              <LatitudeDegrees>43.4104533679783344268798828125</LatitudeDegrees>
              <LongitudeDegrees>-4.7273482941091060638427734375</LongitudeDegrees>
            </Position>
            <AltitudeMeters>124.1999969482421875</AltitudeMeters>
            <DistanceMeters>NAN</DistanceMeters>
          </Trackpoint>
          <Trackpoint>
            <Time>2022-07-15T16:40:37.000Z</Time>
            <Position>
              <LatitudeDegrees>43.41042042709887027740478515625</LatitudeDegrees>
              <LongitudeDegrees>-4.72733161412179470062255859375</LongitudeDegrees>
            </Position>
            <AltitudeMeters>123.40000152587890625</AltitudeMeters>
            <DistanceMeters>NAN</DistanceMeters>
          </Trackpoint>
          <Trackpoint>
            <Time>2022-07-15T16:40:38.000Z</Time>
            <Position>
              <LatitudeDegrees>43.4103973768651485443115234375</LatitudeDegrees>
              <LongitudeDegrees>-4.72729909233748912811279296875</LongitudeDegrees>
            </Position>
            <AltitudeMeters>123</AltitudeMeters>
            <DistanceMeters>NAN</DistanceMeters>
          </Trackpoint>
          <Trackpoint>
            <Time>2022-07-15T16:40:40.000Z</Time>
            <Position>
              <LatitudeDegrees>43.41038924641907215118408203125</LatitudeDegrees>
              <LongitudeDegrees>-4.72722969017922878265380859375</LongitudeDegrees>
            </Position>
            <AltitudeMeters>122.59999847412109375</AltitudeMeters>
            <DistanceMeters>NAN</DistanceMeters>
          </Trackpoint>
          <Trackpoint>
            <Time>2022-07-15T16:40:41.000Z</Time>
            <Position>
              <LatitudeDegrees>43.4104000590741634368896484375</LatitudeDegrees>
              <LongitudeDegrees>-4.72719423472881317138671875</LongitudeDegrees>
            </Position>
            <AltitudeMeters>122.59999847412109375</AltitudeMeters>
            <DistanceMeters>NAN</DistanceMeters>
          </Trackpoint>
          <Trackpoint>
            <Time>2022-07-15T16:40:47.000Z</Time>
            <Position>
              <LatitudeDegrees>43.41049871407449245452880859375</LatitudeDegrees>
              <LongitudeDegrees>-4.72694017924368381500244140625</LongitudeDegrees>
            </Position>
            <AltitudeMeters>124</AltitudeMeters>
            <DistanceMeters>NAN</DistanceMeters>
          </Trackpoint>
          <Trackpoint>
            <Time>2022-07-15T16:40:49.000Z</Time>
            <Position>
              <LatitudeDegrees>43.41052805073559284210205078125</LatitudeDegrees>
              <LongitudeDegrees>-4.7268571145832538604736328125</LongitudeDegrees>
            </Position>
            <AltitudeMeters>124.40000152587890625</AltitudeMeters>
            <DistanceMeters>NAN</DistanceMeters>
          </Trackpoint>
          <Trackpoint>
            <Time>2022-07-15T16:40:53.000Z</Time>
            <Position>
              <LatitudeDegrees>43.41059041209518909454345703125</LatitudeDegrees>
              <LongitudeDegrees>-4.72674370743334293365478515625</LongitudeDegrees>
            </Position>
            <AltitudeMeters>125</AltitudeMeters>
            <DistanceMeters>NAN</DistanceMeters>
          </Trackpoint>
          <Trackpoint>
            <Time>2022-07-15T16:40:56.000Z</Time>
            <Position>
              <LatitudeDegrees>43.410628549754619598388671875</LatitudeDegrees>
              <LongitudeDegrees>-4.72669308073818683624267578125</LongitudeDegrees>
            </Position>
            <AltitudeMeters>125.40000152587890625</AltitudeMeters>
            <DistanceMeters>NAN</DistanceMeters>
          </Trackpoint>
          <Trackpoint>
            <Time>2022-07-15T16:41:00.000Z</Time>
            <Position>
              <LatitudeDegrees>43.4106736443936824798583984375</LatitudeDegrees>
              <LongitudeDegrees>-4.72663407213985919952392578125</LongitudeDegrees>
            </Position>
            <AltitudeMeters>126.59999847412109375</AltitudeMeters>
            <DistanceMeters>NAN</DistanceMeters>
          </Trackpoint>
          <Trackpoint>
            <Time>2022-07-15T16:41:04.000Z</Time>
            <Position>
              <LatitudeDegrees>43.410726450383663177490234375</LatitudeDegrees>
              <LongitudeDegrees>-4.72657741047441959381103515625</LongitudeDegrees>
            </Position>
            <AltitudeMeters>127.8000030517578125</AltitudeMeters>
            <DistanceMeters>NAN</DistanceMeters>
          </Trackpoint>
          <Trackpoint>
            <Time>2022-07-15T16:41:08.000Z</Time>
            <Position>
              <LatitudeDegrees>43.4107656776905059814453125</LatitudeDegrees>
              <LongitudeDegrees>-4.72651898860931396484375</LongitudeDegrees>
            </Position>
            <AltitudeMeters>128.8000030517578125</AltitudeMeters>
            <DistanceMeters>NAN</DistanceMeters>
          </Trackpoint>
          <Trackpoint>
            <Time>2022-07-15T16:41:12.000Z</Time>
            <Position>
              <LatitudeDegrees>43.4108084253966808319091796875</LatitudeDegrees>
              <LongitudeDegrees>-4.72645872272551059722900390625</LongitudeDegrees>
            </Position>
            <AltitudeMeters>129.8000030517578125</AltitudeMeters>
            <DistanceMeters>NAN</DistanceMeters>
          </Trackpoint>
          <Trackpoint>
            <Time>2022-07-15T16:41:13.000Z</Time>
            <Position>
              <LatitudeDegrees>43.4108144603669643402099609375</LatitudeDegrees>
              <LongitudeDegrees>-4.726448245346546173095703125</LongitudeDegrees>
            </Position>
            <AltitudeMeters>130</AltitudeMeters>
            <DistanceMeters>NAN</DistanceMeters>
          </Trackpoint>
          <Trackpoint>
            <Time>2022-07-15T16:41:16.000Z</Time>
            <Position>
              <LatitudeDegrees>43.41084689833223819732666015625</LatitudeDegrees>
              <LongitudeDegrees>-4.72640122286975383758544921875</LongitudeDegrees>
            </Position>
            <AltitudeMeters>130.8000030517578125</AltitudeMeters>
            <DistanceMeters>NAN</DistanceMeters>
          </Trackpoint>
          <Trackpoint>
            <Time>2022-07-15T16:41:17.000Z</Time>
            <Position>
              <LatitudeDegrees>43.4108573757112026214599609375</LatitudeDegrees>
              <LongitudeDegrees>-4.72638378851115703582763671875</LongitudeDegrees>
            </Position>
            <AltitudeMeters>131</AltitudeMeters>
            <DistanceMeters>NAN</DistanceMeters>
          </Trackpoint>
          <Trackpoint>
            <Time>2022-07-15T16:41:25.000Z</Time>
            <Position>
              <LatitudeDegrees>43.4109351597726345062255859375</LatitudeDegrees>
              <LongitudeDegrees>-4.7262683697044849395751953125</LongitudeDegrees>
            </Position>
            <AltitudeMeters>132</AltitudeMeters>
            <DistanceMeters>NAN</DistanceMeters>
          </Trackpoint>
          <Trackpoint>
            <Time>2022-07-15T16:41:26.000Z</Time>
            <Position>
              <LatitudeDegrees>43.410945050418376922607421875</LatitudeDegrees>
              <LongitudeDegrees>-4.72624431364238262176513671875</LongitudeDegrees>
            </Position>
            <AltitudeMeters>132.1999969482421875</AltitudeMeters>
            <DistanceMeters>NAN</DistanceMeters>
          </Trackpoint>
          <Trackpoint>
            <Time>2022-07-15T16:41:32.000Z</Time>
            <Position>
              <LatitudeDegrees>43.4110178053379058837890625</LatitudeDegrees>
              <LongitudeDegrees>-4.7261158190667629241943359375</LongitudeDegrees>
            </Position>
            <AltitudeMeters>133</AltitudeMeters>
            <DistanceMeters>NAN</DistanceMeters>
          </Trackpoint>
          <Trackpoint>
            <Time>2022-07-15T16:41:34.000Z</Time>
            <Position>
              <LatitudeDegrees>43.4110337309539318084716796875</LatitudeDegrees>
              <LongitudeDegrees>-4.72605974413454532623291015625</LongitudeDegrees>
            </Position>
            <AltitudeMeters>133.399993896484375</AltitudeMeters>
            <DistanceMeters>NAN</DistanceMeters>
          </Trackpoint>
          <Trackpoint>
            <Time>2022-07-15T16:41:37.000Z</Time>
            <Position>
              <LatitudeDegrees>43.41100833378732204437255859375</LatitudeDegrees>
              <LongitudeDegrees>-4.72595010884106159210205078125</LongitudeDegrees>
            </Position>
            <AltitudeMeters>133.600006103515625</AltitudeMeters>
            <DistanceMeters>NAN</DistanceMeters>
          </Trackpoint>
          <Trackpoint>
            <Time>2022-07-15T16:41:43.000Z</Time>
            <Position>
              <LatitudeDegrees>43.41083868406713008880615234375</LatitudeDegrees>
              <LongitudeDegrees>-4.72575791180133819580078125</LongitudeDegrees>
            </Position>
            <AltitudeMeters>133.399993896484375</AltitudeMeters>
            <DistanceMeters>NAN</DistanceMeters>
          </Trackpoint>
          <Trackpoint>
            <Time>2022-07-15T16:41:46.000Z</Time>
            <Position>
              <LatitudeDegrees>43.4107095189392566680908203125</LatitudeDegrees>
              <LongitudeDegrees>-4.72563922405242919921875</LongitudeDegrees>
            </Position>
            <AltitudeMeters>132.399993896484375</AltitudeMeters>
            <DistanceMeters>NAN</DistanceMeters>
          </Trackpoint>
          <Trackpoint>
            <Time>2022-07-15T16:41:48.000Z</Time>
            <Position>
              <LatitudeDegrees>43.410661406815052032470703125</LatitudeDegrees>
              <LongitudeDegrees>-4.7255413234233856201171875</LongitudeDegrees>
            </Position>
            <AltitudeMeters>131</AltitudeMeters>
            <DistanceMeters>NAN</DistanceMeters>
          </Trackpoint>
          <Trackpoint>
            <Time>2022-07-15T16:41:51.000Z</Time>
            <Position>
              <LatitudeDegrees>43.410678841173648834228515625</LatitudeDegrees>
              <LongitudeDegrees>-4.72542691044509410858154296875</LongitudeDegrees>
            </Position>
            <AltitudeMeters>130.600006103515625</AltitudeMeters>
            <DistanceMeters>NAN</DistanceMeters>
          </Trackpoint>
          <Trackpoint>
            <Time>2022-07-15T16:41:56.000Z</Time>
            <Position>
              <LatitudeDegrees>43.41077246703207492828369140625</LatitudeDegrees>
              <LongitudeDegrees>-4.7253701649606227874755859375</LongitudeDegrees>
            </Position>
            <AltitudeMeters>131.600006103515625</AltitudeMeters>
            <DistanceMeters>NAN</DistanceMeters>
          </Trackpoint>
          <Trackpoint>
            <Time>2022-07-15T16:41:58.000Z</Time>
            <Position>
              <LatitudeDegrees>43.41080616228282451629638671875</LatitudeDegrees>
              <LongitudeDegrees>-4.72534979693591594696044921875</LongitudeDegrees>
            </Position>
            <AltitudeMeters>132</AltitudeMeters>
            <DistanceMeters>NAN</DistanceMeters>
          </Trackpoint>
          <Trackpoint>
            <Time>2022-07-15T16:42:01.000Z</Time>
            <Position>
              <LatitudeDegrees>43.410847149789333343505859375</LatitudeDegrees>
              <LongitudeDegrees>-4.725302942097187042236328125</LongitudeDegrees>
            </Position>
            <AltitudeMeters>133</AltitudeMeters>
            <DistanceMeters>NAN</DistanceMeters>
          </Trackpoint>
          <Trackpoint>
            <Time>2022-07-15T16:42:02.000Z</Time>
            <Position>
              <LatitudeDegrees>43.41086014173924922943115234375</LatitudeDegrees>
              <LongitudeDegrees>-4.7252937220036983489990234375</LongitudeDegrees>
            </Position>
            <AltitudeMeters>133.1999969482421875</AltitudeMeters>
            <DistanceMeters>NAN</DistanceMeters>
          </Trackpoint>
          <Trackpoint>
            <Time>2022-07-15T16:42:04.000Z</Time>
            <Position>
              <LatitudeDegrees>43.41088696382939815521240234375</LatitudeDegrees>
              <LongitudeDegrees>-4.72527167759835720062255859375</LongitudeDegrees>
            </Position>
            <AltitudeMeters>133.8000030517578125</AltitudeMeters>
            <DistanceMeters>NAN</DistanceMeters>
          </Trackpoint>
          <Trackpoint>
            <Time>2022-07-15T16:42:06.000Z</Time>
            <Position>
              <LatitudeDegrees>43.41091462410986423492431640625</LatitudeDegrees>
              <LongitudeDegrees>-4.72524250857532024383544921875</LongitudeDegrees>
            </Position>
            <AltitudeMeters>134.600006103515625</AltitudeMeters>
            <DistanceMeters>NAN</DistanceMeters>
          </Trackpoint>
          <Trackpoint>
            <Time>2022-07-15T16:42:07.000Z</Time>
            <Position>
              <LatitudeDegrees>43.41092920862138271331787109375</LatitudeDegrees>
              <LongitudeDegrees>-4.7252306900918483734130859375</LongitudeDegrees>
            </Position>
            <AltitudeMeters>134.8000030517578125</AltitudeMeters>
            <DistanceMeters>NAN</DistanceMeters>
          </Trackpoint>
          <Trackpoint>
            <Time>2022-07-15T16:42:10.000Z</Time>
            <Position>
              <LatitudeDegrees>43.410961814224720001220703125</LatitudeDegrees>
              <LongitudeDegrees>-4.7251934744417667388916015625</LongitudeDegrees>
            </Position>
            <AltitudeMeters>135.600006103515625</AltitudeMeters>
            <DistanceMeters>NAN</DistanceMeters>
          </Trackpoint>
          <Trackpoint>
            <Time>2022-07-15T16:42:12.000Z</Time>
            <Position>
              <LatitudeDegrees>43.410981595516204833984375</LatitudeDegrees>
              <LongitudeDegrees>-4.72515751607716083526611328125</LongitudeDegrees>
            </Position>
            <AltitudeMeters>136.399993896484375</AltitudeMeters>
            <DistanceMeters>NAN</DistanceMeters>
          </Trackpoint>
          <Trackpoint>
            <Time>2022-07-15T16:42:14.000Z</Time>
            <Position>
              <LatitudeDegrees>43.41100112535059452056884765625</LatitudeDegrees>
              <LongitudeDegrees>-4.72512423992156982421875</LongitudeDegrees>
            </Position>
            <AltitudeMeters>136.8000030517578125</AltitudeMeters>
            <DistanceMeters>NAN</DistanceMeters>
          </Trackpoint>
          <Trackpoint>
            <Time>2022-07-15T16:42:16.000Z</Time>
            <Position>
              <LatitudeDegrees>43.41102182865142822265625</LatitudeDegrees>
              <LongitudeDegrees>-4.7250912152230739593505859375</LongitudeDegrees>
            </Position>
            <AltitudeMeters>137.1999969482421875</AltitudeMeters>
            <DistanceMeters>NAN</DistanceMeters>
          </Trackpoint>
          <Trackpoint>
            <Time>2022-07-15T16:42:18.000Z</Time>
            <Position>
              <LatitudeDegrees>43.41103834100067615509033203125</LatitudeDegrees>
              <LongitudeDegrees>-4.72506162710487842559814453125</LongitudeDegrees>
            </Position>
            <AltitudeMeters>137.8000030517578125</AltitudeMeters>
            <DistanceMeters>NAN</DistanceMeters>
          </Trackpoint>
          <Trackpoint>
            <Time>2022-07-15T16:42:23.000Z</Time>
            <Position>
              <LatitudeDegrees>43.41106935404241085052490234375</LatitudeDegrees>
              <LongitudeDegrees>-4.7249641455709934234619140625</LongitudeDegrees>
            </Position>
            <AltitudeMeters>138.399993896484375</AltitudeMeters>
            <DistanceMeters>NAN</DistanceMeters>
          </Trackpoint>
          <Trackpoint>
            <Time>2022-07-15T16:42:24.000Z</Time>
            <Position>
              <LatitudeDegrees>43.4110736288130283355712890625</LatitudeDegrees>
              <LongitudeDegrees>-4.72494796849787235260009765625</LongitudeDegrees>
            </Position>
            <AltitudeMeters>138.399993896484375</AltitudeMeters>
            <DistanceMeters>NAN</DistanceMeters>
          </Trackpoint>
          <Trackpoint>
            <Time>2022-07-15T16:42:27.000Z</Time>
            <Position>
              <LatitudeDegrees>43.41107974760234355926513671875</LatitudeDegrees>
              <LongitudeDegrees>-4.72489633597433567047119140625</LongitudeDegrees>
            </Position>
            <AltitudeMeters>138.8000030517578125</AltitudeMeters>
            <DistanceMeters>NAN</DistanceMeters>
          </Trackpoint>
          <Trackpoint>
            <Time>2022-07-15T16:42:32.000Z</Time>
            <Position>
              <LatitudeDegrees>43.41105644591152667999267578125</LatitudeDegrees>
              <LongitudeDegrees>-4.72480564378201961517333984375</LongitudeDegrees>
            </Position>
            <AltitudeMeters>139.8000030517578125</AltitudeMeters>
            <DistanceMeters>NAN</DistanceMeters>
          </Trackpoint>
          <Trackpoint>
            <Time>2022-07-15T16:42:33.000Z</Time>
            <Position>
              <LatitudeDegrees>43.41105259023606777191162109375</LatitudeDegrees>
              <LongitudeDegrees>-4.724783934652805328369140625</LongitudeDegrees>
            </Position>
            <AltitudeMeters>140</AltitudeMeters>
            <DistanceMeters>NAN</DistanceMeters>
          </Trackpoint>
          <Trackpoint>
            <Time>2022-07-15T16:42:37.000Z</Time>
            <Position>
              <LatitudeDegrees>43.4110367484390735626220703125</LatitudeDegrees>
              <LongitudeDegrees>-4.724708162248134613037109375</LongitudeDegrees>
            </Position>
            <AltitudeMeters>141</AltitudeMeters>
            <DistanceMeters>NAN</DistanceMeters>
          </Trackpoint>
          <Trackpoint>
            <Time>2022-07-15T16:42:41.000Z</Time>
            <Position>
              <LatitudeDegrees>43.411028198897838592529296875</LatitudeDegrees>
              <LongitudeDegrees>-4.724633060395717620849609375</LongitudeDegrees>
            </Position>
            <AltitudeMeters>142</AltitudeMeters>
            <DistanceMeters>NAN</DistanceMeters>
          </Trackpoint>
          <Trackpoint>
            <Time>2022-07-15T16:42:42.000Z</Time>
            <Position>
              <LatitudeDegrees>43.41102526523172855377197265625</LatitudeDegrees>
              <LongitudeDegrees>-4.724614955484867095947265625</LongitudeDegrees>
            </Position>
            <AltitudeMeters>142.1999969482421875</AltitudeMeters>
            <DistanceMeters>NAN</DistanceMeters>
          </Trackpoint>
          <Trackpoint>
            <Time>2022-07-15T16:42:47.000Z</Time>
            <Position>
              <LatitudeDegrees>43.4110136143863201141357421875</LatitudeDegrees>
              <LongitudeDegrees>-4.7245135344564914703369140625</LongitudeDegrees>
            </Position>
            <AltitudeMeters>143.1999969482421875</AltitudeMeters>
            <DistanceMeters>NAN</DistanceMeters>
          </Trackpoint>
          <Trackpoint>
            <Time>2022-07-15T16:42:48.000Z</Time>
            <Position>
              <LatitudeDegrees>43.41101587750017642974853515625</LatitudeDegrees>
              <LongitudeDegrees>-4.724493585526943206787109375</LongitudeDegrees>
            </Position>
            <AltitudeMeters>143.600006103515625</AltitudeMeters>
            <DistanceMeters>NAN</DistanceMeters>
          </Trackpoint>
          <Trackpoint>
            <Time>2022-07-15T16:42:57.000Z</Time>
            <Position>
              <LatitudeDegrees>43.4110330604016780853271484375</LatitudeDegrees>
              <LongitudeDegrees>-4.72426819615066051483154296875</LongitudeDegrees>
            </Position>
            <AltitudeMeters>144.1999969482421875</AltitudeMeters>
            <DistanceMeters>NAN</DistanceMeters>
          </Trackpoint>
          <Trackpoint>
            <Time>2022-07-15T16:42:58.000Z</Time>
            <Position>
              <LatitudeDegrees>43.41104068793356418609619140625</LatitudeDegrees>
              <LongitudeDegrees>-4.72423081286251544952392578125</LongitudeDegrees>
            </Position>
            <AltitudeMeters>144.1999969482421875</AltitudeMeters>
            <DistanceMeters>NAN</DistanceMeters>
          </Trackpoint>
          <Trackpoint>
            <Time>2022-07-15T16:43:04.000Z</Time>
            <Position>
              <LatitudeDegrees>43.41107857413589954376220703125</LatitudeDegrees>
              <LongitudeDegrees>-4.72396192140877246856689453125</LongitudeDegrees>
            </Position>
            <AltitudeMeters>144.8000030517578125</AltitudeMeters>
            <DistanceMeters>NAN</DistanceMeters>
          </Trackpoint>
          <Trackpoint>
            <Time>2022-07-15T16:43:06.000Z</Time>
            <Position>
              <LatitudeDegrees>43.4110870398581027984619140625</LatitudeDegrees>
              <LongitudeDegrees>-4.7238456644117832183837890625</LongitudeDegrees>
            </Position>
            <AltitudeMeters>144.1999969482421875</AltitudeMeters>
            <DistanceMeters>NAN</DistanceMeters>
          </Trackpoint>
          <Trackpoint>
            <Time>2022-07-15T16:43:10.000Z</Time>
            <Position>
              <LatitudeDegrees>43.41108192689716815948486328125</LatitudeDegrees>
              <LongitudeDegrees>-4.7235794551670551300048828125</LongitudeDegrees>
            </Position>
            <AltitudeMeters>143.1999969482421875</AltitudeMeters>
            <DistanceMeters>NAN</DistanceMeters>
          </Trackpoint>
          <Trackpoint>
            <Time>2022-07-15T16:43:11.000Z</Time>
            <Position>
              <LatitudeDegrees>43.4110783226788043975830078125</LatitudeDegrees>
              <LongitudeDegrees>-4.7235167585313320159912109375</LongitudeDegrees>
            </Position>
            <AltitudeMeters>143.1999969482421875</AltitudeMeters>
            <DistanceMeters>NAN</DistanceMeters>
          </Trackpoint>
          <Trackpoint>
            <Time>2022-07-15T16:43:13.000Z</Time>
            <Position>
              <LatitudeDegrees>43.4110473096370697021484375</LatitudeDegrees>
              <LongitudeDegrees>-4.72341357730329036712646484375</LongitudeDegrees>
            </Position>
            <AltitudeMeters>143</AltitudeMeters>
            <DistanceMeters>NAN</DistanceMeters>
          </Trackpoint>
          <Trackpoint>
            <Time>2022-07-15T16:43:14.000Z</Time>
            <Position>
              <LatitudeDegrees>43.41101671569049358367919921875</LatitudeDegrees>
              <LongitudeDegrees>-4.7233806364238262176513671875</LongitudeDegrees>
            </Position>
            <AltitudeMeters>143</AltitudeMeters>
            <DistanceMeters>NAN</DistanceMeters>
          </Trackpoint>
          <Trackpoint>
            <Time>2022-07-15T16:43:15.000Z</Time>
            <Position>
              <LatitudeDegrees>43.4109814278781414031982421875</LatitudeDegrees>
              <LongitudeDegrees>-4.72336479462683200836181640625</LongitudeDegrees>
            </Position>
            <AltitudeMeters>142.600006103515625</AltitudeMeters>
            <DistanceMeters>NAN</DistanceMeters>
          </Trackpoint>
          <Trackpoint>
            <Time>2022-07-15T16:43:17.000Z</Time>
            <Position>
              <LatitudeDegrees>43.41089618392288684844970703125</LatitudeDegrees>
              <LongitudeDegrees>-4.72336404025554656982421875</LongitudeDegrees>
            </Position>
            <AltitudeMeters>141.600006103515625</AltitudeMeters>
            <DistanceMeters>NAN</DistanceMeters>
          </Trackpoint>
          <Trackpoint>
            <Time>2022-07-15T16:43:18.000Z</Time>
            <Position>
              <LatitudeDegrees>43.41084907762706279754638671875</LatitudeDegrees>
              <LongitudeDegrees>-4.72336697392165660858154296875</LongitudeDegrees>
            </Position>
            <AltitudeMeters>141.1999969482421875</AltitudeMeters>
            <DistanceMeters>NAN</DistanceMeters>
          </Trackpoint>
          <Trackpoint>
            <Time>2022-07-15T16:43:20.000Z</Time>
            <Position>
              <LatitudeDegrees>43.41075302101671695709228515625</LatitudeDegrees>
              <LongitudeDegrees>-4.72334794700145721435546875</LongitudeDegrees>
            </Position>
            <AltitudeMeters>140.399993896484375</AltitudeMeters>
            <DistanceMeters>NAN</DistanceMeters>
          </Trackpoint>
          <Trackpoint>
            <Time>2022-07-15T16:43:22.000Z</Time>
            <Position>
              <LatitudeDegrees>43.41068177483975887298583984375</LatitudeDegrees>
              <LongitudeDegrees>-4.72329966723918914794921875</LongitudeDegrees>
            </Position>
            <AltitudeMeters>140.399993896484375</AltitudeMeters>
            <DistanceMeters>NAN</DistanceMeters>
          </Trackpoint>
          <Trackpoint>
            <Time>2022-07-15T16:43:26.000Z</Time>
            <Position>
              <LatitudeDegrees>43.4106159768998622894287109375</LatitudeDegrees>
              <LongitudeDegrees>-4.72314636223018169403076171875</LongitudeDegrees>
            </Position>
            <AltitudeMeters>140.600006103515625</AltitudeMeters>
            <DistanceMeters>NAN</DistanceMeters>
          </Trackpoint>
          <Trackpoint>
            <Time>2022-07-15T16:43:32.000Z</Time>
            <Position>
              <LatitudeDegrees>43.4105687029659748077392578125</LatitudeDegrees>
              <LongitudeDegrees>-4.7228457033634185791015625</LongitudeDegrees>
            </Position>
            <AltitudeMeters>141.600006103515625</AltitudeMeters>
            <DistanceMeters>NAN</DistanceMeters>
          </Trackpoint>
          <Trackpoint>
            <Time>2022-07-15T16:43:34.000Z</Time>
            <Position>
              <LatitudeDegrees>43.41055671684443950653076171875</LatitudeDegrees>
              <LongitudeDegrees>-4.7227382473647594451904296875</LongitudeDegrees>
            </Position>
            <AltitudeMeters>141.8000030517578125</AltitudeMeters>
            <DistanceMeters>NAN</DistanceMeters>
          </Trackpoint>
          <Trackpoint>
            <Time>2022-07-15T16:43:38.000Z</Time>
            <Position>
              <LatitudeDegrees>43.4105210937559604644775390625</LatitudeDegrees>
              <LongitudeDegrees>-4.7225005365908145904541015625</LongitudeDegrees>
            </Position>
            <AltitudeMeters>142</AltitudeMeters>
            <DistanceMeters>NAN</DistanceMeters>
          </Trackpoint>
          <Trackpoint>
            <Time>2022-07-15T16:43:41.000Z</Time>
            <Position>
              <LatitudeDegrees>43.4104661084711551666259765625</LatitudeDegrees>
              <LongitudeDegrees>-4.7223360836505889892578125</LongitudeDegrees>
            </Position>
            <AltitudeMeters>141.399993896484375</AltitudeMeters>
            <DistanceMeters>NAN</DistanceMeters>
          </Trackpoint>
          <Trackpoint>
            <Time>2022-07-15T16:43:44.000Z</Time>
            <Position>
              <LatitudeDegrees>43.41039662249386310577392578125</LatitudeDegrees>
              <LongitudeDegrees>-4.7221778333187103271484375</LongitudeDegrees>
            </Position>
            <AltitudeMeters>140.399993896484375</AltitudeMeters>
            <DistanceMeters>NAN</DistanceMeters>
          </Trackpoint>
          <Trackpoint>
            <Time>2022-07-15T16:43:47.000Z</Time>
            <Position>
              <LatitudeDegrees>43.410308025777339935302734375</LatitudeDegrees>
              <LongitudeDegrees>-4.7220177389681339263916015625</LongitudeDegrees>
            </Position>
            <AltitudeMeters>139.1999969482421875</AltitudeMeters>
            <DistanceMeters>NAN</DistanceMeters>
          </Trackpoint>
          <Trackpoint>
            <Time>2022-07-15T16:43:49.000Z</Time>
            <Position>
              <LatitudeDegrees>43.41029587201774120330810546875</LatitudeDegrees>
              <LongitudeDegrees>-4.7219134680926799774169921875</LongitudeDegrees>
            </Position>
            <AltitudeMeters>138</AltitudeMeters>
            <DistanceMeters>NAN</DistanceMeters>
          </Trackpoint>
          <Trackpoint>
            <Time>2022-07-15T16:43:50.000Z</Time>
            <Position>
              <LatitudeDegrees>43.4103051759302616119384765625</LatitudeDegrees>
              <LongitudeDegrees>-4.72185932099819183349609375</LongitudeDegrees>
            </Position>
            <AltitudeMeters>137.399993896484375</AltitudeMeters>
            <DistanceMeters>NAN</DistanceMeters>
          </Trackpoint>
          <Trackpoint>
            <Time>2022-07-15T16:43:51.000Z</Time>
            <Position>
              <LatitudeDegrees>43.41032646596431732177734375</LatitudeDegrees>
              <LongitudeDegrees>-4.7218112088739871978759765625</LongitudeDegrees>
            </Position>
            <AltitudeMeters>137.1999969482421875</AltitudeMeters>
            <DistanceMeters>NAN</DistanceMeters>
          </Trackpoint>
          <Trackpoint>
            <Time>2022-07-15T16:43:53.000Z</Time>
            <Position>
              <LatitudeDegrees>43.41038136743009090423583984375</LatitudeDegrees>
              <LongitudeDegrees>-4.7217391245067119598388671875</LongitudeDegrees>
            </Position>
            <AltitudeMeters>137</AltitudeMeters>
            <DistanceMeters>NAN</DistanceMeters>
          </Trackpoint>
          <Trackpoint>
            <Time>2022-07-15T16:44:00.000Z</Time>
            <Position>
              <LatitudeDegrees>43.41053643263876438140869140625</LatitudeDegrees>
              <LongitudeDegrees>-4.7215153276920318603515625</LongitudeDegrees>
            </Position>
            <AltitudeMeters>137.8000030517578125</AltitudeMeters>
            <DistanceMeters>NAN</DistanceMeters>
          </Trackpoint>
          <Trackpoint>
            <Time>2022-07-15T16:44:04.000Z</Time>
            <Position>
              <LatitudeDegrees>43.4105794318020343780517578125</LatitudeDegrees>
              <LongitudeDegrees>-4.72139622084796428680419921875</LongitudeDegrees>
            </Position>
            <AltitudeMeters>139</AltitudeMeters>
            <DistanceMeters>NAN</DistanceMeters>
          </Trackpoint>
          <Trackpoint>
            <Time>2022-07-15T16:44:06.000Z</Time>
            <Position>
              <LatitudeDegrees>43.4105693735182285308837890625</LatitudeDegrees>
              <LongitudeDegrees>-4.72133536823093891143798828125</LongitudeDegrees>
            </Position>
            <AltitudeMeters>139.399993896484375</AltitudeMeters>
            <DistanceMeters>NAN</DistanceMeters>
          </Trackpoint>
          <Trackpoint>
            <Time>2022-07-15T16:44:08.000Z</Time>
            <Position>
              <LatitudeDegrees>43.41056157834827899932861328125</LatitudeDegrees>
              <LongitudeDegrees>-4.7212670557200908660888671875</LongitudeDegrees>
            </Position>
            <AltitudeMeters>139.600006103515625</AltitudeMeters>
            <DistanceMeters>NAN</DistanceMeters>
          </Trackpoint>
          <Trackpoint>
            <Time>2022-07-15T16:44:11.000Z</Time>
            <Position>
              <LatitudeDegrees>43.41055135242640972137451171875</LatitudeDegrees>
              <LongitudeDegrees>-4.7211751900613307952880859375</LongitudeDegrees>
            </Position>
            <AltitudeMeters>140.1999969482421875</AltitudeMeters>
            <DistanceMeters>NAN</DistanceMeters>
          </Trackpoint>
          <Trackpoint>
            <Time>2022-07-15T16:44:12.000Z</Time>
            <Position>
              <LatitudeDegrees>43.4105499275028705596923828125</LatitudeDegrees>
              <LongitudeDegrees>-4.72114711068570613861083984375</LongitudeDegrees>
            </Position>
            <AltitudeMeters>140.399993896484375</AltitudeMeters>
            <DistanceMeters>NAN</DistanceMeters>
          </Trackpoint>
          <Trackpoint>
            <Time>2022-07-15T16:44:15.000Z</Time>
            <Position>
              <LatitudeDegrees>43.410548754036426544189453125</LatitudeDegrees>
              <LongitudeDegrees>-4.7210615314543247222900390625</LongitudeDegrees>
            </Position>
            <AltitudeMeters>140.600006103515625</AltitudeMeters>
            <DistanceMeters>NAN</DistanceMeters>
          </Trackpoint>
          <Trackpoint>
            <Time>2022-07-15T16:44:24.000Z</Time>
            <Position>
              <LatitudeDegrees>43.41053475625813007354736328125</LatitudeDegrees>
              <LongitudeDegrees>-4.720765314996242523193359375</LongitudeDegrees>
            </Position>
            <AltitudeMeters>141.399993896484375</AltitudeMeters>
            <DistanceMeters>NAN</DistanceMeters>
          </Trackpoint>
          <Trackpoint>
            <Time>2022-07-15T16:44:28.000Z</Time>
            <Position>
              <LatitudeDegrees>43.41053492389619350433349609375</LatitudeDegrees>
              <LongitudeDegrees>-4.72061611711978912353515625</LongitudeDegrees>
            </Position>
            <AltitudeMeters>141.600006103515625</AltitudeMeters>
            <DistanceMeters>NAN</DistanceMeters>
          </Trackpoint>
          <Trackpoint>
            <Time>2022-07-15T16:44:32.000Z</Time>
            <Position>
              <LatitudeDegrees>43.41052670963108539581298828125</LatitudeDegrees>
              <LongitudeDegrees>-4.72045384347438812255859375</LongitudeDegrees>
            </Position>
            <AltitudeMeters>141.399993896484375</AltitudeMeters>
            <DistanceMeters>NAN</DistanceMeters>
          </Trackpoint>
          <Trackpoint>
            <Time>2022-07-15T16:44:42.000Z</Time>
            <Position>
              <LatitudeDegrees>43.41049410402774810791015625</LatitudeDegrees>
              <LongitudeDegrees>-4.72010775469243526458740234375</LongitudeDegrees>
            </Position>
            <AltitudeMeters>142.1999969482421875</AltitudeMeters>
            <DistanceMeters>NAN</DistanceMeters>
          </Trackpoint>
          <Trackpoint>
            <Time>2022-07-15T16:44:44.000Z</Time>
            <Position>
              <LatitudeDegrees>43.41048245318233966827392578125</LatitudeDegrees>
              <LongitudeDegrees>-4.72003969363868236541748046875</LongitudeDegrees>
            </Position>
            <AltitudeMeters>142.399993896484375</AltitudeMeters>
            <DistanceMeters>NAN</DistanceMeters>
          </Trackpoint>
          <Trackpoint>
            <Time>2022-07-15T16:44:53.000Z</Time>
            <Position>
              <LatitudeDegrees>43.4104433096945285797119140625</LatitudeDegrees>
              <LongitudeDegrees>-4.719774238765239715576171875</LongitudeDegrees>
            </Position>
            <AltitudeMeters>143.399993896484375</AltitudeMeters>
            <DistanceMeters>NAN</DistanceMeters>
          </Trackpoint>
          <Trackpoint>
            <Time>2022-07-15T16:44:59.000Z</Time>
            <Position>
              <LatitudeDegrees>43.410417325794696807861328125</LatitudeDegrees>
              <LongitudeDegrees>-4.71956737339496612548828125</LongitudeDegrees>
            </Position>
            <AltitudeMeters>144.1999969482421875</AltitudeMeters>
            <DistanceMeters>NAN</DistanceMeters>
          </Trackpoint>
          <Trackpoint>
            <Time>2022-07-15T16:45:03.000Z</Time>
            <Position>
              <LatitudeDegrees>43.41040022671222686767578125</LatitudeDegrees>
              <LongitudeDegrees>-4.719419181346893310546875</LongitudeDegrees>
            </Position>
            <AltitudeMeters>144.399993896484375</AltitudeMeters>
            <DistanceMeters>NAN</DistanceMeters>
          </Trackpoint>
          <Trackpoint>
            <Time>2022-07-15T16:45:04.000Z</Time>
            <Position>
              <LatitudeDegrees>43.4103943593800067901611328125</LatitudeDegrees>
              <LongitudeDegrees>-4.7193804569542407989501953125</LongitudeDegrees>
            </Position>
            <AltitudeMeters>144.399993896484375</AltitudeMeters>
            <DistanceMeters>NAN</DistanceMeters>
          </Trackpoint>
          <Trackpoint>
            <Time>2022-07-15T16:45:11.000Z</Time>
            <Position>
              <LatitudeDegrees>43.4103606641292572021484375</LatitudeDegrees>
              <LongitudeDegrees>-4.7190666384994983673095703125</LongitudeDegrees>
            </Position>
            <AltitudeMeters>144</AltitudeMeters>
            <DistanceMeters>NAN</DistanceMeters>
          </Trackpoint>
          <Trackpoint>
            <Time>2022-07-15T16:45:12.000Z</Time>
            <Position>
              <LatitudeDegrees>43.41034767217934131622314453125</LatitudeDegrees>
              <LongitudeDegrees>-4.7190324403345584869384765625</LongitudeDegrees>
            </Position>
            <AltitudeMeters>143.399993896484375</AltitudeMeters>
            <DistanceMeters>NAN</DistanceMeters>
          </Trackpoint>
          <Trackpoint>
            <Time>2022-07-15T16:45:14.000Z</Time>
            <Position>
              <LatitudeDegrees>43.41030224226415157318115234375</LatitudeDegrees>
              <LongitudeDegrees>-4.71899849362671375274658203125</LongitudeDegrees>
            </Position>
            <AltitudeMeters>141.1999969482421875</AltitudeMeters>
            <DistanceMeters>NAN</DistanceMeters>
          </Trackpoint>
          <Trackpoint>
            <Time>2022-07-15T16:45:16.000Z</Time>
            <Position>
              <LatitudeDegrees>43.41024876572191715240478515625</LatitudeDegrees>
              <LongitudeDegrees>-4.71898935735225677490234375</LongitudeDegrees>
            </Position>
            <AltitudeMeters>139.8000030517578125</AltitudeMeters>
            <DistanceMeters>NAN</DistanceMeters>
          </Trackpoint>
          <Trackpoint>
            <Time>2022-07-15T16:45:19.000Z</Time>
            <Position>
              <LatitudeDegrees>43.41016075573861598968505859375</LatitudeDegrees>
              <LongitudeDegrees>-4.7190133295953273773193359375</LongitudeDegrees>
            </Position>
            <AltitudeMeters>138.600006103515625</AltitudeMeters>
            <DistanceMeters>NAN</DistanceMeters>
          </Trackpoint>
          <Trackpoint>
            <Time>2022-07-15T16:45:20.000Z</Time>
            <Position>
              <LatitudeDegrees>43.4101278148591518402099609375</LatitudeDegrees>
              <LongitudeDegrees>-4.7190277464687824249267578125</LongitudeDegrees>
            </Position>
            <AltitudeMeters>138</AltitudeMeters>
            <DistanceMeters>NAN</DistanceMeters>
          </Trackpoint>
          <Trackpoint>
            <Time>2022-07-15T16:45:22.000Z</Time>
            <Position>
              <LatitudeDegrees>43.410065285861492156982421875</LatitudeDegrees>
              <LongitudeDegrees>-4.71902984194457530975341796875</LongitudeDegrees>
            </Position>
            <AltitudeMeters>137.399993896484375</AltitudeMeters>
            <DistanceMeters>NAN</DistanceMeters>
          </Trackpoint>
          <Trackpoint>
            <Time>2022-07-15T16:45:24.000Z</Time>
            <Position>
              <LatitudeDegrees>43.41002396307885646820068359375</LatitudeDegrees>
              <LongitudeDegrees>-4.71900486387312412261962890625</LongitudeDegrees>
            </Position>
            <AltitudeMeters>137</AltitudeMeters>
            <DistanceMeters>NAN</DistanceMeters>
          </Trackpoint>
          <Trackpoint>
            <Time>2022-07-15T16:45:30.000Z</Time>
            <Position>
              <LatitudeDegrees>43.4099799580872058868408203125</LatitudeDegrees>
              <LongitudeDegrees>-4.71886538900434970855712890625</LongitudeDegrees>
            </Position>
            <AltitudeMeters>137.8000030517578125</AltitudeMeters>
            <DistanceMeters>NAN</DistanceMeters>
          </Trackpoint>
          <Trackpoint>
            <Time>2022-07-15T16:45:32.000Z</Time>
            <Position>
              <LatitudeDegrees>43.40997199527919292449951171875</LatitudeDegrees>
              <LongitudeDegrees>-4.71881358884274959564208984375</LongitudeDegrees>
            </Position>
            <AltitudeMeters>138.399993896484375</AltitudeMeters>
            <DistanceMeters>NAN</DistanceMeters>
          </Trackpoint>
          <Trackpoint>
            <Time>2022-07-15T16:45:37.000Z</Time>
            <Position>
              <LatitudeDegrees>43.40998456813395023345947265625</LatitudeDegrees>
              <LongitudeDegrees>-4.71867964603006839752197265625</LongitudeDegrees>
            </Position>
            <AltitudeMeters>139.399993896484375</AltitudeMeters>
            <DistanceMeters>NAN</DistanceMeters>
          </Trackpoint>
          <Trackpoint>
            <Time>2022-07-15T16:45:38.000Z</Time>
            <Position>
              <LatitudeDegrees>43.40999244712293148040771484375</LatitudeDegrees>
              <LongitudeDegrees>-4.7186545841395854949951171875</LongitudeDegrees>
            </Position>
            <AltitudeMeters>139.399993896484375</AltitudeMeters>
            <DistanceMeters>NAN</DistanceMeters>
          </Trackpoint>
          <Trackpoint>
            <Time>2022-07-15T16:45:43.000Z</Time>
            <Position>
              <LatitudeDegrees>43.4099864959716796875</LatitudeDegrees>
              <LongitudeDegrees>-4.71847780980169773101806640625</LongitudeDegrees>
            </Position>
            <AltitudeMeters>140</AltitudeMeters>
            <DistanceMeters>NAN</DistanceMeters>
          </Trackpoint>
          <Trackpoint>
            <Time>2022-07-15T16:45:49.000Z</Time>
            <Position>
              <LatitudeDegrees>43.40997132472693920135498046875</LatitudeDegrees>
              <LongitudeDegrees>-4.71814714372158050537109375</LongitudeDegrees>
            </Position>
            <AltitudeMeters>139</AltitudeMeters>
            <DistanceMeters>NAN</DistanceMeters>
          </Trackpoint>
          <Trackpoint>
            <Time>2022-07-15T16:45:51.000Z</Time>
            <Position>
              <LatitudeDegrees>43.40997383929789066314697265625</LatitudeDegrees>
              <LongitudeDegrees>-4.71800364553928375244140625</LongitudeDegrees>
            </Position>
            <AltitudeMeters>138.8000030517578125</AltitudeMeters>
            <DistanceMeters>NAN</DistanceMeters>
          </Trackpoint>
          <Trackpoint>
            <Time>2022-07-15T16:45:54.000Z</Time>
            <Position>
              <LatitudeDegrees>43.4099876694381237030029296875</LatitudeDegrees>
              <LongitudeDegrees>-4.7178418748080730438232421875</LongitudeDegrees>
            </Position>
            <AltitudeMeters>139</AltitudeMeters>
            <DistanceMeters>NAN</DistanceMeters>
          </Trackpoint>
          <Trackpoint>
            <Time>2022-07-15T16:46:01.000Z</Time>
            <Position>
              <LatitudeDegrees>43.40998037718236446380615234375</LatitudeDegrees>
              <LongitudeDegrees>-4.71749628894031047821044921875</LongitudeDegrees>
            </Position>
            <AltitudeMeters>139.1999969482421875</AltitudeMeters>
            <DistanceMeters>NAN</DistanceMeters>
          </Trackpoint>
          <Trackpoint>
            <Time>2022-07-15T16:46:11.000Z</Time>
            <Position>
              <LatitudeDegrees>43.40994827449321746826171875</LatitudeDegrees>
              <LongitudeDegrees>-4.71702254377305507659912109375</LongitudeDegrees>
            </Position>
            <AltitudeMeters>139.1999969482421875</AltitudeMeters>
            <DistanceMeters>NAN</DistanceMeters>
          </Trackpoint>
          <Trackpoint>
            <Time>2022-07-15T16:46:14.000Z</Time>
            <Position>
              <LatitudeDegrees>43.4099434129893779754638671875</LatitudeDegrees>
              <LongitudeDegrees>-4.7168819792568683624267578125</LongitudeDegrees>
            </Position>
            <AltitudeMeters>139.1999969482421875</AltitudeMeters>
            <DistanceMeters>NAN</DistanceMeters>
          </Trackpoint>
          <Trackpoint>
            <Time>2022-07-15T16:46:17.000Z</Time>
            <Position>
              <LatitudeDegrees>43.40996093116700649261474609375</LatitudeDegrees>
              <LongitudeDegrees>-4.71671677194535732269287109375</LongitudeDegrees>
            </Position>
            <AltitudeMeters>138.8000030517578125</AltitudeMeters>
            <DistanceMeters>NAN</DistanceMeters>
          </Trackpoint>
          <Trackpoint>
            <Time>2022-07-15T16:46:18.000Z</Time>
            <Position>
              <LatitudeDegrees>43.40997216291725635528564453125</LatitudeDegrees>
              <LongitudeDegrees>-4.71667201258242130279541015625</LongitudeDegrees>
            </Position>
            <AltitudeMeters>138.600006103515625</AltitudeMeters>
            <DistanceMeters>NAN</DistanceMeters>
          </Trackpoint>
          <Trackpoint>
            <Time>2022-07-15T16:46:19.000Z</Time>
            <Position>
              <LatitudeDegrees>43.40998582541942596435546875</LatitudeDegrees>
              <LongitudeDegrees>-4.7166362218558788299560546875</LongitudeDegrees>
            </Position>
            <AltitudeMeters>138</AltitudeMeters>
            <DistanceMeters>NAN</DistanceMeters>
          </Trackpoint>
          <Trackpoint>
            <Time>2022-07-15T16:46:20.000Z</Time>
            <Position>
              <LatitudeDegrees>43.41000032611191272735595703125</LatitudeDegrees>
              <LongitudeDegrees>-4.71661233343183994293212890625</LongitudeDegrees>
            </Position>
            <AltitudeMeters>137.600006103515625</AltitudeMeters>
            <DistanceMeters>NAN</DistanceMeters>
          </Trackpoint>
          <Trackpoint>
            <Time>2022-07-15T16:46:21.000Z</Time>
            <Position>
              <LatitudeDegrees>43.41001692228019237518310546875</LatitudeDegrees>
              <LongitudeDegrees>-4.716598503291606903076171875</LongitudeDegrees>
            </Position>
            <AltitudeMeters>137</AltitudeMeters>
            <DistanceMeters>NAN</DistanceMeters>
          </Trackpoint>
          <Trackpoint>
            <Time>2022-07-15T16:46:22.000Z</Time>
            <Position>
              <LatitudeDegrees>43.41003033332526683807373046875</LatitudeDegrees>
              <LongitudeDegrees>-4.71658878028392791748046875</LongitudeDegrees>
            </Position>
            <AltitudeMeters>136.600006103515625</AltitudeMeters>
            <DistanceMeters>NAN</DistanceMeters>
          </Trackpoint>
          <Trackpoint>
            <Time>2022-07-15T16:46:25.000Z</Time>
            <Position>
              <LatitudeDegrees>43.41005329973995685577392578125</LatitudeDegrees>
              <LongitudeDegrees>-4.71663169562816619873046875</LongitudeDegrees>
            </Position>
            <AltitudeMeters>135.8000030517578125</AltitudeMeters>
            <DistanceMeters>NAN</DistanceMeters>
          </Trackpoint>
          <Trackpoint>
            <Time>2022-07-15T16:46:26.000Z</Time>
            <Position>
              <LatitudeDegrees>43.41006000526249408721923828125</LatitudeDegrees>
              <LongitudeDegrees>-4.7166697494685649871826171875</LongitudeDegrees>
            </Position>
            <AltitudeMeters>135.8000030517578125</AltitudeMeters>
            <DistanceMeters>NAN</DistanceMeters>
          </Trackpoint>
          <Trackpoint>
            <Time>2022-07-15T16:46:30.000Z</Time>
            <Position>
              <LatitudeDegrees>43.41010325588285923004150390625</LatitudeDegrees>
              <LongitudeDegrees>-4.7168831527233123779296875</LongitudeDegrees>
            </Position>
            <AltitudeMeters>135.600006103515625</AltitudeMeters>
            <DistanceMeters>NAN</DistanceMeters>
          </Trackpoint>
          <Trackpoint>
            <Time>2022-07-15T16:46:33.000Z</Time>
            <Position>
              <LatitudeDegrees>43.41014332138001918792724609375</LatitudeDegrees>
              <LongitudeDegrees>-4.71711357124149799346923828125</LongitudeDegrees>
            </Position>
            <AltitudeMeters>134.8000030517578125</AltitudeMeters>
            <DistanceMeters>NAN</DistanceMeters>
          </Trackpoint>
          <Trackpoint>
            <Time>2022-07-15T16:46:35.000Z</Time>
            <Position>
              <LatitudeDegrees>43.410185314714908599853515625</LatitudeDegrees>
              <LongitudeDegrees>-4.717305600643157958984375</LongitudeDegrees>
            </Position>
            <AltitudeMeters>134.399993896484375</AltitudeMeters>
            <DistanceMeters>NAN</DistanceMeters>
          </Trackpoint>
          <Trackpoint>
            <Time>2022-07-15T16:46:41.000Z</Time>
            <Position>
              <LatitudeDegrees>43.41028380207717418670654296875</LatitudeDegrees>
              <LongitudeDegrees>-4.717853106558322906494140625</LongitudeDegrees>
            </Position>
            <AltitudeMeters>133.600006103515625</AltitudeMeters>
            <DistanceMeters>NAN</DistanceMeters>
          </Trackpoint>
          <Trackpoint>
            <Time>2022-07-15T16:46:42.000Z</Time>
            <Position>
              <LatitudeDegrees>43.41029436327517032623291015625</LatitudeDegrees>
              <LongitudeDegrees>-4.71795679070055484771728515625</LongitudeDegrees>
            </Position>
            <AltitudeMeters>133</AltitudeMeters>
            <DistanceMeters>NAN</DistanceMeters>
          </Trackpoint>
          <Trackpoint>
            <Time>2022-07-15T16:46:43.000Z</Time>
            <Position>
              <LatitudeDegrees>43.41029754839837551116943359375</LatitudeDegrees>
              <LongitudeDegrees>-4.71806407906115055084228515625</LongitudeDegrees>
            </Position>
            <AltitudeMeters>132.8000030517578125</AltitudeMeters>
            <DistanceMeters>NAN</DistanceMeters>
          </Trackpoint>
          <Trackpoint>
            <Time>2022-07-15T16:46:45.000Z</Time>
            <Position>
              <LatitudeDegrees>43.4103055112063884735107421875</LatitudeDegrees>
              <LongitudeDegrees>-4.71826306544244289398193359375</LongitudeDegrees>
            </Position>
            <AltitudeMeters>132.399993896484375</AltitudeMeters>
            <DistanceMeters>NAN</DistanceMeters>
          </Trackpoint>
          <Trackpoint>
            <Time>2022-07-15T16:46:46.000Z</Time>
            <Position>
              <LatitudeDegrees>43.41032068245112895965576171875</LatitudeDegrees>
              <LongitudeDegrees>-4.71835174597799777984619140625</LongitudeDegrees>
            </Position>
            <AltitudeMeters>130</AltitudeMeters>
            <DistanceMeters>NAN</DistanceMeters>
          </Trackpoint>
          <Trackpoint>
            <Time>2022-07-15T16:46:47.000Z</Time>
            <Position>
              <LatitudeDegrees>43.41035194694995880126953125</LatitudeDegrees>
              <LongitudeDegrees>-4.71844679675996303558349609375</LongitudeDegrees>
            </Position>
            <AltitudeMeters>128.600006103515625</AltitudeMeters>
            <DistanceMeters>NAN</DistanceMeters>
          </Trackpoint>
          <Trackpoint>
            <Time>2022-07-15T16:46:48.000Z</Time>
            <Position>
              <LatitudeDegrees>43.410380780696868896484375</LatitudeDegrees>
              <LongitudeDegrees>-4.71848987974226474761962890625</LongitudeDegrees>
            </Position>
            <AltitudeMeters>127.40000152587890625</AltitudeMeters>
            <DistanceMeters>NAN</DistanceMeters>
          </Trackpoint>
          <Trackpoint>
            <Time>2022-07-15T16:46:49.000Z</Time>
            <Position>
              <LatitudeDegrees>43.41042361222207546234130859375</LatitudeDegrees>
              <LongitudeDegrees>-4.7185353934764862060546875</LongitudeDegrees>
            </Position>
            <AltitudeMeters>126.59999847412109375</AltitudeMeters>
            <DistanceMeters>NAN</DistanceMeters>
          </Trackpoint>
          <Trackpoint>
            <Time>2022-07-15T16:46:50.000Z</Time>
            <Position>
              <LatitudeDegrees>43.41047138907015323638916015625</LatitudeDegrees>
              <LongitudeDegrees>-4.71857302822172641754150390625</LongitudeDegrees>
            </Position>
            <AltitudeMeters>126.1999969482421875</AltitudeMeters>
            <DistanceMeters>NAN</DistanceMeters>
          </Trackpoint>
          <Trackpoint>
            <Time>2022-07-15T16:46:52.000Z</Time>
            <Position>
              <LatitudeDegrees>43.410560823976993560791015625</LatitudeDegrees>
              <LongitudeDegrees>-4.71863119862973690032958984375</LongitudeDegrees>
            </Position>
            <AltitudeMeters>125.8000030517578125</AltitudeMeters>
            <DistanceMeters>NAN</DistanceMeters>
          </Trackpoint>
          <Trackpoint>
            <Time>2022-07-15T16:46:53.000Z</Time>
            <Position>
              <LatitudeDegrees>43.41059611178934574127197265625</LatitudeDegrees>
              <LongitudeDegrees>-4.71866372041404247283935546875</LongitudeDegrees>
            </Position>
            <AltitudeMeters>125.8000030517578125</AltitudeMeters>
            <DistanceMeters>NAN</DistanceMeters>
          </Trackpoint>
          <Trackpoint>
            <Time>2022-07-15T16:46:54.000Z</Time>
            <Position>
              <LatitudeDegrees>43.4106283821165561676025390625</LatitudeDegrees>
              <LongitudeDegrees>-4.718703366816043853759765625</LongitudeDegrees>
            </Position>
            <AltitudeMeters>125.8000030517578125</AltitudeMeters>
            <DistanceMeters>NAN</DistanceMeters>
          </Trackpoint>
          <Trackpoint>
            <Time>2022-07-15T16:46:56.000Z</Time>
            <Position>
              <LatitudeDegrees>43.41068211011588573455810546875</LatitudeDegrees>
              <LongitudeDegrees>-4.718821384012699127197265625</LongitudeDegrees>
            </Position>
            <AltitudeMeters>125.40000152587890625</AltitudeMeters>
            <DistanceMeters>NAN</DistanceMeters>
          </Trackpoint>
          <Trackpoint>
            <Time>2022-07-15T16:46:57.000Z</Time>
            <Position>
              <LatitudeDegrees>43.41070331633090972900390625</LatitudeDegrees>
              <LongitudeDegrees>-4.71889221109449863433837890625</LongitudeDegrees>
            </Position>
            <AltitudeMeters>125</AltitudeMeters>
            <DistanceMeters>NAN</DistanceMeters>
          </Trackpoint>
          <Trackpoint>
            <Time>2022-07-15T16:47:01.000Z</Time>
            <Position>
              <LatitudeDegrees>43.4108064137399196624755859375</LatitudeDegrees>
              <LongitudeDegrees>-4.7192131541669368743896484375</LongitudeDegrees>
            </Position>
            <AltitudeMeters>123</AltitudeMeters>
            <DistanceMeters>NAN</DistanceMeters>
          </Trackpoint>
          <Trackpoint>
            <Time>2022-07-15T16:47:03.000Z</Time>
            <Position>
              <LatitudeDegrees>43.4108676016330718994140625</LatitudeDegrees>
              <LongitudeDegrees>-4.71939562819898128509521484375</LongitudeDegrees>
            </Position>
            <AltitudeMeters>122</AltitudeMeters>
            <DistanceMeters>NAN</DistanceMeters>
          </Trackpoint>
          <Trackpoint>
            <Time>2022-07-15T16:47:08.000Z</Time>
            <Position>
              <LatitudeDegrees>43.4110741317272186279296875</LatitudeDegrees>
              <LongitudeDegrees>-4.7198726423084735870361328125</LongitudeDegrees>
            </Position>
            <AltitudeMeters>121.1999969482421875</AltitudeMeters>
            <DistanceMeters>NAN</DistanceMeters>
          </Trackpoint>
          <Trackpoint>
            <Time>2022-07-15T16:47:10.000Z</Time>
            <Position>
              <LatitudeDegrees>43.411175720393657684326171875</LatitudeDegrees>
              <LongitudeDegrees>-4.72006266005337238311767578125</LongitudeDegrees>
            </Position>
            <AltitudeMeters>121</AltitudeMeters>
            <DistanceMeters>NAN</DistanceMeters>
          </Trackpoint>
          <Trackpoint>
            <Time>2022-07-15T16:47:14.000Z</Time>
            <Position>
              <LatitudeDegrees>43.4113227389752864837646484375</LatitudeDegrees>
              <LongitudeDegrees>-4.72041838802397251129150390625</LongitudeDegrees>
            </Position>
            <AltitudeMeters>120</AltitudeMeters>
            <DistanceMeters>NAN</DistanceMeters>
          </Trackpoint>
          <Trackpoint>
            <Time>2022-07-15T16:47:16.000Z</Time>
            <Position>
              <LatitudeDegrees>43.4113358147442340850830078125</LatitudeDegrees>
              <LongitudeDegrees>-4.720601029694080352783203125</LongitudeDegrees>
            </Position>
            <AltitudeMeters>119</AltitudeMeters>
            <DistanceMeters>NAN</DistanceMeters>
          </Trackpoint>
          <Trackpoint>
            <Time>2022-07-15T16:47:17.000Z</Time>
            <Position>
              <LatitudeDegrees>43.41133338399231433868408203125</LatitudeDegrees>
              <LongitudeDegrees>-4.72070136107504367828369140625</LongitudeDegrees>
            </Position>
            <AltitudeMeters>118.59999847412109375</AltitudeMeters>
            <DistanceMeters>NAN</DistanceMeters>
          </Trackpoint>
          <Trackpoint>
            <Time>2022-07-15T16:47:18.000Z</Time>
            <Position>
              <LatitudeDegrees>43.411333300173282623291015625</LatitudeDegrees>
              <LongitudeDegrees>-4.72081585787236690521240234375</LongitudeDegrees>
            </Position>
            <AltitudeMeters>118</AltitudeMeters>
            <DistanceMeters>NAN</DistanceMeters>
          </Trackpoint>
          <Trackpoint>
            <Time>2022-07-15T16:47:19.000Z</Time>
            <Position>
              <LatitudeDegrees>43.4113361500203609466552734375</LatitudeDegrees>
              <LongitudeDegrees>-4.72094326280057430267333984375</LongitudeDegrees>
            </Position>
            <AltitudeMeters>117.40000152587890625</AltitudeMeters>
            <DistanceMeters>NAN</DistanceMeters>
          </Trackpoint>
          <Trackpoint>
            <Time>2022-07-15T16:47:20.000Z</Time>
            <Position>
              <LatitudeDegrees>43.41135852970182895660400390625</LatitudeDegrees>
              <LongitudeDegrees>-4.7210662253201007843017578125</LongitudeDegrees>
            </Position>
            <AltitudeMeters>117</AltitudeMeters>
            <DistanceMeters>NAN</DistanceMeters>
          </Trackpoint>
          <Trackpoint>
            <Time>2022-07-15T16:47:21.000Z</Time>
            <Position>
              <LatitudeDegrees>43.41139264404773712158203125</LatitudeDegrees>
              <LongitudeDegrees>-4.7211845777928829193115234375</LongitudeDegrees>
            </Position>
            <AltitudeMeters>116.1999969482421875</AltitudeMeters>
            <DistanceMeters>NAN</DistanceMeters>
          </Trackpoint>
          <Trackpoint>
            <Time>2022-07-15T16:47:22.000Z</Time>
            <Position>
              <LatitudeDegrees>43.41141049750149250030517578125</LatitudeDegrees>
              <LongitudeDegrees>-4.72130410373210906982421875</LongitudeDegrees>
            </Position>
            <AltitudeMeters>115.1999969482421875</AltitudeMeters>
            <DistanceMeters>NAN</DistanceMeters>
          </Trackpoint>
          <Trackpoint>
            <Time>2022-07-15T16:47:24.000Z</Time>
            <Position>
              <LatitudeDegrees>43.41140848584473133087158203125</LatitudeDegrees>
              <LongitudeDegrees>-4.721542485058307647705078125</LongitudeDegrees>
            </Position>
            <AltitudeMeters>113.59999847412109375</AltitudeMeters>
            <DistanceMeters>NAN</DistanceMeters>
          </Trackpoint>
          <Trackpoint>
            <Time>2022-07-15T16:47:26.000Z</Time>
            <Position>
              <LatitudeDegrees>43.4114550054073333740234375</LatitudeDegrees>
              <LongitudeDegrees>-4.721762426197528839111328125</LongitudeDegrees>
            </Position>
            <AltitudeMeters>112</AltitudeMeters>
            <DistanceMeters>NAN</DistanceMeters>
          </Trackpoint>
          <Trackpoint>
            <Time>2022-07-15T16:47:27.000Z</Time>
            <Position>
              <LatitudeDegrees>43.4115006029605865478515625</LatitudeDegrees>
              <LongitudeDegrees>-4.72185605205595493316650390625</LongitudeDegrees>
            </Position>
            <AltitudeMeters>111.40000152587890625</AltitudeMeters>
            <DistanceMeters>NAN</DistanceMeters>
          </Trackpoint>
          <Trackpoint>
            <Time>2022-07-15T16:47:28.000Z</Time>
            <Position>
              <LatitudeDegrees>43.4115654788911342620849609375</LatitudeDegrees>
              <LongitudeDegrees>-4.72191975452005863189697265625</LongitudeDegrees>
            </Position>
            <AltitudeMeters>110.59999847412109375</AltitudeMeters>
            <DistanceMeters>NAN</DistanceMeters>
          </Trackpoint>
          <Trackpoint>
            <Time>2022-07-15T16:47:29.000Z</Time>
            <Position>
              <LatitudeDegrees>43.41164384968578815460205078125</LatitudeDegrees>
              <LongitudeDegrees>-4.72195059992372989654541015625</LongitudeDegrees>
            </Position>
            <AltitudeMeters>110</AltitudeMeters>
            <DistanceMeters>NAN</DistanceMeters>
          </Trackpoint>
          <Trackpoint>
            <Time>2022-07-15T16:47:30.000Z</Time>
            <Position>
              <LatitudeDegrees>43.41172230429947376251220703125</LatitudeDegrees>
              <LongitudeDegrees>-4.7219335846602916717529296875</LongitudeDegrees>
            </Position>
            <AltitudeMeters>109.1999969482421875</AltitudeMeters>
            <DistanceMeters>NAN</DistanceMeters>
          </Trackpoint>
          <Trackpoint>
            <Time>2022-07-15T16:47:31.000Z</Time>
            <Position>
              <LatitudeDegrees>43.4118001721799373626708984375</LatitudeDegrees>
              <LongitudeDegrees>-4.72189058549702167510986328125</LongitudeDegrees>
            </Position>
            <AltitudeMeters>108.1999969482421875</AltitudeMeters>
            <DistanceMeters>NAN</DistanceMeters>
          </Trackpoint>
          <Trackpoint>
            <Time>2022-07-15T16:47:32.000Z</Time>
            <Position>
              <LatitudeDegrees>43.411883823573589324951171875</LatitudeDegrees>
              <LongitudeDegrees>-4.72183828242123126983642578125</LongitudeDegrees>
            </Position>
            <AltitudeMeters>107.40000152587890625</AltitudeMeters>
            <DistanceMeters>NAN</DistanceMeters>
          </Trackpoint>
          <Trackpoint>
            <Time>2022-07-15T16:47:33.000Z</Time>
            <Position>
              <LatitudeDegrees>43.4119758568704128265380859375</LatitudeDegrees>
              <LongitudeDegrees>-4.72181984223425388336181640625</LongitudeDegrees>
            </Position>
            <AltitudeMeters>106.1999969482421875</AltitudeMeters>
            <DistanceMeters>NAN</DistanceMeters>
          </Trackpoint>
          <Trackpoint>
            <Time>2022-07-15T16:47:34.000Z</Time>
            <Position>
              <LatitudeDegrees>43.41207115910947322845458984375</LatitudeDegrees>
              <LongitudeDegrees>-4.72182990051805973052978515625</LongitudeDegrees>
            </Position>
            <AltitudeMeters>105.1999969482421875</AltitudeMeters>
            <DistanceMeters>NAN</DistanceMeters>
          </Trackpoint>
          <Trackpoint>
            <Time>2022-07-15T16:47:35.000Z</Time>
            <Position>
              <LatitudeDegrees>43.41215573251247406005859375</LatitudeDegrees>
              <LongitudeDegrees>-4.7218742407858371734619140625</LongitudeDegrees>
            </Position>
            <AltitudeMeters>104.40000152587890625</AltitudeMeters>
            <DistanceMeters>NAN</DistanceMeters>
          </Trackpoint>
          <Trackpoint>
            <Time>2022-07-15T16:47:36.000Z</Time>
            <Position>
              <LatitudeDegrees>43.4122253023087978363037109375</LatitudeDegrees>
              <LongitudeDegrees>-4.72194825299084186553955078125</LongitudeDegrees>
            </Position>
            <AltitudeMeters>103.40000152587890625</AltitudeMeters>
            <DistanceMeters>NAN</DistanceMeters>
          </Trackpoint>
          <Trackpoint>
            <Time>2022-07-15T16:47:37.000Z</Time>
            <Position>
              <LatitudeDegrees>43.4122802875936031341552734375</LatitudeDegrees>
              <LongitudeDegrees>-4.7220455668866634368896484375</LongitudeDegrees>
            </Position>
            <AltitudeMeters>102.8000030517578125</AltitudeMeters>
            <DistanceMeters>NAN</DistanceMeters>
          </Trackpoint>
          <Trackpoint>
            <Time>2022-07-15T16:47:38.000Z</Time>
            <Position>
              <LatitudeDegrees>43.4123294055461883544921875</LatitudeDegrees>
              <LongitudeDegrees>-4.72218395210802555084228515625</LongitudeDegrees>
            </Position>
            <AltitudeMeters>102.40000152587890625</AltitudeMeters>
            <DistanceMeters>NAN</DistanceMeters>
          </Trackpoint>
          <Trackpoint>
            <Time>2022-07-15T16:47:39.000Z</Time>
            <Position>
              <LatitudeDegrees>43.41236821375787258148193359375</LatitudeDegrees>
              <LongitudeDegrees>-4.722306914627552032470703125</LongitudeDegrees>
            </Position>
            <AltitudeMeters>101.8000030517578125</AltitudeMeters>
            <DistanceMeters>NAN</DistanceMeters>
          </Trackpoint>
          <Trackpoint>
            <Time>2022-07-15T16:47:40.000Z</Time>
            <Position>
              <LatitudeDegrees>43.412405513226985931396484375</LatitudeDegrees>
              <LongitudeDegrees>-4.722402803599834442138671875</LongitudeDegrees>
            </Position>
            <AltitudeMeters>101</AltitudeMeters>
            <DistanceMeters>NAN</DistanceMeters>
          </Trackpoint>
          <Trackpoint>
            <Time>2022-07-15T16:47:42.000Z</Time>
            <Position>
              <LatitudeDegrees>43.41252277605235576629638671875</LatitudeDegrees>
              <LongitudeDegrees>-4.72261377610266208648681640625</LongitudeDegrees>
            </Position>
            <AltitudeMeters>99.40000152587890625</AltitudeMeters>
            <DistanceMeters>NAN</DistanceMeters>
          </Trackpoint>
          <Trackpoint>
            <Time>2022-07-15T16:47:43.000Z</Time>
            <Position>
              <LatitudeDegrees>43.41258128173649311065673828125</LatitudeDegrees>
              <LongitudeDegrees>-4.722721315920352935791015625</LongitudeDegrees>
            </Position>
            <AltitudeMeters>98.8000030517578125</AltitudeMeters>
            <DistanceMeters>NAN</DistanceMeters>
          </Trackpoint>
          <Trackpoint>
            <Time>2022-07-15T16:47:44.000Z</Time>
            <Position>
              <LatitudeDegrees>43.4126256220042705535888671875</LatitudeDegrees>
              <LongitudeDegrees>-4.72284025512635707855224609375</LongitudeDegrees>
            </Position>
            <AltitudeMeters>98</AltitudeMeters>
            <DistanceMeters>NAN</DistanceMeters>
          </Trackpoint>
          <Trackpoint>
            <Time>2022-07-15T16:47:45.000Z</Time>
            <Position>
              <LatitudeDegrees>43.41265252791345119476318359375</LatitudeDegrees>
              <LongitudeDegrees>-4.722972773015499114990234375</LongitudeDegrees>
            </Position>
            <AltitudeMeters>97</AltitudeMeters>
            <DistanceMeters>NAN</DistanceMeters>
          </Trackpoint>
          <Trackpoint>
            <Time>2022-07-15T16:47:46.000Z</Time>
            <Position>
              <LatitudeDegrees>43.4126789309084415435791015625</LatitudeDegrees>
              <LongitudeDegrees>-4.72313764505088329315185546875</LongitudeDegrees>
            </Position>
            <AltitudeMeters>95.8000030517578125</AltitudeMeters>
            <DistanceMeters>NAN</DistanceMeters>
          </Trackpoint>
          <Trackpoint>
            <Time>2022-07-15T16:47:47.000Z</Time>
            <Position>
              <LatitudeDegrees>43.41269091702997684478759765625</LatitudeDegrees>
              <LongitudeDegrees>-4.7232753597199916839599609375</LongitudeDegrees>
            </Position>
            <AltitudeMeters>94.8000030517578125</AltitudeMeters>
            <DistanceMeters>NAN</DistanceMeters>
          </Trackpoint>
          <Trackpoint>
            <Time>2022-07-15T16:47:49.000Z</Time>
            <Position>
              <LatitudeDegrees>43.412703573703765869140625</LatitudeDegrees>
              <LongitudeDegrees>-4.72354098223149776458740234375</LongitudeDegrees>
            </Position>
            <AltitudeMeters>93.59999847412109375</AltitudeMeters>
            <DistanceMeters>NAN</DistanceMeters>
          </Trackpoint>
          <Trackpoint>
            <Time>2022-07-15T16:47:50.000Z</Time>
            <Position>
              <LatitudeDegrees>43.41269745491445064544677734375</LatitudeDegrees>
              <LongitudeDegrees>-4.72369219176471233367919921875</LongitudeDegrees>
            </Position>
            <AltitudeMeters>92</AltitudeMeters>
            <DistanceMeters>NAN</DistanceMeters>
          </Trackpoint>
          <Trackpoint>
            <Time>2022-07-15T16:47:52.000Z</Time>
            <Position>
              <LatitudeDegrees>43.4126712195575237274169921875</LatitudeDegrees>
              <LongitudeDegrees>-4.72400374710559844970703125</LongitudeDegrees>
            </Position>
            <AltitudeMeters>90.40000152587890625</AltitudeMeters>
            <DistanceMeters>NAN</DistanceMeters>
          </Trackpoint>
          <Trackpoint>
            <Time>2022-07-15T16:47:53.000Z</Time>
            <Position>
              <LatitudeDegrees>43.41266132891178131103515625</LatitudeDegrees>
              <LongitudeDegrees>-4.7241668589413166046142578125</LongitudeDegrees>
            </Position>
            <AltitudeMeters>89.59999847412109375</AltitudeMeters>
            <DistanceMeters>NAN</DistanceMeters>
          </Trackpoint>
          <Trackpoint>
            <Time>2022-07-15T16:47:54.000Z</Time>
            <Position>
              <LatitudeDegrees>43.4126702137291431427001953125</LatitudeDegrees>
              <LongitudeDegrees>-4.72433206625282764434814453125</LongitudeDegrees>
            </Position>
            <AltitudeMeters>89</AltitudeMeters>
            <DistanceMeters>NAN</DistanceMeters>
          </Trackpoint>
          <Trackpoint>
            <Time>2022-07-15T16:47:55.000Z</Time>
            <Position>
              <LatitudeDegrees>43.41269024647772312164306640625</LatitudeDegrees>
              <LongitudeDegrees>-4.72449920140206813812255859375</LongitudeDegrees>
            </Position>
            <AltitudeMeters>88.1999969482421875</AltitudeMeters>
            <DistanceMeters>NAN</DistanceMeters>
          </Trackpoint>
          <Trackpoint>
            <Time>2022-07-15T16:47:56.000Z</Time>
            <Position>
              <LatitudeDegrees>43.41271631419658660888671875</LatitudeDegrees>
              <LongitudeDegrees>-4.72466625273227691650390625</LongitudeDegrees>
            </Position>
            <AltitudeMeters>86.8000030517578125</AltitudeMeters>
            <DistanceMeters>NAN</DistanceMeters>
          </Trackpoint>
          <Trackpoint>
            <Time>2022-07-15T16:47:57.000Z</Time>
            <Position>
              <LatitudeDegrees>43.41274523176252841949462890625</LatitudeDegrees>
              <LongitudeDegrees>-4.724836237728595733642578125</LongitudeDegrees>
            </Position>
            <AltitudeMeters>85.8000030517578125</AltitudeMeters>
            <DistanceMeters>NAN</DistanceMeters>
          </Trackpoint>
          <Trackpoint>
            <Time>2022-07-15T16:47:58.000Z</Time>
            <Position>
              <LatitudeDegrees>43.41276400722563266754150390625</LatitudeDegrees>
              <LongitudeDegrees>-4.7250345535576343536376953125</LongitudeDegrees>
            </Position>
            <AltitudeMeters>83.8000030517578125</AltitudeMeters>
            <DistanceMeters>NAN</DistanceMeters>
          </Trackpoint>
          <Trackpoint>
            <Time>2022-07-15T16:48:00.000Z</Time>
            <Position>
              <LatitudeDegrees>43.4127773344516754150390625</LatitudeDegrees>
              <LongitudeDegrees>-4.7253198735415935516357421875</LongitudeDegrees>
            </Position>
            <AltitudeMeters>81.8000030517578125</AltitudeMeters>
            <DistanceMeters>NAN</DistanceMeters>
          </Trackpoint>
          <Trackpoint>
            <Time>2022-07-15T16:48:01.000Z</Time>
            <Position>
              <LatitudeDegrees>43.41276668943464756011962890625</LatitudeDegrees>
              <LongitudeDegrees>-4.72546077333390712738037109375</LongitudeDegrees>
            </Position>
            <AltitudeMeters>80</AltitudeMeters>
            <DistanceMeters>NAN</DistanceMeters>
          </Trackpoint>
          <Trackpoint>
            <Time>2022-07-15T16:48:02.000Z</Time>
            <Position>
              <LatitudeDegrees>43.4127563796937465667724609375</LatitudeDegrees>
              <LongitudeDegrees>-4.72558650188148021697998046875</LongitudeDegrees>
            </Position>
            <AltitudeMeters>78</AltitudeMeters>
            <DistanceMeters>NAN</DistanceMeters>
          </Trackpoint>
          <Trackpoint>
            <Time>2022-07-15T16:48:03.000Z</Time>
            <Position>
              <LatitudeDegrees>43.41276182793080806732177734375</LatitudeDegrees>
              <LongitudeDegrees>-4.7257081232964992523193359375</LongitudeDegrees>
            </Position>
            <AltitudeMeters>76.8000030517578125</AltitudeMeters>
            <DistanceMeters>NAN</DistanceMeters>
          </Trackpoint>
          <Trackpoint>
            <Time>2022-07-15T16:48:04.000Z</Time>
            <Position>
              <LatitudeDegrees>43.412792421877384185791015625</LatitudeDegrees>
              <LongitudeDegrees>-4.72582924179732799530029296875</LongitudeDegrees>
            </Position>
            <AltitudeMeters>75.8000030517578125</AltitudeMeters>
            <DistanceMeters>NAN</DistanceMeters>
          </Trackpoint>
          <Trackpoint>
            <Time>2022-07-15T16:48:06.000Z</Time>
            <Position>
              <LatitudeDegrees>43.41289241798222064971923828125</LatitudeDegrees>
              <LongitudeDegrees>-4.72605429589748382568359375</LongitudeDegrees>
            </Position>
            <AltitudeMeters>74.8000030517578125</AltitudeMeters>
            <DistanceMeters>NAN</DistanceMeters>
          </Trackpoint>
          <Trackpoint>
            <Time>2022-07-15T16:48:08.000Z</Time>
            <Position>
              <LatitudeDegrees>43.4129950962960720062255859375</LatitudeDegrees>
              <LongitudeDegrees>-4.72630080766975879669189453125</LongitudeDegrees>
            </Position>
            <AltitudeMeters>73.40000152587890625</AltitudeMeters>
            <DistanceMeters>NAN</DistanceMeters>
          </Trackpoint>
          <Trackpoint>
            <Time>2022-07-15T16:48:10.000Z</Time>
            <Position>
              <LatitudeDegrees>43.41308989562094211578369140625</LatitudeDegrees>
              <LongitudeDegrees>-4.72657405771315097808837890625</LongitudeDegrees>
            </Position>
            <AltitudeMeters>71.59999847412109375</AltitudeMeters>
            <DistanceMeters>NAN</DistanceMeters>
          </Trackpoint>
          <Trackpoint>
            <Time>2022-07-15T16:48:12.000Z</Time>
            <Position>
              <LatitudeDegrees>43.41318561695516109466552734375</LatitudeDegrees>
              <LongitudeDegrees>-4.7268936596810817718505859375</LongitudeDegrees>
            </Position>
            <AltitudeMeters>69.40000152587890625</AltitudeMeters>
            <DistanceMeters>NAN</DistanceMeters>
          </Trackpoint>
          <Trackpoint>
            <Time>2022-07-15T16:48:14.000Z</Time>
            <Position>
              <LatitudeDegrees>43.4132398478686809539794921875</LatitudeDegrees>
              <LongitudeDegrees>-4.72717185504734516143798828125</LongitudeDegrees>
            </Position>
            <AltitudeMeters>68</AltitudeMeters>
            <DistanceMeters>NAN</DistanceMeters>
          </Trackpoint>
          <Trackpoint>
            <Time>2022-07-15T16:48:15.000Z</Time>
            <Position>
              <LatitudeDegrees>43.4132519178092479705810546875</LatitudeDegrees>
              <LongitudeDegrees>-4.72736212424933910369873046875</LongitudeDegrees>
            </Position>
            <AltitudeMeters>66.8000030517578125</AltitudeMeters>
            <DistanceMeters>NAN</DistanceMeters>
          </Trackpoint>
          <Trackpoint>
            <Time>2022-07-15T16:48:17.000Z</Time>
            <Position>
              <LatitudeDegrees>43.41323054395616054534912109375</LatitudeDegrees>
              <LongitudeDegrees>-4.72763009369373321533203125</LongitudeDegrees>
            </Position>
            <AltitudeMeters>65.1999969482421875</AltitudeMeters>
            <DistanceMeters>NAN</DistanceMeters>
          </Trackpoint>
          <Trackpoint>
            <Time>2022-07-15T16:48:18.000Z</Time>
            <Position>
              <LatitudeDegrees>43.41321118175983428955078125</LatitudeDegrees>
              <LongitudeDegrees>-4.72776596434414386749267578125</LongitudeDegrees>
            </Position>
            <AltitudeMeters>64.1999969482421875</AltitudeMeters>
            <DistanceMeters>NAN</DistanceMeters>
          </Trackpoint>
          <Trackpoint>
            <Time>2022-07-15T16:48:19.000Z</Time>
            <Position>
              <LatitudeDegrees>43.413189388811588287353515625</LatitudeDegrees>
              <LongitudeDegrees>-4.72789336927235126495361328125</LongitudeDegrees>
            </Position>
            <AltitudeMeters>63.40000152587890625</AltitudeMeters>
            <DistanceMeters>NAN</DistanceMeters>
          </Trackpoint>
          <Trackpoint>
            <Time>2022-07-15T16:48:20.000Z</Time>
            <Position>
              <LatitudeDegrees>43.413165919482707977294921875</LatitudeDegrees>
              <LongitudeDegrees>-4.7280148230493068695068359375</LongitudeDegrees>
            </Position>
            <AltitudeMeters>63</AltitudeMeters>
            <DistanceMeters>NAN</DistanceMeters>
          </Trackpoint>
          <Trackpoint>
            <Time>2022-07-15T16:48:21.000Z</Time>
            <Position>
              <LatitudeDegrees>43.41313934884965419769287109375</LatitudeDegrees>
              <LongitudeDegrees>-4.72813225351274013519287109375</LongitudeDegrees>
            </Position>
            <AltitudeMeters>62.59999847412109375</AltitudeMeters>
            <DistanceMeters>NAN</DistanceMeters>
          </Trackpoint>
          <Trackpoint>
            <Time>2022-07-15T16:48:23.000Z</Time>
            <Position>
              <LatitudeDegrees>43.4130584634840488433837890625</LatitudeDegrees>
              <LongitudeDegrees>-4.72833828069269657135009765625</LongitudeDegrees>
            </Position>
            <AltitudeMeters>62</AltitudeMeters>
            <DistanceMeters>NAN</DistanceMeters>
          </Trackpoint>
          <Trackpoint>
            <Time>2022-07-15T16:48:24.000Z</Time>
            <Position>
              <LatitudeDegrees>43.41300389729440212249755859375</LatitudeDegrees>
              <LongitudeDegrees>-4.7284345887601375579833984375</LongitudeDegrees>
            </Position>
            <AltitudeMeters>61.799999237060546875</AltitudeMeters>
            <DistanceMeters>NAN</DistanceMeters>
          </Trackpoint>
          <Trackpoint>
            <Time>2022-07-15T16:48:29.000Z</Time>
            <Position>
              <LatitudeDegrees>43.41272477991878986358642578125</LatitudeDegrees>
              <LongitudeDegrees>-4.7289073280990123748779296875</LongitudeDegrees>
            </Position>
            <AltitudeMeters>60.200000762939453125</AltitudeMeters>
            <DistanceMeters>NAN</DistanceMeters>
          </Trackpoint>
          <Trackpoint>
            <Time>2022-07-15T16:48:30.000Z</Time>
            <Position>
              <LatitudeDegrees>43.4126708842813968658447265625</LatitudeDegrees>
              <LongitudeDegrees>-4.72900816239416599273681640625</LongitudeDegrees>
            </Position>
            <AltitudeMeters>60</AltitudeMeters>
            <DistanceMeters>NAN</DistanceMeters>
          </Trackpoint>
          <Trackpoint>
            <Time>2022-07-15T16:48:31.000Z</Time>
            <Position>
              <LatitudeDegrees>43.41262201778590679168701171875</LatitudeDegrees>
              <LongitudeDegrees>-4.72911763004958629608154296875</LongitudeDegrees>
            </Position>
            <AltitudeMeters>59.799999237060546875</AltitudeMeters>
            <DistanceMeters>NAN</DistanceMeters>
          </Trackpoint>
          <Trackpoint>
            <Time>2022-07-15T16:48:33.000Z</Time>
            <Position>
              <LatitudeDegrees>43.4125520288944244384765625</LatitudeDegrees>
              <LongitudeDegrees>-4.7293465398252010345458984375</LongitudeDegrees>
            </Position>
            <AltitudeMeters>59.40000152587890625</AltitudeMeters>
            <DistanceMeters>NAN</DistanceMeters>
          </Trackpoint>
          <Trackpoint>
            <Time>2022-07-15T16:48:34.000Z</Time>
            <Position>
              <LatitudeDegrees>43.41252193786203861236572265625</LatitudeDegrees>
              <LongitudeDegrees>-4.72946313209831714630126953125</LongitudeDegrees>
            </Position>
            <AltitudeMeters>59.200000762939453125</AltitudeMeters>
            <DistanceMeters>NAN</DistanceMeters>
          </Trackpoint>
          <Trackpoint>
            <Time>2022-07-15T16:48:35.000Z</Time>
            <Position>
              <LatitudeDegrees>43.41246443800628185272216796875</LatitudeDegrees>
              <LongitudeDegrees>-4.729568995535373687744140625</LongitudeDegrees>
            </Position>
            <AltitudeMeters>59.200000762939453125</AltitudeMeters>
            <DistanceMeters>NAN</DistanceMeters>
          </Trackpoint>
          <Trackpoint>
            <Time>2022-07-15T16:48:38.000Z</Time>
            <Position>
              <LatitudeDegrees>43.4123926050961017608642578125</LatitudeDegrees>
              <LongitudeDegrees>-4.7298715822398662567138671875</LongitudeDegrees>
            </Position>
            <AltitudeMeters>59</AltitudeMeters>
            <DistanceMeters>NAN</DistanceMeters>
          </Trackpoint>
          <Trackpoint>
            <Time>2022-07-15T16:48:42.000Z</Time>
            <Position>
              <LatitudeDegrees>43.41233703307807445526123046875</LatitudeDegrees>
              <LongitudeDegrees>-4.73020291887223720550537109375</LongitudeDegrees>
            </Position>
            <AltitudeMeters>58.40000152587890625</AltitudeMeters>
            <DistanceMeters>NAN</DistanceMeters>
          </Trackpoint>
          <Trackpoint>
            <Time>2022-07-15T16:48:43.000Z</Time>
            <Position>
              <LatitudeDegrees>43.412324376404285430908203125</LatitudeDegrees>
              <LongitudeDegrees>-4.730261005461215972900390625</LongitudeDegrees>
            </Position>
            <AltitudeMeters>58.200000762939453125</AltitudeMeters>
            <DistanceMeters>NAN</DistanceMeters>
          </Trackpoint>
          <Trackpoint>
            <Time>2022-07-15T16:48:46.000Z</Time>
            <Position>
              <LatitudeDegrees>43.41228925622999668121337890625</LatitudeDegrees>
              <LongitudeDegrees>-4.73047633655369281768798828125</LongitudeDegrees>
            </Position>
            <AltitudeMeters>57.799999237060546875</AltitudeMeters>
            <DistanceMeters>NAN</DistanceMeters>
          </Trackpoint>
          <Trackpoint>
            <Time>2022-07-15T16:48:48.000Z</Time>
            <Position>
              <LatitudeDegrees>43.41228640638291835784912109375</LatitudeDegrees>
              <LongitudeDegrees>-4.73059485666453838348388671875</LongitudeDegrees>
            </Position>
            <AltitudeMeters>57.59999847412109375</AltitudeMeters>
            <DistanceMeters>NAN</DistanceMeters>
          </Trackpoint>
          <Trackpoint>
            <Time>2022-07-15T16:48:52.000Z</Time>
            <Position>
              <LatitudeDegrees>43.41230099089443683624267578125</LatitudeDegrees>
              <LongitudeDegrees>-4.730895347893238067626953125</LongitudeDegrees>
            </Position>
            <AltitudeMeters>57.200000762939453125</AltitudeMeters>
            <DistanceMeters>NAN</DistanceMeters>
          </Trackpoint>
          <Trackpoint>
            <Time>2022-07-15T16:48:53.000Z</Time>
            <Position>
              <LatitudeDegrees>43.41230417601764202117919921875</LatitudeDegrees>
              <LongitudeDegrees>-4.73097019828855991363525390625</LongitudeDegrees>
            </Position>
            <AltitudeMeters>57</AltitudeMeters>
            <DistanceMeters>NAN</DistanceMeters>
          </Trackpoint>
          <Trackpoint>
            <Time>2022-07-15T16:48:54.000Z</Time>
            <Position>
              <LatitudeDegrees>43.41229914687573909759521484375</LatitudeDegrees>
              <LongitudeDegrees>-4.73104194737970829010009765625</LongitudeDegrees>
            </Position>
            <AltitudeMeters>56.799999237060546875</AltitudeMeters>
            <DistanceMeters>NAN</DistanceMeters>
          </Trackpoint>
          <Trackpoint>
            <Time>2022-07-15T16:48:57.000Z</Time>
            <Position>
              <LatitudeDegrees>43.41222756542265415191650390625</LatitudeDegrees>
              <LongitudeDegrees>-4.731241352856159210205078125</LongitudeDegrees>
            </Position>
            <AltitudeMeters>56.59999847412109375</AltitudeMeters>
            <DistanceMeters>NAN</DistanceMeters>
          </Trackpoint>
          <Trackpoint>
            <Time>2022-07-15T16:48:58.000Z</Time>
            <Position>
              <LatitudeDegrees>43.41220677830278873443603515625</LatitudeDegrees>
              <LongitudeDegrees>-4.73130379803478717803955078125</LongitudeDegrees>
            </Position>
            <AltitudeMeters>56.40000152587890625</AltitudeMeters>
            <DistanceMeters>NAN</DistanceMeters>
          </Trackpoint>
          <Trackpoint>
            <Time>2022-07-15T16:48:59.000Z</Time>
            <Position>
              <LatitudeDegrees>43.41220258735120296478271484375</LatitudeDegrees>
              <LongitudeDegrees>-4.73137521184980869293212890625</LongitudeDegrees>
            </Position>
            <AltitudeMeters>56.200000762939453125</AltitudeMeters>
            <DistanceMeters>NAN</DistanceMeters>
          </Trackpoint>
          <Trackpoint>
            <Time>2022-07-15T16:49:01.000Z</Time>
            <Position>
              <LatitudeDegrees>43.4121864102780818939208984375</LatitudeDegrees>
              <LongitudeDegrees>-4.73151636309921741485595703125</LongitudeDegrees>
            </Position>
            <AltitudeMeters>56</AltitudeMeters>
            <DistanceMeters>NAN</DistanceMeters>
          </Trackpoint>
          <Trackpoint>
            <Time>2022-07-15T16:49:04.000Z</Time>
            <Position>
              <LatitudeDegrees>43.4121344424784183502197265625</LatitudeDegrees>
              <LongitudeDegrees>-4.731740243732929229736328125</LongitudeDegrees>
            </Position>
            <AltitudeMeters>55.59999847412109375</AltitudeMeters>
            <DistanceMeters>NAN</DistanceMeters>
          </Trackpoint>
          <Trackpoint>
            <Time>2022-07-15T16:49:08.000Z</Time>
            <Position>
              <LatitudeDegrees>43.41206612996757030487060546875</LatitudeDegrees>
              <LongitudeDegrees>-4.73202950321137905120849609375</LongitudeDegrees>
            </Position>
            <AltitudeMeters>54.799999237060546875</AltitudeMeters>
            <DistanceMeters>NAN</DistanceMeters>
          </Trackpoint>
          <Trackpoint>
            <Time>2022-07-15T16:49:10.000Z</Time>
            <Position>
              <LatitudeDegrees>43.41208490543067455291748046875</LatitudeDegrees>
              <LongitudeDegrees>-4.7321826405823230743408203125</LongitudeDegrees>
            </Position>
            <AltitudeMeters>54.59999847412109375</AltitudeMeters>
            <DistanceMeters>NAN</DistanceMeters>
          </Trackpoint>
          <Trackpoint>
            <Time>2022-07-15T16:49:14.000Z</Time>
            <Position>
              <LatitudeDegrees>43.412186242640018463134765625</LatitudeDegrees>
              <LongitudeDegrees>-4.732432924211025238037109375</LongitudeDegrees>
            </Position>
            <AltitudeMeters>54.200000762939453125</AltitudeMeters>
            <DistanceMeters>NAN</DistanceMeters>
          </Trackpoint>
          <Trackpoint>
            <Time>2022-07-15T16:49:15.000Z</Time>
            <Position>
              <LatitudeDegrees>43.4122033417224884033203125</LatitudeDegrees>
              <LongitudeDegrees>-4.732501991093158721923828125</LongitudeDegrees>
            </Position>
            <AltitudeMeters>54</AltitudeMeters>
            <DistanceMeters>NAN</DistanceMeters>
          </Trackpoint>
          <Trackpoint>
            <Time>2022-07-15T16:49:16.000Z</Time>
            <Position>
              <LatitudeDegrees>43.412213064730167388916015625</LatitudeDegrees>
              <LongitudeDegrees>-4.7325755842030048370361328125</LongitudeDegrees>
            </Position>
            <AltitudeMeters>53.799999237060546875</AltitudeMeters>
            <DistanceMeters>NAN</DistanceMeters>
          </Trackpoint>
          <Trackpoint>
            <Time>2022-07-15T16:49:18.000Z</Time>
            <Position>
              <LatitudeDegrees>43.41221516020596027374267578125</LatitudeDegrees>
              <LongitudeDegrees>-4.73272201605141162872314453125</LongitudeDegrees>
            </Position>
            <AltitudeMeters>53.59999847412109375</AltitudeMeters>
            <DistanceMeters>NAN</DistanceMeters>
          </Trackpoint>
          <Trackpoint>
            <Time>2022-07-15T16:49:21.000Z</Time>
            <Position>
              <LatitudeDegrees>43.4121797047555446624755859375</LatitudeDegrees>
              <LongitudeDegrees>-4.7329296357929706573486328125</LongitudeDegrees>
            </Position>
            <AltitudeMeters>53</AltitudeMeters>
            <DistanceMeters>NAN</DistanceMeters>
          </Trackpoint>
          <Trackpoint>
            <Time>2022-07-15T16:49:23.000Z</Time>
            <Position>
              <LatitudeDegrees>43.412129580974578857421875</LatitudeDegrees>
              <LongitudeDegrees>-4.73306198604404926300048828125</LongitudeDegrees>
            </Position>
            <AltitudeMeters>52.799999237060546875</AltitudeMeters>
            <DistanceMeters>NAN</DistanceMeters>
          </Trackpoint>
          <Trackpoint>
            <Time>2022-07-15T16:49:25.000Z</Time>
            <Position>
              <LatitudeDegrees>43.41208859346807003021240234375</LatitudeDegrees>
              <LongitudeDegrees>-4.73319240845739841461181640625</LongitudeDegrees>
            </Position>
            <AltitudeMeters>52.799999237060546875</AltitudeMeters>
            <DistanceMeters>NAN</DistanceMeters>
          </Trackpoint>
          <Trackpoint>
            <Time>2022-07-15T16:49:29.000Z</Time>
            <Position>
              <LatitudeDegrees>43.41197744943201541900634765625</LatitudeDegrees>
              <LongitudeDegrees>-4.7334503196179866790771484375</LongitudeDegrees>
            </Position>
            <AltitudeMeters>52.200000762939453125</AltitudeMeters>
            <DistanceMeters>NAN</DistanceMeters>
          </Trackpoint>
          <Trackpoint>
            <Time>2022-07-15T16:49:31.000Z</Time>
            <Position>
              <LatitudeDegrees>43.41193252243101596832275390625</LatitudeDegrees>
              <LongitudeDegrees>-4.73362877033650875091552734375</LongitudeDegrees>
            </Position>
            <AltitudeMeters>51.799999237060546875</AltitudeMeters>
            <DistanceMeters>NAN</DistanceMeters>
          </Trackpoint>
          <Trackpoint>
            <Time>2022-07-15T16:49:32.000Z</Time>
            <Position>
              <LatitudeDegrees>43.4119218774139881134033203125</LatitudeDegrees>
              <LongitudeDegrees>-4.73369783721864223480224609375</LongitudeDegrees>
            </Position>
            <AltitudeMeters>51.59999847412109375</AltitudeMeters>
            <DistanceMeters>NAN</DistanceMeters>
          </Trackpoint>
          <Trackpoint>
            <Time>2022-07-15T16:49:33.000Z</Time>
            <Position>
              <LatitudeDegrees>43.411916680634021759033203125</LatitudeDegrees>
              <LongitudeDegrees>-4.7337866015732288360595703125</LongitudeDegrees>
            </Position>
            <AltitudeMeters>51.40000152587890625</AltitudeMeters>
            <DistanceMeters>NAN</DistanceMeters>
          </Trackpoint>
          <Trackpoint>
            <Time>2022-07-15T16:49:36.000Z</Time>
            <Position>
              <LatitudeDegrees>43.4119369648396968841552734375</LatitudeDegrees>
              <LongitudeDegrees>-4.73405088298022747039794921875</LongitudeDegrees>
            </Position>
            <AltitudeMeters>50.40000152587890625</AltitudeMeters>
            <DistanceMeters>NAN</DistanceMeters>
          </Trackpoint>
          <Trackpoint>
            <Time>2022-07-15T16:49:37.000Z</Time>
            <Position>
              <LatitudeDegrees>43.4119275771081447601318359375</LatitudeDegrees>
              <LongitudeDegrees>-4.73414207808673381805419921875</LongitudeDegrees>
            </Position>
            <AltitudeMeters>50</AltitudeMeters>
            <DistanceMeters>NAN</DistanceMeters>
          </Trackpoint>
          <Trackpoint>
            <Time>2022-07-15T16:49:41.000Z</Time>
            <Position>
              <LatitudeDegrees>43.41187435202300548553466796875</LatitudeDegrees>
              <LongitudeDegrees>-4.73450585268437862396240234375</LongitudeDegrees>
            </Position>
            <AltitudeMeters>49.59999847412109375</AltitudeMeters>
            <DistanceMeters>NAN</DistanceMeters>
          </Trackpoint>
          <Trackpoint>
            <Time>2022-07-15T16:49:42.000Z</Time>
            <Position>
              <LatitudeDegrees>43.4118903614580631256103515625</LatitudeDegrees>
              <LongitudeDegrees>-4.73458045162260532379150390625</LongitudeDegrees>
            </Position>
            <AltitudeMeters>49.59999847412109375</AltitudeMeters>
            <DistanceMeters>NAN</DistanceMeters>
          </Trackpoint>
          <Trackpoint>
            <Time>2022-07-15T16:49:44.000Z</Time>
            <Position>
              <LatitudeDegrees>43.4119228832423686981201171875</LatitudeDegrees>
              <LongitudeDegrees>-4.73476485349237918853759765625</LongitudeDegrees>
            </Position>
            <AltitudeMeters>48.799999237060546875</AltitudeMeters>
            <DistanceMeters>NAN</DistanceMeters>
          </Trackpoint>
          <Trackpoint>
            <Time>2022-07-15T16:49:45.000Z</Time>
            <Position>
              <LatitudeDegrees>43.41193671338260173797607421875</LatitudeDegrees>
              <LongitudeDegrees>-4.734858982264995574951171875</LongitudeDegrees>
            </Position>
            <AltitudeMeters>48.40000152587890625</AltitudeMeters>
            <DistanceMeters>NAN</DistanceMeters>
          </Trackpoint>
          <Trackpoint>
            <Time>2022-07-15T16:49:47.000Z</Time>
            <Position>
              <LatitudeDegrees>43.41191894374787807464599609375</LatitudeDegrees>
              <LongitudeDegrees>-4.7350251115858554840087890625</LongitudeDegrees>
            </Position>
            <AltitudeMeters>47.200000762939453125</AltitudeMeters>
            <DistanceMeters>NAN</DistanceMeters>
          </Trackpoint>
          <Trackpoint>
            <Time>2022-07-15T16:49:49.000Z</Time>
            <Position>
              <LatitudeDegrees>43.4118813090026378631591796875</LatitudeDegrees>
              <LongitudeDegrees>-4.73517891950905323028564453125</LongitudeDegrees>
            </Position>
            <AltitudeMeters>45.799999237060546875</AltitudeMeters>
            <DistanceMeters>NAN</DistanceMeters>
          </Trackpoint>
          <Trackpoint>
            <Time>2022-07-15T16:49:53.000Z</Time>
            <Position>
              <LatitudeDegrees>43.4118273295462131500244140625</LatitudeDegrees>
              <LongitudeDegrees>-4.735476560890674591064453125</LongitudeDegrees>
            </Position>
            <AltitudeMeters>45</AltitudeMeters>
            <DistanceMeters>NAN</DistanceMeters>
          </Trackpoint>
          <Trackpoint>
            <Time>2022-07-15T16:49:56.000Z</Time>
            <Position>
              <LatitudeDegrees>43.411749042570590972900390625</LatitudeDegrees>
              <LongitudeDegrees>-4.73565794527530670166015625</LongitudeDegrees>
            </Position>
            <AltitudeMeters>44.799999237060546875</AltitudeMeters>
            <DistanceMeters>NAN</DistanceMeters>
          </Trackpoint>
          <Trackpoint>
            <Time>2022-07-15T16:49:57.000Z</Time>
            <Position>
              <LatitudeDegrees>43.41172062791883945465087890625</LatitudeDegrees>
              <LongitudeDegrees>-4.73571167327463626861572265625</LongitudeDegrees>
            </Position>
            <AltitudeMeters>44.59999847412109375</AltitudeMeters>
            <DistanceMeters>NAN</DistanceMeters>
          </Trackpoint>
          <Trackpoint>
            <Time>2022-07-15T16:49:58.000Z</Time>
            <Position>
              <LatitudeDegrees>43.41168257407844066619873046875</LatitudeDegrees>
              <LongitudeDegrees>-4.73576246760785579681396484375</LongitudeDegrees>
            </Position>
            <AltitudeMeters>44.59999847412109375</AltitudeMeters>
            <DistanceMeters>NAN</DistanceMeters>
          </Trackpoint>
          <Trackpoint>
            <Time>2022-07-15T16:50:02.000Z</Time>
            <Position>
              <LatitudeDegrees>43.411529771983623504638671875</LatitudeDegrees>
              <LongitudeDegrees>-4.735914766788482666015625</LongitudeDegrees>
            </Position>
            <AltitudeMeters>45.200000762939453125</AltitudeMeters>
            <DistanceMeters>NAN</DistanceMeters>
          </Trackpoint>
          <Trackpoint>
            <Time>2022-07-15T16:50:03.000Z</Time>
            <Position>
              <LatitudeDegrees>43.41150387190282344818115234375</LatitudeDegrees>
              <LongitudeDegrees>-4.73595692776143550872802734375</LongitudeDegrees>
            </Position>
            <AltitudeMeters>45.40000152587890625</AltitudeMeters>
            <DistanceMeters>NAN</DistanceMeters>
          </Trackpoint>
          <Trackpoint>
            <Time>2022-07-15T16:50:08.000Z</Time>
            <Position>
              <LatitudeDegrees>43.41142860241234302520751953125</LatitudeDegrees>
              <LongitudeDegrees>-4.7361499629914760589599609375</LongitudeDegrees>
            </Position>
            <AltitudeMeters>45.799999237060546875</AltitudeMeters>
            <DistanceMeters>NAN</DistanceMeters>
          </Trackpoint>
          <Trackpoint>
            <Time>2022-07-15T16:50:13.000Z</Time>
            <Position>
              <LatitudeDegrees>43.41139172203838825225830078125</LatitudeDegrees>
              <LongitudeDegrees>-4.736333526670932769775390625</LongitudeDegrees>
            </Position>
            <AltitudeMeters>46.59999847412109375</AltitudeMeters>
            <DistanceMeters>NAN</DistanceMeters>
          </Trackpoint>
          <Trackpoint>
            <Time>2022-07-15T16:50:14.000Z</Time>
            <Position>
              <LatitudeDegrees>43.4113757126033306121826171875</LatitudeDegrees>
              <LongitudeDegrees>-4.7363720834255218505859375</LongitudeDegrees>
            </Position>
            <AltitudeMeters>46.799999237060546875</AltitudeMeters>
            <DistanceMeters>NAN</DistanceMeters>
          </Trackpoint>
          <Trackpoint>
            <Time>2022-07-15T16:50:18.000Z</Time>
            <Position>
              <LatitudeDegrees>43.411291725933551788330078125</LatitudeDegrees>
              <LongitudeDegrees>-4.736585319042205810546875</LongitudeDegrees>
            </Position>
            <AltitudeMeters>46.799999237060546875</AltitudeMeters>
            <DistanceMeters>NAN</DistanceMeters>
          </Trackpoint>
          <Trackpoint>
            <Time>2022-07-15T16:50:20.000Z</Time>
            <Position>
              <LatitudeDegrees>43.4112342260777950286865234375</LatitudeDegrees>
              <LongitudeDegrees>-4.7367449104785919189453125</LongitudeDegrees>
            </Position>
            <AltitudeMeters>46.40000152587890625</AltitudeMeters>
            <DistanceMeters>NAN</DistanceMeters>
          </Trackpoint>
          <Trackpoint>
            <Time>2022-07-15T16:50:22.000Z</Time>
            <Position>
              <LatitudeDegrees>43.4112107567489147186279296875</LatitudeDegrees>
              <LongitudeDegrees>-4.73685714416205883026123046875</LongitudeDegrees>
            </Position>
            <AltitudeMeters>46</AltitudeMeters>
            <DistanceMeters>NAN</DistanceMeters>
          </Trackpoint>
          <Trackpoint>
            <Time>2022-07-15T16:50:23.000Z</Time>
            <Position>
              <LatitudeDegrees>43.41120581142604351043701171875</LatitudeDegrees>
              <LongitudeDegrees>-4.73690911196172237396240234375</LongitudeDegrees>
            </Position>
            <AltitudeMeters>45.59999847412109375</AltitudeMeters>
            <DistanceMeters>NAN</DistanceMeters>
          </Trackpoint>
          <Trackpoint>
            <Time>2022-07-15T16:50:24.000Z</Time>
            <Position>
              <LatitudeDegrees>43.41120664961636066436767578125</LatitudeDegrees>
              <LongitudeDegrees>-4.73696091212332248687744140625</LongitudeDegrees>
            </Position>
            <AltitudeMeters>45.200000762939453125</AltitudeMeters>
            <DistanceMeters>NAN</DistanceMeters>
          </Trackpoint>
          <Trackpoint>
            <Time>2022-07-15T16:50:26.000Z</Time>
            <Position>
              <LatitudeDegrees>43.41121067292988300323486328125</LatitudeDegrees>
              <LongitudeDegrees>-4.7370676137506961822509765625</LongitudeDegrees>
            </Position>
            <AltitudeMeters>44.799999237060546875</AltitudeMeters>
            <DistanceMeters>NAN</DistanceMeters>
          </Trackpoint>
          <Trackpoint>
            <Time>2022-07-15T16:50:29.000Z</Time>
            <Position>
              <LatitudeDegrees>43.41121402569115161895751953125</LatitudeDegrees>
              <LongitudeDegrees>-4.7372479923069477081298828125</LongitudeDegrees>
            </Position>
            <AltitudeMeters>44.59999847412109375</AltitudeMeters>
            <DistanceMeters>NAN</DistanceMeters>
          </Trackpoint>
          <Trackpoint>
            <Time>2022-07-15T16:50:31.000Z</Time>
            <Position>
              <LatitudeDegrees>43.41121838428080081939697265625</LatitudeDegrees>
              <LongitudeDegrees>-4.7373720444738864898681640625</LongitudeDegrees>
            </Position>
            <AltitudeMeters>44.200000762939453125</AltitudeMeters>
            <DistanceMeters>NAN</DistanceMeters>
          </Trackpoint>
          <Trackpoint>
            <Time>2022-07-15T16:50:32.000Z</Time>
            <Position>
              <LatitudeDegrees>43.4112104214727878570556640625</LatitudeDegrees>
              <LongitudeDegrees>-4.73742811940610408782958984375</LongitudeDegrees>
            </Position>
            <AltitudeMeters>44.200000762939453125</AltitudeMeters>
            <DistanceMeters>NAN</DistanceMeters>
          </Trackpoint>
          <Trackpoint>
            <Time>2022-07-15T16:50:33.000Z</Time>
            <Position>
              <LatitudeDegrees>43.41120396740734577178955078125</LatitudeDegrees>
              <LongitudeDegrees>-4.73748243413865566253662109375</LongitudeDegrees>
            </Position>
            <AltitudeMeters>44</AltitudeMeters>
            <DistanceMeters>NAN</DistanceMeters>
          </Trackpoint>
          <Trackpoint>
            <Time>2022-07-15T16:50:37.000Z</Time>
            <Position>
              <LatitudeDegrees>43.4112305380403995513916015625</LatitudeDegrees>
              <LongitudeDegrees>-4.73773472942411899566650390625</LongitudeDegrees>
            </Position>
            <AltitudeMeters>43.40000152587890625</AltitudeMeters>
            <DistanceMeters>NAN</DistanceMeters>
          </Trackpoint>
          <Trackpoint>
            <Time>2022-07-15T16:50:42.000Z</Time>
            <Position>
              <LatitudeDegrees>43.41125425882637500762939453125</LatitudeDegrees>
              <LongitudeDegrees>-4.73808375187218189239501953125</LongitudeDegrees>
            </Position>
            <AltitudeMeters>43.40000152587890625</AltitudeMeters>
            <DistanceMeters>NAN</DistanceMeters>
          </Trackpoint>
          <Trackpoint>
            <Time>2022-07-15T16:50:46.000Z</Time>
            <Position>
              <LatitudeDegrees>43.41132449917495250701904296875</LatitudeDegrees>
              <LongitudeDegrees>-4.73832732997834682464599609375</LongitudeDegrees>
            </Position>
            <AltitudeMeters>43.40000152587890625</AltitudeMeters>
            <DistanceMeters>NAN</DistanceMeters>
          </Trackpoint>
          <Trackpoint>
            <Time>2022-07-15T16:50:54.000Z</Time>
            <Position>
              <LatitudeDegrees>43.41142860241234302520751953125</LatitudeDegrees>
              <LongitudeDegrees>-4.738731086254119873046875</LongitudeDegrees>
            </Position>
            <AltitudeMeters>44</AltitudeMeters>
            <DistanceMeters>NAN</DistanceMeters>
          </Trackpoint>
          <Trackpoint>
            <Time>2022-07-15T16:50:59.000Z</Time>
            <Position>
              <LatitudeDegrees>43.41151510365307331085205078125</LatitudeDegrees>
              <LongitudeDegrees>-4.7388673759996891021728515625</LongitudeDegrees>
            </Position>
            <AltitudeMeters>44.59999847412109375</AltitudeMeters>
            <DistanceMeters>NAN</DistanceMeters>
          </Trackpoint>
          <Trackpoint>
            <Time>2022-07-15T16:51:00.000Z</Time>
            <Position>
              <LatitudeDegrees>43.4115329571068286895751953125</LatitudeDegrees>
              <LongitudeDegrees>-4.738884307444095611572265625</LongitudeDegrees>
            </Position>
            <AltitudeMeters>44.799999237060546875</AltitudeMeters>
            <DistanceMeters>NAN</DistanceMeters>
          </Trackpoint>
          <Trackpoint>
            <Time>2022-07-15T16:51:03.000Z</Time>
            <Position>
              <LatitudeDegrees>43.4115889482200145721435546875</LatitudeDegrees>
              <LongitudeDegrees>-4.73891808651387691497802734375</LongitudeDegrees>
            </Position>
            <AltitudeMeters>45.59999847412109375</AltitudeMeters>
            <DistanceMeters>NAN</DistanceMeters>
          </Trackpoint>
          <Trackpoint>
            <Time>2022-07-15T16:51:07.000Z</Time>
            <Position>
              <LatitudeDegrees>43.41166581027209758758544921875</LatitudeDegrees>
              <LongitudeDegrees>-4.7389404661953449249267578125</LongitudeDegrees>
            </Position>
            <AltitudeMeters>46</AltitudeMeters>
            <DistanceMeters>NAN</DistanceMeters>
          </Trackpoint>
          <Trackpoint>
            <Time>2022-07-15T16:51:12.000Z</Time>
            <Position>
              <LatitudeDegrees>43.41176547110080718994140625</LatitudeDegrees>
              <LongitudeDegrees>-4.73897516727447509765625</LongitudeDegrees>
            </Position>
            <AltitudeMeters>46.799999237060546875</AltitudeMeters>
            <DistanceMeters>NAN</DistanceMeters>
          </Trackpoint>
          <Trackpoint>
            <Time>2022-07-15T16:51:19.000Z</Time>
            <Position>
              <LatitudeDegrees>43.41188751161098480224609375</LatitudeDegrees>
              <LongitudeDegrees>-4.73906074650585651397705078125</LongitudeDegrees>
            </Position>
            <AltitudeMeters>47.799999237060546875</AltitudeMeters>
            <DistanceMeters>NAN</DistanceMeters>
          </Trackpoint>
          <Trackpoint>
            <Time>2022-07-15T16:51:27.000Z</Time>
            <Position>
              <LatitudeDegrees>43.412029333412647247314453125</LatitudeDegrees>
              <LongitudeDegrees>-4.73921346478164196014404296875</LongitudeDegrees>
            </Position>
            <AltitudeMeters>47.799999237060546875</AltitudeMeters>
            <DistanceMeters>NAN</DistanceMeters>
          </Trackpoint>
          <Trackpoint>
            <Time>2022-07-15T16:51:32.000Z</Time>
            <Position>
              <LatitudeDegrees>43.41214768588542938232421875</LatitudeDegrees>
              <LongitudeDegrees>-4.73936215974390506744384765625</LongitudeDegrees>
            </Position>
            <AltitudeMeters>47.59999847412109375</AltitudeMeters>
            <DistanceMeters>NAN</DistanceMeters>
          </Trackpoint>
          <Trackpoint>
            <Time>2022-07-15T16:51:39.000Z</Time>
            <Position>
              <LatitudeDegrees>43.4122977219521999359130859375</LatitudeDegrees>
              <LongitudeDegrees>-4.7396696917712688446044921875</LongitudeDegrees>
            </Position>
            <AltitudeMeters>47.40000152587890625</AltitudeMeters>
            <DistanceMeters>NAN</DistanceMeters>
          </Trackpoint>
          <Trackpoint>
            <Time>2022-07-15T16:51:43.000Z</Time>
            <Position>
              <LatitudeDegrees>43.41235823929309844970703125</LatitudeDegrees>
              <LongitudeDegrees>-4.739874713122844696044921875</LongitudeDegrees>
            </Position>
            <AltitudeMeters>47.40000152587890625</AltitudeMeters>
            <DistanceMeters>NAN</DistanceMeters>
          </Trackpoint>
          <Trackpoint>
            <Time>2022-07-15T16:51:46.000Z</Time>
            <Position>
              <LatitudeDegrees>43.4123828820884227752685546875</LatitudeDegrees>
              <LongitudeDegrees>-4.7400566004216670989990234375</LongitudeDegrees>
            </Position>
            <AltitudeMeters>47.40000152587890625</AltitudeMeters>
            <DistanceMeters>NAN</DistanceMeters>
          </Trackpoint>
          <Trackpoint>
            <Time>2022-07-15T16:51:54.000Z</Time>
            <Position>
              <LatitudeDegrees>43.41238933615386486053466796875</LatitudeDegrees>
              <LongitudeDegrees>-4.740588180720806121826171875</LongitudeDegrees>
            </Position>
            <AltitudeMeters>46.799999237060546875</AltitudeMeters>
            <DistanceMeters>NAN</DistanceMeters>
          </Trackpoint>
          <Trackpoint>
            <Time>2022-07-15T16:51:59.000Z</Time>
            <Position>
              <LatitudeDegrees>43.412325046956539154052734375</LatitudeDegrees>
              <LongitudeDegrees>-4.74100367166101932525634765625</LongitudeDegrees>
            </Position>
            <AltitudeMeters>46.200000762939453125</AltitudeMeters>
            <DistanceMeters>NAN</DistanceMeters>
          </Trackpoint>
          <Trackpoint>
            <Time>2022-07-15T16:52:00.000Z</Time>
            <Position>
              <LatitudeDegrees>43.41230216436088085174560546875</LatitudeDegrees>
              <LongitudeDegrees>-4.741103835403919219970703125</LongitudeDegrees>
            </Position>
            <AltitudeMeters>45.799999237060546875</AltitudeMeters>
            <DistanceMeters>NAN</DistanceMeters>
          </Trackpoint>
          <Trackpoint>
            <Time>2022-07-15T16:52:03.000Z</Time>
            <Position>
              <LatitudeDegrees>43.4122450836002826690673828125</LatitudeDegrees>
              <LongitudeDegrees>-4.741445817053318023681640625</LongitudeDegrees>
            </Position>
            <AltitudeMeters>44.200000762939453125</AltitudeMeters>
            <DistanceMeters>NAN</DistanceMeters>
          </Trackpoint>
          <Trackpoint>
            <Time>2022-07-15T16:52:06.000Z</Time>
            <Position>
              <LatitudeDegrees>43.412240557372570037841796875</LatitudeDegrees>
              <LongitudeDegrees>-4.7418144531548023223876953125</LongitudeDegrees>
            </Position>
            <AltitudeMeters>43.200000762939453125</AltitudeMeters>
            <DistanceMeters>NAN</DistanceMeters>
          </Trackpoint>
          <Trackpoint>
            <Time>2022-07-15T16:52:08.000Z</Time>
            <Position>
              <LatitudeDegrees>43.4122574888169765472412109375</LatitudeDegrees>
              <LongitudeDegrees>-4.74206029437482357025146484375</LongitudeDegrees>
            </Position>
            <AltitudeMeters>42.59999847412109375</AltitudeMeters>
            <DistanceMeters>NAN</DistanceMeters>
          </Trackpoint>
          <Trackpoint>
            <Time>2022-07-15T16:52:10.000Z</Time>
            <Position>
              <LatitudeDegrees>43.41227752156555652618408203125</LatitudeDegrees>
              <LongitudeDegrees>-4.7423109970986843109130859375</LongitudeDegrees>
            </Position>
            <AltitudeMeters>41.799999237060546875</AltitudeMeters>
            <DistanceMeters>NAN</DistanceMeters>
          </Trackpoint>
          <Trackpoint>
            <Time>2022-07-15T16:52:14.000Z</Time>
            <Position>
              <LatitudeDegrees>43.41232781298458576202392578125</LatitudeDegrees>
              <LongitudeDegrees>-4.742843247950077056884765625</LongitudeDegrees>
            </Position>
            <AltitudeMeters>40.59999847412109375</AltitudeMeters>
            <DistanceMeters>NAN</DistanceMeters>
          </Trackpoint>
          <Trackpoint>
            <Time>2022-07-15T16:52:15.000Z</Time>
            <Position>
              <LatitudeDegrees>43.4123443253338336944580078125</LatitudeDegrees>
              <LongitudeDegrees>-4.7429775260388851165771484375</LongitudeDegrees>
            </Position>
            <AltitudeMeters>40.200000762939453125</AltitudeMeters>
            <DistanceMeters>NAN</DistanceMeters>
          </Trackpoint>
          <Trackpoint>
            <Time>2022-07-15T16:52:16.000Z</Time>
            <Position>
              <LatitudeDegrees>43.412371985614299774169921875</LatitudeDegrees>
              <LongitudeDegrees>-4.74310702644288539886474609375</LongitudeDegrees>
            </Position>
            <AltitudeMeters>39.799999237060546875</AltitudeMeters>
            <DistanceMeters>NAN</DistanceMeters>
          </Trackpoint>
          <Trackpoint>
            <Time>2022-07-15T16:52:17.000Z</Time>
            <Position>
              <LatitudeDegrees>43.41241112910211086273193359375</LatitudeDegrees>
              <LongitudeDegrees>-4.74323476664721965789794921875</LongitudeDegrees>
            </Position>
            <AltitudeMeters>39.200000762939453125</AltitudeMeters>
            <DistanceMeters>NAN</DistanceMeters>
          </Trackpoint>
          <Trackpoint>
            <Time>2022-07-15T16:52:18.000Z</Time>
            <Position>
              <LatitudeDegrees>43.41247131116688251495361328125</LatitudeDegrees>
              <LongitudeDegrees>-4.7433731518685817718505859375</LongitudeDegrees>
            </Position>
            <AltitudeMeters>38.59999847412109375</AltitudeMeters>
            <DistanceMeters>NAN</DistanceMeters>
          </Trackpoint>
          <Trackpoint>
            <Time>2022-07-15T16:52:19.000Z</Time>
            <Position>
              <LatitudeDegrees>43.41252059675753116607666015625</LatitudeDegrees>
              <LongitudeDegrees>-4.7434546239674091339111328125</LongitudeDegrees>
            </Position>
            <AltitudeMeters>38.200000762939453125</AltitudeMeters>
            <DistanceMeters>NAN</DistanceMeters>
          </Trackpoint>
          <Trackpoint>
            <Time>2022-07-15T16:52:21.000Z</Time>
            <Position>
              <LatitudeDegrees>43.41264263726770877838134765625</LatitudeDegrees>
              <LongitudeDegrees>-4.7436571307480335235595703125</LongitudeDegrees>
            </Position>
            <AltitudeMeters>37.200000762939453125</AltitudeMeters>
            <DistanceMeters>NAN</DistanceMeters>
          </Trackpoint>
          <Trackpoint>
            <Time>2022-07-15T16:52:22.000Z</Time>
            <Position>
              <LatitudeDegrees>43.41269351541996002197265625</LatitudeDegrees>
              <LongitudeDegrees>-4.74376358091831207275390625</LongitudeDegrees>
            </Position>
            <AltitudeMeters>36.799999237060546875</AltitudeMeters>
            <DistanceMeters>NAN</DistanceMeters>
          </Trackpoint>
          <Trackpoint>
            <Time>2022-07-15T16:52:23.000Z</Time>
            <Position>
              <LatitudeDegrees>43.41273115016520023345947265625</LatitudeDegrees>
              <LongitudeDegrees>-4.74387883208692073822021484375</LongitudeDegrees>
            </Position>
            <AltitudeMeters>36.200000762939453125</AltitudeMeters>
            <DistanceMeters>NAN</DistanceMeters>
          </Trackpoint>
          <Trackpoint>
            <Time>2022-07-15T16:52:24.000Z</Time>
            <Position>
              <LatitudeDegrees>43.41276098974049091339111328125</LatitudeDegrees>
              <LongitudeDegrees>-4.74402434192597866058349609375</LongitudeDegrees>
            </Position>
            <AltitudeMeters>35.799999237060546875</AltitudeMeters>
            <DistanceMeters>NAN</DistanceMeters>
          </Trackpoint>
          <Trackpoint>
            <Time>2022-07-15T16:52:25.000Z</Time>
            <Position>
              <LatitudeDegrees>43.41277264058589935302734375</LatitudeDegrees>
              <LongitudeDegrees>-4.7441234998404979705810546875</LongitudeDegrees>
            </Position>
            <AltitudeMeters>35</AltitudeMeters>
            <DistanceMeters>NAN</DistanceMeters>
          </Trackpoint>
          <Trackpoint>
            <Time>2022-07-15T16:52:27.000Z</Time>
            <Position>
              <LatitudeDegrees>43.41279317624866962432861328125</LatitudeDegrees>
              <LongitudeDegrees>-4.74437571130692958831787109375</LongitudeDegrees>
            </Position>
            <AltitudeMeters>34</AltitudeMeters>
            <DistanceMeters>NAN</DistanceMeters>
          </Trackpoint>
          <Trackpoint>
            <Time>2022-07-15T16:52:28.000Z</Time>
            <Position>
              <LatitudeDegrees>43.41279854066669940948486328125</LatitudeDegrees>
              <LongitudeDegrees>-4.74450311623513698577880859375</LongitudeDegrees>
            </Position>
            <AltitudeMeters>33.59999847412109375</AltitudeMeters>
            <DistanceMeters>NAN</DistanceMeters>
          </Trackpoint>
          <Trackpoint>
            <Time>2022-07-15T16:52:31.000Z</Time>
            <Position>
              <LatitudeDegrees>43.412833996117115020751953125</LatitudeDegrees>
              <LongitudeDegrees>-4.74487929604947566986083984375</LongitudeDegrees>
            </Position>
            <AltitudeMeters>32.40000152587890625</AltitudeMeters>
            <DistanceMeters>NAN</DistanceMeters>
          </Trackpoint>
          <Trackpoint>
            <Time>2022-07-15T16:52:33.000Z</Time>
            <Position>
              <LatitudeDegrees>43.4128884784877300262451171875</LatitudeDegrees>
              <LongitudeDegrees>-4.74510543979704380035400390625</LongitudeDegrees>
            </Position>
            <AltitudeMeters>32</AltitudeMeters>
            <DistanceMeters>NAN</DistanceMeters>
          </Trackpoint>
          <Trackpoint>
            <Time>2022-07-15T16:52:35.000Z</Time>
            <Position>
              <LatitudeDegrees>43.412941955029964447021484375</LatitudeDegrees>
              <LongitudeDegrees>-4.74531163461506366729736328125</LongitudeDegrees>
            </Position>
            <AltitudeMeters>31.799999237060546875</AltitudeMeters>
            <DistanceMeters>NAN</DistanceMeters>
          </Trackpoint>
          <Trackpoint>
            <Time>2022-07-15T16:52:37.000Z</Time>
            <Position>
              <LatitudeDegrees>43.412968777120113372802734375</LatitudeDegrees>
              <LongitudeDegrees>-4.74553425796329975128173828125</LongitudeDegrees>
            </Position>
            <AltitudeMeters>31.6000003814697265625</AltitudeMeters>
            <DistanceMeters>NAN</DistanceMeters>
          </Trackpoint>
          <Trackpoint>
            <Time>2022-07-15T16:52:38.000Z</Time>
            <Position>
              <LatitudeDegrees>43.4129810146987438201904296875</LatitudeDegrees>
              <LongitudeDegrees>-4.7456480003893375396728515625</LongitudeDegrees>
            </Position>
            <AltitudeMeters>31.3999996185302734375</AltitudeMeters>
            <DistanceMeters>NAN</DistanceMeters>
          </Trackpoint>
          <Trackpoint>
            <Time>2022-07-15T16:52:41.000Z</Time>
            <Position>
              <LatitudeDegrees>43.4130289591848850250244140625</LatitudeDegrees>
              <LongitudeDegrees>-4.74598470143973827362060546875</LongitudeDegrees>
            </Position>
            <AltitudeMeters>30.6000003814697265625</AltitudeMeters>
            <DistanceMeters>NAN</DistanceMeters>
          </Trackpoint>
          <Trackpoint>
            <Time>2022-07-15T16:52:42.000Z</Time>
            <Position>
              <LatitudeDegrees>43.41305837966501712799072265625</LatitudeDegrees>
              <LongitudeDegrees>-4.7460855357348918914794921875</LongitudeDegrees>
            </Position>
            <AltitudeMeters>30.3999996185302734375</AltitudeMeters>
            <DistanceMeters>NAN</DistanceMeters>
          </Trackpoint>
          <Trackpoint>
            <Time>2022-07-15T16:52:47.000Z</Time>
            <Position>
              <LatitudeDegrees>43.413273878395557403564453125</LatitudeDegrees>
              <LongitudeDegrees>-4.7465073131024837493896484375</LongitudeDegrees>
            </Position>
            <AltitudeMeters>29.3999996185302734375</AltitudeMeters>
            <DistanceMeters>NAN</DistanceMeters>
          </Trackpoint>
          <Trackpoint>
            <Time>2022-07-15T16:52:53.000Z</Time>
            <Position>
              <LatitudeDegrees>43.41350890696048736572265625</LatitudeDegrees>
              <LongitudeDegrees>-4.74690067581832408905029296875</LongitudeDegrees>
            </Position>
            <AltitudeMeters>29.3999996185302734375</AltitudeMeters>
            <DistanceMeters>NAN</DistanceMeters>
          </Trackpoint>
          <Trackpoint>
            <Time>2022-07-15T16:52:54.000Z</Time>
            <Position>
              <LatitudeDegrees>43.41353430412709712982177734375</LatitudeDegrees>
              <LongitudeDegrees>-4.7469559125602245330810546875</LongitudeDegrees>
            </Position>
            <AltitudeMeters>29.3999996185302734375</AltitudeMeters>
            <DistanceMeters>NAN</DistanceMeters>
          </Trackpoint>
          <Trackpoint>
            <Time>2022-07-15T16:52:56.000Z</Time>
            <Position>
              <LatitudeDegrees>43.413564227521419525146484375</LatitudeDegrees>
              <LongitudeDegrees>-4.7470705769956111907958984375</LongitudeDegrees>
            </Position>
            <AltitudeMeters>29.6000003814697265625</AltitudeMeters>
            <DistanceMeters>NAN</DistanceMeters>
          </Trackpoint>
          <Trackpoint>
            <Time>2022-07-15T16:52:57.000Z</Time>
            <Position>
              <LatitudeDegrees>43.4135721065104007720947265625</LatitudeDegrees>
              <LongitudeDegrees>-4.74712950177490711212158203125</LongitudeDegrees>
            </Position>
            <AltitudeMeters>29.6000003814697265625</AltitudeMeters>
            <DistanceMeters>NAN</DistanceMeters>
          </Trackpoint>
          <Trackpoint>
            <Time>2022-07-15T16:53:00.000Z</Time>
            <Position>
              <LatitudeDegrees>43.41358342207968235015869140625</LatitudeDegrees>
              <LongitudeDegrees>-4.7472945414483547210693359375</LongitudeDegrees>
            </Position>
            <AltitudeMeters>29.799999237060546875</AltitudeMeters>
            <DistanceMeters>NAN</DistanceMeters>
          </Trackpoint>
          <Trackpoint>
            <Time>2022-07-15T16:53:03.000Z</Time>
            <Position>
              <LatitudeDegrees>43.413572944700717926025390625</LatitudeDegrees>
              <LongitudeDegrees>-4.74745304323732852935791015625</LongitudeDegrees>
            </Position>
            <AltitudeMeters>29.799999237060546875</AltitudeMeters>
            <DistanceMeters>NAN</DistanceMeters>
          </Trackpoint>
          <Trackpoint>
            <Time>2022-07-15T16:53:08.000Z</Time>
            <Position>
              <LatitudeDegrees>43.41354117728769779205322265625</LatitudeDegrees>
              <LongitudeDegrees>-4.74771338514983654022216796875</LongitudeDegrees>
            </Position>
            <AltitudeMeters>30</AltitudeMeters>
            <DistanceMeters>NAN</DistanceMeters>
          </Trackpoint>
          <Trackpoint>
            <Time>2022-07-15T16:53:11.000Z</Time>
            <Position>
              <LatitudeDegrees>43.4135164506733417510986328125</LatitudeDegrees>
              <LongitudeDegrees>-4.74785101599991321563720703125</LongitudeDegrees>
            </Position>
            <AltitudeMeters>30</AltitudeMeters>
            <DistanceMeters>NAN</DistanceMeters>
          </Trackpoint>
          <Trackpoint>
            <Time>2022-07-15T16:53:17.000Z</Time>
            <Position>
              <LatitudeDegrees>43.4134711883962154388427734375</LatitudeDegrees>
              <LongitudeDegrees>-4.74809073843061923980712890625</LongitudeDegrees>
            </Position>
            <AltitudeMeters>30.3999996185302734375</AltitudeMeters>
            <DistanceMeters>NAN</DistanceMeters>
          </Trackpoint>
          <Trackpoint>
            <Time>2022-07-15T16:53:19.000Z</Time>
            <Position>
              <LatitudeDegrees>43.41345869936048984527587890625</LatitudeDegrees>
              <LongitudeDegrees>-4.74816382862627506256103515625</LongitudeDegrees>
            </Position>
            <AltitudeMeters>30.6000003814697265625</AltitudeMeters>
            <DistanceMeters>NAN</DistanceMeters>
          </Trackpoint>
          <Trackpoint>
            <Time>2022-07-15T16:53:25.000Z</Time>
            <Position>
              <LatitudeDegrees>43.4134480543434619903564453125</LatitudeDegrees>
              <LongitudeDegrees>-4.7483137808740139007568359375</LongitudeDegrees>
            </Position>
            <AltitudeMeters>30.799999237060546875</AltitudeMeters>
            <DistanceMeters>NAN</DistanceMeters>
          </Trackpoint>
          <Trackpoint>
            <Time>2022-07-15T16:53:27.000Z</Time>
            <Position>
              <LatitudeDegrees>43.4134480543434619903564453125</LatitudeDegrees>
              <LongitudeDegrees>-4.7483137808740139007568359375</LongitudeDegrees>
            </Position>
            <AltitudeMeters>31</AltitudeMeters>
            <DistanceMeters>NAN</DistanceMeters>
          </Trackpoint>
          <Trackpoint>
            <Time>2022-07-15T16:53:40.000Z</Time>
            <Position>
              <LatitudeDegrees>43.413444869220256805419921875</LatitudeDegrees>
              <LongitudeDegrees>-4.748260974884033203125</LongitudeDegrees>
            </Position>
            <AltitudeMeters>31.200000762939453125</AltitudeMeters>
            <DistanceMeters>NAN</DistanceMeters>
          </Trackpoint>
          <Trackpoint>
            <Time>2022-07-15T16:53:41.000Z</Time>
            <Position>
              <LatitudeDegrees>43.413438163697719573974609375</LatitudeDegrees>
              <LongitudeDegrees>-4.74821495823562145233154296875</LongitudeDegrees>
            </Position>
            <AltitudeMeters>31.3999996185302734375</AltitudeMeters>
            <DistanceMeters>NAN</DistanceMeters>
          </Trackpoint>
          <Trackpoint>
            <Time>2022-07-15T16:53:43.000Z</Time>
            <Position>
              <LatitudeDegrees>43.4134319610893726348876953125</LatitudeDegrees>
              <LongitudeDegrees>-4.74809945560991764068603515625</LongitudeDegrees>
            </Position>
            <AltitudeMeters>31.3999996185302734375</AltitudeMeters>
            <DistanceMeters>NAN</DistanceMeters>
          </Trackpoint>
          <Trackpoint>
            <Time>2022-07-15T16:53:45.000Z</Time>
            <Position>
              <LatitudeDegrees>43.4134507365524768829345703125</LatitudeDegrees>
              <LongitudeDegrees>-4.7479835338890552520751953125</LongitudeDegrees>
            </Position>
            <AltitudeMeters>31.6000003814697265625</AltitudeMeters>
            <DistanceMeters>NAN</DistanceMeters>
          </Trackpoint>
          <Trackpoint>
            <Time>2022-07-15T16:53:50.000Z</Time>
            <Position>
              <LatitudeDegrees>43.413544110953807830810546875</LatitudeDegrees>
              <LongitudeDegrees>-4.7476985491812229156494140625</LongitudeDegrees>
            </Position>
            <AltitudeMeters>31.6000003814697265625</AltitudeMeters>
            <DistanceMeters>NAN</DistanceMeters>
          </Trackpoint>
          <Trackpoint>
            <Time>2022-07-15T16:53:51.000Z</Time>
            <Position>
              <LatitudeDegrees>43.41357956640422344207763671875</LatitudeDegrees>
              <LongitudeDegrees>-4.74765907041728496551513671875</LongitudeDegrees>
            </Position>
            <AltitudeMeters>31.3999996185302734375</AltitudeMeters>
            <DistanceMeters>NAN</DistanceMeters>
          </Trackpoint>
          <Trackpoint>
            <Time>2022-07-15T16:53:55.000Z</Time>
            <Position>
              <LatitudeDegrees>43.4137511439621448516845703125</LatitudeDegrees>
              <LongitudeDegrees>-4.7474943660199642181396484375</LongitudeDegrees>
            </Position>
            <AltitudeMeters>30.799999237060546875</AltitudeMeters>
            <DistanceMeters>NAN</DistanceMeters>
          </Trackpoint>
          <Trackpoint>
            <Time>2022-07-15T16:53:57.000Z</Time>
            <Position>
              <LatitudeDegrees>43.4138564206659793853759765625</LatitudeDegrees>
              <LongitudeDegrees>-4.7474108822643756866455078125</LongitudeDegrees>
            </Position>
            <AltitudeMeters>30</AltitudeMeters>
            <DistanceMeters>NAN</DistanceMeters>
          </Trackpoint>
          <Trackpoint>
            <Time>2022-07-15T16:54:01.000Z</Time>
            <Position>
              <LatitudeDegrees>43.41408482752740383148193359375</LatitudeDegrees>
              <LongitudeDegrees>-4.7472291626036167144775390625</LongitudeDegrees>
            </Position>
            <AltitudeMeters>28.799999237060546875</AltitudeMeters>
            <DistanceMeters>NAN</DistanceMeters>
          </Trackpoint>
          <Trackpoint>
            <Time>2022-07-15T16:54:02.000Z</Time>
            <Position>
              <LatitudeDegrees>43.4141447581350803375244140625</LatitudeDegrees>
              <LongitudeDegrees>-4.7471812181174755096435546875</LongitudeDegrees>
            </Position>
            <AltitudeMeters>28.6000003814697265625</AltitudeMeters>
            <DistanceMeters>NAN</DistanceMeters>
          </Trackpoint>
          <Trackpoint>
            <Time>2022-07-15T16:54:06.000Z</Time>
            <Position>
              <LatitudeDegrees>43.41439059935510158538818359375</LatitudeDegrees>
              <LongitudeDegrees>-4.74697460420429706573486328125</LongitudeDegrees>
            </Position>
            <AltitudeMeters>27.6000003814697265625</AltitudeMeters>
            <DistanceMeters>NAN</DistanceMeters>
          </Trackpoint>
          <Trackpoint>
            <Time>2022-07-15T16:54:10.000Z</Time>
            <Position>
              <LatitudeDegrees>43.414631746709346771240234375</LatitudeDegrees>
              <LongitudeDegrees>-4.74677503108978271484375</LongitudeDegrees>
            </Position>
            <AltitudeMeters>26.799999237060546875</AltitudeMeters>
            <DistanceMeters>NAN</DistanceMeters>
          </Trackpoint>
          <Trackpoint>
            <Time>2022-07-15T16:54:12.000Z</Time>
            <Position>
              <LatitudeDegrees>43.414747752249240875244140625</LatitudeDegrees>
              <LongitudeDegrees>-4.7466833330690860748291015625</LongitudeDegrees>
            </Position>
            <AltitudeMeters>26.3999996185302734375</AltitudeMeters>
            <DistanceMeters>NAN</DistanceMeters>
          </Trackpoint>
          <Trackpoint>
            <Time>2022-07-15T16:54:13.000Z</Time>
            <Position>
              <LatitudeDegrees>43.4148037433624267578125</LatitudeDegrees>
              <LongitudeDegrees>-4.74663622677326202392578125</LongitudeDegrees>
            </Position>
            <AltitudeMeters>26.200000762939453125</AltitudeMeters>
            <DistanceMeters>NAN</DistanceMeters>
          </Trackpoint>
          <Trackpoint>
            <Time>2022-07-15T16:54:14.000Z</Time>
            <Position>
              <LatitudeDegrees>43.41485948301851749420166015625</LatitudeDegrees>
              <LongitudeDegrees>-4.746584258973598480224609375</LongitudeDegrees>
            </Position>
            <AltitudeMeters>25.3999996185302734375</AltitudeMeters>
            <DistanceMeters>NAN</DistanceMeters>
          </Trackpoint>
          <Trackpoint>
            <Time>2022-07-15T16:54:15.000Z</Time>
            <Position>
              <LatitudeDegrees>43.4149152226746082305908203125</LatitudeDegrees>
              <LongitudeDegrees>-4.74652634002268314361572265625</LongitudeDegrees>
            </Position>
            <AltitudeMeters>24.6000003814697265625</AltitudeMeters>
            <DistanceMeters>NAN</DistanceMeters>
          </Trackpoint>
          <Trackpoint>
            <Time>2022-07-15T16:54:16.000Z</Time>
            <Position>
              <LatitudeDegrees>43.41496626846492290496826171875</LatitudeDegrees>
              <LongitudeDegrees>-4.7464580275118350982666015625</LongitudeDegrees>
            </Position>
            <AltitudeMeters>24</AltitudeMeters>
            <DistanceMeters>NAN</DistanceMeters>
          </Trackpoint>
          <Trackpoint>
            <Time>2022-07-15T16:54:19.000Z</Time>
            <Position>
              <LatitudeDegrees>43.41510255821049213409423828125</LatitudeDegrees>
              <LongitudeDegrees>-4.74625526927411556243896484375</LongitudeDegrees>
            </Position>
            <AltitudeMeters>23</AltitudeMeters>
            <DistanceMeters>NAN</DistanceMeters>
          </Trackpoint>
          <Trackpoint>
            <Time>2022-07-15T16:54:20.000Z</Time>
            <Position>
              <LatitudeDegrees>43.4151452220976352691650390625</LatitudeDegrees>
              <LongitudeDegrees>-4.74618695676326751708984375</LongitudeDegrees>
            </Position>
            <AltitudeMeters>23</AltitudeMeters>
            <DistanceMeters>NAN</DistanceMeters>
          </Trackpoint>
          <Trackpoint>
            <Time>2022-07-15T16:54:23.000Z</Time>
            <Position>
              <LatitudeDegrees>43.41526634059846401214599609375</LatitudeDegrees>
              <LongitudeDegrees>-4.7459904849529266357421875</LongitudeDegrees>
            </Position>
            <AltitudeMeters>22.6000003814697265625</AltitudeMeters>
            <DistanceMeters>NAN</DistanceMeters>
          </Trackpoint>
          <Trackpoint>
            <Time>2022-07-15T16:54:28.000Z</Time>
            <Position>
              <LatitudeDegrees>43.415447138249874114990234375</LatitudeDegrees>
              <LongitudeDegrees>-4.7457140497863292694091796875</LongitudeDegrees>
            </Position>
            <AltitudeMeters>22.200000762939453125</AltitudeMeters>
            <DistanceMeters>NAN</DistanceMeters>
          </Trackpoint>
          <Trackpoint>
            <Time>2022-07-15T16:54:36.000Z</Time>
            <Position>
              <LatitudeDegrees>43.41569960117340087890625</LatitudeDegrees>
              <LongitudeDegrees>-4.74533577449619770050048828125</LongitudeDegrees>
            </Position>
            <AltitudeMeters>21.3999996185302734375</AltitudeMeters>
            <DistanceMeters>NAN</DistanceMeters>
          </Trackpoint>
          <Trackpoint>
            <Time>2022-07-15T16:54:38.000Z</Time>
            <Position>
              <LatitudeDegrees>43.41576238162815570831298828125</LatitudeDegrees>
              <LongitudeDegrees>-4.74524441175162792205810546875</LongitudeDegrees>
            </Position>
            <AltitudeMeters>20.3999996185302734375</AltitudeMeters>
            <DistanceMeters>NAN</DistanceMeters>
          </Trackpoint>
          <Trackpoint>
            <Time>2022-07-15T16:54:41.000Z</Time>
            <Position>
              <LatitudeDegrees>43.41585961170494556427001953125</LatitudeDegrees>
              <LongitudeDegrees>-4.74509035237133502960205078125</LongitudeDegrees>
            </Position>
            <AltitudeMeters>19.6000003814697265625</AltitudeMeters>
            <DistanceMeters>NAN</DistanceMeters>
          </Trackpoint>
          <Trackpoint>
            <Time>2022-07-15T16:54:44.000Z</Time>
            <Position>
              <LatitudeDegrees>43.41595382429659366607666015625</LatitudeDegrees>
              <LongitudeDegrees>-4.74493428133428096771240234375</LongitudeDegrees>
            </Position>
            <AltitudeMeters>19.3999996185302734375</AltitudeMeters>
            <DistanceMeters>NAN</DistanceMeters>
          </Trackpoint>
          <Trackpoint>
            <Time>2022-07-15T16:54:46.000Z</Time>
            <Position>
              <LatitudeDegrees>43.4160179458558559417724609375</LatitudeDegrees>
              <LongitudeDegrees>-4.74484317004680633544921875</LongitudeDegrees>
            </Position>
            <AltitudeMeters>18.6000003814697265625</AltitudeMeters>
            <DistanceMeters>NAN</DistanceMeters>
          </Trackpoint>
          <Trackpoint>
            <Time>2022-07-15T16:54:48.000Z</Time>
            <Position>
              <LatitudeDegrees>43.41609111987054347991943359375</LatitudeDegrees>
              <LongitudeDegrees>-4.74478474818170070648193359375</LongitudeDegrees>
            </Position>
            <AltitudeMeters>18.3999996185302734375</AltitudeMeters>
            <DistanceMeters>NAN</DistanceMeters>
          </Trackpoint>
          <Trackpoint>
            <Time>2022-07-15T16:54:49.000Z</Time>
            <Position>
              <LatitudeDegrees>43.41613344848155975341796875</LatitudeDegrees>
              <LongitudeDegrees>-4.7447727620601654052734375</LongitudeDegrees>
            </Position>
            <AltitudeMeters>18.200000762939453125</AltitudeMeters>
            <DistanceMeters>NAN</DistanceMeters>
          </Trackpoint>
          <Trackpoint>
            <Time>2022-07-15T16:54:50.000Z</Time>
            <Position>
              <LatitudeDegrees>43.4161770343780517578125</LatitudeDegrees>
              <LongitudeDegrees>-4.74476882256567478179931640625</LongitudeDegrees>
            </Position>
            <AltitudeMeters>18.200000762939453125</AltitudeMeters>
            <DistanceMeters>NAN</DistanceMeters>
          </Trackpoint>
          <Trackpoint>
            <Time>2022-07-15T16:54:52.000Z</Time>
            <Position>
              <LatitudeDegrees>43.41626211069524288177490234375</LatitudeDegrees>
              <LongitudeDegrees>-4.74477737210690975189208984375</LongitudeDegrees>
            </Position>
            <AltitudeMeters>18.200000762939453125</AltitudeMeters>
            <DistanceMeters>NAN</DistanceMeters>
          </Trackpoint>
          <Trackpoint>
            <Time>2022-07-15T16:54:55.000Z</Time>
            <Position>
              <LatitudeDegrees>43.4163770265877246856689453125</LatitudeDegrees>
              <LongitudeDegrees>-4.7448215447366237640380859375</LongitudeDegrees>
            </Position>
            <AltitudeMeters>17.799999237060546875</AltitudeMeters>
            <DistanceMeters>NAN</DistanceMeters>
          </Trackpoint>
          <Trackpoint>
            <Time>2022-07-15T16:55:00.000Z</Time>
            <Position>
              <LatitudeDegrees>43.41652697883546352386474609375</LatitudeDegrees>
              <LongitudeDegrees>-4.744880385696887969970703125</LongitudeDegrees>
            </Position>
            <AltitudeMeters>17.799999237060546875</AltitudeMeters>
            <DistanceMeters>NAN</DistanceMeters>
          </Trackpoint>
          <Trackpoint>
            <Time>2022-07-15T16:55:05.000Z</Time>
            <Position>
              <LatitudeDegrees>43.41661632992327213287353515625</LatitudeDegrees>
              <LongitudeDegrees>-4.744932688772678375244140625</LongitudeDegrees>
            </Position>
            <AltitudeMeters>18</AltitudeMeters>
            <DistanceMeters>NAN</DistanceMeters>
          </Trackpoint>
          <Trackpoint>
            <Time>2022-07-15T16:55:09.000Z</Time>
            <Position>
              <LatitudeDegrees>43.416670896112918853759765625</LatitudeDegrees>
              <LongitudeDegrees>-4.744935370981693267822265625</LongitudeDegrees>
            </Position>
            <AltitudeMeters>18.3999996185302734375</AltitudeMeters>
            <DistanceMeters>NAN</DistanceMeters>
          </Trackpoint>
          <Trackpoint>
            <Time>2022-07-15T16:55:10.000Z</Time>
            <Position>
              <LatitudeDegrees>43.41667684726417064666748046875</LatitudeDegrees>
              <LongitudeDegrees>-4.7449315153062343597412109375</LongitudeDegrees>
            </Position>
            <AltitudeMeters>18.6000003814697265625</AltitudeMeters>
            <DistanceMeters>NAN</DistanceMeters>
          </Trackpoint>
          <Trackpoint>
            <Time>2022-07-15T16:55:12.000Z</Time>
            <Position>
              <LatitudeDegrees>43.41667684726417064666748046875</LatitudeDegrees>
              <LongitudeDegrees>-4.7449315153062343597412109375</LongitudeDegrees>
            </Position>
            <AltitudeMeters>18.6000003814697265625</AltitudeMeters>
            <DistanceMeters>NAN</DistanceMeters>
          </Trackpoint>
          <Trackpoint>
            <Time>2022-07-15T16:56:18.000Z</Time>
            <Position>
              <LatitudeDegrees>43.41670266352593898773193359375</LatitudeDegrees>
              <LongitudeDegrees>-4.74494802765548229217529296875</LongitudeDegrees>
            </Position>
            <AltitudeMeters>19</AltitudeMeters>
            <DistanceMeters>NAN</DistanceMeters>
          </Trackpoint>
          <Trackpoint>
            <Time>2022-07-15T16:56:19.000Z</Time>
            <Position>
              <LatitudeDegrees>43.41671406291425228118896484375</LatitudeDegrees>
              <LongitudeDegrees>-4.744954816997051239013671875</LongitudeDegrees>
            </Position>
            <AltitudeMeters>19</AltitudeMeters>
            <DistanceMeters>NAN</DistanceMeters>
          </Trackpoint>
          <Trackpoint>
            <Time>2022-07-15T16:56:21.000Z</Time>
            <Position>
              <LatitudeDegrees>43.416739292442798614501953125</LatitudeDegrees>
              <LongitudeDegrees>-4.74495640955865383148193359375</LongitudeDegrees>
            </Position>
            <AltitudeMeters>19.3999996185302734375</AltitudeMeters>
            <DistanceMeters>NAN</DistanceMeters>
          </Trackpoint>
          <Trackpoint>
            <Time>2022-07-15T16:56:26.000Z</Time>
            <Position>
              <LatitudeDegrees>43.41679754666984081268310546875</LatitudeDegrees>
              <LongitudeDegrees>-4.7449419088661670684814453125</LongitudeDegrees>
            </Position>
            <AltitudeMeters>19.799999237060546875</AltitudeMeters>
            <DistanceMeters>NAN</DistanceMeters>
          </Trackpoint>
          <Trackpoint>
            <Time>2022-07-15T16:56:30.000Z</Time>
            <Position>
              <LatitudeDegrees>43.416850604116916656494140625</LatitudeDegrees>
              <LongitudeDegrees>-4.74492372013628482818603515625</LongitudeDegrees>
            </Position>
            <AltitudeMeters>20</AltitudeMeters>
            <DistanceMeters>NAN</DistanceMeters>
          </Trackpoint>
          <Trackpoint>
            <Time>2022-07-15T16:56:33.000Z</Time>
            <Position>
              <LatitudeDegrees>43.41688907705247402191162109375</LatitudeDegrees>
              <LongitudeDegrees>-4.74491558969020843505859375</LongitudeDegrees>
            </Position>
            <AltitudeMeters>20</AltitudeMeters>
            <DistanceMeters>NAN</DistanceMeters>
          </Trackpoint>
          <Trackpoint>
            <Time>2022-07-15T16:56:34.000Z</Time>
            <Position>
              <LatitudeDegrees>43.41690148226916790008544921875</LatitudeDegrees>
              <LongitudeDegrees>-4.74491232074797153472900390625</LongitudeDegrees>
            </Position>
            <AltitudeMeters>20.200000762939453125</AltitudeMeters>
            <DistanceMeters>NAN</DistanceMeters>
          </Trackpoint>
          <Trackpoint>
            <Time>2022-07-15T16:56:38.000Z</Time>
            <Position>
              <LatitudeDegrees>43.41695479117333889007568359375</LatitudeDegrees>
              <LongitudeDegrees>-4.74489354528486728668212890625</LongitudeDegrees>
            </Position>
            <AltitudeMeters>20.6000003814697265625</AltitudeMeters>
            <DistanceMeters>NAN</DistanceMeters>
          </Trackpoint>
          <Trackpoint>
            <Time>2022-07-15T16:56:40.000Z</Time>
            <Position>
              <LatitudeDegrees>43.4169848822057247161865234375</LatitudeDegrees>
              <LongitudeDegrees>-4.74488499574363231658935546875</LongitudeDegrees>
            </Position>
            <AltitudeMeters>21</AltitudeMeters>
            <DistanceMeters>NAN</DistanceMeters>
          </Trackpoint>
          <Trackpoint>
            <Time>2022-07-15T16:56:43.000Z</Time>
            <Position>
              <LatitudeDegrees>43.41701027937233448028564453125</LatitudeDegrees>
              <LongitudeDegrees>-4.7448845766484737396240234375</LongitudeDegrees>
            </Position>
            <AltitudeMeters>21.3999996185302734375</AltitudeMeters>
            <DistanceMeters>NAN</DistanceMeters>
          </Trackpoint>
          <Trackpoint>
            <Time>2022-07-15T16:56:44.000Z</Time>
            <Position>
              <LatitudeDegrees>43.41702838428318500518798828125</LatitudeDegrees>
              <LongitudeDegrees>-4.74488633684813976287841796875</LongitudeDegrees>
            </Position>
            <AltitudeMeters>21.6000003814697265625</AltitudeMeters>
            <DistanceMeters>NAN</DistanceMeters>
          </Trackpoint>
          <Trackpoint>
            <Time>2022-07-15T16:56:46.000Z</Time>
            <Position>
              <LatitudeDegrees>43.41705922968685626983642578125</LatitudeDegrees>
              <LongitudeDegrees>-4.74488516338169574737548828125</LongitudeDegrees>
            </Position>
            <AltitudeMeters>21.799999237060546875</AltitudeMeters>
            <DistanceMeters>NAN</DistanceMeters>
          </Trackpoint>
          <Trackpoint>
            <Time>2022-07-15T16:56:53.000Z</Time>
            <Position>
              <LatitudeDegrees>43.4171461500227451324462890625</LatitudeDegrees>
              <LongitudeDegrees>-4.74491064436733722686767578125</LongitudeDegrees>
            </Position>
            <AltitudeMeters>22.799999237060546875</AltitudeMeters>
            <DistanceMeters>NAN</DistanceMeters>
          </Trackpoint>
          <Trackpoint>
            <Time>2022-07-15T16:56:54.000Z</Time>
            <Position>
              <LatitudeDegrees>43.41716098599135875701904296875</LatitudeDegrees>
              <LongitudeDegrees>-4.744915254414081573486328125</LongitudeDegrees>
            </Position>
            <AltitudeMeters>23</AltitudeMeters>
            <DistanceMeters>NAN</DistanceMeters>
          </Trackpoint>
          <Trackpoint>
            <Time>2022-07-15T16:57:00.000Z</Time>
            <Position>
              <LatitudeDegrees>43.41724782250821590423583984375</LatitudeDegrees>
              <LongitudeDegrees>-4.7449704073369503021240234375</LongitudeDegrees>
            </Position>
            <AltitudeMeters>24</AltitudeMeters>
            <DistanceMeters>NAN</DistanceMeters>
          </Trackpoint>
          <Trackpoint>
            <Time>2022-07-15T16:57:01.000Z</Time>
            <Position>
              <LatitudeDegrees>43.41726089827716350555419921875</LatitudeDegrees>
              <LongitudeDegrees>-4.7449844889342784881591796875</LongitudeDegrees>
            </Position>
            <AltitudeMeters>24.200000762939453125</AltitudeMeters>
            <DistanceMeters>NAN</DistanceMeters>
          </Trackpoint>
          <Trackpoint>
            <Time>2022-07-15T16:57:03.000Z</Time>
            <Position>
              <LatitudeDegrees>43.41728051193058490753173828125</LatitudeDegrees>
              <LongitudeDegrees>-4.74501659162342548370361328125</LongitudeDegrees>
            </Position>
            <AltitudeMeters>24.3999996185302734375</AltitudeMeters>
            <DistanceMeters>NAN</DistanceMeters>
          </Trackpoint>
          <Trackpoint>
            <Time>2022-07-15T16:57:06.000Z</Time>
            <Position>
              <LatitudeDegrees>43.4173134528100490570068359375</LatitudeDegrees>
              <LongitudeDegrees>-4.745056070387363433837890625</LongitudeDegrees>
            </Position>
            <AltitudeMeters>25</AltitudeMeters>
            <DistanceMeters>NAN</DistanceMeters>
          </Trackpoint>
          <Trackpoint>
            <Time>2022-07-15T16:57:08.000Z</Time>
            <Position>
              <LatitudeDegrees>43.417336754500865936279296875</LatitudeDegrees>
              <LongitudeDegrees>-4.74507660605013370513916015625</LongitudeDegrees>
            </Position>
            <AltitudeMeters>25.200000762939453125</AltitudeMeters>
            <DistanceMeters>NAN</DistanceMeters>
          </Trackpoint>
          <Trackpoint>
            <Time>2022-07-15T16:57:11.000Z</Time>
            <Position>
              <LatitudeDegrees>43.41737665235996246337890625</LatitudeDegrees>
              <LongitudeDegrees>-4.74511516280472278594970703125</LongitudeDegrees>
            </Position>
            <AltitudeMeters>25.6000003814697265625</AltitudeMeters>
            <DistanceMeters>NAN</DistanceMeters>
          </Trackpoint>
          <Trackpoint>
            <Time>2022-07-15T16:57:14.000Z</Time>
            <Position>
              <LatitudeDegrees>43.41740741394460201263427734375</LatitudeDegrees>
              <LongitudeDegrees>-4.74515556357800960540771484375</LongitudeDegrees>
            </Position>
            <AltitudeMeters>26</AltitudeMeters>
            <DistanceMeters>NAN</DistanceMeters>
          </Trackpoint>
          <Trackpoint>
            <Time>2022-07-15T16:57:18.000Z</Time>
            <Position>
              <LatitudeDegrees>43.41744245029985904693603515625</LatitudeDegrees>
              <LongitudeDegrees>-4.7452161647379398345947265625</LongitudeDegrees>
            </Position>
            <AltitudeMeters>26.200000762939453125</AltitudeMeters>
            <DistanceMeters>NAN</DistanceMeters>
          </Trackpoint>
          <Trackpoint>
            <Time>2022-07-15T16:57:20.000Z</Time>
            <Position>
              <LatitudeDegrees>43.41745586134493350982666015625</LatitudeDegrees>
              <LongitudeDegrees>-4.74524256773293018341064453125</LongitudeDegrees>
            </Position>
            <AltitudeMeters>26.3999996185302734375</AltitudeMeters>
            <DistanceMeters>NAN</DistanceMeters>
          </Trackpoint>
          <Trackpoint>
            <Time>2022-07-15T16:57:27.000Z</Time>
            <Position>
              <LatitudeDegrees>43.417511098086833953857421875</LatitudeDegrees>
              <LongitudeDegrees>-4.74535522051155567169189453125</LongitudeDegrees>
            </Position>
            <AltitudeMeters>27.3999996185302734375</AltitudeMeters>
            <DistanceMeters>NAN</DistanceMeters>
          </Trackpoint>
          <Trackpoint>
            <Time>2022-07-15T16:57:29.000Z</Time>
            <Position>
              <LatitudeDegrees>43.41753381304442882537841796875</LatitudeDegrees>
              <LongitudeDegrees>-4.745398722589015960693359375</LongitudeDegrees>
            </Position>
            <AltitudeMeters>27.3999996185302734375</AltitudeMeters>
            <DistanceMeters>NAN</DistanceMeters>
          </Trackpoint>
          <Trackpoint>
            <Time>2022-07-15T16:57:39.000Z</Time>
            <Position>
              <LatitudeDegrees>43.41763875447213649749755859375</LatitudeDegrees>
              <LongitudeDegrees>-4.74556895904242992401123046875</LongitudeDegrees>
            </Position>
            <AltitudeMeters>28.200000762939453125</AltitudeMeters>
            <DistanceMeters>NAN</DistanceMeters>
          </Trackpoint>
          <Trackpoint>
            <Time>2022-07-15T16:57:46.000Z</Time>
            <Position>
              <LatitudeDegrees>43.41773346997797489166259765625</LatitudeDegrees>
              <LongitudeDegrees>-4.74566970951855182647705078125</LongitudeDegrees>
            </Position>
            <AltitudeMeters>28.200000762939453125</AltitudeMeters>
            <DistanceMeters>NAN</DistanceMeters>
          </Trackpoint>
          <Trackpoint>
            <Time>2022-07-15T16:57:52.000Z</Time>
            <Position>
              <LatitudeDegrees>43.417814187705516815185546875</LatitudeDegrees>
              <LongitudeDegrees>-4.74577096290886402130126953125</LongitudeDegrees>
            </Position>
            <AltitudeMeters>28.200000762939453125</AltitudeMeters>
            <DistanceMeters>NAN</DistanceMeters>
          </Trackpoint>
          <Trackpoint>
            <Time>2022-07-15T16:57:55.000Z</Time>
            <Position>
              <LatitudeDegrees>43.4178636409342288970947265625</LatitudeDegrees>
              <LongitudeDegrees>-4.74583433009684085845947265625</LongitudeDegrees>
            </Position>
            <AltitudeMeters>28.3999996185302734375</AltitudeMeters>
            <DistanceMeters>NAN</DistanceMeters>
          </Trackpoint>
          <Trackpoint>
            <Time>2022-07-15T16:57:59.000Z</Time>
            <Position>
              <LatitudeDegrees>43.41792893595993518829345703125</LatitudeDegrees>
              <LongitudeDegrees>-4.74592217244207859039306640625</LongitudeDegrees>
            </Position>
            <AltitudeMeters>28.3999996185302734375</AltitudeMeters>
            <DistanceMeters>NAN</DistanceMeters>
          </Trackpoint>
          <Trackpoint>
            <Time>2022-07-15T16:58:06.000Z</Time>
            <Position>
              <LatitudeDegrees>43.41807997785508632659912109375</LatitudeDegrees>
              <LongitudeDegrees>-4.74612937308847904205322265625</LongitudeDegrees>
            </Position>
            <AltitudeMeters>28</AltitudeMeters>
            <DistanceMeters>NAN</DistanceMeters>
          </Trackpoint>
          <Trackpoint>
            <Time>2022-07-15T16:58:10.000Z</Time>
            <Position>
              <LatitudeDegrees>43.41817167587578296661376953125</LatitudeDegrees>
              <LongitudeDegrees>-4.74631042219698429107666015625</LongitudeDegrees>
            </Position>
            <AltitudeMeters>27.200000762939453125</AltitudeMeters>
            <DistanceMeters>NAN</DistanceMeters>
          </Trackpoint>
          <Trackpoint>
            <Time>2022-07-15T16:58:12.000Z</Time>
            <Position>
              <LatitudeDegrees>43.41820319183170795440673828125</LatitudeDegrees>
              <LongitudeDegrees>-4.74640999920666217803955078125</LongitudeDegrees>
            </Position>
            <AltitudeMeters>27</AltitudeMeters>
            <DistanceMeters>NAN</DistanceMeters>
          </Trackpoint>
          <Trackpoint>
            <Time>2022-07-15T16:58:16.000Z</Time>
            <Position>
              <LatitudeDegrees>43.4182485379278659820556640625</LatitudeDegrees>
              <LongitudeDegrees>-4.746581576764583587646484375</LongitudeDegrees>
            </Position>
            <AltitudeMeters>26.200000762939453125</AltitudeMeters>
            <DistanceMeters>NAN</DistanceMeters>
          </Trackpoint>
          <Trackpoint>
            <Time>2022-07-15T16:58:19.000Z</Time>
            <Position>
              <LatitudeDegrees>43.418273515999317169189453125</LatitudeDegrees>
              <LongitudeDegrees>-4.7467081435024738311767578125</LongitudeDegrees>
            </Position>
            <AltitudeMeters>26</AltitudeMeters>
            <DistanceMeters>NAN</DistanceMeters>
          </Trackpoint>
          <Trackpoint>
            <Time>2022-07-15T16:58:20.000Z</Time>
            <Position>
              <LatitudeDegrees>43.4182824008166790008544921875</LatitudeDegrees>
              <LongitudeDegrees>-4.746755920350551605224609375</LongitudeDegrees>
            </Position>
            <AltitudeMeters>26</AltitudeMeters>
            <DistanceMeters>NAN</DistanceMeters>
          </Trackpoint>
          <Trackpoint>
            <Time>2022-07-15T16:58:24.000Z</Time>
            <Position>
              <LatitudeDegrees>43.4183196164667606353759765625</LatitudeDegrees>
              <LongitudeDegrees>-4.74693336524069309234619140625</LongitudeDegrees>
            </Position>
            <AltitudeMeters>26</AltitudeMeters>
            <DistanceMeters>NAN</DistanceMeters>
          </Trackpoint>
          <Trackpoint>
            <Time>2022-07-15T16:58:30.000Z</Time>
            <Position>
              <LatitudeDegrees>43.41836630366742610931396484375</LatitudeDegrees>
              <LongitudeDegrees>-4.7471423260867595672607421875</LongitudeDegrees>
            </Position>
            <AltitudeMeters>26</AltitudeMeters>
            <DistanceMeters>NAN</DistanceMeters>
          </Trackpoint>
          <Trackpoint>
            <Time>2022-07-15T16:58:36.000Z</Time>
            <Position>
              <LatitudeDegrees>43.41841466724872589111328125</LatitudeDegrees>
              <LongitudeDegrees>-4.7473233751952648162841796875</LongitudeDegrees>
            </Position>
            <AltitudeMeters>26.200000762939453125</AltitudeMeters>
            <DistanceMeters>NAN</DistanceMeters>
          </Trackpoint>
          <Trackpoint>
            <Time>2022-07-15T16:58:39.000Z</Time>
            <Position>
              <LatitudeDegrees>43.41843402944505214691162109375</LatitudeDegrees>
              <LongitudeDegrees>-4.74741532467305660247802734375</LongitudeDegrees>
            </Position>
            <AltitudeMeters>26.6000003814697265625</AltitudeMeters>
            <DistanceMeters>NAN</DistanceMeters>
          </Trackpoint>
          <Trackpoint>
            <Time>2022-07-15T16:58:40.000Z</Time>
            <Position>
              <LatitudeDegrees>43.4184426628053188323974609375</LatitudeDegrees>
              <LongitudeDegrees>-4.747448600828647613525390625</LongitudeDegrees>
            </Position>
            <AltitudeMeters>26.799999237060546875</AltitudeMeters>
            <DistanceMeters>NAN</DistanceMeters>
          </Trackpoint>
          <Trackpoint>
            <Time>2022-07-15T16:58:45.000Z</Time>
            <Position>
              <LatitudeDegrees>43.41849957592785358428955078125</LatitudeDegrees>
              <LongitudeDegrees>-4.7475944459438323974609375</LongitudeDegrees>
            </Position>
            <AltitudeMeters>27.200000762939453125</AltitudeMeters>
            <DistanceMeters>NAN</DistanceMeters>
          </Trackpoint>
          <Trackpoint>
            <Time>2022-07-15T16:58:48.000Z</Time>
            <Position>
              <LatitudeDegrees>43.41852924786508083343505859375</LatitudeDegrees>
              <LongitudeDegrees>-4.74767281673848628997802734375</LongitudeDegrees>
            </Position>
            <AltitudeMeters>27.6000003814697265625</AltitudeMeters>
            <DistanceMeters>NAN</DistanceMeters>
          </Trackpoint>
          <Trackpoint>
            <Time>2022-07-15T16:58:56.000Z</Time>
            <Position>
              <LatitudeDegrees>43.41860778629779815673828125</LatitudeDegrees>
              <LongitudeDegrees>-4.74787750281393527984619140625</LongitudeDegrees>
            </Position>
            <AltitudeMeters>28.200000762939453125</AltitudeMeters>
            <DistanceMeters>NAN</DistanceMeters>
          </Trackpoint>
          <Trackpoint>
            <Time>2022-07-15T16:58:58.000Z</Time>
            <Position>
              <LatitudeDegrees>43.41862748377025127410888671875</LatitudeDegrees>
              <LongitudeDegrees>-4.74792662076652050018310546875</LongitudeDegrees>
            </Position>
            <AltitudeMeters>28.3999996185302734375</AltitudeMeters>
            <DistanceMeters>NAN</DistanceMeters>
          </Trackpoint>
          <Trackpoint>
            <Time>2022-07-15T16:59:03.000Z</Time>
            <Position>
              <LatitudeDegrees>43.41867995448410511016845703125</LatitudeDegrees>
              <LongitudeDegrees>-4.748066179454326629638671875</LongitudeDegrees>
            </Position>
            <AltitudeMeters>28.799999237060546875</AltitudeMeters>
            <DistanceMeters>NAN</DistanceMeters>
          </Trackpoint>
          <Trackpoint>
            <Time>2022-07-15T16:59:07.000Z</Time>
            <Position>
              <LatitudeDegrees>43.4187232889235019683837890625</LatitudeDegrees>
              <LongitudeDegrees>-4.7481722943484783172607421875</LongitudeDegrees>
            </Position>
            <AltitudeMeters>28.799999237060546875</AltitudeMeters>
            <DistanceMeters>NAN</DistanceMeters>
          </Trackpoint>
          <Trackpoint>
            <Time>2022-07-15T16:59:08.000Z</Time>
            <Position>
              <LatitudeDegrees>43.4187326766550540924072265625</LatitudeDegrees>
              <LongitudeDegrees>-4.74819903261959552764892578125</LongitudeDegrees>
            </Position>
            <AltitudeMeters>28.799999237060546875</AltitudeMeters>
            <DistanceMeters>NAN</DistanceMeters>
          </Trackpoint>
          <Trackpoint>
            <Time>2022-07-15T16:59:10.000Z</Time>
            <Position>
              <LatitudeDegrees>43.41875740326941013336181640625</LatitudeDegrees>
              <LongitudeDegrees>-4.74825871177017688751220703125</LongitudeDegrees>
            </Position>
            <AltitudeMeters>28.799999237060546875</AltitudeMeters>
            <DistanceMeters>NAN</DistanceMeters>
          </Trackpoint>
          <Trackpoint>
            <Time>2022-07-15T16:59:15.000Z</Time>
            <Position>
              <LatitudeDegrees>43.41880786232650279998779296875</LatitudeDegrees>
              <LongitudeDegrees>-4.7483965940773487091064453125</LongitudeDegrees>
            </Position>
            <AltitudeMeters>28.799999237060546875</AltitudeMeters>
            <DistanceMeters>NAN</DistanceMeters>
          </Trackpoint>
          <Trackpoint>
            <Time>2022-07-15T16:59:20.000Z</Time>
            <Position>
              <LatitudeDegrees>43.4189013205468654632568359375</LatitudeDegrees>
              <LongitudeDegrees>-4.748518802225589752197265625</LongitudeDegrees>
            </Position>
            <AltitudeMeters>28.6000003814697265625</AltitudeMeters>
            <DistanceMeters>NAN</DistanceMeters>
          </Trackpoint>
          <Trackpoint>
            <Time>2022-07-15T16:59:25.000Z</Time>
            <Position>
              <LatitudeDegrees>43.41893124394118785858154296875</LatitudeDegrees>
              <LongitudeDegrees>-4.748521484434604644775390625</LongitudeDegrees>
            </Position>
            <AltitudeMeters>28.6000003814697265625</AltitudeMeters>
            <DistanceMeters>NAN</DistanceMeters>
          </Trackpoint>
          <Trackpoint>
            <Time>2022-07-15T16:59:26.000Z</Time>
            <Position>
              <LatitudeDegrees>43.41893124394118785858154296875</LatitudeDegrees>
              <LongitudeDegrees>-4.748521484434604644775390625</LongitudeDegrees>
            </Position>
            <AltitudeMeters>28.6000003814697265625</AltitudeMeters>
            <DistanceMeters>NAN</DistanceMeters>
          </Trackpoint>
          <Trackpoint>
            <Time>2022-07-15T16:59:36.000Z</Time>
            <Position>
              <LatitudeDegrees>43.41898656450212001800537109375</LatitudeDegrees>
              <LongitudeDegrees>-4.74852927960455417633056640625</LongitudeDegrees>
            </Position>
            <AltitudeMeters>28.200000762939453125</AltitudeMeters>
            <DistanceMeters>NAN</DistanceMeters>
          </Trackpoint>
          <Trackpoint>
            <Time>2022-07-15T16:59:37.000Z</Time>
            <Position>
              <LatitudeDegrees>43.41901774518191814422607421875</LatitudeDegrees>
              <LongitudeDegrees>-4.74853548221290111541748046875</LongitudeDegrees>
            </Position>
            <AltitudeMeters>28</AltitudeMeters>
            <DistanceMeters>NAN</DistanceMeters>
          </Trackpoint>
          <Trackpoint>
            <Time>2022-07-15T16:59:38.000Z</Time>
            <Position>
              <LatitudeDegrees>43.41904909349977970123291015625</LatitudeDegrees>
              <LongitudeDegrees>-4.7485441155731678009033203125</LongitudeDegrees>
            </Position>
            <AltitudeMeters>27.799999237060546875</AltitudeMeters>
            <DistanceMeters>NAN</DistanceMeters>
          </Trackpoint>
          <Trackpoint>
            <Time>2022-07-15T16:59:39.000Z</Time>
            <Position>
              <LatitudeDegrees>43.41908144764602184295654296875</LatitudeDegrees>
              <LongitudeDegrees>-4.74855995737016201019287109375</LongitudeDegrees>
            </Position>
            <AltitudeMeters>27.3999996185302734375</AltitudeMeters>
            <DistanceMeters>NAN</DistanceMeters>
          </Trackpoint>
          <Trackpoint>
            <Time>2022-07-15T16:59:41.000Z</Time>
            <Position>
              <LatitudeDegrees>43.4191309846937656402587890625</LatitudeDegrees>
              <LongitudeDegrees>-4.74860890768468379974365234375</LongitudeDegrees>
            </Position>
            <AltitudeMeters>26.200000762939453125</AltitudeMeters>
            <DistanceMeters>NAN</DistanceMeters>
          </Trackpoint>
          <Trackpoint>
            <Time>2022-07-15T16:59:43.000Z</Time>
            <Position>
              <LatitudeDegrees>43.41918177902698516845703125</LatitudeDegrees>
              <LongitudeDegrees>-4.74866188131272792816162109375</LongitudeDegrees>
            </Position>
            <AltitudeMeters>25</AltitudeMeters>
            <DistanceMeters>NAN</DistanceMeters>
          </Trackpoint>
          <Trackpoint>
            <Time>2022-07-15T16:59:45.000Z</Time>
            <Position>
              <LatitudeDegrees>43.4192235209047794342041015625</LatitudeDegrees>
              <LongitudeDegrees>-4.74864930845797061920166015625</LongitudeDegrees>
            </Position>
            <AltitudeMeters>24</AltitudeMeters>
            <DistanceMeters>NAN</DistanceMeters>
          </Trackpoint>
          <Trackpoint>
            <Time>2022-07-15T16:59:46.000Z</Time>
            <Position>
              <LatitudeDegrees>43.41924321837723255157470703125</LatitudeDegrees>
              <LongitudeDegrees>-4.74862131290137767791748046875</LongitudeDegrees>
            </Position>
            <AltitudeMeters>23.3999996185302734375</AltitudeMeters>
            <DistanceMeters>NAN</DistanceMeters>
          </Trackpoint>
          <Trackpoint>
            <Time>2022-07-15T16:59:48.000Z</Time>
            <Position>
              <LatitudeDegrees>43.4192892350256443023681640625</LatitudeDegrees>
              <LongitudeDegrees>-4.748580493032932281494140625</LongitudeDegrees>
            </Position>
            <AltitudeMeters>22.3999996185302734375</AltitudeMeters>
            <DistanceMeters>NAN</DistanceMeters>
          </Trackpoint>
          <Trackpoint>
            <Time>2022-07-15T16:59:50.000Z</Time>
            <Position>
              <LatitudeDegrees>43.419348411262035369873046875</LatitudeDegrees>
              <LongitudeDegrees>-4.7485806606709957122802734375</LongitudeDegrees>
            </Position>
            <AltitudeMeters>21.6000003814697265625</AltitudeMeters>
            <DistanceMeters>NAN</DistanceMeters>
          </Trackpoint>
          <Trackpoint>
            <Time>2022-07-15T16:59:51.000Z</Time>
            <Position>
              <LatitudeDegrees>43.4193757362663745880126953125</LatitudeDegrees>
              <LongitudeDegrees>-4.74857948720455169677734375</LongitudeDegrees>
            </Position>
            <AltitudeMeters>21.200000762939453125</AltitudeMeters>
            <DistanceMeters>NAN</DistanceMeters>
          </Trackpoint>
          <Trackpoint>
            <Time>2022-07-15T16:59:52.000Z</Time>
            <Position>
              <LatitudeDegrees>43.41939995996654033660888671875</LatitudeDegrees>
              <LongitudeDegrees>-4.748563058674335479736328125</LongitudeDegrees>
            </Position>
            <AltitudeMeters>20.6000003814697265625</AltitudeMeters>
            <DistanceMeters>NAN</DistanceMeters>
          </Trackpoint>
          <Trackpoint>
            <Time>2022-07-15T16:59:53.000Z</Time>
            <Position>
              <LatitudeDegrees>43.4194183163344860076904296875</LatitudeDegrees>
              <LongitudeDegrees>-4.7485340572893619537353515625</LongitudeDegrees>
            </Position>
            <AltitudeMeters>20.200000762939453125</AltitudeMeters>
            <DistanceMeters>NAN</DistanceMeters>
          </Trackpoint>
          <Trackpoint>
            <Time>2022-07-15T16:59:54.000Z</Time>
            <Position>
              <LatitudeDegrees>43.4194233454763889312744140625</LatitudeDegrees>
              <LongitudeDegrees>-4.7484928183257579803466796875</LongitudeDegrees>
            </Position>
            <AltitudeMeters>20</AltitudeMeters>
            <DistanceMeters>NAN</DistanceMeters>
          </Trackpoint>
          <Trackpoint>
            <Time>2022-07-15T16:59:56.000Z</Time>
            <Position>
              <LatitudeDegrees>43.41939845122396945953369140625</LatitudeDegrees>
              <LongitudeDegrees>-4.7484022937715053558349609375</LongitudeDegrees>
            </Position>
            <AltitudeMeters>19.799999237060546875</AltitudeMeters>
            <DistanceMeters>NAN</DistanceMeters>
          </Trackpoint>
          <Trackpoint>
            <Time>2022-07-15T17:00:02.000Z</Time>
            <Position>
              <LatitudeDegrees>43.41936844401061534881591796875</LatitudeDegrees>
              <LongitudeDegrees>-4.74819450639188289642333984375</LongitudeDegrees>
            </Position>
            <AltitudeMeters>19.3999996185302734375</AltitudeMeters>
            <DistanceMeters>NAN</DistanceMeters>
          </Trackpoint>
          <Trackpoint>
            <Time>2022-07-15T17:00:05.000Z</Time>
            <Position>
              <LatitudeDegrees>43.41934262774884700775146484375</LatitudeDegrees>
              <LongitudeDegrees>-4.7481209971010684967041015625</LongitudeDegrees>
            </Position>
            <AltitudeMeters>19.200000762939453125</AltitudeMeters>
            <DistanceMeters>NAN</DistanceMeters>
          </Trackpoint>
          <Trackpoint>
            <Time>2022-07-15T17:00:07.000Z</Time>
            <Position>
              <LatitudeDegrees>43.419333659112453460693359375</LatitudeDegrees>
              <LongitudeDegrees>-4.7480770759284496307373046875</LongitudeDegrees>
            </Position>
            <AltitudeMeters>19</AltitudeMeters>
            <DistanceMeters>NAN</DistanceMeters>
          </Trackpoint>
          <Trackpoint>
            <Time>2022-07-15T17:00:11.000Z</Time>
            <Position>
              <LatitudeDegrees>43.4193452261388301849365234375</LatitudeDegrees>
              <LongitudeDegrees>-4.7480385191738605499267578125</LongitudeDegrees>
            </Position>
            <AltitudeMeters>18.6000003814697265625</AltitudeMeters>
            <DistanceMeters>NAN</DistanceMeters>
          </Trackpoint>
          <Trackpoint>
            <Time>2022-07-15T17:00:12.000Z</Time>
            <Position>
              <LatitudeDegrees>43.41935888864099979400634765625</LatitudeDegrees>
              <LongitudeDegrees>-4.748034663498401641845703125</LongitudeDegrees>
            </Position>
            <AltitudeMeters>18.6000003814697265625</AltitudeMeters>
            <DistanceMeters>NAN</DistanceMeters>
          </Trackpoint>
          <Trackpoint>
            <Time>2022-07-15T17:00:13.000Z</Time>
            <Position>
              <LatitudeDegrees>43.41937682591378688812255859375</LatitudeDegrees>
              <LongitudeDegrees>-4.74803877063095569610595703125</LongitudeDegrees>
            </Position>
            <AltitudeMeters>18.6000003814697265625</AltitudeMeters>
            <DistanceMeters>NAN</DistanceMeters>
          </Trackpoint>
          <Trackpoint>
            <Time>2022-07-15T17:00:15.000Z</Time>
            <Position>
              <LatitudeDegrees>43.41940096579492092132568359375</LatitudeDegrees>
              <LongitudeDegrees>-4.7480797581374645233154296875</LongitudeDegrees>
            </Position>
            <AltitudeMeters>18.799999237060546875</AltitudeMeters>
            <DistanceMeters>NAN</DistanceMeters>
          </Trackpoint>
          <Trackpoint>
            <Time>2022-07-15T17:00:16.000Z</Time>
            <Position>
              <LatitudeDegrees>43.4194012172520160675048828125</LatitudeDegrees>
              <LongitudeDegrees>-4.74811035208404064178466796875</LongitudeDegrees>
            </Position>
            <AltitudeMeters>18.799999237060546875</AltitudeMeters>
            <DistanceMeters>NAN</DistanceMeters>
          </Trackpoint>
          <Trackpoint>
            <Time>2022-07-15T17:00:21.000Z</Time>
            <Position>
              <LatitudeDegrees>43.41941454447805881500244140625</LatitudeDegrees>
              <LongitudeDegrees>-4.74831218831241130828857421875</LongitudeDegrees>
            </Position>
            <AltitudeMeters>19.200000762939453125</AltitudeMeters>
            <DistanceMeters>NAN</DistanceMeters>
          </Trackpoint>
          <Trackpoint>
            <Time>2022-07-15T17:00:22.000Z</Time>
            <Position>
              <LatitudeDegrees>43.41942359693348407745361328125</LatitudeDegrees>
              <LongitudeDegrees>-4.74835527129471302032470703125</LongitudeDegrees>
            </Position>
            <AltitudeMeters>19.200000762939453125</AltitudeMeters>
            <DistanceMeters>NAN</DistanceMeters>
          </Trackpoint>
          <Trackpoint>
            <Time>2022-07-15T17:00:28.000Z</Time>
            <Position>
              <LatitudeDegrees>43.4194386005401611328125</LatitudeDegrees>
              <LongitudeDegrees>-4.74858946166932582855224609375</LongitudeDegrees>
            </Position>
            <AltitudeMeters>19.6000003814697265625</AltitudeMeters>
            <DistanceMeters>NAN</DistanceMeters>
          </Trackpoint>
          <Trackpoint>
            <Time>2022-07-15T17:00:31.000Z</Time>
            <Position>
              <LatitudeDegrees>43.41950423084199428558349609375</LatitudeDegrees>
              <LongitudeDegrees>-4.74864578805863857269287109375</LongitudeDegrees>
            </Position>
            <AltitudeMeters>20</AltitudeMeters>
            <DistanceMeters>NAN</DistanceMeters>
          </Trackpoint>
          <Trackpoint>
            <Time>2022-07-15T17:00:32.000Z</Time>
            <Position>
              <LatitudeDegrees>43.419531472027301788330078125</LatitudeDegrees>
              <LongitudeDegrees>-4.74864712916314601898193359375</LongitudeDegrees>
            </Position>
            <AltitudeMeters>20.200000762939453125</AltitudeMeters>
            <DistanceMeters>NAN</DistanceMeters>
          </Trackpoint>
          <Trackpoint>
            <Time>2022-07-15T17:00:33.000Z</Time>
            <Position>
              <LatitudeDegrees>43.419563658535480499267578125</LatitudeDegrees>
              <LongitudeDegrees>-4.74864360876381397247314453125</LongitudeDegrees>
            </Position>
            <AltitudeMeters>20.200000762939453125</AltitudeMeters>
            <DistanceMeters>NAN</DistanceMeters>
          </Trackpoint>
          <Trackpoint>
            <Time>2022-07-15T17:00:40.000Z</Time>
            <Position>
              <LatitudeDegrees>43.41978535987436771392822265625</LatitudeDegrees>
              <LongitudeDegrees>-4.74864117801189422607421875</LongitudeDegrees>
            </Position>
            <AltitudeMeters>20.3999996185302734375</AltitudeMeters>
            <DistanceMeters>NAN</DistanceMeters>
          </Trackpoint>
          <Trackpoint>
            <Time>2022-07-15T17:00:41.000Z</Time>
            <Position>
              <LatitudeDegrees>43.41981201432645320892333984375</LatitudeDegrees>
              <LongitudeDegrees>-4.74864126183092594146728515625</LongitudeDegrees>
            </Position>
            <AltitudeMeters>20.3999996185302734375</AltitudeMeters>
            <DistanceMeters>NAN</DistanceMeters>
          </Trackpoint>
          <Trackpoint>
            <Time>2022-07-15T17:00:48.000Z</Time>
            <Position>
              <LatitudeDegrees>43.42000563628971576690673828125</LatitudeDegrees>
              <LongitudeDegrees>-4.74865257740020751953125</LongitudeDegrees>
            </Position>
            <AltitudeMeters>20.799999237060546875</AltitudeMeters>
            <DistanceMeters>NAN</DistanceMeters>
          </Trackpoint>
          <Trackpoint>
            <Time>2022-07-15T17:00:49.000Z</Time>
            <Position>
              <LatitudeDegrees>43.42002055607736110687255859375</LatitudeDegrees>
              <LongitudeDegrees>-4.74866330623626708984375</LongitudeDegrees>
            </Position>
            <AltitudeMeters>20.799999237060546875</AltitudeMeters>
            <DistanceMeters>NAN</DistanceMeters>
          </Trackpoint>
          <Trackpoint>
            <Time>2022-07-15T17:00:50.000Z</Time>
            <Position>
              <LatitudeDegrees>43.42002742923796176910400390625</LatitudeDegrees>
              <LongitudeDegrees>-4.7486752085387706756591796875</LongitudeDegrees>
            </Position>
            <AltitudeMeters>20.799999237060546875</AltitudeMeters>
            <DistanceMeters>NAN</DistanceMeters>
          </Trackpoint>
          <Trackpoint>
            <Time>2022-07-15T17:00:52.000Z</Time>
            <Position>
              <LatitudeDegrees>43.42004067264497280120849609375</LatitudeDegrees>
              <LongitudeDegrees>-4.74869909696280956268310546875</LongitudeDegrees>
            </Position>
            <AltitudeMeters>21</AltitudeMeters>
            <DistanceMeters>NAN</DistanceMeters>
          </Trackpoint>
          <Trackpoint>
            <Time>2022-07-15T17:00:55.000Z</Time>
            <Position>
              <LatitudeDegrees>43.42004922218620777130126953125</LatitudeDegrees>
              <LongitudeDegrees>-4.74865819327533245086669921875</LongitudeDegrees>
            </Position>
            <AltitudeMeters>21</AltitudeMeters>
            <DistanceMeters>NAN</DistanceMeters>
          </Trackpoint>
          <Trackpoint>
            <Time>2022-07-15T17:00:56.000Z</Time>
            <Position>
              <LatitudeDegrees>43.420047797262668609619140625</LatitudeDegrees>
              <LongitudeDegrees>-4.748623073101043701171875</LongitudeDegrees>
            </Position>
            <AltitudeMeters>21.200000762939453125</AltitudeMeters>
            <DistanceMeters>NAN</DistanceMeters>
          </Trackpoint>
          <Trackpoint>
            <Time>2022-07-15T17:00:57.000Z</Time>
            <Position>
              <LatitudeDegrees>43.42004603706300258636474609375</LatitudeDegrees>
              <LongitudeDegrees>-4.74857973866164684295654296875</LongitudeDegrees>
            </Position>
            <AltitudeMeters>21.200000762939453125</AltitudeMeters>
            <DistanceMeters>NAN</DistanceMeters>
          </Trackpoint>
          <Trackpoint>
            <Time>2022-07-15T17:01:02.000Z</Time>
            <Position>
              <LatitudeDegrees>43.420047126710414886474609375</LatitudeDegrees>
              <LongitudeDegrees>-4.7483630664646625518798828125</LongitudeDegrees>
            </Position>
            <AltitudeMeters>21.6000003814697265625</AltitudeMeters>
            <DistanceMeters>NAN</DistanceMeters>
          </Trackpoint>
          <Trackpoint>
            <Time>2022-07-15T17:01:07.000Z</Time>
            <Position>
              <LatitudeDegrees>43.420049808919429779052734375</LatitudeDegrees>
              <LongitudeDegrees>-4.74817874841392040252685546875</LongitudeDegrees>
            </Position>
            <AltitudeMeters>22</AltitudeMeters>
            <DistanceMeters>NAN</DistanceMeters>
          </Trackpoint>
          <Trackpoint>
            <Time>2022-07-15T17:01:08.000Z</Time>
            <Position>
              <LatitudeDegrees>43.4200472943484783172607421875</LatitudeDegrees>
              <LongitudeDegrees>-4.748135916888713836669921875</LongitudeDegrees>
            </Position>
            <AltitudeMeters>22</AltitudeMeters>
            <DistanceMeters>NAN</DistanceMeters>
          </Trackpoint>
          <Trackpoint>
            <Time>2022-07-15T17:01:10.000Z</Time>
            <Position>
              <LatitudeDegrees>43.42005358077585697174072265625</LatitudeDegrees>
              <LongitudeDegrees>-4.74804631434381008148193359375</LongitudeDegrees>
            </Position>
            <AltitudeMeters>22</AltitudeMeters>
            <DistanceMeters>NAN</DistanceMeters>
          </Trackpoint>
          <Trackpoint>
            <Time>2022-07-15T17:01:15.000Z</Time>
            <Position>
              <LatitudeDegrees>43.42005877755582332611083984375</LatitudeDegrees>
              <LongitudeDegrees>-4.74789996631443500518798828125</LongitudeDegrees>
            </Position>
            <AltitudeMeters>21.6000003814697265625</AltitudeMeters>
            <DistanceMeters>NAN</DistanceMeters>
          </Trackpoint>
          <Trackpoint>
            <Time>2022-07-15T17:01:16.000Z</Time>
            <Position>
              <LatitudeDegrees>43.420051820576190948486328125</LatitudeDegrees>
              <LongitudeDegrees>-4.74787951447069644927978515625</LongitudeDegrees>
            </Position>
            <AltitudeMeters>21.6000003814697265625</AltitudeMeters>
            <DistanceMeters>NAN</DistanceMeters>
          </Trackpoint>
          <Trackpoint>
            <Time>2022-07-15T17:01:20.000Z</Time>
            <Position>
              <LatitudeDegrees>43.42005006037652492523193359375</LatitudeDegrees>
              <LongitudeDegrees>-4.7478671930730342864990234375</LongitudeDegrees>
            </Position>
            <AltitudeMeters>21.3999996185302734375</AltitudeMeters>
            <DistanceMeters>NAN</DistanceMeters>
          </Trackpoint>
          <Trackpoint>
            <Time>2022-07-15T17:03:59.000Z</Time>
            <Position>
              <LatitudeDegrees>43.42003799043595790863037109375</LatitudeDegrees>
              <LongitudeDegrees>-4.74797372706234455108642578125</LongitudeDegrees>
            </Position>
            <AltitudeMeters>22.799999237060546875</AltitudeMeters>
            <DistanceMeters>NAN</DistanceMeters>
          </Trackpoint>
          <Trackpoint>
            <Time>2022-07-15T17:04:05.000Z</Time>
            <Position>
              <LatitudeDegrees>43.4200271777808666229248046875</LatitudeDegrees>
              <LongitudeDegrees>-4.74816952832043170928955078125</LongitudeDegrees>
            </Position>
            <AltitudeMeters>22.799999237060546875</AltitudeMeters>
            <DistanceMeters>NAN</DistanceMeters>
          </Trackpoint>
          <Trackpoint>
            <Time>2022-07-15T17:04:12.000Z</Time>
            <Position>
              <LatitudeDegrees>43.420009575784206390380859375</LatitudeDegrees>
              <LongitudeDegrees>-4.74843489937484264373779296875</LongitudeDegrees>
            </Position>
            <AltitudeMeters>22.799999237060546875</AltitudeMeters>
            <DistanceMeters>NAN</DistanceMeters>
          </Trackpoint>
          <Trackpoint>
            <Time>2022-07-15T17:04:13.000Z</Time>
            <Position>
              <LatitudeDegrees>43.42001259326934814453125</LatitudeDegrees>
              <LongitudeDegrees>-4.7484951652586460113525390625</LongitudeDegrees>
            </Position>
            <AltitudeMeters>22.799999237060546875</AltitudeMeters>
            <DistanceMeters>NAN</DistanceMeters>
          </Trackpoint>
          <Trackpoint>
            <Time>2022-07-15T17:04:21.000Z</Time>
            <Position>
              <LatitudeDegrees>43.42000245116651058197021484375</LatitudeDegrees>
              <LongitudeDegrees>-4.74886036477982997894287109375</LongitudeDegrees>
            </Position>
            <AltitudeMeters>22.6000003814697265625</AltitudeMeters>
            <DistanceMeters>NAN</DistanceMeters>
          </Trackpoint>
          <Trackpoint>
            <Time>2022-07-15T17:04:23.000Z</Time>
            <Position>
              <LatitudeDegrees>43.42002256773412227630615234375</LatitudeDegrees>
              <LongitudeDegrees>-4.7489752806723117828369140625</LongitudeDegrees>
            </Position>
            <AltitudeMeters>22.6000003814697265625</AltitudeMeters>
            <DistanceMeters>NAN</DistanceMeters>
          </Trackpoint>
          <Trackpoint>
            <Time>2022-07-15T17:04:26.000Z</Time>
            <Position>
              <LatitudeDegrees>43.42002692632377147674560546875</LatitudeDegrees>
              <LongitudeDegrees>-4.74913042970001697540283203125</LongitudeDegrees>
            </Position>
            <AltitudeMeters>22.6000003814697265625</AltitudeMeters>
            <DistanceMeters>NAN</DistanceMeters>
          </Trackpoint>
          <Trackpoint>
            <Time>2022-07-15T17:04:28.000Z</Time>
            <Position>
              <LatitudeDegrees>43.42003933154046535491943359375</LatitudeDegrees>
              <LongitudeDegrees>-4.74917904473841190338134765625</LongitudeDegrees>
            </Position>
            <AltitudeMeters>22.6000003814697265625</AltitudeMeters>
            <DistanceMeters>NAN</DistanceMeters>
          </Trackpoint>
          <Trackpoint>
            <Time>2022-07-15T17:04:30.000Z</Time>
            <Position>
              <LatitudeDegrees>43.4200824983417987823486328125</LatitudeDegrees>
              <LongitudeDegrees>-4.74915926344692707061767578125</LongitudeDegrees>
            </Position>
            <AltitudeMeters>22.6000003814697265625</AltitudeMeters>
            <DistanceMeters>NAN</DistanceMeters>
          </Trackpoint>
          <Trackpoint>
            <Time>2022-07-15T17:04:32.000Z</Time>
            <Position>
              <LatitudeDegrees>43.420133292675018310546875</LatitudeDegrees>
              <LongitudeDegrees>-4.74911014549434185028076171875</LongitudeDegrees>
            </Position>
            <AltitudeMeters>22.6000003814697265625</AltitudeMeters>
            <DistanceMeters>NAN</DistanceMeters>
          </Trackpoint>
          <Trackpoint>
            <Time>2022-07-15T17:04:37.000Z</Time>
            <Position>
              <LatitudeDegrees>43.42027788050472736358642578125</LatitudeDegrees>
              <LongitudeDegrees>-4.7490963153541088104248046875</LongitudeDegrees>
            </Position>
            <AltitudeMeters>22.6000003814697265625</AltitudeMeters>
            <DistanceMeters>NAN</DistanceMeters>
          </Trackpoint>
          <Trackpoint>
            <Time>2022-07-15T17:04:41.000Z</Time>
            <Position>
              <LatitudeDegrees>43.420342840254306793212890625</LatitudeDegrees>
              <LongitudeDegrees>-4.74925314076244831085205078125</LongitudeDegrees>
            </Position>
            <AltitudeMeters>22.6000003814697265625</AltitudeMeters>
            <DistanceMeters>NAN</DistanceMeters>
          </Trackpoint>
          <Trackpoint>
            <Time>2022-07-15T17:04:45.000Z</Time>
            <Position>
              <LatitudeDegrees>43.42035834677517414093017578125</LatitudeDegrees>
              <LongitudeDegrees>-4.74947157315909862518310546875</LongitudeDegrees>
            </Position>
            <AltitudeMeters>22.3999996185302734375</AltitudeMeters>
            <DistanceMeters>NAN</DistanceMeters>
          </Trackpoint>
          <Trackpoint>
            <Time>2022-07-15T17:04:47.000Z</Time>
            <Position>
              <LatitudeDegrees>43.42036731541156768798828125</LatitudeDegrees>
              <LongitudeDegrees>-4.7495817951858043670654296875</LongitudeDegrees>
            </Position>
            <AltitudeMeters>22.3999996185302734375</AltitudeMeters>
            <DistanceMeters>NAN</DistanceMeters>
          </Trackpoint>
          <Trackpoint>
            <Time>2022-07-15T17:04:54.000Z</Time>
            <Position>
              <LatitudeDegrees>43.42042858712375164031982421875</LatitudeDegrees>
              <LongitudeDegrees>-4.75003433413803577423095703125</LongitudeDegrees>
            </Position>
            <AltitudeMeters>22.3999996185302734375</AltitudeMeters>
            <DistanceMeters>NAN</DistanceMeters>
          </Trackpoint>
          <Trackpoint>
            <Time>2022-07-15T17:05:00.000Z</Time>
            <Position>
              <LatitudeDegrees>43.420411907136440277099609375</LatitudeDegrees>
              <LongitudeDegrees>-4.75042191334068775177001953125</LongitudeDegrees>
            </Position>
            <AltitudeMeters>22.3999996185302734375</AltitudeMeters>
            <DistanceMeters>NAN</DistanceMeters>
          </Trackpoint>
          <Trackpoint>
            <Time>2022-07-15T17:05:06.000Z</Time>
            <Position>
              <LatitudeDegrees>43.42040712945163249969482421875</LatitudeDegrees>
              <LongitudeDegrees>-4.750694073736667633056640625</LongitudeDegrees>
            </Position>
            <AltitudeMeters>22</AltitudeMeters>
            <DistanceMeters>NAN</DistanceMeters>
          </Trackpoint>
          <Trackpoint>
            <Time>2022-07-15T17:05:07.000Z</Time>
            <Position>
              <LatitudeDegrees>43.4203973226249217987060546875</LatitudeDegrees>
              <LongitudeDegrees>-4.7507478855550289154052734375</LongitudeDegrees>
            </Position>
            <AltitudeMeters>22.200000762939453125</AltitudeMeters>
            <DistanceMeters>NAN</DistanceMeters>
          </Trackpoint>
          <Trackpoint>
            <Time>2022-07-15T17:05:13.000Z</Time>
            <Position>
              <LatitudeDegrees>43.4203637950122356414794921875</LatitudeDegrees>
              <LongitudeDegrees>-4.7510422579944133758544921875</LongitudeDegrees>
            </Position>
            <AltitudeMeters>22.200000762939453125</AltitudeMeters>
            <DistanceMeters>NAN</DistanceMeters>
          </Trackpoint>
          <Trackpoint>
            <Time>2022-07-15T17:05:19.000Z</Time>
            <Position>
              <LatitudeDegrees>43.42029246501624584197998046875</LatitudeDegrees>
              <LongitudeDegrees>-4.751296229660511016845703125</LongitudeDegrees>
            </Position>
            <AltitudeMeters>22.3999996185302734375</AltitudeMeters>
            <DistanceMeters>NAN</DistanceMeters>
          </Trackpoint>
          <Trackpoint>
            <Time>2022-07-15T17:05:24.000Z</Time>
            <Position>
              <LatitudeDegrees>43.4201844222843647003173828125</LatitudeDegrees>
              <LongitudeDegrees>-4.7514164261519908905029296875</LongitudeDegrees>
            </Position>
            <AltitudeMeters>22.6000003814697265625</AltitudeMeters>
            <DistanceMeters>NAN</DistanceMeters>
          </Trackpoint>
          <Trackpoint>
            <Time>2022-07-15T17:05:28.000Z</Time>
            <Position>
              <LatitudeDegrees>43.42008191160857677459716796875</LatitudeDegrees>
              <LongitudeDegrees>-4.751462526619434356689453125</LongitudeDegrees>
            </Position>
            <AltitudeMeters>22.799999237060546875</AltitudeMeters>
            <DistanceMeters>NAN</DistanceMeters>
          </Trackpoint>
          <Trackpoint>
            <Time>2022-07-15T17:05:33.000Z</Time>
            <Position>
              <LatitudeDegrees>43.4199965000152587890625</LatitudeDegrees>
              <LongitudeDegrees>-4.751522876322269439697265625</LongitudeDegrees>
            </Position>
            <AltitudeMeters>22.799999237060546875</AltitudeMeters>
            <DistanceMeters>NAN</DistanceMeters>
          </Trackpoint>
          <Trackpoint>
            <Time>2022-07-15T17:05:37.000Z</Time>
            <Position>
              <LatitudeDegrees>43.41989130713045597076416015625</LatitudeDegrees>
              <LongitudeDegrees>-4.751667715609073638916015625</LongitudeDegrees>
            </Position>
            <AltitudeMeters>22.6000003814697265625</AltitudeMeters>
            <DistanceMeters>NAN</DistanceMeters>
          </Trackpoint>
          <Trackpoint>
            <Time>2022-07-15T17:05:41.000Z</Time>
            <Position>
              <LatitudeDegrees>43.41979340650141239166259765625</LatitudeDegrees>
              <LongitudeDegrees>-4.7518323361873626708984375</LongitudeDegrees>
            </Position>
            <AltitudeMeters>21.6000003814697265625</AltitudeMeters>
            <DistanceMeters>NAN</DistanceMeters>
          </Trackpoint>
          <Trackpoint>
            <Time>2022-07-15T17:05:43.000Z</Time>
            <Position>
              <LatitudeDegrees>43.41973758302628993988037109375</LatitudeDegrees>
              <LongitudeDegrees>-4.75189427845180034637451171875</LongitudeDegrees>
            </Position>
            <AltitudeMeters>21</AltitudeMeters>
            <DistanceMeters>NAN</DistanceMeters>
          </Trackpoint>
          <Trackpoint>
            <Time>2022-07-15T17:05:45.000Z</Time>
            <Position>
              <LatitudeDegrees>43.4196821786463260650634765625</LatitudeDegrees>
              <LongitudeDegrees>-4.75195295177400112152099609375</LongitudeDegrees>
            </Position>
            <AltitudeMeters>20.3999996185302734375</AltitudeMeters>
            <DistanceMeters>NAN</DistanceMeters>
          </Trackpoint>
          <Trackpoint>
            <Time>2022-07-15T17:05:47.000Z</Time>
            <Position>
              <LatitudeDegrees>43.419646807014942169189453125</LatitudeDegrees>
              <LongitudeDegrees>-4.75199603475630283355712890625</LongitudeDegrees>
            </Position>
            <AltitudeMeters>19.799999237060546875</AltitudeMeters>
            <DistanceMeters>NAN</DistanceMeters>
          </Trackpoint>
          <Trackpoint>
            <Time>2022-07-15T17:05:48.000Z</Time>
            <Position>
              <LatitudeDegrees>43.41964387334883213043212890625</LatitudeDegrees>
              <LongitudeDegrees>-4.75201950408518314361572265625</LongitudeDegrees>
            </Position>
            <AltitudeMeters>19.799999237060546875</AltitudeMeters>
            <DistanceMeters>NAN</DistanceMeters>
          </Trackpoint>
          <Trackpoint>
            <Time>2022-07-15T17:05:51.000Z</Time>
            <Position>
              <LatitudeDegrees>43.41963632963597774505615234375</LatitudeDegrees>
              <LongitudeDegrees>-4.7520534507930278778076171875</LongitudeDegrees>
            </Position>
            <AltitudeMeters>19.6000003814697265625</AltitudeMeters>
            <DistanceMeters>NAN</DistanceMeters>
          </Trackpoint>
          <Trackpoint>
            <Time>2022-07-15T17:05:53.000Z</Time>
            <Position>
              <LatitudeDegrees>43.4196275286376476287841796875</LatitudeDegrees>
              <LongitudeDegrees>-4.7520658560097217559814453125</LongitudeDegrees>
            </Position>
            <AltitudeMeters>19.3999996185302734375</AltitudeMeters>
            <DistanceMeters>NAN</DistanceMeters>
          </Trackpoint>
          <Trackpoint>
            <Time>2022-07-15T17:05:55.000Z</Time>
            <Position>
              <LatitudeDegrees>43.4196275286376476287841796875</LatitudeDegrees>
              <LongitudeDegrees>-4.7520658560097217559814453125</LongitudeDegrees>
            </Position>
            <AltitudeMeters>19.3999996185302734375</AltitudeMeters>
            <DistanceMeters>NAN</DistanceMeters>
          </Trackpoint>
          <Trackpoint>
            <Time>2022-07-15T17:06:00.000Z</Time>
            <Position>
              <LatitudeDegrees>43.41961068101227283477783203125</LatitudeDegrees>
              <LongitudeDegrees>-4.75215411745011806488037109375</LongitudeDegrees>
            </Position>
            <AltitudeMeters>18.799999237060546875</AltitudeMeters>
            <DistanceMeters>NAN</DistanceMeters>
          </Trackpoint>
          <Trackpoint>
            <Time>2022-07-15T17:06:05.000Z</Time>
            <Position>
              <LatitudeDegrees>43.4195993654429912567138671875</LatitudeDegrees>
              <LongitudeDegrees>-4.7523458115756511688232421875</LongitudeDegrees>
            </Position>
            <AltitudeMeters>18.6000003814697265625</AltitudeMeters>
            <DistanceMeters>NAN</DistanceMeters>
          </Trackpoint>
          <Trackpoint>
            <Time>2022-07-15T17:06:06.000Z</Time>
            <Position>
              <LatitudeDegrees>43.4195997007191181182861328125</LatitudeDegrees>
              <LongitudeDegrees>-4.75237724371254444122314453125</LongitudeDegrees>
            </Position>
            <AltitudeMeters>18.6000003814697265625</AltitudeMeters>
            <DistanceMeters>NAN</DistanceMeters>
          </Trackpoint>
          <Trackpoint>
            <Time>2022-07-15T17:06:07.000Z</Time>
            <Position>
              <LatitudeDegrees>43.4195919893682003021240234375</LatitudeDegrees>
              <LongitudeDegrees>-4.752421081066131591796875</LongitudeDegrees>
            </Position>
            <AltitudeMeters>18.6000003814697265625</AltitudeMeters>
            <DistanceMeters>NAN</DistanceMeters>
          </Trackpoint>
          <Trackpoint>
            <Time>2022-07-15T17:06:11.000Z</Time>
            <Position>
              <LatitudeDegrees>43.4196050651371479034423828125</LatitudeDegrees>
              <LongitudeDegrees>-4.752565920352935791015625</LongitudeDegrees>
            </Position>
            <AltitudeMeters>18.3999996185302734375</AltitudeMeters>
            <DistanceMeters>NAN</DistanceMeters>
          </Trackpoint>
          <Trackpoint>
            <Time>2022-07-15T17:06:13.000Z</Time>
            <Position>
              <LatitudeDegrees>43.41963079757988452911376953125</LatitudeDegrees>
              <LongitudeDegrees>-4.75264144130051136016845703125</LongitudeDegrees>
            </Position>
            <AltitudeMeters>18.3999996185302734375</AltitudeMeters>
            <DistanceMeters>NAN</DistanceMeters>
          </Trackpoint>
          <Trackpoint>
            <Time>2022-07-15T17:06:14.000Z</Time>
            <Position>
              <LatitudeDegrees>43.41966457664966583251953125</LatitudeDegrees>
              <LongitudeDegrees>-4.752673543989658355712890625</LongitudeDegrees>
            </Position>
            <AltitudeMeters>18.200000762939453125</AltitudeMeters>
            <DistanceMeters>NAN</DistanceMeters>
          </Trackpoint>
          <Trackpoint>
            <Time>2022-07-15T17:06:15.000Z</Time>
            <Position>
              <LatitudeDegrees>43.41969600878655910491943359375</LatitudeDegrees>
              <LongitudeDegrees>-4.75270430557429790496826171875</LongitudeDegrees>
            </Position>
            <AltitudeMeters>18.200000762939453125</AltitudeMeters>
            <DistanceMeters>NAN</DistanceMeters>
          </Trackpoint>
          <Trackpoint>
            <Time>2022-07-15T17:06:18.000Z</Time>
            <Position>
              <LatitudeDegrees>43.4197921492159366607666015625</LatitudeDegrees>
              <LongitudeDegrees>-4.752808995544910430908203125</LongitudeDegrees>
            </Position>
            <AltitudeMeters>17.3999996185302734375</AltitudeMeters>
            <DistanceMeters>NAN</DistanceMeters>
          </Trackpoint>
          <Trackpoint>
            <Time>2022-07-15T17:06:19.000Z</Time>
            <Position>
              <LatitudeDegrees>43.41980874538421630859375</LatitudeDegrees>
              <LongitudeDegrees>-4.752845875918865203857421875</LongitudeDegrees>
            </Position>
            <AltitudeMeters>17</AltitudeMeters>
            <DistanceMeters>NAN</DistanceMeters>
          </Trackpoint>
          <Trackpoint>
            <Time>2022-07-15T17:06:21.000Z</Time>
            <Position>
              <LatitudeDegrees>43.4198414348065853118896484375</LatitudeDegrees>
              <LongitudeDegrees>-4.752906896173954010009765625</LongitudeDegrees>
            </Position>
            <AltitudeMeters>16.6000003814697265625</AltitudeMeters>
            <DistanceMeters>NAN</DistanceMeters>
          </Trackpoint>
          <Trackpoint>
            <Time>2022-07-15T17:06:24.000Z</Time>
            <Position>
              <LatitudeDegrees>43.4198970906436443328857421875</LatitudeDegrees>
              <LongitudeDegrees>-4.752998761832714080810546875</LongitudeDegrees>
            </Position>
            <AltitudeMeters>16.200000762939453125</AltitudeMeters>
            <DistanceMeters>NAN</DistanceMeters>
          </Trackpoint>
          <Trackpoint>
            <Time>2022-07-15T17:06:27.000Z</Time>
            <Position>
              <LatitudeDegrees>43.4199173748493194580078125</LatitudeDegrees>
              <LongitudeDegrees>-4.753046371042728424072265625</LongitudeDegrees>
            </Position>
            <AltitudeMeters>16.200000762939453125</AltitudeMeters>
            <DistanceMeters>NAN</DistanceMeters>
          </Trackpoint>
          <Trackpoint>
            <Time>2022-07-15T17:06:29.000Z</Time>
            <Position>
              <LatitudeDegrees>43.4199312888085842132568359375</LatitudeDegrees>
              <LongitudeDegrees>-4.75307193584740161895751953125</LongitudeDegrees>
            </Position>
            <AltitudeMeters>16.200000762939453125</AltitudeMeters>
            <DistanceMeters>NAN</DistanceMeters>
          </Trackpoint>
          <Trackpoint>
            <Time>2022-07-15T17:06:32.000Z</Time>
            <Position>
              <LatitudeDegrees>43.419959284365177154541015625</LatitudeDegrees>
              <LongitudeDegrees>-4.75311216898262500762939453125</LongitudeDegrees>
            </Position>
            <AltitudeMeters>16.3999996185302734375</AltitudeMeters>
            <DistanceMeters>NAN</DistanceMeters>
          </Trackpoint>
          <Trackpoint>
            <Time>2022-07-15T17:06:37.000Z</Time>
            <Position>
              <LatitudeDegrees>43.41998317278921604156494140625</LatitudeDegrees>
              <LongitudeDegrees>-4.75322180427610874176025390625</LongitudeDegrees>
            </Position>
            <AltitudeMeters>16.6000003814697265625</AltitudeMeters>
            <DistanceMeters>NAN</DistanceMeters>
          </Trackpoint>
          <Trackpoint>
            <Time>2022-07-15T17:06:39.000Z</Time>
            <Position>
              <LatitudeDegrees>43.4199683368206024169921875</LatitudeDegrees>
              <LongitudeDegrees>-4.75326622836291790008544921875</LongitudeDegrees>
            </Position>
            <AltitudeMeters>16.6000003814697265625</AltitudeMeters>
            <DistanceMeters>NAN</DistanceMeters>
          </Trackpoint>
          <Trackpoint>
            <Time>2022-07-15T17:06:48.000Z</Time>
            <Position>
              <LatitudeDegrees>43.4198796562850475311279296875</LatitudeDegrees>
              <LongitudeDegrees>-4.753431268036365509033203125</LongitudeDegrees>
            </Position>
            <AltitudeMeters>17</AltitudeMeters>
            <DistanceMeters>NAN</DistanceMeters>
          </Trackpoint>
          <Trackpoint>
            <Time>2022-07-15T17:06:50.000Z</Time>
            <Position>
              <LatitudeDegrees>43.4198796562850475311279296875</LatitudeDegrees>
              <LongitudeDegrees>-4.753431268036365509033203125</LongitudeDegrees>
            </Position>
            <AltitudeMeters>17</AltitudeMeters>
            <DistanceMeters>NAN</DistanceMeters>
          </Trackpoint>
          <Trackpoint>
            <Time>2022-07-15T17:07:34.000Z</Time>
            <Position>
              <LatitudeDegrees>43.4198501519858837127685546875</LatitudeDegrees>
              <LongitudeDegrees>-4.75349270738661289215087890625</LongitudeDegrees>
            </Position>
            <AltitudeMeters>17</AltitudeMeters>
            <DistanceMeters>NAN</DistanceMeters>
          </Trackpoint>
          <Trackpoint>
            <Time>2022-07-15T17:07:35.000Z</Time>
            <Position>
              <LatitudeDegrees>43.41983749531209468841552734375</LatitudeDegrees>
              <LongitudeDegrees>-4.75351600907742977142333984375</LongitudeDegrees>
            </Position>
            <AltitudeMeters>17.200000762939453125</AltitudeMeters>
            <DistanceMeters>NAN</DistanceMeters>
          </Trackpoint>
          <Trackpoint>
            <Time>2022-07-15T17:07:42.000Z</Time>
            <Position>
              <LatitudeDegrees>43.41975937597453594207763671875</LatitudeDegrees>
              <LongitudeDegrees>-4.7537298314273357391357421875</LongitudeDegrees>
            </Position>
            <AltitudeMeters>17.200000762939453125</AltitudeMeters>
            <DistanceMeters>NAN</DistanceMeters>
          </Trackpoint>
          <Trackpoint>
            <Time>2022-07-15T17:07:47.000Z</Time>
            <Position>
              <LatitudeDegrees>43.4197478927671909332275390625</LatitudeDegrees>
              <LongitudeDegrees>-4.7537653706967830657958984375</LongitudeDegrees>
            </Position>
            <AltitudeMeters>17</AltitudeMeters>
            <DistanceMeters>NAN</DistanceMeters>
          </Trackpoint>
          <Trackpoint>
            <Time>2022-07-15T17:11:16.000Z</Time>
            <Position>
              <LatitudeDegrees>43.4197794087231159210205078125</LatitudeDegrees>
              <LongitudeDegrees>-4.75369119085371494293212890625</LongitudeDegrees>
            </Position>
            <AltitudeMeters>16.6000003814697265625</AltitudeMeters>
            <DistanceMeters>NAN</DistanceMeters>
          </Trackpoint>
          <Trackpoint>
            <Time>2022-07-15T17:11:17.000Z</Time>
            <Position>
              <LatitudeDegrees>43.41978971846401691436767578125</LatitudeDegrees>
              <LongitudeDegrees>-4.75365632213652133941650390625</LongitudeDegrees>
            </Position>
            <AltitudeMeters>16.6000003814697265625</AltitudeMeters>
            <DistanceMeters>NAN</DistanceMeters>
          </Trackpoint>
          <Trackpoint>
            <Time>2022-07-15T17:11:18.000Z</Time>
            <Position>
              <LatitudeDegrees>43.4197985194623470306396484375</LatitudeDegrees>
              <LongitudeDegrees>-4.75362162105739116668701171875</LongitudeDegrees>
            </Position>
            <AltitudeMeters>16.6000003814697265625</AltitudeMeters>
            <DistanceMeters>NAN</DistanceMeters>
          </Trackpoint>
          <Trackpoint>
            <Time>2022-07-15T17:11:25.000Z</Time>
            <Position>
              <LatitudeDegrees>43.4198548458516597747802734375</LatitudeDegrees>
              <LongitudeDegrees>-4.75336831994354724884033203125</LongitudeDegrees>
            </Position>
            <AltitudeMeters>16.3999996185302734375</AltitudeMeters>
            <DistanceMeters>NAN</DistanceMeters>
          </Trackpoint>
          <Trackpoint>
            <Time>2022-07-15T17:11:29.000Z</Time>
            <Position>
              <LatitudeDegrees>43.41990329325199127197265625</LatitudeDegrees>
              <LongitudeDegrees>-4.753240160644054412841796875</LongitudeDegrees>
            </Position>
            <AltitudeMeters>16.200000762939453125</AltitudeMeters>
            <DistanceMeters>NAN</DistanceMeters>
          </Trackpoint>
          <Trackpoint>
            <Time>2022-07-15T17:11:33.000Z</Time>
            <Position>
              <LatitudeDegrees>43.4199222363531589508056640625</LatitudeDegrees>
              <LongitudeDegrees>-4.753074534237384796142578125</LongitudeDegrees>
            </Position>
            <AltitudeMeters>16</AltitudeMeters>
            <DistanceMeters>NAN</DistanceMeters>
          </Trackpoint>
          <Trackpoint>
            <Time>2022-07-15T17:11:38.000Z</Time>
            <Position>
              <LatitudeDegrees>43.41994889080524444580078125</LatitudeDegrees>
              <LongitudeDegrees>-4.75295006297528743743896484375</LongitudeDegrees>
            </Position>
            <AltitudeMeters>15.6000003814697265625</AltitudeMeters>
            <DistanceMeters>NAN</DistanceMeters>
          </Trackpoint>
          <Trackpoint>
            <Time>2022-07-15T17:11:43.000Z</Time>
            <Position>
              <LatitudeDegrees>43.419962637126445770263671875</LatitudeDegrees>
              <LongitudeDegrees>-4.752939753234386444091796875</LongitudeDegrees>
            </Position>
            <AltitudeMeters>15.19999980926513671875</AltitudeMeters>
            <DistanceMeters>NAN</DistanceMeters>
          </Trackpoint>
          <Trackpoint>
            <Time>2022-07-15T17:11:45.000Z</Time>
            <Position>
              <LatitudeDegrees>43.419970683753490447998046875</LatitudeDegrees>
              <LongitudeDegrees>-4.7529680840671062469482421875</LongitudeDegrees>
            </Position>
            <AltitudeMeters>15</AltitudeMeters>
            <DistanceMeters>NAN</DistanceMeters>
          </Trackpoint>
          <Trackpoint>
            <Time>2022-07-15T17:11:48.000Z</Time>
            <Position>
              <LatitudeDegrees>43.41997328214347362518310546875</LatitudeDegrees>
              <LongitudeDegrees>-4.753034301102161407470703125</LongitudeDegrees>
            </Position>
            <AltitudeMeters>15</AltitudeMeters>
            <DistanceMeters>NAN</DistanceMeters>
          </Trackpoint>
          <Trackpoint>
            <Time>2022-07-15T17:11:55.000Z</Time>
            <Position>
              <LatitudeDegrees>43.41995165683329105377197265625</LatitudeDegrees>
              <LongitudeDegrees>-4.75321794860064983367919921875</LongitudeDegrees>
            </Position>
            <AltitudeMeters>15.19999980926513671875</AltitudeMeters>
            <DistanceMeters>NAN</DistanceMeters>
          </Trackpoint>
          <Trackpoint>
            <Time>2022-07-15T17:11:58.000Z</Time>
            <Position>
              <LatitudeDegrees>43.41995400376617908477783203125</LatitudeDegrees>
              <LongitudeDegrees>-4.75330964662134647369384765625</LongitudeDegrees>
            </Position>
            <AltitudeMeters>15.3999996185302734375</AltitudeMeters>
            <DistanceMeters>NAN</DistanceMeters>
          </Trackpoint>
          <Trackpoint>
            <Time>2022-07-15T17:12:00.000Z</Time>
            <Position>
              <LatitudeDegrees>43.41992475092411041259765625</LatitudeDegrees>
              <LongitudeDegrees>-4.75337100215256214141845703125</LongitudeDegrees>
            </Position>
            <AltitudeMeters>15.6000003814697265625</AltitudeMeters>
            <DistanceMeters>NAN</DistanceMeters>
          </Trackpoint>
          <Trackpoint>
            <Time>2022-07-15T17:12:05.000Z</Time>
            <Position>
              <LatitudeDegrees>43.419869430363178253173828125</LatitudeDegrees>
              <LongitudeDegrees>-4.75351609289646148681640625</LongitudeDegrees>
            </Position>
            <AltitudeMeters>15.80000019073486328125</AltitudeMeters>
            <DistanceMeters>NAN</DistanceMeters>
          </Trackpoint>
          <Trackpoint>
            <Time>2022-07-15T17:12:10.000Z</Time>
            <Position>
              <LatitudeDegrees>43.41975686140358448028564453125</LatitudeDegrees>
              <LongitudeDegrees>-4.75363436155021190643310546875</LongitudeDegrees>
            </Position>
            <AltitudeMeters>15.80000019073486328125</AltitudeMeters>
            <DistanceMeters>NAN</DistanceMeters>
          </Trackpoint>
          <Trackpoint>
            <Time>2022-07-15T17:12:11.000Z</Time>
            <Position>
              <LatitudeDegrees>43.41973942704498767852783203125</LatitudeDegrees>
              <LongitudeDegrees>-4.75365732796490192413330078125</LongitudeDegrees>
            </Position>
            <AltitudeMeters>15.80000019073486328125</AltitudeMeters>
            <DistanceMeters>NAN</DistanceMeters>
          </Trackpoint>
          <Trackpoint>
            <Time>2022-07-15T17:12:14.000Z</Time>
            <Position>
              <LatitudeDegrees>43.41971310786902904510498046875</LatitudeDegrees>
              <LongitudeDegrees>-4.7537291608750820159912109375</LongitudeDegrees>
            </Position>
            <AltitudeMeters>16</AltitudeMeters>
            <DistanceMeters>NAN</DistanceMeters>
          </Trackpoint>
          <Trackpoint>
            <Time>2022-07-15T17:12:16.000Z</Time>
            <Position>
              <LatitudeDegrees>43.41969433240592479705810546875</LatitudeDegrees>
              <LongitudeDegrees>-4.753788001835346221923828125</LongitudeDegrees>
            </Position>
            <AltitudeMeters>16</AltitudeMeters>
            <DistanceMeters>NAN</DistanceMeters>
          </Trackpoint>
          <Trackpoint>
            <Time>2022-07-15T17:12:22.000Z</Time>
            <Position>
              <LatitudeDegrees>43.41960288584232330322265625</LatitudeDegrees>
              <LongitudeDegrees>-4.7539182566106319427490234375</LongitudeDegrees>
            </Position>
            <AltitudeMeters>16</AltitudeMeters>
            <DistanceMeters>NAN</DistanceMeters>
          </Trackpoint>
          <Trackpoint>
            <Time>2022-07-15T17:12:27.000Z</Time>
            <Position>
              <LatitudeDegrees>43.41957648284733295440673828125</LatitudeDegrees>
              <LongitudeDegrees>-4.75397852249443531036376953125</LongitudeDegrees>
            </Position>
            <AltitudeMeters>15.80000019073486328125</AltitudeMeters>
            <DistanceMeters>NAN</DistanceMeters>
          </Trackpoint>
          <Trackpoint>
            <Time>2022-07-15T17:12:29.000Z</Time>
            <Position>
              <LatitudeDegrees>43.4195621497929096221923828125</LatitudeDegrees>
              <LongitudeDegrees>-4.75399981252849102020263671875</LongitudeDegrees>
            </Position>
            <AltitudeMeters>15.80000019073486328125</AltitudeMeters>
            <DistanceMeters>NAN</DistanceMeters>
          </Trackpoint>
          <Trackpoint>
            <Time>2022-07-15T17:12:32.000Z</Time>
            <Position>
              <LatitudeDegrees>43.419554941356182098388671875</LatitudeDegrees>
              <LongitudeDegrees>-4.754038788378238677978515625</LongitudeDegrees>
            </Position>
            <AltitudeMeters>15.80000019073486328125</AltitudeMeters>
            <DistanceMeters>NAN</DistanceMeters>
          </Trackpoint>
          <Trackpoint>
            <Time>2022-07-15T17:12:35.000Z</Time>
            <Position>
              <LatitudeDegrees>43.4195313043892383575439453125</LatitudeDegrees>
              <LongitudeDegrees>-4.75408136844635009765625</LongitudeDegrees>
            </Position>
            <AltitudeMeters>16</AltitudeMeters>
            <DistanceMeters>NAN</DistanceMeters>
          </Trackpoint>
          <Trackpoint>
            <Time>2022-07-15T17:12:38.000Z</Time>
            <Position>
              <LatitudeDegrees>43.4195266105234622955322265625</LatitudeDegrees>
              <LongitudeDegrees>-4.7541274689137935638427734375</LongitudeDegrees>
            </Position>
            <AltitudeMeters>16</AltitudeMeters>
            <DistanceMeters>NAN</DistanceMeters>
          </Trackpoint>
          <Trackpoint>
            <Time>2022-07-15T17:12:40.000Z</Time>
            <Position>
              <LatitudeDegrees>43.41953490860760211944580078125</LatitudeDegrees>
              <LongitudeDegrees>-4.75415521301329135894775390625</LongitudeDegrees>
            </Position>
            <AltitudeMeters>16.200000762939453125</AltitudeMeters>
            <DistanceMeters>NAN</DistanceMeters>
          </Trackpoint>
          <Trackpoint>
            <Time>2022-07-15T17:12:44.000Z</Time>
            <Position>
              <LatitudeDegrees>43.4195665083825588226318359375</LatitudeDegrees>
              <LongitudeDegrees>-4.75420617498457431793212890625</LongitudeDegrees>
            </Position>
            <AltitudeMeters>16.3999996185302734375</AltitudeMeters>
            <DistanceMeters>NAN</DistanceMeters>
          </Trackpoint>
          <Trackpoint>
            <Time>2022-07-15T17:12:49.000Z</Time>
            <Position>
              <LatitudeDegrees>43.4196020476520061492919921875</LatitudeDegrees>
              <LongitudeDegrees>-4.7542572207748889923095703125</LongitudeDegrees>
            </Position>
            <AltitudeMeters>16.3999996185302734375</AltitudeMeters>
            <DistanceMeters>NAN</DistanceMeters>
          </Trackpoint>
          <Trackpoint>
            <Time>2022-07-15T17:12:53.000Z</Time>
            <Position>
              <LatitudeDegrees>43.41962845064699649810791015625</LatitudeDegrees>
              <LongitudeDegrees>-4.75428714416921138763427734375</LongitudeDegrees>
            </Position>
            <AltitudeMeters>16.6000003814697265625</AltitudeMeters>
            <DistanceMeters>NAN</DistanceMeters>
          </Trackpoint>
          <Trackpoint>
            <Time>2022-07-15T17:12:54.000Z</Time>
            <Position>
              <LatitudeDegrees>43.41963163577020168304443359375</LatitudeDegrees>
              <LongitudeDegrees>-4.75428932346403598785400390625</LongitudeDegrees>
            </Position>
            <AltitudeMeters>16.6000003814697265625</AltitudeMeters>
            <DistanceMeters>NAN</DistanceMeters>
          </Trackpoint>
          <Trackpoint>
            <Time>2022-07-15T17:12:56.000Z</Time>
            <Position>
              <LatitudeDegrees>43.41963163577020168304443359375</LatitudeDegrees>
              <LongitudeDegrees>-4.75428932346403598785400390625</LongitudeDegrees>
            </Position>
            <AltitudeMeters>16.6000003814697265625</AltitudeMeters>
            <DistanceMeters>NAN</DistanceMeters>
          </Trackpoint>
          <Trackpoint>
            <Time>2022-07-15T17:13:25.000Z</Time>
            <Position>
              <LatitudeDegrees>43.4196697734296321868896484375</LatitudeDegrees>
              <LongitudeDegrees>-4.75435134954750537872314453125</LongitudeDegrees>
            </Position>
            <AltitudeMeters>16</AltitudeMeters>
            <DistanceMeters>NAN</DistanceMeters>
          </Trackpoint>
          <Trackpoint>
            <Time>2022-07-15T17:13:26.000Z</Time>
            <Position>
              <LatitudeDegrees>43.41967874206602573394775390625</LatitudeDegrees>
              <LongitudeDegrees>-4.75435889326035976409912109375</LongitudeDegrees>
            </Position>
            <AltitudeMeters>16</AltitudeMeters>
            <DistanceMeters>NAN</DistanceMeters>
          </Trackpoint>
          <Trackpoint>
            <Time>2022-07-15T17:13:31.000Z</Time>
            <Position>
              <LatitudeDegrees>43.419695757329463958740234375</LatitudeDegrees>
              <LongitudeDegrees>-4.754367358982563018798828125</LongitudeDegrees>
            </Position>
            <AltitudeMeters>16</AltitudeMeters>
            <DistanceMeters>NAN</DistanceMeters>
          </Trackpoint>
          <Trackpoint>
            <Time>2022-07-15T17:13:57.000Z</Time>
            <Position>
              <LatitudeDegrees>43.4196955896914005279541015625</LatitudeDegrees>
              <LongitudeDegrees>-4.75439527072012424468994140625</LongitudeDegrees>
            </Position>
            <AltitudeMeters>15.3999996185302734375</AltitudeMeters>
            <DistanceMeters>NAN</DistanceMeters>
          </Trackpoint>
          <Trackpoint>
            <Time>2022-07-15T17:14:02.000Z</Time>
            <Position>
              <LatitudeDegrees>43.41973423026502132415771484375</LatitudeDegrees>
              <LongitudeDegrees>-4.75455343723297119140625</LongitudeDegrees>
            </Position>
            <AltitudeMeters>16.200000762939453125</AltitudeMeters>
            <DistanceMeters>NAN</DistanceMeters>
          </Trackpoint>
          <Trackpoint>
            <Time>2022-07-15T17:14:08.000Z</Time>
            <Position>
              <LatitudeDegrees>43.41980329714715480804443359375</LatitudeDegrees>
              <LongitudeDegrees>-4.75466868840157985687255859375</LongitudeDegrees>
            </Position>
            <AltitudeMeters>16.6000003814697265625</AltitudeMeters>
            <DistanceMeters>NAN</DistanceMeters>
          </Trackpoint>
          <Trackpoint>
            <Time>2022-07-15T17:14:09.000Z</Time>
            <Position>
              <LatitudeDegrees>43.419807739555835723876953125</LatitudeDegrees>
              <LongitudeDegrees>-4.754683859646320343017578125</LongitudeDegrees>
            </Position>
            <AltitudeMeters>16.6000003814697265625</AltitudeMeters>
            <DistanceMeters>NAN</DistanceMeters>
          </Trackpoint>
          <Trackpoint>
            <Time>2022-07-15T17:14:12.000Z</Time>
            <Position>
              <LatitudeDegrees>43.41982391662895679473876953125</LatitudeDegrees>
              <LongitudeDegrees>-4.75473859347403049468994140625</LongitudeDegrees>
            </Position>
            <AltitudeMeters>16.799999237060546875</AltitudeMeters>
            <DistanceMeters>NAN</DistanceMeters>
          </Trackpoint>
          <Trackpoint>
            <Time>2022-07-15T17:14:13.000Z</Time>
            <Position>
              <LatitudeDegrees>43.4198340587317943572998046875</LatitudeDegrees>
              <LongitudeDegrees>-4.75475954823195934295654296875</LongitudeDegrees>
            </Position>
            <AltitudeMeters>17</AltitudeMeters>
            <DistanceMeters>NAN</DistanceMeters>
          </Trackpoint>
          <Trackpoint>
            <Time>2022-07-15T17:14:14.000Z</Time>
            <Position>
              <LatitudeDegrees>43.41984269209206104278564453125</LatitudeDegrees>
              <LongitudeDegrees>-4.7547732107341289520263671875</LongitudeDegrees>
            </Position>
            <AltitudeMeters>17</AltitudeMeters>
            <DistanceMeters>NAN</DistanceMeters>
          </Trackpoint>
          <Trackpoint>
            <Time>2022-07-15T17:14:16.000Z</Time>
            <Position>
              <LatitudeDegrees>43.41985040344297885894775390625</LatitudeDegrees>
              <LongitudeDegrees>-4.75477245636284351348876953125</LongitudeDegrees>
            </Position>
            <AltitudeMeters>17.200000762939453125</AltitudeMeters>
            <DistanceMeters>NAN</DistanceMeters>
          </Trackpoint>
          <Trackpoint>
            <Time>2022-07-15T17:14:17.000Z</Time>
            <Position>
              <LatitudeDegrees>43.41986264102160930633544921875</LatitudeDegrees>
              <LongitudeDegrees>-4.7547621466219425201416015625</LongitudeDegrees>
            </Position>
            <AltitudeMeters>17.200000762939453125</AltitudeMeters>
            <DistanceMeters>NAN</DistanceMeters>
          </Trackpoint>
          <Trackpoint>
            <Time>2022-07-15T17:14:19.000Z</Time>
            <Position>
              <LatitudeDegrees>43.41987135820090770721435546875</LatitudeDegrees>
              <LongitudeDegrees>-4.75476063787937164306640625</LongitudeDegrees>
            </Position>
            <AltitudeMeters>17.200000762939453125</AltitudeMeters>
            <DistanceMeters>NAN</DistanceMeters>
          </Trackpoint>
          <Trackpoint>
            <Time>2022-07-15T17:14:22.000Z</Time>
            <Position>
              <LatitudeDegrees>43.4198726154863834381103515625</LatitudeDegrees>
              <LongitudeDegrees>-4.75476038642227649688720703125</LongitudeDegrees>
            </Position>
            <AltitudeMeters>17.200000762939453125</AltitudeMeters>
            <DistanceMeters>NAN</DistanceMeters>
          </Trackpoint>
          <Trackpoint>
            <Time>2022-07-15T17:14:59.000Z</Time>
            <Position>
              <LatitudeDegrees>43.41991662047803401947021484375</LatitudeDegrees>
              <LongitudeDegrees>-4.75484521128237247467041015625</LongitudeDegrees>
            </Position>
            <AltitudeMeters>17.3999996185302734375</AltitudeMeters>
            <DistanceMeters>NAN</DistanceMeters>
          </Trackpoint>
          <Trackpoint>
            <Time>2022-07-15T17:15:02.000Z</Time>
            <Position>
              <LatitudeDegrees>43.41996406204998493194580078125</LatitudeDegrees>
              <LongitudeDegrees>-4.75486096926033496856689453125</LongitudeDegrees>
            </Position>
            <AltitudeMeters>17.3999996185302734375</AltitudeMeters>
            <DistanceMeters>NAN</DistanceMeters>
          </Trackpoint>
          <Trackpoint>
            <Time>2022-07-15T17:15:04.000Z</Time>
            <Position>
              <LatitudeDegrees>43.4199906326830387115478515625</LatitudeDegrees>
              <LongitudeDegrees>-4.75489416159689426422119140625</LongitudeDegrees>
            </Position>
            <AltitudeMeters>17.6000003814697265625</AltitudeMeters>
            <DistanceMeters>NAN</DistanceMeters>
          </Trackpoint>
          <Trackpoint>
            <Time>2022-07-15T17:15:08.000Z</Time>
            <Position>
              <LatitudeDegrees>43.42006531544029712677001953125</LatitudeDegrees>
              <LongitudeDegrees>-4.7549002803862094879150390625</LongitudeDegrees>
            </Position>
            <AltitudeMeters>17.6000003814697265625</AltitudeMeters>
            <DistanceMeters>NAN</DistanceMeters>
          </Trackpoint>
          <Trackpoint>
            <Time>2022-07-15T17:15:09.000Z</Time>
            <Position>
              <LatitudeDegrees>43.42008811421692371368408203125</LatitudeDegrees>
              <LongitudeDegrees>-4.75488628260791301727294921875</LongitudeDegrees>
            </Position>
            <AltitudeMeters>17.6000003814697265625</AltitudeMeters>
            <DistanceMeters>NAN</DistanceMeters>
          </Trackpoint>
          <Trackpoint>
            <Time>2022-07-15T17:15:10.000Z</Time>
            <Position>
              <LatitudeDegrees>43.4201093204319477081298828125</LatitudeDegrees>
              <LongitudeDegrees>-4.7548533417284488677978515625</LongitudeDegrees>
            </Position>
            <AltitudeMeters>17.6000003814697265625</AltitudeMeters>
            <DistanceMeters>NAN</DistanceMeters>
          </Trackpoint>
          <Trackpoint>
            <Time>2022-07-15T17:15:12.000Z</Time>
            <Position>
              <LatitudeDegrees>43.42012801207602024078369140625</LatitudeDegrees>
              <LongitudeDegrees>-4.754856526851654052734375</LongitudeDegrees>
            </Position>
            <AltitudeMeters>17.6000003814697265625</AltitudeMeters>
            <DistanceMeters>NAN</DistanceMeters>
          </Trackpoint>
          <Trackpoint>
            <Time>2022-07-15T17:15:13.000Z</Time>
            <Position>
              <LatitudeDegrees>43.42013170011341571807861328125</LatitudeDegrees>
              <LongitudeDegrees>-4.75486029870808124542236328125</LongitudeDegrees>
            </Position>
            <AltitudeMeters>17.6000003814697265625</AltitudeMeters>
            <DistanceMeters>NAN</DistanceMeters>
          </Trackpoint>
          <Trackpoint>
            <Time>2022-07-15T17:15:16.000Z</Time>
            <Position>
              <LatitudeDegrees>43.4201894514262676239013671875</LatitudeDegrees>
              <LongitudeDegrees>-4.7548338957130908966064453125</LongitudeDegrees>
            </Position>
            <AltitudeMeters>17.6000003814697265625</AltitudeMeters>
            <DistanceMeters>NAN</DistanceMeters>
          </Trackpoint>
          <Trackpoint>
            <Time>2022-07-15T17:15:18.000Z</Time>
            <Position>
              <LatitudeDegrees>43.42022306285798549652099609375</LatitudeDegrees>
              <LongitudeDegrees>-4.75481294095516204833984375</LongitudeDegrees>
            </Position>
            <AltitudeMeters>17.6000003814697265625</AltitudeMeters>
            <DistanceMeters>NAN</DistanceMeters>
          </Trackpoint>
          <Trackpoint>
            <Time>2022-07-15T17:15:20.000Z</Time>
            <Position>
              <LatitudeDegrees>43.42024971731007099151611328125</LatitudeDegrees>
              <LongitudeDegrees>-4.75480891764163970947265625</LongitudeDegrees>
            </Position>
            <AltitudeMeters>17.799999237060546875</AltitudeMeters>
            <DistanceMeters>NAN</DistanceMeters>
          </Trackpoint>
          <Trackpoint>
            <Time>2022-07-15T17:15:24.000Z</Time>
            <Position>
              <LatitudeDegrees>43.4203089773654937744140625</LatitudeDegrees>
              <LongitudeDegrees>-4.75481553934514522552490234375</LongitudeDegrees>
            </Position>
            <AltitudeMeters>18</AltitudeMeters>
            <DistanceMeters>NAN</DistanceMeters>
          </Trackpoint>
          <Trackpoint>
            <Time>2022-07-15T17:15:25.000Z</Time>
            <Position>
              <LatitudeDegrees>43.42031777836382389068603515625</LatitudeDegrees>
              <LongitudeDegrees>-4.754827357828617095947265625</LongitudeDegrees>
            </Position>
            <AltitudeMeters>18</AltitudeMeters>
            <DistanceMeters>NAN</DistanceMeters>
          </Trackpoint>
          <Trackpoint>
            <Time>2022-07-15T17:15:30.000Z</Time>
            <Position>
              <LatitudeDegrees>43.420383073389530181884765625</LatitudeDegrees>
              <LongitudeDegrees>-4.75485074333846569061279296875</LongitudeDegrees>
            </Position>
            <AltitudeMeters>18.200000762939453125</AltitudeMeters>
            <DistanceMeters>NAN</DistanceMeters>
          </Trackpoint>
          <Trackpoint>
            <Time>2022-07-15T17:15:33.000Z</Time>
            <Position>
              <LatitudeDegrees>43.42046747915446758270263671875</LatitudeDegrees>
              <LongitudeDegrees>-4.7549026273190975189208984375</LongitudeDegrees>
            </Position>
            <AltitudeMeters>18.3999996185302734375</AltitudeMeters>
            <DistanceMeters>NAN</DistanceMeters>
          </Trackpoint>
          <Trackpoint>
            <Time>2022-07-15T17:15:34.000Z</Time>
            <Position>
              <LatitudeDegrees>43.42048457823693752288818359375</LatitudeDegrees>
              <LongitudeDegrees>-4.754929952323436737060546875</LongitudeDegrees>
            </Position>
            <AltitudeMeters>18.3999996185302734375</AltitudeMeters>
            <DistanceMeters>NAN</DistanceMeters>
          </Trackpoint>
          <Trackpoint>
            <Time>2022-07-15T17:15:35.000Z</Time>
            <Position>
              <LatitudeDegrees>43.42050301842391490936279296875</LatitudeDegrees>
              <LongitudeDegrees>-4.75497244857251644134521484375</LongitudeDegrees>
            </Position>
            <AltitudeMeters>18.6000003814697265625</AltitudeMeters>
            <DistanceMeters>NAN</DistanceMeters>
          </Trackpoint>
          <Trackpoint>
            <Time>2022-07-15T17:15:37.000Z</Time>
            <Position>
              <LatitudeDegrees>43.4205669723451137542724609375</LatitudeDegrees>
              <LongitudeDegrees>-4.755041599273681640625</LongitudeDegrees>
            </Position>
            <AltitudeMeters>18.6000003814697265625</AltitudeMeters>
            <DistanceMeters>NAN</DistanceMeters>
          </Trackpoint>
          <Trackpoint>
            <Time>2022-07-15T17:15:38.000Z</Time>
            <Position>
              <LatitudeDegrees>43.42058817856013774871826171875</LatitudeDegrees>
              <LongitudeDegrees>-4.755049981176853179931640625</LongitudeDegrees>
            </Position>
            <AltitudeMeters>18.799999237060546875</AltitudeMeters>
            <DistanceMeters>NAN</DistanceMeters>
          </Trackpoint>
          <Trackpoint>
            <Time>2022-07-15T17:15:39.000Z</Time>
            <Position>
              <LatitudeDegrees>43.42061650939285755157470703125</LatitudeDegrees>
              <LongitudeDegrees>-4.75505911745131015777587890625</LongitudeDegrees>
            </Position>
            <AltitudeMeters>18.799999237060546875</AltitudeMeters>
            <DistanceMeters>NAN</DistanceMeters>
          </Trackpoint>
          <Trackpoint>
            <Time>2022-07-15T17:15:42.000Z</Time>
            <Position>
              <LatitudeDegrees>43.42069429345428943634033203125</LatitudeDegrees>
              <LongitudeDegrees>-4.75508158095180988311767578125</LongitudeDegrees>
            </Position>
            <AltitudeMeters>18.799999237060546875</AltitudeMeters>
            <DistanceMeters>NAN</DistanceMeters>
          </Trackpoint>
          <Trackpoint>
            <Time>2022-07-15T17:15:47.000Z</Time>
            <Position>
              <LatitudeDegrees>43.4208499453961849212646484375</LatitudeDegrees>
              <LongitudeDegrees>-4.75515182130038738250732421875</LongitudeDegrees>
            </Position>
            <AltitudeMeters>19</AltitudeMeters>
            <DistanceMeters>NAN</DistanceMeters>
          </Trackpoint>
          <Trackpoint>
            <Time>2022-07-15T17:15:48.000Z</Time>
            <Position>
              <LatitudeDegrees>43.4208640269935131072998046875</LatitudeDegrees>
              <LongitudeDegrees>-4.75516741164028644561767578125</LongitudeDegrees>
            </Position>
            <AltitudeMeters>19</AltitudeMeters>
            <DistanceMeters>NAN</DistanceMeters>
          </Trackpoint>
          <Trackpoint>
            <Time>2022-07-15T17:15:54.000Z</Time>
            <Position>
              <LatitudeDegrees>43.4209059365093708038330078125</LatitudeDegrees>
              <LongitudeDegrees>-4.75528861396014690399169921875</LongitudeDegrees>
            </Position>
            <AltitudeMeters>19.200000762939453125</AltitudeMeters>
            <DistanceMeters>NAN</DistanceMeters>
          </Trackpoint>
          <Trackpoint>
            <Time>2022-07-15T17:16:01.000Z</Time>
            <Position>
              <LatitudeDegrees>43.42092948965728282928466796875</LatitudeDegrees>
              <LongitudeDegrees>-4.75544133223593235015869140625</LongitudeDegrees>
            </Position>
            <AltitudeMeters>19.6000003814697265625</AltitudeMeters>
            <DistanceMeters>NAN</DistanceMeters>
          </Trackpoint>
          <Trackpoint>
            <Time>2022-07-15T17:16:05.000Z</Time>
            <Position>
              <LatitudeDegrees>43.42093803919851779937744140625</LatitudeDegrees>
              <LongitudeDegrees>-4.75552230142056941986083984375</LongitudeDegrees>
            </Position>
            <AltitudeMeters>19.799999237060546875</AltitudeMeters>
            <DistanceMeters>NAN</DistanceMeters>
          </Trackpoint>
          <Trackpoint>
            <Time>2022-07-15T17:16:07.000Z</Time>
            <Position>
              <LatitudeDegrees>43.42093569226562976837158203125</LatitudeDegrees>
              <LongitudeDegrees>-4.755546189844608306884765625</LongitudeDegrees>
            </Position>
            <AltitudeMeters>19.799999237060546875</AltitudeMeters>
            <DistanceMeters>NAN</DistanceMeters>
          </Trackpoint>
          <Trackpoint>
            <Time>2022-07-15T17:16:09.000Z</Time>
            <Position>
              <LatitudeDegrees>43.42093870975077152252197265625</LatitudeDegrees>
              <LongitudeDegrees>-4.7555946372449398040771484375</LongitudeDegrees>
            </Position>
            <AltitudeMeters>20</AltitudeMeters>
            <DistanceMeters>NAN</DistanceMeters>
          </Trackpoint>
          <Trackpoint>
            <Time>2022-07-15T17:16:11.000Z</Time>
            <Position>
              <LatitudeDegrees>43.42095111496746540069580078125</LatitudeDegrees>
              <LongitudeDegrees>-4.75563361309468746185302734375</LongitudeDegrees>
            </Position>
            <AltitudeMeters>20.200000762939453125</AltitudeMeters>
            <DistanceMeters>NAN</DistanceMeters>
          </Trackpoint>
          <Trackpoint>
            <Time>2022-07-15T17:16:12.000Z</Time>
            <Position>
              <LatitudeDegrees>43.42095731757581233978271484375</LatitudeDegrees>
              <LongitudeDegrees>-4.755660183727741241455078125</LongitudeDegrees>
            </Position>
            <AltitudeMeters>20.200000762939453125</AltitudeMeters>
            <DistanceMeters>NAN</DistanceMeters>
          </Trackpoint>
          <Trackpoint>
            <Time>2022-07-15T17:16:18.000Z</Time>
            <Position>
              <LatitudeDegrees>43.4210229478776454925537109375</LatitudeDegrees>
              <LongitudeDegrees>-4.75583779625594615936279296875</LongitudeDegrees>
            </Position>
            <AltitudeMeters>20.200000762939453125</AltitudeMeters>
            <DistanceMeters>NAN</DistanceMeters>
          </Trackpoint>
          <Trackpoint>
            <Time>2022-07-15T17:16:19.000Z</Time>
            <Position>
              <LatitudeDegrees>43.42102386988699436187744140625</LatitudeDegrees>
              <LongitudeDegrees>-4.75587585009634494781494140625</LongitudeDegrees>
            </Position>
            <AltitudeMeters>20.3999996185302734375</AltitudeMeters>
            <DistanceMeters>NAN</DistanceMeters>
          </Trackpoint>
          <Trackpoint>
            <Time>2022-07-15T17:16:21.000Z</Time>
            <Position>
              <LatitudeDegrees>43.42102604918181896209716796875</LatitudeDegrees>
              <LongitudeDegrees>-4.75591239519417285919189453125</LongitudeDegrees>
            </Position>
            <AltitudeMeters>20.3999996185302734375</AltitudeMeters>
            <DistanceMeters>NAN</DistanceMeters>
          </Trackpoint>
          <Trackpoint>
            <Time>2022-07-15T17:16:23.000Z</Time>
            <Position>
              <LatitudeDegrees>43.421028144657611846923828125</LatitudeDegrees>
              <LongitudeDegrees>-4.75596050731837749481201171875</LongitudeDegrees>
            </Position>
            <AltitudeMeters>20.3999996185302734375</AltitudeMeters>
            <DistanceMeters>NAN</DistanceMeters>
          </Trackpoint>
          <Trackpoint>
            <Time>2022-07-15T17:16:25.000Z</Time>
            <Position>
              <LatitudeDegrees>43.42103610746562480926513671875</LatitudeDegrees>
              <LongitudeDegrees>-4.75599101744592189788818359375</LongitudeDegrees>
            </Position>
            <AltitudeMeters>20.3999996185302734375</AltitudeMeters>
            <DistanceMeters>NAN</DistanceMeters>
          </Trackpoint>
          <Trackpoint>
            <Time>2022-07-15T17:16:28.000Z</Time>
            <Position>
              <LatitudeDegrees>43.4210385382175445556640625</LatitudeDegrees>
              <LongitudeDegrees>-4.756046421825885772705078125</LongitudeDegrees>
            </Position>
            <AltitudeMeters>20.3999996185302734375</AltitudeMeters>
            <DistanceMeters>NAN</DistanceMeters>
          </Trackpoint>
          <Trackpoint>
            <Time>2022-07-15T17:16:29.000Z</Time>
            <Position>
              <LatitudeDegrees>43.4210479259490966796875</LatitudeDegrees>
              <LongitudeDegrees>-4.7560667060315608978271484375</LongitudeDegrees>
            </Position>
            <AltitudeMeters>20.3999996185302734375</AltitudeMeters>
            <DistanceMeters>NAN</DistanceMeters>
          </Trackpoint>
          <Trackpoint>
            <Time>2022-07-15T17:16:33.000Z</Time>
            <Position>
              <LatitudeDegrees>43.4210722334682941436767578125</LatitudeDegrees>
              <LongitudeDegrees>-4.7561703063547611236572265625</LongitudeDegrees>
            </Position>
            <AltitudeMeters>20.3999996185302734375</AltitudeMeters>
            <DistanceMeters>NAN</DistanceMeters>
          </Trackpoint>
          <Trackpoint>
            <Time>2022-07-15T17:16:37.000Z</Time>
            <Position>
              <LatitudeDegrees>43.421123363077640533447265625</LatitudeDegrees>
              <LongitudeDegrees>-4.75624029524624347686767578125</LongitudeDegrees>
            </Position>
            <AltitudeMeters>20.6000003814697265625</AltitudeMeters>
            <DistanceMeters>NAN</DistanceMeters>
          </Trackpoint>
          <Trackpoint>
            <Time>2022-07-15T17:16:39.000Z</Time>
            <Position>
              <LatitudeDegrees>43.4211356006562709808349609375</LatitudeDegrees>
              <LongitudeDegrees>-4.75627566687762737274169921875</LongitudeDegrees>
            </Position>
            <AltitudeMeters>20.6000003814697265625</AltitudeMeters>
            <DistanceMeters>NAN</DistanceMeters>
          </Trackpoint>
          <Trackpoint>
            <Time>2022-07-15T17:16:46.000Z</Time>
            <Position>
              <LatitudeDegrees>43.42119636945426464080810546875</LatitudeDegrees>
              <LongitudeDegrees>-4.75636166520416736602783203125</LongitudeDegrees>
            </Position>
            <AltitudeMeters>20.6000003814697265625</AltitudeMeters>
            <DistanceMeters>NAN</DistanceMeters>
          </Trackpoint>
          <Trackpoint>
            <Time>2022-07-15T17:16:51.000Z</Time>
            <Position>
              <LatitudeDegrees>43.421218581497669219970703125</LatitudeDegrees>
              <LongitudeDegrees>-4.75638563744723796844482421875</LongitudeDegrees>
            </Position>
            <AltitudeMeters>20.799999237060546875</AltitudeMeters>
            <DistanceMeters>NAN</DistanceMeters>
          </Trackpoint>
          <Trackpoint>
            <Time>2022-07-15T17:18:03.000Z</Time>
            <Position>
              <LatitudeDegrees>43.42122939415276050567626953125</LatitudeDegrees>
              <LongitudeDegrees>-4.75644330494105815887451171875</LongitudeDegrees>
            </Position>
            <AltitudeMeters>21</AltitudeMeters>
            <DistanceMeters>NAN</DistanceMeters>
          </Trackpoint>
          <Trackpoint>
            <Time>2022-07-15T17:18:05.000Z</Time>
            <Position>
              <LatitudeDegrees>43.42122369445860385894775390625</LatitudeDegrees>
              <LongitudeDegrees>-4.756515137851238250732421875</LongitudeDegrees>
            </Position>
            <AltitudeMeters>21</AltitudeMeters>
            <DistanceMeters>NAN</DistanceMeters>
          </Trackpoint>
          <Trackpoint>
            <Time>2022-07-15T17:18:09.000Z</Time>
            <Position>
              <LatitudeDegrees>43.42124640941619873046875</LatitudeDegrees>
              <LongitudeDegrees>-4.75667866878211498260498046875</LongitudeDegrees>
            </Position>
            <AltitudeMeters>21.200000762939453125</AltitudeMeters>
            <DistanceMeters>NAN</DistanceMeters>
          </Trackpoint>
          <Trackpoint>
            <Time>2022-07-15T17:18:12.000Z</Time>
            <Position>
              <LatitudeDegrees>43.4212583117187023162841796875</LatitudeDegrees>
              <LongitudeDegrees>-4.756780676543712615966796875</LongitudeDegrees>
            </Position>
            <AltitudeMeters>21.6000003814697265625</AltitudeMeters>
            <DistanceMeters>NAN</DistanceMeters>
          </Trackpoint>
          <Trackpoint>
            <Time>2022-07-15T17:18:14.000Z</Time>
            <Position>
              <LatitudeDegrees>43.42126912437379360198974609375</LatitudeDegrees>
              <LongitudeDegrees>-4.75682283751666545867919921875</LongitudeDegrees>
            </Position>
            <AltitudeMeters>21.799999237060546875</AltitudeMeters>
            <DistanceMeters>NAN</DistanceMeters>
          </Trackpoint>
          <Trackpoint>
            <Time>2022-07-15T17:18:17.000Z</Time>
            <Position>
              <LatitudeDegrees>43.42130885459482669830322265625</LatitudeDegrees>
              <LongitudeDegrees>-4.7568686865270137786865234375</LongitudeDegrees>
            </Position>
            <AltitudeMeters>22.200000762939453125</AltitudeMeters>
            <DistanceMeters>NAN</DistanceMeters>
          </Trackpoint>
          <Trackpoint>
            <Time>2022-07-15T17:18:19.000Z</Time>
            <Position>
              <LatitudeDegrees>43.42133693397045135498046875</LatitudeDegrees>
              <LongitudeDegrees>-4.7568693570792675018310546875</LongitudeDegrees>
            </Position>
            <AltitudeMeters>22.200000762939453125</AltitudeMeters>
            <DistanceMeters>NAN</DistanceMeters>
          </Trackpoint>
          <Trackpoint>
            <Time>2022-07-15T17:18:24.000Z</Time>
            <Position>
              <LatitudeDegrees>43.421437181532382965087890625</LatitudeDegrees>
              <LongitudeDegrees>-4.75686994381248950958251953125</LongitudeDegrees>
            </Position>
            <AltitudeMeters>22.799999237060546875</AltitudeMeters>
            <DistanceMeters>NAN</DistanceMeters>
          </Trackpoint>
          <Trackpoint>
            <Time>2022-07-15T17:18:27.000Z</Time>
            <Position>
              <LatitudeDegrees>43.4214945137500762939453125</LatitudeDegrees>
              <LongitudeDegrees>-4.75687078200280666351318359375</LongitudeDegrees>
            </Position>
            <AltitudeMeters>23</AltitudeMeters>
            <DistanceMeters>NAN</DistanceMeters>
          </Trackpoint>
          <Trackpoint>
            <Time>2022-07-15T17:18:30.000Z</Time>
            <Position>
              <LatitudeDegrees>43.4215664304792881011962890625</LatitudeDegrees>
              <LongitudeDegrees>-4.75686860270798206329345703125</LongitudeDegrees>
            </Position>
            <AltitudeMeters>23.200000762939453125</AltitudeMeters>
            <DistanceMeters>NAN</DistanceMeters>
          </Trackpoint>
          <Trackpoint>
            <Time>2022-07-15T17:18:34.000Z</Time>
            <Position>
              <LatitudeDegrees>43.421648405492305755615234375</LatitudeDegrees>
              <LongitudeDegrees>-4.7568670101463794708251953125</LongitudeDegrees>
            </Position>
            <AltitudeMeters>23.6000003814697265625</AltitudeMeters>
            <DistanceMeters>NAN</DistanceMeters>
          </Trackpoint>
          <Trackpoint>
            <Time>2022-07-15T17:18:36.000Z</Time>
            <Position>
              <LatitudeDegrees>43.42164999805390834808349609375</LatitudeDegrees>
              <LongitudeDegrees>-4.7567935846745967864990234375</LongitudeDegrees>
            </Position>
            <AltitudeMeters>23.799999237060546875</AltitudeMeters>
            <DistanceMeters>NAN</DistanceMeters>
          </Trackpoint>
          <Trackpoint>
            <Time>2022-07-15T17:18:38.000Z</Time>
            <Position>
              <LatitudeDegrees>43.42167531140148639678955078125</LatitudeDegrees>
              <LongitudeDegrees>-4.75674153305590152740478515625</LongitudeDegrees>
            </Position>
            <AltitudeMeters>24</AltitudeMeters>
            <DistanceMeters>NAN</DistanceMeters>
          </Trackpoint>
          <Trackpoint>
            <Time>2022-07-15T17:18:40.000Z</Time>
            <Position>
              <LatitudeDegrees>43.42169769108295440673828125</LatitudeDegrees>
              <LongitudeDegrees>-4.75673046894371509552001953125</LongitudeDegrees>
            </Position>
            <AltitudeMeters>24</AltitudeMeters>
            <DistanceMeters>NAN</DistanceMeters>
          </Trackpoint>
          <Trackpoint>
            <Time>2022-07-15T17:18:44.000Z</Time>
            <Position>
              <LatitudeDegrees>43.421767763793468475341796875</LatitudeDegrees>
              <LongitudeDegrees>-4.75670984946191310882568359375</LongitudeDegrees>
            </Position>
            <AltitudeMeters>23.799999237060546875</AltitudeMeters>
            <DistanceMeters>NAN</DistanceMeters>
          </Trackpoint>
          <Trackpoint>
            <Time>2022-07-15T17:18:45.000Z</Time>
            <Position>
              <LatitudeDegrees>43.4217830188572406768798828125</LatitudeDegrees>
              <LongitudeDegrees>-4.75669660605490207672119140625</LongitudeDegrees>
            </Position>
            <AltitudeMeters>23.799999237060546875</AltitudeMeters>
            <DistanceMeters>NAN</DistanceMeters>
          </Trackpoint>
          <Trackpoint>
            <Time>2022-07-15T17:18:50.000Z</Time>
            <Position>
              <LatitudeDegrees>43.42180657200515270233154296875</LatitudeDegrees>
              <LongitudeDegrees>-4.7566509246826171875</LongitudeDegrees>
            </Position>
            <AltitudeMeters>24</AltitudeMeters>
            <DistanceMeters>NAN</DistanceMeters>
          </Trackpoint>
          <Trackpoint>
            <Time>2022-07-15T17:19:48.000Z</Time>
            <Position>
              <LatitudeDegrees>43.421832136809825897216796875</LatitudeDegrees>
              <LongitudeDegrees>-4.75664111785590648651123046875</LongitudeDegrees>
            </Position>
            <AltitudeMeters>24</AltitudeMeters>
            <DistanceMeters>NAN</DistanceMeters>
          </Trackpoint>
          <Trackpoint>
            <Time>2022-07-15T17:19:49.000Z</Time>
            <Position>
              <LatitudeDegrees>43.4218594618141651153564453125</LatitudeDegrees>
              <LongitudeDegrees>-4.75662318058311939239501953125</LongitudeDegrees>
            </Position>
            <AltitudeMeters>24</AltitudeMeters>
            <DistanceMeters>NAN</DistanceMeters>
          </Trackpoint>
          <Trackpoint>
            <Time>2022-07-15T17:19:52.000Z</Time>
            <Position>
              <LatitudeDegrees>43.4219424426555633544921875</LatitudeDegrees>
              <LongitudeDegrees>-4.75656299851834774017333984375</LongitudeDegrees>
            </Position>
            <AltitudeMeters>24.200000762939453125</AltitudeMeters>
            <DistanceMeters>NAN</DistanceMeters>
          </Trackpoint>
          <Trackpoint>
            <Time>2022-07-15T17:19:54.000Z</Time>
            <Position>
              <LatitudeDegrees>43.4219907224178314208984375</LatitudeDegrees>
              <LongitudeDegrees>-4.75652460940182209014892578125</LongitudeDegrees>
            </Position>
            <AltitudeMeters>24.200000762939453125</AltitudeMeters>
            <DistanceMeters>NAN</DistanceMeters>
          </Trackpoint>
          <Trackpoint>
            <Time>2022-07-15T17:19:55.000Z</Time>
            <Position>
              <LatitudeDegrees>43.4220083244144916534423828125</LatitudeDegrees>
              <LongitudeDegrees>-4.75649912841618061065673828125</LongitudeDegrees>
            </Position>
            <AltitudeMeters>24.6000003814697265625</AltitudeMeters>
            <DistanceMeters>NAN</DistanceMeters>
          </Trackpoint>
          <Trackpoint>
            <Time>2022-07-15T17:19:58.000Z</Time>
            <Position>
              <LatitudeDegrees>43.42203506268560886383056640625</LatitudeDegrees>
              <LongitudeDegrees>-4.756406843662261962890625</LongitudeDegrees>
            </Position>
            <AltitudeMeters>24.799999237060546875</AltitudeMeters>
            <DistanceMeters>NAN</DistanceMeters>
          </Trackpoint>
          <Trackpoint>
            <Time>2022-07-15T17:19:59.000Z</Time>
            <Position>
              <LatitudeDegrees>43.42203430831432342529296875</LatitudeDegrees>
              <LongitudeDegrees>-4.75637800991535186767578125</LongitudeDegrees>
            </Position>
            <AltitudeMeters>24.799999237060546875</AltitudeMeters>
            <DistanceMeters>NAN</DistanceMeters>
          </Trackpoint>
          <Trackpoint>
            <Time>2022-07-15T17:20:02.000Z</Time>
            <Position>
              <LatitudeDegrees>43.4220094978809356689453125</LatitudeDegrees>
              <LongitudeDegrees>-4.756282456219196319580078125</LongitudeDegrees>
            </Position>
            <AltitudeMeters>25</AltitudeMeters>
            <DistanceMeters>NAN</DistanceMeters>
          </Trackpoint>
          <Trackpoint>
            <Time>2022-07-15T17:20:09.000Z</Time>
            <Position>
              <LatitudeDegrees>43.42198661528527736663818359375</LatitudeDegrees>
              <LongitudeDegrees>-4.75596335716545581817626953125</LongitudeDegrees>
            </Position>
            <AltitudeMeters>24.799999237060546875</AltitudeMeters>
            <DistanceMeters>NAN</DistanceMeters>
          </Trackpoint>
          <Trackpoint>
            <Time>2022-07-15T17:20:14.000Z</Time>
            <Position>
              <LatitudeDegrees>43.42193800024688243865966796875</LatitudeDegrees>
              <LongitudeDegrees>-4.7557807154953479766845703125</LongitudeDegrees>
            </Position>
            <AltitudeMeters>24.3999996185302734375</AltitudeMeters>
            <DistanceMeters>NAN</DistanceMeters>
          </Trackpoint>
          <Trackpoint>
            <Time>2022-07-15T17:20:19.000Z</Time>
            <Position>
              <LatitudeDegrees>43.42195828445255756378173828125</LatitudeDegrees>
              <LongitudeDegrees>-4.75556706078350543975830078125</LongitudeDegrees>
            </Position>
            <AltitudeMeters>24.3999996185302734375</AltitudeMeters>
            <DistanceMeters>NAN</DistanceMeters>
          </Trackpoint>
          <Trackpoint>
            <Time>2022-07-15T17:20:23.000Z</Time>
            <Position>
              <LatitudeDegrees>43.421999774873256683349609375</LatitudeDegrees>
              <LongitudeDegrees>-4.7553974948823451995849609375</LongitudeDegrees>
            </Position>
            <AltitudeMeters>24.6000003814697265625</AltitudeMeters>
            <DistanceMeters>NAN</DistanceMeters>
          </Trackpoint>
          <Trackpoint>
            <Time>2022-07-15T17:20:26.000Z</Time>
            <Position>
              <LatitudeDegrees>43.421994745731353759765625</LatitudeDegrees>
              <LongitudeDegrees>-4.75526061840355396270751953125</LongitudeDegrees>
            </Position>
            <AltitudeMeters>24.3999996185302734375</AltitudeMeters>
            <DistanceMeters>NAN</DistanceMeters>
          </Trackpoint>
          <Trackpoint>
            <Time>2022-07-15T17:20:31.000Z</Time>
            <Position>
              <LatitudeDegrees>43.4219768084585666656494140625</LatitudeDegrees>
              <LongitudeDegrees>-4.7550950758159160614013671875</LongitudeDegrees>
            </Position>
            <AltitudeMeters>24</AltitudeMeters>
            <DistanceMeters>NAN</DistanceMeters>
          </Trackpoint>
          <Trackpoint>
            <Time>2022-07-15T17:20:32.000Z</Time>
            <Position>
              <LatitudeDegrees>43.42197873629629611968994140625</LatitudeDegrees>
              <LongitudeDegrees>-4.75506699644029140472412109375</LongitudeDegrees>
            </Position>
            <AltitudeMeters>23.799999237060546875</AltitudeMeters>
            <DistanceMeters>NAN</DistanceMeters>
          </Trackpoint>
          <Trackpoint>
            <Time>2022-07-15T17:20:36.000Z</Time>
            <Position>
              <LatitudeDegrees>43.42203489504754543304443359375</LatitudeDegrees>
              <LongitudeDegrees>-4.75494730286300182342529296875</LongitudeDegrees>
            </Position>
            <AltitudeMeters>23.799999237060546875</AltitudeMeters>
            <DistanceMeters>NAN</DistanceMeters>
          </Trackpoint>
          <Trackpoint>
            <Time>2022-07-15T17:20:42.000Z</Time>
            <Position>
              <LatitudeDegrees>43.422119133174419403076171875</LatitudeDegrees>
              <LongitudeDegrees>-4.7546659223735332489013671875</LongitudeDegrees>
            </Position>
            <AltitudeMeters>23.6000003814697265625</AltitudeMeters>
            <DistanceMeters>NAN</DistanceMeters>
          </Trackpoint>
          <Trackpoint>
            <Time>2022-07-15T17:20:45.000Z</Time>
            <Position>
              <LatitudeDegrees>43.4221840091049671173095703125</LatitudeDegrees>
              <LongitudeDegrees>-4.75448981858789920806884765625</LongitudeDegrees>
            </Position>
            <AltitudeMeters>23.3999996185302734375</AltitudeMeters>
            <DistanceMeters>NAN</DistanceMeters>
          </Trackpoint>
          <Trackpoint>
            <Time>2022-07-15T17:20:47.000Z</Time>
            <Position>
              <LatitudeDegrees>43.42223220504820346832275390625</LatitudeDegrees>
              <LongitudeDegrees>-4.75436023436486721038818359375</LongitudeDegrees>
            </Position>
            <AltitudeMeters>23.3999996185302734375</AltitudeMeters>
            <DistanceMeters>NAN</DistanceMeters>
          </Trackpoint>
          <Trackpoint>
            <Time>2022-07-15T17:20:49.000Z</Time>
            <Position>
              <LatitudeDegrees>43.4222631342709064483642578125</LatitudeDegrees>
              <LongitudeDegrees>-4.754227884113788604736328125</LongitudeDegrees>
            </Position>
            <AltitudeMeters>23.200000762939453125</AltitudeMeters>
            <DistanceMeters>NAN</DistanceMeters>
          </Trackpoint>
          <Trackpoint>
            <Time>2022-07-15T17:20:50.000Z</Time>
            <Position>
              <LatitudeDegrees>43.42227076180279254913330078125</LatitudeDegrees>
              <LongitudeDegrees>-4.75415982306003570556640625</LongitudeDegrees>
            </Position>
            <AltitudeMeters>23</AltitudeMeters>
            <DistanceMeters>NAN</DistanceMeters>
          </Trackpoint>
          <Trackpoint>
            <Time>2022-07-15T17:20:54.000Z</Time>
            <Position>
              <LatitudeDegrees>43.4222752042114734649658203125</LatitudeDegrees>
              <LongitudeDegrees>-4.7538931109011173248291015625</LongitudeDegrees>
            </Position>
            <AltitudeMeters>22.200000762939453125</AltitudeMeters>
            <DistanceMeters>NAN</DistanceMeters>
          </Trackpoint>
          <Trackpoint>
            <Time>2022-07-15T17:20:57.000Z</Time>
            <Position>
              <LatitudeDegrees>43.422298170626163482666015625</LatitudeDegrees>
              <LongitudeDegrees>-4.7537152469158172607421875</LongitudeDegrees>
            </Position>
            <AltitudeMeters>22</AltitudeMeters>
            <DistanceMeters>NAN</DistanceMeters>
          </Trackpoint>
          <Trackpoint>
            <Time>2022-07-15T17:20:59.000Z</Time>
            <Position>
              <LatitudeDegrees>43.42232155613601207733154296875</LatitudeDegrees>
              <LongitudeDegrees>-4.75360821001231670379638671875</LongitudeDegrees>
            </Position>
            <AltitudeMeters>22</AltitudeMeters>
            <DistanceMeters>NAN</DistanceMeters>
          </Trackpoint>
          <Trackpoint>
            <Time>2022-07-15T17:21:03.000Z</Time>
            <Position>
              <LatitudeDegrees>43.422379307448863983154296875</LatitudeDegrees>
              <LongitudeDegrees>-4.75347912870347499847412109375</LongitudeDegrees>
            </Position>
            <AltitudeMeters>21.3999996185302734375</AltitudeMeters>
            <DistanceMeters>NAN</DistanceMeters>
          </Trackpoint>
          <Trackpoint>
            <Time>2022-07-15T17:21:05.000Z</Time>
            <Position>
              <LatitudeDegrees>43.4224223904311656951904296875</LatitudeDegrees>
              <LongitudeDegrees>-4.75345431827008724212646484375</LongitudeDegrees>
            </Position>
            <AltitudeMeters>21.200000762939453125</AltitudeMeters>
            <DistanceMeters>NAN</DistanceMeters>
          </Trackpoint>
          <Trackpoint>
            <Time>2022-07-15T17:21:08.000Z</Time>
            <Position>
              <LatitudeDegrees>43.42244292609393596649169921875</LatitudeDegrees>
              <LongitudeDegrees>-4.75344476290047168731689453125</LongitudeDegrees>
            </Position>
            <AltitudeMeters>21.200000762939453125</AltitudeMeters>
            <DistanceMeters>NAN</DistanceMeters>
          </Trackpoint>
          <Trackpoint>
            <Time>2022-07-15T17:21:11.000Z</Time>
            <Position>
              <LatitudeDegrees>43.422445692121982574462890625</LatitudeDegrees>
              <LongitudeDegrees>-4.7534183599054813385009765625</LongitudeDegrees>
            </Position>
            <AltitudeMeters>21</AltitudeMeters>
            <DistanceMeters>NAN</DistanceMeters>
          </Trackpoint>
          <Trackpoint>
            <Time>2022-07-15T17:21:13.000Z</Time>
            <Position>
              <LatitudeDegrees>43.4224448539316654205322265625</LatitudeDegrees>
              <LongitudeDegrees>-4.75341425277292728424072265625</LongitudeDegrees>
            </Position>
            <AltitudeMeters>21</AltitudeMeters>
            <DistanceMeters>NAN</DistanceMeters>
          </Trackpoint>
          <Trackpoint>
            <Time>2022-07-15T17:21:14.000Z</Time>
            <Position>
              <LatitudeDegrees>43.4224448539316654205322265625</LatitudeDegrees>
              <LongitudeDegrees>-4.75341425277292728424072265625</LongitudeDegrees>
            </Position>
            <AltitudeMeters>21</AltitudeMeters>
            <DistanceMeters>NAN</DistanceMeters>
          </Trackpoint>
          <Trackpoint>
            <Time>2022-07-15T17:21:43.000Z</Time>
            <Position>
              <LatitudeDegrees>43.4223831631243228912353515625</LatitudeDegrees>
              <LongitudeDegrees>-4.7534492053091526031494140625</LongitudeDegrees>
            </Position>
            <AltitudeMeters>21.3999996185302734375</AltitudeMeters>
            <DistanceMeters>NAN</DistanceMeters>
          </Trackpoint>
          <Trackpoint>
            <Time>2022-07-15T17:21:46.000Z</Time>
            <Position>
              <LatitudeDegrees>43.42233748175203800201416015625</LatitudeDegrees>
              <LongitudeDegrees>-4.7534153424203395843505859375</LongitudeDegrees>
            </Position>
            <AltitudeMeters>21.3999996185302734375</AltitudeMeters>
            <DistanceMeters>NAN</DistanceMeters>
          </Trackpoint>
          <Trackpoint>
            <Time>2022-07-15T17:21:47.000Z</Time>
            <Position>
              <LatitudeDegrees>43.4223164431750774383544921875</LatitudeDegrees>
              <LongitudeDegrees>-4.75340905599296092987060546875</LongitudeDegrees>
            </Position>
            <AltitudeMeters>21.6000003814697265625</AltitudeMeters>
            <DistanceMeters>NAN</DistanceMeters>
          </Trackpoint>
          <Trackpoint>
            <Time>2022-07-15T17:21:50.000Z</Time>
            <Position>
              <LatitudeDegrees>43.42226489447057247161865234375</LatitudeDegrees>
              <LongitudeDegrees>-4.75346169434487819671630859375</LongitudeDegrees>
            </Position>
            <AltitudeMeters>21.6000003814697265625</AltitudeMeters>
            <DistanceMeters>NAN</DistanceMeters>
          </Trackpoint>
          <Trackpoint>
            <Time>2022-07-15T17:21:55.000Z</Time>
            <Position>
              <LatitudeDegrees>43.42223941348493099212646484375</LatitudeDegrees>
              <LongitudeDegrees>-4.7535668872296810150146484375</LongitudeDegrees>
            </Position>
            <AltitudeMeters>21.799999237060546875</AltitudeMeters>
            <DistanceMeters>NAN</DistanceMeters>
          </Trackpoint>
          <Trackpoint>
            <Time>2022-07-15T17:21:56.000Z</Time>
            <Position>
              <LatitudeDegrees>43.42222700826823711395263671875</LatitudeDegrees>
              <LongitudeDegrees>-4.7535675577819347381591796875</LongitudeDegrees>
            </Position>
            <AltitudeMeters>21.799999237060546875</AltitudeMeters>
            <DistanceMeters>NAN</DistanceMeters>
          </Trackpoint>
          <Trackpoint>
            <Time>2022-07-15T17:22:01.000Z</Time>
            <Position>
              <LatitudeDegrees>43.42214033938944339752197265625</LatitudeDegrees>
              <LongitudeDegrees>-4.75353612564504146575927734375</LongitudeDegrees>
            </Position>
            <AltitudeMeters>22.200000762939453125</AltitudeMeters>
            <DistanceMeters>NAN</DistanceMeters>
          </Trackpoint>
          <Trackpoint>
            <Time>2022-07-15T17:22:02.000Z</Time>
            <Position>
              <LatitudeDegrees>43.422116450965404510498046875</LatitudeDegrees>
              <LongitudeDegrees>-4.75353713147342205047607421875</LongitudeDegrees>
            </Position>
            <AltitudeMeters>22.3999996185302734375</AltitudeMeters>
            <DistanceMeters>NAN</DistanceMeters>
          </Trackpoint>
          <Trackpoint>
            <Time>2022-07-15T17:22:07.000Z</Time>
            <Position>
              <LatitudeDegrees>43.42198862694203853607177734375</LatitudeDegrees>
              <LongitudeDegrees>-4.753537215292453765869140625</LongitudeDegrees>
            </Position>
            <AltitudeMeters>23.3999996185302734375</AltitudeMeters>
            <DistanceMeters>NAN</DistanceMeters>
          </Trackpoint>
          <Trackpoint>
            <Time>2022-07-15T17:22:10.000Z</Time>
            <Position>
              <LatitudeDegrees>43.42192492447793483734130859375</LatitudeDegrees>
              <LongitudeDegrees>-4.75356244482100009918212890625</LongitudeDegrees>
            </Position>
            <AltitudeMeters>23.799999237060546875</AltitudeMeters>
            <DistanceMeters>NAN</DistanceMeters>
          </Trackpoint>
          <Trackpoint>
            <Time>2022-07-15T17:22:16.000Z</Time>
            <Position>
              <LatitudeDegrees>43.42179835774004459381103515625</LatitudeDegrees>
              <LongitudeDegrees>-4.75362044759094715118408203125</LongitudeDegrees>
            </Position>
            <AltitudeMeters>24.3999996185302734375</AltitudeMeters>
            <DistanceMeters>NAN</DistanceMeters>
          </Trackpoint>
          <Trackpoint>
            <Time>2022-07-15T17:22:19.000Z</Time>
            <Position>
              <LatitudeDegrees>43.42174689285457134246826171875</LatitudeDegrees>
              <LongitudeDegrees>-4.7536428272724151611328125</LongitudeDegrees>
            </Position>
            <AltitudeMeters>24.799999237060546875</AltitudeMeters>
            <DistanceMeters>NAN</DistanceMeters>
          </Trackpoint>
          <Trackpoint>
            <Time>2022-07-15T17:22:25.000Z</Time>
            <Position>
              <LatitudeDegrees>43.42165905050933361053466796875</LatitudeDegrees>
              <LongitudeDegrees>-4.75369504652917385101318359375</LongitudeDegrees>
            </Position>
            <AltitudeMeters>25.3999996185302734375</AltitudeMeters>
            <DistanceMeters>NAN</DistanceMeters>
          </Trackpoint>
          <Trackpoint>
            <Time>2022-07-15T17:22:27.000Z</Time>
            <Position>
              <LatitudeDegrees>43.42163742519915103912353515625</LatitudeDegrees>
              <LongitudeDegrees>-4.75372270680963993072509765625</LongitudeDegrees>
            </Position>
            <AltitudeMeters>25.3999996185302734375</AltitudeMeters>
            <DistanceMeters>NAN</DistanceMeters>
          </Trackpoint>
          <Trackpoint>
            <Time>2022-07-15T17:22:29.000Z</Time>
            <Position>
              <LatitudeDegrees>43.4216173924505710601806640625</LatitudeDegrees>
              <LongitudeDegrees>-4.75375346839427947998046875</LongitudeDegrees>
            </Position>
            <AltitudeMeters>25.6000003814697265625</AltitudeMeters>
            <DistanceMeters>NAN</DistanceMeters>
          </Trackpoint>
          <Trackpoint>
            <Time>2022-07-15T17:22:32.000Z</Time>
            <Position>
              <LatitudeDegrees>43.421592079102993011474609375</LatitudeDegrees>
              <LongitudeDegrees>-4.75384525023400783538818359375</LongitudeDegrees>
            </Position>
            <AltitudeMeters>25.6000003814697265625</AltitudeMeters>
            <DistanceMeters>NAN</DistanceMeters>
          </Trackpoint>
          <Trackpoint>
            <Time>2022-07-15T17:22:36.000Z</Time>
            <Position>
              <LatitudeDegrees>43.42157791368663311004638671875</LatitudeDegrees>
              <LongitudeDegrees>-4.75399796850979328155517578125</LongitudeDegrees>
            </Position>
            <AltitudeMeters>25.3999996185302734375</AltitudeMeters>
            <DistanceMeters>NAN</DistanceMeters>
          </Trackpoint>
          <Trackpoint>
            <Time>2022-07-15T17:22:41.000Z</Time>
            <Position>
              <LatitudeDegrees>43.42150993645191192626953125</LatitudeDegrees>
              <LongitudeDegrees>-4.75420550443232059478759765625</LongitudeDegrees>
            </Position>
            <AltitudeMeters>25</AltitudeMeters>
            <DistanceMeters>NAN</DistanceMeters>
          </Trackpoint>
          <Trackpoint>
            <Time>2022-07-15T17:22:42.000Z</Time>
            <Position>
              <LatitudeDegrees>43.4214852936565876007080078125</LatitudeDegrees>
              <LongitudeDegrees>-4.75423852913081645965576171875</LongitudeDegrees>
            </Position>
            <AltitudeMeters>25</AltitudeMeters>
            <DistanceMeters>NAN</DistanceMeters>
          </Trackpoint>
          <Trackpoint>
            <Time>2022-07-15T17:22:45.000Z</Time>
            <Position>
              <LatitudeDegrees>43.42143072746694087982177734375</LatitudeDegrees>
              <LongitudeDegrees>-4.754302985966205596923828125</LongitudeDegrees>
            </Position>
            <AltitudeMeters>24.799999237060546875</AltitudeMeters>
            <DistanceMeters>NAN</DistanceMeters>
          </Trackpoint>
          <Trackpoint>
            <Time>2022-07-15T17:22:47.000Z</Time>
            <Position>
              <LatitudeDegrees>43.42141203582286834716796875</LatitudeDegrees>
              <LongitudeDegrees>-4.7543132118880748748779296875</LongitudeDegrees>
            </Position>
            <AltitudeMeters>24.6000003814697265625</AltitudeMeters>
            <DistanceMeters>NAN</DistanceMeters>
          </Trackpoint>
          <Trackpoint>
            <Time>2022-07-15T17:22:50.000Z</Time>
            <Position>
              <LatitudeDegrees>43.42138865031301975250244140625</LatitudeDegrees>
              <LongitudeDegrees>-4.75431765429675579071044921875</LongitudeDegrees>
            </Position>
            <AltitudeMeters>24.3999996185302734375</AltitudeMeters>
            <DistanceMeters>NAN</DistanceMeters>
          </Trackpoint>
          <Trackpoint>
            <Time>2022-07-15T17:22:53.000Z</Time>
            <Position>
              <LatitudeDegrees>43.42132151126861572265625</LatitudeDegrees>
              <LongitudeDegrees>-4.75430927239358425140380859375</LongitudeDegrees>
            </Position>
            <AltitudeMeters>24.200000762939453125</AltitudeMeters>
            <DistanceMeters>NAN</DistanceMeters>
          </Trackpoint>
          <Trackpoint>
            <Time>2022-07-15T17:22:58.000Z</Time>
            <Position>
              <LatitudeDegrees>43.42120952904224395751953125</LatitudeDegrees>
              <LongitudeDegrees>-4.7542709670960903167724609375</LongitudeDegrees>
            </Position>
            <AltitudeMeters>23.3999996185302734375</AltitudeMeters>
            <DistanceMeters>NAN</DistanceMeters>
          </Trackpoint>
          <Trackpoint>
            <Time>2022-07-15T17:23:01.000Z</Time>
            <Position>
              <LatitudeDegrees>43.421206176280975341796875</LatitudeDegrees>
              <LongitudeDegrees>-4.754267446696758270263671875</LongitudeDegrees>
            </Position>
            <AltitudeMeters>23</AltitudeMeters>
            <DistanceMeters>NAN</DistanceMeters>
          </Trackpoint>
          <Trackpoint>
            <Time>2022-07-15T17:23:06.000Z</Time>
            <Position>
              <LatitudeDegrees>43.42122151516377925872802734375</LatitudeDegrees>
              <LongitudeDegrees>-4.75423467345535755157470703125</LongitudeDegrees>
            </Position>
            <AltitudeMeters>22.799999237060546875</AltitudeMeters>
            <DistanceMeters>NAN</DistanceMeters>
          </Trackpoint>
          <Trackpoint>
            <Time>2022-07-15T17:23:11.000Z</Time>
            <Position>
              <LatitudeDegrees>43.421273566782474517822265625</LatitudeDegrees>
              <LongitudeDegrees>-4.75414716638624668121337890625</LongitudeDegrees>
            </Position>
            <AltitudeMeters>23.3999996185302734375</AltitudeMeters>
            <DistanceMeters>NAN</DistanceMeters>
          </Trackpoint>
          <Trackpoint>
            <Time>2022-07-15T17:23:13.000Z</Time>
            <Position>
              <LatitudeDegrees>43.42128865420818328857421875</LatitudeDegrees>
              <LongitudeDegrees>-4.7541063465178012847900390625</LongitudeDegrees>
            </Position>
            <AltitudeMeters>24</AltitudeMeters>
            <DistanceMeters>NAN</DistanceMeters>
          </Trackpoint>
          <Trackpoint>
            <Time>2022-07-15T17:23:14.000Z</Time>
            <Position>
              <LatitudeDegrees>43.421295024454593658447265625</LatitudeDegrees>
              <LongitudeDegrees>-4.7540818713605403900146484375</LongitudeDegrees>
            </Position>
            <AltitudeMeters>24.3999996185302734375</AltitudeMeters>
            <DistanceMeters>NAN</DistanceMeters>
          </Trackpoint>
          <Trackpoint>
            <Time>2022-07-15T17:23:15.000Z</Time>
            <Position>
              <LatitudeDegrees>43.4212925098836421966552734375</LatitudeDegrees>
              <LongitudeDegrees>-4.754066281020641326904296875</LongitudeDegrees>
            </Position>
            <AltitudeMeters>24.3999996185302734375</AltitudeMeters>
            <DistanceMeters>NAN</DistanceMeters>
          </Trackpoint>
          <Trackpoint>
            <Time>2022-07-15T17:23:18.000Z</Time>
            <Position>
              <LatitudeDegrees>43.42127683572471141815185546875</LatitudeDegrees>
              <LongitudeDegrees>-4.75404557771980762481689453125</LongitudeDegrees>
            </Position>
            <AltitudeMeters>25</AltitudeMeters>
            <DistanceMeters>NAN</DistanceMeters>
          </Trackpoint>
          <Trackpoint>
            <Time>2022-07-15T17:23:22.000Z</Time>
            <Position>
              <LatitudeDegrees>43.42127683572471141815185546875</LatitudeDegrees>
              <LongitudeDegrees>-4.75404557771980762481689453125</LongitudeDegrees>
            </Position>
            <AltitudeMeters>25</AltitudeMeters>
            <DistanceMeters>NAN</DistanceMeters>
          </Trackpoint>
          <Trackpoint>
            <Time>2022-07-15T17:24:02.000Z</Time>
            <Position>
              <LatitudeDegrees>43.4211667813360691070556640625</LatitudeDegrees>
              <LongitudeDegrees>-4.7540912590920925140380859375</LongitudeDegrees>
            </Position>
            <AltitudeMeters>25.3999996185302734375</AltitudeMeters>
            <DistanceMeters>NAN</DistanceMeters>
          </Trackpoint>
          <Trackpoint>
            <Time>2022-07-15T17:24:03.000Z</Time>
            <Position>
              <LatitudeDegrees>43.42110215686261653900146484375</LatitudeDegrees>
              <LongitudeDegrees>-4.75407826714217662811279296875</LongitudeDegrees>
            </Position>
            <AltitudeMeters>25.3999996185302734375</AltitudeMeters>
            <DistanceMeters>NAN</DistanceMeters>
          </Trackpoint>
          <Trackpoint>
            <Time>2022-07-15T17:24:05.000Z</Time>
            <Position>
              <LatitudeDegrees>43.42105102725327014923095703125</LatitudeDegrees>
              <LongitudeDegrees>-4.75405789911746978759765625</LongitudeDegrees>
            </Position>
            <AltitudeMeters>25.3999996185302734375</AltitudeMeters>
            <DistanceMeters>NAN</DistanceMeters>
          </Trackpoint>
          <Trackpoint>
            <Time>2022-07-15T17:24:10.000Z</Time>
            <Position>
              <LatitudeDegrees>43.42101263813674449920654296875</LatitudeDegrees>
              <LongitudeDegrees>-4.75398019887506961822509765625</LongitudeDegrees>
            </Position>
            <AltitudeMeters>25.3999996185302734375</AltitudeMeters>
            <DistanceMeters>NAN</DistanceMeters>
          </Trackpoint>
          <Trackpoint>
            <Time>2022-07-15T17:24:16.000Z</Time>
            <Position>
              <LatitudeDegrees>43.4210068546235561370849609375</LatitudeDegrees>
              <LongitudeDegrees>-4.75395555607974529266357421875</LongitudeDegrees>
            </Position>
            <AltitudeMeters>25.200000762939453125</AltitudeMeters>
            <DistanceMeters>NAN</DistanceMeters>
          </Trackpoint>
          <Trackpoint>
            <Time>2022-07-15T17:24:22.000Z</Time>
            <Position>
              <LatitudeDegrees>43.42099319212138652801513671875</LatitudeDegrees>
              <LongitudeDegrees>-4.75397282280027866363525390625</LongitudeDegrees>
            </Position>
            <AltitudeMeters>25.200000762939453125</AltitudeMeters>
            <DistanceMeters>NAN</DistanceMeters>
          </Trackpoint>
          <Trackpoint>
            <Time>2022-07-15T17:24:26.000Z</Time>
            <Position>
              <LatitudeDegrees>43.42102588154375553131103515625</LatitudeDegrees>
              <LongitudeDegrees>-4.7539413906633853912353515625</LongitudeDegrees>
            </Position>
            <AltitudeMeters>25</AltitudeMeters>
            <DistanceMeters>NAN</DistanceMeters>
          </Trackpoint>
          <Trackpoint>
            <Time>2022-07-15T17:24:27.000Z</Time>
            <Position>
              <LatitudeDegrees>43.42102873139083385467529296875</LatitudeDegrees>
              <LongitudeDegrees>-4.753950275480747222900390625</LongitudeDegrees>
            </Position>
            <AltitudeMeters>24.799999237060546875</AltitudeMeters>
            <DistanceMeters>NAN</DistanceMeters>
          </Trackpoint>
          <Trackpoint>
            <Time>2022-07-15T17:24:29.000Z</Time>
            <Position>
              <LatitudeDegrees>43.42109008692204952239990234375</LatitudeDegrees>
              <LongitudeDegrees>-4.75393275730311870574951171875</LongitudeDegrees>
            </Position>
            <AltitudeMeters>24.6000003814697265625</AltitudeMeters>
            <DistanceMeters>NAN</DistanceMeters>
          </Trackpoint>
          <Trackpoint>
            <Time>2022-07-15T17:24:34.000Z</Time>
            <Position>
              <LatitudeDegrees>43.4211721457540988922119140625</LatitudeDegrees>
              <LongitudeDegrees>-4.75390769541263580322265625</LongitudeDegrees>
            </Position>
            <AltitudeMeters>24.6000003814697265625</AltitudeMeters>
            <DistanceMeters>NAN</DistanceMeters>
          </Trackpoint>
          <Trackpoint>
            <Time>2022-07-15T17:24:40.000Z</Time>
            <Position>
              <LatitudeDegrees>43.4211228601634502410888671875</LatitudeDegrees>
              <LongitudeDegrees>-4.75389822386205196380615234375</LongitudeDegrees>
            </Position>
            <AltitudeMeters>24.6000003814697265625</AltitudeMeters>
            <DistanceMeters>NAN</DistanceMeters>
          </Trackpoint>
          <Trackpoint>
            <Time>2022-07-15T17:24:42.000Z</Time>
            <Position>
              <LatitudeDegrees>43.42111070640385150909423828125</LatitudeDegrees>
              <LongitudeDegrees>-4.75388430990278720855712890625</LongitudeDegrees>
            </Position>
            <AltitudeMeters>24.3999996185302734375</AltitudeMeters>
            <DistanceMeters>NAN</DistanceMeters>
          </Trackpoint>
          <Trackpoint>
            <Time>2022-07-15T17:24:44.000Z</Time>
            <Position>
              <LatitudeDegrees>43.42110232450067996978759765625</LatitudeDegrees>
              <LongitudeDegrees>-4.7539008222520351409912109375</LongitudeDegrees>
            </Position>
            <AltitudeMeters>24.200000762939453125</AltitudeMeters>
            <DistanceMeters>NAN</DistanceMeters>
          </Trackpoint>
          <Trackpoint>
            <Time>2022-07-15T17:24:46.000Z</Time>
            <Position>
              <LatitudeDegrees>43.4210692159831523895263671875</LatitudeDegrees>
              <LongitudeDegrees>-4.75393719971179962158203125</LongitudeDegrees>
            </Position>
            <AltitudeMeters>23.799999237060546875</AltitudeMeters>
            <DistanceMeters>NAN</DistanceMeters>
          </Trackpoint>
          <Trackpoint>
            <Time>2022-07-15T17:24:48.000Z</Time>
            <Position>
              <LatitudeDegrees>43.4210447408258914947509765625</LatitudeDegrees>
              <LongitudeDegrees>-4.754007942974567413330078125</LongitudeDegrees>
            </Position>
            <AltitudeMeters>23.3999996185302734375</AltitudeMeters>
            <DistanceMeters>NAN</DistanceMeters>
          </Trackpoint>
          <Trackpoint>
            <Time>2022-07-15T17:24:52.000Z</Time>
            <Position>
              <LatitudeDegrees>43.4209880791604518890380859375</LatitudeDegrees>
              <LongitudeDegrees>-4.754241965711116790771484375</LongitudeDegrees>
            </Position>
            <AltitudeMeters>22.6000003814697265625</AltitudeMeters>
            <DistanceMeters>NAN</DistanceMeters>
          </Trackpoint>
          <Trackpoint>
            <Time>2022-07-15T17:24:55.000Z</Time>
            <Position>
              <LatitudeDegrees>43.42094072140753269195556640625</LatitudeDegrees>
              <LongitudeDegrees>-4.75435671396553516387939453125</LongitudeDegrees>
            </Position>
            <AltitudeMeters>22.200000762939453125</AltitudeMeters>
            <DistanceMeters>NAN</DistanceMeters>
          </Trackpoint>
          <Trackpoint>
            <Time>2022-07-15T17:24:57.000Z</Time>
            <Position>
              <LatitudeDegrees>43.42093451879918575286865234375</LatitudeDegrees>
              <LongitudeDegrees>-4.75440767593681812286376953125</LongitudeDegrees>
            </Position>
            <AltitudeMeters>22</AltitudeMeters>
            <DistanceMeters>NAN</DistanceMeters>
          </Trackpoint>
          <Trackpoint>
            <Time>2022-07-15T17:24:59.000Z</Time>
            <Position>
              <LatitudeDegrees>43.42092697508633136749267578125</LatitudeDegrees>
              <LongitudeDegrees>-4.754412956535816192626953125</LongitudeDegrees>
            </Position>
            <AltitudeMeters>21.799999237060546875</AltitudeMeters>
            <DistanceMeters>NAN</DistanceMeters>
          </Trackpoint>
          <Trackpoint>
            <Time>2022-07-15T17:25:02.000Z</Time>
            <Position>
              <LatitudeDegrees>43.4208931960165500640869140625</LatitudeDegrees>
              <LongitudeDegrees>-4.754422344267368316650390625</LongitudeDegrees>
            </Position>
            <AltitudeMeters>21.6000003814697265625</AltitudeMeters>
            <DistanceMeters>NAN</DistanceMeters>
          </Trackpoint>
          <Trackpoint>
            <Time>2022-07-15T17:25:10.000Z</Time>
            <Position>
              <LatitudeDegrees>43.420786075294017791748046875</LatitudeDegrees>
              <LongitudeDegrees>-4.75442812778055667877197265625</LongitudeDegrees>
            </Position>
            <AltitudeMeters>21.200000762939453125</AltitudeMeters>
            <DistanceMeters>NAN</DistanceMeters>
          </Trackpoint>
          <Trackpoint>
            <Time>2022-07-15T17:25:13.000Z</Time>
            <Position>
              <LatitudeDegrees>43.42077777720987796783447265625</LatitudeDegrees>
              <LongitudeDegrees>-4.754438102245330810546875</LongitudeDegrees>
            </Position>
            <AltitudeMeters>21.200000762939453125</AltitudeMeters>
            <DistanceMeters>NAN</DistanceMeters>
          </Trackpoint>
          <Trackpoint>
            <Time>2022-07-15T17:25:14.000Z</Time>
            <Position>
              <LatitudeDegrees>43.42077157460153102874755859375</LatitudeDegrees>
              <LongitudeDegrees>-4.75443718023598194122314453125</LongitudeDegrees>
            </Position>
            <AltitudeMeters>21.200000762939453125</AltitudeMeters>
            <DistanceMeters>NAN</DistanceMeters>
          </Trackpoint>
          <Trackpoint>
            <Time>2022-07-15T17:25:16.000Z</Time>
            <Position>
              <LatitudeDegrees>43.42075933702290058135986328125</LatitudeDegrees>
              <LongitudeDegrees>-4.754433743655681610107421875</LongitudeDegrees>
            </Position>
            <AltitudeMeters>21</AltitudeMeters>
            <DistanceMeters>NAN</DistanceMeters>
          </Trackpoint>
          <Trackpoint>
            <Time>2022-07-15T17:25:21.000Z</Time>
            <Position>
              <LatitudeDegrees>43.4207084588706493377685546875</LatitudeDegrees>
              <LongitudeDegrees>-4.7544325701892375946044921875</LongitudeDegrees>
            </Position>
            <AltitudeMeters>20.6000003814697265625</AltitudeMeters>
            <DistanceMeters>NAN</DistanceMeters>
          </Trackpoint>
          <Trackpoint>
            <Time>2022-07-15T17:25:24.000Z</Time>
            <Position>
              <LatitudeDegrees>43.420705609023571014404296875</LatitudeDegrees>
              <LongitudeDegrees>-4.75443114526569843292236328125</LongitudeDegrees>
            </Position>
            <AltitudeMeters>20.6000003814697265625</AltitudeMeters>
            <DistanceMeters>NAN</DistanceMeters>
          </Trackpoint>
          <Trackpoint>
            <Time>2022-07-15T17:25:27.000Z</Time>
            <Position>
              <LatitudeDegrees>43.4207061119377613067626953125</LatitudeDegrees>
              <LongitudeDegrees>-4.7544285468757152557373046875</LongitudeDegrees>
            </Position>
            <AltitudeMeters>20.3999996185302734375</AltitudeMeters>
            <DistanceMeters>NAN</DistanceMeters>
          </Trackpoint>
          <Trackpoint>
            <Time>2022-07-15T17:25:28.000Z</Time>
            <Position>
              <LatitudeDegrees>43.420701585710048675537109375</LatitudeDegrees>
              <LongitudeDegrees>-4.75443114526569843292236328125</LongitudeDegrees>
            </Position>
            <AltitudeMeters>20.3999996185302734375</AltitudeMeters>
            <DistanceMeters>NAN</DistanceMeters>
          </Trackpoint>
          <Trackpoint>
            <Time>2022-07-15T17:25:29.000Z</Time>
            <Position>
              <LatitudeDegrees>43.420701585710048675537109375</LatitudeDegrees>
              <LongitudeDegrees>-4.75443114526569843292236328125</LongitudeDegrees>
            </Position>
            <AltitudeMeters>20.3999996185302734375</AltitudeMeters>
            <DistanceMeters>NAN</DistanceMeters>
          </Trackpoint>
          <Trackpoint>
            <Time>2022-07-15T17:25:34.000Z</Time>
            <Position>
              <LatitudeDegrees>43.42069228179752826690673828125</LatitudeDegrees>
              <LongitudeDegrees>-4.75442544557154178619384765625</LongitudeDegrees>
            </Position>
            <AltitudeMeters>20.3999996185302734375</AltitudeMeters>
            <DistanceMeters>NAN</DistanceMeters>
          </Trackpoint>
          <Trackpoint>
            <Time>2022-07-15T17:31:47.000Z</Time>
            <Position>
              <LatitudeDegrees>43.42039170674979686737060546875</LatitudeDegrees>
              <LongitudeDegrees>-4.7545368410646915435791015625</LongitudeDegrees>
            </Position>
            <AltitudeMeters>21.200000762939453125</AltitudeMeters>
            <DistanceMeters>NAN</DistanceMeters>
          </Trackpoint>
          <Trackpoint>
            <Time>2022-07-15T17:31:48.000Z</Time>
            <Position>
              <LatitudeDegrees>43.420393802225589752197265625</LatitudeDegrees>
              <LongitudeDegrees>-4.75433089770376682281494140625</LongitudeDegrees>
            </Position>
            <AltitudeMeters>21.200000762939453125</AltitudeMeters>
            <DistanceMeters>NAN</DistanceMeters>
          </Trackpoint>
          <Trackpoint>
            <Time>2022-07-15T17:31:51.000Z</Time>
            <Position>
              <LatitudeDegrees>43.42037200927734375</LatitudeDegrees>
              <LongitudeDegrees>-4.7542270459234714508056640625</LongitudeDegrees>
            </Position>
            <AltitudeMeters>21.3999996185302734375</AltitudeMeters>
            <DistanceMeters>NAN</DistanceMeters>
          </Trackpoint>
          <Trackpoint>
            <Time>2022-07-15T17:31:53.000Z</Time>
            <Position>
              <LatitudeDegrees>43.420367650687694549560546875</LatitudeDegrees>
              <LongitudeDegrees>-4.7542515210807323455810546875</LongitudeDegrees>
            </Position>
            <AltitudeMeters>21.3999996185302734375</AltitudeMeters>
            <DistanceMeters>NAN</DistanceMeters>
          </Trackpoint>
          <Trackpoint>
            <Time>2022-07-15T17:31:55.000Z</Time>
            <Position>
              <LatitudeDegrees>43.42036220245063304901123046875</LatitudeDegrees>
              <LongitudeDegrees>-4.75426845252513885498046875</LongitudeDegrees>
            </Position>
            <AltitudeMeters>21.6000003814697265625</AltitudeMeters>
            <DistanceMeters>NAN</DistanceMeters>
          </Trackpoint>
          <Trackpoint>
            <Time>2022-07-15T17:31:58.000Z</Time>
            <Position>
              <LatitudeDegrees>43.42032532207667827606201171875</LatitudeDegrees>
              <LongitudeDegrees>-4.7542585618793964385986328125</LongitudeDegrees>
            </Position>
            <AltitudeMeters>21.6000003814697265625</AltitudeMeters>
            <DistanceMeters>NAN</DistanceMeters>
          </Trackpoint>
          <Trackpoint>
            <Time>2022-07-15T17:32:00.000Z</Time>
            <Position>
              <LatitudeDegrees>43.4202893637120723724365234375</LatitudeDegrees>
              <LongitudeDegrees>-4.75424238480627536773681640625</LongitudeDegrees>
            </Position>
            <AltitudeMeters>21.6000003814697265625</AltitudeMeters>
            <DistanceMeters>NAN</DistanceMeters>
          </Trackpoint>
          <Trackpoint>
            <Time>2022-07-15T17:32:01.000Z</Time>
            <Position>
              <LatitudeDegrees>43.4202544949948787689208984375</LatitudeDegrees>
              <LongitudeDegrees>-4.75423333235085010528564453125</LongitudeDegrees>
            </Position>
            <AltitudeMeters>21.6000003814697265625</AltitudeMeters>
            <DistanceMeters>NAN</DistanceMeters>
          </Trackpoint>
          <Trackpoint>
            <Time>2022-07-15T17:32:03.000Z</Time>
            <Position>
              <LatitudeDegrees>43.420258350670337677001953125</LatitudeDegrees>
              <LongitudeDegrees>-4.75426048971712589263916015625</LongitudeDegrees>
            </Position>
            <AltitudeMeters>21.6000003814697265625</AltitudeMeters>
            <DistanceMeters>NAN</DistanceMeters>
          </Trackpoint>
          <Trackpoint>
            <Time>2022-07-15T17:32:04.000Z</Time>
            <Position>
              <LatitudeDegrees>43.42026497237384319305419921875</LatitudeDegrees>
              <LongitudeDegrees>-4.75430642254650592803955078125</LongitudeDegrees>
            </Position>
            <AltitudeMeters>21.6000003814697265625</AltitudeMeters>
            <DistanceMeters>NAN</DistanceMeters>
          </Trackpoint>
          <Trackpoint>
            <Time>2022-07-15T17:32:06.000Z</Time>
            <Position>
              <LatitudeDegrees>43.4203601069748401641845703125</LatitudeDegrees>
              <LongitudeDegrees>-4.75434045307338237762451171875</LongitudeDegrees>
            </Position>
            <AltitudeMeters>21.799999237060546875</AltitudeMeters>
            <DistanceMeters>NAN</DistanceMeters>
          </Trackpoint>
          <Trackpoint>
            <Time>2022-07-15T17:32:07.000Z</Time>
            <Position>
              <LatitudeDegrees>43.420386426150798797607421875</LatitudeDegrees>
              <LongitudeDegrees>-4.75432486273348331451416015625</LongitudeDegrees>
            </Position>
            <AltitudeMeters>22</AltitudeMeters>
            <DistanceMeters>NAN</DistanceMeters>
          </Trackpoint>
          <Trackpoint>
            <Time>2022-07-15T17:32:08.000Z</Time>
            <Position>
              <LatitudeDegrees>43.4204564988613128662109375</LatitudeDegrees>
              <LongitudeDegrees>-4.754320085048675537109375</LongitudeDegrees>
            </Position>
            <AltitudeMeters>22</AltitudeMeters>
            <DistanceMeters>NAN</DistanceMeters>
          </Trackpoint>
          <Trackpoint>
            <Time>2022-07-15T17:32:10.000Z</Time>
            <Position>
              <LatitudeDegrees>43.42053922824561595916748046875</LatitudeDegrees>
              <LongitudeDegrees>-4.75434933789074420928955078125</LongitudeDegrees>
            </Position>
            <AltitudeMeters>22.200000762939453125</AltitudeMeters>
            <DistanceMeters>NAN</DistanceMeters>
          </Trackpoint>
          <Trackpoint>
            <Time>2022-07-15T17:32:12.000Z</Time>
            <Position>
              <LatitudeDegrees>43.42065875418484210968017578125</LatitudeDegrees>
              <LongitudeDegrees>-4.75436258129775524139404296875</LongitudeDegrees>
            </Position>
            <AltitudeMeters>22.3999996185302734375</AltitudeMeters>
            <DistanceMeters>NAN</DistanceMeters>
          </Trackpoint>
          <Trackpoint>
            <Time>2022-07-15T17:32:13.000Z</Time>
            <Position>
              <LatitudeDegrees>43.42071893624961376190185546875</LatitudeDegrees>
              <LongitudeDegrees>-4.75435084663331508636474609375</LongitudeDegrees>
            </Position>
            <AltitudeMeters>22.3999996185302734375</AltitudeMeters>
            <DistanceMeters>NAN</DistanceMeters>
          </Trackpoint>
          <Trackpoint>
            <Time>2022-07-15T17:32:14.000Z</Time>
            <Position>
              <LatitudeDegrees>43.42074039392173290252685546875</LatitudeDegrees>
              <LongitudeDegrees>-4.75435218773782253265380859375</LongitudeDegrees>
            </Position>
            <AltitudeMeters>22.6000003814697265625</AltitudeMeters>
            <DistanceMeters>NAN</DistanceMeters>
          </Trackpoint>
          <Trackpoint>
            <Time>2022-07-15T17:32:18.000Z</Time>
            <Position>
              <LatitudeDegrees>43.42084072530269622802734375</LatitudeDegrees>
              <LongitudeDegrees>-4.75429016165435314178466796875</LongitudeDegrees>
            </Position>
            <AltitudeMeters>23</AltitudeMeters>
            <DistanceMeters>NAN</DistanceMeters>
          </Trackpoint>
          <Trackpoint>
            <Time>2022-07-15T17:32:20.000Z</Time>
            <Position>
              <LatitudeDegrees>43.420918844640254974365234375</LatitudeDegrees>
              <LongitudeDegrees>-4.75432150997221469879150390625</LongitudeDegrees>
            </Position>
            <AltitudeMeters>23.200000762939453125</AltitudeMeters>
            <DistanceMeters>NAN</DistanceMeters>
          </Trackpoint>
          <Trackpoint>
            <Time>2022-07-15T17:32:21.000Z</Time>
            <Position>
              <LatitudeDegrees>43.420970477163791656494140625</LatitudeDegrees>
              <LongitudeDegrees>-4.754292927682399749755859375</LongitudeDegrees>
            </Position>
            <AltitudeMeters>23.3999996185302734375</AltitudeMeters>
            <DistanceMeters>NAN</DistanceMeters>
          </Trackpoint>
          <Trackpoint>
            <Time>2022-07-15T17:32:22.000Z</Time>
            <Position>
              <LatitudeDegrees>43.42097592540085315704345703125</LatitudeDegrees>
              <LongitudeDegrees>-4.75427381694316864013671875</LongitudeDegrees>
            </Position>
            <AltitudeMeters>23.6000003814697265625</AltitudeMeters>
            <DistanceMeters>NAN</DistanceMeters>
          </Trackpoint>
          <Trackpoint>
            <Time>2022-07-15T17:32:24.000Z</Time>
            <Position>
              <LatitudeDegrees>43.4210950322449207305908203125</LatitudeDegrees>
              <LongitudeDegrees>-4.75437532179057598114013671875</LongitudeDegrees>
            </Position>
            <AltitudeMeters>24</AltitudeMeters>
            <DistanceMeters>NAN</DistanceMeters>
          </Trackpoint>
          <Trackpoint>
            <Time>2022-07-15T17:32:26.000Z</Time>
            <Position>
              <LatitudeDegrees>43.42115060426294803619384765625</LatitudeDegrees>
              <LongitudeDegrees>-4.75436895154416561126708984375</LongitudeDegrees>
            </Position>
            <AltitudeMeters>24.200000762939453125</AltitudeMeters>
            <DistanceMeters>NAN</DistanceMeters>
          </Trackpoint>
          <Trackpoint>
            <Time>2022-07-15T17:32:30.000Z</Time>
            <Position>
              <LatitudeDegrees>43.42131941579282283782958984375</LatitudeDegrees>
              <LongitudeDegrees>-4.754434414207935333251953125</LongitudeDegrees>
            </Position>
            <AltitudeMeters>24.3999996185302734375</AltitudeMeters>
            <DistanceMeters>NAN</DistanceMeters>
          </Trackpoint>
          <Trackpoint>
            <Time>2022-07-15T17:32:32.000Z</Time>
            <Position>
              <LatitudeDegrees>43.4212868101894855499267578125</LatitudeDegrees>
              <LongitudeDegrees>-4.75441840477287769317626953125</LongitudeDegrees>
            </Position>
            <AltitudeMeters>24.3999996185302734375</AltitudeMeters>
            <DistanceMeters>NAN</DistanceMeters>
          </Trackpoint>
          <Trackpoint>
            <Time>2022-07-15T17:32:33.000Z</Time>
            <Position>
              <LatitudeDegrees>43.4212187491357326507568359375</LatitudeDegrees>
              <LongitudeDegrees>-4.75438169203698635101318359375</LongitudeDegrees>
            </Position>
            <AltitudeMeters>24.3999996185302734375</AltitudeMeters>
            <DistanceMeters>NAN</DistanceMeters>
          </Trackpoint>
          <Trackpoint>
            <Time>2022-07-15T17:32:34.000Z</Time>
            <Position>
              <LatitudeDegrees>43.421213887631893157958984375</LatitudeDegrees>
              <LongitudeDegrees>-4.75432335399091243743896484375</LongitudeDegrees>
            </Position>
            <AltitudeMeters>24.3999996185302734375</AltitudeMeters>
            <DistanceMeters>NAN</DistanceMeters>
          </Trackpoint>
          <Trackpoint>
            <Time>2022-07-15T17:32:35.000Z</Time>
            <Position>
              <LatitudeDegrees>43.42122855596244335174560546875</LatitudeDegrees>
              <LongitudeDegrees>-4.7543289698660373687744140625</LongitudeDegrees>
            </Position>
            <AltitudeMeters>24.3999996185302734375</AltitudeMeters>
            <DistanceMeters>NAN</DistanceMeters>
          </Trackpoint>
          <Trackpoint>
            <Time>2022-07-15T17:32:36.000Z</Time>
            <Position>
              <LatitudeDegrees>43.4212526120245456695556640625</LatitudeDegrees>
              <LongitudeDegrees>-4.7543581388890743255615234375</LongitudeDegrees>
            </Position>
            <AltitudeMeters>24.6000003814697265625</AltitudeMeters>
            <DistanceMeters>NAN</DistanceMeters>
          </Trackpoint>
          <Trackpoint>
            <Time>2022-07-15T17:32:40.000Z</Time>
            <Position>
              <LatitudeDegrees>43.42139435000717639923095703125</LatitudeDegrees>
              <LongitudeDegrees>-4.75438202731311321258544921875</LongitudeDegrees>
            </Position>
            <AltitudeMeters>25.200000762939453125</AltitudeMeters>
            <DistanceMeters>NAN</DistanceMeters>
          </Trackpoint>
          <Trackpoint>
            <Time>2022-07-15T17:32:43.000Z</Time>
            <Position>
              <LatitudeDegrees>43.421476744115352630615234375</LatitudeDegrees>
              <LongitudeDegrees>-4.754338525235652923583984375</LongitudeDegrees>
            </Position>
            <AltitudeMeters>25.6000003814697265625</AltitudeMeters>
            <DistanceMeters>NAN</DistanceMeters>
          </Trackpoint>
          <Trackpoint>
            <Time>2022-07-15T17:32:45.000Z</Time>
            <Position>
              <LatitudeDegrees>43.4215121157467365264892578125</LatitudeDegrees>
              <LongitudeDegrees>-4.75431136786937713623046875</LongitudeDegrees>
            </Position>
            <AltitudeMeters>25.799999237060546875</AltitudeMeters>
            <DistanceMeters>NAN</DistanceMeters>
          </Trackpoint>
          <Trackpoint>
            <Time>2022-07-15T17:32:47.000Z</Time>
            <Position>
              <LatitudeDegrees>43.42153382487595081329345703125</LatitudeDegrees>
              <LongitudeDegrees>-4.754268117249011993408203125</LongitudeDegrees>
            </Position>
            <AltitudeMeters>25.799999237060546875</AltitudeMeters>
            <DistanceMeters>NAN</DistanceMeters>
          </Trackpoint>
          <Trackpoint>
            <Time>2022-07-15T17:32:50.000Z</Time>
            <Position>
              <LatitudeDegrees>43.4215213358402252197265625</LatitudeDegrees>
              <LongitudeDegrees>-4.75418253801763057708740234375</LongitudeDegrees>
            </Position>
            <AltitudeMeters>26.200000762939453125</AltitudeMeters>
            <DistanceMeters>NAN</DistanceMeters>
          </Trackpoint>
          <Trackpoint>
            <Time>2022-07-15T17:32:53.000Z</Time>
            <Position>
              <LatitudeDegrees>43.42150901444256305694580078125</LatitudeDegrees>
              <LongitudeDegrees>-4.75407826714217662811279296875</LongitudeDegrees>
            </Position>
            <AltitudeMeters>26.6000003814697265625</AltitudeMeters>
            <DistanceMeters>NAN</DistanceMeters>
          </Trackpoint>
          <Trackpoint>
            <Time>2022-07-15T17:32:56.000Z</Time>
            <Position>
              <LatitudeDegrees>43.421517647802829742431640625</LatitudeDegrees>
              <LongitudeDegrees>-4.75392320193350315093994140625</LongitudeDegrees>
            </Position>
            <AltitudeMeters>26.799999237060546875</AltitudeMeters>
            <DistanceMeters>NAN</DistanceMeters>
          </Trackpoint>
          <Trackpoint>
            <Time>2022-07-15T17:33:03.000Z</Time>
            <Position>
              <LatitudeDegrees>43.421628959476947784423828125</LatitudeDegrees>
              <LongitudeDegrees>-4.75367836654186248779296875</LongitudeDegrees>
            </Position>
            <AltitudeMeters>27.3999996185302734375</AltitudeMeters>
            <DistanceMeters>NAN</DistanceMeters>
          </Trackpoint>
          <Trackpoint>
            <Time>2022-07-15T17:33:08.000Z</Time>
            <Position>
              <LatitudeDegrees>43.421764411032199859619140625</LatitudeDegrees>
              <LongitudeDegrees>-4.75358314812183380126953125</LongitudeDegrees>
            </Position>
            <AltitudeMeters>27.6000003814697265625</AltitudeMeters>
            <DistanceMeters>NAN</DistanceMeters>
          </Trackpoint>
          <Trackpoint>
            <Time>2022-07-15T17:33:12.000Z</Time>
            <Position>
              <LatitudeDegrees>43.421907238662242889404296875</LatitudeDegrees>
              <LongitudeDegrees>-4.753558002412319183349609375</LongitudeDegrees>
            </Position>
            <AltitudeMeters>27.3999996185302734375</AltitudeMeters>
            <DistanceMeters>NAN</DistanceMeters>
          </Trackpoint>
          <Trackpoint>
            <Time>2022-07-15T17:33:13.000Z</Time>
            <Position>
              <LatitudeDegrees>43.42194353230297565460205078125</LatitudeDegrees>
              <LongitudeDegrees>-4.75355959497392177581787109375</LongitudeDegrees>
            </Position>
            <AltitudeMeters>27.200000762939453125</AltitudeMeters>
            <DistanceMeters>NAN</DistanceMeters>
          </Trackpoint>
          <Trackpoint>
            <Time>2022-07-15T17:33:14.000Z</Time>
            <Position>
              <LatitudeDegrees>43.42198326252400875091552734375</LatitudeDegrees>
              <LongitudeDegrees>-4.7535501234233379364013671875</LongitudeDegrees>
            </Position>
            <AltitudeMeters>27</AltitudeMeters>
            <DistanceMeters>NAN</DistanceMeters>
          </Trackpoint>
          <Trackpoint>
            <Time>2022-07-15T17:33:16.000Z</Time>
            <Position>
              <LatitudeDegrees>43.42206741683185100555419921875</LatitudeDegrees>
              <LongitudeDegrees>-4.75354014895856380462646484375</LongitudeDegrees>
            </Position>
            <AltitudeMeters>26.3999996185302734375</AltitudeMeters>
            <DistanceMeters>NAN</DistanceMeters>
          </Trackpoint>
          <Trackpoint>
            <Time>2022-07-15T17:33:19.000Z</Time>
            <Position>
              <LatitudeDegrees>43.4221776388585567474365234375</LatitudeDegrees>
              <LongitudeDegrees>-4.75360955111682415008544921875</LongitudeDegrees>
            </Position>
            <AltitudeMeters>25.200000762939453125</AltitudeMeters>
            <DistanceMeters>NAN</DistanceMeters>
          </Trackpoint>
          <Trackpoint>
            <Time>2022-07-15T17:33:23.000Z</Time>
            <Position>
              <LatitudeDegrees>43.42229624278843402862548828125</LatitudeDegrees>
              <LongitudeDegrees>-4.75356160663068294525146484375</LongitudeDegrees>
            </Position>
            <AltitudeMeters>24.3999996185302734375</AltitudeMeters>
            <DistanceMeters>NAN</DistanceMeters>
          </Trackpoint>
          <Trackpoint>
            <Time>2022-07-15T17:33:28.000Z</Time>
            <Position>
              <LatitudeDegrees>43.42242498882114887237548828125</LatitudeDegrees>
              <LongitudeDegrees>-4.753467477858066558837890625</LongitudeDegrees>
            </Position>
            <AltitudeMeters>24.200000762939453125</AltitudeMeters>
            <DistanceMeters>NAN</DistanceMeters>
          </Trackpoint>
          <Trackpoint>
            <Time>2022-07-15T17:33:29.000Z</Time>
            <Position>
              <LatitudeDegrees>43.42244225554168224334716796875</LatitudeDegrees>
              <LongitudeDegrees>-4.753453396260738372802734375</LongitudeDegrees>
            </Position>
            <AltitudeMeters>24.200000762939453125</AltitudeMeters>
            <DistanceMeters>NAN</DistanceMeters>
          </Trackpoint>
          <Trackpoint>
            <Time>2022-07-15T17:33:30.000Z</Time>
            <Position>
              <LatitudeDegrees>43.4224559180438518524169921875</LatitudeDegrees>
              <LongitudeDegrees>-4.75344761274755001068115234375</LongitudeDegrees>
            </Position>
            <AltitudeMeters>24.200000762939453125</AltitudeMeters>
            <DistanceMeters>NAN</DistanceMeters>
          </Trackpoint>
          <Trackpoint>
            <Time>2022-07-15T17:33:33.000Z</Time>
            <Position>
              <LatitudeDegrees>43.4224847517907619476318359375</LatitudeDegrees>
              <LongitudeDegrees>-4.75345247425138950347900390625</LongitudeDegrees>
            </Position>
            <AltitudeMeters>23.799999237060546875</AltitudeMeters>
            <DistanceMeters>NAN</DistanceMeters>
          </Trackpoint>
          <Trackpoint>
            <Time>2022-07-15T17:33:35.000Z</Time>
            <Position>
              <LatitudeDegrees>43.42249053530395030975341796875</LatitudeDegrees>
              <LongitudeDegrees>-4.7534555755555629730224609375</LongitudeDegrees>
            </Position>
            <AltitudeMeters>23.799999237060546875</AltitudeMeters>
            <DistanceMeters>NAN</DistanceMeters>
          </Trackpoint>
          <Trackpoint>
            <Time>2022-07-15T17:33:37.000Z</Time>
            <Position>
              <LatitudeDegrees>43.42252976261079311370849609375</LatitudeDegrees>
              <LongitudeDegrees>-4.75347192026674747467041015625</LongitudeDegrees>
            </Position>
            <AltitudeMeters>23.6000003814697265625</AltitudeMeters>
            <DistanceMeters>NAN</DistanceMeters>
          </Trackpoint>
          <Trackpoint>
            <Time>2022-07-15T17:33:38.000Z</Time>
            <Position>
              <LatitudeDegrees>43.42256077565252780914306640625</LatitudeDegrees>
              <LongitudeDegrees>-4.75348046980798244476318359375</LongitudeDegrees>
            </Position>
            <AltitudeMeters>23.6000003814697265625</AltitudeMeters>
            <DistanceMeters>NAN</DistanceMeters>
          </Trackpoint>
          <Trackpoint>
            <Time>2022-07-15T17:33:41.000Z</Time>
            <Position>
              <LatitudeDegrees>43.4226678125560283660888671875</LatitudeDegrees>
              <LongitudeDegrees>-4.7535031847655773162841796875</LongitudeDegrees>
            </Position>
            <AltitudeMeters>23.200000762939453125</AltitudeMeters>
            <DistanceMeters>NAN</DistanceMeters>
          </Trackpoint>
          <Trackpoint>
            <Time>2022-07-15T17:33:44.000Z</Time>
            <Position>
              <LatitudeDegrees>43.42278071679174900054931640625</LatitudeDegrees>
              <LongitudeDegrees>-4.753486253321170806884765625</LongitudeDegrees>
            </Position>
            <AltitudeMeters>22.3999996185302734375</AltitudeMeters>
            <DistanceMeters>NAN</DistanceMeters>
          </Trackpoint>
          <Trackpoint>
            <Time>2022-07-15T17:33:46.000Z</Time>
            <Position>
              <LatitudeDegrees>43.42284928075969219207763671875</LatitudeDegrees>
              <LongitudeDegrees>-4.7534569166600704193115234375</LongitudeDegrees>
            </Position>
            <AltitudeMeters>22</AltitudeMeters>
            <DistanceMeters>NAN</DistanceMeters>
          </Trackpoint>
          <Trackpoint>
            <Time>2022-07-15T17:33:49.000Z</Time>
            <Position>
              <LatitudeDegrees>43.42290812171995639801025390625</LatitudeDegrees>
              <LongitudeDegrees>-4.7533935494720935821533203125</LongitudeDegrees>
            </Position>
            <AltitudeMeters>20.799999237060546875</AltitudeMeters>
            <DistanceMeters>NAN</DistanceMeters>
          </Trackpoint>
          <Trackpoint>
            <Time>2022-07-15T17:33:52.000Z</Time>
            <Position>
              <LatitudeDegrees>43.42287719249725341796875</LatitudeDegrees>
              <LongitudeDegrees>-4.75336731411516666412353515625</LongitudeDegrees>
            </Position>
            <AltitudeMeters>20.200000762939453125</AltitudeMeters>
            <DistanceMeters>NAN</DistanceMeters>
          </Trackpoint>
          <Trackpoint>
            <Time>2022-07-15T17:33:53.000Z</Time>
            <Position>
              <LatitudeDegrees>43.42286319471895694732666015625</LatitudeDegrees>
              <LongitudeDegrees>-4.75338072516024112701416015625</LongitudeDegrees>
            </Position>
            <AltitudeMeters>20.200000762939453125</AltitudeMeters>
            <DistanceMeters>NAN</DistanceMeters>
          </Trackpoint>
          <Trackpoint>
            <Time>2022-07-15T17:33:57.000Z</Time>
            <Position>
              <LatitudeDegrees>43.4227841533720493316650390625</LatitudeDegrees>
              <LongitudeDegrees>-4.75338642485439777374267578125</LongitudeDegrees>
            </Position>
            <AltitudeMeters>20</AltitudeMeters>
            <DistanceMeters>NAN</DistanceMeters>
          </Trackpoint>
          <Trackpoint>
            <Time>2022-07-15T17:34:05.000Z</Time>
            <Position>
              <LatitudeDegrees>43.422638140618801116943359375</LatitudeDegrees>
              <LongitudeDegrees>-4.75341810844838619232177734375</LongitudeDegrees>
            </Position>
            <AltitudeMeters>20</AltitudeMeters>
            <DistanceMeters>NAN</DistanceMeters>
          </Trackpoint>
          <Trackpoint>
            <Time>2022-07-15T17:34:07.000Z</Time>
            <Position>
              <LatitudeDegrees>43.42263604514300823211669921875</LatitudeDegrees>
              <LongitudeDegrees>-4.75341995246708393096923828125</LongitudeDegrees>
            </Position>
            <AltitudeMeters>20</AltitudeMeters>
            <DistanceMeters>NAN</DistanceMeters>
          </Trackpoint>
          <Trackpoint>
            <Time>2022-07-15T17:50:28.000Z</Time>
            <Position>
              <LatitudeDegrees>43.42249028384685516357421875</LatitudeDegrees>
              <LongitudeDegrees>-4.7533224709331989288330078125</LongitudeDegrees>
            </Position>
            <AltitudeMeters>18</AltitudeMeters>
            <DistanceMeters>NAN</DistanceMeters>
          </Trackpoint>
          <Trackpoint>
            <Time>2022-07-15T17:50:30.000Z</Time>
            <Position>
              <LatitudeDegrees>43.4224710054695606231689453125</LatitudeDegrees>
              <LongitudeDegrees>-4.75331098772585391998291015625</LongitudeDegrees>
            </Position>
            <AltitudeMeters>18</AltitudeMeters>
            <DistanceMeters>NAN</DistanceMeters>
          </Trackpoint>
          <Trackpoint>
            <Time>2022-07-15T17:50:33.000Z</Time>
            <Position>
              <LatitudeDegrees>43.4224817343056201934814453125</LatitudeDegrees>
              <LongitudeDegrees>-4.75328835658729076385498046875</LongitudeDegrees>
            </Position>
            <AltitudeMeters>18</AltitudeMeters>
            <DistanceMeters>NAN</DistanceMeters>
          </Trackpoint>
          <Trackpoint>
            <Time>2022-07-15T17:50:34.000Z</Time>
            <Position>
              <LatitudeDegrees>43.4224927984178066253662109375</LatitudeDegrees>
              <LongitudeDegrees>-4.7532741911709308624267578125</LongitudeDegrees>
            </Position>
            <AltitudeMeters>18</AltitudeMeters>
            <DistanceMeters>NAN</DistanceMeters>
          </Trackpoint>
          <Trackpoint>
            <Time>2022-07-15T17:50:38.000Z</Time>
            <Position>
              <LatitudeDegrees>43.42249992303550243377685546875</LatitudeDegrees>
              <LongitudeDegrees>-4.753256924450397491455078125</LongitudeDegrees>
            </Position>
            <AltitudeMeters>18.6000003814697265625</AltitudeMeters>
            <DistanceMeters>NAN</DistanceMeters>
          </Trackpoint>
          <Trackpoint>
            <Time>2022-07-15T17:51:09.000Z</Time>
            <Position>
              <LatitudeDegrees>43.42266596853733062744140625</LatitudeDegrees>
              <LongitudeDegrees>-4.75338910706341266632080078125</LongitudeDegrees>
            </Position>
            <AltitudeMeters>18.3999996185302734375</AltitudeMeters>
            <DistanceMeters>NAN</DistanceMeters>
          </Trackpoint>
          <Trackpoint>
            <Time>2022-07-15T17:51:10.000Z</Time>
            <Position>
              <LatitudeDegrees>43.4226775355637073516845703125</LatitudeDegrees>
              <LongitudeDegrees>-4.75339128635823726654052734375</LongitudeDegrees>
            </Position>
            <AltitudeMeters>18.3999996185302734375</AltitudeMeters>
            <DistanceMeters>NAN</DistanceMeters>
          </Trackpoint>
          <Trackpoint>
            <Time>2022-07-15T17:51:12.000Z</Time>
            <Position>
              <LatitudeDegrees>43.42270494438707828521728515625</LatitudeDegrees>
              <LongitudeDegrees>-4.75339262746274471282958984375</LongitudeDegrees>
            </Position>
            <AltitudeMeters>18.3999996185302734375</AltitudeMeters>
            <DistanceMeters>NAN</DistanceMeters>
          </Trackpoint>
          <Trackpoint>
            <Time>2022-07-15T17:51:20.000Z</Time>
            <Position>
              <LatitudeDegrees>43.4228074550628662109375</LatitudeDegrees>
              <LongitudeDegrees>-4.7533786296844482421875</LongitudeDegrees>
            </Position>
            <AltitudeMeters>18.3999996185302734375</AltitudeMeters>
            <DistanceMeters>NAN</DistanceMeters>
          </Trackpoint>
          <Trackpoint>
            <Time>2022-07-15T17:51:21.000Z</Time>
            <Position>
              <LatitudeDegrees>43.4228143282234668731689453125</LatitudeDegrees>
              <LongitudeDegrees>-4.75336278788745403289794921875</LongitudeDegrees>
            </Position>
            <AltitudeMeters>18.3999996185302734375</AltitudeMeters>
            <DistanceMeters>NAN</DistanceMeters>
          </Trackpoint>
          <Trackpoint>
            <Time>2022-07-15T17:51:25.000Z</Time>
            <Position>
              <LatitudeDegrees>43.4228156693279743194580078125</LatitudeDegrees>
              <LongitudeDegrees>-4.7533321939408779144287109375</LongitudeDegrees>
            </Position>
            <AltitudeMeters>18.3999996185302734375</AltitudeMeters>
            <DistanceMeters>NAN</DistanceMeters>
          </Trackpoint>
          <Trackpoint>
            <Time>2022-07-15T17:52:26.000Z</Time>
            <Position>
              <LatitudeDegrees>43.42283871956169605255126953125</LatitudeDegrees>
              <LongitudeDegrees>-4.7533016838133335113525390625</LongitudeDegrees>
            </Position>
            <AltitudeMeters>15</AltitudeMeters>
            <DistanceMeters>NAN</DistanceMeters>
          </Trackpoint>
          <Trackpoint>
            <Time>2022-07-15T17:52:27.000Z</Time>
            <Position>
              <LatitudeDegrees>43.42282413505017757415771484375</LatitudeDegrees>
              <LongitudeDegrees>-4.7532979957759380340576171875</LongitudeDegrees>
            </Position>
            <AltitudeMeters>14.80000019073486328125</AltitudeMeters>
            <DistanceMeters>NAN</DistanceMeters>
          </Trackpoint>
          <Trackpoint>
            <Time>2022-07-15T17:52:29.000Z</Time>
            <Position>
              <LatitudeDegrees>43.4228042699396610260009765625</LatitudeDegrees>
              <LongitudeDegrees>-4.7533060424029827117919921875</LongitudeDegrees>
            </Position>
            <AltitudeMeters>15</AltitudeMeters>
            <DistanceMeters>NAN</DistanceMeters>
          </Trackpoint>
          <Trackpoint>
            <Time>2022-07-15T17:52:32.000Z</Time>
            <Position>
              <LatitudeDegrees>43.42278390191495418548583984375</LatitudeDegrees>
              <LongitudeDegrees>-4.7533147595822811126708984375</LongitudeDegrees>
            </Position>
            <AltitudeMeters>15.19999980926513671875</AltitudeMeters>
            <DistanceMeters>NAN</DistanceMeters>
          </Trackpoint>
          <Trackpoint>
            <Time>2022-07-15T17:52:34.000Z</Time>
            <Position>
              <LatitudeDegrees>43.42277904041111469268798828125</LatitudeDegrees>
              <LongitudeDegrees>-4.7533120773732662200927734375</LongitudeDegrees>
            </Position>
            <AltitudeMeters>15.19999980926513671875</AltitudeMeters>
            <DistanceMeters>NAN</DistanceMeters>
          </Trackpoint>
          <Trackpoint>
            <Time>2022-07-15T17:56:36.000Z</Time>
            <Position>
              <LatitudeDegrees>43.42277166433632373809814453125</LatitudeDegrees>
              <LongitudeDegrees>-4.75335256196558475494384765625</LongitudeDegrees>
            </Position>
            <AltitudeMeters>25.799999237060546875</AltitudeMeters>
            <DistanceMeters>NAN</DistanceMeters>
          </Trackpoint>
          <Trackpoint>
            <Time>2022-07-15T17:56:37.000Z</Time>
            <Position>
              <LatitudeDegrees>43.42275573872029781341552734375</LatitudeDegrees>
              <LongitudeDegrees>-4.75335113704204559326171875</LongitudeDegrees>
            </Position>
            <AltitudeMeters>26</AltitudeMeters>
            <DistanceMeters>NAN</DistanceMeters>
          </Trackpoint>
          <Trackpoint>
            <Time>2022-07-15T17:56:46.000Z</Time>
            <Position>
              <LatitudeDegrees>43.4226285852491855621337890625</LatitudeDegrees>
              <LongitudeDegrees>-4.7533238120377063751220703125</LongitudeDegrees>
            </Position>
            <AltitudeMeters>25.3999996185302734375</AltitudeMeters>
            <DistanceMeters>NAN</DistanceMeters>
          </Trackpoint>
          <Trackpoint>
            <Time>2022-07-15T17:56:47.000Z</Time>
            <Position>
              <LatitudeDegrees>43.42261441983282566070556640625</LatitudeDegrees>
              <LongitudeDegrees>-4.75331760942935943603515625</LongitudeDegrees>
            </Position>
            <AltitudeMeters>25.3999996185302734375</AltitudeMeters>
            <DistanceMeters>NAN</DistanceMeters>
          </Trackpoint>
          <Trackpoint>
            <Time>2022-07-15T17:56:49.000Z</Time>
            <Position>
              <LatitudeDegrees>43.42258105985820293426513671875</LatitudeDegrees>
              <LongitudeDegrees>-4.753306210041046142578125</LongitudeDegrees>
            </Position>
            <AltitudeMeters>24.6000003814697265625</AltitudeMeters>
            <DistanceMeters>NAN</DistanceMeters>
          </Trackpoint>
          <Trackpoint>
            <Time>2022-07-15T17:56:52.000Z</Time>
            <Position>
              <LatitudeDegrees>43.4225467778742313385009765625</LatitudeDegrees>
              <LongitudeDegrees>-4.7532886080443859100341796875</LongitudeDegrees>
            </Position>
            <AltitudeMeters>23.6000003814697265625</AltitudeMeters>
            <DistanceMeters>NAN</DistanceMeters>
          </Trackpoint>
          <Trackpoint>
            <Time>2022-07-15T17:56:53.000Z</Time>
            <Position>
              <LatitudeDegrees>43.4225414134562015533447265625</LatitudeDegrees>
              <LongitudeDegrees>-4.75328165106475353240966796875</LongitudeDegrees>
            </Position>
            <AltitudeMeters>23.3999996185302734375</AltitudeMeters>
            <DistanceMeters>NAN</DistanceMeters>
          </Trackpoint>
          <Trackpoint>
            <Time>2022-07-15T17:56:55.000Z</Time>
            <Position>
              <LatitudeDegrees>43.42251618392765522003173828125</LatitudeDegrees>
              <LongitudeDegrees>-4.7532641328871250152587890625</LongitudeDegrees>
            </Position>
            <AltitudeMeters>23.200000762939453125</AltitudeMeters>
            <DistanceMeters>NAN</DistanceMeters>
          </Trackpoint>
          <Trackpoint>
            <Time>2022-07-15T17:57:02.000Z</Time>
            <Position>
              <LatitudeDegrees>43.422478549182415008544921875</LatitudeDegrees>
              <LongitudeDegrees>-4.753200598061084747314453125</LongitudeDegrees>
            </Position>
            <AltitudeMeters>22.3999996185302734375</AltitudeMeters>
            <DistanceMeters>NAN</DistanceMeters>
          </Trackpoint>
          <Trackpoint>
            <Time>2022-07-15T17:57:03.000Z</Time>
            <Position>
              <LatitudeDegrees>43.42247829772531986236572265625</LatitudeDegrees>
              <LongitudeDegrees>-4.7532014362514019012451171875</LongitudeDegrees>
            </Position>
            <AltitudeMeters>22.200000762939453125</AltitudeMeters>
            <DistanceMeters>NAN</DistanceMeters>
          </Trackpoint>
          <Trackpoint>
            <Time>2022-07-15T17:57:44.000Z</Time>
            <Position>
              <LatitudeDegrees>43.42247460968792438507080078125</LatitudeDegrees>
              <LongitudeDegrees>-4.75322104990482330322265625</LongitudeDegrees>
            </Position>
            <AltitudeMeters>24</AltitudeMeters>
            <DistanceMeters>NAN</DistanceMeters>
          </Trackpoint>
          <Trackpoint>
            <Time>2022-07-15T17:57:45.000Z</Time>
            <Position>
              <LatitudeDegrees>43.4224864281713962554931640625</LatitudeDegrees>
              <LongitudeDegrees>-4.7532332874834537506103515625</LongitudeDegrees>
            </Position>
            <AltitudeMeters>23.6000003814697265625</AltitudeMeters>
            <DistanceMeters>NAN</DistanceMeters>
          </Trackpoint>
          <Trackpoint>
            <Time>2022-07-15T17:57:46.000Z</Time>
            <Position>
              <LatitudeDegrees>43.422496318817138671875</LatitudeDegrees>
              <LongitudeDegrees>-4.7532466985285282135009765625</LongitudeDegrees>
            </Position>
            <AltitudeMeters>23.200000762939453125</AltitudeMeters>
            <DistanceMeters>NAN</DistanceMeters>
          </Trackpoint>
          <Trackpoint>
            <Time>2022-07-15T17:57:49.000Z</Time>
            <Position>
              <LatitudeDegrees>43.42252406291663646697998046875</LatitudeDegrees>
              <LongitudeDegrees>-4.7532859258353710174560546875</LongitudeDegrees>
            </Position>
            <AltitudeMeters>23</AltitudeMeters>
            <DistanceMeters>NAN</DistanceMeters>
          </Trackpoint>
          <Trackpoint>
            <Time>2022-07-15T17:57:54.000Z</Time>
            <Position>
              <LatitudeDegrees>43.42257217504084110260009765625</LatitudeDegrees>
              <LongitudeDegrees>-4.7533236443996429443359375</LongitudeDegrees>
            </Position>
            <AltitudeMeters>24</AltitudeMeters>
            <DistanceMeters>NAN</DistanceMeters>
          </Trackpoint>
          <Trackpoint>
            <Time>2022-07-15T17:57:55.000Z</Time>
            <Position>
              <LatitudeDegrees>43.4225833229720592498779296875</LatitudeDegrees>
              <LongitudeDegrees>-4.753330014646053314208984375</LongitudeDegrees>
            </Position>
            <AltitudeMeters>24.200000762939453125</AltitudeMeters>
            <DistanceMeters>NAN</DistanceMeters>
          </Trackpoint>
          <Trackpoint>
            <Time>2022-07-15T17:58:03.000Z</Time>
            <Position>
              <LatitudeDegrees>43.4226761944591999053955078125</LatitudeDegrees>
              <LongitudeDegrees>-4.75336027331650257110595703125</LongitudeDegrees>
            </Position>
            <AltitudeMeters>24.799999237060546875</AltitudeMeters>
            <DistanceMeters>NAN</DistanceMeters>
          </Trackpoint>
          <Trackpoint>
            <Time>2022-07-15T17:58:05.000Z</Time>
            <Position>
              <LatitudeDegrees>43.422699160873889923095703125</LatitudeDegrees>
              <LongitudeDegrees>-4.753362201154232025146484375</LongitudeDegrees>
            </Position>
            <AltitudeMeters>25</AltitudeMeters>
            <DistanceMeters>NAN</DistanceMeters>
          </Trackpoint>
          <Trackpoint>
            <Time>2022-07-15T17:58:09.000Z</Time>
            <Position>
              <LatitudeDegrees>43.42272673733532428741455078125</LatitudeDegrees>
              <LongitudeDegrees>-4.75335909985005855560302734375</LongitudeDegrees>
            </Position>
            <AltitudeMeters>25.200000762939453125</AltitudeMeters>
            <DistanceMeters>NAN</DistanceMeters>
          </Trackpoint>
          <Trackpoint>
            <Time>2022-07-15T17:58:15.000Z</Time>
            <Position>
              <LatitudeDegrees>43.4228012524545192718505859375</LatitudeDegrees>
              <LongitudeDegrees>-4.7533566690981388092041015625</LongitudeDegrees>
            </Position>
            <AltitudeMeters>26</AltitudeMeters>
            <DistanceMeters>NAN</DistanceMeters>
          </Trackpoint>
          <Trackpoint>
            <Time>2022-07-15T17:58:17.000Z</Time>
            <Position>
              <LatitudeDegrees>43.42280804179608821868896484375</LatitudeDegrees>
              <LongitudeDegrees>-4.7533531486988067626953125</LongitudeDegrees>
            </Position>
            <AltitudeMeters>26</AltitudeMeters>
            <DistanceMeters>NAN</DistanceMeters>
          </Trackpoint>
          <Trackpoint>
            <Time>2022-07-15T18:01:06.000Z</Time>
            <Position>
              <LatitudeDegrees>43.422832600772380828857421875</LatitudeDegrees>
              <LongitudeDegrees>-4.753473512828350067138671875</LongitudeDegrees>
            </Position>
            <AltitudeMeters>25.3999996185302734375</AltitudeMeters>
            <DistanceMeters>NAN</DistanceMeters>
          </Trackpoint>
          <Trackpoint>
            <Time>2022-07-15T18:01:07.000Z</Time>
            <Position>
              <LatitudeDegrees>43.42281281948089599609375</LatitudeDegrees>
              <LongitudeDegrees>-4.75348315201699733734130859375</LongitudeDegrees>
            </Position>
            <AltitudeMeters>25.6000003814697265625</AltitudeMeters>
            <DistanceMeters>NAN</DistanceMeters>
          </Trackpoint>
          <Trackpoint>
            <Time>2022-07-15T18:01:09.000Z</Time>
            <Position>
              <LatitudeDegrees>43.4227647073566913604736328125</LatitudeDegrees>
              <LongitudeDegrees>-4.75350377149879932403564453125</LongitudeDegrees>
            </Position>
            <AltitudeMeters>26.200000762939453125</AltitudeMeters>
            <DistanceMeters>NAN</DistanceMeters>
          </Trackpoint>
          <Trackpoint>
            <Time>2022-07-15T18:01:11.000Z</Time>
            <Position>
              <LatitudeDegrees>43.4227221272885799407958984375</LatitudeDegrees>
              <LongitudeDegrees>-4.753515757620334625244140625</LongitudeDegrees>
            </Position>
            <AltitudeMeters>27.3999996185302734375</AltitudeMeters>
            <DistanceMeters>NAN</DistanceMeters>
          </Trackpoint>
          <Trackpoint>
            <Time>2022-07-15T18:01:13.000Z</Time>
            <Position>
              <LatitudeDegrees>43.42268398962914943695068359375</LatitudeDegrees>
              <LongitudeDegrees>-4.75351986475288867950439453125</LongitudeDegrees>
            </Position>
            <AltitudeMeters>27.799999237060546875</AltitudeMeters>
            <DistanceMeters>NAN</DistanceMeters>
          </Trackpoint>
          <Trackpoint>
            <Time>2022-07-15T18:01:16.000Z</Time>
            <Position>
              <LatitudeDegrees>43.42261743731796741485595703125</LatitudeDegrees>
              <LongitudeDegrees>-4.753525145351886749267578125</LongitudeDegrees>
            </Position>
            <AltitudeMeters>28</AltitudeMeters>
            <DistanceMeters>NAN</DistanceMeters>
          </Trackpoint>
          <Trackpoint>
            <Time>2022-07-15T18:01:17.000Z</Time>
            <Position>
              <LatitudeDegrees>43.42259581200778484344482421875</LatitudeDegrees>
              <LongitudeDegrees>-4.75352221168577671051025390625</LongitudeDegrees>
            </Position>
            <AltitudeMeters>28.799999237060546875</AltitudeMeters>
            <DistanceMeters>NAN</DistanceMeters>
          </Trackpoint>
          <Trackpoint>
            <Time>2022-07-15T18:01:20.000Z</Time>
            <Position>
              <LatitudeDegrees>43.42253395356237888336181640625</LatitudeDegrees>
              <LongitudeDegrees>-4.75350595079362392425537109375</LongitudeDegrees>
            </Position>
            <AltitudeMeters>30</AltitudeMeters>
            <DistanceMeters>NAN</DistanceMeters>
          </Trackpoint>
          <Trackpoint>
            <Time>2022-07-15T18:01:21.000Z</Time>
            <Position>
              <LatitudeDegrees>43.42251249589025974273681640625</LatitudeDegrees>
              <LongitudeDegrees>-4.75349941290915012359619140625</LongitudeDegrees>
            </Position>
            <AltitudeMeters>30.200000762939453125</AltitudeMeters>
            <DistanceMeters>NAN</DistanceMeters>
          </Trackpoint>
          <Trackpoint>
            <Time>2022-07-15T18:01:23.000Z</Time>
            <Position>
              <LatitudeDegrees>43.42247259803116321563720703125</LatitudeDegrees>
              <LongitudeDegrees>-4.75348449312150478363037109375</LongitudeDegrees>
            </Position>
            <AltitudeMeters>31</AltitudeMeters>
            <DistanceMeters>NAN</DistanceMeters>
          </Trackpoint>
          <Trackpoint>
            <Time>2022-07-15T18:01:25.000Z</Time>
            <Position>
              <LatitudeDegrees>43.4224381484091281890869140625</LatitudeDegrees>
              <LongitudeDegrees>-4.75347208790481090545654296875</LongitudeDegrees>
            </Position>
            <AltitudeMeters>31.6000003814697265625</AltitudeMeters>
            <DistanceMeters>NAN</DistanceMeters>
          </Trackpoint>
          <Trackpoint>
            <Time>2022-07-15T18:01:27.000Z</Time>
            <Position>
              <LatitudeDegrees>43.4224250726401805877685546875</LatitudeDegrees>
              <LongitudeDegrees>-4.75345917977392673492431640625</LongitudeDegrees>
            </Position>
            <AltitudeMeters>32.200000762939453125</AltitudeMeters>
            <DistanceMeters>NAN</DistanceMeters>
          </Trackpoint>
          <Trackpoint>
            <Time>2022-07-15T18:01:28.000Z</Time>
            <Position>
              <LatitudeDegrees>43.422418534755706787109375</LatitudeDegrees>
              <LongitudeDegrees>-4.753453731536865234375</LongitudeDegrees>
            </Position>
            <AltitudeMeters>32.40000152587890625</AltitudeMeters>
            <DistanceMeters>NAN</DistanceMeters>
          </Trackpoint>
          <Trackpoint>
            <Time>2022-07-15T18:01:29.000Z</Time>
            <Position>
              <LatitudeDegrees>43.4224056266248226165771484375</LatitudeDegrees>
              <LongitudeDegrees>-4.75345398299396038055419921875</LongitudeDegrees>
            </Position>
            <AltitudeMeters>32.59999847412109375</AltitudeMeters>
            <DistanceMeters>NAN</DistanceMeters>
          </Trackpoint>
          <Trackpoint>
            <Time>2022-07-15T18:01:31.000Z</Time>
            <Position>
              <LatitudeDegrees>43.42238090001046657562255859375</LatitudeDegrees>
              <LongitudeDegrees>-4.75347988307476043701171875</LongitudeDegrees>
            </Position>
            <AltitudeMeters>32.59999847412109375</AltitudeMeters>
            <DistanceMeters>NAN</DistanceMeters>
          </Trackpoint>
          <Trackpoint>
            <Time>2022-07-15T18:01:32.000Z</Time>
            <Position>
              <LatitudeDegrees>43.4223727695643901824951171875</LatitudeDegrees>
              <LongitudeDegrees>-4.75349572487175464630126953125</LongitudeDegrees>
            </Position>
            <AltitudeMeters>32.799999237060546875</AltitudeMeters>
            <DistanceMeters>NAN</DistanceMeters>
          </Trackpoint>
          <Trackpoint>
            <Time>2022-07-15T18:01:35.000Z</Time>
            <Position>
              <LatitudeDegrees>43.4223707579076290130615234375</LatitudeDegrees>
              <LongitudeDegrees>-4.7535033524036407470703125</LongitudeDegrees>
            </Position>
            <AltitudeMeters>32.59999847412109375</AltitudeMeters>
            <DistanceMeters>NAN</DistanceMeters>
          </Trackpoint>
          <Trackpoint>
            <Time>2022-07-15T18:01:42.000Z</Time>
            <Position>
              <LatitudeDegrees>43.42232801020145416259765625</LatitudeDegrees>
              <LongitudeDegrees>-4.75355674512684345245361328125</LongitudeDegrees>
            </Position>
            <AltitudeMeters>33</AltitudeMeters>
            <DistanceMeters>NAN</DistanceMeters>
          </Trackpoint>
          <Trackpoint>
            <Time>2022-07-15T18:01:48.000Z</Time>
            <Position>
              <LatitudeDegrees>43.422180153429508209228515625</LatitudeDegrees>
              <LongitudeDegrees>-4.753565378487110137939453125</LongitudeDegrees>
            </Position>
            <AltitudeMeters>33</AltitudeMeters>
            <DistanceMeters>NAN</DistanceMeters>
          </Trackpoint>
          <Trackpoint>
            <Time>2022-07-15T18:01:51.000Z</Time>
            <Position>
              <LatitudeDegrees>43.4221001900732517242431640625</LatitudeDegrees>
              <LongitudeDegrees>-4.7535502910614013671875</LongitudeDegrees>
            </Position>
            <AltitudeMeters>33.40000152587890625</AltitudeMeters>
            <DistanceMeters>NAN</DistanceMeters>
          </Trackpoint>
          <Trackpoint>
            <Time>2022-07-15T18:01:54.000Z</Time>
            <Position>
              <LatitudeDegrees>43.42202902771532535552978515625</LatitudeDegrees>
              <LongitudeDegrees>-4.7535360418260097503662109375</LongitudeDegrees>
            </Position>
            <AltitudeMeters>34</AltitudeMeters>
            <DistanceMeters>NAN</DistanceMeters>
          </Trackpoint>
          <Trackpoint>
            <Time>2022-07-15T18:01:55.000Z</Time>
            <Position>
              <LatitudeDegrees>43.422010838985443115234375</LatitudeDegrees>
              <LongitudeDegrees>-4.7535300068557262420654296875</LongitudeDegrees>
            </Position>
            <AltitudeMeters>34</AltitudeMeters>
            <DistanceMeters>NAN</DistanceMeters>
          </Trackpoint>
          <Trackpoint>
            <Time>2022-07-15T18:01:58.000Z</Time>
            <Position>
              <LatitudeDegrees>43.42195744626224040985107421875</LatitudeDegrees>
              <LongitudeDegrees>-4.753518439829349517822265625</LongitudeDegrees>
            </Position>
            <AltitudeMeters>34.40000152587890625</AltitudeMeters>
            <DistanceMeters>NAN</DistanceMeters>
          </Trackpoint>
          <Trackpoint>
            <Time>2022-07-15T18:02:01.000Z</Time>
            <Position>
              <LatitudeDegrees>43.42189676128327846527099609375</LatitudeDegrees>
              <LongitudeDegrees>-4.75351802073419094085693359375</LongitudeDegrees>
            </Position>
            <AltitudeMeters>34.59999847412109375</AltitudeMeters>
            <DistanceMeters>NAN</DistanceMeters>
          </Trackpoint>
          <Trackpoint>
            <Time>2022-07-15T18:02:06.000Z</Time>
            <Position>
              <LatitudeDegrees>43.4218115173280239105224609375</LatitudeDegrees>
              <LongitudeDegrees>-4.75356026552617549896240234375</LongitudeDegrees>
            </Position>
            <AltitudeMeters>34.799999237060546875</AltitudeMeters>
            <DistanceMeters>NAN</DistanceMeters>
          </Trackpoint>
          <Trackpoint>
            <Time>2022-07-15T18:02:14.000Z</Time>
            <Position>
              <LatitudeDegrees>43.4216713719069957733154296875</LatitudeDegrees>
              <LongitudeDegrees>-4.7536326013505458831787109375</LongitudeDegrees>
            </Position>
            <AltitudeMeters>35.40000152587890625</AltitudeMeters>
            <DistanceMeters>NAN</DistanceMeters>
          </Trackpoint>
          <Trackpoint>
            <Time>2022-07-15T18:02:15.000Z</Time>
            <Position>
              <LatitudeDegrees>43.42165335081517696380615234375</LatitudeDegrees>
              <LongitudeDegrees>-4.75364224053919315338134765625</LongitudeDegrees>
            </Position>
            <AltitudeMeters>35.59999847412109375</AltitudeMeters>
            <DistanceMeters>NAN</DistanceMeters>
          </Trackpoint>
          <Trackpoint>
            <Time>2022-07-15T18:02:18.000Z</Time>
            <Position>
              <LatitudeDegrees>43.4216194041073322296142578125</LatitudeDegrees>
              <LongitudeDegrees>-4.75371859967708587646484375</LongitudeDegrees>
            </Position>
            <AltitudeMeters>36</AltitudeMeters>
            <DistanceMeters>NAN</DistanceMeters>
          </Trackpoint>
          <Trackpoint>
            <Time>2022-07-15T18:02:23.000Z</Time>
            <Position>
              <LatitudeDegrees>43.42160205356776714324951171875</LatitudeDegrees>
              <LongitudeDegrees>-4.75389068014919757843017578125</LongitudeDegrees>
            </Position>
            <AltitudeMeters>36</AltitudeMeters>
            <DistanceMeters>NAN</DistanceMeters>
          </Trackpoint>
          <Trackpoint>
            <Time>2022-07-15T18:02:28.000Z</Time>
            <Position>
              <LatitudeDegrees>43.42155293561518192291259765625</LatitudeDegrees>
              <LongitudeDegrees>-4.75412621162831783294677734375</LongitudeDegrees>
            </Position>
            <AltitudeMeters>35.799999237060546875</AltitudeMeters>
            <DistanceMeters>NAN</DistanceMeters>
          </Trackpoint>
          <Trackpoint>
            <Time>2022-07-15T18:02:34.000Z</Time>
            <Position>
              <LatitudeDegrees>43.42143709771335124969482421875</LatitudeDegrees>
              <LongitudeDegrees>-4.75439376197755336761474609375</LongitudeDegrees>
            </Position>
            <AltitudeMeters>35.200000762939453125</AltitudeMeters>
            <DistanceMeters>NAN</DistanceMeters>
          </Trackpoint>
          <Trackpoint>
            <Time>2022-07-15T18:02:38.000Z</Time>
            <Position>
              <LatitudeDegrees>43.4214101918041706085205078125</LatitudeDegrees>
              <LongitudeDegrees>-4.75450809113681316375732421875</LongitudeDegrees>
            </Position>
            <AltitudeMeters>35.200000762939453125</AltitudeMeters>
            <DistanceMeters>NAN</DistanceMeters>
          </Trackpoint>
          <Trackpoint>
            <Time>2022-07-15T18:02:43.000Z</Time>
            <Position>
              <LatitudeDegrees>43.42140264809131622314453125</LatitudeDegrees>
              <LongitudeDegrees>-4.7545908205211162567138671875</LongitudeDegrees>
            </Position>
            <AltitudeMeters>35.40000152587890625</AltitudeMeters>
            <DistanceMeters>NAN</DistanceMeters>
          </Trackpoint>
          <Trackpoint>
            <Time>2022-07-15T18:02:44.000Z</Time>
            <Position>
              <LatitudeDegrees>43.42140038497745990753173828125</LatitudeDegrees>
              <LongitudeDegrees>-4.75459635257720947265625</LongitudeDegrees>
            </Position>
            <AltitudeMeters>35.40000152587890625</AltitudeMeters>
            <DistanceMeters>NAN</DistanceMeters>
          </Trackpoint>
          <Trackpoint>
            <Time>2022-07-15T18:02:47.000Z</Time>
            <Position>
              <LatitudeDegrees>43.42138965614140033721923828125</LatitudeDegrees>
              <LongitudeDegrees>-4.7546042315661907196044921875</LongitudeDegrees>
            </Position>
            <AltitudeMeters>35.40000152587890625</AltitudeMeters>
            <DistanceMeters>NAN</DistanceMeters>
          </Trackpoint>
          <Trackpoint>
            <Time>2022-07-15T18:05:27.000Z</Time>
            <Position>
              <LatitudeDegrees>43.421395607292652130126953125</LatitudeDegrees>
              <LongitudeDegrees>-4.75467908196151256561279296875</LongitudeDegrees>
            </Position>
            <AltitudeMeters>35</AltitudeMeters>
            <DistanceMeters>NAN</DistanceMeters>
          </Trackpoint>
          <Trackpoint>
            <Time>2022-07-15T18:05:28.000Z</Time>
            <Position>
              <LatitudeDegrees>43.42140541411936283111572265625</LatitudeDegrees>
              <LongitudeDegrees>-4.754663072526454925537109375</LongitudeDegrees>
            </Position>
            <AltitudeMeters>35.200000762939453125</AltitudeMeters>
            <DistanceMeters>NAN</DistanceMeters>
          </Trackpoint>
          <Trackpoint>
            <Time>2022-07-15T18:05:32.000Z</Time>
            <Position>
              <LatitudeDegrees>43.42143081128597259521484375</LatitudeDegrees>
              <LongitudeDegrees>-4.7546379268169403076171875</LongitudeDegrees>
            </Position>
            <AltitudeMeters>35.40000152587890625</AltitudeMeters>
            <DistanceMeters>NAN</DistanceMeters>
          </Trackpoint>
          <Trackpoint>
            <Time>2022-07-15T18:05:35.000Z</Time>
            <Position>
              <LatitudeDegrees>43.42142938636243343353271484375</LatitudeDegrees>
              <LongitudeDegrees>-4.75460750050842761993408203125</LongitudeDegrees>
            </Position>
            <AltitudeMeters>34.59999847412109375</AltitudeMeters>
            <DistanceMeters>NAN</DistanceMeters>
          </Trackpoint>
          <Trackpoint>
            <Time>2022-07-15T18:05:36.000Z</Time>
            <Position>
              <LatitudeDegrees>43.4214341640472412109375</LatitudeDegrees>
              <LongitudeDegrees>-4.754602722823619842529296875</LongitudeDegrees>
            </Position>
            <AltitudeMeters>34.40000152587890625</AltitudeMeters>
            <DistanceMeters>NAN</DistanceMeters>
          </Trackpoint>
          <Trackpoint>
            <Time>2022-07-15T18:05:39.000Z</Time>
            <Position>
              <LatitudeDegrees>43.421429805457592010498046875</LatitudeDegrees>
              <LongitudeDegrees>-4.75461311638355255126953125</LongitudeDegrees>
            </Position>
            <AltitudeMeters>33.799999237060546875</AltitudeMeters>
            <DistanceMeters>NAN</DistanceMeters>
          </Trackpoint>
          <Trackpoint>
            <Time>2022-07-15T18:05:40.000Z</Time>
            <Position>
              <LatitudeDegrees>43.421420753002166748046875</LatitudeDegrees>
              <LongitudeDegrees>-4.75461713969707489013671875</LongitudeDegrees>
            </Position>
            <AltitudeMeters>33.799999237060546875</AltitudeMeters>
            <DistanceMeters>NAN</DistanceMeters>
          </Trackpoint>
          <Trackpoint>
            <Time>2022-07-15T18:28:44.000Z</Time>
            <Position>
              <LatitudeDegrees>43.421404324471950531005859375</LatitudeDegrees>
              <LongitudeDegrees>-4.7548208199441432952880859375</LongitudeDegrees>
            </Position>
            <AltitudeMeters>36</AltitudeMeters>
            <DistanceMeters>NAN</DistanceMeters>
          </Trackpoint>
          <Trackpoint>
            <Time>2022-07-15T18:28:45.000Z</Time>
            <Position>
              <LatitudeDegrees>43.421388566493988037109375</LatitudeDegrees>
              <LongitudeDegrees>-4.7547836042940616607666015625</LongitudeDegrees>
            </Position>
            <AltitudeMeters>36</AltitudeMeters>
            <DistanceMeters>NAN</DistanceMeters>
          </Trackpoint>
          <Trackpoint>
            <Time>2022-07-15T18:28:48.000Z</Time>
            <Position>
              <LatitudeDegrees>43.42136534862220287322998046875</LatitudeDegrees>
              <LongitudeDegrees>-4.7547209076583385467529296875</LongitudeDegrees>
            </Position>
            <AltitudeMeters>36</AltitudeMeters>
            <DistanceMeters>NAN</DistanceMeters>
          </Trackpoint>
          <Trackpoint>
            <Time>2022-07-15T18:28:53.000Z</Time>
            <Position>
              <LatitudeDegrees>43.4212653525173664093017578125</LatitudeDegrees>
              <LongitudeDegrees>-4.75471378304064273834228515625</LongitudeDegrees>
            </Position>
            <AltitudeMeters>35.799999237060546875</AltitudeMeters>
            <DistanceMeters>NAN</DistanceMeters>
          </Trackpoint>
          <Trackpoint>
            <Time>2022-07-15T18:28:55.000Z</Time>
            <Position>
              <LatitudeDegrees>43.4212915040552616119384765625</LatitudeDegrees>
              <LongitudeDegrees>-4.75462242029607295989990234375</LongitudeDegrees>
            </Position>
            <AltitudeMeters>36</AltitudeMeters>
            <DistanceMeters>NAN</DistanceMeters>
          </Trackpoint>
          <Trackpoint>
            <Time>2022-07-15T18:28:57.000Z</Time>
            <Position>
              <LatitudeDegrees>43.42132193036377429962158203125</LatitudeDegrees>
              <LongitudeDegrees>-4.75467857904732227325439453125</LongitudeDegrees>
            </Position>
            <AltitudeMeters>35.799999237060546875</AltitudeMeters>
            <DistanceMeters>NAN</DistanceMeters>
          </Trackpoint>
          <Trackpoint>
            <Time>2022-07-15T18:28:58.000Z</Time>
            <Position>
              <LatitudeDegrees>43.421345315873622894287109375</LatitudeDegrees>
              <LongitudeDegrees>-4.75467656739056110382080078125</LongitudeDegrees>
            </Position>
            <AltitudeMeters>35.59999847412109375</AltitudeMeters>
            <DistanceMeters>NAN</DistanceMeters>
          </Trackpoint>
          <Trackpoint>
            <Time>2022-07-15T18:28:59.000Z</Time>
            <Position>
              <LatitudeDegrees>43.421359397470951080322265625</LatitudeDegrees>
              <LongitudeDegrees>-4.75467623211443424224853515625</LongitudeDegrees>
            </Position>
            <AltitudeMeters>35.40000152587890625</AltitudeMeters>
            <DistanceMeters>NAN</DistanceMeters>
          </Trackpoint>
          <Trackpoint>
            <Time>2022-07-15T18:29:05.000Z</Time>
            <Position>
              <LatitudeDegrees>43.421400971710681915283203125</LatitudeDegrees>
              <LongitudeDegrees>-4.754680506885051727294921875</LongitudeDegrees>
            </Position>
            <AltitudeMeters>35.40000152587890625</AltitudeMeters>
            <DistanceMeters>NAN</DistanceMeters>
          </Trackpoint>
          <Trackpoint>
            <Time>2022-07-15T18:29:11.000Z</Time>
            <Position>
              <LatitudeDegrees>43.42141077853739261627197265625</LatitudeDegrees>
              <LongitudeDegrees>-4.75462242029607295989990234375</LongitudeDegrees>
            </Position>
            <AltitudeMeters>35.40000152587890625</AltitudeMeters>
            <DistanceMeters>NAN</DistanceMeters>
          </Trackpoint>
          <Trackpoint>
            <Time>2022-07-15T18:29:15.000Z</Time>
            <Position>
              <LatitudeDegrees>43.42141681350767612457275390625</LatitudeDegrees>
              <LongitudeDegrees>-4.75462443195283412933349609375</LongitudeDegrees>
            </Position>
            <AltitudeMeters>35.200000762939453125</AltitudeMeters>
            <DistanceMeters>NAN</DistanceMeters>
          </Trackpoint>
          <Trackpoint>
            <Time>2022-07-15T18:32:16.000Z</Time>
            <Position>
              <LatitudeDegrees>43.42141027562320232391357421875</LatitudeDegrees>
              <LongitudeDegrees>-4.754546396434307098388671875</LongitudeDegrees>
            </Position>
            <AltitudeMeters>27.3999996185302734375</AltitudeMeters>
            <DistanceMeters>NAN</DistanceMeters>
          </Trackpoint>
          <Trackpoint>
            <Time>2022-07-15T18:32:17.000Z</Time>
            <Position>
              <LatitudeDegrees>43.42141765169799327850341796875</LatitudeDegrees>
              <LongitudeDegrees>-4.75452669896185398101806640625</LongitudeDegrees>
            </Position>
            <AltitudeMeters>27.3999996185302734375</AltitudeMeters>
            <DistanceMeters>NAN</DistanceMeters>
          </Trackpoint>
          <Trackpoint>
            <Time>2022-07-15T18:32:19.000Z</Time>
            <Position>
              <LatitudeDegrees>43.421427123248577117919921875</LatitudeDegrees>
              <LongitudeDegrees>-4.754489399492740631103515625</LongitudeDegrees>
            </Position>
            <AltitudeMeters>27.200000762939453125</AltitudeMeters>
            <DistanceMeters>NAN</DistanceMeters>
          </Trackpoint>
          <Trackpoint>
            <Time>2022-07-15T18:32:23.000Z</Time>
            <Position>
              <LatitudeDegrees>43.421421088278293609619140625</LatitudeDegrees>
              <LongitudeDegrees>-4.754427373409271240234375</LongitudeDegrees>
            </Position>
            <AltitudeMeters>27</AltitudeMeters>
            <DistanceMeters>NAN</DistanceMeters>
          </Trackpoint>
          <Trackpoint>
            <Time>2022-07-15T18:32:25.000Z</Time>
            <Position>
              <LatitudeDegrees>43.42140390537679195404052734375</LatitudeDegrees>
              <LongitudeDegrees>-4.75438320077955722808837890625</LongitudeDegrees>
            </Position>
            <AltitudeMeters>27</AltitudeMeters>
            <DistanceMeters>NAN</DistanceMeters>
          </Trackpoint>
          <Trackpoint>
            <Time>2022-07-15T18:32:29.000Z</Time>
            <Position>
              <LatitudeDegrees>43.421313129365444183349609375</LatitudeDegrees>
              <LongitudeDegrees>-4.7543396987020969390869140625</LongitudeDegrees>
            </Position>
            <AltitudeMeters>26.799999237060546875</AltitudeMeters>
            <DistanceMeters>NAN</DistanceMeters>
          </Trackpoint>
          <Trackpoint>
            <Time>2022-07-15T18:32:32.000Z</Time>
            <Position>
              <LatitudeDegrees>43.42122419737279415130615234375</LatitudeDegrees>
              <LongitudeDegrees>-4.75431983359158039093017578125</LongitudeDegrees>
            </Position>
            <AltitudeMeters>26.200000762939453125</AltitudeMeters>
            <DistanceMeters>NAN</DistanceMeters>
          </Trackpoint>
          <Trackpoint>
            <Time>2022-07-15T18:32:33.000Z</Time>
            <Position>
              <LatitudeDegrees>43.421195782721042633056640625</LatitudeDegrees>
              <LongitudeDegrees>-4.75432134233415126800537109375</LongitudeDegrees>
            </Position>
            <AltitudeMeters>26</AltitudeMeters>
            <DistanceMeters>NAN</DistanceMeters>
          </Trackpoint>
          <Trackpoint>
            <Time>2022-07-15T18:32:34.000Z</Time>
            <Position>
              <LatitudeDegrees>43.421168290078639984130859375</LatitudeDegrees>
              <LongitudeDegrees>-4.75432737730443477630615234375</LongitudeDegrees>
            </Position>
            <AltitudeMeters>25.799999237060546875</AltitudeMeters>
            <DistanceMeters>NAN</DistanceMeters>
          </Trackpoint>
          <Trackpoint>
            <Time>2022-07-15T18:32:37.000Z</Time>
            <Position>
              <LatitudeDegrees>43.421059660613536834716796875</LatitudeDegrees>
              <LongitudeDegrees>-4.75434489548206329345703125</LongitudeDegrees>
            </Position>
            <AltitudeMeters>25.200000762939453125</AltitudeMeters>
            <DistanceMeters>NAN</DistanceMeters>
          </Trackpoint>
          <Trackpoint>
            <Time>2022-07-15T18:32:39.000Z</Time>
            <Position>
              <LatitudeDegrees>43.42098556458950042724609375</LatitudeDegrees>
              <LongitudeDegrees>-4.75436794571578502655029296875</LongitudeDegrees>
            </Position>
            <AltitudeMeters>24.799999237060546875</AltitudeMeters>
            <DistanceMeters>NAN</DistanceMeters>
          </Trackpoint>
          <Trackpoint>
            <Time>2022-07-15T18:32:42.000Z</Time>
            <Position>
              <LatitudeDegrees>43.42090568505227565765380859375</LatitudeDegrees>
              <LongitudeDegrees>-4.75432503037154674530029296875</LongitudeDegrees>
            </Position>
            <AltitudeMeters>24.3999996185302734375</AltitudeMeters>
            <DistanceMeters>NAN</DistanceMeters>
          </Trackpoint>
          <Trackpoint>
            <Time>2022-07-15T18:32:44.000Z</Time>
            <Position>
              <LatitudeDegrees>43.42084550298750400543212890625</LatitudeDegrees>
              <LongitudeDegrees>-4.75433626212179660797119140625</LongitudeDegrees>
            </Position>
            <AltitudeMeters>24</AltitudeMeters>
            <DistanceMeters>NAN</DistanceMeters>
          </Trackpoint>
          <Trackpoint>
            <Time>2022-07-15T18:32:45.000Z</Time>
            <Position>
              <LatitudeDegrees>43.42081884853541851043701171875</LatitudeDegrees>
              <LongitudeDegrees>-4.7543420456349849700927734375</LongitudeDegrees>
            </Position>
            <AltitudeMeters>24</AltitudeMeters>
            <DistanceMeters>NAN</DistanceMeters>
          </Trackpoint>
          <Trackpoint>
            <Time>2022-07-15T18:32:49.000Z</Time>
            <Position>
              <LatitudeDegrees>43.4207396395504474639892578125</LatitudeDegrees>
              <LongitudeDegrees>-4.7543420456349849700927734375</LongitudeDegrees>
            </Position>
            <AltitudeMeters>23.3999996185302734375</AltitudeMeters>
            <DistanceMeters>NAN</DistanceMeters>
          </Trackpoint>
          <Trackpoint>
            <Time>2022-07-15T18:32:53.000Z</Time>
            <Position>
              <LatitudeDegrees>43.4206970594823360443115234375</LatitudeDegrees>
              <LongitudeDegrees>-4.75433818995952606201171875</LongitudeDegrees>
            </Position>
            <AltitudeMeters>22.799999237060546875</AltitudeMeters>
            <DistanceMeters>NAN</DistanceMeters>
          </Trackpoint>
          <Trackpoint>
            <Time>2022-07-15T18:32:54.000Z</Time>
            <Position>
              <LatitudeDegrees>43.4206960536539554595947265625</LatitudeDegrees>
              <LongitudeDegrees>-4.754343219101428985595703125</LongitudeDegrees>
            </Position>
            <AltitudeMeters>22.799999237060546875</AltitudeMeters>
            <DistanceMeters>NAN</DistanceMeters>
          </Trackpoint>
          <Trackpoint>
            <Time>2022-07-15T18:32:55.000Z</Time>
            <Position>
              <LatitudeDegrees>43.4206970594823360443115234375</LatitudeDegrees>
              <LongitudeDegrees>-4.754346571862697601318359375</LongitudeDegrees>
            </Position>
            <AltitudeMeters>22.6000003814697265625</AltitudeMeters>
            <DistanceMeters>NAN</DistanceMeters>
          </Trackpoint>
          <Trackpoint>
            <Time>2022-07-15T18:33:46.000Z</Time>
            <Position>
              <LatitudeDegrees>43.4206254780292510986328125</LatitudeDegrees>
              <LongitudeDegrees>-4.75440792739391326904296875</LongitudeDegrees>
            </Position>
            <AltitudeMeters>22.6000003814697265625</AltitudeMeters>
            <DistanceMeters>NAN</DistanceMeters>
          </Trackpoint>
          <Trackpoint>
            <Time>2022-07-15T18:33:48.000Z</Time>
            <Position>
              <LatitudeDegrees>43.42059639282524585723876953125</LatitudeDegrees>
              <LongitudeDegrees>-4.75441270507872104644775390625</LongitudeDegrees>
            </Position>
            <AltitudeMeters>22.6000003814697265625</AltitudeMeters>
            <DistanceMeters>NAN</DistanceMeters>
          </Trackpoint>
          <Trackpoint>
            <Time>2022-07-15T18:33:49.000Z</Time>
            <Position>
              <LatitudeDegrees>43.42058516107499599456787109375</LatitudeDegrees>
              <LongitudeDegrees>-4.75441790185868740081787109375</LongitudeDegrees>
            </Position>
            <AltitudeMeters>22.6000003814697265625</AltitudeMeters>
            <DistanceMeters>NAN</DistanceMeters>
          </Trackpoint>
          <Trackpoint>
            <Time>2022-07-15T18:33:50.000Z</Time>
            <Position>
              <LatitudeDegrees>43.42057527042925357818603515625</LatitudeDegrees>
              <LongitudeDegrees>-4.75442142225801944732666015625</LongitudeDegrees>
            </Position>
            <AltitudeMeters>22.3999996185302734375</AltitudeMeters>
            <DistanceMeters>NAN</DistanceMeters>
          </Trackpoint>
          <Trackpoint>
            <Time>2022-07-15T18:33:51.000Z</Time>
            <Position>
              <LatitudeDegrees>43.42056487686932086944580078125</LatitudeDegrees>
              <LongitudeDegrees>-4.75442393682897090911865234375</LongitudeDegrees>
            </Position>
            <AltitudeMeters>22.3999996185302734375</AltitudeMeters>
            <DistanceMeters>NAN</DistanceMeters>
          </Trackpoint>
          <Trackpoint>
            <Time>2022-07-15T18:33:53.000Z</Time>
            <Position>
              <LatitudeDegrees>43.4205450117588043212890625</LatitudeDegrees>
              <LongitudeDegrees>-4.75442527793347835540771484375</LongitudeDegrees>
            </Position>
            <AltitudeMeters>22.200000762939453125</AltitudeMeters>
            <DistanceMeters>NAN</DistanceMeters>
          </Trackpoint>
          <Trackpoint>
            <Time>2022-07-15T18:33:56.000Z</Time>
            <Position>
              <LatitudeDegrees>43.420518524944782257080078125</LatitudeDegrees>
              <LongitudeDegrees>-4.75441790185868740081787109375</LongitudeDegrees>
            </Position>
            <AltitudeMeters>22.200000762939453125</AltitudeMeters>
            <DistanceMeters>NAN</DistanceMeters>
          </Trackpoint>
          <Trackpoint>
            <Time>2022-07-15T18:33:58.000Z</Time>
            <Position>
              <LatitudeDegrees>43.42052481137216091156005859375</LatitudeDegrees>
              <LongitudeDegrees>-4.7544179856777191162109375</LongitudeDegrees>
            </Position>
            <AltitudeMeters>22.200000762939453125</AltitudeMeters>
            <DistanceMeters>NAN</DistanceMeters>
          </Trackpoint>
          <Trackpoint>
            <Time>2022-07-15T18:34:02.000Z</Time>
            <Position>
              <LatitudeDegrees>43.4205253981053829193115234375</LatitudeDegrees>
              <LongitudeDegrees>-4.75447724573314189910888671875</LongitudeDegrees>
            </Position>
            <AltitudeMeters>22.200000762939453125</AltitudeMeters>
            <DistanceMeters>NAN</DistanceMeters>
          </Trackpoint>
          <Trackpoint>
            <Time>2022-07-15T18:34:03.000Z</Time>
            <Position>
              <LatitudeDegrees>43.420523218810558319091796875</LatitudeDegrees>
              <LongitudeDegrees>-4.7544862143695354461669921875</LongitudeDegrees>
            </Position>
            <AltitudeMeters>22.200000762939453125</AltitudeMeters>
            <DistanceMeters>NAN</DistanceMeters>
          </Trackpoint>
          <Trackpoint>
            <Time>2022-07-15T18:34:05.000Z</Time>
            <Position>
              <LatitudeDegrees>43.42051886022090911865234375</LatitudeDegrees>
              <LongitudeDegrees>-4.7545096836984157562255859375</LongitudeDegrees>
            </Position>
            <AltitudeMeters>22.200000762939453125</AltitudeMeters>
            <DistanceMeters>NAN</DistanceMeters>
          </Trackpoint>
          <Trackpoint>
            <Time>2022-07-15T18:34:07.000Z</Time>
            <Position>
              <LatitudeDegrees>43.4205160103738307952880859375</LatitudeDegrees>
              <LongitudeDegrees>-4.75454178638756275177001953125</LongitudeDegrees>
            </Position>
            <AltitudeMeters>22.3999996185302734375</AltitudeMeters>
            <DistanceMeters>NAN</DistanceMeters>
          </Trackpoint>
          <Trackpoint>
            <Time>2022-07-15T18:34:10.000Z</Time>
            <Position>
              <LatitudeDegrees>43.42050503008067607879638671875</LatitudeDegrees>
              <LongitudeDegrees>-4.7545864619314670562744140625</LongitudeDegrees>
            </Position>
            <AltitudeMeters>22.6000003814697265625</AltitudeMeters>
            <DistanceMeters>NAN</DistanceMeters>
          </Trackpoint>
          <Trackpoint>
            <Time>2022-07-15T18:34:13.000Z</Time>
            <Position>
              <LatitudeDegrees>43.42050285078585147857666015625</LatitudeDegrees>
              <LongitudeDegrees>-4.7546240128576755523681640625</LongitudeDegrees>
            </Position>
            <AltitudeMeters>22.6000003814697265625</AltitudeMeters>
            <DistanceMeters>NAN</DistanceMeters>
          </Trackpoint>
          <Trackpoint>
            <Time>2022-07-15T18:34:15.000Z</Time>
            <Position>
              <LatitudeDegrees>43.42049648053944110870361328125</LatitudeDegrees>
              <LongitudeDegrees>-4.75465661846101284027099609375</LongitudeDegrees>
            </Position>
            <AltitudeMeters>22.6000003814697265625</AltitudeMeters>
            <DistanceMeters>NAN</DistanceMeters>
          </Trackpoint>
          <Trackpoint>
            <Time>2022-07-15T18:34:18.000Z</Time>
            <Position>
              <LatitudeDegrees>43.42047267593443393707275390625</LatitudeDegrees>
              <LongitudeDegrees>-4.75471612997353076934814453125</LongitudeDegrees>
            </Position>
            <AltitudeMeters>22.799999237060546875</AltitudeMeters>
            <DistanceMeters>NAN</DistanceMeters>
          </Trackpoint>
          <Trackpoint>
            <Time>2022-07-15T18:34:21.000Z</Time>
            <Position>
              <LatitudeDegrees>43.42045155353844165802001953125</LatitudeDegrees>
              <LongitudeDegrees>-4.7547507472336292266845703125</LongitudeDegrees>
            </Position>
            <AltitudeMeters>22.799999237060546875</AltitudeMeters>
            <DistanceMeters>NAN</DistanceMeters>
          </Trackpoint>
          <Trackpoint>
            <Time>2022-07-15T18:34:24.000Z</Time>
            <Position>
              <LatitudeDegrees>43.42045440338551998138427734375</LatitudeDegrees>
              <LongitudeDegrees>-4.754792153835296630859375</LongitudeDegrees>
            </Position>
            <AltitudeMeters>22.6000003814697265625</AltitudeMeters>
            <DistanceMeters>NAN</DistanceMeters>
          </Trackpoint>
          <Trackpoint>
            <Time>2022-07-15T18:34:26.000Z</Time>
            <Position>
              <LatitudeDegrees>43.42044803313910961151123046875</LatitudeDegrees>
              <LongitudeDegrees>-4.754822663962841033935546875</LongitudeDegrees>
            </Position>
            <AltitudeMeters>22.6000003814697265625</AltitudeMeters>
            <DistanceMeters>NAN</DistanceMeters>
          </Trackpoint>
          <Trackpoint>
            <Time>2022-07-15T18:34:31.000Z</Time>
            <Position>
              <LatitudeDegrees>43.42046613804996013641357421875</LatitudeDegrees>
              <LongitudeDegrees>-4.75487069226801395416259765625</LongitudeDegrees>
            </Position>
            <AltitudeMeters>22.3999996185302734375</AltitudeMeters>
            <DistanceMeters>NAN</DistanceMeters>
          </Trackpoint>
          <Trackpoint>
            <Time>2022-07-15T18:34:37.000Z</Time>
            <Position>
              <LatitudeDegrees>43.4204995818436145782470703125</LatitudeDegrees>
              <LongitudeDegrees>-4.75489617325365543365478515625</LongitudeDegrees>
            </Position>
            <AltitudeMeters>22.6000003814697265625</AltitudeMeters>
            <DistanceMeters>NAN</DistanceMeters>
          </Trackpoint>
          <Trackpoint>
            <Time>2022-07-15T18:34:41.000Z</Time>
            <Position>
              <LatitudeDegrees>43.42054258100688457489013671875</LatitudeDegrees>
              <LongitudeDegrees>-4.75496448576450347900390625</LongitudeDegrees>
            </Position>
            <AltitudeMeters>22.799999237060546875</AltitudeMeters>
            <DistanceMeters>NAN</DistanceMeters>
          </Trackpoint>
          <Trackpoint>
            <Time>2022-07-15T18:34:43.000Z</Time>
            <Position>
              <LatitudeDegrees>43.42056001536548137664794921875</LatitudeDegrees>
              <LongitudeDegrees>-4.75500815548002719879150390625</LongitudeDegrees>
            </Position>
            <AltitudeMeters>22.799999237060546875</AltitudeMeters>
            <DistanceMeters>NAN</DistanceMeters>
          </Trackpoint>
          <Trackpoint>
            <Time>2022-07-15T18:34:45.000Z</Time>
            <Position>
              <LatitudeDegrees>43.420593626797199249267578125</LatitudeDegrees>
              <LongitudeDegrees>-4.75501519627869129180908203125</LongitudeDegrees>
            </Position>
            <AltitudeMeters>22.799999237060546875</AltitudeMeters>
            <DistanceMeters>NAN</DistanceMeters>
          </Trackpoint>
          <Trackpoint>
            <Time>2022-07-15T18:34:47.000Z</Time>
            <Position>
              <LatitudeDegrees>43.42062748968601226806640625</LatitudeDegrees>
              <LongitudeDegrees>-4.75501318462193012237548828125</LongitudeDegrees>
            </Position>
            <AltitudeMeters>23</AltitudeMeters>
            <DistanceMeters>NAN</DistanceMeters>
          </Trackpoint>
          <Trackpoint>
            <Time>2022-07-15T18:34:48.000Z</Time>
            <Position>
              <LatitudeDegrees>43.42064333148300647735595703125</LatitudeDegrees>
              <LongitudeDegrees>-4.75501737557351589202880859375</LongitudeDegrees>
            </Position>
            <AltitudeMeters>23</AltitudeMeters>
            <DistanceMeters>NAN</DistanceMeters>
          </Trackpoint>
          <Trackpoint>
            <Time>2022-07-15T18:34:51.000Z</Time>
            <Position>
              <LatitudeDegrees>43.4206984005868434906005859375</LatitudeDegrees>
              <LongitudeDegrees>-4.7550320439040660858154296875</LongitudeDegrees>
            </Position>
            <AltitudeMeters>23.200000762939453125</AltitudeMeters>
            <DistanceMeters>NAN</DistanceMeters>
          </Trackpoint>
          <Trackpoint>
            <Time>2022-07-15T18:34:52.000Z</Time>
            <Position>
              <LatitudeDegrees>43.4207168407738208770751953125</LatitudeDegrees>
              <LongitudeDegrees>-4.75505006499588489532470703125</LongitudeDegrees>
            </Position>
            <AltitudeMeters>23.3999996185302734375</AltitudeMeters>
            <DistanceMeters>NAN</DistanceMeters>
          </Trackpoint>
          <Trackpoint>
            <Time>2022-07-15T18:34:59.000Z</Time>
            <Position>
              <LatitudeDegrees>43.42085505835711956024169921875</LatitudeDegrees>
              <LongitudeDegrees>-4.75517948158085346221923828125</LongitudeDegrees>
            </Position>
            <AltitudeMeters>23.799999237060546875</AltitudeMeters>
            <DistanceMeters>NAN</DistanceMeters>
          </Trackpoint>
          <Trackpoint>
            <Time>2022-07-15T18:35:04.000Z</Time>
            <Position>
              <LatitudeDegrees>43.42091524042189121246337890625</LatitudeDegrees>
              <LongitudeDegrees>-4.75533706136047840118408203125</LongitudeDegrees>
            </Position>
            <AltitudeMeters>24</AltitudeMeters>
            <DistanceMeters>NAN</DistanceMeters>
          </Trackpoint>
          <Trackpoint>
            <Time>2022-07-15T18:35:12.000Z</Time>
            <Position>
              <LatitudeDegrees>43.42099688015878200531005859375</LatitudeDegrees>
              <LongitudeDegrees>-4.75561483763158321380615234375</LongitudeDegrees>
            </Position>
            <AltitudeMeters>24.3999996185302734375</AltitudeMeters>
            <DistanceMeters>NAN</DistanceMeters>
          </Trackpoint>
          <Trackpoint>
            <Time>2022-07-15T18:35:17.000Z</Time>
            <Position>
              <LatitudeDegrees>43.4210501052439212799072265625</LatitudeDegrees>
              <LongitudeDegrees>-4.755751378834247589111328125</LongitudeDegrees>
            </Position>
            <AltitudeMeters>24.3999996185302734375</AltitudeMeters>
            <DistanceMeters>NAN</DistanceMeters>
          </Trackpoint>
          <Trackpoint>
            <Time>2022-07-15T18:35:18.000Z</Time>
            <Position>
              <LatitudeDegrees>43.4210601635277271270751953125</LatitudeDegrees>
              <LongitudeDegrees>-4.75577945820987224578857421875</LongitudeDegrees>
            </Position>
            <AltitudeMeters>24.3999996185302734375</AltitudeMeters>
            <DistanceMeters>NAN</DistanceMeters>
          </Trackpoint>
          <Trackpoint>
            <Time>2022-07-15T18:35:22.000Z</Time>
            <Position>
              <LatitudeDegrees>43.421087153255939483642578125</LatitudeDegrees>
              <LongitudeDegrees>-4.75589931942522525787353515625</LongitudeDegrees>
            </Position>
            <AltitudeMeters>24.6000003814697265625</AltitudeMeters>
            <DistanceMeters>NAN</DistanceMeters>
          </Trackpoint>
          <Trackpoint>
            <Time>2022-07-15T18:35:27.000Z</Time>
            <Position>
              <LatitudeDegrees>43.421132750809192657470703125</LatitudeDegrees>
              <LongitudeDegrees>-4.75605522282421588897705078125</LongitudeDegrees>
            </Position>
            <AltitudeMeters>24.799999237060546875</AltitudeMeters>
            <DistanceMeters>NAN</DistanceMeters>
          </Trackpoint>
          <Trackpoint>
            <Time>2022-07-15T18:35:28.000Z</Time>
            <Position>
              <LatitudeDegrees>43.42113853432238101959228515625</LatitudeDegrees>
              <LongitudeDegrees>-4.75608439184725284576416015625</LongitudeDegrees>
            </Position>
            <AltitudeMeters>24.799999237060546875</AltitudeMeters>
            <DistanceMeters>NAN</DistanceMeters>
          </Trackpoint>
          <Trackpoint>
            <Time>2022-07-15T18:35:30.000Z</Time>
            <Position>
              <LatitudeDegrees>43.42114423401653766632080078125</LatitudeDegrees>
              <LongitudeDegrees>-4.7561481781303882598876953125</LongitudeDegrees>
            </Position>
            <AltitudeMeters>25</AltitudeMeters>
            <DistanceMeters>NAN</DistanceMeters>
          </Trackpoint>
          <Trackpoint>
            <Time>2022-07-15T18:35:33.000Z</Time>
            <Position>
              <LatitudeDegrees>43.4211624227464199066162109375</LatitudeDegrees>
              <LongitudeDegrees>-4.7562507726252079010009765625</LongitudeDegrees>
            </Position>
            <AltitudeMeters>25.200000762939453125</AltitudeMeters>
            <DistanceMeters>NAN</DistanceMeters>
          </Trackpoint>
          <Trackpoint>
            <Time>2022-07-15T18:35:36.000Z</Time>
            <Position>
              <LatitudeDegrees>43.42118480242788791656494140625</LatitudeDegrees>
              <LongitudeDegrees>-4.7563486732542514801025390625</LongitudeDegrees>
            </Position>
            <AltitudeMeters>25.3999996185302734375</AltitudeMeters>
            <DistanceMeters>NAN</DistanceMeters>
          </Trackpoint>
          <Trackpoint>
            <Time>2022-07-15T18:35:39.000Z</Time>
            <Position>
              <LatitudeDegrees>43.42119611799716949462890625</LatitudeDegrees>
              <LongitudeDegrees>-4.756464846432209014892578125</LongitudeDegrees>
            </Position>
            <AltitudeMeters>25.6000003814697265625</AltitudeMeters>
            <DistanceMeters>NAN</DistanceMeters>
          </Trackpoint>
          <Trackpoint>
            <Time>2022-07-15T18:35:43.000Z</Time>
            <Position>
              <LatitudeDegrees>43.42119351960718631744384765625</LatitudeDegrees>
              <LongitudeDegrees>-4.75662100128829479217529296875</LongitudeDegrees>
            </Position>
            <AltitudeMeters>25.799999237060546875</AltitudeMeters>
            <DistanceMeters>NAN</DistanceMeters>
          </Trackpoint>
          <Trackpoint>
            <Time>2022-07-15T18:35:44.000Z</Time>
            <Position>
              <LatitudeDegrees>43.421197794377803802490234375</LatitudeDegrees>
              <LongitudeDegrees>-4.75665251724421977996826171875</LongitudeDegrees>
            </Position>
            <AltitudeMeters>26</AltitudeMeters>
            <DistanceMeters>NAN</DistanceMeters>
          </Trackpoint>
          <Trackpoint>
            <Time>2022-07-15T18:35:51.000Z</Time>
            <Position>
              <LatitudeDegrees>43.42124112881720066070556640625</LatitudeDegrees>
              <LongitudeDegrees>-4.756882600486278533935546875</LongitudeDegrees>
            </Position>
            <AltitudeMeters>26</AltitudeMeters>
            <DistanceMeters>NAN</DistanceMeters>
          </Trackpoint>
          <Trackpoint>
            <Time>2022-07-15T18:35:57.000Z</Time>
            <Position>
              <LatitudeDegrees>43.421249091625213623046875</LatitudeDegrees>
              <LongitudeDegrees>-4.75707295350730419158935546875</LongitudeDegrees>
            </Position>
            <AltitudeMeters>26.6000003814697265625</AltitudeMeters>
            <DistanceMeters>NAN</DistanceMeters>
          </Trackpoint>
          <Trackpoint>
            <Time>2022-07-15T18:36:04.000Z</Time>
            <Position>
              <LatitudeDegrees>43.42127700336277484893798828125</LatitudeDegrees>
              <LongitudeDegrees>-4.757342599332332611083984375</LongitudeDegrees>
            </Position>
            <AltitudeMeters>27</AltitudeMeters>
            <DistanceMeters>NAN</DistanceMeters>
          </Trackpoint>
          <Trackpoint>
            <Time>2022-07-15T18:36:11.000Z</Time>
            <Position>
              <LatitudeDegrees>43.421329893171787261962890625</LatitudeDegrees>
              <LongitudeDegrees>-4.75763504393398761749267578125</LongitudeDegrees>
            </Position>
            <AltitudeMeters>27.3999996185302734375</AltitudeMeters>
            <DistanceMeters>NAN</DistanceMeters>
          </Trackpoint>
          <Trackpoint>
            <Time>2022-07-15T18:36:19.000Z</Time>
            <Position>
              <LatitudeDegrees>43.42137490399181842803955078125</LatitudeDegrees>
              <LongitudeDegrees>-4.7579415701329708099365234375</LongitudeDegrees>
            </Position>
            <AltitudeMeters>27.799999237060546875</AltitudeMeters>
            <DistanceMeters>NAN</DistanceMeters>
          </Trackpoint>
          <Trackpoint>
            <Time>2022-07-15T18:36:23.000Z</Time>
            <Position>
              <LatitudeDegrees>43.4214065037667751312255859375</LatitudeDegrees>
              <LongitudeDegrees>-4.75809487514197826385498046875</LongitudeDegrees>
            </Position>
            <AltitudeMeters>28</AltitudeMeters>
            <DistanceMeters>NAN</DistanceMeters>
          </Trackpoint>
          <Trackpoint>
            <Time>2022-07-15T18:36:26.000Z</Time>
            <Position>
              <LatitudeDegrees>43.42143491841852664947509765625</LatitudeDegrees>
              <LongitudeDegrees>-4.75821138359606266021728515625</LongitudeDegrees>
            </Position>
            <AltitudeMeters>28.200000762939453125</AltitudeMeters>
            <DistanceMeters>NAN</DistanceMeters>
          </Trackpoint>
          <Trackpoint>
            <Time>2022-07-15T18:36:35.000Z</Time>
            <Position>
              <LatitudeDegrees>43.42154078185558319091796875</LatitudeDegrees>
              <LongitudeDegrees>-4.75854380987584590911865234375</LongitudeDegrees>
            </Position>
            <AltitudeMeters>28.799999237060546875</AltitudeMeters>
            <DistanceMeters>NAN</DistanceMeters>
          </Trackpoint>
          <Trackpoint>
            <Time>2022-07-15T18:36:42.000Z</Time>
            <Position>
              <LatitudeDegrees>43.42161177657544612884521484375</LatitudeDegrees>
              <LongitudeDegrees>-4.7588355839252471923828125</LongitudeDegrees>
            </Position>
            <AltitudeMeters>29</AltitudeMeters>
            <DistanceMeters>NAN</DistanceMeters>
          </Trackpoint>
          <Trackpoint>
            <Time>2022-07-15T18:36:48.000Z</Time>
            <Position>
              <LatitudeDegrees>43.42167355120182037353515625</LatitudeDegrees>
              <LongitudeDegrees>-4.75904488004744052886962890625</LongitudeDegrees>
            </Position>
            <AltitudeMeters>29.3999996185302734375</AltitudeMeters>
            <DistanceMeters>NAN</DistanceMeters>
          </Trackpoint>
          <Trackpoint>
            <Time>2022-07-15T18:36:51.000Z</Time>
            <Position>
              <LatitudeDegrees>43.42169727198779582977294921875</LatitudeDegrees>
              <LongitudeDegrees>-4.7591297887265682220458984375</LongitudeDegrees>
            </Position>
            <AltitudeMeters>29.3999996185302734375</AltitudeMeters>
            <DistanceMeters>NAN</DistanceMeters>
          </Trackpoint>
          <Trackpoint>
            <Time>2022-07-15T18:36:52.000Z</Time>
            <Position>
              <LatitudeDegrees>43.42170649208128452301025390625</LatitudeDegrees>
              <LongitudeDegrees>-4.75913791917264461517333984375</LongitudeDegrees>
            </Position>
            <AltitudeMeters>29.3999996185302734375</AltitudeMeters>
            <DistanceMeters>NAN</DistanceMeters>
          </Trackpoint>
          <Trackpoint>
            <Time>2022-07-15T18:36:54.000Z</Time>
            <Position>
              <LatitudeDegrees>43.42170330695807933807373046875</LatitudeDegrees>
              <LongitudeDegrees>-4.75914965383708477020263671875</LongitudeDegrees>
            </Position>
            <AltitudeMeters>29.200000762939453125</AltitudeMeters>
            <DistanceMeters>NAN</DistanceMeters>
          </Trackpoint>
          <Trackpoint>
            <Time>2022-07-15T18:37:29.000Z</Time>
            <Position>
              <LatitudeDegrees>43.42174370773136615753173828125</LatitudeDegrees>
              <LongitudeDegrees>-4.75923481397330760955810546875</LongitudeDegrees>
            </Position>
            <AltitudeMeters>29.200000762939453125</AltitudeMeters>
            <DistanceMeters>NAN</DistanceMeters>
          </Trackpoint>
          <Trackpoint>
            <Time>2022-07-15T18:37:35.000Z</Time>
            <Position>
              <LatitudeDegrees>43.42181126587092876434326171875</LatitudeDegrees>
              <LongitudeDegrees>-4.7594379074871540069580078125</LongitudeDegrees>
            </Position>
            <AltitudeMeters>29.3999996185302734375</AltitudeMeters>
            <DistanceMeters>NAN</DistanceMeters>
          </Trackpoint>
          <Trackpoint>
            <Time>2022-07-15T18:37:42.000Z</Time>
            <Position>
              <LatitudeDegrees>43.42191855423152446746826171875</LatitudeDegrees>
              <LongitudeDegrees>-4.75972046144306659698486328125</LongitudeDegrees>
            </Position>
            <AltitudeMeters>29.799999237060546875</AltitudeMeters>
            <DistanceMeters>NAN</DistanceMeters>
          </Trackpoint>
          <Trackpoint>
            <Time>2022-07-15T18:37:50.000Z</Time>
            <Position>
              <LatitudeDegrees>43.4220274351537227630615234375</LatitudeDegrees>
              <LongitudeDegrees>-4.76007501594722270965576171875</LongitudeDegrees>
            </Position>
            <AltitudeMeters>29.799999237060546875</AltitudeMeters>
            <DistanceMeters>NAN</DistanceMeters>
          </Trackpoint>
          <Trackpoint>
            <Time>2022-07-15T18:37:54.000Z</Time>
            <Position>
              <LatitudeDegrees>43.42208853922784328460693359375</LatitudeDegrees>
              <LongitudeDegrees>-4.76023326627910137176513671875</LongitudeDegrees>
            </Position>
            <AltitudeMeters>30</AltitudeMeters>
            <DistanceMeters>NAN</DistanceMeters>
          </Trackpoint>
          <Trackpoint>
            <Time>2022-07-15T18:37:56.000Z</Time>
            <Position>
              <LatitudeDegrees>43.42210111208260059356689453125</LatitudeDegrees>
              <LongitudeDegrees>-4.7602737508714199066162109375</LongitudeDegrees>
            </Position>
            <AltitudeMeters>30</AltitudeMeters>
            <DistanceMeters>NAN</DistanceMeters>
          </Trackpoint>
          <Trackpoint>
            <Time>2022-07-15T18:37:58.000Z</Time>
            <Position>
              <LatitudeDegrees>43.4221422672271728515625</LatitudeDegrees>
              <LongitudeDegrees>-4.76038430817425251007080078125</LongitudeDegrees>
            </Position>
            <AltitudeMeters>30.200000762939453125</AltitudeMeters>
            <DistanceMeters>NAN</DistanceMeters>
          </Trackpoint>
          <Trackpoint>
            <Time>2022-07-15T18:38:03.000Z</Time>
            <Position>
              <LatitudeDegrees>43.42219532467424869537353515625</LatitudeDegrees>
              <LongitudeDegrees>-4.76056535728275775909423828125</LongitudeDegrees>
            </Position>
            <AltitudeMeters>30.3999996185302734375</AltitudeMeters>
            <DistanceMeters>NAN</DistanceMeters>
          </Trackpoint>
          <Trackpoint>
            <Time>2022-07-15T18:38:07.000Z</Time>
            <Position>
              <LatitudeDegrees>43.42224352061748504638671875</LatitudeDegrees>
              <LongitudeDegrees>-4.7607158124446868896484375</LongitudeDegrees>
            </Position>
            <AltitudeMeters>30.6000003814697265625</AltitudeMeters>
            <DistanceMeters>NAN</DistanceMeters>
          </Trackpoint>
          <Trackpoint>
            <Time>2022-07-15T18:38:16.000Z</Time>
            <Position>
              <LatitudeDegrees>43.42234670184552669525146484375</LatitudeDegrees>
              <LongitudeDegrees>-4.76097841747105121612548828125</LongitudeDegrees>
            </Position>
            <AltitudeMeters>31</AltitudeMeters>
            <DistanceMeters>NAN</DistanceMeters>
          </Trackpoint>
          <Trackpoint>
            <Time>2022-07-15T18:38:20.000Z</Time>
            <Position>
              <LatitudeDegrees>43.422370254993438720703125</LatitudeDegrees>
              <LongitudeDegrees>-4.761125184595584869384765625</LongitudeDegrees>
            </Position>
            <AltitudeMeters>31</AltitudeMeters>
            <DistanceMeters>NAN</DistanceMeters>
          </Trackpoint>
          <Trackpoint>
            <Time>2022-07-15T18:38:25.000Z</Time>
            <Position>
              <LatitudeDegrees>43.42242348007857799530029296875</LatitudeDegrees>
              <LongitudeDegrees>-4.76128083653748035430908203125</LongitudeDegrees>
            </Position>
            <AltitudeMeters>31.200000762939453125</AltitudeMeters>
            <DistanceMeters>NAN</DistanceMeters>
          </Trackpoint>
          <Trackpoint>
            <Time>2022-07-15T18:38:28.000Z</Time>
            <Position>
              <LatitudeDegrees>43.42244803905487060546875</LatitudeDegrees>
              <LongitudeDegrees>-4.761326350271701812744140625</LongitudeDegrees>
            </Position>
            <AltitudeMeters>31.3999996185302734375</AltitudeMeters>
            <DistanceMeters>NAN</DistanceMeters>
          </Trackpoint>
          <Trackpoint>
            <Time>2022-07-15T18:38:31.000Z</Time>
            <Position>
              <LatitudeDegrees>43.42248902656137943267822265625</LatitudeDegrees>
              <LongitudeDegrees>-4.76143355481326580047607421875</LongitudeDegrees>
            </Position>
            <AltitudeMeters>31.3999996185302734375</AltitudeMeters>
            <DistanceMeters>NAN</DistanceMeters>
          </Trackpoint>
          <Trackpoint>
            <Time>2022-07-15T18:38:36.000Z</Time>
            <Position>
              <LatitudeDegrees>43.42255289666354656219482421875</LatitudeDegrees>
              <LongitudeDegrees>-4.76163036189973354339599609375</LongitudeDegrees>
            </Position>
            <AltitudeMeters>31.6000003814697265625</AltitudeMeters>
            <DistanceMeters>NAN</DistanceMeters>
          </Trackpoint>
          <Trackpoint>
            <Time>2022-07-15T18:38:46.000Z</Time>
            <Position>
              <LatitudeDegrees>43.422689773142337799072265625</LatitudeDegrees>
              <LongitudeDegrees>-4.76209421642124652862548828125</LongitudeDegrees>
            </Position>
            <AltitudeMeters>31.799999237060546875</AltitudeMeters>
            <DistanceMeters>NAN</DistanceMeters>
          </Trackpoint>
          <Trackpoint>
            <Time>2022-07-15T18:38:50.000Z</Time>
            <Position>
              <LatitudeDegrees>43.4227385558187961578369140625</LatitudeDegrees>
              <LongitudeDegrees>-4.76224425248801708221435546875</LongitudeDegrees>
            </Position>
            <AltitudeMeters>32</AltitudeMeters>
            <DistanceMeters>NAN</DistanceMeters>
          </Trackpoint>
          <Trackpoint>
            <Time>2022-07-15T18:38:51.000Z</Time>
            <Position>
              <LatitudeDegrees>43.42275389470160007476806640625</LatitudeDegrees>
              <LongitudeDegrees>-4.7622875869274139404296875</LongitudeDegrees>
            </Position>
            <AltitudeMeters>32</AltitudeMeters>
            <DistanceMeters>NAN</DistanceMeters>
          </Trackpoint>
          <Trackpoint>
            <Time>2022-07-15T18:38:54.000Z</Time>
            <Position>
              <LatitudeDegrees>43.42277904041111469268798828125</LatitudeDegrees>
              <LongitudeDegrees>-4.7623866610229015350341796875</LongitudeDegrees>
            </Position>
            <AltitudeMeters>32</AltitudeMeters>
            <DistanceMeters>NAN</DistanceMeters>
          </Trackpoint>
          <Trackpoint>
            <Time>2022-07-15T18:39:03.000Z</Time>
            <Position>
              <LatitudeDegrees>43.42285011895000934600830078125</LatitudeDegrees>
              <LongitudeDegrees>-4.7627837955951690673828125</LongitudeDegrees>
            </Position>
            <AltitudeMeters>32.200000762939453125</AltitudeMeters>
            <DistanceMeters>NAN</DistanceMeters>
          </Trackpoint>
          <Trackpoint>
            <Time>2022-07-15T18:39:08.000Z</Time>
            <Position>
              <LatitudeDegrees>43.42287660576403141021728515625</LatitudeDegrees>
              <LongitudeDegrees>-4.76299040950834751129150390625</LongitudeDegrees>
            </Position>
            <AltitudeMeters>32.59999847412109375</AltitudeMeters>
            <DistanceMeters>NAN</DistanceMeters>
          </Trackpoint>
          <Trackpoint>
            <Time>2022-07-15T18:39:11.000Z</Time>
            <Position>
              <LatitudeDegrees>43.42287275008857250213623046875</LatitudeDegrees>
              <LongitudeDegrees>-4.76311010308563709259033203125</LongitudeDegrees>
            </Position>
            <AltitudeMeters>32.59999847412109375</AltitudeMeters>
            <DistanceMeters>NAN</DistanceMeters>
          </Trackpoint>
          <Trackpoint>
            <Time>2022-07-15T18:39:19.000Z</Time>
            <Position>
              <LatitudeDegrees>43.42289923690259456634521484375</LatitudeDegrees>
              <LongitudeDegrees>-4.76346834562718868255615234375</LongitudeDegrees>
            </Position>
            <AltitudeMeters>32.59999847412109375</AltitudeMeters>
            <DistanceMeters>NAN</DistanceMeters>
          </Trackpoint>
          <Trackpoint>
            <Time>2022-07-15T18:39:28.000Z</Time>
            <Position>
              <LatitudeDegrees>43.4229377098381519317626953125</LatitudeDegrees>
              <LongitudeDegrees>-4.76387050934135913848876953125</LongitudeDegrees>
            </Position>
            <AltitudeMeters>33.200000762939453125</AltitudeMeters>
            <DistanceMeters>NAN</DistanceMeters>
          </Trackpoint>
          <Trackpoint>
            <Time>2022-07-15T18:39:29.000Z</Time>
            <Position>
              <LatitudeDegrees>43.422940559685230255126953125</LatitudeDegrees>
              <LongitudeDegrees>-4.7639208845794200897216796875</LongitudeDegrees>
            </Position>
            <AltitudeMeters>33.200000762939453125</AltitudeMeters>
            <DistanceMeters>NAN</DistanceMeters>
          </Trackpoint>
          <Trackpoint>
            <Time>2022-07-15T18:39:34.000Z</Time>
            <Position>
              <LatitudeDegrees>43.4229670464992523193359375</LatitudeDegrees>
              <LongitudeDegrees>-4.7641186974942684173583984375</LongitudeDegrees>
            </Position>
            <AltitudeMeters>33.40000152587890625</AltitudeMeters>
            <DistanceMeters>NAN</DistanceMeters>
          </Trackpoint>
          <Trackpoint>
            <Time>2022-07-15T18:39:37.000Z</Time>
            <Position>
              <LatitudeDegrees>43.42297484166920185089111328125</LatitudeDegrees>
              <LongitudeDegrees>-4.76424769498407840728759765625</LongitudeDegrees>
            </Position>
            <AltitudeMeters>33.59999847412109375</AltitudeMeters>
            <DistanceMeters>NAN</DistanceMeters>
          </Trackpoint>
          <Trackpoint>
            <Time>2022-07-15T18:39:45.000Z</Time>
            <Position>
              <LatitudeDegrees>43.4230014123022556304931640625</LatitudeDegrees>
              <LongitudeDegrees>-4.76456620730459690093994140625</LongitudeDegrees>
            </Position>
            <AltitudeMeters>34</AltitudeMeters>
            <DistanceMeters>NAN</DistanceMeters>
          </Trackpoint>
          <Trackpoint>
            <Time>2022-07-15T18:39:48.000Z</Time>
            <Position>
              <LatitudeDegrees>43.42300334013998508453369140625</LatitudeDegrees>
              <LongitudeDegrees>-4.7646722383797168731689453125</LongitudeDegrees>
            </Position>
            <AltitudeMeters>34</AltitudeMeters>
            <DistanceMeters>NAN</DistanceMeters>
          </Trackpoint>
          <Trackpoint>
            <Time>2022-07-15T18:39:52.000Z</Time>
            <Position>
              <LatitudeDegrees>43.42302136123180389404296875</LatitudeDegrees>
              <LongitudeDegrees>-4.7648330032825469970703125</LongitudeDegrees>
            </Position>
            <AltitudeMeters>34.200000762939453125</AltitudeMeters>
            <DistanceMeters>NAN</DistanceMeters>
          </Trackpoint>
          <Trackpoint>
            <Time>2022-07-15T18:39:54.000Z</Time>
            <Position>
              <LatitudeDegrees>43.4230376221239566802978515625</LatitudeDegrees>
              <LongitudeDegrees>-4.76491414010524749755859375</LongitudeDegrees>
            </Position>
            <AltitudeMeters>34.200000762939453125</AltitudeMeters>
            <DistanceMeters>NAN</DistanceMeters>
          </Trackpoint>
          <Trackpoint>
            <Time>2022-07-15T18:40:01.000Z</Time>
            <Position>
              <LatitudeDegrees>43.4230962954461574554443359375</LatitudeDegrees>
              <LongitudeDegrees>-4.765180684626102447509765625</LongitudeDegrees>
            </Position>
            <AltitudeMeters>34.59999847412109375</AltitudeMeters>
            <DistanceMeters>NAN</DistanceMeters>
          </Trackpoint>
          <Trackpoint>
            <Time>2022-07-15T18:40:02.000Z</Time>
            <Position>
              <LatitudeDegrees>43.4230962954461574554443359375</LatitudeDegrees>
              <LongitudeDegrees>-4.765180684626102447509765625</LongitudeDegrees>
            </Position>
            <AltitudeMeters>34.59999847412109375</AltitudeMeters>
            <DistanceMeters>NAN</DistanceMeters>
          </Trackpoint>
          <Trackpoint>
            <Time>2022-07-15T18:40:09.000Z</Time>
            <Position>
              <LatitudeDegrees>43.423120267689228057861328125</LatitudeDegrees>
              <LongitudeDegrees>-4.765505231916904449462890625</LongitudeDegrees>
            </Position>
            <AltitudeMeters>34.799999237060546875</AltitudeMeters>
            <DistanceMeters>NAN</DistanceMeters>
          </Trackpoint>
          <Trackpoint>
            <Time>2022-07-15T18:40:21.000Z</Time>
            <Position>
              <LatitudeDegrees>43.42318891547620296478271484375</LatitudeDegrees>
              <LongitudeDegrees>-4.766016863286495208740234375</LongitudeDegrees>
            </Position>
            <AltitudeMeters>35</AltitudeMeters>
            <DistanceMeters>NAN</DistanceMeters>
          </Trackpoint>
          <Trackpoint>
            <Time>2022-07-15T18:40:27.000Z</Time>
            <Position>
              <LatitudeDegrees>43.42323325574398040771484375</LatitudeDegrees>
              <LongitudeDegrees>-4.76622934453189373016357421875</LongitudeDegrees>
            </Position>
            <AltitudeMeters>35</AltitudeMeters>
            <DistanceMeters>NAN</DistanceMeters>
          </Trackpoint>
          <Trackpoint>
            <Time>2022-07-15T18:40:29.000Z</Time>
            <Position>
              <LatitudeDegrees>43.423251695930957794189453125</LatitudeDegrees>
              <LongitudeDegrees>-4.76630729623138904571533203125</LongitudeDegrees>
            </Position>
            <AltitudeMeters>35.200000762939453125</AltitudeMeters>
            <DistanceMeters>NAN</DistanceMeters>
          </Trackpoint>
          <Trackpoint>
            <Time>2022-07-15T18:40:30.000Z</Time>
            <Position>
              <LatitudeDegrees>43.42325982637703418731689453125</LatitudeDegrees>
              <LongitudeDegrees>-4.766344092786312103271484375</LongitudeDegrees>
            </Position>
            <AltitudeMeters>35.200000762939453125</AltitudeMeters>
            <DistanceMeters>NAN</DistanceMeters>
          </Trackpoint>
          <Trackpoint>
            <Time>2022-07-15T18:40:31.000Z</Time>
            <Position>
              <LatitudeDegrees>43.4232682920992374420166015625</LatitudeDegrees>
              <LongitudeDegrees>-4.7663833200931549072265625</LongitudeDegrees>
            </Position>
            <AltitudeMeters>35.200000762939453125</AltitudeMeters>
            <DistanceMeters>NAN</DistanceMeters>
          </Trackpoint>
          <Trackpoint>
            <Time>2022-07-15T18:40:35.000Z</Time>
            <Position>
              <LatitudeDegrees>43.4233009815216064453125</LatitudeDegrees>
              <LongitudeDegrees>-4.76655255071818828582763671875</LongitudeDegrees>
            </Position>
            <AltitudeMeters>35.200000762939453125</AltitudeMeters>
            <DistanceMeters>NAN</DistanceMeters>
          </Trackpoint>
          <Trackpoint>
            <Time>2022-07-15T18:40:39.000Z</Time>
            <Position>
              <LatitudeDegrees>43.42334230430424213409423828125</LatitudeDegrees>
              <LongitudeDegrees>-4.766722954809665679931640625</LongitudeDegrees>
            </Position>
            <AltitudeMeters>35.200000762939453125</AltitudeMeters>
            <DistanceMeters>NAN</DistanceMeters>
          </Trackpoint>
          <Trackpoint>
            <Time>2022-07-15T18:40:43.000Z</Time>
            <Position>
              <LatitudeDegrees>43.42338605783879756927490234375</LatitudeDegrees>
              <LongitudeDegrees>-4.76683384738862514495849609375</LongitudeDegrees>
            </Position>
            <AltitudeMeters>35.40000152587890625</AltitudeMeters>
            <DistanceMeters>NAN</DistanceMeters>
          </Trackpoint>
          <Trackpoint>
            <Time>2022-07-15T18:40:44.000Z</Time>
            <Position>
              <LatitudeDegrees>43.42340634204447269439697265625</LatitudeDegrees>
              <LongitudeDegrees>-4.76683384738862514495849609375</LongitudeDegrees>
            </Position>
            <AltitudeMeters>35.40000152587890625</AltitudeMeters>
            <DistanceMeters>NAN</DistanceMeters>
          </Trackpoint>
          <Trackpoint>
            <Time>2022-07-15T18:40:50.000Z</Time>
            <Position>
              <LatitudeDegrees>43.42355118133127689361572265625</LatitudeDegrees>
              <LongitudeDegrees>-4.76676545105874538421630859375</LongitudeDegrees>
            </Position>
            <AltitudeMeters>35.40000152587890625</AltitudeMeters>
            <DistanceMeters>NAN</DistanceMeters>
          </Trackpoint>
          <Trackpoint>
            <Time>2022-07-15T18:40:53.000Z</Time>
            <Position>
              <LatitudeDegrees>43.4236230142414569854736328125</LatitudeDegrees>
              <LongitudeDegrees>-4.76673376746475696563720703125</LongitudeDegrees>
            </Position>
            <AltitudeMeters>35.40000152587890625</AltitudeMeters>
            <DistanceMeters>NAN</DistanceMeters>
          </Trackpoint>
          <Trackpoint>
            <Time>2022-07-15T18:40:57.000Z</Time>
            <Position>
              <LatitudeDegrees>43.4237132035195827484130859375</LatitudeDegrees>
              <LongitudeDegrees>-4.76668230257928371429443359375</LongitudeDegrees>
            </Position>
            <AltitudeMeters>35.40000152587890625</AltitudeMeters>
            <DistanceMeters>NAN</DistanceMeters>
          </Trackpoint>
          <Trackpoint>
            <Time>2022-07-15T18:41:05.000Z</Time>
            <Position>
              <LatitudeDegrees>43.4238781593739986419677734375</LatitudeDegrees>
              <LongitudeDegrees>-4.766596890985965728759765625</LongitudeDegrees>
            </Position>
            <AltitudeMeters>36</AltitudeMeters>
            <DistanceMeters>NAN</DistanceMeters>
          </Trackpoint>
          <Trackpoint>
            <Time>2022-07-15T18:41:15.000Z</Time>
            <Position>
              <LatitudeDegrees>43.4240387566387653350830078125</LatitudeDegrees>
              <LongitudeDegrees>-4.7665256448090076446533203125</LongitudeDegrees>
            </Position>
            <AltitudeMeters>36</AltitudeMeters>
            <DistanceMeters>NAN</DistanceMeters>
          </Trackpoint>
          <Trackpoint>
            <Time>2022-07-15T18:41:20.000Z</Time>
            <Position>
              <LatitudeDegrees>43.4241158701479434967041015625</LatitudeDegrees>
              <LongitudeDegrees>-4.7665444202721118927001953125</LongitudeDegrees>
            </Position>
            <AltitudeMeters>36</AltitudeMeters>
            <DistanceMeters>NAN</DistanceMeters>
          </Trackpoint>
          <Trackpoint>
            <Time>2022-07-15T18:41:23.000Z</Time>
            <Position>
              <LatitudeDegrees>43.424162976443767547607421875</LatitudeDegrees>
              <LongitudeDegrees>-4.7665481083095073699951171875</LongitudeDegrees>
            </Position>
            <AltitudeMeters>36</AltitudeMeters>
            <DistanceMeters>NAN</DistanceMeters>
          </Trackpoint>
          <Trackpoint>
            <Time>2022-07-15T18:41:25.000Z</Time>
            <Position>
              <LatitudeDegrees>43.42418619431555271148681640625</LatitudeDegrees>
              <LongitudeDegrees>-4.76657442748546600341796875</LongitudeDegrees>
            </Position>
            <AltitudeMeters>35.799999237060546875</AltitudeMeters>
            <DistanceMeters>NAN</DistanceMeters>
          </Trackpoint>
          <Trackpoint>
            <Time>2022-07-15T18:41:29.000Z</Time>
            <Position>
              <LatitudeDegrees>43.42420211993157863616943359375</LatitudeDegrees>
              <LongitudeDegrees>-4.76664626039564609527587890625</LongitudeDegrees>
            </Position>
            <AltitudeMeters>35.799999237060546875</AltitudeMeters>
            <DistanceMeters>NAN</DistanceMeters>
          </Trackpoint>
          <Trackpoint>
            <Time>2022-07-15T18:41:31.000Z</Time>
            <Position>
              <LatitudeDegrees>43.4242288582026958465576171875</LatitudeDegrees>
              <LongitudeDegrees>-4.76667542941868305206298828125</LongitudeDegrees>
            </Position>
            <AltitudeMeters>36</AltitudeMeters>
            <DistanceMeters>NAN</DistanceMeters>
          </Trackpoint>
          <Trackpoint>
            <Time>2022-07-15T18:41:35.000Z</Time>
            <Position>
              <LatitudeDegrees>43.42427956871688365936279296875</LatitudeDegrees>
              <LongitudeDegrees>-4.76669722236692905426025390625</LongitudeDegrees>
            </Position>
            <AltitudeMeters>36.200000762939453125</AltitudeMeters>
            <DistanceMeters>NAN</DistanceMeters>
          </Trackpoint>
          <Trackpoint>
            <Time>2022-07-15T18:41:39.000Z</Time>
            <Position>
              <LatitudeDegrees>43.42432416044175624847412109375</LatitudeDegrees>
              <LongitudeDegrees>-4.76670912466943264007568359375</LongitudeDegrees>
            </Position>
            <AltitudeMeters>36.200000762939453125</AltitudeMeters>
            <DistanceMeters>NAN</DistanceMeters>
          </Trackpoint>
          <Trackpoint>
            <Time>2022-07-15T18:41:41.000Z</Time>
            <Position>
              <LatitudeDegrees>43.42433832585811614990234375</LatitudeDegrees>
              <LongitudeDegrees>-4.76672622375190258026123046875</LongitudeDegrees>
            </Position>
            <AltitudeMeters>36</AltitudeMeters>
            <DistanceMeters>NAN</DistanceMeters>
          </Trackpoint>
          <Trackpoint>
            <Time>2022-07-15T18:41:44.000Z</Time>
            <Position>
              <LatitudeDegrees>43.42435098253190517425537109375</LatitudeDegrees>
              <LongitudeDegrees>-4.7667802870273590087890625</LongitudeDegrees>
            </Position>
            <AltitudeMeters>36.200000762939453125</AltitudeMeters>
            <DistanceMeters>NAN</DistanceMeters>
          </Trackpoint>
          <Trackpoint>
            <Time>2022-07-15T18:41:45.000Z</Time>
            <Position>
              <LatitudeDegrees>43.42435265891253948211669921875</LatitudeDegrees>
              <LongitudeDegrees>-4.7668032534420490264892578125</LongitudeDegrees>
            </Position>
            <AltitudeMeters>36.200000762939453125</AltitudeMeters>
            <DistanceMeters>NAN</DistanceMeters>
          </Trackpoint>
          <Trackpoint>
            <Time>2022-07-15T18:41:50.000Z</Time>
            <Position>
              <LatitudeDegrees>43.42439808882772922515869140625</LatitudeDegrees>
              <LongitudeDegrees>-4.76693241856992244720458984375</LongitudeDegrees>
            </Position>
            <AltitudeMeters>36.200000762939453125</AltitudeMeters>
            <DistanceMeters>NAN</DistanceMeters>
          </Trackpoint>
          <Trackpoint>
            <Time>2022-07-15T18:41:52.000Z</Time>
            <Position>
              <LatitudeDegrees>43.42443362809717655181884765625</LatitudeDegrees>
              <LongitudeDegrees>-4.76694448851048946380615234375</LongitudeDegrees>
            </Position>
            <AltitudeMeters>36.200000762939453125</AltitudeMeters>
            <DistanceMeters>NAN</DistanceMeters>
          </Trackpoint>
          <Trackpoint>
            <Time>2022-07-15T18:41:54.000Z</Time>
            <Position>
              <LatitudeDegrees>43.4244669042527675628662109375</LatitudeDegrees>
              <LongitudeDegrees>-4.76691582240164279937744140625</LongitudeDegrees>
            </Position>
            <AltitudeMeters>36.200000762939453125</AltitudeMeters>
            <DistanceMeters>NAN</DistanceMeters>
          </Trackpoint>
          <Trackpoint>
            <Time>2022-07-15T18:41:57.000Z</Time>
            <Position>
              <LatitudeDegrees>43.42451409436762332916259765625</LatitudeDegrees>
              <LongitudeDegrees>-4.76689159870147705078125</LongitudeDegrees>
            </Position>
            <AltitudeMeters>36.200000762939453125</AltitudeMeters>
            <DistanceMeters>NAN</DistanceMeters>
          </Trackpoint>
          <Trackpoint>
            <Time>2022-07-15T18:41:59.000Z</Time>
            <Position>
              <LatitudeDegrees>43.42453488148748874664306640625</LatitudeDegrees>
              <LongitudeDegrees>-4.76690911687910556793212890625</LongitudeDegrees>
            </Position>
            <AltitudeMeters>36.200000762939453125</AltitudeMeters>
            <DistanceMeters>NAN</DistanceMeters>
          </Trackpoint>
          <Trackpoint>
            <Time>2022-07-15T18:42:05.000Z</Time>
            <Position>
              <LatitudeDegrees>43.4245597757399082183837890625</LatitudeDegrees>
              <LongitudeDegrees>-4.767039455473423004150390625</LongitudeDegrees>
            </Position>
            <AltitudeMeters>36</AltitudeMeters>
            <DistanceMeters>NAN</DistanceMeters>
          </Trackpoint>
          <Trackpoint>
            <Time>2022-07-15T18:42:11.000Z</Time>
            <Position>
              <LatitudeDegrees>43.4245886094868183135986328125</LatitudeDegrees>
              <LongitudeDegrees>-4.76710760034620761871337890625</LongitudeDegrees>
            </Position>
            <AltitudeMeters>36.200000762939453125</AltitudeMeters>
            <DistanceMeters>NAN</DistanceMeters>
          </Trackpoint>
          <Trackpoint>
            <Time>2022-07-15T18:42:12.000Z</Time>
            <Position>
              <LatitudeDegrees>43.42458969913423061370849609375</LatitudeDegrees>
              <LongitudeDegrees>-4.76710676215589046478271484375</LongitudeDegrees>
            </Position>
            <AltitudeMeters>36.200000762939453125</AltitudeMeters>
            <DistanceMeters>NAN</DistanceMeters>
          </Trackpoint>
          <Trackpoint>
            <Time>2022-07-15T18:45:17.000Z</Time>
            <Position>
              <LatitudeDegrees>43.4244578517973423004150390625</LatitudeDegrees>
              <LongitudeDegrees>-4.76724942214787006378173828125</LongitudeDegrees>
            </Position>
            <AltitudeMeters>37.59999847412109375</AltitudeMeters>
            <DistanceMeters>NAN</DistanceMeters>
          </Trackpoint>
          <Trackpoint>
            <Time>2022-07-15T18:45:20.000Z</Time>
            <Position>
              <LatitudeDegrees>43.4244206361472606658935546875</LatitudeDegrees>
              <LongitudeDegrees>-4.7672592289745807647705078125</LongitudeDegrees>
            </Position>
            <AltitudeMeters>37.40000152587890625</AltitudeMeters>
            <DistanceMeters>NAN</DistanceMeters>
          </Trackpoint>
          <Trackpoint>
            <Time>2022-07-15T18:45:24.000Z</Time>
            <Position>
              <LatitudeDegrees>43.4243780560791492462158203125</LatitudeDegrees>
              <LongitudeDegrees>-4.767277501523494720458984375</LongitudeDegrees>
            </Position>
            <AltitudeMeters>37.200000762939453125</AltitudeMeters>
            <DistanceMeters>NAN</DistanceMeters>
          </Trackpoint>
          <Trackpoint>
            <Time>2022-07-15T18:45:28.000Z</Time>
            <Position>
              <LatitudeDegrees>43.4243401698768138885498046875</LatitudeDegrees>
              <LongitudeDegrees>-4.76728529669344425201416015625</LongitudeDegrees>
            </Position>
            <AltitudeMeters>37.200000762939453125</AltitudeMeters>
            <DistanceMeters>NAN</DistanceMeters>
          </Trackpoint>
          <Trackpoint>
            <Time>2022-07-15T18:45:30.000Z</Time>
            <Position>
              <LatitudeDegrees>43.424338661134243011474609375</LatitudeDegrees>
              <LongitudeDegrees>-4.76728965528309345245361328125</LongitudeDegrees>
            </Position>
            <AltitudeMeters>37.200000762939453125</AltitudeMeters>
            <DistanceMeters>NAN</DistanceMeters>
          </Trackpoint>
          <Trackpoint>
            <Time>2022-07-15T18:48:16.000Z</Time>
            <Position>
              <LatitudeDegrees>43.4242818318307399749755859375</LatitudeDegrees>
              <LongitudeDegrees>-4.7672759927809238433837890625</LongitudeDegrees>
            </Position>
            <AltitudeMeters>36.59999847412109375</AltitudeMeters>
            <DistanceMeters>NAN</DistanceMeters>
          </Trackpoint>
          <Trackpoint>
            <Time>2022-07-15T18:48:19.000Z</Time>
            <Position>
              <LatitudeDegrees>43.42422969639301300048828125</LatitudeDegrees>
              <LongitudeDegrees>-4.76719292812049388885498046875</LongitudeDegrees>
            </Position>
            <AltitudeMeters>37</AltitudeMeters>
            <DistanceMeters>NAN</DistanceMeters>
          </Trackpoint>
          <Trackpoint>
            <Time>2022-07-15T18:48:21.000Z</Time>
            <Position>
              <LatitudeDegrees>43.42421284876763820648193359375</LatitudeDegrees>
              <LongitudeDegrees>-4.767134003341197967529296875</LongitudeDegrees>
            </Position>
            <AltitudeMeters>37.200000762939453125</AltitudeMeters>
            <DistanceMeters>NAN</DistanceMeters>
          </Trackpoint>
          <Trackpoint>
            <Time>2022-07-15T18:48:25.000Z</Time>
            <Position>
              <LatitudeDegrees>43.42419792897999286651611328125</LatitudeDegrees>
              <LongitudeDegrees>-4.76700651459395885467529296875</LongitudeDegrees>
            </Position>
            <AltitudeMeters>37</AltitudeMeters>
            <DistanceMeters>NAN</DistanceMeters>
          </Trackpoint>
          <Trackpoint>
            <Time>2022-07-15T18:48:29.000Z</Time>
            <Position>
              <LatitudeDegrees>43.424171693623065948486328125</LatitudeDegrees>
              <LongitudeDegrees>-4.76689092814922332763671875</LongitudeDegrees>
            </Position>
            <AltitudeMeters>36.59999847412109375</AltitudeMeters>
            <DistanceMeters>NAN</DistanceMeters>
          </Trackpoint>
          <Trackpoint>
            <Time>2022-07-15T18:48:32.000Z</Time>
            <Position>
              <LatitudeDegrees>43.424147553741931915283203125</LatitudeDegrees>
              <LongitudeDegrees>-4.766794703900814056396484375</LongitudeDegrees>
            </Position>
            <AltitudeMeters>36.799999237060546875</AltitudeMeters>
            <DistanceMeters>NAN</DistanceMeters>
          </Trackpoint>
          <Trackpoint>
            <Time>2022-07-15T18:48:36.000Z</Time>
            <Position>
              <LatitudeDegrees>43.42412165366113185882568359375</LatitudeDegrees>
              <LongitudeDegrees>-4.76667073555290699005126953125</LongitudeDegrees>
            </Position>
            <AltitudeMeters>36.799999237060546875</AltitudeMeters>
            <DistanceMeters>NAN</DistanceMeters>
          </Trackpoint>
          <Trackpoint>
            <Time>2022-07-15T18:48:38.000Z</Time>
            <Position>
              <LatitudeDegrees>43.42409432865679264068603515625</LatitudeDegrees>
              <LongitudeDegrees>-4.76665983907878398895263671875</LongitudeDegrees>
            </Position>
            <AltitudeMeters>36.799999237060546875</AltitudeMeters>
            <DistanceMeters>NAN</DistanceMeters>
          </Trackpoint>
          <Trackpoint>
            <Time>2022-07-15T18:48:40.000Z</Time>
            <Position>
              <LatitudeDegrees>43.42408083379268646240234375</LatitudeDegrees>
              <LongitudeDegrees>-4.76667023263871669769287109375</LongitudeDegrees>
            </Position>
            <AltitudeMeters>36.40000152587890625</AltitudeMeters>
            <DistanceMeters>NAN</DistanceMeters>
          </Trackpoint>
          <Trackpoint>
            <Time>2022-07-15T18:48:42.000Z</Time>
            <Position>
              <LatitudeDegrees>43.4240602143108844757080078125</LatitudeDegrees>
              <LongitudeDegrees>-4.7666902653872966766357421875</LongitudeDegrees>
            </Position>
            <AltitudeMeters>36.40000152587890625</AltitudeMeters>
            <DistanceMeters>NAN</DistanceMeters>
          </Trackpoint>
          <Trackpoint>
            <Time>2022-07-15T18:48:43.000Z</Time>
            <Position>
              <LatitudeDegrees>43.42405107803642749786376953125</LatitudeDegrees>
              <LongitudeDegrees>-4.76670811884105205535888671875</LongitudeDegrees>
            </Position>
            <AltitudeMeters>36.40000152587890625</AltitudeMeters>
            <DistanceMeters>NAN</DistanceMeters>
          </Trackpoint>
          <Trackpoint>
            <Time>2022-07-15T18:48:50.000Z</Time>
            <Position>
              <LatitudeDegrees>43.42397748492658138275146484375</LatitudeDegrees>
              <LongitudeDegrees>-4.76684306748211383819580078125</LongitudeDegrees>
            </Position>
            <AltitudeMeters>36.59999847412109375</AltitudeMeters>
            <DistanceMeters>NAN</DistanceMeters>
          </Trackpoint>
          <Trackpoint>
            <Time>2022-07-15T18:48:52.000Z</Time>
            <Position>
              <LatitudeDegrees>43.423954434692859649658203125</LatitudeDegrees>
              <LongitudeDegrees>-4.76688816212117671966552734375</LongitudeDegrees>
            </Position>
            <AltitudeMeters>36.799999237060546875</AltitudeMeters>
            <DistanceMeters>NAN</DistanceMeters>
          </Trackpoint>
          <Trackpoint>
            <Time>2022-07-15T18:48:59.000Z</Time>
            <Position>
              <LatitudeDegrees>43.423931300640106201171875</LatitudeDegrees>
              <LongitudeDegrees>-4.76709687151014804840087890625</LongitudeDegrees>
            </Position>
            <AltitudeMeters>37</AltitudeMeters>
            <DistanceMeters>NAN</DistanceMeters>
          </Trackpoint>
          <Trackpoint>
            <Time>2022-07-15T18:49:08.000Z</Time>
            <Position>
              <LatitudeDegrees>43.4239569492638111114501953125</LatitudeDegrees>
              <LongitudeDegrees>-4.76737431250512599945068359375</LongitudeDegrees>
            </Position>
            <AltitudeMeters>36.799999237060546875</AltitudeMeters>
            <DistanceMeters>NAN</DistanceMeters>
          </Trackpoint>
          <Trackpoint>
            <Time>2022-07-15T18:49:16.000Z</Time>
            <Position>
              <LatitudeDegrees>43.42396541498601436614990234375</LatitudeDegrees>
              <LongitudeDegrees>-4.767586626112461090087890625</LongitudeDegrees>
            </Position>
            <AltitudeMeters>36.799999237060546875</AltitudeMeters>
            <DistanceMeters>NAN</DistanceMeters>
          </Trackpoint>
          <Trackpoint>
            <Time>2022-07-15T18:49:21.000Z</Time>
            <Position>
              <LatitudeDegrees>43.42397362925112247467041015625</LatitudeDegrees>
              <LongitudeDegrees>-4.76764856837689876556396484375</LongitudeDegrees>
            </Position>
            <AltitudeMeters>36.799999237060546875</AltitudeMeters>
            <DistanceMeters>NAN</DistanceMeters>
          </Trackpoint>
          <Trackpoint>
            <Time>2022-07-15T18:49:25.000Z</Time>
            <Position>
              <LatitudeDegrees>43.42398234643042087554931640625</LatitudeDegrees>
              <LongitudeDegrees>-4.767662398517131805419921875</LongitudeDegrees>
            </Position>
            <AltitudeMeters>36.799999237060546875</AltitudeMeters>
            <DistanceMeters>NAN</DistanceMeters>
          </Trackpoint>
          <Trackpoint>
            <Time>2022-07-15T18:49:38.000Z</Time>
            <Position>
              <LatitudeDegrees>43.42390489764511585235595703125</LatitudeDegrees>
              <LongitudeDegrees>-4.76767589338123798370361328125</LongitudeDegrees>
            </Position>
            <AltitudeMeters>36.40000152587890625</AltitudeMeters>
            <DistanceMeters>NAN</DistanceMeters>
          </Trackpoint>
          <Trackpoint>
            <Time>2022-07-15T18:49:44.000Z</Time>
            <Position>
              <LatitudeDegrees>43.423804901540279388427734375</LatitudeDegrees>
              <LongitudeDegrees>-4.767626188695430755615234375</LongitudeDegrees>
            </Position>
            <AltitudeMeters>36.59999847412109375</AltitudeMeters>
            <DistanceMeters>NAN</DistanceMeters>
          </Trackpoint>
          <Trackpoint>
            <Time>2022-07-15T18:49:51.000Z</Time>
            <Position>
              <LatitudeDegrees>43.42370666563510894775390625</LatitudeDegrees>
              <LongitudeDegrees>-4.76747154258191585540771484375</LongitudeDegrees>
            </Position>
            <AltitudeMeters>37</AltitudeMeters>
            <DistanceMeters>NAN</DistanceMeters>
          </Trackpoint>
          <Trackpoint>
            <Time>2022-07-15T18:49:54.000Z</Time>
            <Position>
              <LatitudeDegrees>43.42366651631891727447509765625</LatitudeDegrees>
              <LongitudeDegrees>-4.76741085760295391082763671875</LongitudeDegrees>
            </Position>
            <AltitudeMeters>36.799999237060546875</AltitudeMeters>
            <DistanceMeters>NAN</DistanceMeters>
          </Trackpoint>
          <Trackpoint>
            <Time>2022-07-15T18:49:56.000Z</Time>
            <Position>
              <LatitudeDegrees>43.423637934029102325439453125</LatitudeDegrees>
              <LongitudeDegrees>-4.7673839516937732696533203125</LongitudeDegrees>
            </Position>
            <AltitudeMeters>36.799999237060546875</AltitudeMeters>
            <DistanceMeters>NAN</DistanceMeters>
          </Trackpoint>
          <Trackpoint>
            <Time>2022-07-15T18:49:59.000Z</Time>
            <Position>
              <LatitudeDegrees>43.423598371446132659912109375</LatitudeDegrees>
              <LongitudeDegrees>-4.76733424700796604156494140625</LongitudeDegrees>
            </Position>
            <AltitudeMeters>36.799999237060546875</AltitudeMeters>
            <DistanceMeters>NAN</DistanceMeters>
          </Trackpoint>
          <Trackpoint>
            <Time>2022-07-15T18:50:01.000Z</Time>
            <Position>
              <LatitudeDegrees>43.42356392182409763336181640625</LatitudeDegrees>
              <LongitudeDegrees>-4.7673343308269977569580078125</LongitudeDegrees>
            </Position>
            <AltitudeMeters>36.799999237060546875</AltitudeMeters>
            <DistanceMeters>NAN</DistanceMeters>
          </Trackpoint>
          <Trackpoint>
            <Time>2022-07-15T18:50:06.000Z</Time>
            <Position>
              <LatitudeDegrees>43.42349049635231494903564453125</LatitudeDegrees>
              <LongitudeDegrees>-4.7674261964857578277587890625</LongitudeDegrees>
            </Position>
            <AltitudeMeters>36.40000152587890625</AltitudeMeters>
            <DistanceMeters>NAN</DistanceMeters>
          </Trackpoint>
          <Trackpoint>
            <Time>2022-07-15T18:50:10.000Z</Time>
            <Position>
              <LatitudeDegrees>43.4234176576137542724609375</LatitudeDegrees>
              <LongitudeDegrees>-4.767343215644359588623046875</LongitudeDegrees>
            </Position>
            <AltitudeMeters>36.59999847412109375</AltitudeMeters>
            <DistanceMeters>NAN</DistanceMeters>
          </Trackpoint>
          <Trackpoint>
            <Time>2022-07-15T18:50:14.000Z</Time>
            <Position>
              <LatitudeDegrees>43.423375077545642852783203125</LatitudeDegrees>
              <LongitudeDegrees>-4.76716853678226470947265625</LongitudeDegrees>
            </Position>
            <AltitudeMeters>37.59999847412109375</AltitudeMeters>
            <DistanceMeters>NAN</DistanceMeters>
          </Trackpoint>
          <Trackpoint>
            <Time>2022-07-15T18:50:15.000Z</Time>
            <Position>
              <LatitudeDegrees>43.42336468398571014404296875</LatitudeDegrees>
              <LongitudeDegrees>-4.76712872274219989776611328125</LongitudeDegrees>
            </Position>
            <AltitudeMeters>37.799999237060546875</AltitudeMeters>
            <DistanceMeters>NAN</DistanceMeters>
          </Trackpoint>
          <Trackpoint>
            <Time>2022-07-15T18:50:24.000Z</Time>
            <Position>
              <LatitudeDegrees>43.4232847206294536590576171875</LatitudeDegrees>
              <LongitudeDegrees>-4.7668017446994781494140625</LongitudeDegrees>
            </Position>
            <AltitudeMeters>37.59999847412109375</AltitudeMeters>
            <DistanceMeters>NAN</DistanceMeters>
          </Trackpoint>
          <Trackpoint>
            <Time>2022-07-15T18:50:28.000Z</Time>
            <Position>
              <LatitudeDegrees>43.42323350720107555389404296875</LatitudeDegrees>
              <LongitudeDegrees>-4.766584150493144989013671875</LongitudeDegrees>
            </Position>
            <AltitudeMeters>37</AltitudeMeters>
            <DistanceMeters>NAN</DistanceMeters>
          </Trackpoint>
          <Trackpoint>
            <Time>2022-07-15T18:50:31.000Z</Time>
            <Position>
              <LatitudeDegrees>43.42320836149156093597412109375</LatitudeDegrees>
              <LongitudeDegrees>-4.76651768200099468231201171875</LongitudeDegrees>
            </Position>
            <AltitudeMeters>37</AltitudeMeters>
            <DistanceMeters>NAN</DistanceMeters>
          </Trackpoint>
          <Trackpoint>
            <Time>2022-07-15T18:50:37.000Z</Time>
            <Position>
              <LatitudeDegrees>43.42315890826284885406494140625</LatitudeDegrees>
              <LongitudeDegrees>-4.7662926279008388519287109375</LongitudeDegrees>
            </Position>
            <AltitudeMeters>37</AltitudeMeters>
            <DistanceMeters>NAN</DistanceMeters>
          </Trackpoint>
          <Trackpoint>
            <Time>2022-07-15T18:50:44.000Z</Time>
            <Position>
              <LatitudeDegrees>43.4231019951403141021728515625</LatitudeDegrees>
              <LongitudeDegrees>-4.7659798152744770050048828125</LongitudeDegrees>
            </Position>
            <AltitudeMeters>37.200000762939453125</AltitudeMeters>
            <DistanceMeters>NAN</DistanceMeters>
          </Trackpoint>
          <Trackpoint>
            <Time>2022-07-15T18:50:45.000Z</Time>
            <Position>
              <LatitudeDegrees>43.42309436760842800140380859375</LatitudeDegrees>
              <LongitudeDegrees>-4.76594117470085620880126953125</LongitudeDegrees>
            </Position>
            <AltitudeMeters>37.200000762939453125</AltitudeMeters>
            <DistanceMeters>NAN</DistanceMeters>
          </Trackpoint>
          <Trackpoint>
            <Time>2022-07-15T18:50:51.000Z</Time>
            <Position>
              <LatitudeDegrees>43.4230731613934040069580078125</LatitudeDegrees>
              <LongitudeDegrees>-4.7657798230648040771484375</LongitudeDegrees>
            </Position>
            <AltitudeMeters>36.799999237060546875</AltitudeMeters>
            <DistanceMeters>NAN</DistanceMeters>
          </Trackpoint>
          <Trackpoint>
            <Time>2022-07-15T18:50:53.000Z</Time>
            <Position>
              <LatitudeDegrees>43.423067294061183929443359375</LatitudeDegrees>
              <LongitudeDegrees>-4.76577588357031345367431640625</LongitudeDegrees>
            </Position>
            <AltitudeMeters>36.799999237060546875</AltitudeMeters>
            <DistanceMeters>NAN</DistanceMeters>
          </Trackpoint>
          <Trackpoint>
            <Time>2022-07-15T18:51:09.000Z</Time>
            <Position>
              <LatitudeDegrees>43.42312990687787532806396484375</LatitudeDegrees>
              <LongitudeDegrees>-4.76580270566046237945556640625</LongitudeDegrees>
            </Position>
            <AltitudeMeters>36.799999237060546875</AltitudeMeters>
            <DistanceMeters>NAN</DistanceMeters>
          </Trackpoint>
          <Trackpoint>
            <Time>2022-07-15T18:51:10.000Z</Time>
            <Position>
              <LatitudeDegrees>43.423142395913600921630859375</LatitudeDegrees>
              <LongitudeDegrees>-4.76581628434360027313232421875</LongitudeDegrees>
            </Position>
            <AltitudeMeters>36.799999237060546875</AltitudeMeters>
            <DistanceMeters>NAN</DistanceMeters>
          </Trackpoint>
          <Trackpoint>
            <Time>2022-07-15T18:51:13.000Z</Time>
            <Position>
              <LatitudeDegrees>43.42317131347954273223876953125</LatitudeDegrees>
              <LongitudeDegrees>-4.7659675776958465576171875</LongitudeDegrees>
            </Position>
            <AltitudeMeters>36.59999847412109375</AltitudeMeters>
            <DistanceMeters>NAN</DistanceMeters>
          </Trackpoint>
          <Trackpoint>
            <Time>2022-07-15T18:51:16.000Z</Time>
            <Position>
              <LatitudeDegrees>43.42321070842444896697998046875</LatitudeDegrees>
              <LongitudeDegrees>-4.76618508808314800262451171875</LongitudeDegrees>
            </Position>
            <AltitudeMeters>36.200000762939453125</AltitudeMeters>
            <DistanceMeters>NAN</DistanceMeters>
          </Trackpoint>
          <Trackpoint>
            <Time>2022-07-15T18:51:18.000Z</Time>
            <Position>
              <LatitudeDegrees>43.423240296542644500732421875</LatitudeDegrees>
              <LongitudeDegrees>-4.7663241438567638397216796875</LongitudeDegrees>
            </Position>
            <AltitudeMeters>36</AltitudeMeters>
            <DistanceMeters>NAN</DistanceMeters>
          </Trackpoint>
          <Trackpoint>
            <Time>2022-07-15T18:51:25.000Z</Time>
            <Position>
              <LatitudeDegrees>43.42333517968654632568359375</LatitudeDegrees>
              <LongitudeDegrees>-4.7667361982166767120361328125</LongitudeDegrees>
            </Position>
            <AltitudeMeters>36.200000762939453125</AltitudeMeters>
            <DistanceMeters>NAN</DistanceMeters>
          </Trackpoint>
          <Trackpoint>
            <Time>2022-07-15T18:51:26.000Z</Time>
            <Position>
              <LatitudeDegrees>43.423362337052822113037109375</LatitudeDegrees>
              <LongitudeDegrees>-4.766779281198978424072265625</LongitudeDegrees>
            </Position>
            <AltitudeMeters>36.200000762939453125</AltitudeMeters>
            <DistanceMeters>NAN</DistanceMeters>
          </Trackpoint>
          <Trackpoint>
            <Time>2022-07-15T18:51:27.000Z</Time>
            <Position>
              <LatitudeDegrees>43.42340349219739437103271484375</LatitudeDegrees>
              <LongitudeDegrees>-4.76680509746074676513671875</LongitudeDegrees>
            </Position>
            <AltitudeMeters>36.200000762939453125</AltitudeMeters>
            <DistanceMeters>NAN</DistanceMeters>
          </Trackpoint>
          <Trackpoint>
            <Time>2022-07-15T18:51:29.000Z</Time>
            <Position>
              <LatitudeDegrees>43.4234764985740184783935546875</LatitudeDegrees>
              <LongitudeDegrees>-4.76679260842502117156982421875</LongitudeDegrees>
            </Position>
            <AltitudeMeters>36.40000152587890625</AltitudeMeters>
            <DistanceMeters>NAN</DistanceMeters>
          </Trackpoint>
          <Trackpoint>
            <Time>2022-07-15T18:51:36.000Z</Time>
            <Position>
              <LatitudeDegrees>43.4237333200871944427490234375</LatitudeDegrees>
              <LongitudeDegrees>-4.7666676342487335205078125</LongitudeDegrees>
            </Position>
            <AltitudeMeters>37</AltitudeMeters>
            <DistanceMeters>NAN</DistanceMeters>
          </Trackpoint>
          <Trackpoint>
            <Time>2022-07-15T18:51:40.000Z</Time>
            <Position>
              <LatitudeDegrees>43.4238647483289241790771484375</LatitudeDegrees>
              <LongitudeDegrees>-4.76661826483905315399169921875</LongitudeDegrees>
            </Position>
            <AltitudeMeters>37.59999847412109375</AltitudeMeters>
            <DistanceMeters>NAN</DistanceMeters>
          </Trackpoint>
          <Trackpoint>
            <Time>2022-07-15T18:51:41.000Z</Time>
            <Position>
              <LatitudeDegrees>43.42390003614127635955810546875</LatitudeDegrees>
              <LongitudeDegrees>-4.76660552434623241424560546875</LongitudeDegrees>
            </Position>
            <AltitudeMeters>37.59999847412109375</AltitudeMeters>
            <DistanceMeters>NAN</DistanceMeters>
          </Trackpoint>
          <Trackpoint>
            <Time>2022-07-15T18:51:44.000Z</Time>
            <Position>
              <LatitudeDegrees>43.4240058995783329010009765625</LatitudeDegrees>
              <LongitudeDegrees>-4.7665621899068355560302734375</LongitudeDegrees>
            </Position>
            <AltitudeMeters>37.59999847412109375</AltitudeMeters>
            <DistanceMeters>NAN</DistanceMeters>
          </Trackpoint>
          <Trackpoint>
            <Time>2022-07-15T18:51:50.000Z</Time>
            <Position>
              <LatitudeDegrees>43.42417697422206401824951171875</LatitudeDegrees>
              <LongitudeDegrees>-4.766557328402996063232421875</LongitudeDegrees>
            </Position>
            <AltitudeMeters>37.40000152587890625</AltitudeMeters>
            <DistanceMeters>NAN</DistanceMeters>
          </Trackpoint>
          <Trackpoint>
            <Time>2022-07-15T18:51:57.000Z</Time>
            <Position>
              <LatitudeDegrees>43.42431544326245784759521484375</LatitudeDegrees>
              <LongitudeDegrees>-4.76672555319964885711669921875</LongitudeDegrees>
            </Position>
            <AltitudeMeters>37.40000152587890625</AltitudeMeters>
            <DistanceMeters>NAN</DistanceMeters>
          </Trackpoint>
          <Trackpoint>
            <Time>2022-07-15T18:52:04.000Z</Time>
            <Position>
              <LatitudeDegrees>43.42441569082438945770263671875</LatitudeDegrees>
              <LongitudeDegrees>-4.76692370139062404632568359375</LongitudeDegrees>
            </Position>
            <AltitudeMeters>37.200000762939453125</AltitudeMeters>
            <DistanceMeters>NAN</DistanceMeters>
          </Trackpoint>
          <Trackpoint>
            <Time>2022-07-15T18:52:05.000Z</Time>
            <Position>
              <LatitudeDegrees>43.42442675493657588958740234375</LatitudeDegrees>
              <LongitudeDegrees>-4.766955636441707611083984375</LongitudeDegrees>
            </Position>
            <AltitudeMeters>37.200000762939453125</AltitudeMeters>
            <DistanceMeters>NAN</DistanceMeters>
          </Trackpoint>
          <Trackpoint>
            <Time>2022-07-15T18:52:12.000Z</Time>
            <Position>
              <LatitudeDegrees>43.4244618751108646392822265625</LatitudeDegrees>
              <LongitudeDegrees>-4.76721019484102725982666015625</LongitudeDegrees>
            </Position>
            <AltitudeMeters>37.200000762939453125</AltitudeMeters>
            <DistanceMeters>NAN</DistanceMeters>
          </Trackpoint>
          <Trackpoint>
            <Time>2022-07-15T18:52:16.000Z</Time>
            <Position>
              <LatitudeDegrees>43.42451761476695537567138671875</LatitudeDegrees>
              <LongitudeDegrees>-4.76727582514286041259765625</LongitudeDegrees>
            </Position>
            <AltitudeMeters>37.40000152587890625</AltitudeMeters>
            <DistanceMeters>NAN</DistanceMeters>
          </Trackpoint>
          <Trackpoint>
            <Time>2022-07-15T18:52:22.000Z</Time>
            <Position>
              <LatitudeDegrees>43.424586094915866851806640625</LatitudeDegrees>
              <LongitudeDegrees>-4.76724070496857166290283203125</LongitudeDegrees>
            </Position>
            <AltitudeMeters>37.59999847412109375</AltitudeMeters>
            <DistanceMeters>NAN</DistanceMeters>
          </Trackpoint>
          <Trackpoint>
            <Time>2022-07-15T18:52:26.000Z</Time>
            <Position>
              <LatitudeDegrees>43.42459179461002349853515625</LatitudeDegrees>
              <LongitudeDegrees>-4.76723802275955677032470703125</LongitudeDegrees>
            </Position>
            <AltitudeMeters>37.40000152587890625</AltitudeMeters>
            <DistanceMeters>NAN</DistanceMeters>
          </Trackpoint>
          <Trackpoint>
            <Time>2022-07-16T08:38:52.000Z</Time>
            <Position>
              <LatitudeDegrees>43.42427655123174190521240234375</LatitudeDegrees>
              <LongitudeDegrees>-4.768103621900081634521484375</LongitudeDegrees>
            </Position>
            <AltitudeMeters>36.40000152587890625</AltitudeMeters>
            <DistanceMeters>NAN</DistanceMeters>
          </Trackpoint>
          <Trackpoint>
            <Time>2022-07-16T08:38:53.000Z</Time>
            <Position>
              <LatitudeDegrees>43.42425023205578327178955078125</LatitudeDegrees>
              <LongitudeDegrees>-4.76812147535383701324462890625</LongitudeDegrees>
            </Position>
            <AltitudeMeters>36.40000152587890625</AltitudeMeters>
            <DistanceMeters>NAN</DistanceMeters>
          </Trackpoint>
          <Trackpoint>
            <Time>2022-07-16T08:38:56.000Z</Time>
            <Position>
              <LatitudeDegrees>43.42417948879301548004150390625</LatitudeDegrees>
              <LongitudeDegrees>-4.768165647983551025390625</LongitudeDegrees>
            </Position>
            <AltitudeMeters>36.40000152587890625</AltitudeMeters>
            <DistanceMeters>NAN</DistanceMeters>
          </Trackpoint>
          <Trackpoint>
            <Time>2022-07-16T08:38:59.000Z</Time>
            <Position>
              <LatitudeDegrees>43.4240826778113842010498046875</LatitudeDegrees>
              <LongitudeDegrees>-4.76821183227002620697021484375</LongitudeDegrees>
            </Position>
            <AltitudeMeters>37.200000762939453125</AltitudeMeters>
            <DistanceMeters>NAN</DistanceMeters>
          </Trackpoint>
          <Trackpoint>
            <Time>2022-07-16T08:39:03.000Z</Time>
            <Position>
              <LatitudeDegrees>43.42396507970988750457763671875</LatitudeDegrees>
              <LongitudeDegrees>-4.7682627104222774505615234375</LongitudeDegrees>
            </Position>
            <AltitudeMeters>37.200000762939453125</AltitudeMeters>
            <DistanceMeters>NAN</DistanceMeters>
          </Trackpoint>
          <Trackpoint>
            <Time>2022-07-16T08:39:07.000Z</Time>
            <Position>
              <LatitudeDegrees>43.42383616603910923004150390625</LatitudeDegrees>
              <LongitudeDegrees>-4.7683227248489856719970703125</LongitudeDegrees>
            </Position>
            <AltitudeMeters>36.799999237060546875</AltitudeMeters>
            <DistanceMeters>NAN</DistanceMeters>
          </Trackpoint>
          <Trackpoint>
            <Time>2022-07-16T08:39:11.000Z</Time>
            <Position>
              <LatitudeDegrees>43.423757292330265045166015625</LatitudeDegrees>
              <LongitudeDegrees>-4.76840369403362274169921875</LongitudeDegrees>
            </Position>
            <AltitudeMeters>36.59999847412109375</AltitudeMeters>
            <DistanceMeters>NAN</DistanceMeters>
          </Trackpoint>
          <Trackpoint>
            <Time>2022-07-16T08:39:12.000Z</Time>
            <Position>
              <LatitudeDegrees>43.42375536449253559112548828125</LatitudeDegrees>
              <LongitudeDegrees>-4.7684253193438053131103515625</LongitudeDegrees>
            </Position>
            <AltitudeMeters>36.40000152587890625</AltitudeMeters>
            <DistanceMeters>NAN</DistanceMeters>
          </Trackpoint>
          <Trackpoint>
            <Time>2022-07-16T08:39:13.000Z</Time>
            <Position>
              <LatitudeDegrees>43.4237594716250896453857421875</LatitudeDegrees>
              <LongitudeDegrees>-4.76844786666333675384521484375</LongitudeDegrees>
            </Position>
            <AltitudeMeters>36.200000762939453125</AltitudeMeters>
            <DistanceMeters>NAN</DistanceMeters>
          </Trackpoint>
          <Trackpoint>
            <Time>2022-07-16T08:39:17.000Z</Time>
            <Position>
              <LatitudeDegrees>43.4237715415656566619873046875</LatitudeDegrees>
              <LongitudeDegrees>-4.76851307787001132965087890625</LongitudeDegrees>
            </Position>
            <AltitudeMeters>35.799999237060546875</AltitudeMeters>
            <DistanceMeters>NAN</DistanceMeters>
          </Trackpoint>
          <Trackpoint>
            <Time>2022-07-16T08:39:19.000Z</Time>
            <Position>
              <LatitudeDegrees>43.42377330176532268524169921875</LatitudeDegrees>
              <LongitudeDegrees>-4.76851559244096279144287109375</LongitudeDegrees>
            </Position>
            <AltitudeMeters>35.799999237060546875</AltitudeMeters>
            <DistanceMeters>NAN</DistanceMeters>
          </Trackpoint>
          <Trackpoint>
            <Time>2022-07-16T08:39:27.000Z</Time>
            <Position>
              <LatitudeDegrees>43.423792831599712371826171875</LatitudeDegrees>
              <LongitudeDegrees>-4.76856135763227939605712890625</LongitudeDegrees>
            </Position>
            <AltitudeMeters>36</AltitudeMeters>
            <DistanceMeters>NAN</DistanceMeters>
          </Trackpoint>
          <Trackpoint>
            <Time>2022-07-16T08:39:28.000Z</Time>
            <Position>
              <LatitudeDegrees>43.42380314134061336517333984375</LatitudeDegrees>
              <LongitudeDegrees>-4.7685946337878704071044921875</LongitudeDegrees>
            </Position>
            <AltitudeMeters>36</AltitudeMeters>
            <DistanceMeters>NAN</DistanceMeters>
          </Trackpoint>
          <Trackpoint>
            <Time>2022-07-16T08:39:32.000Z</Time>
            <Position>
              <LatitudeDegrees>43.42384404502809047698974609375</LatitudeDegrees>
              <LongitudeDegrees>-4.76874961517751216888427734375</LongitudeDegrees>
            </Position>
            <AltitudeMeters>36</AltitudeMeters>
            <DistanceMeters>NAN</DistanceMeters>
          </Trackpoint>
          <Trackpoint>
            <Time>2022-07-16T08:39:34.000Z</Time>
            <Position>
              <LatitudeDegrees>43.42385913245379924774169921875</LatitudeDegrees>
              <LongitudeDegrees>-4.76883142255246639251708984375</LongitudeDegrees>
            </Position>
            <AltitudeMeters>36.40000152587890625</AltitudeMeters>
            <DistanceMeters>NAN</DistanceMeters>
          </Trackpoint>
          <Trackpoint>
            <Time>2022-07-16T08:39:42.000Z</Time>
            <Position>
              <LatitudeDegrees>43.42392786405980587005615234375</LatitudeDegrees>
              <LongitudeDegrees>-4.76914389990270137786865234375</LongitudeDegrees>
            </Position>
            <AltitudeMeters>36.799999237060546875</AltitudeMeters>
            <DistanceMeters>NAN</DistanceMeters>
          </Trackpoint>
          <Trackpoint>
            <Time>2022-07-16T08:39:51.000Z</Time>
            <Position>
              <LatitudeDegrees>43.4240199811756610870361328125</LatitudeDegrees>
              <LongitudeDegrees>-4.7695206664502620697021484375</LongitudeDegrees>
            </Position>
            <AltitudeMeters>36.40000152587890625</AltitudeMeters>
            <DistanceMeters>NAN</DistanceMeters>
          </Trackpoint>
          <Trackpoint>
            <Time>2022-07-16T08:39:54.000Z</Time>
            <Position>
              <LatitudeDegrees>43.4240434505045413970947265625</LatitudeDegrees>
              <LongitudeDegrees>-4.76965586654841899871826171875</LongitudeDegrees>
            </Position>
            <AltitudeMeters>36.200000762939453125</AltitudeMeters>
            <DistanceMeters>NAN</DistanceMeters>
          </Trackpoint>
          <Trackpoint>
            <Time>2022-07-16T08:39:59.000Z</Time>
            <Position>
              <LatitudeDegrees>43.42408217489719390869140625</LatitudeDegrees>
              <LongitudeDegrees>-4.76986859925091266632080078125</LongitudeDegrees>
            </Position>
            <AltitudeMeters>36</AltitudeMeters>
            <DistanceMeters>NAN</DistanceMeters>
          </Trackpoint>
          <Trackpoint>
            <Time>2022-07-16T08:40:05.000Z</Time>
            <Position>
              <LatitudeDegrees>43.4241443686187267303466796875</LatitudeDegrees>
              <LongitudeDegrees>-4.7701325453817844390869140625</LongitudeDegrees>
            </Position>
            <AltitudeMeters>36.40000152587890625</AltitudeMeters>
            <DistanceMeters>NAN</DistanceMeters>
          </Trackpoint>
          <Trackpoint>
            <Time>2022-07-16T08:40:13.000Z</Time>
            <Position>
              <LatitudeDegrees>43.4242258407175540924072265625</LatitudeDegrees>
              <LongitudeDegrees>-4.77048584260046482086181640625</LongitudeDegrees>
            </Position>
            <AltitudeMeters>36.200000762939453125</AltitudeMeters>
            <DistanceMeters>NAN</DistanceMeters>
          </Trackpoint>
          <Trackpoint>
            <Time>2022-07-16T08:40:22.000Z</Time>
            <Position>
              <LatitudeDegrees>43.42432449571788311004638671875</LatitudeDegrees>
              <LongitudeDegrees>-4.77087400853633880615234375</LongitudeDegrees>
            </Position>
            <AltitudeMeters>36.40000152587890625</AltitudeMeters>
            <DistanceMeters>NAN</DistanceMeters>
          </Trackpoint>
          <Trackpoint>
            <Time>2022-07-16T08:40:29.000Z</Time>
            <Position>
              <LatitudeDegrees>43.42438233084976673126220703125</LatitudeDegrees>
              <LongitudeDegrees>-4.77116905152797698974609375</LongitudeDegrees>
            </Position>
            <AltitudeMeters>36.40000152587890625</AltitudeMeters>
            <DistanceMeters>NAN</DistanceMeters>
          </Trackpoint>
          <Trackpoint>
            <Time>2022-07-16T08:40:34.000Z</Time>
            <Position>
              <LatitudeDegrees>43.42441284097731113433837890625</LatitudeDegrees>
              <LongitudeDegrees>-4.7713888250291347503662109375</LongitudeDegrees>
            </Position>
            <AltitudeMeters>36</AltitudeMeters>
            <DistanceMeters>NAN</DistanceMeters>
          </Trackpoint>
          <Trackpoint>
            <Time>2022-07-16T08:40:37.000Z</Time>
            <Position>
              <LatitudeDegrees>43.42442340217530727386474609375</LatitudeDegrees>
              <LongitudeDegrees>-4.77151396684348583221435546875</LongitudeDegrees>
            </Position>
            <AltitudeMeters>36.200000762939453125</AltitudeMeters>
            <DistanceMeters>NAN</DistanceMeters>
          </Trackpoint>
          <Trackpoint>
            <Time>2022-07-16T08:40:47.000Z</Time>
            <Position>
              <LatitudeDegrees>43.42444536276161670684814453125</LatitudeDegrees>
              <LongitudeDegrees>-4.7720114327967166900634765625</LongitudeDegrees>
            </Position>
            <AltitudeMeters>36</AltitudeMeters>
            <DistanceMeters>NAN</DistanceMeters>
          </Trackpoint>
          <Trackpoint>
            <Time>2022-07-16T08:40:57.000Z</Time>
            <Position>
              <LatitudeDegrees>43.4244648925960063934326171875</LatitudeDegrees>
              <LongitudeDegrees>-4.77244754321873188018798828125</LongitudeDegrees>
            </Position>
            <AltitudeMeters>36.40000152587890625</AltitudeMeters>
            <DistanceMeters>NAN</DistanceMeters>
          </Trackpoint>
          <Trackpoint>
            <Time>2022-07-16T08:41:06.000Z</Time>
            <Position>
              <LatitudeDegrees>43.42447578907012939453125</LatitudeDegrees>
              <LongitudeDegrees>-4.77282104082405567169189453125</LongitudeDegrees>
            </Position>
            <AltitudeMeters>36.40000152587890625</AltitudeMeters>
            <DistanceMeters>NAN</DistanceMeters>
          </Trackpoint>
          <Trackpoint>
            <Time>2022-07-16T08:41:19.000Z</Time>
            <Position>
              <LatitudeDegrees>43.42450487427413463592529296875</LatitudeDegrees>
              <LongitudeDegrees>-4.7732747532427310943603515625</LongitudeDegrees>
            </Position>
            <AltitudeMeters>36.59999847412109375</AltitudeMeters>
            <DistanceMeters>NAN</DistanceMeters>
          </Trackpoint>
          <Trackpoint>
            <Time>2022-07-16T08:41:24.000Z</Time>
            <Position>
              <LatitudeDegrees>43.4244591929018497467041015625</LatitudeDegrees>
              <LongitudeDegrees>-4.7734697163105010986328125</LongitudeDegrees>
            </Position>
            <AltitudeMeters>37</AltitudeMeters>
            <DistanceMeters>NAN</DistanceMeters>
          </Trackpoint>
          <Trackpoint>
            <Time>2022-07-16T08:41:31.000Z</Time>
            <Position>
              <LatitudeDegrees>43.42447771690785884857177734375</LatitudeDegrees>
              <LongitudeDegrees>-4.77378361858427524566650390625</LongitudeDegrees>
            </Position>
            <AltitudeMeters>36.59999847412109375</AltitudeMeters>
            <DistanceMeters>NAN</DistanceMeters>
          </Trackpoint>
          <Trackpoint>
            <Time>2022-07-16T08:41:38.000Z</Time>
            <Position>
              <LatitudeDegrees>43.424520380795001983642578125</LatitudeDegrees>
              <LongitudeDegrees>-4.77405351586639881134033203125</LongitudeDegrees>
            </Position>
            <AltitudeMeters>36.59999847412109375</AltitudeMeters>
            <DistanceMeters>NAN</DistanceMeters>
          </Trackpoint>
          <Trackpoint>
            <Time>2022-07-16T08:41:42.000Z</Time>
            <Position>
              <LatitudeDegrees>43.4245282597839832305908203125</LatitudeDegrees>
              <LongitudeDegrees>-4.77420128881931304931640625</LongitudeDegrees>
            </Position>
            <AltitudeMeters>36.799999237060546875</AltitudeMeters>
            <DistanceMeters>NAN</DistanceMeters>
          </Trackpoint>
          <Trackpoint>
            <Time>2022-07-16T08:41:45.000Z</Time>
            <Position>
              <LatitudeDegrees>43.4245302714407444000244140625</LatitudeDegrees>
              <LongitudeDegrees>-4.77430128492414951324462890625</LongitudeDegrees>
            </Position>
            <AltitudeMeters>36.799999237060546875</AltitudeMeters>
            <DistanceMeters>NAN</DistanceMeters>
          </Trackpoint>
          <Trackpoint>
            <Time>2022-07-16T08:41:47.000Z</Time>
            <Position>
              <LatitudeDegrees>43.424526415765285491943359375</LatitudeDegrees>
              <LongitudeDegrees>-4.774367250502109527587890625</LongitudeDegrees>
            </Position>
            <AltitudeMeters>36.59999847412109375</AltitudeMeters>
            <DistanceMeters>NAN</DistanceMeters>
          </Trackpoint>
          <Trackpoint>
            <Time>2022-07-16T08:41:54.000Z</Time>
            <Position>
              <LatitudeDegrees>43.4245450235903263092041015625</LatitudeDegrees>
              <LongitudeDegrees>-4.7745989263057708740234375</LongitudeDegrees>
            </Position>
            <AltitudeMeters>36.59999847412109375</AltitudeMeters>
            <DistanceMeters>NAN</DistanceMeters>
          </Trackpoint>
          <Trackpoint>
            <Time>2022-07-16T08:41:58.000Z</Time>
            <Position>
              <LatitudeDegrees>43.42457980848848819732666015625</LatitudeDegrees>
              <LongitudeDegrees>-4.77477553300559520721435546875</LongitudeDegrees>
            </Position>
            <AltitudeMeters>36.40000152587890625</AltitudeMeters>
            <DistanceMeters>NAN</DistanceMeters>
          </Trackpoint>
          <Trackpoint>
            <Time>2022-07-16T08:42:04.000Z</Time>
            <Position>
              <LatitudeDegrees>43.424606211483478546142578125</LatitudeDegrees>
              <LongitudeDegrees>-4.77504006586968898773193359375</LongitudeDegrees>
            </Position>
            <AltitudeMeters>36.200000762939453125</AltitudeMeters>
            <DistanceMeters>NAN</DistanceMeters>
          </Trackpoint>
          <Trackpoint>
            <Time>2022-07-16T08:42:05.000Z</Time>
            <Position>
              <LatitudeDegrees>43.4246083907783031463623046875</LatitudeDegrees>
              <LongitudeDegrees>-4.775070659816265106201171875</LongitudeDegrees>
            </Position>
            <AltitudeMeters>36.40000152587890625</AltitudeMeters>
            <DistanceMeters>NAN</DistanceMeters>
          </Trackpoint>
          <Trackpoint>
            <Time>2022-07-16T08:42:13.000Z</Time>
            <Position>
              <LatitudeDegrees>43.4246313571929931640625</LatitudeDegrees>
              <LongitudeDegrees>-4.775390513241291046142578125</LongitudeDegrees>
            </Position>
            <AltitudeMeters>36</AltitudeMeters>
            <DistanceMeters>NAN</DistanceMeters>
          </Trackpoint>
          <Trackpoint>
            <Time>2022-07-16T08:42:17.000Z</Time>
            <Position>
              <LatitudeDegrees>43.4246321953833103179931640625</LatitudeDegrees>
              <LongitudeDegrees>-4.77553828619420528411865234375</LongitudeDegrees>
            </Position>
            <AltitudeMeters>36.200000762939453125</AltitudeMeters>
            <DistanceMeters>NAN</DistanceMeters>
          </Trackpoint>
          <Trackpoint>
            <Time>2022-07-16T08:42:20.000Z</Time>
            <Position>
              <LatitudeDegrees>43.42463194392621517181396484375</LatitudeDegrees>
              <LongitudeDegrees>-4.77566602639853954315185546875</LongitudeDegrees>
            </Position>
            <AltitudeMeters>36.40000152587890625</AltitudeMeters>
            <DistanceMeters>NAN</DistanceMeters>
          </Trackpoint>
          <Trackpoint>
            <Time>2022-07-16T08:42:21.000Z</Time>
            <Position>
              <LatitudeDegrees>43.4246300160884857177734375</LatitudeDegrees>
              <LongitudeDegrees>-4.7756959497928619384765625</LongitudeDegrees>
            </Position>
            <AltitudeMeters>36.40000152587890625</AltitudeMeters>
            <DistanceMeters>NAN</DistanceMeters>
          </Trackpoint>
          <Trackpoint>
            <Time>2022-07-16T08:42:26.000Z</Time>
            <Position>
              <LatitudeDegrees>43.42464049346745014190673828125</LatitudeDegrees>
              <LongitudeDegrees>-4.77587498724460601806640625</LongitudeDegrees>
            </Position>
            <AltitudeMeters>36.40000152587890625</AltitudeMeters>
            <DistanceMeters>NAN</DistanceMeters>
          </Trackpoint>
          <Trackpoint>
            <Time>2022-07-16T08:42:28.000Z</Time>
            <Position>
              <LatitudeDegrees>43.4246446006000041961669921875</LatitudeDegrees>
              <LongitudeDegrees>-4.775937013328075408935546875</LongitudeDegrees>
            </Position>
            <AltitudeMeters>36.40000152587890625</AltitudeMeters>
            <DistanceMeters>NAN</DistanceMeters>
          </Trackpoint>
          <Trackpoint>
            <Time>2022-07-16T08:42:36.000Z</Time>
            <Position>
              <LatitudeDegrees>43.42465742491185665130615234375</LatitudeDegrees>
              <LongitudeDegrees>-4.7761921584606170654296875</LongitudeDegrees>
            </Position>
            <AltitudeMeters>36.40000152587890625</AltitudeMeters>
            <DistanceMeters>NAN</DistanceMeters>
          </Trackpoint>
          <Trackpoint>
            <Time>2022-07-16T08:42:44.000Z</Time>
            <Position>
              <LatitudeDegrees>43.4246798045933246612548828125</LatitudeDegrees>
              <LongitudeDegrees>-4.77650186978280544281005859375</LongitudeDegrees>
            </Position>
            <AltitudeMeters>36.59999847412109375</AltitudeMeters>
            <DistanceMeters>NAN</DistanceMeters>
          </Trackpoint>
          <Trackpoint>
            <Time>2022-07-16T08:42:53.000Z</Time>
            <Position>
              <LatitudeDegrees>43.42469296418130397796630859375</LatitudeDegrees>
              <LongitudeDegrees>-4.77683446370065212249755859375</LongitudeDegrees>
            </Position>
            <AltitudeMeters>36.59999847412109375</AltitudeMeters>
            <DistanceMeters>NAN</DistanceMeters>
          </Trackpoint>
          <Trackpoint>
            <Time>2022-07-16T08:43:00.000Z</Time>
            <Position>
              <LatitudeDegrees>43.4246992506086826324462890625</LatitudeDegrees>
              <LongitudeDegrees>-4.77712498046457767486572265625</LongitudeDegrees>
            </Position>
            <AltitudeMeters>36.59999847412109375</AltitudeMeters>
            <DistanceMeters>NAN</DistanceMeters>
          </Trackpoint>
          <Trackpoint>
            <Time>2022-07-16T08:43:08.000Z</Time>
            <Position>
              <LatitudeDegrees>43.424688018858432769775390625</LatitudeDegrees>
              <LongitudeDegrees>-4.77748674340546131134033203125</LongitudeDegrees>
            </Position>
            <AltitudeMeters>36.40000152587890625</AltitudeMeters>
            <DistanceMeters>NAN</DistanceMeters>
          </Trackpoint>
          <Trackpoint>
            <Time>2022-07-16T08:43:16.000Z</Time>
            <Position>
              <LatitudeDegrees>43.424663208425045013427734375</LatitudeDegrees>
              <LongitudeDegrees>-4.7778556309640407562255859375</LongitudeDegrees>
            </Position>
            <AltitudeMeters>36.40000152587890625</AltitudeMeters>
            <DistanceMeters>NAN</DistanceMeters>
          </Trackpoint>
          <Trackpoint>
            <Time>2022-07-16T08:43:19.000Z</Time>
            <Position>
              <LatitudeDegrees>43.42465759254992008209228515625</LatitudeDegrees>
              <LongitudeDegrees>-4.778000973165035247802734375</LongitudeDegrees>
            </Position>
            <AltitudeMeters>35.40000152587890625</AltitudeMeters>
            <DistanceMeters>NAN</DistanceMeters>
          </Trackpoint>
          <Trackpoint>
            <Time>2022-07-16T08:43:22.000Z</Time>
            <Position>
              <LatitudeDegrees>43.42464284040033817291259765625</LatitudeDegrees>
              <LongitudeDegrees>-4.778147153556346893310546875</LongitudeDegrees>
            </Position>
            <AltitudeMeters>34.40000152587890625</AltitudeMeters>
            <DistanceMeters>NAN</DistanceMeters>
          </Trackpoint>
          <Trackpoint>
            <Time>2022-07-16T08:43:24.000Z</Time>
            <Position>
              <LatitudeDegrees>43.4246318601071834564208984375</LatitudeDegrees>
              <LongitudeDegrees>-4.77822351269423961639404296875</LongitudeDegrees>
            </Position>
            <AltitudeMeters>35.799999237060546875</AltitudeMeters>
            <DistanceMeters>NAN</DistanceMeters>
          </Trackpoint>
          <Trackpoint>
            <Time>2022-07-16T08:43:30.000Z</Time>
            <Position>
              <LatitudeDegrees>43.4246171079576015472412109375</LatitudeDegrees>
              <LongitudeDegrees>-4.77851972915232181549072265625</LongitudeDegrees>
            </Position>
            <AltitudeMeters>36.59999847412109375</AltitudeMeters>
            <DistanceMeters>NAN</DistanceMeters>
          </Trackpoint>
          <Trackpoint>
            <Time>2022-07-16T08:43:36.000Z</Time>
            <Position>
              <LatitudeDegrees>43.42459171079099178314208984375</LatitudeDegrees>
              <LongitudeDegrees>-4.77881795726716518402099609375</LongitudeDegrees>
            </Position>
            <AltitudeMeters>35.799999237060546875</AltitudeMeters>
            <DistanceMeters>NAN</DistanceMeters>
          </Trackpoint>
          <Trackpoint>
            <Time>2022-07-16T08:43:37.000Z</Time>
            <Position>
              <LatitudeDegrees>43.42458735220134258270263671875</LatitudeDegrees>
              <LongitudeDegrees>-4.7788782231509685516357421875</LongitudeDegrees>
            </Position>
            <AltitudeMeters>36</AltitudeMeters>
            <DistanceMeters>NAN</DistanceMeters>
          </Trackpoint>
          <Trackpoint>
            <Time>2022-07-16T08:43:46.000Z</Time>
            <Position>
              <LatitudeDegrees>43.424552567303180694580078125</LatitudeDegrees>
              <LongitudeDegrees>-4.7793184407055377960205078125</LongitudeDegrees>
            </Position>
            <AltitudeMeters>35.59999847412109375</AltitudeMeters>
            <DistanceMeters>NAN</DistanceMeters>
          </Trackpoint>
          <Trackpoint>
            <Time>2022-07-16T08:43:47.000Z</Time>
            <Position>
              <LatitudeDegrees>43.42454946599900722503662109375</LatitudeDegrees>
              <LongitudeDegrees>-4.77936856448650360107421875</LongitudeDegrees>
            </Position>
            <AltitudeMeters>35.59999847412109375</AltitudeMeters>
            <DistanceMeters>NAN</DistanceMeters>
          </Trackpoint>
          <Trackpoint>
            <Time>2022-07-16T08:43:57.000Z</Time>
            <Position>
              <LatitudeDegrees>43.424509651958942413330078125</LatitudeDegrees>
              <LongitudeDegrees>-4.77980769239366054534912109375</LongitudeDegrees>
            </Position>
            <AltitudeMeters>35.40000152587890625</AltitudeMeters>
            <DistanceMeters>NAN</DistanceMeters>
          </Trackpoint>
          <Trackpoint>
            <Time>2022-07-16T08:44:03.000Z</Time>
            <Position>
              <LatitudeDegrees>43.424500934779644012451171875</LatitudeDegrees>
              <LongitudeDegrees>-4.78006996214389801025390625</LongitudeDegrees>
            </Position>
            <AltitudeMeters>35.59999847412109375</AltitudeMeters>
            <DistanceMeters>NAN</DistanceMeters>
          </Trackpoint>
          <Trackpoint>
            <Time>2022-07-16T08:44:08.000Z</Time>
            <Position>
              <LatitudeDegrees>43.42450839467346668243408203125</LatitudeDegrees>
              <LongitudeDegrees>-4.78023466654121875762939453125</LongitudeDegrees>
            </Position>
            <AltitudeMeters>35.200000762939453125</AltitudeMeters>
            <DistanceMeters>NAN</DistanceMeters>
          </Trackpoint>
          <Trackpoint>
            <Time>2022-07-16T08:44:13.000Z</Time>
            <Position>
              <LatitudeDegrees>43.42460118234157562255859375</LatitudeDegrees>
              <LongitudeDegrees>-4.7802575491368770599365234375</LongitudeDegrees>
            </Position>
            <AltitudeMeters>34.799999237060546875</AltitudeMeters>
            <DistanceMeters>NAN</DistanceMeters>
          </Trackpoint>
          <Trackpoint>
            <Time>2022-07-16T08:44:15.000Z</Time>
            <Position>
              <LatitudeDegrees>43.42462406493723392486572265625</LatitudeDegrees>
              <LongitudeDegrees>-4.78026299737393856048583984375</LongitudeDegrees>
            </Position>
            <AltitudeMeters>35</AltitudeMeters>
            <DistanceMeters>NAN</DistanceMeters>
          </Trackpoint>
          <Trackpoint>
            <Time>2022-07-16T08:44:17.000Z</Time>
            <Position>
              <LatitudeDegrees>43.424624986946582794189453125</LatitudeDegrees>
              <LongitudeDegrees>-4.78028529323637485504150390625</LongitudeDegrees>
            </Position>
            <AltitudeMeters>35</AltitudeMeters>
            <DistanceMeters>NAN</DistanceMeters>
          </Trackpoint>
          <Trackpoint>
            <Time>2022-07-16T08:44:18.000Z</Time>
            <Position>
              <LatitudeDegrees>43.42462020926177501678466796875</LatitudeDegrees>
              <LongitudeDegrees>-4.780297614634037017822265625</LongitudeDegrees>
            </Position>
            <AltitudeMeters>35</AltitudeMeters>
            <DistanceMeters>NAN</DistanceMeters>
          </Trackpoint>
          <Trackpoint>
            <Time>2022-07-16T08:44:21.000Z</Time>
            <Position>
              <LatitudeDegrees>43.42459003441035747528076171875</LatitudeDegrees>
              <LongitudeDegrees>-4.78028143756091594696044921875</LongitudeDegrees>
            </Position>
            <AltitudeMeters>35</AltitudeMeters>
            <DistanceMeters>NAN</DistanceMeters>
          </Trackpoint>
          <Trackpoint>
            <Time>2022-07-16T08:44:22.000Z</Time>
            <Position>
              <LatitudeDegrees>43.4245906211435794830322265625</LatitudeDegrees>
              <LongitudeDegrees>-4.78026618249714374542236328125</LongitudeDegrees>
            </Position>
            <AltitudeMeters>35</AltitudeMeters>
            <DistanceMeters>NAN</DistanceMeters>
          </Trackpoint>
          <Trackpoint>
            <Time>2022-07-16T08:44:24.000Z</Time>
            <Position>
              <LatitudeDegrees>43.4246057085692882537841796875</LatitudeDegrees>
              <LongitudeDegrees>-4.78023625910282135009765625</LongitudeDegrees>
            </Position>
            <AltitudeMeters>35</AltitudeMeters>
            <DistanceMeters>NAN</DistanceMeters>
          </Trackpoint>
          <Trackpoint>
            <Time>2022-07-16T08:44:26.000Z</Time>
            <Position>
              <LatitudeDegrees>43.4246456064283847808837890625</LatitudeDegrees>
              <LongitudeDegrees>-4.7802196629345417022705078125</LongitudeDegrees>
            </Position>
            <AltitudeMeters>34.59999847412109375</AltitudeMeters>
            <DistanceMeters>NAN</DistanceMeters>
          </Trackpoint>
          <Trackpoint>
            <Time>2022-07-16T08:44:34.000Z</Time>
            <Position>
              <LatitudeDegrees>43.4248231351375579833984375</LatitudeDegrees>
              <LongitudeDegrees>-4.78018269874155521392822265625</LongitudeDegrees>
            </Position>
            <AltitudeMeters>34.59999847412109375</AltitudeMeters>
            <DistanceMeters>NAN</DistanceMeters>
          </Trackpoint>
          <Trackpoint>
            <Time>2022-07-16T08:44:45.000Z</Time>
            <Position>
              <LatitudeDegrees>43.4250060282647609710693359375</LatitudeDegrees>
              <LongitudeDegrees>-4.78013039566576480865478515625</LongitudeDegrees>
            </Position>
            <AltitudeMeters>34.200000762939453125</AltitudeMeters>
            <DistanceMeters>NAN</DistanceMeters>
          </Trackpoint>
          <Trackpoint>
            <Time>2022-07-16T08:44:51.000Z</Time>
            <Position>
              <LatitudeDegrees>43.425141982734203338623046875</LatitudeDegrees>
              <LongitudeDegrees>-4.7800496779382228851318359375</LongitudeDegrees>
            </Position>
            <AltitudeMeters>34.59999847412109375</AltitudeMeters>
            <DistanceMeters>NAN</DistanceMeters>
          </Trackpoint>
          <Trackpoint>
            <Time>2022-07-16T08:44:57.000Z</Time>
            <Position>
              <LatitudeDegrees>43.425311632454395294189453125</LatitudeDegrees>
              <LongitudeDegrees>-4.77996024303138256072998046875</LongitudeDegrees>
            </Position>
            <AltitudeMeters>34.799999237060546875</AltitudeMeters>
            <DistanceMeters>NAN</DistanceMeters>
          </Trackpoint>
          <Trackpoint>
            <Time>2022-07-16T08:45:00.000Z</Time>
            <Position>
              <LatitudeDegrees>43.4254023246467113494873046875</LatitudeDegrees>
              <LongitudeDegrees>-4.779926128685474395751953125</LongitudeDegrees>
            </Position>
            <AltitudeMeters>34.799999237060546875</AltitudeMeters>
            <DistanceMeters>NAN</DistanceMeters>
          </Trackpoint>
          <Trackpoint>
            <Time>2022-07-16T08:45:07.000Z</Time>
            <Position>
              <LatitudeDegrees>43.42565487138926982879638671875</LatitudeDegrees>
              <LongitudeDegrees>-4.77987550199031829833984375</LongitudeDegrees>
            </Position>
            <AltitudeMeters>34</AltitudeMeters>
            <DistanceMeters>NAN</DistanceMeters>
          </Trackpoint>
          <Trackpoint>
            <Time>2022-07-16T08:45:14.000Z</Time>
            <Position>
              <LatitudeDegrees>43.4259109385311603546142578125</LatitudeDegrees>
              <LongitudeDegrees>-4.77988782338798046112060546875</LongitudeDegrees>
            </Position>
            <AltitudeMeters>34.200000762939453125</AltitudeMeters>
            <DistanceMeters>NAN</DistanceMeters>
          </Trackpoint>
          <Trackpoint>
            <Time>2022-07-16T08:45:18.000Z</Time>
            <Position>
              <LatitudeDegrees>43.42602585442364215850830078125</LatitudeDegrees>
              <LongitudeDegrees>-4.77998538874089717864990234375</LongitudeDegrees>
            </Position>
            <AltitudeMeters>33.59999847412109375</AltitudeMeters>
            <DistanceMeters>NAN</DistanceMeters>
          </Trackpoint>
          <Trackpoint>
            <Time>2022-07-16T08:45:19.000Z</Time>
            <Position>
              <LatitudeDegrees>43.4260574541985988616943359375</LatitudeDegrees>
              <LongitudeDegrees>-4.78002796880900859832763671875</LongitudeDegrees>
            </Position>
            <AltitudeMeters>33.40000152587890625</AltitudeMeters>
            <DistanceMeters>NAN</DistanceMeters>
          </Trackpoint>
          <Trackpoint>
            <Time>2022-07-16T08:45:25.000Z</Time>
            <Position>
              <LatitudeDegrees>43.426175303757190704345703125</LatitudeDegrees>
              <LongitudeDegrees>-4.7803031466901302337646484375</LongitudeDegrees>
            </Position>
            <AltitudeMeters>33.200000762939453125</AltitudeMeters>
            <DistanceMeters>NAN</DistanceMeters>
          </Trackpoint>
          <Trackpoint>
            <Time>2022-07-16T08:45:26.000Z</Time>
            <Position>
              <LatitudeDegrees>43.4261918999254703521728515625</LatitudeDegrees>
              <LongitudeDegrees>-4.78034916333854198455810546875</LongitudeDegrees>
            </Position>
            <AltitudeMeters>33.200000762939453125</AltitudeMeters>
            <DistanceMeters>NAN</DistanceMeters>
          </Trackpoint>
          <Trackpoint>
            <Time>2022-07-16T08:45:33.000Z</Time>
            <Position>
              <LatitudeDegrees>43.426307402551174163818359375</LatitudeDegrees>
              <LongitudeDegrees>-4.78063297457993030548095703125</LongitudeDegrees>
            </Position>
            <AltitudeMeters>33.40000152587890625</AltitudeMeters>
            <DistanceMeters>NAN</DistanceMeters>
          </Trackpoint>
          <Trackpoint>
            <Time>2022-07-16T08:45:35.000Z</Time>
            <Position>
              <LatitudeDegrees>43.42634319327771663665771484375</LatitudeDegrees>
              <LongitudeDegrees>-4.78071176446974277496337890625</LongitudeDegrees>
            </Position>
            <AltitudeMeters>33.799999237060546875</AltitudeMeters>
            <DistanceMeters>NAN</DistanceMeters>
          </Trackpoint>
          <Trackpoint>
            <Time>2022-07-16T08:45:42.000Z</Time>
            <Position>
              <LatitudeDegrees>43.42642164789140224456787109375</LatitudeDegrees>
              <LongitudeDegrees>-4.78095534257590770721435546875</LongitudeDegrees>
            </Position>
            <AltitudeMeters>33</AltitudeMeters>
            <DistanceMeters>NAN</DistanceMeters>
          </Trackpoint>
          <Trackpoint>
            <Time>2022-07-16T08:45:46.000Z</Time>
            <Position>
              <LatitudeDegrees>43.42642910778522491455078125</LatitudeDegrees>
              <LongitudeDegrees>-4.78104687295854091644287109375</LongitudeDegrees>
            </Position>
            <AltitudeMeters>32.799999237060546875</AltitudeMeters>
            <DistanceMeters>NAN</DistanceMeters>
          </Trackpoint>
          <Trackpoint>
            <Time>2022-07-16T08:45:47.000Z</Time>
            <Position>
              <LatitudeDegrees>43.42642365954816341400146484375</LatitudeDegrees>
              <LongitudeDegrees>-4.78105911053717136383056640625</LongitudeDegrees>
            </Position>
            <AltitudeMeters>33</AltitudeMeters>
            <DistanceMeters>NAN</DistanceMeters>
          </Trackpoint>
          <Trackpoint>
            <Time>2022-07-16T08:45:48.000Z</Time>
            <Position>
              <LatitudeDegrees>43.426414690911769866943359375</LatitudeDegrees>
              <LongitudeDegrees>-4.7810655646026134490966796875</LongitudeDegrees>
            </Position>
            <AltitudeMeters>33</AltitudeMeters>
            <DistanceMeters>NAN</DistanceMeters>
          </Trackpoint>
          <Trackpoint>
            <Time>2022-07-16T08:45:51.000Z</Time>
            <Position>
              <LatitudeDegrees>43.4263934008777141571044921875</LatitudeDegrees>
              <LongitudeDegrees>-4.78102792985737323760986328125</LongitudeDegrees>
            </Position>
            <AltitudeMeters>32.59999847412109375</AltitudeMeters>
            <DistanceMeters>NAN</DistanceMeters>
          </Trackpoint>
          <Trackpoint>
            <Time>2022-07-16T08:45:52.000Z</Time>
            <Position>
              <LatitudeDegrees>43.42639155685901641845703125</LatitudeDegrees>
              <LongitudeDegrees>-4.780991636216640472412109375</LongitudeDegrees>
            </Position>
            <AltitudeMeters>32.59999847412109375</AltitudeMeters>
            <DistanceMeters>NAN</DistanceMeters>
          </Trackpoint>
          <Trackpoint>
            <Time>2022-07-16T08:45:59.000Z</Time>
            <Position>
              <LatitudeDegrees>43.42632911168038845062255859375</LatitudeDegrees>
              <LongitudeDegrees>-4.780789799988269805908203125</LongitudeDegrees>
            </Position>
            <AltitudeMeters>32.200000762939453125</AltitudeMeters>
            <DistanceMeters>NAN</DistanceMeters>
          </Trackpoint>
          <Trackpoint>
            <Time>2022-07-16T08:46:05.000Z</Time>
            <Position>
              <LatitudeDegrees>43.42624093405902385711669921875</LatitudeDegrees>
              <LongitudeDegrees>-4.7805696912109851837158203125</LongitudeDegrees>
            </Position>
            <AltitudeMeters>32.40000152587890625</AltitudeMeters>
            <DistanceMeters>NAN</DistanceMeters>
          </Trackpoint>
          <Trackpoint>
            <Time>2022-07-16T08:46:07.000Z</Time>
            <Position>
              <LatitudeDegrees>43.42621042393147945404052734375</LatitudeDegrees>
              <LongitudeDegrees>-4.78050271980464458465576171875</LongitudeDegrees>
            </Position>
            <AltitudeMeters>32.40000152587890625</AltitudeMeters>
            <DistanceMeters>NAN</DistanceMeters>
          </Trackpoint>
          <Trackpoint>
            <Time>2022-07-16T08:46:09.000Z</Time>
            <Position>
              <LatitudeDegrees>43.4261754713952541351318359375</LatitudeDegrees>
              <LongitudeDegrees>-4.78042962960898876190185546875</LongitudeDegrees>
            </Position>
            <AltitudeMeters>32.40000152587890625</AltitudeMeters>
            <DistanceMeters>NAN</DistanceMeters>
          </Trackpoint>
          <Trackpoint>
            <Time>2022-07-16T08:46:13.000Z</Time>
            <Position>
              <LatitudeDegrees>43.42611403204500675201416015625</LatitudeDegrees>
              <LongitudeDegrees>-4.780280850827693939208984375</LongitudeDegrees>
            </Position>
            <AltitudeMeters>32.200000762939453125</AltitudeMeters>
            <DistanceMeters>NAN</DistanceMeters>
          </Trackpoint>
          <Trackpoint>
            <Time>2022-07-16T08:46:16.000Z</Time>
            <Position>
              <LatitudeDegrees>43.426077067852020263671875</LatitudeDegrees>
              <LongitudeDegrees>-4.7801770828664302825927734375</LongitudeDegrees>
            </Position>
            <AltitudeMeters>32.200000762939453125</AltitudeMeters>
            <DistanceMeters>NAN</DistanceMeters>
          </Trackpoint>
          <Trackpoint>
            <Time>2022-07-16T08:46:17.000Z</Time>
            <Position>
              <LatitudeDegrees>43.42606172896921634674072265625</LatitudeDegrees>
              <LongitudeDegrees>-4.78014498017728328704833984375</LongitudeDegrees>
            </Position>
            <AltitudeMeters>32.40000152587890625</AltitudeMeters>
            <DistanceMeters>NAN</DistanceMeters>
          </Trackpoint>
          <Trackpoint>
            <Time>2022-07-16T08:46:20.000Z</Time>
            <Position>
              <LatitudeDegrees>43.426007665693759918212890625</LatitudeDegrees>
              <LongitudeDegrees>-4.78005462326109409332275390625</LongitudeDegrees>
            </Position>
            <AltitudeMeters>32.40000152587890625</AltitudeMeters>
            <DistanceMeters>NAN</DistanceMeters>
          </Trackpoint>
          <Trackpoint>
            <Time>2022-07-16T08:46:25.000Z</Time>
            <Position>
              <LatitudeDegrees>43.4259340725839138031005859375</LatitudeDegrees>
              <LongitudeDegrees>-4.779918082058429718017578125</LongitudeDegrees>
            </Position>
            <AltitudeMeters>32.799999237060546875</AltitudeMeters>
            <DistanceMeters>NAN</DistanceMeters>
          </Trackpoint>
          <Trackpoint>
            <Time>2022-07-16T08:46:26.000Z</Time>
            <Position>
              <LatitudeDegrees>43.4259323962032794952392578125</LatitudeDegrees>
              <LongitudeDegrees>-4.77989385835826396942138671875</LongitudeDegrees>
            </Position>
            <AltitudeMeters>32.799999237060546875</AltitudeMeters>
            <DistanceMeters>NAN</DistanceMeters>
          </Trackpoint>
          <Trackpoint>
            <Time>2022-07-16T08:46:28.000Z</Time>
            <Position>
              <LatitudeDegrees>43.42594572342932224273681640625</LatitudeDegrees>
              <LongitudeDegrees>-4.7798587381839752197265625</LongitudeDegrees>
            </Position>
            <AltitudeMeters>33</AltitudeMeters>
            <DistanceMeters>NAN</DistanceMeters>
          </Trackpoint>
          <Trackpoint>
            <Time>2022-07-16T08:46:29.000Z</Time>
            <Position>
              <LatitudeDegrees>43.42595259658992290496826171875</LatitudeDegrees>
              <LongitudeDegrees>-4.779854714870452880859375</LongitudeDegrees>
            </Position>
            <AltitudeMeters>33</AltitudeMeters>
            <DistanceMeters>NAN</DistanceMeters>
          </Trackpoint>
          <Trackpoint>
            <Time>2022-07-16T08:46:33.000Z</Time>
            <Position>
              <LatitudeDegrees>43.42596164904534816741943359375</LatitudeDegrees>
              <LongitudeDegrees>-4.77989352308213710784912109375</LongitudeDegrees>
            </Position>
            <AltitudeMeters>33</AltitudeMeters>
            <DistanceMeters>NAN</DistanceMeters>
          </Trackpoint>
          <Trackpoint>
            <Time>2022-07-16T08:46:34.000Z</Time>
            <Position>
              <LatitudeDegrees>43.425963409245014190673828125</LatitudeDegrees>
              <LongitudeDegrees>-4.779925458133220672607421875</LongitudeDegrees>
            </Position>
            <AltitudeMeters>33</AltitudeMeters>
            <DistanceMeters>NAN</DistanceMeters>
          </Trackpoint>
          <Trackpoint>
            <Time>2022-07-16T08:46:38.000Z</Time>
            <Position>
              <LatitudeDegrees>43.4260306321084499359130859375</LatitudeDegrees>
              <LongitudeDegrees>-4.78004456497728824615478515625</LongitudeDegrees>
            </Position>
            <AltitudeMeters>32.59999847412109375</AltitudeMeters>
            <DistanceMeters>NAN</DistanceMeters>
          </Trackpoint>
          <Trackpoint>
            <Time>2022-07-16T08:46:44.000Z</Time>
            <Position>
              <LatitudeDegrees>43.42613599263131618499755859375</LatitudeDegrees>
              <LongitudeDegrees>-4.78026182390749454498291015625</LongitudeDegrees>
            </Position>
            <AltitudeMeters>32.40000152587890625</AltitudeMeters>
            <DistanceMeters>NAN</DistanceMeters>
          </Trackpoint>
          <Trackpoint>
            <Time>2022-07-16T08:46:45.000Z</Time>
            <Position>
              <LatitudeDegrees>43.42615242116153240203857421875</LatitudeDegrees>
              <LongitudeDegrees>-4.780297614634037017822265625</LongitudeDegrees>
            </Position>
            <AltitudeMeters>32.40000152587890625</AltitudeMeters>
            <DistanceMeters>NAN</DistanceMeters>
          </Trackpoint>
          <Trackpoint>
            <Time>2022-07-16T08:46:47.000Z</Time>
            <Position>
              <LatitudeDegrees>43.42618527822196483612060546875</LatitudeDegrees>
              <LongitudeDegrees>-4.78037129156291484832763671875</LongitudeDegrees>
            </Position>
            <AltitudeMeters>32.40000152587890625</AltitudeMeters>
            <DistanceMeters>NAN</DistanceMeters>
          </Trackpoint>
          <Trackpoint>
            <Time>2022-07-16T08:46:49.000Z</Time>
            <Position>
              <LatitudeDegrees>43.42621495015919208526611328125</LatitudeDegrees>
              <LongitudeDegrees>-4.7804407775402069091796875</LongitudeDegrees>
            </Position>
            <AltitudeMeters>33.200000762939453125</AltitudeMeters>
            <DistanceMeters>NAN</DistanceMeters>
          </Trackpoint>
          <Trackpoint>
            <Time>2022-07-16T08:46:50.000Z</Time>
            <Position>
              <LatitudeDegrees>43.42622752301394939422607421875</LatitudeDegrees>
              <LongitudeDegrees>-4.7804761491715908050537109375</LongitudeDegrees>
            </Position>
            <AltitudeMeters>33.200000762939453125</AltitudeMeters>
            <DistanceMeters>NAN</DistanceMeters>
          </Trackpoint>
          <Trackpoint>
            <Time>2022-07-16T08:46:53.000Z</Time>
            <Position>
              <LatitudeDegrees>43.42627714388072490692138671875</LatitudeDegrees>
              <LongitudeDegrees>-4.7805851139128208160400390625</LongitudeDegrees>
            </Position>
            <AltitudeMeters>33.200000762939453125</AltitudeMeters>
            <DistanceMeters>NAN</DistanceMeters>
          </Trackpoint>
          <Trackpoint>
            <Time>2022-07-16T08:46:58.000Z</Time>
            <Position>
              <LatitudeDegrees>43.4263555146753787994384765625</LatitudeDegrees>
              <LongitudeDegrees>-4.78076758794486522674560546875</LongitudeDegrees>
            </Position>
            <AltitudeMeters>33.799999237060546875</AltitudeMeters>
            <DistanceMeters>NAN</DistanceMeters>
          </Trackpoint>
          <Trackpoint>
            <Time>2022-07-16T08:47:03.000Z</Time>
            <Position>
              <LatitudeDegrees>43.42642064206302165985107421875</LatitudeDegrees>
              <LongitudeDegrees>-4.78095618076622486114501953125</LongitudeDegrees>
            </Position>
            <AltitudeMeters>33.59999847412109375</AltitudeMeters>
            <DistanceMeters>NAN</DistanceMeters>
          </Trackpoint>
          <Trackpoint>
            <Time>2022-07-16T08:47:09.000Z</Time>
            <Position>
              <LatitudeDegrees>43.42645215801894664764404296875</LatitudeDegrees>
              <LongitudeDegrees>-4.78121417574584484100341796875</LongitudeDegrees>
            </Position>
            <AltitudeMeters>33</AltitudeMeters>
            <DistanceMeters>NAN</DistanceMeters>
          </Trackpoint>
          <Trackpoint>
            <Time>2022-07-16T08:47:10.000Z</Time>
            <Position>
              <LatitudeDegrees>43.42645567841827869415283203125</LatitudeDegrees>
              <LongitudeDegrees>-4.7812613658607006072998046875</LongitudeDegrees>
            </Position>
            <AltitudeMeters>33</AltitudeMeters>
            <DistanceMeters>NAN</DistanceMeters>
          </Trackpoint>
          <Trackpoint>
            <Time>2022-07-16T08:47:16.000Z</Time>
            <Position>
              <LatitudeDegrees>43.4264691732823848724365234375</LatitudeDegrees>
              <LongitudeDegrees>-4.78153738193213939666748046875</LongitudeDegrees>
            </Position>
            <AltitudeMeters>32.799999237060546875</AltitudeMeters>
            <DistanceMeters>NAN</DistanceMeters>
          </Trackpoint>
          <Trackpoint>
            <Time>2022-07-16T08:47:17.000Z</Time>
            <Position>
              <LatitudeDegrees>43.42647244222462177276611328125</LatitudeDegrees>
              <LongitudeDegrees>-4.78158096782863140106201171875</LongitudeDegrees>
            </Position>
            <AltitudeMeters>32.59999847412109375</AltitudeMeters>
            <DistanceMeters>NAN</DistanceMeters>
          </Trackpoint>
          <Trackpoint>
            <Time>2022-07-16T08:47:19.000Z</Time>
            <Position>
              <LatitudeDegrees>43.426479063928127288818359375</LatitudeDegrees>
              <LongitudeDegrees>-4.78166713379323482513427734375</LongitudeDegrees>
            </Position>
            <AltitudeMeters>32.799999237060546875</AltitudeMeters>
            <DistanceMeters>NAN</DistanceMeters>
          </Trackpoint>
          <Trackpoint>
            <Time>2022-07-16T08:47:25.000Z</Time>
            <Position>
              <LatitudeDegrees>43.42650798149406909942626953125</LatitudeDegrees>
              <LongitudeDegrees>-4.7818883322179317474365234375</LongitudeDegrees>
            </Position>
            <AltitudeMeters>33.200000762939453125</AltitudeMeters>
            <DistanceMeters>NAN</DistanceMeters>
          </Trackpoint>
          <Trackpoint>
            <Time>2022-07-16T08:47:27.000Z</Time>
            <Position>
              <LatitudeDegrees>43.42652139253914356231689453125</LatitudeDegrees>
              <LongitudeDegrees>-4.78194876573979854583740234375</LongitudeDegrees>
            </Position>
            <AltitudeMeters>33.59999847412109375</AltitudeMeters>
            <DistanceMeters>NAN</DistanceMeters>
          </Trackpoint>
          <Trackpoint>
            <Time>2022-07-16T08:47:28.000Z</Time>
            <Position>
              <LatitudeDegrees>43.4265318699181079864501953125</LatitudeDegrees>
              <LongitudeDegrees>-4.7819750010967254638671875</LongitudeDegrees>
            </Position>
            <AltitudeMeters>33.799999237060546875</AltitudeMeters>
            <DistanceMeters>NAN</DistanceMeters>
          </Trackpoint>
          <Trackpoint>
            <Time>2022-07-16T08:47:36.000Z</Time>
            <Position>
              <LatitudeDegrees>43.42665013857185840606689453125</LatitudeDegrees>
              <LongitudeDegrees>-4.78222989477217197418212890625</LongitudeDegrees>
            </Position>
            <AltitudeMeters>34</AltitudeMeters>
            <DistanceMeters>NAN</DistanceMeters>
          </Trackpoint>
          <Trackpoint>
            <Time>2022-07-16T08:47:41.000Z</Time>
            <Position>
              <LatitudeDegrees>43.42677586711943149566650390625</LatitudeDegrees>
              <LongitudeDegrees>-4.78243575431406497955322265625</LongitudeDegrees>
            </Position>
            <AltitudeMeters>33.59999847412109375</AltitudeMeters>
            <DistanceMeters>NAN</DistanceMeters>
          </Trackpoint>
          <Trackpoint>
            <Time>2022-07-16T08:47:43.000Z</Time>
            <Position>
              <LatitudeDegrees>43.4268483705818653106689453125</LatitudeDegrees>
              <LongitudeDegrees>-4.78247967548668384552001953125</LongitudeDegrees>
            </Position>
            <AltitudeMeters>32.200000762939453125</AltitudeMeters>
            <DistanceMeters>NAN</DistanceMeters>
          </Trackpoint>
          <Trackpoint>
            <Time>2022-07-16T08:47:44.000Z</Time>
            <Position>
              <LatitudeDegrees>43.4268882684409618377685546875</LatitudeDegrees>
              <LongitudeDegrees>-4.782486297190189361572265625</LongitudeDegrees>
            </Position>
            <AltitudeMeters>31.6000003814697265625</AltitudeMeters>
            <DistanceMeters>NAN</DistanceMeters>
          </Trackpoint>
          <Trackpoint>
            <Time>2022-07-16T08:47:45.000Z</Time>
            <Position>
              <LatitudeDegrees>43.426932357251644134521484375</LatitudeDegrees>
              <LongitudeDegrees>-4.78248420171439647674560546875</LongitudeDegrees>
            </Position>
            <AltitudeMeters>31.200000762939453125</AltitudeMeters>
            <DistanceMeters>NAN</DistanceMeters>
          </Trackpoint>
          <Trackpoint>
            <Time>2022-07-16T08:47:46.000Z</Time>
            <Position>
              <LatitudeDegrees>43.4269757755100727081298828125</LatitudeDegrees>
              <LongitudeDegrees>-4.7824790887534618377685546875</LongitudeDegrees>
            </Position>
            <AltitudeMeters>31</AltitudeMeters>
            <DistanceMeters>NAN</DistanceMeters>
          </Trackpoint>
          <Trackpoint>
            <Time>2022-07-16T08:47:52.000Z</Time>
            <Position>
              <LatitudeDegrees>43.42719814740121364593505859375</LatitudeDegrees>
              <LongitudeDegrees>-4.78240893222391605377197265625</LongitudeDegrees>
            </Position>
            <AltitudeMeters>31.6000003814697265625</AltitudeMeters>
            <DistanceMeters>NAN</DistanceMeters>
          </Trackpoint>
          <Trackpoint>
            <Time>2022-07-16T08:48:01.000Z</Time>
            <Position>
              <LatitudeDegrees>43.42749738134443759918212890625</LatitudeDegrees>
              <LongitudeDegrees>-4.782285802066326141357421875</LongitudeDegrees>
            </Position>
            <AltitudeMeters>31.200000762939453125</AltitudeMeters>
            <DistanceMeters>NAN</DistanceMeters>
          </Trackpoint>
          <Trackpoint>
            <Time>2022-07-16T08:48:06.000Z</Time>
            <Position>
              <LatitudeDegrees>43.4276582300662994384765625</LatitudeDegrees>
              <LongitudeDegrees>-4.78226409293711185455322265625</LongitudeDegrees>
            </Position>
            <AltitudeMeters>31.200000762939453125</AltitudeMeters>
            <DistanceMeters>NAN</DistanceMeters>
          </Trackpoint>
          <Trackpoint>
            <Time>2022-07-16T08:48:08.000Z</Time>
            <Position>
              <LatitudeDegrees>43.4277257882058620452880859375</LatitudeDegrees>
              <LongitudeDegrees>-4.78227331303060054779052734375</LongitudeDegrees>
            </Position>
            <AltitudeMeters>31.6000003814697265625</AltitudeMeters>
            <DistanceMeters>NAN</DistanceMeters>
          </Trackpoint>
          <Trackpoint>
            <Time>2022-07-16T08:48:12.000Z</Time>
            <Position>
              <LatitudeDegrees>43.4278488345444202423095703125</LatitudeDegrees>
              <LongitudeDegrees>-4.78229745291173458099365234375</LongitudeDegrees>
            </Position>
            <AltitudeMeters>32</AltitudeMeters>
            <DistanceMeters>NAN</DistanceMeters>
          </Trackpoint>
          <Trackpoint>
            <Time>2022-07-16T08:48:18.000Z</Time>
            <Position>
              <LatitudeDegrees>43.42799744568765163421630859375</LatitudeDegrees>
              <LongitudeDegrees>-4.7823661006987094879150390625</LongitudeDegrees>
            </Position>
            <AltitudeMeters>32.59999847412109375</AltitudeMeters>
            <DistanceMeters>NAN</DistanceMeters>
          </Trackpoint>
          <Trackpoint>
            <Time>2022-07-16T08:48:23.000Z</Time>
            <Position>
              <LatitudeDegrees>43.42810548841953277587890625</LatitudeDegrees>
              <LongitudeDegrees>-4.782431311905384063720703125</LongitudeDegrees>
            </Position>
            <AltitudeMeters>33.200000762939453125</AltitudeMeters>
            <DistanceMeters>NAN</DistanceMeters>
          </Trackpoint>
          <Trackpoint>
            <Time>2022-07-16T08:48:27.000Z</Time>
            <Position>
              <LatitudeDegrees>43.4281888045370578765869140625</LatitudeDegrees>
              <LongitudeDegrees>-4.7825055755674839019775390625</LongitudeDegrees>
            </Position>
            <AltitudeMeters>33.59999847412109375</AltitudeMeters>
            <DistanceMeters>NAN</DistanceMeters>
          </Trackpoint>
          <Trackpoint>
            <Time>2022-07-16T08:48:31.000Z</Time>
            <Position>
              <LatitudeDegrees>43.42826600186526775360107421875</LatitudeDegrees>
              <LongitudeDegrees>-4.78261713869869709014892578125</LongitudeDegrees>
            </Position>
            <AltitudeMeters>33.799999237060546875</AltitudeMeters>
            <DistanceMeters>NAN</DistanceMeters>
          </Trackpoint>
          <Trackpoint>
            <Time>2022-07-16T08:48:36.000Z</Time>
            <Position>
              <LatitudeDegrees>43.4283594600856304168701171875</LatitudeDegrees>
              <LongitudeDegrees>-4.78276348672807216644287109375</LongitudeDegrees>
            </Position>
            <AltitudeMeters>34.200000762939453125</AltitudeMeters>
            <DistanceMeters>NAN</DistanceMeters>
          </Trackpoint>
          <Trackpoint>
            <Time>2022-07-16T08:48:44.000Z</Time>
            <Position>
              <LatitudeDegrees>43.42848929576575756072998046875</LatitudeDegrees>
              <LongitudeDegrees>-4.782937578856945037841796875</LongitudeDegrees>
            </Position>
            <AltitudeMeters>34.200000762939453125</AltitudeMeters>
            <DistanceMeters>NAN</DistanceMeters>
          </Trackpoint>
          <Trackpoint>
            <Time>2022-07-16T08:48:53.000Z</Time>
            <Position>
              <LatitudeDegrees>43.4286846779286861419677734375</LatitudeDegrees>
              <LongitudeDegrees>-4.78304796852171421051025390625</LongitudeDegrees>
            </Position>
            <AltitudeMeters>34.40000152587890625</AltitudeMeters>
            <DistanceMeters>NAN</DistanceMeters>
          </Trackpoint>
          <Trackpoint>
            <Time>2022-07-16T08:48:58.000Z</Time>
            <Position>
              <LatitudeDegrees>43.42876807786524295806884765625</LatitudeDegrees>
              <LongitudeDegrees>-4.7831000201404094696044921875</LongitudeDegrees>
            </Position>
            <AltitudeMeters>33</AltitudeMeters>
            <DistanceMeters>NAN</DistanceMeters>
          </Trackpoint>
          <Trackpoint>
            <Time>2022-07-16T08:49:02.000Z</Time>
            <Position>
              <LatitudeDegrees>43.42885784804821014404296875</LatitudeDegrees>
              <LongitudeDegrees>-4.78310764767229557037353515625</LongitudeDegrees>
            </Position>
            <AltitudeMeters>31.6000003814697265625</AltitudeMeters>
            <DistanceMeters>NAN</DistanceMeters>
          </Trackpoint>
          <Trackpoint>
            <Time>2022-07-16T08:49:05.000Z</Time>
            <Position>
              <LatitudeDegrees>43.42895432375371456146240234375</LatitudeDegrees>
              <LongitudeDegrees>-4.78309188969433307647705078125</LongitudeDegrees>
            </Position>
            <AltitudeMeters>30.200000762939453125</AltitudeMeters>
            <DistanceMeters>NAN</DistanceMeters>
          </Trackpoint>
          <Trackpoint>
            <Time>2022-07-16T08:49:08.000Z</Time>
            <Position>
              <LatitudeDegrees>43.42905121855437755584716796875</LatitudeDegrees>
              <LongitudeDegrees>-4.7831187956035137176513671875</LongitudeDegrees>
            </Position>
            <AltitudeMeters>29</AltitudeMeters>
            <DistanceMeters>NAN</DistanceMeters>
          </Trackpoint>
          <Trackpoint>
            <Time>2022-07-16T08:49:10.000Z</Time>
            <Position>
              <LatitudeDegrees>43.4290950559079647064208984375</LatitudeDegrees>
              <LongitudeDegrees>-4.7831724397838115692138671875</LongitudeDegrees>
            </Position>
            <AltitudeMeters>27.799999237060546875</AltitudeMeters>
            <DistanceMeters>NAN</DistanceMeters>
          </Trackpoint>
          <Trackpoint>
            <Time>2022-07-16T08:49:14.000Z</Time>
            <Position>
              <LatitudeDegrees>43.42913486994802951812744140625</LatitudeDegrees>
              <LongitudeDegrees>-4.7833196260035037994384765625</LongitudeDegrees>
            </Position>
            <AltitudeMeters>26.799999237060546875</AltitudeMeters>
            <DistanceMeters>NAN</DistanceMeters>
          </Trackpoint>
          <Trackpoint>
            <Time>2022-07-16T08:49:15.000Z</Time>
            <Position>
              <LatitudeDegrees>43.4291369654238224029541015625</LatitudeDegrees>
              <LongitudeDegrees>-4.78335994295775890350341796875</LongitudeDegrees>
            </Position>
            <AltitudeMeters>26.799999237060546875</AltitudeMeters>
            <DistanceMeters>NAN</DistanceMeters>
          </Trackpoint>
          <Trackpoint>
            <Time>2022-07-16T08:49:19.000Z</Time>
            <Position>
              <LatitudeDegrees>43.429113663733005523681640625</LatitudeDegrees>
              <LongitudeDegrees>-4.7835244797170162200927734375</LongitudeDegrees>
            </Position>
            <AltitudeMeters>25.799999237060546875</AltitudeMeters>
            <DistanceMeters>NAN</DistanceMeters>
          </Trackpoint>
          <Trackpoint>
            <Time>2022-07-16T08:49:21.000Z</Time>
            <Position>
              <LatitudeDegrees>43.42910536564886569976806640625</LatitudeDegrees>
              <LongitudeDegrees>-4.7836017608642578125</LongitudeDegrees>
            </Position>
            <AltitudeMeters>25.200000762939453125</AltitudeMeters>
            <DistanceMeters>NAN</DistanceMeters>
          </Trackpoint>
          <Trackpoint>
            <Time>2022-07-16T08:49:23.000Z</Time>
            <Position>
              <LatitudeDegrees>43.42910218052566051483154296875</LatitudeDegrees>
              <LongitudeDegrees>-4.78364408947527408599853515625</LongitudeDegrees>
            </Position>
            <AltitudeMeters>24.3999996185302734375</AltitudeMeters>
            <DistanceMeters>NAN</DistanceMeters>
          </Trackpoint>
          <Trackpoint>
            <Time>2022-07-16T08:49:25.000Z</Time>
            <Position>
              <LatitudeDegrees>43.42910419218242168426513671875</LatitudeDegrees>
              <LongitudeDegrees>-4.78364534676074981689453125</LongitudeDegrees>
            </Position>
            <AltitudeMeters>23.200000762939453125</AltitudeMeters>
            <DistanceMeters>NAN</DistanceMeters>
          </Trackpoint>
          <Trackpoint>
            <Time>2022-07-16T08:49:26.000Z</Time>
            <Position>
              <LatitudeDegrees>43.4291034378111362457275390625</LatitudeDegrees>
              <LongitudeDegrees>-4.783645682036876678466796875</LongitudeDegrees>
            </Position>
            <AltitudeMeters>23</AltitudeMeters>
            <DistanceMeters>NAN</DistanceMeters>
          </Trackpoint>
          <Trackpoint>
            <Time>2022-07-16T09:09:53.000Z</Time>
            <Position>
              <LatitudeDegrees>43.4290863387286663055419921875</LatitudeDegrees>
              <LongitudeDegrees>-4.7835694067180156707763671875</LongitudeDegrees>
            </Position>
            <AltitudeMeters>12</AltitudeMeters>
            <DistanceMeters>NAN</DistanceMeters>
          </Trackpoint>
          <Trackpoint>
            <Time>2022-07-16T09:09:54.000Z</Time>
            <Position>
              <LatitudeDegrees>43.42908709309995174407958984375</LatitudeDegrees>
              <LongitudeDegrees>-4.7835412435233592987060546875</LongitudeDegrees>
            </Position>
            <AltitudeMeters>12</AltitudeMeters>
            <DistanceMeters>NAN</DistanceMeters>
          </Trackpoint>
          <Trackpoint>
            <Time>2022-07-16T09:09:56.000Z</Time>
            <Position>
              <LatitudeDegrees>43.42909195460379123687744140625</LatitudeDegrees>
              <LongitudeDegrees>-4.7834993340075016021728515625</LongitudeDegrees>
            </Position>
            <AltitudeMeters>13.3999996185302734375</AltitudeMeters>
            <DistanceMeters>NAN</DistanceMeters>
          </Trackpoint>
          <Trackpoint>
            <Time>2022-07-16T09:09:58.000Z</Time>
            <Position>
              <LatitudeDegrees>43.42910134233534336090087890625</LatitudeDegrees>
              <LongitudeDegrees>-4.7834741882979869842529296875</LongitudeDegrees>
            </Position>
            <AltitudeMeters>14.80000019073486328125</AltitudeMeters>
            <DistanceMeters>NAN</DistanceMeters>
          </Trackpoint>
          <Trackpoint>
            <Time>2022-07-16T09:10:02.000Z</Time>
            <Position>
              <LatitudeDegrees>43.42912430875003337860107421875</LatitudeDegrees>
              <LongitudeDegrees>-4.7833625413477420806884765625</LongitudeDegrees>
            </Position>
            <AltitudeMeters>16</AltitudeMeters>
            <DistanceMeters>NAN</DistanceMeters>
          </Trackpoint>
          <Trackpoint>
            <Time>2022-07-16T09:10:04.000Z</Time>
            <Position>
              <LatitudeDegrees>43.42911894433200359344482421875</LatitudeDegrees>
              <LongitudeDegrees>-4.7833270020782947540283203125</LongitudeDegrees>
            </Position>
            <AltitudeMeters>16</AltitudeMeters>
            <DistanceMeters>NAN</DistanceMeters>
          </Trackpoint>
          <Trackpoint>
            <Time>2022-07-16T09:10:09.000Z</Time>
            <Position>
              <LatitudeDegrees>43.42912682332098484039306640625</LatitudeDegrees>
              <LongitudeDegrees>-4.7832291014492511749267578125</LongitudeDegrees>
            </Position>
            <AltitudeMeters>17</AltitudeMeters>
            <DistanceMeters>NAN</DistanceMeters>
          </Trackpoint>
          <Trackpoint>
            <Time>2022-07-16T09:10:10.000Z</Time>
            <Position>
              <LatitudeDegrees>43.42912062071263790130615234375</LatitudeDegrees>
              <LongitudeDegrees>-4.7832170315086841583251953125</LongitudeDegrees>
            </Position>
            <AltitudeMeters>17</AltitudeMeters>
            <DistanceMeters>NAN</DistanceMeters>
          </Trackpoint>
          <Trackpoint>
            <Time>2022-07-16T09:10:11.000Z</Time>
            <Position>
              <LatitudeDegrees>43.42911542393267154693603515625</LatitudeDegrees>
              <LongitudeDegrees>-4.7832061350345611572265625</LongitudeDegrees>
            </Position>
            <AltitudeMeters>17</AltitudeMeters>
            <DistanceMeters>NAN</DistanceMeters>
          </Trackpoint>
          <Trackpoint>
            <Time>2022-07-16T09:10:18.000Z</Time>
            <Position>
              <LatitudeDegrees>43.42907032929360866546630859375</LatitudeDegrees>
              <LongitudeDegrees>-4.7831084020435810089111328125</LongitudeDegrees>
            </Position>
            <AltitudeMeters>17.799999237060546875</AltitudeMeters>
            <DistanceMeters>NAN</DistanceMeters>
          </Trackpoint>
          <Trackpoint>
            <Time>2022-07-16T09:10:20.000Z</Time>
            <Position>
              <LatitudeDegrees>43.42905071564018726348876953125</LatitudeDegrees>
              <LongitudeDegrees>-4.78309339843690395355224609375</LongitudeDegrees>
            </Position>
            <AltitudeMeters>18</AltitudeMeters>
            <DistanceMeters>NAN</DistanceMeters>
          </Trackpoint>
          <Trackpoint>
            <Time>2022-07-16T09:10:23.000Z</Time>
            <Position>
              <LatitudeDegrees>43.4290189482271671295166015625</LatitudeDegrees>
              <LongitudeDegrees>-4.7830685041844844818115234375</LongitudeDegrees>
            </Position>
            <AltitudeMeters>18.200000762939453125</AltitudeMeters>
            <DistanceMeters>NAN</DistanceMeters>
          </Trackpoint>
          <Trackpoint>
            <Time>2022-07-16T09:10:25.000Z</Time>
            <Position>
              <LatitudeDegrees>43.4289988316595554351806640625</LatitudeDegrees>
              <LongitudeDegrees>-4.783058948814868927001953125</LongitudeDegrees>
            </Position>
            <AltitudeMeters>18.6000003814697265625</AltitudeMeters>
            <DistanceMeters>NAN</DistanceMeters>
          </Trackpoint>
          <Trackpoint>
            <Time>2022-07-16T09:10:26.000Z</Time>
            <Position>
              <LatitudeDegrees>43.42898927628993988037109375</LatitudeDegrees>
              <LongitudeDegrees>-4.78305668570101261138916015625</LongitudeDegrees>
            </Position>
            <AltitudeMeters>18.799999237060546875</AltitudeMeters>
            <DistanceMeters>NAN</DistanceMeters>
          </Trackpoint>
          <Trackpoint>
            <Time>2022-07-16T09:10:29.000Z</Time>
            <Position>
              <LatitudeDegrees>43.42895030044019222259521484375</LatitudeDegrees>
              <LongitudeDegrees>-4.78306221775710582733154296875</LongitudeDegrees>
            </Position>
            <AltitudeMeters>19</AltitudeMeters>
            <DistanceMeters>NAN</DistanceMeters>
          </Trackpoint>
          <Trackpoint>
            <Time>2022-07-16T09:10:31.000Z</Time>
            <Position>
              <LatitudeDegrees>43.4289307706058025360107421875</LatitudeDegrees>
              <LongitudeDegrees>-4.78305685333907604217529296875</LongitudeDegrees>
            </Position>
            <AltitudeMeters>19.200000762939453125</AltitudeMeters>
            <DistanceMeters>NAN</DistanceMeters>
          </Trackpoint>
          <Trackpoint>
            <Time>2022-07-16T09:10:38.000Z</Time>
            <Position>
              <LatitudeDegrees>43.428856842219829559326171875</LatitudeDegrees>
              <LongitudeDegrees>-4.78306925855576992034912109375</LongitudeDegrees>
            </Position>
            <AltitudeMeters>20.200000762939453125</AltitudeMeters>
            <DistanceMeters>NAN</DistanceMeters>
          </Trackpoint>
          <Trackpoint>
            <Time>2022-07-16T09:10:42.000Z</Time>
            <Position>
              <LatitudeDegrees>43.4288144297897815704345703125</LatitudeDegrees>
              <LongitudeDegrees>-4.78306054137647151947021484375</LongitudeDegrees>
            </Position>
            <AltitudeMeters>20.799999237060546875</AltitudeMeters>
            <DistanceMeters>NAN</DistanceMeters>
          </Trackpoint>
          <Trackpoint>
            <Time>2022-07-16T09:10:43.000Z</Time>
            <Position>
              <LatitudeDegrees>43.42880210839211940765380859375</LatitudeDegrees>
              <LongitudeDegrees>-4.78306305594742298126220703125</LongitudeDegrees>
            </Position>
            <AltitudeMeters>21</AltitudeMeters>
            <DistanceMeters>NAN</DistanceMeters>
          </Trackpoint>
          <Trackpoint>
            <Time>2022-07-16T09:10:44.000Z</Time>
            <Position>
              <LatitudeDegrees>43.42879104427993297576904296875</LatitudeDegrees>
              <LongitudeDegrees>-4.7830671630799770355224609375</LongitudeDegrees>
            </Position>
            <AltitudeMeters>21.200000762939453125</AltitudeMeters>
            <DistanceMeters>NAN</DistanceMeters>
          </Trackpoint>
          <Trackpoint>
            <Time>2022-07-16T09:10:45.000Z</Time>
            <Position>
              <LatitudeDegrees>43.42878031544387340545654296875</LatitudeDegrees>
              <LongitudeDegrees>-4.7830742038786411285400390625</LongitudeDegrees>
            </Position>
            <AltitudeMeters>21.3999996185302734375</AltitudeMeters>
            <DistanceMeters>NAN</DistanceMeters>
          </Trackpoint>
          <Trackpoint>
            <Time>2022-07-16T09:10:49.000Z</Time>
            <Position>
              <LatitudeDegrees>43.42873320914804935455322265625</LatitudeDegrees>
              <LongitudeDegrees>-4.78306288830935955047607421875</LongitudeDegrees>
            </Position>
            <AltitudeMeters>21.799999237060546875</AltitudeMeters>
            <DistanceMeters>NAN</DistanceMeters>
          </Trackpoint>
          <Trackpoint>
            <Time>2022-07-16T09:10:50.000Z</Time>
            <Position>
              <LatitudeDegrees>43.428721390664577484130859375</LatitudeDegrees>
              <LongitudeDegrees>-4.78306154720485210418701171875</LongitudeDegrees>
            </Position>
            <AltitudeMeters>22</AltitudeMeters>
            <DistanceMeters>NAN</DistanceMeters>
          </Trackpoint>
          <Trackpoint>
            <Time>2022-07-16T09:10:51.000Z</Time>
            <Position>
              <LatitudeDegrees>43.42871007509529590606689453125</LatitudeDegrees>
              <LongitudeDegrees>-4.78306087665259838104248046875</LongitudeDegrees>
            </Position>
            <AltitudeMeters>22.200000762939453125</AltitudeMeters>
            <DistanceMeters>NAN</DistanceMeters>
          </Trackpoint>
          <Trackpoint>
            <Time>2022-07-16T09:10:52.000Z</Time>
            <Position>
              <LatitudeDegrees>43.42869968153536319732666015625</LatitudeDegrees>
              <LongitudeDegrees>-4.78306037373840808868408203125</LongitudeDegrees>
            </Position>
            <AltitudeMeters>22.3999996185302734375</AltitudeMeters>
            <DistanceMeters>NAN</DistanceMeters>
          </Trackpoint>
          <Trackpoint>
            <Time>2022-07-16T09:10:54.000Z</Time>
            <Position>
              <LatitudeDegrees>43.42867973260581493377685546875</LatitudeDegrees>
              <LongitudeDegrees>-4.78305685333907604217529296875</LongitudeDegrees>
            </Position>
            <AltitudeMeters>22.799999237060546875</AltitudeMeters>
            <DistanceMeters>NAN</DistanceMeters>
          </Trackpoint>
          <Trackpoint>
            <Time>2022-07-16T09:10:55.000Z</Time>
            <Position>
              <LatitudeDegrees>43.42867269180715084075927734375</LatitudeDegrees>
              <LongitudeDegrees>-4.783052913844585418701171875</LongitudeDegrees>
            </Position>
            <AltitudeMeters>23</AltitudeMeters>
            <DistanceMeters>NAN</DistanceMeters>
          </Trackpoint>
          <Trackpoint>
            <Time>2022-07-16T09:10:57.000Z</Time>
            <Position>
              <LatitudeDegrees>43.42865710146725177764892578125</LatitudeDegrees>
              <LongitudeDegrees>-4.783037491142749786376953125</LongitudeDegrees>
            </Position>
            <AltitudeMeters>23.200000762939453125</AltitudeMeters>
            <DistanceMeters>NAN</DistanceMeters>
          </Trackpoint>
          <Trackpoint>
            <Time>2022-07-16T09:10:58.000Z</Time>
            <Position>
              <LatitudeDegrees>43.4286426007747650146484375</LatitudeDegrees>
              <LongitudeDegrees>-4.78303112089633941650390625</LongitudeDegrees>
            </Position>
            <AltitudeMeters>23.3999996185302734375</AltitudeMeters>
            <DistanceMeters>NAN</DistanceMeters>
          </Trackpoint>
          <Trackpoint>
            <Time>2022-07-16T09:10:59.000Z</Time>
            <Position>
              <LatitudeDegrees>43.4286296926438808441162109375</LatitudeDegrees>
              <LongitudeDegrees>-4.78302533738315105438232421875</LongitudeDegrees>
            </Position>
            <AltitudeMeters>23.799999237060546875</AltitudeMeters>
            <DistanceMeters>NAN</DistanceMeters>
          </Trackpoint>
          <Trackpoint>
            <Time>2022-07-16T09:11:00.000Z</Time>
            <Position>
              <LatitudeDegrees>43.42861854471266269683837890625</LatitudeDegrees>
              <LongitudeDegrees>-4.78302315808832645416259765625</LongitudeDegrees>
            </Position>
            <AltitudeMeters>24</AltitudeMeters>
            <DistanceMeters>NAN</DistanceMeters>
          </Trackpoint>
          <Trackpoint>
            <Time>2022-07-16T09:11:01.000Z</Time>
            <Position>
              <LatitudeDegrees>43.428608067333698272705078125</LatitudeDegrees>
              <LongitudeDegrees>-4.7830182127654552459716796875</LongitudeDegrees>
            </Position>
            <AltitudeMeters>24.200000762939453125</AltitudeMeters>
            <DistanceMeters>NAN</DistanceMeters>
          </Trackpoint>
          <Trackpoint>
            <Time>2022-07-16T09:11:03.000Z</Time>
            <Position>
              <LatitudeDegrees>43.4285840950906276702880859375</LatitudeDegrees>
              <LongitudeDegrees>-4.78301175870001316070556640625</LongitudeDegrees>
            </Position>
            <AltitudeMeters>24.3999996185302734375</AltitudeMeters>
            <DistanceMeters>NAN</DistanceMeters>
          </Trackpoint>
          <Trackpoint>
            <Time>2022-07-16T09:11:05.000Z</Time>
            <Position>
              <LatitudeDegrees>43.42855819500982761383056640625</LatitudeDegrees>
              <LongitudeDegrees>-4.783006645739078521728515625</LongitudeDegrees>
            </Position>
            <AltitudeMeters>24.6000003814697265625</AltitudeMeters>
            <DistanceMeters>NAN</DistanceMeters>
          </Trackpoint>
          <Trackpoint>
            <Time>2022-07-16T09:11:06.000Z</Time>
            <Position>
              <LatitudeDegrees>43.4285435266792774200439453125</LatitudeDegrees>
              <LongitudeDegrees>-4.78300069458782672882080078125</LongitudeDegrees>
            </Position>
            <AltitudeMeters>24.6000003814697265625</AltitudeMeters>
            <DistanceMeters>NAN</DistanceMeters>
          </Trackpoint>
          <Trackpoint>
            <Time>2022-07-16T09:11:14.000Z</Time>
            <Position>
              <LatitudeDegrees>43.428420983254909515380859375</LatitudeDegrees>
              <LongitudeDegrees>-4.78295476175844669342041015625</LongitudeDegrees>
            </Position>
            <AltitudeMeters>24.799999237060546875</AltitudeMeters>
            <DistanceMeters>NAN</DistanceMeters>
          </Trackpoint>
          <Trackpoint>
            <Time>2022-07-16T09:11:22.000Z</Time>
            <Position>
              <LatitudeDegrees>43.4282924048602581024169921875</LatitudeDegrees>
              <LongitudeDegrees>-4.7827858664095401763916015625</LongitudeDegrees>
            </Position>
            <AltitudeMeters>24.3999996185302734375</AltitudeMeters>
            <DistanceMeters>NAN</DistanceMeters>
          </Trackpoint>
          <Trackpoint>
            <Time>2022-07-16T09:11:28.000Z</Time>
            <Position>
              <LatitudeDegrees>43.4281864576041698455810546875</LatitudeDegrees>
              <LongitudeDegrees>-4.7826279513537883758544921875</LongitudeDegrees>
            </Position>
            <AltitudeMeters>24.200000762939453125</AltitudeMeters>
            <DistanceMeters>NAN</DistanceMeters>
          </Trackpoint>
          <Trackpoint>
            <Time>2022-07-16T09:11:31.000Z</Time>
            <Position>
              <LatitudeDegrees>43.4281334839761257171630859375</LatitudeDegrees>
              <LongitudeDegrees>-4.7825722955167293548583984375</LongitudeDegrees>
            </Position>
            <AltitudeMeters>24.200000762939453125</AltitudeMeters>
            <DistanceMeters>NAN</DistanceMeters>
          </Trackpoint>
          <Trackpoint>
            <Time>2022-07-16T09:11:34.000Z</Time>
            <Position>
              <LatitudeDegrees>43.42807640321552753448486328125</LatitudeDegrees>
              <LongitudeDegrees>-4.7825132869184017181396484375</LongitudeDegrees>
            </Position>
            <AltitudeMeters>24.200000762939453125</AltitudeMeters>
            <DistanceMeters>NAN</DistanceMeters>
          </Trackpoint>
          <Trackpoint>
            <Time>2022-07-16T09:11:35.000Z</Time>
            <Position>
              <LatitudeDegrees>43.42805410735309123992919921875</LatitudeDegrees>
              <LongitudeDegrees>-4.78249509818851947784423828125</LongitudeDegrees>
            </Position>
            <AltitudeMeters>24.200000762939453125</AltitudeMeters>
            <DistanceMeters>NAN</DistanceMeters>
          </Trackpoint>
          <Trackpoint>
            <Time>2022-07-16T09:11:37.000Z</Time>
            <Position>
              <LatitudeDegrees>43.42800213955342769622802734375</LatitudeDegrees>
              <LongitudeDegrees>-4.78245553560554981231689453125</LongitudeDegrees>
            </Position>
            <AltitudeMeters>24.200000762939453125</AltitudeMeters>
            <DistanceMeters>NAN</DistanceMeters>
          </Trackpoint>
          <Trackpoint>
            <Time>2022-07-16T09:11:39.000Z</Time>
            <Position>
              <LatitudeDegrees>43.4279514290392398834228515625</LatitudeDegrees>
              <LongitudeDegrees>-4.78242351673543453216552734375</LongitudeDegrees>
            </Position>
            <AltitudeMeters>24.200000762939453125</AltitudeMeters>
            <DistanceMeters>NAN</DistanceMeters>
          </Trackpoint>
          <Trackpoint>
            <Time>2022-07-16T09:11:40.000Z</Time>
            <Position>
              <LatitudeDegrees>43.42791974544525146484375</LatitudeDegrees>
              <LongitudeDegrees>-4.78241018950939178466796875</LongitudeDegrees>
            </Position>
            <AltitudeMeters>24</AltitudeMeters>
            <DistanceMeters>NAN</DistanceMeters>
          </Trackpoint>
          <Trackpoint>
            <Time>2022-07-16T09:11:42.000Z</Time>
            <Position>
              <LatitudeDegrees>43.4278582222759723663330078125</LatitudeDegrees>
              <LongitudeDegrees>-4.78238814510405063629150390625</LongitudeDegrees>
            </Position>
            <AltitudeMeters>23.799999237060546875</AltitudeMeters>
            <DistanceMeters>NAN</DistanceMeters>
          </Trackpoint>
          <Trackpoint>
            <Time>2022-07-16T09:11:44.000Z</Time>
            <Position>
              <LatitudeDegrees>43.4277968667447566986083984375</LatitudeDegrees>
              <LongitudeDegrees>-4.7823639214038848876953125</LongitudeDegrees>
            </Position>
            <AltitudeMeters>23.6000003814697265625</AltitudeMeters>
            <DistanceMeters>NAN</DistanceMeters>
          </Trackpoint>
          <Trackpoint>
            <Time>2022-07-16T09:11:52.000Z</Time>
            <Position>
              <LatitudeDegrees>43.42751406133174896240234375</LatitudeDegrees>
              <LongitudeDegrees>-4.78232167661190032958984375</LongitudeDegrees>
            </Position>
            <AltitudeMeters>23.200000762939453125</AltitudeMeters>
            <DistanceMeters>NAN</DistanceMeters>
          </Trackpoint>
          <Trackpoint>
            <Time>2022-07-16T09:11:57.000Z</Time>
            <Position>
              <LatitudeDegrees>43.42734633944928646087646484375</LatitudeDegrees>
              <LongitudeDegrees>-4.78235595859587192535400390625</LongitudeDegrees>
            </Position>
            <AltitudeMeters>22.6000003814697265625</AltitudeMeters>
            <DistanceMeters>NAN</DistanceMeters>
          </Trackpoint>
          <Trackpoint>
            <Time>2022-07-16T09:11:59.000Z</Time>
            <Position>
              <LatitudeDegrees>43.42728464864194393157958984375</LatitudeDegrees>
              <LongitudeDegrees>-4.78237926028668880462646484375</LongitudeDegrees>
            </Position>
            <AltitudeMeters>22.6000003814697265625</AltitudeMeters>
            <DistanceMeters>NAN</DistanceMeters>
          </Trackpoint>
          <Trackpoint>
            <Time>2022-07-16T09:12:07.000Z</Time>
            <Position>
              <LatitudeDegrees>43.427044339478015899658203125</LatitudeDegrees>
              <LongitudeDegrees>-4.78246115148067474365234375</LongitudeDegrees>
            </Position>
            <AltitudeMeters>22.200000762939453125</AltitudeMeters>
            <DistanceMeters>NAN</DistanceMeters>
          </Trackpoint>
          <Trackpoint>
            <Time>2022-07-16T09:12:15.000Z</Time>
            <Position>
              <LatitudeDegrees>43.4268192015588283538818359375</LatitudeDegrees>
              <LongitudeDegrees>-4.782485626637935638427734375</LongitudeDegrees>
            </Position>
            <AltitudeMeters>22.6000003814697265625</AltitudeMeters>
            <DistanceMeters>NAN</DistanceMeters>
          </Trackpoint>
          <Trackpoint>
            <Time>2022-07-16T09:12:18.000Z</Time>
            <Position>
              <LatitudeDegrees>43.426752649247646331787109375</LatitudeDegrees>
              <LongitudeDegrees>-4.78246861137449741363525390625</LongitudeDegrees>
            </Position>
            <AltitudeMeters>22.799999237060546875</AltitudeMeters>
            <DistanceMeters>NAN</DistanceMeters>
          </Trackpoint>
          <Trackpoint>
            <Time>2022-07-16T09:12:20.000Z</Time>
            <Position>
              <LatitudeDegrees>43.42671233229339122772216796875</LatitudeDegrees>
              <LongitudeDegrees>-4.78250163607299327850341796875</LongitudeDegrees>
            </Position>
            <AltitudeMeters>22.200000762939453125</AltitudeMeters>
            <DistanceMeters>NAN</DistanceMeters>
          </Trackpoint>
          <Trackpoint>
            <Time>2022-07-16T09:12:21.000Z</Time>
            <Position>
              <LatitudeDegrees>43.42670001089572906494140625</LatitudeDegrees>
              <LongitudeDegrees>-4.782529212534427642822265625</LongitudeDegrees>
            </Position>
            <AltitudeMeters>22</AltitudeMeters>
            <DistanceMeters>NAN</DistanceMeters>
          </Trackpoint>
          <Trackpoint>
            <Time>2022-07-16T09:12:25.000Z</Time>
            <Position>
              <LatitudeDegrees>43.42668567784130573272705078125</LatitudeDegrees>
              <LongitudeDegrees>-4.7826497443020343780517578125</LongitudeDegrees>
            </Position>
            <AltitudeMeters>22.3999996185302734375</AltitudeMeters>
            <DistanceMeters>NAN</DistanceMeters>
          </Trackpoint>
          <Trackpoint>
            <Time>2022-07-16T09:12:28.000Z</Time>
            <Position>
              <LatitudeDegrees>43.42667863704264163970947265625</LatitudeDegrees>
              <LongitudeDegrees>-4.78273297660052776336669921875</LongitudeDegrees>
            </Position>
            <AltitudeMeters>22.3999996185302734375</AltitudeMeters>
            <DistanceMeters>NAN</DistanceMeters>
          </Trackpoint>
          <Trackpoint>
            <Time>2022-07-16T09:12:31.000Z</Time>
            <Position>
              <LatitudeDegrees>43.42665198259055614471435546875</LatitudeDegrees>
              <LongitudeDegrees>-4.78281226940453052520751953125</LongitudeDegrees>
            </Position>
            <AltitudeMeters>22.799999237060546875</AltitudeMeters>
            <DistanceMeters>NAN</DistanceMeters>
          </Trackpoint>
          <Trackpoint>
            <Time>2022-07-16T09:12:33.000Z</Time>
            <Position>
              <LatitudeDegrees>43.42663303948938846588134765625</LatitudeDegrees>
              <LongitudeDegrees>-4.7828708589076995849609375</LongitudeDegrees>
            </Position>
            <AltitudeMeters>22.799999237060546875</AltitudeMeters>
            <DistanceMeters>NAN</DistanceMeters>
          </Trackpoint>
          <Trackpoint>
            <Time>2022-07-16T09:12:44.000Z</Time>
            <Position>
              <LatitudeDegrees>43.4265558421611785888671875</LatitudeDegrees>
              <LongitudeDegrees>-4.7831650637090206146240234375</LongitudeDegrees>
            </Position>
            <AltitudeMeters>23.3999996185302734375</AltitudeMeters>
            <DistanceMeters>NAN</DistanceMeters>
          </Trackpoint>
          <Trackpoint>
            <Time>2022-07-16T09:12:46.000Z</Time>
            <Position>
              <LatitudeDegrees>43.42654670588672161102294921875</LatitudeDegrees>
              <LongitudeDegrees>-4.783207811415195465087890625</LongitudeDegrees>
            </Position>
            <AltitudeMeters>23.799999237060546875</AltitudeMeters>
            <DistanceMeters>NAN</DistanceMeters>
          </Trackpoint>
          <Trackpoint>
            <Time>2022-07-16T09:12:51.000Z</Time>
            <Position>
              <LatitudeDegrees>43.4265033714473247528076171875</LatitudeDegrees>
              <LongitudeDegrees>-4.7832968272268772125244140625</LongitudeDegrees>
            </Position>
            <AltitudeMeters>25</AltitudeMeters>
            <DistanceMeters>NAN</DistanceMeters>
          </Trackpoint>
          <Trackpoint>
            <Time>2022-07-16T09:12:59.000Z</Time>
            <Position>
              <LatitudeDegrees>43.42642776668071746826171875</LatitudeDegrees>
              <LongitudeDegrees>-4.78343345224857330322265625</LongitudeDegrees>
            </Position>
            <AltitudeMeters>25.3999996185302734375</AltitudeMeters>
            <DistanceMeters>NAN</DistanceMeters>
          </Trackpoint>
          <Trackpoint>
            <Time>2022-07-16T09:13:01.000Z</Time>
            <Position>
              <LatitudeDegrees>43.42640840448439121246337890625</LatitudeDegrees>
              <LongitudeDegrees>-4.78346991352736949920654296875</LongitudeDegrees>
            </Position>
            <AltitudeMeters>25.6000003814697265625</AltitudeMeters>
            <DistanceMeters>NAN</DistanceMeters>
          </Trackpoint>
          <Trackpoint>
            <Time>2022-07-16T09:13:06.000Z</Time>
            <Position>
              <LatitudeDegrees>43.4263524971902370452880859375</LatitudeDegrees>
              <LongitudeDegrees>-4.783561863005161285400390625</LongitudeDegrees>
            </Position>
            <AltitudeMeters>26</AltitudeMeters>
            <DistanceMeters>NAN</DistanceMeters>
          </Trackpoint>
          <Trackpoint>
            <Time>2022-07-16T09:13:07.000Z</Time>
            <Position>
              <LatitudeDegrees>43.42634486965835094451904296875</LatitudeDegrees>
              <LongitudeDegrees>-4.7835801355540752410888671875</LongitudeDegrees>
            </Position>
            <AltitudeMeters>26</AltitudeMeters>
            <DistanceMeters>NAN</DistanceMeters>
          </Trackpoint>
          <Trackpoint>
            <Time>2022-07-16T09:13:08.000Z</Time>
            <Position>
              <LatitudeDegrees>43.42633916996419429779052734375</LatitudeDegrees>
              <LongitudeDegrees>-4.7835992462933063507080078125</LongitudeDegrees>
            </Position>
            <AltitudeMeters>26</AltitudeMeters>
            <DistanceMeters>NAN</DistanceMeters>
          </Trackpoint>
          <Trackpoint>
            <Time>2022-07-16T09:13:11.000Z</Time>
            <Position>
              <LatitudeDegrees>43.42631670646369457244873046875</LatitudeDegrees>
              <LongitudeDegrees>-4.78368516080081462860107421875</LongitudeDegrees>
            </Position>
            <AltitudeMeters>26</AltitudeMeters>
            <DistanceMeters>NAN</DistanceMeters>
          </Trackpoint>
          <Trackpoint>
            <Time>2022-07-16T09:13:18.000Z</Time>
            <Position>
              <LatitudeDegrees>43.426271192729473114013671875</LatitudeDegrees>
              <LongitudeDegrees>-4.78392220102250576019287109375</LongitudeDegrees>
            </Position>
            <AltitudeMeters>25.6000003814697265625</AltitudeMeters>
            <DistanceMeters>NAN</DistanceMeters>
          </Trackpoint>
          <Trackpoint>
            <Time>2022-07-16T09:13:22.000Z</Time>
            <Position>
              <LatitudeDegrees>43.42620304785668849945068359375</LatitudeDegrees>
              <LongitudeDegrees>-4.7840776853263378143310546875</LongitudeDegrees>
            </Position>
            <AltitudeMeters>25.200000762939453125</AltitudeMeters>
            <DistanceMeters>NAN</DistanceMeters>
          </Trackpoint>
          <Trackpoint>
            <Time>2022-07-16T09:13:25.000Z</Time>
            <Position>
              <LatitudeDegrees>43.426188714802265167236328125</LatitudeDegrees>
              <LongitudeDegrees>-4.7842107899487018585205078125</LongitudeDegrees>
            </Position>
            <AltitudeMeters>25.200000762939453125</AltitudeMeters>
            <DistanceMeters>NAN</DistanceMeters>
          </Trackpoint>
          <Trackpoint>
            <Time>2022-07-16T09:13:29.000Z</Time>
            <Position>
              <LatitudeDegrees>43.4262096695601940155029296875</LatitudeDegrees>
              <LongitudeDegrees>-4.7844136320054531097412109375</LongitudeDegrees>
            </Position>
            <AltitudeMeters>25</AltitudeMeters>
            <DistanceMeters>NAN</DistanceMeters>
          </Trackpoint>
          <Trackpoint>
            <Time>2022-07-16T09:13:31.000Z</Time>
            <Position>
              <LatitudeDegrees>43.4262056462466716766357421875</LatitudeDegrees>
              <LongitudeDegrees>-4.78454682044684886932373046875</LongitudeDegrees>
            </Position>
            <AltitudeMeters>24.6000003814697265625</AltitudeMeters>
            <DistanceMeters>NAN</DistanceMeters>
          </Trackpoint>
          <Trackpoint>
            <Time>2022-07-16T09:13:35.000Z</Time>
            <Position>
              <LatitudeDegrees>43.42618645168840885162353515625</LatitudeDegrees>
              <LongitudeDegrees>-4.7847591340541839599609375</LongitudeDegrees>
            </Position>
            <AltitudeMeters>23.799999237060546875</AltitudeMeters>
            <DistanceMeters>NAN</DistanceMeters>
          </Trackpoint>
          <Trackpoint>
            <Time>2022-07-16T09:13:36.000Z</Time>
            <Position>
              <LatitudeDegrees>43.426175974309444427490234375</LatitudeDegrees>
              <LongitudeDegrees>-4.7847951762378215789794921875</LongitudeDegrees>
            </Position>
            <AltitudeMeters>23.3999996185302734375</AltitudeMeters>
            <DistanceMeters>NAN</DistanceMeters>
          </Trackpoint>
          <Trackpoint>
            <Time>2022-07-16T09:13:40.000Z</Time>
            <Position>
              <LatitudeDegrees>43.4261084161698818206787109375</LatitudeDegrees>
              <LongitudeDegrees>-4.7848665900528430938720703125</LongitudeDegrees>
            </Position>
            <AltitudeMeters>23</AltitudeMeters>
            <DistanceMeters>NAN</DistanceMeters>
          </Trackpoint>
          <Trackpoint>
            <Time>2022-07-16T09:13:41.000Z</Time>
            <Position>
              <LatitudeDegrees>43.42608402483165264129638671875</LatitudeDegrees>
              <LongitudeDegrees>-4.78487321175634860992431640625</LongitudeDegrees>
            </Position>
            <AltitudeMeters>22.799999237060546875</AltitudeMeters>
            <DistanceMeters>NAN</DistanceMeters>
          </Trackpoint>
          <Trackpoint>
            <Time>2022-07-16T09:13:47.000Z</Time>
            <Position>
              <LatitudeDegrees>43.42592828907072544097900390625</LatitudeDegrees>
              <LongitudeDegrees>-4.7849031351506710052490234375</LongitudeDegrees>
            </Position>
            <AltitudeMeters>22.799999237060546875</AltitudeMeters>
            <DistanceMeters>NAN</DistanceMeters>
          </Trackpoint>
          <Trackpoint>
            <Time>2022-07-16T09:13:48.000Z</Time>
            <Position>
              <LatitudeDegrees>43.42590783722698688507080078125</LatitudeDegrees>
              <LongitudeDegrees>-4.7849091701209545135498046875</LongitudeDegrees>
            </Position>
            <AltitudeMeters>22.799999237060546875</AltitudeMeters>
            <DistanceMeters>NAN</DistanceMeters>
          </Trackpoint>
          <Trackpoint>
            <Time>2022-07-16T09:13:54.000Z</Time>
            <Position>
              <LatitudeDegrees>43.4257753193378448486328125</LatitudeDegrees>
              <LongitudeDegrees>-4.78489835746586322784423828125</LongitudeDegrees>
            </Position>
            <AltitudeMeters>23</AltitudeMeters>
            <DistanceMeters>NAN</DistanceMeters>
          </Trackpoint>
          <Trackpoint>
            <Time>2022-07-16T09:13:57.000Z</Time>
            <Position>
              <LatitudeDegrees>43.42573081143200397491455078125</LatitudeDegrees>
              <LongitudeDegrees>-4.7848878800868988037109375</LongitudeDegrees>
            </Position>
            <AltitudeMeters>23.3999996185302734375</AltitudeMeters>
            <DistanceMeters>NAN</DistanceMeters>
          </Trackpoint>
          <Trackpoint>
            <Time>2022-07-16T09:14:01.000Z</Time>
            <Position>
              <LatitudeDegrees>43.425674401223659515380859375</LatitudeDegrees>
              <LongitudeDegrees>-4.78488494642078876495361328125</LongitudeDegrees>
            </Position>
            <AltitudeMeters>24</AltitudeMeters>
            <DistanceMeters>NAN</DistanceMeters>
          </Trackpoint>
          <Trackpoint>
            <Time>2022-07-16T09:14:02.000Z</Time>
            <Position>
              <LatitudeDegrees>43.425667695701122283935546875</LatitudeDegrees>
              <LongitudeDegrees>-4.784884862601757049560546875</LongitudeDegrees>
            </Position>
            <AltitudeMeters>24.200000762939453125</AltitudeMeters>
            <DistanceMeters>NAN</DistanceMeters>
          </Trackpoint>
          <Trackpoint>
            <Time>2022-07-16T09:14:06.000Z</Time>
            <Position>
              <LatitudeDegrees>43.42562218196690082550048828125</LatitudeDegrees>
              <LongitudeDegrees>-4.78492702357470989227294921875</LongitudeDegrees>
            </Position>
            <AltitudeMeters>24.6000003814697265625</AltitudeMeters>
            <DistanceMeters>NAN</DistanceMeters>
          </Trackpoint>
          <Trackpoint>
            <Time>2022-07-16T09:14:07.000Z</Time>
            <Position>
              <LatitudeDegrees>43.42561229132115840911865234375</LatitudeDegrees>
              <LongitudeDegrees>-4.7849416919052600860595703125</LongitudeDegrees>
            </Position>
            <AltitudeMeters>24.799999237060546875</AltitudeMeters>
            <DistanceMeters>NAN</DistanceMeters>
          </Trackpoint>
          <Trackpoint>
            <Time>2022-07-16T09:14:08.000Z</Time>
            <Position>
              <LatitudeDegrees>43.42560390941798686981201171875</LatitudeDegrees>
              <LongitudeDegrees>-4.7849591262638568878173828125</LongitudeDegrees>
            </Position>
            <AltitudeMeters>25</AltitudeMeters>
            <DistanceMeters>NAN</DistanceMeters>
          </Trackpoint>
          <Trackpoint>
            <Time>2022-07-16T09:14:12.000Z</Time>
            <Position>
              <LatitudeDegrees>43.4255687892436981201171875</LatitudeDegrees>
              <LongitudeDegrees>-4.785004891455173492431640625</LongitudeDegrees>
            </Position>
            <AltitudeMeters>26</AltitudeMeters>
            <DistanceMeters>NAN</DistanceMeters>
          </Trackpoint>
          <Trackpoint>
            <Time>2022-07-16T09:14:13.000Z</Time>
            <Position>
              <LatitudeDegrees>43.4255605749785900115966796875</LatitudeDegrees>
              <LongitudeDegrees>-4.78501729667186737060546875</LongitudeDegrees>
            </Position>
            <AltitudeMeters>26.200000762939453125</AltitudeMeters>
            <DistanceMeters>NAN</DistanceMeters>
          </Trackpoint>
          <Trackpoint>
            <Time>2022-07-16T09:14:18.000Z</Time>
            <Position>
              <LatitudeDegrees>43.42552964575588703155517578125</LatitudeDegrees>
              <LongitudeDegrees>-4.78511695750057697296142578125</LongitudeDegrees>
            </Position>
            <AltitudeMeters>26.799999237060546875</AltitudeMeters>
            <DistanceMeters>NAN</DistanceMeters>
          </Trackpoint>
          <Trackpoint>
            <Time>2022-07-16T09:14:20.000Z</Time>
            <Position>
              <LatitudeDegrees>43.42552327550947666168212890625</LatitudeDegrees>
              <LongitudeDegrees>-4.78516540490090847015380859375</LongitudeDegrees>
            </Position>
            <AltitudeMeters>26.799999237060546875</AltitudeMeters>
            <DistanceMeters>NAN</DistanceMeters>
          </Trackpoint>
          <Trackpoint>
            <Time>2022-07-16T09:14:24.000Z</Time>
            <Position>
              <LatitudeDegrees>43.42552118003368377685546875</LatitudeDegrees>
              <LongitudeDegrees>-4.78526464663445949554443359375</LongitudeDegrees>
            </Position>
            <AltitudeMeters>27</AltitudeMeters>
            <DistanceMeters>NAN</DistanceMeters>
          </Trackpoint>
          <Trackpoint>
            <Time>2022-07-16T09:14:25.000Z</Time>
            <Position>
              <LatitudeDegrees>43.42552118003368377685546875</LatitudeDegrees>
              <LongitudeDegrees>-4.78528643958270549774169921875</LongitudeDegrees>
            </Position>
            <AltitudeMeters>27</AltitudeMeters>
            <DistanceMeters>NAN</DistanceMeters>
          </Trackpoint>
          <Trackpoint>
            <Time>2022-07-16T09:14:27.000Z</Time>
            <Position>
              <LatitudeDegrees>43.4255151450634002685546875</LatitudeDegrees>
              <LongitudeDegrees>-4.7853359766304492950439453125</LongitudeDegrees>
            </Position>
            <AltitudeMeters>27</AltitudeMeters>
            <DistanceMeters>NAN</DistanceMeters>
          </Trackpoint>
          <Trackpoint>
            <Time>2022-07-16T09:14:30.000Z</Time>
            <Position>
              <LatitudeDegrees>43.42550148256123065948486328125</LatitudeDegrees>
              <LongitudeDegrees>-4.785417616367340087890625</LongitudeDegrees>
            </Position>
            <AltitudeMeters>27.200000762939453125</AltitudeMeters>
            <DistanceMeters>NAN</DistanceMeters>
          </Trackpoint>
          <Trackpoint>
            <Time>2022-07-16T09:14:36.000Z</Time>
            <Position>
              <LatitudeDegrees>43.42542151920497417449951171875</LatitudeDegrees>
              <LongitudeDegrees>-4.7855428420007228851318359375</LongitudeDegrees>
            </Position>
            <AltitudeMeters>27.3999996185302734375</AltitudeMeters>
            <DistanceMeters>NAN</DistanceMeters>
          </Trackpoint>
          <Trackpoint>
            <Time>2022-07-16T09:14:42.000Z</Time>
            <Position>
              <LatitudeDegrees>43.425274081528186798095703125</LatitudeDegrees>
              <LongitudeDegrees>-4.7856202907860279083251953125</LongitudeDegrees>
            </Position>
            <AltitudeMeters>26.799999237060546875</AltitudeMeters>
            <DistanceMeters>NAN</DistanceMeters>
          </Trackpoint>
          <Trackpoint>
            <Time>2022-07-16T09:14:47.000Z</Time>
            <Position>
              <LatitudeDegrees>43.42508708126842975616455078125</LatitudeDegrees>
              <LongitudeDegrees>-4.78557142429053783416748046875</LongitudeDegrees>
            </Position>
            <AltitudeMeters>26.799999237060546875</AltitudeMeters>
            <DistanceMeters>NAN</DistanceMeters>
          </Trackpoint>
          <Trackpoint>
            <Time>2022-07-16T09:14:49.000Z</Time>
            <Position>
              <LatitudeDegrees>43.425005190074443817138671875</LatitudeDegrees>
              <LongitudeDegrees>-4.78559665381908416748046875</LongitudeDegrees>
            </Position>
            <AltitudeMeters>26.3999996185302734375</AltitudeMeters>
            <DistanceMeters>NAN</DistanceMeters>
          </Trackpoint>
          <Trackpoint>
            <Time>2022-07-16T09:14:50.000Z</Time>
            <Position>
              <LatitudeDegrees>43.42496931552886962890625</LatitudeDegrees>
              <LongitudeDegrees>-4.78562640957534313201904296875</LongitudeDegrees>
            </Position>
            <AltitudeMeters>26.200000762939453125</AltitudeMeters>
            <DistanceMeters>NAN</DistanceMeters>
          </Trackpoint>
          <Trackpoint>
            <Time>2022-07-16T09:14:51.000Z</Time>
            <Position>
              <LatitudeDegrees>43.42493302188813686370849609375</LatitudeDegrees>
              <LongitudeDegrees>-4.78565591387450695037841796875</LongitudeDegrees>
            </Position>
            <AltitudeMeters>25.6000003814697265625</AltitudeMeters>
            <DistanceMeters>NAN</DistanceMeters>
          </Trackpoint>
          <Trackpoint>
            <Time>2022-07-16T09:14:54.000Z</Time>
            <Position>
              <LatitudeDegrees>43.42483646236360073089599609375</LatitudeDegrees>
              <LongitudeDegrees>-4.78571592830121517181396484375</LongitudeDegrees>
            </Position>
            <AltitudeMeters>24.799999237060546875</AltitudeMeters>
            <DistanceMeters>NAN</DistanceMeters>
          </Trackpoint>
          <Trackpoint>
            <Time>2022-07-16T09:14:57.000Z</Time>
            <Position>
              <LatitudeDegrees>43.4247475303709506988525390625</LatitudeDegrees>
              <LongitudeDegrees>-4.78580653667449951171875</LongitudeDegrees>
            </Position>
            <AltitudeMeters>23.799999237060546875</AltitudeMeters>
            <DistanceMeters>NAN</DistanceMeters>
          </Trackpoint>
          <Trackpoint>
            <Time>2022-07-16T09:15:00.000Z</Time>
            <Position>
              <LatitudeDegrees>43.4246533177793025970458984375</LatitudeDegrees>
              <LongitudeDegrees>-4.7858891822397708892822265625</LongitudeDegrees>
            </Position>
            <AltitudeMeters>22.6000003814697265625</AltitudeMeters>
            <DistanceMeters>NAN</DistanceMeters>
          </Trackpoint>
          <Trackpoint>
            <Time>2022-07-16T09:15:02.000Z</Time>
            <Position>
              <LatitudeDegrees>43.4246053732931613922119140625</LatitudeDegrees>
              <LongitudeDegrees>-4.78592061437666416168212890625</LongitudeDegrees>
            </Position>
            <AltitudeMeters>21.3999996185302734375</AltitudeMeters>
            <DistanceMeters>NAN</DistanceMeters>
          </Trackpoint>
          <Trackpoint>
            <Time>2022-07-16T09:15:03.000Z</Time>
            <Position>
              <LatitudeDegrees>43.42457796446979045867919921875</LatitudeDegrees>
              <LongitudeDegrees>-4.7859381325542926788330078125</LongitudeDegrees>
            </Position>
            <AltitudeMeters>20.799999237060546875</AltitudeMeters>
            <DistanceMeters>NAN</DistanceMeters>
          </Trackpoint>
          <Trackpoint>
            <Time>2022-07-16T09:15:04.000Z</Time>
            <Position>
              <LatitudeDegrees>43.42455667443573474884033203125</LatitudeDegrees>
              <LongitudeDegrees>-4.78595280088484287261962890625</LongitudeDegrees>
            </Position>
            <AltitudeMeters>20</AltitudeMeters>
            <DistanceMeters>NAN</DistanceMeters>
          </Trackpoint>
          <Trackpoint>
            <Time>2022-07-16T09:15:05.000Z</Time>
            <Position>
              <LatitudeDegrees>43.42454326339066028594970703125</LatitudeDegrees>
              <LongitudeDegrees>-4.7859740070998668670654296875</LongitudeDegrees>
            </Position>
            <AltitudeMeters>19.200000762939453125</AltitudeMeters>
            <DistanceMeters>NAN</DistanceMeters>
          </Trackpoint>
          <Trackpoint>
            <Time>2022-07-16T09:15:06.000Z</Time>
            <Position>
              <LatitudeDegrees>43.42454276047646999359130859375</LatitudeDegrees>
              <LongitudeDegrees>-4.7859971411526203155517578125</LongitudeDegrees>
            </Position>
            <AltitudeMeters>18.6000003814697265625</AltitudeMeters>
            <DistanceMeters>NAN</DistanceMeters>
          </Trackpoint>
          <Trackpoint>
            <Time>2022-07-16T09:15:09.000Z</Time>
            <Position>
              <LatitudeDegrees>43.42461400665342807769775390625</LatitudeDegrees>
              <LongitudeDegrees>-4.7860182635486125946044921875</LongitudeDegrees>
            </Position>
            <AltitudeMeters>17.799999237060546875</AltitudeMeters>
            <DistanceMeters>NAN</DistanceMeters>
          </Trackpoint>
          <Trackpoint>
            <Time>2022-07-16T09:15:10.000Z</Time>
            <Position>
              <LatitudeDegrees>43.424650467932224273681640625</LatitudeDegrees>
              <LongitudeDegrees>-4.786018431186676025390625</LongitudeDegrees>
            </Position>
            <AltitudeMeters>17.6000003814697265625</AltitudeMeters>
            <DistanceMeters>NAN</DistanceMeters>
          </Trackpoint>
          <Trackpoint>
            <Time>2022-07-16T09:15:14.000Z</Time>
            <Position>
              <LatitudeDegrees>43.4248112328350543975830078125</LatitudeDegrees>
              <LongitudeDegrees>-4.7860038466751575469970703125</LongitudeDegrees>
            </Position>
            <AltitudeMeters>16.6000003814697265625</AltitudeMeters>
            <DistanceMeters>NAN</DistanceMeters>
          </Trackpoint>
          <Trackpoint>
            <Time>2022-07-16T09:15:15.000Z</Time>
            <Position>
              <LatitudeDegrees>43.42485104687511920928955078125</LatitudeDegrees>
              <LongitudeDegrees>-4.78600309230387210845947265625</LongitudeDegrees>
            </Position>
            <AltitudeMeters>16.200000762939453125</AltitudeMeters>
            <DistanceMeters>NAN</DistanceMeters>
          </Trackpoint>
          <Trackpoint>
            <Time>2022-07-16T09:15:17.000Z</Time>
            <Position>
              <LatitudeDegrees>43.4249084629118442535400390625</LatitudeDegrees>
              <LongitudeDegrees>-4.7860182635486125946044921875</LongitudeDegrees>
            </Position>
            <AltitudeMeters>15</AltitudeMeters>
            <DistanceMeters>NAN</DistanceMeters>
          </Trackpoint>
          <Trackpoint>
            <Time>2022-07-16T09:15:18.000Z</Time>
            <Position>
              <LatitudeDegrees>43.42492832802236080169677734375</LatitudeDegrees>
              <LongitudeDegrees>-4.786039553582668304443359375</LongitudeDegrees>
            </Position>
            <AltitudeMeters>14.3999996185302734375</AltitudeMeters>
            <DistanceMeters>NAN</DistanceMeters>
          </Trackpoint>
          <Trackpoint>
            <Time>2022-07-16T09:15:19.000Z</Time>
            <Position>
              <LatitudeDegrees>43.4249406494200229644775390625</LatitudeDegrees>
              <LongitudeDegrees>-4.7860760986804962158203125</LongitudeDegrees>
            </Position>
            <AltitudeMeters>13.80000019073486328125</AltitudeMeters>
            <DistanceMeters>NAN</DistanceMeters>
          </Trackpoint>
          <Trackpoint>
            <Time>2022-07-16T09:15:22.000Z</Time>
            <Position>
              <LatitudeDegrees>43.42496755532920360565185546875</LatitudeDegrees>
              <LongitudeDegrees>-4.78620358742773532867431640625</LongitudeDegrees>
            </Position>
            <AltitudeMeters>13.19999980926513671875</AltitudeMeters>
            <DistanceMeters>NAN</DistanceMeters>
          </Trackpoint>
          <Trackpoint>
            <Time>2022-07-16T09:15:23.000Z</Time>
            <Position>
              <LatitudeDegrees>43.4249792061746120452880859375</LatitudeDegrees>
              <LongitudeDegrees>-4.78622697293758392333984375</LongitudeDegrees>
            </Position>
            <AltitudeMeters>13.19999980926513671875</AltitudeMeters>
            <DistanceMeters>NAN</DistanceMeters>
          </Trackpoint>
          <Trackpoint>
            <Time>2022-07-16T09:15:25.000Z</Time>
            <Position>
              <LatitudeDegrees>43.42499890364706516265869140625</LatitudeDegrees>
              <LongitudeDegrees>-4.7862599976360797882080078125</LongitudeDegrees>
            </Position>
            <AltitudeMeters>13.3999996185302734375</AltitudeMeters>
            <DistanceMeters>NAN</DistanceMeters>
          </Trackpoint>
          <Trackpoint>
            <Time>2022-07-16T09:15:32.000Z</Time>
            <Position>
              <LatitudeDegrees>43.4250779449939727783203125</LatitudeDegrees>
              <LongitudeDegrees>-4.7863458283245563507080078125</LongitudeDegrees>
            </Position>
            <AltitudeMeters>13.6000003814697265625</AltitudeMeters>
            <DistanceMeters>NAN</DistanceMeters>
          </Trackpoint>
          <Trackpoint>
            <Time>2022-07-16T09:15:38.000Z</Time>
            <Position>
              <LatitudeDegrees>43.4251263923943042755126953125</LatitudeDegrees>
              <LongitudeDegrees>-4.78641179390251636505126953125</LongitudeDegrees>
            </Position>
            <AltitudeMeters>13.80000019073486328125</AltitudeMeters>
            <DistanceMeters>NAN</DistanceMeters>
          </Trackpoint>
          <Trackpoint>
            <Time>2022-07-16T09:15:39.000Z</Time>
            <Position>
              <LatitudeDegrees>43.42512865550816059112548828125</LatitudeDegrees>
              <LongitudeDegrees>-4.7864118777215480804443359375</LongitudeDegrees>
            </Position>
            <AltitudeMeters>13.80000019073486328125</AltitudeMeters>
            <DistanceMeters>NAN</DistanceMeters>
          </Trackpoint>
          <Trackpoint>
            <Time>2022-07-16T09:16:29.000Z</Time>
            <Position>
              <LatitudeDegrees>43.42522119171917438507080078125</LatitudeDegrees>
              <LongitudeDegrees>-4.7864896617829799652099609375</LongitudeDegrees>
            </Position>
            <AltitudeMeters>14.19999980926513671875</AltitudeMeters>
            <DistanceMeters>NAN</DistanceMeters>
          </Trackpoint>
          <Trackpoint>
            <Time>2022-07-16T09:16:30.000Z</Time>
            <Position>
              <LatitudeDegrees>43.42523292638361454010009765625</LatitudeDegrees>
              <LongitudeDegrees>-4.78649443946778774261474609375</LongitudeDegrees>
            </Position>
            <AltitudeMeters>14.3999996185302734375</AltitudeMeters>
            <DistanceMeters>NAN</DistanceMeters>
          </Trackpoint>
          <Trackpoint>
            <Time>2022-07-16T09:16:31.000Z</Time>
            <Position>
              <LatitudeDegrees>43.42524357140064239501953125</LatitudeDegrees>
              <LongitudeDegrees>-4.7865030728280544281005859375</LongitudeDegrees>
            </Position>
            <AltitudeMeters>14.80000019073486328125</AltitudeMeters>
            <DistanceMeters>NAN</DistanceMeters>
          </Trackpoint>
          <Trackpoint>
            <Time>2022-07-16T09:16:32.000Z</Time>
            <Position>
              <LatitudeDegrees>43.4252511151134967803955078125</LatitudeDegrees>
              <LongitudeDegrees>-4.7865117900073528289794921875</LongitudeDegrees>
            </Position>
            <AltitudeMeters>15</AltitudeMeters>
            <DistanceMeters>NAN</DistanceMeters>
          </Trackpoint>
          <Trackpoint>
            <Time>2022-07-16T09:16:33.000Z</Time>
            <Position>
              <LatitudeDegrees>43.42525941319763660430908203125</LatitudeDegrees>
              <LongitudeDegrees>-4.78651606477797031402587890625</LongitudeDegrees>
            </Position>
            <AltitudeMeters>15.19999980926513671875</AltitudeMeters>
            <DistanceMeters>NAN</DistanceMeters>
          </Trackpoint>
          <Trackpoint>
            <Time>2022-07-16T09:16:37.000Z</Time>
            <Position>
              <LatitudeDegrees>43.42530115507543087005615234375</LatitudeDegrees>
              <LongitudeDegrees>-4.78652846999466419219970703125</LongitudeDegrees>
            </Position>
            <AltitudeMeters>16.200000762939453125</AltitudeMeters>
            <DistanceMeters>NAN</DistanceMeters>
          </Trackpoint>
          <Trackpoint>
            <Time>2022-07-16T09:16:38.000Z</Time>
            <Position>
              <LatitudeDegrees>43.42531003989279270172119140625</LatitudeDegrees>
              <LongitudeDegrees>-4.7865307331085205078125</LongitudeDegrees>
            </Position>
            <AltitudeMeters>16.6000003814697265625</AltitudeMeters>
            <DistanceMeters>NAN</DistanceMeters>
          </Trackpoint>
          <Trackpoint>
            <Time>2022-07-16T09:16:41.000Z</Time>
            <Position>
              <LatitudeDegrees>43.4253386221826076507568359375</LatitudeDegrees>
              <LongitudeDegrees>-4.78653299622237682342529296875</LongitudeDegrees>
            </Position>
            <AltitudeMeters>17.3999996185302734375</AltitudeMeters>
            <DistanceMeters>NAN</DistanceMeters>
          </Trackpoint>
          <Trackpoint>
            <Time>2022-07-16T09:16:44.000Z</Time>
            <Position>
              <LatitudeDegrees>43.42536066658794879913330078125</LatitudeDegrees>
              <LongitudeDegrees>-4.786521010100841522216796875</LongitudeDegrees>
            </Position>
            <AltitudeMeters>18</AltitudeMeters>
            <DistanceMeters>NAN</DistanceMeters>
          </Trackpoint>
          <Trackpoint>
            <Time>2022-07-16T09:16:45.000Z</Time>
            <Position>
              <LatitudeDegrees>43.425368629395961761474609375</LatitudeDegrees>
              <LongitudeDegrees>-4.78651371784508228302001953125</LongitudeDegrees>
            </Position>
            <AltitudeMeters>18.3999996185302734375</AltitudeMeters>
            <DistanceMeters>NAN</DistanceMeters>
          </Trackpoint>
          <Trackpoint>
            <Time>2022-07-16T09:16:46.000Z</Time>
            <Position>
              <LatitudeDegrees>43.42537558637559413909912109375</LatitudeDegrees>
              <LongitudeDegrees>-4.7865057550370693206787109375</LongitudeDegrees>
            </Position>
            <AltitudeMeters>18.6000003814697265625</AltitudeMeters>
            <DistanceMeters>NAN</DistanceMeters>
          </Trackpoint>
          <Trackpoint>
            <Time>2022-07-16T09:16:47.000Z</Time>
            <Position>
              <LatitudeDegrees>43.42538547702133655548095703125</LatitudeDegrees>
              <LongitudeDegrees>-4.7865025699138641357421875</LongitudeDegrees>
            </Position>
            <AltitudeMeters>18.799999237060546875</AltitudeMeters>
            <DistanceMeters>NAN</DistanceMeters>
          </Trackpoint>
          <Trackpoint>
            <Time>2022-07-16T09:16:48.000Z</Time>
            <Position>
              <LatitudeDegrees>43.42539779841899871826171875</LatitudeDegrees>
              <LongitudeDegrees>-4.78650114499032497406005859375</LongitudeDegrees>
            </Position>
            <AltitudeMeters>19</AltitudeMeters>
            <DistanceMeters>NAN</DistanceMeters>
          </Trackpoint>
          <Trackpoint>
            <Time>2022-07-16T09:16:50.000Z</Time>
            <Position>
              <LatitudeDegrees>43.4254221059381961822509765625</LatitudeDegrees>
              <LongitudeDegrees>-4.786481447517871856689453125</LongitudeDegrees>
            </Position>
            <AltitudeMeters>19.6000003814697265625</AltitudeMeters>
            <DistanceMeters>NAN</DistanceMeters>
          </Trackpoint>
          <Trackpoint>
            <Time>2022-07-16T09:16:51.000Z</Time>
            <Position>
              <LatitudeDegrees>43.42543425969779491424560546875</LatitudeDegrees>
              <LongitudeDegrees>-4.78647239506244659423828125</LongitudeDegrees>
            </Position>
            <AltitudeMeters>19.799999237060546875</AltitudeMeters>
            <DistanceMeters>NAN</DistanceMeters>
          </Trackpoint>
          <Trackpoint>
            <Time>2022-07-16T09:16:55.000Z</Time>
            <Position>
              <LatitudeDegrees>43.425475917756557464599609375</LatitudeDegrees>
              <LongitudeDegrees>-4.78642839007079601287841796875</LongitudeDegrees>
            </Position>
            <AltitudeMeters>21</AltitudeMeters>
            <DistanceMeters>NAN</DistanceMeters>
          </Trackpoint>
          <Trackpoint>
            <Time>2022-07-16T09:16:57.000Z</Time>
            <Position>
              <LatitudeDegrees>43.42550114728510379791259765625</LatitudeDegrees>
              <LongitudeDegrees>-4.78641598485410213470458984375</LongitudeDegrees>
            </Position>
            <AltitudeMeters>21.6000003814697265625</AltitudeMeters>
            <DistanceMeters>NAN</DistanceMeters>
          </Trackpoint>
          <Trackpoint>
            <Time>2022-07-16T09:16:58.000Z</Time>
            <Position>
              <LatitudeDegrees>43.42551388777792453765869140625</LatitudeDegrees>
              <LongitudeDegrees>-4.7864078544080257415771484375</LongitudeDegrees>
            </Position>
            <AltitudeMeters>21.799999237060546875</AltitudeMeters>
            <DistanceMeters>NAN</DistanceMeters>
          </Trackpoint>
          <Trackpoint>
            <Time>2022-07-16T09:17:00.000Z</Time>
            <Position>
              <LatitudeDegrees>43.425534255802631378173828125</LatitudeDegrees>
              <LongitudeDegrees>-4.78639855049550533294677734375</LongitudeDegrees>
            </Position>
            <AltitudeMeters>22.200000762939453125</AltitudeMeters>
            <DistanceMeters>NAN</DistanceMeters>
          </Trackpoint>
          <Trackpoint>
            <Time>2022-07-16T09:17:02.000Z</Time>
            <Position>
              <LatitudeDegrees>43.4255515225231647491455078125</LatitudeDegrees>
              <LongitudeDegrees>-4.78639368899166584014892578125</LongitudeDegrees>
            </Position>
            <AltitudeMeters>22.6000003814697265625</AltitudeMeters>
            <DistanceMeters>NAN</DistanceMeters>
          </Trackpoint>
          <Trackpoint>
            <Time>2022-07-16T09:17:04.000Z</Time>
            <Position>
              <LatitudeDegrees>43.42557080090045928955078125</LatitudeDegrees>
              <LongitudeDegrees>-4.78637960739433765411376953125</LongitudeDegrees>
            </Position>
            <AltitudeMeters>23</AltitudeMeters>
            <DistanceMeters>NAN</DistanceMeters>
          </Trackpoint>
          <Trackpoint>
            <Time>2022-07-16T09:17:05.000Z</Time>
            <Position>
              <LatitudeDegrees>43.42558211646974086761474609375</LatitudeDegrees>
              <LongitudeDegrees>-4.7863746620714664459228515625</LongitudeDegrees>
            </Position>
            <AltitudeMeters>23.200000762939453125</AltitudeMeters>
            <DistanceMeters>NAN</DistanceMeters>
          </Trackpoint>
          <Trackpoint>
            <Time>2022-07-16T09:17:08.000Z</Time>
            <Position>
              <LatitudeDegrees>43.4256112016737461090087890625</LatitudeDegrees>
              <LongitudeDegrees>-4.78636753745377063751220703125</LongitudeDegrees>
            </Position>
            <AltitudeMeters>23.6000003814697265625</AltitudeMeters>
            <DistanceMeters>NAN</DistanceMeters>
          </Trackpoint>
          <Trackpoint>
            <Time>2022-07-16T09:17:12.000Z</Time>
            <Position>
              <LatitudeDegrees>43.42566325329244136810302734375</LatitudeDegrees>
              <LongitudeDegrees>-4.78636619634926319122314453125</LongitudeDegrees>
            </Position>
            <AltitudeMeters>24.200000762939453125</AltitudeMeters>
            <DistanceMeters>NAN</DistanceMeters>
          </Trackpoint>
          <Trackpoint>
            <Time>2022-07-16T09:17:13.000Z</Time>
            <Position>
              <LatitudeDegrees>43.4256728924810886383056640625</LatitudeDegrees>
              <LongitudeDegrees>-4.7863716445863246917724609375</LongitudeDegrees>
            </Position>
            <AltitudeMeters>24.200000762939453125</AltitudeMeters>
            <DistanceMeters>NAN</DistanceMeters>
          </Trackpoint>
          <Trackpoint>
            <Time>2022-07-16T09:17:16.000Z</Time>
            <Position>
              <LatitudeDegrees>43.42570533044636249542236328125</LatitudeDegrees>
              <LongitudeDegrees>-4.78637985885143280029296875</LongitudeDegrees>
            </Position>
            <AltitudeMeters>24.6000003814697265625</AltitudeMeters>
            <DistanceMeters>NAN</DistanceMeters>
          </Trackpoint>
          <Trackpoint>
            <Time>2022-07-16T09:17:17.000Z</Time>
            <Position>
              <LatitudeDegrees>43.4257136285305023193359375</LatitudeDegrees>
              <LongitudeDegrees>-4.7863853909075260162353515625</LongitudeDegrees>
            </Position>
            <AltitudeMeters>24.6000003814697265625</AltitudeMeters>
            <DistanceMeters>NAN</DistanceMeters>
          </Trackpoint>
          <Trackpoint>
            <Time>2022-07-16T09:17:21.000Z</Time>
            <Position>
              <LatitudeDegrees>43.425744473934173583984375</LatitudeDegrees>
              <LongitudeDegrees>-4.78643291629850864410400390625</LongitudeDegrees>
            </Position>
            <AltitudeMeters>24.799999237060546875</AltitudeMeters>
            <DistanceMeters>NAN</DistanceMeters>
          </Trackpoint>
          <Trackpoint>
            <Time>2022-07-16T09:17:24.000Z</Time>
            <Position>
              <LatitudeDegrees>43.42577054165303707122802734375</LatitudeDegrees>
              <LongitudeDegrees>-4.786468707025051116943359375</LongitudeDegrees>
            </Position>
            <AltitudeMeters>24.799999237060546875</AltitudeMeters>
            <DistanceMeters>NAN</DistanceMeters>
          </Trackpoint>
          <Trackpoint>
            <Time>2022-07-16T09:17:29.000Z</Time>
            <Position>
              <LatitudeDegrees>43.4258184023201465606689453125</LatitudeDegrees>
              <LongitudeDegrees>-4.78655462153255939483642578125</LongitudeDegrees>
            </Position>
            <AltitudeMeters>24.6000003814697265625</AltitudeMeters>
            <DistanceMeters>NAN</DistanceMeters>
          </Trackpoint>
          <Trackpoint>
            <Time>2022-07-16T09:17:30.000Z</Time>
            <Position>
              <LatitudeDegrees>43.42583558522164821624755859375</LatitudeDegrees>
              <LongitudeDegrees>-4.786561243236064910888671875</LongitudeDegrees>
            </Position>
            <AltitudeMeters>24.6000003814697265625</AltitudeMeters>
            <DistanceMeters>NAN</DistanceMeters>
          </Trackpoint>
          <Trackpoint>
            <Time>2022-07-16T09:17:34.000Z</Time>
            <Position>
              <LatitudeDegrees>43.42596516944468021392822265625</LatitudeDegrees>
              <LongitudeDegrees>-4.78659979999065399169921875</LongitudeDegrees>
            </Position>
            <AltitudeMeters>24.200000762939453125</AltitudeMeters>
            <DistanceMeters>NAN</DistanceMeters>
          </Trackpoint>
          <Trackpoint>
            <Time>2022-07-16T09:17:35.000Z</Time>
            <Position>
              <LatitudeDegrees>43.42600640840828418731689453125</LatitudeDegrees>
              <LongitudeDegrees>-4.78659938089549541473388671875</LongitudeDegrees>
            </Position>
            <AltitudeMeters>24</AltitudeMeters>
            <DistanceMeters>NAN</DistanceMeters>
          </Trackpoint>
          <Trackpoint>
            <Time>2022-07-16T09:17:40.000Z</Time>
            <Position>
              <LatitudeDegrees>43.4261922352015972137451171875</LatitudeDegrees>
              <LongitudeDegrees>-4.7866231016814708709716796875</LongitudeDegrees>
            </Position>
            <AltitudeMeters>23.200000762939453125</AltitudeMeters>
            <DistanceMeters>NAN</DistanceMeters>
          </Trackpoint>
          <Trackpoint>
            <Time>2022-07-16T09:17:41.000Z</Time>
            <Position>
              <LatitudeDegrees>43.426222912967205047607421875</LatitudeDegrees>
              <LongitudeDegrees>-4.7866284660995006561279296875</LongitudeDegrees>
            </Position>
            <AltitudeMeters>23</AltitudeMeters>
            <DistanceMeters>NAN</DistanceMeters>
          </Trackpoint>
          <Trackpoint>
            <Time>2022-07-16T09:17:46.000Z</Time>
            <Position>
              <LatitudeDegrees>43.42640890739858150482177734375</LatitudeDegrees>
              <LongitudeDegrees>-4.78675645776093006134033203125</LongitudeDegrees>
            </Position>
            <AltitudeMeters>22.3999996185302734375</AltitudeMeters>
            <DistanceMeters>NAN</DistanceMeters>
          </Trackpoint>
          <Trackpoint>
            <Time>2022-07-16T09:17:48.000Z</Time>
            <Position>
              <LatitudeDegrees>43.42647361569106578826904296875</LatitudeDegrees>
              <LongitudeDegrees>-4.786861650645732879638671875</LongitudeDegrees>
            </Position>
            <AltitudeMeters>22</AltitudeMeters>
            <DistanceMeters>NAN</DistanceMeters>
          </Trackpoint>
          <Trackpoint>
            <Time>2022-07-16T09:17:50.000Z</Time>
            <Position>
              <LatitudeDegrees>43.4265070594847202301025390625</LatitudeDegrees>
              <LongitudeDegrees>-4.786991737782955169677734375</LongitudeDegrees>
            </Position>
            <AltitudeMeters>21.200000762939453125</AltitudeMeters>
            <DistanceMeters>NAN</DistanceMeters>
          </Trackpoint>
          <Trackpoint>
            <Time>2022-07-16T09:17:51.000Z</Time>
            <Position>
              <LatitudeDegrees>43.42651518993079662322998046875</LatitudeDegrees>
              <LongitudeDegrees>-4.78705904446542263031005859375</LongitudeDegrees>
            </Position>
            <AltitudeMeters>21</AltitudeMeters>
            <DistanceMeters>NAN</DistanceMeters>
          </Trackpoint>
          <Trackpoint>
            <Time>2022-07-16T09:17:55.000Z</Time>
            <Position>
              <LatitudeDegrees>43.4265496395528316497802734375</LatitudeDegrees>
              <LongitudeDegrees>-4.787281416356563568115234375</LongitudeDegrees>
            </Position>
            <AltitudeMeters>20.799999237060546875</AltitudeMeters>
            <DistanceMeters>NAN</DistanceMeters>
          </Trackpoint>
          <Trackpoint>
            <Time>2022-07-16T09:18:00.000Z</Time>
            <Position>
              <LatitudeDegrees>43.42657084576785564422607421875</LatitudeDegrees>
              <LongitudeDegrees>-4.7874039597809314727783203125</LongitudeDegrees>
            </Position>
            <AltitudeMeters>21.200000762939453125</AltitudeMeters>
            <DistanceMeters>NAN</DistanceMeters>
          </Trackpoint>
          <Trackpoint>
            <Time>2022-07-16T09:18:06.000Z</Time>
            <Position>
              <LatitudeDegrees>43.4265650622546672821044921875</LatitudeDegrees>
              <LongitudeDegrees>-4.78754016570746898651123046875</LongitudeDegrees>
            </Position>
            <AltitudeMeters>22.200000762939453125</AltitudeMeters>
            <DistanceMeters>NAN</DistanceMeters>
          </Trackpoint>
          <Trackpoint>
            <Time>2022-07-16T09:18:07.000Z</Time>
            <Position>
              <LatitudeDegrees>43.42656229622662067413330078125</LatitudeDegrees>
              <LongitudeDegrees>-4.78756028227508068084716796875</LongitudeDegrees>
            </Position>
            <AltitudeMeters>22.3999996185302734375</AltitudeMeters>
            <DistanceMeters>NAN</DistanceMeters>
          </Trackpoint>
          <Trackpoint>
            <Time>2022-07-16T09:18:10.000Z</Time>
            <Position>
              <LatitudeDegrees>43.426559530198574066162109375</LatitudeDegrees>
              <LongitudeDegrees>-4.787627421319484710693359375</LongitudeDegrees>
            </Position>
            <AltitudeMeters>23.200000762939453125</AltitudeMeters>
            <DistanceMeters>NAN</DistanceMeters>
          </Trackpoint>
          <Trackpoint>
            <Time>2022-07-16T09:18:14.000Z</Time>
            <Position>
              <LatitudeDegrees>43.4265486337244510650634765625</LatitudeDegrees>
              <LongitudeDegrees>-4.7877020202577114105224609375</LongitudeDegrees>
            </Position>
            <AltitudeMeters>24</AltitudeMeters>
            <DistanceMeters>NAN</DistanceMeters>
          </Trackpoint>
          <Trackpoint>
            <Time>2022-07-16T09:18:15.000Z</Time>
            <Position>
              <LatitudeDegrees>43.42654754407703876495361328125</LatitudeDegrees>
              <LongitudeDegrees>-4.7877181135118007659912109375</LongitudeDegrees>
            </Position>
            <AltitudeMeters>24.200000762939453125</AltitudeMeters>
            <DistanceMeters>NAN</DistanceMeters>
          </Trackpoint>
          <Trackpoint>
            <Time>2022-07-16T09:18:16.000Z</Time>
            <Position>
              <LatitudeDegrees>43.42655039392411708831787109375</LatitudeDegrees>
              <LongitudeDegrees>-4.78773747570812702178955078125</LongitudeDegrees>
            </Position>
            <AltitudeMeters>24.3999996185302734375</AltitudeMeters>
            <DistanceMeters>NAN</DistanceMeters>
          </Trackpoint>
          <Trackpoint>
            <Time>2022-07-16T09:18:19.000Z</Time>
            <Position>
              <LatitudeDegrees>43.426570259034633636474609375</LatitudeDegrees>
              <LongitudeDegrees>-4.78779028169810771942138671875</LongitudeDegrees>
            </Position>
            <AltitudeMeters>24.799999237060546875</AltitudeMeters>
            <DistanceMeters>NAN</DistanceMeters>
          </Trackpoint>
          <Trackpoint>
            <Time>2022-07-16T09:18:21.000Z</Time>
            <Position>
              <LatitudeDegrees>43.42659213580191135406494140625</LatitudeDegrees>
              <LongitudeDegrees>-4.787803106009960174560546875</LongitudeDegrees>
            </Position>
            <AltitudeMeters>25.200000762939453125</AltitudeMeters>
            <DistanceMeters>NAN</DistanceMeters>
          </Trackpoint>
          <Trackpoint>
            <Time>2022-07-16T09:18:24.000Z</Time>
            <Position>
              <LatitudeDegrees>43.42662901617586612701416015625</LatitudeDegrees>
              <LongitudeDegrees>-4.7877798043191432952880859375</LongitudeDegrees>
            </Position>
            <AltitudeMeters>25.3999996185302734375</AltitudeMeters>
            <DistanceMeters>NAN</DistanceMeters>
          </Trackpoint>
          <Trackpoint>
            <Time>2022-07-16T09:18:25.000Z</Time>
            <Position>
              <LatitudeDegrees>43.426633290946483612060546875</LatitudeDegrees>
              <LongitudeDegrees>-4.7877658903598785400390625</LongitudeDegrees>
            </Position>
            <AltitudeMeters>25.6000003814697265625</AltitudeMeters>
            <DistanceMeters>NAN</DistanceMeters>
          </Trackpoint>
          <Trackpoint>
            <Time>2022-07-16T09:18:32.000Z</Time>
            <Position>
              <LatitudeDegrees>43.42665131203830242156982421875</LatitudeDegrees>
              <LongitudeDegrees>-4.7876389883458614349365234375</LongitudeDegrees>
            </Position>
            <AltitudeMeters>26</AltitudeMeters>
            <DistanceMeters>NAN</DistanceMeters>
          </Trackpoint>
          <Trackpoint>
            <Time>2022-07-16T09:18:37.000Z</Time>
            <Position>
              <LatitudeDegrees>43.4266948141157627105712890625</LatitudeDegrees>
              <LongitudeDegrees>-4.787551648914813995361328125</LongitudeDegrees>
            </Position>
            <AltitudeMeters>26.6000003814697265625</AltitudeMeters>
            <DistanceMeters>NAN</DistanceMeters>
          </Trackpoint>
          <Trackpoint>
            <Time>2022-07-16T09:18:39.000Z</Time>
            <Position>
              <LatitudeDegrees>43.426716439425945281982421875</LatitudeDegrees>
              <LongitudeDegrees>-4.78752407245337963104248046875</LongitudeDegrees>
            </Position>
            <AltitudeMeters>26.799999237060546875</AltitudeMeters>
            <DistanceMeters>NAN</DistanceMeters>
          </Trackpoint>
          <Trackpoint>
            <Time>2022-07-16T09:18:45.000Z</Time>
            <Position>
              <LatitudeDegrees>43.4267772920429706573486328125</LatitudeDegrees>
              <LongitudeDegrees>-4.787436313927173614501953125</LongitudeDegrees>
            </Position>
            <AltitudeMeters>27.6000003814697265625</AltitudeMeters>
            <DistanceMeters>NAN</DistanceMeters>
          </Trackpoint>
          <Trackpoint>
            <Time>2022-07-16T09:18:53.000Z</Time>
            <Position>
              <LatitudeDegrees>43.4268785454332828521728515625</LatitudeDegrees>
              <LongitudeDegrees>-4.7873191349208354949951171875</LongitudeDegrees>
            </Position>
            <AltitudeMeters>28.6000003814697265625</AltitudeMeters>
            <DistanceMeters>NAN</DistanceMeters>
          </Trackpoint>
          <Trackpoint>
            <Time>2022-07-16T09:18:54.000Z</Time>
            <Position>
              <LatitudeDegrees>43.42688776552677154541015625</LatitudeDegrees>
              <LongitudeDegrees>-4.78730522096157073974609375</LongitudeDegrees>
            </Position>
            <AltitudeMeters>28.799999237060546875</AltitudeMeters>
            <DistanceMeters>NAN</DistanceMeters>
          </Trackpoint>
          <Trackpoint>
            <Time>2022-07-16T09:19:04.000Z</Time>
            <Position>
              <LatitudeDegrees>43.42697099782526493072509765625</LatitudeDegrees>
              <LongitudeDegrees>-4.7871136106550693511962890625</LongitudeDegrees>
            </Position>
            <AltitudeMeters>28.799999237060546875</AltitudeMeters>
            <DistanceMeters>NAN</DistanceMeters>
          </Trackpoint>
          <Trackpoint>
            <Time>2022-07-16T09:19:11.000Z</Time>
            <Position>
              <LatitudeDegrees>43.427048027515411376953125</LatitudeDegrees>
              <LongitudeDegrees>-4.7870049811899662017822265625</LongitudeDegrees>
            </Position>
            <AltitudeMeters>29.3999996185302734375</AltitudeMeters>
            <DistanceMeters>NAN</DistanceMeters>
          </Trackpoint>
          <Trackpoint>
            <Time>2022-07-16T09:19:13.000Z</Time>
            <Position>
              <LatitudeDegrees>43.42707493342459201812744140625</LatitudeDegrees>
              <LongitudeDegrees>-4.7869878821074962615966796875</LongitudeDegrees>
            </Position>
            <AltitudeMeters>30</AltitudeMeters>
            <DistanceMeters>NAN</DistanceMeters>
          </Trackpoint>
          <Trackpoint>
            <Time>2022-07-16T09:19:21.000Z</Time>
            <Position>
              <LatitudeDegrees>43.4271861612796783447265625</LatitudeDegrees>
              <LongitudeDegrees>-4.7869476489722728729248046875</LongitudeDegrees>
            </Position>
            <AltitudeMeters>30.799999237060546875</AltitudeMeters>
            <DistanceMeters>NAN</DistanceMeters>
          </Trackpoint>
          <Trackpoint>
            <Time>2022-07-16T09:19:24.000Z</Time>
            <Position>
              <LatitudeDegrees>43.427232764661312103271484375</LatitudeDegrees>
              <LongitudeDegrees>-4.7869365848600864410400390625</LongitudeDegrees>
            </Position>
            <AltitudeMeters>31</AltitudeMeters>
            <DistanceMeters>NAN</DistanceMeters>
          </Trackpoint>
          <Trackpoint>
            <Time>2022-07-16T09:19:32.000Z</Time>
            <Position>
              <LatitudeDegrees>43.4273425675928592681884765625</LatitudeDegrees>
              <LongitudeDegrees>-4.78690959513187408447265625</LongitudeDegrees>
            </Position>
            <AltitudeMeters>31.3999996185302734375</AltitudeMeters>
            <DistanceMeters>NAN</DistanceMeters>
          </Trackpoint>
          <Trackpoint>
            <Time>2022-07-16T09:19:36.000Z</Time>
            <Position>
              <LatitudeDegrees>43.42740140855312347412109375</LatitudeDegrees>
              <LongitudeDegrees>-4.78689777664840221405029296875</LongitudeDegrees>
            </Position>
            <AltitudeMeters>32</AltitudeMeters>
            <DistanceMeters>NAN</DistanceMeters>
          </Trackpoint>
          <Trackpoint>
            <Time>2022-07-16T09:19:43.000Z</Time>
            <Position>
              <LatitudeDegrees>43.4275035001337528228759765625</LatitudeDegrees>
              <LongitudeDegrees>-4.786840192973613739013671875</LongitudeDegrees>
            </Position>
            <AltitudeMeters>33</AltitudeMeters>
            <DistanceMeters>NAN</DistanceMeters>
          </Trackpoint>
          <Trackpoint>
            <Time>2022-07-16T09:19:48.000Z</Time>
            <Position>
              <LatitudeDegrees>43.4276195056736469268798828125</LatitudeDegrees>
              <LongitudeDegrees>-4.78673432953655719757080078125</LongitudeDegrees>
            </Position>
            <AltitudeMeters>32.59999847412109375</AltitudeMeters>
            <DistanceMeters>NAN</DistanceMeters>
          </Trackpoint>
          <Trackpoint>
            <Time>2022-07-16T09:19:54.000Z</Time>
            <Position>
              <LatitudeDegrees>43.4278183244168758392333984375</LatitudeDegrees>
              <LongitudeDegrees>-4.78661363013088703155517578125</LongitudeDegrees>
            </Position>
            <AltitudeMeters>31.799999237060546875</AltitudeMeters>
            <DistanceMeters>NAN</DistanceMeters>
          </Trackpoint>
          <Trackpoint>
            <Time>2022-07-16T09:19:58.000Z</Time>
            <Position>
              <LatitudeDegrees>43.42791513539850711822509765625</LatitudeDegrees>
              <LongitudeDegrees>-4.78655445389449596405029296875</LongitudeDegrees>
            </Position>
            <AltitudeMeters>31.6000003814697265625</AltitudeMeters>
            <DistanceMeters>NAN</DistanceMeters>
          </Trackpoint>
          <Trackpoint>
            <Time>2022-07-16T09:20:03.000Z</Time>
            <Position>
              <LatitudeDegrees>43.4279822744429111480712890625</LatitudeDegrees>
              <LongitudeDegrees>-4.78647750802338123321533203125</LongitudeDegrees>
            </Position>
            <AltitudeMeters>32.40000152587890625</AltitudeMeters>
            <DistanceMeters>NAN</DistanceMeters>
          </Trackpoint>
          <Trackpoint>
            <Time>2022-07-16T09:20:09.000Z</Time>
            <Position>
              <LatitudeDegrees>43.42806215398013591766357421875</LatitudeDegrees>
              <LongitudeDegrees>-4.78637985885143280029296875</LongitudeDegrees>
            </Position>
            <AltitudeMeters>32.799999237060546875</AltitudeMeters>
            <DistanceMeters>NAN</DistanceMeters>
          </Trackpoint>
          <Trackpoint>
            <Time>2022-07-16T09:20:13.000Z</Time>
            <Position>
              <LatitudeDegrees>43.42814262025058269500732421875</LatitudeDegrees>
              <LongitudeDegrees>-4.78638396598398685455322265625</LongitudeDegrees>
            </Position>
            <AltitudeMeters>33</AltitudeMeters>
            <DistanceMeters>NAN</DistanceMeters>
          </Trackpoint>
          <Trackpoint>
            <Time>2022-07-16T09:20:15.000Z</Time>
            <Position>
              <LatitudeDegrees>43.4281787462532520294189453125</LatitudeDegrees>
              <LongitudeDegrees>-4.78641632013022899627685546875</LongitudeDegrees>
            </Position>
            <AltitudeMeters>33.200000762939453125</AltitudeMeters>
            <DistanceMeters>NAN</DistanceMeters>
          </Trackpoint>
          <Trackpoint>
            <Time>2022-07-16T09:20:18.000Z</Time>
            <Position>
              <LatitudeDegrees>43.42822308652102947235107421875</LatitudeDegrees>
              <LongitudeDegrees>-4.7864812798798084259033203125</LongitudeDegrees>
            </Position>
            <AltitudeMeters>33.200000762939453125</AltitudeMeters>
            <DistanceMeters>NAN</DistanceMeters>
          </Trackpoint>
          <Trackpoint>
            <Time>2022-07-16T09:20:21.000Z</Time>
            <Position>
              <LatitudeDegrees>43.4282686002552509307861328125</LatitudeDegrees>
              <LongitudeDegrees>-4.78657825849950313568115234375</LongitudeDegrees>
            </Position>
            <AltitudeMeters>33</AltitudeMeters>
            <DistanceMeters>NAN</DistanceMeters>
          </Trackpoint>
          <Trackpoint>
            <Time>2022-07-16T09:20:23.000Z</Time>
            <Position>
              <LatitudeDegrees>43.42829835601150989532470703125</LatitudeDegrees>
              <LongitudeDegrees>-4.786651097238063812255859375</LongitudeDegrees>
            </Position>
            <AltitudeMeters>32.799999237060546875</AltitudeMeters>
            <DistanceMeters>NAN</DistanceMeters>
          </Trackpoint>
          <Trackpoint>
            <Time>2022-07-16T09:20:25.000Z</Time>
            <Position>
              <LatitudeDegrees>43.42833138071000576019287109375</LatitudeDegrees>
              <LongitudeDegrees>-4.78672477416694164276123046875</LongitudeDegrees>
            </Position>
            <AltitudeMeters>32.59999847412109375</AltitudeMeters>
            <DistanceMeters>NAN</DistanceMeters>
          </Trackpoint>
          <Trackpoint>
            <Time>2022-07-16T09:20:27.000Z</Time>
            <Position>
              <LatitudeDegrees>43.42836842872202396392822265625</LatitudeDegrees>
              <LongitudeDegrees>-4.78679568506777286529541015625</LongitudeDegrees>
            </Position>
            <AltitudeMeters>32.59999847412109375</AltitudeMeters>
            <DistanceMeters>NAN</DistanceMeters>
          </Trackpoint>
          <Trackpoint>
            <Time>2022-07-16T09:20:29.000Z</Time>
            <Position>
              <LatitudeDegrees>43.42840991914272308349609375</LatitudeDegrees>
              <LongitudeDegrees>-4.78686139918863773345947265625</LongitudeDegrees>
            </Position>
            <AltitudeMeters>32.59999847412109375</AltitudeMeters>
            <DistanceMeters>NAN</DistanceMeters>
          </Trackpoint>
          <Trackpoint>
            <Time>2022-07-16T09:20:30.000Z</Time>
            <Position>
              <LatitudeDegrees>43.4284338913857936859130859375</LatitudeDegrees>
              <LongitudeDegrees>-4.78688905946910381317138671875</LongitudeDegrees>
            </Position>
            <AltitudeMeters>32.59999847412109375</AltitudeMeters>
            <DistanceMeters>NAN</DistanceMeters>
          </Trackpoint>
          <Trackpoint>
            <Time>2022-07-16T09:20:32.000Z</Time>
            <Position>
              <LatitudeDegrees>43.42848426662385463714599609375</LatitudeDegrees>
              <LongitudeDegrees>-4.7869439609348773956298828125</LongitudeDegrees>
            </Position>
            <AltitudeMeters>32.40000152587890625</AltitudeMeters>
            <DistanceMeters>NAN</DistanceMeters>
          </Trackpoint>
          <Trackpoint>
            <Time>2022-07-16T09:20:38.000Z</Time>
            <Position>
              <LatitudeDegrees>43.42864369042217731475830078125</LatitudeDegrees>
              <LongitudeDegrees>-4.7870899736881256103515625</LongitudeDegrees>
            </Position>
            <AltitudeMeters>32.200000762939453125</AltitudeMeters>
            <DistanceMeters>NAN</DistanceMeters>
          </Trackpoint>
          <Trackpoint>
            <Time>2022-07-16T09:20:47.000Z</Time>
            <Position>
              <LatitudeDegrees>43.4289200417697429656982421875</LatitudeDegrees>
              <LongitudeDegrees>-4.787274040281772613525390625</LongitudeDegrees>
            </Position>
            <AltitudeMeters>32.40000152587890625</AltitudeMeters>
            <DistanceMeters>NAN</DistanceMeters>
          </Trackpoint>
          <Trackpoint>
            <Time>2022-07-16T09:20:53.000Z</Time>
            <Position>
              <LatitudeDegrees>43.4290427528321743011474609375</LatitudeDegrees>
              <LongitudeDegrees>-4.7873714379966259002685546875</LongitudeDegrees>
            </Position>
            <AltitudeMeters>32.59999847412109375</AltitudeMeters>
            <DistanceMeters>NAN</DistanceMeters>
          </Trackpoint>
          <Trackpoint>
            <Time>2022-07-16T09:21:01.000Z</Time>
            <Position>
              <LatitudeDegrees>43.4291326068341732025146484375</LatitudeDegrees>
              <LongitudeDegrees>-4.787491969764232635498046875</LongitudeDegrees>
            </Position>
            <AltitudeMeters>34</AltitudeMeters>
            <DistanceMeters>NAN</DistanceMeters>
          </Trackpoint>
          <Trackpoint>
            <Time>2022-07-16T09:21:04.000Z</Time>
            <Position>
              <LatitudeDegrees>43.42916001565754413604736328125</LatitudeDegrees>
              <LongitudeDegrees>-4.78754837997257709503173828125</LongitudeDegrees>
            </Position>
            <AltitudeMeters>35.200000762939453125</AltitudeMeters>
            <DistanceMeters>NAN</DistanceMeters>
          </Trackpoint>
          <Trackpoint>
            <Time>2022-07-16T09:21:10.000Z</Time>
            <Position>
              <LatitudeDegrees>43.42920393683016300201416015625</LatitudeDegrees>
              <LongitudeDegrees>-4.7876614518463611602783203125</LongitudeDegrees>
            </Position>
            <AltitudeMeters>36</AltitudeMeters>
            <DistanceMeters>NAN</DistanceMeters>
          </Trackpoint>
          <Trackpoint>
            <Time>2022-07-16T09:21:12.000Z</Time>
            <Position>
              <LatitudeDegrees>43.42921567149460315704345703125</LatitudeDegrees>
              <LongitudeDegrees>-4.78770487010478973388671875</LongitudeDegrees>
            </Position>
            <AltitudeMeters>36.200000762939453125</AltitudeMeters>
            <DistanceMeters>NAN</DistanceMeters>
          </Trackpoint>
          <Trackpoint>
            <Time>2022-07-16T09:21:18.000Z</Time>
            <Position>
              <LatitudeDegrees>43.4292432479560375213623046875</LatitudeDegrees>
              <LongitudeDegrees>-4.78780587203800678253173828125</LongitudeDegrees>
            </Position>
            <AltitudeMeters>36.799999237060546875</AltitudeMeters>
            <DistanceMeters>NAN</DistanceMeters>
          </Trackpoint>
          <Trackpoint>
            <Time>2022-07-16T09:21:21.000Z</Time>
            <Position>
              <LatitudeDegrees>43.42924400232732295989990234375</LatitudeDegrees>
              <LongitudeDegrees>-4.78781576268374919891357421875</LongitudeDegrees>
            </Position>
            <AltitudeMeters>36.799999237060546875</AltitudeMeters>
            <DistanceMeters>NAN</DistanceMeters>
          </Trackpoint>
          <Trackpoint>
            <Time>2022-07-16T09:21:46.000Z</Time>
            <Position>
              <LatitudeDegrees>43.42924249358475208282470703125</LatitudeDegrees>
              <LongitudeDegrees>-4.78788415901362895965576171875</LongitudeDegrees>
            </Position>
            <AltitudeMeters>37.200000762939453125</AltitudeMeters>
            <DistanceMeters>NAN</DistanceMeters>
          </Trackpoint>
          <Trackpoint>
            <Time>2022-07-16T09:21:47.000Z</Time>
            <Position>
              <LatitudeDegrees>43.42924542725086212158203125</LatitudeDegrees>
              <LongitudeDegrees>-4.78791005909442901611328125</LongitudeDegrees>
            </Position>
            <AltitudeMeters>37.200000762939453125</AltitudeMeters>
            <DistanceMeters>NAN</DistanceMeters>
          </Trackpoint>
          <Trackpoint>
            <Time>2022-07-16T09:21:48.000Z</Time>
            <Position>
              <LatitudeDegrees>43.42924400232732295989990234375</LatitudeDegrees>
              <LongitudeDegrees>-4.787934534251689910888671875</LongitudeDegrees>
            </Position>
            <AltitudeMeters>37.40000152587890625</AltitudeMeters>
            <DistanceMeters>NAN</DistanceMeters>
          </Trackpoint>
          <Trackpoint>
            <Time>2022-07-16T09:21:50.000Z</Time>
            <Position>
              <LatitudeDegrees>43.42924115248024463653564453125</LatitudeDegrees>
              <LongitudeDegrees>-4.78798943571746349334716796875</LongitudeDegrees>
            </Position>
            <AltitudeMeters>37.40000152587890625</AltitudeMeters>
            <DistanceMeters>NAN</DistanceMeters>
          </Trackpoint>
          <Trackpoint>
            <Time>2022-07-16T09:21:52.000Z</Time>
            <Position>
              <LatitudeDegrees>43.42924601398408412933349609375</LatitudeDegrees>
              <LongitudeDegrees>-4.7880429960787296295166015625</LongitudeDegrees>
            </Position>
            <AltitudeMeters>37.40000152587890625</AltitudeMeters>
            <DistanceMeters>NAN</DistanceMeters>
          </Trackpoint>
          <Trackpoint>
            <Time>2022-07-16T09:21:59.000Z</Time>
            <Position>
              <LatitudeDegrees>43.42928037978708744049072265625</LatitudeDegrees>
              <LongitudeDegrees>-4.78821591474115848541259765625</LongitudeDegrees>
            </Position>
            <AltitudeMeters>37.200000762939453125</AltitudeMeters>
            <DistanceMeters>NAN</DistanceMeters>
          </Trackpoint>
          <Trackpoint>
            <Time>2022-07-16T09:22:09.000Z</Time>
            <Position>
              <LatitudeDegrees>43.42933553270995616912841796875</LatitudeDegrees>
              <LongitudeDegrees>-4.78841557167470455169677734375</LongitudeDegrees>
            </Position>
            <AltitudeMeters>37.59999847412109375</AltitudeMeters>
            <DistanceMeters>NAN</DistanceMeters>
          </Trackpoint>
          <Trackpoint>
            <Time>2022-07-16T09:22:15.000Z</Time>
            <Position>
              <LatitudeDegrees>43.42937760986387729644775390625</LatitudeDegrees>
              <LongitudeDegrees>-4.78852671571075916290283203125</LongitudeDegrees>
            </Position>
            <AltitudeMeters>38.200000762939453125</AltitudeMeters>
            <DistanceMeters>NAN</DistanceMeters>
          </Trackpoint>
          <Trackpoint>
            <Time>2022-07-16T09:22:17.000Z</Time>
            <Position>
              <LatitudeDegrees>43.4293968044221401214599609375</LatitudeDegrees>
              <LongitudeDegrees>-4.7885707207024097442626953125</LongitudeDegrees>
            </Position>
            <AltitudeMeters>38.40000152587890625</AltitudeMeters>
            <DistanceMeters>NAN</DistanceMeters>
          </Trackpoint>
          <Trackpoint>
            <Time>2022-07-16T09:22:25.000Z</Time>
            <Position>
              <LatitudeDegrees>43.42948389239609241485595703125</LatitudeDegrees>
              <LongitudeDegrees>-4.7887571342289447784423828125</LongitudeDegrees>
            </Position>
            <AltitudeMeters>39.200000762939453125</AltitudeMeters>
            <DistanceMeters>NAN</DistanceMeters>
          </Trackpoint>
          <Trackpoint>
            <Time>2022-07-16T09:22:30.000Z</Time>
            <Position>
              <LatitudeDegrees>43.42954122461378574371337890625</LatitudeDegrees>
              <LongitudeDegrees>-4.78886232711374759674072265625</LongitudeDegrees>
            </Position>
            <AltitudeMeters>39.200000762939453125</AltitudeMeters>
            <DistanceMeters>NAN</DistanceMeters>
          </Trackpoint>
          <Trackpoint>
            <Time>2022-07-16T09:22:32.000Z</Time>
            <Position>
              <LatitudeDegrees>43.42956134118139743804931640625</LatitudeDegrees>
              <LongitudeDegrees>-4.78889903984963893890380859375</LongitudeDegrees>
            </Position>
            <AltitudeMeters>39.200000762939453125</AltitudeMeters>
            <DistanceMeters>NAN</DistanceMeters>
          </Trackpoint>
          <Trackpoint>
            <Time>2022-07-16T09:22:33.000Z</Time>
            <Position>
              <LatitudeDegrees>43.4295711480081081390380859375</LatitudeDegrees>
              <LongitudeDegrees>-4.78891932405531406402587890625</LongitudeDegrees>
            </Position>
            <AltitudeMeters>39.200000762939453125</AltitudeMeters>
            <DistanceMeters>NAN</DistanceMeters>
          </Trackpoint>
          <Trackpoint>
            <Time>2022-07-16T09:22:36.000Z</Time>
            <Position>
              <LatitudeDegrees>43.4296026639640331268310546875</LatitudeDegrees>
              <LongitudeDegrees>-4.7889753989875316619873046875</LongitudeDegrees>
            </Position>
            <AltitudeMeters>39.59999847412109375</AltitudeMeters>
            <DistanceMeters>NAN</DistanceMeters>
          </Trackpoint>
          <Trackpoint>
            <Time>2022-07-16T09:22:43.000Z</Time>
            <Position>
              <LatitudeDegrees>43.429650776088237762451171875</LatitudeDegrees>
              <LongitudeDegrees>-4.78913306258618831634521484375</LongitudeDegrees>
            </Position>
            <AltitudeMeters>40.200000762939453125</AltitudeMeters>
            <DistanceMeters>NAN</DistanceMeters>
          </Trackpoint>
          <Trackpoint>
            <Time>2022-07-16T09:22:46.000Z</Time>
            <Position>
              <LatitudeDegrees>43.42965303920209407806396484375</LatitudeDegrees>
              <LongitudeDegrees>-4.78921755217015743255615234375</LongitudeDegrees>
            </Position>
            <AltitudeMeters>40.59999847412109375</AltitudeMeters>
            <DistanceMeters>NAN</DistanceMeters>
          </Trackpoint>
          <Trackpoint>
            <Time>2022-07-16T09:22:49.000Z</Time>
            <Position>
              <LatitudeDegrees>43.4296556375920772552490234375</LatitudeDegrees>
              <LongitudeDegrees>-4.789296425879001617431640625</LongitudeDegrees>
            </Position>
            <AltitudeMeters>41</AltitudeMeters>
            <DistanceMeters>NAN</DistanceMeters>
          </Trackpoint>
          <Trackpoint>
            <Time>2022-07-16T09:22:52.000Z</Time>
            <Position>
              <LatitudeDegrees>43.42965907417237758636474609375</LatitudeDegrees>
              <LongitudeDegrees>-4.78937731124460697174072265625</LongitudeDegrees>
            </Position>
            <AltitudeMeters>41.200000762939453125</AltitudeMeters>
            <DistanceMeters>NAN</DistanceMeters>
          </Trackpoint>
          <Trackpoint>
            <Time>2022-07-16T09:22:59.000Z</Time>
            <Position>
              <LatitudeDegrees>43.42967399396002292633056640625</LatitudeDegrees>
              <LongitudeDegrees>-4.7895497269928455352783203125</LongitudeDegrees>
            </Position>
            <AltitudeMeters>41.59999847412109375</AltitudeMeters>
            <DistanceMeters>NAN</DistanceMeters>
          </Trackpoint>
          <Trackpoint>
            <Time>2022-07-16T09:23:01.000Z</Time>
            <Position>
              <LatitudeDegrees>43.429679609835147857666015625</LatitudeDegrees>
              <LongitudeDegrees>-4.78960814885795116424560546875</LongitudeDegrees>
            </Position>
            <AltitudeMeters>41.59999847412109375</AltitudeMeters>
            <DistanceMeters>NAN</DistanceMeters>
          </Trackpoint>
          <Trackpoint>
            <Time>2022-07-16T09:23:09.000Z</Time>
            <Position>
              <LatitudeDegrees>43.42970768921077251434326171875</LatitudeDegrees>
              <LongitudeDegrees>-4.78985868394374847412109375</LongitudeDegrees>
            </Position>
            <AltitudeMeters>40.59999847412109375</AltitudeMeters>
            <DistanceMeters>NAN</DistanceMeters>
          </Trackpoint>
          <Trackpoint>
            <Time>2022-07-16T09:23:10.000Z</Time>
            <Position>
              <LatitudeDegrees>43.42971338890492916107177734375</LatitudeDegrees>
              <LongitudeDegrees>-4.78988894261419773101806640625</LongitudeDegrees>
            </Position>
            <AltitudeMeters>40.59999847412109375</AltitudeMeters>
            <DistanceMeters>NAN</DistanceMeters>
          </Trackpoint>
          <Trackpoint>
            <Time>2022-07-16T09:23:15.000Z</Time>
            <Position>
              <LatitudeDegrees>43.42976250685751438140869140625</LatitudeDegrees>
              <LongitudeDegrees>-4.79003679938614368438720703125</LongitudeDegrees>
            </Position>
            <AltitudeMeters>41.40000152587890625</AltitudeMeters>
            <DistanceMeters>NAN</DistanceMeters>
          </Trackpoint>
          <Trackpoint>
            <Time>2022-07-16T09:23:16.000Z</Time>
            <Position>
              <LatitudeDegrees>43.429773151874542236328125</LatitudeDegrees>
              <LongitudeDegrees>-4.79006429202854633331298828125</LongitudeDegrees>
            </Position>
            <AltitudeMeters>41.59999847412109375</AltitudeMeters>
            <DistanceMeters>NAN</DistanceMeters>
          </Trackpoint>
          <Trackpoint>
            <Time>2022-07-16T09:23:17.000Z</Time>
            <Position>
              <LatitudeDegrees>43.4297887422144412994384765625</LatitudeDegrees>
              <LongitudeDegrees>-4.7900932095944881439208984375</LongitudeDegrees>
            </Position>
            <AltitudeMeters>41.59999847412109375</AltitudeMeters>
            <DistanceMeters>NAN</DistanceMeters>
          </Trackpoint>
          <Trackpoint>
            <Time>2022-07-16T09:23:23.000Z</Time>
            <Position>
              <LatitudeDegrees>43.42986912466585636138916015625</LatitudeDegrees>
              <LongitudeDegrees>-4.79026411660015583038330078125</LongitudeDegrees>
            </Position>
            <AltitudeMeters>42.200000762939453125</AltitudeMeters>
            <DistanceMeters>NAN</DistanceMeters>
          </Trackpoint>
          <Trackpoint>
            <Time>2022-07-16T09:23:26.000Z</Time>
            <Position>
              <LatitudeDegrees>43.42989929951727390289306640625</LatitudeDegrees>
              <LongitudeDegrees>-4.790355898439884185791015625</LongitudeDegrees>
            </Position>
            <AltitudeMeters>42.200000762939453125</AltitudeMeters>
            <DistanceMeters>NAN</DistanceMeters>
          </Trackpoint>
          <Trackpoint>
            <Time>2022-07-16T09:23:34.000Z</Time>
            <Position>
              <LatitudeDegrees>43.42996962368488311767578125</LatitudeDegrees>
              <LongitudeDegrees>-4.79060743935406208038330078125</LongitudeDegrees>
            </Position>
            <AltitudeMeters>42.40000152587890625</AltitudeMeters>
            <DistanceMeters>NAN</DistanceMeters>
          </Trackpoint>
          <Trackpoint>
            <Time>2022-07-16T09:23:41.000Z</Time>
            <Position>
              <LatitudeDegrees>43.43000658787786960601806640625</LatitudeDegrees>
              <LongitudeDegrees>-4.7908164002001285552978515625</LongitudeDegrees>
            </Position>
            <AltitudeMeters>42.40000152587890625</AltitudeMeters>
            <DistanceMeters>NAN</DistanceMeters>
          </Trackpoint>
          <Trackpoint>
            <Time>2022-07-16T09:23:43.000Z</Time>
            <Position>
              <LatitudeDegrees>43.4300237707793712615966796875</LatitudeDegrees>
              <LongitudeDegrees>-4.79088186286389827728271484375</LongitudeDegrees>
            </Position>
            <AltitudeMeters>42.40000152587890625</AltitudeMeters>
            <DistanceMeters>NAN</DistanceMeters>
          </Trackpoint>
          <Trackpoint>
            <Time>2022-07-16T09:23:48.000Z</Time>
            <Position>
              <LatitudeDegrees>43.4301250241696834564208984375</LatitudeDegrees>
              <LongitudeDegrees>-4.790975488722324371337890625</LongitudeDegrees>
            </Position>
            <AltitudeMeters>41.40000152587890625</AltitudeMeters>
            <DistanceMeters>NAN</DistanceMeters>
          </Trackpoint>
          <Trackpoint>
            <Time>2022-07-16T09:23:53.000Z</Time>
            <Position>
              <LatitudeDegrees>43.43025636859238147735595703125</LatitudeDegrees>
              <LongitudeDegrees>-4.79109375737607479095458984375</LongitudeDegrees>
            </Position>
            <AltitudeMeters>40.59999847412109375</AltitudeMeters>
            <DistanceMeters>NAN</DistanceMeters>
          </Trackpoint>
          <Trackpoint>
            <Time>2022-07-16T09:23:55.000Z</Time>
            <Position>
              <LatitudeDegrees>43.43030833639204502105712890625</LatitudeDegrees>
              <LongitudeDegrees>-4.79113985784351825714111328125</LongitudeDegrees>
            </Position>
            <AltitudeMeters>40.40000152587890625</AltitudeMeters>
            <DistanceMeters>NAN</DistanceMeters>
          </Trackpoint>
          <Trackpoint>
            <Time>2022-07-16T09:24:00.000Z</Time>
            <Position>
              <LatitudeDegrees>43.4303821809589862823486328125</LatitudeDegrees>
              <LongitudeDegrees>-4.79127313010394573211669921875</LongitudeDegrees>
            </Position>
            <AltitudeMeters>40</AltitudeMeters>
            <DistanceMeters>NAN</DistanceMeters>
          </Trackpoint>
          <Trackpoint>
            <Time>2022-07-16T09:24:01.000Z</Time>
            <Position>
              <LatitudeDegrees>43.43038494698703289031982421875</LatitudeDegrees>
              <LongitudeDegrees>-4.7912831045687198638916015625</LongitudeDegrees>
            </Position>
            <AltitudeMeters>40.200000762939453125</AltitudeMeters>
            <DistanceMeters>NAN</DistanceMeters>
          </Trackpoint>
          <Trackpoint>
            <Time>2022-07-16T09:24:03.000Z</Time>
            <Position>
              <LatitudeDegrees>43.43038645572960376739501953125</LatitudeDegrees>
              <LongitudeDegrees>-4.79128285311162471771240234375</LongitudeDegrees>
            </Position>
            <AltitudeMeters>40.200000762939453125</AltitudeMeters>
            <DistanceMeters>NAN</DistanceMeters>
          </Trackpoint>
          <Trackpoint>
            <Time>2022-07-16T09:26:23.000Z</Time>
            <Position>
              <LatitudeDegrees>43.43034873716533184051513671875</LatitudeDegrees>
              <LongitudeDegrees>-4.7912706993520259857177734375</LongitudeDegrees>
            </Position>
            <AltitudeMeters>41.59999847412109375</AltitudeMeters>
            <DistanceMeters>NAN</DistanceMeters>
          </Trackpoint>
          <Trackpoint>
            <Time>2022-07-16T09:26:26.000Z</Time>
            <Position>
              <LatitudeDegrees>43.4303109347820281982421875</LatitudeDegrees>
              <LongitudeDegrees>-4.79121730662882328033447265625</LongitudeDegrees>
            </Position>
            <AltitudeMeters>41.200000762939453125</AltitudeMeters>
            <DistanceMeters>NAN</DistanceMeters>
          </Trackpoint>
          <Trackpoint>
            <Time>2022-07-16T09:26:29.000Z</Time>
            <Position>
              <LatitudeDegrees>43.4302872978150844573974609375</LatitudeDegrees>
              <LongitudeDegrees>-4.7911607287824153900146484375</LongitudeDegrees>
            </Position>
            <AltitudeMeters>41.200000762939453125</AltitudeMeters>
            <DistanceMeters>NAN</DistanceMeters>
          </Trackpoint>
          <Trackpoint>
            <Time>2022-07-16T09:26:34.000Z</Time>
            <Position>
              <LatitudeDegrees>43.43023776076734066009521484375</LatitudeDegrees>
              <LongitudeDegrees>-4.791082106530666351318359375</LongitudeDegrees>
            </Position>
            <AltitudeMeters>41.40000152587890625</AltitudeMeters>
            <DistanceMeters>NAN</DistanceMeters>
          </Trackpoint>
          <Trackpoint>
            <Time>2022-07-16T09:26:36.000Z</Time>
            <Position>
              <LatitudeDegrees>43.43021345324814319610595703125</LatitudeDegrees>
              <LongitudeDegrees>-4.79105721227824687957763671875</LongitudeDegrees>
            </Position>
            <AltitudeMeters>41.59999847412109375</AltitudeMeters>
            <DistanceMeters>NAN</DistanceMeters>
          </Trackpoint>
          <Trackpoint>
            <Time>2022-07-16T09:26:49.000Z</Time>
            <Position>
              <LatitudeDegrees>43.43005268834531307220458984375</LatitudeDegrees>
              <LongitudeDegrees>-4.7909196652472019195556640625</LongitudeDegrees>
            </Position>
            <AltitudeMeters>42.40000152587890625</AltitudeMeters>
            <DistanceMeters>NAN</DistanceMeters>
          </Trackpoint>
          <Trackpoint>
            <Time>2022-07-16T09:26:51.000Z</Time>
            <Position>
              <LatitudeDegrees>43.43002771027386188507080078125</LatitudeDegrees>
              <LongitudeDegrees>-4.790905751287937164306640625</LongitudeDegrees>
            </Position>
            <AltitudeMeters>42.59999847412109375</AltitudeMeters>
            <DistanceMeters>NAN</DistanceMeters>
          </Trackpoint>
          <Trackpoint>
            <Time>2022-07-16T09:26:53.000Z</Time>
            <Position>
              <LatitudeDegrees>43.43000256456434726715087890625</LatitudeDegrees>
              <LongitudeDegrees>-4.79090985842049121856689453125</LongitudeDegrees>
            </Position>
            <AltitudeMeters>43</AltitudeMeters>
            <DistanceMeters>NAN</DistanceMeters>
          </Trackpoint>
          <Trackpoint>
            <Time>2022-07-16T09:26:54.000Z</Time>
            <Position>
              <LatitudeDegrees>43.42999518848955631256103515625</LatitudeDegrees>
              <LongitudeDegrees>-4.79092083871364593505859375</LongitudeDegrees>
            </Position>
            <AltitudeMeters>43</AltitudeMeters>
            <DistanceMeters>NAN</DistanceMeters>
          </Trackpoint>
          <Trackpoint>
            <Time>2022-07-16T09:26:55.000Z</Time>
            <Position>
              <LatitudeDegrees>43.42999250628054141998291015625</LatitudeDegrees>
              <LongitudeDegrees>-4.79093936271965503692626953125</LongitudeDegrees>
            </Position>
            <AltitudeMeters>43.200000762939453125</AltitudeMeters>
            <DistanceMeters>NAN</DistanceMeters>
          </Trackpoint>
          <Trackpoint>
            <Time>2022-07-16T09:26:59.000Z</Time>
            <Position>
              <LatitudeDegrees>43.4300093539059162139892578125</LatitudeDegrees>
              <LongitudeDegrees>-4.79101949371397495269775390625</LongitudeDegrees>
            </Position>
            <AltitudeMeters>43.59999847412109375</AltitudeMeters>
            <DistanceMeters>NAN</DistanceMeters>
          </Trackpoint>
          <Trackpoint>
            <Time>2022-07-16T09:27:06.000Z</Time>
            <Position>
              <LatitudeDegrees>43.43003927730023860931396484375</LatitudeDegrees>
              <LongitudeDegrees>-4.7911969386041164398193359375</LongitudeDegrees>
            </Position>
            <AltitudeMeters>43.40000152587890625</AltitudeMeters>
            <DistanceMeters>NAN</DistanceMeters>
          </Trackpoint>
          <Trackpoint>
            <Time>2022-07-16T09:27:07.000Z</Time>
            <Position>
              <LatitudeDegrees>43.43004112131893634796142578125</LatitudeDegrees>
              <LongitudeDegrees>-4.79121881537139415740966796875</LongitudeDegrees>
            </Position>
            <AltitudeMeters>43.40000152587890625</AltitudeMeters>
            <DistanceMeters>NAN</DistanceMeters>
          </Trackpoint>
          <Trackpoint>
            <Time>2022-07-16T09:27:08.000Z</Time>
            <Position>
              <LatitudeDegrees>43.43004078604280948638916015625</LatitudeDegrees>
              <LongitudeDegrees>-4.79124027304351329803466796875</LongitudeDegrees>
            </Position>
            <AltitudeMeters>43.40000152587890625</AltitudeMeters>
            <DistanceMeters>NAN</DistanceMeters>
          </Trackpoint>
          <Trackpoint>
            <Time>2022-07-16T09:27:13.000Z</Time>
            <Position>
              <LatitudeDegrees>43.430068530142307281494140625</LatitudeDegrees>
              <LongitudeDegrees>-4.79137505404651165008544921875</LongitudeDegrees>
            </Position>
            <AltitudeMeters>43</AltitudeMeters>
            <DistanceMeters>NAN</DistanceMeters>
          </Trackpoint>
          <Trackpoint>
            <Time>2022-07-16T09:27:15.000Z</Time>
            <Position>
              <LatitudeDegrees>43.4300871379673480987548828125</LatitudeDegrees>
              <LongitudeDegrees>-4.79145862162113189697265625</LongitudeDegrees>
            </Position>
            <AltitudeMeters>42.59999847412109375</AltitudeMeters>
            <DistanceMeters>NAN</DistanceMeters>
          </Trackpoint>
          <Trackpoint>
            <Time>2022-07-16T09:27:17.000Z</Time>
            <Position>
              <LatitudeDegrees>43.43009778298437595367431640625</LatitudeDegrees>
              <LongitudeDegrees>-4.79155576787889003753662109375</LongitudeDegrees>
            </Position>
            <AltitudeMeters>42</AltitudeMeters>
            <DistanceMeters>NAN</DistanceMeters>
          </Trackpoint>
          <Trackpoint>
            <Time>2022-07-16T09:27:18.000Z</Time>
            <Position>
              <LatitudeDegrees>43.43009644187986850738525390625</LatitudeDegrees>
              <LongitudeDegrees>-4.7916086576879024505615234375</LongitudeDegrees>
            </Position>
            <AltitudeMeters>41.59999847412109375</AltitudeMeters>
            <DistanceMeters>NAN</DistanceMeters>
          </Trackpoint>
          <Trackpoint>
            <Time>2022-07-16T09:27:20.000Z</Time>
            <Position>
              <LatitudeDegrees>43.43009560368955135345458984375</LatitudeDegrees>
              <LongitudeDegrees>-4.791721142828464508056640625</LongitudeDegrees>
            </Position>
            <AltitudeMeters>40.40000152587890625</AltitudeMeters>
            <DistanceMeters>NAN</DistanceMeters>
          </Trackpoint>
          <Trackpoint>
            <Time>2022-07-16T09:27:22.000Z</Time>
            <Position>
              <LatitudeDegrees>43.4301196597516536712646484375</LatitudeDegrees>
              <LongitudeDegrees>-4.7918240725994110107421875</LongitudeDegrees>
            </Position>
            <AltitudeMeters>39.200000762939453125</AltitudeMeters>
            <DistanceMeters>NAN</DistanceMeters>
          </Trackpoint>
          <Trackpoint>
            <Time>2022-07-16T09:27:24.000Z</Time>
            <Position>
              <LatitudeDegrees>43.43016299419105052947998046875</LatitudeDegrees>
              <LongitudeDegrees>-4.79191484861075878143310546875</LongitudeDegrees>
            </Position>
            <AltitudeMeters>38.200000762939453125</AltitudeMeters>
            <DistanceMeters>NAN</DistanceMeters>
          </Trackpoint>
          <Trackpoint>
            <Time>2022-07-16T09:27:25.000Z</Time>
            <Position>
              <LatitudeDegrees>43.43018420040607452392578125</LatitudeDegrees>
              <LongitudeDegrees>-4.791957177221775054931640625</LongitudeDegrees>
            </Position>
            <AltitudeMeters>37.40000152587890625</AltitudeMeters>
            <DistanceMeters>NAN</DistanceMeters>
          </Trackpoint>
          <Trackpoint>
            <Time>2022-07-16T09:27:27.000Z</Time>
            <Position>
              <LatitudeDegrees>43.4302142076194286346435546875</LatitudeDegrees>
              <LongitudeDegrees>-4.7920418344438076019287109375</LongitudeDegrees>
            </Position>
            <AltitudeMeters>35.799999237060546875</AltitudeMeters>
            <DistanceMeters>NAN</DistanceMeters>
          </Trackpoint>
          <Trackpoint>
            <Time>2022-07-16T09:27:29.000Z</Time>
            <Position>
              <LatitudeDegrees>43.430221416056156158447265625</LatitudeDegrees>
              <LongitudeDegrees>-4.79212741367518901824951171875</LongitudeDegrees>
            </Position>
            <AltitudeMeters>33.59999847412109375</AltitudeMeters>
            <DistanceMeters>NAN</DistanceMeters>
          </Trackpoint>
          <Trackpoint>
            <Time>2022-07-16T09:27:31.000Z</Time>
            <Position>
              <LatitudeDegrees>43.4302212484180927276611328125</LatitudeDegrees>
              <LongitudeDegrees>-4.792227409780025482177734375</LongitudeDegrees>
            </Position>
            <AltitudeMeters>32</AltitudeMeters>
            <DistanceMeters>NAN</DistanceMeters>
          </Trackpoint>
          <Trackpoint>
            <Time>2022-07-16T09:27:32.000Z</Time>
            <Position>
              <LatitudeDegrees>43.4302272833883762359619140625</LatitudeDegrees>
              <LongitudeDegrees>-4.7922916151583194732666015625</LongitudeDegrees>
            </Position>
            <AltitudeMeters>31.6000003814697265625</AltitudeMeters>
            <DistanceMeters>NAN</DistanceMeters>
          </Trackpoint>
          <Trackpoint>
            <Time>2022-07-16T09:27:34.000Z</Time>
            <Position>
              <LatitudeDegrees>43.43024723231792449951171875</LatitudeDegrees>
              <LongitudeDegrees>-4.79243653826415538787841796875</LongitudeDegrees>
            </Position>
            <AltitudeMeters>30.6000003814697265625</AltitudeMeters>
            <DistanceMeters>NAN</DistanceMeters>
          </Trackpoint>
          <Trackpoint>
            <Time>2022-07-16T09:27:36.000Z</Time>
            <Position>
              <LatitudeDegrees>43.430256955325603485107421875</LatitudeDegrees>
              <LongitudeDegrees>-4.79257551021873950958251953125</LongitudeDegrees>
            </Position>
            <AltitudeMeters>30</AltitudeMeters>
            <DistanceMeters>NAN</DistanceMeters>
          </Trackpoint>
          <Trackpoint>
            <Time>2022-07-16T09:27:38.000Z</Time>
            <Position>
              <LatitudeDegrees>43.43023055233061313629150390625</LatitudeDegrees>
              <LongitudeDegrees>-4.79266854934394359588623046875</LongitudeDegrees>
            </Position>
            <AltitudeMeters>29.799999237060546875</AltitudeMeters>
            <DistanceMeters>NAN</DistanceMeters>
          </Trackpoint>
          <Trackpoint>
            <Time>2022-07-16T09:27:42.000Z</Time>
            <Position>
              <LatitudeDegrees>43.4301877208054065704345703125</LatitudeDegrees>
              <LongitudeDegrees>-4.7927499376237392425537109375</LongitudeDegrees>
            </Position>
            <AltitudeMeters>30.3999996185302734375</AltitudeMeters>
            <DistanceMeters>NAN</DistanceMeters>
          </Trackpoint>
          <Trackpoint>
            <Time>2022-07-16T09:27:47.000Z</Time>
            <Position>
              <LatitudeDegrees>43.4301795065402984619140625</LatitudeDegrees>
              <LongitudeDegrees>-4.7928840480744838714599609375</LongitudeDegrees>
            </Position>
            <AltitudeMeters>31</AltitudeMeters>
            <DistanceMeters>NAN</DistanceMeters>
          </Trackpoint>
          <Trackpoint>
            <Time>2022-07-16T09:27:52.000Z</Time>
            <Position>
              <LatitudeDegrees>43.430191911756992340087890625</LatitudeDegrees>
              <LongitudeDegrees>-4.79304112493991851806640625</LongitudeDegrees>
            </Position>
            <AltitudeMeters>31.6000003814697265625</AltitudeMeters>
            <DistanceMeters>NAN</DistanceMeters>
          </Trackpoint>
          <Trackpoint>
            <Time>2022-07-16T09:27:56.000Z</Time>
            <Position>
              <LatitudeDegrees>43.4301833622157573699951171875</LatitudeDegrees>
              <LongitudeDegrees>-4.79318923316895961761474609375</LongitudeDegrees>
            </Position>
            <AltitudeMeters>31.6000003814697265625</AltitudeMeters>
            <DistanceMeters>NAN</DistanceMeters>
          </Trackpoint>
          <Trackpoint>
            <Time>2022-07-16T09:28:06.000Z</Time>
            <Position>
              <LatitudeDegrees>43.4301414526998996734619140625</LatitudeDegrees>
              <LongitudeDegrees>-4.79360950179398059844970703125</LongitudeDegrees>
            </Position>
            <AltitudeMeters>31.3999996185302734375</AltitudeMeters>
            <DistanceMeters>NAN</DistanceMeters>
          </Trackpoint>
          <Trackpoint>
            <Time>2022-07-16T09:28:09.000Z</Time>
            <Position>
              <LatitudeDegrees>43.430137932300567626953125</LatitudeDegrees>
              <LongitudeDegrees>-4.7937745414674282073974609375</LongitudeDegrees>
            </Position>
            <AltitudeMeters>31</AltitudeMeters>
            <DistanceMeters>NAN</DistanceMeters>
          </Trackpoint>
          <Trackpoint>
            <Time>2022-07-16T09:28:11.000Z</Time>
            <Position>
              <LatitudeDegrees>43.43014555983245372772216796875</LatitudeDegrees>
              <LongitudeDegrees>-4.79389666579663753509521484375</LongitudeDegrees>
            </Position>
            <AltitudeMeters>30.6000003814697265625</AltitudeMeters>
            <DistanceMeters>NAN</DistanceMeters>
          </Trackpoint>
          <Trackpoint>
            <Time>2022-07-16T09:28:12.000Z</Time>
            <Position>
              <LatitudeDegrees>43.43015394173562526702880859375</LatitudeDegrees>
              <LongitudeDegrees>-4.79396103881299495697021484375</LongitudeDegrees>
            </Position>
            <AltitudeMeters>30.6000003814697265625</AltitudeMeters>
            <DistanceMeters>NAN</DistanceMeters>
          </Trackpoint>
          <Trackpoint>
            <Time>2022-07-16T09:28:15.000Z</Time>
            <Position>
              <LatitudeDegrees>43.43017891980707645416259765625</LatitudeDegrees>
              <LongitudeDegrees>-4.79415901936590671539306640625</LongitudeDegrees>
            </Position>
            <AltitudeMeters>30</AltitudeMeters>
            <DistanceMeters>NAN</DistanceMeters>
          </Trackpoint>
          <Trackpoint>
            <Time>2022-07-16T09:28:17.000Z</Time>
            <Position>
              <LatitudeDegrees>43.43017489649355411529541015625</LatitudeDegrees>
              <LongitudeDegrees>-4.79430167935788631439208984375</LongitudeDegrees>
            </Position>
            <AltitudeMeters>29.6000003814697265625</AltitudeMeters>
            <DistanceMeters>NAN</DistanceMeters>
          </Trackpoint>
          <Trackpoint>
            <Time>2022-07-16T09:28:18.000Z</Time>
            <Position>
              <LatitudeDegrees>43.43017070554196834564208984375</LatitudeDegrees>
              <LongitudeDegrees>-4.794361777603626251220703125</LongitudeDegrees>
            </Position>
            <AltitudeMeters>29.3999996185302734375</AltitudeMeters>
            <DistanceMeters>NAN</DistanceMeters>
          </Trackpoint>
          <Trackpoint>
            <Time>2022-07-16T09:28:21.000Z</Time>
            <Position>
              <LatitudeDegrees>43.4301773272454738616943359375</LatitudeDegrees>
              <LongitudeDegrees>-4.79445138014853000640869140625</LongitudeDegrees>
            </Position>
            <AltitudeMeters>28.3999996185302734375</AltitudeMeters>
            <DistanceMeters>NAN</DistanceMeters>
          </Trackpoint>
          <Trackpoint>
            <Time>2022-07-16T09:28:22.000Z</Time>
            <Position>
              <LatitudeDegrees>43.43017875216901302337646484375</LatitudeDegrees>
              <LongitudeDegrees>-4.7944665513932704925537109375</LongitudeDegrees>
            </Position>
            <AltitudeMeters>28.200000762939453125</AltitudeMeters>
            <DistanceMeters>NAN</DistanceMeters>
          </Trackpoint>
          <Trackpoint>
            <Time>2022-07-16T09:28:23.000Z</Time>
            <Position>
              <LatitudeDegrees>43.43017372302711009979248046875</LatitudeDegrees>
              <LongitudeDegrees>-4.794483147561550140380859375</LongitudeDegrees>
            </Position>
            <AltitudeMeters>28.200000762939453125</AltitudeMeters>
            <DistanceMeters>NAN</DistanceMeters>
          </Trackpoint>
          <Trackpoint>
            <Time>2022-07-16T09:28:25.000Z</Time>
            <Position>
              <LatitudeDegrees>43.430164419114589691162109375</LatitudeDegrees>
              <LongitudeDegrees>-4.79452706873416900634765625</LongitudeDegrees>
            </Position>
            <AltitudeMeters>28</AltitudeMeters>
            <DistanceMeters>NAN</DistanceMeters>
          </Trackpoint>
          <Trackpoint>
            <Time>2022-07-16T09:28:31.000Z</Time>
            <Position>
              <LatitudeDegrees>43.43020808883011341094970703125</LatitudeDegrees>
              <LongitudeDegrees>-4.79473225772380828857421875</LongitudeDegrees>
            </Position>
            <AltitudeMeters>28.3999996185302734375</AltitudeMeters>
            <DistanceMeters>NAN</DistanceMeters>
          </Trackpoint>
          <Trackpoint>
            <Time>2022-07-16T09:28:37.000Z</Time>
            <Position>
              <LatitudeDegrees>43.43022015877068042755126953125</LatitudeDegrees>
              <LongitudeDegrees>-4.79494792409241199493408203125</LongitudeDegrees>
            </Position>
            <AltitudeMeters>28</AltitudeMeters>
            <DistanceMeters>NAN</DistanceMeters>
          </Trackpoint>
          <Trackpoint>
            <Time>2022-07-16T09:28:43.000Z</Time>
            <Position>
              <LatitudeDegrees>43.43016869388520717620849609375</LatitudeDegrees>
              <LongitudeDegrees>-4.7950878180563449859619140625</LongitudeDegrees>
            </Position>
            <AltitudeMeters>28.3999996185302734375</AltitudeMeters>
            <DistanceMeters>NAN</DistanceMeters>
          </Trackpoint>
          <Trackpoint>
            <Time>2022-07-16T09:28:51.000Z</Time>
            <Position>
              <LatitudeDegrees>43.43008889816701412200927734375</LatitudeDegrees>
              <LongitudeDegrees>-4.7952143847942352294921875</LongitudeDegrees>
            </Position>
            <AltitudeMeters>29</AltitudeMeters>
            <DistanceMeters>NAN</DistanceMeters>
          </Trackpoint>
          <Trackpoint>
            <Time>2022-07-16T09:28:53.000Z</Time>
            <Position>
              <LatitudeDegrees>43.43007959425449371337890625</LatitudeDegrees>
              <LongitudeDegrees>-4.79524145834147930145263671875</LongitudeDegrees>
            </Position>
            <AltitudeMeters>29.200000762939453125</AltitudeMeters>
            <DistanceMeters>NAN</DistanceMeters>
          </Trackpoint>
          <Trackpoint>
            <Time>2022-07-16T09:28:56.000Z</Time>
            <Position>
              <LatitudeDegrees>43.430054448544979095458984375</LatitudeDegrees>
              <LongitudeDegrees>-4.79528839699923992156982421875</LongitudeDegrees>
            </Position>
            <AltitudeMeters>29.200000762939453125</AltitudeMeters>
            <DistanceMeters>NAN</DistanceMeters>
          </Trackpoint>
          <Trackpoint>
            <Time>2022-07-16T09:28:59.000Z</Time>
            <Position>
              <LatitudeDegrees>43.43004162423312664031982421875</LatitudeDegrees>
              <LongitudeDegrees>-4.79533919133245944976806640625</LongitudeDegrees>
            </Position>
            <AltitudeMeters>29.3999996185302734375</AltitudeMeters>
            <DistanceMeters>NAN</DistanceMeters>
          </Trackpoint>
          <Trackpoint>
            <Time>2022-07-16T09:29:00.000Z</Time>
            <Position>
              <LatitudeDegrees>43.43003760091960430145263671875</LatitudeDegrees>
              <LongitudeDegrees>-4.7953553684055805206298828125</LongitudeDegrees>
            </Position>
            <AltitudeMeters>29.6000003814697265625</AltitudeMeters>
            <DistanceMeters>NAN</DistanceMeters>
          </Trackpoint>
          <Trackpoint>
            <Time>2022-07-16T09:29:05.000Z</Time>
            <Position>
              <LatitudeDegrees>43.43000357039272785186767578125</LatitudeDegrees>
              <LongitudeDegrees>-4.79543591849505901336669921875</LongitudeDegrees>
            </Position>
            <AltitudeMeters>30.200000762939453125</AltitudeMeters>
            <DistanceMeters>NAN</DistanceMeters>
          </Trackpoint>
          <Trackpoint>
            <Time>2022-07-16T09:29:09.000Z</Time>
            <Position>
              <LatitudeDegrees>43.429975993931293487548828125</LatitudeDegrees>
              <LongitudeDegrees>-4.79549668729305267333984375</LongitudeDegrees>
            </Position>
            <AltitudeMeters>30.6000003814697265625</AltitudeMeters>
            <DistanceMeters>NAN</DistanceMeters>
          </Trackpoint>
          <Trackpoint>
            <Time>2022-07-16T09:29:12.000Z</Time>
            <Position>
              <LatitudeDegrees>43.429957218468189239501953125</LatitudeDegrees>
              <LongitudeDegrees>-4.7955454699695110321044921875</LongitudeDegrees>
            </Position>
            <AltitudeMeters>31.200000762939453125</AltitudeMeters>
            <DistanceMeters>NAN</DistanceMeters>
          </Trackpoint>
          <Trackpoint>
            <Time>2022-07-16T09:29:13.000Z</Time>
            <Position>
              <LatitudeDegrees>43.4299583919346332550048828125</LatitudeDegrees>
              <LongitudeDegrees>-4.79556600563228130340576171875</LongitudeDegrees>
            </Position>
            <AltitudeMeters>31.3999996185302734375</AltitudeMeters>
            <DistanceMeters>NAN</DistanceMeters>
          </Trackpoint>
          <Trackpoint>
            <Time>2022-07-16T09:29:14.000Z</Time>
            <Position>
              <LatitudeDegrees>43.4299674443900585174560546875</LatitudeDegrees>
              <LongitudeDegrees>-4.79558193124830722808837890625</LongitudeDegrees>
            </Position>
            <AltitudeMeters>31.3999996185302734375</AltitudeMeters>
            <DistanceMeters>NAN</DistanceMeters>
          </Trackpoint>
          <Trackpoint>
            <Time>2022-07-16T09:29:17.000Z</Time>
            <Position>
              <LatitudeDegrees>43.43004715628921985626220703125</LatitudeDegrees>
              <LongitudeDegrees>-4.7956178896129131317138671875</LongitudeDegrees>
            </Position>
            <AltitudeMeters>31.3999996185302734375</AltitudeMeters>
            <DistanceMeters>NAN</DistanceMeters>
          </Trackpoint>
          <Trackpoint>
            <Time>2022-07-16T09:29:24.000Z</Time>
            <Position>
              <LatitudeDegrees>43.43027648515999317169189453125</LatitudeDegrees>
              <LongitudeDegrees>-4.79568720795214176177978515625</LongitudeDegrees>
            </Position>
            <AltitudeMeters>30</AltitudeMeters>
            <DistanceMeters>NAN</DistanceMeters>
          </Trackpoint>
          <Trackpoint>
            <Time>2022-07-16T09:29:29.000Z</Time>
            <Position>
              <LatitudeDegrees>43.43051101081073284149169921875</LatitudeDegrees>
              <LongitudeDegrees>-4.79579583741724491119384765625</LongitudeDegrees>
            </Position>
            <AltitudeMeters>29.200000762939453125</AltitudeMeters>
            <DistanceMeters>NAN</DistanceMeters>
          </Trackpoint>
          <Trackpoint>
            <Time>2022-07-16T09:29:31.000Z</Time>
            <Position>
              <LatitudeDegrees>43.4306041337549686431884765625</LatitudeDegrees>
              <LongitudeDegrees>-4.7958354838192462921142578125</LongitudeDegrees>
            </Position>
            <AltitudeMeters>28.799999237060546875</AltitudeMeters>
            <DistanceMeters>NAN</DistanceMeters>
          </Trackpoint>
          <Trackpoint>
            <Time>2022-07-16T09:29:37.000Z</Time>
            <Position>
              <LatitudeDegrees>43.43082650564610958099365234375</LatitudeDegrees>
              <LongitudeDegrees>-4.79593698866665363311767578125</LongitudeDegrees>
            </Position>
            <AltitudeMeters>28.200000762939453125</AltitudeMeters>
            <DistanceMeters>NAN</DistanceMeters>
          </Trackpoint>
          <Trackpoint>
            <Time>2022-07-16T09:29:39.000Z</Time>
            <Position>
              <LatitudeDegrees>43.43087847344577312469482421875</LatitudeDegrees>
              <LongitudeDegrees>-4.795975126326084136962890625</LongitudeDegrees>
            </Position>
            <AltitudeMeters>28.200000762939453125</AltitudeMeters>
            <DistanceMeters>NAN</DistanceMeters>
          </Trackpoint>
          <Trackpoint>
            <Time>2022-07-16T09:29:41.000Z</Time>
            <Position>
              <LatitudeDegrees>43.43093547038733959197998046875</LatitudeDegrees>
              <LongitudeDegrees>-4.796021394431591033935546875</LongitudeDegrees>
            </Position>
            <AltitudeMeters>28.200000762939453125</AltitudeMeters>
            <DistanceMeters>NAN</DistanceMeters>
          </Trackpoint>
          <Trackpoint>
            <Time>2022-07-16T09:29:43.000Z</Time>
            <Position>
              <LatitudeDegrees>43.43098525889217853546142578125</LatitudeDegrees>
              <LongitudeDegrees>-4.7960815764963626861572265625</LongitudeDegrees>
            </Position>
            <AltitudeMeters>28.3999996185302734375</AltitudeMeters>
            <DistanceMeters>NAN</DistanceMeters>
          </Trackpoint>
          <Trackpoint>
            <Time>2022-07-16T09:29:46.000Z</Time>
            <Position>
              <LatitudeDegrees>43.4310396574437618255615234375</LatitudeDegrees>
              <LongitudeDegrees>-4.79618542827665805816650390625</LongitudeDegrees>
            </Position>
            <AltitudeMeters>28.6000003814697265625</AltitudeMeters>
            <DistanceMeters>NAN</DistanceMeters>
          </Trackpoint>
          <Trackpoint>
            <Time>2022-07-16T09:29:52.000Z</Time>
            <Position>
              <LatitudeDegrees>43.431168235838413238525390625</LatitudeDegrees>
              <LongitudeDegrees>-4.7964047826826572418212890625</LongitudeDegrees>
            </Position>
            <AltitudeMeters>28</AltitudeMeters>
            <DistanceMeters>NAN</DistanceMeters>
          </Trackpoint>
          <Trackpoint>
            <Time>2022-07-16T09:29:56.000Z</Time>
            <Position>
              <LatitudeDegrees>43.4312267415225505828857421875</LatitudeDegrees>
              <LongitudeDegrees>-4.79656294919550418853759765625</LongitudeDegrees>
            </Position>
            <AltitudeMeters>27.6000003814697265625</AltitudeMeters>
            <DistanceMeters>NAN</DistanceMeters>
          </Trackpoint>
          <Trackpoint>
            <Time>2022-07-16T09:29:58.000Z</Time>
            <Position>
              <LatitudeDegrees>43.43124157749116420745849609375</LatitudeDegrees>
              <LongitudeDegrees>-4.79663335718214511871337890625</LongitudeDegrees>
            </Position>
            <AltitudeMeters>27.3999996185302734375</AltitudeMeters>
            <DistanceMeters>NAN</DistanceMeters>
          </Trackpoint>
          <Trackpoint>
            <Time>2022-07-16T09:30:04.000Z</Time>
            <Position>
              <LatitudeDegrees>43.4312658011913299560546875</LatitudeDegrees>
              <LongitudeDegrees>-4.79682379402220249176025390625</LongitudeDegrees>
            </Position>
            <AltitudeMeters>27.200000762939453125</AltitudeMeters>
            <DistanceMeters>NAN</DistanceMeters>
          </Trackpoint>
          <Trackpoint>
            <Time>2022-07-16T09:30:05.000Z</Time>
            <Position>
              <LatitudeDegrees>43.43126672320067882537841796875</LatitudeDegrees>
              <LongitudeDegrees>-4.79684717953205108642578125</LongitudeDegrees>
            </Position>
            <AltitudeMeters>27.200000762939453125</AltitudeMeters>
            <DistanceMeters>NAN</DistanceMeters>
          </Trackpoint>
          <Trackpoint>
            <Time>2022-07-16T09:30:13.000Z</Time>
            <Position>
              <LatitudeDegrees>43.43126739375293254852294921875</LatitudeDegrees>
              <LongitudeDegrees>-4.79705178178846836090087890625</LongitudeDegrees>
            </Position>
            <AltitudeMeters>27.200000762939453125</AltitudeMeters>
            <DistanceMeters>NAN</DistanceMeters>
          </Trackpoint>
          <Trackpoint>
            <Time>2022-07-16T09:30:17.000Z</Time>
            <Position>
              <LatitudeDegrees>43.43127208761870861053466796875</LatitudeDegrees>
              <LongitudeDegrees>-4.79721154086291790008544921875</LongitudeDegrees>
            </Position>
            <AltitudeMeters>26.799999237060546875</AltitudeMeters>
            <DistanceMeters>NAN</DistanceMeters>
          </Trackpoint>
          <Trackpoint>
            <Time>2022-07-16T09:30:24.000Z</Time>
            <Position>
              <LatitudeDegrees>43.43123654834926128387451171875</LatitudeDegrees>
              <LongitudeDegrees>-4.79746936820447444915771484375</LongitudeDegrees>
            </Position>
            <AltitudeMeters>26.6000003814697265625</AltitudeMeters>
            <DistanceMeters>NAN</DistanceMeters>
          </Trackpoint>
          <Trackpoint>
            <Time>2022-07-16T09:30:33.000Z</Time>
            <Position>
              <LatitudeDegrees>43.43117301352322101593017578125</LatitudeDegrees>
              <LongitudeDegrees>-4.7978447936475276947021484375</LongitudeDegrees>
            </Position>
            <AltitudeMeters>27.3999996185302734375</AltitudeMeters>
            <DistanceMeters>NAN</DistanceMeters>
          </Trackpoint>
          <Trackpoint>
            <Time>2022-07-16T09:30:41.000Z</Time>
            <Position>
              <LatitudeDegrees>43.43115356750786304473876953125</LatitudeDegrees>
              <LongitudeDegrees>-4.79811846278607845306396484375</LongitudeDegrees>
            </Position>
            <AltitudeMeters>27.200000762939453125</AltitudeMeters>
            <DistanceMeters>NAN</DistanceMeters>
          </Trackpoint>
          <Trackpoint>
            <Time>2022-07-16T09:30:48.000Z</Time>
            <Position>
              <LatitudeDegrees>43.4311397373676300048828125</LatitudeDegrees>
              <LongitudeDegrees>-4.79826162569224834442138671875</LongitudeDegrees>
            </Position>
            <AltitudeMeters>28</AltitudeMeters>
            <DistanceMeters>NAN</DistanceMeters>
          </Trackpoint>
          <Trackpoint>
            <Time>2022-07-16T09:30:51.000Z</Time>
            <Position>
              <LatitudeDegrees>43.43114049173891544342041015625</LatitudeDegrees>
              <LongitudeDegrees>-4.79830705560743808746337890625</LongitudeDegrees>
            </Position>
            <AltitudeMeters>28.3999996185302734375</AltitudeMeters>
            <DistanceMeters>NAN</DistanceMeters>
          </Trackpoint>
          <Trackpoint>
            <Time>2022-07-16T09:30:57.000Z</Time>
            <Position>
              <LatitudeDegrees>43.4311207942664623260498046875</LatitudeDegrees>
              <LongitudeDegrees>-4.79840596206486225128173828125</LongitudeDegrees>
            </Position>
            <AltitudeMeters>29.3999996185302734375</AltitudeMeters>
            <DistanceMeters>NAN</DistanceMeters>
          </Trackpoint>
          <Trackpoint>
            <Time>2022-07-16T09:30:58.000Z</Time>
            <Position>
              <LatitudeDegrees>43.4311144240200519561767578125</LatitudeDegrees>
              <LongitudeDegrees>-4.79842524044215679168701171875</LongitudeDegrees>
            </Position>
            <AltitudeMeters>29.3999996185302734375</AltitudeMeters>
            <DistanceMeters>NAN</DistanceMeters>
          </Trackpoint>
          <Trackpoint>
            <Time>2022-07-16T09:31:05.000Z</Time>
            <Position>
              <LatitudeDegrees>43.4310860931873321533203125</LatitudeDegrees>
              <LongitudeDegrees>-4.79854225181043148040771484375</LongitudeDegrees>
            </Position>
            <AltitudeMeters>30.3999996185302734375</AltitudeMeters>
            <DistanceMeters>NAN</DistanceMeters>
          </Trackpoint>
          <Trackpoint>
            <Time>2022-07-16T09:31:06.000Z</Time>
            <Position>
              <LatitudeDegrees>43.4310815669596195220947265625</LatitudeDegrees>
              <LongitudeDegrees>-4.79856102727353572845458984375</LongitudeDegrees>
            </Position>
            <AltitudeMeters>30.6000003814697265625</AltitudeMeters>
            <DistanceMeters>NAN</DistanceMeters>
          </Trackpoint>
          <Trackpoint>
            <Time>2022-07-16T09:31:10.000Z</Time>
            <Position>
              <LatitudeDegrees>43.43107393942773342132568359375</LatitudeDegrees>
              <LongitudeDegrees>-4.79862280189990997314453125</LongitudeDegrees>
            </Position>
            <AltitudeMeters>31.200000762939453125</AltitudeMeters>
            <DistanceMeters>NAN</DistanceMeters>
          </Trackpoint>
          <Trackpoint>
            <Time>2022-07-16T09:31:11.000Z</Time>
            <Position>
              <LatitudeDegrees>43.43106857500970363616943359375</LatitudeDegrees>
              <LongitudeDegrees>-4.79863311164081096649169921875</LongitudeDegrees>
            </Position>
            <AltitudeMeters>31.3999996185302734375</AltitudeMeters>
            <DistanceMeters>NAN</DistanceMeters>
          </Trackpoint>
          <Trackpoint>
            <Time>2022-07-16T09:31:13.000Z</Time>
            <Position>
              <LatitudeDegrees>43.43105298466980457305908203125</LatitudeDegrees>
              <LongitudeDegrees>-4.79866169393062591552734375</LongitudeDegrees>
            </Position>
            <AltitudeMeters>31.6000003814697265625</AltitudeMeters>
            <DistanceMeters>NAN</DistanceMeters>
          </Trackpoint>
          <Trackpoint>
            <Time>2022-07-16T09:31:14.000Z</Time>
            <Position>
              <LatitudeDegrees>43.4310523979365825653076171875</LatitudeDegrees>
              <LongitudeDegrees>-4.7986786253750324249267578125</LongitudeDegrees>
            </Position>
            <AltitudeMeters>31.799999237060546875</AltitudeMeters>
            <DistanceMeters>NAN</DistanceMeters>
          </Trackpoint>
          <Trackpoint>
            <Time>2022-07-16T09:31:15.000Z</Time>
            <Position>
              <LatitudeDegrees>43.43105114065110683441162109375</LatitudeDegrees>
              <LongitudeDegrees>-4.7986958920955657958984375</LongitudeDegrees>
            </Position>
            <AltitudeMeters>32</AltitudeMeters>
            <DistanceMeters>NAN</DistanceMeters>
          </Trackpoint>
          <Trackpoint>
            <Time>2022-07-16T09:31:20.000Z</Time>
            <Position>
              <LatitudeDegrees>43.43101970851421356201171875</LatitudeDegrees>
              <LongitudeDegrees>-4.79878465645015239715576171875</LongitudeDegrees>
            </Position>
            <AltitudeMeters>32.59999847412109375</AltitudeMeters>
            <DistanceMeters>NAN</DistanceMeters>
          </Trackpoint>
          <Trackpoint>
            <Time>2022-07-16T09:31:22.000Z</Time>
            <Position>
              <LatitudeDegrees>43.4310088120400905609130859375</LatitudeDegrees>
              <LongitudeDegrees>-4.798813574016094207763671875</LongitudeDegrees>
            </Position>
            <AltitudeMeters>33</AltitudeMeters>
            <DistanceMeters>NAN</DistanceMeters>
          </Trackpoint>
          <Trackpoint>
            <Time>2022-07-16T09:31:25.000Z</Time>
            <Position>
              <LatitudeDegrees>43.4309895336627960205078125</LatitudeDegrees>
              <LongitudeDegrees>-4.79885355569422245025634765625</LongitudeDegrees>
            </Position>
            <AltitudeMeters>33.59999847412109375</AltitudeMeters>
            <DistanceMeters>NAN</DistanceMeters>
          </Trackpoint>
          <Trackpoint>
            <Time>2022-07-16T09:31:27.000Z</Time>
            <Position>
              <LatitudeDegrees>43.43097972683608531951904296875</LatitudeDegrees>
              <LongitudeDegrees>-4.79888574220240116119384765625</LongitudeDegrees>
            </Position>
            <AltitudeMeters>33.799999237060546875</AltitudeMeters>
            <DistanceMeters>NAN</DistanceMeters>
          </Trackpoint>
          <Trackpoint>
            <Time>2022-07-16T09:31:35.000Z</Time>
            <Position>
              <LatitudeDegrees>43.43094301410019397735595703125</LatitudeDegrees>
              <LongitudeDegrees>-4.79901381768286228179931640625</LongitudeDegrees>
            </Position>
            <AltitudeMeters>34.799999237060546875</AltitudeMeters>
            <DistanceMeters>NAN</DistanceMeters>
          </Trackpoint>
          <Trackpoint>
            <Time>2022-07-16T09:31:36.000Z</Time>
            <Position>
              <LatitudeDegrees>43.43094058334827423095703125</LatitudeDegrees>
              <LongitudeDegrees>-4.7990303300321102142333984375</LongitudeDegrees>
            </Position>
            <AltitudeMeters>35</AltitudeMeters>
            <DistanceMeters>NAN</DistanceMeters>
          </Trackpoint>
          <Trackpoint>
            <Time>2022-07-16T09:31:38.000Z</Time>
            <Position>
              <LatitudeDegrees>43.4309350512921810150146484375</LatitudeDegrees>
              <LongitudeDegrees>-4.79906142689287662506103515625</LongitudeDegrees>
            </Position>
            <AltitudeMeters>35.200000762939453125</AltitudeMeters>
            <DistanceMeters>NAN</DistanceMeters>
          </Trackpoint>
          <Trackpoint>
            <Time>2022-07-16T09:31:41.000Z</Time>
            <Position>
              <LatitudeDegrees>43.43092876486480236053466796875</LatitudeDegrees>
              <LongitudeDegrees>-4.79910953901708126068115234375</LongitudeDegrees>
            </Position>
            <AltitudeMeters>35.59999847412109375</AltitudeMeters>
            <DistanceMeters>NAN</DistanceMeters>
          </Trackpoint>
          <Trackpoint>
            <Time>2022-07-16T09:31:42.000Z</Time>
            <Position>
              <LatitudeDegrees>43.43092641793191432952880859375</LatitudeDegrees>
              <LongitudeDegrees>-4.79912571609020233154296875</LongitudeDegrees>
            </Position>
            <AltitudeMeters>35.799999237060546875</AltitudeMeters>
            <DistanceMeters>NAN</DistanceMeters>
          </Trackpoint>
          <Trackpoint>
            <Time>2022-07-16T09:31:43.000Z</Time>
            <Position>
              <LatitudeDegrees>43.43092340044677257537841796875</LatitudeDegrees>
              <LongitudeDegrees>-4.7991411387920379638671875</LongitudeDegrees>
            </Position>
            <AltitudeMeters>36</AltitudeMeters>
            <DistanceMeters>NAN</DistanceMeters>
          </Trackpoint>
          <Trackpoint>
            <Time>2022-07-16T09:31:44.000Z</Time>
            <Position>
              <LatitudeDegrees>43.43092105351388454437255859375</LatitudeDegrees>
              <LongitudeDegrees>-4.7991572320461273193359375</LongitudeDegrees>
            </Position>
            <AltitudeMeters>36</AltitudeMeters>
            <DistanceMeters>NAN</DistanceMeters>
          </Trackpoint>
          <Trackpoint>
            <Time>2022-07-16T09:31:46.000Z</Time>
            <Position>
              <LatitudeDegrees>43.43091242015361785888671875</LatitudeDegrees>
              <LongitudeDegrees>-4.7991905920207500457763671875</LongitudeDegrees>
            </Position>
            <AltitudeMeters>36.40000152587890625</AltitudeMeters>
            <DistanceMeters>NAN</DistanceMeters>
          </Trackpoint>
          <Trackpoint>
            <Time>2022-07-16T09:31:50.000Z</Time>
            <Position>
              <LatitudeDegrees>43.43090496025979518890380859375</LatitudeDegrees>
              <LongitudeDegrees>-4.799254126846790313720703125</LongitudeDegrees>
            </Position>
            <AltitudeMeters>37.200000762939453125</AltitudeMeters>
            <DistanceMeters>NAN</DistanceMeters>
          </Trackpoint>
          <Trackpoint>
            <Time>2022-07-16T09:31:55.000Z</Time>
            <Position>
              <LatitudeDegrees>43.4309008531272411346435546875</LatitudeDegrees>
              <LongitudeDegrees>-4.79933568276464939117431640625</LongitudeDegrees>
            </Position>
            <AltitudeMeters>38.200000762939453125</AltitudeMeters>
            <DistanceMeters>NAN</DistanceMeters>
          </Trackpoint>
          <Trackpoint>
            <Time>2022-07-16T09:31:57.000Z</Time>
            <Position>
              <LatitudeDegrees>43.4308988414704799652099609375</LatitudeDegrees>
              <LongitudeDegrees>-4.79936979711055755615234375</LongitudeDegrees>
            </Position>
            <AltitudeMeters>39</AltitudeMeters>
            <DistanceMeters>NAN</DistanceMeters>
          </Trackpoint>
          <Trackpoint>
            <Time>2022-07-16T09:31:58.000Z</Time>
            <Position>
              <LatitudeDegrees>43.43089791946113109588623046875</LatitudeDegrees>
              <LongitudeDegrees>-4.7993900813162326812744140625</LongitudeDegrees>
            </Position>
            <AltitudeMeters>39.40000152587890625</AltitudeMeters>
            <DistanceMeters>NAN</DistanceMeters>
          </Trackpoint>
          <Trackpoint>
            <Time>2022-07-16T09:32:03.000Z</Time>
            <Position>
              <LatitudeDegrees>43.4308971650898456573486328125</LatitudeDegrees>
              <LongitudeDegrees>-4.79946828447282314300537109375</LongitudeDegrees>
            </Position>
            <AltitudeMeters>40.40000152587890625</AltitudeMeters>
            <DistanceMeters>NAN</DistanceMeters>
          </Trackpoint>
          <Trackpoint>
            <Time>2022-07-16T09:32:05.000Z</Time>
            <Position>
              <LatitudeDegrees>43.43089037574827671051025390625</LatitudeDegrees>
              <LongitudeDegrees>-4.79949728585779666900634765625</LongitudeDegrees>
            </Position>
            <AltitudeMeters>40.799999237060546875</AltitudeMeters>
            <DistanceMeters>NAN</DistanceMeters>
          </Trackpoint>
          <Trackpoint>
            <Time>2022-07-16T09:32:08.000Z</Time>
            <Position>
              <LatitudeDegrees>43.43087880872189998626708984375</LatitudeDegrees>
              <LongitudeDegrees>-4.79954640381038188934326171875</LongitudeDegrees>
            </Position>
            <AltitudeMeters>41.59999847412109375</AltitudeMeters>
            <DistanceMeters>NAN</DistanceMeters>
          </Trackpoint>
          <Trackpoint>
            <Time>2022-07-16T09:32:14.000Z</Time>
            <Position>
              <LatitudeDegrees>43.430851064622402191162109375</LatitudeDegrees>
              <LongitudeDegrees>-4.7996324859559535980224609375</LongitudeDegrees>
            </Position>
            <AltitudeMeters>42.799999237060546875</AltitudeMeters>
            <DistanceMeters>NAN</DistanceMeters>
          </Trackpoint>
          <Trackpoint>
            <Time>2022-07-16T09:32:16.000Z</Time>
            <Position>
              <LatitudeDegrees>43.430845700204372406005859375</LatitudeDegrees>
              <LongitudeDegrees>-4.79966073296964168548583984375</LongitudeDegrees>
            </Position>
            <AltitudeMeters>43.200000762939453125</AltitudeMeters>
            <DistanceMeters>NAN</DistanceMeters>
          </Trackpoint>
          <Trackpoint>
            <Time>2022-07-16T09:32:20.000Z</Time>
            <Position>
              <LatitudeDegrees>43.430824913084506988525390625</LatitudeDegrees>
              <LongitudeDegrees>-4.79971370659768581390380859375</LongitudeDegrees>
            </Position>
            <AltitudeMeters>43.799999237060546875</AltitudeMeters>
            <DistanceMeters>NAN</DistanceMeters>
          </Trackpoint>
          <Trackpoint>
            <Time>2022-07-16T09:32:24.000Z</Time>
            <Position>
              <LatitudeDegrees>43.43081259168684482574462890625</LatitudeDegrees>
              <LongitudeDegrees>-4.7997716255486011505126953125</LongitudeDegrees>
            </Position>
            <AltitudeMeters>45</AltitudeMeters>
            <DistanceMeters>NAN</DistanceMeters>
          </Trackpoint>
          <Trackpoint>
            <Time>2022-07-16T09:32:26.000Z</Time>
            <Position>
              <LatitudeDegrees>43.430807478725910186767578125</LatitudeDegrees>
              <LongitudeDegrees>-4.79980456642806529998779296875</LongitudeDegrees>
            </Position>
            <AltitudeMeters>45.40000152587890625</AltitudeMeters>
            <DistanceMeters>NAN</DistanceMeters>
          </Trackpoint>
          <Trackpoint>
            <Time>2022-07-16T09:32:33.000Z</Time>
            <Position>
              <LatitudeDegrees>43.4307788126170635223388671875</LatitudeDegrees>
              <LongitudeDegrees>-4.799907244741916656494140625</LongitudeDegrees>
            </Position>
            <AltitudeMeters>46</AltitudeMeters>
            <DistanceMeters>NAN</DistanceMeters>
          </Trackpoint>
          <Trackpoint>
            <Time>2022-07-16T09:32:34.000Z</Time>
            <Position>
              <LatitudeDegrees>43.430775962769985198974609375</LatitudeDegrees>
              <LongitudeDegrees>-4.79992291890084743499755859375</LongitudeDegrees>
            </Position>
            <AltitudeMeters>46.200000762939453125</AltitudeMeters>
            <DistanceMeters>NAN</DistanceMeters>
          </Trackpoint>
          <Trackpoint>
            <Time>2022-07-16T09:32:42.000Z</Time>
            <Position>
              <LatitudeDegrees>43.43072307296097278594970703125</LatitudeDegrees>
              <LongitudeDegrees>-4.8000334762036800384521484375</LongitudeDegrees>
            </Position>
            <AltitudeMeters>46.200000762939453125</AltitudeMeters>
            <DistanceMeters>NAN</DistanceMeters>
          </Trackpoint>
          <Trackpoint>
            <Time>2022-07-16T09:32:49.000Z</Time>
            <Position>
              <LatitudeDegrees>43.43065450899302959442138671875</LatitudeDegrees>
              <LongitudeDegrees>-4.800158701837062835693359375</LongitudeDegrees>
            </Position>
            <AltitudeMeters>46.799999237060546875</AltitudeMeters>
            <DistanceMeters>NAN</DistanceMeters>
          </Trackpoint>
          <Trackpoint>
            <Time>2022-07-16T09:32:56.000Z</Time>
            <Position>
              <LatitudeDegrees>43.430570103228092193603515625</LatitudeDegrees>
              <LongitudeDegrees>-4.80027370154857635498046875</LongitudeDegrees>
            </Position>
            <AltitudeMeters>46.59999847412109375</AltitudeMeters>
            <DistanceMeters>NAN</DistanceMeters>
          </Trackpoint>
          <Trackpoint>
            <Time>2022-07-16T09:33:03.000Z</Time>
            <Position>
              <LatitudeDegrees>43.43047195114195346832275390625</LatitudeDegrees>
              <LongitudeDegrees>-4.80040588416159152984619140625</LongitudeDegrees>
            </Position>
            <AltitudeMeters>46.799999237060546875</AltitudeMeters>
            <DistanceMeters>NAN</DistanceMeters>
          </Trackpoint>
          <Trackpoint>
            <Time>2022-07-16T09:33:07.000Z</Time>
            <Position>
              <LatitudeDegrees>43.43046574853360652923583984375</LatitudeDegrees>
              <LongitudeDegrees>-4.80051082558929920196533203125</LongitudeDegrees>
            </Position>
            <AltitudeMeters>47</AltitudeMeters>
            <DistanceMeters>NAN</DistanceMeters>
          </Trackpoint>
          <Trackpoint>
            <Time>2022-07-16T09:33:09.000Z</Time>
            <Position>
              <LatitudeDegrees>43.43046507798135280609130859375</LatitudeDegrees>
              <LongitudeDegrees>-4.80055659078061580657958984375</LongitudeDegrees>
            </Position>
            <AltitudeMeters>47.200000762939453125</AltitudeMeters>
            <DistanceMeters>NAN</DistanceMeters>
          </Trackpoint>
          <Trackpoint>
            <Time>2022-07-16T09:33:15.000Z</Time>
            <Position>
              <LatitudeDegrees>43.430415205657482147216796875</LatitudeDegrees>
              <LongitudeDegrees>-4.800685085356235504150390625</LongitudeDegrees>
            </Position>
            <AltitudeMeters>47.40000152587890625</AltitudeMeters>
            <DistanceMeters>NAN</DistanceMeters>
          </Trackpoint>
          <Trackpoint>
            <Time>2022-07-16T09:33:21.000Z</Time>
            <Position>
              <LatitudeDegrees>43.4302926622331142425537109375</LatitudeDegrees>
              <LongitudeDegrees>-4.8008297570049762725830078125</LongitudeDegrees>
            </Position>
            <AltitudeMeters>46.200000762939453125</AltitudeMeters>
            <DistanceMeters>NAN</DistanceMeters>
          </Trackpoint>
          <Trackpoint>
            <Time>2022-07-16T09:33:22.000Z</Time>
            <Position>
              <LatitudeDegrees>43.4302722103893756866455078125</LatitudeDegrees>
              <LongitudeDegrees>-4.80085347779095172882080078125</LongitudeDegrees>
            </Position>
            <AltitudeMeters>45.799999237060546875</AltitudeMeters>
            <DistanceMeters>NAN</DistanceMeters>
          </Trackpoint>
          <Trackpoint>
            <Time>2022-07-16T09:33:28.000Z</Time>
            <Position>
              <LatitudeDegrees>43.43010842800140380859375</LatitudeDegrees>
              <LongitudeDegrees>-4.8009756021201610565185546875</LongitudeDegrees>
            </Position>
            <AltitudeMeters>44.40000152587890625</AltitudeMeters>
            <DistanceMeters>NAN</DistanceMeters>
          </Trackpoint>
          <Trackpoint>
            <Time>2022-07-16T09:33:31.000Z</Time>
            <Position>
              <LatitudeDegrees>43.429976999759674072265625</LatitudeDegrees>
              <LongitudeDegrees>-4.80109102092683315277099609375</LongitudeDegrees>
            </Position>
            <AltitudeMeters>43.40000152587890625</AltitudeMeters>
            <DistanceMeters>NAN</DistanceMeters>
          </Trackpoint>
          <Trackpoint>
            <Time>2022-07-16T09:33:32.000Z</Time>
            <Position>
              <LatitudeDegrees>43.429931737482547760009765625</LatitudeDegrees>
              <LongitudeDegrees>-4.80113334953784942626953125</LongitudeDegrees>
            </Position>
            <AltitudeMeters>43.200000762939453125</AltitudeMeters>
            <DistanceMeters>NAN</DistanceMeters>
          </Trackpoint>
          <Trackpoint>
            <Time>2022-07-16T09:33:37.000Z</Time>
            <Position>
              <LatitudeDegrees>43.42976803891360759735107421875</LatitudeDegrees>
              <LongitudeDegrees>-4.80130475945770740509033203125</LongitudeDegrees>
            </Position>
            <AltitudeMeters>43</AltitudeMeters>
            <DistanceMeters>NAN</DistanceMeters>
          </Trackpoint>
          <Trackpoint>
            <Time>2022-07-16T09:33:42.000Z</Time>
            <Position>
              <LatitudeDegrees>43.429652787744998931884765625</LatitudeDegrees>
              <LongitudeDegrees>-4.80148765258491039276123046875</LongitudeDegrees>
            </Position>
            <AltitudeMeters>42.799999237060546875</AltitudeMeters>
            <DistanceMeters>NAN</DistanceMeters>
          </Trackpoint>
          <Trackpoint>
            <Time>2022-07-16T09:33:47.000Z</Time>
            <Position>
              <LatitudeDegrees>43.4296056814491748809814453125</LatitudeDegrees>
              <LongitudeDegrees>-4.8016749881207942962646484375</LongitudeDegrees>
            </Position>
            <AltitudeMeters>42</AltitudeMeters>
            <DistanceMeters>NAN</DistanceMeters>
          </Trackpoint>
          <Trackpoint>
            <Time>2022-07-16T09:33:51.000Z</Time>
            <Position>
              <LatitudeDegrees>43.42957659624516963958740234375</LatitudeDegrees>
              <LongitudeDegrees>-4.80186182074248790740966796875</LongitudeDegrees>
            </Position>
            <AltitudeMeters>40.799999237060546875</AltitudeMeters>
            <DistanceMeters>NAN</DistanceMeters>
          </Trackpoint>
          <Trackpoint>
            <Time>2022-07-16T09:33:53.000Z</Time>
            <Position>
              <LatitudeDegrees>43.42955212108790874481201171875</LatitudeDegrees>
              <LongitudeDegrees>-4.80196877382695674896240234375</LongitudeDegrees>
            </Position>
            <AltitudeMeters>39.59999847412109375</AltitudeMeters>
            <DistanceMeters>NAN</DistanceMeters>
          </Trackpoint>
          <Trackpoint>
            <Time>2022-07-16T09:33:56.000Z</Time>
            <Position>
              <LatitudeDegrees>43.4295057691633701324462890625</LatitudeDegrees>
              <LongitudeDegrees>-4.80210405774414539337158203125</LongitudeDegrees>
            </Position>
            <AltitudeMeters>38.40000152587890625</AltitudeMeters>
            <DistanceMeters>NAN</DistanceMeters>
          </Trackpoint>
          <Trackpoint>
            <Time>2022-07-16T09:33:59.000Z</Time>
            <Position>
              <LatitudeDegrees>43.42941868118941783905029296875</LatitudeDegrees>
              <LongitudeDegrees>-4.80214144103229045867919921875</LongitudeDegrees>
            </Position>
            <AltitudeMeters>37</AltitudeMeters>
            <DistanceMeters>NAN</DistanceMeters>
          </Trackpoint>
          <Trackpoint>
            <Time>2022-07-16T09:34:03.000Z</Time>
            <Position>
              <LatitudeDegrees>43.4292804636061191558837890625</LatitudeDegrees>
              <LongitudeDegrees>-4.80216977186501026153564453125</LongitudeDegrees>
            </Position>
            <AltitudeMeters>36</AltitudeMeters>
            <DistanceMeters>NAN</DistanceMeters>
          </Trackpoint>
          <Trackpoint>
            <Time>2022-07-16T09:34:06.000Z</Time>
            <Position>
              <LatitudeDegrees>43.429174013435840606689453125</LatitudeDegrees>
              <LongitudeDegrees>-4.80220757424831390380859375</LongitudeDegrees>
            </Position>
            <AltitudeMeters>35.40000152587890625</AltitudeMeters>
            <DistanceMeters>NAN</DistanceMeters>
          </Trackpoint>
          <Trackpoint>
            <Time>2022-07-16T09:34:09.000Z</Time>
            <Position>
              <LatitudeDegrees>43.42907770536839962005615234375</LatitudeDegrees>
              <LongitudeDegrees>-4.8022972606122493743896484375</LongitudeDegrees>
            </Position>
            <AltitudeMeters>35</AltitudeMeters>
            <DistanceMeters>NAN</DistanceMeters>
          </Trackpoint>
          <Trackpoint>
            <Time>2022-07-16T09:34:11.000Z</Time>
            <Position>
              <LatitudeDegrees>43.42900411225855350494384765625</LatitudeDegrees>
              <LongitudeDegrees>-4.802369177341461181640625</LongitudeDegrees>
            </Position>
            <AltitudeMeters>34.40000152587890625</AltitudeMeters>
            <DistanceMeters>NAN</DistanceMeters>
          </Trackpoint>
          <Trackpoint>
            <Time>2022-07-16T09:34:13.000Z</Time>
            <Position>
              <LatitudeDegrees>43.42893353663384914398193359375</LatitudeDegrees>
              <LongitudeDegrees>-4.802448637783527374267578125</LongitudeDegrees>
            </Position>
            <AltitudeMeters>33.799999237060546875</AltitudeMeters>
            <DistanceMeters>NAN</DistanceMeters>
          </Trackpoint>
          <Trackpoint>
            <Time>2022-07-16T09:34:15.000Z</Time>
            <Position>
              <LatitudeDegrees>43.42887352220714092254638671875</LatitudeDegrees>
              <LongitudeDegrees>-4.8025292716920375823974609375</LongitudeDegrees>
            </Position>
            <AltitudeMeters>32.799999237060546875</AltitudeMeters>
            <DistanceMeters>NAN</DistanceMeters>
          </Trackpoint>
          <Trackpoint>
            <Time>2022-07-16T09:34:16.000Z</Time>
            <Position>
              <LatitudeDegrees>43.42884837649762630462646484375</LatitudeDegrees>
              <LongitudeDegrees>-4.802578389644622802734375</LongitudeDegrees>
            </Position>
            <AltitudeMeters>32</AltitudeMeters>
            <DistanceMeters>NAN</DistanceMeters>
          </Trackpoint>
          <Trackpoint>
            <Time>2022-07-16T09:34:17.000Z</Time>
            <Position>
              <LatitudeDegrees>43.42882708646357059478759765625</LatitudeDegrees>
              <LongitudeDegrees>-4.80263094417750835418701171875</LongitudeDegrees>
            </Position>
            <AltitudeMeters>31.6000003814697265625</AltitudeMeters>
            <DistanceMeters>NAN</DistanceMeters>
          </Trackpoint>
          <Trackpoint>
            <Time>2022-07-16T09:34:19.000Z</Time>
            <Position>
              <LatitudeDegrees>43.4287835843861103057861328125</LatitudeDegrees>
              <LongitudeDegrees>-4.80273663997650146484375</LongitudeDegrees>
            </Position>
            <AltitudeMeters>30.3999996185302734375</AltitudeMeters>
            <DistanceMeters>NAN</DistanceMeters>
          </Trackpoint>
          <Trackpoint>
            <Time>2022-07-16T09:34:20.000Z</Time>
            <Position>
              <LatitudeDegrees>43.42876019887626171112060546875</LatitudeDegrees>
              <LongitudeDegrees>-4.80279221199452877044677734375</LongitudeDegrees>
            </Position>
            <AltitudeMeters>30</AltitudeMeters>
            <DistanceMeters>NAN</DistanceMeters>
          </Trackpoint>
          <Trackpoint>
            <Time>2022-07-16T09:34:22.000Z</Time>
            <Position>
              <LatitudeDegrees>43.4287185408174991607666015625</LatitudeDegrees>
              <LongitudeDegrees>-4.80292079038918018341064453125</LongitudeDegrees>
            </Position>
            <AltitudeMeters>29.200000762939453125</AltitudeMeters>
            <DistanceMeters>NAN</DistanceMeters>
          </Trackpoint>
          <Trackpoint>
            <Time>2022-07-16T09:34:24.000Z</Time>
            <Position>
              <LatitudeDegrees>43.42868811450898647308349609375</LatitudeDegrees>
              <LongitudeDegrees>-4.80306596495211124420166015625</LongitudeDegrees>
            </Position>
            <AltitudeMeters>28.3999996185302734375</AltitudeMeters>
            <DistanceMeters>NAN</DistanceMeters>
          </Trackpoint>
          <Trackpoint>
            <Time>2022-07-16T09:34:25.000Z</Time>
            <Position>
              <LatitudeDegrees>43.4286813251674175262451171875</LatitudeDegrees>
              <LongitudeDegrees>-4.80314123444259166717529296875</LongitudeDegrees>
            </Position>
            <AltitudeMeters>28.200000762939453125</AltitudeMeters>
            <DistanceMeters>NAN</DistanceMeters>
          </Trackpoint>
          <Trackpoint>
            <Time>2022-07-16T09:34:26.000Z</Time>
            <Position>
              <LatitudeDegrees>43.4286774694919586181640625</LatitudeDegrees>
              <LongitudeDegrees>-4.8032165877521038055419921875</LongitudeDegrees>
            </Position>
            <AltitudeMeters>27.799999237060546875</AltitudeMeters>
            <DistanceMeters>NAN</DistanceMeters>
          </Trackpoint>
          <Trackpoint>
            <Time>2022-07-16T09:34:29.000Z</Time>
            <Position>
              <LatitudeDegrees>43.42867755331099033355712890625</LatitudeDegrees>
              <LongitudeDegrees>-4.80342705734074115753173828125</LongitudeDegrees>
            </Position>
            <AltitudeMeters>27.200000762939453125</AltitudeMeters>
            <DistanceMeters>NAN</DistanceMeters>
          </Trackpoint>
          <Trackpoint>
            <Time>2022-07-16T09:34:31.000Z</Time>
            <Position>
              <LatitudeDegrees>43.42866883613169193267822265625</LatitudeDegrees>
              <LongitudeDegrees>-4.80356385000050067901611328125</LongitudeDegrees>
            </Position>
            <AltitudeMeters>27</AltitudeMeters>
            <DistanceMeters>NAN</DistanceMeters>
          </Trackpoint>
          <Trackpoint>
            <Time>2022-07-16T09:34:33.000Z</Time>
            <Position>
              <LatitudeDegrees>43.42865592800080776214599609375</LatitudeDegrees>
              <LongitudeDegrees>-4.80370969511568546295166015625</LongitudeDegrees>
            </Position>
            <AltitudeMeters>26.6000003814697265625</AltitudeMeters>
            <DistanceMeters>NAN</DistanceMeters>
          </Trackpoint>
          <Trackpoint>
            <Time>2022-07-16T09:34:36.000Z</Time>
            <Position>
              <LatitudeDegrees>43.4286454506218433380126953125</LatitudeDegrees>
              <LongitudeDegrees>-4.80392695404589176177978515625</LongitudeDegrees>
            </Position>
            <AltitudeMeters>26.200000762939453125</AltitudeMeters>
            <DistanceMeters>NAN</DistanceMeters>
          </Trackpoint>
          <Trackpoint>
            <Time>2022-07-16T09:34:37.000Z</Time>
            <Position>
              <LatitudeDegrees>43.42863631434738636016845703125</LatitudeDegrees>
              <LongitudeDegrees>-4.8039920814335346221923828125</LongitudeDegrees>
            </Position>
            <AltitudeMeters>26</AltitudeMeters>
            <DistanceMeters>NAN</DistanceMeters>
          </Trackpoint>
          <Trackpoint>
            <Time>2022-07-16T09:34:38.000Z</Time>
            <Position>
              <LatitudeDegrees>43.4286239929497241973876953125</LatitudeDegrees>
              <LongitudeDegrees>-4.80405561625957489013671875</LongitudeDegrees>
            </Position>
            <AltitudeMeters>26</AltitudeMeters>
            <DistanceMeters>NAN</DistanceMeters>
          </Trackpoint>
          <Trackpoint>
            <Time>2022-07-16T09:34:41.000Z</Time>
            <Position>
              <LatitudeDegrees>43.4285854361951351165771484375</LatitudeDegrees>
              <LongitudeDegrees>-4.80423071421682834625244140625</LongitudeDegrees>
            </Position>
            <AltitudeMeters>26</AltitudeMeters>
            <DistanceMeters>NAN</DistanceMeters>
          </Trackpoint>
          <Trackpoint>
            <Time>2022-07-16T09:34:42.000Z</Time>
            <Position>
              <LatitudeDegrees>43.4285680018365383148193359375</LatitudeDegrees>
              <LongitudeDegrees>-4.8042820952832698822021484375</LongitudeDegrees>
            </Position>
            <AltitudeMeters>26</AltitudeMeters>
            <DistanceMeters>NAN</DistanceMeters>
          </Trackpoint>
          <Trackpoint>
            <Time>2022-07-16T09:34:47.000Z</Time>
            <Position>
              <LatitudeDegrees>43.4284556843340396881103515625</LatitudeDegrees>
              <LongitudeDegrees>-4.80445886962115764617919921875</LongitudeDegrees>
            </Position>
            <AltitudeMeters>26</AltitudeMeters>
            <DistanceMeters>NAN</DistanceMeters>
          </Trackpoint>
          <Trackpoint>
            <Time>2022-07-16T09:34:51.000Z</Time>
            <Position>
              <LatitudeDegrees>43.42832249589264392852783203125</LatitudeDegrees>
              <LongitudeDegrees>-4.80456816963851451873779296875</LongitudeDegrees>
            </Position>
            <AltitudeMeters>24.799999237060546875</AltitudeMeters>
            <DistanceMeters>NAN</DistanceMeters>
          </Trackpoint>
          <Trackpoint>
            <Time>2022-07-16T09:34:53.000Z</Time>
            <Position>
              <LatitudeDegrees>43.42824789695441722869873046875</LatitudeDegrees>
              <LongitudeDegrees>-4.8046448640525341033935546875</LongitudeDegrees>
            </Position>
            <AltitudeMeters>24.3999996185302734375</AltitudeMeters>
            <DistanceMeters>NAN</DistanceMeters>
          </Trackpoint>
          <Trackpoint>
            <Time>2022-07-16T09:34:54.000Z</Time>
            <Position>
              <LatitudeDegrees>43.4282159619033336639404296875</LatitudeDegrees>
              <LongitudeDegrees>-4.8046981729567050933837890625</LongitudeDegrees>
            </Position>
            <AltitudeMeters>24.200000762939453125</AltitudeMeters>
            <DistanceMeters>NAN</DistanceMeters>
          </Trackpoint>
          <Trackpoint>
            <Time>2022-07-16T09:34:56.000Z</Time>
            <Position>
              <LatitudeDegrees>43.4281504154205322265625</LatitudeDegrees>
              <LongitudeDegrees>-4.80480168946087360382080078125</LongitudeDegrees>
            </Position>
            <AltitudeMeters>23.799999237060546875</AltitudeMeters>
            <DistanceMeters>NAN</DistanceMeters>
          </Trackpoint>
          <Trackpoint>
            <Time>2022-07-16T09:34:57.000Z</Time>
            <Position>
              <LatitudeDegrees>43.42811093665659427642822265625</LatitudeDegrees>
              <LongitudeDegrees>-4.80485357344150543212890625</LongitudeDegrees>
            </Position>
            <AltitudeMeters>23.799999237060546875</AltitudeMeters>
            <DistanceMeters>NAN</DistanceMeters>
          </Trackpoint>
          <Trackpoint>
            <Time>2022-07-16T09:34:58.000Z</Time>
            <Position>
              <LatitudeDegrees>43.42807271517813205718994140625</LatitudeDegrees>
              <LongitudeDegrees>-4.80490445159375667572021484375</LongitudeDegrees>
            </Position>
            <AltitudeMeters>23.6000003814697265625</AltitudeMeters>
            <DistanceMeters>NAN</DistanceMeters>
          </Trackpoint>
          <Trackpoint>
            <Time>2022-07-16T09:35:00.000Z</Time>
            <Position>
              <LatitudeDegrees>43.42800616286695003509521484375</LatitudeDegrees>
              <LongitudeDegrees>-4.80499765835702419281005859375</LongitudeDegrees>
            </Position>
            <AltitudeMeters>23.3999996185302734375</AltitudeMeters>
            <DistanceMeters>NAN</DistanceMeters>
          </Trackpoint>
          <Trackpoint>
            <Time>2022-07-16T09:35:01.000Z</Time>
            <Position>
              <LatitudeDegrees>43.42797598801553249359130859375</LatitudeDegrees>
              <LongitudeDegrees>-4.80503152124583721160888671875</LongitudeDegrees>
            </Position>
            <AltitudeMeters>23.200000762939453125</AltitudeMeters>
            <DistanceMeters>NAN</DistanceMeters>
          </Trackpoint>
          <Trackpoint>
            <Time>2022-07-16T09:35:04.000Z</Time>
            <Position>
              <LatitudeDegrees>43.4279065020382404327392578125</LatitudeDegrees>
              <LongitudeDegrees>-4.80513227172195911407470703125</LongitudeDegrees>
            </Position>
            <AltitudeMeters>22.6000003814697265625</AltitudeMeters>
            <DistanceMeters>NAN</DistanceMeters>
          </Trackpoint>
          <Trackpoint>
            <Time>2022-07-16T09:35:06.000Z</Time>
            <Position>
              <LatitudeDegrees>43.42788361944258213043212890625</LatitudeDegrees>
              <LongitudeDegrees>-4.8052175156772136688232421875</LongitudeDegrees>
            </Position>
            <AltitudeMeters>22.6000003814697265625</AltitudeMeters>
            <DistanceMeters>NAN</DistanceMeters>
          </Trackpoint>
          <Trackpoint>
            <Time>2022-07-16T09:35:11.000Z</Time>
            <Position>
              <LatitudeDegrees>43.42786584980785846710205078125</LatitudeDegrees>
              <LongitudeDegrees>-4.80545044876635074615478515625</LongitudeDegrees>
            </Position>
            <AltitudeMeters>22.6000003814697265625</AltitudeMeters>
            <DistanceMeters>NAN</DistanceMeters>
          </Trackpoint>
          <Trackpoint>
            <Time>2022-07-16T09:35:13.000Z</Time>
            <Position>
              <LatitudeDegrees>43.427851684391498565673828125</LatitudeDegrees>
              <LongitudeDegrees>-4.80554516427218914031982421875</LongitudeDegrees>
            </Position>
            <AltitudeMeters>22.6000003814697265625</AltitudeMeters>
            <DistanceMeters>NAN</DistanceMeters>
          </Trackpoint>
          <Trackpoint>
            <Time>2022-07-16T09:35:20.000Z</Time>
            <Position>
              <LatitudeDegrees>43.42781715095043182373046875</LatitudeDegrees>
              <LongitudeDegrees>-4.805932156741619110107421875</LongitudeDegrees>
            </Position>
            <AltitudeMeters>22.799999237060546875</AltitudeMeters>
            <DistanceMeters>NAN</DistanceMeters>
          </Trackpoint>
          <Trackpoint>
            <Time>2022-07-16T09:35:24.000Z</Time>
            <Position>
              <LatitudeDegrees>43.42784606851637363433837890625</LatitudeDegrees>
              <LongitudeDegrees>-4.806137345731258392333984375</LongitudeDegrees>
            </Position>
            <AltitudeMeters>22.799999237060546875</AltitudeMeters>
            <DistanceMeters>NAN</DistanceMeters>
          </Trackpoint>
          <Trackpoint>
            <Time>2022-07-16T09:35:28.000Z</Time>
            <Position>
              <LatitudeDegrees>43.42783533968031406402587890625</LatitudeDegrees>
              <LongitudeDegrees>-4.80632501654326915740966796875</LongitudeDegrees>
            </Position>
            <AltitudeMeters>22.6000003814697265625</AltitudeMeters>
            <DistanceMeters>NAN</DistanceMeters>
          </Trackpoint>
          <Trackpoint>
            <Time>2022-07-16T09:35:30.000Z</Time>
            <Position>
              <LatitudeDegrees>43.4278186596930027008056640625</LatitudeDegrees>
              <LongitudeDegrees>-4.80639743618667125701904296875</LongitudeDegrees>
            </Position>
            <AltitudeMeters>22.3999996185302734375</AltitudeMeters>
            <DistanceMeters>NAN</DistanceMeters>
          </Trackpoint>
          <Trackpoint>
            <Time>2022-07-16T09:35:32.000Z</Time>
            <Position>
              <LatitudeDegrees>43.427804410457611083984375</LatitudeDegrees>
              <LongitudeDegrees>-4.80643750168383121490478515625</LongitudeDegrees>
            </Position>
            <AltitudeMeters>22.200000762939453125</AltitudeMeters>
            <DistanceMeters>NAN</DistanceMeters>
          </Trackpoint>
          <Trackpoint>
            <Time>2022-07-16T09:35:33.000Z</Time>
            <Position>
              <LatitudeDegrees>43.42779745347797870635986328125</LatitudeDegrees>
              <LongitudeDegrees>-4.8064459674060344696044921875</LongitudeDegrees>
            </Position>
            <AltitudeMeters>22.200000762939453125</AltitudeMeters>
            <DistanceMeters>NAN</DistanceMeters>
          </Trackpoint>
          <Trackpoint>
            <Time>2022-07-16T09:35:37.000Z</Time>
            <Position>
              <LatitudeDegrees>43.4277549572288990020751953125</LatitudeDegrees>
              <LongitudeDegrees>-4.80647102929651737213134765625</LongitudeDegrees>
            </Position>
            <AltitudeMeters>22</AltitudeMeters>
            <DistanceMeters>NAN</DistanceMeters>
          </Trackpoint>
          <Trackpoint>
            <Time>2022-07-16T09:35:44.000Z</Time>
            <Position>
              <LatitudeDegrees>43.4276171587407588958740234375</LatitudeDegrees>
              <LongitudeDegrees>-4.806569516658782958984375</LongitudeDegrees>
            </Position>
            <AltitudeMeters>22.3999996185302734375</AltitudeMeters>
            <DistanceMeters>NAN</DistanceMeters>
          </Trackpoint>
          <Trackpoint>
            <Time>2022-07-16T09:35:52.000Z</Time>
            <Position>
              <LatitudeDegrees>43.42746335081756114959716796875</LatitudeDegrees>
              <LongitudeDegrees>-4.806675128638744354248046875</LongitudeDegrees>
            </Position>
            <AltitudeMeters>23</AltitudeMeters>
            <DistanceMeters>NAN</DistanceMeters>
          </Trackpoint>
          <Trackpoint>
            <Time>2022-07-16T09:35:58.000Z</Time>
            <Position>
              <LatitudeDegrees>43.4273586608469486236572265625</LatitudeDegrees>
              <LongitudeDegrees>-4.80679138563573360443115234375</LongitudeDegrees>
            </Position>
            <AltitudeMeters>23.3999996185302734375</AltitudeMeters>
            <DistanceMeters>NAN</DistanceMeters>
          </Trackpoint>
          <Trackpoint>
            <Time>2022-07-16T09:36:01.000Z</Time>
            <Position>
              <LatitudeDegrees>43.42735388316214084625244140625</LatitudeDegrees>
              <LongitudeDegrees>-4.806796498596668243408203125</LongitudeDegrees>
            </Position>
            <AltitudeMeters>23.3999996185302734375</AltitudeMeters>
            <DistanceMeters>NAN</DistanceMeters>
          </Trackpoint>
          <Trackpoint>
            <Time>2022-07-16T09:36:44.000Z</Time>
            <Position>
              <LatitudeDegrees>43.4273154102265834808349609375</LatitudeDegrees>
              <LongitudeDegrees>-4.80684083886444568634033203125</LongitudeDegrees>
            </Position>
            <AltitudeMeters>23.3999996185302734375</AltitudeMeters>
            <DistanceMeters>NAN</DistanceMeters>
          </Trackpoint>
          <Trackpoint>
            <Time>2022-07-16T09:36:45.000Z</Time>
            <Position>
              <LatitudeDegrees>43.4272962994873523712158203125</LatitudeDegrees>
              <LongitudeDegrees>-4.80686347000300884246826171875</LongitudeDegrees>
            </Position>
            <AltitudeMeters>23.3999996185302734375</AltitudeMeters>
            <DistanceMeters>NAN</DistanceMeters>
          </Trackpoint>
          <Trackpoint>
            <Time>2022-07-16T09:36:51.000Z</Time>
            <Position>
              <LatitudeDegrees>43.427176773548126220703125</LatitudeDegrees>
              <LongitudeDegrees>-4.80700629763305187225341796875</LongitudeDegrees>
            </Position>
            <AltitudeMeters>23.799999237060546875</AltitudeMeters>
            <DistanceMeters>NAN</DistanceMeters>
          </Trackpoint>
          <Trackpoint>
            <Time>2022-07-16T09:36:52.000Z</Time>
            <Position>
              <LatitudeDegrees>43.4271620213985443115234375</LatitudeDegrees>
              <LongitudeDegrees>-4.80702440254390239715576171875</LongitudeDegrees>
            </Position>
            <AltitudeMeters>23.799999237060546875</AltitudeMeters>
            <DistanceMeters>NAN</DistanceMeters>
          </Trackpoint>
          <Trackpoint>
            <Time>2022-07-16T09:36:54.000Z</Time>
            <Position>
              <LatitudeDegrees>43.42713193036615848541259765625</LatitudeDegrees>
              <LongitudeDegrees>-4.807052649557590484619140625</LongitudeDegrees>
            </Position>
            <AltitudeMeters>24</AltitudeMeters>
            <DistanceMeters>NAN</DistanceMeters>
          </Trackpoint>
          <Trackpoint>
            <Time>2022-07-16T09:36:56.000Z</Time>
            <Position>
              <LatitudeDegrees>43.42710879631340503692626953125</LatitudeDegrees>
              <LongitudeDegrees>-4.80708441697061061859130859375</LongitudeDegrees>
            </Position>
            <AltitudeMeters>24.200000762939453125</AltitudeMeters>
            <DistanceMeters>NAN</DistanceMeters>
          </Trackpoint>
          <Trackpoint>
            <Time>2022-07-16T09:36:57.000Z</Time>
            <Position>
              <LatitudeDegrees>43.4270988218486309051513671875</LatitudeDegrees>
              <LongitudeDegrees>-4.80709665454924106597900390625</LongitudeDegrees>
            </Position>
            <AltitudeMeters>24.200000762939453125</AltitudeMeters>
            <DistanceMeters>NAN</DistanceMeters>
          </Trackpoint>
          <Trackpoint>
            <Time>2022-07-16T09:37:01.000Z</Time>
            <Position>
              <LatitudeDegrees>43.42708147130906581878662109375</LatitudeDegrees>
              <LongitudeDegrees>-4.8071180284023284912109375</LongitudeDegrees>
            </Position>
            <AltitudeMeters>24.3999996185302734375</AltitudeMeters>
            <DistanceMeters>NAN</DistanceMeters>
          </Trackpoint>
          <Trackpoint>
            <Time>2022-07-16T09:37:02.000Z</Time>
            <Position>
              <LatitudeDegrees>43.42708147130906581878662109375</LatitudeDegrees>
              <LongitudeDegrees>-4.8071180284023284912109375</LongitudeDegrees>
            </Position>
            <AltitudeMeters>24.6000003814697265625</AltitudeMeters>
            <DistanceMeters>NAN</DistanceMeters>
          </Trackpoint>
          <Trackpoint>
            <Time>2022-07-16T09:37:24.000Z</Time>
            <Position>
              <LatitudeDegrees>43.42706571333110332489013671875</LatitudeDegrees>
              <LongitudeDegrees>-4.80714158155024051666259765625</LongitudeDegrees>
            </Position>
            <AltitudeMeters>24.3999996185302734375</AltitudeMeters>
            <DistanceMeters>NAN</DistanceMeters>
          </Trackpoint>
          <Trackpoint>
            <Time>2022-07-16T09:37:27.000Z</Time>
            <Position>
              <LatitudeDegrees>43.42702732421457767486572265625</LatitudeDegrees>
              <LongitudeDegrees>-4.80719639919698238372802734375</LongitudeDegrees>
            </Position>
            <AltitudeMeters>24.6000003814697265625</AltitudeMeters>
            <DistanceMeters>NAN</DistanceMeters>
          </Trackpoint>
          <Trackpoint>
            <Time>2022-07-16T09:37:29.000Z</Time>
            <Position>
              <LatitudeDegrees>43.42699983157217502593994140625</LatitudeDegrees>
              <LongitudeDegrees>-4.80723143555223941802978515625</LongitudeDegrees>
            </Position>
            <AltitudeMeters>24.799999237060546875</AltitudeMeters>
            <DistanceMeters>NAN</DistanceMeters>
          </Trackpoint>
          <Trackpoint>
            <Time>2022-07-16T09:37:30.000Z</Time>
            <Position>
              <LatitudeDegrees>43.4269844926893711090087890625</LatitudeDegrees>
              <LongitudeDegrees>-4.80724786408245563507080078125</LongitudeDegrees>
            </Position>
            <AltitudeMeters>24.799999237060546875</AltitudeMeters>
            <DistanceMeters>NAN</DistanceMeters>
          </Trackpoint>
          <Trackpoint>
            <Time>2022-07-16T09:37:31.000Z</Time>
            <Position>
              <LatitudeDegrees>43.426964543759822845458984375</LatitudeDegrees>
              <LongitudeDegrees>-4.8072559945285320281982421875</LongitudeDegrees>
            </Position>
            <AltitudeMeters>25</AltitudeMeters>
            <DistanceMeters>NAN</DistanceMeters>
          </Trackpoint>
          <Trackpoint>
            <Time>2022-07-16T09:37:32.000Z</Time>
            <Position>
              <LatitudeDegrees>43.42694685794413089752197265625</LatitudeDegrees>
              <LongitudeDegrees>-4.80726278387010097503662109375</LongitudeDegrees>
            </Position>
            <AltitudeMeters>25.200000762939453125</AltitudeMeters>
            <DistanceMeters>NAN</DistanceMeters>
          </Trackpoint>
          <Trackpoint>
            <Time>2022-07-16T09:37:33.000Z</Time>
            <Position>
              <LatitudeDegrees>43.42693294398486614227294921875</LatitudeDegrees>
              <LongitudeDegrees>-4.80727317743003368377685546875</LongitudeDegrees>
            </Position>
            <AltitudeMeters>25.200000762939453125</AltitudeMeters>
            <DistanceMeters>NAN</DistanceMeters>
          </Trackpoint>
          <Trackpoint>
            <Time>2022-07-16T09:37:34.000Z</Time>
            <Position>
              <LatitudeDegrees>43.42692322097718715667724609375</LatitudeDegrees>
              <LongitudeDegrees>-4.8072985745966434478759765625</LongitudeDegrees>
            </Position>
            <AltitudeMeters>25.6000003814697265625</AltitudeMeters>
            <DistanceMeters>NAN</DistanceMeters>
          </Trackpoint>
          <Trackpoint>
            <Time>2022-07-16T09:37:35.000Z</Time>
            <Position>
              <LatitudeDegrees>43.42691592872142791748046875</LatitudeDegrees>
              <LongitudeDegrees>-4.8073163442313671112060546875</LongitudeDegrees>
            </Position>
            <AltitudeMeters>25.6000003814697265625</AltitudeMeters>
            <DistanceMeters>NAN</DistanceMeters>
          </Trackpoint>
          <Trackpoint>
            <Time>2022-07-16T09:37:36.000Z</Time>
            <Position>
              <LatitudeDegrees>43.426903523504734039306640625</LatitudeDegrees>
              <LongitudeDegrees>-4.8073337785899639129638671875</LongitudeDegrees>
            </Position>
            <AltitudeMeters>25.799999237060546875</AltitudeMeters>
            <DistanceMeters>NAN</DistanceMeters>
          </Trackpoint>
          <Trackpoint>
            <Time>2022-07-16T09:37:37.000Z</Time>
            <Position>
              <LatitudeDegrees>43.4268896095454692840576171875</LatitudeDegrees>
              <LongitudeDegrees>-4.80735112912952899932861328125</LongitudeDegrees>
            </Position>
            <AltitudeMeters>25.799999237060546875</AltitudeMeters>
            <DistanceMeters>NAN</DistanceMeters>
          </Trackpoint>
          <Trackpoint>
            <Time>2022-07-16T09:37:38.000Z</Time>
            <Position>
              <LatitudeDegrees>43.42687544412910938262939453125</LatitudeDegrees>
              <LongitudeDegrees>-4.807369150221347808837890625</LongitudeDegrees>
            </Position>
            <AltitudeMeters>25.799999237060546875</AltitudeMeters>
            <DistanceMeters>NAN</DistanceMeters>
          </Trackpoint>
          <Trackpoint>
            <Time>2022-07-16T09:37:40.000Z</Time>
            <Position>
              <LatitudeDegrees>43.4268510527908802032470703125</LatitudeDegrees>
              <LongitudeDegrees>-4.807398654520511627197265625</LongitudeDegrees>
            </Position>
            <AltitudeMeters>26.200000762939453125</AltitudeMeters>
            <DistanceMeters>NAN</DistanceMeters>
          </Trackpoint>
          <Trackpoint>
            <Time>2022-07-16T09:37:42.000Z</Time>
            <Position>
              <LatitudeDegrees>43.42682666145265102386474609375</LatitudeDegrees>
              <LongitudeDegrees>-4.80742170475423336029052734375</LongitudeDegrees>
            </Position>
            <AltitudeMeters>26.3999996185302734375</AltitudeMeters>
            <DistanceMeters>NAN</DistanceMeters>
          </Trackpoint>
          <Trackpoint>
            <Time>2022-07-16T09:37:44.000Z</Time>
            <Position>
              <LatitudeDegrees>43.42679581604897975921630859375</LatitudeDegrees>
              <LongitudeDegrees>-4.80745137669146060943603515625</LongitudeDegrees>
            </Position>
            <AltitudeMeters>26.6000003814697265625</AltitudeMeters>
            <DistanceMeters>NAN</DistanceMeters>
          </Trackpoint>
          <Trackpoint>
            <Time>2022-07-16T09:37:49.000Z</Time>
            <Position>
              <LatitudeDegrees>43.42673898674547672271728515625</LatitudeDegrees>
              <LongitudeDegrees>-4.8075149953365325927734375</LongitudeDegrees>
            </Position>
            <AltitudeMeters>26.799999237060546875</AltitudeMeters>
            <DistanceMeters>NAN</DistanceMeters>
          </Trackpoint>
          <Trackpoint>
            <Time>2022-07-16T09:37:50.000Z</Time>
            <Position>
              <LatitudeDegrees>43.42673546634614467620849609375</LatitudeDegrees>
              <LongitudeDegrees>-4.80752865783870220184326171875</LongitudeDegrees>
            </Position>
            <AltitudeMeters>26.799999237060546875</AltitudeMeters>
            <DistanceMeters>NAN</DistanceMeters>
          </Trackpoint>
          <Trackpoint>
            <Time>2022-07-16T09:37:52.000Z</Time>
            <Position>
              <LatitudeDegrees>43.426741249859333038330078125</LatitudeDegrees>
              <LongitudeDegrees>-4.8075579106807708740234375</LongitudeDegrees>
            </Position>
            <AltitudeMeters>26.799999237060546875</AltitudeMeters>
            <DistanceMeters>NAN</DistanceMeters>
          </Trackpoint>
          <Trackpoint>
            <Time>2022-07-16T09:37:55.000Z</Time>
            <Position>
              <LatitudeDegrees>43.42674636282026767730712890625</LatitudeDegrees>
              <LongitudeDegrees>-4.80756956152617931365966796875</LongitudeDegrees>
            </Position>
            <AltitudeMeters>26.799999237060546875</AltitudeMeters>
            <DistanceMeters>NAN</DistanceMeters>
          </Trackpoint>
          <Trackpoint>
            <Time>2022-07-16T09:38:03.000Z</Time>
            <Position>
              <LatitudeDegrees>43.42678609304130077362060546875</LatitudeDegrees>
              <LongitudeDegrees>-4.8076187632977962493896484375</LongitudeDegrees>
            </Position>
            <AltitudeMeters>26.6000003814697265625</AltitudeMeters>
            <DistanceMeters>NAN</DistanceMeters>
          </Trackpoint>
          <Trackpoint>
            <Time>2022-07-16T09:38:04.000Z</Time>
            <Position>
              <LatitudeDegrees>43.42679296620190143585205078125</LatitudeDegrees>
              <LongitudeDegrees>-4.8076388798654079437255859375</LongitudeDegrees>
            </Position>
            <AltitudeMeters>26.799999237060546875</AltitudeMeters>
            <DistanceMeters>NAN</DistanceMeters>
          </Trackpoint>
          <Trackpoint>
            <Time>2022-07-16T09:38:08.000Z</Time>
            <Position>
              <LatitudeDegrees>43.42680922709405422210693359375</LatitudeDegrees>
              <LongitudeDegrees>-4.80773032642900943756103515625</LongitudeDegrees>
            </Position>
            <AltitudeMeters>27.3999996185302734375</AltitudeMeters>
            <DistanceMeters>NAN</DistanceMeters>
          </Trackpoint>
          <Trackpoint>
            <Time>2022-07-16T09:38:10.000Z</Time>
            <Position>
              <LatitudeDegrees>43.4268071316182613372802734375</LatitudeDegrees>
              <LongitudeDegrees>-4.807774834334850311279296875</LongitudeDegrees>
            </Position>
            <AltitudeMeters>27.799999237060546875</AltitudeMeters>
            <DistanceMeters>NAN</DistanceMeters>
          </Trackpoint>
          <Trackpoint>
            <Time>2022-07-16T09:38:16.000Z</Time>
            <Position>
              <LatitudeDegrees>43.42678223736584186553955078125</LatitudeDegrees>
              <LongitudeDegrees>-4.8078993894159793853759765625</LongitudeDegrees>
            </Position>
            <AltitudeMeters>28.3999996185302734375</AltitudeMeters>
            <DistanceMeters>NAN</DistanceMeters>
          </Trackpoint>
          <Trackpoint>
            <Time>2022-07-16T09:38:20.000Z</Time>
            <Position>
              <LatitudeDegrees>43.42674502171576023101806640625</LatitudeDegrees>
              <LongitudeDegrees>-4.807973317801952362060546875</LongitudeDegrees>
            </Position>
            <AltitudeMeters>28.799999237060546875</AltitudeMeters>
            <DistanceMeters>NAN</DistanceMeters>
          </Trackpoint>
          <Trackpoint>
            <Time>2022-07-16T09:38:22.000Z</Time>
            <Position>
              <LatitudeDegrees>43.42672222293913364410400390625</LatitudeDegrees>
              <LongitudeDegrees>-4.8080050013959407806396484375</LongitudeDegrees>
            </Position>
            <AltitudeMeters>28.799999237060546875</AltitudeMeters>
            <DistanceMeters>NAN</DistanceMeters>
          </Trackpoint>
          <Trackpoint>
            <Time>2022-07-16T09:38:28.000Z</Time>
            <Position>
              <LatitudeDegrees>43.42667746357619762420654296875</LatitudeDegrees>
              <LongitudeDegrees>-4.80803894810378551483154296875</LongitudeDegrees>
            </Position>
            <AltitudeMeters>28.6000003814697265625</AltitudeMeters>
            <DistanceMeters>NAN</DistanceMeters>
          </Trackpoint>
          <Trackpoint>
            <Time>2022-07-16T09:38:33.000Z</Time>
            <Position>
              <LatitudeDegrees>43.42665332369506359100341796875</LatitudeDegrees>
              <LongitudeDegrees>-4.808054454624652862548828125</LongitudeDegrees>
            </Position>
            <AltitudeMeters>28.6000003814697265625</AltitudeMeters>
            <DistanceMeters>NAN</DistanceMeters>
          </Trackpoint>
          <Trackpoint>
            <Time>2022-07-16T09:39:07.000Z</Time>
            <Position>
              <LatitudeDegrees>43.42670881189405918121337890625</LatitudeDegrees>
              <LongitudeDegrees>-4.80818345211446285247802734375</LongitudeDegrees>
            </Position>
            <AltitudeMeters>27.799999237060546875</AltitudeMeters>
            <DistanceMeters>NAN</DistanceMeters>
          </Trackpoint>
          <Trackpoint>
            <Time>2022-07-16T09:39:08.000Z</Time>
            <Position>
              <LatitudeDegrees>43.42669875361025333404541015625</LatitudeDegrees>
              <LongitudeDegrees>-4.80816341936588287353515625</LongitudeDegrees>
            </Position>
            <AltitudeMeters>27.799999237060546875</AltitudeMeters>
            <DistanceMeters>NAN</DistanceMeters>
          </Trackpoint>
          <Trackpoint>
            <Time>2022-07-16T09:39:10.000Z</Time>
            <Position>
              <LatitudeDegrees>43.42668903060257434844970703125</LatitudeDegrees>
              <LongitudeDegrees>-4.80811379849910736083984375</LongitudeDegrees>
            </Position>
            <AltitudeMeters>27.799999237060546875</AltitudeMeters>
            <DistanceMeters>NAN</DistanceMeters>
          </Trackpoint>
          <Trackpoint>
            <Time>2022-07-16T09:39:13.000Z</Time>
            <Position>
              <LatitudeDegrees>43.4266646392643451690673828125</LatitudeDegrees>
              <LongitudeDegrees>-4.80803961865603923797607421875</LongitudeDegrees>
            </Position>
            <AltitudeMeters>27.799999237060546875</AltitudeMeters>
            <DistanceMeters>NAN</DistanceMeters>
          </Trackpoint>
          <Trackpoint>
            <Time>2022-07-16T09:39:15.000Z</Time>
            <Position>
              <LatitudeDegrees>43.4266304410994052886962890625</LatitudeDegrees>
              <LongitudeDegrees>-4.8080371879041194915771484375</LongitudeDegrees>
            </Position>
            <AltitudeMeters>28</AltitudeMeters>
            <DistanceMeters>NAN</DistanceMeters>
          </Trackpoint>
          <Trackpoint>
            <Time>2022-07-16T09:39:22.000Z</Time>
            <Position>
              <LatitudeDegrees>43.42652709223330020904541015625</LatitudeDegrees>
              <LongitudeDegrees>-4.8080666922032833099365234375</LongitudeDegrees>
            </Position>
            <AltitudeMeters>28.3999996185302734375</AltitudeMeters>
            <DistanceMeters>NAN</DistanceMeters>
          </Trackpoint>
          <Trackpoint>
            <Time>2022-07-16T09:39:26.000Z</Time>
            <Position>
              <LatitudeDegrees>43.42645769007503986358642578125</LatitudeDegrees>
              <LongitudeDegrees>-4.80809728614985942840576171875</LongitudeDegrees>
            </Position>
            <AltitudeMeters>29</AltitudeMeters>
            <DistanceMeters>NAN</DistanceMeters>
          </Trackpoint>
          <Trackpoint>
            <Time>2022-07-16T09:39:30.000Z</Time>
            <Position>
              <LatitudeDegrees>43.42640362679958343505859375</LatitudeDegrees>
              <LongitudeDegrees>-4.80814858339726924896240234375</LongitudeDegrees>
            </Position>
            <AltitudeMeters>29.799999237060546875</AltitudeMeters>
            <DistanceMeters>NAN</DistanceMeters>
          </Trackpoint>
          <Trackpoint>
            <Time>2022-07-16T09:39:32.000Z</Time>
            <Position>
              <LatitudeDegrees>43.42637973837554454803466796875</LatitudeDegrees>
              <LongitudeDegrees>-4.8081759922206401824951171875</LongitudeDegrees>
            </Position>
            <AltitudeMeters>30</AltitudeMeters>
            <DistanceMeters>NAN</DistanceMeters>
          </Trackpoint>
          <Trackpoint>
            <Time>2022-07-16T09:39:35.000Z</Time>
            <Position>
              <LatitudeDegrees>43.42635660432279109954833984375</LatitudeDegrees>
              <LongitudeDegrees>-4.80822016485035419464111328125</LongitudeDegrees>
            </Position>
            <AltitudeMeters>30</AltitudeMeters>
            <DistanceMeters>NAN</DistanceMeters>
          </Trackpoint>
          <Trackpoint>
            <Time>2022-07-16T09:39:36.000Z</Time>
            <Position>
              <LatitudeDegrees>43.4263471327722072601318359375</LatitudeDegrees>
              <LongitudeDegrees>-4.80823625810444355010986328125</LongitudeDegrees>
            </Position>
            <AltitudeMeters>30</AltitudeMeters>
            <DistanceMeters>NAN</DistanceMeters>
          </Trackpoint>
          <Trackpoint>
            <Time>2022-07-16T09:39:37.000Z</Time>
            <Position>
              <LatitudeDegrees>43.42634059488773345947265625</LatitudeDegrees>
              <LongitudeDegrees>-4.8082554526627063751220703125</LongitudeDegrees>
            </Position>
            <AltitudeMeters>30</AltitudeMeters>
            <DistanceMeters>NAN</DistanceMeters>
          </Trackpoint>
          <Trackpoint>
            <Time>2022-07-16T09:39:39.000Z</Time>
            <Position>
              <LatitudeDegrees>43.42632609419524669647216796875</LatitudeDegrees>
              <LongitudeDegrees>-4.80829216539859771728515625</LongitudeDegrees>
            </Position>
            <AltitudeMeters>29.799999237060546875</AltitudeMeters>
            <DistanceMeters>NAN</DistanceMeters>
          </Trackpoint>
          <Trackpoint>
            <Time>2022-07-16T09:39:40.000Z</Time>
            <Position>
              <LatitudeDegrees>43.426312766969203948974609375</LatitudeDegrees>
              <LongitudeDegrees>-4.80830750428140163421630859375</LongitudeDegrees>
            </Position>
            <AltitudeMeters>30</AltitudeMeters>
            <DistanceMeters>NAN</DistanceMeters>
          </Trackpoint>
          <Trackpoint>
            <Time>2022-07-16T09:39:48.000Z</Time>
            <Position>
              <LatitudeDegrees>43.42619248665869235992431640625</LatitudeDegrees>
              <LongitudeDegrees>-4.80842133052647113800048828125</LongitudeDegrees>
            </Position>
            <AltitudeMeters>30.6000003814697265625</AltitudeMeters>
            <DistanceMeters>NAN</DistanceMeters>
          </Trackpoint>
          <Trackpoint>
            <Time>2022-07-16T09:39:51.000Z</Time>
            <Position>
              <LatitudeDegrees>43.426153846085071563720703125</LatitudeDegrees>
              <LongitudeDegrees>-4.8084680177271366119384765625</LongitudeDegrees>
            </Position>
            <AltitudeMeters>31</AltitudeMeters>
            <DistanceMeters>NAN</DistanceMeters>
          </Trackpoint>
          <Trackpoint>
            <Time>2022-07-16T09:39:55.000Z</Time>
            <Position>
              <LatitudeDegrees>43.4261121042072772979736328125</LatitudeDegrees>
              <LongitudeDegrees>-4.808537922799587249755859375</LongitudeDegrees>
            </Position>
            <AltitudeMeters>31.3999996185302734375</AltitudeMeters>
            <DistanceMeters>NAN</DistanceMeters>
          </Trackpoint>
          <Trackpoint>
            <Time>2022-07-16T09:39:56.000Z</Time>
            <Position>
              <LatitudeDegrees>43.42610212974250316619873046875</LatitudeDegrees>
              <LongitudeDegrees>-4.80855233967304229736328125</LongitudeDegrees>
            </Position>
            <AltitudeMeters>31.3999996185302734375</AltitudeMeters>
            <DistanceMeters>NAN</DistanceMeters>
          </Trackpoint>
          <Trackpoint>
            <Time>2022-07-16T09:40:01.000Z</Time>
            <Position>
              <LatitudeDegrees>43.4260309673845767974853515625</LatitudeDegrees>
              <LongitudeDegrees>-4.80860908515751361846923828125</LongitudeDegrees>
            </Position>
            <AltitudeMeters>31.799999237060546875</AltitudeMeters>
            <DistanceMeters>NAN</DistanceMeters>
          </Trackpoint>
          <Trackpoint>
            <Time>2022-07-16T09:40:04.000Z</Time>
            <Position>
              <LatitudeDegrees>43.4259783290326595306396484375</LatitudeDegrees>
              <LongitudeDegrees>-4.8086302913725376129150390625</LongitudeDegrees>
            </Position>
            <AltitudeMeters>32</AltitudeMeters>
            <DistanceMeters>NAN</DistanceMeters>
          </Trackpoint>
          <Trackpoint>
            <Time>2022-07-16T09:40:05.000Z</Time>
            <Position>
              <LatitudeDegrees>43.42596282251179218292236328125</LatitudeDegrees>
              <LongitudeDegrees>-4.80863775126636028289794921875</LongitudeDegrees>
            </Position>
            <AltitudeMeters>32.200000762939453125</AltitudeMeters>
            <DistanceMeters>NAN</DistanceMeters>
          </Trackpoint>
          <Trackpoint>
            <Time>2022-07-16T09:40:13.000Z</Time>
            <Position>
              <LatitudeDegrees>43.4258187375962734222412109375</LatitudeDegrees>
              <LongitudeDegrees>-4.80869072489440441131591796875</LongitudeDegrees>
            </Position>
            <AltitudeMeters>32.59999847412109375</AltitudeMeters>
            <DistanceMeters>NAN</DistanceMeters>
          </Trackpoint>
          <Trackpoint>
            <Time>2022-07-16T09:40:20.000Z</Time>
            <Position>
              <LatitudeDegrees>43.42566870152950286865234375</LatitudeDegrees>
              <LongitudeDegrees>-4.80874755419790744781494140625</LongitudeDegrees>
            </Position>
            <AltitudeMeters>32.40000152587890625</AltitudeMeters>
            <DistanceMeters>NAN</DistanceMeters>
          </Trackpoint>
          <Trackpoint>
            <Time>2022-07-16T09:40:23.000Z</Time>
            <Position>
              <LatitudeDegrees>43.42558421194553375244140625</LatitudeDegrees>
              <LongitudeDegrees>-4.80877362191677093505859375</LongitudeDegrees>
            </Position>
            <AltitudeMeters>32</AltitudeMeters>
            <DistanceMeters>NAN</DistanceMeters>
          </Trackpoint>
          <Trackpoint>
            <Time>2022-07-16T09:40:25.000Z</Time>
            <Position>
              <LatitudeDegrees>43.42553081922233104705810546875</LatitudeDegrees>
              <LongitudeDegrees>-4.8088408447802066802978515625</LongitudeDegrees>
            </Position>
            <AltitudeMeters>31.6000003814697265625</AltitudeMeters>
            <DistanceMeters>NAN</DistanceMeters>
          </Trackpoint>
          <Trackpoint>
            <Time>2022-07-16T09:40:26.000Z</Time>
            <Position>
              <LatitudeDegrees>43.42550802044570446014404296875</LatitudeDegrees>
              <LongitudeDegrees>-4.8088894598186016082763671875</LongitudeDegrees>
            </Position>
            <AltitudeMeters>31.6000003814697265625</AltitudeMeters>
            <DistanceMeters>NAN</DistanceMeters>
          </Trackpoint>
          <Trackpoint>
            <Time>2022-07-16T09:40:29.000Z</Time>
            <Position>
              <LatitudeDegrees>43.4254385344684123992919921875</LatitudeDegrees>
              <LongitudeDegrees>-4.809040836989879608154296875</LongitudeDegrees>
            </Position>
            <AltitudeMeters>31.200000762939453125</AltitudeMeters>
            <DistanceMeters>NAN</DistanceMeters>
          </Trackpoint>
          <Trackpoint>
            <Time>2022-07-16T09:40:30.000Z</Time>
            <Position>
              <LatitudeDegrees>43.42541565187275409698486328125</LatitudeDegrees>
              <LongitudeDegrees>-4.80908215977251529693603515625</LongitudeDegrees>
            </Position>
            <AltitudeMeters>30.6000003814697265625</AltitudeMeters>
            <DistanceMeters>NAN</DistanceMeters>
          </Trackpoint>
          <Trackpoint>
            <Time>2022-07-16T09:40:31.000Z</Time>
            <Position>
              <LatitudeDegrees>43.42539017088711261749267578125</LatitudeDegrees>
              <LongitudeDegrees>-4.809118621051311492919921875</LongitudeDegrees>
            </Position>
            <AltitudeMeters>30</AltitudeMeters>
            <DistanceMeters>NAN</DistanceMeters>
          </Trackpoint>
          <Trackpoint>
            <Time>2022-07-16T09:40:32.000Z</Time>
            <Position>
              <LatitudeDegrees>43.42536787502467632293701171875</LatitudeDegrees>
              <LongitudeDegrees>-4.80914720334112644195556640625</LongitudeDegrees>
            </Position>
            <AltitudeMeters>29.6000003814697265625</AltitudeMeters>
            <DistanceMeters>NAN</DistanceMeters>
          </Trackpoint>
          <Trackpoint>
            <Time>2022-07-16T09:40:34.000Z</Time>
            <Position>
              <LatitudeDegrees>43.4253381192684173583984375</LatitudeDegrees>
              <LongitudeDegrees>-4.80920411646366119384765625</LongitudeDegrees>
            </Position>
            <AltitudeMeters>29.200000762939453125</AltitudeMeters>
            <DistanceMeters>NAN</DistanceMeters>
          </Trackpoint>
          <Trackpoint>
            <Time>2022-07-16T09:40:35.000Z</Time>
            <Position>
              <LatitudeDegrees>43.4253315813839435577392578125</LatitudeDegrees>
              <LongitudeDegrees>-4.80923789553344249725341796875</LongitudeDegrees>
            </Position>
            <AltitudeMeters>29</AltitudeMeters>
            <DistanceMeters>NAN</DistanceMeters>
          </Trackpoint>
          <Trackpoint>
            <Time>2022-07-16T09:40:38.000Z</Time>
            <Position>
              <LatitudeDegrees>43.4253309108316898345947265625</LatitudeDegrees>
              <LongitudeDegrees>-4.80935775674879550933837890625</LongitudeDegrees>
            </Position>
            <AltitudeMeters>28.6000003814697265625</AltitudeMeters>
            <DistanceMeters>NAN</DistanceMeters>
          </Trackpoint>
          <Trackpoint>
            <Time>2022-07-16T09:40:39.000Z</Time>
            <Position>
              <LatitudeDegrees>43.4253322519361972808837890625</LatitudeDegrees>
              <LongitudeDegrees>-4.8093979060649871826171875</LongitudeDegrees>
            </Position>
            <AltitudeMeters>28.6000003814697265625</AltitudeMeters>
            <DistanceMeters>NAN</DistanceMeters>
          </Trackpoint>
          <Trackpoint>
            <Time>2022-07-16T09:40:42.000Z</Time>
            <Position>
              <LatitudeDegrees>43.4253426454961299896240234375</LatitudeDegrees>
              <LongitudeDegrees>-4.809526987373828887939453125</LongitudeDegrees>
            </Position>
            <AltitudeMeters>28.3999996185302734375</AltitudeMeters>
            <DistanceMeters>NAN</DistanceMeters>
          </Trackpoint>
          <Trackpoint>
            <Time>2022-07-16T09:40:50.000Z</Time>
            <Position>
              <LatitudeDegrees>43.425347842276096343994140625</LatitudeDegrees>
              <LongitudeDegrees>-4.80988732539117336273193359375</LongitudeDegrees>
            </Position>
            <AltitudeMeters>28.200000762939453125</AltitudeMeters>
            <DistanceMeters>NAN</DistanceMeters>
          </Trackpoint>
          <Trackpoint>
            <Time>2022-07-16T09:40:51.000Z</Time>
            <Position>
              <LatitudeDegrees>43.42534692026674747467041015625</LatitudeDegrees>
              <LongitudeDegrees>-4.80992319993674755096435546875</LongitudeDegrees>
            </Position>
            <AltitudeMeters>28.200000762939453125</AltitudeMeters>
            <DistanceMeters>NAN</DistanceMeters>
          </Trackpoint>
          <Trackpoint>
            <Time>2022-07-16T09:41:00.000Z</Time>
            <Position>
              <LatitudeDegrees>43.4253386221826076507568359375</LatitudeDegrees>
              <LongitudeDegrees>-4.81024674139916896820068359375</LongitudeDegrees>
            </Position>
            <AltitudeMeters>28.6000003814697265625</AltitudeMeters>
            <DistanceMeters>NAN</DistanceMeters>
          </Trackpoint>
          <Trackpoint>
            <Time>2022-07-16T09:41:04.000Z</Time>
            <Position>
              <LatitudeDegrees>43.4253553859889507293701171875</LatitudeDegrees>
              <LongitudeDegrees>-4.81033709831535816192626953125</LongitudeDegrees>
            </Position>
            <AltitudeMeters>28.799999237060546875</AltitudeMeters>
            <DistanceMeters>NAN</DistanceMeters>
          </Trackpoint>
          <Trackpoint>
            <Time>2022-07-16T09:41:05.000Z</Time>
            <Position>
              <LatitudeDegrees>43.4253687970340251922607421875</LatitudeDegrees>
              <LongitudeDegrees>-4.81034078635275363922119140625</LongitudeDegrees>
            </Position>
            <AltitudeMeters>28.6000003814697265625</AltitudeMeters>
            <DistanceMeters>NAN</DistanceMeters>
          </Trackpoint>
          <Trackpoint>
            <Time>2022-07-16T09:41:10.000Z</Time>
            <Position>
              <LatitudeDegrees>43.42547415755689144134521484375</LatitudeDegrees>
              <LongitudeDegrees>-4.81042720377445220947265625</LongitudeDegrees>
            </Position>
            <AltitudeMeters>27.799999237060546875</AltitudeMeters>
            <DistanceMeters>NAN</DistanceMeters>
          </Trackpoint>
          <Trackpoint>
            <Time>2022-07-16T09:41:14.000Z</Time>
            <Position>
              <LatitudeDegrees>43.42552595771849155426025390625</LatitudeDegrees>
              <LongitudeDegrees>-4.81066592037677764892578125</LongitudeDegrees>
            </Position>
            <AltitudeMeters>27.6000003814697265625</AltitudeMeters>
            <DistanceMeters>NAN</DistanceMeters>
          </Trackpoint>
          <Trackpoint>
            <Time>2022-07-16T09:41:24.000Z</Time>
            <Position>
              <LatitudeDegrees>43.42560675926506519317626953125</LatitudeDegrees>
              <LongitudeDegrees>-4.811178557574748992919921875</LongitudeDegrees>
            </Position>
            <AltitudeMeters>27.6000003814697265625</AltitudeMeters>
            <DistanceMeters>NAN</DistanceMeters>
          </Trackpoint>
          <Trackpoint>
            <Time>2022-07-16T09:41:29.000Z</Time>
            <Position>
              <LatitudeDegrees>43.42564347200095653533935546875</LatitudeDegrees>
              <LongitudeDegrees>-4.8113210499286651611328125</LongitudeDegrees>
            </Position>
            <AltitudeMeters>28</AltitudeMeters>
            <DistanceMeters>NAN</DistanceMeters>
          </Trackpoint>
          <Trackpoint>
            <Time>2022-07-16T09:41:32.000Z</Time>
            <Position>
              <LatitudeDegrees>43.42570901848375797271728515625</LatitudeDegrees>
              <LongitudeDegrees>-4.81133169494569301605224609375</LongitudeDegrees>
            </Position>
            <AltitudeMeters>28</AltitudeMeters>
            <DistanceMeters>NAN</DistanceMeters>
          </Trackpoint>
          <Trackpoint>
            <Time>2022-07-16T09:41:33.000Z</Time>
            <Position>
              <LatitudeDegrees>43.4257386066019535064697265625</LatitudeDegrees>
              <LongitudeDegrees>-4.8113185353577136993408203125</LongitudeDegrees>
            </Position>
            <AltitudeMeters>28</AltitudeMeters>
            <DistanceMeters>NAN</DistanceMeters>
          </Trackpoint>
          <Trackpoint>
            <Time>2022-07-16T09:41:39.000Z</Time>
            <Position>
              <LatitudeDegrees>43.42598260380327701568603515625</LatitudeDegrees>
              <LongitudeDegrees>-4.8112169466912746429443359375</LongitudeDegrees>
            </Position>
            <AltitudeMeters>27.3999996185302734375</AltitudeMeters>
            <DistanceMeters>NAN</DistanceMeters>
          </Trackpoint>
          <Trackpoint>
            <Time>2022-07-16T09:41:42.000Z</Time>
            <Position>
              <LatitudeDegrees>43.42612811364233493804931640625</LatitudeDegrees>
              <LongitudeDegrees>-4.8111703433096408843994140625</LongitudeDegrees>
            </Position>
            <AltitudeMeters>27.200000762939453125</AltitudeMeters>
            <DistanceMeters>NAN</DistanceMeters>
          </Trackpoint>
          <Trackpoint>
            <Time>2022-07-16T09:41:45.000Z</Time>
            <Position>
              <LatitudeDegrees>43.42629306949675083160400390625</LatitudeDegrees>
              <LongitudeDegrees>-4.8111126758158206939697265625</LongitudeDegrees>
            </Position>
            <AltitudeMeters>26.799999237060546875</AltitudeMeters>
            <DistanceMeters>NAN</DistanceMeters>
          </Trackpoint>
          <Trackpoint>
            <Time>2022-07-16T09:41:48.000Z</Time>
            <Position>
              <LatitudeDegrees>43.42644126154482364654541015625</LatitudeDegrees>
              <LongitudeDegrees>-4.81107185594737529754638671875</LongitudeDegrees>
            </Position>
            <AltitudeMeters>26.3999996185302734375</AltitudeMeters>
            <DistanceMeters>NAN</DistanceMeters>
          </Trackpoint>
          <Trackpoint>
            <Time>2022-07-16T09:41:53.000Z</Time>
            <Position>
              <LatitudeDegrees>43.4266746975481510162353515625</LatitudeDegrees>
              <LongitudeDegrees>-4.81099314987659454345703125</LongitudeDegrees>
            </Position>
            <AltitudeMeters>26.200000762939453125</AltitudeMeters>
            <DistanceMeters>NAN</DistanceMeters>
          </Trackpoint>
          <Trackpoint>
            <Time>2022-07-16T09:41:55.000Z</Time>
            <Position>
              <LatitudeDegrees>43.426768071949481964111328125</LatitudeDegrees>
              <LongitudeDegrees>-4.81096004135906696319580078125</LongitudeDegrees>
            </Position>
            <AltitudeMeters>25.799999237060546875</AltitudeMeters>
            <DistanceMeters>NAN</DistanceMeters>
          </Trackpoint>
          <Trackpoint>
            <Time>2022-07-16T09:41:58.000Z</Time>
            <Position>
              <LatitudeDegrees>43.42688097618520259857177734375</LatitudeDegrees>
              <LongitudeDegrees>-4.810913018882274627685546875</LongitudeDegrees>
            </Position>
            <AltitudeMeters>25.799999237060546875</AltitudeMeters>
            <DistanceMeters>NAN</DistanceMeters>
          </Trackpoint>
          <Trackpoint>
            <Time>2022-07-16T09:42:00.000Z</Time>
            <Position>
              <LatitudeDegrees>43.42694903723895549774169921875</LatitudeDegrees>
              <LongitudeDegrees>-4.810852669179439544677734375</LongitudeDegrees>
            </Position>
            <AltitudeMeters>25.799999237060546875</AltitudeMeters>
            <DistanceMeters>NAN</DistanceMeters>
          </Trackpoint>
          <Trackpoint>
            <Time>2022-07-16T09:42:04.000Z</Time>
            <Position>
              <LatitudeDegrees>43.42705942690372467041015625</LatitudeDegrees>
              <LongitudeDegrees>-4.81067036278545856475830078125</LongitudeDegrees>
            </Position>
            <AltitudeMeters>25.3999996185302734375</AltitudeMeters>
            <DistanceMeters>NAN</DistanceMeters>
          </Trackpoint>
          <Trackpoint>
            <Time>2022-07-16T09:42:06.000Z</Time>
            <Position>
              <LatitudeDegrees>43.42712505720555782318115234375</LatitudeDegrees>
              <LongitudeDegrees>-4.8105400241911411285400390625</LongitudeDegrees>
            </Position>
            <AltitudeMeters>25.200000762939453125</AltitudeMeters>
            <DistanceMeters>NAN</DistanceMeters>
          </Trackpoint>
          <Trackpoint>
            <Time>2022-07-16T09:42:10.000Z</Time>
            <Position>
              <LatitudeDegrees>43.42724793590605258941650390625</LatitudeDegrees>
              <LongitudeDegrees>-4.8102701269090175628662109375</LongitudeDegrees>
            </Position>
            <AltitudeMeters>24.200000762939453125</AltitudeMeters>
            <DistanceMeters>NAN</DistanceMeters>
          </Trackpoint>
          <Trackpoint>
            <Time>2022-07-16T09:42:11.000Z</Time>
            <Position>
              <LatitudeDegrees>43.42728800140321254730224609375</LatitudeDegrees>
              <LongitudeDegrees>-4.81020382605493068695068359375</LongitudeDegrees>
            </Position>
            <AltitudeMeters>24</AltitudeMeters>
            <DistanceMeters>NAN</DistanceMeters>
          </Trackpoint>
          <Trackpoint>
            <Time>2022-07-16T09:42:12.000Z</Time>
            <Position>
              <LatitudeDegrees>43.427331335842609405517578125</LatitudeDegrees>
              <LongitudeDegrees>-4.810142219066619873046875</LongitudeDegrees>
            </Position>
            <AltitudeMeters>23.799999237060546875</AltitudeMeters>
            <DistanceMeters>NAN</DistanceMeters>
          </Trackpoint>
          <Trackpoint>
            <Time>2022-07-16T09:42:15.000Z</Time>
            <Position>
              <LatitudeDegrees>43.427480868995189666748046875</LatitudeDegrees>
              <LongitudeDegrees>-4.80998237617313861846923828125</LongitudeDegrees>
            </Position>
            <AltitudeMeters>23.200000762939453125</AltitudeMeters>
            <DistanceMeters>NAN</DistanceMeters>
          </Trackpoint>
          <Trackpoint>
            <Time>2022-07-16T09:42:16.000Z</Time>
            <Position>
              <LatitudeDegrees>43.427530825138092041015625</LatitudeDegrees>
              <LongitudeDegrees>-4.80993057601153850555419921875</LongitudeDegrees>
            </Position>
            <AltitudeMeters>23</AltitudeMeters>
            <DistanceMeters>NAN</DistanceMeters>
          </Trackpoint>
          <Trackpoint>
            <Time>2022-07-16T09:42:22.000Z</Time>
            <Position>
              <LatitudeDegrees>43.42778940685093402862548828125</LatitudeDegrees>
              <LongitudeDegrees>-4.809675179421901702880859375</LongitudeDegrees>
            </Position>
            <AltitudeMeters>21.6000003814697265625</AltitudeMeters>
            <DistanceMeters>NAN</DistanceMeters>
          </Trackpoint>
          <Trackpoint>
            <Time>2022-07-16T09:42:24.000Z</Time>
            <Position>
              <LatitudeDegrees>43.42785880900919437408447265625</LatitudeDegrees>
              <LongitudeDegrees>-4.80962530709803104400634765625</LongitudeDegrees>
            </Position>
            <AltitudeMeters>21.200000762939453125</AltitudeMeters>
            <DistanceMeters>NAN</DistanceMeters>
          </Trackpoint>
          <Trackpoint>
            <Time>2022-07-16T09:42:26.000Z</Time>
            <Position>
              <LatitudeDegrees>43.42795788310468196868896484375</LatitudeDegrees>
              <LongitudeDegrees>-4.8095955513417720794677734375</LongitudeDegrees>
            </Position>
            <AltitudeMeters>21.200000762939453125</AltitudeMeters>
            <DistanceMeters>NAN</DistanceMeters>
          </Trackpoint>
          <Trackpoint>
            <Time>2022-07-16T09:42:27.000Z</Time>
            <Position>
              <LatitudeDegrees>43.42800490558147430419921875</LatitudeDegrees>
              <LongitudeDegrees>-4.8095955513417720794677734375</LongitudeDegrees>
            </Position>
            <AltitudeMeters>21.200000762939453125</AltitudeMeters>
            <DistanceMeters>NAN</DistanceMeters>
          </Trackpoint>
          <Trackpoint>
            <Time>2022-07-16T09:42:32.000Z</Time>
            <Position>
              <LatitudeDegrees>43.42824420891702175140380859375</LatitudeDegrees>
              <LongitudeDegrees>-4.8096076212823390960693359375</LongitudeDegrees>
            </Position>
            <AltitudeMeters>20.6000003814697265625</AltitudeMeters>
            <DistanceMeters>NAN</DistanceMeters>
          </Trackpoint>
          <Trackpoint>
            <Time>2022-07-16T09:42:42.000Z</Time>
            <Position>
              <LatitudeDegrees>43.42873270623385906219482421875</LatitudeDegrees>
              <LongitudeDegrees>-4.809622205793857574462890625</LongitudeDegrees>
            </Position>
            <AltitudeMeters>19.799999237060546875</AltitudeMeters>
            <DistanceMeters>NAN</DistanceMeters>
          </Trackpoint>
          <Trackpoint>
            <Time>2022-07-16T09:42:43.000Z</Time>
            <Position>
              <LatitudeDegrees>43.42877696268260478973388671875</LatitudeDegrees>
              <LongitudeDegrees>-4.80962296016514301300048828125</LongitudeDegrees>
            </Position>
            <AltitudeMeters>19.6000003814697265625</AltitudeMeters>
            <DistanceMeters>NAN</DistanceMeters>
          </Trackpoint>
          <Trackpoint>
            <Time>2022-07-16T09:42:45.000Z</Time>
            <Position>
              <LatitudeDegrees>43.428858853876590728759765625</LatitudeDegrees>
              <LongitudeDegrees>-4.8096354492008686065673828125</LongitudeDegrees>
            </Position>
            <AltitudeMeters>19.6000003814697265625</AltitudeMeters>
            <DistanceMeters>NAN</DistanceMeters>
          </Trackpoint>
          <Trackpoint>
            <Time>2022-07-16T09:42:47.000Z</Time>
            <Position>
              <LatitudeDegrees>43.42895549722015857696533203125</LatitudeDegrees>
              <LongitudeDegrees>-4.80963201262056827545166015625</LongitudeDegrees>
            </Position>
            <AltitudeMeters>19.6000003814697265625</AltitudeMeters>
            <DistanceMeters>NAN</DistanceMeters>
          </Trackpoint>
          <Trackpoint>
            <Time>2022-07-16T09:42:49.000Z</Time>
            <Position>
              <LatitudeDegrees>43.4290122427046298980712890625</LatitudeDegrees>
              <LongitudeDegrees>-4.8096205294132232666015625</LongitudeDegrees>
            </Position>
            <AltitudeMeters>19.3999996185302734375</AltitudeMeters>
            <DistanceMeters>NAN</DistanceMeters>
          </Trackpoint>
          <Trackpoint>
            <Time>2022-07-16T09:42:51.000Z</Time>
            <Position>
              <LatitudeDegrees>43.42905507422983646392822265625</LatitudeDegrees>
              <LongitudeDegrees>-4.809614159166812896728515625</LongitudeDegrees>
            </Position>
            <AltitudeMeters>19.200000762939453125</AltitudeMeters>
            <DistanceMeters>NAN</DistanceMeters>
          </Trackpoint>
          <Trackpoint>
            <Time>2022-07-16T09:42:56.000Z</Time>
            <Position>
              <LatitudeDegrees>43.42918080277740955352783203125</LatitudeDegrees>
              <LongitudeDegrees>-4.80961457826197147369384765625</LongitudeDegrees>
            </Position>
            <AltitudeMeters>19.200000762939453125</AltitudeMeters>
            <DistanceMeters>NAN</DistanceMeters>
          </Trackpoint>
          <Trackpoint>
            <Time>2022-07-16T09:42:57.000Z</Time>
            <Position>
              <LatitudeDegrees>43.42922086827456951141357421875</LatitudeDegrees>
              <LongitudeDegrees>-4.80960586108267307281494140625</LongitudeDegrees>
            </Position>
            <AltitudeMeters>19.200000762939453125</AltitudeMeters>
            <DistanceMeters>NAN</DistanceMeters>
          </Trackpoint>
          <Trackpoint>
            <Time>2022-07-16T09:43:06.000Z</Time>
            <Position>
              <LatitudeDegrees>43.42952362261712551116943359375</LatitudeDegrees>
              <LongitudeDegrees>-4.8095616884529590606689453125</LongitudeDegrees>
            </Position>
            <AltitudeMeters>19.6000003814697265625</AltitudeMeters>
            <DistanceMeters>NAN</DistanceMeters>
          </Trackpoint>
          <Trackpoint>
            <Time>2022-07-16T09:43:15.000Z</Time>
            <Position>
              <LatitudeDegrees>43.42983157373964786529541015625</LatitudeDegrees>
              <LongitudeDegrees>-4.80948164127767086029052734375</LongitudeDegrees>
            </Position>
            <AltitudeMeters>19</AltitudeMeters>
            <DistanceMeters>NAN</DistanceMeters>
          </Trackpoint>
          <Trackpoint>
            <Time>2022-07-16T09:43:22.000Z</Time>
            <Position>
              <LatitudeDegrees>43.4300663508474826812744140625</LatitudeDegrees>
              <LongitudeDegrees>-4.80937234126031398773193359375</LongitudeDegrees>
            </Position>
            <AltitudeMeters>18.6000003814697265625</AltitudeMeters>
            <DistanceMeters>NAN</DistanceMeters>
          </Trackpoint>
          <Trackpoint>
            <Time>2022-07-16T09:43:23.000Z</Time>
            <Position>
              <LatitudeDegrees>43.4301044046878814697265625</LatitudeDegrees>
              <LongitudeDegrees>-4.80938759632408618927001953125</LongitudeDegrees>
            </Position>
            <AltitudeMeters>18.6000003814697265625</AltitudeMeters>
            <DistanceMeters>NAN</DistanceMeters>
          </Trackpoint>
          <Trackpoint>
            <Time>2022-07-16T09:43:28.000Z</Time>
            <Position>
              <LatitudeDegrees>43.430245220661163330078125</LatitudeDegrees>
              <LongitudeDegrees>-4.80945247225463390350341796875</LongitudeDegrees>
            </Position>
            <AltitudeMeters>18.799999237060546875</AltitudeMeters>
            <DistanceMeters>NAN</DistanceMeters>
          </Trackpoint>
          <Trackpoint>
            <Time>2022-07-16T09:43:30.000Z</Time>
            <Position>
              <LatitudeDegrees>43.4302896447479724884033203125</LatitudeDegrees>
              <LongitudeDegrees>-4.8094728402793407440185546875</LongitudeDegrees>
            </Position>
            <AltitudeMeters>19</AltitudeMeters>
            <DistanceMeters>NAN</DistanceMeters>
          </Trackpoint>
          <Trackpoint>
            <Time>2022-07-16T09:43:34.000Z</Time>
            <Position>
              <LatitudeDegrees>43.43038477934896945953369140625</LatitudeDegrees>
              <LongitudeDegrees>-4.80954584665596485137939453125</LongitudeDegrees>
            </Position>
            <AltitudeMeters>19.200000762939453125</AltitudeMeters>
            <DistanceMeters>NAN</DistanceMeters>
          </Trackpoint>
          <Trackpoint>
            <Time>2022-07-16T09:43:36.000Z</Time>
            <Position>
              <LatitudeDegrees>43.43042702414095401763916015625</LatitudeDegrees>
              <LongitudeDegrees>-4.809579961001873016357421875</LongitudeDegrees>
            </Position>
            <AltitudeMeters>19.3999996185302734375</AltitudeMeters>
            <DistanceMeters>NAN</DistanceMeters>
          </Trackpoint>
          <Trackpoint>
            <Time>2022-07-16T09:43:39.000Z</Time>
            <Position>
              <LatitudeDegrees>43.43049156479537487030029296875</LatitudeDegrees>
              <LongitudeDegrees>-4.80963922105729579925537109375</LongitudeDegrees>
            </Position>
            <AltitudeMeters>19.6000003814697265625</AltitudeMeters>
            <DistanceMeters>NAN</DistanceMeters>
          </Trackpoint>
          <Trackpoint>
            <Time>2022-07-16T09:43:41.000Z</Time>
            <Position>
              <LatitudeDegrees>43.43052526004612445831298828125</LatitudeDegrees>
              <LongitudeDegrees>-4.809675514698028564453125</LongitudeDegrees>
            </Position>
            <AltitudeMeters>19.3999996185302734375</AltitudeMeters>
            <DistanceMeters>NAN</DistanceMeters>
          </Trackpoint>
          <Trackpoint>
            <Time>2022-07-16T09:43:48.000Z</Time>
            <Position>
              <LatitudeDegrees>43.4306296147406101226806640625</LatitudeDegrees>
              <LongitudeDegrees>-4.80986402370035648345947265625</LongitudeDegrees>
            </Position>
            <AltitudeMeters>19.6000003814697265625</AltitudeMeters>
            <DistanceMeters>NAN</DistanceMeters>
          </Trackpoint>
          <Trackpoint>
            <Time>2022-07-16T09:43:53.000Z</Time>
            <Position>
              <LatitudeDegrees>43.430676721036434173583984375</LatitudeDegrees>
              <LongitudeDegrees>-4.80996946804225444793701171875</LongitudeDegrees>
            </Position>
            <AltitudeMeters>19.3999996185302734375</AltitudeMeters>
            <DistanceMeters>NAN</DistanceMeters>
          </Trackpoint>
          <Trackpoint>
            <Time>2022-07-16T09:43:55.000Z</Time>
            <Position>
              <LatitudeDegrees>43.430676721036434173583984375</LatitudeDegrees>
              <LongitudeDegrees>-4.80996946804225444793701171875</LongitudeDegrees>
            </Position>
            <AltitudeMeters>19.3999996185302734375</AltitudeMeters>
            <DistanceMeters>NAN</DistanceMeters>
          </Trackpoint>
          <Trackpoint>
            <Time>2022-07-16T09:44:44.000Z</Time>
            <Position>
              <LatitudeDegrees>43.430692143738269805908203125</LatitudeDegrees>
              <LongitudeDegrees>-4.8099931888282299041748046875</LongitudeDegrees>
            </Position>
            <AltitudeMeters>19.3999996185302734375</AltitudeMeters>
            <DistanceMeters>NAN</DistanceMeters>
          </Trackpoint>
          <Trackpoint>
            <Time>2022-07-16T09:44:45.000Z</Time>
            <Position>
              <LatitudeDegrees>43.43071150593459606170654296875</LatitudeDegrees>
              <LongitudeDegrees>-4.81001255102455615997314453125</LongitudeDegrees>
            </Position>
            <AltitudeMeters>19.3999996185302734375</AltitudeMeters>
            <DistanceMeters>NAN</DistanceMeters>
          </Trackpoint>
          <Trackpoint>
            <Time>2022-07-16T09:44:48.000Z</Time>
            <Position>
              <LatitudeDegrees>43.43077118508517742156982421875</LatitudeDegrees>
              <LongitudeDegrees>-4.81007449328899383544921875</LongitudeDegrees>
            </Position>
            <AltitudeMeters>19.3999996185302734375</AltitudeMeters>
            <DistanceMeters>NAN</DistanceMeters>
          </Trackpoint>
          <Trackpoint>
            <Time>2022-07-16T09:44:51.000Z</Time>
            <Position>
              <LatitudeDegrees>43.43085684813559055328369140625</LatitudeDegrees>
              <LongitudeDegrees>-4.81010408140718936920166015625</LongitudeDegrees>
            </Position>
            <AltitudeMeters>19.3999996185302734375</AltitudeMeters>
            <DistanceMeters>NAN</DistanceMeters>
          </Trackpoint>
          <Trackpoint>
            <Time>2022-07-16T09:44:54.000Z</Time>
            <Position>
              <LatitudeDegrees>43.43094049952924251556396484375</LatitudeDegrees>
              <LongitudeDegrees>-4.810157306492328643798828125</LongitudeDegrees>
            </Position>
            <AltitudeMeters>19.6000003814697265625</AltitudeMeters>
            <DistanceMeters>NAN</DistanceMeters>
          </Trackpoint>
          <Trackpoint>
            <Time>2022-07-16T09:44:56.000Z</Time>
            <Position>
              <LatitudeDegrees>43.43099649064242839813232421875</LatitudeDegrees>
              <LongitudeDegrees>-4.81020483188331127166748046875</LongitudeDegrees>
            </Position>
            <AltitudeMeters>19.799999237060546875</AltitudeMeters>
            <DistanceMeters>NAN</DistanceMeters>
          </Trackpoint>
          <Trackpoint>
            <Time>2022-07-16T09:45:00.000Z</Time>
            <Position>
              <LatitudeDegrees>43.4310949780046939849853515625</LatitudeDegrees>
              <LongitudeDegrees>-4.81027708388864994049072265625</LongitudeDegrees>
            </Position>
            <AltitudeMeters>20</AltitudeMeters>
            <DistanceMeters>NAN</DistanceMeters>
          </Trackpoint>
          <Trackpoint>
            <Time>2022-07-16T09:45:05.000Z</Time>
            <Position>
              <LatitudeDegrees>43.43119941651821136474609375</LatitudeDegrees>
              <LongitudeDegrees>-4.81034941971302032470703125</LongitudeDegrees>
            </Position>
            <AltitudeMeters>20.3999996185302734375</AltitudeMeters>
            <DistanceMeters>NAN</DistanceMeters>
          </Trackpoint>
          <Trackpoint>
            <Time>2022-07-16T09:45:13.000Z</Time>
            <Position>
              <LatitudeDegrees>43.43133755028247833251953125</LatitudeDegrees>
              <LongitudeDegrees>-4.8104404471814632415771484375</LongitudeDegrees>
            </Position>
            <AltitudeMeters>21.3999996185302734375</AltitudeMeters>
            <DistanceMeters>NAN</DistanceMeters>
          </Trackpoint>
          <Trackpoint>
            <Time>2022-07-16T09:45:14.000Z</Time>
            <Position>
              <LatitudeDegrees>43.43135205097496509552001953125</LatitudeDegrees>
              <LongitudeDegrees>-4.8104508407413959503173828125</LongitudeDegrees>
            </Position>
            <AltitudeMeters>21.6000003814697265625</AltitudeMeters>
            <DistanceMeters>NAN</DistanceMeters>
          </Trackpoint>
          <Trackpoint>
            <Time>2022-07-16T09:45:17.000Z</Time>
            <Position>
              <LatitudeDegrees>43.43139966018497943878173828125</LatitudeDegrees>
              <LongitudeDegrees>-4.81048059649765491485595703125</LongitudeDegrees>
            </Position>
            <AltitudeMeters>21.799999237060546875</AltitudeMeters>
            <DistanceMeters>NAN</DistanceMeters>
          </Trackpoint>
          <Trackpoint>
            <Time>2022-07-16T09:45:20.000Z</Time>
            <Position>
              <LatitudeDegrees>43.43143989332020282745361328125</LatitudeDegrees>
              <LongitudeDegrees>-4.81051228009164333343505859375</LongitudeDegrees>
            </Position>
            <AltitudeMeters>22</AltitudeMeters>
            <DistanceMeters>NAN</DistanceMeters>
          </Trackpoint>
          <Trackpoint>
            <Time>2022-07-16T09:45:22.000Z</Time>
            <Position>
              <LatitudeDegrees>43.431459255516529083251953125</LatitudeDegrees>
              <LongitudeDegrees>-4.81052250601351261138916015625</LongitudeDegrees>
            </Position>
            <AltitudeMeters>22.3999996185302734375</AltitudeMeters>
            <DistanceMeters>NAN</DistanceMeters>
          </Trackpoint>
          <Trackpoint>
            <Time>2022-07-16T09:45:23.000Z</Time>
            <Position>
              <LatitudeDegrees>43.43146855942904949188232421875</LatitudeDegrees>
              <LongitudeDegrees>-4.81053180992603302001953125</LongitudeDegrees>
            </Position>
            <AltitudeMeters>22.6000003814697265625</AltitudeMeters>
            <DistanceMeters>NAN</DistanceMeters>
          </Trackpoint>
          <Trackpoint>
            <Time>2022-07-16T09:45:25.000Z</Time>
            <Position>
              <LatitudeDegrees>43.43148347921669483184814453125</LatitudeDegrees>
              <LongitudeDegrees>-4.81054899282753467559814453125</LongitudeDegrees>
            </Position>
            <AltitudeMeters>22.799999237060546875</AltitudeMeters>
            <DistanceMeters>NAN</DistanceMeters>
          </Trackpoint>
          <Trackpoint>
            <Time>2022-07-16T09:45:30.000Z</Time>
            <Position>
              <LatitudeDegrees>43.43153729103505611419677734375</LatitudeDegrees>
              <LongitudeDegrees>-4.810598194599151611328125</LongitudeDegrees>
            </Position>
            <AltitudeMeters>23.3999996185302734375</AltitudeMeters>
            <DistanceMeters>NAN</DistanceMeters>
          </Trackpoint>
          <Trackpoint>
            <Time>2022-07-16T09:45:32.000Z</Time>
            <Position>
              <LatitudeDegrees>43.43156361021101474761962890625</LatitudeDegrees>
              <LongitudeDegrees>-4.81061118654906749725341796875</LongitudeDegrees>
            </Position>
            <AltitudeMeters>23.6000003814697265625</AltitudeMeters>
            <DistanceMeters>NAN</DistanceMeters>
          </Trackpoint>
          <Trackpoint>
            <Time>2022-07-16T09:45:35.000Z</Time>
            <Position>
              <LatitudeDegrees>43.43159479089081287384033203125</LatitudeDegrees>
              <LongitudeDegrees>-4.81063063256442546844482421875</LongitudeDegrees>
            </Position>
            <AltitudeMeters>24.200000762939453125</AltitudeMeters>
            <DistanceMeters>NAN</DistanceMeters>
          </Trackpoint>
          <Trackpoint>
            <Time>2022-07-16T09:45:38.000Z</Time>
            <Position>
              <LatitudeDegrees>43.4316307492554187774658203125</LatitudeDegrees>
              <LongitudeDegrees>-4.8106453008949756622314453125</LongitudeDegrees>
            </Position>
            <AltitudeMeters>24.3999996185302734375</AltitudeMeters>
            <DistanceMeters>NAN</DistanceMeters>
          </Trackpoint>
          <Trackpoint>
            <Time>2022-07-16T09:45:41.000Z</Time>
            <Position>
              <LatitudeDegrees>43.43166410923004150390625</LatitudeDegrees>
              <LongitudeDegrees>-4.81067237444221973419189453125</LongitudeDegrees>
            </Position>
            <AltitudeMeters>24.6000003814697265625</AltitudeMeters>
            <DistanceMeters>NAN</DistanceMeters>
          </Trackpoint>
          <Trackpoint>
            <Time>2022-07-16T09:45:42.000Z</Time>
            <Position>
              <LatitudeDegrees>43.43167441897094249725341796875</LatitudeDegrees>
              <LongitudeDegrees>-4.81068125925958156585693359375</LongitudeDegrees>
            </Position>
            <AltitudeMeters>24.799999237060546875</AltitudeMeters>
            <DistanceMeters>NAN</DistanceMeters>
          </Trackpoint>
          <Trackpoint>
            <Time>2022-07-16T09:45:49.000Z</Time>
            <Position>
              <LatitudeDegrees>43.4317719005048274993896484375</LatitudeDegrees>
              <LongitudeDegrees>-4.81071143411099910736083984375</LongitudeDegrees>
            </Position>
            <AltitudeMeters>26</AltitudeMeters>
            <DistanceMeters>NAN</DistanceMeters>
          </Trackpoint>
          <Trackpoint>
            <Time>2022-07-16T09:45:51.000Z</Time>
            <Position>
              <LatitudeDegrees>43.43179813586175441741943359375</LatitudeDegrees>
              <LongitudeDegrees>-4.810723252594470977783203125</LongitudeDegrees>
            </Position>
            <AltitudeMeters>26.200000762939453125</AltitudeMeters>
            <DistanceMeters>NAN</DistanceMeters>
          </Trackpoint>
          <Trackpoint>
            <Time>2022-07-16T09:46:00.000Z</Time>
            <Position>
              <LatitudeDegrees>43.4319586493074893951416015625</LatitudeDegrees>
              <LongitudeDegrees>-4.8108052276074886322021484375</LongitudeDegrees>
            </Position>
            <AltitudeMeters>26.6000003814697265625</AltitudeMeters>
            <DistanceMeters>NAN</DistanceMeters>
          </Trackpoint>
          <Trackpoint>
            <Time>2022-07-16T09:46:09.000Z</Time>
            <Position>
              <LatitudeDegrees>43.432187139987945556640625</LatitudeDegrees>
              <LongitudeDegrees>-4.81093414127826690673828125</LongitudeDegrees>
            </Position>
            <AltitudeMeters>26.6000003814697265625</AltitudeMeters>
            <DistanceMeters>NAN</DistanceMeters>
          </Trackpoint>
          <Trackpoint>
            <Time>2022-07-16T09:46:17.000Z</Time>
            <Position>
              <LatitudeDegrees>43.4324334003031253814697265625</LatitudeDegrees>
              <LongitudeDegrees>-4.811139665544033050537109375</LongitudeDegrees>
            </Position>
            <AltitudeMeters>25.200000762939453125</AltitudeMeters>
            <DistanceMeters>NAN</DistanceMeters>
          </Trackpoint>
          <Trackpoint>
            <Time>2022-07-16T09:46:18.000Z</Time>
            <Position>
              <LatitudeDegrees>43.43250137753784656524658203125</LatitudeDegrees>
              <LongitudeDegrees>-4.81116908602416515350341796875</LongitudeDegrees>
            </Position>
            <AltitudeMeters>24.6000003814697265625</AltitudeMeters>
            <DistanceMeters>NAN</DistanceMeters>
          </Trackpoint>
          <Trackpoint>
            <Time>2022-07-16T09:46:20.000Z</Time>
            <Position>
              <LatitudeDegrees>43.432628028094768524169921875</LatitudeDegrees>
              <LongitudeDegrees>-4.81121837161481380462646484375</LongitudeDegrees>
            </Position>
            <AltitudeMeters>23.6000003814697265625</AltitudeMeters>
            <DistanceMeters>NAN</DistanceMeters>
          </Trackpoint>
          <Trackpoint>
            <Time>2022-07-16T09:46:22.000Z</Time>
            <Position>
              <LatitudeDegrees>43.43276046216487884521484375</LatitudeDegrees>
              <LongitudeDegrees>-4.8112843371927738189697265625</LongitudeDegrees>
            </Position>
            <AltitudeMeters>22.200000762939453125</AltitudeMeters>
            <DistanceMeters>NAN</DistanceMeters>
          </Trackpoint>
          <Trackpoint>
            <Time>2022-07-16T09:46:24.000Z</Time>
            <Position>
              <LatitudeDegrees>43.43288761563599109649658203125</LatitudeDegrees>
              <LongitudeDegrees>-4.81138668023049831390380859375</LongitudeDegrees>
            </Position>
            <AltitudeMeters>20.6000003814697265625</AltitudeMeters>
            <DistanceMeters>NAN</DistanceMeters>
          </Trackpoint>
          <Trackpoint>
            <Time>2022-07-16T09:46:26.000Z</Time>
            <Position>
              <LatitudeDegrees>43.43299205414950847625732421875</LatitudeDegrees>
              <LongitudeDegrees>-4.81150922365486621856689453125</LongitudeDegrees>
            </Position>
            <AltitudeMeters>19.200000762939453125</AltitudeMeters>
            <DistanceMeters>NAN</DistanceMeters>
          </Trackpoint>
          <Trackpoint>
            <Time>2022-07-16T09:46:29.000Z</Time>
            <Position>
              <LatitudeDegrees>43.4330942295491695404052734375</LatitudeDegrees>
              <LongitudeDegrees>-4.81172195635735988616943359375</LongitudeDegrees>
            </Position>
            <AltitudeMeters>18</AltitudeMeters>
            <DistanceMeters>NAN</DistanceMeters>
          </Trackpoint>
          <Trackpoint>
            <Time>2022-07-16T09:46:30.000Z</Time>
            <Position>
              <LatitudeDegrees>43.4331213869154453277587890625</LatitudeDegrees>
              <LongitudeDegrees>-4.8117956332862377166748046875</LongitudeDegrees>
            </Position>
            <AltitudeMeters>17.799999237060546875</AltitudeMeters>
            <DistanceMeters>NAN</DistanceMeters>
          </Trackpoint>
          <Trackpoint>
            <Time>2022-07-16T09:46:34.000Z</Time>
            <Position>
              <LatitudeDegrees>43.43322389759123325347900390625</LatitudeDegrees>
              <LongitudeDegrees>-4.8120695538818836212158203125</LongitudeDegrees>
            </Position>
            <AltitudeMeters>17.3999996185302734375</AltitudeMeters>
            <DistanceMeters>NAN</DistanceMeters>
          </Trackpoint>
          <Trackpoint>
            <Time>2022-07-16T09:46:35.000Z</Time>
            <Position>
              <LatitudeDegrees>43.4332501329481601715087890625</LatitudeDegrees>
              <LongitudeDegrees>-4.812133423984050750732421875</LongitudeDegrees>
            </Position>
            <AltitudeMeters>17</AltitudeMeters>
            <DistanceMeters>NAN</DistanceMeters>
          </Trackpoint>
          <Trackpoint>
            <Time>2022-07-16T09:46:36.000Z</Time>
            <Position>
              <LatitudeDegrees>43.43327167443931102752685546875</LatitudeDegrees>
              <LongitudeDegrees>-4.812200479209423065185546875</LongitudeDegrees>
            </Position>
            <AltitudeMeters>16.799999237060546875</AltitudeMeters>
            <DistanceMeters>NAN</DistanceMeters>
          </Trackpoint>
          <Trackpoint>
            <Time>2022-07-16T09:46:41.000Z</Time>
            <Position>
              <LatitudeDegrees>43.4333772026002407073974609375</LatitudeDegrees>
              <LongitudeDegrees>-4.81250993907451629638671875</LongitudeDegrees>
            </Position>
            <AltitudeMeters>16</AltitudeMeters>
            <DistanceMeters>NAN</DistanceMeters>
          </Trackpoint>
          <Trackpoint>
            <Time>2022-07-16T09:46:43.000Z</Time>
            <Position>
              <LatitudeDegrees>43.43340829946100711822509765625</LatitudeDegrees>
              <LongitudeDegrees>-4.81263332068920135498046875</LongitudeDegrees>
            </Position>
            <AltitudeMeters>15.80000019073486328125</AltitudeMeters>
            <DistanceMeters>NAN</DistanceMeters>
          </Trackpoint>
          <Trackpoint>
            <Time>2022-07-16T09:46:44.000Z</Time>
            <Position>
              <LatitudeDegrees>43.433420620858669281005859375</LatitudeDegrees>
              <LongitudeDegrees>-4.81269232928752899169921875</LongitudeDegrees>
            </Position>
            <AltitudeMeters>15.80000019073486328125</AltitudeMeters>
            <DistanceMeters>NAN</DistanceMeters>
          </Trackpoint>
          <Trackpoint>
            <Time>2022-07-16T09:46:45.000Z</Time>
            <Position>
              <LatitudeDegrees>43.43343101441860198974609375</LatitudeDegrees>
              <LongitudeDegrees>-4.81275225989520549774169921875</LongitudeDegrees>
            </Position>
            <AltitudeMeters>15.6000003814697265625</AltitudeMeters>
            <DistanceMeters>NAN</DistanceMeters>
          </Trackpoint>
          <Trackpoint>
            <Time>2022-07-16T09:46:48.000Z</Time>
            <Position>
              <LatitudeDegrees>43.4334690682590007781982421875</LatitudeDegrees>
              <LongitudeDegrees>-4.81292903423309326171875</LongitudeDegrees>
            </Position>
            <AltitudeMeters>15.19999980926513671875</AltitudeMeters>
            <DistanceMeters>NAN</DistanceMeters>
          </Trackpoint>
          <Trackpoint>
            <Time>2022-07-16T09:46:51.000Z</Time>
            <Position>
              <LatitudeDegrees>43.43351039104163646697998046875</LatitudeDegrees>
              <LongitudeDegrees>-4.81309524737298488616943359375</LongitudeDegrees>
            </Position>
            <AltitudeMeters>15.19999980926513671875</AltitudeMeters>
            <DistanceMeters>NAN</DistanceMeters>
          </Trackpoint>
          <Trackpoint>
            <Time>2022-07-16T09:46:52.000Z</Time>
            <Position>
              <LatitudeDegrees>43.4335274063050746917724609375</LatitudeDegrees>
              <LongitudeDegrees>-4.81315090321004390716552734375</LongitudeDegrees>
            </Position>
            <AltitudeMeters>15</AltitudeMeters>
            <DistanceMeters>NAN</DistanceMeters>
          </Trackpoint>
          <Trackpoint>
            <Time>2022-07-16T09:46:53.000Z</Time>
            <Position>
              <LatitudeDegrees>43.4335491992533206939697265625</LatitudeDegrees>
              <LongitudeDegrees>-4.81320521794259548187255859375</LongitudeDegrees>
            </Position>
            <AltitudeMeters>15</AltitudeMeters>
            <DistanceMeters>NAN</DistanceMeters>
          </Trackpoint>
          <Trackpoint>
            <Time>2022-07-16T09:46:55.000Z</Time>
            <Position>
              <LatitudeDegrees>43.43359337188303470611572265625</LatitudeDegrees>
              <LongitudeDegrees>-4.8133037053048610687255859375</LongitudeDegrees>
            </Position>
            <AltitudeMeters>14.80000019073486328125</AltitudeMeters>
            <DistanceMeters>NAN</DistanceMeters>
          </Trackpoint>
          <Trackpoint>
            <Time>2022-07-16T09:47:02.000Z</Time>
            <Position>
              <LatitudeDegrees>43.43375648371875286102294921875</LatitudeDegrees>
              <LongitudeDegrees>-4.8136054538190364837646484375</LongitudeDegrees>
            </Position>
            <AltitudeMeters>14.3999996185302734375</AltitudeMeters>
            <DistanceMeters>NAN</DistanceMeters>
          </Trackpoint>
          <Trackpoint>
            <Time>2022-07-16T09:47:06.000Z</Time>
            <Position>
              <LatitudeDegrees>43.43385002575814723968505859375</LatitudeDegrees>
              <LongitudeDegrees>-4.8137667216360569000244140625</LongitudeDegrees>
            </Position>
            <AltitudeMeters>14.6000003814697265625</AltitudeMeters>
            <DistanceMeters>NAN</DistanceMeters>
          </Trackpoint>
          <Trackpoint>
            <Time>2022-07-16T09:47:07.000Z</Time>
            <Position>
              <LatitudeDegrees>43.43387550674378871917724609375</LatitudeDegrees>
              <LongitudeDegrees>-4.813805781304836273193359375</LongitudeDegrees>
            </Position>
            <AltitudeMeters>14.6000003814697265625</AltitudeMeters>
            <DistanceMeters>NAN</DistanceMeters>
          </Trackpoint>
          <Trackpoint>
            <Time>2022-07-16T09:47:11.000Z</Time>
            <Position>
              <LatitudeDegrees>43.4339652769267559051513671875</LatitudeDegrees>
              <LongitudeDegrees>-4.8139551468193531036376953125</LongitudeDegrees>
            </Position>
            <AltitudeMeters>14.80000019073486328125</AltitudeMeters>
            <DistanceMeters>NAN</DistanceMeters>
          </Trackpoint>
          <Trackpoint>
            <Time>2022-07-16T09:47:18.000Z</Time>
            <Position>
              <LatitudeDegrees>43.434085808694362640380859375</LatitudeDegrees>
              <LongitudeDegrees>-4.81417559087276458740234375</LongitudeDegrees>
            </Position>
            <AltitudeMeters>14</AltitudeMeters>
            <DistanceMeters>NAN</DistanceMeters>
          </Trackpoint>
          <Trackpoint>
            <Time>2022-07-16T09:47:20.000Z</Time>
            <Position>
              <LatitudeDegrees>43.4340993873775005340576171875</LatitudeDegrees>
              <LongitudeDegrees>-4.81417533941566944122314453125</LongitudeDegrees>
            </Position>
            <AltitudeMeters>13.80000019073486328125</AltitudeMeters>
            <DistanceMeters>NAN</DistanceMeters>
          </Trackpoint>
          <Trackpoint>
            <Time>2022-07-16T09:47:21.000Z</Time>
            <Position>
              <LatitudeDegrees>43.43410081230103969573974609375</LatitudeDegrees>
              <LongitudeDegrees>-4.8141747526824474334716796875</LongitudeDegrees>
            </Position>
            <AltitudeMeters>13.6000003814697265625</AltitudeMeters>
            <DistanceMeters>NAN</DistanceMeters>
          </Trackpoint>
          <Trackpoint>
            <Time>2022-07-16T09:47:23.000Z</Time>
            <Position>
              <LatitudeDegrees>43.4341241978108882904052734375</LatitudeDegrees>
              <LongitudeDegrees>-4.8141569830477237701416015625</LongitudeDegrees>
            </Position>
            <AltitudeMeters>13.3999996185302734375</AltitudeMeters>
            <DistanceMeters>NAN</DistanceMeters>
          </Trackpoint>
          <Trackpoint>
            <Time>2022-07-16T09:47:25.000Z</Time>
            <Position>
              <LatitudeDegrees>43.43416719697415828704833984375</LatitudeDegrees>
              <LongitudeDegrees>-4.8141132295131683349609375</LongitudeDegrees>
            </Position>
            <AltitudeMeters>13.3999996185302734375</AltitudeMeters>
            <DistanceMeters>NAN</DistanceMeters>
          </Trackpoint>
          <Trackpoint>
            <Time>2022-07-16T09:47:29.000Z</Time>
            <Position>
              <LatitudeDegrees>43.43429225496947765350341796875</LatitudeDegrees>
              <LongitudeDegrees>-4.8140416480600833892822265625</LongitudeDegrees>
            </Position>
            <AltitudeMeters>13.19999980926513671875</AltitudeMeters>
            <DistanceMeters>NAN</DistanceMeters>
          </Trackpoint>
          <Trackpoint>
            <Time>2022-07-16T09:47:31.000Z</Time>
            <Position>
              <LatitudeDegrees>43.43435847200453281402587890625</LatitudeDegrees>
              <LongitudeDegrees>-4.814003594219684600830078125</LongitudeDegrees>
            </Position>
            <AltitudeMeters>13</AltitudeMeters>
            <DistanceMeters>NAN</DistanceMeters>
          </Trackpoint>
          <Trackpoint>
            <Time>2022-07-16T09:47:35.000Z</Time>
            <Position>
              <LatitudeDegrees>43.4344940073788166046142578125</LatitudeDegrees>
              <LongitudeDegrees>-4.81391801498830318450927734375</LongitudeDegrees>
            </Position>
            <AltitudeMeters>12.80000019073486328125</AltitudeMeters>
            <DistanceMeters>NAN</DistanceMeters>
          </Trackpoint>
          <Trackpoint>
            <Time>2022-07-16T09:47:38.000Z</Time>
            <Position>
              <LatitudeDegrees>43.4345751442015171051025390625</LatitudeDegrees>
              <LongitudeDegrees>-4.81388457119464874267578125</LongitudeDegrees>
            </Position>
            <AltitudeMeters>12.80000019073486328125</AltitudeMeters>
            <DistanceMeters>NAN</DistanceMeters>
          </Trackpoint>
          <Trackpoint>
            <Time>2022-07-16T09:47:40.000Z</Time>
            <Position>
              <LatitudeDegrees>43.43462233431637287139892578125</LatitudeDegrees>
              <LongitudeDegrees>-4.8138552345335483551025390625</LongitudeDegrees>
            </Position>
            <AltitudeMeters>12.6000003814697265625</AltitudeMeters>
            <DistanceMeters>NAN</DistanceMeters>
          </Trackpoint>
          <Trackpoint>
            <Time>2022-07-16T09:47:45.000Z</Time>
            <Position>
              <LatitudeDegrees>43.434710763394832611083984375</LatitudeDegrees>
              <LongitudeDegrees>-4.81382346712052822113037109375</LongitudeDegrees>
            </Position>
            <AltitudeMeters>12.3999996185302734375</AltitudeMeters>
            <DistanceMeters>NAN</DistanceMeters>
          </Trackpoint>
          <Trackpoint>
            <Time>2022-07-16T09:47:51.000Z</Time>
            <Position>
              <LatitudeDegrees>43.4347379207611083984375</LatitudeDegrees>
              <LongitudeDegrees>-4.81382832862436771392822265625</LongitudeDegrees>
            </Position>
            <AltitudeMeters>12</AltitudeMeters>
            <DistanceMeters>NAN</DistanceMeters>
          </Trackpoint>
          <Trackpoint>
            <Time>2022-07-16T09:48:08.000Z</Time>
            <Position>
              <LatitudeDegrees>43.43469022773206233978271484375</LatitudeDegrees>
              <LongitudeDegrees>-4.8138096369802951812744140625</LongitudeDegrees>
            </Position>
            <AltitudeMeters>12.19999980926513671875</AltitudeMeters>
            <DistanceMeters>NAN</DistanceMeters>
          </Trackpoint>
          <Trackpoint>
            <Time>2022-07-16T09:48:15.000Z</Time>
            <Position>
              <LatitudeDegrees>43.43457229435443878173828125</LatitudeDegrees>
              <LongitudeDegrees>-4.8138693161308765411376953125</LongitudeDegrees>
            </Position>
            <AltitudeMeters>12.19999980926513671875</AltitudeMeters>
            <DistanceMeters>NAN</DistanceMeters>
          </Trackpoint>
          <Trackpoint>
            <Time>2022-07-16T09:48:20.000Z</Time>
            <Position>
              <LatitudeDegrees>43.43449425883591175079345703125</LatitudeDegrees>
              <LongitudeDegrees>-4.813918769359588623046875</LongitudeDegrees>
            </Position>
            <AltitudeMeters>12.19999980926513671875</AltitudeMeters>
            <DistanceMeters>NAN</DistanceMeters>
          </Trackpoint>
          <Trackpoint>
            <Time>2022-07-16T09:48:22.000Z</Time>
            <Position>
              <LatitudeDegrees>43.43445586971938610076904296875</LatitudeDegrees>
              <LongitudeDegrees>-4.8139393888413906097412109375</LongitudeDegrees>
            </Position>
            <AltitudeMeters>12.19999980926513671875</AltitudeMeters>
            <DistanceMeters>NAN</DistanceMeters>
          </Trackpoint>
          <Trackpoint>
            <Time>2022-07-16T09:48:28.000Z</Time>
            <Position>
              <LatitudeDegrees>43.434316478669643402099609375</LatitudeDegrees>
              <LongitudeDegrees>-4.81400468386709690093994140625</LongitudeDegrees>
            </Position>
            <AltitudeMeters>12.19999980926513671875</AltitudeMeters>
            <DistanceMeters>NAN</DistanceMeters>
          </Trackpoint>
          <Trackpoint>
            <Time>2022-07-16T09:48:38.000Z</Time>
            <Position>
              <LatitudeDegrees>43.43410517089068889617919921875</LatitudeDegrees>
              <LongitudeDegrees>-4.8141221143305301666259765625</LongitudeDegrees>
            </Position>
            <AltitudeMeters>12.19999980926513671875</AltitudeMeters>
            <DistanceMeters>NAN</DistanceMeters>
          </Trackpoint>
          <Trackpoint>
            <Time>2022-07-16T09:48:41.000Z</Time>
            <Position>
              <LatitudeDegrees>43.4340698830783367156982421875</LatitudeDegrees>
              <LongitudeDegrees>-4.81418506242334842681884765625</LongitudeDegrees>
            </Position>
            <AltitudeMeters>12.6000003814697265625</AltitudeMeters>
            <DistanceMeters>NAN</DistanceMeters>
          </Trackpoint>
          <Trackpoint>
            <Time>2022-07-16T09:48:44.000Z</Time>
            <Position>
              <LatitudeDegrees>43.4340564720332622528076171875</LatitudeDegrees>
              <LongitudeDegrees>-4.814267791807651519775390625</LongitudeDegrees>
            </Position>
            <AltitudeMeters>12.6000003814697265625</AltitudeMeters>
            <DistanceMeters>NAN</DistanceMeters>
          </Trackpoint>
          <Trackpoint>
            <Time>2022-07-16T09:48:54.000Z</Time>
            <Position>
              <LatitudeDegrees>43.43403811566531658172607421875</LatitudeDegrees>
              <LongitudeDegrees>-4.81463014148175716400146484375</LongitudeDegrees>
            </Position>
            <AltitudeMeters>13</AltitudeMeters>
            <DistanceMeters>NAN</DistanceMeters>
          </Trackpoint>
          <Trackpoint>
            <Time>2022-07-16T09:49:03.000Z</Time>
            <Position>
              <LatitudeDegrees>43.43400576151907444000244140625</LatitudeDegrees>
              <LongitudeDegrees>-4.8149535991251468658447265625</LongitudeDegrees>
            </Position>
            <AltitudeMeters>12.80000019073486328125</AltitudeMeters>
            <DistanceMeters>NAN</DistanceMeters>
          </Trackpoint>
          <Trackpoint>
            <Time>2022-07-16T09:49:12.000Z</Time>
            <Position>
              <LatitudeDegrees>43.4340259619057178497314453125</LatitudeDegrees>
              <LongitudeDegrees>-4.81526901014149188995361328125</LongitudeDegrees>
            </Position>
            <AltitudeMeters>13</AltitudeMeters>
            <DistanceMeters>NAN</DistanceMeters>
          </Trackpoint>
          <Trackpoint>
            <Time>2022-07-16T09:49:21.000Z</Time>
            <Position>
              <LatitudeDegrees>43.4340732358396053314208984375</LatitudeDegrees>
              <LongitudeDegrees>-4.81555558741092681884765625</LongitudeDegrees>
            </Position>
            <AltitudeMeters>13.3999996185302734375</AltitudeMeters>
            <DistanceMeters>NAN</DistanceMeters>
          </Trackpoint>
          <Trackpoint>
            <Time>2022-07-16T09:49:24.000Z</Time>
            <Position>
              <LatitudeDegrees>43.43409620225429534912109375</LatitudeDegrees>
              <LongitudeDegrees>-4.8156358860433101654052734375</LongitudeDegrees>
            </Position>
            <AltitudeMeters>13.80000019073486328125</AltitudeMeters>
            <DistanceMeters>NAN</DistanceMeters>
          </Trackpoint>
          <Trackpoint>
            <Time>2022-07-16T09:49:30.000Z</Time>
            <Position>
              <LatitudeDegrees>43.4341567195951938629150390625</LatitudeDegrees>
              <LongitudeDegrees>-4.8158072121441364288330078125</LongitudeDegrees>
            </Position>
            <AltitudeMeters>13.80000019073486328125</AltitudeMeters>
            <DistanceMeters>NAN</DistanceMeters>
          </Trackpoint>
          <Trackpoint>
            <Time>2022-07-16T09:49:40.000Z</Time>
            <Position>
              <LatitudeDegrees>43.43428437598049640655517578125</LatitudeDegrees>
              <LongitudeDegrees>-4.816054813563823699951171875</LongitudeDegrees>
            </Position>
            <AltitudeMeters>14.3999996185302734375</AltitudeMeters>
            <DistanceMeters>NAN</DistanceMeters>
          </Trackpoint>
          <Trackpoint>
            <Time>2022-07-16T09:49:47.000Z</Time>
            <Position>
              <LatitudeDegrees>43.43435796909034252166748046875</LatitudeDegrees>
              <LongitudeDegrees>-4.8162092082202434539794921875</LongitudeDegrees>
            </Position>
            <AltitudeMeters>15</AltitudeMeters>
            <DistanceMeters>NAN</DistanceMeters>
          </Trackpoint>
          <Trackpoint>
            <Time>2022-07-16T09:49:49.000Z</Time>
            <Position>
              <LatitudeDegrees>43.4343820251524448394775390625</LatitudeDegrees>
              <LongitudeDegrees>-4.81625606305897235870361328125</LongitudeDegrees>
            </Position>
            <AltitudeMeters>15.3999996185302734375</AltitudeMeters>
            <DistanceMeters>NAN</DistanceMeters>
          </Trackpoint>
          <Trackpoint>
            <Time>2022-07-16T09:49:57.000Z</Time>
            <Position>
              <LatitudeDegrees>43.43445687554776668548583984375</LatitudeDegrees>
              <LongitudeDegrees>-4.81641867198050022125244140625</LongitudeDegrees>
            </Position>
            <AltitudeMeters>15.80000019073486328125</AltitudeMeters>
            <DistanceMeters>NAN</DistanceMeters>
          </Trackpoint>
          <Trackpoint>
            <Time>2022-07-16T09:49:59.000Z</Time>
            <Position>
              <LatitudeDegrees>43.43447682447731494903564453125</LatitudeDegrees>
              <LongitudeDegrees>-4.8164613358676433563232421875</LongitudeDegrees>
            </Position>
            <AltitudeMeters>16</AltitudeMeters>
            <DistanceMeters>NAN</DistanceMeters>
          </Trackpoint>
          <Trackpoint>
            <Time>2022-07-16T09:50:02.000Z</Time>
            <Position>
              <LatitudeDegrees>43.43450163491070270538330078125</LatitudeDegrees>
              <LongitudeDegrees>-4.81652252376079559326171875</LongitudeDegrees>
            </Position>
            <AltitudeMeters>16.200000762939453125</AltitudeMeters>
            <DistanceMeters>NAN</DistanceMeters>
          </Trackpoint>
          <Trackpoint>
            <Time>2022-07-16T09:50:09.000Z</Time>
            <Position>
              <LatitudeDegrees>43.43454404734075069427490234375</LatitudeDegrees>
              <LongitudeDegrees>-4.81668571941554546356201171875</LongitudeDegrees>
            </Position>
            <AltitudeMeters>16.799999237060546875</AltitudeMeters>
            <DistanceMeters>NAN</DistanceMeters>
          </Trackpoint>
          <Trackpoint>
            <Time>2022-07-16T09:50:10.000Z</Time>
            <Position>
              <LatitudeDegrees>43.43454974703490734100341796875</LatitudeDegrees>
              <LongitudeDegrees>-4.81670466251671314239501953125</LongitudeDegrees>
            </Position>
            <AltitudeMeters>16.799999237060546875</AltitudeMeters>
            <DistanceMeters>NAN</DistanceMeters>
          </Trackpoint>
          <Trackpoint>
            <Time>2022-07-16T09:50:17.000Z</Time>
            <Position>
              <LatitudeDegrees>43.43456885777413845062255859375</LatitudeDegrees>
              <LongitudeDegrees>-4.816863499581813812255859375</LongitudeDegrees>
            </Position>
            <AltitudeMeters>17</AltitudeMeters>
            <DistanceMeters>NAN</DistanceMeters>
          </Trackpoint>
          <Trackpoint>
            <Time>2022-07-16T09:50:18.000Z</Time>
            <Position>
              <LatitudeDegrees>43.43457120470702648162841796875</LatitudeDegrees>
              <LongitudeDegrees>-4.81687967665493488311767578125</LongitudeDegrees>
            </Position>
            <AltitudeMeters>17.3999996185302734375</AltitudeMeters>
            <DistanceMeters>NAN</DistanceMeters>
          </Trackpoint>
          <Trackpoint>
            <Time>2022-07-16T09:50:26.000Z</Time>
            <Position>
              <LatitudeDegrees>43.43457539565861225128173828125</LatitudeDegrees>
              <LongitudeDegrees>-4.81705770827829837799072265625</LongitudeDegrees>
            </Position>
            <AltitudeMeters>18.200000762939453125</AltitudeMeters>
            <DistanceMeters>NAN</DistanceMeters>
          </Trackpoint>
          <Trackpoint>
            <Time>2022-07-16T09:50:27.000Z</Time>
            <Position>
              <LatitudeDegrees>43.43457539565861225128173828125</LatitudeDegrees>
              <LongitudeDegrees>-4.81707614846527576446533203125</LongitudeDegrees>
            </Position>
            <AltitudeMeters>18.200000762939453125</AltitudeMeters>
            <DistanceMeters>NAN</DistanceMeters>
          </Trackpoint>
          <Trackpoint>
            <Time>2022-07-16T09:50:29.000Z</Time>
            <Position>
              <LatitudeDegrees>43.434574306011199951171875</LatitudeDegrees>
              <LongitudeDegrees>-4.81711721979081630706787109375</LongitudeDegrees>
            </Position>
            <AltitudeMeters>18.3999996185302734375</AltitudeMeters>
            <DistanceMeters>NAN</DistanceMeters>
          </Trackpoint>
          <Trackpoint>
            <Time>2022-07-16T09:50:37.000Z</Time>
            <Position>
              <LatitudeDegrees>43.43458360992372035980224609375</LatitudeDegrees>
              <LongitudeDegrees>-4.817295335233211517333984375</LongitudeDegrees>
            </Position>
            <AltitudeMeters>19</AltitudeMeters>
            <DistanceMeters>NAN</DistanceMeters>
          </Trackpoint>
          <Trackpoint>
            <Time>2022-07-16T09:50:44.000Z</Time>
            <Position>
              <LatitudeDegrees>43.43457539565861225128173828125</LatitudeDegrees>
              <LongitudeDegrees>-4.81745400466024875640869140625</LongitudeDegrees>
            </Position>
            <AltitudeMeters>19.3999996185302734375</AltitudeMeters>
            <DistanceMeters>NAN</DistanceMeters>
          </Trackpoint>
          <Trackpoint>
            <Time>2022-07-16T09:50:45.000Z</Time>
            <Position>
              <LatitudeDegrees>43.43457631766796112060546875</LatitudeDegrees>
              <LongitudeDegrees>-4.81747663579881191253662109375</LongitudeDegrees>
            </Position>
            <AltitudeMeters>19.3999996185302734375</AltitudeMeters>
            <DistanceMeters>NAN</DistanceMeters>
          </Trackpoint>
          <Trackpoint>
            <Time>2022-07-16T09:50:57.000Z</Time>
            <Position>
              <LatitudeDegrees>43.4345630742609500885009765625</LatitudeDegrees>
              <LongitudeDegrees>-4.81778584420680999755859375</LongitudeDegrees>
            </Position>
            <AltitudeMeters>20.3999996185302734375</AltitudeMeters>
            <DistanceMeters>NAN</DistanceMeters>
          </Trackpoint>
          <Trackpoint>
            <Time>2022-07-16T09:51:00.000Z</Time>
            <Position>
              <LatitudeDegrees>43.4345677681267261505126953125</LatitudeDegrees>
              <LongitudeDegrees>-4.817866645753383636474609375</LongitudeDegrees>
            </Position>
            <AltitudeMeters>20.3999996185302734375</AltitudeMeters>
            <DistanceMeters>NAN</DistanceMeters>
          </Trackpoint>
          <Trackpoint>
            <Time>2022-07-16T09:51:02.000Z</Time>
            <Position>
              <LatitudeDegrees>43.43457187525928020477294921875</LatitudeDegrees>
              <LongitudeDegrees>-4.81792925857007503509521484375</LongitudeDegrees>
            </Position>
            <AltitudeMeters>20.3999996185302734375</AltitudeMeters>
            <DistanceMeters>NAN</DistanceMeters>
          </Trackpoint>
          <Trackpoint>
            <Time>2022-07-16T09:51:08.000Z</Time>
            <Position>
              <LatitudeDegrees>43.43458998017013072967529296875</LatitudeDegrees>
              <LongitudeDegrees>-4.81811433099210262298583984375</LongitudeDegrees>
            </Position>
            <AltitudeMeters>20.799999237060546875</AltitudeMeters>
            <DistanceMeters>NAN</DistanceMeters>
          </Trackpoint>
          <Trackpoint>
            <Time>2022-07-16T09:51:18.000Z</Time>
            <Position>
              <LatitudeDegrees>43.43465770594775676727294921875</LatitudeDegrees>
              <LongitudeDegrees>-4.8184770159423351287841796875</LongitudeDegrees>
            </Position>
            <AltitudeMeters>21</AltitudeMeters>
            <DistanceMeters>NAN</DistanceMeters>
          </Trackpoint>
          <Trackpoint>
            <Time>2022-07-16T09:51:25.000Z</Time>
            <Position>
              <LatitudeDegrees>43.43470104038715362548828125</LatitudeDegrees>
              <LongitudeDegrees>-4.81870760209858417510986328125</LongitudeDegrees>
            </Position>
            <AltitudeMeters>21.200000762939453125</AltitudeMeters>
            <DistanceMeters>NAN</DistanceMeters>
          </Trackpoint>
          <Trackpoint>
            <Time>2022-07-16T09:51:32.000Z</Time>
            <Position>
              <LatitudeDegrees>43.4347578696906566619873046875</LatitudeDegrees>
              <LongitudeDegrees>-4.81893827207386493682861328125</LongitudeDegrees>
            </Position>
            <AltitudeMeters>21</AltitudeMeters>
            <DistanceMeters>NAN</DistanceMeters>
          </Trackpoint>
          <Trackpoint>
            <Time>2022-07-16T09:51:33.000Z</Time>
            <Position>
              <LatitudeDegrees>43.4347608871757984161376953125</LatitudeDegrees>
              <LongitudeDegrees>-4.81897548772394657135009765625</LongitudeDegrees>
            </Position>
            <AltitudeMeters>21</AltitudeMeters>
            <DistanceMeters>NAN</DistanceMeters>
          </Trackpoint>
          <Trackpoint>
            <Time>2022-07-16T09:51:35.000Z</Time>
            <Position>
              <LatitudeDegrees>43.4347687661647796630859375</LatitudeDegrees>
              <LongitudeDegrees>-4.8190573789179325103759765625</LongitudeDegrees>
            </Position>
            <AltitudeMeters>21</AltitudeMeters>
            <DistanceMeters>NAN</DistanceMeters>
          </Trackpoint>
          <Trackpoint>
            <Time>2022-07-16T09:51:43.000Z</Time>
            <Position>
              <LatitudeDegrees>43.434781841933727264404296875</LatitudeDegrees>
              <LongitudeDegrees>-4.81934730894863605499267578125</LongitudeDegrees>
            </Position>
            <AltitudeMeters>21.3999996185302734375</AltitudeMeters>
            <DistanceMeters>NAN</DistanceMeters>
          </Trackpoint>
          <Trackpoint>
            <Time>2022-07-16T09:51:44.000Z</Time>
            <Position>
              <LatitudeDegrees>43.43478209339082241058349609375</LatitudeDegrees>
              <LongitudeDegrees>-4.819384776055812835693359375</LongitudeDegrees>
            </Position>
            <AltitudeMeters>21.3999996185302734375</AltitudeMeters>
            <DistanceMeters>NAN</DistanceMeters>
          </Trackpoint>
          <Trackpoint>
            <Time>2022-07-16T09:51:52.000Z</Time>
            <Position>
              <LatitudeDegrees>43.43474127352237701416015625</LatitudeDegrees>
              <LongitudeDegrees>-4.819689206779003143310546875</LongitudeDegrees>
            </Position>
            <AltitudeMeters>21.6000003814697265625</AltitudeMeters>
            <DistanceMeters>NAN</DistanceMeters>
          </Trackpoint>
          <Trackpoint>
            <Time>2022-07-16T09:51:53.000Z</Time>
            <Position>
              <LatitudeDegrees>43.434734232723712921142578125</LatitudeDegrees>
              <LongitudeDegrees>-4.81973086483776569366455078125</LongitudeDegrees>
            </Position>
            <AltitudeMeters>21.799999237060546875</AltitudeMeters>
            <DistanceMeters>NAN</DistanceMeters>
          </Trackpoint>
          <Trackpoint>
            <Time>2022-07-16T09:51:59.000Z</Time>
            <Position>
              <LatitudeDegrees>43.434693999588489532470703125</LatitudeDegrees>
              <LongitudeDegrees>-4.819962121546268463134765625</LongitudeDegrees>
            </Position>
            <AltitudeMeters>21.6000003814697265625</AltitudeMeters>
            <DistanceMeters>NAN</DistanceMeters>
          </Trackpoint>
          <Trackpoint>
            <Time>2022-07-16T09:52:02.000Z</Time>
            <Position>
              <LatitudeDegrees>43.43467019498348236083984375</LatitudeDegrees>
              <LongitudeDegrees>-4.8200682364404201507568359375</LongitudeDegrees>
            </Position>
            <AltitudeMeters>21.6000003814697265625</AltitudeMeters>
            <DistanceMeters>NAN</DistanceMeters>
          </Trackpoint>
          <Trackpoint>
            <Time>2022-07-16T09:52:15.000Z</Time>
            <Position>
              <LatitudeDegrees>43.43458059243857860565185546875</LatitudeDegrees>
              <LongitudeDegrees>-4.8205916024744510650634765625</LongitudeDegrees>
            </Position>
            <AltitudeMeters>21.799999237060546875</AltitudeMeters>
            <DistanceMeters>NAN</DistanceMeters>
          </Trackpoint>
          <Trackpoint>
            <Time>2022-07-16T09:52:20.000Z</Time>
            <Position>
              <LatitudeDegrees>43.4345486573874950408935546875</LatitudeDegrees>
              <LongitudeDegrees>-4.820807687938213348388671875</LongitudeDegrees>
            </Position>
            <AltitudeMeters>21.799999237060546875</AltitudeMeters>
            <DistanceMeters>NAN</DistanceMeters>
          </Trackpoint>
          <Trackpoint>
            <Time>2022-07-16T09:52:25.000Z</Time>
            <Position>
              <LatitudeDegrees>43.4345044009387493133544921875</LatitudeDegrees>
              <LongitudeDegrees>-4.82105822302401065826416015625</LongitudeDegrees>
            </Position>
            <AltitudeMeters>21.3999996185302734375</AltitudeMeters>
            <DistanceMeters>NAN</DistanceMeters>
          </Trackpoint>
          <Trackpoint>
            <Time>2022-07-16T09:52:26.000Z</Time>
            <Position>
              <LatitudeDegrees>43.4344946779310703277587890625</LatitudeDegrees>
              <LongitudeDegrees>-4.82110935263335704803466796875</LongitudeDegrees>
            </Position>
            <AltitudeMeters>21.200000762939453125</AltitudeMeters>
            <DistanceMeters>NAN</DistanceMeters>
          </Trackpoint>
          <Trackpoint>
            <Time>2022-07-16T09:52:31.000Z</Time>
            <Position>
              <LatitudeDegrees>43.4344500862061977386474609375</LatitudeDegrees>
              <LongitudeDegrees>-4.82136600650846958160400390625</LongitudeDegrees>
            </Position>
            <AltitudeMeters>20.799999237060546875</AltitudeMeters>
            <DistanceMeters>NAN</DistanceMeters>
          </Trackpoint>
          <Trackpoint>
            <Time>2022-07-16T09:52:33.000Z</Time>
            <Position>
              <LatitudeDegrees>43.43443692661821842193603515625</LatitudeDegrees>
              <LongitudeDegrees>-4.82147991657257080078125</LongitudeDegrees>
            </Position>
            <AltitudeMeters>20.799999237060546875</AltitudeMeters>
            <DistanceMeters>NAN</DistanceMeters>
          </Trackpoint>
          <Trackpoint>
            <Time>2022-07-16T09:52:37.000Z</Time>
            <Position>
              <LatitudeDegrees>43.43438898213207721710205078125</LatitudeDegrees>
              <LongitudeDegrees>-4.82168711721897125244140625</LongitudeDegrees>
            </Position>
            <AltitudeMeters>20.799999237060546875</AltitudeMeters>
            <DistanceMeters>NAN</DistanceMeters>
          </Trackpoint>
          <Trackpoint>
            <Time>2022-07-16T09:52:41.000Z</Time>
            <Position>
              <LatitudeDegrees>43.43434640206396579742431640625</LatitudeDegrees>
              <LongitudeDegrees>-4.8219112493097782135009765625</LongitudeDegrees>
            </Position>
            <AltitudeMeters>20.3999996185302734375</AltitudeMeters>
            <DistanceMeters>NAN</DistanceMeters>
          </Trackpoint>
          <Trackpoint>
            <Time>2022-07-16T09:52:44.000Z</Time>
            <Position>
              <LatitudeDegrees>43.43432192690670490264892578125</LatitudeDegrees>
              <LongitudeDegrees>-4.82208098284900188446044921875</LongitudeDegrees>
            </Position>
            <AltitudeMeters>20.200000762939453125</AltitudeMeters>
            <DistanceMeters>NAN</DistanceMeters>
          </Trackpoint>
          <Trackpoint>
            <Time>2022-07-16T09:52:51.000Z</Time>
            <Position>
              <LatitudeDegrees>43.4342757426202297210693359375</LatitudeDegrees>
              <LongitudeDegrees>-4.82251415960490703582763671875</LongitudeDegrees>
            </Position>
            <AltitudeMeters>19.3999996185302734375</AltitudeMeters>
            <DistanceMeters>NAN</DistanceMeters>
          </Trackpoint>
          <Trackpoint>
            <Time>2022-07-16T09:52:53.000Z</Time>
            <Position>
              <LatitudeDegrees>43.43427683226764202117919921875</LatitudeDegrees>
              <LongitudeDegrees>-4.822640977799892425537109375</LongitudeDegrees>
            </Position>
            <AltitudeMeters>19.3999996185302734375</AltitudeMeters>
            <DistanceMeters>NAN</DistanceMeters>
          </Trackpoint>
          <Trackpoint>
            <Time>2022-07-16T09:52:55.000Z</Time>
            <Position>
              <LatitudeDegrees>43.4342847950756549835205078125</LatitudeDegrees>
              <LongitudeDegrees>-4.8227655328810214996337890625</LongitudeDegrees>
            </Position>
            <AltitudeMeters>19.200000762939453125</AltitudeMeters>
            <DistanceMeters>NAN</DistanceMeters>
          </Trackpoint>
          <Trackpoint>
            <Time>2022-07-16T09:53:00.000Z</Time>
            <Position>
              <LatitudeDegrees>43.43434271402657032012939453125</LatitudeDegrees>
              <LongitudeDegrees>-4.8230907507240772247314453125</LongitudeDegrees>
            </Position>
            <AltitudeMeters>19</AltitudeMeters>
            <DistanceMeters>NAN</DistanceMeters>
          </Trackpoint>
          <Trackpoint>
            <Time>2022-07-16T09:53:02.000Z</Time>
            <Position>
              <LatitudeDegrees>43.43437372706830501556396484375</LatitudeDegrees>
              <LongitudeDegrees>-4.82321002520620822906494140625</LongitudeDegrees>
            </Position>
            <AltitudeMeters>18.6000003814697265625</AltitudeMeters>
            <DistanceMeters>NAN</DistanceMeters>
          </Trackpoint>
          <Trackpoint>
            <Time>2022-07-16T09:53:05.000Z</Time>
            <Position>
              <LatitudeDegrees>43.4344185702502727508544921875</LatitudeDegrees>
              <LongitudeDegrees>-4.82338302768766880035400390625</LongitudeDegrees>
            </Position>
            <AltitudeMeters>18.3999996185302734375</AltitudeMeters>
            <DistanceMeters>NAN</DistanceMeters>
          </Trackpoint>
          <Trackpoint>
            <Time>2022-07-16T09:53:07.000Z</Time>
            <Position>
              <LatitudeDegrees>43.43445017002522945404052734375</LatitudeDegrees>
              <LongitudeDegrees>-4.82350054197013378143310546875</LongitudeDegrees>
            </Position>
            <AltitudeMeters>18.200000762939453125</AltitudeMeters>
            <DistanceMeters>NAN</DistanceMeters>
          </Trackpoint>
          <Trackpoint>
            <Time>2022-07-16T09:53:15.000Z</Time>
            <Position>
              <LatitudeDegrees>43.43455712310969829559326171875</LatitudeDegrees>
              <LongitudeDegrees>-4.82392181642353534698486328125</LongitudeDegrees>
            </Position>
            <AltitudeMeters>17.3999996185302734375</AltitudeMeters>
            <DistanceMeters>NAN</DistanceMeters>
          </Trackpoint>
          <Trackpoint>
            <Time>2022-07-16T09:53:19.000Z</Time>
            <Position>
              <LatitudeDegrees>43.434618227183818817138671875</LatitudeDegrees>
              <LongitudeDegrees>-4.82411627657711505889892578125</LongitudeDegrees>
            </Position>
            <AltitudeMeters>17.3999996185302734375</AltitudeMeters>
            <DistanceMeters>NAN</DistanceMeters>
          </Trackpoint>
          <Trackpoint>
            <Time>2022-07-16T09:53:23.000Z</Time>
            <Position>
              <LatitudeDegrees>43.43467128463089466094970703125</LatitudeDegrees>
              <LongitudeDegrees>-4.8242772929370403289794921875</LongitudeDegrees>
            </Position>
            <AltitudeMeters>17.200000762939453125</AltitudeMeters>
            <DistanceMeters>NAN</DistanceMeters>
          </Trackpoint>
          <Trackpoint>
            <Time>2022-07-16T09:53:29.000Z</Time>
            <Position>
              <LatitudeDegrees>43.43479064293205738067626953125</LatitudeDegrees>
              <LongitudeDegrees>-4.82451341114938259124755859375</LongitudeDegrees>
            </Position>
            <AltitudeMeters>16.799999237060546875</AltitudeMeters>
            <DistanceMeters>NAN</DistanceMeters>
          </Trackpoint>
          <Trackpoint>
            <Time>2022-07-16T09:53:31.000Z</Time>
            <Position>
              <LatitudeDegrees>43.4348386712372303009033203125</LatitudeDegrees>
              <LongitudeDegrees>-4.82459052465856075286865234375</LongitudeDegrees>
            </Position>
            <AltitudeMeters>16.799999237060546875</AltitudeMeters>
            <DistanceMeters>NAN</DistanceMeters>
          </Trackpoint>
          <Trackpoint>
            <Time>2022-07-16T09:53:33.000Z</Time>
            <Position>
              <LatitudeDegrees>43.4348862804472446441650390625</LatitudeDegrees>
              <LongitudeDegrees>-4.824652969837188720703125</LongitudeDegrees>
            </Position>
            <AltitudeMeters>16.3999996185302734375</AltitudeMeters>
            <DistanceMeters>NAN</DistanceMeters>
          </Trackpoint>
          <Trackpoint>
            <Time>2022-07-16T09:53:35.000Z</Time>
            <Position>
              <LatitudeDegrees>43.4349483065307140350341796875</LatitudeDegrees>
              <LongitudeDegrees>-4.82467669062316417694091796875</LongitudeDegrees>
            </Position>
            <AltitudeMeters>16</AltitudeMeters>
            <DistanceMeters>NAN</DistanceMeters>
          </Trackpoint>
          <Trackpoint>
            <Time>2022-07-16T09:53:36.000Z</Time>
            <Position>
              <LatitudeDegrees>43.43497973866760730743408203125</LatitudeDegrees>
              <LongitudeDegrees>-4.8246730864048004150390625</LongitudeDegrees>
            </Position>
            <AltitudeMeters>16</AltitudeMeters>
            <DistanceMeters>NAN</DistanceMeters>
          </Trackpoint>
          <Trackpoint>
            <Time>2022-07-16T09:53:39.000Z</Time>
            <Position>
              <LatitudeDegrees>43.4350884519517421722412109375</LatitudeDegrees>
              <LongitudeDegrees>-4.8246209509670734405517578125</LongitudeDegrees>
            </Position>
            <AltitudeMeters>15.6000003814697265625</AltitudeMeters>
            <DistanceMeters>NAN</DistanceMeters>
          </Trackpoint>
          <Trackpoint>
            <Time>2022-07-16T09:53:41.000Z</Time>
            <Position>
              <LatitudeDegrees>43.43517319299280643463134765625</LatitudeDegrees>
              <LongitudeDegrees>-4.82460527680814266204833984375</LongitudeDegrees>
            </Position>
            <AltitudeMeters>15.19999980926513671875</AltitudeMeters>
            <DistanceMeters>NAN</DistanceMeters>
          </Trackpoint>
          <Trackpoint>
            <Time>2022-07-16T09:53:44.000Z</Time>
            <Position>
              <LatitudeDegrees>43.4352958202362060546875</LatitudeDegrees>
              <LongitudeDegrees>-4.82459127902984619140625</LongitudeDegrees>
            </Position>
            <AltitudeMeters>14.6000003814697265625</AltitudeMeters>
            <DistanceMeters>NAN</DistanceMeters>
          </Trackpoint>
          <Trackpoint>
            <Time>2022-07-16T09:53:46.000Z</Time>
            <Position>
              <LatitudeDegrees>43.43535139225423336029052734375</LatitudeDegrees>
              <LongitudeDegrees>-4.8245894350111484527587890625</LongitudeDegrees>
            </Position>
            <AltitudeMeters>14.19999980926513671875</AltitudeMeters>
            <DistanceMeters>NAN</DistanceMeters>
          </Trackpoint>
          <Trackpoint>
            <Time>2022-07-16T09:53:48.000Z</Time>
            <Position>
              <LatitudeDegrees>43.435381315648555755615234375</LatitudeDegrees>
              <LongitudeDegrees>-4.82457795180380344390869140625</LongitudeDegrees>
            </Position>
            <AltitudeMeters>13.3999996185302734375</AltitudeMeters>
            <DistanceMeters>NAN</DistanceMeters>
          </Trackpoint>
          <Trackpoint>
            <Time>2022-07-16T09:53:49.000Z</Time>
            <Position>
              <LatitudeDegrees>43.43540654517710208892822265625</LatitudeDegrees>
              <LongitudeDegrees>-4.8245684802532196044921875</LongitudeDegrees>
            </Position>
            <AltitudeMeters>13.19999980926513671875</AltitudeMeters>
            <DistanceMeters>NAN</DistanceMeters>
          </Trackpoint>
          <Trackpoint>
            <Time>2022-07-16T09:53:53.000Z</Time>
            <Position>
              <LatitudeDegrees>43.435541577637195587158203125</LatitudeDegrees>
              <LongitudeDegrees>-4.8245550692081451416015625</LongitudeDegrees>
            </Position>
            <AltitudeMeters>12.80000019073486328125</AltitudeMeters>
            <DistanceMeters>NAN</DistanceMeters>
          </Trackpoint>
          <Trackpoint>
            <Time>2022-07-16T09:53:56.000Z</Time>
            <Position>
              <LatitudeDegrees>43.43562011606991291046142578125</LatitudeDegrees>
              <LongitudeDegrees>-4.824582897126674652099609375</LongitudeDegrees>
            </Position>
            <AltitudeMeters>12</AltitudeMeters>
            <DistanceMeters>NAN</DistanceMeters>
          </Trackpoint>
          <Trackpoint>
            <Time>2022-07-16T09:53:57.000Z</Time>
            <Position>
              <LatitudeDegrees>43.4356403164565563201904296875</LatitudeDegrees>
              <LongitudeDegrees>-4.8246092163026332855224609375</LongitudeDegrees>
            </Position>
            <AltitudeMeters>12</AltitudeMeters>
            <DistanceMeters>NAN</DistanceMeters>
          </Trackpoint>
          <Trackpoint>
            <Time>2022-07-16T09:54:03.000Z</Time>
            <Position>
              <LatitudeDegrees>43.435733020305633544921875</LatitudeDegrees>
              <LongitudeDegrees>-4.824714995920658111572265625</LongitudeDegrees>
            </Position>
            <AltitudeMeters>11.80000019073486328125</AltitudeMeters>
            <DistanceMeters>NAN</DistanceMeters>
          </Trackpoint>
          <Trackpoint>
            <Time>2022-07-16T09:54:11.000Z</Time>
            <Position>
              <LatitudeDegrees>43.43582681380212306976318359375</LatitudeDegrees>
              <LongitudeDegrees>-4.824818260967731475830078125</LongitudeDegrees>
            </Position>
            <AltitudeMeters>12</AltitudeMeters>
            <DistanceMeters>NAN</DistanceMeters>
          </Trackpoint>
          <Trackpoint>
            <Time>2022-07-16T09:54:12.000Z</Time>
            <Position>
              <LatitudeDegrees>43.43582681380212306976318359375</LatitudeDegrees>
              <LongitudeDegrees>-4.824818260967731475830078125</LongitudeDegrees>
            </Position>
            <AltitudeMeters>12</AltitudeMeters>
            <DistanceMeters>NAN</DistanceMeters>
          </Trackpoint>
          <Trackpoint>
            <Time>2022-07-16T09:55:49.000Z</Time>
            <Position>
              <LatitudeDegrees>43.43578591011464595794677734375</LatitudeDegrees>
              <LongitudeDegrees>-4.82482152990996837615966796875</LongitudeDegrees>
            </Position>
            <AltitudeMeters>12</AltitudeMeters>
            <DistanceMeters>NAN</DistanceMeters>
          </Trackpoint>
          <Trackpoint>
            <Time>2022-07-16T09:55:50.000Z</Time>
            <Position>
              <LatitudeDegrees>43.43576855957508087158203125</LatitudeDegrees>
              <LongitudeDegrees>-4.82481264509260654449462890625</LongitudeDegrees>
            </Position>
            <AltitudeMeters>12</AltitudeMeters>
            <DistanceMeters>NAN</DistanceMeters>
          </Trackpoint>
          <Trackpoint>
            <Time>2022-07-16T09:55:52.000Z</Time>
            <Position>
              <LatitudeDegrees>43.4357308410108089447021484375</LatitudeDegrees>
              <LongitudeDegrees>-4.82477995567023754119873046875</LongitudeDegrees>
            </Position>
            <AltitudeMeters>11</AltitudeMeters>
            <DistanceMeters>NAN</DistanceMeters>
          </Trackpoint>
          <Trackpoint>
            <Time>2022-07-16T09:55:59.000Z</Time>
            <Position>
              <LatitudeDegrees>43.4356201998889446258544921875</LatitudeDegrees>
              <LongitudeDegrees>-4.8246243037283420562744140625</LongitudeDegrees>
            </Position>
            <AltitudeMeters>10.19999980926513671875</AltitudeMeters>
            <DistanceMeters>NAN</DistanceMeters>
          </Trackpoint>
          <Trackpoint>
            <Time>2022-07-16T09:56:00.000Z</Time>
            <Position>
              <LatitudeDegrees>43.43560301698744297027587890625</LatitudeDegrees>
              <LongitudeDegrees>-4.82460175640881061553955078125</LongitudeDegrees>
            </Position>
            <AltitudeMeters>10</AltitudeMeters>
            <DistanceMeters>NAN</DistanceMeters>
          </Trackpoint>
          <Trackpoint>
            <Time>2022-07-16T09:56:05.000Z</Time>
            <Position>
              <LatitudeDegrees>43.43549975194036960601806640625</LatitudeDegrees>
              <LongitudeDegrees>-4.824560098350048065185546875</LongitudeDegrees>
            </Position>
            <AltitudeMeters>10</AltitudeMeters>
            <DistanceMeters>NAN</DistanceMeters>
          </Trackpoint>
          <Trackpoint>
            <Time>2022-07-16T09:56:11.000Z</Time>
            <Position>
              <LatitudeDegrees>43.43539162538945674896240234375</LatitudeDegrees>
              <LongitudeDegrees>-4.8245619423687458038330078125</LongitudeDegrees>
            </Position>
            <AltitudeMeters>10.3999996185302734375</AltitudeMeters>
            <DistanceMeters>NAN</DistanceMeters>
          </Trackpoint>
          <Trackpoint>
            <Time>2022-07-16T09:56:16.000Z</Time>
            <Position>
              <LatitudeDegrees>43.43531132675707340240478515625</LatitudeDegrees>
              <LongitudeDegrees>-4.824572838842868804931640625</LongitudeDegrees>
            </Position>
            <AltitudeMeters>10.80000019073486328125</AltitudeMeters>
            <DistanceMeters>NAN</DistanceMeters>
          </Trackpoint>
          <Trackpoint>
            <Time>2022-07-16T09:56:22.000Z</Time>
            <Position>
              <LatitudeDegrees>43.4352000989019870758056640625</LatitudeDegrees>
              <LongitudeDegrees>-4.82457057572901248931884765625</LongitudeDegrees>
            </Position>
            <AltitudeMeters>11</AltitudeMeters>
            <DistanceMeters>NAN</DistanceMeters>
          </Trackpoint>
          <Trackpoint>
            <Time>2022-07-16T09:56:23.000Z</Time>
            <Position>
              <LatitudeDegrees>43.43518249690532684326171875</LatitudeDegrees>
              <LongitudeDegrees>-4.82457040809094905853271484375</LongitudeDegrees>
            </Position>
            <AltitudeMeters>11</AltitudeMeters>
            <DistanceMeters>NAN</DistanceMeters>
          </Trackpoint>
          <Trackpoint>
            <Time>2022-07-16T09:56:32.000Z</Time>
            <Position>
              <LatitudeDegrees>43.43504545278847217559814453125</LatitudeDegrees>
              <LongitudeDegrees>-4.82462103478610515594482421875</LongitudeDegrees>
            </Position>
            <AltitudeMeters>11.6000003814697265625</AltitudeMeters>
            <DistanceMeters>NAN</DistanceMeters>
          </Trackpoint>
          <Trackpoint>
            <Time>2022-07-16T09:56:36.000Z</Time>
            <Position>
              <LatitudeDegrees>43.43498493544757366180419921875</LatitudeDegrees>
              <LongitudeDegrees>-4.82464198954403400421142578125</LongitudeDegrees>
            </Position>
            <AltitudeMeters>12</AltitudeMeters>
            <DistanceMeters>NAN</DistanceMeters>
          </Trackpoint>
          <Trackpoint>
            <Time>2022-07-16T09:56:37.000Z</Time>
            <Position>
              <LatitudeDegrees>43.4349741227924823760986328125</LatitudeDegrees>
              <LongitudeDegrees>-4.82464584521949291229248046875</LongitudeDegrees>
            </Position>
            <AltitudeMeters>12</AltitudeMeters>
            <DistanceMeters>NAN</DistanceMeters>
          </Trackpoint>
          <Trackpoint>
            <Time>2022-07-16T09:56:38.000Z</Time>
            <Position>
              <LatitudeDegrees>43.43496381305158138275146484375</LatitudeDegrees>
              <LongitudeDegrees>-4.8246450908482074737548828125</LongitudeDegrees>
            </Position>
            <AltitudeMeters>12</AltitudeMeters>
            <DistanceMeters>NAN</DistanceMeters>
          </Trackpoint>
          <Trackpoint>
            <Time>2022-07-16T09:56:39.000Z</Time>
            <Position>
              <LatitudeDegrees>43.4349493123590946197509765625</LatitudeDegrees>
              <LongitudeDegrees>-4.8246460966765880584716796875</LongitudeDegrees>
            </Position>
            <AltitudeMeters>12.19999980926513671875</AltitudeMeters>
            <DistanceMeters>NAN</DistanceMeters>
          </Trackpoint>
          <Trackpoint>
            <Time>2022-07-16T09:56:40.000Z</Time>
            <Position>
              <LatitudeDegrees>43.43493531458079814910888671875</LatitudeDegrees>
              <LongitudeDegrees>-4.82465188018977642059326171875</LongitudeDegrees>
            </Position>
            <AltitudeMeters>12.19999980926513671875</AltitudeMeters>
            <DistanceMeters>NAN</DistanceMeters>
          </Trackpoint>
          <Trackpoint>
            <Time>2022-07-16T09:56:41.000Z</Time>
            <Position>
              <LatitudeDegrees>43.434926010668277740478515625</LatitudeDegrees>
              <LongitudeDegrees>-4.82465623877942562103271484375</LongitudeDegrees>
            </Position>
            <AltitudeMeters>12.19999980926513671875</AltitudeMeters>
            <DistanceMeters>NAN</DistanceMeters>
          </Trackpoint>
          <Trackpoint>
            <Time>2022-07-16T09:56:42.000Z</Time>
            <Position>
              <LatitudeDegrees>43.4349221549928188323974609375</LatitudeDegrees>
              <LongitudeDegrees>-4.82465623877942562103271484375</LongitudeDegrees>
            </Position>
            <AltitudeMeters>12.19999980926513671875</AltitudeMeters>
            <DistanceMeters>NAN</DistanceMeters>
          </Trackpoint>
          <Trackpoint>
            <Time>2022-07-16T09:56:43.000Z</Time>
            <Position>
              <LatitudeDegrees>43.43492056243121623992919921875</LatitudeDegrees>
              <LongitudeDegrees>-4.8246628604829311370849609375</LongitudeDegrees>
            </Position>
            <AltitudeMeters>12.19999980926513671875</AltitudeMeters>
            <DistanceMeters>NAN</DistanceMeters>
          </Trackpoint>
          <Trackpoint>
            <Time>2022-07-16T09:56:44.000Z</Time>
            <Position>
              <LatitudeDegrees>43.434912264347076416015625</LatitudeDegrees>
              <LongitudeDegrees>-4.82468155212700366973876953125</LongitudeDegrees>
            </Position>
            <AltitudeMeters>12.19999980926513671875</AltitudeMeters>
            <DistanceMeters>NAN</DistanceMeters>
          </Trackpoint>
          <Trackpoint>
            <Time>2022-07-16T09:56:47.000Z</Time>
            <Position>
              <LatitudeDegrees>43.4348876215517520904541015625</LatitudeDegrees>
              <LongitudeDegrees>-4.82477677054703235626220703125</LongitudeDegrees>
            </Position>
            <AltitudeMeters>12.19999980926513671875</AltitudeMeters>
            <DistanceMeters>NAN</DistanceMeters>
          </Trackpoint>
          <Trackpoint>
            <Time>2022-07-16T09:56:48.000Z</Time>
            <Position>
              <LatitudeDegrees>43.4348903037607669830322265625</LatitudeDegrees>
              <LongitudeDegrees>-4.82481515966355800628662109375</LongitudeDegrees>
            </Position>
            <AltitudeMeters>12.19999980926513671875</AltitudeMeters>
            <DistanceMeters>NAN</DistanceMeters>
          </Trackpoint>
          <Trackpoint>
            <Time>2022-07-16T09:56:50.000Z</Time>
            <Position>
              <LatitudeDegrees>43.43490161933004856109619140625</LatitudeDegrees>
              <LongitudeDegrees>-4.82490040361881256103515625</LongitudeDegrees>
            </Position>
            <AltitudeMeters>12.19999980926513671875</AltitudeMeters>
            <DistanceMeters>NAN</DistanceMeters>
          </Trackpoint>
          <Trackpoint>
            <Time>2022-07-16T09:56:52.000Z</Time>
            <Position>
              <LatitudeDegrees>43.43490715138614177703857421875</LatitudeDegrees>
              <LongitudeDegrees>-4.82500291429460048675537109375</LongitudeDegrees>
            </Position>
            <AltitudeMeters>12.19999980926513671875</AltitudeMeters>
            <DistanceMeters>NAN</DistanceMeters>
          </Trackpoint>
          <Trackpoint>
            <Time>2022-07-16T09:56:54.000Z</Time>
            <Position>
              <LatitudeDegrees>43.43491150997579097747802734375</LatitudeDegrees>
              <LongitudeDegrees>-4.82511372305452823638916015625</LongitudeDegrees>
            </Position>
            <AltitudeMeters>11.80000019073486328125</AltitudeMeters>
            <DistanceMeters>NAN</DistanceMeters>
          </Trackpoint>
          <Trackpoint>
            <Time>2022-07-16T09:57:01.000Z</Time>
            <Position>
              <LatitudeDegrees>43.43490161933004856109619140625</LatitudeDegrees>
              <LongitudeDegrees>-4.82551454566419124603271484375</LongitudeDegrees>
            </Position>
            <AltitudeMeters>11</AltitudeMeters>
            <DistanceMeters>NAN</DistanceMeters>
          </Trackpoint>
          <Trackpoint>
            <Time>2022-07-16T09:57:02.000Z</Time>
            <Position>
              <LatitudeDegrees>43.43489944003522396087646484375</LatitudeDegrees>
              <LongitudeDegrees>-4.8255707882344722747802734375</LongitudeDegrees>
            </Position>
            <AltitudeMeters>10.80000019073486328125</AltitudeMeters>
            <DistanceMeters>NAN</DistanceMeters>
          </Trackpoint>
          <Trackpoint>
            <Time>2022-07-16T09:57:03.000Z</Time>
            <Position>
              <LatitudeDegrees>43.43489508144557476043701171875</LatitudeDegrees>
              <LongitudeDegrees>-4.82562518678605556488037109375</LongitudeDegrees>
            </Position>
            <AltitudeMeters>10.6000003814697265625</AltitudeMeters>
            <DistanceMeters>NAN</DistanceMeters>
          </Trackpoint>
          <Trackpoint>
            <Time>2022-07-16T09:57:04.000Z</Time>
            <Position>
              <LatitudeDegrees>43.434891141951084136962890625</LatitudeDegrees>
              <LongitudeDegrees>-4.8256757296621799468994140625</LongitudeDegrees>
            </Position>
            <AltitudeMeters>10.3999996185302734375</AltitudeMeters>
            <DistanceMeters>NAN</DistanceMeters>
          </Trackpoint>
          <Trackpoint>
            <Time>2022-07-16T09:57:05.000Z</Time>
            <Position>
              <LatitudeDegrees>43.43489172868430614471435546875</LatitudeDegrees>
              <LongitudeDegrees>-4.82571688480675220489501953125</LongitudeDegrees>
            </Position>
            <AltitudeMeters>10.3999996185302734375</AltitudeMeters>
            <DistanceMeters>NAN</DistanceMeters>
          </Trackpoint>
          <Trackpoint>
            <Time>2022-07-16T09:57:07.000Z</Time>
            <Position>
              <LatitudeDegrees>43.43487764708697795867919921875</LatitudeDegrees>
              <LongitudeDegrees>-4.825798608362674713134765625</LongitudeDegrees>
            </Position>
            <AltitudeMeters>10.3999996185302734375</AltitudeMeters>
            <DistanceMeters>NAN</DistanceMeters>
          </Trackpoint>
          <Trackpoint>
            <Time>2022-07-16T09:57:13.000Z</Time>
            <Position>
              <LatitudeDegrees>43.434805311262607574462890625</LatitudeDegrees>
              <LongitudeDegrees>-4.826004803180694580078125</LongitudeDegrees>
            </Position>
            <AltitudeMeters>10.3999996185302734375</AltitudeMeters>
            <DistanceMeters>NAN</DistanceMeters>
          </Trackpoint>
          <Trackpoint>
            <Time>2022-07-16T09:57:14.000Z</Time>
            <Position>
              <LatitudeDegrees>43.43479198403656482696533203125</LatitudeDegrees>
              <LongitudeDegrees>-4.82603606767952442169189453125</LongitudeDegrees>
            </Position>
            <AltitudeMeters>10.3999996185302734375</AltitudeMeters>
            <DistanceMeters>NAN</DistanceMeters>
          </Trackpoint>
          <Trackpoint>
            <Time>2022-07-16T09:57:21.000Z</Time>
            <Position>
              <LatitudeDegrees>43.4347035549581050872802734375</LatitudeDegrees>
              <LongitudeDegrees>-4.826249890029430389404296875</LongitudeDegrees>
            </Position>
            <AltitudeMeters>10.6000003814697265625</AltitudeMeters>
            <DistanceMeters>NAN</DistanceMeters>
          </Trackpoint>
          <Trackpoint>
            <Time>2022-07-16T09:57:28.000Z</Time>
            <Position>
              <LatitudeDegrees>43.434614874422550201416015625</LatitudeDegrees>
              <LongitudeDegrees>-4.8264686577022075653076171875</LongitudeDegrees>
            </Position>
            <AltitudeMeters>11</AltitudeMeters>
            <DistanceMeters>NAN</DistanceMeters>
          </Trackpoint>
          <Trackpoint>
            <Time>2022-07-16T09:57:30.000Z</Time>
            <Position>
              <LatitudeDegrees>43.43460573814809322357177734375</LatitudeDegrees>
              <LongitudeDegrees>-4.8265238106250762939453125</LongitudeDegrees>
            </Position>
            <AltitudeMeters>11.3999996185302734375</AltitudeMeters>
            <DistanceMeters>NAN</DistanceMeters>
          </Trackpoint>
          <Trackpoint>
            <Time>2022-07-16T09:57:35.000Z</Time>
            <Position>
              <LatitudeDegrees>43.43458344228565692901611328125</LatitudeDegrees>
              <LongitudeDegrees>-4.8266310989856719970703125</LongitudeDegrees>
            </Position>
            <AltitudeMeters>11.6000003814697265625</AltitudeMeters>
            <DistanceMeters>NAN</DistanceMeters>
          </Trackpoint>
          <Trackpoint>
            <Time>2022-07-16T09:57:40.000Z</Time>
            <Position>
              <LatitudeDegrees>43.434569947421550750732421875</LatitudeDegrees>
              <LongitudeDegrees>-4.82676277868449687957763671875</LongitudeDegrees>
            </Position>
            <AltitudeMeters>12</AltitudeMeters>
            <DistanceMeters>NAN</DistanceMeters>
          </Trackpoint>
          <Trackpoint>
            <Time>2022-07-16T09:57:48.000Z</Time>
            <Position>
              <LatitudeDegrees>43.43455259688198566436767578125</LatitudeDegrees>
              <LongitudeDegrees>-4.82701934874057769775390625</LongitudeDegrees>
            </Position>
            <AltitudeMeters>12.80000019073486328125</AltitudeMeters>
            <DistanceMeters>NAN</DistanceMeters>
          </Trackpoint>
          <Trackpoint>
            <Time>2022-07-16T09:57:49.000Z</Time>
            <Position>
              <LatitudeDegrees>43.434551171958446502685546875</LatitudeDegrees>
              <LongitudeDegrees>-4.82704818248748779296875</LongitudeDegrees>
            </Position>
            <AltitudeMeters>13</AltitudeMeters>
            <DistanceMeters>NAN</DistanceMeters>
          </Trackpoint>
          <Trackpoint>
            <Time>2022-07-16T09:57:51.000Z</Time>
            <Position>
              <LatitudeDegrees>43.4345515072345733642578125</LatitudeDegrees>
              <LongitudeDegrees>-4.8271227814257144927978515625</LongitudeDegrees>
            </Position>
            <AltitudeMeters>13.19999980926513671875</AltitudeMeters>
            <DistanceMeters>NAN</DistanceMeters>
          </Trackpoint>
          <Trackpoint>
            <Time>2022-07-16T09:57:58.000Z</Time>
            <Position>
              <LatitudeDegrees>43.43452803790569305419921875</LatitudeDegrees>
              <LongitudeDegrees>-4.82733543030917644500732421875</LongitudeDegrees>
            </Position>
            <AltitudeMeters>14</AltitudeMeters>
            <DistanceMeters>NAN</DistanceMeters>
          </Trackpoint>
          <Trackpoint>
            <Time>2022-07-16T09:58:01.000Z</Time>
            <Position>
              <LatitudeDegrees>43.43451806344091892242431640625</LatitudeDegrees>
              <LongitudeDegrees>-4.82741899788379669189453125</LongitudeDegrees>
            </Position>
            <AltitudeMeters>14.19999980926513671875</AltitudeMeters>
            <DistanceMeters>NAN</DistanceMeters>
          </Trackpoint>
          <Trackpoint>
            <Time>2022-07-16T09:58:05.000Z</Time>
            <Position>
              <LatitudeDegrees>43.43450331129133701324462890625</LatitudeDegrees>
              <LongitudeDegrees>-4.82753257267177104949951171875</LongitudeDegrees>
            </Position>
            <AltitudeMeters>14.3999996185302734375</AltitudeMeters>
            <DistanceMeters>NAN</DistanceMeters>
          </Trackpoint>
          <Trackpoint>
            <Time>2022-07-16T09:58:08.000Z</Time>
            <Position>
              <LatitudeDegrees>43.4344940073788166046142578125</LatitudeDegrees>
              <LongitudeDegrees>-4.82762225903570652008056640625</LongitudeDegrees>
            </Position>
            <AltitudeMeters>14.3999996185302734375</AltitudeMeters>
            <DistanceMeters>NAN</DistanceMeters>
          </Trackpoint>
          <Trackpoint>
            <Time>2022-07-16T09:58:15.000Z</Time>
            <Position>
              <LatitudeDegrees>43.4344631619751453399658203125</LatitudeDegrees>
              <LongitudeDegrees>-4.8278325609862804412841796875</LongitudeDegrees>
            </Position>
            <AltitudeMeters>15.19999980926513671875</AltitudeMeters>
            <DistanceMeters>NAN</DistanceMeters>
          </Trackpoint>
          <Trackpoint>
            <Time>2022-07-16T09:58:25.000Z</Time>
            <Position>
              <LatitudeDegrees>43.4344195760786533355712890625</LatitudeDegrees>
              <LongitudeDegrees>-4.8281339742243289947509765625</LongitudeDegrees>
            </Position>
            <AltitudeMeters>16</AltitudeMeters>
            <DistanceMeters>NAN</DistanceMeters>
          </Trackpoint>
          <Trackpoint>
            <Time>2022-07-16T09:58:31.000Z</Time>
            <Position>
              <LatitudeDegrees>43.43435646034777164459228515625</LatitudeDegrees>
              <LongitudeDegrees>-4.82834838330745697021484375</LongitudeDegrees>
            </Position>
            <AltitudeMeters>15.80000019073486328125</AltitudeMeters>
            <DistanceMeters>NAN</DistanceMeters>
          </Trackpoint>
          <Trackpoint>
            <Time>2022-07-16T09:58:32.000Z</Time>
            <Position>
              <LatitudeDegrees>43.43433684669435024261474609375</LatitudeDegrees>
              <LongitudeDegrees>-4.8283852636814117431640625</LongitudeDegrees>
            </Position>
            <AltitudeMeters>15.80000019073486328125</AltitudeMeters>
            <DistanceMeters>NAN</DistanceMeters>
          </Trackpoint>
          <Trackpoint>
            <Time>2022-07-16T09:58:35.000Z</Time>
            <Position>
              <LatitudeDegrees>43.43428689055144786834716796875</LatitudeDegrees>
              <LongitudeDegrees>-4.82850939966738224029541015625</LongitudeDegrees>
            </Position>
            <AltitudeMeters>15.80000019073486328125</AltitudeMeters>
            <DistanceMeters>NAN</DistanceMeters>
          </Trackpoint>
          <Trackpoint>
            <Time>2022-07-16T09:58:40.000Z</Time>
            <Position>
              <LatitudeDegrees>43.43420156277716159820556640625</LatitudeDegrees>
              <LongitudeDegrees>-4.8287277482450008392333984375</LongitudeDegrees>
            </Position>
            <AltitudeMeters>15.6000003814697265625</AltitudeMeters>
            <DistanceMeters>NAN</DistanceMeters>
          </Trackpoint>
          <Trackpoint>
            <Time>2022-07-16T09:58:48.000Z</Time>
            <Position>
              <LatitudeDegrees>43.43405152671039104461669921875</LatitudeDegrees>
              <LongitudeDegrees>-4.8290700651705265045166015625</LongitudeDegrees>
            </Position>
            <AltitudeMeters>14.80000019073486328125</AltitudeMeters>
            <DistanceMeters>NAN</DistanceMeters>
          </Trackpoint>
          <Trackpoint>
            <Time>2022-07-16T09:58:57.000Z</Time>
            <Position>
              <LatitudeDegrees>43.43385891057550907135009765625</LatitudeDegrees>
              <LongitudeDegrees>-4.8295129649341106414794921875</LongitudeDegrees>
            </Position>
            <AltitudeMeters>14.6000003814697265625</AltitudeMeters>
            <DistanceMeters>NAN</DistanceMeters>
          </Trackpoint>
          <Trackpoint>
            <Time>2022-07-16T09:58:59.000Z</Time>
            <Position>
              <LatitudeDegrees>43.4338227845728397369384765625</LatitudeDegrees>
              <LongitudeDegrees>-4.82962737791240215301513671875</LongitudeDegrees>
            </Position>
            <AltitudeMeters>14</AltitudeMeters>
            <DistanceMeters>NAN</DistanceMeters>
          </Trackpoint>
          <Trackpoint>
            <Time>2022-07-16T09:59:03.000Z</Time>
            <Position>
              <LatitudeDegrees>43.4337755106389522552490234375</LatitudeDegrees>
              <LongitudeDegrees>-4.82988453470170497894287109375</LongitudeDegrees>
            </Position>
            <AltitudeMeters>13.19999980926513671875</AltitudeMeters>
            <DistanceMeters>NAN</DistanceMeters>
          </Trackpoint>
          <Trackpoint>
            <Time>2022-07-16T09:59:05.000Z</Time>
            <Position>
              <LatitudeDegrees>43.43376218341290950775146484375</LatitudeDegrees>
              <LongitudeDegrees>-4.82994697988033294677734375</LongitudeDegrees>
            </Position>
            <AltitudeMeters>13</AltitudeMeters>
            <DistanceMeters>NAN</DistanceMeters>
          </Trackpoint>
          <Trackpoint>
            <Time>2022-07-16T09:59:06.000Z</Time>
            <Position>
              <LatitudeDegrees>43.4337252192199230194091796875</LatitudeDegrees>
              <LongitudeDegrees>-4.83004982583224773406982421875</LongitudeDegrees>
            </Position>
            <AltitudeMeters>12.6000003814697265625</AltitudeMeters>
            <DistanceMeters>NAN</DistanceMeters>
          </Trackpoint>
          <Trackpoint>
            <Time>2022-07-16T09:59:08.000Z</Time>
            <Position>
              <LatitudeDegrees>43.4336636960506439208984375</LatitudeDegrees>
              <LongitudeDegrees>-4.83013967983424663543701171875</LongitudeDegrees>
            </Position>
            <AltitudeMeters>11.80000019073486328125</AltitudeMeters>
            <DistanceMeters>NAN</DistanceMeters>
          </Trackpoint>
          <Trackpoint>
            <Time>2022-07-16T09:59:10.000Z</Time>
            <Position>
              <LatitudeDegrees>43.4335847385227680206298828125</LatitudeDegrees>
              <LongitudeDegrees>-4.83020472340285778045654296875</LongitudeDegrees>
            </Position>
            <AltitudeMeters>11.3999996185302734375</AltitudeMeters>
            <DistanceMeters>NAN</DistanceMeters>
          </Trackpoint>
          <Trackpoint>
            <Time>2022-07-16T09:59:12.000Z</Time>
            <Position>
              <LatitudeDegrees>43.4335066191852092742919921875</LatitudeDegrees>
              <LongitudeDegrees>-4.83027446083724498748779296875</LongitudeDegrees>
            </Position>
            <AltitudeMeters>11</AltitudeMeters>
            <DistanceMeters>NAN</DistanceMeters>
          </Trackpoint>
          <Trackpoint>
            <Time>2022-07-16T09:59:13.000Z</Time>
            <Position>
              <LatitudeDegrees>43.43347619287669658660888671875</LatitudeDegrees>
              <LongitudeDegrees>-4.83031167648732662200927734375</LongitudeDegrees>
            </Position>
            <AltitudeMeters>10.80000019073486328125</AltitudeMeters>
            <DistanceMeters>NAN</DistanceMeters>
          </Trackpoint>
          <Trackpoint>
            <Time>2022-07-16T09:59:15.000Z</Time>
            <Position>
              <LatitudeDegrees>43.43343109823763370513916015625</LatitudeDegrees>
              <LongitudeDegrees>-4.8303907178342342376708984375</LongitudeDegrees>
            </Position>
            <AltitudeMeters>10.3999996185302734375</AltitudeMeters>
            <DistanceMeters>NAN</DistanceMeters>
          </Trackpoint>
          <Trackpoint>
            <Time>2022-07-16T09:59:16.000Z</Time>
            <Position>
              <LatitudeDegrees>43.4334276616573333740234375</LatitudeDegrees>
              <LongitudeDegrees>-4.830431453883647918701171875</LongitudeDegrees>
            </Position>
            <AltitudeMeters>10.3999996185302734375</AltitudeMeters>
            <DistanceMeters>NAN</DistanceMeters>
          </Trackpoint>
          <Trackpoint>
            <Time>2022-07-16T09:59:17.000Z</Time>
            <Position>
              <LatitudeDegrees>43.43343294225633144378662109375</LatitudeDegrees>
              <LongitudeDegrees>-4.83046506531536579132080078125</LongitudeDegrees>
            </Position>
            <AltitudeMeters>10.19999980926513671875</AltitudeMeters>
            <DistanceMeters>NAN</DistanceMeters>
          </Trackpoint>
          <Trackpoint>
            <Time>2022-07-16T09:59:20.000Z</Time>
            <Position>
              <LatitudeDegrees>43.43347284011542797088623046875</LatitudeDegrees>
              <LongitudeDegrees>-4.830599762499332427978515625</LongitudeDegrees>
            </Position>
            <AltitudeMeters>10.19999980926513671875</AltitudeMeters>
            <DistanceMeters>NAN</DistanceMeters>
          </Trackpoint>
          <Trackpoint>
            <Time>2022-07-16T09:59:25.000Z</Time>
            <Position>
              <LatitudeDegrees>43.43350821174681186676025390625</LatitudeDegrees>
              <LongitudeDegrees>-4.8308607749640941619873046875</LongitudeDegrees>
            </Position>
            <AltitudeMeters>10.3999996185302734375</AltitudeMeters>
            <DistanceMeters>NAN</DistanceMeters>
          </Trackpoint>
          <Trackpoint>
            <Time>2022-07-16T09:59:29.000Z</Time>
            <Position>
              <LatitudeDegrees>43.43353218398988246917724609375</LatitudeDegrees>
              <LongitudeDegrees>-4.8310951329767704010009765625</LongitudeDegrees>
            </Position>
            <AltitudeMeters>10.3999996185302734375</AltitudeMeters>
            <DistanceMeters>NAN</DistanceMeters>
          </Trackpoint>
          <Trackpoint>
            <Time>2022-07-16T09:59:33.000Z</Time>
            <Position>
              <LatitudeDegrees>43.43353754840791225433349609375</LatitudeDegrees>
              <LongitudeDegrees>-4.83132898807525634765625</LongitudeDegrees>
            </Position>
            <AltitudeMeters>10</AltitudeMeters>
            <DistanceMeters>NAN</DistanceMeters>
          </Trackpoint>
          <Trackpoint>
            <Time>2022-07-16T09:59:36.000Z</Time>
            <Position>
              <LatitudeDegrees>43.43351894058287143707275390625</LatitudeDegrees>
              <LongitudeDegrees>-4.8315383680164813995361328125</LongitudeDegrees>
            </Position>
            <AltitudeMeters>9.80000019073486328125</AltitudeMeters>
            <DistanceMeters>NAN</DistanceMeters>
          </Trackpoint>
          <Trackpoint>
            <Time>2022-07-16T09:59:37.000Z</Time>
            <Position>
              <LatitudeDegrees>43.43351407907903194427490234375</LatitudeDegrees>
              <LongitudeDegrees>-4.83159461058676242828369140625</LongitudeDegrees>
            </Position>
            <AltitudeMeters>9.80000019073486328125</AltitudeMeters>
            <DistanceMeters>NAN</DistanceMeters>
          </Trackpoint>
          <Trackpoint>
            <Time>2022-07-16T09:59:47.000Z</Time>
            <Position>
              <LatitudeDegrees>43.433440737426280975341796875</LatitudeDegrees>
              <LongitudeDegrees>-4.832232892513275146484375</LongitudeDegrees>
            </Position>
            <AltitudeMeters>9.80000019073486328125</AltitudeMeters>
            <DistanceMeters>NAN</DistanceMeters>
          </Trackpoint>
          <Trackpoint>
            <Time>2022-07-16T09:59:48.000Z</Time>
            <Position>
              <LatitudeDegrees>43.43343663029372692108154296875</LatitudeDegrees>
              <LongitudeDegrees>-4.83229257166385650634765625</LongitudeDegrees>
            </Position>
            <AltitudeMeters>9.6000003814697265625</AltitudeMeters>
            <DistanceMeters>NAN</DistanceMeters>
          </Trackpoint>
          <Trackpoint>
            <Time>2022-07-16T09:59:50.000Z</Time>
            <Position>
              <LatitudeDegrees>43.43344367109239101409912109375</LatitudeDegrees>
              <LongitudeDegrees>-4.83242089860141277313232421875</LongitudeDegrees>
            </Position>
            <AltitudeMeters>9.3999996185302734375</AltitudeMeters>
            <DistanceMeters>NAN</DistanceMeters>
          </Trackpoint>
          <Trackpoint>
            <Time>2022-07-16T09:59:52.000Z</Time>
            <Position>
              <LatitudeDegrees>43.43346278183162212371826171875</LatitudeDegrees>
              <LongitudeDegrees>-4.83252030797302722930908203125</LongitudeDegrees>
            </Position>
            <AltitudeMeters>9.3999996185302734375</AltitudeMeters>
            <DistanceMeters>NAN</DistanceMeters>
          </Trackpoint>
          <Trackpoint>
            <Time>2022-07-16T09:59:58.000Z</Time>
            <Position>
              <LatitudeDegrees>43.4335351176559925079345703125</LatitudeDegrees>
              <LongitudeDegrees>-4.832832030951976776123046875</LongitudeDegrees>
            </Position>
            <AltitudeMeters>9.19999980926513671875</AltitudeMeters>
            <DistanceMeters>NAN</DistanceMeters>
          </Trackpoint>
          <Trackpoint>
            <Time>2022-07-16T10:00:00.000Z</Time>
            <Position>
              <LatitudeDegrees>43.43355364166200160980224609375</LatitudeDegrees>
              <LongitudeDegrees>-4.83293521218001842498779296875</LongitudeDegrees>
            </Position>
            <AltitudeMeters>9</AltitudeMeters>
            <DistanceMeters>NAN</DistanceMeters>
          </Trackpoint>
          <Trackpoint>
            <Time>2022-07-16T10:00:03.000Z</Time>
            <Position>
              <LatitudeDegrees>43.43356839381158351898193359375</LatitudeDegrees>
              <LongitudeDegrees>-4.8331010900437831878662109375</LongitudeDegrees>
            </Position>
            <AltitudeMeters>9</AltitudeMeters>
            <DistanceMeters>NAN</DistanceMeters>
          </Trackpoint>
          <Trackpoint>
            <Time>2022-07-16T10:00:06.000Z</Time>
            <Position>
              <LatitudeDegrees>43.43356487341225147247314453125</LatitudeDegrees>
              <LongitudeDegrees>-4.8332566581666469573974609375</LongitudeDegrees>
            </Position>
            <AltitudeMeters>8.80000019073486328125</AltitudeMeters>
            <DistanceMeters>NAN</DistanceMeters>
          </Trackpoint>
          <Trackpoint>
            <Time>2022-07-16T10:00:07.000Z</Time>
            <Position>
              <LatitudeDegrees>43.43354878015816211700439453125</LatitudeDegrees>
              <LongitudeDegrees>-4.83330317772924900054931640625</LongitudeDegrees>
            </Position>
            <AltitudeMeters>8.6000003814697265625</AltitudeMeters>
            <DistanceMeters>NAN</DistanceMeters>
          </Trackpoint>
          <Trackpoint>
            <Time>2022-07-16T10:00:11.000Z</Time>
            <Position>
              <LatitudeDegrees>43.4334747679531574249267578125</LatitudeDegrees>
              <LongitudeDegrees>-4.8334197700023651123046875</LongitudeDegrees>
            </Position>
            <AltitudeMeters>8.6000003814697265625</AltitudeMeters>
            <DistanceMeters>NAN</DistanceMeters>
          </Trackpoint>
          <Trackpoint>
            <Time>2022-07-16T10:00:14.000Z</Time>
            <Position>
              <LatitudeDegrees>43.433470912277698516845703125</LatitudeDegrees>
              <LongitudeDegrees>-4.83342438004910945892333984375</LongitudeDegrees>
            </Position>
            <AltitudeMeters>8.3999996185302734375</AltitudeMeters>
            <DistanceMeters>NAN</DistanceMeters>
          </Trackpoint>
          <Trackpoint>
            <Time>2022-07-16T10:03:29.000Z</Time>
            <Position>
              <LatitudeDegrees>43.43340461142361164093017578125</LatitudeDegrees>
              <LongitudeDegrees>-4.83341935090720653533935546875</LongitudeDegrees>
            </Position>
            <AltitudeMeters>8.6000003814697265625</AltitudeMeters>
            <DistanceMeters>NAN</DistanceMeters>
          </Trackpoint>
          <Trackpoint>
            <Time>2022-07-16T10:03:30.000Z</Time>
            <Position>
              <LatitudeDegrees>43.43341031111776828765869140625</LatitudeDegrees>
              <LongitudeDegrees>-4.83344994485378265380859375</LongitudeDegrees>
            </Position>
            <AltitudeMeters>8.6000003814697265625</AltitudeMeters>
            <DistanceMeters>NAN</DistanceMeters>
          </Trackpoint>
          <Trackpoint>
            <Time>2022-07-16T10:03:34.000Z</Time>
            <Position>
              <LatitudeDegrees>43.4334234707057476043701171875</LatitudeDegrees>
              <LongitudeDegrees>-4.83357894234359264373779296875</LongitudeDegrees>
            </Position>
            <AltitudeMeters>8.19999980926513671875</AltitudeMeters>
            <DistanceMeters>NAN</DistanceMeters>
          </Trackpoint>
          <Trackpoint>
            <Time>2022-07-16T10:03:35.000Z</Time>
            <Position>
              <LatitudeDegrees>43.4334341995418071746826171875</LatitudeDegrees>
              <LongitudeDegrees>-4.833609871566295623779296875</LongitudeDegrees>
            </Position>
            <AltitudeMeters>8.19999980926513671875</AltitudeMeters>
            <DistanceMeters>NAN</DistanceMeters>
          </Trackpoint>
          <Trackpoint>
            <Time>2022-07-16T10:03:36.000Z</Time>
            <Position>
              <LatitudeDegrees>43.43343948014080524444580078125</LatitudeDegrees>
              <LongitudeDegrees>-4.8336445726454257965087890625</LongitudeDegrees>
            </Position>
            <AltitudeMeters>8</AltitudeMeters>
            <DistanceMeters>NAN</DistanceMeters>
          </Trackpoint>
          <Trackpoint>
            <Time>2022-07-16T10:03:40.000Z</Time>
            <Position>
              <LatitudeDegrees>43.4334533102810382843017578125</LatitudeDegrees>
              <LongitudeDegrees>-4.833748340606689453125</LongitudeDegrees>
            </Position>
            <AltitudeMeters>7.400000095367431640625</AltitudeMeters>
            <DistanceMeters>NAN</DistanceMeters>
          </Trackpoint>
          <Trackpoint>
            <Time>2022-07-16T10:03:43.000Z</Time>
            <Position>
              <LatitudeDegrees>43.43347434885799884796142578125</LatitudeDegrees>
              <LongitudeDegrees>-4.8338328301906585693359375</LongitudeDegrees>
            </Position>
            <AltitudeMeters>7.19999980926513671875</AltitudeMeters>
            <DistanceMeters>NAN</DistanceMeters>
          </Trackpoint>
          <Trackpoint>
            <Time>2022-07-16T10:03:47.000Z</Time>
            <Position>
              <LatitudeDegrees>43.4335025958716869354248046875</LatitudeDegrees>
              <LongitudeDegrees>-4.83395009301602840423583984375</LongitudeDegrees>
            </Position>
            <AltitudeMeters>7.400000095367431640625</AltitudeMeters>
            <DistanceMeters>NAN</DistanceMeters>
          </Trackpoint>
          <Trackpoint>
            <Time>2022-07-16T10:03:52.000Z</Time>
            <Position>
              <LatitudeDegrees>43.4335287474095821380615234375</LatitudeDegrees>
              <LongitudeDegrees>-4.83407984487712383270263671875</LongitudeDegrees>
            </Position>
            <AltitudeMeters>7.19999980926513671875</AltitudeMeters>
            <DistanceMeters>NAN</DistanceMeters>
          </Trackpoint>
          <Trackpoint>
            <Time>2022-07-16T10:03:53.000Z</Time>
            <Position>
              <LatitudeDegrees>43.43353218398988246917724609375</LatitudeDegrees>
              <LongitudeDegrees>-4.83408822678029537200927734375</LongitudeDegrees>
            </Position>
            <AltitudeMeters>7</AltitudeMeters>
            <DistanceMeters>NAN</DistanceMeters>
          </Trackpoint>
          <Trackpoint>
            <Time>2022-07-16T10:03:54.000Z</Time>
            <Position>
              <LatitudeDegrees>43.43353159725666046142578125</LatitudeDegrees>
              <LongitudeDegrees>-4.83409878797829151153564453125</LongitudeDegrees>
            </Position>
            <AltitudeMeters>7</AltitudeMeters>
            <DistanceMeters>NAN</DistanceMeters>
          </Trackpoint>
          <Trackpoint>
            <Time>2022-07-16T10:03:58.000Z</Time>
            <Position>
              <LatitudeDegrees>43.4335123188793659210205078125</LatitudeDegrees>
              <LongitudeDegrees>-4.83420976437628269195556640625</LongitudeDegrees>
            </Position>
            <AltitudeMeters>7</AltitudeMeters>
            <DistanceMeters>NAN</DistanceMeters>
          </Trackpoint>
          <Trackpoint>
            <Time>2022-07-16T10:04:00.000Z</Time>
            <Position>
              <LatitudeDegrees>43.43349362723529338836669921875</LatitudeDegrees>
              <LongitudeDegrees>-4.83427011407911777496337890625</LongitudeDegrees>
            </Position>
            <AltitudeMeters>7.19999980926513671875</AltitudeMeters>
            <DistanceMeters>NAN</DistanceMeters>
          </Trackpoint>
          <Trackpoint>
            <Time>2022-07-16T10:04:03.000Z</Time>
            <Position>
              <LatitudeDegrees>43.43350100331008434295654296875</LatitudeDegrees>
              <LongitudeDegrees>-4.83430598862469196319580078125</LongitudeDegrees>
            </Position>
            <AltitudeMeters>7.400000095367431640625</AltitudeMeters>
            <DistanceMeters>NAN</DistanceMeters>
          </Trackpoint>
          <Trackpoint>
            <Time>2022-07-16T10:04:05.000Z</Time>
            <Position>
              <LatitudeDegrees>43.43350100331008434295654296875</LatitudeDegrees>
              <LongitudeDegrees>-4.83430598862469196319580078125</LongitudeDegrees>
            </Position>
            <AltitudeMeters>7.400000095367431640625</AltitudeMeters>
            <DistanceMeters>NAN</DistanceMeters>
          </Trackpoint>
          <Trackpoint>
            <Time>2022-07-16T10:04:28.000Z</Time>
            <Position>
              <LatitudeDegrees>43.43345004133880138397216796875</LatitudeDegrees>
              <LongitudeDegrees>-4.83435996808111667633056640625</LongitudeDegrees>
            </Position>
            <AltitudeMeters>7.19999980926513671875</AltitudeMeters>
            <DistanceMeters>NAN</DistanceMeters>
          </Trackpoint>
          <Trackpoint>
            <Time>2022-07-16T10:04:29.000Z</Time>
            <Position>
              <LatitudeDegrees>43.43342791311442852020263671875</LatitudeDegrees>
              <LongitudeDegrees>-4.834384024143218994140625</LongitudeDegrees>
            </Position>
            <AltitudeMeters>7.19999980926513671875</AltitudeMeters>
            <DistanceMeters>NAN</DistanceMeters>
          </Trackpoint>
          <Trackpoint>
            <Time>2022-07-16T10:04:35.000Z</Time>
            <Position>
              <LatitudeDegrees>43.43330855481326580047607421875</LatitudeDegrees>
              <LongitudeDegrees>-4.83460337854921817779541015625</LongitudeDegrees>
            </Position>
            <AltitudeMeters>7.400000095367431640625</AltitudeMeters>
            <DistanceMeters>NAN</DistanceMeters>
          </Trackpoint>
          <Trackpoint>
            <Time>2022-07-16T10:04:41.000Z</Time>
            <Position>
              <LatitudeDegrees>43.43319891951978206634521484375</LatitudeDegrees>
              <LongitudeDegrees>-4.83489205129444599151611328125</LongitudeDegrees>
            </Position>
            <AltitudeMeters>7.599999904632568359375</AltitudeMeters>
            <DistanceMeters>NAN</DistanceMeters>
          </Trackpoint>
          <Trackpoint>
            <Time>2022-07-16T10:04:47.000Z</Time>
            <Position>
              <LatitudeDegrees>43.43310923315584659576416015625</LatitudeDegrees>
              <LongitudeDegrees>-4.83514845371246337890625</LongitudeDegrees>
            </Position>
            <AltitudeMeters>7.599999904632568359375</AltitudeMeters>
            <DistanceMeters>NAN</DistanceMeters>
          </Trackpoint>
          <Trackpoint>
            <Time>2022-07-16T10:04:53.000Z</Time>
            <Position>
              <LatitudeDegrees>43.43301602639257907867431640625</LatitudeDegrees>
              <LongitudeDegrees>-4.8354366235435009002685546875</LongitudeDegrees>
            </Position>
            <AltitudeMeters>7.80000019073486328125</AltitudeMeters>
            <DistanceMeters>NAN</DistanceMeters>
          </Trackpoint>
          <Trackpoint>
            <Time>2022-07-16T10:04:56.000Z</Time>
            <Position>
              <LatitudeDegrees>43.43300915323197841644287109375</LatitudeDegrees>
              <LongitudeDegrees>-4.83558506704866886138916015625</LongitudeDegrees>
            </Position>
            <AltitudeMeters>7.80000019073486328125</AltitudeMeters>
            <DistanceMeters>NAN</DistanceMeters>
          </Trackpoint>
          <Trackpoint>
            <Time>2022-07-16T10:04:59.000Z</Time>
            <Position>
              <LatitudeDegrees>43.433018289506435394287109375</LatitudeDegrees>
              <LongitudeDegrees>-4.8357541300356388092041015625</LongitudeDegrees>
            </Position>
            <AltitudeMeters>7.80000019073486328125</AltitudeMeters>
            <DistanceMeters>NAN</DistanceMeters>
          </Trackpoint>
          <Trackpoint>
            <Time>2022-07-16T10:05:08.000Z</Time>
            <Position>
              <LatitudeDegrees>43.433056175708770751953125</LatitudeDegrees>
              <LongitudeDegrees>-4.83621153049170970916748046875</LongitudeDegrees>
            </Position>
            <AltitudeMeters>8.3999996185302734375</AltitudeMeters>
            <DistanceMeters>NAN</DistanceMeters>
          </Trackpoint>
          <Trackpoint>
            <Time>2022-07-16T10:05:11.000Z</Time>
            <Position>
              <LatitudeDegrees>43.4330761246383190155029296875</LatitudeDegrees>
              <LongitudeDegrees>-4.836371205747127532958984375</LongitudeDegrees>
            </Position>
            <AltitudeMeters>8.6000003814697265625</AltitudeMeters>
            <DistanceMeters>NAN</DistanceMeters>
          </Trackpoint>
          <Trackpoint>
            <Time>2022-07-16T10:05:20.000Z</Time>
            <Position>
              <LatitudeDegrees>43.43316673301160335540771484375</LatitudeDegrees>
              <LongitudeDegrees>-4.83684034086763858795166015625</LongitudeDegrees>
            </Position>
            <AltitudeMeters>8.19999980926513671875</AltitudeMeters>
            <DistanceMeters>NAN</DistanceMeters>
          </Trackpoint>
          <Trackpoint>
            <Time>2022-07-16T10:05:25.000Z</Time>
            <Position>
              <LatitudeDegrees>43.43324552290141582489013671875</LatitudeDegrees>
              <LongitudeDegrees>-4.8371039517223834991455078125</LongitudeDegrees>
            </Position>
            <AltitudeMeters>8.3999996185302734375</AltitudeMeters>
            <DistanceMeters>NAN</DistanceMeters>
          </Trackpoint>
          <Trackpoint>
            <Time>2022-07-16T10:05:28.000Z</Time>
            <Position>
              <LatitudeDegrees>43.43331140466034412384033203125</LatitudeDegrees>
              <LongitudeDegrees>-4.8372380621731281280517578125</LongitudeDegrees>
            </Position>
            <AltitudeMeters>8.3999996185302734375</AltitudeMeters>
            <DistanceMeters>NAN</DistanceMeters>
          </Trackpoint>
          <Trackpoint>
            <Time>2022-07-16T10:05:30.000Z</Time>
            <Position>
              <LatitudeDegrees>43.43336907215416431427001953125</LatitudeDegrees>
              <LongitudeDegrees>-4.8372997529804706573486328125</LongitudeDegrees>
            </Position>
            <AltitudeMeters>8.3999996185302734375</AltitudeMeters>
            <DistanceMeters>NAN</DistanceMeters>
          </Trackpoint>
          <Trackpoint>
            <Time>2022-07-16T10:05:32.000Z</Time>
            <Position>
              <LatitudeDegrees>43.43342456035315990447998046875</LatitudeDegrees>
              <LongitudeDegrees>-4.837337471544742584228515625</LongitudeDegrees>
            </Position>
            <AltitudeMeters>8.3999996185302734375</AltitudeMeters>
            <DistanceMeters>NAN</DistanceMeters>
          </Trackpoint>
          <Trackpoint>
            <Time>2022-07-16T10:05:37.000Z</Time>
            <Position>
              <LatitudeDegrees>43.4335904382169246673583984375</LatitudeDegrees>
              <LongitudeDegrees>-4.83735431917011737823486328125</LongitudeDegrees>
            </Position>
            <AltitudeMeters>8.6000003814697265625</AltitudeMeters>
            <DistanceMeters>NAN</DistanceMeters>
          </Trackpoint>
          <Trackpoint>
            <Time>2022-07-16T10:05:42.000Z</Time>
            <Position>
              <LatitudeDegrees>43.4337198548018932342529296875</LatitudeDegrees>
              <LongitudeDegrees>-4.83721685595810413360595703125</LongitudeDegrees>
            </Position>
            <AltitudeMeters>9</AltitudeMeters>
            <DistanceMeters>NAN</DistanceMeters>
          </Trackpoint>
          <Trackpoint>
            <Time>2022-07-16T10:05:47.000Z</Time>
            <Position>
              <LatitudeDegrees>43.43382420949637889862060546875</LatitudeDegrees>
              <LongitudeDegrees>-4.837040416896343231201171875</LongitudeDegrees>
            </Position>
            <AltitudeMeters>9.3999996185302734375</AltitudeMeters>
            <DistanceMeters>NAN</DistanceMeters>
          </Trackpoint>
          <Trackpoint>
            <Time>2022-07-16T10:05:49.000Z</Time>
            <Position>
              <LatitudeDegrees>43.4338559769093990325927734375</LatitudeDegrees>
              <LongitudeDegrees>-4.836974032223224639892578125</LongitudeDegrees>
            </Position>
            <AltitudeMeters>9.3999996185302734375</AltitudeMeters>
            <DistanceMeters>NAN</DistanceMeters>
          </Trackpoint>
          <Trackpoint>
            <Time>2022-07-16T10:05:51.000Z</Time>
            <Position>
              <LatitudeDegrees>43.4338890016078948974609375</LatitudeDegrees>
              <LongitudeDegrees>-4.83689918182790279388427734375</LongitudeDegrees>
            </Position>
            <AltitudeMeters>9.3999996185302734375</AltitudeMeters>
            <DistanceMeters>NAN</DistanceMeters>
          </Trackpoint>
          <Trackpoint>
            <Time>2022-07-16T10:05:57.000Z</Time>
            <Position>
              <LatitudeDegrees>43.43399436213076114654541015625</LatitudeDegrees>
              <LongitudeDegrees>-4.8366680927574634552001953125</LongitudeDegrees>
            </Position>
            <AltitudeMeters>9.3999996185302734375</AltitudeMeters>
            <DistanceMeters>NAN</DistanceMeters>
          </Trackpoint>
          <Trackpoint>
            <Time>2022-07-16T10:06:04.000Z</Time>
            <Position>
              <LatitudeDegrees>43.4341889061033725738525390625</LatitudeDegrees>
              <LongitudeDegrees>-4.8364421166479587554931640625</LongitudeDegrees>
            </Position>
            <AltitudeMeters>9.80000019073486328125</AltitudeMeters>
            <DistanceMeters>NAN</DistanceMeters>
          </Trackpoint>
          <Trackpoint>
            <Time>2022-07-16T10:06:09.000Z</Time>
            <Position>
              <LatitudeDegrees>43.43438646756112575531005859375</LatitudeDegrees>
              <LongitudeDegrees>-4.83636693097651004791259765625</LongitudeDegrees>
            </Position>
            <AltitudeMeters>9.6000003814697265625</AltitudeMeters>
            <DistanceMeters>NAN</DistanceMeters>
          </Trackpoint>
          <Trackpoint>
            <Time>2022-07-16T10:06:11.000Z</Time>
            <Position>
              <LatitudeDegrees>43.4344678558409214019775390625</LatitudeDegrees>
              <LongitudeDegrees>-4.8363787494599819183349609375</LongitudeDegrees>
            </Position>
            <AltitudeMeters>9.3999996185302734375</AltitudeMeters>
            <DistanceMeters>NAN</DistanceMeters>
          </Trackpoint>
          <Trackpoint>
            <Time>2022-07-16T10:06:14.000Z</Time>
            <Position>
              <LatitudeDegrees>43.434585034847259521484375</LatitudeDegrees>
              <LongitudeDegrees>-4.8364364169538021087646484375</LongitudeDegrees>
            </Position>
            <AltitudeMeters>9.3999996185302734375</AltitudeMeters>
            <DistanceMeters>NAN</DistanceMeters>
          </Trackpoint>
          <Trackpoint>
            <Time>2022-07-16T10:06:20.000Z</Time>
            <Position>
              <LatitudeDegrees>43.43473951332271099090576171875</LatitudeDegrees>
              <LongitudeDegrees>-4.83653624542057514190673828125</LongitudeDegrees>
            </Position>
            <AltitudeMeters>8.80000019073486328125</AltitudeMeters>
            <DistanceMeters>NAN</DistanceMeters>
          </Trackpoint>
          <Trackpoint>
            <Time>2022-07-16T10:06:22.000Z</Time>
            <Position>
              <LatitudeDegrees>43.43473951332271099090576171875</LatitudeDegrees>
              <LongitudeDegrees>-4.83653624542057514190673828125</LongitudeDegrees>
            </Position>
            <AltitudeMeters>8.6000003814697265625</AltitudeMeters>
            <DistanceMeters>NAN</DistanceMeters>
          </Trackpoint>
          <Trackpoint>
            <Time>2022-07-16T10:09:01.000Z</Time>
            <Position>
              <LatitudeDegrees>43.434759043157100677490234375</LatitudeDegrees>
              <LongitudeDegrees>-4.83654948882758617401123046875</LongitudeDegrees>
            </Position>
            <AltitudeMeters>8.3999996185302734375</AltitudeMeters>
            <DistanceMeters>NAN</DistanceMeters>
          </Trackpoint>
          <Trackpoint>
            <Time>2022-07-16T10:09:02.000Z</Time>
            <Position>
              <LatitudeDegrees>43.43478242866694927215576171875</LatitudeDegrees>
              <LongitudeDegrees>-4.83656474389135837554931640625</LongitudeDegrees>
            </Position>
            <AltitudeMeters>8.3999996185302734375</AltitudeMeters>
            <DistanceMeters>NAN</DistanceMeters>
          </Trackpoint>
          <Trackpoint>
            <Time>2022-07-16T10:09:09.000Z</Time>
            <Position>
              <LatitudeDegrees>43.4349858574569225311279296875</LatitudeDegrees>
              <LongitudeDegrees>-4.83671042136847972869873046875</LongitudeDegrees>
            </Position>
            <AltitudeMeters>10</AltitudeMeters>
            <DistanceMeters>NAN</DistanceMeters>
          </Trackpoint>
          <Trackpoint>
            <Time>2022-07-16T10:09:19.000Z</Time>
            <Position>
              <LatitudeDegrees>43.43524427153170108795166015625</LatitudeDegrees>
              <LongitudeDegrees>-4.83688007108867168426513671875</LongitudeDegrees>
            </Position>
            <AltitudeMeters>10</AltitudeMeters>
            <DistanceMeters>NAN</DistanceMeters>
          </Trackpoint>
          <Trackpoint>
            <Time>2022-07-16T10:09:28.000Z</Time>
            <Position>
              <LatitudeDegrees>43.43547075055539608001708984375</LatitudeDegrees>
              <LongitudeDegrees>-4.837114512920379638671875</LongitudeDegrees>
            </Position>
            <AltitudeMeters>10.19999980926513671875</AltitudeMeters>
            <DistanceMeters>NAN</DistanceMeters>
          </Trackpoint>
          <Trackpoint>
            <Time>2022-07-16T10:09:35.000Z</Time>
            <Position>
              <LatitudeDegrees>43.43562304973602294921875</LatitudeDegrees>
              <LongitudeDegrees>-4.83732783235609531402587890625</LongitudeDegrees>
            </Position>
            <AltitudeMeters>10.19999980926513671875</AltitudeMeters>
            <DistanceMeters>NAN</DistanceMeters>
          </Trackpoint>
          <Trackpoint>
            <Time>2022-07-16T10:09:39.000Z</Time>
            <Position>
              <LatitudeDegrees>43.43571147881448268890380859375</LatitudeDegrees>
              <LongitudeDegrees>-4.83746747486293315887451171875</LongitudeDegrees>
            </Position>
            <AltitudeMeters>10</AltitudeMeters>
            <DistanceMeters>NAN</DistanceMeters>
          </Trackpoint>
          <Trackpoint>
            <Time>2022-07-16T10:09:50.000Z</Time>
            <Position>
              <LatitudeDegrees>43.43591633252799510955810546875</LatitudeDegrees>
              <LongitudeDegrees>-4.83783829025924205780029296875</LongitudeDegrees>
            </Position>
            <AltitudeMeters>9.80000019073486328125</AltitudeMeters>
            <DistanceMeters>NAN</DistanceMeters>
          </Trackpoint>
          <Trackpoint>
            <Time>2022-07-16T10:09:51.000Z</Time>
            <Position>
              <LatitudeDegrees>43.43593259342014789581298828125</LatitudeDegrees>
              <LongitudeDegrees>-4.837870895862579345703125</LongitudeDegrees>
            </Position>
            <AltitudeMeters>10</AltitudeMeters>
            <DistanceMeters>NAN</DistanceMeters>
          </Trackpoint>
          <Trackpoint>
            <Time>2022-07-16T10:09:57.000Z</Time>
            <Position>
              <LatitudeDegrees>43.43603569082915782928466796875</LatitudeDegrees>
              <LongitudeDegrees>-4.8380787670612335205078125</LongitudeDegrees>
            </Position>
            <AltitudeMeters>10</AltitudeMeters>
            <DistanceMeters>NAN</DistanceMeters>
          </Trackpoint>
          <Trackpoint>
            <Time>2022-07-16T10:10:00.000Z</Time>
            <Position>
              <LatitudeDegrees>43.436079360544681549072265625</LatitudeDegrees>
              <LongitudeDegrees>-4.838167615234851837158203125</LongitudeDegrees>
            </Position>
            <AltitudeMeters>10</AltitudeMeters>
            <DistanceMeters>NAN</DistanceMeters>
          </Trackpoint>
          <Trackpoint>
            <Time>2022-07-16T10:10:02.000Z</Time>
            <Position>
              <LatitudeDegrees>43.43611297197639942169189453125</LatitudeDegrees>
              <LongitudeDegrees>-4.83823232352733612060546875</LongitudeDegrees>
            </Position>
            <AltitudeMeters>9.80000019073486328125</AltitudeMeters>
            <DistanceMeters>NAN</DistanceMeters>
          </Trackpoint>
          <Trackpoint>
            <Time>2022-07-16T10:10:07.000Z</Time>
            <Position>
              <LatitudeDegrees>43.43618270941078662872314453125</LatitudeDegrees>
              <LongitudeDegrees>-4.83837179839611053466796875</LongitudeDegrees>
            </Position>
            <AltitudeMeters>10</AltitudeMeters>
            <DistanceMeters>NAN</DistanceMeters>
          </Trackpoint>
          <Trackpoint>
            <Time>2022-07-16T10:10:11.000Z</Time>
            <Position>
              <LatitudeDegrees>43.436244986951351165771484375</LatitudeDegrees>
              <LongitudeDegrees>-4.83850230462849140167236328125</LongitudeDegrees>
            </Position>
            <AltitudeMeters>10.3999996185302734375</AltitudeMeters>
            <DistanceMeters>NAN</DistanceMeters>
          </Trackpoint>
          <Trackpoint>
            <Time>2022-07-16T10:10:13.000Z</Time>
            <Position>
              <LatitudeDegrees>43.436274826526641845703125</LatitudeDegrees>
              <LongitudeDegrees>-4.8385677672922611236572265625</LongitudeDegrees>
            </Position>
            <AltitudeMeters>10.3999996185302734375</AltitudeMeters>
            <DistanceMeters>NAN</DistanceMeters>
          </Trackpoint>
          <Trackpoint>
            <Time>2022-07-16T10:10:17.000Z</Time>
            <Position>
              <LatitudeDegrees>43.43633073382079601287841796875</LatitudeDegrees>
              <LongitudeDegrees>-4.83868218027055263519287109375</LongitudeDegrees>
            </Position>
            <AltitudeMeters>10.3999996185302734375</AltitudeMeters>
            <DistanceMeters>NAN</DistanceMeters>
          </Trackpoint>
          <Trackpoint>
            <Time>2022-07-16T10:10:18.000Z</Time>
            <Position>
              <LatitudeDegrees>43.4363457374274730682373046875</LatitudeDegrees>
              <LongitudeDegrees>-4.83871000818908214569091796875</LongitudeDegrees>
            </Position>
            <AltitudeMeters>10.3999996185302734375</AltitudeMeters>
            <DistanceMeters>NAN</DistanceMeters>
          </Trackpoint>
          <Trackpoint>
            <Time>2022-07-16T10:10:25.000Z</Time>
            <Position>
              <LatitudeDegrees>43.43645009212195873260498046875</LatitudeDegrees>
              <LongitudeDegrees>-4.83891217969357967376708984375</LongitudeDegrees>
            </Position>
            <AltitudeMeters>11.19999980926513671875</AltitudeMeters>
            <DistanceMeters>NAN</DistanceMeters>
          </Trackpoint>
          <Trackpoint>
            <Time>2022-07-16T10:10:28.000Z</Time>
            <Position>
              <LatitudeDegrees>43.43649703077971935272216796875</LatitudeDegrees>
              <LongitudeDegrees>-4.83899834565818309783935546875</LongitudeDegrees>
            </Position>
            <AltitudeMeters>11.6000003814697265625</AltitudeMeters>
            <DistanceMeters>NAN</DistanceMeters>
          </Trackpoint>
          <Trackpoint>
            <Time>2022-07-16T10:10:37.000Z</Time>
            <Position>
              <LatitudeDegrees>43.43662552535533905029296875</LatitudeDegrees>
              <LongitudeDegrees>-4.83925365842878818511962890625</LongitudeDegrees>
            </Position>
            <AltitudeMeters>12.19999980926513671875</AltitudeMeters>
            <DistanceMeters>NAN</DistanceMeters>
          </Trackpoint>
          <Trackpoint>
            <Time>2022-07-16T10:10:44.000Z</Time>
            <Position>
              <LatitudeDegrees>43.4367106854915618896484375</LatitudeDegrees>
              <LongitudeDegrees>-4.8394492082297801971435546875</LongitudeDegrees>
            </Position>
            <AltitudeMeters>12.19999980926513671875</AltitudeMeters>
            <DistanceMeters>NAN</DistanceMeters>
          </Trackpoint>
          <Trackpoint>
            <Time>2022-07-16T10:10:48.000Z</Time>
            <Position>
              <LatitudeDegrees>43.436735831201076507568359375</LatitudeDegrees>
              <LongitudeDegrees>-4.83955423347651958465576171875</LongitudeDegrees>
            </Position>
            <AltitudeMeters>12.6000003814697265625</AltitudeMeters>
            <DistanceMeters>NAN</DistanceMeters>
          </Trackpoint>
          <Trackpoint>
            <Time>2022-07-16T10:10:50.000Z</Time>
            <Position>
              <LatitudeDegrees>43.4367323108017444610595703125</LatitudeDegrees>
              <LongitudeDegrees>-4.8396245576441287994384765625</LongitudeDegrees>
            </Position>
            <AltitudeMeters>13</AltitudeMeters>
            <DistanceMeters>NAN</DistanceMeters>
          </Trackpoint>
          <Trackpoint>
            <Time>2022-07-16T10:10:59.000Z</Time>
            <Position>
              <LatitudeDegrees>43.4366712905466556549072265625</LatitudeDegrees>
              <LongitudeDegrees>-4.8399189300835132598876953125</LongitudeDegrees>
            </Position>
            <AltitudeMeters>13.6000003814697265625</AltitudeMeters>
            <DistanceMeters>NAN</DistanceMeters>
          </Trackpoint>
          <Trackpoint>
            <Time>2022-07-16T10:11:00.000Z</Time>
            <Position>
              <LatitudeDegrees>43.43666533939540386199951171875</LatitudeDegrees>
              <LongitudeDegrees>-4.83994985930621623992919921875</LongitudeDegrees>
            </Position>
            <AltitudeMeters>13.6000003814697265625</AltitudeMeters>
            <DistanceMeters>NAN</DistanceMeters>
          </Trackpoint>
          <Trackpoint>
            <Time>2022-07-16T10:11:09.000Z</Time>
            <Position>
              <LatitudeDegrees>43.4366052411496639251708984375</LatitudeDegrees>
              <LongitudeDegrees>-4.840258397161960601806640625</LongitudeDegrees>
            </Position>
            <AltitudeMeters>13.80000019073486328125</AltitudeMeters>
            <DistanceMeters>NAN</DistanceMeters>
          </Trackpoint>
          <Trackpoint>
            <Time>2022-07-16T10:11:18.000Z</Time>
            <Position>
              <LatitudeDegrees>43.436529636383056640625</LatitudeDegrees>
              <LongitudeDegrees>-4.84055452980101108551025390625</LongitudeDegrees>
            </Position>
            <AltitudeMeters>13.6000003814697265625</AltitudeMeters>
            <DistanceMeters>NAN</DistanceMeters>
          </Trackpoint>
          <Trackpoint>
            <Time>2022-07-16T10:11:26.000Z</Time>
            <Position>
              <LatitudeDegrees>43.436462581157684326171875</LatitudeDegrees>
              <LongitudeDegrees>-4.84081369824707508087158203125</LongitudeDegrees>
            </Position>
            <AltitudeMeters>13.3999996185302734375</AltitudeMeters>
            <DistanceMeters>NAN</DistanceMeters>
          </Trackpoint>
          <Trackpoint>
            <Time>2022-07-16T10:11:29.000Z</Time>
            <Position>
              <LatitudeDegrees>43.436441458761692047119140625</LatitudeDegrees>
              <LongitudeDegrees>-4.84091109596192836761474609375</LongitudeDegrees>
            </Position>
            <AltitudeMeters>14</AltitudeMeters>
            <DistanceMeters>NAN</DistanceMeters>
          </Trackpoint>
          <Trackpoint>
            <Time>2022-07-16T10:11:36.000Z</Time>
            <Position>
              <LatitudeDegrees>43.43639208935201168060302734375</LatitudeDegrees>
              <LongitudeDegrees>-4.8411165364086627960205078125</LongitudeDegrees>
            </Position>
            <AltitudeMeters>14.3999996185302734375</AltitudeMeters>
            <DistanceMeters>NAN</DistanceMeters>
          </Trackpoint>
          <Trackpoint>
            <Time>2022-07-16T10:11:39.000Z</Time>
            <Position>
              <LatitudeDegrees>43.436375074088573455810546875</LatitudeDegrees>
              <LongitudeDegrees>-4.84119876287877559661865234375</LongitudeDegrees>
            </Position>
            <AltitudeMeters>14.80000019073486328125</AltitudeMeters>
            <DistanceMeters>NAN</DistanceMeters>
          </Trackpoint>
          <Trackpoint>
            <Time>2022-07-16T10:11:44.000Z</Time>
            <Position>
              <LatitudeDegrees>43.43635085038840770721435546875</LatitudeDegrees>
              <LongitudeDegrees>-4.84133589081466197967529296875</LongitudeDegrees>
            </Position>
            <AltitudeMeters>15.3999996185302734375</AltitudeMeters>
            <DistanceMeters>NAN</DistanceMeters>
          </Trackpoint>
          <Trackpoint>
            <Time>2022-07-16T10:11:54.000Z</Time>
            <Position>
              <LatitudeDegrees>43.43628823757171630859375</LatitudeDegrees>
              <LongitudeDegrees>-4.84159723855555057525634765625</LongitudeDegrees>
            </Position>
            <AltitudeMeters>15.80000019073486328125</AltitudeMeters>
            <DistanceMeters>NAN</DistanceMeters>
          </Trackpoint>
          <Trackpoint>
            <Time>2022-07-16T10:11:56.000Z</Time>
            <Position>
              <LatitudeDegrees>43.43627206049859523773193359375</LatitudeDegrees>
              <LongitudeDegrees>-4.84164300374686717987060546875</LongitudeDegrees>
            </Position>
            <AltitudeMeters>15.80000019073486328125</AltitudeMeters>
            <DistanceMeters>NAN</DistanceMeters>
          </Trackpoint>
          <Trackpoint>
            <Time>2022-07-16T10:12:02.000Z</Time>
            <Position>
              <LatitudeDegrees>43.436231575906276702880859375</LatitudeDegrees>
              <LongitudeDegrees>-4.841802008450031280517578125</LongitudeDegrees>
            </Position>
            <AltitudeMeters>16</AltitudeMeters>
            <DistanceMeters>NAN</DistanceMeters>
          </Trackpoint>
          <Trackpoint>
            <Time>2022-07-16T10:12:11.000Z</Time>
            <Position>
              <LatitudeDegrees>43.4361630119383335113525390625</LatitudeDegrees>
              <LongitudeDegrees>-4.8420388810336589813232421875</LongitudeDegrees>
            </Position>
            <AltitudeMeters>16.799999237060546875</AltitudeMeters>
            <DistanceMeters>NAN</DistanceMeters>
          </Trackpoint>
          <Trackpoint>
            <Time>2022-07-16T10:12:12.000Z</Time>
            <Position>
              <LatitudeDegrees>43.436159156262874603271484375</LatitudeDegrees>
              <LongitudeDegrees>-4.8420640267431735992431640625</LongitudeDegrees>
            </Position>
            <AltitudeMeters>17</AltitudeMeters>
            <DistanceMeters>NAN</DistanceMeters>
          </Trackpoint>
          <Trackpoint>
            <Time>2022-07-16T10:12:19.000Z</Time>
            <Position>
              <LatitudeDegrees>43.43612437136471271514892578125</LatitudeDegrees>
              <LongitudeDegrees>-4.84223091043531894683837890625</LongitudeDegrees>
            </Position>
            <AltitudeMeters>17.200000762939453125</AltitudeMeters>
            <DistanceMeters>NAN</DistanceMeters>
          </Trackpoint>
          <Trackpoint>
            <Time>2022-07-16T10:12:26.000Z</Time>
            <Position>
              <LatitudeDegrees>43.436089418828487396240234375</LatitudeDegrees>
              <LongitudeDegrees>-4.8424016498029232025146484375</LongitudeDegrees>
            </Position>
            <AltitudeMeters>18</AltitudeMeters>
            <DistanceMeters>NAN</DistanceMeters>
          </Trackpoint>
          <Trackpoint>
            <Time>2022-07-16T10:12:27.000Z</Time>
            <Position>
              <LatitudeDegrees>43.43608162365853786468505859375</LatitudeDegrees>
              <LongitudeDegrees>-4.84242587350308895111083984375</LongitudeDegrees>
            </Position>
            <AltitudeMeters>18</AltitudeMeters>
            <DistanceMeters>NAN</DistanceMeters>
          </Trackpoint>
          <Trackpoint>
            <Time>2022-07-16T10:12:28.000Z</Time>
            <Position>
              <LatitudeDegrees>43.436076678335666656494140625</LatitudeDegrees>
              <LongitudeDegrees>-4.8424516059458255767822265625</LongitudeDegrees>
            </Position>
            <AltitudeMeters>18</AltitudeMeters>
            <DistanceMeters>NAN</DistanceMeters>
          </Trackpoint>
          <Trackpoint>
            <Time>2022-07-16T10:12:37.000Z</Time>
            <Position>
              <LatitudeDegrees>43.436040468513965606689453125</LatitudeDegrees>
              <LongitudeDegrees>-4.842651598155498504638671875</LongitudeDegrees>
            </Position>
            <AltitudeMeters>18.6000003814697265625</AltitudeMeters>
            <DistanceMeters>NAN</DistanceMeters>
          </Trackpoint>
          <Trackpoint>
            <Time>2022-07-16T10:12:41.000Z</Time>
            <Position>
              <LatitudeDegrees>43.4360208548605442047119140625</LatitudeDegrees>
              <LongitudeDegrees>-4.84273214824497699737548828125</LongitudeDegrees>
            </Position>
            <AltitudeMeters>19</AltitudeMeters>
            <DistanceMeters>NAN</DistanceMeters>
          </Trackpoint>
          <Trackpoint>
            <Time>2022-07-16T10:12:47.000Z</Time>
            <Position>
              <LatitudeDegrees>43.43599109910428524017333984375</LatitudeDegrees>
              <LongitudeDegrees>-4.842858798801898956298828125</LongitudeDegrees>
            </Position>
            <AltitudeMeters>19.200000762939453125</AltitudeMeters>
            <DistanceMeters>NAN</DistanceMeters>
          </Trackpoint>
          <Trackpoint>
            <Time>2022-07-16T10:12:56.000Z</Time>
            <Position>
              <LatitudeDegrees>43.43594315461814403533935546875</LatitudeDegrees>
              <LongitudeDegrees>-4.8430500738322734832763671875</LongitudeDegrees>
            </Position>
            <AltitudeMeters>19.799999237060546875</AltitudeMeters>
            <DistanceMeters>NAN</DistanceMeters>
          </Trackpoint>
          <Trackpoint>
            <Time>2022-07-16T10:12:57.000Z</Time>
            <Position>
              <LatitudeDegrees>43.43593619763851165771484375</LatitudeDegrees>
              <LongitudeDegrees>-4.8430722020566463470458984375</LongitudeDegrees>
            </Position>
            <AltitudeMeters>20</AltitudeMeters>
            <DistanceMeters>NAN</DistanceMeters>
          </Trackpoint>
          <Trackpoint>
            <Time>2022-07-16T10:12:58.000Z</Time>
            <Position>
              <LatitudeDegrees>43.4359269775450229644775390625</LatitudeDegrees>
              <LongitudeDegrees>-4.843098856508731842041015625</LongitudeDegrees>
            </Position>
            <AltitudeMeters>20.200000762939453125</AltitudeMeters>
            <DistanceMeters>NAN</DistanceMeters>
          </Trackpoint>
          <Trackpoint>
            <Time>2022-07-16T10:13:06.000Z</Time>
            <Position>
              <LatitudeDegrees>43.43587308190762996673583984375</LatitudeDegrees>
              <LongitudeDegrees>-4.84326875768601894378662109375</LongitudeDegrees>
            </Position>
            <AltitudeMeters>20.799999237060546875</AltitudeMeters>
            <DistanceMeters>NAN</DistanceMeters>
          </Trackpoint>
          <Trackpoint>
            <Time>2022-07-16T10:13:12.000Z</Time>
            <Position>
              <LatitudeDegrees>43.43584223650395870208740234375</LatitudeDegrees>
              <LongitudeDegrees>-4.84341544099152088165283203125</LongitudeDegrees>
            </Position>
            <AltitudeMeters>21.200000762939453125</AltitudeMeters>
            <DistanceMeters>NAN</DistanceMeters>
          </Trackpoint>
          <Trackpoint>
            <Time>2022-07-16T10:13:16.000Z</Time>
            <Position>
              <LatitudeDegrees>43.435813821852207183837890625</LatitudeDegrees>
              <LongitudeDegrees>-4.84350445680320262908935546875</LongitudeDegrees>
            </Position>
            <AltitudeMeters>21.200000762939453125</AltitudeMeters>
            <DistanceMeters>NAN</DistanceMeters>
          </Trackpoint>
          <Trackpoint>
            <Time>2022-07-16T10:13:22.000Z</Time>
            <Position>
              <LatitudeDegrees>43.4357838146388530731201171875</LatitudeDegrees>
              <LongitudeDegrees>-4.8436394892632961273193359375</LongitudeDegrees>
            </Position>
            <AltitudeMeters>21.6000003814697265625</AltitudeMeters>
            <DistanceMeters>NAN</DistanceMeters>
          </Trackpoint>
          <Trackpoint>
            <Time>2022-07-16T10:13:28.000Z</Time>
            <Position>
              <LatitudeDegrees>43.43576193787157535552978515625</LatitudeDegrees>
              <LongitudeDegrees>-4.8437735997140407562255859375</LongitudeDegrees>
            </Position>
            <AltitudeMeters>22.200000762939453125</AltitudeMeters>
            <DistanceMeters>NAN</DistanceMeters>
          </Trackpoint>
          <Trackpoint>
            <Time>2022-07-16T10:13:29.000Z</Time>
            <Position>
              <LatitudeDegrees>43.43575506471097469329833984375</LatitudeDegrees>
              <LongitudeDegrees>-4.8437997512519359588623046875</LongitudeDegrees>
            </Position>
            <AltitudeMeters>22.200000762939453125</AltitudeMeters>
            <DistanceMeters>NAN</DistanceMeters>
          </Trackpoint>
          <Trackpoint>
            <Time>2022-07-16T10:13:35.000Z</Time>
            <Position>
              <LatitudeDegrees>43.4357274882495403289794921875</LatitudeDegrees>
              <LongitudeDegrees>-4.84392824582755565643310546875</LongitudeDegrees>
            </Position>
            <AltitudeMeters>22.799999237060546875</AltitudeMeters>
            <DistanceMeters>NAN</DistanceMeters>
          </Trackpoint>
          <Trackpoint>
            <Time>2022-07-16T10:13:39.000Z</Time>
            <Position>
              <LatitudeDegrees>43.43571147881448268890380859375</LatitudeDegrees>
              <LongitudeDegrees>-4.8440106399357318878173828125</LongitudeDegrees>
            </Position>
            <AltitudeMeters>23.200000762939453125</AltitudeMeters>
            <DistanceMeters>NAN</DistanceMeters>
          </Trackpoint>
          <Trackpoint>
            <Time>2022-07-16T10:13:42.000Z</Time>
            <Position>
              <LatitudeDegrees>43.435699827969074249267578125</LatitudeDegrees>
              <LongitudeDegrees>-4.8440766893327236175537109375</LongitudeDegrees>
            </Position>
            <AltitudeMeters>23.3999996185302734375</AltitudeMeters>
            <DistanceMeters>NAN</DistanceMeters>
          </Trackpoint>
          <Trackpoint>
            <Time>2022-07-16T10:13:52.000Z</Time>
            <Position>
              <LatitudeDegrees>43.4356436692178249359130859375</LatitudeDegrees>
              <LongitudeDegrees>-4.8442952893674373626708984375</LongitudeDegrees>
            </Position>
            <AltitudeMeters>24.200000762939453125</AltitudeMeters>
            <DistanceMeters>NAN</DistanceMeters>
          </Trackpoint>
          <Trackpoint>
            <Time>2022-07-16T10:13:54.000Z</Time>
            <Position>
              <LatitudeDegrees>43.43563453294336795806884765625</LatitudeDegrees>
              <LongitudeDegrees>-4.84433745034039020538330078125</LongitudeDegrees>
            </Position>
            <AltitudeMeters>24.3999996185302734375</AltitudeMeters>
            <DistanceMeters>NAN</DistanceMeters>
          </Trackpoint>
          <Trackpoint>
            <Time>2022-07-16T10:14:01.000Z</Time>
            <Position>
              <LatitudeDegrees>43.43560284934937953948974609375</LatitudeDegrees>
              <LongitudeDegrees>-4.84448916278779506683349609375</LongitudeDegrees>
            </Position>
            <AltitudeMeters>25.3999996185302734375</AltitudeMeters>
            <DistanceMeters>NAN</DistanceMeters>
          </Trackpoint>
          <Trackpoint>
            <Time>2022-07-16T10:14:04.000Z</Time>
            <Position>
              <LatitudeDegrees>43.43558424152433872222900390625</LatitudeDegrees>
              <LongitudeDegrees>-4.844551943242549896240234375</LongitudeDegrees>
            </Position>
            <AltitudeMeters>25.799999237060546875</AltitudeMeters>
            <DistanceMeters>NAN</DistanceMeters>
          </Trackpoint>
          <Trackpoint>
            <Time>2022-07-16T10:14:11.000Z</Time>
            <Position>
              <LatitudeDegrees>43.43555666506290435791015625</LatitudeDegrees>
              <LongitudeDegrees>-4.8447113670408725738525390625</LongitudeDegrees>
            </Position>
            <AltitudeMeters>26.3999996185302734375</AltitudeMeters>
            <DistanceMeters>NAN</DistanceMeters>
          </Trackpoint>
          <Trackpoint>
            <Time>2022-07-16T10:14:16.000Z</Time>
            <Position>
              <LatitudeDegrees>43.43553143553435802459716796875</LatitudeDegrees>
              <LongitudeDegrees>-4.8448203317821025848388671875</LongitudeDegrees>
            </Position>
            <AltitudeMeters>26.3999996185302734375</AltitudeMeters>
            <DistanceMeters>NAN</DistanceMeters>
          </Trackpoint>
          <Trackpoint>
            <Time>2022-07-16T10:14:28.000Z</Time>
            <Position>
              <LatitudeDegrees>43.43548399396240711212158203125</LatitudeDegrees>
              <LongitudeDegrees>-4.84505980275571346282958984375</LongitudeDegrees>
            </Position>
            <AltitudeMeters>27.3999996185302734375</AltitudeMeters>
            <DistanceMeters>NAN</DistanceMeters>
          </Trackpoint>
          <Trackpoint>
            <Time>2022-07-16T10:14:39.000Z</Time>
            <Position>
              <LatitudeDegrees>43.43544459901750087738037109375</LatitudeDegrees>
              <LongitudeDegrees>-4.84530891291797161102294921875</LongitudeDegrees>
            </Position>
            <AltitudeMeters>28.3999996185302734375</AltitudeMeters>
            <DistanceMeters>NAN</DistanceMeters>
          </Trackpoint>
          <Trackpoint>
            <Time>2022-07-16T10:14:40.000Z</Time>
            <Position>
              <LatitudeDegrees>43.43544065952301025390625</LatitudeDegrees>
              <LongitudeDegrees>-4.84533892013132572174072265625</LongitudeDegrees>
            </Position>
            <AltitudeMeters>28.3999996185302734375</AltitudeMeters>
            <DistanceMeters>NAN</DistanceMeters>
          </Trackpoint>
          <Trackpoint>
            <Time>2022-07-16T10:14:47.000Z</Time>
            <Position>
              <LatitudeDegrees>43.43540914356708526611328125</LatitudeDegrees>
              <LongitudeDegrees>-4.8455297760665416717529296875</LongitudeDegrees>
            </Position>
            <AltitudeMeters>29.3999996185302734375</AltitudeMeters>
            <DistanceMeters>NAN</DistanceMeters>
          </Trackpoint>
          <Trackpoint>
            <Time>2022-07-16T10:14:48.000Z</Time>
            <Position>
              <LatitudeDegrees>43.4354052878916263580322265625</LatitudeDegrees>
              <LongitudeDegrees>-4.84555399976670742034912109375</LongitudeDegrees>
            </Position>
            <AltitudeMeters>29.6000003814697265625</AltitudeMeters>
            <DistanceMeters>NAN</DistanceMeters>
          </Trackpoint>
          <Trackpoint>
            <Time>2022-07-16T10:14:52.000Z</Time>
            <Position>
              <LatitudeDegrees>43.43538106419146060943603515625</LatitudeDegrees>
              <LongitudeDegrees>-4.84568375162780284881591796875</LongitudeDegrees>
            </Position>
            <AltitudeMeters>29.799999237060546875</AltitudeMeters>
            <DistanceMeters>NAN</DistanceMeters>
          </Trackpoint>
          <Trackpoint>
            <Time>2022-07-16T10:14:56.000Z</Time>
            <Position>
              <LatitudeDegrees>43.43536555767059326171875</LatitudeDegrees>
              <LongitudeDegrees>-4.84576656483113765716552734375</LongitudeDegrees>
            </Position>
            <AltitudeMeters>29.6000003814697265625</AltitudeMeters>
            <DistanceMeters>NAN</DistanceMeters>
          </Trackpoint>
          <Trackpoint>
            <Time>2022-07-16T10:14:58.000Z</Time>
            <Position>
              <LatitudeDegrees>43.43536555767059326171875</LatitudeDegrees>
              <LongitudeDegrees>-4.84576656483113765716552734375</LongitudeDegrees>
            </Position>
            <AltitudeMeters>29.3999996185302734375</AltitudeMeters>
            <DistanceMeters>NAN</DistanceMeters>
          </Trackpoint>
          <Trackpoint>
            <Time>2022-07-16T10:15:10.000Z</Time>
            <Position>
              <LatitudeDegrees>43.43534971587359905242919921875</LatitudeDegrees>
              <LongitudeDegrees>-4.845845438539981842041015625</LongitudeDegrees>
            </Position>
            <AltitudeMeters>29.200000762939453125</AltitudeMeters>
            <DistanceMeters>NAN</DistanceMeters>
          </Trackpoint>
          <Trackpoint>
            <Time>2022-07-16T10:15:11.000Z</Time>
            <Position>
              <LatitudeDegrees>43.4353462792932987213134765625</LatitudeDegrees>
              <LongitudeDegrees>-4.84587519429624080657958984375</LongitudeDegrees>
            </Position>
            <AltitudeMeters>29.200000762939453125</AltitudeMeters>
            <DistanceMeters>NAN</DistanceMeters>
          </Trackpoint>
          <Trackpoint>
            <Time>2022-07-16T10:15:13.000Z</Time>
            <Position>
              <LatitudeDegrees>43.43533546663820743560791015625</LatitudeDegrees>
              <LongitudeDegrees>-4.8459458537399768829345703125</LongitudeDegrees>
            </Position>
            <AltitudeMeters>29.200000762939453125</AltitudeMeters>
            <DistanceMeters>NAN</DistanceMeters>
          </Trackpoint>
          <Trackpoint>
            <Time>2022-07-16T10:15:17.000Z</Time>
            <Position>
              <LatitudeDegrees>43.435310237109661102294921875</LatitudeDegrees>
              <LongitudeDegrees>-4.8460990749299526214599609375</LongitudeDegrees>
            </Position>
            <AltitudeMeters>30</AltitudeMeters>
            <DistanceMeters>NAN</DistanceMeters>
          </Trackpoint>
          <Trackpoint>
            <Time>2022-07-16T10:15:23.000Z</Time>
            <Position>
              <LatitudeDegrees>43.4352701716125011444091796875</LatitudeDegrees>
              <LongitudeDegrees>-4.84632245264947414398193359375</LongitudeDegrees>
            </Position>
            <AltitudeMeters>30.3999996185302734375</AltitudeMeters>
            <DistanceMeters>NAN</DistanceMeters>
          </Trackpoint>
          <Trackpoint>
            <Time>2022-07-16T10:15:25.000Z</Time>
            <Position>
              <LatitudeDegrees>43.43525449745357036590576171875</LatitudeDegrees>
              <LongitudeDegrees>-4.846391938626766204833984375</LongitudeDegrees>
            </Position>
            <AltitudeMeters>30.6000003814697265625</AltitudeMeters>
            <DistanceMeters>NAN</DistanceMeters>
          </Trackpoint>
          <Trackpoint>
            <Time>2022-07-16T10:15:26.000Z</Time>
            <Position>
              <LatitudeDegrees>43.43524754047393798828125</LatitudeDegrees>
              <LongitudeDegrees>-4.846419431269168853759765625</LongitudeDegrees>
            </Position>
            <AltitudeMeters>30.6000003814697265625</AltitudeMeters>
            <DistanceMeters>NAN</DistanceMeters>
          </Trackpoint>
          <Trackpoint>
            <Time>2022-07-16T10:15:38.000Z</Time>
            <Position>
              <LatitudeDegrees>43.4351823292672634124755859375</LatitudeDegrees>
              <LongitudeDegrees>-4.84683324582874774932861328125</LongitudeDegrees>
            </Position>
            <AltitudeMeters>31.200000762939453125</AltitudeMeters>
            <DistanceMeters>NAN</DistanceMeters>
          </Trackpoint>
          <Trackpoint>
            <Time>2022-07-16T10:15:42.000Z</Time>
            <Position>
              <LatitudeDegrees>43.43516045249998569488525390625</LatitudeDegrees>
              <LongitudeDegrees>-4.846965260803699493408203125</LongitudeDegrees>
            </Position>
            <AltitudeMeters>31.3999996185302734375</AltitudeMeters>
            <DistanceMeters>NAN</DistanceMeters>
          </Trackpoint>
          <Trackpoint>
            <Time>2022-07-16T10:15:49.000Z</Time>
            <Position>
              <LatitudeDegrees>43.4351176209747791290283203125</LatitudeDegrees>
              <LongitudeDegrees>-4.847215712070465087890625</LongitudeDegrees>
            </Position>
            <AltitudeMeters>31.3999996185302734375</AltitudeMeters>
            <DistanceMeters>NAN</DistanceMeters>
          </Trackpoint>
          <Trackpoint>
            <Time>2022-07-16T10:15:53.000Z</Time>
            <Position>
              <LatitudeDegrees>43.43509473837912082672119140625</LatitudeDegrees>
              <LongitudeDegrees>-4.84735342673957347869873046875</LongitudeDegrees>
            </Position>
            <AltitudeMeters>31.6000003814697265625</AltitudeMeters>
            <DistanceMeters>NAN</DistanceMeters>
          </Trackpoint>
          <Trackpoint>
            <Time>2022-07-16T10:15:59.000Z</Time>
            <Position>
              <LatitudeDegrees>43.43506556935608386993408203125</LatitudeDegrees>
              <LongitudeDegrees>-4.84752215445041656494140625</LongitudeDegrees>
            </Position>
            <AltitudeMeters>31.799999237060546875</AltitudeMeters>
            <DistanceMeters>NAN</DistanceMeters>
          </Trackpoint>
          <Trackpoint>
            <Time>2022-07-16T10:16:05.000Z</Time>
            <Position>
              <LatitudeDegrees>43.43503623269498348236083984375</LatitudeDegrees>
              <LongitudeDegrees>-4.8476822488009929656982421875</LongitudeDegrees>
            </Position>
            <AltitudeMeters>32.59999847412109375</AltitudeMeters>
            <DistanceMeters>NAN</DistanceMeters>
          </Trackpoint>
          <Trackpoint>
            <Time>2022-07-16T10:16:08.000Z</Time>
            <Position>
              <LatitudeDegrees>43.43501913361251354217529296875</LatitudeDegrees>
              <LongitudeDegrees>-4.8477610386908054351806640625</LongitudeDegrees>
            </Position>
            <AltitudeMeters>32.799999237060546875</AltitudeMeters>
            <DistanceMeters>NAN</DistanceMeters>
          </Trackpoint>
          <Trackpoint>
            <Time>2022-07-16T10:16:13.000Z</Time>
            <Position>
              <LatitudeDegrees>43.4350056387484073638916015625</LatitudeDegrees>
              <LongitudeDegrees>-4.8478902876377105712890625</LongitudeDegrees>
            </Position>
            <AltitudeMeters>33.200000762939453125</AltitudeMeters>
            <DistanceMeters>NAN</DistanceMeters>
          </Trackpoint>
          <Trackpoint>
            <Time>2022-07-16T10:16:19.000Z</Time>
            <Position>
              <LatitudeDegrees>43.43498912639915943145751953125</LatitudeDegrees>
              <LongitudeDegrees>-4.84804510138928890228271484375</LongitudeDegrees>
            </Position>
            <AltitudeMeters>33.59999847412109375</AltitudeMeters>
            <DistanceMeters>NAN</DistanceMeters>
          </Trackpoint>
          <Trackpoint>
            <Time>2022-07-16T10:16:28.000Z</Time>
            <Position>
              <LatitudeDegrees>43.4349744580686092376708984375</LatitudeDegrees>
              <LongitudeDegrees>-4.848305694758892059326171875</LongitudeDegrees>
            </Position>
            <AltitudeMeters>34.59999847412109375</AltitudeMeters>
            <DistanceMeters>NAN</DistanceMeters>
          </Trackpoint>
          <Trackpoint>
            <Time>2022-07-16T10:16:32.000Z</Time>
            <Position>
              <LatitudeDegrees>43.4349657408893108367919921875</LatitudeDegrees>
              <LongitudeDegrees>-4.84842530451714992523193359375</LongitudeDegrees>
            </Position>
            <AltitudeMeters>34.40000152587890625</AltitudeMeters>
            <DistanceMeters>NAN</DistanceMeters>
          </Trackpoint>
          <Trackpoint>
            <Time>2022-07-16T10:16:36.000Z</Time>
            <Position>
              <LatitudeDegrees>43.4349623881280422210693359375</LatitudeDegrees>
              <LongitudeDegrees>-4.8485730774700641632080078125</LongitudeDegrees>
            </Position>
            <AltitudeMeters>34.40000152587890625</AltitudeMeters>
            <DistanceMeters>NAN</DistanceMeters>
          </Trackpoint>
          <Trackpoint>
            <Time>2022-07-16T10:16:37.000Z</Time>
            <Position>
              <LatitudeDegrees>43.434962891042232513427734375</LatitudeDegrees>
              <LongitudeDegrees>-4.8486082814633846282958984375</LongitudeDegrees>
            </Position>
            <AltitudeMeters>34.59999847412109375</AltitudeMeters>
            <DistanceMeters>NAN</DistanceMeters>
          </Trackpoint>
          <Trackpoint>
            <Time>2022-07-16T10:16:41.000Z</Time>
            <Position>
              <LatitudeDegrees>43.43495761044323444366455078125</LatitudeDegrees>
              <LongitudeDegrees>-4.84875320456922054290771484375</LongitudeDegrees>
            </Position>
            <AltitudeMeters>35</AltitudeMeters>
            <DistanceMeters>NAN</DistanceMeters>
          </Trackpoint>
          <Trackpoint>
            <Time>2022-07-16T10:16:44.000Z</Time>
            <Position>
              <LatitudeDegrees>43.43495291657745838165283203125</LatitudeDegrees>
              <LongitudeDegrees>-4.84887256287038326263427734375</LongitudeDegrees>
            </Position>
            <AltitudeMeters>35</AltitudeMeters>
            <DistanceMeters>NAN</DistanceMeters>
          </Trackpoint>
          <Trackpoint>
            <Time>2022-07-16T10:16:47.000Z</Time>
            <Position>
              <LatitudeDegrees>43.4349499829113483428955078125</LatitudeDegrees>
              <LongitudeDegrees>-4.84897750429809093475341796875</LongitudeDegrees>
            </Position>
            <AltitudeMeters>35</AltitudeMeters>
            <DistanceMeters>NAN</DistanceMeters>
          </Trackpoint>
          <Trackpoint>
            <Time>2022-07-16T10:16:53.000Z</Time>
            <Position>
              <LatitudeDegrees>43.43493866734206676483154296875</LatitudeDegrees>
              <LongitudeDegrees>-4.849174730479717254638671875</LongitudeDegrees>
            </Position>
            <AltitudeMeters>34.799999237060546875</AltitudeMeters>
            <DistanceMeters>NAN</DistanceMeters>
          </Trackpoint>
          <Trackpoint>
            <Time>2022-07-16T10:16:57.000Z</Time>
            <Position>
              <LatitudeDegrees>43.43492911197245121002197265625</LatitudeDegrees>
              <LongitudeDegrees>-4.84932485036551952362060546875</LongitudeDegrees>
            </Position>
            <AltitudeMeters>35</AltitudeMeters>
            <DistanceMeters>NAN</DistanceMeters>
          </Trackpoint>
          <Trackpoint>
            <Time>2022-07-16T10:17:02.000Z</Time>
            <Position>
              <LatitudeDegrees>43.43491435982286930084228515625</LatitudeDegrees>
              <LongitudeDegrees>-4.84952450729906558990478515625</LongitudeDegrees>
            </Position>
            <AltitudeMeters>35</AltitudeMeters>
            <DistanceMeters>NAN</DistanceMeters>
          </Trackpoint>
          <Trackpoint>
            <Time>2022-07-16T10:17:04.000Z</Time>
            <Position>
              <LatitudeDegrees>43.434914611279964447021484375</LatitudeDegrees>
              <LongitudeDegrees>-4.8496030457317829132080078125</LongitudeDegrees>
            </Position>
            <AltitudeMeters>35</AltitudeMeters>
            <DistanceMeters>NAN</DistanceMeters>
          </Trackpoint>
          <Trackpoint>
            <Time>2022-07-16T10:17:11.000Z</Time>
            <Position>
              <LatitudeDegrees>43.43489818274974822998046875</LatitudeDegrees>
              <LongitudeDegrees>-4.84987906180322170257568359375</LongitudeDegrees>
            </Position>
            <AltitudeMeters>35.200000762939453125</AltitudeMeters>
            <DistanceMeters>NAN</DistanceMeters>
          </Trackpoint>
          <Trackpoint>
            <Time>2022-07-16T10:17:14.000Z</Time>
            <Position>
              <LatitudeDegrees>43.43489952385425567626953125</LatitudeDegrees>
              <LongitudeDegrees>-4.850004203617572784423828125</LongitudeDegrees>
            </Position>
            <AltitudeMeters>35.200000762939453125</AltitudeMeters>
            <DistanceMeters>NAN</DistanceMeters>
          </Trackpoint>
          <Trackpoint>
            <Time>2022-07-16T10:17:22.000Z</Time>
            <Position>
              <LatitudeDegrees>43.43488435260951519012451171875</LatitudeDegrees>
              <LongitudeDegrees>-4.8503138311207294464111328125</LongitudeDegrees>
            </Position>
            <AltitudeMeters>35.799999237060546875</AltitudeMeters>
            <DistanceMeters>NAN</DistanceMeters>
          </Trackpoint>
          <Trackpoint>
            <Time>2022-07-16T10:17:23.000Z</Time>
            <Position>
              <LatitudeDegrees>43.4348835982382297515869140625</LatitudeDegrees>
              <LongitudeDegrees>-4.85035180114209651947021484375</LongitudeDegrees>
            </Position>
            <AltitudeMeters>35.799999237060546875</AltitudeMeters>
            <DistanceMeters>NAN</DistanceMeters>
          </Trackpoint>
          <Trackpoint>
            <Time>2022-07-16T10:17:32.000Z</Time>
            <Position>
              <LatitudeDegrees>43.4348832629621028900146484375</LatitudeDegrees>
              <LongitudeDegrees>-4.85065405257046222686767578125</LongitudeDegrees>
            </Position>
            <AltitudeMeters>36.200000762939453125</AltitudeMeters>
            <DistanceMeters>NAN</DistanceMeters>
          </Trackpoint>
          <Trackpoint>
            <Time>2022-07-16T10:17:36.000Z</Time>
            <Position>
              <LatitudeDegrees>43.4348812513053417205810546875</LatitudeDegrees>
              <LongitudeDegrees>-4.85077391378581523895263671875</LongitudeDegrees>
            </Position>
            <AltitudeMeters>36.59999847412109375</AltitudeMeters>
            <DistanceMeters>NAN</DistanceMeters>
          </Trackpoint>
          <Trackpoint>
            <Time>2022-07-16T10:17:39.000Z</Time>
            <Position>
              <LatitudeDegrees>43.4348795749247074127197265625</LatitudeDegrees>
              <LongitudeDegrees>-4.85086762346327304840087890625</LongitudeDegrees>
            </Position>
            <AltitudeMeters>36.799999237060546875</AltitudeMeters>
            <DistanceMeters>NAN</DistanceMeters>
          </Trackpoint>
          <Trackpoint>
            <Time>2022-07-16T10:17:40.000Z</Time>
            <Position>
              <LatitudeDegrees>43.434879072010517120361328125</LatitudeDegrees>
              <LongitudeDegrees>-4.8508925177156925201416015625</LongitudeDegrees>
            </Position>
            <AltitudeMeters>36.799999237060546875</AltitudeMeters>
            <DistanceMeters>NAN</DistanceMeters>
          </Trackpoint>
          <Trackpoint>
            <Time>2022-07-16T10:17:42.000Z</Time>
            <Position>
              <LatitudeDegrees>43.43487882055342197418212890625</LatitudeDegrees>
              <LongitudeDegrees>-4.85096150077879428863525390625</LongitudeDegrees>
            </Position>
            <AltitudeMeters>37</AltitudeMeters>
            <DistanceMeters>NAN</DistanceMeters>
          </Trackpoint>
          <Trackpoint>
            <Time>2022-07-16T10:17:48.000Z</Time>
            <Position>
              <LatitudeDegrees>43.4348711930215358734130859375</LatitudeDegrees>
              <LongitudeDegrees>-4.85112712718546390533447265625</LongitudeDegrees>
            </Position>
            <AltitudeMeters>37.40000152587890625</AltitudeMeters>
            <DistanceMeters>NAN</DistanceMeters>
          </Trackpoint>
          <Trackpoint>
            <Time>2022-07-16T10:17:50.000Z</Time>
            <Position>
              <LatitudeDegrees>43.43487110920250415802001953125</LatitudeDegrees>
              <LongitudeDegrees>-4.85117800533771514892578125</LongitudeDegrees>
            </Position>
            <AltitudeMeters>37.59999847412109375</AltitudeMeters>
            <DistanceMeters>NAN</DistanceMeters>
          </Trackpoint>
          <Trackpoint>
            <Time>2022-07-16T10:17:52.000Z</Time>
            <Position>
              <LatitudeDegrees>43.434867672622203826904296875</LatitudeDegrees>
              <LongitudeDegrees>-4.85123223625123500823974609375</LongitudeDegrees>
            </Position>
            <AltitudeMeters>38</AltitudeMeters>
            <DistanceMeters>NAN</DistanceMeters>
          </Trackpoint>
          <Trackpoint>
            <Time>2022-07-16T10:17:57.000Z</Time>
            <Position>
              <LatitudeDegrees>43.43486608006060123443603515625</LatitudeDegrees>
              <LongitudeDegrees>-4.851382859051227569580078125</LongitudeDegrees>
            </Position>
            <AltitudeMeters>38.40000152587890625</AltitudeMeters>
            <DistanceMeters>NAN</DistanceMeters>
          </Trackpoint>
          <Trackpoint>
            <Time>2022-07-16T10:17:58.000Z</Time>
            <Position>
              <LatitudeDegrees>43.4348644874989986419677734375</LatitudeDegrees>
              <LongitudeDegrees>-4.85140808857977390289306640625</LongitudeDegrees>
            </Position>
            <AltitudeMeters>38.59999847412109375</AltitudeMeters>
            <DistanceMeters>NAN</DistanceMeters>
          </Trackpoint>
          <Trackpoint>
            <Time>2022-07-16T10:18:01.000Z</Time>
            <Position>
              <LatitudeDegrees>43.43486725352704524993896484375</LatitudeDegrees>
              <LongitudeDegrees>-4.85148050822317600250244140625</LongitudeDegrees>
            </Position>
            <AltitudeMeters>38.799999237060546875</AltitudeMeters>
            <DistanceMeters>NAN</DistanceMeters>
          </Trackpoint>
          <Trackpoint>
            <Time>2022-07-16T10:18:03.000Z</Time>
            <Position>
              <LatitudeDegrees>43.43486255966126918792724609375</LatitudeDegrees>
              <LongitudeDegrees>-4.851529709994792938232421875</LongitudeDegrees>
            </Position>
            <AltitudeMeters>39</AltitudeMeters>
            <DistanceMeters>NAN</DistanceMeters>
          </Trackpoint>
          <Trackpoint>
            <Time>2022-07-16T10:18:04.000Z</Time>
            <Position>
              <LatitudeDegrees>43.4348614700138568878173828125</LatitudeDegrees>
              <LongitudeDegrees>-4.8515546880662441253662109375</LongitudeDegrees>
            </Position>
            <AltitudeMeters>39</AltitudeMeters>
            <DistanceMeters>NAN</DistanceMeters>
          </Trackpoint>
          <Trackpoint>
            <Time>2022-07-16T10:18:12.000Z</Time>
            <Position>
              <LatitudeDegrees>43.4348530881106853485107421875</LatitudeDegrees>
              <LongitudeDegrees>-4.85176934860646724700927734375</LongitudeDegrees>
            </Position>
            <AltitudeMeters>39.799999237060546875</AltitudeMeters>
            <DistanceMeters>NAN</DistanceMeters>
          </Trackpoint>
          <Trackpoint>
            <Time>2022-07-16T10:18:17.000Z</Time>
            <Position>
              <LatitudeDegrees>43.43484059907495975494384765625</LatitudeDegrees>
              <LongitudeDegrees>-4.8519084043800830841064453125</LongitudeDegrees>
            </Position>
            <AltitudeMeters>40</AltitudeMeters>
            <DistanceMeters>NAN</DistanceMeters>
          </Trackpoint>
          <Trackpoint>
            <Time>2022-07-16T10:18:20.000Z</Time>
            <Position>
              <LatitudeDegrees>43.43483858741819858551025390625</LatitudeDegrees>
              <LongitudeDegrees>-4.8519895412027835845947265625</LongitudeDegrees>
            </Position>
            <AltitudeMeters>40.200000762939453125</AltitudeMeters>
            <DistanceMeters>NAN</DistanceMeters>
          </Trackpoint>
          <Trackpoint>
            <Time>2022-07-16T10:18:29.000Z</Time>
            <Position>
              <LatitudeDegrees>43.43484110198915004730224609375</LatitudeDegrees>
              <LongitudeDegrees>-4.85222247429192066192626953125</LongitudeDegrees>
            </Position>
            <AltitudeMeters>40.40000152587890625</AltitudeMeters>
            <DistanceMeters>NAN</DistanceMeters>
          </Trackpoint>
          <Trackpoint>
            <Time>2022-07-16T10:18:35.000Z</Time>
            <Position>
              <LatitudeDegrees>43.43484110198915004730224609375</LatitudeDegrees>
              <LongitudeDegrees>-4.85240042209625244140625</LongitudeDegrees>
            </Position>
            <AltitudeMeters>40.59999847412109375</AltitudeMeters>
            <DistanceMeters>NAN</DistanceMeters>
          </Trackpoint>
          <Trackpoint>
            <Time>2022-07-16T10:18:37.000Z</Time>
            <Position>
              <LatitudeDegrees>43.43484294600784778594970703125</LatitudeDegrees>
              <LongitudeDegrees>-4.8524421639740467071533203125</LongitudeDegrees>
            </Position>
            <AltitudeMeters>40.40000152587890625</AltitudeMeters>
            <DistanceMeters>NAN</DistanceMeters>
          </Trackpoint>
          <Trackpoint>
            <Time>2022-07-16T10:18:45.000Z</Time>
            <Position>
              <LatitudeDegrees>43.43483439646661281585693359375</LatitudeDegrees>
              <LongitudeDegrees>-4.85273326747119426727294921875</LongitudeDegrees>
            </Position>
            <AltitudeMeters>41.200000762939453125</AltitudeMeters>
            <DistanceMeters>NAN</DistanceMeters>
          </Trackpoint>
          <Trackpoint>
            <Time>2022-07-16T10:18:53.000Z</Time>
            <Position>
              <LatitudeDegrees>43.43478393740952014923095703125</LatitudeDegrees>
              <LongitudeDegrees>-4.8530248738825321197509765625</LongitudeDegrees>
            </Position>
            <AltitudeMeters>41.59999847412109375</AltitudeMeters>
            <DistanceMeters>NAN</DistanceMeters>
          </Trackpoint>
          <Trackpoint>
            <Time>2022-07-16T10:19:00.000Z</Time>
            <Position>
              <LatitudeDegrees>43.43463641591370105743408203125</LatitudeDegrees>
              <LongitudeDegrees>-4.85327037982642650604248046875</LongitudeDegrees>
            </Position>
            <AltitudeMeters>42</AltitudeMeters>
            <DistanceMeters>NAN</DistanceMeters>
          </Trackpoint>
          <Trackpoint>
            <Time>2022-07-16T10:19:03.000Z</Time>
            <Position>
              <LatitudeDegrees>43.4345520101487636566162109375</LatitudeDegrees>
              <LongitudeDegrees>-4.85334497876465320587158203125</LongitudeDegrees>
            </Position>
            <AltitudeMeters>41.799999237060546875</AltitudeMeters>
            <DistanceMeters>NAN</DistanceMeters>
          </Trackpoint>
          <Trackpoint>
            <Time>2022-07-16T10:19:07.000Z</Time>
            <Position>
              <LatitudeDegrees>43.4344376809895038604736328125</LatitudeDegrees>
              <LongitudeDegrees>-4.85344220884144306182861328125</LongitudeDegrees>
            </Position>
            <AltitudeMeters>41.799999237060546875</AltitudeMeters>
            <DistanceMeters>NAN</DistanceMeters>
          </Trackpoint>
          <Trackpoint>
            <Time>2022-07-16T10:19:09.000Z</Time>
            <Position>
              <LatitudeDegrees>43.43437624163925647735595703125</LatitudeDegrees>
              <LongitudeDegrees>-4.85350138507783412933349609375</LongitudeDegrees>
            </Position>
            <AltitudeMeters>41.799999237060546875</AltitudeMeters>
            <DistanceMeters>NAN</DistanceMeters>
          </Trackpoint>
          <Trackpoint>
            <Time>2022-07-16T10:19:17.000Z</Time>
            <Position>
              <LatitudeDegrees>43.43418798409402370452880859375</LatitudeDegrees>
              <LongitudeDegrees>-4.85379240475594997406005859375</LongitudeDegrees>
            </Position>
            <AltitudeMeters>42</AltitudeMeters>
            <DistanceMeters>NAN</DistanceMeters>
          </Trackpoint>
          <Trackpoint>
            <Time>2022-07-16T10:19:22.000Z</Time>
            <Position>
              <LatitudeDegrees>43.43415177427232265472412109375</LatitudeDegrees>
              <LongitudeDegrees>-4.853979907929897308349609375</LongitudeDegrees>
            </Position>
            <AltitudeMeters>42.200000762939453125</AltitudeMeters>
            <DistanceMeters>NAN</DistanceMeters>
          </Trackpoint>
          <Trackpoint>
            <Time>2022-07-16T10:19:23.000Z</Time>
            <Position>
              <LatitudeDegrees>43.4341456554830074310302734375</LatitudeDegrees>
              <LongitudeDegrees>-4.85402441583573818206787109375</LongitudeDegrees>
            </Position>
            <AltitudeMeters>42.200000762939453125</AltitudeMeters>
            <DistanceMeters>NAN</DistanceMeters>
          </Trackpoint>
          <Trackpoint>
            <Time>2022-07-16T10:19:30.000Z</Time>
            <Position>
              <LatitudeDegrees>43.43411439098417758941650390625</LatitudeDegrees>
              <LongitudeDegrees>-4.8542533256113529205322265625</LongitudeDegrees>
            </Position>
            <AltitudeMeters>42.59999847412109375</AltitudeMeters>
            <DistanceMeters>NAN</DistanceMeters>
          </Trackpoint>
          <Trackpoint>
            <Time>2022-07-16T10:19:31.000Z</Time>
            <Position>
              <LatitudeDegrees>43.43411372043192386627197265625</LatitudeDegrees>
              <LongitudeDegrees>-4.854280985891819000244140625</LongitudeDegrees>
            </Position>
            <AltitudeMeters>42.59999847412109375</AltitudeMeters>
            <DistanceMeters>NAN</DistanceMeters>
          </Trackpoint>
          <Trackpoint>
            <Time>2022-07-16T10:19:38.000Z</Time>
            <Position>
              <LatitudeDegrees>43.4340943582355976104736328125</LatitudeDegrees>
              <LongitudeDegrees>-4.8545074649155139923095703125</LongitudeDegrees>
            </Position>
            <AltitudeMeters>42.799999237060546875</AltitudeMeters>
            <DistanceMeters>NAN</DistanceMeters>
          </Trackpoint>
          <Trackpoint>
            <Time>2022-07-16T10:19:40.000Z</Time>
            <Position>
              <LatitudeDegrees>43.4340856410562992095947265625</LatitudeDegrees>
              <LongitudeDegrees>-4.8545788787305355072021484375</LongitudeDegrees>
            </Position>
            <AltitudeMeters>43.200000762939453125</AltitudeMeters>
            <DistanceMeters>NAN</DistanceMeters>
          </Trackpoint>
          <Trackpoint>
            <Time>2022-07-16T10:19:46.000Z</Time>
            <Position>
              <LatitudeDegrees>43.43407080508768558502197265625</LatitudeDegrees>
              <LongitudeDegrees>-4.85478951595723628997802734375</LongitudeDegrees>
            </Position>
            <AltitudeMeters>44</AltitudeMeters>
            <DistanceMeters>NAN</DistanceMeters>
          </Trackpoint>
          <Trackpoint>
            <Time>2022-07-16T10:19:52.000Z</Time>
            <Position>
              <LatitudeDegrees>43.4340578131377696990966796875</LatitudeDegrees>
              <LongitudeDegrees>-4.85498716123402118682861328125</LongitudeDegrees>
            </Position>
            <AltitudeMeters>44.200000762939453125</AltitudeMeters>
            <DistanceMeters>NAN</DistanceMeters>
          </Trackpoint>
          <Trackpoint>
            <Time>2022-07-16T10:19:53.000Z</Time>
            <Position>
              <LatitudeDegrees>43.4340591542422771453857421875</LatitudeDegrees>
              <LongitudeDegrees>-4.855029322206974029541015625</LongitudeDegrees>
            </Position>
            <AltitudeMeters>44.40000152587890625</AltitudeMeters>
            <DistanceMeters>NAN</DistanceMeters>
          </Trackpoint>
          <Trackpoint>
            <Time>2022-07-16T10:20:02.000Z</Time>
            <Position>
              <LatitudeDegrees>43.43407466076314449310302734375</LatitudeDegrees>
              <LongitudeDegrees>-4.855299890041351318359375</LongitudeDegrees>
            </Position>
            <AltitudeMeters>45.200000762939453125</AltitudeMeters>
            <DistanceMeters>NAN</DistanceMeters>
          </Trackpoint>
          <Trackpoint>
            <Time>2022-07-16T10:20:05.000Z</Time>
            <Position>
              <LatitudeDegrees>43.43409888446331024169921875</LatitudeDegrees>
              <LongitudeDegrees>-4.85542486421763896942138671875</LongitudeDegrees>
            </Position>
            <AltitudeMeters>45.40000152587890625</AltitudeMeters>
            <DistanceMeters>NAN</DistanceMeters>
          </Trackpoint>
          <Trackpoint>
            <Time>2022-07-16T10:20:10.000Z</Time>
            <Position>
              <LatitudeDegrees>43.4341382794082164764404296875</LatitudeDegrees>
              <LongitudeDegrees>-4.85557012259960174560546875</LongitudeDegrees>
            </Position>
            <AltitudeMeters>45.40000152587890625</AltitudeMeters>
            <DistanceMeters>NAN</DistanceMeters>
          </Trackpoint>
          <Trackpoint>
            <Time>2022-07-16T10:20:16.000Z</Time>
            <Position>
              <LatitudeDegrees>43.43419854529201984405517578125</LatitudeDegrees>
              <LongitudeDegrees>-4.85584094189107418060302734375</LongitudeDegrees>
            </Position>
            <AltitudeMeters>45.40000152587890625</AltitudeMeters>
            <DistanceMeters>NAN</DistanceMeters>
          </Trackpoint>
          <Trackpoint>
            <Time>2022-07-16T10:20:21.000Z</Time>
            <Position>
              <LatitudeDegrees>43.43420080840587615966796875</LatitudeDegrees>
              <LongitudeDegrees>-4.8561302013695240020751953125</LongitudeDegrees>
            </Position>
            <AltitudeMeters>44.59999847412109375</AltitudeMeters>
            <DistanceMeters>NAN</DistanceMeters>
          </Trackpoint>
          <Trackpoint>
            <Time>2022-07-16T10:20:23.000Z</Time>
            <Position>
              <LatitudeDegrees>43.43419016338884830474853515625</LatitudeDegrees>
              <LongitudeDegrees>-4.85626355744898319244384765625</LongitudeDegrees>
            </Position>
            <AltitudeMeters>44.40000152587890625</AltitudeMeters>
            <DistanceMeters>NAN</DistanceMeters>
          </Trackpoint>
          <Trackpoint>
            <Time>2022-07-16T10:20:26.000Z</Time>
            <Position>
              <LatitudeDegrees>43.43416669405996799468994140625</LatitudeDegrees>
              <LongitudeDegrees>-4.856468997895717620849609375</LongitudeDegrees>
            </Position>
            <AltitudeMeters>43.59999847412109375</AltitudeMeters>
            <DistanceMeters>NAN</DistanceMeters>
          </Trackpoint>
          <Trackpoint>
            <Time>2022-07-16T10:20:28.000Z</Time>
            <Position>
              <LatitudeDegrees>43.43414138071238994598388671875</LatitudeDegrees>
              <LongitudeDegrees>-4.85660067759454250335693359375</LongitudeDegrees>
            </Position>
            <AltitudeMeters>43.200000762939453125</AltitudeMeters>
            <DistanceMeters>NAN</DistanceMeters>
          </Trackpoint>
          <Trackpoint>
            <Time>2022-07-16T10:20:34.000Z</Time>
            <Position>
              <LatitudeDegrees>43.4340511076152324676513671875</LatitudeDegrees>
              <LongitudeDegrees>-4.857054390013217926025390625</LongitudeDegrees>
            </Position>
            <AltitudeMeters>42.799999237060546875</AltitudeMeters>
            <DistanceMeters>NAN</DistanceMeters>
          </Trackpoint>
          <Trackpoint>
            <Time>2022-07-16T10:20:41.000Z</Time>
            <Position>
              <LatitudeDegrees>43.433966450393199920654296875</LatitudeDegrees>
              <LongitudeDegrees>-4.857509024441242218017578125</LongitudeDegrees>
            </Position>
            <AltitudeMeters>42.59999847412109375</AltitudeMeters>
            <DistanceMeters>NAN</DistanceMeters>
          </Trackpoint>
          <Trackpoint>
            <Time>2022-07-16T10:20:42.000Z</Time>
            <Position>
              <LatitudeDegrees>43.43396401964128017425537109375</LatitudeDegrees>
              <LongitudeDegrees>-4.8575561307370662689208984375</LongitudeDegrees>
            </Position>
            <AltitudeMeters>42.59999847412109375</AltitudeMeters>
            <DistanceMeters>NAN</DistanceMeters>
          </Trackpoint>
          <Trackpoint>
            <Time>2022-07-16T10:20:47.000Z</Time>
            <Position>
              <LatitudeDegrees>43.4339485131204128265380859375</LatitudeDegrees>
              <LongitudeDegrees>-4.8577271215617656707763671875</LongitudeDegrees>
            </Position>
            <AltitudeMeters>43.200000762939453125</AltitudeMeters>
            <DistanceMeters>NAN</DistanceMeters>
          </Trackpoint>
          <Trackpoint>
            <Time>2022-07-16T10:20:53.000Z</Time>
            <Position>
              <LatitudeDegrees>43.433910124003887176513671875</LatitudeDegrees>
              <LongitudeDegrees>-4.85788084566593170166015625</LongitudeDegrees>
            </Position>
            <AltitudeMeters>43.799999237060546875</AltitudeMeters>
            <DistanceMeters>NAN</DistanceMeters>
          </Trackpoint>
          <Trackpoint>
            <Time>2022-07-16T10:20:58.000Z</Time>
            <Position>
              <LatitudeDegrees>43.43383342958986759185791015625</LatitudeDegrees>
              <LongitudeDegrees>-4.85801604576408863067626953125</LongitudeDegrees>
            </Position>
            <AltitudeMeters>44.200000762939453125</AltitudeMeters>
            <DistanceMeters>NAN</DistanceMeters>
          </Trackpoint>
          <Trackpoint>
            <Time>2022-07-16T10:21:00.000Z</Time>
            <Position>
              <LatitudeDegrees>43.43380526639521121978759765625</LatitudeDegrees>
              <LongitudeDegrees>-4.8580610565841197967529296875</LongitudeDegrees>
            </Position>
            <AltitudeMeters>44.40000152587890625</AltitudeMeters>
            <DistanceMeters>NAN</DistanceMeters>
          </Trackpoint>
          <Trackpoint>
            <Time>2022-07-16T10:21:08.000Z</Time>
            <Position>
              <LatitudeDegrees>43.43366713263094425201416015625</LatitudeDegrees>
              <LongitudeDegrees>-4.85821478068828582763671875</LongitudeDegrees>
            </Position>
            <AltitudeMeters>45.200000762939453125</AltitudeMeters>
            <DistanceMeters>NAN</DistanceMeters>
          </Trackpoint>
          <Trackpoint>
            <Time>2022-07-16T10:21:09.000Z</Time>
            <Position>
              <LatitudeDegrees>43.43365472741425037384033203125</LatitudeDegrees>
              <LongitudeDegrees>-4.85823313705623149871826171875</LongitudeDegrees>
            </Position>
            <AltitudeMeters>45.40000152587890625</AltitudeMeters>
            <DistanceMeters>NAN</DistanceMeters>
          </Trackpoint>
          <Trackpoint>
            <Time>2022-07-16T10:21:16.000Z</Time>
            <Position>
              <LatitudeDegrees>43.43355397693812847137451171875</LatitudeDegrees>
              <LongitudeDegrees>-4.8583745397627353668212890625</LongitudeDegrees>
            </Position>
            <AltitudeMeters>45.799999237060546875</AltitudeMeters>
            <DistanceMeters>NAN</DistanceMeters>
          </Trackpoint>
          <Trackpoint>
            <Time>2022-07-16T10:21:18.000Z</Time>
            <Position>
              <LatitudeDegrees>43.43353369273245334625244140625</LatitudeDegrees>
              <LongitudeDegrees>-4.85841770656406879425048828125</LongitudeDegrees>
            </Position>
            <AltitudeMeters>46.200000762939453125</AltitudeMeters>
            <DistanceMeters>NAN</DistanceMeters>
          </Trackpoint>
          <Trackpoint>
            <Time>2022-07-16T10:21:19.000Z</Time>
            <Position>
              <LatitudeDegrees>43.43351877294480800628662109375</LatitudeDegrees>
              <LongitudeDegrees>-4.858437068760395050048828125</LongitudeDegrees>
            </Position>
            <AltitudeMeters>46.40000152587890625</AltitudeMeters>
            <DistanceMeters>NAN</DistanceMeters>
          </Trackpoint>
          <Trackpoint>
            <Time>2022-07-16T10:21:27.000Z</Time>
            <Position>
              <LatitudeDegrees>43.4334330260753631591796875</LatitudeDegrees>
              <LongitudeDegrees>-4.8585855960845947265625</LongitudeDegrees>
            </Position>
            <AltitudeMeters>47</AltitudeMeters>
            <DistanceMeters>NAN</DistanceMeters>
          </Trackpoint>
          <Trackpoint>
            <Time>2022-07-16T10:21:33.000Z</Time>
            <Position>
              <LatitudeDegrees>43.43337594531476497650146484375</LatitudeDegrees>
              <LongitudeDegrees>-4.85869682393968105316162109375</LongitudeDegrees>
            </Position>
            <AltitudeMeters>47.40000152587890625</AltitudeMeters>
            <DistanceMeters>NAN</DistanceMeters>
          </Trackpoint>
          <Trackpoint>
            <Time>2022-07-16T10:21:34.000Z</Time>
            <Position>
              <LatitudeDegrees>43.43336303718388080596923828125</LatitudeDegrees>
              <LongitudeDegrees>-4.85871098935604095458984375</LongitudeDegrees>
            </Position>
            <AltitudeMeters>47.40000152587890625</AltitudeMeters>
            <DistanceMeters>NAN</DistanceMeters>
          </Trackpoint>
          <Trackpoint>
            <Time>2022-07-16T10:21:37.000Z</Time>
            <Position>
              <LatitudeDegrees>43.4333433397114276885986328125</LatitudeDegrees>
              <LongitudeDegrees>-4.8587339557707309722900390625</LongitudeDegrees>
            </Position>
            <AltitudeMeters>47.59999847412109375</AltitudeMeters>
            <DistanceMeters>NAN</DistanceMeters>
          </Trackpoint>
          <Trackpoint>
            <Time>2022-07-16T10:21:38.000Z</Time>
            <Position>
              <LatitudeDegrees>43.4333337843418121337890625</LatitudeDegrees>
              <LongitudeDegrees>-4.85874610953032970428466796875</LongitudeDegrees>
            </Position>
            <AltitudeMeters>47.59999847412109375</AltitudeMeters>
            <DistanceMeters>NAN</DistanceMeters>
          </Trackpoint>
          <Trackpoint>
            <Time>2022-07-16T10:21:39.000Z</Time>
            <Position>
              <LatitudeDegrees>43.43331626616418361663818359375</LatitudeDegrees>
              <LongitudeDegrees>-4.85875801183283329010009765625</LongitudeDegrees>
            </Position>
            <AltitudeMeters>47.799999237060546875</AltitudeMeters>
            <DistanceMeters>NAN</DistanceMeters>
          </Trackpoint>
          <Trackpoint>
            <Time>2022-07-16T10:21:43.000Z</Time>
            <Position>
              <LatitudeDegrees>43.43325398862361907958984375</LatitudeDegrees>
              <LongitudeDegrees>-4.858825318515300750732421875</LongitudeDegrees>
            </Position>
            <AltitudeMeters>48.200000762939453125</AltitudeMeters>
            <DistanceMeters>NAN</DistanceMeters>
          </Trackpoint>
          <Trackpoint>
            <Time>2022-07-16T10:21:45.000Z</Time>
            <Position>
              <LatitudeDegrees>43.4332092292606830596923828125</LatitudeDegrees>
              <LongitudeDegrees>-4.858842752873897552490234375</LongitudeDegrees>
            </Position>
            <AltitudeMeters>48.200000762939453125</AltitudeMeters>
            <DistanceMeters>NAN</DistanceMeters>
          </Trackpoint>
          <Trackpoint>
            <Time>2022-07-16T10:21:50.000Z</Time>
            <Position>
              <LatitudeDegrees>43.433151729404926300048828125</LatitudeDegrees>
              <LongitudeDegrees>-4.85895331017673015594482421875</LongitudeDegrees>
            </Position>
            <AltitudeMeters>48.59999847412109375</AltitudeMeters>
            <DistanceMeters>NAN</DistanceMeters>
          </Trackpoint>
          <Trackpoint>
            <Time>2022-07-16T10:21:52.000Z</Time>
            <Position>
              <LatitudeDegrees>43.43313287012279033660888671875</LatitudeDegrees>
              <LongitudeDegrees>-4.85899572260677814483642578125</LongitudeDegrees>
            </Position>
            <AltitudeMeters>48.59999847412109375</AltitudeMeters>
            <DistanceMeters>NAN</DistanceMeters>
          </Trackpoint>
          <Trackpoint>
            <Time>2022-07-16T10:21:53.000Z</Time>
            <Position>
              <LatitudeDegrees>43.433122225105762481689453125</LatitudeDegrees>
              <LongitudeDegrees>-4.8590186052024364471435546875</LongitudeDegrees>
            </Position>
            <AltitudeMeters>48.59999847412109375</AltitudeMeters>
            <DistanceMeters>NAN</DistanceMeters>
          </Trackpoint>
          <Trackpoint>
            <Time>2022-07-16T10:21:57.000Z</Time>
            <Position>
              <LatitudeDegrees>43.43306900002062320709228515625</LatitudeDegrees>
              <LongitudeDegrees>-4.8590724170207977294921875</LongitudeDegrees>
            </Position>
            <AltitudeMeters>49</AltitudeMeters>
            <DistanceMeters>NAN</DistanceMeters>
          </Trackpoint>
          <Trackpoint>
            <Time>2022-07-16T10:21:58.000Z</Time>
            <Position>
              <LatitudeDegrees>43.43305374495685100555419921875</LatitudeDegrees>
              <LongitudeDegrees>-4.85908691771328449249267578125</LongitudeDegrees>
            </Position>
            <AltitudeMeters>49.200000762939453125</AltitudeMeters>
            <DistanceMeters>NAN</DistanceMeters>
          </Trackpoint>
          <Trackpoint>
            <Time>2022-07-16T10:22:01.000Z</Time>
            <Position>
              <LatitudeDegrees>43.433010242879390716552734375</LatitudeDegrees>
              <LongitudeDegrees>-4.8591527156531810760498046875</LongitudeDegrees>
            </Position>
            <AltitudeMeters>49.200000762939453125</AltitudeMeters>
            <DistanceMeters>NAN</DistanceMeters>
          </Trackpoint>
          <Trackpoint>
            <Time>2022-07-16T10:22:02.000Z</Time>
            <Position>
              <LatitudeDegrees>43.43299540691077709197998046875</LatitudeDegrees>
              <LongitudeDegrees>-4.8591751791536808013916015625</LongitudeDegrees>
            </Position>
            <AltitudeMeters>49.200000762939453125</AltitudeMeters>
            <DistanceMeters>NAN</DistanceMeters>
          </Trackpoint>
          <Trackpoint>
            <Time>2022-07-16T10:22:05.000Z</Time>
            <Position>
              <LatitudeDegrees>43.4329530782997608184814453125</LatitudeDegrees>
              <LongitudeDegrees>-4.85923158936202526092529296875</LongitudeDegrees>
            </Position>
            <AltitudeMeters>49.59999847412109375</AltitudeMeters>
            <DistanceMeters>NAN</DistanceMeters>
          </Trackpoint>
          <Trackpoint>
            <Time>2022-07-16T10:22:08.000Z</Time>
            <Position>
              <LatitudeDegrees>43.432901613414287567138671875</LatitudeDegrees>
              <LongitudeDegrees>-4.85927936621010303497314453125</LongitudeDegrees>
            </Position>
            <AltitudeMeters>49.799999237060546875</AltitudeMeters>
            <DistanceMeters>NAN</DistanceMeters>
          </Trackpoint>
          <Trackpoint>
            <Time>2022-07-16T10:22:16.000Z</Time>
            <Position>
              <LatitudeDegrees>43.432774879038333892822265625</LatitudeDegrees>
              <LongitudeDegrees>-4.85942772589623928070068359375</LongitudeDegrees>
            </Position>
            <AltitudeMeters>50.59999847412109375</AltitudeMeters>
            <DistanceMeters>NAN</DistanceMeters>
          </Trackpoint>
          <Trackpoint>
            <Time>2022-07-16T10:22:25.000Z</Time>
            <Position>
              <LatitudeDegrees>43.432597853243350982666015625</LatitudeDegrees>
              <LongitudeDegrees>-4.85954406671226024627685546875</LongitudeDegrees>
            </Position>
            <AltitudeMeters>51</AltitudeMeters>
            <DistanceMeters>NAN</DistanceMeters>
          </Trackpoint>
          <Trackpoint>
            <Time>2022-07-16T10:22:33.000Z</Time>
            <Position>
              <LatitudeDegrees>43.432447649538516998291015625</LatitudeDegrees>
              <LongitudeDegrees>-4.85957222990691661834716796875</LongitudeDegrees>
            </Position>
            <AltitudeMeters>51.40000152587890625</AltitudeMeters>
            <DistanceMeters>NAN</DistanceMeters>
          </Trackpoint>
          <Trackpoint>
            <Time>2022-07-16T10:22:34.000Z</Time>
            <Position>
              <LatitudeDegrees>43.4324230067431926727294921875</LatitudeDegrees>
              <LongitudeDegrees>-4.85957340337336063385009765625</LongitudeDegrees>
            </Position>
            <AltitudeMeters>51.40000152587890625</AltitudeMeters>
            <DistanceMeters>NAN</DistanceMeters>
          </Trackpoint>
          <Trackpoint>
            <Time>2022-07-16T10:22:40.000Z</Time>
            <Position>
              <LatitudeDegrees>43.43229535035789012908935546875</LatitudeDegrees>
              <LongitudeDegrees>-4.859556220471858978271484375</LongitudeDegrees>
            </Position>
            <AltitudeMeters>51.59999847412109375</AltitudeMeters>
            <DistanceMeters>NAN</DistanceMeters>
          </Trackpoint>
          <Trackpoint>
            <Time>2022-07-16T10:22:43.000Z</Time>
            <Position>
              <LatitudeDegrees>43.432231061160564422607421875</LatitudeDegrees>
              <LongitudeDegrees>-4.85954809002578258514404296875</LongitudeDegrees>
            </Position>
            <AltitudeMeters>51.799999237060546875</AltitudeMeters>
            <DistanceMeters>NAN</DistanceMeters>
          </Trackpoint>
          <Trackpoint>
            <Time>2022-07-16T10:22:50.000Z</Time>
            <Position>
              <LatitudeDegrees>43.43208261765539646148681640625</LatitudeDegrees>
              <LongitudeDegrees>-4.85954515635967254638671875</LongitudeDegrees>
            </Position>
            <AltitudeMeters>52</AltitudeMeters>
            <DistanceMeters>NAN</DistanceMeters>
          </Trackpoint>
          <Trackpoint>
            <Time>2022-07-16T10:22:54.000Z</Time>
            <Position>
              <LatitudeDegrees>43.43200097791850566864013671875</LatitudeDegrees>
              <LongitudeDegrees>-4.8595456592738628387451171875</LongitudeDegrees>
            </Position>
            <AltitudeMeters>52.200000762939453125</AltitudeMeters>
            <DistanceMeters>NAN</DistanceMeters>
          </Trackpoint>
          <Trackpoint>
            <Time>2022-07-16T10:22:55.000Z</Time>
            <Position>
              <LatitudeDegrees>43.431981615722179412841796875</LatitudeDegrees>
              <LongitudeDegrees>-4.8595493473112583160400390625</LongitudeDegrees>
            </Position>
            <AltitudeMeters>52.200000762939453125</AltitudeMeters>
            <DistanceMeters>NAN</DistanceMeters>
          </Trackpoint>
          <Trackpoint>
            <Time>2022-07-16T10:23:01.000Z</Time>
            <Position>
              <LatitudeDegrees>43.43186083249747753143310546875</LatitudeDegrees>
              <LongitudeDegrees>-4.85958027653396129608154296875</LongitudeDegrees>
            </Position>
            <AltitudeMeters>52.59999847412109375</AltitudeMeters>
            <DistanceMeters>NAN</DistanceMeters>
          </Trackpoint>
          <Trackpoint>
            <Time>2022-07-16T10:23:03.000Z</Time>
            <Position>
              <LatitudeDegrees>43.43182026408612728118896484375</LatitudeDegrees>
              <LongitudeDegrees>-4.85960441641509532928466796875</LongitudeDegrees>
            </Position>
            <AltitudeMeters>52.799999237060546875</AltitudeMeters>
            <DistanceMeters>NAN</DistanceMeters>
          </Trackpoint>
          <Trackpoint>
            <Time>2022-07-16T10:23:09.000Z</Time>
            <Position>
              <LatitudeDegrees>43.43170895241200923919677734375</LatitudeDegrees>
              <LongitudeDegrees>-4.85971069894731044769287109375</LongitudeDegrees>
            </Position>
            <AltitudeMeters>52.200000762939453125</AltitudeMeters>
            <DistanceMeters>NAN</DistanceMeters>
          </Trackpoint>
          <Trackpoint>
            <Time>2022-07-16T10:23:11.000Z</Time>
            <Position>
              <LatitudeDegrees>43.4316773526370525360107421875</LatitudeDegrees>
              <LongitudeDegrees>-4.85975663177669048309326171875</LongitudeDegrees>
            </Position>
            <AltitudeMeters>52.200000762939453125</AltitudeMeters>
            <DistanceMeters>NAN</DistanceMeters>
          </Trackpoint>
          <Trackpoint>
            <Time>2022-07-16T10:23:17.000Z</Time>
            <Position>
              <LatitudeDegrees>43.43159680254757404327392578125</LatitudeDegrees>
              <LongitudeDegrees>-4.8599375970661640167236328125</LongitudeDegrees>
            </Position>
            <AltitudeMeters>52</AltitudeMeters>
            <DistanceMeters>NAN</DistanceMeters>
          </Trackpoint>
          <Trackpoint>
            <Time>2022-07-16T10:23:19.000Z</Time>
            <Position>
              <LatitudeDegrees>43.43158389441668987274169921875</LatitudeDegrees>
              <LongitudeDegrees>-4.85999685712158679962158203125</LongitudeDegrees>
            </Position>
            <AltitudeMeters>52</AltitudeMeters>
            <DistanceMeters>NAN</DistanceMeters>
          </Trackpoint>
          <Trackpoint>
            <Time>2022-07-16T10:23:26.000Z</Time>
            <Position>
              <LatitudeDegrees>43.43158372677862644195556640625</LatitudeDegrees>
              <LongitudeDegrees>-4.86025770194828510284423828125</LongitudeDegrees>
            </Position>
            <AltitudeMeters>51.799999237060546875</AltitudeMeters>
            <DistanceMeters>NAN</DistanceMeters>
          </Trackpoint>
          <Trackpoint>
            <Time>2022-07-16T10:23:30.000Z</Time>
            <Position>
              <LatitudeDegrees>43.43158674426376819610595703125</LatitudeDegrees>
              <LongitudeDegrees>-4.86042399890720844268798828125</LongitudeDegrees>
            </Position>
            <AltitudeMeters>51.799999237060546875</AltitudeMeters>
            <DistanceMeters>NAN</DistanceMeters>
          </Trackpoint>
          <Trackpoint>
            <Time>2022-07-16T10:23:34.000Z</Time>
            <Position>
              <LatitudeDegrees>43.4315915219485759735107421875</LatitudeDegrees>
              <LongitudeDegrees>-4.8606225661933422088623046875</LongitudeDegrees>
            </Position>
            <AltitudeMeters>52</AltitudeMeters>
            <DistanceMeters>NAN</DistanceMeters>
          </Trackpoint>
          <Trackpoint>
            <Time>2022-07-16T10:23:39.000Z</Time>
            <Position>
              <LatitudeDegrees>43.43160367570817470550537109375</LatitudeDegrees>
              <LongitudeDegrees>-4.86088785342872142791748046875</LongitudeDegrees>
            </Position>
            <AltitudeMeters>51.799999237060546875</AltitudeMeters>
            <DistanceMeters>NAN</DistanceMeters>
          </Trackpoint>
          <Trackpoint>
            <Time>2022-07-16T10:23:41.000Z</Time>
            <Position>
              <LatitudeDegrees>43.4316002391278743743896484375</LatitudeDegrees>
              <LongitudeDegrees>-4.86100285314023494720458984375</LongitudeDegrees>
            </Position>
            <AltitudeMeters>51.59999847412109375</AltitudeMeters>
            <DistanceMeters>NAN</DistanceMeters>
          </Trackpoint>
          <Trackpoint>
            <Time>2022-07-16T10:23:42.000Z</Time>
            <Position>
              <LatitudeDegrees>43.431594036519527435302734375</LatitudeDegrees>
              <LongitudeDegrees>-4.86106102354824542999267578125</LongitudeDegrees>
            </Position>
            <AltitudeMeters>51.59999847412109375</AltitudeMeters>
            <DistanceMeters>NAN</DistanceMeters>
          </Trackpoint>
          <Trackpoint>
            <Time>2022-07-16T10:23:43.000Z</Time>
            <Position>
              <LatitudeDegrees>43.431582637131214141845703125</LatitudeDegrees>
              <LongitudeDegrees>-4.86112137325108051300048828125</LongitudeDegrees>
            </Position>
            <AltitudeMeters>51.40000152587890625</AltitudeMeters>
            <DistanceMeters>NAN</DistanceMeters>
          </Trackpoint>
          <Trackpoint>
            <Time>2022-07-16T10:23:46.000Z</Time>
            <Position>
              <LatitudeDegrees>43.43151750974357128143310546875</LatitudeDegrees>
              <LongitudeDegrees>-4.86131407320499420166015625</LongitudeDegrees>
            </Position>
            <AltitudeMeters>50.799999237060546875</AltitudeMeters>
            <DistanceMeters>NAN</DistanceMeters>
          </Trackpoint>
          <Trackpoint>
            <Time>2022-07-16T10:23:47.000Z</Time>
            <Position>
              <LatitudeDegrees>43.4314879216253757476806640625</LatitudeDegrees>
              <LongitudeDegrees>-4.8613809607923030853271484375</LongitudeDegrees>
            </Position>
            <AltitudeMeters>50.200000762939453125</AltitudeMeters>
            <DistanceMeters>NAN</DistanceMeters>
          </Trackpoint>
          <Trackpoint>
            <Time>2022-07-16T10:23:48.000Z</Time>
            <Position>
              <LatitudeDegrees>43.43144877813756465911865234375</LatitudeDegrees>
              <LongitudeDegrees>-4.86144005320966243743896484375</LongitudeDegrees>
            </Position>
            <AltitudeMeters>50</AltitudeMeters>
            <DistanceMeters>NAN</DistanceMeters>
          </Trackpoint>
          <Trackpoint>
            <Time>2022-07-16T10:23:50.000Z</Time>
            <Position>
              <LatitudeDegrees>43.43135096132755279541015625</LatitudeDegrees>
              <LongitudeDegrees>-4.8615442402660846710205078125</LongitudeDegrees>
            </Position>
            <AltitudeMeters>49.40000152587890625</AltitudeMeters>
            <DistanceMeters>NAN</DistanceMeters>
          </Trackpoint>
          <Trackpoint>
            <Time>2022-07-16T10:23:51.000Z</Time>
            <Position>
              <LatitudeDegrees>43.4312880970537662506103515625</LatitudeDegrees>
              <LongitudeDegrees>-4.861584641039371490478515625</LongitudeDegrees>
            </Position>
            <AltitudeMeters>49.200000762939453125</AltitudeMeters>
            <DistanceMeters>NAN</DistanceMeters>
          </Trackpoint>
          <Trackpoint>
            <Time>2022-07-16T10:23:54.000Z</Time>
            <Position>
              <LatitudeDegrees>43.43108114786446094512939453125</LatitudeDegrees>
              <LongitudeDegrees>-4.86167541705071926116943359375</LongitudeDegrees>
            </Position>
            <AltitudeMeters>48.40000152587890625</AltitudeMeters>
            <DistanceMeters>NAN</DistanceMeters>
          </Trackpoint>
          <Trackpoint>
            <Time>2022-07-16T10:23:55.000Z</Time>
            <Position>
              <LatitudeDegrees>43.43100772239267826080322265625</LatitudeDegrees>
              <LongitudeDegrees>-4.8617011494934558868408203125</LongitudeDegrees>
            </Position>
            <AltitudeMeters>48</AltitudeMeters>
            <DistanceMeters>NAN</DistanceMeters>
          </Trackpoint>
          <Trackpoint>
            <Time>2022-07-16T10:23:58.000Z</Time>
            <Position>
              <LatitudeDegrees>43.43082432635128498077392578125</LatitudeDegrees>
              <LongitudeDegrees>-4.86177667044103145599365234375</LongitudeDegrees>
            </Position>
            <AltitudeMeters>46.59999847412109375</AltitudeMeters>
            <DistanceMeters>NAN</DistanceMeters>
          </Trackpoint>
          <Trackpoint>
            <Time>2022-07-16T10:23:59.000Z</Time>
            <Position>
              <LatitudeDegrees>43.4307902120053768157958984375</LatitudeDegrees>
              <LongitudeDegrees>-4.861796200275421142578125</LongitudeDegrees>
            </Position>
            <AltitudeMeters>45.59999847412109375</AltitudeMeters>
            <DistanceMeters>NAN</DistanceMeters>
          </Trackpoint>
          <Trackpoint>
            <Time>2022-07-16T10:24:00.000Z</Time>
            <Position>
              <LatitudeDegrees>43.43076900579035282135009765625</LatitudeDegrees>
              <LongitudeDegrees>-4.8618057556450366973876953125</LongitudeDegrees>
            </Position>
            <AltitudeMeters>45</AltitudeMeters>
            <DistanceMeters>NAN</DistanceMeters>
          </Trackpoint>
          <Trackpoint>
            <Time>2022-07-16T10:24:01.000Z</Time>
            <Position>
              <LatitudeDegrees>43.43076515011489391326904296875</LatitudeDegrees>
              <LongitudeDegrees>-4.86180416308343410491943359375</LongitudeDegrees>
            </Position>
            <AltitudeMeters>44.40000152587890625</AltitudeMeters>
            <DistanceMeters>NAN</DistanceMeters>
          </Trackpoint>
          <Trackpoint>
            <Time>2022-07-16T10:24:03.000Z</Time>
            <Position>
              <LatitudeDegrees>43.43076515011489391326904296875</LatitudeDegrees>
              <LongitudeDegrees>-4.86180416308343410491943359375</LongitudeDegrees>
            </Position>
            <AltitudeMeters>43.799999237060546875</AltitudeMeters>
            <DistanceMeters>NAN</DistanceMeters>
          </Trackpoint>
          <Trackpoint>
            <Time>2022-07-16T10:24:43.000Z</Time>
            <Position>
              <LatitudeDegrees>43.43083036132156848907470703125</LatitudeDegrees>
              <LongitudeDegrees>-4.861806929111480712890625</LongitudeDegrees>
            </Position>
            <AltitudeMeters>43.40000152587890625</AltitudeMeters>
            <DistanceMeters>NAN</DistanceMeters>
          </Trackpoint>
          <Trackpoint>
            <Time>2022-07-16T10:24:44.000Z</Time>
            <Position>
              <LatitudeDegrees>43.43085433356463909149169921875</LatitudeDegrees>
              <LongitudeDegrees>-4.8618082702159881591796875</LongitudeDegrees>
            </Position>
            <AltitudeMeters>43.40000152587890625</AltitudeMeters>
            <DistanceMeters>NAN</DistanceMeters>
          </Trackpoint>
          <Trackpoint>
            <Time>2022-07-16T10:24:50.000Z</Time>
            <Position>
              <LatitudeDegrees>43.43105516396462917327880859375</LatitudeDegrees>
              <LongitudeDegrees>-4.8618553765118122100830078125</LongitudeDegrees>
            </Position>
            <AltitudeMeters>43.59999847412109375</AltitudeMeters>
            <DistanceMeters>NAN</DistanceMeters>
          </Trackpoint>
          <Trackpoint>
            <Time>2022-07-16T10:24:51.000Z</Time>
            <Position>
              <LatitudeDegrees>43.43109791167080402374267578125</LatitudeDegrees>
              <LongitudeDegrees>-4.8618726432323455810546875</LongitudeDegrees>
            </Position>
            <AltitudeMeters>43.40000152587890625</AltitudeMeters>
            <DistanceMeters>NAN</DistanceMeters>
          </Trackpoint>
          <Trackpoint>
            <Time>2022-07-16T10:24:54.000Z</Time>
            <Position>
              <LatitudeDegrees>43.43124291859567165374755859375</LatitudeDegrees>
              <LongitudeDegrees>-4.86192285083234310150146484375</LongitudeDegrees>
            </Position>
            <AltitudeMeters>42.59999847412109375</AltitudeMeters>
            <DistanceMeters>NAN</DistanceMeters>
          </Trackpoint>
          <Trackpoint>
            <Time>2022-07-16T10:24:57.000Z</Time>
            <Position>
              <LatitudeDegrees>43.4313846565783023834228515625</LatitudeDegrees>
              <LongitudeDegrees>-4.86201278865337371826171875</LongitudeDegrees>
            </Position>
            <AltitudeMeters>42</AltitudeMeters>
            <DistanceMeters>NAN</DistanceMeters>
          </Trackpoint>
          <Trackpoint>
            <Time>2022-07-16T10:24:59.000Z</Time>
            <Position>
              <LatitudeDegrees>43.43144039623439311981201171875</LatitudeDegrees>
              <LongitudeDegrees>-4.862084873020648956298828125</LongitudeDegrees>
            </Position>
            <AltitudeMeters>41.59999847412109375</AltitudeMeters>
            <DistanceMeters>NAN</DistanceMeters>
          </Trackpoint>
          <Trackpoint>
            <Time>2022-07-16T10:25:00.000Z</Time>
            <Position>
              <LatitudeDegrees>43.43145330436527729034423828125</LatitudeDegrees>
              <LongitudeDegrees>-4.86212234012782573699951171875</LongitudeDegrees>
            </Position>
            <AltitudeMeters>41.40000152587890625</AltitudeMeters>
            <DistanceMeters>NAN</DistanceMeters>
          </Trackpoint>
          <Trackpoint>
            <Time>2022-07-16T10:25:06.000Z</Time>
            <Position>
              <LatitudeDegrees>43.4314617700874805450439453125</LatitudeDegrees>
              <LongitudeDegrees>-4.86235183663666248321533203125</LongitudeDegrees>
            </Position>
            <AltitudeMeters>41.40000152587890625</AltitudeMeters>
            <DistanceMeters>NAN</DistanceMeters>
          </Trackpoint>
          <Trackpoint>
            <Time>2022-07-16T10:25:12.000Z</Time>
            <Position>
              <LatitudeDegrees>43.43145422637462615966796875</LatitudeDegrees>
              <LongitudeDegrees>-4.8625436984002590179443359375</LongitudeDegrees>
            </Position>
            <AltitudeMeters>41.799999237060546875</AltitudeMeters>
            <DistanceMeters>NAN</DistanceMeters>
          </Trackpoint>
          <Trackpoint>
            <Time>2022-07-16T10:25:18.000Z</Time>
            <Position>
              <LatitudeDegrees>43.43138960190117359161376953125</LatitudeDegrees>
              <LongitudeDegrees>-4.86269046552479267120361328125</LongitudeDegrees>
            </Position>
            <AltitudeMeters>42.59999847412109375</AltitudeMeters>
            <DistanceMeters>NAN</DistanceMeters>
          </Trackpoint>
          <Trackpoint>
            <Time>2022-07-16T10:25:19.000Z</Time>
            <Position>
              <LatitudeDegrees>43.43137904070317745208740234375</LatitudeDegrees>
              <LongitudeDegrees>-4.862705804407596588134765625</LongitudeDegrees>
            </Position>
            <AltitudeMeters>42.59999847412109375</AltitudeMeters>
            <DistanceMeters>NAN</DistanceMeters>
          </Trackpoint>
          <Trackpoint>
            <Time>2022-07-16T10:25:26.000Z</Time>
            <Position>
              <LatitudeDegrees>43.431253395974636077880859375</LatitudeDegrees>
              <LongitudeDegrees>-4.86285190097987651824951171875</LongitudeDegrees>
            </Position>
            <AltitudeMeters>43.40000152587890625</AltitudeMeters>
            <DistanceMeters>NAN</DistanceMeters>
          </Trackpoint>
          <Trackpoint>
            <Time>2022-07-16T10:25:32.000Z</Time>
            <Position>
              <LatitudeDegrees>43.43116764910519123077392578125</LatitudeDegrees>
              <LongitudeDegrees>-4.86305675469338893890380859375</LongitudeDegrees>
            </Position>
            <AltitudeMeters>43.200000762939453125</AltitudeMeters>
            <DistanceMeters>NAN</DistanceMeters>
          </Trackpoint>
          <Trackpoint>
            <Time>2022-07-16T10:25:38.000Z</Time>
            <Position>
              <LatitudeDegrees>43.4310968220233917236328125</LatitudeDegrees>
              <LongitudeDegrees>-4.863282144069671630859375</LongitudeDegrees>
            </Position>
            <AltitudeMeters>42.799999237060546875</AltitudeMeters>
            <DistanceMeters>NAN</DistanceMeters>
          </Trackpoint>
          <Trackpoint>
            <Time>2022-07-16T10:25:44.000Z</Time>
            <Position>
              <LatitudeDegrees>43.43100789003074169158935546875</LatitudeDegrees>
              <LongitudeDegrees>-4.863440059125423431396484375</LongitudeDegrees>
            </Position>
            <AltitudeMeters>42.200000762939453125</AltitudeMeters>
            <DistanceMeters>NAN</DistanceMeters>
          </Trackpoint>
          <Trackpoint>
            <Time>2022-07-16T10:25:47.000Z</Time>
            <Position>
              <LatitudeDegrees>43.4309669025242328643798828125</LatitudeDegrees>
              <LongitudeDegrees>-4.86350677907466888427734375</LongitudeDegrees>
            </Position>
            <AltitudeMeters>41.40000152587890625</AltitudeMeters>
            <DistanceMeters>NAN</DistanceMeters>
          </Trackpoint>
          <Trackpoint>
            <Time>2022-07-16T10:25:49.000Z</Time>
            <Position>
              <LatitudeDegrees>43.4309454448521137237548828125</LatitudeDegrees>
              <LongitudeDegrees>-4.86350786872208118438720703125</LongitudeDegrees>
            </Position>
            <AltitudeMeters>40.59999847412109375</AltitudeMeters>
            <DistanceMeters>NAN</DistanceMeters>
          </Trackpoint>
          <Trackpoint>
            <Time>2022-07-16T10:25:50.000Z</Time>
            <Position>
              <LatitudeDegrees>43.4309412539005279541015625</LatitudeDegrees>
              <LongitudeDegrees>-4.86350585706532001495361328125</LongitudeDegrees>
            </Position>
            <AltitudeMeters>40.40000152587890625</AltitudeMeters>
            <DistanceMeters>NAN</DistanceMeters>
          </Trackpoint>
          <Trackpoint>
            <Time>2022-07-16T10:25:52.000Z</Time>
            <Position>
              <LatitudeDegrees>43.4309412539005279541015625</LatitudeDegrees>
              <LongitudeDegrees>-4.86350585706532001495361328125</LongitudeDegrees>
            </Position>
            <AltitudeMeters>40.200000762939453125</AltitudeMeters>
            <DistanceMeters>NAN</DistanceMeters>
          </Trackpoint>
          <Trackpoint>
            <Time>2022-07-16T10:26:04.000Z</Time>
            <Position>
              <LatitudeDegrees>43.430964052677154541015625</LatitudeDegrees>
              <LongitudeDegrees>-4.863566458225250244140625</LongitudeDegrees>
            </Position>
            <AltitudeMeters>40.200000762939453125</AltitudeMeters>
            <DistanceMeters>NAN</DistanceMeters>
          </Trackpoint>
          <Trackpoint>
            <Time>2022-07-16T10:26:05.000Z</Time>
            <Position>
              <LatitudeDegrees>43.43097503297030925750732421875</LatitudeDegrees>
              <LongitudeDegrees>-4.863588251173496246337890625</LongitudeDegrees>
            </Position>
            <AltitudeMeters>40.200000762939453125</AltitudeMeters>
            <DistanceMeters>NAN</DistanceMeters>
          </Trackpoint>
          <Trackpoint>
            <Time>2022-07-16T10:26:11.000Z</Time>
            <Position>
              <LatitudeDegrees>43.43100420199334621429443359375</LatitudeDegrees>
              <LongitudeDegrees>-4.86378698609769344329833984375</LongitudeDegrees>
            </Position>
            <AltitudeMeters>40</AltitudeMeters>
            <DistanceMeters>NAN</DistanceMeters>
          </Trackpoint>
          <Trackpoint>
            <Time>2022-07-16T10:26:16.000Z</Time>
            <Position>
              <LatitudeDegrees>43.4310190379619598388671875</LatitudeDegrees>
              <LongitudeDegrees>-4.8639411292970180511474609375</LongitudeDegrees>
            </Position>
            <AltitudeMeters>40.40000152587890625</AltitudeMeters>
            <DistanceMeters>NAN</DistanceMeters>
          </Trackpoint>
          <Trackpoint>
            <Time>2022-07-16T10:26:22.000Z</Time>
            <Position>
              <LatitudeDegrees>43.43103186227381229400634765625</LatitudeDegrees>
              <LongitudeDegrees>-4.86413265578448772430419921875</LongitudeDegrees>
            </Position>
            <AltitudeMeters>40.40000152587890625</AltitudeMeters>
            <DistanceMeters>NAN</DistanceMeters>
          </Trackpoint>
          <Trackpoint>
            <Time>2022-07-16T10:26:25.000Z</Time>
            <Position>
              <LatitudeDegrees>43.43104460276663303375244140625</LatitudeDegrees>
              <LongitudeDegrees>-4.8642482422292232513427734375</LongitudeDegrees>
            </Position>
            <AltitudeMeters>40.40000152587890625</AltitudeMeters>
            <DistanceMeters>NAN</DistanceMeters>
          </Trackpoint>
          <Trackpoint>
            <Time>2022-07-16T10:26:32.000Z</Time>
            <Position>
              <LatitudeDegrees>43.431064970791339874267578125</LatitudeDegrees>
              <LongitudeDegrees>-4.86448000185191631317138671875</LongitudeDegrees>
            </Position>
            <AltitudeMeters>40</AltitudeMeters>
            <DistanceMeters>NAN</DistanceMeters>
          </Trackpoint>
          <Trackpoint>
            <Time>2022-07-16T10:26:38.000Z</Time>
            <Position>
              <LatitudeDegrees>43.431077040731906890869140625</LatitudeDegrees>
              <LongitudeDegrees>-4.86472047865390777587890625</LongitudeDegrees>
            </Position>
            <AltitudeMeters>40.200000762939453125</AltitudeMeters>
            <DistanceMeters>NAN</DistanceMeters>
          </Trackpoint>
          <Trackpoint>
            <Time>2022-07-16T10:26:46.000Z</Time>
            <Position>
              <LatitudeDegrees>43.431029431521892547607421875</LatitudeDegrees>
              <LongitudeDegrees>-4.86504343338310718536376953125</LongitudeDegrees>
            </Position>
            <AltitudeMeters>40.59999847412109375</AltitudeMeters>
            <DistanceMeters>NAN</DistanceMeters>
          </Trackpoint>
          <Trackpoint>
            <Time>2022-07-16T10:26:52.000Z</Time>
            <Position>
              <LatitudeDegrees>43.43099288642406463623046875</LatitudeDegrees>
              <LongitudeDegrees>-4.8652681522071361541748046875</LongitudeDegrees>
            </Position>
            <AltitudeMeters>40.799999237060546875</AltitudeMeters>
            <DistanceMeters>NAN</DistanceMeters>
          </Trackpoint>
          <Trackpoint>
            <Time>2022-07-16T10:26:53.000Z</Time>
            <Position>
              <LatitudeDegrees>43.43099112622439861297607421875</LatitudeDegrees>
              <LongitudeDegrees>-4.8653036914765834808349609375</LongitudeDegrees>
            </Position>
            <AltitudeMeters>41</AltitudeMeters>
            <DistanceMeters>NAN</DistanceMeters>
          </Trackpoint>
          <Trackpoint>
            <Time>2022-07-16T10:27:01.000Z</Time>
            <Position>
              <LatitudeDegrees>43.43101677484810352325439453125</LatitudeDegrees>
              <LongitudeDegrees>-4.86558607779443264007568359375</LongitudeDegrees>
            </Position>
            <AltitudeMeters>41.40000152587890625</AltitudeMeters>
            <DistanceMeters>NAN</DistanceMeters>
          </Trackpoint>
          <Trackpoint>
            <Time>2022-07-16T10:27:04.000Z</Time>
            <Position>
              <LatitudeDegrees>43.4310356341302394866943359375</LatitudeDegrees>
              <LongitudeDegrees>-4.8656815476715564727783203125</LongitudeDegrees>
            </Position>
            <AltitudeMeters>41.59999847412109375</AltitudeMeters>
            <DistanceMeters>NAN</DistanceMeters>
          </Trackpoint>
          <Trackpoint>
            <Time>2022-07-16T10:27:08.000Z</Time>
            <Position>
              <LatitudeDegrees>43.4310352988541126251220703125</LatitudeDegrees>
              <LongitudeDegrees>-4.86581959761679172515869140625</LongitudeDegrees>
            </Position>
            <AltitudeMeters>42.200000762939453125</AltitudeMeters>
            <DistanceMeters>NAN</DistanceMeters>
          </Trackpoint>
          <Trackpoint>
            <Time>2022-07-16T10:27:12.000Z</Time>
            <Position>
              <LatitudeDegrees>43.43102163635194301605224609375</LatitudeDegrees>
              <LongitudeDegrees>-4.86594884656369686126708984375</LongitudeDegrees>
            </Position>
            <AltitudeMeters>42.59999847412109375</AltitudeMeters>
            <DistanceMeters>NAN</DistanceMeters>
          </Trackpoint>
          <Trackpoint>
            <Time>2022-07-16T10:27:17.000Z</Time>
            <Position>
              <LatitudeDegrees>43.431009985506534576416015625</LatitudeDegrees>
              <LongitudeDegrees>-4.86611933447420597076416015625</LongitudeDegrees>
            </Position>
            <AltitudeMeters>42.59999847412109375</AltitudeMeters>
            <DistanceMeters>NAN</DistanceMeters>
          </Trackpoint>
          <Trackpoint>
            <Time>2022-07-16T10:27:18.000Z</Time>
            <Position>
              <LatitudeDegrees>43.4310088120400905609130859375</LatitudeDegrees>
              <LongitudeDegrees>-4.866153113543987274169921875</LongitudeDegrees>
            </Position>
            <AltitudeMeters>42.59999847412109375</AltitudeMeters>
            <DistanceMeters>NAN</DistanceMeters>
          </Trackpoint>
          <Trackpoint>
            <Time>2022-07-16T10:27:23.000Z</Time>
            <Position>
              <LatitudeDegrees>43.43099364079535007476806640625</LatitudeDegrees>
              <LongitudeDegrees>-4.8663427121937274932861328125</LongitudeDegrees>
            </Position>
            <AltitudeMeters>42.799999237060546875</AltitudeMeters>
            <DistanceMeters>NAN</DistanceMeters>
          </Trackpoint>
          <Trackpoint>
            <Time>2022-07-16T10:27:27.000Z</Time>
            <Position>
              <LatitudeDegrees>43.43095810152590274810791015625</LatitudeDegrees>
              <LongitudeDegrees>-4.86648847348988056182861328125</LongitudeDegrees>
            </Position>
            <AltitudeMeters>42.799999237060546875</AltitudeMeters>
            <DistanceMeters>NAN</DistanceMeters>
          </Trackpoint>
          <Trackpoint>
            <Time>2022-07-16T10:27:32.000Z</Time>
            <Position>
              <LatitudeDegrees>43.430888950824737548828125</LatitudeDegrees>
              <LongitudeDegrees>-4.8666551895439624786376953125</LongitudeDegrees>
            </Position>
            <AltitudeMeters>42.40000152587890625</AltitudeMeters>
            <DistanceMeters>NAN</DistanceMeters>
          </Trackpoint>
          <Trackpoint>
            <Time>2022-07-16T10:27:35.000Z</Time>
            <Position>
              <LatitudeDegrees>43.43082650564610958099365234375</LatitudeDegrees>
              <LongitudeDegrees>-4.86673079431056976318359375</LongitudeDegrees>
            </Position>
            <AltitudeMeters>42.40000152587890625</AltitudeMeters>
            <DistanceMeters>NAN</DistanceMeters>
          </Trackpoint>
          <Trackpoint>
            <Time>2022-07-16T10:27:41.000Z</Time>
            <Position>
              <LatitudeDegrees>43.4306601248681545257568359375</LatitudeDegrees>
              <LongitudeDegrees>-4.866851158440113067626953125</LongitudeDegrees>
            </Position>
            <AltitudeMeters>42</AltitudeMeters>
            <DistanceMeters>NAN</DistanceMeters>
          </Trackpoint>
          <Trackpoint>
            <Time>2022-07-16T10:27:47.000Z</Time>
            <Position>
              <LatitudeDegrees>43.43049324117600917816162109375</LatitudeDegrees>
              <LongitudeDegrees>-4.86693841405212879180908203125</LongitudeDegrees>
            </Position>
            <AltitudeMeters>41.799999237060546875</AltitudeMeters>
            <DistanceMeters>NAN</DistanceMeters>
          </Trackpoint>
          <Trackpoint>
            <Time>2022-07-16T10:27:48.000Z</Time>
            <Position>
              <LatitudeDegrees>43.43042425811290740966796875</LatitudeDegrees>
              <LongitudeDegrees>-4.86697085201740264892578125</LongitudeDegrees>
            </Position>
            <AltitudeMeters>41.799999237060546875</AltitudeMeters>
            <DistanceMeters>NAN</DistanceMeters>
          </Trackpoint>
          <Trackpoint>
            <Time>2022-07-16T10:27:55.000Z</Time>
            <Position>
              <LatitudeDegrees>43.43022149987518787384033203125</LatitudeDegrees>
              <LongitudeDegrees>-4.867083169519901275634765625</LongitudeDegrees>
            </Position>
            <AltitudeMeters>42.200000762939453125</AltitudeMeters>
            <DistanceMeters>NAN</DistanceMeters>
          </Trackpoint>
          <Trackpoint>
            <Time>2022-07-16T10:27:56.000Z</Time>
            <Position>
              <LatitudeDegrees>43.430197276175022125244140625</LatitudeDegrees>
              <LongitudeDegrees>-4.8671034537255764007568359375</LongitudeDegrees>
            </Position>
            <AltitudeMeters>42.200000762939453125</AltitudeMeters>
            <DistanceMeters>NAN</DistanceMeters>
          </Trackpoint>
          <Trackpoint>
            <Time>2022-07-16T10:28:04.000Z</Time>
            <Position>
              <LatitudeDegrees>43.430032990872859954833984375</LatitudeDegrees>
              <LongitudeDegrees>-4.86730855889618396759033203125</LongitudeDegrees>
            </Position>
            <AltitudeMeters>42.200000762939453125</AltitudeMeters>
            <DistanceMeters>NAN</DistanceMeters>
          </Trackpoint>
          <Trackpoint>
            <Time>2022-07-16T10:28:14.000Z</Time>
            <Position>
              <LatitudeDegrees>43.42987683601677417755126953125</LatitudeDegrees>
              <LongitudeDegrees>-4.867552220821380615234375</LongitudeDegrees>
            </Position>
            <AltitudeMeters>43</AltitudeMeters>
            <DistanceMeters>NAN</DistanceMeters>
          </Trackpoint>
          <Trackpoint>
            <Time>2022-07-16T10:28:19.000Z</Time>
            <Position>
              <LatitudeDegrees>43.42978698201477527618408203125</LatitudeDegrees>
              <LongitudeDegrees>-4.86765188165009021759033203125</LongitudeDegrees>
            </Position>
            <AltitudeMeters>43.59999847412109375</AltitudeMeters>
            <DistanceMeters>NAN</DistanceMeters>
          </Trackpoint>
          <Trackpoint>
            <Time>2022-07-16T10:28:23.000Z</Time>
            <Position>
              <LatitudeDegrees>43.429728560149669647216796875</LatitudeDegrees>
              <LongitudeDegrees>-4.8677156679332256317138671875</LongitudeDegrees>
            </Position>
            <AltitudeMeters>44.200000762939453125</AltitudeMeters>
            <DistanceMeters>NAN</DistanceMeters>
          </Trackpoint>
          <Trackpoint>
            <Time>2022-07-16T10:28:31.000Z</Time>
            <Position>
              <LatitudeDegrees>43.4295791946351528167724609375</LatitudeDegrees>
              <LongitudeDegrees>-4.86787517555058002471923828125</LongitudeDegrees>
            </Position>
            <AltitudeMeters>44.59999847412109375</AltitudeMeters>
            <DistanceMeters>NAN</DistanceMeters>
          </Trackpoint>
          <Trackpoint>
            <Time>2022-07-16T10:28:32.000Z</Time>
            <Position>
              <LatitudeDegrees>43.4295567311346530914306640625</LatitudeDegrees>
              <LongitudeDegrees>-4.867899231612682342529296875</LongitudeDegrees>
            </Position>
            <AltitudeMeters>44.59999847412109375</AltitudeMeters>
            <DistanceMeters>NAN</DistanceMeters>
          </Trackpoint>
          <Trackpoint>
            <Time>2022-07-16T10:28:35.000Z</Time>
            <Position>
              <LatitudeDegrees>43.4294890053570270538330078125</LatitudeDegrees>
              <LongitudeDegrees>-4.8679570667445659637451171875</LongitudeDegrees>
            </Position>
            <AltitudeMeters>44.59999847412109375</AltitudeMeters>
            <DistanceMeters>NAN</DistanceMeters>
          </Trackpoint>
          <Trackpoint>
            <Time>2022-07-16T10:28:41.000Z</Time>
            <Position>
              <LatitudeDegrees>43.4293532185256481170654296875</LatitudeDegrees>
              <LongitudeDegrees>-4.8680656962096691131591796875</LongitudeDegrees>
            </Position>
            <AltitudeMeters>44.799999237060546875</AltitudeMeters>
            <DistanceMeters>NAN</DistanceMeters>
          </Trackpoint>
          <Trackpoint>
            <Time>2022-07-16T10:28:49.000Z</Time>
            <Position>
              <LatitudeDegrees>43.4291684813797473907470703125</LatitudeDegrees>
              <LongitudeDegrees>-4.86820072866976261138916015625</LongitudeDegrees>
            </Position>
            <AltitudeMeters>45</AltitudeMeters>
            <DistanceMeters>NAN</DistanceMeters>
          </Trackpoint>
          <Trackpoint>
            <Time>2022-07-16T10:28:54.000Z</Time>
            <Position>
              <LatitudeDegrees>43.42906580306589603424072265625</LatitudeDegrees>
              <LongitudeDegrees>-4.86831204034388065338134765625</LongitudeDegrees>
            </Position>
            <AltitudeMeters>44.59999847412109375</AltitudeMeters>
            <DistanceMeters>NAN</DistanceMeters>
          </Trackpoint>
          <Trackpoint>
            <Time>2022-07-16T10:28:56.000Z</Time>
            <Position>
              <LatitudeDegrees>43.42904560267925262451171875</LatitudeDegrees>
              <LongitudeDegrees>-4.86834238283336162567138671875</LongitudeDegrees>
            </Position>
            <AltitudeMeters>44.40000152587890625</AltitudeMeters>
            <DistanceMeters>NAN</DistanceMeters>
          </Trackpoint>
          <Trackpoint>
            <Time>2022-07-16T10:28:57.000Z</Time>
            <Position>
              <LatitudeDegrees>43.42904350720345973968505859375</LatitudeDegrees>
              <LongitudeDegrees>-4.8683547042310237884521484375</LongitudeDegrees>
            </Position>
            <AltitudeMeters>44.40000152587890625</AltitudeMeters>
            <DistanceMeters>NAN</DistanceMeters>
          </Trackpoint>
          <Trackpoint>
            <Time>2022-07-16T10:29:00.000Z</Time>
            <Position>
              <LatitudeDegrees>43.429043255746364593505859375</LatitudeDegrees>
              <LongitudeDegrees>-4.8683590628206729888916015625</LongitudeDegrees>
            </Position>
            <AltitudeMeters>44.40000152587890625</AltitudeMeters>
            <DistanceMeters>NAN</DistanceMeters>
          </Trackpoint>
          <Trackpoint>
            <Time>2022-07-16T10:30:35.000Z</Time>
            <Position>
              <LatitudeDegrees>43.42906110920011997222900390625</LatitudeDegrees>
              <LongitudeDegrees>-4.86839703284204006195068359375</LongitudeDegrees>
            </Position>
            <AltitudeMeters>44.799999237060546875</AltitudeMeters>
            <DistanceMeters>NAN</DistanceMeters>
          </Trackpoint>
          <Trackpoint>
            <Time>2022-07-16T10:30:36.000Z</Time>
            <Position>
              <LatitudeDegrees>43.42906965874135494232177734375</LatitudeDegrees>
              <LongitudeDegrees>-4.8684225976467132568359375</LongitudeDegrees>
            </Position>
            <AltitudeMeters>44.799999237060546875</AltitudeMeters>
            <DistanceMeters>NAN</DistanceMeters>
          </Trackpoint>
          <Trackpoint>
            <Time>2022-07-16T10:30:41.000Z</Time>
            <Position>
              <LatitudeDegrees>43.42911760322749614715576171875</LatitudeDegrees>
              <LongitudeDegrees>-4.86858327873051166534423828125</LongitudeDegrees>
            </Position>
            <AltitudeMeters>45.200000762939453125</AltitudeMeters>
            <DistanceMeters>NAN</DistanceMeters>
          </Trackpoint>
          <Trackpoint>
            <Time>2022-07-16T10:30:43.000Z</Time>
            <Position>
              <LatitudeDegrees>43.42914442531764507293701171875</LatitudeDegrees>
              <LongitudeDegrees>-4.86864731647074222564697265625</LongitudeDegrees>
            </Position>
            <AltitudeMeters>45.200000762939453125</AltitudeMeters>
            <DistanceMeters>NAN</DistanceMeters>
          </Trackpoint>
          <Trackpoint>
            <Time>2022-07-16T10:30:45.000Z</Time>
            <Position>
              <LatitudeDegrees>43.42917543835937976837158203125</LatitudeDegrees>
              <LongitudeDegrees>-4.8687154613435268402099609375</LongitudeDegrees>
            </Position>
            <AltitudeMeters>45.200000762939453125</AltitudeMeters>
            <DistanceMeters>NAN</DistanceMeters>
          </Trackpoint>
          <Trackpoint>
            <Time>2022-07-16T10:30:49.000Z</Time>
            <Position>
              <LatitudeDegrees>43.42923277057707309722900390625</LatitudeDegrees>
              <LongitudeDegrees>-4.86885434947907924652099609375</LongitudeDegrees>
            </Position>
            <AltitudeMeters>45.59999847412109375</AltitudeMeters>
            <DistanceMeters>NAN</DistanceMeters>
          </Trackpoint>
          <Trackpoint>
            <Time>2022-07-16T10:30:50.000Z</Time>
            <Position>
              <LatitudeDegrees>43.42924601398408412933349609375</LatitudeDegrees>
              <LongitudeDegrees>-4.86888972111046314239501953125</LongitudeDegrees>
            </Position>
            <AltitudeMeters>45.59999847412109375</AltitudeMeters>
            <DistanceMeters>NAN</DistanceMeters>
          </Trackpoint>
          <Trackpoint>
            <Time>2022-07-16T10:30:58.000Z</Time>
            <Position>
              <LatitudeDegrees>43.42936151660978794097900390625</LatitudeDegrees>
              <LongitudeDegrees>-4.8691757954657077789306640625</LongitudeDegrees>
            </Position>
            <AltitudeMeters>45.799999237060546875</AltitudeMeters>
            <DistanceMeters>NAN</DistanceMeters>
          </Trackpoint>
          <Trackpoint>
            <Time>2022-07-16T10:31:02.000Z</Time>
            <Position>
              <LatitudeDegrees>43.42942153103649616241455078125</LatitudeDegrees>
              <LongitudeDegrees>-4.86931107938289642333984375</LongitudeDegrees>
            </Position>
            <AltitudeMeters>46</AltitudeMeters>
            <DistanceMeters>NAN</DistanceMeters>
          </Trackpoint>
          <Trackpoint>
            <Time>2022-07-16T10:31:03.000Z</Time>
            <Position>
              <LatitudeDegrees>43.429436869919300079345703125</LatitudeDegrees>
              <LongitudeDegrees>-4.86934854649007320404052734375</LongitudeDegrees>
            </Position>
            <AltitudeMeters>46</AltitudeMeters>
            <DistanceMeters>NAN</DistanceMeters>
          </Trackpoint>
          <Trackpoint>
            <Time>2022-07-16T10:31:05.000Z</Time>
            <Position>
              <LatitudeDegrees>43.42946981079876422882080078125</LatitudeDegrees>
              <LongitudeDegrees>-4.86943454481661319732666015625</LongitudeDegrees>
            </Position>
            <AltitudeMeters>46</AltitudeMeters>
            <DistanceMeters>NAN</DistanceMeters>
          </Trackpoint>
          <Trackpoint>
            <Time>2022-07-16T10:31:06.000Z</Time>
            <Position>
              <LatitudeDegrees>43.42948221601545810699462890625</LatitudeDegrees>
              <LongitudeDegrees>-4.86946505494415760040283203125</LongitudeDegrees>
            </Position>
            <AltitudeMeters>46.200000762939453125</AltitudeMeters>
            <DistanceMeters>NAN</DistanceMeters>
          </Trackpoint>
          <Trackpoint>
            <Time>2022-07-16T10:31:07.000Z</Time>
            <Position>
              <LatitudeDegrees>43.42949780635535717010498046875</LatitudeDegrees>
              <LongitudeDegrees>-4.86950227059423923492431640625</LongitudeDegrees>
            </Position>
            <AltitudeMeters>46.200000762939453125</AltitudeMeters>
            <DistanceMeters>NAN</DistanceMeters>
          </Trackpoint>
          <Trackpoint>
            <Time>2022-07-16T10:31:13.000Z</Time>
            <Position>
              <LatitudeDegrees>43.42959302477538585662841796875</LatitudeDegrees>
              <LongitudeDegrees>-4.86972724087536334991455078125</LongitudeDegrees>
            </Position>
            <AltitudeMeters>46.59999847412109375</AltitudeMeters>
            <DistanceMeters>NAN</DistanceMeters>
          </Trackpoint>
          <Trackpoint>
            <Time>2022-07-16T10:31:17.000Z</Time>
            <Position>
              <LatitudeDegrees>43.42964566312730312347412109375</LatitudeDegrees>
              <LongitudeDegrees>-4.86986621282994747161865234375</LongitudeDegrees>
            </Position>
            <AltitudeMeters>47</AltitudeMeters>
            <DistanceMeters>NAN</DistanceMeters>
          </Trackpoint>
          <Trackpoint>
            <Time>2022-07-16T10:31:28.000Z</Time>
            <Position>
              <LatitudeDegrees>43.4297793544828891754150390625</LatitudeDegrees>
              <LongitudeDegrees>-4.87022437155246734619140625</LongitudeDegrees>
            </Position>
            <AltitudeMeters>47.59999847412109375</AltitudeMeters>
            <DistanceMeters>NAN</DistanceMeters>
          </Trackpoint>
          <Trackpoint>
            <Time>2022-07-16T10:31:30.000Z</Time>
            <Position>
              <LatitudeDegrees>43.42979787848889827728271484375</LatitudeDegrees>
              <LongitudeDegrees>-4.87027340568602085113525390625</LongitudeDegrees>
            </Position>
            <AltitudeMeters>47.799999237060546875</AltitudeMeters>
            <DistanceMeters>NAN</DistanceMeters>
          </Trackpoint>
          <Trackpoint>
            <Time>2022-07-16T10:31:36.000Z</Time>
            <Position>
              <LatitudeDegrees>43.4298537857830524444580078125</LatitudeDegrees>
              <LongitudeDegrees>-4.8704210110008716583251953125</LongitudeDegrees>
            </Position>
            <AltitudeMeters>48.40000152587890625</AltitudeMeters>
            <DistanceMeters>NAN</DistanceMeters>
          </Trackpoint>
          <Trackpoint>
            <Time>2022-07-16T10:31:40.000Z</Time>
            <Position>
              <LatitudeDegrees>43.42989644967019557952880859375</LatitudeDegrees>
              <LongitudeDegrees>-4.8705254495143890380859375</LongitudeDegrees>
            </Position>
            <AltitudeMeters>48.799999237060546875</AltitudeMeters>
            <DistanceMeters>NAN</DistanceMeters>
          </Trackpoint>
          <Trackpoint>
            <Time>2022-07-16T10:31:45.000Z</Time>
            <Position>
              <LatitudeDegrees>43.42993902973830699920654296875</LatitudeDegrees>
              <LongitudeDegrees>-4.870644472539424896240234375</LongitudeDegrees>
            </Position>
            <AltitudeMeters>49.40000152587890625</AltitudeMeters>
            <DistanceMeters>NAN</DistanceMeters>
          </Trackpoint>
          <Trackpoint>
            <Time>2022-07-16T10:31:48.000Z</Time>
            <Position>
              <LatitudeDegrees>43.42997088097035884857177734375</LatitudeDegrees>
              <LongitudeDegrees>-4.870723597705364227294921875</LongitudeDegrees>
            </Position>
            <AltitudeMeters>49.40000152587890625</AltitudeMeters>
            <DistanceMeters>NAN</DistanceMeters>
          </Trackpoint>
          <Trackpoint>
            <Time>2022-07-16T10:31:50.000Z</Time>
            <Position>
              <LatitudeDegrees>43.429987728595733642578125</LatitudeDegrees>
              <LongitudeDegrees>-4.87077129073441028594970703125</LongitudeDegrees>
            </Position>
            <AltitudeMeters>50</AltitudeMeters>
            <DistanceMeters>NAN</DistanceMeters>
          </Trackpoint>
          <Trackpoint>
            <Time>2022-07-16T10:31:56.000Z</Time>
            <Position>
              <LatitudeDegrees>43.43004162423312664031982421875</LatitudeDegrees>
              <LongitudeDegrees>-4.87091462127864360809326171875</LongitudeDegrees>
            </Position>
            <AltitudeMeters>50.40000152587890625</AltitudeMeters>
            <DistanceMeters>NAN</DistanceMeters>
          </Trackpoint>
          <Trackpoint>
            <Time>2022-07-16T10:32:05.000Z</Time>
            <Position>
              <LatitudeDegrees>43.43012896366417407989501953125</LatitudeDegrees>
              <LongitudeDegrees>-4.871122576296329498291015625</LongitudeDegrees>
            </Position>
            <AltitudeMeters>51</AltitudeMeters>
            <DistanceMeters>NAN</DistanceMeters>
          </Trackpoint>
          <Trackpoint>
            <Time>2022-07-16T10:32:08.000Z</Time>
            <Position>
              <LatitudeDegrees>43.430158384144306182861328125</LatitudeDegrees>
              <LongitudeDegrees>-4.87119340337812900543212890625</LongitudeDegrees>
            </Position>
            <AltitudeMeters>51.200000762939453125</AltitudeMeters>
            <DistanceMeters>NAN</DistanceMeters>
          </Trackpoint>
          <Trackpoint>
            <Time>2022-07-16T10:32:15.000Z</Time>
            <Position>
              <LatitudeDegrees>43.4302175603806972503662109375</LatitudeDegrees>
              <LongitudeDegrees>-4.87135500647127628326416015625</LongitudeDegrees>
            </Position>
            <AltitudeMeters>52</AltitudeMeters>
            <DistanceMeters>NAN</DistanceMeters>
          </Trackpoint>
          <Trackpoint>
            <Time>2022-07-16T10:32:19.000Z</Time>
            <Position>
              <LatitudeDegrees>43.4302453882992267608642578125</LatitudeDegrees>
              <LongitudeDegrees>-4.87143597565591335296630859375</LongitudeDegrees>
            </Position>
            <AltitudeMeters>52.40000152587890625</AltitudeMeters>
            <DistanceMeters>NAN</DistanceMeters>
          </Trackpoint>
          <Trackpoint>
            <Time>2022-07-16T10:32:23.000Z</Time>
            <Position>
              <LatitudeDegrees>43.43028117902576923370361328125</LatitudeDegrees>
              <LongitudeDegrees>-4.87151862122118473052978515625</LongitudeDegrees>
            </Position>
            <AltitudeMeters>53</AltitudeMeters>
            <DistanceMeters>NAN</DistanceMeters>
          </Trackpoint>
          <Trackpoint>
            <Time>2022-07-16T10:32:24.000Z</Time>
            <Position>
              <LatitudeDegrees>43.43028972856700420379638671875</LatitudeDegrees>
              <LongitudeDegrees>-4.87154091708362102508544921875</LongitudeDegrees>
            </Position>
            <AltitudeMeters>53.200000762939453125</AltitudeMeters>
            <DistanceMeters>NAN</DistanceMeters>
          </Trackpoint>
          <Trackpoint>
            <Time>2022-07-16T10:32:29.000Z</Time>
            <Position>
              <LatitudeDegrees>43.43033172190189361572265625</LatitudeDegrees>
              <LongitudeDegrees>-4.87164652906358242034912109375</LongitudeDegrees>
            </Position>
            <AltitudeMeters>53.799999237060546875</AltitudeMeters>
            <DistanceMeters>NAN</DistanceMeters>
          </Trackpoint>
          <Trackpoint>
            <Time>2022-07-16T10:32:31.000Z</Time>
            <Position>
              <LatitudeDegrees>43.43034571968019008636474609375</LatitudeDegrees>
              <LongitudeDegrees>-4.87168357707560062408447265625</LongitudeDegrees>
            </Position>
            <AltitudeMeters>54</AltitudeMeters>
            <DistanceMeters>NAN</DistanceMeters>
          </Trackpoint>
          <Trackpoint>
            <Time>2022-07-16T10:32:32.000Z</Time>
            <Position>
              <LatitudeDegrees>43.43035493977367877960205078125</LatitudeDegrees>
              <LongitudeDegrees>-4.87170201726257801055908203125</LongitudeDegrees>
            </Position>
            <AltitudeMeters>54.40000152587890625</AltitudeMeters>
            <DistanceMeters>NAN</DistanceMeters>
          </Trackpoint>
          <Trackpoint>
            <Time>2022-07-16T10:32:42.000Z</Time>
            <Position>
              <LatitudeDegrees>43.4304307959973812103271484375</LatitudeDegrees>
              <LongitudeDegrees>-4.8718982376158237457275390625</LongitudeDegrees>
            </Position>
            <AltitudeMeters>55.40000152587890625</AltitudeMeters>
            <DistanceMeters>NAN</DistanceMeters>
          </Trackpoint>
          <Trackpoint>
            <Time>2022-07-16T10:32:43.000Z</Time>
            <Position>
              <LatitudeDegrees>43.43043942935764789581298828125</LatitudeDegrees>
              <LongitudeDegrees>-4.8719175159931182861328125</LongitudeDegrees>
            </Position>
            <AltitudeMeters>55.59999847412109375</AltitudeMeters>
            <DistanceMeters>NAN</DistanceMeters>
          </Trackpoint>
          <Trackpoint>
            <Time>2022-07-16T10:32:54.000Z</Time>
            <Position>
              <LatitudeDegrees>43.430541269481182098388671875</LatitudeDegrees>
              <LongitudeDegrees>-4.87214474938809871673583984375</LongitudeDegrees>
            </Position>
            <AltitudeMeters>56.40000152587890625</AltitudeMeters>
            <DistanceMeters>NAN</DistanceMeters>
          </Trackpoint>
          <Trackpoint>
            <Time>2022-07-16T10:32:55.000Z</Time>
            <Position>
              <LatitudeDegrees>43.4305491484701633453369140625</LatitudeDegrees>
              <LongitudeDegrees>-4.872165285050868988037109375</LongitudeDegrees>
            </Position>
            <AltitudeMeters>56.40000152587890625</AltitudeMeters>
            <DistanceMeters>NAN</DistanceMeters>
          </Trackpoint>
          <Trackpoint>
            <Time>2022-07-16T10:33:03.000Z</Time>
            <Position>
              <LatitudeDegrees>43.43064143322408199310302734375</LatitudeDegrees>
              <LongitudeDegrees>-4.87235312350094318389892578125</LongitudeDegrees>
            </Position>
            <AltitudeMeters>56.799999237060546875</AltitudeMeters>
            <DistanceMeters>NAN</DistanceMeters>
          </Trackpoint>
          <Trackpoint>
            <Time>2022-07-16T10:33:05.000Z</Time>
            <Position>
              <LatitudeDegrees>43.4306825883686542510986328125</LatitudeDegrees>
              <LongitudeDegrees>-4.87239964306354522705078125</LongitudeDegrees>
            </Position>
            <AltitudeMeters>56.799999237060546875</AltitudeMeters>
            <DistanceMeters>NAN</DistanceMeters>
          </Trackpoint>
          <Trackpoint>
            <Time>2022-07-16T10:33:12.000Z</Time>
            <Position>
              <LatitudeDegrees>43.43087327666580677032470703125</LatitudeDegrees>
              <LongitudeDegrees>-4.87249393947422504425048828125</LongitudeDegrees>
            </Position>
            <AltitudeMeters>57.40000152587890625</AltitudeMeters>
            <DistanceMeters>NAN</DistanceMeters>
          </Trackpoint>
          <Trackpoint>
            <Time>2022-07-16T10:33:20.000Z</Time>
            <Position>
              <LatitudeDegrees>43.43117837794125080108642578125</LatitudeDegrees>
              <LongitudeDegrees>-4.8724789358675479888916015625</LongitudeDegrees>
            </Position>
            <AltitudeMeters>57.200000762939453125</AltitudeMeters>
            <DistanceMeters>NAN</DistanceMeters>
          </Trackpoint>
          <Trackpoint>
            <Time>2022-07-16T10:33:22.000Z</Time>
            <Position>
              <LatitudeDegrees>43.4312765300273895263671875</LatitudeDegrees>
              <LongitudeDegrees>-4.87246208824217319488525390625</LongitudeDegrees>
            </Position>
            <AltitudeMeters>57.200000762939453125</AltitudeMeters>
            <DistanceMeters>NAN</DistanceMeters>
          </Trackpoint>
          <Trackpoint>
            <Time>2022-07-16T10:33:25.000Z</Time>
            <Position>
              <LatitudeDegrees>43.431433103978633880615234375</LatitudeDegrees>
              <LongitudeDegrees>-4.87240039743483066558837890625</LongitudeDegrees>
            </Position>
            <AltitudeMeters>57</AltitudeMeters>
            <DistanceMeters>NAN</DistanceMeters>
          </Trackpoint>
          <Trackpoint>
            <Time>2022-07-16T10:33:26.000Z</Time>
            <Position>
              <LatitudeDegrees>43.43147627077996730804443359375</LatitudeDegrees>
              <LongitudeDegrees>-4.87237424589693546295166015625</LongitudeDegrees>
            </Position>
            <AltitudeMeters>56.799999237060546875</AltitudeMeters>
            <DistanceMeters>NAN</DistanceMeters>
          </Trackpoint>
          <Trackpoint>
            <Time>2022-07-16T10:33:27.000Z</Time>
            <Position>
              <LatitudeDegrees>43.43154198490083217620849609375</LatitudeDegrees>
              <LongitudeDegrees>-4.87232864834368228912353515625</LongitudeDegrees>
            </Position>
            <AltitudeMeters>56.200000762939453125</AltitudeMeters>
            <DistanceMeters>NAN</DistanceMeters>
          </Trackpoint>
          <Trackpoint>
            <Time>2022-07-16T10:33:29.000Z</Time>
            <Position>
              <LatitudeDegrees>43.43165346421301364898681640625</LatitudeDegrees>
              <LongitudeDegrees>-4.87222538329660892486572265625</LongitudeDegrees>
            </Position>
            <AltitudeMeters>55.40000152587890625</AltitudeMeters>
            <DistanceMeters>NAN</DistanceMeters>
          </Trackpoint>
          <Trackpoint>
            <Time>2022-07-16T10:33:30.000Z</Time>
            <Position>
              <LatitudeDegrees>43.4317056834697723388671875</LatitudeDegrees>
              <LongitudeDegrees>-4.87215933389961719512939453125</LongitudeDegrees>
            </Position>
            <AltitudeMeters>55</AltitudeMeters>
            <DistanceMeters>NAN</DistanceMeters>
          </Trackpoint>
          <Trackpoint>
            <Time>2022-07-16T10:33:31.000Z</Time>
            <Position>
              <LatitudeDegrees>43.43174616806209087371826171875</LatitudeDegrees>
              <LongitudeDegrees>-4.8721020855009555816650390625</LongitudeDegrees>
            </Position>
            <AltitudeMeters>55</AltitudeMeters>
            <DistanceMeters>NAN</DistanceMeters>
          </Trackpoint>
          <Trackpoint>
            <Time>2022-07-16T10:33:35.000Z</Time>
            <Position>
              <LatitudeDegrees>43.431934006512165069580078125</LatitudeDegrees>
              <LongitudeDegrees>-4.87177996896207332611083984375</LongitudeDegrees>
            </Position>
            <AltitudeMeters>54.59999847412109375</AltitudeMeters>
            <DistanceMeters>NAN</DistanceMeters>
          </Trackpoint>
          <Trackpoint>
            <Time>2022-07-16T10:33:37.000Z</Time>
            <Position>
              <LatitudeDegrees>43.4320491738617420196533203125</LatitudeDegrees>
              <LongitudeDegrees>-4.8715961538255214691162109375</LongitudeDegrees>
            </Position>
            <AltitudeMeters>54.200000762939453125</AltitudeMeters>
            <DistanceMeters>NAN</DistanceMeters>
          </Trackpoint>
          <Trackpoint>
            <Time>2022-07-16T10:33:40.000Z</Time>
            <Position>
              <LatitudeDegrees>43.432197533547878265380859375</LatitudeDegrees>
              <LongitudeDegrees>-4.8713560961186885833740234375</LongitudeDegrees>
            </Position>
            <AltitudeMeters>53.40000152587890625</AltitudeMeters>
            <DistanceMeters>NAN</DistanceMeters>
          </Trackpoint>
          <Trackpoint>
            <Time>2022-07-16T10:33:41.000Z</Time>
            <Position>
              <LatitudeDegrees>43.432250507175922393798828125</LatitudeDegrees>
              <LongitudeDegrees>-4.8712672479450702667236328125</LongitudeDegrees>
            </Position>
            <AltitudeMeters>53</AltitudeMeters>
            <DistanceMeters>NAN</DistanceMeters>
          </Trackpoint>
          <Trackpoint>
            <Time>2022-07-16T10:33:43.000Z</Time>
            <Position>
              <LatitudeDegrees>43.43237414024770259857177734375</LatitudeDegrees>
              <LongitudeDegrees>-4.87107756547629833221435546875</LongitudeDegrees>
            </Position>
            <AltitudeMeters>52</AltitudeMeters>
            <DistanceMeters>NAN</DistanceMeters>
          </Trackpoint>
          <Trackpoint>
            <Time>2022-07-16T10:33:46.000Z</Time>
            <Position>
              <LatitudeDegrees>43.432558290660381317138671875</LatitudeDegrees>
              <LongitudeDegrees>-4.87083013169467449188232421875</LongitudeDegrees>
            </Position>
            <AltitudeMeters>50.59999847412109375</AltitudeMeters>
            <DistanceMeters>NAN</DistanceMeters>
          </Trackpoint>
          <Trackpoint>
            <Time>2022-07-16T10:33:51.000Z</Time>
            <Position>
              <LatitudeDegrees>43.43289163894951343536376953125</LatitudeDegrees>
              <LongitudeDegrees>-4.87040273845195770263671875</LongitudeDegrees>
            </Position>
            <AltitudeMeters>49.40000152587890625</AltitudeMeters>
            <DistanceMeters>NAN</DistanceMeters>
          </Trackpoint>
          <Trackpoint>
            <Time>2022-07-16T10:33:52.000Z</Time>
            <Position>
              <LatitudeDegrees>43.43295349739491939544677734375</LatitudeDegrees>
              <LongitudeDegrees>-4.87031749449670314788818359375</LongitudeDegrees>
            </Position>
            <AltitudeMeters>49</AltitudeMeters>
            <DistanceMeters>NAN</DistanceMeters>
          </Trackpoint>
          <Trackpoint>
            <Time>2022-07-16T10:33:55.000Z</Time>
            <Position>
              <LatitudeDegrees>43.433152399957180023193359375</LatitudeDegrees>
              <LongitudeDegrees>-4.87009822390973567962646484375</LongitudeDegrees>
            </Position>
            <AltitudeMeters>48.200000762939453125</AltitudeMeters>
            <DistanceMeters>NAN</DistanceMeters>
          </Trackpoint>
          <Trackpoint>
            <Time>2022-07-16T10:33:57.000Z</Time>
            <Position>
              <LatitudeDegrees>43.43329464085400104522705078125</LatitudeDegrees>
              <LongitudeDegrees>-4.86999613232910633087158203125</LongitudeDegrees>
            </Position>
            <AltitudeMeters>47.59999847412109375</AltitudeMeters>
            <DistanceMeters>NAN</DistanceMeters>
          </Trackpoint>
          <Trackpoint>
            <Time>2022-07-16T10:33:58.000Z</Time>
            <Position>
              <LatitudeDegrees>43.43336873687803745269775390625</LatitudeDegrees>
              <LongitudeDegrees>-4.8699487745761871337890625</LongitudeDegrees>
            </Position>
            <AltitudeMeters>46.59999847412109375</AltitudeMeters>
            <DistanceMeters>NAN</DistanceMeters>
          </Trackpoint>
          <Trackpoint>
            <Time>2022-07-16T10:34:00.000Z</Time>
            <Position>
              <LatitudeDegrees>43.4334979020059108734130859375</LatitudeDegrees>
              <LongitudeDegrees>-4.86987291835248470306396484375</LongitudeDegrees>
            </Position>
            <AltitudeMeters>45.200000762939453125</AltitudeMeters>
            <DistanceMeters>NAN</DistanceMeters>
          </Trackpoint>
          <Trackpoint>
            <Time>2022-07-16T10:34:01.000Z</Time>
            <Position>
              <LatitudeDegrees>43.4335951320827007293701171875</LatitudeDegrees>
              <LongitudeDegrees>-4.86985464580357074737548828125</LongitudeDegrees>
            </Position>
            <AltitudeMeters>44.799999237060546875</AltitudeMeters>
            <DistanceMeters>NAN</DistanceMeters>
          </Trackpoint>
          <Trackpoint>
            <Time>2022-07-16T10:34:02.000Z</Time>
            <Position>
              <LatitudeDegrees>43.43367853201925754547119140625</LatitudeDegrees>
              <LongitudeDegrees>-4.8698617704212665557861328125</LongitudeDegrees>
            </Position>
            <AltitudeMeters>44.40000152587890625</AltitudeMeters>
            <DistanceMeters>NAN</DistanceMeters>
          </Trackpoint>
          <Trackpoint>
            <Time>2022-07-16T10:34:03.000Z</Time>
            <Position>
              <LatitudeDegrees>43.43375816009938716888427734375</LatitudeDegrees>
              <LongitudeDegrees>-4.86988415010273456573486328125</LongitudeDegrees>
            </Position>
            <AltitudeMeters>44.200000762939453125</AltitudeMeters>
            <DistanceMeters>NAN</DistanceMeters>
          </Trackpoint>
          <Trackpoint>
            <Time>2022-07-16T10:34:04.000Z</Time>
            <Position>
              <LatitudeDegrees>43.4338375367224216461181640625</LatitudeDegrees>
              <LongitudeDegrees>-4.86992220394313335418701171875</LongitudeDegrees>
            </Position>
            <AltitudeMeters>44</AltitudeMeters>
            <DistanceMeters>NAN</DistanceMeters>
          </Trackpoint>
          <Trackpoint>
            <Time>2022-07-16T10:34:06.000Z</Time>
            <Position>
              <LatitudeDegrees>43.433969132602214813232421875</LatitudeDegrees>
              <LongitudeDegrees>-4.8700448311865329742431640625</LongitudeDegrees>
            </Position>
            <AltitudeMeters>43.59999847412109375</AltitudeMeters>
            <DistanceMeters>NAN</DistanceMeters>
          </Trackpoint>
          <Trackpoint>
            <Time>2022-07-16T10:34:07.000Z</Time>
            <Position>
              <LatitudeDegrees>43.43401615507900714874267578125</LatitudeDegrees>
              <LongitudeDegrees>-4.870128817856311798095703125</LongitudeDegrees>
            </Position>
            <AltitudeMeters>43.59999847412109375</AltitudeMeters>
            <DistanceMeters>NAN</DistanceMeters>
          </Trackpoint>
          <Trackpoint>
            <Time>2022-07-16T10:34:08.000Z</Time>
            <Position>
              <LatitudeDegrees>43.43405404128134250640869140625</LatitudeDegrees>
              <LongitudeDegrees>-4.870226718485355377197265625</LongitudeDegrees>
            </Position>
            <AltitudeMeters>43.40000152587890625</AltitudeMeters>
            <DistanceMeters>NAN</DistanceMeters>
          </Trackpoint>
          <Trackpoint>
            <Time>2022-07-16T10:34:10.000Z</Time>
            <Position>
              <LatitudeDegrees>43.434111960232257843017578125</LatitudeDegrees>
              <LongitudeDegrees>-4.8704369366168975830078125</LongitudeDegrees>
            </Position>
            <AltitudeMeters>43</AltitudeMeters>
            <DistanceMeters>NAN</DistanceMeters>
          </Trackpoint>
          <Trackpoint>
            <Time>2022-07-16T10:34:11.000Z</Time>
            <Position>
              <LatitudeDegrees>43.43413174152374267578125</LatitudeDegrees>
              <LongitudeDegrees>-4.8705453984439373016357421875</LongitudeDegrees>
            </Position>
            <AltitudeMeters>42.799999237060546875</AltitudeMeters>
            <DistanceMeters>NAN</DistanceMeters>
          </Trackpoint>
          <Trackpoint>
            <Time>2022-07-16T10:34:15.000Z</Time>
            <Position>
              <LatitudeDegrees>43.4341932646930217742919921875</LatitudeDegrees>
              <LongitudeDegrees>-4.87096943892538547515869140625</LongitudeDegrees>
            </Position>
            <AltitudeMeters>41.799999237060546875</AltitudeMeters>
            <DistanceMeters>NAN</DistanceMeters>
          </Trackpoint>
          <Trackpoint>
            <Time>2022-07-16T10:34:18.000Z</Time>
            <Position>
              <LatitudeDegrees>43.43426275067031383514404296875</LatitudeDegrees>
              <LongitudeDegrees>-4.871337153017520904541015625</LongitudeDegrees>
            </Position>
            <AltitudeMeters>40.799999237060546875</AltitudeMeters>
            <DistanceMeters>NAN</DistanceMeters>
          </Trackpoint>
          <Trackpoint>
            <Time>2022-07-16T10:34:19.000Z</Time>
            <Position>
              <LatitudeDegrees>43.43431253917515277862548828125</LatitudeDegrees>
              <LongitudeDegrees>-4.87143932841718196868896484375</LongitudeDegrees>
            </Position>
            <AltitudeMeters>40.40000152587890625</AltitudeMeters>
            <DistanceMeters>NAN</DistanceMeters>
          </Trackpoint>
          <Trackpoint>
            <Time>2022-07-16T10:34:20.000Z</Time>
            <Position>
              <LatitudeDegrees>43.4343729726970195770263671875</LatitudeDegrees>
              <LongitudeDegrees>-4.87153219990432262420654296875</LongitudeDegrees>
            </Position>
            <AltitudeMeters>40</AltitudeMeters>
            <DistanceMeters>NAN</DistanceMeters>
          </Trackpoint>
          <Trackpoint>
            <Time>2022-07-16T10:34:21.000Z</Time>
            <Position>
              <LatitudeDegrees>43.4344235993921756744384765625</LatitudeDegrees>
              <LongitudeDegrees>-4.8716021887958049774169921875</LongitudeDegrees>
            </Position>
            <AltitudeMeters>39.200000762939453125</AltitudeMeters>
            <DistanceMeters>NAN</DistanceMeters>
          </Trackpoint>
          <Trackpoint>
            <Time>2022-07-16T10:34:22.000Z</Time>
            <Position>
              <LatitudeDegrees>43.43448973260819911956787109375</LatitudeDegrees>
              <LongitudeDegrees>-4.87168290652334690093994140625</LongitudeDegrees>
            </Position>
            <AltitudeMeters>38.799999237060546875</AltitudeMeters>
            <DistanceMeters>NAN</DistanceMeters>
          </Trackpoint>
          <Trackpoint>
            <Time>2022-07-16T10:34:24.000Z</Time>
            <Position>
              <LatitudeDegrees>43.43462769873440265655517578125</LatitudeDegrees>
              <LongitudeDegrees>-4.8718764446675777435302734375</LongitudeDegrees>
            </Position>
            <AltitudeMeters>38.40000152587890625</AltitudeMeters>
            <DistanceMeters>NAN</DistanceMeters>
          </Trackpoint>
          <Trackpoint>
            <Time>2022-07-16T10:34:25.000Z</Time>
            <Position>
              <LatitudeDegrees>43.4346750564873218536376953125</LatitudeDegrees>
              <LongitudeDegrees>-4.8719792068004608154296875</LongitudeDegrees>
            </Position>
            <AltitudeMeters>38</AltitudeMeters>
            <DistanceMeters>NAN</DistanceMeters>
          </Trackpoint>
          <Trackpoint>
            <Time>2022-07-16T10:34:26.000Z</Time>
            <Position>
              <LatitudeDegrees>43.43471000902354717254638671875</LatitudeDegrees>
              <LongitudeDegrees>-4.87208808772265911102294921875</LongitudeDegrees>
            </Position>
            <AltitudeMeters>37.40000152587890625</AltitudeMeters>
            <DistanceMeters>NAN</DistanceMeters>
          </Trackpoint>
          <Trackpoint>
            <Time>2022-07-16T10:34:28.000Z</Time>
            <Position>
              <LatitudeDegrees>43.43475225381553173065185546875</LatitudeDegrees>
              <LongitudeDegrees>-4.87233267165720462799072265625</LongitudeDegrees>
            </Position>
            <AltitudeMeters>36.799999237060546875</AltitudeMeters>
            <DistanceMeters>NAN</DistanceMeters>
          </Trackpoint>
          <Trackpoint>
            <Time>2022-07-16T10:34:30.000Z</Time>
            <Position>
              <LatitudeDegrees>43.434801287949085235595703125</LatitudeDegrees>
              <LongitudeDegrees>-4.872581698000431060791015625</LongitudeDegrees>
            </Position>
            <AltitudeMeters>35.799999237060546875</AltitudeMeters>
            <DistanceMeters>NAN</DistanceMeters>
          </Trackpoint>
          <Trackpoint>
            <Time>2022-07-16T10:34:31.000Z</Time>
            <Position>
              <LatitudeDegrees>43.43483909033238887786865234375</LatitudeDegrees>
              <LongitudeDegrees>-4.8726980388164520263671875</LongitudeDegrees>
            </Position>
            <AltitudeMeters>35.59999847412109375</AltitudeMeters>
            <DistanceMeters>NAN</DistanceMeters>
          </Trackpoint>
          <Trackpoint>
            <Time>2022-07-16T10:34:32.000Z</Time>
            <Position>
              <LatitudeDegrees>43.43489005230367183685302734375</LatitudeDegrees>
              <LongitudeDegrees>-4.87280733883380889892578125</LongitudeDegrees>
            </Position>
            <AltitudeMeters>35</AltitudeMeters>
            <DistanceMeters>NAN</DistanceMeters>
          </Trackpoint>
          <Trackpoint>
            <Time>2022-07-16T10:34:34.000Z</Time>
            <Position>
              <LatitudeDegrees>43.43501351773738861083984375</LatitudeDegrees>
              <LongitudeDegrees>-4.8730080015957355499267578125</LongitudeDegrees>
            </Position>
            <AltitudeMeters>34.200000762939453125</AltitudeMeters>
            <DistanceMeters>NAN</DistanceMeters>
          </Trackpoint>
          <Trackpoint>
            <Time>2022-07-16T10:34:36.000Z</Time>
            <Position>
              <LatitudeDegrees>43.43515927903354167938232421875</LatitudeDegrees>
              <LongitudeDegrees>-4.8731605522334575653076171875</LongitudeDegrees>
            </Position>
            <AltitudeMeters>33.200000762939453125</AltitudeMeters>
            <DistanceMeters>NAN</DistanceMeters>
          </Trackpoint>
          <Trackpoint>
            <Time>2022-07-16T10:34:37.000Z</Time>
            <Position>
              <LatitudeDegrees>43.43522650189697742462158203125</LatitudeDegrees>
              <LongitudeDegrees>-4.87319466657936573028564453125</LongitudeDegrees>
            </Position>
            <AltitudeMeters>32.799999237060546875</AltitudeMeters>
            <DistanceMeters>NAN</DistanceMeters>
          </Trackpoint>
          <Trackpoint>
            <Time>2022-07-16T10:34:38.000Z</Time>
            <Position>
              <LatitudeDegrees>43.4353305213153362274169921875</LatitudeDegrees>
              <LongitudeDegrees>-4.8732239194214344024658203125</LongitudeDegrees>
            </Position>
            <AltitudeMeters>32.40000152587890625</AltitudeMeters>
            <DistanceMeters>NAN</DistanceMeters>
          </Trackpoint>
          <Trackpoint>
            <Time>2022-07-16T10:34:39.000Z</Time>
            <Position>
              <LatitudeDegrees>43.43541140668094158172607421875</LatitudeDegrees>
              <LongitudeDegrees>-4.8732182197272777557373046875</LongitudeDegrees>
            </Position>
            <AltitudeMeters>32</AltitudeMeters>
            <DistanceMeters>NAN</DistanceMeters>
          </Trackpoint>
          <Trackpoint>
            <Time>2022-07-16T10:34:40.000Z</Time>
            <Position>
              <LatitudeDegrees>43.43549489043653011322021484375</LatitudeDegrees>
              <LongitudeDegrees>-4.87319516949355602264404296875</LongitudeDegrees>
            </Position>
            <AltitudeMeters>31.6000003814697265625</AltitudeMeters>
            <DistanceMeters>NAN</DistanceMeters>
          </Trackpoint>
          <Trackpoint>
            <Time>2022-07-16T10:34:42.000Z</Time>
            <Position>
              <LatitudeDegrees>43.435641825199127197265625</LatitudeDegrees>
              <LongitudeDegrees>-4.8730961792171001434326171875</LongitudeDegrees>
            </Position>
            <AltitudeMeters>31.200000762939453125</AltitudeMeters>
            <DistanceMeters>NAN</DistanceMeters>
          </Trackpoint>
          <Trackpoint>
            <Time>2022-07-16T10:34:44.000Z</Time>
            <Position>
              <LatitudeDegrees>43.4357439167797565460205078125</LatitudeDegrees>
              <LongitudeDegrees>-4.8729017190635204315185546875</LongitudeDegrees>
            </Position>
            <AltitudeMeters>30.6000003814697265625</AltitudeMeters>
            <DistanceMeters>NAN</DistanceMeters>
          </Trackpoint>
          <Trackpoint>
            <Time>2022-07-16T10:34:45.000Z</Time>
            <Position>
              <LatitudeDegrees>43.43577300198376178741455078125</LatitudeDegrees>
              <LongitudeDegrees>-4.8727826960384845733642578125</LongitudeDegrees>
            </Position>
            <AltitudeMeters>29.6000003814697265625</AltitudeMeters>
            <DistanceMeters>NAN</DistanceMeters>
          </Trackpoint>
          <Trackpoint>
            <Time>2022-07-16T10:34:47.000Z</Time>
            <Position>
              <LatitudeDegrees>43.43583318404853343963623046875</LatitudeDegrees>
              <LongitudeDegrees>-4.87254607491195201873779296875</LongitudeDegrees>
            </Position>
            <AltitudeMeters>27.6000003814697265625</AltitudeMeters>
            <DistanceMeters>NAN</DistanceMeters>
          </Trackpoint>
          <Trackpoint>
            <Time>2022-07-16T10:34:48.000Z</Time>
            <Position>
              <LatitudeDegrees>43.4358773566782474517822265625</LatitudeDegrees>
              <LongitudeDegrees>-4.87244465388357639312744140625</LongitudeDegrees>
            </Position>
            <AltitudeMeters>27.200000762939453125</AltitudeMeters>
            <DistanceMeters>NAN</DistanceMeters>
          </Trackpoint>
          <Trackpoint>
            <Time>2022-07-16T10:34:49.000Z</Time>
            <Position>
              <LatitudeDegrees>43.43592806719243526458740234375</LatitudeDegrees>
              <LongitudeDegrees>-4.872350357472896575927734375</LongitudeDegrees>
            </Position>
            <AltitudeMeters>26.799999237060546875</AltitudeMeters>
            <DistanceMeters>NAN</DistanceMeters>
          </Trackpoint>
          <Trackpoint>
            <Time>2022-07-16T10:34:50.000Z</Time>
            <Position>
              <LatitudeDegrees>43.43598674051463603973388671875</LatitudeDegrees>
              <LongitudeDegrees>-4.8722653649747371673583984375</LongitudeDegrees>
            </Position>
            <AltitudeMeters>26.6000003814697265625</AltitudeMeters>
            <DistanceMeters>NAN</DistanceMeters>
          </Trackpoint>
          <Trackpoint>
            <Time>2022-07-16T10:34:51.000Z</Time>
            <Position>
              <LatitudeDegrees>43.43605111353099346160888671875</LatitudeDegrees>
              <LongitudeDegrees>-4.8721815459430217742919921875</LongitudeDegrees>
            </Position>
            <AltitudeMeters>26.3999996185302734375</AltitudeMeters>
            <DistanceMeters>NAN</DistanceMeters>
          </Trackpoint>
          <Trackpoint>
            <Time>2022-07-16T10:34:54.000Z</Time>
            <Position>
              <LatitudeDegrees>43.4362481720745563507080078125</LatitudeDegrees>
              <LongitudeDegrees>-4.871947355568408966064453125</LongitudeDegrees>
            </Position>
            <AltitudeMeters>25.3999996185302734375</AltitudeMeters>
            <DistanceMeters>NAN</DistanceMeters>
          </Trackpoint>
          <Trackpoint>
            <Time>2022-07-16T10:34:55.000Z</Time>
            <Position>
              <LatitudeDegrees>43.4363112039864063262939453125</LatitudeDegrees>
              <LongitudeDegrees>-4.8718606866896152496337890625</LongitudeDegrees>
            </Position>
            <AltitudeMeters>24.799999237060546875</AltitudeMeters>
            <DistanceMeters>NAN</DistanceMeters>
          </Trackpoint>
          <Trackpoint>
            <Time>2022-07-16T10:34:56.000Z</Time>
            <Position>
              <LatitudeDegrees>43.4363668598234653472900390625</LatitudeDegrees>
              <LongitudeDegrees>-4.87175867892801761627197265625</LongitudeDegrees>
            </Position>
            <AltitudeMeters>24.3999996185302734375</AltitudeMeters>
            <DistanceMeters>NAN</DistanceMeters>
          </Trackpoint>
          <Trackpoint>
            <Time>2022-07-16T10:34:58.000Z</Time>
            <Position>
              <LatitudeDegrees>43.43645093031227588653564453125</LatitudeDegrees>
              <LongitudeDegrees>-4.87152935005724430084228515625</LongitudeDegrees>
            </Position>
            <AltitudeMeters>22.799999237060546875</AltitudeMeters>
            <DistanceMeters>NAN</DistanceMeters>
          </Trackpoint>
          <Trackpoint>
            <Time>2022-07-16T10:35:00.000Z</Time>
            <Position>
              <LatitudeDegrees>43.436517901718616485595703125</LatitudeDegrees>
              <LongitudeDegrees>-4.8713068105280399322509765625</LongitudeDegrees>
            </Position>
            <AltitudeMeters>21.6000003814697265625</AltitudeMeters>
            <DistanceMeters>NAN</DistanceMeters>
          </Trackpoint>
          <Trackpoint>
            <Time>2022-07-16T10:35:01.000Z</Time>
            <Position>
              <LatitudeDegrees>43.43655872158706188201904296875</LatitudeDegrees>
              <LongitudeDegrees>-4.871193654835224151611328125</LongitudeDegrees>
            </Position>
            <AltitudeMeters>21</AltitudeMeters>
            <DistanceMeters>NAN</DistanceMeters>
          </Trackpoint>
          <Trackpoint>
            <Time>2022-07-16T10:35:02.000Z</Time>
            <Position>
              <LatitudeDegrees>43.4366062469780445098876953125</LatitudeDegrees>
              <LongitudeDegrees>-4.87108091823756694793701171875</LongitudeDegrees>
            </Position>
            <AltitudeMeters>20.3999996185302734375</AltitudeMeters>
            <DistanceMeters>NAN</DistanceMeters>
          </Trackpoint>
          <Trackpoint>
            <Time>2022-07-16T10:35:04.000Z</Time>
            <Position>
              <LatitudeDegrees>43.4367267787456512451171875</LatitudeDegrees>
              <LongitudeDegrees>-4.870872460305690765380859375</LongitudeDegrees>
            </Position>
            <AltitudeMeters>19.6000003814697265625</AltitudeMeters>
            <DistanceMeters>NAN</DistanceMeters>
          </Trackpoint>
          <Trackpoint>
            <Time>2022-07-16T10:35:05.000Z</Time>
            <Position>
              <LatitudeDegrees>43.43678469769656658172607421875</LatitudeDegrees>
              <LongitudeDegrees>-4.87077933736145496368408203125</LongitudeDegrees>
            </Position>
            <AltitudeMeters>19.200000762939453125</AltitudeMeters>
            <DistanceMeters>NAN</DistanceMeters>
          </Trackpoint>
          <Trackpoint>
            <Time>2022-07-16T10:35:06.000Z</Time>
            <Position>
              <LatitudeDegrees>43.43684873543679714202880859375</LatitudeDegrees>
              <LongitudeDegrees>-4.87069400958716869354248046875</LongitudeDegrees>
            </Position>
            <AltitudeMeters>18.799999237060546875</AltitudeMeters>
            <DistanceMeters>NAN</DistanceMeters>
          </Trackpoint>
          <Trackpoint>
            <Time>2022-07-16T10:35:08.000Z</Time>
            <Position>
              <LatitudeDegrees>43.436988294124603271484375</LatitudeDegrees>
              <LongitudeDegrees>-4.8705415427684783935546875</LongitudeDegrees>
            </Position>
            <AltitudeMeters>18.200000762939453125</AltitudeMeters>
            <DistanceMeters>NAN</DistanceMeters>
          </Trackpoint>
          <Trackpoint>
            <Time>2022-07-16T10:35:10.000Z</Time>
            <Position>
              <LatitudeDegrees>43.43711812980473041534423828125</LatitudeDegrees>
              <LongitudeDegrees>-4.87043559551239013671875</LongitudeDegrees>
            </Position>
            <AltitudeMeters>17.200000762939453125</AltitudeMeters>
            <DistanceMeters>NAN</DistanceMeters>
          </Trackpoint>
          <Trackpoint>
            <Time>2022-07-16T10:35:11.000Z</Time>
            <Position>
              <LatitudeDegrees>43.43716070987284183502197265625</LatitudeDegrees>
              <LongitudeDegrees>-4.87040298990905284881591796875</LongitudeDegrees>
            </Position>
            <AltitudeMeters>16.3999996185302734375</AltitudeMeters>
            <DistanceMeters>NAN</DistanceMeters>
          </Trackpoint>
          <Trackpoint>
            <Time>2022-07-16T10:35:12.000Z</Time>
            <Position>
              <LatitudeDegrees>43.43717445619404315948486328125</LatitudeDegrees>
              <LongitudeDegrees>-4.87039125524461269378662109375</LongitudeDegrees>
            </Position>
            <AltitudeMeters>15.6000003814697265625</AltitudeMeters>
            <DistanceMeters>NAN</DistanceMeters>
          </Trackpoint>
          <Trackpoint>
            <Time>2022-07-16T10:35:13.000Z</Time>
            <Position>
              <LatitudeDegrees>43.43717537820339202880859375</LatitudeDegrees>
              <LongitudeDegrees>-4.87039511092007160186767578125</LongitudeDegrees>
            </Position>
            <AltitudeMeters>14.80000019073486328125</AltitudeMeters>
            <DistanceMeters>NAN</DistanceMeters>
          </Trackpoint>
          <Trackpoint>
            <Time>2022-07-16T10:35:14.000Z</Time>
            <Position>
              <LatitudeDegrees>43.43717940151691436767578125</LatitudeDegrees>
              <LongitudeDegrees>-4.8703965358436107635498046875</LongitudeDegrees>
            </Position>
            <AltitudeMeters>14.3999996185302734375</AltitudeMeters>
            <DistanceMeters>NAN</DistanceMeters>
          </Trackpoint>
          <Trackpoint>
            <Time>2022-07-16T10:35:15.000Z</Time>
            <Position>
              <LatitudeDegrees>43.43717940151691436767578125</LatitudeDegrees>
              <LongitudeDegrees>-4.8703965358436107635498046875</LongitudeDegrees>
            </Position>
            <AltitudeMeters>14.19999980926513671875</AltitudeMeters>
            <DistanceMeters>NAN</DistanceMeters>
          </Trackpoint>
          <Trackpoint>
            <Time>2022-07-16T10:36:28.000Z</Time>
            <Position>
              <LatitudeDegrees>43.43724721111357212066650390625</LatitudeDegrees>
              <LongitudeDegrees>-4.87039125524461269378662109375</LongitudeDegrees>
            </Position>
            <AltitudeMeters>15</AltitudeMeters>
            <DistanceMeters>NAN</DistanceMeters>
          </Trackpoint>
          <Trackpoint>
            <Time>2022-07-16T10:36:29.000Z</Time>
            <Position>
              <LatitudeDegrees>43.437270261347293853759765625</LatitudeDegrees>
              <LongitudeDegrees>-4.8703888244926929473876953125</LongitudeDegrees>
            </Position>
            <AltitudeMeters>15</AltitudeMeters>
            <DistanceMeters>NAN</DistanceMeters>
          </Trackpoint>
          <Trackpoint>
            <Time>2022-07-16T10:36:36.000Z</Time>
            <Position>
              <LatitudeDegrees>43.43749648891389369964599609375</LatitudeDegrees>
              <LongitudeDegrees>-4.87037323415279388427734375</LongitudeDegrees>
            </Position>
            <AltitudeMeters>15</AltitudeMeters>
            <DistanceMeters>NAN</DistanceMeters>
          </Trackpoint>
          <Trackpoint>
            <Time>2022-07-16T10:36:43.000Z</Time>
            <Position>
              <LatitudeDegrees>43.43774258159101009368896484375</LatitudeDegrees>
              <LongitudeDegrees>-4.8704035766422748565673828125</LongitudeDegrees>
            </Position>
            <AltitudeMeters>15</AltitudeMeters>
            <DistanceMeters>NAN</DistanceMeters>
          </Trackpoint>
          <Trackpoint>
            <Time>2022-07-16T10:36:53.000Z</Time>
            <Position>
              <LatitudeDegrees>43.4380496107041835784912109375</LatitudeDegrees>
              <LongitudeDegrees>-4.87054397352039813995361328125</LongitudeDegrees>
            </Position>
            <AltitudeMeters>15.3999996185302734375</AltitudeMeters>
            <DistanceMeters>NAN</DistanceMeters>
          </Trackpoint>
          <Trackpoint>
            <Time>2022-07-16T10:36:54.000Z</Time>
            <Position>
              <LatitudeDegrees>43.4380767680704593658447265625</LatitudeDegrees>
              <LongitudeDegrees>-4.870564676821231842041015625</LongitudeDegrees>
            </Position>
            <AltitudeMeters>15.3999996185302734375</AltitudeMeters>
            <DistanceMeters>NAN</DistanceMeters>
          </Trackpoint>
          <Trackpoint>
            <Time>2022-07-16T10:36:59.000Z</Time>
            <Position>
              <LatitudeDegrees>43.438223786652088165283203125</LatitudeDegrees>
              <LongitudeDegrees>-4.870663918554782867431640625</LongitudeDegrees>
            </Position>
            <AltitudeMeters>15.6000003814697265625</AltitudeMeters>
            <DistanceMeters>NAN</DistanceMeters>
          </Trackpoint>
          <Trackpoint>
            <Time>2022-07-16T10:37:01.000Z</Time>
            <Position>
              <LatitudeDegrees>43.4382762573659420013427734375</LatitudeDegrees>
              <LongitudeDegrees>-4.87069920636713504791259765625</LongitudeDegrees>
            </Position>
            <AltitudeMeters>15.6000003814697265625</AltitudeMeters>
            <DistanceMeters>NAN</DistanceMeters>
          </Trackpoint>
          <Trackpoint>
            <Time>2022-07-16T10:37:03.000Z</Time>
            <Position>
              <LatitudeDegrees>43.43832277692854404449462890625</LatitudeDegrees>
              <LongitudeDegrees>-4.87073256634175777435302734375</LongitudeDegrees>
            </Position>
            <AltitudeMeters>15.80000019073486328125</AltitudeMeters>
            <DistanceMeters>NAN</DistanceMeters>
          </Trackpoint>
          <Trackpoint>
            <Time>2022-07-16T10:37:05.000Z</Time>
            <Position>
              <LatitudeDegrees>43.43836904503405094146728515625</LatitudeDegrees>
              <LongitudeDegrees>-4.87076190300285816192626953125</LongitudeDegrees>
            </Position>
            <AltitudeMeters>16</AltitudeMeters>
            <DistanceMeters>NAN</DistanceMeters>
          </Trackpoint>
          <Trackpoint>
            <Time>2022-07-16T10:37:06.000Z</Time>
            <Position>
              <LatitudeDegrees>43.43839167617261409759521484375</LatitudeDegrees>
              <LongitudeDegrees>-4.87077891826629638671875</LongitudeDegrees>
            </Position>
            <AltitudeMeters>16.200000762939453125</AltitudeMeters>
            <DistanceMeters>NAN</DistanceMeters>
          </Trackpoint>
          <Trackpoint>
            <Time>2022-07-16T10:37:09.000Z</Time>
            <Position>
              <LatitudeDegrees>43.43848220072686672210693359375</LatitudeDegrees>
              <LongitudeDegrees>-4.8708126135170459747314453125</LongitudeDegrees>
            </Position>
            <AltitudeMeters>16.3999996185302734375</AltitudeMeters>
            <DistanceMeters>NAN</DistanceMeters>
          </Trackpoint>
          <Trackpoint>
            <Time>2022-07-16T10:37:14.000Z</Time>
            <Position>
              <LatitudeDegrees>43.4386363439261913299560546875</LatitudeDegrees>
              <LongitudeDegrees>-4.8708796687424182891845703125</LongitudeDegrees>
            </Position>
            <AltitudeMeters>16.3999996185302734375</AltitudeMeters>
            <DistanceMeters>NAN</DistanceMeters>
          </Trackpoint>
          <Trackpoint>
            <Time>2022-07-16T10:37:19.000Z</Time>
            <Position>
              <LatitudeDegrees>43.438781015574932098388671875</LatitudeDegrees>
              <LongitudeDegrees>-4.87095116637647151947021484375</LongitudeDegrees>
            </Position>
            <AltitudeMeters>16.799999237060546875</AltitudeMeters>
            <DistanceMeters>NAN</DistanceMeters>
          </Trackpoint>
          <Trackpoint>
            <Time>2022-07-16T10:37:31.000Z</Time>
            <Position>
              <LatitudeDegrees>43.4391261823475360870361328125</LatitudeDegrees>
              <LongitudeDegrees>-4.8711235821247100830078125</LongitudeDegrees>
            </Position>
            <AltitudeMeters>16.6000003814697265625</AltitudeMeters>
            <DistanceMeters>NAN</DistanceMeters>
          </Trackpoint>
          <Trackpoint>
            <Time>2022-07-16T10:37:37.000Z</Time>
            <Position>
              <LatitudeDegrees>43.43932894058525562286376953125</LatitudeDegrees>
              <LongitudeDegrees>-4.8712400905787944793701171875</LongitudeDegrees>
            </Position>
            <AltitudeMeters>16.6000003814697265625</AltitudeMeters>
            <DistanceMeters>NAN</DistanceMeters>
          </Trackpoint>
          <Trackpoint>
            <Time>2022-07-16T10:37:39.000Z</Time>
            <Position>
              <LatitudeDegrees>43.439408652484416961669921875</LatitudeDegrees>
              <LongitudeDegrees>-4.87129298038780689239501953125</LongitudeDegrees>
            </Position>
            <AltitudeMeters>16.6000003814697265625</AltitudeMeters>
            <DistanceMeters>NAN</DistanceMeters>
          </Trackpoint>
          <Trackpoint>
            <Time>2022-07-16T10:37:43.000Z</Time>
            <Position>
              <LatitudeDegrees>43.439528681337833404541015625</LatitudeDegrees>
              <LongitudeDegrees>-4.871406219899654388427734375</LongitudeDegrees>
            </Position>
            <AltitudeMeters>16.3999996185302734375</AltitudeMeters>
            <DistanceMeters>NAN</DistanceMeters>
          </Trackpoint>
          <Trackpoint>
            <Time>2022-07-16T10:37:46.000Z</Time>
            <Position>
              <LatitudeDegrees>43.4396247379481792449951171875</LatitudeDegrees>
              <LongitudeDegrees>-4.87149548716843128204345703125</LongitudeDegrees>
            </Position>
            <AltitudeMeters>16.3999996185302734375</AltitudeMeters>
            <DistanceMeters>NAN</DistanceMeters>
          </Trackpoint>
          <Trackpoint>
            <Time>2022-07-16T10:37:50.000Z</Time>
            <Position>
              <LatitudeDegrees>43.43975021503865718841552734375</LatitudeDegrees>
              <LongitudeDegrees>-4.8716276697814464569091796875</LongitudeDegrees>
            </Position>
            <AltitudeMeters>16.200000762939453125</AltitudeMeters>
            <DistanceMeters>NAN</DistanceMeters>
          </Trackpoint>
          <Trackpoint>
            <Time>2022-07-16T10:37:55.000Z</Time>
            <Position>
              <LatitudeDegrees>43.4399184398353099822998046875</LatitudeDegrees>
              <LongitudeDegrees>-4.87177041359245777130126953125</LongitudeDegrees>
            </Position>
            <AltitudeMeters>15.3999996185302734375</AltitudeMeters>
            <DistanceMeters>NAN</DistanceMeters>
          </Trackpoint>
          <Trackpoint>
            <Time>2022-07-16T10:37:56.000Z</Time>
            <Position>
              <LatitudeDegrees>43.43994316644966602325439453125</LatitudeDegrees>
              <LongitudeDegrees>-4.8717919550836086273193359375</LongitudeDegrees>
            </Position>
            <AltitudeMeters>15.3999996185302734375</AltitudeMeters>
            <DistanceMeters>NAN</DistanceMeters>
          </Trackpoint>
          <Trackpoint>
            <Time>2022-07-16T10:37:58.000Z</Time>
            <Position>
              <LatitudeDegrees>43.4400042705237865447998046875</LatitudeDegrees>
              <LongitudeDegrees>-4.87184518016874790191650390625</LongitudeDegrees>
            </Position>
            <AltitudeMeters>15</AltitudeMeters>
            <DistanceMeters>NAN</DistanceMeters>
          </Trackpoint>
          <Trackpoint>
            <Time>2022-07-16T10:38:06.000Z</Time>
            <Position>
              <LatitudeDegrees>43.44021507538855075836181640625</LatitudeDegrees>
              <LongitudeDegrees>-4.87202606163918972015380859375</LongitudeDegrees>
            </Position>
            <AltitudeMeters>14.6000003814697265625</AltitudeMeters>
            <DistanceMeters>NAN</DistanceMeters>
          </Trackpoint>
          <Trackpoint>
            <Time>2022-07-16T10:38:16.000Z</Time>
            <Position>
              <LatitudeDegrees>43.44046938233077526092529296875</LatitudeDegrees>
              <LongitudeDegrees>-4.872243404388427734375</LongitudeDegrees>
            </Position>
            <AltitudeMeters>15</AltitudeMeters>
            <DistanceMeters>NAN</DistanceMeters>
          </Trackpoint>
          <Trackpoint>
            <Time>2022-07-16T10:38:17.000Z</Time>
            <Position>
              <LatitudeDegrees>43.4404927678406238555908203125</LatitudeDegrees>
              <LongitudeDegrees>-4.8722630180418491363525390625</LongitudeDegrees>
            </Position>
            <AltitudeMeters>15</AltitudeMeters>
            <DistanceMeters>NAN</DistanceMeters>
          </Trackpoint>
          <Trackpoint>
            <Time>2022-07-16T10:38:20.000Z</Time>
            <Position>
              <LatitudeDegrees>43.44056074507534503936767578125</LatitudeDegrees>
              <LongitudeDegrees>-4.87231959588825702667236328125</LongitudeDegrees>
            </Position>
            <AltitudeMeters>15.3999996185302734375</AltitudeMeters>
            <DistanceMeters>NAN</DistanceMeters>
          </Trackpoint>
          <Trackpoint>
            <Time>2022-07-16T10:38:22.000Z</Time>
            <Position>
              <LatitudeDegrees>43.440605588257312774658203125</LatitudeDegrees>
              <LongitudeDegrees>-4.87236049957573413848876953125</LongitudeDegrees>
            </Position>
            <AltitudeMeters>15.80000019073486328125</AltitudeMeters>
            <DistanceMeters>NAN</DistanceMeters>
          </Trackpoint>
          <Trackpoint>
            <Time>2022-07-16T10:38:25.000Z</Time>
            <Position>
              <LatitudeDegrees>43.44067021273076534271240234375</LatitudeDegrees>
              <LongitudeDegrees>-4.87241649068892002105712890625</LongitudeDegrees>
            </Position>
            <AltitudeMeters>16</AltitudeMeters>
            <DistanceMeters>NAN</DistanceMeters>
          </Trackpoint>
          <Trackpoint>
            <Time>2022-07-16T10:38:27.000Z</Time>
            <Position>
              <LatitudeDegrees>43.4407130442559719085693359375</LatitudeDegrees>
              <LongitudeDegrees>-4.87244524061679840087890625</LongitudeDegrees>
            </Position>
            <AltitudeMeters>16.3999996185302734375</AltitudeMeters>
            <DistanceMeters>NAN</DistanceMeters>
          </Trackpoint>
          <Trackpoint>
            <Time>2022-07-16T10:38:35.000Z</Time>
            <Position>
              <LatitudeDegrees>43.4408431313931941986083984375</LatitudeDegrees>
              <LongitudeDegrees>-4.872549511492252349853515625</LongitudeDegrees>
            </Position>
            <AltitudeMeters>17.200000762939453125</AltitudeMeters>
            <DistanceMeters>NAN</DistanceMeters>
          </Trackpoint>
          <Trackpoint>
            <Time>2022-07-16T10:38:37.000Z</Time>
            <Position>
              <LatitudeDegrees>43.4408763237297534942626953125</LatitudeDegrees>
              <LongitudeDegrees>-4.872577674686908721923828125</LongitudeDegrees>
            </Position>
            <AltitudeMeters>17.6000003814697265625</AltitudeMeters>
            <DistanceMeters>NAN</DistanceMeters>
          </Trackpoint>
          <Trackpoint>
            <Time>2022-07-16T10:38:42.000Z</Time>
            <Position>
              <LatitudeDegrees>43.440956287086009979248046875</LatitudeDegrees>
              <LongitudeDegrees>-4.8726485855877399444580078125</LongitudeDegrees>
            </Position>
            <AltitudeMeters>18</AltitudeMeters>
            <DistanceMeters>NAN</DistanceMeters>
          </Trackpoint>
          <Trackpoint>
            <Time>2022-07-16T10:38:46.000Z</Time>
            <Position>
              <LatitudeDegrees>43.44101621769368648529052734375</LatitudeDegrees>
              <LongitudeDegrees>-4.8726985417306423187255859375</LongitudeDegrees>
            </Position>
            <AltitudeMeters>18.6000003814697265625</AltitudeMeters>
            <DistanceMeters>NAN</DistanceMeters>
          </Trackpoint>
          <Trackpoint>
            <Time>2022-07-16T10:38:52.000Z</Time>
            <Position>
              <LatitudeDegrees>43.44109936617314815521240234375</LatitudeDegrees>
              <LongitudeDegrees>-4.8727907426655292510986328125</LongitudeDegrees>
            </Position>
            <AltitudeMeters>19.200000762939453125</AltitudeMeters>
            <DistanceMeters>NAN</DistanceMeters>
          </Trackpoint>
          <Trackpoint>
            <Time>2022-07-16T10:38:59.000Z</Time>
            <Position>
              <LatitudeDegrees>43.4411837719380855560302734375</LatitudeDegrees>
              <LongitudeDegrees>-4.87291974015533924102783203125</LongitudeDegrees>
            </Position>
            <AltitudeMeters>19.799999237060546875</AltitudeMeters>
            <DistanceMeters>NAN</DistanceMeters>
          </Trackpoint>
          <Trackpoint>
            <Time>2022-07-16T10:39:03.000Z</Time>
            <Position>
              <LatitudeDegrees>43.44122207723557949066162109375</LatitudeDegrees>
              <LongitudeDegrees>-4.87299467436969280242919921875</LongitudeDegrees>
            </Position>
            <AltitudeMeters>20.200000762939453125</AltitudeMeters>
            <DistanceMeters>NAN</DistanceMeters>
          </Trackpoint>
          <Trackpoint>
            <Time>2022-07-16T10:39:08.000Z</Time>
            <Position>
              <LatitudeDegrees>43.44126163981854915618896484375</LatitudeDegrees>
              <LongitudeDegrees>-4.873073883354663848876953125</LongitudeDegrees>
            </Position>
            <AltitudeMeters>21</AltitudeMeters>
            <DistanceMeters>NAN</DistanceMeters>
          </Trackpoint>
          <Trackpoint>
            <Time>2022-07-16T10:39:11.000Z</Time>
            <Position>
              <LatitudeDegrees>43.44127840362489223480224609375</LatitudeDegrees>
              <LongitudeDegrees>-4.87314135767519474029541015625</LongitudeDegrees>
            </Position>
            <AltitudeMeters>21.200000762939453125</AltitudeMeters>
            <DistanceMeters>NAN</DistanceMeters>
          </Trackpoint>
          <Trackpoint>
            <Time>2022-07-16T10:39:18.000Z</Time>
            <Position>
              <LatitudeDegrees>43.4413187205791473388671875</LatitudeDegrees>
              <LongitudeDegrees>-4.8733080737292766571044921875</LongitudeDegrees>
            </Position>
            <AltitudeMeters>21.3999996185302734375</AltitudeMeters>
            <DistanceMeters>NAN</DistanceMeters>
          </Trackpoint>
          <Trackpoint>
            <Time>2022-07-16T10:39:21.000Z</Time>
            <Position>
              <LatitudeDegrees>43.44132701866328716278076171875</LatitudeDegrees>
              <LongitudeDegrees>-4.87338476814329624176025390625</LongitudeDegrees>
            </Position>
            <AltitudeMeters>21.6000003814697265625</AltitudeMeters>
            <DistanceMeters>NAN</DistanceMeters>
          </Trackpoint>
          <Trackpoint>
            <Time>2022-07-16T10:39:28.000Z</Time>
            <Position>
              <LatitudeDegrees>43.4413534216582775115966796875</LatitudeDegrees>
              <LongitudeDegrees>-4.8735897056758403778076171875</LongitudeDegrees>
            </Position>
            <AltitudeMeters>21.200000762939453125</AltitudeMeters>
            <DistanceMeters>NAN</DistanceMeters>
          </Trackpoint>
          <Trackpoint>
            <Time>2022-07-16T10:39:31.000Z</Time>
            <Position>
              <LatitudeDegrees>43.44135266728699207305908203125</LatitudeDegrees>
              <LongitudeDegrees>-4.87368316389620304107666015625</LongitudeDegrees>
            </Position>
            <AltitudeMeters>21.3999996185302734375</AltitudeMeters>
            <DistanceMeters>NAN</DistanceMeters>
          </Trackpoint>
          <Trackpoint>
            <Time>2022-07-16T10:39:38.000Z</Time>
            <Position>
              <LatitudeDegrees>43.44134621322154998779296875</LatitudeDegrees>
              <LongitudeDegrees>-4.8738938011229038238525390625</LongitudeDegrees>
            </Position>
            <AltitudeMeters>21.6000003814697265625</AltitudeMeters>
            <DistanceMeters>NAN</DistanceMeters>
          </Trackpoint>
          <Trackpoint>
            <Time>2022-07-16T10:39:44.000Z</Time>
            <Position>
              <LatitudeDegrees>43.44134847633540630340576171875</LatitudeDegrees>
              <LongitudeDegrees>-4.8740835674107074737548828125</LongitudeDegrees>
            </Position>
            <AltitudeMeters>22</AltitudeMeters>
            <DistanceMeters>NAN</DistanceMeters>
          </Trackpoint>
          <Trackpoint>
            <Time>2022-07-16T10:39:50.000Z</Time>
            <Position>
              <LatitudeDegrees>43.441349230706691741943359375</LatitudeDegrees>
              <LongitudeDegrees>-4.874288924038410186767578125</LongitudeDegrees>
            </Position>
            <AltitudeMeters>22</AltitudeMeters>
            <DistanceMeters>NAN</DistanceMeters>
          </Trackpoint>
          <Trackpoint>
            <Time>2022-07-16T10:39:58.000Z</Time>
            <Position>
              <LatitudeDegrees>43.44135836698114871978759765625</LatitudeDegrees>
              <LongitudeDegrees>-4.87453727982938289642333984375</LongitudeDegrees>
            </Position>
            <AltitudeMeters>22</AltitudeMeters>
            <DistanceMeters>NAN</DistanceMeters>
          </Trackpoint>
          <Trackpoint>
            <Time>2022-07-16T10:40:04.000Z</Time>
            <Position>
              <LatitudeDegrees>43.44136473722755908966064453125</LatitudeDegrees>
              <LongitudeDegrees>-4.87476677633821964263916015625</LongitudeDegrees>
            </Position>
            <AltitudeMeters>21.3999996185302734375</AltitudeMeters>
            <DistanceMeters>NAN</DistanceMeters>
          </Trackpoint>
          <Trackpoint>
            <Time>2022-07-16T10:40:06.000Z</Time>
            <Position>
              <LatitudeDegrees>43.4413678385317325592041015625</LatitudeDegrees>
              <LongitudeDegrees>-4.87485118210315704345703125</LongitudeDegrees>
            </Position>
            <AltitudeMeters>21</AltitudeMeters>
            <DistanceMeters>NAN</DistanceMeters>
          </Trackpoint>
          <Trackpoint>
            <Time>2022-07-16T10:40:11.000Z</Time>
            <Position>
              <LatitudeDegrees>43.4414010308682918548583984375</LatitudeDegrees>
              <LongitudeDegrees>-4.8750369250774383544921875</LongitudeDegrees>
            </Position>
            <AltitudeMeters>20.200000762939453125</AltitudeMeters>
            <DistanceMeters>NAN</DistanceMeters>
          </Trackpoint>
          <Trackpoint>
            <Time>2022-07-16T10:40:13.000Z</Time>
            <Position>
              <LatitudeDegrees>43.4414097480475902557373046875</LatitudeDegrees>
              <LongitudeDegrees>-4.8750622384250164031982421875</LongitudeDegrees>
            </Position>
            <AltitudeMeters>19.799999237060546875</AltitudeMeters>
            <DistanceMeters>NAN</DistanceMeters>
          </Trackpoint>
          <Trackpoint>
            <Time>2022-07-16T10:40:14.000Z</Time>
            <Position>
              <LatitudeDegrees>43.4414097480475902557373046875</LatitudeDegrees>
              <LongitudeDegrees>-4.8750622384250164031982421875</LongitudeDegrees>
            </Position>
            <AltitudeMeters>19.6000003814697265625</AltitudeMeters>
            <DistanceMeters>NAN</DistanceMeters>
          </Trackpoint>
          <Trackpoint>
            <Time>2022-07-16T10:42:17.000Z</Time>
            <Position>
              <LatitudeDegrees>43.4414206445217132568359375</LatitudeDegrees>
              <LongitudeDegrees>-4.8750893957912921905517578125</LongitudeDegrees>
            </Position>
            <AltitudeMeters>19.200000762939453125</AltitudeMeters>
            <DistanceMeters>NAN</DistanceMeters>
          </Trackpoint>
          <Trackpoint>
            <Time>2022-07-16T10:42:18.000Z</Time>
            <Position>
              <LatitudeDegrees>43.4414305351674556732177734375</LatitudeDegrees>
              <LongitudeDegrees>-4.87512719817459583282470703125</LongitudeDegrees>
            </Position>
            <AltitudeMeters>19.200000762939453125</AltitudeMeters>
            <DistanceMeters>NAN</DistanceMeters>
          </Trackpoint>
          <Trackpoint>
            <Time>2022-07-16T10:42:22.000Z</Time>
            <Position>
              <LatitudeDegrees>43.44149532727897167205810546875</LatitudeDegrees>
              <LongitudeDegrees>-4.8753431998193264007568359375</LongitudeDegrees>
            </Position>
            <AltitudeMeters>19.200000762939453125</AltitudeMeters>
            <DistanceMeters>NAN</DistanceMeters>
          </Trackpoint>
          <Trackpoint>
            <Time>2022-07-16T10:42:26.000Z</Time>
            <Position>
              <LatitudeDegrees>43.44157822430133819580078125</LatitudeDegrees>
              <LongitudeDegrees>-4.87562499940395355224609375</LongitudeDegrees>
            </Position>
            <AltitudeMeters>18.6000003814697265625</AltitudeMeters>
            <DistanceMeters>NAN</DistanceMeters>
          </Trackpoint>
          <Trackpoint>
            <Time>2022-07-16T10:42:28.000Z</Time>
            <Position>
              <LatitudeDegrees>43.44162390567362308502197265625</LatitudeDegrees>
              <LongitudeDegrees>-4.87577880732715129852294921875</LongitudeDegrees>
            </Position>
            <AltitudeMeters>18.200000762939453125</AltitudeMeters>
            <DistanceMeters>NAN</DistanceMeters>
          </Trackpoint>
          <Trackpoint>
            <Time>2022-07-16T10:42:32.000Z</Time>
            <Position>
              <LatitudeDegrees>43.44171811826527118682861328125</LatitudeDegrees>
              <LongitudeDegrees>-4.87609581090509891510009765625</LongitudeDegrees>
            </Position>
            <AltitudeMeters>17.6000003814697265625</AltitudeMeters>
            <DistanceMeters>NAN</DistanceMeters>
          </Trackpoint>
          <Trackpoint>
            <Time>2022-07-16T10:42:35.000Z</Time>
            <Position>
              <LatitudeDegrees>43.44179104082286357879638671875</LatitudeDegrees>
              <LongitudeDegrees>-4.87634223885834217071533203125</LongitudeDegrees>
            </Position>
            <AltitudeMeters>16.799999237060546875</AltitudeMeters>
            <DistanceMeters>NAN</DistanceMeters>
          </Trackpoint>
          <Trackpoint>
            <Time>2022-07-16T10:42:36.000Z</Time>
            <Position>
              <LatitudeDegrees>43.44181400723755359649658203125</LatitudeDegrees>
              <LongitudeDegrees>-4.876425974071025848388671875</LongitudeDegrees>
            </Position>
            <AltitudeMeters>16.6000003814697265625</AltitudeMeters>
            <DistanceMeters>NAN</DistanceMeters>
          </Trackpoint>
          <Trackpoint>
            <Time>2022-07-16T10:42:39.000Z</Time>
            <Position>
              <LatitudeDegrees>43.4418761171400547027587890625</LatitudeDegrees>
              <LongitudeDegrees>-4.8766735754907131195068359375</LongitudeDegrees>
            </Position>
            <AltitudeMeters>15.3999996185302734375</AltitudeMeters>
            <DistanceMeters>NAN</DistanceMeters>
          </Trackpoint>
          <Trackpoint>
            <Time>2022-07-16T10:42:43.000Z</Time>
            <Position>
              <LatitudeDegrees>43.44194342382252216339111328125</LatitudeDegrees>
              <LongitudeDegrees>-4.87695126794278621673583984375</LongitudeDegrees>
            </Position>
            <AltitudeMeters>14.3999996185302734375</AltitudeMeters>
            <DistanceMeters>NAN</DistanceMeters>
          </Trackpoint>
          <Trackpoint>
            <Time>2022-07-16T10:42:44.000Z</Time>
            <Position>
              <LatitudeDegrees>43.44196018762886524200439453125</LatitudeDegrees>
              <LongitudeDegrees>-4.87701698206365108489990234375</LongitudeDegrees>
            </Position>
            <AltitudeMeters>14</AltitudeMeters>
            <DistanceMeters>NAN</DistanceMeters>
          </Trackpoint>
          <Trackpoint>
            <Time>2022-07-16T10:42:46.000Z</Time>
            <Position>
              <LatitudeDegrees>43.4419892728328704833984375</LatitudeDegrees>
              <LongitudeDegrees>-4.8770695365965366363525390625</LongitudeDegrees>
            </Position>
            <AltitudeMeters>13.6000003814697265625</AltitudeMeters>
            <DistanceMeters>NAN</DistanceMeters>
          </Trackpoint>
          <Trackpoint>
            <Time>2022-07-16T10:42:47.000Z</Time>
            <Position>
              <LatitudeDegrees>43.442009724676609039306640625</LatitudeDegrees>
              <LongitudeDegrees>-4.8770700395107269287109375</LongitudeDegrees>
            </Position>
            <AltitudeMeters>13.19999980926513671875</AltitudeMeters>
            <DistanceMeters>NAN</DistanceMeters>
          </Trackpoint>
          <Trackpoint>
            <Time>2022-07-16T10:42:49.000Z</Time>
            <Position>
              <LatitudeDegrees>43.4420742653310298919677734375</LatitudeDegrees>
              <LongitudeDegrees>-4.8770702071487903594970703125</LongitudeDegrees>
            </Position>
            <AltitudeMeters>12</AltitudeMeters>
            <DistanceMeters>NAN</DistanceMeters>
          </Trackpoint>
          <Trackpoint>
            <Time>2022-07-16T10:42:51.000Z</Time>
            <Position>
              <LatitudeDegrees>43.44211340881884098052978515625</LatitudeDegrees>
              <LongitudeDegrees>-4.87705319188535213470458984375</LongitudeDegrees>
            </Position>
            <AltitudeMeters>11.6000003814697265625</AltitudeMeters>
            <DistanceMeters>NAN</DistanceMeters>
          </Trackpoint>
          <Trackpoint>
            <Time>2022-07-16T10:42:53.000Z</Time>
            <Position>
              <LatitudeDegrees>43.442137800157070159912109375</LatitudeDegrees>
              <LongitudeDegrees>-4.87704229541122913360595703125</LongitudeDegrees>
            </Position>
            <AltitudeMeters>11.19999980926513671875</AltitudeMeters>
            <DistanceMeters>NAN</DistanceMeters>
          </Trackpoint>
          <Trackpoint>
            <Time>2022-07-16T10:42:55.000Z</Time>
            <Position>
              <LatitudeDegrees>43.4421540610492229461669921875</LatitudeDegrees>
              <LongitudeDegrees>-4.87705905921757221221923828125</LongitudeDegrees>
            </Position>
            <AltitudeMeters>11</AltitudeMeters>
            <DistanceMeters>NAN</DistanceMeters>
          </Trackpoint>
          <Trackpoint>
            <Time>2022-07-16T10:42:56.000Z</Time>
            <Position>
              <LatitudeDegrees>43.44216017983853816986083984375</LatitudeDegrees>
              <LongitudeDegrees>-4.8770780861377716064453125</LongitudeDegrees>
            </Position>
            <AltitudeMeters>11</AltitudeMeters>
            <DistanceMeters>NAN</DistanceMeters>
          </Trackpoint>
          <Trackpoint>
            <Time>2022-07-16T10:43:02.000Z</Time>
            <Position>
              <LatitudeDegrees>43.4422207809984683990478515625</LatitudeDegrees>
              <LongitudeDegrees>-4.87723834812641143798828125</LongitudeDegrees>
            </Position>
            <AltitudeMeters>11.19999980926513671875</AltitudeMeters>
            <DistanceMeters>NAN</DistanceMeters>
          </Trackpoint>
          <Trackpoint>
            <Time>2022-07-16T10:43:09.000Z</Time>
            <Position>
              <LatitudeDegrees>43.442279286682605743408203125</LatitudeDegrees>
              <LongitudeDegrees>-4.87748318351805210113525390625</LongitudeDegrees>
            </Position>
            <AltitudeMeters>11.80000019073486328125</AltitudeMeters>
            <DistanceMeters>NAN</DistanceMeters>
          </Trackpoint>
          <Trackpoint>
            <Time>2022-07-16T10:43:15.000Z</Time>
            <Position>
              <LatitudeDegrees>43.4423763491213321685791015625</LatitudeDegrees>
              <LongitudeDegrees>-4.8777110874652862548828125</LongitudeDegrees>
            </Position>
            <AltitudeMeters>11.6000003814697265625</AltitudeMeters>
            <DistanceMeters>NAN</DistanceMeters>
          </Trackpoint>
          <Trackpoint>
            <Time>2022-07-16T10:43:24.000Z</Time>
            <Position>
              <LatitudeDegrees>43.44250869937241077423095703125</LatitudeDegrees>
              <LongitudeDegrees>-4.8781219683587551116943359375</LongitudeDegrees>
            </Position>
            <AltitudeMeters>11.6000003814697265625</AltitudeMeters>
            <DistanceMeters>NAN</DistanceMeters>
          </Trackpoint>
          <Trackpoint>
            <Time>2022-07-16T10:43:30.000Z</Time>
            <Position>
              <LatitudeDegrees>43.4425644390285015106201171875</LatitudeDegrees>
              <LongitudeDegrees>-4.87831927835941314697265625</LongitudeDegrees>
            </Position>
            <AltitudeMeters>11.6000003814697265625</AltitudeMeters>
            <DistanceMeters>NAN</DistanceMeters>
          </Trackpoint>
          <Trackpoint>
            <Time>2022-07-16T10:43:39.000Z</Time>
            <Position>
              <LatitudeDegrees>43.44263526611030101776123046875</LatitudeDegrees>
              <LongitudeDegrees>-4.87857433967292308807373046875</LongitudeDegrees>
            </Position>
            <AltitudeMeters>11.80000019073486328125</AltitudeMeters>
            <DistanceMeters>NAN</DistanceMeters>
          </Trackpoint>
          <Trackpoint>
            <Time>2022-07-16T10:43:43.000Z</Time>
            <Position>
              <LatitudeDegrees>43.4426678717136383056640625</LatitudeDegrees>
              <LongitudeDegrees>-4.8786946199834346771240234375</LongitudeDegrees>
            </Position>
            <AltitudeMeters>12.19999980926513671875</AltitudeMeters>
            <DistanceMeters>NAN</DistanceMeters>
          </Trackpoint>
          <Trackpoint>
            <Time>2022-07-16T10:43:47.000Z</Time>
            <Position>
              <LatitudeDegrees>43.44269494526088237762451171875</LatitudeDegrees>
              <LongitudeDegrees>-4.8788005672395229339599609375</LongitudeDegrees>
            </Position>
            <AltitudeMeters>12.3999996185302734375</AltitudeMeters>
            <DistanceMeters>NAN</DistanceMeters>
          </Trackpoint>
          <Trackpoint>
            <Time>2022-07-16T10:43:52.000Z</Time>
            <Position>
              <LatitudeDegrees>43.44272210262715816497802734375</LatitudeDegrees>
              <LongitudeDegrees>-4.87892436794936656951904296875</LongitudeDegrees>
            </Position>
            <AltitudeMeters>12.80000019073486328125</AltitudeMeters>
            <DistanceMeters>NAN</DistanceMeters>
          </Trackpoint>
          <Trackpoint>
            <Time>2022-07-16T10:43:59.000Z</Time>
            <Position>
              <LatitudeDegrees>43.44277155585587024688720703125</LatitudeDegrees>
              <LongitudeDegrees>-4.87911161966621875762939453125</LongitudeDegrees>
            </Position>
            <AltitudeMeters>13.19999980926513671875</AltitudeMeters>
            <DistanceMeters>NAN</DistanceMeters>
          </Trackpoint>
          <Trackpoint>
            <Time>2022-07-16T10:44:04.000Z</Time>
            <Position>
              <LatitudeDegrees>43.44279703684151172637939453125</LatitudeDegrees>
              <LongitudeDegrees>-4.8792270384728908538818359375</LongitudeDegrees>
            </Position>
            <AltitudeMeters>13.6000003814697265625</AltitudeMeters>
            <DistanceMeters>NAN</DistanceMeters>
          </Trackpoint>
          <Trackpoint>
            <Time>2022-07-16T10:44:09.000Z</Time>
            <Position>
              <LatitudeDegrees>43.44284280203282833099365234375</LatitudeDegrees>
              <LongitudeDegrees>-4.87936894409358501434326171875</LongitudeDegrees>
            </Position>
            <AltitudeMeters>14</AltitudeMeters>
            <DistanceMeters>NAN</DistanceMeters>
          </Trackpoint>
          <Trackpoint>
            <Time>2022-07-16T10:44:14.000Z</Time>
            <Position>
              <LatitudeDegrees>43.442902900278568267822265625</LatitudeDegrees>
              <LongitudeDegrees>-4.87952652387320995330810546875</LongitudeDegrees>
            </Position>
            <AltitudeMeters>13.80000019073486328125</AltitudeMeters>
            <DistanceMeters>NAN</DistanceMeters>
          </Trackpoint>
          <Trackpoint>
            <Time>2022-07-16T10:44:16.000Z</Time>
            <Position>
              <LatitudeDegrees>43.442931063473224639892578125</LatitudeDegrees>
              <LongitudeDegrees>-4.87957463599741458892822265625</LongitudeDegrees>
            </Position>
            <AltitudeMeters>13.80000019073486328125</AltitudeMeters>
            <DistanceMeters>NAN</DistanceMeters>
          </Trackpoint>
          <Trackpoint>
            <Time>2022-07-16T10:44:17.000Z</Time>
            <Position>
              <LatitudeDegrees>43.44295327551662921905517578125</LatitudeDegrees>
              <LongitudeDegrees>-4.879604391753673553466796875</LongitudeDegrees>
            </Position>
            <AltitudeMeters>13.80000019073486328125</AltitudeMeters>
            <DistanceMeters>NAN</DistanceMeters>
          </Trackpoint>
          <Trackpoint>
            <Time>2022-07-16T10:44:23.000Z</Time>
            <Position>
              <LatitudeDegrees>43.443077243864536285400390625</LatitudeDegrees>
              <LongitudeDegrees>-4.879801534116268157958984375</LongitudeDegrees>
            </Position>
            <AltitudeMeters>13.6000003814697265625</AltitudeMeters>
            <DistanceMeters>NAN</DistanceMeters>
          </Trackpoint>
          <Trackpoint>
            <Time>2022-07-16T10:44:26.000Z</Time>
            <Position>
              <LatitudeDegrees>43.4431468136608600616455078125</LatitudeDegrees>
              <LongitudeDegrees>-4.879897423088550567626953125</LongitudeDegrees>
            </Position>
            <AltitudeMeters>13.80000019073486328125</AltitudeMeters>
            <DistanceMeters>NAN</DistanceMeters>
          </Trackpoint>
          <Trackpoint>
            <Time>2022-07-16T10:44:29.000Z</Time>
            <Position>
              <LatitudeDegrees>43.44322199933230876922607421875</LatitudeDegrees>
              <LongitudeDegrees>-4.87996347248554229736328125</LongitudeDegrees>
            </Position>
            <AltitudeMeters>14</AltitudeMeters>
            <DistanceMeters>NAN</DistanceMeters>
          </Trackpoint>
          <Trackpoint>
            <Time>2022-07-16T10:44:30.000Z</Time>
            <Position>
              <LatitudeDegrees>43.443248569965362548828125</LatitudeDegrees>
              <LongitudeDegrees>-4.87998300231993198394775390625</LongitudeDegrees>
            </Position>
            <AltitudeMeters>14</AltitudeMeters>
            <DistanceMeters>NAN</DistanceMeters>
          </Trackpoint>
          <Trackpoint>
            <Time>2022-07-16T10:44:36.000Z</Time>
            <Position>
              <LatitudeDegrees>43.4433778189122676849365234375</LatitudeDegrees>
              <LongitudeDegrees>-4.88010554574429988861083984375</LongitudeDegrees>
            </Position>
            <AltitudeMeters>13.80000019073486328125</AltitudeMeters>
            <DistanceMeters>NAN</DistanceMeters>
          </Trackpoint>
          <Trackpoint>
            <Time>2022-07-16T10:44:39.000Z</Time>
            <Position>
              <LatitudeDegrees>43.4434234164655208587646484375</LatitudeDegrees>
              <LongitudeDegrees>-4.88017997704446315765380859375</LongitudeDegrees>
            </Position>
            <AltitudeMeters>13.80000019073486328125</AltitudeMeters>
            <DistanceMeters>NAN</DistanceMeters>
          </Trackpoint>
          <Trackpoint>
            <Time>2022-07-16T10:44:41.000Z</Time>
            <Position>
              <LatitudeDegrees>43.443448059260845184326171875</LatitudeDegrees>
              <LongitudeDegrees>-4.88023797981441020965576171875</LongitudeDegrees>
            </Position>
            <AltitudeMeters>14</AltitudeMeters>
            <DistanceMeters>NAN</DistanceMeters>
          </Trackpoint>
          <Trackpoint>
            <Time>2022-07-16T10:44:44.000Z</Time>
            <Position>
              <LatitudeDegrees>43.44347991049289703369140625</LatitudeDegrees>
              <LongitudeDegrees>-4.880333282053470611572265625</LongitudeDegrees>
            </Position>
            <AltitudeMeters>14.19999980926513671875</AltitudeMeters>
            <DistanceMeters>NAN</DistanceMeters>
          </Trackpoint>
          <Trackpoint>
            <Time>2022-07-16T10:44:45.000Z</Time>
            <Position>
              <LatitudeDegrees>43.4434908069670200347900390625</LatitudeDegrees>
              <LongitudeDegrees>-4.88036580383777618408203125</LongitudeDegrees>
            </Position>
            <AltitudeMeters>14.19999980926513671875</AltitudeMeters>
            <DistanceMeters>NAN</DistanceMeters>
          </Trackpoint>
          <Trackpoint>
            <Time>2022-07-16T10:44:49.000Z</Time>
            <Position>
              <LatitudeDegrees>43.443523161113262176513671875</LatitudeDegrees>
              <LongitudeDegrees>-4.880490191280841827392578125</LongitudeDegrees>
            </Position>
            <AltitudeMeters>14.19999980926513671875</AltitudeMeters>
            <DistanceMeters>NAN</DistanceMeters>
          </Trackpoint>
          <Trackpoint>
            <Time>2022-07-16T10:44:53.000Z</Time>
            <Position>
              <LatitudeDegrees>43.44355995766818523406982421875</LatitudeDegrees>
              <LongitudeDegrees>-4.88061164505779743194580078125</LongitudeDegrees>
            </Position>
            <AltitudeMeters>14.3999996185302734375</AltitudeMeters>
            <DistanceMeters>NAN</DistanceMeters>
          </Trackpoint>
          <Trackpoint>
            <Time>2022-07-16T10:44:55.000Z</Time>
            <Position>
              <LatitudeDegrees>43.44357906840741634368896484375</LatitudeDegrees>
              <LongitudeDegrees>-4.88067283295094966888427734375</LongitudeDegrees>
            </Position>
            <AltitudeMeters>14.6000003814697265625</AltitudeMeters>
            <DistanceMeters>NAN</DistanceMeters>
          </Trackpoint>
          <Trackpoint>
            <Time>2022-07-16T10:45:02.000Z</Time>
            <Position>
              <LatitudeDegrees>43.44359650276601314544677734375</LatitudeDegrees>
              <LongitudeDegrees>-4.88087651319801807403564453125</LongitudeDegrees>
            </Position>
            <AltitudeMeters>15.3999996185302734375</AltitudeMeters>
            <DistanceMeters>NAN</DistanceMeters>
          </Trackpoint>
          <Trackpoint>
            <Time>2022-07-16T10:45:11.000Z</Time>
            <Position>
              <LatitudeDegrees>43.44360035844147205352783203125</LatitudeDegrees>
              <LongitudeDegrees>-4.88112545572221279144287109375</LongitudeDegrees>
            </Position>
            <AltitudeMeters>15.6000003814697265625</AltitudeMeters>
            <DistanceMeters>NAN</DistanceMeters>
          </Trackpoint>
          <Trackpoint>
            <Time>2022-07-16T10:45:17.000Z</Time>
            <Position>
              <LatitudeDegrees>43.443608321249485015869140625</LatitudeDegrees>
              <LongitudeDegrees>-4.88129292614758014678955078125</LongitudeDegrees>
            </Position>
            <AltitudeMeters>15.80000019073486328125</AltitudeMeters>
            <DistanceMeters>NAN</DistanceMeters>
          </Trackpoint>
          <Trackpoint>
            <Time>2022-07-16T10:45:20.000Z</Time>
            <Position>
              <LatitudeDegrees>43.4436074830591678619384765625</LatitudeDegrees>
              <LongitudeDegrees>-4.88137372769415378570556640625</LongitudeDegrees>
            </Position>
            <AltitudeMeters>15.80000019073486328125</AltitudeMeters>
            <DistanceMeters>NAN</DistanceMeters>
          </Trackpoint>
          <Trackpoint>
            <Time>2022-07-16T10:45:29.000Z</Time>
            <Position>
              <LatitudeDegrees>43.44363573007285594940185546875</LatitudeDegrees>
              <LongitudeDegrees>-4.88159920088946819305419921875</LongitudeDegrees>
            </Position>
            <AltitudeMeters>16.3999996185302734375</AltitudeMeters>
            <DistanceMeters>NAN</DistanceMeters>
          </Trackpoint>
          <Trackpoint>
            <Time>2022-07-16T10:45:31.000Z</Time>
            <Position>
              <LatitudeDegrees>43.44364377669990062713623046875</LatitudeDegrees>
              <LongitudeDegrees>-4.88165418617427349090576171875</LongitudeDegrees>
            </Position>
            <AltitudeMeters>16.3999996185302734375</AltitudeMeters>
            <DistanceMeters>NAN</DistanceMeters>
          </Trackpoint>
          <Trackpoint>
            <Time>2022-07-16T10:45:40.000Z</Time>
            <Position>
              <LatitudeDegrees>43.4436708502471446990966796875</LatitudeDegrees>
              <LongitudeDegrees>-4.881869517266750335693359375</LongitudeDegrees>
            </Position>
            <AltitudeMeters>16.799999237060546875</AltitudeMeters>
            <DistanceMeters>NAN</DistanceMeters>
          </Trackpoint>
          <Trackpoint>
            <Time>2022-07-16T10:45:48.000Z</Time>
            <Position>
              <LatitudeDegrees>43.443680070340633392333984375</LatitudeDegrees>
              <LongitudeDegrees>-4.8820718564093112945556640625</LongitudeDegrees>
            </Position>
            <AltitudeMeters>17.3999996185302734375</AltitudeMeters>
            <DistanceMeters>NAN</DistanceMeters>
          </Trackpoint>
          <Trackpoint>
            <Time>2022-07-16T10:45:49.000Z</Time>
            <Position>
              <LatitudeDegrees>43.44368241727352142333984375</LatitudeDegrees>
              <LongitudeDegrees>-4.88209524191915988922119140625</LongitudeDegrees>
            </Position>
            <AltitudeMeters>17.3999996185302734375</AltitudeMeters>
            <DistanceMeters>NAN</DistanceMeters>
          </Trackpoint>
          <Trackpoint>
            <Time>2022-07-16T10:45:57.000Z</Time>
            <Position>
              <LatitudeDegrees>43.44369406811892986297607421875</LatitudeDegrees>
              <LongitudeDegrees>-4.88229087553918361663818359375</LongitudeDegrees>
            </Position>
            <AltitudeMeters>17.799999237060546875</AltitudeMeters>
            <DistanceMeters>NAN</DistanceMeters>
          </Trackpoint>
          <Trackpoint>
            <Time>2022-07-16T10:46:04.000Z</Time>
            <Position>
              <LatitudeDegrees>43.44370060600340366363525390625</LatitudeDegrees>
              <LongitudeDegrees>-4.88244057632982730865478515625</LongitudeDegrees>
            </Position>
            <AltitudeMeters>18.3999996185302734375</AltitudeMeters>
            <DistanceMeters>NAN</DistanceMeters>
          </Trackpoint>
          <Trackpoint>
            <Time>2022-07-16T10:46:06.000Z</Time>
            <Position>
              <LatitudeDegrees>43.44370923936367034912109375</LatitudeDegrees>
              <LongitudeDegrees>-4.882477708160877227783203125</LongitudeDegrees>
            </Position>
            <AltitudeMeters>18.3999996185302734375</AltitudeMeters>
            <DistanceMeters>NAN</DistanceMeters>
          </Trackpoint>
          <Trackpoint>
            <Time>2022-07-16T10:46:13.000Z</Time>
            <Position>
              <LatitudeDegrees>43.44375140033662319183349609375</LatitudeDegrees>
              <LongitudeDegrees>-4.88261475227773189544677734375</LongitudeDegrees>
            </Position>
            <AltitudeMeters>19.3999996185302734375</AltitudeMeters>
            <DistanceMeters>NAN</DistanceMeters>
          </Trackpoint>
          <Trackpoint>
            <Time>2022-07-16T10:46:14.000Z</Time>
            <Position>
              <LatitudeDegrees>43.44375751912593841552734375</LatitudeDegrees>
              <LongitudeDegrees>-4.88263227045536041259765625</LongitudeDegrees>
            </Position>
            <AltitudeMeters>19.3999996185302734375</AltitudeMeters>
            <DistanceMeters>NAN</DistanceMeters>
          </Trackpoint>
          <Trackpoint>
            <Time>2022-07-16T10:46:20.000Z</Time>
            <Position>
              <LatitudeDegrees>43.44378962181508541107177734375</LatitudeDegrees>
              <LongitudeDegrees>-4.88273947499692440032958984375</LongitudeDegrees>
            </Position>
            <AltitudeMeters>20.3999996185302734375</AltitudeMeters>
            <DistanceMeters>NAN</DistanceMeters>
          </Trackpoint>
          <Trackpoint>
            <Time>2022-07-16T10:46:21.000Z</Time>
            <Position>
              <LatitudeDegrees>43.4437925554811954498291015625</LatitudeDegrees>
              <LongitudeDegrees>-4.88275657407939434051513671875</LongitudeDegrees>
            </Position>
            <AltitudeMeters>20.6000003814697265625</AltitudeMeters>
            <DistanceMeters>NAN</DistanceMeters>
          </Trackpoint>
          <Trackpoint>
            <Time>2022-07-16T10:46:28.000Z</Time>
            <Position>
              <LatitudeDegrees>43.44382465817034244537353515625</LatitudeDegrees>
              <LongitudeDegrees>-4.88289001397788524627685546875</LongitudeDegrees>
            </Position>
            <AltitudeMeters>21.3999996185302734375</AltitudeMeters>
            <DistanceMeters>NAN</DistanceMeters>
          </Trackpoint>
          <Trackpoint>
            <Time>2022-07-16T10:46:29.000Z</Time>
            <Position>
              <LatitudeDegrees>43.443830274045467376708984375</LatitudeDegrees>
              <LongitudeDegrees>-4.88291901536285877227783203125</LongitudeDegrees>
            </Position>
            <AltitudeMeters>21.3999996185302734375</AltitudeMeters>
            <DistanceMeters>NAN</DistanceMeters>
          </Trackpoint>
          <Trackpoint>
            <Time>2022-07-16T10:46:30.000Z</Time>
            <Position>
              <LatitudeDegrees>43.44383304007351398468017578125</LatitudeDegrees>
              <LongitudeDegrees>-4.8829435743391513824462890625</LongitudeDegrees>
            </Position>
            <AltitudeMeters>21.6000003814697265625</AltitudeMeters>
            <DistanceMeters>NAN</DistanceMeters>
          </Trackpoint>
          <Trackpoint>
            <Time>2022-07-16T10:46:37.000Z</Time>
            <Position>
              <LatitudeDegrees>43.44386053271591663360595703125</LatitudeDegrees>
              <LongitudeDegrees>-4.88316728733479976654052734375</LongitudeDegrees>
            </Position>
            <AltitudeMeters>21.3999996185302734375</AltitudeMeters>
            <DistanceMeters>NAN</DistanceMeters>
          </Trackpoint>
          <Trackpoint>
            <Time>2022-07-16T10:46:44.000Z</Time>
            <Position>
              <LatitudeDegrees>43.44388416968286037445068359375</LatitudeDegrees>
              <LongitudeDegrees>-4.883378930389881134033203125</LongitudeDegrees>
            </Position>
            <AltitudeMeters>21.799999237060546875</AltitudeMeters>
            <DistanceMeters>NAN</DistanceMeters>
          </Trackpoint>
          <Trackpoint>
            <Time>2022-07-16T10:46:48.000Z</Time>
            <Position>
              <LatitudeDegrees>43.44390244223177433013916015625</LatitudeDegrees>
              <LongitudeDegrees>-4.883484207093715667724609375</LongitudeDegrees>
            </Position>
            <AltitudeMeters>22</AltitudeMeters>
            <DistanceMeters>NAN</DistanceMeters>
          </Trackpoint>
          <Trackpoint>
            <Time>2022-07-16T10:46:56.000Z</Time>
            <Position>
              <LatitudeDegrees>43.4439219720661640167236328125</LatitudeDegrees>
              <LongitudeDegrees>-4.88365377299487590789794921875</LongitudeDegrees>
            </Position>
            <AltitudeMeters>22.3999996185302734375</AltitudeMeters>
            <DistanceMeters>NAN</DistanceMeters>
          </Trackpoint>
          <Trackpoint>
            <Time>2022-07-16T10:46:57.000Z</Time>
            <Position>
              <LatitudeDegrees>43.4439213015139102935791015625</LatitudeDegrees>
              <LongitudeDegrees>-4.8836684413254261016845703125</LongitudeDegrees>
            </Position>
            <AltitudeMeters>22.6000003814697265625</AltitudeMeters>
            <DistanceMeters>NAN</DistanceMeters>
          </Trackpoint>
          <Trackpoint>
            <Time>2022-07-16T10:47:03.000Z</Time>
            <Position>
              <LatitudeDegrees>43.44392876140773296356201171875</LatitudeDegrees>
              <LongitudeDegrees>-4.88378302194178104400634765625</LongitudeDegrees>
            </Position>
            <AltitudeMeters>23</AltitudeMeters>
            <DistanceMeters>NAN</DistanceMeters>
          </Trackpoint>
          <Trackpoint>
            <Time>2022-07-16T10:47:10.000Z</Time>
            <Position>
              <LatitudeDegrees>43.4439236484467983245849609375</LatitudeDegrees>
              <LongitudeDegrees>-4.8839172162115573883056640625</LongitudeDegrees>
            </Position>
            <AltitudeMeters>23.6000003814697265625</AltitudeMeters>
            <DistanceMeters>NAN</DistanceMeters>
          </Trackpoint>
          <Trackpoint>
            <Time>2022-07-16T10:47:11.000Z</Time>
            <Position>
              <LatitudeDegrees>43.4439219720661640167236328125</LatitudeDegrees>
              <LongitudeDegrees>-4.8839336447417736053466796875</LongitudeDegrees>
            </Position>
            <AltitudeMeters>23.6000003814697265625</AltitudeMeters>
            <DistanceMeters>NAN</DistanceMeters>
          </Trackpoint>
          <Trackpoint>
            <Time>2022-07-16T10:47:15.000Z</Time>
            <Position>
              <LatitudeDegrees>43.44391484744846820831298828125</LatitudeDegrees>
              <LongitudeDegrees>-4.88402056507766246795654296875</LongitudeDegrees>
            </Position>
            <AltitudeMeters>23.799999237060546875</AltitudeMeters>
            <DistanceMeters>NAN</DistanceMeters>
          </Trackpoint>
          <Trackpoint>
            <Time>2022-07-16T10:47:16.000Z</Time>
            <Position>
              <LatitudeDegrees>43.4439139254391193389892578125</LatitudeDegrees>
              <LongitudeDegrees>-4.8840389214456081390380859375</LongitudeDegrees>
            </Position>
            <AltitudeMeters>23.799999237060546875</AltitudeMeters>
            <DistanceMeters>NAN</DistanceMeters>
          </Trackpoint>
          <Trackpoint>
            <Time>2022-07-16T10:47:21.000Z</Time>
            <Position>
              <LatitudeDegrees>43.44392306171357631683349609375</LatitudeDegrees>
              <LongitudeDegrees>-4.88412366248667240142822265625</LongitudeDegrees>
            </Position>
            <AltitudeMeters>24.200000762939453125</AltitudeMeters>
            <DistanceMeters>NAN</DistanceMeters>
          </Trackpoint>
          <Trackpoint>
            <Time>2022-07-16T10:47:24.000Z</Time>
            <Position>
              <LatitudeDegrees>43.4439233131706714630126953125</LatitudeDegrees>
              <LongitudeDegrees>-4.88413187675178050994873046875</LongitudeDegrees>
            </Position>
            <AltitudeMeters>24.200000762939453125</AltitudeMeters>
            <DistanceMeters>NAN</DistanceMeters>
          </Trackpoint>
          <Trackpoint>
            <Time>2022-07-16T10:47:59.000Z</Time>
            <Position>
              <LatitudeDegrees>43.443935550749301910400390625</LatitudeDegrees>
              <LongitudeDegrees>-4.88417831249535083770751953125</LongitudeDegrees>
            </Position>
            <AltitudeMeters>24.799999237060546875</AltitudeMeters>
            <DistanceMeters>NAN</DistanceMeters>
          </Trackpoint>
          <Trackpoint>
            <Time>2022-07-16T10:48:00.000Z</Time>
            <Position>
              <LatitudeDegrees>43.4439407475292682647705078125</LatitudeDegrees>
              <LongitudeDegrees>-4.884198345243930816650390625</LongitudeDegrees>
            </Position>
            <AltitudeMeters>24.799999237060546875</AltitudeMeters>
            <DistanceMeters>NAN</DistanceMeters>
          </Trackpoint>
          <Trackpoint>
            <Time>2022-07-16T10:48:04.000Z</Time>
            <Position>
              <LatitudeDegrees>43.443946950137615203857421875</LatitudeDegrees>
              <LongitudeDegrees>-4.88422575406730175018310546875</LongitudeDegrees>
            </Position>
            <AltitudeMeters>25</AltitudeMeters>
            <DistanceMeters>NAN</DistanceMeters>
          </Trackpoint>
          <Trackpoint>
            <Time>2022-07-16T10:49:01.000Z</Time>
            <Position>
              <LatitudeDegrees>43.4439736045897006988525390625</LatitudeDegrees>
              <LongitudeDegrees>-4.88429197110235691070556640625</LongitudeDegrees>
            </Position>
            <AltitudeMeters>24.200000762939453125</AltitudeMeters>
            <DistanceMeters>NAN</DistanceMeters>
          </Trackpoint>
          <Trackpoint>
            <Time>2022-07-16T10:49:02.000Z</Time>
            <Position>
              <LatitudeDegrees>43.443974442780017852783203125</LatitudeDegrees>
              <LongitudeDegrees>-4.88431694917380809783935546875</LongitudeDegrees>
            </Position>
            <AltitudeMeters>24.200000762939453125</AltitudeMeters>
            <DistanceMeters>NAN</DistanceMeters>
          </Trackpoint>
          <Trackpoint>
            <Time>2022-07-16T10:49:06.000Z</Time>
            <Position>
              <LatitudeDegrees>43.4439848363399505615234375</LatitudeDegrees>
              <LongitudeDegrees>-4.884405545890331268310546875</LongitudeDegrees>
            </Position>
            <AltitudeMeters>25.799999237060546875</AltitudeMeters>
            <DistanceMeters>NAN</DistanceMeters>
          </Trackpoint>
          <Trackpoint>
            <Time>2022-07-16T10:49:08.000Z</Time>
            <Position>
              <LatitudeDegrees>43.4439890272915363311767578125</LatitudeDegrees>
              <LongitudeDegrees>-4.88444066606462001800537109375</LongitudeDegrees>
            </Position>
            <AltitudeMeters>26.200000762939453125</AltitudeMeters>
            <DistanceMeters>NAN</DistanceMeters>
          </Trackpoint>
          <Trackpoint>
            <Time>2022-07-16T10:49:12.000Z</Time>
            <Position>
              <LatitudeDegrees>43.44400939531624317169189453125</LatitudeDegrees>
              <LongitudeDegrees>-4.8844925500452518463134765625</LongitudeDegrees>
            </Position>
            <AltitudeMeters>27</AltitudeMeters>
            <DistanceMeters>NAN</DistanceMeters>
          </Trackpoint>
          <Trackpoint>
            <Time>2022-07-16T10:49:15.000Z</Time>
            <Position>
              <LatitudeDegrees>43.44402465038001537322998046875</LatitudeDegrees>
              <LongitudeDegrees>-4.88454342819750308990478515625</LongitudeDegrees>
            </Position>
            <AltitudeMeters>27.3999996185302734375</AltitudeMeters>
            <DistanceMeters>NAN</DistanceMeters>
          </Trackpoint>
          <Trackpoint>
            <Time>2022-07-16T10:49:19.000Z</Time>
            <Position>
              <LatitudeDegrees>43.4440523944795131683349609375</LatitudeDegrees>
              <LongitudeDegrees>-4.88460964523255825042724609375</LongitudeDegrees>
            </Position>
            <AltitudeMeters>28</AltitudeMeters>
            <DistanceMeters>NAN</DistanceMeters>
          </Trackpoint>
          <Trackpoint>
            <Time>2022-07-16T10:49:24.000Z</Time>
            <Position>
              <LatitudeDegrees>43.4440845809876918792724609375</LatitudeDegrees>
              <LongitudeDegrees>-4.88468826748430728912353515625</LongitudeDegrees>
            </Position>
            <AltitudeMeters>29.200000762939453125</AltitudeMeters>
            <DistanceMeters>NAN</DistanceMeters>
          </Trackpoint>
          <Trackpoint>
            <Time>2022-07-16T10:49:32.000Z</Time>
            <Position>
              <LatitudeDegrees>43.444140739738941192626953125</LatitudeDegrees>
              <LongitudeDegrees>-4.88481868989765644073486328125</LongitudeDegrees>
            </Position>
            <AltitudeMeters>30.6000003814697265625</AltitudeMeters>
            <DistanceMeters>NAN</DistanceMeters>
          </Trackpoint>
          <Trackpoint>
            <Time>2022-07-16T10:49:34.000Z</Time>
            <Position>
              <LatitudeDegrees>43.44414912164211273193359375</LatitudeDegrees>
              <LongitudeDegrees>-4.88484970293939113616943359375</LongitudeDegrees>
            </Position>
            <AltitudeMeters>30.799999237060546875</AltitudeMeters>
            <DistanceMeters>NAN</DistanceMeters>
          </Trackpoint>
          <Trackpoint>
            <Time>2022-07-16T10:49:39.000Z</Time>
            <Position>
              <LatitudeDegrees>43.4441774524748325347900390625</LatitudeDegrees>
              <LongitudeDegrees>-4.88492664881050586700439453125</LongitudeDegrees>
            </Position>
            <AltitudeMeters>31.3999996185302734375</AltitudeMeters>
            <DistanceMeters>NAN</DistanceMeters>
          </Trackpoint>
          <Trackpoint>
            <Time>2022-07-16T10:49:40.000Z</Time>
            <Position>
              <LatitudeDegrees>43.44418407417833805084228515625</LatitudeDegrees>
              <LongitudeDegrees>-4.88494408316910266876220703125</LongitudeDegrees>
            </Position>
            <AltitudeMeters>31.6000003814697265625</AltitudeMeters>
            <DistanceMeters>NAN</DistanceMeters>
          </Trackpoint>
          <Trackpoint>
            <Time>2022-07-16T10:49:44.000Z</Time>
            <Position>
              <LatitudeDegrees>43.44421483576297760009765625</LatitudeDegrees>
              <LongitudeDegrees>-4.8850132338702678680419921875</LongitudeDegrees>
            </Position>
            <AltitudeMeters>32.200000762939453125</AltitudeMeters>
            <DistanceMeters>NAN</DistanceMeters>
          </Trackpoint>
          <Trackpoint>
            <Time>2022-07-16T10:49:51.000Z</Time>
            <Position>
              <LatitudeDegrees>43.44424978829920291900634765625</LatitudeDegrees>
              <LongitudeDegrees>-4.88505220972001552581787109375</LongitudeDegrees>
            </Position>
            <AltitudeMeters>32.200000762939453125</AltitudeMeters>
            <DistanceMeters>NAN</DistanceMeters>
          </Trackpoint>
          <Trackpoint>
            <Time>2022-07-16T10:50:38.000Z</Time>
            <Position>
              <LatitudeDegrees>43.44427292235195636749267578125</LatitudeDegrees>
              <LongitudeDegrees>-4.88513552583754062652587890625</LongitudeDegrees>
            </Position>
            <AltitudeMeters>32.799999237060546875</AltitudeMeters>
            <DistanceMeters>NAN</DistanceMeters>
          </Trackpoint>
          <Trackpoint>
            <Time>2022-07-16T10:50:41.000Z</Time>
            <Position>
              <LatitudeDegrees>43.4442906081676483154296875</LatitudeDegrees>
              <LongitudeDegrees>-4.88519688136875629425048828125</LongitudeDegrees>
            </Position>
            <AltitudeMeters>33.200000762939453125</AltitudeMeters>
            <DistanceMeters>NAN</DistanceMeters>
          </Trackpoint>
          <Trackpoint>
            <Time>2022-07-16T10:50:45.000Z</Time>
            <Position>
              <LatitudeDegrees>43.44433008693158626556396484375</LatitudeDegrees>
              <LongitudeDegrees>-4.8852781020104885101318359375</LongitudeDegrees>
            </Position>
            <AltitudeMeters>33.799999237060546875</AltitudeMeters>
            <DistanceMeters>NAN</DistanceMeters>
          </Trackpoint>
          <Trackpoint>
            <Time>2022-07-16T10:50:48.000Z</Time>
            <Position>
              <LatitudeDegrees>43.44435657374560832977294921875</LatitudeDegrees>
              <LongitudeDegrees>-4.8853387869894504547119140625</LongitudeDegrees>
            </Position>
            <AltitudeMeters>34.59999847412109375</AltitudeMeters>
            <DistanceMeters>NAN</DistanceMeters>
          </Trackpoint>
          <Trackpoint>
            <Time>2022-07-16T10:50:50.000Z</Time>
            <Position>
              <LatitudeDegrees>43.44437367282807826995849609375</LatitudeDegrees>
              <LongitudeDegrees>-4.8853796906769275665283203125</LongitudeDegrees>
            </Position>
            <AltitudeMeters>35.200000762939453125</AltitudeMeters>
            <DistanceMeters>NAN</DistanceMeters>
          </Trackpoint>
          <Trackpoint>
            <Time>2022-07-16T10:50:52.000Z</Time>
            <Position>
              <LatitudeDegrees>43.44438641332089900970458984375</LatitudeDegrees>
              <LongitudeDegrees>-4.8854155652225017547607421875</LongitudeDegrees>
            </Position>
            <AltitudeMeters>35.59999847412109375</AltitudeMeters>
            <DistanceMeters>NAN</DistanceMeters>
          </Trackpoint>
          <Trackpoint>
            <Time>2022-07-16T10:50:56.000Z</Time>
            <Position>
              <LatitudeDegrees>43.444421701133251190185546875</LatitudeDegrees>
              <LongitudeDegrees>-4.88548002205789089202880859375</LongitudeDegrees>
            </Position>
            <AltitudeMeters>36.200000762939453125</AltitudeMeters>
            <DistanceMeters>NAN</DistanceMeters>
          </Trackpoint>
          <Trackpoint>
            <Time>2022-07-16T10:51:01.000Z</Time>
            <Position>
              <LatitudeDegrees>43.4444721601903438568115234375</LatitudeDegrees>
              <LongitudeDegrees>-4.88557507283985614776611328125</LongitudeDegrees>
            </Position>
            <AltitudeMeters>37</AltitudeMeters>
            <DistanceMeters>NAN</DistanceMeters>
          </Trackpoint>
          <Trackpoint>
            <Time>2022-07-16T10:51:04.000Z</Time>
            <Position>
              <LatitudeDegrees>43.444516919553279876708984375</LatitudeDegrees>
              <LongitudeDegrees>-4.88565201871097087860107421875</LongitudeDegrees>
            </Position>
            <AltitudeMeters>36.799999237060546875</AltitudeMeters>
            <DistanceMeters>NAN</DistanceMeters>
          </Trackpoint>
          <Trackpoint>
            <Time>2022-07-16T10:51:10.000Z</Time>
            <Position>
              <LatitudeDegrees>43.44460509717464447021484375</LatitudeDegrees>
              <LongitudeDegrees>-4.885774813592433929443359375</LongitudeDegrees>
            </Position>
            <AltitudeMeters>35</AltitudeMeters>
            <DistanceMeters>NAN</DistanceMeters>
          </Trackpoint>
          <Trackpoint>
            <Time>2022-07-16T10:51:16.000Z</Time>
            <Position>
              <LatitudeDegrees>43.4446649439632892608642578125</LatitudeDegrees>
              <LongitudeDegrees>-4.8858128674328327178955078125</LongitudeDegrees>
            </Position>
            <AltitudeMeters>34.200000762939453125</AltitudeMeters>
            <DistanceMeters>NAN</DistanceMeters>
          </Trackpoint>
          <Trackpoint>
            <Time>2022-07-16T10:51:17.000Z</Time>
            <Position>
              <LatitudeDegrees>43.4446649439632892608642578125</LatitudeDegrees>
              <LongitudeDegrees>-4.8858128674328327178955078125</LongitudeDegrees>
            </Position>
            <AltitudeMeters>34</AltitudeMeters>
            <DistanceMeters>NAN</DistanceMeters>
          </Trackpoint>
          <Trackpoint>
            <Time>2022-07-16T10:51:27.000Z</Time>
            <Position>
              <LatitudeDegrees>43.44469939358532428741455078125</LatitudeDegrees>
              <LongitudeDegrees>-4.8858484067022800445556640625</LongitudeDegrees>
            </Position>
            <AltitudeMeters>33.799999237060546875</AltitudeMeters>
            <DistanceMeters>NAN</DistanceMeters>
          </Trackpoint>
          <Trackpoint>
            <Time>2022-07-16T10:51:30.000Z</Time>
            <Position>
              <LatitudeDegrees>43.444718420505523681640625</LatitudeDegrees>
              <LongitudeDegrees>-4.8859043978154659271240234375</LongitudeDegrees>
            </Position>
            <AltitudeMeters>33.799999237060546875</AltitudeMeters>
            <DistanceMeters>NAN</DistanceMeters>
          </Trackpoint>
          <Trackpoint>
            <Time>2022-07-16T10:51:34.000Z</Time>
            <Position>
              <LatitudeDegrees>43.44475203193724155426025390625</LatitudeDegrees>
              <LongitudeDegrees>-4.8859969340264797210693359375</LongitudeDegrees>
            </Position>
            <AltitudeMeters>33.799999237060546875</AltitudeMeters>
            <DistanceMeters>NAN</DistanceMeters>
          </Trackpoint>
          <Trackpoint>
            <Time>2022-07-16T10:51:38.000Z</Time>
            <Position>
              <LatitudeDegrees>43.44480165280401706695556640625</LatitudeDegrees>
              <LongitudeDegrees>-4.88607061095535755157470703125</LongitudeDegrees>
            </Position>
            <AltitudeMeters>33.59999847412109375</AltitudeMeters>
            <DistanceMeters>NAN</DistanceMeters>
          </Trackpoint>
          <Trackpoint>
            <Time>2022-07-16T10:51:41.000Z</Time>
            <Position>
              <LatitudeDegrees>43.44485010020434856414794921875</LatitudeDegrees>
              <LongitudeDegrees>-4.8861545138061046600341796875</LongitudeDegrees>
            </Position>
            <AltitudeMeters>33.40000152587890625</AltitudeMeters>
            <DistanceMeters>NAN</DistanceMeters>
          </Trackpoint>
          <Trackpoint>
            <Time>2022-07-16T10:51:44.000Z</Time>
            <Position>
              <LatitudeDegrees>43.44491279684007167816162109375</LatitudeDegrees>
              <LongitudeDegrees>-4.88625786267220973968505859375</LongitudeDegrees>
            </Position>
            <AltitudeMeters>33.200000762939453125</AltitudeMeters>
            <DistanceMeters>NAN</DistanceMeters>
          </Trackpoint>
          <Trackpoint>
            <Time>2022-07-16T10:51:46.000Z</Time>
            <Position>
              <LatitudeDegrees>43.44494984485208988189697265625</LatitudeDegrees>
              <LongitudeDegrees>-4.8863452859222888946533203125</LongitudeDegrees>
            </Position>
            <AltitudeMeters>32.799999237060546875</AltitudeMeters>
            <DistanceMeters>NAN</DistanceMeters>
          </Trackpoint>
          <Trackpoint>
            <Time>2022-07-16T10:51:49.000Z</Time>
            <Position>
              <LatitudeDegrees>43.44497549347579479217529296875</LatitudeDegrees>
              <LongitudeDegrees>-4.886486269533634185791015625</LongitudeDegrees>
            </Position>
            <AltitudeMeters>32.200000762939453125</AltitudeMeters>
            <DistanceMeters>NAN</DistanceMeters>
          </Trackpoint>
          <Trackpoint>
            <Time>2022-07-16T10:51:52.000Z</Time>
            <Position>
              <LatitudeDegrees>43.44500047154724597930908203125</LatitudeDegrees>
              <LongitudeDegrees>-4.8866453580558300018310546875</LongitudeDegrees>
            </Position>
            <AltitudeMeters>31.799999237060546875</AltitudeMeters>
            <DistanceMeters>NAN</DistanceMeters>
          </Trackpoint>
          <Trackpoint>
            <Time>2022-07-16T10:51:54.000Z</Time>
            <Position>
              <LatitudeDegrees>43.4450307302176952362060546875</LatitudeDegrees>
              <LongitudeDegrees>-4.886741749942302703857421875</LongitudeDegrees>
            </Position>
            <AltitudeMeters>31.6000003814697265625</AltitudeMeters>
            <DistanceMeters>NAN</DistanceMeters>
          </Trackpoint>
          <Trackpoint>
            <Time>2022-07-16T10:51:58.000Z</Time>
            <Position>
              <LatitudeDegrees>43.44509770162403583526611328125</LatitudeDegrees>
              <LongitudeDegrees>-4.88690477795898914337158203125</LongitudeDegrees>
            </Position>
            <AltitudeMeters>30.3999996185302734375</AltitudeMeters>
            <DistanceMeters>NAN</DistanceMeters>
          </Trackpoint>
          <Trackpoint>
            <Time>2022-07-16T10:51:59.000Z</Time>
            <Position>
              <LatitudeDegrees>43.4451194107532501220703125</LatitudeDegrees>
              <LongitudeDegrees>-4.88693319261074066162109375</LongitudeDegrees>
            </Position>
            <AltitudeMeters>29.6000003814697265625</AltitudeMeters>
            <DistanceMeters>NAN</DistanceMeters>
          </Trackpoint>
          <Trackpoint>
            <Time>2022-07-16T10:52:00.000Z</Time>
            <Position>
              <LatitudeDegrees>43.44514732249081134796142578125</LatitudeDegrees>
              <LongitudeDegrees>-4.886955320835113525390625</LongitudeDegrees>
            </Position>
            <AltitudeMeters>29</AltitudeMeters>
            <DistanceMeters>NAN</DistanceMeters>
          </Trackpoint>
          <Trackpoint>
            <Time>2022-07-16T10:52:02.000Z</Time>
            <Position>
              <LatitudeDegrees>43.4452261961996555328369140625</LatitudeDegrees>
              <LongitudeDegrees>-4.8869742639362812042236328125</LongitudeDegrees>
            </Position>
            <AltitudeMeters>28</AltitudeMeters>
            <DistanceMeters>NAN</DistanceMeters>
          </Trackpoint>
          <Trackpoint>
            <Time>2022-07-16T10:52:03.000Z</Time>
            <Position>
              <LatitudeDegrees>43.4452669322490692138671875</LatitudeDegrees>
              <LongitudeDegrees>-4.88696529529988765716552734375</LongitudeDegrees>
            </Position>
            <AltitudeMeters>26.799999237060546875</AltitudeMeters>
            <DistanceMeters>NAN</DistanceMeters>
          </Trackpoint>
          <Trackpoint>
            <Time>2022-07-16T10:52:04.000Z</Time>
            <Position>
              <LatitudeDegrees>43.44530808739364147186279296875</LatitudeDegrees>
              <LongitudeDegrees>-4.88694299943745136260986328125</LongitudeDegrees>
            </Position>
            <AltitudeMeters>25.6000003814697265625</AltitudeMeters>
            <DistanceMeters>NAN</DistanceMeters>
          </Trackpoint>
          <Trackpoint>
            <Time>2022-07-16T10:52:06.000Z</Time>
            <Position>
              <LatitudeDegrees>43.44538318924605846405029296875</LatitudeDegrees>
              <LongitudeDegrees>-4.88687778823077678680419921875</LongitudeDegrees>
            </Position>
            <AltitudeMeters>24.3999996185302734375</AltitudeMeters>
            <DistanceMeters>NAN</DistanceMeters>
          </Trackpoint>
          <Trackpoint>
            <Time>2022-07-16T10:52:07.000Z</Time>
            <Position>
              <LatitudeDegrees>43.44541554339230060577392578125</LatitudeDegrees>
              <LongitudeDegrees>-4.88683789037168025970458984375</LongitudeDegrees>
            </Position>
            <AltitudeMeters>24</AltitudeMeters>
            <DistanceMeters>NAN</DistanceMeters>
          </Trackpoint>
          <Trackpoint>
            <Time>2022-07-16T10:52:09.000Z</Time>
            <Position>
              <LatitudeDegrees>43.44548544846475124359130859375</LatitudeDegrees>
              <LongitudeDegrees>-4.88677619956433773040771484375</LongitudeDegrees>
            </Position>
            <AltitudeMeters>23</AltitudeMeters>
            <DistanceMeters>NAN</DistanceMeters>
          </Trackpoint>
          <Trackpoint>
            <Time>2022-07-16T10:52:11.000Z</Time>
            <Position>
              <LatitudeDegrees>43.44556960277259349822998046875</LatitudeDegrees>
              <LongitudeDegrees>-4.886737726628780364990234375</LongitudeDegrees>
            </Position>
            <AltitudeMeters>22.3999996185302734375</AltitudeMeters>
            <DistanceMeters>NAN</DistanceMeters>
          </Trackpoint>
          <Trackpoint>
            <Time>2022-07-16T10:52:12.000Z</Time>
            <Position>
              <LatitudeDegrees>43.44561754725873470306396484375</LatitudeDegrees>
              <LongitudeDegrees>-4.88672691397368907928466796875</LongitudeDegrees>
            </Position>
            <AltitudeMeters>22.200000762939453125</AltitudeMeters>
            <DistanceMeters>NAN</DistanceMeters>
          </Trackpoint>
          <Trackpoint>
            <Time>2022-07-16T10:52:15.000Z</Time>
            <Position>
              <LatitudeDegrees>43.44576842151582241058349609375</LatitudeDegrees>
              <LongitudeDegrees>-4.88668735139071941375732421875</LongitudeDegrees>
            </Position>
            <AltitudeMeters>22</AltitudeMeters>
            <DistanceMeters>NAN</DistanceMeters>
          </Trackpoint>
          <Trackpoint>
            <Time>2022-07-16T10:52:18.000Z</Time>
            <Position>
              <LatitudeDegrees>43.445918373763561248779296875</LatitudeDegrees>
              <LongitudeDegrees>-4.8866255767643451690673828125</LongitudeDegrees>
            </Position>
            <AltitudeMeters>22</AltitudeMeters>
            <DistanceMeters>NAN</DistanceMeters>
          </Trackpoint>
          <Trackpoint>
            <Time>2022-07-16T10:52:21.000Z</Time>
            <Position>
              <LatitudeDegrees>43.44606128521263599395751953125</LatitudeDegrees>
              <LongitudeDegrees>-4.88660730421543121337890625</LongitudeDegrees>
            </Position>
            <AltitudeMeters>21.3999996185302734375</AltitudeMeters>
            <DistanceMeters>NAN</DistanceMeters>
          </Trackpoint>
          <Trackpoint>
            <Time>2022-07-16T10:52:23.000Z</Time>
            <Position>
              <LatitudeDegrees>43.4461466968059539794921875</LatitudeDegrees>
              <LongitudeDegrees>-4.88661979325115680694580078125</LongitudeDegrees>
            </Position>
            <AltitudeMeters>21.200000762939453125</AltitudeMeters>
            <DistanceMeters>NAN</DistanceMeters>
          </Trackpoint>
          <Trackpoint>
            <Time>2022-07-16T10:52:25.000Z</Time>
            <Position>
              <LatitudeDegrees>43.44622406177222728729248046875</LatitudeDegrees>
              <LongitudeDegrees>-4.88663471303880214691162109375</LongitudeDegrees>
            </Position>
            <AltitudeMeters>21</AltitudeMeters>
            <DistanceMeters>NAN</DistanceMeters>
          </Trackpoint>
          <Trackpoint>
            <Time>2022-07-16T10:52:30.000Z</Time>
            <Position>
              <LatitudeDegrees>43.44640754163265228271484375</LatitudeDegrees>
              <LongitudeDegrees>-4.88666019402444362640380859375</LongitudeDegrees>
            </Position>
            <AltitudeMeters>20.6000003814697265625</AltitudeMeters>
            <DistanceMeters>NAN</DistanceMeters>
          </Trackpoint>
          <Trackpoint>
            <Time>2022-07-16T10:52:33.000Z</Time>
            <Position>
              <LatitudeDegrees>43.4464846551418304443359375</LatitudeDegrees>
              <LongitudeDegrees>-4.8866785503923892974853515625</LongitudeDegrees>
            </Position>
            <AltitudeMeters>20.200000762939453125</AltitudeMeters>
            <DistanceMeters>NAN</DistanceMeters>
          </Trackpoint>
          <Trackpoint>
            <Time>2022-07-16T10:52:34.000Z</Time>
            <Position>
              <LatitudeDegrees>43.44650083221495151519775390625</LatitudeDegrees>
              <LongitudeDegrees>-4.88668332807719707489013671875</LongitudeDegrees>
            </Position>
            <AltitudeMeters>20.200000762939453125</AltitudeMeters>
            <DistanceMeters>NAN</DistanceMeters>
          </Trackpoint>
          <Trackpoint>
            <Time>2022-07-16T10:52:36.000Z</Time>
            <Position>
              <LatitudeDegrees>43.4465206973254680633544921875</LatitudeDegrees>
              <LongitudeDegrees>-4.8866922967135906219482421875</LongitudeDegrees>
            </Position>
            <AltitudeMeters>19.799999237060546875</AltitudeMeters>
            <DistanceMeters>NAN</DistanceMeters>
          </Trackpoint>
          <Trackpoint>
            <Time>2022-07-16T10:52:38.000Z</Time>
            <Position>
              <LatitudeDegrees>43.4465247206389904022216796875</LatitudeDegrees>
              <LongitudeDegrees>-4.88669305108487606048583984375</LongitudeDegrees>
            </Position>
            <AltitudeMeters>19.6000003814697265625</AltitudeMeters>
            <DistanceMeters>NAN</DistanceMeters>
          </Trackpoint>
          <Trackpoint>
            <Time>2022-07-16T10:53:28.000Z</Time>
            <Position>
              <LatitudeDegrees>43.44656453467905521392822265625</LatitudeDegrees>
              <LongitudeDegrees>-4.8867057077586650848388671875</LongitudeDegrees>
            </Position>
            <AltitudeMeters>19.799999237060546875</AltitudeMeters>
            <DistanceMeters>NAN</DistanceMeters>
          </Trackpoint>
          <Trackpoint>
            <Time>2022-07-16T10:53:29.000Z</Time>
            <Position>
              <LatitudeDegrees>43.44658968038856983184814453125</LatitudeDegrees>
              <LongitudeDegrees>-4.88671333529055118560791015625</LongitudeDegrees>
            </Position>
            <AltitudeMeters>19.799999237060546875</AltitudeMeters>
            <DistanceMeters>NAN</DistanceMeters>
          </Trackpoint>
          <Trackpoint>
            <Time>2022-07-16T10:53:32.000Z</Time>
            <Position>
              <LatitudeDegrees>43.44665355049073696136474609375</LatitudeDegrees>
              <LongitudeDegrees>-4.88671367056667804718017578125</LongitudeDegrees>
            </Position>
            <AltitudeMeters>19.799999237060546875</AltitudeMeters>
            <DistanceMeters>NAN</DistanceMeters>
          </Trackpoint>
          <Trackpoint>
            <Time>2022-07-16T10:53:33.000Z</Time>
            <Position>
              <LatitudeDegrees>43.44666494987905025482177734375</LatitudeDegrees>
              <LongitudeDegrees>-4.88670512102544307708740234375</LongitudeDegrees>
            </Position>
            <AltitudeMeters>19.6000003814697265625</AltitudeMeters>
            <DistanceMeters>NAN</DistanceMeters>
          </Trackpoint>
          <Trackpoint>
            <Time>2022-07-16T10:53:38.000Z</Time>
            <Position>
              <LatitudeDegrees>43.4467208571732044219970703125</LatitudeDegrees>
              <LongitudeDegrees>-4.88665751181542873382568359375</LongitudeDegrees>
            </Position>
            <AltitudeMeters>18.799999237060546875</AltitudeMeters>
            <DistanceMeters>NAN</DistanceMeters>
          </Trackpoint>
          <Trackpoint>
            <Time>2022-07-16T10:53:40.000Z</Time>
            <Position>
              <LatitudeDegrees>43.44675648026168346405029296875</LatitudeDegrees>
              <LongitudeDegrees>-4.8866151832044124603271484375</LongitudeDegrees>
            </Position>
            <AltitudeMeters>18.6000003814697265625</AltitudeMeters>
            <DistanceMeters>NAN</DistanceMeters>
          </Trackpoint>
          <Trackpoint>
            <Time>2022-07-16T10:53:45.000Z</Time>
            <Position>
              <LatitudeDegrees>43.44692411832511425018310546875</LatitudeDegrees>
              <LongitudeDegrees>-4.88645517267286777496337890625</LongitudeDegrees>
            </Position>
            <AltitudeMeters>17.6000003814697265625</AltitudeMeters>
            <DistanceMeters>NAN</DistanceMeters>
          </Trackpoint>
          <Trackpoint>
            <Time>2022-07-16T10:53:46.000Z</Time>
            <Position>
              <LatitudeDegrees>43.4469635970890522003173828125</LatitudeDegrees>
              <LongitudeDegrees>-4.88640270195901393890380859375</LongitudeDegrees>
            </Position>
            <AltitudeMeters>17.3999996185302734375</AltitudeMeters>
            <DistanceMeters>NAN</DistanceMeters>
          </Trackpoint>
          <Trackpoint>
            <Time>2022-07-16T10:53:48.000Z</Time>
            <Position>
              <LatitudeDegrees>43.4470470808446407318115234375</LatitudeDegrees>
              <LongitudeDegrees>-4.8862919770181179046630859375</LongitudeDegrees>
            </Position>
            <AltitudeMeters>16.200000762939453125</AltitudeMeters>
            <DistanceMeters>NAN</DistanceMeters>
          </Trackpoint>
          <Trackpoint>
            <Time>2022-07-16T10:53:49.000Z</Time>
            <Position>
              <LatitudeDegrees>43.4470936842262744903564453125</LatitudeDegrees>
              <LongitudeDegrees>-4.88624730147421360015869140625</LongitudeDegrees>
            </Position>
            <AltitudeMeters>15.80000019073486328125</AltitudeMeters>
            <DistanceMeters>NAN</DistanceMeters>
          </Trackpoint>
          <Trackpoint>
            <Time>2022-07-16T10:53:50.000Z</Time>
            <Position>
              <LatitudeDegrees>43.4471376053988933563232421875</LatitudeDegrees>
              <LongitudeDegrees>-4.88621545024216175079345703125</LongitudeDegrees>
            </Position>
            <AltitudeMeters>15.19999980926513671875</AltitudeMeters>
            <DistanceMeters>NAN</DistanceMeters>
          </Trackpoint>
          <Trackpoint>
            <Time>2022-07-16T10:53:52.000Z</Time>
            <Position>
              <LatitudeDegrees>43.4472220949828624725341796875</LatitudeDegrees>
              <LongitudeDegrees>-4.88617940805852413177490234375</LongitudeDegrees>
            </Position>
            <AltitudeMeters>14.19999980926513671875</AltitudeMeters>
            <DistanceMeters>NAN</DistanceMeters>
          </Trackpoint>
          <Trackpoint>
            <Time>2022-07-16T10:53:53.000Z</Time>
            <Position>
              <LatitudeDegrees>43.44725922681391239166259765625</LatitudeDegrees>
              <LongitudeDegrees>-4.88614998757839202880859375</LongitudeDegrees>
            </Position>
            <AltitudeMeters>13.6000003814697265625</AltitudeMeters>
            <DistanceMeters>NAN</DistanceMeters>
          </Trackpoint>
          <Trackpoint>
            <Time>2022-07-16T10:53:55.000Z</Time>
            <Position>
              <LatitudeDegrees>43.44732477329671382904052734375</LatitudeDegrees>
              <LongitudeDegrees>-4.88608159124851226806640625</LongitudeDegrees>
            </Position>
            <AltitudeMeters>13</AltitudeMeters>
            <DistanceMeters>NAN</DistanceMeters>
          </Trackpoint>
          <Trackpoint>
            <Time>2022-07-16T10:53:56.000Z</Time>
            <Position>
              <LatitudeDegrees>43.44734908081591129302978515625</LatitudeDegrees>
              <LongitudeDegrees>-4.8860495723783969879150390625</LongitudeDegrees>
            </Position>
            <AltitudeMeters>12.6000003814697265625</AltitudeMeters>
            <DistanceMeters>NAN</DistanceMeters>
          </Trackpoint>
          <Trackpoint>
            <Time>2022-07-16T10:53:57.000Z</Time>
            <Position>
              <LatitudeDegrees>43.4473702870309352874755859375</LatitudeDegrees>
              <LongitudeDegrees>-4.88602451048791408538818359375</LongitudeDegrees>
            </Position>
            <AltitudeMeters>12.3999996185302734375</AltitudeMeters>
            <DistanceMeters>NAN</DistanceMeters>
          </Trackpoint>
          <Trackpoint>
            <Time>2022-07-16T10:54:00.000Z</Time>
            <Position>
              <LatitudeDegrees>43.447405993938446044921875</LatitudeDegrees>
              <LongitudeDegrees>-4.88597790710628032684326171875</LongitudeDegrees>
            </Position>
            <AltitudeMeters>12.19999980926513671875</AltitudeMeters>
            <DistanceMeters>NAN</DistanceMeters>
          </Trackpoint>
          <Trackpoint>
            <Time>2022-07-16T10:54:03.000Z</Time>
            <Position>
              <LatitudeDegrees>43.44740943051874637603759765625</LatitudeDegrees>
              <LongitudeDegrees>-4.88597237505018711090087890625</LongitudeDegrees>
            </Position>
            <AltitudeMeters>12.19999980926513671875</AltitudeMeters>
            <DistanceMeters>NAN</DistanceMeters>
          </Trackpoint>
          <Trackpoint>
            <Time>2022-07-16T11:00:43.000Z</Time>
            <Position>
              <LatitudeDegrees>43.44736098311841487884521484375</LatitudeDegrees>
              <LongitudeDegrees>-4.88604546524584293365478515625</LongitudeDegrees>
            </Position>
            <AltitudeMeters>11.6000003814697265625</AltitudeMeters>
            <DistanceMeters>NAN</DistanceMeters>
          </Trackpoint>
          <Trackpoint>
            <Time>2022-07-16T11:00:44.000Z</Time>
            <Position>
              <LatitudeDegrees>43.4473468177020549774169921875</LatitudeDegrees>
              <LongitudeDegrees>-4.88606038503348827362060546875</LongitudeDegrees>
            </Position>
            <AltitudeMeters>11.6000003814697265625</AltitudeMeters>
            <DistanceMeters>NAN</DistanceMeters>
          </Trackpoint>
          <Trackpoint>
            <Time>2022-07-16T11:00:48.000Z</Time>
            <Position>
              <LatitudeDegrees>43.44728001393377780914306640625</LatitudeDegrees>
              <LongitudeDegrees>-4.8861273564398288726806640625</LongitudeDegrees>
            </Position>
            <AltitudeMeters>12.3999996185302734375</AltitudeMeters>
            <DistanceMeters>NAN</DistanceMeters>
          </Trackpoint>
          <Trackpoint>
            <Time>2022-07-16T11:00:49.000Z</Time>
            <Position>
              <LatitudeDegrees>43.4472629986703395843505859375</LatitudeDegrees>
              <LongitudeDegrees>-4.88613951019942760467529296875</LongitudeDegrees>
            </Position>
            <AltitudeMeters>12.6000003814697265625</AltitudeMeters>
            <DistanceMeters>NAN</DistanceMeters>
          </Trackpoint>
          <Trackpoint>
            <Time>2022-07-16T11:00:51.000Z</Time>
            <Position>
              <LatitudeDegrees>43.44723357819020748138427734375</LatitudeDegrees>
              <LongitudeDegrees>-4.88616029731929302215576171875</LongitudeDegrees>
            </Position>
            <AltitudeMeters>12.6000003814697265625</AltitudeMeters>
            <DistanceMeters>NAN</DistanceMeters>
          </Trackpoint>
          <Trackpoint>
            <Time>2022-07-16T11:00:54.000Z</Time>
            <Position>
              <LatitudeDegrees>43.44718630425631999969482421875</LatitudeDegrees>
              <LongitudeDegrees>-4.88619281910359859466552734375</LongitudeDegrees>
            </Position>
            <AltitudeMeters>12.6000003814697265625</AltitudeMeters>
            <DistanceMeters>NAN</DistanceMeters>
          </Trackpoint>
          <Trackpoint>
            <Time>2022-07-16T11:00:58.000Z</Time>
            <Position>
              <LatitudeDegrees>43.44712310470640659332275390625</LatitudeDegrees>
              <LongitudeDegrees>-4.88623070530593395233154296875</LongitudeDegrees>
            </Position>
            <AltitudeMeters>12.80000019073486328125</AltitudeMeters>
            <DistanceMeters>NAN</DistanceMeters>
          </Trackpoint>
          <Trackpoint>
            <Time>2022-07-16T11:01:01.000Z</Time>
            <Position>
              <LatitudeDegrees>43.4470839612185955047607421875</LatitudeDegrees>
              <LongitudeDegrees>-4.88627160899341106414794921875</LongitudeDegrees>
            </Position>
            <AltitudeMeters>13</AltitudeMeters>
            <DistanceMeters>NAN</DistanceMeters>
          </Trackpoint>
          <Trackpoint>
            <Time>2022-07-16T11:01:06.000Z</Time>
            <Position>
              <LatitudeDegrees>43.44700776971876621246337890625</LatitudeDegrees>
              <LongitudeDegrees>-4.88632542081177234649658203125</LongitudeDegrees>
            </Position>
            <AltitudeMeters>13.3999996185302734375</AltitudeMeters>
            <DistanceMeters>NAN</DistanceMeters>
          </Trackpoint>
          <Trackpoint>
            <Time>2022-07-16T11:01:08.000Z</Time>
            <Position>
              <LatitudeDegrees>43.44698949716985225677490234375</LatitudeDegrees>
              <LongitudeDegrees>-4.88633665256202220916748046875</LongitudeDegrees>
            </Position>
            <AltitudeMeters>13.6000003814697265625</AltitudeMeters>
            <DistanceMeters>NAN</DistanceMeters>
          </Trackpoint>
          <Trackpoint>
            <Time>2022-07-16T11:01:12.000Z</Time>
            <Position>
              <LatitudeDegrees>43.44695739448070526123046875</LatitudeDegrees>
              <LongitudeDegrees>-4.88638459704816341400146484375</LongitudeDegrees>
            </Position>
            <AltitudeMeters>13.80000019073486328125</AltitudeMeters>
            <DistanceMeters>NAN</DistanceMeters>
          </Trackpoint>
          <Trackpoint>
            <Time>2022-07-16T11:01:13.000Z</Time>
            <Position>
              <LatitudeDegrees>43.44695127569139003753662109375</LatitudeDegrees>
              <LongitudeDegrees>-4.8863982595503330230712890625</LongitudeDegrees>
            </Position>
            <AltitudeMeters>13.80000019073486328125</AltitudeMeters>
            <DistanceMeters>NAN</DistanceMeters>
          </Trackpoint>
          <Trackpoint>
            <Time>2022-07-16T11:01:15.000Z</Time>
            <Position>
              <LatitudeDegrees>43.4469330869615077972412109375</LatitudeDegrees>
              <LongitudeDegrees>-4.886417202651500701904296875</LongitudeDegrees>
            </Position>
            <AltitudeMeters>14</AltitudeMeters>
            <DistanceMeters>NAN</DistanceMeters>
          </Trackpoint>
          <Trackpoint>
            <Time>2022-07-16T11:01:17.000Z</Time>
            <Position>
              <LatitudeDegrees>43.44691372476518154144287109375</LatitudeDegrees>
              <LongitudeDegrees>-4.88643824122846126556396484375</LongitudeDegrees>
            </Position>
            <AltitudeMeters>14.19999980926513671875</AltitudeMeters>
            <DistanceMeters>NAN</DistanceMeters>
          </Trackpoint>
          <Trackpoint>
            <Time>2022-07-16T11:01:19.000Z</Time>
            <Position>
              <LatitudeDegrees>43.44689964316785335540771484375</LatitudeDegrees>
              <LongitudeDegrees>-4.8864658176898956298828125</LongitudeDegrees>
            </Position>
            <AltitudeMeters>14.3999996185302734375</AltitudeMeters>
            <DistanceMeters>NAN</DistanceMeters>
          </Trackpoint>
          <Trackpoint>
            <Time>2022-07-16T11:01:21.000Z</Time>
            <Position>
              <LatitudeDegrees>43.4468841366469860076904296875</LatitudeDegrees>
              <LongitudeDegrees>-4.88649842329323291778564453125</LongitudeDegrees>
            </Position>
            <AltitudeMeters>14.3999996185302734375</AltitudeMeters>
            <DistanceMeters>NAN</DistanceMeters>
          </Trackpoint>
          <Trackpoint>
            <Time>2022-07-16T11:01:22.000Z</Time>
            <Position>
              <LatitudeDegrees>43.44687583856284618377685546875</LatitudeDegrees>
              <LongitudeDegrees>-4.886510074138641357421875</LongitudeDegrees>
            </Position>
            <AltitudeMeters>14.3999996185302734375</AltitudeMeters>
            <DistanceMeters>NAN</DistanceMeters>
          </Trackpoint>
          <Trackpoint>
            <Time>2022-07-16T11:01:25.000Z</Time>
            <Position>
              <LatitudeDegrees>43.44684013165533542633056640625</LatitudeDegrees>
              <LongitudeDegrees>-4.88653278909623622894287109375</LongitudeDegrees>
            </Position>
            <AltitudeMeters>14.6000003814697265625</AltitudeMeters>
            <DistanceMeters>NAN</DistanceMeters>
          </Trackpoint>
          <Trackpoint>
            <Time>2022-07-16T11:01:26.000Z</Time>
            <Position>
              <LatitudeDegrees>43.44682806171476840972900390625</LatitudeDegrees>
              <LongitudeDegrees>-4.8865447752177715301513671875</LongitudeDegrees>
            </Position>
            <AltitudeMeters>14.80000019073486328125</AltitudeMeters>
            <DistanceMeters>NAN</DistanceMeters>
          </Trackpoint>
          <Trackpoint>
            <Time>2022-07-16T11:01:34.000Z</Time>
            <Position>
              <LatitudeDegrees>43.44673988409340381622314453125</LatitudeDegrees>
              <LongitudeDegrees>-4.8866161890327930450439453125</LongitudeDegrees>
            </Position>
            <AltitudeMeters>15.6000003814697265625</AltitudeMeters>
            <DistanceMeters>NAN</DistanceMeters>
          </Trackpoint>
          <Trackpoint>
            <Time>2022-07-16T11:01:35.000Z</Time>
            <Position>
              <LatitudeDegrees>43.4467285685241222381591796875</LatitudeDegrees>
              <LongitudeDegrees>-4.88662716932594776153564453125</LongitudeDegrees>
            </Position>
            <AltitudeMeters>15.80000019073486328125</AltitudeMeters>
            <DistanceMeters>NAN</DistanceMeters>
          </Trackpoint>
          <Trackpoint>
            <Time>2022-07-16T11:01:42.000Z</Time>
            <Position>
              <LatitudeDegrees>43.4466517902910709381103515625</LatitudeDegrees>
              <LongitudeDegrees>-4.88669087179005146026611328125</LongitudeDegrees>
            </Position>
            <AltitudeMeters>16.200000762939453125</AltitudeMeters>
            <DistanceMeters>NAN</DistanceMeters>
          </Trackpoint>
          <Trackpoint>
            <Time>2022-07-16T11:01:45.000Z</Time>
            <Position>
              <LatitudeDegrees>43.4466242976486682891845703125</LatitudeDegrees>
              <LongitudeDegrees>-4.88671551458537578582763671875</LongitudeDegrees>
            </Position>
            <AltitudeMeters>16.3999996185302734375</AltitudeMeters>
            <DistanceMeters>NAN</DistanceMeters>
          </Trackpoint>
          <Trackpoint>
            <Time>2022-07-16T11:01:46.000Z</Time>
            <Position>
              <LatitudeDegrees>43.44661599956452846527099609375</LatitudeDegrees>
              <LongitudeDegrees>-4.886720962822437286376953125</LongitudeDegrees>
            </Position>
            <AltitudeMeters>16.6000003814697265625</AltitudeMeters>
            <DistanceMeters>NAN</DistanceMeters>
          </Trackpoint>
          <Trackpoint>
            <Time>2022-07-16T11:01:48.000Z</Time>
            <Position>
              <LatitudeDegrees>43.44659328460693359375</LatitudeDegrees>
              <LongitudeDegrees>-4.88672506995499134063720703125</LongitudeDegrees>
            </Position>
            <AltitudeMeters>16.799999237060546875</AltitudeMeters>
            <DistanceMeters>NAN</DistanceMeters>
          </Trackpoint>
          <Trackpoint>
            <Time>2022-07-16T11:01:50.000Z</Time>
            <Position>
              <LatitudeDegrees>43.44656503759324550628662109375</LatitudeDegrees>
              <LongitudeDegrees>-4.88672255538403987884521484375</LongitudeDegrees>
            </Position>
            <AltitudeMeters>16.799999237060546875</AltitudeMeters>
            <DistanceMeters>NAN</DistanceMeters>
          </Trackpoint>
          <Trackpoint>
            <Time>2022-07-16T11:01:51.000Z</Time>
            <Position>
              <LatitudeDegrees>43.4465491957962512969970703125</LatitudeDegrees>
              <LongitudeDegrees>-4.886719621717929840087890625</LongitudeDegrees>
            </Position>
            <AltitudeMeters>16.799999237060546875</AltitudeMeters>
            <DistanceMeters>NAN</DistanceMeters>
          </Trackpoint>
          <Trackpoint>
            <Time>2022-07-16T11:01:52.000Z</Time>
            <Position>
              <LatitudeDegrees>43.44653427600860595703125</LatitudeDegrees>
              <LongitudeDegrees>-4.886718280613422393798828125</LongitudeDegrees>
            </Position>
            <AltitudeMeters>17</AltitudeMeters>
            <DistanceMeters>NAN</DistanceMeters>
          </Trackpoint>
          <Trackpoint>
            <Time>2022-07-16T11:01:53.000Z</Time>
            <Position>
              <LatitudeDegrees>43.4465176798403263092041015625</LatitudeDegrees>
              <LongitudeDegrees>-4.88671417348086833953857421875</LongitudeDegrees>
            </Position>
            <AltitudeMeters>17</AltitudeMeters>
            <DistanceMeters>NAN</DistanceMeters>
          </Trackpoint>
          <Trackpoint>
            <Time>2022-07-16T11:01:54.000Z</Time>
            <Position>
              <LatitudeDegrees>43.446501083672046661376953125</LatitudeDegrees>
              <LongitudeDegrees>-4.88670746795833110809326171875</LongitudeDegrees>
            </Position>
            <AltitudeMeters>17</AltitudeMeters>
            <DistanceMeters>NAN</DistanceMeters>
          </Trackpoint>
          <Trackpoint>
            <Time>2022-07-16T11:01:57.000Z</Time>
            <Position>
              <LatitudeDegrees>43.4464650414884090423583984375</LatitudeDegrees>
              <LongitudeDegrees>-4.88668768666684627532958984375</LongitudeDegrees>
            </Position>
            <AltitudeMeters>17.200000762939453125</AltitudeMeters>
            <DistanceMeters>NAN</DistanceMeters>
          </Trackpoint>
          <Trackpoint>
            <Time>2022-07-16T11:02:03.000Z</Time>
            <Position>
              <LatitudeDegrees>43.4463601000607013702392578125</LatitudeDegrees>
              <LongitudeDegrees>-4.8866537399590015411376953125</LongitudeDegrees>
            </Position>
            <AltitudeMeters>17</AltitudeMeters>
            <DistanceMeters>NAN</DistanceMeters>
          </Trackpoint>
          <Trackpoint>
            <Time>2022-07-16T11:02:05.000Z</Time>
            <Position>
              <LatitudeDegrees>43.44631844200193881988525390625</LatitudeDegrees>
              <LongitudeDegrees>-4.88664996810257434844970703125</LongitudeDegrees>
            </Position>
            <AltitudeMeters>17</AltitudeMeters>
            <DistanceMeters>NAN</DistanceMeters>
          </Trackpoint>
          <Trackpoint>
            <Time>2022-07-16T11:02:06.000Z</Time>
            <Position>
              <LatitudeDegrees>43.44630033709108829498291015625</LatitudeDegrees>
              <LongitudeDegrees>-4.88664619624614715576171875</LongitudeDegrees>
            </Position>
            <AltitudeMeters>17</AltitudeMeters>
            <DistanceMeters>NAN</DistanceMeters>
          </Trackpoint>
          <Trackpoint>
            <Time>2022-07-16T11:02:14.000Z</Time>
            <Position>
              <LatitudeDegrees>43.4461391530930995941162109375</LatitudeDegrees>
              <LongitudeDegrees>-4.886636473238468170166015625</LongitudeDegrees>
            </Position>
            <AltitudeMeters>17.200000762939453125</AltitudeMeters>
            <DistanceMeters>NAN</DistanceMeters>
          </Trackpoint>
          <Trackpoint>
            <Time>2022-07-16T11:02:19.000Z</Time>
            <Position>
              <LatitudeDegrees>43.446037061512470245361328125</LatitudeDegrees>
              <LongitudeDegrees>-4.8866208828985691070556640625</LongitudeDegrees>
            </Position>
            <AltitudeMeters>17.200000762939453125</AltitudeMeters>
            <DistanceMeters>NAN</DistanceMeters>
          </Trackpoint>
          <Trackpoint>
            <Time>2022-07-16T11:02:23.000Z</Time>
            <Position>
              <LatitudeDegrees>43.4459436871111392974853515625</LatitudeDegrees>
              <LongitudeDegrees>-4.8866185359656810760498046875</LongitudeDegrees>
            </Position>
            <AltitudeMeters>17.200000762939453125</AltitudeMeters>
            <DistanceMeters>NAN</DistanceMeters>
          </Trackpoint>
          <Trackpoint>
            <Time>2022-07-16T11:02:29.000Z</Time>
            <Position>
              <LatitudeDegrees>43.445832543075084686279296875</LatitudeDegrees>
              <LongitudeDegrees>-4.886641167104244232177734375</LongitudeDegrees>
            </Position>
            <AltitudeMeters>17.3999996185302734375</AltitudeMeters>
            <DistanceMeters>NAN</DistanceMeters>
          </Trackpoint>
          <Trackpoint>
            <Time>2022-07-16T11:02:37.000Z</Time>
            <Position>
              <LatitudeDegrees>43.44570689834654331207275390625</LatitudeDegrees>
              <LongitudeDegrees>-4.88669841550290584564208984375</LongitudeDegrees>
            </Position>
            <AltitudeMeters>17.3999996185302734375</AltitudeMeters>
            <DistanceMeters>NAN</DistanceMeters>
          </Trackpoint>
          <Trackpoint>
            <Time>2022-07-16T11:02:40.000Z</Time>
            <Position>
              <LatitudeDegrees>43.44564688391983509063720703125</LatitudeDegrees>
              <LongitudeDegrees>-4.8867003433406352996826171875</LongitudeDegrees>
            </Position>
            <AltitudeMeters>17.6000003814697265625</AltitudeMeters>
            <DistanceMeters>NAN</DistanceMeters>
          </Trackpoint>
          <Trackpoint>
            <Time>2022-07-16T11:02:42.000Z</Time>
            <Position>
              <LatitudeDegrees>43.44561235047876834869384765625</LatitudeDegrees>
              <LongitudeDegrees>-4.886706881225109100341796875</LongitudeDegrees>
            </Position>
            <AltitudeMeters>17.799999237060546875</AltitudeMeters>
            <DistanceMeters>NAN</DistanceMeters>
          </Trackpoint>
          <Trackpoint>
            <Time>2022-07-16T11:02:46.000Z</Time>
            <Position>
              <LatitudeDegrees>43.44554923474788665771484375</LatitudeDegrees>
              <LongitudeDegrees>-4.8867233097553253173828125</LongitudeDegrees>
            </Position>
            <AltitudeMeters>17.799999237060546875</AltitudeMeters>
            <DistanceMeters>NAN</DistanceMeters>
          </Trackpoint>
          <Trackpoint>
            <Time>2022-07-16T11:02:56.000Z</Time>
            <Position>
              <LatitudeDegrees>43.44539626501500606536865234375</LatitudeDegrees>
              <LongitudeDegrees>-4.88679581321775913238525390625</LongitudeDegrees>
            </Position>
            <AltitudeMeters>18.200000762939453125</AltitudeMeters>
            <DistanceMeters>NAN</DistanceMeters>
          </Trackpoint>
          <Trackpoint>
            <Time>2022-07-16T11:03:07.000Z</Time>
            <Position>
              <LatitudeDegrees>43.445277996361255645751953125</LatitudeDegrees>
              <LongitudeDegrees>-4.88690595142543315887451171875</LongitudeDegrees>
            </Position>
            <AltitudeMeters>18.799999237060546875</AltitudeMeters>
            <DistanceMeters>NAN</DistanceMeters>
          </Trackpoint>
          <Trackpoint>
            <Time>2022-07-16T11:03:11.000Z</Time>
            <Position>
              <LatitudeDegrees>43.4452342428267002105712890625</LatitudeDegrees>
              <LongitudeDegrees>-4.8869316838681697845458984375</LongitudeDegrees>
            </Position>
            <AltitudeMeters>19.3999996185302734375</AltitudeMeters>
            <DistanceMeters>NAN</DistanceMeters>
          </Trackpoint>
          <Trackpoint>
            <Time>2022-07-16T11:03:15.000Z</Time>
            <Position>
              <LatitudeDegrees>43.44522225670516490936279296875</LatitudeDegrees>
              <LongitudeDegrees>-4.88693780265748500823974609375</LongitudeDegrees>
            </Position>
            <AltitudeMeters>19.6000003814697265625</AltitudeMeters>
            <DistanceMeters>NAN</DistanceMeters>
          </Trackpoint>
          <Trackpoint>
            <Time>2022-07-16T11:06:16.000Z</Time>
            <Position>
              <LatitudeDegrees>43.4452079236507415771484375</LatitudeDegrees>
              <LongitudeDegrees>-4.8870248906314373016357421875</LongitudeDegrees>
            </Position>
            <AltitudeMeters>22</AltitudeMeters>
            <DistanceMeters>NAN</DistanceMeters>
          </Trackpoint>
          <Trackpoint>
            <Time>2022-07-16T11:06:18.000Z</Time>
            <Position>
              <LatitudeDegrees>43.44518956728279590606689453125</LatitudeDegrees>
              <LongitudeDegrees>-4.8870854079723358154296875</LongitudeDegrees>
            </Position>
            <AltitudeMeters>22.200000762939453125</AltitudeMeters>
            <DistanceMeters>NAN</DistanceMeters>
          </Trackpoint>
          <Trackpoint>
            <Time>2022-07-16T11:06:24.000Z</Time>
            <Position>
              <LatitudeDegrees>43.4451249428093433380126953125</LatitudeDegrees>
              <LongitudeDegrees>-4.88723452202975749969482421875</LongitudeDegrees>
            </Position>
            <AltitudeMeters>23</AltitudeMeters>
            <DistanceMeters>NAN</DistanceMeters>
          </Trackpoint>
          <Trackpoint>
            <Time>2022-07-16T11:06:26.000Z</Time>
            <Position>
              <LatitudeDegrees>43.44510591588914394378662109375</LatitudeDegrees>
              <LongitudeDegrees>-4.88728330470621585845947265625</LongitudeDegrees>
            </Position>
            <AltitudeMeters>23.3999996185302734375</AltitudeMeters>
            <DistanceMeters>NAN</DistanceMeters>
          </Trackpoint>
          <Trackpoint>
            <Time>2022-07-16T11:06:32.000Z</Time>
            <Position>
              <LatitudeDegrees>43.4450585581362247467041015625</LatitudeDegrees>
              <LongitudeDegrees>-4.88740836270153522491455078125</LongitudeDegrees>
            </Position>
            <AltitudeMeters>24.6000003814697265625</AltitudeMeters>
            <DistanceMeters>NAN</DistanceMeters>
          </Trackpoint>
          <Trackpoint>
            <Time>2022-07-16T11:06:33.000Z</Time>
            <Position>
              <LatitudeDegrees>43.44504305161535739898681640625</LatitudeDegrees>
              <LongitudeDegrees>-4.88742328248918056488037109375</LongitudeDegrees>
            </Position>
            <AltitudeMeters>24.6000003814697265625</AltitudeMeters>
            <DistanceMeters>NAN</DistanceMeters>
          </Trackpoint>
          <Trackpoint>
            <Time>2022-07-16T11:06:36.000Z</Time>
            <Position>
              <LatitudeDegrees>43.44501555897295475006103515625</LatitudeDegrees>
              <LongitudeDegrees>-4.88747055642306804656982421875</LongitudeDegrees>
            </Position>
            <AltitudeMeters>25</AltitudeMeters>
            <DistanceMeters>NAN</DistanceMeters>
          </Trackpoint>
          <Trackpoint>
            <Time>2022-07-16T11:06:39.000Z</Time>
            <Position>
              <LatitudeDegrees>43.4449948556721210479736328125</LatitudeDegrees>
              <LongitudeDegrees>-4.88752235658466815948486328125</LongitudeDegrees>
            </Position>
            <AltitudeMeters>25.6000003814697265625</AltitudeMeters>
            <DistanceMeters>NAN</DistanceMeters>
          </Trackpoint>
          <Trackpoint>
            <Time>2022-07-16T11:06:41.000Z</Time>
            <Position>
              <LatitudeDegrees>43.44497800804674625396728515625</LatitudeDegrees>
              <LongitudeDegrees>-4.8875532858073711395263671875</LongitudeDegrees>
            </Position>
            <AltitudeMeters>25.799999237060546875</AltitudeMeters>
            <DistanceMeters>NAN</DistanceMeters>
          </Trackpoint>
          <Trackpoint>
            <Time>2022-07-16T11:06:45.000Z</Time>
            <Position>
              <LatitudeDegrees>43.4449542872607707977294921875</LatitudeDegrees>
              <LongitudeDegrees>-4.88762092776596546173095703125</LongitudeDegrees>
            </Position>
            <AltitudeMeters>26.6000003814697265625</AltitudeMeters>
            <DistanceMeters>NAN</DistanceMeters>
          </Trackpoint>
          <Trackpoint>
            <Time>2022-07-16T11:06:46.000Z</Time>
            <Position>
              <LatitudeDegrees>43.44494766555726528167724609375</LatitudeDegrees>
              <LongitudeDegrees>-4.887636937201023101806640625</LongitudeDegrees>
            </Position>
            <AltitudeMeters>27</AltitudeMeters>
            <DistanceMeters>NAN</DistanceMeters>
          </Trackpoint>
          <Trackpoint>
            <Time>2022-07-16T11:06:47.000Z</Time>
            <Position>
              <LatitudeDegrees>43.4449418820440769195556640625</LatitudeDegrees>
              <LongitudeDegrees>-4.8876538686454296112060546875</LongitudeDegrees>
            </Position>
            <AltitudeMeters>27.200000762939453125</AltitudeMeters>
            <DistanceMeters>NAN</DistanceMeters>
          </Trackpoint>
          <Trackpoint>
            <Time>2022-07-16T11:06:50.000Z</Time>
            <Position>
              <LatitudeDegrees>43.44491665251553058624267578125</LatitudeDegrees>
              <LongitudeDegrees>-4.8876961134374141693115234375</LongitudeDegrees>
            </Position>
            <AltitudeMeters>27.799999237060546875</AltitudeMeters>
            <DistanceMeters>NAN</DistanceMeters>
          </Trackpoint>
          <Trackpoint>
            <Time>2022-07-16T11:06:54.000Z</Time>
            <Position>
              <LatitudeDegrees>43.4448905847966670989990234375</LatitudeDegrees>
              <LongitudeDegrees>-4.88773944787681102752685546875</LongitudeDegrees>
            </Position>
            <AltitudeMeters>28.6000003814697265625</AltitudeMeters>
            <DistanceMeters>NAN</DistanceMeters>
          </Trackpoint>
          <Trackpoint>
            <Time>2022-07-16T11:06:55.000Z</Time>
            <Position>
              <LatitudeDegrees>43.44488547183573246002197265625</LatitudeDegrees>
              <LongitudeDegrees>-4.88774648867547512054443359375</LongitudeDegrees>
            </Position>
            <AltitudeMeters>28.799999237060546875</AltitudeMeters>
            <DistanceMeters>NAN</DistanceMeters>
          </Trackpoint>
          <Trackpoint>
            <Time>2022-07-16T11:06:59.000Z</Time>
            <Position>
              <LatitudeDegrees>43.44486099667847156524658203125</LatitudeDegrees>
              <LongitudeDegrees>-4.88777129910886287689208984375</LongitudeDegrees>
            </Position>
            <AltitudeMeters>29.200000762939453125</AltitudeMeters>
            <DistanceMeters>NAN</DistanceMeters>
          </Trackpoint>
          <Trackpoint>
            <Time>2022-07-16T11:07:01.000Z</Time>
            <Position>
              <LatitudeDegrees>43.4448646008968353271484375</LatitudeDegrees>
              <LongitudeDegrees>-4.8877745680510997772216796875</LongitudeDegrees>
            </Position>
            <AltitudeMeters>29.200000762939453125</AltitudeMeters>
            <DistanceMeters>NAN</DistanceMeters>
          </Trackpoint>
          <Trackpoint>
            <Time>2022-07-16T11:10:19.000Z</Time>
            <Position>
              <LatitudeDegrees>43.44490592367947101593017578125</LatitudeDegrees>
              <LongitudeDegrees>-4.88773089833557605743408203125</LongitudeDegrees>
            </Position>
            <AltitudeMeters>31.799999237060546875</AltitudeMeters>
            <DistanceMeters>NAN</DistanceMeters>
          </Trackpoint>
          <Trackpoint>
            <Time>2022-07-16T11:10:20.000Z</Time>
            <Position>
              <LatitudeDegrees>43.44491044990718364715576171875</LatitudeDegrees>
              <LongitudeDegrees>-4.8877101950347423553466796875</LongitudeDegrees>
            </Position>
            <AltitudeMeters>31.799999237060546875</AltitudeMeters>
            <DistanceMeters>NAN</DistanceMeters>
          </Trackpoint>
          <Trackpoint>
            <Time>2022-07-16T11:10:21.000Z</Time>
            <Position>
              <LatitudeDegrees>43.44491296447813510894775390625</LatitudeDegrees>
              <LongitudeDegrees>-4.887691922485828399658203125</LongitudeDegrees>
            </Position>
            <AltitudeMeters>32</AltitudeMeters>
            <DistanceMeters>NAN</DistanceMeters>
          </Trackpoint>
          <Trackpoint>
            <Time>2022-07-16T11:10:26.000Z</Time>
            <Position>
              <LatitudeDegrees>43.44493039883673191070556640625</LatitudeDegrees>
              <LongitudeDegrees>-4.88756711594760417938232421875</LongitudeDegrees>
            </Position>
            <AltitudeMeters>31.799999237060546875</AltitudeMeters>
            <DistanceMeters>NAN</DistanceMeters>
          </Trackpoint>
          <Trackpoint>
            <Time>2022-07-16T11:10:30.000Z</Time>
            <Position>
              <LatitudeDegrees>43.44495646655559539794921875</LatitudeDegrees>
              <LongitudeDegrees>-4.88745396025478839874267578125</LongitudeDegrees>
            </Position>
            <AltitudeMeters>31.6000003814697265625</AltitudeMeters>
            <DistanceMeters>NAN</DistanceMeters>
          </Trackpoint>
          <Trackpoint>
            <Time>2022-07-16T11:10:34.000Z</Time>
            <Position>
              <LatitudeDegrees>43.44496509991586208343505859375</LatitudeDegrees>
              <LongitudeDegrees>-4.88745111040771007537841796875</LongitudeDegrees>
            </Position>
            <AltitudeMeters>31</AltitudeMeters>
            <DistanceMeters>NAN</DistanceMeters>
          </Trackpoint>
          <Trackpoint>
            <Time>2022-07-16T11:11:01.000Z</Time>
            <Position>
              <LatitudeDegrees>43.4449723921716213226318359375</LatitudeDegrees>
              <LongitudeDegrees>-4.88737466745078563690185546875</LongitudeDegrees>
            </Position>
            <AltitudeMeters>30.799999237060546875</AltitudeMeters>
            <DistanceMeters>NAN</DistanceMeters>
          </Trackpoint>
          <Trackpoint>
            <Time>2022-07-16T11:11:06.000Z</Time>
            <Position>
              <LatitudeDegrees>43.445001728832721710205078125</LatitudeDegrees>
              <LongitudeDegrees>-4.8871685564517974853515625</LongitudeDegrees>
            </Position>
            <AltitudeMeters>30.6000003814697265625</AltitudeMeters>
            <DistanceMeters>NAN</DistanceMeters>
          </Trackpoint>
          <Trackpoint>
            <Time>2022-07-16T11:11:13.000Z</Time>
            <Position>
              <LatitudeDegrees>43.44501539133489131927490234375</LatitudeDegrees>
              <LongitudeDegrees>-4.88680721260607242584228515625</LongitudeDegrees>
            </Position>
            <AltitudeMeters>30.3999996185302734375</AltitudeMeters>
            <DistanceMeters>NAN</DistanceMeters>
          </Trackpoint>
          <Trackpoint>
            <Time>2022-07-16T11:11:20.000Z</Time>
            <Position>
              <LatitudeDegrees>43.44499795697629451751708984375</LatitudeDegrees>
              <LongitudeDegrees>-4.8864938132464885711669921875</LongitudeDegrees>
            </Position>
            <AltitudeMeters>30.6000003814697265625</AltitudeMeters>
            <DistanceMeters>NAN</DistanceMeters>
          </Trackpoint>
          <Trackpoint>
            <Time>2022-07-16T11:11:24.000Z</Time>
            <Position>
              <LatitudeDegrees>43.44496057368814945220947265625</LatitudeDegrees>
              <LongitudeDegrees>-4.8863674141466617584228515625</LongitudeDegrees>
            </Position>
            <AltitudeMeters>31</AltitudeMeters>
            <DistanceMeters>NAN</DistanceMeters>
          </Trackpoint>
          <Trackpoint>
            <Time>2022-07-16T11:11:30.000Z</Time>
            <Position>
              <LatitudeDegrees>43.44492101110517978668212890625</LatitudeDegrees>
              <LongitudeDegrees>-4.886213354766368865966796875</LongitudeDegrees>
            </Position>
            <AltitudeMeters>31.799999237060546875</AltitudeMeters>
            <DistanceMeters>NAN</DistanceMeters>
          </Trackpoint>
          <Trackpoint>
            <Time>2022-07-16T11:11:33.000Z</Time>
            <Position>
              <LatitudeDegrees>43.44488530419766902923583984375</LatitudeDegrees>
              <LongitudeDegrees>-4.88614261150360107421875</LongitudeDegrees>
            </Position>
            <AltitudeMeters>32.200000762939453125</AltitudeMeters>
            <DistanceMeters>NAN</DistanceMeters>
          </Trackpoint>
          <Trackpoint>
            <Time>2022-07-16T11:11:36.000Z</Time>
            <Position>
              <LatitudeDegrees>43.4448543749749660491943359375</LatitudeDegrees>
              <LongitudeDegrees>-4.88609173335134983062744140625</LongitudeDegrees>
            </Position>
            <AltitudeMeters>32.59999847412109375</AltitudeMeters>
            <DistanceMeters>NAN</DistanceMeters>
          </Trackpoint>
          <Trackpoint>
            <Time>2022-07-16T11:11:41.000Z</Time>
            <Position>
              <LatitudeDegrees>43.444798886775970458984375</LatitudeDegrees>
              <LongitudeDegrees>-4.8859898932278156280517578125</LongitudeDegrees>
            </Position>
            <AltitudeMeters>32.799999237060546875</AltitudeMeters>
            <DistanceMeters>NAN</DistanceMeters>
          </Trackpoint>
          <Trackpoint>
            <Time>2022-07-16T11:11:43.000Z</Time>
            <Position>
              <LatitudeDegrees>43.44478455372154712677001953125</LatitudeDegrees>
              <LongitudeDegrees>-4.88595343194901943206787109375</LongitudeDegrees>
            </Position>
            <AltitudeMeters>33</AltitudeMeters>
            <DistanceMeters>NAN</DistanceMeters>
          </Trackpoint>
          <Trackpoint>
            <Time>2022-07-16T11:11:44.000Z</Time>
            <Position>
              <LatitudeDegrees>43.4447814524173736572265625</LatitudeDegrees>
              <LongitudeDegrees>-4.88593214191496372222900390625</LongitudeDegrees>
            </Position>
            <AltitudeMeters>33</AltitudeMeters>
            <DistanceMeters>NAN</DistanceMeters>
          </Trackpoint>
          <Trackpoint>
            <Time>2022-07-16T11:11:51.000Z</Time>
            <Position>
              <LatitudeDegrees>43.4447038359940052032470703125</LatitudeDegrees>
              <LongitudeDegrees>-4.88581479527056217193603515625</LongitudeDegrees>
            </Position>
            <AltitudeMeters>33.200000762939453125</AltitudeMeters>
            <DistanceMeters>NAN</DistanceMeters>
          </Trackpoint>
          <Trackpoint>
            <Time>2022-07-16T11:11:53.000Z</Time>
            <Position>
              <LatitudeDegrees>43.444679863750934600830078125</LatitudeDegrees>
              <LongitudeDegrees>-4.88578612916171550750732421875</LongitudeDegrees>
            </Position>
            <AltitudeMeters>33.40000152587890625</AltitudeMeters>
            <DistanceMeters>NAN</DistanceMeters>
          </Trackpoint>
          <Trackpoint>
            <Time>2022-07-16T11:11:56.000Z</Time>
            <Position>
              <LatitudeDegrees>43.44462697394192218780517578125</LatitudeDegrees>
              <LongitudeDegrees>-4.8857461474835872650146484375</LongitudeDegrees>
            </Position>
            <AltitudeMeters>33.59999847412109375</AltitudeMeters>
            <DistanceMeters>NAN</DistanceMeters>
          </Trackpoint>
          <Trackpoint>
            <Time>2022-07-16T11:11:58.000Z</Time>
            <Position>
              <LatitudeDegrees>43.44459948129951953887939453125</LatitudeDegrees>
              <LongitudeDegrees>-4.885741956532001495361328125</LongitudeDegrees>
            </Position>
            <AltitudeMeters>33.59999847412109375</AltitudeMeters>
            <DistanceMeters>NAN</DistanceMeters>
          </Trackpoint>
          <Trackpoint>
            <Time>2022-07-16T11:12:00.000Z</Time>
            <Position>
              <LatitudeDegrees>43.44459378160536289215087890625</LatitudeDegrees>
              <LongitudeDegrees>-4.8857427947223186492919921875</LongitudeDegrees>
            </Position>
            <AltitudeMeters>33.59999847412109375</AltitudeMeters>
            <DistanceMeters>NAN</DistanceMeters>
          </Trackpoint>
          <Trackpoint>
            <Time>2022-07-16T11:13:15.000Z</Time>
            <Position>
              <LatitudeDegrees>43.44459746964275836944580078125</LatitudeDegrees>
              <LongitudeDegrees>-4.88581471145153045654296875</LongitudeDegrees>
            </Position>
            <AltitudeMeters>31</AltitudeMeters>
            <DistanceMeters>NAN</DistanceMeters>
          </Trackpoint>
          <Trackpoint>
            <Time>2022-07-16T11:13:16.000Z</Time>
            <Position>
              <LatitudeDegrees>43.4445965476334095001220703125</LatitudeDegrees>
              <LongitudeDegrees>-4.8858410306274890899658203125</LongitudeDegrees>
            </Position>
            <AltitudeMeters>31</AltitudeMeters>
            <DistanceMeters>NAN</DistanceMeters>
          </Trackpoint>
          <Trackpoint>
            <Time>2022-07-16T11:13:22.000Z</Time>
            <Position>
              <LatitudeDegrees>43.444616831839084625244140625</LatitudeDegrees>
              <LongitudeDegrees>-4.88597304560244083404541015625</LongitudeDegrees>
            </Position>
            <AltitudeMeters>31.200000762939453125</AltitudeMeters>
            <DistanceMeters>NAN</DistanceMeters>
          </Trackpoint>
          <Trackpoint>
            <Time>2022-07-16T11:13:23.000Z</Time>
            <Position>
              <LatitudeDegrees>43.444616831839084625244140625</LatitudeDegrees>
              <LongitudeDegrees>-4.8859942518174648284912109375</LongitudeDegrees>
            </Position>
            <AltitudeMeters>31.200000762939453125</AltitudeMeters>
            <DistanceMeters>NAN</DistanceMeters>
          </Trackpoint>
          <Trackpoint>
            <Time>2022-07-16T11:13:24.000Z</Time>
            <Position>
              <LatitudeDegrees>43.4446169994771480560302734375</LatitudeDegrees>
              <LongitudeDegrees>-4.88601545803248882293701171875</LongitudeDegrees>
            </Position>
            <AltitudeMeters>31.200000762939453125</AltitudeMeters>
            <DistanceMeters>NAN</DistanceMeters>
          </Trackpoint>
          <Trackpoint>
            <Time>2022-07-16T11:13:29.000Z</Time>
            <Position>
              <LatitudeDegrees>43.44464709050953388214111328125</LatitudeDegrees>
              <LongitudeDegrees>-4.8860998637974262237548828125</LongitudeDegrees>
            </Position>
            <AltitudeMeters>31.799999237060546875</AltitudeMeters>
            <DistanceMeters>NAN</DistanceMeters>
          </Trackpoint>
          <Trackpoint>
            <Time>2022-07-16T11:13:30.000Z</Time>
            <Position>
              <LatitudeDegrees>43.444654047489166259765625</LatitudeDegrees>
              <LongitudeDegrees>-4.8861209861934185028076171875</LongitudeDegrees>
            </Position>
            <AltitudeMeters>32</AltitudeMeters>
            <DistanceMeters>NAN</DistanceMeters>
          </Trackpoint>
          <Trackpoint>
            <Time>2022-07-16T11:13:31.000Z</Time>
            <Position>
              <LatitudeDegrees>43.44466033391654491424560546875</LatitudeDegrees>
              <LongitudeDegrees>-4.88613883964717388153076171875</LongitudeDegrees>
            </Position>
            <AltitudeMeters>32</AltitudeMeters>
            <DistanceMeters>NAN</DistanceMeters>
          </Trackpoint>
          <Trackpoint>
            <Time>2022-07-16T11:13:35.000Z</Time>
            <Position>
              <LatitudeDegrees>43.44468078576028347015380859375</LatitudeDegrees>
              <LongitudeDegrees>-4.88620438612997531890869140625</LongitudeDegrees>
            </Position>
            <AltitudeMeters>32.40000152587890625</AltitudeMeters>
            <DistanceMeters>NAN</DistanceMeters>
          </Trackpoint>
          <Trackpoint>
            <Time>2022-07-16T11:13:37.000Z</Time>
            <Position>
              <LatitudeDegrees>43.444695957005023956298828125</LatitudeDegrees>
              <LongitudeDegrees>-4.88623506389558315277099609375</LongitudeDegrees>
            </Position>
            <AltitudeMeters>32.40000152587890625</AltitudeMeters>
            <DistanceMeters>NAN</DistanceMeters>
          </Trackpoint>
          <Trackpoint>
            <Time>2022-07-16T11:13:38.000Z</Time>
            <Position>
              <LatitudeDegrees>43.4446994774043560028076171875</LatitudeDegrees>
              <LongitudeDegrees>-4.886248894035816192626953125</LongitudeDegrees>
            </Position>
            <AltitudeMeters>32.59999847412109375</AltitudeMeters>
            <DistanceMeters>NAN</DistanceMeters>
          </Trackpoint>
          <Trackpoint>
            <Time>2022-07-16T11:13:39.000Z</Time>
            <Position>
              <LatitudeDegrees>43.44470274634659290313720703125</LatitudeDegrees>
              <LongitudeDegrees>-4.8862673342227935791015625</LongitudeDegrees>
            </Position>
            <AltitudeMeters>32.59999847412109375</AltitudeMeters>
            <DistanceMeters>NAN</DistanceMeters>
          </Trackpoint>
          <Trackpoint>
            <Time>2022-07-16T11:13:45.000Z</Time>
            <Position>
              <LatitudeDegrees>43.444722108542919158935546875</LatitudeDegrees>
              <LongitudeDegrees>-4.88634972833096981048583984375</LongitudeDegrees>
            </Position>
            <AltitudeMeters>33</AltitudeMeters>
            <DistanceMeters>NAN</DistanceMeters>
          </Trackpoint>
          <Trackpoint>
            <Time>2022-07-16T11:13:46.000Z</Time>
            <Position>
              <LatitudeDegrees>43.444722108542919158935546875</LatitudeDegrees>
              <LongitudeDegrees>-4.88634972833096981048583984375</LongitudeDegrees>
            </Position>
            <AltitudeMeters>33</AltitudeMeters>
            <DistanceMeters>NAN</DistanceMeters>
          </Trackpoint>
          <Trackpoint>
            <Time>2022-07-16T11:14:00.000Z</Time>
            <Position>
              <LatitudeDegrees>43.44475471414625644683837890625</LatitudeDegrees>
              <LongitudeDegrees>-4.8865310288965702056884765625</LongitudeDegrees>
            </Position>
            <AltitudeMeters>33.40000152587890625</AltitudeMeters>
            <DistanceMeters>NAN</DistanceMeters>
          </Trackpoint>
          <Trackpoint>
            <Time>2022-07-16T11:14:02.000Z</Time>
            <Position>
              <LatitudeDegrees>43.4447574801743030548095703125</LatitudeDegrees>
              <LongitudeDegrees>-4.8865689150989055633544921875</LongitudeDegrees>
            </Position>
            <AltitudeMeters>33.59999847412109375</AltitudeMeters>
            <DistanceMeters>NAN</DistanceMeters>
          </Trackpoint>
          <Trackpoint>
            <Time>2022-07-16T11:14:03.000Z</Time>
            <Position>
              <LatitudeDegrees>43.4447564743459224700927734375</LatitudeDegrees>
              <LongitudeDegrees>-4.8865863494575023651123046875</LongitudeDegrees>
            </Position>
            <AltitudeMeters>33.799999237060546875</AltitudeMeters>
            <DistanceMeters>NAN</DistanceMeters>
          </Trackpoint>
          <Trackpoint>
            <Time>2022-07-16T11:14:06.000Z</Time>
            <Position>
              <LatitudeDegrees>43.4447601623833179473876953125</LatitudeDegrees>
              <LongitudeDegrees>-4.8866446875035762786865234375</LongitudeDegrees>
            </Position>
            <AltitudeMeters>34</AltitudeMeters>
            <DistanceMeters>NAN</DistanceMeters>
          </Trackpoint>
          <Trackpoint>
            <Time>2022-07-16T11:14:07.000Z</Time>
            <Position>
              <LatitudeDegrees>43.44475991092622280120849609375</LatitudeDegrees>
              <LongitudeDegrees>-4.88666119985282421112060546875</LongitudeDegrees>
            </Position>
            <AltitudeMeters>34</AltitudeMeters>
            <DistanceMeters>NAN</DistanceMeters>
          </Trackpoint>
          <Trackpoint>
            <Time>2022-07-16T11:14:09.000Z</Time>
            <Position>
              <LatitudeDegrees>43.44475320540368556976318359375</LatitudeDegrees>
              <LongitudeDegrees>-4.8866929672658443450927734375</LongitudeDegrees>
            </Position>
            <AltitudeMeters>34</AltitudeMeters>
            <DistanceMeters>NAN</DistanceMeters>
          </Trackpoint>
          <Trackpoint>
            <Time>2022-07-16T11:14:10.000Z</Time>
            <Position>
              <LatitudeDegrees>43.44474591314792633056640625</LatitudeDegrees>
              <LongitudeDegrees>-4.88671484403312206268310546875</LongitudeDegrees>
            </Position>
            <AltitudeMeters>34.200000762939453125</AltitudeMeters>
            <DistanceMeters>NAN</DistanceMeters>
          </Trackpoint>
          <Trackpoint>
            <Time>2022-07-16T11:14:13.000Z</Time>
            <Position>
              <LatitudeDegrees>43.44472236000001430511474609375</LatitudeDegrees>
              <LongitudeDegrees>-4.886761195957660675048828125</LongitudeDegrees>
            </Position>
            <AltitudeMeters>34.59999847412109375</AltitudeMeters>
            <DistanceMeters>NAN</DistanceMeters>
          </Trackpoint>
          <Trackpoint>
            <Time>2022-07-16T11:14:18.000Z</Time>
            <Position>
              <LatitudeDegrees>43.44467776827514171600341796875</LatitudeDegrees>
              <LongitudeDegrees>-4.88682079128921031951904296875</LongitudeDegrees>
            </Position>
            <AltitudeMeters>35</AltitudeMeters>
            <DistanceMeters>NAN</DistanceMeters>
          </Trackpoint>
          <Trackpoint>
            <Time>2022-07-16T11:14:26.000Z</Time>
            <Position>
              <LatitudeDegrees>43.444622196257114410400390625</LatitudeDegrees>
              <LongitudeDegrees>-4.886884577572345733642578125</LongitudeDegrees>
            </Position>
            <AltitudeMeters>35</AltitudeMeters>
            <DistanceMeters>NAN</DistanceMeters>
          </Trackpoint>
          <Trackpoint>
            <Time>2022-07-16T11:14:31.000Z</Time>
            <Position>
              <LatitudeDegrees>43.444576263427734375</LatitudeDegrees>
              <LongitudeDegrees>-4.88700469024479389190673828125</LongitudeDegrees>
            </Position>
            <AltitudeMeters>35.200000762939453125</AltitudeMeters>
            <DistanceMeters>NAN</DistanceMeters>
          </Trackpoint>
          <Trackpoint>
            <Time>2022-07-16T11:14:37.000Z</Time>
            <Position>
              <LatitudeDegrees>43.44444106332957744598388671875</LatitudeDegrees>
              <LongitudeDegrees>-4.88715757615864276885986328125</LongitudeDegrees>
            </Position>
            <AltitudeMeters>35</AltitudeMeters>
            <DistanceMeters>NAN</DistanceMeters>
          </Trackpoint>
          <Trackpoint>
            <Time>2022-07-16T11:14:45.000Z</Time>
            <Position>
              <LatitudeDegrees>43.4442032687366008758544921875</LatitudeDegrees>
              <LongitudeDegrees>-4.88736175931990146636962890625</LongitudeDegrees>
            </Position>
            <AltitudeMeters>34.799999237060546875</AltitudeMeters>
            <DistanceMeters>NAN</DistanceMeters>
          </Trackpoint>
          <Trackpoint>
            <Time>2022-07-16T11:14:48.000Z</Time>
            <Position>
              <LatitudeDegrees>43.44410444609820842742919921875</LatitudeDegrees>
              <LongitudeDegrees>-4.8874429799616336822509765625</LongitudeDegrees>
            </Position>
            <AltitudeMeters>34.59999847412109375</AltitudeMeters>
            <DistanceMeters>NAN</DistanceMeters>
          </Trackpoint>
          <Trackpoint>
            <Time>2022-07-16T11:14:51.000Z</Time>
            <Position>
              <LatitudeDegrees>43.44400453381240367889404296875</LatitudeDegrees>
              <LongitudeDegrees>-4.887537024915218353271484375</LongitudeDegrees>
            </Position>
            <AltitudeMeters>34.40000152587890625</AltitudeMeters>
            <DistanceMeters>NAN</DistanceMeters>
          </Trackpoint>
          <Trackpoint>
            <Time>2022-07-16T11:14:53.000Z</Time>
            <Position>
              <LatitudeDegrees>43.44392943195998668670654296875</LatitudeDegrees>
              <LongitudeDegrees>-4.88760064356029033660888671875</LongitudeDegrees>
            </Position>
            <AltitudeMeters>34.200000762939453125</AltitudeMeters>
            <DistanceMeters>NAN</DistanceMeters>
          </Trackpoint>
          <Trackpoint>
            <Time>2022-07-16T11:14:58.000Z</Time>
            <Position>
              <LatitudeDegrees>43.44372105784714221954345703125</LatitudeDegrees>
              <LongitudeDegrees>-4.8877826146781444549560546875</LongitudeDegrees>
            </Position>
            <AltitudeMeters>33.40000152587890625</AltitudeMeters>
            <DistanceMeters>NAN</DistanceMeters>
          </Trackpoint>
          <Trackpoint>
            <Time>2022-07-16T11:15:00.000Z</Time>
            <Position>
              <LatitudeDegrees>43.4436302818357944488525390625</LatitudeDegrees>
              <LongitudeDegrees>-4.887861907482147216796875</LongitudeDegrees>
            </Position>
            <AltitudeMeters>33</AltitudeMeters>
            <DistanceMeters>NAN</DistanceMeters>
          </Trackpoint>
          <Trackpoint>
            <Time>2022-07-16T11:15:01.000Z</Time>
            <Position>
              <LatitudeDegrees>43.44358091242611408233642578125</LatitudeDegrees>
              <LongitudeDegrees>-4.8879023082554340362548828125</LongitudeDegrees>
            </Position>
            <AltitudeMeters>32.40000152587890625</AltitudeMeters>
            <DistanceMeters>NAN</DistanceMeters>
          </Trackpoint>
          <Trackpoint>
            <Time>2022-07-16T11:15:04.000Z</Time>
            <Position>
              <LatitudeDegrees>43.4434162080287933349609375</LatitudeDegrees>
              <LongitudeDegrees>-4.8880391009151935577392578125</LongitudeDegrees>
            </Position>
            <AltitudeMeters>31.200000762939453125</AltitudeMeters>
            <DistanceMeters>NAN</DistanceMeters>
          </Trackpoint>
          <Trackpoint>
            <Time>2022-07-16T11:15:07.000Z</Time>
            <Position>
              <LatitudeDegrees>43.4432423673570156097412109375</LatitudeDegrees>
              <LongitudeDegrees>-4.88819441758096218109130859375</LongitudeDegrees>
            </Position>
            <AltitudeMeters>30.200000762939453125</AltitudeMeters>
            <DistanceMeters>NAN</DistanceMeters>
          </Trackpoint>
          <Trackpoint>
            <Time>2022-07-16T11:15:10.000Z</Time>
            <Position>
              <LatitudeDegrees>43.4430549480020999908447265625</LatitudeDegrees>
              <LongitudeDegrees>-4.88836473785340785980224609375</LongitudeDegrees>
            </Position>
            <AltitudeMeters>29</AltitudeMeters>
            <DistanceMeters>NAN</DistanceMeters>
          </Trackpoint>
          <Trackpoint>
            <Time>2022-07-16T11:15:13.000Z</Time>
            <Position>
              <LatitudeDegrees>43.44284347258508205413818359375</LatitudeDegrees>
              <LongitudeDegrees>-4.88855416886508464813232421875</LongitudeDegrees>
            </Position>
            <AltitudeMeters>28</AltitudeMeters>
            <DistanceMeters>NAN</DistanceMeters>
          </Trackpoint>
          <Trackpoint>
            <Time>2022-07-16T11:15:14.000Z</Time>
            <Position>
              <LatitudeDegrees>43.4427697956562042236328125</LatitudeDegrees>
              <LongitudeDegrees>-4.88861653022468090057373046875</LongitudeDegrees>
            </Position>
            <AltitudeMeters>27.6000003814697265625</AltitudeMeters>
            <DistanceMeters>NAN</DistanceMeters>
          </Trackpoint>
          <Trackpoint>
            <Time>2022-07-16T11:15:17.000Z</Time>
            <Position>
              <LatitudeDegrees>43.4425627626478672027587890625</LatitudeDegrees>
              <LongitudeDegrees>-4.8888092301785945892333984375</LongitudeDegrees>
            </Position>
            <AltitudeMeters>26.799999237060546875</AltitudeMeters>
            <DistanceMeters>NAN</DistanceMeters>
          </Trackpoint>
          <Trackpoint>
            <Time>2022-07-16T11:15:19.000Z</Time>
            <Position>
              <LatitudeDegrees>43.44245052896440029144287109375</LatitudeDegrees>
              <LongitudeDegrees>-4.88895281217992305755615234375</LongitudeDegrees>
            </Position>
            <AltitudeMeters>26.3999996185302734375</AltitudeMeters>
            <DistanceMeters>NAN</DistanceMeters>
          </Trackpoint>
          <Trackpoint>
            <Time>2022-07-16T11:15:23.000Z</Time>
            <Position>
              <LatitudeDegrees>43.44231071881949901580810546875</LatitudeDegrees>
              <LongitudeDegrees>-4.88925657235085964202880859375</LongitudeDegrees>
            </Position>
            <AltitudeMeters>26.6000003814697265625</AltitudeMeters>
            <DistanceMeters>NAN</DistanceMeters>
          </Trackpoint>
          <Trackpoint>
            <Time>2022-07-16T11:15:28.000Z</Time>
            <Position>
              <LatitudeDegrees>43.44225808046758174896240234375</LatitudeDegrees>
              <LongitudeDegrees>-4.88956972025334835052490234375</LongitudeDegrees>
            </Position>
            <AltitudeMeters>26.799999237060546875</AltitudeMeters>
            <DistanceMeters>NAN</DistanceMeters>
          </Trackpoint>
          <Trackpoint>
            <Time>2022-07-16T11:15:31.000Z</Time>
            <Position>
              <LatitudeDegrees>43.44224148429930210113525390625</LatitudeDegrees>
              <LongitudeDegrees>-4.889734424650669097900390625</LongitudeDegrees>
            </Position>
            <AltitudeMeters>26.799999237060546875</AltitudeMeters>
            <DistanceMeters>NAN</DistanceMeters>
          </Trackpoint>
          <Trackpoint>
            <Time>2022-07-16T11:15:34.000Z</Time>
            <Position>
              <LatitudeDegrees>43.44223226420581340789794921875</LatitudeDegrees>
              <LongitudeDegrees>-4.88985738717019557952880859375</LongitudeDegrees>
            </Position>
            <AltitudeMeters>26.799999237060546875</AltitudeMeters>
            <DistanceMeters>NAN</DistanceMeters>
          </Trackpoint>
          <Trackpoint>
            <Time>2022-07-16T11:15:38.000Z</Time>
            <Position>
              <LatitudeDegrees>43.4422191046178340911865234375</LatitudeDegrees>
              <LongitudeDegrees>-4.89002150483429431915283203125</LongitudeDegrees>
            </Position>
            <AltitudeMeters>27</AltitudeMeters>
            <DistanceMeters>NAN</DistanceMeters>
          </Trackpoint>
          <Trackpoint>
            <Time>2022-07-16T11:15:41.000Z</Time>
            <Position>
              <LatitudeDegrees>43.4421984851360321044921875</LatitudeDegrees>
              <LongitudeDegrees>-4.89013516344130039215087890625</LongitudeDegrees>
            </Position>
            <AltitudeMeters>27.3999996185302734375</AltitudeMeters>
            <DistanceMeters>NAN</DistanceMeters>
          </Trackpoint>
          <Trackpoint>
            <Time>2022-07-16T11:15:45.000Z</Time>
            <Position>
              <LatitudeDegrees>43.4421906061470508575439453125</LatitudeDegrees>
              <LongitudeDegrees>-4.890285618603229522705078125</LongitudeDegrees>
            </Position>
            <AltitudeMeters>27.6000003814697265625</AltitudeMeters>
            <DistanceMeters>NAN</DistanceMeters>
          </Trackpoint>
          <Trackpoint>
            <Time>2022-07-16T11:15:47.000Z</Time>
            <Position>
              <LatitudeDegrees>43.4421916119754314422607421875</LatitudeDegrees>
              <LongitudeDegrees>-4.89035543985664844512939453125</LongitudeDegrees>
            </Position>
            <AltitudeMeters>27.799999237060546875</AltitudeMeters>
            <DistanceMeters>NAN</DistanceMeters>
          </Trackpoint>
          <Trackpoint>
            <Time>2022-07-16T11:15:50.000Z</Time>
            <Position>
              <LatitudeDegrees>43.4421862475574016571044921875</LatitudeDegrees>
              <LongitudeDegrees>-4.89046163856983184814453125</LongitudeDegrees>
            </Position>
            <AltitudeMeters>28</AltitudeMeters>
            <DistanceMeters>NAN</DistanceMeters>
          </Trackpoint>
          <Trackpoint>
            <Time>2022-07-16T11:15:53.000Z</Time>
            <Position>
              <LatitudeDegrees>43.44218314625322818756103515625</LatitudeDegrees>
              <LongitudeDegrees>-4.89055962301790714263916015625</LongitudeDegrees>
            </Position>
            <AltitudeMeters>28.200000762939453125</AltitudeMeters>
            <DistanceMeters>NAN</DistanceMeters>
          </Trackpoint>
          <Trackpoint>
            <Time>2022-07-16T11:16:00.000Z</Time>
            <Position>
              <LatitudeDegrees>43.442180715501308441162109375</LatitudeDegrees>
              <LongitudeDegrees>-4.89080621860921382904052734375</LongitudeDegrees>
            </Position>
            <AltitudeMeters>28.799999237060546875</AltitudeMeters>
            <DistanceMeters>NAN</DistanceMeters>
          </Trackpoint>
          <Trackpoint>
            <Time>2022-07-16T11:16:01.000Z</Time>
            <Position>
              <LatitudeDegrees>43.44217996113002300262451171875</LatitudeDegrees>
              <LongitudeDegrees>-4.8908364772796630859375</LongitudeDegrees>
            </Position>
            <AltitudeMeters>28.799999237060546875</AltitudeMeters>
            <DistanceMeters>NAN</DistanceMeters>
          </Trackpoint>
          <Trackpoint>
            <Time>2022-07-16T11:16:04.000Z</Time>
            <Position>
              <LatitudeDegrees>43.44217560254037380218505859375</LatitudeDegrees>
              <LongitudeDegrees>-4.8909392394125461578369140625</LongitudeDegrees>
            </Position>
            <AltitudeMeters>29</AltitudeMeters>
            <DistanceMeters>NAN</DistanceMeters>
          </Trackpoint>
          <Trackpoint>
            <Time>2022-07-16T11:16:08.000Z</Time>
            <Position>
              <LatitudeDegrees>43.44216789118945598602294921875</LatitudeDegrees>
              <LongitudeDegrees>-4.891048036515712738037109375</LongitudeDegrees>
            </Position>
            <AltitudeMeters>29.200000762939453125</AltitudeMeters>
            <DistanceMeters>NAN</DistanceMeters>
          </Trackpoint>
          <Trackpoint>
            <Time>2022-07-16T11:16:09.000Z</Time>
            <Position>
              <LatitudeDegrees>43.44216235913336277008056640625</LatitudeDegrees>
              <LongitudeDegrees>-4.89107293076813220977783203125</LongitudeDegrees>
            </Position>
            <AltitudeMeters>29.3999996185302734375</AltitudeMeters>
            <DistanceMeters>NAN</DistanceMeters>
          </Trackpoint>
          <Trackpoint>
            <Time>2022-07-16T11:16:12.000Z</Time>
            <Position>
              <LatitudeDegrees>43.4421180188655853271484375</LatitudeDegrees>
              <LongitudeDegrees>-4.89112221635878086090087890625</LongitudeDegrees>
            </Position>
            <AltitudeMeters>29.3999996185302734375</AltitudeMeters>
            <DistanceMeters>NAN</DistanceMeters>
          </Trackpoint>
          <Trackpoint>
            <Time>2022-07-16T11:16:14.000Z</Time>
            <Position>
              <LatitudeDegrees>43.44208055175840854644775390625</LatitudeDegrees>
              <LongitudeDegrees>-4.89113965071737766265869140625</LongitudeDegrees>
            </Position>
            <AltitudeMeters>29.200000762939453125</AltitudeMeters>
            <DistanceMeters>NAN</DistanceMeters>
          </Trackpoint>
          <Trackpoint>
            <Time>2022-07-16T11:16:17.000Z</Time>
            <Position>
              <LatitudeDegrees>43.4420326910912990570068359375</LatitudeDegrees>
              <LongitudeDegrees>-4.8911581747233867645263671875</LongitudeDegrees>
            </Position>
            <AltitudeMeters>29.3999996185302734375</AltitudeMeters>
            <DistanceMeters>NAN</DistanceMeters>
          </Trackpoint>
          <Trackpoint>
            <Time>2022-07-16T11:16:19.000Z</Time>
            <Position>
              <LatitudeDegrees>43.44200603663921356201171875</LatitudeDegrees>
              <LongitudeDegrees>-4.8911759443581104278564453125</LongitudeDegrees>
            </Position>
            <AltitudeMeters>29.3999996185302734375</AltitudeMeters>
            <DistanceMeters>NAN</DistanceMeters>
          </Trackpoint>
          <Trackpoint>
            <Time>2022-07-16T11:16:24.000Z</Time>
            <Position>
              <LatitudeDegrees>43.44192347489297389984130859375</LatitudeDegrees>
              <LongitudeDegrees>-4.891288764774799346923828125</LongitudeDegrees>
            </Position>
            <AltitudeMeters>29.6000003814697265625</AltitudeMeters>
            <DistanceMeters>NAN</DistanceMeters>
          </Trackpoint>
          <Trackpoint>
            <Time>2022-07-16T11:16:31.000Z</Time>
            <Position>
              <LatitudeDegrees>43.441789783537387847900390625</LatitudeDegrees>
              <LongitudeDegrees>-4.89146939478814601898193359375</LongitudeDegrees>
            </Position>
            <AltitudeMeters>29.3999996185302734375</AltitudeMeters>
            <DistanceMeters>NAN</DistanceMeters>
          </Trackpoint>
          <Trackpoint>
            <Time>2022-07-16T11:16:39.000Z</Time>
            <Position>
              <LatitudeDegrees>43.4415643103420734405517578125</LatitudeDegrees>
              <LongitudeDegrees>-4.89161373116075992584228515625</LongitudeDegrees>
            </Position>
            <AltitudeMeters>29.799999237060546875</AltitudeMeters>
            <DistanceMeters>NAN</DistanceMeters>
          </Trackpoint>
          <Trackpoint>
            <Time>2022-07-16T11:16:42.000Z</Time>
            <Position>
              <LatitudeDegrees>43.441486023366451263427734375</LatitudeDegrees>
              <LongitudeDegrees>-4.89164893515408039093017578125</LongitudeDegrees>
            </Position>
            <AltitudeMeters>29.799999237060546875</AltitudeMeters>
            <DistanceMeters>NAN</DistanceMeters>
          </Trackpoint>
          <Trackpoint>
            <Time>2022-07-16T11:16:45.000Z</Time>
            <Position>
              <LatitudeDegrees>43.44141050241887569427490234375</LatitudeDegrees>
              <LongitudeDegrees>-4.891675673425197601318359375</LongitudeDegrees>
            </Position>
            <AltitudeMeters>29.799999237060546875</AltitudeMeters>
            <DistanceMeters>NAN</DistanceMeters>
          </Trackpoint>
          <Trackpoint>
            <Time>2022-07-16T11:16:47.000Z</Time>
            <Position>
              <LatitudeDegrees>43.4413614682853221893310546875</LatitudeDegrees>
              <LongitudeDegrees>-4.891685731709003448486328125</LongitudeDegrees>
            </Position>
            <AltitudeMeters>29.799999237060546875</AltitudeMeters>
            <DistanceMeters>NAN</DistanceMeters>
          </Trackpoint>
          <Trackpoint>
            <Time>2022-07-16T11:16:52.000Z</Time>
            <Position>
              <LatitudeDegrees>43.44122459180653095245361328125</LatitudeDegrees>
              <LongitudeDegrees>-4.8916183412075042724609375</LongitudeDegrees>
            </Position>
            <AltitudeMeters>29.799999237060546875</AltitudeMeters>
            <DistanceMeters>NAN</DistanceMeters>
          </Trackpoint>
          <Trackpoint>
            <Time>2022-07-16T11:16:59.000Z</Time>
            <Position>
              <LatitudeDegrees>43.44106835313141345977783203125</LatitudeDegrees>
              <LongitudeDegrees>-4.89146268926560878753662109375</LongitudeDegrees>
            </Position>
            <AltitudeMeters>29.799999237060546875</AltitudeMeters>
            <DistanceMeters>NAN</DistanceMeters>
          </Trackpoint>
          <Trackpoint>
            <Time>2022-07-16T11:17:04.000Z</Time>
            <Position>
              <LatitudeDegrees>43.44092770479619503021240234375</LatitudeDegrees>
              <LongitudeDegrees>-4.8914414830505847930908203125</LongitudeDegrees>
            </Position>
            <AltitudeMeters>30.200000762939453125</AltitudeMeters>
            <DistanceMeters>NAN</DistanceMeters>
          </Trackpoint>
          <Trackpoint>
            <Time>2022-07-16T11:17:12.000Z</Time>
            <Position>
              <LatitudeDegrees>43.44070407561957836151123046875</LatitudeDegrees>
              <LongitudeDegrees>-4.891556985676288604736328125</LongitudeDegrees>
            </Position>
            <AltitudeMeters>30.6000003814697265625</AltitudeMeters>
            <DistanceMeters>NAN</DistanceMeters>
          </Trackpoint>
          <Trackpoint>
            <Time>2022-07-16T11:17:18.000Z</Time>
            <Position>
              <LatitudeDegrees>43.440586142241954803466796875</LatitudeDegrees>
              <LongitudeDegrees>-4.89163032732903957366943359375</LongitudeDegrees>
            </Position>
            <AltitudeMeters>30.799999237060546875</AltitudeMeters>
            <DistanceMeters>NAN</DistanceMeters>
          </Trackpoint>
          <Trackpoint>
            <Time>2022-07-16T11:17:24.000Z</Time>
            <Position>
              <LatitudeDegrees>43.4404803626239299774169921875</LatitudeDegrees>
              <LongitudeDegrees>-4.89174616523087024688720703125</LongitudeDegrees>
            </Position>
            <AltitudeMeters>31</AltitudeMeters>
            <DistanceMeters>NAN</DistanceMeters>
          </Trackpoint>
          <Trackpoint>
            <Time>2022-07-16T11:17:31.000Z</Time>
            <Position>
              <LatitudeDegrees>43.44032705761492252349853515625</LatitudeDegrees>
              <LongitudeDegrees>-4.89187122322618961334228515625</LongitudeDegrees>
            </Position>
            <AltitudeMeters>31.200000762939453125</AltitudeMeters>
            <DistanceMeters>NAN</DistanceMeters>
          </Trackpoint>
          <Trackpoint>
            <Time>2022-07-16T11:17:35.000Z</Time>
            <Position>
              <LatitudeDegrees>43.440248183906078338623046875</LatitudeDegrees>
              <LongitudeDegrees>-4.89194883964955806732177734375</LongitudeDegrees>
            </Position>
            <AltitudeMeters>31.3999996185302734375</AltitudeMeters>
            <DistanceMeters>NAN</DistanceMeters>
          </Trackpoint>
          <Trackpoint>
            <Time>2022-07-16T11:17:40.000Z</Time>
            <Position>
              <LatitudeDegrees>43.44014550559222698211669921875</LatitudeDegrees>
              <LongitudeDegrees>-4.8920617438852787017822265625</LongitudeDegrees>
            </Position>
            <AltitudeMeters>31.6000003814697265625</AltitudeMeters>
            <DistanceMeters>NAN</DistanceMeters>
          </Trackpoint>
          <Trackpoint>
            <Time>2022-07-16T11:17:49.000Z</Time>
            <Position>
              <LatitudeDegrees>43.44001122750341892242431640625</LatitudeDegrees>
              <LongitudeDegrees>-4.89223734475672245025634765625</LongitudeDegrees>
            </Position>
            <AltitudeMeters>32</AltitudeMeters>
            <DistanceMeters>NAN</DistanceMeters>
          </Trackpoint>
          <Trackpoint>
            <Time>2022-07-16T11:17:50.000Z</Time>
            <Position>
              <LatitudeDegrees>43.43999697826802730560302734375</LatitudeDegrees>
              <LongitudeDegrees>-4.89225335419178009033203125</LongitudeDegrees>
            </Position>
            <AltitudeMeters>32</AltitudeMeters>
            <DistanceMeters>NAN</DistanceMeters>
          </Trackpoint>
          <Trackpoint>
            <Time>2022-07-16T11:17:52.000Z</Time>
            <Position>
              <LatitudeDegrees>43.4399761073291301727294921875</LatitudeDegrees>
              <LongitudeDegrees>-4.89228897728025913238525390625</LongitudeDegrees>
            </Position>
            <AltitudeMeters>32.200000762939453125</AltitudeMeters>
            <DistanceMeters>NAN</DistanceMeters>
          </Trackpoint>
          <Trackpoint>
            <Time>2022-07-16T11:17:54.000Z</Time>
            <Position>
              <LatitudeDegrees>43.43995909206569194793701171875</LatitudeDegrees>
              <LongitudeDegrees>-4.89233256317675113677978515625</LongitudeDegrees>
            </Position>
            <AltitudeMeters>32.200000762939453125</AltitudeMeters>
            <DistanceMeters>NAN</DistanceMeters>
          </Trackpoint>
          <Trackpoint>
            <Time>2022-07-16T11:17:56.000Z</Time>
            <Position>
              <LatitudeDegrees>43.439933024346828460693359375</LatitudeDegrees>
              <LongitudeDegrees>-4.89236776717007160186767578125</LongitudeDegrees>
            </Position>
            <AltitudeMeters>32.40000152587890625</AltitudeMeters>
            <DistanceMeters>NAN</DistanceMeters>
          </Trackpoint>
          <Trackpoint>
            <Time>2022-07-16T11:18:03.000Z</Time>
            <Position>
              <LatitudeDegrees>43.43986990861594676971435546875</LatitudeDegrees>
              <LongitudeDegrees>-4.8924295417964458465576171875</LongitudeDegrees>
            </Position>
            <AltitudeMeters>32.59999847412109375</AltitudeMeters>
            <DistanceMeters>NAN</DistanceMeters>
          </Trackpoint>
          <Trackpoint>
            <Time>2022-07-16T11:19:25.000Z</Time>
            <Position>
              <LatitudeDegrees>43.4398463554680347442626953125</LatitudeDegrees>
              <LongitudeDegrees>-4.89247907884418964385986328125</LongitudeDegrees>
            </Position>
            <AltitudeMeters>32.200000762939453125</AltitudeMeters>
            <DistanceMeters>NAN</DistanceMeters>
          </Trackpoint>
          <Trackpoint>
            <Time>2022-07-16T11:19:26.000Z</Time>
            <Position>
              <LatitudeDegrees>43.4398265741765499114990234375</LatitudeDegrees>
              <LongitudeDegrees>-4.89249299280345439910888671875</LongitudeDegrees>
            </Position>
            <AltitudeMeters>32.200000762939453125</AltitudeMeters>
            <DistanceMeters>NAN</DistanceMeters>
          </Trackpoint>
          <Trackpoint>
            <Time>2022-07-16T11:19:27.000Z</Time>
            <Position>
              <LatitudeDegrees>43.43980117700994014739990234375</LatitudeDegrees>
              <LongitudeDegrees>-4.892507158219814300537109375</LongitudeDegrees>
            </Position>
            <AltitudeMeters>32.200000762939453125</AltitudeMeters>
            <DistanceMeters>NAN</DistanceMeters>
          </Trackpoint>
          <Trackpoint>
            <Time>2022-07-16T11:19:30.000Z</Time>
            <Position>
              <LatitudeDegrees>43.4397313557565212249755859375</LatitudeDegrees>
              <LongitudeDegrees>-4.892568178474903106689453125</LongitudeDegrees>
            </Position>
            <AltitudeMeters>33</AltitudeMeters>
            <DistanceMeters>NAN</DistanceMeters>
          </Trackpoint>
          <Trackpoint>
            <Time>2022-07-16T11:19:33.000Z</Time>
            <Position>
              <LatitudeDegrees>43.43967980705201625823974609375</LatitudeDegrees>
              <LongitudeDegrees>-4.8926183022558689117431640625</LongitudeDegrees>
            </Position>
            <AltitudeMeters>33.200000762939453125</AltitudeMeters>
            <DistanceMeters>NAN</DistanceMeters>
          </Trackpoint>
          <Trackpoint>
            <Time>2022-07-16T11:19:39.000Z</Time>
            <Position>
              <LatitudeDegrees>43.43958509154617786407470703125</LatitudeDegrees>
              <LongitudeDegrees>-4.8927162028849124908447265625</LongitudeDegrees>
            </Position>
            <AltitudeMeters>34.200000762939453125</AltitudeMeters>
            <DistanceMeters>NAN</DistanceMeters>
          </Trackpoint>
          <Trackpoint>
            <Time>2022-07-16T11:19:46.000Z</Time>
            <Position>
              <LatitudeDegrees>43.439494483172893524169921875</LatitudeDegrees>
              <LongitudeDegrees>-4.89281703718006610870361328125</LongitudeDegrees>
            </Position>
            <AltitudeMeters>35.200000762939453125</AltitudeMeters>
            <DistanceMeters>NAN</DistanceMeters>
          </Trackpoint>
          <Trackpoint>
            <Time>2022-07-16T11:19:47.000Z</Time>
            <Position>
              <LatitudeDegrees>43.4394822455942630767822265625</LatitudeDegrees>
              <LongitudeDegrees>-4.892832376062870025634765625</LongitudeDegrees>
            </Position>
            <AltitudeMeters>35.40000152587890625</AltitudeMeters>
            <DistanceMeters>NAN</DistanceMeters>
          </Trackpoint>
          <Trackpoint>
            <Time>2022-07-16T11:19:50.000Z</Time>
            <Position>
              <LatitudeDegrees>43.43945500440895557403564453125</LatitudeDegrees>
              <LongitudeDegrees>-4.89290420897305011749267578125</LongitudeDegrees>
            </Position>
            <AltitudeMeters>35.59999847412109375</AltitudeMeters>
            <DistanceMeters>NAN</DistanceMeters>
          </Trackpoint>
          <Trackpoint>
            <Time>2022-07-16T11:19:52.000Z</Time>
            <Position>
              <LatitudeDegrees>43.4394410066306591033935546875</LatitudeDegrees>
              <LongitudeDegrees>-4.8929508961737155914306640625</LongitudeDegrees>
            </Position>
            <AltitudeMeters>35.799999237060546875</AltitudeMeters>
            <DistanceMeters>NAN</DistanceMeters>
          </Trackpoint>
          <Trackpoint>
            <Time>2022-07-16T11:19:55.000Z</Time>
            <Position>
              <LatitudeDegrees>43.43942298553884029388427734375</LatitudeDegrees>
              <LongitudeDegrees>-4.8930156044661998748779296875</LongitudeDegrees>
            </Position>
            <AltitudeMeters>36</AltitudeMeters>
            <DistanceMeters>NAN</DistanceMeters>
          </Trackpoint>
          <Trackpoint>
            <Time>2022-07-16T11:19:58.000Z</Time>
            <Position>
              <LatitudeDegrees>43.43939851038157939910888671875</LatitudeDegrees>
              <LongitudeDegrees>-4.89307654090225696563720703125</LongitudeDegrees>
            </Position>
            <AltitudeMeters>36.200000762939453125</AltitudeMeters>
            <DistanceMeters>NAN</DistanceMeters>
          </Trackpoint>
          <Trackpoint>
            <Time>2022-07-16T11:20:00.000Z</Time>
            <Position>
              <LatitudeDegrees>43.439382500946521759033203125</LatitudeDegrees>
              <LongitudeDegrees>-4.89311434328556060791015625</LongitudeDegrees>
            </Position>
            <AltitudeMeters>36.40000152587890625</AltitudeMeters>
            <DistanceMeters>NAN</DistanceMeters>
          </Trackpoint>
          <Trackpoint>
            <Time>2022-07-16T11:20:08.000Z</Time>
            <Position>
              <LatitudeDegrees>43.43934671021997928619384765625</LatitudeDegrees>
              <LongitudeDegrees>-4.8932922072708606719970703125</LongitudeDegrees>
            </Position>
            <AltitudeMeters>36.59999847412109375</AltitudeMeters>
            <DistanceMeters>NAN</DistanceMeters>
          </Trackpoint>
          <Trackpoint>
            <Time>2022-07-16T11:20:12.000Z</Time>
            <Position>
              <LatitudeDegrees>43.43931737355887889862060546875</LatitudeDegrees>
              <LongitudeDegrees>-4.89347367547452449798583984375</LongitudeDegrees>
            </Position>
            <AltitudeMeters>36.200000762939453125</AltitudeMeters>
            <DistanceMeters>NAN</DistanceMeters>
          </Trackpoint>
          <Trackpoint>
            <Time>2022-07-16T11:20:14.000Z</Time>
            <Position>
              <LatitudeDegrees>43.43932424671947956085205078125</LatitudeDegrees>
              <LongitudeDegrees>-4.89357140846550464630126953125</LongitudeDegrees>
            </Position>
            <AltitudeMeters>35.799999237060546875</AltitudeMeters>
            <DistanceMeters>NAN</DistanceMeters>
          </Trackpoint>
          <Trackpoint>
            <Time>2022-07-16T11:20:16.000Z</Time>
            <Position>
              <LatitudeDegrees>43.43935123644769191741943359375</LatitudeDegrees>
              <LongitudeDegrees>-4.89366243593394756317138671875</LongitudeDegrees>
            </Position>
            <AltitudeMeters>35.40000152587890625</AltitudeMeters>
            <DistanceMeters>NAN</DistanceMeters>
          </Trackpoint>
          <Trackpoint>
            <Time>2022-07-16T11:20:17.000Z</Time>
            <Position>
              <LatitudeDegrees>43.4393712691962718963623046875</LatitudeDegrees>
              <LongitudeDegrees>-4.8937022499740123748779296875</LongitudeDegrees>
            </Position>
            <AltitudeMeters>35.40000152587890625</AltitudeMeters>
            <DistanceMeters>NAN</DistanceMeters>
          </Trackpoint>
          <Trackpoint>
            <Time>2022-07-16T11:20:18.000Z</Time>
            <Position>
              <LatitudeDegrees>43.43938375823199748992919921875</LatitudeDegrees>
              <LongitudeDegrees>-4.89373552612960338592529296875</LongitudeDegrees>
            </Position>
            <AltitudeMeters>35</AltitudeMeters>
            <DistanceMeters>NAN</DistanceMeters>
          </Trackpoint>
          <Trackpoint>
            <Time>2022-07-16T11:20:20.000Z</Time>
            <Position>
              <LatitudeDegrees>43.43940697610378265380859375</LatitudeDegrees>
              <LongitudeDegrees>-4.89381163381040096282958984375</LongitudeDegrees>
            </Position>
            <AltitudeMeters>34.40000152587890625</AltitudeMeters>
            <DistanceMeters>NAN</DistanceMeters>
          </Trackpoint>
          <Trackpoint>
            <Time>2022-07-16T11:20:23.000Z</Time>
            <Position>
              <LatitudeDegrees>43.43945416621863842010498046875</LatitudeDegrees>
              <LongitudeDegrees>-4.8939470015466213226318359375</LongitudeDegrees>
            </Position>
            <AltitudeMeters>34</AltitudeMeters>
            <DistanceMeters>NAN</DistanceMeters>
          </Trackpoint>
          <Trackpoint>
            <Time>2022-07-16T11:20:26.000Z</Time>
            <Position>
              <LatitudeDegrees>43.43951585702598094940185546875</LatitudeDegrees>
              <LongitudeDegrees>-4.89408572204411029815673828125</LongitudeDegrees>
            </Position>
            <AltitudeMeters>33.59999847412109375</AltitudeMeters>
            <DistanceMeters>NAN</DistanceMeters>
          </Trackpoint>
          <Trackpoint>
            <Time>2022-07-16T11:20:32.000Z</Time>
            <Position>
              <LatitudeDegrees>43.439673520624637603759765625</LatitudeDegrees>
              <LongitudeDegrees>-4.89435059018433094024658203125</LongitudeDegrees>
            </Position>
            <AltitudeMeters>33</AltitudeMeters>
            <DistanceMeters>NAN</DistanceMeters>
          </Trackpoint>
          <Trackpoint>
            <Time>2022-07-16T11:20:36.000Z</Time>
            <Position>
              <LatitudeDegrees>43.43978575430810451507568359375</LatitudeDegrees>
              <LongitudeDegrees>-4.8944881372153759002685546875</LongitudeDegrees>
            </Position>
            <AltitudeMeters>33</AltitudeMeters>
            <DistanceMeters>NAN</DistanceMeters>
          </Trackpoint>
          <Trackpoint>
            <Time>2022-07-16T11:20:38.000Z</Time>
            <Position>
              <LatitudeDegrees>43.43983973376452922821044921875</LatitudeDegrees>
              <LongitudeDegrees>-4.89453884772956371307373046875</LongitudeDegrees>
            </Position>
            <AltitudeMeters>32.59999847412109375</AltitudeMeters>
            <DistanceMeters>NAN</DistanceMeters>
          </Trackpoint>
          <Trackpoint>
            <Time>2022-07-16T11:20:41.000Z</Time>
            <Position>
              <LatitudeDegrees>43.439867980778217315673828125</LatitudeDegrees>
              <LongitudeDegrees>-4.8946259357035160064697265625</LongitudeDegrees>
            </Position>
            <AltitudeMeters>32.200000762939453125</AltitudeMeters>
            <DistanceMeters>NAN</DistanceMeters>
          </Trackpoint>
          <Trackpoint>
            <Time>2022-07-16T11:20:42.000Z</Time>
            <Position>
              <LatitudeDegrees>43.43985968269407749176025390625</LatitudeDegrees>
              <LongitudeDegrees>-4.8946654982864856719970703125</LongitudeDegrees>
            </Position>
            <AltitudeMeters>32</AltitudeMeters>
            <DistanceMeters>NAN</DistanceMeters>
          </Trackpoint>
          <Trackpoint>
            <Time>2022-07-16T11:20:45.000Z</Time>
            <Position>
              <LatitudeDegrees>43.439827077090740203857421875</LatitudeDegrees>
              <LongitudeDegrees>-4.894773960113525390625</LongitudeDegrees>
            </Position>
            <AltitudeMeters>31.799999237060546875</AltitudeMeters>
            <DistanceMeters>NAN</DistanceMeters>
          </Trackpoint>
          <Trackpoint>
            <Time>2022-07-16T11:20:49.000Z</Time>
            <Position>
              <LatitudeDegrees>43.43977636657655239105224609375</LatitudeDegrees>
              <LongitudeDegrees>-4.89490647800266742706298828125</LongitudeDegrees>
            </Position>
            <AltitudeMeters>31.799999237060546875</AltitudeMeters>
            <DistanceMeters>NAN</DistanceMeters>
          </Trackpoint>
          <Trackpoint>
            <Time>2022-07-16T11:20:52.000Z</Time>
            <Position>
              <LatitudeDegrees>43.43973378650844097137451171875</LatitudeDegrees>
              <LongitudeDegrees>-4.89498325623571872711181640625</LongitudeDegrees>
            </Position>
            <AltitudeMeters>32</AltitudeMeters>
            <DistanceMeters>NAN</DistanceMeters>
          </Trackpoint>
          <Trackpoint>
            <Time>2022-07-16T11:20:54.000Z</Time>
            <Position>
              <LatitudeDegrees>43.43971408903598785400390625</LatitudeDegrees>
              <LongitudeDegrees>-4.8950302787125110626220703125</LongitudeDegrees>
            </Position>
            <AltitudeMeters>32.200000762939453125</AltitudeMeters>
            <DistanceMeters>NAN</DistanceMeters>
          </Trackpoint>
          <Trackpoint>
            <Time>2022-07-16T11:20:57.000Z</Time>
            <Position>
              <LatitudeDegrees>43.4396700002253055572509765625</LatitudeDegrees>
              <LongitudeDegrees>-4.895116277039051055908203125</LongitudeDegrees>
            </Position>
            <AltitudeMeters>32.40000152587890625</AltitudeMeters>
            <DistanceMeters>NAN</DistanceMeters>
          </Trackpoint>
          <Trackpoint>
            <Time>2022-07-16T11:21:01.000Z</Time>
            <Position>
              <LatitudeDegrees>43.439607135951519012451171875</LatitudeDegrees>
              <LongitudeDegrees>-4.89519464783370494842529296875</LongitudeDegrees>
            </Position>
            <AltitudeMeters>32.59999847412109375</AltitudeMeters>
            <DistanceMeters>NAN</DistanceMeters>
          </Trackpoint>
          <Trackpoint>
            <Time>2022-07-16T11:21:07.000Z</Time>
            <Position>
              <LatitudeDegrees>43.4395429305732250213623046875</LatitudeDegrees>
              <LongitudeDegrees>-4.89532439969480037689208984375</LongitudeDegrees>
            </Position>
            <AltitudeMeters>32.799999237060546875</AltitudeMeters>
            <DistanceMeters>NAN</DistanceMeters>
          </Trackpoint>
          <Trackpoint>
            <Time>2022-07-16T11:21:08.000Z</Time>
            <Position>
              <LatitudeDegrees>43.43953278847038745880126953125</LatitudeDegrees>
              <LongitudeDegrees>-4.8953457735478878021240234375</LongitudeDegrees>
            </Position>
            <AltitudeMeters>32.799999237060546875</AltitudeMeters>
            <DistanceMeters>NAN</DistanceMeters>
          </Trackpoint>
          <Trackpoint>
            <Time>2022-07-16T11:21:09.000Z</Time>
            <Position>
              <LatitudeDegrees>43.43951753340661525726318359375</LatitudeDegrees>
              <LongitudeDegrees>-4.89538072608411312103271484375</LongitudeDegrees>
            </Position>
            <AltitudeMeters>33</AltitudeMeters>
            <DistanceMeters>NAN</DistanceMeters>
          </Trackpoint>
          <Trackpoint>
            <Time>2022-07-16T11:21:11.000Z</Time>
            <Position>
              <LatitudeDegrees>43.4394909627735614776611328125</LatitudeDegrees>
              <LongitudeDegrees>-4.89544291980564594268798828125</LongitudeDegrees>
            </Position>
            <AltitudeMeters>33.200000762939453125</AltitudeMeters>
            <DistanceMeters>NAN</DistanceMeters>
          </Trackpoint>
          <Trackpoint>
            <Time>2022-07-16T11:21:13.000Z</Time>
            <Position>
              <LatitudeDegrees>43.43947864137589931488037109375</LatitudeDegrees>
              <LongitudeDegrees>-4.8954946361482143402099609375</LongitudeDegrees>
            </Position>
            <AltitudeMeters>33.200000762939453125</AltitudeMeters>
            <DistanceMeters>NAN</DistanceMeters>
          </Trackpoint>
          <Trackpoint>
            <Time>2022-07-16T11:21:18.000Z</Time>
            <Position>
              <LatitudeDegrees>43.4394802339375019073486328125</LatitudeDegrees>
              <LongitudeDegrees>-4.8956465162336826324462890625</LongitudeDegrees>
            </Position>
            <AltitudeMeters>33.200000762939453125</AltitudeMeters>
            <DistanceMeters>NAN</DistanceMeters>
          </Trackpoint>
          <Trackpoint>
            <Time>2022-07-16T11:21:21.000Z</Time>
            <Position>
              <LatitudeDegrees>43.43948031775653362274169921875</LatitudeDegrees>
              <LongitudeDegrees>-4.8957494460046291351318359375</LongitudeDegrees>
            </Position>
            <AltitudeMeters>33.40000152587890625</AltitudeMeters>
            <DistanceMeters>NAN</DistanceMeters>
          </Trackpoint>
          <Trackpoint>
            <Time>2022-07-16T11:21:23.000Z</Time>
            <Position>
              <LatitudeDegrees>43.439482748508453369140625</LatitudeDegrees>
              <LongitudeDegrees>-4.89582060836255550384521484375</LongitudeDegrees>
            </Position>
            <AltitudeMeters>33.40000152587890625</AltitudeMeters>
            <DistanceMeters>NAN</DistanceMeters>
          </Trackpoint>
          <Trackpoint>
            <Time>2022-07-16T11:21:25.000Z</Time>
            <Position>
              <LatitudeDegrees>43.43947998248040676116943359375</LatitudeDegrees>
              <LongitudeDegrees>-4.89589286036789417266845703125</LongitudeDegrees>
            </Position>
            <AltitudeMeters>33.59999847412109375</AltitudeMeters>
            <DistanceMeters>NAN</DistanceMeters>
          </Trackpoint>
          <Trackpoint>
            <Time>2022-07-16T11:21:29.000Z</Time>
            <Position>
              <LatitudeDegrees>43.43950177542865276336669921875</LatitudeDegrees>
              <LongitudeDegrees>-4.8960404656827449798583984375</LongitudeDegrees>
            </Position>
            <AltitudeMeters>33.799999237060546875</AltitudeMeters>
            <DistanceMeters>NAN</DistanceMeters>
          </Trackpoint>
          <Trackpoint>
            <Time>2022-07-16T11:21:30.000Z</Time>
            <Position>
              <LatitudeDegrees>43.4395043738186359405517578125</LatitudeDegrees>
              <LongitudeDegrees>-4.89607692696154117584228515625</LongitudeDegrees>
            </Position>
            <AltitudeMeters>33.799999237060546875</AltitudeMeters>
            <DistanceMeters>NAN</DistanceMeters>
          </Trackpoint>
          <Trackpoint>
            <Time>2022-07-16T11:21:33.000Z</Time>
            <Position>
              <LatitudeDegrees>43.43948953785002231597900390625</LatitudeDegrees>
              <LongitudeDegrees>-4.89618480205535888671875</LongitudeDegrees>
            </Position>
            <AltitudeMeters>34</AltitudeMeters>
            <DistanceMeters>NAN</DistanceMeters>
          </Trackpoint>
          <Trackpoint>
            <Time>2022-07-16T11:21:35.000Z</Time>
            <Position>
              <LatitudeDegrees>43.439464308321475982666015625</LatitudeDegrees>
              <LongitudeDegrees>-4.89625663496553897857666015625</LongitudeDegrees>
            </Position>
            <AltitudeMeters>34</AltitudeMeters>
            <DistanceMeters>NAN</DistanceMeters>
          </Trackpoint>
          <Trackpoint>
            <Time>2022-07-16T11:21:37.000Z</Time>
            <Position>
              <LatitudeDegrees>43.439460955560207366943359375</LatitudeDegrees>
              <LongitudeDegrees>-4.8963241092860698699951171875</LongitudeDegrees>
            </Position>
            <AltitudeMeters>34.200000762939453125</AltitudeMeters>
            <DistanceMeters>NAN</DistanceMeters>
          </Trackpoint>
          <Trackpoint>
            <Time>2022-07-16T11:21:44.000Z</Time>
            <Position>
              <LatitudeDegrees>43.4393840096890926361083984375</LatitudeDegrees>
              <LongitudeDegrees>-4.8965175636112689971923828125</LongitudeDegrees>
            </Position>
            <AltitudeMeters>34.59999847412109375</AltitudeMeters>
            <DistanceMeters>NAN</DistanceMeters>
          </Trackpoint>
          <Trackpoint>
            <Time>2022-07-16T11:21:46.000Z</Time>
            <Position>
              <LatitudeDegrees>43.4393632225692272186279296875</LatitudeDegrees>
              <LongitudeDegrees>-4.896578751504421234130859375</LongitudeDegrees>
            </Position>
            <AltitudeMeters>34.799999237060546875</AltitudeMeters>
            <DistanceMeters>NAN</DistanceMeters>
          </Trackpoint>
          <Trackpoint>
            <Time>2022-07-16T11:21:49.000Z</Time>
            <Position>
              <LatitudeDegrees>43.4393250010907649993896484375</LatitudeDegrees>
              <LongitudeDegrees>-4.89665695466101169586181640625</LongitudeDegrees>
            </Position>
            <AltitudeMeters>35</AltitudeMeters>
            <DistanceMeters>NAN</DistanceMeters>
          </Trackpoint>
          <Trackpoint>
            <Time>2022-07-16T11:21:50.000Z</Time>
            <Position>
              <LatitudeDegrees>43.439309410750865936279296875</LatitudeDegrees>
              <LongitudeDegrees>-4.89667757414281368255615234375</LongitudeDegrees>
            </Position>
            <AltitudeMeters>35.200000762939453125</AltitudeMeters>
            <DistanceMeters>NAN</DistanceMeters>
          </Trackpoint>
          <Trackpoint>
            <Time>2022-07-16T11:21:55.000Z</Time>
            <Position>
              <LatitudeDegrees>43.4392133541405200958251953125</LatitudeDegrees>
              <LongitudeDegrees>-4.8967673443257808685302734375</LongitudeDegrees>
            </Position>
            <AltitudeMeters>35.40000152587890625</AltitudeMeters>
            <DistanceMeters>NAN</DistanceMeters>
          </Trackpoint>
          <Trackpoint>
            <Time>2022-07-16T11:22:01.000Z</Time>
            <Position>
              <LatitudeDegrees>43.4391345642507076263427734375</LatitudeDegrees>
              <LongitudeDegrees>-4.896895252168178558349609375</LongitudeDegrees>
            </Position>
            <AltitudeMeters>36</AltitudeMeters>
            <DistanceMeters>NAN</DistanceMeters>
          </Trackpoint>
          <Trackpoint>
            <Time>2022-07-16T11:22:03.000Z</Time>
            <Position>
              <LatitudeDegrees>43.4391238354146480560302734375</LatitudeDegrees>
              <LongitudeDegrees>-4.8969349823892116546630859375</LongitudeDegrees>
            </Position>
            <AltitudeMeters>36.200000762939453125</AltitudeMeters>
            <DistanceMeters>NAN</DistanceMeters>
          </Trackpoint>
          <Trackpoint>
            <Time>2022-07-16T11:22:10.000Z</Time>
            <Position>
              <LatitudeDegrees>43.43903238885104656219482421875</LatitudeDegrees>
              <LongitudeDegrees>-4.89705392159521579742431640625</LongitudeDegrees>
            </Position>
            <AltitudeMeters>36.59999847412109375</AltitudeMeters>
            <DistanceMeters>NAN</DistanceMeters>
          </Trackpoint>
          <Trackpoint>
            <Time>2022-07-16T11:22:15.000Z</Time>
            <Position>
              <LatitudeDegrees>43.43892744742333889007568359375</LatitudeDegrees>
              <LongitudeDegrees>-4.897134639322757720947265625</LongitudeDegrees>
            </Position>
            <AltitudeMeters>37</AltitudeMeters>
            <DistanceMeters>NAN</DistanceMeters>
          </Trackpoint>
          <Trackpoint>
            <Time>2022-07-16T11:22:16.000Z</Time>
            <Position>
              <LatitudeDegrees>43.43892107717692852020263671875</LatitudeDegrees>
              <LongitudeDegrees>-4.8971572704613208770751953125</LongitudeDegrees>
            </Position>
            <AltitudeMeters>37</AltitudeMeters>
            <DistanceMeters>NAN</DistanceMeters>
          </Trackpoint>
          <Trackpoint>
            <Time>2022-07-16T11:22:18.000Z</Time>
            <Position>
              <LatitudeDegrees>43.438899703323841094970703125</LatitudeDegrees>
              <LongitudeDegrees>-4.89720596931874752044677734375</LongitudeDegrees>
            </Position>
            <AltitudeMeters>37.200000762939453125</AltitudeMeters>
            <DistanceMeters>NAN</DistanceMeters>
          </Trackpoint>
          <Trackpoint>
            <Time>2022-07-16T11:22:21.000Z</Time>
            <Position>
              <LatitudeDegrees>43.4388851188123226165771484375</LatitudeDegrees>
              <LongitudeDegrees>-4.897275455296039581298828125</LongitudeDegrees>
            </Position>
            <AltitudeMeters>37.200000762939453125</AltitudeMeters>
            <DistanceMeters>NAN</DistanceMeters>
          </Trackpoint>
          <Trackpoint>
            <Time>2022-07-16T11:22:28.000Z</Time>
            <Position>
              <LatitudeDegrees>43.43881982378661632537841796875</LatitudeDegrees>
              <LongitudeDegrees>-4.89744745194911956787109375</LongitudeDegrees>
            </Position>
            <AltitudeMeters>37.59999847412109375</AltitudeMeters>
            <DistanceMeters>NAN</DistanceMeters>
          </Trackpoint>
          <Trackpoint>
            <Time>2022-07-16T11:22:32.000Z</Time>
            <Position>
              <LatitudeDegrees>43.438782356679439544677734375</LatitudeDegrees>
              <LongitudeDegrees>-4.89754660986363887786865234375</LongitudeDegrees>
            </Position>
            <AltitudeMeters>38.200000762939453125</AltitudeMeters>
            <DistanceMeters>NAN</DistanceMeters>
          </Trackpoint>
          <Trackpoint>
            <Time>2022-07-16T11:22:34.000Z</Time>
            <Position>
              <LatitudeDegrees>43.43877674080431461334228515625</LatitudeDegrees>
              <LongitudeDegrees>-4.89758885465562343597412109375</LongitudeDegrees>
            </Position>
            <AltitudeMeters>38.40000152587890625</AltitudeMeters>
            <DistanceMeters>NAN</DistanceMeters>
          </Trackpoint>
          <Trackpoint>
            <Time>2022-07-16T11:22:36.000Z</Time>
            <Position>
              <LatitudeDegrees>43.43877875246107578277587890625</LatitudeDegrees>
              <LongitudeDegrees>-4.89763998426496982574462890625</LongitudeDegrees>
            </Position>
            <AltitudeMeters>38.40000152587890625</AltitudeMeters>
            <DistanceMeters>NAN</DistanceMeters>
          </Trackpoint>
          <Trackpoint>
            <Time>2022-07-16T11:22:39.000Z</Time>
            <Position>
              <LatitudeDegrees>43.43872879631817340850830078125</LatitudeDegrees>
              <LongitudeDegrees>-4.8977252282202243804931640625</LongitudeDegrees>
            </Position>
            <AltitudeMeters>38.40000152587890625</AltitudeMeters>
            <DistanceMeters>NAN</DistanceMeters>
          </Trackpoint>
          <Trackpoint>
            <Time>2022-07-16T11:22:46.000Z</Time>
            <Position>
              <LatitudeDegrees>43.43867397867143154144287109375</LatitudeDegrees>
              <LongitudeDegrees>-4.8978491127490997314453125</LongitudeDegrees>
            </Position>
            <AltitudeMeters>38.799999237060546875</AltitudeMeters>
            <DistanceMeters>NAN</DistanceMeters>
          </Trackpoint>
          <Trackpoint>
            <Time>2022-07-16T11:22:53.000Z</Time>
            <Position>
              <LatitudeDegrees>43.43861748464405536651611328125</LatitudeDegrees>
              <LongitudeDegrees>-4.8979988135397434234619140625</LongitudeDegrees>
            </Position>
            <AltitudeMeters>39</AltitudeMeters>
            <DistanceMeters>NAN</DistanceMeters>
          </Trackpoint>
          <Trackpoint>
            <Time>2022-07-16T11:22:55.000Z</Time>
            <Position>
              <LatitudeDegrees>43.43861077912151813507080078125</LatitudeDegrees>
              <LongitudeDegrees>-4.8980447463691234588623046875</LongitudeDegrees>
            </Position>
            <AltitudeMeters>39.200000762939453125</AltitudeMeters>
            <DistanceMeters>NAN</DistanceMeters>
          </Trackpoint>
          <Trackpoint>
            <Time>2022-07-16T11:22:56.000Z</Time>
            <Position>
              <LatitudeDegrees>43.43860524706542491912841796875</LatitudeDegrees>
              <LongitudeDegrees>-4.8980631865561008453369140625</LongitudeDegrees>
            </Position>
            <AltitudeMeters>39.200000762939453125</AltitudeMeters>
            <DistanceMeters>NAN</DistanceMeters>
          </Trackpoint>
          <Trackpoint>
            <Time>2022-07-16T11:22:58.000Z</Time>
            <Position>
              <LatitudeDegrees>43.43861312605440616607666015625</LatitudeDegrees>
              <LongitudeDegrees>-4.89810501225292682647705078125</LongitudeDegrees>
            </Position>
            <AltitudeMeters>39.40000152587890625</AltitudeMeters>
            <DistanceMeters>NAN</DistanceMeters>
          </Trackpoint>
          <Trackpoint>
            <Time>2022-07-16T11:23:00.000Z</Time>
            <Position>
              <LatitudeDegrees>43.43863341026008129119873046875</LatitudeDegrees>
              <LongitudeDegrees>-4.8981647752225399017333984375</LongitudeDegrees>
            </Position>
            <AltitudeMeters>39.59999847412109375</AltitudeMeters>
            <DistanceMeters>NAN</DistanceMeters>
          </Trackpoint>
          <Trackpoint>
            <Time>2022-07-16T11:23:04.000Z</Time>
            <Position>
              <LatitudeDegrees>43.43868487514555454254150390625</LatitudeDegrees>
              <LongitudeDegrees>-4.89821724593639373779296875</LongitudeDegrees>
            </Position>
            <AltitudeMeters>40</AltitudeMeters>
            <DistanceMeters>NAN</DistanceMeters>
          </Trackpoint>
          <Trackpoint>
            <Time>2022-07-16T11:23:08.000Z</Time>
            <Position>
              <LatitudeDegrees>43.43871555291116237640380859375</LatitudeDegrees>
              <LongitudeDegrees>-4.898296035826206207275390625</LongitudeDegrees>
            </Position>
            <AltitudeMeters>40.200000762939453125</AltitudeMeters>
            <DistanceMeters>NAN</DistanceMeters>
          </Trackpoint>
          <Trackpoint>
            <Time>2022-07-16T11:23:13.000Z</Time>
            <Position>
              <LatitudeDegrees>43.438742794096469879150390625</LatitudeDegrees>
              <LongitudeDegrees>-4.8983937688171863555908203125</LongitudeDegrees>
            </Position>
            <AltitudeMeters>40.59999847412109375</AltitudeMeters>
            <DistanceMeters>NAN</DistanceMeters>
          </Trackpoint>
          <Trackpoint>
            <Time>2022-07-16T11:23:15.000Z</Time>
            <Position>
              <LatitudeDegrees>43.43875788152217864990234375</LatitudeDegrees>
              <LongitudeDegrees>-4.8984199203550815582275390625</LongitudeDegrees>
            </Position>
            <AltitudeMeters>40.799999237060546875</AltitudeMeters>
            <DistanceMeters>NAN</DistanceMeters>
          </Trackpoint>
          <Trackpoint>
            <Time>2022-07-16T11:23:18.000Z</Time>
            <Position>
              <LatitudeDegrees>43.43875712715089321136474609375</LatitudeDegrees>
              <LongitudeDegrees>-4.89848085679113864898681640625</LongitudeDegrees>
            </Position>
            <AltitudeMeters>41.200000762939453125</AltitudeMeters>
            <DistanceMeters>NAN</DistanceMeters>
          </Trackpoint>
          <Trackpoint>
            <Time>2022-07-16T11:23:19.000Z</Time>
            <Position>
              <LatitudeDegrees>43.43875779770314693450927734375</LatitudeDegrees>
              <LongitudeDegrees>-4.89849946461617946624755859375</LongitudeDegrees>
            </Position>
            <AltitudeMeters>41.40000152587890625</AltitudeMeters>
            <DistanceMeters>NAN</DistanceMeters>
          </Trackpoint>
          <Trackpoint>
            <Time>2022-07-16T11:23:24.000Z</Time>
            <Position>
              <LatitudeDegrees>43.43877120874822139739990234375</LatitudeDegrees>
              <LongitudeDegrees>-4.89861865527927875518798828125</LongitudeDegrees>
            </Position>
            <AltitudeMeters>42.200000762939453125</AltitudeMeters>
            <DistanceMeters>NAN</DistanceMeters>
          </Trackpoint>
          <Trackpoint>
            <Time>2022-07-16T11:23:26.000Z</Time>
            <Position>
              <LatitudeDegrees>43.438780009746551513671875</LatitudeDegrees>
              <LongitudeDegrees>-4.89866877906024456024169921875</LongitudeDegrees>
            </Position>
            <AltitudeMeters>42.40000152587890625</AltitudeMeters>
            <DistanceMeters>NAN</DistanceMeters>
          </Trackpoint>
          <Trackpoint>
            <Time>2022-07-16T11:23:28.000Z</Time>
            <Position>
              <LatitudeDegrees>43.43878461979329586029052734375</LatitudeDegrees>
              <LongitudeDegrees>-4.89871035329997539520263671875</LongitudeDegrees>
            </Position>
            <AltitudeMeters>42.59999847412109375</AltitudeMeters>
            <DistanceMeters>NAN</DistanceMeters>
          </Trackpoint>
          <Trackpoint>
            <Time>2022-07-16T11:23:30.000Z</Time>
            <Position>
              <LatitudeDegrees>43.4387818537652492523193359375</LatitudeDegrees>
              <LongitudeDegrees>-4.89876165054738521575927734375</LongitudeDegrees>
            </Position>
            <AltitudeMeters>42.799999237060546875</AltitudeMeters>
            <DistanceMeters>NAN</DistanceMeters>
          </Trackpoint>
          <Trackpoint>
            <Time>2022-07-16T11:23:31.000Z</Time>
            <Position>
              <LatitudeDegrees>43.4387771598994731903076171875</LatitudeDegrees>
              <LongitudeDegrees>-4.89879735745489597320556640625</LongitudeDegrees>
            </Position>
            <AltitudeMeters>42.799999237060546875</AltitudeMeters>
            <DistanceMeters>NAN</DistanceMeters>
          </Trackpoint>
          <Trackpoint>
            <Time>2022-07-16T11:23:38.000Z</Time>
            <Position>
              <LatitudeDegrees>43.43875343911349773406982421875</LatitudeDegrees>
              <LongitudeDegrees>-4.898963905870914459228515625</LongitudeDegrees>
            </Position>
            <AltitudeMeters>43.40000152587890625</AltitudeMeters>
            <DistanceMeters>NAN</DistanceMeters>
          </Trackpoint>
          <Trackpoint>
            <Time>2022-07-16T11:23:39.000Z</Time>
            <Position>
              <LatitudeDegrees>43.43873918987810611724853515625</LatitudeDegrees>
              <LongitudeDegrees>-4.898986034095287322998046875</LongitudeDegrees>
            </Position>
            <AltitudeMeters>43.59999847412109375</AltitudeMeters>
            <DistanceMeters>NAN</DistanceMeters>
          </Trackpoint>
          <Trackpoint>
            <Time>2022-07-16T11:23:40.000Z</Time>
            <Position>
              <LatitudeDegrees>43.43872007913887500762939453125</LatitudeDegrees>
              <LongitudeDegrees>-4.8989972658455371856689453125</LongitudeDegrees>
            </Position>
            <AltitudeMeters>43.59999847412109375</AltitudeMeters>
            <DistanceMeters>NAN</DistanceMeters>
          </Trackpoint>
          <Trackpoint>
            <Time>2022-07-16T11:23:43.000Z</Time>
            <Position>
              <LatitudeDegrees>43.43872167170047760009765625</LatitudeDegrees>
              <LongitudeDegrees>-4.8990586213767528533935546875</LongitudeDegrees>
            </Position>
            <AltitudeMeters>43.799999237060546875</AltitudeMeters>
            <DistanceMeters>NAN</DistanceMeters>
          </Trackpoint>
          <Trackpoint>
            <Time>2022-07-16T11:23:44.000Z</Time>
            <Position>
              <LatitudeDegrees>43.43872611410915851593017578125</LatitudeDegrees>
              <LongitudeDegrees>-4.89907513372600078582763671875</LongitudeDegrees>
            </Position>
            <AltitudeMeters>44</AltitudeMeters>
            <DistanceMeters>NAN</DistanceMeters>
          </Trackpoint>
          <Trackpoint>
            <Time>2022-07-16T11:23:50.000Z</Time>
            <Position>
              <LatitudeDegrees>43.4387399442493915557861328125</LatitudeDegrees>
              <LongitudeDegrees>-4.89924947731196880340576171875</LongitudeDegrees>
            </Position>
            <AltitudeMeters>44.40000152587890625</AltitudeMeters>
            <DistanceMeters>NAN</DistanceMeters>
          </Trackpoint>
          <Trackpoint>
            <Time>2022-07-16T11:23:53.000Z</Time>
            <Position>
              <LatitudeDegrees>43.4387090988457202911376953125</LatitudeDegrees>
              <LongitudeDegrees>-4.89936967380344867706298828125</LongitudeDegrees>
            </Position>
            <AltitudeMeters>44.59999847412109375</AltitudeMeters>
            <DistanceMeters>NAN</DistanceMeters>
          </Trackpoint>
          <Trackpoint>
            <Time>2022-07-16T11:23:55.000Z</Time>
            <Position>
              <LatitudeDegrees>43.43868034891784191131591796875</LatitudeDegrees>
              <LongitudeDegrees>-4.89941619336605072021484375</LongitudeDegrees>
            </Position>
            <AltitudeMeters>44.799999237060546875</AltitudeMeters>
            <DistanceMeters>NAN</DistanceMeters>
          </Trackpoint>
          <Trackpoint>
            <Time>2022-07-16T11:23:57.000Z</Time>
            <Position>
              <LatitudeDegrees>43.4386886470019817352294921875</LatitudeDegrees>
              <LongitudeDegrees>-4.899449050426483154296875</LongitudeDegrees>
            </Position>
            <AltitudeMeters>45</AltitudeMeters>
            <DistanceMeters>NAN</DistanceMeters>
          </Trackpoint>
          <Trackpoint>
            <Time>2022-07-16T11:24:02.000Z</Time>
            <Position>
              <LatitudeDegrees>43.43872276134788990020751953125</LatitudeDegrees>
              <LongitudeDegrees>-4.8995384015142917633056640625</LongitudeDegrees>
            </Position>
            <AltitudeMeters>45.59999847412109375</AltitudeMeters>
            <DistanceMeters>NAN</DistanceMeters>
          </Trackpoint>
          <Trackpoint>
            <Time>2022-07-16T11:24:03.000Z</Time>
            <Position>
              <LatitudeDegrees>43.4387251920998096466064453125</LatitudeDegrees>
              <LongitudeDegrees>-4.8995511420071125030517578125</LongitudeDegrees>
            </Position>
            <AltitudeMeters>45.799999237060546875</AltitudeMeters>
            <DistanceMeters>NAN</DistanceMeters>
          </Trackpoint>
          <Trackpoint>
            <Time>2022-07-16T11:24:10.000Z</Time>
            <Position>
              <LatitudeDegrees>43.43874606303870677947998046875</LatitudeDegrees>
              <LongitudeDegrees>-4.8996758647263050079345703125</LongitudeDegrees>
            </Position>
            <AltitudeMeters>46.799999237060546875</AltitudeMeters>
            <DistanceMeters>NAN</DistanceMeters>
          </Trackpoint>
          <Trackpoint>
            <Time>2022-07-16T11:24:11.000Z</Time>
            <Position>
              <LatitudeDegrees>43.43874438665807247161865234375</LatitudeDegrees>
              <LongitudeDegrees>-4.89969690330326557159423828125</LongitudeDegrees>
            </Position>
            <AltitudeMeters>47</AltitudeMeters>
            <DistanceMeters>NAN</DistanceMeters>
          </Trackpoint>
          <Trackpoint>
            <Time>2022-07-16T11:24:16.000Z</Time>
            <Position>
              <LatitudeDegrees>43.4387332387268543243408203125</LatitudeDegrees>
              <LongitudeDegrees>-4.89979580976068973541259765625</LongitudeDegrees>
            </Position>
            <AltitudeMeters>47.799999237060546875</AltitudeMeters>
            <DistanceMeters>NAN</DistanceMeters>
          </Trackpoint>
          <Trackpoint>
            <Time>2022-07-16T11:24:17.000Z</Time>
            <Position>
              <LatitudeDegrees>43.43873298726975917816162109375</LatitudeDegrees>
              <LongitudeDegrees>-4.899813495576381683349609375</LongitudeDegrees>
            </Position>
            <AltitudeMeters>48.40000152587890625</AltitudeMeters>
            <DistanceMeters>NAN</DistanceMeters>
          </Trackpoint>
          <Trackpoint>
            <Time>2022-07-16T11:24:20.000Z</Time>
            <Position>
              <LatitudeDegrees>43.4387295506894588470458984375</LatitudeDegrees>
              <LongitudeDegrees>-4.89987040869891643524169921875</LongitudeDegrees>
            </Position>
            <AltitudeMeters>48.799999237060546875</AltitudeMeters>
            <DistanceMeters>NAN</DistanceMeters>
          </Trackpoint>
          <Trackpoint>
            <Time>2022-07-16T11:24:21.000Z</Time>
            <Position>
              <LatitudeDegrees>43.43873080797493457794189453125</LatitudeDegrees>
              <LongitudeDegrees>-4.89989052526652812957763671875</LongitudeDegrees>
            </Position>
            <AltitudeMeters>49.200000762939453125</AltitudeMeters>
            <DistanceMeters>NAN</DistanceMeters>
          </Trackpoint>
          <Trackpoint>
            <Time>2022-07-16T11:24:22.000Z</Time>
            <Position>
              <LatitudeDegrees>43.43873441219329833984375</LatitudeDegrees>
              <LongitudeDegrees>-4.89990242756903171539306640625</LongitudeDegrees>
            </Position>
            <AltitudeMeters>49.40000152587890625</AltitudeMeters>
            <DistanceMeters>NAN</DistanceMeters>
          </Trackpoint>
          <Trackpoint>
            <Time>2022-07-16T11:24:26.000Z</Time>
            <Position>
              <LatitudeDegrees>43.4387759864330291748046875</LatitudeDegrees>
              <LongitudeDegrees>-4.89996529184281826019287109375</LongitudeDegrees>
            </Position>
            <AltitudeMeters>50.200000762939453125</AltitudeMeters>
            <DistanceMeters>NAN</DistanceMeters>
          </Trackpoint>
          <Trackpoint>
            <Time>2022-07-16T11:24:27.000Z</Time>
            <Position>
              <LatitudeDegrees>43.43878478743135929107666015625</LatitudeDegrees>
              <LongitudeDegrees>-4.8999752663075923919677734375</LongitudeDegrees>
            </Position>
            <AltitudeMeters>50.40000152587890625</AltitudeMeters>
            <DistanceMeters>NAN</DistanceMeters>
          </Trackpoint>
          <Trackpoint>
            <Time>2022-07-16T11:24:28.000Z</Time>
            <Position>
              <LatitudeDegrees>43.43879685737192630767822265625</LatitudeDegrees>
              <LongitudeDegrees>-4.8999921977519989013671875</LongitudeDegrees>
            </Position>
            <AltitudeMeters>50.40000152587890625</AltitudeMeters>
            <DistanceMeters>NAN</DistanceMeters>
          </Trackpoint>
          <Trackpoint>
            <Time>2022-07-16T11:24:32.000Z</Time>
            <Position>
              <LatitudeDegrees>43.4388130344450473785400390625</LatitudeDegrees>
              <LongitudeDegrees>-4.9000560678541660308837890625</LongitudeDegrees>
            </Position>
            <AltitudeMeters>51.200000762939453125</AltitudeMeters>
            <DistanceMeters>NAN</DistanceMeters>
          </Trackpoint>
          <Trackpoint>
            <Time>2022-07-16T11:24:33.000Z</Time>
            <Position>
              <LatitudeDegrees>43.4388180635869503021240234375</LatitudeDegrees>
              <LongitudeDegrees>-4.90007056854665279388427734375</LongitudeDegrees>
            </Position>
            <AltitudeMeters>51.40000152587890625</AltitudeMeters>
            <DistanceMeters>NAN</DistanceMeters>
          </Trackpoint>
          <Trackpoint>
            <Time>2022-07-16T11:24:35.000Z</Time>
            <Position>
              <LatitudeDegrees>43.43882552348077297210693359375</LatitudeDegrees>
              <LongitudeDegrees>-4.90010979585349559783935546875</LongitudeDegrees>
            </Position>
            <AltitudeMeters>51.799999237060546875</AltitudeMeters>
            <DistanceMeters>NAN</DistanceMeters>
          </Trackpoint>
          <Trackpoint>
            <Time>2022-07-16T11:24:38.000Z</Time>
            <Position>
              <LatitudeDegrees>43.438836671411991119384765625</LatitudeDegrees>
              <LongitudeDegrees>-4.90015874616801738739013671875</LongitudeDegrees>
            </Position>
            <AltitudeMeters>52.59999847412109375</AltitudeMeters>
            <DistanceMeters>NAN</DistanceMeters>
          </Trackpoint>
          <Trackpoint>
            <Time>2022-07-16T11:24:41.000Z</Time>
            <Position>
              <LatitudeDegrees>43.438856787979602813720703125</LatitudeDegrees>
              <LongitudeDegrees>-4.90022127516567707061767578125</LongitudeDegrees>
            </Position>
            <AltitudeMeters>52.799999237060546875</AltitudeMeters>
            <DistanceMeters>NAN</DistanceMeters>
          </Trackpoint>
          <Trackpoint>
            <Time>2022-07-16T11:24:43.000Z</Time>
            <Position>
              <LatitudeDegrees>43.43887095339596271514892578125</LatitudeDegrees>
              <LongitudeDegrees>-4.900272823870182037353515625</LongitudeDegrees>
            </Position>
            <AltitudeMeters>52.799999237060546875</AltitudeMeters>
            <DistanceMeters>NAN</DistanceMeters>
          </Trackpoint>
          <Trackpoint>
            <Time>2022-07-16T11:24:47.000Z</Time>
            <Position>
              <LatitudeDegrees>43.4388928301632404327392578125</LatitudeDegrees>
              <LongitudeDegrees>-4.90042897872626781463623046875</LongitudeDegrees>
            </Position>
            <AltitudeMeters>51.799999237060546875</AltitudeMeters>
            <DistanceMeters>NAN</DistanceMeters>
          </Trackpoint>
          <Trackpoint>
            <Time>2022-07-16T11:24:50.000Z</Time>
            <Position>
              <LatitudeDegrees>43.43891487456858158111572265625</LatitudeDegrees>
              <LongitudeDegrees>-4.90055386908352375030517578125</LongitudeDegrees>
            </Position>
            <AltitudeMeters>51.40000152587890625</AltitudeMeters>
            <DistanceMeters>NAN</DistanceMeters>
          </Trackpoint>
          <Trackpoint>
            <Time>2022-07-16T11:24:52.000Z</Time>
            <Position>
              <LatitudeDegrees>43.4389166347682476043701171875</LatitudeDegrees>
              <LongitudeDegrees>-4.90062452852725982666015625</LongitudeDegrees>
            </Position>
            <AltitudeMeters>51.200000762939453125</AltitudeMeters>
            <DistanceMeters>NAN</DistanceMeters>
          </Trackpoint>
          <Trackpoint>
            <Time>2022-07-16T11:24:56.000Z</Time>
            <Position>
              <LatitudeDegrees>43.43890951015055179595947265625</LatitudeDegrees>
              <LongitudeDegrees>-4.90074925124645233154296875</LongitudeDegrees>
            </Position>
            <AltitudeMeters>51.200000762939453125</AltitudeMeters>
            <DistanceMeters>NAN</DistanceMeters>
          </Trackpoint>
          <Trackpoint>
            <Time>2022-07-16T11:24:57.000Z</Time>
            <Position>
              <LatitudeDegrees>43.43890112824738025665283203125</LatitudeDegrees>
              <LongitudeDegrees>-4.90078504197299480438232421875</LongitudeDegrees>
            </Position>
            <AltitudeMeters>51.200000762939453125</AltitudeMeters>
            <DistanceMeters>NAN</DistanceMeters>
          </Trackpoint>
          <Trackpoint>
            <Time>2022-07-16T11:24:58.000Z</Time>
            <Position>
              <LatitudeDegrees>43.43890045769512653350830078125</LatitudeDegrees>
              <LongitudeDegrees>-4.9008201621472835540771484375</LongitudeDegrees>
            </Position>
            <AltitudeMeters>51.200000762939453125</AltitudeMeters>
            <DistanceMeters>NAN</DistanceMeters>
          </Trackpoint>
          <Trackpoint>
            <Time>2022-07-16T11:25:02.000Z</Time>
            <Position>
              <LatitudeDegrees>43.43891755677759647369384765625</LatitudeDegrees>
              <LongitudeDegrees>-4.90096692927181720733642578125</LongitudeDegrees>
            </Position>
            <AltitudeMeters>50.799999237060546875</AltitudeMeters>
            <DistanceMeters>NAN</DistanceMeters>
          </Trackpoint>
          <Trackpoint>
            <Time>2022-07-16T11:25:07.000Z</Time>
            <Position>
              <LatitudeDegrees>43.43894773162901401519775390625</LatitudeDegrees>
              <LongitudeDegrees>-4.90116373635828495025634765625</LongitudeDegrees>
            </Position>
            <AltitudeMeters>50.40000152587890625</AltitudeMeters>
            <DistanceMeters>NAN</DistanceMeters>
          </Trackpoint>
          <Trackpoint>
            <Time>2022-07-16T11:25:08.000Z</Time>
            <Position>
              <LatitudeDegrees>43.43894370831549167633056640625</LatitudeDegrees>
              <LongitudeDegrees>-4.90120665170252323150634765625</LongitudeDegrees>
            </Position>
            <AltitudeMeters>50.200000762939453125</AltitudeMeters>
            <DistanceMeters>NAN</DistanceMeters>
          </Trackpoint>
          <Trackpoint>
            <Time>2022-07-16T11:25:10.000Z</Time>
            <Position>
              <LatitudeDegrees>43.438926525413990020751953125</LatitudeDegrees>
              <LongitudeDegrees>-4.90129751153290271759033203125</LongitudeDegrees>
            </Position>
            <AltitudeMeters>49.799999237060546875</AltitudeMeters>
            <DistanceMeters>NAN</DistanceMeters>
          </Trackpoint>
          <Trackpoint>
            <Time>2022-07-16T11:25:13.000Z</Time>
            <Position>
              <LatitudeDegrees>43.4388886392116546630859375</LatitudeDegrees>
              <LongitudeDegrees>-4.90142022259533405303955078125</LongitudeDegrees>
            </Position>
            <AltitudeMeters>49.40000152587890625</AltitudeMeters>
            <DistanceMeters>NAN</DistanceMeters>
          </Trackpoint>
          <Trackpoint>
            <Time>2022-07-16T11:25:14.000Z</Time>
            <Position>
              <LatitudeDegrees>43.4388753958046436309814453125</LatitudeDegrees>
              <LongitudeDegrees>-4.90145911462604999542236328125</LongitudeDegrees>
            </Position>
            <AltitudeMeters>49.40000152587890625</AltitudeMeters>
            <DistanceMeters>NAN</DistanceMeters>
          </Trackpoint>
          <Trackpoint>
            <Time>2022-07-16T11:25:17.000Z</Time>
            <Position>
              <LatitudeDegrees>43.43882921151816844940185546875</LatitudeDegrees>
              <LongitudeDegrees>-4.901584424078464508056640625</LongitudeDegrees>
            </Position>
            <AltitudeMeters>49.40000152587890625</AltitudeMeters>
            <DistanceMeters>NAN</DistanceMeters>
          </Trackpoint>
          <Trackpoint>
            <Time>2022-07-16T11:25:21.000Z</Time>
            <Position>
              <LatitudeDegrees>43.43878269195556640625</LatitudeDegrees>
              <LongitudeDegrees>-4.90177997387945652008056640625</LongitudeDegrees>
            </Position>
            <AltitudeMeters>49.200000762939453125</AltitudeMeters>
            <DistanceMeters>NAN</DistanceMeters>
          </Trackpoint>
          <Trackpoint>
            <Time>2022-07-16T11:25:29.000Z</Time>
            <Position>
              <LatitudeDegrees>43.43868546187877655029296875</LatitudeDegrees>
              <LongitudeDegrees>-4.902192614972591400146484375</LongitudeDegrees>
            </Position>
            <AltitudeMeters>48.59999847412109375</AltitudeMeters>
            <DistanceMeters>NAN</DistanceMeters>
          </Trackpoint>
          <Trackpoint>
            <Time>2022-07-16T11:25:36.000Z</Time>
            <Position>
              <LatitudeDegrees>43.4385615773499011993408203125</LatitudeDegrees>
              <LongitudeDegrees>-4.90254742093384265899658203125</LongitudeDegrees>
            </Position>
            <AltitudeMeters>48.40000152587890625</AltitudeMeters>
            <DistanceMeters>NAN</DistanceMeters>
          </Trackpoint>
          <Trackpoint>
            <Time>2022-07-16T11:25:42.000Z</Time>
            <Position>
              <LatitudeDegrees>43.43847633339464664459228515625</LatitudeDegrees>
              <LongitudeDegrees>-4.902817904949188232421875</LongitudeDegrees>
            </Position>
            <AltitudeMeters>47.799999237060546875</AltitudeMeters>
            <DistanceMeters>NAN</DistanceMeters>
          </Trackpoint>
          <Trackpoint>
            <Time>2022-07-16T11:25:46.000Z</Time>
            <Position>
              <LatitudeDegrees>43.438468873500823974609375</LatitudeDegrees>
              <LongitudeDegrees>-4.90293483249843120574951171875</LongitudeDegrees>
            </Position>
            <AltitudeMeters>48.40000152587890625</AltitudeMeters>
            <DistanceMeters>NAN</DistanceMeters>
          </Trackpoint>
          <Trackpoint>
            <Time>2022-07-16T11:25:47.000Z</Time>
            <Position>
              <LatitudeDegrees>43.43846728093922138214111328125</LatitudeDegrees>
              <LongitudeDegrees>-4.902963750064373016357421875</LongitudeDegrees>
            </Position>
            <AltitudeMeters>48.59999847412109375</AltitudeMeters>
            <DistanceMeters>NAN</DistanceMeters>
          </Trackpoint>
          <Trackpoint>
            <Time>2022-07-16T11:25:53.000Z</Time>
            <Position>
              <LatitudeDegrees>43.4384516067802906036376953125</LatitudeDegrees>
              <LongitudeDegrees>-4.90311001427471637725830078125</LongitudeDegrees>
            </Position>
            <AltitudeMeters>49.40000152587890625</AltitudeMeters>
            <DistanceMeters>NAN</DistanceMeters>
          </Trackpoint>
          <Trackpoint>
            <Time>2022-07-16T11:25:54.000Z</Time>
            <Position>
              <LatitudeDegrees>43.4384489245712757110595703125</LatitudeDegrees>
              <LongitudeDegrees>-4.903129041194915771484375</LongitudeDegrees>
            </Position>
            <AltitudeMeters>49.59999847412109375</AltitudeMeters>
            <DistanceMeters>NAN</DistanceMeters>
          </Trackpoint>
          <Trackpoint>
            <Time>2022-07-16T11:26:00.000Z</Time>
            <Position>
              <LatitudeDegrees>43.43844733200967311859130859375</LatitudeDegrees>
              <LongitudeDegrees>-4.90326650440692901611328125</LongitudeDegrees>
            </Position>
            <AltitudeMeters>50.200000762939453125</AltitudeMeters>
            <DistanceMeters>NAN</DistanceMeters>
          </Trackpoint>
          <Trackpoint>
            <Time>2022-07-16T11:26:02.000Z</Time>
            <Position>
              <LatitudeDegrees>43.43845806084573268890380859375</LatitudeDegrees>
              <LongitudeDegrees>-4.90331486798822879791259765625</LongitudeDegrees>
            </Position>
            <AltitudeMeters>50.40000152587890625</AltitudeMeters>
            <DistanceMeters>NAN</DistanceMeters>
          </Trackpoint>
          <Trackpoint>
            <Time>2022-07-16T11:26:08.000Z</Time>
            <Position>
              <LatitudeDegrees>43.43846979551017284393310546875</LatitudeDegrees>
              <LongitudeDegrees>-4.9034495651721954345703125</LongitudeDegrees>
            </Position>
            <AltitudeMeters>51</AltitudeMeters>
            <DistanceMeters>NAN</DistanceMeters>
          </Trackpoint>
          <Trackpoint>
            <Time>2022-07-16T11:26:15.000Z</Time>
            <Position>
              <LatitudeDegrees>43.43850080855190753936767578125</LatitudeDegrees>
              <LongitudeDegrees>-4.9036059714853763580322265625</LongitudeDegrees>
            </Position>
            <AltitudeMeters>51.40000152587890625</AltitudeMeters>
            <DistanceMeters>NAN</DistanceMeters>
          </Trackpoint>
          <Trackpoint>
            <Time>2022-07-16T11:26:18.000Z</Time>
            <Position>
              <LatitudeDegrees>43.43851824291050434112548828125</LatitudeDegrees>
              <LongitudeDegrees>-4.9036633037030696868896484375</LongitudeDegrees>
            </Position>
            <AltitudeMeters>51.59999847412109375</AltitudeMeters>
            <DistanceMeters>NAN</DistanceMeters>
          </Trackpoint>
          <Trackpoint>
            <Time>2022-07-16T11:26:20.000Z</Time>
            <Position>
              <LatitudeDegrees>43.43852679245173931121826171875</LatitudeDegrees>
              <LongitudeDegrees>-4.9037112481892108917236328125</LongitudeDegrees>
            </Position>
            <AltitudeMeters>51.59999847412109375</AltitudeMeters>
            <DistanceMeters>NAN</DistanceMeters>
          </Trackpoint>
          <Trackpoint>
            <Time>2022-07-16T11:26:22.000Z</Time>
            <Position>
              <LatitudeDegrees>43.438541628420352935791015625</LatitudeDegrees>
              <LongitudeDegrees>-4.9037645570933818817138671875</LongitudeDegrees>
            </Position>
            <AltitudeMeters>51.59999847412109375</AltitudeMeters>
            <DistanceMeters>NAN</DistanceMeters>
          </Trackpoint>
          <Trackpoint>
            <Time>2022-07-16T11:26:28.000Z</Time>
            <Position>
              <LatitudeDegrees>43.43860994093120098114013671875</LatitudeDegrees>
              <LongitudeDegrees>-4.903937391936779022216796875</LongitudeDegrees>
            </Position>
            <AltitudeMeters>51.59999847412109375</AltitudeMeters>
            <DistanceMeters>NAN</DistanceMeters>
          </Trackpoint>
          <Trackpoint>
            <Time>2022-07-16T11:26:34.000Z</Time>
            <Position>
              <LatitudeDegrees>43.43867582269012928009033203125</LatitudeDegrees>
              <LongitudeDegrees>-4.90404979325830936431884765625</LongitudeDegrees>
            </Position>
            <AltitudeMeters>51.200000762939453125</AltitudeMeters>
            <DistanceMeters>NAN</DistanceMeters>
          </Trackpoint>
          <Trackpoint>
            <Time>2022-07-16T11:26:40.000Z</Time>
            <Position>
              <LatitudeDegrees>43.43871764838695526123046875</LatitudeDegrees>
              <LongitudeDegrees>-4.90420083515346050262451171875</LongitudeDegrees>
            </Position>
            <AltitudeMeters>51</AltitudeMeters>
            <DistanceMeters>NAN</DistanceMeters>
          </Trackpoint>
          <Trackpoint>
            <Time>2022-07-16T11:26:44.000Z</Time>
            <Position>
              <LatitudeDegrees>43.4387546963989734649658203125</LatitudeDegrees>
              <LongitudeDegrees>-4.904294796288013458251953125</LongitudeDegrees>
            </Position>
            <AltitudeMeters>51</AltitudeMeters>
            <DistanceMeters>NAN</DistanceMeters>
          </Trackpoint>
          <Trackpoint>
            <Time>2022-07-16T11:26:45.000Z</Time>
            <Position>
              <LatitudeDegrees>43.43876458704471588134765625</LatitudeDegrees>
              <LongitudeDegrees>-4.9043204449117183685302734375</LongitudeDegrees>
            </Position>
            <AltitudeMeters>51</AltitudeMeters>
            <DistanceMeters>NAN</DistanceMeters>
          </Trackpoint>
          <Trackpoint>
            <Time>2022-07-16T11:26:52.000Z</Time>
            <Position>
              <LatitudeDegrees>43.4388271160423755645751953125</LatitudeDegrees>
              <LongitudeDegrees>-4.90461154840886592864990234375</LongitudeDegrees>
            </Position>
            <AltitudeMeters>50.799999237060546875</AltitudeMeters>
            <DistanceMeters>NAN</DistanceMeters>
          </Trackpoint>
          <Trackpoint>
            <Time>2022-07-16T11:26:57.000Z</Time>
            <Position>
              <LatitudeDegrees>43.4389038942754268646240234375</LatitudeDegrees>
              <LongitudeDegrees>-4.9048166535794734954833984375</LongitudeDegrees>
            </Position>
            <AltitudeMeters>50.59999847412109375</AltitudeMeters>
            <DistanceMeters>NAN</DistanceMeters>
          </Trackpoint>
          <Trackpoint>
            <Time>2022-07-16T11:27:03.000Z</Time>
            <Position>
              <LatitudeDegrees>43.4388901479542255401611328125</LatitudeDegrees>
              <LongitudeDegrees>-4.90512737073004245758056640625</LongitudeDegrees>
            </Position>
            <AltitudeMeters>50.799999237060546875</AltitudeMeters>
            <DistanceMeters>NAN</DistanceMeters>
          </Trackpoint>
          <Trackpoint>
            <Time>2022-07-16T11:27:09.000Z</Time>
            <Position>
              <LatitudeDegrees>43.438907079398632049560546875</LatitudeDegrees>
              <LongitudeDegrees>-4.90531428717076778411865234375</LongitudeDegrees>
            </Position>
            <AltitudeMeters>51.59999847412109375</AltitudeMeters>
            <DistanceMeters>NAN</DistanceMeters>
          </Trackpoint>
          <Trackpoint>
            <Time>2022-07-16T11:27:18.000Z</Time>
            <Position>
              <LatitudeDegrees>43.43888637609779834747314453125</LatitudeDegrees>
              <LongitudeDegrees>-4.90554294548928737640380859375</LongitudeDegrees>
            </Position>
            <AltitudeMeters>52.40000152587890625</AltitudeMeters>
            <DistanceMeters>NAN</DistanceMeters>
          </Trackpoint>
          <Trackpoint>
            <Time>2022-07-16T11:27:20.000Z</Time>
            <Position>
              <LatitudeDegrees>43.4388797543942928314208984375</LatitudeDegrees>
              <LongitudeDegrees>-4.9055894650518894195556640625</LongitudeDegrees>
            </Position>
            <AltitudeMeters>52.59999847412109375</AltitudeMeters>
            <DistanceMeters>NAN</DistanceMeters>
          </Trackpoint>
          <Trackpoint>
            <Time>2022-07-16T11:27:26.000Z</Time>
            <Position>
              <LatitudeDegrees>43.43886248767375946044921875</LatitudeDegrees>
              <LongitudeDegrees>-4.90574444644153118133544921875</LongitudeDegrees>
            </Position>
            <AltitudeMeters>52.799999237060546875</AltitudeMeters>
            <DistanceMeters>NAN</DistanceMeters>
          </Trackpoint>
          <Trackpoint>
            <Time>2022-07-16T11:27:33.000Z</Time>
            <Position>
              <LatitudeDegrees>43.4388636611402034759521484375</LatitudeDegrees>
              <LongitudeDegrees>-4.90587654523551464080810546875</LongitudeDegrees>
            </Position>
            <AltitudeMeters>53.200000762939453125</AltitudeMeters>
            <DistanceMeters>NAN</DistanceMeters>
          </Trackpoint>
          <Trackpoint>
            <Time>2022-07-16T11:27:37.000Z</Time>
            <Position>
              <LatitudeDegrees>43.4388650022447109222412109375</LatitudeDegrees>
              <LongitudeDegrees>-4.90593974478542804718017578125</LongitudeDegrees>
            </Position>
            <AltitudeMeters>53.40000152587890625</AltitudeMeters>
            <DistanceMeters>NAN</DistanceMeters>
          </Trackpoint>
          <Trackpoint>
            <Time>2022-07-16T11:27:39.000Z</Time>
            <Position>
              <LatitudeDegrees>43.43885972164571285247802734375</LatitudeDegrees>
              <LongitudeDegrees>-4.90599556826055049896240234375</LongitudeDegrees>
            </Position>
            <AltitudeMeters>53.59999847412109375</AltitudeMeters>
            <DistanceMeters>NAN</DistanceMeters>
          </Trackpoint>
          <Trackpoint>
            <Time>2022-07-16T11:27:40.000Z</Time>
            <Position>
              <LatitudeDegrees>43.43885804526507854461669921875</LatitudeDegrees>
              <LongitudeDegrees>-4.90601870231330394744873046875</LongitudeDegrees>
            </Position>
            <AltitudeMeters>53.799999237060546875</AltitudeMeters>
            <DistanceMeters>NAN</DistanceMeters>
          </Trackpoint>
          <Trackpoint>
            <Time>2022-07-16T11:27:48.000Z</Time>
            <Position>
              <LatitudeDegrees>43.43887933529913425445556640625</LatitudeDegrees>
              <LongitudeDegrees>-4.9062925390899181365966796875</LongitudeDegrees>
            </Position>
            <AltitudeMeters>54</AltitudeMeters>
            <DistanceMeters>NAN</DistanceMeters>
          </Trackpoint>
          <Trackpoint>
            <Time>2022-07-16T11:27:55.000Z</Time>
            <Position>
              <LatitudeDegrees>43.438874222338199615478515625</LatitudeDegrees>
              <LongitudeDegrees>-4.9065114744007587432861328125</LongitudeDegrees>
            </Position>
            <AltitudeMeters>54</AltitudeMeters>
            <DistanceMeters>NAN</DistanceMeters>
          </Trackpoint>
          <Trackpoint>
            <Time>2022-07-16T11:27:57.000Z</Time>
            <Position>
              <LatitudeDegrees>43.43886827118694782257080078125</LatitudeDegrees>
              <LongitudeDegrees>-4.9066211096942424774169921875</LongitudeDegrees>
            </Position>
            <AltitudeMeters>53.799999237060546875</AltitudeMeters>
            <DistanceMeters>NAN</DistanceMeters>
          </Trackpoint>
          <Trackpoint>
            <Time>2022-07-16T11:28:01.000Z</Time>
            <Position>
              <LatitudeDegrees>43.4388680197298526763916015625</LatitudeDegrees>
              <LongitudeDegrees>-4.90676703862845897674560546875</LongitudeDegrees>
            </Position>
            <AltitudeMeters>53.59999847412109375</AltitudeMeters>
            <DistanceMeters>NAN</DistanceMeters>
          </Trackpoint>
          <Trackpoint>
            <Time>2022-07-16T11:28:07.000Z</Time>
            <Position>
              <LatitudeDegrees>43.4389206580817699432373046875</LatitudeDegrees>
              <LongitudeDegrees>-4.907082952558994293212890625</LongitudeDegrees>
            </Position>
            <AltitudeMeters>53.200000762939453125</AltitudeMeters>
            <DistanceMeters>NAN</DistanceMeters>
          </Trackpoint>
          <Trackpoint>
            <Time>2022-07-16T11:28:16.000Z</Time>
            <Position>
              <LatitudeDegrees>43.43899182043969631195068359375</LatitudeDegrees>
              <LongitudeDegrees>-4.90739643573760986328125</LongitudeDegrees>
            </Position>
            <AltitudeMeters>53.200000762939453125</AltitudeMeters>
            <DistanceMeters>NAN</DistanceMeters>
          </Trackpoint>
          <Trackpoint>
            <Time>2022-07-16T11:28:22.000Z</Time>
            <Position>
              <LatitudeDegrees>43.43901746906340122222900390625</LatitudeDegrees>
              <LongitudeDegrees>-4.907646887004375457763671875</LongitudeDegrees>
            </Position>
            <AltitudeMeters>53.200000762939453125</AltitudeMeters>
            <DistanceMeters>NAN</DistanceMeters>
          </Trackpoint>
          <Trackpoint>
            <Time>2022-07-16T11:28:29.000Z</Time>
            <Position>
              <LatitudeDegrees>43.43906625173985958099365234375</LatitudeDegrees>
              <LongitudeDegrees>-4.90791435353457927703857421875</LongitudeDegrees>
            </Position>
            <AltitudeMeters>53.200000762939453125</AltitudeMeters>
            <DistanceMeters>NAN</DistanceMeters>
          </Trackpoint>
          <Trackpoint>
            <Time>2022-07-16T11:28:34.000Z</Time>
            <Position>
              <LatitudeDegrees>43.4390779025852680206298828125</LatitudeDegrees>
              <LongitudeDegrees>-4.908160530030727386474609375</LongitudeDegrees>
            </Position>
            <AltitudeMeters>53</AltitudeMeters>
            <DistanceMeters>NAN</DistanceMeters>
          </Trackpoint>
          <Trackpoint>
            <Time>2022-07-16T11:28:41.000Z</Time>
            <Position>
              <LatitudeDegrees>43.4390628151595592498779296875</LatitudeDegrees>
              <LongitudeDegrees>-4.9085650406777858734130859375</LongitudeDegrees>
            </Position>
            <AltitudeMeters>52.59999847412109375</AltitudeMeters>
            <DistanceMeters>NAN</DistanceMeters>
          </Trackpoint>
          <Trackpoint>
            <Time>2022-07-16T11:28:44.000Z</Time>
            <Position>
              <LatitudeDegrees>43.43906407244503498077392578125</LatitudeDegrees>
              <LongitudeDegrees>-4.90873058326542377471923828125</LongitudeDegrees>
            </Position>
            <AltitudeMeters>52.59999847412109375</AltitudeMeters>
            <DistanceMeters>NAN</DistanceMeters>
          </Trackpoint>
          <Trackpoint>
            <Time>2022-07-16T11:28:46.000Z</Time>
            <Position>
              <LatitudeDegrees>43.43904781155288219451904296875</LatitudeDegrees>
              <LongitudeDegrees>-4.90885413251817226409912109375</LongitudeDegrees>
            </Position>
            <AltitudeMeters>52.40000152587890625</AltitudeMeters>
            <DistanceMeters>NAN</DistanceMeters>
          </Trackpoint>
          <Trackpoint>
            <Time>2022-07-16T11:28:49.000Z</Time>
            <Position>
              <LatitudeDegrees>43.43901528976857662200927734375</LatitudeDegrees>
              <LongitudeDegrees>-4.90908983163535594940185546875</LongitudeDegrees>
            </Position>
            <AltitudeMeters>51.799999237060546875</AltitudeMeters>
            <DistanceMeters>NAN</DistanceMeters>
          </Trackpoint>
          <Trackpoint>
            <Time>2022-07-16T11:28:50.000Z</Time>
            <Position>
              <LatitudeDegrees>43.439002297818660736083984375</LatitudeDegrees>
              <LongitudeDegrees>-4.90915185771882534027099609375</LongitudeDegrees>
            </Position>
            <AltitudeMeters>51.59999847412109375</AltitudeMeters>
            <DistanceMeters>NAN</DistanceMeters>
          </Trackpoint>
          <Trackpoint>
            <Time>2022-07-16T11:28:51.000Z</Time>
            <Position>
              <LatitudeDegrees>43.43897648155689239501953125</LatitudeDegrees>
              <LongitudeDegrees>-4.909203909337520599365234375</LongitudeDegrees>
            </Position>
            <AltitudeMeters>51.200000762939453125</AltitudeMeters>
            <DistanceMeters>NAN</DistanceMeters>
          </Trackpoint>
          <Trackpoint>
            <Time>2022-07-16T11:28:52.000Z</Time>
            <Position>
              <LatitudeDegrees>43.43894571997225284576416015625</LatitudeDegrees>
              <LongitudeDegrees>-4.909247495234012603759765625</LongitudeDegrees>
            </Position>
            <AltitudeMeters>51.200000762939453125</AltitudeMeters>
            <DistanceMeters>NAN</DistanceMeters>
          </Trackpoint>
          <Trackpoint>
            <Time>2022-07-16T11:28:59.000Z</Time>
            <Position>
              <LatitudeDegrees>43.438696525990962982177734375</LatitudeDegrees>
              <LongitudeDegrees>-4.90955536253750324249267578125</LongitudeDegrees>
            </Position>
            <AltitudeMeters>50.59999847412109375</AltitudeMeters>
            <DistanceMeters>NAN</DistanceMeters>
          </Trackpoint>
          <Trackpoint>
            <Time>2022-07-16T11:29:01.000Z</Time>
            <Position>
              <LatitudeDegrees>43.4386276267468929290771484375</LatitudeDegrees>
              <LongitudeDegrees>-4.909643791615962982177734375</LongitudeDegrees>
            </Position>
            <AltitudeMeters>50.59999847412109375</AltitudeMeters>
            <DistanceMeters>NAN</DistanceMeters>
          </Trackpoint>
          <Trackpoint>
            <Time>2022-07-16T11:29:04.000Z</Time>
            <Position>
              <LatitudeDegrees>43.4385474957525730133056640625</LatitudeDegrees>
              <LongitudeDegrees>-4.9097767286002635955810546875</LongitudeDegrees>
            </Position>
            <AltitudeMeters>50.59999847412109375</AltitudeMeters>
            <DistanceMeters>NAN</DistanceMeters>
          </Trackpoint>
          <Trackpoint>
            <Time>2022-07-16T11:29:12.000Z</Time>
            <Position>
              <LatitudeDegrees>43.4383868984878063201904296875</LatitudeDegrees>
              <LongitudeDegrees>-4.910092391073703765869140625</LongitudeDegrees>
            </Position>
            <AltitudeMeters>51</AltitudeMeters>
            <DistanceMeters>NAN</DistanceMeters>
          </Trackpoint>
          <Trackpoint>
            <Time>2022-07-16T11:29:20.000Z</Time>
            <Position>
              <LatitudeDegrees>43.43825253657996654510498046875</LatitudeDegrees>
              <LongitudeDegrees>-4.91040981374680995941162109375</LongitudeDegrees>
            </Position>
            <AltitudeMeters>51.200000762939453125</AltitudeMeters>
            <DistanceMeters>NAN</DistanceMeters>
          </Trackpoint>
          <Trackpoint>
            <Time>2022-07-16T11:29:25.000Z</Time>
            <Position>
              <LatitudeDegrees>43.438203670084476470947265625</LatitudeDegrees>
              <LongitudeDegrees>-4.91051944904029369354248046875</LongitudeDegrees>
            </Position>
            <AltitudeMeters>51.799999237060546875</AltitudeMeters>
            <DistanceMeters>NAN</DistanceMeters>
          </Trackpoint>
          <Trackpoint>
            <Time>2022-07-16T11:29:32.000Z</Time>
            <Position>
              <LatitudeDegrees>43.438131250441074371337890625</LatitudeDegrees>
              <LongitudeDegrees>-4.910698235034942626953125</LongitudeDegrees>
            </Position>
            <AltitudeMeters>52.40000152587890625</AltitudeMeters>
            <DistanceMeters>NAN</DistanceMeters>
          </Trackpoint>
          <Trackpoint>
            <Time>2022-07-16T11:29:33.000Z</Time>
            <Position>
              <LatitudeDegrees>43.438121862709522247314453125</LatitudeDegrees>
              <LongitudeDegrees>-4.91072237491607666015625</LongitudeDegrees>
            </Position>
            <AltitudeMeters>52.59999847412109375</AltitudeMeters>
            <DistanceMeters>NAN</DistanceMeters>
          </Trackpoint>
          <Trackpoint>
            <Time>2022-07-16T11:29:41.000Z</Time>
            <Position>
              <LatitudeDegrees>43.43803913332521915435791015625</LatitudeDegrees>
              <LongitudeDegrees>-4.91088288836181163787841796875</LongitudeDegrees>
            </Position>
            <AltitudeMeters>53.40000152587890625</AltitudeMeters>
            <DistanceMeters>NAN</DistanceMeters>
          </Trackpoint>
          <Trackpoint>
            <Time>2022-07-16T11:29:43.000Z</Time>
            <Position>
              <LatitudeDegrees>43.43802337534725666046142578125</LatitudeDegrees>
              <LongitudeDegrees>-4.91092211566865444183349609375</LongitudeDegrees>
            </Position>
            <AltitudeMeters>53.799999237060546875</AltitudeMeters>
            <DistanceMeters>NAN</DistanceMeters>
          </Trackpoint>
          <Trackpoint>
            <Time>2022-07-16T11:29:46.000Z</Time>
            <Position>
              <LatitudeDegrees>43.4379976429045200347900390625</LatitudeDegrees>
              <LongitudeDegrees>-4.91097944788634777069091796875</LongitudeDegrees>
            </Position>
            <AltitudeMeters>54</AltitudeMeters>
            <DistanceMeters>NAN</DistanceMeters>
          </Trackpoint>
          <Trackpoint>
            <Time>2022-07-16T11:29:48.000Z</Time>
            <Position>
              <LatitudeDegrees>43.43797224573791027069091796875</LatitudeDegrees>
              <LongitudeDegrees>-4.91102068684995174407958984375</LongitudeDegrees>
            </Position>
            <AltitudeMeters>54.40000152587890625</AltitudeMeters>
            <DistanceMeters>NAN</DistanceMeters>
          </Trackpoint>
          <Trackpoint>
            <Time>2022-07-16T11:29:49.000Z</Time>
            <Position>
              <LatitudeDegrees>43.43796201981604099273681640625</LatitudeDegrees>
              <LongitudeDegrees>-4.91103292442858219146728515625</LongitudeDegrees>
            </Position>
            <AltitudeMeters>54.40000152587890625</AltitudeMeters>
            <DistanceMeters>NAN</DistanceMeters>
          </Trackpoint>
          <Trackpoint>
            <Time>2022-07-16T11:29:51.000Z</Time>
            <Position>
              <LatitudeDegrees>43.43793846666812896728515625</LatitudeDegrees>
              <LongitudeDegrees>-4.91106695495545864105224609375</LongitudeDegrees>
            </Position>
            <AltitudeMeters>54.59999847412109375</AltitudeMeters>
            <DistanceMeters>NAN</DistanceMeters>
          </Trackpoint>
          <Trackpoint>
            <Time>2022-07-16T11:29:53.000Z</Time>
            <Position>
              <LatitudeDegrees>43.43791742809116840362548828125</LatitudeDegrees>
              <LongitudeDegrees>-4.9111050926148891448974609375</LongitudeDegrees>
            </Position>
            <AltitudeMeters>54.799999237060546875</AltitudeMeters>
            <DistanceMeters>NAN</DistanceMeters>
          </Trackpoint>
          <Trackpoint>
            <Time>2022-07-16T11:29:55.000Z</Time>
            <Position>
              <LatitudeDegrees>43.4379042685031890869140625</LatitudeDegrees>
              <LongitudeDegrees>-4.91113635711371898651123046875</LongitudeDegrees>
            </Position>
            <AltitudeMeters>55</AltitudeMeters>
            <DistanceMeters>NAN</DistanceMeters>
          </Trackpoint>
          <Trackpoint>
            <Time>2022-07-16T11:30:02.000Z</Time>
            <Position>
              <LatitudeDegrees>43.4378675557672977447509765625</LatitudeDegrees>
              <LongitudeDegrees>-4.91123534739017486572265625</LongitudeDegrees>
            </Position>
            <AltitudeMeters>55.59999847412109375</AltitudeMeters>
            <DistanceMeters>NAN</DistanceMeters>
          </Trackpoint>
          <Trackpoint>
            <Time>2022-07-16T11:30:04.000Z</Time>
            <Position>
              <LatitudeDegrees>43.43786470592021942138671875</LatitudeDegrees>
              <LongitudeDegrees>-4.9112606607377529144287109375</LongitudeDegrees>
            </Position>
            <AltitudeMeters>56</AltitudeMeters>
            <DistanceMeters>NAN</DistanceMeters>
          </Trackpoint>
          <Trackpoint>
            <Time>2022-07-16T11:30:09.000Z</Time>
            <Position>
              <LatitudeDegrees>43.43783318996429443359375</LatitudeDegrees>
              <LongitudeDegrees>-4.91135579533874988555908203125</LongitudeDegrees>
            </Position>
            <AltitudeMeters>56.40000152587890625</AltitudeMeters>
            <DistanceMeters>NAN</DistanceMeters>
          </Trackpoint>
          <Trackpoint>
            <Time>2022-07-16T11:30:14.000Z</Time>
            <Position>
              <LatitudeDegrees>43.4378041885793209075927734375</LatitudeDegrees>
              <LongitudeDegrees>-4.91146065294742584228515625</LongitudeDegrees>
            </Position>
            <AltitudeMeters>57</AltitudeMeters>
            <DistanceMeters>NAN</DistanceMeters>
          </Trackpoint>
          <Trackpoint>
            <Time>2022-07-16T11:30:15.000Z</Time>
            <Position>
              <LatitudeDegrees>43.43779974617063999176025390625</LatitudeDegrees>
              <LongitudeDegrees>-4.9114738963544368743896484375</LongitudeDegrees>
            </Position>
            <AltitudeMeters>57</AltitudeMeters>
            <DistanceMeters>NAN</DistanceMeters>
          </Trackpoint>
          <Trackpoint>
            <Time>2022-07-16T11:30:17.000Z</Time>
            <Position>
              <LatitudeDegrees>43.43778935261070728302001953125</LatitudeDegrees>
              <LongitudeDegrees>-4.91151035763323307037353515625</LongitudeDegrees>
            </Position>
            <AltitudeMeters>57</AltitudeMeters>
            <DistanceMeters>NAN</DistanceMeters>
          </Trackpoint>
          <Trackpoint>
            <Time>2022-07-16T11:30:26.000Z</Time>
            <Position>
              <LatitudeDegrees>43.4377264045178890228271484375</LatitudeDegrees>
              <LongitudeDegrees>-4.91167631931602954864501953125</LongitudeDegrees>
            </Position>
            <AltitudeMeters>57.59999847412109375</AltitudeMeters>
            <DistanceMeters>NAN</DistanceMeters>
          </Trackpoint>
          <Trackpoint>
            <Time>2022-07-16T11:30:30.000Z</Time>
            <Position>
              <LatitudeDegrees>43.4377156756818294525146484375</LatitudeDegrees>
              <LongitudeDegrees>-4.91173180751502513885498046875</LongitudeDegrees>
            </Position>
            <AltitudeMeters>58</AltitudeMeters>
            <DistanceMeters>NAN</DistanceMeters>
          </Trackpoint>
          <Trackpoint>
            <Time>2022-07-16T11:30:32.000Z</Time>
            <Position>
              <LatitudeDegrees>43.43769832514226436614990234375</LatitudeDegrees>
              <LongitudeDegrees>-4.91177891381084918975830078125</LongitudeDegrees>
            </Position>
            <AltitudeMeters>58.200000762939453125</AltitudeMeters>
            <DistanceMeters>NAN</DistanceMeters>
          </Trackpoint>
          <Trackpoint>
            <Time>2022-07-16T11:30:40.000Z</Time>
            <Position>
              <LatitudeDegrees>43.4376502968370914459228515625</LatitudeDegrees>
              <LongitudeDegrees>-4.9118946678936481475830078125</LongitudeDegrees>
            </Position>
            <AltitudeMeters>59</AltitudeMeters>
            <DistanceMeters>NAN</DistanceMeters>
          </Trackpoint>
          <Trackpoint>
            <Time>2022-07-16T11:30:47.000Z</Time>
            <Position>
              <LatitudeDegrees>43.437624983489513397216796875</LatitudeDegrees>
              <LongitudeDegrees>-4.91204143501818180084228515625</LongitudeDegrees>
            </Position>
            <AltitudeMeters>59.59999847412109375</AltitudeMeters>
            <DistanceMeters>NAN</DistanceMeters>
          </Trackpoint>
          <Trackpoint>
            <Time>2022-07-16T11:30:49.000Z</Time>
            <Position>
              <LatitudeDegrees>43.437586762011051177978515625</LatitudeDegrees>
              <LongitudeDegrees>-4.9120680056512355804443359375</LongitudeDegrees>
            </Position>
            <AltitudeMeters>59.59999847412109375</AltitudeMeters>
            <DistanceMeters>NAN</DistanceMeters>
          </Trackpoint>
          <Trackpoint>
            <Time>2022-07-16T11:30:53.000Z</Time>
            <Position>
              <LatitudeDegrees>43.43756203539669513702392578125</LatitudeDegrees>
              <LongitudeDegrees>-4.9121722765266895294189453125</LongitudeDegrees>
            </Position>
            <AltitudeMeters>59.59999847412109375</AltitudeMeters>
            <DistanceMeters>NAN</DistanceMeters>
          </Trackpoint>
          <Trackpoint>
            <Time>2022-07-16T11:30:54.000Z</Time>
            <Position>
              <LatitudeDegrees>43.43755046837031841278076171875</LatitudeDegrees>
              <LongitudeDegrees>-4.9121908843517303466796875</LongitudeDegrees>
            </Position>
            <AltitudeMeters>59.799999237060546875</AltitudeMeters>
            <DistanceMeters>NAN</DistanceMeters>
          </Trackpoint>
          <Trackpoint>
            <Time>2022-07-16T11:30:58.000Z</Time>
            <Position>
              <LatitudeDegrees>43.437514007091522216796875</LatitudeDegrees>
              <LongitudeDegrees>-4.91225232370197772979736328125</LongitudeDegrees>
            </Position>
            <AltitudeMeters>60</AltitudeMeters>
            <DistanceMeters>NAN</DistanceMeters>
          </Trackpoint>
          <Trackpoint>
            <Time>2022-07-16T11:30:59.000Z</Time>
            <Position>
              <LatitudeDegrees>43.437510319054126739501953125</LatitudeDegrees>
              <LongitudeDegrees>-4.91226891987025737762451171875</LongitudeDegrees>
            </Position>
            <AltitudeMeters>60.200000762939453125</AltitudeMeters>
            <DistanceMeters>NAN</DistanceMeters>
          </Trackpoint>
          <Trackpoint>
            <Time>2022-07-16T11:31:01.000Z</Time>
            <Position>
              <LatitudeDegrees>43.43750285916030406951904296875</LatitudeDegrees>
              <LongitudeDegrees>-4.91231761872768402099609375</LongitudeDegrees>
            </Position>
            <AltitudeMeters>60.40000152587890625</AltitudeMeters>
            <DistanceMeters>NAN</DistanceMeters>
          </Trackpoint>
          <Trackpoint>
            <Time>2022-07-16T11:31:07.000Z</Time>
            <Position>
              <LatitudeDegrees>43.437455333769321441650390625</LatitudeDegrees>
              <LongitudeDegrees>-4.912423230707645416259765625</LongitudeDegrees>
            </Position>
            <AltitudeMeters>61.200000762939453125</AltitudeMeters>
            <DistanceMeters>NAN</DistanceMeters>
          </Trackpoint>
          <Trackpoint>
            <Time>2022-07-16T11:31:09.000Z</Time>
            <Position>
              <LatitudeDegrees>43.4374375641345977783203125</LatitudeDegrees>
              <LongitudeDegrees>-4.91246514022350311279296875</LongitudeDegrees>
            </Position>
            <AltitudeMeters>61.200000762939453125</AltitudeMeters>
            <DistanceMeters>NAN</DistanceMeters>
          </Trackpoint>
          <Trackpoint>
            <Time>2022-07-16T11:31:16.000Z</Time>
            <Position>
              <LatitudeDegrees>43.4373864345252513885498046875</LatitudeDegrees>
              <LongitudeDegrees>-4.91259656846523284912109375</LongitudeDegrees>
            </Position>
            <AltitudeMeters>61.799999237060546875</AltitudeMeters>
            <DistanceMeters>NAN</DistanceMeters>
          </Trackpoint>
          <Trackpoint>
            <Time>2022-07-16T11:31:20.000Z</Time>
            <Position>
              <LatitudeDegrees>43.43736589886248111724853515625</LatitudeDegrees>
              <LongitudeDegrees>-4.91265683434903621673583984375</LongitudeDegrees>
            </Position>
            <AltitudeMeters>62.200000762939453125</AltitudeMeters>
            <DistanceMeters>NAN</DistanceMeters>
          </Trackpoint>
          <Trackpoint>
            <Time>2022-07-16T11:31:24.000Z</Time>
            <Position>
              <LatitudeDegrees>43.4373342990875244140625</LatitudeDegrees>
              <LongitudeDegrees>-4.9127318523824214935302734375</LongitudeDegrees>
            </Position>
            <AltitudeMeters>62.40000152587890625</AltitudeMeters>
            <DistanceMeters>NAN</DistanceMeters>
          </Trackpoint>
          <Trackpoint>
            <Time>2022-07-16T11:31:30.000Z</Time>
            <Position>
              <LatitudeDegrees>43.437291048467159271240234375</LatitudeDegrees>
              <LongitudeDegrees>-4.9128284119069576263427734375</LongitudeDegrees>
            </Position>
            <AltitudeMeters>63.200000762939453125</AltitudeMeters>
            <DistanceMeters>NAN</DistanceMeters>
          </Trackpoint>
          <Trackpoint>
            <Time>2022-07-16T11:31:33.000Z</Time>
            <Position>
              <LatitudeDegrees>43.4372835047543048858642578125</LatitudeDegrees>
              <LongitudeDegrees>-4.912864454090595245361328125</LongitudeDegrees>
            </Position>
            <AltitudeMeters>63.40000152587890625</AltitudeMeters>
            <DistanceMeters>NAN</DistanceMeters>
          </Trackpoint>
          <Trackpoint>
            <Time>2022-07-16T11:31:41.000Z</Time>
            <Position>
              <LatitudeDegrees>43.4372363984584808349609375</LatitudeDegrees>
              <LongitudeDegrees>-4.9129943735897541046142578125</LongitudeDegrees>
            </Position>
            <AltitudeMeters>64.1999969482421875</AltitudeMeters>
            <DistanceMeters>NAN</DistanceMeters>
          </Trackpoint>
          <Trackpoint>
            <Time>2022-07-16T11:31:44.000Z</Time>
            <Position>
              <LatitudeDegrees>43.43721854500472545623779296875</LatitudeDegrees>
              <LongitudeDegrees>-4.9130389653146266937255859375</LongitudeDegrees>
            </Position>
            <AltitudeMeters>64.59999847412109375</AltitudeMeters>
            <DistanceMeters>NAN</DistanceMeters>
          </Trackpoint>
          <Trackpoint>
            <Time>2022-07-16T11:31:46.000Z</Time>
            <Position>
              <LatitudeDegrees>43.4372053854167461395263671875</LatitudeDegrees>
              <LongitudeDegrees>-4.91306084208190441131591796875</LongitudeDegrees>
            </Position>
            <AltitudeMeters>64.59999847412109375</AltitudeMeters>
            <DistanceMeters>NAN</DistanceMeters>
          </Trackpoint>
          <Trackpoint>
            <Time>2022-07-16T11:31:50.000Z</Time>
            <Position>
              <LatitudeDegrees>43.43717311508953571319580078125</LatitudeDegrees>
              <LongitudeDegrees>-4.913119934499263763427734375</LongitudeDegrees>
            </Position>
            <AltitudeMeters>65</AltitudeMeters>
            <DistanceMeters>NAN</DistanceMeters>
          </Trackpoint>
          <Trackpoint>
            <Time>2022-07-16T11:31:53.000Z</Time>
            <Position>
              <LatitudeDegrees>43.43715190887451171875</LatitudeDegrees>
              <LongitudeDegrees>-4.91317936219274997711181640625</LongitudeDegrees>
            </Position>
            <AltitudeMeters>65.40000152587890625</AltitudeMeters>
            <DistanceMeters>NAN</DistanceMeters>
          </Trackpoint>
          <Trackpoint>
            <Time>2022-07-16T11:31:59.000Z</Time>
            <Position>
              <LatitudeDegrees>43.43711108900606632232666015625</LatitudeDegrees>
              <LongitudeDegrees>-4.9133038334548473358154296875</LongitudeDegrees>
            </Position>
            <AltitudeMeters>65.8000030517578125</AltitudeMeters>
            <DistanceMeters>NAN</DistanceMeters>
          </Trackpoint>
          <Trackpoint>
            <Time>2022-07-16T11:32:02.000Z</Time>
            <Position>
              <LatitudeDegrees>43.4371021203696727752685546875</LatitudeDegrees>
              <LongitudeDegrees>-4.91335772909224033355712890625</LongitudeDegrees>
            </Position>
            <AltitudeMeters>66.1999969482421875</AltitudeMeters>
            <DistanceMeters>NAN</DistanceMeters>
          </Trackpoint>
          <Trackpoint>
            <Time>2022-07-16T11:32:05.000Z</Time>
            <Position>
              <LatitudeDegrees>43.43707454390823841094970703125</LatitudeDegrees>
              <LongitudeDegrees>-4.91342394612729549407958984375</LongitudeDegrees>
            </Position>
            <AltitudeMeters>66.40000152587890625</AltitudeMeters>
            <DistanceMeters>NAN</DistanceMeters>
          </Trackpoint>
          <Trackpoint>
            <Time>2022-07-16T11:32:13.000Z</Time>
            <Position>
              <LatitudeDegrees>43.43700639903545379638671875</LatitudeDegrees>
              <LongitudeDegrees>-4.9135794304311275482177734375</LongitudeDegrees>
            </Position>
            <AltitudeMeters>67.1999969482421875</AltitudeMeters>
            <DistanceMeters>NAN</DistanceMeters>
          </Trackpoint>
          <Trackpoint>
            <Time>2022-07-16T11:32:16.000Z</Time>
            <Position>
              <LatitudeDegrees>43.43698737211525440216064453125</LatitudeDegrees>
              <LongitudeDegrees>-4.91363667882978916168212890625</LongitudeDegrees>
            </Position>
            <AltitudeMeters>67.40000152587890625</AltitudeMeters>
            <DistanceMeters>NAN</DistanceMeters>
          </Trackpoint>
          <Trackpoint>
            <Time>2022-07-16T11:32:22.000Z</Time>
            <Position>
              <LatitudeDegrees>43.436930291354656219482421875</LatitudeDegrees>
              <LongitudeDegrees>-4.91374363191425800323486328125</LongitudeDegrees>
            </Position>
            <AltitudeMeters>67.8000030517578125</AltitudeMeters>
            <DistanceMeters>NAN</DistanceMeters>
          </Trackpoint>
          <Trackpoint>
            <Time>2022-07-16T11:32:26.000Z</Time>
            <Position>
              <LatitudeDegrees>43.43691176734864711761474609375</LatitudeDegrees>
              <LongitudeDegrees>-4.9138101004064083099365234375</LongitudeDegrees>
            </Position>
            <AltitudeMeters>67.8000030517578125</AltitudeMeters>
            <DistanceMeters>NAN</DistanceMeters>
          </Trackpoint>
          <Trackpoint>
            <Time>2022-07-16T11:32:29.000Z</Time>
            <Position>
              <LatitudeDegrees>43.43689508736133575439453125</LatitudeDegrees>
              <LongitudeDegrees>-4.91386123001575469970703125</LongitudeDegrees>
            </Position>
            <AltitudeMeters>68</AltitudeMeters>
            <DistanceMeters>NAN</DistanceMeters>
          </Trackpoint>
          <Trackpoint>
            <Time>2022-07-16T11:32:37.000Z</Time>
            <Position>
              <LatitudeDegrees>43.43681118451058864593505859375</LatitudeDegrees>
              <LongitudeDegrees>-4.91404202766716480255126953125</LongitudeDegrees>
            </Position>
            <AltitudeMeters>68.40000152587890625</AltitudeMeters>
            <DistanceMeters>NAN</DistanceMeters>
          </Trackpoint>
          <Trackpoint>
            <Time>2022-07-16T11:32:44.000Z</Time>
            <Position>
              <LatitudeDegrees>43.43671496026217937469482421875</LatitudeDegrees>
              <LongitudeDegrees>-4.91424537263810634613037109375</LongitudeDegrees>
            </Position>
            <AltitudeMeters>68.40000152587890625</AltitudeMeters>
            <DistanceMeters>NAN</DistanceMeters>
          </Trackpoint>
          <Trackpoint>
            <Time>2022-07-16T11:32:46.000Z</Time>
            <Position>
              <LatitudeDegrees>43.43668092973530292510986328125</LatitudeDegrees>
              <LongitudeDegrees>-4.91430245339870452880859375</LongitudeDegrees>
            </Position>
            <AltitudeMeters>68.40000152587890625</AltitudeMeters>
            <DistanceMeters>NAN</DistanceMeters>
          </Trackpoint>
          <Trackpoint>
            <Time>2022-07-16T11:32:50.000Z</Time>
            <Position>
              <LatitudeDegrees>43.43662552535533905029296875</LatitudeDegrees>
              <LongitudeDegrees>-4.91441770456731319427490234375</LongitudeDegrees>
            </Position>
            <AltitudeMeters>68.1999969482421875</AltitudeMeters>
            <DistanceMeters>NAN</DistanceMeters>
          </Trackpoint>
          <Trackpoint>
            <Time>2022-07-16T11:32:54.000Z</Time>
            <Position>
              <LatitudeDegrees>43.43655453063547611236572265625</LatitudeDegrees>
              <LongitudeDegrees>-4.91455198265612125396728515625</LongitudeDegrees>
            </Position>
            <AltitudeMeters>68.1999969482421875</AltitudeMeters>
            <DistanceMeters>NAN</DistanceMeters>
          </Trackpoint>
          <Trackpoint>
            <Time>2022-07-16T11:33:02.000Z</Time>
            <Position>
              <LatitudeDegrees>43.4364436380565166473388671875</LatitudeDegrees>
              <LongitudeDegrees>-4.91483353078365325927734375</LongitudeDegrees>
            </Position>
            <AltitudeMeters>67.8000030517578125</AltitudeMeters>
            <DistanceMeters>NAN</DistanceMeters>
          </Trackpoint>
          <Trackpoint>
            <Time>2022-07-16T11:33:04.000Z</Time>
            <Position>
              <LatitudeDegrees>43.43641907908022403717041015625</LatitudeDegrees>
              <LongitudeDegrees>-4.91491860710084438323974609375</LongitudeDegrees>
            </Position>
            <AltitudeMeters>67.59999847412109375</AltitudeMeters>
            <DistanceMeters>NAN</DistanceMeters>
          </Trackpoint>
          <Trackpoint>
            <Time>2022-07-16T11:33:10.000Z</Time>
            <Position>
              <LatitudeDegrees>43.436331488192081451416015625</LatitudeDegrees>
              <LongitudeDegrees>-4.91523946635425090789794921875</LongitudeDegrees>
            </Position>
            <AltitudeMeters>67</AltitudeMeters>
            <DistanceMeters>NAN</DistanceMeters>
          </Trackpoint>
          <Trackpoint>
            <Time>2022-07-16T11:33:16.000Z</Time>
            <Position>
              <LatitudeDegrees>43.4362575598061084747314453125</LatitudeDegrees>
              <LongitudeDegrees>-4.9156098626554012298583984375</LongitudeDegrees>
            </Position>
            <AltitudeMeters>66.8000030517578125</AltitudeMeters>
            <DistanceMeters>NAN</DistanceMeters>
          </Trackpoint>
          <Trackpoint>
            <Time>2022-07-16T11:33:22.000Z</Time>
            <Position>
              <LatitudeDegrees>43.4361876547336578369140625</LatitudeDegrees>
              <LongitudeDegrees>-4.9159565381705760955810546875</LongitudeDegrees>
            </Position>
            <AltitudeMeters>66.40000152587890625</AltitudeMeters>
            <DistanceMeters>NAN</DistanceMeters>
          </Trackpoint>
          <Trackpoint>
            <Time>2022-07-16T11:33:24.000Z</Time>
            <Position>
              <LatitudeDegrees>43.436169885098934173583984375</LatitudeDegrees>
              <LongitudeDegrees>-4.9160685203969478607177734375</LongitudeDegrees>
            </Position>
            <AltitudeMeters>66.40000152587890625</AltitudeMeters>
            <DistanceMeters>NAN</DistanceMeters>
          </Trackpoint>
          <Trackpoint>
            <Time>2022-07-16T11:33:26.000Z</Time>
            <Position>
              <LatitudeDegrees>43.43615236692130565643310546875</LatitudeDegrees>
              <LongitudeDegrees>-4.9161771498620510101318359375</LongitudeDegrees>
            </Position>
            <AltitudeMeters>66.40000152587890625</AltitudeMeters>
            <DistanceMeters>NAN</DistanceMeters>
          </Trackpoint>
          <Trackpoint>
            <Time>2022-07-16T11:33:29.000Z</Time>
            <Position>
              <LatitudeDegrees>43.43615169636905193328857421875</LatitudeDegrees>
              <LongitudeDegrees>-4.91633380763232707977294921875</LongitudeDegrees>
            </Position>
            <AltitudeMeters>66.40000152587890625</AltitudeMeters>
            <DistanceMeters>NAN</DistanceMeters>
          </Trackpoint>
          <Trackpoint>
            <Time>2022-07-16T11:33:30.000Z</Time>
            <Position>
              <LatitudeDegrees>43.4361472539603710174560546875</LatitudeDegrees>
              <LongitudeDegrees>-4.9163840152323246002197265625</LongitudeDegrees>
            </Position>
            <AltitudeMeters>66.40000152587890625</AltitudeMeters>
            <DistanceMeters>NAN</DistanceMeters>
          </Trackpoint>
          <Trackpoint>
            <Time>2022-07-16T11:33:35.000Z</Time>
            <Position>
              <LatitudeDegrees>43.43614272773265838623046875</LatitudeDegrees>
              <LongitudeDegrees>-4.9166052974760532379150390625</LongitudeDegrees>
            </Position>
            <AltitudeMeters>65.8000030517578125</AltitudeMeters>
            <DistanceMeters>NAN</DistanceMeters>
          </Trackpoint>
          <Trackpoint>
            <Time>2022-07-16T11:33:43.000Z</Time>
            <Position>
              <LatitudeDegrees>43.4361261315643787384033203125</LatitudeDegrees>
              <LongitudeDegrees>-4.91698105819523334503173828125</LongitudeDegrees>
            </Position>
            <AltitudeMeters>65.8000030517578125</AltitudeMeters>
            <DistanceMeters>NAN</DistanceMeters>
          </Trackpoint>
          <Trackpoint>
            <Time>2022-07-16T11:33:47.000Z</Time>
            <Position>
              <LatitudeDegrees>43.43612453900277614593505859375</LatitudeDegrees>
              <LongitudeDegrees>-4.91715691052377223968505859375</LongitudeDegrees>
            </Position>
            <AltitudeMeters>65.40000152587890625</AltitudeMeters>
            <DistanceMeters>NAN</DistanceMeters>
          </Trackpoint>
          <Trackpoint>
            <Time>2022-07-16T11:33:52.000Z</Time>
            <Position>
              <LatitudeDegrees>43.4361112117767333984375</LatitudeDegrees>
              <LongitudeDegrees>-4.91737953387200832366943359375</LongitudeDegrees>
            </Position>
            <AltitudeMeters>65.1999969482421875</AltitudeMeters>
            <DistanceMeters>NAN</DistanceMeters>
          </Trackpoint>
          <Trackpoint>
            <Time>2022-07-16T11:33:58.000Z</Time>
            <Position>
              <LatitudeDegrees>43.43609176576137542724609375</LatitudeDegrees>
              <LongitudeDegrees>-4.9176718108355998992919921875</LongitudeDegrees>
            </Position>
            <AltitudeMeters>65.59999847412109375</AltitudeMeters>
            <DistanceMeters>NAN</DistanceMeters>
          </Trackpoint>
          <Trackpoint>
            <Time>2022-07-16T11:34:00.000Z</Time>
            <Position>
              <LatitudeDegrees>43.4360832162201404571533203125</LatitudeDegrees>
              <LongitudeDegrees>-4.917756803333759307861328125</LongitudeDegrees>
            </Position>
            <AltitudeMeters>65.59999847412109375</AltitudeMeters>
            <DistanceMeters>NAN</DistanceMeters>
          </Trackpoint>
          <Trackpoint>
            <Time>2022-07-16T11:34:02.000Z</Time>
            <Position>
              <LatitudeDegrees>43.43607558868825435638427734375</LatitudeDegrees>
              <LongitudeDegrees>-4.91782461293041706085205078125</LongitudeDegrees>
            </Position>
            <AltitudeMeters>65.8000030517578125</AltitudeMeters>
            <DistanceMeters>NAN</DistanceMeters>
          </Trackpoint>
          <Trackpoint>
            <Time>2022-07-16T11:34:06.000Z</Time>
            <Position>
              <LatitudeDegrees>43.4360698051750659942626953125</LatitudeDegrees>
              <LongitudeDegrees>-4.9179769121110439300537109375</LongitudeDegrees>
            </Position>
            <AltitudeMeters>66.1999969482421875</AltitudeMeters>
            <DistanceMeters>NAN</DistanceMeters>
          </Trackpoint>
          <Trackpoint>
            <Time>2022-07-16T11:34:08.000Z</Time>
            <Position>
              <LatitudeDegrees>43.43606762588024139404296875</LatitudeDegrees>
              <LongitudeDegrees>-4.91803935728967189788818359375</LongitudeDegrees>
            </Position>
            <AltitudeMeters>66.1999969482421875</AltitudeMeters>
            <DistanceMeters>NAN</DistanceMeters>
          </Trackpoint>
          <Trackpoint>
            <Time>2022-07-16T11:34:09.000Z</Time>
            <Position>
              <LatitudeDegrees>43.436066620051860809326171875</LatitudeDegrees>
              <LongitudeDegrees>-4.91806768812239170074462890625</LongitudeDegrees>
            </Position>
            <AltitudeMeters>66.40000152587890625</AltitudeMeters>
            <DistanceMeters>NAN</DistanceMeters>
          </Trackpoint>
          <Trackpoint>
            <Time>2022-07-16T11:34:11.000Z</Time>
            <Position>
              <LatitudeDegrees>43.436063267290592193603515625</LatitudeDegrees>
              <LongitudeDegrees>-4.918125607073307037353515625</LongitudeDegrees>
            </Position>
            <AltitudeMeters>66.40000152587890625</AltitudeMeters>
            <DistanceMeters>NAN</DistanceMeters>
          </Trackpoint>
          <Trackpoint>
            <Time>2022-07-16T11:34:19.000Z</Time>
            <Position>
              <LatitudeDegrees>43.4360617585480213165283203125</LatitudeDegrees>
              <LongitudeDegrees>-4.91838536225259304046630859375</LongitudeDegrees>
            </Position>
            <AltitudeMeters>67.1999969482421875</AltitudeMeters>
            <DistanceMeters>NAN</DistanceMeters>
          </Trackpoint>
          <Trackpoint>
            <Time>2022-07-16T11:34:21.000Z</Time>
            <Position>
              <LatitudeDegrees>43.43606016598641872406005859375</LatitudeDegrees>
              <LongitudeDegrees>-4.918441437184810638427734375</LongitudeDegrees>
            </Position>
            <AltitudeMeters>67.40000152587890625</AltitudeMeters>
            <DistanceMeters>NAN</DistanceMeters>
          </Trackpoint>
          <Trackpoint>
            <Time>2022-07-16T11:34:29.000Z</Time>
            <Position>
              <LatitudeDegrees>43.43604641966521739959716796875</LatitudeDegrees>
              <LongitudeDegrees>-4.918643273413181304931640625</LongitudeDegrees>
            </Position>
            <AltitudeMeters>68</AltitudeMeters>
            <DistanceMeters>NAN</DistanceMeters>
          </Trackpoint>
          <Trackpoint>
            <Time>2022-07-16T11:34:36.000Z</Time>
            <Position>
              <LatitudeDegrees>43.43603854067623615264892578125</LatitudeDegrees>
              <LongitudeDegrees>-4.9188025295734405517578125</LongitudeDegrees>
            </Position>
            <AltitudeMeters>68.59999847412109375</AltitudeMeters>
            <DistanceMeters>NAN</DistanceMeters>
          </Trackpoint>
          <Trackpoint>
            <Time>2022-07-16T11:34:37.000Z</Time>
            <Position>
              <LatitudeDegrees>43.4360382892191410064697265625</LatitudeDegrees>
              <LongitudeDegrees>-4.91882725618779659271240234375</LongitudeDegrees>
            </Position>
            <AltitudeMeters>69</AltitudeMeters>
            <DistanceMeters>NAN</DistanceMeters>
          </Trackpoint>
          <Trackpoint>
            <Time>2022-07-16T11:34:44.000Z</Time>
            <Position>
              <LatitudeDegrees>43.43603233806788921356201171875</LatitudeDegrees>
              <LongitudeDegrees>-4.91899087093770503997802734375</LongitudeDegrees>
            </Position>
            <AltitudeMeters>69.59999847412109375</AltitudeMeters>
            <DistanceMeters>NAN</DistanceMeters>
          </Trackpoint>
          <Trackpoint>
            <Time>2022-07-16T11:34:46.000Z</Time>
            <Position>
              <LatitudeDegrees>43.43603217042982578277587890625</LatitudeDegrees>
              <LongitudeDegrees>-4.91904149763286113739013671875</LongitudeDegrees>
            </Position>
            <AltitudeMeters>69.8000030517578125</AltitudeMeters>
            <DistanceMeters>NAN</DistanceMeters>
          </Trackpoint>
          <Trackpoint>
            <Time>2022-07-16T11:34:49.000Z</Time>
            <Position>
              <LatitudeDegrees>43.43603099696338176727294921875</LatitudeDegrees>
              <LongitudeDegrees>-4.91911307908594608306884765625</LongitudeDegrees>
            </Position>
            <AltitudeMeters>69.8000030517578125</AltitudeMeters>
            <DistanceMeters>NAN</DistanceMeters>
          </Trackpoint>
          <Trackpoint>
            <Time>2022-07-16T11:34:53.000Z</Time>
            <Position>
              <LatitudeDegrees>43.43603686429560184478759765625</LatitudeDegrees>
              <LongitudeDegrees>-4.91919605992734432220458984375</LongitudeDegrees>
            </Position>
            <AltitudeMeters>70.1999969482421875</AltitudeMeters>
            <DistanceMeters>NAN</DistanceMeters>
          </Trackpoint>
          <Trackpoint>
            <Time>2022-07-16T11:35:01.000Z</Time>
            <Position>
              <LatitudeDegrees>43.43605195172131061553955078125</LatitudeDegrees>
              <LongitudeDegrees>-4.91941650398075580596923828125</LongitudeDegrees>
            </Position>
            <AltitudeMeters>70.59999847412109375</AltitudeMeters>
            <DistanceMeters>NAN</DistanceMeters>
          </Trackpoint>
          <Trackpoint>
            <Time>2022-07-16T11:35:04.000Z</Time>
            <Position>
              <LatitudeDegrees>43.43606888316571712493896484375</LatitudeDegrees>
              <LongitudeDegrees>-4.919498227536678314208984375</LongitudeDegrees>
            </Position>
            <AltitudeMeters>70.8000030517578125</AltitudeMeters>
            <DistanceMeters>NAN</DistanceMeters>
          </Trackpoint>
          <Trackpoint>
            <Time>2022-07-16T11:35:06.000Z</Time>
            <Position>
              <LatitudeDegrees>43.4360778518021106719970703125</LatitudeDegrees>
              <LongitudeDegrees>-4.9195503629744052886962890625</LongitudeDegrees>
            </Position>
            <AltitudeMeters>71</AltitudeMeters>
            <DistanceMeters>NAN</DistanceMeters>
          </Trackpoint>
          <Trackpoint>
            <Time>2022-07-16T11:35:07.000Z</Time>
            <Position>
              <LatitudeDegrees>43.436090759932994842529296875</LatitudeDegrees>
              <LongitudeDegrees>-4.919576011598110198974609375</LongitudeDegrees>
            </Position>
            <AltitudeMeters>71</AltitudeMeters>
            <DistanceMeters>NAN</DistanceMeters>
          </Trackpoint>
          <Trackpoint>
            <Time>2022-07-16T11:35:14.000Z</Time>
            <Position>
              <LatitudeDegrees>43.43612286262214183807373046875</LatitudeDegrees>
              <LongitudeDegrees>-4.9197585694491863250732421875</LongitudeDegrees>
            </Position>
            <AltitudeMeters>71.8000030517578125</AltitudeMeters>
            <DistanceMeters>NAN</DistanceMeters>
          </Trackpoint>
          <Trackpoint>
            <Time>2022-07-16T11:35:16.000Z</Time>
            <Position>
              <LatitudeDegrees>43.4361268021166324615478515625</LatitudeDegrees>
              <LongitudeDegrees>-4.9198091961443424224853515625</LongitudeDegrees>
            </Position>
            <AltitudeMeters>71.8000030517578125</AltitudeMeters>
            <DistanceMeters>NAN</DistanceMeters>
          </Trackpoint>
          <Trackpoint>
            <Time>2022-07-16T11:35:20.000Z</Time>
            <Position>
              <LatitudeDegrees>43.4361274726688861846923828125</LatitudeDegrees>
              <LongitudeDegrees>-4.9199268780648708343505859375</LongitudeDegrees>
            </Position>
            <AltitudeMeters>72.1999969482421875</AltitudeMeters>
            <DistanceMeters>NAN</DistanceMeters>
          </Trackpoint>
          <Trackpoint>
            <Time>2022-07-16T11:35:27.000Z</Time>
            <Position>
              <LatitudeDegrees>43.43612872995436191558837890625</LatitudeDegrees>
              <LongitudeDegrees>-4.92013734765350818634033203125</LongitudeDegrees>
            </Position>
            <AltitudeMeters>71.59999847412109375</AltitudeMeters>
            <DistanceMeters>NAN</DistanceMeters>
          </Trackpoint>
          <Trackpoint>
            <Time>2022-07-16T11:35:29.000Z</Time>
            <Position>
              <LatitudeDegrees>43.43612872995436191558837890625</LatitudeDegrees>
              <LongitudeDegrees>-4.92013734765350818634033203125</LongitudeDegrees>
            </Position>
            <AltitudeMeters>71.40000152587890625</AltitudeMeters>
            <DistanceMeters>NAN</DistanceMeters>
          </Trackpoint>
          <Trackpoint>
            <Time>2022-07-16T11:35:50.000Z</Time>
            <Position>
              <LatitudeDegrees>43.43613057397305965423583984375</LatitudeDegrees>
              <LongitudeDegrees>-4.92016266100108623504638671875</LongitudeDegrees>
            </Position>
            <AltitudeMeters>70.8000030517578125</AltitudeMeters>
            <DistanceMeters>NAN</DistanceMeters>
          </Trackpoint>
          <Trackpoint>
            <Time>2022-07-16T11:35:51.000Z</Time>
            <Position>
              <LatitudeDegrees>43.4361308254301548004150390625</LatitudeDegrees>
              <LongitudeDegrees>-4.920192249119281768798828125</LongitudeDegrees>
            </Position>
            <AltitudeMeters>70.8000030517578125</AltitudeMeters>
            <DistanceMeters>NAN</DistanceMeters>
          </Trackpoint>
          <Trackpoint>
            <Time>2022-07-16T11:35:52.000Z</Time>
            <Position>
              <LatitudeDegrees>43.43613342382013797760009765625</LatitudeDegrees>
              <LongitudeDegrees>-4.92022451944649219512939453125</LongitudeDegrees>
            </Position>
            <AltitudeMeters>70.59999847412109375</AltitudeMeters>
            <DistanceMeters>NAN</DistanceMeters>
          </Trackpoint>
          <Trackpoint>
            <Time>2022-07-16T11:35:58.000Z</Time>
            <Position>
              <LatitudeDegrees>43.43615219928324222564697265625</LatitudeDegrees>
              <LongitudeDegrees>-4.92047153413295745849609375</LongitudeDegrees>
            </Position>
            <AltitudeMeters>70.1999969482421875</AltitudeMeters>
            <DistanceMeters>NAN</DistanceMeters>
          </Trackpoint>
          <Trackpoint>
            <Time>2022-07-16T11:36:04.000Z</Time>
            <Position>
              <LatitudeDegrees>43.4361455775797367095947265625</LatitudeDegrees>
              <LongitudeDegrees>-4.92077034898102283477783203125</LongitudeDegrees>
            </Position>
            <AltitudeMeters>69.8000030517578125</AltitudeMeters>
            <DistanceMeters>NAN</DistanceMeters>
          </Trackpoint>
          <Trackpoint>
            <Time>2022-07-16T11:36:07.000Z</Time>
            <Position>
              <LatitudeDegrees>43.43610241077840328216552734375</LatitudeDegrees>
              <LongitudeDegrees>-4.92099649272859096527099609375</LongitudeDegrees>
            </Position>
            <AltitudeMeters>69.1999969482421875</AltitudeMeters>
            <DistanceMeters>NAN</DistanceMeters>
          </Trackpoint>
          <Trackpoint>
            <Time>2022-07-16T11:36:09.000Z</Time>
            <Position>
              <LatitudeDegrees>43.43607374466955661773681640625</LatitudeDegrees>
              <LongitudeDegrees>-4.921163208782672882080078125</LongitudeDegrees>
            </Position>
            <AltitudeMeters>68.59999847412109375</AltitudeMeters>
            <DistanceMeters>NAN</DistanceMeters>
          </Trackpoint>
          <Trackpoint>
            <Time>2022-07-16T11:36:12.000Z</Time>
            <Position>
              <LatitudeDegrees>43.43602093867957592010498046875</LatitudeDegrees>
              <LongitudeDegrees>-4.92143788374960422515869140625</LongitudeDegrees>
            </Position>
            <AltitudeMeters>67.40000152587890625</AltitudeMeters>
            <DistanceMeters>NAN</DistanceMeters>
          </Trackpoint>
          <Trackpoint>
            <Time>2022-07-16T11:36:14.000Z</Time>
            <Position>
              <LatitudeDegrees>43.43598322011530399322509765625</LatitudeDegrees>
              <LongitudeDegrees>-4.92163536138832569122314453125</LongitudeDegrees>
            </Position>
            <AltitudeMeters>67</AltitudeMeters>
            <DistanceMeters>NAN</DistanceMeters>
          </Trackpoint>
          <Trackpoint>
            <Time>2022-07-16T11:36:16.000Z</Time>
            <Position>
              <LatitudeDegrees>43.435936868190765380859375</LatitudeDegrees>
              <LongitudeDegrees>-4.9218282289803028106689453125</LongitudeDegrees>
            </Position>
            <AltitudeMeters>66.40000152587890625</AltitudeMeters>
            <DistanceMeters>NAN</DistanceMeters>
          </Trackpoint>
          <Trackpoint>
            <Time>2022-07-16T11:36:17.000Z</Time>
            <Position>
              <LatitudeDegrees>43.435904346406459808349609375</LatitudeDegrees>
              <LongitudeDegrees>-4.9219224415719509124755859375</LongitudeDegrees>
            </Position>
            <AltitudeMeters>66</AltitudeMeters>
            <DistanceMeters>NAN</DistanceMeters>
          </Trackpoint>
          <Trackpoint>
            <Time>2022-07-16T11:36:19.000Z</Time>
            <Position>
              <LatitudeDegrees>43.435812480747699737548828125</LatitudeDegrees>
              <LongitudeDegrees>-4.92210910655558109283447265625</LongitudeDegrees>
            </Position>
            <AltitudeMeters>65</AltitudeMeters>
            <DistanceMeters>NAN</DistanceMeters>
          </Trackpoint>
          <Trackpoint>
            <Time>2022-07-16T11:36:21.000Z</Time>
            <Position>
              <LatitudeDegrees>43.4356994926929473876953125</LatitudeDegrees>
              <LongitudeDegrees>-4.9222979508340358734130859375</LongitudeDegrees>
            </Position>
            <AltitudeMeters>63.799999237060546875</AltitudeMeters>
            <DistanceMeters>NAN</DistanceMeters>
          </Trackpoint>
          <Trackpoint>
            <Time>2022-07-16T11:36:23.000Z</Time>
            <Position>
              <LatitudeDegrees>43.43557820655405521392822265625</LatitudeDegrees>
              <LongitudeDegrees>-4.92249081842601299285888671875</LongitudeDegrees>
            </Position>
            <AltitudeMeters>62.40000152587890625</AltitudeMeters>
            <DistanceMeters>NAN</DistanceMeters>
          </Trackpoint>
          <Trackpoint>
            <Time>2022-07-16T11:36:24.000Z</Time>
            <Position>
              <LatitudeDegrees>43.4355224668979644775390625</LatitudeDegrees>
              <LongitudeDegrees>-4.92258402518928050994873046875</LongitudeDegrees>
            </Position>
            <AltitudeMeters>61.59999847412109375</AltitudeMeters>
            <DistanceMeters>NAN</DistanceMeters>
          </Trackpoint>
          <Trackpoint>
            <Time>2022-07-16T11:36:25.000Z</Time>
            <Position>
              <LatitudeDegrees>43.435465805232524871826171875</LatitudeDegrees>
              <LongitudeDegrees>-4.922677986323833465576171875</LongitudeDegrees>
            </Position>
            <AltitudeMeters>61</AltitudeMeters>
            <DistanceMeters>NAN</DistanceMeters>
          </Trackpoint>
          <Trackpoint>
            <Time>2022-07-16T11:36:26.000Z</Time>
            <Position>
              <LatitudeDegrees>43.43542045913636684417724609375</LatitudeDegrees>
              <LongitudeDegrees>-4.92277982644736766815185546875</LongitudeDegrees>
            </Position>
            <AltitudeMeters>60.59999847412109375</AltitudeMeters>
            <DistanceMeters>NAN</DistanceMeters>
          </Trackpoint>
          <Trackpoint>
            <Time>2022-07-16T11:36:28.000Z</Time>
            <Position>
              <LatitudeDegrees>43.43537025153636932373046875</LatitudeDegrees>
              <LongitudeDegrees>-4.922983758151531219482421875</LongitudeDegrees>
            </Position>
            <AltitudeMeters>59.799999237060546875</AltitudeMeters>
            <DistanceMeters>NAN</DistanceMeters>
          </Trackpoint>
          <Trackpoint>
            <Time>2022-07-16T11:36:31.000Z</Time>
            <Position>
              <LatitudeDegrees>43.43532993458211421966552734375</LatitudeDegrees>
              <LongitudeDegrees>-4.92328391410410404205322265625</LongitudeDegrees>
            </Position>
            <AltitudeMeters>58.799999237060546875</AltitudeMeters>
            <DistanceMeters>NAN</DistanceMeters>
          </Trackpoint>
          <Trackpoint>
            <Time>2022-07-16T11:36:32.000Z</Time>
            <Position>
              <LatitudeDegrees>43.435328342020511627197265625</LatitudeDegrees>
              <LongitudeDegrees>-4.92338717915117740631103515625</LongitudeDegrees>
            </Position>
            <AltitudeMeters>58.59999847412109375</AltitudeMeters>
            <DistanceMeters>NAN</DistanceMeters>
          </Trackpoint>
          <Trackpoint>
            <Time>2022-07-16T11:36:37.000Z</Time>
            <Position>
              <LatitudeDegrees>43.43533379025757312774658203125</LatitudeDegrees>
              <LongitudeDegrees>-4.92382161319255828857421875</LongitudeDegrees>
            </Position>
            <AltitudeMeters>58.40000152587890625</AltitudeMeters>
            <DistanceMeters>NAN</DistanceMeters>
          </Trackpoint>
          <Trackpoint>
            <Time>2022-07-16T11:36:41.000Z</Time>
            <Position>
              <LatitudeDegrees>43.4353415854275226593017578125</LatitudeDegrees>
              <LongitudeDegrees>-4.92401280440390110015869140625</LongitudeDegrees>
            </Position>
            <AltitudeMeters>59</AltitudeMeters>
            <DistanceMeters>NAN</DistanceMeters>
          </Trackpoint>
          <Trackpoint>
            <Time>2022-07-16T11:36:45.000Z</Time>
            <Position>
              <LatitudeDegrees>43.4353623725473880767822265625</LatitudeDegrees>
              <LongitudeDegrees>-4.92412026040256023406982421875</LongitudeDegrees>
            </Position>
            <AltitudeMeters>59.799999237060546875</AltitudeMeters>
            <DistanceMeters>NAN</DistanceMeters>
          </Trackpoint>
          <Trackpoint>
            <Time>2022-07-16T11:36:46.000Z</Time>
            <Position>
              <LatitudeDegrees>43.435369245707988739013671875</LatitudeDegrees>
              <LongitudeDegrees>-4.9241506867110729217529296875</LongitudeDegrees>
            </Position>
            <AltitudeMeters>60</AltitudeMeters>
            <DistanceMeters>NAN</DistanceMeters>
          </Trackpoint>
          <Trackpoint>
            <Time>2022-07-16T11:36:53.000Z</Time>
            <Position>
              <LatitudeDegrees>43.4354163520038127899169921875</LatitudeDegrees>
              <LongitudeDegrees>-4.92441706359386444091796875</LongitudeDegrees>
            </Position>
            <AltitudeMeters>59.40000152587890625</AltitudeMeters>
            <DistanceMeters>NAN</DistanceMeters>
          </Trackpoint>
          <Trackpoint>
            <Time>2022-07-16T11:36:56.000Z</Time>
            <Position>
              <LatitudeDegrees>43.43544275499880313873291015625</LatitudeDegrees>
              <LongitudeDegrees>-4.92455226369202136993408203125</LongitudeDegrees>
            </Position>
            <AltitudeMeters>59.200000762939453125</AltitudeMeters>
            <DistanceMeters>NAN</DistanceMeters>
          </Trackpoint>
          <Trackpoint>
            <Time>2022-07-16T11:36:58.000Z</Time>
            <Position>
              <LatitudeDegrees>43.435443006455898284912109375</LatitudeDegrees>
              <LongitudeDegrees>-4.92457665503025054931640625</LongitudeDegrees>
            </Position>
            <AltitudeMeters>59</AltitudeMeters>
            <DistanceMeters>NAN</DistanceMeters>
          </Trackpoint>
          <Trackpoint>
            <Time>2022-07-16T11:37:03.000Z</Time>
            <Position>
              <LatitudeDegrees>43.43541928566992282867431640625</LatitudeDegrees>
              <LongitudeDegrees>-4.92454723455011844635009765625</LongitudeDegrees>
            </Position>
            <AltitudeMeters>59</AltitudeMeters>
            <DistanceMeters>NAN</DistanceMeters>
          </Trackpoint>
          <Trackpoint>
            <Time>2022-07-16T11:37:05.000Z</Time>
            <Position>
              <LatitudeDegrees>43.435408808290958404541015625</LatitudeDegrees>
              <LongitudeDegrees>-4.9245171435177326202392578125</LongitudeDegrees>
            </Position>
            <AltitudeMeters>59</AltitudeMeters>
            <DistanceMeters>NAN</DistanceMeters>
          </Trackpoint>
          <Trackpoint>
            <Time>2022-07-16T11:37:07.000Z</Time>
            <Position>
              <LatitudeDegrees>43.43540520407259464263916015625</LatitudeDegrees>
              <LongitudeDegrees>-4.9245124496519565582275390625</LongitudeDegrees>
            </Position>
            <AltitudeMeters>58.799999237060546875</AltitudeMeters>
            <DistanceMeters>NAN</DistanceMeters>
          </Trackpoint>
          <Trackpoint>
            <Time>2022-07-16T11:38:47.000Z</Time>
            <Position>
              <LatitudeDegrees>43.4354124963283538818359375</LatitudeDegrees>
              <LongitudeDegrees>-4.924559555947780609130859375</LongitudeDegrees>
            </Position>
            <AltitudeMeters>58.799999237060546875</AltitudeMeters>
            <DistanceMeters>NAN</DistanceMeters>
          </Trackpoint>
          <Trackpoint>
            <Time>2022-07-16T11:38:52.000Z</Time>
            <Position>
              <LatitudeDegrees>43.43544577248394489288330078125</LatitudeDegrees>
              <LongitudeDegrees>-4.92467053234577178955078125</LongitudeDegrees>
            </Position>
            <AltitudeMeters>59.200000762939453125</AltitudeMeters>
            <DistanceMeters>NAN</DistanceMeters>
          </Trackpoint>
          <Trackpoint>
            <Time>2022-07-16T11:38:53.000Z</Time>
            <Position>
              <LatitudeDegrees>43.43545071780681610107421875</LatitudeDegrees>
              <LongitudeDegrees>-4.92469525896012783050537109375</LongitudeDegrees>
            </Position>
            <AltitudeMeters>59.40000152587890625</AltitudeMeters>
            <DistanceMeters>NAN</DistanceMeters>
          </Trackpoint>
          <Trackpoint>
            <Time>2022-07-16T11:38:58.000Z</Time>
            <Position>
              <LatitudeDegrees>43.4354688227176666259765625</LatitudeDegrees>
              <LongitudeDegrees>-4.9247981049120426177978515625</LongitudeDegrees>
            </Position>
            <AltitudeMeters>59.799999237060546875</AltitudeMeters>
            <DistanceMeters>NAN</DistanceMeters>
          </Trackpoint>
          <Trackpoint>
            <Time>2022-07-16T11:39:00.000Z</Time>
            <Position>
              <LatitudeDegrees>43.43547008000314235687255859375</LatitudeDegrees>
              <LongitudeDegrees>-4.92483557201921939849853515625</LongitudeDegrees>
            </Position>
            <AltitudeMeters>60</AltitudeMeters>
            <DistanceMeters>NAN</DistanceMeters>
          </Trackpoint>
          <Trackpoint>
            <Time>2022-07-16T11:39:01.000Z</Time>
            <Position>
              <LatitudeDegrees>43.43547360040247440338134765625</LatitudeDegrees>
              <LongitudeDegrees>-4.9248500727117061614990234375</LongitudeDegrees>
            </Position>
            <AltitudeMeters>60.200000762939453125</AltitudeMeters>
            <DistanceMeters>NAN</DistanceMeters>
          </Trackpoint>
          <Trackpoint>
            <Time>2022-07-16T11:39:03.000Z</Time>
            <Position>
              <LatitudeDegrees>43.43548097647726535797119140625</LatitudeDegrees>
              <LongitudeDegrees>-4.924882091581821441650390625</LongitudeDegrees>
            </Position>
            <AltitudeMeters>60.40000152587890625</AltitudeMeters>
            <DistanceMeters>NAN</DistanceMeters>
          </Trackpoint>
          <Trackpoint>
            <Time>2022-07-16T11:39:07.000Z</Time>
            <Position>
              <LatitudeDegrees>43.4355005063116550445556640625</LatitudeDegrees>
              <LongitudeDegrees>-4.9249325506389141082763671875</LongitudeDegrees>
            </Position>
            <AltitudeMeters>60.799999237060546875</AltitudeMeters>
            <DistanceMeters>NAN</DistanceMeters>
          </Trackpoint>
          <Trackpoint>
            <Time>2022-07-16T11:39:08.000Z</Time>
            <Position>
              <LatitudeDegrees>43.4355018474161624908447265625</LatitudeDegrees>
              <LongitudeDegrees>-4.924945123493671417236328125</LongitudeDegrees>
            </Position>
            <AltitudeMeters>61</AltitudeMeters>
            <DistanceMeters>NAN</DistanceMeters>
          </Trackpoint>
          <Trackpoint>
            <Time>2022-07-16T11:39:09.000Z</Time>
            <Position>
              <LatitudeDegrees>43.43550159595906734466552734375</LatitudeDegrees>
              <LongitudeDegrees>-4.9249635636806488037109375</LongitudeDegrees>
            </Position>
            <AltitudeMeters>61</AltitudeMeters>
            <DistanceMeters>NAN</DistanceMeters>
          </Trackpoint>
          <Trackpoint>
            <Time>2022-07-16T11:39:11.000Z</Time>
            <Position>
              <LatitudeDegrees>43.4355065412819385528564453125</LatitudeDegrees>
              <LongitudeDegrees>-4.92499642074108123779296875</LongitudeDegrees>
            </Position>
            <AltitudeMeters>61.40000152587890625</AltitudeMeters>
            <DistanceMeters>NAN</DistanceMeters>
          </Trackpoint>
          <Trackpoint>
            <Time>2022-07-16T11:39:12.000Z</Time>
            <Position>
              <LatitudeDegrees>43.43551031313836574554443359375</LatitudeDegrees>
              <LongitudeDegrees>-4.92500849068164825439453125</LongitudeDegrees>
            </Position>
            <AltitudeMeters>61.40000152587890625</AltitudeMeters>
            <DistanceMeters>NAN</DistanceMeters>
          </Trackpoint>
          <Trackpoint>
            <Time>2022-07-16T11:39:16.000Z</Time>
            <Position>
              <LatitudeDegrees>43.435523472726345062255859375</LatitudeDegrees>
              <LongitudeDegrees>-4.92506884038448333740234375</LongitudeDegrees>
            </Position>
            <AltitudeMeters>61.59999847412109375</AltitudeMeters>
            <DistanceMeters>NAN</DistanceMeters>
          </Trackpoint>
          <Trackpoint>
            <Time>2022-07-16T11:39:17.000Z</Time>
            <Position>
              <LatitudeDegrees>43.4355336986482143402099609375</LatitudeDegrees>
              <LongitudeDegrees>-4.9250797368586063385009765625</LongitudeDegrees>
            </Position>
            <AltitudeMeters>61.59999847412109375</AltitudeMeters>
            <DistanceMeters>NAN</DistanceMeters>
          </Trackpoint>
          <Trackpoint>
            <Time>2022-07-16T11:39:18.000Z</Time>
            <Position>
              <LatitudeDegrees>43.43553797341883182525634765625</LatitudeDegrees>
              <LongitudeDegrees>-4.925089292228221893310546875</LongitudeDegrees>
            </Position>
            <AltitudeMeters>61.799999237060546875</AltitudeMeters>
            <DistanceMeters>NAN</DistanceMeters>
          </Trackpoint>
          <Trackpoint>
            <Time>2022-07-16T11:39:19.000Z</Time>
            <Position>
              <LatitudeDegrees>43.435535542666912078857421875</LatitudeDegrees>
              <LongitudeDegrees>-4.92510278709232807159423828125</LongitudeDegrees>
            </Position>
            <AltitudeMeters>62</AltitudeMeters>
            <DistanceMeters>NAN</DistanceMeters>
          </Trackpoint>
          <Trackpoint>
            <Time>2022-07-16T11:39:24.000Z</Time>
            <Position>
              <LatitudeDegrees>43.43552573584020137786865234375</LatitudeDegrees>
              <LongitudeDegrees>-4.92519197054207324981689453125</LongitudeDegrees>
            </Position>
            <AltitudeMeters>62.40000152587890625</AltitudeMeters>
            <DistanceMeters>NAN</DistanceMeters>
          </Trackpoint>
          <Trackpoint>
            <Time>2022-07-16T11:39:26.000Z</Time>
            <Position>
              <LatitudeDegrees>43.4355326928198337554931640625</LatitudeDegrees>
              <LongitudeDegrees>-4.925225079059600830078125</LongitudeDegrees>
            </Position>
            <AltitudeMeters>62.40000152587890625</AltitudeMeters>
            <DistanceMeters>NAN</DistanceMeters>
          </Trackpoint>
          <Trackpoint>
            <Time>2022-07-16T11:39:28.000Z</Time>
            <Position>
              <LatitudeDegrees>43.43553931452333927154541015625</LatitudeDegrees>
              <LongitudeDegrees>-4.92526254616677761077880859375</LongitudeDegrees>
            </Position>
            <AltitudeMeters>62.59999847412109375</AltitudeMeters>
            <DistanceMeters>NAN</DistanceMeters>
          </Trackpoint>
          <Trackpoint>
            <Time>2022-07-16T11:39:32.000Z</Time>
            <Position>
              <LatitudeDegrees>43.43552313745021820068359375</LatitudeDegrees>
              <LongitudeDegrees>-4.9253690801560878753662109375</LongitudeDegrees>
            </Position>
            <AltitudeMeters>63</AltitudeMeters>
            <DistanceMeters>NAN</DistanceMeters>
          </Trackpoint>
          <Trackpoint>
            <Time>2022-07-16T11:39:35.000Z</Time>
            <Position>
              <LatitudeDegrees>43.435488604009151458740234375</LatitudeDegrees>
              <LongitudeDegrees>-4.9254569225013256072998046875</LongitudeDegrees>
            </Position>
            <AltitudeMeters>63.40000152587890625</AltitudeMeters>
            <DistanceMeters>NAN</DistanceMeters>
          </Trackpoint>
          <Trackpoint>
            <Time>2022-07-16T11:39:37.000Z</Time>
            <Position>
              <LatitudeDegrees>43.4354971535503864288330078125</LatitudeDegrees>
              <LongitudeDegrees>-4.925482906401157379150390625</LongitudeDegrees>
            </Position>
            <AltitudeMeters>63.59999847412109375</AltitudeMeters>
            <DistanceMeters>NAN</DistanceMeters>
          </Trackpoint>
          <Trackpoint>
            <Time>2022-07-16T11:39:39.000Z</Time>
            <Position>
              <LatitudeDegrees>43.4354874305427074432373046875</LatitudeDegrees>
              <LongitudeDegrees>-4.9255107343196868896484375</LongitudeDegrees>
            </Position>
            <AltitudeMeters>63.799999237060546875</AltitudeMeters>
            <DistanceMeters>NAN</DistanceMeters>
          </Trackpoint>
          <Trackpoint>
            <Time>2022-07-16T11:39:41.000Z</Time>
            <Position>
              <LatitudeDegrees>43.43548290431499481201171875</LatitudeDegrees>
              <LongitudeDegrees>-4.92554585449397563934326171875</LongitudeDegrees>
            </Position>
            <AltitudeMeters>64</AltitudeMeters>
            <DistanceMeters>NAN</DistanceMeters>
          </Trackpoint>
          <Trackpoint>
            <Time>2022-07-16T11:39:44.000Z</Time>
            <Position>
              <LatitudeDegrees>43.43550645746290683746337890625</LatitudeDegrees>
              <LongitudeDegrees>-4.92556504905223846435546875</LongitudeDegrees>
            </Position>
            <AltitudeMeters>64.1999969482421875</AltitudeMeters>
            <DistanceMeters>NAN</DistanceMeters>
          </Trackpoint>
          <Trackpoint>
            <Time>2022-07-16T11:39:45.000Z</Time>
            <Position>
              <LatitudeDegrees>43.43550494872033596038818359375</LatitudeDegrees>
              <LongitudeDegrees>-4.925573766231536865234375</LongitudeDegrees>
            </Position>
            <AltitudeMeters>64.40000152587890625</AltitudeMeters>
            <DistanceMeters>NAN</DistanceMeters>
          </Trackpoint>
          <Trackpoint>
            <Time>2022-07-16T11:39:47.000Z</Time>
            <Position>
              <LatitudeDegrees>43.43550528399646282196044921875</LatitudeDegrees>
              <LongitudeDegrees>-4.9255984090268611907958984375</LongitudeDegrees>
            </Position>
            <AltitudeMeters>64.59999847412109375</AltitudeMeters>
            <DistanceMeters>NAN</DistanceMeters>
          </Trackpoint>
          <Trackpoint>
            <Time>2022-07-16T11:39:52.000Z</Time>
            <Position>
              <LatitudeDegrees>43.43551911413669586181640625</LatitudeDegrees>
              <LongitudeDegrees>-4.925612993538379669189453125</LongitudeDegrees>
            </Position>
            <AltitudeMeters>65.1999969482421875</AltitudeMeters>
            <DistanceMeters>NAN</DistanceMeters>
          </Trackpoint>
          <Trackpoint>
            <Time>2022-07-16T11:39:53.000Z</Time>
            <Position>
              <LatitudeDegrees>43.435520790517330169677734375</LatitudeDegrees>
              <LongitudeDegrees>-4.925624392926692962646484375</LongitudeDegrees>
            </Position>
            <AltitudeMeters>65.40000152587890625</AltitudeMeters>
            <DistanceMeters>NAN</DistanceMeters>
          </Trackpoint>
          <Trackpoint>
            <Time>2022-07-16T11:39:59.000Z</Time>
            <Position>
              <LatitudeDegrees>43.43551819212734699249267578125</LatitudeDegrees>
              <LongitudeDegrees>-4.92565616033971309661865234375</LongitudeDegrees>
            </Position>
            <AltitudeMeters>66</AltitudeMeters>
            <DistanceMeters>NAN</DistanceMeters>
          </Trackpoint>
          <Trackpoint>
            <Time>2022-07-16T11:40:02.000Z</Time>
            <Position>
              <LatitudeDegrees>43.435519449412822723388671875</LatitudeDegrees>
              <LongitudeDegrees>-4.9256812222301959991455078125</LongitudeDegrees>
            </Position>
            <AltitudeMeters>66.40000152587890625</AltitudeMeters>
            <DistanceMeters>NAN</DistanceMeters>
          </Trackpoint>
          <Trackpoint>
            <Time>2022-07-16T11:40:05.000Z</Time>
            <Position>
              <LatitudeDegrees>43.4355360455811023712158203125</LatitudeDegrees>
              <LongitudeDegrees>-4.925733692944049835205078125</LongitudeDegrees>
            </Position>
            <AltitudeMeters>66.8000030517578125</AltitudeMeters>
            <DistanceMeters>NAN</DistanceMeters>
          </Trackpoint>
          <Trackpoint>
            <Time>2022-07-16T11:40:09.000Z</Time>
            <Position>
              <LatitudeDegrees>43.4355437569320201873779296875</LatitudeDegrees>
              <LongitudeDegrees>-4.92582044564187526702880859375</LongitudeDegrees>
            </Position>
            <AltitudeMeters>67.1999969482421875</AltitudeMeters>
            <DistanceMeters>NAN</DistanceMeters>
          </Trackpoint>
          <Trackpoint>
            <Time>2022-07-16T11:40:11.000Z</Time>
            <Position>
              <LatitudeDegrees>43.43554635532200336456298828125</LatitudeDegrees>
              <LongitudeDegrees>-4.9258562363684177398681640625</LongitudeDegrees>
            </Position>
            <AltitudeMeters>67.59999847412109375</AltitudeMeters>
            <DistanceMeters>NAN</DistanceMeters>
          </Trackpoint>
          <Trackpoint>
            <Time>2022-07-16T11:40:13.000Z</Time>
            <Position>
              <LatitudeDegrees>43.43555532395839691162109375</LatitudeDegrees>
              <LongitudeDegrees>-4.92588691413402557373046875</LongitudeDegrees>
            </Position>
            <AltitudeMeters>67.8000030517578125</AltitudeMeters>
            <DistanceMeters>NAN</DistanceMeters>
          </Trackpoint>
          <Trackpoint>
            <Time>2022-07-16T11:40:15.000Z</Time>
            <Position>
              <LatitudeDegrees>43.43556781299412250518798828125</LatitudeDegrees>
              <LongitudeDegrees>-4.92592002265155315399169921875</LongitudeDegrees>
            </Position>
            <AltitudeMeters>67.8000030517578125</AltitudeMeters>
            <DistanceMeters>NAN</DistanceMeters>
          </Trackpoint>
          <Trackpoint>
            <Time>2022-07-16T11:40:17.000Z</Time>
            <Position>
              <LatitudeDegrees>43.43556596897542476654052734375</LatitudeDegrees>
              <LongitudeDegrees>-4.92596545256674289703369140625</LongitudeDegrees>
            </Position>
            <AltitudeMeters>68</AltitudeMeters>
            <DistanceMeters>NAN</DistanceMeters>
          </Trackpoint>
          <Trackpoint>
            <Time>2022-07-16T11:40:24.000Z</Time>
            <Position>
              <LatitudeDegrees>43.43555473722517490386962890625</LatitudeDegrees>
              <LongitudeDegrees>-4.92611356079578399658203125</LongitudeDegrees>
            </Position>
            <AltitudeMeters>68.59999847412109375</AltitudeMeters>
            <DistanceMeters>NAN</DistanceMeters>
          </Trackpoint>
          <Trackpoint>
            <Time>2022-07-16T11:40:25.000Z</Time>
            <Position>
              <LatitudeDegrees>43.43554434366524219512939453125</LatitudeDegrees>
              <LongitudeDegrees>-4.92614851333200931549072265625</LongitudeDegrees>
            </Position>
            <AltitudeMeters>68.8000030517578125</AltitudeMeters>
            <DistanceMeters>NAN</DistanceMeters>
          </Trackpoint>
          <Trackpoint>
            <Time>2022-07-16T11:40:28.000Z</Time>
            <Position>
              <LatitudeDegrees>43.4355256520211696624755859375</LatitudeDegrees>
              <LongitudeDegrees>-4.92624138481914997100830078125</LongitudeDegrees>
            </Position>
            <AltitudeMeters>69.1999969482421875</AltitudeMeters>
            <DistanceMeters>NAN</DistanceMeters>
          </Trackpoint>
          <Trackpoint>
            <Time>2022-07-16T11:40:31.000Z</Time>
            <Position>
              <LatitudeDegrees>43.43552389182150363922119140625</LatitudeDegrees>
              <LongitudeDegrees>-4.926322437822818756103515625</LongitudeDegrees>
            </Position>
            <AltitudeMeters>69.59999847412109375</AltitudeMeters>
            <DistanceMeters>NAN</DistanceMeters>
          </Trackpoint>
          <Trackpoint>
            <Time>2022-07-16T11:40:32.000Z</Time>
            <Position>
              <LatitudeDegrees>43.4355229698121547698974609375</LatitudeDegrees>
              <LongitudeDegrees>-4.92633886635303497314453125</LongitudeDegrees>
            </Position>
            <AltitudeMeters>69.8000030517578125</AltitudeMeters>
            <DistanceMeters>NAN</DistanceMeters>
          </Trackpoint>
          <Trackpoint>
            <Time>2022-07-16T11:40:33.000Z</Time>
            <Position>
              <LatitudeDegrees>43.4355266578495502471923828125</LatitudeDegrees>
              <LongitudeDegrees>-4.9263551272451877593994140625</LongitudeDegrees>
            </Position>
            <AltitudeMeters>70</AltitudeMeters>
            <DistanceMeters>NAN</DistanceMeters>
          </Trackpoint>
          <Trackpoint>
            <Time>2022-07-16T11:40:36.000Z</Time>
            <Position>
              <LatitudeDegrees>43.435514084994792938232421875</LatitudeDegrees>
              <LongitudeDegrees>-4.92647431790828704833984375</LongitudeDegrees>
            </Position>
            <AltitudeMeters>70.1999969482421875</AltitudeMeters>
            <DistanceMeters>NAN</DistanceMeters>
          </Trackpoint>
          <Trackpoint>
            <Time>2022-07-16T11:40:39.000Z</Time>
            <Position>
              <LatitudeDegrees>43.43551416881382465362548828125</LatitudeDegrees>
              <LongitudeDegrees>-4.92652595043182373046875</LongitudeDegrees>
            </Position>
            <AltitudeMeters>70.40000152587890625</AltitudeMeters>
            <DistanceMeters>NAN</DistanceMeters>
          </Trackpoint>
          <Trackpoint>
            <Time>2022-07-16T11:40:41.000Z</Time>
            <Position>
              <LatitudeDegrees>43.43549287877976894378662109375</LatitudeDegrees>
              <LongitudeDegrees>-4.92658202536404132843017578125</LongitudeDegrees>
            </Position>
            <AltitudeMeters>70.8000030517578125</AltitudeMeters>
            <DistanceMeters>NAN</DistanceMeters>
          </Trackpoint>
          <Trackpoint>
            <Time>2022-07-16T11:40:42.000Z</Time>
            <Position>
              <LatitudeDegrees>43.435493297874927520751953125</LatitudeDegrees>
              <LongitudeDegrees>-4.92659744806587696075439453125</LongitudeDegrees>
            </Position>
            <AltitudeMeters>70.8000030517578125</AltitudeMeters>
            <DistanceMeters>NAN</DistanceMeters>
          </Trackpoint>
          <Trackpoint>
            <Time>2022-07-16T11:40:44.000Z</Time>
            <Position>
              <LatitudeDegrees>43.43549522571265697479248046875</LatitudeDegrees>
              <LongitudeDegrees>-4.92663131095468997955322265625</LongitudeDegrees>
            </Position>
            <AltitudeMeters>71</AltitudeMeters>
            <DistanceMeters>NAN</DistanceMeters>
          </Trackpoint>
          <Trackpoint>
            <Time>2022-07-16T11:40:51.000Z</Time>
            <Position>
              <LatitudeDegrees>43.43551701866090297698974609375</LatitudeDegrees>
              <LongitudeDegrees>-4.92673960514366626739501953125</LongitudeDegrees>
            </Position>
            <AltitudeMeters>71.8000030517578125</AltitudeMeters>
            <DistanceMeters>NAN</DistanceMeters>
          </Trackpoint>
          <Trackpoint>
            <Time>2022-07-16T11:40:57.000Z</Time>
            <Position>
              <LatitudeDegrees>43.4355558268725872039794921875</LatitudeDegrees>
              <LongitudeDegrees>-4.9268169701099395751953125</LongitudeDegrees>
            </Position>
            <AltitudeMeters>72.40000152587890625</AltitudeMeters>
            <DistanceMeters>NAN</DistanceMeters>
          </Trackpoint>
          <Trackpoint>
            <Time>2022-07-16T11:40:58.000Z</Time>
            <Position>
              <LatitudeDegrees>43.43556596897542476654052734375</LatitudeDegrees>
              <LongitudeDegrees>-4.92683264426887035369873046875</LongitudeDegrees>
            </Position>
            <AltitudeMeters>72.59999847412109375</AltitudeMeters>
            <DistanceMeters>NAN</DistanceMeters>
          </Trackpoint>
          <Trackpoint>
            <Time>2022-07-16T11:41:00.000Z</Time>
            <Position>
              <LatitudeDegrees>43.43557200394570827484130859375</LatitudeDegrees>
              <LongitudeDegrees>-4.926871620118618011474609375</LongitudeDegrees>
            </Position>
            <AltitudeMeters>72.8000030517578125</AltitudeMeters>
            <DistanceMeters>NAN</DistanceMeters>
          </Trackpoint>
          <Trackpoint>
            <Time>2022-07-16T11:41:05.000Z</Time>
            <Position>
              <LatitudeDegrees>43.435581810772418975830078125</LatitudeDegrees>
              <LongitudeDegrees>-4.926945380866527557373046875</LongitudeDegrees>
            </Position>
            <AltitudeMeters>73.40000152587890625</AltitudeMeters>
            <DistanceMeters>NAN</DistanceMeters>
          </Trackpoint>
          <Trackpoint>
            <Time>2022-07-16T11:41:10.000Z</Time>
            <Position>
              <LatitudeDegrees>43.43558591790497303009033203125</LatitudeDegrees>
              <LongitudeDegrees>-4.927037246525287628173828125</LongitudeDegrees>
            </Position>
            <AltitudeMeters>74</AltitudeMeters>
            <DistanceMeters>NAN</DistanceMeters>
          </Trackpoint>
          <Trackpoint>
            <Time>2022-07-16T11:41:14.000Z</Time>
            <Position>
              <LatitudeDegrees>43.435581140220165252685546875</LatitudeDegrees>
              <LongitudeDegrees>-4.92709583602845668792724609375</LongitudeDegrees>
            </Position>
            <AltitudeMeters>74.59999847412109375</AltitudeMeters>
            <DistanceMeters>NAN</DistanceMeters>
          </Trackpoint>
          <Trackpoint>
            <Time>2022-07-16T11:41:15.000Z</Time>
            <Position>
              <LatitudeDegrees>43.43558055348694324493408203125</LatitudeDegrees>
              <LongitudeDegrees>-4.9271106719970703125</LongitudeDegrees>
            </Position>
            <AltitudeMeters>74.59999847412109375</AltitudeMeters>
            <DistanceMeters>NAN</DistanceMeters>
          </Trackpoint>
          <Trackpoint>
            <Time>2022-07-16T11:41:18.000Z</Time>
            <Position>
              <LatitudeDegrees>43.4355863370001316070556640625</LatitudeDegrees>
              <LongitudeDegrees>-4.92716766893863677978515625</LongitudeDegrees>
            </Position>
            <AltitudeMeters>75</AltitudeMeters>
            <DistanceMeters>NAN</DistanceMeters>
          </Trackpoint>
          <Trackpoint>
            <Time>2022-07-16T11:41:20.000Z</Time>
            <Position>
              <LatitudeDegrees>43.4355766139924526214599609375</LatitudeDegrees>
              <LongitudeDegrees>-4.9272013641893863677978515625</LongitudeDegrees>
            </Position>
            <AltitudeMeters>75.1999969482421875</AltitudeMeters>
            <DistanceMeters>NAN</DistanceMeters>
          </Trackpoint>
          <Trackpoint>
            <Time>2022-07-16T11:41:27.000Z</Time>
            <Position>
              <LatitudeDegrees>43.4355766139924526214599609375</LatitudeDegrees>
              <LongitudeDegrees>-4.92733798921108245849609375</LongitudeDegrees>
            </Position>
            <AltitudeMeters>76.1999969482421875</AltitudeMeters>
            <DistanceMeters>NAN</DistanceMeters>
          </Trackpoint>
          <Trackpoint>
            <Time>2022-07-16T11:41:30.000Z</Time>
            <Position>
              <LatitudeDegrees>43.4355806373059749603271484375</LatitudeDegrees>
              <LongitudeDegrees>-4.9273931421339511871337890625</LongitudeDegrees>
            </Position>
            <AltitudeMeters>76.59999847412109375</AltitudeMeters>
            <DistanceMeters>NAN</DistanceMeters>
          </Trackpoint>
          <Trackpoint>
            <Time>2022-07-16T11:41:37.000Z</Time>
            <Position>
              <LatitudeDegrees>43.43555037863552570343017578125</LatitudeDegrees>
              <LongitudeDegrees>-4.92751099169254302978515625</LongitudeDegrees>
            </Position>
            <AltitudeMeters>77.40000152587890625</AltitudeMeters>
            <DistanceMeters>NAN</DistanceMeters>
          </Trackpoint>
          <Trackpoint>
            <Time>2022-07-16T11:41:38.000Z</Time>
            <Position>
              <LatitudeDegrees>43.435550630092620849609375</LatitudeDegrees>
              <LongitudeDegrees>-4.9275312758982181549072265625</LongitudeDegrees>
            </Position>
            <AltitudeMeters>77.59999847412109375</AltitudeMeters>
            <DistanceMeters>NAN</DistanceMeters>
          </Trackpoint>
          <Trackpoint>
            <Time>2022-07-16T11:41:47.000Z</Time>
            <Position>
              <LatitudeDegrees>43.43553721904754638671875</LatitudeDegrees>
              <LongitudeDegrees>-4.927717186510562896728515625</LongitudeDegrees>
            </Position>
            <AltitudeMeters>78</AltitudeMeters>
            <DistanceMeters>NAN</DistanceMeters>
          </Trackpoint>
          <Trackpoint>
            <Time>2022-07-16T11:41:49.000Z</Time>
            <Position>
              <LatitudeDegrees>43.43553797341883182525634765625</LatitudeDegrees>
              <LongitudeDegrees>-4.9277676455676555633544921875</LongitudeDegrees>
            </Position>
            <AltitudeMeters>78</AltitudeMeters>
            <DistanceMeters>NAN</DistanceMeters>
          </Trackpoint>
          <Trackpoint>
            <Time>2022-07-16T11:41:52.000Z</Time>
            <Position>
              <LatitudeDegrees>43.4355363808572292327880859375</LatitudeDegrees>
              <LongitudeDegrees>-4.92783495225012302398681640625</LongitudeDegrees>
            </Position>
            <AltitudeMeters>78.1999969482421875</AltitudeMeters>
            <DistanceMeters>NAN</DistanceMeters>
          </Trackpoint>
          <Trackpoint>
            <Time>2022-07-16T11:41:54.000Z</Time>
            <Position>
              <LatitudeDegrees>43.43553529120981693267822265625</LatitudeDegrees>
              <LongitudeDegrees>-4.92788272909820079803466796875</LongitudeDegrees>
            </Position>
            <AltitudeMeters>78.40000152587890625</AltitudeMeters>
            <DistanceMeters>NAN</DistanceMeters>
          </Trackpoint>
          <Trackpoint>
            <Time>2022-07-16T11:41:55.000Z</Time>
            <Position>
              <LatitudeDegrees>43.43553193844854831695556640625</LatitudeDegrees>
              <LongitudeDegrees>-4.9279071204364299774169921875</LongitudeDegrees>
            </Position>
            <AltitudeMeters>78.40000152587890625</AltitudeMeters>
            <DistanceMeters>NAN</DistanceMeters>
          </Trackpoint>
          <Trackpoint>
            <Time>2022-07-16T11:42:04.000Z</Time>
            <Position>
              <LatitudeDegrees>43.4355360455811023712158203125</LatitudeDegrees>
              <LongitudeDegrees>-4.92813728749752044677734375</LongitudeDegrees>
            </Position>
            <AltitudeMeters>79.1999969482421875</AltitudeMeters>
            <DistanceMeters>NAN</DistanceMeters>
          </Trackpoint>
          <Trackpoint>
            <Time>2022-07-16T11:42:11.000Z</Time>
            <Position>
              <LatitudeDegrees>43.43553981743752956390380859375</LatitudeDegrees>
              <LongitudeDegrees>-4.92828723974525928497314453125</LongitudeDegrees>
            </Position>
            <AltitudeMeters>79.40000152587890625</AltitudeMeters>
            <DistanceMeters>NAN</DistanceMeters>
          </Trackpoint>
          <Trackpoint>
            <Time>2022-07-16T11:42:13.000Z</Time>
            <Position>
              <LatitudeDegrees>43.43554057180881500244140625</LatitudeDegrees>
              <LongitudeDegrees>-4.9283258803188800811767578125</LongitudeDegrees>
            </Position>
            <AltitudeMeters>79.59999847412109375</AltitudeMeters>
            <DistanceMeters>NAN</DistanceMeters>
          </Trackpoint>
          <Trackpoint>
            <Time>2022-07-16T11:42:23.000Z</Time>
            <Position>
              <LatitudeDegrees>43.4355159290134906768798828125</LatitudeDegrees>
              <LongitudeDegrees>-4.9285595677793025970458984375</LongitudeDegrees>
            </Position>
            <AltitudeMeters>80</AltitudeMeters>
            <DistanceMeters>NAN</DistanceMeters>
          </Trackpoint>
          <Trackpoint>
            <Time>2022-07-16T11:42:30.000Z</Time>
            <Position>
              <LatitudeDegrees>43.43551668338477611541748046875</LatitudeDegrees>
              <LongitudeDegrees>-4.92871622554957866668701171875</LongitudeDegrees>
            </Position>
            <AltitudeMeters>80.40000152587890625</AltitudeMeters>
            <DistanceMeters>NAN</DistanceMeters>
          </Trackpoint>
          <Trackpoint>
            <Time>2022-07-16T11:42:32.000Z</Time>
            <Position>
              <LatitudeDegrees>43.43551735393702983856201171875</LatitudeDegrees>
              <LongitudeDegrees>-4.9287674389779567718505859375</LongitudeDegrees>
            </Position>
            <AltitudeMeters>80.59999847412109375</AltitudeMeters>
            <DistanceMeters>NAN</DistanceMeters>
          </Trackpoint>
          <Trackpoint>
            <Time>2022-07-16T11:42:39.000Z</Time>
            <Position>
              <LatitudeDegrees>43.43552456237375736236572265625</LatitudeDegrees>
              <LongitudeDegrees>-4.92894387803971767425537109375</LongitudeDegrees>
            </Position>
            <AltitudeMeters>81.1999969482421875</AltitudeMeters>
            <DistanceMeters>NAN</DistanceMeters>
          </Trackpoint>
          <Trackpoint>
            <Time>2022-07-16T11:42:45.000Z</Time>
            <Position>
              <LatitudeDegrees>43.4355330280959606170654296875</LatitudeDegrees>
              <LongitudeDegrees>-4.929079078137874603271484375</LongitudeDegrees>
            </Position>
            <AltitudeMeters>81.40000152587890625</AltitudeMeters>
            <DistanceMeters>NAN</DistanceMeters>
          </Trackpoint>
          <Trackpoint>
            <Time>2022-07-16T11:42:47.000Z</Time>
            <Position>
              <LatitudeDegrees>43.4355360455811023712158203125</LatitudeDegrees>
              <LongitudeDegrees>-4.9291194789111614227294921875</LongitudeDegrees>
            </Position>
            <AltitudeMeters>81.40000152587890625</AltitudeMeters>
            <DistanceMeters>NAN</DistanceMeters>
          </Trackpoint>
          <Trackpoint>
            <Time>2022-07-16T11:42:48.000Z</Time>
            <Position>
              <LatitudeDegrees>43.4355358779430389404296875</LatitudeDegrees>
              <LongitudeDegrees>-4.92914219386875629425048828125</LongitudeDegrees>
            </Position>
            <AltitudeMeters>81.59999847412109375</AltitudeMeters>
            <DistanceMeters>NAN</DistanceMeters>
          </Trackpoint>
          <Trackpoint>
            <Time>2022-07-16T11:42:55.000Z</Time>
            <Position>
              <LatitudeDegrees>43.4355202876031398773193359375</LatitudeDegrees>
              <LongitudeDegrees>-4.92934151552617549896240234375</LongitudeDegrees>
            </Position>
            <AltitudeMeters>81.8000030517578125</AltitudeMeters>
            <DistanceMeters>NAN</DistanceMeters>
          </Trackpoint>
          <Trackpoint>
            <Time>2022-07-16T11:42:57.000Z</Time>
            <Position>
              <LatitudeDegrees>43.43551576137542724609375</LatitudeDegrees>
              <LongitudeDegrees>-4.9293980933725833892822265625</LongitudeDegrees>
            </Position>
            <AltitudeMeters>81.8000030517578125</AltitudeMeters>
            <DistanceMeters>NAN</DistanceMeters>
          </Trackpoint>
          <Trackpoint>
            <Time>2022-07-16T11:43:00.000Z</Time>
            <Position>
              <LatitudeDegrees>43.435506038367748260498046875</LatitudeDegrees>
              <LongitudeDegrees>-4.92948786355555057525634765625</LongitudeDegrees>
            </Position>
            <AltitudeMeters>82</AltitudeMeters>
            <DistanceMeters>NAN</DistanceMeters>
          </Trackpoint>
          <Trackpoint>
            <Time>2022-07-16T11:43:07.000Z</Time>
            <Position>
              <LatitudeDegrees>43.43546136282384395599365234375</LatitudeDegrees>
              <LongitudeDegrees>-4.92974485270678997039794921875</LongitudeDegrees>
            </Position>
            <AltitudeMeters>82.40000152587890625</AltitudeMeters>
            <DistanceMeters>NAN</DistanceMeters>
          </Trackpoint>
          <Trackpoint>
            <Time>2022-07-16T11:43:14.000Z</Time>
            <Position>
              <LatitudeDegrees>43.43545465730130672454833984375</LatitudeDegrees>
              <LongitudeDegrees>-4.9299771152436733245849609375</LongitudeDegrees>
            </Position>
            <AltitudeMeters>82.1999969482421875</AltitudeMeters>
            <DistanceMeters>NAN</DistanceMeters>
          </Trackpoint>
          <Trackpoint>
            <Time>2022-07-16T11:43:20.000Z</Time>
            <Position>
              <LatitudeDegrees>43.435446359217166900634765625</LatitudeDegrees>
              <LongitudeDegrees>-4.9301802925765514373779296875</LongitudeDegrees>
            </Position>
            <AltitudeMeters>82.59999847412109375</AltitudeMeters>
            <DistanceMeters>NAN</DistanceMeters>
          </Trackpoint>
          <Trackpoint>
            <Time>2022-07-16T11:43:23.000Z</Time>
            <Position>
              <LatitudeDegrees>43.4354421682655811309814453125</LatitudeDegrees>
              <LongitudeDegrees>-4.9302765168249607086181640625</LongitudeDegrees>
            </Position>
            <AltitudeMeters>82.8000030517578125</AltitudeMeters>
            <DistanceMeters>NAN</DistanceMeters>
          </Trackpoint>
          <Trackpoint>
            <Time>2022-07-16T11:43:25.000Z</Time>
            <Position>
              <LatitudeDegrees>43.43543169088661670684814453125</LatitudeDegrees>
              <LongitudeDegrees>-4.93033192120492458343505859375</LongitudeDegrees>
            </Position>
            <AltitudeMeters>82.8000030517578125</AltitudeMeters>
            <DistanceMeters>NAN</DistanceMeters>
          </Trackpoint>
          <Trackpoint>
            <Time>2022-07-16T11:43:30.000Z</Time>
            <Position>
              <LatitudeDegrees>43.43541878275573253631591796875</LatitudeDegrees>
              <LongitudeDegrees>-4.9304746650159358978271484375</LongitudeDegrees>
            </Position>
            <AltitudeMeters>83.1999969482421875</AltitudeMeters>
            <DistanceMeters>NAN</DistanceMeters>
          </Trackpoint>
          <Trackpoint>
            <Time>2022-07-16T11:43:33.000Z</Time>
            <Position>
              <LatitudeDegrees>43.4354170225560665130615234375</LatitudeDegrees>
              <LongitudeDegrees>-4.9305631779134273529052734375</LongitudeDegrees>
            </Position>
            <AltitudeMeters>83.40000152587890625</AltitudeMeters>
            <DistanceMeters>NAN</DistanceMeters>
          </Trackpoint>
          <Trackpoint>
            <Time>2022-07-16T11:43:38.000Z</Time>
            <Position>
              <LatitudeDegrees>43.4354039467871189117431640625</LatitudeDegrees>
              <LongitudeDegrees>-4.9307894892990589141845703125</LongitudeDegrees>
            </Position>
            <AltitudeMeters>83</AltitudeMeters>
            <DistanceMeters>NAN</DistanceMeters>
          </Trackpoint>
          <Trackpoint>
            <Time>2022-07-16T11:43:44.000Z</Time>
            <Position>
              <LatitudeDegrees>43.4354277513921260833740234375</LatitudeDegrees>
              <LongitudeDegrees>-4.931121580302715301513671875</LongitudeDegrees>
            </Position>
            <AltitudeMeters>82.1999969482421875</AltitudeMeters>
            <DistanceMeters>NAN</DistanceMeters>
          </Trackpoint>
          <Trackpoint>
            <Time>2022-07-16T11:43:47.000Z</Time>
            <Position>
              <LatitudeDegrees>43.43543387018144130706787109375</LatitudeDegrees>
              <LongitudeDegrees>-4.93131411261856555938720703125</LongitudeDegrees>
            </Position>
            <AltitudeMeters>81.8000030517578125</AltitudeMeters>
            <DistanceMeters>NAN</DistanceMeters>
          </Trackpoint>
          <Trackpoint>
            <Time>2022-07-16T11:43:49.000Z</Time>
            <Position>
              <LatitudeDegrees>43.4354488737881183624267578125</LatitudeDegrees>
              <LongitudeDegrees>-4.93144520558416843414306640625</LongitudeDegrees>
            </Position>
            <AltitudeMeters>81.59999847412109375</AltitudeMeters>
            <DistanceMeters>NAN</DistanceMeters>
          </Trackpoint>
          <Trackpoint>
            <Time>2022-07-16T11:43:50.000Z</Time>
            <Position>
              <LatitudeDegrees>43.43545876443386077880859375</LatitudeDegrees>
              <LongitudeDegrees>-4.93150656111538410186767578125</LongitudeDegrees>
            </Position>
            <AltitudeMeters>81.40000152587890625</AltitudeMeters>
            <DistanceMeters>NAN</DistanceMeters>
          </Trackpoint>
          <Trackpoint>
            <Time>2022-07-16T11:43:58.000Z</Time>
            <Position>
              <LatitudeDegrees>43.43550981022417545318603515625</LatitudeDegrees>
              <LongitudeDegrees>-4.93202053941786289215087890625</LongitudeDegrees>
            </Position>
            <AltitudeMeters>80.40000152587890625</AltitudeMeters>
            <DistanceMeters>NAN</DistanceMeters>
          </Trackpoint>
          <Trackpoint>
            <Time>2022-07-16T11:44:05.000Z</Time>
            <Position>
              <LatitudeDegrees>43.43553998507559299468994140625</LatitudeDegrees>
              <LongitudeDegrees>-4.93249093182384967803955078125</LongitudeDegrees>
            </Position>
            <AltitudeMeters>79.40000152587890625</AltitudeMeters>
            <DistanceMeters>NAN</DistanceMeters>
          </Trackpoint>
          <Trackpoint>
            <Time>2022-07-16T11:44:06.000Z</Time>
            <Position>
              <LatitudeDegrees>43.43555507250130176544189453125</LatitudeDegrees>
              <LongitudeDegrees>-4.93255354464054107666015625</LongitudeDegrees>
            </Position>
            <AltitudeMeters>79.1999969482421875</AltitudeMeters>
            <DistanceMeters>NAN</DistanceMeters>
          </Trackpoint>
          <Trackpoint>
            <Time>2022-07-16T11:44:07.000Z</Time>
            <Position>
              <LatitudeDegrees>43.43557284213602542877197265625</LatitudeDegrees>
              <LongitudeDegrees>-4.9326170794665813446044921875</LongitudeDegrees>
            </Position>
            <AltitudeMeters>79</AltitudeMeters>
            <DistanceMeters>NAN</DistanceMeters>
          </Trackpoint>
          <Trackpoint>
            <Time>2022-07-16T11:44:09.000Z</Time>
            <Position>
              <LatitudeDegrees>43.43561106361448764801025390625</LatitudeDegrees>
              <LongitudeDegrees>-4.93272931315004825592041015625</LongitudeDegrees>
            </Position>
            <AltitudeMeters>78.40000152587890625</AltitudeMeters>
            <DistanceMeters>NAN</DistanceMeters>
          </Trackpoint>
          <Trackpoint>
            <Time>2022-07-16T11:44:11.000Z</Time>
            <Position>
              <LatitudeDegrees>43.43565833754837512969970703125</LatitudeDegrees>
              <LongitudeDegrees>-4.93285797536373138427734375</LongitudeDegrees>
            </Position>
            <AltitudeMeters>77.8000030517578125</AltitudeMeters>
            <DistanceMeters>NAN</DistanceMeters>
          </Trackpoint>
          <Trackpoint>
            <Time>2022-07-16T11:44:15.000Z</Time>
            <Position>
              <LatitudeDegrees>43.43579663895070552825927734375</LatitudeDegrees>
              <LongitudeDegrees>-4.93315025232732295989990234375</LongitudeDegrees>
            </Position>
            <AltitudeMeters>76.59999847412109375</AltitudeMeters>
            <DistanceMeters>NAN</DistanceMeters>
          </Trackpoint>
          <Trackpoint>
            <Time>2022-07-16T11:44:16.000Z</Time>
            <Position>
              <LatitudeDegrees>43.4358371235430240631103515625</LatitudeDegrees>
              <LongitudeDegrees>-4.93322736583650112152099609375</LongitudeDegrees>
            </Position>
            <AltitudeMeters>76</AltitudeMeters>
            <DistanceMeters>NAN</DistanceMeters>
          </Trackpoint>
          <Trackpoint>
            <Time>2022-07-16T11:44:18.000Z</Time>
            <Position>
              <LatitudeDegrees>43.435923121869564056396484375</LatitudeDegrees>
              <LongitudeDegrees>-4.93339517153799533843994140625</LongitudeDegrees>
            </Position>
            <AltitudeMeters>75</AltitudeMeters>
            <DistanceMeters>NAN</DistanceMeters>
          </Trackpoint>
          <Trackpoint>
            <Time>2022-07-16T11:44:21.000Z</Time>
            <Position>
              <LatitudeDegrees>43.43606720678508281707763671875</LatitudeDegrees>
              <LongitudeDegrees>-4.93364109657704830169677734375</LongitudeDegrees>
            </Position>
            <AltitudeMeters>73.8000030517578125</AltitudeMeters>
            <DistanceMeters>NAN</DistanceMeters>
          </Trackpoint>
          <Trackpoint>
            <Time>2022-07-16T11:44:22.000Z</Time>
            <Position>
              <LatitudeDegrees>43.43610785901546478271484375</LatitudeDegrees>
              <LongitudeDegrees>-4.9337285198271274566650390625</LongitudeDegrees>
            </Position>
            <AltitudeMeters>73.40000152587890625</AltitudeMeters>
            <DistanceMeters>NAN</DistanceMeters>
          </Trackpoint>
          <Trackpoint>
            <Time>2022-07-16T11:44:24.000Z</Time>
            <Position>
              <LatitudeDegrees>43.43620031140744686126708984375</LatitudeDegrees>
              <LongitudeDegrees>-4.93390764109790325164794921875</LongitudeDegrees>
            </Position>
            <AltitudeMeters>72.40000152587890625</AltitudeMeters>
            <DistanceMeters>NAN</DistanceMeters>
          </Trackpoint>
          <Trackpoint>
            <Time>2022-07-16T11:44:27.000Z</Time>
            <Position>
              <LatitudeDegrees>43.4363537840545177459716796875</LatitudeDegrees>
              <LongitudeDegrees>-4.93417904712259769439697265625</LongitudeDegrees>
            </Position>
            <AltitudeMeters>72</AltitudeMeters>
            <DistanceMeters>NAN</DistanceMeters>
          </Trackpoint>
          <Trackpoint>
            <Time>2022-07-16T11:44:28.000Z</Time>
            <Position>
              <LatitudeDegrees>43.43640080653131008148193359375</LatitudeDegrees>
              <LongitudeDegrees>-4.93425884284079074859619140625</LongitudeDegrees>
            </Position>
            <AltitudeMeters>71.40000152587890625</AltitudeMeters>
            <DistanceMeters>NAN</DistanceMeters>
          </Trackpoint>
          <Trackpoint>
            <Time>2022-07-16T11:44:29.000Z</Time>
            <Position>
              <LatitudeDegrees>43.4364486671984195709228515625</LatitudeDegrees>
              <LongitudeDegrees>-4.934336207807064056396484375</LongitudeDegrees>
            </Position>
            <AltitudeMeters>70.1999969482421875</AltitudeMeters>
            <DistanceMeters>NAN</DistanceMeters>
          </Trackpoint>
          <Trackpoint>
            <Time>2022-07-16T11:44:30.000Z</Time>
            <Position>
              <LatitudeDegrees>43.436498455703258514404296875</LatitudeDegrees>
              <LongitudeDegrees>-4.93441374041140079498291015625</LongitudeDegrees>
            </Position>
            <AltitudeMeters>69.59999847412109375</AltitudeMeters>
            <DistanceMeters>NAN</DistanceMeters>
          </Trackpoint>
          <Trackpoint>
            <Time>2022-07-16T11:44:31.000Z</Time>
            <Position>
              <LatitudeDegrees>43.43654447235167026519775390625</LatitudeDegrees>
              <LongitudeDegrees>-4.93449286557734012603759765625</LongitudeDegrees>
            </Position>
            <AltitudeMeters>69.1999969482421875</AltitudeMeters>
            <DistanceMeters>NAN</DistanceMeters>
          </Trackpoint>
          <Trackpoint>
            <Time>2022-07-16T11:44:34.000Z</Time>
            <Position>
              <LatitudeDegrees>43.43667271547019481658935546875</LatitudeDegrees>
              <LongitudeDegrees>-4.9347413890063762664794921875</LongitudeDegrees>
            </Position>
            <AltitudeMeters>68.40000152587890625</AltitudeMeters>
            <DistanceMeters>NAN</DistanceMeters>
          </Trackpoint>
          <Trackpoint>
            <Time>2022-07-16T11:44:35.000Z</Time>
            <Position>
              <LatitudeDegrees>43.4367142058908939361572265625</LatitudeDegrees>
              <LongitudeDegrees>-4.93482043035328388214111328125</LongitudeDegrees>
            </Position>
            <AltitudeMeters>68</AltitudeMeters>
            <DistanceMeters>NAN</DistanceMeters>
          </Trackpoint>
          <Trackpoint>
            <Time>2022-07-16T11:44:36.000Z</Time>
            <Position>
              <LatitudeDegrees>43.43675636686384677886962890625</LatitudeDegrees>
              <LongitudeDegrees>-4.9348982982337474822998046875</LongitudeDegrees>
            </Position>
            <AltitudeMeters>67.8000030517578125</AltitudeMeters>
            <DistanceMeters>NAN</DistanceMeters>
          </Trackpoint>
          <Trackpoint>
            <Time>2022-07-16T11:44:38.000Z</Time>
            <Position>
              <LatitudeDegrees>43.43684588558971881866455078125</LatitudeDegrees>
              <LongitudeDegrees>-4.93506166152656078338623046875</LongitudeDegrees>
            </Position>
            <AltitudeMeters>66.59999847412109375</AltitudeMeters>
            <DistanceMeters>NAN</DistanceMeters>
          </Trackpoint>
          <Trackpoint>
            <Time>2022-07-16T11:44:40.000Z</Time>
            <Position>
              <LatitudeDegrees>43.436945714056491851806640625</LatitudeDegrees>
              <LongitudeDegrees>-4.93522376753389835357666015625</LongitudeDegrees>
            </Position>
            <AltitudeMeters>65.8000030517578125</AltitudeMeters>
            <DistanceMeters>NAN</DistanceMeters>
          </Trackpoint>
          <Trackpoint>
            <Time>2022-07-16T11:44:41.000Z</Time>
            <Position>
              <LatitudeDegrees>43.43699189834296703338623046875</LatitudeDegrees>
              <LongitudeDegrees>-4.9353090114891529083251953125</LongitudeDegrees>
            </Position>
            <AltitudeMeters>65.40000152587890625</AltitudeMeters>
            <DistanceMeters>NAN</DistanceMeters>
          </Trackpoint>
          <Trackpoint>
            <Time>2022-07-16T11:44:42.000Z</Time>
            <Position>
              <LatitudeDegrees>43.43703950755298137664794921875</LatitudeDegrees>
              <LongitudeDegrees>-4.93539224378764629364013671875</LongitudeDegrees>
            </Position>
            <AltitudeMeters>65</AltitudeMeters>
            <DistanceMeters>NAN</DistanceMeters>
          </Trackpoint>
          <Trackpoint>
            <Time>2022-07-16T11:44:43.000Z</Time>
            <Position>
              <LatitudeDegrees>43.4370863623917102813720703125</LatitudeDegrees>
              <LongitudeDegrees>-4.93547388352453708648681640625</LongitudeDegrees>
            </Position>
            <AltitudeMeters>64.40000152587890625</AltitudeMeters>
            <DistanceMeters>NAN</DistanceMeters>
          </Trackpoint>
          <Trackpoint>
            <Time>2022-07-16T11:44:46.000Z</Time>
            <Position>
              <LatitudeDegrees>43.437213264405727386474609375</LatitudeDegrees>
              <LongitudeDegrees>-4.93568879552185535430908203125</LongitudeDegrees>
            </Position>
            <AltitudeMeters>63.200000762939453125</AltitudeMeters>
            <DistanceMeters>NAN</DistanceMeters>
          </Trackpoint>
          <Trackpoint>
            <Time>2022-07-16T11:44:49.000Z</Time>
            <Position>
              <LatitudeDegrees>43.43731627799570560455322265625</LatitudeDegrees>
              <LongitudeDegrees>-4.935865737497806549072265625</LongitudeDegrees>
            </Position>
            <AltitudeMeters>62</AltitudeMeters>
            <DistanceMeters>NAN</DistanceMeters>
          </Trackpoint>
          <Trackpoint>
            <Time>2022-07-16T11:44:51.000Z</Time>
            <Position>
              <LatitudeDegrees>43.43735902570188045501708984375</LatitudeDegrees>
              <LongitudeDegrees>-4.935923404991626739501953125</LongitudeDegrees>
            </Position>
            <AltitudeMeters>60.59999847412109375</AltitudeMeters>
            <DistanceMeters>NAN</DistanceMeters>
          </Trackpoint>
          <Trackpoint>
            <Time>2022-07-16T11:44:52.000Z</Time>
            <Position>
              <LatitudeDegrees>43.43737847171723842620849609375</LatitudeDegrees>
              <LongitudeDegrees>-4.935935474932193756103515625</LongitudeDegrees>
            </Position>
            <AltitudeMeters>60.200000762939453125</AltitudeMeters>
            <DistanceMeters>NAN</DistanceMeters>
          </Trackpoint>
          <Trackpoint>
            <Time>2022-07-16T11:44:58.000Z</Time>
            <Position>
              <LatitudeDegrees>43.43752347864210605621337890625</LatitudeDegrees>
              <LongitudeDegrees>-4.9359956569969654083251953125</LongitudeDegrees>
            </Position>
            <AltitudeMeters>60</AltitudeMeters>
            <DistanceMeters>NAN</DistanceMeters>
          </Trackpoint>
          <Trackpoint>
            <Time>2022-07-16T11:44:59.000Z</Time>
            <Position>
              <LatitudeDegrees>43.43755583278834819793701171875</LatitudeDegrees>
              <LongitudeDegrees>-4.93601133115589618682861328125</LongitudeDegrees>
            </Position>
            <AltitudeMeters>60.200000762939453125</AltitudeMeters>
            <DistanceMeters>NAN</DistanceMeters>
          </Trackpoint>
          <Trackpoint>
            <Time>2022-07-16T11:45:02.000Z</Time>
            <Position>
              <LatitudeDegrees>43.4376456029713153839111328125</LatitudeDegrees>
              <LongitudeDegrees>-4.9360415898263454437255859375</LongitudeDegrees>
            </Position>
            <AltitudeMeters>60.200000762939453125</AltitudeMeters>
            <DistanceMeters>NAN</DistanceMeters>
          </Trackpoint>
          <Trackpoint>
            <Time>2022-07-16T11:45:05.000Z</Time>
            <Position>
              <LatitudeDegrees>43.43768927268683910369873046875</LatitudeDegrees>
              <LongitudeDegrees>-4.93606455624103546142578125</LongitudeDegrees>
            </Position>
            <AltitudeMeters>60</AltitudeMeters>
            <DistanceMeters>NAN</DistanceMeters>
          </Trackpoint>
          <Trackpoint>
            <Time>2022-07-16T11:45:07.000Z</Time>
            <Position>
              <LatitudeDegrees>43.4377015940845012664794921875</LatitudeDegrees>
              <LongitudeDegrees>-4.93607553653419017791748046875</LongitudeDegrees>
            </Position>
            <AltitudeMeters>59.59999847412109375</AltitudeMeters>
            <DistanceMeters>NAN</DistanceMeters>
          </Trackpoint>
          <Trackpoint>
            <Time>2022-07-16T11:45:08.000Z</Time>
            <Position>
              <LatitudeDegrees>43.43770603649318218231201171875</LatitudeDegrees>
              <LongitudeDegrees>-4.936082996428012847900390625</LongitudeDegrees>
            </Position>
            <AltitudeMeters>59.40000152587890625</AltitudeMeters>
            <DistanceMeters>NAN</DistanceMeters>
          </Trackpoint>
          <Trackpoint>
            <Time>2022-07-16T11:45:10.000Z</Time>
            <Position>
              <LatitudeDegrees>43.4377116523683071136474609375</LatitudeDegrees>
              <LongitudeDegrees>-4.93612012825906276702880859375</LongitudeDegrees>
            </Position>
            <AltitudeMeters>59.40000152587890625</AltitudeMeters>
            <DistanceMeters>NAN</DistanceMeters>
          </Trackpoint>
          <Trackpoint>
            <Time>2022-07-16T11:45:15.000Z</Time>
            <Position>
              <LatitudeDegrees>43.43768508173525333404541015625</LatitudeDegrees>
              <LongitudeDegrees>-4.93629178963601589202880859375</LongitudeDegrees>
            </Position>
            <AltitudeMeters>59.40000152587890625</AltitudeMeters>
            <DistanceMeters>NAN</DistanceMeters>
          </Trackpoint>
          <Trackpoint>
            <Time>2022-07-16T11:45:16.000Z</Time>
            <Position>
              <LatitudeDegrees>43.43767737038433551788330078125</LatitudeDegrees>
              <LongitudeDegrees>-4.93633168749511241912841796875</LongitudeDegrees>
            </Position>
            <AltitudeMeters>59.200000762939453125</AltitudeMeters>
            <DistanceMeters>NAN</DistanceMeters>
          </Trackpoint>
          <Trackpoint>
            <Time>2022-07-16T11:45:20.000Z</Time>
            <Position>
              <LatitudeDegrees>43.43763277865946292877197265625</LatitudeDegrees>
              <LongitudeDegrees>-4.93651072494685649871826171875</LongitudeDegrees>
            </Position>
            <AltitudeMeters>59</AltitudeMeters>
            <DistanceMeters>NAN</DistanceMeters>
          </Trackpoint>
          <Trackpoint>
            <Time>2022-07-16T11:45:21.000Z</Time>
            <Position>
              <LatitudeDegrees>43.43762624077498912811279296875</LatitudeDegrees>
              <LongitudeDegrees>-4.93656369857490062713623046875</LongitudeDegrees>
            </Position>
            <AltitudeMeters>58.799999237060546875</AltitudeMeters>
            <DistanceMeters>NAN</DistanceMeters>
          </Trackpoint>
          <Trackpoint>
            <Time>2022-07-16T11:45:23.000Z</Time>
            <Position>
              <LatitudeDegrees>43.43760578893125057220458984375</LatitudeDegrees>
              <LongitudeDegrees>-4.9366769380867481231689453125</LongitudeDegrees>
            </Position>
            <AltitudeMeters>58.59999847412109375</AltitudeMeters>
            <DistanceMeters>NAN</DistanceMeters>
          </Trackpoint>
          <Trackpoint>
            <Time>2022-07-16T11:45:25.000Z</Time>
            <Position>
              <LatitudeDegrees>43.43759204261004924774169921875</LatitudeDegrees>
              <LongitudeDegrees>-4.93678514845669269561767578125</LongitudeDegrees>
            </Position>
            <AltitudeMeters>58.200000762939453125</AltitudeMeters>
            <DistanceMeters>NAN</DistanceMeters>
          </Trackpoint>
          <Trackpoint>
            <Time>2022-07-16T11:45:26.000Z</Time>
            <Position>
              <LatitudeDegrees>43.4375849179923534393310546875</LatitudeDegrees>
              <LongitudeDegrees>-4.9368227832019329071044921875</LongitudeDegrees>
            </Position>
            <AltitudeMeters>58</AltitudeMeters>
            <DistanceMeters>NAN</DistanceMeters>
          </Trackpoint>
          <Trackpoint>
            <Time>2022-07-16T11:45:28.000Z</Time>
            <Position>
              <LatitudeDegrees>43.43758307397365570068359375</LatitudeDegrees>
              <LongitudeDegrees>-4.93687349371612071990966796875</LongitudeDegrees>
            </Position>
            <AltitudeMeters>57.40000152587890625</AltitudeMeters>
            <DistanceMeters>NAN</DistanceMeters>
          </Trackpoint>
          <Trackpoint>
            <Time>2022-07-16T11:45:31.000Z</Time>
            <Position>
              <LatitudeDegrees>43.43759086914360523223876953125</LatitudeDegrees>
              <LongitudeDegrees>-4.93695077486336231231689453125</LongitudeDegrees>
            </Position>
            <AltitudeMeters>57.200000762939453125</AltitudeMeters>
            <DistanceMeters>NAN</DistanceMeters>
          </Trackpoint>
          <Trackpoint>
            <Time>2022-07-16T11:45:33.000Z</Time>
            <Position>
              <LatitudeDegrees>43.43759237788617610931396484375</LatitudeDegrees>
              <LongitudeDegrees>-4.93701648898422718048095703125</LongitudeDegrees>
            </Position>
            <AltitudeMeters>57</AltitudeMeters>
            <DistanceMeters>NAN</DistanceMeters>
          </Trackpoint>
          <Trackpoint>
            <Time>2022-07-16T11:45:36.000Z</Time>
            <Position>
              <LatitudeDegrees>43.437614925205707550048828125</LatitudeDegrees>
              <LongitudeDegrees>-4.93710969574749469757080078125</LongitudeDegrees>
            </Position>
            <AltitudeMeters>56.40000152587890625</AltitudeMeters>
            <DistanceMeters>NAN</DistanceMeters>
          </Trackpoint>
          <Trackpoint>
            <Time>2022-07-16T11:45:37.000Z</Time>
            <Position>
              <LatitudeDegrees>43.4376226365566253662109375</LatitudeDegrees>
              <LongitudeDegrees>-4.93713668547570705413818359375</LongitudeDegrees>
            </Position>
            <AltitudeMeters>56.40000152587890625</AltitudeMeters>
            <DistanceMeters>NAN</DistanceMeters>
          </Trackpoint>
          <Trackpoint>
            <Time>2022-07-16T11:45:39.000Z</Time>
            <Position>
              <LatitudeDegrees>43.43762540258467197418212890625</LatitudeDegrees>
              <LongitudeDegrees>-4.93718010373413562774658203125</LongitudeDegrees>
            </Position>
            <AltitudeMeters>56</AltitudeMeters>
            <DistanceMeters>NAN</DistanceMeters>
          </Trackpoint>
          <Trackpoint>
            <Time>2022-07-16T11:45:42.000Z</Time>
            <Position>
              <LatitudeDegrees>43.437637053430080413818359375</LatitudeDegrees>
              <LongitudeDegrees>-4.93723223917186260223388671875</LongitudeDegrees>
            </Position>
            <AltitudeMeters>55.59999847412109375</AltitudeMeters>
            <DistanceMeters>NAN</DistanceMeters>
          </Trackpoint>
          <Trackpoint>
            <Time>2022-07-16T11:45:45.000Z</Time>
            <Position>
              <LatitudeDegrees>43.43764342367649078369140625</LatitudeDegrees>
              <LongitudeDegrees>-4.937279261648654937744140625</LongitudeDegrees>
            </Position>
            <AltitudeMeters>55.40000152587890625</AltitudeMeters>
            <DistanceMeters>NAN</DistanceMeters>
          </Trackpoint>
          <Trackpoint>
            <Time>2022-07-16T11:45:46.000Z</Time>
            <Position>
              <LatitudeDegrees>43.43764367513358592987060546875</LatitudeDegrees>
              <LongitudeDegrees>-4.9372971989214420318603515625</LongitudeDegrees>
            </Position>
            <AltitudeMeters>55.200000762939453125</AltitudeMeters>
            <DistanceMeters>NAN</DistanceMeters>
          </Trackpoint>
          <Trackpoint>
            <Time>2022-07-16T11:45:48.000Z</Time>
            <Position>
              <LatitudeDegrees>43.43764870427548885345458984375</LatitudeDegrees>
              <LongitudeDegrees>-4.93733097799122333526611328125</LongitudeDegrees>
            </Position>
            <AltitudeMeters>55.200000762939453125</AltitudeMeters>
            <DistanceMeters>NAN</DistanceMeters>
          </Trackpoint>
          <Trackpoint>
            <Time>2022-07-16T11:45:51.000Z</Time>
            <Position>
              <LatitudeDegrees>43.43766488134860992431640625</LatitudeDegrees>
              <LongitudeDegrees>-4.937372468411922454833984375</LongitudeDegrees>
            </Position>
            <AltitudeMeters>54.799999237060546875</AltitudeMeters>
            <DistanceMeters>NAN</DistanceMeters>
          </Trackpoint>
          <Trackpoint>
            <Time>2022-07-16T11:45:53.000Z</Time>
            <Position>
              <LatitudeDegrees>43.43767250888049602508544921875</LatitudeDegrees>
              <LongitudeDegrees>-4.93739568628370761871337890625</LongitudeDegrees>
            </Position>
            <AltitudeMeters>54.59999847412109375</AltitudeMeters>
            <DistanceMeters>NAN</DistanceMeters>
          </Trackpoint>
          <Trackpoint>
            <Time>2022-07-16T11:45:55.000Z</Time>
            <Position>
              <LatitudeDegrees>43.4376784600317478179931640625</LatitudeDegrees>
              <LongitudeDegrees>-4.937412030994892120361328125</LongitudeDegrees>
            </Position>
            <AltitudeMeters>54.40000152587890625</AltitudeMeters>
            <DistanceMeters>NAN</DistanceMeters>
          </Trackpoint>
          <Trackpoint>
            <Time>2022-07-16T11:45:58.000Z</Time>
            <Position>
              <LatitudeDegrees>43.43768977560102939605712890625</LatitudeDegrees>
              <LongitudeDegrees>-4.93744530715048313140869140625</LongitudeDegrees>
            </Position>
            <AltitudeMeters>54.40000152587890625</AltitudeMeters>
            <DistanceMeters>NAN</DistanceMeters>
          </Trackpoint>
          <Trackpoint>
            <Time>2022-07-16T11:46:02.000Z</Time>
            <Position>
              <LatitudeDegrees>43.437699414789676666259765625</LatitudeDegrees>
              <LongitudeDegrees>-4.93745922110974788665771484375</LongitudeDegrees>
            </Position>
            <AltitudeMeters>54</AltitudeMeters>
            <DistanceMeters>NAN</DistanceMeters>
          </Trackpoint>
          <Trackpoint>
            <Time>2022-07-16T11:51:51.000Z</Time>
            <Position>
              <LatitudeDegrees>43.43792044557631015777587890625</LatitudeDegrees>
              <LongitudeDegrees>-4.9380004405975341796875</LongitudeDegrees>
            </Position>
            <AltitudeMeters>50.59999847412109375</AltitudeMeters>
            <DistanceMeters>NAN</DistanceMeters>
          </Trackpoint>
          <Trackpoint>
            <Time>2022-07-16T11:51:52.000Z</Time>
            <Position>
              <LatitudeDegrees>43.4379285760223865509033203125</LatitudeDegrees>
              <LongitudeDegrees>-4.93801795877516269683837890625</LongitudeDegrees>
            </Position>
            <AltitudeMeters>50.59999847412109375</AltitudeMeters>
            <DistanceMeters>NAN</DistanceMeters>
          </Trackpoint>
          <Trackpoint>
            <Time>2022-07-16T11:51:56.000Z</Time>
            <Position>
              <LatitudeDegrees>43.4379413165152072906494140625</LatitudeDegrees>
              <LongitudeDegrees>-4.938034974038600921630859375</LongitudeDegrees>
            </Position>
            <AltitudeMeters>50.40000152587890625</AltitudeMeters>
            <DistanceMeters>NAN</DistanceMeters>
          </Trackpoint>
          <Trackpoint>
            <Time>2022-07-16T11:54:58.000Z</Time>
            <Position>
              <LatitudeDegrees>43.437920697033405303955078125</LatitudeDegrees>
              <LongitudeDegrees>-4.93800781667232513427734375</LongitudeDegrees>
            </Position>
            <AltitudeMeters>49.799999237060546875</AltitudeMeters>
            <DistanceMeters>NAN</DistanceMeters>
          </Trackpoint>
          <Trackpoint>
            <Time>2022-07-16T11:55:04.000Z</Time>
            <Position>
              <LatitudeDegrees>43.43783293850719928741455078125</LatitudeDegrees>
              <LongitudeDegrees>-4.93798635900020599365234375</LongitudeDegrees>
            </Position>
            <AltitudeMeters>50.799999237060546875</AltitudeMeters>
            <DistanceMeters>NAN</DistanceMeters>
          </Trackpoint>
          <Trackpoint>
            <Time>2022-07-16T11:55:05.000Z</Time>
            <Position>
              <LatitudeDegrees>43.4378155879676342010498046875</LatitudeDegrees>
              <LongitudeDegrees>-4.93799298070371150970458984375</LongitudeDegrees>
            </Position>
            <AltitudeMeters>50.799999237060546875</AltitudeMeters>
            <DistanceMeters>NAN</DistanceMeters>
          </Trackpoint>
          <Trackpoint>
            <Time>2022-07-16T11:55:06.000Z</Time>
            <Position>
              <LatitudeDegrees>43.43780091963708400726318359375</LatitudeDegrees>
              <LongitudeDegrees>-4.938013851642608642578125</LongitudeDegrees>
            </Position>
            <AltitudeMeters>50.799999237060546875</AltitudeMeters>
            <DistanceMeters>NAN</DistanceMeters>
          </Trackpoint>
          <Trackpoint>
            <Time>2022-07-16T11:55:10.000Z</Time>
            <Position>
              <LatitudeDegrees>43.4377733431756496429443359375</LatitudeDegrees>
              <LongitudeDegrees>-4.938116110861301422119140625</LongitudeDegrees>
            </Position>
            <AltitudeMeters>50.799999237060546875</AltitudeMeters>
            <DistanceMeters>NAN</DistanceMeters>
          </Trackpoint>
          <Trackpoint>
            <Time>2022-07-16T11:55:15.000Z</Time>
            <Position>
              <LatitudeDegrees>43.4377740137279033660888671875</LatitudeDegrees>
              <LongitudeDegrees>-4.93821526877582073211669921875</LongitudeDegrees>
            </Position>
            <AltitudeMeters>50.59999847412109375</AltitudeMeters>
            <DistanceMeters>NAN</DistanceMeters>
          </Trackpoint>
          <Trackpoint>
            <Time>2022-07-16T11:55:16.000Z</Time>
            <Position>
              <LatitudeDegrees>43.437774516642093658447265625</LatitudeDegrees>
              <LongitudeDegrees>-4.938224740326404571533203125</LongitudeDegrees>
            </Position>
            <AltitudeMeters>50.40000152587890625</AltitudeMeters>
            <DistanceMeters>NAN</DistanceMeters>
          </Trackpoint>
          <Trackpoint>
            <Time>2022-07-16T11:55:18.000Z</Time>
            <Position>
              <LatitudeDegrees>43.43777954578399658203125</LatitudeDegrees>
              <LongitudeDegrees>-4.93825248442590236663818359375</LongitudeDegrees>
            </Position>
            <AltitudeMeters>50.40000152587890625</AltitudeMeters>
            <DistanceMeters>NAN</DistanceMeters>
          </Trackpoint>
          <Trackpoint>
            <Time>2022-07-16T11:55:21.000Z</Time>
            <Position>
              <LatitudeDegrees>43.4377921186387538909912109375</LatitudeDegrees>
              <LongitudeDegrees>-4.9382698349654674530029296875</LongitudeDegrees>
            </Position>
            <AltitudeMeters>50.200000762939453125</AltitudeMeters>
            <DistanceMeters>NAN</DistanceMeters>
          </Trackpoint>
          <Trackpoint>
            <Time>2022-07-16T11:55:23.000Z</Time>
            <Position>
              <LatitudeDegrees>43.4377921186387538909912109375</LatitudeDegrees>
              <LongitudeDegrees>-4.9382698349654674530029296875</LongitudeDegrees>
            </Position>
            <AltitudeMeters>50</AltitudeMeters>
            <DistanceMeters>NAN</DistanceMeters>
          </Trackpoint>
          <Trackpoint>
            <Time>2022-07-16T11:55:26.000Z</Time>
            <Position>
              <LatitudeDegrees>43.43781751580536365509033203125</LatitudeDegrees>
              <LongitudeDegrees>-4.938297159969806671142578125</LongitudeDegrees>
            </Position>
            <AltitudeMeters>50</AltitudeMeters>
            <DistanceMeters>NAN</DistanceMeters>
          </Trackpoint>
          <Trackpoint>
            <Time>2022-07-16T11:55:28.000Z</Time>
            <Position>
              <LatitudeDegrees>43.43783411197364330291748046875</LatitudeDegrees>
              <LongitudeDegrees>-4.93831694126129150390625</LongitudeDegrees>
            </Position>
            <AltitudeMeters>50</AltitudeMeters>
            <DistanceMeters>NAN</DistanceMeters>
          </Trackpoint>
          <Trackpoint>
            <Time>2022-07-16T11:55:30.000Z</Time>
            <Position>
              <LatitudeDegrees>43.43784919939935207366943359375</LatitudeDegrees>
              <LongitudeDegrees>-4.9383382312953472137451171875</LongitudeDegrees>
            </Position>
            <AltitudeMeters>50</AltitudeMeters>
            <DistanceMeters>NAN</DistanceMeters>
          </Trackpoint>
          <Trackpoint>
            <Time>2022-07-16T11:55:32.000Z</Time>
            <Position>
              <LatitudeDegrees>43.4378492832183837890625</LatitudeDegrees>
              <LongitudeDegrees>-4.93836664594709873199462890625</LongitudeDegrees>
            </Position>
            <AltitudeMeters>49.799999237060546875</AltitudeMeters>
            <DistanceMeters>NAN</DistanceMeters>
          </Trackpoint>
          <Trackpoint>
            <Time>2022-07-16T11:55:35.000Z</Time>
            <Position>
              <LatitudeDegrees>43.4378491155803203582763671875</LatitudeDegrees>
              <LongitudeDegrees>-4.93837234564125537872314453125</LongitudeDegrees>
            </Position>
            <AltitudeMeters>49.799999237060546875</AltitudeMeters>
            <DistanceMeters>NAN</DistanceMeters>
          </Trackpoint>
          <Trackpoint>
            <Time>2022-07-16T11:56:15.000Z</Time>
            <Position>
              <LatitudeDegrees>43.43782522715628147125244140625</LatitudeDegrees>
              <LongitudeDegrees>-4.938573427498340606689453125</LongitudeDegrees>
            </Position>
            <AltitudeMeters>49.799999237060546875</AltitudeMeters>
            <DistanceMeters>NAN</DistanceMeters>
          </Trackpoint>
          <Trackpoint>
            <Time>2022-07-16T11:56:16.000Z</Time>
            <Position>
              <LatitudeDegrees>43.43781240284442901611328125</LatitudeDegrees>
              <LongitudeDegrees>-4.93859463371336460113525390625</LongitudeDegrees>
            </Position>
            <AltitudeMeters>49.799999237060546875</AltitudeMeters>
            <DistanceMeters>NAN</DistanceMeters>
          </Trackpoint>
          <Trackpoint>
            <Time>2022-07-16T11:56:22.000Z</Time>
            <Position>
              <LatitudeDegrees>43.4377592615783214569091796875</LatitudeDegrees>
              <LongitudeDegrees>-4.9387248046696186065673828125</LongitudeDegrees>
            </Position>
            <AltitudeMeters>49.799999237060546875</AltitudeMeters>
            <DistanceMeters>NAN</DistanceMeters>
          </Trackpoint>
          <Trackpoint>
            <Time>2022-07-16T11:56:23.000Z</Time>
            <Position>
              <LatitudeDegrees>43.43775666318833827972412109375</LatitudeDegrees>
              <LongitudeDegrees>-4.93874567560851573944091796875</LongitudeDegrees>
            </Position>
            <AltitudeMeters>49.799999237060546875</AltitudeMeters>
            <DistanceMeters>NAN</DistanceMeters>
          </Trackpoint>
          <Trackpoint>
            <Time>2022-07-16T11:56:26.000Z</Time>
            <Position>
              <LatitudeDegrees>43.43773327767848968505859375</LatitudeDegrees>
              <LongitudeDegrees>-4.93880853988230228424072265625</LongitudeDegrees>
            </Position>
            <AltitudeMeters>49.799999237060546875</AltitudeMeters>
            <DistanceMeters>NAN</DistanceMeters>
          </Trackpoint>
          <Trackpoint>
            <Time>2022-07-16T11:56:30.000Z</Time>
            <Position>
              <LatitudeDegrees>43.4376844950020313262939453125</LatitudeDegrees>
              <LongitudeDegrees>-4.93890476413071155548095703125</LongitudeDegrees>
            </Position>
            <AltitudeMeters>50</AltitudeMeters>
            <DistanceMeters>NAN</DistanceMeters>
          </Trackpoint>
          <Trackpoint>
            <Time>2022-07-16T11:56:34.000Z</Time>
            <Position>
              <LatitudeDegrees>43.437653481960296630859375</LatitudeDegrees>
              <LongitudeDegrees>-4.93900568224489688873291015625</LongitudeDegrees>
            </Position>
            <AltitudeMeters>50.200000762939453125</AltitudeMeters>
            <DistanceMeters>NAN</DistanceMeters>
          </Trackpoint>
          <Trackpoint>
            <Time>2022-07-16T11:56:35.000Z</Time>
            <Position>
              <LatitudeDegrees>43.43764753080904483795166015625</LatitudeDegrees>
              <LongitudeDegrees>-4.93903577327728271484375</LongitudeDegrees>
            </Position>
            <AltitudeMeters>50.200000762939453125</AltitudeMeters>
            <DistanceMeters>NAN</DistanceMeters>
          </Trackpoint>
          <Trackpoint>
            <Time>2022-07-16T11:56:38.000Z</Time>
            <Position>
              <LatitudeDegrees>43.4376241452991962432861328125</LatitudeDegrees>
              <LongitudeDegrees>-4.93912638165056705474853515625</LongitudeDegrees>
            </Position>
            <AltitudeMeters>50.200000762939453125</AltitudeMeters>
            <DistanceMeters>NAN</DistanceMeters>
          </Trackpoint>
          <Trackpoint>
            <Time>2022-07-16T11:56:41.000Z</Time>
            <Position>
              <LatitudeDegrees>43.43758600763976573944091796875</LatitudeDegrees>
              <LongitudeDegrees>-4.9392270483076572418212890625</LongitudeDegrees>
            </Position>
            <AltitudeMeters>50.200000762939453125</AltitudeMeters>
            <DistanceMeters>NAN</DistanceMeters>
          </Trackpoint>
          <Trackpoint>
            <Time>2022-07-16T11:56:42.000Z</Time>
            <Position>
              <LatitudeDegrees>43.437579385936260223388671875</LatitudeDegrees>
              <LongitudeDegrees>-4.9392662756145000457763671875</LongitudeDegrees>
            </Position>
            <AltitudeMeters>50.40000152587890625</AltitudeMeters>
            <DistanceMeters>NAN</DistanceMeters>
          </Trackpoint>
          <Trackpoint>
            <Time>2022-07-16T11:56:48.000Z</Time>
            <Position>
              <LatitudeDegrees>43.43757678754627704620361328125</LatitudeDegrees>
              <LongitudeDegrees>-4.9394711293280124664306640625</LongitudeDegrees>
            </Position>
            <AltitudeMeters>50.40000152587890625</AltitudeMeters>
            <DistanceMeters>NAN</DistanceMeters>
          </Trackpoint>
          <Trackpoint>
            <Time>2022-07-16T11:56:49.000Z</Time>
            <Position>
              <LatitudeDegrees>43.437583409249782562255859375</LatitudeDegrees>
              <LongitudeDegrees>-4.9395056627690792083740234375</LongitudeDegrees>
            </Position>
            <AltitudeMeters>50.40000152587890625</AltitudeMeters>
            <DistanceMeters>NAN</DistanceMeters>
          </Trackpoint>
          <Trackpoint>
            <Time>2022-07-16T11:56:50.000Z</Time>
            <Position>
              <LatitudeDegrees>43.437594808638095855712890625</LatitudeDegrees>
              <LongitudeDegrees>-4.93953173048794269561767578125</LongitudeDegrees>
            </Position>
            <AltitudeMeters>50.40000152587890625</AltitudeMeters>
            <DistanceMeters>NAN</DistanceMeters>
          </Trackpoint>
          <Trackpoint>
            <Time>2022-07-16T11:56:53.000Z</Time>
            <Position>
              <LatitudeDegrees>43.43763177283108234405517578125</LatitudeDegrees>
              <LongitudeDegrees>-4.93959694169461727142333984375</LongitudeDegrees>
            </Position>
            <AltitudeMeters>50.200000762939453125</AltitudeMeters>
            <DistanceMeters>NAN</DistanceMeters>
          </Trackpoint>
          <Trackpoint>
            <Time>2022-07-16T11:56:58.000Z</Time>
            <Position>
              <LatitudeDegrees>43.43762540258467197418212890625</LatitudeDegrees>
              <LongitudeDegrees>-4.93973289616405963897705078125</LongitudeDegrees>
            </Position>
            <AltitudeMeters>50.200000762939453125</AltitudeMeters>
            <DistanceMeters>NAN</DistanceMeters>
          </Trackpoint>
          <Trackpoint>
            <Time>2022-07-16T11:57:03.000Z</Time>
            <Position>
              <LatitudeDegrees>43.43762171454727649688720703125</LatitudeDegrees>
              <LongitudeDegrees>-4.93976868689060211181640625</LongitudeDegrees>
            </Position>
            <AltitudeMeters>50.200000762939453125</AltitudeMeters>
            <DistanceMeters>NAN</DistanceMeters>
          </Trackpoint>
          <Trackpoint>
            <Time>2022-07-16T11:58:18.000Z</Time>
            <Position>
              <LatitudeDegrees>43.437686674296855926513671875</LatitudeDegrees>
              <LongitudeDegrees>-4.93997924029827117919921875</LongitudeDegrees>
            </Position>
            <AltitudeMeters>50.40000152587890625</AltitudeMeters>
            <DistanceMeters>NAN</DistanceMeters>
          </Trackpoint>
          <Trackpoint>
            <Time>2022-07-16T11:58:21.000Z</Time>
            <Position>
              <LatitudeDegrees>43.4377029351890087127685546875</LatitudeDegrees>
              <LongitudeDegrees>-4.93999390862882137298583984375</LongitudeDegrees>
            </Position>
            <AltitudeMeters>50.59999847412109375</AltitudeMeters>
            <DistanceMeters>NAN</DistanceMeters>
          </Trackpoint>
          <Trackpoint>
            <Time>2022-07-16T11:58:26.000Z</Time>
            <Position>
              <LatitudeDegrees>43.43754745088517665863037109375</LatitudeDegrees>
              <LongitudeDegrees>-4.94011041708290576934814453125</LongitudeDegrees>
            </Position>
            <AltitudeMeters>50.200000762939453125</AltitudeMeters>
            <DistanceMeters>NAN</DistanceMeters>
          </Trackpoint>
          <Trackpoint>
            <Time>2022-07-16T11:58:29.000Z</Time>
            <Position>
              <LatitudeDegrees>43.4374373964965343475341796875</LatitudeDegrees>
              <LongitudeDegrees>-4.93999508209526538848876953125</LongitudeDegrees>
            </Position>
            <AltitudeMeters>49.799999237060546875</AltitudeMeters>
            <DistanceMeters>NAN</DistanceMeters>
          </Trackpoint>
          <Trackpoint>
            <Time>2022-07-16T11:58:30.000Z</Time>
            <Position>
              <LatitudeDegrees>43.43737059272825717926025390625</LatitudeDegrees>
              <LongitudeDegrees>-4.94006951339542865753173828125</LongitudeDegrees>
            </Position>
            <AltitudeMeters>49.59999847412109375</AltitudeMeters>
            <DistanceMeters>NAN</DistanceMeters>
          </Trackpoint>
          <Trackpoint>
            <Time>2022-07-16T11:58:36.000Z</Time>
            <Position>
              <LatitudeDegrees>43.43743848614394664764404296875</LatitudeDegrees>
              <LongitudeDegrees>-4.9401299469172954559326171875</LongitudeDegrees>
            </Position>
            <AltitudeMeters>50</AltitudeMeters>
            <DistanceMeters>NAN</DistanceMeters>
          </Trackpoint>
          <Trackpoint>
            <Time>2022-07-16T11:58:37.000Z</Time>
            <Position>
              <LatitudeDegrees>43.437369503080844879150390625</LatitudeDegrees>
              <LongitudeDegrees>-4.94007554836571216583251953125</LongitudeDegrees>
            </Position>
            <AltitudeMeters>50</AltitudeMeters>
            <DistanceMeters>NAN</DistanceMeters>
          </Trackpoint>
          <Trackpoint>
            <Time>2022-07-16T11:58:38.000Z</Time>
            <Position>
              <LatitudeDegrees>43.43737092800438404083251953125</LatitudeDegrees>
              <LongitudeDegrees>-4.940006397664546966552734375</LongitudeDegrees>
            </Position>
            <AltitudeMeters>50.200000762939453125</AltitudeMeters>
            <DistanceMeters>NAN</DistanceMeters>
          </Trackpoint>
          <Trackpoint>
            <Time>2022-07-16T11:58:41.000Z</Time>
            <Position>
              <LatitudeDegrees>43.43739959411323070526123046875</LatitudeDegrees>
              <LongitudeDegrees>-4.93979676626622676849365234375</LongitudeDegrees>
            </Position>
            <AltitudeMeters>50.40000152587890625</AltitudeMeters>
            <DistanceMeters>NAN</DistanceMeters>
          </Trackpoint>
          <Trackpoint>
            <Time>2022-07-16T11:58:47.000Z</Time>
            <Position>
              <LatitudeDegrees>43.437488861382007598876953125</LatitudeDegrees>
              <LongitudeDegrees>-4.9395287968218326568603515625</LongitudeDegrees>
            </Position>
            <AltitudeMeters>50.40000152587890625</AltitudeMeters>
            <DistanceMeters>NAN</DistanceMeters>
          </Trackpoint>
          <Trackpoint>
            <Time>2022-07-16T11:58:48.000Z</Time>
            <Position>
              <LatitudeDegrees>43.43748894520103931427001953125</LatitudeDegrees>
              <LongitudeDegrees>-4.9395655095577239990234375</LongitudeDegrees>
            </Position>
            <AltitudeMeters>50.40000152587890625</AltitudeMeters>
            <DistanceMeters>NAN</DistanceMeters>
          </Trackpoint>
          <Trackpoint>
            <Time>2022-07-16T11:58:49.000Z</Time>
            <Position>
              <LatitudeDegrees>43.43750151805579662322998046875</LatitudeDegrees>
              <LongitudeDegrees>-4.939618147909641265869140625</LongitudeDegrees>
            </Position>
            <AltitudeMeters>50.40000152587890625</AltitudeMeters>
            <DistanceMeters>NAN</DistanceMeters>
          </Trackpoint>
          <Trackpoint>
            <Time>2022-07-16T11:58:54.000Z</Time>
            <Position>
              <LatitudeDegrees>43.43752984888851642608642578125</LatitudeDegrees>
              <LongitudeDegrees>-4.9397747218608856201171875</LongitudeDegrees>
            </Position>
            <AltitudeMeters>50.40000152587890625</AltitudeMeters>
            <DistanceMeters>NAN</DistanceMeters>
          </Trackpoint>
          <Trackpoint>
            <Time>2022-07-16T11:59:00.000Z</Time>
            <Position>
              <LatitudeDegrees>43.4376865066587924957275390625</LatitudeDegrees>
              <LongitudeDegrees>-4.93997077457606792449951171875</LongitudeDegrees>
            </Position>
            <AltitudeMeters>50.40000152587890625</AltitudeMeters>
            <DistanceMeters>NAN</DistanceMeters>
          </Trackpoint>
          <Trackpoint>
            <Time>2022-07-16T11:59:03.000Z</Time>
            <Position>
              <LatitudeDegrees>43.43768692575395107269287109375</LatitudeDegrees>
              <LongitudeDegrees>-4.9400296993553638458251953125</LongitudeDegrees>
            </Position>
            <AltitudeMeters>50.40000152587890625</AltitudeMeters>
            <DistanceMeters>NAN</DistanceMeters>
          </Trackpoint>
          <Trackpoint>
            <Time>2022-07-16T11:59:05.000Z</Time>
            <Position>
              <LatitudeDegrees>43.4376784600317478179931640625</LatitudeDegrees>
              <LongitudeDegrees>-4.939974881708621978759765625</LongitudeDegrees>
            </Position>
            <AltitudeMeters>50.40000152587890625</AltitudeMeters>
            <DistanceMeters>NAN</DistanceMeters>
          </Trackpoint>
          <Trackpoint>
            <Time>2022-07-16T11:59:08.000Z</Time>
            <Position>
              <LatitudeDegrees>43.43771525658667087554931640625</LatitudeDegrees>
              <LongitudeDegrees>-4.9399468861520290374755859375</LongitudeDegrees>
            </Position>
            <AltitudeMeters>50.200000762939453125</AltitudeMeters>
            <DistanceMeters>NAN</DistanceMeters>
          </Trackpoint>
          <Trackpoint>
            <Time>2022-07-16T11:59:10.000Z</Time>
            <Position>
              <LatitudeDegrees>43.43773503787815570831298828125</LatitudeDegrees>
              <LongitudeDegrees>-4.939994327723979949951171875</LongitudeDegrees>
            </Position>
            <AltitudeMeters>50.200000762939453125</AltitudeMeters>
            <DistanceMeters>NAN</DistanceMeters>
          </Trackpoint>
          <Trackpoint>
            <Time>2022-07-16T11:59:11.000Z</Time>
            <Position>
              <LatitudeDegrees>43.4377455152571201324462890625</LatitudeDegrees>
              <LongitudeDegrees>-4.94001871906220912933349609375</LongitudeDegrees>
            </Position>
            <AltitudeMeters>50.200000762939453125</AltitudeMeters>
            <DistanceMeters>NAN</DistanceMeters>
          </Trackpoint>
          <Trackpoint>
            <Time>2022-07-16T11:59:41.000Z</Time>
            <Position>
              <LatitudeDegrees>43.437612913548946380615234375</LatitudeDegrees>
              <LongitudeDegrees>-4.9398664198815822601318359375</LongitudeDegrees>
            </Position>
            <AltitudeMeters>50.40000152587890625</AltitudeMeters>
            <DistanceMeters>NAN</DistanceMeters>
          </Trackpoint>
          <Trackpoint>
            <Time>2022-07-16T11:59:42.000Z</Time>
            <Position>
              <LatitudeDegrees>43.4376020170748233795166015625</LatitudeDegrees>
              <LongitudeDegrees>-4.93990405462682247161865234375</LongitudeDegrees>
            </Position>
            <AltitudeMeters>50.40000152587890625</AltitudeMeters>
            <DistanceMeters>NAN</DistanceMeters>
          </Trackpoint>
          <Trackpoint>
            <Time>2022-07-16T11:59:44.000Z</Time>
            <Position>
              <LatitudeDegrees>43.43756857328116893768310546875</LatitudeDegrees>
              <LongitudeDegrees>-4.94001209735870361328125</LongitudeDegrees>
            </Position>
            <AltitudeMeters>50.200000762939453125</AltitudeMeters>
            <DistanceMeters>NAN</DistanceMeters>
          </Trackpoint>
          <Trackpoint>
            <Time>2022-07-16T11:59:47.000Z</Time>
            <Position>
              <LatitudeDegrees>43.43764401040971279144287109375</LatitudeDegrees>
              <LongitudeDegrees>-4.94023765437304973602294921875</LongitudeDegrees>
            </Position>
            <AltitudeMeters>50.200000762939453125</AltitudeMeters>
            <DistanceMeters>NAN</DistanceMeters>
          </Trackpoint>
          <Trackpoint>
            <Time>2022-07-16T11:59:48.000Z</Time>
            <Position>
              <LatitudeDegrees>43.43765390105545520782470703125</LatitudeDegrees>
              <LongitudeDegrees>-4.9402275122702121734619140625</LongitudeDegrees>
            </Position>
            <AltitudeMeters>50.200000762939453125</AltitudeMeters>
            <DistanceMeters>NAN</DistanceMeters>
          </Trackpoint>
          <Trackpoint>
            <Time>2022-07-16T11:59:50.000Z</Time>
            <Position>
              <LatitudeDegrees>43.43766781501471996307373046875</LatitudeDegrees>
              <LongitudeDegrees>-4.9401983432471752166748046875</LongitudeDegrees>
            </Position>
            <AltitudeMeters>50.200000762939453125</AltitudeMeters>
            <DistanceMeters>NAN</DistanceMeters>
          </Trackpoint>
          <Trackpoint>
            <Time>2022-07-16T11:59:53.000Z</Time>
            <Position>
              <LatitudeDegrees>43.43763931654393672943115234375</LatitudeDegrees>
              <LongitudeDegrees>-4.94015048258006572723388671875</LongitudeDegrees>
            </Position>
            <AltitudeMeters>50.200000762939453125</AltitudeMeters>
            <DistanceMeters>NAN</DistanceMeters>
          </Trackpoint>
          <Trackpoint>
            <Time>2022-07-16T11:59:55.000Z</Time>
            <Position>
              <LatitudeDegrees>43.43763537704944610595703125</LatitudeDegrees>
              <LongitudeDegrees>-4.94014947675168514251708984375</LongitudeDegrees>
            </Position>
            <AltitudeMeters>50.40000152587890625</AltitudeMeters>
            <DistanceMeters>NAN</DistanceMeters>
          </Trackpoint>
          <Trackpoint>
            <Time>2022-07-16T11:59:59.000Z</Time>
            <Position>
              <LatitudeDegrees>43.437651805579662322998046875</LatitudeDegrees>
              <LongitudeDegrees>-4.940043278038501739501953125</LongitudeDegrees>
            </Position>
            <AltitudeMeters>50.40000152587890625</AltitudeMeters>
            <DistanceMeters>NAN</DistanceMeters>
          </Trackpoint>
          <Trackpoint>
            <Time>2022-07-16T12:00:06.000Z</Time>
            <Position>
              <LatitudeDegrees>43.437671922147274017333984375</LatitudeDegrees>
              <LongitudeDegrees>-4.93986030109226703643798828125</LongitudeDegrees>
            </Position>
            <AltitudeMeters>50.200000762939453125</AltitudeMeters>
            <DistanceMeters>NAN</DistanceMeters>
          </Trackpoint>
          <Trackpoint>
            <Time>2022-07-16T12:00:07.000Z</Time>
            <Position>
              <LatitudeDegrees>43.43766949139535427093505859375</LatitudeDegrees>
              <LongitudeDegrees>-4.93985812179744243621826171875</LongitudeDegrees>
            </Position>
            <AltitudeMeters>50.40000152587890625</AltitudeMeters>
            <DistanceMeters>NAN</DistanceMeters>
          </Trackpoint>
          <Trackpoint>
            <Time>2022-07-16T12:00:10.000Z</Time>
            <Position>
              <LatitudeDegrees>43.43766949139535427093505859375</LatitudeDegrees>
              <LongitudeDegrees>-4.93985812179744243621826171875</LongitudeDegrees>
            </Position>
            <AltitudeMeters>50.40000152587890625</AltitudeMeters>
            <DistanceMeters>NAN</DistanceMeters>
          </Trackpoint>
          <Trackpoint>
            <Time>2022-07-16T12:00:22.000Z</Time>
            <Position>
              <LatitudeDegrees>43.4377310983836650848388671875</LatitudeDegrees>
              <LongitudeDegrees>-4.9398390948772430419921875</LongitudeDegrees>
            </Position>
            <AltitudeMeters>50.59999847412109375</AltitudeMeters>
            <DistanceMeters>NAN</DistanceMeters>
          </Trackpoint>
          <Trackpoint>
            <Time>2022-07-16T12:00:23.000Z</Time>
            <Position>
              <LatitudeDegrees>43.43775012530386447906494140625</LatitudeDegrees>
              <LongitudeDegrees>-4.93987203575670719146728515625</LongitudeDegrees>
            </Position>
            <AltitudeMeters>50.59999847412109375</AltitudeMeters>
            <DistanceMeters>NAN</DistanceMeters>
          </Trackpoint>
          <Trackpoint>
            <Time>2022-07-16T12:00:29.000Z</Time>
            <Position>
              <LatitudeDegrees>43.437798321247100830078125</LatitudeDegrees>
              <LongitudeDegrees>-4.9401239119470119476318359375</LongitudeDegrees>
            </Position>
            <AltitudeMeters>51</AltitudeMeters>
            <DistanceMeters>NAN</DistanceMeters>
          </Trackpoint>
          <Trackpoint>
            <Time>2022-07-16T12:00:33.000Z</Time>
            <Position>
              <LatitudeDegrees>43.43786780722439289093017578125</LatitudeDegrees>
              <LongitudeDegrees>-4.94030940346419811248779296875</LongitudeDegrees>
            </Position>
            <AltitudeMeters>51.200000762939453125</AltitudeMeters>
            <DistanceMeters>NAN</DistanceMeters>
          </Trackpoint>
          <Trackpoint>
            <Time>2022-07-16T12:00:37.000Z</Time>
            <Position>
              <LatitudeDegrees>43.4379310905933380126953125</LatitudeDegrees>
              <LongitudeDegrees>-4.94048257358372211456298828125</LongitudeDegrees>
            </Position>
            <AltitudeMeters>51.200000762939453125</AltitudeMeters>
            <DistanceMeters>NAN</DistanceMeters>
          </Trackpoint>
          <Trackpoint>
            <Time>2022-07-16T12:00:40.000Z</Time>
            <Position>
              <LatitudeDegrees>43.43798599205911159515380859375</LatitudeDegrees>
              <LongitudeDegrees>-4.94060578756034374237060546875</LongitudeDegrees>
            </Position>
            <AltitudeMeters>51</AltitudeMeters>
            <DistanceMeters>NAN</DistanceMeters>
          </Trackpoint>
          <Trackpoint>
            <Time>2022-07-16T12:00:42.000Z</Time>
            <Position>
              <LatitudeDegrees>43.43802387826144695281982421875</LatitudeDegrees>
              <LongitudeDegrees>-4.94070502929389476776123046875</LongitudeDegrees>
            </Position>
            <AltitudeMeters>50.799999237060546875</AltitudeMeters>
            <DistanceMeters>NAN</DistanceMeters>
          </Trackpoint>
          <Trackpoint>
            <Time>2022-07-16T12:00:50.000Z</Time>
            <Position>
              <LatitudeDegrees>43.438131250441074371337890625</LatitudeDegrees>
              <LongitudeDegrees>-4.941151030361652374267578125</LongitudeDegrees>
            </Position>
            <AltitudeMeters>50.200000762939453125</AltitudeMeters>
            <DistanceMeters>NAN</DistanceMeters>
          </Trackpoint>
          <Trackpoint>
            <Time>2022-07-16T12:00:55.000Z</Time>
            <Position>
              <LatitudeDegrees>43.438192270696163177490234375</LatitudeDegrees>
              <LongitudeDegrees>-4.94143190793693065643310546875</LongitudeDegrees>
            </Position>
            <AltitudeMeters>49.799999237060546875</AltitudeMeters>
            <DistanceMeters>NAN</DistanceMeters>
          </Trackpoint>
          <Trackpoint>
            <Time>2022-07-16T12:00:58.000Z</Time>
            <Position>
              <LatitudeDegrees>43.4382326714694499969482421875</LatitudeDegrees>
              <LongitudeDegrees>-4.94158722460269927978515625</LongitudeDegrees>
            </Position>
            <AltitudeMeters>49.59999847412109375</AltitudeMeters>
            <DistanceMeters>NAN</DistanceMeters>
          </Trackpoint>
          <Trackpoint>
            <Time>2022-07-16T12:00:59.000Z</Time>
            <Position>
              <LatitudeDegrees>43.43824096955358982086181640625</LatitudeDegrees>
              <LongitudeDegrees>-4.94163843803107738494873046875</LongitudeDegrees>
            </Position>
            <AltitudeMeters>49.59999847412109375</AltitudeMeters>
            <DistanceMeters>NAN</DistanceMeters>
          </Trackpoint>
          <Trackpoint>
            <Time>2022-07-16T12:01:00.000Z</Time>
            <Position>
              <LatitudeDegrees>43.43824666924774646759033203125</LatitudeDegrees>
              <LongitudeDegrees>-4.94169275276362895965576171875</LongitudeDegrees>
            </Position>
            <AltitudeMeters>49.40000152587890625</AltitudeMeters>
            <DistanceMeters>NAN</DistanceMeters>
          </Trackpoint>
          <Trackpoint>
            <Time>2022-07-16T12:01:04.000Z</Time>
            <Position>
              <LatitudeDegrees>43.43829788267612457275390625</LatitudeDegrees>
              <LongitudeDegrees>-4.94187581352889537811279296875</LongitudeDegrees>
            </Position>
            <AltitudeMeters>49.59999847412109375</AltitudeMeters>
            <DistanceMeters>NAN</DistanceMeters>
          </Trackpoint>
          <Trackpoint>
            <Time>2022-07-16T12:01:08.000Z</Time>
            <Position>
              <LatitudeDegrees>43.438431657850742340087890625</LatitudeDegrees>
              <LongitudeDegrees>-4.94185678660869598388671875</LongitudeDegrees>
            </Position>
            <AltitudeMeters>49.59999847412109375</AltitudeMeters>
            <DistanceMeters>NAN</DistanceMeters>
          </Trackpoint>
          <Trackpoint>
            <Time>2022-07-16T12:01:12.000Z</Time>
            <Position>
              <LatitudeDegrees>43.438582532107830047607421875</LatitudeDegrees>
              <LongitudeDegrees>-4.9417805112898349761962890625</LongitudeDegrees>
            </Position>
            <AltitudeMeters>49.200000762939453125</AltitudeMeters>
            <DistanceMeters>NAN</DistanceMeters>
          </Trackpoint>
          <Trackpoint>
            <Time>2022-07-16T12:01:14.000Z</Time>
            <Position>
              <LatitudeDegrees>43.43865553848445415496826171875</LatitudeDegrees>
              <LongitudeDegrees>-4.94175729341804981231689453125</LongitudeDegrees>
            </Position>
            <AltitudeMeters>48.799999237060546875</AltitudeMeters>
            <DistanceMeters>NAN</DistanceMeters>
          </Trackpoint>
          <Trackpoint>
            <Time>2022-07-16T12:01:15.000Z</Time>
            <Position>
              <LatitudeDegrees>43.43869091011583805084228515625</LatitudeDegrees>
              <LongitudeDegrees>-4.941742457449436187744140625</LongitudeDegrees>
            </Position>
            <AltitudeMeters>48.799999237060546875</AltitudeMeters>
            <DistanceMeters>NAN</DistanceMeters>
          </Trackpoint>
          <Trackpoint>
            <Time>2022-07-16T12:01:20.000Z</Time>
            <Position>
              <LatitudeDegrees>43.4388914890587329864501953125</LatitudeDegrees>
              <LongitudeDegrees>-4.941686131060123443603515625</LongitudeDegrees>
            </Position>
            <AltitudeMeters>48.799999237060546875</AltitudeMeters>
            <DistanceMeters>NAN</DistanceMeters>
          </Trackpoint>
          <Trackpoint>
            <Time>2022-07-16T12:01:26.000Z</Time>
            <Position>
              <LatitudeDegrees>43.4391568601131439208984375</LatitudeDegrees>
              <LongitudeDegrees>-4.9416293017566204071044921875</LongitudeDegrees>
            </Position>
            <AltitudeMeters>48.40000152587890625</AltitudeMeters>
            <DistanceMeters>NAN</DistanceMeters>
          </Trackpoint>
          <Trackpoint>
            <Time>2022-07-16T12:01:30.000Z</Time>
            <Position>
              <LatitudeDegrees>43.4393464587628841400146484375</LatitudeDegrees>
              <LongitudeDegrees>-4.941613040864467620849609375</LongitudeDegrees>
            </Position>
            <AltitudeMeters>47.799999237060546875</AltitudeMeters>
            <DistanceMeters>NAN</DistanceMeters>
          </Trackpoint>
          <Trackpoint>
            <Time>2022-07-16T12:01:31.000Z</Time>
            <Position>
              <LatitudeDegrees>43.43939582817256450653076171875</LatitudeDegrees>
              <LongitudeDegrees>-4.94161136448383331298828125</LongitudeDegrees>
            </Position>
            <AltitudeMeters>47.59999847412109375</AltitudeMeters>
            <DistanceMeters>NAN</DistanceMeters>
          </Trackpoint>
          <Trackpoint>
            <Time>2022-07-16T12:01:33.000Z</Time>
            <Position>
              <LatitudeDegrees>43.439497835934162139892578125</LatitudeDegrees>
              <LongitudeDegrees>-4.94158630259335041046142578125</LongitudeDegrees>
            </Position>
            <AltitudeMeters>47.200000762939453125</AltitudeMeters>
            <DistanceMeters>NAN</DistanceMeters>
          </Trackpoint>
          <Trackpoint>
            <Time>2022-07-16T12:01:36.000Z</Time>
            <Position>
              <LatitudeDegrees>43.43965516425669193267822265625</LatitudeDegrees>
              <LongitudeDegrees>-4.9415262043476104736328125</LongitudeDegrees>
            </Position>
            <AltitudeMeters>46.59999847412109375</AltitudeMeters>
            <DistanceMeters>NAN</DistanceMeters>
          </Trackpoint>
          <Trackpoint>
            <Time>2022-07-16T12:01:41.000Z</Time>
            <Position>
              <LatitudeDegrees>43.43990377150475978851318359375</LatitudeDegrees>
              <LongitudeDegrees>-4.9413758330047130584716796875</LongitudeDegrees>
            </Position>
            <AltitudeMeters>46.200000762939453125</AltitudeMeters>
            <DistanceMeters>NAN</DistanceMeters>
          </Trackpoint>
          <Trackpoint>
            <Time>2022-07-16T12:01:44.000Z</Time>
            <Position>
              <LatitudeDegrees>43.4400629438459873199462890625</LatitudeDegrees>
              <LongitudeDegrees>-4.941275753080844879150390625</LongitudeDegrees>
            </Position>
            <AltitudeMeters>46</AltitudeMeters>
            <DistanceMeters>NAN</DistanceMeters>
          </Trackpoint>
          <Trackpoint>
            <Time>2022-07-16T12:01:48.000Z</Time>
            <Position>
              <LatitudeDegrees>43.44027441926300525665283203125</LatitudeDegrees>
              <LongitudeDegrees>-4.941120184957981109619140625</LongitudeDegrees>
            </Position>
            <AltitudeMeters>45.200000762939453125</AltitudeMeters>
            <DistanceMeters>NAN</DistanceMeters>
          </Trackpoint>
          <Trackpoint>
            <Time>2022-07-16T12:01:50.000Z</Time>
            <Position>
              <LatitudeDegrees>43.44038137234747409820556640625</LatitudeDegrees>
              <LongitudeDegrees>-4.94104541838169097900390625</LongitudeDegrees>
            </Position>
            <AltitudeMeters>44.799999237060546875</AltitudeMeters>
            <DistanceMeters>NAN</DistanceMeters>
          </Trackpoint>
          <Trackpoint>
            <Time>2022-07-16T12:01:58.000Z</Time>
            <Position>
              <LatitudeDegrees>43.44084606505930423736572265625</LatitudeDegrees>
              <LongitudeDegrees>-4.9407736770808696746826171875</LongitudeDegrees>
            </Position>
            <AltitudeMeters>44.200000762939453125</AltitudeMeters>
            <DistanceMeters>NAN</DistanceMeters>
          </Trackpoint>
          <Trackpoint>
            <Time>2022-07-16T12:01:59.000Z</Time>
            <Position>
              <LatitudeDegrees>43.440905325114727020263671875</LatitudeDegrees>
              <LongitudeDegrees>-4.94074232876300811767578125</LongitudeDegrees>
            </Position>
            <AltitudeMeters>44</AltitudeMeters>
            <DistanceMeters>NAN</DistanceMeters>
          </Trackpoint>
          <Trackpoint>
            <Time>2022-07-16T12:02:03.000Z</Time>
            <Position>
              <LatitudeDegrees>43.44112937338650226593017578125</LatitudeDegrees>
              <LongitudeDegrees>-4.940611235797405242919921875</LongitudeDegrees>
            </Position>
            <AltitudeMeters>43.40000152587890625</AltitudeMeters>
            <DistanceMeters>NAN</DistanceMeters>
          </Trackpoint>
          <Trackpoint>
            <Time>2022-07-16T12:02:06.000Z</Time>
            <Position>
              <LatitudeDegrees>43.44130757264792919158935546875</LatitudeDegrees>
              <LongitudeDegrees>-4.940503947436809539794921875</LongitudeDegrees>
            </Position>
            <AltitudeMeters>43</AltitudeMeters>
            <DistanceMeters>NAN</DistanceMeters>
          </Trackpoint>
          <Trackpoint>
            <Time>2022-07-16T12:02:13.000Z</Time>
            <Position>
              <LatitudeDegrees>43.441696576774120330810546875</LatitudeDegrees>
              <LongitudeDegrees>-4.94026598520576953887939453125</LongitudeDegrees>
            </Position>
            <AltitudeMeters>42</AltitudeMeters>
            <DistanceMeters>NAN</DistanceMeters>
          </Trackpoint>
          <Trackpoint>
            <Time>2022-07-16T12:02:18.000Z</Time>
            <Position>
              <LatitudeDegrees>43.441972844302654266357421875</LatitudeDegrees>
              <LongitudeDegrees>-4.9400803260505199432373046875</LongitudeDegrees>
            </Position>
            <AltitudeMeters>41.40000152587890625</AltitudeMeters>
            <DistanceMeters>NAN</DistanceMeters>
          </Trackpoint>
          <Trackpoint>
            <Time>2022-07-16T12:02:23.000Z</Time>
            <Position>
              <LatitudeDegrees>43.4422494471073150634765625</LatitudeDegrees>
              <LongitudeDegrees>-4.93990858085453510284423828125</LongitudeDegrees>
            </Position>
            <AltitudeMeters>40.59999847412109375</AltitudeMeters>
            <DistanceMeters>NAN</DistanceMeters>
          </Trackpoint>
          <Trackpoint>
            <Time>2022-07-16T12:02:25.000Z</Time>
            <Position>
              <LatitudeDegrees>43.44235849566757678985595703125</LatitudeDegrees>
              <LongitudeDegrees>-4.939844794571399688720703125</LongitudeDegrees>
            </Position>
            <AltitudeMeters>40.40000152587890625</AltitudeMeters>
            <DistanceMeters>NAN</DistanceMeters>
          </Trackpoint>
          <Trackpoint>
            <Time>2022-07-16T12:02:29.000Z</Time>
            <Position>
              <LatitudeDegrees>43.44257910735905170440673828125</LatitudeDegrees>
              <LongitudeDegrees>-4.9397111870348453521728515625</LongitudeDegrees>
            </Position>
            <AltitudeMeters>40</AltitudeMeters>
            <DistanceMeters>NAN</DistanceMeters>
          </Trackpoint>
          <Trackpoint>
            <Time>2022-07-16T12:02:32.000Z</Time>
            <Position>
              <LatitudeDegrees>43.44274171628057956695556640625</LatitudeDegrees>
              <LongitudeDegrees>-4.93961311876773834228515625</LongitudeDegrees>
            </Position>
            <AltitudeMeters>39.59999847412109375</AltitudeMeters>
            <DistanceMeters>NAN</DistanceMeters>
          </Trackpoint>
          <Trackpoint>
            <Time>2022-07-16T12:02:39.000Z</Time>
            <Position>
              <LatitudeDegrees>43.44310297630727291107177734375</LatitudeDegrees>
              <LongitudeDegrees>-4.93937733583152294158935546875</LongitudeDegrees>
            </Position>
            <AltitudeMeters>38.59999847412109375</AltitudeMeters>
            <DistanceMeters>NAN</DistanceMeters>
          </Trackpoint>
          <Trackpoint>
            <Time>2022-07-16T12:02:41.000Z</Time>
            <Position>
              <LatitudeDegrees>43.4432108514010906219482421875</LatitudeDegrees>
              <LongitudeDegrees>-4.93933039717376232147216796875</LongitudeDegrees>
            </Position>
            <AltitudeMeters>38.40000152587890625</AltitudeMeters>
            <DistanceMeters>NAN</DistanceMeters>
          </Trackpoint>
          <Trackpoint>
            <Time>2022-07-16T12:02:45.000Z</Time>
            <Position>
              <LatitudeDegrees>43.4434301219880580902099609375</LatitudeDegrees>
              <LongitudeDegrees>-4.93927516043186187744140625</LongitudeDegrees>
            </Position>
            <AltitudeMeters>38.40000152587890625</AltitudeMeters>
            <DistanceMeters>NAN</DistanceMeters>
          </Trackpoint>
          <Trackpoint>
            <Time>2022-07-16T12:02:46.000Z</Time>
            <Position>
              <LatitudeDegrees>43.4434874542057514190673828125</LatitudeDegrees>
              <LongitudeDegrees>-4.93926577270030975341796875</LongitudeDegrees>
            </Position>
            <AltitudeMeters>38.40000152587890625</AltitudeMeters>
            <DistanceMeters>NAN</DistanceMeters>
          </Trackpoint>
          <Trackpoint>
            <Time>2022-07-16T12:02:52.000Z</Time>
            <Position>
              <LatitudeDegrees>43.44377922825515270233154296875</LatitudeDegrees>
              <LongitudeDegrees>-4.93921070359647274017333984375</LongitudeDegrees>
            </Position>
            <AltitudeMeters>38</AltitudeMeters>
            <DistanceMeters>NAN</DistanceMeters>
          </Trackpoint>
          <Trackpoint>
            <Time>2022-07-16T12:02:53.000Z</Time>
            <Position>
              <LatitudeDegrees>43.44382650218904018402099609375</LatitudeDegrees>
              <LongitudeDegrees>-4.9391975440084934234619140625</LongitudeDegrees>
            </Position>
            <AltitudeMeters>37.799999237060546875</AltitudeMeters>
            <DistanceMeters>NAN</DistanceMeters>
          </Trackpoint>
          <Trackpoint>
            <Time>2022-07-16T12:02:54.000Z</Time>
            <Position>
              <LatitudeDegrees>43.44387578777968883514404296875</LatitudeDegrees>
              <LongitudeDegrees>-4.939176924526691436767578125</LongitudeDegrees>
            </Position>
            <AltitudeMeters>37.59999847412109375</AltitudeMeters>
            <DistanceMeters>NAN</DistanceMeters>
          </Trackpoint>
          <Trackpoint>
            <Time>2022-07-16T12:02:59.000Z</Time>
            <Position>
              <LatitudeDegrees>43.44412908889353275299072265625</LatitudeDegrees>
              <LongitudeDegrees>-4.9390912614762783050537109375</LongitudeDegrees>
            </Position>
            <AltitudeMeters>37</AltitudeMeters>
            <DistanceMeters>NAN</DistanceMeters>
          </Trackpoint>
          <Trackpoint>
            <Time>2022-07-16T12:03:04.000Z</Time>
            <Position>
              <LatitudeDegrees>43.44436747021973133087158203125</LatitudeDegrees>
              <LongitudeDegrees>-4.93896829895675182342529296875</LongitudeDegrees>
            </Position>
            <AltitudeMeters>36.59999847412109375</AltitudeMeters>
            <DistanceMeters>NAN</DistanceMeters>
          </Trackpoint>
          <Trackpoint>
            <Time>2022-07-16T12:03:08.000Z</Time>
            <Position>
              <LatitudeDegrees>43.44455539248883724212646484375</LatitudeDegrees>
              <LongitudeDegrees>-4.93887391872704029083251953125</LongitudeDegrees>
            </Position>
            <AltitudeMeters>36.200000762939453125</AltitudeMeters>
            <DistanceMeters>NAN</DistanceMeters>
          </Trackpoint>
          <Trackpoint>
            <Time>2022-07-16T12:03:13.000Z</Time>
            <Position>
              <LatitudeDegrees>43.444758988916873931884765625</LatitudeDegrees>
              <LongitudeDegrees>-4.9387841485440731048583984375</LongitudeDegrees>
            </Position>
            <AltitudeMeters>36.200000762939453125</AltitudeMeters>
            <DistanceMeters>NAN</DistanceMeters>
          </Trackpoint>
          <Trackpoint>
            <Time>2022-07-16T12:03:14.000Z</Time>
            <Position>
              <LatitudeDegrees>43.44479142688214778900146484375</LatitudeDegrees>
              <LongitudeDegrees>-4.93875070475041866302490234375</LongitudeDegrees>
            </Position>
            <AltitudeMeters>36.200000762939453125</AltitudeMeters>
            <DistanceMeters>NAN</DistanceMeters>
          </Trackpoint>
          <Trackpoint>
            <Time>2022-07-16T12:03:15.000Z</Time>
            <Position>
              <LatitudeDegrees>43.444824032485485076904296875</LatitudeDegrees>
              <LongitudeDegrees>-4.93871516548097133636474609375</LongitudeDegrees>
            </Position>
            <AltitudeMeters>36.200000762939453125</AltitudeMeters>
            <DistanceMeters>NAN</DistanceMeters>
          </Trackpoint>
          <Trackpoint>
            <Time>2022-07-16T12:03:16.000Z</Time>
            <Position>
              <LatitudeDegrees>43.44485362060368061065673828125</LatitudeDegrees>
              <LongitudeDegrees>-4.93867174722254276275634765625</LongitudeDegrees>
            </Position>
            <AltitudeMeters>36</AltitudeMeters>
            <DistanceMeters>NAN</DistanceMeters>
          </Trackpoint>
          <Trackpoint>
            <Time>2022-07-16T12:03:19.000Z</Time>
            <Position>
              <LatitudeDegrees>43.4449214302003383636474609375</LatitudeDegrees>
              <LongitudeDegrees>-4.9385581724345684051513671875</LongitudeDegrees>
            </Position>
            <AltitudeMeters>36</AltitudeMeters>
            <DistanceMeters>NAN</DistanceMeters>
          </Trackpoint>
          <Trackpoint>
            <Time>2022-07-16T12:03:23.000Z</Time>
            <Position>
              <LatitudeDegrees>43.445039279758930206298828125</LatitudeDegrees>
              <LongitudeDegrees>-4.93852724321186542510986328125</LongitudeDegrees>
            </Position>
            <AltitudeMeters>35.799999237060546875</AltitudeMeters>
            <DistanceMeters>NAN</DistanceMeters>
          </Trackpoint>
          <Trackpoint>
            <Time>2022-07-16T12:03:27.000Z</Time>
            <Position>
              <LatitudeDegrees>43.44519811682403087615966796875</LatitudeDegrees>
              <LongitudeDegrees>-4.9385283328592777252197265625</LongitudeDegrees>
            </Position>
            <AltitudeMeters>35.59999847412109375</AltitudeMeters>
            <DistanceMeters>NAN</DistanceMeters>
          </Trackpoint>
          <Trackpoint>
            <Time>2022-07-16T12:03:28.000Z</Time>
            <Position>
              <LatitudeDegrees>43.44524337910115718841552734375</LatitudeDegrees>
              <LongitudeDegrees>-4.938518106937408447265625</LongitudeDegrees>
            </Position>
            <AltitudeMeters>35.59999847412109375</AltitudeMeters>
            <DistanceMeters>NAN</DistanceMeters>
          </Trackpoint>
          <Trackpoint>
            <Time>2022-07-16T12:03:29.000Z</Time>
            <Position>
              <LatitudeDegrees>43.44529283232986927032470703125</LatitudeDegrees>
              <LongitudeDegrees>-4.93849354796111583709716796875</LongitudeDegrees>
            </Position>
            <AltitudeMeters>35.40000152587890625</AltitudeMeters>
            <DistanceMeters>NAN</DistanceMeters>
          </Trackpoint>
          <Trackpoint>
            <Time>2022-07-16T12:03:30.000Z</Time>
            <Position>
              <LatitudeDegrees>43.445341028273105621337890625</LatitudeDegrees>
              <LongitudeDegrees>-4.938464798033237457275390625</LongitudeDegrees>
            </Position>
            <AltitudeMeters>35.40000152587890625</AltitudeMeters>
            <DistanceMeters>NAN</DistanceMeters>
          </Trackpoint>
          <Trackpoint>
            <Time>2022-07-16T12:03:34.000Z</Time>
            <Position>
              <LatitudeDegrees>43.44552777707576751708984375</LatitudeDegrees>
              <LongitudeDegrees>-4.93830730207264423370361328125</LongitudeDegrees>
            </Position>
            <AltitudeMeters>34.799999237060546875</AltitudeMeters>
            <DistanceMeters>NAN</DistanceMeters>
          </Trackpoint>
          <Trackpoint>
            <Time>2022-07-16T12:03:36.000Z</Time>
            <Position>
              <LatitudeDegrees>43.44561754725873470306396484375</LatitudeDegrees>
              <LongitudeDegrees>-4.93824242614209651947021484375</LongitudeDegrees>
            </Position>
            <AltitudeMeters>34.40000152587890625</AltitudeMeters>
            <DistanceMeters>NAN</DistanceMeters>
          </Trackpoint>
          <Trackpoint>
            <Time>2022-07-16T12:03:39.000Z</Time>
            <Position>
              <LatitudeDegrees>43.445751406252384185791015625</LatitudeDegrees>
              <LongitudeDegrees>-4.9381511472165584564208984375</LongitudeDegrees>
            </Position>
            <AltitudeMeters>34.200000762939453125</AltitudeMeters>
            <DistanceMeters>NAN</DistanceMeters>
          </Trackpoint>
          <Trackpoint>
            <Time>2022-07-16T12:03:40.000Z</Time>
            <Position>
              <LatitudeDegrees>43.44579407013952732086181640625</LatitudeDegrees>
              <LongitudeDegrees>-4.9381213076412677764892578125</LongitudeDegrees>
            </Position>
            <AltitudeMeters>34</AltitudeMeters>
            <DistanceMeters>NAN</DistanceMeters>
          </Trackpoint>
          <Trackpoint>
            <Time>2022-07-16T12:03:42.000Z</Time>
            <Position>
              <LatitudeDegrees>43.44587780535221099853515625</LatitudeDegrees>
              <LongitudeDegrees>-4.93807378225028514862060546875</LongitudeDegrees>
            </Position>
            <AltitudeMeters>33.799999237060546875</AltitudeMeters>
            <DistanceMeters>NAN</DistanceMeters>
          </Trackpoint>
          <Trackpoint>
            <Time>2022-07-16T12:03:44.000Z</Time>
            <Position>
              <LatitudeDegrees>43.4459795616567134857177734375</LatitudeDegrees>
              <LongitudeDegrees>-4.9380498938262462615966796875</LongitudeDegrees>
            </Position>
            <AltitudeMeters>33.59999847412109375</AltitudeMeters>
            <DistanceMeters>NAN</DistanceMeters>
          </Trackpoint>
          <Trackpoint>
            <Time>2022-07-16T12:03:45.000Z</Time>
            <Position>
              <LatitudeDegrees>43.44603328965604305267333984375</LatitudeDegrees>
              <LongitudeDegrees>-4.9380446970462799072265625</LongitudeDegrees>
            </Position>
            <AltitudeMeters>33.40000152587890625</AltitudeMeters>
            <DistanceMeters>NAN</DistanceMeters>
          </Trackpoint>
          <Trackpoint>
            <Time>2022-07-16T12:03:46.000Z</Time>
            <Position>
              <LatitudeDegrees>43.44608877785503864288330078125</LatitudeDegrees>
              <LongitudeDegrees>-4.9380395002663135528564453125</LongitudeDegrees>
            </Position>
            <AltitudeMeters>33.200000762939453125</AltitudeMeters>
            <DistanceMeters>NAN</DistanceMeters>
          </Trackpoint>
          <Trackpoint>
            <Time>2022-07-16T12:03:48.000Z</Time>
            <Position>
              <LatitudeDegrees>43.44620109535753726959228515625</LatitudeDegrees>
              <LongitudeDegrees>-4.9380393326282501220703125</LongitudeDegrees>
            </Position>
            <AltitudeMeters>33.200000762939453125</AltitudeMeters>
            <DistanceMeters>NAN</DistanceMeters>
          </Trackpoint>
          <Trackpoint>
            <Time>2022-07-16T12:03:50.000Z</Time>
            <Position>
              <LatitudeDegrees>43.4463178552687168121337890625</LatitudeDegrees>
              <LongitudeDegrees>-4.93800991214811801910400390625</LongitudeDegrees>
            </Position>
            <AltitudeMeters>33</AltitudeMeters>
            <DistanceMeters>NAN</DistanceMeters>
          </Trackpoint>
          <Trackpoint>
            <Time>2022-07-16T12:03:51.000Z</Time>
            <Position>
              <LatitudeDegrees>43.446375690400600433349609375</LatitudeDegrees>
              <LongitudeDegrees>-4.937981665134429931640625</LongitudeDegrees>
            </Position>
            <AltitudeMeters>32.799999237060546875</AltitudeMeters>
            <DistanceMeters>NAN</DistanceMeters>
          </Trackpoint>
          <Trackpoint>
            <Time>2022-07-16T12:03:55.000Z</Time>
            <Position>
              <LatitudeDegrees>43.446627147495746612548828125</LatitudeDegrees>
              <LongitudeDegrees>-4.9379114247858524322509765625</LongitudeDegrees>
            </Position>
            <AltitudeMeters>32.40000152587890625</AltitudeMeters>
            <DistanceMeters>NAN</DistanceMeters>
          </Trackpoint>
          <Trackpoint>
            <Time>2022-07-16T12:03:58.000Z</Time>
            <Position>
              <LatitudeDegrees>43.44680911861360073089599609375</LatitudeDegrees>
              <LongitudeDegrees>-4.93785627186298370361328125</LongitudeDegrees>
            </Position>
            <AltitudeMeters>32</AltitudeMeters>
            <DistanceMeters>NAN</DistanceMeters>
          </Trackpoint>
          <Trackpoint>
            <Time>2022-07-16T12:04:01.000Z</Time>
            <Position>
              <LatitudeDegrees>43.4469687938690185546875</LatitudeDegrees>
              <LongitudeDegrees>-4.93784814141690731048583984375</LongitudeDegrees>
            </Position>
            <AltitudeMeters>31.6000003814697265625</AltitudeMeters>
            <DistanceMeters>NAN</DistanceMeters>
          </Trackpoint>
          <Trackpoint>
            <Time>2022-07-16T12:04:03.000Z</Time>
            <Position>
              <LatitudeDegrees>43.447062335908412933349609375</LatitudeDegrees>
              <LongitudeDegrees>-4.9378869496285915374755859375</LongitudeDegrees>
            </Position>
            <AltitudeMeters>31.3999996185302734375</AltitudeMeters>
            <DistanceMeters>NAN</DistanceMeters>
          </Trackpoint>
          <Trackpoint>
            <Time>2022-07-16T12:04:05.000Z</Time>
            <Position>
              <LatitudeDegrees>43.4471647627651691436767578125</LatitudeDegrees>
              <LongitudeDegrees>-4.93798158131539821624755859375</LongitudeDegrees>
            </Position>
            <AltitudeMeters>31</AltitudeMeters>
            <DistanceMeters>NAN</DistanceMeters>
          </Trackpoint>
          <Trackpoint>
            <Time>2022-07-16T12:04:06.000Z</Time>
            <Position>
              <LatitudeDegrees>43.44720818102359771728515625</LatitudeDegrees>
              <LongitudeDegrees>-4.9380277656018733978271484375</LongitudeDegrees>
            </Position>
            <AltitudeMeters>30.799999237060546875</AltitudeMeters>
            <DistanceMeters>NAN</DistanceMeters>
          </Trackpoint>
          <Trackpoint>
            <Time>2022-07-16T12:04:08.000Z</Time>
            <Position>
              <LatitudeDegrees>43.44730281271040439605712890625</LatitudeDegrees>
              <LongitudeDegrees>-4.93806690908968448638916015625</LongitudeDegrees>
            </Position>
            <AltitudeMeters>30.6000003814697265625</AltitudeMeters>
            <DistanceMeters>NAN</DistanceMeters>
          </Trackpoint>
          <Trackpoint>
            <Time>2022-07-16T12:04:09.000Z</Time>
            <Position>
              <LatitudeDegrees>43.44735478051006793975830078125</LatitudeDegrees>
              <LongitudeDegrees>-4.93804712779819965362548828125</LongitudeDegrees>
            </Position>
            <AltitudeMeters>30.3999996185302734375</AltitudeMeters>
            <DistanceMeters>NAN</DistanceMeters>
          </Trackpoint>
          <Trackpoint>
            <Time>2022-07-16T12:04:10.000Z</Time>
            <Position>
              <LatitudeDegrees>43.4474162198603153228759765625</LatitudeDegrees>
              <LongitudeDegrees>-4.93800672702491283416748046875</LongitudeDegrees>
            </Position>
            <AltitudeMeters>30.200000762939453125</AltitudeMeters>
            <DistanceMeters>NAN</DistanceMeters>
          </Trackpoint>
          <Trackpoint>
            <Time>2022-07-16T12:04:13.000Z</Time>
            <Position>
              <LatitudeDegrees>43.4475617296993732452392578125</LatitudeDegrees>
              <LongitudeDegrees>-4.93792860768735408782958984375</LongitudeDegrees>
            </Position>
            <AltitudeMeters>29.799999237060546875</AltitudeMeters>
            <DistanceMeters>NAN</DistanceMeters>
          </Trackpoint>
          <Trackpoint>
            <Time>2022-07-16T12:04:14.000Z</Time>
            <Position>
              <LatitudeDegrees>43.4476120211184024810791015625</LatitudeDegrees>
              <LongitudeDegrees>-4.937894828617572784423828125</LongitudeDegrees>
            </Position>
            <AltitudeMeters>29.799999237060546875</AltitudeMeters>
            <DistanceMeters>NAN</DistanceMeters>
          </Trackpoint>
          <Trackpoint>
            <Time>2022-07-16T12:04:16.000Z</Time>
            <Position>
              <LatitudeDegrees>43.44771402888000011444091796875</LatitudeDegrees>
              <LongitudeDegrees>-4.93784395046532154083251953125</LongitudeDegrees>
            </Position>
            <AltitudeMeters>29.799999237060546875</AltitudeMeters>
            <DistanceMeters>NAN</DistanceMeters>
          </Trackpoint>
          <Trackpoint>
            <Time>2022-07-16T12:04:18.000Z</Time>
            <Position>
              <LatitudeDegrees>43.4478229098021984100341796875</LatitudeDegrees>
              <LongitudeDegrees>-4.9378202296793460845947265625</LongitudeDegrees>
            </Position>
            <AltitudeMeters>29.6000003814697265625</AltitudeMeters>
            <DistanceMeters>NAN</DistanceMeters>
          </Trackpoint>
          <Trackpoint>
            <Time>2022-07-16T12:04:19.000Z</Time>
            <Position>
              <LatitudeDegrees>43.44787462614476680755615234375</LatitudeDegrees>
              <LongitudeDegrees>-4.937820397317409515380859375</LongitudeDegrees>
            </Position>
            <AltitudeMeters>29.6000003814697265625</AltitudeMeters>
            <DistanceMeters>NAN</DistanceMeters>
          </Trackpoint>
          <Trackpoint>
            <Time>2022-07-16T12:04:21.000Z</Time>
            <Position>
              <LatitudeDegrees>43.447976298630237579345703125</LatitudeDegrees>
              <LongitudeDegrees>-4.9378467164933681488037109375</LongitudeDegrees>
            </Position>
            <AltitudeMeters>29.6000003814697265625</AltitudeMeters>
            <DistanceMeters>NAN</DistanceMeters>
          </Trackpoint>
          <Trackpoint>
            <Time>2022-07-16T12:04:23.000Z</Time>
            <Position>
              <LatitudeDegrees>43.44805953092873096466064453125</LatitudeDegrees>
              <LongitudeDegrees>-4.93790430016815662384033203125</LongitudeDegrees>
            </Position>
            <AltitudeMeters>29.3999996185302734375</AltitudeMeters>
            <DistanceMeters>NAN</DistanceMeters>
          </Trackpoint>
          <Trackpoint>
            <Time>2022-07-16T12:04:29.000Z</Time>
            <Position>
              <LatitudeDegrees>43.44825424253940582275390625</LatitudeDegrees>
              <LongitudeDegrees>-4.93817604146897792816162109375</LongitudeDegrees>
            </Position>
            <AltitudeMeters>29.3999996185302734375</AltitudeMeters>
            <DistanceMeters>NAN</DistanceMeters>
          </Trackpoint>
          <Trackpoint>
            <Time>2022-07-16T12:04:35.000Z</Time>
            <Position>
              <LatitudeDegrees>43.44846353866159915924072265625</LatitudeDegrees>
              <LongitudeDegrees>-4.93847259320318698883056640625</LongitudeDegrees>
            </Position>
            <AltitudeMeters>29.3999996185302734375</AltitudeMeters>
            <DistanceMeters>NAN</DistanceMeters>
          </Trackpoint>
          <Trackpoint>
            <Time>2022-07-16T12:04:37.000Z</Time>
            <Position>
              <LatitudeDegrees>43.44853159971535205841064453125</LatitudeDegrees>
              <LongitudeDegrees>-4.93855498731136322021484375</LongitudeDegrees>
            </Position>
            <AltitudeMeters>29.200000762939453125</AltitudeMeters>
            <DistanceMeters>NAN</DistanceMeters>
          </Trackpoint>
          <Trackpoint>
            <Time>2022-07-16T12:04:38.000Z</Time>
            <Position>
              <LatitudeDegrees>43.44856806099414825439453125</LatitudeDegrees>
              <LongitudeDegrees>-4.9385866709053516387939453125</LongitudeDegrees>
            </Position>
            <AltitudeMeters>28.799999237060546875</AltitudeMeters>
            <DistanceMeters>NAN</DistanceMeters>
          </Trackpoint>
          <Trackpoint>
            <Time>2022-07-16T12:04:42.000Z</Time>
            <Position>
              <LatitudeDegrees>43.448740728199481964111328125</LatitudeDegrees>
              <LongitudeDegrees>-4.93867292068898677825927734375</LongitudeDegrees>
            </Position>
            <AltitudeMeters>28</AltitudeMeters>
            <DistanceMeters>NAN</DistanceMeters>
          </Trackpoint>
          <Trackpoint>
            <Time>2022-07-16T12:04:43.000Z</Time>
            <Position>
              <LatitudeDegrees>43.44878858886659145355224609375</LatitudeDegrees>
              <LongitudeDegrees>-4.9386828951537609100341796875</LongitudeDegrees>
            </Position>
            <AltitudeMeters>27.799999237060546875</AltitudeMeters>
            <DistanceMeters>NAN</DistanceMeters>
          </Trackpoint>
          <Trackpoint>
            <Time>2022-07-16T12:04:50.000Z</Time>
            <Position>
              <LatitudeDegrees>43.4491241164505481719970703125</LatitudeDegrees>
              <LongitudeDegrees>-4.93879412300884723663330078125</LongitudeDegrees>
            </Position>
            <AltitudeMeters>27.200000762939453125</AltitudeMeters>
            <DistanceMeters>NAN</DistanceMeters>
          </Trackpoint>
          <Trackpoint>
            <Time>2022-07-16T12:04:51.000Z</Time>
            <Position>
              <LatitudeDegrees>43.44917180947959423065185546875</LatitudeDegrees>
              <LongitudeDegrees>-4.93880887515842914581298828125</LongitudeDegrees>
            </Position>
            <AltitudeMeters>27</AltitudeMeters>
            <DistanceMeters>NAN</DistanceMeters>
          </Trackpoint>
          <Trackpoint>
            <Time>2022-07-16T12:04:52.000Z</Time>
            <Position>
              <LatitudeDegrees>43.4492176584899425506591796875</LatitudeDegrees>
              <LongitudeDegrees>-4.93882052600383758544921875</LongitudeDegrees>
            </Position>
            <AltitudeMeters>26.799999237060546875</AltitudeMeters>
            <DistanceMeters>NAN</DistanceMeters>
          </Trackpoint>
          <Trackpoint>
            <Time>2022-07-16T12:04:56.000Z</Time>
            <Position>
              <LatitudeDegrees>43.449412286281585693359375</LatitudeDegrees>
              <LongitudeDegrees>-4.93887442164123058319091796875</LongitudeDegrees>
            </Position>
            <AltitudeMeters>26.6000003814697265625</AltitudeMeters>
            <DistanceMeters>NAN</DistanceMeters>
          </Trackpoint>
          <Trackpoint>
            <Time>2022-07-16T12:04:57.000Z</Time>
            <Position>
              <LatitudeDegrees>43.4494681097567081451416015625</LatitudeDegrees>
              <LongitudeDegrees>-4.93887282907962799072265625</LongitudeDegrees>
            </Position>
            <AltitudeMeters>26.6000003814697265625</AltitudeMeters>
            <DistanceMeters>NAN</DistanceMeters>
          </Trackpoint>
          <Trackpoint>
            <Time>2022-07-16T12:05:04.000Z</Time>
            <Position>
              <LatitudeDegrees>43.449842445552349090576171875</LatitudeDegrees>
              <LongitudeDegrees>-4.938839972019195556640625</LongitudeDegrees>
            </Position>
            <AltitudeMeters>26.200000762939453125</AltitudeMeters>
            <DistanceMeters>NAN</DistanceMeters>
          </Trackpoint>
          <Trackpoint>
            <Time>2022-07-16T12:05:12.000Z</Time>
            <Position>
              <LatitudeDegrees>43.4502419270575046539306640625</LatitudeDegrees>
              <LongitudeDegrees>-4.93878004141151905059814453125</LongitudeDegrees>
            </Position>
            <AltitudeMeters>25.799999237060546875</AltitudeMeters>
            <DistanceMeters>NAN</DistanceMeters>
          </Trackpoint>
          <Trackpoint>
            <Time>2022-07-16T12:05:14.000Z</Time>
            <Position>
              <LatitudeDegrees>43.45032633282244205474853515625</LatitudeDegrees>
              <LongitudeDegrees>-4.93877702392637729644775390625</LongitudeDegrees>
            </Position>
            <AltitudeMeters>25.6000003814697265625</AltitudeMeters>
            <DistanceMeters>NAN</DistanceMeters>
          </Trackpoint>
          <Trackpoint>
            <Time>2022-07-16T12:05:20.000Z</Time>
            <Position>
              <LatitudeDegrees>43.450544513761997222900390625</LatitudeDegrees>
              <LongitudeDegrees>-4.9388186819851398468017578125</LongitudeDegrees>
            </Position>
            <AltitudeMeters>25.3999996185302734375</AltitudeMeters>
            <DistanceMeters>NAN</DistanceMeters>
          </Trackpoint>
          <Trackpoint>
            <Time>2022-07-16T12:05:25.000Z</Time>
            <Position>
              <LatitudeDegrees>43.45077225007116794586181640625</LatitudeDegrees>
              <LongitudeDegrees>-4.93894197978079319000244140625</LongitudeDegrees>
            </Position>
            <AltitudeMeters>24.799999237060546875</AltitudeMeters>
            <DistanceMeters>NAN</DistanceMeters>
          </Trackpoint>
          <Trackpoint>
            <Time>2022-07-16T12:05:26.000Z</Time>
            <Position>
              <LatitudeDegrees>43.45081767998635768890380859375</LatitudeDegrees>
              <LongitudeDegrees>-4.9389745853841304779052734375</LongitudeDegrees>
            </Position>
            <AltitudeMeters>24.6000003814697265625</AltitudeMeters>
            <DistanceMeters>NAN</DistanceMeters>
          </Trackpoint>
          <Trackpoint>
            <Time>2022-07-16T12:05:30.000Z</Time>
            <Position>
              <LatitudeDegrees>43.4510127268731594085693359375</LatitudeDegrees>
              <LongitudeDegrees>-4.93907139636576175689697265625</LongitudeDegrees>
            </Position>
            <AltitudeMeters>23.3999996185302734375</AltitudeMeters>
            <DistanceMeters>NAN</DistanceMeters>
          </Trackpoint>
          <Trackpoint>
            <Time>2022-07-16T12:05:33.000Z</Time>
            <Position>
              <LatitudeDegrees>43.451156727969646453857421875</LatitudeDegrees>
              <LongitudeDegrees>-4.939164184033870697021484375</LongitudeDegrees>
            </Position>
            <AltitudeMeters>23</AltitudeMeters>
            <DistanceMeters>NAN</DistanceMeters>
          </Trackpoint>
          <Trackpoint>
            <Time>2022-07-16T12:05:38.000Z</Time>
            <Position>
              <LatitudeDegrees>43.45142017118632793426513671875</LatitudeDegrees>
              <LongitudeDegrees>-4.9393098615109920501708984375</LongitudeDegrees>
            </Position>
            <AltitudeMeters>22.3999996185302734375</AltitudeMeters>
            <DistanceMeters>NAN</DistanceMeters>
          </Trackpoint>
          <Trackpoint>
            <Time>2022-07-16T12:05:41.000Z</Time>
            <Position>
              <LatitudeDegrees>43.45158881507813930511474609375</LatitudeDegrees>
              <LongitudeDegrees>-4.93939778767526149749755859375</LongitudeDegrees>
            </Position>
            <AltitudeMeters>22</AltitudeMeters>
            <DistanceMeters>NAN</DistanceMeters>
          </Trackpoint>
          <Trackpoint>
            <Time>2022-07-16T12:05:49.000Z</Time>
            <Position>
              <LatitudeDegrees>43.45199768431484699249267578125</LatitudeDegrees>
              <LongitudeDegrees>-4.93959300220012664794921875</LongitudeDegrees>
            </Position>
            <AltitudeMeters>21.3999996185302734375</AltitudeMeters>
            <DistanceMeters>NAN</DistanceMeters>
          </Trackpoint>
          <Trackpoint>
            <Time>2022-07-16T12:05:51.000Z</Time>
            <Position>
              <LatitudeDegrees>43.45208535902202129364013671875</LatitudeDegrees>
              <LongitudeDegrees>-4.93963063694536685943603515625</LongitudeDegrees>
            </Position>
            <AltitudeMeters>20.799999237060546875</AltitudeMeters>
            <DistanceMeters>NAN</DistanceMeters>
          </Trackpoint>
          <Trackpoint>
            <Time>2022-07-16T12:05:52.000Z</Time>
            <Position>
              <LatitudeDegrees>43.452137075364589691162109375</LatitudeDegrees>
              <LongitudeDegrees>-4.93964706547558307647705078125</LongitudeDegrees>
            </Position>
            <AltitudeMeters>20.6000003814697265625</AltitudeMeters>
            <DistanceMeters>NAN</DistanceMeters>
          </Trackpoint>
          <Trackpoint>
            <Time>2022-07-16T12:05:54.000Z</Time>
            <Position>
              <LatitudeDegrees>43.452213518321514129638671875</LatitudeDegrees>
              <LongitudeDegrees>-4.9396486580371856689453125</LongitudeDegrees>
            </Position>
            <AltitudeMeters>20.6000003814697265625</AltitudeMeters>
            <DistanceMeters>NAN</DistanceMeters>
          </Trackpoint>
          <Trackpoint>
            <Time>2022-07-16T12:05:55.000Z</Time>
            <Position>
              <LatitudeDegrees>43.45225366763770580291748046875</LatitudeDegrees>
              <LongitudeDegrees>-4.93963667191565036773681640625</LongitudeDegrees>
            </Position>
            <AltitudeMeters>20.3999996185302734375</AltitudeMeters>
            <DistanceMeters>NAN</DistanceMeters>
          </Trackpoint>
          <Trackpoint>
            <Time>2022-07-16T12:05:56.000Z</Time>
            <Position>
              <LatitudeDegrees>43.45229255966842174530029296875</LatitudeDegrees>
              <LongitudeDegrees>-4.93961605243384838104248046875</LongitudeDegrees>
            </Position>
            <AltitudeMeters>20.6000003814697265625</AltitudeMeters>
            <DistanceMeters>NAN</DistanceMeters>
          </Trackpoint>
          <Trackpoint>
            <Time>2022-07-16T12:06:00.000Z</Time>
            <Position>
              <LatitudeDegrees>43.45244586467742919921875</LatitudeDegrees>
              <LongitudeDegrees>-4.9395321495831012725830078125</LongitudeDegrees>
            </Position>
            <AltitudeMeters>20.3999996185302734375</AltitudeMeters>
            <DistanceMeters>NAN</DistanceMeters>
          </Trackpoint>
          <Trackpoint>
            <Time>2022-07-16T12:06:01.000Z</Time>
            <Position>
              <LatitudeDegrees>43.45247779972851276397705078125</LatitudeDegrees>
              <LongitudeDegrees>-4.93952468968927860260009765625</LongitudeDegrees>
            </Position>
            <AltitudeMeters>20.3999996185302734375</AltitudeMeters>
            <DistanceMeters>NAN</DistanceMeters>
          </Trackpoint>
          <Trackpoint>
            <Time>2022-07-16T12:06:02.000Z</Time>
            <Position>
              <LatitudeDegrees>43.452527336776256561279296875</LatitudeDegrees>
              <LongitudeDegrees>-4.9395220912992954254150390625</LongitudeDegrees>
            </Position>
            <AltitudeMeters>20.3999996185302734375</AltitudeMeters>
            <DistanceMeters>NAN</DistanceMeters>
          </Trackpoint>
          <Trackpoint>
            <Time>2022-07-16T12:06:03.000Z</Time>
            <Position>
              <LatitudeDegrees>43.4525717608630657196044921875</LatitudeDegrees>
              <LongitudeDegrees>-4.93952234275639057159423828125</LongitudeDegrees>
            </Position>
            <AltitudeMeters>20.200000762939453125</AltitudeMeters>
            <DistanceMeters>NAN</DistanceMeters>
          </Trackpoint>
          <Trackpoint>
            <Time>2022-07-16T12:06:06.000Z</Time>
            <Position>
              <LatitudeDegrees>43.45270209945738315582275390625</LatitudeDegrees>
              <LongitudeDegrees>-4.93952334858477115631103515625</LongitudeDegrees>
            </Position>
            <AltitudeMeters>20.200000762939453125</AltitudeMeters>
            <DistanceMeters>NAN</DistanceMeters>
          </Trackpoint>
          <Trackpoint>
            <Time>2022-07-16T12:06:07.000Z</Time>
            <Position>
              <LatitudeDegrees>43.45275901257991790771484375</LatitudeDegrees>
              <LongitudeDegrees>-4.939531646668910980224609375</LongitudeDegrees>
            </Position>
            <AltitudeMeters>20.200000762939453125</AltitudeMeters>
            <DistanceMeters>NAN</DistanceMeters>
          </Trackpoint>
          <Trackpoint>
            <Time>2022-07-16T12:06:08.000Z</Time>
            <Position>
              <LatitudeDegrees>43.45281190238893032073974609375</LatitudeDegrees>
              <LongitudeDegrees>-4.9395200796425342559814453125</LongitudeDegrees>
            </Position>
            <AltitudeMeters>20</AltitudeMeters>
            <DistanceMeters>NAN</DistanceMeters>
          </Trackpoint>
          <Trackpoint>
            <Time>2022-07-16T12:06:10.000Z</Time>
            <Position>
              <LatitudeDegrees>43.45289639197289943695068359375</LatitudeDegrees>
              <LongitudeDegrees>-4.93946584872901439666748046875</LongitudeDegrees>
            </Position>
            <AltitudeMeters>19.6000003814697265625</AltitudeMeters>
            <DistanceMeters>NAN</DistanceMeters>
          </Trackpoint>
          <Trackpoint>
            <Time>2022-07-16T12:06:12.000Z</Time>
            <Position>
              <LatitudeDegrees>43.452975265681743621826171875</LatitudeDegrees>
              <LongitudeDegrees>-4.93937440216541290283203125</LongitudeDegrees>
            </Position>
            <AltitudeMeters>19</AltitudeMeters>
            <DistanceMeters>NAN</DistanceMeters>
          </Trackpoint>
          <Trackpoint>
            <Time>2022-07-16T12:06:14.000Z</Time>
            <Position>
              <LatitudeDegrees>43.4530230425298213958740234375</LatitudeDegrees>
              <LongitudeDegrees>-4.93927155621349811553955078125</LongitudeDegrees>
            </Position>
            <AltitudeMeters>18.6000003814697265625</AltitudeMeters>
            <DistanceMeters>NAN</DistanceMeters>
          </Trackpoint>
          <Trackpoint>
            <Time>2022-07-16T12:06:17.000Z</Time>
            <Position>
              <LatitudeDegrees>43.45311214216053485870361328125</LatitudeDegrees>
              <LongitudeDegrees>-4.939081706106662750244140625</LongitudeDegrees>
            </Position>
            <AltitudeMeters>17.799999237060546875</AltitudeMeters>
            <DistanceMeters>NAN</DistanceMeters>
          </Trackpoint>
          <Trackpoint>
            <Time>2022-07-16T12:06:19.000Z</Time>
            <Position>
              <LatitudeDegrees>43.45318305306136608123779296875</LatitudeDegrees>
              <LongitudeDegrees>-4.9389564804732799530029296875</LongitudeDegrees>
            </Position>
            <AltitudeMeters>17.3999996185302734375</AltitudeMeters>
            <DistanceMeters>NAN</DistanceMeters>
          </Trackpoint>
          <Trackpoint>
            <Time>2022-07-16T12:06:20.000Z</Time>
            <Position>
              <LatitudeDegrees>43.4532242082059383392333984375</LatitudeDegrees>
              <LongitudeDegrees>-4.938901998102664947509765625</LongitudeDegrees>
            </Position>
            <AltitudeMeters>17.3999996185302734375</AltitudeMeters>
            <DistanceMeters>NAN</DistanceMeters>
          </Trackpoint>
          <Trackpoint>
            <Time>2022-07-16T12:06:22.000Z</Time>
            <Position>
              <LatitudeDegrees>43.453313224017620086669921875</LatitudeDegrees>
              <LongitudeDegrees>-4.9388066120445728302001953125</LongitudeDegrees>
            </Position>
            <AltitudeMeters>17.200000762939453125</AltitudeMeters>
            <DistanceMeters>NAN</DistanceMeters>
          </Trackpoint>
          <Trackpoint>
            <Time>2022-07-16T12:06:24.000Z</Time>
            <Position>
              <LatitudeDegrees>43.45340919680893421173095703125</LatitudeDegrees>
              <LongitudeDegrees>-4.938741736114025115966796875</LongitudeDegrees>
            </Position>
            <AltitudeMeters>17.200000762939453125</AltitudeMeters>
            <DistanceMeters>NAN</DistanceMeters>
          </Trackpoint>
          <Trackpoint>
            <Time>2022-07-16T12:06:25.000Z</Time>
            <Position>
              <LatitudeDegrees>43.45346175134181976318359375</LatitudeDegrees>
              <LongitudeDegrees>-4.938717596232891082763671875</LongitudeDegrees>
            </Position>
            <AltitudeMeters>17</AltitudeMeters>
            <DistanceMeters>NAN</DistanceMeters>
          </Trackpoint>
          <Trackpoint>
            <Time>2022-07-16T12:06:26.000Z</Time>
            <Position>
              <LatitudeDegrees>43.4535162337124347686767578125</LatitudeDegrees>
              <LongitudeDegrees>-4.9386983178555965423583984375</LongitudeDegrees>
            </Position>
            <AltitudeMeters>16.799999237060546875</AltitudeMeters>
            <DistanceMeters>NAN</DistanceMeters>
          </Trackpoint>
          <Trackpoint>
            <Time>2022-07-16T12:06:32.000Z</Time>
            <Position>
              <LatitudeDegrees>43.45386701636016368865966796875</LatitudeDegrees>
              <LongitudeDegrees>-4.93857837282121181488037109375</LongitudeDegrees>
            </Position>
            <AltitudeMeters>15.80000019073486328125</AltitudeMeters>
            <DistanceMeters>NAN</DistanceMeters>
          </Trackpoint>
          <Trackpoint>
            <Time>2022-07-16T12:06:34.000Z</Time>
            <Position>
              <LatitudeDegrees>43.4539854526519775390625</LatitudeDegrees>
              <LongitudeDegrees>-4.9385233037173748016357421875</LongitudeDegrees>
            </Position>
            <AltitudeMeters>15.6000003814697265625</AltitudeMeters>
            <DistanceMeters>NAN</DistanceMeters>
          </Trackpoint>
          <Trackpoint>
            <Time>2022-07-16T12:06:39.000Z</Time>
            <Position>
              <LatitudeDegrees>43.45426716841757297515869140625</LatitudeDegrees>
              <LongitudeDegrees>-4.93839212693274021148681640625</LongitudeDegrees>
            </Position>
            <AltitudeMeters>15.19999980926513671875</AltitudeMeters>
            <DistanceMeters>NAN</DistanceMeters>
          </Trackpoint>
          <Trackpoint>
            <Time>2022-07-16T12:06:43.000Z</Time>
            <Position>
              <LatitudeDegrees>43.4544298611581325531005859375</LatitudeDegrees>
              <LongitudeDegrees>-4.9383026920258998870849609375</LongitudeDegrees>
            </Position>
            <AltitudeMeters>14.6000003814697265625</AltitudeMeters>
            <DistanceMeters>NAN</DistanceMeters>
          </Trackpoint>
          <Trackpoint>
            <Time>2022-07-16T12:06:44.000Z</Time>
            <Position>
              <LatitudeDegrees>43.4544714353978633880615234375</LatitudeDegrees>
              <LongitudeDegrees>-4.938283748924732208251953125</LongitudeDegrees>
            </Position>
            <AltitudeMeters>14.3999996185302734375</AltitudeMeters>
            <DistanceMeters>NAN</DistanceMeters>
          </Trackpoint>
          <Trackpoint>
            <Time>2022-07-16T12:06:50.000Z</Time>
            <Position>
              <LatitudeDegrees>43.4547208808362483978271484375</LatitudeDegrees>
              <LongitudeDegrees>-4.93817520327866077423095703125</LongitudeDegrees>
            </Position>
            <AltitudeMeters>13.3999996185302734375</AltitudeMeters>
            <DistanceMeters>NAN</DistanceMeters>
          </Trackpoint>
          <Trackpoint>
            <Time>2022-07-16T12:06:52.000Z</Time>
            <Position>
              <LatitudeDegrees>43.45480813644826412200927734375</LatitudeDegrees>
              <LongitudeDegrees>-4.93813312612473964691162109375</LongitudeDegrees>
            </Position>
            <AltitudeMeters>13</AltitudeMeters>
            <DistanceMeters>NAN</DistanceMeters>
          </Trackpoint>
          <Trackpoint>
            <Time>2022-07-16T12:06:58.000Z</Time>
            <Position>
              <LatitudeDegrees>43.4550289995968341827392578125</LatitudeDegrees>
              <LongitudeDegrees>-4.93805567733943462371826171875</LongitudeDegrees>
            </Position>
            <AltitudeMeters>12.6000003814697265625</AltitudeMeters>
            <DistanceMeters>NAN</DistanceMeters>
          </Trackpoint>
          <Trackpoint>
            <Time>2022-07-16T12:06:59.000Z</Time>
            <Position>
              <LatitudeDegrees>43.45505925826728343963623046875</LatitudeDegrees>
              <LongitudeDegrees>-4.93804595433175563812255859375</LongitudeDegrees>
            </Position>
            <AltitudeMeters>12.6000003814697265625</AltitudeMeters>
            <DistanceMeters>NAN</DistanceMeters>
          </Trackpoint>
          <Trackpoint>
            <Time>2022-07-16T12:07:03.000Z</Time>
            <Position>
              <LatitudeDegrees>43.45519789494574069976806640625</LatitudeDegrees>
              <LongitudeDegrees>-4.93797956965863704681396484375</LongitudeDegrees>
            </Position>
            <AltitudeMeters>12.3999996185302734375</AltitudeMeters>
            <DistanceMeters>NAN</DistanceMeters>
          </Trackpoint>
          <Trackpoint>
            <Time>2022-07-16T12:07:07.000Z</Time>
            <Position>
              <LatitudeDegrees>43.45536075532436370849609375</LatitudeDegrees>
              <LongitudeDegrees>-4.93791402317583560943603515625</LongitudeDegrees>
            </Position>
            <AltitudeMeters>12.19999980926513671875</AltitudeMeters>
            <DistanceMeters>NAN</DistanceMeters>
          </Trackpoint>
          <Trackpoint>
            <Time>2022-07-16T12:07:12.000Z</Time>
            <Position>
              <LatitudeDegrees>43.45551959238946437835693359375</LatitudeDegrees>
              <LongitudeDegrees>-4.93792190216481685638427734375</LongitudeDegrees>
            </Position>
            <AltitudeMeters>12</AltitudeMeters>
            <DistanceMeters>NAN</DistanceMeters>
          </Trackpoint>
          <Trackpoint>
            <Time>2022-07-16T12:07:15.000Z</Time>
            <Position>
              <LatitudeDegrees>43.4556522779166698455810546875</LatitudeDegrees>
              <LongitudeDegrees>-4.9380069784820079803466796875</LongitudeDegrees>
            </Position>
            <AltitudeMeters>11.6000003814697265625</AltitudeMeters>
            <DistanceMeters>NAN</DistanceMeters>
          </Trackpoint>
          <Trackpoint>
            <Time>2022-07-16T12:07:18.000Z</Time>
            <Position>
              <LatitudeDegrees>43.45576149411499500274658203125</LatitudeDegrees>
              <LongitudeDegrees>-4.93809222243726253509521484375</LongitudeDegrees>
            </Position>
            <AltitudeMeters>11.3999996185302734375</AltitudeMeters>
            <DistanceMeters>NAN</DistanceMeters>
          </Trackpoint>
          <Trackpoint>
            <Time>2022-07-16T12:07:20.000Z</Time>
            <Position>
              <LatitudeDegrees>43.4558350034058094024658203125</LatitudeDegrees>
              <LongitudeDegrees>-4.93813253939151763916015625</LongitudeDegrees>
            </Position>
            <AltitudeMeters>11.19999980926513671875</AltitudeMeters>
            <DistanceMeters>NAN</DistanceMeters>
          </Trackpoint>
          <Trackpoint>
            <Time>2022-07-16T12:07:21.000Z</Time>
            <Position>
              <LatitudeDegrees>43.45587884075939655303955078125</LatitudeDegrees>
              <LongitudeDegrees>-4.93814318440854549407958984375</LongitudeDegrees>
            </Position>
            <AltitudeMeters>11.19999980926513671875</AltitudeMeters>
            <DistanceMeters>NAN</DistanceMeters>
          </Trackpoint>
          <Trackpoint>
            <Time>2022-07-16T12:07:23.000Z</Time>
            <Position>
              <LatitudeDegrees>43.4559600614011287689208984375</LatitudeDegrees>
              <LongitudeDegrees>-4.9381305277347564697265625</LongitudeDegrees>
            </Position>
            <AltitudeMeters>11.19999980926513671875</AltitudeMeters>
            <DistanceMeters>NAN</DistanceMeters>
          </Trackpoint>
          <Trackpoint>
            <Time>2022-07-16T12:07:24.000Z</Time>
            <Position>
              <LatitudeDegrees>43.45600121654570102691650390625</LatitudeDegrees>
              <LongitudeDegrees>-4.9381068907678127288818359375</LongitudeDegrees>
            </Position>
            <AltitudeMeters>11</AltitudeMeters>
            <DistanceMeters>NAN</DistanceMeters>
          </Trackpoint>
          <Trackpoint>
            <Time>2022-07-16T12:07:25.000Z</Time>
            <Position>
              <LatitudeDegrees>43.456034325063228607177734375</LatitudeDegrees>
              <LongitudeDegrees>-4.93807026185095310211181640625</LongitudeDegrees>
            </Position>
            <AltitudeMeters>10.80000019073486328125</AltitudeMeters>
            <DistanceMeters>NAN</DistanceMeters>
          </Trackpoint>
          <Trackpoint>
            <Time>2022-07-16T12:07:27.000Z</Time>
            <Position>
              <LatitudeDegrees>43.45609442330896854400634765625</LatitudeDegrees>
              <LongitudeDegrees>-4.93798560462892055511474609375</LongitudeDegrees>
            </Position>
            <AltitudeMeters>10.80000019073486328125</AltitudeMeters>
            <DistanceMeters>NAN</DistanceMeters>
          </Trackpoint>
          <Trackpoint>
            <Time>2022-07-16T12:07:29.000Z</Time>
            <Position>
              <LatitudeDegrees>43.45614588819444179534912109375</LatitudeDegrees>
              <LongitudeDegrees>-4.9379033781588077545166015625</LongitudeDegrees>
            </Position>
            <AltitudeMeters>10.80000019073486328125</AltitudeMeters>
            <DistanceMeters>NAN</DistanceMeters>
          </Trackpoint>
          <Trackpoint>
            <Time>2022-07-16T12:07:33.000Z</Time>
            <Position>
              <LatitudeDegrees>43.45620506443083286285400390625</LatitudeDegrees>
              <LongitudeDegrees>-4.9377523362636566162109375</LongitudeDegrees>
            </Position>
            <AltitudeMeters>10.6000003814697265625</AltitudeMeters>
            <DistanceMeters>NAN</DistanceMeters>
          </Trackpoint>
          <Trackpoint>
            <Time>2022-07-16T12:07:38.000Z</Time>
            <Position>
              <LatitudeDegrees>43.4562520869076251983642578125</LatitudeDegrees>
              <LongitudeDegrees>-4.93758134543895721435546875</LongitudeDegrees>
            </Position>
            <AltitudeMeters>10.3999996185302734375</AltitudeMeters>
            <DistanceMeters>NAN</DistanceMeters>
          </Trackpoint>
          <Trackpoint>
            <Time>2022-07-16T12:07:43.000Z</Time>
            <Position>
              <LatitudeDegrees>43.456309251487255096435546875</LatitudeDegrees>
              <LongitudeDegrees>-4.93740490637719631195068359375</LongitudeDegrees>
            </Position>
            <AltitudeMeters>10.3999996185302734375</AltitudeMeters>
            <DistanceMeters>NAN</DistanceMeters>
          </Trackpoint>
          <Trackpoint>
            <Time>2022-07-16T12:07:44.000Z</Time>
            <Position>
              <LatitudeDegrees>43.4563231654465198516845703125</LatitudeDegrees>
              <LongitudeDegrees>-4.937371127307415008544921875</LongitudeDegrees>
            </Position>
            <AltitudeMeters>10.3999996185302734375</AltitudeMeters>
            <DistanceMeters>NAN</DistanceMeters>
          </Trackpoint>
          <Trackpoint>
            <Time>2022-07-16T12:07:52.000Z</Time>
            <Position>
              <LatitudeDegrees>43.45641930587589740753173828125</LatitudeDegrees>
              <LongitudeDegrees>-4.937125034630298614501953125</LongitudeDegrees>
            </Position>
            <AltitudeMeters>10.19999980926513671875</AltitudeMeters>
            <DistanceMeters>NAN</DistanceMeters>
          </Trackpoint>
          <Trackpoint>
            <Time>2022-07-16T12:07:55.000Z</Time>
            <Position>
              <LatitudeDegrees>43.4564549289643764495849609375</LatitudeDegrees>
              <LongitudeDegrees>-4.93705504573881626129150390625</LongitudeDegrees>
            </Position>
            <AltitudeMeters>10.19999980926513671875</AltitudeMeters>
            <DistanceMeters>NAN</DistanceMeters>
          </Trackpoint>
          <Trackpoint>
            <Time>2022-07-16T12:07:57.000Z</Time>
            <Position>
              <LatitudeDegrees>43.456483595073223114013671875</LatitudeDegrees>
              <LongitudeDegrees>-4.93703358806669712066650390625</LongitudeDegrees>
            </Position>
            <AltitudeMeters>10.19999980926513671875</AltitudeMeters>
            <DistanceMeters>NAN</DistanceMeters>
          </Trackpoint>
          <Trackpoint>
            <Time>2022-07-16T12:08:04.000Z</Time>
            <Position>
              <LatitudeDegrees>43.45652827061712741851806640625</LatitudeDegrees>
              <LongitudeDegrees>-4.936925880610942840576171875</LongitudeDegrees>
            </Position>
            <AltitudeMeters>10</AltitudeMeters>
            <DistanceMeters>NAN</DistanceMeters>
          </Trackpoint>
          <Trackpoint>
            <Time>2022-07-16T12:08:08.000Z</Time>
            <Position>
              <LatitudeDegrees>43.45653899945318698883056640625</LatitudeDegrees>
              <LongitudeDegrees>-4.93686879985034465789794921875</LongitudeDegrees>
            </Position>
            <AltitudeMeters>9.80000019073486328125</AltitudeMeters>
            <DistanceMeters>NAN</DistanceMeters>
          </Trackpoint>
          <Trackpoint>
            <Time>2022-07-16T12:08:11.000Z</Time>
            <Position>
              <LatitudeDegrees>43.4565431065857410430908203125</LatitudeDegrees>
              <LongitudeDegrees>-4.9368511140346527099609375</LongitudeDegrees>
            </Position>
            <AltitudeMeters>9.80000019073486328125</AltitudeMeters>
            <DistanceMeters>NAN</DistanceMeters>
          </Trackpoint>
          <Trackpoint>
            <Time>2022-07-16T12:08:12.000Z</Time>
            <Position>
              <LatitudeDegrees>43.4565431065857410430908203125</LatitudeDegrees>
              <LongitudeDegrees>-4.9368511140346527099609375</LongitudeDegrees>
            </Position>
            <AltitudeMeters>9.6000003814697265625</AltitudeMeters>
            <DistanceMeters>NAN</DistanceMeters>
          </Trackpoint>
          <Trackpoint>
            <Time>2022-07-16T12:52:04.000Z</Time>
            <Position>
              <LatitudeDegrees>43.45653355121612548828125</LatitudeDegrees>
              <LongitudeDegrees>-4.93678447790443897247314453125</LongitudeDegrees>
            </Position>
            <AltitudeMeters>2.2000000476837158203125</AltitudeMeters>
            <DistanceMeters>NAN</DistanceMeters>
          </Trackpoint>
          <Trackpoint>
            <Time>2022-07-16T12:52:05.000Z</Time>
            <Position>
              <LatitudeDegrees>43.45652751624584197998046875</LatitudeDegrees>
              <LongitudeDegrees>-4.9368103779852390289306640625</LongitudeDegrees>
            </Position>
            <AltitudeMeters>2.2000000476837158203125</AltitudeMeters>
            <DistanceMeters>NAN</DistanceMeters>
          </Trackpoint>
          <Trackpoint>
            <Time>2022-07-16T12:52:06.000Z</Time>
            <Position>
              <LatitudeDegrees>43.45652215182781219482421875</LatitudeDegrees>
              <LongitudeDegrees>-4.93683376349508762359619140625</LongitudeDegrees>
            </Position>
            <AltitudeMeters>3.400000095367431640625</AltitudeMeters>
            <DistanceMeters>NAN</DistanceMeters>
          </Trackpoint>
          <Trackpoint>
            <Time>2022-07-16T12:52:09.000Z</Time>
            <Position>
              <LatitudeDegrees>43.45649256370961666107177734375</LatitudeDegrees>
              <LongitudeDegrees>-4.93690400384366512298583984375</LongitudeDegrees>
            </Position>
            <AltitudeMeters>4.599999904632568359375</AltitudeMeters>
            <DistanceMeters>NAN</DistanceMeters>
          </Trackpoint>
          <Trackpoint>
            <Time>2022-07-16T12:52:12.000Z</Time>
            <Position>
              <LatitudeDegrees>43.45645937137305736541748046875</LatitudeDegrees>
              <LongitudeDegrees>-4.93697675876319408416748046875</LongitudeDegrees>
            </Position>
            <AltitudeMeters>4.80000019073486328125</AltitudeMeters>
            <DistanceMeters>NAN</DistanceMeters>
          </Trackpoint>
          <Trackpoint>
            <Time>2022-07-16T12:52:19.000Z</Time>
            <Position>
              <LatitudeDegrees>43.45639516599476337432861328125</LatitudeDegrees>
              <LongitudeDegrees>-4.93718680925667285919189453125</LongitudeDegrees>
            </Position>
            <AltitudeMeters>5.599999904632568359375</AltitudeMeters>
            <DistanceMeters>NAN</DistanceMeters>
          </Trackpoint>
          <Trackpoint>
            <Time>2022-07-16T12:52:22.000Z</Time>
            <Position>
              <LatitudeDegrees>43.45636063255369663238525390625</LatitudeDegrees>
              <LongitudeDegrees>-4.93728085421025753021240234375</LongitudeDegrees>
            </Position>
            <AltitudeMeters>5.400000095367431640625</AltitudeMeters>
            <DistanceMeters>NAN</DistanceMeters>
          </Trackpoint>
          <Trackpoint>
            <Time>2022-07-16T12:52:25.000Z</Time>
            <Position>
              <LatitudeDegrees>43.45632098615169525146484375</LatitudeDegrees>
              <LongitudeDegrees>-4.93737875483930110931396484375</LongitudeDegrees>
            </Position>
            <AltitudeMeters>5.19999980926513671875</AltitudeMeters>
            <DistanceMeters>NAN</DistanceMeters>
          </Trackpoint>
          <Trackpoint>
            <Time>2022-07-16T12:52:27.000Z</Time>
            <Position>
              <LatitudeDegrees>43.4562950022518634796142578125</LatitudeDegrees>
              <LongitudeDegrees>-4.9374480731785297393798828125</LongitudeDegrees>
            </Position>
            <AltitudeMeters>5.19999980926513671875</AltitudeMeters>
            <DistanceMeters>NAN</DistanceMeters>
          </Trackpoint>
          <Trackpoint>
            <Time>2022-07-16T12:52:31.000Z</Time>
            <Position>
              <LatitudeDegrees>43.4562571160495281219482421875</LatitudeDegrees>
              <LongitudeDegrees>-4.93757254444062709808349609375</LongitudeDegrees>
            </Position>
            <AltitudeMeters>5.400000095367431640625</AltitudeMeters>
            <DistanceMeters>NAN</DistanceMeters>
          </Trackpoint>
          <Trackpoint>
            <Time>2022-07-16T12:52:35.000Z</Time>
            <Position>
              <LatitudeDegrees>43.4562326408922672271728515625</LatitudeDegrees>
              <LongitudeDegrees>-4.93769341148436069488525390625</LongitudeDegrees>
            </Position>
            <AltitudeMeters>5.19999980926513671875</AltitudeMeters>
            <DistanceMeters>NAN</DistanceMeters>
          </Trackpoint>
          <Trackpoint>
            <Time>2022-07-16T12:52:40.000Z</Time>
            <Position>
              <LatitudeDegrees>43.45619358122348785400390625</LatitudeDegrees>
              <LongitudeDegrees>-4.93783070705831050872802734375</LongitudeDegrees>
            </Position>
            <AltitudeMeters>4.80000019073486328125</AltitudeMeters>
            <DistanceMeters>NAN</DistanceMeters>
          </Trackpoint>
          <Trackpoint>
            <Time>2022-07-16T12:52:41.000Z</Time>
            <Position>
              <LatitudeDegrees>43.45618360675871372222900390625</LatitudeDegrees>
              <LongitudeDegrees>-4.937857277691364288330078125</LongitudeDegrees>
            </Position>
            <AltitudeMeters>4.80000019073486328125</AltitudeMeters>
            <DistanceMeters>NAN</DistanceMeters>
          </Trackpoint>
          <Trackpoint>
            <Time>2022-07-16T12:52:48.000Z</Time>
            <Position>
              <LatitudeDegrees>43.4560901485383510589599609375</LatitudeDegrees>
              <LongitudeDegrees>-4.9380421824753284454345703125</LongitudeDegrees>
            </Position>
            <AltitudeMeters>5</AltitudeMeters>
            <DistanceMeters>NAN</DistanceMeters>
          </Trackpoint>
          <Trackpoint>
            <Time>2022-07-16T12:52:55.000Z</Time>
            <Position>
              <LatitudeDegrees>43.45594145357608795166015625</LatitudeDegrees>
              <LongitudeDegrees>-4.9381850101053714752197265625</LongitudeDegrees>
            </Position>
            <AltitudeMeters>5.19999980926513671875</AltitudeMeters>
            <DistanceMeters>NAN</DistanceMeters>
          </Trackpoint>
          <Trackpoint>
            <Time>2022-07-16T12:53:02.000Z</Time>
            <Position>
              <LatitudeDegrees>43.455776832997798919677734375</LatitudeDegrees>
              <LongitudeDegrees>-4.93816480971872806549072265625</LongitudeDegrees>
            </Position>
            <AltitudeMeters>5</AltitudeMeters>
            <DistanceMeters>NAN</DistanceMeters>
          </Trackpoint>
          <Trackpoint>
            <Time>2022-07-16T12:53:06.000Z</Time>
            <Position>
              <LatitudeDegrees>43.455700390040874481201171875</LatitudeDegrees>
              <LongitudeDegrees>-4.93813429959118366241455078125</LongitudeDegrees>
            </Position>
            <AltitudeMeters>5</AltitudeMeters>
            <DistanceMeters>NAN</DistanceMeters>
          </Trackpoint>
          <Trackpoint>
            <Time>2022-07-16T12:53:07.000Z</Time>
            <Position>
              <LatitudeDegrees>43.45567935146391391754150390625</LatitudeDegrees>
              <LongitudeDegrees>-4.938128180801868438720703125</LongitudeDegrees>
            </Position>
            <AltitudeMeters>5.19999980926513671875</AltitudeMeters>
            <DistanceMeters>NAN</DistanceMeters>
          </Trackpoint>
          <Trackpoint>
            <Time>2022-07-16T12:53:08.000Z</Time>
            <Position>
              <LatitudeDegrees>43.45566024072468280792236328125</LatitudeDegrees>
              <LongitudeDegrees>-4.93812340311706066131591796875</LongitudeDegrees>
            </Position>
            <AltitudeMeters>5.19999980926513671875</AltitudeMeters>
            <DistanceMeters>NAN</DistanceMeters>
          </Trackpoint>
          <Trackpoint>
            <Time>2022-07-16T12:53:09.000Z</Time>
            <Position>
              <LatitudeDegrees>43.4556422196328639984130859375</LatitudeDegrees>
              <LongitudeDegrees>-4.9381196312606334686279296875</LongitudeDegrees>
            </Position>
            <AltitudeMeters>5.19999980926513671875</AltitudeMeters>
            <DistanceMeters>NAN</DistanceMeters>
          </Trackpoint>
          <Trackpoint>
            <Time>2022-07-16T12:53:11.000Z</Time>
            <Position>
              <LatitudeDegrees>43.45561020076274871826171875</LatitudeDegrees>
              <LongitudeDegrees>-4.9381189607083797454833984375</LongitudeDegrees>
            </Position>
            <AltitudeMeters>5.400000095367431640625</AltitudeMeters>
            <DistanceMeters>NAN</DistanceMeters>
          </Trackpoint>
          <Trackpoint>
            <Time>2022-07-16T12:53:13.000Z</Time>
            <Position>
              <LatitudeDegrees>43.45557826571166515350341796875</LatitudeDegrees>
              <LongitudeDegrees>-4.93810026906430721282958984375</LongitudeDegrees>
            </Position>
            <AltitudeMeters>5.400000095367431640625</AltitudeMeters>
            <DistanceMeters>NAN</DistanceMeters>
          </Trackpoint>
          <Trackpoint>
            <Time>2022-07-16T12:53:14.000Z</Time>
            <Position>
              <LatitudeDegrees>43.4555630944669246673583984375</LatitudeDegrees>
              <LongitudeDegrees>-4.93808702565729618072509765625</LongitudeDegrees>
            </Position>
            <AltitudeMeters>5.400000095367431640625</AltitudeMeters>
            <DistanceMeters>NAN</DistanceMeters>
          </Trackpoint>
          <Trackpoint>
            <Time>2022-07-16T12:53:15.000Z</Time>
            <Position>
              <LatitudeDegrees>43.45554742030799388885498046875</LatitudeDegrees>
              <LongitudeDegrees>-4.9380804039537906646728515625</LongitudeDegrees>
            </Position>
            <AltitudeMeters>5.599999904632568359375</AltitudeMeters>
            <DistanceMeters>NAN</DistanceMeters>
          </Trackpoint>
          <Trackpoint>
            <Time>2022-07-16T12:53:17.000Z</Time>
            <Position>
              <LatitudeDegrees>43.45553333871066570281982421875</LatitudeDegrees>
              <LongitudeDegrees>-4.93808199651539325714111328125</LongitudeDegrees>
            </Position>
            <AltitudeMeters>5.599999904632568359375</AltitudeMeters>
            <DistanceMeters>NAN</DistanceMeters>
          </Trackpoint>
          <Trackpoint>
            <Time>2022-07-16T12:53:19.000Z</Time>
            <Position>
              <LatitudeDegrees>43.4555047564208507537841796875</LatitudeDegrees>
              <LongitudeDegrees>-4.938063137233257293701171875</LongitudeDegrees>
            </Position>
            <AltitudeMeters>5.599999904632568359375</AltitudeMeters>
            <DistanceMeters>NAN</DistanceMeters>
          </Trackpoint>
          <Trackpoint>
            <Time>2022-07-16T12:53:25.000Z</Time>
            <Position>
              <LatitudeDegrees>43.4553411416709423065185546875</LatitudeDegrees>
              <LongitudeDegrees>-4.93794771842658519744873046875</LongitudeDegrees>
            </Position>
            <AltitudeMeters>6</AltitudeMeters>
            <DistanceMeters>NAN</DistanceMeters>
          </Trackpoint>
          <Trackpoint>
            <Time>2022-07-16T12:53:27.000Z</Time>
            <Position>
              <LatitudeDegrees>43.455302082002162933349609375</LatitudeDegrees>
              <LongitudeDegrees>-4.9379439465701580047607421875</LongitudeDegrees>
            </Position>
            <AltitudeMeters>6</AltitudeMeters>
            <DistanceMeters>NAN</DistanceMeters>
          </Trackpoint>
          <Trackpoint>
            <Time>2022-07-16T12:53:30.000Z</Time>
            <Position>
              <LatitudeDegrees>43.45525614917278289794921875</LatitudeDegrees>
              <LongitudeDegrees>-4.9379932321608066558837890625</LongitudeDegrees>
            </Position>
            <AltitudeMeters>6.19999980926513671875</AltitudeMeters>
            <DistanceMeters>NAN</DistanceMeters>
          </Trackpoint>
          <Trackpoint>
            <Time>2022-07-16T12:53:40.000Z</Time>
            <Position>
              <LatitudeDegrees>43.45509613864123821258544921875</LatitudeDegrees>
              <LongitudeDegrees>-4.93808400817215442657470703125</LongitudeDegrees>
            </Position>
            <AltitudeMeters>6.599999904632568359375</AltitudeMeters>
            <DistanceMeters>NAN</DistanceMeters>
          </Trackpoint>
          <Trackpoint>
            <Time>2022-07-16T12:53:42.000Z</Time>
            <Position>
              <LatitudeDegrees>43.4550531394779682159423828125</LatitudeDegrees>
              <LongitudeDegrees>-4.9380921386182308197021484375</LongitudeDegrees>
            </Position>
            <AltitudeMeters>6.599999904632568359375</AltitudeMeters>
            <DistanceMeters>NAN</DistanceMeters>
          </Trackpoint>
          <Trackpoint>
            <Time>2022-07-16T12:53:44.000Z</Time>
            <Position>
              <LatitudeDegrees>43.4550122357904911041259765625</LatitudeDegrees>
              <LongitudeDegrees>-4.9381025321781635284423828125</LongitudeDegrees>
            </Position>
            <AltitudeMeters>6.599999904632568359375</AltitudeMeters>
            <DistanceMeters>NAN</DistanceMeters>
          </Trackpoint>
          <Trackpoint>
            <Time>2022-07-16T12:53:48.000Z</Time>
            <Position>
              <LatitudeDegrees>43.4549351222813129425048828125</LatitudeDegrees>
              <LongitudeDegrees>-4.9381296895444393157958984375</LongitudeDegrees>
            </Position>
            <AltitudeMeters>7</AltitudeMeters>
            <DistanceMeters>NAN</DistanceMeters>
          </Trackpoint>
          <Trackpoint>
            <Time>2022-07-16T12:53:56.000Z</Time>
            <Position>
              <LatitudeDegrees>43.454781733453273773193359375</LatitudeDegrees>
              <LongitudeDegrees>-4.93816866539418697357177734375</LongitudeDegrees>
            </Position>
            <AltitudeMeters>7</AltitudeMeters>
            <DistanceMeters>NAN</DistanceMeters>
          </Trackpoint>
          <Trackpoint>
            <Time>2022-07-16T12:54:01.000Z</Time>
            <Position>
              <LatitudeDegrees>43.4546868503093719482421875</LatitudeDegrees>
              <LongitudeDegrees>-4.938173107802867889404296875</LongitudeDegrees>
            </Position>
            <AltitudeMeters>7.19999980926513671875</AltitudeMeters>
            <DistanceMeters>NAN</DistanceMeters>
          </Trackpoint>
          <Trackpoint>
            <Time>2022-07-16T12:54:03.000Z</Time>
            <Position>
              <LatitudeDegrees>43.4546519815921783447265625</LatitudeDegrees>
              <LongitudeDegrees>-4.93819632567465305328369140625</LongitudeDegrees>
            </Position>
            <AltitudeMeters>7.19999980926513671875</AltitudeMeters>
            <DistanceMeters>NAN</DistanceMeters>
          </Trackpoint>
          <Trackpoint>
            <Time>2022-07-16T12:54:12.000Z</Time>
            <Position>
              <LatitudeDegrees>43.45448140986263751983642578125</LatitudeDegrees>
              <LongitudeDegrees>-4.9382738582789897918701171875</LongitudeDegrees>
            </Position>
            <AltitudeMeters>7.19999980926513671875</AltitudeMeters>
            <DistanceMeters>NAN</DistanceMeters>
          </Trackpoint>
          <Trackpoint>
            <Time>2022-07-16T12:54:23.000Z</Time>
            <Position>
              <LatitudeDegrees>43.4542652405798435211181640625</LatitudeDegrees>
              <LongitudeDegrees>-4.9383751116693019866943359375</LongitudeDegrees>
            </Position>
            <AltitudeMeters>7.599999904632568359375</AltitudeMeters>
            <DistanceMeters>NAN</DistanceMeters>
          </Trackpoint>
          <Trackpoint>
            <Time>2022-07-16T12:54:29.000Z</Time>
            <Position>
              <LatitudeDegrees>43.45415049232542514801025390625</LatitudeDegrees>
              <LongitudeDegrees>-4.938395060598850250244140625</LongitudeDegrees>
            </Position>
            <AltitudeMeters>7.599999904632568359375</AltitudeMeters>
            <DistanceMeters>NAN</DistanceMeters>
          </Trackpoint>
          <Trackpoint>
            <Time>2022-07-16T12:54:32.000Z</Time>
            <Position>
              <LatitudeDegrees>43.45408670604228973388671875</LatitudeDegrees>
              <LongitudeDegrees>-4.9384089745581150054931640625</LongitudeDegrees>
            </Position>
            <AltitudeMeters>7.80000019073486328125</AltitudeMeters>
            <DistanceMeters>NAN</DistanceMeters>
          </Trackpoint>
          <Trackpoint>
            <Time>2022-07-16T12:54:39.000Z</Time>
            <Position>
              <LatitudeDegrees>43.45394454896450042724609375</LatitudeDegrees>
              <LongitudeDegrees>-4.93845264427363872528076171875</LongitudeDegrees>
            </Position>
            <AltitudeMeters>8.19999980926513671875</AltitudeMeters>
            <DistanceMeters>NAN</DistanceMeters>
          </Trackpoint>
          <Trackpoint>
            <Time>2022-07-16T12:54:49.000Z</Time>
            <Position>
              <LatitudeDegrees>43.4537448920309543609619140625</LatitudeDegrees>
              <LongitudeDegrees>-4.93853227235376834869384765625</LongitudeDegrees>
            </Position>
            <AltitudeMeters>8.6000003814697265625</AltitudeMeters>
            <DistanceMeters>NAN</DistanceMeters>
          </Trackpoint>
          <Trackpoint>
            <Time>2022-07-16T12:54:54.000Z</Time>
            <Position>
              <LatitudeDegrees>43.45364221371710300445556640625</LatitudeDegrees>
              <LongitudeDegrees>-4.9385648779571056365966796875</LongitudeDegrees>
            </Position>
            <AltitudeMeters>8.6000003814697265625</AltitudeMeters>
            <DistanceMeters>NAN</DistanceMeters>
          </Trackpoint>
          <Trackpoint>
            <Time>2022-07-16T12:54:56.000Z</Time>
            <Position>
              <LatitudeDegrees>43.4536027349531650543212890625</LatitudeDegrees>
              <LongitudeDegrees>-4.938578791916370391845703125</LongitudeDegrees>
            </Position>
            <AltitudeMeters>8.80000019073486328125</AltitudeMeters>
            <DistanceMeters>NAN</DistanceMeters>
          </Trackpoint>
          <Trackpoint>
            <Time>2022-07-16T12:55:04.000Z</Time>
            <Position>
              <LatitudeDegrees>43.45345278270542621612548828125</LatitudeDegrees>
              <LongitudeDegrees>-4.93863536976277828216552734375</LongitudeDegrees>
            </Position>
            <AltitudeMeters>9.19999980926513671875</AltitudeMeters>
            <DistanceMeters>NAN</DistanceMeters>
          </Trackpoint>
          <Trackpoint>
            <Time>2022-07-16T12:55:11.000Z</Time>
            <Position>
              <LatitudeDegrees>43.45333660952746868133544921875</LatitudeDegrees>
              <LongitudeDegrees>-4.93871323764324188232421875</LongitudeDegrees>
            </Position>
            <AltitudeMeters>9.6000003814697265625</AltitudeMeters>
            <DistanceMeters>NAN</DistanceMeters>
          </Trackpoint>
          <Trackpoint>
            <Time>2022-07-16T12:55:13.000Z</Time>
            <Position>
              <LatitudeDegrees>43.453302495181560516357421875</LatitudeDegrees>
              <LongitudeDegrees>-4.93874550797045230865478515625</LongitudeDegrees>
            </Position>
            <AltitudeMeters>9.80000019073486328125</AltitudeMeters>
            <DistanceMeters>NAN</DistanceMeters>
          </Trackpoint>
          <Trackpoint>
            <Time>2022-07-16T12:55:20.000Z</Time>
            <Position>
              <LatitudeDegrees>43.453194200992584228515625</LatitudeDegrees>
              <LongitudeDegrees>-4.93887123651802539825439453125</LongitudeDegrees>
            </Position>
            <AltitudeMeters>10</AltitudeMeters>
            <DistanceMeters>NAN</DistanceMeters>
          </Trackpoint>
          <Trackpoint>
            <Time>2022-07-16T12:55:24.000Z</Time>
            <Position>
              <LatitudeDegrees>43.45315329730510711669921875</LatitudeDegrees>
              <LongitudeDegrees>-4.93893862701952457427978515625</LongitudeDegrees>
            </Position>
            <AltitudeMeters>10</AltitudeMeters>
            <DistanceMeters>NAN</DistanceMeters>
          </Trackpoint>
          <Trackpoint>
            <Time>2022-07-16T12:55:26.000Z</Time>
            <Position>
              <LatitudeDegrees>43.4531377069652080535888671875</LatitudeDegrees>
              <LongitudeDegrees>-4.93898288346827030181884765625</LongitudeDegrees>
            </Position>
            <AltitudeMeters>10</AltitudeMeters>
            <DistanceMeters>NAN</DistanceMeters>
          </Trackpoint>
          <Trackpoint>
            <Time>2022-07-16T12:55:35.000Z</Time>
            <Position>
              <LatitudeDegrees>43.45306319184601306915283203125</LatitudeDegrees>
              <LongitudeDegrees>-4.939188659191131591796875</LongitudeDegrees>
            </Position>
            <AltitudeMeters>10.19999980926513671875</AltitudeMeters>
            <DistanceMeters>NAN</DistanceMeters>
          </Trackpoint>
          <Trackpoint>
            <Time>2022-07-16T12:55:39.000Z</Time>
            <Position>
              <LatitudeDegrees>43.45301256515085697174072265625</LatitudeDegrees>
              <LongitudeDegrees>-4.93927021510899066925048828125</LongitudeDegrees>
            </Position>
            <AltitudeMeters>10.19999980926513671875</AltitudeMeters>
            <DistanceMeters>NAN</DistanceMeters>
          </Trackpoint>
          <Trackpoint>
            <Time>2022-07-16T12:55:42.000Z</Time>
            <Position>
              <LatitudeDegrees>43.4529539756476879119873046875</LatitudeDegrees>
              <LongitudeDegrees>-4.93934598751366138458251953125</LongitudeDegrees>
            </Position>
            <AltitudeMeters>10.3999996185302734375</AltitudeMeters>
            <DistanceMeters>NAN</DistanceMeters>
          </Trackpoint>
          <Trackpoint>
            <Time>2022-07-16T12:55:48.000Z</Time>
            <Position>
              <LatitudeDegrees>43.4528549015522003173828125</LatitudeDegrees>
              <LongitudeDegrees>-4.939446486532688140869140625</LongitudeDegrees>
            </Position>
            <AltitudeMeters>10.6000003814697265625</AltitudeMeters>
            <DistanceMeters>NAN</DistanceMeters>
          </Trackpoint>
          <Trackpoint>
            <Time>2022-07-16T12:55:52.000Z</Time>
            <Position>
              <LatitudeDegrees>43.4527744352817535400390625</LatitudeDegrees>
              <LongitudeDegrees>-4.9394855462014675140380859375</LongitudeDegrees>
            </Position>
            <AltitudeMeters>11</AltitudeMeters>
            <DistanceMeters>NAN</DistanceMeters>
          </Trackpoint>
          <Trackpoint>
            <Time>2022-07-16T12:55:59.000Z</Time>
            <Position>
              <LatitudeDegrees>43.45262934453785419464111328125</LatitudeDegrees>
              <LongitudeDegrees>-4.93951144628226757049560546875</LongitudeDegrees>
            </Position>
            <AltitudeMeters>11.6000003814697265625</AltitudeMeters>
            <DistanceMeters>NAN</DistanceMeters>
          </Trackpoint>
          <Trackpoint>
            <Time>2022-07-16T12:56:00.000Z</Time>
            <Position>
              <LatitudeDegrees>43.45260520465672016143798828125</LatitudeDegrees>
              <LongitudeDegrees>-4.93951412849128246307373046875</LongitudeDegrees>
            </Position>
            <AltitudeMeters>11.80000019073486328125</AltitudeMeters>
            <DistanceMeters>NAN</DistanceMeters>
          </Trackpoint>
          <Trackpoint>
            <Time>2022-07-16T12:56:06.000Z</Time>
            <Position>
              <LatitudeDegrees>43.45248408615589141845703125</LatitudeDegrees>
              <LongitudeDegrees>-4.93952636606991291046142578125</LongitudeDegrees>
            </Position>
            <AltitudeMeters>12.19999980926513671875</AltitudeMeters>
            <DistanceMeters>NAN</DistanceMeters>
          </Trackpoint>
          <Trackpoint>
            <Time>2022-07-16T12:56:14.000Z</Time>
            <Position>
              <LatitudeDegrees>43.45233949832618236541748046875</LatitudeDegrees>
              <LongitudeDegrees>-4.9395784176886081695556640625</LongitudeDegrees>
            </Position>
            <AltitudeMeters>12.80000019073486328125</AltitudeMeters>
            <DistanceMeters>NAN</DistanceMeters>
          </Trackpoint>
          <Trackpoint>
            <Time>2022-07-16T12:56:20.000Z</Time>
            <Position>
              <LatitudeDegrees>43.45222483389079570770263671875</LatitudeDegrees>
              <LongitudeDegrees>-4.9396370910108089447021484375</LongitudeDegrees>
            </Position>
            <AltitudeMeters>13.19999980926513671875</AltitudeMeters>
            <DistanceMeters>NAN</DistanceMeters>
          </Trackpoint>
          <Trackpoint>
            <Time>2022-07-16T12:56:24.000Z</Time>
            <Position>
              <LatitudeDegrees>43.45213078893721103668212890625</LatitudeDegrees>
              <LongitudeDegrees>-4.9396699480712413787841796875</LongitudeDegrees>
            </Position>
            <AltitudeMeters>13.19999980926513671875</AltitudeMeters>
            <DistanceMeters>NAN</DistanceMeters>
          </Trackpoint>
          <Trackpoint>
            <Time>2022-07-16T12:56:31.000Z</Time>
            <Position>
              <LatitudeDegrees>43.4519585408270359039306640625</LatitudeDegrees>
              <LongitudeDegrees>-4.93960984982550144195556640625</LongitudeDegrees>
            </Position>
            <AltitudeMeters>13.19999980926513671875</AltitudeMeters>
            <DistanceMeters>NAN</DistanceMeters>
          </Trackpoint>
          <Trackpoint>
            <Time>2022-07-16T12:56:41.000Z</Time>
            <Position>
              <LatitudeDegrees>43.45167850144207477569580078125</LatitudeDegrees>
              <LongitudeDegrees>-4.939447827637195587158203125</LongitudeDegrees>
            </Position>
            <AltitudeMeters>13.19999980926513671875</AltitudeMeters>
            <DistanceMeters>NAN</DistanceMeters>
          </Trackpoint>
          <Trackpoint>
            <Time>2022-07-16T12:56:43.000Z</Time>
            <Position>
              <LatitudeDegrees>43.45162368379533290863037109375</LatitudeDegrees>
              <LongitudeDegrees>-4.93941740132868289947509765625</LongitudeDegrees>
            </Position>
            <AltitudeMeters>13.19999980926513671875</AltitudeMeters>
            <DistanceMeters>NAN</DistanceMeters>
          </Trackpoint>
          <Trackpoint>
            <Time>2022-07-16T12:56:45.000Z</Time>
            <Position>
              <LatitudeDegrees>43.4515723027288913726806640625</LatitudeDegrees>
              <LongitudeDegrees>-4.9393883161246776580810546875</LongitudeDegrees>
            </Position>
            <AltitudeMeters>13.19999980926513671875</AltitudeMeters>
            <DistanceMeters>NAN</DistanceMeters>
          </Trackpoint>
          <Trackpoint>
            <Time>2022-07-16T12:56:53.000Z</Time>
            <Position>
              <LatitudeDegrees>43.45138513483107089996337890625</LatitudeDegrees>
              <LongitudeDegrees>-4.93928052484989166259765625</LongitudeDegrees>
            </Position>
            <AltitudeMeters>13.3999996185302734375</AltitudeMeters>
            <DistanceMeters>NAN</DistanceMeters>
          </Trackpoint>
          <Trackpoint>
            <Time>2022-07-16T12:57:02.000Z</Time>
            <Position>
              <LatitudeDegrees>43.4511961229145526885986328125</LatitudeDegrees>
              <LongitudeDegrees>-4.939175583422183990478515625</LongitudeDegrees>
            </Position>
            <AltitudeMeters>13.80000019073486328125</AltitudeMeters>
            <DistanceMeters>NAN</DistanceMeters>
          </Trackpoint>
          <Trackpoint>
            <Time>2022-07-16T12:57:07.000Z</Time>
            <Position>
              <LatitudeDegrees>43.4510945342481136322021484375</LatitudeDegrees>
              <LongitudeDegrees>-4.93911833502352237701416015625</LongitudeDegrees>
            </Position>
            <AltitudeMeters>14</AltitudeMeters>
            <DistanceMeters>NAN</DistanceMeters>
          </Trackpoint>
          <Trackpoint>
            <Time>2022-07-16T12:57:10.000Z</Time>
            <Position>
              <LatitudeDegrees>43.45104231499135494232177734375</LatitudeDegrees>
              <LongitudeDegrees>-4.93909050710499286651611328125</LongitudeDegrees>
            </Position>
            <AltitudeMeters>14.19999980926513671875</AltitudeMeters>
            <DistanceMeters>NAN</DistanceMeters>
          </Trackpoint>
          <Trackpoint>
            <Time>2022-07-16T12:57:18.000Z</Time>
            <Position>
              <LatitudeDegrees>43.45089730806648731231689453125</LatitudeDegrees>
              <LongitudeDegrees>-4.9390248768031597137451171875</LongitudeDegrees>
            </Position>
            <AltitudeMeters>14.6000003814697265625</AltitudeMeters>
            <DistanceMeters>NAN</DistanceMeters>
          </Trackpoint>
          <Trackpoint>
            <Time>2022-07-16T12:57:21.000Z</Time>
            <Position>
              <LatitudeDegrees>43.45084802247583866119384765625</LatitudeDegrees>
              <LongitudeDegrees>-4.93899377994239330291748046875</LongitudeDegrees>
            </Position>
            <AltitudeMeters>15</AltitudeMeters>
            <DistanceMeters>NAN</DistanceMeters>
          </Trackpoint>
          <Trackpoint>
            <Time>2022-07-16T12:57:26.000Z</Time>
            <Position>
              <LatitudeDegrees>43.45076068304479122161865234375</LatitudeDegrees>
              <LongitudeDegrees>-4.938946925103664398193359375</LongitudeDegrees>
            </Position>
            <AltitudeMeters>15.3999996185302734375</AltitudeMeters>
            <DistanceMeters>NAN</DistanceMeters>
          </Trackpoint>
          <Trackpoint>
            <Time>2022-07-16T12:57:33.000Z</Time>
            <Position>
              <LatitudeDegrees>43.45065758563578128814697265625</LatitudeDegrees>
              <LongitudeDegrees>-4.93887274526059627532958984375</LongitudeDegrees>
            </Position>
            <AltitudeMeters>15.6000003814697265625</AltitudeMeters>
            <DistanceMeters>NAN</DistanceMeters>
          </Trackpoint>
          <Trackpoint>
            <Time>2022-07-16T12:57:40.000Z</Time>
            <Position>
              <LatitudeDegrees>43.45054945908486843109130859375</LatitudeDegrees>
              <LongitudeDegrees>-4.93880351074039936065673828125</LongitudeDegrees>
            </Position>
            <AltitudeMeters>16</AltitudeMeters>
            <DistanceMeters>NAN</DistanceMeters>
          </Trackpoint>
          <Trackpoint>
            <Time>2022-07-16T12:57:46.000Z</Time>
            <Position>
              <LatitudeDegrees>43.45044803805649280548095703125</LatitudeDegrees>
              <LongitudeDegrees>-4.938784651458263397216796875</LongitudeDegrees>
            </Position>
            <AltitudeMeters>16.3999996185302734375</AltitudeMeters>
            <DistanceMeters>NAN</DistanceMeters>
          </Trackpoint>
          <Trackpoint>
            <Time>2022-07-16T12:57:47.000Z</Time>
            <Position>
              <LatitudeDegrees>43.45043663866817951202392578125</LatitudeDegrees>
              <LongitudeDegrees>-4.93877786211669445037841796875</LongitudeDegrees>
            </Position>
            <AltitudeMeters>16.3999996185302734375</AltitudeMeters>
            <DistanceMeters>NAN</DistanceMeters>
          </Trackpoint>
          <Trackpoint>
            <Time>2022-07-16T12:57:49.000Z</Time>
            <Position>
              <LatitudeDegrees>43.450403027236461639404296875</LatitudeDegrees>
              <LongitudeDegrees>-4.93876595981419086456298828125</LongitudeDegrees>
            </Position>
            <AltitudeMeters>16.6000003814697265625</AltitudeMeters>
            <DistanceMeters>NAN</DistanceMeters>
          </Trackpoint>
          <Trackpoint>
            <Time>2022-07-16T12:57:54.000Z</Time>
            <Position>
              <LatitudeDegrees>43.450334630906581878662109375</LatitudeDegrees>
              <LongitudeDegrees>-4.93876093067228794097900390625</LongitudeDegrees>
            </Position>
            <AltitudeMeters>16.799999237060546875</AltitudeMeters>
            <DistanceMeters>NAN</DistanceMeters>
          </Trackpoint>
          <Trackpoint>
            <Time>2022-07-16T12:58:00.000Z</Time>
            <Position>
              <LatitudeDegrees>43.45019138418138027191162109375</LatitudeDegrees>
              <LongitudeDegrees>-4.93877316825091838836669921875</LongitudeDegrees>
            </Position>
            <AltitudeMeters>16.6000003814697265625</AltitudeMeters>
            <DistanceMeters>NAN</DistanceMeters>
          </Trackpoint>
          <Trackpoint>
            <Time>2022-07-16T12:58:05.000Z</Time>
            <Position>
              <LatitudeDegrees>43.45005392096936702728271484375</LatitudeDegrees>
              <LongitudeDegrees>-4.9387653730809688568115234375</LongitudeDegrees>
            </Position>
            <AltitudeMeters>16.6000003814697265625</AltitudeMeters>
            <DistanceMeters>NAN</DistanceMeters>
          </Trackpoint>
          <Trackpoint>
            <Time>2022-07-16T12:58:06.000Z</Time>
            <Position>
              <LatitudeDegrees>43.45001955516636371612548828125</LatitudeDegrees>
              <LongitudeDegrees>-4.93876093067228794097900390625</LongitudeDegrees>
            </Position>
            <AltitudeMeters>16.6000003814697265625</AltitudeMeters>
            <DistanceMeters>NAN</DistanceMeters>
          </Trackpoint>
          <Trackpoint>
            <Time>2022-07-16T12:58:08.000Z</Time>
            <Position>
              <LatitudeDegrees>43.44996071420609951019287109375</LatitudeDegrees>
              <LongitudeDegrees>-4.93875942192971706390380859375</LongitudeDegrees>
            </Position>
            <AltitudeMeters>16.6000003814697265625</AltitudeMeters>
            <DistanceMeters>NAN</DistanceMeters>
          </Trackpoint>
          <Trackpoint>
            <Time>2022-07-16T12:58:12.000Z</Time>
            <Position>
              <LatitudeDegrees>43.44985015690326690673828125</LatitudeDegrees>
              <LongitudeDegrees>-4.9387603439390659332275390625</LongitudeDegrees>
            </Position>
            <AltitudeMeters>16.799999237060546875</AltitudeMeters>
            <DistanceMeters>NAN</DistanceMeters>
          </Trackpoint>
          <Trackpoint>
            <Time>2022-07-16T12:58:18.000Z</Time>
            <Position>
              <LatitudeDegrees>43.44967983663082122802734375</LatitudeDegrees>
              <LongitudeDegrees>-4.93877937085926532745361328125</LongitudeDegrees>
            </Position>
            <AltitudeMeters>17</AltitudeMeters>
            <DistanceMeters>NAN</DistanceMeters>
          </Trackpoint>
          <Trackpoint>
            <Time>2022-07-16T12:58:23.000Z</Time>
            <Position>
              <LatitudeDegrees>43.4495504200458526611328125</LatitudeDegrees>
              <LongitudeDegrees>-4.9388190172612667083740234375</LongitudeDegrees>
            </Position>
            <AltitudeMeters>17.200000762939453125</AltitudeMeters>
            <DistanceMeters>NAN</DistanceMeters>
          </Trackpoint>
          <Trackpoint>
            <Time>2022-07-16T12:58:29.000Z</Time>
            <Position>
              <LatitudeDegrees>43.4493899904191493988037109375</LatitudeDegrees>
              <LongitudeDegrees>-4.93882589042186737060546875</LongitudeDegrees>
            </Position>
            <AltitudeMeters>17.799999237060546875</AltitudeMeters>
            <DistanceMeters>NAN</DistanceMeters>
          </Trackpoint>
          <Trackpoint>
            <Time>2022-07-16T12:58:33.000Z</Time>
            <Position>
              <LatitudeDegrees>43.4492887370288372039794921875</LatitudeDegrees>
              <LongitudeDegrees>-4.93879244662821292877197265625</LongitudeDegrees>
            </Position>
            <AltitudeMeters>18</AltitudeMeters>
            <DistanceMeters>NAN</DistanceMeters>
          </Trackpoint>
          <Trackpoint>
            <Time>2022-07-16T12:58:36.000Z</Time>
            <Position>
              <LatitudeDegrees>43.44920667819678783416748046875</LatitudeDegrees>
              <LongitudeDegrees>-4.93877199478447437286376953125</LongitudeDegrees>
            </Position>
            <AltitudeMeters>18.200000762939453125</AltitudeMeters>
            <DistanceMeters>NAN</DistanceMeters>
          </Trackpoint>
          <Trackpoint>
            <Time>2022-07-16T12:58:43.000Z</Time>
            <Position>
              <LatitudeDegrees>43.4490354359149932861328125</LatitudeDegrees>
              <LongitudeDegrees>-4.938735701143741607666015625</LongitudeDegrees>
            </Position>
            <AltitudeMeters>18.3999996185302734375</AltitudeMeters>
            <DistanceMeters>NAN</DistanceMeters>
          </Trackpoint>
          <Trackpoint>
            <Time>2022-07-16T12:58:52.000Z</Time>
            <Position>
              <LatitudeDegrees>43.44883033074438571929931640625</LatitudeDegrees>
              <LongitudeDegrees>-4.93868415243923664093017578125</LongitudeDegrees>
            </Position>
            <AltitudeMeters>19</AltitudeMeters>
            <DistanceMeters>NAN</DistanceMeters>
          </Trackpoint>
          <Trackpoint>
            <Time>2022-07-16T12:58:54.000Z</Time>
            <Position>
              <LatitudeDegrees>43.4487791173160076141357421875</LatitudeDegrees>
              <LongitudeDegrees>-4.9386696517467498779296875</LongitudeDegrees>
            </Position>
            <AltitudeMeters>19</AltitudeMeters>
            <DistanceMeters>NAN</DistanceMeters>
          </Trackpoint>
          <Trackpoint>
            <Time>2022-07-16T12:58:58.000Z</Time>
            <Position>
              <LatitudeDegrees>43.44868733547627925872802734375</LatitudeDegrees>
              <LongitudeDegrees>-4.93864894844591617584228515625</LongitudeDegrees>
            </Position>
            <AltitudeMeters>19.200000762939453125</AltitudeMeters>
            <DistanceMeters>NAN</DistanceMeters>
          </Trackpoint>
          <Trackpoint>
            <Time>2022-07-16T12:59:03.000Z</Time>
            <Position>
              <LatitudeDegrees>43.4485853277146816253662109375</LatitudeDegrees>
              <LongitudeDegrees>-4.93858641944825649261474609375</LongitudeDegrees>
            </Position>
            <AltitudeMeters>19.3999996185302734375</AltitudeMeters>
            <DistanceMeters>NAN</DistanceMeters>
          </Trackpoint>
          <Trackpoint>
            <Time>2022-07-16T12:59:12.000Z</Time>
            <Position>
              <LatitudeDegrees>43.44843529164791107177734375</LatitudeDegrees>
              <LongitudeDegrees>-4.938421547412872314453125</LongitudeDegrees>
            </Position>
            <AltitudeMeters>19.799999237060546875</AltitudeMeters>
            <DistanceMeters>NAN</DistanceMeters>
          </Trackpoint>
          <Trackpoint>
            <Time>2022-07-16T12:59:17.000Z</Time>
            <Position>
              <LatitudeDegrees>43.44836496748030185699462890625</LatitudeDegrees>
              <LongitudeDegrees>-4.93831836618483066558837890625</LongitudeDegrees>
            </Position>
            <AltitudeMeters>20.200000762939453125</AltitudeMeters>
            <DistanceMeters>NAN</DistanceMeters>
          </Trackpoint>
          <Trackpoint>
            <Time>2022-07-16T12:59:24.000Z</Time>
            <Position>
              <LatitudeDegrees>43.448269665241241455078125</LatitudeDegrees>
              <LongitudeDegrees>-4.93815709836781024932861328125</LongitudeDegrees>
            </Position>
            <AltitudeMeters>20.3999996185302734375</AltitudeMeters>
            <DistanceMeters>NAN</DistanceMeters>
          </Trackpoint>
          <Trackpoint>
            <Time>2022-07-16T12:59:31.000Z</Time>
            <Position>
              <LatitudeDegrees>43.44818123616278171539306640625</LatitudeDegrees>
              <LongitudeDegrees>-4.93801896460354328155517578125</LongitudeDegrees>
            </Position>
            <AltitudeMeters>20.799999237060546875</AltitudeMeters>
            <DistanceMeters>NAN</DistanceMeters>
          </Trackpoint>
          <Trackpoint>
            <Time>2022-07-16T12:59:39.000Z</Time>
            <Position>
              <LatitudeDegrees>43.4480354748666286468505859375</LatitudeDegrees>
              <LongitudeDegrees>-4.93786188773810863494873046875</LongitudeDegrees>
            </Position>
            <AltitudeMeters>21.200000762939453125</AltitudeMeters>
            <DistanceMeters>NAN</DistanceMeters>
          </Trackpoint>
          <Trackpoint>
            <Time>2022-07-16T12:59:41.000Z</Time>
            <Position>
              <LatitudeDegrees>43.447989709675312042236328125</LatitudeDegrees>
              <LongitudeDegrees>-4.93783372454345226287841796875</LongitudeDegrees>
            </Position>
            <AltitudeMeters>21.200000762939453125</AltitudeMeters>
            <DistanceMeters>NAN</DistanceMeters>
          </Trackpoint>
          <Trackpoint>
            <Time>2022-07-16T12:59:47.000Z</Time>
            <Position>
              <LatitudeDegrees>43.44784311018884181976318359375</LatitudeDegrees>
              <LongitudeDegrees>-4.9377934075891971588134765625</LongitudeDegrees>
            </Position>
            <AltitudeMeters>21.200000762939453125</AltitudeMeters>
            <DistanceMeters>NAN</DistanceMeters>
          </Trackpoint>
          <Trackpoint>
            <Time>2022-07-16T12:59:54.000Z</Time>
            <Position>
              <LatitudeDegrees>43.4476753883063793182373046875</LatitudeDegrees>
              <LongitudeDegrees>-4.93784780614078044891357421875</LongitudeDegrees>
            </Position>
            <AltitudeMeters>21.799999237060546875</AltitudeMeters>
            <DistanceMeters>NAN</DistanceMeters>
          </Trackpoint>
          <Trackpoint>
            <Time>2022-07-16T12:59:58.000Z</Time>
            <Position>
              <LatitudeDegrees>43.44758712686598300933837890625</LatitudeDegrees>
              <LongitudeDegrees>-4.9379084073007106781005859375</LongitudeDegrees>
            </Position>
            <AltitudeMeters>22.200000762939453125</AltitudeMeters>
            <DistanceMeters>NAN</DistanceMeters>
          </Trackpoint>
          <Trackpoint>
            <Time>2022-07-16T13:00:04.000Z</Time>
            <Position>
              <LatitudeDegrees>43.44745695590972900390625</LatitudeDegrees>
              <LongitudeDegrees>-4.937984012067317962646484375</LongitudeDegrees>
            </Position>
            <AltitudeMeters>22.3999996185302734375</AltitudeMeters>
            <DistanceMeters>NAN</DistanceMeters>
          </Trackpoint>
          <Trackpoint>
            <Time>2022-07-16T13:00:08.000Z</Time>
            <Position>
              <LatitudeDegrees>43.44736668281257152557373046875</LatitudeDegrees>
              <LongitudeDegrees>-4.93802768178284168243408203125</LongitudeDegrees>
            </Position>
            <AltitudeMeters>22.6000003814697265625</AltitudeMeters>
            <DistanceMeters>NAN</DistanceMeters>
          </Trackpoint>
          <Trackpoint>
            <Time>2022-07-16T13:00:13.000Z</Time>
            <Position>
              <LatitudeDegrees>43.4472693689167499542236328125</LatitudeDegrees>
              <LongitudeDegrees>-4.9380312860012054443359375</LongitudeDegrees>
            </Position>
            <AltitudeMeters>22.799999237060546875</AltitudeMeters>
            <DistanceMeters>NAN</DistanceMeters>
          </Trackpoint>
          <Trackpoint>
            <Time>2022-07-16T13:00:16.000Z</Time>
            <Position>
              <LatitudeDegrees>43.4472234360873699188232421875</LatitudeDegrees>
              <LongitudeDegrees>-4.93800655938684940338134765625</LongitudeDegrees>
            </Position>
            <AltitudeMeters>23</AltitudeMeters>
            <DistanceMeters>NAN</DistanceMeters>
          </Trackpoint>
          <Trackpoint>
            <Time>2022-07-16T13:00:18.000Z</Time>
            <Position>
              <LatitudeDegrees>43.4472103603184223175048828125</LatitudeDegrees>
              <LongitudeDegrees>-4.93798091076314449310302734375</LongitudeDegrees>
            </Position>
            <AltitudeMeters>23</AltitudeMeters>
            <DistanceMeters>NAN</DistanceMeters>
          </Trackpoint>
          <Trackpoint>
            <Time>2022-07-16T13:00:22.000Z</Time>
            <Position>
              <LatitudeDegrees>43.4471391141414642333984375</LatitudeDegrees>
              <LongitudeDegrees>-4.93791217915713787078857421875</LongitudeDegrees>
            </Position>
            <AltitudeMeters>23.200000762939453125</AltitudeMeters>
            <DistanceMeters>NAN</DistanceMeters>
          </Trackpoint>
          <Trackpoint>
            <Time>2022-07-16T13:00:23.000Z</Time>
            <Position>
              <LatitudeDegrees>43.44711639918386936187744140625</LatitudeDegrees>
              <LongitudeDegrees>-4.93788653053343296051025390625</LongitudeDegrees>
            </Position>
            <AltitudeMeters>23.200000762939453125</AltitudeMeters>
            <DistanceMeters>NAN</DistanceMeters>
          </Trackpoint>
          <Trackpoint>
            <Time>2022-07-16T13:00:26.000Z</Time>
            <Position>
              <LatitudeDegrees>43.44705940224230289459228515625</LatitudeDegrees>
              <LongitudeDegrees>-4.937841854989528656005859375</LongitudeDegrees>
            </Position>
            <AltitudeMeters>23.3999996185302734375</AltitudeMeters>
            <DistanceMeters>NAN</DistanceMeters>
          </Trackpoint>
          <Trackpoint>
            <Time>2022-07-16T13:00:29.000Z</Time>
            <Position>
              <LatitudeDegrees>43.44699720852077007293701171875</LatitudeDegrees>
              <LongitudeDegrees>-4.93783422745764255523681640625</LongitudeDegrees>
            </Position>
            <AltitudeMeters>23.6000003814697265625</AltitudeMeters>
            <DistanceMeters>NAN</DistanceMeters>
          </Trackpoint>
          <Trackpoint>
            <Time>2022-07-16T13:00:32.000Z</Time>
            <Position>
              <LatitudeDegrees>43.44689411111176013946533203125</LatitudeDegrees>
              <LongitudeDegrees>-4.93784210644662380218505859375</LongitudeDegrees>
            </Position>
            <AltitudeMeters>23.6000003814697265625</AltitudeMeters>
            <DistanceMeters>NAN</DistanceMeters>
          </Trackpoint>
          <Trackpoint>
            <Time>2022-07-16T13:00:39.000Z</Time>
            <Position>
              <LatitudeDegrees>43.446740806102752685546875</LatitudeDegrees>
              <LongitudeDegrees>-4.937838502228260040283203125</LongitudeDegrees>
            </Position>
            <AltitudeMeters>23.799999237060546875</AltitudeMeters>
            <DistanceMeters>NAN</DistanceMeters>
          </Trackpoint>
          <Trackpoint>
            <Time>2022-07-16T13:00:45.000Z</Time>
            <Position>
              <LatitudeDegrees>43.44659395515918731689453125</LatitudeDegrees>
              <LongitudeDegrees>-4.937883429229259490966796875</LongitudeDegrees>
            </Position>
            <AltitudeMeters>24.200000762939453125</AltitudeMeters>
            <DistanceMeters>NAN</DistanceMeters>
          </Trackpoint>
          <Trackpoint>
            <Time>2022-07-16T13:00:46.000Z</Time>
            <Position>
              <LatitudeDegrees>43.44657442532479763031005859375</LatitudeDegrees>
              <LongitudeDegrees>-4.93788250721991062164306640625</LongitudeDegrees>
            </Position>
            <AltitudeMeters>24.3999996185302734375</AltitudeMeters>
            <DistanceMeters>NAN</DistanceMeters>
          </Trackpoint>
          <Trackpoint>
            <Time>2022-07-16T13:00:52.000Z</Time>
            <Position>
              <LatitudeDegrees>43.4464895166456699371337890625</LatitudeDegrees>
              <LongitudeDegrees>-4.93788904510438442230224609375</LongitudeDegrees>
            </Position>
            <AltitudeMeters>24.799999237060546875</AltitudeMeters>
            <DistanceMeters>NAN</DistanceMeters>
          </Trackpoint>
          <Trackpoint>
            <Time>2022-07-16T13:00:58.000Z</Time>
            <Position>
              <LatitudeDegrees>43.4463470242917537689208984375</LatitudeDegrees>
              <LongitudeDegrees>-4.937881417572498321533203125</LongitudeDegrees>
            </Position>
            <AltitudeMeters>25.3999996185302734375</AltitudeMeters>
            <DistanceMeters>NAN</DistanceMeters>
          </Trackpoint>
          <Trackpoint>
            <Time>2022-07-16T13:00:59.000Z</Time>
            <Position>
              <LatitudeDegrees>43.44632632099092006683349609375</LatitudeDegrees>
              <LongitudeDegrees>-4.93787898682057857513427734375</LongitudeDegrees>
            </Position>
            <AltitudeMeters>25.3999996185302734375</AltitudeMeters>
            <DistanceMeters>NAN</DistanceMeters>
          </Trackpoint>
          <Trackpoint>
            <Time>2022-07-16T13:01:03.000Z</Time>
            <Position>
              <LatitudeDegrees>43.44624367542564868927001953125</LatitudeDegrees>
              <LongitudeDegrees>-4.93786440230906009674072265625</LongitudeDegrees>
            </Position>
            <AltitudeMeters>25.6000003814697265625</AltitudeMeters>
            <DistanceMeters>NAN</DistanceMeters>
          </Trackpoint>
          <Trackpoint>
            <Time>2022-07-16T13:01:05.000Z</Time>
            <Position>
              <LatitudeDegrees>43.4462015144526958465576171875</LatitudeDegrees>
              <LongitudeDegrees>-4.9378604628145694732666015625</LongitudeDegrees>
            </Position>
            <AltitudeMeters>25.6000003814697265625</AltitudeMeters>
            <DistanceMeters>NAN</DistanceMeters>
          </Trackpoint>
          <Trackpoint>
            <Time>2022-07-16T13:01:10.000Z</Time>
            <Position>
              <LatitudeDegrees>43.4460563398897647857666015625</LatitudeDegrees>
              <LongitudeDegrees>-4.9378691799938678741455078125</LongitudeDegrees>
            </Position>
            <AltitudeMeters>26</AltitudeMeters>
            <DistanceMeters>NAN</DistanceMeters>
          </Trackpoint>
          <Trackpoint>
            <Time>2022-07-16T13:01:12.000Z</Time>
            <Position>
              <LatitudeDegrees>43.44602976925671100616455078125</LatitudeDegrees>
              <LongitudeDegrees>-4.93788971565663814544677734375</LongitudeDegrees>
            </Position>
            <AltitudeMeters>26</AltitudeMeters>
            <DistanceMeters>NAN</DistanceMeters>
          </Trackpoint>
          <Trackpoint>
            <Time>2022-07-16T13:01:14.000Z</Time>
            <Position>
              <LatitudeDegrees>43.44599121250212192535400390625</LatitudeDegrees>
              <LongitudeDegrees>-4.93792961351573467254638671875</LongitudeDegrees>
            </Position>
            <AltitudeMeters>26</AltitudeMeters>
            <DistanceMeters>NAN</DistanceMeters>
          </Trackpoint>
          <Trackpoint>
            <Time>2022-07-16T13:01:20.000Z</Time>
            <Position>
              <LatitudeDegrees>43.4458437748253345489501953125</LatitudeDegrees>
              <LongitudeDegrees>-4.93796900846064090728759765625</LongitudeDegrees>
            </Position>
            <AltitudeMeters>26.3999996185302734375</AltitudeMeters>
            <DistanceMeters>NAN</DistanceMeters>
          </Trackpoint>
          <Trackpoint>
            <Time>2022-07-16T13:01:26.000Z</Time>
            <Position>
              <LatitudeDegrees>43.445702455937862396240234375</LatitudeDegrees>
              <LongitudeDegrees>-4.9380793981254100799560546875</LongitudeDegrees>
            </Position>
            <AltitudeMeters>26.799999237060546875</AltitudeMeters>
            <DistanceMeters>NAN</DistanceMeters>
          </Trackpoint>
          <Trackpoint>
            <Time>2022-07-16T13:01:32.000Z</Time>
            <Position>
              <LatitudeDegrees>43.44558167271316051483154296875</LatitudeDegrees>
              <LongitudeDegrees>-4.938244186341762542724609375</LongitudeDegrees>
            </Position>
            <AltitudeMeters>27.200000762939453125</AltitudeMeters>
            <DistanceMeters>NAN</DistanceMeters>
          </Trackpoint>
          <Trackpoint>
            <Time>2022-07-16T13:01:33.000Z</Time>
            <Position>
              <LatitudeDegrees>43.44556205905973911285400390625</LatitudeDegrees>
              <LongitudeDegrees>-4.93825147859752178192138671875</LongitudeDegrees>
            </Position>
            <AltitudeMeters>27.3999996185302734375</AltitudeMeters>
            <DistanceMeters>NAN</DistanceMeters>
          </Trackpoint>
          <Trackpoint>
            <Time>2022-07-16T13:01:34.000Z</Time>
            <Position>
              <LatitudeDegrees>43.44554596580564975738525390625</LatitudeDegrees>
              <LongitudeDegrees>-4.9382601119577884674072265625</LongitudeDegrees>
            </Position>
            <AltitudeMeters>27.3999996185302734375</AltitudeMeters>
            <DistanceMeters>NAN</DistanceMeters>
          </Trackpoint>
          <Trackpoint>
            <Time>2022-07-16T13:01:35.000Z</Time>
            <Position>
              <LatitudeDegrees>43.44553573988378047943115234375</LatitudeDegrees>
              <LongitudeDegrees>-4.93826908059418201446533203125</LongitudeDegrees>
            </Position>
            <AltitudeMeters>27.6000003814697265625</AltitudeMeters>
            <DistanceMeters>NAN</DistanceMeters>
          </Trackpoint>
          <Trackpoint>
            <Time>2022-07-16T13:01:36.000Z</Time>
            <Position>
              <LatitudeDegrees>43.44552618451416492462158203125</LatitudeDegrees>
              <LongitudeDegrees>-4.93827830068767070770263671875</LongitudeDegrees>
            </Position>
            <AltitudeMeters>27.6000003814697265625</AltitudeMeters>
            <DistanceMeters>NAN</DistanceMeters>
          </Trackpoint>
          <Trackpoint>
            <Time>2022-07-16T13:01:37.000Z</Time>
            <Position>
              <LatitudeDegrees>43.44551411457359790802001953125</LatitudeDegrees>
              <LongitudeDegrees>-4.9382892809808254241943359375</LongitudeDegrees>
            </Position>
            <AltitudeMeters>27.6000003814697265625</AltitudeMeters>
            <DistanceMeters>NAN</DistanceMeters>
          </Trackpoint>
          <Trackpoint>
            <Time>2022-07-16T13:01:41.000Z</Time>
            <Position>
              <LatitudeDegrees>43.44544270075857639312744140625</LatitudeDegrees>
              <LongitudeDegrees>-4.938326664268970489501953125</LongitudeDegrees>
            </Position>
            <AltitudeMeters>28.200000762939453125</AltitudeMeters>
            <DistanceMeters>NAN</DistanceMeters>
          </Trackpoint>
          <Trackpoint>
            <Time>2022-07-16T13:01:42.000Z</Time>
            <Position>
              <LatitudeDegrees>43.4454340673983097076416015625</LatitudeDegrees>
              <LongitudeDegrees>-4.938336722552776336669921875</LongitudeDegrees>
            </Position>
            <AltitudeMeters>28.200000762939453125</AltitudeMeters>
            <DistanceMeters>NAN</DistanceMeters>
          </Trackpoint>
          <Trackpoint>
            <Time>2022-07-16T13:01:44.000Z</Time>
            <Position>
              <LatitudeDegrees>43.44541152007877826690673828125</LatitudeDegrees>
              <LongitudeDegrees>-4.93836714886128902435302734375</LongitudeDegrees>
            </Position>
            <AltitudeMeters>28.3999996185302734375</AltitudeMeters>
            <DistanceMeters>NAN</DistanceMeters>
          </Trackpoint>
          <Trackpoint>
            <Time>2022-07-16T13:01:46.000Z</Time>
            <Position>
              <LatitudeDegrees>43.44537564553320407867431640625</LatitudeDegrees>
              <LongitudeDegrees>-4.938407130539417266845703125</LongitudeDegrees>
            </Position>
            <AltitudeMeters>28.3999996185302734375</AltitudeMeters>
            <DistanceMeters>NAN</DistanceMeters>
          </Trackpoint>
          <Trackpoint>
            <Time>2022-07-16T13:01:50.000Z</Time>
            <Position>
              <LatitudeDegrees>43.445300124585628509521484375</LatitudeDegrees>
              <LongitudeDegrees>-4.9384435079991817474365234375</LongitudeDegrees>
            </Position>
            <AltitudeMeters>28.799999237060546875</AltitudeMeters>
            <DistanceMeters>NAN</DistanceMeters>
          </Trackpoint>
          <Trackpoint>
            <Time>2022-07-16T13:01:51.000Z</Time>
            <Position>
              <LatitudeDegrees>43.44528897665441036224365234375</LatitudeDegrees>
              <LongitudeDegrees>-4.93843604810535907745361328125</LongitudeDegrees>
            </Position>
            <AltitudeMeters>29</AltitudeMeters>
            <DistanceMeters>NAN</DistanceMeters>
          </Trackpoint>
          <Trackpoint>
            <Time>2022-07-16T13:01:52.000Z</Time>
            <Position>
              <LatitudeDegrees>43.44527372159063816070556640625</LatitudeDegrees>
              <LongitudeDegrees>-4.938437975943088531494140625</LongitudeDegrees>
            </Position>
            <AltitudeMeters>29</AltitudeMeters>
            <DistanceMeters>NAN</DistanceMeters>
          </Trackpoint>
          <Trackpoint>
            <Time>2022-07-16T13:01:56.000Z</Time>
            <Position>
              <LatitudeDegrees>43.44520012848079204559326171875</LatitudeDegrees>
              <LongitudeDegrees>-4.9384596012532711029052734375</LongitudeDegrees>
            </Position>
            <AltitudeMeters>29.3999996185302734375</AltitudeMeters>
            <DistanceMeters>NAN</DistanceMeters>
          </Trackpoint>
          <Trackpoint>
            <Time>2022-07-16T13:01:58.000Z</Time>
            <Position>
              <LatitudeDegrees>43.44515101052820682525634765625</LatitudeDegrees>
              <LongitudeDegrees>-4.93845297954976558685302734375</LongitudeDegrees>
            </Position>
            <AltitudeMeters>29.6000003814697265625</AltitudeMeters>
            <DistanceMeters>NAN</DistanceMeters>
          </Trackpoint>
          <Trackpoint>
            <Time>2022-07-16T13:02:03.000Z</Time>
            <Position>
              <LatitudeDegrees>43.4450255334377288818359375</LatitudeDegrees>
              <LongitudeDegrees>-4.93849371559917926788330078125</LongitudeDegrees>
            </Position>
            <AltitudeMeters>30</AltitudeMeters>
            <DistanceMeters>NAN</DistanceMeters>
          </Trackpoint>
          <Trackpoint>
            <Time>2022-07-16T13:02:08.000Z</Time>
            <Position>
              <LatitudeDegrees>43.44492503441870212554931640625</LatitudeDegrees>
              <LongitudeDegrees>-4.938592202961444854736328125</LongitudeDegrees>
            </Position>
            <AltitudeMeters>30.200000762939453125</AltitudeMeters>
            <DistanceMeters>NAN</DistanceMeters>
          </Trackpoint>
          <Trackpoint>
            <Time>2022-07-16T13:02:16.000Z</Time>
            <Position>
              <LatitudeDegrees>43.4447551332414150238037109375</LatitudeDegrees>
              <LongitudeDegrees>-4.93878699839115142822265625</LongitudeDegrees>
            </Position>
            <AltitudeMeters>30.3999996185302734375</AltitudeMeters>
            <DistanceMeters>NAN</DistanceMeters>
          </Trackpoint>
          <Trackpoint>
            <Time>2022-07-16T13:02:23.000Z</Time>
            <Position>
              <LatitudeDegrees>43.44458363950252532958984375</LatitudeDegrees>
              <LongitudeDegrees>-4.93888263590633869171142578125</LongitudeDegrees>
            </Position>
            <AltitudeMeters>30.200000762939453125</AltitudeMeters>
            <DistanceMeters>NAN</DistanceMeters>
          </Trackpoint>
          <Trackpoint>
            <Time>2022-07-16T13:02:33.000Z</Time>
            <Position>
              <LatitudeDegrees>43.44432924874126911163330078125</LatitudeDegrees>
              <LongitudeDegrees>-4.93901439942419528961181640625</LongitudeDegrees>
            </Position>
            <AltitudeMeters>30.200000762939453125</AltitudeMeters>
            <DistanceMeters>NAN</DistanceMeters>
          </Trackpoint>
          <Trackpoint>
            <Time>2022-07-16T13:02:40.000Z</Time>
            <Position>
              <LatitudeDegrees>43.44415104947984218597412109375</LatitudeDegrees>
              <LongitudeDegrees>-4.9391147308051586151123046875</LongitudeDegrees>
            </Position>
            <AltitudeMeters>30.3999996185302734375</AltitudeMeters>
            <DistanceMeters>NAN</DistanceMeters>
          </Trackpoint>
          <Trackpoint>
            <Time>2022-07-16T13:02:42.000Z</Time>
            <Position>
              <LatitudeDegrees>43.44410830177366733551025390625</LatitudeDegrees>
              <LongitudeDegrees>-4.9391331709921360015869140625</LongitudeDegrees>
            </Position>
            <AltitudeMeters>30.3999996185302734375</AltitudeMeters>
            <DistanceMeters>NAN</DistanceMeters>
          </Trackpoint>
          <Trackpoint>
            <Time>2022-07-16T13:02:46.000Z</Time>
            <Position>
              <LatitudeDegrees>43.44400419853627681732177734375</LatitudeDegrees>
              <LongitudeDegrees>-4.9391631782054901123046875</LongitudeDegrees>
            </Position>
            <AltitudeMeters>30.6000003814697265625</AltitudeMeters>
            <DistanceMeters>NAN</DistanceMeters>
          </Trackpoint>
          <Trackpoint>
            <Time>2022-07-16T13:02:47.000Z</Time>
            <Position>
              <LatitudeDegrees>43.443979807198047637939453125</LatitudeDegrees>
              <LongitudeDegrees>-4.939169548451900482177734375</LongitudeDegrees>
            </Position>
            <AltitudeMeters>30.799999237060546875</AltitudeMeters>
            <DistanceMeters>NAN</DistanceMeters>
          </Trackpoint>
          <Trackpoint>
            <Time>2022-07-16T13:02:54.000Z</Time>
            <Position>
              <LatitudeDegrees>43.44381057657301425933837890625</LatitudeDegrees>
              <LongitudeDegrees>-4.93920718319714069366455078125</LongitudeDegrees>
            </Position>
            <AltitudeMeters>31.200000762939453125</AltitudeMeters>
            <DistanceMeters>NAN</DistanceMeters>
          </Trackpoint>
          <Trackpoint>
            <Time>2022-07-16T13:03:02.000Z</Time>
            <Position>
              <LatitudeDegrees>43.443617038428783416748046875</LatitudeDegrees>
              <LongitudeDegrees>-4.93925127200782299041748046875</LongitudeDegrees>
            </Position>
            <AltitudeMeters>31.3999996185302734375</AltitudeMeters>
            <DistanceMeters>NAN</DistanceMeters>
          </Trackpoint>
          <Trackpoint>
            <Time>2022-07-16T13:03:03.000Z</Time>
            <Position>
              <LatitudeDegrees>43.4435905516147613525390625</LatitudeDegrees>
              <LongitudeDegrees>-4.93925479240715503692626953125</LongitudeDegrees>
            </Position>
            <AltitudeMeters>31.3999996185302734375</AltitudeMeters>
            <DistanceMeters>NAN</DistanceMeters>
          </Trackpoint>
          <Trackpoint>
            <Time>2022-07-16T13:03:09.000Z</Time>
            <Position>
              <LatitudeDegrees>43.4434354864060878753662109375</LatitudeDegrees>
              <LongitudeDegrees>-4.93928764946758747100830078125</LongitudeDegrees>
            </Position>
            <AltitudeMeters>31.6000003814697265625</AltitudeMeters>
            <DistanceMeters>NAN</DistanceMeters>
          </Trackpoint>
          <Trackpoint>
            <Time>2022-07-16T13:03:11.000Z</Time>
            <Position>
              <LatitudeDegrees>43.44338779337704181671142578125</LatitudeDegrees>
              <LongitudeDegrees>-4.93929871357977390289306640625</LongitudeDegrees>
            </Position>
            <AltitudeMeters>31.799999237060546875</AltitudeMeters>
            <DistanceMeters>NAN</DistanceMeters>
          </Trackpoint>
          <Trackpoint>
            <Time>2022-07-16T13:03:17.000Z</Time>
            <Position>
              <LatitudeDegrees>43.44323557801544666290283203125</LatitudeDegrees>
              <LongitudeDegrees>-4.93933408521115779876708984375</LongitudeDegrees>
            </Position>
            <AltitudeMeters>32</AltitudeMeters>
            <DistanceMeters>NAN</DistanceMeters>
          </Trackpoint>
          <Trackpoint>
            <Time>2022-07-16T13:03:25.000Z</Time>
            <Position>
              <LatitudeDegrees>43.44306425191462039947509765625</LatitudeDegrees>
              <LongitudeDegrees>-4.9394429661333560943603515625</LongitudeDegrees>
            </Position>
            <AltitudeMeters>32.59999847412109375</AltitudeMeters>
            <DistanceMeters>NAN</DistanceMeters>
          </Trackpoint>
          <Trackpoint>
            <Time>2022-07-16T13:03:29.000Z</Time>
            <Position>
              <LatitudeDegrees>43.442980349063873291015625</LatitudeDegrees>
              <LongitudeDegrees>-4.93947590701282024383544921875</LongitudeDegrees>
            </Position>
            <AltitudeMeters>32.799999237060546875</AltitudeMeters>
            <DistanceMeters>NAN</DistanceMeters>
          </Trackpoint>
          <Trackpoint>
            <Time>2022-07-16T13:03:31.000Z</Time>
            <Position>
              <LatitudeDegrees>43.44293885864317417144775390625</LatitudeDegrees>
              <LongitudeDegrees>-4.9395016394555568695068359375</LongitudeDegrees>
            </Position>
            <AltitudeMeters>32.799999237060546875</AltitudeMeters>
            <DistanceMeters>NAN</DistanceMeters>
          </Trackpoint>
          <Trackpoint>
            <Time>2022-07-16T13:03:38.000Z</Time>
            <Position>
              <LatitudeDegrees>43.44278479926288127899169921875</LatitudeDegrees>
              <LongitudeDegrees>-4.9395985342562198638916015625</LongitudeDegrees>
            </Position>
            <AltitudeMeters>33.200000762939453125</AltitudeMeters>
            <DistanceMeters>NAN</DistanceMeters>
          </Trackpoint>
          <Trackpoint>
            <Time>2022-07-16T13:03:44.000Z</Time>
            <Position>
              <LatitudeDegrees>43.44266116619110107421875</LatitudeDegrees>
              <LongitudeDegrees>-4.93967271409928798675537109375</LongitudeDegrees>
            </Position>
            <AltitudeMeters>33.40000152587890625</AltitudeMeters>
            <DistanceMeters>NAN</DistanceMeters>
          </Trackpoint>
          <Trackpoint>
            <Time>2022-07-16T13:03:50.000Z</Time>
            <Position>
              <LatitudeDegrees>43.44253770075738430023193359375</LatitudeDegrees>
              <LongitudeDegrees>-4.93975636549293994903564453125</LongitudeDegrees>
            </Position>
            <AltitudeMeters>33.799999237060546875</AltitudeMeters>
            <DistanceMeters>NAN</DistanceMeters>
          </Trackpoint>
          <Trackpoint>
            <Time>2022-07-16T13:03:51.000Z</Time>
            <Position>
              <LatitudeDegrees>43.4425118006765842437744140625</LatitudeDegrees>
              <LongitudeDegrees>-4.93977363221347332000732421875</LongitudeDegrees>
            </Position>
            <AltitudeMeters>33.799999237060546875</AltitudeMeters>
            <DistanceMeters>NAN</DistanceMeters>
          </Trackpoint>
          <Trackpoint>
            <Time>2022-07-16T13:03:56.000Z</Time>
            <Position>
              <LatitudeDegrees>43.4424159117043018341064453125</LatitudeDegrees>
              <LongitudeDegrees>-4.9398298747837543487548828125</LongitudeDegrees>
            </Position>
            <AltitudeMeters>34.200000762939453125</AltitudeMeters>
            <DistanceMeters>NAN</DistanceMeters>
          </Trackpoint>
          <Trackpoint>
            <Time>2022-07-16T13:03:57.000Z</Time>
            <Position>
              <LatitudeDegrees>43.4423914365470409393310546875</LatitudeDegrees>
              <LongitudeDegrees>-4.93984471075236797332763671875</LongitudeDegrees>
            </Position>
            <AltitudeMeters>34.200000762939453125</AltitudeMeters>
            <DistanceMeters>NAN</DistanceMeters>
          </Trackpoint>
          <Trackpoint>
            <Time>2022-07-16T13:04:07.000Z</Time>
            <Position>
              <LatitudeDegrees>43.4421959705650806427001953125</LatitudeDegrees>
              <LongitudeDegrees>-4.9399562738835811614990234375</LongitudeDegrees>
            </Position>
            <AltitudeMeters>34.799999237060546875</AltitudeMeters>
            <DistanceMeters>NAN</DistanceMeters>
          </Trackpoint>
          <Trackpoint>
            <Time>2022-07-16T13:04:10.000Z</Time>
            <Position>
              <LatitudeDegrees>43.4421383030712604522705078125</LatitudeDegrees>
              <LongitudeDegrees>-4.9399921484291553497314453125</LongitudeDegrees>
            </Position>
            <AltitudeMeters>34.799999237060546875</AltitudeMeters>
            <DistanceMeters>NAN</DistanceMeters>
          </Trackpoint>
          <Trackpoint>
            <Time>2022-07-16T13:04:15.000Z</Time>
            <Position>
              <LatitudeDegrees>43.44203964807093143463134765625</LatitudeDegrees>
              <LongitudeDegrees>-4.9400571919977664947509765625</LongitudeDegrees>
            </Position>
            <AltitudeMeters>35.200000762939453125</AltitudeMeters>
            <DistanceMeters>NAN</DistanceMeters>
          </Trackpoint>
          <Trackpoint>
            <Time>2022-07-16T13:04:17.000Z</Time>
            <Position>
              <LatitudeDegrees>43.442005030810832977294921875</LatitudeDegrees>
              <LongitudeDegrees>-4.94008191861212253570556640625</LongitudeDegrees>
            </Position>
            <AltitudeMeters>35.200000762939453125</AltitudeMeters>
            <DistanceMeters>NAN</DistanceMeters>
          </Trackpoint>
          <Trackpoint>
            <Time>2022-07-16T13:04:23.000Z</Time>
            <Position>
              <LatitudeDegrees>43.441894389688968658447265625</LatitudeDegrees>
              <LongitudeDegrees>-4.94017277844250202178955078125</LongitudeDegrees>
            </Position>
            <AltitudeMeters>35.40000152587890625</AltitudeMeters>
            <DistanceMeters>NAN</DistanceMeters>
          </Trackpoint>
          <Trackpoint>
            <Time>2022-07-16T13:04:29.000Z</Time>
            <Position>
              <LatitudeDegrees>43.44177536666393280029296875</LatitudeDegrees>
              <LongitudeDegrees>-4.94025458581745624542236328125</LongitudeDegrees>
            </Position>
            <AltitudeMeters>35.59999847412109375</AltitudeMeters>
            <DistanceMeters>NAN</DistanceMeters>
          </Trackpoint>
          <Trackpoint>
            <Time>2022-07-16T13:04:34.000Z</Time>
            <Position>
              <LatitudeDegrees>43.441679812967777252197265625</LatitudeDegrees>
              <LongitudeDegrees>-4.9403200484812259674072265625</LongitudeDegrees>
            </Position>
            <AltitudeMeters>35.799999237060546875</AltitudeMeters>
            <DistanceMeters>NAN</DistanceMeters>
          </Trackpoint>
          <Trackpoint>
            <Time>2022-07-16T13:04:36.000Z</Time>
            <Position>
              <LatitudeDegrees>43.441640920937061309814453125</LatitudeDegrees>
              <LongitudeDegrees>-4.94033773429691791534423828125</LongitudeDegrees>
            </Position>
            <AltitudeMeters>36</AltitudeMeters>
            <DistanceMeters>NAN</DistanceMeters>
          </Trackpoint>
          <Trackpoint>
            <Time>2022-07-16T13:04:37.000Z</Time>
            <Position>
              <LatitudeDegrees>43.44162382185459136962890625</LatitudeDegrees>
              <LongitudeDegrees>-4.94034938514232635498046875</LongitudeDegrees>
            </Position>
            <AltitudeMeters>36</AltitudeMeters>
            <DistanceMeters>NAN</DistanceMeters>
          </Trackpoint>
          <Trackpoint>
            <Time>2022-07-16T13:04:45.000Z</Time>
            <Position>
              <LatitudeDegrees>43.441461212933063507080078125</LatitudeDegrees>
              <LongitudeDegrees>-4.940428845584392547607421875</LongitudeDegrees>
            </Position>
            <AltitudeMeters>36.40000152587890625</AltitudeMeters>
            <DistanceMeters>NAN</DistanceMeters>
          </Trackpoint>
          <Trackpoint>
            <Time>2022-07-16T13:04:50.000Z</Time>
            <Position>
              <LatitudeDegrees>43.4413695149123668670654296875</LatitudeDegrees>
              <LongitudeDegrees>-4.940473772585391998291015625</LongitudeDegrees>
            </Position>
            <AltitudeMeters>36.40000152587890625</AltitudeMeters>
            <DistanceMeters>NAN</DistanceMeters>
          </Trackpoint>
          <Trackpoint>
            <Time>2022-07-16T13:04:56.000Z</Time>
            <Position>
              <LatitudeDegrees>43.4412662498652935028076171875</LatitudeDegrees>
              <LongitudeDegrees>-4.9405418336391448974609375</LongitudeDegrees>
            </Position>
            <AltitudeMeters>36.799999237060546875</AltitudeMeters>
            <DistanceMeters>NAN</DistanceMeters>
          </Trackpoint>
          <Trackpoint>
            <Time>2022-07-16T13:04:58.000Z</Time>
            <Position>
              <LatitudeDegrees>43.44122861512005329132080078125</LatitudeDegrees>
              <LongitudeDegrees>-4.94056387804448604583740234375</LongitudeDegrees>
            </Position>
            <AltitudeMeters>37</AltitudeMeters>
            <DistanceMeters>NAN</DistanceMeters>
          </Trackpoint>
          <Trackpoint>
            <Time>2022-07-16T13:05:04.000Z</Time>
            <Position>
              <LatitudeDegrees>43.441121578216552734375</LatitudeDegrees>
              <LongitudeDegrees>-4.9406244792044162750244140625</LongitudeDegrees>
            </Position>
            <AltitudeMeters>37.40000152587890625</AltitudeMeters>
            <DistanceMeters>NAN</DistanceMeters>
          </Trackpoint>
          <Trackpoint>
            <Time>2022-07-16T13:05:10.000Z</Time>
            <Position>
              <LatitudeDegrees>43.44101403839886188507080078125</LatitudeDegrees>
              <LongitudeDegrees>-4.9407108128070831298828125</LongitudeDegrees>
            </Position>
            <AltitudeMeters>37.59999847412109375</AltitudeMeters>
            <DistanceMeters>NAN</DistanceMeters>
          </Trackpoint>
          <Trackpoint>
            <Time>2022-07-16T13:05:17.000Z</Time>
            <Position>
              <LatitudeDegrees>43.4408815205097198486328125</LatitudeDegrees>
              <LongitudeDegrees>-4.9407978169620037078857421875</LongitudeDegrees>
            </Position>
            <AltitudeMeters>37.799999237060546875</AltitudeMeters>
            <DistanceMeters>NAN</DistanceMeters>
          </Trackpoint>
          <Trackpoint>
            <Time>2022-07-16T13:05:19.000Z</Time>
            <Position>
              <LatitudeDegrees>43.44083935953676700592041015625</LatitudeDegrees>
              <LongitudeDegrees>-4.9408216215670108795166015625</LongitudeDegrees>
            </Position>
            <AltitudeMeters>38</AltitudeMeters>
            <DistanceMeters>NAN</DistanceMeters>
          </Trackpoint>
          <Trackpoint>
            <Time>2022-07-16T13:05:24.000Z</Time>
            <Position>
              <LatitudeDegrees>43.44074045307934284210205078125</LatitudeDegrees>
              <LongitudeDegrees>-4.9408987350761890411376953125</LongitudeDegrees>
            </Position>
            <AltitudeMeters>38.200000762939453125</AltitudeMeters>
            <DistanceMeters>NAN</DistanceMeters>
          </Trackpoint>
          <Trackpoint>
            <Time>2022-07-16T13:05:32.000Z</Time>
            <Position>
              <LatitudeDegrees>43.44057868234813213348388671875</LatitudeDegrees>
              <LongitudeDegrees>-4.9409986473619937896728515625</LongitudeDegrees>
            </Position>
            <AltitudeMeters>38.59999847412109375</AltitudeMeters>
            <DistanceMeters>NAN</DistanceMeters>
          </Trackpoint>
          <Trackpoint>
            <Time>2022-07-16T13:05:39.000Z</Time>
            <Position>
              <LatitudeDegrees>43.4404387883841991424560546875</LatitudeDegrees>
              <LongitudeDegrees>-4.94106561876833438873291015625</LongitudeDegrees>
            </Position>
            <AltitudeMeters>39</AltitudeMeters>
            <DistanceMeters>NAN</DistanceMeters>
          </Trackpoint>
          <Trackpoint>
            <Time>2022-07-16T13:05:48.000Z</Time>
            <Position>
              <LatitudeDegrees>43.4402755089104175567626953125</LatitudeDegrees>
              <LongitudeDegrees>-4.94115647859871387481689453125</LongitudeDegrees>
            </Position>
            <AltitudeMeters>39.59999847412109375</AltitudeMeters>
            <DistanceMeters>NAN</DistanceMeters>
          </Trackpoint>
          <Trackpoint>
            <Time>2022-07-16T13:05:55.000Z</Time>
            <Position>
              <LatitudeDegrees>43.440150953829288482666015625</LatitudeDegrees>
              <LongitudeDegrees>-4.94123308919370174407958984375</LongitudeDegrees>
            </Position>
            <AltitudeMeters>39.799999237060546875</AltitudeMeters>
            <DistanceMeters>NAN</DistanceMeters>
          </Trackpoint>
          <Trackpoint>
            <Time>2022-07-16T13:06:00.000Z</Time>
            <Position>
              <LatitudeDegrees>43.44006906263530254364013671875</LatitudeDegrees>
              <LongitudeDegrees>-4.94129092432558536529541015625</LongitudeDegrees>
            </Position>
            <AltitudeMeters>40</AltitudeMeters>
            <DistanceMeters>NAN</DistanceMeters>
          </Trackpoint>
          <Trackpoint>
            <Time>2022-07-16T13:06:03.000Z</Time>
            <Position>
              <LatitudeDegrees>43.4400099702179431915283203125</LatitudeDegrees>
              <LongitudeDegrees>-4.94132730178534984588623046875</LongitudeDegrees>
            </Position>
            <AltitudeMeters>40.200000762939453125</AltitudeMeters>
            <DistanceMeters>NAN</DistanceMeters>
          </Trackpoint>
          <Trackpoint>
            <Time>2022-07-16T13:06:11.000Z</Time>
            <Position>
              <LatitudeDegrees>43.4398590959608554840087890625</LatitudeDegrees>
              <LongitudeDegrees>-4.94140575639903545379638671875</LongitudeDegrees>
            </Position>
            <AltitudeMeters>40.59999847412109375</AltitudeMeters>
            <DistanceMeters>NAN</DistanceMeters>
          </Trackpoint>
          <Trackpoint>
            <Time>2022-07-16T13:06:17.000Z</Time>
            <Position>
              <LatitudeDegrees>43.4397585131227970123291015625</LatitudeDegrees>
              <LongitudeDegrees>-4.94148119352757930755615234375</LongitudeDegrees>
            </Position>
            <AltitudeMeters>41</AltitudeMeters>
            <DistanceMeters>NAN</DistanceMeters>
          </Trackpoint>
          <Trackpoint>
            <Time>2022-07-16T13:06:21.000Z</Time>
            <Position>
              <LatitudeDegrees>43.43968533910810947418212890625</LatitudeDegrees>
              <LongitudeDegrees>-4.94152293540537357330322265625</LongitudeDegrees>
            </Position>
            <AltitudeMeters>41.200000762939453125</AltitudeMeters>
            <DistanceMeters>NAN</DistanceMeters>
          </Trackpoint>
          <Trackpoint>
            <Time>2022-07-16T13:06:30.000Z</Time>
            <Position>
              <LatitudeDegrees>43.439517952501773834228515625</LatitudeDegrees>
              <LongitudeDegrees>-4.9415937624871730804443359375</LongitudeDegrees>
            </Position>
            <AltitudeMeters>41.59999847412109375</AltitudeMeters>
            <DistanceMeters>NAN</DistanceMeters>
          </Trackpoint>
          <Trackpoint>
            <Time>2022-07-16T13:06:39.000Z</Time>
            <Position>
              <LatitudeDegrees>43.43935810960829257965087890625</LatitudeDegrees>
              <LongitudeDegrees>-4.94163215160369873046875</LongitudeDegrees>
            </Position>
            <AltitudeMeters>42</AltitudeMeters>
            <DistanceMeters>NAN</DistanceMeters>
          </Trackpoint>
          <Trackpoint>
            <Time>2022-07-16T13:06:45.000Z</Time>
            <Position>
              <LatitudeDegrees>43.43924026004970073699951171875</LatitudeDegrees>
              <LongitudeDegrees>-4.94164547882974147796630859375</LongitudeDegrees>
            </Position>
            <AltitudeMeters>42</AltitudeMeters>
            <DistanceMeters>NAN</DistanceMeters>
          </Trackpoint>
          <Trackpoint>
            <Time>2022-07-16T13:06:48.000Z</Time>
            <Position>
              <LatitudeDegrees>43.43918158672749996185302734375</LatitudeDegrees>
              <LongitudeDegrees>-4.94164883159101009368896484375</LongitudeDegrees>
            </Position>
            <AltitudeMeters>42.200000762939453125</AltitudeMeters>
            <DistanceMeters>NAN</DistanceMeters>
          </Trackpoint>
          <Trackpoint>
            <Time>2022-07-16T13:06:49.000Z</Time>
            <Position>
              <LatitudeDegrees>43.43916415236890316009521484375</LatitudeDegrees>
              <LongitudeDegrees>-4.94165352545678615570068359375</LongitudeDegrees>
            </Position>
            <AltitudeMeters>42.200000762939453125</AltitudeMeters>
            <DistanceMeters>NAN</DistanceMeters>
          </Trackpoint>
          <Trackpoint>
            <Time>2022-07-16T13:06:58.000Z</Time>
            <Position>
              <LatitudeDegrees>43.43899567611515522003173828125</LatitudeDegrees>
              <LongitudeDegrees>-4.941692166030406951904296875</LongitudeDegrees>
            </Position>
            <AltitudeMeters>43</AltitudeMeters>
            <DistanceMeters>NAN</DistanceMeters>
          </Trackpoint>
          <Trackpoint>
            <Time>2022-07-16T13:07:01.000Z</Time>
            <Position>
              <LatitudeDegrees>43.4389340691268444061279296875</LatitudeDegrees>
              <LongitudeDegrees>-4.9417059123516082763671875</LongitudeDegrees>
            </Position>
            <AltitudeMeters>43.200000762939453125</AltitudeMeters>
            <DistanceMeters>NAN</DistanceMeters>
          </Trackpoint>
          <Trackpoint>
            <Time>2022-07-16T13:07:07.000Z</Time>
            <Position>
              <LatitudeDegrees>43.43881286680698394775390625</LatitudeDegrees>
              <LongitudeDegrees>-4.941735081374645233154296875</LongitudeDegrees>
            </Position>
            <AltitudeMeters>43.59999847412109375</AltitudeMeters>
            <DistanceMeters>NAN</DistanceMeters>
          </Trackpoint>
          <Trackpoint>
            <Time>2022-07-16T13:07:15.000Z</Time>
            <Position>
              <LatitudeDegrees>43.43865319155156612396240234375</LatitudeDegrees>
              <LongitudeDegrees>-4.941766262054443359375</LongitudeDegrees>
            </Position>
            <AltitudeMeters>43.59999847412109375</AltitudeMeters>
            <DistanceMeters>NAN</DistanceMeters>
          </Trackpoint>
          <Trackpoint>
            <Time>2022-07-16T13:07:20.000Z</Time>
            <Position>
              <LatitudeDegrees>43.438558392226696014404296875</LatitudeDegrees>
              <LongitudeDegrees>-4.941808842122554779052734375</LongitudeDegrees>
            </Position>
            <AltitudeMeters>43.59999847412109375</AltitudeMeters>
            <DistanceMeters>NAN</DistanceMeters>
          </Trackpoint>
          <Trackpoint>
            <Time>2022-07-16T13:07:24.000Z</Time>
            <Position>
              <LatitudeDegrees>43.43848505057394504547119140625</LatitudeDegrees>
              <LongitudeDegrees>-4.94183960370719432830810546875</LongitudeDegrees>
            </Position>
            <AltitudeMeters>43.799999237060546875</AltitudeMeters>
            <DistanceMeters>NAN</DistanceMeters>
          </Trackpoint>
          <Trackpoint>
            <Time>2022-07-16T13:07:32.000Z</Time>
            <Position>
              <LatitudeDegrees>43.4383426420390605926513671875</LatitudeDegrees>
              <LongitudeDegrees>-4.94189341552555561065673828125</LongitudeDegrees>
            </Position>
            <AltitudeMeters>44.200000762939453125</AltitudeMeters>
            <DistanceMeters>NAN</DistanceMeters>
          </Trackpoint>
          <Trackpoint>
            <Time>2022-07-16T13:07:33.000Z</Time>
            <Position>
              <LatitudeDegrees>43.43832646496593952178955078125</LatitudeDegrees>
              <LongitudeDegrees>-4.9419012106955051422119140625</LongitudeDegrees>
            </Position>
            <AltitudeMeters>44.200000762939453125</AltitudeMeters>
            <DistanceMeters>NAN</DistanceMeters>
          </Trackpoint>
          <Trackpoint>
            <Time>2022-07-16T13:07:34.000Z</Time>
            <Position>
              <LatitudeDegrees>43.43831506557762622833251953125</LatitudeDegrees>
              <LongitudeDegrees>-4.9419139511883258819580078125</LongitudeDegrees>
            </Position>
            <AltitudeMeters>44.40000152587890625</AltitudeMeters>
            <DistanceMeters>NAN</DistanceMeters>
          </Trackpoint>
          <Trackpoint>
            <Time>2022-07-16T13:07:36.000Z</Time>
            <Position>
              <LatitudeDegrees>43.4383064322173595428466796875</LatitudeDegrees>
              <LongitudeDegrees>-4.94194521568715572357177734375</LongitudeDegrees>
            </Position>
            <AltitudeMeters>44.59999847412109375</AltitudeMeters>
            <DistanceMeters>NAN</DistanceMeters>
          </Trackpoint>
          <Trackpoint>
            <Time>2022-07-16T13:07:37.000Z</Time>
            <Position>
              <LatitudeDegrees>43.43831129372119903564453125</LatitudeDegrees>
              <LongitudeDegrees>-4.94196617044508457183837890625</LongitudeDegrees>
            </Position>
            <AltitudeMeters>44.799999237060546875</AltitudeMeters>
            <DistanceMeters>NAN</DistanceMeters>
          </Trackpoint>
          <Trackpoint>
            <Time>2022-07-16T13:07:42.000Z</Time>
            <Position>
              <LatitudeDegrees>43.43832881189882755279541015625</LatitudeDegrees>
              <LongitudeDegrees>-4.942051582038402557373046875</LongitudeDegrees>
            </Position>
            <AltitudeMeters>45.200000762939453125</AltitudeMeters>
            <DistanceMeters>NAN</DistanceMeters>
          </Trackpoint>
          <Trackpoint>
            <Time>2022-07-16T13:07:44.000Z</Time>
            <Position>
              <LatitudeDegrees>43.4383195079863071441650390625</LatitudeDegrees>
              <LongitudeDegrees>-4.942085444927215576171875</LongitudeDegrees>
            </Position>
            <AltitudeMeters>45.40000152587890625</AltitudeMeters>
            <DistanceMeters>NAN</DistanceMeters>
          </Trackpoint>
          <Trackpoint>
            <Time>2022-07-16T13:07:46.000Z</Time>
            <Position>
              <LatitudeDegrees>43.43831975944340229034423828125</LatitudeDegrees>
              <LongitudeDegrees>-4.94211184792220592498779296875</LongitudeDegrees>
            </Position>
            <AltitudeMeters>45.59999847412109375</AltitudeMeters>
            <DistanceMeters>NAN</DistanceMeters>
          </Trackpoint>
          <Trackpoint>
            <Time>2022-07-16T13:07:48.000Z</Time>
            <Position>
              <LatitudeDegrees>43.43832327984273433685302734375</LatitudeDegrees>
              <LongitudeDegrees>-4.942116625607013702392578125</LongitudeDegrees>
            </Position>
            <AltitudeMeters>45.59999847412109375</AltitudeMeters>
            <DistanceMeters>NAN</DistanceMeters>
          </Trackpoint>
          <Trackpoint>
            <Time>2022-07-16T13:07:49.000Z</Time>
            <Position>
              <LatitudeDegrees>43.43832327984273433685302734375</LatitudeDegrees>
              <LongitudeDegrees>-4.942116625607013702392578125</LongitudeDegrees>
            </Position>
            <AltitudeMeters>45.59999847412109375</AltitudeMeters>
            <DistanceMeters>NAN</DistanceMeters>
          </Trackpoint>
          <Trackpoint>
            <Time>2022-07-16T13:10:41.000Z</Time>
            <Position>
              <LatitudeDegrees>43.43835211358964443206787109375</LatitudeDegrees>
              <LongitudeDegrees>-4.94213095866143703460693359375</LongitudeDegrees>
            </Position>
            <AltitudeMeters>45.799999237060546875</AltitudeMeters>
            <DistanceMeters>NAN</DistanceMeters>
          </Trackpoint>
          <Trackpoint>
            <Time>2022-07-16T13:10:42.000Z</Time>
            <Position>
              <LatitudeDegrees>43.438373990356922149658203125</LatitudeDegrees>
              <LongitudeDegrees>-4.94213582016527652740478515625</LongitudeDegrees>
            </Position>
            <AltitudeMeters>45.799999237060546875</AltitudeMeters>
            <DistanceMeters>NAN</DistanceMeters>
          </Trackpoint>
          <Trackpoint>
            <Time>2022-07-16T13:10:44.000Z</Time>
            <Position>
              <LatitudeDegrees>43.4384138882160186767578125</LatitudeDegrees>
              <LongitudeDegrees>-4.942158199846744537353515625</LongitudeDegrees>
            </Position>
            <AltitudeMeters>45.799999237060546875</AltitudeMeters>
            <DistanceMeters>NAN</DistanceMeters>
          </Trackpoint>
          <Trackpoint>
            <Time>2022-07-16T13:10:45.000Z</Time>
            <Position>
              <LatitudeDegrees>43.43843241222202777862548828125</LatitudeDegrees>
              <LongitudeDegrees>-4.94217689149081707000732421875</LongitudeDegrees>
            </Position>
            <AltitudeMeters>46.59999847412109375</AltitudeMeters>
            <DistanceMeters>NAN</DistanceMeters>
          </Trackpoint>
          <Trackpoint>
            <Time>2022-07-16T13:10:48.000Z</Time>
            <Position>
              <LatitudeDegrees>43.438469208776950836181640625</LatitudeDegrees>
              <LongitudeDegrees>-4.942230284214019775390625</LongitudeDegrees>
            </Position>
            <AltitudeMeters>47.59999847412109375</AltitudeMeters>
            <DistanceMeters>NAN</DistanceMeters>
          </Trackpoint>
          <Trackpoint>
            <Time>2022-07-16T13:10:49.000Z</Time>
            <Position>
              <LatitudeDegrees>43.438481278717517852783203125</LatitudeDegrees>
              <LongitudeDegrees>-4.9422512389719486236572265625</LongitudeDegrees>
            </Position>
            <AltitudeMeters>47.59999847412109375</AltitudeMeters>
            <DistanceMeters>NAN</DistanceMeters>
          </Trackpoint>
          <Trackpoint>
            <Time>2022-07-16T13:10:51.000Z</Time>
            <Position>
              <LatitudeDegrees>43.43850198201835155487060546875</LatitudeDegrees>
              <LongitudeDegrees>-4.94228468276560306549072265625</LongitudeDegrees>
            </Position>
            <AltitudeMeters>47.799999237060546875</AltitudeMeters>
            <DistanceMeters>NAN</DistanceMeters>
          </Trackpoint>
          <Trackpoint>
            <Time>2022-07-16T13:10:53.000Z</Time>
            <Position>
              <LatitudeDegrees>43.4385144710540771484375</LatitudeDegrees>
              <LongitudeDegrees>-4.94232089258730411529541015625</LongitudeDegrees>
            </Position>
            <AltitudeMeters>48</AltitudeMeters>
            <DistanceMeters>NAN</DistanceMeters>
          </Trackpoint>
          <Trackpoint>
            <Time>2022-07-16T13:10:56.000Z</Time>
            <Position>
              <LatitudeDegrees>43.43854187987744808197021484375</LatitudeDegrees>
              <LongitudeDegrees>-4.9423764646053314208984375</LongitudeDegrees>
            </Position>
            <AltitudeMeters>48.200000762939453125</AltitudeMeters>
            <DistanceMeters>NAN</DistanceMeters>
          </Trackpoint>
          <Trackpoint>
            <Time>2022-07-16T13:10:58.000Z</Time>
            <Position>
              <LatitudeDegrees>43.4385575540363788604736328125</LatitudeDegrees>
              <LongitudeDegrees>-4.94240756146609783172607421875</LongitudeDegrees>
            </Position>
            <AltitudeMeters>48.40000152587890625</AltitudeMeters>
            <DistanceMeters>NAN</DistanceMeters>
          </Trackpoint>
          <Trackpoint>
            <Time>2022-07-16T13:11:01.000Z</Time>
            <Position>
              <LatitudeDegrees>43.43858043663203716278076171875</LatitudeDegrees>
              <LongitudeDegrees>-4.94247076101601123809814453125</LongitudeDegrees>
            </Position>
            <AltitudeMeters>48.59999847412109375</AltitudeMeters>
            <DistanceMeters>NAN</DistanceMeters>
          </Trackpoint>
          <Trackpoint>
            <Time>2022-07-16T13:11:02.000Z</Time>
            <Position>
              <LatitudeDegrees>43.43858353793621063232421875</LatitudeDegrees>
              <LongitudeDegrees>-4.94249758310616016387939453125</LongitudeDegrees>
            </Position>
            <AltitudeMeters>48.799999237060546875</AltitudeMeters>
            <DistanceMeters>NAN</DistanceMeters>
          </Trackpoint>
          <Trackpoint>
            <Time>2022-07-16T13:11:04.000Z</Time>
            <Position>
              <LatitudeDegrees>43.438589908182621002197265625</LatitudeDegrees>
              <LongitudeDegrees>-4.94253530167043209075927734375</LongitudeDegrees>
            </Position>
            <AltitudeMeters>49</AltitudeMeters>
            <DistanceMeters>NAN</DistanceMeters>
          </Trackpoint>
          <Trackpoint>
            <Time>2022-07-16T13:11:05.000Z</Time>
            <Position>
              <LatitudeDegrees>43.43859485350549221038818359375</LatitudeDegrees>
              <LongitudeDegrees>-4.9425553344190120697021484375</LongitudeDegrees>
            </Position>
            <AltitudeMeters>49.200000762939453125</AltitudeMeters>
            <DistanceMeters>NAN</DistanceMeters>
          </Trackpoint>
          <Trackpoint>
            <Time>2022-07-16T13:11:07.000Z</Time>
            <Position>
              <LatitudeDegrees>43.43860457651317119598388671875</LatitudeDegrees>
              <LongitudeDegrees>-4.9426039494574069976806640625</LongitudeDegrees>
            </Position>
            <AltitudeMeters>49.200000762939453125</AltitudeMeters>
            <DistanceMeters>NAN</DistanceMeters>
          </Trackpoint>
          <Trackpoint>
            <Time>2022-07-16T13:11:10.000Z</Time>
            <Position>
              <LatitudeDegrees>43.4386152215301990509033203125</LatitudeDegrees>
              <LongitudeDegrees>-4.94267276488244533538818359375</LongitudeDegrees>
            </Position>
            <AltitudeMeters>49.59999847412109375</AltitudeMeters>
            <DistanceMeters>NAN</DistanceMeters>
          </Trackpoint>
          <Trackpoint>
            <Time>2022-07-16T13:11:11.000Z</Time>
            <Position>
              <LatitudeDegrees>43.4386138804256916046142578125</LatitudeDegrees>
              <LongitudeDegrees>-4.94269656948745250701904296875</LongitudeDegrees>
            </Position>
            <AltitudeMeters>49.799999237060546875</AltitudeMeters>
            <DistanceMeters>NAN</DistanceMeters>
          </Trackpoint>
          <Trackpoint>
            <Time>2022-07-16T13:11:13.000Z</Time>
            <Position>
              <LatitudeDegrees>43.4386145509779453277587890625</LatitudeDegrees>
              <LongitudeDegrees>-4.9427474476397037506103515625</LongitudeDegrees>
            </Position>
            <AltitudeMeters>49.799999237060546875</AltitudeMeters>
            <DistanceMeters>NAN</DistanceMeters>
          </Trackpoint>
          <Trackpoint>
            <Time>2022-07-16T13:11:19.000Z</Time>
            <Position>
              <LatitudeDegrees>43.43861245550215244293212890625</LatitudeDegrees>
              <LongitudeDegrees>-4.94290142320096492767333984375</LongitudeDegrees>
            </Position>
            <AltitudeMeters>50.200000762939453125</AltitudeMeters>
            <DistanceMeters>NAN</DistanceMeters>
          </Trackpoint>
          <Trackpoint>
            <Time>2022-07-16T13:11:22.000Z</Time>
            <Position>
              <LatitudeDegrees>43.43861077912151813507080078125</LatitudeDegrees>
              <LongitudeDegrees>-4.94296613149344921112060546875</LongitudeDegrees>
            </Position>
            <AltitudeMeters>50.59999847412109375</AltitudeMeters>
            <DistanceMeters>NAN</DistanceMeters>
          </Trackpoint>
          <Trackpoint>
            <Time>2022-07-16T13:11:25.000Z</Time>
            <Position>
              <LatitudeDegrees>43.43859963119029998779296875</LatitudeDegrees>
              <LongitudeDegrees>-4.943021871149539947509765625</LongitudeDegrees>
            </Position>
            <AltitudeMeters>50.799999237060546875</AltitudeMeters>
            <DistanceMeters>NAN</DistanceMeters>
          </Trackpoint>
          <Trackpoint>
            <Time>2022-07-16T13:11:29.000Z</Time>
            <Position>
              <LatitudeDegrees>43.4385753236711025238037109375</LatitudeDegrees>
              <LongitudeDegrees>-4.94311063550412654876708984375</LongitudeDegrees>
            </Position>
            <AltitudeMeters>51</AltitudeMeters>
            <DistanceMeters>NAN</DistanceMeters>
          </Trackpoint>
          <Trackpoint>
            <Time>2022-07-16T13:11:39.000Z</Time>
            <Position>
              <LatitudeDegrees>43.4385250322520732879638671875</LatitudeDegrees>
              <LongitudeDegrees>-4.94332118891179561614990234375</LongitudeDegrees>
            </Position>
            <AltitudeMeters>51.799999237060546875</AltitudeMeters>
            <DistanceMeters>NAN</DistanceMeters>
          </Trackpoint>
          <Trackpoint>
            <Time>2022-07-16T13:11:46.000Z</Time>
            <Position>
              <LatitudeDegrees>43.4385129623115062713623046875</LatitudeDegrees>
              <LongitudeDegrees>-4.94339226745069026947021484375</LongitudeDegrees>
            </Position>
            <AltitudeMeters>51.799999237060546875</AltitudeMeters>
            <DistanceMeters>NAN</DistanceMeters>
          </Trackpoint>
          <Trackpoint>
            <Time>2022-07-16T13:12:58.000Z</Time>
            <Position>
              <LatitudeDegrees>43.4385059215128421783447265625</LatitudeDegrees>
              <LongitudeDegrees>-4.943442642688751220703125</LongitudeDegrees>
            </Position>
            <AltitudeMeters>50.799999237060546875</AltitudeMeters>
            <DistanceMeters>NAN</DistanceMeters>
          </Trackpoint>
          <Trackpoint>
            <Time>2022-07-16T13:12:59.000Z</Time>
            <Position>
              <LatitudeDegrees>43.4384975396096706390380859375</LatitudeDegrees>
              <LongitudeDegrees>-4.9434709735214710235595703125</LongitudeDegrees>
            </Position>
            <AltitudeMeters>51</AltitudeMeters>
            <DistanceMeters>NAN</DistanceMeters>
          </Trackpoint>
          <Trackpoint>
            <Time>2022-07-16T13:13:06.000Z</Time>
            <Position>
              <LatitudeDegrees>43.43845068477094173431396484375</LatitudeDegrees>
              <LongitudeDegrees>-4.94366803206503391265869140625</LongitudeDegrees>
            </Position>
            <AltitudeMeters>51.40000152587890625</AltitudeMeters>
            <DistanceMeters>NAN</DistanceMeters>
          </Trackpoint>
          <Trackpoint>
            <Time>2022-07-16T13:13:11.000Z</Time>
            <Position>
              <LatitudeDegrees>43.4384217672049999237060546875</LatitudeDegrees>
              <LongitudeDegrees>-4.9437049962580204010009765625</LongitudeDegrees>
            </Position>
            <AltitudeMeters>51.799999237060546875</AltitudeMeters>
            <DistanceMeters>NAN</DistanceMeters>
          </Trackpoint>
          <Trackpoint>
            <Time>2022-07-16T13:13:13.000Z</Time>
            <Position>
              <LatitudeDegrees>43.43841883353888988494873046875</LatitudeDegrees>
              <LongitudeDegrees>-4.94366048835217952728271484375</LongitudeDegrees>
            </Position>
            <AltitudeMeters>51.799999237060546875</AltitudeMeters>
            <DistanceMeters>NAN</DistanceMeters>
          </Trackpoint>
          <Trackpoint>
            <Time>2022-07-16T13:13:15.000Z</Time>
            <Position>
              <LatitudeDegrees>43.43844649381935596466064453125</LatitudeDegrees>
              <LongitudeDegrees>-4.94359485805034637451171875</LongitudeDegrees>
            </Position>
            <AltitudeMeters>51.59999847412109375</AltitudeMeters>
            <DistanceMeters>NAN</DistanceMeters>
          </Trackpoint>
          <Trackpoint>
            <Time>2022-07-16T13:13:18.000Z</Time>
            <Position>
              <LatitudeDegrees>43.43852863647043704986572265625</LatitudeDegrees>
              <LongitudeDegrees>-4.94352285750210285186767578125</LongitudeDegrees>
            </Position>
            <AltitudeMeters>51</AltitudeMeters>
            <DistanceMeters>NAN</DistanceMeters>
          </Trackpoint>
          <Trackpoint>
            <Time>2022-07-16T13:13:19.000Z</Time>
            <Position>
              <LatitudeDegrees>43.43856702558696269989013671875</LatitudeDegrees>
              <LongitudeDegrees>-4.9435028247535228729248046875</LongitudeDegrees>
            </Position>
            <AltitudeMeters>50.799999237060546875</AltitudeMeters>
            <DistanceMeters>NAN</DistanceMeters>
          </Trackpoint>
          <Trackpoint>
            <Time>2022-07-16T13:13:22.000Z</Time>
            <Position>
              <LatitudeDegrees>43.43870960175991058349609375</LatitudeDegrees>
              <LongitudeDegrees>-4.94343250058591365814208984375</LongitudeDegrees>
            </Position>
            <AltitudeMeters>49.799999237060546875</AltitudeMeters>
            <DistanceMeters>NAN</DistanceMeters>
          </Trackpoint>
          <Trackpoint>
            <Time>2022-07-16T13:13:24.000Z</Time>
            <Position>
              <LatitudeDegrees>43.4387986175715923309326171875</LatitudeDegrees>
              <LongitudeDegrees>-4.9433807842433452606201171875</LongitudeDegrees>
            </Position>
            <AltitudeMeters>49.40000152587890625</AltitudeMeters>
            <DistanceMeters>NAN</DistanceMeters>
          </Trackpoint>
          <Trackpoint>
            <Time>2022-07-16T13:13:31.000Z</Time>
            <Position>
              <LatitudeDegrees>43.4390369988977909088134765625</LatitudeDegrees>
              <LongitudeDegrees>-4.94324172846972942352294921875</LongitudeDegrees>
            </Position>
            <AltitudeMeters>49.40000152587890625</AltitudeMeters>
            <DistanceMeters>NAN</DistanceMeters>
          </Trackpoint>
          <Trackpoint>
            <Time>2022-07-16T13:13:36.000Z</Time>
            <Position>
              <LatitudeDegrees>43.43915325589478015899658203125</LatitudeDegrees>
              <LongitudeDegrees>-4.943235777318477630615234375</LongitudeDegrees>
            </Position>
            <AltitudeMeters>49.200000762939453125</AltitudeMeters>
            <DistanceMeters>NAN</DistanceMeters>
          </Trackpoint>
          <Trackpoint>
            <Time>2022-07-16T13:13:41.000Z</Time>
            <Position>
              <LatitudeDegrees>43.43928803689777851104736328125</LatitudeDegrees>
              <LongitudeDegrees>-4.94321121834218502044677734375</LongitudeDegrees>
            </Position>
            <AltitudeMeters>49.40000152587890625</AltitudeMeters>
            <DistanceMeters>NAN</DistanceMeters>
          </Trackpoint>
          <Trackpoint>
            <Time>2022-07-16T13:13:43.000Z</Time>
            <Position>
              <LatitudeDegrees>43.4393243305385112762451171875</LatitudeDegrees>
              <LongitudeDegrees>-4.94319059886038303375244140625</LongitudeDegrees>
            </Position>
            <AltitudeMeters>49.40000152587890625</AltitudeMeters>
            <DistanceMeters>NAN</DistanceMeters>
          </Trackpoint>
          <Trackpoint>
            <Time>2022-07-16T13:13:47.000Z</Time>
            <Position>
              <LatitudeDegrees>43.4394027851521968841552734375</LatitudeDegrees>
              <LongitudeDegrees>-4.94314198382198810577392578125</LongitudeDegrees>
            </Position>
            <AltitudeMeters>50</AltitudeMeters>
            <DistanceMeters>NAN</DistanceMeters>
          </Trackpoint>
          <Trackpoint>
            <Time>2022-07-16T13:13:52.000Z</Time>
            <Position>
              <LatitudeDegrees>43.43951015733182430267333984375</LatitudeDegrees>
              <LongitudeDegrees>-4.94309823028743267059326171875</LongitudeDegrees>
            </Position>
            <AltitudeMeters>50.40000152587890625</AltitudeMeters>
            <DistanceMeters>NAN</DistanceMeters>
          </Trackpoint>
          <Trackpoint>
            <Time>2022-07-16T13:13:53.000Z</Time>
            <Position>
              <LatitudeDegrees>43.43953111208975315093994140625</LatitudeDegrees>
              <LongitudeDegrees>-4.9430870823562145233154296875</LongitudeDegrees>
            </Position>
            <AltitudeMeters>50.40000152587890625</AltitudeMeters>
            <DistanceMeters>NAN</DistanceMeters>
          </Trackpoint>
          <Trackpoint>
            <Time>2022-07-16T13:13:59.000Z</Time>
            <Position>
              <LatitudeDegrees>43.439631946384906768798828125</LatitudeDegrees>
              <LongitudeDegrees>-4.9430523812770843505859375</LongitudeDegrees>
            </Position>
            <AltitudeMeters>50.59999847412109375</AltitudeMeters>
            <DistanceMeters>NAN</DistanceMeters>
          </Trackpoint>
          <Trackpoint>
            <Time>2022-07-16T13:14:01.000Z</Time>
            <Position>
              <LatitudeDegrees>43.43967846594750881195068359375</LatitudeDegrees>
              <LongitudeDegrees>-4.94306637905538082122802734375</LongitudeDegrees>
            </Position>
            <AltitudeMeters>50.799999237060546875</AltitudeMeters>
            <DistanceMeters>NAN</DistanceMeters>
          </Trackpoint>
          <Trackpoint>
            <Time>2022-07-16T13:14:06.000Z</Time>
            <Position>
              <LatitudeDegrees>43.43979480676352977752685546875</LatitudeDegrees>
              <LongitudeDegrees>-4.94309454225003719329833984375</LongitudeDegrees>
            </Position>
            <AltitudeMeters>51.200000762939453125</AltitudeMeters>
            <DistanceMeters>NAN</DistanceMeters>
          </Trackpoint>
          <Trackpoint>
            <Time>2022-07-16T13:14:09.000Z</Time>
            <Position>
              <LatitudeDegrees>43.43987024389207363128662109375</LatitudeDegrees>
              <LongitudeDegrees>-4.943070821464061737060546875</LongitudeDegrees>
            </Position>
            <AltitudeMeters>51.40000152587890625</AltitudeMeters>
            <DistanceMeters>NAN</DistanceMeters>
          </Trackpoint>
          <Trackpoint>
            <Time>2022-07-16T13:14:11.000Z</Time>
            <Position>
              <LatitudeDegrees>43.43991667963564395904541015625</LatitudeDegrees>
              <LongitudeDegrees>-4.94306084699928760528564453125</LongitudeDegrees>
            </Position>
            <AltitudeMeters>51.59999847412109375</AltitudeMeters>
            <DistanceMeters>NAN</DistanceMeters>
          </Trackpoint>
          <Trackpoint>
            <Time>2022-07-16T13:14:12.000Z</Time>
            <Position>
              <LatitudeDegrees>43.4399395622313022613525390625</LatitudeDegrees>
              <LongitudeDegrees>-4.94306352920830249786376953125</LongitudeDegrees>
            </Position>
            <AltitudeMeters>51.59999847412109375</AltitudeMeters>
            <DistanceMeters>NAN</DistanceMeters>
          </Trackpoint>
          <Trackpoint>
            <Time>2022-07-16T13:14:16.000Z</Time>
            <Position>
              <LatitudeDegrees>43.4400297515094280242919921875</LatitudeDegrees>
              <LongitudeDegrees>-4.94307124055922031402587890625</LongitudeDegrees>
            </Position>
            <AltitudeMeters>51.799999237060546875</AltitudeMeters>
            <DistanceMeters>NAN</DistanceMeters>
          </Trackpoint>
          <Trackpoint>
            <Time>2022-07-16T13:14:20.000Z</Time>
            <Position>
              <LatitudeDegrees>43.44011583365499973297119140625</LatitudeDegrees>
              <LongitudeDegrees>-4.94306914508342742919921875</LongitudeDegrees>
            </Position>
            <AltitudeMeters>52.40000152587890625</AltitudeMeters>
            <DistanceMeters>NAN</DistanceMeters>
          </Trackpoint>
          <Trackpoint>
            <Time>2022-07-16T13:14:21.000Z</Time>
            <Position>
              <LatitudeDegrees>43.44014869071543216705322265625</LatitudeDegrees>
              <LongitudeDegrees>-4.94306914508342742919921875</LongitudeDegrees>
            </Position>
            <AltitudeMeters>52.40000152587890625</AltitudeMeters>
            <DistanceMeters>NAN</DistanceMeters>
          </Trackpoint>
          <Trackpoint>
            <Time>2022-07-16T13:14:24.000Z</Time>
            <Position>
              <LatitudeDegrees>43.4402165003120899200439453125</LatitudeDegrees>
              <LongitudeDegrees>-4.94303436018526554107666015625</LongitudeDegrees>
            </Position>
            <AltitudeMeters>52.799999237060546875</AltitudeMeters>
            <DistanceMeters>NAN</DistanceMeters>
          </Trackpoint>
          <Trackpoint>
            <Time>2022-07-16T13:14:25.000Z</Time>
            <Position>
              <LatitudeDegrees>43.4402431547641754150390625</LatitudeDegrees>
              <LongitudeDegrees>-4.94302698411047458648681640625</LongitudeDegrees>
            </Position>
            <AltitudeMeters>52.799999237060546875</AltitudeMeters>
            <DistanceMeters>NAN</DistanceMeters>
          </Trackpoint>
          <Trackpoint>
            <Time>2022-07-16T13:14:29.000Z</Time>
            <Position>
              <LatitudeDegrees>43.4403133951127529144287109375</LatitudeDegrees>
              <LongitudeDegrees>-4.9430374614894390106201171875</LongitudeDegrees>
            </Position>
            <AltitudeMeters>53.40000152587890625</AltitudeMeters>
            <DistanceMeters>NAN</DistanceMeters>
          </Trackpoint>
          <Trackpoint>
            <Time>2022-07-16T13:14:33.000Z</Time>
            <Position>
              <LatitudeDegrees>43.4403472580015659332275390625</LatitudeDegrees>
              <LongitudeDegrees>-4.943028576672077178955078125</LongitudeDegrees>
            </Position>
            <AltitudeMeters>54</AltitudeMeters>
            <DistanceMeters>NAN</DistanceMeters>
          </Trackpoint>
          <Trackpoint>
            <Time>2022-07-16T13:14:36.000Z</Time>
            <Position>
              <LatitudeDegrees>43.44039327464997768402099609375</LatitudeDegrees>
              <LongitudeDegrees>-4.94301952421665191650390625</LongitudeDegrees>
            </Position>
            <AltitudeMeters>54.40000152587890625</AltitudeMeters>
            <DistanceMeters>NAN</DistanceMeters>
          </Trackpoint>
          <Trackpoint>
            <Time>2022-07-16T13:14:41.000Z</Time>
            <Position>
              <LatitudeDegrees>43.4404639340937137603759765625</LatitudeDegrees>
              <LongitudeDegrees>-4.94299110956490039825439453125</LongitudeDegrees>
            </Position>
            <AltitudeMeters>55</AltitudeMeters>
            <DistanceMeters>NAN</DistanceMeters>
          </Trackpoint>
          <Trackpoint>
            <Time>2022-07-16T13:14:44.000Z</Time>
            <Position>
              <LatitudeDegrees>43.44051363877952098846435546875</LatitudeDegrees>
              <LongitudeDegrees>-4.9429704062640666961669921875</LongitudeDegrees>
            </Position>
            <AltitudeMeters>55.200000762939453125</AltitudeMeters>
            <DistanceMeters>NAN</DistanceMeters>
          </Trackpoint>
          <Trackpoint>
            <Time>2022-07-16T13:14:51.000Z</Time>
            <Position>
              <LatitudeDegrees>43.4406138025224208831787109375</LatitudeDegrees>
              <LongitudeDegrees>-4.94296361692249774932861328125</LongitudeDegrees>
            </Position>
            <AltitudeMeters>56</AltitudeMeters>
            <DistanceMeters>NAN</DistanceMeters>
          </Trackpoint>
          <Trackpoint>
            <Time>2022-07-16T13:14:52.000Z</Time>
            <Position>
              <LatitudeDegrees>43.44063065014779567718505859375</LatitudeDegrees>
              <LongitudeDegrees>-4.94296629913151264190673828125</LongitudeDegrees>
            </Position>
            <AltitudeMeters>56</AltitudeMeters>
            <DistanceMeters>NAN</DistanceMeters>
          </Trackpoint>
          <Trackpoint>
            <Time>2022-07-16T13:15:01.000Z</Time>
            <Position>
              <LatitudeDegrees>43.44075185246765613555908203125</LatitudeDegrees>
              <LongitudeDegrees>-4.94297568686306476593017578125</LongitudeDegrees>
            </Position>
            <AltitudeMeters>57.200000762939453125</AltitudeMeters>
            <DistanceMeters>NAN</DistanceMeters>
          </Trackpoint>
          <Trackpoint>
            <Time>2022-07-16T13:15:04.000Z</Time>
            <Position>
              <LatitudeDegrees>43.44081203453242778778076171875</LatitudeDegrees>
              <LongitudeDegrees>-4.94299806654453277587890625</LongitudeDegrees>
            </Position>
            <AltitudeMeters>57.59999847412109375</AltitudeMeters>
            <DistanceMeters>NAN</DistanceMeters>
          </Trackpoint>
          <Trackpoint>
            <Time>2022-07-16T13:15:07.000Z</Time>
            <Position>
              <LatitudeDegrees>43.4408860467374324798583984375</LatitudeDegrees>
              <LongitudeDegrees>-4.9430163390934467315673828125</LongitudeDegrees>
            </Position>
            <AltitudeMeters>57.799999237060546875</AltitudeMeters>
            <DistanceMeters>NAN</DistanceMeters>
          </Trackpoint>
          <Trackpoint>
            <Time>2022-07-16T13:15:08.000Z</Time>
            <Position>
              <LatitudeDegrees>43.4408961050212383270263671875</LatitudeDegrees>
              <LongitudeDegrees>-4.943019188940525054931640625</LongitudeDegrees>
            </Position>
            <AltitudeMeters>58</AltitudeMeters>
            <DistanceMeters>NAN</DistanceMeters>
          </Trackpoint>
          <Trackpoint>
            <Time>2022-07-16T13:15:11.000Z</Time>
            <Position>
              <LatitudeDegrees>43.44094865955412387847900390625</LatitudeDegrees>
              <LongitudeDegrees>-4.9430250562727451324462890625</LongitudeDegrees>
            </Position>
            <AltitudeMeters>58.200000762939453125</AltitudeMeters>
            <DistanceMeters>NAN</DistanceMeters>
          </Trackpoint>
          <Trackpoint>
            <Time>2022-07-16T13:15:12.000Z</Time>
            <Position>
              <LatitudeDegrees>43.4409715421497821807861328125</LatitudeDegrees>
              <LongitudeDegrees>-4.943026565015316009521484375</LongitudeDegrees>
            </Position>
            <AltitudeMeters>58.40000152587890625</AltitudeMeters>
            <DistanceMeters>NAN</DistanceMeters>
          </Trackpoint>
          <Trackpoint>
            <Time>2022-07-16T13:15:17.000Z</Time>
            <Position>
              <LatitudeDegrees>43.44102703034877777099609375</LatitudeDegrees>
              <LongitudeDegrees>-4.94305615313351154327392578125</LongitudeDegrees>
            </Position>
            <AltitudeMeters>58.59999847412109375</AltitudeMeters>
            <DistanceMeters>NAN</DistanceMeters>
          </Trackpoint>
          <Trackpoint>
            <Time>2022-07-16T13:15:24.000Z</Time>
            <Position>
              <LatitudeDegrees>43.441127277910709381103515625</LatitudeDegrees>
              <LongitudeDegrees>-4.9431179277598857879638671875</LongitudeDegrees>
            </Position>
            <AltitudeMeters>59.200000762939453125</AltitudeMeters>
            <DistanceMeters>NAN</DistanceMeters>
          </Trackpoint>
          <Trackpoint>
            <Time>2022-07-16T13:15:25.000Z</Time>
            <Position>
              <LatitudeDegrees>43.44114596955478191375732421875</LatitudeDegrees>
              <LongitudeDegrees>-4.943126142024993896484375</LongitudeDegrees>
            </Position>
            <AltitudeMeters>59.200000762939453125</AltitudeMeters>
            <DistanceMeters>NAN</DistanceMeters>
          </Trackpoint>
          <Trackpoint>
            <Time>2022-07-16T13:15:33.000Z</Time>
            <Position>
              <LatitudeDegrees>43.44128091819584369659423828125</LatitudeDegrees>
              <LongitudeDegrees>-4.94314818643033504486083984375</LongitudeDegrees>
            </Position>
            <AltitudeMeters>59.59999847412109375</AltitudeMeters>
            <DistanceMeters>NAN</DistanceMeters>
          </Trackpoint>
          <Trackpoint>
            <Time>2022-07-16T13:15:42.000Z</Time>
            <Position>
              <LatitudeDegrees>43.44141620211303234100341796875</LatitudeDegrees>
              <LongitudeDegrees>-4.9431735835969448089599609375</LongitudeDegrees>
            </Position>
            <AltitudeMeters>60.200000762939453125</AltitudeMeters>
            <DistanceMeters>NAN</DistanceMeters>
          </Trackpoint>
          <Trackpoint>
            <Time>2022-07-16T13:15:43.000Z</Time>
            <Position>
              <LatitudeDegrees>43.44143112190067768096923828125</LatitudeDegrees>
              <LongitudeDegrees>-4.9431839771568775177001953125</LongitudeDegrees>
            </Position>
            <AltitudeMeters>60.40000152587890625</AltitudeMeters>
            <DistanceMeters>NAN</DistanceMeters>
          </Trackpoint>
          <Trackpoint>
            <Time>2022-07-16T13:15:49.000Z</Time>
            <Position>
              <LatitudeDegrees>43.4415244124829769134521484375</LatitudeDegrees>
              <LongitudeDegrees>-4.94327223859727382659912109375</LongitudeDegrees>
            </Position>
            <AltitudeMeters>61.40000152587890625</AltitudeMeters>
            <DistanceMeters>NAN</DistanceMeters>
          </Trackpoint>
          <Trackpoint>
            <Time>2022-07-16T13:15:52.000Z</Time>
            <Position>
              <LatitudeDegrees>43.4415700100362300872802734375</LatitudeDegrees>
              <LongitudeDegrees>-4.94334382005035877227783203125</LongitudeDegrees>
            </Position>
            <AltitudeMeters>62</AltitudeMeters>
            <DistanceMeters>NAN</DistanceMeters>
          </Trackpoint>
          <Trackpoint>
            <Time>2022-07-16T13:15:57.000Z</Time>
            <Position>
              <LatitudeDegrees>43.44162105582654476165771484375</LatitudeDegrees>
              <LongitudeDegrees>-4.9434062652289867401123046875</LongitudeDegrees>
            </Position>
            <AltitudeMeters>62.40000152587890625</AltitudeMeters>
            <DistanceMeters>NAN</DistanceMeters>
          </Trackpoint>
          <Trackpoint>
            <Time>2022-07-16T13:15:58.000Z</Time>
            <Position>
              <LatitudeDegrees>43.44162994064390659332275390625</LatitudeDegrees>
              <LongitudeDegrees>-4.94341313838958740234375</LongitudeDegrees>
            </Position>
            <AltitudeMeters>62.40000152587890625</AltitudeMeters>
            <DistanceMeters>NAN</DistanceMeters>
          </Trackpoint>
          <Trackpoint>
            <Time>2022-07-16T13:16:01.000Z</Time>
            <Position>
              <LatitudeDegrees>43.4416303597390651702880859375</LatitudeDegrees>
              <LongitudeDegrees>-4.9434139765799045562744140625</LongitudeDegrees>
            </Position>
            <AltitudeMeters>62.40000152587890625</AltitudeMeters>
            <DistanceMeters>NAN</DistanceMeters>
          </Trackpoint>
          <Trackpoint>
            <Time>2022-07-16T13:17:12.000Z</Time>
            <Position>
              <LatitudeDegrees>43.44170437194406986236572265625</LatitudeDegrees>
              <LongitudeDegrees>-4.94352034293115139007568359375</LongitudeDegrees>
            </Position>
            <AltitudeMeters>63</AltitudeMeters>
            <DistanceMeters>NAN</DistanceMeters>
          </Trackpoint>
          <Trackpoint>
            <Time>2022-07-16T13:17:13.000Z</Time>
            <Position>
              <LatitudeDegrees>43.44171543605625629425048828125</LatitudeDegrees>
              <LongitudeDegrees>-4.943540878593921661376953125</LongitudeDegrees>
            </Position>
            <AltitudeMeters>63</AltitudeMeters>
            <DistanceMeters>NAN</DistanceMeters>
          </Trackpoint>
          <Trackpoint>
            <Time>2022-07-16T13:17:17.000Z</Time>
            <Position>
              <LatitudeDegrees>43.4417721815407276153564453125</LatitudeDegrees>
              <LongitudeDegrees>-4.9436577223241329193115234375</LongitudeDegrees>
            </Position>
            <AltitudeMeters>62.59999847412109375</AltitudeMeters>
            <DistanceMeters>NAN</DistanceMeters>
          </Trackpoint>
          <Trackpoint>
            <Time>2022-07-16T13:17:19.000Z</Time>
            <Position>
              <LatitudeDegrees>43.4417973272502422332763671875</LatitudeDegrees>
              <LongitudeDegrees>-4.9437202513217926025390625</LongitudeDegrees>
            </Position>
            <AltitudeMeters>62.200000762939453125</AltitudeMeters>
            <DistanceMeters>NAN</DistanceMeters>
          </Trackpoint>
          <Trackpoint>
            <Time>2022-07-16T13:17:23.000Z</Time>
            <Position>
              <LatitudeDegrees>43.4418422542512416839599609375</LatitudeDegrees>
              <LongitudeDegrees>-4.94386115111410617828369140625</LongitudeDegrees>
            </Position>
            <AltitudeMeters>61.200000762939453125</AltitudeMeters>
            <DistanceMeters>NAN</DistanceMeters>
          </Trackpoint>
          <Trackpoint>
            <Time>2022-07-16T13:17:28.000Z</Time>
            <Position>
              <LatitudeDegrees>43.44188407994806766510009765625</LatitudeDegrees>
              <LongitudeDegrees>-4.94405963458120822906494140625</LongitudeDegrees>
            </Position>
            <AltitudeMeters>60.40000152587890625</AltitudeMeters>
            <DistanceMeters>NAN</DistanceMeters>
          </Trackpoint>
          <Trackpoint>
            <Time>2022-07-16T13:17:30.000Z</Time>
            <Position>
              <LatitudeDegrees>43.4419076330959796905517578125</LatitudeDegrees>
              <LongitudeDegrees>-4.94414747692644596099853515625</LongitudeDegrees>
            </Position>
            <AltitudeMeters>59.799999237060546875</AltitudeMeters>
            <DistanceMeters>NAN</DistanceMeters>
          </Trackpoint>
          <Trackpoint>
            <Time>2022-07-16T13:17:33.000Z</Time>
            <Position>
              <LatitudeDegrees>43.44195130281150341033935546875</LatitudeDegrees>
              <LongitudeDegrees>-4.9443158693611621856689453125</LongitudeDegrees>
            </Position>
            <AltitudeMeters>58.799999237060546875</AltitudeMeters>
            <DistanceMeters>NAN</DistanceMeters>
          </Trackpoint>
          <Trackpoint>
            <Time>2022-07-16T13:17:39.000Z</Time>
            <Position>
              <LatitudeDegrees>43.44200913794338703155517578125</LatitudeDegrees>
              <LongitudeDegrees>-4.9446048773825168609619140625</LongitudeDegrees>
            </Position>
            <AltitudeMeters>57.59999847412109375</AltitudeMeters>
            <DistanceMeters>NAN</DistanceMeters>
          </Trackpoint>
          <Trackpoint>
            <Time>2022-07-16T13:17:41.000Z</Time>
            <Position>
              <LatitudeDegrees>43.44202036969363689422607421875</LatitudeDegrees>
              <LongitudeDegrees>-4.94469263590872287750244140625</LongitudeDegrees>
            </Position>
            <AltitudeMeters>57.59999847412109375</AltitudeMeters>
            <DistanceMeters>NAN</DistanceMeters>
          </Trackpoint>
          <Trackpoint>
            <Time>2022-07-16T13:17:45.000Z</Time>
            <Position>
              <LatitudeDegrees>43.4420417435467243194580078125</LatitudeDegrees>
              <LongitudeDegrees>-4.94488231837749481201171875</LongitudeDegrees>
            </Position>
            <AltitudeMeters>56.40000152587890625</AltitudeMeters>
            <DistanceMeters>NAN</DistanceMeters>
          </Trackpoint>
          <Trackpoint>
            <Time>2022-07-16T13:17:48.000Z</Time>
            <Position>
              <LatitudeDegrees>43.442045263946056365966796875</LatitudeDegrees>
              <LongitudeDegrees>-4.94500896893441677093505859375</LongitudeDegrees>
            </Position>
            <AltitudeMeters>56</AltitudeMeters>
            <DistanceMeters>NAN</DistanceMeters>
          </Trackpoint>
          <Trackpoint>
            <Time>2022-07-16T13:17:50.000Z</Time>
            <Position>
              <LatitudeDegrees>43.4420494548976421356201171875</LatitudeDegrees>
              <LongitudeDegrees>-4.94509077630937099456787109375</LongitudeDegrees>
            </Position>
            <AltitudeMeters>55.200000762939453125</AltitudeMeters>
            <DistanceMeters>NAN</DistanceMeters>
          </Trackpoint>
          <Trackpoint>
            <Time>2022-07-16T13:17:53.000Z</Time>
            <Position>
              <LatitudeDegrees>43.442060686647891998291015625</LatitudeDegrees>
              <LongitudeDegrees>-4.94520812295377254486083984375</LongitudeDegrees>
            </Position>
            <AltitudeMeters>54</AltitudeMeters>
            <DistanceMeters>NAN</DistanceMeters>
          </Trackpoint>
          <Trackpoint>
            <Time>2022-07-16T13:17:56.000Z</Time>
            <Position>
              <LatitudeDegrees>43.44207216985523700714111328125</LatitudeDegrees>
              <LongitudeDegrees>-4.94532211683690547943115234375</LongitudeDegrees>
            </Position>
            <AltitudeMeters>53.200000762939453125</AltitudeMeters>
            <DistanceMeters>NAN</DistanceMeters>
          </Trackpoint>
          <Trackpoint>
            <Time>2022-07-16T13:17:57.000Z</Time>
            <Position>
              <LatitudeDegrees>43.442073762416839599609375</LatitudeDegrees>
              <LongitudeDegrees>-4.94535145349800586700439453125</LongitudeDegrees>
            </Position>
            <AltitudeMeters>53</AltitudeMeters>
            <DistanceMeters>NAN</DistanceMeters>
          </Trackpoint>
          <Trackpoint>
            <Time>2022-07-16T13:18:01.000Z</Time>
            <Position>
              <LatitudeDegrees>43.4421067871153354644775390625</LatitudeDegrees>
              <LongitudeDegrees>-4.94549076072871685028076171875</LongitudeDegrees>
            </Position>
            <AltitudeMeters>52.40000152587890625</AltitudeMeters>
            <DistanceMeters>NAN</DistanceMeters>
          </Trackpoint>
          <Trackpoint>
            <Time>2022-07-16T13:18:03.000Z</Time>
            <Position>
              <LatitudeDegrees>43.4421372972428798675537109375</LatitudeDegrees>
              <LongitudeDegrees>-4.94554222561419010162353515625</LongitudeDegrees>
            </Position>
            <AltitudeMeters>51.59999847412109375</AltitudeMeters>
            <DistanceMeters>NAN</DistanceMeters>
          </Trackpoint>
          <Trackpoint>
            <Time>2022-07-16T13:18:06.000Z</Time>
            <Position>
              <LatitudeDegrees>43.44221348874270915985107421875</LatitudeDegrees>
              <LongitudeDegrees>-4.9456164054572582244873046875</LongitudeDegrees>
            </Position>
            <AltitudeMeters>50.40000152587890625</AltitudeMeters>
            <DistanceMeters>NAN</DistanceMeters>
          </Trackpoint>
          <Trackpoint>
            <Time>2022-07-16T13:18:08.000Z</Time>
            <Position>
              <LatitudeDegrees>43.44228356145322322845458984375</LatitudeDegrees>
              <LongitudeDegrees>-4.9456948600709438323974609375</LongitudeDegrees>
            </Position>
            <AltitudeMeters>49.40000152587890625</AltitudeMeters>
            <DistanceMeters>NAN</DistanceMeters>
          </Trackpoint>
          <Trackpoint>
            <Time>2022-07-16T13:18:11.000Z</Time>
            <Position>
              <LatitudeDegrees>43.4423900954425334930419921875</LatitudeDegrees>
              <LongitudeDegrees>-4.9458222649991512298583984375</LongitudeDegrees>
            </Position>
            <AltitudeMeters>48.200000762939453125</AltitudeMeters>
            <DistanceMeters>NAN</DistanceMeters>
          </Trackpoint>
          <Trackpoint>
            <Time>2022-07-16T13:18:15.000Z</Time>
            <Position>
              <LatitudeDegrees>43.442438878118991851806640625</LatitudeDegrees>
              <LongitudeDegrees>-4.94593374431133270263671875</LongitudeDegrees>
            </Position>
            <AltitudeMeters>47.799999237060546875</AltitudeMeters>
            <DistanceMeters>NAN</DistanceMeters>
          </Trackpoint>
          <Trackpoint>
            <Time>2022-07-16T13:18:26.000Z</Time>
            <Position>
              <LatitudeDegrees>43.44278094358742237091064453125</LatitudeDegrees>
              <LongitudeDegrees>-4.94611102156341075897216796875</LongitudeDegrees>
            </Position>
            <AltitudeMeters>47.799999237060546875</AltitudeMeters>
            <DistanceMeters>NAN</DistanceMeters>
          </Trackpoint>
          <Trackpoint>
            <Time>2022-07-16T13:18:28.000Z</Time>
            <Position>
              <LatitudeDegrees>43.4427696280181407928466796875</LatitudeDegrees>
              <LongitudeDegrees>-4.94614002294838428497314453125</LongitudeDegrees>
            </Position>
            <AltitudeMeters>48</AltitudeMeters>
            <DistanceMeters>NAN</DistanceMeters>
          </Trackpoint>
          <Trackpoint>
            <Time>2022-07-16T13:18:35.000Z</Time>
            <Position>
              <LatitudeDegrees>43.44277046620845794677734375</LatitudeDegrees>
              <LongitudeDegrees>-4.9462494067847728729248046875</LongitudeDegrees>
            </Position>
            <AltitudeMeters>48.799999237060546875</AltitudeMeters>
            <DistanceMeters>NAN</DistanceMeters>
          </Trackpoint>
          <Trackpoint>
            <Time>2022-07-16T13:18:38.000Z</Time>
            <Position>
              <LatitudeDegrees>43.44277189113199710845947265625</LatitudeDegrees>
              <LongitudeDegrees>-4.94625435210764408111572265625</LongitudeDegrees>
            </Position>
            <AltitudeMeters>49</AltitudeMeters>
            <DistanceMeters>NAN</DistanceMeters>
          </Trackpoint>
          <Trackpoint>
            <Time>2022-07-16T13:19:20.000Z</Time>
            <Position>
              <LatitudeDegrees>43.44264306128025054931640625</LatitudeDegrees>
              <LongitudeDegrees>-4.94649625383317470550537109375</LongitudeDegrees>
            </Position>
            <AltitudeMeters>50.799999237060546875</AltitudeMeters>
            <DistanceMeters>NAN</DistanceMeters>
          </Trackpoint>
          <Trackpoint>
            <Time>2022-07-16T13:19:21.000Z</Time>
            <Position>
              <LatitudeDegrees>43.44263627193868160247802734375</LatitudeDegrees>
              <LongitudeDegrees>-4.94651838205754756927490234375</LongitudeDegrees>
            </Position>
            <AltitudeMeters>50.799999237060546875</AltitudeMeters>
            <DistanceMeters>NAN</DistanceMeters>
          </Trackpoint>
          <Trackpoint>
            <Time>2022-07-16T13:19:30.000Z</Time>
            <Position>
              <LatitudeDegrees>43.44258061610162258148193359375</LatitudeDegrees>
              <LongitudeDegrees>-4.94670965708792209625244140625</LongitudeDegrees>
            </Position>
            <AltitudeMeters>51.200000762939453125</AltitudeMeters>
            <DistanceMeters>NAN</DistanceMeters>
          </Trackpoint>
          <Trackpoint>
            <Time>2022-07-16T13:19:38.000Z</Time>
            <Position>
              <LatitudeDegrees>43.44254490919411182403564453125</LatitudeDegrees>
              <LongitudeDegrees>-4.94685717858374118804931640625</LongitudeDegrees>
            </Position>
            <AltitudeMeters>51.799999237060546875</AltitudeMeters>
            <DistanceMeters>NAN</DistanceMeters>
          </Trackpoint>
          <Trackpoint>
            <Time>2022-07-16T13:19:46.000Z</Time>
            <Position>
              <LatitudeDegrees>43.4424936957657337188720703125</LatitudeDegrees>
              <LongitudeDegrees>-4.94700260460376739501953125</LongitudeDegrees>
            </Position>
            <AltitudeMeters>52.799999237060546875</AltitudeMeters>
            <DistanceMeters>NAN</DistanceMeters>
          </Trackpoint>
          <Trackpoint>
            <Time>2022-07-16T13:19:48.000Z</Time>
            <Position>
              <LatitudeDegrees>43.442483805119991302490234375</LatitudeDegrees>
              <LongitudeDegrees>-4.94704149663448333740234375</LongitudeDegrees>
            </Position>
            <AltitudeMeters>53</AltitudeMeters>
            <DistanceMeters>NAN</DistanceMeters>
          </Trackpoint>
          <Trackpoint>
            <Time>2022-07-16T13:19:53.000Z</Time>
            <Position>
              <LatitudeDegrees>43.4424601681530475616455078125</LatitudeDegrees>
              <LongitudeDegrees>-4.9471402354538440704345703125</LongitudeDegrees>
            </Position>
            <AltitudeMeters>53.59999847412109375</AltitudeMeters>
            <DistanceMeters>NAN</DistanceMeters>
          </Trackpoint>
          <Trackpoint>
            <Time>2022-07-16T13:19:55.000Z</Time>
            <Position>
              <LatitudeDegrees>43.44245421700179576873779296875</LatitudeDegrees>
              <LongitudeDegrees>-4.94717552326619625091552734375</LongitudeDegrees>
            </Position>
            <AltitudeMeters>53.799999237060546875</AltitudeMeters>
            <DistanceMeters>NAN</DistanceMeters>
          </Trackpoint>
          <Trackpoint>
            <Time>2022-07-16T13:19:58.000Z</Time>
            <Position>
              <LatitudeDegrees>43.44244399107992649078369140625</LatitudeDegrees>
              <LongitudeDegrees>-4.94722656905651092529296875</LongitudeDegrees>
            </Position>
            <AltitudeMeters>54.200000762939453125</AltitudeMeters>
            <DistanceMeters>NAN</DistanceMeters>
          </Trackpoint>
          <Trackpoint>
            <Time>2022-07-16T13:20:02.000Z</Time>
            <Position>
              <LatitudeDegrees>43.442430160939693450927734375</LatitudeDegrees>
              <LongitudeDegrees>-4.9473011679947376251220703125</LongitudeDegrees>
            </Position>
            <AltitudeMeters>54.799999237060546875</AltitudeMeters>
            <DistanceMeters>NAN</DistanceMeters>
          </Trackpoint>
          <Trackpoint>
            <Time>2022-07-16T13:20:03.000Z</Time>
            <Position>
              <LatitudeDegrees>43.44243116676807403564453125</LatitudeDegrees>
              <LongitudeDegrees>-4.94731508195400238037109375</LongitudeDegrees>
            </Position>
            <AltitudeMeters>55</AltitudeMeters>
            <DistanceMeters>NAN</DistanceMeters>
          </Trackpoint>
          <Trackpoint>
            <Time>2022-07-16T13:20:09.000Z</Time>
            <Position>
              <LatitudeDegrees>43.44241775572299957275390625</LatitudeDegrees>
              <LongitudeDegrees>-4.9474235437810420989990234375</LongitudeDegrees>
            </Position>
            <AltitudeMeters>55.799999237060546875</AltitudeMeters>
            <DistanceMeters>NAN</DistanceMeters>
          </Trackpoint>
          <Trackpoint>
            <Time>2022-07-16T13:20:12.000Z</Time>
            <Position>
              <LatitudeDegrees>43.44240426085889339447021484375</LatitudeDegrees>
              <LongitudeDegrees>-4.947473667562007904052734375</LongitudeDegrees>
            </Position>
            <AltitudeMeters>56.200000762939453125</AltitudeMeters>
            <DistanceMeters>NAN</DistanceMeters>
          </Trackpoint>
          <Trackpoint>
            <Time>2022-07-16T13:20:16.000Z</Time>
            <Position>
              <LatitudeDegrees>43.44239202328026294708251953125</LatitudeDegrees>
              <LongitudeDegrees>-4.94754080660641193389892578125</LongitudeDegrees>
            </Position>
            <AltitudeMeters>56.40000152587890625</AltitudeMeters>
            <DistanceMeters>NAN</DistanceMeters>
          </Trackpoint>
          <Trackpoint>
            <Time>2022-07-16T13:20:24.000Z</Time>
            <Position>
              <LatitudeDegrees>43.44234860502183437347412109375</LatitudeDegrees>
              <LongitudeDegrees>-4.94771380908787250518798828125</LongitudeDegrees>
            </Position>
            <AltitudeMeters>56.799999237060546875</AltitudeMeters>
            <DistanceMeters>NAN</DistanceMeters>
          </Trackpoint>
          <Trackpoint>
            <Time>2022-07-16T13:20:30.000Z</Time>
            <Position>
              <LatitudeDegrees>43.4423012472689151763916015625</LatitudeDegrees>
              <LongitudeDegrees>-4.94787340052425861358642578125</LongitudeDegrees>
            </Position>
            <AltitudeMeters>56.59999847412109375</AltitudeMeters>
            <DistanceMeters>NAN</DistanceMeters>
          </Trackpoint>
          <Trackpoint>
            <Time>2022-07-16T13:20:33.000Z</Time>
            <Position>
              <LatitudeDegrees>43.44227023422718048095703125</LatitudeDegrees>
              <LongitudeDegrees>-4.94795336388051509857177734375</LongitudeDegrees>
            </Position>
            <AltitudeMeters>56.59999847412109375</AltitudeMeters>
            <DistanceMeters>NAN</DistanceMeters>
          </Trackpoint>
          <Trackpoint>
            <Time>2022-07-16T13:20:35.000Z</Time>
            <Position>
              <LatitudeDegrees>43.44224299304187297821044921875</LatitudeDegrees>
              <LongitudeDegrees>-4.94802092202007770538330078125</LongitudeDegrees>
            </Position>
            <AltitudeMeters>56.40000152587890625</AltitudeMeters>
            <DistanceMeters>NAN</DistanceMeters>
          </Trackpoint>
          <Trackpoint>
            <Time>2022-07-16T13:20:37.000Z</Time>
            <Position>
              <LatitudeDegrees>43.44222002662718296051025390625</LatitudeDegrees>
              <LongitudeDegrees>-4.94810231029987335205078125</LongitudeDegrees>
            </Position>
            <AltitudeMeters>56</AltitudeMeters>
            <DistanceMeters>NAN</DistanceMeters>
          </Trackpoint>
          <Trackpoint>
            <Time>2022-07-16T13:20:38.000Z</Time>
            <Position>
              <LatitudeDegrees>43.44220795668661594390869140625</LatitudeDegrees>
              <LongitudeDegrees>-4.9481443874537944793701171875</LongitudeDegrees>
            </Position>
            <AltitudeMeters>55.799999237060546875</AltitudeMeters>
            <DistanceMeters>NAN</DistanceMeters>
          </Trackpoint>
          <Trackpoint>
            <Time>2022-07-16T13:20:42.000Z</Time>
            <Position>
              <LatitudeDegrees>43.4421661309897899627685546875</LatitudeDegrees>
              <LongitudeDegrees>-4.94834681041538715362548828125</LongitudeDegrees>
            </Position>
            <AltitudeMeters>55</AltitudeMeters>
            <DistanceMeters>NAN</DistanceMeters>
          </Trackpoint>
          <Trackpoint>
            <Time>2022-07-16T13:20:44.000Z</Time>
            <Position>
              <LatitudeDegrees>43.4421394765377044677734375</LatitudeDegrees>
              <LongitudeDegrees>-4.948433898389339447021484375</LongitudeDegrees>
            </Position>
            <AltitudeMeters>54.799999237060546875</AltitudeMeters>
            <DistanceMeters>NAN</DistanceMeters>
          </Trackpoint>
          <Trackpoint>
            <Time>2022-07-16T13:20:48.000Z</Time>
            <Position>
              <LatitudeDegrees>43.4421051107347011566162109375</LatitudeDegrees>
              <LongitudeDegrees>-4.9485433660447597503662109375</LongitudeDegrees>
            </Position>
            <AltitudeMeters>54.799999237060546875</AltitudeMeters>
            <DistanceMeters>NAN</DistanceMeters>
          </Trackpoint>
          <Trackpoint>
            <Time>2022-07-16T13:20:50.000Z</Time>
            <Position>
              <LatitudeDegrees>43.44209698028862476348876953125</LatitudeDegrees>
              <LongitudeDegrees>-4.94858016259968280792236328125</LongitudeDegrees>
            </Position>
            <AltitudeMeters>55</AltitudeMeters>
            <DistanceMeters>NAN</DistanceMeters>
          </Trackpoint>
          <Trackpoint>
            <Time>2022-07-16T13:20:56.000Z</Time>
            <Position>
              <LatitudeDegrees>43.4420642070472240447998046875</LatitudeDegrees>
              <LongitudeDegrees>-4.948710165917873382568359375</LongitudeDegrees>
            </Position>
            <AltitudeMeters>55.40000152587890625</AltitudeMeters>
            <DistanceMeters>NAN</DistanceMeters>
          </Trackpoint>
          <Trackpoint>
            <Time>2022-07-16T13:20:58.000Z</Time>
            <Position>
              <LatitudeDegrees>43.442052304744720458984375</LatitudeDegrees>
              <LongitudeDegrees>-4.9487601220607757568359375</LongitudeDegrees>
            </Position>
            <AltitudeMeters>55.40000152587890625</AltitudeMeters>
            <DistanceMeters>NAN</DistanceMeters>
          </Trackpoint>
          <Trackpoint>
            <Time>2022-07-16T13:20:59.000Z</Time>
            <Position>
              <LatitudeDegrees>43.44204568304121494293212890625</LatitudeDegrees>
              <LongitudeDegrees>-4.94878836907446384429931640625</LongitudeDegrees>
            </Position>
            <AltitudeMeters>55.40000152587890625</AltitudeMeters>
            <DistanceMeters>NAN</DistanceMeters>
          </Trackpoint>
          <Trackpoint>
            <Time>2022-07-16T13:21:05.000Z</Time>
            <Position>
              <LatitudeDegrees>43.44197745434939861297607421875</LatitudeDegrees>
              <LongitudeDegrees>-4.94898735545575618743896484375</LongitudeDegrees>
            </Position>
            <AltitudeMeters>55.40000152587890625</AltitudeMeters>
            <DistanceMeters>NAN</DistanceMeters>
          </Trackpoint>
          <Trackpoint>
            <Time>2022-07-16T13:21:12.000Z</Time>
            <Position>
              <LatitudeDegrees>43.44185641966760158538818359375</LatitudeDegrees>
              <LongitudeDegrees>-4.94929279200732707977294921875</LongitudeDegrees>
            </Position>
            <AltitudeMeters>54.200000762939453125</AltitudeMeters>
            <DistanceMeters>NAN</DistanceMeters>
          </Trackpoint>
          <Trackpoint>
            <Time>2022-07-16T13:21:17.000Z</Time>
            <Position>
              <LatitudeDegrees>43.4417922981083393096923828125</LatitudeDegrees>
              <LongitudeDegrees>-4.94947283528745174407958984375</LongitudeDegrees>
            </Position>
            <AltitudeMeters>54</AltitudeMeters>
            <DistanceMeters>NAN</DistanceMeters>
          </Trackpoint>
          <Trackpoint>
            <Time>2022-07-16T13:21:19.000Z</Time>
            <Position>
              <LatitudeDegrees>43.44176354818046092987060546875</LatitudeDegrees>
              <LongitudeDegrees>-4.949551708996295928955078125</LongitudeDegrees>
            </Position>
            <AltitudeMeters>54</AltitudeMeters>
            <DistanceMeters>NAN</DistanceMeters>
          </Trackpoint>
          <Trackpoint>
            <Time>2022-07-16T13:21:26.000Z</Time>
            <Position>
              <LatitudeDegrees>43.44166983850300312042236328125</LatitudeDegrees>
              <LongitudeDegrees>-4.9498450756072998046875</LongitudeDegrees>
            </Position>
            <AltitudeMeters>53.40000152587890625</AltitudeMeters>
            <DistanceMeters>NAN</DistanceMeters>
          </Trackpoint>
          <Trackpoint>
            <Time>2022-07-16T13:21:35.000Z</Time>
            <Position>
              <LatitudeDegrees>43.44156472943723201751708984375</LatitudeDegrees>
              <LongitudeDegrees>-4.950210861861705780029296875</LongitudeDegrees>
            </Position>
            <AltitudeMeters>53.200000762939453125</AltitudeMeters>
            <DistanceMeters>NAN</DistanceMeters>
          </Trackpoint>
          <Trackpoint>
            <Time>2022-07-16T13:21:36.000Z</Time>
            <Position>
              <LatitudeDegrees>43.44155274331569671630859375</LatitudeDegrees>
              <LongitudeDegrees>-4.950251094996929168701171875</LongitudeDegrees>
            </Position>
            <AltitudeMeters>53</AltitudeMeters>
            <DistanceMeters>NAN</DistanceMeters>
          </Trackpoint>
          <Trackpoint>
            <Time>2022-07-16T13:21:38.000Z</Time>
            <Position>
              <LatitudeDegrees>43.44152860343456268310546875</LatitudeDegrees>
              <LongitudeDegrees>-4.95033063925802707672119140625</LongitudeDegrees>
            </Position>
            <AltitudeMeters>53</AltitudeMeters>
            <DistanceMeters>NAN</DistanceMeters>
          </Trackpoint>
          <Trackpoint>
            <Time>2022-07-16T13:21:47.000Z</Time>
            <Position>
              <LatitudeDegrees>43.44141938723623752593994140625</LatitudeDegrees>
              <LongitudeDegrees>-4.95066541247069835662841796875</LongitudeDegrees>
            </Position>
            <AltitudeMeters>53</AltitudeMeters>
            <DistanceMeters>NAN</DistanceMeters>
          </Trackpoint>
          <Trackpoint>
            <Time>2022-07-16T13:21:51.000Z</Time>
            <Position>
              <LatitudeDegrees>43.44137764535844326019287109375</LatitudeDegrees>
              <LongitudeDegrees>-4.9508272670209407806396484375</LongitudeDegrees>
            </Position>
            <AltitudeMeters>52.799999237060546875</AltitudeMeters>
            <DistanceMeters>NAN</DistanceMeters>
          </Trackpoint>
          <Trackpoint>
            <Time>2022-07-16T13:21:57.000Z</Time>
            <Position>
              <LatitudeDegrees>43.4413225762546062469482421875</LatitudeDegrees>
              <LongitudeDegrees>-4.9510227330029010772705078125</LongitudeDegrees>
            </Position>
            <AltitudeMeters>53.200000762939453125</AltitudeMeters>
            <DistanceMeters>NAN</DistanceMeters>
          </Trackpoint>
          <Trackpoint>
            <Time>2022-07-16T13:21:59.000Z</Time>
            <Position>
              <LatitudeDegrees>43.44131134450435638427734375</LatitudeDegrees>
              <LongitudeDegrees>-4.951063133776187896728515625</LongitudeDegrees>
            </Position>
            <AltitudeMeters>53.40000152587890625</AltitudeMeters>
            <DistanceMeters>NAN</DistanceMeters>
          </Trackpoint>
          <Trackpoint>
            <Time>2022-07-16T13:22:02.000Z</Time>
            <Position>
              <LatitudeDegrees>43.4412813372910022735595703125</LatitudeDegrees>
              <LongitudeDegrees>-4.9511327035725116729736328125</LongitudeDegrees>
            </Position>
            <AltitudeMeters>53.799999237060546875</AltitudeMeters>
            <DistanceMeters>NAN</DistanceMeters>
          </Trackpoint>
          <Trackpoint>
            <Time>2022-07-16T13:22:06.000Z</Time>
            <Position>
              <LatitudeDegrees>43.44125761650502681732177734375</LatitudeDegrees>
              <LongitudeDegrees>-4.95123001746833324432373046875</LongitudeDegrees>
            </Position>
            <AltitudeMeters>54</AltitudeMeters>
            <DistanceMeters>NAN</DistanceMeters>
          </Trackpoint>
          <Trackpoint>
            <Time>2022-07-16T13:22:07.000Z</Time>
            <Position>
              <LatitudeDegrees>43.4412516653537750244140625</LatitudeDegrees>
              <LongitudeDegrees>-4.951247535645961761474609375</LongitudeDegrees>
            </Position>
            <AltitudeMeters>54</AltitudeMeters>
            <DistanceMeters>NAN</DistanceMeters>
          </Trackpoint>
          <Trackpoint>
            <Time>2022-07-16T13:22:12.000Z</Time>
            <Position>
              <LatitudeDegrees>43.4412141144275665283203125</LatitudeDegrees>
              <LongitudeDegrees>-4.9513352103531360626220703125</LongitudeDegrees>
            </Position>
            <AltitudeMeters>55</AltitudeMeters>
            <DistanceMeters>NAN</DistanceMeters>
          </Trackpoint>
          <Trackpoint>
            <Time>2022-07-16T13:22:13.000Z</Time>
            <Position>
              <LatitudeDegrees>43.44121218658983707427978515625</LatitudeDegrees>
              <LongitudeDegrees>-4.9513570033013820648193359375</LongitudeDegrees>
            </Position>
            <AltitudeMeters>55.40000152587890625</AltitudeMeters>
            <DistanceMeters>NAN</DistanceMeters>
          </Trackpoint>
          <Trackpoint>
            <Time>2022-07-16T13:22:18.000Z</Time>
            <Position>
              <LatitudeDegrees>43.44120413996279239654541015625</LatitudeDegrees>
              <LongitudeDegrees>-4.95145364664494991302490234375</LongitudeDegrees>
            </Position>
            <AltitudeMeters>56.200000762939453125</AltitudeMeters>
            <DistanceMeters>NAN</DistanceMeters>
          </Trackpoint>
          <Trackpoint>
            <Time>2022-07-16T13:22:21.000Z</Time>
            <Position>
              <LatitudeDegrees>43.4411723725497722625732421875</LatitudeDegrees>
              <LongitudeDegrees>-4.951528497040271759033203125</LongitudeDegrees>
            </Position>
            <AltitudeMeters>56.40000152587890625</AltitudeMeters>
            <DistanceMeters>NAN</DistanceMeters>
          </Trackpoint>
          <Trackpoint>
            <Time>2022-07-16T13:22:26.000Z</Time>
            <Position>
              <LatitudeDegrees>43.44110749661922454833984375</LatitudeDegrees>
              <LongitudeDegrees>-4.9517051875591278076171875</LongitudeDegrees>
            </Position>
            <AltitudeMeters>55.799999237060546875</AltitudeMeters>
            <DistanceMeters>NAN</DistanceMeters>
          </Trackpoint>
          <Trackpoint>
            <Time>2022-07-16T13:22:29.000Z</Time>
            <Position>
              <LatitudeDegrees>43.441064916551113128662109375</LatitudeDegrees>
              <LongitudeDegrees>-4.9518931098282337188720703125</LongitudeDegrees>
            </Position>
            <AltitudeMeters>55.200000762939453125</AltitudeMeters>
            <DistanceMeters>NAN</DistanceMeters>
          </Trackpoint>
          <Trackpoint>
            <Time>2022-07-16T13:22:31.000Z</Time>
            <Position>
              <LatitudeDegrees>43.44104974530637264251708984375</LatitudeDegrees>
              <LongitudeDegrees>-4.95199411176145076751708984375</LongitudeDegrees>
            </Position>
            <AltitudeMeters>55</AltitudeMeters>
            <DistanceMeters>NAN</DistanceMeters>
          </Trackpoint>
          <Trackpoint>
            <Time>2022-07-16T13:22:36.000Z</Time>
            <Position>
              <LatitudeDegrees>43.441011607646942138671875</LatitudeDegrees>
              <LongitudeDegrees>-4.95216225273907184600830078125</LongitudeDegrees>
            </Position>
            <AltitudeMeters>55</AltitudeMeters>
            <DistanceMeters>NAN</DistanceMeters>
          </Trackpoint>
          <Trackpoint>
            <Time>2022-07-16T13:22:39.000Z</Time>
            <Position>
              <LatitudeDegrees>43.44098788686096668243408203125</LatitudeDegrees>
              <LongitudeDegrees>-4.952245317399501800537109375</LongitudeDegrees>
            </Position>
            <AltitudeMeters>55.40000152587890625</AltitudeMeters>
            <DistanceMeters>NAN</DistanceMeters>
          </Trackpoint>
          <Trackpoint>
            <Time>2022-07-16T13:22:43.000Z</Time>
            <Position>
              <LatitudeDegrees>43.44097028486430644989013671875</LatitudeDegrees>
              <LongitudeDegrees>-4.95233483612537384033203125</LongitudeDegrees>
            </Position>
            <AltitudeMeters>56</AltitudeMeters>
            <DistanceMeters>NAN</DistanceMeters>
          </Trackpoint>
          <Trackpoint>
            <Time>2022-07-16T13:22:44.000Z</Time>
            <Position>
              <LatitudeDegrees>43.44096693210303783416748046875</LatitudeDegrees>
              <LongitudeDegrees>-4.9523574672639369964599609375</LongitudeDegrees>
            </Position>
            <AltitudeMeters>56.200000762939453125</AltitudeMeters>
            <DistanceMeters>NAN</DistanceMeters>
          </Trackpoint>
          <Trackpoint>
            <Time>2022-07-16T13:22:47.000Z</Time>
            <Position>
              <LatitudeDegrees>43.440963663160800933837890625</LatitudeDegrees>
              <LongitudeDegrees>-4.95241689495742321014404296875</LongitudeDegrees>
            </Position>
            <AltitudeMeters>56.59999847412109375</AltitudeMeters>
            <DistanceMeters>NAN</DistanceMeters>
          </Trackpoint>
          <Trackpoint>
            <Time>2022-07-16T13:22:49.000Z</Time>
            <Position>
              <LatitudeDegrees>43.44096265733242034912109375</LatitudeDegrees>
              <LongitudeDegrees>-4.95244883000850677490234375</LongitudeDegrees>
            </Position>
            <AltitudeMeters>57.200000762939453125</AltitudeMeters>
            <DistanceMeters>NAN</DistanceMeters>
          </Trackpoint>
          <Trackpoint>
            <Time>2022-07-16T13:22:51.000Z</Time>
            <Position>
              <LatitudeDegrees>43.4409554488956928253173828125</LatitudeDegrees>
              <LongitudeDegrees>-4.9524842016398906707763671875</LongitudeDegrees>
            </Position>
            <AltitudeMeters>57.59999847412109375</AltitudeMeters>
            <DistanceMeters>NAN</DistanceMeters>
          </Trackpoint>
          <Trackpoint>
            <Time>2022-07-16T13:22:53.000Z</Time>
            <Position>
              <LatitudeDegrees>43.4409480728209018707275390625</LatitudeDegrees>
              <LongitudeDegrees>-4.9525254406034946441650390625</LongitudeDegrees>
            </Position>
            <AltitudeMeters>57.799999237060546875</AltitudeMeters>
            <DistanceMeters>NAN</DistanceMeters>
          </Trackpoint>
          <Trackpoint>
            <Time>2022-07-16T13:22:55.000Z</Time>
            <Position>
              <LatitudeDegrees>43.4409400261938571929931640625</LatitudeDegrees>
              <LongitudeDegrees>-4.95256508700549602508544921875</LongitudeDegrees>
            </Position>
            <AltitudeMeters>58</AltitudeMeters>
            <DistanceMeters>NAN</DistanceMeters>
          </Trackpoint>
          <Trackpoint>
            <Time>2022-07-16T13:22:57.000Z</Time>
            <Position>
              <LatitudeDegrees>43.44093474559485912322998046875</LatitudeDegrees>
              <LongitudeDegrees>-4.952612780034542083740234375</LongitudeDegrees>
            </Position>
            <AltitudeMeters>58.200000762939453125</AltitudeMeters>
            <DistanceMeters>NAN</DistanceMeters>
          </Trackpoint>
          <Trackpoint>
            <Time>2022-07-16T13:23:00.000Z</Time>
            <Position>
              <LatitudeDegrees>43.4409081749618053436279296875</LatitudeDegrees>
              <LongitudeDegrees>-4.9526887200772762298583984375</LongitudeDegrees>
            </Position>
            <AltitudeMeters>58.200000762939453125</AltitudeMeters>
            <DistanceMeters>NAN</DistanceMeters>
          </Trackpoint>
          <Trackpoint>
            <Time>2022-07-16T13:23:06.000Z</Time>
            <Position>
              <LatitudeDegrees>43.44085612334311008453369140625</LatitudeDegrees>
              <LongitudeDegrees>-4.9528929032385349273681640625</LongitudeDegrees>
            </Position>
            <AltitudeMeters>58</AltitudeMeters>
            <DistanceMeters>NAN</DistanceMeters>
          </Trackpoint>
          <Trackpoint>
            <Time>2022-07-16T13:23:09.000Z</Time>
            <Position>
              <LatitudeDegrees>43.44081941060721874237060546875</LatitudeDegrees>
              <LongitudeDegrees>-4.95303933508694171905517578125</LongitudeDegrees>
            </Position>
            <AltitudeMeters>57.799999237060546875</AltitudeMeters>
            <DistanceMeters>NAN</DistanceMeters>
          </Trackpoint>
          <Trackpoint>
            <Time>2022-07-16T13:23:13.000Z</Time>
            <Position>
              <LatitudeDegrees>43.44077532179653644561767578125</LatitudeDegrees>
              <LongitudeDegrees>-4.9532420933246612548828125</LongitudeDegrees>
            </Position>
            <AltitudeMeters>57.200000762939453125</AltitudeMeters>
            <DistanceMeters>NAN</DistanceMeters>
          </Trackpoint>
          <Trackpoint>
            <Time>2022-07-16T13:23:14.000Z</Time>
            <Position>
              <LatitudeDegrees>43.440767861902713775634765625</LatitudeDegrees>
              <LongitudeDegrees>-4.953299425542354583740234375</LongitudeDegrees>
            </Position>
            <AltitudeMeters>57.200000762939453125</AltitudeMeters>
            <DistanceMeters>NAN</DistanceMeters>
          </Trackpoint>
          <Trackpoint>
            <Time>2022-07-16T13:23:18.000Z</Time>
            <Position>
              <LatitudeDegrees>43.44073475338518619537353515625</LatitudeDegrees>
              <LongitudeDegrees>-4.95346446521580219268798828125</LongitudeDegrees>
            </Position>
            <AltitudeMeters>57</AltitudeMeters>
            <DistanceMeters>NAN</DistanceMeters>
          </Trackpoint>
          <Trackpoint>
            <Time>2022-07-16T13:23:19.000Z</Time>
            <Position>
              <LatitudeDegrees>43.44072788022458553314208984375</LatitudeDegrees>
              <LongitudeDegrees>-4.95349078439176082611083984375</LongitudeDegrees>
            </Position>
            <AltitudeMeters>57</AltitudeMeters>
            <DistanceMeters>NAN</DistanceMeters>
          </Trackpoint>
          <Trackpoint>
            <Time>2022-07-16T13:23:20.000Z</Time>
            <Position>
              <LatitudeDegrees>43.440721593797206878662109375</LatitudeDegrees>
              <LongitudeDegrees>-4.9535218812525272369384765625</LongitudeDegrees>
            </Position>
            <AltitudeMeters>57</AltitudeMeters>
            <DistanceMeters>NAN</DistanceMeters>
          </Trackpoint>
          <Trackpoint>
            <Time>2022-07-16T13:23:23.000Z</Time>
            <Position>
              <LatitudeDegrees>43.440702147781848907470703125</LatitudeDegrees>
              <LongitudeDegrees>-4.95361248962581157684326171875</LongitudeDegrees>
            </Position>
            <AltitudeMeters>56.59999847412109375</AltitudeMeters>
            <DistanceMeters>NAN</DistanceMeters>
          </Trackpoint>
          <Trackpoint>
            <Time>2022-07-16T13:23:29.000Z</Time>
            <Position>
              <LatitudeDegrees>43.44066618941724300384521484375</LatitudeDegrees>
              <LongitudeDegrees>-4.9537877552211284637451171875</LongitudeDegrees>
            </Position>
            <AltitudeMeters>56.59999847412109375</AltitudeMeters>
            <DistanceMeters>NAN</DistanceMeters>
          </Trackpoint>
          <Trackpoint>
            <Time>2022-07-16T13:23:33.000Z</Time>
            <Position>
              <LatitudeDegrees>43.44063953496515750885009765625</LatitudeDegrees>
              <LongitudeDegrees>-4.95389479212462902069091796875</LongitudeDegrees>
            </Position>
            <AltitudeMeters>56.59999847412109375</AltitudeMeters>
            <DistanceMeters>NAN</DistanceMeters>
          </Trackpoint>
          <Trackpoint>
            <Time>2022-07-16T13:23:39.000Z</Time>
            <Position>
              <LatitudeDegrees>43.44061338342726230621337890625</LatitudeDegrees>
              <LongitudeDegrees>-4.9540335126221179962158203125</LongitudeDegrees>
            </Position>
            <AltitudeMeters>57</AltitudeMeters>
            <DistanceMeters>NAN</DistanceMeters>
          </Trackpoint>
          <Trackpoint>
            <Time>2022-07-16T13:23:45.000Z</Time>
            <Position>
              <LatitudeDegrees>43.440593183040618896484375</LatitudeDegrees>
              <LongitudeDegrees>-4.95422185398638248443603515625</LongitudeDegrees>
            </Position>
            <AltitudeMeters>57.200000762939453125</AltitudeMeters>
            <DistanceMeters>NAN</DistanceMeters>
          </Trackpoint>
          <Trackpoint>
            <Time>2022-07-16T13:23:47.000Z</Time>
            <Position>
              <LatitudeDegrees>43.44058287329971790313720703125</LatitudeDegrees>
              <LongitudeDegrees>-4.9542893283069133758544921875</LongitudeDegrees>
            </Position>
            <AltitudeMeters>57.200000762939453125</AltitudeMeters>
            <DistanceMeters>NAN</DistanceMeters>
          </Trackpoint>
          <Trackpoint>
            <Time>2022-07-16T13:23:55.000Z</Time>
            <Position>
              <LatitudeDegrees>43.44054448418319225311279296875</LatitudeDegrees>
              <LongitudeDegrees>-4.95456106960773468017578125</LongitudeDegrees>
            </Position>
            <AltitudeMeters>57.59999847412109375</AltitudeMeters>
            <DistanceMeters>NAN</DistanceMeters>
          </Trackpoint>
          <Trackpoint>
            <Time>2022-07-16T13:23:56.000Z</Time>
            <Position>
              <LatitudeDegrees>43.440540544688701629638671875</LatitudeDegrees>
              <LongitudeDegrees>-4.95459870435297489166259765625</LongitudeDegrees>
            </Position>
            <AltitudeMeters>57.40000152587890625</AltitudeMeters>
            <DistanceMeters>NAN</DistanceMeters>
          </Trackpoint>
          <Trackpoint>
            <Time>2022-07-16T13:24:03.000Z</Time>
            <Position>
              <LatitudeDegrees>43.4405363537371158599853515625</LatitudeDegrees>
              <LongitudeDegrees>-4.95491671375930309295654296875</LongitudeDegrees>
            </Position>
            <AltitudeMeters>57.200000762939453125</AltitudeMeters>
            <DistanceMeters>NAN</DistanceMeters>
          </Trackpoint>
          <Trackpoint>
            <Time>2022-07-16T13:24:06.000Z</Time>
            <Position>
              <LatitudeDegrees>43.44055437482893466949462890625</LatitudeDegrees>
              <LongitudeDegrees>-4.95508066378533840179443359375</LongitudeDegrees>
            </Position>
            <AltitudeMeters>56.200000762939453125</AltitudeMeters>
            <DistanceMeters>NAN</DistanceMeters>
          </Trackpoint>
          <Trackpoint>
            <Time>2022-07-16T13:24:08.000Z</Time>
            <Position>
              <LatitudeDegrees>43.44054096378386020660400390625</LatitudeDegrees>
              <LongitudeDegrees>-4.95518677867949008941650390625</LongitudeDegrees>
            </Position>
            <AltitudeMeters>56</AltitudeMeters>
            <DistanceMeters>NAN</DistanceMeters>
          </Trackpoint>
          <Trackpoint>
            <Time>2022-07-16T13:24:10.000Z</Time>
            <Position>
              <LatitudeDegrees>43.4405138902366161346435546875</LatitudeDegrees>
              <LongitudeDegrees>-4.95527663268148899078369140625</LongitudeDegrees>
            </Position>
            <AltitudeMeters>56</AltitudeMeters>
            <DistanceMeters>NAN</DistanceMeters>
          </Trackpoint>
          <Trackpoint>
            <Time>2022-07-16T13:24:14.000Z</Time>
            <Position>
              <LatitudeDegrees>43.440490923821926116943359375</LatitudeDegrees>
              <LongitudeDegrees>-4.95544007979333400726318359375</LongitudeDegrees>
            </Position>
            <AltitudeMeters>56.200000762939453125</AltitudeMeters>
            <DistanceMeters>NAN</DistanceMeters>
          </Trackpoint>
          <Trackpoint>
            <Time>2022-07-16T13:24:22.000Z</Time>
            <Position>
              <LatitudeDegrees>43.44047692604362964630126953125</LatitudeDegrees>
              <LongitudeDegrees>-4.9558151699602603912353515625</LongitudeDegrees>
            </Position>
            <AltitudeMeters>55.799999237060546875</AltitudeMeters>
            <DistanceMeters>NAN</DistanceMeters>
          </Trackpoint>
          <Trackpoint>
            <Time>2022-07-16T13:24:26.000Z</Time>
            <Position>
              <LatitudeDegrees>43.44047441147267818450927734375</LatitudeDegrees>
              <LongitudeDegrees>-4.9559797905385494232177734375</LongitudeDegrees>
            </Position>
            <AltitudeMeters>55.59999847412109375</AltitudeMeters>
            <DistanceMeters>NAN</DistanceMeters>
          </Trackpoint>
          <Trackpoint>
            <Time>2022-07-16T13:24:27.000Z</Time>
            <Position>
              <LatitudeDegrees>43.4404746629297733306884765625</LatitudeDegrees>
              <LongitudeDegrees>-4.9559891782701015472412109375</LongitudeDegrees>
            </Position>
            <AltitudeMeters>55.40000152587890625</AltitudeMeters>
            <DistanceMeters>NAN</DistanceMeters>
          </Trackpoint>
          <Trackpoint>
            <Time>2022-07-16T13:24:28.000Z</Time>
            <Position>
              <LatitudeDegrees>43.4404746629297733306884765625</LatitudeDegrees>
              <LongitudeDegrees>-4.9559891782701015472412109375</LongitudeDegrees>
            </Position>
            <AltitudeMeters>55.40000152587890625</AltitudeMeters>
            <DistanceMeters>NAN</DistanceMeters>
          </Trackpoint>
          <Trackpoint>
            <Time>2022-07-16T13:24:34.000Z</Time>
            <Position>
              <LatitudeDegrees>43.4404699690639972686767578125</LatitudeDegrees>
              <LongitudeDegrees>-4.9560740031301975250244140625</LongitudeDegrees>
            </Position>
            <AltitudeMeters>55.40000152587890625</AltitudeMeters>
            <DistanceMeters>NAN</DistanceMeters>
          </Trackpoint>
          <Trackpoint>
            <Time>2022-07-16T13:24:36.000Z</Time>
            <Position>
              <LatitudeDegrees>43.44046913087368011474609375</LatitudeDegrees>
              <LongitudeDegrees>-4.9561296589672565460205078125</LongitudeDegrees>
            </Position>
            <AltitudeMeters>55.40000152587890625</AltitudeMeters>
            <DistanceMeters>NAN</DistanceMeters>
          </Trackpoint>
          <Trackpoint>
            <Time>2022-07-16T13:24:38.000Z</Time>
            <Position>
              <LatitudeDegrees>43.4404669515788555145263671875</LatitudeDegrees>
              <LongitudeDegrees>-4.95620182715356349945068359375</LongitudeDegrees>
            </Position>
            <AltitudeMeters>55.40000152587890625</AltitudeMeters>
            <DistanceMeters>NAN</DistanceMeters>
          </Trackpoint>
          <Trackpoint>
            <Time>2022-07-16T13:24:40.000Z</Time>
            <Position>
              <LatitudeDegrees>43.44046334736049175262451171875</LatitudeDegrees>
              <LongitudeDegrees>-4.95626603253185749053955078125</LongitudeDegrees>
            </Position>
            <AltitudeMeters>55.40000152587890625</AltitudeMeters>
            <DistanceMeters>NAN</DistanceMeters>
          </Trackpoint>
          <Trackpoint>
            <Time>2022-07-16T13:24:42.000Z</Time>
            <Position>
              <LatitudeDegrees>43.44045278616249561309814453125</LatitudeDegrees>
              <LongitudeDegrees>-4.9563455767929553985595703125</LongitudeDegrees>
            </Position>
            <AltitudeMeters>55.40000152587890625</AltitudeMeters>
            <DistanceMeters>NAN</DistanceMeters>
          </Trackpoint>
          <Trackpoint>
            <Time>2022-07-16T13:24:47.000Z</Time>
            <Position>
              <LatitudeDegrees>43.440417163074016571044921875</LatitudeDegrees>
              <LongitudeDegrees>-4.9566342495381832122802734375</LongitudeDegrees>
            </Position>
            <AltitudeMeters>55.40000152587890625</AltitudeMeters>
            <DistanceMeters>NAN</DistanceMeters>
          </Trackpoint>
          <Trackpoint>
            <Time>2022-07-16T13:24:48.000Z</Time>
            <Position>
              <LatitudeDegrees>43.44041573815047740936279296875</LatitudeDegrees>
              <LongitudeDegrees>-4.9566761590540409088134765625</LongitudeDegrees>
            </Position>
            <AltitudeMeters>55.40000152587890625</AltitudeMeters>
            <DistanceMeters>NAN</DistanceMeters>
          </Trackpoint>
          <Trackpoint>
            <Time>2022-07-16T13:24:51.000Z</Time>
            <Position>
              <LatitudeDegrees>43.440435938537120819091796875</LatitudeDegrees>
              <LongitudeDegrees>-4.95681219734251499176025390625</LongitudeDegrees>
            </Position>
            <AltitudeMeters>55.200000762939453125</AltitudeMeters>
            <DistanceMeters>NAN</DistanceMeters>
          </Trackpoint>
          <Trackpoint>
            <Time>2022-07-16T13:24:53.000Z</Time>
            <Position>
              <LatitudeDegrees>43.44045060686767101287841796875</LatitudeDegrees>
              <LongitudeDegrees>-4.9569024704396724700927734375</LongitudeDegrees>
            </Position>
            <AltitudeMeters>55.40000152587890625</AltitudeMeters>
            <DistanceMeters>NAN</DistanceMeters>
          </Trackpoint>
          <Trackpoint>
            <Time>2022-07-16T13:24:56.000Z</Time>
            <Position>
              <LatitudeDegrees>43.4404230304062366485595703125</LatitudeDegrees>
              <LongitudeDegrees>-4.95705820620059967041015625</LongitudeDegrees>
            </Position>
            <AltitudeMeters>55.59999847412109375</AltitudeMeters>
            <DistanceMeters>NAN</DistanceMeters>
          </Trackpoint>
          <Trackpoint>
            <Time>2022-07-16T13:25:03.000Z</Time>
            <Position>
              <LatitudeDegrees>43.440344072878360748291015625</LatitudeDegrees>
              <LongitudeDegrees>-4.95737646706402301788330078125</LongitudeDegrees>
            </Position>
            <AltitudeMeters>55.200000762939453125</AltitudeMeters>
            <DistanceMeters>NAN</DistanceMeters>
          </Trackpoint>
          <Trackpoint>
            <Time>2022-07-16T13:25:09.000Z</Time>
            <Position>
              <LatitudeDegrees>43.4403284825384616851806640625</LatitudeDegrees>
              <LongitudeDegrees>-4.957679808139801025390625</LongitudeDegrees>
            </Position>
            <AltitudeMeters>55.40000152587890625</AltitudeMeters>
            <DistanceMeters>NAN</DistanceMeters>
          </Trackpoint>
          <Trackpoint>
            <Time>2022-07-16T13:25:19.000Z</Time>
            <Position>
              <LatitudeDegrees>43.44032990746200084686279296875</LatitudeDegrees>
              <LongitudeDegrees>-4.95819185860455036163330078125</LongitudeDegrees>
            </Position>
            <AltitudeMeters>55.40000152587890625</AltitudeMeters>
            <DistanceMeters>NAN</DistanceMeters>
          </Trackpoint>
          <Trackpoint>
            <Time>2022-07-16T13:25:27.000Z</Time>
            <Position>
              <LatitudeDegrees>43.44037123024463653564453125</LatitudeDegrees>
              <LongitudeDegrees>-4.95855127461254596710205078125</LongitudeDegrees>
            </Position>
            <AltitudeMeters>55.799999237060546875</AltitudeMeters>
            <DistanceMeters>NAN</DistanceMeters>
          </Trackpoint>
          <Trackpoint>
            <Time>2022-07-16T13:25:34.000Z</Time>
            <Position>
              <LatitudeDegrees>43.44040433876216411590576171875</LatitudeDegrees>
              <LongitudeDegrees>-4.958787225186824798583984375</LongitudeDegrees>
            </Position>
            <AltitudeMeters>56</AltitudeMeters>
            <DistanceMeters>NAN</DistanceMeters>
          </Trackpoint>
          <Trackpoint>
            <Time>2022-07-16T13:25:38.000Z</Time>
            <Position>
              <LatitudeDegrees>43.44041951000690460205078125</LatitudeDegrees>
              <LongitudeDegrees>-4.9589176476001739501953125</LongitudeDegrees>
            </Position>
            <AltitudeMeters>56.59999847412109375</AltitudeMeters>
            <DistanceMeters>NAN</DistanceMeters>
          </Trackpoint>
          <Trackpoint>
            <Time>2022-07-16T13:25:41.000Z</Time>
            <Position>
              <LatitudeDegrees>43.44043065793812274932861328125</LatitudeDegrees>
              <LongitudeDegrees>-4.9590113572776317596435546875</LongitudeDegrees>
            </Position>
            <AltitudeMeters>57</AltitudeMeters>
            <DistanceMeters>NAN</DistanceMeters>
          </Trackpoint>
          <Trackpoint>
            <Time>2022-07-16T13:25:43.000Z</Time>
            <Position>
              <LatitudeDegrees>43.44043753109872341156005859375</LatitudeDegrees>
              <LongitudeDegrees>-4.9590713717043399810791015625</LongitudeDegrees>
            </Position>
            <AltitudeMeters>57.200000762939453125</AltitudeMeters>
            <DistanceMeters>NAN</DistanceMeters>
          </Trackpoint>
          <Trackpoint>
            <Time>2022-07-16T13:25:47.000Z</Time>
            <Position>
              <LatitudeDegrees>43.4404578991234302520751953125</LatitudeDegrees>
              <LongitudeDegrees>-4.95919332839548587799072265625</LongitudeDegrees>
            </Position>
            <AltitudeMeters>57.799999237060546875</AltitudeMeters>
            <DistanceMeters>NAN</DistanceMeters>
          </Trackpoint>
          <Trackpoint>
            <Time>2022-07-16T13:25:48.000Z</Time>
            <Position>
              <LatitudeDegrees>43.44046569429337978363037109375</LatitudeDegrees>
              <LongitudeDegrees>-4.9592222459614276885986328125</LongitudeDegrees>
            </Position>
            <AltitudeMeters>57.799999237060546875</AltitudeMeters>
            <DistanceMeters>NAN</DistanceMeters>
          </Trackpoint>
          <Trackpoint>
            <Time>2022-07-16T13:25:51.000Z</Time>
            <Position>
              <LatitudeDegrees>43.440492264926433563232421875</LatitudeDegrees>
              <LongitudeDegrees>-4.9593079090118408203125</LongitudeDegrees>
            </Position>
            <AltitudeMeters>58</AltitudeMeters>
            <DistanceMeters>NAN</DistanceMeters>
          </Trackpoint>
          <Trackpoint>
            <Time>2022-07-16T13:25:53.000Z</Time>
            <Position>
              <LatitudeDegrees>43.44050425104796886444091796875</LatitudeDegrees>
              <LongitudeDegrees>-4.959359206259250640869140625</LongitudeDegrees>
            </Position>
            <AltitudeMeters>58.200000762939453125</AltitudeMeters>
            <DistanceMeters>NAN</DistanceMeters>
          </Trackpoint>
          <Trackpoint>
            <Time>2022-07-16T13:25:56.000Z</Time>
            <Position>
              <LatitudeDegrees>43.44052235595881938934326171875</LatitudeDegrees>
              <LongitudeDegrees>-4.9594455398619174957275390625</LongitudeDegrees>
            </Position>
            <AltitudeMeters>58.59999847412109375</AltitudeMeters>
            <DistanceMeters>NAN</DistanceMeters>
          </Trackpoint>
          <Trackpoint>
            <Time>2022-07-16T13:25:59.000Z</Time>
            <Position>
              <LatitudeDegrees>43.44055018387734889984130859375</LatitudeDegrees>
              <LongitudeDegrees>-4.959538914263248443603515625</LongitudeDegrees>
            </Position>
            <AltitudeMeters>58.799999237060546875</AltitudeMeters>
            <DistanceMeters>NAN</DistanceMeters>
          </Trackpoint>
          <Trackpoint>
            <Time>2022-07-16T13:26:03.000Z</Time>
            <Position>
              <LatitudeDegrees>43.44059863127768039703369140625</LatitudeDegrees>
              <LongitudeDegrees>-4.95969540439546108245849609375</LongitudeDegrees>
            </Position>
            <AltitudeMeters>58.799999237060546875</AltitudeMeters>
            <DistanceMeters>NAN</DistanceMeters>
          </Trackpoint>
          <Trackpoint>
            <Time>2022-07-16T13:26:09.000Z</Time>
            <Position>
              <LatitudeDegrees>43.4406872279942035675048828125</LatitudeDegrees>
              <LongitudeDegrees>-4.95998340658843517303466796875</LongitudeDegrees>
            </Position>
            <AltitudeMeters>58.40000152587890625</AltitudeMeters>
            <DistanceMeters>NAN</DistanceMeters>
          </Trackpoint>
          <Trackpoint>
            <Time>2022-07-16T13:26:11.000Z</Time>
            <Position>
              <LatitudeDegrees>43.4407170675694942474365234375</LatitudeDegrees>
              <LongitudeDegrees>-4.96010142378509044647216796875</LongitudeDegrees>
            </Position>
            <AltitudeMeters>58.200000762939453125</AltitudeMeters>
            <DistanceMeters>NAN</DistanceMeters>
          </Trackpoint>
          <Trackpoint>
            <Time>2022-07-16T13:26:13.000Z</Time>
            <Position>
              <LatitudeDegrees>43.440752439200878143310546875</LatitudeDegrees>
              <LongitudeDegrees>-4.96022463776171207427978515625</LongitudeDegrees>
            </Position>
            <AltitudeMeters>58</AltitudeMeters>
            <DistanceMeters>NAN</DistanceMeters>
          </Trackpoint>
          <Trackpoint>
            <Time>2022-07-16T13:26:15.000Z</Time>
            <Position>
              <LatitudeDegrees>43.44079434871673583984375</LatitudeDegrees>
              <LongitudeDegrees>-4.9603662081062793731689453125</LongitudeDegrees>
            </Position>
            <AltitudeMeters>57.59999847412109375</AltitudeMeters>
            <DistanceMeters>NAN</DistanceMeters>
          </Trackpoint>
          <Trackpoint>
            <Time>2022-07-16T13:26:17.000Z</Time>
            <Position>
              <LatitudeDegrees>43.44084908254444599151611328125</LatitudeDegrees>
              <LongitudeDegrees>-4.96050844900310039520263671875</LongitudeDegrees>
            </Position>
            <AltitudeMeters>57</AltitudeMeters>
            <DistanceMeters>NAN</DistanceMeters>
          </Trackpoint>
          <Trackpoint>
            <Time>2022-07-16T13:26:19.000Z</Time>
            <Position>
              <LatitudeDegrees>43.44093457795679569244384765625</LatitudeDegrees>
              <LongitudeDegrees>-4.96062059886753559112548828125</LongitudeDegrees>
            </Position>
            <AltitudeMeters>56.59999847412109375</AltitudeMeters>
            <DistanceMeters>NAN</DistanceMeters>
          </Trackpoint>
          <Trackpoint>
            <Time>2022-07-16T13:26:25.000Z</Time>
            <Position>
              <LatitudeDegrees>43.4412119351327419281005859375</LatitudeDegrees>
              <LongitudeDegrees>-4.960867948830127716064453125</LongitudeDegrees>
            </Position>
            <AltitudeMeters>56</AltitudeMeters>
            <DistanceMeters>NAN</DistanceMeters>
          </Trackpoint>
          <Trackpoint>
            <Time>2022-07-16T13:26:30.000Z</Time>
            <Position>
              <LatitudeDegrees>43.44141863286495208740234375</LatitudeDegrees>
              <LongitudeDegrees>-4.96101320721209049224853515625</LongitudeDegrees>
            </Position>
            <AltitudeMeters>55.59999847412109375</AltitudeMeters>
            <DistanceMeters>NAN</DistanceMeters>
          </Trackpoint>
          <Trackpoint>
            <Time>2022-07-16T13:26:34.000Z</Time>
            <Position>
              <LatitudeDegrees>43.44158601947128772735595703125</LatitudeDegrees>
              <LongitudeDegrees>-4.96110306121408939361572265625</LongitudeDegrees>
            </Position>
            <AltitudeMeters>55</AltitudeMeters>
            <DistanceMeters>NAN</DistanceMeters>
          </Trackpoint>
          <Trackpoint>
            <Time>2022-07-16T13:26:38.000Z</Time>
            <Position>
              <LatitudeDegrees>43.44176991842687129974365234375</LatitudeDegrees>
              <LongitudeDegrees>-4.96117799542844295501708984375</LongitudeDegrees>
            </Position>
            <AltitudeMeters>54.40000152587890625</AltitudeMeters>
            <DistanceMeters>NAN</DistanceMeters>
          </Trackpoint>
          <Trackpoint>
            <Time>2022-07-16T13:26:41.000Z</Time>
            <Position>
              <LatitudeDegrees>43.441903106868267059326171875</LatitudeDegrees>
              <LongitudeDegrees>-4.9612315557897090911865234375</LongitudeDegrees>
            </Position>
            <AltitudeMeters>54.40000152587890625</AltitudeMeters>
            <DistanceMeters>NAN</DistanceMeters>
          </Trackpoint>
          <Trackpoint>
            <Time>2022-07-16T13:26:46.000Z</Time>
            <Position>
              <LatitudeDegrees>43.44213872216641902923583984375</LatitudeDegrees>
              <LongitudeDegrees>-4.96130146086215972900390625</LongitudeDegrees>
            </Position>
            <AltitudeMeters>54.40000152587890625</AltitudeMeters>
            <DistanceMeters>NAN</DistanceMeters>
          </Trackpoint>
          <Trackpoint>
            <Time>2022-07-16T13:26:49.000Z</Time>
            <Position>
              <LatitudeDegrees>43.4422693960368633270263671875</LatitudeDegrees>
              <LongitudeDegrees>-4.9613334797322750091552734375</LongitudeDegrees>
            </Position>
            <AltitudeMeters>54.59999847412109375</AltitudeMeters>
            <DistanceMeters>NAN</DistanceMeters>
          </Trackpoint>
          <Trackpoint>
            <Time>2022-07-16T13:26:55.000Z</Time>
            <Position>
              <LatitudeDegrees>43.4425201825797557830810546875</LatitudeDegrees>
              <LongitudeDegrees>-4.961398355662822723388671875</LongitudeDegrees>
            </Position>
            <AltitudeMeters>54.59999847412109375</AltitudeMeters>
            <DistanceMeters>NAN</DistanceMeters>
          </Trackpoint>
          <Trackpoint>
            <Time>2022-07-16T13:26:56.000Z</Time>
            <Position>
              <LatitudeDegrees>43.44255832023918628692626953125</LatitudeDegrees>
              <LongitudeDegrees>-4.96141419745981693267822265625</LongitudeDegrees>
            </Position>
            <AltitudeMeters>54.59999847412109375</AltitudeMeters>
            <DistanceMeters>NAN</DistanceMeters>
          </Trackpoint>
          <Trackpoint>
            <Time>2022-07-16T13:27:00.000Z</Time>
            <Position>
              <LatitudeDegrees>43.442693687975406646728515625</LatitudeDegrees>
              <LongitudeDegrees>-4.96152500621974468231201171875</LongitudeDegrees>
            </Position>
            <AltitudeMeters>54.40000152587890625</AltitudeMeters>
            <DistanceMeters>NAN</DistanceMeters>
          </Trackpoint>
          <Trackpoint>
            <Time>2022-07-16T13:27:09.000Z</Time>
            <Position>
              <LatitudeDegrees>43.443011529743671417236328125</LatitudeDegrees>
              <LongitudeDegrees>-4.96183882467448711395263671875</LongitudeDegrees>
            </Position>
            <AltitudeMeters>54.799999237060546875</AltitudeMeters>
            <DistanceMeters>NAN</DistanceMeters>
          </Trackpoint>
          <Trackpoint>
            <Time>2022-07-16T13:27:12.000Z</Time>
            <Position>
              <LatitudeDegrees>43.44309308566153049468994140625</LatitudeDegrees>
              <LongitudeDegrees>-4.96196103282272815704345703125</LongitudeDegrees>
            </Position>
            <AltitudeMeters>54.59999847412109375</AltitudeMeters>
            <DistanceMeters>NAN</DistanceMeters>
          </Trackpoint>
          <Trackpoint>
            <Time>2022-07-16T13:27:14.000Z</Time>
            <Position>
              <LatitudeDegrees>43.44311437569558620452880859375</LatitudeDegrees>
              <LongitudeDegrees>-4.962058179080486297607421875</LongitudeDegrees>
            </Position>
            <AltitudeMeters>54.40000152587890625</AltitudeMeters>
            <DistanceMeters>NAN</DistanceMeters>
          </Trackpoint>
          <Trackpoint>
            <Time>2022-07-16T13:27:18.000Z</Time>
            <Position>
              <LatitudeDegrees>43.44306626357138156890869140625</LatitudeDegrees>
              <LongitudeDegrees>-4.96226110495626926422119140625</LongitudeDegrees>
            </Position>
            <AltitudeMeters>54</AltitudeMeters>
            <DistanceMeters>NAN</DistanceMeters>
          </Trackpoint>
          <Trackpoint>
            <Time>2022-07-16T13:27:19.000Z</Time>
            <Position>
              <LatitudeDegrees>43.44305067323148250579833984375</LatitudeDegrees>
              <LongitudeDegrees>-4.96231667697429656982421875</LongitudeDegrees>
            </Position>
            <AltitudeMeters>53.59999847412109375</AltitudeMeters>
            <DistanceMeters>NAN</DistanceMeters>
          </Trackpoint>
          <Trackpoint>
            <Time>2022-07-16T13:27:22.000Z</Time>
            <Position>
              <LatitudeDegrees>43.4430204145610332489013671875</LatitudeDegrees>
              <LongitudeDegrees>-4.96248699724674224853515625</LongitudeDegrees>
            </Position>
            <AltitudeMeters>53.200000762939453125</AltitudeMeters>
            <DistanceMeters>NAN</DistanceMeters>
          </Trackpoint>
          <Trackpoint>
            <Time>2022-07-16T13:27:24.000Z</Time>
            <Position>
              <LatitudeDegrees>43.44301748089492321014404296875</LatitudeDegrees>
              <LongitudeDegrees>-4.962604679167270660400390625</LongitudeDegrees>
            </Position>
            <AltitudeMeters>53</AltitudeMeters>
            <DistanceMeters>NAN</DistanceMeters>
          </Trackpoint>
          <Trackpoint>
            <Time>2022-07-16T13:27:27.000Z</Time>
            <Position>
              <LatitudeDegrees>43.44302033074200153350830078125</LatitudeDegrees>
              <LongitudeDegrees>-4.96277256868779659271240234375</LongitudeDegrees>
            </Position>
            <AltitudeMeters>52.59999847412109375</AltitudeMeters>
            <DistanceMeters>NAN</DistanceMeters>
          </Trackpoint>
          <Trackpoint>
            <Time>2022-07-16T13:27:28.000Z</Time>
            <Position>
              <LatitudeDegrees>43.44302368350327014923095703125</LatitudeDegrees>
              <LongitudeDegrees>-4.96282688342034816741943359375</LongitudeDegrees>
            </Position>
            <AltitudeMeters>52.59999847412109375</AltitudeMeters>
            <DistanceMeters>NAN</DistanceMeters>
          </Trackpoint>
          <Trackpoint>
            <Time>2022-07-16T13:27:29.000Z</Time>
            <Position>
              <LatitudeDegrees>43.443029634654521942138671875</LatitudeDegrees>
              <LongitudeDegrees>-4.96288262307643890380859375</LongitudeDegrees>
            </Position>
            <AltitudeMeters>52.40000152587890625</AltitudeMeters>
            <DistanceMeters>NAN</DistanceMeters>
          </Trackpoint>
          <Trackpoint>
            <Time>2022-07-16T13:27:31.000Z</Time>
            <Position>
              <LatitudeDegrees>43.44305587001144886016845703125</LatitudeDegrees>
              <LongitudeDegrees>-4.9629892408847808837890625</LongitudeDegrees>
            </Position>
            <AltitudeMeters>52.200000762939453125</AltitudeMeters>
            <DistanceMeters>NAN</DistanceMeters>
          </Trackpoint>
          <Trackpoint>
            <Time>2022-07-16T13:27:32.000Z</Time>
            <Position>
              <LatitudeDegrees>43.4430730529129505157470703125</LatitudeDegrees>
              <LongitudeDegrees>-4.96303617954254150390625</LongitudeDegrees>
            </Position>
            <AltitudeMeters>52</AltitudeMeters>
            <DistanceMeters>NAN</DistanceMeters>
          </Trackpoint>
          <Trackpoint>
            <Time>2022-07-16T13:27:35.000Z</Time>
            <Position>
              <LatitudeDegrees>43.44313331879675388336181640625</LatitudeDegrees>
              <LongitudeDegrees>-4.96315361000597476959228515625</LongitudeDegrees>
            </Position>
            <AltitudeMeters>52</AltitudeMeters>
            <DistanceMeters>NAN</DistanceMeters>
          </Trackpoint>
          <Trackpoint>
            <Time>2022-07-16T13:27:37.000Z</Time>
            <Position>
              <LatitudeDegrees>43.443176485598087310791015625</LatitudeDegrees>
              <LongitudeDegrees>-4.96323441155254840850830078125</LongitudeDegrees>
            </Position>
            <AltitudeMeters>52</AltitudeMeters>
            <DistanceMeters>NAN</DistanceMeters>
          </Trackpoint>
          <Trackpoint>
            <Time>2022-07-16T13:27:47.000Z</Time>
            <Position>
              <LatitudeDegrees>43.4433556906878948211669921875</LatitudeDegrees>
              <LongitudeDegrees>-4.96362735517323017120361328125</LongitudeDegrees>
            </Position>
            <AltitudeMeters>53.40000152587890625</AltitudeMeters>
            <DistanceMeters>NAN</DistanceMeters>
          </Trackpoint>
          <Trackpoint>
            <Time>2022-07-16T13:27:48.000Z</Time>
            <Position>
              <LatitudeDegrees>43.4433724544942378997802734375</LatitudeDegrees>
              <LongitudeDegrees>-4.963660128414630889892578125</LongitudeDegrees>
            </Position>
            <AltitudeMeters>53.59999847412109375</AltitudeMeters>
            <DistanceMeters>NAN</DistanceMeters>
          </Trackpoint>
          <Trackpoint>
            <Time>2022-07-16T13:27:52.000Z</Time>
            <Position>
              <LatitudeDegrees>43.4434341453015804290771484375</LatitudeDegrees>
              <LongitudeDegrees>-4.96377420611679553985595703125</LongitudeDegrees>
            </Position>
            <AltitudeMeters>53.59999847412109375</AltitudeMeters>
            <DistanceMeters>NAN</DistanceMeters>
          </Trackpoint>
          <Trackpoint>
            <Time>2022-07-16T13:27:54.000Z</Time>
            <Position>
              <LatitudeDegrees>43.443460799753665924072265625</LatitudeDegrees>
              <LongitudeDegrees>-4.96381242759525775909423828125</LongitudeDegrees>
            </Position>
            <AltitudeMeters>53.40000152587890625</AltitudeMeters>
            <DistanceMeters>NAN</DistanceMeters>
          </Trackpoint>
          <Trackpoint>
            <Time>2022-07-16T13:27:55.000Z</Time>
            <Position>
              <LatitudeDegrees>43.4434733726084232330322265625</LatitudeDegrees>
              <LongitudeDegrees>-4.96383153833448886871337890625</LongitudeDegrees>
            </Position>
            <AltitudeMeters>53.200000762939453125</AltitudeMeters>
            <DistanceMeters>NAN</DistanceMeters>
          </Trackpoint>
          <Trackpoint>
            <Time>2022-07-16T13:27:59.000Z</Time>
            <Position>
              <LatitudeDegrees>43.44352944754064083099365234375</LatitudeDegrees>
              <LongitudeDegrees>-4.96390052139759063720703125</LongitudeDegrees>
            </Position>
            <AltitudeMeters>53.200000762939453125</AltitudeMeters>
            <DistanceMeters>NAN</DistanceMeters>
          </Trackpoint>
          <Trackpoint>
            <Time>2022-07-16T13:28:01.000Z</Time>
            <Position>
              <LatitudeDegrees>43.44355903565883636474609375</LatitudeDegrees>
              <LongitudeDegrees>-4.96393094770610332489013671875</LongitudeDegrees>
            </Position>
            <AltitudeMeters>53.200000762939453125</AltitudeMeters>
            <DistanceMeters>NAN</DistanceMeters>
          </Trackpoint>
          <Trackpoint>
            <Time>2022-07-16T13:28:04.000Z</Time>
            <Position>
              <LatitudeDegrees>43.44359516166150569915771484375</LatitudeDegrees>
              <LongitudeDegrees>-4.96397805400192737579345703125</LongitudeDegrees>
            </Position>
            <AltitudeMeters>53.40000152587890625</AltitudeMeters>
            <DistanceMeters>NAN</DistanceMeters>
          </Trackpoint>
          <Trackpoint>
            <Time>2022-07-16T13:28:05.000Z</Time>
            <Position>
              <LatitudeDegrees>43.4436037950217723846435546875</LatitudeDegrees>
              <LongitudeDegrees>-4.96399649418890476226806640625</LongitudeDegrees>
            </Position>
            <AltitudeMeters>53.59999847412109375</AltitudeMeters>
            <DistanceMeters>NAN</DistanceMeters>
          </Trackpoint>
          <Trackpoint>
            <Time>2022-07-16T13:28:07.000Z</Time>
            <Position>
              <LatitudeDegrees>43.4436168707907199859619140625</LatitudeDegrees>
              <LongitudeDegrees>-4.96403731405735015869140625</LongitudeDegrees>
            </Position>
            <AltitudeMeters>53.799999237060546875</AltitudeMeters>
            <DistanceMeters>NAN</DistanceMeters>
          </Trackpoint>
          <Trackpoint>
            <Time>2022-07-16T13:28:08.000Z</Time>
            <Position>
              <LatitudeDegrees>43.4436213970184326171875</LatitudeDegrees>
              <LongitudeDegrees>-4.9640592746436595916748046875</LongitudeDegrees>
            </Position>
            <AltitudeMeters>53.799999237060546875</AltitudeMeters>
            <DistanceMeters>NAN</DistanceMeters>
          </Trackpoint>
          <Trackpoint>
            <Time>2022-07-16T13:28:10.000Z</Time>
            <Position>
              <LatitudeDegrees>43.44362734816968441009521484375</LatitudeDegrees>
              <LongitudeDegrees>-4.96409858576953411102294921875</LongitudeDegrees>
            </Position>
            <AltitudeMeters>54</AltitudeMeters>
            <DistanceMeters>NAN</DistanceMeters>
          </Trackpoint>
          <Trackpoint>
            <Time>2022-07-16T13:28:11.000Z</Time>
            <Position>
              <LatitudeDegrees>43.443635143339633941650390625</LatitudeDegrees>
              <LongitudeDegrees>-4.9641186185181140899658203125</LongitudeDegrees>
            </Position>
            <AltitudeMeters>54.200000762939453125</AltitudeMeters>
            <DistanceMeters>NAN</DistanceMeters>
          </Trackpoint>
          <Trackpoint>
            <Time>2022-07-16T13:28:13.000Z</Time>
            <Position>
              <LatitudeDegrees>43.443645201623439788818359375</LatitudeDegrees>
              <LongitudeDegrees>-4.96414619497954845428466796875</LongitudeDegrees>
            </Position>
            <AltitudeMeters>54.40000152587890625</AltitudeMeters>
            <DistanceMeters>NAN</DistanceMeters>
          </Trackpoint>
          <Trackpoint>
            <Time>2022-07-16T13:28:15.000Z</Time>
            <Position>
              <LatitudeDegrees>43.44365668483078479766845703125</LatitudeDegrees>
              <LongitudeDegrees>-4.96416966430842876434326171875</LongitudeDegrees>
            </Position>
            <AltitudeMeters>54.59999847412109375</AltitudeMeters>
            <DistanceMeters>NAN</DistanceMeters>
          </Trackpoint>
          <Trackpoint>
            <Time>2022-07-16T13:28:18.000Z</Time>
            <Position>
              <LatitudeDegrees>43.4436728619039058685302734375</LatitudeDegrees>
              <LongitudeDegrees>-4.9642178602516651153564453125</LongitudeDegrees>
            </Position>
            <AltitudeMeters>55</AltitudeMeters>
            <DistanceMeters>NAN</DistanceMeters>
          </Trackpoint>
          <Trackpoint>
            <Time>2022-07-16T13:28:21.000Z</Time>
            <Position>
              <LatitudeDegrees>43.443692140281200408935546875</LatitudeDegrees>
              <LongitudeDegrees>-4.96426488272845745086669921875</LongitudeDegrees>
            </Position>
            <AltitudeMeters>55.40000152587890625</AltitudeMeters>
            <DistanceMeters>NAN</DistanceMeters>
          </Trackpoint>
          <Trackpoint>
            <Time>2022-07-16T13:28:24.000Z</Time>
            <Position>
              <LatitudeDegrees>43.4437016956508159637451171875</LatitudeDegrees>
              <LongitudeDegrees>-4.96432037092745304107666015625</LongitudeDegrees>
            </Position>
            <AltitudeMeters>55.59999847412109375</AltitudeMeters>
            <DistanceMeters>NAN</DistanceMeters>
          </Trackpoint>
          <Trackpoint>
            <Time>2022-07-16T13:28:26.000Z</Time>
            <Position>
              <LatitudeDegrees>43.44371460378170013427734375</LatitudeDegrees>
              <LongitudeDegrees>-4.96434710919857025146484375</LongitudeDegrees>
            </Position>
            <AltitudeMeters>56</AltitudeMeters>
            <DistanceMeters>NAN</DistanceMeters>
          </Trackpoint>
          <Trackpoint>
            <Time>2022-07-16T13:28:29.000Z</Time>
            <Position>
              <LatitudeDegrees>43.4437365643680095672607421875</LatitudeDegrees>
              <LongitudeDegrees>-4.96440368704497814178466796875</LongitudeDegrees>
            </Position>
            <AltitudeMeters>56.59999847412109375</AltitudeMeters>
            <DistanceMeters>NAN</DistanceMeters>
          </Trackpoint>
          <Trackpoint>
            <Time>2022-07-16T13:28:30.000Z</Time>
            <Position>
              <LatitudeDegrees>43.44374301843345165252685546875</LatitudeDegrees>
              <LongitudeDegrees>-4.96442128904163837432861328125</LongitudeDegrees>
            </Position>
            <AltitudeMeters>56.799999237060546875</AltitudeMeters>
            <DistanceMeters>NAN</DistanceMeters>
          </Trackpoint>
          <Trackpoint>
            <Time>2022-07-16T13:28:33.000Z</Time>
            <Position>
              <LatitudeDegrees>43.44376279972493648529052734375</LatitudeDegrees>
              <LongitudeDegrees>-4.964476190507411956787109375</LongitudeDegrees>
            </Position>
            <AltitudeMeters>57.200000762939453125</AltitudeMeters>
            <DistanceMeters>NAN</DistanceMeters>
          </Trackpoint>
          <Trackpoint>
            <Time>2022-07-16T13:28:39.000Z</Time>
            <Position>
              <LatitudeDegrees>43.44379716552793979644775390625</LatitudeDegrees>
              <LongitudeDegrees>-4.96456495486199855804443359375</LongitudeDegrees>
            </Position>
            <AltitudeMeters>57.799999237060546875</AltitudeMeters>
            <DistanceMeters>NAN</DistanceMeters>
          </Trackpoint>
          <Trackpoint>
            <Time>2022-07-16T13:28:40.000Z</Time>
            <Position>
              <LatitudeDegrees>43.4438026137650012969970703125</LatitudeDegrees>
              <LongitudeDegrees>-4.9645792879164218902587890625</LongitudeDegrees>
            </Position>
            <AltitudeMeters>58</AltitudeMeters>
            <DistanceMeters>NAN</DistanceMeters>
          </Trackpoint>
          <Trackpoint>
            <Time>2022-07-16T13:28:45.000Z</Time>
            <Position>
              <LatitudeDegrees>43.44382566399872303009033203125</LatitudeDegrees>
              <LongitudeDegrees>-4.964626729488372802734375</LongitudeDegrees>
            </Position>
            <AltitudeMeters>58.59999847412109375</AltitudeMeters>
            <DistanceMeters>NAN</DistanceMeters>
          </Trackpoint>
          <Trackpoint>
            <Time>2022-07-16T13:28:46.000Z</Time>
            <Position>
              <LatitudeDegrees>43.4438280947506427764892578125</LatitudeDegrees>
              <LongitudeDegrees>-4.9646382965147495269775390625</LongitudeDegrees>
            </Position>
            <AltitudeMeters>58.799999237060546875</AltitudeMeters>
            <DistanceMeters>NAN</DistanceMeters>
          </Trackpoint>
          <Trackpoint>
            <Time>2022-07-16T13:28:48.000Z</Time>
            <Position>
              <LatitudeDegrees>43.4438358061015605926513671875</LatitudeDegrees>
              <LongitudeDegrees>-4.96466469950973987579345703125</LongitudeDegrees>
            </Position>
            <AltitudeMeters>59</AltitudeMeters>
            <DistanceMeters>NAN</DistanceMeters>
          </Trackpoint>
          <Trackpoint>
            <Time>2022-07-16T13:28:55.000Z</Time>
            <Position>
              <LatitudeDegrees>43.443855084478855133056640625</LatitudeDegrees>
              <LongitudeDegrees>-4.96478858403861522674560546875</LongitudeDegrees>
            </Position>
            <AltitudeMeters>59.799999237060546875</AltitudeMeters>
            <DistanceMeters>NAN</DistanceMeters>
          </Trackpoint>
          <Trackpoint>
            <Time>2022-07-16T13:28:58.000Z</Time>
            <Position>
              <LatitudeDegrees>43.4438589401543140411376953125</LatitudeDegrees>
              <LongitudeDegrees>-4.96485010720789432525634765625</LongitudeDegrees>
            </Position>
            <AltitudeMeters>60.200000762939453125</AltitudeMeters>
            <DistanceMeters>NAN</DistanceMeters>
          </Trackpoint>
          <Trackpoint>
            <Time>2022-07-16T13:28:59.000Z</Time>
            <Position>
              <LatitudeDegrees>43.44385810196399688720703125</LatitudeDegrees>
              <LongitudeDegrees>-4.9648625962436199188232421875</LongitudeDegrees>
            </Position>
            <AltitudeMeters>60.40000152587890625</AltitudeMeters>
            <DistanceMeters>NAN</DistanceMeters>
          </Trackpoint>
          <Trackpoint>
            <Time>2022-07-16T13:29:01.000Z</Time>
            <Position>
              <LatitudeDegrees>43.44385944306850433349609375</LatitudeDegrees>
              <LongitudeDegrees>-4.96489553712308406829833984375</LongitudeDegrees>
            </Position>
            <AltitudeMeters>60.799999237060546875</AltitudeMeters>
            <DistanceMeters>NAN</DistanceMeters>
          </Trackpoint>
          <Trackpoint>
            <Time>2022-07-16T13:29:03.000Z</Time>
            <Position>
              <LatitudeDegrees>43.44386539421975612640380859375</LatitudeDegrees>
              <LongitudeDegrees>-4.96495219878852367401123046875</LongitudeDegrees>
            </Position>
            <AltitudeMeters>61</AltitudeMeters>
            <DistanceMeters>NAN</DistanceMeters>
          </Trackpoint>
          <Trackpoint>
            <Time>2022-07-16T13:29:06.000Z</Time>
            <Position>
              <LatitudeDegrees>43.4438659809529781341552734375</LatitudeDegrees>
              <LongitudeDegrees>-4.96499327011406421661376953125</LongitudeDegrees>
            </Position>
            <AltitudeMeters>61.40000152587890625</AltitudeMeters>
            <DistanceMeters>NAN</DistanceMeters>
          </Trackpoint>
          <Trackpoint>
            <Time>2022-07-16T13:29:10.000Z</Time>
            <Position>
              <LatitudeDegrees>43.4438710100948810577392578125</LatitudeDegrees>
              <LongitudeDegrees>-4.96504138223826885223388671875</LongitudeDegrees>
            </Position>
            <AltitudeMeters>62</AltitudeMeters>
            <DistanceMeters>NAN</DistanceMeters>
          </Trackpoint>
          <Trackpoint>
            <Time>2022-07-16T13:29:12.000Z</Time>
            <Position>
              <LatitudeDegrees>43.4438830800354480743408203125</LatitudeDegrees>
              <LongitudeDegrees>-4.9650744907557964324951171875</LongitudeDegrees>
            </Position>
            <AltitudeMeters>62.40000152587890625</AltitudeMeters>
            <DistanceMeters>NAN</DistanceMeters>
          </Trackpoint>
          <Trackpoint>
            <Time>2022-07-16T13:29:16.000Z</Time>
            <Position>
              <LatitudeDegrees>43.44389489851891994476318359375</LatitudeDegrees>
              <LongitudeDegrees>-4.96515520848333835601806640625</LongitudeDegrees>
            </Position>
            <AltitudeMeters>63</AltitudeMeters>
            <DistanceMeters>NAN</DistanceMeters>
          </Trackpoint>
          <Trackpoint>
            <Time>2022-07-16T13:29:17.000Z</Time>
            <Position>
              <LatitudeDegrees>43.44389724545180797576904296875</LatitudeDegrees>
              <LongitudeDegrees>-4.96517666615545749664306640625</LongitudeDegrees>
            </Position>
            <AltitudeMeters>63.200000762939453125</AltitudeMeters>
            <DistanceMeters>NAN</DistanceMeters>
          </Trackpoint>
          <Trackpoint>
            <Time>2022-07-16T13:29:19.000Z</Time>
            <Position>
              <LatitudeDegrees>43.44389506615698337554931640625</LatitudeDegrees>
              <LongitudeDegrees>-4.96521958149969577789306640625</LongitudeDegrees>
            </Position>
            <AltitudeMeters>63.40000152587890625</AltitudeMeters>
            <DistanceMeters>NAN</DistanceMeters>
          </Trackpoint>
          <Trackpoint>
            <Time>2022-07-16T13:29:25.000Z</Time>
            <Position>
              <LatitudeDegrees>43.44394217245280742645263671875</LatitudeDegrees>
              <LongitudeDegrees>-4.96538872830569744110107421875</LongitudeDegrees>
            </Position>
            <AltitudeMeters>64.1999969482421875</AltitudeMeters>
            <DistanceMeters>NAN</DistanceMeters>
          </Trackpoint>
          <Trackpoint>
            <Time>2022-07-16T13:29:28.000Z</Time>
            <Position>
              <LatitudeDegrees>43.443956337869167327880859375</LatitudeDegrees>
              <LongitudeDegrees>-4.96545947156846523284912109375</LongitudeDegrees>
            </Position>
            <AltitudeMeters>64.40000152587890625</AltitudeMeters>
            <DistanceMeters>NAN</DistanceMeters>
          </Trackpoint>
          <Trackpoint>
            <Time>2022-07-16T13:29:36.000Z</Time>
            <Position>
              <LatitudeDegrees>43.44401232898235321044921875</LatitudeDegrees>
              <LongitudeDegrees>-4.965537004172801971435546875</LongitudeDegrees>
            </Position>
            <AltitudeMeters>65</AltitudeMeters>
            <DistanceMeters>NAN</DistanceMeters>
          </Trackpoint>
          <Trackpoint>
            <Time>2022-07-16T13:29:37.000Z</Time>
            <Position>
              <LatitudeDegrees>43.44401232898235321044921875</LatitudeDegrees>
              <LongitudeDegrees>-4.965537004172801971435546875</LongitudeDegrees>
            </Position>
            <AltitudeMeters>65</AltitudeMeters>
            <DistanceMeters>NAN</DistanceMeters>
          </Trackpoint>
          <Trackpoint>
            <Time>2022-07-16T13:32:14.000Z</Time>
            <Position>
              <LatitudeDegrees>43.44402716495096683502197265625</LatitudeDegrees>
              <LongitudeDegrees>-4.9656219966709613800048828125</LongitudeDegrees>
            </Position>
            <AltitudeMeters>65</AltitudeMeters>
            <DistanceMeters>NAN</DistanceMeters>
          </Trackpoint>
          <Trackpoint>
            <Time>2022-07-16T13:32:15.000Z</Time>
            <Position>
              <LatitudeDegrees>43.44402951188385486602783203125</LatitudeDegrees>
              <LongitudeDegrees>-4.96564328670501708984375</LongitudeDegrees>
            </Position>
            <AltitudeMeters>65</AltitudeMeters>
            <DistanceMeters>NAN</DistanceMeters>
          </Trackpoint>
          <Trackpoint>
            <Time>2022-07-16T13:32:17.000Z</Time>
            <Position>
              <LatitudeDegrees>43.44403789378702640533447265625</LatitudeDegrees>
              <LongitudeDegrees>-4.96568779461085796356201171875</LongitudeDegrees>
            </Position>
            <AltitudeMeters>66</AltitudeMeters>
            <DistanceMeters>NAN</DistanceMeters>
          </Trackpoint>
          <Trackpoint>
            <Time>2022-07-16T13:32:19.000Z</Time>
            <Position>
              <LatitudeDegrees>43.44404694624245166778564453125</LatitudeDegrees>
              <LongitudeDegrees>-4.96572517789900302886962890625</LongitudeDegrees>
            </Position>
            <AltitudeMeters>67.1999969482421875</AltitudeMeters>
            <DistanceMeters>NAN</DistanceMeters>
          </Trackpoint>
          <Trackpoint>
            <Time>2022-07-16T13:32:24.000Z</Time>
            <Position>
              <LatitudeDegrees>43.44405733980238437652587890625</LatitudeDegrees>
              <LongitudeDegrees>-4.96581939049065113067626953125</LongitudeDegrees>
            </Position>
            <AltitudeMeters>68.40000152587890625</AltitudeMeters>
            <DistanceMeters>NAN</DistanceMeters>
          </Trackpoint>
          <Trackpoint>
            <Time>2022-07-16T13:32:25.000Z</Time>
            <Position>
              <LatitudeDegrees>43.44405851326882839202880859375</LatitudeDegrees>
              <LongitudeDegrees>-4.96583481319248676300048828125</LongitudeDegrees>
            </Position>
            <AltitudeMeters>68.59999847412109375</AltitudeMeters>
            <DistanceMeters>NAN</DistanceMeters>
          </Trackpoint>
          <Trackpoint>
            <Time>2022-07-16T13:32:28.000Z</Time>
            <Position>
              <LatitudeDegrees>43.444063626229763031005859375</LatitudeDegrees>
              <LongitudeDegrees>-4.96589181013405323028564453125</LongitudeDegrees>
            </Position>
            <AltitudeMeters>69.40000152587890625</AltitudeMeters>
            <DistanceMeters>NAN</DistanceMeters>
          </Trackpoint>
          <Trackpoint>
            <Time>2022-07-16T13:32:31.000Z</Time>
            <Position>
              <LatitudeDegrees>43.4440634585916996002197265625</LatitudeDegrees>
              <LongitudeDegrees>-4.96594897471368312835693359375</LongitudeDegrees>
            </Position>
            <AltitudeMeters>70.1999969482421875</AltitudeMeters>
            <DistanceMeters>NAN</DistanceMeters>
          </Trackpoint>
          <Trackpoint>
            <Time>2022-07-16T13:32:33.000Z</Time>
            <Position>
              <LatitudeDegrees>43.444064296782016754150390625</LatitudeDegrees>
              <LongitudeDegrees>-4.965974874794483184814453125</LongitudeDegrees>
            </Position>
            <AltitudeMeters>70.59999847412109375</AltitudeMeters>
            <DistanceMeters>NAN</DistanceMeters>
          </Trackpoint>
          <Trackpoint>
            <Time>2022-07-16T13:32:34.000Z</Time>
            <Position>
              <LatitudeDegrees>43.4440651349723339080810546875</LatitudeDegrees>
              <LongitudeDegrees>-4.965992309153079986572265625</LongitudeDegrees>
            </Position>
            <AltitudeMeters>70.8000030517578125</AltitudeMeters>
            <DistanceMeters>NAN</DistanceMeters>
          </Trackpoint>
          <Trackpoint>
            <Time>2022-07-16T13:32:36.000Z</Time>
            <Position>
              <LatitudeDegrees>43.44406194984912872314453125</LatitudeDegrees>
              <LongitudeDegrees>-4.9660241603851318359375</LongitudeDegrees>
            </Position>
            <AltitudeMeters>71</AltitudeMeters>
            <DistanceMeters>NAN</DistanceMeters>
          </Trackpoint>
          <Trackpoint>
            <Time>2022-07-16T13:32:38.000Z</Time>
            <Position>
              <LatitudeDegrees>43.44406069256365299224853515625</LatitudeDegrees>
              <LongitudeDegrees>-4.96606045402586460113525390625</LongitudeDegrees>
            </Position>
            <AltitudeMeters>71.59999847412109375</AltitudeMeters>
            <DistanceMeters>NAN</DistanceMeters>
          </Trackpoint>
          <Trackpoint>
            <Time>2022-07-16T13:32:39.000Z</Time>
            <Position>
              <LatitudeDegrees>43.44405700452625751495361328125</LatitudeDegrees>
              <LongitudeDegrees>-4.96607151813805103302001953125</LongitudeDegrees>
            </Position>
            <AltitudeMeters>72</AltitudeMeters>
            <DistanceMeters>NAN</DistanceMeters>
          </Trackpoint>
          <Trackpoint>
            <Time>2022-07-16T13:32:46.000Z</Time>
            <Position>
              <LatitudeDegrees>43.44405633397400379180908203125</LatitudeDegrees>
              <LongitudeDegrees>-4.96619909070432186126708984375</LongitudeDegrees>
            </Position>
            <AltitudeMeters>73</AltitudeMeters>
            <DistanceMeters>NAN</DistanceMeters>
          </Trackpoint>
          <Trackpoint>
            <Time>2022-07-16T13:32:51.000Z</Time>
            <Position>
              <LatitudeDegrees>43.444044850766658782958984375</LatitudeDegrees>
              <LongitudeDegrees>-4.96629732660949230194091796875</LongitudeDegrees>
            </Position>
            <AltitudeMeters>73.8000030517578125</AltitudeMeters>
            <DistanceMeters>NAN</DistanceMeters>
          </Trackpoint>
          <Trackpoint>
            <Time>2022-07-16T13:32:52.000Z</Time>
            <Position>
              <LatitudeDegrees>43.4440443478524684906005859375</LatitudeDegrees>
              <LongitudeDegrees>-4.966314174234867095947265625</LongitudeDegrees>
            </Position>
            <AltitudeMeters>74.1999969482421875</AltitudeMeters>
            <DistanceMeters>NAN</DistanceMeters>
          </Trackpoint>
          <Trackpoint>
            <Time>2022-07-16T13:32:54.000Z</Time>
            <Position>
              <LatitudeDegrees>43.444036133587360382080078125</LatitudeDegrees>
              <LongitudeDegrees>-4.9663446843624114990234375</LongitudeDegrees>
            </Position>
            <AltitudeMeters>74.40000152587890625</AltitudeMeters>
            <DistanceMeters>NAN</DistanceMeters>
          </Trackpoint>
          <Trackpoint>
            <Time>2022-07-16T13:32:57.000Z</Time>
            <Position>
              <LatitudeDegrees>43.44402582384645938873291015625</LatitudeDegrees>
              <LongitudeDegrees>-4.96640578843653202056884765625</LongitudeDegrees>
            </Position>
            <AltitudeMeters>75.1999969482421875</AltitudeMeters>
            <DistanceMeters>NAN</DistanceMeters>
          </Trackpoint>
          <Trackpoint>
            <Time>2022-07-16T13:33:01.000Z</Time>
            <Position>
              <LatitudeDegrees>43.44401693902909755706787109375</LatitudeDegrees>
              <LongitudeDegrees>-4.96647368185222148895263671875</LongitudeDegrees>
            </Position>
            <AltitudeMeters>75.8000030517578125</AltitudeMeters>
            <DistanceMeters>NAN</DistanceMeters>
          </Trackpoint>
          <Trackpoint>
            <Time>2022-07-16T13:33:03.000Z</Time>
            <Position>
              <LatitudeDegrees>43.44401442445814609527587890625</LatitudeDegrees>
              <LongitudeDegrees>-4.96649648062884807586669921875</LongitudeDegrees>
            </Position>
            <AltitudeMeters>76.1999969482421875</AltitudeMeters>
            <DistanceMeters>NAN</DistanceMeters>
          </Trackpoint>
          <Trackpoint>
            <Time>2022-07-16T13:33:07.000Z</Time>
            <Position>
              <LatitudeDegrees>43.44400738365948200225830078125</LatitudeDegrees>
              <LongitudeDegrees>-4.96656571514904499053955078125</LongitudeDegrees>
            </Position>
            <AltitudeMeters>76.8000030517578125</AltitudeMeters>
            <DistanceMeters>NAN</DistanceMeters>
          </Trackpoint>
          <Trackpoint>
            <Time>2022-07-16T13:33:10.000Z</Time>
            <Position>
              <LatitudeDegrees>43.44401274807751178741455078125</LatitudeDegrees>
              <LongitudeDegrees>-4.966625981032848358154296875</LongitudeDegrees>
            </Position>
            <AltitudeMeters>77.40000152587890625</AltitudeMeters>
            <DistanceMeters>NAN</DistanceMeters>
          </Trackpoint>
          <Trackpoint>
            <Time>2022-07-16T13:33:15.000Z</Time>
            <Position>
              <LatitudeDegrees>43.44401241280138492584228515625</LatitudeDegrees>
              <LongitudeDegrees>-4.96669831685721874237060546875</LongitudeDegrees>
            </Position>
            <AltitudeMeters>78.1999969482421875</AltitudeMeters>
            <DistanceMeters>NAN</DistanceMeters>
          </Trackpoint>
          <Trackpoint>
            <Time>2022-07-16T13:33:17.000Z</Time>
            <Position>
              <LatitudeDegrees>43.44400386326014995574951171875</LatitudeDegrees>
              <LongitudeDegrees>-4.96672798879444599151611328125</LongitudeDegrees>
            </Position>
            <AltitudeMeters>78.40000152587890625</AltitudeMeters>
            <DistanceMeters>NAN</DistanceMeters>
          </Trackpoint>
          <Trackpoint>
            <Time>2022-07-16T13:33:21.000Z</Time>
            <Position>
              <LatitudeDegrees>43.44399564899504184722900390625</LatitudeDegrees>
              <LongitudeDegrees>-4.9667870812118053436279296875</LongitudeDegrees>
            </Position>
            <AltitudeMeters>79.1999969482421875</AltitudeMeters>
            <DistanceMeters>NAN</DistanceMeters>
          </Trackpoint>
          <Trackpoint>
            <Time>2022-07-16T13:33:24.000Z</Time>
            <Position>
              <LatitudeDegrees>43.4439843334257602691650390625</LatitudeDegrees>
              <LongitudeDegrees>-4.96684382669627666473388671875</LongitudeDegrees>
            </Position>
            <AltitudeMeters>79.59999847412109375</AltitudeMeters>
            <DistanceMeters>NAN</DistanceMeters>
          </Trackpoint>
          <Trackpoint>
            <Time>2022-07-16T13:33:29.000Z</Time>
            <Position>
              <LatitudeDegrees>43.44397385604679584503173828125</LatitudeDegrees>
              <LongitudeDegrees>-4.966927058994770050048828125</LongitudeDegrees>
            </Position>
            <AltitudeMeters>80.1999969482421875</AltitudeMeters>
            <DistanceMeters>NAN</DistanceMeters>
          </Trackpoint>
          <Trackpoint>
            <Time>2022-07-16T13:33:31.000Z</Time>
            <Position>
              <LatitudeDegrees>43.44397385604679584503173828125</LatitudeDegrees>
              <LongitudeDegrees>-4.966927058994770050048828125</LongitudeDegrees>
            </Position>
            <AltitudeMeters>80.40000152587890625</AltitudeMeters>
            <DistanceMeters>NAN</DistanceMeters>
          </Trackpoint>
          <Trackpoint>
            <Time>2022-07-16T13:33:59.000Z</Time>
            <Position>
              <LatitudeDegrees>43.44397385604679584503173828125</LatitudeDegrees>
              <LongitudeDegrees>-4.96695346198976039886474609375</LongitudeDegrees>
            </Position>
            <AltitudeMeters>80.59999847412109375</AltitudeMeters>
            <DistanceMeters>NAN</DistanceMeters>
          </Trackpoint>
          <Trackpoint>
            <Time>2022-07-16T13:34:00.000Z</Time>
            <Position>
              <LatitudeDegrees>43.4439736045897006988525390625</LatitudeDegrees>
              <LongitudeDegrees>-4.96697424910962581634521484375</LongitudeDegrees>
            </Position>
            <AltitudeMeters>80.59999847412109375</AltitudeMeters>
            <DistanceMeters>NAN</DistanceMeters>
          </Trackpoint>
          <Trackpoint>
            <Time>2022-07-16T13:34:05.000Z</Time>
            <Position>
              <LatitudeDegrees>43.44396463595330715179443359375</LatitudeDegrees>
              <LongitudeDegrees>-4.96708966791629791259765625</LongitudeDegrees>
            </Position>
            <AltitudeMeters>81.59999847412109375</AltitudeMeters>
            <DistanceMeters>NAN</DistanceMeters>
          </Trackpoint>
          <Trackpoint>
            <Time>2022-07-16T13:34:08.000Z</Time>
            <Position>
              <LatitudeDegrees>43.44396212138235569000244140625</LatitudeDegrees>
              <LongitudeDegrees>-4.96715680696070194244384765625</LongitudeDegrees>
            </Position>
            <AltitudeMeters>82.1999969482421875</AltitudeMeters>
            <DistanceMeters>NAN</DistanceMeters>
          </Trackpoint>
          <Trackpoint>
            <Time>2022-07-16T13:34:09.000Z</Time>
            <Position>
              <LatitudeDegrees>43.4439625404775142669677734375</LatitudeDegrees>
              <LongitudeDegrees>-4.96717675589025020599365234375</LongitudeDegrees>
            </Position>
            <AltitudeMeters>82.40000152587890625</AltitudeMeters>
            <DistanceMeters>NAN</DistanceMeters>
          </Trackpoint>
          <Trackpoint>
            <Time>2022-07-16T13:34:11.000Z</Time>
            <Position>
              <LatitudeDegrees>43.4439591877162456512451171875</LatitudeDegrees>
              <LongitudeDegrees>-4.9672135524451732635498046875</LongitudeDegrees>
            </Position>
            <AltitudeMeters>83</AltitudeMeters>
            <DistanceMeters>NAN</DistanceMeters>
          </Trackpoint>
          <Trackpoint>
            <Time>2022-07-16T13:34:15.000Z</Time>
            <Position>
              <LatitudeDegrees>43.4439511410892009735107421875</LatitudeDegrees>
              <LongitudeDegrees>-4.96727935038506984710693359375</LongitudeDegrees>
            </Position>
            <AltitudeMeters>83.59999847412109375</AltitudeMeters>
            <DistanceMeters>NAN</DistanceMeters>
          </Trackpoint>
          <Trackpoint>
            <Time>2022-07-16T13:34:17.000Z</Time>
            <Position>
              <LatitudeDegrees>43.4439457766711711883544921875</LatitudeDegrees>
              <LongitudeDegrees>-4.9673081003129482269287109375</LongitudeDegrees>
            </Position>
            <AltitudeMeters>84</AltitudeMeters>
            <DistanceMeters>NAN</DistanceMeters>
          </Trackpoint>
          <Trackpoint>
            <Time>2022-07-16T13:34:18.000Z</Time>
            <Position>
              <LatitudeDegrees>43.4439392387866973876953125</LatitudeDegrees>
              <LongitudeDegrees>-4.96731556020677089691162109375</LongitudeDegrees>
            </Position>
            <AltitudeMeters>84</AltitudeMeters>
            <DistanceMeters>NAN</DistanceMeters>
          </Trackpoint>
          <Trackpoint>
            <Time>2022-07-16T13:34:20.000Z</Time>
            <Position>
              <LatitudeDegrees>43.44392783939838409423828125</LatitudeDegrees>
              <LongitudeDegrees>-4.9673369340598583221435546875</LongitudeDegrees>
            </Position>
            <AltitudeMeters>84.40000152587890625</AltitudeMeters>
            <DistanceMeters>NAN</DistanceMeters>
          </Trackpoint>
          <Trackpoint>
            <Time>2022-07-16T13:34:23.000Z</Time>
            <Position>
              <LatitudeDegrees>43.443919457495212554931640625</LatitudeDegrees>
              <LongitudeDegrees>-4.9673795141279697418212890625</LongitudeDegrees>
            </Position>
            <AltitudeMeters>85</AltitudeMeters>
            <DistanceMeters>NAN</DistanceMeters>
          </Trackpoint>
          <Trackpoint>
            <Time>2022-07-16T13:34:24.000Z</Time>
            <Position>
              <LatitudeDegrees>43.443914763629436492919921875</LatitudeDegrees>
              <LongitudeDegrees>-4.96739552356302738189697265625</LongitudeDegrees>
            </Position>
            <AltitudeMeters>85</AltitudeMeters>
            <DistanceMeters>NAN</DistanceMeters>
          </Trackpoint>
          <Trackpoint>
            <Time>2022-07-16T13:34:26.000Z</Time>
            <Position>
              <LatitudeDegrees>43.44390059821307659149169921875</LatitudeDegrees>
              <LongitudeDegrees>-4.9674267880618572235107421875</LongitudeDegrees>
            </Position>
            <AltitudeMeters>85.40000152587890625</AltitudeMeters>
            <DistanceMeters>NAN</DistanceMeters>
          </Trackpoint>
          <Trackpoint>
            <Time>2022-07-16T13:34:29.000Z</Time>
            <Position>
              <LatitudeDegrees>43.443878553807735443115234375</LatitudeDegrees>
              <LongitudeDegrees>-4.9674603156745433807373046875</LongitudeDegrees>
            </Position>
            <AltitudeMeters>85.8000030517578125</AltitudeMeters>
            <DistanceMeters>NAN</DistanceMeters>
          </Trackpoint>
          <Trackpoint>
            <Time>2022-07-16T13:34:31.000Z</Time>
            <Position>
              <LatitudeDegrees>43.44386355020105838775634765625</LatitudeDegrees>
              <LongitudeDegrees>-4.96748252771794795989990234375</LongitudeDegrees>
            </Position>
            <AltitudeMeters>86.1999969482421875</AltitudeMeters>
            <DistanceMeters>NAN</DistanceMeters>
          </Trackpoint>
          <Trackpoint>
            <Time>2022-07-16T13:34:32.000Z</Time>
            <Position>
              <LatitudeDegrees>43.4438575990498065948486328125</LatitudeDegrees>
              <LongitudeDegrees>-4.9675039015710353851318359375</LongitudeDegrees>
            </Position>
            <AltitudeMeters>86.1999969482421875</AltitudeMeters>
            <DistanceMeters>NAN</DistanceMeters>
          </Trackpoint>
          <Trackpoint>
            <Time>2022-07-16T13:34:35.000Z</Time>
            <Position>
              <LatitudeDegrees>43.4438358061015605926513671875</LatitudeDegrees>
              <LongitudeDegrees>-4.96755645610392093658447265625</LongitudeDegrees>
            </Position>
            <AltitudeMeters>86.59999847412109375</AltitudeMeters>
            <DistanceMeters>NAN</DistanceMeters>
          </Trackpoint>
          <Trackpoint>
            <Time>2022-07-16T13:34:42.000Z</Time>
            <Position>
              <LatitudeDegrees>43.44380755908787250518798828125</LatitudeDegrees>
              <LongitudeDegrees>-4.96766231954097747802734375</LongitudeDegrees>
            </Position>
            <AltitudeMeters>87</AltitudeMeters>
            <DistanceMeters>NAN</DistanceMeters>
          </Trackpoint>
          <Trackpoint>
            <Time>2022-07-16T13:34:43.000Z</Time>
            <Position>
              <LatitudeDegrees>43.44380755908787250518798828125</LatitudeDegrees>
              <LongitudeDegrees>-4.96766231954097747802734375</LongitudeDegrees>
            </Position>
            <AltitudeMeters>87.1999969482421875</AltitudeMeters>
            <DistanceMeters>NAN</DistanceMeters>
          </Trackpoint>
          <Trackpoint>
            <Time>2022-07-16T13:35:14.000Z</Time>
            <Position>
              <LatitudeDegrees>43.44377939589321613311767578125</LatitudeDegrees>
              <LongitudeDegrees>-4.96771001257002353668212890625</LongitudeDegrees>
            </Position>
            <AltitudeMeters>88</AltitudeMeters>
            <DistanceMeters>NAN</DistanceMeters>
          </Trackpoint>
          <Trackpoint>
            <Time>2022-07-16T13:35:15.000Z</Time>
            <Position>
              <LatitudeDegrees>43.443771935999393463134765625</LatitudeDegrees>
              <LongitudeDegrees>-4.96772744692862033843994140625</LongitudeDegrees>
            </Position>
            <AltitudeMeters>88.1999969482421875</AltitudeMeters>
            <DistanceMeters>NAN</DistanceMeters>
          </Trackpoint>
          <Trackpoint>
            <Time>2022-07-16T13:35:16.000Z</Time>
            <Position>
              <LatitudeDegrees>43.44376782886683940887451171875</LatitudeDegrees>
              <LongitudeDegrees>-4.9677456356585025787353515625</LongitudeDegrees>
            </Position>
            <AltitudeMeters>88.40000152587890625</AltitudeMeters>
            <DistanceMeters>NAN</DistanceMeters>
          </Trackpoint>
          <Trackpoint>
            <Time>2022-07-16T13:35:21.000Z</Time>
            <Position>
              <LatitudeDegrees>43.443749137222766876220703125</LatitudeDegrees>
              <LongitudeDegrees>-4.9678552709519863128662109375</LongitudeDegrees>
            </Position>
            <AltitudeMeters>89</AltitudeMeters>
            <DistanceMeters>NAN</DistanceMeters>
          </Trackpoint>
          <Trackpoint>
            <Time>2022-07-16T13:35:22.000Z</Time>
            <Position>
              <LatitudeDegrees>43.4437476284801959991455078125</LatitudeDegrees>
              <LongitudeDegrees>-4.96787513606250286102294921875</LongitudeDegrees>
            </Position>
            <AltitudeMeters>89</AltitudeMeters>
            <DistanceMeters>NAN</DistanceMeters>
          </Trackpoint>
          <Trackpoint>
            <Time>2022-07-16T13:35:24.000Z</Time>
            <Position>
              <LatitudeDegrees>43.4437466226518154144287109375</LatitudeDegrees>
              <LongitudeDegrees>-4.96790531091392040252685546875</LongitudeDegrees>
            </Position>
            <AltitudeMeters>89.40000152587890625</AltitudeMeters>
            <DistanceMeters>NAN</DistanceMeters>
          </Trackpoint>
          <Trackpoint>
            <Time>2022-07-16T13:35:25.000Z</Time>
            <Position>
              <LatitudeDegrees>43.44374570064246654510498046875</LatitudeDegrees>
              <LongitudeDegrees>-4.9679183028638362884521484375</LongitudeDegrees>
            </Position>
            <AltitudeMeters>89.40000152587890625</AltitudeMeters>
            <DistanceMeters>NAN</DistanceMeters>
          </Trackpoint>
          <Trackpoint>
            <Time>2022-07-16T13:35:27.000Z</Time>
            <Position>
              <LatitudeDegrees>43.44371988438069820404052734375</LatitudeDegrees>
              <LongitudeDegrees>-4.96794370003044605255126953125</LongitudeDegrees>
            </Position>
            <AltitudeMeters>89.59999847412109375</AltitudeMeters>
            <DistanceMeters>NAN</DistanceMeters>
          </Trackpoint>
          <Trackpoint>
            <Time>2022-07-16T13:35:29.000Z</Time>
            <Position>
              <LatitudeDegrees>43.44370177946984767913818359375</LatitudeDegrees>
              <LongitudeDegrees>-4.96797747910022735595703125</LongitudeDegrees>
            </Position>
            <AltitudeMeters>89.59999847412109375</AltitudeMeters>
            <DistanceMeters>NAN</DistanceMeters>
          </Trackpoint>
          <Trackpoint>
            <Time>2022-07-16T13:35:33.000Z</Time>
            <Position>
              <LatitudeDegrees>43.44365827739238739013671875</LatitudeDegrees>
              <LongitudeDegrees>-4.96807043440639972686767578125</LongitudeDegrees>
            </Position>
            <AltitudeMeters>90</AltitudeMeters>
            <DistanceMeters>NAN</DistanceMeters>
          </Trackpoint>
          <Trackpoint>
            <Time>2022-07-16T13:35:36.000Z</Time>
            <Position>
              <LatitudeDegrees>43.443630449473857879638671875</LatitudeDegrees>
              <LongitudeDegrees>-4.9681283533573150634765625</LongitudeDegrees>
            </Position>
            <AltitudeMeters>90</AltitudeMeters>
            <DistanceMeters>NAN</DistanceMeters>
          </Trackpoint>
          <Trackpoint>
            <Time>2022-07-16T13:35:37.000Z</Time>
            <Position>
              <LatitudeDegrees>43.44362081028521060943603515625</LatitudeDegrees>
              <LongitudeDegrees>-4.9681449495255947113037109375</LongitudeDegrees>
            </Position>
            <AltitudeMeters>90.1999969482421875</AltitudeMeters>
            <DistanceMeters>NAN</DistanceMeters>
          </Trackpoint>
          <Trackpoint>
            <Time>2022-07-16T13:35:38.000Z</Time>
            <Position>
              <LatitudeDegrees>43.44361427240073680877685546875</LatitudeDegrees>
              <LongitudeDegrees>-4.9681643955409526824951171875</LongitudeDegrees>
            </Position>
            <AltitudeMeters>90.1999969482421875</AltitudeMeters>
            <DistanceMeters>NAN</DistanceMeters>
          </Trackpoint>
          <Trackpoint>
            <Time>2022-07-16T13:35:45.000Z</Time>
            <Position>
              <LatitudeDegrees>43.44355258159339427947998046875</LatitudeDegrees>
              <LongitudeDegrees>-4.9683065526187419891357421875</LongitudeDegrees>
            </Position>
            <AltitudeMeters>90.1999969482421875</AltitudeMeters>
            <DistanceMeters>NAN</DistanceMeters>
          </Trackpoint>
          <Trackpoint>
            <Time>2022-07-16T13:35:47.000Z</Time>
            <Position>
              <LatitudeDegrees>43.4435494802892208099365234375</LatitudeDegrees>
              <LongitudeDegrees>-4.96830831281840801239013671875</LongitudeDegrees>
            </Position>
            <AltitudeMeters>90.1999969482421875</AltitudeMeters>
            <DistanceMeters>NAN</DistanceMeters>
          </Trackpoint>
          <Trackpoint>
            <Time>2022-07-16T13:36:41.000Z</Time>
            <Position>
              <LatitudeDegrees>43.44354319386184215545654296875</LatitudeDegrees>
              <LongitudeDegrees>-4.96838408522307872772216796875</LongitudeDegrees>
            </Position>
            <AltitudeMeters>91</AltitudeMeters>
            <DistanceMeters>NAN</DistanceMeters>
          </Trackpoint>
          <Trackpoint>
            <Time>2022-07-16T13:36:42.000Z</Time>
            <Position>
              <LatitudeDegrees>43.44354889355599880218505859375</LatitudeDegrees>
              <LongitudeDegrees>-4.96841476298868656158447265625</LongitudeDegrees>
            </Position>
            <AltitudeMeters>91.1999969482421875</AltitudeMeters>
            <DistanceMeters>NAN</DistanceMeters>
          </Trackpoint>
          <Trackpoint>
            <Time>2022-07-16T13:36:47.000Z</Time>
            <Position>
              <LatitudeDegrees>43.443594239652156829833984375</LatitudeDegrees>
              <LongitudeDegrees>-4.9685171060264110565185546875</LongitudeDegrees>
            </Position>
            <AltitudeMeters>92.1999969482421875</AltitudeMeters>
            <DistanceMeters>NAN</DistanceMeters>
          </Trackpoint>
          <Trackpoint>
            <Time>2022-07-16T13:36:55.000Z</Time>
            <Position>
              <LatitudeDegrees>43.44367311336100101470947265625</LatitudeDegrees>
              <LongitudeDegrees>-4.968643002212047576904296875</LongitudeDegrees>
            </Position>
            <AltitudeMeters>93.40000152587890625</AltitudeMeters>
            <DistanceMeters>NAN</DistanceMeters>
          </Trackpoint>
          <Trackpoint>
            <Time>2022-07-16T13:36:58.000Z</Time>
            <Position>
              <LatitudeDegrees>43.44369851052761077880859375</LatitudeDegrees>
              <LongitudeDegrees>-4.968691952526569366455078125</LongitudeDegrees>
            </Position>
            <AltitudeMeters>93.8000030517578125</AltitudeMeters>
            <DistanceMeters>NAN</DistanceMeters>
          </Trackpoint>
          <Trackpoint>
            <Time>2022-07-16T13:37:01.000Z</Time>
            <Position>
              <LatitudeDegrees>43.4437285177409648895263671875</LatitudeDegrees>
              <LongitudeDegrees>-4.96874727308750152587890625</LongitudeDegrees>
            </Position>
            <AltitudeMeters>94.40000152587890625</AltitudeMeters>
            <DistanceMeters>NAN</DistanceMeters>
          </Trackpoint>
          <Trackpoint>
            <Time>2022-07-16T13:37:09.000Z</Time>
            <Position>
              <LatitudeDegrees>43.44379867427051067352294921875</LatitudeDegrees>
              <LongitudeDegrees>-4.9688849039375782012939453125</LongitudeDegrees>
            </Position>
            <AltitudeMeters>95.40000152587890625</AltitudeMeters>
            <DistanceMeters>NAN</DistanceMeters>
          </Trackpoint>
          <Trackpoint>
            <Time>2022-07-16T13:37:10.000Z</Time>
            <Position>
              <LatitudeDegrees>43.44380940310657024383544921875</LatitudeDegrees>
              <LongitudeDegrees>-4.968898482620716094970703125</LongitudeDegrees>
            </Position>
            <AltitudeMeters>95.40000152587890625</AltitudeMeters>
            <DistanceMeters>NAN</DistanceMeters>
          </Trackpoint>
          <Trackpoint>
            <Time>2022-07-16T13:37:16.000Z</Time>
            <Position>
              <LatitudeDegrees>43.443870507180690765380859375</LatitudeDegrees>
              <LongitudeDegrees>-4.9689720757305622100830078125</LongitudeDegrees>
            </Position>
            <AltitudeMeters>96.40000152587890625</AltitudeMeters>
            <DistanceMeters>NAN</DistanceMeters>
          </Trackpoint>
          <Trackpoint>
            <Time>2022-07-16T13:37:17.000Z</Time>
            <Position>
              <LatitudeDegrees>43.44387880526483058929443359375</LatitudeDegrees>
              <LongitudeDegrees>-4.9689885042607784271240234375</LongitudeDegrees>
            </Position>
            <AltitudeMeters>96.59999847412109375</AltitudeMeters>
            <DistanceMeters>NAN</DistanceMeters>
          </Trackpoint>
          <Trackpoint>
            <Time>2022-07-16T13:37:25.000Z</Time>
            <Position>
              <LatitudeDegrees>43.44393462873995304107666015625</LatitudeDegrees>
              <LongitudeDegrees>-4.96911783702671527862548828125</LongitudeDegrees>
            </Position>
            <AltitudeMeters>97.40000152587890625</AltitudeMeters>
            <DistanceMeters>NAN</DistanceMeters>
          </Trackpoint>
          <Trackpoint>
            <Time>2022-07-16T13:37:27.000Z</Time>
            <Position>
              <LatitudeDegrees>43.44394971616566181182861328125</LatitudeDegrees>
              <LongitudeDegrees>-4.96915496885776519775390625</LongitudeDegrees>
            </Position>
            <AltitudeMeters>97.8000030517578125</AltitudeMeters>
            <DistanceMeters>NAN</DistanceMeters>
          </Trackpoint>
          <Trackpoint>
            <Time>2022-07-16T13:37:30.000Z</Time>
            <Position>
              <LatitudeDegrees>43.443965055048465728759765625</LatitudeDegrees>
              <LongitudeDegrees>-4.969200231134891510009765625</LongitudeDegrees>
            </Position>
            <AltitudeMeters>98.59999847412109375</AltitudeMeters>
            <DistanceMeters>NAN</DistanceMeters>
          </Trackpoint>
          <Trackpoint>
            <Time>2022-07-16T13:37:32.000Z</Time>
            <Position>
              <LatitudeDegrees>43.44397637061774730682373046875</LatitudeDegrees>
              <LongitudeDegrees>-4.9692366085946559906005859375</LongitudeDegrees>
            </Position>
            <AltitudeMeters>99</AltitudeMeters>
            <DistanceMeters>NAN</DistanceMeters>
          </Trackpoint>
          <Trackpoint>
            <Time>2022-07-16T13:37:35.000Z</Time>
            <Position>
              <LatitudeDegrees>43.44398818910121917724609375</LatitudeDegrees>
              <LongitudeDegrees>-4.9692892469465732574462890625</LongitudeDegrees>
            </Position>
            <AltitudeMeters>99.40000152587890625</AltitudeMeters>
            <DistanceMeters>NAN</DistanceMeters>
          </Trackpoint>
          <Trackpoint>
            <Time>2022-07-16T13:37:38.000Z</Time>
            <Position>
              <LatitudeDegrees>43.4439927153289318084716796875</LatitudeDegrees>
              <LongitudeDegrees>-4.96933409012854099273681640625</LongitudeDegrees>
            </Position>
            <AltitudeMeters>99.8000030517578125</AltitudeMeters>
            <DistanceMeters>NAN</DistanceMeters>
          </Trackpoint>
          <Trackpoint>
            <Time>2022-07-16T13:37:40.000Z</Time>
            <Position>
              <LatitudeDegrees>43.4439927153289318084716796875</LatitudeDegrees>
              <LongitudeDegrees>-4.96933409012854099273681640625</LongitudeDegrees>
            </Position>
            <AltitudeMeters>100</AltitudeMeters>
            <DistanceMeters>NAN</DistanceMeters>
          </Trackpoint>
          <Trackpoint>
            <Time>2022-07-16T13:38:17.000Z</Time>
            <Position>
              <LatitudeDegrees>43.44403705559670925140380859375</LatitudeDegrees>
              <LongitudeDegrees>-4.96956928633153438568115234375</LongitudeDegrees>
            </Position>
            <AltitudeMeters>102.59999847412109375</AltitudeMeters>
            <DistanceMeters>NAN</DistanceMeters>
          </Trackpoint>
          <Trackpoint>
            <Time>2022-07-16T13:38:18.000Z</Time>
            <Position>
              <LatitudeDegrees>43.44404275529086589813232421875</LatitudeDegrees>
              <LongitudeDegrees>-4.9695822782814502716064453125</LongitudeDegrees>
            </Position>
            <AltitudeMeters>102.8000030517578125</AltitudeMeters>
            <DistanceMeters>NAN</DistanceMeters>
          </Trackpoint>
          <Trackpoint>
            <Time>2022-07-16T13:38:24.000Z</Time>
            <Position>
              <LatitudeDegrees>43.4440882690250873565673828125</LatitudeDegrees>
              <LongitudeDegrees>-4.9696567095816135406494140625</LongitudeDegrees>
            </Position>
            <AltitudeMeters>103.8000030517578125</AltitudeMeters>
            <DistanceMeters>NAN</DistanceMeters>
          </Trackpoint>
          <Trackpoint>
            <Time>2022-07-16T13:38:28.000Z</Time>
            <Position>
              <LatitudeDegrees>43.44412975944578647613525390625</LatitudeDegrees>
              <LongitudeDegrees>-4.9697036482393741607666015625</LongitudeDegrees>
            </Position>
            <AltitudeMeters>104.40000152587890625</AltitudeMeters>
            <DistanceMeters>NAN</DistanceMeters>
          </Trackpoint>
          <Trackpoint>
            <Time>2022-07-16T13:38:31.000Z</Time>
            <Position>
              <LatitudeDegrees>43.444171249866485595703125</LatitudeDegrees>
              <LongitudeDegrees>-4.969721920788288116455078125</LongitudeDegrees>
            </Position>
            <AltitudeMeters>105</AltitudeMeters>
            <DistanceMeters>NAN</DistanceMeters>
          </Trackpoint>
          <Trackpoint>
            <Time>2022-07-16T13:38:35.000Z</Time>
            <Position>
              <LatitudeDegrees>43.44422648660838603973388671875</LatitudeDegrees>
              <LongitudeDegrees>-4.96973969042301177978515625</LongitudeDegrees>
            </Position>
            <AltitudeMeters>105.59999847412109375</AltitudeMeters>
            <DistanceMeters>NAN</DistanceMeters>
          </Trackpoint>
          <Trackpoint>
            <Time>2022-07-16T13:38:37.000Z</Time>
            <Position>
              <LatitudeDegrees>43.444252721965312957763671875</LatitudeDegrees>
              <LongitudeDegrees>-4.96975268237292766571044921875</LongitudeDegrees>
            </Position>
            <AltitudeMeters>106</AltitudeMeters>
            <DistanceMeters>NAN</DistanceMeters>
          </Trackpoint>
          <Trackpoint>
            <Time>2022-07-16T13:38:40.000Z</Time>
            <Position>
              <LatitudeDegrees>43.444295637309551239013671875</LatitudeDegrees>
              <LongitudeDegrees>-4.9697673507034778594970703125</LongitudeDegrees>
            </Position>
            <AltitudeMeters>106.8000030517578125</AltitudeMeters>
            <DistanceMeters>NAN</DistanceMeters>
          </Trackpoint>
          <Trackpoint>
            <Time>2022-07-16T13:38:41.000Z</Time>
            <Position>
              <LatitudeDegrees>43.4443093836307525634765625</LatitudeDegrees>
              <LongitudeDegrees>-4.96977464295923709869384765625</LongitudeDegrees>
            </Position>
            <AltitudeMeters>107</AltitudeMeters>
            <DistanceMeters>NAN</DistanceMeters>
          </Trackpoint>
          <Trackpoint>
            <Time>2022-07-16T13:38:46.000Z</Time>
            <Position>
              <LatitudeDegrees>43.44435674138367176055908203125</LatitudeDegrees>
              <LongitudeDegrees>-4.9698020517826080322265625</LongitudeDegrees>
            </Position>
            <AltitudeMeters>108.1999969482421875</AltitudeMeters>
            <DistanceMeters>NAN</DistanceMeters>
          </Trackpoint>
          <Trackpoint>
            <Time>2022-07-16T13:38:47.000Z</Time>
            <Position>
              <LatitudeDegrees>43.44435674138367176055908203125</LatitudeDegrees>
              <LongitudeDegrees>-4.9698020517826080322265625</LongitudeDegrees>
            </Position>
            <AltitudeMeters>108.40000152587890625</AltitudeMeters>
            <DistanceMeters>NAN</DistanceMeters>
          </Trackpoint>
          <Trackpoint>
            <Time>2022-07-16T13:38:48.000Z</Time>
            <Position>
              <LatitudeDegrees>43.44435674138367176055908203125</LatitudeDegrees>
              <LongitudeDegrees>-4.9698020517826080322265625</LongitudeDegrees>
            </Position>
            <AltitudeMeters>108.40000152587890625</AltitudeMeters>
            <DistanceMeters>NAN</DistanceMeters>
          </Trackpoint>
          <Trackpoint>
            <Time>2022-07-16T14:09:57.000Z</Time>
            <Position>
              <LatitudeDegrees>43.444333858788013458251953125</LatitudeDegrees>
              <LongitudeDegrees>-4.97012651525437831878662109375</LongitudeDegrees>
            </Position>
            <AltitudeMeters>109.8000030517578125</AltitudeMeters>
            <DistanceMeters>NAN</DistanceMeters>
          </Trackpoint>
          <Trackpoint>
            <Time>2022-07-16T14:09:58.000Z</Time>
            <Position>
              <LatitudeDegrees>43.44432958401739597320556640625</LatitudeDegrees>
              <LongitudeDegrees>-4.97014478780329227447509765625</LongitudeDegrees>
            </Position>
            <AltitudeMeters>110</AltitudeMeters>
            <DistanceMeters>NAN</DistanceMeters>
          </Trackpoint>
          <Trackpoint>
            <Time>2022-07-16T14:10:00.000Z</Time>
            <Position>
              <LatitudeDegrees>43.44432153739035129547119140625</LatitudeDegrees>
              <LongitudeDegrees>-4.9701978452503681182861328125</LongitudeDegrees>
            </Position>
            <AltitudeMeters>110</AltitudeMeters>
            <DistanceMeters>NAN</DistanceMeters>
          </Trackpoint>
          <Trackpoint>
            <Time>2022-07-16T14:10:06.000Z</Time>
            <Position>
              <LatitudeDegrees>43.44431734643876552581787109375</LatitudeDegrees>
              <LongitudeDegrees>-4.9703296087682247161865234375</LongitudeDegrees>
            </Position>
            <AltitudeMeters>110.1999969482421875</AltitudeMeters>
            <DistanceMeters>NAN</DistanceMeters>
          </Trackpoint>
          <Trackpoint>
            <Time>2022-07-16T14:10:08.000Z</Time>
            <Position>
              <LatitudeDegrees>43.44431717880070209503173828125</LatitudeDegrees>
              <LongitudeDegrees>-4.97038132511079311370849609375</LongitudeDegrees>
            </Position>
            <AltitudeMeters>110.1999969482421875</AltitudeMeters>
            <DistanceMeters>NAN</DistanceMeters>
          </Trackpoint>
          <Trackpoint>
            <Time>2022-07-16T14:10:15.000Z</Time>
            <Position>
              <LatitudeDegrees>43.4443514607846736907958984375</LatitudeDegrees>
              <LongitudeDegrees>-4.97055298648774623870849609375</LongitudeDegrees>
            </Position>
            <AltitudeMeters>110.59999847412109375</AltitudeMeters>
            <DistanceMeters>NAN</DistanceMeters>
          </Trackpoint>
          <Trackpoint>
            <Time>2022-07-16T14:10:16.000Z</Time>
            <Position>
              <LatitudeDegrees>43.44436747021973133087158203125</LatitudeDegrees>
              <LongitudeDegrees>-4.970570169389247894287109375</LongitudeDegrees>
            </Position>
            <AltitudeMeters>110.8000030517578125</AltitudeMeters>
            <DistanceMeters>NAN</DistanceMeters>
          </Trackpoint>
          <Trackpoint>
            <Time>2022-07-16T14:10:18.000Z</Time>
            <Position>
              <LatitudeDegrees>43.44440284185111522674560546875</LatitudeDegrees>
              <LongitudeDegrees>-4.9705884419381618499755859375</LongitudeDegrees>
            </Position>
            <AltitudeMeters>110.8000030517578125</AltitudeMeters>
            <DistanceMeters>NAN</DistanceMeters>
          </Trackpoint>
          <Trackpoint>
            <Time>2022-07-16T14:10:21.000Z</Time>
            <Position>
              <LatitudeDegrees>43.4444622695446014404296875</LatitudeDegrees>
              <LongitudeDegrees>-4.97062758542597293853759765625</LongitudeDegrees>
            </Position>
            <AltitudeMeters>110.8000030517578125</AltitudeMeters>
            <DistanceMeters>NAN</DistanceMeters>
          </Trackpoint>
          <Trackpoint>
            <Time>2022-07-16T14:10:22.000Z</Time>
            <Position>
              <LatitudeDegrees>43.44447366893291473388671875</LatitudeDegrees>
              <LongitudeDegrees>-4.97064652852714061737060546875</LongitudeDegrees>
            </Position>
            <AltitudeMeters>110.59999847412109375</AltitudeMeters>
            <DistanceMeters>NAN</DistanceMeters>
          </Trackpoint>
          <Trackpoint>
            <Time>2022-07-16T14:10:25.000Z</Time>
            <Position>
              <LatitudeDegrees>43.4445194341242313385009765625</LatitudeDegrees>
              <LongitudeDegrees>-4.97066848911345005035400390625</LongitudeDegrees>
            </Position>
            <AltitudeMeters>110</AltitudeMeters>
            <DistanceMeters>NAN</DistanceMeters>
          </Trackpoint>
          <Trackpoint>
            <Time>2022-07-16T14:10:26.000Z</Time>
            <Position>
              <LatitudeDegrees>43.4445278160274028778076171875</LatitudeDegrees>
              <LongitudeDegrees>-4.9706544913351535797119140625</LongitudeDegrees>
            </Position>
            <AltitudeMeters>110</AltitudeMeters>
            <DistanceMeters>NAN</DistanceMeters>
          </Trackpoint>
          <Trackpoint>
            <Time>2022-07-16T14:10:27.000Z</Time>
            <Position>
              <LatitudeDegrees>43.4445274807512760162353515625</LatitudeDegrees>
              <LongitudeDegrees>-4.97063613496720790863037109375</LongitudeDegrees>
            </Position>
            <AltitudeMeters>109.8000030517578125</AltitudeMeters>
            <DistanceMeters>NAN</DistanceMeters>
          </Trackpoint>
          <Trackpoint>
            <Time>2022-07-16T14:10:29.000Z</Time>
            <Position>
              <LatitudeDegrees>43.44450275413691997528076171875</LatitudeDegrees>
              <LongitudeDegrees>-4.970629177987575531005859375</LongitudeDegrees>
            </Position>
            <AltitudeMeters>109.8000030517578125</AltitudeMeters>
            <DistanceMeters>NAN</DistanceMeters>
          </Trackpoint>
          <Trackpoint>
            <Time>2022-07-16T14:10:30.000Z</Time>
            <Position>
              <LatitudeDegrees>43.444496132433414459228515625</LatitudeDegrees>
              <LongitudeDegrees>-4.9706375598907470703125</LongitudeDegrees>
            </Position>
            <AltitudeMeters>109.8000030517578125</AltitudeMeters>
            <DistanceMeters>NAN</DistanceMeters>
          </Trackpoint>
          <Trackpoint>
            <Time>2022-07-16T14:10:34.000Z</Time>
            <Position>
              <LatitudeDegrees>43.44448884017765522003173828125</LatitudeDegrees>
              <LongitudeDegrees>-4.97065105475485324859619140625</LongitudeDegrees>
            </Position>
            <AltitudeMeters>109.8000030517578125</AltitudeMeters>
            <DistanceMeters>NAN</DistanceMeters>
          </Trackpoint>
          <Trackpoint>
            <Time>2022-07-16T14:12:59.000Z</Time>
            <Position>
              <LatitudeDegrees>43.44444751739501953125</LatitudeDegrees>
              <LongitudeDegrees>-4.970635212957859039306640625</LongitudeDegrees>
            </Position>
            <AltitudeMeters>110.1999969482421875</AltitudeMeters>
            <DistanceMeters>NAN</DistanceMeters>
          </Trackpoint>
          <Trackpoint>
            <Time>2022-07-16T14:13:00.000Z</Time>
            <Position>
              <LatitudeDegrees>43.44442849047482013702392578125</LatitudeDegrees>
              <LongitudeDegrees>-4.97061668895184993743896484375</LongitudeDegrees>
            </Position>
            <AltitudeMeters>110.1999969482421875</AltitudeMeters>
            <DistanceMeters>NAN</DistanceMeters>
          </Trackpoint>
          <Trackpoint>
            <Time>2022-07-16T14:13:01.000Z</Time>
            <Position>
              <LatitudeDegrees>43.4444061107933521270751953125</LatitudeDegrees>
              <LongitudeDegrees>-4.9706068821251392364501953125</LongitudeDegrees>
            </Position>
            <AltitudeMeters>110.1999969482421875</AltitudeMeters>
            <DistanceMeters>NAN</DistanceMeters>
          </Trackpoint>
          <Trackpoint>
            <Time>2022-07-16T14:13:04.000Z</Time>
            <Position>
              <LatitudeDegrees>43.44433746300637722015380859375</LatitudeDegrees>
              <LongitudeDegrees>-4.97059456072747707366943359375</LongitudeDegrees>
            </Position>
            <AltitudeMeters>110.59999847412109375</AltitudeMeters>
            <DistanceMeters>NAN</DistanceMeters>
          </Trackpoint>
          <Trackpoint>
            <Time>2022-07-16T14:13:06.000Z</Time>
            <Position>
              <LatitudeDegrees>43.44429220072925090789794921875</LatitudeDegrees>
              <LongitudeDegrees>-4.97062037698924541473388671875</LongitudeDegrees>
            </Position>
            <AltitudeMeters>110.59999847412109375</AltitudeMeters>
            <DistanceMeters>NAN</DistanceMeters>
          </Trackpoint>
          <Trackpoint>
            <Time>2022-07-16T14:13:09.000Z</Time>
            <Position>
              <LatitudeDegrees>43.444268144667148590087890625</LatitudeDegrees>
              <LongitudeDegrees>-4.97069313190877437591552734375</LongitudeDegrees>
            </Position>
            <AltitudeMeters>110.59999847412109375</AltitudeMeters>
            <DistanceMeters>NAN</DistanceMeters>
          </Trackpoint>
          <Trackpoint>
            <Time>2022-07-16T14:13:19.000Z</Time>
            <Position>
              <LatitudeDegrees>43.44423201866447925567626953125</LatitudeDegrees>
              <LongitudeDegrees>-4.97097644023597240447998046875</LongitudeDegrees>
            </Position>
            <AltitudeMeters>109.59999847412109375</AltitudeMeters>
            <DistanceMeters>NAN</DistanceMeters>
          </Trackpoint>
          <Trackpoint>
            <Time>2022-07-16T14:13:25.000Z</Time>
            <Position>
              <LatitudeDegrees>43.4441995806992053985595703125</LatitudeDegrees>
              <LongitudeDegrees>-4.971233345568180084228515625</LongitudeDegrees>
            </Position>
            <AltitudeMeters>109</AltitudeMeters>
            <DistanceMeters>NAN</DistanceMeters>
          </Trackpoint>
          <Trackpoint>
            <Time>2022-07-16T14:13:28.000Z</Time>
            <Position>
              <LatitudeDegrees>43.44416915439069271087646484375</LatitudeDegrees>
              <LongitudeDegrees>-4.9713582359254360198974609375</LongitudeDegrees>
            </Position>
            <AltitudeMeters>108.59999847412109375</AltitudeMeters>
            <DistanceMeters>NAN</DistanceMeters>
          </Trackpoint>
          <Trackpoint>
            <Time>2022-07-16T14:13:32.000Z</Time>
            <Position>
              <LatitudeDegrees>43.44413378275930881500244140625</LatitudeDegrees>
              <LongitudeDegrees>-4.971525706350803375244140625</LongitudeDegrees>
            </Position>
            <AltitudeMeters>107.59999847412109375</AltitudeMeters>
            <DistanceMeters>NAN</DistanceMeters>
          </Trackpoint>
          <Trackpoint>
            <Time>2022-07-16T14:13:33.000Z</Time>
            <Position>
              <LatitudeDegrees>43.44411433674395084381103515625</LatitudeDegrees>
              <LongitudeDegrees>-4.97158882208168506622314453125</LongitudeDegrees>
            </Position>
            <AltitudeMeters>107.1999969482421875</AltitudeMeters>
            <DistanceMeters>NAN</DistanceMeters>
          </Trackpoint>
          <Trackpoint>
            <Time>2022-07-16T14:13:36.000Z</Time>
            <Position>
              <LatitudeDegrees>43.44405926764011383056640625</LatitudeDegrees>
              <LongitudeDegrees>-4.97176668606698513031005859375</LongitudeDegrees>
            </Position>
            <AltitudeMeters>106.1999969482421875</AltitudeMeters>
            <DistanceMeters>NAN</DistanceMeters>
          </Trackpoint>
          <Trackpoint>
            <Time>2022-07-16T14:13:40.000Z</Time>
            <Position>
              <LatitudeDegrees>43.44400218687951564788818359375</LatitudeDegrees>
              <LongitudeDegrees>-4.972081594169139862060546875</LongitudeDegrees>
            </Position>
            <AltitudeMeters>105.1999969482421875</AltitudeMeters>
            <DistanceMeters>NAN</DistanceMeters>
          </Trackpoint>
          <Trackpoint>
            <Time>2022-07-16T14:13:42.000Z</Time>
            <Position>
              <LatitudeDegrees>43.44397922046482563018798828125</LatitudeDegrees>
              <LongitudeDegrees>-4.9722214043140411376953125</LongitudeDegrees>
            </Position>
            <AltitudeMeters>104.8000030517578125</AltitudeMeters>
            <DistanceMeters>NAN</DistanceMeters>
          </Trackpoint>
          <Trackpoint>
            <Time>2022-07-16T14:13:46.000Z</Time>
            <Position>
              <LatitudeDegrees>43.4439628757536411285400390625</LatitudeDegrees>
              <LongitudeDegrees>-4.9724619649350643157958984375</LongitudeDegrees>
            </Position>
            <AltitudeMeters>104.40000152587890625</AltitudeMeters>
            <DistanceMeters>NAN</DistanceMeters>
          </Trackpoint>
          <Trackpoint>
            <Time>2022-07-16T14:13:47.000Z</Time>
            <Position>
              <LatitudeDegrees>43.44396715052425861358642578125</LatitudeDegrees>
              <LongitudeDegrees>-4.9725199677050113677978515625</LongitudeDegrees>
            </Position>
            <AltitudeMeters>104.40000152587890625</AltitudeMeters>
            <DistanceMeters>NAN</DistanceMeters>
          </Trackpoint>
          <Trackpoint>
            <Time>2022-07-16T14:13:50.000Z</Time>
            <Position>
              <LatitudeDegrees>43.4439685754477977752685546875</LatitudeDegrees>
              <LongitudeDegrees>-4.972693137824535369873046875</LongitudeDegrees>
            </Position>
            <AltitudeMeters>103.8000030517578125</AltitudeMeters>
            <DistanceMeters>NAN</DistanceMeters>
          </Trackpoint>
          <Trackpoint>
            <Time>2022-07-16T14:13:51.000Z</Time>
            <Position>
              <LatitudeDegrees>43.44396513886749744415283203125</LatitudeDegrees>
              <LongitudeDegrees>-4.9727456085383892059326171875</LongitudeDegrees>
            </Position>
            <AltitudeMeters>103.59999847412109375</AltitudeMeters>
            <DistanceMeters>NAN</DistanceMeters>
          </Trackpoint>
          <Trackpoint>
            <Time>2022-07-16T14:13:53.000Z</Time>
            <Position>
              <LatitudeDegrees>43.4439571760594844818115234375</LatitudeDegrees>
              <LongitudeDegrees>-4.972836636006832122802734375</LongitudeDegrees>
            </Position>
            <AltitudeMeters>103.1999969482421875</AltitudeMeters>
            <DistanceMeters>NAN</DistanceMeters>
          </Trackpoint>
          <Trackpoint>
            <Time>2022-07-16T14:13:56.000Z</Time>
            <Position>
              <LatitudeDegrees>43.44394837506115436553955078125</LatitudeDegrees>
              <LongitudeDegrees>-4.97298172675073146820068359375</LongitudeDegrees>
            </Position>
            <AltitudeMeters>102.8000030517578125</AltitudeMeters>
            <DistanceMeters>NAN</DistanceMeters>
          </Trackpoint>
          <Trackpoint>
            <Time>2022-07-16T14:13:59.000Z</Time>
            <Position>
              <LatitudeDegrees>43.44393186271190643310546875</LatitudeDegrees>
              <LongitudeDegrees>-4.97312170453369617462158203125</LongitudeDegrees>
            </Position>
            <AltitudeMeters>101.59999847412109375</AltitudeMeters>
            <DistanceMeters>NAN</DistanceMeters>
          </Trackpoint>
          <Trackpoint>
            <Time>2022-07-16T14:14:01.000Z</Time>
            <Position>
              <LatitudeDegrees>43.4439099021255970001220703125</LatitudeDegrees>
              <LongitudeDegrees>-4.973213486373424530029296875</LongitudeDegrees>
            </Position>
            <AltitudeMeters>101</AltitudeMeters>
            <DistanceMeters>NAN</DistanceMeters>
          </Trackpoint>
          <Trackpoint>
            <Time>2022-07-16T14:14:03.000Z</Time>
            <Position>
              <LatitudeDegrees>43.4438867680728435516357421875</LatitudeDegrees>
              <LongitudeDegrees>-4.973310045897960662841796875</LongitudeDegrees>
            </Position>
            <AltitudeMeters>100.59999847412109375</AltitudeMeters>
            <DistanceMeters>NAN</DistanceMeters>
          </Trackpoint>
          <Trackpoint>
            <Time>2022-07-16T14:14:07.000Z</Time>
            <Position>
              <LatitudeDegrees>43.4438183717429637908935546875</LatitudeDegrees>
              <LongitudeDegrees>-4.97349838726222515106201171875</LongitudeDegrees>
            </Position>
            <AltitudeMeters>99</AltitudeMeters>
            <DistanceMeters>NAN</DistanceMeters>
          </Trackpoint>
          <Trackpoint>
            <Time>2022-07-16T14:14:09.000Z</Time>
            <Position>
              <LatitudeDegrees>43.44376749359071254730224609375</LatitudeDegrees>
              <LongitudeDegrees>-4.97356644831597805023193359375</LongitudeDegrees>
            </Position>
            <AltitudeMeters>97.8000030517578125</AltitudeMeters>
            <DistanceMeters>NAN</DistanceMeters>
          </Trackpoint>
          <Trackpoint>
            <Time>2022-07-16T14:14:10.000Z</Time>
            <Position>
              <LatitudeDegrees>43.44373404979705810546875</LatitudeDegrees>
              <LongitudeDegrees>-4.97359670698642730712890625</LongitudeDegrees>
            </Position>
            <AltitudeMeters>97.40000152587890625</AltitudeMeters>
            <DistanceMeters>NAN</DistanceMeters>
          </Trackpoint>
          <Trackpoint>
            <Time>2022-07-16T14:14:14.000Z</Time>
            <Position>
              <LatitudeDegrees>43.4435719437897205352783203125</LatitudeDegrees>
              <LongitudeDegrees>-4.973727129399776458740234375</LongitudeDegrees>
            </Position>
            <AltitudeMeters>96.8000030517578125</AltitudeMeters>
            <DistanceMeters>NAN</DistanceMeters>
          </Trackpoint>
          <Trackpoint>
            <Time>2022-07-16T14:14:15.000Z</Time>
            <Position>
              <LatitudeDegrees>43.4435333870351314544677734375</LatitudeDegrees>
              <LongitudeDegrees>-4.9737725593149662017822265625</LongitudeDegrees>
            </Position>
            <AltitudeMeters>96.40000152587890625</AltitudeMeters>
            <DistanceMeters>NAN</DistanceMeters>
          </Trackpoint>
          <Trackpoint>
            <Time>2022-07-16T14:14:17.000Z</Time>
            <Position>
              <LatitudeDegrees>43.44346323050558567047119140625</LatitudeDegrees>
              <LongitudeDegrees>-4.97387741692364215850830078125</LongitudeDegrees>
            </Position>
            <AltitudeMeters>95.59999847412109375</AltitudeMeters>
            <DistanceMeters>NAN</DistanceMeters>
          </Trackpoint>
          <Trackpoint>
            <Time>2022-07-16T14:14:19.000Z</Time>
            <Position>
              <LatitudeDegrees>43.44340723939239978790283203125</LatitudeDegrees>
              <LongitudeDegrees>-4.9740092642605304718017578125</LongitudeDegrees>
            </Position>
            <AltitudeMeters>95</AltitudeMeters>
            <DistanceMeters>NAN</DistanceMeters>
          </Trackpoint>
          <Trackpoint>
            <Time>2022-07-16T14:14:23.000Z</Time>
            <Position>
              <LatitudeDegrees>43.4433241747319698333740234375</LatitudeDegrees>
              <LongitudeDegrees>-4.97428360395133495330810546875</LongitudeDegrees>
            </Position>
            <AltitudeMeters>94.59999847412109375</AltitudeMeters>
            <DistanceMeters>NAN</DistanceMeters>
          </Trackpoint>
          <Trackpoint>
            <Time>2022-07-16T14:14:24.000Z</Time>
            <Position>
              <LatitudeDegrees>43.4433127753436565399169921875</LatitudeDegrees>
              <LongitudeDegrees>-4.9743478931486606597900390625</LongitudeDegrees>
            </Position>
            <AltitudeMeters>94.59999847412109375</AltitudeMeters>
            <DistanceMeters>NAN</DistanceMeters>
          </Trackpoint>
          <Trackpoint>
            <Time>2022-07-16T14:14:25.000Z</Time>
            <Position>
              <LatitudeDegrees>43.4433067403733730316162109375</LatitudeDegrees>
              <LongitudeDegrees>-4.9744042195379734039306640625</LongitudeDegrees>
            </Position>
            <AltitudeMeters>94.59999847412109375</AltitudeMeters>
            <DistanceMeters>NAN</DistanceMeters>
          </Trackpoint>
          <Trackpoint>
            <Time>2022-07-16T14:14:28.000Z</Time>
            <Position>
              <LatitudeDegrees>43.4432926587760448455810546875</LatitudeDegrees>
              <LongitudeDegrees>-4.9745334684848785400390625</LongitudeDegrees>
            </Position>
            <AltitudeMeters>94.40000152587890625</AltitudeMeters>
            <DistanceMeters>NAN</DistanceMeters>
          </Trackpoint>
          <Trackpoint>
            <Time>2022-07-16T14:14:34.000Z</Time>
            <Position>
              <LatitudeDegrees>43.44326457940042018890380859375</LatitudeDegrees>
              <LongitudeDegrees>-4.97477813623845577239990234375</LongitudeDegrees>
            </Position>
            <AltitudeMeters>94.40000152587890625</AltitudeMeters>
            <DistanceMeters>NAN</DistanceMeters>
          </Trackpoint>
          <Trackpoint>
            <Time>2022-07-16T14:14:35.000Z</Time>
            <Position>
              <LatitudeDegrees>43.4432554431259632110595703125</LatitudeDegrees>
              <LongitudeDegrees>-4.97481451369822025299072265625</LongitudeDegrees>
            </Position>
            <AltitudeMeters>94.1999969482421875</AltitudeMeters>
            <DistanceMeters>NAN</DistanceMeters>
          </Trackpoint>
          <Trackpoint>
            <Time>2022-07-16T14:14:41.000Z</Time>
            <Position>
              <LatitudeDegrees>43.44322266988456249237060546875</LatitudeDegrees>
              <LongitudeDegrees>-4.97508323751389980316162109375</LongitudeDegrees>
            </Position>
            <AltitudeMeters>93.59999847412109375</AltitudeMeters>
            <DistanceMeters>NAN</DistanceMeters>
          </Trackpoint>
          <Trackpoint>
            <Time>2022-07-16T14:14:42.000Z</Time>
            <Position>
              <LatitudeDegrees>43.44321982003748416900634765625</LatitudeDegrees>
              <LongitudeDegrees>-4.975115843117237091064453125</LongitudeDegrees>
            </Position>
            <AltitudeMeters>93.40000152587890625</AltitudeMeters>
            <DistanceMeters>NAN</DistanceMeters>
          </Trackpoint>
          <Trackpoint>
            <Time>2022-07-16T14:14:47.000Z</Time>
            <Position>
              <LatitudeDegrees>43.4432581253349781036376953125</LatitudeDegrees>
              <LongitudeDegrees>-4.9752819724380970001220703125</LongitudeDegrees>
            </Position>
            <AltitudeMeters>92.8000030517578125</AltitudeMeters>
            <DistanceMeters>NAN</DistanceMeters>
          </Trackpoint>
          <Trackpoint>
            <Time>2022-07-16T14:14:51.000Z</Time>
            <Position>
              <LatitudeDegrees>43.4432819299399852752685546875</LatitudeDegrees>
              <LongitudeDegrees>-4.97542035765945911407470703125</LongitudeDegrees>
            </Position>
            <AltitudeMeters>92.40000152587890625</AltitudeMeters>
            <DistanceMeters>NAN</DistanceMeters>
          </Trackpoint>
          <Trackpoint>
            <Time>2022-07-16T14:14:54.000Z</Time>
            <Position>
              <LatitudeDegrees>43.4432896412909030914306640625</LatitudeDegrees>
              <LongitudeDegrees>-4.97550333850085735321044921875</LongitudeDegrees>
            </Position>
            <AltitudeMeters>92.1999969482421875</AltitudeMeters>
            <DistanceMeters>NAN</DistanceMeters>
          </Trackpoint>
          <Trackpoint>
            <Time>2022-07-16T14:14:57.000Z</Time>
            <Position>
              <LatitudeDegrees>43.44329039566218852996826171875</LatitudeDegrees>
              <LongitudeDegrees>-4.9755719862878322601318359375</LongitudeDegrees>
            </Position>
            <AltitudeMeters>92</AltitudeMeters>
            <DistanceMeters>NAN</DistanceMeters>
          </Trackpoint>
          <Trackpoint>
            <Time>2022-07-16T14:14:59.000Z</Time>
            <Position>
              <LatitudeDegrees>43.44329777173697948455810546875</LatitudeDegrees>
              <LongitudeDegrees>-4.9756222777068614959716796875</LongitudeDegrees>
            </Position>
            <AltitudeMeters>92</AltitudeMeters>
            <DistanceMeters>NAN</DistanceMeters>
          </Trackpoint>
          <Trackpoint>
            <Time>2022-07-16T14:15:05.000Z</Time>
            <Position>
              <LatitudeDegrees>43.44331897795200347900390625</LatitudeDegrees>
              <LongitudeDegrees>-4.9758262932300567626953125</LongitudeDegrees>
            </Position>
            <AltitudeMeters>91.8000030517578125</AltitudeMeters>
            <DistanceMeters>NAN</DistanceMeters>
          </Trackpoint>
          <Trackpoint>
            <Time>2022-07-16T14:15:06.000Z</Time>
            <Position>
              <LatitudeDegrees>43.44332434237003326416015625</LatitudeDegrees>
              <LongitudeDegrees>-4.97586845420300960540771484375</LongitudeDegrees>
            </Position>
            <AltitudeMeters>91.59999847412109375</AltitudeMeters>
            <DistanceMeters>NAN</DistanceMeters>
          </Trackpoint>
          <Trackpoint>
            <Time>2022-07-16T14:15:07.000Z</Time>
            <Position>
              <LatitudeDegrees>43.44333238899707794189453125</LatitudeDegrees>
              <LongitudeDegrees>-4.975911118090152740478515625</LongitudeDegrees>
            </Position>
            <AltitudeMeters>91.40000152587890625</AltitudeMeters>
            <DistanceMeters>NAN</DistanceMeters>
          </Trackpoint>
          <Trackpoint>
            <Time>2022-07-16T14:15:13.000Z</Time>
            <Position>
              <LatitudeDegrees>43.443402461707592010498046875</LatitudeDegrees>
              <LongitudeDegrees>-4.97615612111985683441162109375</LongitudeDegrees>
            </Position>
            <AltitudeMeters>91.1999969482421875</AltitudeMeters>
            <DistanceMeters>NAN</DistanceMeters>
          </Trackpoint>
          <Trackpoint>
            <Time>2022-07-16T14:15:16.000Z</Time>
            <Position>
              <LatitudeDegrees>43.443431966006755828857421875</LatitudeDegrees>
              <LongitudeDegrees>-4.97627514414489269256591796875</LongitudeDegrees>
            </Position>
            <AltitudeMeters>90.8000030517578125</AltitudeMeters>
            <DistanceMeters>NAN</DistanceMeters>
          </Trackpoint>
          <Trackpoint>
            <Time>2022-07-16T14:15:21.000Z</Time>
            <Position>
              <LatitudeDegrees>43.44344110228121280670166015625</LatitudeDegrees>
              <LongitudeDegrees>-4.97644814662635326385498046875</LongitudeDegrees>
            </Position>
            <AltitudeMeters>90.59999847412109375</AltitudeMeters>
            <DistanceMeters>NAN</DistanceMeters>
          </Trackpoint>
          <Trackpoint>
            <Time>2022-07-16T14:15:26.000Z</Time>
            <Position>
              <LatitudeDegrees>43.4434472210705280303955078125</LatitudeDegrees>
              <LongitudeDegrees>-4.9765714444220066070556640625</LongitudeDegrees>
            </Position>
            <AltitudeMeters>90.8000030517578125</AltitudeMeters>
            <DistanceMeters>NAN</DistanceMeters>
          </Trackpoint>
          <Trackpoint>
            <Time>2022-07-16T14:15:31.000Z</Time>
            <Position>
              <LatitudeDegrees>43.4434458799660205841064453125</LatitudeDegrees>
              <LongitudeDegrees>-4.97661226429045200347900390625</LongitudeDegrees>
            </Position>
            <AltitudeMeters>91</AltitudeMeters>
            <DistanceMeters>NAN</DistanceMeters>
          </Trackpoint>
          <Trackpoint>
            <Time>2022-07-16T14:16:00.000Z</Time>
            <Position>
              <LatitudeDegrees>43.44344495795667171478271484375</LatitudeDegrees>
              <LongitudeDegrees>-4.976702369749546051025390625</LongitudeDegrees>
            </Position>
            <AltitudeMeters>91.40000152587890625</AltitudeMeters>
            <DistanceMeters>NAN</DistanceMeters>
          </Trackpoint>
          <Trackpoint>
            <Time>2022-07-16T14:16:02.000Z</Time>
            <Position>
              <LatitudeDegrees>43.44344411976635456085205078125</LatitudeDegrees>
              <LongitudeDegrees>-4.97676062397658824920654296875</LongitudeDegrees>
            </Position>
            <AltitudeMeters>91.40000152587890625</AltitudeMeters>
            <DistanceMeters>NAN</DistanceMeters>
          </Trackpoint>
          <Trackpoint>
            <Time>2022-07-16T14:16:08.000Z</Time>
            <Position>
              <LatitudeDegrees>43.44340824522078037261962890625</LatitudeDegrees>
              <LongitudeDegrees>-4.97700487263500690460205078125</LongitudeDegrees>
            </Position>
            <AltitudeMeters>91</AltitudeMeters>
            <DistanceMeters>NAN</DistanceMeters>
          </Trackpoint>
          <Trackpoint>
            <Time>2022-07-16T14:16:13.000Z</Time>
            <Position>
              <LatitudeDegrees>43.44339148141443729400634765625</LatitudeDegrees>
              <LongitudeDegrees>-4.9771357141435146331787109375</LongitudeDegrees>
            </Position>
            <AltitudeMeters>90.8000030517578125</AltitudeMeters>
            <DistanceMeters>NAN</DistanceMeters>
          </Trackpoint>
          <Trackpoint>
            <Time>2022-07-16T14:16:15.000Z</Time>
            <Position>
              <LatitudeDegrees>43.4433821775019168853759765625</LatitudeDegrees>
              <LongitudeDegrees>-4.97719698585569858551025390625</LongitudeDegrees>
            </Position>
            <AltitudeMeters>90.8000030517578125</AltitudeMeters>
            <DistanceMeters>NAN</DistanceMeters>
          </Trackpoint>
          <Trackpoint>
            <Time>2022-07-16T14:16:17.000Z</Time>
            <Position>
              <LatitudeDegrees>43.443364240229129791259765625</LatitudeDegrees>
              <LongitudeDegrees>-4.97724853456020355224609375</LongitudeDegrees>
            </Position>
            <AltitudeMeters>90.8000030517578125</AltitudeMeters>
            <DistanceMeters>NAN</DistanceMeters>
          </Trackpoint>
          <Trackpoint>
            <Time>2022-07-16T14:16:20.000Z</Time>
            <Position>
              <LatitudeDegrees>43.44331738539040088653564453125</LatitudeDegrees>
              <LongitudeDegrees>-4.97731248848140239715576171875</LongitudeDegrees>
            </Position>
            <AltitudeMeters>91.1999969482421875</AltitudeMeters>
            <DistanceMeters>NAN</DistanceMeters>
          </Trackpoint>
          <Trackpoint>
            <Time>2022-07-16T14:16:25.000Z</Time>
            <Position>
              <LatitudeDegrees>43.4432660043239593505859375</LatitudeDegrees>
              <LongitudeDegrees>-4.977378956973552703857421875</LongitudeDegrees>
            </Position>
            <AltitudeMeters>91.8000030517578125</AltitudeMeters>
            <DistanceMeters>NAN</DistanceMeters>
          </Trackpoint>
          <Trackpoint>
            <Time>2022-07-16T14:16:26.000Z</Time>
            <Position>
              <LatitudeDegrees>43.44325720332562923431396484375</LatitudeDegrees>
              <LongitudeDegrees>-4.97739798389375209808349609375</LongitudeDegrees>
            </Position>
            <AltitudeMeters>91.8000030517578125</AltitudeMeters>
            <DistanceMeters>NAN</DistanceMeters>
          </Trackpoint>
          <Trackpoint>
            <Time>2022-07-16T14:16:33.000Z</Time>
            <Position>
              <LatitudeDegrees>43.44317439012229442596435546875</LatitudeDegrees>
              <LongitudeDegrees>-4.977575428783893585205078125</LongitudeDegrees>
            </Position>
            <AltitudeMeters>92</AltitudeMeters>
            <DistanceMeters>NAN</DistanceMeters>
          </Trackpoint>
          <Trackpoint>
            <Time>2022-07-16T14:16:38.000Z</Time>
            <Position>
              <LatitudeDegrees>43.4430938400328159332275390625</LatitudeDegrees>
              <LongitudeDegrees>-4.977757818996906280517578125</LongitudeDegrees>
            </Position>
            <AltitudeMeters>91.8000030517578125</AltitudeMeters>
            <DistanceMeters>NAN</DistanceMeters>
          </Trackpoint>
          <Trackpoint>
            <Time>2022-07-16T14:16:40.000Z</Time>
            <Position>
              <LatitudeDegrees>43.443070538341999053955078125</LatitudeDegrees>
              <LongitudeDegrees>-4.977840967476367950439453125</LongitudeDegrees>
            </Position>
            <AltitudeMeters>91.8000030517578125</AltitudeMeters>
            <DistanceMeters>NAN</DistanceMeters>
          </Trackpoint>
          <Trackpoint>
            <Time>2022-07-16T14:16:42.000Z</Time>
            <Position>
              <LatitudeDegrees>43.44306475482881069183349609375</LatitudeDegrees>
              <LongitudeDegrees>-4.97792772017419338226318359375</LongitudeDegrees>
            </Position>
            <AltitudeMeters>91.59999847412109375</AltitudeMeters>
            <DistanceMeters>NAN</DistanceMeters>
          </Trackpoint>
          <Trackpoint>
            <Time>2022-07-16T14:16:46.000Z</Time>
            <Position>
              <LatitudeDegrees>43.44305972568690776824951171875</LatitudeDegrees>
              <LongitudeDegrees>-4.978144727647304534912109375</LongitudeDegrees>
            </Position>
            <AltitudeMeters>91.40000152587890625</AltitudeMeters>
            <DistanceMeters>NAN</DistanceMeters>
          </Trackpoint>
          <Trackpoint>
            <Time>2022-07-16T14:16:49.000Z</Time>
            <Position>
              <LatitudeDegrees>43.44302703626453876495361328125</LatitudeDegrees>
              <LongitudeDegrees>-4.9783232621848583221435546875</LongitudeDegrees>
            </Position>
            <AltitudeMeters>91</AltitudeMeters>
            <DistanceMeters>NAN</DistanceMeters>
          </Trackpoint>
          <Trackpoint>
            <Time>2022-07-16T14:16:52.000Z</Time>
            <Position>
              <LatitudeDegrees>43.442988730967044830322265625</LatitudeDegrees>
              <LongitudeDegrees>-4.9785106815397739410400390625</LongitudeDegrees>
            </Position>
            <AltitudeMeters>90.8000030517578125</AltitudeMeters>
            <DistanceMeters>NAN</DistanceMeters>
          </Trackpoint>
          <Trackpoint>
            <Time>2022-07-16T14:16:53.000Z</Time>
            <Position>
              <LatitudeDegrees>43.4429795108735561370849609375</LatitudeDegrees>
              <LongitudeDegrees>-4.9785700254142284393310546875</LongitudeDegrees>
            </Position>
            <AltitudeMeters>90.8000030517578125</AltitudeMeters>
            <DistanceMeters>NAN</DistanceMeters>
          </Trackpoint>
          <Trackpoint>
            <Time>2022-07-16T14:16:56.000Z</Time>
            <Position>
              <LatitudeDegrees>43.442948497831821441650390625</LatitudeDegrees>
              <LongitudeDegrees>-4.9787467159330844879150390625</LongitudeDegrees>
            </Position>
            <AltitudeMeters>90.1999969482421875</AltitudeMeters>
            <DistanceMeters>NAN</DistanceMeters>
          </Trackpoint>
          <Trackpoint>
            <Time>2022-07-16T14:16:58.000Z</Time>
            <Position>
              <LatitudeDegrees>43.442929722368717193603515625</LatitudeDegrees>
              <LongitudeDegrees>-4.97886599041521549224853515625</LongitudeDegrees>
            </Position>
            <AltitudeMeters>89.8000030517578125</AltitudeMeters>
            <DistanceMeters>NAN</DistanceMeters>
          </Trackpoint>
          <Trackpoint>
            <Time>2022-07-16T14:17:01.000Z</Time>
            <Position>
              <LatitudeDegrees>43.44290717504918575286865234375</LatitudeDegrees>
              <LongitudeDegrees>-4.9790196307003498077392578125</LongitudeDegrees>
            </Position>
            <AltitudeMeters>89.59999847412109375</AltitudeMeters>
            <DistanceMeters>NAN</DistanceMeters>
          </Trackpoint>
          <Trackpoint>
            <Time>2022-07-16T14:17:03.000Z</Time>
            <Position>
              <LatitudeDegrees>43.44288135878741741180419921875</LatitudeDegrees>
              <LongitudeDegrees>-4.9791044555604457855224609375</LongitudeDegrees>
            </Position>
            <AltitudeMeters>89.40000152587890625</AltitudeMeters>
            <DistanceMeters>NAN</DistanceMeters>
          </Trackpoint>
          <Trackpoint>
            <Time>2022-07-16T14:17:06.000Z</Time>
            <Position>
              <LatitudeDegrees>43.4428068436682224273681640625</LatitudeDegrees>
              <LongitudeDegrees>-4.97917561791837215423583984375</LongitudeDegrees>
            </Position>
            <AltitudeMeters>89.1999969482421875</AltitudeMeters>
            <DistanceMeters>NAN</DistanceMeters>
          </Trackpoint>
          <Trackpoint>
            <Time>2022-07-16T14:17:07.000Z</Time>
            <Position>
              <LatitudeDegrees>43.44277977012097835540771484375</LatitudeDegrees>
              <LongitudeDegrees>-4.97918584384024143218994140625</LongitudeDegrees>
            </Position>
            <AltitudeMeters>89.1999969482421875</AltitudeMeters>
            <DistanceMeters>NAN</DistanceMeters>
          </Trackpoint>
          <Trackpoint>
            <Time>2022-07-16T14:17:13.000Z</Time>
            <Position>
              <LatitudeDegrees>43.44264817424118518829345703125</LatitudeDegrees>
              <LongitudeDegrees>-4.9792407453060150146484375</LongitudeDegrees>
            </Position>
            <AltitudeMeters>88.59999847412109375</AltitudeMeters>
            <DistanceMeters>NAN</DistanceMeters>
          </Trackpoint>
          <Trackpoint>
            <Time>2022-07-16T14:17:16.000Z</Time>
            <Position>
              <LatitudeDegrees>43.44263459555804729461669921875</LatitudeDegrees>
              <LongitudeDegrees>-4.97925742529332637786865234375</LongitudeDegrees>
            </Position>
            <AltitudeMeters>88.1999969482421875</AltitudeMeters>
            <DistanceMeters>NAN</DistanceMeters>
          </Trackpoint>
          <Trackpoint>
            <Time>2022-07-16T14:17:17.000Z</Time>
            <Position>
              <LatitudeDegrees>43.44263459555804729461669921875</LatitudeDegrees>
              <LongitudeDegrees>-4.97925742529332637786865234375</LongitudeDegrees>
            </Position>
            <AltitudeMeters>88</AltitudeMeters>
            <DistanceMeters>NAN</DistanceMeters>
          </Trackpoint>
          <Trackpoint>
            <Time>2022-07-16T14:17:38.000Z</Time>
            <Position>
              <LatitudeDegrees>43.44267600215971469879150390625</LatitudeDegrees>
              <LongitudeDegrees>-4.97918467037379741668701171875</LongitudeDegrees>
            </Position>
            <AltitudeMeters>88.1999969482421875</AltitudeMeters>
            <DistanceMeters>NAN</DistanceMeters>
          </Trackpoint>
          <Trackpoint>
            <Time>2022-07-16T14:17:40.000Z</Time>
            <Position>
              <LatitudeDegrees>43.4427015669643878936767578125</LatitudeDegrees>
              <LongitudeDegrees>-4.97917293570935726165771484375</LongitudeDegrees>
            </Position>
            <AltitudeMeters>88.1999969482421875</AltitudeMeters>
            <DistanceMeters>NAN</DistanceMeters>
          </Trackpoint>
          <Trackpoint>
            <Time>2022-07-16T14:17:43.000Z</Time>
            <Position>
              <LatitudeDegrees>43.4427260421216487884521484375</LatitudeDegrees>
              <LongitudeDegrees>-4.9791832454502582550048828125</LongitudeDegrees>
            </Position>
            <AltitudeMeters>88.59999847412109375</AltitudeMeters>
            <DistanceMeters>NAN</DistanceMeters>
          </Trackpoint>
          <Trackpoint>
            <Time>2022-07-16T14:17:46.000Z</Time>
            <Position>
              <LatitudeDegrees>43.44273031689226627349853515625</LatitudeDegrees>
              <LongitudeDegrees>-4.97919640503823757171630859375</LongitudeDegrees>
            </Position>
            <AltitudeMeters>88.8000030517578125</AltitudeMeters>
            <DistanceMeters>NAN</DistanceMeters>
          </Trackpoint>
          <Trackpoint>
            <Time>2022-07-16T14:17:55.000Z</Time>
            <Position>
              <LatitudeDegrees>43.4426532872021198272705078125</LatitudeDegrees>
              <LongitudeDegrees>-4.97921526432037353515625</LongitudeDegrees>
            </Position>
            <AltitudeMeters>88.40000152587890625</AltitudeMeters>
            <DistanceMeters>NAN</DistanceMeters>
          </Trackpoint>
          <Trackpoint>
            <Time>2022-07-16T14:18:00.000Z</Time>
            <Position>
              <LatitudeDegrees>43.4425761736929416656494140625</LatitudeDegrees>
              <LongitudeDegrees>-4.9793575890362262725830078125</LongitudeDegrees>
            </Position>
            <AltitudeMeters>88</AltitudeMeters>
            <DistanceMeters>NAN</DistanceMeters>
          </Trackpoint>
          <Trackpoint>
            <Time>2022-07-16T14:18:04.000Z</Time>
            <Position>
              <LatitudeDegrees>43.4424940310418605804443359375</LatitudeDegrees>
              <LongitudeDegrees>-4.9795292504131793975830078125</LongitudeDegrees>
            </Position>
            <AltitudeMeters>87</AltitudeMeters>
            <DistanceMeters>NAN</DistanceMeters>
          </Trackpoint>
          <Trackpoint>
            <Time>2022-07-16T14:18:06.000Z</Time>
            <Position>
              <LatitudeDegrees>43.442446254193782806396484375</LatitudeDegrees>
              <LongitudeDegrees>-4.9796325154602527618408203125</LongitudeDegrees>
            </Position>
            <AltitudeMeters>86</AltitudeMeters>
            <DistanceMeters>NAN</DistanceMeters>
          </Trackpoint>
          <Trackpoint>
            <Time>2022-07-16T14:18:09.000Z</Time>
            <Position>
              <LatitudeDegrees>43.4423803724348545074462890625</LatitudeDegrees>
              <LongitudeDegrees>-4.9797798693180084228515625</LongitudeDegrees>
            </Position>
            <AltitudeMeters>84.40000152587890625</AltitudeMeters>
            <DistanceMeters>NAN</DistanceMeters>
          </Trackpoint>
          <Trackpoint>
            <Time>2022-07-16T14:18:12.000Z</Time>
            <Position>
              <LatitudeDegrees>43.4423263929784297943115234375</LatitudeDegrees>
              <LongitudeDegrees>-4.9799195118248462677001953125</LongitudeDegrees>
            </Position>
            <AltitudeMeters>83.59999847412109375</AltitudeMeters>
            <DistanceMeters>NAN</DistanceMeters>
          </Trackpoint>
          <Trackpoint>
            <Time>2022-07-16T14:18:13.000Z</Time>
            <Position>
              <LatitudeDegrees>43.44231314957141876220703125</LatitudeDegrees>
              <LongitudeDegrees>-4.97997022233903408050537109375</LongitudeDegrees>
            </Position>
            <AltitudeMeters>83.1999969482421875</AltitudeMeters>
            <DistanceMeters>NAN</DistanceMeters>
          </Trackpoint>
          <Trackpoint>
            <Time>2022-07-16T14:18:16.000Z</Time>
            <Position>
              <LatitudeDegrees>43.4422603435814380645751953125</LatitudeDegrees>
              <LongitudeDegrees>-4.98012143187224864959716796875</LongitudeDegrees>
            </Position>
            <AltitudeMeters>82</AltitudeMeters>
            <DistanceMeters>NAN</DistanceMeters>
          </Trackpoint>
          <Trackpoint>
            <Time>2022-07-16T14:18:17.000Z</Time>
            <Position>
              <LatitudeDegrees>43.44223964028060436248779296875</LatitudeDegrees>
              <LongitudeDegrees>-4.9801739864051342010498046875</LongitudeDegrees>
            </Position>
            <AltitudeMeters>81.8000030517578125</AltitudeMeters>
            <DistanceMeters>NAN</DistanceMeters>
          </Trackpoint>
          <Trackpoint>
            <Time>2022-07-16T14:18:21.000Z</Time>
            <Position>
              <LatitudeDegrees>43.44218767248094081878662109375</LatitudeDegrees>
              <LongitudeDegrees>-4.98036987148225307464599609375</LongitudeDegrees>
            </Position>
            <AltitudeMeters>81</AltitudeMeters>
            <DistanceMeters>NAN</DistanceMeters>
          </Trackpoint>
          <Trackpoint>
            <Time>2022-07-16T14:18:22.000Z</Time>
            <Position>
              <LatitudeDegrees>43.4421743452548980712890625</LatitudeDegrees>
              <LongitudeDegrees>-4.98041915707290172576904296875</LongitudeDegrees>
            </Position>
            <AltitudeMeters>80.8000030517578125</AltitudeMeters>
            <DistanceMeters>NAN</DistanceMeters>
          </Trackpoint>
          <Trackpoint>
            <Time>2022-07-16T14:18:25.000Z</Time>
            <Position>
              <LatitudeDegrees>43.4421285800635814666748046875</LatitudeDegrees>
              <LongitudeDegrees>-4.98057606630027294158935546875</LongitudeDegrees>
            </Position>
            <AltitudeMeters>80</AltitudeMeters>
            <DistanceMeters>NAN</DistanceMeters>
          </Trackpoint>
          <Trackpoint>
            <Time>2022-07-16T14:18:29.000Z</Time>
            <Position>
              <LatitudeDegrees>43.44205792061984539031982421875</LatitudeDegrees>
              <LongitudeDegrees>-4.9807991087436676025390625</LongitudeDegrees>
            </Position>
            <AltitudeMeters>79</AltitudeMeters>
            <DistanceMeters>NAN</DistanceMeters>
          </Trackpoint>
          <Trackpoint>
            <Time>2022-07-16T14:18:30.000Z</Time>
            <Position>
              <LatitudeDegrees>43.44203981570899486541748046875</LatitudeDegrees>
              <LongitudeDegrees>-4.9808619730174541473388671875</LongitudeDegrees>
            </Position>
            <AltitudeMeters>78.40000152587890625</AltitudeMeters>
            <DistanceMeters>NAN</DistanceMeters>
          </Trackpoint>
          <Trackpoint>
            <Time>2022-07-16T14:18:31.000Z</Time>
            <Position>
              <LatitudeDegrees>43.44202891923487186431884765625</LatitudeDegrees>
              <LongitudeDegrees>-4.98091888613998889923095703125</LongitudeDegrees>
            </Position>
            <AltitudeMeters>77.8000030517578125</AltitudeMeters>
            <DistanceMeters>NAN</DistanceMeters>
          </Trackpoint>
          <Trackpoint>
            <Time>2022-07-16T14:18:32.000Z</Time>
            <Position>
              <LatitudeDegrees>43.44202036969363689422607421875</LatitudeDegrees>
              <LongitudeDegrees>-4.9809729494154453277587890625</LongitudeDegrees>
            </Position>
            <AltitudeMeters>77.40000152587890625</AltitudeMeters>
            <DistanceMeters>NAN</DistanceMeters>
          </Trackpoint>
          <Trackpoint>
            <Time>2022-07-16T14:18:35.000Z</Time>
            <Position>
              <LatitudeDegrees>43.44199505634605884552001953125</LatitudeDegrees>
              <LongitudeDegrees>-4.98114184476435184478759765625</LongitudeDegrees>
            </Position>
            <AltitudeMeters>75.8000030517578125</AltitudeMeters>
            <DistanceMeters>NAN</DistanceMeters>
          </Trackpoint>
          <Trackpoint>
            <Time>2022-07-16T14:18:37.000Z</Time>
            <Position>
              <LatitudeDegrees>43.441965468227863311767578125</LatitudeDegrees>
              <LongitudeDegrees>-4.98126321472227573394775390625</LongitudeDegrees>
            </Position>
            <AltitudeMeters>74.8000030517578125</AltitudeMeters>
            <DistanceMeters>NAN</DistanceMeters>
          </Trackpoint>
          <Trackpoint>
            <Time>2022-07-16T14:18:38.000Z</Time>
            <Position>
              <LatitudeDegrees>43.44195012934505939483642578125</LatitudeDegrees>
              <LongitudeDegrees>-4.981321133673191070556640625</LongitudeDegrees>
            </Position>
            <AltitudeMeters>74.40000152587890625</AltitudeMeters>
            <DistanceMeters>NAN</DistanceMeters>
          </Trackpoint>
          <Trackpoint>
            <Time>2022-07-16T14:18:39.000Z</Time>
            <Position>
              <LatitudeDegrees>43.4419354610145092010498046875</LatitudeDegrees>
              <LongitudeDegrees>-4.9813813157379627227783203125</LongitudeDegrees>
            </Position>
            <AltitudeMeters>73.8000030517578125</AltitudeMeters>
            <DistanceMeters>NAN</DistanceMeters>
          </Trackpoint>
          <Trackpoint>
            <Time>2022-07-16T14:18:41.000Z</Time>
            <Position>
              <LatitudeDegrees>43.4419166855514049530029296875</LatitudeDegrees>
              <LongitudeDegrees>-4.9815124087035655975341796875</LongitudeDegrees>
            </Position>
            <AltitudeMeters>73</AltitudeMeters>
            <DistanceMeters>NAN</DistanceMeters>
          </Trackpoint>
          <Trackpoint>
            <Time>2022-07-16T14:18:43.000Z</Time>
            <Position>
              <LatitudeDegrees>43.44190184958279132843017578125</LatitudeDegrees>
              <LongitudeDegrees>-4.9816408194601535797119140625</LongitudeDegrees>
            </Position>
            <AltitudeMeters>71.8000030517578125</AltitudeMeters>
            <DistanceMeters>NAN</DistanceMeters>
          </Trackpoint>
          <Trackpoint>
            <Time>2022-07-16T14:18:44.000Z</Time>
            <Position>
              <LatitudeDegrees>43.4418932162225246429443359375</LatitudeDegrees>
              <LongitudeDegrees>-4.98170024715363979339599609375</LongitudeDegrees>
            </Position>
            <AltitudeMeters>71.40000152587890625</AltitudeMeters>
            <DistanceMeters>NAN</DistanceMeters>
          </Trackpoint>
          <Trackpoint>
            <Time>2022-07-16T14:18:46.000Z</Time>
            <Position>
              <LatitudeDegrees>43.44185859896242618560791015625</LatitudeDegrees>
              <LongitudeDegrees>-4.9818141572177410125732421875</LongitudeDegrees>
            </Position>
            <AltitudeMeters>71</AltitudeMeters>
            <DistanceMeters>NAN</DistanceMeters>
          </Trackpoint>
          <Trackpoint>
            <Time>2022-07-16T14:18:48.000Z</Time>
            <Position>
              <LatitudeDegrees>43.44180830754339694976806640625</LatitudeDegrees>
              <LongitudeDegrees>-4.98191423714160919189453125</LongitudeDegrees>
            </Position>
            <AltitudeMeters>70.40000152587890625</AltitudeMeters>
            <DistanceMeters>NAN</DistanceMeters>
          </Trackpoint>
          <Trackpoint>
            <Time>2022-07-16T14:18:50.000Z</Time>
            <Position>
              <LatitudeDegrees>43.44175315462052822113037109375</LatitudeDegrees>
              <LongitudeDegrees>-4.98200132511556148529052734375</LongitudeDegrees>
            </Position>
            <AltitudeMeters>69.40000152587890625</AltitudeMeters>
            <DistanceMeters>NAN</DistanceMeters>
          </Trackpoint>
          <Trackpoint>
            <Time>2022-07-16T14:18:54.000Z</Time>
            <Position>
              <LatitudeDegrees>43.4416431002318859100341796875</LatitudeDegrees>
              <LongitudeDegrees>-4.9822064302861690521240234375</LongitudeDegrees>
            </Position>
            <AltitudeMeters>68.40000152587890625</AltitudeMeters>
            <DistanceMeters>NAN</DistanceMeters>
          </Trackpoint>
          <Trackpoint>
            <Time>2022-07-16T14:18:55.000Z</Time>
            <Position>
              <LatitudeDegrees>43.4416226483881473541259765625</LatitudeDegrees>
              <LongitudeDegrees>-4.98226183466613292694091796875</LongitudeDegrees>
            </Position>
            <AltitudeMeters>68</AltitudeMeters>
            <DistanceMeters>NAN</DistanceMeters>
          </Trackpoint>
          <Trackpoint>
            <Time>2022-07-16T14:18:56.000Z</Time>
            <Position>
              <LatitudeDegrees>43.44159808941185474395751953125</LatitudeDegrees>
              <LongitudeDegrees>-4.98231598176062107086181640625</LongitudeDegrees>
            </Position>
            <AltitudeMeters>67.8000030517578125</AltitudeMeters>
            <DistanceMeters>NAN</DistanceMeters>
          </Trackpoint>
          <Trackpoint>
            <Time>2022-07-16T14:18:58.000Z</Time>
            <Position>
              <LatitudeDegrees>43.4415425173938274383544921875</LatitudeDegrees>
              <LongitudeDegrees>-4.982409439980983734130859375</LongitudeDegrees>
            </Position>
            <AltitudeMeters>67.40000152587890625</AltitudeMeters>
            <DistanceMeters>NAN</DistanceMeters>
          </Trackpoint>
          <Trackpoint>
            <Time>2022-07-16T14:19:01.000Z</Time>
            <Position>
              <LatitudeDegrees>43.44144755043089389801025390625</LatitudeDegrees>
              <LongitudeDegrees>-4.9825470708310604095458984375</LongitudeDegrees>
            </Position>
            <AltitudeMeters>66.8000030517578125</AltitudeMeters>
            <DistanceMeters>NAN</DistanceMeters>
          </Trackpoint>
          <Trackpoint>
            <Time>2022-07-16T14:19:03.000Z</Time>
            <Position>
              <LatitudeDegrees>43.44138384796679019927978515625</LatitudeDegrees>
              <LongitudeDegrees>-4.9826496653258800506591796875</LongitudeDegrees>
            </Position>
            <AltitudeMeters>66.1999969482421875</AltitudeMeters>
            <DistanceMeters>NAN</DistanceMeters>
          </Trackpoint>
          <Trackpoint>
            <Time>2022-07-16T14:19:05.000Z</Time>
            <Position>
              <LatitudeDegrees>43.44133523292839527130126953125</LatitudeDegrees>
              <LongitudeDegrees>-4.98275854624807834625244140625</LongitudeDegrees>
            </Position>
            <AltitudeMeters>65.8000030517578125</AltitudeMeters>
            <DistanceMeters>NAN</DistanceMeters>
          </Trackpoint>
          <Trackpoint>
            <Time>2022-07-16T14:19:07.000Z</Time>
            <Position>
              <LatitudeDegrees>43.44131712801754474639892578125</LatitudeDegrees>
              <LongitudeDegrees>-4.98287203721702098846435546875</LongitudeDegrees>
            </Position>
            <AltitudeMeters>65</AltitudeMeters>
            <DistanceMeters>NAN</DistanceMeters>
          </Trackpoint>
          <Trackpoint>
            <Time>2022-07-16T14:19:11.000Z</Time>
            <Position>
              <LatitudeDegrees>43.44131276942789554595947265625</LatitudeDegrees>
              <LongitudeDegrees>-4.98309700749814510345458984375</LongitudeDegrees>
            </Position>
            <AltitudeMeters>63.59999847412109375</AltitudeMeters>
            <DistanceMeters>NAN</DistanceMeters>
          </Trackpoint>
          <Trackpoint>
            <Time>2022-07-16T14:19:14.000Z</Time>
            <Position>
              <LatitudeDegrees>43.44131268560886383056640625</LatitudeDegrees>
              <LongitudeDegrees>-4.983263052999973297119140625</LongitudeDegrees>
            </Position>
            <AltitudeMeters>62.200000762939453125</AltitudeMeters>
            <DistanceMeters>NAN</DistanceMeters>
          </Trackpoint>
          <Trackpoint>
            <Time>2022-07-16T14:19:16.000Z</Time>
            <Position>
              <LatitudeDegrees>43.44130053184926509857177734375</LatitudeDegrees>
              <LongitudeDegrees>-4.98334561474621295928955078125</LongitudeDegrees>
            </Position>
            <AltitudeMeters>60.799999237060546875</AltitudeMeters>
            <DistanceMeters>NAN</DistanceMeters>
          </Trackpoint>
          <Trackpoint>
            <Time>2022-07-16T14:19:18.000Z</Time>
            <Position>
              <LatitudeDegrees>43.4412712790071964263916015625</LatitudeDegrees>
              <LongitudeDegrees>-4.9834134243428707122802734375</LongitudeDegrees>
            </Position>
            <AltitudeMeters>59.799999237060546875</AltitudeMeters>
            <DistanceMeters>NAN</DistanceMeters>
          </Trackpoint>
          <Trackpoint>
            <Time>2022-07-16T14:19:19.000Z</Time>
            <Position>
              <LatitudeDegrees>43.44127287156879901885986328125</LatitudeDegrees>
              <LongitudeDegrees>-4.98343144543468952178955078125</LongitudeDegrees>
            </Position>
            <AltitudeMeters>59.59999847412109375</AltitudeMeters>
            <DistanceMeters>NAN</DistanceMeters>
          </Trackpoint>
          <Trackpoint>
            <Time>2022-07-16T14:19:20.000Z</Time>
            <Position>
              <LatitudeDegrees>43.4412786550819873809814453125</LatitudeDegrees>
              <LongitudeDegrees>-4.983444772660732269287109375</LongitudeDegrees>
            </Position>
            <AltitudeMeters>59.40000152587890625</AltitudeMeters>
            <DistanceMeters>NAN</DistanceMeters>
          </Trackpoint>
          <Trackpoint>
            <Time>2022-07-16T14:19:22.000Z</Time>
            <Position>
              <LatitudeDegrees>43.44129784964025020599365234375</LatitudeDegrees>
              <LongitudeDegrees>-4.98347067274153232574462890625</LongitudeDegrees>
            </Position>
            <AltitudeMeters>58.799999237060546875</AltitudeMeters>
            <DistanceMeters>NAN</DistanceMeters>
          </Trackpoint>
          <Trackpoint>
            <Time>2022-07-16T14:19:25.000Z</Time>
            <Position>
              <LatitudeDegrees>43.44137278385460376739501953125</LatitudeDegrees>
              <LongitudeDegrees>-4.9835133366286754608154296875</LongitudeDegrees>
            </Position>
            <AltitudeMeters>58.59999847412109375</AltitudeMeters>
            <DistanceMeters>NAN</DistanceMeters>
          </Trackpoint>
          <Trackpoint>
            <Time>2022-07-16T14:19:26.000Z</Time>
            <Position>
              <LatitudeDegrees>43.44140714965760707855224609375</LatitudeDegrees>
              <LongitudeDegrees>-4.98352758586406707763671875</LongitudeDegrees>
            </Position>
            <AltitudeMeters>58.40000152587890625</AltitudeMeters>
            <DistanceMeters>NAN</DistanceMeters>
          </Trackpoint>
          <Trackpoint>
            <Time>2022-07-16T14:19:29.000Z</Time>
            <Position>
              <LatitudeDegrees>43.4415359795093536376953125</LatitudeDegrees>
              <LongitudeDegrees>-4.98361886478960514068603515625</LongitudeDegrees>
            </Position>
            <AltitudeMeters>57.59999847412109375</AltitudeMeters>
            <DistanceMeters>NAN</DistanceMeters>
          </Trackpoint>
          <Trackpoint>
            <Time>2022-07-16T14:19:30.000Z</Time>
            <Position>
              <LatitudeDegrees>43.4415854327380657196044921875</LatitudeDegrees>
              <LongitudeDegrees>-4.98365222476422786712646484375</LongitudeDegrees>
            </Position>
            <AltitudeMeters>57.200000762939453125</AltitudeMeters>
            <DistanceMeters>NAN</DistanceMeters>
          </Trackpoint>
          <Trackpoint>
            <Time>2022-07-16T14:19:33.000Z</Time>
            <Position>
              <LatitudeDegrees>43.4417259134352207183837890625</LatitudeDegrees>
              <LongitudeDegrees>-4.983754567801952362060546875</LongitudeDegrees>
            </Position>
            <AltitudeMeters>56.59999847412109375</AltitudeMeters>
            <DistanceMeters>NAN</DistanceMeters>
          </Trackpoint>
          <Trackpoint>
            <Time>2022-07-16T14:19:35.000Z</Time>
            <Position>
              <LatitudeDegrees>43.441825993359088897705078125</LatitudeDegrees>
              <LongitudeDegrees>-4.9838160909712314605712890625</LongitudeDegrees>
            </Position>
            <AltitudeMeters>56</AltitudeMeters>
            <DistanceMeters>NAN</DistanceMeters>
          </Trackpoint>
          <Trackpoint>
            <Time>2022-07-16T14:19:37.000Z</Time>
            <Position>
              <LatitudeDegrees>43.44190637581050395965576171875</LatitudeDegrees>
              <LongitudeDegrees>-4.98386478982865810394287109375</LongitudeDegrees>
            </Position>
            <AltitudeMeters>55.59999847412109375</AltitudeMeters>
            <DistanceMeters>NAN</DistanceMeters>
          </Trackpoint>
          <Trackpoint>
            <Time>2022-07-16T14:19:38.000Z</Time>
            <Position>
              <LatitudeDegrees>43.44195867888629436492919921875</LatitudeDegrees>
              <LongitudeDegrees>-4.9838841520249843597412109375</LongitudeDegrees>
            </Position>
            <AltitudeMeters>55.40000152587890625</AltitudeMeters>
            <DistanceMeters>NAN</DistanceMeters>
          </Trackpoint>
          <Trackpoint>
            <Time>2022-07-16T14:19:39.000Z</Time>
            <Position>
              <LatitudeDegrees>43.44200058840215206146240234375</LatitudeDegrees>
              <LongitudeDegrees>-4.983892701566219329833984375</LongitudeDegrees>
            </Position>
            <AltitudeMeters>54.799999237060546875</AltitudeMeters>
            <DistanceMeters>NAN</DistanceMeters>
          </Trackpoint>
          <Trackpoint>
            <Time>2022-07-16T14:19:41.000Z</Time>
            <Position>
              <LatitudeDegrees>43.4420692361891269683837890625</LatitudeDegrees>
              <LongitudeDegrees>-4.98388976790010929107666015625</LongitudeDegrees>
            </Position>
            <AltitudeMeters>54</AltitudeMeters>
            <DistanceMeters>NAN</DistanceMeters>
          </Trackpoint>
          <Trackpoint>
            <Time>2022-07-16T14:19:42.000Z</Time>
            <Position>
              <LatitudeDegrees>43.44209329225122928619384765625</LatitudeDegrees>
              <LongitudeDegrees>-4.9838875047862529754638671875</LongitudeDegrees>
            </Position>
            <AltitudeMeters>53.59999847412109375</AltitudeMeters>
            <DistanceMeters>NAN</DistanceMeters>
          </Trackpoint>
          <Trackpoint>
            <Time>2022-07-16T14:19:45.000Z</Time>
            <Position>
              <LatitudeDegrees>43.4421017579734325408935546875</LatitudeDegrees>
              <LongitudeDegrees>-4.98388624750077724456787109375</LongitudeDegrees>
            </Position>
            <AltitudeMeters>52.799999237060546875</AltitudeMeters>
            <DistanceMeters>NAN</DistanceMeters>
          </Trackpoint>
          <Trackpoint>
            <Time>2022-07-16T14:21:22.000Z</Time>
            <Position>
              <LatitudeDegrees>43.4421433322131633758544921875</LatitudeDegrees>
              <LongitudeDegrees>-4.98388390056788921356201171875</LongitudeDegrees>
            </Position>
            <AltitudeMeters>52.40000152587890625</AltitudeMeters>
            <DistanceMeters>NAN</DistanceMeters>
          </Trackpoint>
          <Trackpoint>
            <Time>2022-07-16T14:21:23.000Z</Time>
            <Position>
              <LatitudeDegrees>43.442189432680606842041015625</LatitudeDegrees>
              <LongitudeDegrees>-4.98388557694852352142333984375</LongitudeDegrees>
            </Position>
            <AltitudeMeters>52.40000152587890625</AltitudeMeters>
            <DistanceMeters>NAN</DistanceMeters>
          </Trackpoint>
          <Trackpoint>
            <Time>2022-07-16T14:21:26.000Z</Time>
            <Position>
              <LatitudeDegrees>43.442347683012485504150390625</LatitudeDegrees>
              <LongitudeDegrees>-4.98392379842698574066162109375</LongitudeDegrees>
            </Position>
            <AltitudeMeters>51.799999237060546875</AltitudeMeters>
            <DistanceMeters>NAN</DistanceMeters>
          </Trackpoint>
          <Trackpoint>
            <Time>2022-07-16T14:21:28.000Z</Time>
            <Position>
              <LatitudeDegrees>43.44246712513267993927001953125</LatitudeDegrees>
              <LongitudeDegrees>-4.98397358693182468414306640625</LongitudeDegrees>
            </Position>
            <AltitudeMeters>51</AltitudeMeters>
            <DistanceMeters>NAN</DistanceMeters>
          </Trackpoint>
          <Trackpoint>
            <Time>2022-07-16T14:21:33.000Z</Time>
            <Position>
              <LatitudeDegrees>43.44274037517607212066650390625</LatitudeDegrees>
              <LongitudeDegrees>-4.98412278480827808380126953125</LongitudeDegrees>
            </Position>
            <AltitudeMeters>49.799999237060546875</AltitudeMeters>
            <DistanceMeters>NAN</DistanceMeters>
          </Trackpoint>
          <Trackpoint>
            <Time>2022-07-16T14:21:36.000Z</Time>
            <Position>
              <LatitudeDegrees>43.44287616200745105743408203125</LatitudeDegrees>
              <LongitudeDegrees>-4.9842133931815624237060546875</LongitudeDegrees>
            </Position>
            <AltitudeMeters>48.799999237060546875</AltitudeMeters>
            <DistanceMeters>NAN</DistanceMeters>
          </Trackpoint>
          <Trackpoint>
            <Time>2022-07-16T14:21:37.000Z</Time>
            <Position>
              <LatitudeDegrees>43.4429251961410045623779296875</LatitudeDegrees>
              <LongitudeDegrees>-4.98424239456653594970703125</LongitudeDegrees>
            </Position>
            <AltitudeMeters>48.40000152587890625</AltitudeMeters>
            <DistanceMeters>NAN</DistanceMeters>
          </Trackpoint>
          <Trackpoint>
            <Time>2022-07-16T14:21:39.000Z</Time>
            <Position>
              <LatitudeDegrees>43.44301127828657627105712890625</LatitudeDegrees>
              <LongitudeDegrees>-4.9842898361384868621826171875</LongitudeDegrees>
            </Position>
            <AltitudeMeters>48.200000762939453125</AltitudeMeters>
            <DistanceMeters>NAN</DistanceMeters>
          </Trackpoint>
          <Trackpoint>
            <Time>2022-07-16T14:21:41.000Z</Time>
            <Position>
              <LatitudeDegrees>43.44308654777705669403076171875</LatitudeDegrees>
              <LongitudeDegrees>-4.984336607158184051513671875</LongitudeDegrees>
            </Position>
            <AltitudeMeters>48</AltitudeMeters>
            <DistanceMeters>NAN</DistanceMeters>
          </Trackpoint>
          <Trackpoint>
            <Time>2022-07-16T14:21:46.000Z</Time>
            <Position>
              <LatitudeDegrees>43.44321914948523044586181640625</LatitudeDegrees>
              <LongitudeDegrees>-4.98439469374716281890869140625</LongitudeDegrees>
            </Position>
            <AltitudeMeters>48.200000762939453125</AltitudeMeters>
            <DistanceMeters>NAN</DistanceMeters>
          </Trackpoint>
          <Trackpoint>
            <Time>2022-07-16T14:21:49.000Z</Time>
            <Position>
              <LatitudeDegrees>43.443272374570369720458984375</LatitudeDegrees>
              <LongitudeDegrees>-4.9844165705144405364990234375</LongitudeDegrees>
            </Position>
            <AltitudeMeters>48.59999847412109375</AltitudeMeters>
            <DistanceMeters>NAN</DistanceMeters>
          </Trackpoint>
          <Trackpoint>
            <Time>2022-07-16T14:21:53.000Z</Time>
            <Position>
              <LatitudeDegrees>43.44333951361477375030517578125</LatitudeDegrees>
              <LongitudeDegrees>-4.9844494275748729705810546875</LongitudeDegrees>
            </Position>
            <AltitudeMeters>49.200000762939453125</AltitudeMeters>
            <DistanceMeters>NAN</DistanceMeters>
          </Trackpoint>
          <Trackpoint>
            <Time>2022-07-16T14:21:57.000Z</Time>
            <Position>
              <LatitudeDegrees>43.4433999471366405487060546875</LatitudeDegrees>
              <LongitudeDegrees>-4.984492845833301544189453125</LongitudeDegrees>
            </Position>
            <AltitudeMeters>49.799999237060546875</AltitudeMeters>
            <DistanceMeters>NAN</DistanceMeters>
          </Trackpoint>
          <Trackpoint>
            <Time>2022-07-16T14:22:01.000Z</Time>
            <Position>
              <LatitudeDegrees>43.4434671700000762939453125</LatitudeDegrees>
              <LongitudeDegrees>-4.9845402874052524566650390625</LongitudeDegrees>
            </Position>
            <AltitudeMeters>50</AltitudeMeters>
            <DistanceMeters>NAN</DistanceMeters>
          </Trackpoint>
          <Trackpoint>
            <Time>2022-07-16T14:22:09.000Z</Time>
            <Position>
              <LatitudeDegrees>43.44359180890023708343505859375</LatitudeDegrees>
              <LongitudeDegrees>-4.98460181057453155517578125</LongitudeDegrees>
            </Position>
            <AltitudeMeters>50.799999237060546875</AltitudeMeters>
            <DistanceMeters>NAN</DistanceMeters>
          </Trackpoint>
          <Trackpoint>
            <Time>2022-07-16T14:22:11.000Z</Time>
            <Position>
              <LatitudeDegrees>43.4436148591339588165283203125</LatitudeDegrees>
              <LongitudeDegrees>-4.98461748473346233367919921875</LongitudeDegrees>
            </Position>
            <AltitudeMeters>51</AltitudeMeters>
            <DistanceMeters>NAN</DistanceMeters>
          </Trackpoint>
          <Trackpoint>
            <Time>2022-07-16T14:22:17.000Z</Time>
            <Position>
              <LatitudeDegrees>43.44367914833128452301025390625</LatitudeDegrees>
              <LongitudeDegrees>-4.9846680276095867156982421875</LongitudeDegrees>
            </Position>
            <AltitudeMeters>51.799999237060546875</AltitudeMeters>
            <DistanceMeters>NAN</DistanceMeters>
          </Trackpoint>
          <Trackpoint>
            <Time>2022-07-16T14:22:18.000Z</Time>
            <Position>
              <LatitudeDegrees>43.443690799176692962646484375</LatitudeDegrees>
              <LongitudeDegrees>-4.984675236046314239501953125</LongitudeDegrees>
            </Position>
            <AltitudeMeters>52</AltitudeMeters>
            <DistanceMeters>NAN</DistanceMeters>
          </Trackpoint>
          <Trackpoint>
            <Time>2022-07-16T14:22:23.000Z</Time>
            <Position>
              <LatitudeDegrees>43.44375944696366786956787109375</LatitudeDegrees>
              <LongitudeDegrees>-4.9847106076776981353759765625</LongitudeDegrees>
            </Position>
            <AltitudeMeters>52.799999237060546875</AltitudeMeters>
            <DistanceMeters>NAN</DistanceMeters>
          </Trackpoint>
          <Trackpoint>
            <Time>2022-07-16T14:22:26.000Z</Time>
            <Position>
              <LatitudeDegrees>43.44380068592727184295654296875</LatitudeDegrees>
              <LongitudeDegrees>-4.9847270362079143524169921875</LongitudeDegrees>
            </Position>
            <AltitudeMeters>53</AltitudeMeters>
            <DistanceMeters>NAN</DistanceMeters>
          </Trackpoint>
          <Trackpoint>
            <Time>2022-07-16T14:22:27.000Z</Time>
            <Position>
              <LatitudeDegrees>43.4438123367726802825927734375</LatitudeDegrees>
              <LongitudeDegrees>-4.98473231680691242218017578125</LongitudeDegrees>
            </Position>
            <AltitudeMeters>53</AltitudeMeters>
            <DistanceMeters>NAN</DistanceMeters>
          </Trackpoint>
          <Trackpoint>
            <Time>2022-07-16T14:22:28.000Z</Time>
            <Position>
              <LatitudeDegrees>43.44382381998002529144287109375</LatitudeDegrees>
              <LongitudeDegrees>-4.984733574092388153076171875</LongitudeDegrees>
            </Position>
            <AltitudeMeters>53.200000762939453125</AltitudeMeters>
            <DistanceMeters>NAN</DistanceMeters>
          </Trackpoint>
          <Trackpoint>
            <Time>2022-07-16T14:22:32.000Z</Time>
            <Position>
              <LatitudeDegrees>43.443863801658153533935546875</LatitudeDegrees>
              <LongitudeDegrees>-4.984730891883373260498046875</LongitudeDegrees>
            </Position>
            <AltitudeMeters>53.59999847412109375</AltitudeMeters>
            <DistanceMeters>NAN</DistanceMeters>
          </Trackpoint>
          <Trackpoint>
            <Time>2022-07-16T14:22:33.000Z</Time>
            <Position>
              <LatitudeDegrees>43.4438666515052318572998046875</LatitudeDegrees>
              <LongitudeDegrees>-4.98472929932177066802978515625</LongitudeDegrees>
            </Position>
            <AltitudeMeters>53.59999847412109375</AltitudeMeters>
            <DistanceMeters>NAN</DistanceMeters>
          </Trackpoint>
          <Trackpoint>
            <Time>2022-07-16T14:22:34.000Z</Time>
            <Position>
              <LatitudeDegrees>43.4438666515052318572998046875</LatitudeDegrees>
              <LongitudeDegrees>-4.98472929932177066802978515625</LongitudeDegrees>
            </Position>
            <AltitudeMeters>53.59999847412109375</AltitudeMeters>
            <DistanceMeters>NAN</DistanceMeters>
          </Trackpoint>
          <Trackpoint>
            <Time>2022-07-16T14:24:38.000Z</Time>
            <Position>
              <LatitudeDegrees>43.44388626515865325927734375</LatitudeDegrees>
              <LongitudeDegrees>-4.98474304564297199249267578125</LongitudeDegrees>
            </Position>
            <AltitudeMeters>53</AltitudeMeters>
            <DistanceMeters>NAN</DistanceMeters>
          </Trackpoint>
          <Trackpoint>
            <Time>2022-07-16T14:24:39.000Z</Time>
            <Position>
              <LatitudeDegrees>43.44390294514596462249755859375</LatitudeDegrees>
              <LongitudeDegrees>-4.98475293628871440887451171875</LongitudeDegrees>
            </Position>
            <AltitudeMeters>53</AltitudeMeters>
            <DistanceMeters>NAN</DistanceMeters>
          </Trackpoint>
          <Trackpoint>
            <Time>2022-07-16T14:24:40.000Z</Time>
            <Position>
              <LatitudeDegrees>43.4439199604094028472900390625</LatitudeDegrees>
              <LongitudeDegrees>-4.98476408421993255615234375</LongitudeDegrees>
            </Position>
            <AltitudeMeters>53</AltitudeMeters>
            <DistanceMeters>NAN</DistanceMeters>
          </Trackpoint>
          <Trackpoint>
            <Time>2022-07-16T14:24:44.000Z</Time>
            <Position>
              <LatitudeDegrees>43.4439875185489654541015625</LatitudeDegrees>
              <LongitudeDegrees>-4.98479350470006465911865234375</LongitudeDegrees>
            </Position>
            <AltitudeMeters>54.200000762939453125</AltitudeMeters>
            <DistanceMeters>NAN</DistanceMeters>
          </Trackpoint>
          <Trackpoint>
            <Time>2022-07-16T14:24:47.000Z</Time>
            <Position>
              <LatitudeDegrees>43.44403353519737720489501953125</LatitudeDegrees>
              <LongitudeDegrees>-4.98481412418186664581298828125</LongitudeDegrees>
            </Position>
            <AltitudeMeters>54.59999847412109375</AltitudeMeters>
            <DistanceMeters>NAN</DistanceMeters>
          </Trackpoint>
          <Trackpoint>
            <Time>2022-07-16T14:24:48.000Z</Time>
            <Position>
              <LatitudeDegrees>43.44404594041407108306884765625</LatitudeDegrees>
              <LongitudeDegrees>-4.98482233844697475433349609375</LongitudeDegrees>
            </Position>
            <AltitudeMeters>54.59999847412109375</AltitudeMeters>
            <DistanceMeters>NAN</DistanceMeters>
          </Trackpoint>
          <Trackpoint>
            <Time>2022-07-16T14:24:51.000Z</Time>
            <Position>
              <LatitudeDegrees>43.44407611526548862457275390625</LatitudeDegrees>
              <LongitudeDegrees>-4.98484413139522075653076171875</LongitudeDegrees>
            </Position>
            <AltitudeMeters>54.799999237060546875</AltitudeMeters>
            <DistanceMeters>NAN</DistanceMeters>
          </Trackpoint>
          <Trackpoint>
            <Time>2022-07-16T14:24:53.000Z</Time>
            <Position>
              <LatitudeDegrees>43.4440859220921993255615234375</LatitudeDegrees>
              <LongitudeDegrees>-4.98487271368503570556640625</LongitudeDegrees>
            </Position>
            <AltitudeMeters>55.200000762939453125</AltitudeMeters>
            <DistanceMeters>NAN</DistanceMeters>
          </Trackpoint>
          <Trackpoint>
            <Time>2022-07-16T14:24:54.000Z</Time>
            <Position>
              <LatitudeDegrees>43.44408717937767505645751953125</LatitudeDegrees>
              <LongitudeDegrees>-4.9848893098533153533935546875</LongitudeDegrees>
            </Position>
            <AltitudeMeters>55.40000152587890625</AltitudeMeters>
            <DistanceMeters>NAN</DistanceMeters>
          </Trackpoint>
          <Trackpoint>
            <Time>2022-07-16T14:24:59.000Z</Time>
            <Position>
              <LatitudeDegrees>43.444083072245121002197265625</LatitudeDegrees>
              <LongitudeDegrees>-4.98495326377451419830322265625</LongitudeDegrees>
            </Position>
            <AltitudeMeters>56</AltitudeMeters>
            <DistanceMeters>NAN</DistanceMeters>
          </Trackpoint>
          <Trackpoint>
            <Time>2022-07-16T14:25:01.000Z</Time>
            <Position>
              <LatitudeDegrees>43.4440849162638187408447265625</LatitudeDegrees>
              <LongitudeDegrees>-4.98497589491307735443115234375</LongitudeDegrees>
            </Position>
            <AltitudeMeters>56.200000762939453125</AltitudeMeters>
            <DistanceMeters>NAN</DistanceMeters>
          </Trackpoint>
          <Trackpoint>
            <Time>2022-07-16T14:25:02.000Z</Time>
            <Position>
              <LatitudeDegrees>43.44408583827316761016845703125</LatitudeDegrees>
              <LongitudeDegrees>-4.98498192988336086273193359375</LongitudeDegrees>
            </Position>
            <AltitudeMeters>56.200000762939453125</AltitudeMeters>
            <DistanceMeters>NAN</DistanceMeters>
          </Trackpoint>
          <Trackpoint>
            <Time>2022-07-16T14:25:04.000Z</Time>
            <Position>
              <LatitudeDegrees>43.44408583827316761016845703125</LatitudeDegrees>
              <LongitudeDegrees>-4.98498192988336086273193359375</LongitudeDegrees>
            </Position>
            <AltitudeMeters>56.200000762939453125</AltitudeMeters>
            <DistanceMeters>NAN</DistanceMeters>
          </Trackpoint>
          <Trackpoint>
            <Time>2022-07-16T14:25:57.000Z</Time>
            <Position>
              <LatitudeDegrees>43.44404585659503936767578125</LatitudeDegrees>
              <LongitudeDegrees>-4.9850079976022243499755859375</LongitudeDegrees>
            </Position>
            <AltitudeMeters>56</AltitudeMeters>
            <DistanceMeters>NAN</DistanceMeters>
          </Trackpoint>
          <Trackpoint>
            <Time>2022-07-16T14:25:58.000Z</Time>
            <Position>
              <LatitudeDegrees>43.44404585659503936767578125</LatitudeDegrees>
              <LongitudeDegrees>-4.9850079976022243499755859375</LongitudeDegrees>
            </Position>
            <AltitudeMeters>56</AltitudeMeters>
            <DistanceMeters>NAN</DistanceMeters>
          </Trackpoint>
          <Trackpoint>
            <Time>2022-07-16T14:25:59.000Z</Time>
            <Position>
              <LatitudeDegrees>43.44404585659503936767578125</LatitudeDegrees>
              <LongitudeDegrees>-4.9850079976022243499755859375</LongitudeDegrees>
            </Position>
            <AltitudeMeters>56</AltitudeMeters>
            <DistanceMeters>NAN</DistanceMeters>
          </Trackpoint>
          <Trackpoint>
            <Time>2022-07-16T14:30:27.000Z</Time>
            <Position>
              <LatitudeDegrees>43.44402414746582508087158203125</LatitudeDegrees>
              <LongitudeDegrees>-4.9850830994546413421630859375</LongitudeDegrees>
            </Position>
            <AltitudeMeters>55.799999237060546875</AltitudeMeters>
            <DistanceMeters>NAN</DistanceMeters>
          </Trackpoint>
          <Trackpoint>
            <Time>2022-07-16T14:30:29.000Z</Time>
            <Position>
              <LatitudeDegrees>43.44400268979370594024658203125</LatitudeDegrees>
              <LongitudeDegrees>-4.9851390905678272247314453125</LongitudeDegrees>
            </Position>
            <AltitudeMeters>55.799999237060546875</AltitudeMeters>
            <DistanceMeters>NAN</DistanceMeters>
          </Trackpoint>
          <Trackpoint>
            <Time>2022-07-16T14:30:36.000Z</Time>
            <Position>
              <LatitudeDegrees>43.4439216367900371551513671875</LatitudeDegrees>
              <LongitudeDegrees>-4.98534687794744968414306640625</LongitudeDegrees>
            </Position>
            <AltitudeMeters>55.59999847412109375</AltitudeMeters>
            <DistanceMeters>NAN</DistanceMeters>
          </Trackpoint>
          <Trackpoint>
            <Time>2022-07-16T14:30:41.000Z</Time>
            <Position>
              <LatitudeDegrees>43.44394686631858348846435546875</LatitudeDegrees>
              <LongitudeDegrees>-4.98548668809235095977783203125</LongitudeDegrees>
            </Position>
            <AltitudeMeters>56</AltitudeMeters>
            <DistanceMeters>NAN</DistanceMeters>
          </Trackpoint>
          <Trackpoint>
            <Time>2022-07-16T14:30:49.000Z</Time>
            <Position>
              <LatitudeDegrees>43.443989865481853485107421875</LatitudeDegrees>
              <LongitudeDegrees>-4.98565013520419597625732421875</LongitudeDegrees>
            </Position>
            <AltitudeMeters>56.799999237060546875</AltitudeMeters>
            <DistanceMeters>NAN</DistanceMeters>
          </Trackpoint>
          <Trackpoint>
            <Time>2022-07-16T14:30:50.000Z</Time>
            <Position>
              <LatitudeDegrees>43.44399782828986644744873046875</LatitudeDegrees>
              <LongitudeDegrees>-4.98567360453307628631591796875</LongitudeDegrees>
            </Position>
            <AltitudeMeters>56.799999237060546875</AltitudeMeters>
            <DistanceMeters>NAN</DistanceMeters>
          </Trackpoint>
          <Trackpoint>
            <Time>2022-07-16T14:30:55.000Z</Time>
            <Position>
              <LatitudeDegrees>43.4440242312848567962646484375</LatitudeDegrees>
              <LongitudeDegrees>-4.9857875145971775054931640625</LongitudeDegrees>
            </Position>
            <AltitudeMeters>57.200000762939453125</AltitudeMeters>
            <DistanceMeters>NAN</DistanceMeters>
          </Trackpoint>
          <Trackpoint>
            <Time>2022-07-16T14:30:57.000Z</Time>
            <Position>
              <LatitudeDegrees>43.44403001479804515838623046875</LatitudeDegrees>
              <LongitudeDegrees>-4.9858294241130352020263671875</LongitudeDegrees>
            </Position>
            <AltitudeMeters>57.40000152587890625</AltitudeMeters>
            <DistanceMeters>NAN</DistanceMeters>
          </Trackpoint>
          <Trackpoint>
            <Time>2022-07-16T14:31:00.000Z</Time>
            <Position>
              <LatitudeDegrees>43.4440492093563079833984375</LatitudeDegrees>
              <LongitudeDegrees>-4.98590142466127872467041015625</LongitudeDegrees>
            </Position>
            <AltitudeMeters>57.59999847412109375</AltitudeMeters>
            <DistanceMeters>NAN</DistanceMeters>
          </Trackpoint>
          <Trackpoint>
            <Time>2022-07-16T14:31:01.000Z</Time>
            <Position>
              <LatitudeDegrees>43.4440554119646549224853515625</LatitudeDegrees>
              <LongitudeDegrees>-4.9859249778091907501220703125</LongitudeDegrees>
            </Position>
            <AltitudeMeters>57.59999847412109375</AltitudeMeters>
            <DistanceMeters>NAN</DistanceMeters>
          </Trackpoint>
          <Trackpoint>
            <Time>2022-07-16T14:31:03.000Z</Time>
            <Position>
              <LatitudeDegrees>43.44406194984912872314453125</LatitudeDegrees>
              <LongitudeDegrees>-4.9859849922358989715576171875</LongitudeDegrees>
            </Position>
            <AltitudeMeters>57.59999847412109375</AltitudeMeters>
            <DistanceMeters>NAN</DistanceMeters>
          </Trackpoint>
          <Trackpoint>
            <Time>2022-07-16T14:31:05.000Z</Time>
            <Position>
              <LatitudeDegrees>43.4440544061362743377685546875</LatitudeDegrees>
              <LongitudeDegrees>-4.98605422675609588623046875</LongitudeDegrees>
            </Position>
            <AltitudeMeters>57.59999847412109375</AltitudeMeters>
            <DistanceMeters>NAN</DistanceMeters>
          </Trackpoint>
          <Trackpoint>
            <Time>2022-07-16T14:31:07.000Z</Time>
            <Position>
              <LatitudeDegrees>43.4440574236214160919189453125</LatitudeDegrees>
              <LongitudeDegrees>-4.9861147440969944000244140625</LongitudeDegrees>
            </Position>
            <AltitudeMeters>57.59999847412109375</AltitudeMeters>
            <DistanceMeters>NAN</DistanceMeters>
          </Trackpoint>
          <Trackpoint>
            <Time>2022-07-16T14:31:13.000Z</Time>
            <Position>
              <LatitudeDegrees>43.44407293014228343963623046875</LatitudeDegrees>
              <LongitudeDegrees>-4.98634298332035541534423828125</LongitudeDegrees>
            </Position>
            <AltitudeMeters>57.40000152587890625</AltitudeMeters>
            <DistanceMeters>NAN</DistanceMeters>
          </Trackpoint>
          <Trackpoint>
            <Time>2022-07-16T14:31:14.000Z</Time>
            <Position>
              <LatitudeDegrees>43.4440788812935352325439453125</LatitudeDegrees>
              <LongitudeDegrees>-4.98638388700783252716064453125</LongitudeDegrees>
            </Position>
            <AltitudeMeters>57.40000152587890625</AltitudeMeters>
            <DistanceMeters>NAN</DistanceMeters>
          </Trackpoint>
          <Trackpoint>
            <Time>2022-07-16T14:31:19.000Z</Time>
            <Position>
              <LatitudeDegrees>43.44409019686281681060791015625</LatitudeDegrees>
              <LongitudeDegrees>-4.98658438213169574737548828125</LongitudeDegrees>
            </Position>
            <AltitudeMeters>57.200000762939453125</AltitudeMeters>
            <DistanceMeters>NAN</DistanceMeters>
          </Trackpoint>
          <Trackpoint>
            <Time>2022-07-16T14:31:21.000Z</Time>
            <Position>
              <LatitudeDegrees>43.44409137032926082611083984375</LatitudeDegrees>
              <LongitudeDegrees>-4.98666484840214252471923828125</LongitudeDegrees>
            </Position>
            <AltitudeMeters>57.200000762939453125</AltitudeMeters>
            <DistanceMeters>NAN</DistanceMeters>
          </Trackpoint>
          <Trackpoint>
            <Time>2022-07-16T14:31:31.000Z</Time>
            <Position>
              <LatitudeDegrees>43.44409137032926082611083984375</LatitudeDegrees>
              <LongitudeDegrees>-4.9870840273797512054443359375</LongitudeDegrees>
            </Position>
            <AltitudeMeters>57.40000152587890625</AltitudeMeters>
            <DistanceMeters>NAN</DistanceMeters>
          </Trackpoint>
          <Trackpoint>
            <Time>2022-07-16T14:31:34.000Z</Time>
            <Position>
              <LatitudeDegrees>43.44409505836665630340576171875</LatitudeDegrees>
              <LongitudeDegrees>-4.98721470125019550323486328125</LongitudeDegrees>
            </Position>
            <AltitudeMeters>57.40000152587890625</AltitudeMeters>
            <DistanceMeters>NAN</DistanceMeters>
          </Trackpoint>
          <Trackpoint>
            <Time>2022-07-16T14:31:38.000Z</Time>
            <Position>
              <LatitudeDegrees>43.44413302838802337646484375</LatitudeDegrees>
              <LongitudeDegrees>-4.98738057911396026611328125</LongitudeDegrees>
            </Position>
            <AltitudeMeters>57.40000152587890625</AltitudeMeters>
            <DistanceMeters>NAN</DistanceMeters>
          </Trackpoint>
          <Trackpoint>
            <Time>2022-07-16T14:31:42.000Z</Time>
            <Position>
              <LatitudeDegrees>43.4442139975726604461669921875</LatitudeDegrees>
              <LongitudeDegrees>-4.98750974424183368682861328125</LongitudeDegrees>
            </Position>
            <AltitudeMeters>57.40000152587890625</AltitudeMeters>
            <DistanceMeters>NAN</DistanceMeters>
          </Trackpoint>
          <Trackpoint>
            <Time>2022-07-16T14:31:45.000Z</Time>
            <Position>
              <LatitudeDegrees>43.44426713883876800537109375</LatitudeDegrees>
              <LongitudeDegrees>-4.98760261572897434234619140625</LongitudeDegrees>
            </Position>
            <AltitudeMeters>57.40000152587890625</AltitudeMeters>
            <DistanceMeters>NAN</DistanceMeters>
          </Trackpoint>
          <Trackpoint>
            <Time>2022-07-16T14:31:51.000Z</Time>
            <Position>
              <LatitudeDegrees>43.44434835948050022125244140625</LatitudeDegrees>
              <LongitudeDegrees>-4.98779372312128543853759765625</LongitudeDegrees>
            </Position>
            <AltitudeMeters>57.200000762939453125</AltitudeMeters>
            <DistanceMeters>NAN</DistanceMeters>
          </Trackpoint>
          <Trackpoint>
            <Time>2022-07-16T14:31:58.000Z</Time>
            <Position>
              <LatitudeDegrees>43.44446570612490177154541015625</LatitudeDegrees>
              <LongitudeDegrees>-4.98807133175432682037353515625</LongitudeDegrees>
            </Position>
            <AltitudeMeters>57</AltitudeMeters>
            <DistanceMeters>NAN</DistanceMeters>
          </Trackpoint>
          <Trackpoint>
            <Time>2022-07-16T14:31:59.000Z</Time>
            <Position>
              <LatitudeDegrees>43.44448439776897430419921875</LatitudeDegrees>
              <LongitudeDegrees>-4.988125227391719818115234375</LongitudeDegrees>
            </Position>
            <AltitudeMeters>56.799999237060546875</AltitudeMeters>
            <DistanceMeters>NAN</DistanceMeters>
          </Trackpoint>
          <Trackpoint>
            <Time>2022-07-16T14:32:01.000Z</Time>
            <Position>
              <LatitudeDegrees>43.44452890567481517791748046875</LatitudeDegrees>
              <LongitudeDegrees>-4.98824651353061199188232421875</LongitudeDegrees>
            </Position>
            <AltitudeMeters>56.59999847412109375</AltitudeMeters>
            <DistanceMeters>NAN</DistanceMeters>
          </Trackpoint>
          <Trackpoint>
            <Time>2022-07-16T14:32:02.000Z</Time>
            <Position>
              <LatitudeDegrees>43.44455187208950519561767578125</LatitudeDegrees>
              <LongitudeDegrees>-4.9883148260414600372314453125</LongitudeDegrees>
            </Position>
            <AltitudeMeters>56.200000762939453125</AltitudeMeters>
            <DistanceMeters>NAN</DistanceMeters>
          </Trackpoint>
          <Trackpoint>
            <Time>2022-07-16T14:32:04.000Z</Time>
            <Position>
              <LatitudeDegrees>43.44459612853825092315673828125</LatitudeDegrees>
              <LongitudeDegrees>-4.98847265727818012237548828125</LongitudeDegrees>
            </Position>
            <AltitudeMeters>55.799999237060546875</AltitudeMeters>
            <DistanceMeters>NAN</DistanceMeters>
          </Trackpoint>
          <Trackpoint>
            <Time>2022-07-16T14:32:06.000Z</Time>
            <Position>
              <LatitudeDegrees>43.4446404688060283660888671875</LatitudeDegrees>
              <LongitudeDegrees>-4.9886365234851837158203125</LongitudeDegrees>
            </Position>
            <AltitudeMeters>55.200000762939453125</AltitudeMeters>
            <DistanceMeters>NAN</DistanceMeters>
          </Trackpoint>
          <Trackpoint>
            <Time>2022-07-16T14:32:11.000Z</Time>
            <Position>
              <LatitudeDegrees>43.4447199292480945587158203125</LatitudeDegrees>
              <LongitudeDegrees>-4.989062659442424774169921875</LongitudeDegrees>
            </Position>
            <AltitudeMeters>54</AltitudeMeters>
            <DistanceMeters>NAN</DistanceMeters>
          </Trackpoint>
          <Trackpoint>
            <Time>2022-07-16T14:32:16.000Z</Time>
            <Position>
              <LatitudeDegrees>43.4448295645415782928466796875</LatitudeDegrees>
              <LongitudeDegrees>-4.98943322338163852691650390625</LongitudeDegrees>
            </Position>
            <AltitudeMeters>53.799999237060546875</AltitudeMeters>
            <DistanceMeters>NAN</DistanceMeters>
          </Trackpoint>
          <Trackpoint>
            <Time>2022-07-16T14:32:23.000Z</Time>
            <Position>
              <LatitudeDegrees>43.44495822675526142120361328125</LatitudeDegrees>
              <LongitudeDegrees>-4.9898570962250232696533203125</LongitudeDegrees>
            </Position>
            <AltitudeMeters>53.40000152587890625</AltitudeMeters>
            <DistanceMeters>NAN</DistanceMeters>
          </Trackpoint>
          <Trackpoint>
            <Time>2022-07-16T14:32:25.000Z</Time>
            <Position>
              <LatitudeDegrees>43.44497968442738056182861328125</LatitudeDegrees>
              <LongitudeDegrees>-4.98996580950915813446044921875</LongitudeDegrees>
            </Position>
            <AltitudeMeters>53.40000152587890625</AltitudeMeters>
            <DistanceMeters>NAN</DistanceMeters>
          </Trackpoint>
          <Trackpoint>
            <Time>2022-07-16T14:32:29.000Z</Time>
            <Position>
              <LatitudeDegrees>43.44500332139432430267333984375</LatitudeDegrees>
              <LongitudeDegrees>-4.99019999988377094268798828125</LongitudeDegrees>
            </Position>
            <AltitudeMeters>53.40000152587890625</AltitudeMeters>
            <DistanceMeters>NAN</DistanceMeters>
          </Trackpoint>
          <Trackpoint>
            <Time>2022-07-16T14:32:32.000Z</Time>
            <Position>
              <LatitudeDegrees>43.44500583596527576446533203125</LatitudeDegrees>
              <LongitudeDegrees>-4.990370906889438629150390625</LongitudeDegrees>
            </Position>
            <AltitudeMeters>53.200000762939453125</AltitudeMeters>
            <DistanceMeters>NAN</DistanceMeters>
          </Trackpoint>
          <Trackpoint>
            <Time>2022-07-16T14:32:34.000Z</Time>
            <Position>
              <LatitudeDegrees>43.4449918381869792938232421875</LatitudeDegrees>
              <LongitudeDegrees>-4.9904887564480304718017578125</LongitudeDegrees>
            </Position>
            <AltitudeMeters>53</AltitudeMeters>
            <DistanceMeters>NAN</DistanceMeters>
          </Trackpoint>
          <Trackpoint>
            <Time>2022-07-16T14:32:35.000Z</Time>
            <Position>
              <LatitudeDegrees>43.4449881501495838165283203125</LatitudeDegrees>
              <LongitudeDegrees>-4.99054952524602413177490234375</LongitudeDegrees>
            </Position>
            <AltitudeMeters>52.799999237060546875</AltitudeMeters>
            <DistanceMeters>NAN</DistanceMeters>
          </Trackpoint>
          <Trackpoint>
            <Time>2022-07-16T14:32:42.000Z</Time>
            <Position>
              <LatitudeDegrees>43.44498462975025177001953125</LatitudeDegrees>
              <LongitudeDegrees>-4.9909950233995914459228515625</LongitudeDegrees>
            </Position>
            <AltitudeMeters>51.799999237060546875</AltitudeMeters>
            <DistanceMeters>NAN</DistanceMeters>
          </Trackpoint>
          <Trackpoint>
            <Time>2022-07-16T14:32:43.000Z</Time>
            <Position>
              <LatitudeDegrees>43.44498856924474239349365234375</LatitudeDegrees>
              <LongitudeDegrees>-4.9910429678857326507568359375</LongitudeDegrees>
            </Position>
            <AltitudeMeters>51.799999237060546875</AltitudeMeters>
            <DistanceMeters>NAN</DistanceMeters>
          </Trackpoint>
          <Trackpoint>
            <Time>2022-07-16T14:32:44.000Z</Time>
            <Position>
              <LatitudeDegrees>43.44499401748180389404296875</LatitudeDegrees>
              <LongitudeDegrees>-4.9910751543939113616943359375</LongitudeDegrees>
            </Position>
            <AltitudeMeters>51.59999847412109375</AltitudeMeters>
            <DistanceMeters>NAN</DistanceMeters>
          </Trackpoint>
          <Trackpoint>
            <Time>2022-07-16T14:32:45.000Z</Time>
            <Position>
              <LatitudeDegrees>43.4450025670230388641357421875</LatitudeDegrees>
              <LongitudeDegrees>-4.99109384603798389434814453125</LongitudeDegrees>
            </Position>
            <AltitudeMeters>51.40000152587890625</AltitudeMeters>
            <DistanceMeters>NAN</DistanceMeters>
          </Trackpoint>
          <Trackpoint>
            <Time>2022-07-16T14:32:47.000Z</Time>
            <Position>
              <LatitudeDegrees>43.44501639716327190399169921875</LatitudeDegrees>
              <LongitudeDegrees>-4.99110474251210689544677734375</LongitudeDegrees>
            </Position>
            <AltitudeMeters>51</AltitudeMeters>
            <DistanceMeters>NAN</DistanceMeters>
          </Trackpoint>
          <Trackpoint>
            <Time>2022-07-16T14:32:48.000Z</Time>
            <Position>
              <LatitudeDegrees>43.44501639716327190399169921875</LatitudeDegrees>
              <LongitudeDegrees>-4.99110474251210689544677734375</LongitudeDegrees>
            </Position>
            <AltitudeMeters>50.799999237060546875</AltitudeMeters>
            <DistanceMeters>NAN</DistanceMeters>
          </Trackpoint>
          <Trackpoint>
            <Time>2022-07-16T14:33:19.000Z</Time>
            <Position>
              <LatitudeDegrees>43.445008434355258941650390625</LatitudeDegrees>
              <LongitudeDegrees>-4.99117800034582614898681640625</LongitudeDegrees>
            </Position>
            <AltitudeMeters>50.799999237060546875</AltitudeMeters>
            <DistanceMeters>NAN</DistanceMeters>
          </Trackpoint>
          <Trackpoint>
            <Time>2022-07-16T14:33:21.000Z</Time>
            <Position>
              <LatitudeDegrees>43.4450025670230388641357421875</LatitudeDegrees>
              <LongitudeDegrees>-4.9912236817181110382080078125</LongitudeDegrees>
            </Position>
            <AltitudeMeters>50.799999237060546875</AltitudeMeters>
            <DistanceMeters>NAN</DistanceMeters>
          </Trackpoint>
          <Trackpoint>
            <Time>2022-07-16T14:33:26.000Z</Time>
            <Position>
              <LatitudeDegrees>43.44499460421502590179443359375</LatitudeDegrees>
              <LongitudeDegrees>-4.99138872139155864715576171875</LongitudeDegrees>
            </Position>
            <AltitudeMeters>50.40000152587890625</AltitudeMeters>
            <DistanceMeters>NAN</DistanceMeters>
          </Trackpoint>
          <Trackpoint>
            <Time>2022-07-16T14:33:31.000Z</Time>
            <Position>
              <LatitudeDegrees>43.4450094401836395263671875</LatitudeDegrees>
              <LongitudeDegrees>-4.99150472693145275115966796875</LongitudeDegrees>
            </Position>
            <AltitudeMeters>50.40000152587890625</AltitudeMeters>
            <DistanceMeters>NAN</DistanceMeters>
          </Trackpoint>
          <Trackpoint>
            <Time>2022-07-16T14:33:40.000Z</Time>
            <Position>
              <LatitudeDegrees>43.44507238827645778656005859375</LatitudeDegrees>
              <LongitudeDegrees>-4.99169348739087581634521484375</LongitudeDegrees>
            </Position>
            <AltitudeMeters>50</AltitudeMeters>
            <DistanceMeters>NAN</DistanceMeters>
          </Trackpoint>
          <Trackpoint>
            <Time>2022-07-16T14:33:44.000Z</Time>
            <Position>
              <LatitudeDegrees>43.44512469135224819183349609375</LatitudeDegrees>
              <LongitudeDegrees>-4.99181770719587802886962890625</LongitudeDegrees>
            </Position>
            <AltitudeMeters>49.799999237060546875</AltitudeMeters>
            <DistanceMeters>NAN</DistanceMeters>
          </Trackpoint>
          <Trackpoint>
            <Time>2022-07-16T14:33:45.000Z</Time>
            <Position>
              <LatitudeDegrees>43.445140533149242401123046875</LatitudeDegrees>
              <LongitudeDegrees>-4.99185726977884769439697265625</LongitudeDegrees>
            </Position>
            <AltitudeMeters>49.799999237060546875</AltitudeMeters>
            <DistanceMeters>NAN</DistanceMeters>
          </Trackpoint>
          <Trackpoint>
            <Time>2022-07-16T14:33:53.000Z</Time>
            <Position>
              <LatitudeDegrees>43.445279337465763092041015625</LatitudeDegrees>
              <LongitudeDegrees>-4.99215080402791500091552734375</LongitudeDegrees>
            </Position>
            <AltitudeMeters>48.59999847412109375</AltitudeMeters>
            <DistanceMeters>NAN</DistanceMeters>
          </Trackpoint>
          <Trackpoint>
            <Time>2022-07-16T14:33:57.000Z</Time>
            <Position>
              <LatitudeDegrees>43.44540565274655818939208984375</LatitudeDegrees>
              <LongitudeDegrees>-4.99217511154711246490478515625</LongitudeDegrees>
            </Position>
            <AltitudeMeters>48.200000762939453125</AltitudeMeters>
            <DistanceMeters>NAN</DistanceMeters>
          </Trackpoint>
          <Trackpoint>
            <Time>2022-07-16T14:34:00.000Z</Time>
            <Position>
              <LatitudeDegrees>43.44553339295089244842529296875</LatitudeDegrees>
              <LongitudeDegrees>-4.99215222895145416259765625</LongitudeDegrees>
            </Position>
            <AltitudeMeters>47.59999847412109375</AltitudeMeters>
            <DistanceMeters>NAN</DistanceMeters>
          </Trackpoint>
          <Trackpoint>
            <Time>2022-07-16T14:34:02.000Z</Time>
            <Position>
              <LatitudeDegrees>43.445634730160236358642578125</LatitudeDegrees>
              <LongitudeDegrees>-4.9921363033354282379150390625</LongitudeDegrees>
            </Position>
            <AltitudeMeters>47.40000152587890625</AltitudeMeters>
            <DistanceMeters>NAN</DistanceMeters>
          </Trackpoint>
          <Trackpoint>
            <Time>2022-07-16T14:34:06.000Z</Time>
            <Position>
              <LatitudeDegrees>43.44586397521197795867919921875</LatitudeDegrees>
              <LongitudeDegrees>-4.992113001644611358642578125</LongitudeDegrees>
            </Position>
            <AltitudeMeters>46.59999847412109375</AltitudeMeters>
            <DistanceMeters>NAN</DistanceMeters>
          </Trackpoint>
          <Trackpoint>
            <Time>2022-07-16T14:34:08.000Z</Time>
            <Position>
              <LatitudeDegrees>43.44599121250212192535400390625</LatitudeDegrees>
              <LongitudeDegrees>-4.99209213070571422576904296875</LongitudeDegrees>
            </Position>
            <AltitudeMeters>46.200000762939453125</AltitudeMeters>
            <DistanceMeters>NAN</DistanceMeters>
          </Trackpoint>
          <Trackpoint>
            <Time>2022-07-16T14:34:11.000Z</Time>
            <Position>
              <LatitudeDegrees>43.44617527909576892852783203125</LatitudeDegrees>
              <LongitudeDegrees>-4.99208592809736728668212890625</LongitudeDegrees>
            </Position>
            <AltitudeMeters>45.40000152587890625</AltitudeMeters>
            <DistanceMeters>NAN</DistanceMeters>
          </Trackpoint>
          <Trackpoint>
            <Time>2022-07-16T14:34:13.000Z</Time>
            <Position>
              <LatitudeDegrees>43.446281142532825469970703125</LatitudeDegrees>
              <LongitudeDegrees>-4.9921181984245777130126953125</LongitudeDegrees>
            </Position>
            <AltitudeMeters>44.59999847412109375</AltitudeMeters>
            <DistanceMeters>NAN</DistanceMeters>
          </Trackpoint>
          <Trackpoint>
            <Time>2022-07-16T14:34:14.000Z</Time>
            <Position>
              <LatitudeDegrees>43.44632179476320743560791015625</LatitudeDegrees>
              <LongitudeDegrees>-4.99215784482657909393310546875</LongitudeDegrees>
            </Position>
            <AltitudeMeters>44.200000762939453125</AltitudeMeters>
            <DistanceMeters>NAN</DistanceMeters>
          </Trackpoint>
          <Trackpoint>
            <Time>2022-07-16T14:34:15.000Z</Time>
            <Position>
              <LatitudeDegrees>43.44634962268173694610595703125</LatitudeDegrees>
              <LongitudeDegrees>-4.99221584759652614593505859375</LongitudeDegrees>
            </Position>
            <AltitudeMeters>44</AltitudeMeters>
            <DistanceMeters>NAN</DistanceMeters>
          </Trackpoint>
          <Trackpoint>
            <Time>2022-07-16T14:34:16.000Z</Time>
            <Position>
              <LatitudeDegrees>43.44636839814484119415283203125</LatitudeDegrees>
              <LongitudeDegrees>-4.99228726141154766082763671875</LongitudeDegrees>
            </Position>
            <AltitudeMeters>43.799999237060546875</AltitudeMeters>
            <DistanceMeters>NAN</DistanceMeters>
          </Trackpoint>
          <Trackpoint>
            <Time>2022-07-16T14:34:19.000Z</Time>
            <Position>
              <LatitudeDegrees>43.44641701318323612213134765625</LatitudeDegrees>
              <LongitudeDegrees>-4.9925042688846588134765625</LongitudeDegrees>
            </Position>
            <AltitudeMeters>43.200000762939453125</AltitudeMeters>
            <DistanceMeters>NAN</DistanceMeters>
          </Trackpoint>
          <Trackpoint>
            <Time>2022-07-16T14:34:25.000Z</Time>
            <Position>
              <LatitudeDegrees>43.446516506373882293701171875</LatitudeDegrees>
              <LongitudeDegrees>-4.99289561994373798370361328125</LongitudeDegrees>
            </Position>
            <AltitudeMeters>42.59999847412109375</AltitudeMeters>
            <DistanceMeters>NAN</DistanceMeters>
          </Trackpoint>
          <Trackpoint>
            <Time>2022-07-16T14:34:26.000Z</Time>
            <Position>
              <LatitudeDegrees>43.446530587971210479736328125</LatitudeDegrees>
              <LongitudeDegrees>-4.9929580651223659515380859375</LongitudeDegrees>
            </Position>
            <AltitudeMeters>42.59999847412109375</AltitudeMeters>
            <DistanceMeters>NAN</DistanceMeters>
          </Trackpoint>
          <Trackpoint>
            <Time>2022-07-16T14:34:34.000Z</Time>
            <Position>
              <LatitudeDegrees>43.44664617441594600677490234375</LatitudeDegrees>
              <LongitudeDegrees>-4.99342887662351131439208984375</LongitudeDegrees>
            </Position>
            <AltitudeMeters>42.40000152587890625</AltitudeMeters>
            <DistanceMeters>NAN</DistanceMeters>
          </Trackpoint>
          <Trackpoint>
            <Time>2022-07-16T14:34:36.000Z</Time>
            <Position>
              <LatitudeDegrees>43.4466762654483318328857421875</LatitudeDegrees>
              <LongitudeDegrees>-4.99353063292801380157470703125</LongitudeDegrees>
            </Position>
            <AltitudeMeters>42.59999847412109375</AltitudeMeters>
            <DistanceMeters>NAN</DistanceMeters>
          </Trackpoint>
          <Trackpoint>
            <Time>2022-07-16T14:34:42.000Z</Time>
            <Position>
              <LatitudeDegrees>43.44673267565667629241943359375</LatitudeDegrees>
              <LongitudeDegrees>-4.9938237480819225311279296875</LongitudeDegrees>
            </Position>
            <AltitudeMeters>42.799999237060546875</AltitudeMeters>
            <DistanceMeters>NAN</DistanceMeters>
          </Trackpoint>
          <Trackpoint>
            <Time>2022-07-16T14:34:43.000Z</Time>
            <Position>
              <LatitudeDegrees>43.44674122519791126251220703125</LatitudeDegrees>
              <LongitudeDegrees>-4.99386406503617763519287109375</LongitudeDegrees>
            </Position>
            <AltitudeMeters>42.799999237060546875</AltitudeMeters>
            <DistanceMeters>NAN</DistanceMeters>
          </Trackpoint>
          <Trackpoint>
            <Time>2022-07-16T14:34:50.000Z</Time>
            <Position>
              <LatitudeDegrees>43.4467657841742038726806640625</LatitudeDegrees>
              <LongitudeDegrees>-4.994123317301273345947265625</LongitudeDegrees>
            </Position>
            <AltitudeMeters>43.40000152587890625</AltitudeMeters>
            <DistanceMeters>NAN</DistanceMeters>
          </Trackpoint>
          <Trackpoint>
            <Time>2022-07-16T14:34:57.000Z</Time>
            <Position>
              <LatitudeDegrees>43.44675622880458831787109375</LatitudeDegrees>
              <LongitudeDegrees>-4.99431299977004528045654296875</LongitudeDegrees>
            </Position>
            <AltitudeMeters>44</AltitudeMeters>
            <DistanceMeters>NAN</DistanceMeters>
          </Trackpoint>
          <Trackpoint>
            <Time>2022-07-16T14:34:58.000Z</Time>
            <Position>
              <LatitudeDegrees>43.446756564080715179443359375</LatitudeDegrees>
              <LongitudeDegrees>-4.9943367205560207366943359375</LongitudeDegrees>
            </Position>
            <AltitudeMeters>44.200000762939453125</AltitudeMeters>
            <DistanceMeters>NAN</DistanceMeters>
          </Trackpoint>
          <Trackpoint>
            <Time>2022-07-16T14:35:03.000Z</Time>
            <Position>
              <LatitudeDegrees>43.44675295986235141754150390625</LatitudeDegrees>
              <LongitudeDegrees>-4.994461946189403533935546875</LongitudeDegrees>
            </Position>
            <AltitudeMeters>44.59999847412109375</AltitudeMeters>
            <DistanceMeters>NAN</DistanceMeters>
          </Trackpoint>
          <Trackpoint>
            <Time>2022-07-16T14:35:07.000Z</Time>
            <Position>
              <LatitudeDegrees>43.44674826599657535552978515625</LatitudeDegrees>
              <LongitudeDegrees>-4.99456143938004970550537109375</LongitudeDegrees>
            </Position>
            <AltitudeMeters>45</AltitudeMeters>
            <DistanceMeters>NAN</DistanceMeters>
          </Trackpoint>
          <Trackpoint>
            <Time>2022-07-16T14:35:08.000Z</Time>
            <Position>
              <LatitudeDegrees>43.44674675725400447845458984375</LatitudeDegrees>
              <LongitudeDegrees>-4.9945848248898983001708984375</LongitudeDegrees>
            </Position>
            <AltitudeMeters>45.200000762939453125</AltitudeMeters>
            <DistanceMeters>NAN</DistanceMeters>
          </Trackpoint>
          <Trackpoint>
            <Time>2022-07-16T14:35:11.000Z</Time>
            <Position>
              <LatitudeDegrees>43.44674323685467243194580078125</LatitudeDegrees>
              <LongitudeDegrees>-4.99464928172528743743896484375</LongitudeDegrees>
            </Position>
            <AltitudeMeters>45.40000152587890625</AltitudeMeters>
            <DistanceMeters>NAN</DistanceMeters>
          </Trackpoint>
          <Trackpoint>
            <Time>2022-07-16T14:35:13.000Z</Time>
            <Position>
              <LatitudeDegrees>43.44673887826502323150634765625</LatitudeDegrees>
              <LongitudeDegrees>-4.99469588510692119598388671875</LongitudeDegrees>
            </Position>
            <AltitudeMeters>45.799999237060546875</AltitudeMeters>
            <DistanceMeters>NAN</DistanceMeters>
          </Trackpoint>
          <Trackpoint>
            <Time>2022-07-16T14:35:16.000Z</Time>
            <Position>
              <LatitudeDegrees>43.4467436559498310089111328125</LatitudeDegrees>
              <LongitudeDegrees>-4.99476847238838672637939453125</LongitudeDegrees>
            </Position>
            <AltitudeMeters>46</AltitudeMeters>
            <DistanceMeters>NAN</DistanceMeters>
          </Trackpoint>
          <Trackpoint>
            <Time>2022-07-16T14:35:17.000Z</Time>
            <Position>
              <LatitudeDegrees>43.446743153035640716552734375</LatitudeDegrees>
              <LongitudeDegrees>-4.9947933666408061981201171875</LongitudeDegrees>
            </Position>
            <AltitudeMeters>46.200000762939453125</AltitudeMeters>
            <DistanceMeters>NAN</DistanceMeters>
          </Trackpoint>
          <Trackpoint>
            <Time>2022-07-16T14:35:18.000Z</Time>
            <Position>
              <LatitudeDegrees>43.44674306921660900115966796875</LatitudeDegrees>
              <LongitudeDegrees>-4.9948154948651790618896484375</LongitudeDegrees>
            </Position>
            <AltitudeMeters>46.200000762939453125</AltitudeMeters>
            <DistanceMeters>NAN</DistanceMeters>
          </Trackpoint>
          <Trackpoint>
            <Time>2022-07-16T14:35:19.000Z</Time>
            <Position>
              <LatitudeDegrees>43.44674306921660900115966796875</LatitudeDegrees>
              <LongitudeDegrees>-4.99483770690858364105224609375</LongitudeDegrees>
            </Position>
            <AltitudeMeters>46.200000762939453125</AltitudeMeters>
            <DistanceMeters>NAN</DistanceMeters>
          </Trackpoint>
          <Trackpoint>
            <Time>2022-07-16T14:35:22.000Z</Time>
            <Position>
              <LatitudeDegrees>43.44673804007470607757568359375</LatitudeDegrees>
              <LongitudeDegrees>-4.994911216199398040771484375</LongitudeDegrees>
            </Position>
            <AltitudeMeters>46.40000152587890625</AltitudeMeters>
            <DistanceMeters>NAN</DistanceMeters>
          </Trackpoint>
          <Trackpoint>
            <Time>2022-07-16T14:35:25.000Z</Time>
            <Position>
              <LatitudeDegrees>43.44674290157854557037353515625</LatitudeDegrees>
              <LongitudeDegrees>-4.99497617594897747039794921875</LongitudeDegrees>
            </Position>
            <AltitudeMeters>46.59999847412109375</AltitudeMeters>
            <DistanceMeters>NAN</DistanceMeters>
          </Trackpoint>
          <Trackpoint>
            <Time>2022-07-16T14:35:26.000Z</Time>
            <Position>
              <LatitudeDegrees>43.44673854298889636993408203125</LatitudeDegrees>
              <LongitudeDegrees>-4.9950032494962215423583984375</LongitudeDegrees>
            </Position>
            <AltitudeMeters>46.59999847412109375</AltitudeMeters>
            <DistanceMeters>NAN</DistanceMeters>
          </Trackpoint>
          <Trackpoint>
            <Time>2022-07-16T14:35:28.000Z</Time>
            <Position>
              <LatitudeDegrees>43.44673669897019863128662109375</LatitudeDegrees>
              <LongitudeDegrees>-4.99505094252526760101318359375</LongitudeDegrees>
            </Position>
            <AltitudeMeters>46.799999237060546875</AltitudeMeters>
            <DistanceMeters>NAN</DistanceMeters>
          </Trackpoint>
          <Trackpoint>
            <Time>2022-07-16T14:35:30.000Z</Time>
            <Position>
              <LatitudeDegrees>43.44673301093280315399169921875</LatitudeDegrees>
              <LongitudeDegrees>-4.995101988315582275390625</LongitudeDegrees>
            </Position>
            <AltitudeMeters>46.799999237060546875</AltitudeMeters>
            <DistanceMeters>NAN</DistanceMeters>
          </Trackpoint>
          <Trackpoint>
            <Time>2022-07-16T14:35:35.000Z</Time>
            <Position>
              <LatitudeDegrees>43.44672513194382190704345703125</LatitudeDegrees>
              <LongitudeDegrees>-4.995237775146961212158203125</LongitudeDegrees>
            </Position>
            <AltitudeMeters>47</AltitudeMeters>
            <DistanceMeters>NAN</DistanceMeters>
          </Trackpoint>
          <Trackpoint>
            <Time>2022-07-16T14:35:39.000Z</Time>
            <Position>
              <LatitudeDegrees>43.44670929014682769775390625</LatitudeDegrees>
              <LongitudeDegrees>-4.99535067938268184661865234375</LongitudeDegrees>
            </Position>
            <AltitudeMeters>47.200000762939453125</AltitudeMeters>
            <DistanceMeters>NAN</DistanceMeters>
          </Trackpoint>
          <Trackpoint>
            <Time>2022-07-16T14:35:44.000Z</Time>
            <Position>
              <LatitudeDegrees>43.44669059850275516510009765625</LatitudeDegrees>
              <LongitudeDegrees>-4.9955339916050434112548828125</LongitudeDegrees>
            </Position>
            <AltitudeMeters>47.200000762939453125</AltitudeMeters>
            <DistanceMeters>NAN</DistanceMeters>
          </Trackpoint>
          <Trackpoint>
            <Time>2022-07-16T14:35:45.000Z</Time>
            <Position>
              <LatitudeDegrees>43.44668389298021793365478515625</LatitudeDegrees>
              <LongitudeDegrees>-4.9955807626247406005859375</LongitudeDegrees>
            </Position>
            <AltitudeMeters>47</AltitudeMeters>
            <DistanceMeters>NAN</DistanceMeters>
          </Trackpoint>
          <Trackpoint>
            <Time>2022-07-16T14:35:49.000Z</Time>
            <Position>
              <LatitudeDegrees>43.44666310586035251617431640625</LatitudeDegrees>
              <LongitudeDegrees>-4.9957928247749805450439453125</LongitudeDegrees>
            </Position>
            <AltitudeMeters>46.799999237060546875</AltitudeMeters>
            <DistanceMeters>NAN</DistanceMeters>
          </Trackpoint>
          <Trackpoint>
            <Time>2022-07-16T14:35:50.000Z</Time>
            <Position>
              <LatitudeDegrees>43.4466601721942424774169921875</LatitudeDegrees>
              <LongitudeDegrees>-4.9958592094480991363525390625</LongitudeDegrees>
            </Position>
            <AltitudeMeters>46.59999847412109375</AltitudeMeters>
            <DistanceMeters>NAN</DistanceMeters>
          </Trackpoint>
          <Trackpoint>
            <Time>2022-07-16T14:35:52.000Z</Time>
            <Position>
              <LatitudeDegrees>43.44665690325200557708740234375</LatitudeDegrees>
              <LongitudeDegrees>-4.99600882641971111297607421875</LongitudeDegrees>
            </Position>
            <AltitudeMeters>46</AltitudeMeters>
            <DistanceMeters>NAN</DistanceMeters>
          </Trackpoint>
          <Trackpoint>
            <Time>2022-07-16T14:35:55.000Z</Time>
            <Position>
              <LatitudeDegrees>43.4466658718883991241455078125</LatitudeDegrees>
              <LongitudeDegrees>-4.99628073535859584808349609375</LongitudeDegrees>
            </Position>
            <AltitudeMeters>45.40000152587890625</AltitudeMeters>
            <DistanceMeters>NAN</DistanceMeters>
          </Trackpoint>
          <Trackpoint>
            <Time>2022-07-16T14:35:57.000Z</Time>
            <Position>
              <LatitudeDegrees>43.44668447971343994140625</LatitudeDegrees>
              <LongitudeDegrees>-4.996487013995647430419921875</LongitudeDegrees>
            </Position>
            <AltitudeMeters>44.59999847412109375</AltitudeMeters>
            <DistanceMeters>NAN</DistanceMeters>
          </Trackpoint>
          <Trackpoint>
            <Time>2022-07-16T14:36:00.000Z</Time>
            <Position>
              <LatitudeDegrees>43.4467268921434879302978515625</LatitudeDegrees>
              <LongitudeDegrees>-4.9968087114393711090087890625</LongitudeDegrees>
            </Position>
            <AltitudeMeters>43.200000762939453125</AltitudeMeters>
            <DistanceMeters>NAN</DistanceMeters>
          </Trackpoint>
          <Trackpoint>
            <Time>2022-07-16T14:36:01.000Z</Time>
            <Position>
              <LatitudeDegrees>43.446746505796909332275390625</LatitudeDegrees>
              <LongitudeDegrees>-4.99691717326641082763671875</LongitudeDegrees>
            </Position>
            <AltitudeMeters>42.799999237060546875</AltitudeMeters>
            <DistanceMeters>NAN</DistanceMeters>
          </Trackpoint>
          <Trackpoint>
            <Time>2022-07-16T14:36:03.000Z</Time>
            <Position>
              <LatitudeDegrees>43.4467926062643527984619140625</LatitudeDegrees>
              <LongitudeDegrees>-4.99712496064603328704833984375</LongitudeDegrees>
            </Position>
            <AltitudeMeters>41.799999237060546875</AltitudeMeters>
            <DistanceMeters>NAN</DistanceMeters>
          </Trackpoint>
          <Trackpoint>
            <Time>2022-07-16T14:36:07.000Z</Time>
            <Position>
              <LatitudeDegrees>43.44689142890274524688720703125</LatitudeDegrees>
              <LongitudeDegrees>-4.997514300048351287841796875</LongitudeDegrees>
            </Position>
            <AltitudeMeters>40.799999237060546875</AltitudeMeters>
            <DistanceMeters>NAN</DistanceMeters>
          </Trackpoint>
          <Trackpoint>
            <Time>2022-07-16T14:36:08.000Z</Time>
            <Position>
              <LatitudeDegrees>43.44691003672778606414794921875</LatitudeDegrees>
              <LongitudeDegrees>-4.9976029805839061737060546875</LongitudeDegrees>
            </Position>
            <AltitudeMeters>40.799999237060546875</AltitudeMeters>
            <DistanceMeters>NAN</DistanceMeters>
          </Trackpoint>
          <Trackpoint>
            <Time>2022-07-16T14:36:11.000Z</Time>
            <Position>
              <LatitudeDegrees>43.44693518243730068206787109375</LatitudeDegrees>
              <LongitudeDegrees>-4.997867010533809661865234375</LongitudeDegrees>
            </Position>
            <AltitudeMeters>40.40000152587890625</AltitudeMeters>
            <DistanceMeters>NAN</DistanceMeters>
          </Trackpoint>
          <Trackpoint>
            <Time>2022-07-16T14:36:13.000Z</Time>
            <Position>
              <LatitudeDegrees>43.4469272196292877197265625</LatitudeDegrees>
              <LongitudeDegrees>-4.99804026447236537933349609375</LongitudeDegrees>
            </Position>
            <AltitudeMeters>40.200000762939453125</AltitudeMeters>
            <DistanceMeters>NAN</DistanceMeters>
          </Trackpoint>
          <Trackpoint>
            <Time>2022-07-16T14:36:14.000Z</Time>
            <Position>
              <LatitudeDegrees>43.44692696817219257354736328125</LatitudeDegrees>
              <LongitudeDegrees>-4.99812207184731960296630859375</LongitudeDegrees>
            </Position>
            <AltitudeMeters>40</AltitudeMeters>
            <DistanceMeters>NAN</DistanceMeters>
          </Trackpoint>
          <Trackpoint>
            <Time>2022-07-16T14:36:16.000Z</Time>
            <Position>
              <LatitudeDegrees>43.44695580191910266876220703125</LatitudeDegrees>
              <LongitudeDegrees>-4.998256266117095947265625</LongitudeDegrees>
            </Position>
            <AltitudeMeters>40</AltitudeMeters>
            <DistanceMeters>NAN</DistanceMeters>
          </Trackpoint>
          <Trackpoint>
            <Time>2022-07-16T14:36:20.000Z</Time>
            <Position>
              <LatitudeDegrees>43.44701531343162059783935546875</LatitudeDegrees>
              <LongitudeDegrees>-4.9984252452850341796875</LongitudeDegrees>
            </Position>
            <AltitudeMeters>40.40000152587890625</AltitudeMeters>
            <DistanceMeters>NAN</DistanceMeters>
          </Trackpoint>
          <Trackpoint>
            <Time>2022-07-16T14:36:27.000Z</Time>
            <Position>
              <LatitudeDegrees>43.447134084999561309814453125</LatitudeDegrees>
              <LongitudeDegrees>-4.9986617825925350189208984375</LongitudeDegrees>
            </Position>
            <AltitudeMeters>40.799999237060546875</AltitudeMeters>
            <DistanceMeters>NAN</DistanceMeters>
          </Trackpoint>
          <Trackpoint>
            <Time>2022-07-16T14:36:28.000Z</Time>
            <Position>
              <LatitudeDegrees>43.4471557103097438812255859375</LatitudeDegrees>
              <LongitudeDegrees>-4.9986916221678256988525390625</LongitudeDegrees>
            </Position>
            <AltitudeMeters>40.799999237060546875</AltitudeMeters>
            <DistanceMeters>NAN</DistanceMeters>
          </Trackpoint>
          <Trackpoint>
            <Time>2022-07-16T14:36:34.000Z</Time>
            <Position>
              <LatitudeDegrees>43.44728730618953704833984375</LatitudeDegrees>
              <LongitudeDegrees>-4.99881961382925510406494140625</LongitudeDegrees>
            </Position>
            <AltitudeMeters>41.200000762939453125</AltitudeMeters>
            <DistanceMeters>NAN</DistanceMeters>
          </Trackpoint>
          <Trackpoint>
            <Time>2022-07-16T14:36:35.000Z</Time>
            <Position>
              <LatitudeDegrees>43.4473080933094024658203125</LatitudeDegrees>
              <LongitudeDegrees>-4.99882849864661693572998046875</LongitudeDegrees>
            </Position>
            <AltitudeMeters>41.200000762939453125</AltitudeMeters>
            <DistanceMeters>NAN</DistanceMeters>
          </Trackpoint>
          <Trackpoint>
            <Time>2022-07-16T14:36:41.000Z</Time>
            <Position>
              <LatitudeDegrees>43.44740289263427257537841796875</LatitudeDegrees>
              <LongitudeDegrees>-4.99888398684561252593994140625</LongitudeDegrees>
            </Position>
            <AltitudeMeters>41.799999237060546875</AltitudeMeters>
            <DistanceMeters>NAN</DistanceMeters>
          </Trackpoint>
          <Trackpoint>
            <Time>2022-07-16T14:36:43.000Z</Time>
            <Position>
              <LatitudeDegrees>43.4474286250770092010498046875</LatitudeDegrees>
              <LongitudeDegrees>-4.998909719288349151611328125</LongitudeDegrees>
            </Position>
            <AltitudeMeters>42</AltitudeMeters>
            <DistanceMeters>NAN</DistanceMeters>
          </Trackpoint>
          <Trackpoint>
            <Time>2022-07-16T14:36:51.000Z</Time>
            <Position>
              <LatitudeDegrees>43.44754404388368129730224609375</LatitudeDegrees>
              <LongitudeDegrees>-4.99896428547799587249755859375</LongitudeDegrees>
            </Position>
            <AltitudeMeters>42.799999237060546875</AltitudeMeters>
            <DistanceMeters>NAN</DistanceMeters>
          </Trackpoint>
          <Trackpoint>
            <Time>2022-07-16T14:36:52.000Z</Time>
            <Position>
              <LatitudeDegrees>43.44756047241389751434326171875</LatitudeDegrees>
              <LongitudeDegrees>-4.9989745952188968658447265625</LongitudeDegrees>
            </Position>
            <AltitudeMeters>43</AltitudeMeters>
            <DistanceMeters>NAN</DistanceMeters>
          </Trackpoint>
          <Trackpoint>
            <Time>2022-07-16T14:36:58.000Z</Time>
            <Position>
              <LatitudeDegrees>43.4476599656045436859130859375</LatitudeDegrees>
              <LongitudeDegrees>-4.99902312643826007843017578125</LongitudeDegrees>
            </Position>
            <AltitudeMeters>43.59999847412109375</AltitudeMeters>
            <DistanceMeters>NAN</DistanceMeters>
          </Trackpoint>
          <Trackpoint>
            <Time>2022-07-16T14:37:00.000Z</Time>
            <Position>
              <LatitudeDegrees>43.4476911462843418121337890625</LatitudeDegrees>
              <LongitudeDegrees>-4.99903519637882709503173828125</LongitudeDegrees>
            </Position>
            <AltitudeMeters>43.799999237060546875</AltitudeMeters>
            <DistanceMeters>NAN</DistanceMeters>
          </Trackpoint>
          <Trackpoint>
            <Time>2022-07-16T14:37:03.000Z</Time>
            <Position>
              <LatitudeDegrees>43.447740264236927032470703125</LatitudeDegrees>
              <LongitudeDegrees>-4.99907576479017734527587890625</LongitudeDegrees>
            </Position>
            <AltitudeMeters>43.799999237060546875</AltitudeMeters>
            <DistanceMeters>NAN</DistanceMeters>
          </Trackpoint>
          <Trackpoint>
            <Time>2022-07-16T14:37:07.000Z</Time>
            <Position>
              <LatitudeDegrees>43.4478168748319149017333984375</LatitudeDegrees>
              <LongitudeDegrees>-4.9991345219314098358154296875</LongitudeDegrees>
            </Position>
            <AltitudeMeters>44</AltitudeMeters>
            <DistanceMeters>NAN</DistanceMeters>
          </Trackpoint>
          <Trackpoint>
            <Time>2022-07-16T14:37:11.000Z</Time>
            <Position>
              <LatitudeDegrees>43.44789155758917331695556640625</LatitudeDegrees>
              <LongitudeDegrees>-4.99919663183391094207763671875</LongitudeDegrees>
            </Position>
            <AltitudeMeters>44.200000762939453125</AltitudeMeters>
            <DistanceMeters>NAN</DistanceMeters>
          </Trackpoint>
          <Trackpoint>
            <Time>2022-07-16T14:37:16.000Z</Time>
            <Position>
              <LatitudeDegrees>43.4479751251637935638427734375</LatitudeDegrees>
              <LongitudeDegrees>-4.9992971308529376983642578125</LongitudeDegrees>
            </Position>
            <AltitudeMeters>44.40000152587890625</AltitudeMeters>
            <DistanceMeters>NAN</DistanceMeters>
          </Trackpoint>
          <Trackpoint>
            <Time>2022-07-16T14:37:24.000Z</Time>
            <Position>
              <LatitudeDegrees>43.4480394981801509857177734375</LatitudeDegrees>
              <LongitudeDegrees>-4.9995640106499195098876953125</LongitudeDegrees>
            </Position>
            <AltitudeMeters>44.40000152587890625</AltitudeMeters>
            <DistanceMeters>NAN</DistanceMeters>
          </Trackpoint>
          <Trackpoint>
            <Time>2022-07-16T14:37:32.000Z</Time>
            <Position>
              <LatitudeDegrees>43.4480564296245574951171875</LatitudeDegrees>
              <LongitudeDegrees>-4.9998657591640949249267578125</LongitudeDegrees>
            </Position>
            <AltitudeMeters>44.40000152587890625</AltitudeMeters>
            <DistanceMeters>NAN</DistanceMeters>
          </Trackpoint>
          <Trackpoint>
            <Time>2022-07-16T14:37:35.000Z</Time>
            <Position>
              <LatitudeDegrees>43.44806020148098468780517578125</LatitudeDegrees>
              <LongitudeDegrees>-4.999987967312335968017578125</LongitudeDegrees>
            </Position>
            <AltitudeMeters>44.40000152587890625</AltitudeMeters>
            <DistanceMeters>NAN</DistanceMeters>
          </Trackpoint>
          <Trackpoint>
            <Time>2022-07-16T14:37:39.000Z</Time>
            <Position>
              <LatitudeDegrees>43.44806456007063388824462890625</LatitudeDegrees>
              <LongitudeDegrees>-5.00014345161616802215576171875</LongitudeDegrees>
            </Position>
            <AltitudeMeters>44.40000152587890625</AltitudeMeters>
            <DistanceMeters>NAN</DistanceMeters>
          </Trackpoint>
          <Trackpoint>
            <Time>2022-07-16T14:37:40.000Z</Time>
            <Position>
              <LatitudeDegrees>43.44806623645126819610595703125</LatitudeDegrees>
              <LongitudeDegrees>-5.000186450779438018798828125</LongitudeDegrees>
            </Position>
            <AltitudeMeters>44.40000152587890625</AltitudeMeters>
            <DistanceMeters>NAN</DistanceMeters>
          </Trackpoint>
          <Trackpoint>
            <Time>2022-07-16T14:37:42.000Z</Time>
            <Position>
              <LatitudeDegrees>43.4480770491063594818115234375</LatitudeDegrees>
              <LongitudeDegrees>-5.0002650730311870574951171875</LongitudeDegrees>
            </Position>
            <AltitudeMeters>44.40000152587890625</AltitudeMeters>
            <DistanceMeters>NAN</DistanceMeters>
          </Trackpoint>
          <Trackpoint>
            <Time>2022-07-16T14:37:43.000Z</Time>
            <Position>
              <LatitudeDegrees>43.448082245886325836181640625</LatitudeDegrees>
              <LongitudeDegrees>-5.00029969029128551483154296875</LongitudeDegrees>
            </Position>
            <AltitudeMeters>44.40000152587890625</AltitudeMeters>
            <DistanceMeters>NAN</DistanceMeters>
          </Trackpoint>
          <Trackpoint>
            <Time>2022-07-16T14:37:47.000Z</Time>
            <Position>
              <LatitudeDegrees>43.44808953814208507537841796875</LatitudeDegrees>
              <LongitudeDegrees>-5.00042625702917575836181640625</LongitudeDegrees>
            </Position>
            <AltitudeMeters>44.40000152587890625</AltitudeMeters>
            <DistanceMeters>NAN</DistanceMeters>
          </Trackpoint>
          <Trackpoint>
            <Time>2022-07-16T14:37:48.000Z</Time>
            <Position>
              <LatitudeDegrees>43.4480912983417510986328125</LatitudeDegrees>
              <LongitudeDegrees>-5.00046045519411563873291015625</LongitudeDegrees>
            </Position>
            <AltitudeMeters>44.40000152587890625</AltitudeMeters>
            <DistanceMeters>NAN</DistanceMeters>
          </Trackpoint>
          <Trackpoint>
            <Time>2022-07-16T14:37:56.000Z</Time>
            <Position>
              <LatitudeDegrees>43.44811434857547283172607421875</LatitudeDegrees>
              <LongitudeDegrees>-5.00069816596806049346923828125</LongitudeDegrees>
            </Position>
            <AltitudeMeters>45</AltitudeMeters>
            <DistanceMeters>NAN</DistanceMeters>
          </Trackpoint>
          <Trackpoint>
            <Time>2022-07-16T14:37:59.000Z</Time>
            <Position>
              <LatitudeDegrees>43.44812189228832721710205078125</LatitudeDegrees>
              <LongitudeDegrees>-5.00077796168625354766845703125</LongitudeDegrees>
            </Position>
            <AltitudeMeters>45.40000152587890625</AltitudeMeters>
            <DistanceMeters>NAN</DistanceMeters>
          </Trackpoint>
          <Trackpoint>
            <Time>2022-07-16T14:38:04.000Z</Time>
            <Position>
              <LatitudeDegrees>43.4481410868465900421142578125</LatitudeDegrees>
              <LongitudeDegrees>-5.0008870102465152740478515625</LongitudeDegrees>
            </Position>
            <AltitudeMeters>45.799999237060546875</AltitudeMeters>
            <DistanceMeters>NAN</DistanceMeters>
          </Trackpoint>
          <Trackpoint>
            <Time>2022-07-16T14:38:07.000Z</Time>
            <Position>
              <LatitudeDegrees>43.4481538273394107818603515625</LatitudeDegrees>
              <LongitudeDegrees>-5.00096152536571025848388671875</LongitudeDegrees>
            </Position>
            <AltitudeMeters>46</AltitudeMeters>
            <DistanceMeters>NAN</DistanceMeters>
          </Trackpoint>
          <Trackpoint>
            <Time>2022-07-16T14:38:12.000Z</Time>
            <Position>
              <LatitudeDegrees>43.44817570410668849945068359375</LatitudeDegrees>
              <LongitudeDegrees>-5.0011317618191242218017578125</LongitudeDegrees>
            </Position>
            <AltitudeMeters>45.799999237060546875</AltitudeMeters>
            <DistanceMeters>NAN</DistanceMeters>
          </Trackpoint>
          <Trackpoint>
            <Time>2022-07-16T14:38:13.000Z</Time>
            <Position>
              <LatitudeDegrees>43.448175452649593353271484375</LatitudeDegrees>
              <LongitudeDegrees>-5.00117492862045764923095703125</LongitudeDegrees>
            </Position>
            <AltitudeMeters>45.799999237060546875</AltitudeMeters>
            <DistanceMeters>NAN</DistanceMeters>
          </Trackpoint>
          <Trackpoint>
            <Time>2022-07-16T14:38:19.000Z</Time>
            <Position>
              <LatitudeDegrees>43.44816748984158039093017578125</LatitudeDegrees>
              <LongitudeDegrees>-5.00144080258905887603759765625</LongitudeDegrees>
            </Position>
            <AltitudeMeters>45</AltitudeMeters>
            <DistanceMeters>NAN</DistanceMeters>
          </Trackpoint>
          <Trackpoint>
            <Time>2022-07-16T14:38:20.000Z</Time>
            <Position>
              <LatitudeDegrees>43.44816866330802440643310546875</LatitudeDegrees>
              <LongitudeDegrees>-5.0014948658645153045654296875</LongitudeDegrees>
            </Position>
            <AltitudeMeters>44.799999237060546875</AltitudeMeters>
            <DistanceMeters>NAN</DistanceMeters>
          </Trackpoint>
          <Trackpoint>
            <Time>2022-07-16T14:38:25.000Z</Time>
            <Position>
              <LatitudeDegrees>43.4481985867023468017578125</LatitudeDegrees>
              <LongitudeDegrees>-5.001761913299560546875</LongitudeDegrees>
            </Position>
            <AltitudeMeters>44</AltitudeMeters>
            <DistanceMeters>NAN</DistanceMeters>
          </Trackpoint>
          <Trackpoint>
            <Time>2022-07-16T14:38:26.000Z</Time>
            <Position>
              <LatitudeDegrees>43.44820621423423290252685546875</LatitudeDegrees>
              <LongitudeDegrees>-5.00181756913661956787109375</LongitudeDegrees>
            </Position>
            <AltitudeMeters>43.799999237060546875</AltitudeMeters>
            <DistanceMeters>NAN</DistanceMeters>
          </Trackpoint>
          <Trackpoint>
            <Time>2022-07-16T14:38:31.000Z</Time>
            <Position>
              <LatitudeDegrees>43.44826363027095794677734375</LatitudeDegrees>
              <LongitudeDegrees>-5.00209878198802471160888671875</LongitudeDegrees>
            </Position>
            <AltitudeMeters>43</AltitudeMeters>
            <DistanceMeters>NAN</DistanceMeters>
          </Trackpoint>
          <Trackpoint>
            <Time>2022-07-16T14:38:35.000Z</Time>
            <Position>
              <LatitudeDegrees>43.44831752590835094451904296875</LatitudeDegrees>
              <LongitudeDegrees>-5.00231235288083553314208984375</LongitudeDegrees>
            </Position>
            <AltitudeMeters>42.59999847412109375</AltitudeMeters>
            <DistanceMeters>NAN</DistanceMeters>
          </Trackpoint>
          <Trackpoint>
            <Time>2022-07-16T14:38:39.000Z</Time>
            <Position>
              <LatitudeDegrees>43.44836329109966754913330078125</LatitudeDegrees>
              <LongitudeDegrees>-5.0025198049843311309814453125</LongitudeDegrees>
            </Position>
            <AltitudeMeters>42.40000152587890625</AltitudeMeters>
            <DistanceMeters>NAN</DistanceMeters>
          </Trackpoint>
          <Trackpoint>
            <Time>2022-07-16T14:38:48.000Z</Time>
            <Position>
              <LatitudeDegrees>43.44839313067495822906494140625</LatitudeDegrees>
              <LongitudeDegrees>-5.00300704501569271087646484375</LongitudeDegrees>
            </Position>
            <AltitudeMeters>42</AltitudeMeters>
            <DistanceMeters>NAN</DistanceMeters>
          </Trackpoint>
          <Trackpoint>
            <Time>2022-07-16T14:38:58.000Z</Time>
            <Position>
              <LatitudeDegrees>43.4484626166522502899169921875</LatitudeDegrees>
              <LongitudeDegrees>-5.00351314432919025421142578125</LongitudeDegrees>
            </Position>
            <AltitudeMeters>41.799999237060546875</AltitudeMeters>
            <DistanceMeters>NAN</DistanceMeters>
          </Trackpoint>
          <Trackpoint>
            <Time>2022-07-16T14:39:05.000Z</Time>
            <Position>
              <LatitudeDegrees>43.44849153421819210052490234375</LatitudeDegrees>
              <LongitudeDegrees>-5.0038548745214939117431640625</LongitudeDegrees>
            </Position>
            <AltitudeMeters>41.799999237060546875</AltitudeMeters>
            <DistanceMeters>NAN</DistanceMeters>
          </Trackpoint>
          <Trackpoint>
            <Time>2022-07-16T14:39:08.000Z</Time>
            <Position>
              <LatitudeDegrees>43.44850771129131317138671875</LatitudeDegrees>
              <LongitudeDegrees>-5.0040084309875965118408203125</LongitudeDegrees>
            </Position>
            <AltitudeMeters>41.59999847412109375</AltitudeMeters>
            <DistanceMeters>NAN</DistanceMeters>
          </Trackpoint>
          <Trackpoint>
            <Time>2022-07-16T14:39:09.000Z</Time>
            <Position>
              <LatitudeDegrees>43.44851550646126270294189453125</LatitudeDegrees>
              <LongitudeDegrees>-5.0040624104440212249755859375</LongitudeDegrees>
            </Position>
            <AltitudeMeters>41.59999847412109375</AltitudeMeters>
            <DistanceMeters>NAN</DistanceMeters>
          </Trackpoint>
          <Trackpoint>
            <Time>2022-07-16T14:39:12.000Z</Time>
            <Position>
              <LatitudeDegrees>43.448532521724700927734375</LatitudeDegrees>
              <LongitudeDegrees>-5.00421051867306232452392578125</LongitudeDegrees>
            </Position>
            <AltitudeMeters>41.40000152587890625</AltitudeMeters>
            <DistanceMeters>NAN</DistanceMeters>
          </Trackpoint>
          <Trackpoint>
            <Time>2022-07-16T14:39:15.000Z</Time>
            <Position>
              <LatitudeDegrees>43.44854501076042652130126953125</LatitudeDegrees>
              <LongitudeDegrees>-5.00432702712714672088623046875</LongitudeDegrees>
            </Position>
            <AltitudeMeters>41.59999847412109375</AltitudeMeters>
            <DistanceMeters>NAN</DistanceMeters>
          </Trackpoint>
          <Trackpoint>
            <Time>2022-07-16T14:39:17.000Z</Time>
            <Position>
              <LatitudeDegrees>43.4485541470348834991455078125</LatitudeDegrees>
              <LongitudeDegrees>-5.00440053641796112060546875</LongitudeDegrees>
            </Position>
            <AltitudeMeters>41.59999847412109375</AltitudeMeters>
            <DistanceMeters>NAN</DistanceMeters>
          </Trackpoint>
          <Trackpoint>
            <Time>2022-07-16T14:39:23.000Z</Time>
            <Position>
              <LatitudeDegrees>43.4485608525574207305908203125</LatitudeDegrees>
              <LongitudeDegrees>-5.004619471728801727294921875</LongitudeDegrees>
            </Position>
            <AltitudeMeters>42.200000762939453125</AltitudeMeters>
            <DistanceMeters>NAN</DistanceMeters>
          </Trackpoint>
          <Trackpoint>
            <Time>2022-07-16T14:39:30.000Z</Time>
            <Position>
              <LatitudeDegrees>43.44857702963054180145263671875</LatitudeDegrees>
              <LongitudeDegrees>-5.00491510145366191864013671875</LongitudeDegrees>
            </Position>
            <AltitudeMeters>42.200000762939453125</AltitudeMeters>
            <DistanceMeters>NAN</DistanceMeters>
          </Trackpoint>
          <Trackpoint>
            <Time>2022-07-16T14:39:33.000Z</Time>
            <Position>
              <LatitudeDegrees>43.44859463162720203399658203125</LatitudeDegrees>
              <LongitudeDegrees>-5.00504552386701107025146484375</LongitudeDegrees>
            </Position>
            <AltitudeMeters>42.200000762939453125</AltitudeMeters>
            <DistanceMeters>NAN</DistanceMeters>
          </Trackpoint>
          <Trackpoint>
            <Time>2022-07-16T14:39:41.000Z</Time>
            <Position>
              <LatitudeDegrees>43.44866327941417694091796875</LatitudeDegrees>
              <LongitudeDegrees>-5.005387254059314727783203125</LongitudeDegrees>
            </Position>
            <AltitudeMeters>41.59999847412109375</AltitudeMeters>
            <DistanceMeters>NAN</DistanceMeters>
          </Trackpoint>
          <Trackpoint>
            <Time>2022-07-16T14:39:47.000Z</Time>
            <Position>
              <LatitudeDegrees>43.44874064438045024871826171875</LatitudeDegrees>
              <LongitudeDegrees>-5.0056459195911884307861328125</LongitudeDegrees>
            </Position>
            <AltitudeMeters>41.40000152587890625</AltitudeMeters>
            <DistanceMeters>NAN</DistanceMeters>
          </Trackpoint>
          <Trackpoint>
            <Time>2022-07-16T14:39:49.000Z</Time>
            <Position>
              <LatitudeDegrees>43.44878372736275196075439453125</LatitudeDegrees>
              <LongitudeDegrees>-5.0057441554963588714599609375</LongitudeDegrees>
            </Position>
            <AltitudeMeters>41.200000762939453125</AltitudeMeters>
            <DistanceMeters>NAN</DistanceMeters>
          </Trackpoint>
          <Trackpoint>
            <Time>2022-07-16T14:39:55.000Z</Time>
            <Position>
              <LatitudeDegrees>43.44894516281783580780029296875</LatitudeDegrees>
              <LongitudeDegrees>-5.00607381574809551239013671875</LongitudeDegrees>
            </Position>
            <AltitudeMeters>40.59999847412109375</AltitudeMeters>
            <DistanceMeters>NAN</DistanceMeters>
          </Trackpoint>
          <Trackpoint>
            <Time>2022-07-16T14:39:56.000Z</Time>
            <Position>
              <LatitudeDegrees>43.4489719010889530181884765625</LatitudeDegrees>
              <LongitudeDegrees>-5.00612645410001277923583984375</LongitudeDegrees>
            </Position>
            <AltitudeMeters>40.40000152587890625</AltitudeMeters>
            <DistanceMeters>NAN</DistanceMeters>
          </Trackpoint>
          <Trackpoint>
            <Time>2022-07-16T14:39:58.000Z</Time>
            <Position>
              <LatitudeDegrees>43.449035100638866424560546875</LatitudeDegrees>
              <LongitudeDegrees>-5.0062182359397411346435546875</LongitudeDegrees>
            </Position>
            <AltitudeMeters>40.200000762939453125</AltitudeMeters>
            <DistanceMeters>NAN</DistanceMeters>
          </Trackpoint>
          <Trackpoint>
            <Time>2022-07-16T14:40:00.000Z</Time>
            <Position>
              <LatitudeDegrees>43.4491023235023021697998046875</LatitudeDegrees>
              <LongitudeDegrees>-5.00627364031970500946044921875</LongitudeDegrees>
            </Position>
            <AltitudeMeters>40.200000762939453125</AltitudeMeters>
            <DistanceMeters>NAN</DistanceMeters>
          </Trackpoint>
          <Trackpoint>
            <Time>2022-07-16T14:40:01.000Z</Time>
            <Position>
              <LatitudeDegrees>43.4491373598575592041015625</LatitudeDegrees>
              <LongitudeDegrees>-5.00629283487796783447265625</LongitudeDegrees>
            </Position>
            <AltitudeMeters>39.799999237060546875</AltitudeMeters>
            <DistanceMeters>NAN</DistanceMeters>
          </Trackpoint>
          <Trackpoint>
            <Time>2022-07-16T14:40:09.000Z</Time>
            <Position>
              <LatitudeDegrees>43.4494121186435222625732421875</LatitudeDegrees>
              <LongitudeDegrees>-5.00640414655208587646484375</LongitudeDegrees>
            </Position>
            <AltitudeMeters>40</AltitudeMeters>
            <DistanceMeters>NAN</DistanceMeters>
          </Trackpoint>
          <Trackpoint>
            <Time>2022-07-16T14:40:16.000Z</Time>
            <Position>
              <LatitudeDegrees>43.44960163347423076629638671875</LatitudeDegrees>
              <LongitudeDegrees>-5.0065116025507450103759765625</LongitudeDegrees>
            </Position>
            <AltitudeMeters>40</AltitudeMeters>
            <DistanceMeters>NAN</DistanceMeters>
          </Trackpoint>
          <Trackpoint>
            <Time>2022-07-16T14:40:21.000Z</Time>
            <Position>
              <LatitudeDegrees>43.4496669284999370574951171875</LatitudeDegrees>
              <LongitudeDegrees>-5.00655979849398136138916015625</LongitudeDegrees>
            </Position>
            <AltitudeMeters>41</AltitudeMeters>
            <DistanceMeters>NAN</DistanceMeters>
          </Trackpoint>
          <Trackpoint>
            <Time>2022-07-16T14:40:23.000Z</Time>
            <Position>
              <LatitudeDegrees>43.44969400204718112945556640625</LatitudeDegrees>
              <LongitudeDegrees>-5.00657580792903900146484375</LongitudeDegrees>
            </Position>
            <AltitudeMeters>41.200000762939453125</AltitudeMeters>
            <DistanceMeters>NAN</DistanceMeters>
          </Trackpoint>
          <Trackpoint>
            <Time>2022-07-16T14:40:26.000Z</Time>
            <Position>
              <LatitudeDegrees>43.44973213970661163330078125</LatitudeDegrees>
              <LongitudeDegrees>-5.00660204328596591949462890625</LongitudeDegrees>
            </Position>
            <AltitudeMeters>41.59999847412109375</AltitudeMeters>
            <DistanceMeters>NAN</DistanceMeters>
          </Trackpoint>
          <Trackpoint>
            <Time>2022-07-16T14:40:30.000Z</Time>
            <Position>
              <LatitudeDegrees>43.4497842751443386077880859375</LatitudeDegrees>
              <LongitudeDegrees>-5.006646551191806793212890625</LongitudeDegrees>
            </Position>
            <AltitudeMeters>42.200000762939453125</AltitudeMeters>
            <DistanceMeters>NAN</DistanceMeters>
          </Trackpoint>
          <Trackpoint>
            <Time>2022-07-16T14:40:36.000Z</Time>
            <Position>
              <LatitudeDegrees>43.44983582384884357452392578125</LatitudeDegrees>
              <LongitudeDegrees>-5.00673405826091766357421875</LongitudeDegrees>
            </Position>
            <AltitudeMeters>42.59999847412109375</AltitudeMeters>
            <DistanceMeters>NAN</DistanceMeters>
          </Trackpoint>
          <Trackpoint>
            <Time>2022-07-16T14:40:38.000Z</Time>
            <Position>
              <LatitudeDegrees>43.44984521158039569854736328125</LatitudeDegrees>
              <LongitudeDegrees>-5.00677068717777729034423828125</LongitudeDegrees>
            </Position>
            <AltitudeMeters>42.799999237060546875</AltitudeMeters>
            <DistanceMeters>NAN</DistanceMeters>
          </Trackpoint>
          <Trackpoint>
            <Time>2022-07-16T14:40:42.000Z</Time>
            <Position>
              <LatitudeDegrees>43.4498861990869045257568359375</LatitudeDegrees>
              <LongitudeDegrees>-5.00683992169797420501708984375</LongitudeDegrees>
            </Position>
            <AltitudeMeters>43.200000762939453125</AltitudeMeters>
            <DistanceMeters>NAN</DistanceMeters>
          </Trackpoint>
          <Trackpoint>
            <Time>2022-07-16T14:40:45.000Z</Time>
            <Position>
              <LatitudeDegrees>43.449914194643497467041015625</LatitudeDegrees>
              <LongitudeDegrees>-5.00691770575940608978271484375</LongitudeDegrees>
            </Position>
            <AltitudeMeters>43.40000152587890625</AltitudeMeters>
            <DistanceMeters>NAN</DistanceMeters>
          </Trackpoint>
          <Trackpoint>
            <Time>2022-07-16T14:40:50.000Z</Time>
            <Position>
              <LatitudeDegrees>43.44998829066753387451171875</LatitudeDegrees>
              <LongitudeDegrees>-5.007055588066577911376953125</LongitudeDegrees>
            </Position>
            <AltitudeMeters>43.200000762939453125</AltitudeMeters>
            <DistanceMeters>NAN</DistanceMeters>
          </Trackpoint>
          <Trackpoint>
            <Time>2022-07-16T14:40:52.000Z</Time>
            <Position>
              <LatitudeDegrees>43.45003531314432621002197265625</LatitudeDegrees>
              <LongitudeDegrees>-5.0071221403777599334716796875</LongitudeDegrees>
            </Position>
            <AltitudeMeters>43.200000762939453125</AltitudeMeters>
            <DistanceMeters>NAN</DistanceMeters>
          </Trackpoint>
          <Trackpoint>
            <Time>2022-07-16T14:40:54.000Z</Time>
            <Position>
              <LatitudeDegrees>43.4500907175242900848388671875</LatitudeDegrees>
              <LongitudeDegrees>-5.00719062052667140960693359375</LongitudeDegrees>
            </Position>
            <AltitudeMeters>43</AltitudeMeters>
            <DistanceMeters>NAN</DistanceMeters>
          </Trackpoint>
          <Trackpoint>
            <Time>2022-07-16T14:40:57.000Z</Time>
            <Position>
              <LatitudeDegrees>43.45017562620341777801513671875</LatitudeDegrees>
              <LongitudeDegrees>-5.0072944723069667816162109375</LongitudeDegrees>
            </Position>
            <AltitudeMeters>42.799999237060546875</AltitudeMeters>
            <DistanceMeters>NAN</DistanceMeters>
          </Trackpoint>
          <Trackpoint>
            <Time>2022-07-16T14:40:59.000Z</Time>
            <Position>
              <LatitudeDegrees>43.45022675581276416778564453125</LatitudeDegrees>
              <LongitudeDegrees>-5.0073638744652271270751953125</LongitudeDegrees>
            </Position>
            <AltitudeMeters>42.799999237060546875</AltitudeMeters>
            <DistanceMeters>NAN</DistanceMeters>
          </Trackpoint>
          <Trackpoint>
            <Time>2022-07-16T14:41:07.000Z</Time>
            <Position>
              <LatitudeDegrees>43.45040864311158657073974609375</LatitudeDegrees>
              <LongitudeDegrees>-5.00762396492063999176025390625</LongitudeDegrees>
            </Position>
            <AltitudeMeters>42.59999847412109375</AltitudeMeters>
            <DistanceMeters>NAN</DistanceMeters>
          </Trackpoint>
          <Trackpoint>
            <Time>2022-07-16T14:41:15.000Z</Time>
            <Position>
              <LatitudeDegrees>43.45059606246650218963623046875</LatitudeDegrees>
              <LongitudeDegrees>-5.00787877477705478668212890625</LongitudeDegrees>
            </Position>
            <AltitudeMeters>42.59999847412109375</AltitudeMeters>
            <DistanceMeters>NAN</DistanceMeters>
          </Trackpoint>
          <Trackpoint>
            <Time>2022-07-16T14:41:20.000Z</Time>
            <Position>
              <LatitudeDegrees>43.4506948851048946380615234375</LatitudeDegrees>
              <LongitudeDegrees>-5.008089244365692138671875</LongitudeDegrees>
            </Position>
            <AltitudeMeters>42.40000152587890625</AltitudeMeters>
            <DistanceMeters>NAN</DistanceMeters>
          </Trackpoint>
          <Trackpoint>
            <Time>2022-07-16T14:41:23.000Z</Time>
            <Position>
              <LatitudeDegrees>43.450760431587696075439453125</LatitudeDegrees>
              <LongitudeDegrees>-5.008208937942981719970703125</LongitudeDegrees>
            </Position>
            <AltitudeMeters>42</AltitudeMeters>
            <DistanceMeters>NAN</DistanceMeters>
          </Trackpoint>
          <Trackpoint>
            <Time>2022-07-16T14:41:29.000Z</Time>
            <Position>
              <LatitudeDegrees>43.450850285589694976806640625</LatitudeDegrees>
              <LongitudeDegrees>-5.0084929168224334716796875</LongitudeDegrees>
            </Position>
            <AltitudeMeters>41.40000152587890625</AltitudeMeters>
            <DistanceMeters>NAN</DistanceMeters>
          </Trackpoint>
          <Trackpoint>
            <Time>2022-07-16T14:41:30.000Z</Time>
            <Position>
              <LatitudeDegrees>43.4508621878921985626220703125</LatitudeDegrees>
              <LongitudeDegrees>-5.0085423700511455535888671875</LongitudeDegrees>
            </Position>
            <AltitudeMeters>41.40000152587890625</AltitudeMeters>
            <DistanceMeters>NAN</DistanceMeters>
          </Trackpoint>
          <Trackpoint>
            <Time>2022-07-16T14:41:34.000Z</Time>
            <Position>
              <LatitudeDegrees>43.45093837939202785491943359375</LatitudeDegrees>
              <LongitudeDegrees>-5.0086577050387859344482421875</LongitudeDegrees>
            </Position>
            <AltitudeMeters>41.40000152587890625</AltitudeMeters>
            <DistanceMeters>NAN</DistanceMeters>
          </Trackpoint>
          <Trackpoint>
            <Time>2022-07-16T14:41:39.000Z</Time>
            <Position>
              <LatitudeDegrees>43.45101867802441120147705078125</LatitudeDegrees>
              <LongitudeDegrees>-5.00882157124578952789306640625</LongitudeDegrees>
            </Position>
            <AltitudeMeters>40.799999237060546875</AltitudeMeters>
            <DistanceMeters>NAN</DistanceMeters>
          </Trackpoint>
          <Trackpoint>
            <Time>2022-07-16T14:41:41.000Z</Time>
            <Position>
              <LatitudeDegrees>43.45105052925646305084228515625</LatitudeDegrees>
              <LongitudeDegrees>-5.0089225731790065765380859375</LongitudeDegrees>
            </Position>
            <AltitudeMeters>40.40000152587890625</AltitudeMeters>
            <DistanceMeters>NAN</DistanceMeters>
          </Trackpoint>
          <Trackpoint>
            <Time>2022-07-16T14:41:45.000Z</Time>
            <Position>
              <LatitudeDegrees>43.45110920257866382598876953125</LatitudeDegrees>
              <LongitudeDegrees>-5.0091366469860076904296875</LongitudeDegrees>
            </Position>
            <AltitudeMeters>40.40000152587890625</AltitudeMeters>
            <DistanceMeters>NAN</DistanceMeters>
          </Trackpoint>
          <Trackpoint>
            <Time>2022-07-16T14:41:50.000Z</Time>
            <Position>
              <LatitudeDegrees>43.4511719830334186553955078125</LatitudeDegrees>
              <LongitudeDegrees>-5.0093995034694671630859375</LongitudeDegrees>
            </Position>
            <AltitudeMeters>40</AltitudeMeters>
            <DistanceMeters>NAN</DistanceMeters>
          </Trackpoint>
          <Trackpoint>
            <Time>2022-07-16T14:41:52.000Z</Time>
            <Position>
              <LatitudeDegrees>43.45120760612189769744873046875</LatitudeDegrees>
              <LongitudeDegrees>-5.00949011184275150299072265625</LongitudeDegrees>
            </Position>
            <AltitudeMeters>39.799999237060546875</AltitudeMeters>
            <DistanceMeters>NAN</DistanceMeters>
          </Trackpoint>
          <Trackpoint>
            <Time>2022-07-16T14:41:54.000Z</Time>
            <Position>
              <LatitudeDegrees>43.45124850980937480926513671875</LatitudeDegrees>
              <LongitudeDegrees>-5.00958700664341449737548828125</LongitudeDegrees>
            </Position>
            <AltitudeMeters>39.59999847412109375</AltitudeMeters>
            <DistanceMeters>NAN</DistanceMeters>
          </Trackpoint>
          <Trackpoint>
            <Time>2022-07-16T14:41:56.000Z</Time>
            <Position>
              <LatitudeDegrees>43.45128824003040790557861328125</LatitudeDegrees>
              <LongitudeDegrees>-5.00969110988080501556396484375</LongitudeDegrees>
            </Position>
            <AltitudeMeters>39.200000762939453125</AltitudeMeters>
            <DistanceMeters>NAN</DistanceMeters>
          </Trackpoint>
          <Trackpoint>
            <Time>2022-07-16T14:41:58.000Z</Time>
            <Position>
              <LatitudeDegrees>43.45133685506880283355712890625</LatitudeDegrees>
              <LongitudeDegrees>-5.0097838975489139556884765625</LongitudeDegrees>
            </Position>
            <AltitudeMeters>38.40000152587890625</AltitudeMeters>
            <DistanceMeters>NAN</DistanceMeters>
          </Trackpoint>
          <Trackpoint>
            <Time>2022-07-16T14:41:59.000Z</Time>
            <Position>
              <LatitudeDegrees>43.451363258063793182373046875</LatitudeDegrees>
              <LongitudeDegrees>-5.009825639426708221435546875</LongitudeDegrees>
            </Position>
            <AltitudeMeters>38</AltitudeMeters>
            <DistanceMeters>NAN</DistanceMeters>
          </Trackpoint>
          <Trackpoint>
            <Time>2022-07-16T14:42:00.000Z</Time>
            <Position>
              <LatitudeDegrees>43.4513929300010204315185546875</LatitudeDegrees>
              <LongitudeDegrees>-5.00986696220934391021728515625</LongitudeDegrees>
            </Position>
            <AltitudeMeters>37.59999847412109375</AltitudeMeters>
            <DistanceMeters>NAN</DistanceMeters>
          </Trackpoint>
          <Trackpoint>
            <Time>2022-07-16T14:42:01.000Z</Time>
            <Position>
              <LatitudeDegrees>43.4513929300010204315185546875</LatitudeDegrees>
              <LongitudeDegrees>-5.00986696220934391021728515625</LongitudeDegrees>
            </Position>
            <AltitudeMeters>37</AltitudeMeters>
            <DistanceMeters>NAN</DistanceMeters>
          </Trackpoint>
          <Trackpoint>
            <Time>2022-07-16T14:42:04.000Z</Time>
            <Position>
              <LatitudeDegrees>43.45153315924108028411865234375</LatitudeDegrees>
              <LongitudeDegrees>-5.01003845594823360443115234375</LongitudeDegrees>
            </Position>
            <AltitudeMeters>36</AltitudeMeters>
            <DistanceMeters>NAN</DistanceMeters>
          </Trackpoint>
          <Trackpoint>
            <Time>2022-07-16T14:42:06.000Z</Time>
            <Position>
              <LatitudeDegrees>43.45158529467880725860595703125</LatitudeDegrees>
              <LongitudeDegrees>-5.01014021225273609161376953125</LongitudeDegrees>
            </Position>
            <AltitudeMeters>35.59999847412109375</AltitudeMeters>
            <DistanceMeters>NAN</DistanceMeters>
          </Trackpoint>
          <Trackpoint>
            <Time>2022-07-16T14:42:07.000Z</Time>
            <Position>
              <LatitudeDegrees>43.45160272903740406036376953125</LatitudeDegrees>
              <LongitudeDegrees>-5.0101909227669239044189453125</LongitudeDegrees>
            </Position>
            <AltitudeMeters>35.40000152587890625</AltitudeMeters>
            <DistanceMeters>NAN</DistanceMeters>
          </Trackpoint>
          <Trackpoint>
            <Time>2022-07-16T14:42:11.000Z</Time>
            <Position>
              <LatitudeDegrees>43.45162485726177692413330078125</LatitudeDegrees>
              <LongitudeDegrees>-5.010315142571926116943359375</LongitudeDegrees>
            </Position>
            <AltitudeMeters>35</AltitudeMeters>
            <DistanceMeters>NAN</DistanceMeters>
          </Trackpoint>
          <Trackpoint>
            <Time>2022-07-16T14:42:17.000Z</Time>
            <Position>
              <LatitudeDegrees>43.4515981189906597137451171875</LatitudeDegrees>
              <LongitudeDegrees>-5.01046459190547466278076171875</LongitudeDegrees>
            </Position>
            <AltitudeMeters>35.200000762939453125</AltitudeMeters>
            <DistanceMeters>NAN</DistanceMeters>
          </Trackpoint>
          <Trackpoint>
            <Time>2022-07-16T14:42:23.000Z</Time>
            <Position>
              <LatitudeDegrees>43.451524190604686737060546875</LatitudeDegrees>
              <LongitudeDegrees>-5.01066290773451328277587890625</LongitudeDegrees>
            </Position>
            <AltitudeMeters>35.200000762939453125</AltitudeMeters>
            <DistanceMeters>NAN</DistanceMeters>
          </Trackpoint>
          <Trackpoint>
            <Time>2022-07-16T14:42:27.000Z</Time>
            <Position>
              <LatitudeDegrees>43.45148638822138309478759765625</LatitudeDegrees>
              <LongitudeDegrees>-5.0108034722506999969482421875</LongitudeDegrees>
            </Position>
            <AltitudeMeters>35</AltitudeMeters>
            <DistanceMeters>NAN</DistanceMeters>
          </Trackpoint>
          <Trackpoint>
            <Time>2022-07-16T14:42:31.000Z</Time>
            <Position>
              <LatitudeDegrees>43.45142704434692859649658203125</LatitudeDegrees>
              <LongitudeDegrees>-5.010962896049022674560546875</LongitudeDegrees>
            </Position>
            <AltitudeMeters>35</AltitudeMeters>
            <DistanceMeters>NAN</DistanceMeters>
          </Trackpoint>
          <Trackpoint>
            <Time>2022-07-16T14:42:39.000Z</Time>
            <Position>
              <LatitudeDegrees>43.45132746733725070953369140625</LatitudeDegrees>
              <LongitudeDegrees>-5.01126539893448352813720703125</LongitudeDegrees>
            </Position>
            <AltitudeMeters>35.40000152587890625</AltitudeMeters>
            <DistanceMeters>NAN</DistanceMeters>
          </Trackpoint>
          <Trackpoint>
            <Time>2022-07-16T14:42:41.000Z</Time>
            <Position>
              <LatitudeDegrees>43.45129377208650112152099609375</LatitudeDegrees>
              <LongitudeDegrees>-5.01133915968239307403564453125</LongitudeDegrees>
            </Position>
            <AltitudeMeters>35.40000152587890625</AltitudeMeters>
            <DistanceMeters>NAN</DistanceMeters>
          </Trackpoint>
          <Trackpoint>
            <Time>2022-07-16T14:42:46.000Z</Time>
            <Position>
              <LatitudeDegrees>43.4512118808925151824951171875</LatitudeDegrees>
              <LongitudeDegrees>-5.011485926806926727294921875</LongitudeDegrees>
            </Position>
            <AltitudeMeters>35.59999847412109375</AltitudeMeters>
            <DistanceMeters>NAN</DistanceMeters>
          </Trackpoint>
          <Trackpoint>
            <Time>2022-07-16T14:42:50.000Z</Time>
            <Position>
              <LatitudeDegrees>43.45115580596029758453369140625</LatitudeDegrees>
              <LongitudeDegrees>-5.0115920417010784149169921875</LongitudeDegrees>
            </Position>
            <AltitudeMeters>36.200000762939453125</AltitudeMeters>
            <DistanceMeters>NAN</DistanceMeters>
          </Trackpoint>
          <Trackpoint>
            <Time>2022-07-16T14:42:53.000Z</Time>
            <Position>
              <LatitudeDegrees>43.45112948678433895111083984375</LatitudeDegrees>
              <LongitudeDegrees>-5.011681057512760162353515625</LongitudeDegrees>
            </Position>
            <AltitudeMeters>36.59999847412109375</AltitudeMeters>
            <DistanceMeters>NAN</DistanceMeters>
          </Trackpoint>
          <Trackpoint>
            <Time>2022-07-16T14:43:02.000Z</Time>
            <Position>
              <LatitudeDegrees>43.4510351903736591339111328125</LatitudeDegrees>
              <LongitudeDegrees>-5.01192606054246425628662109375</LongitudeDegrees>
            </Position>
            <AltitudeMeters>36.799999237060546875</AltitudeMeters>
            <DistanceMeters>NAN</DistanceMeters>
          </Trackpoint>
          <Trackpoint>
            <Time>2022-07-16T14:43:08.000Z</Time>
            <Position>
              <LatitudeDegrees>43.450970984995365142822265625</LatitudeDegrees>
              <LongitudeDegrees>-5.01206955872476100921630859375</LongitudeDegrees>
            </Position>
            <AltitudeMeters>37.200000762939453125</AltitudeMeters>
            <DistanceMeters>NAN</DistanceMeters>
          </Trackpoint>
          <Trackpoint>
            <Time>2022-07-16T14:43:11.000Z</Time>
            <Position>
              <LatitudeDegrees>43.45093804411590099334716796875</LatitudeDegrees>
              <LongitudeDegrees>-5.01215069554746150970458984375</LongitudeDegrees>
            </Position>
            <AltitudeMeters>37.59999847412109375</AltitudeMeters>
            <DistanceMeters>NAN</DistanceMeters>
          </Trackpoint>
          <Trackpoint>
            <Time>2022-07-16T14:43:19.000Z</Time>
            <Position>
              <LatitudeDegrees>43.4509255550801753997802734375</LatitudeDegrees>
              <LongitudeDegrees>-5.01232235692441463470458984375</LongitudeDegrees>
            </Position>
            <AltitudeMeters>38.200000762939453125</AltitudeMeters>
            <DistanceMeters>NAN</DistanceMeters>
          </Trackpoint>
          <Trackpoint>
            <Time>2022-07-16T14:43:22.000Z</Time>
            <Position>
              <LatitudeDegrees>43.45093117095530033111572265625</LatitudeDegrees>
              <LongitudeDegrees>-5.01237700693309307098388671875</LongitudeDegrees>
            </Position>
            <AltitudeMeters>38.40000152587890625</AltitudeMeters>
            <DistanceMeters>NAN</DistanceMeters>
          </Trackpoint>
          <Trackpoint>
            <Time>2022-07-16T14:43:29.000Z</Time>
            <Position>
              <LatitudeDegrees>43.4509450010955333709716796875</LatitudeDegrees>
              <LongitudeDegrees>-5.012513883411884307861328125</LongitudeDegrees>
            </Position>
            <AltitudeMeters>39.200000762939453125</AltitudeMeters>
            <DistanceMeters>NAN</DistanceMeters>
          </Trackpoint>
          <Trackpoint>
            <Time>2022-07-16T14:43:30.000Z</Time>
            <Position>
              <LatitudeDegrees>43.45094659365713596343994140625</LatitudeDegrees>
              <LongitudeDegrees>-5.0125314854085445404052734375</LongitudeDegrees>
            </Position>
            <AltitudeMeters>39.40000152587890625</AltitudeMeters>
            <DistanceMeters>NAN</DistanceMeters>
          </Trackpoint>
          <Trackpoint>
            <Time>2022-07-16T14:43:32.000Z</Time>
            <Position>
              <LatitudeDegrees>43.450952209532260894775390625</LatitudeDegrees>
              <LongitudeDegrees>-5.01256861723959445953369140625</LongitudeDegrees>
            </Position>
            <AltitudeMeters>39.59999847412109375</AltitudeMeters>
            <DistanceMeters>NAN</DistanceMeters>
          </Trackpoint>
          <Trackpoint>
            <Time>2022-07-16T14:43:36.000Z</Time>
            <Position>
              <LatitudeDegrees>43.45096050761640071868896484375</LatitudeDegrees>
              <LongitudeDegrees>-5.01263760030269622802734375</LongitudeDegrees>
            </Position>
            <AltitudeMeters>40</AltitudeMeters>
            <DistanceMeters>NAN</DistanceMeters>
          </Trackpoint>
          <Trackpoint>
            <Time>2022-07-16T14:43:37.000Z</Time>
            <Position>
              <LatitudeDegrees>43.45096101053059101104736328125</LatitudeDegrees>
              <LongitudeDegrees>-5.01265578903257846832275390625</LongitudeDegrees>
            </Position>
            <AltitudeMeters>40.200000762939453125</AltitudeMeters>
            <DistanceMeters>NAN</DistanceMeters>
          </Trackpoint>
          <Trackpoint>
            <Time>2022-07-16T14:43:40.000Z</Time>
            <Position>
              <LatitudeDegrees>43.45097064971923828125</LatitudeDegrees>
              <LongitudeDegrees>-5.01271395944058895111083984375</LongitudeDegrees>
            </Position>
            <AltitudeMeters>40.59999847412109375</AltitudeMeters>
            <DistanceMeters>NAN</DistanceMeters>
          </Trackpoint>
          <Trackpoint>
            <Time>2022-07-16T14:43:43.000Z</Time>
            <Position>
              <LatitudeDegrees>43.45098204910755157470703125</LatitudeDegrees>
              <LongitudeDegrees>-5.01276743598282337188720703125</LongitudeDegrees>
            </Position>
            <AltitudeMeters>41</AltitudeMeters>
            <DistanceMeters>NAN</DistanceMeters>
          </Trackpoint>
          <Trackpoint>
            <Time>2022-07-16T14:43:45.000Z</Time>
            <Position>
              <LatitudeDegrees>43.4509892575442790985107421875</LatitudeDegrees>
              <LongitudeDegrees>-5.01280725002288818359375</LongitudeDegrees>
            </Position>
            <AltitudeMeters>41.200000762939453125</AltitudeMeters>
            <DistanceMeters>NAN</DistanceMeters>
          </Trackpoint>
          <Trackpoint>
            <Time>2022-07-16T14:43:50.000Z</Time>
            <Position>
              <LatitudeDegrees>43.45100727863609790802001953125</LatitudeDegrees>
              <LongitudeDegrees>-5.012897439301013946533203125</LongitudeDegrees>
            </Position>
            <AltitudeMeters>41.799999237060546875</AltitudeMeters>
            <DistanceMeters>NAN</DistanceMeters>
          </Trackpoint>
          <Trackpoint>
            <Time>2022-07-16T14:43:54.000Z</Time>
            <Position>
              <LatitudeDegrees>43.451025970280170440673828125</LatitudeDegrees>
              <LongitudeDegrees>-5.01296357251703739166259765625</LongitudeDegrees>
            </Position>
            <AltitudeMeters>42.200000762939453125</AltitudeMeters>
            <DistanceMeters>NAN</DistanceMeters>
          </Trackpoint>
          <Trackpoint>
            <Time>2022-07-16T14:44:00.000Z</Time>
            <Position>
              <LatitudeDegrees>43.4510439075529575347900390625</LatitudeDegrees>
              <LongitudeDegrees>-5.013069771230220794677734375</LongitudeDegrees>
            </Position>
            <AltitudeMeters>42.799999237060546875</AltitudeMeters>
            <DistanceMeters>NAN</DistanceMeters>
          </Trackpoint>
          <Trackpoint>
            <Time>2022-07-16T14:44:01.000Z</Time>
            <Position>
              <LatitudeDegrees>43.45104667358100414276123046875</LatitudeDegrees>
              <LongitudeDegrees>-5.01308779232203960418701171875</LongitudeDegrees>
            </Position>
            <AltitudeMeters>42.799999237060546875</AltitudeMeters>
            <DistanceMeters>NAN</DistanceMeters>
          </Trackpoint>
          <Trackpoint>
            <Time>2022-07-16T14:44:02.000Z</Time>
            <Position>
              <LatitudeDegrees>43.45105044543743133544921875</LatitudeDegrees>
              <LongitudeDegrees>-5.0131061486899852752685546875</LongitudeDegrees>
            </Position>
            <AltitudeMeters>43</AltitudeMeters>
            <DistanceMeters>NAN</DistanceMeters>
          </Trackpoint>
          <Trackpoint>
            <Time>2022-07-16T14:44:11.000Z</Time>
            <Position>
              <LatitudeDegrees>43.451074920594692230224609375</LatitudeDegrees>
              <LongitudeDegrees>-5.01326599158346652984619140625</LongitudeDegrees>
            </Position>
            <AltitudeMeters>43.799999237060546875</AltitudeMeters>
            <DistanceMeters>NAN</DistanceMeters>
          </Trackpoint>
          <Trackpoint>
            <Time>2022-07-16T14:44:12.000Z</Time>
            <Position>
              <LatitudeDegrees>43.45107751898467540740966796875</LatitudeDegrees>
              <LongitudeDegrees>-5.01328543759882450103759765625</LongitudeDegrees>
            </Position>
            <AltitudeMeters>43.799999237060546875</AltitudeMeters>
            <DistanceMeters>NAN</DistanceMeters>
          </Trackpoint>
          <Trackpoint>
            <Time>2022-07-16T14:44:21.000Z</Time>
            <Position>
              <LatitudeDegrees>43.451084978878498077392578125</LatitudeDegrees>
              <LongitudeDegrees>-5.0134710967540740966796875</LongitudeDegrees>
            </Position>
            <AltitudeMeters>44.799999237060546875</AltitudeMeters>
            <DistanceMeters>NAN</DistanceMeters>
          </Trackpoint>
          <Trackpoint>
            <Time>2022-07-16T14:44:25.000Z</Time>
            <Position>
              <LatitudeDegrees>43.4510792791843414306640625</LatitudeDegrees>
              <LongitudeDegrees>-5.01357578672468662261962890625</LongitudeDegrees>
            </Position>
            <AltitudeMeters>44.799999237060546875</AltitudeMeters>
            <DistanceMeters>NAN</DistanceMeters>
          </Trackpoint>
          <Trackpoint>
            <Time>2022-07-16T14:44:29.000Z</Time>
            <Position>
              <LatitudeDegrees>43.45106829889118671417236328125</LatitudeDegrees>
              <LongitudeDegrees>-5.0136829912662506103515625</LongitudeDegrees>
            </Position>
            <AltitudeMeters>45.200000762939453125</AltitudeMeters>
            <DistanceMeters>NAN</DistanceMeters>
          </Trackpoint>
          <Trackpoint>
            <Time>2022-07-16T14:44:36.000Z</Time>
            <Position>
              <LatitudeDegrees>43.4510670416057109832763671875</LatitudeDegrees>
              <LongitudeDegrees>-5.01388482749462127685546875</LongitudeDegrees>
            </Position>
            <AltitudeMeters>45.200000762939453125</AltitudeMeters>
            <DistanceMeters>NAN</DistanceMeters>
          </Trackpoint>
          <Trackpoint>
            <Time>2022-07-16T14:44:40.000Z</Time>
            <Position>
              <LatitudeDegrees>43.45106109045445919036865234375</LatitudeDegrees>
              <LongitudeDegrees>-5.01400359906256198883056640625</LongitudeDegrees>
            </Position>
            <AltitudeMeters>45.59999847412109375</AltitudeMeters>
            <DistanceMeters>NAN</DistanceMeters>
          </Trackpoint>
          <Trackpoint>
            <Time>2022-07-16T14:44:45.000Z</Time>
            <Position>
              <LatitudeDegrees>43.45105287618935108184814453125</LatitudeDegrees>
              <LongitudeDegrees>-5.014140643179416656494140625</LongitudeDegrees>
            </Position>
            <AltitudeMeters>45.799999237060546875</AltitudeMeters>
            <DistanceMeters>NAN</DistanceMeters>
          </Trackpoint>
          <Trackpoint>
            <Time>2022-07-16T14:44:50.000Z</Time>
            <Position>
              <LatitudeDegrees>43.4510449133813381195068359375</LatitudeDegrees>
              <LongitudeDegrees>-5.01426033675670623779296875</LongitudeDegrees>
            </Position>
            <AltitudeMeters>45.799999237060546875</AltitudeMeters>
            <DistanceMeters>NAN</DistanceMeters>
          </Trackpoint>
          <Trackpoint>
            <Time>2022-07-16T14:44:58.000Z</Time>
            <Position>
              <LatitudeDegrees>43.45103393308818340301513671875</LatitudeDegrees>
              <LongitudeDegrees>-5.014476589858531951904296875</LongitudeDegrees>
            </Position>
            <AltitudeMeters>46.40000152587890625</AltitudeMeters>
            <DistanceMeters>NAN</DistanceMeters>
          </Trackpoint>
          <Trackpoint>
            <Time>2022-07-16T14:45:05.000Z</Time>
            <Position>
              <LatitudeDegrees>43.45102437771856784820556640625</LatitudeDegrees>
              <LongitudeDegrees>-5.01464112661778926849365234375</LongitudeDegrees>
            </Position>
            <AltitudeMeters>46.799999237060546875</AltitudeMeters>
            <DistanceMeters>NAN</DistanceMeters>
          </Trackpoint>
          <Trackpoint>
            <Time>2022-07-16T14:45:06.000Z</Time>
            <Position>
              <LatitudeDegrees>43.4510242938995361328125</LatitudeDegrees>
              <LongitudeDegrees>-5.01466845162212848663330078125</LongitudeDegrees>
            </Position>
            <AltitudeMeters>47</AltitudeMeters>
            <DistanceMeters>NAN</DistanceMeters>
          </Trackpoint>
          <Trackpoint>
            <Time>2022-07-16T14:45:13.000Z</Time>
            <Position>
              <LatitudeDegrees>43.4510244615375995635986328125</LatitudeDegrees>
              <LongitudeDegrees>-5.0148287974298000335693359375</LongitudeDegrees>
            </Position>
            <AltitudeMeters>47.200000762939453125</AltitudeMeters>
            <DistanceMeters>NAN</DistanceMeters>
          </Trackpoint>
          <Trackpoint>
            <Time>2022-07-16T14:45:19.000Z</Time>
            <Position>
              <LatitudeDegrees>43.45102454535663127899169921875</LatitudeDegrees>
              <LongitudeDegrees>-5.01498595811426639556884765625</LongitudeDegrees>
            </Position>
            <AltitudeMeters>47.799999237060546875</AltitudeMeters>
            <DistanceMeters>NAN</DistanceMeters>
          </Trackpoint>
          <Trackpoint>
            <Time>2022-07-16T14:45:25.000Z</Time>
            <Position>
              <LatitudeDegrees>43.45106628723442554473876953125</LatitudeDegrees>
              <LongitudeDegrees>-5.015206150710582733154296875</LongitudeDegrees>
            </Position>
            <AltitudeMeters>47.59999847412109375</AltitudeMeters>
            <DistanceMeters>NAN</DistanceMeters>
          </Trackpoint>
          <Trackpoint>
            <Time>2022-07-16T14:45:31.000Z</Time>
            <Position>
              <LatitudeDegrees>43.45115312375128269195556640625</LatitudeDegrees>
              <LongitudeDegrees>-5.01548903994262218475341796875</LongitudeDegrees>
            </Position>
            <AltitudeMeters>47.200000762939453125</AltitudeMeters>
            <DistanceMeters>NAN</DistanceMeters>
          </Trackpoint>
          <Trackpoint>
            <Time>2022-07-16T14:45:37.000Z</Time>
            <Position>
              <LatitudeDegrees>43.4512611664831638336181640625</LatitudeDegrees>
              <LongitudeDegrees>-5.01580922864377498626708984375</LongitudeDegrees>
            </Position>
            <AltitudeMeters>46.59999847412109375</AltitudeMeters>
            <DistanceMeters>NAN</DistanceMeters>
          </Trackpoint>
          <Trackpoint>
            <Time>2022-07-16T14:45:38.000Z</Time>
            <Position>
              <LatitudeDegrees>43.45127851702272891998291015625</LatitudeDegrees>
              <LongitudeDegrees>-5.01586169935762882232666015625</LongitudeDegrees>
            </Position>
            <AltitudeMeters>46.40000152587890625</AltitudeMeters>
            <DistanceMeters>NAN</DistanceMeters>
          </Trackpoint>
          <Trackpoint>
            <Time>2022-07-16T14:45:40.000Z</Time>
            <Position>
              <LatitudeDegrees>43.45131103880703449249267578125</LatitudeDegrees>
              <LongitudeDegrees>-5.0159575045108795166015625</LongitudeDegrees>
            </Position>
            <AltitudeMeters>46</AltitudeMeters>
            <DistanceMeters>NAN</DistanceMeters>
          </Trackpoint>
          <Trackpoint>
            <Time>2022-07-16T14:45:44.000Z</Time>
            <Position>
              <LatitudeDegrees>43.45134674571454524993896484375</LatitudeDegrees>
              <LongitudeDegrees>-5.0161492824554443359375</LongitudeDegrees>
            </Position>
            <AltitudeMeters>46</AltitudeMeters>
            <DistanceMeters>NAN</DistanceMeters>
          </Trackpoint>
          <Trackpoint>
            <Time>2022-07-16T14:45:52.000Z</Time>
            <Position>
              <LatitudeDegrees>43.4514351747930049896240234375</LatitudeDegrees>
              <LongitudeDegrees>-5.01647072844207286834716796875</LongitudeDegrees>
            </Position>
            <AltitudeMeters>46</AltitudeMeters>
            <DistanceMeters>NAN</DistanceMeters>
          </Trackpoint>
          <Trackpoint>
            <Time>2022-07-16T14:45:53.000Z</Time>
            <Position>
              <LatitudeDegrees>43.45145151950418949127197265625</LatitudeDegrees>
              <LongitudeDegrees>-5.01651146449148654937744140625</LongitudeDegrees>
            </Position>
            <AltitudeMeters>45.799999237060546875</AltitudeMeters>
            <DistanceMeters>NAN</DistanceMeters>
          </Trackpoint>
          <Trackpoint>
            <Time>2022-07-16T14:46:01.000Z</Time>
            <Position>
              <LatitudeDegrees>43.45158445648849010467529296875</LatitudeDegrees>
              <LongitudeDegrees>-5.016908682882785797119140625</LongitudeDegrees>
            </Position>
            <AltitudeMeters>45.200000762939453125</AltitudeMeters>
            <DistanceMeters>NAN</DistanceMeters>
          </Trackpoint>
          <Trackpoint>
            <Time>2022-07-16T14:46:05.000Z</Time>
            <Position>
              <LatitudeDegrees>43.451654948294162750244140625</LatitudeDegrees>
              <LongitudeDegrees>-5.0171341560781002044677734375</LongitudeDegrees>
            </Position>
            <AltitudeMeters>44.799999237060546875</AltitudeMeters>
            <DistanceMeters>NAN</DistanceMeters>
          </Trackpoint>
          <Trackpoint>
            <Time>2022-07-16T14:46:10.000Z</Time>
            <Position>
              <LatitudeDegrees>43.451746143400669097900390625</LatitudeDegrees>
              <LongitudeDegrees>-5.01741251908242702484130859375</LongitudeDegrees>
            </Position>
            <AltitudeMeters>44</AltitudeMeters>
            <DistanceMeters>NAN</DistanceMeters>
          </Trackpoint>
          <Trackpoint>
            <Time>2022-07-16T14:46:15.000Z</Time>
            <Position>
              <LatitudeDegrees>43.4518495760858058929443359375</LatitudeDegrees>
              <LongitudeDegrees>-5.01765123568475246429443359375</LongitudeDegrees>
            </Position>
            <AltitudeMeters>43.799999237060546875</AltitudeMeters>
            <DistanceMeters>NAN</DistanceMeters>
          </Trackpoint>
          <Trackpoint>
            <Time>2022-07-16T14:46:18.000Z</Time>
            <Position>
              <LatitudeDegrees>43.451925180852413177490234375</LatitudeDegrees>
              <LongitudeDegrees>-5.017775706946849822998046875</LongitudeDegrees>
            </Position>
            <AltitudeMeters>43.799999237060546875</AltitudeMeters>
            <DistanceMeters>NAN</DistanceMeters>
          </Trackpoint>
          <Trackpoint>
            <Time>2022-07-16T14:46:21.000Z</Time>
            <Position>
              <LatitudeDegrees>43.45200137235224246978759765625</LatitudeDegrees>
              <LongitudeDegrees>-5.0179039500653743743896484375</LongitudeDegrees>
            </Position>
            <AltitudeMeters>43.59999847412109375</AltitudeMeters>
            <DistanceMeters>NAN</DistanceMeters>
          </Trackpoint>
          <Trackpoint>
            <Time>2022-07-16T14:46:26.000Z</Time>
            <Position>
              <LatitudeDegrees>43.4521570242941379547119140625</LatitudeDegrees>
              <LongitudeDegrees>-5.018143169581890106201171875</LongitudeDegrees>
            </Position>
            <AltitudeMeters>42.799999237060546875</AltitudeMeters>
            <DistanceMeters>NAN</DistanceMeters>
          </Trackpoint>
          <Trackpoint>
            <Time>2022-07-16T14:46:28.000Z</Time>
            <Position>
              <LatitudeDegrees>43.4522217325866222381591796875</LatitudeDegrees>
              <LongitudeDegrees>-5.0182385556399822235107421875</LongitudeDegrees>
            </Position>
            <AltitudeMeters>42.59999847412109375</AltitudeMeters>
            <DistanceMeters>NAN</DistanceMeters>
          </Trackpoint>
          <Trackpoint>
            <Time>2022-07-16T14:46:33.000Z</Time>
            <Position>
              <LatitudeDegrees>43.45233446918427944183349609375</LatitudeDegrees>
              <LongitudeDegrees>-5.01848204992711544036865234375</LongitudeDegrees>
            </Position>
            <AltitudeMeters>42.200000762939453125</AltitudeMeters>
            <DistanceMeters>NAN</DistanceMeters>
          </Trackpoint>
          <Trackpoint>
            <Time>2022-07-16T14:46:40.000Z</Time>
            <Position>
              <LatitudeDegrees>43.45245592296123504638671875</LatitudeDegrees>
              <LongitudeDegrees>-5.018792264163494110107421875</LongitudeDegrees>
            </Position>
            <AltitudeMeters>41.799999237060546875</AltitudeMeters>
            <DistanceMeters>NAN</DistanceMeters>
          </Trackpoint>
          <Trackpoint>
            <Time>2022-07-16T14:46:46.000Z</Time>
            <Position>
              <LatitudeDegrees>43.45260654576122760772705078125</LatitudeDegrees>
              <LongitudeDegrees>-5.01897339709103107452392578125</LongitudeDegrees>
            </Position>
            <AltitudeMeters>41.799999237060546875</AltitudeMeters>
            <DistanceMeters>NAN</DistanceMeters>
          </Trackpoint>
          <Trackpoint>
            <Time>2022-07-16T14:46:56.000Z</Time>
            <Position>
              <LatitudeDegrees>43.45282665453851222991943359375</LatitudeDegrees>
              <LongitudeDegrees>-5.01925863325595855712890625</LongitudeDegrees>
            </Position>
            <AltitudeMeters>42</AltitudeMeters>
            <DistanceMeters>NAN</DistanceMeters>
          </Trackpoint>
          <Trackpoint>
            <Time>2022-07-16T14:47:02.000Z</Time>
            <Position>
              <LatitudeDegrees>43.4529070369899272918701171875</LatitudeDegrees>
              <LongitudeDegrees>-5.01938712783157825469970703125</LongitudeDegrees>
            </Position>
            <AltitudeMeters>42.799999237060546875</AltitudeMeters>
            <DistanceMeters>NAN</DistanceMeters>
          </Trackpoint>
          <Trackpoint>
            <Time>2022-07-16T14:47:07.000Z</Time>
            <Position>
              <LatitudeDegrees>43.45295908860862255096435546875</LatitudeDegrees>
              <LongitudeDegrees>-5.0194649957120418548583984375</LongitudeDegrees>
            </Position>
            <AltitudeMeters>43.59999847412109375</AltitudeMeters>
            <DistanceMeters>NAN</DistanceMeters>
          </Trackpoint>
          <Trackpoint>
            <Time>2022-07-16T14:47:09.000Z</Time>
            <Position>
              <LatitudeDegrees>43.45297182910144329071044921875</LatitudeDegrees>
              <LongitudeDegrees>-5.0195028819143772125244140625</LongitudeDegrees>
            </Position>
            <AltitudeMeters>43.799999237060546875</AltitudeMeters>
            <DistanceMeters>NAN</DistanceMeters>
          </Trackpoint>
          <Trackpoint>
            <Time>2022-07-16T14:47:13.000Z</Time>
            <Position>
              <LatitudeDegrees>43.45299638807773590087890625</LatitudeDegrees>
              <LongitudeDegrees>-5.01958359964191913604736328125</LongitudeDegrees>
            </Position>
            <AltitudeMeters>44.59999847412109375</AltitudeMeters>
            <DistanceMeters>NAN</DistanceMeters>
          </Trackpoint>
          <Trackpoint>
            <Time>2022-07-16T14:47:14.000Z</Time>
            <Position>
              <LatitudeDegrees>43.45300200395286083221435546875</LatitudeDegrees>
              <LongitudeDegrees>-5.019604973495006561279296875</LongitudeDegrees>
            </Position>
            <AltitudeMeters>44.799999237060546875</AltitudeMeters>
            <DistanceMeters>NAN</DistanceMeters>
          </Trackpoint>
          <Trackpoint>
            <Time>2022-07-16T14:47:18.000Z</Time>
            <Position>
              <LatitudeDegrees>43.45302782021462917327880859375</LatitudeDegrees>
              <LongitudeDegrees>-5.01969323493540287017822265625</LongitudeDegrees>
            </Position>
            <AltitudeMeters>45</AltitudeMeters>
            <DistanceMeters>NAN</DistanceMeters>
          </Trackpoint>
          <Trackpoint>
            <Time>2022-07-16T14:47:24.000Z</Time>
            <Position>
              <LatitudeDegrees>43.4530555643141269683837890625</LatitudeDegrees>
              <LongitudeDegrees>-5.0198197178542613983154296875</LongitudeDegrees>
            </Position>
            <AltitudeMeters>45.59999847412109375</AltitudeMeters>
            <DistanceMeters>NAN</DistanceMeters>
          </Trackpoint>
          <Trackpoint>
            <Time>2022-07-16T14:47:27.000Z</Time>
            <Position>
              <LatitudeDegrees>43.45307148993015289306640625</LatitudeDegrees>
              <LongitudeDegrees>-5.01987160183489322662353515625</LongitudeDegrees>
            </Position>
            <AltitudeMeters>46</AltitudeMeters>
            <DistanceMeters>NAN</DistanceMeters>
          </Trackpoint>
          <Trackpoint>
            <Time>2022-07-16T14:47:31.000Z</Time>
            <Position>
              <LatitudeDegrees>43.4530854038894176483154296875</LatitudeDegrees>
              <LongitudeDegrees>-5.01993832178413867950439453125</LongitudeDegrees>
            </Position>
            <AltitudeMeters>46.59999847412109375</AltitudeMeters>
            <DistanceMeters>NAN</DistanceMeters>
          </Trackpoint>
          <Trackpoint>
            <Time>2022-07-16T14:47:36.000Z</Time>
            <Position>
              <LatitudeDegrees>43.45311381854116916656494140625</LatitudeDegrees>
              <LongitudeDegrees>-5.020014345645904541015625</LongitudeDegrees>
            </Position>
            <AltitudeMeters>47.59999847412109375</AltitudeMeters>
            <DistanceMeters>NAN</DistanceMeters>
          </Trackpoint>
          <Trackpoint>
            <Time>2022-07-16T14:47:37.000Z</Time>
            <Position>
              <LatitudeDegrees>43.45312119461596012115478515625</LatitudeDegrees>
              <LongitudeDegrees>-5.020030774176120758056640625</LongitudeDegrees>
            </Position>
            <AltitudeMeters>47.799999237060546875</AltitudeMeters>
            <DistanceMeters>NAN</DistanceMeters>
          </Trackpoint>
          <Trackpoint>
            <Time>2022-07-16T14:47:45.000Z</Time>
            <Position>
              <LatitudeDegrees>43.45318238250911235809326171875</LatitudeDegrees>
              <LongitudeDegrees>-5.0201653875410556793212890625</LongitudeDegrees>
            </Position>
            <AltitudeMeters>48.40000152587890625</AltitudeMeters>
            <DistanceMeters>NAN</DistanceMeters>
          </Trackpoint>
          <Trackpoint>
            <Time>2022-07-16T14:47:52.000Z</Time>
            <Position>
              <LatitudeDegrees>43.45322630368173122406005859375</LatitudeDegrees>
              <LongitudeDegrees>-5.0203541480004787445068359375</LongitudeDegrees>
            </Position>
            <AltitudeMeters>48.59999847412109375</AltitudeMeters>
            <DistanceMeters>NAN</DistanceMeters>
          </Trackpoint>
          <Trackpoint>
            <Time>2022-07-16T14:47:59.000Z</Time>
            <Position>
              <LatitudeDegrees>43.45337114296853542327880859375</LatitudeDegrees>
              <LongitudeDegrees>-5.0205978937447071075439453125</LongitudeDegrees>
            </Position>
            <AltitudeMeters>48</AltitudeMeters>
            <DistanceMeters>NAN</DistanceMeters>
          </Trackpoint>
          <Trackpoint>
            <Time>2022-07-16T14:48:09.000Z</Time>
            <Position>
              <LatitudeDegrees>43.453605584800243377685546875</LatitudeDegrees>
              <LongitudeDegrees>-5.02096527256071567535400390625</LongitudeDegrees>
            </Position>
            <AltitudeMeters>47</AltitudeMeters>
            <DistanceMeters>NAN</DistanceMeters>
          </Trackpoint>
          <Trackpoint>
            <Time>2022-07-16T14:48:15.000Z</Time>
            <Position>
              <LatitudeDegrees>43.4537526033818721771240234375</LatitudeDegrees>
              <LongitudeDegrees>-5.0211453996598720550537109375</LongitudeDegrees>
            </Position>
            <AltitudeMeters>47</AltitudeMeters>
            <DistanceMeters>NAN</DistanceMeters>
          </Trackpoint>
          <Trackpoint>
            <Time>2022-07-16T14:48:18.000Z</Time>
            <Position>
              <LatitudeDegrees>43.453824184834957122802734375</LatitudeDegrees>
              <LongitudeDegrees>-5.021224357187747955322265625</LongitudeDegrees>
            </Position>
            <AltitudeMeters>46.59999847412109375</AltitudeMeters>
            <DistanceMeters>NAN</DistanceMeters>
          </Trackpoint>
          <Trackpoint>
            <Time>2022-07-16T14:48:25.000Z</Time>
            <Position>
              <LatitudeDegrees>43.45402476377785205841064453125</LatitudeDegrees>
              <LongitudeDegrees>-5.02141705714166164398193359375</LongitudeDegrees>
            </Position>
            <AltitudeMeters>46</AltitudeMeters>
            <DistanceMeters>NAN</DistanceMeters>
          </Trackpoint>
          <Trackpoint>
            <Time>2022-07-16T14:48:31.000Z</Time>
            <Position>
              <LatitudeDegrees>43.45413875766098499298095703125</LatitudeDegrees>
              <LongitudeDegrees>-5.02163104712963104248046875</LongitudeDegrees>
            </Position>
            <AltitudeMeters>46</AltitudeMeters>
            <DistanceMeters>NAN</DistanceMeters>
          </Trackpoint>
          <Trackpoint>
            <Time>2022-07-16T14:48:36.000Z</Time>
            <Position>
              <LatitudeDegrees>43.45421117730438709259033203125</LatitudeDegrees>
              <LongitudeDegrees>-5.0217841006815433502197265625</LongitudeDegrees>
            </Position>
            <AltitudeMeters>46.200000762939453125</AltitudeMeters>
            <DistanceMeters>NAN</DistanceMeters>
          </Trackpoint>
          <Trackpoint>
            <Time>2022-07-16T14:48:39.000Z</Time>
            <Position>
              <LatitudeDegrees>43.45426113344728946685791015625</LatitudeDegrees>
              <LongitudeDegrees>-5.02187185920774936676025390625</LongitudeDegrees>
            </Position>
            <AltitudeMeters>46.40000152587890625</AltitudeMeters>
            <DistanceMeters>NAN</DistanceMeters>
          </Trackpoint>
          <Trackpoint>
            <Time>2022-07-16T14:48:40.000Z</Time>
            <Position>
              <LatitudeDegrees>43.45427588559687137603759765625</LatitudeDegrees>
              <LongitudeDegrees>-5.0219017826020717620849609375</LongitudeDegrees>
            </Position>
            <AltitudeMeters>46.40000152587890625</AltitudeMeters>
            <DistanceMeters>NAN</DistanceMeters>
          </Trackpoint>
          <Trackpoint>
            <Time>2022-07-16T14:48:41.000Z</Time>
            <Position>
              <LatitudeDegrees>43.454288542270660400390625</LatitudeDegrees>
              <LongitudeDegrees>-5.02193204127252101898193359375</LongitudeDegrees>
            </Position>
            <AltitudeMeters>46.40000152587890625</AltitudeMeters>
            <DistanceMeters>NAN</DistanceMeters>
          </Trackpoint>
          <Trackpoint>
            <Time>2022-07-16T14:48:47.000Z</Time>
            <Position>
              <LatitudeDegrees>43.45435090363025665283203125</LatitudeDegrees>
              <LongitudeDegrees>-5.0221089832484722137451171875</LongitudeDegrees>
            </Position>
            <AltitudeMeters>46.59999847412109375</AltitudeMeters>
            <DistanceMeters>NAN</DistanceMeters>
          </Trackpoint>
          <Trackpoint>
            <Time>2022-07-16T14:48:56.000Z</Time>
            <Position>
              <LatitudeDegrees>43.454428017139434814453125</LatitudeDegrees>
              <LongitudeDegrees>-5.02233822830021381378173828125</LongitudeDegrees>
            </Position>
            <AltitudeMeters>47.40000152587890625</AltitudeMeters>
            <DistanceMeters>NAN</DistanceMeters>
          </Trackpoint>
          <Trackpoint>
            <Time>2022-07-16T14:48:58.000Z</Time>
            <Position>
              <LatitudeDegrees>43.45444704405963420867919921875</LatitudeDegrees>
              <LongitudeDegrees>-5.022374689579010009765625</LongitudeDegrees>
            </Position>
            <AltitudeMeters>47.799999237060546875</AltitudeMeters>
            <DistanceMeters>NAN</DistanceMeters>
          </Trackpoint>
          <Trackpoint>
            <Time>2022-07-16T14:49:01.000Z</Time>
            <Position>
              <LatitudeDegrees>43.45447017811238765716552734375</LatitudeDegrees>
              <LongitudeDegrees>-5.0224435888230800628662109375</LongitudeDegrees>
            </Position>
            <AltitudeMeters>48</AltitudeMeters>
            <DistanceMeters>NAN</DistanceMeters>
          </Trackpoint>
          <Trackpoint>
            <Time>2022-07-16T14:49:02.000Z</Time>
            <Position>
              <LatitudeDegrees>43.454481326043605804443359375</LatitudeDegrees>
              <LongitudeDegrees>-5.022465549409389495849609375</LongitudeDegrees>
            </Position>
            <AltitudeMeters>48</AltitudeMeters>
            <DistanceMeters>NAN</DistanceMeters>
          </Trackpoint>
          <Trackpoint>
            <Time>2022-07-16T14:49:11.000Z</Time>
            <Position>
              <LatitudeDegrees>43.45457159914076328277587890625</LatitudeDegrees>
              <LongitudeDegrees>-5.02264559268951416015625</LongitudeDegrees>
            </Position>
            <AltitudeMeters>48.200000762939453125</AltitudeMeters>
            <DistanceMeters>NAN</DistanceMeters>
          </Trackpoint>
          <Trackpoint>
            <Time>2022-07-16T14:49:15.000Z</Time>
            <Position>
              <LatitudeDegrees>43.4545780532062053680419921875</LatitudeDegrees>
              <LongitudeDegrees>-5.02267166040837764739990234375</LongitudeDegrees>
            </Position>
            <AltitudeMeters>48.200000762939453125</AltitudeMeters>
            <DistanceMeters>NAN</DistanceMeters>
          </Trackpoint>
          <Trackpoint>
            <Time>2022-07-16T14:51:16.000Z</Time>
            <Position>
              <LatitudeDegrees>43.4546142630279064178466796875</LatitudeDegrees>
              <LongitudeDegrees>-5.0226695649325847625732421875</LongitudeDegrees>
            </Position>
            <AltitudeMeters>47.40000152587890625</AltitudeMeters>
            <DistanceMeters>NAN</DistanceMeters>
          </Trackpoint>
          <Trackpoint>
            <Time>2022-07-16T14:51:17.000Z</Time>
            <Position>
              <LatitudeDegrees>43.454626835882663726806640625</LatitudeDegrees>
              <LongitudeDegrees>-5.02269747667014598846435546875</LongitudeDegrees>
            </Position>
            <AltitudeMeters>47.40000152587890625</AltitudeMeters>
            <DistanceMeters>NAN</DistanceMeters>
          </Trackpoint>
          <Trackpoint>
            <Time>2022-07-16T14:51:23.000Z</Time>
            <Position>
              <LatitudeDegrees>43.45470302738249301910400390625</LatitudeDegrees>
              <LongitudeDegrees>-5.0228767655789852142333984375</LongitudeDegrees>
            </Position>
            <AltitudeMeters>47.40000152587890625</AltitudeMeters>
            <DistanceMeters>NAN</DistanceMeters>
          </Trackpoint>
          <Trackpoint>
            <Time>2022-07-16T14:51:29.000Z</Time>
            <Position>
              <LatitudeDegrees>43.45476957969367504119873046875</LatitudeDegrees>
              <LongitudeDegrees>-5.0230889953672885894775390625</LongitudeDegrees>
            </Position>
            <AltitudeMeters>46.59999847412109375</AltitudeMeters>
            <DistanceMeters>NAN</DistanceMeters>
          </Trackpoint>
          <Trackpoint>
            <Time>2022-07-16T14:51:31.000Z</Time>
            <Position>
              <LatitudeDegrees>43.45478718169033527374267578125</LatitudeDegrees>
              <LongitudeDegrees>-5.02315328456461429595947265625</LongitudeDegrees>
            </Position>
            <AltitudeMeters>46.200000762939453125</AltitudeMeters>
            <DistanceMeters>NAN</DistanceMeters>
          </Trackpoint>
          <Trackpoint>
            <Time>2022-07-16T14:51:33.000Z</Time>
            <Position>
              <LatitudeDegrees>43.45480176620185375213623046875</LatitudeDegrees>
              <LongitudeDegrees>-5.02321430481970310211181640625</LongitudeDegrees>
            </Position>
            <AltitudeMeters>45.40000152587890625</AltitudeMeters>
            <DistanceMeters>NAN</DistanceMeters>
          </Trackpoint>
          <Trackpoint>
            <Time>2022-07-16T14:51:37.000Z</Time>
            <Position>
              <LatitudeDegrees>43.454840071499347686767578125</LatitudeDegrees>
              <LongitudeDegrees>-5.02336953766644001007080078125</LongitudeDegrees>
            </Position>
            <AltitudeMeters>43.799999237060546875</AltitudeMeters>
            <DistanceMeters>NAN</DistanceMeters>
          </Trackpoint>
          <Trackpoint>
            <Time>2022-07-16T14:51:39.000Z</Time>
            <Position>
              <LatitudeDegrees>43.45486194826662540435791015625</LatitudeDegrees>
              <LongitudeDegrees>-5.023457296192646026611328125</LongitudeDegrees>
            </Position>
            <AltitudeMeters>43.200000762939453125</AltitudeMeters>
            <DistanceMeters>NAN</DistanceMeters>
          </Trackpoint>
          <Trackpoint>
            <Time>2022-07-16T14:51:41.000Z</Time>
            <Position>
              <LatitudeDegrees>43.45490704290568828582763671875</LatitudeDegrees>
              <LongitudeDegrees>-5.02354882657527923583984375</LongitudeDegrees>
            </Position>
            <AltitudeMeters>42.59999847412109375</AltitudeMeters>
            <DistanceMeters>NAN</DistanceMeters>
          </Trackpoint>
          <Trackpoint>
            <Time>2022-07-16T14:51:42.000Z</Time>
            <Position>
              <LatitudeDegrees>43.454935289919376373291015625</LatitudeDegrees>
              <LongitudeDegrees>-5.02359249629080295562744140625</LongitudeDegrees>
            </Position>
            <AltitudeMeters>42.40000152587890625</AltitudeMeters>
            <DistanceMeters>NAN</DistanceMeters>
          </Trackpoint>
          <Trackpoint>
            <Time>2022-07-16T14:51:44.000Z</Time>
            <Position>
              <LatitudeDegrees>43.4550001658499240875244140625</LatitudeDegrees>
              <LongitudeDegrees>-5.02367849461734294891357421875</LongitudeDegrees>
            </Position>
            <AltitudeMeters>42</AltitudeMeters>
            <DistanceMeters>NAN</DistanceMeters>
          </Trackpoint>
          <Trackpoint>
            <Time>2022-07-16T14:51:46.000Z</Time>
            <Position>
              <LatitudeDegrees>43.4550507925450801849365234375</LatitudeDegrees>
              <LongitudeDegrees>-5.02378444187343120574951171875</LongitudeDegrees>
            </Position>
            <AltitudeMeters>41.59999847412109375</AltitudeMeters>
            <DistanceMeters>NAN</DistanceMeters>
          </Trackpoint>
          <Trackpoint>
            <Time>2022-07-16T14:51:49.000Z</Time>
            <Position>
              <LatitudeDegrees>43.45509865321218967437744140625</LatitudeDegrees>
              <LongitudeDegrees>-5.02397957257926464080810546875</LongitudeDegrees>
            </Position>
            <AltitudeMeters>41</AltitudeMeters>
            <DistanceMeters>NAN</DistanceMeters>
          </Trackpoint>
          <Trackpoint>
            <Time>2022-07-16T14:51:53.000Z</Time>
            <Position>
              <LatitudeDegrees>43.4551279060542583465576171875</LatitudeDegrees>
              <LongitudeDegrees>-5.02425827085971832275390625</LongitudeDegrees>
            </Position>
            <AltitudeMeters>40.40000152587890625</AltitudeMeters>
            <DistanceMeters>NAN</DistanceMeters>
          </Trackpoint>
          <Trackpoint>
            <Time>2022-07-16T14:51:56.000Z</Time>
            <Position>
              <LatitudeDegrees>43.45514307729899883270263671875</LatitudeDegrees>
              <LongitudeDegrees>-5.0244656391441822052001953125</LongitudeDegrees>
            </Position>
            <AltitudeMeters>39.799999237060546875</AltitudeMeters>
            <DistanceMeters>NAN</DistanceMeters>
          </Trackpoint>
          <Trackpoint>
            <Time>2022-07-16T14:52:00.000Z</Time>
            <Position>
              <LatitudeDegrees>43.4551607631146907806396484375</LatitudeDegrees>
              <LongitudeDegrees>-5.024736709892749786376953125</LongitudeDegrees>
            </Position>
            <AltitudeMeters>39.200000762939453125</AltitudeMeters>
            <DistanceMeters>NAN</DistanceMeters>
          </Trackpoint>
          <Trackpoint>
            <Time>2022-07-16T14:52:02.000Z</Time>
            <Position>
              <LatitudeDegrees>43.45517308451235294342041015625</LatitudeDegrees>
              <LongitudeDegrees>-5.02486721612513065338134765625</LongitudeDegrees>
            </Position>
            <AltitudeMeters>39</AltitudeMeters>
            <DistanceMeters>NAN</DistanceMeters>
          </Trackpoint>
          <Trackpoint>
            <Time>2022-07-16T14:52:04.000Z</Time>
            <Position>
              <LatitudeDegrees>43.4551852382719516754150390625</LatitudeDegrees>
              <LongitudeDegrees>-5.02500124275684356689453125</LongitudeDegrees>
            </Position>
            <AltitudeMeters>38.59999847412109375</AltitudeMeters>
            <DistanceMeters>NAN</DistanceMeters>
          </Trackpoint>
          <Trackpoint>
            <Time>2022-07-16T14:52:07.000Z</Time>
            <Position>
              <LatitudeDegrees>43.45521465875208377838134765625</LatitudeDegrees>
              <LongitudeDegrees>-5.02518304623663425445556640625</LongitudeDegrees>
            </Position>
            <AltitudeMeters>38.40000152587890625</AltitudeMeters>
            <DistanceMeters>NAN</DistanceMeters>
          </Trackpoint>
          <Trackpoint>
            <Time>2022-07-16T14:52:10.000Z</Time>
            <Position>
              <LatitudeDegrees>43.4552392177283763885498046875</LatitudeDegrees>
              <LongitudeDegrees>-5.0253474153578281402587890625</LongitudeDegrees>
            </Position>
            <AltitudeMeters>38.200000762939453125</AltitudeMeters>
            <DistanceMeters>NAN</DistanceMeters>
          </Trackpoint>
          <Trackpoint>
            <Time>2022-07-16T14:52:13.000Z</Time>
            <Position>
              <LatitudeDegrees>43.4552573226392269134521484375</LatitudeDegrees>
              <LongitudeDegrees>-5.0254833698272705078125</LongitudeDegrees>
            </Position>
            <AltitudeMeters>38</AltitudeMeters>
            <DistanceMeters>NAN</DistanceMeters>
          </Trackpoint>
          <Trackpoint>
            <Time>2022-07-16T14:52:18.000Z</Time>
            <Position>
              <LatitudeDegrees>43.45529638230800628662109375</LatitudeDegrees>
              <LongitudeDegrees>-5.02569333650171756744384765625</LongitudeDegrees>
            </Position>
            <AltitudeMeters>38</AltitudeMeters>
            <DistanceMeters>NAN</DistanceMeters>
          </Trackpoint>
          <Trackpoint>
            <Time>2022-07-16T14:52:21.000Z</Time>
            <Position>
              <LatitudeDegrees>43.4553257189691066741943359375</LatitudeDegrees>
              <LongitudeDegrees>-5.025798864662647247314453125</LongitudeDegrees>
            </Position>
            <AltitudeMeters>38.40000152587890625</AltitudeMeters>
            <DistanceMeters>NAN</DistanceMeters>
          </Trackpoint>
          <Trackpoint>
            <Time>2022-07-16T14:52:25.000Z</Time>
            <Position>
              <LatitudeDegrees>43.4553589113056659698486328125</LatitudeDegrees>
              <LongitudeDegrees>-5.02589668147265911102294921875</LongitudeDegrees>
            </Position>
            <AltitudeMeters>38.799999237060546875</AltitudeMeters>
            <DistanceMeters>NAN</DistanceMeters>
          </Trackpoint>
          <Trackpoint>
            <Time>2022-07-16T14:52:26.000Z</Time>
            <Position>
              <LatitudeDegrees>43.45536611974239349365234375</LatitudeDegrees>
              <LongitudeDegrees>-5.02591378055512905120849609375</LongitudeDegrees>
            </Position>
            <AltitudeMeters>38.799999237060546875</AltitudeMeters>
            <DistanceMeters>NAN</DistanceMeters>
          </Trackpoint>
          <Trackpoint>
            <Time>2022-07-16T14:52:28.000Z</Time>
            <Position>
              <LatitudeDegrees>43.4553763456642627716064453125</LatitudeDegrees>
              <LongitudeDegrees>-5.0259458832442760467529296875</LongitudeDegrees>
            </Position>
            <AltitudeMeters>39.200000762939453125</AltitudeMeters>
            <DistanceMeters>NAN</DistanceMeters>
          </Trackpoint>
          <Trackpoint>
            <Time>2022-07-16T14:52:31.000Z</Time>
            <Position>
              <LatitudeDegrees>43.455377183854579925537109375</LatitudeDegrees>
              <LongitudeDegrees>-5.02600765787065029144287109375</LongitudeDegrees>
            </Position>
            <AltitudeMeters>39.799999237060546875</AltitudeMeters>
            <DistanceMeters>NAN</DistanceMeters>
          </Trackpoint>
          <Trackpoint>
            <Time>2022-07-16T14:52:32.000Z</Time>
            <Position>
              <LatitudeDegrees>43.4553753398358821868896484375</LatitudeDegrees>
              <LongitudeDegrees>-5.0260318815708160400390625</LongitudeDegrees>
            </Position>
            <AltitudeMeters>40</AltitudeMeters>
            <DistanceMeters>NAN</DistanceMeters>
          </Trackpoint>
          <Trackpoint>
            <Time>2022-07-16T14:52:35.000Z</Time>
            <Position>
              <LatitudeDegrees>43.45537014305591583251953125</LatitudeDegrees>
              <LongitudeDegrees>-5.02609960734844207763671875</LongitudeDegrees>
            </Position>
            <AltitudeMeters>40</AltitudeMeters>
            <DistanceMeters>NAN</DistanceMeters>
          </Trackpoint>
          <Trackpoint>
            <Time>2022-07-16T14:52:37.000Z</Time>
            <Position>
              <LatitudeDegrees>43.45536989159882068634033203125</LatitudeDegrees>
              <LongitudeDegrees>-5.02614512108266353607177734375</LongitudeDegrees>
            </Position>
            <AltitudeMeters>40.200000762939453125</AltitudeMeters>
            <DistanceMeters>NAN</DistanceMeters>
          </Trackpoint>
          <Trackpoint>
            <Time>2022-07-16T14:52:40.000Z</Time>
            <Position>
              <LatitudeDegrees>43.4553833864629268646240234375</LatitudeDegrees>
              <LongitudeDegrees>-5.026213936507701873779296875</LongitudeDegrees>
            </Position>
            <AltitudeMeters>40.200000762939453125</AltitudeMeters>
            <DistanceMeters>NAN</DistanceMeters>
          </Trackpoint>
          <Trackpoint>
            <Time>2022-07-16T14:52:41.000Z</Time>
            <Position>
              <LatitudeDegrees>43.4553850628435611724853515625</LatitudeDegrees>
              <LongitudeDegrees>-5.02624201588332653045654296875</LongitudeDegrees>
            </Position>
            <AltitudeMeters>40.40000152587890625</AltitudeMeters>
            <DistanceMeters>NAN</DistanceMeters>
          </Trackpoint>
          <Trackpoint>
            <Time>2022-07-16T14:52:46.000Z</Time>
            <Position>
              <LatitudeDegrees>43.45539285801351070404052734375</LatitudeDegrees>
              <LongitudeDegrees>-5.0264021940529346466064453125</LongitudeDegrees>
            </Position>
            <AltitudeMeters>40.799999237060546875</AltitudeMeters>
            <DistanceMeters>NAN</DistanceMeters>
          </Trackpoint>
          <Trackpoint>
            <Time>2022-07-16T14:52:50.000Z</Time>
            <Position>
              <LatitudeDegrees>43.45539453439414501190185546875</LatitudeDegrees>
              <LongitudeDegrees>-5.0265443511307239532470703125</LongitudeDegrees>
            </Position>
            <AltitudeMeters>41</AltitudeMeters>
            <DistanceMeters>NAN</DistanceMeters>
          </Trackpoint>
          <Trackpoint>
            <Time>2022-07-16T14:53:01.000Z</Time>
            <Position>
              <LatitudeDegrees>43.4554410539567470550537109375</LatitudeDegrees>
              <LongitudeDegrees>-5.02693620510399341583251953125</LongitudeDegrees>
            </Position>
            <AltitudeMeters>40.59999847412109375</AltitudeMeters>
            <DistanceMeters>NAN</DistanceMeters>
          </Trackpoint>
          <Trackpoint>
            <Time>2022-07-16T14:53:12.000Z</Time>
            <Position>
              <LatitudeDegrees>43.45550023019313812255859375</LatitudeDegrees>
              <LongitudeDegrees>-5.02725153230130672454833984375</LongitudeDegrees>
            </Position>
            <AltitudeMeters>40.40000152587890625</AltitudeMeters>
            <DistanceMeters>NAN</DistanceMeters>
          </Trackpoint>
          <Trackpoint>
            <Time>2022-07-16T14:53:15.000Z</Time>
            <Position>
              <LatitudeDegrees>43.4555007331073284149169921875</LatitudeDegrees>
              <LongitudeDegrees>-5.0272564776241779327392578125</LongitudeDegrees>
            </Position>
            <AltitudeMeters>40.40000152587890625</AltitudeMeters>
            <DistanceMeters>NAN</DistanceMeters>
          </Trackpoint>
          <Trackpoint>
            <Time>2022-07-16T14:53:49.000Z</Time>
            <Position>
              <LatitudeDegrees>43.45550266094505786895751953125</LatitudeDegrees>
              <LongitudeDegrees>-5.027282126247882843017578125</LongitudeDegrees>
            </Position>
            <AltitudeMeters>40.59999847412109375</AltitudeMeters>
            <DistanceMeters>NAN</DistanceMeters>
          </Trackpoint>
          <Trackpoint>
            <Time>2022-07-16T14:53:56.000Z</Time>
            <Position>
              <LatitudeDegrees>43.45550199039280414581298828125</LatitudeDegrees>
              <LongitudeDegrees>-5.0275169871747493743896484375</LongitudeDegrees>
            </Position>
            <AltitudeMeters>41</AltitudeMeters>
            <DistanceMeters>NAN</DistanceMeters>
          </Trackpoint>
          <Trackpoint>
            <Time>2022-07-16T14:53:58.000Z</Time>
            <Position>
              <LatitudeDegrees>43.45550098456442356109619140625</LatitudeDegrees>
              <LongitudeDegrees>-5.0275796838104724884033203125</LongitudeDegrees>
            </Position>
            <AltitudeMeters>41.40000152587890625</AltitudeMeters>
            <DistanceMeters>NAN</DistanceMeters>
          </Trackpoint>
          <Trackpoint>
            <Time>2022-07-16T14:54:05.000Z</Time>
            <Position>
              <LatitudeDegrees>43.45552143640816211700439453125</LatitudeDegrees>
              <LongitudeDegrees>-5.02777841873466968536376953125</LongitudeDegrees>
            </Position>
            <AltitudeMeters>42.200000762939453125</AltitudeMeters>
            <DistanceMeters>NAN</DistanceMeters>
          </Trackpoint>
          <Trackpoint>
            <Time>2022-07-16T14:54:07.000Z</Time>
            <Position>
              <LatitudeDegrees>43.45553417690098285675048828125</LatitudeDegrees>
              <LongitudeDegrees>-5.027828626334667205810546875</LongitudeDegrees>
            </Position>
            <AltitudeMeters>42.40000152587890625</AltitudeMeters>
            <DistanceMeters>NAN</DistanceMeters>
          </Trackpoint>
          <Trackpoint>
            <Time>2022-07-16T14:54:13.000Z</Time>
            <Position>
              <LatitudeDegrees>43.45559955574572086334228515625</LatitudeDegrees>
              <LongitudeDegrees>-5.02795703709125518798828125</LongitudeDegrees>
            </Position>
            <AltitudeMeters>43.200000762939453125</AltitudeMeters>
            <DistanceMeters>NAN</DistanceMeters>
          </Trackpoint>
          <Trackpoint>
            <Time>2022-07-16T14:54:16.000Z</Time>
            <Position>
              <LatitudeDegrees>43.45563643611967563629150390625</LatitudeDegrees>
              <LongitudeDegrees>-5.0280220806598663330078125</LongitudeDegrees>
            </Position>
            <AltitudeMeters>43.40000152587890625</AltitudeMeters>
            <DistanceMeters>NAN</DistanceMeters>
          </Trackpoint>
          <Trackpoint>
            <Time>2022-07-16T14:54:25.000Z</Time>
            <Position>
              <LatitudeDegrees>43.4557531960308551788330078125</LatitudeDegrees>
              <LongitudeDegrees>-5.02824679948389530181884765625</LongitudeDegrees>
            </Position>
            <AltitudeMeters>43.799999237060546875</AltitudeMeters>
            <DistanceMeters>NAN</DistanceMeters>
          </Trackpoint>
          <Trackpoint>
            <Time>2022-07-16T14:54:32.000Z</Time>
            <Position>
              <LatitudeDegrees>43.455860652029514312744140625</LatitudeDegrees>
              <LongitudeDegrees>-5.0284306146204471588134765625</LongitudeDegrees>
            </Position>
            <AltitudeMeters>44</AltitudeMeters>
            <DistanceMeters>NAN</DistanceMeters>
          </Trackpoint>
          <Trackpoint>
            <Time>2022-07-16T14:54:33.000Z</Time>
            <Position>
              <LatitudeDegrees>43.4558765776455402374267578125</LatitudeDegrees>
              <LongitudeDegrees>-5.02845450304448604583740234375</LongitudeDegrees>
            </Position>
            <AltitudeMeters>44</AltitudeMeters>
            <DistanceMeters>NAN</DistanceMeters>
          </Trackpoint>
          <Trackpoint>
            <Time>2022-07-16T14:54:41.000Z</Time>
            <Position>
              <LatitudeDegrees>43.4559808485209941864013671875</LatitudeDegrees>
              <LongitudeDegrees>-5.02866505645215511322021484375</LongitudeDegrees>
            </Position>
            <AltitudeMeters>44.40000152587890625</AltitudeMeters>
            <DistanceMeters>NAN</DistanceMeters>
          </Trackpoint>
          <Trackpoint>
            <Time>2022-07-16T14:54:46.000Z</Time>
            <Position>
              <LatitudeDegrees>43.45602066256105899810791015625</LatitudeDegrees>
              <LongitudeDegrees>-5.02879866398870944976806640625</LongitudeDegrees>
            </Position>
            <AltitudeMeters>44.40000152587890625</AltitudeMeters>
            <DistanceMeters>NAN</DistanceMeters>
          </Trackpoint>
          <Trackpoint>
            <Time>2022-07-16T14:54:48.000Z</Time>
            <Position>
              <LatitudeDegrees>43.4560378454625606536865234375</LatitudeDegrees>
              <LongitudeDegrees>-5.02884509973227977752685546875</LongitudeDegrees>
            </Position>
            <AltitudeMeters>44.59999847412109375</AltitudeMeters>
            <DistanceMeters>NAN</DistanceMeters>
          </Trackpoint>
          <Trackpoint>
            <Time>2022-07-16T14:54:57.000Z</Time>
            <Position>
              <LatitudeDegrees>43.45610666088759899139404296875</LatitudeDegrees>
              <LongitudeDegrees>-5.02905699424445629119873046875</LongitudeDegrees>
            </Position>
            <AltitudeMeters>45.59999847412109375</AltitudeMeters>
            <DistanceMeters>NAN</DistanceMeters>
          </Trackpoint>
          <Trackpoint>
            <Time>2022-07-16T14:54:58.000Z</Time>
            <Position>
              <LatitudeDegrees>43.4561109356582164764404296875</LatitudeDegrees>
              <LongitudeDegrees>-5.02908130176365375518798828125</LongitudeDegrees>
            </Position>
            <AltitudeMeters>45.59999847412109375</AltitudeMeters>
            <DistanceMeters>NAN</DistanceMeters>
          </Trackpoint>
          <Trackpoint>
            <Time>2022-07-16T14:54:59.000Z</Time>
            <Position>
              <LatitudeDegrees>43.456116132438182830810546875</LatitudeDegrees>
              <LongitudeDegrees>-5.02910208888351917266845703125</LongitudeDegrees>
            </Position>
            <AltitudeMeters>45.59999847412109375</AltitudeMeters>
            <DistanceMeters>NAN</DistanceMeters>
          </Trackpoint>
          <Trackpoint>
            <Time>2022-07-16T14:55:05.000Z</Time>
            <Position>
              <LatitudeDegrees>43.45614169724285602569580078125</LatitudeDegrees>
              <LongitudeDegrees>-5.02923284657299518585205078125</LongitudeDegrees>
            </Position>
            <AltitudeMeters>46.59999847412109375</AltitudeMeters>
            <DistanceMeters>NAN</DistanceMeters>
          </Trackpoint>
          <Trackpoint>
            <Time>2022-07-16T14:55:08.000Z</Time>
            <Position>
              <LatitudeDegrees>43.456159047782421112060546875</LatitudeDegrees>
              <LongitudeDegrees>-5.02929453738033771514892578125</LongitudeDegrees>
            </Position>
            <AltitudeMeters>46.799999237060546875</AltitudeMeters>
            <DistanceMeters>NAN</DistanceMeters>
          </Trackpoint>
          <Trackpoint>
            <Time>2022-07-16T14:55:11.000Z</Time>
            <Position>
              <LatitudeDegrees>43.45618260093033313751220703125</LatitudeDegrees>
              <LongitudeDegrees>-5.02935756929218769073486328125</LongitudeDegrees>
            </Position>
            <AltitudeMeters>46.799999237060546875</AltitudeMeters>
            <DistanceMeters>NAN</DistanceMeters>
          </Trackpoint>
          <Trackpoint>
            <Time>2022-07-16T14:55:15.000Z</Time>
            <Position>
              <LatitudeDegrees>43.45622937195003032684326171875</LatitudeDegrees>
              <LongitudeDegrees>-5.0294354371726512908935546875</LongitudeDegrees>
            </Position>
            <AltitudeMeters>47.59999847412109375</AltitudeMeters>
            <DistanceMeters>NAN</DistanceMeters>
          </Trackpoint>
          <Trackpoint>
            <Time>2022-07-16T14:55:18.000Z</Time>
            <Position>
              <LatitudeDegrees>43.45626189373433589935302734375</LatitudeDegrees>
              <LongitudeDegrees>-5.02948723733425140380859375</LongitudeDegrees>
            </Position>
            <AltitudeMeters>47.799999237060546875</AltitudeMeters>
            <DistanceMeters>NAN</DistanceMeters>
          </Trackpoint>
          <Trackpoint>
            <Time>2022-07-16T14:55:29.000Z</Time>
            <Position>
              <LatitudeDegrees>43.45636331476271152496337890625</LatitudeDegrees>
              <LongitudeDegrees>-5.029707513749599456787109375</LongitudeDegrees>
            </Position>
            <AltitudeMeters>48.59999847412109375</AltitudeMeters>
            <DistanceMeters>NAN</DistanceMeters>
          </Trackpoint>
          <Trackpoint>
            <Time>2022-07-16T14:55:39.000Z</Time>
            <Position>
              <LatitudeDegrees>43.4564498998224735260009765625</LatitudeDegrees>
              <LongitudeDegrees>-5.02995654009282588958740234375</LongitudeDegrees>
            </Position>
            <AltitudeMeters>49.200000762939453125</AltitudeMeters>
            <DistanceMeters>NAN</DistanceMeters>
          </Trackpoint>
          <Trackpoint>
            <Time>2022-07-16T14:55:41.000Z</Time>
            <Position>
              <LatitudeDegrees>43.45645836554467678070068359375</LatitudeDegrees>
              <LongitudeDegrees>-5.0300158001482486724853515625</LongitudeDegrees>
            </Position>
            <AltitudeMeters>49.200000762939453125</AltitudeMeters>
            <DistanceMeters>NAN</DistanceMeters>
          </Trackpoint>
          <Trackpoint>
            <Time>2022-07-16T14:55:47.000Z</Time>
            <Position>
              <LatitudeDegrees>43.45650144852697849273681640625</LatitudeDegrees>
              <LongitudeDegrees>-5.0301847793161869049072265625</LongitudeDegrees>
            </Position>
            <AltitudeMeters>49.40000152587890625</AltitudeMeters>
            <DistanceMeters>NAN</DistanceMeters>
          </Trackpoint>
          <Trackpoint>
            <Time>2022-07-16T14:55:55.000Z</Time>
            <Position>
              <LatitudeDegrees>43.45657646656036376953125</LatitudeDegrees>
              <LongitudeDegrees>-5.03040212206542491912841796875</LongitudeDegrees>
            </Position>
            <AltitudeMeters>49.59999847412109375</AltitudeMeters>
            <DistanceMeters>NAN</DistanceMeters>
          </Trackpoint>
          <Trackpoint>
            <Time>2022-07-16T14:55:56.000Z</Time>
            <Position>
              <LatitudeDegrees>43.4565836749970912933349609375</LatitudeDegrees>
              <LongitudeDegrees>-5.03043212927877902984619140625</LongitudeDegrees>
            </Position>
            <AltitudeMeters>49.59999847412109375</AltitudeMeters>
            <DistanceMeters>NAN</DistanceMeters>
          </Trackpoint>
          <Trackpoint>
            <Time>2022-07-16T14:55:59.000Z</Time>
            <Position>
              <LatitudeDegrees>43.456604294478893280029296875</LatitudeDegrees>
              <LongitudeDegrees>-5.0305173732340335845947265625</LongitudeDegrees>
            </Position>
            <AltitudeMeters>49.59999847412109375</AltitudeMeters>
            <DistanceMeters>NAN</DistanceMeters>
          </Trackpoint>
          <Trackpoint>
            <Time>2022-07-16T14:56:06.000Z</Time>
            <Position>
              <LatitudeDegrees>43.45666967332363128662109375</LatitudeDegrees>
              <LongitudeDegrees>-5.030705630779266357421875</LongitudeDegrees>
            </Position>
            <AltitudeMeters>50.200000762939453125</AltitudeMeters>
            <DistanceMeters>NAN</DistanceMeters>
          </Trackpoint>
          <Trackpoint>
            <Time>2022-07-16T14:56:07.000Z</Time>
            <Position>
              <LatitudeDegrees>43.45667906105518341064453125</LatitudeDegrees>
              <LongitudeDegrees>-5.0307309441268444061279296875</LongitudeDegrees>
            </Position>
            <AltitudeMeters>50.200000762939453125</AltitudeMeters>
            <DistanceMeters>NAN</DistanceMeters>
          </Trackpoint>
          <Trackpoint>
            <Time>2022-07-16T14:56:16.000Z</Time>
            <Position>
              <LatitudeDegrees>43.4567399136722087860107421875</LatitudeDegrees>
              <LongitudeDegrees>-5.03096639178693294525146484375</LongitudeDegrees>
            </Position>
            <AltitudeMeters>50.799999237060546875</AltitudeMeters>
            <DistanceMeters>NAN</DistanceMeters>
          </Trackpoint>
          <Trackpoint>
            <Time>2022-07-16T14:56:18.000Z</Time>
            <Position>
              <LatitudeDegrees>43.4567516483366489410400390625</LatitudeDegrees>
              <LongitudeDegrees>-5.0310142524540424346923828125</LongitudeDegrees>
            </Position>
            <AltitudeMeters>51.200000762939453125</AltitudeMeters>
            <DistanceMeters>NAN</DistanceMeters>
          </Trackpoint>
          <Trackpoint>
            <Time>2022-07-16T14:56:23.000Z</Time>
            <Position>
              <LatitudeDegrees>43.45677553676068782806396484375</LatitudeDegrees>
              <LongitudeDegrees>-5.0311178527772426605224609375</LongitudeDegrees>
            </Position>
            <AltitudeMeters>51.799999237060546875</AltitudeMeters>
            <DistanceMeters>NAN</DistanceMeters>
          </Trackpoint>
          <Trackpoint>
            <Time>2022-07-16T14:56:24.000Z</Time>
            <Position>
              <LatitudeDegrees>43.4567821584641933441162109375</LatitudeDegrees>
              <LongitudeDegrees>-5.03113922663033008575439453125</LongitudeDegrees>
            </Position>
            <AltitudeMeters>51.799999237060546875</AltitudeMeters>
            <DistanceMeters>NAN</DistanceMeters>
          </Trackpoint>
          <Trackpoint>
            <Time>2022-07-16T14:56:25.000Z</Time>
            <Position>
              <LatitudeDegrees>43.45679012127220630645751953125</LatitudeDegrees>
              <LongitudeDegrees>-5.03115833736956119537353515625</LongitudeDegrees>
            </Position>
            <AltitudeMeters>52</AltitudeMeters>
            <DistanceMeters>NAN</DistanceMeters>
          </Trackpoint>
          <Trackpoint>
            <Time>2022-07-16T14:56:30.000Z</Time>
            <Position>
              <LatitudeDegrees>43.45682096667587757110595703125</LatitudeDegrees>
              <LongitudeDegrees>-5.031260512769222259521484375</LongitudeDegrees>
            </Position>
            <AltitudeMeters>52.59999847412109375</AltitudeMeters>
            <DistanceMeters>NAN</DistanceMeters>
          </Trackpoint>
          <Trackpoint>
            <Time>2022-07-16T14:56:33.000Z</Time>
            <Position>
              <LatitudeDegrees>43.45684745348989963531494140625</LatitudeDegrees>
              <LongitudeDegrees>-5.03131784498691558837890625</LongitudeDegrees>
            </Position>
            <AltitudeMeters>52.799999237060546875</AltitudeMeters>
            <DistanceMeters>NAN</DistanceMeters>
          </Trackpoint>
          <Trackpoint>
            <Time>2022-07-16T14:56:36.000Z</Time>
            <Position>
              <LatitudeDegrees>43.4568763710558414459228515625</LatitudeDegrees>
              <LongitudeDegrees>-5.03137660212814807891845703125</LongitudeDegrees>
            </Position>
            <AltitudeMeters>53.200000762939453125</AltitudeMeters>
            <DistanceMeters>NAN</DistanceMeters>
          </Trackpoint>
          <Trackpoint>
            <Time>2022-07-16T14:56:42.000Z</Time>
            <Position>
              <LatitudeDegrees>43.456942252814769744873046875</LatitudeDegrees>
              <LongitudeDegrees>-5.0314869917929172515869140625</LongitudeDegrees>
            </Position>
            <AltitudeMeters>54</AltitudeMeters>
            <DistanceMeters>NAN</DistanceMeters>
          </Trackpoint>
          <Trackpoint>
            <Time>2022-07-16T14:56:44.000Z</Time>
            <Position>
              <LatitudeDegrees>43.45695658586919307708740234375</LatitudeDegrees>
              <LongitudeDegrees>-5.031530745327472686767578125</LongitudeDegrees>
            </Position>
            <AltitudeMeters>54</AltitudeMeters>
            <DistanceMeters>NAN</DistanceMeters>
          </Trackpoint>
          <Trackpoint>
            <Time>2022-07-16T14:56:49.000Z</Time>
            <Position>
              <LatitudeDegrees>43.4569989144802093505859375</LatitudeDegrees>
              <LongitudeDegrees>-5.03162764012813568115234375</LongitudeDegrees>
            </Position>
            <AltitudeMeters>54.200000762939453125</AltitudeMeters>
            <DistanceMeters>NAN</DistanceMeters>
          </Trackpoint>
          <Trackpoint>
            <Time>2022-07-16T14:56:54.000Z</Time>
            <Position>
              <LatitudeDegrees>43.4570577554404735565185546875</LatitudeDegrees>
              <LongitudeDegrees>-5.0317704677581787109375</LongitudeDegrees>
            </Position>
            <AltitudeMeters>54.200000762939453125</AltitudeMeters>
            <DistanceMeters>NAN</DistanceMeters>
          </Trackpoint>
          <Trackpoint>
            <Time>2022-07-16T14:57:01.000Z</Time>
            <Position>
              <LatitudeDegrees>43.457139395177364349365234375</LatitudeDegrees>
              <LongitudeDegrees>-5.03201647661626338958740234375</LongitudeDegrees>
            </Position>
            <AltitudeMeters>54.59999847412109375</AltitudeMeters>
            <DistanceMeters>NAN</DistanceMeters>
          </Trackpoint>
          <Trackpoint>
            <Time>2022-07-16T14:57:12.000Z</Time>
            <Position>
              <LatitudeDegrees>43.4572934545576572418212890625</LatitudeDegrees>
              <LongitudeDegrees>-5.032374970614910125732421875</LongitudeDegrees>
            </Position>
            <AltitudeMeters>54.200000762939453125</AltitudeMeters>
            <DistanceMeters>NAN</DistanceMeters>
          </Trackpoint>
          <Trackpoint>
            <Time>2022-07-16T14:57:22.000Z</Time>
            <Position>
              <LatitudeDegrees>43.45741893164813518524169921875</LatitudeDegrees>
              <LongitudeDegrees>-5.032688118517398834228515625</LongitudeDegrees>
            </Position>
            <AltitudeMeters>54.59999847412109375</AltitudeMeters>
            <DistanceMeters>NAN</DistanceMeters>
          </Trackpoint>
          <Trackpoint>
            <Time>2022-07-16T14:57:29.000Z</Time>
            <Position>
              <LatitudeDegrees>43.457485400140285491943359375</LatitudeDegrees>
              <LongitudeDegrees>-5.03290303051471710205078125</LongitudeDegrees>
            </Position>
            <AltitudeMeters>54.40000152587890625</AltitudeMeters>
            <DistanceMeters>NAN</DistanceMeters>
          </Trackpoint>
          <Trackpoint>
            <Time>2022-07-16T14:57:36.000Z</Time>
            <Position>
              <LatitudeDegrees>43.45748347230255603790283203125</LatitudeDegrees>
              <LongitudeDegrees>-5.03315859474241733551025390625</LongitudeDegrees>
            </Position>
            <AltitudeMeters>54.40000152587890625</AltitudeMeters>
            <DistanceMeters>NAN</DistanceMeters>
          </Trackpoint>
          <Trackpoint>
            <Time>2022-07-16T14:57:38.000Z</Time>
            <Position>
              <LatitudeDegrees>43.45747224055230617523193359375</LatitudeDegrees>
              <LongitudeDegrees>-5.03321793861687183380126953125</LongitudeDegrees>
            </Position>
            <AltitudeMeters>54.40000152587890625</AltitudeMeters>
            <DistanceMeters>NAN</DistanceMeters>
          </Trackpoint>
          <Trackpoint>
            <Time>2022-07-16T14:57:41.000Z</Time>
            <Position>
              <LatitudeDegrees>43.457421362400054931640625</LatitudeDegrees>
              <LongitudeDegrees>-5.03330946899950504302978515625</LongitudeDegrees>
            </Position>
            <AltitudeMeters>54.200000762939453125</AltitudeMeters>
            <DistanceMeters>NAN</DistanceMeters>
          </Trackpoint>
          <Trackpoint>
            <Time>2022-07-16T14:57:44.000Z</Time>
            <Position>
              <LatitudeDegrees>43.45734290778636932373046875</LatitudeDegrees>
              <LongitudeDegrees>-5.033455900847911834716796875</LongitudeDegrees>
            </Position>
            <AltitudeMeters>54</AltitudeMeters>
            <DistanceMeters>NAN</DistanceMeters>
          </Trackpoint>
          <Trackpoint>
            <Time>2022-07-16T14:57:45.000Z</Time>
            <Position>
              <LatitudeDegrees>43.45732337795197963714599609375</LatitudeDegrees>
              <LongitudeDegrees>-5.03351214341819286346435546875</LongitudeDegrees>
            </Position>
            <AltitudeMeters>54</AltitudeMeters>
            <DistanceMeters>NAN</DistanceMeters>
          </Trackpoint>
          <Trackpoint>
            <Time>2022-07-16T14:57:46.000Z</Time>
            <Position>
              <LatitudeDegrees>43.457312397658824920654296875</LatitudeDegrees>
              <LongitudeDegrees>-5.033561848104000091552734375</LongitudeDegrees>
            </Position>
            <AltitudeMeters>53.799999237060546875</AltitudeMeters>
            <DistanceMeters>NAN</DistanceMeters>
          </Trackpoint>
          <Trackpoint>
            <Time>2022-07-16T14:57:49.000Z</Time>
            <Position>
              <LatitudeDegrees>43.45730560831725597381591796875</LatitudeDegrees>
              <LongitudeDegrees>-5.033645667135715484619140625</LongitudeDegrees>
            </Position>
            <AltitudeMeters>53</AltitudeMeters>
            <DistanceMeters>NAN</DistanceMeters>
          </Trackpoint>
          <Trackpoint>
            <Time>2022-07-16T14:57:50.000Z</Time>
            <Position>
              <LatitudeDegrees>43.4573031775653362274169921875</LatitudeDegrees>
              <LongitudeDegrees>-5.03365312702953815460205078125</LongitudeDegrees>
            </Position>
            <AltitudeMeters>52.799999237060546875</AltitudeMeters>
            <DistanceMeters>NAN</DistanceMeters>
          </Trackpoint>
          <Trackpoint>
            <Time>2022-07-16T14:57:54.000Z</Time>
            <Position>
              <LatitudeDegrees>43.4573021717369556427001953125</LatitudeDegrees>
              <LongitudeDegrees>-5.0336572341620922088623046875</LongitudeDegrees>
            </Position>
            <AltitudeMeters>52.200000762939453125</AltitudeMeters>
            <DistanceMeters>NAN</DistanceMeters>
          </Trackpoint>
          <Trackpoint>
            <Time>2022-07-16T14:58:37.000Z</Time>
            <Position>
              <LatitudeDegrees>43.4572951309382915496826171875</LatitudeDegrees>
              <LongitudeDegrees>-5.03370090387761592864990234375</LongitudeDegrees>
            </Position>
            <AltitudeMeters>52.200000762939453125</AltitudeMeters>
            <DistanceMeters>NAN</DistanceMeters>
          </Trackpoint>
          <Trackpoint>
            <Time>2022-07-16T14:58:39.000Z</Time>
            <Position>
              <LatitudeDegrees>43.4572921134531497955322265625</LatitudeDegrees>
              <LongitudeDegrees>-5.0337494350969791412353515625</LongitudeDegrees>
            </Position>
            <AltitudeMeters>52</AltitudeMeters>
            <DistanceMeters>NAN</DistanceMeters>
          </Trackpoint>
          <Trackpoint>
            <Time>2022-07-16T14:58:41.000Z</Time>
            <Position>
              <LatitudeDegrees>43.45728767104446887969970703125</LatitudeDegrees>
              <LongitudeDegrees>-5.03382696770131587982177734375</LongitudeDegrees>
            </Position>
            <AltitudeMeters>51.799999237060546875</AltitudeMeters>
            <DistanceMeters>NAN</DistanceMeters>
          </Trackpoint>
          <Trackpoint>
            <Time>2022-07-16T14:58:43.000Z</Time>
            <Position>
              <LatitudeDegrees>43.45728431828320026397705078125</LatitudeDegrees>
              <LongitudeDegrees>-5.033902823925018310546875</LongitudeDegrees>
            </Position>
            <AltitudeMeters>51.59999847412109375</AltitudeMeters>
            <DistanceMeters>NAN</DistanceMeters>
          </Trackpoint>
          <Trackpoint>
            <Time>2022-07-16T14:58:51.000Z</Time>
            <Position>
              <LatitudeDegrees>43.45727090723812580108642578125</LatitudeDegrees>
              <LongitudeDegrees>-5.034188814461231231689453125</LongitudeDegrees>
            </Position>
            <AltitudeMeters>51.799999237060546875</AltitudeMeters>
            <DistanceMeters>NAN</DistanceMeters>
          </Trackpoint>
          <Trackpoint>
            <Time>2022-07-16T14:58:58.000Z</Time>
            <Position>
              <LatitudeDegrees>43.457259424030780792236328125</LatitudeDegrees>
              <LongitudeDegrees>-5.03446516580879688262939453125</LongitudeDegrees>
            </Position>
            <AltitudeMeters>51.799999237060546875</AltitudeMeters>
            <DistanceMeters>NAN</DistanceMeters>
          </Trackpoint>
          <Trackpoint>
            <Time>2022-07-16T14:59:08.000Z</Time>
            <Position>
              <LatitudeDegrees>43.4572760201990604400634765625</LatitudeDegrees>
              <LongitudeDegrees>-5.034879148006439208984375</LongitudeDegrees>
            </Position>
            <AltitudeMeters>51.40000152587890625</AltitudeMeters>
            <DistanceMeters>NAN</DistanceMeters>
          </Trackpoint>
          <Trackpoint>
            <Time>2022-07-16T14:59:13.000Z</Time>
            <Position>
              <LatitudeDegrees>43.45732874237000942230224609375</LatitudeDegrees>
              <LongitudeDegrees>-5.03516069613397121429443359375</LongitudeDegrees>
            </Position>
            <AltitudeMeters>51</AltitudeMeters>
            <DistanceMeters>NAN</DistanceMeters>
          </Trackpoint>
          <Trackpoint>
            <Time>2022-07-16T14:59:14.000Z</Time>
            <Position>
              <LatitudeDegrees>43.45733628608286380767822265625</LatitudeDegrees>
              <LongitudeDegrees>-5.03521953709423542022705078125</LongitudeDegrees>
            </Position>
            <AltitudeMeters>51</AltitudeMeters>
            <DistanceMeters>NAN</DistanceMeters>
          </Trackpoint>
          <Trackpoint>
            <Time>2022-07-16T14:59:15.000Z</Time>
            <Position>
              <LatitudeDegrees>43.45733963884413242340087890625</LatitudeDegrees>
              <LongitudeDegrees>-5.03528038971126079559326171875</LongitudeDegrees>
            </Position>
            <AltitudeMeters>50.59999847412109375</AltitudeMeters>
            <DistanceMeters>NAN</DistanceMeters>
          </Trackpoint>
          <Trackpoint>
            <Time>2022-07-16T14:59:16.000Z</Time>
            <Position>
              <LatitudeDegrees>43.45733611844480037689208984375</LatitudeDegrees>
              <LongitudeDegrees>-5.0353406555950641632080078125</LongitudeDegrees>
            </Position>
            <AltitudeMeters>50.59999847412109375</AltitudeMeters>
            <DistanceMeters>NAN</DistanceMeters>
          </Trackpoint>
          <Trackpoint>
            <Time>2022-07-16T14:59:18.000Z</Time>
            <Position>
              <LatitudeDegrees>43.45731968991458415985107421875</LatitudeDegrees>
              <LongitudeDegrees>-5.035461522638797760009765625</LongitudeDegrees>
            </Position>
            <AltitudeMeters>50.200000762939453125</AltitudeMeters>
            <DistanceMeters>NAN</DistanceMeters>
          </Trackpoint>
          <Trackpoint>
            <Time>2022-07-16T14:59:26.000Z</Time>
            <Position>
              <LatitudeDegrees>43.45720343291759490966796875</LatitudeDegrees>
              <LongitudeDegrees>-5.0359320826828479766845703125</LongitudeDegrees>
            </Position>
            <AltitudeMeters>49.799999237060546875</AltitudeMeters>
            <DistanceMeters>NAN</DistanceMeters>
          </Trackpoint>
          <Trackpoint>
            <Time>2022-07-16T14:59:28.000Z</Time>
            <Position>
              <LatitudeDegrees>43.45719027332961559295654296875</LatitudeDegrees>
              <LongitudeDegrees>-5.03603694029152393341064453125</LongitudeDegrees>
            </Position>
            <AltitudeMeters>49.799999237060546875</AltitudeMeters>
            <DistanceMeters>NAN</DistanceMeters>
          </Trackpoint>
          <Trackpoint>
            <Time>2022-07-16T14:59:32.000Z</Time>
            <Position>
              <LatitudeDegrees>43.45718759112060070037841796875</LatitudeDegrees>
              <LongitudeDegrees>-5.0362194143235683441162109375</LongitudeDegrees>
            </Position>
            <AltitudeMeters>49.799999237060546875</AltitudeMeters>
            <DistanceMeters>NAN</DistanceMeters>
          </Trackpoint>
          <Trackpoint>
            <Time>2022-07-16T14:59:37.000Z</Time>
            <Position>
              <LatitudeDegrees>43.4572354517877101898193359375</LatitudeDegrees>
              <LongitudeDegrees>-5.03644044511020183563232421875</LongitudeDegrees>
            </Position>
            <AltitudeMeters>50.59999847412109375</AltitudeMeters>
            <DistanceMeters>NAN</DistanceMeters>
          </Trackpoint>
          <Trackpoint>
            <Time>2022-07-16T14:59:43.000Z</Time>
            <Position>
              <LatitudeDegrees>43.4573422372341156005859375</LatitudeDegrees>
              <LongitudeDegrees>-5.03671855665743350982666015625</LongitudeDegrees>
            </Position>
            <AltitudeMeters>50.799999237060546875</AltitudeMeters>
            <DistanceMeters>NAN</DistanceMeters>
          </Trackpoint>
          <Trackpoint>
            <Time>2022-07-16T14:59:50.000Z</Time>
            <Position>
              <LatitudeDegrees>43.4574372880160808563232421875</LatitudeDegrees>
              <LongitudeDegrees>-5.0370150245726108551025390625</LongitudeDegrees>
            </Position>
            <AltitudeMeters>50.40000152587890625</AltitudeMeters>
            <DistanceMeters>NAN</DistanceMeters>
          </Trackpoint>
          <Trackpoint>
            <Time>2022-07-16T14:59:57.000Z</Time>
            <Position>
              <LatitudeDegrees>43.45748774707317352294921875</LatitudeDegrees>
              <LongitudeDegrees>-5.03735491074621677398681640625</LongitudeDegrees>
            </Position>
            <AltitudeMeters>49.799999237060546875</AltitudeMeters>
            <DistanceMeters>NAN</DistanceMeters>
          </Trackpoint>
          <Trackpoint>
            <Time>2022-07-16T14:59:58.000Z</Time>
            <Position>
              <LatitudeDegrees>43.45750006847083568572998046875</LatitudeDegrees>
              <LongitudeDegrees>-5.0374150089919567108154296875</LongitudeDegrees>
            </Position>
            <AltitudeMeters>49.59999847412109375</AltitudeMeters>
            <DistanceMeters>NAN</DistanceMeters>
          </Trackpoint>
          <Trackpoint>
            <Time>2022-07-16T15:00:04.000Z</Time>
            <Position>
              <LatitudeDegrees>43.45758606679737567901611328125</LatitudeDegrees>
              <LongitudeDegrees>-5.03784097731113433837890625</LongitudeDegrees>
            </Position>
            <AltitudeMeters>49</AltitudeMeters>
            <DistanceMeters>NAN</DistanceMeters>
          </Trackpoint>
          <Trackpoint>
            <Time>2022-07-16T15:00:05.000Z</Time>
            <Position>
              <LatitudeDegrees>43.4575970470905303955078125</LatitudeDegrees>
              <LongitudeDegrees>-5.03792320378124713897705078125</LongitudeDegrees>
            </Position>
            <AltitudeMeters>48.59999847412109375</AltitudeMeters>
            <DistanceMeters>NAN</DistanceMeters>
          </Trackpoint>
          <Trackpoint>
            <Time>2022-07-16T15:00:08.000Z</Time>
            <Position>
              <LatitudeDegrees>43.45761322416365146636962890625</LatitudeDegrees>
              <LongitudeDegrees>-5.03817893564701080322265625</LongitudeDegrees>
            </Position>
            <AltitudeMeters>47.40000152587890625</AltitudeMeters>
            <DistanceMeters>NAN</DistanceMeters>
          </Trackpoint>
          <Trackpoint>
            <Time>2022-07-16T15:00:10.000Z</Time>
            <Position>
              <LatitudeDegrees>43.45762529410421848297119140625</LatitudeDegrees>
              <LongitudeDegrees>-5.03836224786937236785888671875</LongitudeDegrees>
            </Position>
            <AltitudeMeters>47</AltitudeMeters>
            <DistanceMeters>NAN</DistanceMeters>
          </Trackpoint>
          <Trackpoint>
            <Time>2022-07-16T15:00:13.000Z</Time>
            <Position>
              <LatitudeDegrees>43.4576458297669887542724609375</LatitudeDegrees>
              <LongitudeDegrees>-5.03864890895783901214599609375</LongitudeDegrees>
            </Position>
            <AltitudeMeters>46</AltitudeMeters>
            <DistanceMeters>NAN</DistanceMeters>
          </Trackpoint>
          <Trackpoint>
            <Time>2022-07-16T15:00:16.000Z</Time>
            <Position>
              <LatitudeDegrees>43.457673825323581695556640625</LatitudeDegrees>
              <LongitudeDegrees>-5.03895166330039501190185546875</LongitudeDegrees>
            </Position>
            <AltitudeMeters>44.799999237060546875</AltitudeMeters>
            <DistanceMeters>NAN</DistanceMeters>
          </Trackpoint>
          <Trackpoint>
            <Time>2022-07-16T15:00:17.000Z</Time>
            <Position>
              <LatitudeDegrees>43.4576874040067195892333984375</LatitudeDegrees>
              <LongitudeDegrees>-5.03905291669070720672607421875</LongitudeDegrees>
            </Position>
            <AltitudeMeters>44.200000762939453125</AltitudeMeters>
            <DistanceMeters>NAN</DistanceMeters>
          </Trackpoint>
          <Trackpoint>
            <Time>2022-07-16T15:00:19.000Z</Time>
            <Position>
              <LatitudeDegrees>43.4577212668955326080322265625</LatitudeDegrees>
              <LongitudeDegrees>-5.03925274126231670379638671875</LongitudeDegrees>
            </Position>
            <AltitudeMeters>43.59999847412109375</AltitudeMeters>
            <DistanceMeters>NAN</DistanceMeters>
          </Trackpoint>
          <Trackpoint>
            <Time>2022-07-16T15:00:23.000Z</Time>
            <Position>
              <LatitudeDegrees>43.45782143063843250274658203125</LatitudeDegrees>
              <LongitudeDegrees>-5.03962573595345020294189453125</LongitudeDegrees>
            </Position>
            <AltitudeMeters>42.59999847412109375</AltitudeMeters>
            <DistanceMeters>NAN</DistanceMeters>
          </Trackpoint>
          <Trackpoint>
            <Time>2022-07-16T15:00:26.000Z</Time>
            <Position>
              <LatitudeDegrees>43.45790457911789417266845703125</LatitudeDegrees>
              <LongitudeDegrees>-5.039871744811534881591796875</LongitudeDegrees>
            </Position>
            <AltitudeMeters>41.799999237060546875</AltitudeMeters>
            <DistanceMeters>NAN</DistanceMeters>
          </Trackpoint>
          <Trackpoint>
            <Time>2022-07-16T15:00:28.000Z</Time>
            <Position>
              <LatitudeDegrees>43.45795537345111370086669921875</LatitudeDegrees>
              <LongitudeDegrees>-5.04002085886895656585693359375</LongitudeDegrees>
            </Position>
            <AltitudeMeters>41.59999847412109375</AltitudeMeters>
            <DistanceMeters>NAN</DistanceMeters>
          </Trackpoint>
          <Trackpoint>
            <Time>2022-07-16T15:00:29.000Z</Time>
            <Position>
              <LatitudeDegrees>43.45797699876129627227783203125</LatitudeDegrees>
              <LongitudeDegrees>-5.04008992575109004974365234375</LongitudeDegrees>
            </Position>
            <AltitudeMeters>41.40000152587890625</AltitudeMeters>
            <DistanceMeters>NAN</DistanceMeters>
          </Trackpoint>
          <Trackpoint>
            <Time>2022-07-16T15:00:35.000Z</Time>
            <Position>
              <LatitudeDegrees>43.458088226616382598876953125</LatitudeDegrees>
              <LongitudeDegrees>-5.040428303182125091552734375</LongitudeDegrees>
            </Position>
            <AltitudeMeters>41.200000762939453125</AltitudeMeters>
            <DistanceMeters>NAN</DistanceMeters>
          </Trackpoint>
          <Trackpoint>
            <Time>2022-07-16T15:00:42.000Z</Time>
            <Position>
              <LatitudeDegrees>43.4581869654357433319091796875</LatitudeDegrees>
              <LongitudeDegrees>-5.0407142937183380126953125</LongitudeDegrees>
            </Position>
            <AltitudeMeters>41</AltitudeMeters>
            <DistanceMeters>NAN</DistanceMeters>
          </Trackpoint>
          <Trackpoint>
            <Time>2022-07-16T15:00:51.000Z</Time>
            <Position>
              <LatitudeDegrees>43.45830841921269893646240234375</LatitudeDegrees>
              <LongitudeDegrees>-5.0411385856568813323974609375</LongitudeDegrees>
            </Position>
            <AltitudeMeters>40.40000152587890625</AltitudeMeters>
            <DistanceMeters>NAN</DistanceMeters>
          </Trackpoint>
          <Trackpoint>
            <Time>2022-07-16T15:01:01.000Z</Time>
            <Position>
              <LatitudeDegrees>43.45836424268782138824462890625</LatitudeDegrees>
              <LongitudeDegrees>-5.04171668551862239837646484375</LongitudeDegrees>
            </Position>
            <AltitudeMeters>39.59999847412109375</AltitudeMeters>
            <DistanceMeters>NAN</DistanceMeters>
          </Trackpoint>
          <Trackpoint>
            <Time>2022-07-16T15:01:04.000Z</Time>
            <Position>
              <LatitudeDegrees>43.4583867900073528289794921875</LatitudeDegrees>
              <LongitudeDegrees>-5.04189237020909786224365234375</LongitudeDegrees>
            </Position>
            <AltitudeMeters>39.40000152587890625</AltitudeMeters>
            <DistanceMeters>NAN</DistanceMeters>
          </Trackpoint>
          <Trackpoint>
            <Time>2022-07-16T15:01:11.000Z</Time>
            <Position>
              <LatitudeDegrees>43.4584337286651134490966796875</LatitudeDegrees>
              <LongitudeDegrees>-5.04232655279338359832763671875</LongitudeDegrees>
            </Position>
            <AltitudeMeters>38.59999847412109375</AltitudeMeters>
            <DistanceMeters>NAN</DistanceMeters>
          </Trackpoint>
          <Trackpoint>
            <Time>2022-07-16T15:01:17.000Z</Time>
            <Position>
              <LatitudeDegrees>43.45842559821903705596923828125</LatitudeDegrees>
              <LongitudeDegrees>-5.0426801852881908416748046875</LongitudeDegrees>
            </Position>
            <AltitudeMeters>38.40000152587890625</AltitudeMeters>
            <DistanceMeters>NAN</DistanceMeters>
          </Trackpoint>
          <Trackpoint>
            <Time>2022-07-16T15:01:18.000Z</Time>
            <Position>
              <LatitudeDegrees>43.45841637812554836273193359375</LatitudeDegrees>
              <LongitudeDegrees>-5.04274028353393077850341796875</LongitudeDegrees>
            </Position>
            <AltitudeMeters>38.40000152587890625</AltitudeMeters>
            <DistanceMeters>NAN</DistanceMeters>
          </Trackpoint>
          <Trackpoint>
            <Time>2022-07-16T15:01:20.000Z</Time>
            <Position>
              <LatitudeDegrees>43.45840028487145900726318359375</LatitudeDegrees>
              <LongitudeDegrees>-5.042851008474826812744140625</LongitudeDegrees>
            </Position>
            <AltitudeMeters>38</AltitudeMeters>
            <DistanceMeters>NAN</DistanceMeters>
          </Trackpoint>
          <Trackpoint>
            <Time>2022-07-16T15:01:22.000Z</Time>
            <Position>
              <LatitudeDegrees>43.45836776308715343475341796875</LatitudeDegrees>
              <LongitudeDegrees>-5.04295804537832736968994140625</LongitudeDegrees>
            </Position>
            <AltitudeMeters>37.799999237060546875</AltitudeMeters>
            <DistanceMeters>NAN</DistanceMeters>
          </Trackpoint>
          <Trackpoint>
            <Time>2022-07-16T15:01:25.000Z</Time>
            <Position>
              <LatitudeDegrees>43.45831462182104587554931640625</LatitudeDegrees>
              <LongitudeDegrees>-5.0431284494698047637939453125</LongitudeDegrees>
            </Position>
            <AltitudeMeters>37.59999847412109375</AltitudeMeters>
            <DistanceMeters>NAN</DistanceMeters>
          </Trackpoint>
          <Trackpoint>
            <Time>2022-07-16T15:01:29.000Z</Time>
            <Position>
              <LatitudeDegrees>43.45825879834592342376708984375</LatitudeDegrees>
              <LongitudeDegrees>-5.0433678366243839263916015625</LongitudeDegrees>
            </Position>
            <AltitudeMeters>37.200000762939453125</AltitudeMeters>
            <DistanceMeters>NAN</DistanceMeters>
          </Trackpoint>
          <Trackpoint>
            <Time>2022-07-16T15:01:35.000Z</Time>
            <Position>
              <LatitudeDegrees>43.4581886418163776397705078125</LatitudeDegrees>
              <LongitudeDegrees>-5.04373286850750446319580078125</LongitudeDegrees>
            </Position>
            <AltitudeMeters>36.59999847412109375</AltitudeMeters>
            <DistanceMeters>NAN</DistanceMeters>
          </Trackpoint>
          <Trackpoint>
            <Time>2022-07-16T15:01:41.000Z</Time>
            <Position>
              <LatitudeDegrees>43.45818872563540935516357421875</LatitudeDegrees>
              <LongitudeDegrees>-5.0441124849021434783935546875</LongitudeDegrees>
            </Position>
            <AltitudeMeters>36.799999237060546875</AltitudeMeters>
            <DistanceMeters>NAN</DistanceMeters>
          </Trackpoint>
          <Trackpoint>
            <Time>2022-07-16T15:01:44.000Z</Time>
            <Position>
              <LatitudeDegrees>43.45820331014692783355712890625</LatitudeDegrees>
              <LongitudeDegrees>-5.04427987150847911834716796875</LongitudeDegrees>
            </Position>
            <AltitudeMeters>36.200000762939453125</AltitudeMeters>
            <DistanceMeters>NAN</DistanceMeters>
          </Trackpoint>
          <Trackpoint>
            <Time>2022-07-16T15:01:47.000Z</Time>
            <Position>
              <LatitudeDegrees>43.45822535455226898193359375</LatitudeDegrees>
              <LongitudeDegrees>-5.044418759644031524658203125</LongitudeDegrees>
            </Position>
            <AltitudeMeters>36</AltitudeMeters>
            <DistanceMeters>NAN</DistanceMeters>
          </Trackpoint>
          <Trackpoint>
            <Time>2022-07-16T15:01:53.000Z</Time>
            <Position>
              <LatitudeDegrees>43.45832250081002712249755859375</LatitudeDegrees>
              <LongitudeDegrees>-5.044642724096775054931640625</LongitudeDegrees>
            </Position>
            <AltitudeMeters>36</AltitudeMeters>
            <DistanceMeters>NAN</DistanceMeters>
          </Trackpoint>
          <Trackpoint>
            <Time>2022-07-16T15:02:01.000Z</Time>
            <Position>
              <LatitudeDegrees>43.45851075835525989532470703125</LatitudeDegrees>
              <LongitudeDegrees>-5.04496282897889614105224609375</LongitudeDegrees>
            </Position>
            <AltitudeMeters>36</AltitudeMeters>
            <DistanceMeters>NAN</DistanceMeters>
          </Trackpoint>
          <Trackpoint>
            <Time>2022-07-16T15:02:02.000Z</Time>
            <Position>
              <LatitudeDegrees>43.45853791572153568267822265625</LatitudeDegrees>
              <LongitudeDegrees>-5.04500105045735836029052734375</LongitudeDegrees>
            </Position>
            <AltitudeMeters>36</AltitudeMeters>
            <DistanceMeters>NAN</DistanceMeters>
          </Trackpoint>
          <Trackpoint>
            <Time>2022-07-16T15:02:06.000Z</Time>
            <Position>
              <LatitudeDegrees>43.4586422704160213470458984375</LatitudeDegrees>
              <LongitudeDegrees>-5.04515259526669979095458984375</LongitudeDegrees>
            </Position>
            <AltitudeMeters>36.200000762939453125</AltitudeMeters>
            <DistanceMeters>NAN</DistanceMeters>
          </Trackpoint>
          <Trackpoint>
            <Time>2022-07-16T15:02:12.000Z</Time>
            <Position>
              <LatitudeDegrees>43.45878903754055500030517578125</LatitudeDegrees>
              <LongitudeDegrees>-5.04533884115517139434814453125</LongitudeDegrees>
            </Position>
            <AltitudeMeters>36.40000152587890625</AltitudeMeters>
            <DistanceMeters>NAN</DistanceMeters>
          </Trackpoint>
          <Trackpoint>
            <Time>2022-07-16T15:02:21.000Z</Time>
            <Position>
              <LatitudeDegrees>43.45901601947844028472900390625</LatitudeDegrees>
              <LongitudeDegrees>-5.045618377625942230224609375</LongitudeDegrees>
            </Position>
            <AltitudeMeters>36.40000152587890625</AltitudeMeters>
            <DistanceMeters>NAN</DistanceMeters>
          </Trackpoint>
          <Trackpoint>
            <Time>2022-07-16T15:02:27.000Z</Time>
            <Position>
              <LatitudeDegrees>43.4591036103665828704833984375</LatitudeDegrees>
              <LongitudeDegrees>-5.04580370150506496429443359375</LongitudeDegrees>
            </Position>
            <AltitudeMeters>36.40000152587890625</AltitudeMeters>
            <DistanceMeters>NAN</DistanceMeters>
          </Trackpoint>
          <Trackpoint>
            <Time>2022-07-16T15:02:28.000Z</Time>
            <Position>
              <LatitudeDegrees>43.45909665338695049285888671875</LatitudeDegrees>
              <LongitudeDegrees>-5.04583085887134075164794921875</LongitudeDegrees>
            </Position>
            <AltitudeMeters>36.40000152587890625</AltitudeMeters>
            <DistanceMeters>NAN</DistanceMeters>
          </Trackpoint>
          <Trackpoint>
            <Time>2022-07-16T15:02:31.000Z</Time>
            <Position>
              <LatitudeDegrees>43.459068238735198974609375</LatitudeDegrees>
              <LongitudeDegrees>-5.04587997682392597198486328125</LongitudeDegrees>
            </Position>
            <AltitudeMeters>36</AltitudeMeters>
            <DistanceMeters>NAN</DistanceMeters>
          </Trackpoint>
          <Trackpoint>
            <Time>2022-07-16T15:02:34.000Z</Time>
            <Position>
              <LatitudeDegrees>43.4590251557528972625732421875</LatitudeDegrees>
              <LongitudeDegrees>-5.045920796692371368408203125</LongitudeDegrees>
            </Position>
            <AltitudeMeters>35.59999847412109375</AltitudeMeters>
            <DistanceMeters>NAN</DistanceMeters>
          </Trackpoint>
          <Trackpoint>
            <Time>2022-07-16T15:02:36.000Z</Time>
            <Position>
              <LatitudeDegrees>43.45896421931684017181396484375</LatitudeDegrees>
              <LongitudeDegrees>-5.045972429215908050537109375</LongitudeDegrees>
            </Position>
            <AltitudeMeters>35.200000762939453125</AltitudeMeters>
            <DistanceMeters>NAN</DistanceMeters>
          </Trackpoint>
          <Trackpoint>
            <Time>2022-07-16T15:02:37.000Z</Time>
            <Position>
              <LatitudeDegrees>43.45893505029380321502685546875</LatitudeDegrees>
              <LongitudeDegrees>-5.04600553773343563079833984375</LongitudeDegrees>
            </Position>
            <AltitudeMeters>35.200000762939453125</AltitudeMeters>
            <DistanceMeters>NAN</DistanceMeters>
          </Trackpoint>
          <Trackpoint>
            <Time>2022-07-16T15:02:39.000Z</Time>
            <Position>
              <LatitudeDegrees>43.45887101255357265472412109375</LatitudeDegrees>
              <LongitudeDegrees>-5.04607108421623706817626953125</LongitudeDegrees>
            </Position>
            <AltitudeMeters>34</AltitudeMeters>
            <DistanceMeters>NAN</DistanceMeters>
          </Trackpoint>
          <Trackpoint>
            <Time>2022-07-16T15:02:42.000Z</Time>
            <Position>
              <LatitudeDegrees>43.458802364766597747802734375</LatitudeDegrees>
              <LongitudeDegrees>-5.04615339450538158416748046875</LongitudeDegrees>
            </Position>
            <AltitudeMeters>33</AltitudeMeters>
            <DistanceMeters>NAN</DistanceMeters>
          </Trackpoint>
          <Trackpoint>
            <Time>2022-07-16T15:02:43.000Z</Time>
            <Position>
              <LatitudeDegrees>43.4587814100086688995361328125</LatitudeDegrees>
              <LongitudeDegrees>-5.04618457518517971038818359375</LongitudeDegrees>
            </Position>
            <AltitudeMeters>32.40000152587890625</AltitudeMeters>
            <DistanceMeters>NAN</DistanceMeters>
          </Trackpoint>
          <Trackpoint>
            <Time>2022-07-16T15:02:44.000Z</Time>
            <Position>
              <LatitudeDegrees>43.45875970087945461273193359375</LatitudeDegrees>
              <LongitudeDegrees>-5.04621709696948528289794921875</LongitudeDegrees>
            </Position>
            <AltitudeMeters>31.799999237060546875</AltitudeMeters>
            <DistanceMeters>NAN</DistanceMeters>
          </Trackpoint>
          <Trackpoint>
            <Time>2022-07-16T15:02:48.000Z</Time>
            <Position>
              <LatitudeDegrees>43.458660207688808441162109375</LatitudeDegrees>
              <LongitudeDegrees>-5.0463933683931827545166015625</LongitudeDegrees>
            </Position>
            <AltitudeMeters>30.6000003814697265625</AltitudeMeters>
            <DistanceMeters>NAN</DistanceMeters>
          </Trackpoint>
          <Trackpoint>
            <Time>2022-07-16T15:02:49.000Z</Time>
            <Position>
              <LatitudeDegrees>43.4586296975612640380859375</LatitudeDegrees>
              <LongitudeDegrees>-5.04644072614610195159912109375</LongitudeDegrees>
            </Position>
            <AltitudeMeters>30.6000003814697265625</AltitudeMeters>
            <DistanceMeters>NAN</DistanceMeters>
          </Trackpoint>
          <Trackpoint>
            <Time>2022-07-16T15:02:50.000Z</Time>
            <Position>
              <LatitudeDegrees>43.45859960652887821197509765625</LatitudeDegrees>
              <LongitudeDegrees>-5.04648213274776935577392578125</LongitudeDegrees>
            </Position>
            <AltitudeMeters>30.3999996185302734375</AltitudeMeters>
            <DistanceMeters>NAN</DistanceMeters>
          </Trackpoint>
          <Trackpoint>
            <Time>2022-07-16T15:02:52.000Z</Time>
            <Position>
              <LatitudeDegrees>43.45852768979966640472412109375</LatitudeDegrees>
              <LongitudeDegrees>-5.046547763049602508544921875</LongitudeDegrees>
            </Position>
            <AltitudeMeters>29.6000003814697265625</AltitudeMeters>
            <DistanceMeters>NAN</DistanceMeters>
          </Trackpoint>
          <Trackpoint>
            <Time>2022-07-16T15:02:54.000Z</Time>
            <Position>
              <LatitudeDegrees>43.4584548510611057281494140625</LatitudeDegrees>
              <LongitudeDegrees>-5.0465978868305683135986328125</LongitudeDegrees>
            </Position>
            <AltitudeMeters>29</AltitudeMeters>
            <DistanceMeters>NAN</DistanceMeters>
          </Trackpoint>
          <Trackpoint>
            <Time>2022-07-16T15:02:56.000Z</Time>
            <Position>
              <LatitudeDegrees>43.45838201232254505157470703125</LatitudeDegrees>
              <LongitudeDegrees>-5.0466465018689632415771484375</LongitudeDegrees>
            </Position>
            <AltitudeMeters>28.6000003814697265625</AltitudeMeters>
            <DistanceMeters>NAN</DistanceMeters>
          </Trackpoint>
          <Trackpoint>
            <Time>2022-07-16T15:02:57.000Z</Time>
            <Position>
              <LatitudeDegrees>43.458346389234066009521484375</LatitudeDegrees>
              <LongitudeDegrees>-5.0466686300933361053466796875</LongitudeDegrees>
            </Position>
            <AltitudeMeters>28.6000003814697265625</AltitudeMeters>
            <DistanceMeters>NAN</DistanceMeters>
          </Trackpoint>
          <Trackpoint>
            <Time>2022-07-16T15:03:00.000Z</Time>
            <Position>
              <LatitudeDegrees>43.45825217664241790771484375</LatitudeDegrees>
              <LongitudeDegrees>-5.04671531729400157928466796875</LongitudeDegrees>
            </Position>
            <AltitudeMeters>28.200000762939453125</AltitudeMeters>
            <DistanceMeters>NAN</DistanceMeters>
          </Trackpoint>
          <Trackpoint>
            <Time>2022-07-16T15:03:02.000Z</Time>
            <Position>
              <LatitudeDegrees>43.45820314250886440277099609375</LatitudeDegrees>
              <LongitudeDegrees>-5.0467450730502605438232421875</LongitudeDegrees>
            </Position>
            <AltitudeMeters>28</AltitudeMeters>
            <DistanceMeters>NAN</DistanceMeters>
          </Trackpoint>
          <Trackpoint>
            <Time>2022-07-16T15:03:04.000Z</Time>
            <Position>
              <LatitudeDegrees>43.45816098153591156005859375</LatitudeDegrees>
              <LongitudeDegrees>-5.04680491983890533447265625</LongitudeDegrees>
            </Position>
            <AltitudeMeters>28</AltitudeMeters>
            <DistanceMeters>NAN</DistanceMeters>
          </Trackpoint>
          <Trackpoint>
            <Time>2022-07-16T15:03:05.000Z</Time>
            <Position>
              <LatitudeDegrees>43.458155952394008636474609375</LatitudeDegrees>
              <LongitudeDegrees>-5.0468523614108562469482421875</LongitudeDegrees>
            </Position>
            <AltitudeMeters>27.799999237060546875</AltitudeMeters>
            <DistanceMeters>NAN</DistanceMeters>
          </Trackpoint>
          <Trackpoint>
            <Time>2022-07-16T15:03:07.000Z</Time>
            <Position>
              <LatitudeDegrees>43.45817816443741321563720703125</LatitudeDegrees>
              <LongitudeDegrees>-5.04693056456744670867919921875</LongitudeDegrees>
            </Position>
            <AltitudeMeters>27.6000003814697265625</AltitudeMeters>
            <DistanceMeters>NAN</DistanceMeters>
          </Trackpoint>
          <Trackpoint>
            <Time>2022-07-16T15:03:09.000Z</Time>
            <Position>
              <LatitudeDegrees>43.458211608231067657470703125</LatitudeDegrees>
              <LongitudeDegrees>-5.04699124954640865325927734375</LongitudeDegrees>
            </Position>
            <AltitudeMeters>27.3999996185302734375</AltitudeMeters>
            <DistanceMeters>NAN</DistanceMeters>
          </Trackpoint>
          <Trackpoint>
            <Time>2022-07-16T15:03:17.000Z</Time>
            <Position>
              <LatitudeDegrees>43.4583341516554355621337890625</LatitudeDegrees>
              <LongitudeDegrees>-5.0473137013614177703857421875</LongitudeDegrees>
            </Position>
            <AltitudeMeters>27.200000762939453125</AltitudeMeters>
            <DistanceMeters>NAN</DistanceMeters>
          </Trackpoint>
          <Trackpoint>
            <Time>2022-07-16T15:03:22.000Z</Time>
            <Position>
              <LatitudeDegrees>43.4584112651646137237548828125</LatitudeDegrees>
              <LongitudeDegrees>-5.04752467386424541473388671875</LongitudeDegrees>
            </Position>
            <AltitudeMeters>27</AltitudeMeters>
            <DistanceMeters>NAN</DistanceMeters>
          </Trackpoint>
          <Trackpoint>
            <Time>2022-07-16T15:03:26.000Z</Time>
            <Position>
              <LatitudeDegrees>43.45846675336360931396484375</LatitudeDegrees>
              <LongitudeDegrees>-5.04768066108226776123046875</LongitudeDegrees>
            </Position>
            <AltitudeMeters>27</AltitudeMeters>
            <DistanceMeters>NAN</DistanceMeters>
          </Trackpoint>
          <Trackpoint>
            <Time>2022-07-16T15:03:29.000Z</Time>
            <Position>
              <LatitudeDegrees>43.4585058130323886871337890625</LatitudeDegrees>
              <LongitudeDegrees>-5.04781133495271205902099609375</LongitudeDegrees>
            </Position>
            <AltitudeMeters>27</AltitudeMeters>
            <DistanceMeters>NAN</DistanceMeters>
          </Trackpoint>
          <Trackpoint>
            <Time>2022-07-16T15:03:38.000Z</Time>
            <Position>
              <LatitudeDegrees>43.458558283746242523193359375</LatitudeDegrees>
              <LongitudeDegrees>-5.04816957749426364898681640625</LongitudeDegrees>
            </Position>
            <AltitudeMeters>27</AltitudeMeters>
            <DistanceMeters>NAN</DistanceMeters>
          </Trackpoint>
          <Trackpoint>
            <Time>2022-07-16T15:03:44.000Z</Time>
            <Position>
              <LatitudeDegrees>43.4585554338991641998291015625</LatitudeDegrees>
              <LongitudeDegrees>-5.048328079283237457275390625</LongitudeDegrees>
            </Position>
            <AltitudeMeters>27.3999996185302734375</AltitudeMeters>
            <DistanceMeters>NAN</DistanceMeters>
          </Trackpoint>
          <Trackpoint>
            <Time>2022-07-16T15:03:46.000Z</Time>
            <Position>
              <LatitudeDegrees>43.458546213805675506591796875</LatitudeDegrees>
              <LongitudeDegrees>-5.04837803542613983154296875</LongitudeDegrees>
            </Position>
            <AltitudeMeters>27.799999237060546875</AltitudeMeters>
            <DistanceMeters>NAN</DistanceMeters>
          </Trackpoint>
          <Trackpoint>
            <Time>2022-07-16T15:03:48.000Z</Time>
            <Position>
              <LatitudeDegrees>43.45853858627378940582275390625</LatitudeDegrees>
              <LongitudeDegrees>-5.048427321016788482666015625</LongitudeDegrees>
            </Position>
            <AltitudeMeters>28.200000762939453125</AltitudeMeters>
            <DistanceMeters>NAN</DistanceMeters>
          </Trackpoint>
          <Trackpoint>
            <Time>2022-07-16T15:03:51.000Z</Time>
            <Position>
              <LatitudeDegrees>43.45853171311318874359130859375</LatitudeDegrees>
              <LongitudeDegrees>-5.04849043674767017364501953125</LongitudeDegrees>
            </Position>
            <AltitudeMeters>28.6000003814697265625</AltitudeMeters>
            <DistanceMeters>NAN</DistanceMeters>
          </Trackpoint>
          <Trackpoint>
            <Time>2022-07-16T15:03:53.000Z</Time>
            <Position>
              <LatitudeDegrees>43.4585165418684482574462890625</LatitudeDegrees>
              <LongitudeDegrees>-5.04853427410125732421875</LongitudeDegrees>
            </Position>
            <AltitudeMeters>28.6000003814697265625</AltitudeMeters>
            <DistanceMeters>NAN</DistanceMeters>
          </Trackpoint>
          <Trackpoint>
            <Time>2022-07-16T15:03:59.000Z</Time>
            <Position>
              <LatitudeDegrees>43.4584632329642772674560546875</LatitudeDegrees>
              <LongitudeDegrees>-5.04867802374064922332763671875</LongitudeDegrees>
            </Position>
            <AltitudeMeters>29</AltitudeMeters>
            <DistanceMeters>NAN</DistanceMeters>
          </Trackpoint>
          <Trackpoint>
            <Time>2022-07-16T15:04:05.000Z</Time>
            <Position>
              <LatitudeDegrees>43.45845543779432773590087890625</LatitudeDegrees>
              <LongitudeDegrees>-5.04882596433162689208984375</LongitudeDegrees>
            </Position>
            <AltitudeMeters>29.200000762939453125</AltitudeMeters>
            <DistanceMeters>NAN</DistanceMeters>
          </Trackpoint>
          <Trackpoint>
            <Time>2022-07-16T15:04:11.000Z</Time>
            <Position>
              <LatitudeDegrees>43.45850774087011814117431640625</LatitudeDegrees>
              <LongitudeDegrees>-5.04910130985081195831298828125</LongitudeDegrees>
            </Position>
            <AltitudeMeters>29.200000762939453125</AltitudeMeters>
            <DistanceMeters>NAN</DistanceMeters>
          </Trackpoint>
          <Trackpoint>
            <Time>2022-07-16T15:04:16.000Z</Time>
            <Position>
              <LatitudeDegrees>43.45857647247612476348876953125</LatitudeDegrees>
              <LongitudeDegrees>-5.0492774136364459991455078125</LongitudeDegrees>
            </Position>
            <AltitudeMeters>29.200000762939453125</AltitudeMeters>
            <DistanceMeters>NAN</DistanceMeters>
          </Trackpoint>
          <Trackpoint>
            <Time>2022-07-16T15:04:20.000Z</Time>
            <Position>
              <LatitudeDegrees>43.45867219381034374237060546875</LatitudeDegrees>
              <LongitudeDegrees>-5.04946810193359851837158203125</LongitudeDegrees>
            </Position>
            <AltitudeMeters>28.6000003814697265625</AltitudeMeters>
            <DistanceMeters>NAN</DistanceMeters>
          </Trackpoint>
          <Trackpoint>
            <Time>2022-07-16T15:04:21.000Z</Time>
            <Position>
              <LatitudeDegrees>43.45869071781635284423828125</LatitudeDegrees>
              <LongitudeDegrees>-5.04953264258801937103271484375</LongitudeDegrees>
            </Position>
            <AltitudeMeters>28.6000003814697265625</AltitudeMeters>
            <DistanceMeters>NAN</DistanceMeters>
          </Trackpoint>
          <Trackpoint>
            <Time>2022-07-16T15:04:23.000Z</Time>
            <Position>
              <LatitudeDegrees>43.45873455516993999481201171875</LatitudeDegrees>
              <LongitudeDegrees>-5.04966951906681060791015625</LongitudeDegrees>
            </Position>
            <AltitudeMeters>28.6000003814697265625</AltitudeMeters>
            <DistanceMeters>NAN</DistanceMeters>
          </Trackpoint>
          <Trackpoint>
            <Time>2022-07-16T15:04:28.000Z</Time>
            <Position>
              <LatitudeDegrees>43.45885592512786388397216796875</LatitudeDegrees>
              <LongitudeDegrees>-5.0499171204864978790283203125</LongitudeDegrees>
            </Position>
            <AltitudeMeters>28.799999237060546875</AltitudeMeters>
            <DistanceMeters>NAN</DistanceMeters>
          </Trackpoint>
          <Trackpoint>
            <Time>2022-07-16T15:04:30.000Z</Time>
            <Position>
              <LatitudeDegrees>43.45889816991984844207763671875</LatitudeDegrees>
              <LongitudeDegrees>-5.0499835051596164703369140625</LongitudeDegrees>
            </Position>
            <AltitudeMeters>29</AltitudeMeters>
            <DistanceMeters>NAN</DistanceMeters>
          </Trackpoint>
          <Trackpoint>
            <Time>2022-07-16T15:04:32.000Z</Time>
            <Position>
              <LatitudeDegrees>43.4589312784373760223388671875</LatitudeDegrees>
              <LongitudeDegrees>-5.05003471858799457550048828125</LongitudeDegrees>
            </Position>
            <AltitudeMeters>29.3999996185302734375</AltitudeMeters>
            <DistanceMeters>NAN</DistanceMeters>
          </Trackpoint>
          <Trackpoint>
            <Time>2022-07-16T15:04:35.000Z</Time>
            <Position>
              <LatitudeDegrees>43.45896639861166477203369140625</LatitudeDegrees>
              <LongitudeDegrees>-5.05007528699934482574462890625</LongitudeDegrees>
            </Position>
            <AltitudeMeters>29.6000003814697265625</AltitudeMeters>
            <DistanceMeters>NAN</DistanceMeters>
          </Trackpoint>
          <Trackpoint>
            <Time>2022-07-16T15:04:36.000Z</Time>
            <Position>
              <LatitudeDegrees>43.45898316241800785064697265625</LatitudeDegrees>
              <LongitudeDegrees>-5.05008769221603870391845703125</LongitudeDegrees>
            </Position>
            <AltitudeMeters>29.799999237060546875</AltitudeMeters>
            <DistanceMeters>NAN</DistanceMeters>
          </Trackpoint>
          <Trackpoint>
            <Time>2022-07-16T15:04:44.000Z</Time>
            <Position>
              <LatitudeDegrees>43.459078632295131683349609375</LatitudeDegrees>
              <LongitudeDegrees>-5.05017511546611785888671875</LongitudeDegrees>
            </Position>
            <AltitudeMeters>30.799999237060546875</AltitudeMeters>
            <DistanceMeters>NAN</DistanceMeters>
          </Trackpoint>
          <Trackpoint>
            <Time>2022-07-16T15:04:45.000Z</Time>
            <Position>
              <LatitudeDegrees>43.45908768475055694580078125</LatitudeDegrees>
              <LongitudeDegrees>-5.050186850130558013916015625</LongitudeDegrees>
            </Position>
            <AltitudeMeters>30.799999237060546875</AltitudeMeters>
            <DistanceMeters>NAN</DistanceMeters>
          </Trackpoint>
          <Trackpoint>
            <Time>2022-07-16T15:04:52.000Z</Time>
            <Position>
              <LatitudeDegrees>43.45916739664971828460693359375</LatitudeDegrees>
              <LongitudeDegrees>-5.05027947016060352325439453125</LongitudeDegrees>
            </Position>
            <AltitudeMeters>31.799999237060546875</AltitudeMeters>
            <DistanceMeters>NAN</DistanceMeters>
          </Trackpoint>
          <Trackpoint>
            <Time>2022-07-16T15:04:53.000Z</Time>
            <Position>
              <LatitudeDegrees>43.45917628146708011627197265625</LatitudeDegrees>
              <LongitudeDegrees>-5.050294138491153717041015625</LongitudeDegrees>
            </Position>
            <AltitudeMeters>32</AltitudeMeters>
            <DistanceMeters>NAN</DistanceMeters>
          </Trackpoint>
          <Trackpoint>
            <Time>2022-07-16T15:05:00.000Z</Time>
            <Position>
              <LatitudeDegrees>43.4592494554817676544189453125</LatitudeDegrees>
              <LongitudeDegrees>-5.05039036273956298828125</LongitudeDegrees>
            </Position>
            <AltitudeMeters>32.40000152587890625</AltitudeMeters>
            <DistanceMeters>NAN</DistanceMeters>
          </Trackpoint>
          <Trackpoint>
            <Time>2022-07-16T15:05:09.000Z</Time>
            <Position>
              <LatitudeDegrees>43.4593611024320125579833984375</LatitudeDegrees>
              <LongitudeDegrees>-5.05052489228546619415283203125</LongitudeDegrees>
            </Position>
            <AltitudeMeters>33</AltitudeMeters>
            <DistanceMeters>NAN</DistanceMeters>
          </Trackpoint>
          <Trackpoint>
            <Time>2022-07-16T15:05:15.000Z</Time>
            <Position>
              <LatitudeDegrees>43.45942891202867031097412109375</LatitudeDegrees>
              <LongitudeDegrees>-5.05063184536993503570556640625</LongitudeDegrees>
            </Position>
            <AltitudeMeters>33.59999847412109375</AltitudeMeters>
            <DistanceMeters>NAN</DistanceMeters>
          </Trackpoint>
          <Trackpoint>
            <Time>2022-07-16T15:05:21.000Z</Time>
            <Position>
              <LatitudeDegrees>43.45949026755988597869873046875</LatitudeDegrees>
              <LongitudeDegrees>-5.0507207773625850677490234375</LongitudeDegrees>
            </Position>
            <AltitudeMeters>34</AltitudeMeters>
            <DistanceMeters>NAN</DistanceMeters>
          </Trackpoint>
          <Trackpoint>
            <Time>2022-07-16T15:05:25.000Z</Time>
            <Position>
              <LatitudeDegrees>43.4595223702490329742431640625</LatitudeDegrees>
              <LongitudeDegrees>-5.05079110153019428253173828125</LongitudeDegrees>
            </Position>
            <AltitudeMeters>34.40000152587890625</AltitudeMeters>
            <DistanceMeters>NAN</DistanceMeters>
          </Trackpoint>
          <Trackpoint>
            <Time>2022-07-16T15:05:28.000Z</Time>
            <Position>
              <LatitudeDegrees>43.45953829586505889892578125</LatitudeDegrees>
              <LongitudeDegrees>-5.050852037966251373291015625</LongitudeDegrees>
            </Position>
            <AltitudeMeters>34.799999237060546875</AltitudeMeters>
            <DistanceMeters>NAN</DistanceMeters>
          </Trackpoint>
          <Trackpoint>
            <Time>2022-07-16T15:05:30.000Z</Time>
            <Position>
              <LatitudeDegrees>43.45955313183367252349853515625</LatitudeDegrees>
              <LongitudeDegrees>-5.0508807040750980377197265625</LongitudeDegrees>
            </Position>
            <AltitudeMeters>35.200000762939453125</AltitudeMeters>
            <DistanceMeters>NAN</DistanceMeters>
          </Trackpoint>
          <Trackpoint>
            <Time>2022-07-16T15:05:36.000Z</Time>
            <Position>
              <LatitudeDegrees>43.45961381681263446807861328125</LatitudeDegrees>
              <LongitudeDegrees>-5.05097265355288982391357421875</LongitudeDegrees>
            </Position>
            <AltitudeMeters>35.59999847412109375</AltitudeMeters>
            <DistanceMeters>NAN</DistanceMeters>
          </Trackpoint>
          <Trackpoint>
            <Time>2022-07-16T15:05:44.000Z</Time>
            <Position>
              <LatitudeDegrees>43.4596722386777400970458984375</LatitudeDegrees>
              <LongitudeDegrees>-5.0511224381625652313232421875</LongitudeDegrees>
            </Position>
            <AltitudeMeters>36</AltitudeMeters>
            <DistanceMeters>NAN</DistanceMeters>
          </Trackpoint>
          <Trackpoint>
            <Time>2022-07-16T15:05:45.000Z</Time>
            <Position>
              <LatitudeDegrees>43.459677435457706451416015625</LatitudeDegrees>
              <LongitudeDegrees>-5.05113408900797367095947265625</LongitudeDegrees>
            </Position>
            <AltitudeMeters>36.200000762939453125</AltitudeMeters>
            <DistanceMeters>NAN</DistanceMeters>
          </Trackpoint>
          <Trackpoint>
            <Time>2022-07-16T15:05:51.000Z</Time>
            <Position>
              <LatitudeDegrees>43.45970551483333110809326171875</LatitudeDegrees>
              <LongitudeDegrees>-5.051204748451709747314453125</LongitudeDegrees>
            </Position>
            <AltitudeMeters>36.59999847412109375</AltitudeMeters>
            <DistanceMeters>NAN</DistanceMeters>
          </Trackpoint>
          <Trackpoint>
            <Time>2022-07-16T15:05:57.000Z</Time>
            <Position>
              <LatitudeDegrees>43.45968154259026050567626953125</LatitudeDegrees>
              <LongitudeDegrees>-5.0512982904911041259765625</LongitudeDegrees>
            </Position>
            <AltitudeMeters>37.200000762939453125</AltitudeMeters>
            <DistanceMeters>NAN</DistanceMeters>
          </Trackpoint>
          <Trackpoint>
            <Time>2022-07-16T15:05:58.000Z</Time>
            <Position>
              <LatitudeDegrees>43.45968305133283138275146484375</LatitudeDegrees>
              <LongitudeDegrees>-5.051318071782588958740234375</LongitudeDegrees>
            </Position>
            <AltitudeMeters>37.40000152587890625</AltitudeMeters>
            <DistanceMeters>NAN</DistanceMeters>
          </Trackpoint>
          <Trackpoint>
            <Time>2022-07-16T15:06:01.000Z</Time>
            <Position>
              <LatitudeDegrees>43.45970652066171169281005859375</LatitudeDegrees>
              <LongitudeDegrees>-5.0513708777725696563720703125</LongitudeDegrees>
            </Position>
            <AltitudeMeters>37.799999237060546875</AltitudeMeters>
            <DistanceMeters>NAN</DistanceMeters>
          </Trackpoint>
          <Trackpoint>
            <Time>2022-07-16T15:06:04.000Z</Time>
            <Position>
              <LatitudeDegrees>43.4597339294850826263427734375</LatitudeDegrees>
              <LongitudeDegrees>-5.05141454748809337615966796875</LongitudeDegrees>
            </Position>
            <AltitudeMeters>38.40000152587890625</AltitudeMeters>
            <DistanceMeters>NAN</DistanceMeters>
          </Trackpoint>
          <Trackpoint>
            <Time>2022-07-16T15:06:06.000Z</Time>
            <Position>
              <LatitudeDegrees>43.4597436524927616119384765625</LatitudeDegrees>
              <LongitudeDegrees>-5.05144170485436916351318359375</LongitudeDegrees>
            </Position>
            <AltitudeMeters>38.799999237060546875</AltitudeMeters>
            <DistanceMeters>NAN</DistanceMeters>
          </Trackpoint>
          <Trackpoint>
            <Time>2022-07-16T15:06:09.000Z</Time>
            <Position>
              <LatitudeDegrees>43.45974289812147617340087890625</LatitudeDegrees>
              <LongitudeDegrees>-5.05150674842298030853271484375</LongitudeDegrees>
            </Position>
            <AltitudeMeters>39.40000152587890625</AltitudeMeters>
            <DistanceMeters>NAN</DistanceMeters>
          </Trackpoint>
          <Trackpoint>
            <Time>2022-07-16T15:06:12.000Z</Time>
            <Position>
              <LatitudeDegrees>43.459761254489421844482421875</LatitudeDegrees>
              <LongitudeDegrees>-5.05155636928975582122802734375</LongitudeDegrees>
            </Position>
            <AltitudeMeters>39.799999237060546875</AltitudeMeters>
            <DistanceMeters>NAN</DistanceMeters>
          </Trackpoint>
          <Trackpoint>
            <Time>2022-07-16T15:06:14.000Z</Time>
            <Position>
              <LatitudeDegrees>43.4597654454410076141357421875</LatitudeDegrees>
              <LongitudeDegrees>-5.0515931658446788787841796875</LongitudeDegrees>
            </Position>
            <AltitudeMeters>40.40000152587890625</AltitudeMeters>
            <DistanceMeters>NAN</DistanceMeters>
          </Trackpoint>
          <Trackpoint>
            <Time>2022-07-16T15:06:15.000Z</Time>
            <Position>
              <LatitudeDegrees>43.45976360142230987548828125</LatitudeDegrees>
              <LongitudeDegrees>-5.05161269567906856536865234375</LongitudeDegrees>
            </Position>
            <AltitudeMeters>40.59999847412109375</AltitudeMeters>
            <DistanceMeters>NAN</DistanceMeters>
          </Trackpoint>
          <Trackpoint>
            <Time>2022-07-16T15:06:19.000Z</Time>
            <Position>
              <LatitudeDegrees>43.459763936698436737060546875</LatitudeDegrees>
              <LongitudeDegrees>-5.05168243311345577239990234375</LongitudeDegrees>
            </Position>
            <AltitudeMeters>41.59999847412109375</AltitudeMeters>
            <DistanceMeters>NAN</DistanceMeters>
          </Trackpoint>
          <Trackpoint>
            <Time>2022-07-16T15:06:22.000Z</Time>
            <Position>
              <LatitudeDegrees>43.45976670272648334503173828125</LatitudeDegrees>
              <LongitudeDegrees>-5.05173624493181705474853515625</LongitudeDegrees>
            </Position>
            <AltitudeMeters>42.200000762939453125</AltitudeMeters>
            <DistanceMeters>NAN</DistanceMeters>
          </Trackpoint>
          <Trackpoint>
            <Time>2022-07-16T15:06:25.000Z</Time>
            <Position>
              <LatitudeDegrees>43.4597721509635448455810546875</LatitudeDegrees>
              <LongitudeDegrees>-5.05178821273148059844970703125</LongitudeDegrees>
            </Position>
            <AltitudeMeters>42.799999237060546875</AltitudeMeters>
            <DistanceMeters>NAN</DistanceMeters>
          </Trackpoint>
          <Trackpoint>
            <Time>2022-07-16T15:06:26.000Z</Time>
            <Position>
              <LatitudeDegrees>43.4597724862396717071533203125</LatitudeDegrees>
              <LongitudeDegrees>-5.05180464126169681549072265625</LongitudeDegrees>
            </Position>
            <AltitudeMeters>43</AltitudeMeters>
            <DistanceMeters>NAN</DistanceMeters>
          </Trackpoint>
          <Trackpoint>
            <Time>2022-07-16T15:06:29.000Z</Time>
            <Position>
              <LatitudeDegrees>43.45976720564067363739013671875</LatitudeDegrees>
              <LongitudeDegrees>-5.0518550164997577667236328125</LongitudeDegrees>
            </Position>
            <AltitudeMeters>43.799999237060546875</AltitudeMeters>
            <DistanceMeters>NAN</DistanceMeters>
          </Trackpoint>
          <Trackpoint>
            <Time>2022-07-16T15:06:33.000Z</Time>
            <Position>
              <LatitudeDegrees>43.45978371798992156982421875</LatitudeDegrees>
              <LongitudeDegrees>-5.0519093312323093414306640625</LongitudeDegrees>
            </Position>
            <AltitudeMeters>44.40000152587890625</AltitudeMeters>
            <DistanceMeters>NAN</DistanceMeters>
          </Trackpoint>
          <Trackpoint>
            <Time>2022-07-16T15:06:35.000Z</Time>
            <Position>
              <LatitudeDegrees>43.45977860502898693084716796875</LatitudeDegrees>
              <LongitudeDegrees>-5.0519405119121074676513671875</LongitudeDegrees>
            </Position>
            <AltitudeMeters>44.799999237060546875</AltitudeMeters>
            <DistanceMeters>NAN</DistanceMeters>
          </Trackpoint>
          <Trackpoint>
            <Time>2022-07-16T15:06:36.000Z</Time>
            <Position>
              <LatitudeDegrees>43.45977089367806911468505859375</LatitudeDegrees>
              <LongitudeDegrees>-5.05195585079491138458251953125</LongitudeDegrees>
            </Position>
            <AltitudeMeters>45</AltitudeMeters>
            <DistanceMeters>NAN</DistanceMeters>
          </Trackpoint>
          <Trackpoint>
            <Time>2022-07-16T15:06:43.000Z</Time>
            <Position>
              <LatitudeDegrees>43.45978413708508014678955078125</LatitudeDegrees>
              <LongitudeDegrees>-5.05206699483096599578857421875</LongitudeDegrees>
            </Position>
            <AltitudeMeters>45.59999847412109375</AltitudeMeters>
            <DistanceMeters>NAN</DistanceMeters>
          </Trackpoint>
          <Trackpoint>
            <Time>2022-07-16T15:06:45.000Z</Time>
            <Position>
              <LatitudeDegrees>43.45978883095085620880126953125</LatitudeDegrees>
              <LongitudeDegrees>-5.052102617919445037841796875</LongitudeDegrees>
            </Position>
            <AltitudeMeters>45.59999847412109375</AltitudeMeters>
            <DistanceMeters>NAN</DistanceMeters>
          </Trackpoint>
          <Trackpoint>
            <Time>2022-07-16T15:06:49.000Z</Time>
            <Position>
              <LatitudeDegrees>43.45978229306638240814208984375</LatitudeDegrees>
              <LongitudeDegrees>-5.05216673947870731353759765625</LongitudeDegrees>
            </Position>
            <AltitudeMeters>46</AltitudeMeters>
            <DistanceMeters>NAN</DistanceMeters>
          </Trackpoint>
          <Trackpoint>
            <Time>2022-07-16T15:06:51.000Z</Time>
            <Position>
              <LatitudeDegrees>43.45977944321930408477783203125</LatitudeDegrees>
              <LongitudeDegrees>-5.05220479331910610198974609375</LongitudeDegrees>
            </Position>
            <AltitudeMeters>46.200000762939453125</AltitudeMeters>
            <DistanceMeters>NAN</DistanceMeters>
          </Trackpoint>
          <Trackpoint>
            <Time>2022-07-16T15:06:57.000Z</Time>
            <Position>
              <LatitudeDegrees>43.45980425365269184112548828125</LatitudeDegrees>
              <LongitudeDegrees>-5.05232951603829860687255859375</LongitudeDegrees>
            </Position>
            <AltitudeMeters>46.40000152587890625</AltitudeMeters>
            <DistanceMeters>NAN</DistanceMeters>
          </Trackpoint>
          <Trackpoint>
            <Time>2022-07-16T15:06:59.000Z</Time>
            <Position>
              <LatitudeDegrees>43.459823615849018096923828125</LatitudeDegrees>
              <LongitudeDegrees>-5.0523716770112514495849609375</LongitudeDegrees>
            </Position>
            <AltitudeMeters>46.40000152587890625</AltitudeMeters>
            <DistanceMeters>NAN</DistanceMeters>
          </Trackpoint>
          <Trackpoint>
            <Time>2022-07-16T15:07:01.000Z</Time>
            <Position>
              <LatitudeDegrees>43.45985253341495990753173828125</LatitudeDegrees>
              <LongitudeDegrees>-5.05241149105131626129150390625</LongitudeDegrees>
            </Position>
            <AltitudeMeters>46.40000152587890625</AltitudeMeters>
            <DistanceMeters>NAN</DistanceMeters>
          </Trackpoint>
          <Trackpoint>
            <Time>2022-07-16T15:07:02.000Z</Time>
            <Position>
              <LatitudeDegrees>43.45986711792647838592529296875</LatitudeDegrees>
              <LongitudeDegrees>-5.05243278108537197113037109375</LongitudeDegrees>
            </Position>
            <AltitudeMeters>46.40000152587890625</AltitudeMeters>
            <DistanceMeters>NAN</DistanceMeters>
          </Trackpoint>
          <Trackpoint>
            <Time>2022-07-16T15:07:03.000Z</Time>
            <Position>
              <LatitudeDegrees>43.459877930581569671630859375</LatitudeDegrees>
              <LongitudeDegrees>-5.05246094428002834320068359375</LongitudeDegrees>
            </Position>
            <AltitudeMeters>46.40000152587890625</AltitudeMeters>
            <DistanceMeters>NAN</DistanceMeters>
          </Trackpoint>
          <Trackpoint>
            <Time>2022-07-16T15:07:10.000Z</Time>
            <Position>
              <LatitudeDegrees>43.45988321118056774139404296875</LatitudeDegrees>
              <LongitudeDegrees>-5.052714832127094268798828125</LongitudeDegrees>
            </Position>
            <AltitudeMeters>46.40000152587890625</AltitudeMeters>
            <DistanceMeters>NAN</DistanceMeters>
          </Trackpoint>
          <Trackpoint>
            <Time>2022-07-16T15:07:18.000Z</Time>
            <Position>
              <LatitudeDegrees>43.45991757698357105255126953125</LatitudeDegrees>
              <LongitudeDegrees>-5.0530428998172283172607421875</LongitudeDegrees>
            </Position>
            <AltitudeMeters>46</AltitudeMeters>
            <DistanceMeters>NAN</DistanceMeters>
          </Trackpoint>
          <Trackpoint>
            <Time>2022-07-16T15:07:23.000Z</Time>
            <Position>
              <LatitudeDegrees>43.45995797775685787200927734375</LatitudeDegrees>
              <LongitudeDegrees>-5.05330835469067096710205078125</LongitudeDegrees>
            </Position>
            <AltitudeMeters>45.799999237060546875</AltitudeMeters>
            <DistanceMeters>NAN</DistanceMeters>
          </Trackpoint>
          <Trackpoint>
            <Time>2022-07-16T15:07:27.000Z</Time>
            <Position>
              <LatitudeDegrees>43.46000072546303272247314453125</LatitudeDegrees>
              <LongitudeDegrees>-5.053532235324382781982421875</LongitudeDegrees>
            </Position>
            <AltitudeMeters>45</AltitudeMeters>
            <DistanceMeters>NAN</DistanceMeters>
          </Trackpoint>
          <Trackpoint>
            <Time>2022-07-16T15:07:31.000Z</Time>
            <Position>
              <LatitudeDegrees>43.4600584767758846282958984375</LatitudeDegrees>
              <LongitudeDegrees>-5.05374823696911334991455078125</LongitudeDegrees>
            </Position>
            <AltitudeMeters>44</AltitudeMeters>
            <DistanceMeters>NAN</DistanceMeters>
          </Trackpoint>
          <Trackpoint>
            <Time>2022-07-16T15:07:32.000Z</Time>
            <Position>
              <LatitudeDegrees>43.46006945706903934478759765625</LatitudeDegrees>
              <LongitudeDegrees>-5.05380054004490375518798828125</LongitudeDegrees>
            </Position>
            <AltitudeMeters>43.799999237060546875</AltitudeMeters>
            <DistanceMeters>NAN</DistanceMeters>
          </Trackpoint>
          <Trackpoint>
            <Time>2022-07-16T15:07:35.000Z</Time>
            <Position>
              <LatitudeDegrees>43.46010063774883747100830078125</LatitudeDegrees>
              <LongitudeDegrees>-5.0539322197437286376953125</LongitudeDegrees>
            </Position>
            <AltitudeMeters>42.59999847412109375</AltitudeMeters>
            <DistanceMeters>NAN</DistanceMeters>
          </Trackpoint>
          <Trackpoint>
            <Time>2022-07-16T15:07:37.000Z</Time>
            <Position>
              <LatitudeDegrees>43.46011740155518054962158203125</LatitudeDegrees>
              <LongitudeDegrees>-5.05397580564022064208984375</LongitudeDegrees>
            </Position>
            <AltitudeMeters>42.200000762939453125</AltitudeMeters>
            <DistanceMeters>NAN</DistanceMeters>
          </Trackpoint>
          <Trackpoint>
            <Time>2022-07-16T15:07:41.000Z</Time>
            <Position>
              <LatitudeDegrees>43.46012980677187442779541015625</LatitudeDegrees>
              <LongitudeDegrees>-5.0539706088602542877197265625</LongitudeDegrees>
            </Position>
            <AltitudeMeters>41.59999847412109375</AltitudeMeters>
            <DistanceMeters>NAN</DistanceMeters>
          </Trackpoint>
          <Trackpoint>
            <Time>2022-07-16T15:07:42.000Z</Time>
            <Position>
              <LatitudeDegrees>43.46013776957988739013671875</LatitudeDegrees>
              <LongitudeDegrees>-5.05396834574639797210693359375</LongitudeDegrees>
            </Position>
            <AltitudeMeters>41.59999847412109375</AltitudeMeters>
            <DistanceMeters>NAN</DistanceMeters>
          </Trackpoint>
          <Trackpoint>
            <Time>2022-07-16T15:07:43.000Z</Time>
            <Position>
              <LatitudeDegrees>43.4601466543972492218017578125</LatitudeDegrees>
              <LongitudeDegrees>-5.05396465770900249481201171875</LongitudeDegrees>
            </Position>
            <AltitudeMeters>41.59999847412109375</AltitudeMeters>
            <DistanceMeters>NAN</DistanceMeters>
          </Trackpoint>
          <Trackpoint>
            <Time>2022-07-16T15:07:48.000Z</Time>
            <Position>
              <LatitudeDegrees>43.460151851177215576171875</LatitudeDegrees>
              <LongitudeDegrees>-5.0539639033377170562744140625</LongitudeDegrees>
            </Position>
            <AltitudeMeters>41.40000152587890625</AltitudeMeters>
            <DistanceMeters>NAN</DistanceMeters>
          </Trackpoint>
          <Trackpoint>
            <Time>2022-07-16T15:10:35.000Z</Time>
            <Position>
              <LatitudeDegrees>43.46016836352646350860595703125</LatitudeDegrees>
              <LongitudeDegrees>-5.0540946610271930694580078125</LongitudeDegrees>
            </Position>
            <AltitudeMeters>40.799999237060546875</AltitudeMeters>
            <DistanceMeters>NAN</DistanceMeters>
          </Trackpoint>
          <Trackpoint>
            <Time>2022-07-16T15:10:36.000Z</Time>
            <Position>
              <LatitudeDegrees>43.46017356030642986297607421875</LatitudeDegrees>
              <LongitudeDegrees>-5.054116956889629364013671875</LongitudeDegrees>
            </Position>
            <AltitudeMeters>40.799999237060546875</AltitudeMeters>
            <DistanceMeters>NAN</DistanceMeters>
          </Trackpoint>
          <Trackpoint>
            <Time>2022-07-16T15:10:39.000Z</Time>
            <Position>
              <LatitudeDegrees>43.4601761586964130401611328125</LatitudeDegrees>
              <LongitudeDegrees>-5.05412676371634006500244140625</LongitudeDegrees>
            </Position>
            <AltitudeMeters>40.59999847412109375</AltitudeMeters>
            <DistanceMeters>NAN</DistanceMeters>
          </Trackpoint>
          <Trackpoint>
            <Time>2022-07-16T15:11:05.000Z</Time>
            <Position>
              <LatitudeDegrees>43.4601835347712039947509765625</LatitudeDegrees>
              <LongitudeDegrees>-5.0542220659554004669189453125</LongitudeDegrees>
            </Position>
            <AltitudeMeters>40.59999847412109375</AltitudeMeters>
            <DistanceMeters>NAN</DistanceMeters>
          </Trackpoint>
          <Trackpoint>
            <Time>2022-07-16T15:11:07.000Z</Time>
            <Position>
              <LatitudeDegrees>43.46019736491143703460693359375</LatitudeDegrees>
              <LongitudeDegrees>-5.05431242287158966064453125</LongitudeDegrees>
            </Position>
            <AltitudeMeters>40.59999847412109375</AltitudeMeters>
            <DistanceMeters>NAN</DistanceMeters>
          </Trackpoint>
          <Trackpoint>
            <Time>2022-07-16T15:11:11.000Z</Time>
            <Position>
              <LatitudeDegrees>43.46022301353514194488525390625</LatitudeDegrees>
              <LongitudeDegrees>-5.0545598566532135009765625</LongitudeDegrees>
            </Position>
            <AltitudeMeters>40.40000152587890625</AltitudeMeters>
            <DistanceMeters>NAN</DistanceMeters>
          </Trackpoint>
          <Trackpoint>
            <Time>2022-07-16T15:11:12.000Z</Time>
            <Position>
              <LatitudeDegrees>43.46022401936352252960205078125</LatitudeDegrees>
              <LongitudeDegrees>-5.0546321086585521697998046875</LongitudeDegrees>
            </Position>
            <AltitudeMeters>40.200000762939453125</AltitudeMeters>
            <DistanceMeters>NAN</DistanceMeters>
          </Trackpoint>
          <Trackpoint>
            <Time>2022-07-16T15:11:13.000Z</Time>
            <Position>
              <LatitudeDegrees>43.46022200770676136016845703125</LatitudeDegrees>
              <LongitudeDegrees>-5.05470662377774715423583984375</LongitudeDegrees>
            </Position>
            <AltitudeMeters>40</AltitudeMeters>
            <DistanceMeters>NAN</DistanceMeters>
          </Trackpoint>
          <Trackpoint>
            <Time>2022-07-16T15:11:16.000Z</Time>
            <Position>
              <LatitudeDegrees>43.46018780954182147979736328125</LatitudeDegrees>
              <LongitudeDegrees>-5.05493544973433017730712890625</LongitudeDegrees>
            </Position>
            <AltitudeMeters>39.40000152587890625</AltitudeMeters>
            <DistanceMeters>NAN</DistanceMeters>
          </Trackpoint>
          <Trackpoint>
            <Time>2022-07-16T15:11:17.000Z</Time>
            <Position>
              <LatitudeDegrees>43.46016727387905120849609375</LatitudeDegrees>
              <LongitudeDegrees>-5.055013485252857208251953125</LongitudeDegrees>
            </Position>
            <AltitudeMeters>39.40000152587890625</AltitudeMeters>
            <DistanceMeters>NAN</DistanceMeters>
          </Trackpoint>
          <Trackpoint>
            <Time>2022-07-16T15:11:22.000Z</Time>
            <Position>
              <LatitudeDegrees>43.46002302132546901702880859375</LatitudeDegrees>
              <LongitudeDegrees>-5.05538891069591045379638671875</LongitudeDegrees>
            </Position>
            <AltitudeMeters>38.200000762939453125</AltitudeMeters>
            <DistanceMeters>NAN</DistanceMeters>
          </Trackpoint>
          <Trackpoint>
            <Time>2022-07-16T15:11:25.000Z</Time>
            <Position>
              <LatitudeDegrees>43.4599267132580280303955078125</LatitudeDegrees>
              <LongitudeDegrees>-5.0555926747620105743408203125</LongitudeDegrees>
            </Position>
            <AltitudeMeters>37.200000762939453125</AltitudeMeters>
            <DistanceMeters>NAN</DistanceMeters>
          </Trackpoint>
          <Trackpoint>
            <Time>2022-07-16T15:11:26.000Z</Time>
            <Position>
              <LatitudeDegrees>43.4598962031304836273193359375</LatitudeDegrees>
              <LongitudeDegrees>-5.0556607358157634735107421875</LongitudeDegrees>
            </Position>
            <AltitudeMeters>36.799999237060546875</AltitudeMeters>
            <DistanceMeters>NAN</DistanceMeters>
          </Trackpoint>
          <Trackpoint>
            <Time>2022-07-16T15:11:29.000Z</Time>
            <Position>
              <LatitudeDegrees>43.459824621677398681640625</LatitudeDegrees>
              <LongitudeDegrees>-5.055864751338958740234375</LongitudeDegrees>
            </Position>
            <AltitudeMeters>35.799999237060546875</AltitudeMeters>
            <DistanceMeters>NAN</DistanceMeters>
          </Trackpoint>
          <Trackpoint>
            <Time>2022-07-16T15:11:33.000Z</Time>
            <Position>
              <LatitudeDegrees>43.45975731499493122100830078125</LatitudeDegrees>
              <LongitudeDegrees>-5.05616473965346813201904296875</LongitudeDegrees>
            </Position>
            <AltitudeMeters>35</AltitudeMeters>
            <DistanceMeters>NAN</DistanceMeters>
          </Trackpoint>
          <Trackpoint>
            <Time>2022-07-16T15:11:35.000Z</Time>
            <Position>
              <LatitudeDegrees>43.4597352705895900726318359375</LatitudeDegrees>
              <LongitudeDegrees>-5.05632282234728336334228515625</LongitudeDegrees>
            </Position>
            <AltitudeMeters>34.59999847412109375</AltitudeMeters>
            <DistanceMeters>NAN</DistanceMeters>
          </Trackpoint>
          <Trackpoint>
            <Time>2022-07-16T15:11:36.000Z</Time>
            <Position>
              <LatitudeDegrees>43.45972630195319652557373046875</LatitudeDegrees>
              <LongitudeDegrees>-5.0564038753509521484375</LongitudeDegrees>
            </Position>
            <AltitudeMeters>34.40000152587890625</AltitudeMeters>
            <DistanceMeters>NAN</DistanceMeters>
          </Trackpoint>
          <Trackpoint>
            <Time>2022-07-16T15:11:38.000Z</Time>
            <Position>
              <LatitudeDegrees>43.459712304174900054931640625</LatitudeDegrees>
              <LongitudeDegrees>-5.05655801855027675628662109375</LongitudeDegrees>
            </Position>
            <AltitudeMeters>34</AltitudeMeters>
            <DistanceMeters>NAN</DistanceMeters>
          </Trackpoint>
          <Trackpoint>
            <Time>2022-07-16T15:11:40.000Z</Time>
            <Position>
              <LatitudeDegrees>43.45969545654952526092529296875</LatitudeDegrees>
              <LongitudeDegrees>-5.056705959141254425048828125</LongitudeDegrees>
            </Position>
            <AltitudeMeters>33.59999847412109375</AltitudeMeters>
            <DistanceMeters>NAN</DistanceMeters>
          </Trackpoint>
          <Trackpoint>
            <Time>2022-07-16T15:11:41.000Z</Time>
            <Position>
              <LatitudeDegrees>43.45968942157924175262451171875</LatitudeDegrees>
              <LongitudeDegrees>-5.05678474903106689453125</LongitudeDegrees>
            </Position>
            <AltitudeMeters>33.40000152587890625</AltitudeMeters>
            <DistanceMeters>NAN</DistanceMeters>
          </Trackpoint>
          <Trackpoint>
            <Time>2022-07-16T15:11:44.000Z</Time>
            <Position>
              <LatitudeDegrees>43.459686823189258575439453125</LatitudeDegrees>
              <LongitudeDegrees>-5.05704215727746486663818359375</LongitudeDegrees>
            </Position>
            <AltitudeMeters>32.59999847412109375</AltitudeMeters>
            <DistanceMeters>NAN</DistanceMeters>
          </Trackpoint>
          <Trackpoint>
            <Time>2022-07-16T15:11:45.000Z</Time>
            <Position>
              <LatitudeDegrees>43.4596856497228145599365234375</LatitudeDegrees>
              <LongitudeDegrees>-5.0571366213262081146240234375</LongitudeDegrees>
            </Position>
            <AltitudeMeters>32.40000152587890625</AltitudeMeters>
            <DistanceMeters>NAN</DistanceMeters>
          </Trackpoint>
          <Trackpoint>
            <Time>2022-07-16T15:11:51.000Z</Time>
            <Position>
              <LatitudeDegrees>43.45967818982899188995361328125</LatitudeDegrees>
              <LongitudeDegrees>-5.05765437148511409759521484375</LongitudeDegrees>
            </Position>
            <AltitudeMeters>31.200000762939453125</AltitudeMeters>
            <DistanceMeters>NAN</DistanceMeters>
          </Trackpoint>
          <Trackpoint>
            <Time>2022-07-16T15:11:57.000Z</Time>
            <Position>
              <LatitudeDegrees>43.45967517234385013580322265625</LatitudeDegrees>
              <LongitudeDegrees>-5.0580950081348419189453125</LongitudeDegrees>
            </Position>
            <AltitudeMeters>30</AltitudeMeters>
            <DistanceMeters>NAN</DistanceMeters>
          </Trackpoint>
          <Trackpoint>
            <Time>2022-07-16T15:12:01.000Z</Time>
            <Position>
              <LatitudeDegrees>43.459690846502780914306640625</LatitudeDegrees>
              <LongitudeDegrees>-5.05836482159793376922607421875</LongitudeDegrees>
            </Position>
            <AltitudeMeters>29.200000762939453125</AltitudeMeters>
            <DistanceMeters>NAN</DistanceMeters>
          </Trackpoint>
          <Trackpoint>
            <Time>2022-07-16T15:12:02.000Z</Time>
            <Position>
              <LatitudeDegrees>43.45970015041530132293701171875</LatitudeDegrees>
              <LongitudeDegrees>-5.05842701531946659088134765625</LongitudeDegrees>
            </Position>
            <AltitudeMeters>29</AltitudeMeters>
            <DistanceMeters>NAN</DistanceMeters>
          </Trackpoint>
          <Trackpoint>
            <Time>2022-07-16T15:12:03.000Z</Time>
            <Position>
              <LatitudeDegrees>43.45971456728875637054443359375</LatitudeDegrees>
              <LongitudeDegrees>-5.0584897957742214202880859375</LongitudeDegrees>
            </Position>
            <AltitudeMeters>28.799999237060546875</AltitudeMeters>
            <DistanceMeters>NAN</DistanceMeters>
          </Trackpoint>
          <Trackpoint>
            <Time>2022-07-16T15:12:04.000Z</Time>
            <Position>
              <LatitudeDegrees>43.4597292356193065643310546875</LatitudeDegrees>
              <LongitudeDegrees>-5.05854955874383449554443359375</LongitudeDegrees>
            </Position>
            <AltitudeMeters>28.6000003814697265625</AltitudeMeters>
            <DistanceMeters>NAN</DistanceMeters>
          </Trackpoint>
          <Trackpoint>
            <Time>2022-07-16T15:12:05.000Z</Time>
            <Position>
              <LatitudeDegrees>43.45974876545369625091552734375</LatitudeDegrees>
              <LongitudeDegrees>-5.05860270000994205474853515625</LongitudeDegrees>
            </Position>
            <AltitudeMeters>28.200000762939453125</AltitudeMeters>
            <DistanceMeters>NAN</DistanceMeters>
          </Trackpoint>
          <Trackpoint>
            <Time>2022-07-16T15:12:06.000Z</Time>
            <Position>
              <LatitudeDegrees>43.4597682952880859375</LatitudeDegrees>
              <LongitudeDegrees>-5.05864360369741916656494140625</LongitudeDegrees>
            </Position>
            <AltitudeMeters>27.6000003814697265625</AltitudeMeters>
            <DistanceMeters>NAN</DistanceMeters>
          </Trackpoint>
          <Trackpoint>
            <Time>2022-07-16T15:12:07.000Z</Time>
            <Position>
              <LatitudeDegrees>43.459785394370555877685546875</LatitudeDegrees>
              <LongitudeDegrees>-5.05867637693881988525390625</LongitudeDegrees>
            </Position>
            <AltitudeMeters>27.3999996185302734375</AltitudeMeters>
            <DistanceMeters>NAN</DistanceMeters>
          </Trackpoint>
          <Trackpoint>
            <Time>2022-07-16T15:12:08.000Z</Time>
            <Position>
              <LatitudeDegrees>43.459802828729152679443359375</LatitudeDegrees>
              <LongitudeDegrees>-5.0586969964206218719482421875</LongitudeDegrees>
            </Position>
            <AltitudeMeters>27.200000762939453125</AltitudeMeters>
            <DistanceMeters>NAN</DistanceMeters>
          </Trackpoint>
          <Trackpoint>
            <Time>2022-07-16T15:12:13.000Z</Time>
            <Position>
              <LatitudeDegrees>43.45985454507172107696533203125</LatitudeDegrees>
              <LongitudeDegrees>-5.05879841744899749755859375</LongitudeDegrees>
            </Position>
            <AltitudeMeters>26.799999237060546875</AltitudeMeters>
            <DistanceMeters>NAN</DistanceMeters>
          </Trackpoint>
          <Trackpoint>
            <Time>2022-07-16T15:12:15.000Z</Time>
            <Position>
              <LatitudeDegrees>43.45985890366137027740478515625</LatitudeDegrees>
              <LongitudeDegrees>-5.058843679726123809814453125</LongitudeDegrees>
            </Position>
            <AltitudeMeters>26.6000003814697265625</AltitudeMeters>
            <DistanceMeters>NAN</DistanceMeters>
          </Trackpoint>
          <Trackpoint>
            <Time>2022-07-16T15:12:19.000Z</Time>
            <Position>
              <LatitudeDegrees>43.4598527848720550537109375</LatitudeDegrees>
              <LongitudeDegrees>-5.05889154039323329925537109375</LongitudeDegrees>
            </Position>
            <AltitudeMeters>26.3999996185302734375</AltitudeMeters>
            <DistanceMeters>NAN</DistanceMeters>
          </Trackpoint>
          <Trackpoint>
            <Time>2022-07-16T15:12:20.000Z</Time>
            <Position>
              <LatitudeDegrees>43.4598527848720550537109375</LatitudeDegrees>
              <LongitudeDegrees>-5.05889154039323329925537109375</LongitudeDegrees>
            </Position>
            <AltitudeMeters>26.200000762939453125</AltitudeMeters>
            <DistanceMeters>NAN</DistanceMeters>
          </Trackpoint>
          <Trackpoint>
            <Time>2022-07-16T15:13:30.000Z</Time>
            <Position>
              <LatitudeDegrees>43.45983610488474369049072265625</LatitudeDegrees>
              <LongitudeDegrees>-5.05895306356251239776611328125</LongitudeDegrees>
            </Position>
            <AltitudeMeters>26.200000762939453125</AltitudeMeters>
            <DistanceMeters>NAN</DistanceMeters>
          </Trackpoint>
          <Trackpoint>
            <Time>2022-07-16T15:13:32.000Z</Time>
            <Position>
              <LatitudeDegrees>43.45985521562397480010986328125</LatitudeDegrees>
              <LongitudeDegrees>-5.05902732722461223602294921875</LongitudeDegrees>
            </Position>
            <AltitudeMeters>26.200000762939453125</AltitudeMeters>
            <DistanceMeters>NAN</DistanceMeters>
          </Trackpoint>
          <Trackpoint>
            <Time>2022-07-16T15:13:36.000Z</Time>
            <Position>
              <LatitudeDegrees>43.459918498992919921875</LatitudeDegrees>
              <LongitudeDegrees>-5.05915288813412189483642578125</LongitudeDegrees>
            </Position>
            <AltitudeMeters>25.6000003814697265625</AltitudeMeters>
            <DistanceMeters>NAN</DistanceMeters>
          </Trackpoint>
          <Trackpoint>
            <Time>2022-07-16T15:13:37.000Z</Time>
            <Position>
              <LatitudeDegrees>43.4599340893328189849853515625</LatitudeDegrees>
              <LongitudeDegrees>-5.05917099304497241973876953125</LongitudeDegrees>
            </Position>
            <AltitudeMeters>25.200000762939453125</AltitudeMeters>
            <DistanceMeters>NAN</DistanceMeters>
          </Trackpoint>
          <Trackpoint>
            <Time>2022-07-16T15:13:41.000Z</Time>
            <Position>
              <LatitudeDegrees>43.46001212485134601593017578125</LatitudeDegrees>
              <LongitudeDegrees>-5.0592951290309429168701171875</LongitudeDegrees>
            </Position>
            <AltitudeMeters>24.3999996185302734375</AltitudeMeters>
            <DistanceMeters>NAN</DistanceMeters>
          </Trackpoint>
          <Trackpoint>
            <Time>2022-07-16T15:13:42.000Z</Time>
            <Position>
              <LatitudeDegrees>43.4600351750850677490234375</LatitudeDegrees>
              <LongitudeDegrees>-5.059336535632610321044921875</LongitudeDegrees>
            </Position>
            <AltitudeMeters>24</AltitudeMeters>
            <DistanceMeters>NAN</DistanceMeters>
          </Trackpoint>
          <Trackpoint>
            <Time>2022-07-16T15:13:44.000Z</Time>
            <Position>
              <LatitudeDegrees>43.46009007655084133148193359375</LatitudeDegrees>
              <LongitudeDegrees>-5.05942647345364093780517578125</LongitudeDegrees>
            </Position>
            <AltitudeMeters>23.200000762939453125</AltitudeMeters>
            <DistanceMeters>NAN</DistanceMeters>
          </Trackpoint>
          <Trackpoint>
            <Time>2022-07-16T15:13:46.000Z</Time>
            <Position>
              <LatitudeDegrees>43.46014925278723239898681640625</LatitudeDegrees>
              <LongitudeDegrees>-5.0595103763043880462646484375</LongitudeDegrees>
            </Position>
            <AltitudeMeters>22.200000762939453125</AltitudeMeters>
            <DistanceMeters>NAN</DistanceMeters>
          </Trackpoint>
          <Trackpoint>
            <Time>2022-07-16T15:13:48.000Z</Time>
            <Position>
              <LatitudeDegrees>43.46019149757921695709228515625</LatitudeDegrees>
              <LongitudeDegrees>-5.05959101021289825439453125</LongitudeDegrees>
            </Position>
            <AltitudeMeters>21</AltitudeMeters>
            <DistanceMeters>NAN</DistanceMeters>
          </Trackpoint>
          <Trackpoint>
            <Time>2022-07-16T15:13:49.000Z</Time>
            <Position>
              <LatitudeDegrees>43.4602130390703678131103515625</LatitudeDegrees>
              <LongitudeDegrees>-5.0596307404339313507080078125</LongitudeDegrees>
            </Position>
            <AltitudeMeters>20.6000003814697265625</AltitudeMeters>
            <DistanceMeters>NAN</DistanceMeters>
          </Trackpoint>
          <Trackpoint>
            <Time>2022-07-16T15:13:50.000Z</Time>
            <Position>
              <LatitudeDegrees>43.46023005433380603790283203125</LatitudeDegrees>
              <LongitudeDegrees>-5.059668458998203277587890625</LongitudeDegrees>
            </Position>
            <AltitudeMeters>20</AltitudeMeters>
            <DistanceMeters>NAN</DistanceMeters>
          </Trackpoint>
          <Trackpoint>
            <Time>2022-07-16T15:13:52.000Z</Time>
            <Position>
              <LatitudeDegrees>43.460252769291400909423828125</LatitudeDegrees>
              <LongitudeDegrees>-5.05972755141556262969970703125</LongitudeDegrees>
            </Position>
            <AltitudeMeters>18.799999237060546875</AltitudeMeters>
            <DistanceMeters>NAN</DistanceMeters>
          </Trackpoint>
          <Trackpoint>
            <Time>2022-07-16T15:13:54.000Z</Time>
            <Position>
              <LatitudeDegrees>43.46028260886669158935546875</LatitudeDegrees>
              <LongitudeDegrees>-5.05975604988634586334228515625</LongitudeDegrees>
            </Position>
            <AltitudeMeters>17.6000003814697265625</AltitudeMeters>
            <DistanceMeters>NAN</DistanceMeters>
          </Trackpoint>
          <Trackpoint>
            <Time>2022-07-16T15:13:56.000Z</Time>
            <Position>
              <LatitudeDegrees>43.46031923778355121612548828125</LatitudeDegrees>
              <LongitudeDegrees>-5.059754960238933563232421875</LongitudeDegrees>
            </Position>
            <AltitudeMeters>17.200000762939453125</AltitudeMeters>
            <DistanceMeters>NAN</DistanceMeters>
          </Trackpoint>
          <Trackpoint>
            <Time>2022-07-16T15:13:58.000Z</Time>
            <Position>
              <LatitudeDegrees>43.46035628579556941986083984375</LatitudeDegrees>
              <LongitudeDegrees>-5.05973090417683124542236328125</LongitudeDegrees>
            </Position>
            <AltitudeMeters>17</AltitudeMeters>
            <DistanceMeters>NAN</DistanceMeters>
          </Trackpoint>
          <Trackpoint>
            <Time>2022-07-16T15:13:59.000Z</Time>
            <Position>
              <LatitudeDegrees>43.46037623472511768341064453125</LatitudeDegrees>
              <LongitudeDegrees>-5.05973509512841701507568359375</LongitudeDegrees>
            </Position>
            <AltitudeMeters>17</AltitudeMeters>
            <DistanceMeters>NAN</DistanceMeters>
          </Trackpoint>
          <Trackpoint>
            <Time>2022-07-16T15:14:02.000Z</Time>
            <Position>
              <LatitudeDegrees>43.46043272875249385833740234375</LatitudeDegrees>
              <LongitudeDegrees>-5.05979326553642749786376953125</LongitudeDegrees>
            </Position>
            <AltitudeMeters>17</AltitudeMeters>
            <DistanceMeters>NAN</DistanceMeters>
          </Trackpoint>
          <Trackpoint>
            <Time>2022-07-16T15:14:03.000Z</Time>
            <Position>
              <LatitudeDegrees>43.460451923310756683349609375</LatitudeDegrees>
              <LongitudeDegrees>-5.05980684421956539154052734375</LongitudeDegrees>
            </Position>
            <AltitudeMeters>17</AltitudeMeters>
            <DistanceMeters>NAN</DistanceMeters>
          </Trackpoint>
          <Trackpoint>
            <Time>2022-07-16T15:14:04.000Z</Time>
            <Position>
              <LatitudeDegrees>43.46047178842127323150634765625</LatitudeDegrees>
              <LongitudeDegrees>-5.05980667658150196075439453125</LongitudeDegrees>
            </Position>
            <AltitudeMeters>17</AltitudeMeters>
            <DistanceMeters>NAN</DistanceMeters>
          </Trackpoint>
          <Trackpoint>
            <Time>2022-07-16T15:14:07.000Z</Time>
            <Position>
              <LatitudeDegrees>43.4605382569134235382080078125</LatitudeDegrees>
              <LongitudeDegrees>-5.059838108718395233154296875</LongitudeDegrees>
            </Position>
            <AltitudeMeters>17</AltitudeMeters>
            <DistanceMeters>NAN</DistanceMeters>
          </Trackpoint>
          <Trackpoint>
            <Time>2022-07-16T15:14:13.000Z</Time>
            <Position>
              <LatitudeDegrees>43.4606824256479740142822265625</LatitudeDegrees>
              <LongitudeDegrees>-5.05993575789034366607666015625</LongitudeDegrees>
            </Position>
            <AltitudeMeters>16.6000003814697265625</AltitudeMeters>
            <DistanceMeters>NAN</DistanceMeters>
          </Trackpoint>
          <Trackpoint>
            <Time>2022-07-16T15:14:14.000Z</Time>
            <Position>
              <LatitudeDegrees>43.4607030451297760009765625</LatitudeDegrees>
              <LongitudeDegrees>-5.05993860773742198944091796875</LongitudeDegrees>
            </Position>
            <AltitudeMeters>16.6000003814697265625</AltitudeMeters>
            <DistanceMeters>NAN</DistanceMeters>
          </Trackpoint>
          <Trackpoint>
            <Time>2022-07-16T15:14:17.000Z</Time>
            <Position>
              <LatitudeDegrees>43.4607095830142498016357421875</LatitudeDegrees>
              <LongitudeDegrees>-5.05994162522256374359130859375</LongitudeDegrees>
            </Position>
            <AltitudeMeters>16.200000762939453125</AltitudeMeters>
            <DistanceMeters>NAN</DistanceMeters>
          </Trackpoint>
          <Trackpoint>
            <Time>2022-07-16T15:14:46.000Z</Time>
            <Position>
              <LatitudeDegrees>43.46078678034245967864990234375</LatitudeDegrees>
              <LongitudeDegrees>-5.059906505048274993896484375</LongitudeDegrees>
            </Position>
            <AltitudeMeters>17.6000003814697265625</AltitudeMeters>
            <DistanceMeters>NAN</DistanceMeters>
          </Trackpoint>
          <Trackpoint>
            <Time>2022-07-16T15:14:47.000Z</Time>
            <Position>
              <LatitudeDegrees>43.460806310176849365234375</LatitudeDegrees>
              <LongitudeDegrees>-5.05989334546029567718505859375</LongitudeDegrees>
            </Position>
            <AltitudeMeters>17.3999996185302734375</AltitudeMeters>
            <DistanceMeters>NAN</DistanceMeters>
          </Trackpoint>
          <Trackpoint>
            <Time>2022-07-16T15:14:48.000Z</Time>
            <Position>
              <LatitudeDegrees>43.46082902513444423675537109375</LatitudeDegrees>
              <LongitudeDegrees>-5.05988144315779209136962890625</LongitudeDegrees>
            </Position>
            <AltitudeMeters>17.3999996185302734375</AltitudeMeters>
            <DistanceMeters>NAN</DistanceMeters>
          </Trackpoint>
          <Trackpoint>
            <Time>2022-07-16T15:14:52.000Z</Time>
            <Position>
              <LatitudeDegrees>43.4608902968466281890869140625</LatitudeDegrees>
              <LongitudeDegrees>-5.0598530285060405731201171875</LongitudeDegrees>
            </Position>
            <AltitudeMeters>17</AltitudeMeters>
            <DistanceMeters>NAN</DistanceMeters>
          </Trackpoint>
          <Trackpoint>
            <Time>2022-07-16T15:14:53.000Z</Time>
            <Position>
              <LatitudeDegrees>43.46090479753911495208740234375</LatitudeDegrees>
              <LongitudeDegrees>-5.0598456524312496185302734375</LongitudeDegrees>
            </Position>
            <AltitudeMeters>16.799999237060546875</AltitudeMeters>
            <DistanceMeters>NAN</DistanceMeters>
          </Trackpoint>
          <Trackpoint>
            <Time>2022-07-16T15:14:54.000Z</Time>
            <Position>
              <LatitudeDegrees>43.460917286574840545654296875</LatitudeDegrees>
              <LongitudeDegrees>-5.05984020419418811798095703125</LongitudeDegrees>
            </Position>
            <AltitudeMeters>16.799999237060546875</AltitudeMeters>
            <DistanceMeters>NAN</DistanceMeters>
          </Trackpoint>
          <Trackpoint>
            <Time>2022-07-16T15:14:58.000Z</Time>
            <Position>
              <LatitudeDegrees>43.46095073036849498748779296875</LatitudeDegrees>
              <LongitudeDegrees>-5.05981455557048320770263671875</LongitudeDegrees>
            </Position>
            <AltitudeMeters>16.6000003814697265625</AltitudeMeters>
            <DistanceMeters>NAN</DistanceMeters>
          </Trackpoint>
          <Trackpoint>
            <Time>2022-07-16T15:15:05.000Z</Time>
            <Position>
              <LatitudeDegrees>43.4609927237033843994140625</LatitudeDegrees>
              <LongitudeDegrees>-5.05978144705295562744140625</LongitudeDegrees>
            </Position>
            <AltitudeMeters>16.3999996185302734375</AltitudeMeters>
            <DistanceMeters>NAN</DistanceMeters>
          </Trackpoint>
          <Trackpoint>
            <Time>2022-07-16T15:15:07.000Z</Time>
            <Position>
              <LatitudeDegrees>43.46101619303226470947265625</LatitudeDegrees>
              <LongitudeDegrees>-5.0597633421421051025390625</LongitudeDegrees>
            </Position>
            <AltitudeMeters>16.200000762939453125</AltitudeMeters>
            <DistanceMeters>NAN</DistanceMeters>
          </Trackpoint>
          <Trackpoint>
            <Time>2022-07-16T15:15:10.000Z</Time>
            <Position>
              <LatitudeDegrees>43.46105667762458324432373046875</LatitudeDegrees>
              <LongitudeDegrees>-5.0597484223544597625732421875</LongitudeDegrees>
            </Position>
            <AltitudeMeters>15.80000019073486328125</AltitudeMeters>
            <DistanceMeters>NAN</DistanceMeters>
          </Trackpoint>
          <Trackpoint>
            <Time>2022-07-16T15:15:12.000Z</Time>
            <Position>
              <LatitudeDegrees>43.4610810689628124237060546875</LatitudeDegrees>
              <LongitudeDegrees>-5.0597202591598033905029296875</LongitudeDegrees>
            </Position>
            <AltitudeMeters>15.3999996185302734375</AltitudeMeters>
            <DistanceMeters>NAN</DistanceMeters>
          </Trackpoint>
          <Trackpoint>
            <Time>2022-07-16T15:15:16.000Z</Time>
            <Position>
              <LatitudeDegrees>43.46108349971473217010498046875</LatitudeDegrees>
              <LongitudeDegrees>-5.0597132183611392974853515625</LongitudeDegrees>
            </Position>
            <AltitudeMeters>14.80000019073486328125</AltitudeMeters>
            <DistanceMeters>NAN</DistanceMeters>
          </Trackpoint>
          <Trackpoint>
            <Time>2022-07-16T15:15:17.000Z</Time>
            <Position>
              <LatitudeDegrees>43.46108349971473217010498046875</LatitudeDegrees>
              <LongitudeDegrees>-5.0597132183611392974853515625</LongitudeDegrees>
            </Position>
            <AltitudeMeters>14.80000019073486328125</AltitudeMeters>
            <DistanceMeters>NAN</DistanceMeters>
          </Trackpoint>
          <Trackpoint>
            <Time>2022-07-16T15:19:16.000Z</Time>
            <Position>
              <LatitudeDegrees>43.4611568413674831390380859375</LatitudeDegrees>
              <LongitudeDegrees>-5.05972503684461116790771484375</LongitudeDegrees>
            </Position>
            <AltitudeMeters>7.80000019073486328125</AltitudeMeters>
            <DistanceMeters>NAN</DistanceMeters>
          </Trackpoint>
          <Trackpoint>
            <Time>2022-07-16T15:19:17.000Z</Time>
            <Position>
              <LatitudeDegrees>43.46117871813476085662841796875</LatitudeDegrees>
              <LongitudeDegrees>-5.05972805432975292205810546875</LongitudeDegrees>
            </Position>
            <AltitudeMeters>7.80000019073486328125</AltitudeMeters>
            <DistanceMeters>NAN</DistanceMeters>
          </Trackpoint>
          <Trackpoint>
            <Time>2022-07-16T15:19:18.000Z</Time>
            <Position>
              <LatitudeDegrees>43.46120218746364116668701171875</LatitudeDegrees>
              <LongitudeDegrees>-5.05972973071038722991943359375</LongitudeDegrees>
            </Position>
            <AltitudeMeters>7.80000019073486328125</AltitudeMeters>
            <DistanceMeters>NAN</DistanceMeters>
          </Trackpoint>
          <Trackpoint>
            <Time>2022-07-16T15:19:19.000Z</Time>
            <Position>
              <LatitudeDegrees>43.461219035089015960693359375</LatitudeDegrees>
              <LongitudeDegrees>-5.05973995663225650787353515625</LongitudeDegrees>
            </Position>
            <AltitudeMeters>7.80000019073486328125</AltitudeMeters>
            <DistanceMeters>NAN</DistanceMeters>
          </Trackpoint>
          <Trackpoint>
            <Time>2022-07-16T15:19:21.000Z</Time>
            <Position>
              <LatitudeDegrees>43.46125331707298755645751953125</LatitudeDegrees>
              <LongitudeDegrees>-5.0597323291003704071044921875</LongitudeDegrees>
            </Position>
            <AltitudeMeters>7.80000019073486328125</AltitudeMeters>
            <DistanceMeters>NAN</DistanceMeters>
          </Trackpoint>
          <Trackpoint>
            <Time>2022-07-16T15:19:26.000Z</Time>
            <Position>
              <LatitudeDegrees>43.46133797429502010345458984375</LatitudeDegrees>
              <LongitudeDegrees>-5.0596163235604763031005859375</LongitudeDegrees>
            </Position>
            <AltitudeMeters>7.599999904632568359375</AltitudeMeters>
            <DistanceMeters>NAN</DistanceMeters>
          </Trackpoint>
          <Trackpoint>
            <Time>2022-07-16T15:19:29.000Z</Time>
            <Position>
              <LatitudeDegrees>43.4613870084285736083984375</LatitudeDegrees>
              <LongitudeDegrees>-5.05958355031907558441162109375</LongitudeDegrees>
            </Position>
            <AltitudeMeters>7.599999904632568359375</AltitudeMeters>
            <DistanceMeters>NAN</DistanceMeters>
          </Trackpoint>
          <Trackpoint>
            <Time>2022-07-16T15:19:30.000Z</Time>
            <Position>
              <LatitudeDegrees>43.46139312721788883209228515625</LatitudeDegrees>
              <LongitudeDegrees>-5.05958564579486846923828125</LongitudeDegrees>
            </Position>
            <AltitudeMeters>7.599999904632568359375</AltitudeMeters>
            <DistanceMeters>NAN</DistanceMeters>
          </Trackpoint>
          <Trackpoint>
            <Time>2022-07-16T15:19:33.000Z</Time>
            <Position>
              <LatitudeDegrees>43.461412489414215087890625</LatitudeDegrees>
              <LongitudeDegrees>-5.05959327332675457000732421875</LongitudeDegrees>
            </Position>
            <AltitudeMeters>7.400000095367431640625</AltitudeMeters>
            <DistanceMeters>NAN</DistanceMeters>
          </Trackpoint>
          <Trackpoint>
            <Time>2022-07-16T15:19:35.000Z</Time>
            <Position>
              <LatitudeDegrees>43.46143453381955623626708984375</LatitudeDegrees>
              <LongitudeDegrees>-5.05959494970738887786865234375</LongitudeDegrees>
            </Position>
            <AltitudeMeters>7.400000095367431640625</AltitudeMeters>
            <DistanceMeters>NAN</DistanceMeters>
          </Trackpoint>
          <Trackpoint>
            <Time>2022-07-16T15:19:37.000Z</Time>
            <Position>
              <LatitudeDegrees>43.46145498566329479217529296875</LatitudeDegrees>
              <LongitudeDegrees>-5.05961456336081027984619140625</LongitudeDegrees>
            </Position>
            <AltitudeMeters>7.599999904632568359375</AltitudeMeters>
            <DistanceMeters>NAN</DistanceMeters>
          </Trackpoint>
          <Trackpoint>
            <Time>2022-07-16T15:19:40.000Z</Time>
            <Position>
              <LatitudeDegrees>43.46148415468633174896240234375</LatitudeDegrees>
              <LongitudeDegrees>-5.05961716175079345703125</LongitudeDegrees>
            </Position>
            <AltitudeMeters>7.80000019073486328125</AltitudeMeters>
            <DistanceMeters>NAN</DistanceMeters>
          </Trackpoint>
          <Trackpoint>
            <Time>2022-07-16T15:19:42.000Z</Time>
            <Position>
              <LatitudeDegrees>43.46152690239250659942626953125</LatitudeDegrees>
              <LongitudeDegrees>-5.05964423529803752899169921875</LongitudeDegrees>
            </Position>
            <AltitudeMeters>7.80000019073486328125</AltitudeMeters>
            <DistanceMeters>NAN</DistanceMeters>
          </Trackpoint>
          <Trackpoint>
            <Time>2022-07-16T15:19:44.000Z</Time>
            <Position>
              <LatitudeDegrees>43.46154592931270599365234375</LatitudeDegrees>
              <LongitudeDegrees>-5.0596641004085540771484375</LongitudeDegrees>
            </Position>
            <AltitudeMeters>7.80000019073486328125</AltitudeMeters>
            <DistanceMeters>NAN</DistanceMeters>
          </Trackpoint>
          <Trackpoint>
            <Time>2022-07-16T15:19:48.000Z</Time>
            <Position>
              <LatitudeDegrees>43.461566381156444549560546875</LatitudeDegrees>
              <LongitudeDegrees>-5.059702657163143157958984375</LongitudeDegrees>
            </Position>
            <AltitudeMeters>7.599999904632568359375</AltitudeMeters>
            <DistanceMeters>NAN</DistanceMeters>
          </Trackpoint>
          <Trackpoint>
            <Time>2022-07-16T15:19:50.000Z</Time>
            <Position>
              <LatitudeDegrees>43.46158943139016628265380859375</LatitudeDegrees>
              <LongitudeDegrees>-5.0597085244953632354736328125</LongitudeDegrees>
            </Position>
            <AltitudeMeters>7.599999904632568359375</AltitudeMeters>
            <DistanceMeters>NAN</DistanceMeters>
          </Trackpoint>
          <Trackpoint>
            <Time>2022-07-16T15:19:51.000Z</Time>
            <Position>
              <LatitudeDegrees>43.46160435117781162261962890625</LatitudeDegrees>
              <LongitudeDegrees>-5.0597172416746616363525390625</LongitudeDegrees>
            </Position>
            <AltitudeMeters>7.599999904632568359375</AltitudeMeters>
            <DistanceMeters>NAN</DistanceMeters>
          </Trackpoint>
          <Trackpoint>
            <Time>2022-07-16T15:19:54.000Z</Time>
            <Position>
              <LatitudeDegrees>43.4616785310208797454833984375</LatitudeDegrees>
              <LongitudeDegrees>-5.0597598217427730560302734375</LongitudeDegrees>
            </Position>
            <AltitudeMeters>7.599999904632568359375</AltitudeMeters>
            <DistanceMeters>NAN</DistanceMeters>
          </Trackpoint>
          <Trackpoint>
            <Time>2022-07-16T15:19:59.000Z</Time>
            <Position>
              <LatitudeDegrees>43.4618146531283855438232421875</LatitudeDegrees>
              <LongitudeDegrees>-5.0598520226776599884033203125</LongitudeDegrees>
            </Position>
            <AltitudeMeters>7.599999904632568359375</AltitudeMeters>
            <DistanceMeters>NAN</DistanceMeters>
          </Trackpoint>
          <Trackpoint>
            <Time>2022-07-16T15:20:05.000Z</Time>
            <Position>
              <LatitudeDegrees>43.46191783435642719268798828125</LatitudeDegrees>
              <LongitudeDegrees>-5.05991446785628795623779296875</LongitudeDegrees>
            </Position>
            <AltitudeMeters>7.599999904632568359375</AltitudeMeters>
            <DistanceMeters>NAN</DistanceMeters>
          </Trackpoint>
          <Trackpoint>
            <Time>2022-07-16T15:20:10.000Z</Time>
            <Position>
              <LatitudeDegrees>43.4620305709540843963623046875</LatitudeDegrees>
              <LongitudeDegrees>-5.05998487584292888641357421875</LongitudeDegrees>
            </Position>
            <AltitudeMeters>8</AltitudeMeters>
            <DistanceMeters>NAN</DistanceMeters>
          </Trackpoint>
          <Trackpoint>
            <Time>2022-07-16T15:20:13.000Z</Time>
            <Position>
              <LatitudeDegrees>43.4620763361454010009765625</LatitudeDegrees>
              <LongitudeDegrees>-5.0600199960172176361083984375</LongitudeDegrees>
            </Position>
            <AltitudeMeters>7.80000019073486328125</AltitudeMeters>
            <DistanceMeters>NAN</DistanceMeters>
          </Trackpoint>
          <Trackpoint>
            <Time>2022-07-16T15:20:14.000Z</Time>
            <Position>
              <LatitudeDegrees>43.4620801918208599090576171875</LatitudeDegrees>
              <LongitudeDegrees>-5.06003818474709987640380859375</LongitudeDegrees>
            </Position>
            <AltitudeMeters>7.80000019073486328125</AltitudeMeters>
            <DistanceMeters>NAN</DistanceMeters>
          </Trackpoint>
          <Trackpoint>
            <Time>2022-07-16T15:20:18.000Z</Time>
            <Position>
              <LatitudeDegrees>43.46212796866893768310546875</LatitudeDegrees>
              <LongitudeDegrees>-5.06015385501086711883544921875</LongitudeDegrees>
            </Position>
            <AltitudeMeters>7.80000019073486328125</AltitudeMeters>
            <DistanceMeters>NAN</DistanceMeters>
          </Trackpoint>
          <Trackpoint>
            <Time>2022-07-16T15:20:21.000Z</Time>
            <Position>
              <LatitudeDegrees>43.46216761507093906402587890625</LatitudeDegrees>
              <LongitudeDegrees>-5.06019861437380313873291015625</LongitudeDegrees>
            </Position>
            <AltitudeMeters>7.80000019073486328125</AltitudeMeters>
            <DistanceMeters>NAN</DistanceMeters>
          </Trackpoint>
          <Trackpoint>
            <Time>2022-07-16T15:20:22.000Z</Time>
            <Position>
              <LatitudeDegrees>43.46217214129865169525146484375</LatitudeDegrees>
              <LongitudeDegrees>-5.06021453998982906341552734375</LongitudeDegrees>
            </Position>
            <AltitudeMeters>7.80000019073486328125</AltitudeMeters>
            <DistanceMeters>NAN</DistanceMeters>
          </Trackpoint>
          <Trackpoint>
            <Time>2022-07-16T15:20:23.000Z</Time>
            <Position>
              <LatitudeDegrees>43.4621693752706050872802734375</LatitudeDegrees>
              <LongitudeDegrees>-5.06022476591169834136962890625</LongitudeDegrees>
            </Position>
            <AltitudeMeters>8</AltitudeMeters>
            <DistanceMeters>NAN</DistanceMeters>
          </Trackpoint>
          <Trackpoint>
            <Time>2022-07-16T15:20:25.000Z</Time>
            <Position>
              <LatitudeDegrees>43.46216325648128986358642578125</LatitudeDegrees>
              <LongitudeDegrees>-5.0602701120078563690185546875</LongitudeDegrees>
            </Position>
            <AltitudeMeters>8</AltitudeMeters>
            <DistanceMeters>NAN</DistanceMeters>
          </Trackpoint>
          <Trackpoint>
            <Time>2022-07-16T15:20:29.000Z</Time>
            <Position>
              <LatitudeDegrees>43.462162502110004425048828125</LatitudeDegrees>
              <LongitudeDegrees>-5.06029232405126094818115234375</LongitudeDegrees>
            </Position>
            <AltitudeMeters>8</AltitudeMeters>
            <DistanceMeters>NAN</DistanceMeters>
          </Trackpoint>
          <Trackpoint>
            <Time>2022-07-16T15:28:10.000Z</Time>
            <Position>
              <LatitudeDegrees>43.46225805580615997314453125</LatitudeDegrees>
              <LongitudeDegrees>-5.06028578616678714752197265625</LongitudeDegrees>
            </Position>
            <AltitudeMeters>8.3999996185302734375</AltitudeMeters>
            <DistanceMeters>NAN</DistanceMeters>
          </Trackpoint>
          <Trackpoint>
            <Time>2022-07-16T15:28:13.000Z</Time>
            <Position>
              <LatitudeDegrees>43.46232050098478794097900390625</LatitudeDegrees>
              <LongitudeDegrees>-5.06020381115376949310302734375</LongitudeDegrees>
            </Position>
            <AltitudeMeters>8.80000019073486328125</AltitudeMeters>
            <DistanceMeters>NAN</DistanceMeters>
          </Trackpoint>
          <Trackpoint>
            <Time>2022-07-16T15:28:14.000Z</Time>
            <Position>
              <LatitudeDegrees>43.46234112046658992767333984375</LatitudeDegrees>
              <LongitudeDegrees>-5.0601665116846561431884765625</LongitudeDegrees>
            </Position>
            <AltitudeMeters>9</AltitudeMeters>
            <DistanceMeters>NAN</DistanceMeters>
          </Trackpoint>
          <Trackpoint>
            <Time>2022-07-16T15:28:24.000Z</Time>
            <Position>
              <LatitudeDegrees>43.46249543130397796630859375</LatitudeDegrees>
              <LongitudeDegrees>-5.0598992966115474700927734375</LongitudeDegrees>
            </Position>
            <AltitudeMeters>9</AltitudeMeters>
            <DistanceMeters>NAN</DistanceMeters>
          </Trackpoint>
          <Trackpoint>
            <Time>2022-07-16T15:28:33.000Z</Time>
            <Position>
              <LatitudeDegrees>43.46264672465622425079345703125</LatitudeDegrees>
              <LongitudeDegrees>-5.05966736935079097747802734375</LongitudeDegrees>
            </Position>
            <AltitudeMeters>9</AltitudeMeters>
            <DistanceMeters>NAN</DistanceMeters>
          </Trackpoint>
          <Trackpoint>
            <Time>2022-07-16T15:28:39.000Z</Time>
            <Position>
              <LatitudeDegrees>43.46273724921047687530517578125</LatitudeDegrees>
              <LongitudeDegrees>-5.05955153144896030426025390625</LongitudeDegrees>
            </Position>
            <AltitudeMeters>8.80000019073486328125</AltitudeMeters>
            <DistanceMeters>NAN</DistanceMeters>
          </Trackpoint>
          <Trackpoint>
            <Time>2022-07-16T15:28:40.000Z</Time>
            <Position>
              <LatitudeDegrees>43.46274630166590213775634765625</LatitudeDegrees>
              <LongitudeDegrees>-5.05955211818218231201171875</LongitudeDegrees>
            </Position>
            <AltitudeMeters>8.80000019073486328125</AltitudeMeters>
            <DistanceMeters>NAN</DistanceMeters>
          </Trackpoint>
          <Trackpoint>
            <Time>2022-07-16T15:28:45.000Z</Time>
            <Position>
              <LatitudeDegrees>43.46274848096072673797607421875</LatitudeDegrees>
              <LongitudeDegrees>-5.05958489142358303070068359375</LongitudeDegrees>
            </Position>
            <AltitudeMeters>8.6000003814697265625</AltitudeMeters>
            <DistanceMeters>NAN</DistanceMeters>
          </Trackpoint>
          <Trackpoint>
            <Time>2022-07-16T15:28:46.000Z</Time>
            <Position>
              <LatitudeDegrees>43.46274848096072673797607421875</LatitudeDegrees>
              <LongitudeDegrees>-5.05958489142358303070068359375</LongitudeDegrees>
            </Position>
            <AltitudeMeters>8.6000003814697265625</AltitudeMeters>
            <DistanceMeters>NAN</DistanceMeters>
          </Trackpoint>
          <Trackpoint>
            <Time>2022-07-16T15:29:18.000Z</Time>
            <Position>
              <LatitudeDegrees>43.4627463854849338531494140625</LatitudeDegrees>
              <LongitudeDegrees>-5.05952638573944568634033203125</LongitudeDegrees>
            </Position>
            <AltitudeMeters>8.6000003814697265625</AltitudeMeters>
            <DistanceMeters>NAN</DistanceMeters>
          </Trackpoint>
          <Trackpoint>
            <Time>2022-07-16T15:29:19.000Z</Time>
            <Position>
              <LatitudeDegrees>43.4627621434628963470458984375</LatitudeDegrees>
              <LongitudeDegrees>-5.05950928665697574615478515625</LongitudeDegrees>
            </Position>
            <AltitudeMeters>8.6000003814697265625</AltitudeMeters>
            <DistanceMeters>NAN</DistanceMeters>
          </Trackpoint>
          <Trackpoint>
            <Time>2022-07-16T15:29:20.000Z</Time>
            <Position>
              <LatitudeDegrees>43.4627779014408588409423828125</LatitudeDegrees>
              <LongitudeDegrees>-5.0594929419457912445068359375</LongitudeDegrees>
            </Position>
            <AltitudeMeters>8.6000003814697265625</AltitudeMeters>
            <DistanceMeters>NAN</DistanceMeters>
          </Trackpoint>
          <Trackpoint>
            <Time>2022-07-16T15:29:28.000Z</Time>
            <Position>
              <LatitudeDegrees>43.462853841483592987060546875</LatitudeDegrees>
              <LongitudeDegrees>-5.0593467615544795989990234375</LongitudeDegrees>
            </Position>
            <AltitudeMeters>8.6000003814697265625</AltitudeMeters>
            <DistanceMeters>NAN</DistanceMeters>
          </Trackpoint>
          <Trackpoint>
            <Time>2022-07-16T15:29:31.000Z</Time>
            <Position>
              <LatitudeDegrees>43.4628566913306713104248046875</LatitudeDegrees>
              <LongitudeDegrees>-5.05934081040322780609130859375</LongitudeDegrees>
            </Position>
            <AltitudeMeters>8.3999996185302734375</AltitudeMeters>
            <DistanceMeters>NAN</DistanceMeters>
          </Trackpoint>
          <Trackpoint>
            <Time>2022-07-16T15:32:10.000Z</Time>
            <Position>
              <LatitudeDegrees>43.462882339954376220703125</LatitudeDegrees>
              <LongitudeDegrees>-5.0593051873147487640380859375</LongitudeDegrees>
            </Position>
            <AltitudeMeters>8.80000019073486328125</AltitudeMeters>
            <DistanceMeters>NAN</DistanceMeters>
          </Trackpoint>
          <Trackpoint>
            <Time>2022-07-16T15:32:11.000Z</Time>
            <Position>
              <LatitudeDegrees>43.46288527362048625946044921875</LatitudeDegrees>
              <LongitudeDegrees>-5.05928046070039272308349609375</LongitudeDegrees>
            </Position>
            <AltitudeMeters>8.80000019073486328125</AltitudeMeters>
            <DistanceMeters>NAN</DistanceMeters>
          </Trackpoint>
          <Trackpoint>
            <Time>2022-07-16T15:32:13.000Z</Time>
            <Position>
              <LatitudeDegrees>43.46290111541748046875</LatitudeDegrees>
              <LongitudeDegrees>-5.05923352204263210296630859375</LongitudeDegrees>
            </Position>
            <AltitudeMeters>8.80000019073486328125</AltitudeMeters>
            <DistanceMeters>NAN</DistanceMeters>
          </Trackpoint>
          <Trackpoint>
            <Time>2022-07-16T15:32:15.000Z</Time>
            <Position>
              <LatitudeDegrees>43.4629291109740734100341796875</LatitudeDegrees>
              <LongitudeDegrees>-5.05921944044530391693115234375</LongitudeDegrees>
            </Position>
            <AltitudeMeters>7.599999904632568359375</AltitudeMeters>
            <DistanceMeters>NAN</DistanceMeters>
          </Trackpoint>
          <Trackpoint>
            <Time>2022-07-16T15:32:18.000Z</Time>
            <Position>
              <LatitudeDegrees>43.4629321284592151641845703125</LatitudeDegrees>
              <LongitudeDegrees>-5.05926512181758880615234375</LongitudeDegrees>
            </Position>
            <AltitudeMeters>7</AltitudeMeters>
            <DistanceMeters>NAN</DistanceMeters>
          </Trackpoint>
          <Trackpoint>
            <Time>2022-07-16T15:32:25.000Z</Time>
            <Position>
              <LatitudeDegrees>43.46283950842916965484619140625</LatitudeDegrees>
              <LongitudeDegrees>-5.0593732483685016632080078125</LongitudeDegrees>
            </Position>
            <AltitudeMeters>7</AltitudeMeters>
            <DistanceMeters>NAN</DistanceMeters>
          </Trackpoint>
          <Trackpoint>
            <Time>2022-07-16T15:32:30.000Z</Time>
            <Position>
              <LatitudeDegrees>43.4627641551196575164794921875</LatitudeDegrees>
              <LongitudeDegrees>-5.059493444859981536865234375</LongitudeDegrees>
            </Position>
            <AltitudeMeters>7</AltitudeMeters>
            <DistanceMeters>NAN</DistanceMeters>
          </Trackpoint>
          <Trackpoint>
            <Time>2022-07-16T15:32:31.000Z</Time>
            <Position>
              <LatitudeDegrees>43.462749235332012176513671875</LatitudeDegrees>
              <LongitudeDegrees>-5.05952588282525539398193359375</LongitudeDegrees>
            </Position>
            <AltitudeMeters>7</AltitudeMeters>
            <DistanceMeters>NAN</DistanceMeters>
          </Trackpoint>
          <Trackpoint>
            <Time>2022-07-16T15:32:37.000Z</Time>
            <Position>
              <LatitudeDegrees>43.4626659192144870758056640625</LatitudeDegrees>
              <LongitudeDegrees>-5.059719085693359375</LongitudeDegrees>
            </Position>
            <AltitudeMeters>7.19999980926513671875</AltitudeMeters>
            <DistanceMeters>NAN</DistanceMeters>
          </Trackpoint>
          <Trackpoint>
            <Time>2022-07-16T15:32:40.000Z</Time>
            <Position>
              <LatitudeDegrees>43.46261478960514068603515625</LatitudeDegrees>
              <LongitudeDegrees>-5.05979024805128574371337890625</LongitudeDegrees>
            </Position>
            <AltitudeMeters>7.19999980926513671875</AltitudeMeters>
            <DistanceMeters>NAN</DistanceMeters>
          </Trackpoint>
          <Trackpoint>
            <Time>2022-07-16T15:32:49.000Z</Time>
            <Position>
              <LatitudeDegrees>43.4624342434108257293701171875</LatitudeDegrees>
              <LongitudeDegrees>-5.06006131879985332489013671875</LongitudeDegrees>
            </Position>
            <AltitudeMeters>7.19999980926513671875</AltitudeMeters>
            <DistanceMeters>NAN</DistanceMeters>
          </Trackpoint>
          <Trackpoint>
            <Time>2022-07-16T15:32:58.000Z</Time>
            <Position>
              <LatitudeDegrees>43.4622773341834545135498046875</LatitudeDegrees>
              <LongitudeDegrees>-5.0603507459163665771484375</LongitudeDegrees>
            </Position>
            <AltitudeMeters>7</AltitudeMeters>
            <DistanceMeters>NAN</DistanceMeters>
          </Trackpoint>
          <Trackpoint>
            <Time>2022-07-16T15:33:07.000Z</Time>
            <Position>
              <LatitudeDegrees>43.4621428884565830230712890625</LatitudeDegrees>
              <LongitudeDegrees>-5.06060178391635417938232421875</LongitudeDegrees>
            </Position>
            <AltitudeMeters>7</AltitudeMeters>
            <DistanceMeters>NAN</DistanceMeters>
          </Trackpoint>
          <Trackpoint>
            <Time>2022-07-16T15:33:08.000Z</Time>
            <Position>
              <LatitudeDegrees>43.4621254540979862213134765625</LatitudeDegrees>
              <LongitudeDegrees>-5.06062659434974193572998046875</LongitudeDegrees>
            </Position>
            <AltitudeMeters>7</AltitudeMeters>
            <DistanceMeters>NAN</DistanceMeters>
          </Trackpoint>
          <Trackpoint>
            <Time>2022-07-16T15:33:11.000Z</Time>
            <Position>
              <LatitudeDegrees>43.46207122318446636199951171875</LatitudeDegrees>
              <LongitudeDegrees>-5.06069113500416278839111328125</LongitudeDegrees>
            </Position>
            <AltitudeMeters>7</AltitudeMeters>
            <DistanceMeters>NAN</DistanceMeters>
          </Trackpoint>
          <Trackpoint>
            <Time>2022-07-16T15:33:17.000Z</Time>
            <Position>
              <LatitudeDegrees>43.4619705565273761749267578125</LatitudeDegrees>
              <LongitudeDegrees>-5.06083530373871326446533203125</LongitudeDegrees>
            </Position>
            <AltitudeMeters>7</AltitudeMeters>
            <DistanceMeters>NAN</DistanceMeters>
          </Trackpoint>
          <Trackpoint>
            <Time>2022-07-16T15:33:21.000Z</Time>
            <Position>
              <LatitudeDegrees>43.46188849769532680511474609375</LatitudeDegrees>
              <LongitudeDegrees>-5.0609078072011470794677734375</LongitudeDegrees>
            </Position>
            <AltitudeMeters>7</AltitudeMeters>
            <DistanceMeters>NAN</DistanceMeters>
          </Trackpoint>
          <Trackpoint>
            <Time>2022-07-16T15:33:24.000Z</Time>
            <Position>
              <LatitudeDegrees>43.4618226997554302215576171875</LatitudeDegrees>
              <LongitudeDegrees>-5.06095265038311481475830078125</LongitudeDegrees>
            </Position>
            <AltitudeMeters>7</AltitudeMeters>
            <DistanceMeters>NAN</DistanceMeters>
          </Trackpoint>
          <Trackpoint>
            <Time>2022-07-16T15:33:28.000Z</Time>
            <Position>
              <LatitudeDegrees>43.4617442451417446136474609375</LatitudeDegrees>
              <LongitudeDegrees>-5.06098416633903980255126953125</LongitudeDegrees>
            </Position>
            <AltitudeMeters>6.599999904632568359375</AltitudeMeters>
            <DistanceMeters>NAN</DistanceMeters>
          </Trackpoint>
          <Trackpoint>
            <Time>2022-07-16T15:33:29.000Z</Time>
            <Position>
              <LatitudeDegrees>43.4617291577160358428955078125</LatitudeDegrees>
              <LongitudeDegrees>-5.060976035892963409423828125</LongitudeDegrees>
            </Position>
            <AltitudeMeters>6.599999904632568359375</AltitudeMeters>
            <DistanceMeters>NAN</DistanceMeters>
          </Trackpoint>
          <Trackpoint>
            <Time>2022-07-16T15:33:30.000Z</Time>
            <Position>
              <LatitudeDegrees>43.46171633340418338775634765625</LatitudeDegrees>
              <LongitudeDegrees>-5.06096002645790576934814453125</LongitudeDegrees>
            </Position>
            <AltitudeMeters>6.599999904632568359375</AltitudeMeters>
            <DistanceMeters>NAN</DistanceMeters>
          </Trackpoint>
          <Trackpoint>
            <Time>2022-07-16T15:33:33.000Z</Time>
            <Position>
              <LatitudeDegrees>43.4616862423717975616455078125</LatitudeDegrees>
              <LongitudeDegrees>-5.06090034730732440948486328125</LongitudeDegrees>
            </Position>
            <AltitudeMeters>7</AltitudeMeters>
            <DistanceMeters>NAN</DistanceMeters>
          </Trackpoint>
          <Trackpoint>
            <Time>2022-07-16T15:33:35.000Z</Time>
            <Position>
              <LatitudeDegrees>43.4616887569427490234375</LatitudeDegrees>
              <LongitudeDegrees>-5.0608662329614162445068359375</LongitudeDegrees>
            </Position>
            <AltitudeMeters>7.19999980926513671875</AltitudeMeters>
            <DistanceMeters>NAN</DistanceMeters>
          </Trackpoint>
          <Trackpoint>
            <Time>2022-07-16T15:33:37.000Z</Time>
            <Position>
              <LatitudeDegrees>43.4617046825587749481201171875</LatitudeDegrees>
              <LongitudeDegrees>-5.060834549367427825927734375</LongitudeDegrees>
            </Position>
            <AltitudeMeters>7.599999904632568359375</AltitudeMeters>
            <DistanceMeters>NAN</DistanceMeters>
          </Trackpoint>
          <Trackpoint>
            <Time>2022-07-16T15:33:40.000Z</Time>
            <Position>
              <LatitudeDegrees>43.46170007251203060150146484375</LatitudeDegrees>
              <LongitudeDegrees>-5.0608119182288646697998046875</LongitudeDegrees>
            </Position>
            <AltitudeMeters>7.80000019073486328125</AltitudeMeters>
            <DistanceMeters>NAN</DistanceMeters>
          </Trackpoint>
          <Trackpoint>
            <Time>2022-07-16T15:33:43.000Z</Time>
            <Position>
              <LatitudeDegrees>43.46167358569800853729248046875</LatitudeDegrees>
              <LongitudeDegrees>-5.06083815358579158782958984375</LongitudeDegrees>
            </Position>
            <AltitudeMeters>8</AltitudeMeters>
            <DistanceMeters>NAN</DistanceMeters>
          </Trackpoint>
          <Trackpoint>
            <Time>2022-07-16T15:33:47.000Z</Time>
            <Position>
              <LatitudeDegrees>43.4616520442068576812744140625</LatitudeDegrees>
              <LongitudeDegrees>-5.06091065704822540283203125</LongitudeDegrees>
            </Position>
            <AltitudeMeters>8.6000003814697265625</AltitudeMeters>
            <DistanceMeters>NAN</DistanceMeters>
          </Trackpoint>
          <Trackpoint>
            <Time>2022-07-16T15:33:51.000Z</Time>
            <Position>
              <LatitudeDegrees>43.461655564606189727783203125</LatitudeDegrees>
              <LongitudeDegrees>-5.060955248773097991943359375</LongitudeDegrees>
            </Position>
            <AltitudeMeters>9</AltitudeMeters>
            <DistanceMeters>NAN</DistanceMeters>
          </Trackpoint>
          <Trackpoint>
            <Time>2022-07-16T15:33:52.000Z</Time>
            <Position>
              <LatitudeDegrees>43.4616513736546039581298828125</LatitudeDegrees>
              <LongitudeDegrees>-5.0609648041427135467529296875</LongitudeDegrees>
            </Position>
            <AltitudeMeters>9</AltitudeMeters>
            <DistanceMeters>NAN</DistanceMeters>
          </Trackpoint>
          <Trackpoint>
            <Time>2022-07-16T15:33:58.000Z</Time>
            <Position>
              <LatitudeDegrees>43.46167392097413539886474609375</LatitudeDegrees>
              <LongitudeDegrees>-5.06108273752033710479736328125</LongitudeDegrees>
            </Position>
            <AltitudeMeters>9.19999980926513671875</AltitudeMeters>
            <DistanceMeters>NAN</DistanceMeters>
          </Trackpoint>
          <Trackpoint>
            <Time>2022-07-16T15:34:05.000Z</Time>
            <Position>
              <LatitudeDegrees>43.46173209138214588165283203125</LatitudeDegrees>
              <LongitudeDegrees>-5.0612735934555530548095703125</LongitudeDegrees>
            </Position>
            <AltitudeMeters>9.3999996185302734375</AltitudeMeters>
            <DistanceMeters>NAN</DistanceMeters>
          </Trackpoint>
          <Trackpoint>
            <Time>2022-07-16T15:34:15.000Z</Time>
            <Position>
              <LatitudeDegrees>43.46183619461953639984130859375</LatitudeDegrees>
              <LongitudeDegrees>-5.06160928867757320404052734375</LongitudeDegrees>
            </Position>
            <AltitudeMeters>9.19999980926513671875</AltitudeMeters>
            <DistanceMeters>NAN</DistanceMeters>
          </Trackpoint>
          <Trackpoint>
            <Time>2022-07-16T15:34:20.000Z</Time>
            <Position>
              <LatitudeDegrees>43.46188732422888278961181640625</LatitudeDegrees>
              <LongitudeDegrees>-5.06176100112497806549072265625</LongitudeDegrees>
            </Position>
            <AltitudeMeters>9.19999980926513671875</AltitudeMeters>
            <DistanceMeters>NAN</DistanceMeters>
          </Trackpoint>
          <Trackpoint>
            <Time>2022-07-16T15:34:23.000Z</Time>
            <Position>
              <LatitudeDegrees>43.46191783435642719268798828125</LatitudeDegrees>
              <LongitudeDegrees>-5.06186150014400482177734375</LongitudeDegrees>
            </Position>
            <AltitudeMeters>9.3999996185302734375</AltitudeMeters>
            <DistanceMeters>NAN</DistanceMeters>
          </Trackpoint>
          <Trackpoint>
            <Time>2022-07-16T15:34:25.000Z</Time>
            <Position>
              <LatitudeDegrees>43.4619407169520854949951171875</LatitudeDegrees>
              <LongitudeDegrees>-5.061937607824802398681640625</LongitudeDegrees>
            </Position>
            <AltitudeMeters>9.6000003814697265625</AltitudeMeters>
            <DistanceMeters>NAN</DistanceMeters>
          </Trackpoint>
          <Trackpoint>
            <Time>2022-07-16T15:34:27.000Z</Time>
            <Position>
              <LatitudeDegrees>43.4619625099003314971923828125</LatitudeDegrees>
              <LongitudeDegrees>-5.06201279349625110626220703125</LongitudeDegrees>
            </Position>
            <AltitudeMeters>9.6000003814697265625</AltitudeMeters>
            <DistanceMeters>NAN</DistanceMeters>
          </Trackpoint>
          <Trackpoint>
            <Time>2022-07-16T15:34:28.000Z</Time>
            <Position>
              <LatitudeDegrees>43.461972065269947052001953125</LatitudeDegrees>
              <LongitudeDegrees>-5.06205135025084018707275390625</LongitudeDegrees>
            </Position>
            <AltitudeMeters>9.6000003814697265625</AltitudeMeters>
            <DistanceMeters>NAN</DistanceMeters>
          </Trackpoint>
          <Trackpoint>
            <Time>2022-07-16T15:34:30.000Z</Time>
            <Position>
              <LatitudeDegrees>43.46199679188430309295654296875</LatitudeDegrees>
              <LongitudeDegrees>-5.06212837994098663330078125</LongitudeDegrees>
            </Position>
            <AltitudeMeters>9.80000019073486328125</AltitudeMeters>
            <DistanceMeters>NAN</DistanceMeters>
          </Trackpoint>
          <Trackpoint>
            <Time>2022-07-16T15:34:38.000Z</Time>
            <Position>
              <LatitudeDegrees>43.462091423571109771728515625</LatitudeDegrees>
              <LongitudeDegrees>-5.06242954172194004058837890625</LongitudeDegrees>
            </Position>
            <AltitudeMeters>9.80000019073486328125</AltitudeMeters>
            <DistanceMeters>NAN</DistanceMeters>
          </Trackpoint>
          <Trackpoint>
            <Time>2022-07-16T15:34:48.000Z</Time>
            <Position>
              <LatitudeDegrees>43.46222511492669582366943359375</LatitudeDegrees>
              <LongitudeDegrees>-5.0628322921693325042724609375</LongitudeDegrees>
            </Position>
            <AltitudeMeters>9.80000019073486328125</AltitudeMeters>
            <DistanceMeters>NAN</DistanceMeters>
          </Trackpoint>
          <Trackpoint>
            <Time>2022-07-16T15:34:52.000Z</Time>
            <Position>
              <LatitudeDegrees>43.4622763283550739288330078125</LatitudeDegrees>
              <LongitudeDegrees>-5.0629975832998752593994140625</LongitudeDegrees>
            </Position>
            <AltitudeMeters>9.80000019073486328125</AltitudeMeters>
            <DistanceMeters>NAN</DistanceMeters>
          </Trackpoint>
          <Trackpoint>
            <Time>2022-07-16T15:35:00.000Z</Time>
            <Position>
              <LatitudeDegrees>43.46238688565790653228759765625</LatitudeDegrees>
              <LongitudeDegrees>-5.06332422606647014617919921875</LongitudeDegrees>
            </Position>
            <AltitudeMeters>9.80000019073486328125</AltitudeMeters>
            <DistanceMeters>NAN</DistanceMeters>
          </Trackpoint>
          <Trackpoint>
            <Time>2022-07-16T15:35:02.000Z</Time>
            <Position>
              <LatitudeDegrees>43.46241588704288005828857421875</LatitudeDegrees>
              <LongitudeDegrees>-5.06340502761304378509521484375</LongitudeDegrees>
            </Position>
            <AltitudeMeters>9.80000019073486328125</AltitudeMeters>
            <DistanceMeters>NAN</DistanceMeters>
          </Trackpoint>
          <Trackpoint>
            <Time>2022-07-16T15:35:03.000Z</Time>
            <Position>
              <LatitudeDegrees>43.46242980100214481353759765625</LatitudeDegrees>
              <LongitudeDegrees>-5.06344735622406005859375</LongitudeDegrees>
            </Position>
            <AltitudeMeters>9.80000019073486328125</AltitudeMeters>
            <DistanceMeters>NAN</DistanceMeters>
          </Trackpoint>
          <Trackpoint>
            <Time>2022-07-16T15:35:15.000Z</Time>
            <Position>
              <LatitudeDegrees>43.46258369274437427520751953125</LatitudeDegrees>
              <LongitudeDegrees>-5.06392680108547210693359375</LongitudeDegrees>
            </Position>
            <AltitudeMeters>9.80000019073486328125</AltitudeMeters>
            <DistanceMeters>NAN</DistanceMeters>
          </Trackpoint>
          <Trackpoint>
            <Time>2022-07-16T15:35:26.000Z</Time>
            <Position>
              <LatitudeDegrees>43.4627095051109790802001953125</LatitudeDegrees>
              <LongitudeDegrees>-5.06430993787944316864013671875</LongitudeDegrees>
            </Position>
            <AltitudeMeters>9.80000019073486328125</AltitudeMeters>
            <DistanceMeters>NAN</DistanceMeters>
          </Trackpoint>
          <Trackpoint>
            <Time>2022-07-16T15:35:31.000Z</Time>
            <Position>
              <LatitudeDegrees>43.4627621434628963470458984375</LatitudeDegrees>
              <LongitudeDegrees>-5.06446860730648040771484375</LongitudeDegrees>
            </Position>
            <AltitudeMeters>9.80000019073486328125</AltitudeMeters>
            <DistanceMeters>NAN</DistanceMeters>
          </Trackpoint>
          <Trackpoint>
            <Time>2022-07-16T15:35:33.000Z</Time>
            <Position>
              <LatitudeDegrees>43.46279852092266082763671875</LatitudeDegrees>
              <LongitudeDegrees>-5.06451311521232128143310546875</LongitudeDegrees>
            </Position>
            <AltitudeMeters>10</AltitudeMeters>
            <DistanceMeters>NAN</DistanceMeters>
          </Trackpoint>
          <Trackpoint>
            <Time>2022-07-16T15:35:34.000Z</Time>
            <Position>
              <LatitudeDegrees>43.46282559446990489959716796875</LatitudeDegrees>
              <LongitudeDegrees>-5.06451998837292194366455078125</LongitudeDegrees>
            </Position>
            <AltitudeMeters>10</AltitudeMeters>
            <DistanceMeters>NAN</DistanceMeters>
          </Trackpoint>
          <Trackpoint>
            <Time>2022-07-16T15:35:35.000Z</Time>
            <Position>
              <LatitudeDegrees>43.46285325475037097930908203125</LatitudeDegrees>
              <LongitudeDegrees>-5.06451412104070186614990234375</LongitudeDegrees>
            </Position>
            <AltitudeMeters>10</AltitudeMeters>
            <DistanceMeters>NAN</DistanceMeters>
          </Trackpoint>
          <Trackpoint>
            <Time>2022-07-16T15:35:38.000Z</Time>
            <Position>
              <LatitudeDegrees>43.46293372102081775665283203125</LatitudeDegrees>
              <LongitudeDegrees>-5.06445293314754962921142578125</LongitudeDegrees>
            </Position>
            <AltitudeMeters>10</AltitudeMeters>
            <DistanceMeters>NAN</DistanceMeters>
          </Trackpoint>
          <Trackpoint>
            <Time>2022-07-16T15:35:44.000Z</Time>
            <Position>
              <LatitudeDegrees>43.46306984312832355499267578125</LatitudeDegrees>
              <LongitudeDegrees>-5.06431161426007747650146484375</LongitudeDegrees>
            </Position>
            <AltitudeMeters>9.6000003814697265625</AltitudeMeters>
            <DistanceMeters>NAN</DistanceMeters>
          </Trackpoint>
          <Trackpoint>
            <Time>2022-07-16T15:35:49.000Z</Time>
            <Position>
              <LatitudeDegrees>43.4630957432091236114501953125</LatitudeDegrees>
              <LongitudeDegrees>-5.06417532451450824737548828125</LongitudeDegrees>
            </Position>
            <AltitudeMeters>9.3999996185302734375</AltitudeMeters>
            <DistanceMeters>NAN</DistanceMeters>
          </Trackpoint>
          <Trackpoint>
            <Time>2022-07-16T15:35:51.000Z</Time>
            <Position>
              <LatitudeDegrees>43.4630957432091236114501953125</LatitudeDegrees>
              <LongitudeDegrees>-5.06417532451450824737548828125</LongitudeDegrees>
            </Position>
            <AltitudeMeters>9.3999996185302734375</AltitudeMeters>
            <DistanceMeters>NAN</DistanceMeters>
          </Trackpoint>
          <Trackpoint>
            <Time>2022-07-16T15:39:33.000Z</Time>
            <Position>
              <LatitudeDegrees>43.46313203684985637664794921875</LatitudeDegrees>
              <LongitudeDegrees>-5.0641500949859619140625</LongitudeDegrees>
            </Position>
            <AltitudeMeters>7</AltitudeMeters>
            <DistanceMeters>NAN</DistanceMeters>
          </Trackpoint>
          <Trackpoint>
            <Time>2022-07-16T15:39:34.000Z</Time>
            <Position>
              <LatitudeDegrees>43.463156260550022125244140625</LatitudeDegrees>
              <LongitudeDegrees>-5.06413090042769908905029296875</LongitudeDegrees>
            </Position>
            <AltitudeMeters>7</AltitudeMeters>
            <DistanceMeters>NAN</DistanceMeters>
          </Trackpoint>
          <Trackpoint>
            <Time>2022-07-16T15:39:38.000Z</Time>
            <Position>
              <LatitudeDegrees>43.4633136726915836334228515625</LatitudeDegrees>
              <LongitudeDegrees>-5.06401657126843929290771484375</LongitudeDegrees>
            </Position>
            <AltitudeMeters>6.400000095367431640625</AltitudeMeters>
            <DistanceMeters>NAN</DistanceMeters>
          </Trackpoint>
          <Trackpoint>
            <Time>2022-07-16T15:39:40.000Z</Time>
            <Position>
              <LatitudeDegrees>43.46339254640042781829833984375</LatitudeDegrees>
              <LongitudeDegrees>-5.0639242865145206451416015625</LongitudeDegrees>
            </Position>
            <AltitudeMeters>5.80000019073486328125</AltitudeMeters>
            <DistanceMeters>NAN</DistanceMeters>
          </Trackpoint>
          <Trackpoint>
            <Time>2022-07-16T15:39:42.000Z</Time>
            <Position>
              <LatitudeDegrees>43.4634598530828952789306640625</LatitudeDegrees>
              <LongitudeDegrees>-5.0638384558260440826416015625</LongitudeDegrees>
            </Position>
            <AltitudeMeters>5.599999904632568359375</AltitudeMeters>
            <DistanceMeters>NAN</DistanceMeters>
          </Trackpoint>
          <Trackpoint>
            <Time>2022-07-16T15:39:43.000Z</Time>
            <Position>
              <LatitudeDegrees>43.46349346451461315155029296875</LatitudeDegrees>
              <LongitudeDegrees>-5.063811130821704864501953125</LongitudeDegrees>
            </Position>
            <AltitudeMeters>5.400000095367431640625</AltitudeMeters>
            <DistanceMeters>NAN</DistanceMeters>
          </Trackpoint>
          <Trackpoint>
            <Time>2022-07-16T15:39:48.000Z</Time>
            <Position>
              <LatitudeDegrees>43.46362656913697719573974609375</LatitudeDegrees>
              <LongitudeDegrees>-5.0637249648571014404296875</LongitudeDegrees>
            </Position>
            <AltitudeMeters>5</AltitudeMeters>
            <DistanceMeters>NAN</DistanceMeters>
          </Trackpoint>
          <Trackpoint>
            <Time>2022-07-16T15:39:50.000Z</Time>
            <Position>
              <LatitudeDegrees>43.46366680227220058441162109375</LatitudeDegrees>
              <LongitudeDegrees>-5.06369722075760364532470703125</LongitudeDegrees>
            </Position>
            <AltitudeMeters>4.80000019073486328125</AltitudeMeters>
            <DistanceMeters>NAN</DistanceMeters>
          </Trackpoint>
          <Trackpoint>
            <Time>2022-07-16T15:39:55.000Z</Time>
            <Position>
              <LatitudeDegrees>43.463760428130626678466796875</LatitudeDegrees>
              <LongitudeDegrees>-5.0636235438287258148193359375</LongitudeDegrees>
            </Position>
            <AltitudeMeters>4.599999904632568359375</AltitudeMeters>
            <DistanceMeters>NAN</DistanceMeters>
          </Trackpoint>
          <Trackpoint>
            <Time>2022-07-16T15:40:03.000Z</Time>
            <Position>
              <LatitudeDegrees>43.4639409743249416351318359375</LatitudeDegrees>
              <LongitudeDegrees>-5.0634991563856601715087890625</LongitudeDegrees>
            </Position>
            <AltitudeMeters>4.599999904632568359375</AltitudeMeters>
            <DistanceMeters>NAN</DistanceMeters>
          </Trackpoint>
          <Trackpoint>
            <Time>2022-07-16T15:40:11.000Z</Time>
            <Position>
              <LatitudeDegrees>43.46414004452526569366455078125</LatitudeDegrees>
              <LongitudeDegrees>-5.06335951387882232666015625</LongitudeDegrees>
            </Position>
            <AltitudeMeters>4.599999904632568359375</AltitudeMeters>
            <DistanceMeters>NAN</DistanceMeters>
          </Trackpoint>
          <Trackpoint>
            <Time>2022-07-16T15:40:12.000Z</Time>
            <Position>
              <LatitudeDegrees>43.4641662798821926116943359375</LatitudeDegrees>
              <LongitudeDegrees>-5.06334484554827213287353515625</LongitudeDegrees>
            </Position>
            <AltitudeMeters>4.599999904632568359375</AltitudeMeters>
            <DistanceMeters>NAN</DistanceMeters>
          </Trackpoint>
          <Trackpoint>
            <Time>2022-07-16T15:40:16.000Z</Time>
            <Position>
              <LatitudeDegrees>43.46426225267350673675537109375</LatitudeDegrees>
              <LongitudeDegrees>-5.0632849149405956268310546875</LongitudeDegrees>
            </Position>
            <AltitudeMeters>4.599999904632568359375</AltitudeMeters>
            <DistanceMeters>NAN</DistanceMeters>
          </Trackpoint>
          <Trackpoint>
            <Time>2022-07-16T15:40:19.000Z</Time>
            <Position>
              <LatitudeDegrees>43.46433199010789394378662109375</LatitudeDegrees>
              <LongitudeDegrees>-5.0632475316524505615234375</LongitudeDegrees>
            </Position>
            <AltitudeMeters>4.599999904632568359375</AltitudeMeters>
            <DistanceMeters>NAN</DistanceMeters>
          </Trackpoint>
          <Trackpoint>
            <Time>2022-07-16T15:40:20.000Z</Time>
            <Position>
              <LatitudeDegrees>43.46435612998902797698974609375</LatitudeDegrees>
              <LongitudeDegrees>-5.06322934292256832122802734375</LongitudeDegrees>
            </Position>
            <AltitudeMeters>4.599999904632568359375</AltitudeMeters>
            <DistanceMeters>NAN</DistanceMeters>
          </Trackpoint>
          <Trackpoint>
            <Time>2022-07-16T15:40:22.000Z</Time>
            <Position>
              <LatitudeDegrees>43.46439954824745655059814453125</LatitudeDegrees>
              <LongitudeDegrees>-5.0631947256624698638916015625</LongitudeDegrees>
            </Position>
            <AltitudeMeters>4.599999904632568359375</AltitudeMeters>
            <DistanceMeters>NAN</DistanceMeters>
          </Trackpoint>
          <Trackpoint>
            <Time>2022-07-16T15:40:29.000Z</Time>
            <Position>
              <LatitudeDegrees>43.4645706228911876678466796875</LatitudeDegrees>
              <LongitudeDegrees>-5.06307008676230907440185546875</LongitudeDegrees>
            </Position>
            <AltitudeMeters>4.80000019073486328125</AltitudeMeters>
            <DistanceMeters>NAN</DistanceMeters>
          </Trackpoint>
          <Trackpoint>
            <Time>2022-07-16T15:40:32.000Z</Time>
            <Position>
              <LatitudeDegrees>43.4646485745906829833984375</LatitudeDegrees>
              <LongitudeDegrees>-5.0630123354494571685791015625</LongitudeDegrees>
            </Position>
            <AltitudeMeters>4.599999904632568359375</AltitudeMeters>
            <DistanceMeters>NAN</DistanceMeters>
          </Trackpoint>
          <Trackpoint>
            <Time>2022-07-16T15:40:35.000Z</Time>
            <Position>
              <LatitudeDegrees>43.4647285379469394683837890625</LatitudeDegrees>
              <LongitudeDegrees>-5.06295475177466869354248046875</LongitudeDegrees>
            </Position>
            <AltitudeMeters>4.599999904632568359375</AltitudeMeters>
            <DistanceMeters>NAN</DistanceMeters>
          </Trackpoint>
          <Trackpoint>
            <Time>2022-07-16T15:40:41.000Z</Time>
            <Position>
              <LatitudeDegrees>43.4648899734020233154296875</LatitudeDegrees>
              <LongitudeDegrees>-5.06285131908953189849853515625</LongitudeDegrees>
            </Position>
            <AltitudeMeters>4.80000019073486328125</AltitudeMeters>
            <DistanceMeters>NAN</DistanceMeters>
          </Trackpoint>
          <Trackpoint>
            <Time>2022-07-16T15:40:52.000Z</Time>
            <Position>
              <LatitudeDegrees>43.4651915542781352996826171875</LatitudeDegrees>
              <LongitudeDegrees>-5.062653087079524993896484375</LongitudeDegrees>
            </Position>
            <AltitudeMeters>4.80000019073486328125</AltitudeMeters>
            <DistanceMeters>NAN</DistanceMeters>
          </Trackpoint>
          <Trackpoint>
            <Time>2022-07-16T15:41:03.000Z</Time>
            <Position>
              <LatitudeDegrees>43.46548131667077541351318359375</LatitudeDegrees>
              <LongitudeDegrees>-5.062462985515594482421875</LongitudeDegrees>
            </Position>
            <AltitudeMeters>4.80000019073486328125</AltitudeMeters>
            <DistanceMeters>NAN</DistanceMeters>
          </Trackpoint>
          <Trackpoint>
            <Time>2022-07-16T15:41:10.000Z</Time>
            <Position>
              <LatitudeDegrees>43.46567661501467227935791015625</LatitudeDegrees>
              <LongitudeDegrees>-5.06239953450858592987060546875</LongitudeDegrees>
            </Position>
            <AltitudeMeters>5</AltitudeMeters>
            <DistanceMeters>NAN</DistanceMeters>
          </Trackpoint>
          <Trackpoint>
            <Time>2022-07-16T15:41:13.000Z</Time>
            <Position>
              <LatitudeDegrees>43.46573696471750736236572265625</LatitudeDegrees>
              <LongitudeDegrees>-5.06235008127987384796142578125</LongitudeDegrees>
            </Position>
            <AltitudeMeters>4.80000019073486328125</AltitudeMeters>
            <DistanceMeters>NAN</DistanceMeters>
          </Trackpoint>
          <Trackpoint>
            <Time>2022-07-16T15:41:16.000Z</Time>
            <Position>
              <LatitudeDegrees>43.46580200828611850738525390625</LatitudeDegrees>
              <LongitudeDegrees>-5.06233784370124340057373046875</LongitudeDegrees>
            </Position>
            <AltitudeMeters>4.80000019073486328125</AltitudeMeters>
            <DistanceMeters>NAN</DistanceMeters>
          </Trackpoint>
          <Trackpoint>
            <Time>2022-07-16T15:41:24.000Z</Time>
            <Position>
              <LatitudeDegrees>43.4660005755722522735595703125</LatitudeDegrees>
              <LongitudeDegrees>-5.06238947622478008270263671875</LongitudeDegrees>
            </Position>
            <AltitudeMeters>5.19999980926513671875</AltitudeMeters>
            <DistanceMeters>NAN</DistanceMeters>
          </Trackpoint>
          <Trackpoint>
            <Time>2022-07-16T15:41:29.000Z</Time>
            <Position>
              <LatitudeDegrees>43.46613124944269657135009765625</LatitudeDegrees>
              <LongitudeDegrees>-5.06245368160307407379150390625</LongitudeDegrees>
            </Position>
            <AltitudeMeters>5.400000095367431640625</AltitudeMeters>
            <DistanceMeters>NAN</DistanceMeters>
          </Trackpoint>
          <Trackpoint>
            <Time>2022-07-16T15:41:33.000Z</Time>
            <Position>
              <LatitudeDegrees>43.46622562967240810394287109375</LatitudeDegrees>
              <LongitudeDegrees>-5.0625060684978961944580078125</LongitudeDegrees>
            </Position>
            <AltitudeMeters>5.400000095367431640625</AltitudeMeters>
            <DistanceMeters>NAN</DistanceMeters>
          </Trackpoint>
          <Trackpoint>
            <Time>2022-07-16T15:41:38.000Z</Time>
            <Position>
              <LatitudeDegrees>43.46631489694118499755859375</LatitudeDegrees>
              <LongitudeDegrees>-5.062597095966339111328125</LongitudeDegrees>
            </Position>
            <AltitudeMeters>5.80000019073486328125</AltitudeMeters>
            <DistanceMeters>NAN</DistanceMeters>
          </Trackpoint>
          <Trackpoint>
            <Time>2022-07-16T15:41:42.000Z</Time>
            <Position>
              <LatitudeDegrees>43.46638597548007965087890625</LatitudeDegrees>
              <LongitudeDegrees>-5.0626700185239315032958984375</LongitudeDegrees>
            </Position>
            <AltitudeMeters>6.19999980926513671875</AltitudeMeters>
            <DistanceMeters>NAN</DistanceMeters>
          </Trackpoint>
          <Trackpoint>
            <Time>2022-07-16T15:41:45.000Z</Time>
            <Position>
              <LatitudeDegrees>43.46642930991947650909423828125</LatitudeDegrees>
              <LongitudeDegrees>-5.06273112259805202484130859375</LongitudeDegrees>
            </Position>
            <AltitudeMeters>6.19999980926513671875</AltitudeMeters>
            <DistanceMeters>NAN</DistanceMeters>
          </Trackpoint>
          <Trackpoint>
            <Time>2022-07-16T15:41:51.000Z</Time>
            <Position>
              <LatitudeDegrees>43.46650600433349609375</LatitudeDegrees>
              <LongitudeDegrees>-5.0628614611923694610595703125</LongitudeDegrees>
            </Position>
            <AltitudeMeters>6.599999904632568359375</AltitudeMeters>
            <DistanceMeters>NAN</DistanceMeters>
          </Trackpoint>
          <Trackpoint>
            <Time>2022-07-16T15:41:54.000Z</Time>
            <Position>
              <LatitudeDegrees>43.4665288031101226806640625</LatitudeDegrees>
              <LongitudeDegrees>-5.06294108927249908447265625</LongitudeDegrees>
            </Position>
            <AltitudeMeters>7</AltitudeMeters>
            <DistanceMeters>NAN</DistanceMeters>
          </Trackpoint>
          <Trackpoint>
            <Time>2022-07-16T15:42:01.000Z</Time>
            <Position>
              <LatitudeDegrees>43.46657817251980304718017578125</LatitudeDegrees>
              <LongitudeDegrees>-5.06312943063676357269287109375</LongitudeDegrees>
            </Position>
            <AltitudeMeters>7.400000095367431640625</AltitudeMeters>
            <DistanceMeters>NAN</DistanceMeters>
          </Trackpoint>
          <Trackpoint>
            <Time>2022-07-16T15:42:09.000Z</Time>
            <Position>
              <LatitudeDegrees>43.46660055220127105712890625</LatitudeDegrees>
              <LongitudeDegrees>-5.06339312531054019927978515625</LongitudeDegrees>
            </Position>
            <AltitudeMeters>7.80000019073486328125</AltitudeMeters>
            <DistanceMeters>NAN</DistanceMeters>
          </Trackpoint>
          <Trackpoint>
            <Time>2022-07-16T15:42:11.000Z</Time>
            <Position>
              <LatitudeDegrees>43.46659158356487751007080078125</LatitudeDegrees>
              <LongitudeDegrees>-5.0634632818400859832763671875</LongitudeDegrees>
            </Position>
            <AltitudeMeters>8</AltitudeMeters>
            <DistanceMeters>NAN</DistanceMeters>
          </Trackpoint>
          <Trackpoint>
            <Time>2022-07-16T15:42:15.000Z</Time>
            <Position>
              <LatitudeDegrees>43.46655369736254215240478515625</LatitudeDegrees>
              <LongitudeDegrees>-5.06359294988214969635009765625</LongitudeDegrees>
            </Position>
            <AltitudeMeters>8.3999996185302734375</AltitudeMeters>
            <DistanceMeters>NAN</DistanceMeters>
          </Trackpoint>
          <Trackpoint>
            <Time>2022-07-16T15:42:18.000Z</Time>
            <Position>
              <LatitudeDegrees>43.46651547588407993316650390625</LatitudeDegrees>
              <LongitudeDegrees>-5.0636879168450832366943359375</LongitudeDegrees>
            </Position>
            <AltitudeMeters>8.3999996185302734375</AltitudeMeters>
            <DistanceMeters>NAN</DistanceMeters>
          </Trackpoint>
          <Trackpoint>
            <Time>2022-07-16T15:42:29.000Z</Time>
            <Position>
              <LatitudeDegrees>43.46638438291847705841064453125</LatitudeDegrees>
              <LongitudeDegrees>-5.0639960356056690216064453125</LongitudeDegrees>
            </Position>
            <AltitudeMeters>9</AltitudeMeters>
            <DistanceMeters>NAN</DistanceMeters>
          </Trackpoint>
          <Trackpoint>
            <Time>2022-07-16T15:42:30.000Z</Time>
            <Position>
              <LatitudeDegrees>43.46637583337724208831787109375</LatitudeDegrees>
              <LongitudeDegrees>-5.0640278868377208709716796875</LongitudeDegrees>
            </Position>
            <AltitudeMeters>9</AltitudeMeters>
            <DistanceMeters>NAN</DistanceMeters>
          </Trackpoint>
          <Trackpoint>
            <Time>2022-07-16T15:42:31.000Z</Time>
            <Position>
              <LatitudeDegrees>43.46636988222599029541015625</LatitudeDegrees>
              <LongitudeDegrees>-5.06406133063137531280517578125</LongitudeDegrees>
            </Position>
            <AltitudeMeters>9</AltitudeMeters>
            <DistanceMeters>NAN</DistanceMeters>
          </Trackpoint>
          <Trackpoint>
            <Time>2022-07-16T15:42:38.000Z</Time>
            <Position>
              <LatitudeDegrees>43.46631078980863094329833984375</LatitudeDegrees>
              <LongitudeDegrees>-5.06425444968044757843017578125</LongitudeDegrees>
            </Position>
            <AltitudeMeters>9</AltitudeMeters>
            <DistanceMeters>NAN</DistanceMeters>
          </Trackpoint>
          <Trackpoint>
            <Time>2022-07-16T15:42:46.000Z</Time>
            <Position>
              <LatitudeDegrees>43.4662191756069660186767578125</LatitudeDegrees>
              <LongitudeDegrees>-5.0644603930413722991943359375</LongitudeDegrees>
            </Position>
            <AltitudeMeters>9.19999980926513671875</AltitudeMeters>
            <DistanceMeters>NAN</DistanceMeters>
          </Trackpoint>
          <Trackpoint>
            <Time>2022-07-16T15:42:55.000Z</Time>
            <Position>
              <LatitudeDegrees>43.46612311899662017822265625</LatitudeDegrees>
              <LongitudeDegrees>-5.0647299550473690032958984375</LongitudeDegrees>
            </Position>
            <AltitudeMeters>9.6000003814697265625</AltitudeMeters>
            <DistanceMeters>NAN</DistanceMeters>
          </Trackpoint>
          <Trackpoint>
            <Time>2022-07-16T15:43:02.000Z</Time>
            <Position>
              <LatitudeDegrees>43.466049022972583770751953125</LatitudeDegrees>
              <LongitudeDegrees>-5.0649431906640529632568359375</LongitudeDegrees>
            </Position>
            <AltitudeMeters>9.6000003814697265625</AltitudeMeters>
            <DistanceMeters>NAN</DistanceMeters>
          </Trackpoint>
          <Trackpoint>
            <Time>2022-07-16T15:43:11.000Z</Time>
            <Position>
              <LatitudeDegrees>43.46594735048711299896240234375</LatitudeDegrees>
              <LongitudeDegrees>-5.06522172130644321441650390625</LongitudeDegrees>
            </Position>
            <AltitudeMeters>9.6000003814697265625</AltitudeMeters>
            <DistanceMeters>NAN</DistanceMeters>
          </Trackpoint>
          <Trackpoint>
            <Time>2022-07-16T15:43:17.000Z</Time>
            <Position>
              <LatitudeDegrees>43.46587845124304294586181640625</LatitudeDegrees>
              <LongitudeDegrees>-5.06540360860526561737060546875</LongitudeDegrees>
            </Position>
            <AltitudeMeters>9.80000019073486328125</AltitudeMeters>
            <DistanceMeters>NAN</DistanceMeters>
          </Trackpoint>
          <Trackpoint>
            <Time>2022-07-16T15:43:20.000Z</Time>
            <Position>
              <LatitudeDegrees>43.4658389724791049957275390625</LatitudeDegrees>
              <LongitudeDegrees>-5.0655086338520050048828125</LongitudeDegrees>
            </Position>
            <AltitudeMeters>9.80000019073486328125</AltitudeMeters>
            <DistanceMeters>NAN</DistanceMeters>
          </Trackpoint>
          <Trackpoint>
            <Time>2022-07-16T15:43:25.000Z</Time>
            <Position>
              <LatitudeDegrees>43.46579614095389842987060546875</LatitudeDegrees>
              <LongitudeDegrees>-5.06570284254848957061767578125</LongitudeDegrees>
            </Position>
            <AltitudeMeters>9.80000019073486328125</AltitudeMeters>
            <DistanceMeters>NAN</DistanceMeters>
          </Trackpoint>
          <Trackpoint>
            <Time>2022-07-16T15:43:29.000Z</Time>
            <Position>
              <LatitudeDegrees>43.46574635244905948638916015625</LatitudeDegrees>
              <LongitudeDegrees>-5.0658410601317882537841796875</LongitudeDegrees>
            </Position>
            <AltitudeMeters>9.80000019073486328125</AltitudeMeters>
            <DistanceMeters>NAN</DistanceMeters>
          </Trackpoint>
          <Trackpoint>
            <Time>2022-07-16T15:43:37.000Z</Time>
            <Position>
              <LatitudeDegrees>43.46566270105540752410888671875</LatitudeDegrees>
              <LongitudeDegrees>-5.066116154193878173828125</LongitudeDegrees>
            </Position>
            <AltitudeMeters>10.19999980926513671875</AltitudeMeters>
            <DistanceMeters>NAN</DistanceMeters>
          </Trackpoint>
          <Trackpoint>
            <Time>2022-07-16T15:43:40.000Z</Time>
            <Position>
              <LatitudeDegrees>43.4656248986721038818359375</LatitudeDegrees>
              <LongitudeDegrees>-5.06622704677283763885498046875</LongitudeDegrees>
            </Position>
            <AltitudeMeters>10.19999980926513671875</AltitudeMeters>
            <DistanceMeters>NAN</DistanceMeters>
          </Trackpoint>
          <Trackpoint>
            <Time>2022-07-16T15:43:44.000Z</Time>
            <Position>
              <LatitudeDegrees>43.46558139659464359283447265625</LatitudeDegrees>
              <LongitudeDegrees>-5.0663610734045505523681640625</LongitudeDegrees>
            </Position>
            <AltitudeMeters>10.19999980926513671875</AltitudeMeters>
            <DistanceMeters>NAN</DistanceMeters>
          </Trackpoint>
          <Trackpoint>
            <Time>2022-07-16T15:43:50.000Z</Time>
            <Position>
              <LatitudeDegrees>43.46550595946609973907470703125</LatitudeDegrees>
              <LongitudeDegrees>-5.0665810145437717437744140625</LongitudeDegrees>
            </Position>
            <AltitudeMeters>10.19999980926513671875</AltitudeMeters>
            <DistanceMeters>NAN</DistanceMeters>
          </Trackpoint>
          <Trackpoint>
            <Time>2022-07-16T15:43:54.000Z</Time>
            <Position>
              <LatitudeDegrees>43.465466983616352081298828125</LatitudeDegrees>
              <LongitudeDegrees>-5.0667342357337474822998046875</LongitudeDegrees>
            </Position>
            <AltitudeMeters>10.3999996185302734375</AltitudeMeters>
            <DistanceMeters>NAN</DistanceMeters>
          </Trackpoint>
          <Trackpoint>
            <Time>2022-07-16T15:43:57.000Z</Time>
            <Position>
              <LatitudeDegrees>43.46543756313621997833251953125</LatitudeDegrees>
              <LongitudeDegrees>-5.0668264366686344146728515625</LongitudeDegrees>
            </Position>
            <AltitudeMeters>10.3999996185302734375</AltitudeMeters>
            <DistanceMeters>NAN</DistanceMeters>
          </Trackpoint>
          <Trackpoint>
            <Time>2022-07-16T15:44:01.000Z</Time>
            <Position>
              <LatitudeDegrees>43.465393893420696258544921875</LatitudeDegrees>
              <LongitudeDegrees>-5.06692090071737766265869140625</LongitudeDegrees>
            </Position>
            <AltitudeMeters>10.3999996185302734375</AltitudeMeters>
            <DistanceMeters>NAN</DistanceMeters>
          </Trackpoint>
          <Trackpoint>
            <Time>2022-07-16T15:44:07.000Z</Time>
            <Position>
              <LatitudeDegrees>43.46537235192954540252685546875</LatitudeDegrees>
              <LongitudeDegrees>-5.06708870641887187957763671875</LongitudeDegrees>
            </Position>
            <AltitudeMeters>10.6000003814697265625</AltitudeMeters>
            <DistanceMeters>NAN</DistanceMeters>
          </Trackpoint>
          <Trackpoint>
            <Time>2022-07-16T15:44:15.000Z</Time>
            <Position>
              <LatitudeDegrees>43.46534284763038158416748046875</LatitudeDegrees>
              <LongitudeDegrees>-5.0674158520996570587158203125</LongitudeDegrees>
            </Position>
            <AltitudeMeters>10.6000003814697265625</AltitudeMeters>
            <DistanceMeters>NAN</DistanceMeters>
          </Trackpoint>
          <Trackpoint>
            <Time>2022-07-16T15:44:25.000Z</Time>
            <Position>
              <LatitudeDegrees>43.46530009992420673370361328125</LatitudeDegrees>
              <LongitudeDegrees>-5.06782547570765018463134765625</LongitudeDegrees>
            </Position>
            <AltitudeMeters>10.80000019073486328125</AltitudeMeters>
            <DistanceMeters>NAN</DistanceMeters>
          </Trackpoint>
          <Trackpoint>
            <Time>2022-07-16T15:44:32.000Z</Time>
            <Position>
              <LatitudeDegrees>43.46530663780868053436279296875</LatitudeDegrees>
              <LongitudeDegrees>-5.0680498592555522918701171875</LongitudeDegrees>
            </Position>
            <AltitudeMeters>10.80000019073486328125</AltitudeMeters>
            <DistanceMeters>NAN</DistanceMeters>
          </Trackpoint>
          <Trackpoint>
            <Time>2022-07-16T15:44:35.000Z</Time>
            <Position>
              <LatitudeDegrees>43.465306721627712249755859375</LatitudeDegrees>
              <LongitudeDegrees>-5.06805698387324810028076171875</LongitudeDegrees>
            </Position>
            <AltitudeMeters>10.6000003814697265625</AltitudeMeters>
            <DistanceMeters>NAN</DistanceMeters>
          </Trackpoint>
          <Trackpoint>
            <Time>2022-07-16T15:44:45.000Z</Time>
            <Position>
              <LatitudeDegrees>43.4653011895716190338134765625</LatitudeDegrees>
              <LongitudeDegrees>-5.06812538020312786102294921875</LongitudeDegrees>
            </Position>
            <AltitudeMeters>10.80000019073486328125</AltitudeMeters>
            <DistanceMeters>NAN</DistanceMeters>
          </Trackpoint>
          <Trackpoint>
            <Time>2022-07-16T15:44:52.000Z</Time>
            <Position>
              <LatitudeDegrees>43.4652683325111865997314453125</LatitudeDegrees>
              <LongitudeDegrees>-5.06837901659309864044189453125</LongitudeDegrees>
            </Position>
            <AltitudeMeters>11</AltitudeMeters>
            <DistanceMeters>NAN</DistanceMeters>
          </Trackpoint>
          <Trackpoint>
            <Time>2022-07-16T15:45:00.000Z</Time>
            <Position>
              <LatitudeDegrees>43.465270511806011199951171875</LatitudeDegrees>
              <LongitudeDegrees>-5.0686795078217983245849609375</LongitudeDegrees>
            </Position>
            <AltitudeMeters>11.19999980926513671875</AltitudeMeters>
            <DistanceMeters>NAN</DistanceMeters>
          </Trackpoint>
          <Trackpoint>
            <Time>2022-07-16T15:45:01.000Z</Time>
            <Position>
              <LatitudeDegrees>43.4652710147202014923095703125</LatitudeDegrees>
              <LongitudeDegrees>-5.06871798075735569000244140625</LongitudeDegrees>
            </Position>
            <AltitudeMeters>11.19999980926513671875</AltitudeMeters>
            <DistanceMeters>NAN</DistanceMeters>
          </Trackpoint>
          <Trackpoint>
            <Time>2022-07-16T15:45:07.000Z</Time>
            <Position>
              <LatitudeDegrees>43.4652763791382312774658203125</LatitudeDegrees>
              <LongitudeDegrees>-5.068984441459178924560546875</LongitudeDegrees>
            </Position>
            <AltitudeMeters>11.19999980926513671875</AltitudeMeters>
            <DistanceMeters>NAN</DistanceMeters>
          </Trackpoint>
          <Trackpoint>
            <Time>2022-07-16T15:45:09.000Z</Time>
            <Position>
              <LatitudeDegrees>43.4652850963175296783447265625</LatitudeDegrees>
              <LongitudeDegrees>-5.06905384361743927001953125</LongitudeDegrees>
            </Position>
            <AltitudeMeters>11.19999980926513671875</AltitudeMeters>
            <DistanceMeters>NAN</DistanceMeters>
          </Trackpoint>
          <Trackpoint>
            <Time>2022-07-16T15:45:17.000Z</Time>
            <Position>
              <LatitudeDegrees>43.465281240642070770263671875</LatitudeDegrees>
              <LongitudeDegrees>-5.06939875893294811248779296875</LongitudeDegrees>
            </Position>
            <AltitudeMeters>11.19999980926513671875</AltitudeMeters>
            <DistanceMeters>NAN</DistanceMeters>
          </Trackpoint>
          <Trackpoint>
            <Time>2022-07-16T15:45:28.000Z</Time>
            <Position>
              <LatitudeDegrees>43.46529322676360607147216796875</LatitudeDegrees>
              <LongitudeDegrees>-5.069842748343944549560546875</LongitudeDegrees>
            </Position>
            <AltitudeMeters>11.19999980926513671875</AltitudeMeters>
            <DistanceMeters>NAN</DistanceMeters>
          </Trackpoint>
          <Trackpoint>
            <Time>2022-07-16T15:45:32.000Z</Time>
            <Position>
              <LatitudeDegrees>43.4652964957058429718017578125</LatitudeDegrees>
              <LongitudeDegrees>-5.069997645914554595947265625</LongitudeDegrees>
            </Position>
            <AltitudeMeters>11.19999980926513671875</AltitudeMeters>
            <DistanceMeters>NAN</DistanceMeters>
          </Trackpoint>
          <Trackpoint>
            <Time>2022-07-16T15:45:37.000Z</Time>
            <Position>
              <LatitudeDegrees>43.465307056903839111328125</LatitudeDegrees>
              <LongitudeDegrees>-5.07017240859568119049072265625</LongitudeDegrees>
            </Position>
            <AltitudeMeters>11.19999980926513671875</AltitudeMeters>
            <DistanceMeters>NAN</DistanceMeters>
          </Trackpoint>
          <Trackpoint>
            <Time>2022-07-16T15:45:46.000Z</Time>
            <Position>
              <LatitudeDegrees>43.465316779911518096923828125</LatitudeDegrees>
              <LongitudeDegrees>-5.070487819612026214599609375</LongitudeDegrees>
            </Position>
            <AltitudeMeters>11.3999996185302734375</AltitudeMeters>
            <DistanceMeters>NAN</DistanceMeters>
          </Trackpoint>
          <Trackpoint>
            <Time>2022-07-16T15:45:50.000Z</Time>
            <Position>
              <LatitudeDegrees>43.465346954762935638427734375</LatitudeDegrees>
              <LongitudeDegrees>-5.0706262886524200439453125</LongitudeDegrees>
            </Position>
            <AltitudeMeters>11.3999996185302734375</AltitudeMeters>
            <DistanceMeters>NAN</DistanceMeters>
          </Trackpoint>
          <Trackpoint>
            <Time>2022-07-16T15:45:51.000Z</Time>
            <Position>
              <LatitudeDegrees>43.4653518162667751312255859375</LatitudeDegrees>
              <LongitudeDegrees>-5.070661492645740509033203125</LongitudeDegrees>
            </Position>
            <AltitudeMeters>11.3999996185302734375</AltitudeMeters>
            <DistanceMeters>NAN</DistanceMeters>
          </Trackpoint>
          <Trackpoint>
            <Time>2022-07-16T15:45:54.000Z</Time>
            <Position>
              <LatitudeDegrees>43.46537369303405284881591796875</LatitudeDegrees>
              <LongitudeDegrees>-5.070762746036052703857421875</LongitudeDegrees>
            </Position>
            <AltitudeMeters>11.3999996185302734375</AltitudeMeters>
            <DistanceMeters>NAN</DistanceMeters>
          </Trackpoint>
          <Trackpoint>
            <Time>2022-07-16T15:45:55.000Z</Time>
            <Position>
              <LatitudeDegrees>43.46538123674690723419189453125</LatitudeDegrees>
              <LongitudeDegrees>-5.07080172188580036163330078125</LongitudeDegrees>
            </Position>
            <AltitudeMeters>11.3999996185302734375</AltitudeMeters>
            <DistanceMeters>NAN</DistanceMeters>
          </Trackpoint>
          <Trackpoint>
            <Time>2022-07-16T15:46:01.000Z</Time>
            <Position>
              <LatitudeDegrees>43.46538274548947811126708984375</LatitudeDegrees>
              <LongitudeDegrees>-5.071039013564586639404296875</LongitudeDegrees>
            </Position>
            <AltitudeMeters>11.3999996185302734375</AltitudeMeters>
            <DistanceMeters>NAN</DistanceMeters>
          </Trackpoint>
          <Trackpoint>
            <Time>2022-07-16T15:46:08.000Z</Time>
            <Position>
              <LatitudeDegrees>43.465414345264434814453125</LatitudeDegrees>
              <LongitudeDegrees>-5.07131771184504032135009765625</LongitudeDegrees>
            </Position>
            <AltitudeMeters>11.3999996185302734375</AltitudeMeters>
            <DistanceMeters>NAN</DistanceMeters>
          </Trackpoint>
          <Trackpoint>
            <Time>2022-07-16T15:46:17.000Z</Time>
            <Position>
              <LatitudeDegrees>43.46546991728246212005615234375</LatitudeDegrees>
              <LongitudeDegrees>-5.07169204764068126678466796875</LongitudeDegrees>
            </Position>
            <AltitudeMeters>11.6000003814697265625</AltitudeMeters>
            <DistanceMeters>NAN</DistanceMeters>
          </Trackpoint>
          <Trackpoint>
            <Time>2022-07-16T15:46:23.000Z</Time>
            <Position>
              <LatitudeDegrees>43.4655254893004894256591796875</LatitudeDegrees>
              <LongitudeDegrees>-5.07188634015619754791259765625</LongitudeDegrees>
            </Position>
            <AltitudeMeters>11.6000003814697265625</AltitudeMeters>
            <DistanceMeters>NAN</DistanceMeters>
          </Trackpoint>
          <Trackpoint>
            <Time>2022-07-16T15:46:27.000Z</Time>
            <Position>
              <LatitudeDegrees>43.46557594835758209228515625</LatitudeDegrees>
              <LongitudeDegrees>-5.07199396379292011260986328125</LongitudeDegrees>
            </Position>
            <AltitudeMeters>11.6000003814697265625</AltitudeMeters>
            <DistanceMeters>NAN</DistanceMeters>
          </Trackpoint>
          <Trackpoint>
            <Time>2022-07-16T15:46:33.000Z</Time>
            <Position>
              <LatitudeDegrees>43.46559799276292324066162109375</LatitudeDegrees>
              <LongitudeDegrees>-5.07217886857688426971435546875</LongitudeDegrees>
            </Position>
            <AltitudeMeters>11.80000019073486328125</AltitudeMeters>
            <DistanceMeters>NAN</DistanceMeters>
          </Trackpoint>
          <Trackpoint>
            <Time>2022-07-16T15:46:36.000Z</Time>
            <Position>
              <LatitudeDegrees>43.46562414430081844329833984375</LatitudeDegrees>
              <LongitudeDegrees>-5.07228716276586055755615234375</LongitudeDegrees>
            </Position>
            <AltitudeMeters>12</AltitudeMeters>
            <DistanceMeters>NAN</DistanceMeters>
          </Trackpoint>
          <Trackpoint>
            <Time>2022-07-16T15:46:40.000Z</Time>
            <Position>
              <LatitudeDegrees>43.465666472911834716796875</LatitudeDegrees>
              <LongitudeDegrees>-5.07244423963129520416259765625</LongitudeDegrees>
            </Position>
            <AltitudeMeters>12.19999980926513671875</AltitudeMeters>
            <DistanceMeters>NAN</DistanceMeters>
          </Trackpoint>
          <Trackpoint>
            <Time>2022-07-16T15:46:43.000Z</Time>
            <Position>
              <LatitudeDegrees>43.46569505520164966583251953125</LatitudeDegrees>
              <LongitudeDegrees>-5.07256158627569675445556640625</LongitudeDegrees>
            </Position>
            <AltitudeMeters>12.19999980926513671875</AltitudeMeters>
            <DistanceMeters>NAN</DistanceMeters>
          </Trackpoint>
          <Trackpoint>
            <Time>2022-07-16T15:46:52.000Z</Time>
            <Position>
              <LatitudeDegrees>43.46579832024872303009033203125</LatitudeDegrees>
              <LongitudeDegrees>-5.0729334913194179534912109375</LongitudeDegrees>
            </Position>
            <AltitudeMeters>12</AltitudeMeters>
            <DistanceMeters>NAN</DistanceMeters>
          </Trackpoint>
          <Trackpoint>
            <Time>2022-07-16T15:47:02.000Z</Time>
            <Position>
              <LatitudeDegrees>43.4659056924283504486083984375</LatitudeDegrees>
              <LongitudeDegrees>-5.07338133640587329864501953125</LongitudeDegrees>
            </Position>
            <AltitudeMeters>12.19999980926513671875</AltitudeMeters>
            <DistanceMeters>NAN</DistanceMeters>
          </Trackpoint>
          <Trackpoint>
            <Time>2022-07-16T15:47:08.000Z</Time>
            <Position>
              <LatitudeDegrees>43.46596696414053440093994140625</LatitudeDegrees>
              <LongitudeDegrees>-5.07362122647464275360107421875</LongitudeDegrees>
            </Position>
            <AltitudeMeters>12.19999980926513671875</AltitudeMeters>
            <DistanceMeters>NAN</DistanceMeters>
          </Trackpoint>
          <Trackpoint>
            <Time>2022-07-16T15:47:10.000Z</Time>
            <Position>
              <LatitudeDegrees>43.465990014374256134033203125</LatitudeDegrees>
              <LongitudeDegrees>-5.07369783706963062286376953125</LongitudeDegrees>
            </Position>
            <AltitudeMeters>12.19999980926513671875</AltitudeMeters>
            <DistanceMeters>NAN</DistanceMeters>
          </Trackpoint>
          <Trackpoint>
            <Time>2022-07-16T15:47:22.000Z</Time>
            <Position>
              <LatitudeDegrees>43.46614600159227848052978515625</LatitudeDegrees>
              <LongitudeDegrees>-5.07417158223688602447509765625</LongitudeDegrees>
            </Position>
            <AltitudeMeters>12.3999996185302734375</AltitudeMeters>
            <DistanceMeters>NAN</DistanceMeters>
          </Trackpoint>
          <Trackpoint>
            <Time>2022-07-16T15:47:27.000Z</Time>
            <Position>
              <LatitudeDegrees>43.46619796939194202423095703125</LatitudeDegrees>
              <LongitudeDegrees>-5.0743667967617511749267578125</LongitudeDegrees>
            </Position>
            <AltitudeMeters>12.19999980926513671875</AltitudeMeters>
            <DistanceMeters>NAN</DistanceMeters>
          </Trackpoint>
          <Trackpoint>
            <Time>2022-07-16T15:47:29.000Z</Time>
            <Position>
              <LatitudeDegrees>43.46622730605304241180419921875</LatitudeDegrees>
              <LongitudeDegrees>-5.0744422338902950286865234375</LongitudeDegrees>
            </Position>
            <AltitudeMeters>12.3999996185302734375</AltitudeMeters>
            <DistanceMeters>NAN</DistanceMeters>
          </Trackpoint>
          <Trackpoint>
            <Time>2022-07-16T15:47:31.000Z</Time>
            <Position>
              <LatitudeDegrees>43.46627038903534412384033203125</LatitudeDegrees>
              <LongitudeDegrees>-5.0745072774589061737060546875</LongitudeDegrees>
            </Position>
            <AltitudeMeters>12.6000003814697265625</AltitudeMeters>
            <DistanceMeters>NAN</DistanceMeters>
          </Trackpoint>
          <Trackpoint>
            <Time>2022-07-16T15:47:38.000Z</Time>
            <Position>
              <LatitudeDegrees>43.46638438291847705841064453125</LatitudeDegrees>
              <LongitudeDegrees>-5.0747501850128173828125</LongitudeDegrees>
            </Position>
            <AltitudeMeters>12.3999996185302734375</AltitudeMeters>
            <DistanceMeters>NAN</DistanceMeters>
          </Trackpoint>
          <Trackpoint>
            <Time>2022-07-16T15:47:44.000Z</Time>
            <Position>
              <LatitudeDegrees>43.46646149642765522003173828125</LatitudeDegrees>
              <LongitudeDegrees>-5.07493366487324237823486328125</LongitudeDegrees>
            </Position>
            <AltitudeMeters>12.3999996185302734375</AltitudeMeters>
            <DistanceMeters>NAN</DistanceMeters>
          </Trackpoint>
          <Trackpoint>
            <Time>2022-07-16T15:47:47.000Z</Time>
            <Position>
              <LatitudeDegrees>43.4664934314787387847900390625</LatitudeDegrees>
              <LongitudeDegrees>-5.07499719969928264617919921875</LongitudeDegrees>
            </Position>
            <AltitudeMeters>12.3999996185302734375</AltitudeMeters>
            <DistanceMeters>NAN</DistanceMeters>
          </Trackpoint>
          <Trackpoint>
            <Time>2022-07-16T15:47:48.000Z</Time>
            <Position>
              <LatitudeDegrees>43.4665085189044475555419921875</LatitudeDegrees>
              <LongitudeDegrees>-5.07500641979277133941650390625</LongitudeDegrees>
            </Position>
            <AltitudeMeters>12.3999996185302734375</AltitudeMeters>
            <DistanceMeters>NAN</DistanceMeters>
          </Trackpoint>
          <Trackpoint>
            <Time>2022-07-16T15:47:52.000Z</Time>
            <Position>
              <LatitudeDegrees>43.46655688248574733734130859375</LatitudeDegrees>
              <LongitudeDegrees>-5.07505419664084911346435546875</LongitudeDegrees>
            </Position>
            <AltitudeMeters>12.3999996185302734375</AltitudeMeters>
            <DistanceMeters>NAN</DistanceMeters>
          </Trackpoint>
          <Trackpoint>
            <Time>2022-07-16T15:47:53.000Z</Time>
            <Position>
              <LatitudeDegrees>43.4665638394653797149658203125</LatitudeDegrees>
              <LongitudeDegrees>-5.07506626658141613006591796875</LongitudeDegrees>
            </Position>
            <AltitudeMeters>12.3999996185302734375</AltitudeMeters>
            <DistanceMeters>NAN</DistanceMeters>
          </Trackpoint>
          <Trackpoint>
            <Time>2022-07-16T15:47:56.000Z</Time>
            <Position>
              <LatitudeDegrees>43.46655319444835186004638671875</LatitudeDegrees>
              <LongitudeDegrees>-5.0750765763223171234130859375</LongitudeDegrees>
            </Position>
            <AltitudeMeters>12.19999980926513671875</AltitudeMeters>
            <DistanceMeters>NAN</DistanceMeters>
          </Trackpoint>
          <Trackpoint>
            <Time>2022-07-16T15:47:58.000Z</Time>
            <Position>
              <LatitudeDegrees>43.4665333293378353118896484375</LatitudeDegrees>
              <LongitudeDegrees>-5.075067020952701568603515625</LongitudeDegrees>
            </Position>
            <AltitudeMeters>12.19999980926513671875</AltitudeMeters>
            <DistanceMeters>NAN</DistanceMeters>
          </Trackpoint>
          <Trackpoint>
            <Time>2022-07-16T15:48:03.000Z</Time>
            <Position>
              <LatitudeDegrees>43.466474153101444244384765625</LatitudeDegrees>
              <LongitudeDegrees>-5.07502402178943157196044921875</LongitudeDegrees>
            </Position>
            <AltitudeMeters>12.3999996185302734375</AltitudeMeters>
            <DistanceMeters>NAN</DistanceMeters>
          </Trackpoint>
          <Trackpoint>
            <Time>2022-07-16T15:48:08.000Z</Time>
            <Position>
              <LatitudeDegrees>43.466405756771564483642578125</LatitudeDegrees>
              <LongitudeDegrees>-5.07505352608859539031982421875</LongitudeDegrees>
            </Position>
            <AltitudeMeters>12.6000003814697265625</AltitudeMeters>
            <DistanceMeters>NAN</DistanceMeters>
          </Trackpoint>
          <Trackpoint>
            <Time>2022-07-16T15:48:10.000Z</Time>
            <Position>
              <LatitudeDegrees>43.466405756771564483642578125</LatitudeDegrees>
              <LongitudeDegrees>-5.07505352608859539031982421875</LongitudeDegrees>
            </Position>
            <AltitudeMeters>12.6000003814697265625</AltitudeMeters>
            <DistanceMeters>NAN</DistanceMeters>
          </Trackpoint>
          <Trackpoint>
            <Time>2022-07-16T15:48:25.000Z</Time>
            <Position>
              <LatitudeDegrees>43.4664991311728954315185546875</LatitudeDegrees>
              <LongitudeDegrees>-5.07503575645387172698974609375</LongitudeDegrees>
            </Position>
            <AltitudeMeters>12.6000003814697265625</AltitudeMeters>
            <DistanceMeters>NAN</DistanceMeters>
          </Trackpoint>
          <Trackpoint>
            <Time>2022-07-16T15:48:26.000Z</Time>
            <Position>
              <LatitudeDegrees>43.466519080102443695068359375</LatitudeDegrees>
              <LongitudeDegrees>-5.0750480778515338897705078125</LongitudeDegrees>
            </Position>
            <AltitudeMeters>12.6000003814697265625</AltitudeMeters>
            <DistanceMeters>NAN</DistanceMeters>
          </Trackpoint>
          <Trackpoint>
            <Time>2022-07-16T15:48:31.000Z</Time>
            <Position>
              <LatitudeDegrees>43.46662477590143680572509765625</LatitudeDegrees>
              <LongitudeDegrees>-5.0751955993473529815673828125</LongitudeDegrees>
            </Position>
            <AltitudeMeters>12.80000019073486328125</AltitudeMeters>
            <DistanceMeters>NAN</DistanceMeters>
          </Trackpoint>
          <Trackpoint>
            <Time>2022-07-16T15:48:38.000Z</Time>
            <Position>
              <LatitudeDegrees>43.46676978282630443572998046875</LatitudeDegrees>
              <LongitudeDegrees>-5.07543473504483699798583984375</LongitudeDegrees>
            </Position>
            <AltitudeMeters>12.80000019073486328125</AltitudeMeters>
            <DistanceMeters>NAN</DistanceMeters>
          </Trackpoint>
          <Trackpoint>
            <Time>2022-07-16T15:48:39.000Z</Time>
            <Position>
              <LatitudeDegrees>43.4667888097465038299560546875</LatitudeDegrees>
              <LongitudeDegrees>-5.07546658627688884735107421875</LongitudeDegrees>
            </Position>
            <AltitudeMeters>12.80000019073486328125</AltitudeMeters>
            <DistanceMeters>NAN</DistanceMeters>
          </Trackpoint>
          <Trackpoint>
            <Time>2022-07-16T15:48:42.000Z</Time>
            <Position>
              <LatitudeDegrees>43.46684069372713565826416015625</LatitudeDegrees>
              <LongitudeDegrees>-5.07556800730526447296142578125</LongitudeDegrees>
            </Position>
            <AltitudeMeters>12.6000003814697265625</AltitudeMeters>
            <DistanceMeters>NAN</DistanceMeters>
          </Trackpoint>
          <Trackpoint>
            <Time>2022-07-16T15:48:45.000Z</Time>
            <Position>
              <LatitudeDegrees>43.4668994508683681488037109375</LatitudeDegrees>
              <LongitudeDegrees>-5.0756700150668621063232421875</LongitudeDegrees>
            </Position>
            <AltitudeMeters>12.6000003814697265625</AltitudeMeters>
            <DistanceMeters>NAN</DistanceMeters>
          </Trackpoint>
          <Trackpoint>
            <Time>2022-07-16T15:48:52.000Z</Time>
            <Position>
              <LatitudeDegrees>43.46705057658255100250244140625</LatitudeDegrees>
              <LongitudeDegrees>-5.07588182576000690460205078125</LongitudeDegrees>
            </Position>
            <AltitudeMeters>12.3999996185302734375</AltitudeMeters>
            <DistanceMeters>NAN</DistanceMeters>
          </Trackpoint>
          <Trackpoint>
            <Time>2022-07-16T15:48:55.000Z</Time>
            <Position>
              <LatitudeDegrees>43.467129282653331756591796875</LatitudeDegrees>
              <LongitudeDegrees>-5.07592834532260894775390625</LongitudeDegrees>
            </Position>
            <AltitudeMeters>12.80000019073486328125</AltitudeMeters>
            <DistanceMeters>NAN</DistanceMeters>
          </Trackpoint>
          <Trackpoint>
            <Time>2022-07-16T15:49:00.000Z</Time>
            <Position>
              <LatitudeDegrees>43.46723967231810092926025390625</LatitudeDegrees>
              <LongitudeDegrees>-5.07604233920574188232421875</LongitudeDegrees>
            </Position>
            <AltitudeMeters>12.80000019073486328125</AltitudeMeters>
            <DistanceMeters>NAN</DistanceMeters>
          </Trackpoint>
          <Trackpoint>
            <Time>2022-07-16T15:49:02.000Z</Time>
            <Position>
              <LatitudeDegrees>43.46728141419589519500732421875</LatitudeDegrees>
              <LongitudeDegrees>-5.0760783813893795013427734375</LongitudeDegrees>
            </Position>
            <AltitudeMeters>12.6000003814697265625</AltitudeMeters>
            <DistanceMeters>NAN</DistanceMeters>
          </Trackpoint>
          <Trackpoint>
            <Time>2022-07-16T15:49:06.000Z</Time>
            <Position>
              <LatitudeDegrees>43.46734377555549144744873046875</LatitudeDegrees>
              <LongitudeDegrees>-5.076153986155986785888671875</LongitudeDegrees>
            </Position>
            <AltitudeMeters>12.80000019073486328125</AltitudeMeters>
            <DistanceMeters>NAN</DistanceMeters>
          </Trackpoint>
          <Trackpoint>
            <Time>2022-07-16T15:49:16.000Z</Time>
            <Position>
              <LatitudeDegrees>43.46749632619321346282958984375</LatitudeDegrees>
              <LongitudeDegrees>-5.07635205052793025970458984375</LongitudeDegrees>
            </Position>
            <AltitudeMeters>12.80000019073486328125</AltitudeMeters>
            <DistanceMeters>NAN</DistanceMeters>
          </Trackpoint>
          <Trackpoint>
            <Time>2022-07-16T15:49:22.000Z</Time>
            <Position>
              <LatitudeDegrees>43.46754041500389575958251953125</LatitudeDegrees>
              <LongitudeDegrees>-5.0764713250100612640380859375</LongitudeDegrees>
            </Position>
            <AltitudeMeters>12.80000019073486328125</AltitudeMeters>
            <DistanceMeters>NAN</DistanceMeters>
          </Trackpoint>
          <Trackpoint>
            <Time>2022-07-16T15:49:23.000Z</Time>
            <Position>
              <LatitudeDegrees>43.46754209138453006744384765625</LatitudeDegrees>
              <LongitudeDegrees>-5.0764803774654865264892578125</LongitudeDegrees>
            </Position>
            <AltitudeMeters>12.80000019073486328125</AltitudeMeters>
            <DistanceMeters>NAN</DistanceMeters>
          </Trackpoint>
          <Trackpoint>
            <Time>2022-07-16T15:49:25.000Z</Time>
            <Position>
              <LatitudeDegrees>43.46753002144396305084228515625</LatitudeDegrees>
              <LongitudeDegrees>-5.076499991118907928466796875</LongitudeDegrees>
            </Position>
            <AltitudeMeters>12.80000019073486328125</AltitudeMeters>
            <DistanceMeters>NAN</DistanceMeters>
          </Trackpoint>
          <Trackpoint>
            <Time>2022-07-16T15:49:28.000Z</Time>
            <Position>
              <LatitudeDegrees>43.467527590692043304443359375</LatitudeDegrees>
              <LongitudeDegrees>-5.07650292478501796722412109375</LongitudeDegrees>
            </Position>
            <AltitudeMeters>12.6000003814697265625</AltitudeMeters>
            <DistanceMeters>NAN</DistanceMeters>
          </Trackpoint>
          <Trackpoint>
            <Time>2022-07-16T15:50:39.000Z</Time>
            <Position>
              <LatitudeDegrees>43.4674576856195926666259765625</LatitudeDegrees>
              <LongitudeDegrees>-5.07638121955096721649169921875</LongitudeDegrees>
            </Position>
            <AltitudeMeters>11.3999996185302734375</AltitudeMeters>
            <DistanceMeters>NAN</DistanceMeters>
          </Trackpoint>
          <Trackpoint>
            <Time>2022-07-16T15:50:40.000Z</Time>
            <Position>
              <LatitudeDegrees>43.4674608707427978515625</LatitudeDegrees>
              <LongitudeDegrees>-5.07637937553226947784423828125</LongitudeDegrees>
            </Position>
            <AltitudeMeters>11.19999980926513671875</AltitudeMeters>
            <DistanceMeters>NAN</DistanceMeters>
          </Trackpoint>
          <Trackpoint>
            <Time>2022-07-16T15:50:41.000Z</Time>
            <Position>
              <LatitudeDegrees>43.46746967174112796783447265625</LatitudeDegrees>
              <LongitudeDegrees>-5.07639144547283649444580078125</LongitudeDegrees>
            </Position>
            <AltitudeMeters>11</AltitudeMeters>
            <DistanceMeters>NAN</DistanceMeters>
          </Trackpoint>
          <Trackpoint>
            <Time>2022-07-16T15:50:44.000Z</Time>
            <Position>
              <LatitudeDegrees>43.46747822128236293792724609375</LatitudeDegrees>
              <LongitudeDegrees>-5.076411478221416473388671875</LongitudeDegrees>
            </Position>
            <AltitudeMeters>11</AltitudeMeters>
            <DistanceMeters>NAN</DistanceMeters>
          </Trackpoint>
          <Trackpoint>
            <Time>2022-07-16T15:50:48.000Z</Time>
            <Position>
              <LatitudeDegrees>43.467537648975849151611328125</LatitudeDegrees>
              <LongitudeDegrees>-5.076440982520580291748046875</LongitudeDegrees>
            </Position>
            <AltitudeMeters>11.3999996185302734375</AltitudeMeters>
            <DistanceMeters>NAN</DistanceMeters>
          </Trackpoint>
          <Trackpoint>
            <Time>2022-07-16T15:50:52.000Z</Time>
            <Position>
              <LatitudeDegrees>43.46753756515681743621826171875</LatitudeDegrees>
              <LongitudeDegrees>-5.076440982520580291748046875</LongitudeDegrees>
            </Position>
            <AltitudeMeters>11.80000019073486328125</AltitudeMeters>
            <DistanceMeters>NAN</DistanceMeters>
          </Trackpoint>
          <Trackpoint>
            <Time>2022-07-16T15:51:20.000Z</Time>
            <Position>
              <LatitudeDegrees>43.4674285165965557098388671875</LatitudeDegrees>
              <LongitudeDegrees>-5.07650963030755519866943359375</LongitudeDegrees>
            </Position>
            <AltitudeMeters>11.3999996185302734375</AltitudeMeters>
            <DistanceMeters>NAN</DistanceMeters>
          </Trackpoint>
          <Trackpoint>
            <Time>2022-07-16T15:51:21.000Z</Time>
            <Position>
              <LatitudeDegrees>43.46742792986333370208740234375</LatitudeDegrees>
              <LongitudeDegrees>-5.076507367193698883056640625</LongitudeDegrees>
            </Position>
            <AltitudeMeters>11.3999996185302734375</AltitudeMeters>
            <DistanceMeters>NAN</DistanceMeters>
          </Trackpoint>
          <Trackpoint>
            <Time>2022-07-16T15:51:23.000Z</Time>
            <Position>
              <LatitudeDegrees>43.46742792986333370208740234375</LatitudeDegrees>
              <LongitudeDegrees>-5.076507367193698883056640625</LongitudeDegrees>
            </Position>
            <AltitudeMeters>11.3999996185302734375</AltitudeMeters>
            <DistanceMeters>NAN</DistanceMeters>
          </Trackpoint>
          <Trackpoint>
            <Time>2022-07-16T15:51:25.000Z</Time>
            <Position>
              <LatitudeDegrees>43.46744117327034473419189453125</LatitudeDegrees>
              <LongitudeDegrees>-5.07651683874428272247314453125</LongitudeDegrees>
            </Position>
            <AltitudeMeters>11.3999996185302734375</AltitudeMeters>
            <DistanceMeters>NAN</DistanceMeters>
          </Trackpoint>
          <Trackpoint>
            <Time>2022-07-16T15:51:26.000Z</Time>
            <Position>
              <LatitudeDegrees>43.46744117327034473419189453125</LatitudeDegrees>
              <LongitudeDegrees>-5.07651683874428272247314453125</LongitudeDegrees>
            </Position>
            <AltitudeMeters>11.19999980926513671875</AltitudeMeters>
            <DistanceMeters>NAN</DistanceMeters>
          </Trackpoint>
          <Trackpoint>
            <Time>2022-07-16T15:51:27.000Z</Time>
            <Position>
              <LatitudeDegrees>43.46744117327034473419189453125</LatitudeDegrees>
              <LongitudeDegrees>-5.07651683874428272247314453125</LongitudeDegrees>
            </Position>
            <AltitudeMeters>11.19999980926513671875</AltitudeMeters>
            <DistanceMeters>NAN</DistanceMeters>
          </Trackpoint>
          <Trackpoint>
            <Time>2022-07-16T15:51:31.000Z</Time>
            <Position>
              <LatitudeDegrees>43.4674721024930477142333984375</LatitudeDegrees>
              <LongitudeDegrees>-5.07651499472558498382568359375</LongitudeDegrees>
            </Position>
            <AltitudeMeters>10.80000019073486328125</AltitudeMeters>
            <DistanceMeters>NAN</DistanceMeters>
          </Trackpoint>
          <Trackpoint>
            <Time>2022-07-16T15:51:34.000Z</Time>
            <Position>
              <LatitudeDegrees>43.46755675971508026123046875</LatitudeDegrees>
              <LongitudeDegrees>-5.07650175131857395172119140625</LongitudeDegrees>
            </Position>
            <AltitudeMeters>10.6000003814697265625</AltitudeMeters>
            <DistanceMeters>NAN</DistanceMeters>
          </Trackpoint>
          <Trackpoint>
            <Time>2022-07-16T15:51:35.000Z</Time>
            <Position>
              <LatitudeDegrees>43.46759674139320850372314453125</LatitudeDegrees>
              <LongitudeDegrees>-5.076466463506221771240234375</LongitudeDegrees>
            </Position>
            <AltitudeMeters>10.6000003814697265625</AltitudeMeters>
            <DistanceMeters>NAN</DistanceMeters>
          </Trackpoint>
          <Trackpoint>
            <Time>2022-07-16T15:51:38.000Z</Time>
            <Position>
              <LatitudeDegrees>43.467630185186862945556640625</LatitudeDegrees>
              <LongitudeDegrees>-5.07646420039236545562744140625</LongitudeDegrees>
            </Position>
            <AltitudeMeters>10.6000003814697265625</AltitudeMeters>
            <DistanceMeters>NAN</DistanceMeters>
          </Trackpoint>
          <Trackpoint>
            <Time>2022-07-16T15:51:44.000Z</Time>
            <Position>
              <LatitudeDegrees>43.46764787100255489349365234375</LatitudeDegrees>
              <LongitudeDegrees>-5.07643796503543853759765625</LongitudeDegrees>
            </Position>
            <AltitudeMeters>10.80000019073486328125</AltitudeMeters>
            <DistanceMeters>NAN</DistanceMeters>
          </Trackpoint>
          <Trackpoint>
            <Time>2022-07-16T15:51:46.000Z</Time>
            <Position>
              <LatitudeDegrees>43.4676323644816875457763671875</LatitudeDegrees>
              <LongitudeDegrees>-5.07646973244845867156982421875</LongitudeDegrees>
            </Position>
            <AltitudeMeters>10.80000019073486328125</AltitudeMeters>
            <DistanceMeters>NAN</DistanceMeters>
          </Trackpoint>
          <Trackpoint>
            <Time>2022-07-16T15:51:49.000Z</Time>
            <Position>
              <LatitudeDegrees>43.46757980994880199432373046875</LatitudeDegrees>
              <LongitudeDegrees>-5.07647057063877582550048828125</LongitudeDegrees>
            </Position>
            <AltitudeMeters>10.80000019073486328125</AltitudeMeters>
            <DistanceMeters>NAN</DistanceMeters>
          </Trackpoint>
          <Trackpoint>
            <Time>2022-07-16T15:51:54.000Z</Time>
            <Position>
              <LatitudeDegrees>43.46753890626132488250732421875</LatitudeDegrees>
              <LongitudeDegrees>-5.0764548964798450469970703125</LongitudeDegrees>
            </Position>
            <AltitudeMeters>10.80000019073486328125</AltitudeMeters>
            <DistanceMeters>NAN</DistanceMeters>
          </Trackpoint>
          <Trackpoint>
            <Time>2022-07-16T15:51:56.000Z</Time>
            <Position>
              <LatitudeDegrees>43.46755634061992168426513671875</LatitudeDegrees>
              <LongitudeDegrees>-5.07648289203643798828125</LongitudeDegrees>
            </Position>
            <AltitudeMeters>10.80000019073486328125</AltitudeMeters>
            <DistanceMeters>NAN</DistanceMeters>
          </Trackpoint>
          <Trackpoint>
            <Time>2022-07-16T15:51:58.000Z</Time>
            <Position>
              <LatitudeDegrees>43.4675277583301067352294921875</LatitudeDegrees>
              <LongitudeDegrees>-5.076494626700878143310546875</LongitudeDegrees>
            </Position>
            <AltitudeMeters>10.80000019073486328125</AltitudeMeters>
            <DistanceMeters>NAN</DistanceMeters>
          </Trackpoint>
          <Trackpoint>
            <Time>2022-07-16T15:51:59.000Z</Time>
            <Position>
              <LatitudeDegrees>43.46750822849571704864501953125</LatitudeDegrees>
              <LongitudeDegrees>-5.07649563252925872802734375</LongitudeDegrees>
            </Position>
            <AltitudeMeters>10.6000003814697265625</AltitudeMeters>
            <DistanceMeters>NAN</DistanceMeters>
          </Trackpoint>
          <Trackpoint>
            <Time>2022-07-16T15:52:00.000Z</Time>
            <Position>
              <LatitudeDegrees>43.46750705502927303314208984375</LatitudeDegrees>
              <LongitudeDegrees>-5.0765085406601428985595703125</LongitudeDegrees>
            </Position>
            <AltitudeMeters>10.6000003814697265625</AltitudeMeters>
            <DistanceMeters>NAN</DistanceMeters>
          </Trackpoint>
          <Trackpoint>
            <Time>2022-07-16T15:52:03.000Z</Time>
            <Position>
              <LatitudeDegrees>43.46747805364429950714111328125</LatitudeDegrees>
              <LongitudeDegrees>-5.07650828920304775238037109375</LongitudeDegrees>
            </Position>
            <AltitudeMeters>10.3999996185302734375</AltitudeMeters>
            <DistanceMeters>NAN</DistanceMeters>
          </Trackpoint>
          <Trackpoint>
            <Time>2022-07-16T15:52:04.000Z</Time>
            <Position>
              <LatitudeDegrees>43.46746615134179592132568359375</LatitudeDegrees>
              <LongitudeDegrees>-5.076502002775669097900390625</LongitudeDegrees>
            </Position>
            <AltitudeMeters>10.3999996185302734375</AltitudeMeters>
            <DistanceMeters>NAN</DistanceMeters>
          </Trackpoint>
          <Trackpoint>
            <Time>2022-07-16T15:52:06.000Z</Time>
            <Position>
              <LatitudeDegrees>43.46746061928570270538330078125</LatitudeDegrees>
              <LongitudeDegrees>-5.076496638357639312744140625</LongitudeDegrees>
            </Position>
            <AltitudeMeters>10.3999996185302734375</AltitudeMeters>
            <DistanceMeters>NAN</DistanceMeters>
          </Trackpoint>
          <Trackpoint>
            <Time>2022-07-16T15:52:08.000Z</Time>
            <Position>
              <LatitudeDegrees>43.46744100563228130340576171875</LatitudeDegrees>
              <LongitudeDegrees>-5.076518766582012176513671875</LongitudeDegrees>
            </Position>
            <AltitudeMeters>10.3999996185302734375</AltitudeMeters>
            <DistanceMeters>NAN</DistanceMeters>
          </Trackpoint>
          <Trackpoint>
            <Time>2022-07-16T15:52:10.000Z</Time>
            <Position>
              <LatitudeDegrees>43.46737395040690898895263671875</LatitudeDegrees>
              <LongitudeDegrees>-5.0765440799295902252197265625</LongitudeDegrees>
            </Position>
            <AltitudeMeters>10.3999996185302734375</AltitudeMeters>
            <DistanceMeters>NAN</DistanceMeters>
          </Trackpoint>
          <Trackpoint>
            <Time>2022-07-16T15:52:11.000Z</Time>
            <Position>
              <LatitudeDegrees>43.4673738665878772735595703125</LatitudeDegrees>
              <LongitudeDegrees>-5.07653561420738697052001953125</LongitudeDegrees>
            </Position>
            <AltitudeMeters>10.3999996185302734375</AltitudeMeters>
            <DistanceMeters>NAN</DistanceMeters>
          </Trackpoint>
          <Trackpoint>
            <Time>2022-07-16T15:52:14.000Z</Time>
            <Position>
              <LatitudeDegrees>43.46739046275615692138671875</LatitudeDegrees>
              <LongitudeDegrees>-5.07650409825146198272705078125</LongitudeDegrees>
            </Position>
            <AltitudeMeters>10.3999996185302734375</AltitudeMeters>
            <DistanceMeters>NAN</DistanceMeters>
          </Trackpoint>
          <Trackpoint>
            <Time>2022-07-16T15:52:15.000Z</Time>
            <Position>
              <LatitudeDegrees>43.46738912165164947509765625</LatitudeDegrees>
              <LongitudeDegrees>-5.07650845684111118316650390625</LongitudeDegrees>
            </Position>
            <AltitudeMeters>10.3999996185302734375</AltitudeMeters>
            <DistanceMeters>NAN</DistanceMeters>
          </Trackpoint>
          <Trackpoint>
            <Time>2022-07-16T15:52:16.000Z</Time>
            <Position>
              <LatitudeDegrees>43.467383086681365966796875</LatitudeDegrees>
              <LongitudeDegrees>-5.07652170024812221527099609375</LongitudeDegrees>
            </Position>
            <AltitudeMeters>10.3999996185302734375</AltitudeMeters>
            <DistanceMeters>NAN</DistanceMeters>
          </Trackpoint>
          <Trackpoint>
            <Time>2022-07-16T15:52:18.000Z</Time>
            <Position>
              <LatitudeDegrees>43.46735970117151737213134765625</LatitudeDegrees>
              <LongitudeDegrees>-5.07648197002708911895751953125</LongitudeDegrees>
            </Position>
            <AltitudeMeters>10.3999996185302734375</AltitudeMeters>
            <DistanceMeters>NAN</DistanceMeters>
          </Trackpoint>
          <Trackpoint>
            <Time>2022-07-16T15:52:20.000Z</Time>
            <Position>
              <LatitudeDegrees>43.46739574335515499114990234375</LatitudeDegrees>
              <LongitudeDegrees>-5.0765028409659862518310546875</LongitudeDegrees>
            </Position>
            <AltitudeMeters>10.3999996185302734375</AltitudeMeters>
            <DistanceMeters>NAN</DistanceMeters>
          </Trackpoint>
          <Trackpoint>
            <Time>2022-07-16T15:52:21.000Z</Time>
            <Position>
              <LatitudeDegrees>43.4673778899013996124267578125</LatitudeDegrees>
              <LongitudeDegrees>-5.0765638612210750579833984375</LongitudeDegrees>
            </Position>
            <AltitudeMeters>10.3999996185302734375</AltitudeMeters>
            <DistanceMeters>NAN</DistanceMeters>
          </Trackpoint>
          <Trackpoint>
            <Time>2022-07-16T15:52:23.000Z</Time>
            <Position>
              <LatitudeDegrees>43.46740144304931163787841796875</LatitudeDegrees>
              <LongitudeDegrees>-5.076549947261810302734375</LongitudeDegrees>
            </Position>
            <AltitudeMeters>10.3999996185302734375</AltitudeMeters>
            <DistanceMeters>NAN</DistanceMeters>
          </Trackpoint>
          <Trackpoint>
            <Time>2022-07-16T15:52:26.000Z</Time>
            <Position>
              <LatitudeDegrees>43.46739239059388637542724609375</LatitudeDegrees>
              <LongitudeDegrees>-5.07653494365513324737548828125</LongitudeDegrees>
            </Position>
            <AltitudeMeters>10.3999996185302734375</AltitudeMeters>
            <DistanceMeters>NAN</DistanceMeters>
          </Trackpoint>
          <Trackpoint>
            <Time>2022-07-16T15:52:27.000Z</Time>
            <Position>
              <LatitudeDegrees>43.467403538525104522705078125</LatitudeDegrees>
              <LongitudeDegrees>-5.07653980515897274017333984375</LongitudeDegrees>
            </Position>
            <AltitudeMeters>10.3999996185302734375</AltitudeMeters>
            <DistanceMeters>NAN</DistanceMeters>
          </Trackpoint>
          <Trackpoint>
            <Time>2022-07-16T15:52:29.000Z</Time>
            <Position>
              <LatitudeDegrees>43.46746682189404964447021484375</LatitudeDegrees>
              <LongitudeDegrees>-5.0766478478908538818359375</LongitudeDegrees>
            </Position>
            <AltitudeMeters>10.3999996185302734375</AltitudeMeters>
            <DistanceMeters>NAN</DistanceMeters>
          </Trackpoint>
          <Trackpoint>
            <Time>2022-07-16T15:52:30.000Z</Time>
            <Position>
              <LatitudeDegrees>43.46752013079822063446044921875</LatitudeDegrees>
              <LongitudeDegrees>-5.07669855840504169464111328125</LongitudeDegrees>
            </Position>
            <AltitudeMeters>10.3999996185302734375</AltitudeMeters>
            <DistanceMeters>NAN</DistanceMeters>
          </Trackpoint>
          <Trackpoint>
            <Time>2022-07-16T15:52:31.000Z</Time>
            <Position>
              <LatitudeDegrees>43.46754745580255985260009765625</LatitudeDegrees>
              <LongitudeDegrees>-5.0766999833285808563232421875</LongitudeDegrees>
            </Position>
            <AltitudeMeters>10.3999996185302734375</AltitudeMeters>
            <DistanceMeters>NAN</DistanceMeters>
          </Trackpoint>
          <Trackpoint>
            <Time>2022-07-16T15:52:32.000Z</Time>
            <Position>
              <LatitudeDegrees>43.467577211558818817138671875</LatitudeDegrees>
              <LongitudeDegrees>-5.0767046771943569183349609375</LongitudeDegrees>
            </Position>
            <AltitudeMeters>10.3999996185302734375</AltitudeMeters>
            <DistanceMeters>NAN</DistanceMeters>
          </Trackpoint>
          <Trackpoint>
            <Time>2022-07-16T15:52:33.000Z</Time>
            <Position>
              <LatitudeDegrees>43.46758668310940265655517578125</LatitudeDegrees>
              <LongitudeDegrees>-5.076689757406711578369140625</LongitudeDegrees>
            </Position>
            <AltitudeMeters>10.3999996185302734375</AltitudeMeters>
            <DistanceMeters>NAN</DistanceMeters>
          </Trackpoint>
          <Trackpoint>
            <Time>2022-07-16T15:52:35.000Z</Time>
            <Position>
              <LatitudeDegrees>43.46754661761224269866943359375</LatitudeDegrees>
              <LongitudeDegrees>-5.07652739994227886199951171875</LongitudeDegrees>
            </Position>
            <AltitudeMeters>10.19999980926513671875</AltitudeMeters>
            <DistanceMeters>NAN</DistanceMeters>
          </Trackpoint>
          <Trackpoint>
            <Time>2022-07-16T15:52:37.000Z</Time>
            <Position>
              <LatitudeDegrees>43.4675408340990543365478515625</LatitudeDegrees>
              <LongitudeDegrees>-5.07649303413927555084228515625</LongitudeDegrees>
            </Position>
            <AltitudeMeters>10.19999980926513671875</AltitudeMeters>
            <DistanceMeters>NAN</DistanceMeters>
          </Trackpoint>
          <Trackpoint>
            <Time>2022-07-16T15:52:38.000Z</Time>
            <Position>
              <LatitudeDegrees>43.467522561550140380859375</LatitudeDegrees>
              <LongitudeDegrees>-5.07648146711289882659912109375</LongitudeDegrees>
            </Position>
            <AltitudeMeters>10</AltitudeMeters>
            <DistanceMeters>NAN</DistanceMeters>
          </Trackpoint>
          <Trackpoint>
            <Time>2022-07-16T15:52:41.000Z</Time>
            <Position>
              <LatitudeDegrees>43.46756086684763431549072265625</LatitudeDegrees>
              <LongitudeDegrees>-5.076463110744953155517578125</LongitudeDegrees>
            </Position>
            <AltitudeMeters>10.19999980926513671875</AltitudeMeters>
            <DistanceMeters>NAN</DistanceMeters>
          </Trackpoint>
          <Trackpoint>
            <Time>2022-07-16T15:52:43.000Z</Time>
            <Position>
              <LatitudeDegrees>43.46755701117217540740966796875</LatitudeDegrees>
              <LongitudeDegrees>-5.0765082053840160369873046875</LongitudeDegrees>
            </Position>
            <AltitudeMeters>10.19999980926513671875</AltitudeMeters>
            <DistanceMeters>NAN</DistanceMeters>
          </Trackpoint>
          <Trackpoint>
            <Time>2022-07-16T15:52:45.000Z</Time>
            <Position>
              <LatitudeDegrees>43.46754443831741809844970703125</LatitudeDegrees>
              <LongitudeDegrees>-5.07654131390154361724853515625</LongitudeDegrees>
            </Position>
            <AltitudeMeters>10.19999980926513671875</AltitudeMeters>
            <DistanceMeters>NAN</DistanceMeters>
          </Trackpoint>
          <Trackpoint>
            <Time>2022-07-16T15:52:48.000Z</Time>
            <Position>
              <LatitudeDegrees>43.46754527650773525238037109375</LatitudeDegrees>
              <LongitudeDegrees>-5.07653720676898956298828125</LongitudeDegrees>
            </Position>
            <AltitudeMeters>10.19999980926513671875</AltitudeMeters>
            <DistanceMeters>NAN</DistanceMeters>
          </Trackpoint>
          <Trackpoint>
            <Time>2022-07-16T15:52:49.000Z</Time>
            <Position>
              <LatitudeDegrees>43.46754527650773525238037109375</LatitudeDegrees>
              <LongitudeDegrees>-5.07653720676898956298828125</LongitudeDegrees>
            </Position>
            <AltitudeMeters>10.19999980926513671875</AltitudeMeters>
            <DistanceMeters>NAN</DistanceMeters>
          </Trackpoint>
          <Trackpoint>
            <Time>2022-07-16T15:52:59.000Z</Time>
            <Position>
              <LatitudeDegrees>43.46738107502460479736328125</LatitudeDegrees>
              <LongitudeDegrees>-5.076428912580013275146484375</LongitudeDegrees>
            </Position>
            <AltitudeMeters>10</AltitudeMeters>
            <DistanceMeters>NAN</DistanceMeters>
          </Trackpoint>
          <Trackpoint>
            <Time>2022-07-16T15:53:01.000Z</Time>
            <Position>
              <LatitudeDegrees>43.46739456988871097564697265625</LatitudeDegrees>
              <LongitudeDegrees>-5.07641893811523914337158203125</LongitudeDegrees>
            </Position>
            <AltitudeMeters>10</AltitudeMeters>
            <DistanceMeters>NAN</DistanceMeters>
          </Trackpoint>
          <Trackpoint>
            <Time>2022-07-16T15:53:04.000Z</Time>
            <Position>
              <LatitudeDegrees>43.46747763454914093017578125</LatitudeDegrees>
              <LongitudeDegrees>-5.07640720345079898834228515625</LongitudeDegrees>
            </Position>
            <AltitudeMeters>10.19999980926513671875</AltitudeMeters>
            <DistanceMeters>NAN</DistanceMeters>
          </Trackpoint>
          <Trackpoint>
            <Time>2022-07-16T15:53:05.000Z</Time>
            <Position>
              <LatitudeDegrees>43.46749238669872283935546875</LatitudeDegrees>
              <LongitudeDegrees>-5.076395384967327117919921875</LongitudeDegrees>
            </Position>
            <AltitudeMeters>10.19999980926513671875</AltitudeMeters>
            <DistanceMeters>NAN</DistanceMeters>
          </Trackpoint>
          <Trackpoint>
            <Time>2022-07-16T15:53:10.000Z</Time>
            <Position>
              <LatitudeDegrees>43.46750219352543354034423828125</LatitudeDegrees>
              <LongitudeDegrees>-5.076400078833103179931640625</LongitudeDegrees>
            </Position>
            <AltitudeMeters>9.80000019073486328125</AltitudeMeters>
            <DistanceMeters>NAN</DistanceMeters>
          </Trackpoint>
          <Trackpoint>
            <Time>2022-07-16T15:53:30.000Z</Time>
            <Position>
              <LatitudeDegrees>43.467560447752475738525390625</LatitudeDegrees>
              <LongitudeDegrees>-5.0764384679496288299560546875</LongitudeDegrees>
            </Position>
            <AltitudeMeters>9.3999996185302734375</AltitudeMeters>
            <DistanceMeters>NAN</DistanceMeters>
          </Trackpoint>
          <Trackpoint>
            <Time>2022-07-16T15:53:31.000Z</Time>
            <Position>
              <LatitudeDegrees>43.46754594705998897552490234375</LatitudeDegrees>
              <LongitudeDegrees>-5.0764136575162410736083984375</LongitudeDegrees>
            </Position>
            <AltitudeMeters>9.3999996185302734375</AltitudeMeters>
            <DistanceMeters>NAN</DistanceMeters>
          </Trackpoint>
          <Trackpoint>
            <Time>2022-07-16T15:53:32.000Z</Time>
            <Position>
              <LatitudeDegrees>43.46752432174980640411376953125</LatitudeDegrees>
              <LongitudeDegrees>-5.0764082930982112884521484375</LongitudeDegrees>
            </Position>
            <AltitudeMeters>9.3999996185302734375</AltitudeMeters>
            <DistanceMeters>NAN</DistanceMeters>
          </Trackpoint>
          <Trackpoint>
            <Time>2022-07-16T15:53:35.000Z</Time>
            <Position>
              <LatitudeDegrees>43.46751241944730281829833984375</LatitudeDegrees>
              <LongitudeDegrees>-5.0764341093599796295166015625</LongitudeDegrees>
            </Position>
            <AltitudeMeters>9.3999996185302734375</AltitudeMeters>
            <DistanceMeters>NAN</DistanceMeters>
          </Trackpoint>
          <Trackpoint>
            <Time>2022-07-16T15:53:38.000Z</Time>
            <Position>
              <LatitudeDegrees>43.467492051422595977783203125</LatitudeDegrees>
              <LongitudeDegrees>-5.0764860771596431732177734375</LongitudeDegrees>
            </Position>
            <AltitudeMeters>9</AltitudeMeters>
            <DistanceMeters>NAN</DistanceMeters>
          </Trackpoint>
          <Trackpoint>
            <Time>2022-07-16T15:53:39.000Z</Time>
            <Position>
              <LatitudeDegrees>43.467492051422595977783203125</LatitudeDegrees>
              <LongitudeDegrees>-5.0764860771596431732177734375</LongitudeDegrees>
            </Position>
            <AltitudeMeters>8.80000019073486328125</AltitudeMeters>
            <DistanceMeters>NAN</DistanceMeters>
          </Trackpoint>
          <Trackpoint>
            <Time>2022-07-16T15:53:40.000Z</Time>
            <Position>
              <LatitudeDegrees>43.467492051422595977783203125</LatitudeDegrees>
              <LongitudeDegrees>-5.0764860771596431732177734375</LongitudeDegrees>
            </Position>
            <AltitudeMeters>8.80000019073486328125</AltitudeMeters>
            <DistanceMeters>NAN</DistanceMeters>
          </Trackpoint>
          <Trackpoint>
            <Time>2022-07-16T15:53:49.000Z</Time>
            <Position>
              <LatitudeDegrees>43.46749817021191120147705078125</LatitudeDegrees>
              <LongitudeDegrees>-5.07649898529052734375</LongitudeDegrees>
            </Position>
            <AltitudeMeters>8.80000019073486328125</AltitudeMeters>
            <DistanceMeters>NAN</DistanceMeters>
          </Trackpoint>
          <Trackpoint>
            <Time>2022-07-16T15:53:50.000Z</Time>
            <Position>
              <LatitudeDegrees>43.4675180353224277496337890625</LatitudeDegrees>
              <LongitudeDegrees>-5.07648968137800693511962890625</LongitudeDegrees>
            </Position>
            <AltitudeMeters>8.80000019073486328125</AltitudeMeters>
            <DistanceMeters>NAN</DistanceMeters>
          </Trackpoint>
          <Trackpoint>
            <Time>2022-07-16T15:53:53.000Z</Time>
            <Position>
              <LatitudeDegrees>43.46751711331307888031005859375</LatitudeDegrees>
              <LongitudeDegrees>-5.07648800499737262725830078125</LongitudeDegrees>
            </Position>
            <AltitudeMeters>8.80000019073486328125</AltitudeMeters>
            <DistanceMeters>NAN</DistanceMeters>
          </Trackpoint>
          <Trackpoint>
            <Time>2022-07-16T15:53:56.000Z</Time>
            <Position>
              <LatitudeDegrees>43.46742399036884307861328125</LatitudeDegrees>
              <LongitudeDegrees>-5.07653695531189441680908203125</LongitudeDegrees>
            </Position>
            <AltitudeMeters>9</AltitudeMeters>
            <DistanceMeters>NAN</DistanceMeters>
          </Trackpoint>
          <Trackpoint>
            <Time>2022-07-16T15:53:57.000Z</Time>
            <Position>
              <LatitudeDegrees>43.46743094734847545623779296875</LatitudeDegrees>
              <LongitudeDegrees>-5.07653863169252872467041015625</LongitudeDegrees>
            </Position>
            <AltitudeMeters>9</AltitudeMeters>
            <DistanceMeters>NAN</DistanceMeters>
          </Trackpoint>
          <Trackpoint>
            <Time>2022-07-16T15:53:59.000Z</Time>
            <Position>
              <LatitudeDegrees>43.46743094734847545623779296875</LatitudeDegrees>
              <LongitudeDegrees>-5.07653863169252872467041015625</LongitudeDegrees>
            </Position>
            <AltitudeMeters>9.19999980926513671875</AltitudeMeters>
            <DistanceMeters>NAN</DistanceMeters>
          </Trackpoint>
          <Trackpoint>
            <Time>2022-07-16T15:54:01.000Z</Time>
            <Position>
              <LatitudeDegrees>43.4674231521785259246826171875</LatitudeDegrees>
              <LongitudeDegrees>-5.07654391229152679443359375</LongitudeDegrees>
            </Position>
            <AltitudeMeters>9.19999980926513671875</AltitudeMeters>
            <DistanceMeters>NAN</DistanceMeters>
          </Trackpoint>
          <Trackpoint>
            <Time>2022-07-16T15:54:05.000Z</Time>
            <Position>
              <LatitudeDegrees>43.46742256544530391693115234375</LatitudeDegrees>
              <LongitudeDegrees>-5.0765464268624782562255859375</LongitudeDegrees>
            </Position>
            <AltitudeMeters>9.19999980926513671875</AltitudeMeters>
            <DistanceMeters>NAN</DistanceMeters>
          </Trackpoint>
          <Trackpoint>
            <Time>2022-07-16T15:54:06.000Z</Time>
            <Position>
              <LatitudeDegrees>43.46742256544530391693115234375</LatitudeDegrees>
              <LongitudeDegrees>-5.0765464268624782562255859375</LongitudeDegrees>
            </Position>
            <AltitudeMeters>9.19999980926513671875</AltitudeMeters>
            <DistanceMeters>NAN</DistanceMeters>
          </Trackpoint>
          <Trackpoint>
            <Time>2022-07-16T15:54:18.000Z</Time>
            <Position>
              <LatitudeDegrees>43.46744016744196414947509765625</LatitudeDegrees>
              <LongitudeDegrees>-5.076570399105548858642578125</LongitudeDegrees>
            </Position>
            <AltitudeMeters>8.19999980926513671875</AltitudeMeters>
            <DistanceMeters>NAN</DistanceMeters>
          </Trackpoint>
          <Trackpoint>
            <Time>2022-07-16T15:54:20.000Z</Time>
            <Position>
              <LatitudeDegrees>43.46744787879288196563720703125</LatitudeDegrees>
              <LongitudeDegrees>-5.0765846483409404754638671875</LongitudeDegrees>
            </Position>
            <AltitudeMeters>8.19999980926513671875</AltitudeMeters>
            <DistanceMeters>NAN</DistanceMeters>
          </Trackpoint>
          <Trackpoint>
            <Time>2022-07-16T15:54:27.000Z</Time>
            <Position>
              <LatitudeDegrees>43.4675200469791889190673828125</LatitudeDegrees>
              <LongitudeDegrees>-5.0766061060130596160888671875</LongitudeDegrees>
            </Position>
            <AltitudeMeters>8.3999996185302734375</AltitudeMeters>
            <DistanceMeters>NAN</DistanceMeters>
          </Trackpoint>
          <Trackpoint>
            <Time>2022-07-16T15:54:31.000Z</Time>
            <Position>
              <LatitudeDegrees>43.46752231009304523468017578125</LatitudeDegrees>
              <LongitudeDegrees>-5.07646269164979457855224609375</LongitudeDegrees>
            </Position>
            <AltitudeMeters>8.19999980926513671875</AltitudeMeters>
            <DistanceMeters>NAN</DistanceMeters>
          </Trackpoint>
          <Trackpoint>
            <Time>2022-07-16T15:54:38.000Z</Time>
            <Position>
              <LatitudeDegrees>43.467501103878021240234375</LatitudeDegrees>
              <LongitudeDegrees>-5.07651750929653644561767578125</LongitudeDegrees>
            </Position>
            <AltitudeMeters>8.19999980926513671875</AltitudeMeters>
            <DistanceMeters>NAN</DistanceMeters>
          </Trackpoint>
          <Trackpoint>
            <Time>2022-07-16T15:54:40.000Z</Time>
            <Position>
              <LatitudeDegrees>43.467501103878021240234375</LatitudeDegrees>
              <LongitudeDegrees>-5.07651750929653644561767578125</LongitudeDegrees>
            </Position>
            <AltitudeMeters>8.19999980926513671875</AltitudeMeters>
            <DistanceMeters>NAN</DistanceMeters>
          </Trackpoint>
          <Trackpoint>
            <Time>2022-07-16T15:55:09.000Z</Time>
            <Position>
              <LatitudeDegrees>43.46741938032209873199462890625</LatitudeDegrees>
              <LongitudeDegrees>-5.0766114704310894012451171875</LongitudeDegrees>
            </Position>
            <AltitudeMeters>7.80000019073486328125</AltitudeMeters>
            <DistanceMeters>NAN</DistanceMeters>
          </Trackpoint>
          <Trackpoint>
            <Time>2022-07-16T15:55:10.000Z</Time>
            <Position>
              <LatitudeDegrees>43.4674112498760223388671875</LatitudeDegrees>
              <LongitudeDegrees>-5.07660828530788421630859375</LongitudeDegrees>
            </Position>
            <AltitudeMeters>7.80000019073486328125</AltitudeMeters>
            <DistanceMeters>NAN</DistanceMeters>
          </Trackpoint>
          <Trackpoint>
            <Time>2022-07-16T15:55:11.000Z</Time>
            <Position>
              <LatitudeDegrees>43.4674112498760223388671875</LatitudeDegrees>
              <LongitudeDegrees>-5.07660828530788421630859375</LongitudeDegrees>
            </Position>
            <AltitudeMeters>8</AltitudeMeters>
            <DistanceMeters>NAN</DistanceMeters>
          </Trackpoint>
          <Trackpoint>
            <Time>2022-07-16T15:55:12.000Z</Time>
            <Position>
              <LatitudeDegrees>43.4674112498760223388671875</LatitudeDegrees>
              <LongitudeDegrees>-5.07660828530788421630859375</LongitudeDegrees>
            </Position>
            <AltitudeMeters>8</AltitudeMeters>
            <DistanceMeters>NAN</DistanceMeters>
          </Trackpoint>
          <Trackpoint>
            <Time>2022-07-16T15:56:17.000Z</Time>
            <Position>
              <LatitudeDegrees>43.46748836338520050048828125</LatitudeDegrees>
              <LongitudeDegrees>-5.0764493644237518310546875</LongitudeDegrees>
            </Position>
            <AltitudeMeters>7.400000095367431640625</AltitudeMeters>
            <DistanceMeters>NAN</DistanceMeters>
          </Trackpoint>
          <Trackpoint>
            <Time>2022-07-16T15:56:19.000Z</Time>
            <Position>
              <LatitudeDegrees>43.467510826885700225830078125</LatitudeDegrees>
              <LongitudeDegrees>-5.07647073827683925628662109375</LongitudeDegrees>
            </Position>
            <AltitudeMeters>7.400000095367431640625</AltitudeMeters>
            <DistanceMeters>NAN</DistanceMeters>
          </Trackpoint>
          <Trackpoint>
            <Time>2022-07-16T15:56:22.000Z</Time>
            <Position>
              <LatitudeDegrees>43.467620797455310821533203125</LatitudeDegrees>
              <LongitudeDegrees>-5.07655673660337924957275390625</LongitudeDegrees>
            </Position>
            <AltitudeMeters>7.400000095367431640625</AltitudeMeters>
            <DistanceMeters>NAN</DistanceMeters>
          </Trackpoint>
          <Trackpoint>
            <Time>2022-07-16T15:56:24.000Z</Time>
            <Position>
              <LatitudeDegrees>43.467683829367160797119140625</LatitudeDegrees>
              <LongitudeDegrees>-5.0766419805586338043212890625</LongitudeDegrees>
            </Position>
            <AltitudeMeters>7.400000095367431640625</AltitudeMeters>
            <DistanceMeters>NAN</DistanceMeters>
          </Trackpoint>
          <Trackpoint>
            <Time>2022-07-16T15:56:25.000Z</Time>
            <Position>
              <LatitudeDegrees>43.46773185767233371734619140625</LatitudeDegrees>
              <LongitudeDegrees>-5.07664977572858333587646484375</LongitudeDegrees>
            </Position>
            <AltitudeMeters>7.400000095367431640625</AltitudeMeters>
            <DistanceMeters>NAN</DistanceMeters>
          </Trackpoint>
          <Trackpoint>
            <Time>2022-07-16T15:56:27.000Z</Time>
            <Position>
              <LatitudeDegrees>43.4677409939467906951904296875</LatitudeDegrees>
              <LongitudeDegrees>-5.07665446959435939788818359375</LongitudeDegrees>
            </Position>
            <AltitudeMeters>7.400000095367431640625</AltitudeMeters>
            <DistanceMeters>NAN</DistanceMeters>
          </Trackpoint>
          <Trackpoint>
            <Time>2022-07-16T15:56:36.000Z</Time>
            <Position>
              <LatitudeDegrees>43.46769380383193492889404296875</LatitudeDegrees>
              <LongitudeDegrees>-5.07660300470888614654541015625</LongitudeDegrees>
            </Position>
            <AltitudeMeters>7.19999980926513671875</AltitudeMeters>
            <DistanceMeters>NAN</DistanceMeters>
          </Trackpoint>
          <Trackpoint>
            <Time>2022-07-16T15:56:38.000Z</Time>
            <Position>
              <LatitudeDegrees>43.46766027621924877166748046875</LatitudeDegrees>
              <LongitudeDegrees>-5.07659059949219226837158203125</LongitudeDegrees>
            </Position>
            <AltitudeMeters>7.19999980926513671875</AltitudeMeters>
            <DistanceMeters>NAN</DistanceMeters>
          </Trackpoint>
          <Trackpoint>
            <Time>2022-07-16T15:56:40.000Z</Time>
            <Position>
              <LatitudeDegrees>43.46766027621924877166748046875</LatitudeDegrees>
              <LongitudeDegrees>-5.07659059949219226837158203125</LongitudeDegrees>
            </Position>
            <AltitudeMeters>7.19999980926513671875</AltitudeMeters>
            <DistanceMeters>NAN</DistanceMeters>
          </Trackpoint>
          <Trackpoint>
            <Time>2022-07-16T15:56:46.000Z</Time>
            <Position>
              <LatitudeDegrees>43.46764451824128627777099609375</LatitudeDegrees>
              <LongitudeDegrees>-5.07657182402908802032470703125</LongitudeDegrees>
            </Position>
            <AltitudeMeters>7.19999980926513671875</AltitudeMeters>
            <DistanceMeters>NAN</DistanceMeters>
          </Trackpoint>
          <Trackpoint>
            <Time>2022-07-16T15:56:49.000Z</Time>
            <Position>
              <LatitudeDegrees>43.467612750828266143798828125</LatitudeDegrees>
              <LongitudeDegrees>-5.07645003497600555419921875</LongitudeDegrees>
            </Position>
            <AltitudeMeters>7.19999980926513671875</AltitudeMeters>
            <DistanceMeters>NAN</DistanceMeters>
          </Trackpoint>
          <Trackpoint>
            <Time>2022-07-16T15:56:50.000Z</Time>
            <Position>
              <LatitudeDegrees>43.46758333034813404083251953125</LatitudeDegrees>
              <LongitudeDegrees>-5.0763938762247562408447265625</LongitudeDegrees>
            </Position>
            <AltitudeMeters>7.19999980926513671875</AltitudeMeters>
            <DistanceMeters>NAN</DistanceMeters>
          </Trackpoint>
          <Trackpoint>
            <Time>2022-07-16T15:56:52.000Z</Time>
            <Position>
              <LatitudeDegrees>43.4675099886953830718994140625</LatitudeDegrees>
              <LongitudeDegrees>-5.07637317292392253875732421875</LongitudeDegrees>
            </Position>
            <AltitudeMeters>7.19999980926513671875</AltitudeMeters>
            <DistanceMeters>NAN</DistanceMeters>
          </Trackpoint>
          <Trackpoint>
            <Time>2022-07-16T15:56:54.000Z</Time>
            <Position>
              <LatitudeDegrees>43.46748693846166133880615234375</LatitudeDegrees>
              <LongitudeDegrees>-5.076302178204059600830078125</LongitudeDegrees>
            </Position>
            <AltitudeMeters>7.19999980926513671875</AltitudeMeters>
            <DistanceMeters>NAN</DistanceMeters>
          </Trackpoint>
          <Trackpoint>
            <Time>2022-07-16T15:56:55.000Z</Time>
            <Position>
              <LatitudeDegrees>43.467486687004566192626953125</LatitudeDegrees>
              <LongitudeDegrees>-5.07633411325514316558837890625</LongitudeDegrees>
            </Position>
            <AltitudeMeters>7.19999980926513671875</AltitudeMeters>
            <DistanceMeters>NAN</DistanceMeters>
          </Trackpoint>
          <Trackpoint>
            <Time>2022-07-16T15:56:57.000Z</Time>
            <Position>
              <LatitudeDegrees>43.46752247773110866546630859375</LatitudeDegrees>
              <LongitudeDegrees>-5.07643704302608966827392578125</LongitudeDegrees>
            </Position>
            <AltitudeMeters>7.19999980926513671875</AltitudeMeters>
            <DistanceMeters>NAN</DistanceMeters>
          </Trackpoint>
          <Trackpoint>
            <Time>2022-07-16T15:56:59.000Z</Time>
            <Position>
              <LatitudeDegrees>43.4675277583301067352294921875</LatitudeDegrees>
              <LongitudeDegrees>-5.07649253122508525848388671875</LongitudeDegrees>
            </Position>
            <AltitudeMeters>7.19999980926513671875</AltitudeMeters>
            <DistanceMeters>NAN</DistanceMeters>
          </Trackpoint>
          <Trackpoint>
            <Time>2022-07-16T15:57:01.000Z</Time>
            <Position>
              <LatitudeDegrees>43.4674875251948833465576171875</LatitudeDegrees>
              <LongitudeDegrees>-5.07659043185412883758544921875</LongitudeDegrees>
            </Position>
            <AltitudeMeters>7.19999980926513671875</AltitudeMeters>
            <DistanceMeters>NAN</DistanceMeters>
          </Trackpoint>
          <Trackpoint>
            <Time>2022-07-16T15:57:03.000Z</Time>
            <Position>
              <LatitudeDegrees>43.467467911541461944580078125</LatitudeDegrees>
              <LongitudeDegrees>-5.0765947066247463226318359375</LongitudeDegrees>
            </Position>
            <AltitudeMeters>7.19999980926513671875</AltitudeMeters>
            <DistanceMeters>NAN</DistanceMeters>
          </Trackpoint>
          <Trackpoint>
            <Time>2022-07-16T15:57:06.000Z</Time>
            <Position>
              <LatitudeDegrees>43.46746128983795642852783203125</LatitudeDegrees>
              <LongitudeDegrees>-5.0765299983322620391845703125</LongitudeDegrees>
            </Position>
            <AltitudeMeters>7</AltitudeMeters>
            <DistanceMeters>NAN</DistanceMeters>
          </Trackpoint>
          <Trackpoint>
            <Time>2022-07-16T15:57:56.000Z</Time>
            <Position>
              <LatitudeDegrees>43.4674890339374542236328125</LatitudeDegrees>
              <LongitudeDegrees>-5.0765417329967021942138671875</LongitudeDegrees>
            </Position>
            <AltitudeMeters>5.80000019073486328125</AltitudeMeters>
            <DistanceMeters>NAN</DistanceMeters>
          </Trackpoint>
          <Trackpoint>
            <Time>2022-07-16T15:57:58.000Z</Time>
            <Position>
              <LatitudeDegrees>43.4674890339374542236328125</LatitudeDegrees>
              <LongitudeDegrees>-5.0765417329967021942138671875</LongitudeDegrees>
            </Position>
            <AltitudeMeters>5.80000019073486328125</AltitudeMeters>
            <DistanceMeters>NAN</DistanceMeters>
          </Trackpoint>
          <Trackpoint>
            <Time>2022-07-16T15:58:09.000Z</Time>
            <Position>
              <LatitudeDegrees>43.4674586914479732513427734375</LatitudeDegrees>
              <LongitudeDegrees>-5.076500661671161651611328125</LongitudeDegrees>
            </Position>
            <AltitudeMeters>5</AltitudeMeters>
            <DistanceMeters>NAN</DistanceMeters>
          </Trackpoint>
          <Trackpoint>
            <Time>2022-07-16T15:58:10.000Z</Time>
            <Position>
              <LatitudeDegrees>43.46745072863996028900146484375</LatitudeDegrees>
              <LongitudeDegrees>-5.07649026811122894287109375</LongitudeDegrees>
            </Position>
            <AltitudeMeters>5</AltitudeMeters>
            <DistanceMeters>NAN</DistanceMeters>
          </Trackpoint>
          <Trackpoint>
            <Time>2022-07-16T15:58:16.000Z</Time>
            <Position>
              <LatitudeDegrees>43.46744947135448455810546875</LatitudeDegrees>
              <LongitudeDegrees>-5.07645648904144763946533203125</LongitudeDegrees>
            </Position>
            <AltitudeMeters>5.19999980926513671875</AltitudeMeters>
            <DistanceMeters>NAN</DistanceMeters>
          </Trackpoint>
          <Trackpoint>
            <Time>2022-07-16T15:58:19.000Z</Time>
            <Position>
              <LatitudeDegrees>43.46744905225932598114013671875</LatitudeDegrees>
              <LongitudeDegrees>-5.076479203999042510986328125</LongitudeDegrees>
            </Position>
            <AltitudeMeters>5.19999980926513671875</AltitudeMeters>
            <DistanceMeters>NAN</DistanceMeters>
          </Trackpoint>
          <Trackpoint>
            <Time>2022-07-16T15:58:21.000Z</Time>
            <Position>
              <LatitudeDegrees>43.46744905225932598114013671875</LatitudeDegrees>
              <LongitudeDegrees>-5.076479203999042510986328125</LongitudeDegrees>
            </Position>
            <AltitudeMeters>5.19999980926513671875</AltitudeMeters>
            <DistanceMeters>NAN</DistanceMeters>
          </Trackpoint>
          <Trackpoint>
            <Time>2022-07-16T15:58:31.000Z</Time>
            <Position>
              <LatitudeDegrees>43.46744016744196414947509765625</LatitudeDegrees>
              <LongitudeDegrees>-5.0764357857406139373779296875</LongitudeDegrees>
            </Position>
            <AltitudeMeters>4.80000019073486328125</AltitudeMeters>
            <DistanceMeters>NAN</DistanceMeters>
          </Trackpoint>
          <Trackpoint>
            <Time>2022-07-16T15:58:32.000Z</Time>
            <Position>
              <LatitudeDegrees>43.46744016744196414947509765625</LatitudeDegrees>
              <LongitudeDegrees>-5.0764357857406139373779296875</LongitudeDegrees>
            </Position>
            <AltitudeMeters>4.80000019073486328125</AltitudeMeters>
            <DistanceMeters>NAN</DistanceMeters>
          </Trackpoint>
          <Trackpoint>
            <Time>2022-07-16T15:58:33.000Z</Time>
            <Position>
              <LatitudeDegrees>43.46744016744196414947509765625</LatitudeDegrees>
              <LongitudeDegrees>-5.0764357857406139373779296875</LongitudeDegrees>
            </Position>
            <AltitudeMeters>4.80000019073486328125</AltitudeMeters>
            <DistanceMeters>NAN</DistanceMeters>
          </Trackpoint>
          <Trackpoint>
            <Time>2022-07-16T15:58:35.000Z</Time>
            <Position>
              <LatitudeDegrees>43.46742390654981136322021484375</LatitudeDegrees>
              <LongitudeDegrees>-5.07642162032425403594970703125</LongitudeDegrees>
            </Position>
            <AltitudeMeters>4.599999904632568359375</AltitudeMeters>
            <DistanceMeters>NAN</DistanceMeters>
          </Trackpoint>
          <Trackpoint>
            <Time>2022-07-16T15:58:37.000Z</Time>
            <Position>
              <LatitudeDegrees>43.4674422629177570343017578125</LatitudeDegrees>
              <LongitudeDegrees>-5.07638943381607532501220703125</LongitudeDegrees>
            </Position>
            <AltitudeMeters>4.599999904632568359375</AltitudeMeters>
            <DistanceMeters>NAN</DistanceMeters>
          </Trackpoint>
          <Trackpoint>
            <Time>2022-07-16T15:58:39.000Z</Time>
            <Position>
              <LatitudeDegrees>43.46744737587869167327880859375</LatitudeDegrees>
              <LongitudeDegrees>-5.07639463059604167938232421875</LongitudeDegrees>
            </Position>
            <AltitudeMeters>4.599999904632568359375</AltitudeMeters>
            <DistanceMeters>NAN</DistanceMeters>
          </Trackpoint>
          <Trackpoint>
            <Time>2022-07-16T15:58:40.000Z</Time>
            <Position>
              <LatitudeDegrees>43.46744737587869167327880859375</LatitudeDegrees>
              <LongitudeDegrees>-5.07639463059604167938232421875</LongitudeDegrees>
            </Position>
            <AltitudeMeters>4.400000095367431640625</AltitudeMeters>
            <DistanceMeters>NAN</DistanceMeters>
          </Trackpoint>
          <Trackpoint>
            <Time>2022-07-16T15:59:28.000Z</Time>
            <Position>
              <LatitudeDegrees>43.46748459152877330780029296875</LatitudeDegrees>
              <LongitudeDegrees>-5.07643486373126506805419921875</LongitudeDegrees>
            </Position>
            <AltitudeMeters>2.2000000476837158203125</AltitudeMeters>
            <DistanceMeters>NAN</DistanceMeters>
          </Trackpoint>
          <Trackpoint>
            <Time>2022-07-16T15:59:29.000Z</Time>
            <Position>
              <LatitudeDegrees>43.46748274751007556915283203125</LatitudeDegrees>
              <LongitudeDegrees>-5.07644391618669033050537109375</LongitudeDegrees>
            </Position>
            <AltitudeMeters>2.2000000476837158203125</AltitudeMeters>
            <DistanceMeters>NAN</DistanceMeters>
          </Trackpoint>
          <Trackpoint>
            <Time>2022-07-16T15:59:31.000Z</Time>
            <Position>
              <LatitudeDegrees>43.46748274751007556915283203125</LatitudeDegrees>
              <LongitudeDegrees>-5.07644391618669033050537109375</LongitudeDegrees>
            </Position>
            <AltitudeMeters>2.400000095367431640625</AltitudeMeters>
            <DistanceMeters>NAN</DistanceMeters>
          </Trackpoint>
          <Trackpoint>
            <Time>2022-07-16T16:00:14.000Z</Time>
            <Position>
              <LatitudeDegrees>43.46745349466800689697265625</LatitudeDegrees>
              <LongitudeDegrees>-5.076483227312564849853515625</LongitudeDegrees>
            </Position>
            <AltitudeMeters>1.2000000476837158203125</AltitudeMeters>
            <DistanceMeters>NAN</DistanceMeters>
          </Trackpoint>
          <Trackpoint>
            <Time>2022-07-16T16:00:15.000Z</Time>
            <Position>
              <LatitudeDegrees>43.46746799536049365997314453125</LatitudeDegrees>
              <LongitudeDegrees>-5.0764894299209117889404296875</LongitudeDegrees>
            </Position>
            <AltitudeMeters>1</AltitudeMeters>
            <DistanceMeters>NAN</DistanceMeters>
          </Trackpoint>
          <Trackpoint>
            <Time>2022-07-16T16:00:18.000Z</Time>
            <Position>
              <LatitudeDegrees>43.46747185103595256805419921875</LatitudeDegrees>
              <LongitudeDegrees>-5.0764922797679901123046875</LongitudeDegrees>
            </Position>
            <AltitudeMeters>1</AltitudeMeters>
            <DistanceMeters>NAN</DistanceMeters>
          </Trackpoint>
          <Trackpoint>
            <Time>2022-07-16T16:00:20.000Z</Time>
            <Position>
              <LatitudeDegrees>43.4674848429858684539794921875</LatitudeDegrees>
              <LongitudeDegrees>-5.07650367915630340576171875</LongitudeDegrees>
            </Position>
            <AltitudeMeters>0.60000002384185791015625</AltitudeMeters>
            <DistanceMeters>NAN</DistanceMeters>
          </Trackpoint>
          <Trackpoint>
            <Time>2022-07-16T16:00:22.000Z</Time>
            <Position>
              <LatitudeDegrees>43.4674848429858684539794921875</LatitudeDegrees>
              <LongitudeDegrees>-5.07650367915630340576171875</LongitudeDegrees>
            </Position>
            <AltitudeMeters>0.4000000059604644775390625</AltitudeMeters>
            <DistanceMeters>NAN</DistanceMeters>
          </Trackpoint>
          <Trackpoint>
            <Time>2022-07-16T16:00:25.000Z</Time>
            <Position>
              <LatitudeDegrees>43.4674845077097415924072265625</LatitudeDegrees>
              <LongitudeDegrees>-5.07652589119970798492431640625</LongitudeDegrees>
            </Position>
            <AltitudeMeters>0.20000000298023223876953125</AltitudeMeters>
            <DistanceMeters>NAN</DistanceMeters>
          </Trackpoint>
          <Trackpoint>
            <Time>2022-07-16T16:00:27.000Z</Time>
            <Position>
              <LatitudeDegrees>43.46751443110406398773193359375</LatitudeDegrees>
              <LongitudeDegrees>-5.0765387155115604400634765625</LongitudeDegrees>
            </Position>
            <AltitudeMeters>0.20000000298023223876953125</AltitudeMeters>
            <DistanceMeters>NAN</DistanceMeters>
          </Trackpoint>
          <Trackpoint>
            <Time>2022-07-16T16:00:28.000Z</Time>
            <Position>
              <LatitudeDegrees>43.46753873862326145172119140625</LatitudeDegrees>
              <LongitudeDegrees>-5.07655807770788669586181640625</LongitudeDegrees>
            </Position>
            <AltitudeMeters>0.20000000298023223876953125</AltitudeMeters>
            <DistanceMeters>NAN</DistanceMeters>
          </Trackpoint>
          <Trackpoint>
            <Time>2022-07-16T16:00:29.000Z</Time>
            <Position>
              <LatitudeDegrees>43.46755181439220905303955078125</LatitudeDegrees>
              <LongitudeDegrees>-5.07656536996364593505859375</LongitudeDegrees>
            </Position>
            <AltitudeMeters>0.20000000298023223876953125</AltitudeMeters>
            <DistanceMeters>NAN</DistanceMeters>
          </Trackpoint>
          <Trackpoint>
            <Time>2022-07-16T16:00:33.000Z</Time>
            <Position>
              <LatitudeDegrees>43.467582575976848602294921875</LatitudeDegrees>
              <LongitudeDegrees>-5.07659294642508029937744140625</LongitudeDegrees>
            </Position>
            <AltitudeMeters>0.20000000298023223876953125</AltitudeMeters>
            <DistanceMeters>NAN</DistanceMeters>
          </Trackpoint>
          <Trackpoint>
            <Time>2022-07-16T16:00:34.000Z</Time>
            <Position>
              <LatitudeDegrees>43.46758249215781688690185546875</LatitudeDegrees>
              <LongitudeDegrees>-5.07659328170120716094970703125</LongitudeDegrees>
            </Position>
            <AltitudeMeters>0.20000000298023223876953125</AltitudeMeters>
            <DistanceMeters>NAN</DistanceMeters>
          </Trackpoint>
          <Trackpoint>
            <Time>2022-07-16T16:00:35.000Z</Time>
            <Position>
              <LatitudeDegrees>43.46756279468536376953125</LatitudeDegrees>
              <LongitudeDegrees>-5.076580457389354705810546875</LongitudeDegrees>
            </Position>
            <AltitudeMeters>0.20000000298023223876953125</AltitudeMeters>
            <DistanceMeters>NAN</DistanceMeters>
          </Trackpoint>
          <Trackpoint>
            <Time>2022-07-16T16:00:37.000Z</Time>
            <Position>
              <LatitudeDegrees>43.4674895368516445159912109375</LatitudeDegrees>
              <LongitudeDegrees>-5.076544247567653656005859375</LongitudeDegrees>
            </Position>
            <AltitudeMeters>0</AltitudeMeters>
            <DistanceMeters>NAN</DistanceMeters>
          </Trackpoint>
          <Trackpoint>
            <Time>2022-07-16T16:00:39.000Z</Time>
            <Position>
              <LatitudeDegrees>43.46748526208102703094482421875</LatitudeDegrees>
              <LongitudeDegrees>-5.07651600055396556854248046875</LongitudeDegrees>
            </Position>
            <AltitudeMeters>-0.4000000059604644775390625</AltitudeMeters>
            <DistanceMeters>NAN</DistanceMeters>
          </Trackpoint>
          <Trackpoint>
            <Time>2022-07-16T16:00:40.000Z</Time>
            <Position>
              <LatitudeDegrees>43.46748542971909046173095703125</LatitudeDegrees>
              <LongitudeDegrees>-5.07651231251657009124755859375</LongitudeDegrees>
            </Position>
            <AltitudeMeters>-0.4000000059604644775390625</AltitudeMeters>
            <DistanceMeters>NAN</DistanceMeters>
          </Trackpoint>
          <Trackpoint>
            <Time>2022-07-16T16:00:42.000Z</Time>
            <Position>
              <LatitudeDegrees>43.46748542971909046173095703125</LatitudeDegrees>
              <LongitudeDegrees>-5.07651231251657009124755859375</LongitudeDegrees>
            </Position>
            <AltitudeMeters>-0.4000000059604644775390625</AltitudeMeters>
            <DistanceMeters>NAN</DistanceMeters>
          </Trackpoint>
          <Trackpoint>
            <Time>2022-07-16T16:01:27.000Z</Time>
            <Position>
              <LatitudeDegrees>43.4675465337932109832763671875</LatitudeDegrees>
              <LongitudeDegrees>-5.0765289925038814544677734375</LongitudeDegrees>
            </Position>
            <AltitudeMeters>-2.2000000476837158203125</AltitudeMeters>
            <DistanceMeters>NAN</DistanceMeters>
          </Trackpoint>
          <Trackpoint>
            <Time>2022-07-16T16:01:28.000Z</Time>
            <Position>
              <LatitudeDegrees>43.4675411693751811981201171875</LatitudeDegrees>
              <LongitudeDegrees>-5.07651918567717075347900390625</LongitudeDegrees>
            </Position>
            <AltitudeMeters>-2.2000000476837158203125</AltitudeMeters>
            <DistanceMeters>NAN</DistanceMeters>
          </Trackpoint>
          <Trackpoint>
            <Time>2022-07-16T16:01:31.000Z</Time>
            <Position>
              <LatitudeDegrees>43.46750118769705295562744140625</LatitudeDegrees>
              <LongitudeDegrees>-5.0764911063015460968017578125</LongitudeDegrees>
            </Position>
            <AltitudeMeters>-2.2000000476837158203125</AltitudeMeters>
            <DistanceMeters>NAN</DistanceMeters>
          </Trackpoint>
          <Trackpoint>
            <Time>2022-07-16T16:01:33.000Z</Time>
            <Position>
              <LatitudeDegrees>43.467492721974849700927734375</LatitudeDegrees>
              <LongitudeDegrees>-5.07649102248251438140869140625</LongitudeDegrees>
            </Position>
            <AltitudeMeters>-2.2000000476837158203125</AltitudeMeters>
            <DistanceMeters>NAN</DistanceMeters>
          </Trackpoint>
          <Trackpoint>
            <Time>2022-07-16T16:01:34.000Z</Time>
            <Position>
              <LatitudeDegrees>43.467492721974849700927734375</LatitudeDegrees>
              <LongitudeDegrees>-5.07649102248251438140869140625</LongitudeDegrees>
            </Position>
            <AltitudeMeters>-2.2000000476837158203125</AltitudeMeters>
            <DistanceMeters>NAN</DistanceMeters>
          </Trackpoint>
          <Trackpoint>
            <Time>2022-07-16T16:01:41.000Z</Time>
            <Position>
              <LatitudeDegrees>43.46747084520757198333740234375</LatitudeDegrees>
              <LongitudeDegrees>-5.07647157646715641021728515625</LongitudeDegrees>
            </Position>
            <AltitudeMeters>-2.2000000476837158203125</AltitudeMeters>
            <DistanceMeters>NAN</DistanceMeters>
          </Trackpoint>
          <Trackpoint>
            <Time>2022-07-16T16:01:43.000Z</Time>
            <Position>
              <LatitudeDegrees>43.46745475195348262786865234375</LatitudeDegrees>
              <LongitudeDegrees>-5.07649504579603672027587890625</LongitudeDegrees>
            </Position>
            <AltitudeMeters>-2.2000000476837158203125</AltitudeMeters>
            <DistanceMeters>NAN</DistanceMeters>
          </Trackpoint>
          <Trackpoint>
            <Time>2022-07-16T16:01:46.000Z</Time>
            <Position>
              <LatitudeDegrees>43.467446453869342803955078125</LatitudeDegrees>
              <LongitudeDegrees>-5.07649890147149562835693359375</LongitudeDegrees>
            </Position>
            <AltitudeMeters>-2.2000000476837158203125</AltitudeMeters>
            <DistanceMeters>NAN</DistanceMeters>
          </Trackpoint>
          <Trackpoint>
            <Time>2022-07-16T16:02:33.000Z</Time>
            <Position>
              <LatitudeDegrees>43.4675438515841960906982421875</LatitudeDegrees>
              <LongitudeDegrees>-5.0765071995556354522705078125</LongitudeDegrees>
            </Position>
            <AltitudeMeters>-3.2000000476837158203125</AltitudeMeters>
            <DistanceMeters>NAN</DistanceMeters>
          </Trackpoint>
          <Trackpoint>
            <Time>2022-07-16T16:02:34.000Z</Time>
            <Position>
              <LatitudeDegrees>43.4675612859427928924560546875</LatitudeDegrees>
              <LongitudeDegrees>-5.07651063613593578338623046875</LongitudeDegrees>
            </Position>
            <AltitudeMeters>-3.2000000476837158203125</AltitudeMeters>
            <DistanceMeters>NAN</DistanceMeters>
          </Trackpoint>
          <Trackpoint>
            <Time>2022-07-16T16:02:35.000Z</Time>
            <Position>
              <LatitudeDegrees>43.46755734644830226898193359375</LatitudeDegrees>
              <LongitudeDegrees>-5.0765199400484561920166015625</LongitudeDegrees>
            </Position>
            <AltitudeMeters>-3.2000000476837158203125</AltitudeMeters>
            <DistanceMeters>NAN</DistanceMeters>
          </Trackpoint>
          <Trackpoint>
            <Time>2022-07-16T16:02:36.000Z</Time>
            <Position>
              <LatitudeDegrees>43.46755567006766796112060546875</LatitudeDegrees>
              <LongitudeDegrees>-5.076530165970325469970703125</LongitudeDegrees>
            </Position>
            <AltitudeMeters>-3.2000000476837158203125</AltitudeMeters>
            <DistanceMeters>NAN</DistanceMeters>
          </Trackpoint>
          <Trackpoint>
            <Time>2022-07-16T16:02:38.000Z</Time>
            <Position>
              <LatitudeDegrees>43.46754058264195919036865234375</LatitudeDegrees>
              <LongitudeDegrees>-5.0765249691903591156005859375</LongitudeDegrees>
            </Position>
            <AltitudeMeters>-3</AltitudeMeters>
            <DistanceMeters>NAN</DistanceMeters>
          </Trackpoint>
          <Trackpoint>
            <Time>2022-07-16T16:02:40.000Z</Time>
            <Position>
              <LatitudeDegrees>43.46750202588737010955810546875</LatitudeDegrees>
              <LongitudeDegrees>-5.07651499472558498382568359375</LongitudeDegrees>
            </Position>
            <AltitudeMeters>-3</AltitudeMeters>
            <DistanceMeters>NAN</DistanceMeters>
          </Trackpoint>
          <Trackpoint>
            <Time>2022-07-16T16:02:43.000Z</Time>
            <Position>
              <LatitudeDegrees>43.46750202588737010955810546875</LatitudeDegrees>
              <LongitudeDegrees>-5.07651499472558498382568359375</LongitudeDegrees>
            </Position>
            <AltitudeMeters>-3.2000000476837158203125</AltitudeMeters>
            <DistanceMeters>NAN</DistanceMeters>
          </Trackpoint>
          <Trackpoint>
            <Time>2022-07-16T16:02:45.000Z</Time>
            <Position>
              <LatitudeDegrees>43.46750202588737010955810546875</LatitudeDegrees>
              <LongitudeDegrees>-5.07651499472558498382568359375</LongitudeDegrees>
            </Position>
            <AltitudeMeters>-3.400000095367431640625</AltitudeMeters>
            <DistanceMeters>NAN</DistanceMeters>
          </Trackpoint>
          <Trackpoint>
            <Time>2022-07-16T16:03:25.000Z</Time>
            <Position>
              <LatitudeDegrees>43.46746296621859073638916015625</LatitudeDegrees>
              <LongitudeDegrees>-5.0765242986381053924560546875</LongitudeDegrees>
            </Position>
            <AltitudeMeters>-3</AltitudeMeters>
            <DistanceMeters>NAN</DistanceMeters>
          </Trackpoint>
          <Trackpoint>
            <Time>2022-07-16T16:03:26.000Z</Time>
            <Position>
              <LatitudeDegrees>43.46745978109538555145263671875</LatitudeDegrees>
              <LongitudeDegrees>-5.0765259750187397003173828125</LongitudeDegrees>
            </Position>
            <AltitudeMeters>-3</AltitudeMeters>
            <DistanceMeters>NAN</DistanceMeters>
          </Trackpoint>
          <Trackpoint>
            <Time>2022-07-16T16:03:28.000Z</Time>
            <Position>
              <LatitudeDegrees>43.46745978109538555145263671875</LatitudeDegrees>
              <LongitudeDegrees>-5.0765259750187397003173828125</LongitudeDegrees>
            </Position>
            <AltitudeMeters>-3</AltitudeMeters>
            <DistanceMeters>NAN</DistanceMeters>
          </Trackpoint>
          <Trackpoint>
            <Time>2022-07-16T16:03:40.000Z</Time>
            <Position>
              <LatitudeDegrees>43.4674714319407939910888671875</LatitudeDegrees>
              <LongitudeDegrees>-5.076552294194698333740234375</LongitudeDegrees>
            </Position>
            <AltitudeMeters>-3.400000095367431640625</AltitudeMeters>
            <DistanceMeters>NAN</DistanceMeters>
          </Trackpoint>
          <Trackpoint>
            <Time>2022-07-16T16:03:43.000Z</Time>
            <Position>
              <LatitudeDegrees>43.46747889183461666107177734375</LatitudeDegrees>
              <LongitudeDegrees>-5.0765527971088886260986328125</LongitudeDegrees>
            </Position>
            <AltitudeMeters>-3.400000095367431640625</AltitudeMeters>
            <DistanceMeters>NAN</DistanceMeters>
          </Trackpoint>
          <Trackpoint>
            <Time>2022-07-16T16:03:44.000Z</Time>
            <Position>
              <LatitudeDegrees>43.4675042890012264251708984375</LatitudeDegrees>
              <LongitudeDegrees>-5.0765340216457843780517578125</LongitudeDegrees>
            </Position>
            <AltitudeMeters>-3.599999904632568359375</AltitudeMeters>
            <DistanceMeters>NAN</DistanceMeters>
          </Trackpoint>
          <Trackpoint>
            <Time>2022-07-16T16:03:46.000Z</Time>
            <Position>
              <LatitudeDegrees>43.46753873862326145172119140625</LatitudeDegrees>
              <LongitudeDegrees>-5.07653108797967433929443359375</LongitudeDegrees>
            </Position>
            <AltitudeMeters>-4.19999980926513671875</AltitudeMeters>
            <DistanceMeters>NAN</DistanceMeters>
          </Trackpoint>
          <Trackpoint>
            <Time>2022-07-16T16:03:47.000Z</Time>
            <Position>
              <LatitudeDegrees>43.4675368107855319976806640625</LatitudeDegrees>
              <LongitudeDegrees>-5.0765263102948665618896484375</LongitudeDegrees>
            </Position>
            <AltitudeMeters>-4.19999980926513671875</AltitudeMeters>
            <DistanceMeters>NAN</DistanceMeters>
          </Trackpoint>
          <Trackpoint>
            <Time>2022-07-16T16:03:48.000Z</Time>
            <Position>
              <LatitudeDegrees>43.46749884076416492462158203125</LatitudeDegrees>
              <LongitudeDegrees>-5.0765306688845157623291015625</LongitudeDegrees>
            </Position>
            <AltitudeMeters>-4.400000095367431640625</AltitudeMeters>
            <DistanceMeters>NAN</DistanceMeters>
          </Trackpoint>
          <Trackpoint>
            <Time>2022-07-16T16:03:52.000Z</Time>
            <Position>
              <LatitudeDegrees>43.46747704781591892242431640625</LatitudeDegrees>
              <LongitudeDegrees>-5.076533518731594085693359375</LongitudeDegrees>
            </Position>
            <AltitudeMeters>-4.599999904632568359375</AltitudeMeters>
            <DistanceMeters>NAN</DistanceMeters>
          </Trackpoint>
          <Trackpoint>
            <Time>2022-07-16T16:03:54.000Z</Time>
            <Position>
              <LatitudeDegrees>43.4674315340816974639892578125</LatitudeDegrees>
              <LongitudeDegrees>-5.076424889266490936279296875</LongitudeDegrees>
            </Position>
            <AltitudeMeters>-4.80000019073486328125</AltitudeMeters>
            <DistanceMeters>NAN</DistanceMeters>
          </Trackpoint>
          <Trackpoint>
            <Time>2022-07-16T16:03:57.000Z</Time>
            <Position>
              <LatitudeDegrees>43.46742642112076282501220703125</LatitudeDegrees>
              <LongitudeDegrees>-5.07639111019670963287353515625</LongitudeDegrees>
            </Position>
            <AltitudeMeters>-5.599999904632568359375</AltitudeMeters>
            <DistanceMeters>NAN</DistanceMeters>
          </Trackpoint>
          <Trackpoint>
            <Time>2022-07-16T16:04:04.000Z</Time>
            <Position>
              <LatitudeDegrees>43.46741192042827606201171875</LatitudeDegrees>
              <LongitudeDegrees>-5.076430924236774444580078125</LongitudeDegrees>
            </Position>
            <AltitudeMeters>-7.599999904632568359375</AltitudeMeters>
            <DistanceMeters>NAN</DistanceMeters>
          </Trackpoint>
          <Trackpoint>
            <Time>2022-07-16T16:04:05.000Z</Time>
            <Position>
              <LatitudeDegrees>43.4674077294766902923583984375</LatitudeDegrees>
              <LongitudeDegrees>-5.076416172087192535400390625</LongitudeDegrees>
            </Position>
            <AltitudeMeters>-7.80000019073486328125</AltitudeMeters>
            <DistanceMeters>NAN</DistanceMeters>
          </Trackpoint>
          <Trackpoint>
            <Time>2022-07-16T16:04:06.000Z</Time>
            <Position>
              <LatitudeDegrees>43.46739356406033039093017578125</LatitudeDegrees>
              <LongitudeDegrees>-5.0764250569045543670654296875</LongitudeDegrees>
            </Position>
            <AltitudeMeters>-8</AltitudeMeters>
            <DistanceMeters>NAN</DistanceMeters>
          </Trackpoint>
          <Trackpoint>
            <Time>2022-07-16T16:04:08.000Z</Time>
            <Position>
              <LatitudeDegrees>43.4673802368342876434326171875</LatitudeDegrees>
              <LongitudeDegrees>-5.076390020549297332763671875</LongitudeDegrees>
            </Position>
            <AltitudeMeters>-8.3999996185302734375</AltitudeMeters>
            <DistanceMeters>NAN</DistanceMeters>
          </Trackpoint>
          <Trackpoint>
            <Time>2022-07-16T16:04:10.000Z</Time>
            <Position>
              <LatitudeDegrees>43.4673802368342876434326171875</LatitudeDegrees>
              <LongitudeDegrees>-5.076390020549297332763671875</LongitudeDegrees>
            </Position>
            <AltitudeMeters>-8.6000003814697265625</AltitudeMeters>
            <DistanceMeters>NAN</DistanceMeters>
          </Trackpoint>
          <Trackpoint>
            <Time>2022-07-16T16:04:16.000Z</Time>
            <Position>
              <LatitudeDegrees>43.4674219787120819091796875</LatitudeDegrees>
              <LongitudeDegrees>-5.07648398168385028839111328125</LongitudeDegrees>
            </Position>
            <AltitudeMeters>-8.3999996185302734375</AltitudeMeters>
            <DistanceMeters>NAN</DistanceMeters>
          </Trackpoint>
          <Trackpoint>
            <Time>2022-07-16T16:04:17.000Z</Time>
            <Position>
              <LatitudeDegrees>43.46741803921759128570556640625</LatitudeDegrees>
              <LongitudeDegrees>-5.076512731611728668212890625</LongitudeDegrees>
            </Position>
            <AltitudeMeters>-8.6000003814697265625</AltitudeMeters>
            <DistanceMeters>NAN</DistanceMeters>
          </Trackpoint>
          <Trackpoint>
            <Time>2022-07-16T16:04:18.000Z</Time>
            <Position>
              <LatitudeDegrees>43.46741460263729095458984375</LatitudeDegrees>
              <LongitudeDegrees>-5.076538883149623870849609375</LongitudeDegrees>
            </Position>
            <AltitudeMeters>-8.6000003814697265625</AltitudeMeters>
            <DistanceMeters>NAN</DistanceMeters>
          </Trackpoint>
          <Trackpoint>
            <Time>2022-07-16T16:04:20.000Z</Time>
            <Position>
              <LatitudeDegrees>43.46743580885231494903564453125</LatitudeDegrees>
              <LongitudeDegrees>-5.07657065056264400482177734375</LongitudeDegrees>
            </Position>
            <AltitudeMeters>-7.400000095367431640625</AltitudeMeters>
            <DistanceMeters>NAN</DistanceMeters>
          </Trackpoint>
          <Trackpoint>
            <Time>2022-07-16T16:04:21.000Z</Time>
            <Position>
              <LatitudeDegrees>43.46744754351675510406494140625</LatitudeDegrees>
              <LongitudeDegrees>-5.07655975408852100372314453125</LongitudeDegrees>
            </Position>
            <AltitudeMeters>-7.400000095367431640625</AltitudeMeters>
            <DistanceMeters>NAN</DistanceMeters>
          </Trackpoint>
          <Trackpoint>
            <Time>2022-07-16T16:04:23.000Z</Time>
            <Position>
              <LatitudeDegrees>43.46744008362293243408203125</LatitudeDegrees>
              <LongitudeDegrees>-5.076555311679840087890625</LongitudeDegrees>
            </Position>
            <AltitudeMeters>-8.80000019073486328125</AltitudeMeters>
            <DistanceMeters>NAN</DistanceMeters>
          </Trackpoint>
          <Trackpoint>
            <Time>2022-07-16T16:04:24.000Z</Time>
            <Position>
              <LatitudeDegrees>43.467431701719760894775390625</LatitudeDegrees>
              <LongitudeDegrees>-5.076587162911891937255859375</LongitudeDegrees>
            </Position>
            <AltitudeMeters>-10.3999996185302734375</AltitudeMeters>
            <DistanceMeters>NAN</DistanceMeters>
          </Trackpoint>
          <Trackpoint>
            <Time>2022-07-16T16:04:26.000Z</Time>
            <Position>
              <LatitudeDegrees>43.46747268922626972198486328125</LatitudeDegrees>
              <LongitudeDegrees>-5.07667140103876590728759765625</LongitudeDegrees>
            </Position>
            <AltitudeMeters>-11.6000003814697265625</AltitudeMeters>
            <DistanceMeters>NAN</DistanceMeters>
          </Trackpoint>
          <Trackpoint>
            <Time>2022-07-16T16:04:27.000Z</Time>
            <Position>
              <LatitudeDegrees>43.46748274751007556915283203125</LatitudeDegrees>
              <LongitudeDegrees>-5.07665312848985195159912109375</LongitudeDegrees>
            </Position>
            <AltitudeMeters>-11.80000019073486328125</AltitudeMeters>
            <DistanceMeters>NAN</DistanceMeters>
          </Trackpoint>
          <Trackpoint>
            <Time>2022-07-16T16:04:29.000Z</Time>
            <Position>
              <LatitudeDegrees>43.46745374612510204315185546875</LatitudeDegrees>
              <LongitudeDegrees>-5.07658054120838642120361328125</LongitudeDegrees>
            </Position>
            <AltitudeMeters>-12</AltitudeMeters>
            <DistanceMeters>NAN</DistanceMeters>
          </Trackpoint>
          <Trackpoint>
            <Time>2022-07-16T16:04:31.000Z</Time>
            <Position>
              <LatitudeDegrees>43.46743203699588775634765625</LatitudeDegrees>
              <LongitudeDegrees>-5.076491944491863250732421875</LongitudeDegrees>
            </Position>
            <AltitudeMeters>-12</AltitudeMeters>
            <DistanceMeters>NAN</DistanceMeters>
          </Trackpoint>
          <Trackpoint>
            <Time>2022-07-16T16:04:34.000Z</Time>
            <Position>
              <LatitudeDegrees>43.4674179553985595703125</LatitudeDegrees>
              <LongitudeDegrees>-5.0764428265392780303955078125</LongitudeDegrees>
            </Position>
            <AltitudeMeters>-10.3999996185302734375</AltitudeMeters>
            <DistanceMeters>NAN</DistanceMeters>
          </Trackpoint>
          <Trackpoint>
            <Time>2022-07-16T16:04:37.000Z</Time>
            <Position>
              <LatitudeDegrees>43.46739574335515499114990234375</LatitudeDegrees>
              <LongitudeDegrees>-5.07640703581273555755615234375</LongitudeDegrees>
            </Position>
            <AltitudeMeters>-10</AltitudeMeters>
            <DistanceMeters>NAN</DistanceMeters>
          </Trackpoint>
          <Trackpoint>
            <Time>2022-07-16T16:04:41.000Z</Time>
            <Position>
              <LatitudeDegrees>43.4673869423568248748779296875</LatitudeDegrees>
              <LongitudeDegrees>-5.07643721066415309906005859375</LongitudeDegrees>
            </Position>
            <AltitudeMeters>-10.19999980926513671875</AltitudeMeters>
            <DistanceMeters>NAN</DistanceMeters>
          </Trackpoint>
          <Trackpoint>
            <Time>2022-07-16T16:04:45.000Z</Time>
            <Position>
              <LatitudeDegrees>43.467384763062000274658203125</LatitudeDegrees>
              <LongitudeDegrees>-5.076439641416072845458984375</LongitudeDegrees>
            </Position>
            <AltitudeMeters>-9</AltitudeMeters>
            <DistanceMeters>NAN</DistanceMeters>
          </Trackpoint>
          <Trackpoint>
            <Time>2022-07-16T16:04:48.000Z</Time>
            <Position>
              <LatitudeDegrees>43.4673939831554889678955078125</LatitudeDegrees>
              <LongitudeDegrees>-5.0764434970915317535400390625</LongitudeDegrees>
            </Position>
            <AltitudeMeters>-8.6000003814697265625</AltitudeMeters>
            <DistanceMeters>NAN</DistanceMeters>
          </Trackpoint>
          <Trackpoint>
            <Time>2022-07-16T16:04:50.000Z</Time>
            <Position>
              <LatitudeDegrees>43.4673939831554889678955078125</LatitudeDegrees>
              <LongitudeDegrees>-5.0764434970915317535400390625</LongitudeDegrees>
            </Position>
            <AltitudeMeters>-8.6000003814697265625</AltitudeMeters>
            <DistanceMeters>NAN</DistanceMeters>
          </Trackpoint>
          <Trackpoint>
            <Time>2022-07-16T16:05:16.000Z</Time>
            <Position>
              <LatitudeDegrees>43.46745039336383342742919921875</LatitudeDegrees>
              <LongitudeDegrees>-5.07650242187082767486572265625</LongitudeDegrees>
            </Position>
            <AltitudeMeters>-9.19999980926513671875</AltitudeMeters>
            <DistanceMeters>NAN</DistanceMeters>
          </Trackpoint>
          <Trackpoint>
            <Time>2022-07-16T16:05:17.000Z</Time>
            <Position>
              <LatitudeDegrees>43.46745039336383342742919921875</LatitudeDegrees>
              <LongitudeDegrees>-5.07650242187082767486572265625</LongitudeDegrees>
            </Position>
            <AltitudeMeters>-8.80000019073486328125</AltitudeMeters>
            <DistanceMeters>NAN</DistanceMeters>
          </Trackpoint>
          <Trackpoint>
            <Time>2022-07-16T16:05:18.000Z</Time>
            <Position>
              <LatitudeDegrees>43.46745039336383342742919921875</LatitudeDegrees>
              <LongitudeDegrees>-5.07650242187082767486572265625</LongitudeDegrees>
            </Position>
            <AltitudeMeters>-8.80000019073486328125</AltitudeMeters>
            <DistanceMeters>NAN</DistanceMeters>
          </Trackpoint>
          <Trackpoint>
            <Time>2022-07-16T16:05:38.000Z</Time>
            <Position>
              <LatitudeDegrees>43.46750688739120960235595703125</LatitudeDegrees>
              <LongitudeDegrees>-5.07655288092792034149169921875</LongitudeDegrees>
            </Position>
            <AltitudeMeters>-6.19999980926513671875</AltitudeMeters>
            <DistanceMeters>NAN</DistanceMeters>
          </Trackpoint>
          <Trackpoint>
            <Time>2022-07-16T16:05:40.000Z</Time>
            <Position>
              <LatitudeDegrees>43.4675113297998905181884765625</LatitudeDegrees>
              <LongitudeDegrees>-5.0765595026314258575439453125</LongitudeDegrees>
            </Position>
            <AltitudeMeters>-6.19999980926513671875</AltitudeMeters>
            <DistanceMeters>NAN</DistanceMeters>
          </Trackpoint>
          <Trackpoint>
            <Time>2022-07-16T16:05:41.000Z</Time>
            <Position>
              <LatitudeDegrees>43.4675136767327785491943359375</LatitudeDegrees>
              <LongitudeDegrees>-5.07656377740204334259033203125</LongitudeDegrees>
            </Position>
            <AltitudeMeters>-6.19999980926513671875</AltitudeMeters>
            <DistanceMeters>NAN</DistanceMeters>
          </Trackpoint>
          <Trackpoint>
            <Time>2022-07-16T16:05:43.000Z</Time>
            <Position>
              <LatitudeDegrees>43.46746380440890789031982421875</LatitudeDegrees>
              <LongitudeDegrees>-5.0765568204224109649658203125</LongitudeDegrees>
            </Position>
            <AltitudeMeters>-6.19999980926513671875</AltitudeMeters>
            <DistanceMeters>NAN</DistanceMeters>
          </Trackpoint>
          <Trackpoint>
            <Time>2022-07-16T16:05:44.000Z</Time>
            <Position>
              <LatitudeDegrees>43.46745257265865802764892578125</LatitudeDegrees>
              <LongitudeDegrees>-5.07655003108084201812744140625</LongitudeDegrees>
            </Position>
            <AltitudeMeters>-6.400000095367431640625</AltitudeMeters>
            <DistanceMeters>NAN</DistanceMeters>
          </Trackpoint>
          <Trackpoint>
            <Time>2022-07-16T16:05:45.000Z</Time>
            <Position>
              <LatitudeDegrees>43.46744368784129619598388671875</LatitudeDegrees>
              <LongitudeDegrees>-5.07653377018868923187255859375</LongitudeDegrees>
            </Position>
            <AltitudeMeters>-7</AltitudeMeters>
            <DistanceMeters>NAN</DistanceMeters>
          </Trackpoint>
          <Trackpoint>
            <Time>2022-07-16T16:05:46.000Z</Time>
            <Position>
              <LatitudeDegrees>43.46742331981658935546875</LatitudeDegrees>
              <LongitudeDegrees>-5.07655304856598377227783203125</LongitudeDegrees>
            </Position>
            <AltitudeMeters>-7.19999980926513671875</AltitudeMeters>
            <DistanceMeters>NAN</DistanceMeters>
          </Trackpoint>
          <Trackpoint>
            <Time>2022-07-16T16:05:48.000Z</Time>
            <Position>
              <LatitudeDegrees>43.4674127586185932159423828125</LatitudeDegrees>
              <LongitudeDegrees>-5.07656059227883815765380859375</LongitudeDegrees>
            </Position>
            <AltitudeMeters>-7.400000095367431640625</AltitudeMeters>
            <DistanceMeters>NAN</DistanceMeters>
          </Trackpoint>
          <Trackpoint>
            <Time>2022-07-16T16:05:50.000Z</Time>
            <Position>
              <LatitudeDegrees>43.46740580163896083831787109375</LatitudeDegrees>
              <LongitudeDegrees>-5.07654969580471515655517578125</LongitudeDegrees>
            </Position>
            <AltitudeMeters>-7.400000095367431640625</AltitudeMeters>
            <DistanceMeters>NAN</DistanceMeters>
          </Trackpoint>
          <Trackpoint>
            <Time>2022-07-16T16:05:57.000Z</Time>
            <Position>
              <LatitudeDegrees>43.4674244932830333709716796875</LatitudeDegrees>
              <LongitudeDegrees>-5.076532177627086639404296875</LongitudeDegrees>
            </Position>
            <AltitudeMeters>-6.599999904632568359375</AltitudeMeters>
            <DistanceMeters>NAN</DistanceMeters>
          </Trackpoint>
          <Trackpoint>
            <Time>2022-07-16T16:06:02.000Z</Time>
            <Position>
              <LatitudeDegrees>43.46742809750139713287353515625</LatitudeDegrees>
              <LongitudeDegrees>-5.0765030086040496826171875</LongitudeDegrees>
            </Position>
            <AltitudeMeters>-6.400000095367431640625</AltitudeMeters>
            <DistanceMeters>NAN</DistanceMeters>
          </Trackpoint>
          <Trackpoint>
            <Time>2022-07-16T16:06:25.000Z</Time>
            <Position>
              <LatitudeDegrees>43.4674925543367862701416015625</LatitudeDegrees>
              <LongitudeDegrees>-5.07648247294127941131591796875</LongitudeDegrees>
            </Position>
            <AltitudeMeters>-5.400000095367431640625</AltitudeMeters>
            <DistanceMeters>NAN</DistanceMeters>
          </Trackpoint>
          <Trackpoint>
            <Time>2022-07-16T16:06:28.000Z</Time>
            <Position>
              <LatitudeDegrees>43.467540331184864044189453125</LatitudeDegrees>
              <LongitudeDegrees>-5.0765018351376056671142578125</LongitudeDegrees>
            </Position>
            <AltitudeMeters>-5.19999980926513671875</AltitudeMeters>
            <DistanceMeters>NAN</DistanceMeters>
          </Trackpoint>
          <Trackpoint>
            <Time>2022-07-16T16:06:29.000Z</Time>
            <Position>
              <LatitudeDegrees>43.467540331184864044189453125</LatitudeDegrees>
              <LongitudeDegrees>-5.0765018351376056671142578125</LongitudeDegrees>
            </Position>
            <AltitudeMeters>-5.19999980926513671875</AltitudeMeters>
            <DistanceMeters>NAN</DistanceMeters>
          </Trackpoint>
          <Trackpoint>
            <Time>2022-07-16T16:06:32.000Z</Time>
            <Position>
              <LatitudeDegrees>43.46753924153745174407958984375</LatitudeDegrees>
              <LongitudeDegrees>-5.07651398889720439910888671875</LongitudeDegrees>
            </Position>
            <AltitudeMeters>-5.400000095367431640625</AltitudeMeters>
            <DistanceMeters>NAN</DistanceMeters>
          </Trackpoint>
          <Trackpoint>
            <Time>2022-07-16T16:06:34.000Z</Time>
            <Position>
              <LatitudeDegrees>43.46754066646099090576171875</LatitudeDegrees>
              <LongitudeDegrees>-5.07650929503142833709716796875</LongitudeDegrees>
            </Position>
            <AltitudeMeters>-5.400000095367431640625</AltitudeMeters>
            <DistanceMeters>NAN</DistanceMeters>
          </Trackpoint>
          <Trackpoint>
            <Time>2022-07-16T16:06:37.000Z</Time>
            <Position>
              <LatitudeDegrees>43.46754393540322780609130859375</LatitudeDegrees>
              <LongitudeDegrees>-5.0763769447803497314453125</LongitudeDegrees>
            </Position>
            <AltitudeMeters>-4.599999904632568359375</AltitudeMeters>
            <DistanceMeters>NAN</DistanceMeters>
          </Trackpoint>
          <Trackpoint>
            <Time>2022-07-16T16:06:38.000Z</Time>
            <Position>
              <LatitudeDegrees>43.46751543693244457244873046875</LatitudeDegrees>
              <LongitudeDegrees>-5.07638423703610897064208984375</LongitudeDegrees>
            </Position>
            <AltitudeMeters>-4.400000095367431640625</AltitudeMeters>
            <DistanceMeters>NAN</DistanceMeters>
          </Trackpoint>
          <Trackpoint>
            <Time>2022-07-16T16:06:39.000Z</Time>
            <Position>
              <LatitudeDegrees>43.46753471530973911285400390625</LatitudeDegrees>
              <LongitudeDegrees>-5.07641307078301906585693359375</LongitudeDegrees>
            </Position>
            <AltitudeMeters>-4.400000095367431640625</AltitudeMeters>
            <DistanceMeters>NAN</DistanceMeters>
          </Trackpoint>
          <Trackpoint>
            <Time>2022-07-16T16:06:40.000Z</Time>
            <Position>
              <LatitudeDegrees>43.4675364755094051361083984375</LatitudeDegrees>
              <LongitudeDegrees>-5.0764059461653232574462890625</LongitudeDegrees>
            </Position>
            <AltitudeMeters>-4.19999980926513671875</AltitudeMeters>
            <DistanceMeters>NAN</DistanceMeters>
          </Trackpoint>
          <Trackpoint>
            <Time>2022-07-16T16:06:45.000Z</Time>
            <Position>
              <LatitudeDegrees>43.4675408340990543365478515625</LatitudeDegrees>
              <LongitudeDegrees>-5.07639178074896335601806640625</LongitudeDegrees>
            </Position>
            <AltitudeMeters>-3.7999999523162841796875</AltitudeMeters>
            <DistanceMeters>NAN</DistanceMeters>
          </Trackpoint>
          <Trackpoint>
            <Time>2022-07-16T16:06:54.000Z</Time>
            <Position>
              <LatitudeDegrees>43.46749867312610149383544921875</LatitudeDegrees>
              <LongitudeDegrees>-5.07641407661139965057373046875</LongitudeDegrees>
            </Position>
            <AltitudeMeters>-4.19999980926513671875</AltitudeMeters>
            <DistanceMeters>NAN</DistanceMeters>
          </Trackpoint>
          <Trackpoint>
            <Time>2022-07-16T16:06:55.000Z</Time>
            <Position>
              <LatitudeDegrees>43.46749238669872283935546875</LatitudeDegrees>
              <LongitudeDegrees>-5.0764149986207485198974609375</LongitudeDegrees>
            </Position>
            <AltitudeMeters>-4.19999980926513671875</AltitudeMeters>
            <DistanceMeters>NAN</DistanceMeters>
          </Trackpoint>
          <Trackpoint>
            <Time>2022-07-16T16:06:57.000Z</Time>
            <Position>
              <LatitudeDegrees>43.46749238669872283935546875</LatitudeDegrees>
              <LongitudeDegrees>-5.0764149986207485198974609375</LongitudeDegrees>
            </Position>
            <AltitudeMeters>-3.599999904632568359375</AltitudeMeters>
            <DistanceMeters>NAN</DistanceMeters>
          </Trackpoint>
          <Trackpoint>
            <Time>2022-07-16T16:08:11.000Z</Time>
            <Position>
              <LatitudeDegrees>43.46760495565831661224365234375</LatitudeDegrees>
              <LongitudeDegrees>-5.0764398090541362762451171875</LongitudeDegrees>
            </Position>
            <AltitudeMeters>0.4000000059604644775390625</AltitudeMeters>
            <DistanceMeters>NAN</DistanceMeters>
          </Trackpoint>
          <Trackpoint>
            <Time>2022-07-16T16:08:12.000Z</Time>
            <Position>
              <LatitudeDegrees>43.46759204752743244171142578125</LatitudeDegrees>
              <LongitudeDegrees>-5.0764699839055538177490234375</LongitudeDegrees>
            </Position>
            <AltitudeMeters>0.4000000059604644775390625</AltitudeMeters>
            <DistanceMeters>NAN</DistanceMeters>
          </Trackpoint>
          <Trackpoint>
            <Time>2022-07-16T16:08:19.000Z</Time>
            <Position>
              <LatitudeDegrees>43.4674516506493091583251953125</LatitudeDegrees>
              <LongitudeDegrees>-5.0766929425299167633056640625</LongitudeDegrees>
            </Position>
            <AltitudeMeters>0.20000000298023223876953125</AltitudeMeters>
            <DistanceMeters>NAN</DistanceMeters>
          </Trackpoint>
          <Trackpoint>
            <Time>2022-07-16T16:08:25.000Z</Time>
            <Position>
              <LatitudeDegrees>43.46730521880090236663818359375</LatitudeDegrees>
              <LongitudeDegrees>-5.07687675766646862030029296875</LongitudeDegrees>
            </Position>
            <AltitudeMeters>0.20000000298023223876953125</AltitudeMeters>
            <DistanceMeters>NAN</DistanceMeters>
          </Trackpoint>
          <Trackpoint>
            <Time>2022-07-16T16:08:31.000Z</Time>
            <Position>
              <LatitudeDegrees>43.467148058116436004638671875</LatitudeDegrees>
              <LongitudeDegrees>-5.07706501521170139312744140625</LongitudeDegrees>
            </Position>
            <AltitudeMeters>0.60000002384185791015625</AltitudeMeters>
            <DistanceMeters>NAN</DistanceMeters>
          </Trackpoint>
          <Trackpoint>
            <Time>2022-07-16T16:08:36.000Z</Time>
            <Position>
              <LatitudeDegrees>43.46701470203697681427001953125</LatitudeDegrees>
              <LongitudeDegrees>-5.077235586941242218017578125</LongitudeDegrees>
            </Position>
            <AltitudeMeters>0.800000011920928955078125</AltitudeMeters>
            <DistanceMeters>NAN</DistanceMeters>
          </Trackpoint>
          <Trackpoint>
            <Time>2022-07-16T16:08:39.000Z</Time>
            <Position>
              <LatitudeDegrees>43.46693155355751514434814453125</LatitudeDegrees>
              <LongitudeDegrees>-5.07733357138931751251220703125</LongitudeDegrees>
            </Position>
            <AltitudeMeters>0.800000011920928955078125</AltitudeMeters>
            <DistanceMeters>NAN</DistanceMeters>
          </Trackpoint>
          <Trackpoint>
            <Time>2022-07-16T16:08:43.000Z</Time>
            <Position>
              <LatitudeDegrees>43.46688461489975452423095703125</LatitudeDegrees>
              <LongitudeDegrees>-5.07748126052320003509521484375</LongitudeDegrees>
            </Position>
            <AltitudeMeters>0.800000011920928955078125</AltitudeMeters>
            <DistanceMeters>NAN</DistanceMeters>
          </Trackpoint>
          <Trackpoint>
            <Time>2022-07-16T16:08:48.000Z</Time>
            <Position>
              <LatitudeDegrees>43.46684052608907222747802734375</LatitudeDegrees>
              <LongitudeDegrees>-5.077651999890804290771484375</LongitudeDegrees>
            </Position>
            <AltitudeMeters>1</AltitudeMeters>
            <DistanceMeters>NAN</DistanceMeters>
          </Trackpoint>
          <Trackpoint>
            <Time>2022-07-16T16:08:49.000Z</Time>
            <Position>
              <LatitudeDegrees>43.46684438176453113555908203125</LatitudeDegrees>
              <LongitudeDegrees>-5.0776937417685985565185546875</LongitudeDegrees>
            </Position>
            <AltitudeMeters>1.2000000476837158203125</AltitudeMeters>
            <DistanceMeters>NAN</DistanceMeters>
          </Trackpoint>
          <Trackpoint>
            <Time>2022-07-16T16:08:53.000Z</Time>
            <Position>
              <LatitudeDegrees>43.46691705286502838134765625</LatitudeDegrees>
              <LongitudeDegrees>-5.07786531932651996612548828125</LongitudeDegrees>
            </Position>
            <AltitudeMeters>1.39999997615814208984375</AltitudeMeters>
            <DistanceMeters>NAN</DistanceMeters>
          </Trackpoint>
          <Trackpoint>
            <Time>2022-07-16T16:08:55.000Z</Time>
            <Position>
              <LatitudeDegrees>43.46694982610642910003662109375</LatitudeDegrees>
              <LongitudeDegrees>-5.07794578559696674346923828125</LongitudeDegrees>
            </Position>
            <AltitudeMeters>1.60000002384185791015625</AltitudeMeters>
            <DistanceMeters>NAN</DistanceMeters>
          </Trackpoint>
          <Trackpoint>
            <Time>2022-07-16T16:09:03.000Z</Time>
            <Position>
              <LatitudeDegrees>43.46709407866001129150390625</LatitudeDegrees>
              <LongitudeDegrees>-5.0782741047441959381103515625</LongitudeDegrees>
            </Position>
            <AltitudeMeters>2.2000000476837158203125</AltitudeMeters>
            <DistanceMeters>NAN</DistanceMeters>
          </Trackpoint>
          <Trackpoint>
            <Time>2022-07-16T16:09:05.000Z</Time>
            <Position>
              <LatitudeDegrees>43.46712249331176280975341796875</LatitudeDegrees>
              <LongitudeDegrees>-5.07835800759494304656982421875</LongitudeDegrees>
            </Position>
            <AltitudeMeters>2.400000095367431640625</AltitudeMeters>
            <DistanceMeters>NAN</DistanceMeters>
          </Trackpoint>
          <Trackpoint>
            <Time>2022-07-16T16:09:11.000Z</Time>
            <Position>
              <LatitudeDegrees>43.46719591878354549407958984375</LatitudeDegrees>
              <LongitudeDegrees>-5.07862019352614879608154296875</LongitudeDegrees>
            </Position>
            <AltitudeMeters>2.7999999523162841796875</AltitudeMeters>
            <DistanceMeters>NAN</DistanceMeters>
          </Trackpoint>
          <Trackpoint>
            <Time>2022-07-16T16:09:21.000Z</Time>
            <Position>
              <LatitudeDegrees>43.4672947414219379425048828125</LatitudeDegrees>
              <LongitudeDegrees>-5.0790814496576786041259765625</LongitudeDegrees>
            </Position>
            <AltitudeMeters>3.400000095367431640625</AltitudeMeters>
            <DistanceMeters>NAN</DistanceMeters>
          </Trackpoint>
          <Trackpoint>
            <Time>2022-07-16T16:09:25.000Z</Time>
            <Position>
              <LatitudeDegrees>43.467329442501068115234375</LatitudeDegrees>
              <LongitudeDegrees>-5.07927482016384601593017578125</LongitudeDegrees>
            </Position>
            <AltitudeMeters>3</AltitudeMeters>
            <DistanceMeters>NAN</DistanceMeters>
          </Trackpoint>
          <Trackpoint>
            <Time>2022-07-16T16:09:27.000Z</Time>
            <Position>
              <LatitudeDegrees>43.467341177165508270263671875</LatitudeDegrees>
              <LongitudeDegrees>-5.07937137968838214874267578125</LongitudeDegrees>
            </Position>
            <AltitudeMeters>3</AltitudeMeters>
            <DistanceMeters>NAN</DistanceMeters>
          </Trackpoint>
          <Trackpoint>
            <Time>2022-07-16T16:09:29.000Z</Time>
            <Position>
              <LatitudeDegrees>43.46734913997352123260498046875</LatitudeDegrees>
              <LongitudeDegrees>-5.07946307770907878875732421875</LongitudeDegrees>
            </Position>
            <AltitudeMeters>3</AltitudeMeters>
            <DistanceMeters>NAN</DistanceMeters>
          </Trackpoint>
          <Trackpoint>
            <Time>2022-07-16T16:09:30.000Z</Time>
            <Position>
              <LatitudeDegrees>43.46735836006700992584228515625</LatitudeDegrees>
              <LongitudeDegrees>-5.079512782394886016845703125</LongitudeDegrees>
            </Position>
            <AltitudeMeters>3</AltitudeMeters>
            <DistanceMeters>NAN</DistanceMeters>
          </Trackpoint>
          <Trackpoint>
            <Time>2022-07-16T16:09:33.000Z</Time>
            <Position>
              <LatitudeDegrees>43.46737730316817760467529296875</LatitudeDegrees>
              <LongitudeDegrees>-5.07965099997818470001220703125</LongitudeDegrees>
            </Position>
            <AltitudeMeters>3</AltitudeMeters>
            <DistanceMeters>NAN</DistanceMeters>
          </Trackpoint>
          <Trackpoint>
            <Time>2022-07-16T16:09:42.000Z</Time>
            <Position>
              <LatitudeDegrees>43.4674204699695110321044921875</LatitudeDegrees>
              <LongitudeDegrees>-5.08007311262190341949462890625</LongitudeDegrees>
            </Position>
            <AltitudeMeters>2.599999904632568359375</AltitudeMeters>
            <DistanceMeters>NAN</DistanceMeters>
          </Trackpoint>
          <Trackpoint>
            <Time>2022-07-16T16:09:47.000Z</Time>
            <Position>
              <LatitudeDegrees>43.46743932925164699554443359375</LatitudeDegrees>
              <LongitudeDegrees>-5.08027612231671810150146484375</LongitudeDegrees>
            </Position>
            <AltitudeMeters>1.60000002384185791015625</AltitudeMeters>
            <DistanceMeters>NAN</DistanceMeters>
          </Trackpoint>
          <Trackpoint>
            <Time>2022-07-16T16:09:49.000Z</Time>
            <Position>
              <LatitudeDegrees>43.46745525486767292022705078125</LatitudeDegrees>
              <LongitudeDegrees>-5.0803578458726406097412109375</LongitudeDegrees>
            </Position>
            <AltitudeMeters>2</AltitudeMeters>
            <DistanceMeters>NAN</DistanceMeters>
          </Trackpoint>
          <Trackpoint>
            <Time>2022-07-16T16:09:55.000Z</Time>
            <Position>
              <LatitudeDegrees>43.46748140640556812286376953125</LatitudeDegrees>
              <LongitudeDegrees>-5.08059781976044178009033203125</LongitudeDegrees>
            </Position>
            <AltitudeMeters>2.400000095367431640625</AltitudeMeters>
            <DistanceMeters>NAN</DistanceMeters>
          </Trackpoint>
          <Trackpoint>
            <Time>2022-07-16T16:09:57.000Z</Time>
            <Position>
              <LatitudeDegrees>43.4674949012696743011474609375</LatitudeDegrees>
              <LongitudeDegrees>-5.0806719996035099029541015625</LongitudeDegrees>
            </Position>
            <AltitudeMeters>2.599999904632568359375</AltitudeMeters>
            <DistanceMeters>NAN</DistanceMeters>
          </Trackpoint>
          <Trackpoint>
            <Time>2022-07-16T16:10:02.000Z</Time>
            <Position>
              <LatitudeDegrees>43.46750856377184391021728515625</LatitudeDegrees>
              <LongitudeDegrees>-5.08085749112069606781005859375</LongitudeDegrees>
            </Position>
            <AltitudeMeters>2.7999999523162841796875</AltitudeMeters>
            <DistanceMeters>NAN</DistanceMeters>
          </Trackpoint>
          <Trackpoint>
            <Time>2022-07-16T16:10:05.000Z</Time>
            <Position>
              <LatitudeDegrees>43.4675270877778530120849609375</LatitudeDegrees>
              <LongitudeDegrees>-5.0809662044048309326171875</LongitudeDegrees>
            </Position>
            <AltitudeMeters>2.2000000476837158203125</AltitudeMeters>
            <DistanceMeters>NAN</DistanceMeters>
          </Trackpoint>
          <Trackpoint>
            <Time>2022-07-16T16:10:12.000Z</Time>
            <Position>
              <LatitudeDegrees>43.467565476894378662109375</LatitudeDegrees>
              <LongitudeDegrees>-5.0812805257737636566162109375</LongitudeDegrees>
            </Position>
            <AltitudeMeters>3.2000000476837158203125</AltitudeMeters>
            <DistanceMeters>NAN</DistanceMeters>
          </Trackpoint>
          <Trackpoint>
            <Time>2022-07-16T16:10:19.000Z</Time>
            <Position>
              <LatitudeDegrees>43.4675901196897029876708984375</LatitudeDegrees>
              <LongitudeDegrees>-5.08159182965755462646484375</LongitudeDegrees>
            </Position>
            <AltitudeMeters>3.2000000476837158203125</AltitudeMeters>
            <DistanceMeters>NAN</DistanceMeters>
          </Trackpoint>
          <Trackpoint>
            <Time>2022-07-16T16:10:20.000Z</Time>
            <Position>
              <LatitudeDegrees>43.46759162843227386474609375</LatitudeDegrees>
              <LongitudeDegrees>-5.081637091934680938720703125</LongitudeDegrees>
            </Position>
            <AltitudeMeters>3.2000000476837158203125</AltitudeMeters>
            <DistanceMeters>NAN</DistanceMeters>
          </Trackpoint>
          <Trackpoint>
            <Time>2022-07-16T16:10:23.000Z</Time>
            <Position>
              <LatitudeDegrees>43.46759858541190624237060546875</LatitudeDegrees>
              <LongitudeDegrees>-5.0817606411874294281005859375</LongitudeDegrees>
            </Position>
            <AltitudeMeters>3.400000095367431640625</AltitudeMeters>
            <DistanceMeters>NAN</DistanceMeters>
          </Trackpoint>
          <Trackpoint>
            <Time>2022-07-16T16:10:26.000Z</Time>
            <Position>
              <LatitudeDegrees>43.46761752851307392120361328125</LatitudeDegrees>
              <LongitudeDegrees>-5.08189181797206401824951171875</LongitudeDegrees>
            </Position>
            <AltitudeMeters>3.599999904632568359375</AltitudeMeters>
            <DistanceMeters>NAN</DistanceMeters>
          </Trackpoint>
          <Trackpoint>
            <Time>2022-07-16T16:10:28.000Z</Time>
            <Position>
              <LatitudeDegrees>43.467622138559818267822265625</LatitudeDegrees>
              <LongitudeDegrees>-5.081978403031826019287109375</LongitudeDegrees>
            </Position>
            <AltitudeMeters>3.599999904632568359375</AltitudeMeters>
            <DistanceMeters>NAN</DistanceMeters>
          </Trackpoint>
          <Trackpoint>
            <Time>2022-07-16T16:10:33.000Z</Time>
            <Position>
              <LatitudeDegrees>43.4676504693925380706787109375</LatitudeDegrees>
              <LongitudeDegrees>-5.08220748044550418853759765625</LongitudeDegrees>
            </Position>
            <AltitudeMeters>3.400000095367431640625</AltitudeMeters>
            <DistanceMeters>NAN</DistanceMeters>
          </Trackpoint>
          <Trackpoint>
            <Time>2022-07-16T16:10:36.000Z</Time>
            <Position>
              <LatitudeDegrees>43.467654995620250701904296875</LatitudeDegrees>
              <LongitudeDegrees>-5.08235265500843524932861328125</LongitudeDegrees>
            </Position>
            <AltitudeMeters>3.2000000476837158203125</AltitudeMeters>
            <DistanceMeters>NAN</DistanceMeters>
          </Trackpoint>
          <Trackpoint>
            <Time>2022-07-16T16:10:39.000Z</Time>
            <Position>
              <LatitudeDegrees>43.46767921932041645050048828125</LatitudeDegrees>
              <LongitudeDegrees>-5.0825062952935695648193359375</LongitudeDegrees>
            </Position>
            <AltitudeMeters>3.2000000476837158203125</AltitudeMeters>
            <DistanceMeters>NAN</DistanceMeters>
          </Trackpoint>
          <Trackpoint>
            <Time>2022-07-16T16:10:46.000Z</Time>
            <Position>
              <LatitudeDegrees>43.46771903336048126220703125</LatitudeDegrees>
              <LongitudeDegrees>-5.082855485379695892333984375</LongitudeDegrees>
            </Position>
            <AltitudeMeters>3.2000000476837158203125</AltitudeMeters>
            <DistanceMeters>NAN</DistanceMeters>
          </Trackpoint>
          <Trackpoint>
            <Time>2022-07-16T16:10:54.000Z</Time>
            <Position>
              <LatitudeDegrees>43.467735461890697479248046875</LatitudeDegrees>
              <LongitudeDegrees>-5.083244405686855316162109375</LongitudeDegrees>
            </Position>
            <AltitudeMeters>3.2000000476837158203125</AltitudeMeters>
            <DistanceMeters>NAN</DistanceMeters>
          </Trackpoint>
          <Trackpoint>
            <Time>2022-07-16T16:11:03.000Z</Time>
            <Position>
              <LatitudeDegrees>43.46776002086699008941650390625</LatitudeDegrees>
              <LongitudeDegrees>-5.0836980342864990234375</LongitudeDegrees>
            </Position>
            <AltitudeMeters>3.2000000476837158203125</AltitudeMeters>
            <DistanceMeters>NAN</DistanceMeters>
          </Trackpoint>
          <Trackpoint>
            <Time>2022-07-16T16:11:06.000Z</Time>
            <Position>
              <LatitudeDegrees>43.46777074970304965972900390625</LatitudeDegrees>
              <LongitudeDegrees>-5.0838388502597808837890625</LongitudeDegrees>
            </Position>
            <AltitudeMeters>2.400000095367431640625</AltitudeMeters>
            <DistanceMeters>NAN</DistanceMeters>
          </Trackpoint>
          <Trackpoint>
            <Time>2022-07-16T16:11:09.000Z</Time>
            <Position>
              <LatitudeDegrees>43.46777745522558689117431640625</LatitudeDegrees>
              <LongitudeDegrees>-5.083969272673130035400390625</LongitudeDegrees>
            </Position>
            <AltitudeMeters>3.2000000476837158203125</AltitudeMeters>
            <DistanceMeters>NAN</DistanceMeters>
          </Trackpoint>
          <Trackpoint>
            <Time>2022-07-16T16:11:10.000Z</Time>
            <Position>
              <LatitudeDegrees>43.46778214909136295318603515625</LatitudeDegrees>
              <LongitudeDegrees>-5.0840103439986705780029296875</LongitudeDegrees>
            </Position>
            <AltitudeMeters>3.400000095367431640625</AltitudeMeters>
            <DistanceMeters>NAN</DistanceMeters>
          </Trackpoint>
          <Trackpoint>
            <Time>2022-07-16T16:11:15.000Z</Time>
            <Position>
              <LatitudeDegrees>43.46779589541256427764892578125</LatitudeDegrees>
              <LongitudeDegrees>-5.084226764738559722900390625</LongitudeDegrees>
            </Position>
            <AltitudeMeters>3.7999999523162841796875</AltitudeMeters>
            <DistanceMeters>NAN</DistanceMeters>
          </Trackpoint>
          <Trackpoint>
            <Time>2022-07-16T16:11:23.000Z</Time>
            <Position>
              <LatitudeDegrees>43.46782791428267955780029296875</LatitudeDegrees>
              <LongitudeDegrees>-5.0846306048333644866943359375</LongitudeDegrees>
            </Position>
            <AltitudeMeters>4</AltitudeMeters>
            <DistanceMeters>NAN</DistanceMeters>
          </Trackpoint>
          <Trackpoint>
            <Time>2022-07-16T16:11:30.000Z</Time>
            <Position>
              <LatitudeDegrees>43.4678569994866847991943359375</LatitudeDegrees>
              <LongitudeDegrees>-5.0849688984453678131103515625</LongitudeDegrees>
            </Position>
            <AltitudeMeters>3.400000095367431640625</AltitudeMeters>
            <DistanceMeters>NAN</DistanceMeters>
          </Trackpoint>
          <Trackpoint>
            <Time>2022-07-16T16:11:34.000Z</Time>
            <Position>
              <LatitudeDegrees>43.4678685665130615234375</LatitudeDegrees>
              <LongitudeDegrees>-5.08516989648342132568359375</LongitudeDegrees>
            </Position>
            <AltitudeMeters>4.400000095367431640625</AltitudeMeters>
            <DistanceMeters>NAN</DistanceMeters>
          </Trackpoint>
          <Trackpoint>
            <Time>2022-07-16T16:11:40.000Z</Time>
            <Position>
              <LatitudeDegrees>43.46788457594811916351318359375</LatitudeDegrees>
              <LongitudeDegrees>-5.08545831777155399322509765625</LongitudeDegrees>
            </Position>
            <AltitudeMeters>4.400000095367431640625</AltitudeMeters>
            <DistanceMeters>NAN</DistanceMeters>
          </Trackpoint>
          <Trackpoint>
            <Time>2022-07-16T16:11:44.000Z</Time>
            <Position>
              <LatitudeDegrees>43.46788105554878711700439453125</LatitudeDegrees>
              <LongitudeDegrees>-5.08563525974750518798828125</LongitudeDegrees>
            </Position>
            <AltitudeMeters>4.400000095367431640625</AltitudeMeters>
            <DistanceMeters>NAN</DistanceMeters>
          </Trackpoint>
          <Trackpoint>
            <Time>2022-07-16T16:11:46.000Z</Time>
            <Position>
              <LatitudeDegrees>43.4678737632930278778076171875</LatitudeDegrees>
              <LongitudeDegrees>-5.0857303105294704437255859375</LongitudeDegrees>
            </Position>
            <AltitudeMeters>4.400000095367431640625</AltitudeMeters>
            <DistanceMeters>NAN</DistanceMeters>
          </Trackpoint>
          <Trackpoint>
            <Time>2022-07-16T16:11:58.000Z</Time>
            <Position>
              <LatitudeDegrees>43.467878960072994232177734375</LatitudeDegrees>
              <LongitudeDegrees>-5.0863230787217617034912109375</LongitudeDegrees>
            </Position>
            <AltitudeMeters>4.400000095367431640625</AltitudeMeters>
            <DistanceMeters>NAN</DistanceMeters>
          </Trackpoint>
          <Trackpoint>
            <Time>2022-07-16T16:12:05.000Z</Time>
            <Position>
              <LatitudeDegrees>43.46790536306798458099365234375</LatitudeDegrees>
              <LongitudeDegrees>-5.08663178421556949615478515625</LongitudeDegrees>
            </Position>
            <AltitudeMeters>4.19999980926513671875</AltitudeMeters>
            <DistanceMeters>NAN</DistanceMeters>
          </Trackpoint>
          <Trackpoint>
            <Time>2022-07-16T16:12:06.000Z</Time>
            <Position>
              <LatitudeDegrees>43.46790536306798458099365234375</LatitudeDegrees>
              <LongitudeDegrees>-5.08667461574077606201171875</LongitudeDegrees>
            </Position>
            <AltitudeMeters>4.19999980926513671875</AltitudeMeters>
            <DistanceMeters>NAN</DistanceMeters>
          </Trackpoint>
          <Trackpoint>
            <Time>2022-07-16T16:12:14.000Z</Time>
            <Position>
              <LatitudeDegrees>43.46792045049369335174560546875</LatitudeDegrees>
              <LongitudeDegrees>-5.08700259961187839508056640625</LongitudeDegrees>
            </Position>
            <AltitudeMeters>4.599999904632568359375</AltitudeMeters>
            <DistanceMeters>NAN</DistanceMeters>
          </Trackpoint>
          <Trackpoint>
            <Time>2022-07-16T16:12:20.000Z</Time>
            <Position>
              <LatitudeDegrees>43.4679324366152286529541015625</LatitudeDegrees>
              <LongitudeDegrees>-5.087236873805522918701171875</LongitudeDegrees>
            </Position>
            <AltitudeMeters>5</AltitudeMeters>
            <DistanceMeters>NAN</DistanceMeters>
          </Trackpoint>
          <Trackpoint>
            <Time>2022-07-16T16:12:24.000Z</Time>
            <Position>
              <LatitudeDegrees>43.4679388068616390228271484375</LatitudeDegrees>
              <LongitudeDegrees>-5.08737375028431415557861328125</LongitudeDegrees>
            </Position>
            <AltitudeMeters>5.400000095367431640625</AltitudeMeters>
            <DistanceMeters>NAN</DistanceMeters>
          </Trackpoint>
          <Trackpoint>
            <Time>2022-07-16T16:12:25.000Z</Time>
            <Position>
              <LatitudeDegrees>43.46793905831873416900634765625</LatitudeDegrees>
              <LongitudeDegrees>-5.08740526624023914337158203125</LongitudeDegrees>
            </Position>
            <AltitudeMeters>5.599999904632568359375</AltitudeMeters>
            <DistanceMeters>NAN</DistanceMeters>
          </Trackpoint>
          <Trackpoint>
            <Time>2022-07-16T16:12:33.000Z</Time>
            <Position>
              <LatitudeDegrees>43.46797292120754718780517578125</LatitudeDegrees>
              <LongitudeDegrees>-5.08763752877712249755859375</LongitudeDegrees>
            </Position>
            <AltitudeMeters>5.80000019073486328125</AltitudeMeters>
            <DistanceMeters>NAN</DistanceMeters>
          </Trackpoint>
          <Trackpoint>
            <Time>2022-07-16T16:12:39.000Z</Time>
            <Position>
              <LatitudeDegrees>43.4680844843387603759765625</LatitudeDegrees>
              <LongitudeDegrees>-5.08775713853538036346435546875</LongitudeDegrees>
            </Position>
            <AltitudeMeters>6.19999980926513671875</AltitudeMeters>
            <DistanceMeters>NAN</DistanceMeters>
          </Trackpoint>
          <Trackpoint>
            <Time>2022-07-16T16:12:44.000Z</Time>
            <Position>
              <LatitudeDegrees>43.4681077860295772552490234375</LatitudeDegrees>
              <LongitudeDegrees>-5.08789309300482273101806640625</LongitudeDegrees>
            </Position>
            <AltitudeMeters>6.599999904632568359375</AltitudeMeters>
            <DistanceMeters>NAN</DistanceMeters>
          </Trackpoint>
          <Trackpoint>
            <Time>2022-07-16T16:12:49.000Z</Time>
            <Position>
              <LatitudeDegrees>43.46807467751204967498779296875</LatitudeDegrees>
              <LongitudeDegrees>-5.0880311429500579833984375</LongitudeDegrees>
            </Position>
            <AltitudeMeters>7</AltitudeMeters>
            <DistanceMeters>NAN</DistanceMeters>
          </Trackpoint>
          <Trackpoint>
            <Time>2022-07-16T16:12:51.000Z</Time>
            <Position>
              <LatitudeDegrees>43.46806478686630725860595703125</LatitudeDegrees>
              <LongitudeDegrees>-5.08806693367660045623779296875</LongitudeDegrees>
            </Position>
            <AltitudeMeters>7.19999980926513671875</AltitudeMeters>
            <DistanceMeters>NAN</DistanceMeters>
          </Trackpoint>
          <Trackpoint>
            <Time>2022-07-16T16:12:56.000Z</Time>
            <Position>
              <LatitudeDegrees>43.46798147074878215789794921875</LatitudeDegrees>
              <LongitudeDegrees>-5.088145472109317779541015625</LongitudeDegrees>
            </Position>
            <AltitudeMeters>7.599999904632568359375</AltitudeMeters>
            <DistanceMeters>NAN</DistanceMeters>
          </Trackpoint>
          <Trackpoint>
            <Time>2022-07-16T16:12:57.000Z</Time>
            <Position>
              <LatitudeDegrees>43.46796386875212192535400390625</LatitudeDegrees>
              <LongitudeDegrees>-5.08817019872367382049560546875</LongitudeDegrees>
            </Position>
            <AltitudeMeters>7.599999904632568359375</AltitudeMeters>
            <DistanceMeters>NAN</DistanceMeters>
          </Trackpoint>
          <Trackpoint>
            <Time>2022-07-16T16:13:00.000Z</Time>
            <Position>
              <LatitudeDegrees>43.46794609911739826202392578125</LatitudeDegrees>
              <LongitudeDegrees>-5.0882710330188274383544921875</LongitudeDegrees>
            </Position>
            <AltitudeMeters>7.80000019073486328125</AltitudeMeters>
            <DistanceMeters>NAN</DistanceMeters>
          </Trackpoint>
          <Trackpoint>
            <Time>2022-07-16T16:13:09.000Z</Time>
            <Position>
              <LatitudeDegrees>43.467954732477664947509765625</LatitudeDegrees>
              <LongitudeDegrees>-5.0886445306241512298583984375</LongitudeDegrees>
            </Position>
            <AltitudeMeters>7.80000019073486328125</AltitudeMeters>
            <DistanceMeters>NAN</DistanceMeters>
          </Trackpoint>
          <Trackpoint>
            <Time>2022-07-16T16:13:16.000Z</Time>
            <Position>
              <LatitudeDegrees>43.4679632820188999176025390625</LatitudeDegrees>
              <LongitudeDegrees>-5.08898173458874225616455078125</LongitudeDegrees>
            </Position>
            <AltitudeMeters>7.400000095367431640625</AltitudeMeters>
            <DistanceMeters>NAN</DistanceMeters>
          </Trackpoint>
          <Trackpoint>
            <Time>2022-07-16T16:13:21.000Z</Time>
            <Position>
              <LatitudeDegrees>43.46795297227799892425537109375</LatitudeDegrees>
              <LongitudeDegrees>-5.089199244976043701171875</LongitudeDegrees>
            </Position>
            <AltitudeMeters>7</AltitudeMeters>
            <DistanceMeters>NAN</DistanceMeters>
          </Trackpoint>
          <Trackpoint>
            <Time>2022-07-16T16:13:23.000Z</Time>
            <Position>
              <LatitudeDegrees>43.46797107718884944915771484375</LatitudeDegrees>
              <LongitudeDegrees>-5.0892770290374755859375</LongitudeDegrees>
            </Position>
            <AltitudeMeters>7</AltitudeMeters>
            <DistanceMeters>NAN</DistanceMeters>
          </Trackpoint>
          <Trackpoint>
            <Time>2022-07-16T16:13:28.000Z</Time>
            <Position>
              <LatitudeDegrees>43.4680450893938541412353515625</LatitudeDegrees>
              <LongitudeDegrees>-5.08942279033362865447998046875</LongitudeDegrees>
            </Position>
            <AltitudeMeters>7.599999904632568359375</AltitudeMeters>
            <DistanceMeters>NAN</DistanceMeters>
          </Trackpoint>
          <Trackpoint>
            <Time>2022-07-16T16:13:29.000Z</Time>
            <Position>
              <LatitudeDegrees>43.46805640496313571929931640625</LatitudeDegrees>
              <LongitudeDegrees>-5.0894451700150966644287109375</LongitudeDegrees>
            </Position>
            <AltitudeMeters>7.80000019073486328125</AltitudeMeters>
            <DistanceMeters>NAN</DistanceMeters>
          </Trackpoint>
          <Trackpoint>
            <Time>2022-07-16T16:13:31.000Z</Time>
            <Position>
              <LatitudeDegrees>43.4680831432342529296875</LatitudeDegrees>
              <LongitudeDegrees>-5.089492611587047576904296875</LongitudeDegrees>
            </Position>
            <AltitudeMeters>8.80000019073486328125</AltitudeMeters>
            <DistanceMeters>NAN</DistanceMeters>
          </Trackpoint>
          <Trackpoint>
            <Time>2022-07-16T16:13:35.000Z</Time>
            <Position>
              <LatitudeDegrees>43.46812413074076175689697265625</LatitudeDegrees>
              <LongitudeDegrees>-5.08954918943345546722412109375</LongitudeDegrees>
            </Position>
            <AltitudeMeters>10</AltitudeMeters>
            <DistanceMeters>NAN</DistanceMeters>
          </Trackpoint>
          <Trackpoint>
            <Time>2022-07-16T16:13:42.000Z</Time>
            <Position>
              <LatitudeDegrees>43.468170650303363800048828125</LatitudeDegrees>
              <LongitudeDegrees>-5.0896967947483062744140625</LongitudeDegrees>
            </Position>
            <AltitudeMeters>11</AltitudeMeters>
            <DistanceMeters>NAN</DistanceMeters>
          </Trackpoint>
          <Trackpoint>
            <Time>2022-07-16T16:13:48.000Z</Time>
            <Position>
              <LatitudeDegrees>43.468210212886333465576171875</LatitudeDegrees>
              <LongitudeDegrees>-5.0898421369493007659912109375</LongitudeDegrees>
            </Position>
            <AltitudeMeters>10.80000019073486328125</AltitudeMeters>
            <DistanceMeters>NAN</DistanceMeters>
          </Trackpoint>
          <Trackpoint>
            <Time>2022-07-16T16:13:49.000Z</Time>
            <Position>
              <LatitudeDegrees>43.468218930065631866455078125</LatitudeDegrees>
              <LongitudeDegrees>-5.08986937813460826873779296875</LongitudeDegrees>
            </Position>
            <AltitudeMeters>10.80000019073486328125</AltitudeMeters>
            <DistanceMeters>NAN</DistanceMeters>
          </Trackpoint>
          <Trackpoint>
            <Time>2022-07-16T16:13:59.000Z</Time>
            <Position>
              <LatitudeDegrees>43.4682905115187168121337890625</LatitudeDegrees>
              <LongitudeDegrees>-5.090138018131256103515625</LongitudeDegrees>
            </Position>
            <AltitudeMeters>11</AltitudeMeters>
            <DistanceMeters>NAN</DistanceMeters>
          </Trackpoint>
          <Trackpoint>
            <Time>2022-07-16T16:14:04.000Z</Time>
            <Position>
              <LatitudeDegrees>43.468349687755107879638671875</LatitudeDegrees>
              <LongitudeDegrees>-5.09026718325912952423095703125</LongitudeDegrees>
            </Position>
            <AltitudeMeters>10.6000003814697265625</AltitudeMeters>
            <DistanceMeters>NAN</DistanceMeters>
          </Trackpoint>
          <Trackpoint>
            <Time>2022-07-16T16:14:07.000Z</Time>
            <Position>
              <LatitudeDegrees>43.46837659366428852081298828125</LatitudeDegrees>
              <LongitudeDegrees>-5.0903256051242351531982421875</LongitudeDegrees>
            </Position>
            <AltitudeMeters>10.6000003814697265625</AltitudeMeters>
            <DistanceMeters>NAN</DistanceMeters>
          </Trackpoint>
          <Trackpoint>
            <Time>2022-07-16T16:14:15.000Z</Time>
            <Position>
              <LatitudeDegrees>43.46850651316344738006591796875</LatitudeDegrees>
              <LongitudeDegrees>-5.0904516689479351043701171875</LongitudeDegrees>
            </Position>
            <AltitudeMeters>11</AltitudeMeters>
            <DistanceMeters>NAN</DistanceMeters>
          </Trackpoint>
          <Trackpoint>
            <Time>2022-07-16T16:14:16.000Z</Time>
            <Position>
              <LatitudeDegrees>43.4685191698372364044189453125</LatitudeDegrees>
              <LongitudeDegrees>-5.09044848382472991943359375</LongitudeDegrees>
            </Position>
            <AltitudeMeters>11</AltitudeMeters>
            <DistanceMeters>NAN</DistanceMeters>
          </Trackpoint>
          <Trackpoint>
            <Time>2022-07-16T16:14:21.000Z</Time>
            <Position>
              <LatitudeDegrees>43.4685895778238773345947265625</LatitudeDegrees>
              <LongitudeDegrees>-5.09040028788149356842041015625</LongitudeDegrees>
            </Position>
            <AltitudeMeters>11</AltitudeMeters>
            <DistanceMeters>NAN</DistanceMeters>
          </Trackpoint>
          <Trackpoint>
            <Time>2022-07-16T16:14:23.000Z</Time>
            <Position>
              <LatitudeDegrees>43.468607850372791290283203125</LatitudeDegrees>
              <LongitudeDegrees>-5.09039257653057575225830078125</LongitudeDegrees>
            </Position>
            <AltitudeMeters>11</AltitudeMeters>
            <DistanceMeters>NAN</DistanceMeters>
          </Trackpoint>
          <Trackpoint>
            <Time>2022-07-16T16:14:24.000Z</Time>
            <Position>
              <LatitudeDegrees>43.468607850372791290283203125</LatitudeDegrees>
              <LongitudeDegrees>-5.09039257653057575225830078125</LongitudeDegrees>
            </Position>
            <AltitudeMeters>11</AltitudeMeters>
            <DistanceMeters>NAN</DistanceMeters>
          </Trackpoint>
          <Trackpoint>
            <Time>2022-07-16T16:14:25.000Z</Time>
            <Position>
              <LatitudeDegrees>43.468607850372791290283203125</LatitudeDegrees>
              <LongitudeDegrees>-5.09039257653057575225830078125</LongitudeDegrees>
            </Position>
            <AltitudeMeters>10.80000019073486328125</AltitudeMeters>
            <DistanceMeters>NAN</DistanceMeters>
          </Trackpoint>
          <Trackpoint>
            <Time>2022-07-16T16:15:19.000Z</Time>
            <Position>
              <LatitudeDegrees>43.4686415456235408782958984375</LatitudeDegrees>
              <LongitudeDegrees>-5.0904214940965175628662109375</LongitudeDegrees>
            </Position>
            <AltitudeMeters>12.6000003814697265625</AltitudeMeters>
            <DistanceMeters>NAN</DistanceMeters>
          </Trackpoint>
          <Trackpoint>
            <Time>2022-07-16T16:15:20.000Z</Time>
            <Position>
              <LatitudeDegrees>43.4686576388776302337646484375</LatitudeDegrees>
              <LongitudeDegrees>-5.09043733589351177215576171875</LongitudeDegrees>
            </Position>
            <AltitudeMeters>12.6000003814697265625</AltitudeMeters>
            <DistanceMeters>NAN</DistanceMeters>
          </Trackpoint>
          <Trackpoint>
            <Time>2022-07-16T16:15:21.000Z</Time>
            <Position>
              <LatitudeDegrees>43.46867658197879791259765625</LatitudeDegrees>
              <LongitudeDegrees>-5.090453512966632843017578125</LongitudeDegrees>
            </Position>
            <AltitudeMeters>12.80000019073486328125</AltitudeMeters>
            <DistanceMeters>NAN</DistanceMeters>
          </Trackpoint>
          <Trackpoint>
            <Time>2022-07-16T16:15:27.000Z</Time>
            <Position>
              <LatitudeDegrees>43.46880256198346614837646484375</LatitudeDegrees>
              <LongitudeDegrees>-5.09050841443240642547607421875</LongitudeDegrees>
            </Position>
            <AltitudeMeters>12.80000019073486328125</AltitudeMeters>
            <DistanceMeters>NAN</DistanceMeters>
          </Trackpoint>
          <Trackpoint>
            <Time>2022-07-16T16:15:34.000Z</Time>
            <Position>
              <LatitudeDegrees>43.46892460249364376068115234375</LatitudeDegrees>
              <LongitudeDegrees>-5.09057966060936450958251953125</LongitudeDegrees>
            </Position>
            <AltitudeMeters>13</AltitudeMeters>
            <DistanceMeters>NAN</DistanceMeters>
          </Trackpoint>
          <Trackpoint>
            <Time>2022-07-16T16:15:39.000Z</Time>
            <Position>
              <LatitudeDegrees>43.46899048425257205963134765625</LatitudeDegrees>
              <LongitudeDegrees>-5.09062794037163257598876953125</LongitudeDegrees>
            </Position>
            <AltitudeMeters>13.19999980926513671875</AltitudeMeters>
            <DistanceMeters>NAN</DistanceMeters>
          </Trackpoint>
          <Trackpoint>
            <Time>2022-07-16T16:15:40.000Z</Time>
            <Position>
              <LatitudeDegrees>43.46899484284222126007080078125</LatitudeDegrees>
              <LongitudeDegrees>-5.0906451232731342315673828125</LongitudeDegrees>
            </Position>
            <AltitudeMeters>13.19999980926513671875</AltitudeMeters>
            <DistanceMeters>NAN</DistanceMeters>
          </Trackpoint>
          <Trackpoint>
            <Time>2022-07-16T16:15:41.000Z</Time>
            <Position>
              <LatitudeDegrees>43.46900045871734619140625</LatitudeDegrees>
              <LongitudeDegrees>-5.09066012687981128692626953125</LongitudeDegrees>
            </Position>
            <AltitudeMeters>13.19999980926513671875</AltitudeMeters>
            <DistanceMeters>NAN</DistanceMeters>
          </Trackpoint>
          <Trackpoint>
            <Time>2022-07-16T16:15:45.000Z</Time>
            <Position>
              <LatitudeDegrees>43.46902954392135143280029296875</LatitudeDegrees>
              <LongitudeDegrees>-5.0906907208263874053955078125</LongitudeDegrees>
            </Position>
            <AltitudeMeters>13.6000003814697265625</AltitudeMeters>
            <DistanceMeters>NAN</DistanceMeters>
          </Trackpoint>
          <Trackpoint>
            <Time>2022-07-16T16:15:46.000Z</Time>
            <Position>
              <LatitudeDegrees>43.46902954392135143280029296875</LatitudeDegrees>
              <LongitudeDegrees>-5.0906907208263874053955078125</LongitudeDegrees>
            </Position>
            <AltitudeMeters>13.6000003814697265625</AltitudeMeters>
            <DistanceMeters>NAN</DistanceMeters>
          </Trackpoint>
          <Trackpoint>
            <Time>2022-07-16T16:16:33.000Z</Time>
            <Position>
              <LatitudeDegrees>43.468831144273281097412109375</LatitudeDegrees>
              <LongitudeDegrees>-5.090585611760616302490234375</LongitudeDegrees>
            </Position>
            <AltitudeMeters>15.6000003814697265625</AltitudeMeters>
            <DistanceMeters>NAN</DistanceMeters>
          </Trackpoint>
          <Trackpoint>
            <Time>2022-07-16T16:16:35.000Z</Time>
            <Position>
              <LatitudeDegrees>43.46880801022052764892578125</LatitudeDegrees>
              <LongitudeDegrees>-5.09058971889317035675048828125</LongitudeDegrees>
            </Position>
            <AltitudeMeters>15.6000003814697265625</AltitudeMeters>
            <DistanceMeters>NAN</DistanceMeters>
          </Trackpoint>
          <Trackpoint>
            <Time>2022-07-16T16:16:41.000Z</Time>
            <Position>
              <LatitudeDegrees>43.4687448106706142425537109375</LatitudeDegrees>
              <LongitudeDegrees>-5.090518891811370849609375</LongitudeDegrees>
            </Position>
            <AltitudeMeters>15.3999996185302734375</AltitudeMeters>
            <DistanceMeters>NAN</DistanceMeters>
          </Trackpoint>
          <Trackpoint>
            <Time>2022-07-16T16:16:42.000Z</Time>
            <Position>
              <LatitudeDegrees>43.46873315982520580291748046875</LatitudeDegrees>
              <LongitudeDegrees>-5.090506486594676971435546875</LongitudeDegrees>
            </Position>
            <AltitudeMeters>15.19999980926513671875</AltitudeMeters>
            <DistanceMeters>NAN</DistanceMeters>
          </Trackpoint>
          <Trackpoint>
            <Time>2022-07-16T16:16:46.000Z</Time>
            <Position>
              <LatitudeDegrees>43.46867599524557590484619140625</LatitudeDegrees>
              <LongitudeDegrees>-5.09053557179868221282958984375</LongitudeDegrees>
            </Position>
            <AltitudeMeters>14.80000019073486328125</AltitudeMeters>
            <DistanceMeters>NAN</DistanceMeters>
          </Trackpoint>
          <Trackpoint>
            <Time>2022-07-16T16:16:53.000Z</Time>
            <Position>
              <LatitudeDegrees>43.46863894723355770111083984375</LatitudeDegrees>
              <LongitudeDegrees>-5.09062349796295166015625</LongitudeDegrees>
            </Position>
            <AltitudeMeters>14.80000019073486328125</AltitudeMeters>
            <DistanceMeters>NAN</DistanceMeters>
          </Trackpoint>
          <Trackpoint>
            <Time>2022-07-16T16:16:54.000Z</Time>
            <Position>
              <LatitudeDegrees>43.46863894723355770111083984375</LatitudeDegrees>
              <LongitudeDegrees>-5.09062349796295166015625</LongitudeDegrees>
            </Position>
            <AltitudeMeters>14.80000019073486328125</AltitudeMeters>
            <DistanceMeters>NAN</DistanceMeters>
          </Trackpoint>
          <Trackpoint>
            <Time>2022-07-16T17:08:31.000Z</Time>
            <Position>
              <LatitudeDegrees>43.46828070469200611114501953125</LatitudeDegrees>
              <LongitudeDegrees>-5.08983333595097064971923828125</LongitudeDegrees>
            </Position>
            <AltitudeMeters>22</AltitudeMeters>
            <DistanceMeters>NAN</DistanceMeters>
          </Trackpoint>
          <Trackpoint>
            <Time>2022-07-16T17:08:35.000Z</Time>
            <Position>
              <LatitudeDegrees>43.4682583250105381011962890625</LatitudeDegrees>
              <LongitudeDegrees>-5.08974784053862094879150390625</LongitudeDegrees>
            </Position>
            <AltitudeMeters>22</AltitudeMeters>
            <DistanceMeters>NAN</DistanceMeters>
          </Trackpoint>
          <Trackpoint>
            <Time>2022-07-16T17:08:36.000Z</Time>
            <Position>
              <LatitudeDegrees>43.46824399195611476898193359375</LatitudeDegrees>
              <LongitudeDegrees>-5.08972973562777042388916015625</LongitudeDegrees>
            </Position>
            <AltitudeMeters>22</AltitudeMeters>
            <DistanceMeters>NAN</DistanceMeters>
          </Trackpoint>
          <Trackpoint>
            <Time>2022-07-16T17:08:41.000Z</Time>
            <Position>
              <LatitudeDegrees>43.46818230114877223968505859375</LatitudeDegrees>
              <LongitudeDegrees>-5.08964859880506992340087890625</LongitudeDegrees>
            </Position>
            <AltitudeMeters>22.200000762939453125</AltitudeMeters>
            <DistanceMeters>NAN</DistanceMeters>
          </Trackpoint>
          <Trackpoint>
            <Time>2022-07-16T17:08:44.000Z</Time>
            <Position>
              <LatitudeDegrees>43.4681852348148822784423828125</LatitudeDegrees>
              <LongitudeDegrees>-5.0896037556231021881103515625</LongitudeDegrees>
            </Position>
            <AltitudeMeters>22.200000762939453125</AltitudeMeters>
            <DistanceMeters>NAN</DistanceMeters>
          </Trackpoint>
          <Trackpoint>
            <Time>2022-07-16T17:08:46.000Z</Time>
            <Position>
              <LatitudeDegrees>43.468186743557453155517578125</LatitudeDegrees>
              <LongitudeDegrees>-5.08957006037235260009765625</LongitudeDegrees>
            </Position>
            <AltitudeMeters>22.200000762939453125</AltitudeMeters>
            <DistanceMeters>NAN</DistanceMeters>
          </Trackpoint>
          <Trackpoint>
            <Time>2022-07-16T17:08:51.000Z</Time>
            <Position>
              <LatitudeDegrees>43.46811407245695590972900390625</LatitudeDegrees>
              <LongitudeDegrees>-5.08939814753830432891845703125</LongitudeDegrees>
            </Position>
            <AltitudeMeters>21.6000003814697265625</AltitudeMeters>
            <DistanceMeters>NAN</DistanceMeters>
          </Trackpoint>
          <Trackpoint>
            <Time>2022-07-16T17:08:53.000Z</Time>
            <Position>
              <LatitudeDegrees>43.46806009300053119659423828125</LatitudeDegrees>
              <LongitudeDegrees>-5.08931416086852550506591796875</LongitudeDegrees>
            </Position>
            <AltitudeMeters>20.6000003814697265625</AltitudeMeters>
            <DistanceMeters>NAN</DistanceMeters>
          </Trackpoint>
          <Trackpoint>
            <Time>2022-07-16T17:08:55.000Z</Time>
            <Position>
              <LatitudeDegrees>43.46802019514143466949462890625</LatitudeDegrees>
              <LongitudeDegrees>-5.089242160320281982421875</LongitudeDegrees>
            </Position>
            <AltitudeMeters>19.3999996185302734375</AltitudeMeters>
            <DistanceMeters>NAN</DistanceMeters>
          </Trackpoint>
          <Trackpoint>
            <Time>2022-07-16T17:08:56.000Z</Time>
            <Position>
              <LatitudeDegrees>43.4680072031915187835693359375</LatitudeDegrees>
              <LongitudeDegrees>-5.0892111472785472869873046875</LongitudeDegrees>
            </Position>
            <AltitudeMeters>19.200000762939453125</AltitudeMeters>
            <DistanceMeters>NAN</DistanceMeters>
          </Trackpoint>
          <Trackpoint>
            <Time>2022-07-16T17:08:58.000Z</Time>
            <Position>
              <LatitudeDegrees>43.467996306717395782470703125</LatitudeDegrees>
              <LongitudeDegrees>-5.08920192718505859375</LongitudeDegrees>
            </Position>
            <AltitudeMeters>19</AltitudeMeters>
            <DistanceMeters>NAN</DistanceMeters>
          </Trackpoint>
          <Trackpoint>
            <Time>2022-07-16T17:09:01.000Z</Time>
            <Position>
              <LatitudeDegrees>43.46799957565963268280029296875</LatitudeDegrees>
              <LongitudeDegrees>-5.08924660272896289825439453125</LongitudeDegrees>
            </Position>
            <AltitudeMeters>19.200000762939453125</AltitudeMeters>
            <DistanceMeters>NAN</DistanceMeters>
          </Trackpoint>
          <Trackpoint>
            <Time>2022-07-16T17:09:05.000Z</Time>
            <Position>
              <LatitudeDegrees>43.468004353344440460205078125</LatitudeDegrees>
              <LongitudeDegrees>-5.089279375970363616943359375</LongitudeDegrees>
            </Position>
            <AltitudeMeters>19.200000762939453125</AltitudeMeters>
            <DistanceMeters>NAN</DistanceMeters>
          </Trackpoint>
          <Trackpoint>
            <Time>2022-07-16T17:09:06.000Z</Time>
            <Position>
              <LatitudeDegrees>43.4680041857063770294189453125</LatitudeDegrees>
              <LongitudeDegrees>-5.08927744813263416290283203125</LongitudeDegrees>
            </Position>
            <AltitudeMeters>19.200000762939453125</AltitudeMeters>
            <DistanceMeters>NAN</DistanceMeters>
          </Trackpoint>
          <Trackpoint>
            <Time>2022-07-16T17:09:34.000Z</Time>
            <Position>
              <LatitudeDegrees>43.46802287735044956207275390625</LatitudeDegrees>
              <LongitudeDegrees>-5.08918826468288898468017578125</LongitudeDegrees>
            </Position>
            <AltitudeMeters>20.200000762939453125</AltitudeMeters>
            <DistanceMeters>NAN</DistanceMeters>
          </Trackpoint>
          <Trackpoint>
            <Time>2022-07-16T17:09:36.000Z</Time>
            <Position>
              <LatitudeDegrees>43.46802220679819583892822265625</LatitudeDegrees>
              <LongitudeDegrees>-5.089138559997081756591796875</LongitudeDegrees>
            </Position>
            <AltitudeMeters>20.3999996185302734375</AltitudeMeters>
            <DistanceMeters>NAN</DistanceMeters>
          </Trackpoint>
          <Trackpoint>
            <Time>2022-07-16T17:09:41.000Z</Time>
            <Position>
              <LatitudeDegrees>43.46802388317883014678955078125</LatitudeDegrees>
              <LongitudeDegrees>-5.088979303836822509765625</LongitudeDegrees>
            </Position>
            <AltitudeMeters>20.799999237060546875</AltitudeMeters>
            <DistanceMeters>NAN</DistanceMeters>
          </Trackpoint>
          <Trackpoint>
            <Time>2022-07-16T17:09:48.000Z</Time>
            <Position>
              <LatitudeDegrees>43.46800661645829677581787109375</LatitudeDegrees>
              <LongitudeDegrees>-5.08872742764651775360107421875</LongitudeDegrees>
            </Position>
            <AltitudeMeters>21.200000762939453125</AltitudeMeters>
            <DistanceMeters>NAN</DistanceMeters>
          </Trackpoint>
          <Trackpoint>
            <Time>2022-07-16T17:09:50.000Z</Time>
            <Position>
              <LatitudeDegrees>43.46800292842090129852294921875</LatitudeDegrees>
              <LongitudeDegrees>-5.08865299634635448455810546875</LongitudeDegrees>
            </Position>
            <AltitudeMeters>21.200000762939453125</AltitudeMeters>
            <DistanceMeters>NAN</DistanceMeters>
          </Trackpoint>
          <Trackpoint>
            <Time>2022-07-16T17:09:54.000Z</Time>
            <Position>
              <LatitudeDegrees>43.46799337305128574371337890625</LatitudeDegrees>
              <LongitudeDegrees>-5.0885097496211528778076171875</LongitudeDegrees>
            </Position>
            <AltitudeMeters>21.3999996185302734375</AltitudeMeters>
            <DistanceMeters>NAN</DistanceMeters>
          </Trackpoint>
          <Trackpoint>
            <Time>2022-07-16T17:09:56.000Z</Time>
            <Position>
              <LatitudeDegrees>43.467984907329082489013671875</LatitudeDegrees>
              <LongitudeDegrees>-5.08844529278576374053955078125</LongitudeDegrees>
            </Position>
            <AltitudeMeters>21.6000003814697265625</AltitudeMeters>
            <DistanceMeters>NAN</DistanceMeters>
          </Trackpoint>
          <Trackpoint>
            <Time>2022-07-16T17:09:59.000Z</Time>
            <Position>
              <LatitudeDegrees>43.4679763577878475189208984375</LatitudeDegrees>
              <LongitudeDegrees>-5.08834370411932468414306640625</LongitudeDegrees>
            </Position>
            <AltitudeMeters>22</AltitudeMeters>
            <DistanceMeters>NAN</DistanceMeters>
          </Trackpoint>
          <Trackpoint>
            <Time>2022-07-16T17:10:04.000Z</Time>
            <Position>
              <LatitudeDegrees>43.46796219237148761749267578125</LatitudeDegrees>
              <LongitudeDegrees>-5.08814941160380840301513671875</LongitudeDegrees>
            </Position>
            <AltitudeMeters>22.200000762939453125</AltitudeMeters>
            <DistanceMeters>NAN</DistanceMeters>
          </Trackpoint>
          <Trackpoint>
            <Time>2022-07-16T17:10:08.000Z</Time>
            <Position>
              <LatitudeDegrees>43.46787854097783565521240234375</LatitudeDegrees>
              <LongitudeDegrees>-5.08799451403319835662841796875</LongitudeDegrees>
            </Position>
            <AltitudeMeters>22.200000762939453125</AltitudeMeters>
            <DistanceMeters>NAN</DistanceMeters>
          </Trackpoint>
          <Trackpoint>
            <Time>2022-07-16T17:10:12.000Z</Time>
            <Position>
              <LatitudeDegrees>43.46784635446965694427490234375</LatitudeDegrees>
              <LongitudeDegrees>-5.087785385549068450927734375</LongitudeDegrees>
            </Position>
            <AltitudeMeters>21.6000003814697265625</AltitudeMeters>
            <DistanceMeters>NAN</DistanceMeters>
          </Trackpoint>
          <Trackpoint>
            <Time>2022-07-16T17:10:16.000Z</Time>
            <Position>
              <LatitudeDegrees>43.46793201752007007598876953125</LatitudeDegrees>
              <LongitudeDegrees>-5.08756636641919612884521484375</LongitudeDegrees>
            </Position>
            <AltitudeMeters>21.200000762939453125</AltitudeMeters>
            <DistanceMeters>NAN</DistanceMeters>
          </Trackpoint>
          <Trackpoint>
            <Time>2022-07-16T17:10:20.000Z</Time>
            <Position>
              <LatitudeDegrees>43.46793738193809986114501953125</LatitudeDegrees>
              <LongitudeDegrees>-5.08728423155844211578369140625</LongitudeDegrees>
            </Position>
            <AltitudeMeters>21</AltitudeMeters>
            <DistanceMeters>NAN</DistanceMeters>
          </Trackpoint>
          <Trackpoint>
            <Time>2022-07-16T17:10:22.000Z</Time>
            <Position>
              <LatitudeDegrees>43.46792195923626422882080078125</LatitudeDegrees>
              <LongitudeDegrees>-5.08715230040252208709716796875</LongitudeDegrees>
            </Position>
            <AltitudeMeters>20.799999237060546875</AltitudeMeters>
            <DistanceMeters>NAN</DistanceMeters>
          </Trackpoint>
          <Trackpoint>
            <Time>2022-07-16T17:10:26.000Z</Time>
            <Position>
              <LatitudeDegrees>43.4678992442786693572998046875</LatitudeDegrees>
              <LongitudeDegrees>-5.086886174976825714111328125</LongitudeDegrees>
            </Position>
            <AltitudeMeters>20.3999996185302734375</AltitudeMeters>
            <DistanceMeters>NAN</DistanceMeters>
          </Trackpoint>
          <Trackpoint>
            <Time>2022-07-16T17:10:30.000Z</Time>
            <Position>
              <LatitudeDegrees>43.46789203584194183349609375</LatitudeDegrees>
              <LongitudeDegrees>-5.08660244755446910858154296875</LongitudeDegrees>
            </Position>
            <AltitudeMeters>19.3999996185302734375</AltitudeMeters>
            <DistanceMeters>NAN</DistanceMeters>
          </Trackpoint>
          <Trackpoint>
            <Time>2022-07-16T17:10:33.000Z</Time>
            <Position>
              <LatitudeDegrees>43.46788692288100719451904296875</LatitudeDegrees>
              <LongitudeDegrees>-5.08638636209070682525634765625</LongitudeDegrees>
            </Position>
            <AltitudeMeters>19.200000762939453125</AltitudeMeters>
            <DistanceMeters>NAN</DistanceMeters>
          </Trackpoint>
          <Trackpoint>
            <Time>2022-07-16T17:10:35.000Z</Time>
            <Position>
              <LatitudeDegrees>43.4678808040916919708251953125</LatitudeDegrees>
              <LongitudeDegrees>-5.08625241927802562713623046875</LongitudeDegrees>
            </Position>
            <AltitudeMeters>19.3999996185302734375</AltitudeMeters>
            <DistanceMeters>NAN</DistanceMeters>
          </Trackpoint>
          <Trackpoint>
            <Time>2022-07-16T17:10:44.000Z</Time>
            <Position>
              <LatitudeDegrees>43.4678757749497890472412109375</LatitudeDegrees>
              <LongitudeDegrees>-5.0857029855251312255859375</LongitudeDegrees>
            </Position>
            <AltitudeMeters>19.200000762939453125</AltitudeMeters>
            <DistanceMeters>NAN</DistanceMeters>
          </Trackpoint>
          <Trackpoint>
            <Time>2022-07-16T17:10:47.000Z</Time>
            <Position>
              <LatitudeDegrees>43.4678546525537967681884765625</LatitudeDegrees>
              <LongitudeDegrees>-5.08553895168006420135498046875</LongitudeDegrees>
            </Position>
            <AltitudeMeters>19.200000762939453125</AltitudeMeters>
            <DistanceMeters>NAN</DistanceMeters>
          </Trackpoint>
          <Trackpoint>
            <Time>2022-07-16T17:10:50.000Z</Time>
            <Position>
              <LatitudeDegrees>43.46784107387065887451171875</LatitudeDegrees>
              <LongitudeDegrees>-5.08537550456821918487548828125</LongitudeDegrees>
            </Position>
            <AltitudeMeters>19.200000762939453125</AltitudeMeters>
            <DistanceMeters>NAN</DistanceMeters>
          </Trackpoint>
          <Trackpoint>
            <Time>2022-07-16T17:10:56.000Z</Time>
            <Position>
              <LatitudeDegrees>43.467825315892696380615234375</LatitudeDegrees>
              <LongitudeDegrees>-5.0850914418697357177734375</LongitudeDegrees>
            </Position>
            <AltitudeMeters>19.3999996185302734375</AltitudeMeters>
            <DistanceMeters>NAN</DistanceMeters>
          </Trackpoint>
          <Trackpoint>
            <Time>2022-07-16T17:11:02.000Z</Time>
            <Position>
              <LatitudeDegrees>43.46779807470738887786865234375</LatitudeDegrees>
              <LongitudeDegrees>-5.0847982428967952728271484375</LongitudeDegrees>
            </Position>
            <AltitudeMeters>20</AltitudeMeters>
            <DistanceMeters>NAN</DistanceMeters>
          </Trackpoint>
          <Trackpoint>
            <Time>2022-07-16T17:11:07.000Z</Time>
            <Position>
              <LatitudeDegrees>43.46778248436748981475830078125</LatitudeDegrees>
              <LongitudeDegrees>-5.08451216854155063629150390625</LongitudeDegrees>
            </Position>
            <AltitudeMeters>20.200000762939453125</AltitudeMeters>
            <DistanceMeters>NAN</DistanceMeters>
          </Trackpoint>
          <Trackpoint>
            <Time>2022-07-16T17:11:09.000Z</Time>
            <Position>
              <LatitudeDegrees>43.467772342264652252197265625</LatitudeDegrees>
              <LongitudeDegrees>-5.08438669145107269287109375</LongitudeDegrees>
            </Position>
            <AltitudeMeters>20.3999996185302734375</AltitudeMeters>
            <DistanceMeters>NAN</DistanceMeters>
          </Trackpoint>
          <Trackpoint>
            <Time>2022-07-16T17:11:11.000Z</Time>
            <Position>
              <LatitudeDegrees>43.4677627868950366973876953125</LatitudeDegrees>
              <LongitudeDegrees>-5.08427127264440059661865234375</LongitudeDegrees>
            </Position>
            <AltitudeMeters>20.3999996185302734375</AltitudeMeters>
            <DistanceMeters>NAN</DistanceMeters>
          </Trackpoint>
          <Trackpoint>
            <Time>2022-07-16T17:11:17.000Z</Time>
            <Position>
              <LatitudeDegrees>43.46773688681423664093017578125</LatitudeDegrees>
              <LongitudeDegrees>-5.083885453641414642333984375</LongitudeDegrees>
            </Position>
            <AltitudeMeters>20.3999996185302734375</AltitudeMeters>
            <DistanceMeters>NAN</DistanceMeters>
          </Trackpoint>
          <Trackpoint>
            <Time>2022-07-16T17:11:26.000Z</Time>
            <Position>
              <LatitudeDegrees>43.46771299839019775390625</LatitudeDegrees>
              <LongitudeDegrees>-5.0832891650497913360595703125</LongitudeDegrees>
            </Position>
            <AltitudeMeters>20.3999996185302734375</AltitudeMeters>
            <DistanceMeters>NAN</DistanceMeters>
          </Trackpoint>
          <Trackpoint>
            <Time>2022-07-16T17:11:27.000Z</Time>
            <Position>
              <LatitudeDegrees>43.46770822070538997650146484375</LatitudeDegrees>
              <LongitudeDegrees>-5.0832273066043853759765625</LongitudeDegrees>
            </Position>
            <AltitudeMeters>20.3999996185302734375</AltitudeMeters>
            <DistanceMeters>NAN</DistanceMeters>
          </Trackpoint>
          <Trackpoint>
            <Time>2022-07-16T17:11:28.000Z</Time>
            <Position>
              <LatitudeDegrees>43.46770168282091617584228515625</LatitudeDegrees>
              <LongitudeDegrees>-5.0831791944801807403564453125</LongitudeDegrees>
            </Position>
            <AltitudeMeters>20.3999996185302734375</AltitudeMeters>
            <DistanceMeters>NAN</DistanceMeters>
          </Trackpoint>
          <Trackpoint>
            <Time>2022-07-16T17:11:36.000Z</Time>
            <Position>
              <LatitudeDegrees>43.46766631118953227996826171875</LatitudeDegrees>
              <LongitudeDegrees>-5.08267418481409549713134765625</LongitudeDegrees>
            </Position>
            <AltitudeMeters>20.3999996185302734375</AltitudeMeters>
            <DistanceMeters>NAN</DistanceMeters>
          </Trackpoint>
          <Trackpoint>
            <Time>2022-07-16T17:11:40.000Z</Time>
            <Position>
              <LatitudeDegrees>43.46764334477484226226806640625</LatitudeDegrees>
              <LongitudeDegrees>-5.0824204646050930023193359375</LongitudeDegrees>
            </Position>
            <AltitudeMeters>20.3999996185302734375</AltitudeMeters>
            <DistanceMeters>NAN</DistanceMeters>
          </Trackpoint>
          <Trackpoint>
            <Time>2022-07-16T17:11:46.000Z</Time>
            <Position>
              <LatitudeDegrees>43.46760897897183895111083984375</LatitudeDegrees>
              <LongitudeDegrees>-5.0820670835673809051513671875</LongitudeDegrees>
            </Position>
            <AltitudeMeters>20.3999996185302734375</AltitudeMeters>
            <DistanceMeters>NAN</DistanceMeters>
          </Trackpoint>
          <Trackpoint>
            <Time>2022-07-16T17:11:53.000Z</Time>
            <Position>
              <LatitudeDegrees>43.46757310442626476287841796875</LatitudeDegrees>
              <LongitudeDegrees>-5.0816463120281696319580078125</LongitudeDegrees>
            </Position>
            <AltitudeMeters>20.3999996185302734375</AltitudeMeters>
            <DistanceMeters>NAN</DistanceMeters>
          </Trackpoint>
          <Trackpoint>
            <Time>2022-07-16T17:11:56.000Z</Time>
            <Position>
              <LatitudeDegrees>43.467554412782192230224609375</LatitudeDegrees>
              <LongitudeDegrees>-5.0814749859273433685302734375</LongitudeDegrees>
            </Position>
            <AltitudeMeters>20.3999996185302734375</AltitudeMeters>
            <DistanceMeters>NAN</DistanceMeters>
          </Trackpoint>
          <Trackpoint>
            <Time>2022-07-16T17:12:03.000Z</Time>
            <Position>
              <LatitudeDegrees>43.467509485781192779541015625</LatitudeDegrees>
              <LongitudeDegrees>-5.0810545496642589569091796875</LongitudeDegrees>
            </Position>
            <AltitudeMeters>20.200000762939453125</AltitudeMeters>
            <DistanceMeters>NAN</DistanceMeters>
          </Trackpoint>
          <Trackpoint>
            <Time>2022-07-16T17:12:06.000Z</Time>
            <Position>
              <LatitudeDegrees>43.46749448217451572418212890625</LatitudeDegrees>
              <LongitudeDegrees>-5.08087693713605403900146484375</LongitudeDegrees>
            </Position>
            <AltitudeMeters>20.200000762939453125</AltitudeMeters>
            <DistanceMeters>NAN</DistanceMeters>
          </Trackpoint>
          <Trackpoint>
            <Time>2022-07-16T17:12:07.000Z</Time>
            <Position>
              <LatitudeDegrees>43.46748827956616878509521484375</LatitudeDegrees>
              <LongitudeDegrees>-5.08083251304924488067626953125</LongitudeDegrees>
            </Position>
            <AltitudeMeters>20.200000762939453125</AltitudeMeters>
            <DistanceMeters>NAN</DistanceMeters>
          </Trackpoint>
          <Trackpoint>
            <Time>2022-07-16T17:12:11.000Z</Time>
            <Position>
              <LatitudeDegrees>43.4674563445150852203369140625</LatitudeDegrees>
              <LongitudeDegrees>-5.08061072789132595062255859375</LongitudeDegrees>
            </Position>
            <AltitudeMeters>20.200000762939453125</AltitudeMeters>
            <DistanceMeters>NAN</DistanceMeters>
          </Trackpoint>
          <Trackpoint>
            <Time>2022-07-16T17:12:16.000Z</Time>
            <Position>
              <LatitudeDegrees>43.46742625348269939422607421875</LatitudeDegrees>
              <LongitudeDegrees>-5.08032809011638164520263671875</LongitudeDegrees>
            </Position>
            <AltitudeMeters>20</AltitudeMeters>
            <DistanceMeters>NAN</DistanceMeters>
          </Trackpoint>
          <Trackpoint>
            <Time>2022-07-16T17:12:25.000Z</Time>
            <Position>
              <LatitudeDegrees>43.46736741252243518829345703125</LatitudeDegrees>
              <LongitudeDegrees>-5.079803131520748138427734375</LongitudeDegrees>
            </Position>
            <AltitudeMeters>20.200000762939453125</AltitudeMeters>
            <DistanceMeters>NAN</DistanceMeters>
          </Trackpoint>
          <Trackpoint>
            <Time>2022-07-16T17:12:35.000Z</Time>
            <Position>
              <LatitudeDegrees>43.46727873198688030242919921875</LatitudeDegrees>
              <LongitudeDegrees>-5.07922151125967502593994140625</LongitudeDegrees>
            </Position>
            <AltitudeMeters>19.799999237060546875</AltitudeMeters>
            <DistanceMeters>NAN</DistanceMeters>
          </Trackpoint>
          <Trackpoint>
            <Time>2022-07-16T17:12:45.000Z</Time>
            <Position>
              <LatitudeDegrees>43.46717127598822116851806640625</LatitudeDegrees>
              <LongitudeDegrees>-5.07865724153816699981689453125</LongitudeDegrees>
            </Position>
            <AltitudeMeters>20.200000762939453125</AltitudeMeters>
            <DistanceMeters>NAN</DistanceMeters>
          </Trackpoint>
          <Trackpoint>
            <Time>2022-07-16T17:12:50.000Z</Time>
            <Position>
              <LatitudeDegrees>43.467098772525787353515625</LatitudeDegrees>
              <LongitudeDegrees>-5.0783793814480304718017578125</LongitudeDegrees>
            </Position>
            <AltitudeMeters>20.200000762939453125</AltitudeMeters>
            <DistanceMeters>NAN</DistanceMeters>
          </Trackpoint>
          <Trackpoint>
            <Time>2022-07-16T17:12:55.000Z</Time>
            <Position>
              <LatitudeDegrees>43.46700279973447322845458984375</LatitudeDegrees>
              <LongitudeDegrees>-5.07811292074620723724365234375</LongitudeDegrees>
            </Position>
            <AltitudeMeters>20.200000762939453125</AltitudeMeters>
            <DistanceMeters>NAN</DistanceMeters>
          </Trackpoint>
          <Trackpoint>
            <Time>2022-07-16T17:13:02.000Z</Time>
            <Position>
              <LatitudeDegrees>43.4668498300015926361083984375</LatitudeDegrees>
              <LongitudeDegrees>-5.07777999155223369598388671875</LongitudeDegrees>
            </Position>
            <AltitudeMeters>20.200000762939453125</AltitudeMeters>
            <DistanceMeters>NAN</DistanceMeters>
          </Trackpoint>
          <Trackpoint>
            <Time>2022-07-16T17:13:03.000Z</Time>
            <Position>
              <LatitudeDegrees>43.4668287076056003570556640625</LatitudeDegrees>
              <LongitudeDegrees>-5.077734477818012237548828125</LongitudeDegrees>
            </Position>
            <AltitudeMeters>20.200000762939453125</AltitudeMeters>
            <DistanceMeters>NAN</DistanceMeters>
          </Trackpoint>
          <Trackpoint>
            <Time>2022-07-16T17:13:11.000Z</Time>
            <Position>
              <LatitudeDegrees>43.466645814478397369384765625</LatitudeDegrees>
              <LongitudeDegrees>-5.0773551128804683685302734375</LongitudeDegrees>
            </Position>
            <AltitudeMeters>20.200000762939453125</AltitudeMeters>
            <DistanceMeters>NAN</DistanceMeters>
          </Trackpoint>
          <Trackpoint>
            <Time>2022-07-16T17:13:12.000Z</Time>
            <Position>
              <LatitudeDegrees>43.46664036624133586883544921875</LatitudeDegrees>
              <LongitudeDegrees>-5.07732787169516086578369140625</LongitudeDegrees>
            </Position>
            <AltitudeMeters>20</AltitudeMeters>
            <DistanceMeters>NAN</DistanceMeters>
          </Trackpoint>
          <Trackpoint>
            <Time>2022-07-16T17:13:14.000Z</Time>
            <Position>
              <LatitudeDegrees>43.46666651777923107147216796875</LatitudeDegrees>
              <LongitudeDegrees>-5.0773118622601032257080078125</LongitudeDegrees>
            </Position>
            <AltitudeMeters>20</AltitudeMeters>
            <DistanceMeters>NAN</DistanceMeters>
          </Trackpoint>
          <Trackpoint>
            <Time>2022-07-16T17:13:18.000Z</Time>
            <Position>
              <LatitudeDegrees>43.46678017638623714447021484375</LatitudeDegrees>
              <LongitudeDegrees>-5.0773376785218715667724609375</LongitudeDegrees>
            </Position>
            <AltitudeMeters>20</AltitudeMeters>
            <DistanceMeters>NAN</DistanceMeters>
          </Trackpoint>
          <Trackpoint>
            <Time>2022-07-16T17:13:22.000Z</Time>
            <Position>
              <LatitudeDegrees>43.46691445447504520416259765625</LatitudeDegrees>
              <LongitudeDegrees>-5.07725763134658336639404296875</LongitudeDegrees>
            </Position>
            <AltitudeMeters>20.3999996185302734375</AltitudeMeters>
            <DistanceMeters>NAN</DistanceMeters>
          </Trackpoint>
          <Trackpoint>
            <Time>2022-07-16T17:13:30.000Z</Time>
            <Position>
              <LatitudeDegrees>43.46712383441627025604248046875</LatitudeDegrees>
              <LongitudeDegrees>-5.0770060904324054718017578125</LongitudeDegrees>
            </Position>
            <AltitudeMeters>21</AltitudeMeters>
            <DistanceMeters>NAN</DistanceMeters>
          </Trackpoint>
          <Trackpoint>
            <Time>2022-07-16T17:13:37.000Z</Time>
            <Position>
              <LatitudeDegrees>43.46730974502861499786376953125</LatitudeDegrees>
              <LongitudeDegrees>-5.07682328112423419952392578125</LongitudeDegrees>
            </Position>
            <AltitudeMeters>21.3999996185302734375</AltitudeMeters>
            <DistanceMeters>NAN</DistanceMeters>
          </Trackpoint>
          <Trackpoint>
            <Time>2022-07-16T17:13:38.000Z</Time>
            <Position>
              <LatitudeDegrees>43.4673388302326202392578125</LatitudeDegrees>
              <LongitudeDegrees>-5.0768019072711467742919921875</LongitudeDegrees>
            </Position>
            <AltitudeMeters>21.3999996185302734375</AltitudeMeters>
            <DistanceMeters>NAN</DistanceMeters>
          </Trackpoint>
          <Trackpoint>
            <Time>2022-07-16T17:13:46.000Z</Time>
            <Position>
              <LatitudeDegrees>43.46753823570907115936279296875</LatitudeDegrees>
              <LongitudeDegrees>-5.0765987299382686614990234375</LongitudeDegrees>
            </Position>
            <AltitudeMeters>21.799999237060546875</AltitudeMeters>
            <DistanceMeters>NAN</DistanceMeters>
          </Trackpoint>
          <Trackpoint>
            <Time>2022-07-16T17:13:50.000Z</Time>
            <Position>
              <LatitudeDegrees>43.467581234872341156005859375</LatitudeDegrees>
              <LongitudeDegrees>-5.0764736719429492950439453125</LongitudeDegrees>
            </Position>
            <AltitudeMeters>22.200000762939453125</AltitudeMeters>
            <DistanceMeters>NAN</DistanceMeters>
          </Trackpoint>
          <Trackpoint>
            <Time>2022-07-16T17:13:53.000Z</Time>
            <Position>
              <LatitudeDegrees>43.4675649739801883697509765625</LatitudeDegrees>
              <LongitudeDegrees>-5.07639446295797824859619140625</LongitudeDegrees>
            </Position>
            <AltitudeMeters>22.6000003814697265625</AltitudeMeters>
            <DistanceMeters>NAN</DistanceMeters>
          </Trackpoint>
          <Trackpoint>
            <Time>2022-07-16T17:13:55.000Z</Time>
            <Position>
              <LatitudeDegrees>43.46754192374646663665771484375</LatitudeDegrees>
              <LongitudeDegrees>-5.076341740787029266357421875</LongitudeDegrees>
            </Position>
            <AltitudeMeters>22.799999237060546875</AltitudeMeters>
            <DistanceMeters>NAN</DistanceMeters>
          </Trackpoint>
          <Trackpoint>
            <Time>2022-07-16T17:14:00.000Z</Time>
            <Position>
              <LatitudeDegrees>43.46746397204697132110595703125</LatitudeDegrees>
              <LongitudeDegrees>-5.07623772136867046356201171875</LongitudeDegrees>
            </Position>
            <AltitudeMeters>23.200000762939453125</AltitudeMeters>
            <DistanceMeters>NAN</DistanceMeters>
          </Trackpoint>
          <Trackpoint>
            <Time>2022-07-16T17:14:04.000Z</Time>
            <Position>
              <LatitudeDegrees>43.46739708445966243743896484375</LatitudeDegrees>
              <LongitudeDegrees>-5.0761677324771881103515625</LongitudeDegrees>
            </Position>
            <AltitudeMeters>23</AltitudeMeters>
            <DistanceMeters>NAN</DistanceMeters>
          </Trackpoint>
          <Trackpoint>
            <Time>2022-07-16T17:14:13.000Z</Time>
            <Position>
              <LatitudeDegrees>43.46721620298922061920166015625</LatitudeDegrees>
              <LongitudeDegrees>-5.0759972445666790008544921875</LongitudeDegrees>
            </Position>
            <AltitudeMeters>23</AltitudeMeters>
            <DistanceMeters>NAN</DistanceMeters>
          </Trackpoint>
          <Trackpoint>
            <Time>2022-07-16T17:14:22.000Z</Time>
            <Position>
              <LatitudeDegrees>43.467034734785556793212890625</LatitudeDegrees>
              <LongitudeDegrees>-5.0757913850247859954833984375</LongitudeDegrees>
            </Position>
            <AltitudeMeters>23.3999996185302734375</AltitudeMeters>
            <DistanceMeters>NAN</DistanceMeters>
          </Trackpoint>
          <Trackpoint>
            <Time>2022-07-16T17:14:30.000Z</Time>
            <Position>
              <LatitudeDegrees>43.466906659305095672607421875</LatitudeDegrees>
              <LongitudeDegrees>-5.075590722262859344482421875</LongitudeDegrees>
            </Position>
            <AltitudeMeters>22.799999237060546875</AltitudeMeters>
            <DistanceMeters>NAN</DistanceMeters>
          </Trackpoint>
          <Trackpoint>
            <Time>2022-07-16T17:14:32.000Z</Time>
            <Position>
              <LatitudeDegrees>43.46689182333648204803466796875</LatitudeDegrees>
              <LongitudeDegrees>-5.07556230761110782623291015625</LongitudeDegrees>
            </Position>
            <AltitudeMeters>23.200000762939453125</AltitudeMeters>
            <DistanceMeters>NAN</DistanceMeters>
          </Trackpoint>
          <Trackpoint>
            <Time>2022-07-16T17:14:33.000Z</Time>
            <Position>
              <LatitudeDegrees>43.466893248260021209716796875</LatitudeDegrees>
              <LongitudeDegrees>-5.07555660791695117950439453125</LongitudeDegrees>
            </Position>
            <AltitudeMeters>23.200000762939453125</AltitudeMeters>
            <DistanceMeters>NAN</DistanceMeters>
          </Trackpoint>
          <Trackpoint>
            <Time>2022-07-16T17:14:35.000Z</Time>
            <Position>
              <LatitudeDegrees>43.466893248260021209716796875</LatitudeDegrees>
              <LongitudeDegrees>-5.07555660791695117950439453125</LongitudeDegrees>
            </Position>
            <AltitudeMeters>23.3999996185302734375</AltitudeMeters>
            <DistanceMeters>NAN</DistanceMeters>
          </Trackpoint>
          <Trackpoint>
            <Time>2022-07-16T17:14:57.000Z</Time>
            <Position>
              <LatitudeDegrees>43.46685041673481464385986328125</LatitudeDegrees>
              <LongitudeDegrees>-5.07550514303147792816162109375</LongitudeDegrees>
            </Position>
            <AltitudeMeters>23.799999237060546875</AltitudeMeters>
            <DistanceMeters>NAN</DistanceMeters>
          </Trackpoint>
          <Trackpoint>
            <Time>2022-07-16T17:14:58.000Z</Time>
            <Position>
              <LatitudeDegrees>43.46683122217655181884765625</LatitudeDegrees>
              <LongitudeDegrees>-5.075478740036487579345703125</LongitudeDegrees>
            </Position>
            <AltitudeMeters>23.799999237060546875</AltitudeMeters>
            <DistanceMeters>NAN</DistanceMeters>
          </Trackpoint>
          <Trackpoint>
            <Time>2022-07-16T17:15:04.000Z</Time>
            <Position>
              <LatitudeDegrees>43.46670105122029781341552734375</LatitudeDegrees>
              <LongitudeDegrees>-5.075277574360370635986328125</LongitudeDegrees>
            </Position>
            <AltitudeMeters>24</AltitudeMeters>
            <DistanceMeters>NAN</DistanceMeters>
          </Trackpoint>
          <Trackpoint>
            <Time>2022-07-16T17:15:05.000Z</Time>
            <Position>
              <LatitudeDegrees>43.46667858771979808807373046875</LatitudeDegrees>
              <LongitudeDegrees>-5.07524815388023853302001953125</LongitudeDegrees>
            </Position>
            <AltitudeMeters>24</AltitudeMeters>
            <DistanceMeters>NAN</DistanceMeters>
          </Trackpoint>
          <Trackpoint>
            <Time>2022-07-16T17:15:09.000Z</Time>
            <Position>
              <LatitudeDegrees>43.4665846265852451324462890625</LatitudeDegrees>
              <LongitudeDegrees>-5.07513097487390041351318359375</LongitudeDegrees>
            </Position>
            <AltitudeMeters>24.200000762939453125</AltitudeMeters>
            <DistanceMeters>NAN</DistanceMeters>
          </Trackpoint>
          <Trackpoint>
            <Time>2022-07-16T17:15:13.000Z</Time>
            <Position>
              <LatitudeDegrees>43.4665034897625446319580078125</LatitudeDegrees>
              <LongitudeDegrees>-5.0750044919550418853759765625</LongitudeDegrees>
            </Position>
            <AltitudeMeters>24.3999996185302734375</AltitudeMeters>
            <DistanceMeters>NAN</DistanceMeters>
          </Trackpoint>
          <Trackpoint>
            <Time>2022-07-16T17:15:18.000Z</Time>
            <Position>
              <LatitudeDegrees>43.4664005599915981292724609375</LatitudeDegrees>
              <LongitudeDegrees>-5.07481799460947513580322265625</LongitudeDegrees>
            </Position>
            <AltitudeMeters>24.3999996185302734375</AltitudeMeters>
            <DistanceMeters>NAN</DistanceMeters>
          </Trackpoint>
          <Trackpoint>
            <Time>2022-07-16T17:15:21.000Z</Time>
            <Position>
              <LatitudeDegrees>43.46635253168642520904541015625</LatitudeDegrees>
              <LongitudeDegrees>-5.07469980977475643157958984375</LongitudeDegrees>
            </Position>
            <AltitudeMeters>24.3999996185302734375</AltitudeMeters>
            <DistanceMeters>NAN</DistanceMeters>
          </Trackpoint>
          <Trackpoint>
            <Time>2022-07-16T17:15:31.000Z</Time>
            <Position>
              <LatitudeDegrees>43.46621003933250904083251953125</LatitudeDegrees>
              <LongitudeDegrees>-5.07428373210132122039794921875</LongitudeDegrees>
            </Position>
            <AltitudeMeters>24.6000003814697265625</AltitudeMeters>
            <DistanceMeters>NAN</DistanceMeters>
          </Trackpoint>
          <Trackpoint>
            <Time>2022-07-16T17:15:35.000Z</Time>
            <Position>
              <LatitudeDegrees>43.46615119837224483489990234375</LatitudeDegrees>
              <LongitudeDegrees>-5.07412531413137912750244140625</LongitudeDegrees>
            </Position>
            <AltitudeMeters>24.799999237060546875</AltitudeMeters>
            <DistanceMeters>NAN</DistanceMeters>
          </Trackpoint>
          <Trackpoint>
            <Time>2022-07-16T17:15:40.000Z</Time>
            <Position>
              <LatitudeDegrees>43.4660790301859378814697265625</LatitudeDegrees>
              <LongitudeDegrees>-5.073942504823207855224609375</LongitudeDegrees>
            </Position>
            <AltitudeMeters>24.6000003814697265625</AltitudeMeters>
            <DistanceMeters>NAN</DistanceMeters>
          </Trackpoint>
          <Trackpoint>
            <Time>2022-07-16T17:15:46.000Z</Time>
            <Position>
              <LatitudeDegrees>43.46600837074220180511474609375</LatitudeDegrees>
              <LongitudeDegrees>-5.07374276407063007354736328125</LongitudeDegrees>
            </Position>
            <AltitudeMeters>24.200000762939453125</AltitudeMeters>
            <DistanceMeters>NAN</DistanceMeters>
          </Trackpoint>
          <Trackpoint>
            <Time>2022-07-16T17:15:47.000Z</Time>
            <Position>
              <LatitudeDegrees>43.4659923613071441650390625</LatitudeDegrees>
              <LongitudeDegrees>-5.07371694780886173248291015625</LongitudeDegrees>
            </Position>
            <AltitudeMeters>24.3999996185302734375</AltitudeMeters>
            <DistanceMeters>NAN</DistanceMeters>
          </Trackpoint>
          <Trackpoint>
            <Time>2022-07-16T17:15:48.000Z</Time>
            <Position>
              <LatitudeDegrees>43.4659801237285137176513671875</LatitudeDegrees>
              <LongitudeDegrees>-5.07369138300418853759765625</LongitudeDegrees>
            </Position>
            <AltitudeMeters>24.3999996185302734375</AltitudeMeters>
            <DistanceMeters>NAN</DistanceMeters>
          </Trackpoint>
          <Trackpoint>
            <Time>2022-07-16T17:15:50.000Z</Time>
            <Position>
              <LatitudeDegrees>43.465961851179599761962890625</LatitudeDegrees>
              <LongitudeDegrees>-5.0736410915851593017578125</LongitudeDegrees>
            </Position>
            <AltitudeMeters>24.3999996185302734375</AltitudeMeters>
            <DistanceMeters>NAN</DistanceMeters>
          </Trackpoint>
          <Trackpoint>
            <Time>2022-07-16T17:15:55.000Z</Time>
            <Position>
              <LatitudeDegrees>43.46591432578861713409423828125</LatitudeDegrees>
              <LongitudeDegrees>-5.07347957231104373931884765625</LongitudeDegrees>
            </Position>
            <AltitudeMeters>24.3999996185302734375</AltitudeMeters>
            <DistanceMeters>NAN</DistanceMeters>
          </Trackpoint>
          <Trackpoint>
            <Time>2022-07-16T17:16:04.000Z</Time>
            <Position>
              <LatitudeDegrees>43.46583478152751922607421875</LatitudeDegrees>
              <LongitudeDegrees>-5.07313993759453296661376953125</LongitudeDegrees>
            </Position>
            <AltitudeMeters>24.3999996185302734375</AltitudeMeters>
            <DistanceMeters>NAN</DistanceMeters>
          </Trackpoint>
          <Trackpoint>
            <Time>2022-07-16T17:16:11.000Z</Time>
            <Position>
              <LatitudeDegrees>43.46577283926308155059814453125</LatitudeDegrees>
              <LongitudeDegrees>-5.0728912465274333953857421875</LongitudeDegrees>
            </Position>
            <AltitudeMeters>24.6000003814697265625</AltitudeMeters>
            <DistanceMeters>NAN</DistanceMeters>
          </Trackpoint>
          <Trackpoint>
            <Time>2022-07-16T17:16:16.000Z</Time>
            <Position>
              <LatitudeDegrees>43.46572078764438629150390625</LatitudeDegrees>
              <LongitudeDegrees>-5.07272017188370227813720703125</LongitudeDegrees>
            </Position>
            <AltitudeMeters>24.6000003814697265625</AltitudeMeters>
            <DistanceMeters>NAN</DistanceMeters>
          </Trackpoint>
          <Trackpoint>
            <Time>2022-07-16T17:16:21.000Z</Time>
            <Position>
              <LatitudeDegrees>43.4656622819602489471435546875</LatitudeDegrees>
              <LongitudeDegrees>-5.072570554912090301513671875</LongitudeDegrees>
            </Position>
            <AltitudeMeters>24.6000003814697265625</AltitudeMeters>
            <DistanceMeters>NAN</DistanceMeters>
          </Trackpoint>
          <Trackpoint>
            <Time>2022-07-16T17:16:24.000Z</Time>
            <Position>
              <LatitudeDegrees>43.46563495695590972900390625</LatitudeDegrees>
              <LongitudeDegrees>-5.07247827015817165374755859375</LongitudeDegrees>
            </Position>
            <AltitudeMeters>24.6000003814697265625</AltitudeMeters>
            <DistanceMeters>NAN</DistanceMeters>
          </Trackpoint>
          <Trackpoint>
            <Time>2022-07-16T17:16:31.000Z</Time>
            <Position>
              <LatitudeDegrees>43.46557184122502803802490234375</LatitudeDegrees>
              <LongitudeDegrees>-5.07226067595183849334716796875</LongitudeDegrees>
            </Position>
            <AltitudeMeters>25</AltitudeMeters>
            <DistanceMeters>NAN</DistanceMeters>
          </Trackpoint>
          <Trackpoint>
            <Time>2022-07-16T17:16:34.000Z</Time>
            <Position>
              <LatitudeDegrees>43.46555105410516262054443359375</LatitudeDegrees>
              <LongitudeDegrees>-5.07215472869575023651123046875</LongitudeDegrees>
            </Position>
            <AltitudeMeters>25</AltitudeMeters>
            <DistanceMeters>NAN</DistanceMeters>
          </Trackpoint>
          <Trackpoint>
            <Time>2022-07-16T17:16:40.000Z</Time>
            <Position>
              <LatitudeDegrees>43.46548617817461490631103515625</LatitudeDegrees>
              <LongitudeDegrees>-5.07185147143900394439697265625</LongitudeDegrees>
            </Position>
            <AltitudeMeters>25</AltitudeMeters>
            <DistanceMeters>NAN</DistanceMeters>
          </Trackpoint>
          <Trackpoint>
            <Time>2022-07-16T17:16:41.000Z</Time>
            <Position>
              <LatitudeDegrees>43.465475700795650482177734375</LatitudeDegrees>
              <LongitudeDegrees>-5.071800090372562408447265625</LongitudeDegrees>
            </Position>
            <AltitudeMeters>25</AltitudeMeters>
            <DistanceMeters>NAN</DistanceMeters>
          </Trackpoint>
          <Trackpoint>
            <Time>2022-07-16T17:16:49.000Z</Time>
            <Position>
              <LatitudeDegrees>43.46541811712086200714111328125</LatitudeDegrees>
              <LongitudeDegrees>-5.071341432631015777587890625</LongitudeDegrees>
            </Position>
            <AltitudeMeters>25.200000762939453125</AltitudeMeters>
            <DistanceMeters>NAN</DistanceMeters>
          </Trackpoint>
          <Trackpoint>
            <Time>2022-07-16T17:16:52.000Z</Time>
            <Position>
              <LatitudeDegrees>43.46539892256259918212890625</LatitudeDegrees>
              <LongitudeDegrees>-5.0711734592914581298828125</LongitudeDegrees>
            </Position>
            <AltitudeMeters>25</AltitudeMeters>
            <DistanceMeters>NAN</DistanceMeters>
          </Trackpoint>
          <Trackpoint>
            <Time>2022-07-16T17:16:55.000Z</Time>
            <Position>
              <LatitudeDegrees>43.46538023091852664947509765625</LatitudeDegrees>
              <LongitudeDegrees>-5.07101546041667461395263671875</LongitudeDegrees>
            </Position>
            <AltitudeMeters>25</AltitudeMeters>
            <DistanceMeters>NAN</DistanceMeters>
          </Trackpoint>
          <Trackpoint>
            <Time>2022-07-16T17:16:56.000Z</Time>
            <Position>
              <LatitudeDegrees>43.4653796441853046417236328125</LatitudeDegrees>
              <LongitudeDegrees>-5.070964582264423370361328125</LongitudeDegrees>
            </Position>
            <AltitudeMeters>25.200000762939453125</AltitudeMeters>
            <DistanceMeters>NAN</DistanceMeters>
          </Trackpoint>
          <Trackpoint>
            <Time>2022-07-16T17:17:00.000Z</Time>
            <Position>
              <LatitudeDegrees>43.4653608687222003936767578125</LatitudeDegrees>
              <LongitudeDegrees>-5.0707676075398921966552734375</LongitudeDegrees>
            </Position>
            <AltitudeMeters>25.3999996185302734375</AltitudeMeters>
            <DistanceMeters>NAN</DistanceMeters>
          </Trackpoint>
          <Trackpoint>
            <Time>2022-07-16T17:17:06.000Z</Time>
            <Position>
              <LatitudeDegrees>43.46527688205242156982421875</LatitudeDegrees>
              <LongitudeDegrees>-5.070491842925548553466796875</LongitudeDegrees>
            </Position>
            <AltitudeMeters>25.3999996185302734375</AltitudeMeters>
            <DistanceMeters>NAN</DistanceMeters>
          </Trackpoint>
          <Trackpoint>
            <Time>2022-07-16T17:17:09.000Z</Time>
            <Position>
              <LatitudeDegrees>43.4652633033692836761474609375</LatitudeDegrees>
              <LongitudeDegrees>-5.070328898727893829345703125</LongitudeDegrees>
            </Position>
            <AltitudeMeters>25.6000003814697265625</AltitudeMeters>
            <DistanceMeters>NAN</DistanceMeters>
          </Trackpoint>
          <Trackpoint>
            <Time>2022-07-16T17:17:12.000Z</Time>
            <Position>
              <LatitudeDegrees>43.46525944769382476806640625</LatitudeDegrees>
              <LongitudeDegrees>-5.07018347270786762237548828125</LongitudeDegrees>
            </Position>
            <AltitudeMeters>25.6000003814697265625</AltitudeMeters>
            <DistanceMeters>NAN</DistanceMeters>
          </Trackpoint>
          <Trackpoint>
            <Time>2022-07-16T17:17:13.000Z</Time>
            <Position>
              <LatitudeDegrees>43.46525802277028560638427734375</LatitudeDegrees>
              <LongitudeDegrees>-5.07013670168817043304443359375</LongitudeDegrees>
            </Position>
            <AltitudeMeters>25.6000003814697265625</AltitudeMeters>
            <DistanceMeters>NAN</DistanceMeters>
          </Trackpoint>
          <Trackpoint>
            <Time>2022-07-16T17:17:14.000Z</Time>
            <Position>
              <LatitudeDegrees>43.46525567583739757537841796875</LatitudeDegrees>
              <LongitudeDegrees>-5.0700880028307437896728515625</LongitudeDegrees>
            </Position>
            <AltitudeMeters>25.6000003814697265625</AltitudeMeters>
            <DistanceMeters>NAN</DistanceMeters>
          </Trackpoint>
          <Trackpoint>
            <Time>2022-07-16T17:17:22.000Z</Time>
            <Position>
              <LatitudeDegrees>43.46524779684841632843017578125</LatitudeDegrees>
              <LongitudeDegrees>-5.0696752779185771942138671875</LongitudeDegrees>
            </Position>
            <AltitudeMeters>25.6000003814697265625</AltitudeMeters>
            <DistanceMeters>NAN</DistanceMeters>
          </Trackpoint>
          <Trackpoint>
            <Time>2022-07-16T17:17:24.000Z</Time>
            <Position>
              <LatitudeDegrees>43.46523589454591274261474609375</LatitudeDegrees>
              <LongitudeDegrees>-5.0695847533643245697021484375</LongitudeDegrees>
            </Position>
            <AltitudeMeters>25.799999237060546875</AltitudeMeters>
            <DistanceMeters>NAN</DistanceMeters>
          </Trackpoint>
          <Trackpoint>
            <Time>2022-07-16T17:17:25.000Z</Time>
            <Position>
              <LatitudeDegrees>43.465229608118534088134765625</LatitudeDegrees>
              <LongitudeDegrees>-5.06952633149921894073486328125</LongitudeDegrees>
            </Position>
            <AltitudeMeters>25.799999237060546875</AltitudeMeters>
            <DistanceMeters>NAN</DistanceMeters>
          </Trackpoint>
          <Trackpoint>
            <Time>2022-07-16T17:17:28.000Z</Time>
            <Position>
              <LatitudeDegrees>43.4652287699282169342041015625</LatitudeDegrees>
              <LongitudeDegrees>-5.06940496154129505157470703125</LongitudeDegrees>
            </Position>
            <AltitudeMeters>25.799999237060546875</AltitudeMeters>
            <DistanceMeters>NAN</DistanceMeters>
          </Trackpoint>
          <Trackpoint>
            <Time>2022-07-16T17:17:30.000Z</Time>
            <Position>
              <LatitudeDegrees>43.46523405052721500396728515625</LatitudeDegrees>
              <LongitudeDegrees>-5.06930152885615825653076171875</LongitudeDegrees>
            </Position>
            <AltitudeMeters>26</AltitudeMeters>
            <DistanceMeters>NAN</DistanceMeters>
          </Trackpoint>
          <Trackpoint>
            <Time>2022-07-16T17:17:36.000Z</Time>
            <Position>
              <LatitudeDegrees>43.46523907966911792755126953125</LatitudeDegrees>
              <LongitudeDegrees>-5.0690573640167713165283203125</LongitudeDegrees>
            </Position>
            <AltitudeMeters>26</AltitudeMeters>
            <DistanceMeters>NAN</DistanceMeters>
          </Trackpoint>
          <Trackpoint>
            <Time>2022-07-16T17:17:37.000Z</Time>
            <Position>
              <LatitudeDegrees>43.46524645574390888214111328125</LatitudeDegrees>
              <LongitudeDegrees>-5.06902023218572139739990234375</LongitudeDegrees>
            </Position>
            <AltitudeMeters>26.200000762939453125</AltitudeMeters>
            <DistanceMeters>NAN</DistanceMeters>
          </Trackpoint>
          <Trackpoint>
            <Time>2022-07-16T17:17:41.000Z</Time>
            <Position>
              <LatitudeDegrees>43.465277217328548431396484375</LatitudeDegrees>
              <LongitudeDegrees>-5.068876482546329498291015625</LongitudeDegrees>
            </Position>
            <AltitudeMeters>26.3999996185302734375</AltitudeMeters>
            <DistanceMeters>NAN</DistanceMeters>
          </Trackpoint>
          <Trackpoint>
            <Time>2022-07-16T17:17:45.000Z</Time>
            <Position>
              <LatitudeDegrees>43.465249724686145782470703125</LatitudeDegrees>
              <LongitudeDegrees>-5.06872083060443401336669921875</LongitudeDegrees>
            </Position>
            <AltitudeMeters>26.3999996185302734375</AltitudeMeters>
            <DistanceMeters>NAN</DistanceMeters>
          </Trackpoint>
          <Trackpoint>
            <Time>2022-07-16T17:17:52.000Z</Time>
            <Position>
              <LatitudeDegrees>43.4652700088918209075927734375</LatitudeDegrees>
              <LongitudeDegrees>-5.0684528611600399017333984375</LongitudeDegrees>
            </Position>
            <AltitudeMeters>26.3999996185302734375</AltitudeMeters>
            <DistanceMeters>NAN</DistanceMeters>
          </Trackpoint>
          <Trackpoint>
            <Time>2022-07-16T17:17:58.000Z</Time>
            <Position>
              <LatitudeDegrees>43.465266488492488861083984375</LatitudeDegrees>
              <LongitudeDegrees>-5.0682201795279979705810546875</LongitudeDegrees>
            </Position>
            <AltitudeMeters>26.3999996185302734375</AltitudeMeters>
            <DistanceMeters>NAN</DistanceMeters>
          </Trackpoint>
          <Trackpoint>
            <Time>2022-07-16T17:18:07.000Z</Time>
            <Position>
              <LatitudeDegrees>43.465290628373622894287109375</LatitudeDegrees>
              <LongitudeDegrees>-5.06783687509596347808837890625</LongitudeDegrees>
            </Position>
            <AltitudeMeters>26.3999996185302734375</AltitudeMeters>
            <DistanceMeters>NAN</DistanceMeters>
          </Trackpoint>
          <Trackpoint>
            <Time>2022-07-16T17:18:08.000Z</Time>
            <Position>
              <LatitudeDegrees>43.4652961604297161102294921875</LatitudeDegrees>
              <LongitudeDegrees>-5.06779194809496402740478515625</LongitudeDegrees>
            </Position>
            <AltitudeMeters>26.6000003814697265625</AltitudeMeters>
            <DistanceMeters>NAN</DistanceMeters>
          </Trackpoint>
          <Trackpoint>
            <Time>2022-07-16T17:18:15.000Z</Time>
            <Position>
              <LatitudeDegrees>43.46531711518764495849609375</LatitudeDegrees>
              <LongitudeDegrees>-5.06749941967427730560302734375</LongitudeDegrees>
            </Position>
            <AltitudeMeters>26.6000003814697265625</AltitudeMeters>
            <DistanceMeters>NAN</DistanceMeters>
          </Trackpoint>
          <Trackpoint>
            <Time>2022-07-16T17:18:24.000Z</Time>
            <Position>
              <LatitudeDegrees>43.46535240299999713897705078125</LatitudeDegrees>
              <LongitudeDegrees>-5.06710446439683437347412109375</LongitudeDegrees>
            </Position>
            <AltitudeMeters>26.3999996185302734375</AltitudeMeters>
            <DistanceMeters>NAN</DistanceMeters>
          </Trackpoint>
          <Trackpoint>
            <Time>2022-07-16T17:18:29.000Z</Time>
            <Position>
              <LatitudeDegrees>43.46538660116493701934814453125</LatitudeDegrees>
              <LongitudeDegrees>-5.06690078414976596832275390625</LongitudeDegrees>
            </Position>
            <AltitudeMeters>26.3999996185302734375</AltitudeMeters>
            <DistanceMeters>NAN</DistanceMeters>
          </Trackpoint>
          <Trackpoint>
            <Time>2022-07-16T17:18:31.000Z</Time>
            <Position>
              <LatitudeDegrees>43.46540872938930988311767578125</LatitudeDegrees>
              <LongitudeDegrees>-5.06683272309601306915283203125</LongitudeDegrees>
            </Position>
            <AltitudeMeters>26.3999996185302734375</AltitudeMeters>
            <DistanceMeters>NAN</DistanceMeters>
          </Trackpoint>
          <Trackpoint>
            <Time>2022-07-16T17:18:40.000Z</Time>
            <Position>
              <LatitudeDegrees>43.46550361253321170806884765625</LatitudeDegrees>
              <LongitudeDegrees>-5.066491328179836273193359375</LongitudeDegrees>
            </Position>
            <AltitudeMeters>26.200000762939453125</AltitudeMeters>
            <DistanceMeters>NAN</DistanceMeters>
          </Trackpoint>
          <Trackpoint>
            <Time>2022-07-16T17:18:45.000Z</Time>
            <Position>
              <LatitudeDegrees>43.465554825961589813232421875</LatitudeDegrees>
              <LongitudeDegrees>-5.0662997178733348846435546875</LongitudeDegrees>
            </Position>
            <AltitudeMeters>26.200000762939453125</AltitudeMeters>
            <DistanceMeters>NAN</DistanceMeters>
          </Trackpoint>
          <Trackpoint>
            <Time>2022-07-16T17:18:49.000Z</Time>
            <Position>
              <LatitudeDegrees>43.46559614874422550201416015625</LatitudeDegrees>
              <LongitudeDegrees>-5.066148675978183746337890625</LongitudeDegrees>
            </Position>
            <AltitudeMeters>26</AltitudeMeters>
            <DistanceMeters>NAN</DistanceMeters>
          </Trackpoint>
          <Trackpoint>
            <Time>2022-07-16T17:18:56.000Z</Time>
            <Position>
              <LatitudeDegrees>43.4656823985278606414794921875</LatitudeDegrees>
              <LongitudeDegrees>-5.06588020361959934234619140625</LongitudeDegrees>
            </Position>
            <AltitudeMeters>26</AltitudeMeters>
            <DistanceMeters>NAN</DistanceMeters>
          </Trackpoint>
          <Trackpoint>
            <Time>2022-07-16T17:18:58.000Z</Time>
            <Position>
              <LatitudeDegrees>43.4657125733792781829833984375</LatitudeDegrees>
              <LongitudeDegrees>-5.0658051855862140655517578125</LongitudeDegrees>
            </Position>
            <AltitudeMeters>26</AltitudeMeters>
            <DistanceMeters>NAN</DistanceMeters>
          </Trackpoint>
          <Trackpoint>
            <Time>2022-07-16T17:19:01.000Z</Time>
            <Position>
              <LatitudeDegrees>43.4657457657158374786376953125</LatitudeDegrees>
              <LongitudeDegrees>-5.065692029893398284912109375</LongitudeDegrees>
            </Position>
            <AltitudeMeters>25.799999237060546875</AltitudeMeters>
            <DistanceMeters>NAN</DistanceMeters>
          </Trackpoint>
          <Trackpoint>
            <Time>2022-07-16T17:19:07.000Z</Time>
            <Position>
              <LatitudeDegrees>43.4658084623515605926513671875</LatitudeDegrees>
              <LongitudeDegrees>-5.0654719211161136627197265625</LongitudeDegrees>
            </Position>
            <AltitudeMeters>25.6000003814697265625</AltitudeMeters>
            <DistanceMeters>NAN</DistanceMeters>
          </Trackpoint>
          <Trackpoint>
            <Time>2022-07-16T17:19:16.000Z</Time>
            <Position>
              <LatitudeDegrees>43.4659103862941265106201171875</LatitudeDegrees>
              <LongitudeDegrees>-5.065146200358867645263671875</LongitudeDegrees>
            </Position>
            <AltitudeMeters>25.3999996185302734375</AltitudeMeters>
            <DistanceMeters>NAN</DistanceMeters>
          </Trackpoint>
          <Trackpoint>
            <Time>2022-07-16T17:19:19.000Z</Time>
            <Position>
              <LatitudeDegrees>43.4659509547054767608642578125</LatitudeDegrees>
              <LongitudeDegrees>-5.06505793891847133636474609375</LongitudeDegrees>
            </Position>
            <AltitudeMeters>25.200000762939453125</AltitudeMeters>
            <DistanceMeters>NAN</DistanceMeters>
          </Trackpoint>
          <Trackpoint>
            <Time>2022-07-16T17:19:22.000Z</Time>
            <Position>
              <LatitudeDegrees>43.4659923613071441650390625</LatitudeDegrees>
              <LongitudeDegrees>-5.0649700127542018890380859375</LongitudeDegrees>
            </Position>
            <AltitudeMeters>25.200000762939453125</AltitudeMeters>
            <DistanceMeters>NAN</DistanceMeters>
          </Trackpoint>
          <Trackpoint>
            <Time>2022-07-16T17:19:26.000Z</Time>
            <Position>
              <LatitudeDegrees>43.466026224195957183837890625</LatitudeDegrees>
              <LongitudeDegrees>-5.0648305378854274749755859375</LongitudeDegrees>
            </Position>
            <AltitudeMeters>25</AltitudeMeters>
            <DistanceMeters>NAN</DistanceMeters>
          </Trackpoint>
          <Trackpoint>
            <Time>2022-07-16T17:19:29.000Z</Time>
            <Position>
              <LatitudeDegrees>43.46606084145605564117431640625</LatitudeDegrees>
              <LongitudeDegrees>-5.06472769193351268768310546875</LongitudeDegrees>
            </Position>
            <AltitudeMeters>25.200000762939453125</AltitudeMeters>
            <DistanceMeters>NAN</DistanceMeters>
          </Trackpoint>
          <Trackpoint>
            <Time>2022-07-16T17:19:37.000Z</Time>
            <Position>
              <LatitudeDegrees>43.46618573181331157684326171875</LatitudeDegrees>
              <LongitudeDegrees>-5.06442644633352756500244140625</LongitudeDegrees>
            </Position>
            <AltitudeMeters>24.799999237060546875</AltitudeMeters>
            <DistanceMeters>NAN</DistanceMeters>
          </Trackpoint>
          <Trackpoint>
            <Time>2022-07-16T17:19:38.000Z</Time>
            <Position>
              <LatitudeDegrees>43.466202579438686370849609375</LatitudeDegrees>
              <LongitudeDegrees>-5.06438956595957279205322265625</LongitudeDegrees>
            </Position>
            <AltitudeMeters>24.799999237060546875</AltitudeMeters>
            <DistanceMeters>NAN</DistanceMeters>
          </Trackpoint>
          <Trackpoint>
            <Time>2022-07-16T17:19:47.000Z</Time>
            <Position>
              <LatitudeDegrees>43.4663184173405170440673828125</LatitudeDegrees>
              <LongitudeDegrees>-5.0640640966594219207763671875</LongitudeDegrees>
            </Position>
            <AltitudeMeters>25</AltitudeMeters>
            <DistanceMeters>NAN</DistanceMeters>
          </Trackpoint>
          <Trackpoint>
            <Time>2022-07-16T17:19:57.000Z</Time>
            <Position>
              <LatitudeDegrees>43.4664518572390079498291015625</LatitudeDegrees>
              <LongitudeDegrees>-5.06370409391820430755615234375</LongitudeDegrees>
            </Position>
            <AltitudeMeters>24.799999237060546875</AltitudeMeters>
            <DistanceMeters>NAN</DistanceMeters>
          </Trackpoint>
          <Trackpoint>
            <Time>2022-07-16T17:19:58.000Z</Time>
            <Position>
              <LatitudeDegrees>43.46647038124501705169677734375</LatitudeDegrees>
              <LongitudeDegrees>-5.0636694766581058502197265625</LongitudeDegrees>
            </Position>
            <AltitudeMeters>24.6000003814697265625</AltitudeMeters>
            <DistanceMeters>NAN</DistanceMeters>
          </Trackpoint>
          <Trackpoint>
            <Time>2022-07-16T17:20:01.000Z</Time>
            <Position>
              <LatitudeDegrees>43.466514386236667633056640625</LatitudeDegrees>
              <LongitudeDegrees>-5.06356428377330303192138671875</LongitudeDegrees>
            </Position>
            <AltitudeMeters>24.3999996185302734375</AltitudeMeters>
            <DistanceMeters>NAN</DistanceMeters>
          </Trackpoint>
          <Trackpoint>
            <Time>2022-07-16T17:20:04.000Z</Time>
            <Position>
              <LatitudeDegrees>43.466543890535831451416015625</LatitudeDegrees>
              <LongitudeDegrees>-5.06342430599033832550048828125</LongitudeDegrees>
            </Position>
            <AltitudeMeters>24.200000762939453125</AltitudeMeters>
            <DistanceMeters>NAN</DistanceMeters>
          </Trackpoint>
          <Trackpoint>
            <Time>2022-07-16T17:20:06.000Z</Time>
            <Position>
              <LatitudeDegrees>43.4665635041892528533935546875</LatitudeDegrees>
              <LongitudeDegrees>-5.06334417499601840972900390625</LongitudeDegrees>
            </Position>
            <AltitudeMeters>24</AltitudeMeters>
            <DistanceMeters>NAN</DistanceMeters>
          </Trackpoint>
          <Trackpoint>
            <Time>2022-07-16T17:20:10.000Z</Time>
            <Position>
              <LatitudeDegrees>43.466576747596263885498046875</LatitudeDegrees>
              <LongitudeDegrees>-5.06316312588751316070556640625</LongitudeDegrees>
            </Position>
            <AltitudeMeters>23.799999237060546875</AltitudeMeters>
            <DistanceMeters>NAN</DistanceMeters>
          </Trackpoint>
          <Trackpoint>
            <Time>2022-07-16T17:20:13.000Z</Time>
            <Position>
              <LatitudeDegrees>43.46657414920628070831298828125</LatitudeDegrees>
              <LongitudeDegrees>-5.0630307756364345550537109375</LongitudeDegrees>
            </Position>
            <AltitudeMeters>23.6000003814697265625</AltitudeMeters>
            <DistanceMeters>NAN</DistanceMeters>
          </Trackpoint>
          <Trackpoint>
            <Time>2022-07-16T17:20:18.000Z</Time>
            <Position>
              <LatitudeDegrees>43.4665024839341640472412109375</LatitudeDegrees>
              <LongitudeDegrees>-5.0628720223903656005859375</LongitudeDegrees>
            </Position>
            <AltitudeMeters>23</AltitudeMeters>
            <DistanceMeters>NAN</DistanceMeters>
          </Trackpoint>
          <Trackpoint>
            <Time>2022-07-16T17:20:25.000Z</Time>
            <Position>
              <LatitudeDegrees>43.46635923720896244049072265625</LatitudeDegrees>
              <LongitudeDegrees>-5.062666498124599456787109375</LongitudeDegrees>
            </Position>
            <AltitudeMeters>22.799999237060546875</AltitudeMeters>
            <DistanceMeters>NAN</DistanceMeters>
          </Trackpoint>
          <Trackpoint>
            <Time>2022-07-16T17:20:26.000Z</Time>
            <Position>
              <LatitudeDegrees>43.4663355164229869842529296875</LatitudeDegrees>
              <LongitudeDegrees>-5.06264202296733856201171875</LongitudeDegrees>
            </Position>
            <AltitudeMeters>22.6000003814697265625</AltitudeMeters>
            <DistanceMeters>NAN</DistanceMeters>
          </Trackpoint>
          <Trackpoint>
            <Time>2022-07-16T17:20:33.000Z</Time>
            <Position>
              <LatitudeDegrees>43.466141223907470703125</LatitudeDegrees>
              <LongitudeDegrees>-5.0624809227883815765380859375</LongitudeDegrees>
            </Position>
            <AltitudeMeters>21.6000003814697265625</AltitudeMeters>
            <DistanceMeters>NAN</DistanceMeters>
          </Trackpoint>
          <Trackpoint>
            <Time>2022-07-16T17:20:41.000Z</Time>
            <Position>
              <LatitudeDegrees>43.46591616980731487274169921875</LatitudeDegrees>
              <LongitudeDegrees>-5.06236441433429718017578125</LongitudeDegrees>
            </Position>
            <AltitudeMeters>21.3999996185302734375</AltitudeMeters>
            <DistanceMeters>NAN</DistanceMeters>
          </Trackpoint>
          <Trackpoint>
            <Time>2022-07-16T17:20:49.000Z</Time>
            <Position>
              <LatitudeDegrees>43.4657212905585765838623046875</LatitudeDegrees>
              <LongitudeDegrees>-5.0623863749206066131591796875</LongitudeDegrees>
            </Position>
            <AltitudeMeters>21.6000003814697265625</AltitudeMeters>
            <DistanceMeters>NAN</DistanceMeters>
          </Trackpoint>
          <Trackpoint>
            <Time>2022-07-16T17:20:54.000Z</Time>
            <Position>
              <LatitudeDegrees>43.4656790457665920257568359375</LatitudeDegrees>
              <LongitudeDegrees>-5.0623971037566661834716796875</LongitudeDegrees>
            </Position>
            <AltitudeMeters>21.799999237060546875</AltitudeMeters>
            <DistanceMeters>NAN</DistanceMeters>
          </Trackpoint>
          <Trackpoint>
            <Time>2022-07-16T17:20:55.000Z</Time>
            <Position>
              <LatitudeDegrees>43.4656790457665920257568359375</LatitudeDegrees>
              <LongitudeDegrees>-5.0623971037566661834716796875</LongitudeDegrees>
            </Position>
            <AltitudeMeters>21.799999237060546875</AltitudeMeters>
            <DistanceMeters>NAN</DistanceMeters>
          </Trackpoint>
          <Trackpoint>
            <Time>2022-07-16T17:27:56.000Z</Time>
            <Position>
              <LatitudeDegrees>43.46272878348827362060546875</LatitudeDegrees>
              <LongitudeDegrees>-5.06436995230615139007568359375</LongitudeDegrees>
            </Position>
            <AltitudeMeters>22.3999996185302734375</AltitudeMeters>
            <DistanceMeters>NAN</DistanceMeters>
          </Trackpoint>
          <Trackpoint>
            <Time>2022-07-16T17:27:57.000Z</Time>
            <Position>
              <LatitudeDegrees>43.46272450871765613555908203125</LatitudeDegrees>
              <LongitudeDegrees>-5.064352937042713165283203125</LongitudeDegrees>
            </Position>
            <AltitudeMeters>22.3999996185302734375</AltitudeMeters>
            <DistanceMeters>NAN</DistanceMeters>
          </Trackpoint>
          <Trackpoint>
            <Time>2022-07-16T17:27:58.000Z</Time>
            <Position>
              <LatitudeDegrees>43.4627195633947849273681640625</LatitudeDegrees>
              <LongitudeDegrees>-5.06433491595089435577392578125</LongitudeDegrees>
            </Position>
            <AltitudeMeters>22.3999996185302734375</AltitudeMeters>
            <DistanceMeters>NAN</DistanceMeters>
          </Trackpoint>
          <Trackpoint>
            <Time>2022-07-16T17:28:04.000Z</Time>
            <Position>
              <LatitudeDegrees>43.4626887179911136627197265625</LatitudeDegrees>
              <LongitudeDegrees>-5.06425000727176666259765625</LongitudeDegrees>
            </Position>
            <AltitudeMeters>22.6000003814697265625</AltitudeMeters>
            <DistanceMeters>NAN</DistanceMeters>
          </Trackpoint>
          <Trackpoint>
            <Time>2022-07-16T17:28:09.000Z</Time>
            <Position>
              <LatitudeDegrees>43.46266147680580615997314453125</LatitudeDegrees>
              <LongitudeDegrees>-5.0641690380871295928955078125</LongitudeDegrees>
            </Position>
            <AltitudeMeters>22.6000003814697265625</AltitudeMeters>
            <DistanceMeters>NAN</DistanceMeters>
          </Trackpoint>
          <Trackpoint>
            <Time>2022-07-16T17:28:12.000Z</Time>
            <Position>
              <LatitudeDegrees>43.46264923922717571258544921875</LatitudeDegrees>
              <LongitudeDegrees>-5.0641264580190181732177734375</LongitudeDegrees>
            </Position>
            <AltitudeMeters>22.799999237060546875</AltitudeMeters>
            <DistanceMeters>NAN</DistanceMeters>
          </Trackpoint>
          <Trackpoint>
            <Time>2022-07-16T17:28:20.000Z</Time>
            <Position>
              <LatitudeDegrees>43.46261680126190185546875</LatitudeDegrees>
              <LongitudeDegrees>-5.064008943736553192138671875</LongitudeDegrees>
            </Position>
            <AltitudeMeters>22.799999237060546875</AltitudeMeters>
            <DistanceMeters>NAN</DistanceMeters>
          </Trackpoint>
          <Trackpoint>
            <Time>2022-07-16T17:28:32.000Z</Time>
            <Position>
              <LatitudeDegrees>43.46256324090063571929931640625</LatitudeDegrees>
              <LongitudeDegrees>-5.06385974586009979248046875</LongitudeDegrees>
            </Position>
            <AltitudeMeters>22.799999237060546875</AltitudeMeters>
            <DistanceMeters>NAN</DistanceMeters>
          </Trackpoint>
          <Trackpoint>
            <Time>2022-07-16T17:28:42.000Z</Time>
            <Position>
              <LatitudeDegrees>43.4625197388231754302978515625</LatitudeDegrees>
              <LongitudeDegrees>-5.06371784023940563201904296875</LongitudeDegrees>
            </Position>
            <AltitudeMeters>23</AltitudeMeters>
            <DistanceMeters>NAN</DistanceMeters>
          </Trackpoint>
          <Trackpoint>
            <Time>2022-07-16T17:28:54.000Z</Time>
            <Position>
              <LatitudeDegrees>43.46246634609997272491455078125</LatitudeDegrees>
              <LongitudeDegrees>-5.0635685585439205169677734375</LongitudeDegrees>
            </Position>
            <AltitudeMeters>23.200000762939453125</AltitudeMeters>
            <DistanceMeters>NAN</DistanceMeters>
          </Trackpoint>
          <Trackpoint>
            <Time>2022-07-16T17:29:06.000Z</Time>
            <Position>
              <LatitudeDegrees>43.46241974271833896636962890625</LatitudeDegrees>
              <LongitudeDegrees>-5.06343302316963672637939453125</LongitudeDegrees>
            </Position>
            <AltitudeMeters>23.3999996185302734375</AltitudeMeters>
            <DistanceMeters>NAN</DistanceMeters>
          </Trackpoint>
          <Trackpoint>
            <Time>2022-07-16T17:29:18.000Z</Time>
            <Position>
              <LatitudeDegrees>43.46237313933670520782470703125</LatitudeDegrees>
              <LongitudeDegrees>-5.06330025382339954376220703125</LongitudeDegrees>
            </Position>
            <AltitudeMeters>23.6000003814697265625</AltitudeMeters>
            <DistanceMeters>NAN</DistanceMeters>
          </Trackpoint>
          <Trackpoint>
            <Time>2022-07-16T17:29:19.000Z</Time>
            <Position>
              <LatitudeDegrees>43.46237112767994403839111328125</LatitudeDegrees>
              <LongitudeDegrees>-5.06329103372991085052490234375</LongitudeDegrees>
            </Position>
            <AltitudeMeters>23.6000003814697265625</AltitudeMeters>
            <DistanceMeters>NAN</DistanceMeters>
          </Trackpoint>
          <Trackpoint>
            <Time>2022-07-16T17:29:25.000Z</Time>
            <Position>
              <LatitudeDegrees>43.46235101111233234405517578125</LatitudeDegrees>
              <LongitudeDegrees>-5.0632202066481113433837890625</LongitudeDegrees>
            </Position>
            <AltitudeMeters>23.6000003814697265625</AltitudeMeters>
            <DistanceMeters>NAN</DistanceMeters>
          </Trackpoint>
          <Trackpoint>
            <Time>2022-07-16T17:29:29.000Z</Time>
            <Position>
              <LatitudeDegrees>43.462334834039211273193359375</LatitudeDegrees>
              <LongitudeDegrees>-5.06317452527582645416259765625</LongitudeDegrees>
            </Position>
            <AltitudeMeters>23.6000003814697265625</AltitudeMeters>
            <DistanceMeters>NAN</DistanceMeters>
          </Trackpoint>
          <Trackpoint>
            <Time>2022-07-16T17:29:32.000Z</Time>
            <Position>
              <LatitudeDegrees>43.46232469193637371063232421875</LatitudeDegrees>
              <LongitudeDegrees>-5.06314150057733058929443359375</LongitudeDegrees>
            </Position>
            <AltitudeMeters>23.6000003814697265625</AltitudeMeters>
            <DistanceMeters>NAN</DistanceMeters>
          </Trackpoint>
          <Trackpoint>
            <Time>2022-07-16T17:29:39.000Z</Time>
            <Position>
              <LatitudeDegrees>43.46229024231433868408203125</LatitudeDegrees>
              <LongitudeDegrees>-5.06306991912424564361572265625</LongitudeDegrees>
            </Position>
            <AltitudeMeters>23.799999237060546875</AltitudeMeters>
            <DistanceMeters>NAN</DistanceMeters>
          </Trackpoint>
          <Trackpoint>
            <Time>2022-07-16T17:29:40.000Z</Time>
            <Position>
              <LatitudeDegrees>43.46228596754372119903564453125</LatitudeDegrees>
              <LongitudeDegrees>-5.06306036375463008880615234375</LongitudeDegrees>
            </Position>
            <AltitudeMeters>23.799999237060546875</AltitudeMeters>
            <DistanceMeters>NAN</DistanceMeters>
          </Trackpoint>
          <Trackpoint>
            <Time>2022-07-16T17:29:45.000Z</Time>
            <Position>
              <LatitudeDegrees>43.46226518042385578155517578125</LatitudeDegrees>
              <LongitudeDegrees>-5.063004791736602783203125</LongitudeDegrees>
            </Position>
            <AltitudeMeters>24</AltitudeMeters>
            <DistanceMeters>NAN</DistanceMeters>
          </Trackpoint>
          <Trackpoint>
            <Time>2022-07-16T17:29:48.000Z</Time>
            <Position>
              <LatitudeDegrees>43.4622511826455593109130859375</LatitudeDegrees>
              <LongitudeDegrees>-5.06297671236097812652587890625</LongitudeDegrees>
            </Position>
            <AltitudeMeters>24</AltitudeMeters>
            <DistanceMeters>NAN</DistanceMeters>
          </Trackpoint>
          <Trackpoint>
            <Time>2022-07-16T17:29:51.000Z</Time>
            <Position>
              <LatitudeDegrees>43.462242968380451202392578125</LatitudeDegrees>
              <LongitudeDegrees>-5.06293748505413532257080078125</LongitudeDegrees>
            </Position>
            <AltitudeMeters>24</AltitudeMeters>
            <DistanceMeters>NAN</DistanceMeters>
          </Trackpoint>
          <Trackpoint>
            <Time>2022-07-16T17:29:59.000Z</Time>
            <Position>
              <LatitudeDegrees>43.46221388317644596099853515625</LatitudeDegrees>
              <LongitudeDegrees>-5.0628237426280975341796875</LongitudeDegrees>
            </Position>
            <AltitudeMeters>24.200000762939453125</AltitudeMeters>
            <DistanceMeters>NAN</DistanceMeters>
          </Trackpoint>
          <Trackpoint>
            <Time>2022-07-16T17:30:09.000Z</Time>
            <Position>
              <LatitudeDegrees>43.46217867918312549591064453125</LatitudeDegrees>
              <LongitudeDegrees>-5.0627115927636623382568359375</LongitudeDegrees>
            </Position>
            <AltitudeMeters>24</AltitudeMeters>
            <DistanceMeters>NAN</DistanceMeters>
          </Trackpoint>
          <Trackpoint>
            <Time>2022-07-16T17:30:11.000Z</Time>
            <Position>
              <LatitudeDegrees>43.4621673636138439178466796875</LatitudeDegrees>
              <LongitudeDegrees>-5.06267194636166095733642578125</LongitudeDegrees>
            </Position>
            <AltitudeMeters>24.200000762939453125</AltitudeMeters>
            <DistanceMeters>NAN</DistanceMeters>
          </Trackpoint>
          <Trackpoint>
            <Time>2022-07-16T17:30:14.000Z</Time>
            <Position>
              <LatitudeDegrees>43.46215705387294292449951171875</LatitudeDegrees>
              <LongitudeDegrees>-5.0626371614634990692138671875</LongitudeDegrees>
            </Position>
            <AltitudeMeters>24</AltitudeMeters>
            <DistanceMeters>NAN</DistanceMeters>
          </Trackpoint>
          <Trackpoint>
            <Time>2022-07-16T17:30:22.000Z</Time>
            <Position>
              <LatitudeDegrees>43.4621194191277027130126953125</LatitudeDegrees>
              <LongitudeDegrees>-5.062546469271183013916015625</LongitudeDegrees>
            </Position>
            <AltitudeMeters>24.200000762939453125</AltitudeMeters>
            <DistanceMeters>NAN</DistanceMeters>
          </Trackpoint>
          <Trackpoint>
            <Time>2022-07-16T17:30:25.000Z</Time>
            <Position>
              <LatitudeDegrees>43.46210709773004055023193359375</LatitudeDegrees>
              <LongitudeDegrees>-5.062508247792720794677734375</LongitudeDegrees>
            </Position>
            <AltitudeMeters>24.200000762939453125</AltitudeMeters>
            <DistanceMeters>NAN</DistanceMeters>
          </Trackpoint>
          <Trackpoint>
            <Time>2022-07-16T17:30:28.000Z</Time>
            <Position>
              <LatitudeDegrees>43.46209150739014148712158203125</LatitudeDegrees>
              <LongitudeDegrees>-5.06247497163712978363037109375</LongitudeDegrees>
            </Position>
            <AltitudeMeters>24.200000762939453125</AltitudeMeters>
            <DistanceMeters>NAN</DistanceMeters>
          </Trackpoint>
          <Trackpoint>
            <Time>2022-07-16T17:30:33.000Z</Time>
            <Position>
              <LatitudeDegrees>43.46206753514707088470458984375</LatitudeDegrees>
              <LongitudeDegrees>-5.06242317147552967071533203125</LongitudeDegrees>
            </Position>
            <AltitudeMeters>24.200000762939453125</AltitudeMeters>
            <DistanceMeters>NAN</DistanceMeters>
          </Trackpoint>
          <Trackpoint>
            <Time>2022-07-16T17:30:44.000Z</Time>
            <Position>
              <LatitudeDegrees>43.4620198421180248260498046875</LatitudeDegrees>
              <LongitudeDegrees>-5.0622720457613468170166015625</LongitudeDegrees>
            </Position>
            <AltitudeMeters>24.200000762939453125</AltitudeMeters>
            <DistanceMeters>NAN</DistanceMeters>
          </Trackpoint>
          <Trackpoint>
            <Time>2022-07-16T17:30:57.000Z</Time>
            <Position>
              <LatitudeDegrees>43.46197382546961307525634765625</LatitudeDegrees>
              <LongitudeDegrees>-5.06210558116436004638671875</LongitudeDegrees>
            </Position>
            <AltitudeMeters>24.200000762939453125</AltitudeMeters>
            <DistanceMeters>NAN</DistanceMeters>
          </Trackpoint>
          <Trackpoint>
            <Time>2022-07-16T17:31:09.000Z</Time>
            <Position>
              <LatitudeDegrees>43.4619319997727870941162109375</LatitudeDegrees>
              <LongitudeDegrees>-5.06195177324116230010986328125</LongitudeDegrees>
            </Position>
            <AltitudeMeters>24</AltitudeMeters>
            <DistanceMeters>NAN</DistanceMeters>
          </Trackpoint>
          <Trackpoint>
            <Time>2022-07-16T17:31:23.000Z</Time>
            <Position>
              <LatitudeDegrees>43.46186905167996883392333984375</LatitudeDegrees>
              <LongitudeDegrees>-5.0617828778922557830810546875</LongitudeDegrees>
            </Position>
            <AltitudeMeters>24</AltitudeMeters>
            <DistanceMeters>NAN</DistanceMeters>
          </Trackpoint>
          <Trackpoint>
            <Time>2022-07-16T17:31:31.000Z</Time>
            <Position>
              <LatitudeDegrees>43.4618384577333927154541015625</LatitudeDegrees>
              <LongitudeDegrees>-5.06169076077640056610107421875</LongitudeDegrees>
            </Position>
            <AltitudeMeters>24</AltitudeMeters>
            <DistanceMeters>NAN</DistanceMeters>
          </Trackpoint>
          <Trackpoint>
            <Time>2022-07-16T17:31:35.000Z</Time>
            <Position>
              <LatitudeDegrees>43.46182295121252536773681640625</LatitudeDegrees>
              <LongitudeDegrees>-5.06164482794702053070068359375</LongitudeDegrees>
            </Position>
            <AltitudeMeters>24</AltitudeMeters>
            <DistanceMeters>NAN</DistanceMeters>
          </Trackpoint>
          <Trackpoint>
            <Time>2022-07-16T17:31:39.000Z</Time>
            <Position>
              <LatitudeDegrees>43.4618042595684528350830078125</LatitudeDegrees>
              <LongitudeDegrees>-5.06159872747957706451416015625</LongitudeDegrees>
            </Position>
            <AltitudeMeters>24</AltitudeMeters>
            <DistanceMeters>NAN</DistanceMeters>
          </Trackpoint>
          <Trackpoint>
            <Time>2022-07-16T17:31:46.000Z</Time>
            <Position>
              <LatitudeDegrees>43.46177768893539905548095703125</LatitudeDegrees>
              <LongitudeDegrees>-5.061517842113971710205078125</LongitudeDegrees>
            </Position>
            <AltitudeMeters>24</AltitudeMeters>
            <DistanceMeters>NAN</DistanceMeters>
          </Trackpoint>
          <Trackpoint>
            <Time>2022-07-16T17:31:57.000Z</Time>
            <Position>
              <LatitudeDegrees>43.46175111830234527587890625</LatitudeDegrees>
              <LongitudeDegrees>-5.06140418350696563720703125</LongitudeDegrees>
            </Position>
            <AltitudeMeters>24</AltitudeMeters>
            <DistanceMeters>NAN</DistanceMeters>
          </Trackpoint>
          <Trackpoint>
            <Time>2022-07-16T17:32:08.000Z</Time>
            <Position>
              <LatitudeDegrees>43.46171465702354907989501953125</LatitudeDegrees>
              <LongitudeDegrees>-5.0612853281199932098388671875</LongitudeDegrees>
            </Position>
            <AltitudeMeters>24</AltitudeMeters>
            <DistanceMeters>NAN</DistanceMeters>
          </Trackpoint>
          <Trackpoint>
            <Time>2022-07-16T17:32:18.000Z</Time>
            <Position>
              <LatitudeDegrees>43.4616724960505962371826171875</LatitudeDegrees>
              <LongitudeDegrees>-5.06116303615272045135498046875</LongitudeDegrees>
            </Position>
            <AltitudeMeters>24</AltitudeMeters>
            <DistanceMeters>NAN</DistanceMeters>
          </Trackpoint>
          <Trackpoint>
            <Time>2022-07-16T17:32:29.000Z</Time>
            <Position>
              <LatitudeDegrees>43.4616372920572757720947265625</LatitudeDegrees>
              <LongitudeDegrees>-5.06103579886257648468017578125</LongitudeDegrees>
            </Position>
            <AltitudeMeters>24</AltitudeMeters>
            <DistanceMeters>NAN</DistanceMeters>
          </Trackpoint>
          <Trackpoint>
            <Time>2022-07-16T17:32:36.000Z</Time>
            <Position>
              <LatitudeDegrees>43.4616245515644550323486328125</LatitudeDegrees>
              <LongitudeDegrees>-5.060966648161411285400390625</LongitudeDegrees>
            </Position>
            <AltitudeMeters>24</AltitudeMeters>
            <DistanceMeters>NAN</DistanceMeters>
          </Trackpoint>
          <Trackpoint>
            <Time>2022-07-16T17:36:34.000Z</Time>
            <Position>
              <LatitudeDegrees>43.4622049145400524139404296875</LatitudeDegrees>
              <LongitudeDegrees>-5.06000901572406291961669921875</LongitudeDegrees>
            </Position>
            <AltitudeMeters>19.3999996185302734375</AltitudeMeters>
            <DistanceMeters>NAN</DistanceMeters>
          </Trackpoint>
          <Trackpoint>
            <Time>2022-07-16T17:36:35.000Z</Time>
            <Position>
              <LatitudeDegrees>43.46222880296409130096435546875</LatitudeDegrees>
              <LongitudeDegrees>-5.05997615866363048553466796875</LongitudeDegrees>
            </Position>
            <AltitudeMeters>19.3999996185302734375</AltitudeMeters>
            <DistanceMeters>NAN</DistanceMeters>
          </Trackpoint>
          <Trackpoint>
            <Time>2022-07-16T17:36:39.000Z</Time>
            <Position>
              <LatitudeDegrees>43.46233458258211612701416015625</LatitudeDegrees>
              <LongitudeDegrees>-5.05983148701488971710205078125</LongitudeDegrees>
            </Position>
            <AltitudeMeters>19.6000003814697265625</AltitudeMeters>
            <DistanceMeters>NAN</DistanceMeters>
          </Trackpoint>
          <Trackpoint>
            <Time>2022-07-16T17:36:46.000Z</Time>
            <Position>
              <LatitudeDegrees>43.462518565356731414794921875</LatitudeDegrees>
              <LongitudeDegrees>-5.05957298912107944488525390625</LongitudeDegrees>
            </Position>
            <AltitudeMeters>19.6000003814697265625</AltitudeMeters>
            <DistanceMeters>NAN</DistanceMeters>
          </Trackpoint>
          <Trackpoint>
            <Time>2022-07-16T17:36:52.000Z</Time>
            <Position>
              <LatitudeDegrees>43.4626602195203304290771484375</LatitudeDegrees>
              <LongitudeDegrees>-5.0593913532793521881103515625</LongitudeDegrees>
            </Position>
            <AltitudeMeters>19.6000003814697265625</AltitudeMeters>
            <DistanceMeters>NAN</DistanceMeters>
          </Trackpoint>
          <Trackpoint>
            <Time>2022-07-16T17:36:56.000Z</Time>
            <Position>
              <LatitudeDegrees>43.46274831332266330718994140625</LatitudeDegrees>
              <LongitudeDegrees>-5.05925632081925868988037109375</LongitudeDegrees>
            </Position>
            <AltitudeMeters>19.6000003814697265625</AltitudeMeters>
            <DistanceMeters>NAN</DistanceMeters>
          </Trackpoint>
          <Trackpoint>
            <Time>2022-07-16T17:36:58.000Z</Time>
            <Position>
              <LatitudeDegrees>43.4627886302769184112548828125</LatitudeDegrees>
              <LongitudeDegrees>-5.0591841526329517364501953125</LongitudeDegrees>
            </Position>
            <AltitudeMeters>19.6000003814697265625</AltitudeMeters>
            <DistanceMeters>NAN</DistanceMeters>
          </Trackpoint>
          <Trackpoint>
            <Time>2022-07-16T17:37:00.000Z</Time>
            <Position>
              <LatitudeDegrees>43.4628305397927761077880859375</LatitudeDegrees>
              <LongitudeDegrees>-5.0591060332953929901123046875</LongitudeDegrees>
            </Position>
            <AltitudeMeters>19.6000003814697265625</AltitudeMeters>
            <DistanceMeters>NAN</DistanceMeters>
          </Trackpoint>
          <Trackpoint>
            <Time>2022-07-16T17:37:05.000Z</Time>
            <Position>
              <LatitudeDegrees>43.4629405103623867034912109375</LatitudeDegrees>
              <LongitudeDegrees>-5.058942921459674835205078125</LongitudeDegrees>
            </Position>
            <AltitudeMeters>19.799999237060546875</AltitudeMeters>
            <DistanceMeters>NAN</DistanceMeters>
          </Trackpoint>
          <Trackpoint>
            <Time>2022-07-16T17:37:06.000Z</Time>
            <Position>
              <LatitudeDegrees>43.46296775154769420623779296875</LatitudeDegrees>
              <LongitudeDegrees>-5.0589011795818805694580078125</LongitudeDegrees>
            </Position>
            <AltitudeMeters>19.799999237060546875</AltitudeMeters>
            <DistanceMeters>NAN</DistanceMeters>
          </Trackpoint>
          <Trackpoint>
            <Time>2022-07-16T17:37:11.000Z</Time>
            <Position>
              <LatitudeDegrees>43.46307353116571903228759765625</LatitudeDegrees>
              <LongitudeDegrees>-5.05874074995517730712890625</LongitudeDegrees>
            </Position>
            <AltitudeMeters>19.6000003814697265625</AltitudeMeters>
            <DistanceMeters>NAN</DistanceMeters>
          </Trackpoint>
          <Trackpoint>
            <Time>2022-07-16T17:37:13.000Z</Time>
            <Position>
              <LatitudeDegrees>43.46311225555837154388427734375</LatitudeDegrees>
              <LongitudeDegrees>-5.0586741976439952850341796875</LongitudeDegrees>
            </Position>
            <AltitudeMeters>19.6000003814697265625</AltitudeMeters>
            <DistanceMeters>NAN</DistanceMeters>
          </Trackpoint>
          <Trackpoint>
            <Time>2022-07-16T17:37:17.000Z</Time>
            <Position>
              <LatitudeDegrees>43.4631996788084506988525390625</LatitudeDegrees>
              <LongitudeDegrees>-5.05854620598256587982177734375</LongitudeDegrees>
            </Position>
            <AltitudeMeters>19.6000003814697265625</AltitudeMeters>
            <DistanceMeters>NAN</DistanceMeters>
          </Trackpoint>
          <Trackpoint>
            <Time>2022-07-16T17:37:20.000Z</Time>
            <Position>
              <LatitudeDegrees>43.46324938349425792694091796875</LatitudeDegrees>
              <LongitudeDegrees>-5.058460123836994171142578125</LongitudeDegrees>
            </Position>
            <AltitudeMeters>19.6000003814697265625</AltitudeMeters>
            <DistanceMeters>NAN</DistanceMeters>
          </Trackpoint>
          <Trackpoint>
            <Time>2022-07-16T17:37:27.000Z</Time>
            <Position>
              <LatitudeDegrees>43.4633820690214633941650390625</LatitudeDegrees>
              <LongitudeDegrees>-5.0582634843885898590087890625</LongitudeDegrees>
            </Position>
            <AltitudeMeters>19.6000003814697265625</AltitudeMeters>
            <DistanceMeters>NAN</DistanceMeters>
          </Trackpoint>
          <Trackpoint>
            <Time>2022-07-16T17:37:34.000Z</Time>
            <Position>
              <LatitudeDegrees>43.4635309316217899322509765625</LatitudeDegrees>
              <LongitudeDegrees>-5.05804915912449359893798828125</LongitudeDegrees>
            </Position>
            <AltitudeMeters>19.6000003814697265625</AltitudeMeters>
            <DistanceMeters>NAN</DistanceMeters>
          </Trackpoint>
          <Trackpoint>
            <Time>2022-07-16T17:37:42.000Z</Time>
            <Position>
              <LatitudeDegrees>43.46369161270558834075927734375</LatitudeDegrees>
              <LongitudeDegrees>-5.057830810546875</LongitudeDegrees>
            </Position>
            <AltitudeMeters>19.3999996185302734375</AltitudeMeters>
            <DistanceMeters>NAN</DistanceMeters>
          </Trackpoint>
          <Trackpoint>
            <Time>2022-07-16T17:37:47.000Z</Time>
            <Position>
              <LatitudeDegrees>43.4637706540524959564208984375</LatitudeDegrees>
              <LongitudeDegrees>-5.05766811780631542205810546875</LongitudeDegrees>
            </Position>
            <AltitudeMeters>19.3999996185302734375</AltitudeMeters>
            <DistanceMeters>NAN</DistanceMeters>
          </Trackpoint>
          <Trackpoint>
            <Time>2022-07-16T17:37:55.000Z</Time>
            <Position>
              <LatitudeDegrees>43.463874757289886474609375</LatitudeDegrees>
              <LongitudeDegrees>-5.05745773203670978546142578125</LongitudeDegrees>
            </Position>
            <AltitudeMeters>19.200000762939453125</AltitudeMeters>
            <DistanceMeters>NAN</DistanceMeters>
          </Trackpoint>
          <Trackpoint>
            <Time>2022-07-16T17:37:58.000Z</Time>
            <Position>
              <LatitudeDegrees>43.46387919969856739044189453125</LatitudeDegrees>
              <LongitudeDegrees>-5.05745471455156803131103515625</LongitudeDegrees>
            </Position>
            <AltitudeMeters>19.200000762939453125</AltitudeMeters>
            <DistanceMeters>NAN</DistanceMeters>
          </Trackpoint>
          <Trackpoint>
            <Time>2022-07-16T17:38:43.000Z</Time>
            <Position>
              <LatitudeDegrees>43.463885150849819183349609375</LatitudeDegrees>
              <LongitudeDegrees>-5.0574256293475627899169921875</LongitudeDegrees>
            </Position>
            <AltitudeMeters>19.3999996185302734375</AltitudeMeters>
            <DistanceMeters>NAN</DistanceMeters>
          </Trackpoint>
          <Trackpoint>
            <Time>2022-07-16T17:38:44.000Z</Time>
            <Position>
              <LatitudeDegrees>43.46387408673763275146484375</LatitudeDegrees>
              <LongitudeDegrees>-5.0574480928480625152587890625</LongitudeDegrees>
            </Position>
            <AltitudeMeters>19.3999996185302734375</AltitudeMeters>
            <DistanceMeters>NAN</DistanceMeters>
          </Trackpoint>
          <Trackpoint>
            <Time>2022-07-16T17:38:49.000Z</Time>
            <Position>
              <LatitudeDegrees>43.46375682391226291656494140625</LatitudeDegrees>
              <LongitudeDegrees>-5.05752730183303356170654296875</LongitudeDegrees>
            </Position>
            <AltitudeMeters>18.6000003814697265625</AltitudeMeters>
            <DistanceMeters>NAN</DistanceMeters>
          </Trackpoint>
          <Trackpoint>
            <Time>2022-07-16T17:38:53.000Z</Time>
            <Position>
              <LatitudeDegrees>43.46370778977870941162109375</LatitudeDegrees>
              <LongitudeDegrees>-5.0576284714043140411376953125</LongitudeDegrees>
            </Position>
            <AltitudeMeters>18.3999996185302734375</AltitudeMeters>
            <DistanceMeters>NAN</DistanceMeters>
          </Trackpoint>
          <Trackpoint>
            <Time>2022-07-16T17:38:56.000Z</Time>
            <Position>
              <LatitudeDegrees>43.4636667184531688690185546875</LatitudeDegrees>
              <LongitudeDegrees>-5.0576975382864475250244140625</LongitudeDegrees>
            </Position>
            <AltitudeMeters>18.200000762939453125</AltitudeMeters>
            <DistanceMeters>NAN</DistanceMeters>
          </Trackpoint>
          <Trackpoint>
            <Time>2022-07-16T17:39:00.000Z</Time>
            <Position>
              <LatitudeDegrees>43.46365489996969699859619140625</LatitudeDegrees>
              <LongitudeDegrees>-5.05773919634521007537841796875</LongitudeDegrees>
            </Position>
            <AltitudeMeters>18</AltitudeMeters>
            <DistanceMeters>NAN</DistanceMeters>
          </Trackpoint>
          <Trackpoint>
            <Time>2022-07-16T17:39:01.000Z</Time>
            <Position>
              <LatitudeDegrees>43.46365489996969699859619140625</LatitudeDegrees>
              <LongitudeDegrees>-5.05773919634521007537841796875</LongitudeDegrees>
            </Position>
            <AltitudeMeters>18</AltitudeMeters>
            <DistanceMeters>NAN</DistanceMeters>
          </Trackpoint>
          <Trackpoint>
            <Time>2022-07-16T17:40:39.000Z</Time>
            <Position>
              <LatitudeDegrees>43.46358306705951690673828125</LatitudeDegrees>
              <LongitudeDegrees>-5.0577857159078121185302734375</LongitudeDegrees>
            </Position>
            <AltitudeMeters>18</AltitudeMeters>
            <DistanceMeters>NAN</DistanceMeters>
          </Trackpoint>
          <Trackpoint>
            <Time>2022-07-16T17:40:40.000Z</Time>
            <Position>
              <LatitudeDegrees>43.46358306705951690673828125</LatitudeDegrees>
              <LongitudeDegrees>-5.0577857159078121185302734375</LongitudeDegrees>
            </Position>
            <AltitudeMeters>18</AltitudeMeters>
            <DistanceMeters>NAN</DistanceMeters>
          </Trackpoint>
          <Trackpoint>
            <Time>2022-07-16T17:40:41.000Z</Time>
            <Position>
              <LatitudeDegrees>43.4635815583169460296630859375</LatitudeDegrees>
              <LongitudeDegrees>-5.057786889374256134033203125</LongitudeDegrees>
            </Position>
            <AltitudeMeters>18</AltitudeMeters>
            <DistanceMeters>NAN</DistanceMeters>
          </Trackpoint>
          <Trackpoint>
            <Time>2022-07-16T17:40:43.000Z</Time>
            <Position>
              <LatitudeDegrees>43.46357778646051883697509765625</LatitudeDegrees>
              <LongitudeDegrees>-5.0577991269528865814208984375</LongitudeDegrees>
            </Position>
            <AltitudeMeters>18</AltitudeMeters>
            <DistanceMeters>NAN</DistanceMeters>
          </Trackpoint>
          <Trackpoint>
            <Time>2022-07-16T17:40:46.000Z</Time>
            <Position>
              <LatitudeDegrees>43.4635751880705356597900390625</LatitudeDegrees>
              <LongitudeDegrees>-5.05782133899629116058349609375</LongitudeDegrees>
            </Position>
            <AltitudeMeters>18</AltitudeMeters>
            <DistanceMeters>NAN</DistanceMeters>
          </Trackpoint>
          <Trackpoint>
            <Time>2022-07-16T17:40:47.000Z</Time>
            <Position>
              <LatitudeDegrees>43.4635730087757110595703125</LatitudeDegrees>
              <LongitudeDegrees>-5.05783818662166595458984375</LongitudeDegrees>
            </Position>
            <AltitudeMeters>18</AltitudeMeters>
            <DistanceMeters>NAN</DistanceMeters>
          </Trackpoint>
          <Trackpoint>
            <Time>2022-07-16T17:40:49.000Z</Time>
            <Position>
              <LatitudeDegrees>43.4635725058615207672119140625</LatitudeDegrees>
              <LongitudeDegrees>-5.0578775815665721893310546875</LongitudeDegrees>
            </Position>
            <AltitudeMeters>18</AltitudeMeters>
            <DistanceMeters>NAN</DistanceMeters>
          </Trackpoint>
          <Trackpoint>
            <Time>2022-07-16T17:40:51.000Z</Time>
            <Position>
              <LatitudeDegrees>43.46358633600175380706787109375</LatitudeDegrees>
              <LongitudeDegrees>-5.05789208225905895233154296875</LongitudeDegrees>
            </Position>
            <AltitudeMeters>18</AltitudeMeters>
            <DistanceMeters>NAN</DistanceMeters>
          </Trackpoint>
          <Trackpoint>
            <Time>2022-07-16T17:40:54.000Z</Time>
            <Position>
              <LatitudeDegrees>43.463543839752674102783203125</LatitudeDegrees>
              <LongitudeDegrees>-5.057870037853717803955078125</LongitudeDegrees>
            </Position>
            <AltitudeMeters>18</AltitudeMeters>
            <DistanceMeters>NAN</DistanceMeters>
          </Trackpoint>
          <Trackpoint>
            <Time>2022-07-16T17:40:56.000Z</Time>
            <Position>
              <LatitudeDegrees>43.46348927356302738189697265625</LatitudeDegrees>
              <LongitudeDegrees>-5.0578628294169902801513671875</LongitudeDegrees>
            </Position>
            <AltitudeMeters>18</AltitudeMeters>
            <DistanceMeters>NAN</DistanceMeters>
          </Trackpoint>
          <Trackpoint>
            <Time>2022-07-16T17:41:01.000Z</Time>
            <Position>
              <LatitudeDegrees>43.46341408789157867431640625</LatitudeDegrees>
              <LongitudeDegrees>-5.057994425296783447265625</LongitudeDegrees>
            </Position>
            <AltitudeMeters>18</AltitudeMeters>
            <DistanceMeters>NAN</DistanceMeters>
          </Trackpoint>
          <Trackpoint>
            <Time>2022-07-16T17:41:02.000Z</Time>
            <Position>
              <LatitudeDegrees>43.46341408789157867431640625</LatitudeDegrees>
              <LongitudeDegrees>-5.057994425296783447265625</LongitudeDegrees>
            </Position>
            <AltitudeMeters>18</AltitudeMeters>
            <DistanceMeters>NAN</DistanceMeters>
          </Trackpoint>
          <Trackpoint>
            <Time>2022-07-16T17:41:06.000Z</Time>
            <Position>
              <LatitudeDegrees>43.46333806402981281280517578125</LatitudeDegrees>
              <LongitudeDegrees>-5.05802820436656475067138671875</LongitudeDegrees>
            </Position>
            <AltitudeMeters>18</AltitudeMeters>
            <DistanceMeters>NAN</DistanceMeters>
          </Trackpoint>
          <Trackpoint>
            <Time>2022-07-16T17:41:08.000Z</Time>
            <Position>
              <LatitudeDegrees>43.4633381478488445281982421875</LatitudeDegrees>
              <LongitudeDegrees>-5.05802820436656475067138671875</LongitudeDegrees>
            </Position>
            <AltitudeMeters>18</AltitudeMeters>
            <DistanceMeters>NAN</DistanceMeters>
          </Trackpoint>
          <Trackpoint>
            <Time>2022-07-16T17:41:14.000Z</Time>
            <Position>
              <LatitudeDegrees>43.46338734962046146392822265625</LatitudeDegrees>
              <LongitudeDegrees>-5.05800842307507991790771484375</LongitudeDegrees>
            </Position>
            <AltitudeMeters>18.200000762939453125</AltitudeMeters>
            <DistanceMeters>NAN</DistanceMeters>
          </Trackpoint>
          <Trackpoint>
            <Time>2022-07-16T17:41:29.000Z</Time>
            <Position>
              <LatitudeDegrees>43.46343898214399814605712890625</LatitudeDegrees>
              <LongitudeDegrees>-5.05799232982099056243896484375</LongitudeDegrees>
            </Position>
            <AltitudeMeters>17.799999237060546875</AltitudeMeters>
            <DistanceMeters>NAN</DistanceMeters>
          </Trackpoint>
          <Trackpoint>
            <Time>2022-07-16T17:41:30.000Z</Time>
            <Position>
              <LatitudeDegrees>43.4634528122842311859130859375</LatitudeDegrees>
              <LongitudeDegrees>-5.0579902343451976776123046875</LongitudeDegrees>
            </Position>
            <AltitudeMeters>17.799999237060546875</AltitudeMeters>
            <DistanceMeters>NAN</DistanceMeters>
          </Trackpoint>
          <Trackpoint>
            <Time>2022-07-16T17:41:31.000Z</Time>
            <Position>
              <LatitudeDegrees>43.4634844958782196044921875</LatitudeDegrees>
              <LongitudeDegrees>-5.05798109807074069976806640625</LongitudeDegrees>
            </Position>
            <AltitudeMeters>17.6000003814697265625</AltitudeMeters>
            <DistanceMeters>NAN</DistanceMeters>
          </Trackpoint>
          <Trackpoint>
            <Time>2022-07-16T17:42:15.000Z</Time>
            <Position>
              <LatitudeDegrees>43.4637320972979068756103515625</LatitudeDegrees>
              <LongitudeDegrees>-5.05779736675322055816650390625</LongitudeDegrees>
            </Position>
            <AltitudeMeters>17.6000003814697265625</AltitudeMeters>
            <DistanceMeters>NAN</DistanceMeters>
          </Trackpoint>
          <Trackpoint>
            <Time>2022-07-16T17:42:17.000Z</Time>
            <Position>
              <LatitudeDegrees>43.46330654807388782501220703125</LatitudeDegrees>
              <LongitudeDegrees>-5.057870708405971527099609375</LongitudeDegrees>
            </Position>
            <AltitudeMeters>17.6000003814697265625</AltitudeMeters>
            <DistanceMeters>NAN</DistanceMeters>
          </Trackpoint>
          <Trackpoint>
            <Time>2022-07-16T17:43:34.000Z</Time>
            <Position>
              <LatitudeDegrees>43.4636616893112659454345703125</LatitudeDegrees>
              <LongitudeDegrees>-5.05779393017292022705078125</LongitudeDegrees>
            </Position>
            <AltitudeMeters>16.6000003814697265625</AltitudeMeters>
            <DistanceMeters>NAN</DistanceMeters>
          </Trackpoint>
          <Trackpoint>
            <Time>2022-07-16T17:43:35.000Z</Time>
            <Position>
              <LatitudeDegrees>43.46366562880575656890869140625</LatitudeDegrees>
              <LongitudeDegrees>-5.0577964447438716888427734375</LongitudeDegrees>
            </Position>
            <AltitudeMeters>16.3999996185302734375</AltitudeMeters>
            <DistanceMeters>NAN</DistanceMeters>
          </Trackpoint>
          <Trackpoint>
            <Time>2022-07-16T17:43:37.000Z</Time>
            <Position>
              <LatitudeDegrees>43.46366562880575656890869140625</LatitudeDegrees>
              <LongitudeDegrees>-5.0577964447438716888427734375</LongitudeDegrees>
            </Position>
            <AltitudeMeters>16.3999996185302734375</AltitudeMeters>
            <DistanceMeters>NAN</DistanceMeters>
          </Trackpoint>
          <Trackpoint>
            <Time>2022-07-16T17:43:41.000Z</Time>
            <Position>
              <LatitudeDegrees>43.463662527501583099365234375</LatitudeDegrees>
              <LongitudeDegrees>-5.057825110852718353271484375</LongitudeDegrees>
            </Position>
            <AltitudeMeters>16.3999996185302734375</AltitudeMeters>
            <DistanceMeters>NAN</DistanceMeters>
          </Trackpoint>
          <Trackpoint>
            <Time>2022-07-16T17:43:43.000Z</Time>
            <Position>
              <LatitudeDegrees>43.46365682780742645263671875</LatitudeDegrees>
              <LongitudeDegrees>-5.057853274047374725341796875</LongitudeDegrees>
            </Position>
            <AltitudeMeters>16.6000003814697265625</AltitudeMeters>
            <DistanceMeters>NAN</DistanceMeters>
          </Trackpoint>
          <Trackpoint>
            <Time>2022-07-16T17:43:46.000Z</Time>
            <Position>
              <LatitudeDegrees>43.4637044370174407958984375</LatitudeDegrees>
              <LongitudeDegrees>-5.0577320717275142669677734375</LongitudeDegrees>
            </Position>
            <AltitudeMeters>16.799999237060546875</AltitudeMeters>
            <DistanceMeters>NAN</DistanceMeters>
          </Trackpoint>
          <Trackpoint>
            <Time>2022-07-16T17:43:51.000Z</Time>
            <Position>
              <LatitudeDegrees>43.46373821608722209930419921875</LatitudeDegrees>
              <LongitudeDegrees>-5.05762101151049137115478515625</LongitudeDegrees>
            </Position>
            <AltitudeMeters>16.6000003814697265625</AltitudeMeters>
            <DistanceMeters>NAN</DistanceMeters>
          </Trackpoint>
          <Trackpoint>
            <Time>2022-07-16T17:43:54.000Z</Time>
            <Position>
              <LatitudeDegrees>43.46372656524181365966796875</LatitudeDegrees>
              <LongitudeDegrees>-5.05762319080531597137451171875</LongitudeDegrees>
            </Position>
            <AltitudeMeters>16.3999996185302734375</AltitudeMeters>
            <DistanceMeters>NAN</DistanceMeters>
          </Trackpoint>
          <Trackpoint>
            <Time>2022-07-16T17:43:55.000Z</Time>
            <Position>
              <LatitudeDegrees>43.4637253917753696441650390625</LatitudeDegrees>
              <LongitudeDegrees>-5.05764598958194255828857421875</LongitudeDegrees>
            </Position>
            <AltitudeMeters>16.3999996185302734375</AltitudeMeters>
            <DistanceMeters>NAN</DistanceMeters>
          </Trackpoint>
          <Trackpoint>
            <Time>2022-07-16T17:44:00.000Z</Time>
            <Position>
              <LatitudeDegrees>43.4637391380965709686279296875</LatitudeDegrees>
              <LongitudeDegrees>-5.05772897042334079742431640625</LongitudeDegrees>
            </Position>
            <AltitudeMeters>16.3999996185302734375</AltitudeMeters>
            <DistanceMeters>NAN</DistanceMeters>
          </Trackpoint>
          <Trackpoint>
            <Time>2022-07-16T17:44:05.000Z</Time>
            <Position>
              <LatitudeDegrees>43.46367183141410350799560546875</LatitudeDegrees>
              <LongitudeDegrees>-5.0579560361802577972412109375</LongitudeDegrees>
            </Position>
            <AltitudeMeters>16.6000003814697265625</AltitudeMeters>
            <DistanceMeters>NAN</DistanceMeters>
          </Trackpoint>
          <Trackpoint>
            <Time>2022-07-16T19:27:19.000Z</Time>
            <Position>
              <LatitudeDegrees>43.46341006457805633544921875</LatitudeDegrees>
              <LongitudeDegrees>-5.0583030469715595245361328125</LongitudeDegrees>
            </Position>
            <AltitudeMeters>14</AltitudeMeters>
            <DistanceMeters>NAN</DistanceMeters>
          </Trackpoint>
          <Trackpoint>
            <Time>2022-07-16T19:27:23.000Z</Time>
            <Position>
              <LatitudeDegrees>43.46331794746220111846923828125</LatitudeDegrees>
              <LongitudeDegrees>-5.05848015658557415008544921875</LongitudeDegrees>
            </Position>
            <AltitudeMeters>14</AltitudeMeters>
            <DistanceMeters>NAN</DistanceMeters>
          </Trackpoint>
          <Trackpoint>
            <Time>2022-07-16T19:27:32.000Z</Time>
            <Position>
              <LatitudeDegrees>43.46309834159910678863525390625</LatitudeDegrees>
              <LongitudeDegrees>-5.05883990786969661712646484375</LongitudeDegrees>
            </Position>
            <AltitudeMeters>13.80000019073486328125</AltitudeMeters>
            <DistanceMeters>NAN</DistanceMeters>
          </Trackpoint>
          <Trackpoint>
            <Time>2022-07-16T19:27:34.000Z</Time>
            <Position>
              <LatitudeDegrees>43.46304235048592090606689453125</LatitudeDegrees>
              <LongitudeDegrees>-5.058918111026287078857421875</LongitudeDegrees>
            </Position>
            <AltitudeMeters>13.80000019073486328125</AltitudeMeters>
            <DistanceMeters>NAN</DistanceMeters>
          </Trackpoint>
          <Trackpoint>
            <Time>2022-07-16T19:27:39.000Z</Time>
            <Position>
              <LatitudeDegrees>43.462924249470233917236328125</LatitudeDegrees>
              <LongitudeDegrees>-5.05910343490540981292724609375</LongitudeDegrees>
            </Position>
            <AltitudeMeters>14</AltitudeMeters>
            <DistanceMeters>NAN</DistanceMeters>
          </Trackpoint>
          <Trackpoint>
            <Time>2022-07-16T19:27:41.000Z</Time>
            <Position>
              <LatitudeDegrees>43.462873287498950958251953125</LatitudeDegrees>
              <LongitudeDegrees>-5.0591700710356235504150390625</LongitudeDegrees>
            </Position>
            <AltitudeMeters>14</AltitudeMeters>
            <DistanceMeters>NAN</DistanceMeters>
          </Trackpoint>
          <Trackpoint>
            <Time>2022-07-16T19:27:43.000Z</Time>
            <Position>
              <LatitudeDegrees>43.46281771548092365264892578125</LatitudeDegrees>
              <LongitudeDegrees>-5.059249699115753173828125</LongitudeDegrees>
            </Position>
            <AltitudeMeters>14</AltitudeMeters>
            <DistanceMeters>NAN</DistanceMeters>
          </Trackpoint>
          <Trackpoint>
            <Time>2022-07-16T19:27:44.000Z</Time>
            <Position>
              <LatitudeDegrees>43.46278854645788669586181640625</LatitudeDegrees>
              <LongitudeDegrees>-5.059286914765834808349609375</LongitudeDegrees>
            </Position>
            <AltitudeMeters>14</AltitudeMeters>
            <DistanceMeters>NAN</DistanceMeters>
          </Trackpoint>
          <Trackpoint>
            <Time>2022-07-16T19:27:46.000Z</Time>
            <Position>
              <LatitudeDegrees>43.46273758448660373687744140625</LatitudeDegrees>
              <LongitudeDegrees>-5.05937048234045505523681640625</LongitudeDegrees>
            </Position>
            <AltitudeMeters>14.19999980926513671875</AltitudeMeters>
            <DistanceMeters>NAN</DistanceMeters>
          </Trackpoint>
          <Trackpoint>
            <Time>2022-07-16T19:27:48.000Z</Time>
            <Position>
              <LatitudeDegrees>43.46268796361982822418212890625</LatitudeDegrees>
              <LongitudeDegrees>-5.0594527088105678558349609375</LongitudeDegrees>
            </Position>
            <AltitudeMeters>14.19999980926513671875</AltitudeMeters>
            <DistanceMeters>NAN</DistanceMeters>
          </Trackpoint>
          <Trackpoint>
            <Time>2022-07-16T19:27:51.000Z</Time>
            <Position>
              <LatitudeDegrees>43.46259727142751216888427734375</LatitudeDegrees>
              <LongitudeDegrees>-5.0595710612833499908447265625</LongitudeDegrees>
            </Position>
            <AltitudeMeters>14.3999996185302734375</AltitudeMeters>
            <DistanceMeters>NAN</DistanceMeters>
          </Trackpoint>
          <Trackpoint>
            <Time>2022-07-16T19:27:56.000Z</Time>
            <Position>
              <LatitudeDegrees>43.46248243935406208038330078125</LatitudeDegrees>
              <LongitudeDegrees>-5.0597678683698177337646484375</LongitudeDegrees>
            </Position>
            <AltitudeMeters>14.3999996185302734375</AltitudeMeters>
            <DistanceMeters>NAN</DistanceMeters>
          </Trackpoint>
          <Trackpoint>
            <Time>2022-07-16T19:27:57.000Z</Time>
            <Position>
              <LatitudeDegrees>43.4624567069113254547119140625</LatitudeDegrees>
              <LongitudeDegrees>-5.0598074309527873992919921875</LongitudeDegrees>
            </Position>
            <AltitudeMeters>14.3999996185302734375</AltitudeMeters>
            <DistanceMeters>NAN</DistanceMeters>
          </Trackpoint>
          <Trackpoint>
            <Time>2022-07-16T19:28:05.000Z</Time>
            <Position>
              <LatitudeDegrees>43.462232910096645355224609375</LatitudeDegrees>
              <LongitudeDegrees>-5.0600986182689666748046875</LongitudeDegrees>
            </Position>
            <AltitudeMeters>14.3999996185302734375</AltitudeMeters>
            <DistanceMeters>NAN</DistanceMeters>
          </Trackpoint>
          <Trackpoint>
            <Time>2022-07-16T19:28:11.000Z</Time>
            <Position>
              <LatitudeDegrees>43.4620510227978229522705078125</LatitudeDegrees>
              <LongitudeDegrees>-5.0602107681334018707275390625</LongitudeDegrees>
            </Position>
            <AltitudeMeters>14.6000003814697265625</AltitudeMeters>
            <DistanceMeters>NAN</DistanceMeters>
          </Trackpoint>
          <Trackpoint>
            <Time>2022-07-16T19:28:19.000Z</Time>
            <Position>
              <LatitudeDegrees>43.46187408082187175750732421875</LatitudeDegrees>
              <LongitudeDegrees>-5.06043733097612857818603515625</LongitudeDegrees>
            </Position>
            <AltitudeMeters>15.19999980926513671875</AltitudeMeters>
            <DistanceMeters>NAN</DistanceMeters>
          </Trackpoint>
          <Trackpoint>
            <Time>2022-07-16T19:28:25.000Z</Time>
            <Position>
              <LatitudeDegrees>43.4618253819644451141357421875</LatitudeDegrees>
              <LongitudeDegrees>-5.06060832180082798004150390625</LongitudeDegrees>
            </Position>
            <AltitudeMeters>15.6000003814697265625</AltitudeMeters>
            <DistanceMeters>NAN</DistanceMeters>
          </Trackpoint>
          <Trackpoint>
            <Time>2022-07-16T19:28:30.000Z</Time>
            <Position>
              <LatitudeDegrees>43.46175505779683589935302734375</LatitudeDegrees>
              <LongitudeDegrees>-5.060721226036548614501953125</LongitudeDegrees>
            </Position>
            <AltitudeMeters>15.80000019073486328125</AltitudeMeters>
            <DistanceMeters>NAN</DistanceMeters>
          </Trackpoint>
          <Trackpoint>
            <Time>2022-07-16T19:28:33.000Z</Time>
            <Position>
              <LatitudeDegrees>43.4616865776479244232177734375</LatitudeDegrees>
              <LongitudeDegrees>-5.06076841615140438079833984375</LongitudeDegrees>
            </Position>
            <AltitudeMeters>16.200000762939453125</AltitudeMeters>
            <DistanceMeters>NAN</DistanceMeters>
          </Trackpoint>
          <Trackpoint>
            <Time>2022-07-16T19:28:34.000Z</Time>
            <Position>
              <LatitudeDegrees>43.46166453324258327484130859375</LatitudeDegrees>
              <LongitudeDegrees>-5.0607857666909694671630859375</LongitudeDegrees>
            </Position>
            <AltitudeMeters>16.200000762939453125</AltitudeMeters>
            <DistanceMeters>NAN</DistanceMeters>
          </Trackpoint>
          <Trackpoint>
            <Time>2022-07-16T19:28:36.000Z</Time>
            <Position>
              <LatitudeDegrees>43.46162974834442138671875</LatitudeDegrees>
              <LongitudeDegrees>-5.06084351800382137298583984375</LongitudeDegrees>
            </Position>
            <AltitudeMeters>16.3999996185302734375</AltitudeMeters>
            <DistanceMeters>NAN</DistanceMeters>
          </Trackpoint>
          <Trackpoint>
            <Time>2022-07-16T19:28:37.000Z</Time>
            <Position>
              <LatitudeDegrees>43.4616188518702983856201171875</LatitudeDegrees>
              <LongitudeDegrees>-5.06086866371333599090576171875</LongitudeDegrees>
            </Position>
            <AltitudeMeters>16.3999996185302734375</AltitudeMeters>
            <DistanceMeters>NAN</DistanceMeters>
          </Trackpoint>
          <Trackpoint>
            <Time>2022-07-16T19:28:41.000Z</Time>
            <Position>
              <LatitudeDegrees>43.4616185165941715240478515625</LatitudeDegrees>
              <LongitudeDegrees>-5.0609855912625789642333984375</LongitudeDegrees>
            </Position>
            <AltitudeMeters>16.799999237060546875</AltitudeMeters>
            <DistanceMeters>NAN</DistanceMeters>
          </Trackpoint>
          <Trackpoint>
            <Time>2022-07-16T19:28:42.000Z</Time>
            <Position>
              <LatitudeDegrees>43.46162815578281879425048828125</LatitudeDegrees>
              <LongitudeDegrees>-5.0610140897333621978759765625</LongitudeDegrees>
            </Position>
            <AltitudeMeters>17</AltitudeMeters>
            <DistanceMeters>NAN</DistanceMeters>
          </Trackpoint>
          <Trackpoint>
            <Time>2022-07-16T19:28:45.000Z</Time>
            <Position>
              <LatitudeDegrees>43.461652211844921112060546875</LatitudeDegrees>
              <LongitudeDegrees>-5.06110754795372486114501953125</LongitudeDegrees>
            </Position>
            <AltitudeMeters>17.200000762939453125</AltitudeMeters>
            <DistanceMeters>NAN</DistanceMeters>
          </Trackpoint>
          <Trackpoint>
            <Time>2022-07-16T19:28:51.000Z</Time>
            <Position>
              <LatitudeDegrees>43.4617137350142002105712890625</LatitudeDegrees>
              <LongitudeDegrees>-5.06128239445388317108154296875</LongitudeDegrees>
            </Position>
            <AltitudeMeters>17.6000003814697265625</AltitudeMeters>
            <DistanceMeters>NAN</DistanceMeters>
          </Trackpoint>
          <Trackpoint>
            <Time>2022-07-16T19:28:52.000Z</Time>
            <Position>
              <LatitudeDegrees>43.46172471530735492706298828125</LatitudeDegrees>
              <LongitudeDegrees>-5.06131701171398162841796875</LongitudeDegrees>
            </Position>
            <AltitudeMeters>17.6000003814697265625</AltitudeMeters>
            <DistanceMeters>NAN</DistanceMeters>
          </Trackpoint>
          <Trackpoint>
            <Time>2022-07-16T19:28:59.000Z</Time>
            <Position>
              <LatitudeDegrees>43.46179914660751819610595703125</LatitudeDegrees>
              <LongitudeDegrees>-5.06155044771730899810791015625</LongitudeDegrees>
            </Position>
            <AltitudeMeters>18</AltitudeMeters>
            <DistanceMeters>NAN</DistanceMeters>
          </Trackpoint>
          <Trackpoint>
            <Time>2022-07-16T19:29:05.000Z</Time>
            <Position>
              <LatitudeDegrees>43.46187022514641284942626953125</LatitudeDegrees>
              <LongitudeDegrees>-5.06178480572998523712158203125</LongitudeDegrees>
            </Position>
            <AltitudeMeters>18.200000762939453125</AltitudeMeters>
            <DistanceMeters>NAN</DistanceMeters>
          </Trackpoint>
          <Trackpoint>
            <Time>2022-07-16T19:29:07.000Z</Time>
            <Position>
              <LatitudeDegrees>43.46190266311168670654296875</LatitudeDegrees>
              <LongitudeDegrees>-5.061868540942668914794921875</LongitudeDegrees>
            </Position>
            <AltitudeMeters>18.200000762939453125</AltitudeMeters>
            <DistanceMeters>NAN</DistanceMeters>
          </Trackpoint>
          <Trackpoint>
            <Time>2022-07-16T19:29:09.000Z</Time>
            <Position>
              <LatitudeDegrees>43.46193225122988224029541015625</LatitudeDegrees>
              <LongitudeDegrees>-5.06196049042046070098876953125</LongitudeDegrees>
            </Position>
            <AltitudeMeters>18.3999996185302734375</AltitudeMeters>
            <DistanceMeters>NAN</DistanceMeters>
          </Trackpoint>
          <Trackpoint>
            <Time>2022-07-16T19:29:13.000Z</Time>
            <Position>
              <LatitudeDegrees>43.46198824234306812286376953125</LatitudeDegrees>
              <LongitudeDegrees>-5.06213282234966754913330078125</LongitudeDegrees>
            </Position>
            <AltitudeMeters>18.200000762939453125</AltitudeMeters>
            <DistanceMeters>NAN</DistanceMeters>
          </Trackpoint>
          <Trackpoint>
            <Time>2022-07-16T19:29:14.000Z</Time>
            <Position>
              <LatitudeDegrees>43.462002240121364593505859375</LatitudeDegrees>
              <LongitudeDegrees>-5.06217456422746181488037109375</LongitudeDegrees>
            </Position>
            <AltitudeMeters>18</AltitudeMeters>
            <DistanceMeters>NAN</DistanceMeters>
          </Trackpoint>
          <Trackpoint>
            <Time>2022-07-16T19:29:16.000Z</Time>
            <Position>
              <LatitudeDegrees>43.4620302356779575347900390625</LatitudeDegrees>
              <LongitudeDegrees>-5.06225788034498691558837890625</LongitudeDegrees>
            </Position>
            <AltitudeMeters>18</AltitudeMeters>
            <DistanceMeters>NAN</DistanceMeters>
          </Trackpoint>
          <Trackpoint>
            <Time>2022-07-16T19:29:24.000Z</Time>
            <Position>
              <LatitudeDegrees>43.462144397199153900146484375</LatitudeDegrees>
              <LongitudeDegrees>-5.0626180507242679595947265625</LongitudeDegrees>
            </Position>
            <AltitudeMeters>18.3999996185302734375</AltitudeMeters>
            <DistanceMeters>NAN</DistanceMeters>
          </Trackpoint>
          <Trackpoint>
            <Time>2022-07-16T19:29:27.000Z</Time>
            <Position>
              <LatitudeDegrees>43.46218773163855075836181640625</LatitudeDegrees>
              <LongitudeDegrees>-5.06275190971791744232177734375</LongitudeDegrees>
            </Position>
            <AltitudeMeters>18.200000762939453125</AltitudeMeters>
            <DistanceMeters>NAN</DistanceMeters>
          </Trackpoint>
          <Trackpoint>
            <Time>2022-07-16T19:29:31.000Z</Time>
            <Position>
              <LatitudeDegrees>43.46224062144756317138671875</LatitudeDegrees>
              <LongitudeDegrees>-5.06293329410254955291748046875</LongitudeDegrees>
            </Position>
            <AltitudeMeters>18.3999996185302734375</AltitudeMeters>
            <DistanceMeters>NAN</DistanceMeters>
          </Trackpoint>
          <Trackpoint>
            <Time>2022-07-16T19:29:42.000Z</Time>
            <Position>
              <LatitudeDegrees>43.462397195398807525634765625</LatitudeDegrees>
              <LongitudeDegrees>-5.06341190077364444732666015625</LongitudeDegrees>
            </Position>
            <AltitudeMeters>18.6000003814697265625</AltitudeMeters>
            <DistanceMeters>NAN</DistanceMeters>
          </Trackpoint>
          <Trackpoint>
            <Time>2022-07-16T19:29:47.000Z</Time>
            <Position>
              <LatitudeDegrees>43.462473638355731964111328125</LatitudeDegrees>
              <LongitudeDegrees>-5.06363888271152973175048828125</LongitudeDegrees>
            </Position>
            <AltitudeMeters>18.3999996185302734375</AltitudeMeters>
            <DistanceMeters>NAN</DistanceMeters>
          </Trackpoint>
          <Trackpoint>
            <Time>2022-07-16T19:29:50.000Z</Time>
            <Position>
              <LatitudeDegrees>43.4625157155096530914306640625</LatitudeDegrees>
              <LongitudeDegrees>-5.06376855075359344482421875</LongitudeDegrees>
            </Position>
            <AltitudeMeters>18.3999996185302734375</AltitudeMeters>
            <DistanceMeters>NAN</DistanceMeters>
          </Trackpoint>
          <Trackpoint>
            <Time>2022-07-16T19:29:57.000Z</Time>
            <Position>
              <LatitudeDegrees>43.4626176394522190093994140625</LatitudeDegrees>
              <LongitudeDegrees>-5.0640731491148471832275390625</LongitudeDegrees>
            </Position>
            <AltitudeMeters>18.6000003814697265625</AltitudeMeters>
            <DistanceMeters>NAN</DistanceMeters>
          </Trackpoint>
          <Trackpoint>
            <Time>2022-07-16T19:29:59.000Z</Time>
            <Position>
              <LatitudeDegrees>43.46264295279979705810546875</LatitudeDegrees>
              <LongitudeDegrees>-5.064150430262088775634765625</LongitudeDegrees>
            </Position>
            <AltitudeMeters>18.799999237060546875</AltitudeMeters>
            <DistanceMeters>NAN</DistanceMeters>
          </Trackpoint>
          <Trackpoint>
            <Time>2022-07-16T19:30:03.000Z</Time>
            <Position>
              <LatitudeDegrees>43.46269366331398487091064453125</LatitudeDegrees>
              <LongitudeDegrees>-5.064329802989959716796875</LongitudeDegrees>
            </Position>
            <AltitudeMeters>18.799999237060546875</AltitudeMeters>
            <DistanceMeters>NAN</DistanceMeters>
          </Trackpoint>
          <Trackpoint>
            <Time>2022-07-16T19:30:07.000Z</Time>
            <Position>
              <LatitudeDegrees>43.462753258645534515380859375</LatitudeDegrees>
              <LongitudeDegrees>-5.0644893944263458251953125</LongitudeDegrees>
            </Position>
            <AltitudeMeters>18.799999237060546875</AltitudeMeters>
            <DistanceMeters>NAN</DistanceMeters>
          </Trackpoint>
          <Trackpoint>
            <Time>2022-07-16T19:30:08.000Z</Time>
            <Position>
              <LatitudeDegrees>43.46278150565922260284423828125</LatitudeDegrees>
              <LongitudeDegrees>-5.0645188987255096435546875</LongitudeDegrees>
            </Position>
            <AltitudeMeters>18.6000003814697265625</AltitudeMeters>
            <DistanceMeters>NAN</DistanceMeters>
          </Trackpoint>
          <Trackpoint>
            <Time>2022-07-16T19:30:09.000Z</Time>
            <Position>
              <LatitudeDegrees>43.462813608348369598388671875</LatitudeDegrees>
              <LongitudeDegrees>-5.06452493369579315185546875</LongitudeDegrees>
            </Position>
            <AltitudeMeters>18.6000003814697265625</AltitudeMeters>
            <DistanceMeters>NAN</DistanceMeters>
          </Trackpoint>
          <Trackpoint>
            <Time>2022-07-16T19:30:10.000Z</Time>
            <Position>
              <LatitudeDegrees>43.4628459624946117401123046875</LatitudeDegrees>
              <LongitudeDegrees>-5.06451026536524295806884765625</LongitudeDegrees>
            </Position>
            <AltitudeMeters>18.6000003814697265625</AltitudeMeters>
            <DistanceMeters>NAN</DistanceMeters>
          </Trackpoint>
          <Trackpoint>
            <Time>2022-07-16T19:30:14.000Z</Time>
            <Position>
              <LatitudeDegrees>43.462970517575740814208984375</LatitudeDegrees>
              <LongitudeDegrees>-5.06441772915422916412353515625</LongitudeDegrees>
            </Position>
            <AltitudeMeters>18.3999996185302734375</AltitudeMeters>
            <DistanceMeters>NAN</DistanceMeters>
          </Trackpoint>
          <Trackpoint>
            <Time>2022-07-16T19:30:16.000Z</Time>
            <Position>
              <LatitudeDegrees>43.46302114427089691162109375</LatitudeDegrees>
              <LongitudeDegrees>-5.06436106748878955841064453125</LongitudeDegrees>
            </Position>
            <AltitudeMeters>18.3999996185302734375</AltitudeMeters>
            <DistanceMeters>NAN</DistanceMeters>
          </Trackpoint>
          <Trackpoint>
            <Time>2022-07-16T19:30:17.000Z</Time>
            <Position>
              <LatitudeDegrees>43.46304469741880893707275390625</LatitudeDegrees>
              <LongitudeDegrees>-5.06431882269680500030517578125</LongitudeDegrees>
            </Position>
            <AltitudeMeters>18.3999996185302734375</AltitudeMeters>
            <DistanceMeters>NAN</DistanceMeters>
          </Trackpoint>
          <Trackpoint>
            <Time>2022-07-16T19:30:20.000Z</Time>
            <Position>
              <LatitudeDegrees>43.46310035325586795806884765625</LatitudeDegrees>
              <LongitudeDegrees>-5.06419636309146881103515625</LongitudeDegrees>
            </Position>
            <AltitudeMeters>18.3999996185302734375</AltitudeMeters>
            <DistanceMeters>NAN</DistanceMeters>
          </Trackpoint>
          <Trackpoint>
            <Time>2022-07-16T19:30:22.000Z</Time>
            <Position>
              <LatitudeDegrees>43.46315902657806873321533203125</LatitudeDegrees>
              <LongitudeDegrees>-5.06413877941668033599853515625</LongitudeDegrees>
            </Position>
            <AltitudeMeters>18.200000762939453125</AltitudeMeters>
            <DistanceMeters>NAN</DistanceMeters>
          </Trackpoint>
          <Trackpoint>
            <Time>2022-07-16T19:30:24.000Z</Time>
            <Position>
              <LatitudeDegrees>43.4632399119436740875244140625</LatitudeDegrees>
              <LongitudeDegrees>-5.06406803615391254425048828125</LongitudeDegrees>
            </Position>
            <AltitudeMeters>18.200000762939453125</AltitudeMeters>
            <DistanceMeters>NAN</DistanceMeters>
          </Trackpoint>
          <Trackpoint>
            <Time>2022-07-16T19:30:26.000Z</Time>
            <Position>
              <LatitudeDegrees>43.46333001740276813507080078125</LatitudeDegrees>
              <LongitudeDegrees>-5.0639816187322139739990234375</LongitudeDegrees>
            </Position>
            <AltitudeMeters>17.3999996185302734375</AltitudeMeters>
            <DistanceMeters>NAN</DistanceMeters>
          </Trackpoint>
          <Trackpoint>
            <Time>2022-07-16T19:30:27.000Z</Time>
            <Position>
              <LatitudeDegrees>43.4633703343570232391357421875</LatitudeDegrees>
              <LongitudeDegrees>-5.06393828429281711578369140625</LongitudeDegrees>
            </Position>
            <AltitudeMeters>17</AltitudeMeters>
            <DistanceMeters>NAN</DistanceMeters>
          </Trackpoint>
          <Trackpoint>
            <Time>2022-07-16T19:30:29.000Z</Time>
            <Position>
              <LatitudeDegrees>43.4634484536945819854736328125</LatitudeDegrees>
              <LongitudeDegrees>-5.0638508610427379608154296875</LongitudeDegrees>
            </Position>
            <AltitudeMeters>16.799999237060546875</AltitudeMeters>
            <DistanceMeters>NAN</DistanceMeters>
          </Trackpoint>
          <Trackpoint>
            <Time>2022-07-16T19:30:31.000Z</Time>
            <Position>
              <LatitudeDegrees>43.4635208733379840850830078125</LatitudeDegrees>
              <LongitudeDegrees>-5.063802413642406463623046875</LongitudeDegrees>
            </Position>
            <AltitudeMeters>16.6000003814697265625</AltitudeMeters>
            <DistanceMeters>NAN</DistanceMeters>
          </Trackpoint>
          <Trackpoint>
            <Time>2022-07-16T19:30:41.000Z</Time>
            <Position>
              <LatitudeDegrees>43.46389344893395900726318359375</LatitudeDegrees>
              <LongitudeDegrees>-5.0635363720357418060302734375</LongitudeDegrees>
            </Position>
            <AltitudeMeters>16.6000003814697265625</AltitudeMeters>
            <DistanceMeters>NAN</DistanceMeters>
          </Trackpoint>
          <Trackpoint>
            <Time>2022-07-16T19:30:47.000Z</Time>
            <Position>
              <LatitudeDegrees>43.46409159712493419647216796875</LatitudeDegrees>
              <LongitudeDegrees>-5.0634072907269001007080078125</LongitudeDegrees>
            </Position>
            <AltitudeMeters>16.799999237060546875</AltitudeMeters>
            <DistanceMeters>NAN</DistanceMeters>
          </Trackpoint>
          <Trackpoint>
            <Time>2022-07-16T19:30:49.000Z</Time>
            <Position>
              <LatitudeDegrees>43.46416586078703403472900390625</LatitudeDegrees>
              <LongitudeDegrees>-5.0633586756885051727294921875</LongitudeDegrees>
            </Position>
            <AltitudeMeters>16.799999237060546875</AltitudeMeters>
            <DistanceMeters>NAN</DistanceMeters>
          </Trackpoint>
          <Trackpoint>
            <Time>2022-07-16T19:30:56.000Z</Time>
            <Position>
              <LatitudeDegrees>43.4643932618200778961181640625</LatitudeDegrees>
              <LongitudeDegrees>-5.06321492604911327362060546875</LongitudeDegrees>
            </Position>
            <AltitudeMeters>16.799999237060546875</AltitudeMeters>
            <DistanceMeters>NAN</DistanceMeters>
          </Trackpoint>
          <Trackpoint>
            <Time>2022-07-16T19:30:58.000Z</Time>
            <Position>
              <LatitudeDegrees>43.4644661843776702880859375</LatitudeDegrees>
              <LongitudeDegrees>-5.06316245533525943756103515625</LongitudeDegrees>
            </Position>
            <AltitudeMeters>16.799999237060546875</AltitudeMeters>
            <DistanceMeters>NAN</DistanceMeters>
          </Trackpoint>
          <Trackpoint>
            <Time>2022-07-16T19:31:02.000Z</Time>
            <Position>
              <LatitudeDegrees>43.46459937281906604766845703125</LatitudeDegrees>
              <LongitudeDegrees>-5.06306757219135761260986328125</LongitudeDegrees>
            </Position>
            <AltitudeMeters>17</AltitudeMeters>
            <DistanceMeters>NAN</DistanceMeters>
          </Trackpoint>
          <Trackpoint>
            <Time>2022-07-16T19:31:15.000Z</Time>
            <Position>
              <LatitudeDegrees>43.4650296159088611602783203125</LatitudeDegrees>
              <LongitudeDegrees>-5.0627716071903705596923828125</LongitudeDegrees>
            </Position>
            <AltitudeMeters>17.200000762939453125</AltitudeMeters>
            <DistanceMeters>NAN</DistanceMeters>
          </Trackpoint>
          <Trackpoint>
            <Time>2022-07-16T19:31:26.000Z</Time>
            <Position>
              <LatitudeDegrees>43.465388529002666473388671875</LatitudeDegrees>
              <LongitudeDegrees>-5.0625312142074108123779296875</LongitudeDegrees>
            </Position>
            <AltitudeMeters>17.200000762939453125</AltitudeMeters>
            <DistanceMeters>NAN</DistanceMeters>
          </Trackpoint>
          <Trackpoint>
            <Time>2022-07-16T19:31:34.000Z</Time>
            <Position>
              <LatitudeDegrees>43.4656321071088314056396484375</LatitudeDegrees>
              <LongitudeDegrees>-5.062409676611423492431640625</LongitudeDegrees>
            </Position>
            <AltitudeMeters>17.6000003814697265625</AltitudeMeters>
            <DistanceMeters>NAN</DistanceMeters>
          </Trackpoint>
          <Trackpoint>
            <Time>2022-07-16T19:31:41.000Z</Time>
            <Position>
              <LatitudeDegrees>43.46583402715623378753662109375</LatitudeDegrees>
              <LongitudeDegrees>-5.06233449093997478485107421875</LongitudeDegrees>
            </Position>
            <AltitudeMeters>18</AltitudeMeters>
            <DistanceMeters>NAN</DistanceMeters>
          </Trackpoint>
          <Trackpoint>
            <Time>2022-07-16T19:31:44.000Z</Time>
            <Position>
              <LatitudeDegrees>43.46591331996023654937744140625</LatitudeDegrees>
              <LongitudeDegrees>-5.06234454922378063201904296875</LongitudeDegrees>
            </Position>
            <AltitudeMeters>18</AltitudeMeters>
            <DistanceMeters>NAN</DistanceMeters>
          </Trackpoint>
          <Trackpoint>
            <Time>2022-07-16T19:31:46.000Z</Time>
            <Position>
              <LatitudeDegrees>43.4659774415194988250732421875</LatitudeDegrees>
              <LongitudeDegrees>-5.06235636770725250244140625</LongitudeDegrees>
            </Position>
            <AltitudeMeters>18.200000762939453125</AltitudeMeters>
            <DistanceMeters>NAN</DistanceMeters>
          </Trackpoint>
          <Trackpoint>
            <Time>2022-07-16T19:31:48.000Z</Time>
            <Position>
              <LatitudeDegrees>43.46603586338460445404052734375</LatitudeDegrees>
              <LongitudeDegrees>-5.06237380206584930419921875</LongitudeDegrees>
            </Position>
            <AltitudeMeters>18.200000762939453125</AltitudeMeters>
            <DistanceMeters>NAN</DistanceMeters>
          </Trackpoint>
          <Trackpoint>
            <Time>2022-07-16T19:31:49.000Z</Time>
            <Position>
              <LatitudeDegrees>43.46605933271348476409912109375</LatitudeDegrees>
              <LongitudeDegrees>-5.06238377653062343597412109375</LongitudeDegrees>
            </Position>
            <AltitudeMeters>18.200000762939453125</AltitudeMeters>
            <DistanceMeters>NAN</DistanceMeters>
          </Trackpoint>
          <Trackpoint>
            <Time>2022-07-16T19:31:56.000Z</Time>
            <Position>
              <LatitudeDegrees>43.466233424842357635498046875</LatitudeDegrees>
              <LongitudeDegrees>-5.06251151673495769500732421875</LongitudeDegrees>
            </Position>
            <AltitudeMeters>18.6000003814697265625</AltitudeMeters>
            <DistanceMeters>NAN</DistanceMeters>
          </Trackpoint>
          <Trackpoint>
            <Time>2022-07-16T19:32:03.000Z</Time>
            <Position>
              <LatitudeDegrees>43.4663757495582103729248046875</LatitudeDegrees>
              <LongitudeDegrees>-5.062685273587703704833984375</LongitudeDegrees>
            </Position>
            <AltitudeMeters>19</AltitudeMeters>
            <DistanceMeters>NAN</DistanceMeters>
          </Trackpoint>
          <Trackpoint>
            <Time>2022-07-16T19:32:04.000Z</Time>
            <Position>
              <LatitudeDegrees>43.4663898311555385589599609375</LatitudeDegrees>
              <LongitudeDegrees>-5.06270379759371280670166015625</LongitudeDegrees>
            </Position>
            <AltitudeMeters>19.200000762939453125</AltitudeMeters>
            <DistanceMeters>NAN</DistanceMeters>
          </Trackpoint>
          <Trackpoint>
            <Time>2022-07-16T19:32:05.000Z</Time>
            <Position>
              <LatitudeDegrees>43.4664076007902622222900390625</LatitudeDegrees>
              <LongitudeDegrees>-5.0627243332564830780029296875</LongitudeDegrees>
            </Position>
            <AltitudeMeters>19.200000762939453125</AltitudeMeters>
            <DistanceMeters>NAN</DistanceMeters>
          </Trackpoint>
          <Trackpoint>
            <Time>2022-07-16T19:32:10.000Z</Time>
            <Position>
              <LatitudeDegrees>43.466492593288421630859375</LatitudeDegrees>
              <LongitudeDegrees>-5.0628366507589817047119140625</LongitudeDegrees>
            </Position>
            <AltitudeMeters>19.6000003814697265625</AltitudeMeters>
            <DistanceMeters>NAN</DistanceMeters>
          </Trackpoint>
          <Trackpoint>
            <Time>2022-07-16T19:32:13.000Z</Time>
            <Position>
              <LatitudeDegrees>43.46652771346271038055419921875</LatitudeDegrees>
              <LongitudeDegrees>-5.06292038597166538238525390625</LongitudeDegrees>
            </Position>
            <AltitudeMeters>19.799999237060546875</AltitudeMeters>
            <DistanceMeters>NAN</DistanceMeters>
          </Trackpoint>
          <Trackpoint>
            <Time>2022-07-16T19:32:18.000Z</Time>
            <Position>
              <LatitudeDegrees>43.4665775857865810394287109375</LatitudeDegrees>
              <LongitudeDegrees>-5.06306941621005535125732421875</LongitudeDegrees>
            </Position>
            <AltitudeMeters>20.200000762939453125</AltitudeMeters>
            <DistanceMeters>NAN</DistanceMeters>
          </Trackpoint>
          <Trackpoint>
            <Time>2022-07-16T19:32:22.000Z</Time>
            <Position>
              <LatitudeDegrees>43.4666013903915882110595703125</LatitudeDegrees>
              <LongitudeDegrees>-5.06319246254861354827880859375</LongitudeDegrees>
            </Position>
            <AltitudeMeters>20.3999996185302734375</AltitudeMeters>
            <DistanceMeters>NAN</DistanceMeters>
          </Trackpoint>
          <Trackpoint>
            <Time>2022-07-16T19:32:28.000Z</Time>
            <Position>
              <LatitudeDegrees>43.46660189330577850341796875</LatitudeDegrees>
              <LongitudeDegrees>-5.06334853358566761016845703125</LongitudeDegrees>
            </Position>
            <AltitudeMeters>20.6000003814697265625</AltitudeMeters>
            <DistanceMeters>NAN</DistanceMeters>
          </Trackpoint>
          <Trackpoint>
            <Time>2022-07-16T19:32:31.000Z</Time>
            <Position>
              <LatitudeDegrees>43.4665916673839092254638671875</LatitudeDegrees>
              <LongitudeDegrees>-5.06339547224342823028564453125</LongitudeDegrees>
            </Position>
            <AltitudeMeters>20.799999237060546875</AltitudeMeters>
            <DistanceMeters>NAN</DistanceMeters>
          </Trackpoint>
          <Trackpoint>
            <Time>2022-07-16T19:32:33.000Z</Time>
            <Position>
              <LatitudeDegrees>43.4665802679955959320068359375</LatitudeDegrees>
              <LongitudeDegrees>-5.063430257141590118408203125</LongitudeDegrees>
            </Position>
            <AltitudeMeters>20.799999237060546875</AltitudeMeters>
            <DistanceMeters>NAN</DistanceMeters>
          </Trackpoint>
          <Trackpoint>
            <Time>2022-07-16T19:32:34.000Z</Time>
            <Position>
              <LatitudeDegrees>43.4665732271969318389892578125</LatitudeDegrees>
              <LongitudeDegrees>-5.0634518824517726898193359375</LongitudeDegrees>
            </Position>
            <AltitudeMeters>20.799999237060546875</AltitudeMeters>
            <DistanceMeters>NAN</DistanceMeters>
          </Trackpoint>
          <Trackpoint>
            <Time>2022-07-16T19:32:36.000Z</Time>
            <Position>
              <LatitudeDegrees>43.46656979061663150787353515625</LatitudeDegrees>
              <LongitudeDegrees>-5.0634897686541080474853515625</LongitudeDegrees>
            </Position>
            <AltitudeMeters>21</AltitudeMeters>
            <DistanceMeters>NAN</DistanceMeters>
          </Trackpoint>
          <Trackpoint>
            <Time>2022-07-16T19:32:39.000Z</Time>
            <Position>
              <LatitudeDegrees>43.46656459383666515350341796875</LatitudeDegrees>
              <LongitudeDegrees>-5.0635484419763088226318359375</LongitudeDegrees>
            </Position>
            <AltitudeMeters>21.200000762939453125</AltitudeMeters>
            <DistanceMeters>NAN</DistanceMeters>
          </Trackpoint>
          <Trackpoint>
            <Time>2022-07-16T19:32:40.000Z</Time>
            <Position>
              <LatitudeDegrees>43.46656107343733310699462890625</LatitudeDegrees>
              <LongitudeDegrees>-5.0635685585439205169677734375</LongitudeDegrees>
            </Position>
            <AltitudeMeters>21.200000762939453125</AltitudeMeters>
            <DistanceMeters>NAN</DistanceMeters>
          </Trackpoint>
          <Trackpoint>
            <Time>2022-07-16T19:32:41.000Z</Time>
            <Position>
              <LatitudeDegrees>43.46655319444835186004638671875</LatitudeDegrees>
              <LongitudeDegrees>-5.06358859129250049591064453125</LongitudeDegrees>
            </Position>
            <AltitudeMeters>21.200000762939453125</AltitudeMeters>
            <DistanceMeters>NAN</DistanceMeters>
          </Trackpoint>
          <Trackpoint>
            <Time>2022-07-16T19:32:44.000Z</Time>
            <Position>
              <LatitudeDegrees>43.466523103415966033935546875</LatitudeDegrees>
              <LongitudeDegrees>-5.0636543892323970794677734375</LongitudeDegrees>
            </Position>
            <AltitudeMeters>21.3999996185302734375</AltitudeMeters>
            <DistanceMeters>NAN</DistanceMeters>
          </Trackpoint>
          <Trackpoint>
            <Time>2022-07-16T19:32:48.000Z</Time>
            <Position>
              <LatitudeDegrees>43.46648429520428180694580078125</LatitudeDegrees>
              <LongitudeDegrees>-5.06375648081302642822265625</LongitudeDegrees>
            </Position>
            <AltitudeMeters>21.6000003814697265625</AltitudeMeters>
            <DistanceMeters>NAN</DistanceMeters>
          </Trackpoint>
          <Trackpoint>
            <Time>2022-07-16T19:32:49.000Z</Time>
            <Position>
              <LatitudeDegrees>43.46647306345403194427490234375</LatitudeDegrees>
              <LongitudeDegrees>-5.0637801177799701690673828125</LongitudeDegrees>
            </Position>
            <AltitudeMeters>21.6000003814697265625</AltitudeMeters>
            <DistanceMeters>NAN</DistanceMeters>
          </Trackpoint>
          <Trackpoint>
            <Time>2022-07-16T19:32:51.000Z</Time>
            <Position>
              <LatitudeDegrees>43.46644707955420017242431640625</LatitudeDegrees>
              <LongitudeDegrees>-5.0638226978480815887451171875</LongitudeDegrees>
            </Position>
            <AltitudeMeters>21.799999237060546875</AltitudeMeters>
            <DistanceMeters>NAN</DistanceMeters>
          </Trackpoint>
          <Trackpoint>
            <Time>2022-07-16T19:32:52.000Z</Time>
            <Position>
              <LatitudeDegrees>43.46643584780395030975341796875</LatitudeDegrees>
              <LongitudeDegrees>-5.063845328986644744873046875</LongitudeDegrees>
            </Position>
            <AltitudeMeters>21.799999237060546875</AltitudeMeters>
            <DistanceMeters>NAN</DistanceMeters>
          </Trackpoint>
          <Trackpoint>
            <Time>2022-07-16T19:32:57.000Z</Time>
            <Position>
              <LatitudeDegrees>43.4663854725658893585205078125</LatitudeDegrees>
              <LongitudeDegrees>-5.0639824569225311279296875</LongitudeDegrees>
            </Position>
            <AltitudeMeters>22</AltitudeMeters>
            <DistanceMeters>NAN</DistanceMeters>
          </Trackpoint>
          <Trackpoint>
            <Time>2022-07-16T19:33:04.000Z</Time>
            <Position>
              <LatitudeDegrees>43.46629519946873188018798828125</LatitudeDegrees>
              <LongitudeDegrees>-5.06418739445507526397705078125</LongitudeDegrees>
            </Position>
            <AltitudeMeters>22.200000762939453125</AltitudeMeters>
            <DistanceMeters>NAN</DistanceMeters>
          </Trackpoint>
          <Trackpoint>
            <Time>2022-07-16T19:33:06.000Z</Time>
            <Position>
              <LatitudeDegrees>43.46627424471080303192138671875</LatitudeDegrees>
              <LongitudeDegrees>-5.06424925290048122406005859375</LongitudeDegrees>
            </Position>
            <AltitudeMeters>22.200000762939453125</AltitudeMeters>
            <DistanceMeters>NAN</DistanceMeters>
          </Trackpoint>
          <Trackpoint>
            <Time>2022-07-16T19:33:07.000Z</Time>
            <Position>
              <LatitudeDegrees>43.46625966019928455352783203125</LatitudeDegrees>
              <LongitudeDegrees>-5.06428026594221591949462890625</LongitudeDegrees>
            </Position>
            <AltitudeMeters>22.200000762939453125</AltitudeMeters>
            <DistanceMeters>NAN</DistanceMeters>
          </Trackpoint>
          <Trackpoint>
            <Time>2022-07-16T19:33:09.000Z</Time>
            <Position>
              <LatitudeDegrees>43.46622797660529613494873046875</LatitudeDegrees>
              <LongitudeDegrees>-5.06432670168578624725341796875</LongitudeDegrees>
            </Position>
            <AltitudeMeters>22.3999996185302734375</AltitudeMeters>
            <DistanceMeters>NAN</DistanceMeters>
          </Trackpoint>
          <Trackpoint>
            <Time>2022-07-16T19:33:12.000Z</Time>
            <Position>
              <LatitudeDegrees>43.46617818810045719146728515625</LatitudeDegrees>
              <LongitudeDegrees>-5.06442024372518062591552734375</LongitudeDegrees>
            </Position>
            <AltitudeMeters>22.6000003814697265625</AltitudeMeters>
            <DistanceMeters>NAN</DistanceMeters>
          </Trackpoint>
          <Trackpoint>
            <Time>2022-07-16T19:33:18.000Z</Time>
            <Position>
              <LatitudeDegrees>43.466130830347537994384765625</LatitudeDegrees>
              <LongitudeDegrees>-5.06460648961365222930908203125</LongitudeDegrees>
            </Position>
            <AltitudeMeters>22.6000003814697265625</AltitudeMeters>
            <DistanceMeters>NAN</DistanceMeters>
          </Trackpoint>
          <Trackpoint>
            <Time>2022-07-16T19:33:27.000Z</Time>
            <Position>
              <LatitudeDegrees>43.466025888919830322265625</LatitudeDegrees>
              <LongitudeDegrees>-5.0649006105959415435791015625</LongitudeDegrees>
            </Position>
            <AltitudeMeters>22.6000003814697265625</AltitudeMeters>
            <DistanceMeters>NAN</DistanceMeters>
          </Trackpoint>
          <Trackpoint>
            <Time>2022-07-16T19:33:34.000Z</Time>
            <Position>
              <LatitudeDegrees>43.465933687984943389892578125</LatitudeDegrees>
              <LongitudeDegrees>-5.06513706408441066741943359375</LongitudeDegrees>
            </Position>
            <AltitudeMeters>23</AltitudeMeters>
            <DistanceMeters>NAN</DistanceMeters>
          </Trackpoint>
          <Trackpoint>
            <Time>2022-07-16T19:33:35.000Z</Time>
            <Position>
              <LatitudeDegrees>43.4659226238727569580078125</LatitudeDegrees>
              <LongitudeDegrees>-5.06516866385936737060546875</LongitudeDegrees>
            </Position>
            <AltitudeMeters>23</AltitudeMeters>
            <DistanceMeters>NAN</DistanceMeters>
          </Trackpoint>
          <Trackpoint>
            <Time>2022-07-16T19:33:36.000Z</Time>
            <Position>
              <LatitudeDegrees>43.46591348759829998016357421875</LatitudeDegrees>
              <LongitudeDegrees>-5.06520311348140239715576171875</LongitudeDegrees>
            </Position>
            <AltitudeMeters>23</AltitudeMeters>
            <DistanceMeters>NAN</DistanceMeters>
          </Trackpoint>
          <Trackpoint>
            <Time>2022-07-16T19:33:39.000Z</Time>
            <Position>
              <LatitudeDegrees>43.46588465385138988494873046875</LatitudeDegrees>
              <LongitudeDegrees>-5.0652979128062725067138671875</LongitudeDegrees>
            </Position>
            <AltitudeMeters>22.799999237060546875</AltitudeMeters>
            <DistanceMeters>NAN</DistanceMeters>
          </Trackpoint>
          <Trackpoint>
            <Time>2022-07-16T19:33:42.000Z</Time>
            <Position>
              <LatitudeDegrees>43.46584727056324481964111328125</LatitudeDegrees>
              <LongitudeDegrees>-5.06539799273014068603515625</LongitudeDegrees>
            </Position>
            <AltitudeMeters>22.799999237060546875</AltitudeMeters>
            <DistanceMeters>NAN</DistanceMeters>
          </Trackpoint>
          <Trackpoint>
            <Time>2022-07-16T19:33:44.000Z</Time>
            <Position>
              <LatitudeDegrees>43.4658205322921276092529296875</LatitudeDegrees>
              <LongitudeDegrees>-5.06548139266669750213623046875</LongitudeDegrees>
            </Position>
            <AltitudeMeters>23</AltitudeMeters>
            <DistanceMeters>NAN</DistanceMeters>
          </Trackpoint>
          <Trackpoint>
            <Time>2022-07-16T19:33:53.000Z</Time>
            <Position>
              <LatitudeDegrees>43.465721793472766876220703125</LatitudeDegrees>
              <LongitudeDegrees>-5.0658668763935565948486328125</LongitudeDegrees>
            </Position>
            <AltitudeMeters>23.200000762939453125</AltitudeMeters>
            <DistanceMeters>NAN</DistanceMeters>
          </Trackpoint>
          <Trackpoint>
            <Time>2022-07-16T19:33:55.000Z</Time>
            <Position>
              <LatitudeDegrees>43.46569798886775970458984375</LatitudeDegrees>
              <LongitudeDegrees>-5.06595949642360210418701171875</LongitudeDegrees>
            </Position>
            <AltitudeMeters>23.200000762939453125</AltitudeMeters>
            <DistanceMeters>NAN</DistanceMeters>
          </Trackpoint>
          <Trackpoint>
            <Time>2022-07-16T19:33:57.000Z</Time>
            <Position>
              <LatitudeDegrees>43.46566538326442241668701171875</LatitudeDegrees>
              <LongitudeDegrees>-5.0660442374646663665771484375</LongitudeDegrees>
            </Position>
            <AltitudeMeters>23.200000762939453125</AltitudeMeters>
            <DistanceMeters>NAN</DistanceMeters>
          </Trackpoint>
          <Trackpoint>
            <Time>2022-07-16T19:34:01.000Z</Time>
            <Position>
              <LatitudeDegrees>43.4656093083322048187255859375</LatitudeDegrees>
              <LongitudeDegrees>-5.06620408035814762115478515625</LongitudeDegrees>
            </Position>
            <AltitudeMeters>23.200000762939453125</AltitudeMeters>
            <DistanceMeters>NAN</DistanceMeters>
          </Trackpoint>
          <Trackpoint>
            <Time>2022-07-16T19:34:07.000Z</Time>
            <Position>
              <LatitudeDegrees>43.46553973853588104248046875</LatitudeDegrees>
              <LongitudeDegrees>-5.0664707086980342864990234375</LongitudeDegrees>
            </Position>
            <AltitudeMeters>23.3999996185302734375</AltitudeMeters>
            <DistanceMeters>NAN</DistanceMeters>
          </Trackpoint>
          <Trackpoint>
            <Time>2022-07-16T19:34:16.000Z</Time>
            <Position>
              <LatitudeDegrees>43.46541459672152996063232421875</LatitudeDegrees>
              <LongitudeDegrees>-5.06688301451504230499267578125</LongitudeDegrees>
            </Position>
            <AltitudeMeters>23.6000003814697265625</AltitudeMeters>
            <DistanceMeters>NAN</DistanceMeters>
          </Trackpoint>
          <Trackpoint>
            <Time>2022-07-16T19:34:24.000Z</Time>
            <Position>
              <LatitudeDegrees>43.46535441465675830841064453125</LatitudeDegrees>
              <LongitudeDegrees>-5.06728434003889560699462890625</LongitudeDegrees>
            </Position>
            <AltitudeMeters>23.6000003814697265625</AltitudeMeters>
            <DistanceMeters>NAN</DistanceMeters>
          </Trackpoint>
          <Trackpoint>
            <Time>2022-07-16T19:34:28.000Z</Time>
            <Position>
              <LatitudeDegrees>43.465340249240398406982421875</LatitudeDegrees>
              <LongitudeDegrees>-5.0674795545637607574462890625</LongitudeDegrees>
            </Position>
            <AltitudeMeters>23.3999996185302734375</AltitudeMeters>
            <DistanceMeters>NAN</DistanceMeters>
          </Trackpoint>
          <Trackpoint>
            <Time>2022-07-16T19:34:32.000Z</Time>
            <Position>
              <LatitudeDegrees>43.465317785739898681640625</LatitudeDegrees>
              <LongitudeDegrees>-5.06765062920749187469482421875</LongitudeDegrees>
            </Position>
            <AltitudeMeters>23.3999996185302734375</AltitudeMeters>
            <DistanceMeters>NAN</DistanceMeters>
          </Trackpoint>
          <Trackpoint>
            <Time>2022-07-16T19:34:36.000Z</Time>
            <Position>
              <LatitudeDegrees>43.46530445851385593414306640625</LatitudeDegrees>
              <LongitudeDegrees>-5.067788176238536834716796875</LongitudeDegrees>
            </Position>
            <AltitudeMeters>23.3999996185302734375</AltitudeMeters>
            <DistanceMeters>NAN</DistanceMeters>
          </Trackpoint>
          <Trackpoint>
            <Time>2022-07-16T19:34:37.000Z</Time>
            <Position>
              <LatitudeDegrees>43.4653045423328876495361328125</LatitudeDegrees>
              <LongitudeDegrees>-5.06781843490898609161376953125</LongitudeDegrees>
            </Position>
            <AltitudeMeters>23.3999996185302734375</AltitudeMeters>
            <DistanceMeters>NAN</DistanceMeters>
          </Trackpoint>
          <Trackpoint>
            <Time>2022-07-16T19:34:44.000Z</Time>
            <Position>
              <LatitudeDegrees>43.46530370414257049560546875</LatitudeDegrees>
              <LongitudeDegrees>-5.068052373826503753662109375</LongitudeDegrees>
            </Position>
            <AltitudeMeters>23.3999996185302734375</AltitudeMeters>
            <DistanceMeters>NAN</DistanceMeters>
          </Trackpoint>
          <Trackpoint>
            <Time>2022-07-16T19:34:48.000Z</Time>
            <Position>
              <LatitudeDegrees>43.46528300084173679351806640625</LatitudeDegrees>
              <LongitudeDegrees>-5.0682111270725727081298828125</LongitudeDegrees>
            </Position>
            <AltitudeMeters>23.3999996185302734375</AltitudeMeters>
            <DistanceMeters>NAN</DistanceMeters>
          </Trackpoint>
          <Trackpoint>
            <Time>2022-07-16T19:34:52.000Z</Time>
            <Position>
              <LatitudeDegrees>43.46527679823338985443115234375</LatitudeDegrees>
              <LongitudeDegrees>-5.068409107625484466552734375</LongitudeDegrees>
            </Position>
            <AltitudeMeters>23.6000003814697265625</AltitudeMeters>
            <DistanceMeters>NAN</DistanceMeters>
          </Trackpoint>
          <Trackpoint>
            <Time>2022-07-16T19:34:53.000Z</Time>
            <Position>
              <LatitudeDegrees>43.46527411602437496185302734375</LatitudeDegrees>
              <LongitudeDegrees>-5.06846283562481403350830078125</LongitudeDegrees>
            </Position>
            <AltitudeMeters>23.6000003814697265625</AltitudeMeters>
            <DistanceMeters>NAN</DistanceMeters>
          </Trackpoint>
          <Trackpoint>
            <Time>2022-07-16T19:34:54.000Z</Time>
            <Position>
              <LatitudeDegrees>43.46527277491986751556396484375</LatitudeDegrees>
              <LongitudeDegrees>-5.06851471960544586181640625</LongitudeDegrees>
            </Position>
            <AltitudeMeters>23.3999996185302734375</AltitudeMeters>
            <DistanceMeters>NAN</DistanceMeters>
          </Trackpoint>
          <Trackpoint>
            <Time>2022-07-16T19:34:58.000Z</Time>
            <Position>
              <LatitudeDegrees>43.465277887880802154541015625</LatitudeDegrees>
              <LongitudeDegrees>-5.0687210820615291595458984375</LongitudeDegrees>
            </Position>
            <AltitudeMeters>23.6000003814697265625</AltitudeMeters>
            <DistanceMeters>NAN</DistanceMeters>
          </Trackpoint>
          <Trackpoint>
            <Time>2022-07-16T19:35:00.000Z</Time>
            <Position>
              <LatitudeDegrees>43.46527285873889923095703125</LatitudeDegrees>
              <LongitudeDegrees>-5.06882795132696628570556640625</LongitudeDegrees>
            </Position>
            <AltitudeMeters>23.6000003814697265625</AltitudeMeters>
            <DistanceMeters>NAN</DistanceMeters>
          </Trackpoint>
          <Trackpoint>
            <Time>2022-07-16T19:35:02.000Z</Time>
            <Position>
              <LatitudeDegrees>43.46527227200567722320556640625</LatitudeDegrees>
              <LongitudeDegrees>-5.06893121637403964996337890625</LongitudeDegrees>
            </Position>
            <AltitudeMeters>23.6000003814697265625</AltitudeMeters>
            <DistanceMeters>NAN</DistanceMeters>
          </Trackpoint>
          <Trackpoint>
            <Time>2022-07-16T19:35:04.000Z</Time>
            <Position>
              <LatitudeDegrees>43.46527151763439178466796875</LatitudeDegrees>
              <LongitudeDegrees>-5.069045126438140869140625</LongitudeDegrees>
            </Position>
            <AltitudeMeters>23.6000003814697265625</AltitudeMeters>
            <DistanceMeters>NAN</DistanceMeters>
          </Trackpoint>
          <Trackpoint>
            <Time>2022-07-16T19:35:10.000Z</Time>
            <Position>
              <LatitudeDegrees>43.46524796448647975921630859375</LatitudeDegrees>
              <LongitudeDegrees>-5.06935047917068004608154296875</LongitudeDegrees>
            </Position>
            <AltitudeMeters>23.6000003814697265625</AltitudeMeters>
            <DistanceMeters>NAN</DistanceMeters>
          </Trackpoint>
          <Trackpoint>
            <Time>2022-07-16T19:35:14.000Z</Time>
            <Position>
              <LatitudeDegrees>43.46524528227746486663818359375</LatitudeDegrees>
              <LongitudeDegrees>-5.0695354677736759185791015625</LongitudeDegrees>
            </Position>
            <AltitudeMeters>23.6000003814697265625</AltitudeMeters>
            <DistanceMeters>NAN</DistanceMeters>
          </Trackpoint>
          <Trackpoint>
            <Time>2022-07-16T19:35:22.000Z</Time>
            <Position>
              <LatitudeDegrees>43.46528115682303905487060546875</LatitudeDegrees>
              <LongitudeDegrees>-5.06995514966547489166259765625</LongitudeDegrees>
            </Position>
            <AltitudeMeters>23.799999237060546875</AltitudeMeters>
            <DistanceMeters>NAN</DistanceMeters>
          </Trackpoint>
          <Trackpoint>
            <Time>2022-07-16T19:35:29.000Z</Time>
            <Position>
              <LatitudeDegrees>43.46529657952487468719482421875</LatitudeDegrees>
              <LongitudeDegrees>-5.07032428868114948272705078125</LongitudeDegrees>
            </Position>
            <AltitudeMeters>23.6000003814697265625</AltitudeMeters>
            <DistanceMeters>NAN</DistanceMeters>
          </Trackpoint>
          <Trackpoint>
            <Time>2022-07-16T19:35:37.000Z</Time>
            <Position>
              <LatitudeDegrees>43.46534385345876216888427734375</LatitudeDegrees>
              <LongitudeDegrees>-5.07071974687278270721435546875</LongitudeDegrees>
            </Position>
            <AltitudeMeters>23.3999996185302734375</AltitudeMeters>
            <DistanceMeters>NAN</DistanceMeters>
          </Trackpoint>
          <Trackpoint>
            <Time>2022-07-16T19:35:45.000Z</Time>
            <Position>
              <LatitudeDegrees>43.4653762914240360260009765625</LatitudeDegrees>
              <LongitudeDegrees>-5.07111989893019199371337890625</LongitudeDegrees>
            </Position>
            <AltitudeMeters>23.3999996185302734375</AltitudeMeters>
            <DistanceMeters>NAN</DistanceMeters>
          </Trackpoint>
          <Trackpoint>
            <Time>2022-07-16T19:35:50.000Z</Time>
            <Position>
              <LatitudeDegrees>43.4654148481786251068115234375</LatitudeDegrees>
              <LongitudeDegrees>-5.07139415480196475982666015625</LongitudeDegrees>
            </Position>
            <AltitudeMeters>23.200000762939453125</AltitudeMeters>
            <DistanceMeters>NAN</DistanceMeters>
          </Trackpoint>
          <Trackpoint>
            <Time>2022-07-16T19:35:53.000Z</Time>
            <Position>
              <LatitudeDegrees>43.4654316119849681854248046875</LatitudeDegrees>
              <LongitudeDegrees>-5.07154083810746669769287109375</LongitudeDegrees>
            </Position>
            <AltitudeMeters>23.200000762939453125</AltitudeMeters>
            <DistanceMeters>NAN</DistanceMeters>
          </Trackpoint>
          <Trackpoint>
            <Time>2022-07-16T19:36:06.000Z</Time>
            <Position>
              <LatitudeDegrees>43.4655741043388843536376953125</LatitudeDegrees>
              <LongitudeDegrees>-5.07222228683531284332275390625</LongitudeDegrees>
            </Position>
            <AltitudeMeters>23.3999996185302734375</AltitudeMeters>
            <DistanceMeters>NAN</DistanceMeters>
          </Trackpoint>
          <Trackpoint>
            <Time>2022-07-16T19:36:15.000Z</Time>
            <Position>
              <LatitudeDegrees>43.46567996777594089508056640625</LatitudeDegrees>
              <LongitudeDegrees>-5.0727048330008983612060546875</LongitudeDegrees>
            </Position>
            <AltitudeMeters>23.3999996185302734375</AltitudeMeters>
            <DistanceMeters>NAN</DistanceMeters>
          </Trackpoint>
          <Trackpoint>
            <Time>2022-07-16T19:36:23.000Z</Time>
            <Position>
              <LatitudeDegrees>43.46581064164638519287109375</LatitudeDegrees>
              <LongitudeDegrees>-5.07315401919186115264892578125</LongitudeDegrees>
            </Position>
            <AltitudeMeters>23</AltitudeMeters>
            <DistanceMeters>NAN</DistanceMeters>
          </Trackpoint>
          <Trackpoint>
            <Time>2022-07-16T19:36:24.000Z</Time>
            <Position>
              <LatitudeDegrees>43.46582916565239429473876953125</LatitudeDegrees>
              <LongitudeDegrees>-5.0732211582362651824951171875</LongitudeDegrees>
            </Position>
            <AltitudeMeters>23</AltitudeMeters>
            <DistanceMeters>NAN</DistanceMeters>
          </Trackpoint>
          <Trackpoint>
            <Time>2022-07-16T19:36:26.000Z</Time>
            <Position>
              <LatitudeDegrees>43.465860597789287567138671875</LatitudeDegrees>
              <LongitudeDegrees>-5.073318891227245330810546875</LongitudeDegrees>
            </Position>
            <AltitudeMeters>23</AltitudeMeters>
            <DistanceMeters>NAN</DistanceMeters>
          </Trackpoint>
          <Trackpoint>
            <Time>2022-07-16T19:36:32.000Z</Time>
            <Position>
              <LatitudeDegrees>43.4659494459629058837890625</LatitudeDegrees>
              <LongitudeDegrees>-5.073615275323390960693359375</LongitudeDegrees>
            </Position>
            <AltitudeMeters>22.6000003814697265625</AltitudeMeters>
            <DistanceMeters>NAN</DistanceMeters>
          </Trackpoint>
          <Trackpoint>
            <Time>2022-07-16T19:36:41.000Z</Time>
            <Position>
              <LatitudeDegrees>43.46611775457859039306640625</LatitudeDegrees>
              <LongitudeDegrees>-5.074050463736057281494140625</LongitudeDegrees>
            </Position>
            <AltitudeMeters>22.799999237060546875</AltitudeMeters>
            <DistanceMeters>NAN</DistanceMeters>
          </Trackpoint>
          <Trackpoint>
            <Time>2022-07-16T19:36:49.000Z</Time>
            <Position>
              <LatitudeDegrees>43.46621858887374401092529296875</LatitudeDegrees>
              <LongitudeDegrees>-5.074438042938709259033203125</LongitudeDegrees>
            </Position>
            <AltitudeMeters>22.6000003814697265625</AltitudeMeters>
            <DistanceMeters>NAN</DistanceMeters>
          </Trackpoint>
          <Trackpoint>
            <Time>2022-07-16T19:36:59.000Z</Time>
            <Position>
              <LatitudeDegrees>43.46641992218792438507080078125</LatitudeDegrees>
              <LongitudeDegrees>-5.07488857023417949676513671875</LongitudeDegrees>
            </Position>
            <AltitudeMeters>22.6000003814697265625</AltitudeMeters>
            <DistanceMeters>NAN</DistanceMeters>
          </Trackpoint>
          <Trackpoint>
            <Time>2022-07-16T19:37:11.000Z</Time>
            <Position>
              <LatitudeDegrees>43.4667170606553554534912109375</LatitudeDegrees>
              <LongitudeDegrees>-5.075409673154354095458984375</LongitudeDegrees>
            </Position>
            <AltitudeMeters>22.3999996185302734375</AltitudeMeters>
            <DistanceMeters>NAN</DistanceMeters>
          </Trackpoint>
          <Trackpoint>
            <Time>2022-07-16T19:37:18.000Z</Time>
            <Position>
              <LatitudeDegrees>43.46690104342997074127197265625</LatitudeDegrees>
              <LongitudeDegrees>-5.07567663677036762237548828125</LongitudeDegrees>
            </Position>
            <AltitudeMeters>22.3999996185302734375</AltitudeMeters>
            <DistanceMeters>NAN</DistanceMeters>
          </Trackpoint>
          <Trackpoint>
            <Time>2022-07-16T19:37:19.000Z</Time>
            <Position>
              <LatitudeDegrees>43.466928116977214813232421875</LatitudeDegrees>
              <LongitudeDegrees>-5.0757125951349735260009765625</LongitudeDegrees>
            </Position>
            <AltitudeMeters>22.3999996185302734375</AltitudeMeters>
            <DistanceMeters>NAN</DistanceMeters>
          </Trackpoint>
          <Trackpoint>
            <Time>2022-07-16T19:37:30.000Z</Time>
            <Position>
              <LatitudeDegrees>43.46724671311676502227783203125</LatitudeDegrees>
              <LongitudeDegrees>-5.07607578299939632415771484375</LongitudeDegrees>
            </Position>
            <AltitudeMeters>22.3999996185302734375</AltitudeMeters>
            <DistanceMeters>NAN</DistanceMeters>
          </Trackpoint>
          <Trackpoint>
            <Time>2022-07-16T19:37:36.000Z</Time>
            <Position>
              <LatitudeDegrees>43.467415608465671539306640625</LatitudeDegrees>
              <LongitudeDegrees>-5.07624560035765171051025390625</LongitudeDegrees>
            </Position>
            <AltitudeMeters>22.6000003814697265625</AltitudeMeters>
            <DistanceMeters>NAN</DistanceMeters>
          </Trackpoint>
          <Trackpoint>
            <Time>2022-07-16T19:37:39.000Z</Time>
            <Position>
              <LatitudeDegrees>43.4674962423741817474365234375</LatitudeDegrees>
              <LongitudeDegrees>-5.07632086984813213348388671875</LongitudeDegrees>
            </Position>
            <AltitudeMeters>22.6000003814697265625</AltitudeMeters>
            <DistanceMeters>NAN</DistanceMeters>
          </Trackpoint>
          <Trackpoint>
            <Time>2022-07-16T19:37:44.000Z</Time>
            <Position>
              <LatitudeDegrees>43.46758215688169002532958984375</LatitudeDegrees>
              <LongitudeDegrees>-5.0764760188758373260498046875</LongitudeDegrees>
            </Position>
            <AltitudeMeters>22.3999996185302734375</AltitudeMeters>
            <DistanceMeters>NAN</DistanceMeters>
          </Trackpoint>
          <Trackpoint>
            <Time>2022-07-16T19:37:45.000Z</Time>
            <Position>
              <LatitudeDegrees>43.46758081577718257904052734375</LatitudeDegrees>
              <LongitudeDegrees>-5.076519437134265899658203125</LongitudeDegrees>
            </Position>
            <AltitudeMeters>22.200000762939453125</AltitudeMeters>
            <DistanceMeters>NAN</DistanceMeters>
          </Trackpoint>
          <Trackpoint>
            <Time>2022-07-16T19:37:47.000Z</Time>
            <Position>
              <LatitudeDegrees>43.46754360012710094451904296875</LatitudeDegrees>
              <LongitudeDegrees>-5.07660987786948680877685546875</LongitudeDegrees>
            </Position>
            <AltitudeMeters>22</AltitudeMeters>
            <DistanceMeters>NAN</DistanceMeters>
          </Trackpoint>
          <Trackpoint>
            <Time>2022-07-16T19:37:54.000Z</Time>
            <Position>
              <LatitudeDegrees>43.46732449717819690704345703125</LatitudeDegrees>
              <LongitudeDegrees>-5.076858736574649810791015625</LongitudeDegrees>
            </Position>
            <AltitudeMeters>21.799999237060546875</AltitudeMeters>
            <DistanceMeters>NAN</DistanceMeters>
          </Trackpoint>
          <Trackpoint>
            <Time>2022-07-16T19:37:55.000Z</Time>
            <Position>
              <LatitudeDegrees>43.4672890417277812957763671875</LatitudeDegrees>
              <LongitudeDegrees>-5.0768927671015262603759765625</LongitudeDegrees>
            </Position>
            <AltitudeMeters>21.799999237060546875</AltitudeMeters>
            <DistanceMeters>NAN</DistanceMeters>
          </Trackpoint>
          <Trackpoint>
            <Time>2022-07-16T19:38:03.000Z</Time>
            <Position>
              <LatitudeDegrees>43.46704437397420406341552734375</LatitudeDegrees>
              <LongitudeDegrees>-5.077189989387989044189453125</LongitudeDegrees>
            </Position>
            <AltitudeMeters>21.6000003814697265625</AltitudeMeters>
            <DistanceMeters>NAN</DistanceMeters>
          </Trackpoint>
          <Trackpoint>
            <Time>2022-07-16T19:38:07.000Z</Time>
            <Position>
              <LatitudeDegrees>43.46691730432212352752685546875</LatitudeDegrees>
              <LongitudeDegrees>-5.0773735530674457550048828125</LongitudeDegrees>
            </Position>
            <AltitudeMeters>21.3999996185302734375</AltitudeMeters>
            <DistanceMeters>NAN</DistanceMeters>
          </Trackpoint>
          <Trackpoint>
            <Time>2022-07-16T19:38:09.000Z</Time>
            <Position>
              <LatitudeDegrees>43.46687573008239269256591796875</LatitudeDegrees>
              <LongitudeDegrees>-5.07748561911284923553466796875</LongitudeDegrees>
            </Position>
            <AltitudeMeters>21.3999996185302734375</AltitudeMeters>
            <DistanceMeters>NAN</DistanceMeters>
          </Trackpoint>
          <Trackpoint>
            <Time>2022-07-16T19:38:11.000Z</Time>
            <Position>
              <LatitudeDegrees>43.46684555523097515106201171875</LatitudeDegrees>
              <LongitudeDegrees>-5.0776027143001556396484375</LongitudeDegrees>
            </Position>
            <AltitudeMeters>21.3999996185302734375</AltitudeMeters>
            <DistanceMeters>NAN</DistanceMeters>
          </Trackpoint>
          <Trackpoint>
            <Time>2022-07-16T19:38:13.000Z</Time>
            <Position>
              <LatitudeDegrees>43.46685058437287807464599609375</LatitudeDegrees>
              <LongitudeDegrees>-5.07772182114422321319580078125</LongitudeDegrees>
            </Position>
            <AltitudeMeters>21.200000762939453125</AltitudeMeters>
            <DistanceMeters>NAN</DistanceMeters>
          </Trackpoint>
          <Trackpoint>
            <Time>2022-07-16T19:38:14.000Z</Time>
            <Position>
              <LatitudeDegrees>43.46686952747404575347900390625</LatitudeDegrees>
              <LongitudeDegrees>-5.077776052057743072509765625</LongitudeDegrees>
            </Position>
            <AltitudeMeters>21.200000762939453125</AltitudeMeters>
            <DistanceMeters>NAN</DistanceMeters>
          </Trackpoint>
          <Trackpoint>
            <Time>2022-07-16T19:38:19.000Z</Time>
            <Position>
              <LatitudeDegrees>43.46696273423731327056884765625</LatitudeDegrees>
              <LongitudeDegrees>-5.0780065543949604034423828125</LongitudeDegrees>
            </Position>
            <AltitudeMeters>21</AltitudeMeters>
            <DistanceMeters>NAN</DistanceMeters>
          </Trackpoint>
          <Trackpoint>
            <Time>2022-07-16T19:38:26.000Z</Time>
            <Position>
              <LatitudeDegrees>43.46711226738989353179931640625</LatitudeDegrees>
              <LongitudeDegrees>-5.0783545710146427154541015625</LongitudeDegrees>
            </Position>
            <AltitudeMeters>21</AltitudeMeters>
            <DistanceMeters>NAN</DistanceMeters>
          </Trackpoint>
          <Trackpoint>
            <Time>2022-07-16T19:38:32.000Z</Time>
            <Position>
              <LatitudeDegrees>43.4672109223902225494384765625</LatitudeDegrees>
              <LongitudeDegrees>-5.07868858985602855682373046875</LongitudeDegrees>
            </Position>
            <AltitudeMeters>21.200000762939453125</AltitudeMeters>
            <DistanceMeters>NAN</DistanceMeters>
          </Trackpoint>
          <Trackpoint>
            <Time>2022-07-16T19:38:34.000Z</Time>
            <Position>
              <LatitudeDegrees>43.46723782829940319061279296875</LatitudeDegrees>
              <LongitudeDegrees>-5.0788001529872417449951171875</LongitudeDegrees>
            </Position>
            <AltitudeMeters>21.200000762939453125</AltitudeMeters>
            <DistanceMeters>NAN</DistanceMeters>
          </Trackpoint>
          <Trackpoint>
            <Time>2022-07-16T19:38:38.000Z</Time>
            <Position>
              <LatitudeDegrees>43.46728476695716381072998046875</LatitudeDegrees>
              <LongitudeDegrees>-5.07903224788606166839599609375</LongitudeDegrees>
            </Position>
            <AltitudeMeters>21.200000762939453125</AltitudeMeters>
            <DistanceMeters>NAN</DistanceMeters>
          </Trackpoint>
          <Trackpoint>
            <Time>2022-07-16T19:38:41.000Z</Time>
            <Position>
              <LatitudeDegrees>43.46730337478220462799072265625</LatitudeDegrees>
              <LongitudeDegrees>-5.07920323871076107025146484375</LongitudeDegrees>
            </Position>
            <AltitudeMeters>21</AltitudeMeters>
            <DistanceMeters>NAN</DistanceMeters>
          </Trackpoint>
          <Trackpoint>
            <Time>2022-07-16T19:38:46.000Z</Time>
            <Position>
              <LatitudeDegrees>43.467337153851985931396484375</LatitudeDegrees>
              <LongitudeDegrees>-5.079473555088043212890625</LongitudeDegrees>
            </Position>
            <AltitudeMeters>21</AltitudeMeters>
            <DistanceMeters>NAN</DistanceMeters>
          </Trackpoint>
          <Trackpoint>
            <Time>2022-07-16T19:38:49.000Z</Time>
            <Position>
              <LatitudeDegrees>43.4673710167407989501953125</LatitudeDegrees>
              <LongitudeDegrees>-5.0796554423868656158447265625</LongitudeDegrees>
            </Position>
            <AltitudeMeters>21</AltitudeMeters>
            <DistanceMeters>NAN</DistanceMeters>
          </Trackpoint>
          <Trackpoint>
            <Time>2022-07-16T19:38:53.000Z</Time>
            <Position>
              <LatitudeDegrees>43.467401526868343353271484375</LatitudeDegrees>
              <LongitudeDegrees>-5.0798837654292583465576171875</LongitudeDegrees>
            </Position>
            <AltitudeMeters>21</AltitudeMeters>
            <DistanceMeters>NAN</DistanceMeters>
          </Trackpoint>
          <Trackpoint>
            <Time>2022-07-16T19:38:58.000Z</Time>
            <Position>
              <LatitudeDegrees>43.46743337810039520263671875</LatitudeDegrees>
              <LongitudeDegrees>-5.08014737628400325775146484375</LongitudeDegrees>
            </Position>
            <AltitudeMeters>21</AltitudeMeters>
            <DistanceMeters>NAN</DistanceMeters>
          </Trackpoint>
          <Trackpoint>
            <Time>2022-07-16T19:39:01.000Z</Time>
            <Position>
              <LatitudeDegrees>43.46745056100189685821533203125</LatitudeDegrees>
              <LongitudeDegrees>-5.08028802461922168731689453125</LongitudeDegrees>
            </Position>
            <AltitudeMeters>20.799999237060546875</AltitudeMeters>
            <DistanceMeters>NAN</DistanceMeters>
          </Trackpoint>
          <Trackpoint>
            <Time>2022-07-16T19:39:05.000Z</Time>
            <Position>
              <LatitudeDegrees>43.46748526208102703094482421875</LatitudeDegrees>
              <LongitudeDegrees>-5.08039514534175395965576171875</LongitudeDegrees>
            </Position>
            <AltitudeMeters>20.799999237060546875</AltitudeMeters>
            <DistanceMeters>NAN</DistanceMeters>
          </Trackpoint>
          <Trackpoint>
            <Time>2022-07-16T19:39:06.000Z</Time>
            <Position>
              <LatitudeDegrees>43.46748526208102703094482421875</LatitudeDegrees>
              <LongitudeDegrees>-5.08039514534175395965576171875</LongitudeDegrees>
            </Position>
            <AltitudeMeters>20.799999237060546875</AltitudeMeters>
            <DistanceMeters>NAN</DistanceMeters>
          </Trackpoint>
          <Trackpoint>
            <Time>2022-07-16T19:40:12.000Z</Time>
            <Position>
              <LatitudeDegrees>43.4674871899187564849853515625</LatitudeDegrees>
              <LongitudeDegrees>-5.08045013062655925750732421875</LongitudeDegrees>
            </Position>
            <AltitudeMeters>20.6000003814697265625</AltitudeMeters>
            <DistanceMeters>NAN</DistanceMeters>
          </Trackpoint>
          <Trackpoint>
            <Time>2022-07-16T19:40:13.000Z</Time>
            <Position>
              <LatitudeDegrees>43.467490039765834808349609375</LatitudeDegrees>
              <LongitudeDegrees>-5.08047460578382015228271484375</LongitudeDegrees>
            </Position>
            <AltitudeMeters>20.6000003814697265625</AltitudeMeters>
            <DistanceMeters>NAN</DistanceMeters>
          </Trackpoint>
          <Trackpoint>
            <Time>2022-07-16T19:40:14.000Z</Time>
            <Position>
              <LatitudeDegrees>43.4674949012696743011474609375</LatitudeDegrees>
              <LongitudeDegrees>-5.08050612173974514007568359375</LongitudeDegrees>
            </Position>
            <AltitudeMeters>20.6000003814697265625</AltitudeMeters>
            <DistanceMeters>NAN</DistanceMeters>
          </Trackpoint>
          <Trackpoint>
            <Time>2022-07-16T19:40:20.000Z</Time>
            <Position>
              <LatitudeDegrees>43.467525579035282135009765625</LatitudeDegrees>
              <LongitudeDegrees>-5.0807186029851436614990234375</LongitudeDegrees>
            </Position>
            <AltitudeMeters>21.3999996185302734375</AltitudeMeters>
            <DistanceMeters>NAN</DistanceMeters>
          </Trackpoint>
          <Trackpoint>
            <Time>2022-07-16T19:40:21.000Z</Time>
            <Position>
              <LatitudeDegrees>43.46753052435815334320068359375</LatitudeDegrees>
              <LongitudeDegrees>-5.0807596743106842041015625</LongitudeDegrees>
            </Position>
            <AltitudeMeters>21.3999996185302734375</AltitudeMeters>
            <DistanceMeters>NAN</DistanceMeters>
          </Trackpoint>
          <Trackpoint>
            <Time>2022-07-16T19:40:28.000Z</Time>
            <Position>
              <LatitudeDegrees>43.46757494844496250152587890625</LatitudeDegrees>
              <LongitudeDegrees>-5.08107190020382404327392578125</LongitudeDegrees>
            </Position>
            <AltitudeMeters>21.3999996185302734375</AltitudeMeters>
            <DistanceMeters>NAN</DistanceMeters>
          </Trackpoint>
          <Trackpoint>
            <Time>2022-07-16T19:40:35.000Z</Time>
            <Position>
              <LatitudeDegrees>43.46760445274412631988525390625</LatitudeDegrees>
              <LongitudeDegrees>-5.08131195791065692901611328125</LongitudeDegrees>
            </Position>
            <AltitudeMeters>21.200000762939453125</AltitudeMeters>
            <DistanceMeters>NAN</DistanceMeters>
          </Trackpoint>
          <Trackpoint>
            <Time>2022-07-16T19:40:40.000Z</Time>
            <Position>
              <LatitudeDegrees>43.46762641333043575286865234375</LatitudeDegrees>
              <LongitudeDegrees>-5.08150239475071430206298828125</LongitudeDegrees>
            </Position>
            <AltitudeMeters>21.3999996185302734375</AltitudeMeters>
            <DistanceMeters>NAN</DistanceMeters>
          </Trackpoint>
          <Trackpoint>
            <Time>2022-07-16T19:40:45.000Z</Time>
            <Position>
              <LatitudeDegrees>43.46764753572642803192138671875</LatitudeDegrees>
              <LongitudeDegrees>-5.0817284546792507171630859375</LongitudeDegrees>
            </Position>
            <AltitudeMeters>21.3999996185302734375</AltitudeMeters>
            <DistanceMeters>NAN</DistanceMeters>
          </Trackpoint>
          <Trackpoint>
            <Time>2022-07-16T19:40:52.000Z</Time>
            <Position>
              <LatitudeDegrees>43.46766396425664424896240234375</LatitudeDegrees>
              <LongitudeDegrees>-5.08199273608624935150146484375</LongitudeDegrees>
            </Position>
            <AltitudeMeters>21.3999996185302734375</AltitudeMeters>
            <DistanceMeters>NAN</DistanceMeters>
          </Trackpoint>
          <Trackpoint>
            <Time>2022-07-16T19:41:01.000Z</Time>
            <Position>
              <LatitudeDegrees>43.46770671196281909942626953125</LatitudeDegrees>
              <LongitudeDegrees>-5.08231443352997303009033203125</LongitudeDegrees>
            </Position>
            <AltitudeMeters>21.3999996185302734375</AltitudeMeters>
            <DistanceMeters>NAN</DistanceMeters>
          </Trackpoint>
          <Trackpoint>
            <Time>2022-07-16T19:41:04.000Z</Time>
            <Position>
              <LatitudeDegrees>43.467709980905055999755859375</LatitudeDegrees>
              <LongitudeDegrees>-5.08241769857704639434814453125</LongitudeDegrees>
            </Position>
            <AltitudeMeters>21.3999996185302734375</AltitudeMeters>
            <DistanceMeters>NAN</DistanceMeters>
          </Trackpoint>
          <Trackpoint>
            <Time>2022-07-16T19:41:05.000Z</Time>
            <Position>
              <LatitudeDegrees>43.46770855598151683807373046875</LatitudeDegrees>
              <LongitudeDegrees>-5.0824539922177791595458984375</LongitudeDegrees>
            </Position>
            <AltitudeMeters>21.3999996185302734375</AltitudeMeters>
            <DistanceMeters>NAN</DistanceMeters>
          </Trackpoint>
          <Trackpoint>
            <Time>2022-07-16T19:41:10.000Z</Time>
            <Position>
              <LatitudeDegrees>43.46771408803761005401611328125</LatitudeDegrees>
              <LongitudeDegrees>-5.082669742405414581298828125</LongitudeDegrees>
            </Position>
            <AltitudeMeters>21.6000003814697265625</AltitudeMeters>
            <DistanceMeters>NAN</DistanceMeters>
          </Trackpoint>
          <Trackpoint>
            <Time>2022-07-16T19:41:18.000Z</Time>
            <Position>
              <LatitudeDegrees>43.4677450172603130340576171875</LatitudeDegrees>
              <LongitudeDegrees>-5.0830283202230930328369140625</LongitudeDegrees>
            </Position>
            <AltitudeMeters>21.799999237060546875</AltitudeMeters>
            <DistanceMeters>NAN</DistanceMeters>
          </Trackpoint>
          <Trackpoint>
            <Time>2022-07-16T19:41:27.000Z</Time>
            <Position>
              <LatitudeDegrees>43.46776404418051242828369140625</LatitudeDegrees>
              <LongitudeDegrees>-5.08342218585312366485595703125</LongitudeDegrees>
            </Position>
            <AltitudeMeters>21.799999237060546875</AltitudeMeters>
            <DistanceMeters>NAN</DistanceMeters>
          </Trackpoint>
          <Trackpoint>
            <Time>2022-07-16T19:41:29.000Z</Time>
            <Position>
              <LatitudeDegrees>43.46775918267667293548583984375</LatitudeDegrees>
              <LongitudeDegrees>-5.0834990479052066802978515625</LongitudeDegrees>
            </Position>
            <AltitudeMeters>21.799999237060546875</AltitudeMeters>
            <DistanceMeters>NAN</DistanceMeters>
          </Trackpoint>
          <Trackpoint>
            <Time>2022-07-16T19:41:36.000Z</Time>
            <Position>
              <LatitudeDegrees>43.46776655875146389007568359375</LatitudeDegrees>
              <LongitudeDegrees>-5.08383289910852909088134765625</LongitudeDegrees>
            </Position>
            <AltitudeMeters>22</AltitudeMeters>
            <DistanceMeters>NAN</DistanceMeters>
          </Trackpoint>
          <Trackpoint>
            <Time>2022-07-16T19:41:43.000Z</Time>
            <Position>
              <LatitudeDegrees>43.46779279410839080810546875</LatitudeDegrees>
              <LongitudeDegrees>-5.0841474719345569610595703125</LongitudeDegrees>
            </Position>
            <AltitudeMeters>22</AltitudeMeters>
            <DistanceMeters>NAN</DistanceMeters>
          </Trackpoint>
          <Trackpoint>
            <Time>2022-07-16T19:41:53.000Z</Time>
            <Position>
              <LatitudeDegrees>43.4678261540830135345458984375</LatitudeDegrees>
              <LongitudeDegrees>-5.08458827622234821319580078125</LongitudeDegrees>
            </Position>
            <AltitudeMeters>22.200000762939453125</AltitudeMeters>
            <DistanceMeters>NAN</DistanceMeters>
          </Trackpoint>
          <Trackpoint>
            <Time>2022-07-16T19:41:57.000Z</Time>
            <Position>
              <LatitudeDegrees>43.4678486175835132598876953125</LatitudeDegrees>
              <LongitudeDegrees>-5.0847563333809375762939453125</LongitudeDegrees>
            </Position>
            <AltitudeMeters>22.200000762939453125</AltitudeMeters>
            <DistanceMeters>NAN</DistanceMeters>
          </Trackpoint>
          <Trackpoint>
            <Time>2022-07-16T19:42:04.000Z</Time>
            <Position>
              <LatitudeDegrees>43.46786093898117542266845703125</LatitudeDegrees>
              <LongitudeDegrees>-5.0850875861942768096923828125</LongitudeDegrees>
            </Position>
            <AltitudeMeters>22.3999996185302734375</AltitudeMeters>
            <DistanceMeters>NAN</DistanceMeters>
          </Trackpoint>
          <Trackpoint>
            <Time>2022-07-16T19:42:13.000Z</Time>
            <Position>
              <LatitudeDegrees>43.46787066198885440826416015625</LatitudeDegrees>
              <LongitudeDegrees>-5.08545697666704654693603515625</LongitudeDegrees>
            </Position>
            <AltitudeMeters>22.3999996185302734375</AltitudeMeters>
            <DistanceMeters>NAN</DistanceMeters>
          </Trackpoint>
          <Trackpoint>
            <Time>2022-07-16T19:42:19.000Z</Time>
            <Position>
              <LatitudeDegrees>43.4678801335394382476806640625</LatitudeDegrees>
              <LongitudeDegrees>-5.08567406795918941497802734375</LongitudeDegrees>
            </Position>
            <AltitudeMeters>22.6000003814697265625</AltitudeMeters>
            <DistanceMeters>NAN</DistanceMeters>
          </Trackpoint>
          <Trackpoint>
            <Time>2022-07-16T19:42:20.000Z</Time>
            <Position>
              <LatitudeDegrees>43.46788340248167514801025390625</LatitudeDegrees>
              <LongitudeDegrees>-5.0857190787792205810546875</LongitudeDegrees>
            </Position>
            <AltitudeMeters>22.6000003814697265625</AltitudeMeters>
            <DistanceMeters>NAN</DistanceMeters>
          </Trackpoint>
          <Trackpoint>
            <Time>2022-07-16T19:42:27.000Z</Time>
            <Position>
              <LatitudeDegrees>43.46787569113075733184814453125</LatitudeDegrees>
              <LongitudeDegrees>-5.0859572924673557281494140625</LongitudeDegrees>
            </Position>
            <AltitudeMeters>22.200000762939453125</AltitudeMeters>
            <DistanceMeters>NAN</DistanceMeters>
          </Trackpoint>
          <Trackpoint>
            <Time>2022-07-16T19:42:31.000Z</Time>
            <Position>
              <LatitudeDegrees>43.467882312834262847900390625</LatitudeDegrees>
              <LongitudeDegrees>-5.086097605526447296142578125</LongitudeDegrees>
            </Position>
            <AltitudeMeters>22.200000762939453125</AltitudeMeters>
            <DistanceMeters>NAN</DistanceMeters>
          </Trackpoint>
          <Trackpoint>
            <Time>2022-07-16T19:42:36.000Z</Time>
            <Position>
              <LatitudeDegrees>43.4678905270993709564208984375</LatitudeDegrees>
              <LongitudeDegrees>-5.08629147894680500030517578125</LongitudeDegrees>
            </Position>
            <AltitudeMeters>22.3999996185302734375</AltitudeMeters>
            <DistanceMeters>NAN</DistanceMeters>
          </Trackpoint>
          <Trackpoint>
            <Time>2022-07-16T19:42:41.000Z</Time>
            <Position>
              <LatitudeDegrees>43.4679009206593036651611328125</LatitudeDegrees>
              <LongitudeDegrees>-5.0864915549755096435546875</LongitudeDegrees>
            </Position>
            <AltitudeMeters>22.6000003814697265625</AltitudeMeters>
            <DistanceMeters>NAN</DistanceMeters>
          </Trackpoint>
          <Trackpoint>
            <Time>2022-07-16T19:42:43.000Z</Time>
            <Position>
              <LatitudeDegrees>43.4679009206593036651611328125</LatitudeDegrees>
              <LongitudeDegrees>-5.0865688361227512359619140625</LongitudeDegrees>
            </Position>
            <AltitudeMeters>22.6000003814697265625</AltitudeMeters>
            <DistanceMeters>NAN</DistanceMeters>
          </Trackpoint>
          <Trackpoint>
            <Time>2022-07-16T19:42:54.000Z</Time>
            <Position>
              <LatitudeDegrees>43.46791123040020465850830078125</LatitudeDegrees>
              <LongitudeDegrees>-5.08695448748767375946044921875</LongitudeDegrees>
            </Position>
            <AltitudeMeters>23</AltitudeMeters>
            <DistanceMeters>NAN</DistanceMeters>
          </Trackpoint>
          <Trackpoint>
            <Time>2022-07-16T19:43:01.000Z</Time>
            <Position>
              <LatitudeDegrees>43.467916510999202728271484375</LatitudeDegrees>
              <LongitudeDegrees>-5.08714693598449230194091796875</LongitudeDegrees>
            </Position>
            <AltitudeMeters>23.200000762939453125</AltitudeMeters>
            <DistanceMeters>NAN</DistanceMeters>
          </Trackpoint>
          <Trackpoint>
            <Time>2022-07-16T19:43:08.000Z</Time>
            <Position>
              <LatitudeDegrees>43.46792690455913543701171875</LatitudeDegrees>
              <LongitudeDegrees>-5.0873362831771373748779296875</LongitudeDegrees>
            </Position>
            <AltitudeMeters>23.6000003814697265625</AltitudeMeters>
            <DistanceMeters>NAN</DistanceMeters>
          </Trackpoint>
          <Trackpoint>
            <Time>2022-07-16T19:43:15.000Z</Time>
            <Position>
              <LatitudeDegrees>43.46793050877749919891357421875</LatitudeDegrees>
              <LongitudeDegrees>-5.08751573972404003143310546875</LongitudeDegrees>
            </Position>
            <AltitudeMeters>24</AltitudeMeters>
            <DistanceMeters>NAN</DistanceMeters>
          </Trackpoint>
          <Trackpoint>
            <Time>2022-07-16T19:43:18.000Z</Time>
            <Position>
              <LatitudeDegrees>43.46794702112674713134765625</LatitudeDegrees>
              <LongitudeDegrees>-5.0875927694141864776611328125</LongitudeDegrees>
            </Position>
            <AltitudeMeters>24.200000762939453125</AltitudeMeters>
            <DistanceMeters>NAN</DistanceMeters>
          </Trackpoint>
          <Trackpoint>
            <Time>2022-07-16T19:43:19.000Z</Time>
            <Position>
              <LatitudeDegrees>43.46796470694243907928466796875</LatitudeDegrees>
              <LongitudeDegrees>-5.08761967532336711883544921875</LongitudeDegrees>
            </Position>
            <AltitudeMeters>24.200000762939453125</AltitudeMeters>
            <DistanceMeters>NAN</DistanceMeters>
          </Trackpoint>
          <Trackpoint>
            <Time>2022-07-16T19:43:23.000Z</Time>
            <Position>
              <LatitudeDegrees>43.4680269844830036163330078125</LatitudeDegrees>
              <LongitudeDegrees>-5.08767382241785526275634765625</LongitudeDegrees>
            </Position>
            <AltitudeMeters>24.200000762939453125</AltitudeMeters>
            <DistanceMeters>NAN</DistanceMeters>
          </Trackpoint>
          <Trackpoint>
            <Time>2022-07-16T19:43:24.000Z</Time>
            <Position>
              <LatitudeDegrees>43.46804299391806125640869140625</LatitudeDegrees>
              <LongitudeDegrees>-5.0877034105360507965087890625</LongitudeDegrees>
            </Position>
            <AltitudeMeters>24.200000762939453125</AltitudeMeters>
            <DistanceMeters>NAN</DistanceMeters>
          </Trackpoint>
          <Trackpoint>
            <Time>2022-07-16T19:43:31.000Z</Time>
            <Position>
              <LatitudeDegrees>43.46807199530303478240966796875</LatitudeDegrees>
              <LongitudeDegrees>-5.0878945179283618927001953125</LongitudeDegrees>
            </Position>
            <AltitudeMeters>24.799999237060546875</AltitudeMeters>
            <DistanceMeters>NAN</DistanceMeters>
          </Trackpoint>
          <Trackpoint>
            <Time>2022-07-16T19:43:37.000Z</Time>
            <Position>
              <LatitudeDegrees>43.46800879575312137603759765625</LatitudeDegrees>
              <LongitudeDegrees>-5.08804597891867160797119140625</LongitudeDegrees>
            </Position>
            <AltitudeMeters>25.200000762939453125</AltitudeMeters>
            <DistanceMeters>NAN</DistanceMeters>
          </Trackpoint>
          <Trackpoint>
            <Time>2022-07-16T19:43:39.000Z</Time>
            <Position>
              <LatitudeDegrees>43.46798717044293880462646484375</LatitudeDegrees>
              <LongitudeDegrees>-5.08808570913970470428466796875</LongitudeDegrees>
            </Position>
            <AltitudeMeters>25.3999996185302734375</AltitudeMeters>
            <DistanceMeters>NAN</DistanceMeters>
          </Trackpoint>
          <Trackpoint>
            <Time>2022-07-16T19:43:45.000Z</Time>
            <Position>
              <LatitudeDegrees>43.467958755791187286376953125</LatitudeDegrees>
              <LongitudeDegrees>-5.08823876269161701202392578125</LongitudeDegrees>
            </Position>
            <AltitudeMeters>25.799999237060546875</AltitudeMeters>
            <DistanceMeters>NAN</DistanceMeters>
          </Trackpoint>
          <Trackpoint>
            <Time>2022-07-16T19:43:52.000Z</Time>
            <Position>
              <LatitudeDegrees>43.4679602645337581634521484375</LatitudeDegrees>
              <LongitudeDegrees>-5.08847647346556186676025390625</LongitudeDegrees>
            </Position>
            <AltitudeMeters>25.6000003814697265625</AltitudeMeters>
            <DistanceMeters>NAN</DistanceMeters>
          </Trackpoint>
          <Trackpoint>
            <Time>2022-07-16T19:43:59.000Z</Time>
            <Position>
              <LatitudeDegrees>43.46796018071472644805908203125</LatitudeDegrees>
              <LongitudeDegrees>-5.088807977735996246337890625</LongitudeDegrees>
            </Position>
            <AltitudeMeters>25.200000762939453125</AltitudeMeters>
            <DistanceMeters>NAN</DistanceMeters>
          </Trackpoint>
          <Trackpoint>
            <Time>2022-07-16T19:44:08.000Z</Time>
            <Position>
              <LatitudeDegrees>43.46798197366297245025634765625</LatitudeDegrees>
              <LongitudeDegrees>-5.0892595946788787841796875</LongitudeDegrees>
            </Position>
            <AltitudeMeters>24.3999996185302734375</AltitudeMeters>
            <DistanceMeters>NAN</DistanceMeters>
          </Trackpoint>
          <Trackpoint>
            <Time>2022-07-16T19:44:09.000Z</Time>
            <Position>
              <LatitudeDegrees>43.46798817627131938934326171875</LatitudeDegrees>
              <LongitudeDegrees>-5.08930393494665622711181640625</LongitudeDegrees>
            </Position>
            <AltitudeMeters>24.6000003814697265625</AltitudeMeters>
            <DistanceMeters>NAN</DistanceMeters>
          </Trackpoint>
          <Trackpoint>
            <Time>2022-07-16T19:44:11.000Z</Time>
            <Position>
              <LatitudeDegrees>43.46800628118216991424560546875</LatitudeDegrees>
              <LongitudeDegrees>-5.089351795613765716552734375</LongitudeDegrees>
            </Position>
            <AltitudeMeters>24.799999237060546875</AltitudeMeters>
            <DistanceMeters>NAN</DistanceMeters>
          </Trackpoint>
          <Trackpoint>
            <Time>2022-07-16T19:44:16.000Z</Time>
            <Position>
              <LatitudeDegrees>43.46805774606764316558837890625</LatitudeDegrees>
              <LongitudeDegrees>-5.0894196890294551849365234375</LongitudeDegrees>
            </Position>
            <AltitudeMeters>25.6000003814697265625</AltitudeMeters>
            <DistanceMeters>NAN</DistanceMeters>
          </Trackpoint>
          <Trackpoint>
            <Time>2022-07-16T19:44:19.000Z</Time>
            <Position>
              <LatitudeDegrees>43.46808708272874355316162109375</LatitudeDegrees>
              <LongitudeDegrees>-5.08947425521910190582275390625</LongitudeDegrees>
            </Position>
            <AltitudeMeters>26.3999996185302734375</AltitudeMeters>
            <DistanceMeters>NAN</DistanceMeters>
          </Trackpoint>
          <Trackpoint>
            <Time>2022-07-16T19:44:21.000Z</Time>
            <Position>
              <LatitudeDegrees>43.46810015849769115447998046875</LatitudeDegrees>
              <LongitudeDegrees>-5.08949923329055309295654296875</LongitudeDegrees>
            </Position>
            <AltitudeMeters>26.799999237060546875</AltitudeMeters>
            <DistanceMeters>NAN</DistanceMeters>
          </Trackpoint>
          <Trackpoint>
            <Time>2022-07-16T19:44:24.000Z</Time>
            <Position>
              <LatitudeDegrees>43.46812061034142971038818359375</LatitudeDegrees>
              <LongitudeDegrees>-5.08953862823545932769775390625</LongitudeDegrees>
            </Position>
            <AltitudeMeters>27.6000003814697265625</AltitudeMeters>
            <DistanceMeters>NAN</DistanceMeters>
          </Trackpoint>
          <Trackpoint>
            <Time>2022-07-16T19:44:30.000Z</Time>
            <Position>
              <LatitudeDegrees>43.46816939301788806915283203125</LatitudeDegrees>
              <LongitudeDegrees>-5.08963468484580516815185546875</LongitudeDegrees>
            </Position>
            <AltitudeMeters>28.3999996185302734375</AltitudeMeters>
            <DistanceMeters>NAN</DistanceMeters>
          </Trackpoint>
          <Trackpoint>
            <Time>2022-07-16T19:44:38.000Z</Time>
            <Position>
              <LatitudeDegrees>43.46819453872740268707275390625</LatitudeDegrees>
              <LongitudeDegrees>-5.08974574506282806396484375</LongitudeDegrees>
            </Position>
            <AltitudeMeters>28.200000762939453125</AltitudeMeters>
            <DistanceMeters>NAN</DistanceMeters>
          </Trackpoint>
          <Trackpoint>
            <Time>2022-07-16T19:47:50.000Z</Time>
            <Position>
              <LatitudeDegrees>43.46818632446229457855224609375</LatitudeDegrees>
              <LongitudeDegrees>-5.089808441698551177978515625</LongitudeDegrees>
            </Position>
            <AltitudeMeters>28</AltitudeMeters>
            <DistanceMeters>NAN</DistanceMeters>
          </Trackpoint>
          <Trackpoint>
            <Time>2022-07-16T19:47:52.000Z</Time>
            <Position>
              <LatitudeDegrees>43.46820292063057422637939453125</LatitudeDegrees>
              <LongitudeDegrees>-5.089867450296878814697265625</LongitudeDegrees>
            </Position>
            <AltitudeMeters>27.200000762939453125</AltitudeMeters>
            <DistanceMeters>NAN</DistanceMeters>
          </Trackpoint>
          <Trackpoint>
            <Time>2022-07-16T19:47:53.000Z</Time>
            <Position>
              <LatitudeDegrees>43.46821666695177555084228515625</LatitudeDegrees>
              <LongitudeDegrees>-5.08990173228085041046142578125</LongitudeDegrees>
            </Position>
            <AltitudeMeters>26.799999237060546875</AltitudeMeters>
            <DistanceMeters>NAN</DistanceMeters>
          </Trackpoint>
          <Trackpoint>
            <Time>2022-07-16T19:47:54.000Z</Time>
            <Position>
              <LatitudeDegrees>43.46823527477681636810302734375</LatitudeDegrees>
              <LongitudeDegrees>-5.08993760682642459869384765625</LongitudeDegrees>
            </Position>
            <AltitudeMeters>26.3999996185302734375</AltitudeMeters>
            <DistanceMeters>NAN</DistanceMeters>
          </Trackpoint>
          <Trackpoint>
            <Time>2022-07-16T19:47:59.000Z</Time>
            <Position>
              <LatitudeDegrees>43.46832412295043468475341796875</LatitudeDegrees>
              <LongitudeDegrees>-5.09009066037833690643310546875</LongitudeDegrees>
            </Position>
            <AltitudeMeters>26.200000762939453125</AltitudeMeters>
            <DistanceMeters>NAN</DistanceMeters>
          </Trackpoint>
          <Trackpoint>
            <Time>2022-07-16T19:48:06.000Z</Time>
            <Position>
              <LatitudeDegrees>43.4684038348495960235595703125</LatitudeDegrees>
              <LongitudeDegrees>-5.09028931148350238800048828125</LongitudeDegrees>
            </Position>
            <AltitudeMeters>26</AltitudeMeters>
            <DistanceMeters>NAN</DistanceMeters>
          </Trackpoint>
          <Trackpoint>
            <Time>2022-07-16T19:48:11.000Z</Time>
            <Position>
              <LatitudeDegrees>43.468477763235569000244140625</LatitudeDegrees>
              <LongitudeDegrees>-5.09042660705745220184326171875</LongitudeDegrees>
            </Position>
            <AltitudeMeters>26</AltitudeMeters>
            <DistanceMeters>NAN</DistanceMeters>
          </Trackpoint>
          <Trackpoint>
            <Time>2022-07-16T19:48:13.000Z</Time>
            <Position>
              <LatitudeDegrees>43.46850433386862277984619140625</LatitudeDegrees>
              <LongitudeDegrees>-5.09046717546880245208740234375</LongitudeDegrees>
            </Position>
            <AltitudeMeters>26</AltitudeMeters>
            <DistanceMeters>NAN</DistanceMeters>
          </Trackpoint>
          <Trackpoint>
            <Time>2022-07-16T19:48:18.000Z</Time>
            <Position>
              <LatitudeDegrees>43.468544147908687591552734375</LatitudeDegrees>
              <LongitudeDegrees>-5.0905150361359119415283203125</LongitudeDegrees>
            </Position>
            <AltitudeMeters>26</AltitudeMeters>
            <DistanceMeters>NAN</DistanceMeters>
          </Trackpoint>
          <Trackpoint>
            <Time>2022-07-16T19:48:19.000Z</Time>
            <Position>
              <LatitudeDegrees>43.468544147908687591552734375</LatitudeDegrees>
              <LongitudeDegrees>-5.0905150361359119415283203125</LongitudeDegrees>
            </Position>
            <AltitudeMeters>26</AltitudeMeters>
            <DistanceMeters>NAN</DistanceMeters>
          </Trackpoint>
          <Trackpoint>
            <Time>2022-07-17T08:02:01.000Z</Time>
            <Position>
              <LatitudeDegrees>43.46806881017982959747314453125</LatitudeDegrees>
              <LongitudeDegrees>-5.09009711444377899169921875</LongitudeDegrees>
            </Position>
            <AltitudeMeters>22</AltitudeMeters>
            <DistanceMeters>NAN</DistanceMeters>
          </Trackpoint>
          <Trackpoint>
            <Time>2022-07-17T08:02:02.000Z</Time>
            <Position>
              <LatitudeDegrees>43.46806881017982959747314453125</LatitudeDegrees>
              <LongitudeDegrees>-5.09009711444377899169921875</LongitudeDegrees>
            </Position>
            <AltitudeMeters>22</AltitudeMeters>
            <DistanceMeters>NAN</DistanceMeters>
          </Trackpoint>
          <Trackpoint>
            <Time>2022-07-17T08:02:13.000Z</Time>
            <Position>
              <LatitudeDegrees>43.468053303658962249755859375</LatitudeDegrees>
              <LongitudeDegrees>-5.09028545580804347991943359375</LongitudeDegrees>
            </Position>
            <AltitudeMeters>21.6000003814697265625</AltitudeMeters>
            <DistanceMeters>NAN</DistanceMeters>
          </Trackpoint>
          <Trackpoint>
            <Time>2022-07-17T08:02:15.000Z</Time>
            <Position>
              <LatitudeDegrees>43.46804517321288585662841796875</LatitudeDegrees>
              <LongitudeDegrees>-5.090305991470813751220703125</LongitudeDegrees>
            </Position>
            <AltitudeMeters>21.3999996185302734375</AltitudeMeters>
            <DistanceMeters>NAN</DistanceMeters>
          </Trackpoint>
          <Trackpoint>
            <Time>2022-07-17T08:02:18.000Z</Time>
            <Position>
              <LatitudeDegrees>43.46796504221856594085693359375</LatitudeDegrees>
              <LongitudeDegrees>-5.09040162898600101470947265625</LongitudeDegrees>
            </Position>
            <AltitudeMeters>21</AltitudeMeters>
            <DistanceMeters>NAN</DistanceMeters>
          </Trackpoint>
          <Trackpoint>
            <Time>2022-07-17T08:02:20.000Z</Time>
            <Position>
              <LatitudeDegrees>43.46795464865863323211669921875</LatitudeDegrees>
              <LongitudeDegrees>-5.09041889570653438568115234375</LongitudeDegrees>
            </Position>
            <AltitudeMeters>20.3999996185302734375</AltitudeMeters>
            <DistanceMeters>NAN</DistanceMeters>
          </Trackpoint>
          <Trackpoint>
            <Time>2022-07-17T08:02:22.000Z</Time>
            <Position>
              <LatitudeDegrees>43.46791408024728298187255859375</LatitudeDegrees>
              <LongitudeDegrees>-5.09045460261404514312744140625</LongitudeDegrees>
            </Position>
            <AltitudeMeters>19.799999237060546875</AltitudeMeters>
            <DistanceMeters>NAN</DistanceMeters>
          </Trackpoint>
          <Trackpoint>
            <Time>2022-07-17T08:02:25.000Z</Time>
            <Position>
              <LatitudeDegrees>43.46788859926164150238037109375</LatitudeDegrees>
              <LongitudeDegrees>-5.09050824679434299468994140625</LongitudeDegrees>
            </Position>
            <AltitudeMeters>19.6000003814697265625</AltitudeMeters>
            <DistanceMeters>NAN</DistanceMeters>
          </Trackpoint>
          <Trackpoint>
            <Time>2022-07-17T08:02:34.000Z</Time>
            <Position>
              <LatitudeDegrees>43.4678848274052143096923828125</LatitudeDegrees>
              <LongitudeDegrees>-5.09077210910618305206298828125</LongitudeDegrees>
            </Position>
            <AltitudeMeters>19.799999237060546875</AltitudeMeters>
            <DistanceMeters>NAN</DistanceMeters>
          </Trackpoint>
          <Trackpoint>
            <Time>2022-07-17T08:02:41.000Z</Time>
            <Position>
              <LatitudeDegrees>43.467872925102710723876953125</LatitudeDegrees>
              <LongitudeDegrees>-5.090969167649745941162109375</LongitudeDegrees>
            </Position>
            <AltitudeMeters>20.799999237060546875</AltitudeMeters>
            <DistanceMeters>NAN</DistanceMeters>
          </Trackpoint>
          <Trackpoint>
            <Time>2022-07-17T08:02:43.000Z</Time>
            <Position>
              <LatitudeDegrees>43.46786714158952236175537109375</LatitudeDegrees>
              <LongitudeDegrees>-5.0910065509378910064697265625</LongitudeDegrees>
            </Position>
            <AltitudeMeters>20.799999237060546875</AltitudeMeters>
            <DistanceMeters>NAN</DistanceMeters>
          </Trackpoint>
          <Trackpoint>
            <Time>2022-07-17T08:02:44.000Z</Time>
            <Position>
              <LatitudeDegrees>43.4678630344569683074951171875</LatitudeDegrees>
              <LongitudeDegrees>-5.0910266675055027008056640625</LongitudeDegrees>
            </Position>
            <AltitudeMeters>21</AltitudeMeters>
            <DistanceMeters>NAN</DistanceMeters>
          </Trackpoint>
          <Trackpoint>
            <Time>2022-07-17T08:02:50.000Z</Time>
            <Position>
              <LatitudeDegrees>43.46783646382391452789306640625</LatitudeDegrees>
              <LongitudeDegrees>-5.091173015534877777099609375</LongitudeDegrees>
            </Position>
            <AltitudeMeters>21.799999237060546875</AltitudeMeters>
            <DistanceMeters>NAN</DistanceMeters>
          </Trackpoint>
          <Trackpoint>
            <Time>2022-07-17T08:02:54.000Z</Time>
            <Position>
              <LatitudeDegrees>43.46781198866665363311767578125</LatitudeDegrees>
              <LongitudeDegrees>-5.0912536494433879852294921875</LongitudeDegrees>
            </Position>
            <AltitudeMeters>22</AltitudeMeters>
            <DistanceMeters>NAN</DistanceMeters>
          </Trackpoint>
          <Trackpoint>
            <Time>2022-07-17T08:02:56.000Z</Time>
            <Position>
              <LatitudeDegrees>43.467809222638607025146484375</LatitudeDegrees>
              <LongitudeDegrees>-5.0912891887128353118896484375</LongitudeDegrees>
            </Position>
            <AltitudeMeters>22.200000762939453125</AltitudeMeters>
            <DistanceMeters>NAN</DistanceMeters>
          </Trackpoint>
          <Trackpoint>
            <Time>2022-07-17T08:02:59.000Z</Time>
            <Position>
              <LatitudeDegrees>43.46781131811439990997314453125</LatitudeDegrees>
              <LongitudeDegrees>-5.0913022644817829132080078125</LongitudeDegrees>
            </Position>
            <AltitudeMeters>22.200000762939453125</AltitudeMeters>
            <DistanceMeters>NAN</DistanceMeters>
          </Trackpoint>
          <Trackpoint>
            <Time>2022-07-17T08:04:02.000Z</Time>
            <Position>
              <LatitudeDegrees>43.4678412415087223052978515625</LatitudeDegrees>
              <LongitudeDegrees>-5.091462023556232452392578125</LongitudeDegrees>
            </Position>
            <AltitudeMeters>23.799999237060546875</AltitudeMeters>
            <DistanceMeters>NAN</DistanceMeters>
          </Trackpoint>
          <Trackpoint>
            <Time>2022-07-17T08:04:03.000Z</Time>
            <Position>
              <LatitudeDegrees>43.467836044728755950927734375</LatitudeDegrees>
              <LongitudeDegrees>-5.09149027056992053985595703125</LongitudeDegrees>
            </Position>
            <AltitudeMeters>24</AltitudeMeters>
            <DistanceMeters>NAN</DistanceMeters>
          </Trackpoint>
          <Trackpoint>
            <Time>2022-07-17T08:04:10.000Z</Time>
            <Position>
              <LatitudeDegrees>43.46781249158084392547607421875</LatitudeDegrees>
              <LongitudeDegrees>-5.0916962139308452606201171875</LongitudeDegrees>
            </Position>
            <AltitudeMeters>24.799999237060546875</AltitudeMeters>
            <DistanceMeters>NAN</DistanceMeters>
          </Trackpoint>
          <Trackpoint>
            <Time>2022-07-17T08:04:11.000Z</Time>
            <Position>
              <LatitudeDegrees>43.46781316213309764862060546875</LatitudeDegrees>
              <LongitudeDegrees>-5.091720186173915863037109375</LongitudeDegrees>
            </Position>
            <AltitudeMeters>25</AltitudeMeters>
            <DistanceMeters>NAN</DistanceMeters>
          </Trackpoint>
          <Trackpoint>
            <Time>2022-07-17T08:04:19.000Z</Time>
            <Position>
              <LatitudeDegrees>43.467791117727756500244140625</LatitudeDegrees>
              <LongitudeDegrees>-5.09192227385938167572021484375</LongitudeDegrees>
            </Position>
            <AltitudeMeters>25.6000003814697265625</AltitudeMeters>
            <DistanceMeters>NAN</DistanceMeters>
          </Trackpoint>
          <Trackpoint>
            <Time>2022-07-17T08:04:23.000Z</Time>
            <Position>
              <LatitudeDegrees>43.467780053615570068359375</LatitudeDegrees>
              <LongitudeDegrees>-5.09202956221997737884521484375</LongitudeDegrees>
            </Position>
            <AltitudeMeters>26</AltitudeMeters>
            <DistanceMeters>NAN</DistanceMeters>
          </Trackpoint>
          <Trackpoint>
            <Time>2022-07-17T08:04:29.000Z</Time>
            <Position>
              <LatitudeDegrees>43.46776588819921016693115234375</LatitudeDegrees>
              <LongitudeDegrees>-5.092171132564544677734375</LongitudeDegrees>
            </Position>
            <AltitudeMeters>26.6000003814697265625</AltitudeMeters>
            <DistanceMeters>NAN</DistanceMeters>
          </Trackpoint>
          <Trackpoint>
            <Time>2022-07-17T08:04:31.000Z</Time>
            <Position>
              <LatitudeDegrees>43.46776060760021209716796875</LatitudeDegrees>
              <LongitudeDegrees>-5.092224776744842529296875</LongitudeDegrees>
            </Position>
            <AltitudeMeters>26.6000003814697265625</AltitudeMeters>
            <DistanceMeters>NAN</DistanceMeters>
          </Trackpoint>
          <Trackpoint>
            <Time>2022-07-17T08:04:33.000Z</Time>
            <Position>
              <LatitudeDegrees>43.4677537344396114349365234375</LatitudeDegrees>
              <LongitudeDegrees>-5.092277415096759796142578125</LongitudeDegrees>
            </Position>
            <AltitudeMeters>26.799999237060546875</AltitudeMeters>
            <DistanceMeters>NAN</DistanceMeters>
          </Trackpoint>
          <Trackpoint>
            <Time>2022-07-17T08:04:35.000Z</Time>
            <Position>
              <LatitudeDegrees>43.46774744801223278045654296875</LatitudeDegrees>
              <LongitudeDegrees>-5.092327706515789031982421875</LongitudeDegrees>
            </Position>
            <AltitudeMeters>26.799999237060546875</AltitudeMeters>
            <DistanceMeters>NAN</DistanceMeters>
          </Trackpoint>
          <Trackpoint>
            <Time>2022-07-17T08:04:36.000Z</Time>
            <Position>
              <LatitudeDegrees>43.46774107776582241058349609375</LatitudeDegrees>
              <LongitudeDegrees>-5.09235058911144733428955078125</LongitudeDegrees>
            </Position>
            <AltitudeMeters>26.799999237060546875</AltitudeMeters>
            <DistanceMeters>NAN</DistanceMeters>
          </Trackpoint>
          <Trackpoint>
            <Time>2022-07-17T08:04:37.000Z</Time>
            <Position>
              <LatitudeDegrees>43.46773671917617321014404296875</LatitudeDegrees>
              <LongitudeDegrees>-5.0923717953264713287353515625</LongitudeDegrees>
            </Position>
            <AltitudeMeters>27</AltitudeMeters>
            <DistanceMeters>NAN</DistanceMeters>
          </Trackpoint>
          <Trackpoint>
            <Time>2022-07-17T08:04:39.000Z</Time>
            <Position>
              <LatitudeDegrees>43.4677272476255893707275390625</LatitudeDegrees>
              <LongitudeDegrees>-5.0924194045364856719970703125</LongitudeDegrees>
            </Position>
            <AltitudeMeters>27.200000762939453125</AltitudeMeters>
            <DistanceMeters>NAN</DistanceMeters>
          </Trackpoint>
          <Trackpoint>
            <Time>2022-07-17T08:04:41.000Z</Time>
            <Position>
              <LatitudeDegrees>43.4677228890359401702880859375</LatitudeDegrees>
              <LongitudeDegrees>-5.0924675166606903076171875</LongitudeDegrees>
            </Position>
            <AltitudeMeters>27.3999996185302734375</AltitudeMeters>
            <DistanceMeters>NAN</DistanceMeters>
          </Trackpoint>
          <Trackpoint>
            <Time>2022-07-17T08:04:43.000Z</Time>
            <Position>
              <LatitudeDegrees>43.4677158482372760772705078125</LatitudeDegrees>
              <LongitudeDegrees>-5.09250816889107227325439453125</LongitudeDegrees>
            </Position>
            <AltitudeMeters>27.3999996185302734375</AltitudeMeters>
            <DistanceMeters>NAN</DistanceMeters>
          </Trackpoint>
          <Trackpoint>
            <Time>2022-07-17T08:04:44.000Z</Time>
            <Position>
              <LatitudeDegrees>43.46771224401891231536865234375</LatitudeDegrees>
              <LongitudeDegrees>-5.09252627380192279815673828125</LongitudeDegrees>
            </Position>
            <AltitudeMeters>27.3999996185302734375</AltitudeMeters>
            <DistanceMeters>NAN</DistanceMeters>
          </Trackpoint>
          <Trackpoint>
            <Time>2022-07-17T08:04:46.000Z</Time>
            <Position>
              <LatitudeDegrees>43.46771023236215114593505859375</LatitudeDegrees>
              <LongitudeDegrees>-5.092570446431636810302734375</LongitudeDegrees>
            </Position>
            <AltitudeMeters>27.6000003814697265625</AltitudeMeters>
            <DistanceMeters>NAN</DistanceMeters>
          </Trackpoint>
          <Trackpoint>
            <Time>2022-07-17T08:04:48.000Z</Time>
            <Position>
              <LatitudeDegrees>43.4677047841250896453857421875</LatitudeDegrees>
              <LongitudeDegrees>-5.0926198996603488922119140625</LongitudeDegrees>
            </Position>
            <AltitudeMeters>27.799999237060546875</AltitudeMeters>
            <DistanceMeters>NAN</DistanceMeters>
          </Trackpoint>
          <Trackpoint>
            <Time>2022-07-17T08:04:52.000Z</Time>
            <Position>
              <LatitudeDegrees>43.46767821349203586578369140625</LatitudeDegrees>
              <LongitudeDegrees>-5.09269609116017818450927734375</LongitudeDegrees>
            </Position>
            <AltitudeMeters>28</AltitudeMeters>
            <DistanceMeters>NAN</DistanceMeters>
          </Trackpoint>
          <Trackpoint>
            <Time>2022-07-17T08:04:54.000Z</Time>
            <Position>
              <LatitudeDegrees>43.46767486073076725006103515625</LatitudeDegrees>
              <LongitudeDegrees>-5.09270514361560344696044921875</LongitudeDegrees>
            </Position>
            <AltitudeMeters>28.200000762939453125</AltitudeMeters>
            <DistanceMeters>NAN</DistanceMeters>
          </Trackpoint>
          <Trackpoint>
            <Time>2022-07-17T08:04:55.000Z</Time>
            <Position>
              <LatitudeDegrees>43.4676742739975452423095703125</LatitudeDegrees>
              <LongitudeDegrees>-5.092703886330127716064453125</LongitudeDegrees>
            </Position>
            <AltitudeMeters>28.3999996185302734375</AltitudeMeters>
            <DistanceMeters>NAN</DistanceMeters>
          </Trackpoint>
          <Trackpoint>
            <Time>2022-07-17T08:06:17.000Z</Time>
            <Position>
              <LatitudeDegrees>43.467623479664325714111328125</LatitudeDegrees>
              <LongitudeDegrees>-5.0927734561264514923095703125</LongitudeDegrees>
            </Position>
            <AltitudeMeters>29.6000003814697265625</AltitudeMeters>
            <DistanceMeters>NAN</DistanceMeters>
          </Trackpoint>
          <Trackpoint>
            <Time>2022-07-17T08:06:18.000Z</Time>
            <Position>
              <LatitudeDegrees>43.467622138559818267822265625</LatitudeDegrees>
              <LongitudeDegrees>-5.09280354715883731842041015625</LongitudeDegrees>
            </Position>
            <AltitudeMeters>29.799999237060546875</AltitudeMeters>
            <DistanceMeters>NAN</DistanceMeters>
          </Trackpoint>
          <Trackpoint>
            <Time>2022-07-17T08:06:19.000Z</Time>
            <Position>
              <LatitudeDegrees>43.46761618740856647491455078125</LatitudeDegrees>
              <LongitudeDegrees>-5.0928348116576671600341796875</LongitudeDegrees>
            </Position>
            <AltitudeMeters>29.799999237060546875</AltitudeMeters>
            <DistanceMeters>NAN</DistanceMeters>
          </Trackpoint>
          <Trackpoint>
            <Time>2022-07-17T08:06:21.000Z</Time>
            <Position>
              <LatitudeDegrees>43.46760730259120464324951171875</LatitudeDegrees>
              <LongitudeDegrees>-5.09289197623729705810546875</LongitudeDegrees>
            </Position>
            <AltitudeMeters>30</AltitudeMeters>
            <DistanceMeters>NAN</DistanceMeters>
          </Trackpoint>
          <Trackpoint>
            <Time>2022-07-17T08:06:26.000Z</Time>
            <Position>
              <LatitudeDegrees>43.4676092304289340972900390625</LatitudeDegrees>
              <LongitudeDegrees>-5.09302549995481967926025390625</LongitudeDegrees>
            </Position>
            <AltitudeMeters>30.3999996185302734375</AltitudeMeters>
            <DistanceMeters>NAN</DistanceMeters>
          </Trackpoint>
          <Trackpoint>
            <Time>2022-07-17T08:06:28.000Z</Time>
            <Position>
              <LatitudeDegrees>43.4676042012870311737060546875</LatitudeDegrees>
              <LongitudeDegrees>-5.09307277388870716094970703125</LongitudeDegrees>
            </Position>
            <AltitudeMeters>30.6000003814697265625</AltitudeMeters>
            <DistanceMeters>NAN</DistanceMeters>
          </Trackpoint>
          <Trackpoint>
            <Time>2022-07-17T08:06:33.000Z</Time>
            <Position>
              <LatitudeDegrees>43.4675938077270984649658203125</LatitudeDegrees>
              <LongitudeDegrees>-5.0932051241397857666015625</LongitudeDegrees>
            </Position>
            <AltitudeMeters>31.200000762939453125</AltitudeMeters>
            <DistanceMeters>NAN</DistanceMeters>
          </Trackpoint>
          <Trackpoint>
            <Time>2022-07-17T08:06:37.000Z</Time>
            <Position>
              <LatitudeDegrees>43.4675995074212551116943359375</LatitudeDegrees>
              <LongitudeDegrees>-5.0932909548282623291015625</LongitudeDegrees>
            </Position>
            <AltitudeMeters>31.799999237060546875</AltitudeMeters>
            <DistanceMeters>NAN</DistanceMeters>
          </Trackpoint>
          <Trackpoint>
            <Time>2022-07-17T08:06:41.000Z</Time>
            <Position>
              <LatitudeDegrees>43.46762859262526035308837890625</LatitudeDegrees>
              <LongitudeDegrees>-5.09336672723293304443359375</LongitudeDegrees>
            </Position>
            <AltitudeMeters>32</AltitudeMeters>
            <DistanceMeters>NAN</DistanceMeters>
          </Trackpoint>
          <Trackpoint>
            <Time>2022-07-17T08:06:50.000Z</Time>
            <Position>
              <LatitudeDegrees>43.46764988265931606292724609375</LatitudeDegrees>
              <LongitudeDegrees>-5.0935707427561283111572265625</LongitudeDegrees>
            </Position>
            <AltitudeMeters>32.799999237060546875</AltitudeMeters>
            <DistanceMeters>NAN</DistanceMeters>
          </Trackpoint>
          <Trackpoint>
            <Time>2022-07-17T08:06:52.000Z</Time>
            <Position>
              <LatitudeDegrees>43.467651307582855224609375</LatitudeDegrees>
              <LongitudeDegrees>-5.09362430311739444732666015625</LongitudeDegrees>
            </Position>
            <AltitudeMeters>33.200000762939453125</AltitudeMeters>
            <DistanceMeters>NAN</DistanceMeters>
          </Trackpoint>
          <Trackpoint>
            <Time>2022-07-17T08:06:53.000Z</Time>
            <Position>
              <LatitudeDegrees>43.46765407361090183258056640625</LatitudeDegrees>
              <LongitudeDegrees>-5.09365162812173366546630859375</LongitudeDegrees>
            </Position>
            <AltitudeMeters>33.200000762939453125</AltitudeMeters>
            <DistanceMeters>NAN</DistanceMeters>
          </Trackpoint>
          <Trackpoint>
            <Time>2022-07-17T08:06:55.000Z</Time>
            <Position>
              <LatitudeDegrees>43.467661030590534210205078125</LatitudeDegrees>
              <LongitudeDegrees>-5.093694962561130523681640625</LongitudeDegrees>
            </Position>
            <AltitudeMeters>33.40000152587890625</AltitudeMeters>
            <DistanceMeters>NAN</DistanceMeters>
          </Trackpoint>
          <Trackpoint>
            <Time>2022-07-17T08:06:56.000Z</Time>
            <Position>
              <LatitudeDegrees>43.46766111440956592559814453125</LatitudeDegrees>
              <LongitudeDegrees>-5.09371952153742313385009765625</LongitudeDegrees>
            </Position>
            <AltitudeMeters>33.59999847412109375</AltitudeMeters>
            <DistanceMeters>NAN</DistanceMeters>
          </Trackpoint>
          <Trackpoint>
            <Time>2022-07-17T08:06:57.000Z</Time>
            <Position>
              <LatitudeDegrees>43.46766136586666107177734375</LatitudeDegrees>
              <LongitudeDegrees>-5.093744583427906036376953125</LongitudeDegrees>
            </Position>
            <AltitudeMeters>33.59999847412109375</AltitudeMeters>
            <DistanceMeters>NAN</DistanceMeters>
          </Trackpoint>
          <Trackpoint>
            <Time>2022-07-17T08:06:58.000Z</Time>
            <Position>
              <LatitudeDegrees>43.4676660597324371337890625</LatitudeDegrees>
              <LongitudeDegrees>-5.09376947768032550811767578125</LongitudeDegrees>
            </Position>
            <AltitudeMeters>33.59999847412109375</AltitudeMeters>
            <DistanceMeters>NAN</DistanceMeters>
          </Trackpoint>
          <Trackpoint>
            <Time>2022-07-17T08:06:59.000Z</Time>
            <Position>
              <LatitudeDegrees>43.46767050214111804962158203125</LatitudeDegrees>
              <LongitudeDegrees>-5.09379261173307895660400390625</LongitudeDegrees>
            </Position>
            <AltitudeMeters>33.799999237060546875</AltitudeMeters>
            <DistanceMeters>NAN</DistanceMeters>
          </Trackpoint>
          <Trackpoint>
            <Time>2022-07-17T08:07:00.000Z</Time>
            <Position>
              <LatitudeDegrees>43.46767419017851352691650390625</LatitudeDegrees>
              <LongitudeDegrees>-5.09381691925227642059326171875</LongitudeDegrees>
            </Position>
            <AltitudeMeters>33.799999237060546875</AltitudeMeters>
            <DistanceMeters>NAN</DistanceMeters>
          </Trackpoint>
          <Trackpoint>
            <Time>2022-07-17T08:07:08.000Z</Time>
            <Position>
              <LatitudeDegrees>43.4677044488489627838134765625</LatitudeDegrees>
              <LongitudeDegrees>-5.09400869719684123992919921875</LongitudeDegrees>
            </Position>
            <AltitudeMeters>34.40000152587890625</AltitudeMeters>
            <DistanceMeters>NAN</DistanceMeters>
          </Trackpoint>
          <Trackpoint>
            <Time>2022-07-17T08:07:14.000Z</Time>
            <Position>
              <LatitudeDegrees>43.467721380293369293212890625</LatitudeDegrees>
              <LongitudeDegrees>-5.094132833182811737060546875</LongitudeDegrees>
            </Position>
            <AltitudeMeters>34.799999237060546875</AltitudeMeters>
            <DistanceMeters>NAN</DistanceMeters>
          </Trackpoint>
          <Trackpoint>
            <Time>2022-07-17T08:07:19.000Z</Time>
            <Position>
              <LatitudeDegrees>43.4677356295287609100341796875</LatitudeDegrees>
              <LongitudeDegrees>-5.0942396186292171478271484375</LongitudeDegrees>
            </Position>
            <AltitudeMeters>35.200000762939453125</AltitudeMeters>
            <DistanceMeters>NAN</DistanceMeters>
          </Trackpoint>
          <Trackpoint>
            <Time>2022-07-17T08:07:24.000Z</Time>
            <Position>
              <LatitudeDegrees>43.46775381825864315032958984375</LatitudeDegrees>
              <LongitudeDegrees>-5.09435738436877727508544921875</LongitudeDegrees>
            </Position>
            <AltitudeMeters>35.40000152587890625</AltitudeMeters>
            <DistanceMeters>NAN</DistanceMeters>
          </Trackpoint>
          <Trackpoint>
            <Time>2022-07-17T08:07:28.000Z</Time>
            <Position>
              <LatitudeDegrees>43.46776672638952732086181640625</LatitudeDegrees>
              <LongitudeDegrees>-5.09444656781852245330810546875</LongitudeDegrees>
            </Position>
            <AltitudeMeters>35.59999847412109375</AltitudeMeters>
            <DistanceMeters>NAN</DistanceMeters>
          </Trackpoint>
          <Trackpoint>
            <Time>2022-07-17T08:07:32.000Z</Time>
            <Position>
              <LatitudeDegrees>43.4677761979401111602783203125</LatitudeDegrees>
              <LongitudeDegrees>-5.09453306905925273895263671875</LongitudeDegrees>
            </Position>
            <AltitudeMeters>35.799999237060546875</AltitudeMeters>
            <DistanceMeters>NAN</DistanceMeters>
          </Trackpoint>
          <Trackpoint>
            <Time>2022-07-17T08:07:36.000Z</Time>
            <Position>
              <LatitudeDegrees>43.4677852503955364227294921875</LatitudeDegrees>
              <LongitudeDegrees>-5.09461957029998302459716796875</LongitudeDegrees>
            </Position>
            <AltitudeMeters>36.200000762939453125</AltitudeMeters>
            <DistanceMeters>NAN</DistanceMeters>
          </Trackpoint>
          <Trackpoint>
            <Time>2022-07-17T08:07:47.000Z</Time>
            <Position>
              <LatitudeDegrees>43.4678244777023792266845703125</LatitudeDegrees>
              <LongitudeDegrees>-5.09484185837209224700927734375</LongitudeDegrees>
            </Position>
            <AltitudeMeters>37</AltitudeMeters>
            <DistanceMeters>NAN</DistanceMeters>
          </Trackpoint>
          <Trackpoint>
            <Time>2022-07-17T08:07:57.000Z</Time>
            <Position>
              <LatitudeDegrees>43.4678616933524608612060546875</LatitudeDegrees>
              <LongitudeDegrees>-5.09506045840680599212646484375</LongitudeDegrees>
            </Position>
            <AltitudeMeters>37.799999237060546875</AltitudeMeters>
            <DistanceMeters>NAN</DistanceMeters>
          </Trackpoint>
          <Trackpoint>
            <Time>2022-07-17T08:07:59.000Z</Time>
            <Position>
              <LatitudeDegrees>43.467869572341442108154296875</LatitudeDegrees>
              <LongitudeDegrees>-5.09509197436273097991943359375</LongitudeDegrees>
            </Position>
            <AltitudeMeters>38</AltitudeMeters>
            <DistanceMeters>NAN</DistanceMeters>
          </Trackpoint>
          <Trackpoint>
            <Time>2022-07-17T08:08:04.000Z</Time>
            <Position>
              <LatitudeDegrees>43.4678833186626434326171875</LatitudeDegrees>
              <LongitudeDegrees>-5.09518367238342761993408203125</LongitudeDegrees>
            </Position>
            <AltitudeMeters>38.40000152587890625</AltitudeMeters>
            <DistanceMeters>NAN</DistanceMeters>
          </Trackpoint>
          <Trackpoint>
            <Time>2022-07-17T08:08:07.000Z</Time>
            <Position>
              <LatitudeDegrees>43.46789128147065639495849609375</LatitudeDegrees>
              <LongitudeDegrees>-5.09523890912532806396484375</LongitudeDegrees>
            </Position>
            <AltitudeMeters>38.799999237060546875</AltitudeMeters>
            <DistanceMeters>NAN</DistanceMeters>
          </Trackpoint>
          <Trackpoint>
            <Time>2022-07-17T08:08:11.000Z</Time>
            <Position>
              <LatitudeDegrees>43.46791039220988750457763671875</LatitudeDegrees>
              <LongitudeDegrees>-5.095290206372737884521484375</LongitudeDegrees>
            </Position>
            <AltitudeMeters>39</AltitudeMeters>
            <DistanceMeters>NAN</DistanceMeters>
          </Trackpoint>
          <Trackpoint>
            <Time>2022-07-17T08:08:15.000Z</Time>
            <Position>
              <LatitudeDegrees>43.4679143317043781280517578125</LatitudeDegrees>
              <LongitudeDegrees>-5.09536740370094776153564453125</LongitudeDegrees>
            </Position>
            <AltitudeMeters>39.59999847412109375</AltitudeMeters>
            <DistanceMeters>NAN</DistanceMeters>
          </Trackpoint>
          <Trackpoint>
            <Time>2022-07-17T08:08:18.000Z</Time>
            <Position>
              <LatitudeDegrees>43.4679193608462810516357421875</LatitudeDegrees>
              <LongitudeDegrees>-5.0954154320061206817626953125</LongitudeDegrees>
            </Position>
            <AltitudeMeters>39.59999847412109375</AltitudeMeters>
            <DistanceMeters>NAN</DistanceMeters>
          </Trackpoint>
          <Trackpoint>
            <Time>2022-07-17T08:08:23.000Z</Time>
            <Position>
              <LatitudeDegrees>43.4679396450519561767578125</LatitudeDegrees>
              <LongitudeDegrees>-5.09551073424518108367919921875</LongitudeDegrees>
            </Position>
            <AltitudeMeters>40.200000762939453125</AltitudeMeters>
            <DistanceMeters>NAN</DistanceMeters>
          </Trackpoint>
          <Trackpoint>
            <Time>2022-07-17T08:08:27.000Z</Time>
            <Position>
              <LatitudeDegrees>43.46796386875212192535400390625</LatitudeDegrees>
              <LongitudeDegrees>-5.0955855846405029296875</LongitudeDegrees>
            </Position>
            <AltitudeMeters>40.40000152587890625</AltitudeMeters>
            <DistanceMeters>NAN</DistanceMeters>
          </Trackpoint>
          <Trackpoint>
            <Time>2022-07-17T08:08:35.000Z</Time>
            <Position>
              <LatitudeDegrees>43.4679787047207355499267578125</LatitudeDegrees>
              <LongitudeDegrees>-5.0957275740802288055419921875</LongitudeDegrees>
            </Position>
            <AltitudeMeters>41.200000762939453125</AltitudeMeters>
            <DistanceMeters>NAN</DistanceMeters>
          </Trackpoint>
          <Trackpoint>
            <Time>2022-07-17T08:08:36.000Z</Time>
            <Position>
              <LatitudeDegrees>43.4679790399968624114990234375</LatitudeDegrees>
              <LongitudeDegrees>-5.09574291296303272247314453125</LongitudeDegrees>
            </Position>
            <AltitudeMeters>41.200000762939453125</AltitudeMeters>
            <DistanceMeters>NAN</DistanceMeters>
          </Trackpoint>
          <Trackpoint>
            <Time>2022-07-17T08:08:40.000Z</Time>
            <Position>
              <LatitudeDegrees>43.46798331476747989654541015625</LatitudeDegrees>
              <LongitudeDegrees>-5.09580376558005809783935546875</LongitudeDegrees>
            </Position>
            <AltitudeMeters>41.59999847412109375</AltitudeMeters>
            <DistanceMeters>NAN</DistanceMeters>
          </Trackpoint>
          <Trackpoint>
            <Time>2022-07-17T08:08:45.000Z</Time>
            <Position>
              <LatitudeDegrees>43.46800259314477443695068359375</LatitudeDegrees>
              <LongitudeDegrees>-5.0958895124495029449462890625</LongitudeDegrees>
            </Position>
            <AltitudeMeters>41.799999237060546875</AltitudeMeters>
            <DistanceMeters>NAN</DistanceMeters>
          </Trackpoint>
          <Trackpoint>
            <Time>2022-07-17T08:08:49.000Z</Time>
            <Position>
              <LatitudeDegrees>43.4680041857063770294189453125</LatitudeDegrees>
              <LongitudeDegrees>-5.0959579087793827056884765625</LongitudeDegrees>
            </Position>
            <AltitudeMeters>42.200000762939453125</AltitudeMeters>
            <DistanceMeters>NAN</DistanceMeters>
          </Trackpoint>
          <Trackpoint>
            <Time>2022-07-17T08:08:52.000Z</Time>
            <Position>
              <LatitudeDegrees>43.46802069805562496185302734375</LatitudeDegrees>
              <LongitudeDegrees>-5.0959968008100986480712890625</LongitudeDegrees>
            </Position>
            <AltitudeMeters>42.40000152587890625</AltitudeMeters>
            <DistanceMeters>NAN</DistanceMeters>
          </Trackpoint>
          <Trackpoint>
            <Time>2022-07-17T08:09:00.000Z</Time>
            <Position>
              <LatitudeDegrees>43.46800158731639385223388671875</LatitudeDegrees>
              <LongitudeDegrees>-5.09614172391593456268310546875</LongitudeDegrees>
            </Position>
            <AltitudeMeters>43</AltitudeMeters>
            <DistanceMeters>NAN</DistanceMeters>
          </Trackpoint>
          <Trackpoint>
            <Time>2022-07-17T08:09:02.000Z</Time>
            <Position>
              <LatitudeDegrees>43.46799002029001712799072265625</LatitudeDegrees>
              <LongitudeDegrees>-5.09616938419640064239501953125</LongitudeDegrees>
            </Position>
            <AltitudeMeters>43.200000762939453125</AltitudeMeters>
            <DistanceMeters>NAN</DistanceMeters>
          </Trackpoint>
          <Trackpoint>
            <Time>2022-07-17T08:09:08.000Z</Time>
            <Position>
              <LatitudeDegrees>43.46797644160687923431396484375</LatitudeDegrees>
              <LongitudeDegrees>-5.096245072782039642333984375</LongitudeDegrees>
            </Position>
            <AltitudeMeters>43.799999237060546875</AltitudeMeters>
            <DistanceMeters>NAN</DistanceMeters>
          </Trackpoint>
          <Trackpoint>
            <Time>2022-07-17T08:09:14.000Z</Time>
            <Position>
              <LatitudeDegrees>43.4679666347801685333251953125</LatitudeDegrees>
              <LongitudeDegrees>-5.09634842164814472198486328125</LongitudeDegrees>
            </Position>
            <AltitudeMeters>44.40000152587890625</AltitudeMeters>
            <DistanceMeters>NAN</DistanceMeters>
          </Trackpoint>
          <Trackpoint>
            <Time>2022-07-17T08:09:17.000Z</Time>
            <Position>
              <LatitudeDegrees>43.46795230172574520111083984375</LatitudeDegrees>
              <LongitudeDegrees>-5.096402652561664581298828125</LongitudeDegrees>
            </Position>
            <AltitudeMeters>44.59999847412109375</AltitudeMeters>
            <DistanceMeters>NAN</DistanceMeters>
          </Trackpoint>
          <Trackpoint>
            <Time>2022-07-17T08:09:24.000Z</Time>
            <Position>
              <LatitudeDegrees>43.46793361008167266845703125</LatitudeDegrees>
              <LongitudeDegrees>-5.09655796922743320465087890625</LongitudeDegrees>
            </Position>
            <AltitudeMeters>45.200000762939453125</AltitudeMeters>
            <DistanceMeters>NAN</DistanceMeters>
          </Trackpoint>
          <Trackpoint>
            <Time>2022-07-17T08:09:26.000Z</Time>
            <Position>
              <LatitudeDegrees>43.46792631782591342926025390625</LatitudeDegrees>
              <LongitudeDegrees>-5.0966043211519718170166015625</LongitudeDegrees>
            </Position>
            <AltitudeMeters>45.40000152587890625</AltitudeMeters>
            <DistanceMeters>NAN</DistanceMeters>
          </Trackpoint>
          <Trackpoint>
            <Time>2022-07-17T08:09:34.000Z</Time>
            <Position>
              <LatitudeDegrees>43.4679150022566318511962890625</LatitudeDegrees>
              <LongitudeDegrees>-5.0967706181108951568603515625</LongitudeDegrees>
            </Position>
            <AltitudeMeters>46</AltitudeMeters>
            <DistanceMeters>NAN</DistanceMeters>
          </Trackpoint>
          <Trackpoint>
            <Time>2022-07-17T08:09:43.000Z</Time>
            <Position>
              <LatitudeDegrees>43.46791357733309268951416015625</LatitudeDegrees>
              <LongitudeDegrees>-5.09692811407148838043212890625</LongitudeDegrees>
            </Position>
            <AltitudeMeters>46.59999847412109375</AltitudeMeters>
            <DistanceMeters>NAN</DistanceMeters>
          </Trackpoint>
          <Trackpoint>
            <Time>2022-07-17T08:09:51.000Z</Time>
            <Position>
              <LatitudeDegrees>43.4679025970399379730224609375</LatitudeDegrees>
              <LongitudeDegrees>-5.0970901362597942352294921875</LongitudeDegrees>
            </Position>
            <AltitudeMeters>47.200000762939453125</AltitudeMeters>
            <DistanceMeters>NAN</DistanceMeters>
          </Trackpoint>
          <Trackpoint>
            <Time>2022-07-17T08:09:59.000Z</Time>
            <Position>
              <LatitudeDegrees>43.46788424067199230194091796875</LatitudeDegrees>
              <LongitudeDegrees>-5.09725919924676418304443359375</LongitudeDegrees>
            </Position>
            <AltitudeMeters>47.59999847412109375</AltitudeMeters>
            <DistanceMeters>NAN</DistanceMeters>
          </Trackpoint>
          <Trackpoint>
            <Time>2022-07-17T08:10:07.000Z</Time>
            <Position>
              <LatitudeDegrees>43.46787351183593273162841796875</LatitudeDegrees>
              <LongitudeDegrees>-5.0974438525736331939697265625</LongitudeDegrees>
            </Position>
            <AltitudeMeters>48</AltitudeMeters>
            <DistanceMeters>NAN</DistanceMeters>
          </Trackpoint>
          <Trackpoint>
            <Time>2022-07-17T08:10:15.000Z</Time>
            <Position>
              <LatitudeDegrees>43.46786077134311199188232421875</LatitudeDegrees>
              <LongitudeDegrees>-5.0976389832794666290283203125</LongitudeDegrees>
            </Position>
            <AltitudeMeters>48.40000152587890625</AltitudeMeters>
            <DistanceMeters>NAN</DistanceMeters>
          </Trackpoint>
          <Trackpoint>
            <Time>2022-07-17T08:10:17.000Z</Time>
            <Position>
              <LatitudeDegrees>43.46785574220120906829833984375</LatitudeDegrees>
              <LongitudeDegrees>-5.0976822338998317718505859375</LongitudeDegrees>
            </Position>
            <AltitudeMeters>48.59999847412109375</AltitudeMeters>
            <DistanceMeters>NAN</DistanceMeters>
          </Trackpoint>
          <Trackpoint>
            <Time>2022-07-17T08:10:24.000Z</Time>
            <Position>
              <LatitudeDegrees>43.46786060370504856109619140625</LatitudeDegrees>
              <LongitudeDegrees>-5.09786739014089107513427734375</LongitudeDegrees>
            </Position>
            <AltitudeMeters>48.799999237060546875</AltitudeMeters>
            <DistanceMeters>NAN</DistanceMeters>
          </Trackpoint>
          <Trackpoint>
            <Time>2022-07-17T08:10:30.000Z</Time>
            <Position>
              <LatitudeDegrees>43.4678881801664829254150390625</LatitudeDegrees>
              <LongitudeDegrees>-5.09803603403270244598388671875</LongitudeDegrees>
            </Position>
            <AltitudeMeters>49.200000762939453125</AltitudeMeters>
            <DistanceMeters>NAN</DistanceMeters>
          </Trackpoint>
          <Trackpoint>
            <Time>2022-07-17T08:10:37.000Z</Time>
            <Position>
              <LatitudeDegrees>43.46788792870938777923583984375</LatitudeDegrees>
              <LongitudeDegrees>-5.09824491105973720550537109375</LongitudeDegrees>
            </Position>
            <AltitudeMeters>49.40000152587890625</AltitudeMeters>
            <DistanceMeters>NAN</DistanceMeters>
          </Trackpoint>
          <Trackpoint>
            <Time>2022-07-17T08:10:39.000Z</Time>
            <Position>
              <LatitudeDegrees>43.4678895212709903717041015625</LatitudeDegrees>
              <LongitudeDegrees>-5.09830207563936710357666015625</LongitudeDegrees>
            </Position>
            <AltitudeMeters>49.59999847412109375</AltitudeMeters>
            <DistanceMeters>NAN</DistanceMeters>
          </Trackpoint>
          <Trackpoint>
            <Time>2022-07-17T08:10:41.000Z</Time>
            <Position>
              <LatitudeDegrees>43.467891700565814971923828125</LatitudeDegrees>
              <LongitudeDegrees>-5.09835035540163516998291015625</LongitudeDegrees>
            </Position>
            <AltitudeMeters>49.59999847412109375</AltitudeMeters>
            <DistanceMeters>NAN</DistanceMeters>
          </Trackpoint>
          <Trackpoint>
            <Time>2022-07-17T08:10:47.000Z</Time>
            <Position>
              <LatitudeDegrees>43.46787384711205959320068359375</LatitudeDegrees>
              <LongitudeDegrees>-5.0985442288219928741455078125</LongitudeDegrees>
            </Position>
            <AltitudeMeters>49.799999237060546875</AltitudeMeters>
            <DistanceMeters>NAN</DistanceMeters>
          </Trackpoint>
          <Trackpoint>
            <Time>2022-07-17T08:10:53.000Z</Time>
            <Position>
              <LatitudeDegrees>43.46785272471606731414794921875</LatitudeDegrees>
              <LongitudeDegrees>-5.09883415885269641876220703125</LongitudeDegrees>
            </Position>
            <AltitudeMeters>49.59999847412109375</AltitudeMeters>
            <DistanceMeters>NAN</DistanceMeters>
          </Trackpoint>
          <Trackpoint>
            <Time>2022-07-17T08:11:00.000Z</Time>
            <Position>
              <LatitudeDegrees>43.46778432838618755340576171875</LatitudeDegrees>
              <LongitudeDegrees>-5.099326930940151214599609375</LongitudeDegrees>
            </Position>
            <AltitudeMeters>48.40000152587890625</AltitudeMeters>
            <DistanceMeters>NAN</DistanceMeters>
          </Trackpoint>
          <Trackpoint>
            <Time>2022-07-17T08:11:06.000Z</Time>
            <Position>
              <LatitudeDegrees>43.46769715659320354461669921875</LatitudeDegrees>
              <LongitudeDegrees>-5.0997269153594970703125</LongitudeDegrees>
            </Position>
            <AltitudeMeters>48</AltitudeMeters>
            <DistanceMeters>NAN</DistanceMeters>
          </Trackpoint>
          <Trackpoint>
            <Time>2022-07-17T08:11:12.000Z</Time>
            <Position>
              <LatitudeDegrees>43.46766027621924877166748046875</LatitudeDegrees>
              <LongitudeDegrees>-5.10002539493143558502197265625</LongitudeDegrees>
            </Position>
            <AltitudeMeters>48</AltitudeMeters>
            <DistanceMeters>NAN</DistanceMeters>
          </Trackpoint>
          <Trackpoint>
            <Time>2022-07-17T08:11:19.000Z</Time>
            <Position>
              <LatitudeDegrees>43.46758383326232433319091796875</LatitudeDegrees>
              <LongitudeDegrees>-5.100307278335094451904296875</LongitudeDegrees>
            </Position>
            <AltitudeMeters>48.200000762939453125</AltitudeMeters>
            <DistanceMeters>NAN</DistanceMeters>
          </Trackpoint>
          <Trackpoint>
            <Time>2022-07-17T08:11:21.000Z</Time>
            <Position>
              <LatitudeDegrees>43.46755919046700000762939453125</LatitudeDegrees>
              <LongitudeDegrees>-5.1004120521247386932373046875</LongitudeDegrees>
            </Position>
            <AltitudeMeters>48</AltitudeMeters>
            <DistanceMeters>NAN</DistanceMeters>
          </Trackpoint>
          <Trackpoint>
            <Time>2022-07-17T08:11:24.000Z</Time>
            <Position>
              <LatitudeDegrees>43.46753303892910480499267578125</LatitudeDegrees>
              <LongitudeDegrees>-5.10058094747364521026611328125</LongitudeDegrees>
            </Position>
            <AltitudeMeters>47.799999237060546875</AltitudeMeters>
            <DistanceMeters>NAN</DistanceMeters>
          </Trackpoint>
          <Trackpoint>
            <Time>2022-07-17T08:11:26.000Z</Time>
            <Position>
              <LatitudeDegrees>43.46751057542860507965087890625</LatitudeDegrees>
              <LongitudeDegrees>-5.10070382617413997650146484375</LongitudeDegrees>
            </Position>
            <AltitudeMeters>47.799999237060546875</AltitudeMeters>
            <DistanceMeters>NAN</DistanceMeters>
          </Trackpoint>
          <Trackpoint>
            <Time>2022-07-17T08:11:29.000Z</Time>
            <Position>
              <LatitudeDegrees>43.46748207695782184600830078125</LatitudeDegrees>
              <LongitudeDegrees>-5.1009062491357326507568359375</LongitudeDegrees>
            </Position>
            <AltitudeMeters>47.59999847412109375</AltitudeMeters>
            <DistanceMeters>NAN</DistanceMeters>
          </Trackpoint>
          <Trackpoint>
            <Time>2022-07-17T08:11:31.000Z</Time>
            <Position>
              <LatitudeDegrees>43.4674863517284393310546875</LatitudeDegrees>
              <LongitudeDegrees>-5.10105217806994915008544921875</LongitudeDegrees>
            </Position>
            <AltitudeMeters>47.40000152587890625</AltitudeMeters>
            <DistanceMeters>NAN</DistanceMeters>
          </Trackpoint>
          <Trackpoint>
            <Time>2022-07-17T08:11:32.000Z</Time>
            <Position>
              <LatitudeDegrees>43.4675026126205921173095703125</LatitudeDegrees>
              <LongitudeDegrees>-5.1011278666555881500244140625</LongitudeDegrees>
            </Position>
            <AltitudeMeters>47.200000762939453125</AltitudeMeters>
            <DistanceMeters>NAN</DistanceMeters>
          </Trackpoint>
          <Trackpoint>
            <Time>2022-07-17T08:11:34.000Z</Time>
            <Position>
              <LatitudeDegrees>43.46753052435815334320068359375</LatitudeDegrees>
              <LongitudeDegrees>-5.101279579102993011474609375</LongitudeDegrees>
            </Position>
            <AltitudeMeters>46.799999237060546875</AltitudeMeters>
            <DistanceMeters>NAN</DistanceMeters>
          </Trackpoint>
          <Trackpoint>
            <Time>2022-07-17T08:11:36.000Z</Time>
            <Position>
              <LatitudeDegrees>43.4675770439207553863525390625</LatitudeDegrees>
              <LongitudeDegrees>-5.10143472813069820404052734375</LongitudeDegrees>
            </Position>
            <AltitudeMeters>45.799999237060546875</AltitudeMeters>
            <DistanceMeters>NAN</DistanceMeters>
          </Trackpoint>
          <Trackpoint>
            <Time>2022-07-17T08:11:38.000Z</Time>
            <Position>
              <LatitudeDegrees>43.467611409723758697509765625</LatitudeDegrees>
              <LongitudeDegrees>-5.10154520161449909210205078125</LongitudeDegrees>
            </Position>
            <AltitudeMeters>44.59999847412109375</AltitudeMeters>
            <DistanceMeters>NAN</DistanceMeters>
          </Trackpoint>
          <Trackpoint>
            <Time>2022-07-17T08:11:39.000Z</Time>
            <Position>
              <LatitudeDegrees>43.46761367283761501312255859375</LatitudeDegrees>
              <LongitudeDegrees>-5.10157235898077487945556640625</LongitudeDegrees>
            </Position>
            <AltitudeMeters>44</AltitudeMeters>
            <DistanceMeters>NAN</DistanceMeters>
          </Trackpoint>
          <Trackpoint>
            <Time>2022-07-17T08:11:40.000Z</Time>
            <Position>
              <LatitudeDegrees>43.46761568449437618255615234375</LatitudeDegrees>
              <LongitudeDegrees>-5.101582668721675872802734375</LongitudeDegrees>
            </Position>
            <AltitudeMeters>43.59999847412109375</AltitudeMeters>
            <DistanceMeters>NAN</DistanceMeters>
          </Trackpoint>
          <Trackpoint>
            <Time>2022-07-17T08:11:41.000Z</Time>
            <Position>
              <LatitudeDegrees>43.46761199645698070526123046875</LatitudeDegrees>
              <LongitudeDegrees>-5.1015858538448810577392578125</LongitudeDegrees>
            </Position>
            <AltitudeMeters>43</AltitudeMeters>
            <DistanceMeters>NAN</DistanceMeters>
          </Trackpoint>
          <Trackpoint>
            <Time>2022-07-17T08:11:44.000Z</Time>
            <Position>
              <LatitudeDegrees>43.46759808249771595001220703125</LatitudeDegrees>
              <LongitudeDegrees>-5.101565234363079071044921875</LongitudeDegrees>
            </Position>
            <AltitudeMeters>42.40000152587890625</AltitudeMeters>
            <DistanceMeters>NAN</DistanceMeters>
          </Trackpoint>
          <Trackpoint>
            <Time>2022-07-17T08:11:45.000Z</Time>
            <Position>
              <LatitudeDegrees>43.4675988368690013885498046875</LatitudeDegrees>
              <LongitudeDegrees>-5.10154469870030879974365234375</LongitudeDegrees>
            </Position>
            <AltitudeMeters>42.40000152587890625</AltitudeMeters>
            <DistanceMeters>NAN</DistanceMeters>
          </Trackpoint>
          <Trackpoint>
            <Time>2022-07-17T08:11:49.000Z</Time>
            <Position>
              <LatitudeDegrees>43.4675800614058971405029296875</LatitudeDegrees>
              <LongitudeDegrees>-5.1014433614909648895263671875</LongitudeDegrees>
            </Position>
            <AltitudeMeters>42.799999237060546875</AltitudeMeters>
            <DistanceMeters>NAN</DistanceMeters>
          </Trackpoint>
          <Trackpoint>
            <Time>2022-07-17T08:11:51.000Z</Time>
            <Position>
              <LatitudeDegrees>43.46757478080689907073974609375</LatitudeDegrees>
              <LongitudeDegrees>-5.101419724524021148681640625</LongitudeDegrees>
            </Position>
            <AltitudeMeters>43.200000762939453125</AltitudeMeters>
            <DistanceMeters>NAN</DistanceMeters>
          </Trackpoint>
          <Trackpoint>
            <Time>2022-07-17T08:11:52.000Z</Time>
            <Position>
              <LatitudeDegrees>43.4675753675401210784912109375</LatitudeDegrees>
              <LongitudeDegrees>-5.1014175452291965484619140625</LongitudeDegrees>
            </Position>
            <AltitudeMeters>43.200000762939453125</AltitudeMeters>
            <DistanceMeters>NAN</DistanceMeters>
          </Trackpoint>
          <Trackpoint>
            <Time>2022-07-17T08:11:53.000Z</Time>
            <Position>
              <LatitudeDegrees>43.46757746301591396331787109375</LatitudeDegrees>
              <LongitudeDegrees>-5.1014148630201816558837890625</LongitudeDegrees>
            </Position>
            <AltitudeMeters>43.40000152587890625</AltitudeMeters>
            <DistanceMeters>NAN</DistanceMeters>
          </Trackpoint>
          <Trackpoint>
            <Time>2022-07-17T08:11:54.000Z</Time>
            <Position>
              <LatitudeDegrees>43.46757746301591396331787109375</LatitudeDegrees>
              <LongitudeDegrees>-5.1014148630201816558837890625</LongitudeDegrees>
            </Position>
            <AltitudeMeters>43.40000152587890625</AltitudeMeters>
            <DistanceMeters>NAN</DistanceMeters>
          </Trackpoint>
          <Trackpoint>
            <Time>2022-07-17T08:21:17.000Z</Time>
            <Position>
              <LatitudeDegrees>43.46758131869137287139892578125</LatitudeDegrees>
              <LongitudeDegrees>-5.101473368704319000244140625</LongitudeDegrees>
            </Position>
            <AltitudeMeters>43</AltitudeMeters>
            <DistanceMeters>NAN</DistanceMeters>
          </Trackpoint>
          <Trackpoint>
            <Time>2022-07-17T08:21:18.000Z</Time>
            <Position>
              <LatitudeDegrees>43.46759204752743244171142578125</LatitudeDegrees>
              <LongitudeDegrees>-5.10152466595172882080078125</LongitudeDegrees>
            </Position>
            <AltitudeMeters>43</AltitudeMeters>
            <DistanceMeters>NAN</DistanceMeters>
          </Trackpoint>
          <Trackpoint>
            <Time>2022-07-17T08:21:19.000Z</Time>
            <Position>
              <LatitudeDegrees>43.4676016867160797119140625</LatitudeDegrees>
              <LongitudeDegrees>-5.10156230069696903228759765625</LongitudeDegrees>
            </Position>
            <AltitudeMeters>43</AltitudeMeters>
            <DistanceMeters>NAN</DistanceMeters>
          </Trackpoint>
          <Trackpoint>
            <Time>2022-07-17T08:21:23.000Z</Time>
            <Position>
              <LatitudeDegrees>43.4676544927060604095458984375</LatitudeDegrees>
              <LongitudeDegrees>-5.10178458876907825469970703125</LongitudeDegrees>
            </Position>
            <AltitudeMeters>42.40000152587890625</AltitudeMeters>
            <DistanceMeters>NAN</DistanceMeters>
          </Trackpoint>
          <Trackpoint>
            <Time>2022-07-17T08:21:25.000Z</Time>
            <Position>
              <LatitudeDegrees>43.46767804585397243499755859375</LatitudeDegrees>
              <LongitudeDegrees>-5.10189841501414775848388671875</LongitudeDegrees>
            </Position>
            <AltitudeMeters>42</AltitudeMeters>
            <DistanceMeters>NAN</DistanceMeters>
          </Trackpoint>
          <Trackpoint>
            <Time>2022-07-17T08:21:26.000Z</Time>
            <Position>
              <LatitudeDegrees>43.46769128926098346710205078125</LatitudeDegrees>
              <LongitudeDegrees>-5.10195256210863590240478515625</LongitudeDegrees>
            </Position>
            <AltitudeMeters>41.59999847412109375</AltitudeMeters>
            <DistanceMeters>NAN</DistanceMeters>
          </Trackpoint>
          <Trackpoint>
            <Time>2022-07-17T08:21:30.000Z</Time>
            <Position>
              <LatitudeDegrees>43.467715680599212646484375</LatitudeDegrees>
              <LongitudeDegrees>-5.10215087793767452239990234375</LongitudeDegrees>
            </Position>
            <AltitudeMeters>40.799999237060546875</AltitudeMeters>
            <DistanceMeters>NAN</DistanceMeters>
          </Trackpoint>
          <Trackpoint>
            <Time>2022-07-17T08:21:32.000Z</Time>
            <Position>
              <LatitudeDegrees>43.4677208773791790008544921875</LatitudeDegrees>
              <LongitudeDegrees>-5.10224157012999057769775390625</LongitudeDegrees>
            </Position>
            <AltitudeMeters>40.59999847412109375</AltitudeMeters>
            <DistanceMeters>NAN</DistanceMeters>
          </Trackpoint>
          <Trackpoint>
            <Time>2022-07-17T08:21:37.000Z</Time>
            <Position>
              <LatitudeDegrees>43.46776991151273250579833984375</LatitudeDegrees>
              <LongitudeDegrees>-5.10251699946820735931396484375</LongitudeDegrees>
            </Position>
            <AltitudeMeters>40.40000152587890625</AltitudeMeters>
            <DistanceMeters>NAN</DistanceMeters>
          </Trackpoint>
          <Trackpoint>
            <Time>2022-07-17T08:21:38.000Z</Time>
            <Position>
              <LatitudeDegrees>43.4677822329103946685791015625</LatitudeDegrees>
              <LongitudeDegrees>-5.10257986374199390411376953125</LongitudeDegrees>
            </Position>
            <AltitudeMeters>40.200000762939453125</AltitudeMeters>
            <DistanceMeters>NAN</DistanceMeters>
          </Trackpoint>
          <Trackpoint>
            <Time>2022-07-17T08:21:40.000Z</Time>
            <Position>
              <LatitudeDegrees>43.46782095730304718017578125</LatitudeDegrees>
              <LongitudeDegrees>-5.10272520594298839569091796875</LongitudeDegrees>
            </Position>
            <AltitudeMeters>40.200000762939453125</AltitudeMeters>
            <DistanceMeters>NAN</DistanceMeters>
          </Trackpoint>
          <Trackpoint>
            <Time>2022-07-17T08:21:45.000Z</Time>
            <Position>
              <LatitudeDegrees>43.46793352626264095306396484375</LatitudeDegrees>
              <LongitudeDegrees>-5.103065259754657745361328125</LongitudeDegrees>
            </Position>
            <AltitudeMeters>39.799999237060546875</AltitudeMeters>
            <DistanceMeters>NAN</DistanceMeters>
          </Trackpoint>
          <Trackpoint>
            <Time>2022-07-17T08:21:47.000Z</Time>
            <Position>
              <LatitudeDegrees>43.4679852426052093505859375</LatitudeDegrees>
              <LongitudeDegrees>-5.10317665524780750274658203125</LongitudeDegrees>
            </Position>
            <AltitudeMeters>39.59999847412109375</AltitudeMeters>
            <DistanceMeters>NAN</DistanceMeters>
          </Trackpoint>
          <Trackpoint>
            <Time>2022-07-17T08:21:48.000Z</Time>
            <Position>
              <LatitudeDegrees>43.467996977269649505615234375</LatitudeDegrees>
              <LongitudeDegrees>-5.10323591530323028564453125</LongitudeDegrees>
            </Position>
            <AltitudeMeters>39.59999847412109375</AltitudeMeters>
            <DistanceMeters>NAN</DistanceMeters>
          </Trackpoint>
          <Trackpoint>
            <Time>2022-07-17T08:21:49.000Z</Time>
            <Position>
              <LatitudeDegrees>43.4680149145424365997314453125</LatitudeDegrees>
              <LongitudeDegrees>-5.10327975265681743621826171875</LongitudeDegrees>
            </Position>
            <AltitudeMeters>39.59999847412109375</AltitudeMeters>
            <DistanceMeters>NAN</DistanceMeters>
          </Trackpoint>
          <Trackpoint>
            <Time>2022-07-17T08:21:50.000Z</Time>
            <Position>
              <LatitudeDegrees>43.46802706830203533172607421875</LatitudeDegrees>
              <LongitudeDegrees>-5.10333356447517871856689453125</LongitudeDegrees>
            </Position>
            <AltitudeMeters>39.59999847412109375</AltitudeMeters>
            <DistanceMeters>NAN</DistanceMeters>
          </Trackpoint>
          <Trackpoint>
            <Time>2022-07-17T08:21:53.000Z</Time>
            <Position>
              <LatitudeDegrees>43.4680776111781597137451171875</LatitudeDegrees>
              <LongitudeDegrees>-5.10347287170588970184326171875</LongitudeDegrees>
            </Position>
            <AltitudeMeters>39.59999847412109375</AltitudeMeters>
            <DistanceMeters>NAN</DistanceMeters>
          </Trackpoint>
          <Trackpoint>
            <Time>2022-07-17T08:21:55.000Z</Time>
            <Position>
              <LatitudeDegrees>43.46809320151805877685546875</LatitudeDegrees>
              <LongitudeDegrees>-5.1035700179636478424072265625</LongitudeDegrees>
            </Position>
            <AltitudeMeters>39.799999237060546875</AltitudeMeters>
            <DistanceMeters>NAN</DistanceMeters>
          </Trackpoint>
          <Trackpoint>
            <Time>2022-07-17T08:22:02.000Z</Time>
            <Position>
              <LatitudeDegrees>43.4681649506092071533203125</LatitudeDegrees>
              <LongitudeDegrees>-5.10388408787548542022705078125</LongitudeDegrees>
            </Position>
            <AltitudeMeters>40.200000762939453125</AltitudeMeters>
            <DistanceMeters>NAN</DistanceMeters>
          </Trackpoint>
          <Trackpoint>
            <Time>2022-07-17T08:22:06.000Z</Time>
            <Position>
              <LatitudeDegrees>43.46823058091104030609130859375</LatitudeDegrees>
              <LongitudeDegrees>-5.10399824939668178558349609375</LongitudeDegrees>
            </Position>
            <AltitudeMeters>40.59999847412109375</AltitudeMeters>
            <DistanceMeters>NAN</DistanceMeters>
          </Trackpoint>
          <Trackpoint>
            <Time>2022-07-17T08:22:07.000Z</Time>
            <Position>
              <LatitudeDegrees>43.4682442434132099151611328125</LatitudeDegrees>
              <LongitudeDegrees>-5.10401098988950252532958984375</LongitudeDegrees>
            </Position>
            <AltitudeMeters>40.799999237060546875</AltitudeMeters>
            <DistanceMeters>NAN</DistanceMeters>
          </Trackpoint>
          <Trackpoint>
            <Time>2022-07-17T08:22:08.000Z</Time>
            <Position>
              <LatitudeDegrees>43.46825740300118923187255859375</LatitudeDegrees>
              <LongitudeDegrees>-5.10403093881905078887939453125</LongitudeDegrees>
            </Position>
            <AltitudeMeters>40.799999237060546875</AltitudeMeters>
            <DistanceMeters>NAN</DistanceMeters>
          </Trackpoint>
          <Trackpoint>
            <Time>2022-07-17T08:22:14.000Z</Time>
            <Position>
              <LatitudeDegrees>43.46831825561821460723876953125</LatitudeDegrees>
              <LongitudeDegrees>-5.104148201644420623779296875</LongitudeDegrees>
            </Position>
            <AltitudeMeters>41.40000152587890625</AltitudeMeters>
            <DistanceMeters>NAN</DistanceMeters>
          </Trackpoint>
          <Trackpoint>
            <Time>2022-07-17T08:22:15.000Z</Time>
            <Position>
              <LatitudeDegrees>43.46832730807363986968994140625</LatitudeDegrees>
              <LongitudeDegrees>-5.10416395962238311767578125</LongitudeDegrees>
            </Position>
            <AltitudeMeters>41.40000152587890625</AltitudeMeters>
            <DistanceMeters>NAN</DistanceMeters>
          </Trackpoint>
          <Trackpoint>
            <Time>2022-07-17T08:22:17.000Z</Time>
            <Position>
              <LatitudeDegrees>43.46834599971771240234375</LatitudeDegrees>
              <LongitudeDegrees>-5.10419254191219806671142578125</LongitudeDegrees>
            </Position>
            <AltitudeMeters>41.799999237060546875</AltitudeMeters>
            <DistanceMeters>NAN</DistanceMeters>
          </Trackpoint>
          <Trackpoint>
            <Time>2022-07-17T08:22:19.000Z</Time>
            <Position>
              <LatitudeDegrees>43.46835597418248653411865234375</LatitudeDegrees>
              <LongitudeDegrees>-5.10422858409583568572998046875</LongitudeDegrees>
            </Position>
            <AltitudeMeters>42</AltitudeMeters>
            <DistanceMeters>NAN</DistanceMeters>
          </Trackpoint>
          <Trackpoint>
            <Time>2022-07-17T08:22:22.000Z</Time>
            <Position>
              <LatitudeDegrees>43.46838690340518951416015625</LatitudeDegrees>
              <LongitudeDegrees>-5.104268901050090789794921875</LongitudeDegrees>
            </Position>
            <AltitudeMeters>42.59999847412109375</AltitudeMeters>
            <DistanceMeters>NAN</DistanceMeters>
          </Trackpoint>
          <Trackpoint>
            <Time>2022-07-17T08:22:24.000Z</Time>
            <Position>
              <LatitudeDegrees>43.4684189222753047943115234375</LatitudeDegrees>
              <LongitudeDegrees>-5.1042774505913257598876953125</LongitudeDegrees>
            </Position>
            <AltitudeMeters>42.799999237060546875</AltitudeMeters>
            <DistanceMeters>NAN</DistanceMeters>
          </Trackpoint>
          <Trackpoint>
            <Time>2022-07-17T08:22:25.000Z</Time>
            <Position>
              <LatitudeDegrees>43.468428142368793487548828125</LatitudeDegrees>
              <LongitudeDegrees>-5.1042848266661167144775390625</LongitudeDegrees>
            </Position>
            <AltitudeMeters>42.799999237060546875</AltitudeMeters>
            <DistanceMeters>NAN</DistanceMeters>
          </Trackpoint>
          <Trackpoint>
            <Time>2022-07-17T08:22:29.000Z</Time>
            <Position>
              <LatitudeDegrees>43.468445576727390289306640625</LatitudeDegrees>
              <LongitudeDegrees>-5.10434190742671489715576171875</LongitudeDegrees>
            </Position>
            <AltitudeMeters>43.200000762939453125</AltitudeMeters>
            <DistanceMeters>NAN</DistanceMeters>
          </Trackpoint>
          <Trackpoint>
            <Time>2022-07-17T08:22:30.000Z</Time>
            <Position>
              <LatitudeDegrees>43.468448258936405181884765625</LatitudeDegrees>
              <LongitudeDegrees>-5.10435431264340877532958984375</LongitudeDegrees>
            </Position>
            <AltitudeMeters>43.40000152587890625</AltitudeMeters>
            <DistanceMeters>NAN</DistanceMeters>
          </Trackpoint>
          <Trackpoint>
            <Time>2022-07-17T08:22:31.000Z</Time>
            <Position>
              <LatitudeDegrees>43.468455635011196136474609375</LatitudeDegrees>
              <LongitudeDegrees>-5.10436655022203922271728515625</LongitudeDegrees>
            </Position>
            <AltitudeMeters>43.59999847412109375</AltitudeMeters>
            <DistanceMeters>NAN</DistanceMeters>
          </Trackpoint>
          <Trackpoint>
            <Time>2022-07-17T08:22:34.000Z</Time>
            <Position>
              <LatitudeDegrees>43.46846963278949260711669921875</LatitudeDegrees>
              <LongitudeDegrees>-5.10439773090183734893798828125</LongitudeDegrees>
            </Position>
            <AltitudeMeters>44</AltitudeMeters>
            <DistanceMeters>NAN</DistanceMeters>
          </Trackpoint>
          <Trackpoint>
            <Time>2022-07-17T08:22:35.000Z</Time>
            <Position>
              <LatitudeDegrees>43.4684732370078563690185546875</LatitudeDegrees>
              <LongitudeDegrees>-5.10441097430884838104248046875</LongitudeDegrees>
            </Position>
            <AltitudeMeters>44</AltitudeMeters>
            <DistanceMeters>NAN</DistanceMeters>
          </Trackpoint>
          <Trackpoint>
            <Time>2022-07-17T08:22:40.000Z</Time>
            <Position>
              <LatitudeDegrees>43.46849863417446613311767578125</LatitudeDegrees>
              <LongitudeDegrees>-5.104488171637058258056640625</LongitudeDegrees>
            </Position>
            <AltitudeMeters>44.799999237060546875</AltitudeMeters>
            <DistanceMeters>NAN</DistanceMeters>
          </Trackpoint>
          <Trackpoint>
            <Time>2022-07-17T08:22:43.000Z</Time>
            <Position>
              <LatitudeDegrees>43.468522019684314727783203125</LatitudeDegrees>
              <LongitudeDegrees>-5.1045480184257030487060546875</LongitudeDegrees>
            </Position>
            <AltitudeMeters>45</AltitudeMeters>
            <DistanceMeters>NAN</DistanceMeters>
          </Trackpoint>
          <Trackpoint>
            <Time>2022-07-17T08:22:45.000Z</Time>
            <Position>
              <LatitudeDegrees>43.46853367052972316741943359375</LatitudeDegrees>
              <LongitudeDegrees>-5.10461297817528247833251953125</LongitudeDegrees>
            </Position>
            <AltitudeMeters>45.200000762939453125</AltitudeMeters>
            <DistanceMeters>NAN</DistanceMeters>
          </Trackpoint>
          <Trackpoint>
            <Time>2022-07-17T08:22:47.000Z</Time>
            <Position>
              <LatitudeDegrees>43.46853266470134258270263671875</LatitudeDegrees>
              <LongitudeDegrees>-5.10467181913554668426513671875</LongitudeDegrees>
            </Position>
            <AltitudeMeters>45.40000152587890625</AltitudeMeters>
            <DistanceMeters>NAN</DistanceMeters>
          </Trackpoint>
          <Trackpoint>
            <Time>2022-07-17T08:22:48.000Z</Time>
            <Position>
              <LatitudeDegrees>43.468534089624881744384765625</LatitudeDegrees>
              <LongitudeDegrees>-5.104697048664093017578125</LongitudeDegrees>
            </Position>
            <AltitudeMeters>45.59999847412109375</AltitudeMeters>
            <DistanceMeters>NAN</DistanceMeters>
          </Trackpoint>
          <Trackpoint>
            <Time>2022-07-17T08:22:51.000Z</Time>
            <Position>
              <LatitudeDegrees>43.4685672819614410400390625</LatitudeDegrees>
              <LongitudeDegrees>-5.10474977083504199981689453125</LongitudeDegrees>
            </Position>
            <AltitudeMeters>45.799999237060546875</AltitudeMeters>
            <DistanceMeters>NAN</DistanceMeters>
          </Trackpoint>
          <Trackpoint>
            <Time>2022-07-17T08:22:52.000Z</Time>
            <Position>
              <LatitudeDegrees>43.4685768373310565948486328125</LatitudeDegrees>
              <LongitudeDegrees>-5.10476971976459026336669921875</LongitudeDegrees>
            </Position>
            <AltitudeMeters>46</AltitudeMeters>
            <DistanceMeters>NAN</DistanceMeters>
          </Trackpoint>
          <Trackpoint>
            <Time>2022-07-17T08:22:53.000Z</Time>
            <Position>
              <LatitudeDegrees>43.4685852192342281341552734375</LatitudeDegrees>
              <LongitudeDegrees>-5.10479033924639225006103515625</LongitudeDegrees>
            </Position>
            <AltitudeMeters>46</AltitudeMeters>
            <DistanceMeters>NAN</DistanceMeters>
          </Trackpoint>
          <Trackpoint>
            <Time>2022-07-17T08:22:54.000Z</Time>
            <Position>
              <LatitudeDegrees>43.46859418787062168121337890625</LatitudeDegrees>
              <LongitudeDegrees>-5.1048045046627521514892578125</LongitudeDegrees>
            </Position>
            <AltitudeMeters>46</AltitudeMeters>
            <DistanceMeters>NAN</DistanceMeters>
          </Trackpoint>
          <Trackpoint>
            <Time>2022-07-17T08:22:55.000Z</Time>
            <Position>
              <LatitudeDegrees>43.4685979597270488739013671875</LatitudeDegrees>
              <LongitudeDegrees>-5.1048083603382110595703125</LongitudeDegrees>
            </Position>
            <AltitudeMeters>46.200000762939453125</AltitudeMeters>
            <DistanceMeters>NAN</DistanceMeters>
          </Trackpoint>
          <Trackpoint>
            <Time>2022-07-17T08:22:56.000Z</Time>
            <Position>
              <LatitudeDegrees>43.46859033219516277313232421875</LatitudeDegrees>
              <LongitudeDegrees>-5.1048189215362071990966796875</LongitudeDegrees>
            </Position>
            <AltitudeMeters>46.40000152587890625</AltitudeMeters>
            <DistanceMeters>NAN</DistanceMeters>
          </Trackpoint>
          <Trackpoint>
            <Time>2022-07-17T08:23:00.000Z</Time>
            <Position>
              <LatitudeDegrees>43.46861983649432659149169921875</LatitudeDegrees>
              <LongitudeDegrees>-5.104867033660411834716796875</LongitudeDegrees>
            </Position>
            <AltitudeMeters>46.799999237060546875</AltitudeMeters>
            <DistanceMeters>NAN</DistanceMeters>
          </Trackpoint>
          <Trackpoint>
            <Time>2022-07-17T08:23:01.000Z</Time>
            <Position>
              <LatitudeDegrees>43.46862696111202239990234375</LatitudeDegrees>
              <LongitudeDegrees>-5.10490064509212970733642578125</LongitudeDegrees>
            </Position>
            <AltitudeMeters>47</AltitudeMeters>
            <DistanceMeters>NAN</DistanceMeters>
          </Trackpoint>
          <Trackpoint>
            <Time>2022-07-17T08:23:04.000Z</Time>
            <Position>
              <LatitudeDegrees>43.46864582039415836334228515625</LatitudeDegrees>
              <LongitudeDegrees>-5.1049875654280185699462890625</LongitudeDegrees>
            </Position>
            <AltitudeMeters>47.200000762939453125</AltitudeMeters>
            <DistanceMeters>NAN</DistanceMeters>
          </Trackpoint>
          <Trackpoint>
            <Time>2022-07-17T08:23:06.000Z</Time>
            <Position>
              <LatitudeDegrees>43.46866040490567684173583984375</LatitudeDegrees>
              <LongitudeDegrees>-5.10503374971449375152587890625</LongitudeDegrees>
            </Position>
            <AltitudeMeters>47.59999847412109375</AltitudeMeters>
            <DistanceMeters>NAN</DistanceMeters>
          </Trackpoint>
          <Trackpoint>
            <Time>2022-07-17T08:23:07.000Z</Time>
            <Position>
              <LatitudeDegrees>43.46867146901786327362060546875</LatitudeDegrees>
              <LongitudeDegrees>-5.1050469093024730682373046875</LongitudeDegrees>
            </Position>
            <AltitudeMeters>47.799999237060546875</AltitudeMeters>
            <DistanceMeters>NAN</DistanceMeters>
          </Trackpoint>
          <Trackpoint>
            <Time>2022-07-17T08:23:09.000Z</Time>
            <Position>
              <LatitudeDegrees>43.468690328299999237060546875</LatitudeDegrees>
              <LongitudeDegrees>-5.1050687022507190704345703125</LongitudeDegrees>
            </Position>
            <AltitudeMeters>48</AltitudeMeters>
            <DistanceMeters>NAN</DistanceMeters>
          </Trackpoint>
          <Trackpoint>
            <Time>2022-07-17T08:23:12.000Z</Time>
            <Position>
              <LatitudeDegrees>43.46871639601886272430419921875</LatitudeDegrees>
              <LongitudeDegrees>-5.10509795509278774261474609375</LongitudeDegrees>
            </Position>
            <AltitudeMeters>48.200000762939453125</AltitudeMeters>
            <DistanceMeters>NAN</DistanceMeters>
          </Trackpoint>
          <Trackpoint>
            <Time>2022-07-17T08:23:15.000Z</Time>
            <Position>
              <LatitudeDegrees>43.46873315982520580291748046875</LatitudeDegrees>
              <LongitudeDegrees>-5.10513148270547389984130859375</LongitudeDegrees>
            </Position>
            <AltitudeMeters>48.59999847412109375</AltitudeMeters>
            <DistanceMeters>NAN</DistanceMeters>
          </Trackpoint>
          <Trackpoint>
            <Time>2022-07-17T08:23:17.000Z</Time>
            <Position>
              <LatitudeDegrees>43.46874087117612361907958984375</LatitudeDegrees>
              <LongitudeDegrees>-5.1051632501184940338134765625</LongitudeDegrees>
            </Position>
            <AltitudeMeters>48.799999237060546875</AltitudeMeters>
            <DistanceMeters>NAN</DistanceMeters>
          </Trackpoint>
          <Trackpoint>
            <Time>2022-07-17T08:23:19.000Z</Time>
            <Position>
              <LatitudeDegrees>43.4687622450292110443115234375</LatitudeDegrees>
              <LongitudeDegrees>-5.1051994599401950836181640625</LongitudeDegrees>
            </Position>
            <AltitudeMeters>49</AltitudeMeters>
            <DistanceMeters>NAN</DistanceMeters>
          </Trackpoint>
          <Trackpoint>
            <Time>2022-07-17T08:23:25.000Z</Time>
            <Position>
              <LatitudeDegrees>43.46879057586193084716796875</LatitudeDegrees>
              <LongitudeDegrees>-5.10528587736189365386962890625</LongitudeDegrees>
            </Position>
            <AltitudeMeters>49.799999237060546875</AltitudeMeters>
            <DistanceMeters>NAN</DistanceMeters>
          </Trackpoint>
          <Trackpoint>
            <Time>2022-07-17T08:23:26.000Z</Time>
            <Position>
              <LatitudeDegrees>43.46879200078547000885009765625</LatitudeDegrees>
              <LongitudeDegrees>-5.10530716739594936370849609375</LongitudeDegrees>
            </Position>
            <AltitudeMeters>50</AltitudeMeters>
            <DistanceMeters>NAN</DistanceMeters>
          </Trackpoint>
          <Trackpoint>
            <Time>2022-07-17T08:23:28.000Z</Time>
            <Position>
              <LatitudeDegrees>43.46879250369966030120849609375</LatitudeDegrees>
              <LongitudeDegrees>-5.10533952154219150543212890625</LongitudeDegrees>
            </Position>
            <AltitudeMeters>50</AltitudeMeters>
            <DistanceMeters>NAN</DistanceMeters>
          </Trackpoint>
          <Trackpoint>
            <Time>2022-07-17T08:23:31.000Z</Time>
            <Position>
              <LatitudeDegrees>43.4687977842986583709716796875</LatitudeDegrees>
              <LongitudeDegrees>-5.1053966023027896881103515625</LongitudeDegrees>
            </Position>
            <AltitudeMeters>50.40000152587890625</AltitudeMeters>
            <DistanceMeters>NAN</DistanceMeters>
          </Trackpoint>
          <Trackpoint>
            <Time>2022-07-17T08:23:34.000Z</Time>
            <Position>
              <LatitudeDegrees>43.46880088560283184051513671875</LatitudeDegrees>
              <LongitudeDegrees>-5.1054596342146396636962890625</LongitudeDegrees>
            </Position>
            <AltitudeMeters>50.59999847412109375</AltitudeMeters>
            <DistanceMeters>NAN</DistanceMeters>
          </Trackpoint>
          <Trackpoint>
            <Time>2022-07-17T08:23:38.000Z</Time>
            <Position>
              <LatitudeDegrees>43.4687967784702777862548828125</LatitudeDegrees>
              <LongitudeDegrees>-5.1055333949625492095947265625</LongitudeDegrees>
            </Position>
            <AltitudeMeters>51</AltitudeMeters>
            <DistanceMeters>NAN</DistanceMeters>
          </Trackpoint>
          <Trackpoint>
            <Time>2022-07-17T08:23:40.000Z</Time>
            <Position>
              <LatitudeDegrees>43.46878982149064540863037109375</LatitudeDegrees>
              <LongitudeDegrees>-5.10556264780461788177490234375</LongitudeDegrees>
            </Position>
            <AltitudeMeters>51</AltitudeMeters>
            <DistanceMeters>NAN</DistanceMeters>
          </Trackpoint>
          <Trackpoint>
            <Time>2022-07-17T08:23:42.000Z</Time>
            <Position>
              <LatitudeDegrees>43.468794263899326324462890625</LatitudeDegrees>
              <LongitudeDegrees>-5.10561168193817138671875</LongitudeDegrees>
            </Position>
            <AltitudeMeters>51.200000762939453125</AltitudeMeters>
            <DistanceMeters>NAN</DistanceMeters>
          </Trackpoint>
          <Trackpoint>
            <Time>2022-07-17T08:23:49.000Z</Time>
            <Position>
              <LatitudeDegrees>43.46876635216176509857177734375</LatitudeDegrees>
              <LongitudeDegrees>-5.1057821698486804962158203125</LongitudeDegrees>
            </Position>
            <AltitudeMeters>51.59999847412109375</AltitudeMeters>
            <DistanceMeters>NAN</DistanceMeters>
          </Trackpoint>
          <Trackpoint>
            <Time>2022-07-17T08:23:57.000Z</Time>
            <Position>
              <LatitudeDegrees>43.4687528572976589202880859375</LatitudeDegrees>
              <LongitudeDegrees>-5.10598878376185894012451171875</LongitudeDegrees>
            </Position>
            <AltitudeMeters>52</AltitudeMeters>
            <DistanceMeters>NAN</DistanceMeters>
          </Trackpoint>
          <Trackpoint>
            <Time>2022-07-17T08:23:58.000Z</Time>
            <Position>
              <LatitudeDegrees>43.46875243820250034332275390625</LatitudeDegrees>
              <LongitudeDegrees>-5.1060153543949127197265625</LongitudeDegrees>
            </Position>
            <AltitudeMeters>52</AltitudeMeters>
            <DistanceMeters>NAN</DistanceMeters>
          </Trackpoint>
          <Trackpoint>
            <Time>2022-07-17T08:23:59.000Z</Time>
            <Position>
              <LatitudeDegrees>43.4687525220215320587158203125</LatitudeDegrees>
              <LongitudeDegrees>-5.10604376904666423797607421875</LongitudeDegrees>
            </Position>
            <AltitudeMeters>52.200000762939453125</AltitudeMeters>
            <DistanceMeters>NAN</DistanceMeters>
          </Trackpoint>
          <Trackpoint>
            <Time>2022-07-17T08:24:04.000Z</Time>
            <Position>
              <LatitudeDegrees>43.46875034272670745849609375</LatitudeDegrees>
              <LongitudeDegrees>-5.1061482913792133331298828125</LongitudeDegrees>
            </Position>
            <AltitudeMeters>52.59999847412109375</AltitudeMeters>
            <DistanceMeters>NAN</DistanceMeters>
          </Trackpoint>
          <Trackpoint>
            <Time>2022-07-17T08:24:06.000Z</Time>
            <Position>
              <LatitudeDegrees>43.46875931136310100555419921875</LatitudeDegrees>
              <LongitudeDegrees>-5.10618927888572216033935546875</LongitudeDegrees>
            </Position>
            <AltitudeMeters>52.799999237060546875</AltitudeMeters>
            <DistanceMeters>NAN</DistanceMeters>
          </Trackpoint>
          <Trackpoint>
            <Time>2022-07-17T08:24:09.000Z</Time>
            <Position>
              <LatitudeDegrees>43.46878009848296642303466796875</LatitudeDegrees>
              <LongitudeDegrees>-5.1062445156276226043701171875</LongitudeDegrees>
            </Position>
            <AltitudeMeters>53</AltitudeMeters>
            <DistanceMeters>NAN</DistanceMeters>
          </Trackpoint>
          <Trackpoint>
            <Time>2022-07-17T08:24:11.000Z</Time>
            <Position>
              <LatitudeDegrees>43.46879568882286548614501953125</LatitudeDegrees>
              <LongitudeDegrees>-5.10628114454448223114013671875</LongitudeDegrees>
            </Position>
            <AltitudeMeters>53.200000762939453125</AltitudeMeters>
            <DistanceMeters>NAN</DistanceMeters>
          </Trackpoint>
          <Trackpoint>
            <Time>2022-07-17T08:24:15.000Z</Time>
            <Position>
              <LatitudeDegrees>43.4688199125230312347412109375</LatitudeDegrees>
              <LongitudeDegrees>-5.10636714287102222442626953125</LongitudeDegrees>
            </Position>
            <AltitudeMeters>53.799999237060546875</AltitudeMeters>
            <DistanceMeters>NAN</DistanceMeters>
          </Trackpoint>
          <Trackpoint>
            <Time>2022-07-17T08:24:17.000Z</Time>
            <Position>
              <LatitudeDegrees>43.4688410349190235137939453125</LatitudeDegrees>
              <LongitudeDegrees>-5.10639145039021968841552734375</LongitudeDegrees>
            </Position>
            <AltitudeMeters>54</AltitudeMeters>
            <DistanceMeters>NAN</DistanceMeters>
          </Trackpoint>
          <Trackpoint>
            <Time>2022-07-17T08:24:19.000Z</Time>
            <Position>
              <LatitudeDegrees>43.4688547812402248382568359375</LatitudeDegrees>
              <LongitudeDegrees>-5.10642430745065212249755859375</LongitudeDegrees>
            </Position>
            <AltitudeMeters>54.200000762939453125</AltitudeMeters>
            <DistanceMeters>NAN</DistanceMeters>
          </Trackpoint>
          <Trackpoint>
            <Time>2022-07-17T08:24:20.000Z</Time>
            <Position>
              <LatitudeDegrees>43.468866012990474700927734375</LatitudeDegrees>
              <LongitudeDegrees>-5.10643444955348968505859375</LongitudeDegrees>
            </Position>
            <AltitudeMeters>54.40000152587890625</AltitudeMeters>
            <DistanceMeters>NAN</DistanceMeters>
          </Trackpoint>
          <Trackpoint>
            <Time>2022-07-17T08:24:26.000Z</Time>
            <Position>
              <LatitudeDegrees>43.4689567051827907562255859375</LatitudeDegrees>
              <LongitudeDegrees>-5.10651768185198307037353515625</LongitudeDegrees>
            </Position>
            <AltitudeMeters>55.40000152587890625</AltitudeMeters>
            <DistanceMeters>NAN</DistanceMeters>
          </Trackpoint>
          <Trackpoint>
            <Time>2022-07-17T08:24:29.000Z</Time>
            <Position>
              <LatitudeDegrees>43.46898210234940052032470703125</LatitudeDegrees>
              <LongitudeDegrees>-5.10655808262526988983154296875</LongitudeDegrees>
            </Position>
            <AltitudeMeters>56</AltitudeMeters>
            <DistanceMeters>NAN</DistanceMeters>
          </Trackpoint>
          <Trackpoint>
            <Time>2022-07-17T08:24:31.000Z</Time>
            <Position>
              <LatitudeDegrees>43.4689883887767791748046875</LatitudeDegrees>
              <LongitudeDegrees>-5.10659663937985897064208984375</LongitudeDegrees>
            </Position>
            <AltitudeMeters>56.40000152587890625</AltitudeMeters>
            <DistanceMeters>NAN</DistanceMeters>
          </Trackpoint>
          <Trackpoint>
            <Time>2022-07-17T08:24:32.000Z</Time>
            <Position>
              <LatitudeDegrees>43.46899299882352352142333984375</LatitudeDegrees>
              <LongitudeDegrees>-5.10661407373845577239990234375</LongitudeDegrees>
            </Position>
            <AltitudeMeters>56.59999847412109375</AltitudeMeters>
            <DistanceMeters>NAN</DistanceMeters>
          </Trackpoint>
          <Trackpoint>
            <Time>2022-07-17T08:24:35.000Z</Time>
            <Position>
              <LatitudeDegrees>43.46900322474539279937744140625</LatitudeDegrees>
              <LongitudeDegrees>-5.106668807566165924072265625</LongitudeDegrees>
            </Position>
            <AltitudeMeters>57.200000762939453125</AltitudeMeters>
            <DistanceMeters>NAN</DistanceMeters>
          </Trackpoint>
          <Trackpoint>
            <Time>2022-07-17T08:24:36.000Z</Time>
            <Position>
              <LatitudeDegrees>43.4690073318779468536376953125</LatitudeDegrees>
              <LongitudeDegrees>-5.1066857390105724334716796875</LongitudeDegrees>
            </Position>
            <AltitudeMeters>57.59999847412109375</AltitudeMeters>
            <DistanceMeters>NAN</DistanceMeters>
          </Trackpoint>
          <Trackpoint>
            <Time>2022-07-17T08:24:39.000Z</Time>
            <Position>
              <LatitudeDegrees>43.46901110373437404632568359375</LatitudeDegrees>
              <LongitudeDegrees>-5.10674667544662952423095703125</LongitudeDegrees>
            </Position>
            <AltitudeMeters>58.200000762939453125</AltitudeMeters>
            <DistanceMeters>NAN</DistanceMeters>
          </Trackpoint>
          <Trackpoint>
            <Time>2022-07-17T08:24:40.000Z</Time>
            <Position>
              <LatitudeDegrees>43.4690116904675960540771484375</LatitudeDegrees>
              <LongitudeDegrees>-5.1067715696990489959716796875</LongitudeDegrees>
            </Position>
            <AltitudeMeters>58.200000762939453125</AltitudeMeters>
            <DistanceMeters>NAN</DistanceMeters>
          </Trackpoint>
          <Trackpoint>
            <Time>2022-07-17T08:24:41.000Z</Time>
            <Position>
              <LatitudeDegrees>43.46901931799948215484619140625</LatitudeDegrees>
              <LongitudeDegrees>-5.10678389109671115875244140625</LongitudeDegrees>
            </Position>
            <AltitudeMeters>58.59999847412109375</AltitudeMeters>
            <DistanceMeters>NAN</DistanceMeters>
          </Trackpoint>
          <Trackpoint>
            <Time>2022-07-17T08:24:46.000Z</Time>
            <Position>
              <LatitudeDegrees>43.4690338186919689178466796875</LatitudeDegrees>
              <LongitudeDegrees>-5.10686972178518772125244140625</LongitudeDegrees>
            </Position>
            <AltitudeMeters>59.59999847412109375</AltitudeMeters>
            <DistanceMeters>NAN</DistanceMeters>
          </Trackpoint>
          <Trackpoint>
            <Time>2022-07-17T08:24:49.000Z</Time>
            <Position>
              <LatitudeDegrees>43.46904781647026538848876953125</LatitudeDegrees>
              <LongitudeDegrees>-5.10691615752875804901123046875</LongitudeDegrees>
            </Position>
            <AltitudeMeters>60.40000152587890625</AltitudeMeters>
            <DistanceMeters>NAN</DistanceMeters>
          </Trackpoint>
          <Trackpoint>
            <Time>2022-07-17T08:24:50.000Z</Time>
            <Position>
              <LatitudeDegrees>43.4690532647073268890380859375</LatitudeDegrees>
              <LongitudeDegrees>-5.10692973621189594268798828125</LongitudeDegrees>
            </Position>
            <AltitudeMeters>60.59999847412109375</AltitudeMeters>
            <DistanceMeters>NAN</DistanceMeters>
          </Trackpoint>
          <Trackpoint>
            <Time>2022-07-17T08:24:52.000Z</Time>
            <Position>
              <LatitudeDegrees>43.46907078288495540618896484375</LatitudeDegrees>
              <LongitudeDegrees>-5.10695940814912319183349609375</LongitudeDegrees>
            </Position>
            <AltitudeMeters>61.200000762939453125</AltitudeMeters>
            <DistanceMeters>NAN</DistanceMeters>
          </Trackpoint>
          <Trackpoint>
            <Time>2022-07-17T08:24:55.000Z</Time>
            <Position>
              <LatitudeDegrees>43.4690951742231845855712890625</LatitudeDegrees>
              <LongitudeDegrees>-5.107005424797534942626953125</LongitudeDegrees>
            </Position>
            <AltitudeMeters>61.799999237060546875</AltitudeMeters>
            <DistanceMeters>NAN</DistanceMeters>
          </Trackpoint>
          <Trackpoint>
            <Time>2022-07-17T08:24:57.000Z</Time>
            <Position>
              <LatitudeDegrees>43.469100035727024078369140625</LatitudeDegrees>
              <LongitudeDegrees>-5.10704305954277515411376953125</LongitudeDegrees>
            </Position>
            <AltitudeMeters>62.200000762939453125</AltitudeMeters>
            <DistanceMeters>NAN</DistanceMeters>
          </Trackpoint>
          <Trackpoint>
            <Time>2022-07-17T08:24:58.000Z</Time>
            <Position>
              <LatitudeDegrees>43.46910397522151470184326171875</LatitudeDegrees>
              <LongitudeDegrees>-5.10705479420721530914306640625</LongitudeDegrees>
            </Position>
            <AltitudeMeters>62.40000152587890625</AltitudeMeters>
            <DistanceMeters>NAN</DistanceMeters>
          </Trackpoint>
          <Trackpoint>
            <Time>2022-07-17T08:25:01.000Z</Time>
            <Position>
              <LatitudeDegrees>43.46911235712468624114990234375</LatitudeDegrees>
              <LongitudeDegrees>-5.1071078516542911529541015625</LongitudeDegrees>
            </Position>
            <AltitudeMeters>63</AltitudeMeters>
            <DistanceMeters>NAN</DistanceMeters>
          </Trackpoint>
          <Trackpoint>
            <Time>2022-07-17T08:25:04.000Z</Time>
            <Position>
              <LatitudeDegrees>43.46911252476274967193603515625</LatitudeDegrees>
              <LongitudeDegrees>-5.10715135373175144195556640625</LongitudeDegrees>
            </Position>
            <AltitudeMeters>63.59999847412109375</AltitudeMeters>
            <DistanceMeters>NAN</DistanceMeters>
          </Trackpoint>
          <Trackpoint>
            <Time>2022-07-17T08:25:06.000Z</Time>
            <Position>
              <LatitudeDegrees>43.46911805681884288787841796875</LatitudeDegrees>
              <LongitudeDegrees>-5.10718622244894504547119140625</LongitudeDegrees>
            </Position>
            <AltitudeMeters>64</AltitudeMeters>
            <DistanceMeters>NAN</DistanceMeters>
          </Trackpoint>
          <Trackpoint>
            <Time>2022-07-17T08:25:09.000Z</Time>
            <Position>
              <LatitudeDegrees>43.46912509761750698089599609375</LatitudeDegrees>
              <LongitudeDegrees>-5.10723835788667201995849609375</LongitudeDegrees>
            </Position>
            <AltitudeMeters>64.8000030517578125</AltitudeMeters>
            <DistanceMeters>NAN</DistanceMeters>
          </Trackpoint>
          <Trackpoint>
            <Time>2022-07-17T08:25:11.000Z</Time>
            <Position>
              <LatitudeDegrees>43.46912694163620471954345703125</LatitudeDegrees>
              <LongitudeDegrees>-5.1072654314339160919189453125</LongitudeDegrees>
            </Position>
            <AltitudeMeters>65</AltitudeMeters>
            <DistanceMeters>NAN</DistanceMeters>
          </Trackpoint>
          <Trackpoint>
            <Time>2022-07-17T08:25:13.000Z</Time>
            <Position>
              <LatitudeDegrees>43.4691226668655872344970703125</LatitudeDegrees>
              <LongitudeDegrees>-5.1072852127254009246826171875</LongitudeDegrees>
            </Position>
            <AltitudeMeters>65.40000152587890625</AltitudeMeters>
            <DistanceMeters>NAN</DistanceMeters>
          </Trackpoint>
          <Trackpoint>
            <Time>2022-07-17T08:25:17.000Z</Time>
            <Position>
              <LatitudeDegrees>43.46912878565490245819091796875</LatitudeDegrees>
              <LongitudeDegrees>-5.10735620744526386260986328125</LongitudeDegrees>
            </Position>
            <AltitudeMeters>66</AltitudeMeters>
            <DistanceMeters>NAN</DistanceMeters>
          </Trackpoint>
          <Trackpoint>
            <Time>2022-07-17T08:25:19.000Z</Time>
            <Position>
              <LatitudeDegrees>43.46913917921483516693115234375</LatitudeDegrees>
              <LongitudeDegrees>-5.1073797605931758880615234375</LongitudeDegrees>
            </Position>
            <AltitudeMeters>66.40000152587890625</AltitudeMeters>
            <DistanceMeters>NAN</DistanceMeters>
          </Trackpoint>
          <Trackpoint>
            <Time>2022-07-17T08:25:21.000Z</Time>
            <Position>
              <LatitudeDegrees>43.4691437892615795135498046875</LatitudeDegrees>
              <LongitudeDegrees>-5.10739526711404323577880859375</LongitudeDegrees>
            </Position>
            <AltitudeMeters>66.59999847412109375</AltitudeMeters>
            <DistanceMeters>NAN</DistanceMeters>
          </Trackpoint>
          <Trackpoint>
            <Time>2022-07-17T08:25:23.000Z</Time>
            <Position>
              <LatitudeDegrees>43.469145633280277252197265625</LatitudeDegrees>
              <LongitudeDegrees>-5.10742644779384136199951171875</LongitudeDegrees>
            </Position>
            <AltitudeMeters>67.1999969482421875</AltitudeMeters>
            <DistanceMeters>NAN</DistanceMeters>
          </Trackpoint>
          <Trackpoint>
            <Time>2022-07-17T08:25:25.000Z</Time>
            <Position>
              <LatitudeDegrees>43.46915057860314846038818359375</LatitudeDegrees>
              <LongitudeDegrees>-5.107454024255275726318359375</LongitudeDegrees>
            </Position>
            <AltitudeMeters>67.40000152587890625</AltitudeMeters>
            <DistanceMeters>NAN</DistanceMeters>
          </Trackpoint>
          <Trackpoint>
            <Time>2022-07-17T08:25:26.000Z</Time>
            <Position>
              <LatitudeDegrees>43.46915401518344879150390625</LatitudeDegrees>
              <LongitudeDegrees>-5.107468776404857635498046875</LongitudeDegrees>
            </Position>
            <AltitudeMeters>67.59999847412109375</AltitudeMeters>
            <DistanceMeters>NAN</DistanceMeters>
          </Trackpoint>
          <Trackpoint>
            <Time>2022-07-17T08:25:30.000Z</Time>
            <Position>
              <LatitudeDegrees>43.4691665880382061004638671875</LatitudeDegrees>
              <LongitudeDegrees>-5.10754848830401897430419921875</LongitudeDegrees>
            </Position>
            <AltitudeMeters>68.1999969482421875</AltitudeMeters>
            <DistanceMeters>NAN</DistanceMeters>
          </Trackpoint>
          <Trackpoint>
            <Time>2022-07-17T08:25:34.000Z</Time>
            <Position>
              <LatitudeDegrees>43.46916533075273036956787109375</LatitudeDegrees>
              <LongitudeDegrees>-5.107575394213199615478515625</LongitudeDegrees>
            </Position>
            <AltitudeMeters>69</AltitudeMeters>
            <DistanceMeters>NAN</DistanceMeters>
          </Trackpoint>
          <Trackpoint>
            <Time>2022-07-17T08:25:35.000Z</Time>
            <Position>
              <LatitudeDegrees>43.46916700713336467742919921875</LatitudeDegrees>
              <LongitudeDegrees>-5.10758453048765659332275390625</LongitudeDegrees>
            </Position>
            <AltitudeMeters>69.1999969482421875</AltitudeMeters>
            <DistanceMeters>NAN</DistanceMeters>
          </Trackpoint>
          <Trackpoint>
            <Time>2022-07-17T08:25:38.000Z</Time>
            <Position>
              <LatitudeDegrees>43.46916566602885723114013671875</LatitudeDegrees>
              <LongitudeDegrees>-5.10760657489299774169921875</LongitudeDegrees>
            </Position>
            <AltitudeMeters>69.59999847412109375</AltitudeMeters>
            <DistanceMeters>NAN</DistanceMeters>
          </Trackpoint>
          <Trackpoint>
            <Time>2022-07-17T08:25:40.000Z</Time>
            <Position>
              <LatitudeDegrees>43.46915493719279766082763671875</LatitudeDegrees>
              <LongitudeDegrees>-5.1076137833297252655029296875</LongitudeDegrees>
            </Position>
            <AltitudeMeters>69.59999847412109375</AltitudeMeters>
            <DistanceMeters>NAN</DistanceMeters>
          </Trackpoint>
          <Trackpoint>
            <Time>2022-07-17T08:25:41.000Z</Time>
            <Position>
              <LatitudeDegrees>43.46915309317409992218017578125</LatitudeDegrees>
              <LongitudeDegrees>-5.1076171360909938812255859375</LongitudeDegrees>
            </Position>
            <AltitudeMeters>69.8000030517578125</AltitudeMeters>
            <DistanceMeters>NAN</DistanceMeters>
          </Trackpoint>
          <Trackpoint>
            <Time>2022-07-17T08:25:42.000Z</Time>
            <Position>
              <LatitudeDegrees>43.469153009355068206787109375</LatitudeDegrees>
              <LongitudeDegrees>-5.10762392543256282806396484375</LongitudeDegrees>
            </Position>
            <AltitudeMeters>70.1999969482421875</AltitudeMeters>
            <DistanceMeters>NAN</DistanceMeters>
          </Trackpoint>
          <Trackpoint>
            <Time>2022-07-17T08:25:43.000Z</Time>
            <Position>
              <LatitudeDegrees>43.46915460191667079925537109375</LatitudeDegrees>
              <LongitudeDegrees>-5.1076380908489227294921875</LongitudeDegrees>
            </Position>
            <AltitudeMeters>70.1999969482421875</AltitudeMeters>
            <DistanceMeters>NAN</DistanceMeters>
          </Trackpoint>
          <Trackpoint>
            <Time>2022-07-17T08:25:44.000Z</Time>
            <Position>
              <LatitudeDegrees>43.46916206181049346923828125</LatitudeDegrees>
              <LongitudeDegrees>-5.1076516695320606231689453125</LongitudeDegrees>
            </Position>
            <AltitudeMeters>70.40000152587890625</AltitudeMeters>
            <DistanceMeters>NAN</DistanceMeters>
          </Trackpoint>
          <Trackpoint>
            <Time>2022-07-17T08:25:47.000Z</Time>
            <Position>
              <LatitudeDegrees>43.46915979869663715362548828125</LatitudeDegrees>
              <LongitudeDegrees>-5.1076898910105228424072265625</LongitudeDegrees>
            </Position>
            <AltitudeMeters>70.8000030517578125</AltitudeMeters>
            <DistanceMeters>NAN</DistanceMeters>
          </Trackpoint>
          <Trackpoint>
            <Time>2022-07-17T08:25:48.000Z</Time>
            <Position>
              <LatitudeDegrees>43.469155021011829376220703125</LatitudeDegrees>
              <LongitudeDegrees>-5.107707493007183074951171875</LongitudeDegrees>
            </Position>
            <AltitudeMeters>70.8000030517578125</AltitudeMeters>
            <DistanceMeters>NAN</DistanceMeters>
          </Trackpoint>
          <Trackpoint>
            <Time>2022-07-17T08:25:49.000Z</Time>
            <Position>
              <LatitudeDegrees>43.4691493213176727294921875</LatitudeDegrees>
              <LongitudeDegrees>-5.10772869922220706939697265625</LongitudeDegrees>
            </Position>
            <AltitudeMeters>71.1999969482421875</AltitudeMeters>
            <DistanceMeters>NAN</DistanceMeters>
          </Trackpoint>
          <Trackpoint>
            <Time>2022-07-17T08:25:50.000Z</Time>
            <Position>
              <LatitudeDegrees>43.469148315489292144775390625</LatitudeDegrees>
              <LongitudeDegrees>-5.1077534258365631103515625</LongitudeDegrees>
            </Position>
            <AltitudeMeters>71.40000152587890625</AltitudeMeters>
            <DistanceMeters>NAN</DistanceMeters>
          </Trackpoint>
          <Trackpoint>
            <Time>2022-07-17T08:25:53.000Z</Time>
            <Position>
              <LatitudeDegrees>43.46914387308061122894287109375</LatitudeDegrees>
              <LongitudeDegrees>-5.10780933313071727752685546875</LongitudeDegrees>
            </Position>
            <AltitudeMeters>72</AltitudeMeters>
            <DistanceMeters>NAN</DistanceMeters>
          </Trackpoint>
          <Trackpoint>
            <Time>2022-07-17T08:25:54.000Z</Time>
            <Position>
              <LatitudeDegrees>43.469141609966754913330078125</LatitudeDegrees>
              <LongitudeDegrees>-5.10782517492771148681640625</LongitudeDegrees>
            </Position>
            <AltitudeMeters>72.1999969482421875</AltitudeMeters>
            <DistanceMeters>NAN</DistanceMeters>
          </Trackpoint>
          <Trackpoint>
            <Time>2022-07-17T08:25:57.000Z</Time>
            <Position>
              <LatitudeDegrees>43.46913415007293224334716796875</LatitudeDegrees>
              <LongitudeDegrees>-5.1078843511641025543212890625</LongitudeDegrees>
            </Position>
            <AltitudeMeters>72.59999847412109375</AltitudeMeters>
            <DistanceMeters>NAN</DistanceMeters>
          </Trackpoint>
          <Trackpoint>
            <Time>2022-07-17T08:26:00.000Z</Time>
            <Position>
              <LatitudeDegrees>43.469128198921680450439453125</LatitudeDegrees>
              <LongitudeDegrees>-5.1079450361430644989013671875</LongitudeDegrees>
            </Position>
            <AltitudeMeters>73</AltitudeMeters>
            <DistanceMeters>NAN</DistanceMeters>
          </Trackpoint>
          <Trackpoint>
            <Time>2022-07-17T08:26:02.000Z</Time>
            <Position>
              <LatitudeDegrees>43.46912442706525325775146484375</LatitudeDegrees>
              <LongitudeDegrees>-5.107979737222194671630859375</LongitudeDegrees>
            </Position>
            <AltitudeMeters>73.40000152587890625</AltitudeMeters>
            <DistanceMeters>NAN</DistanceMeters>
          </Trackpoint>
          <Trackpoint>
            <Time>2022-07-17T08:26:04.000Z</Time>
            <Position>
              <LatitudeDegrees>43.4691256843507289886474609375</LatitudeDegrees>
              <LongitudeDegrees>-5.10802097618579864501953125</LongitudeDegrees>
            </Position>
            <AltitudeMeters>73.59999847412109375</AltitudeMeters>
            <DistanceMeters>NAN</DistanceMeters>
          </Trackpoint>
          <Trackpoint>
            <Time>2022-07-17T08:26:12.000Z</Time>
            <Position>
              <LatitudeDegrees>43.46909123472869396209716796875</LatitudeDegrees>
              <LongitudeDegrees>-5.108181573450565338134765625</LongitudeDegrees>
            </Position>
            <AltitudeMeters>74.8000030517578125</AltitudeMeters>
            <DistanceMeters>NAN</DistanceMeters>
          </Trackpoint>
          <Trackpoint>
            <Time>2022-07-17T08:26:18.000Z</Time>
            <Position>
              <LatitudeDegrees>43.469065837562084197998046875</LatitudeDegrees>
              <LongitudeDegrees>-5.108276791870594024658203125</LongitudeDegrees>
            </Position>
            <AltitudeMeters>75.8000030517578125</AltitudeMeters>
            <DistanceMeters>NAN</DistanceMeters>
          </Trackpoint>
          <Trackpoint>
            <Time>2022-07-17T08:26:22.000Z</Time>
            <Position>
              <LatitudeDegrees>43.46905888058245182037353515625</LatitudeDegrees>
              <LongitudeDegrees>-5.1083473674952983856201171875</LongitudeDegrees>
            </Position>
            <AltitudeMeters>76.59999847412109375</AltitudeMeters>
            <DistanceMeters>NAN</DistanceMeters>
          </Trackpoint>
          <Trackpoint>
            <Time>2022-07-17T08:26:25.000Z</Time>
            <Position>
              <LatitudeDegrees>43.4690473973751068115234375</LatitudeDegrees>
              <LongitudeDegrees>-5.1083886064589023590087890625</LongitudeDegrees>
            </Position>
            <AltitudeMeters>76.8000030517578125</AltitudeMeters>
            <DistanceMeters>NAN</DistanceMeters>
          </Trackpoint>
          <Trackpoint>
            <Time>2022-07-17T08:26:26.000Z</Time>
            <Position>
              <LatitudeDegrees>43.46904044039547443389892578125</LatitudeDegrees>
              <LongitudeDegrees>-5.10840310715138912200927734375</LongitudeDegrees>
            </Position>
            <AltitudeMeters>77</AltitudeMeters>
            <DistanceMeters>NAN</DistanceMeters>
          </Trackpoint>
          <Trackpoint>
            <Time>2022-07-17T08:26:29.000Z</Time>
            <Position>
              <LatitudeDegrees>43.4690150432288646697998046875</LatitudeDegrees>
              <LongitudeDegrees>-5.10844342410564422607421875</LongitudeDegrees>
            </Position>
            <AltitudeMeters>77.59999847412109375</AltitudeMeters>
            <DistanceMeters>NAN</DistanceMeters>
          </Trackpoint>
          <Trackpoint>
            <Time>2022-07-17T08:26:32.000Z</Time>
            <Position>
              <LatitudeDegrees>43.46900473348796367645263671875</LatitudeDegrees>
              <LongitudeDegrees>-5.1084937155246734619140625</LongitudeDegrees>
            </Position>
            <AltitudeMeters>78</AltitudeMeters>
            <DistanceMeters>NAN</DistanceMeters>
          </Trackpoint>
          <Trackpoint>
            <Time>2022-07-17T08:26:36.000Z</Time>
            <Position>
              <LatitudeDegrees>43.46900054253637790679931640625</LatitudeDegrees>
              <LongitudeDegrees>-5.10854040272533893585205078125</LongitudeDegrees>
            </Position>
            <AltitudeMeters>78.59999847412109375</AltitudeMeters>
            <DistanceMeters>NAN</DistanceMeters>
          </Trackpoint>
          <Trackpoint>
            <Time>2022-07-17T08:26:39.000Z</Time>
            <Position>
              <LatitudeDegrees>43.46898042596876621246337890625</LatitudeDegrees>
              <LongitudeDegrees>-5.1085803844034671783447265625</LongitudeDegrees>
            </Position>
            <AltitudeMeters>79.1999969482421875</AltitudeMeters>
            <DistanceMeters>NAN</DistanceMeters>
          </Trackpoint>
          <Trackpoint>
            <Time>2022-07-17T08:26:44.000Z</Time>
            <Position>
              <LatitudeDegrees>43.46894958056509494781494140625</LatitudeDegrees>
              <LongitudeDegrees>-5.10864668525755405426025390625</LongitudeDegrees>
            </Position>
            <AltitudeMeters>80</AltitudeMeters>
            <DistanceMeters>NAN</DistanceMeters>
          </Trackpoint>
          <Trackpoint>
            <Time>2022-07-17T08:26:45.000Z</Time>
            <Position>
              <LatitudeDegrees>43.46894186921417713165283203125</LatitudeDegrees>
              <LongitudeDegrees>-5.10866470634937286376953125</LongitudeDegrees>
            </Position>
            <AltitudeMeters>80.1999969482421875</AltitudeMeters>
            <DistanceMeters>NAN</DistanceMeters>
          </Trackpoint>
          <Trackpoint>
            <Time>2022-07-17T08:26:51.000Z</Time>
            <Position>
              <LatitudeDegrees>43.4689215011894702911376953125</LatitudeDegrees>
              <LongitudeDegrees>-5.1087543927133083343505859375</LongitudeDegrees>
            </Position>
            <AltitudeMeters>81.40000152587890625</AltitudeMeters>
            <DistanceMeters>NAN</DistanceMeters>
          </Trackpoint>
          <Trackpoint>
            <Time>2022-07-17T08:26:53.000Z</Time>
            <Position>
              <LatitudeDegrees>43.4689070843160152435302734375</LatitudeDegrees>
              <LongitudeDegrees>-5.1087916083633899688720703125</LongitudeDegrees>
            </Position>
            <AltitudeMeters>81.8000030517578125</AltitudeMeters>
            <DistanceMeters>NAN</DistanceMeters>
          </Trackpoint>
          <Trackpoint>
            <Time>2022-07-17T08:26:57.000Z</Time>
            <Position>
              <LatitudeDegrees>43.46887062303721904754638671875</LatitudeDegrees>
              <LongitudeDegrees>-5.10885824449360370635986328125</LongitudeDegrees>
            </Position>
            <AltitudeMeters>82.40000152587890625</AltitudeMeters>
            <DistanceMeters>NAN</DistanceMeters>
          </Trackpoint>
          <Trackpoint>
            <Time>2022-07-17T08:27:02.000Z</Time>
            <Position>
              <LatitudeDegrees>43.4688140451908111572265625</LatitudeDegrees>
              <LongitudeDegrees>-5.10892949067056179046630859375</LongitudeDegrees>
            </Position>
            <AltitudeMeters>83.59999847412109375</AltitudeMeters>
            <DistanceMeters>NAN</DistanceMeters>
          </Trackpoint>
          <Trackpoint>
            <Time>2022-07-17T08:27:08.000Z</Time>
            <Position>
              <LatitudeDegrees>43.46876920200884342193603515625</LatitudeDegrees>
              <LongitudeDegrees>-5.1089874096214771270751953125</LongitudeDegrees>
            </Position>
            <AltitudeMeters>84.59999847412109375</AltitudeMeters>
            <DistanceMeters>NAN</DistanceMeters>
          </Trackpoint>
          <Trackpoint>
            <Time>2022-07-17T08:27:10.000Z</Time>
            <Position>
              <LatitudeDegrees>43.46874606795608997344970703125</LatitudeDegrees>
              <LongitudeDegrees>-5.10900090448558330535888671875</LongitudeDegrees>
            </Position>
            <AltitudeMeters>85</AltitudeMeters>
            <DistanceMeters>NAN</DistanceMeters>
          </Trackpoint>
          <Trackpoint>
            <Time>2022-07-17T08:27:12.000Z</Time>
            <Position>
              <LatitudeDegrees>43.46871857531368732452392578125</LatitudeDegrees>
              <LongitudeDegrees>-5.10900543071329593658447265625</LongitudeDegrees>
            </Position>
            <AltitudeMeters>85.1999969482421875</AltitudeMeters>
            <DistanceMeters>NAN</DistanceMeters>
          </Trackpoint>
          <Trackpoint>
            <Time>2022-07-17T08:27:15.000Z</Time>
            <Position>
              <LatitudeDegrees>43.46868789754807949066162109375</LatitudeDegrees>
              <LongitudeDegrees>-5.10903996415436267852783203125</LongitudeDegrees>
            </Position>
            <AltitudeMeters>85.8000030517578125</AltitudeMeters>
            <DistanceMeters>NAN</DistanceMeters>
          </Trackpoint>
          <Trackpoint>
            <Time>2022-07-17T08:27:17.000Z</Time>
            <Position>
              <LatitudeDegrees>43.46866853535175323486328125</LatitudeDegrees>
              <LongitudeDegrees>-5.10906309820711612701416015625</LongitudeDegrees>
            </Position>
            <AltitudeMeters>86</AltitudeMeters>
            <DistanceMeters>NAN</DistanceMeters>
          </Trackpoint>
          <Trackpoint>
            <Time>2022-07-17T08:27:24.000Z</Time>
            <Position>
              <LatitudeDegrees>43.46860357560217380523681640625</LatitudeDegrees>
              <LongitudeDegrees>-5.10910861194133758544921875</LongitudeDegrees>
            </Position>
            <AltitudeMeters>87</AltitudeMeters>
            <DistanceMeters>NAN</DistanceMeters>
          </Trackpoint>
          <Trackpoint>
            <Time>2022-07-17T08:27:28.000Z</Time>
            <Position>
              <LatitudeDegrees>43.4685728140175342559814453125</LatitudeDegrees>
              <LongitudeDegrees>-5.10917038656771183013916015625</LongitudeDegrees>
            </Position>
            <AltitudeMeters>87.40000152587890625</AltitudeMeters>
            <DistanceMeters>NAN</DistanceMeters>
          </Trackpoint>
          <Trackpoint>
            <Time>2022-07-17T08:27:29.000Z</Time>
            <Position>
              <LatitudeDegrees>43.46856300719082355499267578125</LatitudeDegrees>
              <LongitudeDegrees>-5.109182707965373992919921875</LongitudeDegrees>
            </Position>
            <AltitudeMeters>87.59999847412109375</AltitudeMeters>
            <DistanceMeters>NAN</DistanceMeters>
          </Trackpoint>
          <Trackpoint>
            <Time>2022-07-17T08:27:32.000Z</Time>
            <Position>
              <LatitudeDegrees>43.46852981485426425933837890625</LatitudeDegrees>
              <LongitudeDegrees>-5.10919846594333648681640625</LongitudeDegrees>
            </Position>
            <AltitudeMeters>88</AltitudeMeters>
            <DistanceMeters>NAN</DistanceMeters>
          </Trackpoint>
          <Trackpoint>
            <Time>2022-07-17T08:27:35.000Z</Time>
            <Position>
              <LatitudeDegrees>43.46849461086094379425048828125</LatitudeDegrees>
              <LongitudeDegrees>-5.1092274673283100128173828125</LongitudeDegrees>
            </Position>
            <AltitudeMeters>88.1999969482421875</AltitudeMeters>
            <DistanceMeters>NAN</DistanceMeters>
          </Trackpoint>
          <Trackpoint>
            <Time>2022-07-17T08:27:39.000Z</Time>
            <Position>
              <LatitudeDegrees>43.4684561379253864288330078125</LatitudeDegrees>
              <LongitudeDegrees>-5.10928337462246417999267578125</LongitudeDegrees>
            </Position>
            <AltitudeMeters>89</AltitudeMeters>
            <DistanceMeters>NAN</DistanceMeters>
          </Trackpoint>
          <Trackpoint>
            <Time>2022-07-17T08:27:44.000Z</Time>
            <Position>
              <LatitudeDegrees>43.46838983707129955291748046875</LatitudeDegrees>
              <LongitudeDegrees>-5.10933148674666881561279296875</LongitudeDegrees>
            </Position>
            <AltitudeMeters>89.59999847412109375</AltitudeMeters>
            <DistanceMeters>NAN</DistanceMeters>
          </Trackpoint>
          <Trackpoint>
            <Time>2022-07-17T08:27:46.000Z</Time>
            <Position>
              <LatitudeDegrees>43.46837089397013187408447265625</LatitudeDegrees>
              <LongitudeDegrees>-5.1093555428087711334228515625</LongitudeDegrees>
            </Position>
            <AltitudeMeters>89.8000030517578125</AltitudeMeters>
            <DistanceMeters>NAN</DistanceMeters>
          </Trackpoint>
          <Trackpoint>
            <Time>2022-07-17T08:27:48.000Z</Time>
            <Position>
              <LatitudeDegrees>43.468348681926727294921875</LatitudeDegrees>
              <LongitudeDegrees>-5.10937624610960483551025390625</LongitudeDegrees>
            </Position>
            <AltitudeMeters>90.1999969482421875</AltitudeMeters>
            <DistanceMeters>NAN</DistanceMeters>
          </Trackpoint>
          <Trackpoint>
            <Time>2022-07-17T08:27:53.000Z</Time>
            <Position>
              <LatitudeDegrees>43.46829436719417572021484375</LatitudeDegrees>
              <LongitudeDegrees>-5.10944246314465999603271484375</LongitudeDegrees>
            </Position>
            <AltitudeMeters>90.40000152587890625</AltitudeMeters>
            <DistanceMeters>NAN</DistanceMeters>
          </Trackpoint>
          <Trackpoint>
            <Time>2022-07-17T08:28:01.000Z</Time>
            <Position>
              <LatitudeDegrees>43.468201495707035064697265625</LatitudeDegrees>
              <LongitudeDegrees>-5.10957263410091400146484375</LongitudeDegrees>
            </Position>
            <AltitudeMeters>90.59999847412109375</AltitudeMeters>
            <DistanceMeters>NAN</DistanceMeters>
          </Trackpoint>
          <Trackpoint>
            <Time>2022-07-17T08:28:03.000Z</Time>
            <Position>
              <LatitudeDegrees>43.46817241050302982330322265625</LatitudeDegrees>
              <LongitudeDegrees>-5.1096014678478240966796875</LongitudeDegrees>
            </Position>
            <AltitudeMeters>90.8000030517578125</AltitudeMeters>
            <DistanceMeters>NAN</DistanceMeters>
          </Trackpoint>
          <Trackpoint>
            <Time>2022-07-17T08:28:08.000Z</Time>
            <Position>
              <LatitudeDegrees>43.4681218676269054412841796875</LatitudeDegrees>
              <LongitudeDegrees>-5.10968637652695178985595703125</LongitudeDegrees>
            </Position>
            <AltitudeMeters>91.1999969482421875</AltitudeMeters>
            <DistanceMeters>NAN</DistanceMeters>
          </Trackpoint>
          <Trackpoint>
            <Time>2022-07-17T08:28:09.000Z</Time>
            <Position>
              <LatitudeDegrees>43.4681148268282413482666015625</LatitudeDegrees>
              <LongitudeDegrees>-5.1097052358090877532958984375</LongitudeDegrees>
            </Position>
            <AltitudeMeters>91.1999969482421875</AltitudeMeters>
            <DistanceMeters>NAN</DistanceMeters>
          </Trackpoint>
          <Trackpoint>
            <Time>2022-07-17T08:28:14.000Z</Time>
            <Position>
              <LatitudeDegrees>43.4680672176182270050048828125</LatitudeDegrees>
              <LongitudeDegrees>-5.1097934134304523468017578125</LongitudeDegrees>
            </Position>
            <AltitudeMeters>91.40000152587890625</AltitudeMeters>
            <DistanceMeters>NAN</DistanceMeters>
          </Trackpoint>
          <Trackpoint>
            <Time>2022-07-17T08:28:16.000Z</Time>
            <Position>
              <LatitudeDegrees>43.46804919652640819549560546875</LatitudeDegrees>
              <LongitudeDegrees>-5.10982182808220386505126953125</LongitudeDegrees>
            </Position>
            <AltitudeMeters>91.40000152587890625</AltitudeMeters>
            <DistanceMeters>NAN</DistanceMeters>
          </Trackpoint>
          <Trackpoint>
            <Time>2022-07-17T08:28:17.000Z</Time>
            <Position>
              <LatitudeDegrees>43.46803486347198486328125</LatitudeDegrees>
              <LongitudeDegrees>-5.10984194464981555938720703125</LongitudeDegrees>
            </Position>
            <AltitudeMeters>91.40000152587890625</AltitudeMeters>
            <DistanceMeters>NAN</DistanceMeters>
          </Trackpoint>
          <Trackpoint>
            <Time>2022-07-17T08:28:25.000Z</Time>
            <Position>
              <LatitudeDegrees>43.46793436445295810699462890625</LatitudeDegrees>
              <LongitudeDegrees>-5.10994487442076206207275390625</LongitudeDegrees>
            </Position>
            <AltitudeMeters>91.59999847412109375</AltitudeMeters>
            <DistanceMeters>NAN</DistanceMeters>
          </Trackpoint>
          <Trackpoint>
            <Time>2022-07-17T08:28:32.000Z</Time>
            <Position>
              <LatitudeDegrees>43.46783478744328022003173828125</LatitudeDegrees>
              <LongitudeDegrees>-5.11005409061908721923828125</LongitudeDegrees>
            </Position>
            <AltitudeMeters>92</AltitudeMeters>
            <DistanceMeters>NAN</DistanceMeters>
          </Trackpoint>
          <Trackpoint>
            <Time>2022-07-17T08:28:34.000Z</Time>
            <Position>
              <LatitudeDegrees>43.467809893190860748291015625</LatitudeDegrees>
              <LongitudeDegrees>-5.110083259642124176025390625</LongitudeDegrees>
            </Position>
            <AltitudeMeters>92.1999969482421875</AltitudeMeters>
            <DistanceMeters>NAN</DistanceMeters>
          </Trackpoint>
          <Trackpoint>
            <Time>2022-07-17T08:28:42.000Z</Time>
            <Position>
              <LatitudeDegrees>43.4677071310579776763916015625</LatitudeDegrees>
              <LongitudeDegrees>-5.11018283665180206298828125</LongitudeDegrees>
            </Position>
            <AltitudeMeters>93</AltitudeMeters>
            <DistanceMeters>NAN</DistanceMeters>
          </Trackpoint>
          <Trackpoint>
            <Time>2022-07-17T08:28:46.000Z</Time>
            <Position>
              <LatitudeDegrees>43.4676548279821872711181640625</LatitudeDegrees>
              <LongitudeDegrees>-5.1102259196341037750244140625</LongitudeDegrees>
            </Position>
            <AltitudeMeters>93.1999969482421875</AltitudeMeters>
            <DistanceMeters>NAN</DistanceMeters>
          </Trackpoint>
          <Trackpoint>
            <Time>2022-07-17T08:28:48.000Z</Time>
            <Position>
              <LatitudeDegrees>43.4676444344222545623779296875</LatitudeDegrees>
              <LongitudeDegrees>-5.1102463714778423309326171875</LongitudeDegrees>
            </Position>
            <AltitudeMeters>93.40000152587890625</AltitudeMeters>
            <DistanceMeters>NAN</DistanceMeters>
          </Trackpoint>
          <Trackpoint>
            <Time>2022-07-17T08:28:49.000Z</Time>
            <Position>
              <LatitudeDegrees>43.46764393150806427001953125</LatitudeDegrees>
              <LongitudeDegrees>-5.110261626541614532470703125</LongitudeDegrees>
            </Position>
            <AltitudeMeters>93.59999847412109375</AltitudeMeters>
            <DistanceMeters>NAN</DistanceMeters>
          </Trackpoint>
          <Trackpoint>
            <Time>2022-07-17T08:28:52.000Z</Time>
            <Position>
              <LatitudeDegrees>43.4676457755267620086669921875</LatitudeDegrees>
              <LongitudeDegrees>-5.11026732623577117919921875</LongitudeDegrees>
            </Position>
            <AltitudeMeters>93.59999847412109375</AltitudeMeters>
            <DistanceMeters>NAN</DistanceMeters>
          </Trackpoint>
          <Trackpoint>
            <Time>2022-07-17T08:29:25.000Z</Time>
            <Position>
              <LatitudeDegrees>43.4676447696983814239501953125</LatitudeDegrees>
              <LongitudeDegrees>-5.11023639701306819915771484375</LongitudeDegrees>
            </Position>
            <AltitudeMeters>92.8000030517578125</AltitudeMeters>
            <DistanceMeters>NAN</DistanceMeters>
          </Trackpoint>
          <Trackpoint>
            <Time>2022-07-17T08:29:26.000Z</Time>
            <Position>
              <LatitudeDegrees>43.46763077192008495330810546875</LatitudeDegrees>
              <LongitudeDegrees>-5.110227763652801513671875</LongitudeDegrees>
            </Position>
            <AltitudeMeters>92.8000030517578125</AltitudeMeters>
            <DistanceMeters>NAN</DistanceMeters>
          </Trackpoint>
          <Trackpoint>
            <Time>2022-07-17T08:29:28.000Z</Time>
            <Position>
              <LatitudeDegrees>43.4676052071154117584228515625</LatitudeDegrees>
              <LongitudeDegrees>-5.1102450303733348846435546875</LongitudeDegrees>
            </Position>
            <AltitudeMeters>92.59999847412109375</AltitudeMeters>
            <DistanceMeters>NAN</DistanceMeters>
          </Trackpoint>
          <Trackpoint>
            <Time>2022-07-17T08:29:30.000Z</Time>
            <Position>
              <LatitudeDegrees>43.467590622603893280029296875</LatitudeDegrees>
              <LongitudeDegrees>-5.1102778874337673187255859375</LongitudeDegrees>
            </Position>
            <AltitudeMeters>92.8000030517578125</AltitudeMeters>
            <DistanceMeters>NAN</DistanceMeters>
          </Trackpoint>
          <Trackpoint>
            <Time>2022-07-17T08:29:33.000Z</Time>
            <Position>
              <LatitudeDegrees>43.46756002865731716156005859375</LatitudeDegrees>
              <LongitudeDegrees>-5.110308565199375152587890625</LongitudeDegrees>
            </Position>
            <AltitudeMeters>93</AltitudeMeters>
            <DistanceMeters>NAN</DistanceMeters>
          </Trackpoint>
          <Trackpoint>
            <Time>2022-07-17T08:29:36.000Z</Time>
            <Position>
              <LatitudeDegrees>43.467505462467670440673828125</LatitudeDegrees>
              <LongitudeDegrees>-5.11032105423510074615478515625</LongitudeDegrees>
            </Position>
            <AltitudeMeters>93.1999969482421875</AltitudeMeters>
            <DistanceMeters>NAN</DistanceMeters>
          </Trackpoint>
          <Trackpoint>
            <Time>2022-07-17T08:29:43.000Z</Time>
            <Position>
              <LatitudeDegrees>43.4673882834613323211669921875</LatitudeDegrees>
              <LongitudeDegrees>-5.1103784702718257904052734375</LongitudeDegrees>
            </Position>
            <AltitudeMeters>93.40000152587890625</AltitudeMeters>
            <DistanceMeters>NAN</DistanceMeters>
          </Trackpoint>
          <Trackpoint>
            <Time>2022-07-17T08:29:52.000Z</Time>
            <Position>
              <LatitudeDegrees>43.46724101342260837554931640625</LatitudeDegrees>
              <LongitudeDegrees>-5.1104549132287502288818359375</LongitudeDegrees>
            </Position>
            <AltitudeMeters>94</AltitudeMeters>
            <DistanceMeters>NAN</DistanceMeters>
          </Trackpoint>
          <Trackpoint>
            <Time>2022-07-17T08:29:54.000Z</Time>
            <Position>
              <LatitudeDegrees>43.46720614470541477203369140625</LatitudeDegrees>
              <LongitudeDegrees>-5.1104772090911865234375</LongitudeDegrees>
            </Position>
            <AltitudeMeters>94.1999969482421875</AltitudeMeters>
            <DistanceMeters>NAN</DistanceMeters>
          </Trackpoint>
          <Trackpoint>
            <Time>2022-07-17T08:29:56.000Z</Time>
            <Position>
              <LatitudeDegrees>43.46717362292110919952392578125</LatitudeDegrees>
              <LongitudeDegrees>-5.1105038635432720184326171875</LongitudeDegrees>
            </Position>
            <AltitudeMeters>94.1999969482421875</AltitudeMeters>
            <DistanceMeters>NAN</DistanceMeters>
          </Trackpoint>
          <Trackpoint>
            <Time>2022-07-17T08:30:02.000Z</Time>
            <Position>
              <LatitudeDegrees>43.467119894921779632568359375</LatitudeDegrees>
              <LongitudeDegrees>-5.110547952353954315185546875</LongitudeDegrees>
            </Position>
            <AltitudeMeters>94.8000030517578125</AltitudeMeters>
            <DistanceMeters>NAN</DistanceMeters>
          </Trackpoint>
          <Trackpoint>
            <Time>2022-07-17T08:30:03.000Z</Time>
            <Position>
              <LatitudeDegrees>43.467119894921779632568359375</LatitudeDegrees>
              <LongitudeDegrees>-5.110547952353954315185546875</LongitudeDegrees>
            </Position>
            <AltitudeMeters>94.8000030517578125</AltitudeMeters>
            <DistanceMeters>NAN</DistanceMeters>
          </Trackpoint>
          <Trackpoint>
            <Time>2022-07-17T08:30:04.000Z</Time>
            <Position>
              <LatitudeDegrees>43.467119894921779632568359375</LatitudeDegrees>
              <LongitudeDegrees>-5.110547952353954315185546875</LongitudeDegrees>
            </Position>
            <AltitudeMeters>94.8000030517578125</AltitudeMeters>
            <DistanceMeters>NAN</DistanceMeters>
          </Trackpoint>
          <Trackpoint>
            <Time>2022-07-17T08:30:47.000Z</Time>
            <Position>
              <LatitudeDegrees>43.4670868702232837677001953125</LatitudeDegrees>
              <LongitudeDegrees>-5.11063923127949237823486328125</LongitudeDegrees>
            </Position>
            <AltitudeMeters>95</AltitudeMeters>
            <DistanceMeters>NAN</DistanceMeters>
          </Trackpoint>
          <Trackpoint>
            <Time>2022-07-17T08:30:49.000Z</Time>
            <Position>
              <LatitudeDegrees>43.4670737944543361663818359375</LatitudeDegrees>
              <LongitudeDegrees>-5.11068097315728664398193359375</LongitudeDegrees>
            </Position>
            <AltitudeMeters>95.40000152587890625</AltitudeMeters>
            <DistanceMeters>NAN</DistanceMeters>
          </Trackpoint>
          <Trackpoint>
            <Time>2022-07-17T08:30:50.000Z</Time>
            <Position>
              <LatitudeDegrees>43.46706918440759181976318359375</LatitudeDegrees>
              <LongitudeDegrees>-5.1107016764581203460693359375</LongitudeDegrees>
            </Position>
            <AltitudeMeters>95.8000030517578125</AltitudeMeters>
            <DistanceMeters>NAN</DistanceMeters>
          </Trackpoint>
          <Trackpoint>
            <Time>2022-07-17T08:30:56.000Z</Time>
            <Position>
              <LatitudeDegrees>43.46700615249574184417724609375</LatitudeDegrees>
              <LongitudeDegrees>-5.11080854572355747222900390625</LongitudeDegrees>
            </Position>
            <AltitudeMeters>96.40000152587890625</AltitudeMeters>
            <DistanceMeters>NAN</DistanceMeters>
          </Trackpoint>
          <Trackpoint>
            <Time>2022-07-17T08:30:57.000Z</Time>
            <Position>
              <LatitudeDegrees>43.46699475310742855072021484375</LatitudeDegrees>
              <LongitudeDegrees>-5.1108230464160442352294921875</LongitudeDegrees>
            </Position>
            <AltitudeMeters>96.40000152587890625</AltitudeMeters>
            <DistanceMeters>NAN</DistanceMeters>
          </Trackpoint>
          <Trackpoint>
            <Time>2022-07-17T08:31:03.000Z</Time>
            <Position>
              <LatitudeDegrees>43.46694110892713069915771484375</LatitudeDegrees>
              <LongitudeDegrees>-5.11090996675193309783935546875</LongitudeDegrees>
            </Position>
            <AltitudeMeters>97.1999969482421875</AltitudeMeters>
            <DistanceMeters>NAN</DistanceMeters>
          </Trackpoint>
          <Trackpoint>
            <Time>2022-07-17T08:31:04.000Z</Time>
            <Position>
              <LatitudeDegrees>43.4669336490333080291748046875</LatitudeDegrees>
              <LongitudeDegrees>-5.11092522181570529937744140625</LongitudeDegrees>
            </Position>
            <AltitudeMeters>97.1999969482421875</AltitudeMeters>
            <DistanceMeters>NAN</DistanceMeters>
          </Trackpoint>
          <Trackpoint>
            <Time>2022-07-17T08:31:05.000Z</Time>
            <Position>
              <LatitudeDegrees>43.46692635677754878997802734375</LatitudeDegrees>
              <LongitudeDegrees>-5.11094097979366779327392578125</LongitudeDegrees>
            </Position>
            <AltitudeMeters>97.59999847412109375</AltitudeMeters>
            <DistanceMeters>NAN</DistanceMeters>
          </Trackpoint>
          <Trackpoint>
            <Time>2022-07-17T08:31:10.000Z</Time>
            <Position>
              <LatitudeDegrees>43.46689869649708271026611328125</LatitudeDegrees>
              <LongitudeDegrees>-5.11101256124675273895263671875</LongitudeDegrees>
            </Position>
            <AltitudeMeters>98.40000152587890625</AltitudeMeters>
            <DistanceMeters>NAN</DistanceMeters>
          </Trackpoint>
          <Trackpoint>
            <Time>2022-07-17T08:31:12.000Z</Time>
            <Position>
              <LatitudeDegrees>43.46688486635684967041015625</LatitudeDegrees>
              <LongitudeDegrees>-5.11103888042271137237548828125</LongitudeDegrees>
            </Position>
            <AltitudeMeters>98.59999847412109375</AltitudeMeters>
            <DistanceMeters>NAN</DistanceMeters>
          </Trackpoint>
          <Trackpoint>
            <Time>2022-07-17T08:31:15.000Z</Time>
            <Position>
              <LatitudeDegrees>43.4668662585318088531494140625</LatitudeDegrees>
              <LongitudeDegrees>-5.11108196340501308441162109375</LongitudeDegrees>
            </Position>
            <AltitudeMeters>99</AltitudeMeters>
            <DistanceMeters>NAN</DistanceMeters>
          </Trackpoint>
          <Trackpoint>
            <Time>2022-07-17T08:31:20.000Z</Time>
            <Position>
              <LatitudeDegrees>43.4668377600610256195068359375</LatitudeDegrees>
              <LongitudeDegrees>-5.11116527952253818511962890625</LongitudeDegrees>
            </Position>
            <AltitudeMeters>99.8000030517578125</AltitudeMeters>
            <DistanceMeters>NAN</DistanceMeters>
          </Trackpoint>
          <Trackpoint>
            <Time>2022-07-17T08:31:24.000Z</Time>
            <Position>
              <LatitudeDegrees>43.466815464198589324951171875</LatitudeDegrees>
              <LongitudeDegrees>-5.1112193427979946136474609375</LongitudeDegrees>
            </Position>
            <AltitudeMeters>100.59999847412109375</AltitudeMeters>
            <DistanceMeters>NAN</DistanceMeters>
          </Trackpoint>
          <Trackpoint>
            <Time>2022-07-17T08:31:25.000Z</Time>
            <Position>
              <LatitudeDegrees>43.46680649556219577789306640625</LatitudeDegrees>
              <LongitudeDegrees>-5.11123183183372020721435546875</LongitudeDegrees>
            </Position>
            <AltitudeMeters>100.59999847412109375</AltitudeMeters>
            <DistanceMeters>NAN</DistanceMeters>
          </Trackpoint>
          <Trackpoint>
            <Time>2022-07-17T08:31:26.000Z</Time>
            <Position>
              <LatitudeDegrees>43.46679643727838993072509765625</LatitudeDegrees>
              <LongitudeDegrees>-5.11124021373689174652099609375</LongitudeDegrees>
            </Position>
            <AltitudeMeters>100.8000030517578125</AltitudeMeters>
            <DistanceMeters>NAN</DistanceMeters>
          </Trackpoint>
          <Trackpoint>
            <Time>2022-07-17T08:31:27.000Z</Time>
            <Position>
              <LatitudeDegrees>43.46678696572780609130859375</LatitudeDegrees>
              <LongitudeDegrees>-5.11124792508780956268310546875</LongitudeDegrees>
            </Position>
            <AltitudeMeters>100.8000030517578125</AltitudeMeters>
            <DistanceMeters>NAN</DistanceMeters>
          </Trackpoint>
          <Trackpoint>
            <Time>2022-07-17T08:31:29.000Z</Time>
            <Position>
              <LatitudeDegrees>43.46677196212112903594970703125</LatitudeDegrees>
              <LongitudeDegrees>-5.111273825168609619140625</LongitudeDegrees>
            </Position>
            <AltitudeMeters>101</AltitudeMeters>
            <DistanceMeters>NAN</DistanceMeters>
          </Trackpoint>
          <Trackpoint>
            <Time>2022-07-17T08:31:30.000Z</Time>
            <Position>
              <LatitudeDegrees>43.4667676873505115509033203125</LatitudeDegrees>
              <LongitudeDegrees>-5.11128631420433521270751953125</LongitudeDegrees>
            </Position>
            <AltitudeMeters>101.1999969482421875</AltitudeMeters>
            <DistanceMeters>NAN</DistanceMeters>
          </Trackpoint>
          <Trackpoint>
            <Time>2022-07-17T08:31:32.000Z</Time>
            <Position>
              <LatitudeDegrees>43.46676290966570377349853515625</LatitudeDegrees>
              <LongitudeDegrees>-5.1113001443445682525634765625</LongitudeDegrees>
            </Position>
            <AltitudeMeters>101.59999847412109375</AltitudeMeters>
            <DistanceMeters>NAN</DistanceMeters>
          </Trackpoint>
          <Trackpoint>
            <Time>2022-07-17T08:31:35.000Z</Time>
            <Position>
              <LatitudeDegrees>43.46674296073615550994873046875</LatitudeDegrees>
              <LongitudeDegrees>-5.1113454066216945648193359375</LongitudeDegrees>
            </Position>
            <AltitudeMeters>101.59999847412109375</AltitudeMeters>
            <DistanceMeters>NAN</DistanceMeters>
          </Trackpoint>
          <Trackpoint>
            <Time>2022-07-17T08:31:42.000Z</Time>
            <Position>
              <LatitudeDegrees>43.46669568680226802825927734375</LatitudeDegrees>
              <LongitudeDegrees>-5.11145286262035369873046875</LongitudeDegrees>
            </Position>
            <AltitudeMeters>101.8000030517578125</AltitudeMeters>
            <DistanceMeters>NAN</DistanceMeters>
          </Trackpoint>
          <Trackpoint>
            <Time>2022-07-17T08:31:44.000Z</Time>
            <Position>
              <LatitudeDegrees>43.4666977822780609130859375</LatitudeDegrees>
              <LongitudeDegrees>-5.11148613877594470977783203125</LongitudeDegrees>
            </Position>
            <AltitudeMeters>102</AltitudeMeters>
            <DistanceMeters>NAN</DistanceMeters>
          </Trackpoint>
          <Trackpoint>
            <Time>2022-07-17T08:31:49.000Z</Time>
            <Position>
              <LatitudeDegrees>43.466702140867710113525390625</LatitudeDegrees>
              <LongitudeDegrees>-5.111568868160247802734375</LongitudeDegrees>
            </Position>
            <AltitudeMeters>103</AltitudeMeters>
            <DistanceMeters>NAN</DistanceMeters>
          </Trackpoint>
          <Trackpoint>
            <Time>2022-07-17T08:31:50.000Z</Time>
            <Position>
              <LatitudeDegrees>43.4667036496102809906005859375</LatitudeDegrees>
              <LongitudeDegrees>-5.11158554814755916595458984375</LongitudeDegrees>
            </Position>
            <AltitudeMeters>103.1999969482421875</AltitudeMeters>
            <DistanceMeters>NAN</DistanceMeters>
          </Trackpoint>
          <Trackpoint>
            <Time>2022-07-17T08:31:56.000Z</Time>
            <Position>
              <LatitudeDegrees>43.466701805591583251953125</LatitudeDegrees>
              <LongitudeDegrees>-5.111697278916835784912109375</LongitudeDegrees>
            </Position>
            <AltitudeMeters>104</AltitudeMeters>
            <DistanceMeters>NAN</DistanceMeters>
          </Trackpoint>
          <Trackpoint>
            <Time>2022-07-17T08:31:58.000Z</Time>
            <Position>
              <LatitudeDegrees>43.4667085111141204833984375</LatitudeDegrees>
              <LongitudeDegrees>-5.1117336563766002655029296875</LongitudeDegrees>
            </Position>
            <AltitudeMeters>104.40000152587890625</AltitudeMeters>
            <DistanceMeters>NAN</DistanceMeters>
          </Trackpoint>
          <Trackpoint>
            <Time>2022-07-17T08:32:03.000Z</Time>
            <Position>
              <LatitudeDegrees>43.4667170606553554534912109375</LatitudeDegrees>
              <LongitudeDegrees>-5.11182979680597782135009765625</LongitudeDegrees>
            </Position>
            <AltitudeMeters>105.1999969482421875</AltitudeMeters>
            <DistanceMeters>NAN</DistanceMeters>
          </Trackpoint>
          <Trackpoint>
            <Time>2022-07-17T08:32:05.000Z</Time>
            <Position>
              <LatitudeDegrees>43.46672527492046356201171875</LatitudeDegrees>
              <LongitudeDegrees>-5.1118684373795986175537109375</LongitudeDegrees>
            </Position>
            <AltitudeMeters>105.59999847412109375</AltitudeMeters>
            <DistanceMeters>NAN</DistanceMeters>
          </Trackpoint>
          <Trackpoint>
            <Time>2022-07-17T08:32:09.000Z</Time>
            <Position>
              <LatitudeDegrees>43.46673575229942798614501953125</LatitudeDegrees>
              <LongitudeDegrees>-5.111956112086772918701171875</LongitudeDegrees>
            </Position>
            <AltitudeMeters>106</AltitudeMeters>
            <DistanceMeters>NAN</DistanceMeters>
          </Trackpoint>
          <Trackpoint>
            <Time>2022-07-17T08:32:11.000Z</Time>
            <Position>
              <LatitudeDegrees>43.46674748696386814117431640625</LatitudeDegrees>
              <LongitudeDegrees>-5.1119968481361865997314453125</LongitudeDegrees>
            </Position>
            <AltitudeMeters>106.1999969482421875</AltitudeMeters>
            <DistanceMeters>NAN</DistanceMeters>
          </Trackpoint>
          <Trackpoint>
            <Time>2022-07-17T08:32:15.000Z</Time>
            <Position>
              <LatitudeDegrees>43.46675436012446880340576171875</LatitudeDegrees>
              <LongitudeDegrees>-5.1120717823505401611328125</LongitudeDegrees>
            </Position>
            <AltitudeMeters>106.59999847412109375</AltitudeMeters>
            <DistanceMeters>NAN</DistanceMeters>
          </Trackpoint>
          <Trackpoint>
            <Time>2022-07-17T08:32:17.000Z</Time>
            <Position>
              <LatitudeDegrees>43.4667646698653697967529296875</LatitudeDegrees>
              <LongitudeDegrees>-5.11211059056222438812255859375</LongitudeDegrees>
            </Position>
            <AltitudeMeters>106.8000030517578125</AltitudeMeters>
            <DistanceMeters>NAN</DistanceMeters>
          </Trackpoint>
          <Trackpoint>
            <Time>2022-07-17T08:32:21.000Z</Time>
            <Position>
              <LatitudeDegrees>43.46679769456386566162109375</LatitudeDegrees>
              <LongitudeDegrees>-5.11216876097023487091064453125</LongitudeDegrees>
            </Position>
            <AltitudeMeters>107.1999969482421875</AltitudeMeters>
            <DistanceMeters>NAN</DistanceMeters>
          </Trackpoint>
          <Trackpoint>
            <Time>2022-07-17T08:32:25.000Z</Time>
            <Position>
              <LatitudeDegrees>43.46681772731244564056396484375</LatitudeDegrees>
              <LongitudeDegrees>-5.11223933659493923187255859375</LongitudeDegrees>
            </Position>
            <AltitudeMeters>107.8000030517578125</AltitudeMeters>
            <DistanceMeters>NAN</DistanceMeters>
          </Trackpoint>
          <Trackpoint>
            <Time>2022-07-17T08:32:28.000Z</Time>
            <Position>
              <LatitudeDegrees>43.466835916042327880859375</LatitudeDegrees>
              <LongitudeDegrees>-5.11228912509977817535400390625</LongitudeDegrees>
            </Position>
            <AltitudeMeters>108.1999969482421875</AltitudeMeters>
            <DistanceMeters>NAN</DistanceMeters>
          </Trackpoint>
          <Trackpoint>
            <Time>2022-07-17T08:32:29.000Z</Time>
            <Position>
              <LatitudeDegrees>43.4668426215648651123046875</LatitudeDegrees>
              <LongitudeDegrees>-5.112306810915470123291015625</LongitudeDegrees>
            </Position>
            <AltitudeMeters>108.40000152587890625</AltitudeMeters>
            <DistanceMeters>NAN</DistanceMeters>
          </Trackpoint>
          <Trackpoint>
            <Time>2022-07-17T08:32:30.000Z</Time>
            <Position>
              <LatitudeDegrees>43.46684622578322887420654296875</LatitudeDegrees>
              <LongitudeDegrees>-5.1123200543224811553955078125</LongitudeDegrees>
            </Position>
            <AltitudeMeters>108.59999847412109375</AltitudeMeters>
            <DistanceMeters>NAN</DistanceMeters>
          </Trackpoint>
          <Trackpoint>
            <Time>2022-07-17T08:32:33.000Z</Time>
            <Position>
              <LatitudeDegrees>43.46685175783932209014892578125</LatitudeDegrees>
              <LongitudeDegrees>-5.112374536693096160888671875</LongitudeDegrees>
            </Position>
            <AltitudeMeters>109</AltitudeMeters>
            <DistanceMeters>NAN</DistanceMeters>
          </Trackpoint>
          <Trackpoint>
            <Time>2022-07-17T08:32:36.000Z</Time>
            <Position>
              <LatitudeDegrees>43.4668608941137790679931640625</LatitudeDegrees>
              <LongitudeDegrees>-5.1124206371605396270751953125</LongitudeDegrees>
            </Position>
            <AltitudeMeters>109.40000152587890625</AltitudeMeters>
            <DistanceMeters>NAN</DistanceMeters>
          </Trackpoint>
          <Trackpoint>
            <Time>2022-07-17T08:32:39.000Z</Time>
            <Position>
              <LatitudeDegrees>43.4668840281665325164794921875</LatitudeDegrees>
              <LongitudeDegrees>-5.11245911009609699249267578125</LongitudeDegrees>
            </Position>
            <AltitudeMeters>109.8000030517578125</AltitudeMeters>
            <DistanceMeters>NAN</DistanceMeters>
          </Trackpoint>
          <Trackpoint>
            <Time>2022-07-17T08:32:47.000Z</Time>
            <Position>
              <LatitudeDegrees>43.466930799186229705810546875</LatitudeDegrees>
              <LongitudeDegrees>-5.1126301847398281097412109375</LongitudeDegrees>
            </Position>
            <AltitudeMeters>110.40000152587890625</AltitudeMeters>
            <DistanceMeters>NAN</DistanceMeters>
          </Trackpoint>
          <Trackpoint>
            <Time>2022-07-17T08:32:49.000Z</Time>
            <Position>
              <LatitudeDegrees>43.4669500775635242462158203125</LatitudeDegrees>
              <LongitudeDegrees>-5.11268961243331432342529296875</LongitudeDegrees>
            </Position>
            <AltitudeMeters>110.40000152587890625</AltitudeMeters>
            <DistanceMeters>NAN</DistanceMeters>
          </Trackpoint>
          <Trackpoint>
            <Time>2022-07-17T08:32:52.000Z</Time>
            <Position>
              <LatitudeDegrees>43.46698033623397350311279296875</LatitudeDegrees>
              <LongitudeDegrees>-5.11277854442596435546875</LongitudeDegrees>
            </Position>
            <AltitudeMeters>110.59999847412109375</AltitudeMeters>
            <DistanceMeters>NAN</DistanceMeters>
          </Trackpoint>
          <Trackpoint>
            <Time>2022-07-17T08:32:55.000Z</Time>
            <Position>
              <LatitudeDegrees>43.46702358685433864593505859375</LatitudeDegrees>
              <LongitudeDegrees>-5.112868063151836395263671875</LongitudeDegrees>
            </Position>
            <AltitudeMeters>110.59999847412109375</AltitudeMeters>
            <DistanceMeters>NAN</DistanceMeters>
          </Trackpoint>
          <Trackpoint>
            <Time>2022-07-17T08:32:59.000Z</Time>
            <Position>
              <LatitudeDegrees>43.46709717996418476104736328125</LatitudeDegrees>
              <LongitudeDegrees>-5.11304282583296298980712890625</LongitudeDegrees>
            </Position>
            <AltitudeMeters>110.1999969482421875</AltitudeMeters>
            <DistanceMeters>NAN</DistanceMeters>
          </Trackpoint>
          <Trackpoint>
            <Time>2022-07-17T08:33:02.000Z</Time>
            <Position>
              <LatitudeDegrees>43.46717186272144317626953125</LatitudeDegrees>
              <LongitudeDegrees>-5.11314843781292438507080078125</LongitudeDegrees>
            </Position>
            <AltitudeMeters>109.8000030517578125</AltitudeMeters>
            <DistanceMeters>NAN</DistanceMeters>
          </Trackpoint>
          <Trackpoint>
            <Time>2022-07-17T08:33:04.000Z</Time>
            <Position>
              <LatitudeDegrees>43.4672032110393047332763671875</LatitudeDegrees>
              <LongitudeDegrees>-5.11319571174681186676025390625</LongitudeDegrees>
            </Position>
            <AltitudeMeters>109.8000030517578125</AltitudeMeters>
            <DistanceMeters>NAN</DistanceMeters>
          </Trackpoint>
          <Trackpoint>
            <Time>2022-07-17T08:33:12.000Z</Time>
            <Position>
              <LatitudeDegrees>43.46735752187669277191162109375</LatitudeDegrees>
              <LongitudeDegrees>-5.1134361885488033294677734375</LongitudeDegrees>
            </Position>
            <AltitudeMeters>109.8000030517578125</AltitudeMeters>
            <DistanceMeters>NAN</DistanceMeters>
          </Trackpoint>
          <Trackpoint>
            <Time>2022-07-17T08:33:13.000Z</Time>
            <Position>
              <LatitudeDegrees>43.46739708445966243743896484375</LatitudeDegrees>
              <LongitudeDegrees>-5.11348002590239048004150390625</LongitudeDegrees>
            </Position>
            <AltitudeMeters>109.40000152587890625</AltitudeMeters>
            <DistanceMeters>NAN</DistanceMeters>
          </Trackpoint>
          <Trackpoint>
            <Time>2022-07-17T08:33:14.000Z</Time>
            <Position>
              <LatitudeDegrees>43.46744150854647159576416015625</LatitudeDegrees>
              <LongitudeDegrees>-5.11351925320923328399658203125</LongitudeDegrees>
            </Position>
            <AltitudeMeters>108.8000030517578125</AltitudeMeters>
            <DistanceMeters>NAN</DistanceMeters>
          </Trackpoint>
          <Trackpoint>
            <Time>2022-07-17T08:33:16.000Z</Time>
            <Position>
              <LatitudeDegrees>43.46752784214913845062255859375</LatitudeDegrees>
              <LongitudeDegrees>-5.11360055766999721527099609375</LongitudeDegrees>
            </Position>
            <AltitudeMeters>108.40000152587890625</AltitudeMeters>
            <DistanceMeters>NAN</DistanceMeters>
          </Trackpoint>
          <Trackpoint>
            <Time>2022-07-17T08:33:17.000Z</Time>
            <Position>
              <LatitudeDegrees>43.46757980994880199432373046875</LatitudeDegrees>
              <LongitudeDegrees>-5.1136313192546367645263671875</LongitudeDegrees>
            </Position>
            <AltitudeMeters>107.8000030517578125</AltitudeMeters>
            <DistanceMeters>NAN</DistanceMeters>
          </Trackpoint>
          <Trackpoint>
            <Time>2022-07-17T08:33:20.000Z</Time>
            <Position>
              <LatitudeDegrees>43.46772884018719196319580078125</LatitudeDegrees>
              <LongitudeDegrees>-5.11373198591172695159912109375</LongitudeDegrees>
            </Position>
            <AltitudeMeters>106.1999969482421875</AltitudeMeters>
            <DistanceMeters>NAN</DistanceMeters>
          </Trackpoint>
          <Trackpoint>
            <Time>2022-07-17T08:33:22.000Z</Time>
            <Position>
              <LatitudeDegrees>43.46781601198017597198486328125</LatitudeDegrees>
              <LongitudeDegrees>-5.11382385157048702239990234375</LongitudeDegrees>
            </Position>
            <AltitudeMeters>105.59999847412109375</AltitudeMeters>
            <DistanceMeters>NAN</DistanceMeters>
          </Trackpoint>
          <Trackpoint>
            <Time>2022-07-17T08:33:23.000Z</Time>
            <Position>
              <LatitudeDegrees>43.46786127425730228424072265625</LatitudeDegrees>
              <LongitudeDegrees>-5.11387581937015056610107421875</LongitudeDegrees>
            </Position>
            <AltitudeMeters>105</AltitudeMeters>
            <DistanceMeters>NAN</DistanceMeters>
          </Trackpoint>
          <Trackpoint>
            <Time>2022-07-17T08:33:25.000Z</Time>
            <Position>
              <LatitudeDegrees>43.46794727258384227752685546875</LatitudeDegrees>
              <LongitudeDegrees>-5.11399853043258190155029296875</LongitudeDegrees>
            </Position>
            <AltitudeMeters>103.8000030517578125</AltitudeMeters>
            <DistanceMeters>NAN</DistanceMeters>
          </Trackpoint>
          <Trackpoint>
            <Time>2022-07-17T08:33:27.000Z</Time>
            <Position>
              <LatitudeDegrees>43.46803662367165088653564453125</LatitudeDegrees>
              <LongitudeDegrees>-5.114131383597850799560546875</LongitudeDegrees>
            </Position>
            <AltitudeMeters>102.59999847412109375</AltitudeMeters>
            <DistanceMeters>NAN</DistanceMeters>
          </Trackpoint>
          <Trackpoint>
            <Time>2022-07-17T08:33:29.000Z</Time>
            <Position>
              <LatitudeDegrees>43.46812899224460124969482421875</LatitudeDegrees>
              <LongitudeDegrees>-5.1142723672091960906982421875</LongitudeDegrees>
            </Position>
            <AltitudeMeters>101.59999847412109375</AltitudeMeters>
            <DistanceMeters>NAN</DistanceMeters>
          </Trackpoint>
          <Trackpoint>
            <Time>2022-07-17T08:33:30.000Z</Time>
            <Position>
              <LatitudeDegrees>43.4681835584342479705810546875</LatitudeDegrees>
              <LongitudeDegrees>-5.114337913691997528076171875</LongitudeDegrees>
            </Position>
            <AltitudeMeters>101.1999969482421875</AltitudeMeters>
            <DistanceMeters>NAN</DistanceMeters>
          </Trackpoint>
          <Trackpoint>
            <Time>2022-07-17T08:33:32.000Z</Time>
            <Position>
              <LatitudeDegrees>43.468285985291004180908203125</LatitudeDegrees>
              <LongitudeDegrees>-5.11449524201452732086181640625</LongitudeDegrees>
            </Position>
            <AltitudeMeters>100.1999969482421875</AltitudeMeters>
            <DistanceMeters>NAN</DistanceMeters>
          </Trackpoint>
          <Trackpoint>
            <Time>2022-07-17T08:33:33.000Z</Time>
            <Position>
              <LatitudeDegrees>43.46833719871938228607177734375</LatitudeDegrees>
              <LongitudeDegrees>-5.11457855813205242156982421875</LongitudeDegrees>
            </Position>
            <AltitudeMeters>99.59999847412109375</AltitudeMeters>
            <DistanceMeters>NAN</DistanceMeters>
          </Trackpoint>
          <Trackpoint>
            <Time>2022-07-17T08:33:34.000Z</Time>
            <Position>
              <LatitudeDegrees>43.46838648431003093719482421875</LatitudeDegrees>
              <LongitudeDegrees>-5.1146797277033329010009765625</LongitudeDegrees>
            </Position>
            <AltitudeMeters>99.40000152587890625</AltitudeMeters>
            <DistanceMeters>NAN</DistanceMeters>
          </Trackpoint>
          <Trackpoint>
            <Time>2022-07-17T08:33:35.000Z</Time>
            <Position>
              <LatitudeDegrees>43.46842621453106403350830078125</LatitudeDegrees>
              <LongitudeDegrees>-5.1147808134555816650390625</LongitudeDegrees>
            </Position>
            <AltitudeMeters>99.1999969482421875</AltitudeMeters>
            <DistanceMeters>NAN</DistanceMeters>
          </Trackpoint>
          <Trackpoint>
            <Time>2022-07-17T08:33:36.000Z</Time>
            <Position>
              <LatitudeDegrees>43.4684866480529308319091796875</LatitudeDegrees>
              <LongitudeDegrees>-5.1148557476699352264404296875</LongitudeDegrees>
            </Position>
            <AltitudeMeters>98.40000152587890625</AltitudeMeters>
            <DistanceMeters>NAN</DistanceMeters>
          </Trackpoint>
          <Trackpoint>
            <Time>2022-07-17T08:33:37.000Z</Time>
            <Position>
              <LatitudeDegrees>43.46855127252638339996337890625</LatitudeDegrees>
              <LongitudeDegrees>-5.11491450481116771697998046875</LongitudeDegrees>
            </Position>
            <AltitudeMeters>97.40000152587890625</AltitudeMeters>
            <DistanceMeters>NAN</DistanceMeters>
          </Trackpoint>
          <Trackpoint>
            <Time>2022-07-17T08:33:38.000Z</Time>
            <Position>
              <LatitudeDegrees>43.46861514262855052947998046875</LatitudeDegrees>
              <LongitudeDegrees>-5.11497435159981250762939453125</LongitudeDegrees>
            </Position>
            <AltitudeMeters>97</AltitudeMeters>
            <DistanceMeters>NAN</DistanceMeters>
          </Trackpoint>
          <Trackpoint>
            <Time>2022-07-17T08:33:39.000Z</Time>
            <Position>
              <LatitudeDegrees>43.4686713851988315582275390625</LatitudeDegrees>
              <LongitudeDegrees>-5.11505263857543468475341796875</LongitudeDegrees>
            </Position>
            <AltitudeMeters>96.40000152587890625</AltitudeMeters>
            <DistanceMeters>NAN</DistanceMeters>
          </Trackpoint>
          <Trackpoint>
            <Time>2022-07-17T08:33:40.000Z</Time>
            <Position>
              <LatitudeDegrees>43.4687277115881443023681640625</LatitudeDegrees>
              <LongitudeDegrees>-5.11512120254337787628173828125</LongitudeDegrees>
            </Position>
            <AltitudeMeters>95.59999847412109375</AltitudeMeters>
            <DistanceMeters>NAN</DistanceMeters>
          </Trackpoint>
          <Trackpoint>
            <Time>2022-07-17T08:33:41.000Z</Time>
            <Position>
              <LatitudeDegrees>43.46879133023321628570556640625</LatitudeDegrees>
              <LongitudeDegrees>-5.11514148674905300140380859375</LongitudeDegrees>
            </Position>
            <AltitudeMeters>95</AltitudeMeters>
            <DistanceMeters>NAN</DistanceMeters>
          </Trackpoint>
          <Trackpoint>
            <Time>2022-07-17T08:33:42.000Z</Time>
            <Position>
              <LatitudeDegrees>43.4688588045537471771240234375</LatitudeDegrees>
              <LongitudeDegrees>-5.1151548139750957489013671875</LongitudeDegrees>
            </Position>
            <AltitudeMeters>94.1999969482421875</AltitudeMeters>
            <DistanceMeters>NAN</DistanceMeters>
          </Trackpoint>
          <Trackpoint>
            <Time>2022-07-17T08:33:43.000Z</Time>
            <Position>
              <LatitudeDegrees>43.468925692141056060791015625</LatitudeDegrees>
              <LongitudeDegrees>-5.11516562663018703460693359375</LongitudeDegrees>
            </Position>
            <AltitudeMeters>93.1999969482421875</AltitudeMeters>
            <DistanceMeters>NAN</DistanceMeters>
          </Trackpoint>
          <Trackpoint>
            <Time>2022-07-17T08:33:45.000Z</Time>
            <Position>
              <LatitudeDegrees>43.4690425358712673187255859375</LatitudeDegrees>
              <LongitudeDegrees>-5.11521927081048488616943359375</LongitudeDegrees>
            </Position>
            <AltitudeMeters>92</AltitudeMeters>
            <DistanceMeters>NAN</DistanceMeters>
          </Trackpoint>
          <Trackpoint>
            <Time>2022-07-17T08:33:46.000Z</Time>
            <Position>
              <LatitudeDegrees>43.46909073181450366973876953125</LatitudeDegrees>
              <LongitudeDegrees>-5.11522111482918262481689453125</LongitudeDegrees>
            </Position>
            <AltitudeMeters>91.1999969482421875</AltitudeMeters>
            <DistanceMeters>NAN</DistanceMeters>
          </Trackpoint>
          <Trackpoint>
            <Time>2022-07-17T08:33:47.000Z</Time>
            <Position>
              <LatitudeDegrees>43.469137251377105712890625</LatitudeDegrees>
              <LongitudeDegrees>-5.11522145010530948638916015625</LongitudeDegrees>
            </Position>
            <AltitudeMeters>90.1999969482421875</AltitudeMeters>
            <DistanceMeters>NAN</DistanceMeters>
          </Trackpoint>
          <Trackpoint>
            <Time>2022-07-17T08:33:49.000Z</Time>
            <Position>
              <LatitudeDegrees>43.46922375261783599853515625</LatitudeDegrees>
              <LongitudeDegrees>-5.11522748507559299468994140625</LongitudeDegrees>
            </Position>
            <AltitudeMeters>89.1999969482421875</AltitudeMeters>
            <DistanceMeters>NAN</DistanceMeters>
          </Trackpoint>
          <Trackpoint>
            <Time>2022-07-17T08:33:50.000Z</Time>
            <Position>
              <LatitudeDegrees>43.46926474012434482574462890625</LatitudeDegrees>
              <LongitudeDegrees>-5.11526201851665973663330078125</LongitudeDegrees>
            </Position>
            <AltitudeMeters>88.59999847412109375</AltitudeMeters>
            <DistanceMeters>NAN</DistanceMeters>
          </Trackpoint>
          <Trackpoint>
            <Time>2022-07-17T08:33:53.000Z</Time>
            <Position>
              <LatitudeDegrees>43.46938678063452243804931640625</LatitudeDegrees>
              <LongitudeDegrees>-5.1153843104839324951171875</LongitudeDegrees>
            </Position>
            <AltitudeMeters>87.40000152587890625</AltitudeMeters>
            <DistanceMeters>NAN</DistanceMeters>
          </Trackpoint>
          <Trackpoint>
            <Time>2022-07-17T08:33:54.000Z</Time>
            <Position>
              <LatitudeDegrees>43.46942215226590633392333984375</LatitudeDegrees>
              <LongitudeDegrees>-5.1154461689293384552001953125</LongitudeDegrees>
            </Position>
            <AltitudeMeters>86.59999847412109375</AltitudeMeters>
            <DistanceMeters>NAN</DistanceMeters>
          </Trackpoint>
          <Trackpoint>
            <Time>2022-07-17T08:33:55.000Z</Time>
            <Position>
              <LatitudeDegrees>43.46945567987859249114990234375</LatitudeDegrees>
              <LongitudeDegrees>-5.11551640927791595458984375</LongitudeDegrees>
            </Position>
            <AltitudeMeters>86</AltitudeMeters>
            <DistanceMeters>NAN</DistanceMeters>
          </Trackpoint>
          <Trackpoint>
            <Time>2022-07-17T08:33:57.000Z</Time>
            <Position>
              <LatitudeDegrees>43.4695320390164852142333984375</LatitudeDegrees>
              <LongitudeDegrees>-5.11567197740077972412109375</LongitudeDegrees>
            </Position>
            <AltitudeMeters>85</AltitudeMeters>
            <DistanceMeters>NAN</DistanceMeters>
          </Trackpoint>
          <Trackpoint>
            <Time>2022-07-17T08:33:58.000Z</Time>
            <Position>
              <LatitudeDegrees>43.4695635549724102020263671875</LatitudeDegrees>
              <LongitudeDegrees>-5.11573375202715396881103515625</LongitudeDegrees>
            </Position>
            <AltitudeMeters>84.40000152587890625</AltitudeMeters>
            <DistanceMeters>NAN</DistanceMeters>
          </Trackpoint>
          <Trackpoint>
            <Time>2022-07-17T08:33:59.000Z</Time>
            <Position>
              <LatitudeDegrees>43.469604291021823883056640625</LatitudeDegrees>
              <LongitudeDegrees>-5.115819834172725677490234375</LongitudeDegrees>
            </Position>
            <AltitudeMeters>83.59999847412109375</AltitudeMeters>
            <DistanceMeters>NAN</DistanceMeters>
          </Trackpoint>
          <Trackpoint>
            <Time>2022-07-17T08:34:00.000Z</Time>
            <Position>
              <LatitudeDegrees>43.4696508944034576416015625</LatitudeDegrees>
              <LongitudeDegrees>-5.11590239591896533966064453125</LongitudeDegrees>
            </Position>
            <AltitudeMeters>83</AltitudeMeters>
            <DistanceMeters>NAN</DistanceMeters>
          </Trackpoint>
          <Trackpoint>
            <Time>2022-07-17T08:34:01.000Z</Time>
            <Position>
              <LatitudeDegrees>43.46969489939510822296142578125</LatitudeDegrees>
              <LongitudeDegrees>-5.11599375866353511810302734375</LongitudeDegrees>
            </Position>
            <AltitudeMeters>82.59999847412109375</AltitudeMeters>
            <DistanceMeters>NAN</DistanceMeters>
          </Trackpoint>
          <Trackpoint>
            <Time>2022-07-17T08:34:02.000Z</Time>
            <Position>
              <LatitudeDegrees>43.46973337233066558837890625</LatitudeDegrees>
              <LongitudeDegrees>-5.11607833206653594970703125</LongitudeDegrees>
            </Position>
            <AltitudeMeters>82</AltitudeMeters>
            <DistanceMeters>NAN</DistanceMeters>
          </Trackpoint>
          <Trackpoint>
            <Time>2022-07-17T08:34:04.000Z</Time>
            <Position>
              <LatitudeDegrees>43.46980554051697254180908203125</LatitudeDegrees>
              <LongitudeDegrees>-5.11621856130659580230712890625</LongitudeDegrees>
            </Position>
            <AltitudeMeters>81.1999969482421875</AltitudeMeters>
            <DistanceMeters>NAN</DistanceMeters>
          </Trackpoint>
          <Trackpoint>
            <Time>2022-07-17T08:34:06.000Z</Time>
            <Position>
              <LatitudeDegrees>43.4698528982698917388916015625</LatitudeDegrees>
              <LongitudeDegrees>-5.11637337505817413330078125</LongitudeDegrees>
            </Position>
            <AltitudeMeters>80.8000030517578125</AltitudeMeters>
            <DistanceMeters>NAN</DistanceMeters>
          </Trackpoint>
          <Trackpoint>
            <Time>2022-07-17T08:34:09.000Z</Time>
            <Position>
              <LatitudeDegrees>43.46984074451029300689697265625</LatitudeDegrees>
              <LongitudeDegrees>-5.1165998540818691253662109375</LongitudeDegrees>
            </Position>
            <AltitudeMeters>80.1999969482421875</AltitudeMeters>
            <DistanceMeters>NAN</DistanceMeters>
          </Trackpoint>
          <Trackpoint>
            <Time>2022-07-17T08:34:10.000Z</Time>
            <Position>
              <LatitudeDegrees>43.469834290444850921630859375</LatitudeDegrees>
              <LongitudeDegrees>-5.11667185463011264801025390625</LongitudeDegrees>
            </Position>
            <AltitudeMeters>80.1999969482421875</AltitudeMeters>
            <DistanceMeters>NAN</DistanceMeters>
          </Trackpoint>
          <Trackpoint>
            <Time>2022-07-17T08:34:11.000Z</Time>
            <Position>
              <LatitudeDegrees>43.46982381306588649749755859375</LatitudeDegrees>
              <LongitudeDegrees>-5.11673052795231342315673828125</LongitudeDegrees>
            </Position>
            <AltitudeMeters>80</AltitudeMeters>
            <DistanceMeters>NAN</DistanceMeters>
          </Trackpoint>
          <Trackpoint>
            <Time>2022-07-17T08:34:15.000Z</Time>
            <Position>
              <LatitudeDegrees>43.4697858430445194244384765625</LatitudeDegrees>
              <LongitudeDegrees>-5.11699497699737548828125</LongitudeDegrees>
            </Position>
            <AltitudeMeters>79.8000030517578125</AltitudeMeters>
            <DistanceMeters>NAN</DistanceMeters>
          </Trackpoint>
          <Trackpoint>
            <Time>2022-07-17T08:34:17.000Z</Time>
            <Position>
              <LatitudeDegrees>43.46976497210562229156494140625</LatitudeDegrees>
              <LongitudeDegrees>-5.1171238906681537628173828125</LongitudeDegrees>
            </Position>
            <AltitudeMeters>79.59999847412109375</AltitudeMeters>
            <DistanceMeters>NAN</DistanceMeters>
          </Trackpoint>
          <Trackpoint>
            <Time>2022-07-17T08:34:19.000Z</Time>
            <Position>
              <LatitudeDegrees>43.46975508145987987518310546875</LatitudeDegrees>
              <LongitudeDegrees>-5.117255151271820068359375</LongitudeDegrees>
            </Position>
            <AltitudeMeters>79.59999847412109375</AltitudeMeters>
            <DistanceMeters>NAN</DistanceMeters>
          </Trackpoint>
          <Trackpoint>
            <Time>2022-07-17T08:34:24.000Z</Time>
            <Position>
              <LatitudeDegrees>43.46975927241146564483642578125</LatitudeDegrees>
              <LongitudeDegrees>-5.117639712989330291748046875</LongitudeDegrees>
            </Position>
            <AltitudeMeters>79.40000152587890625</AltitudeMeters>
            <DistanceMeters>NAN</DistanceMeters>
          </Trackpoint>
          <Trackpoint>
            <Time>2022-07-17T08:34:25.000Z</Time>
            <Position>
              <LatitudeDegrees>43.46976555883884429931640625</LatitudeDegrees>
              <LongitudeDegrees>-5.11770299635827541351318359375</LongitudeDegrees>
            </Position>
            <AltitudeMeters>79.1999969482421875</AltitudeMeters>
            <DistanceMeters>NAN</DistanceMeters>
          </Trackpoint>
          <Trackpoint>
            <Time>2022-07-17T08:34:28.000Z</Time>
            <Position>
              <LatitudeDegrees>43.46978073008358478546142578125</LatitudeDegrees>
              <LongitudeDegrees>-5.11798379011452198028564453125</LongitudeDegrees>
            </Position>
            <AltitudeMeters>78.59999847412109375</AltitudeMeters>
            <DistanceMeters>NAN</DistanceMeters>
          </Trackpoint>
          <Trackpoint>
            <Time>2022-07-17T08:34:30.000Z</Time>
            <Position>
              <LatitudeDegrees>43.4697875194251537322998046875</LatitudeDegrees>
              <LongitudeDegrees>-5.11816383339464664459228515625</LongitudeDegrees>
            </Position>
            <AltitudeMeters>78</AltitudeMeters>
            <DistanceMeters>NAN</DistanceMeters>
          </Trackpoint>
          <Trackpoint>
            <Time>2022-07-17T08:34:31.000Z</Time>
            <Position>
              <LatitudeDegrees>43.469798751175403594970703125</LatitudeDegrees>
              <LongitudeDegrees>-5.11825167573988437652587890625</LongitudeDegrees>
            </Position>
            <AltitudeMeters>77.59999847412109375</AltitudeMeters>
            <DistanceMeters>NAN</DistanceMeters>
          </Trackpoint>
          <Trackpoint>
            <Time>2022-07-17T08:34:34.000Z</Time>
            <Position>
              <LatitudeDegrees>43.4698371402919292449951171875</LatitudeDegrees>
              <LongitudeDegrees>-5.11853481642901897430419921875</LongitudeDegrees>
            </Position>
            <AltitudeMeters>77</AltitudeMeters>
            <DistanceMeters>NAN</DistanceMeters>
          </Trackpoint>
          <Trackpoint>
            <Time>2022-07-17T08:34:35.000Z</Time>
            <Position>
              <LatitudeDegrees>43.46986488439142704010009765625</LatitudeDegrees>
              <LongitudeDegrees>-5.11861578561365604400634765625</LongitudeDegrees>
            </Position>
            <AltitudeMeters>76.8000030517578125</AltitudeMeters>
            <DistanceMeters>NAN</DistanceMeters>
          </Trackpoint>
          <Trackpoint>
            <Time>2022-07-17T08:34:36.000Z</Time>
            <Position>
              <LatitudeDegrees>43.4698949754238128662109375</LatitudeDegrees>
              <LongitudeDegrees>-5.11869088746607303619384765625</LongitudeDegrees>
            </Position>
            <AltitudeMeters>76.59999847412109375</AltitudeMeters>
            <DistanceMeters>NAN</DistanceMeters>
          </Trackpoint>
          <Trackpoint>
            <Time>2022-07-17T08:34:39.000Z</Time>
            <Position>
              <LatitudeDegrees>43.469961695373058319091796875</LatitudeDegrees>
              <LongitudeDegrees>-5.11890931986272335052490234375</LongitudeDegrees>
            </Position>
            <AltitudeMeters>75.40000152587890625</AltitudeMeters>
            <DistanceMeters>NAN</DistanceMeters>
          </Trackpoint>
          <Trackpoint>
            <Time>2022-07-17T08:34:41.000Z</Time>
            <Position>
              <LatitudeDegrees>43.4700111486017704010009765625</LatitudeDegrees>
              <LongitudeDegrees>-5.11904158629477024078369140625</LongitudeDegrees>
            </Position>
            <AltitudeMeters>75</AltitudeMeters>
            <DistanceMeters>NAN</DistanceMeters>
          </Trackpoint>
          <Trackpoint>
            <Time>2022-07-17T08:34:42.000Z</Time>
            <Position>
              <LatitudeDegrees>43.4700399823486804962158203125</LatitudeDegrees>
              <LongitudeDegrees>-5.1191063784062862396240234375</LongitudeDegrees>
            </Position>
            <AltitudeMeters>74.8000030517578125</AltitudeMeters>
            <DistanceMeters>NAN</DistanceMeters>
          </Trackpoint>
          <Trackpoint>
            <Time>2022-07-17T08:34:47.000Z</Time>
            <Position>
              <LatitudeDegrees>43.4701576642692089080810546875</LatitudeDegrees>
              <LongitudeDegrees>-5.1194344460964202880859375</LongitudeDegrees>
            </Position>
            <AltitudeMeters>74.40000152587890625</AltitudeMeters>
            <DistanceMeters>NAN</DistanceMeters>
          </Trackpoint>
          <Trackpoint>
            <Time>2022-07-17T08:34:48.000Z</Time>
            <Position>
              <LatitudeDegrees>43.47017887048423290252685546875</LatitudeDegrees>
              <LongitudeDegrees>-5.11949144303798675537109375</LongitudeDegrees>
            </Position>
            <AltitudeMeters>74.1999969482421875</AltitudeMeters>
            <DistanceMeters>NAN</DistanceMeters>
          </Trackpoint>
          <Trackpoint>
            <Time>2022-07-17T08:34:49.000Z</Time>
            <Position>
              <LatitudeDegrees>43.4702035970985889434814453125</LatitudeDegrees>
              <LongitudeDegrees>-5.119548104703426361083984375</LongitudeDegrees>
            </Position>
            <AltitudeMeters>74.1999969482421875</AltitudeMeters>
            <DistanceMeters>NAN</DistanceMeters>
          </Trackpoint>
          <Trackpoint>
            <Time>2022-07-17T08:34:51.000Z</Time>
            <Position>
              <LatitudeDegrees>43.47024307586252689361572265625</LatitudeDegrees>
              <LongitudeDegrees>-5.1196743361651897430419921875</LongitudeDegrees>
            </Position>
            <AltitudeMeters>74.1999969482421875</AltitudeMeters>
            <DistanceMeters>NAN</DistanceMeters>
          </Trackpoint>
          <Trackpoint>
            <Time>2022-07-17T08:34:52.000Z</Time>
            <Position>
              <LatitudeDegrees>43.470260761678218841552734375</LatitudeDegrees>
              <LongitudeDegrees>-5.11974449269473552703857421875</LongitudeDegrees>
            </Position>
            <AltitudeMeters>74</AltitudeMeters>
            <DistanceMeters>NAN</DistanceMeters>
          </Trackpoint>
          <Trackpoint>
            <Time>2022-07-17T08:34:55.000Z</Time>
            <Position>
              <LatitudeDegrees>43.47033058293163776397705078125</LatitudeDegrees>
              <LongitudeDegrees>-5.11996661312878131866455078125</LongitudeDegrees>
            </Position>
            <AltitudeMeters>73.8000030517578125</AltitudeMeters>
            <DistanceMeters>NAN</DistanceMeters>
          </Trackpoint>
          <Trackpoint>
            <Time>2022-07-17T08:34:57.000Z</Time>
            <Position>
              <LatitudeDegrees>43.47037282772362232208251953125</LatitudeDegrees>
              <LongitudeDegrees>-5.12012444436550140380859375</LongitudeDegrees>
            </Position>
            <AltitudeMeters>73.40000152587890625</AltitudeMeters>
            <DistanceMeters>NAN</DistanceMeters>
          </Trackpoint>
          <Trackpoint>
            <Time>2022-07-17T08:34:58.000Z</Time>
            <Position>
              <LatitudeDegrees>43.470397554337978363037109375</LatitudeDegrees>
              <LongitudeDegrees>-5.1202023960649967193603515625</LongitudeDegrees>
            </Position>
            <AltitudeMeters>73</AltitudeMeters>
            <DistanceMeters>NAN</DistanceMeters>
          </Trackpoint>
          <Trackpoint>
            <Time>2022-07-17T08:35:01.000Z</Time>
            <Position>
              <LatitudeDegrees>43.47047542221844196319580078125</LatitudeDegrees>
              <LongitudeDegrees>-5.12043289840221405029296875</LongitudeDegrees>
            </Position>
            <AltitudeMeters>72.1999969482421875</AltitudeMeters>
            <DistanceMeters>NAN</DistanceMeters>
          </Trackpoint>
          <Trackpoint>
            <Time>2022-07-17T08:35:02.000Z</Time>
            <Position>
              <LatitudeDegrees>43.47049687989056110382080078125</LatitudeDegrees>
              <LongitudeDegrees>-5.120511688292026519775390625</LongitudeDegrees>
            </Position>
            <AltitudeMeters>71.8000030517578125</AltitudeMeters>
            <DistanceMeters>NAN</DistanceMeters>
          </Trackpoint>
          <Trackpoint>
            <Time>2022-07-17T08:35:03.000Z</Time>
            <Position>
              <LatitudeDegrees>43.47050987184047698974609375</LatitudeDegrees>
              <LongitudeDegrees>-5.12059056200087070465087890625</LongitudeDegrees>
            </Position>
            <AltitudeMeters>71.59999847412109375</AltitudeMeters>
            <DistanceMeters>NAN</DistanceMeters>
          </Trackpoint>
          <Trackpoint>
            <Time>2022-07-17T08:35:04.000Z</Time>
            <Position>
              <LatitudeDegrees>43.47051045857369899749755859375</LatitudeDegrees>
              <LongitudeDegrees>-5.1206540130078792572021484375</LongitudeDegrees>
            </Position>
            <AltitudeMeters>71.40000152587890625</AltitudeMeters>
            <DistanceMeters>NAN</DistanceMeters>
          </Trackpoint>
          <Trackpoint>
            <Time>2022-07-17T08:35:06.000Z</Time>
            <Position>
              <LatitudeDegrees>43.47051389515399932861328125</LatitudeDegrees>
              <LongitudeDegrees>-5.12083590030670166015625</LongitudeDegrees>
            </Position>
            <AltitudeMeters>71</AltitudeMeters>
            <DistanceMeters>NAN</DistanceMeters>
          </Trackpoint>
          <Trackpoint>
            <Time>2022-07-17T08:35:08.000Z</Time>
            <Position>
              <LatitudeDegrees>43.47051850520074367523193359375</LatitudeDegrees>
              <LongitudeDegrees>-5.12102323584258556365966796875</LongitudeDegrees>
            </Position>
            <AltitudeMeters>70.8000030517578125</AltitudeMeters>
            <DistanceMeters>NAN</DistanceMeters>
          </Trackpoint>
          <Trackpoint>
            <Time>2022-07-17T08:35:10.000Z</Time>
            <Position>
              <LatitudeDegrees>43.47056846134364604949951171875</LatitudeDegrees>
              <LongitudeDegrees>-5.1211901195347309112548828125</LongitudeDegrees>
            </Position>
            <AltitudeMeters>70.1999969482421875</AltitudeMeters>
            <DistanceMeters>NAN</DistanceMeters>
          </Trackpoint>
          <Trackpoint>
            <Time>2022-07-17T08:35:11.000Z</Time>
            <Position>
              <LatitudeDegrees>43.4706015698611736297607421875</LatitudeDegrees>
              <LongitudeDegrees>-5.1212689094245433807373046875</LongitudeDegrees>
            </Position>
            <AltitudeMeters>70</AltitudeMeters>
            <DistanceMeters>NAN</DistanceMeters>
          </Trackpoint>
          <Trackpoint>
            <Time>2022-07-17T08:35:12.000Z</Time>
            <Position>
              <LatitudeDegrees>43.470633588731288909912109375</LatitudeDegrees>
              <LongitudeDegrees>-5.121345184743404388427734375</LongitudeDegrees>
            </Position>
            <AltitudeMeters>69.8000030517578125</AltitudeMeters>
            <DistanceMeters>NAN</DistanceMeters>
          </Trackpoint>
          <Trackpoint>
            <Time>2022-07-17T08:35:16.000Z</Time>
            <Position>
              <LatitudeDegrees>43.4707269631326198577880859375</LatitudeDegrees>
              <LongitudeDegrees>-5.1216591708362102508544921875</LongitudeDegrees>
            </Position>
            <AltitudeMeters>69</AltitudeMeters>
            <DistanceMeters>NAN</DistanceMeters>
          </Trackpoint>
          <Trackpoint>
            <Time>2022-07-17T08:35:19.000Z</Time>
            <Position>
              <LatitudeDegrees>43.4707854688167572021484375</LatitudeDegrees>
              <LongitudeDegrees>-5.12189202010631561279296875</LongitudeDegrees>
            </Position>
            <AltitudeMeters>68.40000152587890625</AltitudeMeters>
            <DistanceMeters>NAN</DistanceMeters>
          </Trackpoint>
          <Trackpoint>
            <Time>2022-07-17T08:35:24.000Z</Time>
            <Position>
              <LatitudeDegrees>43.47088898532092571258544921875</LatitudeDegrees>
              <LongitudeDegrees>-5.1222271285951137542724609375</LongitudeDegrees>
            </Position>
            <AltitudeMeters>68</AltitudeMeters>
            <DistanceMeters>NAN</DistanceMeters>
          </Trackpoint>
          <Trackpoint>
            <Time>2022-07-17T08:35:26.000Z</Time>
            <Position>
              <LatitudeDegrees>43.470939695835113525390625</LatitudeDegrees>
              <LongitudeDegrees>-5.12234003283083438873291015625</LongitudeDegrees>
            </Position>
            <AltitudeMeters>67.59999847412109375</AltitudeMeters>
            <DistanceMeters>NAN</DistanceMeters>
          </Trackpoint>
          <Trackpoint>
            <Time>2022-07-17T08:35:28.000Z</Time>
            <Position>
              <LatitudeDegrees>43.47098805941641330718994140625</LatitudeDegrees>
              <LongitudeDegrees>-5.1224591396749019622802734375</LongitudeDegrees>
            </Position>
            <AltitudeMeters>67.40000152587890625</AltitudeMeters>
            <DistanceMeters>NAN</DistanceMeters>
          </Trackpoint>
          <Trackpoint>
            <Time>2022-07-17T08:35:31.000Z</Time>
            <Position>
              <LatitudeDegrees>43.4710354171693325042724609375</LatitudeDegrees>
              <LongitudeDegrees>-5.12263356707990169525146484375</LongitudeDegrees>
            </Position>
            <AltitudeMeters>67.40000152587890625</AltitudeMeters>
            <DistanceMeters>NAN</DistanceMeters>
          </Trackpoint>
          <Trackpoint>
            <Time>2022-07-17T08:35:32.000Z</Time>
            <Position>
              <LatitudeDegrees>43.4710443019866943359375</LatitudeDegrees>
              <LongitudeDegrees>-5.12268654070794582366943359375</LongitudeDegrees>
            </Position>
            <AltitudeMeters>67.59999847412109375</AltitudeMeters>
            <DistanceMeters>NAN</DistanceMeters>
          </Trackpoint>
          <Trackpoint>
            <Time>2022-07-17T08:35:37.000Z</Time>
            <Position>
              <LatitudeDegrees>43.471097610890865325927734375</LatitudeDegrees>
              <LongitudeDegrees>-5.1229006983339786529541015625</LongitudeDegrees>
            </Position>
            <AltitudeMeters>68</AltitudeMeters>
            <DistanceMeters>NAN</DistanceMeters>
          </Trackpoint>
          <Trackpoint>
            <Time>2022-07-17T08:35:42.000Z</Time>
            <Position>
              <LatitudeDegrees>43.47117028199136257171630859375</LatitudeDegrees>
              <LongitudeDegrees>-5.12306909076869487762451171875</LongitudeDegrees>
            </Position>
            <AltitudeMeters>68.1999969482421875</AltitudeMeters>
            <DistanceMeters>NAN</DistanceMeters>
          </Trackpoint>
          <Trackpoint>
            <Time>2022-07-17T08:35:44.000Z</Time>
            <Position>
              <LatitudeDegrees>43.4711886383593082427978515625</LatitudeDegrees>
              <LongitudeDegrees>-5.12312524951994419097900390625</LongitudeDegrees>
            </Position>
            <AltitudeMeters>68.40000152587890625</AltitudeMeters>
            <DistanceMeters>NAN</DistanceMeters>
          </Trackpoint>
          <Trackpoint>
            <Time>2022-07-17T08:35:46.000Z</Time>
            <Position>
              <LatitudeDegrees>43.47119911573827266693115234375</LatitudeDegrees>
              <LongitudeDegrees>-5.1231920532882213592529296875</LongitudeDegrees>
            </Position>
            <AltitudeMeters>68.59999847412109375</AltitudeMeters>
            <DistanceMeters>NAN</DistanceMeters>
          </Trackpoint>
          <Trackpoint>
            <Time>2022-07-17T08:35:49.000Z</Time>
            <Position>
              <LatitudeDegrees>43.47123767249286174774169921875</LatitudeDegrees>
              <LongitudeDegrees>-5.12325114570558071136474609375</LongitudeDegrees>
            </Position>
            <AltitudeMeters>69</AltitudeMeters>
            <DistanceMeters>NAN</DistanceMeters>
          </Trackpoint>
          <Trackpoint>
            <Time>2022-07-17T08:35:51.000Z</Time>
            <Position>
              <LatitudeDegrees>43.47127404995262622833251953125</LatitudeDegrees>
              <LongitudeDegrees>-5.12328987009823322296142578125</LongitudeDegrees>
            </Position>
            <AltitudeMeters>69.1999969482421875</AltitudeMeters>
            <DistanceMeters>NAN</DistanceMeters>
          </Trackpoint>
          <Trackpoint>
            <Time>2022-07-17T08:35:56.000Z</Time>
            <Position>
              <LatitudeDegrees>43.47134194336831569671630859375</LatitudeDegrees>
              <LongitudeDegrees>-5.1233871839940547943115234375</LongitudeDegrees>
            </Position>
            <AltitudeMeters>69.59999847412109375</AltitudeMeters>
            <DistanceMeters>NAN</DistanceMeters>
          </Trackpoint>
          <Trackpoint>
            <Time>2022-07-17T08:36:00.000Z</Time>
            <Position>
              <LatitudeDegrees>43.47139374352991580963134765625</LatitudeDegrees>
              <LongitudeDegrees>-5.12344325892627239227294921875</LongitudeDegrees>
            </Position>
            <AltitudeMeters>70</AltitudeMeters>
            <DistanceMeters>NAN</DistanceMeters>
          </Trackpoint>
          <Trackpoint>
            <Time>2022-07-17T08:36:02.000Z</Time>
            <Position>
              <LatitudeDegrees>43.47139558754861354827880859375</LatitudeDegrees>
              <LongitudeDegrees>-5.12347125448286533355712890625</LongitudeDegrees>
            </Position>
            <AltitudeMeters>70.1999969482421875</AltitudeMeters>
            <DistanceMeters>NAN</DistanceMeters>
          </Trackpoint>
          <Trackpoint>
            <Time>2022-07-17T08:36:06.000Z</Time>
            <Position>
              <LatitudeDegrees>43.47139558754861354827880859375</LatitudeDegrees>
              <LongitudeDegrees>-5.12347125448286533355712890625</LongitudeDegrees>
            </Position>
            <AltitudeMeters>70</AltitudeMeters>
            <DistanceMeters>NAN</DistanceMeters>
          </Trackpoint>
          <Trackpoint>
            <Time>2022-07-17T08:48:42.000Z</Time>
            <Position>
              <LatitudeDegrees>43.471454679965972900390625</LatitudeDegrees>
              <LongitudeDegrees>-5.1235296763479709625244140625</LongitudeDegrees>
            </Position>
            <AltitudeMeters>67.40000152587890625</AltitudeMeters>
            <DistanceMeters>NAN</DistanceMeters>
          </Trackpoint>
          <Trackpoint>
            <Time>2022-07-17T08:48:43.000Z</Time>
            <Position>
              <LatitudeDegrees>43.47146851010620594024658203125</LatitudeDegrees>
              <LongitudeDegrees>-5.12354115955531597137451171875</LongitudeDegrees>
            </Position>
            <AltitudeMeters>67.40000152587890625</AltitudeMeters>
            <DistanceMeters>NAN</DistanceMeters>
          </Trackpoint>
          <Trackpoint>
            <Time>2022-07-17T08:48:48.000Z</Time>
            <Position>
              <LatitudeDegrees>43.47153103910386562347412109375</LatitudeDegrees>
              <LongitudeDegrees>-5.123643837869167327880859375</LongitudeDegrees>
            </Position>
            <AltitudeMeters>68.40000152587890625</AltitudeMeters>
            <DistanceMeters>NAN</DistanceMeters>
          </Trackpoint>
          <Trackpoint>
            <Time>2022-07-17T08:48:49.000Z</Time>
            <Position>
              <LatitudeDegrees>43.47154377959668636322021484375</LatitudeDegrees>
              <LongitudeDegrees>-5.1236584223806858062744140625</LongitudeDegrees>
            </Position>
            <AltitudeMeters>68.40000152587890625</AltitudeMeters>
            <DistanceMeters>NAN</DistanceMeters>
          </Trackpoint>
          <Trackpoint>
            <Time>2022-07-17T08:48:56.000Z</Time>
            <Position>
              <LatitudeDegrees>43.47167453728616237640380859375</LatitudeDegrees>
              <LongitudeDegrees>-5.12372740544378757476806640625</LongitudeDegrees>
            </Position>
            <AltitudeMeters>68.59999847412109375</AltitudeMeters>
            <DistanceMeters>NAN</DistanceMeters>
          </Trackpoint>
          <Trackpoint>
            <Time>2022-07-17T08:48:57.000Z</Time>
            <Position>
              <LatitudeDegrees>43.47168962471187114715576171875</LatitudeDegrees>
              <LongitudeDegrees>-5.12373930774629116058349609375</LongitudeDegrees>
            </Position>
            <AltitudeMeters>68.59999847412109375</AltitudeMeters>
            <DistanceMeters>NAN</DistanceMeters>
          </Trackpoint>
          <Trackpoint>
            <Time>2022-07-17T08:49:02.000Z</Time>
            <Position>
              <LatitudeDegrees>43.47177185118198394775390625</LatitudeDegrees>
              <LongitudeDegrees>-5.12379580177366733551025390625</LongitudeDegrees>
            </Position>
            <AltitudeMeters>69</AltitudeMeters>
            <DistanceMeters>NAN</DistanceMeters>
          </Trackpoint>
          <Trackpoint>
            <Time>2022-07-17T08:49:05.000Z</Time>
            <Position>
              <LatitudeDegrees>43.47181971184909343719482421875</LatitudeDegrees>
              <LongitudeDegrees>-5.123823545873165130615234375</LongitudeDegrees>
            </Position>
            <AltitudeMeters>69.8000030517578125</AltitudeMeters>
            <DistanceMeters>NAN</DistanceMeters>
          </Trackpoint>
          <Trackpoint>
            <Time>2022-07-17T08:49:09.000Z</Time>
            <Position>
              <LatitudeDegrees>43.4718890301883220672607421875</LatitudeDegrees>
              <LongitudeDegrees>-5.1238310895860195159912109375</LongitudeDegrees>
            </Position>
            <AltitudeMeters>70.40000152587890625</AltitudeMeters>
            <DistanceMeters>NAN</DistanceMeters>
          </Trackpoint>
          <Trackpoint>
            <Time>2022-07-17T08:49:13.000Z</Time>
            <Position>
              <LatitudeDegrees>43.4719621203839778900146484375</LatitudeDegrees>
              <LongitudeDegrees>-5.12384290806949138641357421875</LongitudeDegrees>
            </Position>
            <AltitudeMeters>70.8000030517578125</AltitudeMeters>
            <DistanceMeters>NAN</DistanceMeters>
          </Trackpoint>
          <Trackpoint>
            <Time>2022-07-17T08:49:19.000Z</Time>
            <Position>
              <LatitudeDegrees>43.472082316875457763671875</LatitudeDegrees>
              <LongitudeDegrees>-5.12386838905513286590576171875</LongitudeDegrees>
            </Position>
            <AltitudeMeters>71.1999969482421875</AltitudeMeters>
            <DistanceMeters>NAN</DistanceMeters>
          </Trackpoint>
          <Trackpoint>
            <Time>2022-07-17T08:49:23.000Z</Time>
            <Position>
              <LatitudeDegrees>43.4722445905208587646484375</LatitudeDegrees>
              <LongitudeDegrees>-5.12385900132358074188232421875</LongitudeDegrees>
            </Position>
            <AltitudeMeters>71.1999969482421875</AltitudeMeters>
            <DistanceMeters>NAN</DistanceMeters>
          </Trackpoint>
          <Trackpoint>
            <Time>2022-07-17T08:49:26.000Z</Time>
            <Position>
              <LatitudeDegrees>43.47238917835056781768798828125</LatitudeDegrees>
              <LongitudeDegrees>-5.1238602586090564727783203125</LongitudeDegrees>
            </Position>
            <AltitudeMeters>70.59999847412109375</AltitudeMeters>
            <DistanceMeters>NAN</DistanceMeters>
          </Trackpoint>
          <Trackpoint>
            <Time>2022-07-17T08:49:28.000Z</Time>
            <Position>
              <LatitudeDegrees>43.4724807925522327423095703125</LatitudeDegrees>
              <LongitudeDegrees>-5.12390099465847015380859375</LongitudeDegrees>
            </Position>
            <AltitudeMeters>70</AltitudeMeters>
            <DistanceMeters>NAN</DistanceMeters>
          </Trackpoint>
          <Trackpoint>
            <Time>2022-07-17T08:49:30.000Z</Time>
            <Position>
              <LatitudeDegrees>43.472567461431026458740234375</LatitudeDegrees>
              <LongitudeDegrees>-5.1239698939025402069091796875</LongitudeDegrees>
            </Position>
            <AltitudeMeters>69.8000030517578125</AltitudeMeters>
            <DistanceMeters>NAN</DistanceMeters>
          </Trackpoint>
          <Trackpoint>
            <Time>2022-07-17T08:49:31.000Z</Time>
            <Position>
              <LatitudeDegrees>43.47259839065372943878173828125</LatitudeDegrees>
              <LongitudeDegrees>-5.12400015257298946380615234375</LongitudeDegrees>
            </Position>
            <AltitudeMeters>69.8000030517578125</AltitudeMeters>
            <DistanceMeters>NAN</DistanceMeters>
          </Trackpoint>
          <Trackpoint>
            <Time>2022-07-17T08:49:32.000Z</Time>
            <Position>
              <LatitudeDegrees>43.47263191826641559600830078125</LatitudeDegrees>
              <LongitudeDegrees>-5.12403954751789569854736328125</LongitudeDegrees>
            </Position>
            <AltitudeMeters>69.8000030517578125</AltitudeMeters>
            <DistanceMeters>NAN</DistanceMeters>
          </Trackpoint>
          <Trackpoint>
            <Time>2022-07-17T08:49:33.000Z</Time>
            <Position>
              <LatitudeDegrees>43.47265907563269138336181640625</LatitudeDegrees>
              <LongitudeDegrees>-5.12408430688083171844482421875</LongitudeDegrees>
            </Position>
            <AltitudeMeters>69.8000030517578125</AltitudeMeters>
            <DistanceMeters>NAN</DistanceMeters>
          </Trackpoint>
          <Trackpoint>
            <Time>2022-07-17T08:49:37.000Z</Time>
            <Position>
              <LatitudeDegrees>43.4727305732667446136474609375</LatitudeDegrees>
              <LongitudeDegrees>-5.12426535598933696746826171875</LongitudeDegrees>
            </Position>
            <AltitudeMeters>69.8000030517578125</AltitudeMeters>
            <DistanceMeters>NAN</DistanceMeters>
          </Trackpoint>
          <Trackpoint>
            <Time>2022-07-17T08:49:41.000Z</Time>
            <Position>
              <LatitudeDegrees>43.4727684594690799713134765625</LatitudeDegrees>
              <LongitudeDegrees>-5.12438002042472362518310546875</LongitudeDegrees>
            </Position>
            <AltitudeMeters>70</AltitudeMeters>
            <DistanceMeters>NAN</DistanceMeters>
          </Trackpoint>
          <Trackpoint>
            <Time>2022-07-17T08:49:42.000Z</Time>
            <Position>
              <LatitudeDegrees>43.4727798588573932647705078125</LatitudeDegrees>
              <LongitudeDegrees>-5.124402232468128204345703125</LongitudeDegrees>
            </Position>
            <AltitudeMeters>70</AltitudeMeters>
            <DistanceMeters>NAN</DistanceMeters>
          </Trackpoint>
          <Trackpoint>
            <Time>2022-07-17T08:49:49.000Z</Time>
            <Position>
              <LatitudeDegrees>43.47284473478794097900390625</LatitudeDegrees>
              <LongitudeDegrees>-5.12456978671252727508544921875</LongitudeDegrees>
            </Position>
            <AltitudeMeters>70.8000030517578125</AltitudeMeters>
            <DistanceMeters>NAN</DistanceMeters>
          </Trackpoint>
          <Trackpoint>
            <Time>2022-07-17T08:49:50.000Z</Time>
            <Position>
              <LatitudeDegrees>43.47285370342433452606201171875</LatitudeDegrees>
              <LongitudeDegrees>-5.12459007091820240020751953125</LongitudeDegrees>
            </Position>
            <AltitudeMeters>71</AltitudeMeters>
            <DistanceMeters>NAN</DistanceMeters>
          </Trackpoint>
          <Trackpoint>
            <Time>2022-07-17T08:49:56.000Z</Time>
            <Position>
              <LatitudeDegrees>43.47290801815688610076904296875</LatitudeDegrees>
              <LongitudeDegrees>-5.124706327915191650390625</LongitudeDegrees>
            </Position>
            <AltitudeMeters>71.59999847412109375</AltitudeMeters>
            <DistanceMeters>NAN</DistanceMeters>
          </Trackpoint>
          <Trackpoint>
            <Time>2022-07-17T08:50:01.000Z</Time>
            <Position>
              <LatitudeDegrees>43.472945652902126312255859375</LatitudeDegrees>
              <LongitudeDegrees>-5.124764330685138702392578125</LongitudeDegrees>
            </Position>
            <AltitudeMeters>72</AltitudeMeters>
            <DistanceMeters>NAN</DistanceMeters>
          </Trackpoint>
          <Trackpoint>
            <Time>2022-07-17T08:50:03.000Z</Time>
            <Position>
              <LatitudeDegrees>43.4729632548987865447998046875</LatitudeDegrees>
              <LongitudeDegrees>-5.12479014694690704345703125</LongitudeDegrees>
            </Position>
            <AltitudeMeters>72.1999969482421875</AltitudeMeters>
            <DistanceMeters>NAN</DistanceMeters>
          </Trackpoint>
          <Trackpoint>
            <Time>2022-07-17T08:50:10.000Z</Time>
            <Position>
              <LatitudeDegrees>43.47301916219294071197509765625</LatitudeDegrees>
              <LongitudeDegrees>-5.1248959265649318695068359375</LongitudeDegrees>
            </Position>
            <AltitudeMeters>73</AltitudeMeters>
            <DistanceMeters>NAN</DistanceMeters>
          </Trackpoint>
          <Trackpoint>
            <Time>2022-07-17T08:50:11.000Z</Time>
            <Position>
              <LatitudeDegrees>43.4730256162583827972412109375</LatitudeDegrees>
              <LongitudeDegrees>-5.12491009198129177093505859375</LongitudeDegrees>
            </Position>
            <AltitudeMeters>73</AltitudeMeters>
            <DistanceMeters>NAN</DistanceMeters>
          </Trackpoint>
          <Trackpoint>
            <Time>2022-07-17T08:50:15.000Z</Time>
            <Position>
              <LatitudeDegrees>43.4730474092066287994384765625</LatitudeDegrees>
              <LongitudeDegrees>-5.1249758899211883544921875</LongitudeDegrees>
            </Position>
            <AltitudeMeters>73.40000152587890625</AltitudeMeters>
            <DistanceMeters>NAN</DistanceMeters>
          </Trackpoint>
          <Trackpoint>
            <Time>2022-07-17T08:50:16.000Z</Time>
            <Position>
              <LatitudeDegrees>43.4730510972440242767333984375</LatitudeDegrees>
              <LongitudeDegrees>-5.12499332427978515625</LongitudeDegrees>
            </Position>
            <AltitudeMeters>73.40000152587890625</AltitudeMeters>
            <DistanceMeters>NAN</DistanceMeters>
          </Trackpoint>
          <Trackpoint>
            <Time>2022-07-17T08:50:18.000Z</Time>
            <Position>
              <LatitudeDegrees>43.4730638377368450164794921875</LatitudeDegrees>
              <LongitudeDegrees>-5.12502877973020076751708984375</LongitudeDegrees>
            </Position>
            <AltitudeMeters>73.59999847412109375</AltitudeMeters>
            <DistanceMeters>NAN</DistanceMeters>
          </Trackpoint>
          <Trackpoint>
            <Time>2022-07-17T08:50:22.000Z</Time>
            <Position>
              <LatitudeDegrees>43.4730873070657253265380859375</LatitudeDegrees>
              <LongitudeDegrees>-5.12510119937360286712646484375</LongitudeDegrees>
            </Position>
            <AltitudeMeters>73.8000030517578125</AltitudeMeters>
            <DistanceMeters>NAN</DistanceMeters>
          </Trackpoint>
          <Trackpoint>
            <Time>2022-07-17T08:50:23.000Z</Time>
            <Position>
              <LatitudeDegrees>43.47309409640729427337646484375</LatitudeDegrees>
              <LongitudeDegrees>-5.125117711722850799560546875</LongitudeDegrees>
            </Position>
            <AltitudeMeters>73.8000030517578125</AltitudeMeters>
            <DistanceMeters>NAN</DistanceMeters>
          </Trackpoint>
          <Trackpoint>
            <Time>2022-07-17T08:50:25.000Z</Time>
            <Position>
              <LatitudeDegrees>43.4731121174991130828857421875</LatitudeDegrees>
              <LongitudeDegrees>-5.1251430250704288482666015625</LongitudeDegrees>
            </Position>
            <AltitudeMeters>74</AltitudeMeters>
            <DistanceMeters>NAN</DistanceMeters>
          </Trackpoint>
          <Trackpoint>
            <Time>2022-07-17T08:50:26.000Z</Time>
            <Position>
              <LatitudeDegrees>43.47312276251614093780517578125</LatitudeDegrees>
              <LongitudeDegrees>-5.125165320932865142822265625</LongitudeDegrees>
            </Position>
            <AltitudeMeters>74.1999969482421875</AltitudeMeters>
            <DistanceMeters>NAN</DistanceMeters>
          </Trackpoint>
          <Trackpoint>
            <Time>2022-07-17T08:50:29.000Z</Time>
            <Position>
              <LatitudeDegrees>43.473150841891765594482421875</LatitudeDegrees>
              <LongitudeDegrees>-5.12520848773419857025146484375</LongitudeDegrees>
            </Position>
            <AltitudeMeters>74.59999847412109375</AltitudeMeters>
            <DistanceMeters>NAN</DistanceMeters>
          </Trackpoint>
          <Trackpoint>
            <Time>2022-07-17T08:50:35.000Z</Time>
            <Position>
              <LatitudeDegrees>43.47320549190044403076171875</LatitudeDegrees>
              <LongitudeDegrees>-5.12530471198260784149169921875</LongitudeDegrees>
            </Position>
            <AltitudeMeters>75.40000152587890625</AltitudeMeters>
            <DistanceMeters>NAN</DistanceMeters>
          </Trackpoint>
          <Trackpoint>
            <Time>2022-07-17T08:50:37.000Z</Time>
            <Position>
              <LatitudeDegrees>43.47322569228708744049072265625</LatitudeDegrees>
              <LongitudeDegrees>-5.12533572502434253692626953125</LongitudeDegrees>
            </Position>
            <AltitudeMeters>75.8000030517578125</AltitudeMeters>
            <DistanceMeters>NAN</DistanceMeters>
          </Trackpoint>
          <Trackpoint>
            <Time>2022-07-17T08:50:38.000Z</Time>
            <Position>
              <LatitudeDegrees>43.47323558293282985687255859375</LatitudeDegrees>
              <LongitudeDegrees>-5.12534829787909984588623046875</LongitudeDegrees>
            </Position>
            <AltitudeMeters>76</AltitudeMeters>
            <DistanceMeters>NAN</DistanceMeters>
          </Trackpoint>
          <Trackpoint>
            <Time>2022-07-17T08:50:39.000Z</Time>
            <Position>
              <LatitudeDegrees>43.47324513830244541168212890625</LatitudeDegrees>
              <LongitudeDegrees>-5.12536070309579372406005859375</LongitudeDegrees>
            </Position>
            <AltitudeMeters>76.1999969482421875</AltitudeMeters>
            <DistanceMeters>NAN</DistanceMeters>
          </Trackpoint>
          <Trackpoint>
            <Time>2022-07-17T08:50:40.000Z</Time>
            <Position>
              <LatitudeDegrees>43.47325737588107585906982421875</LatitudeDegrees>
              <LongitudeDegrees>-5.12537352740764617919921875</LongitudeDegrees>
            </Position>
            <AltitudeMeters>76.40000152587890625</AltitudeMeters>
            <DistanceMeters>NAN</DistanceMeters>
          </Trackpoint>
          <Trackpoint>
            <Time>2022-07-17T08:50:42.000Z</Time>
            <Position>
              <LatitudeDegrees>43.47328034229576587677001953125</LatitudeDegrees>
              <LongitudeDegrees>-5.1253916323184967041015625</LongitudeDegrees>
            </Position>
            <AltitudeMeters>76.8000030517578125</AltitudeMeters>
            <DistanceMeters>NAN</DistanceMeters>
          </Trackpoint>
          <Trackpoint>
            <Time>2022-07-17T08:50:46.000Z</Time>
            <Position>
              <LatitudeDegrees>43.4733246825635433197021484375</LatitudeDegrees>
              <LongitudeDegrees>-5.12544116936624050140380859375</LongitudeDegrees>
            </Position>
            <AltitudeMeters>77.59999847412109375</AltitudeMeters>
            <DistanceMeters>NAN</DistanceMeters>
          </Trackpoint>
          <Trackpoint>
            <Time>2022-07-17T08:50:47.000Z</Time>
            <Position>
              <LatitudeDegrees>43.47334052436053752899169921875</LatitudeDegrees>
              <LongitudeDegrees>-5.12544385157525539398193359375</LongitudeDegrees>
            </Position>
            <AltitudeMeters>77.59999847412109375</AltitudeMeters>
            <DistanceMeters>NAN</DistanceMeters>
          </Trackpoint>
          <Trackpoint>
            <Time>2022-07-17T08:50:53.000Z</Time>
            <Position>
              <LatitudeDegrees>43.47341277636587619781494140625</LatitudeDegrees>
              <LongitudeDegrees>-5.12542507611215114593505859375</LongitudeDegrees>
            </Position>
            <AltitudeMeters>78.59999847412109375</AltitudeMeters>
            <DistanceMeters>NAN</DistanceMeters>
          </Trackpoint>
          <Trackpoint>
            <Time>2022-07-17T08:50:54.000Z</Time>
            <Position>
              <LatitudeDegrees>43.4734239242970943450927734375</LatitudeDegrees>
              <LongitudeDegrees>-5.1254219748079776763916015625</LongitudeDegrees>
            </Position>
            <AltitudeMeters>78.8000030517578125</AltitudeMeters>
            <DistanceMeters>NAN</DistanceMeters>
          </Trackpoint>
          <Trackpoint>
            <Time>2022-07-17T08:50:58.000Z</Time>
            <Position>
              <LatitudeDegrees>43.473463989794254302978515625</LatitudeDegrees>
              <LongitudeDegrees>-5.125423483550548553466796875</LongitudeDegrees>
            </Position>
            <AltitudeMeters>79.1999969482421875</AltitudeMeters>
            <DistanceMeters>NAN</DistanceMeters>
          </Trackpoint>
          <Trackpoint>
            <Time>2022-07-17T08:51:01.000Z</Time>
            <Position>
              <LatitudeDegrees>43.473493494093418121337890625</LatitudeDegrees>
              <LongitudeDegrees>-5.1254206337034702301025390625</LongitudeDegrees>
            </Position>
            <AltitudeMeters>79.59999847412109375</AltitudeMeters>
            <DistanceMeters>NAN</DistanceMeters>
          </Trackpoint>
          <Trackpoint>
            <Time>2022-07-17T08:51:02.000Z</Time>
            <Position>
              <LatitudeDegrees>43.4735043905675411224365234375</LatitudeDegrees>
              <LongitudeDegrees>-5.1254206337034702301025390625</LongitudeDegrees>
            </Position>
            <AltitudeMeters>79.8000030517578125</AltitudeMeters>
            <DistanceMeters>NAN</DistanceMeters>
          </Trackpoint>
          <Trackpoint>
            <Time>2022-07-17T08:51:05.000Z</Time>
            <Position>
              <LatitudeDegrees>43.47353850491344928741455078125</LatitudeDegrees>
              <LongitudeDegrees>-5.12542356736958026885986328125</LongitudeDegrees>
            </Position>
            <AltitudeMeters>80.1999969482421875</AltitudeMeters>
            <DistanceMeters>NAN</DistanceMeters>
          </Trackpoint>
          <Trackpoint>
            <Time>2022-07-17T08:51:10.000Z</Time>
            <Position>
              <LatitudeDegrees>43.47357588820159435272216796875</LatitudeDegrees>
              <LongitudeDegrees>-5.1254290156066417694091796875</LongitudeDegrees>
            </Position>
            <AltitudeMeters>80.59999847412109375</AltitudeMeters>
            <DistanceMeters>NAN</DistanceMeters>
          </Trackpoint>
          <Trackpoint>
            <Time>2022-07-17T08:51:12.000Z</Time>
            <Position>
              <LatitudeDegrees>43.4735989384353160858154296875</LatitudeDegrees>
              <LongitudeDegrees>-5.12543655931949615478515625</LongitudeDegrees>
            </Position>
            <AltitudeMeters>81</AltitudeMeters>
            <DistanceMeters>NAN</DistanceMeters>
          </Trackpoint>
          <Trackpoint>
            <Time>2022-07-17T08:51:13.000Z</Time>
            <Position>
              <LatitudeDegrees>43.4736098349094390869140625</LatitudeDegrees>
              <LongitudeDegrees>-5.1254487968981266021728515625</LongitudeDegrees>
            </Position>
            <AltitudeMeters>81</AltitudeMeters>
            <DistanceMeters>NAN</DistanceMeters>
          </Trackpoint>
          <Trackpoint>
            <Time>2022-07-17T08:51:17.000Z</Time>
            <Position>
              <LatitudeDegrees>43.47363690845668315887451171875</LatitudeDegrees>
              <LongitudeDegrees>-5.12548861093819141387939453125</LongitudeDegrees>
            </Position>
            <AltitudeMeters>81.59999847412109375</AltitudeMeters>
            <DistanceMeters>NAN</DistanceMeters>
          </Trackpoint>
          <Trackpoint>
            <Time>2022-07-17T08:51:19.000Z</Time>
            <Position>
              <LatitudeDegrees>43.47365031950175762176513671875</LatitudeDegrees>
              <LongitudeDegrees>-5.125493220984935760498046875</LongitudeDegrees>
            </Position>
            <AltitudeMeters>82.1999969482421875</AltitudeMeters>
            <DistanceMeters>NAN</DistanceMeters>
          </Trackpoint>
          <Trackpoint>
            <Time>2022-07-17T08:51:22.000Z</Time>
            <Position>
              <LatitudeDegrees>43.47366993315517902374267578125</LatitudeDegrees>
              <LongitudeDegrees>-5.12549397535622119903564453125</LongitudeDegrees>
            </Position>
            <AltitudeMeters>82.40000152587890625</AltitudeMeters>
            <DistanceMeters>NAN</DistanceMeters>
          </Trackpoint>
          <Trackpoint>
            <Time>2022-07-17T08:51:24.000Z</Time>
            <Position>
              <LatitudeDegrees>43.47368602640926837921142578125</LatitudeDegrees>
              <LongitudeDegrees>-5.12549548409879207611083984375</LongitudeDegrees>
            </Position>
            <AltitudeMeters>82.59999847412109375</AltitudeMeters>
            <DistanceMeters>NAN</DistanceMeters>
          </Trackpoint>
          <Trackpoint>
            <Time>2022-07-17T08:51:25.000Z</Time>
            <Position>
              <LatitudeDegrees>43.4736981801688671112060546875</LatitudeDegrees>
              <LongitudeDegrees>-5.125496573746204376220703125</LongitudeDegrees>
            </Position>
            <AltitudeMeters>82.8000030517578125</AltitudeMeters>
            <DistanceMeters>NAN</DistanceMeters>
          </Trackpoint>
          <Trackpoint>
            <Time>2022-07-17T08:51:29.000Z</Time>
            <Position>
              <LatitudeDegrees>43.47374117933213710784912109375</LatitudeDegrees>
              <LongitudeDegrees>-5.12550537474453449249267578125</LongitudeDegrees>
            </Position>
            <AltitudeMeters>83.1999969482421875</AltitudeMeters>
            <DistanceMeters>NAN</DistanceMeters>
          </Trackpoint>
          <Trackpoint>
            <Time>2022-07-17T08:51:31.000Z</Time>
            <Position>
              <LatitudeDegrees>43.47376381047070026397705078125</LatitudeDegrees>
              <LongitudeDegrees>-5.125517360866069793701171875</LongitudeDegrees>
            </Position>
            <AltitudeMeters>83.40000152587890625</AltitudeMeters>
            <DistanceMeters>NAN</DistanceMeters>
          </Trackpoint>
          <Trackpoint>
            <Time>2022-07-17T08:51:32.000Z</Time>
            <Position>
              <LatitudeDegrees>43.473773784935474395751953125</LatitudeDegrees>
              <LongitudeDegrees>-5.12552431784570217132568359375</LongitudeDegrees>
            </Position>
            <AltitudeMeters>83.59999847412109375</AltitudeMeters>
            <DistanceMeters>NAN</DistanceMeters>
          </Trackpoint>
          <Trackpoint>
            <Time>2022-07-17T08:51:36.000Z</Time>
            <Position>
              <LatitudeDegrees>43.47381963394582271575927734375</LatitudeDegrees>
              <LongitudeDegrees>-5.1255242340266704559326171875</LongitudeDegrees>
            </Position>
            <AltitudeMeters>84.40000152587890625</AltitudeMeters>
            <DistanceMeters>NAN</DistanceMeters>
          </Trackpoint>
          <Trackpoint>
            <Time>2022-07-17T08:51:38.000Z</Time>
            <Position>
              <LatitudeDegrees>43.4738487191498279571533203125</LatitudeDegrees>
              <LongitudeDegrees>-5.125522054731845855712890625</LongitudeDegrees>
            </Position>
            <AltitudeMeters>84.59999847412109375</AltitudeMeters>
            <DistanceMeters>NAN</DistanceMeters>
          </Trackpoint>
          <Trackpoint>
            <Time>2022-07-17T08:51:41.000Z</Time>
            <Position>
              <LatitudeDegrees>43.47388484515249729156494140625</LatitudeDegrees>
              <LongitudeDegrees>-5.12550235725939273834228515625</LongitudeDegrees>
            </Position>
            <AltitudeMeters>85.1999969482421875</AltitudeMeters>
            <DistanceMeters>NAN</DistanceMeters>
          </Trackpoint>
          <Trackpoint>
            <Time>2022-07-17T08:51:42.000Z</Time>
            <Position>
              <LatitudeDegrees>43.47389942966401576995849609375</LatitudeDegrees>
              <LongitudeDegrees>-5.125497244298458099365234375</LongitudeDegrees>
            </Position>
            <AltitudeMeters>85.40000152587890625</AltitudeMeters>
            <DistanceMeters>NAN</DistanceMeters>
          </Trackpoint>
          <Trackpoint>
            <Time>2022-07-17T08:51:45.000Z</Time>
            <Position>
              <LatitudeDegrees>43.47392658703029155731201171875</LatitudeDegrees>
              <LongitudeDegrees>-5.125484168529510498046875</LongitudeDegrees>
            </Position>
            <AltitudeMeters>85.8000030517578125</AltitudeMeters>
            <DistanceMeters>NAN</DistanceMeters>
          </Trackpoint>
          <Trackpoint>
            <Time>2022-07-17T08:51:51.000Z</Time>
            <Position>
              <LatitudeDegrees>43.4739959053695201873779296875</LatitudeDegrees>
              <LongitudeDegrees>-5.1254682429134845733642578125</LongitudeDegrees>
            </Position>
            <AltitudeMeters>86.59999847412109375</AltitudeMeters>
            <DistanceMeters>NAN</DistanceMeters>
          </Trackpoint>
          <Trackpoint>
            <Time>2022-07-17T08:51:52.000Z</Time>
            <Position>
              <LatitudeDegrees>43.47401149570941925048828125</LatitudeDegrees>
              <LongitudeDegrees>-5.12546631507575511932373046875</LongitudeDegrees>
            </Position>
            <AltitudeMeters>86.59999847412109375</AltitudeMeters>
            <DistanceMeters>NAN</DistanceMeters>
          </Trackpoint>
          <Trackpoint>
            <Time>2022-07-17T08:51:58.000Z</Time>
            <Position>
              <LatitudeDegrees>43.47412238828837871551513671875</LatitudeDegrees>
              <LongitudeDegrees>-5.1254774630069732666015625</LongitudeDegrees>
            </Position>
            <AltitudeMeters>87.40000152587890625</AltitudeMeters>
            <DistanceMeters>NAN</DistanceMeters>
          </Trackpoint>
          <Trackpoint>
            <Time>2022-07-17T08:51:59.000Z</Time>
            <Position>
              <LatitudeDegrees>43.4741383977234363555908203125</LatitudeDegrees>
              <LongitudeDegrees>-5.12548307888209819793701171875</LongitudeDegrees>
            </Position>
            <AltitudeMeters>87.40000152587890625</AltitudeMeters>
            <DistanceMeters>NAN</DistanceMeters>
          </Trackpoint>
          <Trackpoint>
            <Time>2022-07-17T08:52:00.000Z</Time>
            <Position>
              <LatitudeDegrees>43.474153988063335418701171875</LatitudeDegrees>
              <LongitudeDegrees>-5.1254907064139842987060546875</LongitudeDegrees>
            </Position>
            <AltitudeMeters>87.59999847412109375</AltitudeMeters>
            <DistanceMeters>NAN</DistanceMeters>
          </Trackpoint>
          <Trackpoint>
            <Time>2022-07-17T08:52:05.000Z</Time>
            <Position>
              <LatitudeDegrees>43.47420461475849151611328125</LatitudeDegrees>
              <LongitudeDegrees>-5.1255901157855987548828125</LongitudeDegrees>
            </Position>
            <AltitudeMeters>88</AltitudeMeters>
            <DistanceMeters>NAN</DistanceMeters>
          </Trackpoint>
          <Trackpoint>
            <Time>2022-07-17T08:52:09.000Z</Time>
            <Position>
              <LatitudeDegrees>43.47425783984363079071044921875</LatitudeDegrees>
              <LongitudeDegrees>-5.12564082629978656768798828125</LongitudeDegrees>
            </Position>
            <AltitudeMeters>88.40000152587890625</AltitudeMeters>
            <DistanceMeters>NAN</DistanceMeters>
          </Trackpoint>
          <Trackpoint>
            <Time>2022-07-17T08:52:12.000Z</Time>
            <Position>
              <LatitudeDegrees>43.47430075518786907196044921875</LatitudeDegrees>
              <LongitudeDegrees>-5.1256741024553775787353515625</LongitudeDegrees>
            </Position>
            <AltitudeMeters>88.59999847412109375</AltitudeMeters>
            <DistanceMeters>NAN</DistanceMeters>
          </Trackpoint>
          <Trackpoint>
            <Time>2022-07-17T08:52:16.000Z</Time>
            <Position>
              <LatitudeDegrees>43.47435942851006984710693359375</LatitudeDegrees>
              <LongitudeDegrees>-5.1257150061428546905517578125</LongitudeDegrees>
            </Position>
            <AltitudeMeters>88.8000030517578125</AltitudeMeters>
            <DistanceMeters>NAN</DistanceMeters>
          </Trackpoint>
          <Trackpoint>
            <Time>2022-07-17T08:52:20.000Z</Time>
            <Position>
              <LatitudeDegrees>43.47443939186632633209228515625</LatitudeDegrees>
              <LongitudeDegrees>-5.1257575862109661102294921875</LongitudeDegrees>
            </Position>
            <AltitudeMeters>88.8000030517578125</AltitudeMeters>
            <DistanceMeters>NAN</DistanceMeters>
          </Trackpoint>
          <Trackpoint>
            <Time>2022-07-17T08:52:21.000Z</Time>
            <Position>
              <LatitudeDegrees>43.47447023726999759674072265625</LatitudeDegrees>
              <LongitudeDegrees>-5.12576655484735965728759765625</LongitudeDegrees>
            </Position>
            <AltitudeMeters>88.8000030517578125</AltitudeMeters>
            <DistanceMeters>NAN</DistanceMeters>
          </Trackpoint>
          <Trackpoint>
            <Time>2022-07-17T08:52:23.000Z</Time>
            <Position>
              <LatitudeDegrees>43.4745313413441181182861328125</LatitudeDegrees>
              <LongitudeDegrees>-5.1258239708840847015380859375</LongitudeDegrees>
            </Position>
            <AltitudeMeters>88.59999847412109375</AltitudeMeters>
            <DistanceMeters>NAN</DistanceMeters>
          </Trackpoint>
          <Trackpoint>
            <Time>2022-07-17T08:52:27.000Z</Time>
            <Position>
              <LatitudeDegrees>43.474638797342777252197265625</LatitudeDegrees>
              <LongitudeDegrees>-5.12596420012414455413818359375</LongitudeDegrees>
            </Position>
            <AltitudeMeters>87.59999847412109375</AltitudeMeters>
            <DistanceMeters>NAN</DistanceMeters>
          </Trackpoint>
          <Trackpoint>
            <Time>2022-07-17T08:52:29.000Z</Time>
            <Position>
              <LatitudeDegrees>43.47469009459018707275390625</LatitudeDegrees>
              <LongitudeDegrees>-5.12602656148374080657958984375</LongitudeDegrees>
            </Position>
            <AltitudeMeters>87</AltitudeMeters>
            <DistanceMeters>NAN</DistanceMeters>
          </Trackpoint>
          <Trackpoint>
            <Time>2022-07-17T08:52:31.000Z</Time>
            <Position>
              <LatitudeDegrees>43.4747422300279140472412109375</LatitudeDegrees>
              <LongitudeDegrees>-5.12607492506504058837890625</LongitudeDegrees>
            </Position>
            <AltitudeMeters>86.59999847412109375</AltitudeMeters>
            <DistanceMeters>NAN</DistanceMeters>
          </Trackpoint>
          <Trackpoint>
            <Time>2022-07-17T08:52:34.000Z</Time>
            <Position>
              <LatitudeDegrees>43.47482152283191680908203125</LatitudeDegrees>
              <LongitudeDegrees>-5.1261404715478420257568359375</LongitudeDegrees>
            </Position>
            <AltitudeMeters>86</AltitudeMeters>
            <DistanceMeters>NAN</DistanceMeters>
          </Trackpoint>
          <Trackpoint>
            <Time>2022-07-17T08:52:36.000Z</Time>
            <Position>
              <LatitudeDegrees>43.47489620558917522430419921875</LatitudeDegrees>
              <LongitudeDegrees>-5.1261974684894084930419921875</LongitudeDegrees>
            </Position>
            <AltitudeMeters>85.40000152587890625</AltitudeMeters>
            <DistanceMeters>NAN</DistanceMeters>
          </Trackpoint>
          <Trackpoint>
            <Time>2022-07-17T08:52:39.000Z</Time>
            <Position>
              <LatitudeDegrees>43.47503836266696453094482421875</LatitudeDegrees>
              <LongitudeDegrees>-5.12630115263164043426513671875</LongitudeDegrees>
            </Position>
            <AltitudeMeters>84.8000030517578125</AltitudeMeters>
            <DistanceMeters>NAN</DistanceMeters>
          </Trackpoint>
          <Trackpoint>
            <Time>2022-07-17T08:52:40.000Z</Time>
            <Position>
              <LatitudeDegrees>43.4750838764011859893798828125</LatitudeDegrees>
              <LongitudeDegrees>-5.12634675018489360809326171875</LongitudeDegrees>
            </Position>
            <AltitudeMeters>84.40000152587890625</AltitudeMeters>
            <DistanceMeters>NAN</DistanceMeters>
          </Trackpoint>
          <Trackpoint>
            <Time>2022-07-17T08:52:42.000Z</Time>
            <Position>
              <LatitudeDegrees>43.47515872679650783538818359375</LatitudeDegrees>
              <LongitudeDegrees>-5.12642562389373779296875</LongitudeDegrees>
            </Position>
            <AltitudeMeters>83.1999969482421875</AltitudeMeters>
            <DistanceMeters>NAN</DistanceMeters>
          </Trackpoint>
          <Trackpoint>
            <Time>2022-07-17T08:52:44.000Z</Time>
            <Position>
              <LatitudeDegrees>43.47524740733206272125244140625</LatitudeDegrees>
              <LongitudeDegrees>-5.126506425440311431884765625</LongitudeDegrees>
            </Position>
            <AltitudeMeters>81.59999847412109375</AltitudeMeters>
            <DistanceMeters>NAN</DistanceMeters>
          </Trackpoint>
          <Trackpoint>
            <Time>2022-07-17T08:52:46.000Z</Time>
            <Position>
              <LatitudeDegrees>43.47531429491937160491943359375</LatitudeDegrees>
              <LongitudeDegrees>-5.126571469008922576904296875</LongitudeDegrees>
            </Position>
            <AltitudeMeters>80.59999847412109375</AltitudeMeters>
            <DistanceMeters>NAN</DistanceMeters>
          </Trackpoint>
          <Trackpoint>
            <Time>2022-07-17T08:52:48.000Z</Time>
            <Position>
              <LatitudeDegrees>43.4753651730716228485107421875</LatitudeDegrees>
              <LongitudeDegrees>-5.12663357891142368316650390625</LongitudeDegrees>
            </Position>
            <AltitudeMeters>79</AltitudeMeters>
            <DistanceMeters>NAN</DistanceMeters>
          </Trackpoint>
          <Trackpoint>
            <Time>2022-07-17T08:52:51.000Z</Time>
            <Position>
              <LatitudeDegrees>43.47545578144490718841552734375</LatitudeDegrees>
              <LongitudeDegrees>-5.126750171184539794921875</LongitudeDegrees>
            </Position>
            <AltitudeMeters>77.8000030517578125</AltitudeMeters>
            <DistanceMeters>NAN</DistanceMeters>
          </Trackpoint>
          <Trackpoint>
            <Time>2022-07-17T08:52:55.000Z</Time>
            <Position>
              <LatitudeDegrees>43.4755468927323818206787109375</LatitudeDegrees>
              <LongitudeDegrees>-5.126885287463665008544921875</LongitudeDegrees>
            </Position>
            <AltitudeMeters>76.40000152587890625</AltitudeMeters>
            <DistanceMeters>NAN</DistanceMeters>
          </Trackpoint>
          <Trackpoint>
            <Time>2022-07-17T08:52:57.000Z</Time>
            <Position>
              <LatitudeDegrees>43.4755978547036647796630859375</LatitudeDegrees>
              <LongitudeDegrees>-5.1269431225955486297607421875</LongitudeDegrees>
            </Position>
            <AltitudeMeters>76</AltitudeMeters>
            <DistanceMeters>NAN</DistanceMeters>
          </Trackpoint>
          <Trackpoint>
            <Time>2022-07-17T08:53:00.000Z</Time>
            <Position>
              <LatitudeDegrees>43.4757024608552455902099609375</LatitudeDegrees>
              <LongitudeDegrees>-5.1270547695457935333251953125</LongitudeDegrees>
            </Position>
            <AltitudeMeters>75.1999969482421875</AltitudeMeters>
            <DistanceMeters>NAN</DistanceMeters>
          </Trackpoint>
          <Trackpoint>
            <Time>2022-07-17T08:53:03.000Z</Time>
            <Position>
              <LatitudeDegrees>43.4757970087230205535888671875</LatitudeDegrees>
              <LongitudeDegrees>-5.12717991136014461517333984375</LongitudeDegrees>
            </Position>
            <AltitudeMeters>74.1999969482421875</AltitudeMeters>
            <DistanceMeters>NAN</DistanceMeters>
          </Trackpoint>
          <Trackpoint>
            <Time>2022-07-17T08:53:04.000Z</Time>
            <Position>
              <LatitudeDegrees>43.47583598457276821136474609375</LatitudeDegrees>
              <LongitudeDegrees>-5.12723724357783794403076171875</LongitudeDegrees>
            </Position>
            <AltitudeMeters>73.8000030517578125</AltitudeMeters>
            <DistanceMeters>NAN</DistanceMeters>
          </Trackpoint>
          <Trackpoint>
            <Time>2022-07-17T08:53:06.000Z</Time>
            <Position>
              <LatitudeDegrees>43.475914187729358673095703125</LatitudeDegrees>
              <LongitudeDegrees>-5.12732709757983684539794921875</LongitudeDegrees>
            </Position>
            <AltitudeMeters>72.8000030517578125</AltitudeMeters>
            <DistanceMeters>NAN</DistanceMeters>
          </Trackpoint>
          <Trackpoint>
            <Time>2022-07-17T08:53:08.000Z</Time>
            <Position>
              <LatitudeDegrees>43.47599205560982227325439453125</LatitudeDegrees>
              <LongitudeDegrees>-5.12741200625896453857421875</LongitudeDegrees>
            </Position>
            <AltitudeMeters>71.59999847412109375</AltitudeMeters>
            <DistanceMeters>NAN</DistanceMeters>
          </Trackpoint>
          <Trackpoint>
            <Time>2022-07-17T08:53:10.000Z</Time>
            <Position>
              <LatitudeDegrees>43.47607654519379138946533203125</LatitudeDegrees>
              <LongitudeDegrees>-5.1275144331157207489013671875</LongitudeDegrees>
            </Position>
            <AltitudeMeters>70.40000152587890625</AltitudeMeters>
            <DistanceMeters>NAN</DistanceMeters>
          </Trackpoint>
          <Trackpoint>
            <Time>2022-07-17T08:53:12.000Z</Time>
            <Position>
              <LatitudeDegrees>43.47615248523652553558349609375</LatitudeDegrees>
              <LongitudeDegrees>-5.12759280391037464141845703125</LongitudeDegrees>
            </Position>
            <AltitudeMeters>69.1999969482421875</AltitudeMeters>
            <DistanceMeters>NAN</DistanceMeters>
          </Trackpoint>
          <Trackpoint>
            <Time>2022-07-17T08:53:13.000Z</Time>
            <Position>
              <LatitudeDegrees>43.47619053907692432403564453125</LatitudeDegrees>
              <LongitudeDegrees>-5.12762482278048992156982421875</LongitudeDegrees>
            </Position>
            <AltitudeMeters>68.40000152587890625</AltitudeMeters>
            <DistanceMeters>NAN</DistanceMeters>
          </Trackpoint>
          <Trackpoint>
            <Time>2022-07-17T08:53:14.000Z</Time>
            <Position>
              <LatitudeDegrees>43.476223312318325042724609375</LatitudeDegrees>
              <LongitudeDegrees>-5.12764192186295986175537109375</LongitudeDegrees>
            </Position>
            <AltitudeMeters>67.40000152587890625</AltitudeMeters>
            <DistanceMeters>NAN</DistanceMeters>
          </Trackpoint>
          <Trackpoint>
            <Time>2022-07-17T08:53:15.000Z</Time>
            <Position>
              <LatitudeDegrees>43.47627067007124423980712890625</LatitudeDegrees>
              <LongitudeDegrees>-5.127665810286998748779296875</LongitudeDegrees>
            </Position>
            <AltitudeMeters>67</AltitudeMeters>
            <DistanceMeters>NAN</DistanceMeters>
          </Trackpoint>
          <Trackpoint>
            <Time>2022-07-17T08:53:16.000Z</Time>
            <Position>
              <LatitudeDegrees>43.47630218602716922760009765625</LatitudeDegrees>
              <LongitudeDegrees>-5.12768416665494441986083984375</LongitudeDegrees>
            </Position>
            <AltitudeMeters>66.1999969482421875</AltitudeMeters>
            <DistanceMeters>NAN</DistanceMeters>
          </Trackpoint>
          <Trackpoint>
            <Time>2022-07-17T08:53:17.000Z</Time>
            <Position>
              <LatitudeDegrees>43.4763381443917751312255859375</LatitudeDegrees>
              <LongitudeDegrees>-5.12769355438649654388427734375</LongitudeDegrees>
            </Position>
            <AltitudeMeters>65.1999969482421875</AltitudeMeters>
            <DistanceMeters>NAN</DistanceMeters>
          </Trackpoint>
          <Trackpoint>
            <Time>2022-07-17T08:53:18.000Z</Time>
            <Position>
              <LatitudeDegrees>43.47638248465955257415771484375</LatitudeDegrees>
              <LongitudeDegrees>-5.1276968233287334442138671875</LongitudeDegrees>
            </Position>
            <AltitudeMeters>64.59999847412109375</AltitudeMeters>
            <DistanceMeters>NAN</DistanceMeters>
          </Trackpoint>
          <Trackpoint>
            <Time>2022-07-17T08:53:19.000Z</Time>
            <Position>
              <LatitudeDegrees>43.47643109969794750213623046875</LatitudeDegrees>
              <LongitudeDegrees>-5.12769791297614574432373046875</LongitudeDegrees>
            </Position>
            <AltitudeMeters>64.1999969482421875</AltitudeMeters>
            <DistanceMeters>NAN</DistanceMeters>
          </Trackpoint>
          <Trackpoint>
            <Time>2022-07-17T08:53:21.000Z</Time>
            <Position>
              <LatitudeDegrees>43.4765396453440189361572265625</LatitudeDegrees>
              <LongitudeDegrees>-5.12768718414008617401123046875</LongitudeDegrees>
            </Position>
            <AltitudeMeters>63.40000152587890625</AltitudeMeters>
            <DistanceMeters>NAN</DistanceMeters>
          </Trackpoint>
          <Trackpoint>
            <Time>2022-07-17T08:53:24.000Z</Time>
            <Position>
              <LatitudeDegrees>43.47669177688658237457275390625</LatitudeDegrees>
              <LongitudeDegrees>-5.127689950168132781982421875</LongitudeDegrees>
            </Position>
            <AltitudeMeters>62.200000762939453125</AltitudeMeters>
            <DistanceMeters>NAN</DistanceMeters>
          </Trackpoint>
          <Trackpoint>
            <Time>2022-07-17T08:53:26.000Z</Time>
            <Position>
              <LatitudeDegrees>43.47676536999642848968505859375</LatitudeDegrees>
              <LongitudeDegrees>-5.12771786190569400787353515625</LongitudeDegrees>
            </Position>
            <AltitudeMeters>61.59999847412109375</AltitudeMeters>
            <DistanceMeters>NAN</DistanceMeters>
          </Trackpoint>
          <Trackpoint>
            <Time>2022-07-17T08:53:27.000Z</Time>
            <Position>
              <LatitudeDegrees>43.4767882525920867919921875</LatitudeDegrees>
              <LongitudeDegrees>-5.1277494616806507110595703125</LongitudeDegrees>
            </Position>
            <AltitudeMeters>61.40000152587890625</AltitudeMeters>
            <DistanceMeters>NAN</DistanceMeters>
          </Trackpoint>
          <Trackpoint>
            <Time>2022-07-17T08:53:30.000Z</Time>
            <Position>
              <LatitudeDegrees>43.4768472611904144287109375</LatitudeDegrees>
              <LongitudeDegrees>-5.12784459628164768218994140625</LongitudeDegrees>
            </Position>
            <AltitudeMeters>61.200000762939453125</AltitudeMeters>
            <DistanceMeters>NAN</DistanceMeters>
          </Trackpoint>
          <Trackpoint>
            <Time>2022-07-17T08:53:31.000Z</Time>
            <Position>
              <LatitudeDegrees>43.47686360590159893035888671875</LatitudeDegrees>
              <LongitudeDegrees>-5.12787544168531894683837890625</LongitudeDegrees>
            </Position>
            <AltitudeMeters>61.200000762939453125</AltitudeMeters>
            <DistanceMeters>NAN</DistanceMeters>
          </Trackpoint>
          <Trackpoint>
            <Time>2022-07-17T08:53:34.000Z</Time>
            <Position>
              <LatitudeDegrees>43.47688145935535430908203125</LatitudeDegrees>
              <LongitudeDegrees>-5.12799999676644802093505859375</LongitudeDegrees>
            </Position>
            <AltitudeMeters>61.200000762939453125</AltitudeMeters>
            <DistanceMeters>NAN</DistanceMeters>
          </Trackpoint>
          <Trackpoint>
            <Time>2022-07-17T08:53:36.000Z</Time>
            <Position>
              <LatitudeDegrees>43.4768799506127834320068359375</LatitudeDegrees>
              <LongitudeDegrees>-5.128096304833889007568359375</LongitudeDegrees>
            </Position>
            <AltitudeMeters>61</AltitudeMeters>
            <DistanceMeters>NAN</DistanceMeters>
          </Trackpoint>
          <Trackpoint>
            <Time>2022-07-17T08:53:39.000Z</Time>
            <Position>
              <LatitudeDegrees>43.476873077452182769775390625</LatitudeDegrees>
              <LongitudeDegrees>-5.1282674632966518402099609375</LongitudeDegrees>
            </Position>
            <AltitudeMeters>60.799999237060546875</AltitudeMeters>
            <DistanceMeters>NAN</DistanceMeters>
          </Trackpoint>
          <Trackpoint>
            <Time>2022-07-17T08:53:40.000Z</Time>
            <Position>
              <LatitudeDegrees>43.47687131725251674652099609375</LatitudeDegrees>
              <LongitudeDegrees>-5.12832102365791797637939453125</LongitudeDegrees>
            </Position>
            <AltitudeMeters>60.799999237060546875</AltitudeMeters>
            <DistanceMeters>NAN</DistanceMeters>
          </Trackpoint>
          <Trackpoint>
            <Time>2022-07-17T08:53:42.000Z</Time>
            <Position>
              <LatitudeDegrees>43.47685220651328563690185546875</LatitudeDegrees>
              <LongitudeDegrees>-5.12845396064221858978271484375</LongitudeDegrees>
            </Position>
            <AltitudeMeters>60.200000762939453125</AltitudeMeters>
            <DistanceMeters>NAN</DistanceMeters>
          </Trackpoint>
          <Trackpoint>
            <Time>2022-07-17T08:53:44.000Z</Time>
            <Position>
              <LatitudeDegrees>43.476834185421466827392578125</LatitudeDegrees>
              <LongitudeDegrees>-5.12856535613536834716796875</LongitudeDegrees>
            </Position>
            <AltitudeMeters>59.40000152587890625</AltitudeMeters>
            <DistanceMeters>NAN</DistanceMeters>
          </Trackpoint>
          <Trackpoint>
            <Time>2022-07-17T08:53:45.000Z</Time>
            <Position>
              <LatitudeDegrees>43.47682706080377101898193359375</LatitudeDegrees>
              <LongitudeDegrees>-5.12861958704888820648193359375</LongitudeDegrees>
            </Position>
            <AltitudeMeters>59</AltitudeMeters>
            <DistanceMeters>NAN</DistanceMeters>
          </Trackpoint>
          <Trackpoint>
            <Time>2022-07-17T08:53:48.000Z</Time>
            <Position>
              <LatitudeDegrees>43.47681029699742794036865234375</LatitudeDegrees>
              <LongitudeDegrees>-5.1288329064846038818359375</LongitudeDegrees>
            </Position>
            <AltitudeMeters>57.799999237060546875</AltitudeMeters>
            <DistanceMeters>NAN</DistanceMeters>
          </Trackpoint>
          <Trackpoint>
            <Time>2022-07-17T08:53:49.000Z</Time>
            <Position>
              <LatitudeDegrees>43.47681096754968166351318359375</LatitudeDegrees>
              <LongitudeDegrees>-5.128882862627506256103515625</LongitudeDegrees>
            </Position>
            <AltitudeMeters>57.59999847412109375</AltitudeMeters>
            <DistanceMeters>NAN</DistanceMeters>
          </Trackpoint>
          <Trackpoint>
            <Time>2022-07-17T08:53:50.000Z</Time>
            <Position>
              <LatitudeDegrees>43.4768128953874111175537109375</LatitudeDegrees>
              <LongitudeDegrees>-5.12894564308226108551025390625</LongitudeDegrees>
            </Position>
            <AltitudeMeters>57.200000762939453125</AltitudeMeters>
            <DistanceMeters>NAN</DistanceMeters>
          </Trackpoint>
          <Trackpoint>
            <Time>2022-07-17T08:53:51.000Z</Time>
            <Position>
              <LatitudeDegrees>43.47681851126253604888916015625</LatitudeDegrees>
              <LongitudeDegrees>-5.12900331057608127593994140625</LongitudeDegrees>
            </Position>
            <AltitudeMeters>56.59999847412109375</AltitudeMeters>
            <DistanceMeters>NAN</DistanceMeters>
          </Trackpoint>
          <Trackpoint>
            <Time>2022-07-17T08:53:52.000Z</Time>
            <Position>
              <LatitudeDegrees>43.47681918181478977203369140625</LatitudeDegrees>
              <LongitudeDegrees>-5.12907338328659534454345703125</LongitudeDegrees>
            </Position>
            <AltitudeMeters>56.200000762939453125</AltitudeMeters>
            <DistanceMeters>NAN</DistanceMeters>
          </Trackpoint>
          <Trackpoint>
            <Time>2022-07-17T08:53:54.000Z</Time>
            <Position>
              <LatitudeDegrees>43.47682454623281955718994140625</LatitudeDegrees>
              <LongitudeDegrees>-5.129174552857875823974609375</LongitudeDegrees>
            </Position>
            <AltitudeMeters>55.59999847412109375</AltitudeMeters>
            <DistanceMeters>NAN</DistanceMeters>
          </Trackpoint>
          <Trackpoint>
            <Time>2022-07-17T08:53:55.000Z</Time>
            <Position>
              <LatitudeDegrees>43.47682588733732700347900390625</LatitudeDegrees>
              <LongitudeDegrees>-5.12923364527523517608642578125</LongitudeDegrees>
            </Position>
            <AltitudeMeters>55.200000762939453125</AltitudeMeters>
            <DistanceMeters>NAN</DistanceMeters>
          </Trackpoint>
          <Trackpoint>
            <Time>2022-07-17T08:53:57.000Z</Time>
            <Position>
              <LatitudeDegrees>43.476817421615123748779296875</LatitudeDegrees>
              <LongitudeDegrees>-5.12934294529259204864501953125</LongitudeDegrees>
            </Position>
            <AltitudeMeters>54.200000762939453125</AltitudeMeters>
            <DistanceMeters>NAN</DistanceMeters>
          </Trackpoint>
          <Trackpoint>
            <Time>2022-07-17T08:53:59.000Z</Time>
            <Position>
              <LatitudeDegrees>43.4768363647162914276123046875</LatitudeDegrees>
              <LongitudeDegrees>-5.12946188449859619140625</LongitudeDegrees>
            </Position>
            <AltitudeMeters>52.799999237060546875</AltitudeMeters>
            <DistanceMeters>NAN</DistanceMeters>
          </Trackpoint>
          <Trackpoint>
            <Time>2022-07-17T08:54:00.000Z</Time>
            <Position>
              <LatitudeDegrees>43.47684985958039760589599609375</LatitudeDegrees>
              <LongitudeDegrees>-5.12951896525919437408447265625</LongitudeDegrees>
            </Position>
            <AltitudeMeters>52.200000762939453125</AltitudeMeters>
            <DistanceMeters>NAN</DistanceMeters>
          </Trackpoint>
          <Trackpoint>
            <Time>2022-07-17T08:54:01.000Z</Time>
            <Position>
              <LatitudeDegrees>43.47686075605452060699462890625</LatitudeDegrees>
              <LongitudeDegrees>-5.1295673288404941558837890625</LongitudeDegrees>
            </Position>
            <AltitudeMeters>51.59999847412109375</AltitudeMeters>
            <DistanceMeters>NAN</DistanceMeters>
          </Trackpoint>
          <Trackpoint>
            <Time>2022-07-17T08:54:02.000Z</Time>
            <Position>
              <LatitudeDegrees>43.47687098197638988494873046875</LatitudeDegrees>
              <LongitudeDegrees>-5.12962348759174346923828125</LongitudeDegrees>
            </Position>
            <AltitudeMeters>51.200000762939453125</AltitudeMeters>
            <DistanceMeters>NAN</DistanceMeters>
          </Trackpoint>
          <Trackpoint>
            <Time>2022-07-17T08:54:03.000Z</Time>
            <Position>
              <LatitudeDegrees>43.47688104026019573211669921875</LatitudeDegrees>
              <LongitudeDegrees>-5.12968258000910282135009765625</LongitudeDegrees>
            </Position>
            <AltitudeMeters>50.799999237060546875</AltitudeMeters>
            <DistanceMeters>NAN</DistanceMeters>
          </Trackpoint>
          <Trackpoint>
            <Time>2022-07-17T08:54:04.000Z</Time>
            <Position>
              <LatitudeDegrees>43.4768990613520145416259765625</LatitudeDegrees>
              <LongitudeDegrees>-5.12975382618606090545654296875</LongitudeDegrees>
            </Position>
            <AltitudeMeters>50.40000152587890625</AltitudeMeters>
            <DistanceMeters>NAN</DistanceMeters>
          </Trackpoint>
          <Trackpoint>
            <Time>2022-07-17T08:54:06.000Z</Time>
            <Position>
              <LatitudeDegrees>43.47694558091461658477783203125</LatitudeDegrees>
              <LongitudeDegrees>-5.12985206209123134613037109375</LongitudeDegrees>
            </Position>
            <AltitudeMeters>49.59999847412109375</AltitudeMeters>
            <DistanceMeters>NAN</DistanceMeters>
          </Trackpoint>
          <Trackpoint>
            <Time>2022-07-17T08:54:07.000Z</Time>
            <Position>
              <LatitudeDegrees>43.4769801981747150421142578125</LatitudeDegrees>
              <LongitudeDegrees>-5.129909813404083251953125</LongitudeDegrees>
            </Position>
            <AltitudeMeters>49.200000762939453125</AltitudeMeters>
            <DistanceMeters>NAN</DistanceMeters>
          </Trackpoint>
          <Trackpoint>
            <Time>2022-07-17T08:54:08.000Z</Time>
            <Position>
              <LatitudeDegrees>43.47700827755033969879150390625</LatitudeDegrees>
              <LongitudeDegrees>-5.129959098994731903076171875</LongitudeDegrees>
            </Position>
            <AltitudeMeters>48.799999237060546875</AltitudeMeters>
            <DistanceMeters>NAN</DistanceMeters>
          </Trackpoint>
          <Trackpoint>
            <Time>2022-07-17T08:54:10.000Z</Time>
            <Position>
              <LatitudeDegrees>43.47707130946218967437744140625</LatitudeDegrees>
              <LongitudeDegrees>-5.130050294101238250732421875</LongitudeDegrees>
            </Position>
            <AltitudeMeters>48.40000152587890625</AltitudeMeters>
            <DistanceMeters>NAN</DistanceMeters>
          </Trackpoint>
          <Trackpoint>
            <Time>2022-07-17T08:54:11.000Z</Time>
            <Position>
              <LatitudeDegrees>43.4770972095429897308349609375</LatitudeDegrees>
              <LongitudeDegrees>-5.13008591718971729278564453125</LongitudeDegrees>
            </Position>
            <AltitudeMeters>48</AltitudeMeters>
            <DistanceMeters>NAN</DistanceMeters>
          </Trackpoint>
          <Trackpoint>
            <Time>2022-07-17T08:54:13.000Z</Time>
            <Position>
              <LatitudeDegrees>43.477171473205089569091796875</LatitudeDegrees>
              <LongitudeDegrees>-5.13015314005315303802490234375</LongitudeDegrees>
            </Position>
            <AltitudeMeters>46.59999847412109375</AltitudeMeters>
            <DistanceMeters>NAN</DistanceMeters>
          </Trackpoint>
          <Trackpoint>
            <Time>2022-07-17T08:54:15.000Z</Time>
            <Position>
              <LatitudeDegrees>43.4772420488297939300537109375</LatitudeDegrees>
              <LongitudeDegrees>-5.1302030123770236968994140625</LongitudeDegrees>
            </Position>
            <AltitudeMeters>45.59999847412109375</AltitudeMeters>
            <DistanceMeters>NAN</DistanceMeters>
          </Trackpoint>
          <Trackpoint>
            <Time>2022-07-17T08:54:16.000Z</Time>
            <Position>
              <LatitudeDegrees>43.47727834247052669525146484375</LatitudeDegrees>
              <LongitudeDegrees>-5.13022924773395061492919921875</LongitudeDegrees>
            </Position>
            <AltitudeMeters>45.200000762939453125</AltitudeMeters>
            <DistanceMeters>NAN</DistanceMeters>
          </Trackpoint>
          <Trackpoint>
            <Time>2022-07-17T08:54:17.000Z</Time>
            <Position>
              <LatitudeDegrees>43.47730985842645168304443359375</LatitudeDegrees>
              <LongitudeDegrees>-5.130264200270175933837890625</LongitudeDegrees>
            </Position>
            <AltitudeMeters>44.799999237060546875</AltitudeMeters>
            <DistanceMeters>NAN</DistanceMeters>
          </Trackpoint>
          <Trackpoint>
            <Time>2022-07-17T08:54:18.000Z</Time>
            <Position>
              <LatitudeDegrees>43.47733181901276111602783203125</LatitudeDegrees>
              <LongitudeDegrees>-5.130301415920257568359375</LongitudeDegrees>
            </Position>
            <AltitudeMeters>44.40000152587890625</AltitudeMeters>
            <DistanceMeters>NAN</DistanceMeters>
          </Trackpoint>
          <Trackpoint>
            <Time>2022-07-17T08:54:19.000Z</Time>
            <Position>
              <LatitudeDegrees>43.4773667715489864349365234375</LatitudeDegrees>
              <LongitudeDegrees>-5.13035598210990428924560546875</LongitudeDegrees>
            </Position>
            <AltitudeMeters>44</AltitudeMeters>
            <DistanceMeters>NAN</DistanceMeters>
          </Trackpoint>
          <Trackpoint>
            <Time>2022-07-17T08:54:21.000Z</Time>
            <Position>
              <LatitudeDegrees>43.47742100246250629425048828125</LatitudeDegrees>
              <LongitudeDegrees>-5.13045622967183589935302734375</LongitudeDegrees>
            </Position>
            <AltitudeMeters>43.40000152587890625</AltitudeMeters>
            <DistanceMeters>NAN</DistanceMeters>
          </Trackpoint>
          <Trackpoint>
            <Time>2022-07-17T08:54:24.000Z</Time>
            <Position>
              <LatitudeDegrees>43.47748621366918087005615234375</LatitudeDegrees>
              <LongitudeDegrees>-5.13063526712357997894287109375</LongitudeDegrees>
            </Position>
            <AltitudeMeters>42.200000762939453125</AltitudeMeters>
            <DistanceMeters>NAN</DistanceMeters>
          </Trackpoint>
          <Trackpoint>
            <Time>2022-07-17T08:54:26.000Z</Time>
            <Position>
              <LatitudeDegrees>43.47752108238637447357177734375</LatitudeDegrees>
              <LongitudeDegrees>-5.13075747527182102203369140625</LongitudeDegrees>
            </Position>
            <AltitudeMeters>41</AltitudeMeters>
            <DistanceMeters>NAN</DistanceMeters>
          </Trackpoint>
          <Trackpoint>
            <Time>2022-07-17T08:54:28.000Z</Time>
            <Position>
              <LatitudeDegrees>43.4775498323142528533935546875</LatitudeDegrees>
              <LongitudeDegrees>-5.1308675296604633331298828125</LongitudeDegrees>
            </Position>
            <AltitudeMeters>40</AltitudeMeters>
            <DistanceMeters>NAN</DistanceMeters>
          </Trackpoint>
          <Trackpoint>
            <Time>2022-07-17T08:54:29.000Z</Time>
            <Position>
              <LatitudeDegrees>43.4775652550160884857177734375</LatitudeDegrees>
              <LongitudeDegrees>-5.1309154741466045379638671875</LongitudeDegrees>
            </Position>
            <AltitudeMeters>39.40000152587890625</AltitudeMeters>
            <DistanceMeters>NAN</DistanceMeters>
          </Trackpoint>
          <Trackpoint>
            <Time>2022-07-17T08:54:32.000Z</Time>
            <Position>
              <LatitudeDegrees>43.4776090085506439208984375</LatitudeDegrees>
              <LongitudeDegrees>-5.131050087511539459228515625</LongitudeDegrees>
            </Position>
            <AltitudeMeters>38</AltitudeMeters>
            <DistanceMeters>NAN</DistanceMeters>
          </Trackpoint>
          <Trackpoint>
            <Time>2022-07-17T08:54:33.000Z</Time>
            <Position>
              <LatitudeDegrees>43.477617390453815460205078125</LatitudeDegrees>
              <LongitudeDegrees>-5.131079256534576416015625</LongitudeDegrees>
            </Position>
            <AltitudeMeters>37.59999847412109375</AltitudeMeters>
            <DistanceMeters>NAN</DistanceMeters>
          </Trackpoint>
          <Trackpoint>
            <Time>2022-07-17T08:54:36.000Z</Time>
            <Position>
              <LatitudeDegrees>43.4776661731302738189697265625</LatitudeDegrees>
              <LongitudeDegrees>-5.13120020739734172821044921875</LongitudeDegrees>
            </Position>
            <AltitudeMeters>36.40000152587890625</AltitudeMeters>
            <DistanceMeters>NAN</DistanceMeters>
          </Trackpoint>
          <Trackpoint>
            <Time>2022-07-17T08:54:38.000Z</Time>
            <Position>
              <LatitudeDegrees>43.4776973538100719451904296875</LatitudeDegrees>
              <LongitudeDegrees>-5.13122652657330036163330078125</LongitudeDegrees>
            </Position>
            <AltitudeMeters>35</AltitudeMeters>
            <DistanceMeters>NAN</DistanceMeters>
          </Trackpoint>
          <Trackpoint>
            <Time>2022-07-17T08:54:41.000Z</Time>
            <Position>
              <LatitudeDegrees>43.47774982452392578125</LatitudeDegrees>
              <LongitudeDegrees>-5.13123951852321624755859375</LongitudeDegrees>
            </Position>
            <AltitudeMeters>33.799999237060546875</AltitudeMeters>
            <DistanceMeters>NAN</DistanceMeters>
          </Trackpoint>
          <Trackpoint>
            <Time>2022-07-17T08:54:45.000Z</Time>
            <Position>
              <LatitudeDegrees>43.4778338111937046051025390625</LatitudeDegrees>
              <LongitudeDegrees>-5.1312779076397418975830078125</LongitudeDegrees>
            </Position>
            <AltitudeMeters>33.59999847412109375</AltitudeMeters>
            <DistanceMeters>NAN</DistanceMeters>
          </Trackpoint>
          <Trackpoint>
            <Time>2022-07-17T08:54:52.000Z</Time>
            <Position>
              <LatitudeDegrees>43.4780001081526279449462890625</LatitudeDegrees>
              <LongitudeDegrees>-5.1314948312938213348388671875</LongitudeDegrees>
            </Position>
            <AltitudeMeters>33.200000762939453125</AltitudeMeters>
            <DistanceMeters>NAN</DistanceMeters>
          </Trackpoint>
          <Trackpoint>
            <Time>2022-07-17T08:54:58.000Z</Time>
            <Position>
              <LatitudeDegrees>43.478105552494525909423828125</LatitudeDegrees>
              <LongitudeDegrees>-5.13172768056392669677734375</LongitudeDegrees>
            </Position>
            <AltitudeMeters>32.59999847412109375</AltitudeMeters>
            <DistanceMeters>NAN</DistanceMeters>
          </Trackpoint>
          <Trackpoint>
            <Time>2022-07-17T08:55:03.000Z</Time>
            <Position>
              <LatitudeDegrees>43.47816011868417263031005859375</LatitudeDegrees>
              <LongitudeDegrees>-5.1319829933345317840576171875</LongitudeDegrees>
            </Position>
            <AltitudeMeters>32.200000762939453125</AltitudeMeters>
            <DistanceMeters>NAN</DistanceMeters>
          </Trackpoint>
          <Trackpoint>
            <Time>2022-07-17T08:55:06.000Z</Time>
            <Position>
              <LatitudeDegrees>43.478163219988346099853515625</LatitudeDegrees>
              <LongitudeDegrees>-5.1321767829358577728271484375</LongitudeDegrees>
            </Position>
            <AltitudeMeters>32</AltitudeMeters>
            <DistanceMeters>NAN</DistanceMeters>
          </Trackpoint>
          <Trackpoint>
            <Time>2022-07-17T08:55:08.000Z</Time>
            <Position>
              <LatitudeDegrees>43.47818325273692607879638671875</LatitudeDegrees>
              <LongitudeDegrees>-5.1323090493679046630859375</LongitudeDegrees>
            </Position>
            <AltitudeMeters>31.799999237060546875</AltitudeMeters>
            <DistanceMeters>NAN</DistanceMeters>
          </Trackpoint>
          <Trackpoint>
            <Time>2022-07-17T08:55:11.000Z</Time>
            <Position>
              <LatitudeDegrees>43.47825667820870876312255859375</LatitudeDegrees>
              <LongitudeDegrees>-5.13249219395220279693603515625</LongitudeDegrees>
            </Position>
            <AltitudeMeters>31.3999996185302734375</AltitudeMeters>
            <DistanceMeters>NAN</DistanceMeters>
          </Trackpoint>
          <Trackpoint>
            <Time>2022-07-17T08:55:12.000Z</Time>
            <Position>
              <LatitudeDegrees>43.47828635014593601226806640625</LatitudeDegrees>
              <LongitudeDegrees>-5.13254852034151554107666015625</LongitudeDegrees>
            </Position>
            <AltitudeMeters>31.200000762939453125</AltitudeMeters>
            <DistanceMeters>NAN</DistanceMeters>
          </Trackpoint>
          <Trackpoint>
            <Time>2022-07-17T08:55:15.000Z</Time>
            <Position>
              <LatitudeDegrees>43.47838525660336017608642578125</LatitudeDegrees>
              <LongitudeDegrees>-5.1326900906860828399658203125</LongitudeDegrees>
            </Position>
            <AltitudeMeters>30.6000003814697265625</AltitudeMeters>
            <DistanceMeters>NAN</DistanceMeters>
          </Trackpoint>
          <Trackpoint>
            <Time>2022-07-17T08:55:17.000Z</Time>
            <Position>
              <LatitudeDegrees>43.47845046781003475189208984375</LatitudeDegrees>
              <LongitudeDegrees>-5.13277801685035228729248046875</LongitudeDegrees>
            </Position>
            <AltitudeMeters>30.3999996185302734375</AltitudeMeters>
            <DistanceMeters>NAN</DistanceMeters>
          </Trackpoint>
          <Trackpoint>
            <Time>2022-07-17T08:55:19.000Z</Time>
            <Position>
              <LatitudeDegrees>43.4785201214253902435302734375</LatitudeDegrees>
              <LongitudeDegrees>-5.132857225835323333740234375</LongitudeDegrees>
            </Position>
            <AltitudeMeters>30.200000762939453125</AltitudeMeters>
            <DistanceMeters>NAN</DistanceMeters>
          </Trackpoint>
          <Trackpoint>
            <Time>2022-07-17T08:55:22.000Z</Time>
            <Position>
              <LatitudeDegrees>43.4786233864724636077880859375</LatitudeDegrees>
              <LongitudeDegrees>-5.1329646818339824676513671875</LongitudeDegrees>
            </Position>
            <AltitudeMeters>30.200000762939453125</AltitudeMeters>
            <DistanceMeters>NAN</DistanceMeters>
          </Trackpoint>
          <Trackpoint>
            <Time>2022-07-17T08:55:24.000Z</Time>
            <Position>
              <LatitudeDegrees>43.4786870889365673065185546875</LatitudeDegrees>
              <LongitudeDegrees>-5.13304808177053928375244140625</LongitudeDegrees>
            </Position>
            <AltitudeMeters>29.799999237060546875</AltitudeMeters>
            <DistanceMeters>NAN</DistanceMeters>
          </Trackpoint>
          <Trackpoint>
            <Time>2022-07-17T08:55:26.000Z</Time>
            <Position>
              <LatitudeDegrees>43.4787454269826412200927734375</LatitudeDegrees>
              <LongitudeDegrees>-5.13313508592545986175537109375</LongitudeDegrees>
            </Position>
            <AltitudeMeters>29.6000003814697265625</AltitudeMeters>
            <DistanceMeters>NAN</DistanceMeters>
          </Trackpoint>
          <Trackpoint>
            <Time>2022-07-17T08:55:27.000Z</Time>
            <Position>
              <LatitudeDegrees>43.478772081434726715087890625</LatitudeDegrees>
              <LongitudeDegrees>-5.13317733071744441986083984375</LongitudeDegrees>
            </Position>
            <AltitudeMeters>29.6000003814697265625</AltitudeMeters>
            <DistanceMeters>NAN</DistanceMeters>
          </Trackpoint>
          <Trackpoint>
            <Time>2022-07-17T08:55:28.000Z</Time>
            <Position>
              <LatitudeDegrees>43.47879362292587757110595703125</LatitudeDegrees>
              <LongitudeDegrees>-5.133225023746490478515625</LongitudeDegrees>
            </Position>
            <AltitudeMeters>29.6000003814697265625</AltitudeMeters>
            <DistanceMeters>NAN</DistanceMeters>
          </Trackpoint>
          <Trackpoint>
            <Time>2022-07-17T08:55:30.000Z</Time>
            <Position>
              <LatitudeDegrees>43.47883687354624271392822265625</LatitudeDegrees>
              <LongitudeDegrees>-5.133323930203914642333984375</LongitudeDegrees>
            </Position>
            <AltitudeMeters>29.3999996185302734375</AltitudeMeters>
            <DistanceMeters>NAN</DistanceMeters>
          </Trackpoint>
          <Trackpoint>
            <Time>2022-07-17T08:55:31.000Z</Time>
            <Position>
              <LatitudeDegrees>43.47886101342737674713134765625</LatitudeDegrees>
              <LongitudeDegrees>-5.13337397016584873199462890625</LongitudeDegrees>
            </Position>
            <AltitudeMeters>29.3999996185302734375</AltitudeMeters>
            <DistanceMeters>NAN</DistanceMeters>
          </Trackpoint>
          <Trackpoint>
            <Time>2022-07-17T08:55:32.000Z</Time>
            <Position>
              <LatitudeDegrees>43.47888884134590625762939453125</LatitudeDegrees>
              <LongitudeDegrees>-5.1334146223962306976318359375</LongitudeDegrees>
            </Position>
            <AltitudeMeters>29.200000762939453125</AltitudeMeters>
            <DistanceMeters>NAN</DistanceMeters>
          </Trackpoint>
          <Trackpoint>
            <Time>2022-07-17T08:55:36.000Z</Time>
            <Position>
              <LatitudeDegrees>43.47897802479565143585205078125</LatitudeDegrees>
              <LongitudeDegrees>-5.13357982970774173736572265625</LongitudeDegrees>
            </Position>
            <AltitudeMeters>29</AltitudeMeters>
            <DistanceMeters>NAN</DistanceMeters>
          </Trackpoint>
          <Trackpoint>
            <Time>2022-07-17T08:55:39.000Z</Time>
            <Position>
              <LatitudeDegrees>43.4790418110787868499755859375</LatitudeDegrees>
              <LongitudeDegrees>-5.13371662236750125885009765625</LongitudeDegrees>
            </Position>
            <AltitudeMeters>28.6000003814697265625</AltitudeMeters>
            <DistanceMeters>NAN</DistanceMeters>
          </Trackpoint>
          <Trackpoint>
            <Time>2022-07-17T08:55:42.000Z</Time>
            <Position>
              <LatitudeDegrees>43.47909688018262386322021484375</LatitudeDegrees>
              <LongitudeDegrees>-5.13384285382926464080810546875</LongitudeDegrees>
            </Position>
            <AltitudeMeters>28.3999996185302734375</AltitudeMeters>
            <DistanceMeters>NAN</DistanceMeters>
          </Trackpoint>
          <Trackpoint>
            <Time>2022-07-17T08:55:44.000Z</Time>
            <Position>
              <LatitudeDegrees>43.47913493402302265167236328125</LatitudeDegrees>
              <LongitudeDegrees>-5.13392717577517032623291015625</LongitudeDegrees>
            </Position>
            <AltitudeMeters>28.200000762939453125</AltitudeMeters>
            <DistanceMeters>NAN</DistanceMeters>
          </Trackpoint>
          <Trackpoint>
            <Time>2022-07-17T08:55:46.000Z</Time>
            <Position>
              <LatitudeDegrees>43.47916427068412303924560546875</LatitudeDegrees>
              <LongitudeDegrees>-5.13398769311606884002685546875</LongitudeDegrees>
            </Position>
            <AltitudeMeters>28.200000762939453125</AltitudeMeters>
            <DistanceMeters>NAN</DistanceMeters>
          </Trackpoint>
          <Trackpoint>
            <Time>2022-07-17T08:55:53.000Z</Time>
            <Position>
              <LatitudeDegrees>43.47926988266408443450927734375</LatitudeDegrees>
              <LongitudeDegrees>-5.13422959484159946441650390625</LongitudeDegrees>
            </Position>
            <AltitudeMeters>27.799999237060546875</AltitudeMeters>
            <DistanceMeters>NAN</DistanceMeters>
          </Trackpoint>
          <Trackpoint>
            <Time>2022-07-17T08:55:59.000Z</Time>
            <Position>
              <LatitudeDegrees>43.479384966194629669189453125</LatitudeDegrees>
              <LongitudeDegrees>-5.13437359593808650970458984375</LongitudeDegrees>
            </Position>
            <AltitudeMeters>27.799999237060546875</AltitudeMeters>
            <DistanceMeters>NAN</DistanceMeters>
          </Trackpoint>
          <Trackpoint>
            <Time>2022-07-17T08:56:05.000Z</Time>
            <Position>
              <LatitudeDegrees>43.47949518822133541107177734375</LatitudeDegrees>
              <LongitudeDegrees>-5.1344392262399196624755859375</LongitudeDegrees>
            </Position>
            <AltitudeMeters>27.3999996185302734375</AltitudeMeters>
            <DistanceMeters>NAN</DistanceMeters>
          </Trackpoint>
          <Trackpoint>
            <Time>2022-07-17T08:56:11.000Z</Time>
            <Position>
              <LatitudeDegrees>43.4794967807829380035400390625</LatitudeDegrees>
              <LongitudeDegrees>-5.13457995839416980743408203125</LongitudeDegrees>
            </Position>
            <AltitudeMeters>27.6000003814697265625</AltitudeMeters>
            <DistanceMeters>NAN</DistanceMeters>
          </Trackpoint>
          <Trackpoint>
            <Time>2022-07-17T08:56:12.000Z</Time>
            <Position>
              <LatitudeDegrees>43.47949300892651081085205078125</LatitudeDegrees>
              <LongitudeDegrees>-5.13460560701787471771240234375</LongitudeDegrees>
            </Position>
            <AltitudeMeters>27.6000003814697265625</AltitudeMeters>
            <DistanceMeters>NAN</DistanceMeters>
          </Trackpoint>
          <Trackpoint>
            <Time>2022-07-17T08:56:17.000Z</Time>
            <Position>
              <LatitudeDegrees>43.47948454320430755615234375</LatitudeDegrees>
              <LongitudeDegrees>-5.134738795459270477294921875</LongitudeDegrees>
            </Position>
            <AltitudeMeters>28.200000762939453125</AltitudeMeters>
            <DistanceMeters>NAN</DistanceMeters>
          </Trackpoint>
          <Trackpoint>
            <Time>2022-07-17T08:56:23.000Z</Time>
            <Position>
              <LatitudeDegrees>43.47945126704871654510498046875</LatitudeDegrees>
              <LongitudeDegrees>-5.13491573743522167205810546875</LongitudeDegrees>
            </Position>
            <AltitudeMeters>28.6000003814697265625</AltitudeMeters>
            <DistanceMeters>NAN</DistanceMeters>
          </Trackpoint>
          <Trackpoint>
            <Time>2022-07-17T08:56:24.000Z</Time>
            <Position>
              <LatitudeDegrees>43.47945042885839939117431640625</LatitudeDegrees>
              <LongitudeDegrees>-5.1349495165050029754638671875</LongitudeDegrees>
            </Position>
            <AltitudeMeters>28.799999237060546875</AltitudeMeters>
            <DistanceMeters>NAN</DistanceMeters>
          </Trackpoint>
          <Trackpoint>
            <Time>2022-07-17T08:56:30.000Z</Time>
            <Position>
              <LatitudeDegrees>43.479421846568584442138671875</LatitudeDegrees>
              <LongitudeDegrees>-5.13518630526959896087646484375</LongitudeDegrees>
            </Position>
            <AltitudeMeters>28.799999237060546875</AltitudeMeters>
            <DistanceMeters>NAN</DistanceMeters>
          </Trackpoint>
          <Trackpoint>
            <Time>2022-07-17T08:56:31.000Z</Time>
            <Position>
              <LatitudeDegrees>43.47941271029412746429443359375</LatitudeDegrees>
              <LongitudeDegrees>-5.13523139990866184234619140625</LongitudeDegrees>
            </Position>
            <AltitudeMeters>28.799999237060546875</AltitudeMeters>
            <DistanceMeters>NAN</DistanceMeters>
          </Trackpoint>
          <Trackpoint>
            <Time>2022-07-17T08:56:37.000Z</Time>
            <Position>
              <LatitudeDegrees>43.4793884865939617156982421875</LatitudeDegrees>
              <LongitudeDegrees>-5.1355426199734210968017578125</LongitudeDegrees>
            </Position>
            <AltitudeMeters>27.6000003814697265625</AltitudeMeters>
            <DistanceMeters>NAN</DistanceMeters>
          </Trackpoint>
          <Trackpoint>
            <Time>2022-07-17T08:56:42.000Z</Time>
            <Position>
              <LatitudeDegrees>43.479442298412322998046875</LatitudeDegrees>
              <LongitudeDegrees>-5.13575828634202480316162109375</LongitudeDegrees>
            </Position>
            <AltitudeMeters>27.3999996185302734375</AltitudeMeters>
            <DistanceMeters>NAN</DistanceMeters>
          </Trackpoint>
          <Trackpoint>
            <Time>2022-07-17T08:56:46.000Z</Time>
            <Position>
              <LatitudeDegrees>43.47950105555355548858642578125</LatitudeDegrees>
              <LongitudeDegrees>-5.13588099740445613861083984375</LongitudeDegrees>
            </Position>
            <AltitudeMeters>27.200000762939453125</AltitudeMeters>
            <DistanceMeters>NAN</DistanceMeters>
          </Trackpoint>
          <Trackpoint>
            <Time>2022-07-17T08:56:49.000Z</Time>
            <Position>
              <LatitudeDegrees>43.47954229451715946197509765625</LatitudeDegrees>
              <LongitudeDegrees>-5.13597118668258190155029296875</LongitudeDegrees>
            </Position>
            <AltitudeMeters>27.3999996185302734375</AltitudeMeters>
            <DistanceMeters>NAN</DistanceMeters>
          </Trackpoint>
          <Trackpoint>
            <Time>2022-07-17T08:56:56.000Z</Time>
            <Position>
              <LatitudeDegrees>43.4795616567134857177734375</LatitudeDegrees>
              <LongitudeDegrees>-5.136187858879566192626953125</LongitudeDegrees>
            </Position>
            <AltitudeMeters>28</AltitudeMeters>
            <DistanceMeters>NAN</DistanceMeters>
          </Trackpoint>
          <Trackpoint>
            <Time>2022-07-17T08:56:59.000Z</Time>
            <Position>
              <LatitudeDegrees>43.4795497544109821319580078125</LatitudeDegrees>
              <LongitudeDegrees>-5.13629950582981109619140625</LongitudeDegrees>
            </Position>
            <AltitudeMeters>28</AltitudeMeters>
            <DistanceMeters>NAN</DistanceMeters>
          </Trackpoint>
          <Trackpoint>
            <Time>2022-07-17T08:57:02.000Z</Time>
            <Position>
              <LatitudeDegrees>43.479530476033687591552734375</LatitudeDegrees>
              <LongitudeDegrees>-5.13643286190927028656005859375</LongitudeDegrees>
            </Position>
            <AltitudeMeters>28</AltitudeMeters>
            <DistanceMeters>NAN</DistanceMeters>
          </Trackpoint>
          <Trackpoint>
            <Time>2022-07-17T08:57:09.000Z</Time>
            <Position>
              <LatitudeDegrees>43.4795054979622364044189453125</LatitudeDegrees>
              <LongitudeDegrees>-5.1366973109543323516845703125</LongitudeDegrees>
            </Position>
            <AltitudeMeters>27.3999996185302734375</AltitudeMeters>
            <DistanceMeters>NAN</DistanceMeters>
          </Trackpoint>
          <Trackpoint>
            <Time>2022-07-17T08:57:15.000Z</Time>
            <Position>
              <LatitudeDegrees>43.47947808913886547088623046875</LatitudeDegrees>
              <LongitudeDegrees>-5.1368381269276142120361328125</LongitudeDegrees>
            </Position>
            <AltitudeMeters>27</AltitudeMeters>
            <DistanceMeters>NAN</DistanceMeters>
          </Trackpoint>
          <Trackpoint>
            <Time>2022-07-17T08:57:16.000Z</Time>
            <Position>
              <LatitudeDegrees>43.47946836613118648529052734375</LatitudeDegrees>
              <LongitudeDegrees>-5.1368468441069126129150390625</LongitudeDegrees>
            </Position>
            <AltitudeMeters>27</AltitudeMeters>
            <DistanceMeters>NAN</DistanceMeters>
          </Trackpoint>
          <Trackpoint>
            <Time>2022-07-17T08:57:19.000Z</Time>
            <Position>
              <LatitudeDegrees>43.47942142747342586517333984375</LatitudeDegrees>
              <LongitudeDegrees>-5.13688162900507450103759765625</LongitudeDegrees>
            </Position>
            <AltitudeMeters>27</AltitudeMeters>
            <DistanceMeters>NAN</DistanceMeters>
          </Trackpoint>
          <Trackpoint>
            <Time>2022-07-17T08:57:20.000Z</Time>
            <Position>
              <LatitudeDegrees>43.4794045798480510711669921875</LatitudeDegrees>
              <LongitudeDegrees>-5.13689227402210235595703125</LongitudeDegrees>
            </Position>
            <AltitudeMeters>27</AltitudeMeters>
            <DistanceMeters>NAN</DistanceMeters>
          </Trackpoint>
          <Trackpoint>
            <Time>2022-07-17T08:57:29.000Z</Time>
            <Position>
              <LatitudeDegrees>43.47922034561634063720703125</LatitudeDegrees>
              <LongitudeDegrees>-5.1369755901396274566650390625</LongitudeDegrees>
            </Position>
            <AltitudeMeters>27</AltitudeMeters>
            <DistanceMeters>NAN</DistanceMeters>
          </Trackpoint>
          <Trackpoint>
            <Time>2022-07-17T08:57:30.000Z</Time>
            <Position>
              <LatitudeDegrees>43.4791916795074939727783203125</LatitudeDegrees>
              <LongitudeDegrees>-5.136977769434452056884765625</LongitudeDegrees>
            </Position>
            <AltitudeMeters>27</AltitudeMeters>
            <DistanceMeters>NAN</DistanceMeters>
          </Trackpoint>
          <Trackpoint>
            <Time>2022-07-17T08:57:38.000Z</Time>
            <Position>
              <LatitudeDegrees>43.47902060486376285552978515625</LatitudeDegrees>
              <LongitudeDegrees>-5.13699310831725597381591796875</LongitudeDegrees>
            </Position>
            <AltitudeMeters>27.200000762939453125</AltitudeMeters>
            <DistanceMeters>NAN</DistanceMeters>
          </Trackpoint>
          <Trackpoint>
            <Time>2022-07-17T08:57:42.000Z</Time>
            <Position>
              <LatitudeDegrees>43.47893443889915943145751953125</LatitudeDegrees>
              <LongitudeDegrees>-5.13698958791792392730712890625</LongitudeDegrees>
            </Position>
            <AltitudeMeters>27.200000762939453125</AltitudeMeters>
            <DistanceMeters>NAN</DistanceMeters>
          </Trackpoint>
          <Trackpoint>
            <Time>2022-07-17T08:57:46.000Z</Time>
            <Position>
              <LatitudeDegrees>43.47884173505008220672607421875</LatitudeDegrees>
              <LongitudeDegrees>-5.1369434036314487457275390625</LongitudeDegrees>
            </Position>
            <AltitudeMeters>27.200000762939453125</AltitudeMeters>
            <DistanceMeters>NAN</DistanceMeters>
          </Trackpoint>
          <Trackpoint>
            <Time>2022-07-17T08:57:54.000Z</Time>
            <Position>
              <LatitudeDegrees>43.478696644306182861328125</LatitudeDegrees>
              <LongitudeDegrees>-5.1368555612862110137939453125</LongitudeDegrees>
            </Position>
            <AltitudeMeters>27.3999996185302734375</AltitudeMeters>
            <DistanceMeters>NAN</DistanceMeters>
          </Trackpoint>
          <Trackpoint>
            <Time>2022-07-17T08:58:00.000Z</Time>
            <Position>
              <LatitudeDegrees>43.4786126576364040374755859375</LatitudeDegrees>
              <LongitudeDegrees>-5.136811472475528717041015625</LongitudeDegrees>
            </Position>
            <AltitudeMeters>27.799999237060546875</AltitudeMeters>
            <DistanceMeters>NAN</DistanceMeters>
          </Trackpoint>
          <Trackpoint>
            <Time>2022-07-17T08:58:01.000Z</Time>
            <Position>
              <LatitudeDegrees>43.47860201261937618255615234375</LatitudeDegrees>
              <LongitudeDegrees>-5.13681557960808277130126953125</LongitudeDegrees>
            </Position>
            <AltitudeMeters>28</AltitudeMeters>
            <DistanceMeters>NAN</DistanceMeters>
          </Trackpoint>
          <Trackpoint>
            <Time>2022-07-17T08:58:04.000Z</Time>
            <Position>
              <LatitudeDegrees>43.478570915758609771728515625</LatitudeDegrees>
              <LongitudeDegrees>-5.13684189878404140472412109375</LongitudeDegrees>
            </Position>
            <AltitudeMeters>28.3999996185302734375</AltitudeMeters>
            <DistanceMeters>NAN</DistanceMeters>
          </Trackpoint>
          <Trackpoint>
            <Time>2022-07-17T08:58:06.000Z</Time>
            <Position>
              <LatitudeDegrees>43.478570915758609771728515625</LatitudeDegrees>
              <LongitudeDegrees>-5.13684189878404140472412109375</LongitudeDegrees>
            </Position>
            <AltitudeMeters>28.3999996185302734375</AltitudeMeters>
            <DistanceMeters>NAN</DistanceMeters>
          </Trackpoint>
          <Trackpoint>
            <Time>2022-07-17T09:05:19.000Z</Time>
            <Position>
              <LatitudeDegrees>43.4781804867088794708251953125</LatitudeDegrees>
              <LongitudeDegrees>-5.13771126978099346160888671875</LongitudeDegrees>
            </Position>
            <AltitudeMeters>31.200000762939453125</AltitudeMeters>
            <DistanceMeters>NAN</DistanceMeters>
          </Trackpoint>
          <Trackpoint>
            <Time>2022-07-17T09:05:22.000Z</Time>
            <Position>
              <LatitudeDegrees>43.478166572749614715576171875</LatitudeDegrees>
              <LongitudeDegrees>-5.13776407577097415924072265625</LongitudeDegrees>
            </Position>
            <AltitudeMeters>31.3999996185302734375</AltitudeMeters>
            <DistanceMeters>NAN</DistanceMeters>
          </Trackpoint>
          <Trackpoint>
            <Time>2022-07-17T09:05:27.000Z</Time>
            <Position>
              <LatitudeDegrees>43.47814285196363925933837890625</LatitudeDegrees>
              <LongitudeDegrees>-5.13786985538899898529052734375</LongitudeDegrees>
            </Position>
            <AltitudeMeters>31.6000003814697265625</AltitudeMeters>
            <DistanceMeters>NAN</DistanceMeters>
          </Trackpoint>
          <Trackpoint>
            <Time>2022-07-17T09:05:35.000Z</Time>
            <Position>
              <LatitudeDegrees>43.4780939854681491851806640625</LatitudeDegrees>
              <LongitudeDegrees>-5.138031207025051116943359375</LongitudeDegrees>
            </Position>
            <AltitudeMeters>31.799999237060546875</AltitudeMeters>
            <DistanceMeters>NAN</DistanceMeters>
          </Trackpoint>
          <Trackpoint>
            <Time>2022-07-17T09:05:41.000Z</Time>
            <Position>
              <LatitudeDegrees>43.47807127051055431365966796875</LatitudeDegrees>
              <LongitudeDegrees>-5.1381081528961658477783203125</LongitudeDegrees>
            </Position>
            <AltitudeMeters>32</AltitudeMeters>
            <DistanceMeters>NAN</DistanceMeters>
          </Trackpoint>
          <Trackpoint>
            <Time>2022-07-17T09:06:17.000Z</Time>
            <Position>
              <LatitudeDegrees>43.47807579673826694488525390625</LatitudeDegrees>
              <LongitudeDegrees>-5.13843186199665069580078125</LongitudeDegrees>
            </Position>
            <AltitudeMeters>33.799999237060546875</AltitudeMeters>
            <DistanceMeters>NAN</DistanceMeters>
          </Trackpoint>
          <Trackpoint>
            <Time>2022-07-17T09:06:24.000Z</Time>
            <Position>
              <LatitudeDegrees>43.47808266989886760711669921875</LatitudeDegrees>
              <LongitudeDegrees>-5.13859941624104976654052734375</LongitudeDegrees>
            </Position>
            <AltitudeMeters>34.59999847412109375</AltitudeMeters>
            <DistanceMeters>NAN</DistanceMeters>
          </Trackpoint>
          <Trackpoint>
            <Time>2022-07-17T09:06:30.000Z</Time>
            <Position>
              <LatitudeDegrees>43.4780617989599704742431640625</LatitudeDegrees>
              <LongitudeDegrees>-5.13873755000531673431396484375</LongitudeDegrees>
            </Position>
            <AltitudeMeters>34.799999237060546875</AltitudeMeters>
            <DistanceMeters>NAN</DistanceMeters>
          </Trackpoint>
          <Trackpoint>
            <Time>2022-07-17T09:06:31.000Z</Time>
            <Position>
              <LatitudeDegrees>43.4780617989599704742431640625</LatitudeDegrees>
              <LongitudeDegrees>-5.13874995522201061248779296875</LongitudeDegrees>
            </Position>
            <AltitudeMeters>35</AltitudeMeters>
            <DistanceMeters>NAN</DistanceMeters>
          </Trackpoint>
          <Trackpoint>
            <Time>2022-07-17T09:06:36.000Z</Time>
            <Position>
              <LatitudeDegrees>43.478042520582675933837890625</LatitudeDegrees>
              <LongitudeDegrees>-5.13885992579162120819091796875</LongitudeDegrees>
            </Position>
            <AltitudeMeters>35.200000762939453125</AltitudeMeters>
            <DistanceMeters>NAN</DistanceMeters>
          </Trackpoint>
          <Trackpoint>
            <Time>2022-07-17T09:06:40.000Z</Time>
            <Position>
              <LatitudeDegrees>43.4780222363770008087158203125</LatitudeDegrees>
              <LongitudeDegrees>-5.13896184973418712615966796875</LongitudeDegrees>
            </Position>
            <AltitudeMeters>35.40000152587890625</AltitudeMeters>
            <DistanceMeters>NAN</DistanceMeters>
          </Trackpoint>
          <Trackpoint>
            <Time>2022-07-17T09:06:43.000Z</Time>
            <Position>
              <LatitudeDegrees>43.47801293246448040008544921875</LatitudeDegrees>
              <LongitudeDegrees>-5.13902731239795684814453125</LongitudeDegrees>
            </Position>
            <AltitudeMeters>35.40000152587890625</AltitudeMeters>
            <DistanceMeters>NAN</DistanceMeters>
          </Trackpoint>
          <Trackpoint>
            <Time>2022-07-17T09:06:49.000Z</Time>
            <Position>
              <LatitudeDegrees>43.4779809974133968353271484375</LatitudeDegrees>
              <LongitudeDegrees>-5.139174498617649078369140625</LongitudeDegrees>
            </Position>
            <AltitudeMeters>35.799999237060546875</AltitudeMeters>
            <DistanceMeters>NAN</DistanceMeters>
          </Trackpoint>
          <Trackpoint>
            <Time>2022-07-17T09:06:54.000Z</Time>
            <Position>
              <LatitudeDegrees>43.47795107401907444000244140625</LatitudeDegrees>
              <LongitudeDegrees>-5.1392930187284946441650390625</LongitudeDegrees>
            </Position>
            <AltitudeMeters>35.799999237060546875</AltitudeMeters>
            <DistanceMeters>NAN</DistanceMeters>
          </Trackpoint>
          <Trackpoint>
            <Time>2022-07-17T09:06:56.000Z</Time>
            <Position>
              <LatitudeDegrees>43.47794285975396633148193359375</LatitudeDegrees>
              <LongitudeDegrees>-5.13933400623500347137451171875</LongitudeDegrees>
            </Position>
            <AltitudeMeters>36</AltitudeMeters>
            <DistanceMeters>NAN</DistanceMeters>
          </Trackpoint>
          <Trackpoint>
            <Time>2022-07-17T09:07:03.000Z</Time>
            <Position>
              <LatitudeDegrees>43.47792693413794040679931640625</LatitudeDegrees>
              <LongitudeDegrees>-5.139481611549854278564453125</LongitudeDegrees>
            </Position>
            <AltitudeMeters>36.40000152587890625</AltitudeMeters>
            <DistanceMeters>NAN</DistanceMeters>
          </Trackpoint>
          <Trackpoint>
            <Time>2022-07-17T09:07:10.000Z</Time>
            <Position>
              <LatitudeDegrees>43.47791955806314945220947265625</LatitudeDegrees>
              <LongitudeDegrees>-5.13963575474917888641357421875</LongitudeDegrees>
            </Position>
            <AltitudeMeters>37</AltitudeMeters>
            <DistanceMeters>NAN</DistanceMeters>
          </Trackpoint>
          <Trackpoint>
            <Time>2022-07-17T09:07:11.000Z</Time>
            <Position>
              <LatitudeDegrees>43.47792089916765689849853515625</LatitudeDegrees>
              <LongitudeDegrees>-5.13965360820293426513671875</LongitudeDegrees>
            </Position>
            <AltitudeMeters>37</AltitudeMeters>
            <DistanceMeters>NAN</DistanceMeters>
          </Trackpoint>
          <Trackpoint>
            <Time>2022-07-17T09:07:14.000Z</Time>
            <Position>
              <LatitudeDegrees>43.47791972570121288299560546875</LatitudeDegrees>
              <LongitudeDegrees>-5.1397065818309783935546875</LongitudeDegrees>
            </Position>
            <AltitudeMeters>37.40000152587890625</AltitudeMeters>
            <DistanceMeters>NAN</DistanceMeters>
          </Trackpoint>
          <Trackpoint>
            <Time>2022-07-17T09:07:16.000Z</Time>
            <Position>
              <LatitudeDegrees>43.47791737876832485198974609375</LatitudeDegrees>
              <LongitudeDegrees>-5.1397463120520114898681640625</LongitudeDegrees>
            </Position>
            <AltitudeMeters>37.59999847412109375</AltitudeMeters>
            <DistanceMeters>NAN</DistanceMeters>
          </Trackpoint>
          <Trackpoint>
            <Time>2022-07-17T09:07:17.000Z</Time>
            <Position>
              <LatitudeDegrees>43.477914445102214813232421875</LatitudeDegrees>
              <LongitudeDegrees>-5.13976550661027431488037109375</LongitudeDegrees>
            </Position>
            <AltitudeMeters>37.799999237060546875</AltitudeMeters>
            <DistanceMeters>NAN</DistanceMeters>
          </Trackpoint>
          <Trackpoint>
            <Time>2022-07-17T09:07:19.000Z</Time>
            <Position>
              <LatitudeDegrees>43.47791612148284912109375</LatitudeDegrees>
              <LongitudeDegrees>-5.13979635201394557952880859375</LongitudeDegrees>
            </Position>
            <AltitudeMeters>38</AltitudeMeters>
            <DistanceMeters>NAN</DistanceMeters>
          </Trackpoint>
          <Trackpoint>
            <Time>2022-07-17T09:07:20.000Z</Time>
            <Position>
              <LatitudeDegrees>43.47791821695864200592041015625</LatitudeDegrees>
              <LongitudeDegrees>-5.139812193810939788818359375</LongitudeDegrees>
            </Position>
            <AltitudeMeters>38</AltitudeMeters>
            <DistanceMeters>NAN</DistanceMeters>
          </Trackpoint>
          <Trackpoint>
            <Time>2022-07-17T09:07:24.000Z</Time>
            <Position>
              <LatitudeDegrees>43.47792056389153003692626953125</LatitudeDegrees>
              <LongitudeDegrees>-5.1398894749581813812255859375</LongitudeDegrees>
            </Position>
            <AltitudeMeters>38.59999847412109375</AltitudeMeters>
            <DistanceMeters>NAN</DistanceMeters>
          </Trackpoint>
          <Trackpoint>
            <Time>2022-07-17T09:07:26.000Z</Time>
            <Position>
              <LatitudeDegrees>43.47792056389153003692626953125</LatitudeDegrees>
              <LongitudeDegrees>-5.1398894749581813812255859375</LongitudeDegrees>
            </Position>
            <AltitudeMeters>39</AltitudeMeters>
            <DistanceMeters>NAN</DistanceMeters>
          </Trackpoint>
          <Trackpoint>
            <Time>2022-07-17T09:07:52.000Z</Time>
            <Position>
              <LatitudeDegrees>43.47794185392558574676513671875</LatitudeDegrees>
              <LongitudeDegrees>-5.1400078274309635162353515625</LongitudeDegrees>
            </Position>
            <AltitudeMeters>40.200000762939453125</AltitudeMeters>
            <DistanceMeters>NAN</DistanceMeters>
          </Trackpoint>
          <Trackpoint>
            <Time>2022-07-17T09:07:53.000Z</Time>
            <Position>
              <LatitudeDegrees>43.477946631610393524169921875</LatitudeDegrees>
              <LongitudeDegrees>-5.14002920128405094146728515625</LongitudeDegrees>
            </Position>
            <AltitudeMeters>40.200000762939453125</AltitudeMeters>
            <DistanceMeters>NAN</DistanceMeters>
          </Trackpoint>
          <Trackpoint>
            <Time>2022-07-17T09:07:58.000Z</Time>
            <Position>
              <LatitudeDegrees>43.4779642336070537567138671875</LatitudeDegrees>
              <LongitudeDegrees>-5.14009089209139347076416015625</LongitudeDegrees>
            </Position>
            <AltitudeMeters>40.200000762939453125</AltitudeMeters>
            <DistanceMeters>NAN</DistanceMeters>
          </Trackpoint>
          <Trackpoint>
            <Time>2022-07-17T09:08:29.000Z</Time>
            <Position>
              <LatitudeDegrees>43.478040508925914764404296875</LatitudeDegrees>
              <LongitudeDegrees>-5.14028065837919712066650390625</LongitudeDegrees>
            </Position>
            <AltitudeMeters>41.799999237060546875</AltitudeMeters>
            <DistanceMeters>NAN</DistanceMeters>
          </Trackpoint>
          <Trackpoint>
            <Time>2022-07-17T09:08:32.000Z</Time>
            <Position>
              <LatitudeDegrees>43.47804553806781768798828125</LatitudeDegrees>
              <LongitudeDegrees>-5.14034167863428592681884765625</LongitudeDegrees>
            </Position>
            <AltitudeMeters>42</AltitudeMeters>
            <DistanceMeters>NAN</DistanceMeters>
          </Trackpoint>
          <Trackpoint>
            <Time>2022-07-17T09:08:37.000Z</Time>
            <Position>
              <LatitudeDegrees>43.4780457057058811187744140625</LatitudeDegrees>
              <LongitudeDegrees>-5.14036799781024456024169921875</LongitudeDegrees>
            </Position>
            <AltitudeMeters>42.40000152587890625</AltitudeMeters>
            <DistanceMeters>NAN</DistanceMeters>
          </Trackpoint>
          <Trackpoint>
            <Time>2022-07-17T09:09:13.000Z</Time>
            <Position>
              <LatitudeDegrees>43.47806087695062160491943359375</LatitudeDegrees>
              <LongitudeDegrees>-5.1405003480613231658935546875</LongitudeDegrees>
            </Position>
            <AltitudeMeters>43.200000762939453125</AltitudeMeters>
            <DistanceMeters>NAN</DistanceMeters>
          </Trackpoint>
          <Trackpoint>
            <Time>2022-07-17T09:09:18.000Z</Time>
            <Position>
              <LatitudeDegrees>43.47805283032357692718505859375</LatitudeDegrees>
              <LongitudeDegrees>-5.14057922177016735076904296875</LongitudeDegrees>
            </Position>
            <AltitudeMeters>43.40000152587890625</AltitudeMeters>
            <DistanceMeters>NAN</DistanceMeters>
          </Trackpoint>
          <Trackpoint>
            <Time>2022-07-17T09:09:19.000Z</Time>
            <Position>
              <LatitudeDegrees>43.4780514054000377655029296875</LatitudeDegrees>
              <LongitudeDegrees>-5.1405891962349414825439453125</LongitudeDegrees>
            </Position>
            <AltitudeMeters>43.59999847412109375</AltitudeMeters>
            <DistanceMeters>NAN</DistanceMeters>
          </Trackpoint>
          <Trackpoint>
            <Time>2022-07-17T09:09:22.000Z</Time>
            <Position>
              <LatitudeDegrees>43.4780443646013736724853515625</LatitudeDegrees>
              <LongitudeDegrees>-5.14062649570405483245849609375</LongitudeDegrees>
            </Position>
            <AltitudeMeters>44.200000762939453125</AltitudeMeters>
            <DistanceMeters>NAN</DistanceMeters>
          </Trackpoint>
          <Trackpoint>
            <Time>2022-07-17T09:09:24.000Z</Time>
            <Position>
              <LatitudeDegrees>43.4780473820865154266357421875</LatitudeDegrees>
              <LongitudeDegrees>-5.14064242132008075714111328125</LongitudeDegrees>
            </Position>
            <AltitudeMeters>44.40000152587890625</AltitudeMeters>
            <DistanceMeters>NAN</DistanceMeters>
          </Trackpoint>
          <Trackpoint>
            <Time>2022-07-17T09:09:26.000Z</Time>
            <Position>
              <LatitudeDegrees>43.4780488908290863037109375</LatitudeDegrees>
              <LongitudeDegrees>-5.1406582631170749664306640625</LongitudeDegrees>
            </Position>
            <AltitudeMeters>44.40000152587890625</AltitudeMeters>
            <DistanceMeters>NAN</DistanceMeters>
          </Trackpoint>
          <Trackpoint>
            <Time>2022-07-17T09:09:28.000Z</Time>
            <Position>
              <LatitudeDegrees>43.47804578952491283416748046875</LatitudeDegrees>
              <LongitudeDegrees>-5.14067427255213260650634765625</LongitudeDegrees>
            </Position>
            <AltitudeMeters>44.59999847412109375</AltitudeMeters>
            <DistanceMeters>NAN</DistanceMeters>
          </Trackpoint>
          <Trackpoint>
            <Time>2022-07-17T09:09:31.000Z</Time>
            <Position>
              <LatitudeDegrees>43.47804327495396137237548828125</LatitudeDegrees>
              <LongitudeDegrees>-5.14072355814278125762939453125</LongitudeDegrees>
            </Position>
            <AltitudeMeters>45</AltitudeMeters>
            <DistanceMeters>NAN</DistanceMeters>
          </Trackpoint>
          <Trackpoint>
            <Time>2022-07-17T09:09:34.000Z</Time>
            <Position>
              <LatitudeDegrees>43.4780400060117244720458984375</LatitudeDegrees>
              <LongitudeDegrees>-5.1407501287758350372314453125</LongitudeDegrees>
            </Position>
            <AltitudeMeters>45</AltitudeMeters>
            <DistanceMeters>NAN</DistanceMeters>
          </Trackpoint>
          <Trackpoint>
            <Time>2022-07-17T09:09:35.000Z</Time>
            <Position>
              <LatitudeDegrees>43.47803874872624874114990234375</LatitudeDegrees>
              <LongitudeDegrees>-5.14075507409870624542236328125</LongitudeDegrees>
            </Position>
            <AltitudeMeters>45</AltitudeMeters>
            <DistanceMeters>NAN</DistanceMeters>
          </Trackpoint>
          <Trackpoint>
            <Time>2022-07-17T09:09:39.000Z</Time>
            <Position>
              <LatitudeDegrees>43.47803254611790180206298828125</LatitudeDegrees>
              <LongitudeDegrees>-5.140795893967151641845703125</LongitudeDegrees>
            </Position>
            <AltitudeMeters>45.40000152587890625</AltitudeMeters>
            <DistanceMeters>NAN</DistanceMeters>
          </Trackpoint>
          <Trackpoint>
            <Time>2022-07-17T09:09:41.000Z</Time>
            <Position>
              <LatitudeDegrees>43.478027768433094024658203125</LatitudeDegrees>
              <LongitudeDegrees>-5.14081626199185848236083984375</LongitudeDegrees>
            </Position>
            <AltitudeMeters>45.799999237060546875</AltitudeMeters>
            <DistanceMeters>NAN</DistanceMeters>
          </Trackpoint>
          <Trackpoint>
            <Time>2022-07-17T09:09:45.000Z</Time>
            <Position>
              <LatitudeDegrees>43.47802517004311084747314453125</LatitudeDegrees>
              <LongitudeDegrees>-5.1408277451992034912109375</LongitudeDegrees>
            </Position>
            <AltitudeMeters>45.799999237060546875</AltitudeMeters>
            <DistanceMeters>NAN</DistanceMeters>
          </Trackpoint>
          <Trackpoint>
            <Time>2022-07-17T09:10:39.000Z</Time>
            <Position>
              <LatitudeDegrees>43.47795903682708740234375</LatitudeDegrees>
              <LongitudeDegrees>-5.1411977224051952362060546875</LongitudeDegrees>
            </Position>
            <AltitudeMeters>49.799999237060546875</AltitudeMeters>
            <DistanceMeters>NAN</DistanceMeters>
          </Trackpoint>
          <Trackpoint>
            <Time>2022-07-17T09:10:40.000Z</Time>
            <Position>
              <LatitudeDegrees>43.47795241512358188629150390625</LatitudeDegrees>
              <LongitudeDegrees>-5.1412175036966800689697265625</LongitudeDegrees>
            </Position>
            <AltitudeMeters>50</AltitudeMeters>
            <DistanceMeters>NAN</DistanceMeters>
          </Trackpoint>
          <Trackpoint>
            <Time>2022-07-17T09:10:41.000Z</Time>
            <Position>
              <LatitudeDegrees>43.4779488109052181243896484375</LatitudeDegrees>
              <LongitudeDegrees>-5.14123720116913318634033203125</LongitudeDegrees>
            </Position>
            <AltitudeMeters>50.200000762939453125</AltitudeMeters>
            <DistanceMeters>NAN</DistanceMeters>
          </Trackpoint>
          <Trackpoint>
            <Time>2022-07-17T09:10:42.000Z</Time>
            <Position>
              <LatitudeDegrees>43.47794537432491779327392578125</LatitudeDegrees>
              <LongitudeDegrees>-5.1412520371377468109130859375</LongitudeDegrees>
            </Position>
            <AltitudeMeters>50.200000762939453125</AltitudeMeters>
            <DistanceMeters>NAN</DistanceMeters>
          </Trackpoint>
          <Trackpoint>
            <Time>2022-07-17T09:10:46.000Z</Time>
            <Position>
              <LatitudeDegrees>43.47791268490254878997802734375</LatitudeDegrees>
              <LongitudeDegrees>-5.14132420532405376434326171875</LongitudeDegrees>
            </Position>
            <AltitudeMeters>50.40000152587890625</AltitudeMeters>
            <DistanceMeters>NAN</DistanceMeters>
          </Trackpoint>
          <Trackpoint>
            <Time>2022-07-17T09:10:50.000Z</Time>
            <Position>
              <LatitudeDegrees>43.47788653336465358734130859375</LatitudeDegrees>
              <LongitudeDegrees>-5.14138363301753997802734375</LongitudeDegrees>
            </Position>
            <AltitudeMeters>50.799999237060546875</AltitudeMeters>
            <DistanceMeters>NAN</DistanceMeters>
          </Trackpoint>
          <Trackpoint>
            <Time>2022-07-17T09:10:51.000Z</Time>
            <Position>
              <LatitudeDegrees>43.47788133658468723297119140625</LatitudeDegrees>
              <LongitudeDegrees>-5.141397379338741302490234375</LongitudeDegrees>
            </Position>
            <AltitudeMeters>51</AltitudeMeters>
            <DistanceMeters>NAN</DistanceMeters>
          </Trackpoint>
          <Trackpoint>
            <Time>2022-07-17T09:10:53.000Z</Time>
            <Position>
              <LatitudeDegrees>43.47787496633827686309814453125</LatitudeDegrees>
              <LongitudeDegrees>-5.14142462052404880523681640625</LongitudeDegrees>
            </Position>
            <AltitudeMeters>51.59999847412109375</AltitudeMeters>
            <DistanceMeters>NAN</DistanceMeters>
          </Trackpoint>
          <Trackpoint>
            <Time>2022-07-17T09:10:55.000Z</Time>
            <Position>
              <LatitudeDegrees>43.4778663329780101776123046875</LatitudeDegrees>
              <LongitudeDegrees>-5.14145378954708576202392578125</LongitudeDegrees>
            </Position>
            <AltitudeMeters>51.799999237060546875</AltitudeMeters>
            <DistanceMeters>NAN</DistanceMeters>
          </Trackpoint>
          <Trackpoint>
            <Time>2022-07-17T09:10:57.000Z</Time>
            <Position>
              <LatitudeDegrees>43.47785552032291889190673828125</LatitudeDegrees>
              <LongitudeDegrees>-5.1414823718369007110595703125</LongitudeDegrees>
            </Position>
            <AltitudeMeters>51.799999237060546875</AltitudeMeters>
            <DistanceMeters>NAN</DistanceMeters>
          </Trackpoint>
          <Trackpoint>
            <Time>2022-07-17T09:11:01.000Z</Time>
            <Position>
              <LatitudeDegrees>43.4778411872684955596923828125</LatitudeDegrees>
              <LongitudeDegrees>-5.14153911732137203216552734375</LongitudeDegrees>
            </Position>
            <AltitudeMeters>52.200000762939453125</AltitudeMeters>
            <DistanceMeters>NAN</DistanceMeters>
          </Trackpoint>
          <Trackpoint>
            <Time>2022-07-17T09:11:02.000Z</Time>
            <Position>
              <LatitudeDegrees>43.47783657722175121307373046875</LatitudeDegrees>
              <LongitudeDegrees>-5.14155638404190540313720703125</LongitudeDegrees>
            </Position>
            <AltitudeMeters>52.40000152587890625</AltitudeMeters>
            <DistanceMeters>NAN</DistanceMeters>
          </Trackpoint>
          <Trackpoint>
            <Time>2022-07-17T09:11:05.000Z</Time>
            <Position>
              <LatitudeDegrees>43.477813191711902618408203125</LatitudeDegrees>
              <LongitudeDegrees>-5.1416057534515857696533203125</LongitudeDegrees>
            </Position>
            <AltitudeMeters>52.40000152587890625</AltitudeMeters>
            <DistanceMeters>NAN</DistanceMeters>
          </Trackpoint>
          <Trackpoint>
            <Time>2022-07-17T09:11:09.000Z</Time>
            <Position>
              <LatitudeDegrees>43.47776164300739765167236328125</LatitudeDegrees>
              <LongitudeDegrees>-5.1416761614382266998291015625</LongitudeDegrees>
            </Position>
            <AltitudeMeters>52.40000152587890625</AltitudeMeters>
            <DistanceMeters>NAN</DistanceMeters>
          </Trackpoint>
          <Trackpoint>
            <Time>2022-07-17T09:11:15.000Z</Time>
            <Position>
              <LatitudeDegrees>43.47769659943878650665283203125</LatitudeDegrees>
              <LongitudeDegrees>-5.14177079312503337860107421875</LongitudeDegrees>
            </Position>
            <AltitudeMeters>52.59999847412109375</AltitudeMeters>
            <DistanceMeters>NAN</DistanceMeters>
          </Trackpoint>
          <Trackpoint>
            <Time>2022-07-17T09:11:21.000Z</Time>
            <Position>
              <LatitudeDegrees>43.47764312289655208587646484375</LatitudeDegrees>
              <LongitudeDegrees>-5.1418672688305377960205078125</LongitudeDegrees>
            </Position>
            <AltitudeMeters>53.40000152587890625</AltitudeMeters>
            <DistanceMeters>NAN</DistanceMeters>
          </Trackpoint>
          <Trackpoint>
            <Time>2022-07-17T09:11:23.000Z</Time>
            <Position>
              <LatitudeDegrees>43.47762669436633586883544921875</LatitudeDegrees>
              <LongitudeDegrees>-5.141894258558750152587890625</LongitudeDegrees>
            </Position>
            <AltitudeMeters>53.799999237060546875</AltitudeMeters>
            <DistanceMeters>NAN</DistanceMeters>
          </Trackpoint>
          <Trackpoint>
            <Time>2022-07-17T09:11:26.000Z</Time>
            <Position>
              <LatitudeDegrees>43.477607667446136474609375</LatitudeDegrees>
              <LongitudeDegrees>-5.1419447176158428192138671875</LongitudeDegrees>
            </Position>
            <AltitudeMeters>54.40000152587890625</AltitudeMeters>
            <DistanceMeters>NAN</DistanceMeters>
          </Trackpoint>
          <Trackpoint>
            <Time>2022-07-17T09:11:29.000Z</Time>
            <Position>
              <LatitudeDegrees>43.47758763469755649566650390625</LatitudeDegrees>
              <LongitudeDegrees>-5.141992829740047454833984375</LongitudeDegrees>
            </Position>
            <AltitudeMeters>55</AltitudeMeters>
            <DistanceMeters>NAN</DistanceMeters>
          </Trackpoint>
          <Trackpoint>
            <Time>2022-07-17T09:11:33.000Z</Time>
            <Position>
              <LatitudeDegrees>43.47756550647318363189697265625</LatitudeDegrees>
              <LongitudeDegrees>-5.142077989876270294189453125</LongitudeDegrees>
            </Position>
            <AltitudeMeters>55.200000762939453125</AltitudeMeters>
            <DistanceMeters>NAN</DistanceMeters>
          </Trackpoint>
          <Trackpoint>
            <Time>2022-07-17T09:11:36.000Z</Time>
            <Position>
              <LatitudeDegrees>43.477544300258159637451171875</LatitudeDegrees>
              <LongitudeDegrees>-5.14212987385690212249755859375</LongitudeDegrees>
            </Position>
            <AltitudeMeters>55.59999847412109375</AltitudeMeters>
            <DistanceMeters>NAN</DistanceMeters>
          </Trackpoint>
          <Trackpoint>
            <Time>2022-07-17T09:11:42.000Z</Time>
            <Position>
              <LatitudeDegrees>43.47749702632427215576171875</LatitudeDegrees>
              <LongitudeDegrees>-5.14223498292267322540283203125</LongitudeDegrees>
            </Position>
            <AltitudeMeters>56.200000762939453125</AltitudeMeters>
            <DistanceMeters>NAN</DistanceMeters>
          </Trackpoint>
          <Trackpoint>
            <Time>2022-07-17T09:11:49.000Z</Time>
            <Position>
              <LatitudeDegrees>43.47745520062744617462158203125</LatitudeDegrees>
              <LongitudeDegrees>-5.14237429015338420867919921875</LongitudeDegrees>
            </Position>
            <AltitudeMeters>56.59999847412109375</AltitudeMeters>
            <DistanceMeters>NAN</DistanceMeters>
          </Trackpoint>
          <Trackpoint>
            <Time>2022-07-17T09:11:53.000Z</Time>
            <Position>
              <LatitudeDegrees>43.4774408675730228424072265625</LatitudeDegrees>
              <LongitudeDegrees>-5.1424415968358516693115234375</LongitudeDegrees>
            </Position>
            <AltitudeMeters>57</AltitudeMeters>
            <DistanceMeters>NAN</DistanceMeters>
          </Trackpoint>
          <Trackpoint>
            <Time>2022-07-17T09:11:57.000Z</Time>
            <Position>
              <LatitudeDegrees>43.47742318175733089447021484375</LatitudeDegrees>
              <LongitudeDegrees>-5.14251443557441234588623046875</LongitudeDegrees>
            </Position>
            <AltitudeMeters>57.59999847412109375</AltitudeMeters>
            <DistanceMeters>NAN</DistanceMeters>
          </Trackpoint>
          <Trackpoint>
            <Time>2022-07-17T09:11:58.000Z</Time>
            <Position>
              <LatitudeDegrees>43.47742117010056972503662109375</LatitudeDegrees>
              <LongitudeDegrees>-5.14252700842916965484619140625</LongitudeDegrees>
            </Position>
            <AltitudeMeters>57.59999847412109375</AltitudeMeters>
            <DistanceMeters>NAN</DistanceMeters>
          </Trackpoint>
          <Trackpoint>
            <Time>2022-07-17T09:12:01.000Z</Time>
            <Position>
              <LatitudeDegrees>43.4774046577513217926025390625</LatitudeDegrees>
              <LongitudeDegrees>-5.1425690017640590667724609375</LongitudeDegrees>
            </Position>
            <AltitudeMeters>58</AltitudeMeters>
            <DistanceMeters>NAN</DistanceMeters>
          </Trackpoint>
          <Trackpoint>
            <Time>2022-07-17T09:12:06.000Z</Time>
            <Position>
              <LatitudeDegrees>43.47737205214798450469970703125</LatitudeDegrees>
              <LongitudeDegrees>-5.142619125545024871826171875</LongitudeDegrees>
            </Position>
            <AltitudeMeters>58.799999237060546875</AltitudeMeters>
            <DistanceMeters>NAN</DistanceMeters>
          </Trackpoint>
          <Trackpoint>
            <Time>2022-07-17T09:12:08.000Z</Time>
            <Position>
              <LatitudeDegrees>43.47737205214798450469970703125</LatitudeDegrees>
              <LongitudeDegrees>-5.142619125545024871826171875</LongitudeDegrees>
            </Position>
            <AltitudeMeters>58.799999237060546875</AltitudeMeters>
            <DistanceMeters>NAN</DistanceMeters>
          </Trackpoint>
          <Trackpoint>
            <Time>2022-07-17T09:16:52.000Z</Time>
            <Position>
              <LatitudeDegrees>43.47734053619205951690673828125</LatitudeDegrees>
              <LongitudeDegrees>-5.1426625438034534454345703125</LongitudeDegrees>
            </Position>
            <AltitudeMeters>59</AltitudeMeters>
            <DistanceMeters>NAN</DistanceMeters>
          </Trackpoint>
          <Trackpoint>
            <Time>2022-07-17T09:16:53.000Z</Time>
            <Position>
              <LatitudeDegrees>43.47733098082244396209716796875</LatitudeDegrees>
              <LongitudeDegrees>-5.14267452992498874664306640625</LongitudeDegrees>
            </Position>
            <AltitudeMeters>59</AltitudeMeters>
            <DistanceMeters>NAN</DistanceMeters>
          </Trackpoint>
          <Trackpoint>
            <Time>2022-07-17T09:16:55.000Z</Time>
            <Position>
              <LatitudeDegrees>43.47731195390224456787109375</LatitudeDegrees>
              <LongitudeDegrees>-5.14269984327256679534912109375</LongitudeDegrees>
            </Position>
            <AltitudeMeters>60.200000762939453125</AltitudeMeters>
            <DistanceMeters>NAN</DistanceMeters>
          </Trackpoint>
          <Trackpoint>
            <Time>2022-07-17T09:16:57.000Z</Time>
            <Position>
              <LatitudeDegrees>43.47730256617069244384765625</LatitudeDegrees>
              <LongitudeDegrees>-5.1427389867603778839111328125</LongitudeDegrees>
            </Position>
            <AltitudeMeters>61.40000152587890625</AltitudeMeters>
            <DistanceMeters>NAN</DistanceMeters>
          </Trackpoint>
          <Trackpoint>
            <Time>2022-07-17T09:17:01.000Z</Time>
            <Position>
              <LatitudeDegrees>43.47727012820541858673095703125</LatitudeDegrees>
              <LongitudeDegrees>-5.14280545525252819061279296875</LongitudeDegrees>
            </Position>
            <AltitudeMeters>62.59999847412109375</AltitudeMeters>
            <DistanceMeters>NAN</DistanceMeters>
          </Trackpoint>
          <Trackpoint>
            <Time>2022-07-17T09:17:05.000Z</Time>
            <Position>
              <LatitudeDegrees>43.47725252620875835418701171875</LatitudeDegrees>
              <LongitudeDegrees>-5.1428667269647121429443359375</LongitudeDegrees>
            </Position>
            <AltitudeMeters>63.799999237060546875</AltitudeMeters>
            <DistanceMeters>NAN</DistanceMeters>
          </Trackpoint>
          <Trackpoint>
            <Time>2022-07-17T09:17:08.000Z</Time>
            <Position>
              <LatitudeDegrees>43.47724414430558681488037109375</LatitudeDegrees>
              <LongitudeDegrees>-5.1429103128612041473388671875</LongitudeDegrees>
            </Position>
            <AltitudeMeters>64.40000152587890625</AltitudeMeters>
            <DistanceMeters>NAN</DistanceMeters>
          </Trackpoint>
          <Trackpoint>
            <Time>2022-07-17T09:17:11.000Z</Time>
            <Position>
              <LatitudeDegrees>43.477224446833133697509765625</LatitudeDegrees>
              <LongitudeDegrees>-5.14295448549091815948486328125</LongitudeDegrees>
            </Position>
            <AltitudeMeters>64.8000030517578125</AltitudeMeters>
            <DistanceMeters>NAN</DistanceMeters>
          </Trackpoint>
          <Trackpoint>
            <Time>2022-07-17T09:17:13.000Z</Time>
            <Position>
              <LatitudeDegrees>43.47721271216869354248046875</LatitudeDegrees>
              <LongitudeDegrees>-5.14297896064817905426025390625</LongitudeDegrees>
            </Position>
            <AltitudeMeters>65.1999969482421875</AltitudeMeters>
            <DistanceMeters>NAN</DistanceMeters>
          </Trackpoint>
          <Trackpoint>
            <Time>2022-07-17T09:17:14.000Z</Time>
            <Position>
              <LatitudeDegrees>43.4772065095603466033935546875</LatitudeDegrees>
              <LongitudeDegrees>-5.142992623150348663330078125</LongitudeDegrees>
            </Position>
            <AltitudeMeters>65.40000152587890625</AltitudeMeters>
            <DistanceMeters>NAN</DistanceMeters>
          </Trackpoint>
          <Trackpoint>
            <Time>2022-07-17T09:17:17.000Z</Time>
            <Position>
              <LatitudeDegrees>43.47718614153563976287841796875</LatitudeDegrees>
              <LongitudeDegrees>-5.1430313475430011749267578125</LongitudeDegrees>
            </Position>
            <AltitudeMeters>65.8000030517578125</AltitudeMeters>
            <DistanceMeters>NAN</DistanceMeters>
          </Trackpoint>
          <Trackpoint>
            <Time>2022-07-17T09:17:18.000Z</Time>
            <Position>
              <LatitudeDegrees>43.47718077711760997772216796875</LatitudeDegrees>
              <LongitudeDegrees>-5.14304601587355136871337890625</LongitudeDegrees>
            </Position>
            <AltitudeMeters>65.8000030517578125</AltitudeMeters>
            <DistanceMeters>NAN</DistanceMeters>
          </Trackpoint>
          <Trackpoint>
            <Time>2022-07-17T09:17:22.000Z</Time>
            <Position>
              <LatitudeDegrees>43.47716099582612514495849609375</LatitudeDegrees>
              <LongitudeDegrees>-5.143097229301929473876953125</LongitudeDegrees>
            </Position>
            <AltitudeMeters>66.40000152587890625</AltitudeMeters>
            <DistanceMeters>NAN</DistanceMeters>
          </Trackpoint>
          <Trackpoint>
            <Time>2022-07-17T09:17:23.000Z</Time>
            <Position>
              <LatitudeDegrees>43.47715948708355426788330078125</LatitudeDegrees>
              <LongitudeDegrees>-5.14311189763247966766357421875</LongitudeDegrees>
            </Position>
            <AltitudeMeters>66.59999847412109375</AltitudeMeters>
            <DistanceMeters>NAN</DistanceMeters>
          </Trackpoint>
          <Trackpoint>
            <Time>2022-07-17T09:17:25.000Z</Time>
            <Position>
              <LatitudeDegrees>43.47715437412261962890625</LatitudeDegrees>
              <LongitudeDegrees>-5.14314224012196063995361328125</LongitudeDegrees>
            </Position>
            <AltitudeMeters>66.59999847412109375</AltitudeMeters>
            <DistanceMeters>NAN</DistanceMeters>
          </Trackpoint>
          <Trackpoint>
            <Time>2022-07-17T09:17:26.000Z</Time>
            <Position>
              <LatitudeDegrees>43.47714833915233612060546875</LatitudeDegrees>
              <LongitudeDegrees>-5.14315514825284481048583984375</LongitudeDegrees>
            </Position>
            <AltitudeMeters>67</AltitudeMeters>
            <DistanceMeters>NAN</DistanceMeters>
          </Trackpoint>
          <Trackpoint>
            <Time>2022-07-17T09:17:32.000Z</Time>
            <Position>
              <LatitudeDegrees>43.4770998917520046234130859375</LatitudeDegrees>
              <LongitudeDegrees>-5.14322957955300807952880859375</LongitudeDegrees>
            </Position>
            <AltitudeMeters>68</AltitudeMeters>
            <DistanceMeters>NAN</DistanceMeters>
          </Trackpoint>
          <Trackpoint>
            <Time>2022-07-17T09:17:33.000Z</Time>
            <Position>
              <LatitudeDegrees>43.4770918451249599456787109375</LatitudeDegrees>
              <LongitudeDegrees>-5.1432405598461627960205078125</LongitudeDegrees>
            </Position>
            <AltitudeMeters>68</AltitudeMeters>
            <DistanceMeters>NAN</DistanceMeters>
          </Trackpoint>
          <Trackpoint>
            <Time>2022-07-17T09:17:34.000Z</Time>
            <Position>
              <LatitudeDegrees>43.47708505578339099884033203125</LatitudeDegrees>
              <LongitudeDegrees>-5.1432522945106029510498046875</LongitudeDegrees>
            </Position>
            <AltitudeMeters>68.1999969482421875</AltitudeMeters>
            <DistanceMeters>NAN</DistanceMeters>
          </Trackpoint>
          <Trackpoint>
            <Time>2022-07-17T09:17:39.000Z</Time>
            <Position>
              <LatitudeDegrees>43.47703434526920318603515625</LatitudeDegrees>
              <LongitudeDegrees>-5.14331373386085033416748046875</LongitudeDegrees>
            </Position>
            <AltitudeMeters>68.59999847412109375</AltitudeMeters>
            <DistanceMeters>NAN</DistanceMeters>
          </Trackpoint>
          <Trackpoint>
            <Time>2022-07-17T09:17:41.000Z</Time>
            <Position>
              <LatitudeDegrees>43.47701816819608211517333984375</LatitudeDegrees>
              <LongitudeDegrees>-5.143338628113269805908203125</LongitudeDegrees>
            </Position>
            <AltitudeMeters>69</AltitudeMeters>
            <DistanceMeters>NAN</DistanceMeters>
          </Trackpoint>
          <Trackpoint>
            <Time>2022-07-17T09:17:43.000Z</Time>
            <Position>
              <LatitudeDegrees>43.476997129619121551513671875</LatitudeDegrees>
              <LongitudeDegrees>-5.1433662883937358856201171875</LongitudeDegrees>
            </Position>
            <AltitudeMeters>69</AltitudeMeters>
            <DistanceMeters>NAN</DistanceMeters>
          </Trackpoint>
          <Trackpoint>
            <Time>2022-07-17T09:17:51.000Z</Time>
            <Position>
              <LatitudeDegrees>43.47693820483982563018798828125</LatitudeDegrees>
              <LongitudeDegrees>-5.143507607281208038330078125</LongitudeDegrees>
            </Position>
            <AltitudeMeters>69.40000152587890625</AltitudeMeters>
            <DistanceMeters>NAN</DistanceMeters>
          </Trackpoint>
          <Trackpoint>
            <Time>2022-07-17T09:17:59.000Z</Time>
            <Position>
              <LatitudeDegrees>43.47691574133932590484619140625</LatitudeDegrees>
              <LongitudeDegrees>-5.14364884234964847564697265625</LongitudeDegrees>
            </Position>
            <AltitudeMeters>69.1999969482421875</AltitudeMeters>
            <DistanceMeters>NAN</DistanceMeters>
          </Trackpoint>
          <Trackpoint>
            <Time>2022-07-17T09:18:01.000Z</Time>
            <Position>
              <LatitudeDegrees>43.47691590897738933563232421875</LatitudeDegrees>
              <LongitudeDegrees>-5.14367918483912944793701171875</LongitudeDegrees>
            </Position>
            <AltitudeMeters>69.40000152587890625</AltitudeMeters>
            <DistanceMeters>NAN</DistanceMeters>
          </Trackpoint>
          <Trackpoint>
            <Time>2022-07-17T09:18:05.000Z</Time>
            <Position>
              <LatitudeDegrees>43.4768950380384922027587890625</LatitudeDegrees>
              <LongitudeDegrees>-5.14374263584613800048828125</LongitudeDegrees>
            </Position>
            <AltitudeMeters>69.1999969482421875</AltitudeMeters>
            <DistanceMeters>NAN</DistanceMeters>
          </Trackpoint>
          <Trackpoint>
            <Time>2022-07-17T09:18:06.000Z</Time>
            <Position>
              <LatitudeDegrees>43.4768926911056041717529296875</LatitudeDegrees>
              <LongitudeDegrees>-5.14375881291925907135009765625</LongitudeDegrees>
            </Position>
            <AltitudeMeters>69.1999969482421875</AltitudeMeters>
            <DistanceMeters>NAN</DistanceMeters>
          </Trackpoint>
          <Trackpoint>
            <Time>2022-07-17T09:18:10.000Z</Time>
            <Position>
              <LatitudeDegrees>43.4768705628812313079833984375</LatitudeDegrees>
              <LongitudeDegrees>-5.14380373992025852203369140625</LongitudeDegrees>
            </Position>
            <AltitudeMeters>69.1999969482421875</AltitudeMeters>
            <DistanceMeters>NAN</DistanceMeters>
          </Trackpoint>
          <Trackpoint>
            <Time>2022-07-17T09:18:14.000Z</Time>
            <Position>
              <LatitudeDegrees>43.476841561496257781982421875</LatitudeDegrees>
              <LongitudeDegrees>-5.143871717154979705810546875</LongitudeDegrees>
            </Position>
            <AltitudeMeters>69.40000152587890625</AltitudeMeters>
            <DistanceMeters>NAN</DistanceMeters>
          </Trackpoint>
          <Trackpoint>
            <Time>2022-07-17T09:18:17.000Z</Time>
            <Position>
              <LatitudeDegrees>43.47683041356503963470458984375</LatitudeDegrees>
              <LongitudeDegrees>-5.143924020230770111083984375</LongitudeDegrees>
            </Position>
            <AltitudeMeters>69.8000030517578125</AltitudeMeters>
            <DistanceMeters>NAN</DistanceMeters>
          </Trackpoint>
          <Trackpoint>
            <Time>2022-07-17T09:18:19.000Z</Time>
            <Position>
              <LatitudeDegrees>43.47682253457605838775634765625</LatitudeDegrees>
              <LongitudeDegrees>-5.1439513452351093292236328125</LongitudeDegrees>
            </Position>
            <AltitudeMeters>70</AltitudeMeters>
            <DistanceMeters>NAN</DistanceMeters>
          </Trackpoint>
          <Trackpoint>
            <Time>2022-07-17T09:18:23.000Z</Time>
            <Position>
              <LatitudeDegrees>43.476813398301601409912109375</LatitudeDegrees>
              <LongitudeDegrees>-5.1440328173339366912841796875</LongitudeDegrees>
            </Position>
            <AltitudeMeters>70.40000152587890625</AltitudeMeters>
            <DistanceMeters>NAN</DistanceMeters>
          </Trackpoint>
          <Trackpoint>
            <Time>2022-07-17T09:18:29.000Z</Time>
            <Position>
              <LatitudeDegrees>43.47678087651729583740234375</LatitudeDegrees>
              <LongitudeDegrees>-5.1441340707242488861083984375</LongitudeDegrees>
            </Position>
            <AltitudeMeters>71</AltitudeMeters>
            <DistanceMeters>NAN</DistanceMeters>
          </Trackpoint>
          <Trackpoint>
            <Time>2022-07-17T09:18:31.000Z</Time>
            <Position>
              <LatitudeDegrees>43.4767693094909191131591796875</LatitudeDegrees>
              <LongitudeDegrees>-5.1441659219563007354736328125</LongitudeDegrees>
            </Position>
            <AltitudeMeters>71.40000152587890625</AltitudeMeters>
            <DistanceMeters>NAN</DistanceMeters>
          </Trackpoint>
          <Trackpoint>
            <Time>2022-07-17T09:18:32.000Z</Time>
            <Position>
              <LatitudeDegrees>43.47675598226487636566162109375</LatitudeDegrees>
              <LongitudeDegrees>-5.14417715370655059814453125</LongitudeDegrees>
            </Position>
            <AltitudeMeters>71.59999847412109375</AltitudeMeters>
            <DistanceMeters>NAN</DistanceMeters>
          </Trackpoint>
          <Trackpoint>
            <Time>2022-07-17T09:18:35.000Z</Time>
            <Position>
              <LatitudeDegrees>43.47672178409993648529052734375</LatitudeDegrees>
              <LongitudeDegrees>-5.14420322142541408538818359375</LongitudeDegrees>
            </Position>
            <AltitudeMeters>72</AltitudeMeters>
            <DistanceMeters>NAN</DistanceMeters>
          </Trackpoint>
          <Trackpoint>
            <Time>2022-07-17T09:18:36.000Z</Time>
            <Position>
              <LatitudeDegrees>43.47670703195035457611083984375</LatitudeDegrees>
              <LongitudeDegrees>-5.14420607127249240875244140625</LongitudeDegrees>
            </Position>
            <AltitudeMeters>72.1999969482421875</AltitudeMeters>
            <DistanceMeters>NAN</DistanceMeters>
          </Trackpoint>
          <Trackpoint>
            <Time>2022-07-17T09:18:37.000Z</Time>
            <Position>
              <LatitudeDegrees>43.47669772803783416748046875</LatitudeDegrees>
              <LongitudeDegrees>-5.14421193860471248626708984375</LongitudeDegrees>
            </Position>
            <AltitudeMeters>72.40000152587890625</AltitudeMeters>
            <DistanceMeters>NAN</DistanceMeters>
          </Trackpoint>
          <Trackpoint>
            <Time>2022-07-17T09:18:40.000Z</Time>
            <Position>
              <LatitudeDegrees>43.47667149268090724945068359375</LatitudeDegrees>
              <LongitudeDegrees>-5.1442376710474491119384765625</LongitudeDegrees>
            </Position>
            <AltitudeMeters>73</AltitudeMeters>
            <DistanceMeters>NAN</DistanceMeters>
          </Trackpoint>
          <Trackpoint>
            <Time>2022-07-17T09:18:45.000Z</Time>
            <Position>
              <LatitudeDegrees>43.47660812549293041229248046875</LatitudeDegrees>
              <LongitudeDegrees>-5.1442641578614711761474609375</LongitudeDegrees>
            </Position>
            <AltitudeMeters>74.1999969482421875</AltitudeMeters>
            <DistanceMeters>NAN</DistanceMeters>
          </Trackpoint>
          <Trackpoint>
            <Time>2022-07-17T09:18:47.000Z</Time>
            <Position>
              <LatitudeDegrees>43.4765896014869213104248046875</LatitudeDegrees>
              <LongitudeDegrees>-5.14427832327783107757568359375</LongitudeDegrees>
            </Position>
            <AltitudeMeters>74.59999847412109375</AltitudeMeters>
            <DistanceMeters>NAN</DistanceMeters>
          </Trackpoint>
          <Trackpoint>
            <Time>2022-07-17T09:18:48.000Z</Time>
            <Position>
              <LatitudeDegrees>43.47657912410795688629150390625</LatitudeDegrees>
              <LongitudeDegrees>-5.1442869566380977630615234375</LongitudeDegrees>
            </Position>
            <AltitudeMeters>74.59999847412109375</AltitudeMeters>
            <DistanceMeters>NAN</DistanceMeters>
          </Trackpoint>
          <Trackpoint>
            <Time>2022-07-17T09:18:49.000Z</Time>
            <Position>
              <LatitudeDegrees>43.4765681438148021697998046875</LatitudeDegrees>
              <LongitudeDegrees>-5.14429341070353984832763671875</LongitudeDegrees>
            </Position>
            <AltitudeMeters>74.8000030517578125</AltitudeMeters>
            <DistanceMeters>NAN</DistanceMeters>
          </Trackpoint>
          <Trackpoint>
            <Time>2022-07-17T09:18:51.000Z</Time>
            <Position>
              <LatitudeDegrees>43.47655012272298336029052734375</LatitudeDegrees>
              <LongitudeDegrees>-5.14430162496864795684814453125</LongitudeDegrees>
            </Position>
            <AltitudeMeters>75.40000152587890625</AltitudeMeters>
            <DistanceMeters>NAN</DistanceMeters>
          </Trackpoint>
          <Trackpoint>
            <Time>2022-07-17T09:18:55.000Z</Time>
            <Position>
              <LatitudeDegrees>43.476507626473903656005859375</LatitudeDegrees>
              <LongitudeDegrees>-5.144317634403705596923828125</LongitudeDegrees>
            </Position>
            <AltitudeMeters>76</AltitudeMeters>
            <DistanceMeters>NAN</DistanceMeters>
          </Trackpoint>
          <Trackpoint>
            <Time>2022-07-17T09:18:57.000Z</Time>
            <Position>
              <LatitudeDegrees>43.47648574970662593841552734375</LatitudeDegrees>
              <LongitudeDegrees>-5.14432492665946483612060546875</LongitudeDegrees>
            </Position>
            <AltitudeMeters>76.40000152587890625</AltitudeMeters>
            <DistanceMeters>NAN</DistanceMeters>
          </Trackpoint>
          <Trackpoint>
            <Time>2022-07-17T09:18:59.000Z</Time>
            <Position>
              <LatitudeDegrees>43.4764638729393482208251953125</LatitudeDegrees>
              <LongitudeDegrees>-5.1443352364003658294677734375</LongitudeDegrees>
            </Position>
            <AltitudeMeters>76.8000030517578125</AltitudeMeters>
            <DistanceMeters>NAN</DistanceMeters>
          </Trackpoint>
          <Trackpoint>
            <Time>2022-07-17T09:19:01.000Z</Time>
            <Position>
              <LatitudeDegrees>43.4764422476291656494140625</LatitudeDegrees>
              <LongitudeDegrees>-5.1443392597138881683349609375</LongitudeDegrees>
            </Position>
            <AltitudeMeters>77.1999969482421875</AltitudeMeters>
            <DistanceMeters>NAN</DistanceMeters>
          </Trackpoint>
          <Trackpoint>
            <Time>2022-07-17T09:19:03.000Z</Time>
            <Position>
              <LatitudeDegrees>43.4764239750802516937255859375</LatitudeDegrees>
              <LongitudeDegrees>-5.14435141347348690032958984375</LongitudeDegrees>
            </Position>
            <AltitudeMeters>77.59999847412109375</AltitudeMeters>
            <DistanceMeters>NAN</DistanceMeters>
          </Trackpoint>
          <Trackpoint>
            <Time>2022-07-17T09:19:06.000Z</Time>
            <Position>
              <LatitudeDegrees>43.4763981588184833526611328125</LatitudeDegrees>
              <LongitudeDegrees>-5.1443655788898468017578125</LongitudeDegrees>
            </Position>
            <AltitudeMeters>78</AltitudeMeters>
            <DistanceMeters>NAN</DistanceMeters>
          </Trackpoint>
          <Trackpoint>
            <Time>2022-07-17T09:19:10.000Z</Time>
            <Position>
              <LatitudeDegrees>43.47635515965521335601806640625</LatitudeDegrees>
              <LongitudeDegrees>-5.14438644982874393463134765625</LongitudeDegrees>
            </Position>
            <AltitudeMeters>78.8000030517578125</AltitudeMeters>
            <DistanceMeters>NAN</DistanceMeters>
          </Trackpoint>
          <Trackpoint>
            <Time>2022-07-17T09:19:13.000Z</Time>
            <Position>
              <LatitudeDegrees>43.47634141333401203155517578125</LatitudeDegrees>
              <LongitudeDegrees>-5.1443781517446041107177734375</LongitudeDegrees>
            </Position>
            <AltitudeMeters>79.1999969482421875</AltitudeMeters>
            <DistanceMeters>NAN</DistanceMeters>
          </Trackpoint>
          <Trackpoint>
            <Time>2022-07-17T09:19:14.000Z</Time>
            <Position>
              <LatitudeDegrees>43.47634141333401203155517578125</LatitudeDegrees>
              <LongitudeDegrees>-5.1443781517446041107177734375</LongitudeDegrees>
            </Position>
            <AltitudeMeters>79.40000152587890625</AltitudeMeters>
            <DistanceMeters>NAN</DistanceMeters>
          </Trackpoint>
          <Trackpoint>
            <Time>2022-07-17T09:19:51.000Z</Time>
            <Position>
              <LatitudeDegrees>43.47601711750030517578125</LatitudeDegrees>
              <LongitudeDegrees>-5.14435174874961376190185546875</LongitudeDegrees>
            </Position>
            <AltitudeMeters>83.8000030517578125</AltitudeMeters>
            <DistanceMeters>NAN</DistanceMeters>
          </Trackpoint>
          <Trackpoint>
            <Time>2022-07-17T09:19:52.000Z</Time>
            <Position>
              <LatitudeDegrees>43.4760077297687530517578125</LatitudeDegrees>
              <LongitudeDegrees>-5.14434839598834514617919921875</LongitudeDegrees>
            </Position>
            <AltitudeMeters>84</AltitudeMeters>
            <DistanceMeters>NAN</DistanceMeters>
          </Trackpoint>
          <Trackpoint>
            <Time>2022-07-17T09:19:55.000Z</Time>
            <Position>
              <LatitudeDegrees>43.4759790636599063873291015625</LatitudeDegrees>
              <LongitudeDegrees>-5.1443328894674777984619140625</LongitudeDegrees>
            </Position>
            <AltitudeMeters>84.59999847412109375</AltitudeMeters>
            <DistanceMeters>NAN</DistanceMeters>
          </Trackpoint>
          <Trackpoint>
            <Time>2022-07-17T09:19:57.000Z</Time>
            <Position>
              <LatitudeDegrees>43.47595903091132640838623046875</LatitudeDegrees>
              <LongitudeDegrees>-5.1443218253552913665771484375</LongitudeDegrees>
            </Position>
            <AltitudeMeters>85</AltitudeMeters>
            <DistanceMeters>NAN</DistanceMeters>
          </Trackpoint>
          <Trackpoint>
            <Time>2022-07-17T09:20:03.000Z</Time>
            <Position>
              <LatitudeDegrees>43.47589935176074504852294921875</LatitudeDegrees>
              <LongitudeDegrees>-5.1442993618547916412353515625</LongitudeDegrees>
            </Position>
            <AltitudeMeters>86</AltitudeMeters>
            <DistanceMeters>NAN</DistanceMeters>
          </Trackpoint>
          <Trackpoint>
            <Time>2022-07-17T09:20:04.000Z</Time>
            <Position>
              <LatitudeDegrees>43.475886024534702301025390625</LatitudeDegrees>
              <LongitudeDegrees>-5.14429651200771331787109375</LongitudeDegrees>
            </Position>
            <AltitudeMeters>86</AltitudeMeters>
            <DistanceMeters>NAN</DistanceMeters>
          </Trackpoint>
          <Trackpoint>
            <Time>2022-07-17T09:20:11.000Z</Time>
            <Position>
              <LatitudeDegrees>43.47581285052001476287841796875</LatitudeDegrees>
              <LongitudeDegrees>-5.14426809735596179962158203125</LongitudeDegrees>
            </Position>
            <AltitudeMeters>87</AltitudeMeters>
            <DistanceMeters>NAN</DistanceMeters>
          </Trackpoint>
          <Trackpoint>
            <Time>2022-07-17T09:20:13.000Z</Time>
            <Position>
              <LatitudeDegrees>43.47578938119113445281982421875</LatitudeDegrees>
              <LongitudeDegrees>-5.14427262358367443084716796875</LongitudeDegrees>
            </Position>
            <AltitudeMeters>87.40000152587890625</AltitudeMeters>
            <DistanceMeters>NAN</DistanceMeters>
          </Trackpoint>
          <Trackpoint>
            <Time>2022-07-17T09:20:19.000Z</Time>
            <Position>
              <LatitudeDegrees>43.475717045366764068603515625</LatitudeDegrees>
              <LongitudeDegrees>-5.14428444206714630126953125</LongitudeDegrees>
            </Position>
            <AltitudeMeters>88</AltitudeMeters>
            <DistanceMeters>NAN</DistanceMeters>
          </Trackpoint>
          <Trackpoint>
            <Time>2022-07-17T09:20:22.000Z</Time>
            <Position>
              <LatitudeDegrees>43.47568477503955364227294921875</LatitudeDegrees>
              <LongitudeDegrees>-5.14431067742407321929931640625</LongitudeDegrees>
            </Position>
            <AltitudeMeters>88</AltitudeMeters>
            <DistanceMeters>NAN</DistanceMeters>
          </Trackpoint>
          <Trackpoint>
            <Time>2022-07-17T09:20:27.000Z</Time>
            <Position>
              <LatitudeDegrees>43.475641272962093353271484375</LatitudeDegrees>
              <LongitudeDegrees>-5.14437437988817691802978515625</LongitudeDegrees>
            </Position>
            <AltitudeMeters>88</AltitudeMeters>
            <DistanceMeters>NAN</DistanceMeters>
          </Trackpoint>
          <Trackpoint>
            <Time>2022-07-17T09:20:29.000Z</Time>
            <Position>
              <LatitudeDegrees>43.475627191364765167236328125</LatitudeDegrees>
              <LongitudeDegrees>-5.14440623112022876739501953125</LongitudeDegrees>
            </Position>
            <AltitudeMeters>88.1999969482421875</AltitudeMeters>
            <DistanceMeters>NAN</DistanceMeters>
          </Trackpoint>
          <Trackpoint>
            <Time>2022-07-17T09:20:31.000Z</Time>
            <Position>
              <LatitudeDegrees>43.475615121424198150634765625</LatitudeDegrees>
              <LongitudeDegrees>-5.14444260857999324798583984375</LongitudeDegrees>
            </Position>
            <AltitudeMeters>88.1999969482421875</AltitudeMeters>
            <DistanceMeters>NAN</DistanceMeters>
          </Trackpoint>
          <Trackpoint>
            <Time>2022-07-17T09:20:33.000Z</Time>
            <Position>
              <LatitudeDegrees>43.47559760324656963348388671875</LatitudeDegrees>
              <LongitudeDegrees>-5.14447982423007488250732421875</LongitudeDegrees>
            </Position>
            <AltitudeMeters>88.40000152587890625</AltitudeMeters>
            <DistanceMeters>NAN</DistanceMeters>
          </Trackpoint>
          <Trackpoint>
            <Time>2022-07-17T09:20:39.000Z</Time>
            <Position>
              <LatitudeDegrees>43.47557446919381618499755859375</LatitudeDegrees>
              <LongitudeDegrees>-5.1445734500885009765625</LongitudeDegrees>
            </Position>
            <AltitudeMeters>88.59999847412109375</AltitudeMeters>
            <DistanceMeters>NAN</DistanceMeters>
          </Trackpoint>
          <Trackpoint>
            <Time>2022-07-17T09:20:40.000Z</Time>
            <Position>
              <LatitudeDegrees>43.47556927241384983062744140625</LatitudeDegrees>
              <LongitudeDegrees>-5.14459029771387577056884765625</LongitudeDegrees>
            </Position>
            <AltitudeMeters>88.59999847412109375</AltitudeMeters>
            <DistanceMeters>NAN</DistanceMeters>
          </Trackpoint>
          <Trackpoint>
            <Time>2022-07-17T09:20:46.000Z</Time>
            <Position>
              <LatitudeDegrees>43.475531302392482757568359375</LatitudeDegrees>
              <LongitudeDegrees>-5.14468585141003131866455078125</LongitudeDegrees>
            </Position>
            <AltitudeMeters>89</AltitudeMeters>
            <DistanceMeters>NAN</DistanceMeters>
          </Trackpoint>
          <Trackpoint>
            <Time>2022-07-17T09:20:47.000Z</Time>
            <Position>
              <LatitudeDegrees>43.47552535124123096466064453125</LatitudeDegrees>
              <LongitudeDegrees>-5.14470077119767665863037109375</LongitudeDegrees>
            </Position>
            <AltitudeMeters>89.1999969482421875</AltitudeMeters>
            <DistanceMeters>NAN</DistanceMeters>
          </Trackpoint>
          <Trackpoint>
            <Time>2022-07-17T09:20:48.000Z</Time>
            <Position>
              <LatitudeDegrees>43.4755190648138523101806640625</LatitudeDegrees>
              <LongitudeDegrees>-5.14471485279500484466552734375</LongitudeDegrees>
            </Position>
            <AltitudeMeters>89.1999969482421875</AltitudeMeters>
            <DistanceMeters>NAN</DistanceMeters>
          </Trackpoint>
          <Trackpoint>
            <Time>2022-07-17T09:20:57.000Z</Time>
            <Position>
              <LatitudeDegrees>43.47544857300817966461181640625</LatitudeDegrees>
              <LongitudeDegrees>-5.14484368264675140380859375</LongitudeDegrees>
            </Position>
            <AltitudeMeters>89.1999969482421875</AltitudeMeters>
            <DistanceMeters>NAN</DistanceMeters>
          </Trackpoint>
          <Trackpoint>
            <Time>2022-07-17T09:21:05.000Z</Time>
            <Position>
              <LatitudeDegrees>43.47539057023823261260986328125</LatitudeDegrees>
              <LongitudeDegrees>-5.1449665613472461700439453125</LongitudeDegrees>
            </Position>
            <AltitudeMeters>89.59999847412109375</AltitudeMeters>
            <DistanceMeters>NAN</DistanceMeters>
          </Trackpoint>
          <Trackpoint>
            <Time>2022-07-17T09:21:13.000Z</Time>
            <Position>
              <LatitudeDegrees>43.47534866072237491607666015625</LatitudeDegrees>
              <LongitudeDegrees>-5.1450946368277072906494140625</LongitudeDegrees>
            </Position>
            <AltitudeMeters>90.1999969482421875</AltitudeMeters>
            <DistanceMeters>NAN</DistanceMeters>
          </Trackpoint>
          <Trackpoint>
            <Time>2022-07-17T09:21:21.000Z</Time>
            <Position>
              <LatitudeDegrees>43.4753101877868175506591796875</LatitudeDegrees>
              <LongitudeDegrees>-5.145201422274112701416015625</LongitudeDegrees>
            </Position>
            <AltitudeMeters>91</AltitudeMeters>
            <DistanceMeters>NAN</DistanceMeters>
          </Trackpoint>
          <Trackpoint>
            <Time>2022-07-17T09:21:23.000Z</Time>
            <Position>
              <LatitudeDegrees>43.47529820166528224945068359375</LatitudeDegrees>
              <LongitudeDegrees>-5.1452274061739444732666015625</LongitudeDegrees>
            </Position>
            <AltitudeMeters>91.40000152587890625</AltitudeMeters>
            <DistanceMeters>NAN</DistanceMeters>
          </Trackpoint>
          <Trackpoint>
            <Time>2022-07-17T09:21:29.000Z</Time>
            <Position>
              <LatitudeDegrees>43.47528110258281230926513671875</LatitudeDegrees>
              <LongitudeDegrees>-5.14529773034155368804931640625</LongitudeDegrees>
            </Position>
            <AltitudeMeters>91.8000030517578125</AltitudeMeters>
            <DistanceMeters>NAN</DistanceMeters>
          </Trackpoint>
          <Trackpoint>
            <Time>2022-07-17T09:21:34.000Z</Time>
            <Position>
              <LatitudeDegrees>43.47525872290134429931640625</LatitudeDegrees>
              <LongitudeDegrees>-5.14535757713019847869873046875</LongitudeDegrees>
            </Position>
            <AltitudeMeters>92.59999847412109375</AltitudeMeters>
            <DistanceMeters>NAN</DistanceMeters>
          </Trackpoint>
          <Trackpoint>
            <Time>2022-07-17T09:21:38.000Z</Time>
            <Position>
              <LatitudeDegrees>43.4752391092479228973388671875</LatitudeDegrees>
              <LongitudeDegrees>-5.1454128138720989227294921875</LongitudeDegrees>
            </Position>
            <AltitudeMeters>93.1999969482421875</AltitudeMeters>
            <DistanceMeters>NAN</DistanceMeters>
          </Trackpoint>
          <Trackpoint>
            <Time>2022-07-17T09:21:40.000Z</Time>
            <Position>
              <LatitudeDegrees>43.47523097880184650421142578125</LatitudeDegrees>
              <LongitudeDegrees>-5.14544458128511905670166015625</LongitudeDegrees>
            </Position>
            <AltitudeMeters>93.59999847412109375</AltitudeMeters>
            <DistanceMeters>NAN</DistanceMeters>
          </Trackpoint>
          <Trackpoint>
            <Time>2022-07-17T09:21:45.000Z</Time>
            <Position>
              <LatitudeDegrees>43.47520533017814159393310546875</LatitudeDegrees>
              <LongitudeDegrees>-5.1455100439488887786865234375</LongitudeDegrees>
            </Position>
            <AltitudeMeters>94.1999969482421875</AltitudeMeters>
            <DistanceMeters>NAN</DistanceMeters>
          </Trackpoint>
          <Trackpoint>
            <Time>2022-07-17T09:21:48.000Z</Time>
            <Position>
              <LatitudeDegrees>43.47519644536077976226806640625</LatitudeDegrees>
              <LongitudeDegrees>-5.14554298482835292816162109375</LongitudeDegrees>
            </Position>
            <AltitudeMeters>94.8000030517578125</AltitudeMeters>
            <DistanceMeters>NAN</DistanceMeters>
          </Trackpoint>
          <Trackpoint>
            <Time>2022-07-17T09:21:51.000Z</Time>
            <Position>
              <LatitudeDegrees>43.475184626877307891845703125</LatitudeDegrees>
              <LongitudeDegrees>-5.14558003284037113189697265625</LongitudeDegrees>
            </Position>
            <AltitudeMeters>95.1999969482421875</AltitudeMeters>
            <DistanceMeters>NAN</DistanceMeters>
          </Trackpoint>
          <Trackpoint>
            <Time>2022-07-17T09:21:53.000Z</Time>
            <Position>
              <LatitudeDegrees>43.475175909698009490966796875</LatitudeDegrees>
              <LongitudeDegrees>-5.14560769312083721160888671875</LongitudeDegrees>
            </Position>
            <AltitudeMeters>95.40000152587890625</AltitudeMeters>
            <DistanceMeters>NAN</DistanceMeters>
          </Trackpoint>
          <Trackpoint>
            <Time>2022-07-17T09:21:57.000Z</Time>
            <Position>
              <LatitudeDegrees>43.47515151835978031158447265625</LatitudeDegrees>
              <LongitudeDegrees>-5.14565781690180301666259765625</LongitudeDegrees>
            </Position>
            <AltitudeMeters>95.8000030517578125</AltitudeMeters>
            <DistanceMeters>NAN</DistanceMeters>
          </Trackpoint>
          <Trackpoint>
            <Time>2022-07-17T09:22:02.000Z</Time>
            <Position>
              <LatitudeDegrees>43.47510625608265399932861328125</LatitudeDegrees>
              <LongitudeDegrees>-5.1457182504236698150634765625</LongitudeDegrees>
            </Position>
            <AltitudeMeters>96.1999969482421875</AltitudeMeters>
            <DistanceMeters>NAN</DistanceMeters>
          </Trackpoint>
          <Trackpoint>
            <Time>2022-07-17T09:22:03.000Z</Time>
            <Position>
              <LatitudeDegrees>43.47509468905627727508544921875</LatitudeDegrees>
              <LongitudeDegrees>-5.14572973363101482391357421875</LongitudeDegrees>
            </Position>
            <AltitudeMeters>96.40000152587890625</AltitudeMeters>
            <DistanceMeters>NAN</DistanceMeters>
          </Trackpoint>
          <Trackpoint>
            <Time>2022-07-17T09:22:06.000Z</Time>
            <Position>
              <LatitudeDegrees>43.475070297718048095703125</LatitudeDegrees>
              <LongitudeDegrees>-5.1457712240517139434814453125</LongitudeDegrees>
            </Position>
            <AltitudeMeters>96.8000030517578125</AltitudeMeters>
            <DistanceMeters>NAN</DistanceMeters>
          </Trackpoint>
          <Trackpoint>
            <Time>2022-07-17T09:22:12.000Z</Time>
            <Position>
              <LatitudeDegrees>43.4750268794596195220947265625</LatitudeDegrees>
              <LongitudeDegrees>-5.14587524347007274627685546875</LongitudeDegrees>
            </Position>
            <AltitudeMeters>96.59999847412109375</AltitudeMeters>
            <DistanceMeters>NAN</DistanceMeters>
          </Trackpoint>
          <Trackpoint>
            <Time>2022-07-17T09:22:17.000Z</Time>
            <Position>
              <LatitudeDegrees>43.47499025054275989532470703125</LatitudeDegrees>
              <LongitudeDegrees>-5.14596241526305675506591796875</LongitudeDegrees>
            </Position>
            <AltitudeMeters>96.40000152587890625</AltitudeMeters>
            <DistanceMeters>NAN</DistanceMeters>
          </Trackpoint>
          <Trackpoint>
            <Time>2022-07-17T09:22:20.000Z</Time>
            <Position>
              <LatitudeDegrees>43.474969379603862762451171875</LatitudeDegrees>
              <LongitudeDegrees>-5.14601019211113452911376953125</LongitudeDegrees>
            </Position>
            <AltitudeMeters>96.40000152587890625</AltitudeMeters>
            <DistanceMeters>NAN</DistanceMeters>
          </Trackpoint>
          <Trackpoint>
            <Time>2022-07-17T09:22:22.000Z</Time>
            <Position>
              <LatitudeDegrees>43.4749591536819934844970703125</LatitudeDegrees>
              <LongitudeDegrees>-5.14604606665670871734619140625</LongitudeDegrees>
            </Position>
            <AltitudeMeters>96.40000152587890625</AltitudeMeters>
            <DistanceMeters>NAN</DistanceMeters>
          </Trackpoint>
          <Trackpoint>
            <Time>2022-07-17T09:22:24.000Z</Time>
            <Position>
              <LatitudeDegrees>43.474941216409206390380859375</LatitudeDegrees>
              <LongitudeDegrees>-5.14607724733650684356689453125</LongitudeDegrees>
            </Position>
            <AltitudeMeters>96.59999847412109375</AltitudeMeters>
            <DistanceMeters>NAN</DistanceMeters>
          </Trackpoint>
          <Trackpoint>
            <Time>2022-07-17T09:22:26.000Z</Time>
            <Position>
              <LatitudeDegrees>43.47492939792573451995849609375</LatitudeDegrees>
              <LongitudeDegrees>-5.1461116969585418701171875</LongitudeDegrees>
            </Position>
            <AltitudeMeters>96.59999847412109375</AltitudeMeters>
            <DistanceMeters>NAN</DistanceMeters>
          </Trackpoint>
          <Trackpoint>
            <Time>2022-07-17T09:22:27.000Z</Time>
            <Position>
              <LatitudeDegrees>43.47492210566997528076171875</LatitudeDegrees>
              <LongitudeDegrees>-5.14612519182264804840087890625</LongitudeDegrees>
            </Position>
            <AltitudeMeters>96.59999847412109375</AltitudeMeters>
            <DistanceMeters>NAN</DistanceMeters>
          </Trackpoint>
          <Trackpoint>
            <Time>2022-07-17T09:22:29.000Z</Time>
            <Position>
              <LatitudeDegrees>43.474904000759124755859375</LatitudeDegrees>
              <LongitudeDegrees>-5.14615662395954132080078125</LongitudeDegrees>
            </Position>
            <AltitudeMeters>96.59999847412109375</AltitudeMeters>
            <DistanceMeters>NAN</DistanceMeters>
          </Trackpoint>
          <Trackpoint>
            <Time>2022-07-17T09:22:32.000Z</Time>
            <Position>
              <LatitudeDegrees>43.47488111816346645355224609375</LatitudeDegrees>
              <LongitudeDegrees>-5.1462044008076190948486328125</LongitudeDegrees>
            </Position>
            <AltitudeMeters>96.59999847412109375</AltitudeMeters>
            <DistanceMeters>NAN</DistanceMeters>
          </Trackpoint>
          <Trackpoint>
            <Time>2022-07-17T09:22:36.000Z</Time>
            <Position>
              <LatitudeDegrees>43.47485144622623920440673828125</LatitudeDegrees>
              <LongitudeDegrees>-5.1462825201451778411865234375</LongitudeDegrees>
            </Position>
            <AltitudeMeters>96.40000152587890625</AltitudeMeters>
            <DistanceMeters>NAN</DistanceMeters>
          </Trackpoint>
          <Trackpoint>
            <Time>2022-07-17T09:22:42.000Z</Time>
            <Position>
              <LatitudeDegrees>43.474808447062969207763671875</LatitudeDegrees>
              <LongitudeDegrees>-5.14637396670877933502197265625</LongitudeDegrees>
            </Position>
            <AltitudeMeters>96.1999969482421875</AltitudeMeters>
            <DistanceMeters>NAN</DistanceMeters>
          </Trackpoint>
          <Trackpoint>
            <Time>2022-07-17T09:22:44.000Z</Time>
            <Position>
              <LatitudeDegrees>43.4747935272753238677978515625</LatitudeDegrees>
              <LongitudeDegrees>-5.14640875160694122314453125</LongitudeDegrees>
            </Position>
            <AltitudeMeters>96.40000152587890625</AltitudeMeters>
            <DistanceMeters>NAN</DistanceMeters>
          </Trackpoint>
          <Trackpoint>
            <Time>2022-07-17T09:22:52.000Z</Time>
            <Position>
              <LatitudeDegrees>43.474730663001537322998046875</LatitudeDegrees>
              <LongitudeDegrees>-5.14653640799224376678466796875</LongitudeDegrees>
            </Position>
            <AltitudeMeters>96.1999969482421875</AltitudeMeters>
            <DistanceMeters>NAN</DistanceMeters>
          </Trackpoint>
          <Trackpoint>
            <Time>2022-07-17T09:22:56.000Z</Time>
            <Position>
              <LatitudeDegrees>43.474701158702373504638671875</LatitudeDegrees>
              <LongitudeDegrees>-5.1465990208089351654052734375</LongitudeDegrees>
            </Position>
            <AltitudeMeters>96.1999969482421875</AltitudeMeters>
            <DistanceMeters>NAN</DistanceMeters>
          </Trackpoint>
          <Trackpoint>
            <Time>2022-07-17T09:22:58.000Z</Time>
            <Position>
              <LatitudeDegrees>43.47469252534210681915283203125</LatitudeDegrees>
              <LongitudeDegrees>-5.1466305367648601531982421875</LongitudeDegrees>
            </Position>
            <AltitudeMeters>96.1999969482421875</AltitudeMeters>
            <DistanceMeters>NAN</DistanceMeters>
          </Trackpoint>
          <Trackpoint>
            <Time>2022-07-17T09:22:59.000Z</Time>
            <Position>
              <LatitudeDegrees>43.4746822156012058258056640625</LatitudeDegrees>
              <LongitudeDegrees>-5.1466442830860614776611328125</LongitudeDegrees>
            </Position>
            <AltitudeMeters>96.1999969482421875</AltitudeMeters>
            <DistanceMeters>NAN</DistanceMeters>
          </Trackpoint>
          <Trackpoint>
            <Time>2022-07-17T09:23:06.000Z</Time>
            <Position>
              <LatitudeDegrees>43.474625051021575927734375</LatitudeDegrees>
              <LongitudeDegrees>-5.14675031416118144989013671875</LongitudeDegrees>
            </Position>
            <AltitudeMeters>96.40000152587890625</AltitudeMeters>
            <DistanceMeters>NAN</DistanceMeters>
          </Trackpoint>
          <Trackpoint>
            <Time>2022-07-17T09:23:13.000Z</Time>
            <Position>
              <LatitudeDegrees>43.47456914372742176055908203125</LatitudeDegrees>
              <LongitudeDegrees>-5.1468585245311260223388671875</LongitudeDegrees>
            </Position>
            <AltitudeMeters>96.40000152587890625</AltitudeMeters>
            <DistanceMeters>NAN</DistanceMeters>
          </Trackpoint>
          <Trackpoint>
            <Time>2022-07-17T09:23:22.000Z</Time>
            <Position>
              <LatitudeDegrees>43.47448758780956268310546875</LatitudeDegrees>
              <LongitudeDegrees>-5.14698752202093601226806640625</LongitudeDegrees>
            </Position>
            <AltitudeMeters>96.59999847412109375</AltitudeMeters>
            <DistanceMeters>NAN</DistanceMeters>
          </Trackpoint>
          <Trackpoint>
            <Time>2022-07-17T09:23:28.000Z</Time>
            <Position>
              <LatitudeDegrees>43.4744421578943729400634765625</LatitudeDegrees>
              <LongitudeDegrees>-5.14706362970173358917236328125</LongitudeDegrees>
            </Position>
            <AltitudeMeters>96.8000030517578125</AltitudeMeters>
            <DistanceMeters>NAN</DistanceMeters>
          </Trackpoint>
          <Trackpoint>
            <Time>2022-07-17T09:23:30.000Z</Time>
            <Position>
              <LatitudeDegrees>43.47443067468702793121337890625</LatitudeDegrees>
              <LongitudeDegrees>-5.147089026868343353271484375</LongitudeDegrees>
            </Position>
            <AltitudeMeters>96.8000030517578125</AltitudeMeters>
            <DistanceMeters>NAN</DistanceMeters>
          </Trackpoint>
          <Trackpoint>
            <Time>2022-07-17T09:23:33.000Z</Time>
            <Position>
              <LatitudeDegrees>43.474422208964824676513671875</LatitudeDegrees>
              <LongitudeDegrees>-5.147132612764835357666015625</LongitudeDegrees>
            </Position>
            <AltitudeMeters>96.8000030517578125</AltitudeMeters>
            <DistanceMeters>NAN</DistanceMeters>
          </Trackpoint>
          <Trackpoint>
            <Time>2022-07-17T09:23:34.000Z</Time>
            <Position>
              <LatitudeDegrees>43.47442564554512500762939453125</LatitudeDegrees>
              <LongitudeDegrees>-5.14714904129505157470703125</LongitudeDegrees>
            </Position>
            <AltitudeMeters>96.8000030517578125</AltitudeMeters>
            <DistanceMeters>NAN</DistanceMeters>
          </Trackpoint>
          <Trackpoint>
            <Time>2022-07-17T09:23:41.000Z</Time>
            <Position>
              <LatitudeDegrees>43.4744797088205814361572265625</LatitudeDegrees>
              <LongitudeDegrees>-5.14723948203027248382568359375</LongitudeDegrees>
            </Position>
            <AltitudeMeters>97.40000152587890625</AltitudeMeters>
            <DistanceMeters>NAN</DistanceMeters>
          </Trackpoint>
          <Trackpoint>
            <Time>2022-07-17T09:23:42.000Z</Time>
            <Position>
              <LatitudeDegrees>43.4744874201714992523193359375</LatitudeDegrees>
              <LongitudeDegrees>-5.147254653275012969970703125</LongitudeDegrees>
            </Position>
            <AltitudeMeters>97.40000152587890625</AltitudeMeters>
            <DistanceMeters>NAN</DistanceMeters>
          </Trackpoint>
          <Trackpoint>
            <Time>2022-07-17T09:23:50.000Z</Time>
            <Position>
              <LatitudeDegrees>43.47455321811139583587646484375</LatitudeDegrees>
              <LongitudeDegrees>-5.147390775382518768310546875</LongitudeDegrees>
            </Position>
            <AltitudeMeters>97.59999847412109375</AltitudeMeters>
            <DistanceMeters>NAN</DistanceMeters>
          </Trackpoint>
          <Trackpoint>
            <Time>2022-07-17T09:23:51.000Z</Time>
            <Position>
              <LatitudeDegrees>43.474563024938106536865234375</LatitudeDegrees>
              <LongitudeDegrees>-5.1474043540656566619873046875</LongitudeDegrees>
            </Position>
            <AltitudeMeters>97.8000030517578125</AltitudeMeters>
            <DistanceMeters>NAN</DistanceMeters>
          </Trackpoint>
          <Trackpoint>
            <Time>2022-07-17T09:23:53.000Z</Time>
            <Position>
              <LatitudeDegrees>43.4745792858302593231201171875</LatitudeDegrees>
              <LongitudeDegrees>-5.14743947423994541168212890625</LongitudeDegrees>
            </Position>
            <AltitudeMeters>97.8000030517578125</AltitudeMeters>
            <DistanceMeters>NAN</DistanceMeters>
          </Trackpoint>
          <Trackpoint>
            <Time>2022-07-17T09:24:00.000Z</Time>
            <Position>
              <LatitudeDegrees>43.4746396355330944061279296875</LatitudeDegrees>
              <LongitudeDegrees>-5.147546343505382537841796875</LongitudeDegrees>
            </Position>
            <AltitudeMeters>98.1999969482421875</AltitudeMeters>
            <DistanceMeters>NAN</DistanceMeters>
          </Trackpoint>
          <Trackpoint>
            <Time>2022-07-17T09:24:08.000Z</Time>
            <Position>
              <LatitudeDegrees>43.474695123732089996337890625</LatitudeDegrees>
              <LongitudeDegrees>-5.1476621814072132110595703125</LongitudeDegrees>
            </Position>
            <AltitudeMeters>98.59999847412109375</AltitudeMeters>
            <DistanceMeters>NAN</DistanceMeters>
          </Trackpoint>
          <Trackpoint>
            <Time>2022-07-17T09:24:10.000Z</Time>
            <Position>
              <LatitudeDegrees>43.47470962442457675933837890625</LatitudeDegrees>
              <LongitudeDegrees>-5.14768439345061779022216796875</LongitudeDegrees>
            </Position>
            <AltitudeMeters>98.8000030517578125</AltitudeMeters>
            <DistanceMeters>NAN</DistanceMeters>
          </Trackpoint>
          <Trackpoint>
            <Time>2022-07-17T09:24:12.000Z</Time>
            <Position>
              <LatitudeDegrees>43.4747264720499515533447265625</LatitudeDegrees>
              <LongitudeDegrees>-5.14770953916013240814208984375</LongitudeDegrees>
            </Position>
            <AltitudeMeters>99.1999969482421875</AltitudeMeters>
            <DistanceMeters>NAN</DistanceMeters>
          </Trackpoint>
          <Trackpoint>
            <Time>2022-07-17T09:24:19.000Z</Time>
            <Position>
              <LatitudeDegrees>43.47478070296347141265869140625</LatitudeDegrees>
              <LongitudeDegrees>-5.147813893854618072509765625</LongitudeDegrees>
            </Position>
            <AltitudeMeters>99.8000030517578125</AltitudeMeters>
            <DistanceMeters>NAN</DistanceMeters>
          </Trackpoint>
          <Trackpoint>
            <Time>2022-07-17T09:24:25.000Z</Time>
            <Position>
              <LatitudeDegrees>43.4748159907758235931396484375</LatitudeDegrees>
              <LongitudeDegrees>-5.14792445115745067596435546875</LongitudeDegrees>
            </Position>
            <AltitudeMeters>100.40000152587890625</AltitudeMeters>
            <DistanceMeters>NAN</DistanceMeters>
          </Trackpoint>
          <Trackpoint>
            <Time>2022-07-17T09:24:29.000Z</Time>
            <Position>
              <LatitudeDegrees>43.4748351015150547027587890625</LatitudeDegrees>
              <LongitudeDegrees>-5.14799837954342365264892578125</LongitudeDegrees>
            </Position>
            <AltitudeMeters>100.8000030517578125</AltitudeMeters>
            <DistanceMeters>NAN</DistanceMeters>
          </Trackpoint>
          <Trackpoint>
            <Time>2022-07-17T09:24:33.000Z</Time>
            <Position>
              <LatitudeDegrees>43.4748475067317485809326171875</LatitudeDegrees>
              <LongitudeDegrees>-5.1480712182819843292236328125</LongitudeDegrees>
            </Position>
            <AltitudeMeters>101.1999969482421875</AltitudeMeters>
            <DistanceMeters>NAN</DistanceMeters>
          </Trackpoint>
          <Trackpoint>
            <Time>2022-07-17T09:24:36.000Z</Time>
            <Position>
              <LatitudeDegrees>43.4748528711497783660888671875</LatitudeDegrees>
              <LongitudeDegrees>-5.14812779612839221954345703125</LongitudeDegrees>
            </Position>
            <AltitudeMeters>101.40000152587890625</AltitudeMeters>
            <DistanceMeters>NAN</DistanceMeters>
          </Trackpoint>
          <Trackpoint>
            <Time>2022-07-17T09:24:41.000Z</Time>
            <Position>
              <LatitudeDegrees>43.474858738481998443603515625</LatitudeDegrees>
              <LongitudeDegrees>-5.14821329154074192047119140625</LongitudeDegrees>
            </Position>
            <AltitudeMeters>101.8000030517578125</AltitudeMeters>
            <DistanceMeters>NAN</DistanceMeters>
          </Trackpoint>
          <Trackpoint>
            <Time>2022-07-17T09:24:42.000Z</Time>
            <Position>
              <LatitudeDegrees>43.47486267797648906707763671875</LatitudeDegrees>
              <LongitudeDegrees>-5.14823173172771930694580078125</LongitudeDegrees>
            </Position>
            <AltitudeMeters>102</AltitudeMeters>
            <DistanceMeters>NAN</DistanceMeters>
          </Trackpoint>
          <Trackpoint>
            <Time>2022-07-17T09:24:49.000Z</Time>
            <Position>
              <LatitudeDegrees>43.47488849423825740814208984375</LatitudeDegrees>
              <LongitudeDegrees>-5.1483649201691150665283203125</LongitudeDegrees>
            </Position>
            <AltitudeMeters>102.59999847412109375</AltitudeMeters>
            <DistanceMeters>NAN</DistanceMeters>
          </Trackpoint>
          <Trackpoint>
            <Time>2022-07-17T09:24:57.000Z</Time>
            <Position>
              <LatitudeDegrees>43.4749316610395908355712890625</LatitudeDegrees>
              <LongitudeDegrees>-5.14850565232336521148681640625</LongitudeDegrees>
            </Position>
            <AltitudeMeters>103</AltitudeMeters>
            <DistanceMeters>NAN</DistanceMeters>
          </Trackpoint>
          <Trackpoint>
            <Time>2022-07-17T09:24:58.000Z</Time>
            <Position>
              <LatitudeDegrees>43.47493912093341350555419921875</LatitudeDegrees>
              <LongitudeDegrees>-5.1485198177397251129150390625</LongitudeDegrees>
            </Position>
            <AltitudeMeters>103</AltitudeMeters>
            <DistanceMeters>NAN</DistanceMeters>
          </Trackpoint>
          <Trackpoint>
            <Time>2022-07-17T09:25:02.000Z</Time>
            <Position>
              <LatitudeDegrees>43.47497616894543170928955078125</LatitudeDegrees>
              <LongitudeDegrees>-5.148580335080623626708984375</LongitudeDegrees>
            </Position>
            <AltitudeMeters>103.40000152587890625</AltitudeMeters>
            <DistanceMeters>NAN</DistanceMeters>
          </Trackpoint>
          <Trackpoint>
            <Time>2022-07-17T09:25:03.000Z</Time>
            <Position>
              <LatitudeDegrees>43.474984467029571533203125</LatitudeDegrees>
              <LongitudeDegrees>-5.1485979370772838592529296875</LongitudeDegrees>
            </Position>
            <AltitudeMeters>103.40000152587890625</AltitudeMeters>
            <DistanceMeters>NAN</DistanceMeters>
          </Trackpoint>
          <Trackpoint>
            <Time>2022-07-17T09:25:06.000Z</Time>
            <Position>
              <LatitudeDegrees>43.47499947063624858856201171875</LatitudeDegrees>
              <LongitudeDegrees>-5.14863104559481143951416015625</LongitudeDegrees>
            </Position>
            <AltitudeMeters>103.8000030517578125</AltitudeMeters>
            <DistanceMeters>NAN</DistanceMeters>
          </Trackpoint>
          <Trackpoint>
            <Time>2022-07-17T09:25:10.000Z</Time>
            <Position>
              <LatitudeDegrees>43.4750221855938434600830078125</LatitudeDegrees>
              <LongitudeDegrees>-5.1486924849450588226318359375</LongitudeDegrees>
            </Position>
            <AltitudeMeters>104</AltitudeMeters>
            <DistanceMeters>NAN</DistanceMeters>
          </Trackpoint>
          <Trackpoint>
            <Time>2022-07-17T09:25:17.000Z</Time>
            <Position>
              <LatitudeDegrees>43.475047163665294647216796875</LatitudeDegrees>
              <LongitudeDegrees>-5.14881108887493610382080078125</LongitudeDegrees>
            </Position>
            <AltitudeMeters>105</AltitudeMeters>
            <DistanceMeters>NAN</DistanceMeters>
          </Trackpoint>
          <Trackpoint>
            <Time>2022-07-17T09:25:18.000Z</Time>
            <Position>
              <LatitudeDegrees>43.47504942677915096282958984375</LatitudeDegrees>
              <LongitudeDegrees>-5.14882936142385005950927734375</LongitudeDegrees>
            </Position>
            <AltitudeMeters>105.1999969482421875</AltitudeMeters>
            <DistanceMeters>NAN</DistanceMeters>
          </Trackpoint>
          <Trackpoint>
            <Time>2022-07-17T09:25:24.000Z</Time>
            <Position>
              <LatitudeDegrees>43.475059233605861663818359375</LatitudeDegrees>
              <LongitudeDegrees>-5.1489387452602386474609375</LongitudeDegrees>
            </Position>
            <AltitudeMeters>106</AltitudeMeters>
            <DistanceMeters>NAN</DistanceMeters>
          </Trackpoint>
          <Trackpoint>
            <Time>2022-07-17T09:25:26.000Z</Time>
            <Position>
              <LatitudeDegrees>43.47506686113774776458740234375</LatitudeDegrees>
              <LongitudeDegrees>-5.148971267044544219970703125</LongitudeDegrees>
            </Position>
            <AltitudeMeters>106.1999969482421875</AltitudeMeters>
            <DistanceMeters>NAN</DistanceMeters>
          </Trackpoint>
          <Trackpoint>
            <Time>2022-07-17T09:25:28.000Z</Time>
            <Position>
              <LatitudeDegrees>43.47507499158382415771484375</LatitudeDegrees>
              <LongitudeDegrees>-5.14899800531566143035888671875</LongitudeDegrees>
            </Position>
            <AltitudeMeters>106.40000152587890625</AltitudeMeters>
            <DistanceMeters>NAN</DistanceMeters>
          </Trackpoint>
          <Trackpoint>
            <Time>2022-07-17T09:25:31.000Z</Time>
            <Position>
              <LatitudeDegrees>43.47508580423891544342041015625</LatitudeDegrees>
              <LongitudeDegrees>-5.14904511161148548126220703125</LongitudeDegrees>
            </Position>
            <AltitudeMeters>106.59999847412109375</AltitudeMeters>
            <DistanceMeters>NAN</DistanceMeters>
          </Trackpoint>
          <Trackpoint>
            <Time>2022-07-17T09:25:34.000Z</Time>
            <Position>
              <LatitudeDegrees>43.475098796188831329345703125</LatitudeDegrees>
              <LongitudeDegrees>-5.14909372664988040924072265625</LongitudeDegrees>
            </Position>
            <AltitudeMeters>107.40000152587890625</AltitudeMeters>
            <DistanceMeters>NAN</DistanceMeters>
          </Trackpoint>
          <Trackpoint>
            <Time>2022-07-17T09:25:38.000Z</Time>
            <Position>
              <LatitudeDegrees>43.475122936069965362548828125</LatitudeDegrees>
              <LongitudeDegrees>-5.14916178770363330841064453125</LongitudeDegrees>
            </Position>
            <AltitudeMeters>108</AltitudeMeters>
            <DistanceMeters>NAN</DistanceMeters>
          </Trackpoint>
          <Trackpoint>
            <Time>2022-07-17T09:25:40.000Z</Time>
            <Position>
              <LatitudeDegrees>43.4751341678202152252197265625</LatitudeDegrees>
              <LongitudeDegrees>-5.1491913758218288421630859375</LongitudeDegrees>
            </Position>
            <AltitudeMeters>108.40000152587890625</AltitudeMeters>
            <DistanceMeters>NAN</DistanceMeters>
          </Trackpoint>
          <Trackpoint>
            <Time>2022-07-17T09:25:42.000Z</Time>
            <Position>
              <LatitudeDegrees>43.47514866851270198822021484375</LatitudeDegrees>
              <LongitudeDegrees>-5.14921970665454864501953125</LongitudeDegrees>
            </Position>
            <AltitudeMeters>108.8000030517578125</AltitudeMeters>
            <DistanceMeters>NAN</DistanceMeters>
          </Trackpoint>
          <Trackpoint>
            <Time>2022-07-17T09:25:46.000Z</Time>
            <Position>
              <LatitudeDegrees>43.47518219612538814544677734375</LatitudeDegrees>
              <LongitudeDegrees>-5.14927108772099018096923828125</LongitudeDegrees>
            </Position>
            <AltitudeMeters>109.59999847412109375</AltitudeMeters>
            <DistanceMeters>NAN</DistanceMeters>
          </Trackpoint>
          <Trackpoint>
            <Time>2022-07-17T09:25:49.000Z</Time>
            <Position>
              <LatitudeDegrees>43.475204408168792724609375</LatitudeDegrees>
              <LongitudeDegrees>-5.14930461533367633819580078125</LongitudeDegrees>
            </Position>
            <AltitudeMeters>110</AltitudeMeters>
            <DistanceMeters>NAN</DistanceMeters>
          </Trackpoint>
          <Trackpoint>
            <Time>2022-07-17T09:25:50.000Z</Time>
            <Position>
              <LatitudeDegrees>43.47521153278648853302001953125</LatitudeDegrees>
              <LongitudeDegrees>-5.14931551180779933929443359375</LongitudeDegrees>
            </Position>
            <AltitudeMeters>110.1999969482421875</AltitudeMeters>
            <DistanceMeters>NAN</DistanceMeters>
          </Trackpoint>
          <Trackpoint>
            <Time>2022-07-17T09:25:54.000Z</Time>
            <Position>
              <LatitudeDegrees>43.47524690441787242889404296875</LatitudeDegrees>
              <LongitudeDegrees>-5.14936949126422405242919921875</LongitudeDegrees>
            </Position>
            <AltitudeMeters>110.59999847412109375</AltitudeMeters>
            <DistanceMeters>NAN</DistanceMeters>
          </Trackpoint>
          <Trackpoint>
            <Time>2022-07-17T09:25:58.000Z</Time>
            <Position>
              <LatitudeDegrees>43.47528629936277866363525390625</LatitudeDegrees>
              <LongitudeDegrees>-5.1494133286178112030029296875</LongitudeDegrees>
            </Position>
            <AltitudeMeters>111</AltitudeMeters>
            <DistanceMeters>NAN</DistanceMeters>
          </Trackpoint>
          <Trackpoint>
            <Time>2022-07-17T09:26:03.000Z</Time>
            <Position>
              <LatitudeDegrees>43.47532980144023895263671875</LatitudeDegrees>
              <LongitudeDegrees>-5.14948918484151363372802734375</LongitudeDegrees>
            </Position>
            <AltitudeMeters>111.59999847412109375</AltitudeMeters>
            <DistanceMeters>NAN</DistanceMeters>
          </Trackpoint>
          <Trackpoint>
            <Time>2022-07-17T09:26:05.000Z</Time>
            <Position>
              <LatitudeDegrees>43.47534782253205776214599609375</LatitudeDegrees>
              <LongitudeDegrees>-5.1495181024074554443359375</LongitudeDegrees>
            </Position>
            <AltitudeMeters>111.8000030517578125</AltitudeMeters>
            <DistanceMeters>NAN</DistanceMeters>
          </Trackpoint>
          <Trackpoint>
            <Time>2022-07-17T09:26:06.000Z</Time>
            <Position>
              <LatitudeDegrees>43.47535737790167331695556640625</LatitudeDegrees>
              <LongitudeDegrees>-5.14953075908124446868896484375</LongitudeDegrees>
            </Position>
            <AltitudeMeters>111.8000030517578125</AltitudeMeters>
            <DistanceMeters>NAN</DistanceMeters>
          </Trackpoint>
          <Trackpoint>
            <Time>2022-07-17T09:26:08.000Z</Time>
            <Position>
              <LatitudeDegrees>43.475372381508350372314453125</LatitudeDegrees>
              <LongitudeDegrees>-5.14955540187656879425048828125</LongitudeDegrees>
            </Position>
            <AltitudeMeters>112</AltitudeMeters>
            <DistanceMeters>NAN</DistanceMeters>
          </Trackpoint>
          <Trackpoint>
            <Time>2022-07-17T09:26:12.000Z</Time>
            <Position>
              <LatitudeDegrees>43.475405238568782806396484375</LatitudeDegrees>
              <LongitudeDegrees>-5.149612985551357269287109375</LongitudeDegrees>
            </Position>
            <AltitudeMeters>112.1999969482421875</AltitudeMeters>
            <DistanceMeters>NAN</DistanceMeters>
          </Trackpoint>
          <Trackpoint>
            <Time>2022-07-17T09:26:18.000Z</Time>
            <Position>
              <LatitudeDegrees>43.475472293794155120849609375</LatitudeDegrees>
              <LongitudeDegrees>-5.14968381263315677642822265625</LongitudeDegrees>
            </Position>
            <AltitudeMeters>112</AltitudeMeters>
            <DistanceMeters>NAN</DistanceMeters>
          </Trackpoint>
          <Trackpoint>
            <Time>2022-07-17T09:26:20.000Z</Time>
            <Position>
              <LatitudeDegrees>43.47549232654273509979248046875</LatitudeDegrees>
              <LongitudeDegrees>-5.1496969722211360931396484375</LongitudeDegrees>
            </Position>
            <AltitudeMeters>111.8000030517578125</AltitudeMeters>
            <DistanceMeters>NAN</DistanceMeters>
          </Trackpoint>
          <Trackpoint>
            <Time>2022-07-17T09:26:22.000Z</Time>
            <Position>
              <LatitudeDegrees>43.47551445476710796356201171875</LatitudeDegrees>
              <LongitudeDegrees>-5.14970845542848110198974609375</LongitudeDegrees>
            </Position>
            <AltitudeMeters>111.59999847412109375</AltitudeMeters>
            <DistanceMeters>NAN</DistanceMeters>
          </Trackpoint>
          <Trackpoint>
            <Time>2022-07-17T09:26:27.000Z</Time>
            <Position>
              <LatitudeDegrees>43.475576229393482208251953125</LatitudeDegrees>
              <LongitudeDegrees>-5.149779617786407470703125</LongitudeDegrees>
            </Position>
            <AltitudeMeters>111</AltitudeMeters>
            <DistanceMeters>NAN</DistanceMeters>
          </Trackpoint>
          <Trackpoint>
            <Time>2022-07-17T09:26:29.000Z</Time>
            <Position>
              <LatitudeDegrees>43.4755961783230304718017578125</LatitudeDegrees>
              <LongitudeDegrees>-5.14981138519942760467529296875</LongitudeDegrees>
            </Position>
            <AltitudeMeters>110.1999969482421875</AltitudeMeters>
            <DistanceMeters>NAN</DistanceMeters>
          </Trackpoint>
          <Trackpoint>
            <Time>2022-07-17T09:26:35.000Z</Time>
            <Position>
              <LatitudeDegrees>43.47563557326793670654296875</LatitudeDegrees>
              <LongitudeDegrees>-5.14991180039942264556884765625</LongitudeDegrees>
            </Position>
            <AltitudeMeters>109.59999847412109375</AltitudeMeters>
            <DistanceMeters>NAN</DistanceMeters>
          </Trackpoint>
          <Trackpoint>
            <Time>2022-07-17T09:26:37.000Z</Time>
            <Position>
              <LatitudeDegrees>43.47563347779214382171630859375</LatitudeDegrees>
              <LongitudeDegrees>-5.14995018951594829559326171875</LongitudeDegrees>
            </Position>
            <AltitudeMeters>109.1999969482421875</AltitudeMeters>
            <DistanceMeters>NAN</DistanceMeters>
          </Trackpoint>
          <Trackpoint>
            <Time>2022-07-17T09:26:39.000Z</Time>
            <Position>
              <LatitudeDegrees>43.47563020884990692138671875</LatitudeDegrees>
              <LongitudeDegrees>-5.14998757280409336090087890625</LongitudeDegrees>
            </Position>
            <AltitudeMeters>109.1999969482421875</AltitudeMeters>
            <DistanceMeters>NAN</DistanceMeters>
          </Trackpoint>
          <Trackpoint>
            <Time>2022-07-17T09:26:43.000Z</Time>
            <Position>
              <LatitudeDegrees>43.4756280295550823211669921875</LatitudeDegrees>
              <LongitudeDegrees>-5.15005999244749546051025390625</LongitudeDegrees>
            </Position>
            <AltitudeMeters>108.8000030517578125</AltitudeMeters>
            <DistanceMeters>NAN</DistanceMeters>
          </Trackpoint>
          <Trackpoint>
            <Time>2022-07-17T09:26:46.000Z</Time>
            <Position>
              <LatitudeDegrees>43.47562476061284542083740234375</LatitudeDegrees>
              <LongitudeDegrees>-5.15011363662779331207275390625</LongitudeDegrees>
            </Position>
            <AltitudeMeters>108.1999969482421875</AltitudeMeters>
            <DistanceMeters>NAN</DistanceMeters>
          </Trackpoint>
          <Trackpoint>
            <Time>2022-07-17T09:26:51.000Z</Time>
            <Position>
              <LatitudeDegrees>43.4756280295550823211669921875</LatitudeDegrees>
              <LongitudeDegrees>-5.15021388418972492218017578125</LongitudeDegrees>
            </Position>
            <AltitudeMeters>107.40000152587890625</AltitudeMeters>
            <DistanceMeters>NAN</DistanceMeters>
          </Trackpoint>
          <Trackpoint>
            <Time>2022-07-17T09:26:52.000Z</Time>
            <Position>
              <LatitudeDegrees>43.47562710754573345184326171875</LatitudeDegrees>
              <LongitudeDegrees>-5.15023936517536640167236328125</LongitudeDegrees>
            </Position>
            <AltitudeMeters>107.1999969482421875</AltitudeMeters>
            <DistanceMeters>NAN</DistanceMeters>
          </Trackpoint>
          <Trackpoint>
            <Time>2022-07-17T09:27:01.000Z</Time>
            <Position>
              <LatitudeDegrees>43.4756059013307094573974609375</LatitudeDegrees>
              <LongitudeDegrees>-5.150427706539630889892578125</LongitudeDegrees>
            </Position>
            <AltitudeMeters>106.1999969482421875</AltitudeMeters>
            <DistanceMeters>NAN</DistanceMeters>
          </Trackpoint>
          <Trackpoint>
            <Time>2022-07-17T09:27:02.000Z</Time>
            <Position>
              <LatitudeDegrees>43.47560330294072628021240234375</LatitudeDegrees>
              <LongitudeDegrees>-5.1504456438124179840087890625</LongitudeDegrees>
            </Position>
            <AltitudeMeters>106.1999969482421875</AltitudeMeters>
            <DistanceMeters>NAN</DistanceMeters>
          </Trackpoint>
          <Trackpoint>
            <Time>2022-07-17T09:27:09.000Z</Time>
            <Position>
              <LatitudeDegrees>43.4755733795464038848876953125</LatitudeDegrees>
              <LongitudeDegrees>-5.15056055970489978790283203125</LongitudeDegrees>
            </Position>
            <AltitudeMeters>105.8000030517578125</AltitudeMeters>
            <DistanceMeters>NAN</DistanceMeters>
          </Trackpoint>
          <Trackpoint>
            <Time>2022-07-17T09:27:15.000Z</Time>
            <Position>
              <LatitudeDegrees>43.47558134235441684722900390625</LatitudeDegrees>
              <LongitudeDegrees>-5.15067203901708126068115234375</LongitudeDegrees>
            </Position>
            <AltitudeMeters>105.59999847412109375</AltitudeMeters>
            <DistanceMeters>NAN</DistanceMeters>
          </Trackpoint>
          <Trackpoint>
            <Time>2022-07-17T09:27:16.000Z</Time>
            <Position>
              <LatitudeDegrees>43.4755881316959857940673828125</LatitudeDegrees>
              <LongitudeDegrees>-5.1506875455379486083984375</LongitudeDegrees>
            </Position>
            <AltitudeMeters>105.59999847412109375</AltitudeMeters>
            <DistanceMeters>NAN</DistanceMeters>
          </Trackpoint>
          <Trackpoint>
            <Time>2022-07-17T09:27:21.000Z</Time>
            <Position>
              <LatitudeDegrees>43.47563616000115871429443359375</LatitudeDegrees>
              <LongitudeDegrees>-5.1507532596588134765625</LongitudeDegrees>
            </Position>
            <AltitudeMeters>105.1999969482421875</AltitudeMeters>
            <DistanceMeters>NAN</DistanceMeters>
          </Trackpoint>
          <Trackpoint>
            <Time>2022-07-17T09:27:24.000Z</Time>
            <Position>
              <LatitudeDegrees>43.47566951997578144073486328125</LatitudeDegrees>
              <LongitudeDegrees>-5.15078586526215076446533203125</LongitudeDegrees>
            </Position>
            <AltitudeMeters>104.8000030517578125</AltitudeMeters>
            <DistanceMeters>NAN</DistanceMeters>
          </Trackpoint>
          <Trackpoint>
            <Time>2022-07-17T09:27:33.000Z</Time>
            <Position>
              <LatitudeDegrees>43.47575870342552661895751953125</LatitudeDegrees>
              <LongitudeDegrees>-5.15089952386915683746337890625</LongitudeDegrees>
            </Position>
            <AltitudeMeters>104.40000152587890625</AltitudeMeters>
            <DistanceMeters>NAN</DistanceMeters>
          </Trackpoint>
          <Trackpoint>
            <Time>2022-07-17T09:27:37.000Z</Time>
            <Position>
              <LatitudeDegrees>43.47578686662018299102783203125</LatitudeDegrees>
              <LongitudeDegrees>-5.15096674673259258270263671875</LongitudeDegrees>
            </Position>
            <AltitudeMeters>104.40000152587890625</AltitudeMeters>
            <DistanceMeters>NAN</DistanceMeters>
          </Trackpoint>
          <Trackpoint>
            <Time>2022-07-17T09:27:41.000Z</Time>
            <Position>
              <LatitudeDegrees>43.47581930458545684814453125</LatitudeDegrees>
              <LongitudeDegrees>-5.15103866346180438995361328125</LongitudeDegrees>
            </Position>
            <AltitudeMeters>104.40000152587890625</AltitudeMeters>
            <DistanceMeters>NAN</DistanceMeters>
          </Trackpoint>
          <Trackpoint>
            <Time>2022-07-17T09:27:52.000Z</Time>
            <Position>
              <LatitudeDegrees>43.47589038312435150146484375</LatitudeDegrees>
              <LongitudeDegrees>-5.15122734010219573974609375</LongitudeDegrees>
            </Position>
            <AltitudeMeters>104.1999969482421875</AltitudeMeters>
            <DistanceMeters>NAN</DistanceMeters>
          </Trackpoint>
          <Trackpoint>
            <Time>2022-07-17T09:27:55.000Z</Time>
            <Position>
              <LatitudeDegrees>43.4758942387998104095458984375</LatitudeDegrees>
              <LongitudeDegrees>-5.15123580582439899444580078125</LongitudeDegrees>
            </Position>
            <AltitudeMeters>104.1999969482421875</AltitudeMeters>
            <DistanceMeters>NAN</DistanceMeters>
          </Trackpoint>
          <Trackpoint>
            <Time>2022-07-17T09:28:06.000Z</Time>
            <Position>
              <LatitudeDegrees>43.47592047415673732757568359375</LatitudeDegrees>
              <LongitudeDegrees>-5.1512912102043628692626953125</LongitudeDegrees>
            </Position>
            <AltitudeMeters>104</AltitudeMeters>
            <DistanceMeters>NAN</DistanceMeters>
          </Trackpoint>
          <Trackpoint>
            <Time>2022-07-17T09:28:07.000Z</Time>
            <Position>
              <LatitudeDegrees>43.4759277664124965667724609375</LatitudeDegrees>
              <LongitudeDegrees>-5.151310823857784271240234375</LongitudeDegrees>
            </Position>
            <AltitudeMeters>104</AltitudeMeters>
            <DistanceMeters>NAN</DistanceMeters>
          </Trackpoint>
          <Trackpoint>
            <Time>2022-07-17T09:28:15.000Z</Time>
            <Position>
              <LatitudeDegrees>43.47599892877042293548583984375</LatitudeDegrees>
              <LongitudeDegrees>-5.15144200064241886138916015625</LongitudeDegrees>
            </Position>
            <AltitudeMeters>104</AltitudeMeters>
            <DistanceMeters>NAN</DistanceMeters>
          </Trackpoint>
          <Trackpoint>
            <Time>2022-07-17T09:28:23.000Z</Time>
            <Position>
              <LatitudeDegrees>43.47601016052067279815673828125</LatitudeDegrees>
              <LongitudeDegrees>-5.15157812274992465972900390625</LongitudeDegrees>
            </Position>
            <AltitudeMeters>103.59999847412109375</AltitudeMeters>
            <DistanceMeters>NAN</DistanceMeters>
          </Trackpoint>
          <Trackpoint>
            <Time>2022-07-17T09:28:30.000Z</Time>
            <Position>
              <LatitudeDegrees>43.4759827516973018646240234375</LatitudeDegrees>
              <LongitudeDegrees>-5.15169295482337474822998046875</LongitudeDegrees>
            </Position>
            <AltitudeMeters>103.40000152587890625</AltitudeMeters>
            <DistanceMeters>NAN</DistanceMeters>
          </Trackpoint>
          <Trackpoint>
            <Time>2022-07-17T09:28:32.000Z</Time>
            <Position>
              <LatitudeDegrees>43.475973196327686309814453125</LatitudeDegrees>
              <LongitudeDegrees>-5.15171592123806476593017578125</LongitudeDegrees>
            </Position>
            <AltitudeMeters>103.1999969482421875</AltitudeMeters>
            <DistanceMeters>NAN</DistanceMeters>
          </Trackpoint>
          <Trackpoint>
            <Time>2022-07-17T09:28:37.000Z</Time>
            <Position>
              <LatitudeDegrees>43.47592399455606937408447265625</LatitudeDegrees>
              <LongitudeDegrees>-5.15177316963672637939453125</LongitudeDegrees>
            </Position>
            <AltitudeMeters>103.1999969482421875</AltitudeMeters>
            <DistanceMeters>NAN</DistanceMeters>
          </Trackpoint>
          <Trackpoint>
            <Time>2022-07-17T09:28:39.000Z</Time>
            <Position>
              <LatitudeDegrees>43.47589935176074504852294921875</LatitudeDegrees>
              <LongitudeDegrees>-5.151796974241733551025390625</LongitudeDegrees>
            </Position>
            <AltitudeMeters>103.1999969482421875</AltitudeMeters>
            <DistanceMeters>NAN</DistanceMeters>
          </Trackpoint>
          <Trackpoint>
            <Time>2022-07-17T09:28:45.000Z</Time>
            <Position>
              <LatitudeDegrees>43.47581804729998111724853515625</LatitudeDegrees>
              <LongitudeDegrees>-5.1518507860600948333740234375</LongitudeDegrees>
            </Position>
            <AltitudeMeters>103.1999969482421875</AltitudeMeters>
            <DistanceMeters>NAN</DistanceMeters>
          </Trackpoint>
          <Trackpoint>
            <Time>2022-07-17T09:28:47.000Z</Time>
            <Position>
              <LatitudeDegrees>43.4757889620959758758544921875</LatitudeDegrees>
              <LongitudeDegrees>-5.15187199227511882781982421875</LongitudeDegrees>
            </Position>
            <AltitudeMeters>103</AltitudeMeters>
            <DistanceMeters>NAN</DistanceMeters>
          </Trackpoint>
          <Trackpoint>
            <Time>2022-07-17T09:28:51.000Z</Time>
            <Position>
              <LatitudeDegrees>43.47573691047728061676025390625</LatitudeDegrees>
              <LongitudeDegrees>-5.1519024185836315155029296875</LongitudeDegrees>
            </Position>
            <AltitudeMeters>103</AltitudeMeters>
            <DistanceMeters>NAN</DistanceMeters>
          </Trackpoint>
          <Trackpoint>
            <Time>2022-07-17T09:28:54.000Z</Time>
            <Position>
              <LatitudeDegrees>43.47570598125457763671875</LatitudeDegrees>
              <LongitudeDegrees>-5.1519017480313777923583984375</LongitudeDegrees>
            </Position>
            <AltitudeMeters>102.8000030517578125</AltitudeMeters>
            <DistanceMeters>NAN</DistanceMeters>
          </Trackpoint>
          <Trackpoint>
            <Time>2022-07-17T09:28:57.000Z</Time>
            <Position>
              <LatitudeDegrees>43.47565057687461376190185546875</LatitudeDegrees>
              <LongitudeDegrees>-5.15187886543571949005126953125</LongitudeDegrees>
            </Position>
            <AltitudeMeters>102.8000030517578125</AltitudeMeters>
            <DistanceMeters>NAN</DistanceMeters>
          </Trackpoint>
          <Trackpoint>
            <Time>2022-07-17T09:29:02.000Z</Time>
            <Position>
              <LatitudeDegrees>43.47552166320383548736572265625</LatitudeDegrees>
              <LongitudeDegrees>-5.15185832977294921875</LongitudeDegrees>
            </Position>
            <AltitudeMeters>102.59999847412109375</AltitudeMeters>
            <DistanceMeters>NAN</DistanceMeters>
          </Trackpoint>
          <Trackpoint>
            <Time>2022-07-17T09:29:09.000Z</Time>
            <Position>
              <LatitudeDegrees>43.47531697712838649749755859375</LatitudeDegrees>
              <LongitudeDegrees>-5.1517964713275432586669921875</LongitudeDegrees>
            </Position>
            <AltitudeMeters>102.1999969482421875</AltitudeMeters>
            <DistanceMeters>NAN</DistanceMeters>
          </Trackpoint>
          <Trackpoint>
            <Time>2022-07-17T09:29:11.000Z</Time>
            <Position>
              <LatitudeDegrees>43.47526400350034236907958984375</LatitudeDegrees>
              <LongitudeDegrees>-5.1518139056861400604248046875</LongitudeDegrees>
            </Position>
            <AltitudeMeters>102</AltitudeMeters>
            <DistanceMeters>NAN</DistanceMeters>
          </Trackpoint>
          <Trackpoint>
            <Time>2022-07-17T09:29:14.000Z</Time>
            <Position>
              <LatitudeDegrees>43.47523617558181285858154296875</LatitudeDegrees>
              <LongitudeDegrees>-5.15182589180767536163330078125</LongitudeDegrees>
            </Position>
            <AltitudeMeters>101</AltitudeMeters>
            <DistanceMeters>NAN</DistanceMeters>
          </Trackpoint>
          <Trackpoint>
            <Time>2022-07-17T09:29:15.000Z</Time>
            <Position>
              <LatitudeDegrees>43.47523617558181285858154296875</LatitudeDegrees>
              <LongitudeDegrees>-5.15182589180767536163330078125</LongitudeDegrees>
            </Position>
            <AltitudeMeters>100.8000030517578125</AltitudeMeters>
            <DistanceMeters>NAN</DistanceMeters>
          </Trackpoint>
          <Trackpoint>
            <Time>2022-07-17T09:30:34.000Z</Time>
            <Position>
              <LatitudeDegrees>43.475183285772800445556640625</LatitudeDegrees>
              <LongitudeDegrees>-5.1518611796200275421142578125</LongitudeDegrees>
            </Position>
            <AltitudeMeters>101</AltitudeMeters>
            <DistanceMeters>NAN</DistanceMeters>
          </Trackpoint>
          <Trackpoint>
            <Time>2022-07-17T09:30:35.000Z</Time>
            <Position>
              <LatitudeDegrees>43.47515671513974666595458984375</LatitudeDegrees>
              <LongitudeDegrees>-5.15187953598797321319580078125</LongitudeDegrees>
            </Position>
            <AltitudeMeters>100.8000030517578125</AltitudeMeters>
            <DistanceMeters>NAN</DistanceMeters>
          </Trackpoint>
          <Trackpoint>
            <Time>2022-07-17T09:30:36.000Z</Time>
            <Position>
              <LatitudeDegrees>43.47512721084058284759521484375</LatitudeDegrees>
              <LongitudeDegrees>-5.1519020833075046539306640625</LongitudeDegrees>
            </Position>
            <AltitudeMeters>100.59999847412109375</AltitudeMeters>
            <DistanceMeters>NAN</DistanceMeters>
          </Trackpoint>
          <Trackpoint>
            <Time>2022-07-17T09:30:40.000Z</Time>
            <Position>
              <LatitudeDegrees>43.47496233880519866943359375</LatitudeDegrees>
              <LongitudeDegrees>-5.15204147435724735260009765625</LongitudeDegrees>
            </Position>
            <AltitudeMeters>99.8000030517578125</AltitudeMeters>
            <DistanceMeters>NAN</DistanceMeters>
          </Trackpoint>
          <Trackpoint>
            <Time>2022-07-17T09:30:47.000Z</Time>
            <Position>
              <LatitudeDegrees>43.47470493055880069732666015625</LatitudeDegrees>
              <LongitudeDegrees>-5.15228052623569965362548828125</LongitudeDegrees>
            </Position>
            <AltitudeMeters>98.59999847412109375</AltitudeMeters>
            <DistanceMeters>NAN</DistanceMeters>
          </Trackpoint>
          <Trackpoint>
            <Time>2022-07-17T09:30:52.000Z</Time>
            <Position>
              <LatitudeDegrees>43.47454726696014404296875</LatitudeDegrees>
              <LongitudeDegrees>-5.15240441076457500457763671875</LongitudeDegrees>
            </Position>
            <AltitudeMeters>98</AltitudeMeters>
            <DistanceMeters>NAN</DistanceMeters>
          </Trackpoint>
          <Trackpoint>
            <Time>2022-07-17T09:30:53.000Z</Time>
            <Position>
              <LatitudeDegrees>43.4745427407324314117431640625</LatitudeDegrees>
              <LongitudeDegrees>-5.15240994282066822052001953125</LongitudeDegrees>
            </Position>
            <AltitudeMeters>98</AltitudeMeters>
            <DistanceMeters>NAN</DistanceMeters>
          </Trackpoint>
          <Trackpoint>
            <Time>2022-07-17T09:30:55.000Z</Time>
            <Position>
              <LatitudeDegrees>43.4745427407324314117431640625</LatitudeDegrees>
              <LongitudeDegrees>-5.15240994282066822052001953125</LongitudeDegrees>
            </Position>
            <AltitudeMeters>97.8000030517578125</AltitudeMeters>
            <DistanceMeters>NAN</DistanceMeters>
          </Trackpoint>
          <Trackpoint>
            <Time>2022-07-17T09:31:16.000Z</Time>
            <Position>
              <LatitudeDegrees>43.474524132907390594482421875</LatitudeDegrees>
              <LongitudeDegrees>-5.15241832472383975982666015625</LongitudeDegrees>
            </Position>
            <AltitudeMeters>97.40000152587890625</AltitudeMeters>
            <DistanceMeters>NAN</DistanceMeters>
          </Trackpoint>
          <Trackpoint>
            <Time>2022-07-17T09:31:20.000Z</Time>
            <Position>
              <LatitudeDegrees>43.47447593696415424346923828125</LatitudeDegrees>
              <LongitudeDegrees>-5.152441374957561492919921875</LongitudeDegrees>
            </Position>
            <AltitudeMeters>97.40000152587890625</AltitudeMeters>
            <DistanceMeters>NAN</DistanceMeters>
          </Trackpoint>
          <Trackpoint>
            <Time>2022-07-17T09:31:23.000Z</Time>
            <Position>
              <LatitudeDegrees>43.47443872131407260894775390625</LatitudeDegrees>
              <LongitudeDegrees>-5.1524660177528858184814453125</LongitudeDegrees>
            </Position>
            <AltitudeMeters>97.40000152587890625</AltitudeMeters>
            <DistanceMeters>NAN</DistanceMeters>
          </Trackpoint>
          <Trackpoint>
            <Time>2022-07-17T09:31:31.000Z</Time>
            <Position>
              <LatitudeDegrees>43.474331684410572052001953125</LatitudeDegrees>
              <LongitudeDegrees>-5.15249158255755901336669921875</LongitudeDegrees>
            </Position>
            <AltitudeMeters>97.1999969482421875</AltitudeMeters>
            <DistanceMeters>NAN</DistanceMeters>
          </Trackpoint>
          <Trackpoint>
            <Time>2022-07-17T09:31:32.000Z</Time>
            <Position>
              <LatitudeDegrees>43.47431701608002185821533203125</LatitudeDegrees>
              <LongitudeDegrees>-5.1524913311004638671875</LongitudeDegrees>
            </Position>
            <AltitudeMeters>97.1999969482421875</AltitudeMeters>
            <DistanceMeters>NAN</DistanceMeters>
          </Trackpoint>
          <Trackpoint>
            <Time>2022-07-17T09:31:39.000Z</Time>
            <Position>
              <LatitudeDegrees>43.47422163002192974090576171875</LatitudeDegrees>
              <LongitudeDegrees>-5.1523979566991329193115234375</LongitudeDegrees>
            </Position>
            <AltitudeMeters>97</AltitudeMeters>
            <DistanceMeters>NAN</DistanceMeters>
          </Trackpoint>
          <Trackpoint>
            <Time>2022-07-17T09:31:45.000Z</Time>
            <Position>
              <LatitudeDegrees>43.47409975714981555938720703125</LatitudeDegrees>
              <LongitudeDegrees>-5.15222302637994289398193359375</LongitudeDegrees>
            </Position>
            <AltitudeMeters>97</AltitudeMeters>
            <DistanceMeters>NAN</DistanceMeters>
          </Trackpoint>
          <Trackpoint>
            <Time>2022-07-17T09:31:48.000Z</Time>
            <Position>
              <LatitudeDegrees>43.47399942576885223388671875</LatitudeDegrees>
              <LongitudeDegrees>-5.1521984674036502838134765625</LongitudeDegrees>
            </Position>
            <AltitudeMeters>96.1999969482421875</AltitudeMeters>
            <DistanceMeters>NAN</DistanceMeters>
          </Trackpoint>
          <Trackpoint>
            <Time>2022-07-17T09:31:49.000Z</Time>
            <Position>
              <LatitudeDegrees>43.47397000528872013092041015625</LatitudeDegrees>
              <LongitudeDegrees>-5.15221581794321537017822265625</LongitudeDegrees>
            </Position>
            <AltitudeMeters>95.8000030517578125</AltitudeMeters>
            <DistanceMeters>NAN</DistanceMeters>
          </Trackpoint>
          <Trackpoint>
            <Time>2022-07-17T09:31:50.000Z</Time>
            <Position>
              <LatitudeDegrees>43.47391493618488311767578125</LatitudeDegrees>
              <LongitudeDegrees>-5.15225571580231189727783203125</LongitudeDegrees>
            </Position>
            <AltitudeMeters>95.40000152587890625</AltitudeMeters>
            <DistanceMeters>NAN</DistanceMeters>
          </Trackpoint>
          <Trackpoint>
            <Time>2022-07-17T09:31:52.000Z</Time>
            <Position>
              <LatitudeDegrees>43.47383723594248294830322265625</LatitudeDegrees>
              <LongitudeDegrees>-5.15239569358527660369873046875</LongitudeDegrees>
            </Position>
            <AltitudeMeters>94.8000030517578125</AltitudeMeters>
            <DistanceMeters>NAN</DistanceMeters>
          </Trackpoint>
          <Trackpoint>
            <Time>2022-07-17T09:31:56.000Z</Time>
            <Position>
              <LatitudeDegrees>43.4737310372292995452880859375</LatitudeDegrees>
              <LongitudeDegrees>-5.1527164690196514129638671875</LongitudeDegrees>
            </Position>
            <AltitudeMeters>93.8000030517578125</AltitudeMeters>
            <DistanceMeters>NAN</DistanceMeters>
          </Trackpoint>
          <Trackpoint>
            <Time>2022-07-17T09:31:58.000Z</Time>
            <Position>
              <LatitudeDegrees>43.47367060370743274688720703125</LatitudeDegrees>
              <LongitudeDegrees>-5.1529089175164699554443359375</LongitudeDegrees>
            </Position>
            <AltitudeMeters>93</AltitudeMeters>
            <DistanceMeters>NAN</DistanceMeters>
          </Trackpoint>
          <Trackpoint>
            <Time>2022-07-17T09:32:00.000Z</Time>
            <Position>
              <LatitudeDegrees>43.47360606305301189422607421875</LatitudeDegrees>
              <LongitudeDegrees>-5.153078399598598480224609375</LongitudeDegrees>
            </Position>
            <AltitudeMeters>92.59999847412109375</AltitudeMeters>
            <DistanceMeters>NAN</DistanceMeters>
          </Trackpoint>
          <Trackpoint>
            <Time>2022-07-17T09:32:03.000Z</Time>
            <Position>
              <LatitudeDegrees>43.4735013730823993682861328125</LatitudeDegrees>
              <LongitudeDegrees>-5.1533025316894054412841796875</LongitudeDegrees>
            </Position>
            <AltitudeMeters>92.40000152587890625</AltitudeMeters>
            <DistanceMeters>NAN</DistanceMeters>
          </Trackpoint>
          <Trackpoint>
            <Time>2022-07-17T09:32:06.000Z</Time>
            <Position>
              <LatitudeDegrees>43.47340389154851436614990234375</LatitudeDegrees>
              <LongitudeDegrees>-5.15350344590842723846435546875</LongitudeDegrees>
            </Position>
            <AltitudeMeters>91.40000152587890625</AltitudeMeters>
            <DistanceMeters>NAN</DistanceMeters>
          </Trackpoint>
          <Trackpoint>
            <Time>2022-07-17T09:32:08.000Z</Time>
            <Position>
              <LatitudeDegrees>43.47334630787372589111328125</LatitudeDegrees>
              <LongitudeDegrees>-5.15362347476184368133544921875</LongitudeDegrees>
            </Position>
            <AltitudeMeters>90.8000030517578125</AltitudeMeters>
            <DistanceMeters>NAN</DistanceMeters>
          </Trackpoint>
          <Trackpoint>
            <Time>2022-07-17T09:32:10.000Z</Time>
            <Position>
              <LatitudeDegrees>43.47329643554985523223876953125</LatitudeDegrees>
              <LongitudeDegrees>-5.153728164732456207275390625</LongitudeDegrees>
            </Position>
            <AltitudeMeters>89.59999847412109375</AltitudeMeters>
            <DistanceMeters>NAN</DistanceMeters>
          </Trackpoint>
          <Trackpoint>
            <Time>2022-07-17T09:32:12.000Z</Time>
            <Position>
              <LatitudeDegrees>43.47325871698558330535888671875</LatitudeDegrees>
              <LongitudeDegrees>-5.15381030738353729248046875</LongitudeDegrees>
            </Position>
            <AltitudeMeters>88.40000152587890625</AltitudeMeters>
            <DistanceMeters>NAN</DistanceMeters>
          </Trackpoint>
          <Trackpoint>
            <Time>2022-07-17T09:32:14.000Z</Time>
            <Position>
              <LatitudeDegrees>43.4732318110764026641845703125</LatitudeDegrees>
              <LongitudeDegrees>-5.153863616287708282470703125</LongitudeDegrees>
            </Position>
            <AltitudeMeters>86.8000030517578125</AltitudeMeters>
            <DistanceMeters>NAN</DistanceMeters>
          </Trackpoint>
          <Trackpoint>
            <Time>2022-07-17T09:32:16.000Z</Time>
            <Position>
              <LatitudeDegrees>43.47320725210011005401611328125</LatitudeDegrees>
              <LongitudeDegrees>-5.15389588661491870880126953125</LongitudeDegrees>
            </Position>
            <AltitudeMeters>85.1999969482421875</AltitudeMeters>
            <DistanceMeters>NAN</DistanceMeters>
          </Trackpoint>
          <Trackpoint>
            <Time>2022-07-17T09:32:17.000Z</Time>
            <Position>
              <LatitudeDegrees>43.473198451101779937744140625</LatitudeDegrees>
              <LongitudeDegrees>-5.15391097404062747955322265625</LongitudeDegrees>
            </Position>
            <AltitudeMeters>84.59999847412109375</AltitudeMeters>
            <DistanceMeters>NAN</DistanceMeters>
          </Trackpoint>
          <Trackpoint>
            <Time>2022-07-17T09:32:19.000Z</Time>
            <Position>
              <LatitudeDegrees>43.47318814136087894439697265625</LatitudeDegrees>
              <LongitudeDegrees>-5.1539408974349498748779296875</LongitudeDegrees>
            </Position>
            <AltitudeMeters>84.1999969482421875</AltitudeMeters>
            <DistanceMeters>NAN</DistanceMeters>
          </Trackpoint>
          <Trackpoint>
            <Time>2022-07-17T09:32:25.000Z</Time>
            <Position>
              <LatitudeDegrees>43.47313533537089824676513671875</LatitudeDegrees>
              <LongitudeDegrees>-5.1540227048099040985107421875</LongitudeDegrees>
            </Position>
            <AltitudeMeters>83.8000030517578125</AltitudeMeters>
            <DistanceMeters>NAN</DistanceMeters>
          </Trackpoint>
          <Trackpoint>
            <Time>2022-07-17T09:32:27.000Z</Time>
            <Position>
              <LatitudeDegrees>43.473123013973236083984375</LatitudeDegrees>
              <LongitudeDegrees>-5.154045335948467254638671875</LongitudeDegrees>
            </Position>
            <AltitudeMeters>83.59999847412109375</AltitudeMeters>
            <DistanceMeters>NAN</DistanceMeters>
          </Trackpoint>
          <Trackpoint>
            <Time>2022-07-17T09:32:32.000Z</Time>
            <Position>
              <LatitudeDegrees>43.4730953536927700042724609375</LatitudeDegrees>
              <LongitudeDegrees>-5.1541252993047237396240234375</LongitudeDegrees>
            </Position>
            <AltitudeMeters>83.1999969482421875</AltitudeMeters>
            <DistanceMeters>NAN</DistanceMeters>
          </Trackpoint>
          <Trackpoint>
            <Time>2022-07-17T09:32:33.000Z</Time>
            <Position>
              <LatitudeDegrees>43.4730836190283298492431640625</LatitudeDegrees>
              <LongitudeDegrees>-5.15414826571941375732421875</LongitudeDegrees>
            </Position>
            <AltitudeMeters>83</AltitudeMeters>
            <DistanceMeters>NAN</DistanceMeters>
          </Trackpoint>
          <Trackpoint>
            <Time>2022-07-17T09:32:38.000Z</Time>
            <Position>
              <LatitudeDegrees>43.4730219282209873199462890625</LatitudeDegrees>
              <LongitudeDegrees>-5.1542889140546321868896484375</LongitudeDegrees>
            </Position>
            <AltitudeMeters>81.8000030517578125</AltitudeMeters>
            <DistanceMeters>NAN</DistanceMeters>
          </Trackpoint>
          <Trackpoint>
            <Time>2022-07-17T09:32:41.000Z</Time>
            <Position>
              <LatitudeDegrees>43.472955040633678436279296875</LatitudeDegrees>
              <LongitudeDegrees>-5.1543787680566310882568359375</LongitudeDegrees>
            </Position>
            <AltitudeMeters>80.40000152587890625</AltitudeMeters>
            <DistanceMeters>NAN</DistanceMeters>
          </Trackpoint>
          <Trackpoint>
            <Time>2022-07-17T09:32:43.000Z</Time>
            <Position>
              <LatitudeDegrees>43.47291715443134307861328125</LatitudeDegrees>
              <LongitudeDegrees>-5.1544304005801677703857421875</LongitudeDegrees>
            </Position>
            <AltitudeMeters>79.1999969482421875</AltitudeMeters>
            <DistanceMeters>NAN</DistanceMeters>
          </Trackpoint>
          <Trackpoint>
            <Time>2022-07-17T09:32:44.000Z</Time>
            <Position>
              <LatitudeDegrees>43.4729049168527126312255859375</LatitudeDegrees>
              <LongitudeDegrees>-5.15445001423358917236328125</LongitudeDegrees>
            </Position>
            <AltitudeMeters>78.59999847412109375</AltitudeMeters>
            <DistanceMeters>NAN</DistanceMeters>
          </Trackpoint>
          <Trackpoint>
            <Time>2022-07-17T09:32:45.000Z</Time>
            <Position>
              <LatitudeDegrees>43.47289477474987506866455078125</LatitudeDegrees>
              <LongitudeDegrees>-5.15447205863893032073974609375</LongitudeDegrees>
            </Position>
            <AltitudeMeters>77.8000030517578125</AltitudeMeters>
            <DistanceMeters>NAN</DistanceMeters>
          </Trackpoint>
          <Trackpoint>
            <Time>2022-07-17T09:32:47.000Z</Time>
            <Position>
              <LatitudeDegrees>43.4728811122477054595947265625</LatitudeDegrees>
              <LongitudeDegrees>-5.15452645719051361083984375</LongitudeDegrees>
            </Position>
            <AltitudeMeters>77</AltitudeMeters>
            <DistanceMeters>NAN</DistanceMeters>
          </Trackpoint>
          <Trackpoint>
            <Time>2022-07-17T09:32:48.000Z</Time>
            <Position>
              <LatitudeDegrees>43.4728854708373546600341796875</LatitudeDegrees>
              <LongitudeDegrees>-5.1545497588813304901123046875</LongitudeDegrees>
            </Position>
            <AltitudeMeters>76.40000152587890625</AltitudeMeters>
            <DistanceMeters>NAN</DistanceMeters>
          </Trackpoint>
          <Trackpoint>
            <Time>2022-07-17T09:32:50.000Z</Time>
            <Position>
              <LatitudeDegrees>43.47290776669979095458984375</LatitudeDegrees>
              <LongitudeDegrees>-5.15458655543625354766845703125</LongitudeDegrees>
            </Position>
            <AltitudeMeters>75.40000152587890625</AltitudeMeters>
            <DistanceMeters>NAN</DistanceMeters>
          </Trackpoint>
          <Trackpoint>
            <Time>2022-07-17T09:32:53.000Z</Time>
            <Position>
              <LatitudeDegrees>43.47297155298292636871337890625</LatitudeDegrees>
              <LongitudeDegrees>-5.1546154730021953582763671875</LongitudeDegrees>
            </Position>
            <AltitudeMeters>74</AltitudeMeters>
            <DistanceMeters>NAN</DistanceMeters>
          </Trackpoint>
          <Trackpoint>
            <Time>2022-07-17T09:32:56.000Z</Time>
            <Position>
              <LatitudeDegrees>43.47305419854819774627685546875</LatitudeDegrees>
              <LongitudeDegrees>-5.154655873775482177734375</LongitudeDegrees>
            </Position>
            <AltitudeMeters>72.59999847412109375</AltitudeMeters>
            <DistanceMeters>NAN</DistanceMeters>
          </Trackpoint>
          <Trackpoint>
            <Time>2022-07-17T09:32:58.000Z</Time>
            <Position>
              <LatitudeDegrees>43.4730906598269939422607421875</LatitudeDegrees>
              <LongitudeDegrees>-5.15468194149434566497802734375</LongitudeDegrees>
            </Position>
            <AltitudeMeters>71.40000152587890625</AltitudeMeters>
            <DistanceMeters>NAN</DistanceMeters>
          </Trackpoint>
          <Trackpoint>
            <Time>2022-07-17T09:32:59.000Z</Time>
            <Position>
              <LatitudeDegrees>43.4731037355959415435791015625</LatitudeDegrees>
              <LongitudeDegrees>-5.1546915806829929351806640625</LongitudeDegrees>
            </Position>
            <AltitudeMeters>70.8000030517578125</AltitudeMeters>
            <DistanceMeters>NAN</DistanceMeters>
          </Trackpoint>
          <Trackpoint>
            <Time>2022-07-17T09:33:01.000Z</Time>
            <Position>
              <LatitudeDegrees>43.47310700453817844390869140625</LatitudeDegrees>
              <LongitudeDegrees>-5.15469334088265895843505859375</LongitudeDegrees>
            </Position>
            <AltitudeMeters>70.40000152587890625</AltitudeMeters>
            <DistanceMeters>NAN</DistanceMeters>
          </Trackpoint>
          <Trackpoint>
            <Time>2022-07-17T09:33:02.000Z</Time>
            <Position>
              <LatitudeDegrees>43.47310700453817844390869140625</LatitudeDegrees>
              <LongitudeDegrees>-5.15469334088265895843505859375</LongitudeDegrees>
            </Position>
            <AltitudeMeters>70.1999969482421875</AltitudeMeters>
            <DistanceMeters>NAN</DistanceMeters>
          </Trackpoint>
          <Trackpoint>
            <Time>2022-07-17T09:33:07.000Z</Time>
            <Position>
              <LatitudeDegrees>43.47313013859093189239501953125</LatitudeDegrees>
              <LongitudeDegrees>-5.15479199588298797607421875</LongitudeDegrees>
            </Position>
            <AltitudeMeters>69.8000030517578125</AltitudeMeters>
            <DistanceMeters>NAN</DistanceMeters>
          </Trackpoint>
          <Trackpoint>
            <Time>2022-07-17T09:33:08.000Z</Time>
            <Position>
              <LatitudeDegrees>43.47312075085937976837158203125</LatitudeDegrees>
              <LongitudeDegrees>-5.15482828952372074127197265625</LongitudeDegrees>
            </Position>
            <AltitudeMeters>69.59999847412109375</AltitudeMeters>
            <DistanceMeters>NAN</DistanceMeters>
          </Trackpoint>
          <Trackpoint>
            <Time>2022-07-17T09:33:09.000Z</Time>
            <Position>
              <LatitudeDegrees>43.47310633398592472076416015625</LatitudeDegrees>
              <LongitudeDegrees>-5.15487539581954479217529296875</LongitudeDegrees>
            </Position>
            <AltitudeMeters>69.1999969482421875</AltitudeMeters>
            <DistanceMeters>NAN</DistanceMeters>
          </Trackpoint>
          <Trackpoint>
            <Time>2022-07-17T09:33:12.000Z</Time>
            <Position>
              <LatitudeDegrees>43.47306006588041782379150390625</LatitudeDegrees>
              <LongitudeDegrees>-5.1549598015844821929931640625</LongitudeDegrees>
            </Position>
            <AltitudeMeters>68</AltitudeMeters>
            <DistanceMeters>NAN</DistanceMeters>
          </Trackpoint>
          <Trackpoint>
            <Time>2022-07-17T09:33:14.000Z</Time>
            <Position>
              <LatitudeDegrees>43.47305067814886569976806640625</LatitudeDegrees>
              <LongitudeDegrees>-5.155004560947418212890625</LongitudeDegrees>
            </Position>
            <AltitudeMeters>67.40000152587890625</AltitudeMeters>
            <DistanceMeters>NAN</DistanceMeters>
          </Trackpoint>
          <Trackpoint>
            <Time>2022-07-17T09:33:16.000Z</Time>
            <Position>
              <LatitudeDegrees>43.47306543029844760894775390625</LatitudeDegrees>
              <LongitudeDegrees>-5.1550650782883167266845703125</LongitudeDegrees>
            </Position>
            <AltitudeMeters>67</AltitudeMeters>
            <DistanceMeters>NAN</DistanceMeters>
          </Trackpoint>
          <Trackpoint>
            <Time>2022-07-17T09:33:21.000Z</Time>
            <Position>
              <LatitudeDegrees>43.47313382662832736968994140625</LatitudeDegrees>
              <LongitudeDegrees>-5.15513372607529163360595703125</LongitudeDegrees>
            </Position>
            <AltitudeMeters>66.8000030517578125</AltitudeMeters>
            <DistanceMeters>NAN</DistanceMeters>
          </Trackpoint>
          <Trackpoint>
            <Time>2022-07-17T09:33:29.000Z</Time>
            <Position>
              <LatitudeDegrees>43.47324832342565059661865234375</LatitudeDegrees>
              <LongitudeDegrees>-5.15529356896877288818359375</LongitudeDegrees>
            </Position>
            <AltitudeMeters>67.8000030517578125</AltitudeMeters>
            <DistanceMeters>NAN</DistanceMeters>
          </Trackpoint>
          <Trackpoint>
            <Time>2022-07-17T09:33:31.000Z</Time>
            <Position>
              <LatitudeDegrees>43.4732670150697231292724609375</LatitudeDegrees>
              <LongitudeDegrees>-5.15534008853137493133544921875</LongitudeDegrees>
            </Position>
            <AltitudeMeters>68</AltitudeMeters>
            <DistanceMeters>NAN</DistanceMeters>
          </Trackpoint>
          <Trackpoint>
            <Time>2022-07-17T09:33:37.000Z</Time>
            <Position>
              <LatitudeDegrees>43.47329341806471347808837890625</LatitudeDegrees>
              <LongitudeDegrees>-5.15548459254205226898193359375</LongitudeDegrees>
            </Position>
            <AltitudeMeters>68.8000030517578125</AltitudeMeters>
            <DistanceMeters>NAN</DistanceMeters>
          </Trackpoint>
          <Trackpoint>
            <Time>2022-07-17T09:33:40.000Z</Time>
            <Position>
              <LatitudeDegrees>43.473292328417301177978515625</LatitudeDegrees>
              <LongitudeDegrees>-5.155559442937374114990234375</LongitudeDegrees>
            </Position>
            <AltitudeMeters>69</AltitudeMeters>
            <DistanceMeters>NAN</DistanceMeters>
          </Trackpoint>
          <Trackpoint>
            <Time>2022-07-17T09:33:43.000Z</Time>
            <Position>
              <LatitudeDegrees>43.47330917604267597198486328125</LatitudeDegrees>
              <LongitudeDegrees>-5.15564150176942348480224609375</LongitudeDegrees>
            </Position>
            <AltitudeMeters>69.59999847412109375</AltitudeMeters>
            <DistanceMeters>NAN</DistanceMeters>
          </Trackpoint>
          <Trackpoint>
            <Time>2022-07-17T09:33:44.000Z</Time>
            <Position>
              <LatitudeDegrees>43.473316468298435211181640625</LatitudeDegrees>
              <LongitudeDegrees>-5.15566639602184295654296875</LongitudeDegrees>
            </Position>
            <AltitudeMeters>69.8000030517578125</AltitudeMeters>
            <DistanceMeters>NAN</DistanceMeters>
          </Trackpoint>
          <Trackpoint>
            <Time>2022-07-17T09:33:46.000Z</Time>
            <Position>
              <LatitudeDegrees>43.473334573209285736083984375</LatitudeDegrees>
              <LongitudeDegrees>-5.1557138375937938690185546875</LongitudeDegrees>
            </Position>
            <AltitudeMeters>70</AltitudeMeters>
            <DistanceMeters>NAN</DistanceMeters>
          </Trackpoint>
          <Trackpoint>
            <Time>2022-07-17T09:33:50.000Z</Time>
            <Position>
              <LatitudeDegrees>43.47337623126804828643798828125</LatitudeDegrees>
              <LongitudeDegrees>-5.15578935854136943817138671875</LongitudeDegrees>
            </Position>
            <AltitudeMeters>70.40000152587890625</AltitudeMeters>
            <DistanceMeters>NAN</DistanceMeters>
          </Trackpoint>
          <Trackpoint>
            <Time>2022-07-17T09:33:54.000Z</Time>
            <Position>
              <LatitudeDegrees>43.47341193817555904388427734375</LatitudeDegrees>
              <LongitudeDegrees>-5.15585146844387054443359375</LongitudeDegrees>
            </Position>
            <AltitudeMeters>70.59999847412109375</AltitudeMeters>
            <DistanceMeters>NAN</DistanceMeters>
          </Trackpoint>
          <Trackpoint>
            <Time>2022-07-17T09:33:58.000Z</Time>
            <Position>
              <LatitudeDegrees>43.4734564460813999176025390625</LatitudeDegrees>
              <LongitudeDegrees>-5.155920200049877166748046875</LongitudeDegrees>
            </Position>
            <AltitudeMeters>71</AltitudeMeters>
            <DistanceMeters>NAN</DistanceMeters>
          </Trackpoint>
          <Trackpoint>
            <Time>2022-07-17T09:33:59.000Z</Time>
            <Position>
              <LatitudeDegrees>43.4734701924026012420654296875</LatitudeDegrees>
              <LongitudeDegrees>-5.15593956224620342254638671875</LongitudeDegrees>
            </Position>
            <AltitudeMeters>71.1999969482421875</AltitudeMeters>
            <DistanceMeters>NAN</DistanceMeters>
          </Trackpoint>
          <Trackpoint>
            <Time>2022-07-17T09:34:03.000Z</Time>
            <Position>
              <LatitudeDegrees>43.47349072806537151336669921875</LatitudeDegrees>
              <LongitudeDegrees>-5.15595096163451671600341796875</LongitudeDegrees>
            </Position>
            <AltitudeMeters>71.40000152587890625</AltitudeMeters>
            <DistanceMeters>NAN</DistanceMeters>
          </Trackpoint>
          <Trackpoint>
            <Time>2022-07-17T09:34:22.000Z</Time>
            <Position>
              <LatitudeDegrees>43.47345870919525623321533203125</LatitudeDegrees>
              <LongitudeDegrees>-5.15594123862683773040771484375</LongitudeDegrees>
            </Position>
            <AltitudeMeters>71.59999847412109375</AltitudeMeters>
            <DistanceMeters>NAN</DistanceMeters>
          </Trackpoint>
          <Trackpoint>
            <Time>2022-07-17T09:34:25.000Z</Time>
            <Position>
              <LatitudeDegrees>43.47341260872781276702880859375</LatitudeDegrees>
              <LongitudeDegrees>-5.15587351284921169281005859375</LongitudeDegrees>
            </Position>
            <AltitudeMeters>71.59999847412109375</AltitudeMeters>
            <DistanceMeters>NAN</DistanceMeters>
          </Trackpoint>
          <Trackpoint>
            <Time>2022-07-17T09:34:30.000Z</Time>
            <Position>
              <LatitudeDegrees>43.47332661040127277374267578125</LatitudeDegrees>
              <LongitudeDegrees>-5.1556648872792720794677734375</LongitudeDegrees>
            </Position>
            <AltitudeMeters>71.1999969482421875</AltitudeMeters>
            <DistanceMeters>NAN</DistanceMeters>
          </Trackpoint>
          <Trackpoint>
            <Time>2022-07-17T09:34:35.000Z</Time>
            <Position>
              <LatitudeDegrees>43.47324882633984088897705078125</LatitudeDegrees>
              <LongitudeDegrees>-5.15539037995040416717529296875</LongitudeDegrees>
            </Position>
            <AltitudeMeters>70.59999847412109375</AltitudeMeters>
            <DistanceMeters>NAN</DistanceMeters>
          </Trackpoint>
          <Trackpoint>
            <Time>2022-07-17T09:34:37.000Z</Time>
            <Position>
              <LatitudeDegrees>43.4732063300907611846923828125</LatitudeDegrees>
              <LongitudeDegrees>-5.15525107271969318389892578125</LongitudeDegrees>
            </Position>
            <AltitudeMeters>70</AltitudeMeters>
            <DistanceMeters>NAN</DistanceMeters>
          </Trackpoint>
          <Trackpoint>
            <Time>2022-07-17T09:34:39.000Z</Time>
            <Position>
              <LatitudeDegrees>43.47313600592315196990966796875</LatitudeDegrees>
              <LongitudeDegrees>-5.15512350015342235565185546875</LongitudeDegrees>
            </Position>
            <AltitudeMeters>69.59999847412109375</AltitudeMeters>
            <DistanceMeters>NAN</DistanceMeters>
          </Trackpoint>
          <Trackpoint>
            <Time>2022-07-17T09:34:40.000Z</Time>
            <Position>
              <LatitudeDegrees>43.4730903245508670806884765625</LatitudeDegrees>
              <LongitudeDegrees>-5.15507287345826625823974609375</LongitudeDegrees>
            </Position>
            <AltitudeMeters>69.40000152587890625</AltitudeMeters>
            <DistanceMeters>NAN</DistanceMeters>
          </Trackpoint>
          <Trackpoint>
            <Time>2022-07-17T09:34:41.000Z</Time>
            <Position>
              <LatitudeDegrees>43.47304430790245532989501953125</LatitudeDegrees>
              <LongitudeDegrees>-5.15504135750234127044677734375</LongitudeDegrees>
            </Position>
            <AltitudeMeters>69</AltitudeMeters>
            <DistanceMeters>NAN</DistanceMeters>
          </Trackpoint>
          <Trackpoint>
            <Time>2022-07-17T09:34:44.000Z</Time>
            <Position>
              <LatitudeDegrees>43.472853116691112518310546875</LatitudeDegrees>
              <LongitudeDegrees>-5.15497547574341297149658203125</LongitudeDegrees>
            </Position>
            <AltitudeMeters>68.40000152587890625</AltitudeMeters>
            <DistanceMeters>NAN</DistanceMeters>
          </Trackpoint>
          <Trackpoint>
            <Time>2022-07-17T09:34:46.000Z</Time>
            <Position>
              <LatitudeDegrees>43.47275077365338802337646484375</LatitudeDegrees>
              <LongitudeDegrees>-5.15495024621486663818359375</LongitudeDegrees>
            </Position>
            <AltitudeMeters>68</AltitudeMeters>
            <DistanceMeters>NAN</DistanceMeters>
          </Trackpoint>
          <Trackpoint>
            <Time>2022-07-17T09:34:50.000Z</Time>
            <Position>
              <LatitudeDegrees>43.4724968858063220977783203125</LatitudeDegrees>
              <LongitudeDegrees>-5.15491747297346591949462890625</LongitudeDegrees>
            </Position>
            <AltitudeMeters>66.8000030517578125</AltitudeMeters>
            <DistanceMeters>NAN</DistanceMeters>
          </Trackpoint>
          <Trackpoint>
            <Time>2022-07-17T09:34:51.000Z</Time>
            <Position>
              <LatitudeDegrees>43.47244449891149997711181640625</LatitudeDegrees>
              <LongitudeDegrees>-5.15491931699216365814208984375</LongitudeDegrees>
            </Position>
            <AltitudeMeters>66.40000152587890625</AltitudeMeters>
            <DistanceMeters>NAN</DistanceMeters>
          </Trackpoint>
          <Trackpoint>
            <Time>2022-07-17T09:34:53.000Z</Time>
            <Position>
              <LatitudeDegrees>43.47236705012619495391845703125</LatitudeDegrees>
              <LongitudeDegrees>-5.15492786653339862823486328125</LongitudeDegrees>
            </Position>
            <AltitudeMeters>65.1999969482421875</AltitudeMeters>
            <DistanceMeters>NAN</DistanceMeters>
          </Trackpoint>
          <Trackpoint>
            <Time>2022-07-17T09:34:55.000Z</Time>
            <Position>
              <LatitudeDegrees>43.472342155873775482177734375</LatitudeDegrees>
              <LongitudeDegrees>-5.15494412742555141448974609375</LongitudeDegrees>
            </Position>
            <AltitudeMeters>64.40000152587890625</AltitudeMeters>
            <DistanceMeters>NAN</DistanceMeters>
          </Trackpoint>
          <Trackpoint>
            <Time>2022-07-17T09:34:56.000Z</Time>
            <Position>
              <LatitudeDegrees>43.47233452834188938140869140625</LatitudeDegrees>
              <LongitudeDegrees>-5.15496575273573398590087890625</LongitudeDegrees>
            </Position>
            <AltitudeMeters>64</AltitudeMeters>
            <DistanceMeters>NAN</DistanceMeters>
          </Trackpoint>
          <Trackpoint>
            <Time>2022-07-17T09:35:00.000Z</Time>
            <Position>
              <LatitudeDegrees>43.47228683531284332275390625</LatitudeDegrees>
              <LongitudeDegrees>-5.1551069878041744232177734375</LongitudeDegrees>
            </Position>
            <AltitudeMeters>62.799999237060546875</AltitudeMeters>
            <DistanceMeters>NAN</DistanceMeters>
          </Trackpoint>
          <Trackpoint>
            <Time>2022-07-17T09:35:03.000Z</Time>
            <Position>
              <LatitudeDegrees>43.47226780839264392852783203125</LatitudeDegrees>
              <LongitudeDegrees>-5.15523363836109638214111328125</LongitudeDegrees>
            </Position>
            <AltitudeMeters>61.59999847412109375</AltitudeMeters>
            <DistanceMeters>NAN</DistanceMeters>
          </Trackpoint>
          <Trackpoint>
            <Time>2022-07-17T09:35:05.000Z</Time>
            <Position>
              <LatitudeDegrees>43.4722447581589221954345703125</LatitudeDegrees>
              <LongitudeDegrees>-5.1553224027156829833984375</LongitudeDegrees>
            </Position>
            <AltitudeMeters>60.200000762939453125</AltitudeMeters>
            <DistanceMeters>NAN</DistanceMeters>
          </Trackpoint>
          <Trackpoint>
            <Time>2022-07-17T09:35:07.000Z</Time>
            <Position>
              <LatitudeDegrees>43.472216427326202392578125</LatitudeDegrees>
              <LongitudeDegrees>-5.15541619621217250823974609375</LongitudeDegrees>
            </Position>
            <AltitudeMeters>59.40000152587890625</AltitudeMeters>
            <DistanceMeters>NAN</DistanceMeters>
          </Trackpoint>
          <Trackpoint>
            <Time>2022-07-17T09:35:08.000Z</Time>
            <Position>
              <LatitudeDegrees>43.4722051955759525299072265625</LatitudeDegrees>
              <LongitudeDegrees>-5.15546296723186969757080078125</LongitudeDegrees>
            </Position>
            <AltitudeMeters>59</AltitudeMeters>
            <DistanceMeters>NAN</DistanceMeters>
          </Trackpoint>
          <Trackpoint>
            <Time>2022-07-17T09:35:11.000Z</Time>
            <Position>
              <LatitudeDegrees>43.47217376343905925750732421875</LatitudeDegrees>
              <LongitudeDegrees>-5.15558836050331592559814453125</LongitudeDegrees>
            </Position>
            <AltitudeMeters>57.59999847412109375</AltitudeMeters>
            <DistanceMeters>NAN</DistanceMeters>
          </Trackpoint>
          <Trackpoint>
            <Time>2022-07-17T09:35:13.000Z</Time>
            <Position>
              <LatitudeDegrees>43.47214291803538799285888671875</LatitudeDegrees>
              <LongitudeDegrees>-5.155693553388118743896484375</LongitudeDegrees>
            </Position>
            <AltitudeMeters>57</AltitudeMeters>
            <DistanceMeters>NAN</DistanceMeters>
          </Trackpoint>
          <Trackpoint>
            <Time>2022-07-17T09:35:15.000Z</Time>
            <Position>
              <LatitudeDegrees>43.47210922278463840484619140625</LatitudeDegrees>
              <LongitudeDegrees>-5.1557808928191661834716796875</LongitudeDegrees>
            </Position>
            <AltitudeMeters>56.59999847412109375</AltitudeMeters>
            <DistanceMeters>NAN</DistanceMeters>
          </Trackpoint>
          <Trackpoint>
            <Time>2022-07-17T09:35:18.000Z</Time>
            <Position>
              <LatitudeDegrees>43.47207535989582538604736328125</LatitudeDegrees>
              <LongitudeDegrees>-5.15588524751365184783935546875</LongitudeDegrees>
            </Position>
            <AltitudeMeters>55.40000152587890625</AltitudeMeters>
            <DistanceMeters>NAN</DistanceMeters>
          </Trackpoint>
          <Trackpoint>
            <Time>2022-07-17T09:35:24.000Z</Time>
            <Position>
              <LatitudeDegrees>43.47201056778430938720703125</LatitudeDegrees>
              <LongitudeDegrees>-5.15612664632499217987060546875</LongitudeDegrees>
            </Position>
            <AltitudeMeters>54.200000762939453125</AltitudeMeters>
            <DistanceMeters>NAN</DistanceMeters>
          </Trackpoint>
          <Trackpoint>
            <Time>2022-07-17T09:35:25.000Z</Time>
            <Position>
              <LatitudeDegrees>43.47199983894824981689453125</LatitudeDegrees>
              <LongitudeDegrees>-5.156158246099948883056640625</LongitudeDegrees>
            </Position>
            <AltitudeMeters>54.200000762939453125</AltitudeMeters>
            <DistanceMeters>NAN</DistanceMeters>
          </Trackpoint>
          <Trackpoint>
            <Time>2022-07-17T09:35:32.000Z</Time>
            <Position>
              <LatitudeDegrees>43.4718994237482547760009765625</LatitudeDegrees>
              <LongitudeDegrees>-5.15638388693332672119140625</LongitudeDegrees>
            </Position>
            <AltitudeMeters>53.40000152587890625</AltitudeMeters>
            <DistanceMeters>NAN</DistanceMeters>
          </Trackpoint>
          <Trackpoint>
            <Time>2022-07-17T09:35:37.000Z</Time>
            <Position>
              <LatitudeDegrees>43.471832536160945892333984375</LatitudeDegrees>
              <LongitudeDegrees>-5.15655647031962871551513671875</LongitudeDegrees>
            </Position>
            <AltitudeMeters>53.200000762939453125</AltitudeMeters>
            <DistanceMeters>NAN</DistanceMeters>
          </Trackpoint>
          <Trackpoint>
            <Time>2022-07-17T09:35:40.000Z</Time>
            <Position>
              <LatitudeDegrees>43.4717894531786441802978515625</LatitudeDegrees>
              <LongitudeDegrees>-5.1566361822187900543212890625</LongitudeDegrees>
            </Position>
            <AltitudeMeters>53.200000762939453125</AltitudeMeters>
            <DistanceMeters>NAN</DistanceMeters>
          </Trackpoint>
          <Trackpoint>
            <Time>2022-07-17T09:35:46.000Z</Time>
            <Position>
              <LatitudeDegrees>43.4717156924307346343994140625</LatitudeDegrees>
              <LongitudeDegrees>-5.156716145575046539306640625</LongitudeDegrees>
            </Position>
            <AltitudeMeters>54.200000762939453125</AltitudeMeters>
            <DistanceMeters>NAN</DistanceMeters>
          </Trackpoint>
          <Trackpoint>
            <Time>2022-07-17T09:35:51.000Z</Time>
            <Position>
              <LatitudeDegrees>43.47165458835661411285400390625</LatitudeDegrees>
              <LongitudeDegrees>-5.15674254857003688812255859375</LongitudeDegrees>
            </Position>
            <AltitudeMeters>55.200000762939453125</AltitudeMeters>
            <DistanceMeters>NAN</DistanceMeters>
          </Trackpoint>
          <Trackpoint>
            <Time>2022-07-17T09:35:53.000Z</Time>
            <Position>
              <LatitudeDegrees>43.4716251678764820098876953125</LatitudeDegrees>
              <LongitudeDegrees>-5.156752355396747589111328125</LongitudeDegrees>
            </Position>
            <AltitudeMeters>55.799999237060546875</AltitudeMeters>
            <DistanceMeters>NAN</DistanceMeters>
          </Trackpoint>
          <Trackpoint>
            <Time>2022-07-17T09:35:55.000Z</Time>
            <Position>
              <LatitudeDegrees>43.47159340046346187591552734375</LatitudeDegrees>
              <LongitudeDegrees>-5.15675813890993595123291015625</LongitudeDegrees>
            </Position>
            <AltitudeMeters>56.40000152587890625</AltitudeMeters>
            <DistanceMeters>NAN</DistanceMeters>
          </Trackpoint>
          <Trackpoint>
            <Time>2022-07-17T09:35:56.000Z</Time>
            <Position>
              <LatitudeDegrees>43.47158133052289485931396484375</LatitudeDegrees>
              <LongitudeDegrees>-5.15676752664148807525634765625</LongitudeDegrees>
            </Position>
            <AltitudeMeters>56.59999847412109375</AltitudeMeters>
            <DistanceMeters>NAN</DistanceMeters>
          </Trackpoint>
          <Trackpoint>
            <Time>2022-07-17T09:35:58.000Z</Time>
            <Position>
              <LatitudeDegrees>43.47156808711588382720947265625</LatitudeDegrees>
              <LongitudeDegrees>-5.1568041555583477020263671875</LongitudeDegrees>
            </Position>
            <AltitudeMeters>57.200000762939453125</AltitudeMeters>
            <DistanceMeters>NAN</DistanceMeters>
          </Trackpoint>
          <Trackpoint>
            <Time>2022-07-17T09:35:59.000Z</Time>
            <Position>
              <LatitudeDegrees>43.47156238742172718048095703125</LatitudeDegrees>
              <LongitudeDegrees>-5.15682636760175228118896484375</LongitudeDegrees>
            </Position>
            <AltitudeMeters>57.40000152587890625</AltitudeMeters>
            <DistanceMeters>NAN</DistanceMeters>
          </Trackpoint>
          <Trackpoint>
            <Time>2022-07-17T09:36:00.000Z</Time>
            <Position>
              <LatitudeDegrees>43.471558950841426849365234375</LatitudeDegrees>
              <LongitudeDegrees>-5.15685184858739376068115234375</LongitudeDegrees>
            </Position>
            <AltitudeMeters>57.40000152587890625</AltitudeMeters>
            <DistanceMeters>NAN</DistanceMeters>
          </Trackpoint>
          <Trackpoint>
            <Time>2022-07-17T09:36:05.000Z</Time>
            <Position>
              <LatitudeDegrees>43.47153422422707080841064453125</LatitudeDegrees>
              <LongitudeDegrees>-5.1570202410221099853515625</LongitudeDegrees>
            </Position>
            <AltitudeMeters>57.40000152587890625</AltitudeMeters>
            <DistanceMeters>NAN</DistanceMeters>
          </Trackpoint>
          <Trackpoint>
            <Time>2022-07-17T09:36:09.000Z</Time>
            <Position>
              <LatitudeDegrees>43.471541516482830047607421875</LatitudeDegrees>
              <LongitudeDegrees>-5.15719181858003139495849609375</LongitudeDegrees>
            </Position>
            <AltitudeMeters>57.40000152587890625</AltitudeMeters>
            <DistanceMeters>NAN</DistanceMeters>
          </Trackpoint>
          <Trackpoint>
            <Time>2022-07-17T09:36:11.000Z</Time>
            <Position>
              <LatitudeDegrees>43.47155534662306308746337890625</LatitudeDegrees>
              <LongitudeDegrees>-5.15728552825748920440673828125</LongitudeDegrees>
            </Position>
            <AltitudeMeters>57.40000152587890625</AltitudeMeters>
            <DistanceMeters>NAN</DistanceMeters>
          </Trackpoint>
          <Trackpoint>
            <Time>2022-07-17T09:36:18.000Z</Time>
            <Position>
              <LatitudeDegrees>43.471669256687164306640625</LatitudeDegrees>
              <LongitudeDegrees>-5.15752072446048259735107421875</LongitudeDegrees>
            </Position>
            <AltitudeMeters>57.40000152587890625</AltitudeMeters>
            <DistanceMeters>NAN</DistanceMeters>
          </Trackpoint>
          <Trackpoint>
            <Time>2022-07-17T09:36:25.000Z</Time>
            <Position>
              <LatitudeDegrees>43.47186430357396602630615234375</LatitudeDegrees>
              <LongitudeDegrees>-5.1576758734881877899169921875</LongitudeDegrees>
            </Position>
            <AltitudeMeters>57.59999847412109375</AltitudeMeters>
            <DistanceMeters>NAN</DistanceMeters>
          </Trackpoint>
          <Trackpoint>
            <Time>2022-07-17T09:36:33.000Z</Time>
            <Position>
              <LatitudeDegrees>43.47208055667579174041748046875</LatitudeDegrees>
              <LongitudeDegrees>-5.15777620486915111541748046875</LongitudeDegrees>
            </Position>
            <AltitudeMeters>58</AltitudeMeters>
            <DistanceMeters>NAN</DistanceMeters>
          </Trackpoint>
          <Trackpoint>
            <Time>2022-07-17T09:36:39.000Z</Time>
            <Position>
              <LatitudeDegrees>43.47223260439932346343994140625</LatitudeDegrees>
              <LongitudeDegrees>-5.157850719988346099853515625</LongitudeDegrees>
            </Position>
            <AltitudeMeters>58.200000762939453125</AltitudeMeters>
            <DistanceMeters>NAN</DistanceMeters>
          </Trackpoint>
          <Trackpoint>
            <Time>2022-07-17T09:36:42.000Z</Time>
            <Position>
              <LatitudeDegrees>43.4723009169101715087890625</LatitudeDegrees>
              <LongitudeDegrees>-5.15790679492056369781494140625</LongitudeDegrees>
            </Position>
            <AltitudeMeters>58.40000152587890625</AltitudeMeters>
            <DistanceMeters>NAN</DistanceMeters>
          </Trackpoint>
          <Trackpoint>
            <Time>2022-07-17T09:36:48.000Z</Time>
            <Position>
              <LatitudeDegrees>43.47241264767944812774658203125</LatitudeDegrees>
              <LongitudeDegrees>-5.1580701582133769989013671875</LongitudeDegrees>
            </Position>
            <AltitudeMeters>58.59999847412109375</AltitudeMeters>
            <DistanceMeters>NAN</DistanceMeters>
          </Trackpoint>
          <Trackpoint>
            <Time>2022-07-17T09:36:49.000Z</Time>
            <Position>
              <LatitudeDegrees>43.472431339323520660400390625</LatitudeDegrees>
              <LongitudeDegrees>-5.15809438191354274749755859375</LongitudeDegrees>
            </Position>
            <AltitudeMeters>58.40000152587890625</AltitudeMeters>
            <DistanceMeters>NAN</DistanceMeters>
          </Trackpoint>
          <Trackpoint>
            <Time>2022-07-17T09:36:53.000Z</Time>
            <Position>
              <LatitudeDegrees>43.47248473204672336578369140625</LatitudeDegrees>
              <LongitudeDegrees>-5.15819060616195201873779296875</LongitudeDegrees>
            </Position>
            <AltitudeMeters>58.59999847412109375</AltitudeMeters>
            <DistanceMeters>NAN</DistanceMeters>
          </Trackpoint>
          <Trackpoint>
            <Time>2022-07-17T09:37:00.000Z</Time>
            <Position>
              <LatitudeDegrees>43.472589589655399322509765625</LatitudeDegrees>
              <LongitudeDegrees>-5.1583823002874851226806640625</LongitudeDegrees>
            </Position>
            <AltitudeMeters>58.799999237060546875</AltitudeMeters>
            <DistanceMeters>NAN</DistanceMeters>
          </Trackpoint>
          <Trackpoint>
            <Time>2022-07-17T09:37:08.000Z</Time>
            <Position>
              <LatitudeDegrees>43.4726765938103199005126953125</LatitudeDegrees>
              <LongitudeDegrees>-5.158635266125202178955078125</LongitudeDegrees>
            </Position>
            <AltitudeMeters>59</AltitudeMeters>
            <DistanceMeters>NAN</DistanceMeters>
          </Trackpoint>
          <Trackpoint>
            <Time>2022-07-17T09:37:16.000Z</Time>
            <Position>
              <LatitudeDegrees>43.4727381169795989990234375</LatitudeDegrees>
              <LongitudeDegrees>-5.15899577178061008453369140625</LongitudeDegrees>
            </Position>
            <AltitudeMeters>59.200000762939453125</AltitudeMeters>
            <DistanceMeters>NAN</DistanceMeters>
          </Trackpoint>
          <Trackpoint>
            <Time>2022-07-17T09:37:21.000Z</Time>
            <Position>
              <LatitudeDegrees>43.47279603593051433563232421875</LatitudeDegrees>
              <LongitudeDegrees>-5.15929886139929294586181640625</LongitudeDegrees>
            </Position>
            <AltitudeMeters>58.59999847412109375</AltitudeMeters>
            <DistanceMeters>NAN</DistanceMeters>
          </Trackpoint>
          <Trackpoint>
            <Time>2022-07-17T09:37:28.000Z</Time>
            <Position>
              <LatitudeDegrees>43.47297188825905323028564453125</LatitudeDegrees>
              <LongitudeDegrees>-5.1597270928323268890380859375</LongitudeDegrees>
            </Position>
            <AltitudeMeters>57.799999237060546875</AltitudeMeters>
            <DistanceMeters>NAN</DistanceMeters>
          </Trackpoint>
          <Trackpoint>
            <Time>2022-07-17T09:37:31.000Z</Time>
            <Position>
              <LatitudeDegrees>43.4730541147291660308837890625</LatitudeDegrees>
              <LongitudeDegrees>-5.1598927192389965057373046875</LongitudeDegrees>
            </Position>
            <AltitudeMeters>57.200000762939453125</AltitudeMeters>
            <DistanceMeters>NAN</DistanceMeters>
          </Trackpoint>
          <Trackpoint>
            <Time>2022-07-17T09:37:36.000Z</Time>
            <Position>
              <LatitudeDegrees>43.4732100181281566619873046875</LatitudeDegrees>
              <LongitudeDegrees>-5.16020477749407291412353515625</LongitudeDegrees>
            </Position>
            <AltitudeMeters>56.799999237060546875</AltitudeMeters>
            <DistanceMeters>NAN</DistanceMeters>
          </Trackpoint>
          <Trackpoint>
            <Time>2022-07-17T09:37:41.000Z</Time>
            <Position>
              <LatitudeDegrees>43.4733722917735576629638671875</LatitudeDegrees>
              <LongitudeDegrees>-5.16057022847235202789306640625</LongitudeDegrees>
            </Position>
            <AltitudeMeters>56.200000762939453125</AltitudeMeters>
            <DistanceMeters>NAN</DistanceMeters>
          </Trackpoint>
          <Trackpoint>
            <Time>2022-07-17T09:37:43.000Z</Time>
            <Position>
              <LatitudeDegrees>43.47344328649342060089111328125</LatitudeDegrees>
              <LongitudeDegrees>-5.1607376150786876678466796875</LongitudeDegrees>
            </Position>
            <AltitudeMeters>55.799999237060546875</AltitudeMeters>
            <DistanceMeters>NAN</DistanceMeters>
          </Trackpoint>
          <Trackpoint>
            <Time>2022-07-17T09:37:45.000Z</Time>
            <Position>
              <LatitudeDegrees>43.47348921932280063629150390625</LatitudeDegrees>
              <LongitudeDegrees>-5.1609015651047229766845703125</LongitudeDegrees>
            </Position>
            <AltitudeMeters>55.200000762939453125</AltitudeMeters>
            <DistanceMeters>NAN</DistanceMeters>
          </Trackpoint>
          <Trackpoint>
            <Time>2022-07-17T09:37:47.000Z</Time>
            <Position>
              <LatitudeDegrees>43.47349525429308414459228515625</LatitudeDegrees>
              <LongitudeDegrees>-5.16106224618852138519287109375</LongitudeDegrees>
            </Position>
            <AltitudeMeters>54.799999237060546875</AltitudeMeters>
            <DistanceMeters>NAN</DistanceMeters>
          </Trackpoint>
          <Trackpoint>
            <Time>2022-07-17T09:37:48.000Z</Time>
            <Position>
              <LatitudeDegrees>43.47348846495151519775390625</LatitudeDegrees>
              <LongitudeDegrees>-5.16116618178784847259521484375</LongitudeDegrees>
            </Position>
            <AltitudeMeters>54.59999847412109375</AltitudeMeters>
            <DistanceMeters>NAN</DistanceMeters>
          </Trackpoint>
          <Trackpoint>
            <Time>2022-07-17T09:37:50.000Z</Time>
            <Position>
              <LatitudeDegrees>43.47345233894884586334228515625</LatitudeDegrees>
              <LongitudeDegrees>-5.161318145692348480224609375</LongitudeDegrees>
            </Position>
            <AltitudeMeters>54.40000152587890625</AltitudeMeters>
            <DistanceMeters>NAN</DistanceMeters>
          </Trackpoint>
          <Trackpoint>
            <Time>2022-07-17T09:37:51.000Z</Time>
            <Position>
              <LatitudeDegrees>43.473423756659030914306640625</LatitudeDegrees>
              <LongitudeDegrees>-5.16139693558216094970703125</LongitudeDegrees>
            </Position>
            <AltitudeMeters>54.200000762939453125</AltitudeMeters>
            <DistanceMeters>NAN</DistanceMeters>
          </Trackpoint>
          <Trackpoint>
            <Time>2022-07-17T09:37:52.000Z</Time>
            <Position>
              <LatitudeDegrees>43.47339349798858165740966796875</LatitudeDegrees>
              <LongitudeDegrees>-5.1614768989384174346923828125</LongitudeDegrees>
            </Position>
            <AltitudeMeters>54.200000762939453125</AltitudeMeters>
            <DistanceMeters>NAN</DistanceMeters>
          </Trackpoint>
          <Trackpoint>
            <Time>2022-07-17T09:37:57.000Z</Time>
            <Position>
              <LatitudeDegrees>43.4732552804052829742431640625</LatitudeDegrees>
              <LongitudeDegrees>-5.16189582645893096923828125</LongitudeDegrees>
            </Position>
            <AltitudeMeters>53</AltitudeMeters>
            <DistanceMeters>NAN</DistanceMeters>
          </Trackpoint>
          <Trackpoint>
            <Time>2022-07-17T09:37:59.000Z</Time>
            <Position>
              <LatitudeDegrees>43.473228625953197479248046875</LatitudeDegrees>
              <LongitudeDegrees>-5.162059776484966278076171875</LongitudeDegrees>
            </Position>
            <AltitudeMeters>52.799999237060546875</AltitudeMeters>
            <DistanceMeters>NAN</DistanceMeters>
          </Trackpoint>
          <Trackpoint>
            <Time>2022-07-17T09:38:01.000Z</Time>
            <Position>
              <LatitudeDegrees>43.473231308162212371826171875</LatitudeDegrees>
              <LongitudeDegrees>-5.16220738179981708526611328125</LongitudeDegrees>
            </Position>
            <AltitudeMeters>52.799999237060546875</AltitudeMeters>
            <DistanceMeters>NAN</DistanceMeters>
          </Trackpoint>
          <Trackpoint>
            <Time>2022-07-17T09:38:03.000Z</Time>
            <Position>
              <LatitudeDegrees>43.47326240502297878265380859375</LatitudeDegrees>
              <LongitudeDegrees>-5.1623479463160037994384765625</LongitudeDegrees>
            </Position>
            <AltitudeMeters>53</AltitudeMeters>
            <DistanceMeters>NAN</DistanceMeters>
          </Trackpoint>
          <Trackpoint>
            <Time>2022-07-17T09:38:05.000Z</Time>
            <Position>
              <LatitudeDegrees>43.47330900840461254119873046875</LatitudeDegrees>
              <LongitudeDegrees>-5.16244241036474704742431640625</LongitudeDegrees>
            </Position>
            <AltitudeMeters>53.200000762939453125</AltitudeMeters>
            <DistanceMeters>NAN</DistanceMeters>
          </Trackpoint>
          <Trackpoint>
            <Time>2022-07-17T09:38:07.000Z</Time>
            <Position>
              <LatitudeDegrees>43.47335703670978546142578125</LatitudeDegrees>
              <LongitudeDegrees>-5.162514410912990570068359375</LongitudeDegrees>
            </Position>
            <AltitudeMeters>53.40000152587890625</AltitudeMeters>
            <DistanceMeters>NAN</DistanceMeters>
          </Trackpoint>
          <Trackpoint>
            <Time>2022-07-17T09:38:13.000Z</Time>
            <Position>
              <LatitudeDegrees>43.47350380383431911468505859375</LatitudeDegrees>
              <LongitudeDegrees>-5.1627291552722454071044921875</LongitudeDegrees>
            </Position>
            <AltitudeMeters>54</AltitudeMeters>
            <DistanceMeters>NAN</DistanceMeters>
          </Trackpoint>
          <Trackpoint>
            <Time>2022-07-17T09:38:14.000Z</Time>
            <Position>
              <LatitudeDegrees>43.4735288657248020172119140625</LatitudeDegrees>
              <LongitudeDegrees>-5.16275639645755290985107421875</LongitudeDegrees>
            </Position>
            <AltitudeMeters>54.200000762939453125</AltitudeMeters>
            <DistanceMeters>NAN</DistanceMeters>
          </Trackpoint>
          <Trackpoint>
            <Time>2022-07-17T09:38:18.000Z</Time>
            <Position>
              <LatitudeDegrees>43.47360203973948955535888671875</LatitudeDegrees>
              <LongitudeDegrees>-5.1628884114325046539306640625</LongitudeDegrees>
            </Position>
            <AltitudeMeters>54.59999847412109375</AltitudeMeters>
            <DistanceMeters>NAN</DistanceMeters>
          </Trackpoint>
          <Trackpoint>
            <Time>2022-07-17T09:38:22.000Z</Time>
            <Position>
              <LatitudeDegrees>43.47366607747972011566162109375</LatitudeDegrees>
              <LongitudeDegrees>-5.16301170922815799713134765625</LongitudeDegrees>
            </Position>
            <AltitudeMeters>54.799999237060546875</AltitudeMeters>
            <DistanceMeters>NAN</DistanceMeters>
          </Trackpoint>
          <Trackpoint>
            <Time>2022-07-17T09:38:24.000Z</Time>
            <Position>
              <LatitudeDegrees>43.4736835956573486328125</LatitudeDegrees>
              <LongitudeDegrees>-5.16306568868458271026611328125</LongitudeDegrees>
            </Position>
            <AltitudeMeters>54.799999237060546875</AltitudeMeters>
            <DistanceMeters>NAN</DistanceMeters>
          </Trackpoint>
          <Trackpoint>
            <Time>2022-07-17T09:38:27.000Z</Time>
            <Position>
              <LatitudeDegrees>43.47369139082729816436767578125</LatitudeDegrees>
              <LongitudeDegrees>-5.16317700035870075225830078125</LongitudeDegrees>
            </Position>
            <AltitudeMeters>55.200000762939453125</AltitudeMeters>
            <DistanceMeters>NAN</DistanceMeters>
          </Trackpoint>
          <Trackpoint>
            <Time>2022-07-17T09:38:30.000Z</Time>
            <Position>
              <LatitudeDegrees>43.473697006702423095703125</LatitudeDegrees>
              <LongitudeDegrees>-5.1632805168628692626953125</LongitudeDegrees>
            </Position>
            <AltitudeMeters>55.40000152587890625</AltitudeMeters>
            <DistanceMeters>NAN</DistanceMeters>
          </Trackpoint>
          <Trackpoint>
            <Time>2022-07-17T09:38:32.000Z</Time>
            <Position>
              <LatitudeDegrees>43.47369826398789882659912109375</LatitudeDegrees>
              <LongitudeDegrees>-5.163361988961696624755859375</LongitudeDegrees>
            </Position>
            <AltitudeMeters>55.59999847412109375</AltitudeMeters>
            <DistanceMeters>NAN</DistanceMeters>
          </Trackpoint>
          <Trackpoint>
            <Time>2022-07-17T09:38:36.000Z</Time>
            <Position>
              <LatitudeDegrees>43.47369004972279071807861328125</LatitudeDegrees>
              <LongitudeDegrees>-5.16351445578038692474365234375</LongitudeDegrees>
            </Position>
            <AltitudeMeters>56</AltitudeMeters>
            <DistanceMeters>NAN</DistanceMeters>
          </Trackpoint>
          <Trackpoint>
            <Time>2022-07-17T09:38:39.000Z</Time>
            <Position>
              <LatitudeDegrees>43.47368719987571239471435546875</LatitudeDegrees>
              <LongitudeDegrees>-5.1636230014264583587646484375</LongitudeDegrees>
            </Position>
            <AltitudeMeters>56.200000762939453125</AltitudeMeters>
            <DistanceMeters>NAN</DistanceMeters>
          </Trackpoint>
          <Trackpoint>
            <Time>2022-07-17T09:38:41.000Z</Time>
            <Position>
              <LatitudeDegrees>43.473687954246997833251953125</LatitudeDegrees>
              <LongitudeDegrees>-5.1636947505176067352294921875</LongitudeDegrees>
            </Position>
            <AltitudeMeters>56.200000762939453125</AltitudeMeters>
            <DistanceMeters>NAN</DistanceMeters>
          </Trackpoint>
          <Trackpoint>
            <Time>2022-07-17T09:38:44.000Z</Time>
            <Position>
              <LatitudeDegrees>43.4736797399818897247314453125</LatitudeDegrees>
              <LongitudeDegrees>-5.1638037152588367462158203125</LongitudeDegrees>
            </Position>
            <AltitudeMeters>56.59999847412109375</AltitudeMeters>
            <DistanceMeters>NAN</DistanceMeters>
          </Trackpoint>
          <Trackpoint>
            <Time>2022-07-17T09:38:47.000Z</Time>
            <Position>
              <LatitudeDegrees>43.473661132156848907470703125</LatitudeDegrees>
              <LongitudeDegrees>-5.16391091980040073394775390625</LongitudeDegrees>
            </Position>
            <AltitudeMeters>56.799999237060546875</AltitudeMeters>
            <DistanceMeters>NAN</DistanceMeters>
          </Trackpoint>
          <Trackpoint>
            <Time>2022-07-17T09:38:50.000Z</Time>
            <Position>
              <LatitudeDegrees>43.4736381657421588897705078125</LatitudeDegrees>
              <LongitudeDegrees>-5.164011418819427490234375</LongitudeDegrees>
            </Position>
            <AltitudeMeters>57.200000762939453125</AltitudeMeters>
            <DistanceMeters>NAN</DistanceMeters>
          </Trackpoint>
          <Trackpoint>
            <Time>2022-07-17T09:38:52.000Z</Time>
            <Position>
              <LatitudeDegrees>43.4736297838389873504638671875</LatitudeDegrees>
              <LongitudeDegrees>-5.16408341936767101287841796875</LongitudeDegrees>
            </Position>
            <AltitudeMeters>57.40000152587890625</AltitudeMeters>
            <DistanceMeters>NAN</DistanceMeters>
          </Trackpoint>
          <Trackpoint>
            <Time>2022-07-17T09:39:00.000Z</Time>
            <Position>
              <LatitudeDegrees>43.473630286753177642822265625</LatitudeDegrees>
              <LongitudeDegrees>-5.164322555065155029296875</LongitudeDegrees>
            </Position>
            <AltitudeMeters>57.799999237060546875</AltitudeMeters>
            <DistanceMeters>NAN</DistanceMeters>
          </Trackpoint>
          <Trackpoint>
            <Time>2022-07-17T09:39:06.000Z</Time>
            <Position>
              <LatitudeDegrees>43.4736187197268009185791015625</LatitudeDegrees>
              <LongitudeDegrees>-5.16452648676931858062744140625</LongitudeDegrees>
            </Position>
            <AltitudeMeters>58.200000762939453125</AltitudeMeters>
            <DistanceMeters>NAN</DistanceMeters>
          </Trackpoint>
          <Trackpoint>
            <Time>2022-07-17T09:39:07.000Z</Time>
            <Position>
              <LatitudeDegrees>43.473616875708103179931640625</LatitudeDegrees>
              <LongitudeDegrees>-5.164558924734592437744140625</LongitudeDegrees>
            </Position>
            <AltitudeMeters>58.40000152587890625</AltitudeMeters>
            <DistanceMeters>NAN</DistanceMeters>
          </Trackpoint>
          <Trackpoint>
            <Time>2022-07-17T09:39:11.000Z</Time>
            <Position>
              <LatitudeDegrees>43.47360840998589992523193359375</LatitudeDegrees>
              <LongitudeDegrees>-5.164691694080829620361328125</LongitudeDegrees>
            </Position>
            <AltitudeMeters>58.59999847412109375</AltitudeMeters>
            <DistanceMeters>NAN</DistanceMeters>
          </Trackpoint>
          <Trackpoint>
            <Time>2022-07-17T09:39:14.000Z</Time>
            <Position>
              <LatitudeDegrees>43.473605476319789886474609375</LatitudeDegrees>
              <LongitudeDegrees>-5.1647664606571197509765625</LongitudeDegrees>
            </Position>
            <AltitudeMeters>58.799999237060546875</AltitudeMeters>
            <DistanceMeters>NAN</DistanceMeters>
          </Trackpoint>
          <Trackpoint>
            <Time>2022-07-17T09:39:21.000Z</Time>
            <Position>
              <LatitudeDegrees>43.4735821746289730072021484375</LatitudeDegrees>
              <LongitudeDegrees>-5.164996124804019927978515625</LongitudeDegrees>
            </Position>
            <AltitudeMeters>59.200000762939453125</AltitudeMeters>
            <DistanceMeters>NAN</DistanceMeters>
          </Trackpoint>
          <Trackpoint>
            <Time>2022-07-17T09:39:22.000Z</Time>
            <Position>
              <LatitudeDegrees>43.4735768102109432220458984375</LatitudeDegrees>
              <LongitudeDegrees>-5.16502956859767436981201171875</LongitudeDegrees>
            </Position>
            <AltitudeMeters>59.40000152587890625</AltitudeMeters>
            <DistanceMeters>NAN</DistanceMeters>
          </Trackpoint>
          <Trackpoint>
            <Time>2022-07-17T09:39:30.000Z</Time>
            <Position>
              <LatitudeDegrees>43.4735426120460033416748046875</LatitudeDegrees>
              <LongitudeDegrees>-5.1652930118143558502197265625</LongitudeDegrees>
            </Position>
            <AltitudeMeters>59.799999237060546875</AltitudeMeters>
            <DistanceMeters>NAN</DistanceMeters>
          </Trackpoint>
          <Trackpoint>
            <Time>2022-07-17T09:39:34.000Z</Time>
            <Position>
              <LatitudeDegrees>43.4735231660306453704833984375</LatitudeDegrees>
              <LongitudeDegrees>-5.1654056645929813385009765625</LongitudeDegrees>
            </Position>
            <AltitudeMeters>60</AltitudeMeters>
            <DistanceMeters>NAN</DistanceMeters>
          </Trackpoint>
          <Trackpoint>
            <Time>2022-07-17T09:39:42.000Z</Time>
            <Position>
              <LatitudeDegrees>43.4734963439404964447021484375</LatitudeDegrees>
              <LongitudeDegrees>-5.16565217636525630950927734375</LongitudeDegrees>
            </Position>
            <AltitudeMeters>60.40000152587890625</AltitudeMeters>
            <DistanceMeters>NAN</DistanceMeters>
          </Trackpoint>
          <Trackpoint>
            <Time>2022-07-17T09:39:44.000Z</Time>
            <Position>
              <LatitudeDegrees>43.473486788570880889892578125</LatitudeDegrees>
              <LongitudeDegrees>-5.16573063097894191741943359375</LongitudeDegrees>
            </Position>
            <AltitudeMeters>60.40000152587890625</AltitudeMeters>
            <DistanceMeters>NAN</DistanceMeters>
          </Trackpoint>
          <Trackpoint>
            <Time>2022-07-17T09:39:55.000Z</Time>
            <Position>
              <LatitudeDegrees>43.47342702560126781463623046875</LatitudeDegrees>
              <LongitudeDegrees>-5.16617822460830211639404296875</LongitudeDegrees>
            </Position>
            <AltitudeMeters>60.59999847412109375</AltitudeMeters>
            <DistanceMeters>NAN</DistanceMeters>
          </Trackpoint>
          <Trackpoint>
            <Time>2022-07-17T09:40:02.000Z</Time>
            <Position>
              <LatitudeDegrees>43.47335510887205600738525390625</LatitudeDegrees>
              <LongitudeDegrees>-5.16648852266371250152587890625</LongitudeDegrees>
            </Position>
            <AltitudeMeters>60.59999847412109375</AltitudeMeters>
            <DistanceMeters>NAN</DistanceMeters>
          </Trackpoint>
          <Trackpoint>
            <Time>2022-07-17T09:40:10.000Z</Time>
            <Position>
              <LatitudeDegrees>43.4732857905328273773193359375</LatitudeDegrees>
              <LongitudeDegrees>-5.1668325997889041900634765625</LongitudeDegrees>
            </Position>
            <AltitudeMeters>60.799999237060546875</AltitudeMeters>
            <DistanceMeters>NAN</DistanceMeters>
          </Trackpoint>
          <Trackpoint>
            <Time>2022-07-17T09:40:14.000Z</Time>
            <Position>
              <LatitudeDegrees>43.473263494670391082763671875</LatitudeDegrees>
              <LongitudeDegrees>-5.16696386039257049560546875</LongitudeDegrees>
            </Position>
            <AltitudeMeters>61</AltitudeMeters>
            <DistanceMeters>NAN</DistanceMeters>
          </Trackpoint>
          <Trackpoint>
            <Time>2022-07-17T09:40:15.000Z</Time>
            <Position>
              <LatitudeDegrees>43.473258130252361297607421875</LatitudeDegrees>
              <LongitudeDegrees>-5.1669953763484954833984375</LongitudeDegrees>
            </Position>
            <AltitudeMeters>61.200000762939453125</AltitudeMeters>
            <DistanceMeters>NAN</DistanceMeters>
          </Trackpoint>
          <Trackpoint>
            <Time>2022-07-17T09:40:19.000Z</Time>
            <Position>
              <LatitudeDegrees>43.4732334874570369720458984375</LatitudeDegrees>
              <LongitudeDegrees>-5.16711481846868991851806640625</LongitudeDegrees>
            </Position>
            <AltitudeMeters>61.40000152587890625</AltitudeMeters>
            <DistanceMeters>NAN</DistanceMeters>
          </Trackpoint>
          <Trackpoint>
            <Time>2022-07-17T09:40:21.000Z</Time>
            <Position>
              <LatitudeDegrees>43.47322854213416576385498046875</LatitudeDegrees>
              <LongitudeDegrees>-5.16717650927603244781494140625</LongitudeDegrees>
            </Position>
            <AltitudeMeters>61.40000152587890625</AltitudeMeters>
            <DistanceMeters>NAN</DistanceMeters>
          </Trackpoint>
          <Trackpoint>
            <Time>2022-07-17T09:40:29.000Z</Time>
            <Position>
              <LatitudeDegrees>43.4731952659785747528076171875</LatitudeDegrees>
              <LongitudeDegrees>-5.167371220886707305908203125</LongitudeDegrees>
            </Position>
            <AltitudeMeters>62</AltitudeMeters>
            <DistanceMeters>NAN</DistanceMeters>
          </Trackpoint>
          <Trackpoint>
            <Time>2022-07-17T09:40:34.000Z</Time>
            <Position>
              <LatitudeDegrees>43.473168276250362396240234375</LatitudeDegrees>
              <LongitudeDegrees>-5.1675132103264331817626953125</LongitudeDegrees>
            </Position>
            <AltitudeMeters>62.40000152587890625</AltitudeMeters>
            <DistanceMeters>NAN</DistanceMeters>
          </Trackpoint>
          <Trackpoint>
            <Time>2022-07-17T09:40:35.000Z</Time>
            <Position>
              <LatitudeDegrees>43.4731506742537021636962890625</LatitudeDegrees>
              <LongitudeDegrees>-5.16753994859755039215087890625</LongitudeDegrees>
            </Position>
            <AltitudeMeters>62.59999847412109375</AltitudeMeters>
            <DistanceMeters>NAN</DistanceMeters>
          </Trackpoint>
          <Trackpoint>
            <Time>2022-07-17T09:40:42.000Z</Time>
            <Position>
              <LatitudeDegrees>43.4731040708720684051513671875</LatitudeDegrees>
              <LongitudeDegrees>-5.167735330760478973388671875</LongitudeDegrees>
            </Position>
            <AltitudeMeters>63.40000152587890625</AltitudeMeters>
            <DistanceMeters>NAN</DistanceMeters>
          </Trackpoint>
          <Trackpoint>
            <Time>2022-07-17T09:40:45.000Z</Time>
            <Position>
              <LatitudeDegrees>43.47306065261363983154296875</LatitudeDegrees>
              <LongitudeDegrees>-5.1678223349153995513916015625</LongitudeDegrees>
            </Position>
            <AltitudeMeters>63.59999847412109375</AltitudeMeters>
            <DistanceMeters>NAN</DistanceMeters>
          </Trackpoint>
          <Trackpoint>
            <Time>2022-07-17T09:40:49.000Z</Time>
            <Position>
              <LatitudeDegrees>43.4730464033782482147216796875</LatitudeDegrees>
              <LongitudeDegrees>-5.16794278286397457122802734375</LongitudeDegrees>
            </Position>
            <AltitudeMeters>64.1999969482421875</AltitudeMeters>
            <DistanceMeters>NAN</DistanceMeters>
          </Trackpoint>
          <Trackpoint>
            <Time>2022-07-17T09:40:53.000Z</Time>
            <Position>
              <LatitudeDegrees>43.47304522991180419921875</LatitudeDegrees>
              <LongitudeDegrees>-5.168047137558460235595703125</LongitudeDegrees>
            </Position>
            <AltitudeMeters>64.59999847412109375</AltitudeMeters>
            <DistanceMeters>NAN</DistanceMeters>
          </Trackpoint>
          <Trackpoint>
            <Time>2022-07-17T09:40:57.000Z</Time>
            <Position>
              <LatitudeDegrees>43.473028801381587982177734375</LatitudeDegrees>
              <LongitudeDegrees>-5.1681582815945148468017578125</LongitudeDegrees>
            </Position>
            <AltitudeMeters>65</AltitudeMeters>
            <DistanceMeters>NAN</DistanceMeters>
          </Trackpoint>
          <Trackpoint>
            <Time>2022-07-17T09:40:58.000Z</Time>
            <Position>
              <LatitudeDegrees>43.47302184440195560455322265625</LatitudeDegrees>
              <LongitudeDegrees>-5.16819256357848644256591796875</LongitudeDegrees>
            </Position>
            <AltitudeMeters>65</AltitudeMeters>
            <DistanceMeters>NAN</DistanceMeters>
          </Trackpoint>
          <Trackpoint>
            <Time>2022-07-17T09:41:02.000Z</Time>
            <Position>
              <LatitudeDegrees>43.4729840420186519622802734375</LatitudeDegrees>
              <LongitudeDegrees>-5.168285183608531951904296875</LongitudeDegrees>
            </Position>
            <AltitudeMeters>65.59999847412109375</AltitudeMeters>
            <DistanceMeters>NAN</DistanceMeters>
          </Trackpoint>
          <Trackpoint>
            <Time>2022-07-17T09:41:04.000Z</Time>
            <Position>
              <LatitudeDegrees>43.47296685911715030670166015625</LatitudeDegrees>
              <LongitudeDegrees>-5.168313682079315185546875</LongitudeDegrees>
            </Position>
            <AltitudeMeters>65.8000030517578125</AltitudeMeters>
            <DistanceMeters>NAN</DistanceMeters>
          </Trackpoint>
          <Trackpoint>
            <Time>2022-07-17T09:41:06.000Z</Time>
            <Position>
              <LatitudeDegrees>43.472949676215648651123046875</LatitudeDegrees>
              <LongitudeDegrees>-5.1683379895985126495361328125</LongitudeDegrees>
            </Position>
            <AltitudeMeters>65.8000030517578125</AltitudeMeters>
            <DistanceMeters>NAN</DistanceMeters>
          </Trackpoint>
          <Trackpoint>
            <Time>2022-07-17T09:41:13.000Z</Time>
            <Position>
              <LatitudeDegrees>43.47288873977959156036376953125</LatitudeDegrees>
              <LongitudeDegrees>-5.168469585478305816650390625</LongitudeDegrees>
            </Position>
            <AltitudeMeters>66.40000152587890625</AltitudeMeters>
            <DistanceMeters>NAN</DistanceMeters>
          </Trackpoint>
          <Trackpoint>
            <Time>2022-07-17T09:41:14.000Z</Time>
            <Position>
              <LatitudeDegrees>43.47288270480930805206298828125</LatitudeDegrees>
              <LongitudeDegrees>-5.16848509199917316436767578125</LongitudeDegrees>
            </Position>
            <AltitudeMeters>66.59999847412109375</AltitudeMeters>
            <DistanceMeters>NAN</DistanceMeters>
          </Trackpoint>
          <Trackpoint>
            <Time>2022-07-17T09:41:17.000Z</Time>
            <Position>
              <LatitudeDegrees>43.47284800373017787933349609375</LatitudeDegrees>
              <LongitudeDegrees>-5.16852314583957195281982421875</LongitudeDegrees>
            </Position>
            <AltitudeMeters>66.8000030517578125</AltitudeMeters>
            <DistanceMeters>NAN</DistanceMeters>
          </Trackpoint>
          <Trackpoint>
            <Time>2022-07-17T09:41:18.000Z</Time>
            <Position>
              <LatitudeDegrees>43.47283400595188140869140625</LatitudeDegrees>
              <LongitudeDegrees>-5.1685425080358982086181640625</LongitudeDegrees>
            </Position>
            <AltitudeMeters>66.8000030517578125</AltitudeMeters>
            <DistanceMeters>NAN</DistanceMeters>
          </Trackpoint>
          <Trackpoint>
            <Time>2022-07-17T09:41:20.000Z</Time>
            <Position>
              <LatitudeDegrees>43.47281648777425289154052734375</LatitudeDegrees>
              <LongitudeDegrees>-5.16856773756444454193115234375</LongitudeDegrees>
            </Position>
            <AltitudeMeters>67</AltitudeMeters>
            <DistanceMeters>NAN</DistanceMeters>
          </Trackpoint>
          <Trackpoint>
            <Time>2022-07-17T09:41:23.000Z</Time>
            <Position>
              <LatitudeDegrees>43.47278329543769359588623046875</LatitudeDegrees>
              <LongitudeDegrees>-5.16863127239048480987548828125</LongitudeDegrees>
            </Position>
            <AltitudeMeters>67.1999969482421875</AltitudeMeters>
            <DistanceMeters>NAN</DistanceMeters>
          </Trackpoint>
          <Trackpoint>
            <Time>2022-07-17T09:41:27.000Z</Time>
            <Position>
              <LatitudeDegrees>43.47272881306707859039306640625</LatitudeDegrees>
              <LongitudeDegrees>-5.16871425323188304901123046875</LongitudeDegrees>
            </Position>
            <AltitudeMeters>67.59999847412109375</AltitudeMeters>
            <DistanceMeters>NAN</DistanceMeters>
          </Trackpoint>
          <Trackpoint>
            <Time>2022-07-17T09:41:30.000Z</Time>
            <Position>
              <LatitudeDegrees>43.4726926870644092559814453125</LatitudeDegrees>
              <LongitudeDegrees>-5.16877309419214725494384765625</LongitudeDegrees>
            </Position>
            <AltitudeMeters>67.8000030517578125</AltitudeMeters>
            <DistanceMeters>NAN</DistanceMeters>
          </Trackpoint>
          <Trackpoint>
            <Time>2022-07-17T09:41:31.000Z</Time>
            <Position>
              <LatitudeDegrees>43.47268438898026943206787109375</LatitudeDegrees>
              <LongitudeDegrees>-5.16879103146493434906005859375</LongitudeDegrees>
            </Position>
            <AltitudeMeters>68</AltitudeMeters>
            <DistanceMeters>NAN</DistanceMeters>
          </Trackpoint>
          <Trackpoint>
            <Time>2022-07-17T09:41:33.000Z</Time>
            <Position>
              <LatitudeDegrees>43.4726618416607379913330078125</LatitudeDegrees>
              <LongitudeDegrees>-5.16882590018212795257568359375</LongitudeDegrees>
            </Position>
            <AltitudeMeters>68.1999969482421875</AltitudeMeters>
            <DistanceMeters>NAN</DistanceMeters>
          </Trackpoint>
          <Trackpoint>
            <Time>2022-07-17T09:41:40.000Z</Time>
            <Position>
              <LatitudeDegrees>43.47257844172418117523193359375</LatitudeDegrees>
              <LongitudeDegrees>-5.16894861124455928802490234375</LongitudeDegrees>
            </Position>
            <AltitudeMeters>68.59999847412109375</AltitudeMeters>
            <DistanceMeters>NAN</DistanceMeters>
          </Trackpoint>
          <Trackpoint>
            <Time>2022-07-17T09:41:43.000Z</Time>
            <Position>
              <LatitudeDegrees>43.47254759632050991058349609375</LatitudeDegrees>
              <LongitudeDegrees>-5.16900393180549144744873046875</LongitudeDegrees>
            </Position>
            <AltitudeMeters>68.8000030517578125</AltitudeMeters>
            <DistanceMeters>NAN</DistanceMeters>
          </Trackpoint>
          <Trackpoint>
            <Time>2022-07-17T09:41:48.000Z</Time>
            <Position>
              <LatitudeDegrees>43.47251088358461856842041015625</LatitudeDegrees>
              <LongitudeDegrees>-5.16910032369196414947509765625</LongitudeDegrees>
            </Position>
            <AltitudeMeters>69.1999969482421875</AltitudeMeters>
            <DistanceMeters>NAN</DistanceMeters>
          </Trackpoint>
          <Trackpoint>
            <Time>2022-07-17T09:41:54.000Z</Time>
            <Position>
              <LatitudeDegrees>43.4724586643278598785400390625</LatitudeDegrees>
              <LongitudeDegrees>-5.1692154072225093841552734375</LongitudeDegrees>
            </Position>
            <AltitudeMeters>69.8000030517578125</AltitudeMeters>
            <DistanceMeters>NAN</DistanceMeters>
          </Trackpoint>
          <Trackpoint>
            <Time>2022-07-17T09:41:56.000Z</Time>
            <Position>
              <LatitudeDegrees>43.472440727055072784423828125</LatitudeDegrees>
              <LongitudeDegrees>-5.1692586578428745269775390625</LongitudeDegrees>
            </Position>
            <AltitudeMeters>70</AltitudeMeters>
            <DistanceMeters>NAN</DistanceMeters>
          </Trackpoint>
          <Trackpoint>
            <Time>2022-07-17T09:42:01.000Z</Time>
            <Position>
              <LatitudeDegrees>43.472387082874774932861328125</LatitudeDegrees>
              <LongitudeDegrees>-5.16937575303018093109130859375</LongitudeDegrees>
            </Position>
            <AltitudeMeters>70.59999847412109375</AltitudeMeters>
            <DistanceMeters>NAN</DistanceMeters>
          </Trackpoint>
          <Trackpoint>
            <Time>2022-07-17T09:42:08.000Z</Time>
            <Position>
              <LatitudeDegrees>43.4723035991191864013671875</LatitudeDegrees>
              <LongitudeDegrees>-5.16950936056673526763916015625</LongitudeDegrees>
            </Position>
            <AltitudeMeters>71</AltitudeMeters>
            <DistanceMeters>NAN</DistanceMeters>
          </Trackpoint>
          <Trackpoint>
            <Time>2022-07-17T09:42:12.000Z</Time>
            <Position>
              <LatitudeDegrees>43.472250290215015411376953125</LatitudeDegrees>
              <LongitudeDegrees>-5.1695624180138111114501953125</LongitudeDegrees>
            </Position>
            <AltitudeMeters>71.1999969482421875</AltitudeMeters>
            <DistanceMeters>NAN</DistanceMeters>
          </Trackpoint>
          <Trackpoint>
            <Time>2022-07-17T09:42:19.000Z</Time>
            <Position>
              <LatitudeDegrees>43.47214861772954463958740234375</LatitudeDegrees>
              <LongitudeDegrees>-5.1696432195603847503662109375</LongitudeDegrees>
            </Position>
            <AltitudeMeters>72</AltitudeMeters>
            <DistanceMeters>NAN</DistanceMeters>
          </Trackpoint>
          <Trackpoint>
            <Time>2022-07-17T09:42:21.000Z</Time>
            <Position>
              <LatitudeDegrees>43.47212280146777629852294921875</LatitudeDegrees>
              <LongitudeDegrees>-5.169659145176410675048828125</LongitudeDegrees>
            </Position>
            <AltitudeMeters>72</AltitudeMeters>
            <DistanceMeters>NAN</DistanceMeters>
          </Trackpoint>
          <Trackpoint>
            <Time>2022-07-17T09:42:27.000Z</Time>
            <Position>
              <LatitudeDegrees>43.4720563329756259918212890625</LatitudeDegrees>
              <LongitudeDegrees>-5.16970105469226837158203125</LongitudeDegrees>
            </Position>
            <AltitudeMeters>72.1999969482421875</AltitudeMeters>
            <DistanceMeters>NAN</DistanceMeters>
          </Trackpoint>
          <Trackpoint>
            <Time>2022-07-17T09:42:28.000Z</Time>
            <Position>
              <LatitudeDegrees>43.4720563329756259918212890625</LatitudeDegrees>
              <LongitudeDegrees>-5.16970105469226837158203125</LongitudeDegrees>
            </Position>
            <AltitudeMeters>72.1999969482421875</AltitudeMeters>
            <DistanceMeters>NAN</DistanceMeters>
          </Trackpoint>
          <Trackpoint>
            <Time>2022-07-17T09:43:02.000Z</Time>
            <Position>
              <LatitudeDegrees>43.47210167907178401947021484375</LatitudeDegrees>
              <LongitudeDegrees>-5.16965973190963268280029296875</LongitudeDegrees>
            </Position>
            <AltitudeMeters>72.40000152587890625</AltitudeMeters>
            <DistanceMeters>NAN</DistanceMeters>
          </Trackpoint>
          <Trackpoint>
            <Time>2022-07-17T09:43:03.000Z</Time>
            <Position>
              <LatitudeDegrees>43.47213394939899444580078125</LatitudeDegrees>
              <LongitudeDegrees>-5.169631652534008026123046875</LongitudeDegrees>
            </Position>
            <AltitudeMeters>72.40000152587890625</AltitudeMeters>
            <DistanceMeters>NAN</DistanceMeters>
          </Trackpoint>
          <Trackpoint>
            <Time>2022-07-17T09:43:04.000Z</Time>
            <Position>
              <LatitudeDegrees>43.472173511981964111328125</LatitudeDegrees>
              <LongitudeDegrees>-5.16959778964519500732421875</LongitudeDegrees>
            </Position>
            <AltitudeMeters>72.40000152587890625</AltitudeMeters>
            <DistanceMeters>NAN</DistanceMeters>
          </Trackpoint>
          <Trackpoint>
            <Time>2022-07-17T09:43:08.000Z</Time>
            <Position>
              <LatitudeDegrees>43.47234123386442661285400390625</LatitudeDegrees>
              <LongitudeDegrees>-5.1694199256598949432373046875</LongitudeDegrees>
            </Position>
            <AltitudeMeters>71</AltitudeMeters>
            <DistanceMeters>NAN</DistanceMeters>
          </Trackpoint>
          <Trackpoint>
            <Time>2022-07-17T09:43:09.000Z</Time>
            <Position>
              <LatitudeDegrees>43.472383059561252593994140625</LatitudeDegrees>
              <LongitudeDegrees>-5.16935982741415500640869140625</LongitudeDegrees>
            </Position>
            <AltitudeMeters>70.8000030517578125</AltitudeMeters>
            <DistanceMeters>NAN</DistanceMeters>
          </Trackpoint>
          <Trackpoint>
            <Time>2022-07-17T09:43:12.000Z</Time>
            <Position>
              <LatitudeDegrees>43.47251188941299915313720703125</LatitudeDegrees>
              <LongitudeDegrees>-5.16916469670832157135009765625</LongitudeDegrees>
            </Position>
            <AltitudeMeters>69.8000030517578125</AltitudeMeters>
            <DistanceMeters>NAN</DistanceMeters>
          </Trackpoint>
          <Trackpoint>
            <Time>2022-07-17T09:43:15.000Z</Time>
            <Position>
              <LatitudeDegrees>43.47264566458761692047119140625</LatitudeDegrees>
              <LongitudeDegrees>-5.16894207336008548736572265625</LongitudeDegrees>
            </Position>
            <AltitudeMeters>68.8000030517578125</AltitudeMeters>
            <DistanceMeters>NAN</DistanceMeters>
          </Trackpoint>
          <Trackpoint>
            <Time>2022-07-17T09:43:16.000Z</Time>
            <Position>
              <LatitudeDegrees>43.47269059158861637115478515625</LatitudeDegrees>
              <LongitudeDegrees>-5.16886546276509761810302734375</LongitudeDegrees>
            </Position>
            <AltitudeMeters>68.59999847412109375</AltitudeMeters>
            <DistanceMeters>NAN</DistanceMeters>
          </Trackpoint>
          <Trackpoint>
            <Time>2022-07-17T09:43:20.000Z</Time>
            <Position>
              <LatitudeDegrees>43.47287063486874103546142578125</LatitudeDegrees>
              <LongitudeDegrees>-5.168573856353759765625</LongitudeDegrees>
            </Position>
            <AltitudeMeters>67.1999969482421875</AltitudeMeters>
            <DistanceMeters>NAN</DistanceMeters>
          </Trackpoint>
          <Trackpoint>
            <Time>2022-07-17T09:43:22.000Z</Time>
            <Position>
              <LatitudeDegrees>43.47295529209077358245849609375</LatitudeDegrees>
              <LongitudeDegrees>-5.16841317526996135711669921875</LongitudeDegrees>
            </Position>
            <AltitudeMeters>66.40000152587890625</AltitudeMeters>
            <DistanceMeters>NAN</DistanceMeters>
          </Trackpoint>
          <Trackpoint>
            <Time>2022-07-17T09:43:24.000Z</Time>
            <Position>
              <LatitudeDegrees>43.47302637062966823577880859375</LatitudeDegrees>
              <LongitudeDegrees>-5.1682484708726406097412109375</LongitudeDegrees>
            </Position>
            <AltitudeMeters>66</AltitudeMeters>
            <DistanceMeters>NAN</DistanceMeters>
          </Trackpoint>
          <Trackpoint>
            <Time>2022-07-17T09:43:25.000Z</Time>
            <Position>
              <LatitudeDegrees>43.4730517677962779998779296875</LatitudeDegrees>
              <LongitudeDegrees>-5.1681589521467685699462890625</LongitudeDegrees>
            </Position>
            <AltitudeMeters>65.59999847412109375</AltitudeMeters>
            <DistanceMeters>NAN</DistanceMeters>
          </Trackpoint>
          <Trackpoint>
            <Time>2022-07-17T09:43:27.000Z</Time>
            <Position>
              <LatitudeDegrees>43.473101891577243804931640625</LatitudeDegrees>
              <LongitudeDegrees>-5.16795334406197071075439453125</LongitudeDegrees>
            </Position>
            <AltitudeMeters>65.1999969482421875</AltitudeMeters>
            <DistanceMeters>NAN</DistanceMeters>
          </Trackpoint>
          <Trackpoint>
            <Time>2022-07-17T09:43:29.000Z</Time>
            <Position>
              <LatitudeDegrees>43.47313952632248401641845703125</LatitudeDegrees>
              <LongitudeDegrees>-5.1677463948726654052734375</LongitudeDegrees>
            </Position>
            <AltitudeMeters>64.40000152587890625</AltitudeMeters>
            <DistanceMeters>NAN</DistanceMeters>
          </Trackpoint>
          <Trackpoint>
            <Time>2022-07-17T09:43:32.000Z</Time>
            <Position>
              <LatitudeDegrees>43.4731858782470226287841796875</LatitudeDegrees>
              <LongitudeDegrees>-5.167509354650974273681640625</LongitudeDegrees>
            </Position>
            <AltitudeMeters>63</AltitudeMeters>
            <DistanceMeters>NAN</DistanceMeters>
          </Trackpoint>
          <Trackpoint>
            <Time>2022-07-17T09:43:34.000Z</Time>
            <Position>
              <LatitudeDegrees>43.47321689128875732421875</LatitudeDegrees>
              <LongitudeDegrees>-5.16736359335482120513916015625</LongitudeDegrees>
            </Position>
            <AltitudeMeters>61.799999237060546875</AltitudeMeters>
            <DistanceMeters>NAN</DistanceMeters>
          </Trackpoint>
          <Trackpoint>
            <Time>2022-07-17T09:43:36.000Z</Time>
            <Position>
              <LatitudeDegrees>43.4732616506516933441162109375</LatitudeDegrees>
              <LongitudeDegrees>-5.16726066358387470245361328125</LongitudeDegrees>
            </Position>
            <AltitudeMeters>61.200000762939453125</AltitudeMeters>
            <DistanceMeters>NAN</DistanceMeters>
          </Trackpoint>
          <Trackpoint>
            <Time>2022-07-17T09:43:38.000Z</Time>
            <Position>
              <LatitudeDegrees>43.47330766730010509490966796875</LatitudeDegrees>
              <LongitudeDegrees>-5.1671970449388027191162109375</LongitudeDegrees>
            </Position>
            <AltitudeMeters>60.59999847412109375</AltitudeMeters>
            <DistanceMeters>NAN</DistanceMeters>
          </Trackpoint>
          <Trackpoint>
            <Time>2022-07-17T09:43:40.000Z</Time>
            <Position>
              <LatitudeDegrees>43.4733478166162967681884765625</LatitudeDegrees>
              <LongitudeDegrees>-5.1671611703932285308837890625</LongitudeDegrees>
            </Position>
            <AltitudeMeters>60.200000762939453125</AltitudeMeters>
            <DistanceMeters>NAN</DistanceMeters>
          </Trackpoint>
          <Trackpoint>
            <Time>2022-07-17T09:43:43.000Z</Time>
            <Position>
              <LatitudeDegrees>43.47336650826036930084228515625</LatitudeDegrees>
              <LongitudeDegrees>-5.167143903672695159912109375</LongitudeDegrees>
            </Position>
            <AltitudeMeters>60.40000152587890625</AltitudeMeters>
            <DistanceMeters>NAN</DistanceMeters>
          </Trackpoint>
          <Trackpoint>
            <Time>2022-07-17T09:43:45.000Z</Time>
            <Position>
              <LatitudeDegrees>43.473371453583240509033203125</LatitudeDegrees>
              <LongitudeDegrees>-5.1671440713107585906982421875</LongitudeDegrees>
            </Position>
            <AltitudeMeters>60.799999237060546875</AltitudeMeters>
            <DistanceMeters>NAN</DistanceMeters>
          </Trackpoint>
          <Trackpoint>
            <Time>2022-07-17T09:43:46.000Z</Time>
            <Position>
              <LatitudeDegrees>43.473371453583240509033203125</LatitudeDegrees>
              <LongitudeDegrees>-5.1671440713107585906982421875</LongitudeDegrees>
            </Position>
            <AltitudeMeters>61</AltitudeMeters>
            <DistanceMeters>NAN</DistanceMeters>
          </Trackpoint>
          <Trackpoint>
            <Time>2022-07-17T09:45:27.000Z</Time>
            <Position>
              <LatitudeDegrees>43.4732569567859172821044921875</LatitudeDegrees>
              <LongitudeDegrees>-5.1683514006435871124267578125</LongitudeDegrees>
            </Position>
            <AltitudeMeters>77</AltitudeMeters>
            <DistanceMeters>NAN</DistanceMeters>
          </Trackpoint>
          <Trackpoint>
            <Time>2022-07-17T09:45:30.000Z</Time>
            <Position>
              <LatitudeDegrees>43.473257124423980712890625</LatitudeDegrees>
              <LongitudeDegrees>-5.16840152442455291748046875</LongitudeDegrees>
            </Position>
            <AltitudeMeters>77.59999847412109375</AltitudeMeters>
            <DistanceMeters>NAN</DistanceMeters>
          </Trackpoint>
          <Trackpoint>
            <Time>2022-07-17T09:45:33.000Z</Time>
            <Position>
              <LatitudeDegrees>43.47324564121663570404052734375</LatitudeDegrees>
              <LongitudeDegrees>-5.16845324076712131500244140625</LongitudeDegrees>
            </Position>
            <AltitudeMeters>78.1999969482421875</AltitudeMeters>
            <DistanceMeters>NAN</DistanceMeters>
          </Trackpoint>
          <Trackpoint>
            <Time>2022-07-17T09:45:37.000Z</Time>
            <Position>
              <LatitudeDegrees>43.47322166897356510162353515625</LatitudeDegrees>
              <LongitudeDegrees>-5.1685163564980030059814453125</LongitudeDegrees>
            </Position>
            <AltitudeMeters>78.40000152587890625</AltitudeMeters>
            <DistanceMeters>NAN</DistanceMeters>
          </Trackpoint>
          <Trackpoint>
            <Time>2022-07-17T09:45:40.000Z</Time>
            <Position>
              <LatitudeDegrees>43.4732116945087909698486328125</LatitudeDegrees>
              <LongitudeDegrees>-5.16855851747095584869384765625</LongitudeDegrees>
            </Position>
            <AltitudeMeters>78.8000030517578125</AltitudeMeters>
            <DistanceMeters>NAN</DistanceMeters>
          </Trackpoint>
          <Trackpoint>
            <Time>2022-07-17T09:45:44.000Z</Time>
            <Position>
              <LatitudeDegrees>43.47319920547306537628173828125</LatitudeDegrees>
              <LongitudeDegrees>-5.16861970536410808563232421875</LongitudeDegrees>
            </Position>
            <AltitudeMeters>79.1999969482421875</AltitudeMeters>
            <DistanceMeters>NAN</DistanceMeters>
          </Trackpoint>
          <Trackpoint>
            <Time>2022-07-17T09:45:45.000Z</Time>
            <Position>
              <LatitudeDegrees>43.47319585271179676055908203125</LatitudeDegrees>
              <LongitudeDegrees>-5.16863496042788028717041015625</LongitudeDegrees>
            </Position>
            <AltitudeMeters>79.40000152587890625</AltitudeMeters>
            <DistanceMeters>NAN</DistanceMeters>
          </Trackpoint>
          <Trackpoint>
            <Time>2022-07-17T09:45:50.000Z</Time>
            <Position>
              <LatitudeDegrees>43.47317389212548732757568359375</LatitudeDegrees>
              <LongitudeDegrees>-5.168704278767108917236328125</LongitudeDegrees>
            </Position>
            <AltitudeMeters>80</AltitudeMeters>
            <DistanceMeters>NAN</DistanceMeters>
          </Trackpoint>
          <Trackpoint>
            <Time>2022-07-17T09:45:52.000Z</Time>
            <Position>
              <LatitudeDegrees>43.4731600619852542877197265625</LatitudeDegrees>
              <LongitudeDegrees>-5.16873319633305072784423828125</LongitudeDegrees>
            </Position>
            <AltitudeMeters>80.1999969482421875</AltitudeMeters>
            <DistanceMeters>NAN</DistanceMeters>
          </Trackpoint>
          <Trackpoint>
            <Time>2022-07-17T09:45:53.000Z</Time>
            <Position>
              <LatitudeDegrees>43.47315444611012935638427734375</LatitudeDegrees>
              <LongitudeDegrees>-5.16874794848263263702392578125</LongitudeDegrees>
            </Position>
            <AltitudeMeters>80.1999969482421875</AltitudeMeters>
            <DistanceMeters>NAN</DistanceMeters>
          </Trackpoint>
          <Trackpoint>
            <Time>2022-07-17T09:45:55.000Z</Time>
            <Position>
              <LatitudeDegrees>43.47314539365470409393310546875</LatitudeDegrees>
              <LongitudeDegrees>-5.1687798835337162017822265625</LongitudeDegrees>
            </Position>
            <AltitudeMeters>80.40000152587890625</AltitudeMeters>
            <DistanceMeters>NAN</DistanceMeters>
          </Trackpoint>
          <Trackpoint>
            <Time>2022-07-17T09:45:57.000Z</Time>
            <Position>
              <LatitudeDegrees>43.4731352515518665313720703125</LatitudeDegrees>
              <LongitudeDegrees>-5.16880595125257968902587890625</LongitudeDegrees>
            </Position>
            <AltitudeMeters>80.59999847412109375</AltitudeMeters>
            <DistanceMeters>NAN</DistanceMeters>
          </Trackpoint>
          <Trackpoint>
            <Time>2022-07-17T09:45:59.000Z</Time>
            <Position>
              <LatitudeDegrees>43.47312368452548980712890625</LatitudeDegrees>
              <LongitudeDegrees>-5.1688278280198574066162109375</LongitudeDegrees>
            </Position>
            <AltitudeMeters>80.8000030517578125</AltitudeMeters>
            <DistanceMeters>NAN</DistanceMeters>
          </Trackpoint>
          <Trackpoint>
            <Time>2022-07-17T09:46:03.000Z</Time>
            <Position>
              <LatitudeDegrees>43.4731010533869266510009765625</LatitudeDegrees>
              <LongitudeDegrees>-5.1688878424465656280517578125</LongitudeDegrees>
            </Position>
            <AltitudeMeters>81.1999969482421875</AltitudeMeters>
            <DistanceMeters>NAN</DistanceMeters>
          </Trackpoint>
          <Trackpoint>
            <Time>2022-07-17T09:46:08.000Z</Time>
            <Position>
              <LatitudeDegrees>43.4730789251625537872314453125</LatitudeDegrees>
              <LongitudeDegrees>-5.16894509084522724151611328125</LongitudeDegrees>
            </Position>
            <AltitudeMeters>82</AltitudeMeters>
            <DistanceMeters>NAN</DistanceMeters>
          </Trackpoint>
          <Trackpoint>
            <Time>2022-07-17T09:46:11.000Z</Time>
            <Position>
              <LatitudeDegrees>43.473066352307796478271484375</LatitudeDegrees>
              <LongitudeDegrees>-5.16898624598979949951171875</LongitudeDegrees>
            </Position>
            <AltitudeMeters>82.40000152587890625</AltitudeMeters>
            <DistanceMeters>NAN</DistanceMeters>
          </Trackpoint>
          <Trackpoint>
            <Time>2022-07-17T09:46:14.000Z</Time>
            <Position>
              <LatitudeDegrees>43.473054952919483184814453125</LatitudeDegrees>
              <LongitudeDegrees>-5.16902086324989795684814453125</LongitudeDegrees>
            </Position>
            <AltitudeMeters>82.59999847412109375</AltitudeMeters>
            <DistanceMeters>NAN</DistanceMeters>
          </Trackpoint>
          <Trackpoint>
            <Time>2022-07-17T09:46:16.000Z</Time>
            <Position>
              <LatitudeDegrees>43.47305017523467540740966796875</LatitudeDegrees>
              <LongitudeDegrees>-5.1690440811216831207275390625</LongitudeDegrees>
            </Position>
            <AltitudeMeters>83</AltitudeMeters>
            <DistanceMeters>NAN</DistanceMeters>
          </Trackpoint>
          <Trackpoint>
            <Time>2022-07-17T09:46:20.000Z</Time>
            <Position>
              <LatitudeDegrees>43.47303659655153751373291015625</LatitudeDegrees>
              <LongitudeDegrees>-5.1690940372645854949951171875</LongitudeDegrees>
            </Position>
            <AltitudeMeters>83.40000152587890625</AltitudeMeters>
            <DistanceMeters>NAN</DistanceMeters>
          </Trackpoint>
          <Trackpoint>
            <Time>2022-07-17T09:46:21.000Z</Time>
            <Position>
              <LatitudeDegrees>43.47303374670445919036865234375</LatitudeDegrees>
              <LongitudeDegrees>-5.16910669393837451934814453125</LongitudeDegrees>
            </Position>
            <AltitudeMeters>83.40000152587890625</AltitudeMeters>
            <DistanceMeters>NAN</DistanceMeters>
          </Trackpoint>
          <Trackpoint>
            <Time>2022-07-17T09:46:23.000Z</Time>
            <Position>
              <LatitudeDegrees>43.47303072921931743621826171875</LatitudeDegrees>
              <LongitudeDegrees>-5.16913083381950855255126953125</LongitudeDegrees>
            </Position>
            <AltitudeMeters>83.59999847412109375</AltitudeMeters>
            <DistanceMeters>NAN</DistanceMeters>
          </Trackpoint>
          <Trackpoint>
            <Time>2022-07-17T09:46:28.000Z</Time>
            <Position>
              <LatitudeDegrees>43.4729951061308383941650390625</LatitudeDegrees>
              <LongitudeDegrees>-5.16917961649596691131591796875</LongitudeDegrees>
            </Position>
            <AltitudeMeters>84.40000152587890625</AltitudeMeters>
            <DistanceMeters>NAN</DistanceMeters>
          </Trackpoint>
          <Trackpoint>
            <Time>2022-07-17T09:46:30.000Z</Time>
            <Position>
              <LatitudeDegrees>43.47298429347574710845947265625</LatitudeDegrees>
              <LongitudeDegrees>-5.16920216381549835205078125</LongitudeDegrees>
            </Position>
            <AltitudeMeters>84.59999847412109375</AltitudeMeters>
            <DistanceMeters>NAN</DistanceMeters>
          </Trackpoint>
          <Trackpoint>
            <Time>2022-07-17T09:46:33.000Z</Time>
            <Position>
              <LatitudeDegrees>43.472967445850372314453125</LatitudeDegrees>
              <LongitudeDegrees>-5.169244743883609771728515625</LongitudeDegrees>
            </Position>
            <AltitudeMeters>85.1999969482421875</AltitudeMeters>
            <DistanceMeters>NAN</DistanceMeters>
          </Trackpoint>
          <Trackpoint>
            <Time>2022-07-17T09:46:36.000Z</Time>
            <Position>
              <LatitudeDegrees>43.472952358424663543701171875</LatitudeDegrees>
              <LongitudeDegrees>-5.16929193399846553802490234375</LongitudeDegrees>
            </Position>
            <AltitudeMeters>85.59999847412109375</AltitudeMeters>
            <DistanceMeters>NAN</DistanceMeters>
          </Trackpoint>
          <Trackpoint>
            <Time>2022-07-17T09:46:39.000Z</Time>
            <Position>
              <LatitudeDegrees>43.47293416969478130340576171875</LatitudeDegrees>
              <LongitudeDegrees>-5.16934272833168506622314453125</LongitudeDegrees>
            </Position>
            <AltitudeMeters>86.1999969482421875</AltitudeMeters>
            <DistanceMeters>NAN</DistanceMeters>
          </Trackpoint>
          <Trackpoint>
            <Time>2022-07-17T09:46:42.000Z</Time>
            <Position>
              <LatitudeDegrees>43.47291539423167705535888671875</LatitudeDegrees>
              <LongitudeDegrees>-5.16938589513301849365234375</LongitudeDegrees>
            </Position>
            <AltitudeMeters>86.59999847412109375</AltitudeMeters>
            <DistanceMeters>NAN</DistanceMeters>
          </Trackpoint>
          <Trackpoint>
            <Time>2022-07-17T09:46:43.000Z</Time>
            <Position>
              <LatitudeDegrees>43.47291455604135990142822265625</LatitudeDegrees>
              <LongitudeDegrees>-5.1694018207490444183349609375</LongitudeDegrees>
            </Position>
            <AltitudeMeters>87</AltitudeMeters>
            <DistanceMeters>NAN</DistanceMeters>
          </Trackpoint>
          <Trackpoint>
            <Time>2022-07-17T09:46:45.000Z</Time>
            <Position>
              <LatitudeDegrees>43.4729163162410259246826171875</LatitudeDegrees>
              <LongitudeDegrees>-5.1694303192198276519775390625</LongitudeDegrees>
            </Position>
            <AltitudeMeters>87.1999969482421875</AltitudeMeters>
            <DistanceMeters>NAN</DistanceMeters>
          </Trackpoint>
          <Trackpoint>
            <Time>2022-07-17T09:46:49.000Z</Time>
            <Position>
              <LatitudeDegrees>43.47290248610079288482666015625</LatitudeDegrees>
              <LongitudeDegrees>-5.16948069445788860321044921875</LongitudeDegrees>
            </Position>
            <AltitudeMeters>87.8000030517578125</AltitudeMeters>
            <DistanceMeters>NAN</DistanceMeters>
          </Trackpoint>
          <Trackpoint>
            <Time>2022-07-17T09:46:55.000Z</Time>
            <Position>
              <LatitudeDegrees>43.4728834591805934906005859375</LatitudeDegrees>
              <LongitudeDegrees>-5.16956199891865253448486328125</LongitudeDegrees>
            </Position>
            <AltitudeMeters>88.8000030517578125</AltitudeMeters>
            <DistanceMeters>NAN</DistanceMeters>
          </Trackpoint>
          <Trackpoint>
            <Time>2022-07-17T09:46:59.000Z</Time>
            <Position>
              <LatitudeDegrees>43.47285680472850799560546875</LatitudeDegrees>
              <LongitudeDegrees>-5.16961949877440929412841796875</LongitudeDegrees>
            </Position>
            <AltitudeMeters>89.59999847412109375</AltitudeMeters>
            <DistanceMeters>NAN</DistanceMeters>
          </Trackpoint>
          <Trackpoint>
            <Time>2022-07-17T09:47:00.000Z</Time>
            <Position>
              <LatitudeDegrees>43.47285211086273193359375</LatitudeDegrees>
              <LongitudeDegrees>-5.169633328914642333984375</LongitudeDegrees>
            </Position>
            <AltitudeMeters>89.8000030517578125</AltitudeMeters>
            <DistanceMeters>NAN</DistanceMeters>
          </Trackpoint>
          <Trackpoint>
            <Time>2022-07-17T09:47:05.000Z</Time>
            <Position>
              <LatitudeDegrees>43.47283593378961086273193359375</LatitudeDegrees>
              <LongitudeDegrees>-5.1697270385921001434326171875</LongitudeDegrees>
            </Position>
            <AltitudeMeters>90.59999847412109375</AltitudeMeters>
            <DistanceMeters>NAN</DistanceMeters>
          </Trackpoint>
          <Trackpoint>
            <Time>2022-07-17T09:47:07.000Z</Time>
            <Position>
              <LatitudeDegrees>43.47283191047608852386474609375</LatitudeDegrees>
              <LongitudeDegrees>-5.1697578839957714080810546875</LongitudeDegrees>
            </Position>
            <AltitudeMeters>90.8000030517578125</AltitudeMeters>
            <DistanceMeters>NAN</DistanceMeters>
          </Trackpoint>
          <Trackpoint>
            <Time>2022-07-17T09:47:15.000Z</Time>
            <Position>
              <LatitudeDegrees>43.4728368557989597320556640625</LatitudeDegrees>
              <LongitudeDegrees>-5.16988813877105712890625</LongitudeDegrees>
            </Position>
            <AltitudeMeters>92</AltitudeMeters>
            <DistanceMeters>NAN</DistanceMeters>
          </Trackpoint>
          <Trackpoint>
            <Time>2022-07-17T09:47:24.000Z</Time>
            <Position>
              <LatitudeDegrees>43.47280986607074737548828125</LatitudeDegrees>
              <LongitudeDegrees>-5.1700351573526859283447265625</LongitudeDegrees>
            </Position>
            <AltitudeMeters>93</AltitudeMeters>
            <DistanceMeters>NAN</DistanceMeters>
          </Trackpoint>
          <Trackpoint>
            <Time>2022-07-17T09:47:26.000Z</Time>
            <Position>
              <LatitudeDegrees>43.47281011752784252166748046875</LatitudeDegrees>
              <LongitudeDegrees>-5.17007388174533843994140625</LongitudeDegrees>
            </Position>
            <AltitudeMeters>93</AltitudeMeters>
            <DistanceMeters>NAN</DistanceMeters>
          </Trackpoint>
          <Trackpoint>
            <Time>2022-07-17T09:47:31.000Z</Time>
            <Position>
              <LatitudeDegrees>43.47280508838593959808349609375</LatitudeDegrees>
              <LongitudeDegrees>-5.17013967968523502349853515625</LongitudeDegrees>
            </Position>
            <AltitudeMeters>93.40000152587890625</AltitudeMeters>
            <DistanceMeters>NAN</DistanceMeters>
          </Trackpoint>
          <Trackpoint>
            <Time>2022-07-17T09:47:32.000Z</Time>
            <Position>
              <LatitudeDegrees>43.4727986343204975128173828125</LatitudeDegrees>
              <LongitudeDegrees>-5.1701478101313114166259765625</LongitudeDegrees>
            </Position>
            <AltitudeMeters>93.40000152587890625</AltitudeMeters>
            <DistanceMeters>NAN</DistanceMeters>
          </Trackpoint>
          <Trackpoint>
            <Time>2022-07-17T09:47:33.000Z</Time>
            <Position>
              <LatitudeDegrees>43.47279377281665802001953125</LatitudeDegrees>
              <LongitudeDegrees>-5.1701662503182888031005859375</LongitudeDegrees>
            </Position>
            <AltitudeMeters>93.40000152587890625</AltitudeMeters>
            <DistanceMeters>NAN</DistanceMeters>
          </Trackpoint>
          <Trackpoint>
            <Time>2022-07-17T09:47:38.000Z</Time>
            <Position>
              <LatitudeDegrees>43.47279846668243408203125</LatitudeDegrees>
              <LongitudeDegrees>-5.17026356421411037445068359375</LongitudeDegrees>
            </Position>
            <AltitudeMeters>93.8000030517578125</AltitudeMeters>
            <DistanceMeters>NAN</DistanceMeters>
          </Trackpoint>
          <Trackpoint>
            <Time>2022-07-17T09:47:39.000Z</Time>
            <Position>
              <LatitudeDegrees>43.472797460854053497314453125</LatitudeDegrees>
              <LongitudeDegrees>-5.17028703354299068450927734375</LongitudeDegrees>
            </Position>
            <AltitudeMeters>93.8000030517578125</AltitudeMeters>
            <DistanceMeters>NAN</DistanceMeters>
          </Trackpoint>
          <Trackpoint>
            <Time>2022-07-17T09:47:42.000Z</Time>
            <Position>
              <LatitudeDegrees>43.47279150970280170440673828125</LatitudeDegrees>
              <LongitudeDegrees>-5.1703352294862270355224609375</LongitudeDegrees>
            </Position>
            <AltitudeMeters>94</AltitudeMeters>
            <DistanceMeters>NAN</DistanceMeters>
          </Trackpoint>
          <Trackpoint>
            <Time>2022-07-17T09:47:43.000Z</Time>
            <Position>
              <LatitudeDegrees>43.47278966568410396575927734375</LatitudeDegrees>
              <LongitudeDegrees>-5.17035014927387237548828125</LongitudeDegrees>
            </Position>
            <AltitudeMeters>94.1999969482421875</AltitudeMeters>
            <DistanceMeters>NAN</DistanceMeters>
          </Trackpoint>
          <Trackpoint>
            <Time>2022-07-17T09:47:44.000Z</Time>
            <Position>
              <LatitudeDegrees>43.47278840839862823486328125</LatitudeDegrees>
              <LongitudeDegrees>-5.1703684218227863311767578125</LongitudeDegrees>
            </Position>
            <AltitudeMeters>94.1999969482421875</AltitudeMeters>
            <DistanceMeters>NAN</DistanceMeters>
          </Trackpoint>
          <Trackpoint>
            <Time>2022-07-17T09:47:50.000Z</Time>
            <Position>
              <LatitudeDegrees>43.4727795235812664031982421875</LatitudeDegrees>
              <LongitudeDegrees>-5.1704715192317962646484375</LongitudeDegrees>
            </Position>
            <AltitudeMeters>94.40000152587890625</AltitudeMeters>
            <DistanceMeters>NAN</DistanceMeters>
          </Trackpoint>
          <Trackpoint>
            <Time>2022-07-17T09:47:58.000Z</Time>
            <Position>
              <LatitudeDegrees>43.4727362729609012603759765625</LatitudeDegrees>
              <LongitudeDegrees>-5.170648880302906036376953125</LongitudeDegrees>
            </Position>
            <AltitudeMeters>94.8000030517578125</AltitudeMeters>
            <DistanceMeters>NAN</DistanceMeters>
          </Trackpoint>
          <Trackpoint>
            <Time>2022-07-17T09:48:03.000Z</Time>
            <Position>
              <LatitudeDegrees>43.472732417285442352294921875</LatitudeDegrees>
              <LongitudeDegrees>-5.1706860959529876708984375</LongitudeDegrees>
            </Position>
            <AltitudeMeters>94.40000152587890625</AltitudeMeters>
            <DistanceMeters>NAN</DistanceMeters>
          </Trackpoint>
          <Trackpoint>
            <Time>2022-07-17T09:51:09.000Z</Time>
            <Position>
              <LatitudeDegrees>43.47274960018694400787353515625</LatitudeDegrees>
              <LongitudeDegrees>-5.17076228745281696319580078125</LongitudeDegrees>
            </Position>
            <AltitudeMeters>97.59999847412109375</AltitudeMeters>
            <DistanceMeters>NAN</DistanceMeters>
          </Trackpoint>
          <Trackpoint>
            <Time>2022-07-17T09:51:10.000Z</Time>
            <Position>
              <LatitudeDegrees>43.47275965847074985504150390625</LatitudeDegrees>
              <LongitudeDegrees>-5.1707875169813632965087890625</LongitudeDegrees>
            </Position>
            <AltitudeMeters>97.59999847412109375</AltitudeMeters>
            <DistanceMeters>NAN</DistanceMeters>
          </Trackpoint>
          <Trackpoint>
            <Time>2022-07-17T09:51:11.000Z</Time>
            <Position>
              <LatitudeDegrees>43.472770638763904571533203125</LatitudeDegrees>
              <LongitudeDegrees>-5.1708136685192584991455078125</LongitudeDegrees>
            </Position>
            <AltitudeMeters>97.59999847412109375</AltitudeMeters>
            <DistanceMeters>NAN</DistanceMeters>
          </Trackpoint>
          <Trackpoint>
            <Time>2022-07-17T09:51:16.000Z</Time>
            <Position>
              <LatitudeDegrees>43.47283274866640567779541015625</LatitudeDegrees>
              <LongitudeDegrees>-5.1709725894033908843994140625</LongitudeDegrees>
            </Position>
            <AltitudeMeters>97</AltitudeMeters>
            <DistanceMeters>NAN</DistanceMeters>
          </Trackpoint>
          <Trackpoint>
            <Time>2022-07-17T09:51:17.000Z</Time>
            <Position>
              <LatitudeDegrees>43.4728552959859371185302734375</LatitudeDegrees>
              <LongitudeDegrees>-5.17099899239838123321533203125</LongitudeDegrees>
            </Position>
            <AltitudeMeters>96.59999847412109375</AltitudeMeters>
            <DistanceMeters>NAN</DistanceMeters>
          </Trackpoint>
          <Trackpoint>
            <Time>2022-07-17T09:51:18.000Z</Time>
            <Position>
              <LatitudeDegrees>43.472882620990276336669921875</LatitudeDegrees>
              <LongitudeDegrees>-5.17102061770856380462646484375</LongitudeDegrees>
            </Position>
            <AltitudeMeters>96.40000152587890625</AltitudeMeters>
            <DistanceMeters>NAN</DistanceMeters>
          </Trackpoint>
          <Trackpoint>
            <Time>2022-07-17T09:51:20.000Z</Time>
            <Position>
              <LatitudeDegrees>43.47293701954185962677001953125</LatitudeDegrees>
              <LongitudeDegrees>-5.1710507087409496307373046875</LongitudeDegrees>
            </Position>
            <AltitudeMeters>95.1999969482421875</AltitudeMeters>
            <DistanceMeters>NAN</DistanceMeters>
          </Trackpoint>
          <Trackpoint>
            <Time>2022-07-17T09:51:23.000Z</Time>
            <Position>
              <LatitudeDegrees>43.47300558350980281829833984375</LatitudeDegrees>
              <LongitudeDegrees>-5.1711080409586429595947265625</LongitudeDegrees>
            </Position>
            <AltitudeMeters>93.8000030517578125</AltitudeMeters>
            <DistanceMeters>NAN</DistanceMeters>
          </Trackpoint>
          <Trackpoint>
            <Time>2022-07-17T09:51:25.000Z</Time>
            <Position>
              <LatitudeDegrees>43.4730383567512035369873046875</LatitudeDegrees>
              <LongitudeDegrees>-5.1711657084524631500244140625</LongitudeDegrees>
            </Position>
            <AltitudeMeters>92.40000152587890625</AltitudeMeters>
            <DistanceMeters>NAN</DistanceMeters>
          </Trackpoint>
          <Trackpoint>
            <Time>2022-07-17T09:51:27.000Z</Time>
            <Position>
              <LatitudeDegrees>43.4730668552219867706298828125</LatitudeDegrees>
              <LongitudeDegrees>-5.1712384633719921112060546875</LongitudeDegrees>
            </Position>
            <AltitudeMeters>91</AltitudeMeters>
            <DistanceMeters>NAN</DistanceMeters>
          </Trackpoint>
          <Trackpoint>
            <Time>2022-07-17T09:51:29.000Z</Time>
            <Position>
              <LatitudeDegrees>43.4730822779238224029541015625</LatitudeDegrees>
              <LongitudeDegrees>-5.1713189296424388885498046875</LongitudeDegrees>
            </Position>
            <AltitudeMeters>90.1999969482421875</AltitudeMeters>
            <DistanceMeters>NAN</DistanceMeters>
          </Trackpoint>
          <Trackpoint>
            <Time>2022-07-17T09:51:30.000Z</Time>
            <Position>
              <LatitudeDegrees>43.4730869717895984649658203125</LatitudeDegrees>
              <LongitudeDegrees>-5.17136092297732830047607421875</LongitudeDegrees>
            </Position>
            <AltitudeMeters>89.8000030517578125</AltitudeMeters>
            <DistanceMeters>NAN</DistanceMeters>
          </Trackpoint>
          <Trackpoint>
            <Time>2022-07-17T09:51:32.000Z</Time>
            <Position>
              <LatitudeDegrees>43.47309149801731109619140625</LatitudeDegrees>
              <LongitudeDegrees>-5.17144859768450260162353515625</LongitudeDegrees>
            </Position>
            <AltitudeMeters>88.8000030517578125</AltitudeMeters>
            <DistanceMeters>NAN</DistanceMeters>
          </Trackpoint>
          <Trackpoint>
            <Time>2022-07-17T09:51:35.000Z</Time>
            <Position>
              <LatitudeDegrees>43.47308479249477386474609375</LatitudeDegrees>
              <LongitudeDegrees>-5.17159142531454563140869140625</LongitudeDegrees>
            </Position>
            <AltitudeMeters>87.59999847412109375</AltitudeMeters>
            <DistanceMeters>NAN</DistanceMeters>
          </Trackpoint>
          <Trackpoint>
            <Time>2022-07-17T09:51:36.000Z</Time>
            <Position>
              <LatitudeDegrees>43.473079092800617218017578125</LatitudeDegrees>
              <LongitudeDegrees>-5.1716344244778156280517578125</LongitudeDegrees>
            </Position>
            <AltitudeMeters>87.1999969482421875</AltitudeMeters>
            <DistanceMeters>NAN</DistanceMeters>
          </Trackpoint>
          <Trackpoint>
            <Time>2022-07-17T09:51:37.000Z</Time>
            <Position>
              <LatitudeDegrees>43.4730765782296657562255859375</LatitudeDegrees>
              <LongitudeDegrees>-5.17167557962238788604736328125</LongitudeDegrees>
            </Position>
            <AltitudeMeters>86.40000152587890625</AltitudeMeters>
            <DistanceMeters>NAN</DistanceMeters>
          </Trackpoint>
          <Trackpoint>
            <Time>2022-07-17T09:51:39.000Z</Time>
            <Position>
              <LatitudeDegrees>43.47307062707841396331787109375</LatitudeDegrees>
              <LongitudeDegrees>-5.1717467419803142547607421875</LongitudeDegrees>
            </Position>
            <AltitudeMeters>85.40000152587890625</AltitudeMeters>
            <DistanceMeters>NAN</DistanceMeters>
          </Trackpoint>
          <Trackpoint>
            <Time>2022-07-17T09:51:41.000Z</Time>
            <Position>
              <LatitudeDegrees>43.47306794486939907073974609375</LatitudeDegrees>
              <LongitudeDegrees>-5.17179259099066257476806640625</LongitudeDegrees>
            </Position>
            <AltitudeMeters>84.1999969482421875</AltitudeMeters>
            <DistanceMeters>NAN</DistanceMeters>
          </Trackpoint>
          <Trackpoint>
            <Time>2022-07-17T09:51:42.000Z</Time>
            <Position>
              <LatitudeDegrees>43.47307029180228710174560546875</LatitudeDegrees>
              <LongitudeDegrees>-5.17181396484375</LongitudeDegrees>
            </Position>
            <AltitudeMeters>83.8000030517578125</AltitudeMeters>
            <DistanceMeters>NAN</DistanceMeters>
          </Trackpoint>
          <Trackpoint>
            <Time>2022-07-17T09:51:44.000Z</Time>
            <Position>
              <LatitudeDegrees>43.4730826131999492645263671875</LatitudeDegrees>
              <LongitudeDegrees>-5.1718516834080219268798828125</LongitudeDegrees>
            </Position>
            <AltitudeMeters>82.8000030517578125</AltitudeMeters>
            <DistanceMeters>NAN</DistanceMeters>
          </Trackpoint>
          <Trackpoint>
            <Time>2022-07-17T09:51:46.000Z</Time>
            <Position>
              <LatitudeDegrees>43.47310197539627552032470703125</LatitudeDegrees>
              <LongitudeDegrees>-5.171876661479473114013671875</LongitudeDegrees>
            </Position>
            <AltitudeMeters>81.59999847412109375</AltitudeMeters>
            <DistanceMeters>NAN</DistanceMeters>
          </Trackpoint>
          <Trackpoint>
            <Time>2022-07-17T09:51:48.000Z</Time>
            <Position>
              <LatitudeDegrees>43.47312578000128269195556640625</LatitudeDegrees>
              <LongitudeDegrees>-5.1719177328050136566162109375</LongitudeDegrees>
            </Position>
            <AltitudeMeters>80.59999847412109375</AltitudeMeters>
            <DistanceMeters>NAN</DistanceMeters>
          </Trackpoint>
          <Trackpoint>
            <Time>2022-07-17T09:51:50.000Z</Time>
            <Position>
              <LatitudeDegrees>43.47314572893083095550537109375</LatitudeDegrees>
              <LongitudeDegrees>-5.17195369116961956024169921875</LongitudeDegrees>
            </Position>
            <AltitudeMeters>79.40000152587890625</AltitudeMeters>
            <DistanceMeters>NAN</DistanceMeters>
          </Trackpoint>
          <Trackpoint>
            <Time>2022-07-17T09:51:51.000Z</Time>
            <Position>
              <LatitudeDegrees>43.473155200481414794921875</LatitudeDegrees>
              <LongitudeDegrees>-5.17198286019265651702880859375</LongitudeDegrees>
            </Position>
            <AltitudeMeters>78.8000030517578125</AltitudeMeters>
            <DistanceMeters>NAN</DistanceMeters>
          </Trackpoint>
          <Trackpoint>
            <Time>2022-07-17T09:51:52.000Z</Time>
            <Position>
              <LatitudeDegrees>43.4731570445001125335693359375</LatitudeDegrees>
              <LongitudeDegrees>-5.1720116101205348968505859375</LongitudeDegrees>
            </Position>
            <AltitudeMeters>78.1999969482421875</AltitudeMeters>
            <DistanceMeters>NAN</DistanceMeters>
          </Trackpoint>
          <Trackpoint>
            <Time>2022-07-17T09:51:53.000Z</Time>
            <Position>
              <LatitudeDegrees>43.47315360791981220245361328125</LatitudeDegrees>
              <LongitudeDegrees>-5.1720377616584300994873046875</LongitudeDegrees>
            </Position>
            <AltitudeMeters>77.59999847412109375</AltitudeMeters>
            <DistanceMeters>NAN</DistanceMeters>
          </Trackpoint>
          <Trackpoint>
            <Time>2022-07-17T09:51:54.000Z</Time>
            <Position>
              <LatitudeDegrees>43.4731506742537021636962890625</LatitudeDegrees>
              <LongitudeDegrees>-5.17206936143338680267333984375</LongitudeDegrees>
            </Position>
            <AltitudeMeters>77</AltitudeMeters>
            <DistanceMeters>NAN</DistanceMeters>
          </Trackpoint>
          <Trackpoint>
            <Time>2022-07-17T09:51:57.000Z</Time>
            <Position>
              <LatitudeDegrees>43.473136425018310546875</LatitudeDegrees>
              <LongitudeDegrees>-5.172194503247737884521484375</LongitudeDegrees>
            </Position>
            <AltitudeMeters>75.8000030517578125</AltitudeMeters>
            <DistanceMeters>NAN</DistanceMeters>
          </Trackpoint>
          <Trackpoint>
            <Time>2022-07-17T09:51:58.000Z</Time>
            <Position>
              <LatitudeDegrees>43.4731270372867584228515625</LatitudeDegrees>
              <LongitudeDegrees>-5.1722382567822933197021484375</LongitudeDegrees>
            </Position>
            <AltitudeMeters>75.1999969482421875</AltitudeMeters>
            <DistanceMeters>NAN</DistanceMeters>
          </Trackpoint>
          <Trackpoint>
            <Time>2022-07-17T09:51:59.000Z</Time>
            <Position>
              <LatitudeDegrees>43.47311723046004772186279296875</LatitudeDegrees>
              <LongitudeDegrees>-5.17228276468813419342041015625</LongitudeDegrees>
            </Position>
            <AltitudeMeters>74.59999847412109375</AltitudeMeters>
            <DistanceMeters>NAN</DistanceMeters>
          </Trackpoint>
          <Trackpoint>
            <Time>2022-07-17T09:52:01.000Z</Time>
            <Position>
              <LatitudeDegrees>43.4731097705662250518798828125</LatitudeDegrees>
              <LongitudeDegrees>-5.17236071638762950897216796875</LongitudeDegrees>
            </Position>
            <AltitudeMeters>73.40000152587890625</AltitudeMeters>
            <DistanceMeters>NAN</DistanceMeters>
          </Trackpoint>
          <Trackpoint>
            <Time>2022-07-17T09:52:03.000Z</Time>
            <Position>
              <LatitudeDegrees>43.47310566343367099761962890625</LatitudeDegrees>
              <LongitudeDegrees>-5.172461383044719696044921875</LongitudeDegrees>
            </Position>
            <AltitudeMeters>72.40000152587890625</AltitudeMeters>
            <DistanceMeters>NAN</DistanceMeters>
          </Trackpoint>
          <Trackpoint>
            <Time>2022-07-17T09:52:04.000Z</Time>
            <Position>
              <LatitudeDegrees>43.4731044061481952667236328125</LatitudeDegrees>
              <LongitudeDegrees>-5.17251645214855670928955078125</LongitudeDegrees>
            </Position>
            <AltitudeMeters>71.8000030517578125</AltitudeMeters>
            <DistanceMeters>NAN</DistanceMeters>
          </Trackpoint>
          <Trackpoint>
            <Time>2022-07-17T09:52:07.000Z</Time>
            <Position>
              <LatitudeDegrees>43.47311027348041534423828125</LatitudeDegrees>
              <LongitudeDegrees>-5.172610580921173095703125</LongitudeDegrees>
            </Position>
            <AltitudeMeters>70.40000152587890625</AltitudeMeters>
            <DistanceMeters>NAN</DistanceMeters>
          </Trackpoint>
          <Trackpoint>
            <Time>2022-07-17T09:52:09.000Z</Time>
            <Position>
              <LatitudeDegrees>43.4731104411184787750244140625</LatitudeDegrees>
              <LongitudeDegrees>-5.17267386429011821746826171875</LongitudeDegrees>
            </Position>
            <AltitudeMeters>69.59999847412109375</AltitudeMeters>
            <DistanceMeters>NAN</DistanceMeters>
          </Trackpoint>
          <Trackpoint>
            <Time>2022-07-17T09:52:10.000Z</Time>
            <Position>
              <LatitudeDegrees>43.473101891577243804931640625</LatitudeDegrees>
              <LongitudeDegrees>-5.17271124757826328277587890625</LongitudeDegrees>
            </Position>
            <AltitudeMeters>69.1999969482421875</AltitudeMeters>
            <DistanceMeters>NAN</DistanceMeters>
          </Trackpoint>
          <Trackpoint>
            <Time>2022-07-17T09:52:15.000Z</Time>
            <Position>
              <LatitudeDegrees>43.4731111116707324981689453125</LatitudeDegrees>
              <LongitudeDegrees>-5.1729845814406871795654296875</LongitudeDegrees>
            </Position>
            <AltitudeMeters>68.1999969482421875</AltitudeMeters>
            <DistanceMeters>NAN</DistanceMeters>
          </Trackpoint>
          <Trackpoint>
            <Time>2022-07-17T09:52:18.000Z</Time>
            <Position>
              <LatitudeDegrees>43.4731644205749034881591796875</LatitudeDegrees>
              <LongitudeDegrees>-5.1731555722653865814208984375</LongitudeDegrees>
            </Position>
            <AltitudeMeters>66.59999847412109375</AltitudeMeters>
            <DistanceMeters>NAN</DistanceMeters>
          </Trackpoint>
          <Trackpoint>
            <Time>2022-07-17T09:52:20.000Z</Time>
            <Position>
              <LatitudeDegrees>43.47320272587239742279052734375</LatitudeDegrees>
              <LongitudeDegrees>-5.173281468451023101806640625</LongitudeDegrees>
            </Position>
            <AltitudeMeters>65.59999847412109375</AltitudeMeters>
            <DistanceMeters>NAN</DistanceMeters>
          </Trackpoint>
          <Trackpoint>
            <Time>2022-07-17T09:52:21.000Z</Time>
            <Position>
              <LatitudeDegrees>43.473223932087421417236328125</LatitudeDegrees>
              <LongitudeDegrees>-5.1733329333364963531494140625</LongitudeDegrees>
            </Position>
            <AltitudeMeters>64.59999847412109375</AltitudeMeters>
            <DistanceMeters>NAN</DistanceMeters>
          </Trackpoint>
          <Trackpoint>
            <Time>2022-07-17T09:52:22.000Z</Time>
            <Position>
              <LatitudeDegrees>43.47323323599994182586669921875</LatitudeDegrees>
              <LongitudeDegrees>-5.1733802072703838348388671875</LongitudeDegrees>
            </Position>
            <AltitudeMeters>63.799999237060546875</AltitudeMeters>
            <DistanceMeters>NAN</DistanceMeters>
          </Trackpoint>
          <Trackpoint>
            <Time>2022-07-17T09:52:23.000Z</Time>
            <Position>
              <LatitudeDegrees>43.47324547357857227325439453125</LatitudeDegrees>
              <LongitudeDegrees>-5.17341054975986480712890625</LongitudeDegrees>
            </Position>
            <AltitudeMeters>62.40000152587890625</AltitudeMeters>
            <DistanceMeters>NAN</DistanceMeters>
          </Trackpoint>
          <Trackpoint>
            <Time>2022-07-17T09:52:26.000Z</Time>
            <Position>
              <LatitudeDegrees>43.47328034229576587677001953125</LatitudeDegrees>
              <LongitudeDegrees>-5.173513479530811309814453125</LongitudeDegrees>
            </Position>
            <AltitudeMeters>61.40000152587890625</AltitudeMeters>
            <DistanceMeters>NAN</DistanceMeters>
          </Trackpoint>
          <Trackpoint>
            <Time>2022-07-17T09:52:27.000Z</Time>
            <Position>
              <LatitudeDegrees>43.473274894058704376220703125</LatitudeDegrees>
              <LongitudeDegrees>-5.17354541458189487457275390625</LongitudeDegrees>
            </Position>
            <AltitudeMeters>60.59999847412109375</AltitudeMeters>
            <DistanceMeters>NAN</DistanceMeters>
          </Trackpoint>
          <Trackpoint>
            <Time>2022-07-17T09:52:28.000Z</Time>
            <Position>
              <LatitudeDegrees>43.473278917372226715087890625</LatitudeDegrees>
              <LongitudeDegrees>-5.1735962927341461181640625</LongitudeDegrees>
            </Position>
            <AltitudeMeters>60</AltitudeMeters>
            <DistanceMeters>NAN</DistanceMeters>
          </Trackpoint>
          <Trackpoint>
            <Time>2022-07-17T09:52:32.000Z</Time>
            <Position>
              <LatitudeDegrees>43.47338126040995121002197265625</LatitudeDegrees>
              <LongitudeDegrees>-5.17379083670675754547119140625</LongitudeDegrees>
            </Position>
            <AltitudeMeters>58.59999847412109375</AltitudeMeters>
            <DistanceMeters>NAN</DistanceMeters>
          </Trackpoint>
          <Trackpoint>
            <Time>2022-07-17T09:52:33.000Z</Time>
            <Position>
              <LatitudeDegrees>43.4734034724533557891845703125</LatitudeDegrees>
              <LongitudeDegrees>-5.17382989637553691864013671875</LongitudeDegrees>
            </Position>
            <AltitudeMeters>58.200000762939453125</AltitudeMeters>
            <DistanceMeters>NAN</DistanceMeters>
          </Trackpoint>
          <Trackpoint>
            <Time>2022-07-17T09:52:34.000Z</Time>
            <Position>
              <LatitudeDegrees>43.473419062793254852294921875</LatitudeDegrees>
              <LongitudeDegrees>-5.17386962659657001495361328125</LongitudeDegrees>
            </Position>
            <AltitudeMeters>57.59999847412109375</AltitudeMeters>
            <DistanceMeters>NAN</DistanceMeters>
          </Trackpoint>
          <Trackpoint>
            <Time>2022-07-17T09:52:37.000Z</Time>
            <Position>
              <LatitudeDegrees>43.47348754294216632843017578125</LatitudeDegrees>
              <LongitudeDegrees>-5.17401111312210559844970703125</LongitudeDegrees>
            </Position>
            <AltitudeMeters>56.799999237060546875</AltitudeMeters>
            <DistanceMeters>NAN</DistanceMeters>
          </Trackpoint>
          <Trackpoint>
            <Time>2022-07-17T09:52:38.000Z</Time>
            <Position>
              <LatitudeDegrees>43.473530709743499755859375</LatitudeDegrees>
              <LongitudeDegrees>-5.17407900653779506683349609375</LongitudeDegrees>
            </Position>
            <AltitudeMeters>56.59999847412109375</AltitudeMeters>
            <DistanceMeters>NAN</DistanceMeters>
          </Trackpoint>
          <Trackpoint>
            <Time>2022-07-17T09:52:39.000Z</Time>
            <Position>
              <LatitudeDegrees>43.47355744801461696624755859375</LatitudeDegrees>
              <LongitudeDegrees>-5.17412602901458740234375</LongitudeDegrees>
            </Position>
            <AltitudeMeters>56.200000762939453125</AltitudeMeters>
            <DistanceMeters>NAN</DistanceMeters>
          </Trackpoint>
          <Trackpoint>
            <Time>2022-07-17T09:52:42.000Z</Time>
            <Position>
              <LatitudeDegrees>43.47367278300225734710693359375</LatitudeDegrees>
              <LongitudeDegrees>-5.17430732958018779754638671875</LongitudeDegrees>
            </Position>
            <AltitudeMeters>55.40000152587890625</AltitudeMeters>
            <DistanceMeters>NAN</DistanceMeters>
          </Trackpoint>
          <Trackpoint>
            <Time>2022-07-17T09:52:45.000Z</Time>
            <Position>
              <LatitudeDegrees>43.47375978715717792510986328125</LatitudeDegrees>
              <LongitudeDegrees>-5.1744661666452884674072265625</LongitudeDegrees>
            </Position>
            <AltitudeMeters>54.59999847412109375</AltitudeMeters>
            <DistanceMeters>NAN</DistanceMeters>
          </Trackpoint>
          <Trackpoint>
            <Time>2022-07-17T09:52:46.000Z</Time>
            <Position>
              <LatitudeDegrees>43.4737779758870601654052734375</LatitudeDegrees>
              <LongitudeDegrees>-5.17451084218919277191162109375</LongitudeDegrees>
            </Position>
            <AltitudeMeters>54.40000152587890625</AltitudeMeters>
            <DistanceMeters>NAN</DistanceMeters>
          </Trackpoint>
          <Trackpoint>
            <Time>2022-07-17T09:52:50.000Z</Time>
            <Position>
              <LatitudeDegrees>43.47382952459156513214111328125</LatitudeDegrees>
              <LongitudeDegrees>-5.17472223378717899322509765625</LongitudeDegrees>
            </Position>
            <AltitudeMeters>53.799999237060546875</AltitudeMeters>
            <DistanceMeters>NAN</DistanceMeters>
          </Trackpoint>
          <Trackpoint>
            <Time>2022-07-17T09:52:54.000Z</Time>
            <Position>
              <LatitudeDegrees>43.47389616072177886962890625</LatitudeDegrees>
              <LongitudeDegrees>-5.17488065175712108612060546875</LongitudeDegrees>
            </Position>
            <AltitudeMeters>53.40000152587890625</AltitudeMeters>
            <DistanceMeters>NAN</DistanceMeters>
          </Trackpoint>
          <Trackpoint>
            <Time>2022-07-17T09:52:59.000Z</Time>
            <Position>
              <LatitudeDegrees>43.473938070237636566162109375</LatitudeDegrees>
              <LongitudeDegrees>-5.1749898679554462432861328125</LongitudeDegrees>
            </Position>
            <AltitudeMeters>53.799999237060546875</AltitudeMeters>
            <DistanceMeters>NAN</DistanceMeters>
          </Trackpoint>
          <Trackpoint>
            <Time>2022-07-17T09:53:01.000Z</Time>
            <Position>
              <LatitudeDegrees>43.47395558841526508331298828125</LatitudeDegrees>
              <LongitudeDegrees>-5.1750297658145427703857421875</LongitudeDegrees>
            </Position>
            <AltitudeMeters>54.200000762939453125</AltitudeMeters>
            <DistanceMeters>NAN</DistanceMeters>
          </Trackpoint>
          <Trackpoint>
            <Time>2022-07-17T09:53:05.000Z</Time>
            <Position>
              <LatitudeDegrees>43.47399246878921985626220703125</LatitudeDegrees>
              <LongitudeDegrees>-5.1751010119915008544921875</LongitudeDegrees>
            </Position>
            <AltitudeMeters>54.200000762939453125</AltitudeMeters>
            <DistanceMeters>NAN</DistanceMeters>
          </Trackpoint>
          <Trackpoint>
            <Time>2022-07-17T09:53:06.000Z</Time>
            <Position>
              <LatitudeDegrees>43.47399246878921985626220703125</LatitudeDegrees>
              <LongitudeDegrees>-5.1751010119915008544921875</LongitudeDegrees>
            </Position>
            <AltitudeMeters>54.200000762939453125</AltitudeMeters>
            <DistanceMeters>NAN</DistanceMeters>
          </Trackpoint>
          <Trackpoint>
            <Time>2022-07-17T09:53:07.000Z</Time>
            <Position>
              <LatitudeDegrees>43.47399246878921985626220703125</LatitudeDegrees>
              <LongitudeDegrees>-5.1751010119915008544921875</LongitudeDegrees>
            </Position>
            <AltitudeMeters>54.200000762939453125</AltitudeMeters>
            <DistanceMeters>NAN</DistanceMeters>
          </Trackpoint>
          <Trackpoint>
            <Time>2022-07-17T09:54:08.000Z</Time>
            <Position>
              <LatitudeDegrees>43.474005125463008880615234375</LatitudeDegrees>
              <LongitudeDegrees>-5.175154991447925567626953125</LongitudeDegrees>
            </Position>
            <AltitudeMeters>53.40000152587890625</AltitudeMeters>
            <DistanceMeters>NAN</DistanceMeters>
          </Trackpoint>
          <Trackpoint>
            <Time>2022-07-17T09:54:09.000Z</Time>
            <Position>
              <LatitudeDegrees>43.47400688566267490386962890625</LatitudeDegrees>
              <LongitudeDegrees>-5.17517410218715667724609375</LongitudeDegrees>
            </Position>
            <AltitudeMeters>53.40000152587890625</AltitudeMeters>
            <DistanceMeters>NAN</DistanceMeters>
          </Trackpoint>
          <Trackpoint>
            <Time>2022-07-17T09:54:11.000Z</Time>
            <Position>
              <LatitudeDegrees>43.4740143455564975738525390625</LatitudeDegrees>
              <LongitudeDegrees>-5.17520100809633731842041015625</LongitudeDegrees>
            </Position>
            <AltitudeMeters>53.40000152587890625</AltitudeMeters>
            <DistanceMeters>NAN</DistanceMeters>
          </Trackpoint>
          <Trackpoint>
            <Time>2022-07-17T09:54:13.000Z</Time>
            <Position>
              <LatitudeDegrees>43.4740213863551616668701171875</LatitudeDegrees>
              <LongitudeDegrees>-5.1752352900803089141845703125</LongitudeDegrees>
            </Position>
            <AltitudeMeters>53.40000152587890625</AltitudeMeters>
            <DistanceMeters>NAN</DistanceMeters>
          </Trackpoint>
          <Trackpoint>
            <Time>2022-07-17T09:54:17.000Z</Time>
            <Position>
              <LatitudeDegrees>43.47403161227703094482421875</LatitudeDegrees>
              <LongitudeDegrees>-5.1752968132495880126953125</LongitudeDegrees>
            </Position>
            <AltitudeMeters>53.40000152587890625</AltitudeMeters>
            <DistanceMeters>NAN</DistanceMeters>
          </Trackpoint>
          <Trackpoint>
            <Time>2022-07-17T09:54:21.000Z</Time>
            <Position>
              <LatitudeDegrees>43.47404276020824909210205078125</LatitudeDegrees>
              <LongitudeDegrees>-5.17545296810567378997802734375</LongitudeDegrees>
            </Position>
            <AltitudeMeters>53.40000152587890625</AltitudeMeters>
            <DistanceMeters>NAN</DistanceMeters>
          </Trackpoint>
          <Trackpoint>
            <Time>2022-07-17T09:54:26.000Z</Time>
            <Position>
              <LatitudeDegrees>43.47400872968137264251708984375</LatitudeDegrees>
              <LongitudeDegrees>-5.17567642964422702789306640625</LongitudeDegrees>
            </Position>
            <AltitudeMeters>52</AltitudeMeters>
            <DistanceMeters>NAN</DistanceMeters>
          </Trackpoint>
          <Trackpoint>
            <Time>2022-07-17T09:54:27.000Z</Time>
            <Position>
              <LatitudeDegrees>43.47400554455816745758056640625</LatitudeDegrees>
              <LongitudeDegrees>-5.17571724951267242431640625</LongitudeDegrees>
            </Position>
            <AltitudeMeters>51.799999237060546875</AltitudeMeters>
            <DistanceMeters>NAN</DistanceMeters>
          </Trackpoint>
          <Trackpoint>
            <Time>2022-07-17T09:54:30.000Z</Time>
            <Position>
              <LatitudeDegrees>43.4740009345114231109619140625</LatitudeDegrees>
              <LongitudeDegrees>-5.1758749969303607940673828125</LongitudeDegrees>
            </Position>
            <AltitudeMeters>50.59999847412109375</AltitudeMeters>
            <DistanceMeters>NAN</DistanceMeters>
          </Trackpoint>
          <Trackpoint>
            <Time>2022-07-17T09:54:32.000Z</Time>
            <Position>
              <LatitudeDegrees>43.47398710437119007110595703125</LatitudeDegrees>
              <LongitudeDegrees>-5.1759874820709228515625</LongitudeDegrees>
            </Position>
            <AltitudeMeters>49.59999847412109375</AltitudeMeters>
            <DistanceMeters>NAN</DistanceMeters>
          </Trackpoint>
          <Trackpoint>
            <Time>2022-07-17T09:54:33.000Z</Time>
            <Position>
              <LatitudeDegrees>43.47397419624030590057373046875</LatitudeDegrees>
              <LongitudeDegrees>-5.17604489810764789581298828125</LongitudeDegrees>
            </Position>
            <AltitudeMeters>49.40000152587890625</AltitudeMeters>
            <DistanceMeters>NAN</DistanceMeters>
          </Trackpoint>
          <Trackpoint>
            <Time>2022-07-17T09:54:39.000Z</Time>
            <Position>
              <LatitudeDegrees>43.47389255650341510772705078125</LatitudeDegrees>
              <LongitudeDegrees>-5.1763406954705715179443359375</LongitudeDegrees>
            </Position>
            <AltitudeMeters>48.59999847412109375</AltitudeMeters>
            <DistanceMeters>NAN</DistanceMeters>
          </Trackpoint>
          <Trackpoint>
            <Time>2022-07-17T09:54:41.000Z</Time>
            <Position>
              <LatitudeDegrees>43.4738896228373050689697265625</LatitudeDegrees>
              <LongitudeDegrees>-5.17643314786255359649658203125</LongitudeDegrees>
            </Position>
            <AltitudeMeters>48.200000762939453125</AltitudeMeters>
            <DistanceMeters>NAN</DistanceMeters>
          </Trackpoint>
          <Trackpoint>
            <Time>2022-07-17T09:54:45.000Z</Time>
            <Position>
              <LatitudeDegrees>43.47388409078121185302734375</LatitudeDegrees>
              <LongitudeDegrees>-5.17655518837273120880126953125</LongitudeDegrees>
            </Position>
            <AltitudeMeters>48</AltitudeMeters>
            <DistanceMeters>NAN</DistanceMeters>
          </Trackpoint>
          <Trackpoint>
            <Time>2022-07-17T09:54:48.000Z</Time>
            <Position>
              <LatitudeDegrees>43.47388735972344875335693359375</LatitudeDegrees>
              <LongitudeDegrees>-5.17662391997873783111572265625</LongitudeDegrees>
            </Position>
            <AltitudeMeters>48</AltitudeMeters>
            <DistanceMeters>NAN</DistanceMeters>
          </Trackpoint>
          <Trackpoint>
            <Time>2022-07-17T09:54:52.000Z</Time>
            <Position>
              <LatitudeDegrees>43.47387981601059436798095703125</LatitudeDegrees>
              <LongitudeDegrees>-5.17672416754066944122314453125</LongitudeDegrees>
            </Position>
            <AltitudeMeters>47.799999237060546875</AltitudeMeters>
            <DistanceMeters>NAN</DistanceMeters>
          </Trackpoint>
          <Trackpoint>
            <Time>2022-07-17T09:54:56.000Z</Time>
            <Position>
              <LatitudeDegrees>43.47385869361460208892822265625</LatitudeDegrees>
              <LongitudeDegrees>-5.176832042634487152099609375</LongitudeDegrees>
            </Position>
            <AltitudeMeters>47.59999847412109375</AltitudeMeters>
            <DistanceMeters>NAN</DistanceMeters>
          </Trackpoint>
          <Trackpoint>
            <Time>2022-07-17T09:54:58.000Z</Time>
            <Position>
              <LatitudeDegrees>43.47386355511844158172607421875</LatitudeDegrees>
              <LongitudeDegrees>-5.1768922246992588043212890625</LongitudeDegrees>
            </Position>
            <AltitudeMeters>47.40000152587890625</AltitudeMeters>
            <DistanceMeters>NAN</DistanceMeters>
          </Trackpoint>
          <Trackpoint>
            <Time>2022-07-17T09:55:00.000Z</Time>
            <Position>
              <LatitudeDegrees>43.47388132475316524505615234375</LatitudeDegrees>
              <LongitudeDegrees>-5.17695374786853790283203125</LongitudeDegrees>
            </Position>
            <AltitudeMeters>47.200000762939453125</AltitudeMeters>
            <DistanceMeters>NAN</DistanceMeters>
          </Trackpoint>
          <Trackpoint>
            <Time>2022-07-17T09:55:04.000Z</Time>
            <Position>
              <LatitudeDegrees>43.47391502000391483306884765625</LatitudeDegrees>
              <LongitudeDegrees>-5.177062712609767913818359375</LongitudeDegrees>
            </Position>
            <AltitudeMeters>46.799999237060546875</AltitudeMeters>
            <DistanceMeters>NAN</DistanceMeters>
          </Trackpoint>
          <Trackpoint>
            <Time>2022-07-17T09:55:05.000Z</Time>
            <Position>
              <LatitudeDegrees>43.473920635879039764404296875</LatitudeDegrees>
              <LongitudeDegrees>-5.1770823262631893157958984375</LongitudeDegrees>
            </Position>
            <AltitudeMeters>46.799999237060546875</AltitudeMeters>
            <DistanceMeters>NAN</DistanceMeters>
          </Trackpoint>
          <Trackpoint>
            <Time>2022-07-17T09:55:08.000Z</Time>
            <Position>
              <LatitudeDegrees>43.4739224798977375030517578125</LatitudeDegrees>
              <LongitudeDegrees>-5.17713421024382114410400390625</LongitudeDegrees>
            </Position>
            <AltitudeMeters>46.799999237060546875</AltitudeMeters>
            <DistanceMeters>NAN</DistanceMeters>
          </Trackpoint>
          <Trackpoint>
            <Time>2022-07-17T09:55:17.000Z</Time>
            <Position>
              <LatitudeDegrees>43.47395475022494792938232421875</LatitudeDegrees>
              <LongitudeDegrees>-5.1772627048194408416748046875</LongitudeDegrees>
            </Position>
            <AltitudeMeters>47.59999847412109375</AltitudeMeters>
            <DistanceMeters>NAN</DistanceMeters>
          </Trackpoint>
          <Trackpoint>
            <Time>2022-07-17T09:55:19.000Z</Time>
            <Position>
              <LatitudeDegrees>43.47396631725132465362548828125</LatitudeDegrees>
              <LongitudeDegrees>-5.17729707062244415283203125</LongitudeDegrees>
            </Position>
            <AltitudeMeters>47.799999237060546875</AltitudeMeters>
            <DistanceMeters>NAN</DistanceMeters>
          </Trackpoint>
          <Trackpoint>
            <Time>2022-07-17T09:55:23.000Z</Time>
            <Position>
              <LatitudeDegrees>43.47397134639322757720947265625</LatitudeDegrees>
              <LongitudeDegrees>-5.17740142531692981719970703125</LongitudeDegrees>
            </Position>
            <AltitudeMeters>47.40000152587890625</AltitudeMeters>
            <DistanceMeters>NAN</DistanceMeters>
          </Trackpoint>
          <Trackpoint>
            <Time>2022-07-17T09:55:28.000Z</Time>
            <Position>
              <LatitudeDegrees>43.47400621511042118072509765625</LatitudeDegrees>
              <LongitudeDegrees>-5.17762304283678531646728515625</LongitudeDegrees>
            </Position>
            <AltitudeMeters>46.59999847412109375</AltitudeMeters>
            <DistanceMeters>NAN</DistanceMeters>
          </Trackpoint>
          <Trackpoint>
            <Time>2022-07-17T09:55:30.000Z</Time>
            <Position>
              <LatitudeDegrees>43.47402683459222316741943359375</LatitudeDegrees>
              <LongitudeDegrees>-5.1776928640902042388916015625</LongitudeDegrees>
            </Position>
            <AltitudeMeters>46.200000762939453125</AltitudeMeters>
            <DistanceMeters>NAN</DistanceMeters>
          </Trackpoint>
          <Trackpoint>
            <Time>2022-07-17T09:55:33.000Z</Time>
            <Position>
              <LatitudeDegrees>43.4740492142736911773681640625</LatitudeDegrees>
              <LongitudeDegrees>-5.177833847701549530029296875</LongitudeDegrees>
            </Position>
            <AltitudeMeters>44.799999237060546875</AltitudeMeters>
            <DistanceMeters>NAN</DistanceMeters>
          </Trackpoint>
          <Trackpoint>
            <Time>2022-07-17T09:55:35.000Z</Time>
            <Position>
              <LatitudeDegrees>43.47406924702227115631103515625</LatitudeDegrees>
              <LongitudeDegrees>-5.177952535450458526611328125</LongitudeDegrees>
            </Position>
            <AltitudeMeters>43.40000152587890625</AltitudeMeters>
            <DistanceMeters>NAN</DistanceMeters>
          </Trackpoint>
          <Trackpoint>
            <Time>2022-07-17T09:55:36.000Z</Time>
            <Position>
              <LatitudeDegrees>43.47406991757452487945556640625</LatitudeDegrees>
              <LongitudeDegrees>-5.17799980938434600830078125</LongitudeDegrees>
            </Position>
            <AltitudeMeters>43</AltitudeMeters>
            <DistanceMeters>NAN</DistanceMeters>
          </Trackpoint>
          <Trackpoint>
            <Time>2022-07-17T09:55:37.000Z</Time>
            <Position>
              <LatitudeDegrees>43.47406287677586078643798828125</LatitudeDegrees>
              <LongitudeDegrees>-5.17805278301239013671875</LongitudeDegrees>
            </Position>
            <AltitudeMeters>42.200000762939453125</AltitudeMeters>
            <DistanceMeters>NAN</DistanceMeters>
          </Trackpoint>
          <Trackpoint>
            <Time>2022-07-17T09:55:40.000Z</Time>
            <Position>
              <LatitudeDegrees>43.474063463509082794189453125</LatitudeDegrees>
              <LongitudeDegrees>-5.17815512605011463165283203125</LongitudeDegrees>
            </Position>
            <AltitudeMeters>41.200000762939453125</AltitudeMeters>
            <DistanceMeters>NAN</DistanceMeters>
          </Trackpoint>
          <Trackpoint>
            <Time>2022-07-17T09:55:41.000Z</Time>
            <Position>
              <LatitudeDegrees>43.47405717708170413970947265625</LatitudeDegrees>
              <LongitudeDegrees>-5.1781909167766571044921875</LongitudeDegrees>
            </Position>
            <AltitudeMeters>40.799999237060546875</AltitudeMeters>
            <DistanceMeters>NAN</DistanceMeters>
          </Trackpoint>
          <Trackpoint>
            <Time>2022-07-17T09:55:43.000Z</Time>
            <Position>
              <LatitudeDegrees>43.4740577638149261474609375</LatitudeDegrees>
              <LongitudeDegrees>-5.178269706666469573974609375</LongitudeDegrees>
            </Position>
            <AltitudeMeters>40.200000762939453125</AltitudeMeters>
            <DistanceMeters>NAN</DistanceMeters>
          </Trackpoint>
          <Trackpoint>
            <Time>2022-07-17T09:55:45.000Z</Time>
            <Position>
              <LatitudeDegrees>43.47402432002127170562744140625</LatitudeDegrees>
              <LongitudeDegrees>-5.1783815212547779083251953125</LongitudeDegrees>
            </Position>
            <AltitudeMeters>39</AltitudeMeters>
            <DistanceMeters>NAN</DistanceMeters>
          </Trackpoint>
          <Trackpoint>
            <Time>2022-07-17T09:55:47.000Z</Time>
            <Position>
              <LatitudeDegrees>43.47399682737886905670166015625</LatitudeDegrees>
              <LongitudeDegrees>-5.1784700341522693634033203125</LongitudeDegrees>
            </Position>
            <AltitudeMeters>38</AltitudeMeters>
            <DistanceMeters>NAN</DistanceMeters>
          </Trackpoint>
          <Trackpoint>
            <Time>2022-07-17T09:55:48.000Z</Time>
            <Position>
              <LatitudeDegrees>43.4739955700933933258056640625</LatitudeDegrees>
              <LongitudeDegrees>-5.1785028912127017974853515625</LongitudeDegrees>
            </Position>
            <AltitudeMeters>37.799999237060546875</AltitudeMeters>
            <DistanceMeters>NAN</DistanceMeters>
          </Trackpoint>
          <Trackpoint>
            <Time>2022-07-17T09:55:51.000Z</Time>
            <Position>
              <LatitudeDegrees>43.47399330697953701019287109375</LatitudeDegrees>
              <LongitudeDegrees>-5.178578831255435943603515625</LongitudeDegrees>
            </Position>
            <AltitudeMeters>37.200000762939453125</AltitudeMeters>
            <DistanceMeters>NAN</DistanceMeters>
          </Trackpoint>
          <Trackpoint>
            <Time>2022-07-17T09:55:54.000Z</Time>
            <Position>
              <LatitudeDegrees>43.47399380989372730255126953125</LatitudeDegrees>
              <LongitudeDegrees>-5.1785893924534320831298828125</LongitudeDegrees>
            </Position>
            <AltitudeMeters>36.59999847412109375</AltitudeMeters>
            <DistanceMeters>NAN</DistanceMeters>
          </Trackpoint>
          <Trackpoint>
            <Time>2022-07-17T10:00:19.000Z</Time>
            <Position>
              <LatitudeDegrees>43.473985679447650909423828125</LatitudeDegrees>
              <LongitudeDegrees>-5.1786453835666179656982421875</LongitudeDegrees>
            </Position>
            <AltitudeMeters>36.59999847412109375</AltitudeMeters>
            <DistanceMeters>NAN</DistanceMeters>
          </Trackpoint>
          <Trackpoint>
            <Time>2022-07-17T10:00:20.000Z</Time>
            <Position>
              <LatitudeDegrees>43.47397268749773502349853515625</LatitudeDegrees>
              <LongitudeDegrees>-5.17868134193122386932373046875</LongitudeDegrees>
            </Position>
            <AltitudeMeters>36.59999847412109375</AltitudeMeters>
            <DistanceMeters>NAN</DistanceMeters>
          </Trackpoint>
          <Trackpoint>
            <Time>2022-07-17T10:00:23.000Z</Time>
            <Position>
              <LatitudeDegrees>43.47393278963863849639892578125</LatitudeDegrees>
              <LongitudeDegrees>-5.17881427891552448272705078125</LongitudeDegrees>
            </Position>
            <AltitudeMeters>36.799999237060546875</AltitudeMeters>
            <DistanceMeters>NAN</DistanceMeters>
          </Trackpoint>
          <Trackpoint>
            <Time>2022-07-17T10:00:31.000Z</Time>
            <Position>
              <LatitudeDegrees>43.4739234857261180877685546875</LatitudeDegrees>
              <LongitudeDegrees>-5.17913815565407276153564453125</LongitudeDegrees>
            </Position>
            <AltitudeMeters>36</AltitudeMeters>
            <DistanceMeters>NAN</DistanceMeters>
          </Trackpoint>
          <Trackpoint>
            <Time>2022-07-17T10:00:32.000Z</Time>
            <Position>
              <LatitudeDegrees>43.47392273135483264923095703125</LatitudeDegrees>
              <LongitudeDegrees>-5.17915374599397182464599609375</LongitudeDegrees>
            </Position>
            <AltitudeMeters>35.59999847412109375</AltitudeMeters>
            <DistanceMeters>NAN</DistanceMeters>
          </Trackpoint>
          <Trackpoint>
            <Time>2022-07-17T10:00:34.000Z</Time>
            <Position>
              <LatitudeDegrees>43.47392273135483264923095703125</LatitudeDegrees>
              <LongitudeDegrees>-5.17915374599397182464599609375</LongitudeDegrees>
            </Position>
            <AltitudeMeters>35.200000762939453125</AltitudeMeters>
            <DistanceMeters>NAN</DistanceMeters>
          </Trackpoint>
          <Trackpoint>
            <Time>2022-07-17T10:00:45.000Z</Time>
            <Position>
              <LatitudeDegrees>43.473928011953830718994140625</LatitudeDegrees>
              <LongitudeDegrees>-5.17921661026775836944580078125</LongitudeDegrees>
            </Position>
            <AltitudeMeters>35.200000762939453125</AltitudeMeters>
            <DistanceMeters>NAN</DistanceMeters>
          </Trackpoint>
          <Trackpoint>
            <Time>2022-07-17T10:00:51.000Z</Time>
            <Position>
              <LatitudeDegrees>43.47390848211944103240966796875</LatitudeDegrees>
              <LongitudeDegrees>-5.1792783848941326141357421875</LongitudeDegrees>
            </Position>
            <AltitudeMeters>35.200000762939453125</AltitudeMeters>
            <DistanceMeters>NAN</DistanceMeters>
          </Trackpoint>
          <Trackpoint>
            <Time>2022-07-17T10:00:52.000Z</Time>
            <Position>
              <LatitudeDegrees>43.47390848211944103240966796875</LatitudeDegrees>
              <LongitudeDegrees>-5.1792783848941326141357421875</LongitudeDegrees>
            </Position>
            <AltitudeMeters>35.40000152587890625</AltitudeMeters>
            <DistanceMeters>NAN</DistanceMeters>
          </Trackpoint>
          <Trackpoint>
            <Time>2022-07-17T10:01:30.000Z</Time>
            <Position>
              <LatitudeDegrees>43.47396455705165863037109375</LatitudeDegrees>
              <LongitudeDegrees>-5.17970971763134002685546875</LongitudeDegrees>
            </Position>
            <AltitudeMeters>40.40000152587890625</AltitudeMeters>
            <DistanceMeters>NAN</DistanceMeters>
          </Trackpoint>
          <Trackpoint>
            <Time>2022-07-17T10:01:33.000Z</Time>
            <Position>
              <LatitudeDegrees>43.473970592021942138671875</LatitudeDegrees>
              <LongitudeDegrees>-5.1797625236213207244873046875</LongitudeDegrees>
            </Position>
            <AltitudeMeters>40.799999237060546875</AltitudeMeters>
            <DistanceMeters>NAN</DistanceMeters>
          </Trackpoint>
          <Trackpoint>
            <Time>2022-07-17T10:01:34.000Z</Time>
            <Position>
              <LatitudeDegrees>43.47397268749773502349853515625</LatitudeDegrees>
              <LongitudeDegrees>-5.1797806285321712493896484375</LongitudeDegrees>
            </Position>
            <AltitudeMeters>41</AltitudeMeters>
            <DistanceMeters>NAN</DistanceMeters>
          </Trackpoint>
          <Trackpoint>
            <Time>2022-07-17T10:01:38.000Z</Time>
            <Position>
              <LatitudeDegrees>43.47398794256150722503662109375</LatitudeDegrees>
              <LongitudeDegrees>-5.17984709702432155609130859375</LongitudeDegrees>
            </Position>
            <AltitudeMeters>41.40000152587890625</AltitudeMeters>
            <DistanceMeters>NAN</DistanceMeters>
          </Trackpoint>
          <Trackpoint>
            <Time>2022-07-17T10:01:42.000Z</Time>
            <Position>
              <LatitudeDegrees>43.47400604747235774993896484375</LatitudeDegrees>
              <LongitudeDegrees>-5.1799103803932666778564453125</LongitudeDegrees>
            </Position>
            <AltitudeMeters>41.59999847412109375</AltitudeMeters>
            <DistanceMeters>NAN</DistanceMeters>
          </Trackpoint>
          <Trackpoint>
            <Time>2022-07-17T10:01:43.000Z</Time>
            <Position>
              <LatitudeDegrees>43.47401141189038753509521484375</LatitudeDegrees>
              <LongitudeDegrees>-5.1799224503338336944580078125</LongitudeDegrees>
            </Position>
            <AltitudeMeters>41.799999237060546875</AltitudeMeters>
            <DistanceMeters>NAN</DistanceMeters>
          </Trackpoint>
          <Trackpoint>
            <Time>2022-07-17T10:01:49.000Z</Time>
            <Position>
              <LatitudeDegrees>43.4740294329822063446044921875</LatitudeDegrees>
              <LongitudeDegrees>-5.180007107555866241455078125</LongitudeDegrees>
            </Position>
            <AltitudeMeters>42.200000762939453125</AltitudeMeters>
            <DistanceMeters>NAN</DistanceMeters>
          </Trackpoint>
          <Trackpoint>
            <Time>2022-07-17T10:01:56.000Z</Time>
            <Position>
              <LatitudeDegrees>43.47402214072644710540771484375</LatitudeDegrees>
              <LongitudeDegrees>-5.18013660795986652374267578125</LongitudeDegrees>
            </Position>
            <AltitudeMeters>42.59999847412109375</AltitudeMeters>
            <DistanceMeters>NAN</DistanceMeters>
          </Trackpoint>
          <Trackpoint>
            <Time>2022-07-17T10:02:03.000Z</Time>
            <Position>
              <LatitudeDegrees>43.4739905409514904022216796875</LatitudeDegrees>
              <LongitudeDegrees>-5.18026116304099559783935546875</LongitudeDegrees>
            </Position>
            <AltitudeMeters>43.200000762939453125</AltitudeMeters>
            <DistanceMeters>NAN</DistanceMeters>
          </Trackpoint>
          <Trackpoint>
            <Time>2022-07-17T10:02:06.000Z</Time>
            <Position>
              <LatitudeDegrees>43.47397738136351108551025390625</LatitudeDegrees>
              <LongitudeDegrees>-5.18031162209808826446533203125</LongitudeDegrees>
            </Position>
            <AltitudeMeters>43.40000152587890625</AltitudeMeters>
            <DistanceMeters>NAN</DistanceMeters>
          </Trackpoint>
          <Trackpoint>
            <Time>2022-07-17T10:02:07.000Z</Time>
            <Position>
              <LatitudeDegrees>43.47397402860224246978759765625</LatitudeDegrees>
              <LongitudeDegrees>-5.180324949324131011962890625</LongitudeDegrees>
            </Position>
            <AltitudeMeters>43.40000152587890625</AltitudeMeters>
            <DistanceMeters>NAN</DistanceMeters>
          </Trackpoint>
          <Trackpoint>
            <Time>2022-07-17T10:02:08.000Z</Time>
            <Position>
              <LatitudeDegrees>43.473966233432292938232421875</LatitudeDegrees>
              <LongitudeDegrees>-5.1803393661975860595703125</LongitudeDegrees>
            </Position>
            <AltitudeMeters>43.59999847412109375</AltitudeMeters>
            <DistanceMeters>NAN</DistanceMeters>
          </Trackpoint>
          <Trackpoint>
            <Time>2022-07-17T10:02:11.000Z</Time>
            <Position>
              <LatitudeDegrees>43.4739472903311252593994140625</LatitudeDegrees>
              <LongitudeDegrees>-5.18039368093013763427734375</LongitudeDegrees>
            </Position>
            <AltitudeMeters>43.59999847412109375</AltitudeMeters>
            <DistanceMeters>NAN</DistanceMeters>
          </Trackpoint>
          <Trackpoint>
            <Time>2022-07-17T10:02:16.000Z</Time>
            <Position>
              <LatitudeDegrees>43.4739368967711925506591796875</LatitudeDegrees>
              <LongitudeDegrees>-5.18049149774014949798583984375</LongitudeDegrees>
            </Position>
            <AltitudeMeters>44</AltitudeMeters>
            <DistanceMeters>NAN</DistanceMeters>
          </Trackpoint>
          <Trackpoint>
            <Time>2022-07-17T10:02:17.000Z</Time>
            <Position>
              <LatitudeDegrees>43.47393664531409740447998046875</LatitudeDegrees>
              <LongitudeDegrees>-5.1805125363171100616455078125</LongitudeDegrees>
            </Position>
            <AltitudeMeters>44.200000762939453125</AltitudeMeters>
            <DistanceMeters>NAN</DistanceMeters>
          </Trackpoint>
          <Trackpoint>
            <Time>2022-07-17T10:02:18.000Z</Time>
            <Position>
              <LatitudeDegrees>43.47393815405666828155517578125</LatitudeDegrees>
              <LongitudeDegrees>-5.180532149970531463623046875</LongitudeDegrees>
            </Position>
            <AltitudeMeters>44.200000762939453125</AltitudeMeters>
            <DistanceMeters>NAN</DistanceMeters>
          </Trackpoint>
          <Trackpoint>
            <Time>2022-07-17T10:02:23.000Z</Time>
            <Position>
              <LatitudeDegrees>43.4739397466182708740234375</LatitudeDegrees>
              <LongitudeDegrees>-5.18063901923596858978271484375</LongitudeDegrees>
            </Position>
            <AltitudeMeters>44.59999847412109375</AltitudeMeters>
            <DistanceMeters>NAN</DistanceMeters>
          </Trackpoint>
          <Trackpoint>
            <Time>2022-07-17T10:02:25.000Z</Time>
            <Position>
              <LatitudeDegrees>43.47395022399723529815673828125</LatitudeDegrees>
              <LongitudeDegrees>-5.180687047541141510009765625</LongitudeDegrees>
            </Position>
            <AltitudeMeters>44.799999237060546875</AltitudeMeters>
            <DistanceMeters>NAN</DistanceMeters>
          </Trackpoint>
          <Trackpoint>
            <Time>2022-07-17T10:02:30.000Z</Time>
            <Position>
              <LatitudeDegrees>43.4739640541374683380126953125</LatitudeDegrees>
              <LongitudeDegrees>-5.180784948170185089111328125</LongitudeDegrees>
            </Position>
            <AltitudeMeters>45</AltitudeMeters>
            <DistanceMeters>NAN</DistanceMeters>
          </Trackpoint>
          <Trackpoint>
            <Time>2022-07-17T10:02:36.000Z</Time>
            <Position>
              <LatitudeDegrees>43.473982326686382293701171875</LatitudeDegrees>
              <LongitudeDegrees>-5.18088796176016330718994140625</LongitudeDegrees>
            </Position>
            <AltitudeMeters>45.40000152587890625</AltitudeMeters>
            <DistanceMeters>NAN</DistanceMeters>
          </Trackpoint>
          <Trackpoint>
            <Time>2022-07-17T10:02:37.000Z</Time>
            <Position>
              <LatitudeDegrees>43.47398660145699977874755859375</LatitudeDegrees>
              <LongitudeDegrees>-5.1809031330049037933349609375</LongitudeDegrees>
            </Position>
            <AltitudeMeters>45.59999847412109375</AltitudeMeters>
            <DistanceMeters>NAN</DistanceMeters>
          </Trackpoint>
          <Trackpoint>
            <Time>2022-07-17T10:02:47.000Z</Time>
            <Position>
              <LatitudeDegrees>43.47404292784631252288818359375</LatitudeDegrees>
              <LongitudeDegrees>-5.18108929507434368133544921875</LongitudeDegrees>
            </Position>
            <AltitudeMeters>46.40000152587890625</AltitudeMeters>
            <DistanceMeters>NAN</DistanceMeters>
          </Trackpoint>
          <Trackpoint>
            <Time>2022-07-17T10:02:49.000Z</Time>
            <Position>
              <LatitudeDegrees>43.47404896281659603118896484375</LatitudeDegrees>
              <LongitudeDegrees>-5.18110890872776508331298828125</LongitudeDegrees>
            </Position>
            <AltitudeMeters>46.59999847412109375</AltitudeMeters>
            <DistanceMeters>NAN</DistanceMeters>
          </Trackpoint>
          <Trackpoint>
            <Time>2022-07-17T10:02:53.000Z</Time>
            <Position>
              <LatitudeDegrees>43.47407310269773006439208984375</LatitudeDegrees>
              <LongitudeDegrees>-5.18116003833711147308349609375</LongitudeDegrees>
            </Position>
            <AltitudeMeters>47</AltitudeMeters>
            <DistanceMeters>NAN</DistanceMeters>
          </Trackpoint>
          <Trackpoint>
            <Time>2022-07-17T10:02:56.000Z</Time>
            <Position>
              <LatitudeDegrees>43.4741005115211009979248046875</LatitudeDegrees>
              <LongitudeDegrees>-5.18119540996849536895751953125</LongitudeDegrees>
            </Position>
            <AltitudeMeters>47.200000762939453125</AltitudeMeters>
            <DistanceMeters>NAN</DistanceMeters>
          </Trackpoint>
          <Trackpoint>
            <Time>2022-07-17T10:02:59.000Z</Time>
            <Position>
              <LatitudeDegrees>43.474125154316425323486328125</LatitudeDegrees>
              <LongitudeDegrees>-5.1812380738556385040283203125</LongitudeDegrees>
            </Position>
            <AltitudeMeters>47.40000152587890625</AltitudeMeters>
            <DistanceMeters>NAN</DistanceMeters>
          </Trackpoint>
          <Trackpoint>
            <Time>2022-07-17T10:03:01.000Z</Time>
            <Position>
              <LatitudeDegrees>43.4741363860666751861572265625</LatitudeDegrees>
              <LongitudeDegrees>-5.1812591962516307830810546875</LongitudeDegrees>
            </Position>
            <AltitudeMeters>47.59999847412109375</AltitudeMeters>
            <DistanceMeters>NAN</DistanceMeters>
          </Trackpoint>
          <Trackpoint>
            <Time>2022-07-17T10:03:02.000Z</Time>
            <Position>
              <LatitudeDegrees>43.4741404093801975250244140625</LatitudeDegrees>
              <LongitudeDegrees>-5.1812762953341007232666015625</LongitudeDegrees>
            </Position>
            <AltitudeMeters>47.59999847412109375</AltitudeMeters>
            <DistanceMeters>NAN</DistanceMeters>
          </Trackpoint>
          <Trackpoint>
            <Time>2022-07-17T10:03:03.000Z</Time>
            <Position>
              <LatitudeDegrees>43.47414426505565643310546875</LatitudeDegrees>
              <LongitudeDegrees>-5.18129029311239719390869140625</LongitudeDegrees>
            </Position>
            <AltitudeMeters>47.59999847412109375</AltitudeMeters>
            <DistanceMeters>NAN</DistanceMeters>
          </Trackpoint>
          <Trackpoint>
            <Time>2022-07-17T10:03:04.000Z</Time>
            <Position>
              <LatitudeDegrees>43.474149294197559356689453125</LatitudeDegrees>
              <LongitudeDegrees>-5.18130236305296421051025390625</LongitudeDegrees>
            </Position>
            <AltitudeMeters>47.59999847412109375</AltitudeMeters>
            <DistanceMeters>NAN</DistanceMeters>
          </Trackpoint>
          <Trackpoint>
            <Time>2022-07-17T10:03:06.000Z</Time>
            <Position>
              <LatitudeDegrees>43.47416798584163188934326171875</LatitudeDegrees>
              <LongitudeDegrees>-5.18132817931473255157470703125</LongitudeDegrees>
            </Position>
            <AltitudeMeters>47.799999237060546875</AltitudeMeters>
            <DistanceMeters>NAN</DistanceMeters>
          </Trackpoint>
          <Trackpoint>
            <Time>2022-07-17T10:03:07.000Z</Time>
            <Position>
              <LatitudeDegrees>43.47417569719254970550537109375</LatitudeDegrees>
              <LongitudeDegrees>-5.18134544603526592254638671875</LongitudeDegrees>
            </Position>
            <AltitudeMeters>48</AltitudeMeters>
            <DistanceMeters>NAN</DistanceMeters>
          </Trackpoint>
          <Trackpoint>
            <Time>2022-07-17T10:03:16.000Z</Time>
            <Position>
              <LatitudeDegrees>43.47422473132610321044921875</LatitudeDegrees>
              <LongitudeDegrees>-5.1815096475183963775634765625</LongitudeDegrees>
            </Position>
            <AltitudeMeters>48.59999847412109375</AltitudeMeters>
            <DistanceMeters>NAN</DistanceMeters>
          </Trackpoint>
          <Trackpoint>
            <Time>2022-07-17T10:03:19.000Z</Time>
            <Position>
              <LatitudeDegrees>43.474227078258991241455078125</LatitudeDegrees>
              <LongitudeDegrees>-5.1815720088779926300048828125</LongitudeDegrees>
            </Position>
            <AltitudeMeters>48.59999847412109375</AltitudeMeters>
            <DistanceMeters>NAN</DistanceMeters>
          </Trackpoint>
          <Trackpoint>
            <Time>2022-07-17T10:03:24.000Z</Time>
            <Position>
              <LatitudeDegrees>43.47422632388770580291748046875</LatitudeDegrees>
              <LongitudeDegrees>-5.181676112115383148193359375</LongitudeDegrees>
            </Position>
            <AltitudeMeters>49</AltitudeMeters>
            <DistanceMeters>NAN</DistanceMeters>
          </Trackpoint>
          <Trackpoint>
            <Time>2022-07-17T10:03:31.000Z</Time>
            <Position>
              <LatitudeDegrees>43.474206626415252685546875</LatitudeDegrees>
              <LongitudeDegrees>-5.18181181512773036956787109375</LongitudeDegrees>
            </Position>
            <AltitudeMeters>49.799999237060546875</AltitudeMeters>
            <DistanceMeters>NAN</DistanceMeters>
          </Trackpoint>
          <Trackpoint>
            <Time>2022-07-17T10:03:34.000Z</Time>
            <Position>
              <LatitudeDegrees>43.4741960652172565460205078125</LatitudeDegrees>
              <LongitudeDegrees>-5.18187635578215122222900390625</LongitudeDegrees>
            </Position>
            <AltitudeMeters>49.799999237060546875</AltitudeMeters>
            <DistanceMeters>NAN</DistanceMeters>
          </Trackpoint>
          <Trackpoint>
            <Time>2022-07-17T10:03:42.000Z</Time>
            <Position>
              <LatitudeDegrees>43.4741679020226001739501953125</LatitudeDegrees>
              <LongitudeDegrees>-5.18202002160251140594482421875</LongitudeDegrees>
            </Position>
            <AltitudeMeters>50.59999847412109375</AltitudeMeters>
            <DistanceMeters>NAN</DistanceMeters>
          </Trackpoint>
          <Trackpoint>
            <Time>2022-07-17T10:03:44.000Z</Time>
            <Position>
              <LatitudeDegrees>43.47416144795715808868408203125</LatitudeDegrees>
              <LongitudeDegrees>-5.182056315243244171142578125</LongitudeDegrees>
            </Position>
            <AltitudeMeters>50.799999237060546875</AltitudeMeters>
            <DistanceMeters>NAN</DistanceMeters>
          </Trackpoint>
          <Trackpoint>
            <Time>2022-07-17T10:03:46.000Z</Time>
            <Position>
              <LatitudeDegrees>43.4741534851491451263427734375</LatitudeDegrees>
              <LongitudeDegrees>-5.18208405934274196624755859375</LongitudeDegrees>
            </Position>
            <AltitudeMeters>50.799999237060546875</AltitudeMeters>
            <DistanceMeters>NAN</DistanceMeters>
          </Trackpoint>
          <Trackpoint>
            <Time>2022-07-17T10:03:50.000Z</Time>
            <Position>
              <LatitudeDegrees>43.4741383977234363555908203125</LatitudeDegrees>
              <LongitudeDegrees>-5.18216167576611042022705078125</LongitudeDegrees>
            </Position>
            <AltitudeMeters>51.200000762939453125</AltitudeMeters>
            <DistanceMeters>NAN</DistanceMeters>
          </Trackpoint>
          <Trackpoint>
            <Time>2022-07-17T10:03:55.000Z</Time>
            <Position>
              <LatitudeDegrees>43.47416882403194904327392578125</LatitudeDegrees>
              <LongitudeDegrees>-5.18229042179882526397705078125</LongitudeDegrees>
            </Position>
            <AltitudeMeters>51.40000152587890625</AltitudeMeters>
            <DistanceMeters>NAN</DistanceMeters>
          </Trackpoint>
          <Trackpoint>
            <Time>2022-07-17T10:03:56.000Z</Time>
            <Position>
              <LatitudeDegrees>43.4741771221160888671875</LatitudeDegrees>
              <LongitudeDegrees>-5.1823263801634311676025390625</LongitudeDegrees>
            </Position>
            <AltitudeMeters>51.40000152587890625</AltitudeMeters>
            <DistanceMeters>NAN</DistanceMeters>
          </Trackpoint>
          <Trackpoint>
            <Time>2022-07-17T10:04:02.000Z</Time>
            <Position>
              <LatitudeDegrees>43.47424392588436603546142578125</LatitudeDegrees>
              <LongitudeDegrees>-5.1824977062642574310302734375</LongitudeDegrees>
            </Position>
            <AltitudeMeters>50.799999237060546875</AltitudeMeters>
            <DistanceMeters>NAN</DistanceMeters>
          </Trackpoint>
          <Trackpoint>
            <Time>2022-07-17T10:04:03.000Z</Time>
            <Position>
              <LatitudeDegrees>43.47425163723528385162353515625</LatitudeDegrees>
              <LongitudeDegrees>-5.182525031268596649169921875</LongitudeDegrees>
            </Position>
            <AltitudeMeters>50.799999237060546875</AltitudeMeters>
            <DistanceMeters>NAN</DistanceMeters>
          </Trackpoint>
          <Trackpoint>
            <Time>2022-07-17T10:04:05.000Z</Time>
            <Position>
              <LatitudeDegrees>43.47426940687000751495361328125</LatitudeDegrees>
              <LongitudeDegrees>-5.18257725052535533905029296875</LongitudeDegrees>
            </Position>
            <AltitudeMeters>50.799999237060546875</AltitudeMeters>
            <DistanceMeters>NAN</DistanceMeters>
          </Trackpoint>
          <Trackpoint>
            <Time>2022-07-17T10:04:12.000Z</Time>
            <Position>
              <LatitudeDegrees>43.47434199415147304534912109375</LatitudeDegrees>
              <LongitudeDegrees>-5.18277791328728199005126953125</LongitudeDegrees>
            </Position>
            <AltitudeMeters>50.799999237060546875</AltitudeMeters>
            <DistanceMeters>NAN</DistanceMeters>
          </Trackpoint>
          <Trackpoint>
            <Time>2022-07-17T10:04:20.000Z</Time>
            <Position>
              <LatitudeDegrees>43.47442782483994960784912109375</LatitudeDegrees>
              <LongitudeDegrees>-5.18298863433301448822021484375</LongitudeDegrees>
            </Position>
            <AltitudeMeters>50.59999847412109375</AltitudeMeters>
            <DistanceMeters>NAN</DistanceMeters>
          </Trackpoint>
          <Trackpoint>
            <Time>2022-07-17T10:04:23.000Z</Time>
            <Position>
              <LatitudeDegrees>43.474458418786525726318359375</LatitudeDegrees>
              <LongitudeDegrees>-5.18309592269361019134521484375</LongitudeDegrees>
            </Position>
            <AltitudeMeters>50.59999847412109375</AltitudeMeters>
            <DistanceMeters>NAN</DistanceMeters>
          </Trackpoint>
          <Trackpoint>
            <Time>2022-07-17T10:04:28.000Z</Time>
            <Position>
              <LatitudeDegrees>43.4745239652693271636962890625</LatitudeDegrees>
              <LongitudeDegrees>-5.18326372839510440826416015625</LongitudeDegrees>
            </Position>
            <AltitudeMeters>50.40000152587890625</AltitudeMeters>
            <DistanceMeters>NAN</DistanceMeters>
          </Trackpoint>
          <Trackpoint>
            <Time>2022-07-17T10:04:35.000Z</Time>
            <Position>
              <LatitudeDegrees>43.4745729155838489532470703125</LatitudeDegrees>
              <LongitudeDegrees>-5.183555670082569122314453125</LongitudeDegrees>
            </Position>
            <AltitudeMeters>50.200000762939453125</AltitudeMeters>
            <DistanceMeters>NAN</DistanceMeters>
          </Trackpoint>
          <Trackpoint>
            <Time>2022-07-17T10:04:38.000Z</Time>
            <Position>
              <LatitudeDegrees>43.47456461749970912933349609375</LatitudeDegrees>
              <LongitudeDegrees>-5.18370696343481540679931640625</LongitudeDegrees>
            </Position>
            <AltitudeMeters>49.59999847412109375</AltitudeMeters>
            <DistanceMeters>NAN</DistanceMeters>
          </Trackpoint>
          <Trackpoint>
            <Time>2022-07-17T10:04:42.000Z</Time>
            <Position>
              <LatitudeDegrees>43.47455061972141265869140625</LatitudeDegrees>
              <LongitudeDegrees>-5.18391483463346958160400390625</LongitudeDegrees>
            </Position>
            <AltitudeMeters>48.799999237060546875</AltitudeMeters>
            <DistanceMeters>NAN</DistanceMeters>
          </Trackpoint>
          <Trackpoint>
            <Time>2022-07-17T10:04:45.000Z</Time>
            <Position>
              <LatitudeDegrees>43.47453125752508640289306640625</LatitudeDegrees>
              <LongitudeDegrees>-5.18407409079372882843017578125</LongitudeDegrees>
            </Position>
            <AltitudeMeters>48.40000152587890625</AltitudeMeters>
            <DistanceMeters>NAN</DistanceMeters>
          </Trackpoint>
          <Trackpoint>
            <Time>2022-07-17T10:04:49.000Z</Time>
            <Position>
              <LatitudeDegrees>43.4744988195598125457763671875</LatitudeDegrees>
              <LongitudeDegrees>-5.18425497226417064666748046875</LongitudeDegrees>
            </Position>
            <AltitudeMeters>48.200000762939453125</AltitudeMeters>
            <DistanceMeters>NAN</DistanceMeters>
          </Trackpoint>
          <Trackpoint>
            <Time>2022-07-17T10:04:50.000Z</Time>
            <Position>
              <LatitudeDegrees>43.4744776971638202667236328125</LatitudeDegrees>
              <LongitudeDegrees>-5.184277854859828948974609375</LongitudeDegrees>
            </Position>
            <AltitudeMeters>48</AltitudeMeters>
            <DistanceMeters>NAN</DistanceMeters>
          </Trackpoint>
          <Trackpoint>
            <Time>2022-07-17T10:04:54.000Z</Time>
            <Position>
              <LatitudeDegrees>43.47442455589771270751953125</LatitudeDegrees>
              <LongitudeDegrees>-5.18432387150824069976806640625</LongitudeDegrees>
            </Position>
            <AltitudeMeters>48.59999847412109375</AltitudeMeters>
            <DistanceMeters>NAN</DistanceMeters>
          </Trackpoint>
          <Trackpoint>
            <Time>2022-07-17T10:04:57.000Z</Time>
            <Position>
              <LatitudeDegrees>43.47440284676849842071533203125</LatitudeDegrees>
              <LongitudeDegrees>-5.1843765936791896820068359375</LongitudeDegrees>
            </Position>
            <AltitudeMeters>49.200000762939453125</AltitudeMeters>
            <DistanceMeters>NAN</DistanceMeters>
          </Trackpoint>
          <Trackpoint>
            <Time>2022-07-17T10:05:00.000Z</Time>
            <Position>
              <LatitudeDegrees>43.47437585704028606414794921875</LatitudeDegrees>
              <LongitudeDegrees>-5.1844185031950473785400390625</LongitudeDegrees>
            </Position>
            <AltitudeMeters>49.59999847412109375</AltitudeMeters>
            <DistanceMeters>NAN</DistanceMeters>
          </Trackpoint>
          <Trackpoint>
            <Time>2022-07-17T10:05:05.000Z</Time>
            <Position>
              <LatitudeDegrees>43.4743125736713409423828125</LatitudeDegrees>
              <LongitudeDegrees>-5.18448815681040287017822265625</LongitudeDegrees>
            </Position>
            <AltitudeMeters>50.799999237060546875</AltitudeMeters>
            <DistanceMeters>NAN</DistanceMeters>
          </Trackpoint>
          <Trackpoint>
            <Time>2022-07-17T10:05:07.000Z</Time>
            <Position>
              <LatitudeDegrees>43.47428885288536548614501953125</LatitudeDegrees>
              <LongitudeDegrees>-5.18451581709086894989013671875</LongitudeDegrees>
            </Position>
            <AltitudeMeters>51</AltitudeMeters>
            <DistanceMeters>NAN</DistanceMeters>
          </Trackpoint>
          <Trackpoint>
            <Time>2022-07-17T10:05:10.000Z</Time>
            <Position>
              <LatitudeDegrees>43.47426353953778743743896484375</LatitudeDegrees>
              <LongitudeDegrees>-5.18455873243510723114013671875</LongitudeDegrees>
            </Position>
            <AltitudeMeters>51.200000762939453125</AltitudeMeters>
            <DistanceMeters>NAN</DistanceMeters>
          </Trackpoint>
          <Trackpoint>
            <Time>2022-07-17T10:05:13.000Z</Time>
            <Position>
              <LatitudeDegrees>43.47423411905765533447265625</LatitudeDegrees>
              <LongitudeDegrees>-5.1845958642661571502685546875</LongitudeDegrees>
            </Position>
            <AltitudeMeters>51.799999237060546875</AltitudeMeters>
            <DistanceMeters>NAN</DistanceMeters>
          </Trackpoint>
          <Trackpoint>
            <Time>2022-07-17T10:05:15.000Z</Time>
            <Position>
              <LatitudeDegrees>43.474217019975185394287109375</LatitudeDegrees>
              <LongitudeDegrees>-5.1846223510801792144775390625</LongitudeDegrees>
            </Position>
            <AltitudeMeters>52</AltitudeMeters>
            <DistanceMeters>NAN</DistanceMeters>
          </Trackpoint>
          <Trackpoint>
            <Time>2022-07-17T10:05:19.000Z</Time>
            <Position>
              <LatitudeDegrees>43.4742041118443012237548828125</LatitudeDegrees>
              <LongitudeDegrees>-5.184693597257137298583984375</LongitudeDegrees>
            </Position>
            <AltitudeMeters>52.59999847412109375</AltitudeMeters>
            <DistanceMeters>NAN</DistanceMeters>
          </Trackpoint>
          <Trackpoint>
            <Time>2022-07-17T10:05:21.000Z</Time>
            <Position>
              <LatitudeDegrees>43.47423571161925792694091796875</LatitudeDegrees>
              <LongitudeDegrees>-5.1847333274781703948974609375</LongitudeDegrees>
            </Position>
            <AltitudeMeters>52.799999237060546875</AltitudeMeters>
            <DistanceMeters>NAN</DistanceMeters>
          </Trackpoint>
          <Trackpoint>
            <Time>2022-07-17T10:05:26.000Z</Time>
            <Position>
              <LatitudeDegrees>43.47436127252876758575439453125</LatitudeDegrees>
              <LongitudeDegrees>-5.184883363544940948486328125</LongitudeDegrees>
            </Position>
            <AltitudeMeters>52.200000762939453125</AltitudeMeters>
            <DistanceMeters>NAN</DistanceMeters>
          </Trackpoint>
          <Trackpoint>
            <Time>2022-07-17T10:05:31.000Z</Time>
            <Position>
              <LatitudeDegrees>43.47443855367600917816162109375</LatitudeDegrees>
              <LongitudeDegrees>-5.184981934726238250732421875</LongitudeDegrees>
            </Position>
            <AltitudeMeters>51.799999237060546875</AltitudeMeters>
            <DistanceMeters>NAN</DistanceMeters>
          </Trackpoint>
          <Trackpoint>
            <Time>2022-07-17T10:05:39.000Z</Time>
            <Position>
              <LatitudeDegrees>43.47455103881657123565673828125</LatitudeDegrees>
              <LongitudeDegrees>-5.18513121642172336578369140625</LongitudeDegrees>
            </Position>
            <AltitudeMeters>52.200000762939453125</AltitudeMeters>
            <DistanceMeters>NAN</DistanceMeters>
          </Trackpoint>
          <Trackpoint>
            <Time>2022-07-17T10:05:44.000Z</Time>
            <Position>
              <LatitudeDegrees>43.474638126790523529052734375</LatitudeDegrees>
              <LongitudeDegrees>-5.18529005348682403564453125</LongitudeDegrees>
            </Position>
            <AltitudeMeters>52</AltitudeMeters>
            <DistanceMeters>NAN</DistanceMeters>
          </Trackpoint>
          <Trackpoint>
            <Time>2022-07-17T10:05:52.000Z</Time>
            <Position>
              <LatitudeDegrees>43.47472764551639556884765625</LatitudeDegrees>
              <LongitudeDegrees>-5.18551343120634555816650390625</LongitudeDegrees>
            </Position>
            <AltitudeMeters>52</AltitudeMeters>
            <DistanceMeters>NAN</DistanceMeters>
          </Trackpoint>
          <Trackpoint>
            <Time>2022-07-17T10:05:57.000Z</Time>
            <Position>
              <LatitudeDegrees>43.47478137351572513580322265625</LatitudeDegrees>
              <LongitudeDegrees>-5.18561267293989658355712890625</LongitudeDegrees>
            </Position>
            <AltitudeMeters>52.200000762939453125</AltitudeMeters>
            <DistanceMeters>NAN</DistanceMeters>
          </Trackpoint>
          <Trackpoint>
            <Time>2022-07-17T10:06:00.000Z</Time>
            <Position>
              <LatitudeDegrees>43.4748123027384281158447265625</LatitudeDegrees>
              <LongitudeDegrees>-5.185668580234050750732421875</LongitudeDegrees>
            </Position>
            <AltitudeMeters>52.59999847412109375</AltitudeMeters>
            <DistanceMeters>NAN</DistanceMeters>
          </Trackpoint>
          <Trackpoint>
            <Time>2022-07-17T10:06:03.000Z</Time>
            <Position>
              <LatitudeDegrees>43.474841974675655364990234375</LatitudeDegrees>
              <LongitudeDegrees>-5.1857203803956508636474609375</LongitudeDegrees>
            </Position>
            <AltitudeMeters>53</AltitudeMeters>
            <DistanceMeters>NAN</DistanceMeters>
          </Trackpoint>
          <Trackpoint>
            <Time>2022-07-17T10:06:08.000Z</Time>
            <Position>
              <LatitudeDegrees>43.47487675957381725311279296875</LatitudeDegrees>
              <LongitudeDegrees>-5.185789279639720916748046875</LongitudeDegrees>
            </Position>
            <AltitudeMeters>53.799999237060546875</AltitudeMeters>
            <DistanceMeters>NAN</DistanceMeters>
          </Trackpoint>
          <Trackpoint>
            <Time>2022-07-17T10:06:09.000Z</Time>
            <Position>
              <LatitudeDegrees>43.47488329745829105377197265625</LatitudeDegrees>
              <LongitudeDegrees>-5.185807384550571441650390625</LongitudeDegrees>
            </Position>
            <AltitudeMeters>54</AltitudeMeters>
            <DistanceMeters>NAN</DistanceMeters>
          </Trackpoint>
          <Trackpoint>
            <Time>2022-07-17T10:06:14.000Z</Time>
            <Position>
              <LatitudeDegrees>43.4749356843531131744384765625</LatitudeDegrees>
              <LongitudeDegrees>-5.18586697988212108612060546875</LongitudeDegrees>
            </Position>
            <AltitudeMeters>55.200000762939453125</AltitudeMeters>
            <DistanceMeters>NAN</DistanceMeters>
          </Trackpoint>
          <Trackpoint>
            <Time>2022-07-17T10:06:16.000Z</Time>
            <Position>
              <LatitudeDegrees>43.4749581478536128997802734375</LatitudeDegrees>
              <LongitudeDegrees>-5.18589229322969913482666015625</LongitudeDegrees>
            </Position>
            <AltitudeMeters>55.59999847412109375</AltitudeMeters>
            <DistanceMeters>NAN</DistanceMeters>
          </Trackpoint>
          <Trackpoint>
            <Time>2022-07-17T10:06:20.000Z</Time>
            <Position>
              <LatitudeDegrees>43.47499184310436248779296875</LatitudeDegrees>
              <LongitudeDegrees>-5.185946524143218994140625</LongitudeDegrees>
            </Position>
            <AltitudeMeters>56.200000762939453125</AltitudeMeters>
            <DistanceMeters>NAN</DistanceMeters>
          </Trackpoint>
          <Trackpoint>
            <Time>2022-07-17T10:06:26.000Z</Time>
            <Position>
              <LatitudeDegrees>43.475035764276981353759765625</LatitudeDegrees>
              <LongitudeDegrees>-5.18604517914354801177978515625</LongitudeDegrees>
            </Position>
            <AltitudeMeters>57</AltitudeMeters>
            <DistanceMeters>NAN</DistanceMeters>
          </Trackpoint>
          <Trackpoint>
            <Time>2022-07-17T10:06:28.000Z</Time>
            <Position>
              <LatitudeDegrees>43.47504892386496067047119140625</LatitudeDegrees>
              <LongitudeDegrees>-5.18607485108077526092529296875</LongitudeDegrees>
            </Position>
            <AltitudeMeters>57.40000152587890625</AltitudeMeters>
            <DistanceMeters>NAN</DistanceMeters>
          </Trackpoint>
          <Trackpoint>
            <Time>2022-07-17T10:06:34.000Z</Time>
            <Position>
              <LatitudeDegrees>43.4750882349908351898193359375</LatitudeDegrees>
              <LongitudeDegrees>-5.18618280999362468719482421875</LongitudeDegrees>
            </Position>
            <AltitudeMeters>58</AltitudeMeters>
            <DistanceMeters>NAN</DistanceMeters>
          </Trackpoint>
          <Trackpoint>
            <Time>2022-07-17T10:06:38.000Z</Time>
            <Position>
              <LatitudeDegrees>43.47512058913707733154296875</LatitudeDegrees>
              <LongitudeDegrees>-5.18623041920363903045654296875</LongitudeDegrees>
            </Position>
            <AltitudeMeters>58.40000152587890625</AltitudeMeters>
            <DistanceMeters>NAN</DistanceMeters>
          </Trackpoint>
          <Trackpoint>
            <Time>2022-07-17T10:06:41.000Z</Time>
            <Position>
              <LatitudeDegrees>43.475147075951099395751953125</LatitudeDegrees>
              <LongitudeDegrees>-5.18628205172717571258544921875</LongitudeDegrees>
            </Position>
            <AltitudeMeters>58.799999237060546875</AltitudeMeters>
            <DistanceMeters>NAN</DistanceMeters>
          </Trackpoint>
          <Trackpoint>
            <Time>2022-07-17T10:06:46.000Z</Time>
            <Position>
              <LatitudeDegrees>43.47518387250602245330810546875</LatitudeDegrees>
              <LongitudeDegrees>-5.18638246692717075347900390625</LongitudeDegrees>
            </Position>
            <AltitudeMeters>59</AltitudeMeters>
            <DistanceMeters>NAN</DistanceMeters>
          </Trackpoint>
          <Trackpoint>
            <Time>2022-07-17T10:06:50.000Z</Time>
            <Position>
              <LatitudeDegrees>43.4752002172172069549560546875</LatitudeDegrees>
              <LongitudeDegrees>-5.1864690519869327545166015625</LongitudeDegrees>
            </Position>
            <AltitudeMeters>59.200000762939453125</AltitudeMeters>
            <DistanceMeters>NAN</DistanceMeters>
          </Trackpoint>
          <Trackpoint>
            <Time>2022-07-17T10:06:56.000Z</Time>
            <Position>
              <LatitudeDegrees>43.47520281560719013214111328125</LatitudeDegrees>
              <LongitudeDegrees>-5.1865414716303348541259765625</LongitudeDegrees>
            </Position>
            <AltitudeMeters>59.200000762939453125</AltitudeMeters>
            <DistanceMeters>NAN</DistanceMeters>
          </Trackpoint>
          <Trackpoint>
            <Time>2022-07-17T10:07:17.000Z</Time>
            <Position>
              <LatitudeDegrees>43.475223518908023834228515625</LatitudeDegrees>
              <LongitudeDegrees>-5.18661716021597385406494140625</LongitudeDegrees>
            </Position>
            <AltitudeMeters>59</AltitudeMeters>
            <DistanceMeters>NAN</DistanceMeters>
          </Trackpoint>
          <Trackpoint>
            <Time>2022-07-17T10:07:18.000Z</Time>
            <Position>
              <LatitudeDegrees>43.4752434678375720977783203125</LatitudeDegrees>
              <LongitudeDegrees>-5.18662939779460430145263671875</LongitudeDegrees>
            </Position>
            <AltitudeMeters>59</AltitudeMeters>
            <DistanceMeters>NAN</DistanceMeters>
          </Trackpoint>
          <Trackpoint>
            <Time>2022-07-17T10:07:22.000Z</Time>
            <Position>
              <LatitudeDegrees>43.47529920749366283416748046875</LatitudeDegrees>
              <LongitudeDegrees>-5.18667499534785747528076171875</LongitudeDegrees>
            </Position>
            <AltitudeMeters>58</AltitudeMeters>
            <DistanceMeters>NAN</DistanceMeters>
          </Trackpoint>
          <Trackpoint>
            <Time>2022-07-17T10:07:24.000Z</Time>
            <Position>
              <LatitudeDegrees>43.47533457912504673004150390625</LatitudeDegrees>
              <LongitudeDegrees>-5.18672176636755466461181640625</LongitudeDegrees>
            </Position>
            <AltitudeMeters>57.59999847412109375</AltitudeMeters>
            <DistanceMeters>NAN</DistanceMeters>
          </Trackpoint>
          <Trackpoint>
            <Time>2022-07-17T10:07:25.000Z</Time>
            <Position>
              <LatitudeDegrees>43.47535234875977039337158203125</LatitudeDegrees>
              <LongitudeDegrees>-5.186747498810291290283203125</LongitudeDegrees>
            </Position>
            <AltitudeMeters>57.40000152587890625</AltitudeMeters>
            <DistanceMeters>NAN</DistanceMeters>
          </Trackpoint>
          <Trackpoint>
            <Time>2022-07-17T10:07:28.000Z</Time>
            <Position>
              <LatitudeDegrees>43.47539409063756465911865234375</LatitudeDegrees>
              <LongitudeDegrees>-5.1868383586406707763671875</LongitudeDegrees>
            </Position>
            <AltitudeMeters>56.40000152587890625</AltitudeMeters>
            <DistanceMeters>NAN</DistanceMeters>
          </Trackpoint>
          <Trackpoint>
            <Time>2022-07-17T10:07:29.000Z</Time>
            <Position>
              <LatitudeDegrees>43.47540850751101970672607421875</LatitudeDegrees>
              <LongitudeDegrees>-5.1868670247495174407958984375</LongitudeDegrees>
            </Position>
            <AltitudeMeters>56</AltitudeMeters>
            <DistanceMeters>NAN</DistanceMeters>
          </Trackpoint>
          <Trackpoint>
            <Time>2022-07-17T10:07:31.000Z</Time>
            <Position>
              <LatitudeDegrees>43.4754419513046741485595703125</LatitudeDegrees>
              <LongitudeDegrees>-5.186912454664707183837890625</LongitudeDegrees>
            </Position>
            <AltitudeMeters>55.200000762939453125</AltitudeMeters>
            <DistanceMeters>NAN</DistanceMeters>
          </Trackpoint>
          <Trackpoint>
            <Time>2022-07-17T10:07:32.000Z</Time>
            <Position>
              <LatitudeDegrees>43.47544689662754535675048828125</LatitudeDegrees>
              <LongitudeDegrees>-5.186937935650348663330078125</LongitudeDegrees>
            </Position>
            <AltitudeMeters>54.799999237060546875</AltitudeMeters>
            <DistanceMeters>NAN</DistanceMeters>
          </Trackpoint>
          <Trackpoint>
            <Time>2022-07-17T10:07:33.000Z</Time>
            <Position>
              <LatitudeDegrees>43.475445471704006195068359375</LatitudeDegrees>
              <LongitudeDegrees>-5.1869733072817325592041015625</LongitudeDegrees>
            </Position>
            <AltitudeMeters>54.200000762939453125</AltitudeMeters>
            <DistanceMeters>NAN</DistanceMeters>
          </Trackpoint>
          <Trackpoint>
            <Time>2022-07-17T10:07:34.000Z</Time>
            <Position>
              <LatitudeDegrees>43.47544245421886444091796875</LatitudeDegrees>
              <LongitudeDegrees>-5.1870132051408290863037109375</LongitudeDegrees>
            </Position>
            <AltitudeMeters>54</AltitudeMeters>
            <DistanceMeters>NAN</DistanceMeters>
          </Trackpoint>
          <Trackpoint>
            <Time>2022-07-17T10:07:40.000Z</Time>
            <Position>
              <LatitudeDegrees>43.47537598572671413421630859375</LatitudeDegrees>
              <LongitudeDegrees>-5.18726374022662639617919921875</LongitudeDegrees>
            </Position>
            <AltitudeMeters>53.40000152587890625</AltitudeMeters>
            <DistanceMeters>NAN</DistanceMeters>
          </Trackpoint>
          <Trackpoint>
            <Time>2022-07-17T10:07:47.000Z</Time>
            <Position>
              <LatitudeDegrees>43.475319407880306243896484375</LatitudeDegrees>
              <LongitudeDegrees>-5.18760220147669315338134765625</LongitudeDegrees>
            </Position>
            <AltitudeMeters>53.40000152587890625</AltitudeMeters>
            <DistanceMeters>NAN</DistanceMeters>
          </Trackpoint>
          <Trackpoint>
            <Time>2022-07-17T10:07:51.000Z</Time>
            <Position>
              <LatitudeDegrees>43.47531563602387905120849609375</LatitudeDegrees>
              <LongitudeDegrees>-5.18786958418786525726318359375</LongitudeDegrees>
            </Position>
            <AltitudeMeters>53</AltitudeMeters>
            <DistanceMeters>NAN</DistanceMeters>
          </Trackpoint>
          <Trackpoint>
            <Time>2022-07-17T10:07:53.000Z</Time>
            <Position>
              <LatitudeDegrees>43.47531764768064022064208984375</LatitudeDegrees>
              <LongitudeDegrees>-5.187995731830596923828125</LongitudeDegrees>
            </Position>
            <AltitudeMeters>52.40000152587890625</AltitudeMeters>
            <DistanceMeters>NAN</DistanceMeters>
          </Trackpoint>
          <Trackpoint>
            <Time>2022-07-17T10:07:57.000Z</Time>
            <Position>
              <LatitudeDegrees>43.47533793188631534576416015625</LatitudeDegrees>
              <LongitudeDegrees>-5.18822849728167057037353515625</LongitudeDegrees>
            </Position>
            <AltitudeMeters>52</AltitudeMeters>
            <DistanceMeters>NAN</DistanceMeters>
          </Trackpoint>
          <Trackpoint>
            <Time>2022-07-17T10:07:59.000Z</Time>
            <Position>
              <LatitudeDegrees>43.47535016946494579315185546875</LatitudeDegrees>
              <LongitudeDegrees>-5.18829488195478916168212890625</LongitudeDegrees>
            </Position>
            <AltitudeMeters>52</AltitudeMeters>
            <DistanceMeters>NAN</DistanceMeters>
          </Trackpoint>
          <Trackpoint>
            <Time>2022-07-17T10:08:00.000Z</Time>
            <Position>
              <LatitudeDegrees>43.4753463976085186004638671875</LatitudeDegrees>
              <LongitudeDegrees>-5.18832438625395298004150390625</LongitudeDegrees>
            </Position>
            <AltitudeMeters>51.59999847412109375</AltitudeMeters>
            <DistanceMeters>NAN</DistanceMeters>
          </Trackpoint>
          <Trackpoint>
            <Time>2022-07-17T10:08:01.000Z</Time>
            <Position>
              <LatitudeDegrees>43.47533776424825191497802734375</LatitudeDegrees>
              <LongitudeDegrees>-5.18835070542991161346435546875</LongitudeDegrees>
            </Position>
            <AltitudeMeters>51.59999847412109375</AltitudeMeters>
            <DistanceMeters>NAN</DistanceMeters>
          </Trackpoint>
          <Trackpoint>
            <Time>2022-07-17T10:08:04.000Z</Time>
            <Position>
              <LatitudeDegrees>43.47529015503823757171630859375</LatitudeDegrees>
              <LongitudeDegrees>-5.18842346034944057464599609375</LongitudeDegrees>
            </Position>
            <AltitudeMeters>51.40000152587890625</AltitudeMeters>
            <DistanceMeters>NAN</DistanceMeters>
          </Trackpoint>
          <Trackpoint>
            <Time>2022-07-17T10:08:09.000Z</Time>
            <Position>
              <LatitudeDegrees>43.4751904942095279693603515625</LatitudeDegrees>
              <LongitudeDegrees>-5.18851515837013721466064453125</LongitudeDegrees>
            </Position>
            <AltitudeMeters>52.40000152587890625</AltitudeMeters>
            <DistanceMeters>NAN</DistanceMeters>
          </Trackpoint>
          <Trackpoint>
            <Time>2022-07-17T10:08:10.000Z</Time>
            <Position>
              <LatitudeDegrees>43.4751784242689609527587890625</LatitudeDegrees>
              <LongitudeDegrees>-5.1885447464883327484130859375</LongitudeDegrees>
            </Position>
            <AltitudeMeters>52.59999847412109375</AltitudeMeters>
            <DistanceMeters>NAN</DistanceMeters>
          </Trackpoint>
          <Trackpoint>
            <Time>2022-07-17T10:08:12.000Z</Time>
            <Position>
              <LatitudeDegrees>43.47516878508031368255615234375</LatitudeDegrees>
              <LongitudeDegrees>-5.18861171789467334747314453125</LongitudeDegrees>
            </Position>
            <AltitudeMeters>52.799999237060546875</AltitudeMeters>
            <DistanceMeters>NAN</DistanceMeters>
          </Trackpoint>
          <Trackpoint>
            <Time>2022-07-17T10:08:16.000Z</Time>
            <Position>
              <LatitudeDegrees>43.47515679895877838134765625</LatitudeDegrees>
              <LongitudeDegrees>-5.1887767575681209564208984375</LongitudeDegrees>
            </Position>
            <AltitudeMeters>52.59999847412109375</AltitudeMeters>
            <DistanceMeters>NAN</DistanceMeters>
          </Trackpoint>
          <Trackpoint>
            <Time>2022-07-17T10:08:18.000Z</Time>
            <Position>
              <LatitudeDegrees>43.47515151835978031158447265625</LatitudeDegrees>
              <LongitudeDegrees>-5.1888692937791347503662109375</LongitudeDegrees>
            </Position>
            <AltitudeMeters>52.59999847412109375</AltitudeMeters>
            <DistanceMeters>NAN</DistanceMeters>
          </Trackpoint>
          <Trackpoint>
            <Time>2022-07-17T10:08:21.000Z</Time>
            <Position>
              <LatitudeDegrees>43.4751445613801479339599609375</LatitudeDegrees>
              <LongitudeDegrees>-5.188993848860263824462890625</LongitudeDegrees>
            </Position>
            <AltitudeMeters>52.40000152587890625</AltitudeMeters>
            <DistanceMeters>NAN</DistanceMeters>
          </Trackpoint>
          <Trackpoint>
            <Time>2022-07-17T10:08:24.000Z</Time>
            <Position>
              <LatitudeDegrees>43.47513190470635890960693359375</LatitudeDegrees>
              <LongitudeDegrees>-5.18909342586994171142578125</LongitudeDegrees>
            </Position>
            <AltitudeMeters>52.40000152587890625</AltitudeMeters>
            <DistanceMeters>NAN</DistanceMeters>
          </Trackpoint>
          <Trackpoint>
            <Time>2022-07-17T10:08:28.000Z</Time>
            <Position>
              <LatitudeDegrees>43.47509770654141902923583984375</LatitudeDegrees>
              <LongitudeDegrees>-5.1892323978245258331298828125</LongitudeDegrees>
            </Position>
            <AltitudeMeters>52.59999847412109375</AltitudeMeters>
            <DistanceMeters>NAN</DistanceMeters>
          </Trackpoint>
          <Trackpoint>
            <Time>2022-07-17T10:08:35.000Z</Time>
            <Position>
              <LatitudeDegrees>43.4750429727137088775634765625</LatitudeDegrees>
              <LongitudeDegrees>-5.18944035284221172332763671875</LongitudeDegrees>
            </Position>
            <AltitudeMeters>52.59999847412109375</AltitudeMeters>
            <DistanceMeters>NAN</DistanceMeters>
          </Trackpoint>
          <Trackpoint>
            <Time>2022-07-17T10:08:39.000Z</Time>
            <Position>
              <LatitudeDegrees>43.4749923460185527801513671875</LatitudeDegrees>
              <LongitudeDegrees>-5.1895767264068126678466796875</LongitudeDegrees>
            </Position>
            <AltitudeMeters>52.799999237060546875</AltitudeMeters>
            <DistanceMeters>NAN</DistanceMeters>
          </Trackpoint>
          <Trackpoint>
            <Time>2022-07-17T10:08:42.000Z</Time>
            <Position>
              <LatitudeDegrees>43.47496233880519866943359375</LatitudeDegrees>
              <LongitudeDegrees>-5.189677141606807708740234375</LongitudeDegrees>
            </Position>
            <AltitudeMeters>53</AltitudeMeters>
            <DistanceMeters>NAN</DistanceMeters>
          </Trackpoint>
          <Trackpoint>
            <Time>2022-07-17T10:08:51.000Z</Time>
            <Position>
              <LatitudeDegrees>43.4748659469187259674072265625</LatitudeDegrees>
              <LongitudeDegrees>-5.19005256704986095428466796875</LongitudeDegrees>
            </Position>
            <AltitudeMeters>52.59999847412109375</AltitudeMeters>
            <DistanceMeters>NAN</DistanceMeters>
          </Trackpoint>
          <Trackpoint>
            <Time>2022-07-17T10:08:58.000Z</Time>
            <Position>
              <LatitudeDegrees>43.47480534575879573822021484375</LatitudeDegrees>
              <LongitudeDegrees>-5.19024945795536041259765625</LongitudeDegrees>
            </Position>
            <AltitudeMeters>52.200000762939453125</AltitudeMeters>
            <DistanceMeters>NAN</DistanceMeters>
          </Trackpoint>
          <Trackpoint>
            <Time>2022-07-17T10:09:02.000Z</Time>
            <Position>
              <LatitudeDegrees>43.47479998134076595306396484375</LatitudeDegrees>
              <LongitudeDegrees>-5.1902662217617034912109375</LongitudeDegrees>
            </Position>
            <AltitudeMeters>52.200000762939453125</AltitudeMeters>
            <DistanceMeters>NAN</DistanceMeters>
          </Trackpoint>
          <Trackpoint>
            <Time>2022-07-17T10:10:27.000Z</Time>
            <Position>
              <LatitudeDegrees>43.47479210235178470611572265625</LatitudeDegrees>
              <LongitudeDegrees>-5.1903260685503482818603515625</LongitudeDegrees>
            </Position>
            <AltitudeMeters>52.40000152587890625</AltitudeMeters>
            <DistanceMeters>NAN</DistanceMeters>
          </Trackpoint>
          <Trackpoint>
            <Time>2022-07-17T10:10:28.000Z</Time>
            <Position>
              <LatitudeDegrees>43.47478439100086688995361328125</LatitudeDegrees>
              <LongitudeDegrees>-5.19035540521144866943359375</LongitudeDegrees>
            </Position>
            <AltitudeMeters>52.40000152587890625</AltitudeMeters>
            <DistanceMeters>NAN</DistanceMeters>
          </Trackpoint>
          <Trackpoint>
            <Time>2022-07-17T10:10:33.000Z</Time>
            <Position>
              <LatitudeDegrees>43.474745415151119232177734375</LatitudeDegrees>
              <LongitudeDegrees>-5.19051088951528072357177734375</LongitudeDegrees>
            </Position>
            <AltitudeMeters>51.799999237060546875</AltitudeMeters>
            <DistanceMeters>NAN</DistanceMeters>
          </Trackpoint>
          <Trackpoint>
            <Time>2022-07-17T10:10:34.000Z</Time>
            <Position>
              <LatitudeDegrees>43.4747308306396007537841796875</LatitudeDegrees>
              <LongitudeDegrees>-5.19054450094699859619140625</LongitudeDegrees>
            </Position>
            <AltitudeMeters>51.59999847412109375</AltitudeMeters>
            <DistanceMeters>NAN</DistanceMeters>
          </Trackpoint>
          <Trackpoint>
            <Time>2022-07-17T10:10:38.000Z</Time>
            <Position>
              <LatitudeDegrees>43.47469814121723175048828125</LatitudeDegrees>
              <LongitudeDegrees>-5.19073250703513622283935546875</LongitudeDegrees>
            </Position>
            <AltitudeMeters>50.40000152587890625</AltitudeMeters>
            <DistanceMeters>NAN</DistanceMeters>
          </Trackpoint>
          <Trackpoint>
            <Time>2022-07-17T10:10:45.000Z</Time>
            <Position>
              <LatitudeDegrees>43.47462463192641735076904296875</LatitudeDegrees>
              <LongitudeDegrees>-5.191069878637790679931640625</LongitudeDegrees>
            </Position>
            <AltitudeMeters>49.59999847412109375</AltitudeMeters>
            <DistanceMeters>NAN</DistanceMeters>
          </Trackpoint>
          <Trackpoint>
            <Time>2022-07-17T10:10:46.000Z</Time>
            <Position>
              <LatitudeDegrees>43.47461306490004062652587890625</LatitudeDegrees>
              <LongitudeDegrees>-5.19112695939838886260986328125</LongitudeDegrees>
            </Position>
            <AltitudeMeters>49.200000762939453125</AltitudeMeters>
            <DistanceMeters>NAN</DistanceMeters>
          </Trackpoint>
          <Trackpoint>
            <Time>2022-07-17T10:10:50.000Z</Time>
            <Position>
              <LatitudeDegrees>43.47457341849803924560546875</LatitudeDegrees>
              <LongitudeDegrees>-5.1913922466337680816650390625</LongitudeDegrees>
            </Position>
            <AltitudeMeters>48.40000152587890625</AltitudeMeters>
            <DistanceMeters>NAN</DistanceMeters>
          </Trackpoint>
          <Trackpoint>
            <Time>2022-07-17T10:10:51.000Z</Time>
            <Position>
              <LatitudeDegrees>43.4745735861361026763916015625</LatitudeDegrees>
              <LongitudeDegrees>-5.19146139733493328094482421875</LongitudeDegrees>
            </Position>
            <AltitudeMeters>48.200000762939453125</AltitudeMeters>
            <DistanceMeters>NAN</DistanceMeters>
          </Trackpoint>
          <Trackpoint>
            <Time>2022-07-17T10:10:52.000Z</Time>
            <Position>
              <LatitudeDegrees>43.47457501105964183807373046875</LatitudeDegrees>
              <LongitudeDegrees>-5.19152912311255931854248046875</LongitudeDegrees>
            </Position>
            <AltitudeMeters>48.200000762939453125</AltitudeMeters>
            <DistanceMeters>NAN</DistanceMeters>
          </Trackpoint>
          <Trackpoint>
            <Time>2022-07-17T10:10:56.000Z</Time>
            <Position>
              <LatitudeDegrees>43.47454953007400035858154296875</LatitudeDegrees>
              <LongitudeDegrees>-5.191773287951946258544921875</LongitudeDegrees>
            </Position>
            <AltitudeMeters>47.200000762939453125</AltitudeMeters>
            <DistanceMeters>NAN</DistanceMeters>
          </Trackpoint>
          <Trackpoint>
            <Time>2022-07-17T10:10:57.000Z</Time>
            <Position>
              <LatitudeDegrees>43.47454366274178028106689453125</LatitudeDegrees>
              <LongitudeDegrees>-5.19182818941771984100341796875</LongitudeDegrees>
            </Position>
            <AltitudeMeters>47</AltitudeMeters>
            <DistanceMeters>NAN</DistanceMeters>
          </Trackpoint>
          <Trackpoint>
            <Time>2022-07-17T10:11:00.000Z</Time>
            <Position>
              <LatitudeDegrees>43.4745419025421142578125</LatitudeDegrees>
              <LongitudeDegrees>-5.1919970847666263580322265625</LongitudeDegrees>
            </Position>
            <AltitudeMeters>46.40000152587890625</AltitudeMeters>
            <DistanceMeters>NAN</DistanceMeters>
          </Trackpoint>
          <Trackpoint>
            <Time>2022-07-17T10:11:03.000Z</Time>
            <Position>
              <LatitudeDegrees>43.4745548106729984283447265625</LatitudeDegrees>
              <LongitudeDegrees>-5.192142426967620849609375</LongitudeDegrees>
            </Position>
            <AltitudeMeters>45.59999847412109375</AltitudeMeters>
            <DistanceMeters>NAN</DistanceMeters>
          </Trackpoint>
          <Trackpoint>
            <Time>2022-07-17T10:11:07.000Z</Time>
            <Position>
              <LatitudeDegrees>43.47453863359987735748291015625</LatitudeDegrees>
              <LongitudeDegrees>-5.19233294762670993804931640625</LongitudeDegrees>
            </Position>
            <AltitudeMeters>44.40000152587890625</AltitudeMeters>
            <DistanceMeters>NAN</DistanceMeters>
          </Trackpoint>
          <Trackpoint>
            <Time>2022-07-17T10:11:09.000Z</Time>
            <Position>
              <LatitudeDegrees>43.47451482899487018585205078125</LatitudeDegrees>
              <LongitudeDegrees>-5.19242716021835803985595703125</LongitudeDegrees>
            </Position>
            <AltitudeMeters>44</AltitudeMeters>
            <DistanceMeters>NAN</DistanceMeters>
          </Trackpoint>
          <Trackpoint>
            <Time>2022-07-17T10:11:12.000Z</Time>
            <Position>
              <LatitudeDegrees>43.47446571104228496551513671875</LatitudeDegrees>
              <LongitudeDegrees>-5.192534364759922027587890625</LongitudeDegrees>
            </Position>
            <AltitudeMeters>43.40000152587890625</AltitudeMeters>
            <DistanceMeters>NAN</DistanceMeters>
          </Trackpoint>
          <Trackpoint>
            <Time>2022-07-17T10:11:13.000Z</Time>
            <Position>
              <LatitudeDegrees>43.4744386374950408935546875</LatitudeDegrees>
              <LongitudeDegrees>-5.19256847910583019256591796875</LongitudeDegrees>
            </Position>
            <AltitudeMeters>43</AltitudeMeters>
            <DistanceMeters>NAN</DistanceMeters>
          </Trackpoint>
          <Trackpoint>
            <Time>2022-07-17T10:11:16.000Z</Time>
            <Position>
              <LatitudeDegrees>43.474357165396213531494140625</LatitudeDegrees>
              <LongitudeDegrees>-5.192649699747562408447265625</LongitudeDegrees>
            </Position>
            <AltitudeMeters>42.200000762939453125</AltitudeMeters>
            <DistanceMeters>NAN</DistanceMeters>
          </Trackpoint>
          <Trackpoint>
            <Time>2022-07-17T10:11:18.000Z</Time>
            <Position>
              <LatitudeDegrees>43.47432187758386135101318359375</LatitudeDegrees>
              <LongitudeDegrees>-5.192741565406322479248046875</LongitudeDegrees>
            </Position>
            <AltitudeMeters>41.799999237060546875</AltitudeMeters>
            <DistanceMeters>NAN</DistanceMeters>
          </Trackpoint>
          <Trackpoint>
            <Time>2022-07-17T10:11:19.000Z</Time>
            <Position>
              <LatitudeDegrees>43.47431047819554805755615234375</LatitudeDegrees>
              <LongitudeDegrees>-5.1928009092807769775390625</LongitudeDegrees>
            </Position>
            <AltitudeMeters>41.799999237060546875</AltitudeMeters>
            <DistanceMeters>NAN</DistanceMeters>
          </Trackpoint>
          <Trackpoint>
            <Time>2022-07-17T10:11:21.000Z</Time>
            <Position>
              <LatitudeDegrees>43.47430729307234287261962890625</LatitudeDegrees>
              <LongitudeDegrees>-5.19293996505439281463623046875</LongitudeDegrees>
            </Position>
            <AltitudeMeters>41.40000152587890625</AltitudeMeters>
            <DistanceMeters>NAN</DistanceMeters>
          </Trackpoint>
          <Trackpoint>
            <Time>2022-07-17T10:11:22.000Z</Time>
            <Position>
              <LatitudeDegrees>43.4743127413094043731689453125</LatitudeDegrees>
              <LongitudeDegrees>-5.19301540218293666839599609375</LongitudeDegrees>
            </Position>
            <AltitudeMeters>41.200000762939453125</AltitudeMeters>
            <DistanceMeters>NAN</DistanceMeters>
          </Trackpoint>
          <Trackpoint>
            <Time>2022-07-17T10:11:23.000Z</Time>
            <Position>
              <LatitudeDegrees>43.4743194468319416046142578125</LatitudeDegrees>
              <LongitudeDegrees>-5.19308446906507015228271484375</LongitudeDegrees>
            </Position>
            <AltitudeMeters>41</AltitudeMeters>
            <DistanceMeters>NAN</DistanceMeters>
          </Trackpoint>
          <Trackpoint>
            <Time>2022-07-17T10:11:27.000Z</Time>
            <Position>
              <LatitudeDegrees>43.474351800978183746337890625</LatitudeDegrees>
              <LongitudeDegrees>-5.19337733276188373565673828125</LongitudeDegrees>
            </Position>
            <AltitudeMeters>39.59999847412109375</AltitudeMeters>
            <DistanceMeters>NAN</DistanceMeters>
          </Trackpoint>
          <Trackpoint>
            <Time>2022-07-17T10:11:29.000Z</Time>
            <Position>
              <LatitudeDegrees>43.4743704088032245635986328125</LatitudeDegrees>
              <LongitudeDegrees>-5.19352368079125881195068359375</LongitudeDegrees>
            </Position>
            <AltitudeMeters>38.40000152587890625</AltitudeMeters>
            <DistanceMeters>NAN</DistanceMeters>
          </Trackpoint>
          <Trackpoint>
            <Time>2022-07-17T10:11:31.000Z</Time>
            <Position>
              <LatitudeDegrees>43.47439102828502655029296875</LatitudeDegrees>
              <LongitudeDegrees>-5.19367706961929798126220703125</LongitudeDegrees>
            </Position>
            <AltitudeMeters>37.40000152587890625</AltitudeMeters>
            <DistanceMeters>NAN</DistanceMeters>
          </Trackpoint>
          <Trackpoint>
            <Time>2022-07-17T10:11:33.000Z</Time>
            <Position>
              <LatitudeDegrees>43.474392704665660858154296875</LatitudeDegrees>
              <LongitudeDegrees>-5.19383079372346401214599609375</LongitudeDegrees>
            </Position>
            <AltitudeMeters>35.799999237060546875</AltitudeMeters>
            <DistanceMeters>NAN</DistanceMeters>
          </Trackpoint>
          <Trackpoint>
            <Time>2022-07-17T10:11:35.000Z</Time>
            <Position>
              <LatitudeDegrees>43.474377281963825225830078125</LatitudeDegrees>
              <LongitudeDegrees>-5.19398510456085205078125</LongitudeDegrees>
            </Position>
            <AltitudeMeters>34.59999847412109375</AltitudeMeters>
            <DistanceMeters>NAN</DistanceMeters>
          </Trackpoint>
          <Trackpoint>
            <Time>2022-07-17T10:11:37.000Z</Time>
            <Position>
              <LatitudeDegrees>43.47436881624162197113037109375</LatitudeDegrees>
              <LongitudeDegrees>-5.19415609538555145263671875</LongitudeDegrees>
            </Position>
            <AltitudeMeters>33</AltitudeMeters>
            <DistanceMeters>NAN</DistanceMeters>
          </Trackpoint>
          <Trackpoint>
            <Time>2022-07-17T10:11:39.000Z</Time>
            <Position>
              <LatitudeDegrees>43.47436579875648021697998046875</LatitudeDegrees>
              <LongitudeDegrees>-5.1943326182663440704345703125</LongitudeDegrees>
            </Position>
            <AltitudeMeters>32</AltitudeMeters>
            <DistanceMeters>NAN</DistanceMeters>
          </Trackpoint>
          <Trackpoint>
            <Time>2022-07-17T10:11:40.000Z</Time>
            <Position>
              <LatitudeDegrees>43.47437099553644657135009765625</LatitudeDegrees>
              <LongitudeDegrees>-5.194411240518093109130859375</LongitudeDegrees>
            </Position>
            <AltitudeMeters>31.200000762939453125</AltitudeMeters>
            <DistanceMeters>NAN</DistanceMeters>
          </Trackpoint>
          <Trackpoint>
            <Time>2022-07-17T10:11:41.000Z</Time>
            <Position>
              <LatitudeDegrees>43.47437904216349124908447265625</LatitudeDegrees>
              <LongitudeDegrees>-5.19448189996182918548583984375</LongitudeDegrees>
            </Position>
            <AltitudeMeters>30.6000003814697265625</AltitudeMeters>
            <DistanceMeters>NAN</DistanceMeters>
          </Trackpoint>
          <Trackpoint>
            <Time>2022-07-17T10:11:43.000Z</Time>
            <Position>
              <LatitudeDegrees>43.47438859753310680389404296875</LatitudeDegrees>
              <LongitudeDegrees>-5.1946159265935420989990234375</LongitudeDegrees>
            </Position>
            <AltitudeMeters>29</AltitudeMeters>
            <DistanceMeters>NAN</DistanceMeters>
          </Trackpoint>
          <Trackpoint>
            <Time>2022-07-17T10:11:44.000Z</Time>
            <Position>
              <LatitudeDegrees>43.4743952192366123199462890625</LatitudeDegrees>
              <LongitudeDegrees>-5.19468239508569240570068359375</LongitudeDegrees>
            </Position>
            <AltitudeMeters>28.3999996185302734375</AltitudeMeters>
            <DistanceMeters>NAN</DistanceMeters>
          </Trackpoint>
          <Trackpoint>
            <Time>2022-07-17T10:11:45.000Z</Time>
            <Position>
              <LatitudeDegrees>43.4744113124907016754150390625</LatitudeDegrees>
              <LongitudeDegrees>-5.194745175540447235107421875</LongitudeDegrees>
            </Position>
            <AltitudeMeters>28</AltitudeMeters>
            <DistanceMeters>NAN</DistanceMeters>
          </Trackpoint>
          <Trackpoint>
            <Time>2022-07-17T10:11:46.000Z</Time>
            <Position>
              <LatitudeDegrees>43.47442950122058391571044921875</LatitudeDegrees>
              <LongitudeDegrees>-5.19480594433844089508056640625</LongitudeDegrees>
            </Position>
            <AltitudeMeters>27.6000003814697265625</AltitudeMeters>
            <DistanceMeters>NAN</DistanceMeters>
          </Trackpoint>
          <Trackpoint>
            <Time>2022-07-17T10:11:49.000Z</Time>
            <Position>
              <LatitudeDegrees>43.4744850732386112213134765625</LatitudeDegrees>
              <LongitudeDegrees>-5.19496184773743152618408203125</LongitudeDegrees>
            </Position>
            <AltitudeMeters>26.200000762939453125</AltitudeMeters>
            <DistanceMeters>NAN</DistanceMeters>
          </Trackpoint>
          <Trackpoint>
            <Time>2022-07-17T10:11:51.000Z</Time>
            <Position>
              <LatitudeDegrees>43.47452287562191486358642578125</LatitudeDegrees>
              <LongitudeDegrees>-5.19504298456013202667236328125</LongitudeDegrees>
            </Position>
            <AltitudeMeters>25</AltitudeMeters>
            <DistanceMeters>NAN</DistanceMeters>
          </Trackpoint>
          <Trackpoint>
            <Time>2022-07-17T10:11:53.000Z</Time>
            <Position>
              <LatitudeDegrees>43.4745782800018787384033203125</LatitudeDegrees>
              <LongitudeDegrees>-5.19512076862156391143798828125</LongitudeDegrees>
            </Position>
            <AltitudeMeters>23.6000003814697265625</AltitudeMeters>
            <DistanceMeters>NAN</DistanceMeters>
          </Trackpoint>
          <Trackpoint>
            <Time>2022-07-17T10:11:55.000Z</Time>
            <Position>
              <LatitudeDegrees>43.47464407794177532196044921875</LatitudeDegrees>
              <LongitudeDegrees>-5.1952120475471019744873046875</LongitudeDegrees>
            </Position>
            <AltitudeMeters>22.6000003814697265625</AltitudeMeters>
            <DistanceMeters>NAN</DistanceMeters>
          </Trackpoint>
          <Trackpoint>
            <Time>2022-07-17T10:11:56.000Z</Time>
            <Position>
              <LatitudeDegrees>43.4746771864593029022216796875</LatitudeDegrees>
              <LongitudeDegrees>-5.19525035284459590911865234375</LongitudeDegrees>
            </Position>
            <AltitudeMeters>22.3999996185302734375</AltitudeMeters>
            <DistanceMeters>NAN</DistanceMeters>
          </Trackpoint>
          <Trackpoint>
            <Time>2022-07-17T10:11:59.000Z</Time>
            <Position>
              <LatitudeDegrees>43.474721275269985198974609375</LatitudeDegrees>
              <LongitudeDegrees>-5.19532679580152034759521484375</LongitudeDegrees>
            </Position>
            <AltitudeMeters>21.799999237060546875</AltitudeMeters>
            <DistanceMeters>NAN</DistanceMeters>
          </Trackpoint>
          <Trackpoint>
            <Time>2022-07-17T10:12:00.000Z</Time>
            <Position>
              <LatitudeDegrees>43.47471683286130428314208984375</LatitudeDegrees>
              <LongitudeDegrees>-5.1953381113708019256591796875</LongitudeDegrees>
            </Position>
            <AltitudeMeters>21.799999237060546875</AltitudeMeters>
            <DistanceMeters>NAN</DistanceMeters>
          </Trackpoint>
          <Trackpoint>
            <Time>2022-07-17T10:12:03.000Z</Time>
            <Position>
              <LatitudeDegrees>43.47470677457749843597412109375</LatitudeDegrees>
              <LongitudeDegrees>-5.1953863911330699920654296875</LongitudeDegrees>
            </Position>
            <AltitudeMeters>21.6000003814697265625</AltitudeMeters>
            <DistanceMeters>NAN</DistanceMeters>
          </Trackpoint>
          <Trackpoint>
            <Time>2022-07-17T10:12:05.000Z</Time>
            <Position>
              <LatitudeDegrees>43.47473309375345706939697265625</LatitudeDegrees>
              <LongitudeDegrees>-5.19542955793440341949462890625</LongitudeDegrees>
            </Position>
            <AltitudeMeters>21.6000003814697265625</AltitudeMeters>
            <DistanceMeters>NAN</DistanceMeters>
          </Trackpoint>
          <Trackpoint>
            <Time>2022-07-17T10:12:08.000Z</Time>
            <Position>
              <LatitudeDegrees>43.47478757612407207489013671875</LatitudeDegrees>
              <LongitudeDegrees>-5.1954779215157032012939453125</LongitudeDegrees>
            </Position>
            <AltitudeMeters>21.6000003814697265625</AltitudeMeters>
            <DistanceMeters>NAN</DistanceMeters>
          </Trackpoint>
          <Trackpoint>
            <Time>2022-07-17T10:12:14.000Z</Time>
            <Position>
              <LatitudeDegrees>43.47491414286196231842041015625</LatitudeDegrees>
              <LongitudeDegrees>-5.1954735629260540008544921875</LongitudeDegrees>
            </Position>
            <AltitudeMeters>22</AltitudeMeters>
            <DistanceMeters>NAN</DistanceMeters>
          </Trackpoint>
          <Trackpoint>
            <Time>2022-07-17T10:12:23.000Z</Time>
            <Position>
              <LatitudeDegrees>43.475075997412204742431640625</LatitudeDegrees>
              <LongitudeDegrees>-5.1954698748886585235595703125</LongitudeDegrees>
            </Position>
            <AltitudeMeters>22.6000003814697265625</AltitudeMeters>
            <DistanceMeters>NAN</DistanceMeters>
          </Trackpoint>
          <Trackpoint>
            <Time>2022-07-17T10:12:28.000Z</Time>
            <Position>
              <LatitudeDegrees>43.47510240040719509124755859375</LatitudeDegrees>
              <LongitudeDegrees>-5.19550633616745471954345703125</LongitudeDegrees>
            </Position>
            <AltitudeMeters>23.200000762939453125</AltitudeMeters>
            <DistanceMeters>NAN</DistanceMeters>
          </Trackpoint>
          <Trackpoint>
            <Time>2022-07-17T10:22:42.000Z</Time>
            <Position>
              <LatitudeDegrees>43.4751190803945064544677734375</LatitudeDegrees>
              <LongitudeDegrees>-5.19551421515643596649169921875</LongitudeDegrees>
            </Position>
            <AltitudeMeters>20.6000003814697265625</AltitudeMeters>
            <DistanceMeters>NAN</DistanceMeters>
          </Trackpoint>
          <Trackpoint>
            <Time>2022-07-17T10:22:43.000Z</Time>
            <Position>
              <LatitudeDegrees>43.4751210920512676239013671875</LatitudeDegrees>
              <LongitudeDegrees>-5.1955308951437473297119140625</LongitudeDegrees>
            </Position>
            <AltitudeMeters>20.6000003814697265625</AltitudeMeters>
            <DistanceMeters>NAN</DistanceMeters>
          </Trackpoint>
          <Trackpoint>
            <Time>2022-07-17T10:22:45.000Z</Time>
            <Position>
              <LatitudeDegrees>43.475118577480316162109375</LatitudeDegrees>
              <LongitudeDegrees>-5.19556752406060695648193359375</LongitudeDegrees>
            </Position>
            <AltitudeMeters>20.6000003814697265625</AltitudeMeters>
            <DistanceMeters>NAN</DistanceMeters>
          </Trackpoint>
          <Trackpoint>
            <Time>2022-07-17T10:22:46.000Z</Time>
            <Position>
              <LatitudeDegrees>43.47511799074709415435791015625</LatitudeDegrees>
              <LongitudeDegrees>-5.1955842040479183197021484375</LongitudeDegrees>
            </Position>
            <AltitudeMeters>20.6000003814697265625</AltitudeMeters>
            <DistanceMeters>NAN</DistanceMeters>
          </Trackpoint>
          <Trackpoint>
            <Time>2022-07-17T10:22:48.000Z</Time>
            <Position>
              <LatitudeDegrees>43.475120924413204193115234375</LatitudeDegrees>
              <LongitudeDegrees>-5.19561647437512874603271484375</LongitudeDegrees>
            </Position>
            <AltitudeMeters>21</AltitudeMeters>
            <DistanceMeters>NAN</DistanceMeters>
          </Trackpoint>
          <Trackpoint>
            <Time>2022-07-17T10:22:51.000Z</Time>
            <Position>
              <LatitudeDegrees>43.47510206513106822967529296875</LatitudeDegrees>
              <LongitudeDegrees>-5.19567213021218776702880859375</LongitudeDegrees>
            </Position>
            <AltitudeMeters>21.200000762939453125</AltitudeMeters>
            <DistanceMeters>NAN</DistanceMeters>
          </Trackpoint>
          <Trackpoint>
            <Time>2022-07-17T10:22:54.000Z</Time>
            <Position>
              <LatitudeDegrees>43.47509167157113552093505859375</LatitudeDegrees>
              <LongitudeDegrees>-5.195720829069614410400390625</LongitudeDegrees>
            </Position>
            <AltitudeMeters>21.6000003814697265625</AltitudeMeters>
            <DistanceMeters>NAN</DistanceMeters>
          </Trackpoint>
          <Trackpoint>
            <Time>2022-07-17T10:22:55.000Z</Time>
            <Position>
              <LatitudeDegrees>43.47508563660085201263427734375</LatitudeDegrees>
              <LongitudeDegrees>-5.19573616795241832733154296875</LongitudeDegrees>
            </Position>
            <AltitudeMeters>21.799999237060546875</AltitudeMeters>
            <DistanceMeters>NAN</DistanceMeters>
          </Trackpoint>
          <Trackpoint>
            <Time>2022-07-17T10:23:02.000Z</Time>
            <Position>
              <LatitudeDegrees>43.4750409610569477081298828125</LatitudeDegrees>
              <LongitudeDegrees>-5.1958628185093402862548828125</LongitudeDegrees>
            </Position>
            <AltitudeMeters>22</AltitudeMeters>
            <DistanceMeters>NAN</DistanceMeters>
          </Trackpoint>
          <Trackpoint>
            <Time>2022-07-17T10:23:03.000Z</Time>
            <Position>
              <LatitudeDegrees>43.4750309027731418609619140625</LatitudeDegrees>
              <LongitudeDegrees>-5.19587673246860504150390625</LongitudeDegrees>
            </Position>
            <AltitudeMeters>22</AltitudeMeters>
            <DistanceMeters>NAN</DistanceMeters>
          </Trackpoint>
          <Trackpoint>
            <Time>2022-07-17T10:23:09.000Z</Time>
            <Position>
              <LatitudeDegrees>43.47497935406863689422607421875</LatitudeDegrees>
              <LongitudeDegrees>-5.1959431171417236328125</LongitudeDegrees>
            </Position>
            <AltitudeMeters>22.3999996185302734375</AltitudeMeters>
            <DistanceMeters>NAN</DistanceMeters>
          </Trackpoint>
          <Trackpoint>
            <Time>2022-07-17T10:23:11.000Z</Time>
            <Position>
              <LatitudeDegrees>43.4749732352793216705322265625</LatitudeDegrees>
              <LongitudeDegrees>-5.195966921746730804443359375</LongitudeDegrees>
            </Position>
            <AltitudeMeters>22.6000003814697265625</AltitudeMeters>
            <DistanceMeters>NAN</DistanceMeters>
          </Trackpoint>
          <Trackpoint>
            <Time>2022-07-17T10:23:12.000Z</Time>
            <Position>
              <LatitudeDegrees>43.47496879287064075469970703125</LatitudeDegrees>
              <LongitudeDegrees>-5.19598108716309070587158203125</LongitudeDegrees>
            </Position>
            <AltitudeMeters>22.799999237060546875</AltitudeMeters>
            <DistanceMeters>NAN</DistanceMeters>
          </Trackpoint>
          <Trackpoint>
            <Time>2022-07-17T10:23:20.000Z</Time>
            <Position>
              <LatitudeDegrees>43.47495697438716888427734375</LatitudeDegrees>
              <LongitudeDegrees>-5.19613196142017841339111328125</LongitudeDegrees>
            </Position>
            <AltitudeMeters>23.799999237060546875</AltitudeMeters>
            <DistanceMeters>NAN</DistanceMeters>
          </Trackpoint>
          <Trackpoint>
            <Time>2022-07-17T10:23:21.000Z</Time>
            <Position>
              <LatitudeDegrees>43.474959321320056915283203125</LatitudeDegrees>
              <LongitudeDegrees>-5.19614570774137973785400390625</LongitudeDegrees>
            </Position>
            <AltitudeMeters>24</AltitudeMeters>
            <DistanceMeters>NAN</DistanceMeters>
          </Trackpoint>
          <Trackpoint>
            <Time>2022-07-17T10:23:23.000Z</Time>
            <Position>
              <LatitudeDegrees>43.474962674081325531005859375</LatitudeDegrees>
              <LongitudeDegrees>-5.19615157507359981536865234375</LongitudeDegrees>
            </Position>
            <AltitudeMeters>24.3999996185302734375</AltitudeMeters>
            <DistanceMeters>NAN</DistanceMeters>
          </Trackpoint>
          <Trackpoint>
            <Time>2022-07-17T10:23:42.000Z</Time>
            <Position>
              <LatitudeDegrees>43.47496594302356243133544921875</LatitudeDegrees>
              <LongitudeDegrees>-5.19631586037576198577880859375</LongitudeDegrees>
            </Position>
            <AltitudeMeters>25.799999237060546875</AltitudeMeters>
            <DistanceMeters>NAN</DistanceMeters>
          </Trackpoint>
          <Trackpoint>
            <Time>2022-07-17T10:23:45.000Z</Time>
            <Position>
              <LatitudeDegrees>43.47495890222489833831787109375</LatitudeDegrees>
              <LongitudeDegrees>-5.19637805409729480743408203125</LongitudeDegrees>
            </Position>
            <AltitudeMeters>26</AltitudeMeters>
            <DistanceMeters>NAN</DistanceMeters>
          </Trackpoint>
          <Trackpoint>
            <Time>2022-07-17T10:23:49.000Z</Time>
            <Position>
              <LatitudeDegrees>43.474958650767803192138671875</LatitudeDegrees>
              <LongitudeDegrees>-5.19645282067358493804931640625</LongitudeDegrees>
            </Position>
            <AltitudeMeters>26.200000762939453125</AltitudeMeters>
            <DistanceMeters>NAN</DistanceMeters>
          </Trackpoint>
          <Trackpoint>
            <Time>2022-07-17T10:23:50.000Z</Time>
            <Position>
              <LatitudeDegrees>43.47495823167264461517333984375</LatitudeDegrees>
              <LongitudeDegrees>-5.196469835937023162841796875</LongitudeDegrees>
            </Position>
            <AltitudeMeters>26.200000762939453125</AltitudeMeters>
            <DistanceMeters>NAN</DistanceMeters>
          </Trackpoint>
          <Trackpoint>
            <Time>2022-07-17T10:23:54.000Z</Time>
            <Position>
              <LatitudeDegrees>43.47496711649000644683837890625</LatitudeDegrees>
              <LongitudeDegrees>-5.19656111486256122589111328125</LongitudeDegrees>
            </Position>
            <AltitudeMeters>26.200000762939453125</AltitudeMeters>
            <DistanceMeters>NAN</DistanceMeters>
          </Trackpoint>
          <Trackpoint>
            <Time>2022-07-17T10:24:02.000Z</Time>
            <Position>
              <LatitudeDegrees>43.4750134684145450592041015625</LatitudeDegrees>
              <LongitudeDegrees>-5.19682715646922588348388671875</LongitudeDegrees>
            </Position>
            <AltitudeMeters>26</AltitudeMeters>
            <DistanceMeters>NAN</DistanceMeters>
          </Trackpoint>
          <Trackpoint>
            <Time>2022-07-17T10:24:09.000Z</Time>
            <Position>
              <LatitudeDegrees>43.47506937570869922637939453125</LatitudeDegrees>
              <LongitudeDegrees>-5.1970272324979305267333984375</LongitudeDegrees>
            </Position>
            <AltitudeMeters>25.6000003814697265625</AltitudeMeters>
            <DistanceMeters>NAN</DistanceMeters>
          </Trackpoint>
          <Trackpoint>
            <Time>2022-07-17T10:24:10.000Z</Time>
            <Position>
              <LatitudeDegrees>43.47507633268833160400390625</LatitudeDegrees>
              <LongitudeDegrees>-5.19704441539943218231201171875</LongitudeDegrees>
            </Position>
            <AltitudeMeters>25.6000003814697265625</AltitudeMeters>
            <DistanceMeters>NAN</DistanceMeters>
          </Trackpoint>
          <Trackpoint>
            <Time>2022-07-17T10:24:13.000Z</Time>
            <Position>
              <LatitudeDegrees>43.4750986285507678985595703125</LatitudeDegrees>
              <LongitudeDegrees>-5.19708414562046527862548828125</LongitudeDegrees>
            </Position>
            <AltitudeMeters>25.3999996185302734375</AltitudeMeters>
            <DistanceMeters>NAN</DistanceMeters>
          </Trackpoint>
          <Trackpoint>
            <Time>2022-07-17T10:24:15.000Z</Time>
            <Position>
              <LatitudeDegrees>43.47510181367397308349609375</LatitudeDegrees>
              <LongitudeDegrees>-5.19708716310560703277587890625</LongitudeDegrees>
            </Position>
            <AltitudeMeters>25.3999996185302734375</AltitudeMeters>
            <DistanceMeters>NAN</DistanceMeters>
          </Trackpoint>
          <Trackpoint>
            <Time>2022-07-17T10:24:16.000Z</Time>
            <Position>
              <LatitudeDegrees>43.47510181367397308349609375</LatitudeDegrees>
              <LongitudeDegrees>-5.19708716310560703277587890625</LongitudeDegrees>
            </Position>
            <AltitudeMeters>25.3999996185302734375</AltitudeMeters>
            <DistanceMeters>NAN</DistanceMeters>
          </Trackpoint>
          <Trackpoint>
            <Time>2022-07-17T10:24:43.000Z</Time>
            <Position>
              <LatitudeDegrees>43.47510122694075107574462890625</LatitudeDegrees>
              <LongitudeDegrees>-5.1971160806715488433837890625</LongitudeDegrees>
            </Position>
            <AltitudeMeters>25.3999996185302734375</AltitudeMeters>
            <DistanceMeters>NAN</DistanceMeters>
          </Trackpoint>
          <Trackpoint>
            <Time>2022-07-17T10:24:45.000Z</Time>
            <Position>
              <LatitudeDegrees>43.475093431770801544189453125</LatitudeDegrees>
              <LongitudeDegrees>-5.19717467017471790313720703125</LongitudeDegrees>
            </Position>
            <AltitudeMeters>25.3999996185302734375</AltitudeMeters>
            <DistanceMeters>NAN</DistanceMeters>
          </Trackpoint>
          <Trackpoint>
            <Time>2022-07-17T10:24:52.000Z</Time>
            <Position>
              <LatitudeDegrees>43.47508303821086883544921875</LatitudeDegrees>
              <LongitudeDegrees>-5.19739913754165172576904296875</LongitudeDegrees>
            </Position>
            <AltitudeMeters>25.6000003814697265625</AltitudeMeters>
            <DistanceMeters>NAN</DistanceMeters>
          </Trackpoint>
          <Trackpoint>
            <Time>2022-07-17T10:24:59.000Z</Time>
            <Position>
              <LatitudeDegrees>43.47507767379283905029296875</LatitudeDegrees>
              <LongitudeDegrees>-5.197607763111591339111328125</LongitudeDegrees>
            </Position>
            <AltitudeMeters>25.799999237060546875</AltitudeMeters>
            <DistanceMeters>NAN</DistanceMeters>
          </Trackpoint>
          <Trackpoint>
            <Time>2022-07-17T10:25:02.000Z</Time>
            <Position>
              <LatitudeDegrees>43.475069962441921234130859375</LatitudeDegrees>
              <LongitudeDegrees>-5.1976951025426387786865234375</LongitudeDegrees>
            </Position>
            <AltitudeMeters>25.799999237060546875</AltitudeMeters>
            <DistanceMeters>NAN</DistanceMeters>
          </Trackpoint>
          <Trackpoint>
            <Time>2022-07-17T10:25:04.000Z</Time>
            <Position>
              <LatitudeDegrees>43.47506199963390827178955078125</LatitudeDegrees>
              <LongitudeDegrees>-5.19775033928453922271728515625</LongitudeDegrees>
            </Position>
            <AltitudeMeters>25.799999237060546875</AltitudeMeters>
            <DistanceMeters>NAN</DistanceMeters>
          </Trackpoint>
          <Trackpoint>
            <Time>2022-07-17T10:25:10.000Z</Time>
            <Position>
              <LatitudeDegrees>43.475051857531070709228515625</LatitudeDegrees>
              <LongitudeDegrees>-5.197931639850139617919921875</LongitudeDegrees>
            </Position>
            <AltitudeMeters>26</AltitudeMeters>
            <DistanceMeters>NAN</DistanceMeters>
          </Trackpoint>
          <Trackpoint>
            <Time>2022-07-17T10:25:12.000Z</Time>
            <Position>
              <LatitudeDegrees>43.47505814395844936370849609375</LatitudeDegrees>
              <LongitudeDegrees>-5.1979958452284336090087890625</LongitudeDegrees>
            </Position>
            <AltitudeMeters>26</AltitudeMeters>
            <DistanceMeters>NAN</DistanceMeters>
          </Trackpoint>
          <Trackpoint>
            <Time>2022-07-17T10:25:19.000Z</Time>
            <Position>
              <LatitudeDegrees>43.47504490055143833160400390625</LatitudeDegrees>
              <LongitudeDegrees>-5.1982198096811771392822265625</LongitudeDegrees>
            </Position>
            <AltitudeMeters>26.200000762939453125</AltitudeMeters>
            <DistanceMeters>NAN</DistanceMeters>
          </Trackpoint>
          <Trackpoint>
            <Time>2022-07-17T10:25:25.000Z</Time>
            <Position>
              <LatitudeDegrees>43.47500718198716640472412109375</LatitudeDegrees>
              <LongitudeDegrees>-5.19834562204778194427490234375</LongitudeDegrees>
            </Position>
            <AltitudeMeters>26.799999237060546875</AltitudeMeters>
            <DistanceMeters>NAN</DistanceMeters>
          </Trackpoint>
          <Trackpoint>
            <Time>2022-07-17T10:25:26.000Z</Time>
            <Position>
              <LatitudeDegrees>43.475008942186832427978515625</LatitudeDegrees>
              <LongitudeDegrees>-5.1983636431396007537841796875</LongitudeDegrees>
            </Position>
            <AltitudeMeters>27</AltitudeMeters>
            <DistanceMeters>NAN</DistanceMeters>
          </Trackpoint>
          <Trackpoint>
            <Time>2022-07-17T10:25:29.000Z</Time>
            <Position>
              <LatitudeDegrees>43.47501732409000396728515625</LatitudeDegrees>
              <LongitudeDegrees>-5.198422484099864959716796875</LongitudeDegrees>
            </Position>
            <AltitudeMeters>27.3999996185302734375</AltitudeMeters>
            <DistanceMeters>NAN</DistanceMeters>
          </Trackpoint>
          <Trackpoint>
            <Time>2022-07-17T10:25:32.000Z</Time>
            <Position>
              <LatitudeDegrees>43.475016318261623382568359375</LatitudeDegrees>
              <LongitudeDegrees>-5.1984293572604656219482421875</LongitudeDegrees>
            </Position>
            <AltitudeMeters>27.3999996185302734375</AltitudeMeters>
            <DistanceMeters>NAN</DistanceMeters>
          </Trackpoint>
          <Trackpoint>
            <Time>2022-07-17T10:25:49.000Z</Time>
            <Position>
              <LatitudeDegrees>43.47501422278583049774169921875</LatitudeDegrees>
              <LongitudeDegrees>-5.19845760427415370941162109375</LongitudeDegrees>
            </Position>
            <AltitudeMeters>27.200000762939453125</AltitudeMeters>
            <DistanceMeters>NAN</DistanceMeters>
          </Trackpoint>
          <Trackpoint>
            <Time>2022-07-17T10:25:51.000Z</Time>
            <Position>
              <LatitudeDegrees>43.47501053474843502044677734375</LatitudeDegrees>
              <LongitudeDegrees>-5.19852817989885807037353515625</LongitudeDegrees>
            </Position>
            <AltitudeMeters>27.3999996185302734375</AltitudeMeters>
            <DistanceMeters>NAN</DistanceMeters>
          </Trackpoint>
          <Trackpoint>
            <Time>2022-07-17T10:25:58.000Z</Time>
            <Position>
              <LatitudeDegrees>43.47503500990569591522216796875</LatitudeDegrees>
              <LongitudeDegrees>-5.1987822353839874267578125</LongitudeDegrees>
            </Position>
            <AltitudeMeters>27.799999237060546875</AltitudeMeters>
            <DistanceMeters>NAN</DistanceMeters>
          </Trackpoint>
          <Trackpoint>
            <Time>2022-07-17T10:26:01.000Z</Time>
            <Position>
              <LatitudeDegrees>43.4750382788479328155517578125</LatitudeDegrees>
              <LongitudeDegrees>-5.19888617098331451416015625</LongitudeDegrees>
            </Position>
            <AltitudeMeters>27.799999237060546875</AltitudeMeters>
            <DistanceMeters>NAN</DistanceMeters>
          </Trackpoint>
          <Trackpoint>
            <Time>2022-07-17T10:26:07.000Z</Time>
            <Position>
              <LatitudeDegrees>43.475037105381488800048828125</LatitudeDegrees>
              <LongitudeDegrees>-5.1990844868123531341552734375</LongitudeDegrees>
            </Position>
            <AltitudeMeters>28.3999996185302734375</AltitudeMeters>
            <DistanceMeters>NAN</DistanceMeters>
          </Trackpoint>
          <Trackpoint>
            <Time>2022-07-17T10:26:13.000Z</Time>
            <Position>
              <LatitudeDegrees>43.47504775039851665496826171875</LatitudeDegrees>
              <LongitudeDegrees>-5.199248604476451873779296875</LongitudeDegrees>
            </Position>
            <AltitudeMeters>29</AltitudeMeters>
            <DistanceMeters>NAN</DistanceMeters>
          </Trackpoint>
          <Trackpoint>
            <Time>2022-07-17T10:26:16.000Z</Time>
            <Position>
              <LatitudeDegrees>43.47505110315978527069091796875</LatitudeDegrees>
              <LongitudeDegrees>-5.19932261668145656585693359375</LongitudeDegrees>
            </Position>
            <AltitudeMeters>29.200000762939453125</AltitudeMeters>
            <DistanceMeters>NAN</DistanceMeters>
          </Trackpoint>
          <Trackpoint>
            <Time>2022-07-17T10:26:23.000Z</Time>
            <Position>
              <LatitudeDegrees>43.47507339902222156524658203125</LatitudeDegrees>
              <LongitudeDegrees>-5.19949662499129772186279296875</LongitudeDegrees>
            </Position>
            <AltitudeMeters>29.799999237060546875</AltitudeMeters>
            <DistanceMeters>NAN</DistanceMeters>
          </Trackpoint>
          <Trackpoint>
            <Time>2022-07-17T10:26:26.000Z</Time>
            <Position>
              <LatitudeDegrees>43.47508396022021770477294921875</LatitudeDegrees>
              <LongitudeDegrees>-5.1995766721665859222412109375</LongitudeDegrees>
            </Position>
            <AltitudeMeters>30</AltitudeMeters>
            <DistanceMeters>NAN</DistanceMeters>
          </Trackpoint>
          <Trackpoint>
            <Time>2022-07-17T10:26:30.000Z</Time>
            <Position>
              <LatitudeDegrees>43.47510047256946563720703125</LatitudeDegrees>
              <LongitudeDegrees>-5.199677087366580963134765625</LongitudeDegrees>
            </Position>
            <AltitudeMeters>30.3999996185302734375</AltitudeMeters>
            <DistanceMeters>NAN</DistanceMeters>
          </Trackpoint>
          <Trackpoint>
            <Time>2022-07-17T10:26:34.000Z</Time>
            <Position>
              <LatitudeDegrees>43.4751127101480960845947265625</LatitudeDegrees>
              <LongitudeDegrees>-5.19977892749011516571044921875</LongitudeDegrees>
            </Position>
            <AltitudeMeters>30.799999237060546875</AltitudeMeters>
            <DistanceMeters>NAN</DistanceMeters>
          </Trackpoint>
          <Trackpoint>
            <Time>2022-07-17T10:26:36.000Z</Time>
            <Position>
              <LatitudeDegrees>43.47511681728065013885498046875</LatitudeDegrees>
              <LongitudeDegrees>-5.19983164966106414794921875</LongitudeDegrees>
            </Position>
            <AltitudeMeters>31</AltitudeMeters>
            <DistanceMeters>NAN</DistanceMeters>
          </Trackpoint>
          <Trackpoint>
            <Time>2022-07-17T10:26:39.000Z</Time>
            <Position>
              <LatitudeDegrees>43.47512419335544109344482421875</LatitudeDegrees>
              <LongitudeDegrees>-5.19991739653050899505615234375</LongitudeDegrees>
            </Position>
            <AltitudeMeters>31.6000003814697265625</AltitudeMeters>
            <DistanceMeters>NAN</DistanceMeters>
          </Trackpoint>
          <Trackpoint>
            <Time>2022-07-17T10:26:44.000Z</Time>
            <Position>
              <LatitudeDegrees>43.4751271270215511322021484375</LatitudeDegrees>
              <LongitudeDegrees>-5.20005854777991771697998046875</LongitudeDegrees>
            </Position>
            <AltitudeMeters>32</AltitudeMeters>
            <DistanceMeters>NAN</DistanceMeters>
          </Trackpoint>
          <Trackpoint>
            <Time>2022-07-17T10:26:49.000Z</Time>
            <Position>
              <LatitudeDegrees>43.4751291386783123016357421875</LatitudeDegrees>
              <LongitudeDegrees>-5.20019651390612125396728515625</LongitudeDegrees>
            </Position>
            <AltitudeMeters>32.59999847412109375</AltitudeMeters>
            <DistanceMeters>NAN</DistanceMeters>
          </Trackpoint>
          <Trackpoint>
            <Time>2022-07-17T10:26:51.000Z</Time>
            <Position>
              <LatitudeDegrees>43.4751271270215511322021484375</LatitudeDegrees>
              <LongitudeDegrees>-5.20024898461997509002685546875</LongitudeDegrees>
            </Position>
            <AltitudeMeters>32.799999237060546875</AltitudeMeters>
            <DistanceMeters>NAN</DistanceMeters>
          </Trackpoint>
          <Trackpoint>
            <Time>2022-07-17T10:26:54.000Z</Time>
            <Position>
              <LatitudeDegrees>43.4751318208873271942138671875</LatitudeDegrees>
              <LongitudeDegrees>-5.20033213309943675994873046875</LongitudeDegrees>
            </Position>
            <AltitudeMeters>33.200000762939453125</AltitudeMeters>
            <DistanceMeters>NAN</DistanceMeters>
          </Trackpoint>
          <Trackpoint>
            <Time>2022-07-17T10:26:56.000Z</Time>
            <Position>
              <LatitudeDegrees>43.475133664906024932861328125</LatitudeDegrees>
              <LongitudeDegrees>-5.20038493908941745758056640625</LongitudeDegrees>
            </Position>
            <AltitudeMeters>33.40000152587890625</AltitudeMeters>
            <DistanceMeters>NAN</DistanceMeters>
          </Trackpoint>
          <Trackpoint>
            <Time>2022-07-17T10:26:58.000Z</Time>
            <Position>
              <LatitudeDegrees>43.4751318208873271942138671875</LatitudeDegrees>
              <LongitudeDegrees>-5.2004299499094486236572265625</LongitudeDegrees>
            </Position>
            <AltitudeMeters>33.40000152587890625</AltitudeMeters>
            <DistanceMeters>NAN</DistanceMeters>
          </Trackpoint>
          <Trackpoint>
            <Time>2022-07-17T10:27:01.000Z</Time>
            <Position>
              <LatitudeDegrees>43.47512670792639255523681640625</LatitudeDegrees>
              <LongitudeDegrees>-5.2004970051348209381103515625</LongitudeDegrees>
            </Position>
            <AltitudeMeters>33.799999237060546875</AltitudeMeters>
            <DistanceMeters>NAN</DistanceMeters>
          </Trackpoint>
          <Trackpoint>
            <Time>2022-07-17T10:27:04.000Z</Time>
            <Position>
              <LatitudeDegrees>43.4751224331557750701904296875</LatitudeDegrees>
              <LongitudeDegrees>-5.2005660720169544219970703125</LongitudeDegrees>
            </Position>
            <AltitudeMeters>34.200000762939453125</AltitudeMeters>
            <DistanceMeters>NAN</DistanceMeters>
          </Trackpoint>
          <Trackpoint>
            <Time>2022-07-17T10:27:10.000Z</Time>
            <Position>
              <LatitudeDegrees>43.4751070104539394378662109375</LatitudeDegrees>
              <LongitudeDegrees>-5.20069775171577930450439453125</LongitudeDegrees>
            </Position>
            <AltitudeMeters>34.799999237060546875</AltitudeMeters>
            <DistanceMeters>NAN</DistanceMeters>
          </Trackpoint>
          <Trackpoint>
            <Time>2022-07-17T10:27:11.000Z</Time>
            <Position>
              <LatitudeDegrees>43.4751036576926708221435546875</LatitudeDegrees>
              <LongitudeDegrees>-5.20071677863597869873046875</LongitudeDegrees>
            </Position>
            <AltitudeMeters>35.200000762939453125</AltitudeMeters>
            <DistanceMeters>NAN</DistanceMeters>
          </Trackpoint>
          <Trackpoint>
            <Time>2022-07-17T10:27:12.000Z</Time>
            <Position>
              <LatitudeDegrees>43.47510290332138538360595703125</LatitudeDegrees>
              <LongitudeDegrees>-5.20073815248906612396240234375</LongitudeDegrees>
            </Position>
            <AltitudeMeters>35.200000762939453125</AltitudeMeters>
            <DistanceMeters>NAN</DistanceMeters>
          </Trackpoint>
          <Trackpoint>
            <Time>2022-07-17T10:27:20.000Z</Time>
            <Position>
              <LatitudeDegrees>43.47508815117180347442626953125</LatitudeDegrees>
              <LongitudeDegrees>-5.20090528763830661773681640625</LongitudeDegrees>
            </Position>
            <AltitudeMeters>36.200000762939453125</AltitudeMeters>
            <DistanceMeters>NAN</DistanceMeters>
          </Trackpoint>
          <Trackpoint>
            <Time>2022-07-17T10:27:23.000Z</Time>
            <Position>
              <LatitudeDegrees>43.47509334795176982879638671875</LatitudeDegrees>
              <LongitudeDegrees>-5.20097334869205951690673828125</LongitudeDegrees>
            </Position>
            <AltitudeMeters>36.40000152587890625</AltitudeMeters>
            <DistanceMeters>NAN</DistanceMeters>
          </Trackpoint>
          <Trackpoint>
            <Time>2022-07-17T10:27:26.000Z</Time>
            <Position>
              <LatitudeDegrees>43.4750929288566112518310546875</LatitudeDegrees>
              <LongitudeDegrees>-5.20105197094380855560302734375</LongitudeDegrees>
            </Position>
            <AltitudeMeters>36.59999847412109375</AltitudeMeters>
            <DistanceMeters>NAN</DistanceMeters>
          </Trackpoint>
          <Trackpoint>
            <Time>2022-07-17T10:27:30.000Z</Time>
            <Position>
              <LatitudeDegrees>43.47509334795176982879638671875</LatitudeDegrees>
              <LongitudeDegrees>-5.20116797648370265960693359375</LongitudeDegrees>
            </Position>
            <AltitudeMeters>36.799999237060546875</AltitudeMeters>
            <DistanceMeters>NAN</DistanceMeters>
          </Trackpoint>
          <Trackpoint>
            <Time>2022-07-17T10:27:35.000Z</Time>
            <Position>
              <LatitudeDegrees>43.47509485669434070587158203125</LatitudeDegrees>
              <LongitudeDegrees>-5.20132605917751789093017578125</LongitudeDegrees>
            </Position>
            <AltitudeMeters>36.799999237060546875</AltitudeMeters>
            <DistanceMeters>NAN</DistanceMeters>
          </Trackpoint>
          <Trackpoint>
            <Time>2022-07-17T10:27:41.000Z</Time>
            <Position>
              <LatitudeDegrees>43.475113548338413238525390625</LatitudeDegrees>
              <LongitudeDegrees>-5.20152655430138111114501953125</LongitudeDegrees>
            </Position>
            <AltitudeMeters>36.59999847412109375</AltitudeMeters>
            <DistanceMeters>NAN</DistanceMeters>
          </Trackpoint>
          <Trackpoint>
            <Time>2022-07-17T10:27:43.000Z</Time>
            <Position>
              <LatitudeDegrees>43.47511388361454010009765625</LatitudeDegrees>
              <LongitudeDegrees>-5.20160919986665248870849609375</LongitudeDegrees>
            </Position>
            <AltitudeMeters>36.59999847412109375</AltitudeMeters>
            <DistanceMeters>NAN</DistanceMeters>
          </Trackpoint>
          <Trackpoint>
            <Time>2022-07-17T10:27:45.000Z</Time>
            <Position>
              <LatitudeDegrees>43.4751167334616184234619140625</LatitudeDegrees>
              <LongitudeDegrees>-5.20168639719486236572265625</LongitudeDegrees>
            </Position>
            <AltitudeMeters>36.40000152587890625</AltitudeMeters>
            <DistanceMeters>NAN</DistanceMeters>
          </Trackpoint>
          <Trackpoint>
            <Time>2022-07-17T10:27:49.000Z</Time>
            <Position>
              <LatitudeDegrees>43.475113548338413238525390625</LatitudeDegrees>
              <LongitudeDegrees>-5.2018474973738193511962890625</LongitudeDegrees>
            </Position>
            <AltitudeMeters>35.59999847412109375</AltitudeMeters>
            <DistanceMeters>NAN</DistanceMeters>
          </Trackpoint>
          <Trackpoint>
            <Time>2022-07-17T10:27:53.000Z</Time>
            <Position>
              <LatitudeDegrees>43.475094102323055267333984375</LatitudeDegrees>
              <LongitudeDegrees>-5.2020263671875</LongitudeDegrees>
            </Position>
            <AltitudeMeters>35.200000762939453125</AltitudeMeters>
            <DistanceMeters>NAN</DistanceMeters>
          </Trackpoint>
          <Trackpoint>
            <Time>2022-07-17T10:27:56.000Z</Time>
            <Position>
              <LatitudeDegrees>43.47507893107831478118896484375</LatitudeDegrees>
              <LongitudeDegrees>-5.20217455923557281494140625</LongitudeDegrees>
            </Position>
            <AltitudeMeters>35.200000762939453125</AltitudeMeters>
            <DistanceMeters>NAN</DistanceMeters>
          </Trackpoint>
          <Trackpoint>
            <Time>2022-07-17T10:28:04.000Z</Time>
            <Position>
              <LatitudeDegrees>43.47502428106963634490966796875</LatitudeDegrees>
              <LongitudeDegrees>-5.20256322808563709259033203125</LongitudeDegrees>
            </Position>
            <AltitudeMeters>34.59999847412109375</AltitudeMeters>
            <DistanceMeters>NAN</DistanceMeters>
          </Trackpoint>
          <Trackpoint>
            <Time>2022-07-17T10:28:08.000Z</Time>
            <Position>
              <LatitudeDegrees>43.47493660636246204376220703125</LatitudeDegrees>
              <LongitudeDegrees>-5.20270027220249176025390625</LongitudeDegrees>
            </Position>
            <AltitudeMeters>34.40000152587890625</AltitudeMeters>
            <DistanceMeters>NAN</DistanceMeters>
          </Trackpoint>
          <Trackpoint>
            <Time>2022-07-17T10:28:10.000Z</Time>
            <Position>
              <LatitudeDegrees>43.47488665021955966949462890625</LatitudeDegrees>
              <LongitudeDegrees>-5.20276171155273914337158203125</LongitudeDegrees>
            </Position>
            <AltitudeMeters>34.200000762939453125</AltitudeMeters>
            <DistanceMeters>NAN</DistanceMeters>
          </Trackpoint>
          <Trackpoint>
            <Time>2022-07-17T10:28:14.000Z</Time>
            <Position>
              <LatitudeDegrees>43.47482445649802684783935546875</LatitudeDegrees>
              <LongitudeDegrees>-5.20292582921683788299560546875</LongitudeDegrees>
            </Position>
            <AltitudeMeters>33.59999847412109375</AltitudeMeters>
            <DistanceMeters>NAN</DistanceMeters>
          </Trackpoint>
          <Trackpoint>
            <Time>2022-07-17T10:28:19.000Z</Time>
            <Position>
              <LatitudeDegrees>43.47482613287866115570068359375</LatitudeDegrees>
              <LongitudeDegrees>-5.203141160309314727783203125</LongitudeDegrees>
            </Position>
            <AltitudeMeters>33.200000762939453125</AltitudeMeters>
            <DistanceMeters>NAN</DistanceMeters>
          </Trackpoint>
          <Trackpoint>
            <Time>2022-07-17T10:28:21.000Z</Time>
            <Position>
              <LatitudeDegrees>43.47483099438250064849853515625</LatitudeDegrees>
              <LongitudeDegrees>-5.20322741009294986724853515625</LongitudeDegrees>
            </Position>
            <AltitudeMeters>33</AltitudeMeters>
            <DistanceMeters>NAN</DistanceMeters>
          </Trackpoint>
          <Trackpoint>
            <Time>2022-07-17T10:28:24.000Z</Time>
            <Position>
              <LatitudeDegrees>43.47484566271305084228515625</LatitudeDegrees>
              <LongitudeDegrees>-5.20336537621915340423583984375</LongitudeDegrees>
            </Position>
            <AltitudeMeters>32.799999237060546875</AltitudeMeters>
            <DistanceMeters>NAN</DistanceMeters>
          </Trackpoint>
          <Trackpoint>
            <Time>2022-07-17T10:28:29.000Z</Time>
            <Position>
              <LatitudeDegrees>43.47487173043191432952880859375</LatitudeDegrees>
              <LongitudeDegrees>-5.20359386689960956573486328125</LongitudeDegrees>
            </Position>
            <AltitudeMeters>32.200000762939453125</AltitudeMeters>
            <DistanceMeters>NAN</DistanceMeters>
          </Trackpoint>
          <Trackpoint>
            <Time>2022-07-17T10:28:31.000Z</Time>
            <Position>
              <LatitudeDegrees>43.47488480620086193084716796875</LatitudeDegrees>
              <LongitudeDegrees>-5.203693695366382598876953125</LongitudeDegrees>
            </Position>
            <AltitudeMeters>32</AltitudeMeters>
            <DistanceMeters>NAN</DistanceMeters>
          </Trackpoint>
          <Trackpoint>
            <Time>2022-07-17T10:28:36.000Z</Time>
            <Position>
              <LatitudeDegrees>43.4749108739197254180908203125</LatitudeDegrees>
              <LongitudeDegrees>-5.20388606004416942596435546875</LongitudeDegrees>
            </Position>
            <AltitudeMeters>30.3999996185302734375</AltitudeMeters>
            <DistanceMeters>NAN</DistanceMeters>
          </Trackpoint>
          <Trackpoint>
            <Time>2022-07-17T10:28:40.000Z</Time>
            <Position>
              <LatitudeDegrees>43.4748994745314121246337890625</LatitudeDegrees>
              <LongitudeDegrees>-5.204024948179721832275390625</LongitudeDegrees>
            </Position>
            <AltitudeMeters>29.3999996185302734375</AltitudeMeters>
            <DistanceMeters>NAN</DistanceMeters>
          </Trackpoint>
          <Trackpoint>
            <Time>2022-07-17T10:28:41.000Z</Time>
            <Position>
              <LatitudeDegrees>43.47488698549568653106689453125</LatitudeDegrees>
              <LongitudeDegrees>-5.20404799841344356536865234375</LongitudeDegrees>
            </Position>
            <AltitudeMeters>28.799999237060546875</AltitudeMeters>
            <DistanceMeters>NAN</DistanceMeters>
          </Trackpoint>
          <Trackpoint>
            <Time>2022-07-17T10:28:43.000Z</Time>
            <Position>
              <LatitudeDegrees>43.4748463332653045654296875</LatitudeDegrees>
              <LongitudeDegrees>-5.2040700428187847137451171875</LongitudeDegrees>
            </Position>
            <AltitudeMeters>28.200000762939453125</AltitudeMeters>
            <DistanceMeters>NAN</DistanceMeters>
          </Trackpoint>
          <Trackpoint>
            <Time>2022-07-17T10:28:45.000Z</Time>
            <Position>
              <LatitudeDegrees>43.4748022444546222686767578125</LatitudeDegrees>
              <LongitudeDegrees>-5.20406845025718212127685546875</LongitudeDegrees>
            </Position>
            <AltitudeMeters>28</AltitudeMeters>
            <DistanceMeters>NAN</DistanceMeters>
          </Trackpoint>
          <Trackpoint>
            <Time>2022-07-17T10:28:51.000Z</Time>
            <Position>
              <LatitudeDegrees>43.47463267855346202850341796875</LatitudeDegrees>
              <LongitudeDegrees>-5.204110108315944671630859375</LongitudeDegrees>
            </Position>
            <AltitudeMeters>27.3999996185302734375</AltitudeMeters>
            <DistanceMeters>NAN</DistanceMeters>
          </Trackpoint>
          <Trackpoint>
            <Time>2022-07-17T10:28:52.000Z</Time>
            <Position>
              <LatitudeDegrees>43.47459529526531696319580078125</LatitudeDegrees>
              <LongitudeDegrees>-5.204132907092571258544921875</LongitudeDegrees>
            </Position>
            <AltitudeMeters>26.799999237060546875</AltitudeMeters>
            <DistanceMeters>NAN</DistanceMeters>
          </Trackpoint>
          <Trackpoint>
            <Time>2022-07-17T10:28:54.000Z</Time>
            <Position>
              <LatitudeDegrees>43.4745030105113983154296875</LatitudeDegrees>
              <LongitudeDegrees>-5.204202644526958465576171875</LongitudeDegrees>
            </Position>
            <AltitudeMeters>25.3999996185302734375</AltitudeMeters>
            <DistanceMeters>NAN</DistanceMeters>
          </Trackpoint>
          <Trackpoint>
            <Time>2022-07-17T10:28:55.000Z</Time>
            <Position>
              <LatitudeDegrees>43.474438972771167755126953125</LatitudeDegrees>
              <LongitudeDegrees>-5.20425067283213138580322265625</LongitudeDegrees>
            </Position>
            <AltitudeMeters>25</AltitudeMeters>
            <DistanceMeters>NAN</DistanceMeters>
          </Trackpoint>
          <Trackpoint>
            <Time>2022-07-17T10:28:57.000Z</Time>
            <Position>
              <LatitudeDegrees>43.4743422456085681915283203125</LatitudeDegrees>
              <LongitudeDegrees>-5.20433373749256134033203125</LongitudeDegrees>
            </Position>
            <AltitudeMeters>23.799999237060546875</AltitudeMeters>
            <DistanceMeters>NAN</DistanceMeters>
          </Trackpoint>
          <Trackpoint>
            <Time>2022-07-17T10:29:01.000Z</Time>
            <Position>
              <LatitudeDegrees>43.474162034690380096435546875</LatitudeDegrees>
              <LongitudeDegrees>-5.20453901030123233795166015625</LongitudeDegrees>
            </Position>
            <AltitudeMeters>22.799999237060546875</AltitudeMeters>
            <DistanceMeters>NAN</DistanceMeters>
          </Trackpoint>
          <Trackpoint>
            <Time>2022-07-17T10:29:03.000Z</Time>
            <Position>
              <LatitudeDegrees>43.47411300055682659149169921875</LatitudeDegrees>
              <LongitudeDegrees>-5.20464998669922351837158203125</LongitudeDegrees>
            </Position>
            <AltitudeMeters>22.200000762939453125</AltitudeMeters>
            <DistanceMeters>NAN</DistanceMeters>
          </Trackpoint>
          <Trackpoint>
            <Time>2022-07-17T10:29:04.000Z</Time>
            <Position>
              <LatitudeDegrees>43.4741035290062427520751953125</LatitudeDegrees>
              <LongitudeDegrees>-5.2047003619372844696044921875</LongitudeDegrees>
            </Position>
            <AltitudeMeters>22.200000762939453125</AltitudeMeters>
            <DistanceMeters>NAN</DistanceMeters>
          </Trackpoint>
          <Trackpoint>
            <Time>2022-07-17T10:29:05.000Z</Time>
            <Position>
              <LatitudeDegrees>43.47410478629171848297119140625</LatitudeDegrees>
              <LongitudeDegrees>-5.20475216209888458251953125</LongitudeDegrees>
            </Position>
            <AltitudeMeters>21.799999237060546875</AltitudeMeters>
            <DistanceMeters>NAN</DistanceMeters>
          </Trackpoint>
          <Trackpoint>
            <Time>2022-07-17T10:29:06.000Z</Time>
            <Position>
              <LatitudeDegrees>43.474111072719097137451171875</LatitudeDegrees>
              <LongitudeDegrees>-5.2047848515212535858154296875</LongitudeDegrees>
            </Position>
            <AltitudeMeters>21.6000003814697265625</AltitudeMeters>
            <DistanceMeters>NAN</DistanceMeters>
          </Trackpoint>
          <Trackpoint>
            <Time>2022-07-17T10:29:08.000Z</Time>
            <Position>
              <LatitudeDegrees>43.474128507077693939208984375</LatitudeDegrees>
              <LongitudeDegrees>-5.20486238412559032440185546875</LongitudeDegrees>
            </Position>
            <AltitudeMeters>21.3999996185302734375</AltitudeMeters>
            <DistanceMeters>NAN</DistanceMeters>
          </Trackpoint>
          <Trackpoint>
            <Time>2022-07-17T10:29:18.000Z</Time>
            <Position>
              <LatitudeDegrees>43.474219702184200286865234375</LatitudeDegrees>
              <LongitudeDegrees>-5.20528885535895824432373046875</LongitudeDegrees>
            </Position>
            <AltitudeMeters>21.3999996185302734375</AltitudeMeters>
            <DistanceMeters>NAN</DistanceMeters>
          </Trackpoint>
          <Trackpoint>
            <Time>2022-07-17T10:29:25.000Z</Time>
            <Position>
              <LatitudeDegrees>43.47425021231174468994140625</LatitudeDegrees>
              <LongitudeDegrees>-5.20556327886879444122314453125</LongitudeDegrees>
            </Position>
            <AltitudeMeters>21.3999996185302734375</AltitudeMeters>
            <DistanceMeters>NAN</DistanceMeters>
          </Trackpoint>
          <Trackpoint>
            <Time>2022-07-17T10:29:32.000Z</Time>
            <Position>
              <LatitudeDegrees>43.47425130195915699005126953125</LatitudeDegrees>
              <LongitudeDegrees>-5.20576871931552886962890625</LongitudeDegrees>
            </Position>
            <AltitudeMeters>22</AltitudeMeters>
            <DistanceMeters>NAN</DistanceMeters>
          </Trackpoint>
          <Trackpoint>
            <Time>2022-07-17T10:29:37.000Z</Time>
            <Position>
              <LatitudeDegrees>43.4742616117000579833984375</LatitudeDegrees>
              <LongitudeDegrees>-5.20591012202203273773193359375</LongitudeDegrees>
            </Position>
            <AltitudeMeters>22.6000003814697265625</AltitudeMeters>
            <DistanceMeters>NAN</DistanceMeters>
          </Trackpoint>
          <Trackpoint>
            <Time>2022-07-17T10:29:38.000Z</Time>
            <Position>
              <LatitudeDegrees>43.47426437772810459136962890625</LatitudeDegrees>
              <LongitudeDegrees>-5.20593459717929363250732421875</LongitudeDegrees>
            </Position>
            <AltitudeMeters>22.799999237060546875</AltitudeMeters>
            <DistanceMeters>NAN</DistanceMeters>
          </Trackpoint>
          <Trackpoint>
            <Time>2022-07-17T10:29:40.000Z</Time>
            <Position>
              <LatitudeDegrees>43.4742642939090728759765625</LatitudeDegrees>
              <LongitudeDegrees>-5.20598455332219600677490234375</LongitudeDegrees>
            </Position>
            <AltitudeMeters>23</AltitudeMeters>
            <DistanceMeters>NAN</DistanceMeters>
          </Trackpoint>
          <Trackpoint>
            <Time>2022-07-17T10:29:49.000Z</Time>
            <Position>
              <LatitudeDegrees>43.47423671744763851165771484375</LatitudeDegrees>
              <LongitudeDegrees>-5.20617582835257053375244140625</LongitudeDegrees>
            </Position>
            <AltitudeMeters>23.6000003814697265625</AltitudeMeters>
            <DistanceMeters>NAN</DistanceMeters>
          </Trackpoint>
          <Trackpoint>
            <Time>2022-07-17T10:29:51.000Z</Time>
            <Position>
              <LatitudeDegrees>43.47422900609672069549560546875</LatitudeDegrees>
              <LongitudeDegrees>-5.2062205038964748382568359375</LongitudeDegrees>
            </Position>
            <AltitudeMeters>23.799999237060546875</AltitudeMeters>
            <DistanceMeters>NAN</DistanceMeters>
          </Trackpoint>
          <Trackpoint>
            <Time>2022-07-17T10:29:57.000Z</Time>
            <Position>
              <LatitudeDegrees>43.47420872189104557037353515625</LatitudeDegrees>
              <LongitudeDegrees>-5.20634463988244533538818359375</LongitudeDegrees>
            </Position>
            <AltitudeMeters>23.799999237060546875</AltitudeMeters>
            <DistanceMeters>NAN</DistanceMeters>
          </Trackpoint>
          <Trackpoint>
            <Time>2022-07-17T10:30:03.000Z</Time>
            <Position>
              <LatitudeDegrees>43.4741865098476409912109375</LatitudeDegrees>
              <LongitudeDegrees>-5.206549577414989471435546875</LongitudeDegrees>
            </Position>
            <AltitudeMeters>23.200000762939453125</AltitudeMeters>
            <DistanceMeters>NAN</DistanceMeters>
          </Trackpoint>
          <Trackpoint>
            <Time>2022-07-17T10:30:06.000Z</Time>
            <Position>
              <LatitudeDegrees>43.47417586483061313629150390625</LatitudeDegrees>
              <LongitudeDegrees>-5.2067173831164836883544921875</LongitudeDegrees>
            </Position>
            <AltitudeMeters>22.799999237060546875</AltitudeMeters>
            <DistanceMeters>NAN</DistanceMeters>
          </Trackpoint>
          <Trackpoint>
            <Time>2022-07-17T10:30:07.000Z</Time>
            <Position>
              <LatitudeDegrees>43.47418005578219890594482421875</LatitudeDegrees>
              <LongitudeDegrees>-5.20677454769611358642578125</LongitudeDegrees>
            </Position>
            <AltitudeMeters>22.6000003814697265625</AltitudeMeters>
            <DistanceMeters>NAN</DistanceMeters>
          </Trackpoint>
          <Trackpoint>
            <Time>2022-07-17T10:30:08.000Z</Time>
            <Position>
              <LatitudeDegrees>43.4741843305528163909912109375</LatitudeDegrees>
              <LongitudeDegrees>-5.20683431066572666168212890625</LongitudeDegrees>
            </Position>
            <AltitudeMeters>22.3999996185302734375</AltitudeMeters>
            <DistanceMeters>NAN</DistanceMeters>
          </Trackpoint>
          <Trackpoint>
            <Time>2022-07-17T10:30:10.000Z</Time>
            <Position>
              <LatitudeDegrees>43.4741829894483089447021484375</LatitudeDegrees>
              <LongitudeDegrees>-5.2069544233381748199462890625</LongitudeDegrees>
            </Position>
            <AltitudeMeters>21.799999237060546875</AltitudeMeters>
            <DistanceMeters>NAN</DistanceMeters>
          </Trackpoint>
          <Trackpoint>
            <Time>2022-07-17T10:30:13.000Z</Time>
            <Position>
              <LatitudeDegrees>43.4741444326937198638916015625</LatitudeDegrees>
              <LongitudeDegrees>-5.2071545831859111785888671875</LongitudeDegrees>
            </Position>
            <AltitudeMeters>21.3999996185302734375</AltitudeMeters>
            <DistanceMeters>NAN</DistanceMeters>
          </Trackpoint>
          <Trackpoint>
            <Time>2022-07-17T10:30:18.000Z</Time>
            <Position>
              <LatitudeDegrees>43.47407712601125240325927734375</LatitudeDegrees>
              <LongitudeDegrees>-5.2075128257274627685546875</LongitudeDegrees>
            </Position>
            <AltitudeMeters>20.6000003814697265625</AltitudeMeters>
            <DistanceMeters>NAN</DistanceMeters>
          </Trackpoint>
          <Trackpoint>
            <Time>2022-07-17T10:30:19.000Z</Time>
            <Position>
              <LatitudeDegrees>43.47406455315649509429931640625</LatitudeDegrees>
              <LongitudeDegrees>-5.20757250487804412841796875</LongitudeDegrees>
            </Position>
            <AltitudeMeters>20.200000762939453125</AltitudeMeters>
            <DistanceMeters>NAN</DistanceMeters>
          </Trackpoint>
          <Trackpoint>
            <Time>2022-07-17T10:30:24.000Z</Time>
            <Position>
              <LatitudeDegrees>43.47401526756584644317626953125</LatitudeDegrees>
              <LongitudeDegrees>-5.2078774385154247283935546875</LongitudeDegrees>
            </Position>
            <AltitudeMeters>19.3999996185302734375</AltitudeMeters>
            <DistanceMeters>NAN</DistanceMeters>
          </Trackpoint>
          <Trackpoint>
            <Time>2022-07-17T10:30:25.000Z</Time>
            <Position>
              <LatitudeDegrees>43.4740039519965648651123046875</LatitudeDegrees>
              <LongitudeDegrees>-5.2079339325428009033203125</LongitudeDegrees>
            </Position>
            <AltitudeMeters>19.200000762939453125</AltitudeMeters>
            <DistanceMeters>NAN</DistanceMeters>
          </Trackpoint>
          <Trackpoint>
            <Time>2022-07-17T10:30:31.000Z</Time>
            <Position>
              <LatitudeDegrees>43.473937399685382843017578125</LatitudeDegrees>
              <LongitudeDegrees>-5.2082110382616519927978515625</LongitudeDegrees>
            </Position>
            <AltitudeMeters>18.6000003814697265625</AltitudeMeters>
            <DistanceMeters>NAN</DistanceMeters>
          </Trackpoint>
          <Trackpoint>
            <Time>2022-07-17T10:30:35.000Z</Time>
            <Position>
              <LatitudeDegrees>43.47392440773546695709228515625</LatitudeDegrees>
              <LongitudeDegrees>-5.2083981223404407501220703125</LongitudeDegrees>
            </Position>
            <AltitudeMeters>18.6000003814697265625</AltitudeMeters>
            <DistanceMeters>NAN</DistanceMeters>
          </Trackpoint>
          <Trackpoint>
            <Time>2022-07-17T10:30:40.000Z</Time>
            <Position>
              <LatitudeDegrees>43.47394653595983982086181640625</LatitudeDegrees>
              <LongitudeDegrees>-5.208551846444606781005859375</LongitudeDegrees>
            </Position>
            <AltitudeMeters>18.6000003814697265625</AltitudeMeters>
            <DistanceMeters>NAN</DistanceMeters>
          </Trackpoint>
          <Trackpoint>
            <Time>2022-07-17T10:30:49.000Z</Time>
            <Position>
              <LatitudeDegrees>43.473968915641307830810546875</LatitudeDegrees>
              <LongitudeDegrees>-5.208819396793842315673828125</LongitudeDegrees>
            </Position>
            <AltitudeMeters>19</AltitudeMeters>
            <DistanceMeters>NAN</DistanceMeters>
          </Trackpoint>
          <Trackpoint>
            <Time>2022-07-17T10:30:56.000Z</Time>
            <Position>
              <LatitudeDegrees>43.47398056648671627044677734375</LatitudeDegrees>
              <LongitudeDegrees>-5.2090720273554325103759765625</LongitudeDegrees>
            </Position>
            <AltitudeMeters>19.200000762939453125</AltitudeMeters>
            <DistanceMeters>NAN</DistanceMeters>
          </Trackpoint>
          <Trackpoint>
            <Time>2022-07-17T10:31:00.000Z</Time>
            <Position>
              <LatitudeDegrees>43.47399900667369365692138671875</LatitudeDegrees>
              <LongitudeDegrees>-5.20923656411468982696533203125</LongitudeDegrees>
            </Position>
            <AltitudeMeters>19.3999996185302734375</AltitudeMeters>
            <DistanceMeters>NAN</DistanceMeters>
          </Trackpoint>
          <Trackpoint>
            <Time>2022-07-17T10:31:04.000Z</Time>
            <Position>
              <LatitudeDegrees>43.4740054607391357421875</LatitudeDegrees>
              <LongitudeDegrees>-5.20938676781952381134033203125</LongitudeDegrees>
            </Position>
            <AltitudeMeters>19.3999996185302734375</AltitudeMeters>
            <DistanceMeters>NAN</DistanceMeters>
          </Trackpoint>
          <Trackpoint>
            <Time>2022-07-17T10:31:05.000Z</Time>
            <Position>
              <LatitudeDegrees>43.47400319762527942657470703125</LatitudeDegrees>
              <LongitudeDegrees>-5.20942130126059055328369140625</LongitudeDegrees>
            </Position>
            <AltitudeMeters>19.3999996185302734375</AltitudeMeters>
            <DistanceMeters>NAN</DistanceMeters>
          </Trackpoint>
          <Trackpoint>
            <Time>2022-07-17T10:31:11.000Z</Time>
            <Position>
              <LatitudeDegrees>43.47401107661426067352294921875</LatitudeDegrees>
              <LongitudeDegrees>-5.2096329443156719207763671875</LongitudeDegrees>
            </Position>
            <AltitudeMeters>19.799999237060546875</AltitudeMeters>
            <DistanceMeters>NAN</DistanceMeters>
          </Trackpoint>
          <Trackpoint>
            <Time>2022-07-17T10:31:16.000Z</Time>
            <Position>
              <LatitudeDegrees>43.47405466251075267791748046875</LatitudeDegrees>
              <LongitudeDegrees>-5.2097838185727596282958984375</LongitudeDegrees>
            </Position>
            <AltitudeMeters>20.3999996185302734375</AltitudeMeters>
            <DistanceMeters>NAN</DistanceMeters>
          </Trackpoint>
          <Trackpoint>
            <Time>2022-07-17T10:31:20.000Z</Time>
            <Position>
              <LatitudeDegrees>43.47408819012343883514404296875</LatitudeDegrees>
              <LongitudeDegrees>-5.20987920463085174560546875</LongitudeDegrees>
            </Position>
            <AltitudeMeters>20.6000003814697265625</AltitudeMeters>
            <DistanceMeters>NAN</DistanceMeters>
          </Trackpoint>
          <Trackpoint>
            <Time>2022-07-17T10:31:26.000Z</Time>
            <Position>
              <LatitudeDegrees>43.47412792034447193145751953125</LatitudeDegrees>
              <LongitudeDegrees>-5.20996570587158203125</LongitudeDegrees>
            </Position>
            <AltitudeMeters>21.3999996185302734375</AltitudeMeters>
            <DistanceMeters>NAN</DistanceMeters>
          </Trackpoint>
          <Trackpoint>
            <Time>2022-07-17T10:31:28.000Z</Time>
            <Position>
              <LatitudeDegrees>43.47413026727735996246337890625</LatitudeDegrees>
              <LongitudeDegrees>-5.209994204342365264892578125</LongitudeDegrees>
            </Position>
            <AltitudeMeters>21.6000003814697265625</AltitudeMeters>
            <DistanceMeters>NAN</DistanceMeters>
          </Trackpoint>
          <Trackpoint>
            <Time>2022-07-17T10:31:30.000Z</Time>
            <Position>
              <LatitudeDegrees>43.47413445822894573211669921875</LatitudeDegrees>
              <LongitudeDegrees>-5.210015662014484405517578125</LongitudeDegrees>
            </Position>
            <AltitudeMeters>21.6000003814697265625</AltitudeMeters>
            <DistanceMeters>NAN</DistanceMeters>
          </Trackpoint>
          <Trackpoint>
            <Time>2022-07-17T10:31:32.000Z</Time>
            <Position>
              <LatitudeDegrees>43.47412942908704280853271484375</LatitudeDegrees>
              <LongitudeDegrees>-5.21003703586757183074951171875</LongitudeDegrees>
            </Position>
            <AltitudeMeters>21.799999237060546875</AltitudeMeters>
            <DistanceMeters>NAN</DistanceMeters>
          </Trackpoint>
          <Trackpoint>
            <Time>2022-07-17T10:31:34.000Z</Time>
            <Position>
              <LatitudeDegrees>43.47412255592644214630126953125</LatitudeDegrees>
              <LongitudeDegrees>-5.21005949936807155609130859375</LongitudeDegrees>
            </Position>
            <AltitudeMeters>21.799999237060546875</AltitudeMeters>
            <DistanceMeters>NAN</DistanceMeters>
          </Trackpoint>
          <Trackpoint>
            <Time>2022-07-17T10:31:38.000Z</Time>
            <Position>
              <LatitudeDegrees>43.47407863475382328033447265625</LatitudeDegrees>
              <LongitudeDegrees>-5.21013678051531314849853515625</LongitudeDegrees>
            </Position>
            <AltitudeMeters>22.200000762939453125</AltitudeMeters>
            <DistanceMeters>NAN</DistanceMeters>
          </Trackpoint>
          <Trackpoint>
            <Time>2022-07-17T10:31:43.000Z</Time>
            <Position>
              <LatitudeDegrees>43.47403638996183872222900390625</LatitudeDegrees>
              <LongitudeDegrees>-5.21026083268225193023681640625</LongitudeDegrees>
            </Position>
            <AltitudeMeters>22.6000003814697265625</AltitudeMeters>
            <DistanceMeters>NAN</DistanceMeters>
          </Trackpoint>
          <Trackpoint>
            <Time>2022-07-17T10:31:46.000Z</Time>
            <Position>
              <LatitudeDegrees>43.4740210510790348052978515625</LatitudeDegrees>
              <LongitudeDegrees>-5.2103306539356708526611328125</LongitudeDegrees>
            </Position>
            <AltitudeMeters>23</AltitudeMeters>
            <DistanceMeters>NAN</DistanceMeters>
          </Trackpoint>
          <Trackpoint>
            <Time>2022-07-17T10:31:53.000Z</Time>
            <Position>
              <LatitudeDegrees>43.473970256745815277099609375</LatitudeDegrees>
              <LongitudeDegrees>-5.210445821285247802734375</LongitudeDegrees>
            </Position>
            <AltitudeMeters>23.3999996185302734375</AltitudeMeters>
            <DistanceMeters>NAN</DistanceMeters>
          </Trackpoint>
          <Trackpoint>
            <Time>2022-07-17T10:31:57.000Z</Time>
            <Position>
              <LatitudeDegrees>43.47395927645266056060791015625</LatitudeDegrees>
              <LongitudeDegrees>-5.21044322289526462554931640625</LongitudeDegrees>
            </Position>
            <AltitudeMeters>23.6000003814697265625</AltitudeMeters>
            <DistanceMeters>NAN</DistanceMeters>
          </Trackpoint>
          <Trackpoint>
            <Time>2022-07-17T10:32:22.000Z</Time>
            <Position>
              <LatitudeDegrees>43.47400789149105548858642578125</LatitudeDegrees>
              <LongitudeDegrees>-5.210547409951686859130859375</LongitudeDegrees>
            </Position>
            <AltitudeMeters>23.200000762939453125</AltitudeMeters>
            <DistanceMeters>NAN</DistanceMeters>
          </Trackpoint>
          <Trackpoint>
            <Time>2022-07-17T10:32:24.000Z</Time>
            <Position>
              <LatitudeDegrees>43.4740052931010723114013671875</LatitudeDegrees>
              <LongitudeDegrees>-5.210628546774387359619140625</LongitudeDegrees>
            </Position>
            <AltitudeMeters>23</AltitudeMeters>
            <DistanceMeters>NAN</DistanceMeters>
          </Trackpoint>
          <Trackpoint>
            <Time>2022-07-17T10:32:28.000Z</Time>
            <Position>
              <LatitudeDegrees>43.4740143455564975738525390625</LatitudeDegrees>
              <LongitudeDegrees>-5.2108090929687023162841796875</LongitudeDegrees>
            </Position>
            <AltitudeMeters>22.3999996185302734375</AltitudeMeters>
            <DistanceMeters>NAN</DistanceMeters>
          </Trackpoint>
          <Trackpoint>
            <Time>2022-07-17T10:32:30.000Z</Time>
            <Position>
              <LatitudeDegrees>43.474016524851322174072265625</LatitudeDegrees>
              <LongitudeDegrees>-5.21090271882712841033935546875</LongitudeDegrees>
            </Position>
            <AltitudeMeters>21.6000003814697265625</AltitudeMeters>
            <DistanceMeters>NAN</DistanceMeters>
          </Trackpoint>
          <Trackpoint>
            <Time>2022-07-17T10:32:34.000Z</Time>
            <Position>
              <LatitudeDegrees>43.474025242030620574951171875</LatitudeDegrees>
              <LongitudeDegrees>-5.21109365858137607574462890625</LongitudeDegrees>
            </Position>
            <AltitudeMeters>21.200000762939453125</AltitudeMeters>
            <DistanceMeters>NAN</DistanceMeters>
          </Trackpoint>
          <Trackpoint>
            <Time>2022-07-17T10:32:43.000Z</Time>
            <Position>
              <LatitudeDegrees>43.47408031113445758819580078125</LatitudeDegrees>
              <LongitudeDegrees>-5.2114920504391193389892578125</LongitudeDegrees>
            </Position>
            <AltitudeMeters>20.6000003814697265625</AltitudeMeters>
            <DistanceMeters>NAN</DistanceMeters>
          </Trackpoint>
          <Trackpoint>
            <Time>2022-07-17T10:32:51.000Z</Time>
            <Position>
              <LatitudeDegrees>43.47412205301225185394287109375</LatitudeDegrees>
              <LongitudeDegrees>-5.21186672151088714599609375</LongitudeDegrees>
            </Position>
            <AltitudeMeters>19.799999237060546875</AltitudeMeters>
            <DistanceMeters>NAN</DistanceMeters>
          </Trackpoint>
          <Trackpoint>
            <Time>2022-07-17T10:32:54.000Z</Time>
            <Position>
              <LatitudeDegrees>43.4741301834583282470703125</LatitudeDegrees>
              <LongitudeDegrees>-5.21196286194026470184326171875</LongitudeDegrees>
            </Position>
            <AltitudeMeters>19.6000003814697265625</AltitudeMeters>
            <DistanceMeters>NAN</DistanceMeters>
          </Trackpoint>
          <Trackpoint>
            <Time>2022-07-17T10:32:56.000Z</Time>
            <Position>
              <LatitudeDegrees>43.47413085401058197021484375</LatitudeDegrees>
              <LongitudeDegrees>-5.21199706010520458221435546875</LongitudeDegrees>
            </Position>
            <AltitudeMeters>19.6000003814697265625</AltitudeMeters>
            <DistanceMeters>NAN</DistanceMeters>
          </Trackpoint>
          <Trackpoint>
            <Time>2022-07-17T10:32:58.000Z</Time>
            <Position>
              <LatitudeDegrees>43.474119119346141815185546875</LatitudeDegrees>
              <LongitudeDegrees>-5.212047435343265533447265625</LongitudeDegrees>
            </Position>
            <AltitudeMeters>19.6000003814697265625</AltitudeMeters>
            <DistanceMeters>NAN</DistanceMeters>
          </Trackpoint>
          <Trackpoint>
            <Time>2022-07-17T10:33:02.000Z</Time>
            <Position>
              <LatitudeDegrees>43.47409288398921489715576171875</LatitudeDegrees>
              <LongitudeDegrees>-5.21215505897998809814453125</LongitudeDegrees>
            </Position>
            <AltitudeMeters>19.6000003814697265625</AltitudeMeters>
            <DistanceMeters>NAN</DistanceMeters>
          </Trackpoint>
          <Trackpoint>
            <Time>2022-07-17T10:33:08.000Z</Time>
            <Position>
              <LatitudeDegrees>43.474076204001903533935546875</LatitudeDegrees>
              <LongitudeDegrees>-5.21239000372588634490966796875</LongitudeDegrees>
            </Position>
            <AltitudeMeters>18.799999237060546875</AltitudeMeters>
            <DistanceMeters>NAN</DistanceMeters>
          </Trackpoint>
          <Trackpoint>
            <Time>2022-07-17T10:33:15.000Z</Time>
            <Position>
              <LatitudeDegrees>43.47404980100691318511962890625</LatitudeDegrees>
              <LongitudeDegrees>-5.21272025071084499359130859375</LongitudeDegrees>
            </Position>
            <AltitudeMeters>18.799999237060546875</AltitudeMeters>
            <DistanceMeters>NAN</DistanceMeters>
          </Trackpoint>
          <Trackpoint>
            <Time>2022-07-17T10:33:20.000Z</Time>
            <Position>
              <LatitudeDegrees>43.47402616403996944427490234375</LatitudeDegrees>
              <LongitudeDegrees>-5.21281597204506397247314453125</LongitudeDegrees>
            </Position>
            <AltitudeMeters>18.6000003814697265625</AltitudeMeters>
            <DistanceMeters>NAN</DistanceMeters>
          </Trackpoint>
          <Trackpoint>
            <Time>2022-07-17T10:33:21.000Z</Time>
            <Position>
              <LatitudeDegrees>43.47402616403996944427490234375</LatitudeDegrees>
              <LongitudeDegrees>-5.21281597204506397247314453125</LongitudeDegrees>
            </Position>
            <AltitudeMeters>18.3999996185302734375</AltitudeMeters>
            <DistanceMeters>NAN</DistanceMeters>
          </Trackpoint>
          <Trackpoint>
            <Time>2022-07-17T10:34:37.000Z</Time>
            <Position>
              <LatitudeDegrees>43.47401610575616359710693359375</LatitudeDegrees>
              <LongitudeDegrees>-5.21286441944539546966552734375</LongitudeDegrees>
            </Position>
            <AltitudeMeters>18.200000762939453125</AltitudeMeters>
            <DistanceMeters>NAN</DistanceMeters>
          </Trackpoint>
          <Trackpoint>
            <Time>2022-07-17T10:34:39.000Z</Time>
            <Position>
              <LatitudeDegrees>43.4739858470857143402099609375</LatitudeDegrees>
              <LongitudeDegrees>-5.2129253558814525604248046875</LongitudeDegrees>
            </Position>
            <AltitudeMeters>18.200000762939453125</AltitudeMeters>
            <DistanceMeters>NAN</DistanceMeters>
          </Trackpoint>
          <Trackpoint>
            <Time>2022-07-17T10:34:45.000Z</Time>
            <Position>
              <LatitudeDegrees>43.47391049377620220184326171875</LatitudeDegrees>
              <LongitudeDegrees>-5.21313532255589962005615234375</LongitudeDegrees>
            </Position>
            <AltitudeMeters>18.6000003814697265625</AltitudeMeters>
            <DistanceMeters>NAN</DistanceMeters>
          </Trackpoint>
          <Trackpoint>
            <Time>2022-07-17T10:34:51.000Z</Time>
            <Position>
              <LatitudeDegrees>43.473809324204921722412109375</LatitudeDegrees>
              <LongitudeDegrees>-5.213371776044368743896484375</LongitudeDegrees>
            </Position>
            <AltitudeMeters>18.3999996185302734375</AltitudeMeters>
            <DistanceMeters>NAN</DistanceMeters>
          </Trackpoint>
          <Trackpoint>
            <Time>2022-07-17T10:34:57.000Z</Time>
            <Position>
              <LatitudeDegrees>43.4737669117748737335205078125</LatitudeDegrees>
              <LongitudeDegrees>-5.21358543075621128082275390625</LongitudeDegrees>
            </Position>
            <AltitudeMeters>18.200000762939453125</AltitudeMeters>
            <DistanceMeters>NAN</DistanceMeters>
          </Trackpoint>
          <Trackpoint>
            <Time>2022-07-17T10:34:58.000Z</Time>
            <Position>
              <LatitudeDegrees>43.473750986158847808837890625</LatitudeDegrees>
              <LongitudeDegrees>-5.213613845407962799072265625</LongitudeDegrees>
            </Position>
            <AltitudeMeters>18.200000762939453125</AltitudeMeters>
            <DistanceMeters>NAN</DistanceMeters>
          </Trackpoint>
          <Trackpoint>
            <Time>2022-07-17T10:35:00.000Z</Time>
            <Position>
              <LatitudeDegrees>43.4737421013414859771728515625</LatitudeDegrees>
              <LongitudeDegrees>-5.21361744962632656097412109375</LongitudeDegrees>
            </Position>
            <AltitudeMeters>18</AltitudeMeters>
            <DistanceMeters>NAN</DistanceMeters>
          </Trackpoint>
          <Trackpoint>
            <Time>2022-07-17T10:35:01.000Z</Time>
            <Position>
              <LatitudeDegrees>43.4737421013414859771728515625</LatitudeDegrees>
              <LongitudeDegrees>-5.21361744962632656097412109375</LongitudeDegrees>
            </Position>
            <AltitudeMeters>18</AltitudeMeters>
            <DistanceMeters>NAN</DistanceMeters>
          </Trackpoint>
          <Trackpoint>
            <Time>2022-07-17T10:35:06.000Z</Time>
            <Position>
              <LatitudeDegrees>43.47371268086135387420654296875</LatitudeDegrees>
              <LongitudeDegrees>-5.21370093338191509246826171875</LongitudeDegrees>
            </Position>
            <AltitudeMeters>18</AltitudeMeters>
            <DistanceMeters>NAN</DistanceMeters>
          </Trackpoint>
          <Trackpoint>
            <Time>2022-07-17T10:35:08.000Z</Time>
            <Position>
              <LatitudeDegrees>43.47368703223764896392822265625</LatitudeDegrees>
              <LongitudeDegrees>-5.213771760463714599609375</LongitudeDegrees>
            </Position>
            <AltitudeMeters>18.200000762939453125</AltitudeMeters>
            <DistanceMeters>NAN</DistanceMeters>
          </Trackpoint>
          <Trackpoint>
            <Time>2022-07-17T10:35:12.000Z</Time>
            <Position>
              <LatitudeDegrees>43.47364411689341068267822265625</LatitudeDegrees>
              <LongitudeDegrees>-5.2139117382466793060302734375</LongitudeDegrees>
            </Position>
            <AltitudeMeters>18.200000762939453125</AltitudeMeters>
            <DistanceMeters>NAN</DistanceMeters>
          </Trackpoint>
          <Trackpoint>
            <Time>2022-07-17T10:35:15.000Z</Time>
            <Position>
              <LatitudeDegrees>43.4736125171184539794921875</LatitudeDegrees>
              <LongitudeDegrees>-5.21398692391812801361083984375</LongitudeDegrees>
            </Position>
            <AltitudeMeters>18.3999996185302734375</AltitudeMeters>
            <DistanceMeters>NAN</DistanceMeters>
          </Trackpoint>
          <Trackpoint>
            <Time>2022-07-17T10:35:17.000Z</Time>
            <Position>
              <LatitudeDegrees>43.47361243329942226409912109375</LatitudeDegrees>
              <LongitudeDegrees>-5.2140359580516815185546875</LongitudeDegrees>
            </Position>
            <AltitudeMeters>18.3999996185302734375</AltitudeMeters>
            <DistanceMeters>NAN</DistanceMeters>
          </Trackpoint>
          <Trackpoint>
            <Time>2022-07-17T10:35:18.000Z</Time>
            <Position>
              <LatitudeDegrees>43.47360639832913875579833984375</LatitudeDegrees>
              <LongitudeDegrees>-5.21406588144600391387939453125</LongitudeDegrees>
            </Position>
            <AltitudeMeters>18.200000762939453125</AltitudeMeters>
            <DistanceMeters>NAN</DistanceMeters>
          </Trackpoint>
          <Trackpoint>
            <Time>2022-07-17T10:35:22.000Z</Time>
            <Position>
              <LatitudeDegrees>43.47354806028306484222412109375</LatitudeDegrees>
              <LongitudeDegrees>-5.2141719125211238861083984375</LongitudeDegrees>
            </Position>
            <AltitudeMeters>18.3999996185302734375</AltitudeMeters>
            <DistanceMeters>NAN</DistanceMeters>
          </Trackpoint>
          <Trackpoint>
            <Time>2022-07-17T10:35:29.000Z</Time>
            <Position>
              <LatitudeDegrees>43.4734561108052730560302734375</LatitudeDegrees>
              <LongitudeDegrees>-5.2144220285117626190185546875</LongitudeDegrees>
            </Position>
            <AltitudeMeters>18.799999237060546875</AltitudeMeters>
            <DistanceMeters>NAN</DistanceMeters>
          </Trackpoint>
          <Trackpoint>
            <Time>2022-07-17T10:35:36.000Z</Time>
            <Position>
              <LatitudeDegrees>43.4733867086470127105712890625</LatitudeDegrees>
              <LongitudeDegrees>-5.21467993967235088348388671875</LongitudeDegrees>
            </Position>
            <AltitudeMeters>18.799999237060546875</AltitudeMeters>
            <DistanceMeters>NAN</DistanceMeters>
          </Trackpoint>
          <Trackpoint>
            <Time>2022-07-17T10:35:37.000Z</Time>
            <Position>
              <LatitudeDegrees>43.473378159105777740478515625</LatitudeDegrees>
              <LongitudeDegrees>-5.21471078507602214813232421875</LongitudeDegrees>
            </Position>
            <AltitudeMeters>18.799999237060546875</AltitudeMeters>
            <DistanceMeters>NAN</DistanceMeters>
          </Trackpoint>
          <Trackpoint>
            <Time>2022-07-17T10:35:45.000Z</Time>
            <Position>
              <LatitudeDegrees>43.47330112941563129425048828125</LatitudeDegrees>
              <LongitudeDegrees>-5.214957632124423980712890625</LongitudeDegrees>
            </Position>
            <AltitudeMeters>18.799999237060546875</AltitudeMeters>
            <DistanceMeters>NAN</DistanceMeters>
          </Trackpoint>
          <Trackpoint>
            <Time>2022-07-17T10:35:46.000Z</Time>
            <Position>
              <LatitudeDegrees>43.473291657865047454833984375</LatitudeDegrees>
              <LongitudeDegrees>-5.214995183050632476806640625</LongitudeDegrees>
            </Position>
            <AltitudeMeters>18.799999237060546875</AltitudeMeters>
            <DistanceMeters>NAN</DistanceMeters>
          </Trackpoint>
          <Trackpoint>
            <Time>2022-07-17T10:35:52.000Z</Time>
            <Position>
              <LatitudeDegrees>43.4732609800994396209716796875</LatitudeDegrees>
              <LongitudeDegrees>-5.21524320356547832489013671875</LongitudeDegrees>
            </Position>
            <AltitudeMeters>19</AltitudeMeters>
            <DistanceMeters>NAN</DistanceMeters>
          </Trackpoint>
          <Trackpoint>
            <Time>2022-07-17T10:35:57.000Z</Time>
            <Position>
              <LatitudeDegrees>43.4732418693602085113525390625</LatitudeDegrees>
              <LongitudeDegrees>-5.21546968258917331695556640625</LongitudeDegrees>
            </Position>
            <AltitudeMeters>18.799999237060546875</AltitudeMeters>
            <DistanceMeters>NAN</DistanceMeters>
          </Trackpoint>
          <Trackpoint>
            <Time>2022-07-17T10:36:02.000Z</Time>
            <Position>
              <LatitudeDegrees>43.473171629011631011962890625</LatitudeDegrees>
              <LongitudeDegrees>-5.21560949273407459259033203125</LongitudeDegrees>
            </Position>
            <AltitudeMeters>19</AltitudeMeters>
            <DistanceMeters>NAN</DistanceMeters>
          </Trackpoint>
          <Trackpoint>
            <Time>2022-07-17T10:36:05.000Z</Time>
            <Position>
              <LatitudeDegrees>43.473125360906124114990234375</LatitudeDegrees>
              <LongitudeDegrees>-5.2156719379127025604248046875</LongitudeDegrees>
            </Position>
            <AltitudeMeters>19.799999237060546875</AltitudeMeters>
            <DistanceMeters>NAN</DistanceMeters>
          </Trackpoint>
          <Trackpoint>
            <Time>2022-07-17T10:36:08.000Z</Time>
            <Position>
              <LatitudeDegrees>43.473079763352870941162109375</LatitudeDegrees>
              <LongitudeDegrees>-5.2157326228916645050048828125</LongitudeDegrees>
            </Position>
            <AltitudeMeters>20.799999237060546875</AltitudeMeters>
            <DistanceMeters>NAN</DistanceMeters>
          </Trackpoint>
          <Trackpoint>
            <Time>2022-07-17T10:36:10.000Z</Time>
            <Position>
              <LatitudeDegrees>43.47306467592716217041015625</LatitudeDegrees>
              <LongitudeDegrees>-5.2157604508101940155029296875</LongitudeDegrees>
            </Position>
            <AltitudeMeters>21.3999996185302734375</AltitudeMeters>
            <DistanceMeters>NAN</DistanceMeters>
          </Trackpoint>
          <Trackpoint>
            <Time>2022-07-17T10:36:11.000Z</Time>
            <Position>
              <LatitudeDegrees>43.47305956296622753143310546875</LatitudeDegrees>
              <LongitudeDegrees>-5.21578383632004261016845703125</LongitudeDegrees>
            </Position>
            <AltitudeMeters>21.6000003814697265625</AltitudeMeters>
            <DistanceMeters>NAN</DistanceMeters>
          </Trackpoint>
          <Trackpoint>
            <Time>2022-07-17T10:36:12.000Z</Time>
            <Position>
              <LatitudeDegrees>43.47306157462298870086669921875</LatitudeDegrees>
              <LongitudeDegrees>-5.215809233486652374267578125</LongitudeDegrees>
            </Position>
            <AltitudeMeters>22</AltitudeMeters>
            <DistanceMeters>NAN</DistanceMeters>
          </Trackpoint>
          <Trackpoint>
            <Time>2022-07-17T10:36:14.000Z</Time>
            <Position>
              <LatitudeDegrees>43.47308236174285411834716796875</LatitudeDegrees>
              <LongitudeDegrees>-5.2158653922379016876220703125</LongitudeDegrees>
            </Position>
            <AltitudeMeters>22.3999996185302734375</AltitudeMeters>
            <DistanceMeters>NAN</DistanceMeters>
          </Trackpoint>
          <Trackpoint>
            <Time>2022-07-17T10:36:20.000Z</Time>
            <Position>
              <LatitudeDegrees>43.4731805138289928436279296875</LatitudeDegrees>
              <LongitudeDegrees>-5.21607938222587108612060546875</LongitudeDegrees>
            </Position>
            <AltitudeMeters>22.799999237060546875</AltitudeMeters>
            <DistanceMeters>NAN</DistanceMeters>
          </Trackpoint>
          <Trackpoint>
            <Time>2022-07-17T10:36:24.000Z</Time>
            <Position>
              <LatitudeDegrees>43.47325184382498264312744140625</LatitudeDegrees>
              <LongitudeDegrees>-5.21624634973704814910888671875</LongitudeDegrees>
            </Position>
            <AltitudeMeters>23</AltitudeMeters>
            <DistanceMeters>NAN</DistanceMeters>
          </Trackpoint>
          <Trackpoint>
            <Time>2022-07-17T10:36:28.000Z</Time>
            <Position>
              <LatitudeDegrees>43.47332996316254138946533203125</LatitudeDegrees>
              <LongitudeDegrees>-5.21641784347593784332275390625</LongitudeDegrees>
            </Position>
            <AltitudeMeters>23.200000762939453125</AltitudeMeters>
            <DistanceMeters>NAN</DistanceMeters>
          </Trackpoint>
          <Trackpoint>
            <Time>2022-07-17T10:36:34.000Z</Time>
            <Position>
              <LatitudeDegrees>43.473473377525806427001953125</LatitudeDegrees>
              <LongitudeDegrees>-5.21674457006156444549560546875</LongitudeDegrees>
            </Position>
            <AltitudeMeters>22.799999237060546875</AltitudeMeters>
            <DistanceMeters>NAN</DistanceMeters>
          </Trackpoint>
          <Trackpoint>
            <Time>2022-07-17T10:36:36.000Z</Time>
            <Position>
              <LatitudeDegrees>43.47352274693548679351806640625</LatitudeDegrees>
              <LongitudeDegrees>-5.2168504334986209869384765625</LongitudeDegrees>
            </Position>
            <AltitudeMeters>22.6000003814697265625</AltitudeMeters>
            <DistanceMeters>NAN</DistanceMeters>
          </Trackpoint>
          <Trackpoint>
            <Time>2022-07-17T10:36:43.000Z</Time>
            <Position>
              <LatitudeDegrees>43.47371972166001796722412109375</LatitudeDegrees>
              <LongitudeDegrees>-5.217283107340335845947265625</LongitudeDegrees>
            </Position>
            <AltitudeMeters>22.3999996185302734375</AltitudeMeters>
            <DistanceMeters>NAN</DistanceMeters>
          </Trackpoint>
          <Trackpoint>
            <Time>2022-07-17T10:36:46.000Z</Time>
            <Position>
              <LatitudeDegrees>43.473805300891399383544921875</LatitudeDegrees>
              <LongitudeDegrees>-5.217471532523632049560546875</LongitudeDegrees>
            </Position>
            <AltitudeMeters>22</AltitudeMeters>
            <DistanceMeters>NAN</DistanceMeters>
          </Trackpoint>
          <Trackpoint>
            <Time>2022-07-17T10:36:49.000Z</Time>
            <Position>
              <LatitudeDegrees>43.47388870082795619964599609375</LatitudeDegrees>
              <LongitudeDegrees>-5.2176542580127716064453125</LongitudeDegrees>
            </Position>
            <AltitudeMeters>21.799999237060546875</AltitudeMeters>
            <DistanceMeters>NAN</DistanceMeters>
          </Trackpoint>
          <Trackpoint>
            <Time>2022-07-17T10:36:53.000Z</Time>
            <Position>
              <LatitudeDegrees>43.473993726074695587158203125</LatitudeDegrees>
              <LongitudeDegrees>-5.21789490245282649993896484375</LongitudeDegrees>
            </Position>
            <AltitudeMeters>21.3999996185302734375</AltitudeMeters>
            <DistanceMeters>NAN</DistanceMeters>
          </Trackpoint>
          <Trackpoint>
            <Time>2022-07-17T10:37:02.000Z</Time>
            <Position>
              <LatitudeDegrees>43.474221043288707733154296875</LatitudeDegrees>
              <LongitudeDegrees>-5.21839060820639133453369140625</LongitudeDegrees>
            </Position>
            <AltitudeMeters>21.3999996185302734375</AltitudeMeters>
            <DistanceMeters>NAN</DistanceMeters>
          </Trackpoint>
          <Trackpoint>
            <Time>2022-07-17T10:37:09.000Z</Time>
            <Position>
              <LatitudeDegrees>43.47441458143293857574462890625</LatitudeDegrees>
              <LongitudeDegrees>-5.2187393791973590850830078125</LongitudeDegrees>
            </Position>
            <AltitudeMeters>22</AltitudeMeters>
            <DistanceMeters>NAN</DistanceMeters>
          </Trackpoint>
          <Trackpoint>
            <Time>2022-07-17T10:37:15.000Z</Time>
            <Position>
              <LatitudeDegrees>43.47455640323460102081298828125</LatitudeDegrees>
              <LongitudeDegrees>-5.21897516213357448577880859375</LongitudeDegrees>
            </Position>
            <AltitudeMeters>23</AltitudeMeters>
            <DistanceMeters>NAN</DistanceMeters>
          </Trackpoint>
          <Trackpoint>
            <Time>2022-07-17T10:37:16.000Z</Time>
            <Position>
              <LatitudeDegrees>43.474561013281345367431640625</LatitudeDegrees>
              <LongitudeDegrees>-5.21901749074459075927734375</LongitudeDegrees>
            </Position>
            <AltitudeMeters>23</AltitudeMeters>
            <DistanceMeters>NAN</DistanceMeters>
          </Trackpoint>
          <Trackpoint>
            <Time>2022-07-17T10:37:17.000Z</Time>
            <Position>
              <LatitudeDegrees>43.47456210292875766754150390625</LatitudeDegrees>
              <LongitudeDegrees>-5.21907406859099864959716796875</LongitudeDegrees>
            </Position>
            <AltitudeMeters>23</AltitudeMeters>
            <DistanceMeters>NAN</DistanceMeters>
          </Trackpoint>
          <Trackpoint>
            <Time>2022-07-17T10:37:18.000Z</Time>
            <Position>
              <LatitudeDegrees>43.474566042423248291015625</LatitudeDegrees>
              <LongitudeDegrees>-5.219145230948925018310546875</LongitudeDegrees>
            </Position>
            <AltitudeMeters>23.200000762939453125</AltitudeMeters>
            <DistanceMeters>NAN</DistanceMeters>
          </Trackpoint>
          <Trackpoint>
            <Time>2022-07-17T10:37:19.000Z</Time>
            <Position>
              <LatitudeDegrees>43.47457475960254669189453125</LatitudeDegrees>
              <LongitudeDegrees>-5.219185464084148406982421875</LongitudeDegrees>
            </Position>
            <AltitudeMeters>23.3999996185302734375</AltitudeMeters>
            <DistanceMeters>NAN</DistanceMeters>
          </Trackpoint>
          <Trackpoint>
            <Time>2022-07-17T10:37:24.000Z</Time>
            <Position>
              <LatitudeDegrees>43.47465765662491321563720703125</LatitudeDegrees>
              <LongitudeDegrees>-5.21938771940767765045166015625</LongitudeDegrees>
            </Position>
            <AltitudeMeters>24.200000762939453125</AltitudeMeters>
            <DistanceMeters>NAN</DistanceMeters>
          </Trackpoint>
          <Trackpoint>
            <Time>2022-07-17T10:37:26.000Z</Time>
            <Position>
              <LatitudeDegrees>43.47468766383826732635498046875</LatitudeDegrees>
              <LongitudeDegrees>-5.2194511704146862030029296875</LongitudeDegrees>
            </Position>
            <AltitudeMeters>24.3999996185302734375</AltitudeMeters>
            <DistanceMeters>NAN</DistanceMeters>
          </Trackpoint>
          <Trackpoint>
            <Time>2022-07-17T10:37:30.000Z</Time>
            <Position>
              <LatitudeDegrees>43.474760837852954864501953125</LatitudeDegrees>
              <LongitudeDegrees>-5.21959416568279266357421875</LongitudeDegrees>
            </Position>
            <AltitudeMeters>25</AltitudeMeters>
            <DistanceMeters>NAN</DistanceMeters>
          </Trackpoint>
          <Trackpoint>
            <Time>2022-07-17T10:37:32.000Z</Time>
            <Position>
              <LatitudeDegrees>43.474786318838596343994140625</LatitudeDegrees>
              <LongitudeDegrees>-5.2196603827178478240966796875</LongitudeDegrees>
            </Position>
            <AltitudeMeters>25.3999996185302734375</AltitudeMeters>
            <DistanceMeters>NAN</DistanceMeters>
          </Trackpoint>
          <Trackpoint>
            <Time>2022-07-17T10:37:35.000Z</Time>
            <Position>
              <LatitudeDegrees>43.4748371131718158721923828125</LatitudeDegrees>
              <LongitudeDegrees>-5.21978150121867656707763671875</LongitudeDegrees>
            </Position>
            <AltitudeMeters>25.6000003814697265625</AltitudeMeters>
            <DistanceMeters>NAN</DistanceMeters>
          </Trackpoint>
          <Trackpoint>
            <Time>2022-07-17T10:37:39.000Z</Time>
            <Position>
              <LatitudeDegrees>43.474902324378490447998046875</LatitudeDegrees>
              <LongitudeDegrees>-5.21991737186908721923828125</LongitudeDegrees>
            </Position>
            <AltitudeMeters>26.200000762939453125</AltitudeMeters>
            <DistanceMeters>NAN</DistanceMeters>
          </Trackpoint>
          <Trackpoint>
            <Time>2022-07-17T10:37:40.000Z</Time>
            <Position>
              <LatitudeDegrees>43.4749159030616283416748046875</LatitudeDegrees>
              <LongitudeDegrees>-5.21994159556925296783447265625</LongitudeDegrees>
            </Position>
            <AltitudeMeters>26.3999996185302734375</AltitudeMeters>
            <DistanceMeters>NAN</DistanceMeters>
          </Trackpoint>
          <Trackpoint>
            <Time>2022-07-17T10:37:42.000Z</Time>
            <Position>
              <LatitudeDegrees>43.47495320253074169158935546875</LatitudeDegrees>
              <LongitudeDegrees>-5.2200033701956272125244140625</LongitudeDegrees>
            </Position>
            <AltitudeMeters>26.6000003814697265625</AltitudeMeters>
            <DistanceMeters>NAN</DistanceMeters>
          </Trackpoint>
          <Trackpoint>
            <Time>2022-07-17T10:37:49.000Z</Time>
            <Position>
              <LatitudeDegrees>43.47507038153707981109619140625</LatitudeDegrees>
              <LongitudeDegrees>-5.22027318365871906280517578125</LongitudeDegrees>
            </Position>
            <AltitudeMeters>27.3999996185302734375</AltitudeMeters>
            <DistanceMeters>NAN</DistanceMeters>
          </Trackpoint>
          <Trackpoint>
            <Time>2022-07-17T10:37:51.000Z</Time>
            <Position>
              <LatitudeDegrees>43.475102484226226806640625</LatitudeDegrees>
              <LongitudeDegrees>-5.2203473635017871856689453125</LongitudeDegrees>
            </Position>
            <AltitudeMeters>27.6000003814697265625</AltitudeMeters>
            <DistanceMeters>NAN</DistanceMeters>
          </Trackpoint>
          <Trackpoint>
            <Time>2022-07-17T10:37:55.000Z</Time>
            <Position>
              <LatitudeDegrees>43.475159145891666412353515625</LatitudeDegrees>
              <LongitudeDegrees>-5.22048122249543666839599609375</LongitudeDegrees>
            </Position>
            <AltitudeMeters>28</AltitudeMeters>
            <DistanceMeters>NAN</DistanceMeters>
          </Trackpoint>
          <Trackpoint>
            <Time>2022-07-17T10:37:58.000Z</Time>
            <Position>
              <LatitudeDegrees>43.4752085991203784942626953125</LatitudeDegrees>
              <LongitudeDegrees>-5.22058750502765178680419921875</LongitudeDegrees>
            </Position>
            <AltitudeMeters>28.6000003814697265625</AltitudeMeters>
            <DistanceMeters>NAN</DistanceMeters>
          </Trackpoint>
          <Trackpoint>
            <Time>2022-07-17T10:38:00.000Z</Time>
            <Position>
              <LatitudeDegrees>43.475236594676971435546875</LatitudeDegrees>
              <LongitudeDegrees>-5.22064919583499431610107421875</LongitudeDegrees>
            </Position>
            <AltitudeMeters>28.799999237060546875</AltitudeMeters>
            <DistanceMeters>NAN</DistanceMeters>
          </Trackpoint>
          <Trackpoint>
            <Time>2022-07-17T10:38:04.000Z</Time>
            <Position>
              <LatitudeDegrees>43.4752996265888214111328125</LatitudeDegrees>
              <LongitudeDegrees>-5.220794118940830230712890625</LongitudeDegrees>
            </Position>
            <AltitudeMeters>29.200000762939453125</AltitudeMeters>
            <DistanceMeters>NAN</DistanceMeters>
          </Trackpoint>
          <Trackpoint>
            <Time>2022-07-17T10:38:06.000Z</Time>
            <Position>
              <LatitudeDegrees>43.4753289632499217987060546875</LatitudeDegrees>
              <LongitudeDegrees>-5.220843069255352020263671875</LongitudeDegrees>
            </Position>
            <AltitudeMeters>29.6000003814697265625</AltitudeMeters>
            <DistanceMeters>NAN</DistanceMeters>
          </Trackpoint>
          <Trackpoint>
            <Time>2022-07-17T10:38:09.000Z</Time>
            <Position>
              <LatitudeDegrees>43.4753722138702869415283203125</LatitudeDegrees>
              <LongitudeDegrees>-5.22094557993113994598388671875</LongitudeDegrees>
            </Position>
            <AltitudeMeters>30</AltitudeMeters>
            <DistanceMeters>NAN</DistanceMeters>
          </Trackpoint>
          <Trackpoint>
            <Time>2022-07-17T10:38:16.000Z</Time>
            <Position>
              <LatitudeDegrees>43.4754784964025020599365234375</LatitudeDegrees>
              <LongitudeDegrees>-5.2211694605648517608642578125</LongitudeDegrees>
            </Position>
            <AltitudeMeters>30.6000003814697265625</AltitudeMeters>
            <DistanceMeters>NAN</DistanceMeters>
          </Trackpoint>
          <Trackpoint>
            <Time>2022-07-17T10:38:18.000Z</Time>
            <Position>
              <LatitudeDegrees>43.47550590522587299346923828125</LatitudeDegrees>
              <LongitudeDegrees>-5.2212314866483211517333984375</LongitudeDegrees>
            </Position>
            <AltitudeMeters>30.799999237060546875</AltitudeMeters>
            <DistanceMeters>NAN</DistanceMeters>
          </Trackpoint>
          <Trackpoint>
            <Time>2022-07-17T10:38:19.000Z</Time>
            <Position>
              <LatitudeDegrees>43.4755210764706134796142578125</LatitudeDegrees>
              <LongitudeDegrees>-5.22126811556518077850341796875</LongitudeDegrees>
            </Position>
            <AltitudeMeters>30.799999237060546875</AltitudeMeters>
            <DistanceMeters>NAN</DistanceMeters>
          </Trackpoint>
          <Trackpoint>
            <Time>2022-07-17T10:38:27.000Z</Time>
            <Position>
              <LatitudeDegrees>43.475658036768436431884765625</LatitudeDegrees>
              <LongitudeDegrees>-5.22155620157718658447265625</LongitudeDegrees>
            </Position>
            <AltitudeMeters>31</AltitudeMeters>
            <DistanceMeters>NAN</DistanceMeters>
          </Trackpoint>
          <Trackpoint>
            <Time>2022-07-17T10:38:28.000Z</Time>
            <Position>
              <LatitudeDegrees>43.47567806951701641082763671875</LatitudeDegrees>
              <LongitudeDegrees>-5.221598781645298004150390625</LongitudeDegrees>
            </Position>
            <AltitudeMeters>31</AltitudeMeters>
            <DistanceMeters>NAN</DistanceMeters>
          </Trackpoint>
          <Trackpoint>
            <Time>2022-07-17T10:38:36.000Z</Time>
            <Position>
              <LatitudeDegrees>43.4758298657834529876708984375</LatitudeDegrees>
              <LongitudeDegrees>-5.22195090539753437042236328125</LongitudeDegrees>
            </Position>
            <AltitudeMeters>31.200000762939453125</AltitudeMeters>
            <DistanceMeters>NAN</DistanceMeters>
          </Trackpoint>
          <Trackpoint>
            <Time>2022-07-17T10:38:43.000Z</Time>
            <Position>
              <LatitudeDegrees>43.47597478888928890228271484375</LatitudeDegrees>
              <LongitudeDegrees>-5.22227763198316097259521484375</LongitudeDegrees>
            </Position>
            <AltitudeMeters>31.200000762939453125</AltitudeMeters>
            <DistanceMeters>NAN</DistanceMeters>
          </Trackpoint>
          <Trackpoint>
            <Time>2022-07-17T10:38:44.000Z</Time>
            <Position>
              <LatitudeDegrees>43.4759954921901226043701171875</LatitudeDegrees>
              <LongitudeDegrees>-5.2223234809935092926025390625</LongitudeDegrees>
            </Position>
            <AltitudeMeters>31.200000762939453125</AltitudeMeters>
            <DistanceMeters>NAN</DistanceMeters>
          </Trackpoint>
          <Trackpoint>
            <Time>2022-07-17T10:38:50.000Z</Time>
            <Position>
              <LatitudeDegrees>43.476122058928012847900390625</LatitudeDegrees>
              <LongitudeDegrees>-5.22260033525526523590087890625</LongitudeDegrees>
            </Position>
            <AltitudeMeters>31</AltitudeMeters>
            <DistanceMeters>NAN</DistanceMeters>
          </Trackpoint>
          <Trackpoint>
            <Time>2022-07-17T10:38:52.000Z</Time>
            <Position>
              <LatitudeDegrees>43.4761711768805980682373046875</LatitudeDegrees>
              <LongitudeDegrees>-5.22269572131335735321044921875</LongitudeDegrees>
            </Position>
            <AltitudeMeters>31</AltitudeMeters>
            <DistanceMeters>NAN</DistanceMeters>
          </Trackpoint>
          <Trackpoint>
            <Time>2022-07-17T10:38:53.000Z</Time>
            <Position>
              <LatitudeDegrees>43.47619037143886089324951171875</LatitudeDegrees>
              <LongitudeDegrees>-5.22273779846727848052978515625</LongitudeDegrees>
            </Position>
            <AltitudeMeters>31</AltitudeMeters>
            <DistanceMeters>NAN</DistanceMeters>
          </Trackpoint>
          <Trackpoint>
            <Time>2022-07-17T10:38:56.000Z</Time>
            <Position>
              <LatitudeDegrees>43.47626429982483386993408203125</LatitudeDegrees>
              <LongitudeDegrees>-5.22290543653070926666259765625</LongitudeDegrees>
            </Position>
            <AltitudeMeters>31</AltitudeMeters>
            <DistanceMeters>NAN</DistanceMeters>
          </Trackpoint>
          <Trackpoint>
            <Time>2022-07-17T10:39:01.000Z</Time>
            <Position>
              <LatitudeDegrees>43.47638214938342571258544921875</LatitudeDegrees>
              <LongitudeDegrees>-5.2231579832732677459716796875</LongitudeDegrees>
            </Position>
            <AltitudeMeters>31</AltitudeMeters>
            <DistanceMeters>NAN</DistanceMeters>
          </Trackpoint>
          <Trackpoint>
            <Time>2022-07-17T10:39:02.000Z</Time>
            <Position>
              <LatitudeDegrees>43.4763984940946102142333984375</LatitudeDegrees>
              <LongitudeDegrees>-5.22319930605590343475341796875</LongitudeDegrees>
            </Position>
            <AltitudeMeters>31</AltitudeMeters>
            <DistanceMeters>NAN</DistanceMeters>
          </Trackpoint>
          <Trackpoint>
            <Time>2022-07-17T10:39:04.000Z</Time>
            <Position>
              <LatitudeDegrees>43.4764450974762439727783203125</LatitudeDegrees>
              <LongitudeDegrees>-5.2233029901981353759765625</LongitudeDegrees>
            </Position>
            <AltitudeMeters>31</AltitudeMeters>
            <DistanceMeters>NAN</DistanceMeters>
          </Trackpoint>
          <Trackpoint>
            <Time>2022-07-17T10:39:08.000Z</Time>
            <Position>
              <LatitudeDegrees>43.47654350101947784423828125</LatitudeDegrees>
              <LongitudeDegrees>-5.2235336601734161376953125</LongitudeDegrees>
            </Position>
            <AltitudeMeters>30.6000003814697265625</AltitudeMeters>
            <DistanceMeters>NAN</DistanceMeters>
          </Trackpoint>
          <Trackpoint>
            <Time>2022-07-17T10:39:11.000Z</Time>
            <Position>
              <LatitudeDegrees>43.47661332227289676666259765625</LatitudeDegrees>
              <LongitudeDegrees>-5.22368880920112133026123046875</LongitudeDegrees>
            </Position>
            <AltitudeMeters>30.3999996185302734375</AltitudeMeters>
            <DistanceMeters>NAN</DistanceMeters>
          </Trackpoint>
          <Trackpoint>
            <Time>2022-07-17T10:39:14.000Z</Time>
            <Position>
              <LatitudeDegrees>43.476690687239170074462890625</LatitudeDegrees>
              <LongitudeDegrees>-5.2238530106842517852783203125</LongitudeDegrees>
            </Position>
            <AltitudeMeters>30.6000003814697265625</AltitudeMeters>
            <DistanceMeters>NAN</DistanceMeters>
          </Trackpoint>
          <Trackpoint>
            <Time>2022-07-17T10:39:20.000Z</Time>
            <Position>
              <LatitudeDegrees>43.4768390469253063201904296875</LatitudeDegrees>
              <LongitudeDegrees>-5.22416439838707447052001953125</LongitudeDegrees>
            </Position>
            <AltitudeMeters>30.6000003814697265625</AltitudeMeters>
            <DistanceMeters>NAN</DistanceMeters>
          </Trackpoint>
          <Trackpoint>
            <Time>2022-07-17T10:39:27.000Z</Time>
            <Position>
              <LatitudeDegrees>43.4770036675035953521728515625</LatitudeDegrees>
              <LongitudeDegrees>-5.22454108111560344696044921875</LongitudeDegrees>
            </Position>
            <AltitudeMeters>30.3999996185302734375</AltitudeMeters>
            <DistanceMeters>NAN</DistanceMeters>
          </Trackpoint>
          <Trackpoint>
            <Time>2022-07-17T10:39:35.000Z</Time>
            <Position>
              <LatitudeDegrees>43.47719536162912845611572265625</LatitudeDegrees>
              <LongitudeDegrees>-5.22495858371257781982421875</LongitudeDegrees>
            </Position>
            <AltitudeMeters>30.3999996185302734375</AltitudeMeters>
            <DistanceMeters>NAN</DistanceMeters>
          </Trackpoint>
          <Trackpoint>
            <Time>2022-07-17T10:39:39.000Z</Time>
            <Position>
              <LatitudeDegrees>43.4772946871817111968994140625</LatitudeDegrees>
              <LongitudeDegrees>-5.225130580365657806396484375</LongitudeDegrees>
            </Position>
            <AltitudeMeters>30.200000762939453125</AltitudeMeters>
            <DistanceMeters>NAN</DistanceMeters>
          </Trackpoint>
          <Trackpoint>
            <Time>2022-07-17T10:39:42.000Z</Time>
            <Position>
              <LatitudeDegrees>43.4773490019142627716064453125</LatitudeDegrees>
              <LongitudeDegrees>-5.22525471635162830352783203125</LongitudeDegrees>
            </Position>
            <AltitudeMeters>30.200000762939453125</AltitudeMeters>
            <DistanceMeters>NAN</DistanceMeters>
          </Trackpoint>
          <Trackpoint>
            <Time>2022-07-17T10:39:50.000Z</Time>
            <Position>
              <LatitudeDegrees>43.4775049053132534027099609375</LatitudeDegrees>
              <LongitudeDegrees>-5.22560256533324718475341796875</LongitudeDegrees>
            </Position>
            <AltitudeMeters>30</AltitudeMeters>
            <DistanceMeters>NAN</DistanceMeters>
          </Trackpoint>
          <Trackpoint>
            <Time>2022-07-17T10:39:59.000Z</Time>
            <Position>
              <LatitudeDegrees>43.47766642458736896514892578125</LatitudeDegrees>
              <LongitudeDegrees>-5.225956700742244720458984375</LongitudeDegrees>
            </Position>
            <AltitudeMeters>29.799999237060546875</AltitudeMeters>
            <DistanceMeters>NAN</DistanceMeters>
          </Trackpoint>
          <Trackpoint>
            <Time>2022-07-17T10:40:02.000Z</Time>
            <Position>
              <LatitudeDegrees>43.47772124223411083221435546875</LatitudeDegrees>
              <LongitudeDegrees>-5.22606809623539447784423828125</LongitudeDegrees>
            </Position>
            <AltitudeMeters>29.6000003814697265625</AltitudeMeters>
            <DistanceMeters>NAN</DistanceMeters>
          </Trackpoint>
          <Trackpoint>
            <Time>2022-07-17T10:40:08.000Z</Time>
            <Position>
              <LatitudeDegrees>43.47781218588352203369140625</LatitudeDegrees>
              <LongitudeDegrees>-5.2262851037085056304931640625</LongitudeDegrees>
            </Position>
            <AltitudeMeters>29.3999996185302734375</AltitudeMeters>
            <DistanceMeters>NAN</DistanceMeters>
          </Trackpoint>
          <Trackpoint>
            <Time>2022-07-17T10:40:15.000Z</Time>
            <Position>
              <LatitudeDegrees>43.47792215645313262939453125</LatitudeDegrees>
              <LongitudeDegrees>-5.2265690825879573822021484375</LongitudeDegrees>
            </Position>
            <AltitudeMeters>29.3999996185302734375</AltitudeMeters>
            <DistanceMeters>NAN</DistanceMeters>
          </Trackpoint>
          <Trackpoint>
            <Time>2022-07-17T10:40:19.000Z</Time>
            <Position>
              <LatitudeDegrees>43.47798627801239490509033203125</LatitudeDegrees>
              <LongitudeDegrees>-5.2267182804644107818603515625</LongitudeDegrees>
            </Position>
            <AltitudeMeters>29.3999996185302734375</AltitudeMeters>
            <DistanceMeters>NAN</DistanceMeters>
          </Trackpoint>
          <Trackpoint>
            <Time>2022-07-17T10:40:22.000Z</Time>
            <Position>
              <LatitudeDegrees>43.478026427328586578369140625</LatitudeDegrees>
              <LongitudeDegrees>-5.22682045586407184600830078125</LongitudeDegrees>
            </Position>
            <AltitudeMeters>29.3999996185302734375</AltitudeMeters>
            <DistanceMeters>NAN</DistanceMeters>
          </Trackpoint>
          <Trackpoint>
            <Time>2022-07-17T10:40:25.000Z</Time>
            <Position>
              <LatitudeDegrees>43.47806925885379314422607421875</LatitudeDegrees>
              <LongitudeDegrees>-5.22691450081765651702880859375</LongitudeDegrees>
            </Position>
            <AltitudeMeters>29.3999996185302734375</AltitudeMeters>
            <DistanceMeters>NAN</DistanceMeters>
          </Trackpoint>
          <Trackpoint>
            <Time>2022-07-17T10:40:26.000Z</Time>
            <Position>
              <LatitudeDegrees>43.478082083165645599365234375</LatitudeDegrees>
              <LongitudeDegrees>-5.22694366984069347381591796875</LongitudeDegrees>
            </Position>
            <AltitudeMeters>29.3999996185302734375</AltitudeMeters>
            <DistanceMeters>NAN</DistanceMeters>
          </Trackpoint>
          <Trackpoint>
            <Time>2022-07-17T10:40:32.000Z</Time>
            <Position>
              <LatitudeDegrees>43.4781588613986968994140625</LatitudeDegrees>
              <LongitudeDegrees>-5.22712203674018383026123046875</LongitudeDegrees>
            </Position>
            <AltitudeMeters>29.200000762939453125</AltitudeMeters>
            <DistanceMeters>NAN</DistanceMeters>
          </Trackpoint>
          <Trackpoint>
            <Time>2022-07-17T10:40:34.000Z</Time>
            <Position>
              <LatitudeDegrees>43.47818174399435520172119140625</LatitudeDegrees>
              <LongitudeDegrees>-5.22717199288308620452880859375</LongitudeDegrees>
            </Position>
            <AltitudeMeters>29.200000762939453125</AltitudeMeters>
            <DistanceMeters>NAN</DistanceMeters>
          </Trackpoint>
          <Trackpoint>
            <Time>2022-07-17T10:40:42.000Z</Time>
            <Position>
              <LatitudeDegrees>43.47829389385879039764404296875</LatitudeDegrees>
              <LongitudeDegrees>-5.22737768478691577911376953125</LongitudeDegrees>
            </Position>
            <AltitudeMeters>28.799999237060546875</AltitudeMeters>
            <DistanceMeters>NAN</DistanceMeters>
          </Trackpoint>
          <Trackpoint>
            <Time>2022-07-17T10:40:44.000Z</Time>
            <Position>
              <LatitudeDegrees>43.47829389385879039764404296875</LatitudeDegrees>
              <LongitudeDegrees>-5.22737768478691577911376953125</LongitudeDegrees>
            </Position>
            <AltitudeMeters>28.799999237060546875</AltitudeMeters>
            <DistanceMeters>NAN</DistanceMeters>
          </Trackpoint>
          <Trackpoint>
            <Time>2022-07-17T10:41:22.000Z</Time>
            <Position>
              <LatitudeDegrees>43.478305041790008544921875</LatitudeDegrees>
              <LongitudeDegrees>-5.22739880718290805816650390625</LongitudeDegrees>
            </Position>
            <AltitudeMeters>28.200000762939453125</AltitudeMeters>
            <DistanceMeters>NAN</DistanceMeters>
          </Trackpoint>
          <Trackpoint>
            <Time>2022-07-17T10:41:23.000Z</Time>
            <Position>
              <LatitudeDegrees>43.47832004539668560028076171875</LatitudeDegrees>
              <LongitudeDegrees>-5.22742680273950099945068359375</LongitudeDegrees>
            </Position>
            <AltitudeMeters>28.200000762939453125</AltitudeMeters>
            <DistanceMeters>NAN</DistanceMeters>
          </Trackpoint>
          <Trackpoint>
            <Time>2022-07-17T10:41:30.000Z</Time>
            <Position>
              <LatitudeDegrees>43.47842012532055377960205078125</LatitudeDegrees>
              <LongitudeDegrees>-5.22765026427805423736572265625</LongitudeDegrees>
            </Position>
            <AltitudeMeters>28</AltitudeMeters>
            <DistanceMeters>NAN</DistanceMeters>
          </Trackpoint>
          <Trackpoint>
            <Time>2022-07-17T10:41:34.000Z</Time>
            <Position>
              <LatitudeDegrees>43.478473015129566192626953125</LatitudeDegrees>
              <LongitudeDegrees>-5.22777431644499301910400390625</LongitudeDegrees>
            </Position>
            <AltitudeMeters>28</AltitudeMeters>
            <DistanceMeters>NAN</DistanceMeters>
          </Trackpoint>
          <Trackpoint>
            <Time>2022-07-17T10:41:42.000Z</Time>
            <Position>
              <LatitudeDegrees>43.47858290188014507293701171875</LatitudeDegrees>
              <LongitudeDegrees>-5.22800548933446407318115234375</LongitudeDegrees>
            </Position>
            <AltitudeMeters>27.6000003814697265625</AltitudeMeters>
            <DistanceMeters>NAN</DistanceMeters>
          </Trackpoint>
          <Trackpoint>
            <Time>2022-07-17T10:41:50.000Z</Time>
            <Position>
              <LatitudeDegrees>43.478678874671459197998046875</LatitudeDegrees>
              <LongitudeDegrees>-5.22822475992143154144287109375</LongitudeDegrees>
            </Position>
            <AltitudeMeters>27.3999996185302734375</AltitudeMeters>
            <DistanceMeters>NAN</DistanceMeters>
          </Trackpoint>
          <Trackpoint>
            <Time>2022-07-17T10:41:53.000Z</Time>
            <Position>
              <LatitudeDegrees>43.47871072590351104736328125</LatitudeDegrees>
              <LongitudeDegrees>-5.22831092588603496551513671875</LongitudeDegrees>
            </Position>
            <AltitudeMeters>27.200000762939453125</AltitudeMeters>
            <DistanceMeters>NAN</DistanceMeters>
          </Trackpoint>
          <Trackpoint>
            <Time>2022-07-17T10:41:58.000Z</Time>
            <Position>
              <LatitudeDegrees>43.4787631966173648834228515625</LatitudeDegrees>
              <LongitudeDegrees>-5.22843397222459316253662109375</LongitudeDegrees>
            </Position>
            <AltitudeMeters>27</AltitudeMeters>
            <DistanceMeters>NAN</DistanceMeters>
          </Trackpoint>
          <Trackpoint>
            <Time>2022-07-17T10:42:01.000Z</Time>
            <Position>
              <LatitudeDegrees>43.4788027592003345489501953125</LatitudeDegrees>
              <LongitudeDegrees>-5.22851879708468914031982421875</LongitudeDegrees>
            </Position>
            <AltitudeMeters>27</AltitudeMeters>
            <DistanceMeters>NAN</DistanceMeters>
          </Trackpoint>
          <Trackpoint>
            <Time>2022-07-17T10:42:04.000Z</Time>
            <Position>
              <LatitudeDegrees>43.4788527153432369232177734375</LatitudeDegrees>
              <LongitudeDegrees>-5.22862474434077739715576171875</LongitudeDegrees>
            </Position>
            <AltitudeMeters>27</AltitudeMeters>
            <DistanceMeters>NAN</DistanceMeters>
          </Trackpoint>
          <Trackpoint>
            <Time>2022-07-17T10:42:08.000Z</Time>
            <Position>
              <LatitudeDegrees>43.4789268113672733306884765625</LatitudeDegrees>
              <LongitudeDegrees>-5.22876690141856670379638671875</LongitudeDegrees>
            </Position>
            <AltitudeMeters>27</AltitudeMeters>
            <DistanceMeters>NAN</DistanceMeters>
          </Trackpoint>
          <Trackpoint>
            <Time>2022-07-17T10:42:12.000Z</Time>
            <Position>
              <LatitudeDegrees>43.47899713553488254547119140625</LatitudeDegrees>
              <LongitudeDegrees>-5.2289076335728168487548828125</LongitudeDegrees>
            </Position>
            <AltitudeMeters>26.799999237060546875</AltitudeMeters>
            <DistanceMeters>NAN</DistanceMeters>
          </Trackpoint>
          <Trackpoint>
            <Time>2022-07-17T10:42:20.000Z</Time>
            <Position>
              <LatitudeDegrees>43.47912646830081939697265625</LatitudeDegrees>
              <LongitudeDegrees>-5.22919706068933010101318359375</LongitudeDegrees>
            </Position>
            <AltitudeMeters>26.6000003814697265625</AltitudeMeters>
            <DistanceMeters>NAN</DistanceMeters>
          </Trackpoint>
          <Trackpoint>
            <Time>2022-07-17T10:42:26.000Z</Time>
            <Position>
              <LatitudeDegrees>43.4792238660156726837158203125</LatitudeDegrees>
              <LongitudeDegrees>-5.229401327669620513916015625</LongitudeDegrees>
            </Position>
            <AltitudeMeters>26.200000762939453125</AltitudeMeters>
            <DistanceMeters>NAN</DistanceMeters>
          </Trackpoint>
          <Trackpoint>
            <Time>2022-07-17T10:42:28.000Z</Time>
            <Position>
              <LatitudeDegrees>43.4792577289044857025146484375</LatitudeDegrees>
              <LongitudeDegrees>-5.22946067154407501220703125</LongitudeDegrees>
            </Position>
            <AltitudeMeters>26.200000762939453125</AltitudeMeters>
            <DistanceMeters>NAN</DistanceMeters>
          </Trackpoint>
          <Trackpoint>
            <Time>2022-07-17T10:42:37.000Z</Time>
            <Position>
              <LatitudeDegrees>43.47941346466541290283203125</LatitudeDegrees>
              <LongitudeDegrees>-5.2298065088689327239990234375</LongitudeDegrees>
            </Position>
            <AltitudeMeters>26.200000762939453125</AltitudeMeters>
            <DistanceMeters>NAN</DistanceMeters>
          </Trackpoint>
          <Trackpoint>
            <Time>2022-07-17T10:42:40.000Z</Time>
            <Position>
              <LatitudeDegrees>43.47947507165372371673583984375</LatitudeDegrees>
              <LongitudeDegrees>-5.22995763458311557769775390625</LongitudeDegrees>
            </Position>
            <AltitudeMeters>26.200000762939453125</AltitudeMeters>
            <DistanceMeters>NAN</DistanceMeters>
          </Trackpoint>
          <Trackpoint>
            <Time>2022-07-17T10:42:42.000Z</Time>
            <Position>
              <LatitudeDegrees>43.47952385433018207550048828125</LatitudeDegrees>
              <LongitudeDegrees>-5.230069868266582489013671875</LongitudeDegrees>
            </Position>
            <AltitudeMeters>26.200000762939453125</AltitudeMeters>
            <DistanceMeters>NAN</DistanceMeters>
          </Trackpoint>
          <Trackpoint>
            <Time>2022-07-17T10:42:49.000Z</Time>
            <Position>
              <LatitudeDegrees>43.47968981601297855377197265625</LatitudeDegrees>
              <LongitudeDegrees>-5.230448730289936065673828125</LongitudeDegrees>
            </Position>
            <AltitudeMeters>25.6000003814697265625</AltitudeMeters>
            <DistanceMeters>NAN</DistanceMeters>
          </Trackpoint>
          <Trackpoint>
            <Time>2022-07-17T10:42:55.000Z</Time>
            <Position>
              <LatitudeDegrees>43.47982174716889858245849609375</LatitudeDegrees>
              <LongitudeDegrees>-5.23074687458574771881103515625</LongitudeDegrees>
            </Position>
            <AltitudeMeters>25.3999996185302734375</AltitudeMeters>
            <DistanceMeters>NAN</DistanceMeters>
          </Trackpoint>
          <Trackpoint>
            <Time>2022-07-17T10:42:58.000Z</Time>
            <Position>
              <LatitudeDegrees>43.4798950888216495513916015625</LatitudeDegrees>
              <LongitudeDegrees>-5.23089221678674221038818359375</LongitudeDegrees>
            </Position>
            <AltitudeMeters>25.3999996185302734375</AltitudeMeters>
            <DistanceMeters>NAN</DistanceMeters>
          </Trackpoint>
          <Trackpoint>
            <Time>2022-07-17T10:43:02.000Z</Time>
            <Position>
              <LatitudeDegrees>43.4799852780997753143310546875</LatitudeDegrees>
              <LongitudeDegrees>-5.2310812287032604217529296875</LongitudeDegrees>
            </Position>
            <AltitudeMeters>25.3999996185302734375</AltitudeMeters>
            <DistanceMeters>NAN</DistanceMeters>
          </Trackpoint>
          <Trackpoint>
            <Time>2022-07-17T10:43:07.000Z</Time>
            <Position>
              <LatitudeDegrees>43.480099104344844818115234375</LatitudeDegrees>
              <LongitudeDegrees>-5.23133981041610240936279296875</LongitudeDegrees>
            </Position>
            <AltitudeMeters>25.799999237060546875</AltitudeMeters>
            <DistanceMeters>NAN</DistanceMeters>
          </Trackpoint>
          <Trackpoint>
            <Time>2022-07-17T10:43:11.000Z</Time>
            <Position>
              <LatitudeDegrees>43.48020077683031558990478515625</LatitudeDegrees>
              <LongitudeDegrees>-5.23156176321208477020263671875</LongitudeDegrees>
            </Position>
            <AltitudeMeters>25.799999237060546875</AltitudeMeters>
            <DistanceMeters>NAN</DistanceMeters>
          </Trackpoint>
          <Trackpoint>
            <Time>2022-07-17T10:43:14.000Z</Time>
            <Position>
              <LatitudeDegrees>43.480261377990245819091796875</LatitudeDegrees>
              <LongitudeDegrees>-5.23170970380306243896484375</LongitudeDegrees>
            </Position>
            <AltitudeMeters>25.799999237060546875</AltitudeMeters>
            <DistanceMeters>NAN</DistanceMeters>
          </Trackpoint>
          <Trackpoint>
            <Time>2022-07-17T10:43:22.000Z</Time>
            <Position>
              <LatitudeDegrees>43.48043664358556270599365234375</LatitudeDegrees>
              <LongitudeDegrees>-5.23211061023175716400146484375</LongitudeDegrees>
            </Position>
            <AltitudeMeters>26</AltitudeMeters>
            <DistanceMeters>NAN</DistanceMeters>
          </Trackpoint>
          <Trackpoint>
            <Time>2022-07-17T10:43:24.000Z</Time>
            <Position>
              <LatitudeDegrees>43.48047469742596149444580078125</LatitudeDegrees>
              <LongitudeDegrees>-5.23219828493893146514892578125</LongitudeDegrees>
            </Position>
            <AltitudeMeters>26.200000762939453125</AltitudeMeters>
            <DistanceMeters>NAN</DistanceMeters>
          </Trackpoint>
          <Trackpoint>
            <Time>2022-07-17T10:43:32.000Z</Time>
            <Position>
              <LatitudeDegrees>43.480604030191898345947265625</LatitudeDegrees>
              <LongitudeDegrees>-5.232477150857448577880859375</LongitudeDegrees>
            </Position>
            <AltitudeMeters>26.3999996185302734375</AltitudeMeters>
            <DistanceMeters>NAN</DistanceMeters>
          </Trackpoint>
          <Trackpoint>
            <Time>2022-07-17T10:43:40.000Z</Time>
            <Position>
              <LatitudeDegrees>43.4807101450860500335693359375</LatitudeDegrees>
              <LongitudeDegrees>-5.2326875366270542144775390625</LongitudeDegrees>
            </Position>
            <AltitudeMeters>27.200000762939453125</AltitudeMeters>
            <DistanceMeters>NAN</DistanceMeters>
          </Trackpoint>
          <Trackpoint>
            <Time>2022-07-17T10:43:50.000Z</Time>
            <Position>
              <LatitudeDegrees>43.48085707984864711761474609375</LatitudeDegrees>
              <LongitudeDegrees>-5.23296874947845935821533203125</LongitudeDegrees>
            </Position>
            <AltitudeMeters>28.200000762939453125</AltitudeMeters>
            <DistanceMeters>NAN</DistanceMeters>
          </Trackpoint>
          <Trackpoint>
            <Time>2022-07-17T10:43:52.000Z</Time>
            <Position>
              <LatitudeDegrees>43.48088390193879604339599609375</LatitudeDegrees>
              <LongitudeDegrees>-5.23301334120333194732666015625</LongitudeDegrees>
            </Position>
            <AltitudeMeters>28.200000762939453125</AltitudeMeters>
            <DistanceMeters>NAN</DistanceMeters>
          </Trackpoint>
          <Trackpoint>
            <Time>2022-07-17T10:43:57.000Z</Time>
            <Position>
              <LatitudeDegrees>43.48095078952610492706298828125</LatitudeDegrees>
              <LongitudeDegrees>-5.23315583355724811553955078125</LongitudeDegrees>
            </Position>
            <AltitudeMeters>28.6000003814697265625</AltitudeMeters>
            <DistanceMeters>NAN</DistanceMeters>
          </Trackpoint>
          <Trackpoint>
            <Time>2022-07-17T10:44:05.000Z</Time>
            <Position>
              <LatitudeDegrees>43.48105891607701778411865234375</LatitudeDegrees>
              <LongitudeDegrees>-5.233377031981945037841796875</LongitudeDegrees>
            </Position>
            <AltitudeMeters>29.200000762939453125</AltitudeMeters>
            <DistanceMeters>NAN</DistanceMeters>
          </Trackpoint>
          <Trackpoint>
            <Time>2022-07-17T10:44:13.000Z</Time>
            <Position>
              <LatitudeDegrees>43.481151871383190155029296875</LatitudeDegrees>
              <LongitudeDegrees>-5.2335921116173267364501953125</LongitudeDegrees>
            </Position>
            <AltitudeMeters>30</AltitudeMeters>
            <DistanceMeters>NAN</DistanceMeters>
          </Trackpoint>
          <Trackpoint>
            <Time>2022-07-17T10:44:16.000Z</Time>
            <Position>
              <LatitudeDegrees>43.481186069548130035400390625</LatitudeDegrees>
              <LongitudeDegrees>-5.233678109943866729736328125</LongitudeDegrees>
            </Position>
            <AltitudeMeters>30.3999996185302734375</AltitudeMeters>
            <DistanceMeters>NAN</DistanceMeters>
          </Trackpoint>
          <Trackpoint>
            <Time>2022-07-17T10:44:18.000Z</Time>
            <Position>
              <LatitudeDegrees>43.48120761103928089141845703125</LatitudeDegrees>
              <LongitudeDegrees>-5.2337300777435302734375</LongitudeDegrees>
            </Position>
            <AltitudeMeters>30.6000003814697265625</AltitudeMeters>
            <DistanceMeters>NAN</DistanceMeters>
          </Trackpoint>
          <Trackpoint>
            <Time>2022-07-17T10:44:26.000Z</Time>
            <Position>
              <LatitudeDegrees>43.48131774924695491790771484375</LatitudeDegrees>
              <LongitudeDegrees>-5.23396971635520458221435546875</LongitudeDegrees>
            </Position>
            <AltitudeMeters>31.6000003814697265625</AltitudeMeters>
            <DistanceMeters>NAN</DistanceMeters>
          </Trackpoint>
          <Trackpoint>
            <Time>2022-07-17T10:44:30.000Z</Time>
            <Position>
              <LatitudeDegrees>43.48136871121823787689208984375</LatitudeDegrees>
              <LongitudeDegrees>-5.2340910024940967559814453125</LongitudeDegrees>
            </Position>
            <AltitudeMeters>32</AltitudeMeters>
            <DistanceMeters>NAN</DistanceMeters>
          </Trackpoint>
          <Trackpoint>
            <Time>2022-07-17T10:44:38.000Z</Time>
            <Position>
              <LatitudeDegrees>43.48145596683025360107421875</LatitudeDegrees>
              <LongitudeDegrees>-5.23429862223565578460693359375</LongitudeDegrees>
            </Position>
            <AltitudeMeters>32.59999847412109375</AltitudeMeters>
            <DistanceMeters>NAN</DistanceMeters>
          </Trackpoint>
          <Trackpoint>
            <Time>2022-07-17T10:44:42.000Z</Time>
            <Position>
              <LatitudeDegrees>43.4814941883087158203125</LatitudeDegrees>
              <LongitudeDegrees>-5.2344041503965854644775390625</LongitudeDegrees>
            </Position>
            <AltitudeMeters>32.799999237060546875</AltitudeMeters>
            <DistanceMeters>NAN</DistanceMeters>
          </Trackpoint>
          <Trackpoint>
            <Time>2022-07-17T10:44:52.000Z</Time>
            <Position>
              <LatitudeDegrees>43.48154758103191852569580078125</LatitudeDegrees>
              <LongitudeDegrees>-5.23469273932278156280517578125</LongitudeDegrees>
            </Position>
            <AltitudeMeters>33.40000152587890625</AltitudeMeters>
            <DistanceMeters>NAN</DistanceMeters>
          </Trackpoint>
          <Trackpoint>
            <Time>2022-07-17T10:44:55.000Z</Time>
            <Position>
              <LatitudeDegrees>43.48155646584928035736083984375</LatitudeDegrees>
              <LongitudeDegrees>-5.23478217422962188720703125</LongitudeDegrees>
            </Position>
            <AltitudeMeters>33.59999847412109375</AltitudeMeters>
            <DistanceMeters>NAN</DistanceMeters>
          </Trackpoint>
          <Trackpoint>
            <Time>2022-07-17T10:45:00.000Z</Time>
            <Position>
              <LatitudeDegrees>43.48156635649502277374267578125</LatitudeDegrees>
              <LongitudeDegrees>-5.23493346758186817169189453125</LongitudeDegrees>
            </Position>
            <AltitudeMeters>33.799999237060546875</AltitudeMeters>
            <DistanceMeters>NAN</DistanceMeters>
          </Trackpoint>
          <Trackpoint>
            <Time>2022-07-17T10:45:07.000Z</Time>
            <Position>
              <LatitudeDegrees>43.48159133456647396087646484375</LatitudeDegrees>
              <LongitudeDegrees>-5.235143937170505523681640625</LongitudeDegrees>
            </Position>
            <AltitudeMeters>34.200000762939453125</AltitudeMeters>
            <DistanceMeters>NAN</DistanceMeters>
          </Trackpoint>
          <Trackpoint>
            <Time>2022-07-17T10:45:15.000Z</Time>
            <Position>
              <LatitudeDegrees>43.48162050358951091766357421875</LatitudeDegrees>
              <LongitudeDegrees>-5.23540302179753780364990234375</LongitudeDegrees>
            </Position>
            <AltitudeMeters>34.59999847412109375</AltitudeMeters>
            <DistanceMeters>NAN</DistanceMeters>
          </Trackpoint>
          <Trackpoint>
            <Time>2022-07-17T10:45:19.000Z</Time>
            <Position>
              <LatitudeDegrees>43.4816294722259044647216796875</LatitudeDegrees>
              <LongitudeDegrees>-5.23552372120320796966552734375</LongitudeDegrees>
            </Position>
            <AltitudeMeters>35</AltitudeMeters>
            <DistanceMeters>NAN</DistanceMeters>
          </Trackpoint>
          <Trackpoint>
            <Time>2022-07-17T10:45:27.000Z</Time>
            <Position>
              <LatitudeDegrees>43.4816482476890087127685546875</LatitudeDegrees>
              <LongitudeDegrees>-5.2357509545981884002685546875</LongitudeDegrees>
            </Position>
            <AltitudeMeters>35.40000152587890625</AltitudeMeters>
            <DistanceMeters>NAN</DistanceMeters>
          </Trackpoint>
          <Trackpoint>
            <Time>2022-07-17T10:45:29.000Z</Time>
            <Position>
              <LatitudeDegrees>43.48165101371705532073974609375</LatitudeDegrees>
              <LongitudeDegrees>-5.235805101692676544189453125</LongitudeDegrees>
            </Position>
            <AltitudeMeters>35.40000152587890625</AltitudeMeters>
            <DistanceMeters>NAN</DistanceMeters>
          </Trackpoint>
          <Trackpoint>
            <Time>2022-07-17T10:45:33.000Z</Time>
            <Position>
              <LatitudeDegrees>43.481656797230243682861328125</LatitudeDegrees>
              <LongitudeDegrees>-5.2359102107584476470947265625</LongitudeDegrees>
            </Position>
            <AltitudeMeters>35.59999847412109375</AltitudeMeters>
            <DistanceMeters>NAN</DistanceMeters>
          </Trackpoint>
          <Trackpoint>
            <Time>2022-07-17T10:45:34.000Z</Time>
            <Position>
              <LatitudeDegrees>43.4816532768309116363525390625</LatitudeDegrees>
              <LongitudeDegrees>-5.2359400503337383270263671875</LongitudeDegrees>
            </Position>
            <AltitudeMeters>35.799999237060546875</AltitudeMeters>
            <DistanceMeters>NAN</DistanceMeters>
          </Trackpoint>
          <Trackpoint>
            <Time>2022-07-17T10:45:36.000Z</Time>
            <Position>
              <LatitudeDegrees>43.481656126677989959716796875</LatitudeDegrees>
              <LongitudeDegrees>-5.23600417189300060272216796875</LongitudeDegrees>
            </Position>
            <AltitudeMeters>36</AltitudeMeters>
            <DistanceMeters>NAN</DistanceMeters>
          </Trackpoint>
          <Trackpoint>
            <Time>2022-07-17T10:45:42.000Z</Time>
            <Position>
              <LatitudeDegrees>43.4816928394138813018798828125</LatitudeDegrees>
              <LongitudeDegrees>-5.23620164953172206878662109375</LongitudeDegrees>
            </Position>
            <AltitudeMeters>36.40000152587890625</AltitudeMeters>
            <DistanceMeters>NAN</DistanceMeters>
          </Trackpoint>
          <Trackpoint>
            <Time>2022-07-17T10:45:46.000Z</Time>
            <Position>
              <LatitudeDegrees>43.48171480000019073486328125</LatitudeDegrees>
              <LongitudeDegrees>-5.23632972501218318939208984375</LongitudeDegrees>
            </Position>
            <AltitudeMeters>36.799999237060546875</AltitudeMeters>
            <DistanceMeters>NAN</DistanceMeters>
          </Trackpoint>
          <Trackpoint>
            <Time>2022-07-17T10:45:51.000Z</Time>
            <Position>
              <LatitudeDegrees>43.4817280434072017669677734375</LatitudeDegrees>
              <LongitudeDegrees>-5.23648713715374469757080078125</LongitudeDegrees>
            </Position>
            <AltitudeMeters>37</AltitudeMeters>
            <DistanceMeters>NAN</DistanceMeters>
          </Trackpoint>
          <Trackpoint>
            <Time>2022-07-17T10:46:00.000Z</Time>
            <Position>
              <LatitudeDegrees>43.4817552007734775543212890625</LatitudeDegrees>
              <LongitudeDegrees>-5.2367661707103252410888671875</LongitudeDegrees>
            </Position>
            <AltitudeMeters>37.59999847412109375</AltitudeMeters>
            <DistanceMeters>NAN</DistanceMeters>
          </Trackpoint>
          <Trackpoint>
            <Time>2022-07-17T10:46:02.000Z</Time>
            <Position>
              <LatitudeDegrees>43.48176299594342708587646484375</LatitudeDegrees>
              <LongitudeDegrees>-5.236823000013828277587890625</LongitudeDegrees>
            </Position>
            <AltitudeMeters>37.799999237060546875</AltitudeMeters>
            <DistanceMeters>NAN</DistanceMeters>
          </Trackpoint>
          <Trackpoint>
            <Time>2022-07-17T10:46:08.000Z</Time>
            <Position>
              <LatitudeDegrees>43.48178319633007049560546875</LatitudeDegrees>
              <LongitudeDegrees>-5.237004719674587249755859375</LongitudeDegrees>
            </Position>
            <AltitudeMeters>38</AltitudeMeters>
            <DistanceMeters>NAN</DistanceMeters>
          </Trackpoint>
          <Trackpoint>
            <Time>2022-07-17T10:46:18.000Z</Time>
            <Position>
              <LatitudeDegrees>43.481823094189167022705078125</LatitudeDegrees>
              <LongitudeDegrees>-5.2373482100665569305419921875</LongitudeDegrees>
            </Position>
            <AltitudeMeters>38.799999237060546875</AltitudeMeters>
            <DistanceMeters>NAN</DistanceMeters>
          </Trackpoint>
          <Trackpoint>
            <Time>2022-07-17T10:46:19.000Z</Time>
            <Position>
              <LatitudeDegrees>43.481824100017547607421875</LatitudeDegrees>
              <LongitudeDegrees>-5.23738282732665538787841796875</LongitudeDegrees>
            </Position>
            <AltitudeMeters>38.799999237060546875</AltitudeMeters>
            <DistanceMeters>NAN</DistanceMeters>
          </Trackpoint>
          <Trackpoint>
            <Time>2022-07-17T10:46:26.000Z</Time>
            <Position>
              <LatitudeDegrees>43.48185184411704540252685546875</LatitudeDegrees>
              <LongitudeDegrees>-5.23762120865285396575927734375</LongitudeDegrees>
            </Position>
            <AltitudeMeters>39.40000152587890625</AltitudeMeters>
            <DistanceMeters>NAN</DistanceMeters>
          </Trackpoint>
          <Trackpoint>
            <Time>2022-07-17T10:46:32.000Z</Time>
            <Position>
              <LatitudeDegrees>43.48187531344592571258544921875</LatitudeDegrees>
              <LongitudeDegrees>-5.23781013675034046173095703125</LongitudeDegrees>
            </Position>
            <AltitudeMeters>40</AltitudeMeters>
            <DistanceMeters>NAN</DistanceMeters>
          </Trackpoint>
          <Trackpoint>
            <Time>2022-07-17T10:46:36.000Z</Time>
            <Position>
              <LatitudeDegrees>43.4818924963474273681640625</LatitudeDegrees>
              <LongitudeDegrees>-5.23795187473297119140625</LongitudeDegrees>
            </Position>
            <AltitudeMeters>40.200000762939453125</AltitudeMeters>
            <DistanceMeters>NAN</DistanceMeters>
          </Trackpoint>
          <Trackpoint>
            <Time>2022-07-17T10:46:46.000Z</Time>
            <Position>
              <LatitudeDegrees>43.481924347579479217529296875</LatitudeDegrees>
              <LongitudeDegrees>-5.2382611669600009918212890625</LongitudeDegrees>
            </Position>
            <AltitudeMeters>40.40000152587890625</AltitudeMeters>
            <DistanceMeters>NAN</DistanceMeters>
          </Trackpoint>
          <Trackpoint>
            <Time>2022-07-17T10:46:50.000Z</Time>
            <Position>
              <LatitudeDegrees>43.48194119520485401153564453125</LatitudeDegrees>
              <LongitudeDegrees>-5.23839251138269901275634765625</LongitudeDegrees>
            </Position>
            <AltitudeMeters>41</AltitudeMeters>
            <DistanceMeters>NAN</DistanceMeters>
          </Trackpoint>
          <Trackpoint>
            <Time>2022-07-17T10:46:53.000Z</Time>
            <Position>
              <LatitudeDegrees>43.4819523431360721588134765625</LatitudeDegrees>
              <LongitudeDegrees>-5.2384824492037296295166015625</LongitudeDegrees>
            </Position>
            <AltitudeMeters>41.200000762939453125</AltitudeMeters>
            <DistanceMeters>NAN</DistanceMeters>
          </Trackpoint>
          <Trackpoint>
            <Time>2022-07-17T10:46:55.000Z</Time>
            <Position>
              <LatitudeDegrees>43.48196164704859256744384765625</LatitudeDegrees>
              <LongitudeDegrees>-5.2385444752871990203857421875</LongitudeDegrees>
            </Position>
            <AltitudeMeters>41.40000152587890625</AltitudeMeters>
            <DistanceMeters>NAN</DistanceMeters>
          </Trackpoint>
          <Trackpoint>
            <Time>2022-07-17T10:46:59.000Z</Time>
            <Position>
              <LatitudeDegrees>43.481970615684986114501953125</LatitudeDegrees>
              <LongitudeDegrees>-5.23865452967584133148193359375</LongitudeDegrees>
            </Position>
            <AltitudeMeters>41.799999237060546875</AltitudeMeters>
            <DistanceMeters>NAN</DistanceMeters>
          </Trackpoint>
          <Trackpoint>
            <Time>2022-07-17T10:47:01.000Z</Time>
            <Position>
              <LatitudeDegrees>43.4819784946739673614501953125</LatitudeDegrees>
              <LongitudeDegrees>-5.23870649747550487518310546875</LongitudeDegrees>
            </Position>
            <AltitudeMeters>42</AltitudeMeters>
            <DistanceMeters>NAN</DistanceMeters>
          </Trackpoint>
          <Trackpoint>
            <Time>2022-07-17T10:47:04.000Z</Time>
            <Position>
              <LatitudeDegrees>43.48199106752872467041015625</LatitudeDegrees>
              <LongitudeDegrees>-5.2387929148972034454345703125</LongitudeDegrees>
            </Position>
            <AltitudeMeters>42.40000152587890625</AltitudeMeters>
            <DistanceMeters>NAN</DistanceMeters>
          </Trackpoint>
          <Trackpoint>
            <Time>2022-07-17T10:47:11.000Z</Time>
            <Position>
              <LatitudeDegrees>43.4820100106298923492431640625</LatitudeDegrees>
              <LongitudeDegrees>-5.23898175917565822601318359375</LongitudeDegrees>
            </Position>
            <AltitudeMeters>43</AltitudeMeters>
            <DistanceMeters>NAN</DistanceMeters>
          </Trackpoint>
          <Trackpoint>
            <Time>2022-07-17T10:47:12.000Z</Time>
            <Position>
              <LatitudeDegrees>43.48201311193406581878662109375</LatitudeDegrees>
              <LongitudeDegrees>-5.239005647599697113037109375</LongitudeDegrees>
            </Position>
            <AltitudeMeters>43.200000762939453125</AltitudeMeters>
            <DistanceMeters>NAN</DistanceMeters>
          </Trackpoint>
          <Trackpoint>
            <Time>2022-07-17T10:47:15.000Z</Time>
            <Position>
              <LatitudeDegrees>43.482019565999507904052734375</LatitudeDegrees>
              <LongitudeDegrees>-5.23908443748950958251953125</LongitudeDegrees>
            </Position>
            <AltitudeMeters>43.40000152587890625</AltitudeMeters>
            <DistanceMeters>NAN</DistanceMeters>
          </Trackpoint>
          <Trackpoint>
            <Time>2022-07-17T10:47:18.000Z</Time>
            <Position>
              <LatitudeDegrees>43.48203104920685291290283203125</LatitudeDegrees>
              <LongitudeDegrees>-5.23916649632155895233154296875</LongitudeDegrees>
            </Position>
            <AltitudeMeters>43.59999847412109375</AltitudeMeters>
            <DistanceMeters>NAN</DistanceMeters>
          </Trackpoint>
          <Trackpoint>
            <Time>2022-07-17T10:47:23.000Z</Time>
            <Position>
              <LatitudeDegrees>43.48205015994608402252197265625</LatitudeDegrees>
              <LongitudeDegrees>-5.2393048815429210662841796875</LongitudeDegrees>
            </Position>
            <AltitudeMeters>44</AltitudeMeters>
            <DistanceMeters>NAN</DistanceMeters>
          </Trackpoint>
          <Trackpoint>
            <Time>2022-07-17T10:47:29.000Z</Time>
            <Position>
              <LatitudeDegrees>43.48207295872271060943603515625</LatitudeDegrees>
              <LongitudeDegrees>-5.23953513242304325103759765625</LongitudeDegrees>
            </Position>
            <AltitudeMeters>44.200000762939453125</AltitudeMeters>
            <DistanceMeters>NAN</DistanceMeters>
          </Trackpoint>
          <Trackpoint>
            <Time>2022-07-17T10:47:30.000Z</Time>
            <Position>
              <LatitudeDegrees>43.482079915702342987060546875</LatitudeDegrees>
              <LongitudeDegrees>-5.23958374746143817901611328125</LongitudeDegrees>
            </Position>
            <AltitudeMeters>44.200000762939453125</AltitudeMeters>
            <DistanceMeters>NAN</DistanceMeters>
          </Trackpoint>
          <Trackpoint>
            <Time>2022-07-17T10:47:36.000Z</Time>
            <Position>
              <LatitudeDegrees>43.48211134783923625946044921875</LatitudeDegrees>
              <LongitudeDegrees>-5.23993494920432567596435546875</LongitudeDegrees>
            </Position>
            <AltitudeMeters>44</AltitudeMeters>
            <DistanceMeters>NAN</DistanceMeters>
          </Trackpoint>
          <Trackpoint>
            <Time>2022-07-17T10:47:39.000Z</Time>
            <Position>
              <LatitudeDegrees>43.48213816992938518524169921875</LatitudeDegrees>
              <LongitudeDegrees>-5.24013519287109375</LongitudeDegrees>
            </Position>
            <AltitudeMeters>43.799999237060546875</AltitudeMeters>
            <DistanceMeters>NAN</DistanceMeters>
          </Trackpoint>
          <Trackpoint>
            <Time>2022-07-17T10:47:41.000Z</Time>
            <Position>
              <LatitudeDegrees>43.48216230981051921844482421875</LatitudeDegrees>
              <LongitudeDegrees>-5.2402775175869464874267578125</LongitudeDegrees>
            </Position>
            <AltitudeMeters>43.59999847412109375</AltitudeMeters>
            <DistanceMeters>NAN</DistanceMeters>
          </Trackpoint>
          <Trackpoint>
            <Time>2022-07-17T10:47:42.000Z</Time>
            <Position>
              <LatitudeDegrees>43.48217186518013477325439453125</LatitudeDegrees>
              <LongitudeDegrees>-5.24034976959228515625</LongitudeDegrees>
            </Position>
            <AltitudeMeters>43.59999847412109375</AltitudeMeters>
            <DistanceMeters>NAN</DistanceMeters>
          </Trackpoint>
          <Trackpoint>
            <Time>2022-07-17T10:47:48.000Z</Time>
            <Position>
              <LatitudeDegrees>43.48221377469599246978759765625</LatitudeDegrees>
              <LongitudeDegrees>-5.2408263646066188812255859375</LongitudeDegrees>
            </Position>
            <AltitudeMeters>43</AltitudeMeters>
            <DistanceMeters>NAN</DistanceMeters>
          </Trackpoint>
          <Trackpoint>
            <Time>2022-07-17T10:47:49.000Z</Time>
            <Position>
              <LatitudeDegrees>43.48222467117011547088623046875</LatitudeDegrees>
              <LongitudeDegrees>-5.2409064956009387969970703125</LongitudeDegrees>
            </Position>
            <AltitudeMeters>43</AltitudeMeters>
            <DistanceMeters>NAN</DistanceMeters>
          </Trackpoint>
          <Trackpoint>
            <Time>2022-07-17T10:47:56.000Z</Time>
            <Position>
              <LatitudeDegrees>43.4822839312255382537841796875</LatitudeDegrees>
              <LongitudeDegrees>-5.2414643950760364532470703125</LongitudeDegrees>
            </Position>
            <AltitudeMeters>42.40000152587890625</AltitudeMeters>
            <DistanceMeters>NAN</DistanceMeters>
          </Trackpoint>
          <Trackpoint>
            <Time>2022-07-17T10:48:00.000Z</Time>
            <Position>
              <LatitudeDegrees>43.48232039250433444976806640625</LatitudeDegrees>
              <LongitudeDegrees>-5.2417899481952190399169921875</LongitudeDegrees>
            </Position>
            <AltitudeMeters>42.200000762939453125</AltitudeMeters>
            <DistanceMeters>NAN</DistanceMeters>
          </Trackpoint>
          <Trackpoint>
            <Time>2022-07-17T10:48:04.000Z</Time>
            <Position>
              <LatitudeDegrees>43.48236112855374813079833984375</LatitudeDegrees>
              <LongitudeDegrees>-5.242137126624584197998046875</LongitudeDegrees>
            </Position>
            <AltitudeMeters>42</AltitudeMeters>
            <DistanceMeters>NAN</DistanceMeters>
          </Trackpoint>
          <Trackpoint>
            <Time>2022-07-17T10:48:11.000Z</Time>
            <Position>
              <LatitudeDegrees>43.482437320053577423095703125</LatitudeDegrees>
              <LongitudeDegrees>-5.242744646966457366943359375</LongitudeDegrees>
            </Position>
            <AltitudeMeters>41.200000762939453125</AltitudeMeters>
            <DistanceMeters>NAN</DistanceMeters>
          </Trackpoint>
          <Trackpoint>
            <Time>2022-07-17T10:48:12.000Z</Time>
            <Position>
              <LatitudeDegrees>43.48244612105190753936767578125</LatitudeDegrees>
              <LongitudeDegrees>-5.24282989092171192169189453125</LongitudeDegrees>
            </Position>
            <AltitudeMeters>41</AltitudeMeters>
            <DistanceMeters>NAN</DistanceMeters>
          </Trackpoint>
          <Trackpoint>
            <Time>2022-07-17T10:48:13.000Z</Time>
            <Position>
              <LatitudeDegrees>43.48245752044022083282470703125</LatitudeDegrees>
              <LongitudeDegrees>-5.24291370995342731475830078125</LongitudeDegrees>
            </Position>
            <AltitudeMeters>40.799999237060546875</AltitudeMeters>
            <DistanceMeters>NAN</DistanceMeters>
          </Trackpoint>
          <Trackpoint>
            <Time>2022-07-17T10:48:20.000Z</Time>
            <Position>
              <LatitudeDegrees>43.48251367919147014617919921875</LatitudeDegrees>
              <LongitudeDegrees>-5.2435045503079891204833984375</LongitudeDegrees>
            </Position>
            <AltitudeMeters>40</AltitudeMeters>
            <DistanceMeters>NAN</DistanceMeters>
          </Trackpoint>
          <Trackpoint>
            <Time>2022-07-17T10:48:23.000Z</Time>
            <Position>
              <LatitudeDegrees>43.4825451113283634185791015625</LatitudeDegrees>
              <LongitudeDegrees>-5.24375793524086475372314453125</LongitudeDegrees>
            </Position>
            <AltitudeMeters>40</AltitudeMeters>
            <DistanceMeters>NAN</DistanceMeters>
          </Trackpoint>
          <Trackpoint>
            <Time>2022-07-17T10:48:33.000Z</Time>
            <Position>
              <LatitudeDegrees>43.48263018764555454254150390625</LatitudeDegrees>
              <LongitudeDegrees>-5.24452035315334796905517578125</LongitudeDegrees>
            </Position>
            <AltitudeMeters>40</AltitudeMeters>
            <DistanceMeters>NAN</DistanceMeters>
          </Trackpoint>
          <Trackpoint>
            <Time>2022-07-17T10:48:34.000Z</Time>
            <Position>
              <LatitudeDegrees>43.4826332889497280120849609375</LatitudeDegrees>
              <LongitudeDegrees>-5.24458204396069049835205078125</LongitudeDegrees>
            </Position>
            <AltitudeMeters>40.200000762939453125</AltitudeMeters>
            <DistanceMeters>NAN</DistanceMeters>
          </Trackpoint>
          <Trackpoint>
            <Time>2022-07-17T10:48:40.000Z</Time>
            <Position>
              <LatitudeDegrees>43.482661284506320953369140625</LatitudeDegrees>
              <LongitudeDegrees>-5.24489318020641803741455078125</LongitudeDegrees>
            </Position>
            <AltitudeMeters>41</AltitudeMeters>
            <DistanceMeters>NAN</DistanceMeters>
          </Trackpoint>
          <Trackpoint>
            <Time>2022-07-17T10:48:46.000Z</Time>
            <Position>
              <LatitudeDegrees>43.4827016852796077728271484375</LatitudeDegrees>
              <LongitudeDegrees>-5.24517129175364971160888671875</LongitudeDegrees>
            </Position>
            <AltitudeMeters>42</AltitudeMeters>
            <DistanceMeters>NAN</DistanceMeters>
          </Trackpoint>
          <Trackpoint>
            <Time>2022-07-17T10:48:57.000Z</Time>
            <Position>
              <LatitudeDegrees>43.4827486239373683929443359375</LatitudeDegrees>
              <LongitudeDegrees>-5.24563313461840152740478515625</LongitudeDegrees>
            </Position>
            <AltitudeMeters>42.799999237060546875</AltitudeMeters>
            <DistanceMeters>NAN</DistanceMeters>
          </Trackpoint>
          <Trackpoint>
            <Time>2022-07-17T10:48:59.000Z</Time>
            <Position>
              <LatitudeDegrees>43.48276228643953800201416015625</LatitudeDegrees>
              <LongitudeDegrees>-5.2457026205956935882568359375</LongitudeDegrees>
            </Position>
            <AltitudeMeters>43</AltitudeMeters>
            <DistanceMeters>NAN</DistanceMeters>
          </Trackpoint>
          <Trackpoint>
            <Time>2022-07-17T10:49:01.000Z</Time>
            <Position>
              <LatitudeDegrees>43.48277754150331020355224609375</LatitudeDegrees>
              <LongitudeDegrees>-5.2457830868661403656005859375</LongitudeDegrees>
            </Position>
            <AltitudeMeters>43.200000762939453125</AltitudeMeters>
            <DistanceMeters>NAN</DistanceMeters>
          </Trackpoint>
          <Trackpoint>
            <Time>2022-07-17T10:49:04.000Z</Time>
            <Position>
              <LatitudeDegrees>43.48279304802417755126953125</LatitudeDegrees>
              <LongitudeDegrees>-5.24588677100837230682373046875</LongitudeDegrees>
            </Position>
            <AltitudeMeters>43.59999847412109375</AltitudeMeters>
            <DistanceMeters>NAN</DistanceMeters>
          </Trackpoint>
          <Trackpoint>
            <Time>2022-07-17T10:49:05.000Z</Time>
            <Position>
              <LatitudeDegrees>43.48279916681349277496337890625</LatitudeDegrees>
              <LongitudeDegrees>-5.24592147208750247955322265625</LongitudeDegrees>
            </Position>
            <AltitudeMeters>43.799999237060546875</AltitudeMeters>
            <DistanceMeters>NAN</DistanceMeters>
          </Trackpoint>
          <Trackpoint>
            <Time>2022-07-17T10:49:08.000Z</Time>
            <Position>
              <LatitudeDegrees>43.48281056620180606842041015625</LatitudeDegrees>
              <LongitudeDegrees>-5.246033370494842529296875</LongitudeDegrees>
            </Position>
            <AltitudeMeters>44</AltitudeMeters>
            <DistanceMeters>NAN</DistanceMeters>
          </Trackpoint>
          <Trackpoint>
            <Time>2022-07-17T10:49:12.000Z</Time>
            <Position>
              <LatitudeDegrees>43.4828230552375316619873046875</LatitudeDegrees>
              <LongitudeDegrees>-5.2461626194417476654052734375</LongitudeDegrees>
            </Position>
            <AltitudeMeters>44.40000152587890625</AltitudeMeters>
            <DistanceMeters>NAN</DistanceMeters>
          </Trackpoint>
          <Trackpoint>
            <Time>2022-07-17T10:49:16.000Z</Time>
            <Position>
              <LatitudeDegrees>43.48282900638878345489501953125</LatitudeDegrees>
              <LongitudeDegrees>-5.2463091351091861724853515625</LongitudeDegrees>
            </Position>
            <AltitudeMeters>44.59999847412109375</AltitudeMeters>
            <DistanceMeters>NAN</DistanceMeters>
          </Trackpoint>
          <Trackpoint>
            <Time>2022-07-17T10:49:18.000Z</Time>
            <Position>
              <LatitudeDegrees>43.48284543491899967193603515625</LatitudeDegrees>
              <LongitudeDegrees>-5.246364958584308624267578125</LongitudeDegrees>
            </Position>
            <AltitudeMeters>44.799999237060546875</AltitudeMeters>
            <DistanceMeters>NAN</DistanceMeters>
          </Trackpoint>
          <Trackpoint>
            <Time>2022-07-17T10:49:21.000Z</Time>
            <Position>
              <LatitudeDegrees>43.48285742104053497314453125</LatitudeDegrees>
              <LongitudeDegrees>-5.24644433520734310150146484375</LongitudeDegrees>
            </Position>
            <AltitudeMeters>45</AltitudeMeters>
            <DistanceMeters>NAN</DistanceMeters>
          </Trackpoint>
          <Trackpoint>
            <Time>2022-07-17T10:49:22.000Z</Time>
            <Position>
              <LatitudeDegrees>43.48286253400146961212158203125</LatitudeDegrees>
              <LongitudeDegrees>-5.24647886864840984344482421875</LongitudeDegrees>
            </Position>
            <AltitudeMeters>45.200000762939453125</AltitudeMeters>
            <DistanceMeters>NAN</DistanceMeters>
          </Trackpoint>
          <Trackpoint>
            <Time>2022-07-17T10:49:30.000Z</Time>
            <Position>
              <LatitudeDegrees>43.48289899528026580810546875</LatitudeDegrees>
              <LongitudeDegrees>-5.2467506937682628631591796875</LongitudeDegrees>
            </Position>
            <AltitudeMeters>45.799999237060546875</AltitudeMeters>
            <DistanceMeters>NAN</DistanceMeters>
          </Trackpoint>
          <Trackpoint>
            <Time>2022-07-17T10:49:37.000Z</Time>
            <Position>
              <LatitudeDegrees>43.4829340316355228424072265625</LatitudeDegrees>
              <LongitudeDegrees>-5.24699938483536243438720703125</LongitudeDegrees>
            </Position>
            <AltitudeMeters>46.200000762939453125</AltitudeMeters>
            <DistanceMeters>NAN</DistanceMeters>
          </Trackpoint>
          <Trackpoint>
            <Time>2022-07-17T10:49:41.000Z</Time>
            <Position>
              <LatitudeDegrees>43.48295087926089763641357421875</LatitudeDegrees>
              <LongitudeDegrees>-5.24714573286473751068115234375</LongitudeDegrees>
            </Position>
            <AltitudeMeters>46.40000152587890625</AltitudeMeters>
            <DistanceMeters>NAN</DistanceMeters>
          </Trackpoint>
          <Trackpoint>
            <Time>2022-07-17T10:49:45.000Z</Time>
            <Position>
              <LatitudeDegrees>43.48296873271465301513671875</LatitudeDegrees>
              <LongitudeDegrees>-5.24727732874453067779541015625</LongitudeDegrees>
            </Position>
            <AltitudeMeters>46.59999847412109375</AltitudeMeters>
            <DistanceMeters>NAN</DistanceMeters>
          </Trackpoint>
          <Trackpoint>
            <Time>2022-07-17T10:49:51.000Z</Time>
            <Position>
              <LatitudeDegrees>43.48298616707324981689453125</LatitudeDegrees>
              <LongitudeDegrees>-5.24749995209276676177978515625</LongitudeDegrees>
            </Position>
            <AltitudeMeters>47</AltitudeMeters>
            <DistanceMeters>NAN</DistanceMeters>
          </Trackpoint>
          <Trackpoint>
            <Time>2022-07-17T10:49:55.000Z</Time>
            <Position>
              <LatitudeDegrees>43.48300033248960971832275390625</LatitudeDegrees>
              <LongitudeDegrees>-5.24763858877122402191162109375</LongitudeDegrees>
            </Position>
            <AltitudeMeters>47.200000762939453125</AltitudeMeters>
            <DistanceMeters>NAN</DistanceMeters>
          </Trackpoint>
          <Trackpoint>
            <Time>2022-07-17T10:50:00.000Z</Time>
            <Position>
              <LatitudeDegrees>43.48301357589662075042724609375</LatitudeDegrees>
              <LongitudeDegrees>-5.247807316482067108154296875</LongitudeDegrees>
            </Position>
            <AltitudeMeters>47.799999237060546875</AltitudeMeters>
            <DistanceMeters>NAN</DistanceMeters>
          </Trackpoint>
          <Trackpoint>
            <Time>2022-07-17T10:50:07.000Z</Time>
            <Position>
              <LatitudeDegrees>43.483036793768405914306640625</LatitudeDegrees>
              <LongitudeDegrees>-5.24804779328405857086181640625</LongitudeDegrees>
            </Position>
            <AltitudeMeters>48.200000762939453125</AltitudeMeters>
            <DistanceMeters>NAN</DistanceMeters>
          </Trackpoint>
          <Trackpoint>
            <Time>2022-07-17T10:50:08.000Z</Time>
            <Position>
              <LatitudeDegrees>43.4830416552722454071044921875</LatitudeDegrees>
              <LongitudeDegrees>-5.2480827458202838897705078125</LongitudeDegrees>
            </Position>
            <AltitudeMeters>48.40000152587890625</AltitudeMeters>
            <DistanceMeters>NAN</DistanceMeters>
          </Trackpoint>
          <Trackpoint>
            <Time>2022-07-17T10:50:20.000Z</Time>
            <Position>
              <LatitudeDegrees>43.4830922819674015045166015625</LatitudeDegrees>
              <LongitudeDegrees>-5.248489938676357269287109375</LongitudeDegrees>
            </Position>
            <AltitudeMeters>49.200000762939453125</AltitudeMeters>
            <DistanceMeters>NAN</DistanceMeters>
          </Trackpoint>
          <Trackpoint>
            <Time>2022-07-17T10:50:26.000Z</Time>
            <Position>
              <LatitudeDegrees>43.48311281763017177581787109375</LatitudeDegrees>
              <LongitudeDegrees>-5.24869906716048717498779296875</LongitudeDegrees>
            </Position>
            <AltitudeMeters>49.40000152587890625</AltitudeMeters>
            <DistanceMeters>NAN</DistanceMeters>
          </Trackpoint>
          <Trackpoint>
            <Time>2022-07-17T10:50:31.000Z</Time>
            <Position>
              <LatitudeDegrees>43.4831201098859310150146484375</LatitudeDegrees>
              <LongitudeDegrees>-5.24885413236916065216064453125</LongitudeDegrees>
            </Position>
            <AltitudeMeters>49.40000152587890625</AltitudeMeters>
            <DistanceMeters>NAN</DistanceMeters>
          </Trackpoint>
          <Trackpoint>
            <Time>2022-07-17T10:50:38.000Z</Time>
            <Position>
              <LatitudeDegrees>43.4831583313643932342529296875</LatitudeDegrees>
              <LongitudeDegrees>-5.24915470741689205169677734375</LongitudeDegrees>
            </Position>
            <AltitudeMeters>49.40000152587890625</AltitudeMeters>
            <DistanceMeters>NAN</DistanceMeters>
          </Trackpoint>
          <Trackpoint>
            <Time>2022-07-17T10:50:45.000Z</Time>
            <Position>
              <LatitudeDegrees>43.48320552147924900054931640625</LatitudeDegrees>
              <LongitudeDegrees>-5.249568521976470947265625</LongitudeDegrees>
            </Position>
            <AltitudeMeters>48.799999237060546875</AltitudeMeters>
            <DistanceMeters>NAN</DistanceMeters>
          </Trackpoint>
          <Trackpoint>
            <Time>2022-07-17T10:50:47.000Z</Time>
            <Position>
              <LatitudeDegrees>43.483221866190433502197265625</LatitudeDegrees>
              <LongitudeDegrees>-5.24968025274574756622314453125</LongitudeDegrees>
            </Position>
            <AltitudeMeters>48.59999847412109375</AltitudeMeters>
            <DistanceMeters>NAN</DistanceMeters>
          </Trackpoint>
          <Trackpoint>
            <Time>2022-07-17T10:50:51.000Z</Time>
            <Position>
              <LatitudeDegrees>43.48325438797473907470703125</LatitudeDegrees>
              <LongitudeDegrees>-5.249962471425533294677734375</LongitudeDegrees>
            </Position>
            <AltitudeMeters>48.40000152587890625</AltitudeMeters>
            <DistanceMeters>NAN</DistanceMeters>
          </Trackpoint>
          <Trackpoint>
            <Time>2022-07-17T10:50:59.000Z</Time>
            <Position>
              <LatitudeDegrees>43.48330643959343433380126953125</LatitudeDegrees>
              <LongitudeDegrees>-5.250502265989780426025390625</LongitudeDegrees>
            </Position>
            <AltitudeMeters>47.799999237060546875</AltitudeMeters>
            <DistanceMeters>NAN</DistanceMeters>
          </Trackpoint>
          <Trackpoint>
            <Time>2022-07-17T10:51:02.000Z</Time>
            <Position>
              <LatitudeDegrees>43.4833306632936000823974609375</LatitudeDegrees>
              <LongitudeDegrees>-5.250673256814479827880859375</LongitudeDegrees>
            </Position>
            <AltitudeMeters>47.40000152587890625</AltitudeMeters>
            <DistanceMeters>NAN</DistanceMeters>
          </Trackpoint>
          <Trackpoint>
            <Time>2022-07-17T10:51:04.000Z</Time>
            <Position>
              <LatitudeDegrees>43.48335455171763896942138671875</LatitudeDegrees>
              <LongitudeDegrees>-5.25080309249460697174072265625</LongitudeDegrees>
            </Position>
            <AltitudeMeters>47.200000762939453125</AltitudeMeters>
            <DistanceMeters>NAN</DistanceMeters>
          </Trackpoint>
          <Trackpoint>
            <Time>2022-07-17T10:51:06.000Z</Time>
            <Position>
              <LatitudeDegrees>43.48337483592331409454345703125</LatitudeDegrees>
              <LongitudeDegrees>-5.2509510330855846405029296875</LongitudeDegrees>
            </Position>
            <AltitudeMeters>47</AltitudeMeters>
            <DistanceMeters>NAN</DistanceMeters>
          </Trackpoint>
          <Trackpoint>
            <Time>2022-07-17T10:51:08.000Z</Time>
            <Position>
              <LatitudeDegrees>43.48337508738040924072265625</LatitudeDegrees>
              <LongitudeDegrees>-5.2510915137827396392822265625</LongitudeDegrees>
            </Position>
            <AltitudeMeters>46.799999237060546875</AltitudeMeters>
            <DistanceMeters>NAN</DistanceMeters>
          </Trackpoint>
          <Trackpoint>
            <Time>2022-07-17T10:51:09.000Z</Time>
            <Position>
              <LatitudeDegrees>43.48337785340845584869384765625</LatitudeDegrees>
              <LongitudeDegrees>-5.25117323733866214752197265625</LongitudeDegrees>
            </Position>
            <AltitudeMeters>46.59999847412109375</AltitudeMeters>
            <DistanceMeters>NAN</DistanceMeters>
          </Trackpoint>
          <Trackpoint>
            <Time>2022-07-17T10:51:13.000Z</Time>
            <Position>
              <LatitudeDegrees>43.48340786062180995941162109375</LatitudeDegrees>
              <LongitudeDegrees>-5.25146610103547573089599609375</LongitudeDegrees>
            </Position>
            <AltitudeMeters>46.200000762939453125</AltitudeMeters>
            <DistanceMeters>NAN</DistanceMeters>
          </Trackpoint>
          <Trackpoint>
            <Time>2022-07-17T10:51:14.000Z</Time>
            <Position>
              <LatitudeDegrees>43.48341758362948894500732421875</LatitudeDegrees>
              <LongitudeDegrees>-5.25153952650725841522216796875</LongitudeDegrees>
            </Position>
            <AltitudeMeters>46.200000762939453125</AltitudeMeters>
            <DistanceMeters>NAN</DistanceMeters>
          </Trackpoint>
          <Trackpoint>
            <Time>2022-07-17T10:51:21.000Z</Time>
            <Position>
              <LatitudeDegrees>43.4834822081029415130615234375</LatitudeDegrees>
              <LongitudeDegrees>-5.25205685757100582122802734375</LongitudeDegrees>
            </Position>
            <AltitudeMeters>45.799999237060546875</AltitudeMeters>
            <DistanceMeters>NAN</DistanceMeters>
          </Trackpoint>
          <Trackpoint>
            <Time>2022-07-17T10:51:28.000Z</Time>
            <Position>
              <LatitudeDegrees>43.48355873487889766693115234375</LatitudeDegrees>
              <LongitudeDegrees>-5.25261978618800640106201171875</LongitudeDegrees>
            </Position>
            <AltitudeMeters>45.59999847412109375</AltitudeMeters>
            <DistanceMeters>NAN</DistanceMeters>
          </Trackpoint>
          <Trackpoint>
            <Time>2022-07-17T10:51:33.000Z</Time>
            <Position>
              <LatitudeDegrees>43.48360634408891201019287109375</LatitudeDegrees>
              <LongitudeDegrees>-5.25301423855125904083251953125</LongitudeDegrees>
            </Position>
            <AltitudeMeters>45.200000762939453125</AltitudeMeters>
            <DistanceMeters>NAN</DistanceMeters>
          </Trackpoint>
          <Trackpoint>
            <Time>2022-07-17T10:51:36.000Z</Time>
            <Position>
              <LatitudeDegrees>43.48362897522747516632080078125</LatitudeDegrees>
              <LongitudeDegrees>-5.25323987938463687896728515625</LongitudeDegrees>
            </Position>
            <AltitudeMeters>45</AltitudeMeters>
            <DistanceMeters>NAN</DistanceMeters>
          </Trackpoint>
          <Trackpoint>
            <Time>2022-07-17T10:51:42.000Z</Time>
            <Position>
              <LatitudeDegrees>43.4836823679506778717041015625</LatitudeDegrees>
              <LongitudeDegrees>-5.25372284464538097381591796875</LongitudeDegrees>
            </Position>
            <AltitudeMeters>44.200000762939453125</AltitudeMeters>
            <DistanceMeters>NAN</DistanceMeters>
          </Trackpoint>
          <Trackpoint>
            <Time>2022-07-17T10:51:43.000Z</Time>
            <Position>
              <LatitudeDegrees>43.4836890734732151031494140625</LatitudeDegrees>
              <LongitudeDegrees>-5.25380146689713001251220703125</LongitudeDegrees>
            </Position>
            <AltitudeMeters>44</AltitudeMeters>
            <DistanceMeters>NAN</DistanceMeters>
          </Trackpoint>
          <Trackpoint>
            <Time>2022-07-17T10:51:51.000Z</Time>
            <Position>
              <LatitudeDegrees>43.4837593138217926025390625</LatitudeDegrees>
              <LongitudeDegrees>-5.254439748823642730712890625</LongitudeDegrees>
            </Position>
            <AltitudeMeters>43</AltitudeMeters>
            <DistanceMeters>NAN</DistanceMeters>
          </Trackpoint>
          <Trackpoint>
            <Time>2022-07-17T10:51:53.000Z</Time>
            <Position>
              <LatitudeDegrees>43.4837738983333110809326171875</LatitudeDegrees>
              <LongitudeDegrees>-5.25460361503064632415771484375</LongitudeDegrees>
            </Position>
            <AltitudeMeters>42.59999847412109375</AltitudeMeters>
            <DistanceMeters>NAN</DistanceMeters>
          </Trackpoint>
          <Trackpoint>
            <Time>2022-07-17T10:51:58.000Z</Time>
            <Position>
              <LatitudeDegrees>43.4838097728788852691650390625</LatitudeDegrees>
              <LongitudeDegrees>-5.25501784868538379669189453125</LongitudeDegrees>
            </Position>
            <AltitudeMeters>42</AltitudeMeters>
            <DistanceMeters>NAN</DistanceMeters>
          </Trackpoint>
          <Trackpoint>
            <Time>2022-07-17T10:52:02.000Z</Time>
            <Position>
              <LatitudeDegrees>43.4838412888348102569580078125</LatitudeDegrees>
              <LongitudeDegrees>-5.255340971052646636962890625</LongitudeDegrees>
            </Position>
            <AltitudeMeters>41.59999847412109375</AltitudeMeters>
            <DistanceMeters>NAN</DistanceMeters>
          </Trackpoint>
          <Trackpoint>
            <Time>2022-07-17T10:52:04.000Z</Time>
            <Position>
              <LatitudeDegrees>43.48387791775166988372802734375</LatitudeDegrees>
              <LongitudeDegrees>-5.255490504205226898193359375</LongitudeDegrees>
            </Position>
            <AltitudeMeters>41.40000152587890625</AltitudeMeters>
            <DistanceMeters>NAN</DistanceMeters>
          </Trackpoint>
          <Trackpoint>
            <Time>2022-07-17T10:52:06.000Z</Time>
            <Position>
              <LatitudeDegrees>43.48395151086151599884033203125</LatitudeDegrees>
              <LongitudeDegrees>-5.255606509745121002197265625</LongitudeDegrees>
            </Position>
            <AltitudeMeters>41.200000762939453125</AltitudeMeters>
            <DistanceMeters>NAN</DistanceMeters>
          </Trackpoint>
          <Trackpoint>
            <Time>2022-07-17T10:52:08.000Z</Time>
            <Position>
              <LatitudeDegrees>43.48404438234865665435791015625</LatitudeDegrees>
              <LongitudeDegrees>-5.255700387060642242431640625</LongitudeDegrees>
            </Position>
            <AltitudeMeters>41.200000762939453125</AltitudeMeters>
            <DistanceMeters>NAN</DistanceMeters>
          </Trackpoint>
          <Trackpoint>
            <Time>2022-07-17T10:52:10.000Z</Time>
            <Position>
              <LatitudeDegrees>43.48410758189857006072998046875</LatitudeDegrees>
              <LongitudeDegrees>-5.2558282949030399322509765625</LongitudeDegrees>
            </Position>
            <AltitudeMeters>41</AltitudeMeters>
            <DistanceMeters>NAN</DistanceMeters>
          </Trackpoint>
          <Trackpoint>
            <Time>2022-07-17T10:52:12.000Z</Time>
            <Position>
              <LatitudeDegrees>43.48413323052227497100830078125</LatitudeDegrees>
              <LongitudeDegrees>-5.25597070343792438507080078125</LongitudeDegrees>
            </Position>
            <AltitudeMeters>40.799999237060546875</AltitudeMeters>
            <DistanceMeters>NAN</DistanceMeters>
          </Trackpoint>
          <Trackpoint>
            <Time>2022-07-17T10:52:14.000Z</Time>
            <Position>
              <LatitudeDegrees>43.48411579616367816925048828125</LatitudeDegrees>
              <LongitudeDegrees>-5.2561099268496036529541015625</LongitudeDegrees>
            </Position>
            <AltitudeMeters>40.59999847412109375</AltitudeMeters>
            <DistanceMeters>NAN</DistanceMeters>
          </Trackpoint>
          <Trackpoint>
            <Time>2022-07-17T10:52:18.000Z</Time>
            <Position>
              <LatitudeDegrees>43.4840114414691925048828125</LatitudeDegrees>
              <LongitudeDegrees>-5.2563799917697906494140625</LongitudeDegrees>
            </Position>
            <AltitudeMeters>40.40000152587890625</AltitudeMeters>
            <DistanceMeters>NAN</DistanceMeters>
          </Trackpoint>
          <Trackpoint>
            <Time>2022-07-17T10:52:19.000Z</Time>
            <Position>
              <LatitudeDegrees>43.4840035624802112579345703125</LatitudeDegrees>
              <LongitudeDegrees>-5.256456434726715087890625</LongitudeDegrees>
            </Position>
            <AltitudeMeters>40.200000762939453125</AltitudeMeters>
            <DistanceMeters>NAN</DistanceMeters>
          </Trackpoint>
          <Trackpoint>
            <Time>2022-07-17T10:52:20.000Z</Time>
            <Position>
              <LatitudeDegrees>43.4839988686144351959228515625</LatitudeDegrees>
              <LongitudeDegrees>-5.2565374039113521575927734375</LongitudeDegrees>
            </Position>
            <AltitudeMeters>40.200000762939453125</AltitudeMeters>
            <DistanceMeters>NAN</DistanceMeters>
          </Trackpoint>
          <Trackpoint>
            <Time>2022-07-17T10:52:22.000Z</Time>
            <Position>
              <LatitudeDegrees>43.48400674760341644287109375</LatitudeDegrees>
              <LongitudeDegrees>-5.25670227594673633575439453125</LongitudeDegrees>
            </Position>
            <AltitudeMeters>40</AltitudeMeters>
            <DistanceMeters>NAN</DistanceMeters>
          </Trackpoint>
          <Trackpoint>
            <Time>2022-07-17T10:52:24.000Z</Time>
            <Position>
              <LatitudeDegrees>43.48402493633329868316650390625</LatitudeDegrees>
              <LongitudeDegrees>-5.25685482658445835113525390625</LongitudeDegrees>
            </Position>
            <AltitudeMeters>40</AltitudeMeters>
            <DistanceMeters>NAN</DistanceMeters>
          </Trackpoint>
          <Trackpoint>
            <Time>2022-07-17T10:52:31.000Z</Time>
            <Position>
              <LatitudeDegrees>43.484078161418437957763671875</LatitudeDegrees>
              <LongitudeDegrees>-5.25737752206623554229736328125</LongitudeDegrees>
            </Position>
            <AltitudeMeters>39.200000762939453125</AltitudeMeters>
            <DistanceMeters>NAN</DistanceMeters>
          </Trackpoint>
          <Trackpoint>
            <Time>2022-07-17T10:52:33.000Z</Time>
            <Position>
              <LatitudeDegrees>43.48409400321543216705322265625</LatitudeDegrees>
              <LongitudeDegrees>-5.2575268037617206573486328125</LongitudeDegrees>
            </Position>
            <AltitudeMeters>39</AltitudeMeters>
            <DistanceMeters>NAN</DistanceMeters>
          </Trackpoint>
          <Trackpoint>
            <Time>2022-07-17T10:52:34.000Z</Time>
            <Position>
              <LatitudeDegrees>43.4841028042137622833251953125</LatitudeDegrees>
              <LongitudeDegrees>-5.25759964250028133392333984375</LongitudeDegrees>
            </Position>
            <AltitudeMeters>38.799999237060546875</AltitudeMeters>
            <DistanceMeters>NAN</DistanceMeters>
          </Trackpoint>
          <Trackpoint>
            <Time>2022-07-17T10:52:41.000Z</Time>
            <Position>
              <LatitudeDegrees>43.4841564483940601348876953125</LatitudeDegrees>
              <LongitudeDegrees>-5.2580830268561840057373046875</LongitudeDegrees>
            </Position>
            <AltitudeMeters>38.59999847412109375</AltitudeMeters>
            <DistanceMeters>NAN</DistanceMeters>
          </Trackpoint>
          <Trackpoint>
            <Time>2022-07-17T10:52:42.000Z</Time>
            <Position>
              <LatitudeDegrees>43.48415921442210674285888671875</LatitudeDegrees>
              <LongitudeDegrees>-5.258145891129970550537109375</LongitudeDegrees>
            </Position>
            <AltitudeMeters>38.59999847412109375</AltitudeMeters>
            <DistanceMeters>NAN</DistanceMeters>
          </Trackpoint>
          <Trackpoint>
            <Time>2022-07-17T10:52:48.000Z</Time>
            <Position>
              <LatitudeDegrees>43.48419173620641231536865234375</LatitudeDegrees>
              <LongitudeDegrees>-5.258514024317264556884765625</LongitudeDegrees>
            </Position>
            <AltitudeMeters>38.40000152587890625</AltitudeMeters>
            <DistanceMeters>NAN</DistanceMeters>
          </Trackpoint>
          <Trackpoint>
            <Time>2022-07-17T10:52:50.000Z</Time>
            <Position>
              <LatitudeDegrees>43.48420481197535991668701171875</LatitudeDegrees>
              <LongitudeDegrees>-5.25863246060907840728759765625</LongitudeDegrees>
            </Position>
            <AltitudeMeters>38.40000152587890625</AltitudeMeters>
            <DistanceMeters>NAN</DistanceMeters>
          </Trackpoint>
          <Trackpoint>
            <Time>2022-07-17T10:52:58.000Z</Time>
            <Position>
              <LatitudeDegrees>43.48425359465181827545166015625</LatitudeDegrees>
              <LongitudeDegrees>-5.25914878584444522857666015625</LongitudeDegrees>
            </Position>
            <AltitudeMeters>38.200000762939453125</AltitudeMeters>
            <DistanceMeters>NAN</DistanceMeters>
          </Trackpoint>
          <Trackpoint>
            <Time>2022-07-17T10:52:59.000Z</Time>
            <Position>
              <LatitudeDegrees>43.48425275646150112152099609375</LatitudeDegrees>
              <LongitudeDegrees>-5.259216763079166412353515625</LongitudeDegrees>
            </Position>
            <AltitudeMeters>38</AltitudeMeters>
            <DistanceMeters>NAN</DistanceMeters>
          </Trackpoint>
          <Trackpoint>
            <Time>2022-07-17T10:53:00.000Z</Time>
            <Position>
              <LatitudeDegrees>43.48425728268921375274658203125</LatitudeDegrees>
              <LongitudeDegrees>-5.2592853270471096038818359375</LongitudeDegrees>
            </Position>
            <AltitudeMeters>37.799999237060546875</AltitudeMeters>
            <DistanceMeters>NAN</DistanceMeters>
          </Trackpoint>
          <Trackpoint>
            <Time>2022-07-17T10:53:07.000Z</Time>
            <Position>
              <LatitudeDegrees>43.4843172132968902587890625</LatitudeDegrees>
              <LongitudeDegrees>-5.25976217351853847503662109375</LongitudeDegrees>
            </Position>
            <AltitudeMeters>37.40000152587890625</AltitudeMeters>
            <DistanceMeters>NAN</DistanceMeters>
          </Trackpoint>
          <Trackpoint>
            <Time>2022-07-17T10:53:10.000Z</Time>
            <Position>
              <LatitudeDegrees>43.4843361563980579376220703125</LatitudeDegrees>
              <LongitudeDegrees>-5.259963758289813995361328125</LongitudeDegrees>
            </Position>
            <AltitudeMeters>37.40000152587890625</AltitudeMeters>
            <DistanceMeters>NAN</DistanceMeters>
          </Trackpoint>
          <Trackpoint>
            <Time>2022-07-17T10:53:14.000Z</Time>
            <Position>
              <LatitudeDegrees>43.48436809144914150238037109375</LatitudeDegrees>
              <LongitudeDegrees>-5.26024228893220424652099609375</LongitudeDegrees>
            </Position>
            <AltitudeMeters>37.40000152587890625</AltitudeMeters>
            <DistanceMeters>NAN</DistanceMeters>
          </Trackpoint>
          <Trackpoint>
            <Time>2022-07-17T10:53:25.000Z</Time>
            <Position>
              <LatitudeDegrees>43.4844464622437953948974609375</LatitudeDegrees>
              <LongitudeDegrees>-5.260989367961883544921875</LongitudeDegrees>
            </Position>
            <AltitudeMeters>37.200000762939453125</AltitudeMeters>
            <DistanceMeters>NAN</DistanceMeters>
          </Trackpoint>
          <Trackpoint>
            <Time>2022-07-17T10:53:28.000Z</Time>
            <Position>
              <LatitudeDegrees>43.48447479307651519775390625</LatitudeDegrees>
              <LongitudeDegrees>-5.26119656860828399658203125</LongitudeDegrees>
            </Position>
            <AltitudeMeters>36.799999237060546875</AltitudeMeters>
            <DistanceMeters>NAN</DistanceMeters>
          </Trackpoint>
          <Trackpoint>
            <Time>2022-07-17T10:53:29.000Z</Time>
            <Position>
              <LatitudeDegrees>43.48448216915130615234375</LatitudeDegrees>
              <LongitudeDegrees>-5.2612661384046077728271484375</LongitudeDegrees>
            </Position>
            <AltitudeMeters>36.799999237060546875</AltitudeMeters>
            <DistanceMeters>NAN</DistanceMeters>
          </Trackpoint>
          <Trackpoint>
            <Time>2022-07-17T10:53:33.000Z</Time>
            <Position>
              <LatitudeDegrees>43.4845118410885334014892578125</LatitudeDegrees>
              <LongitudeDegrees>-5.26154257357120513916015625</LongitudeDegrees>
            </Position>
            <AltitudeMeters>36.59999847412109375</AltitudeMeters>
            <DistanceMeters>NAN</DistanceMeters>
          </Trackpoint>
          <Trackpoint>
            <Time>2022-07-17T10:53:36.000Z</Time>
            <Position>
              <LatitudeDegrees>43.48453287966549396514892578125</LatitudeDegrees>
              <LongitudeDegrees>-5.26175044476985931396484375</LongitudeDegrees>
            </Position>
            <AltitudeMeters>36.59999847412109375</AltitudeMeters>
            <DistanceMeters>NAN</DistanceMeters>
          </Trackpoint>
          <Trackpoint>
            <Time>2022-07-17T10:53:46.000Z</Time>
            <Position>
              <LatitudeDegrees>43.48460999317467212677001953125</LatitudeDegrees>
              <LongitudeDegrees>-5.262432061135768890380859375</LongitudeDegrees>
            </Position>
            <AltitudeMeters>36.59999847412109375</AltitudeMeters>
            <DistanceMeters>NAN</DistanceMeters>
          </Trackpoint>
          <Trackpoint>
            <Time>2022-07-17T10:53:55.000Z</Time>
            <Position>
              <LatitudeDegrees>43.4846761263906955718994140625</LatitudeDegrees>
              <LongitudeDegrees>-5.26306279934942722320556640625</LongitudeDegrees>
            </Position>
            <AltitudeMeters>36.200000762939453125</AltitudeMeters>
            <DistanceMeters>NAN</DistanceMeters>
          </Trackpoint>
          <Trackpoint>
            <Time>2022-07-17T10:54:02.000Z</Time>
            <Position>
              <LatitudeDegrees>43.4847381524741649627685546875</LatitudeDegrees>
              <LongitudeDegrees>-5.26349723339080810546875</LongitudeDegrees>
            </Position>
            <AltitudeMeters>36.200000762939453125</AltitudeMeters>
            <DistanceMeters>NAN</DistanceMeters>
          </Trackpoint>
          <Trackpoint>
            <Time>2022-07-17T10:54:04.000Z</Time>
            <Position>
              <LatitudeDegrees>43.4847532398998737335205078125</LatitudeDegrees>
              <LongitudeDegrees>-5.263614244759082794189453125</LongitudeDegrees>
            </Position>
            <AltitudeMeters>36</AltitudeMeters>
            <DistanceMeters>NAN</DistanceMeters>
          </Trackpoint>
          <Trackpoint>
            <Time>2022-07-17T10:54:11.000Z</Time>
            <Position>
              <LatitudeDegrees>43.48479741252958774566650390625</LatitudeDegrees>
              <LongitudeDegrees>-5.2640415541827678680419921875</LongitudeDegrees>
            </Position>
            <AltitudeMeters>35.799999237060546875</AltitudeMeters>
            <DistanceMeters>NAN</DistanceMeters>
          </Trackpoint>
          <Trackpoint>
            <Time>2022-07-17T10:54:14.000Z</Time>
            <Position>
              <LatitudeDegrees>43.4848142601549625396728515625</LatitudeDegrees>
              <LongitudeDegrees>-5.26424179784953594207763671875</LongitudeDegrees>
            </Position>
            <AltitudeMeters>35.799999237060546875</AltitudeMeters>
            <DistanceMeters>NAN</DistanceMeters>
          </Trackpoint>
          <Trackpoint>
            <Time>2022-07-17T10:54:16.000Z</Time>
            <Position>
              <LatitudeDegrees>43.4848316945135593414306640625</LatitudeDegrees>
              <LongitudeDegrees>-5.26438814587891101837158203125</LongitudeDegrees>
            </Position>
            <AltitudeMeters>35.59999847412109375</AltitudeMeters>
            <DistanceMeters>NAN</DistanceMeters>
          </Trackpoint>
          <Trackpoint>
            <Time>2022-07-17T10:54:24.000Z</Time>
            <Position>
              <LatitudeDegrees>43.48489967174828052520751953125</LatitudeDegrees>
              <LongitudeDegrees>-5.265000276267528533935546875</LongitudeDegrees>
            </Position>
            <AltitudeMeters>35.59999847412109375</AltitudeMeters>
            <DistanceMeters>NAN</DistanceMeters>
          </Trackpoint>
          <Trackpoint>
            <Time>2022-07-17T10:54:30.000Z</Time>
            <Position>
              <LatitudeDegrees>43.48495013080537319183349609375</LatitudeDegrees>
              <LongitudeDegrees>-5.2654627896845340728759765625</LongitudeDegrees>
            </Position>
            <AltitudeMeters>35.200000762939453125</AltitudeMeters>
            <DistanceMeters>NAN</DistanceMeters>
          </Trackpoint>
          <Trackpoint>
            <Time>2022-07-17T10:54:34.000Z</Time>
            <Position>
              <LatitudeDegrees>43.4849772043526172637939453125</LatitudeDegrees>
              <LongitudeDegrees>-5.26578188873827457427978515625</LongitudeDegrees>
            </Position>
            <AltitudeMeters>35</AltitudeMeters>
            <DistanceMeters>NAN</DistanceMeters>
          </Trackpoint>
          <Trackpoint>
            <Time>2022-07-17T10:54:37.000Z</Time>
            <Position>
              <LatitudeDegrees>43.4850013442337512969970703125</LatitudeDegrees>
              <LongitudeDegrees>-5.26602311991155147552490234375</LongitudeDegrees>
            </Position>
            <AltitudeMeters>34.799999237060546875</AltitudeMeters>
            <DistanceMeters>NAN</DistanceMeters>
          </Trackpoint>
          <Trackpoint>
            <Time>2022-07-17T10:54:39.000Z</Time>
            <Position>
              <LatitudeDegrees>43.48502037115395069122314453125</LatitudeDegrees>
              <LongitudeDegrees>-5.26618086732923984527587890625</LongitudeDegrees>
            </Position>
            <AltitudeMeters>34.59999847412109375</AltitudeMeters>
            <DistanceMeters>NAN</DistanceMeters>
          </Trackpoint>
          <Trackpoint>
            <Time>2022-07-17T10:54:47.000Z</Time>
            <Position>
              <LatitudeDegrees>43.48508759401738643646240234375</LatitudeDegrees>
              <LongitudeDegrees>-5.2668038941919803619384765625</LongitudeDegrees>
            </Position>
            <AltitudeMeters>34.40000152587890625</AltitudeMeters>
            <DistanceMeters>NAN</DistanceMeters>
          </Trackpoint>
          <Trackpoint>
            <Time>2022-07-17T10:54:54.000Z</Time>
            <Position>
              <LatitudeDegrees>43.4851492010056972503662109375</LatitudeDegrees>
              <LongitudeDegrees>-5.26735165156424045562744140625</LongitudeDegrees>
            </Position>
            <AltitudeMeters>34.200000762939453125</AltitudeMeters>
            <DistanceMeters>NAN</DistanceMeters>
          </Trackpoint>
          <Trackpoint>
            <Time>2022-07-17T10:54:56.000Z</Time>
            <Position>
              <LatitudeDegrees>43.48517007194459438323974609375</LatitudeDegrees>
              <LongitudeDegrees>-5.26750302873551845550537109375</LongitudeDegrees>
            </Position>
            <AltitudeMeters>34</AltitudeMeters>
            <DistanceMeters>NAN</DistanceMeters>
          </Trackpoint>
          <Trackpoint>
            <Time>2022-07-17T10:55:04.000Z</Time>
            <Position>
              <LatitudeDegrees>43.48521508276462554931640625</LatitudeDegrees>
              <LongitudeDegrees>-5.26809076778590679168701171875</LongitudeDegrees>
            </Position>
            <AltitudeMeters>33.59999847412109375</AltitudeMeters>
            <DistanceMeters>NAN</DistanceMeters>
          </Trackpoint>
          <Trackpoint>
            <Time>2022-07-17T10:55:06.000Z</Time>
            <Position>
              <LatitudeDegrees>43.4852393902838230133056640625</LatitudeDegrees>
              <LongitudeDegrees>-5.268233008682727813720703125</LongitudeDegrees>
            </Position>
            <AltitudeMeters>33.59999847412109375</AltitudeMeters>
            <DistanceMeters>NAN</DistanceMeters>
          </Trackpoint>
          <Trackpoint>
            <Time>2022-07-17T10:55:07.000Z</Time>
            <Position>
              <LatitudeDegrees>43.48525338806211948394775390625</LatitudeDegrees>
              <LongitudeDegrees>-5.26829310692846775054931640625</LongitudeDegrees>
            </Position>
            <AltitudeMeters>33.59999847412109375</AltitudeMeters>
            <DistanceMeters>NAN</DistanceMeters>
          </Trackpoint>
          <Trackpoint>
            <Time>2022-07-17T10:55:08.000Z</Time>
            <Position>
              <LatitudeDegrees>43.48526026122272014617919921875</LatitudeDegrees>
              <LongitudeDegrees>-5.2683578990399837493896484375</LongitudeDegrees>
            </Position>
            <AltitudeMeters>33.59999847412109375</AltitudeMeters>
            <DistanceMeters>NAN</DistanceMeters>
          </Trackpoint>
          <Trackpoint>
            <Time>2022-07-17T10:55:11.000Z</Time>
            <Position>
              <LatitudeDegrees>43.48530133254826068878173828125</LatitudeDegrees>
              <LongitudeDegrees>-5.26857197284698486328125</LongitudeDegrees>
            </Position>
            <AltitudeMeters>33.799999237060546875</AltitudeMeters>
            <DistanceMeters>NAN</DistanceMeters>
          </Trackpoint>
          <Trackpoint>
            <Time>2022-07-17T10:55:15.000Z</Time>
            <Position>
              <LatitudeDegrees>43.4853336028754711151123046875</LatitudeDegrees>
              <LongitudeDegrees>-5.268851928412914276123046875</LongitudeDegrees>
            </Position>
            <AltitudeMeters>33.59999847412109375</AltitudeMeters>
            <DistanceMeters>NAN</DistanceMeters>
          </Trackpoint>
          <Trackpoint>
            <Time>2022-07-17T10:55:22.000Z</Time>
            <Position>
              <LatitudeDegrees>43.48535346798598766326904296875</LatitudeDegrees>
              <LongitudeDegrees>-5.2692624740302562713623046875</LongitudeDegrees>
            </Position>
            <AltitudeMeters>33.200000762939453125</AltitudeMeters>
            <DistanceMeters>NAN</DistanceMeters>
          </Trackpoint>
          <Trackpoint>
            <Time>2022-07-17T10:55:27.000Z</Time>
            <Position>
              <LatitudeDegrees>43.485352210700511932373046875</LatitudeDegrees>
              <LongitudeDegrees>-5.269506387412548065185546875</LongitudeDegrees>
            </Position>
            <AltitudeMeters>33.200000762939453125</AltitudeMeters>
            <DistanceMeters>NAN</DistanceMeters>
          </Trackpoint>
          <Trackpoint>
            <Time>2022-07-17T10:55:34.000Z</Time>
            <Position>
              <LatitudeDegrees>43.48534785211086273193359375</LatitudeDegrees>
              <LongitudeDegrees>-5.26979598216712474822998046875</LongitudeDegrees>
            </Position>
            <AltitudeMeters>33.59999847412109375</AltitudeMeters>
            <DistanceMeters>NAN</DistanceMeters>
          </Trackpoint>
          <Trackpoint>
            <Time>2022-07-17T10:55:37.000Z</Time>
            <Position>
              <LatitudeDegrees>43.48534919321537017822265625</LatitudeDegrees>
              <LongitudeDegrees>-5.26991508901119232177734375</LongitudeDegrees>
            </Position>
            <AltitudeMeters>33.799999237060546875</AltitudeMeters>
            <DistanceMeters>NAN</DistanceMeters>
          </Trackpoint>
          <Trackpoint>
            <Time>2022-07-17T10:55:38.000Z</Time>
            <Position>
              <LatitudeDegrees>43.485353551805019378662109375</LatitudeDegrees>
              <LongitudeDegrees>-5.26995238848030567169189453125</LongitudeDegrees>
            </Position>
            <AltitudeMeters>33.799999237060546875</AltitudeMeters>
            <DistanceMeters>NAN</DistanceMeters>
          </Trackpoint>
          <Trackpoint>
            <Time>2022-07-17T10:55:42.000Z</Time>
            <Position>
              <LatitudeDegrees>43.4854043461382389068603515625</LatitudeDegrees>
              <LongitudeDegrees>-5.27004794217646121978759765625</LongitudeDegrees>
            </Position>
            <AltitudeMeters>34.200000762939453125</AltitudeMeters>
            <DistanceMeters>NAN</DistanceMeters>
          </Trackpoint>
          <Trackpoint>
            <Time>2022-07-17T10:55:50.000Z</Time>
            <Position>
              <LatitudeDegrees>43.48555664531886577606201171875</LatitudeDegrees>
              <LongitudeDegrees>-5.27024776674807071685791015625</LongitudeDegrees>
            </Position>
            <AltitudeMeters>34.200000762939453125</AltitudeMeters>
            <DistanceMeters>NAN</DistanceMeters>
          </Trackpoint>
          <Trackpoint>
            <Time>2022-07-17T10:55:54.000Z</Time>
            <Position>
              <LatitudeDegrees>43.48558656871318817138671875</LatitudeDegrees>
              <LongitudeDegrees>-5.27024055831134319305419921875</LongitudeDegrees>
            </Position>
            <AltitudeMeters>34.200000762939453125</AltitudeMeters>
            <DistanceMeters>NAN</DistanceMeters>
          </Trackpoint>
          <Trackpoint>
            <Time>2022-07-17T10:55:57.000Z</Time>
            <Position>
              <LatitudeDegrees>43.4855867363512516021728515625</LatitudeDegrees>
              <LongitudeDegrees>-5.270233936607837677001953125</LongitudeDegrees>
            </Position>
            <AltitudeMeters>34</AltitudeMeters>
            <DistanceMeters>NAN</DistanceMeters>
          </Trackpoint>
          <Trackpoint>
            <Time>2022-07-17T10:56:39.000Z</Time>
            <Position>
              <LatitudeDegrees>43.4856276400387287139892578125</LatitudeDegrees>
              <LongitudeDegrees>-5.27008197270333766937255859375</LongitudeDegrees>
            </Position>
            <AltitudeMeters>33.59999847412109375</AltitudeMeters>
            <DistanceMeters>NAN</DistanceMeters>
          </Trackpoint>
          <Trackpoint>
            <Time>2022-07-17T10:56:40.000Z</Time>
            <Position>
              <LatitudeDegrees>43.4856234490871429443359375</LatitudeDegrees>
              <LongitudeDegrees>-5.27007610537111759185791015625</LongitudeDegrees>
            </Position>
            <AltitudeMeters>33.40000152587890625</AltitudeMeters>
            <DistanceMeters>NAN</DistanceMeters>
          </Trackpoint>
          <Trackpoint>
            <Time>2022-07-17T10:56:45.000Z</Time>
            <Position>
              <LatitudeDegrees>43.4856175817549228668212890625</LatitudeDegrees>
              <LongitudeDegrees>-5.27005397714674472808837890625</LongitudeDegrees>
            </Position>
            <AltitudeMeters>33.59999847412109375</AltitudeMeters>
            <DistanceMeters>NAN</DistanceMeters>
          </Trackpoint>
          <Trackpoint>
            <Time>2022-07-17T10:56:46.000Z</Time>
            <Position>
              <LatitudeDegrees>43.4856122173368930816650390625</LatitudeDegrees>
              <LongitudeDegrees>-5.27008138597011566162109375</LongitudeDegrees>
            </Position>
            <AltitudeMeters>33.799999237060546875</AltitudeMeters>
            <DistanceMeters>NAN</DistanceMeters>
          </Trackpoint>
          <Trackpoint>
            <Time>2022-07-17T10:56:48.000Z</Time>
            <Position>
              <LatitudeDegrees>43.4855897538363933563232421875</LatitudeDegrees>
              <LongitudeDegrees>-5.2700339443981647491455078125</LongitudeDegrees>
            </Position>
            <AltitudeMeters>33.799999237060546875</AltitudeMeters>
            <DistanceMeters>NAN</DistanceMeters>
          </Trackpoint>
          <Trackpoint>
            <Time>2022-07-17T10:56:50.000Z</Time>
            <Position>
              <LatitudeDegrees>43.48555044271051883697509765625</LatitudeDegrees>
              <LongitudeDegrees>-5.26997971348464488983154296875</LongitudeDegrees>
            </Position>
            <AltitudeMeters>34</AltitudeMeters>
            <DistanceMeters>NAN</DistanceMeters>
          </Trackpoint>
          <Trackpoint>
            <Time>2022-07-17T10:56:51.000Z</Time>
            <Position>
              <LatitudeDegrees>43.48554910160601139068603515625</LatitudeDegrees>
              <LongitudeDegrees>-5.26998884975910186767578125</LongitudeDegrees>
            </Position>
            <AltitudeMeters>34</AltitudeMeters>
            <DistanceMeters>NAN</DistanceMeters>
          </Trackpoint>
          <Trackpoint>
            <Time>2022-07-17T10:56:53.000Z</Time>
            <Position>
              <LatitudeDegrees>43.48554910160601139068603515625</LatitudeDegrees>
              <LongitudeDegrees>-5.26998884975910186767578125</LongitudeDegrees>
            </Position>
            <AltitudeMeters>34</AltitudeMeters>
            <DistanceMeters>NAN</DistanceMeters>
          </Trackpoint>
          <Trackpoint>
            <Time>2022-07-17T10:57:50.000Z</Time>
            <Position>
              <LatitudeDegrees>43.485522530972957611083984375</LatitudeDegrees>
              <LongitudeDegrees>-5.2701100520789623260498046875</LongitudeDegrees>
            </Position>
            <AltitudeMeters>33.40000152587890625</AltitudeMeters>
            <DistanceMeters>NAN</DistanceMeters>
          </Trackpoint>
          <Trackpoint>
            <Time>2022-07-17T10:57:54.000Z</Time>
            <Position>
              <LatitudeDegrees>43.4855282306671142578125</LatitudeDegrees>
              <LongitudeDegrees>-5.2701137401163578033447265625</LongitudeDegrees>
            </Position>
            <AltitudeMeters>33.200000762939453125</AltitudeMeters>
            <DistanceMeters>NAN</DistanceMeters>
          </Trackpoint>
          <Trackpoint>
            <Time>2022-07-17T10:57:55.000Z</Time>
            <Position>
              <LatitudeDegrees>43.4855282306671142578125</LatitudeDegrees>
              <LongitudeDegrees>-5.2701137401163578033447265625</LongitudeDegrees>
            </Position>
            <AltitudeMeters>33.200000762939453125</AltitudeMeters>
            <DistanceMeters>NAN</DistanceMeters>
          </Trackpoint>
          <Trackpoint>
            <Time>2022-07-17T10:58:45.000Z</Time>
            <Position>
              <LatitudeDegrees>43.4855263866484165191650390625</LatitudeDegrees>
              <LongitudeDegrees>-5.2701355330646038055419921875</LongitudeDegrees>
            </Position>
            <AltitudeMeters>33.40000152587890625</AltitudeMeters>
            <DistanceMeters>NAN</DistanceMeters>
          </Trackpoint>
          <Trackpoint>
            <Time>2022-07-17T10:58:46.000Z</Time>
            <Position>
              <LatitudeDegrees>43.48552395589649677276611328125</LatitudeDegrees>
              <LongitudeDegrees>-5.27012220583856105804443359375</LongitudeDegrees>
            </Position>
            <AltitudeMeters>33.59999847412109375</AltitudeMeters>
            <DistanceMeters>NAN</DistanceMeters>
          </Trackpoint>
          <Trackpoint>
            <Time>2022-07-17T10:58:47.000Z</Time>
            <Position>
              <LatitudeDegrees>43.48552261479198932647705078125</LatitudeDegrees>
              <LongitudeDegrees>-5.27011633850634098052978515625</LongitudeDegrees>
            </Position>
            <AltitudeMeters>33.59999847412109375</AltitudeMeters>
            <DistanceMeters>NAN</DistanceMeters>
          </Trackpoint>
          <Trackpoint>
            <Time>2022-07-17T10:58:48.000Z</Time>
            <Position>
              <LatitudeDegrees>43.4855250455439090728759765625</LatitudeDegrees>
              <LongitudeDegrees>-5.27011214755475521087646484375</LongitudeDegrees>
            </Position>
            <AltitudeMeters>33.59999847412109375</AltitudeMeters>
            <DistanceMeters>NAN</DistanceMeters>
          </Trackpoint>
          <Trackpoint>
            <Time>2022-07-17T10:58:51.000Z</Time>
            <Position>
              <LatitudeDegrees>43.48549964837729930877685546875</LatitudeDegrees>
              <LongitudeDegrees>-5.27008314616978168487548828125</LongitudeDegrees>
            </Position>
            <AltitudeMeters>33.59999847412109375</AltitudeMeters>
            <DistanceMeters>NAN</DistanceMeters>
          </Trackpoint>
          <Trackpoint>
            <Time>2022-07-17T10:58:52.000Z</Time>
            <Position>
              <LatitudeDegrees>43.4854727424681186676025390625</LatitudeDegrees>
              <LongitudeDegrees>-5.27008163742721080780029296875</LongitudeDegrees>
            </Position>
            <AltitudeMeters>33.59999847412109375</AltitudeMeters>
            <DistanceMeters>NAN</DistanceMeters>
          </Trackpoint>
          <Trackpoint>
            <Time>2022-07-17T10:58:57.000Z</Time>
            <Position>
              <LatitudeDegrees>43.48534910939633846282958984375</LatitudeDegrees>
              <LongitudeDegrees>-5.2701137401163578033447265625</LongitudeDegrees>
            </Position>
            <AltitudeMeters>33.59999847412109375</AltitudeMeters>
            <DistanceMeters>NAN</DistanceMeters>
          </Trackpoint>
          <Trackpoint>
            <Time>2022-07-17T10:59:01.000Z</Time>
            <Position>
              <LatitudeDegrees>43.48528758622705936431884765625</LatitudeDegrees>
              <LongitudeDegrees>-5.270087085664272308349609375</LongitudeDegrees>
            </Position>
            <AltitudeMeters>33.40000152587890625</AltitudeMeters>
            <DistanceMeters>NAN</DistanceMeters>
          </Trackpoint>
          <Trackpoint>
            <Time>2022-07-17T10:59:03.000Z</Time>
            <Position>
              <LatitudeDegrees>43.4852908551692962646484375</LatitudeDegrees>
              <LongitudeDegrees>-5.27002983726561069488525390625</LongitudeDegrees>
            </Position>
            <AltitudeMeters>33.40000152587890625</AltitudeMeters>
            <DistanceMeters>NAN</DistanceMeters>
          </Trackpoint>
          <Trackpoint>
            <Time>2022-07-17T10:59:05.000Z</Time>
            <Position>
              <LatitudeDegrees>43.48529764451086521148681640625</LatitudeDegrees>
              <LongitudeDegrees>-5.26996261440217494964599609375</LongitudeDegrees>
            </Position>
            <AltitudeMeters>33.40000152587890625</AltitudeMeters>
            <DistanceMeters>NAN</DistanceMeters>
          </Trackpoint>
          <Trackpoint>
            <Time>2022-07-17T10:59:09.000Z</Time>
            <Position>
              <LatitudeDegrees>43.4853329323232173919677734375</LatitudeDegrees>
              <LongitudeDegrees>-5.269827581942081451416015625</LongitudeDegrees>
            </Position>
            <AltitudeMeters>33.40000152587890625</AltitudeMeters>
            <DistanceMeters>NAN</DistanceMeters>
          </Trackpoint>
          <Trackpoint>
            <Time>2022-07-17T10:59:11.000Z</Time>
            <Position>
              <LatitudeDegrees>43.48534709773957729339599609375</LatitudeDegrees>
              <LongitudeDegrees>-5.26976563967764377593994140625</LongitudeDegrees>
            </Position>
            <AltitudeMeters>33.59999847412109375</AltitudeMeters>
            <DistanceMeters>NAN</DistanceMeters>
          </Trackpoint>
          <Trackpoint>
            <Time>2022-07-17T10:59:12.000Z</Time>
            <Position>
              <LatitudeDegrees>43.4853423200547695159912109375</LatitudeDegrees>
              <LongitudeDegrees>-5.26975013315677642822265625</LongitudeDegrees>
            </Position>
            <AltitudeMeters>33.40000152587890625</AltitudeMeters>
            <DistanceMeters>NAN</DistanceMeters>
          </Trackpoint>
          <Trackpoint>
            <Time>2022-07-17T10:59:13.000Z</Time>
            <Position>
              <LatitudeDegrees>43.4853329323232173919677734375</LatitudeDegrees>
              <LongitudeDegrees>-5.2697412483394145965576171875</LongitudeDegrees>
            </Position>
            <AltitudeMeters>33.40000152587890625</AltitudeMeters>
            <DistanceMeters>NAN</DistanceMeters>
          </Trackpoint>
          <Trackpoint>
            <Time>2022-07-17T10:59:14.000Z</Time>
            <Position>
              <LatitudeDegrees>43.48531809635460376739501953125</LatitudeDegrees>
              <LongitudeDegrees>-5.269734375178813934326171875</LongitudeDegrees>
            </Position>
            <AltitudeMeters>33.200000762939453125</AltitudeMeters>
            <DistanceMeters>NAN</DistanceMeters>
          </Trackpoint>
          <Trackpoint>
            <Time>2022-07-17T10:59:15.000Z</Time>
            <Position>
              <LatitudeDegrees>43.4852962195873260498046875</LatitudeDegrees>
              <LongitudeDegrees>-5.2697261609137058258056640625</LongitudeDegrees>
            </Position>
            <AltitudeMeters>33</AltitudeMeters>
            <DistanceMeters>NAN</DistanceMeters>
          </Trackpoint>
          <Trackpoint>
            <Time>2022-07-17T10:59:18.000Z</Time>
            <Position>
              <LatitudeDegrees>43.4852425754070281982421875</LatitudeDegrees>
              <LongitudeDegrees>-5.26970663107931613922119140625</LongitudeDegrees>
            </Position>
            <AltitudeMeters>32.59999847412109375</AltitudeMeters>
            <DistanceMeters>NAN</DistanceMeters>
          </Trackpoint>
          <Trackpoint>
            <Time>2022-07-17T10:59:21.000Z</Time>
            <Position>
              <LatitudeDegrees>43.48518147133290767669677734375</LatitudeDegrees>
              <LongitudeDegrees>-5.269692130386829376220703125</LongitudeDegrees>
            </Position>
            <AltitudeMeters>32</AltitudeMeters>
            <DistanceMeters>NAN</DistanceMeters>
          </Trackpoint>
          <Trackpoint>
            <Time>2022-07-17T10:59:23.000Z</Time>
            <Position>
              <LatitudeDegrees>43.485176861286163330078125</LatitudeDegrees>
              <LongitudeDegrees>-5.2696936391294002532958984375</LongitudeDegrees>
            </Position>
            <AltitudeMeters>31.799999237060546875</AltitudeMeters>
            <DistanceMeters>NAN</DistanceMeters>
          </Trackpoint>
          <Trackpoint>
            <Time>2022-07-17T10:59:24.000Z</Time>
            <Position>
              <LatitudeDegrees>43.4851803816854953765869140625</LatitudeDegrees>
              <LongitudeDegrees>-5.26969573460519313812255859375</LongitudeDegrees>
            </Position>
            <AltitudeMeters>31.6000003814697265625</AltitudeMeters>
            <DistanceMeters>NAN</DistanceMeters>
          </Trackpoint>
          <Trackpoint>
            <Time>2022-07-17T10:59:25.000Z</Time>
            <Position>
              <LatitudeDegrees>43.4851803816854953765869140625</LatitudeDegrees>
              <LongitudeDegrees>-5.26969573460519313812255859375</LongitudeDegrees>
            </Position>
            <AltitudeMeters>31.6000003814697265625</AltitudeMeters>
            <DistanceMeters>NAN</DistanceMeters>
          </Trackpoint>
          <Trackpoint>
            <Time>2022-07-17T10:59:27.000Z</Time>
            <Position>
              <LatitudeDegrees>43.4851803816854953765869140625</LatitudeDegrees>
              <LongitudeDegrees>-5.26969573460519313812255859375</LongitudeDegrees>
            </Position>
            <AltitudeMeters>31.200000762939453125</AltitudeMeters>
            <DistanceMeters>NAN</DistanceMeters>
          </Trackpoint>
          <Trackpoint>
            <Time>2022-07-17T11:00:04.000Z</Time>
            <Position>
              <LatitudeDegrees>43.48516873084008693695068359375</LatitudeDegrees>
              <LongitudeDegrees>-5.269674696028232574462890625</LongitudeDegrees>
            </Position>
            <AltitudeMeters>30.3999996185302734375</AltitudeMeters>
            <DistanceMeters>NAN</DistanceMeters>
          </Trackpoint>
          <Trackpoint>
            <Time>2022-07-17T11:00:05.000Z</Time>
            <Position>
              <LatitudeDegrees>43.48516873084008693695068359375</LatitudeDegrees>
              <LongitudeDegrees>-5.269674696028232574462890625</LongitudeDegrees>
            </Position>
            <AltitudeMeters>30.200000762939453125</AltitudeMeters>
            <DistanceMeters>NAN</DistanceMeters>
          </Trackpoint>
          <Trackpoint>
            <Time>2022-07-17T11:00:06.000Z</Time>
            <Position>
              <LatitudeDegrees>43.48516873084008693695068359375</LatitudeDegrees>
              <LongitudeDegrees>-5.269674696028232574462890625</LongitudeDegrees>
            </Position>
            <AltitudeMeters>30.200000762939453125</AltitudeMeters>
            <DistanceMeters>NAN</DistanceMeters>
          </Trackpoint>
          <Trackpoint>
            <Time>2022-07-17T11:01:57.000Z</Time>
            <Position>
              <LatitudeDegrees>43.48497712053358554840087890625</LatitudeDegrees>
              <LongitudeDegrees>-5.269647538661956787109375</LongitudeDegrees>
            </Position>
            <AltitudeMeters>30.6000003814697265625</AltitudeMeters>
            <DistanceMeters>NAN</DistanceMeters>
          </Trackpoint>
          <Trackpoint>
            <Time>2022-07-17T11:02:00.000Z</Time>
            <Position>
              <LatitudeDegrees>43.48494350910186767578125</LatitudeDegrees>
              <LongitudeDegrees>-5.2696453593671321868896484375</LongitudeDegrees>
            </Position>
            <AltitudeMeters>30.6000003814697265625</AltitudeMeters>
            <DistanceMeters>NAN</DistanceMeters>
          </Trackpoint>
          <Trackpoint>
            <Time>2022-07-17T11:04:05.000Z</Time>
            <Position>
              <LatitudeDegrees>43.48513126373291015625</LatitudeDegrees>
              <LongitudeDegrees>-5.26967494748532772064208984375</LongitudeDegrees>
            </Position>
            <AltitudeMeters>30.799999237060546875</AltitudeMeters>
            <DistanceMeters>NAN</DistanceMeters>
          </Trackpoint>
          <Trackpoint>
            <Time>2022-07-17T11:04:06.000Z</Time>
            <Position>
              <LatitudeDegrees>43.4851357899606227874755859375</LatitudeDegrees>
              <LongitudeDegrees>-5.2696772105991840362548828125</LongitudeDegrees>
            </Position>
            <AltitudeMeters>30.799999237060546875</AltitudeMeters>
            <DistanceMeters>NAN</DistanceMeters>
          </Trackpoint>
          <Trackpoint>
            <Time>2022-07-17T11:04:08.000Z</Time>
            <Position>
              <LatitudeDegrees>43.48516143858432769775390625</LatitudeDegrees>
              <LongitudeDegrees>-5.26967830024659633636474609375</LongitudeDegrees>
            </Position>
            <AltitudeMeters>30.799999237060546875</AltitudeMeters>
            <DistanceMeters>NAN</DistanceMeters>
          </Trackpoint>
          <Trackpoint>
            <Time>2022-07-17T11:04:09.000Z</Time>
            <Position>
              <LatitudeDegrees>43.48517292179167270660400390625</LatitudeDegrees>
              <LongitudeDegrees>-5.26967377401888370513916015625</LongitudeDegrees>
            </Position>
            <AltitudeMeters>30.799999237060546875</AltitudeMeters>
            <DistanceMeters>NAN</DistanceMeters>
          </Trackpoint>
          <Trackpoint>
            <Time>2022-07-17T11:06:47.000Z</Time>
            <Position>
              <LatitudeDegrees>43.48508055321872234344482421875</LatitudeDegrees>
              <LongitudeDegrees>-5.269541256129741668701171875</LongitudeDegrees>
            </Position>
            <AltitudeMeters>32.40000152587890625</AltitudeMeters>
            <DistanceMeters>NAN</DistanceMeters>
          </Trackpoint>
          <Trackpoint>
            <Time>2022-07-17T11:06:48.000Z</Time>
            <Position>
              <LatitudeDegrees>43.48507971502840518951416015625</LatitudeDegrees>
              <LongitudeDegrees>-5.269558690488338470458984375</LongitudeDegrees>
            </Position>
            <AltitudeMeters>32.59999847412109375</AltitudeMeters>
            <DistanceMeters>NAN</DistanceMeters>
          </Trackpoint>
          <Trackpoint>
            <Time>2022-07-17T11:06:50.000Z</Time>
            <Position>
              <LatitudeDegrees>43.4850653819739818572998046875</LatitudeDegrees>
              <LongitudeDegrees>-5.26953731663525104522705078125</LongitudeDegrees>
            </Position>
            <AltitudeMeters>32.799999237060546875</AltitudeMeters>
            <DistanceMeters>NAN</DistanceMeters>
          </Trackpoint>
          <Trackpoint>
            <Time>2022-07-17T11:06:53.000Z</Time>
            <Position>
              <LatitudeDegrees>43.4850670583546161651611328125</LatitudeDegrees>
              <LongitudeDegrees>-5.269497670233249664306640625</LongitudeDegrees>
            </Position>
            <AltitudeMeters>32.799999237060546875</AltitudeMeters>
            <DistanceMeters>NAN</DistanceMeters>
          </Trackpoint>
          <Trackpoint>
            <Time>2022-07-17T11:07:03.000Z</Time>
            <Position>
              <LatitudeDegrees>43.4851755201816558837890625</LatitudeDegrees>
              <LongitudeDegrees>-5.26941661722958087921142578125</LongitudeDegrees>
            </Position>
            <AltitudeMeters>32.799999237060546875</AltitudeMeters>
            <DistanceMeters>NAN</DistanceMeters>
          </Trackpoint>
          <Trackpoint>
            <Time>2022-07-17T11:07:08.000Z</Time>
            <Position>
              <LatitudeDegrees>43.4851951338350772857666015625</LatitudeDegrees>
              <LongitudeDegrees>-5.269454419612884521484375</LongitudeDegrees>
            </Position>
            <AltitudeMeters>32.799999237060546875</AltitudeMeters>
            <DistanceMeters>NAN</DistanceMeters>
          </Trackpoint>
          <Trackpoint>
            <Time>2022-07-17T11:07:13.000Z</Time>
            <Position>
              <LatitudeDegrees>43.4851867519319057464599609375</LatitudeDegrees>
              <LongitudeDegrees>-5.26952859945595264434814453125</LongitudeDegrees>
            </Position>
            <AltitudeMeters>32.799999237060546875</AltitudeMeters>
            <DistanceMeters>NAN</DistanceMeters>
          </Trackpoint>
          <Trackpoint>
            <Time>2022-07-17T11:07:15.000Z</Time>
            <Position>
              <LatitudeDegrees>43.4851877577602863311767578125</LatitudeDegrees>
              <LongitudeDegrees>-5.2695990912616252899169921875</LongitudeDegrees>
            </Position>
            <AltitudeMeters>32.799999237060546875</AltitudeMeters>
            <DistanceMeters>NAN</DistanceMeters>
          </Trackpoint>
          <Trackpoint>
            <Time>2022-07-17T11:07:18.000Z</Time>
            <Position>
              <LatitudeDegrees>43.48519152961671352386474609375</LatitudeDegrees>
              <LongitudeDegrees>-5.269637815654277801513671875</LongitudeDegrees>
            </Position>
            <AltitudeMeters>33</AltitudeMeters>
            <DistanceMeters>NAN</DistanceMeters>
          </Trackpoint>
          <Trackpoint>
            <Time>2022-07-17T11:07:19.000Z</Time>
            <Position>
              <LatitudeDegrees>43.4851998277008533477783203125</LatitudeDegrees>
              <LongitudeDegrees>-5.26965466327965259552001953125</LongitudeDegrees>
            </Position>
            <AltitudeMeters>33.200000762939453125</AltitudeMeters>
            <DistanceMeters>NAN</DistanceMeters>
          </Trackpoint>
          <Trackpoint>
            <Time>2022-07-17T11:07:22.000Z</Time>
            <Position>
              <LatitudeDegrees>43.4851971454918384552001953125</LatitudeDegrees>
              <LongitudeDegrees>-5.2696168608963489532470703125</LongitudeDegrees>
            </Position>
            <AltitudeMeters>33.40000152587890625</AltitudeMeters>
            <DistanceMeters>NAN</DistanceMeters>
          </Trackpoint>
          <Trackpoint>
            <Time>2022-07-17T11:07:23.000Z</Time>
            <Position>
              <LatitudeDegrees>43.48520460538566112518310546875</LatitudeDegrees>
              <LongitudeDegrees>-5.26959858834743499755859375</LongitudeDegrees>
            </Position>
            <AltitudeMeters>33.200000762939453125</AltitudeMeters>
            <DistanceMeters>NAN</DistanceMeters>
          </Trackpoint>
          <Trackpoint>
            <Time>2022-07-17T11:07:58.000Z</Time>
            <Position>
              <LatitudeDegrees>43.48535296507179737091064453125</LatitudeDegrees>
              <LongitudeDegrees>-5.2698218822479248046875</LongitudeDegrees>
            </Position>
            <AltitudeMeters>34.40000152587890625</AltitudeMeters>
            <DistanceMeters>NAN</DistanceMeters>
          </Trackpoint>
          <Trackpoint>
            <Time>2022-07-17T11:07:59.000Z</Time>
            <Position>
              <LatitudeDegrees>43.485356234014034271240234375</LatitudeDegrees>
              <LongitudeDegrees>-5.26985205709934234619140625</LongitudeDegrees>
            </Position>
            <AltitudeMeters>34.40000152587890625</AltitudeMeters>
            <DistanceMeters>NAN</DistanceMeters>
          </Trackpoint>
          <Trackpoint>
            <Time>2022-07-17T11:08:00.000Z</Time>
            <Position>
              <LatitudeDegrees>43.48535145632922649383544921875</LatitudeDegrees>
              <LongitudeDegrees>-5.269887261092662811279296875</LongitudeDegrees>
            </Position>
            <AltitudeMeters>34.40000152587890625</AltitudeMeters>
            <DistanceMeters>NAN</DistanceMeters>
          </Trackpoint>
          <Trackpoint>
            <Time>2022-07-17T11:08:03.000Z</Time>
            <Position>
              <LatitudeDegrees>43.4853141568601131439208984375</LatitudeDegrees>
              <LongitudeDegrees>-5.26999211870133876800537109375</LongitudeDegrees>
            </Position>
            <AltitudeMeters>34.59999847412109375</AltitudeMeters>
            <DistanceMeters>NAN</DistanceMeters>
          </Trackpoint>
          <Trackpoint>
            <Time>2022-07-17T11:08:11.000Z</Time>
            <Position>
              <LatitudeDegrees>43.4854090400040149688720703125</LatitudeDegrees>
              <LongitudeDegrees>-5.27017367072403430938720703125</LongitudeDegrees>
            </Position>
            <AltitudeMeters>35</AltitudeMeters>
            <DistanceMeters>NAN</DistanceMeters>
          </Trackpoint>
          <Trackpoint>
            <Time>2022-07-17T11:08:17.000Z</Time>
            <Position>
              <LatitudeDegrees>43.48540929146111011505126953125</LatitudeDegrees>
              <LongitudeDegrees>-5.27022630907595157623291015625</LongitudeDegrees>
            </Position>
            <AltitudeMeters>35.200000762939453125</AltitudeMeters>
            <DistanceMeters>NAN</DistanceMeters>
          </Trackpoint>
          <Trackpoint>
            <Time>2022-07-17T11:08:21.000Z</Time>
            <Position>
              <LatitudeDegrees>43.4854385443031787872314453125</LatitudeDegrees>
              <LongitudeDegrees>-5.27021415531635284423828125</LongitudeDegrees>
            </Position>
            <AltitudeMeters>35</AltitudeMeters>
            <DistanceMeters>NAN</DistanceMeters>
          </Trackpoint>
          <Trackpoint>
            <Time>2022-07-17T11:08:23.000Z</Time>
            <Position>
              <LatitudeDegrees>43.4854472614824771881103515625</LatitudeDegrees>
              <LongitudeDegrees>-5.27021256275475025177001953125</LongitudeDegrees>
            </Position>
            <AltitudeMeters>35</AltitudeMeters>
            <DistanceMeters>NAN</DistanceMeters>
          </Trackpoint>
          <Trackpoint>
            <Time>2022-07-17T11:08:28.000Z</Time>
            <Position>
              <LatitudeDegrees>43.48547567613422870635986328125</LatitudeDegrees>
              <LongitudeDegrees>-5.2701861597597599029541015625</LongitudeDegrees>
            </Position>
            <AltitudeMeters>34.799999237060546875</AltitudeMeters>
            <DistanceMeters>NAN</DistanceMeters>
          </Trackpoint>
          <Trackpoint>
            <Time>2022-07-17T11:08:32.000Z</Time>
            <Position>
              <LatitudeDegrees>43.48548196256160736083984375</LatitudeDegrees>
              <LongitudeDegrees>-5.27016914449632167816162109375</LongitudeDegrees>
            </Position>
            <AltitudeMeters>34.799999237060546875</AltitudeMeters>
            <DistanceMeters>NAN</DistanceMeters>
          </Trackpoint>
          <Trackpoint>
            <Time>2022-07-17T11:08:34.000Z</Time>
            <Position>
              <LatitudeDegrees>43.48548321984708309173583984375</LatitudeDegrees>
              <LongitudeDegrees>-5.2701707370579242706298828125</LongitudeDegrees>
            </Position>
            <AltitudeMeters>34.799999237060546875</AltitudeMeters>
            <DistanceMeters>NAN</DistanceMeters>
          </Trackpoint>
          <Trackpoint>
            <Time>2022-07-17T11:18:52.000Z</Time>
            <Position>
              <LatitudeDegrees>43.48546444438397884368896484375</LatitudeDegrees>
              <LongitudeDegrees>-5.2702401392161846160888671875</LongitudeDegrees>
            </Position>
            <AltitudeMeters>34.200000762939453125</AltitudeMeters>
            <DistanceMeters>NAN</DistanceMeters>
          </Trackpoint>
          <Trackpoint>
            <Time>2022-07-17T11:18:53.000Z</Time>
            <Position>
              <LatitudeDegrees>43.48545103333890438079833984375</LatitudeDegrees>
              <LongitudeDegrees>-5.27025598101317882537841796875</LongitudeDegrees>
            </Position>
            <AltitudeMeters>34.200000762939453125</AltitudeMeters>
            <DistanceMeters>NAN</DistanceMeters>
          </Trackpoint>
          <Trackpoint>
            <Time>2022-07-17T11:18:57.000Z</Time>
            <Position>
              <LatitudeDegrees>43.48539001308381557464599609375</LatitudeDegrees>
              <LongitudeDegrees>-5.270327813923358917236328125</LongitudeDegrees>
            </Position>
            <AltitudeMeters>35.799999237060546875</AltitudeMeters>
            <DistanceMeters>NAN</DistanceMeters>
          </Trackpoint>
          <Trackpoint>
            <Time>2022-07-17T11:18:59.000Z</Time>
            <Position>
              <LatitudeDegrees>43.48536067642271518707275390625</LatitudeDegrees>
              <LongitudeDegrees>-5.27035438455641269683837890625</LongitudeDegrees>
            </Position>
            <AltitudeMeters>36.40000152587890625</AltitudeMeters>
            <DistanceMeters>NAN</DistanceMeters>
          </Trackpoint>
          <Trackpoint>
            <Time>2022-07-17T11:19:04.000Z</Time>
            <Position>
              <LatitudeDegrees>43.48528440110385417938232421875</LatitudeDegrees>
              <LongitudeDegrees>-5.270472653210163116455078125</LongitudeDegrees>
            </Position>
            <AltitudeMeters>36.59999847412109375</AltitudeMeters>
            <DistanceMeters>NAN</DistanceMeters>
          </Trackpoint>
          <Trackpoint>
            <Time>2022-07-17T11:19:05.000Z</Time>
            <Position>
              <LatitudeDegrees>43.48526344634592533111572265625</LatitudeDegrees>
              <LongitudeDegrees>-5.27047893963754177093505859375</LongitudeDegrees>
            </Position>
            <AltitudeMeters>36.59999847412109375</AltitudeMeters>
            <DistanceMeters>NAN</DistanceMeters>
          </Trackpoint>
          <Trackpoint>
            <Time>2022-07-17T11:19:09.000Z</Time>
            <Position>
              <LatitudeDegrees>43.48517744801938533782958984375</LatitudeDegrees>
              <LongitudeDegrees>-5.27050559408962726593017578125</LongitudeDegrees>
            </Position>
            <AltitudeMeters>36.59999847412109375</AltitudeMeters>
            <DistanceMeters>NAN</DistanceMeters>
          </Trackpoint>
          <Trackpoint>
            <Time>2022-07-17T11:19:11.000Z</Time>
            <Position>
              <LatitudeDegrees>43.48512615077197551727294921875</LatitudeDegrees>
              <LongitudeDegrees>-5.27053442783653736114501953125</LongitudeDegrees>
            </Position>
            <AltitudeMeters>36.59999847412109375</AltitudeMeters>
            <DistanceMeters>NAN</DistanceMeters>
          </Trackpoint>
          <Trackpoint>
            <Time>2022-07-17T11:19:15.000Z</Time>
            <Position>
              <LatitudeDegrees>43.48504534922540187835693359375</LatitudeDegrees>
              <LongitudeDegrees>-5.270632915198802947998046875</LongitudeDegrees>
            </Position>
            <AltitudeMeters>36.59999847412109375</AltitudeMeters>
            <DistanceMeters>NAN</DistanceMeters>
          </Trackpoint>
          <Trackpoint>
            <Time>2022-07-17T11:19:16.000Z</Time>
            <Position>
              <LatitudeDegrees>43.48502841778099536895751953125</LatitudeDegrees>
              <LongitudeDegrees>-5.2706548757851123809814453125</LongitudeDegrees>
            </Position>
            <AltitudeMeters>36.59999847412109375</AltitudeMeters>
            <DistanceMeters>NAN</DistanceMeters>
          </Trackpoint>
          <Trackpoint>
            <Time>2022-07-17T11:19:22.000Z</Time>
            <Position>
              <LatitudeDegrees>43.48496538586914539337158203125</LatitudeDegrees>
              <LongitudeDegrees>-5.2708531916141510009765625</LongitudeDegrees>
            </Position>
            <AltitudeMeters>36.59999847412109375</AltitudeMeters>
            <DistanceMeters>NAN</DistanceMeters>
          </Trackpoint>
          <Trackpoint>
            <Time>2022-07-17T11:19:27.000Z</Time>
            <Position>
              <LatitudeDegrees>43.4848965704441070556640625</LatitudeDegrees>
              <LongitudeDegrees>-5.2709495835006237030029296875</LongitudeDegrees>
            </Position>
            <AltitudeMeters>36.40000152587890625</AltitudeMeters>
            <DistanceMeters>NAN</DistanceMeters>
          </Trackpoint>
          <Trackpoint>
            <Time>2022-07-17T11:19:32.000Z</Time>
            <Position>
              <LatitudeDegrees>43.48484703339636325836181640625</LatitudeDegrees>
              <LongitudeDegrees>-5.27095369063317775726318359375</LongitudeDegrees>
            </Position>
            <AltitudeMeters>36.59999847412109375</AltitudeMeters>
            <DistanceMeters>NAN</DistanceMeters>
          </Trackpoint>
          <Trackpoint>
            <Time>2022-07-17T11:19:34.000Z</Time>
            <Position>
              <LatitudeDegrees>43.4848202951252460479736328125</LatitudeDegrees>
              <LongitudeDegrees>-5.2709532715380191802978515625</LongitudeDegrees>
            </Position>
            <AltitudeMeters>36.59999847412109375</AltitudeMeters>
            <DistanceMeters>NAN</DistanceMeters>
          </Trackpoint>
          <Trackpoint>
            <Time>2022-07-17T11:19:37.000Z</Time>
            <Position>
              <LatitudeDegrees>43.48476153798401355743408203125</LatitudeDegrees>
              <LongitudeDegrees>-5.27092250995337963104248046875</LongitudeDegrees>
            </Position>
            <AltitudeMeters>36.59999847412109375</AltitudeMeters>
            <DistanceMeters>NAN</DistanceMeters>
          </Trackpoint>
          <Trackpoint>
            <Time>2022-07-17T11:19:38.000Z</Time>
            <Position>
              <LatitudeDegrees>43.48475114442408084869384765625</LatitudeDegrees>
              <LongitudeDegrees>-5.2709116972982883453369140625</LongitudeDegrees>
            </Position>
            <AltitudeMeters>36.59999847412109375</AltitudeMeters>
            <DistanceMeters>NAN</DistanceMeters>
          </Trackpoint>
          <Trackpoint>
            <Time>2022-07-17T11:19:40.000Z</Time>
            <Position>
              <LatitudeDegrees>43.48474393598735332489013671875</LatitudeDegrees>
              <LongitudeDegrees>-5.27090541087090969085693359375</LongitudeDegrees>
            </Position>
            <AltitudeMeters>36.59999847412109375</AltitudeMeters>
            <DistanceMeters>NAN</DistanceMeters>
          </Trackpoint>
          <Trackpoint>
            <Time>2022-07-17T11:19:41.000Z</Time>
            <Position>
              <LatitudeDegrees>43.4847410023212432861328125</LatitudeDegrees>
              <LongitudeDegrees>-5.27090591378509998321533203125</LongitudeDegrees>
            </Position>
            <AltitudeMeters>36.59999847412109375</AltitudeMeters>
            <DistanceMeters>NAN</DistanceMeters>
          </Trackpoint>
          <Trackpoint>
            <Time>2022-07-17T11:23:39.000Z</Time>
            <Position>
              <LatitudeDegrees>43.48464704118669033050537109375</LatitudeDegrees>
              <LongitudeDegrees>-5.27093231678009033203125</LongitudeDegrees>
            </Position>
            <AltitudeMeters>35.40000152587890625</AltitudeMeters>
            <DistanceMeters>NAN</DistanceMeters>
          </Trackpoint>
          <Trackpoint>
            <Time>2022-07-17T11:23:42.000Z</Time>
            <Position>
              <LatitudeDegrees>43.48463949747383594512939453125</LatitudeDegrees>
              <LongitudeDegrees>-5.27092158794403076171875</LongitudeDegrees>
            </Position>
            <AltitudeMeters>35.200000762939453125</AltitudeMeters>
            <DistanceMeters>NAN</DistanceMeters>
          </Trackpoint>
          <Trackpoint>
            <Time>2022-07-17T11:23:44.000Z</Time>
            <Position>
              <LatitudeDegrees>43.4846482984721660614013671875</LatitudeDegrees>
              <LongitudeDegrees>-5.27091613970696926116943359375</LongitudeDegrees>
            </Position>
            <AltitudeMeters>34.799999237060546875</AltitudeMeters>
            <DistanceMeters>NAN</DistanceMeters>
          </Trackpoint>
          <Trackpoint>
            <Time>2022-07-17T11:23:46.000Z</Time>
            <Position>
              <LatitudeDegrees>43.4846476279199123382568359375</LatitudeDegrees>
              <LongitudeDegrees>-5.27091915719211101531982421875</LongitudeDegrees>
            </Position>
            <AltitudeMeters>34.59999847412109375</AltitudeMeters>
            <DistanceMeters>NAN</DistanceMeters>
          </Trackpoint>
          <Trackpoint>
            <Time>2022-07-17T11:27:10.000Z</Time>
            <Position>
              <LatitudeDegrees>43.4847302734851837158203125</LatitudeDegrees>
              <LongitudeDegrees>-5.27104957960546016693115234375</LongitudeDegrees>
            </Position>
            <AltitudeMeters>34.200000762939453125</AltitudeMeters>
            <DistanceMeters>NAN</DistanceMeters>
          </Trackpoint>
          <Trackpoint>
            <Time>2022-07-17T11:27:11.000Z</Time>
            <Position>
              <LatitudeDegrees>43.4847490489482879638671875</LatitudeDegrees>
              <LongitudeDegrees>-5.271059386432170867919921875</LongitudeDegrees>
            </Position>
            <AltitudeMeters>34.200000762939453125</AltitudeMeters>
            <DistanceMeters>NAN</DistanceMeters>
          </Trackpoint>
          <Trackpoint>
            <Time>2022-07-17T11:27:13.000Z</Time>
            <Position>
              <LatitudeDegrees>43.484770171344280242919921875</LatitudeDegrees>
              <LongitudeDegrees>-5.27107925154268741607666015625</LongitudeDegrees>
            </Position>
            <AltitudeMeters>34.200000762939453125</AltitudeMeters>
            <DistanceMeters>NAN</DistanceMeters>
          </Trackpoint>
          <Trackpoint>
            <Time>2022-07-17T11:27:15.000Z</Time>
            <Position>
              <LatitudeDegrees>43.4847812354564666748046875</LatitudeDegrees>
              <LongitudeDegrees>-5.271110348403453826904296875</LongitudeDegrees>
            </Position>
            <AltitudeMeters>34.200000762939453125</AltitudeMeters>
            <DistanceMeters>NAN</DistanceMeters>
          </Trackpoint>
          <Trackpoint>
            <Time>2022-07-17T11:27:21.000Z</Time>
            <Position>
              <LatitudeDegrees>43.48475332371890544891357421875</LatitudeDegrees>
              <LongitudeDegrees>-5.271224677562713623046875</LongitudeDegrees>
            </Position>
            <AltitudeMeters>34.200000762939453125</AltitudeMeters>
            <DistanceMeters>NAN</DistanceMeters>
          </Trackpoint>
          <Trackpoint>
            <Time>2022-07-17T11:27:22.000Z</Time>
            <Position>
              <LatitudeDegrees>43.48474175669252872467041015625</LatitudeDegrees>
              <LongitudeDegrees>-5.271253846585750579833984375</LongitudeDegrees>
            </Position>
            <AltitudeMeters>34.200000762939453125</AltitudeMeters>
            <DistanceMeters>NAN</DistanceMeters>
          </Trackpoint>
          <Trackpoint>
            <Time>2022-07-17T11:27:25.000Z</Time>
            <Position>
              <LatitudeDegrees>43.4847190417349338531494140625</LatitudeDegrees>
              <LongitudeDegrees>-5.2713113464415073394775390625</LongitudeDegrees>
            </Position>
            <AltitudeMeters>34.40000152587890625</AltitudeMeters>
            <DistanceMeters>NAN</DistanceMeters>
          </Trackpoint>
          <Trackpoint>
            <Time>2022-07-17T11:27:30.000Z</Time>
            <Position>
              <LatitudeDegrees>43.48471007309854030609130859375</LatitudeDegrees>
              <LongitudeDegrees>-5.27142542414367198944091796875</LongitudeDegrees>
            </Position>
            <AltitudeMeters>34.200000762939453125</AltitudeMeters>
            <DistanceMeters>NAN</DistanceMeters>
          </Trackpoint>
          <Trackpoint>
            <Time>2022-07-17T11:27:35.000Z</Time>
            <Position>
              <LatitudeDegrees>43.48467537201941013336181640625</LatitudeDegrees>
              <LongitudeDegrees>-5.27151770889759063720703125</LongitudeDegrees>
            </Position>
            <AltitudeMeters>34.200000762939453125</AltitudeMeters>
            <DistanceMeters>NAN</DistanceMeters>
          </Trackpoint>
          <Trackpoint>
            <Time>2022-07-17T11:27:38.000Z</Time>
            <Position>
              <LatitudeDegrees>43.48466564901173114776611328125</LatitudeDegrees>
              <LongitudeDegrees>-5.27156858704984188079833984375</LongitudeDegrees>
            </Position>
            <AltitudeMeters>34.200000762939453125</AltitudeMeters>
            <DistanceMeters>NAN</DistanceMeters>
          </Trackpoint>
          <Trackpoint>
            <Time>2022-07-17T11:27:40.000Z</Time>
            <Position>
              <LatitudeDegrees>43.48466816358268260955810546875</LatitudeDegrees>
              <LongitudeDegrees>-5.27156908996403217315673828125</LongitudeDegrees>
            </Position>
            <AltitudeMeters>34.200000762939453125</AltitudeMeters>
            <DistanceMeters>NAN</DistanceMeters>
          </Trackpoint>
          <Trackpoint>
            <Time>2022-07-17T11:27:41.000Z</Time>
            <Position>
              <LatitudeDegrees>43.484672270715236663818359375</LatitudeDegrees>
              <LongitudeDegrees>-5.2715688385069370269775390625</LongitudeDegrees>
            </Position>
            <AltitudeMeters>34.200000762939453125</AltitudeMeters>
            <DistanceMeters>NAN</DistanceMeters>
          </Trackpoint>
          <Trackpoint>
            <Time>2022-07-17T11:34:59.000Z</Time>
            <Position>
              <LatitudeDegrees>43.48482222296297550201416015625</LatitudeDegrees>
              <LongitudeDegrees>-5.27165944688022136688232421875</LongitudeDegrees>
            </Position>
            <AltitudeMeters>35.799999237060546875</AltitudeMeters>
            <DistanceMeters>NAN</DistanceMeters>
          </Trackpoint>
          <Trackpoint>
            <Time>2022-07-17T11:35:01.000Z</Time>
            <Position>
              <LatitudeDegrees>43.4848112426698207855224609375</LatitudeDegrees>
              <LongitudeDegrees>-5.2716603688895702362060546875</LongitudeDegrees>
            </Position>
            <AltitudeMeters>35.799999237060546875</AltitudeMeters>
            <DistanceMeters>NAN</DistanceMeters>
          </Trackpoint>
          <Trackpoint>
            <Time>2022-07-17T11:35:03.000Z</Time>
            <Position>
              <LatitudeDegrees>43.4848005138337612152099609375</LatitudeDegrees>
              <LongitudeDegrees>-5.27163614518940448760986328125</LongitudeDegrees>
            </Position>
            <AltitudeMeters>36</AltitudeMeters>
            <DistanceMeters>NAN</DistanceMeters>
          </Trackpoint>
          <Trackpoint>
            <Time>2022-07-17T11:37:05.000Z</Time>
            <Position>
              <LatitudeDegrees>43.48472063429653644561767578125</LatitudeDegrees>
              <LongitudeDegrees>-5.2717656455934047698974609375</LongitudeDegrees>
            </Position>
            <AltitudeMeters>38.200000762939453125</AltitudeMeters>
            <DistanceMeters>NAN</DistanceMeters>
          </Trackpoint>
          <Trackpoint>
            <Time>2022-07-17T11:37:06.000Z</Time>
            <Position>
              <LatitudeDegrees>43.48470948636531829833984375</LatitudeDegrees>
              <LongitudeDegrees>-5.2717827446758747100830078125</LongitudeDegrees>
            </Position>
            <AltitudeMeters>38.200000762939453125</AltitudeMeters>
            <DistanceMeters>NAN</DistanceMeters>
          </Trackpoint>
          <Trackpoint>
            <Time>2022-07-17T11:37:09.000Z</Time>
            <Position>
              <LatitudeDegrees>43.48468090407550334930419921875</LatitudeDegrees>
              <LongitudeDegrees>-5.27185105718672275543212890625</LongitudeDegrees>
            </Position>
            <AltitudeMeters>38.200000762939453125</AltitudeMeters>
            <DistanceMeters>NAN</DistanceMeters>
          </Trackpoint>
          <Trackpoint>
            <Time>2022-07-17T11:37:11.000Z</Time>
            <Position>
              <LatitudeDegrees>43.48467101342976093292236328125</LatitudeDegrees>
              <LongitudeDegrees>-5.2719099819660186767578125</LongitudeDegrees>
            </Position>
            <AltitudeMeters>38.40000152587890625</AltitudeMeters>
            <DistanceMeters>NAN</DistanceMeters>
          </Trackpoint>
          <Trackpoint>
            <Time>2022-07-17T11:37:12.000Z</Time>
            <Position>
              <LatitudeDegrees>43.48466866649687290191650390625</LatitudeDegrees>
              <LongitudeDegrees>-5.2719383127987384796142578125</LongitudeDegrees>
            </Position>
            <AltitudeMeters>38.40000152587890625</AltitudeMeters>
            <DistanceMeters>NAN</DistanceMeters>
          </Trackpoint>
          <Trackpoint>
            <Time>2022-07-17T11:37:17.000Z</Time>
            <Position>
              <LatitudeDegrees>43.4846310317516326904296875</LatitudeDegrees>
              <LongitudeDegrees>-5.2721191942691802978515625</LongitudeDegrees>
            </Position>
            <AltitudeMeters>38.59999847412109375</AltitudeMeters>
            <DistanceMeters>NAN</DistanceMeters>
          </Trackpoint>
          <Trackpoint>
            <Time>2022-07-17T11:37:24.000Z</Time>
            <Position>
              <LatitudeDegrees>43.48456422798335552215576171875</LatitudeDegrees>
              <LongitudeDegrees>-5.27240275405347347259521484375</LongitudeDegrees>
            </Position>
            <AltitudeMeters>38.59999847412109375</AltitudeMeters>
            <DistanceMeters>NAN</DistanceMeters>
          </Trackpoint>
          <Trackpoint>
            <Time>2022-07-17T11:37:30.000Z</Time>
            <Position>
              <LatitudeDegrees>43.484537489712238311767578125</LatitudeDegrees>
              <LongitudeDegrees>-5.272499732673168182373046875</LongitudeDegrees>
            </Position>
            <AltitudeMeters>38.59999847412109375</AltitudeMeters>
            <DistanceMeters>NAN</DistanceMeters>
          </Trackpoint>
          <Trackpoint>
            <Time>2022-07-17T11:37:36.000Z</Time>
            <Position>
              <LatitudeDegrees>43.4844592027366161346435546875</LatitudeDegrees>
              <LongitudeDegrees>-5.2726718969643115997314453125</LongitudeDegrees>
            </Position>
            <AltitudeMeters>38.200000762939453125</AltitudeMeters>
            <DistanceMeters>NAN</DistanceMeters>
          </Trackpoint>
          <Trackpoint>
            <Time>2022-07-17T11:37:38.000Z</Time>
            <Position>
              <LatitudeDegrees>43.4844142757356166839599609375</LatitudeDegrees>
              <LongitudeDegrees>-5.27277742512524127960205078125</LongitudeDegrees>
            </Position>
            <AltitudeMeters>38</AltitudeMeters>
            <DistanceMeters>NAN</DistanceMeters>
          </Trackpoint>
          <Trackpoint>
            <Time>2022-07-17T11:37:40.000Z</Time>
            <Position>
              <LatitudeDegrees>43.4843991883099079132080078125</LatitudeDegrees>
              <LongitudeDegrees>-5.272888652980327606201171875</LongitudeDegrees>
            </Position>
            <AltitudeMeters>37.40000152587890625</AltitudeMeters>
            <DistanceMeters>NAN</DistanceMeters>
          </Trackpoint>
          <Trackpoint>
            <Time>2022-07-17T11:37:41.000Z</Time>
            <Position>
              <LatitudeDegrees>43.48438150249421596527099609375</LatitudeDegrees>
              <LongitudeDegrees>-5.27295629493892192840576171875</LongitudeDegrees>
            </Position>
            <AltitudeMeters>37.200000762939453125</AltitudeMeters>
            <DistanceMeters>NAN</DistanceMeters>
          </Trackpoint>
          <Trackpoint>
            <Time>2022-07-17T11:37:43.000Z</Time>
            <Position>
              <LatitudeDegrees>43.48437747918069362640380859375</LatitudeDegrees>
              <LongitudeDegrees>-5.2731137908995151519775390625</LongitudeDegrees>
            </Position>
            <AltitudeMeters>36.799999237060546875</AltitudeMeters>
            <DistanceMeters>NAN</DistanceMeters>
          </Trackpoint>
          <Trackpoint>
            <Time>2022-07-17T11:37:45.000Z</Time>
            <Position>
              <LatitudeDegrees>43.484429530799388885498046875</LatitudeDegrees>
              <LongitudeDegrees>-5.27327187359333038330078125</LongitudeDegrees>
            </Position>
            <AltitudeMeters>36.200000762939453125</AltitudeMeters>
            <DistanceMeters>NAN</DistanceMeters>
          </Trackpoint>
          <Trackpoint>
            <Time>2022-07-17T11:37:46.000Z</Time>
            <Position>
              <LatitudeDegrees>43.48446615971624851226806640625</LatitudeDegrees>
              <LongitudeDegrees>-5.273345969617366790771484375</LongitudeDegrees>
            </Position>
            <AltitudeMeters>35.799999237060546875</AltitudeMeters>
            <DistanceMeters>NAN</DistanceMeters>
          </Trackpoint>
          <Trackpoint>
            <Time>2022-07-17T11:37:47.000Z</Time>
            <Position>
              <LatitudeDegrees>43.48450974561274051666259765625</LatitudeDegrees>
              <LongitudeDegrees>-5.27341662906110286712646484375</LongitudeDegrees>
            </Position>
            <AltitudeMeters>35.40000152587890625</AltitudeMeters>
            <DistanceMeters>NAN</DistanceMeters>
          </Trackpoint>
          <Trackpoint>
            <Time>2022-07-17T11:37:49.000Z</Time>
            <Position>
              <LatitudeDegrees>43.48460546694695949554443359375</LatitudeDegrees>
              <LongitudeDegrees>-5.27355090714991092681884765625</LongitudeDegrees>
            </Position>
            <AltitudeMeters>34.59999847412109375</AltitudeMeters>
            <DistanceMeters>NAN</DistanceMeters>
          </Trackpoint>
          <Trackpoint>
            <Time>2022-07-17T11:37:52.000Z</Time>
            <Position>
              <LatitudeDegrees>43.48476824350655078887939453125</LatitudeDegrees>
              <LongitudeDegrees>-5.27373296208679676055908203125</LongitudeDegrees>
            </Position>
            <AltitudeMeters>33.40000152587890625</AltitudeMeters>
            <DistanceMeters>NAN</DistanceMeters>
          </Trackpoint>
          <Trackpoint>
            <Time>2022-07-17T11:37:54.000Z</Time>
            <Position>
              <LatitudeDegrees>43.484847284853458404541015625</LatitudeDegrees>
              <LongitudeDegrees>-5.2738698385655879974365234375</LongitudeDegrees>
            </Position>
            <AltitudeMeters>32.59999847412109375</AltitudeMeters>
            <DistanceMeters>NAN</DistanceMeters>
          </Trackpoint>
          <Trackpoint>
            <Time>2022-07-17T11:37:55.000Z</Time>
            <Position>
              <LatitudeDegrees>43.48490520380437374114990234375</LatitudeDegrees>
              <LongitudeDegrees>-5.27394737116992473602294921875</LongitudeDegrees>
            </Position>
            <AltitudeMeters>32.200000762939453125</AltitudeMeters>
            <DistanceMeters>NAN</DistanceMeters>
          </Trackpoint>
          <Trackpoint>
            <Time>2022-07-17T11:37:57.000Z</Time>
            <Position>
              <LatitudeDegrees>43.4849976561963558197021484375</LatitudeDegrees>
              <LongitudeDegrees>-5.274047367274761199951171875</LongitudeDegrees>
            </Position>
            <AltitudeMeters>31.3999996185302734375</AltitudeMeters>
            <DistanceMeters>NAN</DistanceMeters>
          </Trackpoint>
          <Trackpoint>
            <Time>2022-07-17T11:37:58.000Z</Time>
            <Position>
              <LatitudeDegrees>43.4850563295185565948486328125</LatitudeDegrees>
              <LongitudeDegrees>-5.27412213385105133056640625</LongitudeDegrees>
            </Position>
            <AltitudeMeters>31</AltitudeMeters>
            <DistanceMeters>NAN</DistanceMeters>
          </Trackpoint>
          <Trackpoint>
            <Time>2022-07-17T11:38:01.000Z</Time>
            <Position>
              <LatitudeDegrees>43.48520242609083652496337890625</LatitudeDegrees>
              <LongitudeDegrees>-5.274304188787937164306640625</LongitudeDegrees>
            </Position>
            <AltitudeMeters>30.3999996185302734375</AltitudeMeters>
            <DistanceMeters>NAN</DistanceMeters>
          </Trackpoint>
          <Trackpoint>
            <Time>2022-07-17T11:38:02.000Z</Time>
            <Position>
              <LatitudeDegrees>43.485248275101184844970703125</LatitudeDegrees>
              <LongitudeDegrees>-5.274361856281757354736328125</LongitudeDegrees>
            </Position>
            <AltitudeMeters>30</AltitudeMeters>
            <DistanceMeters>NAN</DistanceMeters>
          </Trackpoint>
          <Trackpoint>
            <Time>2022-07-17T11:38:04.000Z</Time>
            <Position>
              <LatitudeDegrees>43.48534273914992809295654296875</LatitudeDegrees>
              <LongitudeDegrees>-5.274481214582920074462890625</LongitudeDegrees>
            </Position>
            <AltitudeMeters>29</AltitudeMeters>
            <DistanceMeters>NAN</DistanceMeters>
          </Trackpoint>
          <Trackpoint>
            <Time>2022-07-17T11:38:05.000Z</Time>
            <Position>
              <LatitudeDegrees>43.4853875823318958282470703125</LatitudeDegrees>
              <LongitudeDegrees>-5.27454189956188201904296875</LongitudeDegrees>
            </Position>
            <AltitudeMeters>28.799999237060546875</AltitudeMeters>
            <DistanceMeters>NAN</DistanceMeters>
          </Trackpoint>
          <Trackpoint>
            <Time>2022-07-17T11:38:07.000Z</Time>
            <Position>
              <LatitudeDegrees>43.48547450266778469085693359375</LatitudeDegrees>
              <LongitudeDegrees>-5.2746480144560337066650390625</LongitudeDegrees>
            </Position>
            <AltitudeMeters>27.6000003814697265625</AltitudeMeters>
            <DistanceMeters>NAN</DistanceMeters>
          </Trackpoint>
          <Trackpoint>
            <Time>2022-07-17T11:38:10.000Z</Time>
            <Position>
              <LatitudeDegrees>43.48557994700968265533447265625</LatitudeDegrees>
              <LongitudeDegrees>-5.2747650258243083953857421875</LongitudeDegrees>
            </Position>
            <AltitudeMeters>26.200000762939453125</AltitudeMeters>
            <DistanceMeters>NAN</DistanceMeters>
          </Trackpoint>
          <Trackpoint>
            <Time>2022-07-17T11:38:11.000Z</Time>
            <Position>
              <LatitudeDegrees>43.48560676909983158111572265625</LatitudeDegrees>
              <LongitudeDegrees>-5.2747874893248081207275390625</LongitudeDegrees>
            </Position>
            <AltitudeMeters>26</AltitudeMeters>
            <DistanceMeters>NAN</DistanceMeters>
          </Trackpoint>
          <Trackpoint>
            <Time>2022-07-17T11:38:14.000Z</Time>
            <Position>
              <LatitudeDegrees>43.48563526757061481475830078125</LatitudeDegrees>
              <LongitudeDegrees>-5.2748179994523525238037109375</LongitudeDegrees>
            </Position>
            <AltitudeMeters>25.3999996185302734375</AltitudeMeters>
            <DistanceMeters>NAN</DistanceMeters>
          </Trackpoint>
          <Trackpoint>
            <Time>2022-07-17T11:38:16.000Z</Time>
            <Position>
              <LatitudeDegrees>43.48560425452888011932373046875</LatitudeDegrees>
              <LongitudeDegrees>-5.27481288649141788482666015625</LongitudeDegrees>
            </Position>
            <AltitudeMeters>25.3999996185302734375</AltitudeMeters>
            <DistanceMeters>NAN</DistanceMeters>
          </Trackpoint>
          <Trackpoint>
            <Time>2022-07-17T11:38:18.000Z</Time>
            <Position>
              <LatitudeDegrees>43.48556754179298877716064453125</LatitudeDegrees>
              <LongitudeDegrees>-5.274841301143169403076171875</LongitudeDegrees>
            </Position>
            <AltitudeMeters>25.3999996185302734375</AltitudeMeters>
            <DistanceMeters>NAN</DistanceMeters>
          </Trackpoint>
          <Trackpoint>
            <Time>2022-07-17T11:38:20.000Z</Time>
            <Position>
              <LatitudeDegrees>43.48555463366210460662841796875</LatitudeDegrees>
              <LongitudeDegrees>-5.2749433927237987518310546875</LongitudeDegrees>
            </Position>
            <AltitudeMeters>25.3999996185302734375</AltitudeMeters>
            <DistanceMeters>NAN</DistanceMeters>
          </Trackpoint>
          <Trackpoint>
            <Time>2022-07-17T11:38:21.000Z</Time>
            <Position>
              <LatitudeDegrees>43.48555438220500946044921875</LatitudeDegrees>
              <LongitudeDegrees>-5.27499812655150890350341796875</LongitudeDegrees>
            </Position>
            <AltitudeMeters>25.3999996185302734375</AltitudeMeters>
            <DistanceMeters>NAN</DistanceMeters>
          </Trackpoint>
          <Trackpoint>
            <Time>2022-07-17T11:38:22.000Z</Time>
            <Position>
              <LatitudeDegrees>43.4855510294437408447265625</LatitudeDegrees>
              <LongitudeDegrees>-5.2750627510249614715576171875</LongitudeDegrees>
            </Position>
            <AltitudeMeters>25.200000762939453125</AltitudeMeters>
            <DistanceMeters>NAN</DistanceMeters>
          </Trackpoint>
          <Trackpoint>
            <Time>2022-07-17T11:38:23.000Z</Time>
            <Position>
              <LatitudeDegrees>43.4855434857308864593505859375</LatitudeDegrees>
              <LongitudeDegrees>-5.275132320821285247802734375</LongitudeDegrees>
            </Position>
            <AltitudeMeters>25.200000762939453125</AltitudeMeters>
            <DistanceMeters>NAN</DistanceMeters>
          </Trackpoint>
          <Trackpoint>
            <Time>2022-07-17T11:38:24.000Z</Time>
            <Position>
              <LatitudeDegrees>43.48554071970283985137939453125</LatitudeDegrees>
              <LongitudeDegrees>-5.27519661001861095428466796875</LongitudeDegrees>
            </Position>
            <AltitudeMeters>25</AltitudeMeters>
            <DistanceMeters>NAN</DistanceMeters>
          </Trackpoint>
          <Trackpoint>
            <Time>2022-07-17T11:38:26.000Z</Time>
            <Position>
              <LatitudeDegrees>43.48548774607479572296142578125</LatitudeDegrees>
              <LongitudeDegrees>-5.2753297984600067138671875</LongitudeDegrees>
            </Position>
            <AltitudeMeters>24.3999996185302734375</AltitudeMeters>
            <DistanceMeters>NAN</DistanceMeters>
          </Trackpoint>
          <Trackpoint>
            <Time>2022-07-17T11:38:27.000Z</Time>
            <Position>
              <LatitudeDegrees>43.48544835112988948822021484375</LatitudeDegrees>
              <LongitudeDegrees>-5.2753913216292858123779296875</LongitudeDegrees>
            </Position>
            <AltitudeMeters>24.200000762939453125</AltitudeMeters>
            <DistanceMeters>NAN</DistanceMeters>
          </Trackpoint>
          <Trackpoint>
            <Time>2022-07-17T11:38:28.000Z</Time>
            <Position>
              <LatitudeDegrees>43.4854415617883205413818359375</LatitudeDegrees>
              <LongitudeDegrees>-5.27544186450541019439697265625</LongitudeDegrees>
            </Position>
            <AltitudeMeters>24</AltitudeMeters>
            <DistanceMeters>NAN</DistanceMeters>
          </Trackpoint>
          <Trackpoint>
            <Time>2022-07-17T11:38:31.000Z</Time>
            <Position>
              <LatitudeDegrees>43.48540644161403179168701171875</LatitudeDegrees>
              <LongitudeDegrees>-5.27557614259421825408935546875</LongitudeDegrees>
            </Position>
            <AltitudeMeters>23.6000003814697265625</AltitudeMeters>
            <DistanceMeters>NAN</DistanceMeters>
          </Trackpoint>
          <Trackpoint>
            <Time>2022-07-17T11:38:36.000Z</Time>
            <Position>
              <LatitudeDegrees>43.48535430617630481719970703125</LatitudeDegrees>
              <LongitudeDegrees>-5.2758255042135715484619140625</LongitudeDegrees>
            </Position>
            <AltitudeMeters>23.6000003814697265625</AltitudeMeters>
            <DistanceMeters>NAN</DistanceMeters>
          </Trackpoint>
          <Trackpoint>
            <Time>2022-07-17T11:38:42.000Z</Time>
            <Position>
              <LatitudeDegrees>43.48524995148181915283203125</LatitudeDegrees>
              <LongitudeDegrees>-5.2761746942996978759765625</LongitudeDegrees>
            </Position>
            <AltitudeMeters>23.3999996185302734375</AltitudeMeters>
            <DistanceMeters>NAN</DistanceMeters>
          </Trackpoint>
          <Trackpoint>
            <Time>2022-07-17T11:38:46.000Z</Time>
            <Position>
              <LatitudeDegrees>43.48521315492689609527587890625</LatitudeDegrees>
              <LongitudeDegrees>-5.276385582983493804931640625</LongitudeDegrees>
            </Position>
            <AltitudeMeters>23.200000762939453125</AltitudeMeters>
            <DistanceMeters>NAN</DistanceMeters>
          </Trackpoint>
          <Trackpoint>
            <Time>2022-07-17T11:38:47.000Z</Time>
            <Position>
              <LatitudeDegrees>43.48519027233123779296875</LatitudeDegrees>
              <LongitudeDegrees>-5.27644182555377483367919921875</LongitudeDegrees>
            </Position>
            <AltitudeMeters>23</AltitudeMeters>
            <DistanceMeters>NAN</DistanceMeters>
          </Trackpoint>
          <Trackpoint>
            <Time>2022-07-17T11:38:49.000Z</Time>
            <Position>
              <LatitudeDegrees>43.4851582534611225128173828125</LatitudeDegrees>
              <LongitudeDegrees>-5.276567302644252777099609375</LongitudeDegrees>
            </Position>
            <AltitudeMeters>23</AltitudeMeters>
            <DistanceMeters>NAN</DistanceMeters>
          </Trackpoint>
          <Trackpoint>
            <Time>2022-07-17T11:38:57.000Z</Time>
            <Position>
              <LatitudeDegrees>43.48502196371555328369140625</LatitudeDegrees>
              <LongitudeDegrees>-5.2769942767918109893798828125</LongitudeDegrees>
            </Position>
            <AltitudeMeters>22.6000003814697265625</AltitudeMeters>
            <DistanceMeters>NAN</DistanceMeters>
          </Trackpoint>
          <Trackpoint>
            <Time>2022-07-17T11:39:04.000Z</Time>
            <Position>
              <LatitudeDegrees>43.48490118049085140228271484375</LatitudeDegrees>
              <LongitudeDegrees>-5.27736199088394641876220703125</LongitudeDegrees>
            </Position>
            <AltitudeMeters>22.3999996185302734375</AltitudeMeters>
            <DistanceMeters>NAN</DistanceMeters>
          </Trackpoint>
          <Trackpoint>
            <Time>2022-07-17T11:39:05.000Z</Time>
            <Position>
              <LatitudeDegrees>43.48489196039736270904541015625</LatitudeDegrees>
              <LongitudeDegrees>-5.27741278521716594696044921875</LongitudeDegrees>
            </Position>
            <AltitudeMeters>22.3999996185302734375</AltitudeMeters>
            <DistanceMeters>NAN</DistanceMeters>
          </Trackpoint>
          <Trackpoint>
            <Time>2022-07-17T11:39:06.000Z</Time>
            <Position>
              <LatitudeDegrees>43.48488341085612773895263671875</LatitudeDegrees>
              <LongitudeDegrees>-5.27746374718844890594482421875</LongitudeDegrees>
            </Position>
            <AltitudeMeters>21.799999237060546875</AltitudeMeters>
            <DistanceMeters>NAN</DistanceMeters>
          </Trackpoint>
          <Trackpoint>
            <Time>2022-07-17T11:39:10.000Z</Time>
            <Position>
              <LatitudeDegrees>43.4848598577082157135009765625</LatitudeDegrees>
              <LongitudeDegrees>-5.2776901423931121826171875</LongitudeDegrees>
            </Position>
            <AltitudeMeters>21.3999996185302734375</AltitudeMeters>
            <DistanceMeters>NAN</DistanceMeters>
          </Trackpoint>
          <Trackpoint>
            <Time>2022-07-17T11:39:15.000Z</Time>
            <Position>
              <LatitudeDegrees>43.48482943139970302581787109375</LatitudeDegrees>
              <LongitudeDegrees>-5.27796967886388301849365234375</LongitudeDegrees>
            </Position>
            <AltitudeMeters>22</AltitudeMeters>
            <DistanceMeters>NAN</DistanceMeters>
          </Trackpoint>
          <Trackpoint>
            <Time>2022-07-17T11:39:18.000Z</Time>
            <Position>
              <LatitudeDegrees>43.48480562679469585418701171875</LatitudeDegrees>
              <LongitudeDegrees>-5.278119631111621856689453125</LongitudeDegrees>
            </Position>
            <AltitudeMeters>22</AltitudeMeters>
            <DistanceMeters>NAN</DistanceMeters>
          </Trackpoint>
          <Trackpoint>
            <Time>2022-07-17T11:39:23.000Z</Time>
            <Position>
              <LatitudeDegrees>43.48475399427115917205810546875</LatitudeDegrees>
              <LongitudeDegrees>-5.27838743291795253753662109375</LongitudeDegrees>
            </Position>
            <AltitudeMeters>22</AltitudeMeters>
            <DistanceMeters>NAN</DistanceMeters>
          </Trackpoint>
          <Trackpoint>
            <Time>2022-07-17T11:39:26.000Z</Time>
            <Position>
              <LatitudeDegrees>43.48473471589386463165283203125</LatitudeDegrees>
              <LongitudeDegrees>-5.27855138294398784637451171875</LongitudeDegrees>
            </Position>
            <AltitudeMeters>21.799999237060546875</AltitudeMeters>
            <DistanceMeters>NAN</DistanceMeters>
          </Trackpoint>
          <Trackpoint>
            <Time>2022-07-17T11:39:32.000Z</Time>
            <Position>
              <LatitudeDegrees>43.48469347693026065826416015625</LatitudeDegrees>
              <LongitudeDegrees>-5.27885195799171924591064453125</LongitudeDegrees>
            </Position>
            <AltitudeMeters>21.799999237060546875</AltitudeMeters>
            <DistanceMeters>NAN</DistanceMeters>
          </Trackpoint>
          <Trackpoint>
            <Time>2022-07-17T11:39:40.000Z</Time>
            <Position>
              <LatitudeDegrees>43.4846533276140689849853515625</LatitudeDegrees>
              <LongitudeDegrees>-5.2792500145733356475830078125</LongitudeDegrees>
            </Position>
            <AltitudeMeters>21.6000003814697265625</AltitudeMeters>
            <DistanceMeters>NAN</DistanceMeters>
          </Trackpoint>
          <Trackpoint>
            <Time>2022-07-17T11:39:51.000Z</Time>
            <Position>
              <LatitudeDegrees>43.48458250053226947784423828125</LatitudeDegrees>
              <LongitudeDegrees>-5.279798023402690887451171875</LongitudeDegrees>
            </Position>
            <AltitudeMeters>21.6000003814697265625</AltitudeMeters>
            <DistanceMeters>NAN</DistanceMeters>
          </Trackpoint>
          <Trackpoint>
            <Time>2022-07-17T11:39:58.000Z</Time>
            <Position>
              <LatitudeDegrees>43.48454863764345645904541015625</LatitudeDegrees>
              <LongitudeDegrees>-5.2800818346440792083740234375</LongitudeDegrees>
            </Position>
            <AltitudeMeters>22</AltitudeMeters>
            <DistanceMeters>NAN</DistanceMeters>
          </Trackpoint>
          <Trackpoint>
            <Time>2022-07-17T11:40:09.000Z</Time>
            <Position>
              <LatitudeDegrees>43.48449398763477802276611328125</LatitudeDegrees>
              <LongitudeDegrees>-5.2804697491228580474853515625</LongitudeDegrees>
            </Position>
            <AltitudeMeters>22.6000003814697265625</AltitudeMeters>
            <DistanceMeters>NAN</DistanceMeters>
          </Trackpoint>
          <Trackpoint>
            <Time>2022-07-17T11:40:17.000Z</Time>
            <Position>
              <LatitudeDegrees>43.48443145863711833953857421875</LatitudeDegrees>
              <LongitudeDegrees>-5.280717350542545318603515625</LongitudeDegrees>
            </Position>
            <AltitudeMeters>22.6000003814697265625</AltitudeMeters>
            <DistanceMeters>NAN</DistanceMeters>
          </Trackpoint>
          <Trackpoint>
            <Time>2022-07-17T11:40:25.000Z</Time>
            <Position>
              <LatitudeDegrees>43.48436339758336544036865234375</LatitudeDegrees>
              <LongitudeDegrees>-5.2810075320303440093994140625</LongitudeDegrees>
            </Position>
            <AltitudeMeters>22.200000762939453125</AltitudeMeters>
            <DistanceMeters>NAN</DistanceMeters>
          </Trackpoint>
          <Trackpoint>
            <Time>2022-07-17T11:40:29.000Z</Time>
            <Position>
              <LatitudeDegrees>43.484312854707241058349609375</LatitudeDegrees>
              <LongitudeDegrees>-5.28120073489844799041748046875</LongitudeDegrees>
            </Position>
            <AltitudeMeters>21.799999237060546875</AltitudeMeters>
            <DistanceMeters>NAN</DistanceMeters>
          </Trackpoint>
          <Trackpoint>
            <Time>2022-07-17T11:40:30.000Z</Time>
            <Position>
              <LatitudeDegrees>43.48430036567151546478271484375</LatitudeDegrees>
              <LongitudeDegrees>-5.28125504963099956512451171875</LongitudeDegrees>
            </Position>
            <AltitudeMeters>21.799999237060546875</AltitudeMeters>
            <DistanceMeters>NAN</DistanceMeters>
          </Trackpoint>
          <Trackpoint>
            <Time>2022-07-17T11:40:32.000Z</Time>
            <Position>
              <LatitudeDegrees>43.4842742979526519775390625</LatitudeDegrees>
              <LongitudeDegrees>-5.28136753477156162261962890625</LongitudeDegrees>
            </Position>
            <AltitudeMeters>21.3999996185302734375</AltitudeMeters>
            <DistanceMeters>NAN</DistanceMeters>
          </Trackpoint>
          <Trackpoint>
            <Time>2022-07-17T11:40:34.000Z</Time>
            <Position>
              <LatitudeDegrees>43.484247811138629913330078125</LatitudeDegrees>
              <LongitudeDegrees>-5.28148706071078777313232421875</LongitudeDegrees>
            </Position>
            <AltitudeMeters>21.200000762939453125</AltitudeMeters>
            <DistanceMeters>NAN</DistanceMeters>
          </Trackpoint>
          <Trackpoint>
            <Time>2022-07-17T11:40:36.000Z</Time>
            <Position>
              <LatitudeDegrees>43.4842144511640071868896484375</LatitudeDegrees>
              <LongitudeDegrees>-5.2816234342753887176513671875</LongitudeDegrees>
            </Position>
            <AltitudeMeters>21</AltitudeMeters>
            <DistanceMeters>NAN</DistanceMeters>
          </Trackpoint>
          <Trackpoint>
            <Time>2022-07-17T11:40:37.000Z</Time>
            <Position>
              <LatitudeDegrees>43.48420120775699615478515625</LatitudeDegrees>
              <LongitudeDegrees>-5.281685627996921539306640625</LongitudeDegrees>
            </Position>
            <AltitudeMeters>20.799999237060546875</AltitudeMeters>
            <DistanceMeters>NAN</DistanceMeters>
          </Trackpoint>
          <Trackpoint>
            <Time>2022-07-17T11:40:47.000Z</Time>
            <Position>
              <LatitudeDegrees>43.48406651057302951812744140625</LatitudeDegrees>
              <LongitudeDegrees>-5.2823124267160892486572265625</LongitudeDegrees>
            </Position>
            <AltitudeMeters>20.200000762939453125</AltitudeMeters>
            <DistanceMeters>NAN</DistanceMeters>
          </Trackpoint>
          <Trackpoint>
            <Time>2022-07-17T11:40:53.000Z</Time>
            <Position>
              <LatitudeDegrees>43.48402275703847408294677734375</LatitudeDegrees>
              <LongitudeDegrees>-5.2827192842960357666015625</LongitudeDegrees>
            </Position>
            <AltitudeMeters>19.799999237060546875</AltitudeMeters>
            <DistanceMeters>NAN</DistanceMeters>
          </Trackpoint>
          <Trackpoint>
            <Time>2022-07-17T11:40:55.000Z</Time>
            <Position>
              <LatitudeDegrees>43.48401538096368312835693359375</LatitudeDegrees>
              <LongitudeDegrees>-5.282856412231922149658203125</LongitudeDegrees>
            </Position>
            <AltitudeMeters>19.799999237060546875</AltitudeMeters>
            <DistanceMeters>NAN</DistanceMeters>
          </Trackpoint>
          <Trackpoint>
            <Time>2022-07-17T11:40:58.000Z</Time>
            <Position>
              <LatitudeDegrees>43.48400163464248180389404296875</LatitudeDegrees>
              <LongitudeDegrees>-5.2830409817397594451904296875</LongitudeDegrees>
            </Position>
            <AltitudeMeters>19.6000003814697265625</AltitudeMeters>
            <DistanceMeters>NAN</DistanceMeters>
          </Trackpoint>
          <Trackpoint>
            <Time>2022-07-17T11:41:00.000Z</Time>
            <Position>
              <LatitudeDegrees>43.48399811424314975738525390625</LatitudeDegrees>
              <LongitudeDegrees>-5.28315707109868526458740234375</LongitudeDegrees>
            </Position>
            <AltitudeMeters>19.6000003814697265625</AltitudeMeters>
            <DistanceMeters>NAN</DistanceMeters>
          </Trackpoint>
          <Trackpoint>
            <Time>2022-07-17T11:41:01.000Z</Time>
            <Position>
              <LatitudeDegrees>43.4839945100247859954833984375</LatitudeDegrees>
              <LongitudeDegrees>-5.28321473859250545501708984375</LongitudeDegrees>
            </Position>
            <AltitudeMeters>19.6000003814697265625</AltitudeMeters>
            <DistanceMeters>NAN</DistanceMeters>
          </Trackpoint>
          <Trackpoint>
            <Time>2022-07-17T11:41:02.000Z</Time>
            <Position>
              <LatitudeDegrees>43.48399358801543712615966796875</LatitudeDegrees>
              <LongitudeDegrees>-5.2832718193531036376953125</LongitudeDegrees>
            </Position>
            <AltitudeMeters>19.3999996185302734375</AltitudeMeters>
            <DistanceMeters>NAN</DistanceMeters>
          </Trackpoint>
          <Trackpoint>
            <Time>2022-07-17T11:41:07.000Z</Time>
            <Position>
              <LatitudeDegrees>43.48398973233997821807861328125</LatitudeDegrees>
              <LongitudeDegrees>-5.283533670008182525634765625</LongitudeDegrees>
            </Position>
            <AltitudeMeters>19.200000762939453125</AltitudeMeters>
            <DistanceMeters>NAN</DistanceMeters>
          </Trackpoint>
          <Trackpoint>
            <Time>2022-07-17T11:41:14.000Z</Time>
            <Position>
              <LatitudeDegrees>43.4839425422251224517822265625</LatitudeDegrees>
              <LongitudeDegrees>-5.283973552286624908447265625</LongitudeDegrees>
            </Position>
            <AltitudeMeters>19.200000762939453125</AltitudeMeters>
            <DistanceMeters>NAN</DistanceMeters>
          </Trackpoint>
          <Trackpoint>
            <Time>2022-07-17T11:41:16.000Z</Time>
            <Position>
              <LatitudeDegrees>43.4839202463626861572265625</LatitudeDegrees>
              <LongitudeDegrees>-5.28408964164555072784423828125</LongitudeDegrees>
            </Position>
            <AltitudeMeters>19.200000762939453125</AltitudeMeters>
            <DistanceMeters>NAN</DistanceMeters>
          </Trackpoint>
          <Trackpoint>
            <Time>2022-07-17T11:41:17.000Z</Time>
            <Position>
              <LatitudeDegrees>43.4839110262691974639892578125</LatitudeDegrees>
              <LongitudeDegrees>-5.2841463871300220489501953125</LongitudeDegrees>
            </Position>
            <AltitudeMeters>19.200000762939453125</AltitudeMeters>
            <DistanceMeters>NAN</DistanceMeters>
          </Trackpoint>
          <Trackpoint>
            <Time>2022-07-17T11:41:18.000Z</Time>
            <Position>
              <LatitudeDegrees>43.483900129795074462890625</LatitudeDegrees>
              <LongitudeDegrees>-5.28420330025255680084228515625</LongitudeDegrees>
            </Position>
            <AltitudeMeters>19.200000762939453125</AltitudeMeters>
            <DistanceMeters>NAN</DistanceMeters>
          </Trackpoint>
          <Trackpoint>
            <Time>2022-07-17T11:41:23.000Z</Time>
            <Position>
              <LatitudeDegrees>43.483844809234142303466796875</LatitudeDegrees>
              <LongitudeDegrees>-5.28452097438275814056396484375</LongitudeDegrees>
            </Position>
            <AltitudeMeters>19.3999996185302734375</AltitudeMeters>
            <DistanceMeters>NAN</DistanceMeters>
          </Trackpoint>
          <Trackpoint>
            <Time>2022-07-17T11:41:27.000Z</Time>
            <Position>
              <LatitudeDegrees>43.48378680646419525146484375</LatitudeDegrees>
              <LongitudeDegrees>-5.28475105762481689453125</LongitudeDegrees>
            </Position>
            <AltitudeMeters>19.200000762939453125</AltitudeMeters>
            <DistanceMeters>NAN</DistanceMeters>
          </Trackpoint>
          <Trackpoint>
            <Time>2022-07-17T11:41:30.000Z</Time>
            <Position>
              <LatitudeDegrees>43.48376333713531494140625</LatitudeDegrees>
              <LongitudeDegrees>-5.28493571095168590545654296875</LongitudeDegrees>
            </Position>
            <AltitudeMeters>19.200000762939453125</AltitudeMeters>
            <DistanceMeters>NAN</DistanceMeters>
          </Trackpoint>
          <Trackpoint>
            <Time>2022-07-17T11:41:31.000Z</Time>
            <Position>
              <LatitudeDegrees>43.48376258276402950286865234375</LatitudeDegrees>
              <LongitudeDegrees>-5.28499706648290157318115234375</LongitudeDegrees>
            </Position>
            <AltitudeMeters>19.200000762939453125</AltitudeMeters>
            <DistanceMeters>NAN</DistanceMeters>
          </Trackpoint>
          <Trackpoint>
            <Time>2022-07-17T11:41:35.000Z</Time>
            <Position>
              <LatitudeDegrees>43.4837780892848968505859375</LatitudeDegrees>
              <LongitudeDegrees>-5.28525170870125293731689453125</LongitudeDegrees>
            </Position>
            <AltitudeMeters>19</AltitudeMeters>
            <DistanceMeters>NAN</DistanceMeters>
          </Trackpoint>
          <Trackpoint>
            <Time>2022-07-17T11:41:37.000Z</Time>
            <Position>
              <LatitudeDegrees>43.48379812203347682952880859375</LatitudeDegrees>
              <LongitudeDegrees>-5.28537156991660594940185546875</LongitudeDegrees>
            </Position>
            <AltitudeMeters>19</AltitudeMeters>
            <DistanceMeters>NAN</DistanceMeters>
          </Trackpoint>
          <Trackpoint>
            <Time>2022-07-17T11:41:41.000Z</Time>
            <Position>
              <LatitudeDegrees>43.483868949115276336669921875</LatitudeDegrees>
              <LongitudeDegrees>-5.2855984680354595184326171875</LongitudeDegrees>
            </Position>
            <AltitudeMeters>19.3999996185302734375</AltitudeMeters>
            <DistanceMeters>NAN</DistanceMeters>
          </Trackpoint>
          <Trackpoint>
            <Time>2022-07-17T11:41:46.000Z</Time>
            <Position>
              <LatitudeDegrees>43.483996689319610595703125</LatitudeDegrees>
              <LongitudeDegrees>-5.28583089821040630340576171875</LongitudeDegrees>
            </Position>
            <AltitudeMeters>19.6000003814697265625</AltitudeMeters>
            <DistanceMeters>NAN</DistanceMeters>
          </Trackpoint>
          <Trackpoint>
            <Time>2022-07-17T11:41:48.000Z</Time>
            <Position>
              <LatitudeDegrees>43.484043292701244354248046875</LatitudeDegrees>
              <LongitudeDegrees>-5.2859189920127391815185546875</LongitudeDegrees>
            </Position>
            <AltitudeMeters>19.3999996185302734375</AltitudeMeters>
            <DistanceMeters>NAN</DistanceMeters>
          </Trackpoint>
          <Trackpoint>
            <Time>2022-07-17T11:41:49.000Z</Time>
            <Position>
              <LatitudeDegrees>43.48405636847019195556640625</LatitudeDegrees>
              <LongitudeDegrees>-5.28596098534762859344482421875</LongitudeDegrees>
            </Position>
            <AltitudeMeters>19.3999996185302734375</AltitudeMeters>
            <DistanceMeters>NAN</DistanceMeters>
          </Trackpoint>
          <Trackpoint>
            <Time>2022-07-17T11:41:53.000Z</Time>
            <Position>
              <LatitudeDegrees>43.48407204262912273406982421875</LatitudeDegrees>
              <LongitudeDegrees>-5.286032818257808685302734375</LongitudeDegrees>
            </Position>
            <AltitudeMeters>19</AltitudeMeters>
            <DistanceMeters>NAN</DistanceMeters>
          </Trackpoint>
          <Trackpoint>
            <Time>2022-07-17T11:41:54.000Z</Time>
            <Position>
              <LatitudeDegrees>43.48406584002077579498291015625</LatitudeDegrees>
              <LongitudeDegrees>-5.2860363386571407318115234375</LongitudeDegrees>
            </Position>
            <AltitudeMeters>19</AltitudeMeters>
            <DistanceMeters>NAN</DistanceMeters>
          </Trackpoint>
          <Trackpoint>
            <Time>2022-07-17T11:42:29.000Z</Time>
            <Position>
              <LatitudeDegrees>43.48411059938371181488037109375</LatitudeDegrees>
              <LongitudeDegrees>-5.28608612716197967529296875</LongitudeDegrees>
            </Position>
            <AltitudeMeters>19.6000003814697265625</AltitudeMeters>
            <DistanceMeters>NAN</DistanceMeters>
          </Trackpoint>
          <Trackpoint>
            <Time>2022-07-17T11:42:30.000Z</Time>
            <Position>
              <LatitudeDegrees>43.48412468098104000091552734375</LatitudeDegrees>
              <LongitudeDegrees>-5.286110602319240570068359375</LongitudeDegrees>
            </Position>
            <AltitudeMeters>19.6000003814697265625</AltitudeMeters>
            <DistanceMeters>NAN</DistanceMeters>
          </Trackpoint>
          <Trackpoint>
            <Time>2022-07-17T11:42:36.000Z</Time>
            <Position>
              <LatitudeDegrees>43.48422073759138584136962890625</LatitudeDegrees>
              <LongitudeDegrees>-5.28636180795729160308837890625</LongitudeDegrees>
            </Position>
            <AltitudeMeters>19.6000003814697265625</AltitudeMeters>
            <DistanceMeters>NAN</DistanceMeters>
          </Trackpoint>
          <Trackpoint>
            <Time>2022-07-17T11:42:43.000Z</Time>
            <Position>
              <LatitudeDegrees>43.48432098515331745147705078125</LatitudeDegrees>
              <LongitudeDegrees>-5.2866928093135356903076171875</LongitudeDegrees>
            </Position>
            <AltitudeMeters>19.799999237060546875</AltitudeMeters>
            <DistanceMeters>NAN</DistanceMeters>
          </Trackpoint>
          <Trackpoint>
            <Time>2022-07-17T11:42:49.000Z</Time>
            <Position>
              <LatitudeDegrees>43.48443028517067432403564453125</LatitudeDegrees>
              <LongitudeDegrees>-5.28698198497295379638671875</LongitudeDegrees>
            </Position>
            <AltitudeMeters>20.200000762939453125</AltitudeMeters>
            <DistanceMeters>NAN</DistanceMeters>
          </Trackpoint>
          <Trackpoint>
            <Time>2022-07-17T11:42:53.000Z</Time>
            <Position>
              <LatitudeDegrees>43.4844954125583171844482421875</LatitudeDegrees>
              <LongitudeDegrees>-5.28717351146042346954345703125</LongitudeDegrees>
            </Position>
            <AltitudeMeters>20.200000762939453125</AltitudeMeters>
            <DistanceMeters>NAN</DistanceMeters>
          </Trackpoint>
          <Trackpoint>
            <Time>2022-07-17T11:42:57.000Z</Time>
            <Position>
              <LatitudeDegrees>43.484530784189701080322265625</LatitudeDegrees>
              <LongitudeDegrees>-5.2873702347278594970703125</LongitudeDegrees>
            </Position>
            <AltitudeMeters>20.200000762939453125</AltitudeMeters>
            <DistanceMeters>NAN</DistanceMeters>
          </Trackpoint>
          <Trackpoint>
            <Time>2022-07-17T11:42:58.000Z</Time>
            <Position>
              <LatitudeDegrees>43.484534807503223419189453125</LatitudeDegrees>
              <LongitudeDegrees>-5.2874062769114971160888671875</LongitudeDegrees>
            </Position>
            <AltitudeMeters>20.200000762939453125</AltitudeMeters>
            <DistanceMeters>NAN</DistanceMeters>
          </Trackpoint>
          <Trackpoint>
            <Time>2022-07-17T11:43:02.000Z</Time>
            <Position>
              <LatitudeDegrees>43.48457135260105133056640625</LatitudeDegrees>
              <LongitudeDegrees>-5.287591181695461273193359375</LongitudeDegrees>
            </Position>
            <AltitudeMeters>20</AltitudeMeters>
            <DistanceMeters>NAN</DistanceMeters>
          </Trackpoint>
          <Trackpoint>
            <Time>2022-07-17T11:43:05.000Z</Time>
            <Position>
              <LatitudeDegrees>43.48458149470388889312744140625</LatitudeDegrees>
              <LongitudeDegrees>-5.28774079866707324981689453125</LongitudeDegrees>
            </Position>
            <AltitudeMeters>20</AltitudeMeters>
            <DistanceMeters>NAN</DistanceMeters>
          </Trackpoint>
          <Trackpoint>
            <Time>2022-07-17T11:43:06.000Z</Time>
            <Position>
              <LatitudeDegrees>43.48458853550255298614501953125</LatitudeDegrees>
              <LongitudeDegrees>-5.2877938561141490936279296875</LongitudeDegrees>
            </Position>
            <AltitudeMeters>20</AltitudeMeters>
            <DistanceMeters>NAN</DistanceMeters>
          </Trackpoint>
          <Trackpoint>
            <Time>2022-07-17T11:43:07.000Z</Time>
            <Position>
              <LatitudeDegrees>43.4845986776053905487060546875</LatitudeDegrees>
              <LongitudeDegrees>-5.2878508530557155609130859375</LongitudeDegrees>
            </Position>
            <AltitudeMeters>20</AltitudeMeters>
            <DistanceMeters>NAN</DistanceMeters>
          </Trackpoint>
          <Trackpoint>
            <Time>2022-07-17T11:43:08.000Z</Time>
            <Position>
              <LatitudeDegrees>43.484607227146625518798828125</LatitudeDegrees>
              <LongitudeDegrees>-5.28789502568542957305908203125</LongitudeDegrees>
            </Position>
            <AltitudeMeters>20</AltitudeMeters>
            <DistanceMeters>NAN</DistanceMeters>
          </Trackpoint>
          <Trackpoint>
            <Time>2022-07-17T11:43:10.000Z</Time>
            <Position>
              <LatitudeDegrees>43.484622649848461151123046875</LatitudeDegrees>
              <LongitudeDegrees>-5.2880151383578777313232421875</LongitudeDegrees>
            </Position>
            <AltitudeMeters>20</AltitudeMeters>
            <DistanceMeters>NAN</DistanceMeters>
          </Trackpoint>
          <Trackpoint>
            <Time>2022-07-17T11:43:11.000Z</Time>
            <Position>
              <LatitudeDegrees>43.48462860099971294403076171875</LatitudeDegrees>
              <LongitudeDegrees>-5.2880721352994441986083984375</LongitudeDegrees>
            </Position>
            <AltitudeMeters>19.799999237060546875</AltitudeMeters>
            <DistanceMeters>NAN</DistanceMeters>
          </Trackpoint>
          <Trackpoint>
            <Time>2022-07-17T11:43:12.000Z</Time>
            <Position>
              <LatitudeDegrees>43.48463715054094791412353515625</LatitudeDegrees>
              <LongitudeDegrees>-5.2881252765655517578125</LongitudeDegrees>
            </Position>
            <AltitudeMeters>19.799999237060546875</AltitudeMeters>
            <DistanceMeters>NAN</DistanceMeters>
          </Trackpoint>
          <Trackpoint>
            <Time>2022-07-17T11:43:13.000Z</Time>
            <Position>
              <LatitudeDegrees>43.48464310169219970703125</LatitudeDegrees>
              <LongitudeDegrees>-5.28816710226237773895263671875</LongitudeDegrees>
            </Position>
            <AltitudeMeters>19.799999237060546875</AltitudeMeters>
            <DistanceMeters>NAN</DistanceMeters>
          </Trackpoint>
          <Trackpoint>
            <Time>2022-07-17T11:43:21.000Z</Time>
            <Position>
              <LatitudeDegrees>43.48467688076198101043701171875</LatitudeDegrees>
              <LongitudeDegrees>-5.2886390872299671173095703125</LongitudeDegrees>
            </Position>
            <AltitudeMeters>19.6000003814697265625</AltitudeMeters>
            <DistanceMeters>NAN</DistanceMeters>
          </Trackpoint>
          <Trackpoint>
            <Time>2022-07-17T11:43:24.000Z</Time>
            <Position>
              <LatitudeDegrees>43.4846804849803447723388671875</LatitudeDegrees>
              <LongitudeDegrees>-5.2888110838830471038818359375</LongitudeDegrees>
            </Position>
            <AltitudeMeters>19.6000003814697265625</AltitudeMeters>
            <DistanceMeters>NAN</DistanceMeters>
          </Trackpoint>
          <Trackpoint>
            <Time>2022-07-17T11:43:26.000Z</Time>
            <Position>
              <LatitudeDegrees>43.48466849885880947113037109375</LatitudeDegrees>
              <LongitudeDegrees>-5.28893538750708103179931640625</LongitudeDegrees>
            </Position>
            <AltitudeMeters>19.6000003814697265625</AltitudeMeters>
            <DistanceMeters>NAN</DistanceMeters>
          </Trackpoint>
          <Trackpoint>
            <Time>2022-07-17T11:43:27.000Z</Time>
            <Position>
              <LatitudeDegrees>43.48466212861239910125732421875</LatitudeDegrees>
              <LongitudeDegrees>-5.28898484073579311370849609375</LongitudeDegrees>
            </Position>
            <AltitudeMeters>19.6000003814697265625</AltitudeMeters>
            <DistanceMeters>NAN</DistanceMeters>
          </Trackpoint>
          <Trackpoint>
            <Time>2022-07-17T11:43:36.000Z</Time>
            <Position>
              <LatitudeDegrees>43.48455232568085193634033203125</LatitudeDegrees>
              <LongitudeDegrees>-5.28953318484127521514892578125</LongitudeDegrees>
            </Position>
            <AltitudeMeters>19.799999237060546875</AltitudeMeters>
            <DistanceMeters>NAN</DistanceMeters>
          </Trackpoint>
          <Trackpoint>
            <Time>2022-07-17T11:43:39.000Z</Time>
            <Position>
              <LatitudeDegrees>43.4845178760588169097900390625</LatitudeDegrees>
              <LongitudeDegrees>-5.28967584483325481414794921875</LongitudeDegrees>
            </Position>
            <AltitudeMeters>19.799999237060546875</AltitudeMeters>
            <DistanceMeters>NAN</DistanceMeters>
          </Trackpoint>
          <Trackpoint>
            <Time>2022-07-17T11:43:42.000Z</Time>
            <Position>
              <LatitudeDegrees>43.48449214361608028411865234375</LatitudeDegrees>
              <LongitudeDegrees>-5.28979972936213016510009765625</LongitudeDegrees>
            </Position>
            <AltitudeMeters>20.200000762939453125</AltitudeMeters>
            <DistanceMeters>NAN</DistanceMeters>
          </Trackpoint>
          <Trackpoint>
            <Time>2022-07-17T11:43:46.000Z</Time>
            <Position>
              <LatitudeDegrees>43.484445624053478240966796875</LatitudeDegrees>
              <LongitudeDegrees>-5.28996284119784832000732421875</LongitudeDegrees>
            </Position>
            <AltitudeMeters>20.3999996185302734375</AltitudeMeters>
            <DistanceMeters>NAN</DistanceMeters>
          </Trackpoint>
          <Trackpoint>
            <Time>2022-07-17T11:43:48.000Z</Time>
            <Position>
              <LatitudeDegrees>43.4844229929149150848388671875</LatitudeDegrees>
              <LongitudeDegrees>-5.29005034826695919036865234375</LongitudeDegrees>
            </Position>
            <AltitudeMeters>20.3999996185302734375</AltitudeMeters>
            <DistanceMeters>NAN</DistanceMeters>
          </Trackpoint>
          <Trackpoint>
            <Time>2022-07-17T11:43:49.000Z</Time>
            <Position>
              <LatitudeDegrees>43.4844156168401241302490234375</LatitudeDegrees>
              <LongitudeDegrees>-5.290090329945087432861328125</LongitudeDegrees>
            </Position>
            <AltitudeMeters>20.6000003814697265625</AltitudeMeters>
            <DistanceMeters>NAN</DistanceMeters>
          </Trackpoint>
          <Trackpoint>
            <Time>2022-07-17T11:43:52.000Z</Time>
            <Position>
              <LatitudeDegrees>43.4843951649963855743408203125</LatitudeDegrees>
              <LongitudeDegrees>-5.2901947684586048126220703125</LongitudeDegrees>
            </Position>
            <AltitudeMeters>20.799999237060546875</AltitudeMeters>
            <DistanceMeters>NAN</DistanceMeters>
          </Trackpoint>
          <Trackpoint>
            <Time>2022-07-17T11:43:56.000Z</Time>
            <Position>
              <LatitudeDegrees>43.48436138592660427093505859375</LatitudeDegrees>
              <LongitudeDegrees>-5.29031907208263874053955078125</LongitudeDegrees>
            </Position>
            <AltitudeMeters>21.200000762939453125</AltitudeMeters>
            <DistanceMeters>NAN</DistanceMeters>
          </Trackpoint>
          <Trackpoint>
            <Time>2022-07-17T11:44:01.000Z</Time>
            <Position>
              <LatitudeDegrees>43.48431780003011226654052734375</LatitudeDegrees>
              <LongitudeDegrees>-5.29046542011201381683349609375</LongitudeDegrees>
            </Position>
            <AltitudeMeters>21.799999237060546875</AltitudeMeters>
            <DistanceMeters>NAN</DistanceMeters>
          </Trackpoint>
          <Trackpoint>
            <Time>2022-07-17T11:44:02.000Z</Time>
            <Position>
              <LatitudeDegrees>43.4843076579272747039794921875</LatitudeDegrees>
              <LongitudeDegrees>-5.29049375094473361968994140625</LongitudeDegrees>
            </Position>
            <AltitudeMeters>22</AltitudeMeters>
            <DistanceMeters>NAN</DistanceMeters>
          </Trackpoint>
          <Trackpoint>
            <Time>2022-07-17T11:44:05.000Z</Time>
            <Position>
              <LatitudeDegrees>43.4842885471880435943603515625</LatitudeDegrees>
              <LongitudeDegrees>-5.2905890531837940216064453125</LongitudeDegrees>
            </Position>
            <AltitudeMeters>22.3999996185302734375</AltitudeMeters>
            <DistanceMeters>NAN</DistanceMeters>
          </Trackpoint>
          <Trackpoint>
            <Time>2022-07-17T11:44:07.000Z</Time>
            <Position>
              <LatitudeDegrees>43.48427941091358661651611328125</LatitudeDegrees>
              <LongitudeDegrees>-5.29064445756375789642333984375</LongitudeDegrees>
            </Position>
            <AltitudeMeters>22.799999237060546875</AltitudeMeters>
            <DistanceMeters>NAN</DistanceMeters>
          </Trackpoint>
          <Trackpoint>
            <Time>2022-07-17T11:44:09.000Z</Time>
            <Position>
              <LatitudeDegrees>43.48427220247685909271240234375</LatitudeDegrees>
              <LongitudeDegrees>-5.29069793410599231719970703125</LongitudeDegrees>
            </Position>
            <AltitudeMeters>23</AltitudeMeters>
            <DistanceMeters>NAN</DistanceMeters>
          </Trackpoint>
          <Trackpoint>
            <Time>2022-07-17T11:44:11.000Z</Time>
            <Position>
              <LatitudeDegrees>43.4842573665082454681396484375</LatitudeDegrees>
              <LongitudeDegrees>-5.2907576970756053924560546875</LongitudeDegrees>
            </Position>
            <AltitudeMeters>23.200000762939453125</AltitudeMeters>
            <DistanceMeters>NAN</DistanceMeters>
          </Trackpoint>
          <Trackpoint>
            <Time>2022-07-17T11:44:16.000Z</Time>
            <Position>
              <LatitudeDegrees>43.48423884250223636627197265625</LatitudeDegrees>
              <LongitudeDegrees>-5.29089876450598239898681640625</LongitudeDegrees>
            </Position>
            <AltitudeMeters>24</AltitudeMeters>
            <DistanceMeters>NAN</DistanceMeters>
          </Trackpoint>
          <Trackpoint>
            <Time>2022-07-17T11:44:17.000Z</Time>
            <Position>
              <LatitudeDegrees>43.48422962240874767303466796875</LatitudeDegrees>
              <LongitudeDegrees>-5.2909353934228420257568359375</LongitudeDegrees>
            </Position>
            <AltitudeMeters>24</AltitudeMeters>
            <DistanceMeters>NAN</DistanceMeters>
          </Trackpoint>
          <Trackpoint>
            <Time>2022-07-17T11:44:18.000Z</Time>
            <Position>
              <LatitudeDegrees>43.484227694571018218994140625</LatitudeDegrees>
              <LongitudeDegrees>-5.29096548445522785186767578125</LongitudeDegrees>
            </Position>
            <AltitudeMeters>24.200000762939453125</AltitudeMeters>
            <DistanceMeters>NAN</DistanceMeters>
          </Trackpoint>
          <Trackpoint>
            <Time>2022-07-17T11:44:21.000Z</Time>
            <Position>
              <LatitudeDegrees>43.484213612973690032958984375</LatitudeDegrees>
              <LongitudeDegrees>-5.2910467050969600677490234375</LongitudeDegrees>
            </Position>
            <AltitudeMeters>24.200000762939453125</AltitudeMeters>
            <DistanceMeters>NAN</DistanceMeters>
          </Trackpoint>
          <Trackpoint>
            <Time>2022-07-17T11:44:23.000Z</Time>
            <Position>
              <LatitudeDegrees>43.48419777117669582366943359375</LatitudeDegrees>
              <LongitudeDegrees>-5.29109942726790904998779296875</LongitudeDegrees>
            </Position>
            <AltitudeMeters>24.3999996185302734375</AltitudeMeters>
            <DistanceMeters>NAN</DistanceMeters>
          </Trackpoint>
          <Trackpoint>
            <Time>2022-07-17T11:44:25.000Z</Time>
            <Position>
              <LatitudeDegrees>43.48418788053095340728759765625</LatitudeDegrees>
              <LongitudeDegrees>-5.2911601960659027099609375</LongitudeDegrees>
            </Position>
            <AltitudeMeters>24.6000003814697265625</AltitudeMeters>
            <DistanceMeters>NAN</DistanceMeters>
          </Trackpoint>
          <Trackpoint>
            <Time>2022-07-17T11:44:29.000Z</Time>
            <Position>
              <LatitudeDegrees>43.48418712615966796875</LatitudeDegrees>
              <LongitudeDegrees>-5.29126890935003757476806640625</LongitudeDegrees>
            </Position>
            <AltitudeMeters>25</AltitudeMeters>
            <DistanceMeters>NAN</DistanceMeters>
          </Trackpoint>
          <Trackpoint>
            <Time>2022-07-17T11:44:33.000Z</Time>
            <Position>
              <LatitudeDegrees>43.4841732122004032135009765625</LatitudeDegrees>
              <LongitudeDegrees>-5.2913868427276611328125</LongitudeDegrees>
            </Position>
            <AltitudeMeters>25.3999996185302734375</AltitudeMeters>
            <DistanceMeters>NAN</DistanceMeters>
          </Trackpoint>
          <Trackpoint>
            <Time>2022-07-17T11:44:44.000Z</Time>
            <Position>
              <LatitudeDegrees>43.48411009646952152252197265625</LatitudeDegrees>
              <LongitudeDegrees>-5.29171650297939777374267578125</LongitudeDegrees>
            </Position>
            <AltitudeMeters>26</AltitudeMeters>
            <DistanceMeters>NAN</DistanceMeters>
          </Trackpoint>
          <Trackpoint>
            <Time>2022-07-17T11:44:45.000Z</Time>
            <Position>
              <LatitudeDegrees>43.48410489968955516815185546875</LatitudeDegrees>
              <LongitudeDegrees>-5.29174399562180042266845703125</LongitudeDegrees>
            </Position>
            <AltitudeMeters>26.200000762939453125</AltitudeMeters>
            <DistanceMeters>NAN</DistanceMeters>
          </Trackpoint>
          <Trackpoint>
            <Time>2022-07-17T11:44:52.000Z</Time>
            <Position>
              <LatitudeDegrees>43.48406441509723663330078125</LatitudeDegrees>
              <LongitudeDegrees>-5.2919767610728740692138671875</LongitudeDegrees>
            </Position>
            <AltitudeMeters>26.3999996185302734375</AltitudeMeters>
            <DistanceMeters>NAN</DistanceMeters>
          </Trackpoint>
          <Trackpoint>
            <Time>2022-07-17T11:45:01.000Z</Time>
            <Position>
              <LatitudeDegrees>43.4840280376374721527099609375</LatitudeDegrees>
              <LongitudeDegrees>-5.29226585291326045989990234375</LongitudeDegrees>
            </Position>
            <AltitudeMeters>26.799999237060546875</AltitudeMeters>
            <DistanceMeters>NAN</DistanceMeters>
          </Trackpoint>
          <Trackpoint>
            <Time>2022-07-17T11:45:08.000Z</Time>
            <Position>
              <LatitudeDegrees>43.48398118279874324798583984375</LatitudeDegrees>
              <LongitudeDegrees>-5.29253943823277950286865234375</LongitudeDegrees>
            </Position>
            <AltitudeMeters>27</AltitudeMeters>
            <DistanceMeters>NAN</DistanceMeters>
          </Trackpoint>
          <Trackpoint>
            <Time>2022-07-17T11:45:09.000Z</Time>
            <Position>
              <LatitudeDegrees>43.48397590219974517822265625</LatitudeDegrees>
              <LongitudeDegrees>-5.292580761015415191650390625</LongitudeDegrees>
            </Position>
            <AltitudeMeters>27.200000762939453125</AltitudeMeters>
            <DistanceMeters>NAN</DistanceMeters>
          </Trackpoint>
          <Trackpoint>
            <Time>2022-07-17T11:45:10.000Z</Time>
            <Position>
              <LatitudeDegrees>43.4839720465242862701416015625</LatitudeDegrees>
              <LongitudeDegrees>-5.2926131151616573333740234375</LongitudeDegrees>
            </Position>
            <AltitudeMeters>27.200000762939453125</AltitudeMeters>
            <DistanceMeters>NAN</DistanceMeters>
          </Trackpoint>
          <Trackpoint>
            <Time>2022-07-17T11:45:13.000Z</Time>
            <Position>
              <LatitudeDegrees>43.48396341316401958465576171875</LatitudeDegrees>
              <LongitudeDegrees>-5.29272501356899738311767578125</LongitudeDegrees>
            </Position>
            <AltitudeMeters>27.200000762939453125</AltitudeMeters>
            <DistanceMeters>NAN</DistanceMeters>
          </Trackpoint>
          <Trackpoint>
            <Time>2022-07-17T11:45:17.000Z</Time>
            <Position>
              <LatitudeDegrees>43.4839522652328014373779296875</LatitudeDegrees>
              <LongitudeDegrees>-5.292881168425083160400390625</LongitudeDegrees>
            </Position>
            <AltitudeMeters>27.200000762939453125</AltitudeMeters>
            <DistanceMeters>NAN</DistanceMeters>
          </Trackpoint>
          <Trackpoint>
            <Time>2022-07-17T11:45:25.000Z</Time>
            <Position>
              <LatitudeDegrees>43.48395821638405323028564453125</LatitudeDegrees>
              <LongitudeDegrees>-5.2932236529886722564697265625</LongitudeDegrees>
            </Position>
            <AltitudeMeters>27.200000762939453125</AltitudeMeters>
            <DistanceMeters>NAN</DistanceMeters>
          </Trackpoint>
          <Trackpoint>
            <Time>2022-07-17T11:45:32.000Z</Time>
            <Position>
              <LatitudeDegrees>43.48397783003747463226318359375</LatitudeDegrees>
              <LongitudeDegrees>-5.293543674051761627197265625</LongitudeDegrees>
            </Position>
            <AltitudeMeters>27.200000762939453125</AltitudeMeters>
            <DistanceMeters>NAN</DistanceMeters>
          </Trackpoint>
          <Trackpoint>
            <Time>2022-07-17T11:45:34.000Z</Time>
            <Position>
              <LatitudeDegrees>43.4839851222932338714599609375</LatitudeDegrees>
              <LongitudeDegrees>-5.2936206199228763580322265625</LongitudeDegrees>
            </Position>
            <AltitudeMeters>27.200000762939453125</AltitudeMeters>
            <DistanceMeters>NAN</DistanceMeters>
          </Trackpoint>
          <Trackpoint>
            <Time>2022-07-17T11:45:40.000Z</Time>
            <Position>
              <LatitudeDegrees>43.484017811715602874755859375</LatitudeDegrees>
              <LongitudeDegrees>-5.29388288967311382293701171875</LongitudeDegrees>
            </Position>
            <AltitudeMeters>27.3999996185302734375</AltitudeMeters>
            <DistanceMeters>NAN</DistanceMeters>
          </Trackpoint>
          <Trackpoint>
            <Time>2022-07-17T11:45:43.000Z</Time>
            <Position>
              <LatitudeDegrees>43.48402393050491809844970703125</LatitudeDegrees>
              <LongitudeDegrees>-5.2939951233565807342529296875</LongitudeDegrees>
            </Position>
            <AltitudeMeters>27.6000003814697265625</AltitudeMeters>
            <DistanceMeters>NAN</DistanceMeters>
          </Trackpoint>
          <Trackpoint>
            <Time>2022-07-17T11:45:52.000Z</Time>
            <Position>
              <LatitudeDegrees>43.48406785167753696441650390625</LatitudeDegrees>
              <LongitudeDegrees>-5.294391252100467681884765625</LongitudeDegrees>
            </Position>
            <AltitudeMeters>28.200000762939453125</AltitudeMeters>
            <DistanceMeters>NAN</DistanceMeters>
          </Trackpoint>
          <Trackpoint>
            <Time>2022-07-17T11:45:53.000Z</Time>
            <Position>
              <LatitudeDegrees>43.4840731322765350341796875</LatitudeDegrees>
              <LongitudeDegrees>-5.2944356761872768402099609375</LongitudeDegrees>
            </Position>
            <AltitudeMeters>28.3999996185302734375</AltitudeMeters>
            <DistanceMeters>NAN</DistanceMeters>
          </Trackpoint>
          <Trackpoint>
            <Time>2022-07-17T11:45:55.000Z</Time>
            <Position>
              <LatitudeDegrees>43.484081514179706573486328125</LatitudeDegrees>
              <LongitudeDegrees>-5.29452209360897541046142578125</LongitudeDegrees>
            </Position>
            <AltitudeMeters>28.3999996185302734375</AltitudeMeters>
            <DistanceMeters>NAN</DistanceMeters>
          </Trackpoint>
          <Trackpoint>
            <Time>2022-07-17T11:45:57.000Z</Time>
            <Position>
              <LatitudeDegrees>43.4840940870344638824462890625</LatitudeDegrees>
              <LongitudeDegrees>-5.29459350742399692535400390625</LongitudeDegrees>
            </Position>
            <AltitudeMeters>28.6000003814697265625</AltitudeMeters>
            <DistanceMeters>NAN</DistanceMeters>
          </Trackpoint>
          <Trackpoint>
            <Time>2022-07-17T11:45:59.000Z</Time>
            <Position>
              <LatitudeDegrees>43.48409635014832019805908203125</LatitudeDegrees>
              <LongitudeDegrees>-5.294670872390270233154296875</LongitudeDegrees>
            </Position>
            <AltitudeMeters>28.3999996185302734375</AltitudeMeters>
            <DistanceMeters>NAN</DistanceMeters>
          </Trackpoint>
          <Trackpoint>
            <Time>2022-07-17T11:46:00.000Z</Time>
            <Position>
              <LatitudeDegrees>43.48409785889089107513427734375</LatitudeDegrees>
              <LongitudeDegrees>-5.29471345245838165283203125</LongitudeDegrees>
            </Position>
            <AltitudeMeters>28.200000762939453125</AltitudeMeters>
            <DistanceMeters>NAN</DistanceMeters>
          </Trackpoint>
          <Trackpoint>
            <Time>2022-07-17T11:46:06.000Z</Time>
            <Position>
              <LatitudeDegrees>43.48412786610424518585205078125</LatitudeDegrees>
              <LongitudeDegrees>-5.2949841879308223724365234375</LongitudeDegrees>
            </Position>
            <AltitudeMeters>28.799999237060546875</AltitudeMeters>
            <DistanceMeters>NAN</DistanceMeters>
          </Trackpoint>
          <Trackpoint>
            <Time>2022-07-17T11:46:07.000Z</Time>
            <Position>
              <LatitudeDegrees>43.48413406871259212493896484375</LatitudeDegrees>
              <LongitudeDegrees>-5.29502953402698040008544921875</LongitudeDegrees>
            </Position>
            <AltitudeMeters>28.799999237060546875</AltitudeMeters>
            <DistanceMeters>NAN</DistanceMeters>
          </Trackpoint>
          <Trackpoint>
            <Time>2022-07-17T11:46:14.000Z</Time>
            <Position>
              <LatitudeDegrees>43.48416474647819995880126953125</LatitudeDegrees>
              <LongitudeDegrees>-5.2953640557825565338134765625</LongitudeDegrees>
            </Position>
            <AltitudeMeters>29.200000762939453125</AltitudeMeters>
            <DistanceMeters>NAN</DistanceMeters>
          </Trackpoint>
          <Trackpoint>
            <Time>2022-07-17T11:46:17.000Z</Time>
            <Position>
              <LatitudeDegrees>43.4841785766184329986572265625</LatitudeDegrees>
              <LongitudeDegrees>-5.29548567719757556915283203125</LongitudeDegrees>
            </Position>
            <AltitudeMeters>29.3999996185302734375</AltitudeMeters>
            <DistanceMeters>NAN</DistanceMeters>
          </Trackpoint>
          <Trackpoint>
            <Time>2022-07-17T11:46:18.000Z</Time>
            <Position>
              <LatitudeDegrees>43.484183438122272491455078125</LatitudeDegrees>
              <LongitudeDegrees>-5.29552943073213100433349609375</LongitudeDegrees>
            </Position>
            <AltitudeMeters>29.3999996185302734375</AltitudeMeters>
            <DistanceMeters>NAN</DistanceMeters>
          </Trackpoint>
          <Trackpoint>
            <Time>2022-07-17T11:46:24.000Z</Time>
            <Position>
              <LatitudeDegrees>43.484210930764675140380859375</LatitudeDegrees>
              <LongitudeDegrees>-5.2957968972623348236083984375</LongitudeDegrees>
            </Position>
            <AltitudeMeters>29.6000003814697265625</AltitudeMeters>
            <DistanceMeters>NAN</DistanceMeters>
          </Trackpoint>
          <Trackpoint>
            <Time>2022-07-17T11:46:27.000Z</Time>
            <Position>
              <LatitudeDegrees>43.48422358743846416473388671875</LatitudeDegrees>
              <LongitudeDegrees>-5.29591918922960758209228515625</LongitudeDegrees>
            </Position>
            <AltitudeMeters>29.6000003814697265625</AltitudeMeters>
            <DistanceMeters>NAN</DistanceMeters>
          </Trackpoint>
          <Trackpoint>
            <Time>2022-07-17T11:46:36.000Z</Time>
            <Position>
              <LatitudeDegrees>43.48427002318203449249267578125</LatitudeDegrees>
              <LongitudeDegrees>-5.29630341567099094390869140625</LongitudeDegrees>
            </Position>
            <AltitudeMeters>29.799999237060546875</AltitudeMeters>
            <DistanceMeters>NAN</DistanceMeters>
          </Trackpoint>
          <Trackpoint>
            <Time>2022-07-17T11:46:45.000Z</Time>
            <Position>
              <LatitudeDegrees>43.484267257153987884521484375</LatitudeDegrees>
              <LongitudeDegrees>-5.2967209182679653167724609375</LongitudeDegrees>
            </Position>
            <AltitudeMeters>30</AltitudeMeters>
            <DistanceMeters>NAN</DistanceMeters>
          </Trackpoint>
          <Trackpoint>
            <Time>2022-07-17T11:46:48.000Z</Time>
            <Position>
              <LatitudeDegrees>43.484249822795391082763671875</LatitudeDegrees>
              <LongitudeDegrees>-5.296855531632900238037109375</LongitudeDegrees>
            </Position>
            <AltitudeMeters>30</AltitudeMeters>
            <DistanceMeters>NAN</DistanceMeters>
          </Trackpoint>
          <Trackpoint>
            <Time>2022-07-17T11:46:54.000Z</Time>
            <Position>
              <LatitudeDegrees>43.4842206537723541259765625</LatitudeDegrees>
              <LongitudeDegrees>-5.2971334755420684814453125</LongitudeDegrees>
            </Position>
            <AltitudeMeters>30.200000762939453125</AltitudeMeters>
            <DistanceMeters>NAN</DistanceMeters>
          </Trackpoint>
          <Trackpoint>
            <Time>2022-07-17T11:46:56.000Z</Time>
            <Position>
              <LatitudeDegrees>43.48421788774430751800537109375</LatitudeDegrees>
              <LongitudeDegrees>-5.29722358100116252899169921875</LongitudeDegrees>
            </Position>
            <AltitudeMeters>30.3999996185302734375</AltitudeMeters>
            <DistanceMeters>NAN</DistanceMeters>
          </Trackpoint>
          <Trackpoint>
            <Time>2022-07-17T11:47:01.000Z</Time>
            <Position>
              <LatitudeDegrees>43.48421453498303890228271484375</LatitudeDegrees>
              <LongitudeDegrees>-5.29744905419647693634033203125</LongitudeDegrees>
            </Position>
            <AltitudeMeters>30.3999996185302734375</AltitudeMeters>
            <DistanceMeters>NAN</DistanceMeters>
          </Trackpoint>
          <Trackpoint>
            <Time>2022-07-17T11:47:02.000Z</Time>
            <Position>
              <LatitudeDegrees>43.48421461880207061767578125</LatitudeDegrees>
              <LongitudeDegrees>-5.29748576693236827850341796875</LongitudeDegrees>
            </Position>
            <AltitudeMeters>30.200000762939453125</AltitudeMeters>
            <DistanceMeters>NAN</DistanceMeters>
          </Trackpoint>
          <Trackpoint>
            <Time>2022-07-17T11:47:07.000Z</Time>
            <Position>
              <LatitudeDegrees>43.4842017106711864471435546875</LatitudeDegrees>
              <LongitudeDegrees>-5.29756170697510242462158203125</LongitudeDegrees>
            </Position>
            <AltitudeMeters>30</AltitudeMeters>
            <DistanceMeters>NAN</DistanceMeters>
          </Trackpoint>
          <Trackpoint>
            <Time>2022-07-17T11:47:09.000Z</Time>
            <Position>
              <LatitudeDegrees>43.484178744256496429443359375</LatitudeDegrees>
              <LongitudeDegrees>-5.29757210053503513336181640625</LongitudeDegrees>
            </Position>
            <AltitudeMeters>30</AltitudeMeters>
            <DistanceMeters>NAN</DistanceMeters>
          </Trackpoint>
          <Trackpoint>
            <Time>2022-07-17T11:47:11.000Z</Time>
            <Position>
              <LatitudeDegrees>43.48412903957068920135498046875</LatitudeDegrees>
              <LongitudeDegrees>-5.29759682714939117431640625</LongitudeDegrees>
            </Position>
            <AltitudeMeters>30</AltitudeMeters>
            <DistanceMeters>NAN</DistanceMeters>
          </Trackpoint>
          <Trackpoint>
            <Time>2022-07-17T11:47:16.000Z</Time>
            <Position>
              <LatitudeDegrees>43.48396190442144870758056640625</LatitudeDegrees>
              <LongitudeDegrees>-5.297764800488948822021484375</LongitudeDegrees>
            </Position>
            <AltitudeMeters>29.6000003814697265625</AltitudeMeters>
            <DistanceMeters>NAN</DistanceMeters>
          </Trackpoint>
          <Trackpoint>
            <Time>2022-07-17T11:47:18.000Z</Time>
            <Position>
              <LatitudeDegrees>43.483867943286895751953125</LatitudeDegrees>
              <LongitudeDegrees>-5.29786161147058010101318359375</LongitudeDegrees>
            </Position>
            <AltitudeMeters>29.3999996185302734375</AltitudeMeters>
            <DistanceMeters>NAN</DistanceMeters>
          </Trackpoint>
          <Trackpoint>
            <Time>2022-07-17T11:47:20.000Z</Time>
            <Position>
              <LatitudeDegrees>43.4837658517062664031982421875</LatitudeDegrees>
              <LongitudeDegrees>-5.29796470887959003448486328125</LongitudeDegrees>
            </Position>
            <AltitudeMeters>28.6000003814697265625</AltitudeMeters>
            <DistanceMeters>NAN</DistanceMeters>
          </Trackpoint>
          <Trackpoint>
            <Time>2022-07-17T11:47:21.000Z</Time>
            <Position>
              <LatitudeDegrees>43.483708016574382781982421875</LatitudeDegrees>
              <LongitudeDegrees>-5.29802304692566394805908203125</LongitudeDegrees>
            </Position>
            <AltitudeMeters>28.3999996185302734375</AltitudeMeters>
            <DistanceMeters>NAN</DistanceMeters>
          </Trackpoint>
          <Trackpoint>
            <Time>2022-07-17T11:47:22.000Z</Time>
            <Position>
              <LatitudeDegrees>43.48363685421645641326904296875</LatitudeDegrees>
              <LongitudeDegrees>-5.2980905212461948394775390625</LongitudeDegrees>
            </Position>
            <AltitudeMeters>27.799999237060546875</AltitudeMeters>
            <DistanceMeters>NAN</DistanceMeters>
          </Trackpoint>
          <Trackpoint>
            <Time>2022-07-17T11:47:23.000Z</Time>
            <Position>
              <LatitudeDegrees>43.48357382230460643768310546875</LatitudeDegrees>
              <LongitudeDegrees>-5.298135615885257720947265625</LongitudeDegrees>
            </Position>
            <AltitudeMeters>27.3999996185302734375</AltitudeMeters>
            <DistanceMeters>NAN</DistanceMeters>
          </Trackpoint>
          <Trackpoint>
            <Time>2022-07-17T11:47:25.000Z</Time>
            <Position>
              <LatitudeDegrees>43.48344122059643268585205078125</LatitudeDegrees>
              <LongitudeDegrees>-5.2981914393603801727294921875</LongitudeDegrees>
            </Position>
            <AltitudeMeters>27</AltitudeMeters>
            <DistanceMeters>NAN</DistanceMeters>
          </Trackpoint>
          <Trackpoint>
            <Time>2022-07-17T11:47:26.000Z</Time>
            <Position>
              <LatitudeDegrees>43.48334499634802341461181640625</LatitudeDegrees>
              <LongitudeDegrees>-5.298207700252532958984375</LongitudeDegrees>
            </Position>
            <AltitudeMeters>26.3999996185302734375</AltitudeMeters>
            <DistanceMeters>NAN</DistanceMeters>
          </Trackpoint>
          <Trackpoint>
            <Time>2022-07-17T11:47:27.000Z</Time>
            <Position>
              <LatitudeDegrees>43.483261764049530029296875</LatitudeDegrees>
              <LongitudeDegrees>-5.29820501804351806640625</LongitudeDegrees>
            </Position>
            <AltitudeMeters>26</AltitudeMeters>
            <DistanceMeters>NAN</DistanceMeters>
          </Trackpoint>
          <Trackpoint>
            <Time>2022-07-17T11:47:28.000Z</Time>
            <Position>
              <LatitudeDegrees>43.4831772744655609130859375</LatitudeDegrees>
              <LongitudeDegrees>-5.298191942274570465087890625</LongitudeDegrees>
            </Position>
            <AltitudeMeters>25.6000003814697265625</AltitudeMeters>
            <DistanceMeters>NAN</DistanceMeters>
          </Trackpoint>
          <Trackpoint>
            <Time>2022-07-17T11:47:29.000Z</Time>
            <Position>
              <LatitudeDegrees>43.4831056930124759674072265625</LatitudeDegrees>
              <LongitudeDegrees>-5.29817492701113224029541015625</LongitudeDegrees>
            </Position>
            <AltitudeMeters>25.200000762939453125</AltitudeMeters>
            <DistanceMeters>NAN</DistanceMeters>
          </Trackpoint>
          <Trackpoint>
            <Time>2022-07-17T11:47:30.000Z</Time>
            <Position>
              <LatitudeDegrees>43.48300519399344921112060546875</LatitudeDegrees>
              <LongitudeDegrees>-5.29815698973834514617919921875</LongitudeDegrees>
            </Position>
            <AltitudeMeters>24.799999237060546875</AltitudeMeters>
            <DistanceMeters>NAN</DistanceMeters>
          </Trackpoint>
          <Trackpoint>
            <Time>2022-07-17T11:47:32.000Z</Time>
            <Position>
              <LatitudeDegrees>43.48283939994871616363525390625</LatitudeDegrees>
              <LongitudeDegrees>-5.29816654510796070098876953125</LongitudeDegrees>
            </Position>
            <AltitudeMeters>24</AltitudeMeters>
            <DistanceMeters>NAN</DistanceMeters>
          </Trackpoint>
          <Trackpoint>
            <Time>2022-07-17T11:47:34.000Z</Time>
            <Position>
              <LatitudeDegrees>43.4827057085931301116943359375</LatitudeDegrees>
              <LongitudeDegrees>-5.29822253622114658355712890625</LongitudeDegrees>
            </Position>
            <AltitudeMeters>23.3999996185302734375</AltitudeMeters>
            <DistanceMeters>NAN</DistanceMeters>
          </Trackpoint>
          <Trackpoint>
            <Time>2022-07-17T11:47:35.000Z</Time>
            <Position>
              <LatitudeDegrees>43.482642509043216705322265625</LatitudeDegrees>
              <LongitudeDegrees>-5.29826746322214603424072265625</LongitudeDegrees>
            </Position>
            <AltitudeMeters>23.200000762939453125</AltitudeMeters>
            <DistanceMeters>NAN</DistanceMeters>
          </Trackpoint>
          <Trackpoint>
            <Time>2022-07-17T11:47:36.000Z</Time>
            <Position>
              <LatitudeDegrees>43.48258861340582370758056640625</LatitudeDegrees>
              <LongitudeDegrees>-5.2983221970498561859130859375</LongitudeDegrees>
            </Position>
            <AltitudeMeters>23</AltitudeMeters>
            <DistanceMeters>NAN</DistanceMeters>
          </Trackpoint>
          <Trackpoint>
            <Time>2022-07-17T11:47:37.000Z</Time>
            <Position>
              <LatitudeDegrees>43.4825353883206844329833984375</LatitudeDegrees>
              <LongitudeDegrees>-5.29839201830327510833740234375</LongitudeDegrees>
            </Position>
            <AltitudeMeters>22.799999237060546875</AltitudeMeters>
            <DistanceMeters>NAN</DistanceMeters>
          </Trackpoint>
          <Trackpoint>
            <Time>2022-07-17T11:47:38.000Z</Time>
            <Position>
              <LatitudeDegrees>43.48250529728829860687255859375</LatitudeDegrees>
              <LongitudeDegrees>-5.29845840297639369964599609375</LongitudeDegrees>
            </Position>
            <AltitudeMeters>22.6000003814697265625</AltitudeMeters>
            <DistanceMeters>NAN</DistanceMeters>
          </Trackpoint>
          <Trackpoint>
            <Time>2022-07-17T11:47:39.000Z</Time>
            <Position>
              <LatitudeDegrees>43.48249129951000213623046875</LatitudeDegrees>
              <LongitudeDegrees>-5.29851774685084819793701171875</LongitudeDegrees>
            </Position>
            <AltitudeMeters>22.6000003814697265625</AltitudeMeters>
            <DistanceMeters>NAN</DistanceMeters>
          </Trackpoint>
          <Trackpoint>
            <Time>2022-07-17T11:47:41.000Z</Time>
            <Position>
              <LatitudeDegrees>43.4824824146926403045654296875</LatitudeDegrees>
              <LongitudeDegrees>-5.2986635081470012664794921875</LongitudeDegrees>
            </Position>
            <AltitudeMeters>22.3999996185302734375</AltitudeMeters>
            <DistanceMeters>NAN</DistanceMeters>
          </Trackpoint>
          <Trackpoint>
            <Time>2022-07-17T11:47:42.000Z</Time>
            <Position>
              <LatitudeDegrees>43.48248585127294063568115234375</LatitudeDegrees>
              <LongitudeDegrees>-5.29873215593397617340087890625</LongitudeDegrees>
            </Position>
            <AltitudeMeters>22.3999996185302734375</AltitudeMeters>
            <DistanceMeters>NAN</DistanceMeters>
          </Trackpoint>
          <Trackpoint>
            <Time>2022-07-17T11:47:47.000Z</Time>
            <Position>
              <LatitudeDegrees>43.482505045831203460693359375</LatitudeDegrees>
              <LongitudeDegrees>-5.2990400232374668121337890625</LongitudeDegrees>
            </Position>
            <AltitudeMeters>22.3999996185302734375</AltitudeMeters>
            <DistanceMeters>NAN</DistanceMeters>
          </Trackpoint>
          <Trackpoint>
            <Time>2022-07-17T11:47:53.000Z</Time>
            <Position>
              <LatitudeDegrees>43.48246456123888492584228515625</LatitudeDegrees>
              <LongitudeDegrees>-5.2992908097803592681884765625</LongitudeDegrees>
            </Position>
            <AltitudeMeters>22.6000003814697265625</AltitudeMeters>
            <DistanceMeters>NAN</DistanceMeters>
          </Trackpoint>
          <Trackpoint>
            <Time>2022-07-17T11:47:59.000Z</Time>
            <Position>
              <LatitudeDegrees>43.4824029542505741119384765625</LatitudeDegrees>
              <LongitudeDegrees>-5.29954100959002971649169921875</LongitudeDegrees>
            </Position>
            <AltitudeMeters>23</AltitudeMeters>
            <DistanceMeters>NAN</DistanceMeters>
          </Trackpoint>
          <Trackpoint>
            <Time>2022-07-17T11:48:03.000Z</Time>
            <Position>
              <LatitudeDegrees>43.482390381395816802978515625</LatitudeDegrees>
              <LongitudeDegrees>-5.29958828352391719818115234375</LongitudeDegrees>
            </Position>
            <AltitudeMeters>23.200000762939453125</AltitudeMeters>
            <DistanceMeters>NAN</DistanceMeters>
          </Trackpoint>
          <Trackpoint>
            <Time>2022-07-17T11:48:04.000Z</Time>
            <Position>
              <LatitudeDegrees>43.482390381395816802978515625</LatitudeDegrees>
              <LongitudeDegrees>-5.29958828352391719818115234375</LongitudeDegrees>
            </Position>
            <AltitudeMeters>23.200000762939453125</AltitudeMeters>
            <DistanceMeters>NAN</DistanceMeters>
          </Trackpoint>
          <Trackpoint>
            <Time>2022-07-17T11:49:27.000Z</Time>
            <Position>
              <LatitudeDegrees>43.4824140183627605438232421875</LatitudeDegrees>
              <LongitudeDegrees>-5.299506224691867828369140625</LongitudeDegrees>
            </Position>
            <AltitudeMeters>24.200000762939453125</AltitudeMeters>
            <DistanceMeters>NAN</DistanceMeters>
          </Trackpoint>
          <Trackpoint>
            <Time>2022-07-17T11:49:29.000Z</Time>
            <Position>
              <LatitudeDegrees>43.482441343367099761962890625</LatitudeDegrees>
              <LongitudeDegrees>-5.2994160354137420654296875</LongitudeDegrees>
            </Position>
            <AltitudeMeters>24.799999237060546875</AltitudeMeters>
            <DistanceMeters>NAN</DistanceMeters>
          </Trackpoint>
          <Trackpoint>
            <Time>2022-07-17T11:49:34.000Z</Time>
            <Position>
              <LatitudeDegrees>43.48251652903854846954345703125</LatitudeDegrees>
              <LongitudeDegrees>-5.29912744648754596710205078125</LongitudeDegrees>
            </Position>
            <AltitudeMeters>25.200000762939453125</AltitudeMeters>
            <DistanceMeters>NAN</DistanceMeters>
          </Trackpoint>
          <Trackpoint>
            <Time>2022-07-17T11:49:36.000Z</Time>
            <Position>
              <LatitudeDegrees>43.482534885406494140625</LatitudeDegrees>
              <LongitudeDegrees>-5.29900205321609973907470703125</LongitudeDegrees>
            </Position>
            <AltitudeMeters>25.3999996185302734375</AltitudeMeters>
            <DistanceMeters>NAN</DistanceMeters>
          </Trackpoint>
          <Trackpoint>
            <Time>2022-07-17T11:49:38.000Z</Time>
            <Position>
              <LatitudeDegrees>43.48254335112869739532470703125</LatitudeDegrees>
              <LongitudeDegrees>-5.2988608181476593017578125</LongitudeDegrees>
            </Position>
            <AltitudeMeters>25.3999996185302734375</AltitudeMeters>
            <DistanceMeters>NAN</DistanceMeters>
          </Trackpoint>
          <Trackpoint>
            <Time>2022-07-17T11:49:40.000Z</Time>
            <Position>
              <LatitudeDegrees>43.48254117183387279510498046875</LatitudeDegrees>
              <LongitudeDegrees>-5.29873701743781566619873046875</LongitudeDegrees>
            </Position>
            <AltitudeMeters>25.3999996185302734375</AltitudeMeters>
            <DistanceMeters>NAN</DistanceMeters>
          </Trackpoint>
          <Trackpoint>
            <Time>2022-07-17T11:49:43.000Z</Time>
            <Position>
              <LatitudeDegrees>43.4825441054999828338623046875</LatitudeDegrees>
              <LongitudeDegrees>-5.29855831526219844818115234375</LongitudeDegrees>
            </Position>
            <AltitudeMeters>25.200000762939453125</AltitudeMeters>
            <DistanceMeters>NAN</DistanceMeters>
          </Trackpoint>
          <Trackpoint>
            <Time>2022-07-17T11:49:45.000Z</Time>
            <Position>
              <LatitudeDegrees>43.48256614990532398223876953125</LatitudeDegrees>
              <LongitudeDegrees>-5.29844549484550952911376953125</LongitudeDegrees>
            </Position>
            <AltitudeMeters>25.200000762939453125</AltitudeMeters>
            <DistanceMeters>NAN</DistanceMeters>
          </Trackpoint>
          <Trackpoint>
            <Time>2022-07-17T11:49:46.000Z</Time>
            <Position>
              <LatitudeDegrees>43.48258115351200103759765625</LatitudeDegrees>
              <LongitudeDegrees>-5.29839034192264080047607421875</LongitudeDegrees>
            </Position>
            <AltitudeMeters>25.200000762939453125</AltitudeMeters>
            <DistanceMeters>NAN</DistanceMeters>
          </Trackpoint>
          <Trackpoint>
            <Time>2022-07-17T11:49:47.000Z</Time>
            <Position>
              <LatitudeDegrees>43.48259481601417064666748046875</LatitudeDegrees>
              <LongitudeDegrees>-5.29834742657840251922607421875</LongitudeDegrees>
            </Position>
            <AltitudeMeters>25.200000762939453125</AltitudeMeters>
            <DistanceMeters>NAN</DistanceMeters>
          </Trackpoint>
          <Trackpoint>
            <Time>2022-07-17T11:49:48.000Z</Time>
            <Position>
              <LatitudeDegrees>43.482622392475605010986328125</LatitudeDegrees>
              <LongitudeDegrees>-5.2982930280268192291259765625</LongitudeDegrees>
            </Position>
            <AltitudeMeters>25.200000762939453125</AltitudeMeters>
            <DistanceMeters>NAN</DistanceMeters>
          </Trackpoint>
          <Trackpoint>
            <Time>2022-07-17T11:49:49.000Z</Time>
            <Position>
              <LatitudeDegrees>43.48264980129897594451904296875</LatitudeDegrees>
              <LongitudeDegrees>-5.29825807549059391021728515625</LongitudeDegrees>
            </Position>
            <AltitudeMeters>25.200000762939453125</AltitudeMeters>
            <DistanceMeters>NAN</DistanceMeters>
          </Trackpoint>
          <Trackpoint>
            <Time>2022-07-17T11:49:50.000Z</Time>
            <Position>
              <LatitudeDegrees>43.48267511464655399322509765625</LatitudeDegrees>
              <LongitudeDegrees>-5.298232175409793853759765625</LongitudeDegrees>
            </Position>
            <AltitudeMeters>25.200000762939453125</AltitudeMeters>
            <DistanceMeters>NAN</DistanceMeters>
          </Trackpoint>
          <Trackpoint>
            <Time>2022-07-17T11:49:51.000Z</Time>
            <Position>
              <LatitudeDegrees>43.48271568305790424346923828125</LatitudeDegrees>
              <LongitudeDegrees>-5.29819571413099765777587890625</LongitudeDegrees>
            </Position>
            <AltitudeMeters>25.200000762939453125</AltitudeMeters>
            <DistanceMeters>NAN</DistanceMeters>
          </Trackpoint>
          <Trackpoint>
            <Time>2022-07-17T11:49:52.000Z</Time>
            <Position>
              <LatitudeDegrees>43.482751138508319854736328125</LatitudeDegrees>
              <LongitudeDegrees>-5.2981696464121341705322265625</LongitudeDegrees>
            </Position>
            <AltitudeMeters>25.200000762939453125</AltitudeMeters>
            <DistanceMeters>NAN</DistanceMeters>
          </Trackpoint>
          <Trackpoint>
            <Time>2022-07-17T11:49:53.000Z</Time>
            <Position>
              <LatitudeDegrees>43.482788018882274627685546875</LatitudeDegrees>
              <LongitudeDegrees>-5.2981505356729030609130859375</LongitudeDegrees>
            </Position>
            <AltitudeMeters>25.200000762939453125</AltitudeMeters>
            <DistanceMeters>NAN</DistanceMeters>
          </Trackpoint>
          <Trackpoint>
            <Time>2022-07-17T11:49:55.000Z</Time>
            <Position>
              <LatitudeDegrees>43.48286789841949939727783203125</LatitudeDegrees>
              <LongitudeDegrees>-5.29812815599143505096435546875</LongitudeDegrees>
            </Position>
            <AltitudeMeters>25.200000762939453125</AltitudeMeters>
            <DistanceMeters>NAN</DistanceMeters>
          </Trackpoint>
          <Trackpoint>
            <Time>2022-07-17T11:49:59.000Z</Time>
            <Position>
              <LatitudeDegrees>43.48301558755338191986083984375</LatitudeDegrees>
              <LongitudeDegrees>-5.29811776243150234222412109375</LongitudeDegrees>
            </Position>
            <AltitudeMeters>25.200000762939453125</AltitudeMeters>
            <DistanceMeters>NAN</DistanceMeters>
          </Trackpoint>
          <Trackpoint>
            <Time>2022-07-17T11:50:05.000Z</Time>
            <Position>
              <LatitudeDegrees>43.48320568911731243133544921875</LatitudeDegrees>
              <LongitudeDegrees>-5.298172496259212493896484375</LongitudeDegrees>
            </Position>
            <AltitudeMeters>25.3999996185302734375</AltitudeMeters>
            <DistanceMeters>NAN</DistanceMeters>
          </Trackpoint>
          <Trackpoint>
            <Time>2022-07-17T11:50:11.000Z</Time>
            <Position>
              <LatitudeDegrees>43.48335765302181243896484375</LatitudeDegrees>
              <LongitudeDegrees>-5.2982135675847530364990234375</LongitudeDegrees>
            </Position>
            <AltitudeMeters>26.200000762939453125</AltitudeMeters>
            <DistanceMeters>NAN</DistanceMeters>
          </Trackpoint>
          <Trackpoint>
            <Time>2022-07-17T11:50:12.000Z</Time>
            <Position>
              <LatitudeDegrees>43.4833776019513607025146484375</LatitudeDegrees>
              <LongitudeDegrees>-5.29821507632732391357421875</LongitudeDegrees>
            </Position>
            <AltitudeMeters>26.200000762939453125</AltitudeMeters>
            <DistanceMeters>NAN</DistanceMeters>
          </Trackpoint>
          <Trackpoint>
            <Time>2022-07-17T11:50:19.000Z</Time>
            <Position>
              <LatitudeDegrees>43.48349955864250659942626953125</LatitudeDegrees>
              <LongitudeDegrees>-5.29820627532899379730224609375</LongitudeDegrees>
            </Position>
            <AltitudeMeters>27.200000762939453125</AltitudeMeters>
            <DistanceMeters>NAN</DistanceMeters>
          </Trackpoint>
          <Trackpoint>
            <Time>2022-07-17T11:50:20.000Z</Time>
            <Position>
              <LatitudeDegrees>43.483513556420803070068359375</LatitudeDegrees>
              <LongitudeDegrees>-5.29820594005286693572998046875</LongitudeDegrees>
            </Position>
            <AltitudeMeters>27.3999996185302734375</AltitudeMeters>
            <DistanceMeters>NAN</DistanceMeters>
          </Trackpoint>
          <Trackpoint>
            <Time>2022-07-17T11:50:26.000Z</Time>
            <Position>
              <LatitudeDegrees>43.48362998105585575103759765625</LatitudeDegrees>
              <LongitudeDegrees>-5.29824097640812397003173828125</LongitudeDegrees>
            </Position>
            <AltitudeMeters>27.799999237060546875</AltitudeMeters>
            <DistanceMeters>NAN</DistanceMeters>
          </Trackpoint>
          <Trackpoint>
            <Time>2022-07-17T11:50:31.000Z</Time>
            <Position>
              <LatitudeDegrees>43.48371782340109348297119140625</LatitudeDegrees>
              <LongitudeDegrees>-5.29824047349393367767333984375</LongitudeDegrees>
            </Position>
            <AltitudeMeters>28.6000003814697265625</AltitudeMeters>
            <DistanceMeters>NAN</DistanceMeters>
          </Trackpoint>
          <Trackpoint>
            <Time>2022-07-17T11:50:32.000Z</Time>
            <Position>
              <LatitudeDegrees>43.4837383590638637542724609375</LatitudeDegrees>
              <LongitudeDegrees>-5.29824030585587024688720703125</LongitudeDegrees>
            </Position>
            <AltitudeMeters>28.6000003814697265625</AltitudeMeters>
            <DistanceMeters>NAN</DistanceMeters>
          </Trackpoint>
          <Trackpoint>
            <Time>2022-07-17T11:50:37.000Z</Time>
            <Position>
              <LatitudeDegrees>43.4837990440428256988525390625</LatitudeDegrees>
              <LongitudeDegrees>-5.298243574798107147216796875</LongitudeDegrees>
            </Position>
            <AltitudeMeters>29.6000003814697265625</AltitudeMeters>
            <DistanceMeters>NAN</DistanceMeters>
          </Trackpoint>
          <Trackpoint>
            <Time>2022-07-17T11:50:39.000Z</Time>
            <Position>
              <LatitudeDegrees>43.4838148020207881927490234375</LatitudeDegrees>
              <LongitudeDegrees>-5.2982400543987751007080078125</LongitudeDegrees>
            </Position>
            <AltitudeMeters>30</AltitudeMeters>
            <DistanceMeters>NAN</DistanceMeters>
          </Trackpoint>
          <Trackpoint>
            <Time>2022-07-17T11:50:41.000Z</Time>
            <Position>
              <LatitudeDegrees>43.48384807817637920379638671875</LatitudeDegrees>
              <LongitudeDegrees>-5.2982336841523647308349609375</LongitudeDegrees>
            </Position>
            <AltitudeMeters>30.3999996185302734375</AltitudeMeters>
            <DistanceMeters>NAN</DistanceMeters>
          </Trackpoint>
          <Trackpoint>
            <Time>2022-07-17T11:50:42.000Z</Time>
            <Position>
              <LatitudeDegrees>43.48386635072529315948486328125</LatitudeDegrees>
              <LongitudeDegrees>-5.2982304990291595458984375</LongitudeDegrees>
            </Position>
            <AltitudeMeters>30.6000003814697265625</AltitudeMeters>
            <DistanceMeters>NAN</DistanceMeters>
          </Trackpoint>
          <Trackpoint>
            <Time>2022-07-17T11:50:47.000Z</Time>
            <Position>
              <LatitudeDegrees>43.4839443862438201904296875</LatitudeDegrees>
              <LongitudeDegrees>-5.2981998212635517120361328125</LongitudeDegrees>
            </Position>
            <AltitudeMeters>31.799999237060546875</AltitudeMeters>
            <DistanceMeters>NAN</DistanceMeters>
          </Trackpoint>
          <Trackpoint>
            <Time>2022-07-17T11:50:54.000Z</Time>
            <Position>
              <LatitudeDegrees>43.48403734154999256134033203125</LatitudeDegrees>
              <LongitudeDegrees>-5.29817425645887851715087890625</LongitudeDegrees>
            </Position>
            <AltitudeMeters>32.799999237060546875</AltitudeMeters>
            <DistanceMeters>NAN</DistanceMeters>
          </Trackpoint>
          <Trackpoint>
            <Time>2022-07-17T11:50:55.000Z</Time>
            <Position>
              <LatitudeDegrees>43.48405527882277965545654296875</LatitudeDegrees>
              <LongitudeDegrees>-5.2981689758598804473876953125</LongitudeDegrees>
            </Position>
            <AltitudeMeters>33</AltitudeMeters>
            <DistanceMeters>NAN</DistanceMeters>
          </Trackpoint>
          <Trackpoint>
            <Time>2022-07-17T11:51:00.000Z</Time>
            <Position>
              <LatitudeDegrees>43.48413859494030475616455078125</LatitudeDegrees>
              <LongitudeDegrees>-5.2981642819941043853759765625</LongitudeDegrees>
            </Position>
            <AltitudeMeters>34</AltitudeMeters>
            <DistanceMeters>NAN</DistanceMeters>
          </Trackpoint>
          <Trackpoint>
            <Time>2022-07-17T11:51:04.000Z</Time>
            <Position>
              <LatitudeDegrees>43.4841963462531566619873046875</LatitudeDegrees>
              <LongitudeDegrees>-5.29816771857440471649169921875</LongitudeDegrees>
            </Position>
            <AltitudeMeters>34.59999847412109375</AltitudeMeters>
            <DistanceMeters>NAN</DistanceMeters>
          </Trackpoint>
          <Trackpoint>
            <Time>2022-07-17T11:51:07.000Z</Time>
            <Position>
              <LatitudeDegrees>43.4842198155820369720458984375</LatitudeDegrees>
              <LongitudeDegrees>-5.29819671995937824249267578125</LongitudeDegrees>
            </Position>
            <AltitudeMeters>34.59999847412109375</AltitudeMeters>
            <DistanceMeters>NAN</DistanceMeters>
          </Trackpoint>
          <Trackpoint>
            <Time>2022-07-17T11:51:09.000Z</Time>
            <Position>
              <LatitudeDegrees>43.4842191450297832489013671875</LatitudeDegrees>
              <LongitudeDegrees>-5.298261344432830810546875</LongitudeDegrees>
            </Position>
            <AltitudeMeters>34.59999847412109375</AltitudeMeters>
            <DistanceMeters>NAN</DistanceMeters>
          </Trackpoint>
          <Trackpoint>
            <Time>2022-07-17T11:51:11.000Z</Time>
            <Position>
              <LatitudeDegrees>43.48422056995332241058349609375</LatitudeDegrees>
              <LongitudeDegrees>-5.2983356080949306488037109375</LongitudeDegrees>
            </Position>
            <AltitudeMeters>34.799999237060546875</AltitudeMeters>
            <DistanceMeters>NAN</DistanceMeters>
          </Trackpoint>
          <Trackpoint>
            <Time>2022-07-17T11:51:14.000Z</Time>
            <Position>
              <LatitudeDegrees>43.48424655385315418243408203125</LatitudeDegrees>
              <LongitudeDegrees>-5.298452116549015045166015625</LongitudeDegrees>
            </Position>
            <AltitudeMeters>34.799999237060546875</AltitudeMeters>
            <DistanceMeters>NAN</DistanceMeters>
          </Trackpoint>
          <Trackpoint>
            <Time>2022-07-17T11:51:16.000Z</Time>
            <Position>
              <LatitudeDegrees>43.4842701070010662078857421875</LatitudeDegrees>
              <LongitudeDegrees>-5.29852629639208316802978515625</LongitudeDegrees>
            </Position>
            <AltitudeMeters>34.799999237060546875</AltitudeMeters>
            <DistanceMeters>NAN</DistanceMeters>
          </Trackpoint>
          <Trackpoint>
            <Time>2022-07-17T11:51:20.000Z</Time>
            <Position>
              <LatitudeDegrees>43.4843277744948863983154296875</LatitudeDegrees>
              <LongitudeDegrees>-5.29871790669858455657958984375</LongitudeDegrees>
            </Position>
            <AltitudeMeters>34.799999237060546875</AltitudeMeters>
            <DistanceMeters>NAN</DistanceMeters>
          </Trackpoint>
          <Trackpoint>
            <Time>2022-07-17T11:51:26.000Z</Time>
            <Position>
              <LatitudeDegrees>43.484421484172344207763671875</LatitudeDegrees>
              <LongitudeDegrees>-5.29903742484748363494873046875</LongitudeDegrees>
            </Position>
            <AltitudeMeters>34.59999847412109375</AltitudeMeters>
            <DistanceMeters>NAN</DistanceMeters>
          </Trackpoint>
          <Trackpoint>
            <Time>2022-07-17T11:51:31.000Z</Time>
            <Position>
              <LatitudeDegrees>43.48446532152593135833740234375</LatitudeDegrees>
              <LongitudeDegrees>-5.299274213612079620361328125</LongitudeDegrees>
            </Position>
            <AltitudeMeters>34.40000152587890625</AltitudeMeters>
            <DistanceMeters>NAN</DistanceMeters>
          </Trackpoint>
          <Trackpoint>
            <Time>2022-07-17T11:51:35.000Z</Time>
            <Position>
              <LatitudeDegrees>43.48450723104178905487060546875</LatitudeDegrees>
              <LongitudeDegrees>-5.299459286034107208251953125</LongitudeDegrees>
            </Position>
            <AltitudeMeters>34.59999847412109375</AltitudeMeters>
            <DistanceMeters>NAN</DistanceMeters>
          </Trackpoint>
          <Trackpoint>
            <Time>2022-07-17T11:51:36.000Z</Time>
            <Position>
              <LatitudeDegrees>43.48451812751591205596923828125</LatitudeDegrees>
              <LongitudeDegrees>-5.2995043806731700897216796875</LongitudeDegrees>
            </Position>
            <AltitudeMeters>34.59999847412109375</AltitudeMeters>
            <DistanceMeters>NAN</DistanceMeters>
          </Trackpoint>
          <Trackpoint>
            <Time>2022-07-17T11:51:44.000Z</Time>
            <Position>
              <LatitudeDegrees>43.48457931540906429290771484375</LatitudeDegrees>
              <LongitudeDegrees>-5.29986907728016376495361328125</LongitudeDegrees>
            </Position>
            <AltitudeMeters>34.799999237060546875</AltitudeMeters>
            <DistanceMeters>NAN</DistanceMeters>
          </Trackpoint>
          <Trackpoint>
            <Time>2022-07-17T11:51:51.000Z</Time>
            <Position>
              <LatitudeDegrees>43.4846382401883602142333984375</LatitudeDegrees>
              <LongitudeDegrees>-5.30012941919267177581787109375</LongitudeDegrees>
            </Position>
            <AltitudeMeters>34.799999237060546875</AltitudeMeters>
            <DistanceMeters>NAN</DistanceMeters>
          </Trackpoint>
          <Trackpoint>
            <Time>2022-07-17T11:51:52.000Z</Time>
            <Position>
              <LatitudeDegrees>43.48464536480605602264404296875</LatitudeDegrees>
              <LongitudeDegrees>-5.300172083079814910888671875</LongitudeDegrees>
            </Position>
            <AltitudeMeters>34.799999237060546875</AltitudeMeters>
            <DistanceMeters>NAN</DistanceMeters>
          </Trackpoint>
          <Trackpoint>
            <Time>2022-07-17T11:51:57.000Z</Time>
            <Position>
              <LatitudeDegrees>43.48468610085546970367431640625</LatitudeDegrees>
              <LongitudeDegrees>-5.300404764711856842041015625</LongitudeDegrees>
            </Position>
            <AltitudeMeters>35</AltitudeMeters>
            <DistanceMeters>NAN</DistanceMeters>
          </Trackpoint>
          <Trackpoint>
            <Time>2022-07-17T11:52:01.000Z</Time>
            <Position>
              <LatitudeDegrees>43.48470387049019336700439453125</LatitudeDegrees>
              <LongitudeDegrees>-5.3006315790116786956787109375</LongitudeDegrees>
            </Position>
            <AltitudeMeters>34.59999847412109375</AltitudeMeters>
            <DistanceMeters>NAN</DistanceMeters>
          </Trackpoint>
          <Trackpoint>
            <Time>2022-07-17T11:52:02.000Z</Time>
            <Position>
              <LatitudeDegrees>43.48471225239336490631103515625</LatitudeDegrees>
              <LongitudeDegrees>-5.30068245716392993927001953125</LongitudeDegrees>
            </Position>
            <AltitudeMeters>34.40000152587890625</AltitudeMeters>
            <DistanceMeters>NAN</DistanceMeters>
          </Trackpoint>
          <Trackpoint>
            <Time>2022-07-17T11:52:07.000Z</Time>
            <Position>
              <LatitudeDegrees>43.4847562573850154876708984375</LatitudeDegrees>
              <LongitudeDegrees>-5.30100801028311252593994140625</LongitudeDegrees>
            </Position>
            <AltitudeMeters>34.200000762939453125</AltitudeMeters>
            <DistanceMeters>NAN</DistanceMeters>
          </Trackpoint>
          <Trackpoint>
            <Time>2022-07-17T11:52:09.000Z</Time>
            <Position>
              <LatitudeDegrees>43.48476874642074108123779296875</LatitudeDegrees>
              <LongitudeDegrees>-5.301116220653057098388671875</LongitudeDegrees>
            </Position>
            <AltitudeMeters>33.799999237060546875</AltitudeMeters>
            <DistanceMeters>NAN</DistanceMeters>
          </Trackpoint>
          <Trackpoint>
            <Time>2022-07-17T11:52:13.000Z</Time>
            <Position>
              <LatitudeDegrees>43.48478794097900390625</LatitudeDegrees>
              <LongitudeDegrees>-5.3013713657855987548828125</LongitudeDegrees>
            </Position>
            <AltitudeMeters>33.40000152587890625</AltitudeMeters>
            <DistanceMeters>NAN</DistanceMeters>
          </Trackpoint>
          <Trackpoint>
            <Time>2022-07-17T11:52:16.000Z</Time>
            <Position>
              <LatitudeDegrees>43.4847968257963657379150390625</LatitudeDegrees>
              <LongitudeDegrees>-5.30156104825437068939208984375</LongitudeDegrees>
            </Position>
            <AltitudeMeters>33</AltitudeMeters>
            <DistanceMeters>NAN</DistanceMeters>
          </Trackpoint>
          <Trackpoint>
            <Time>2022-07-17T11:52:19.000Z</Time>
            <Position>
              <LatitudeDegrees>43.48481300286948680877685546875</LatitudeDegrees>
              <LongitudeDegrees>-5.301783420145511627197265625</LongitudeDegrees>
            </Position>
            <AltitudeMeters>32.59999847412109375</AltitudeMeters>
            <DistanceMeters>NAN</DistanceMeters>
          </Trackpoint>
          <Trackpoint>
            <Time>2022-07-17T11:52:25.000Z</Time>
            <Position>
              <LatitudeDegrees>43.4848625399172306060791015625</LatitudeDegrees>
              <LongitudeDegrees>-5.30218969099223613739013671875</LongitudeDegrees>
            </Position>
            <AltitudeMeters>31.799999237060546875</AltitudeMeters>
            <DistanceMeters>NAN</DistanceMeters>
          </Trackpoint>
          <Trackpoint>
            <Time>2022-07-17T11:52:26.000Z</Time>
            <Position>
              <LatitudeDegrees>43.48487301729619503021240234375</LatitudeDegrees>
              <LongitudeDegrees>-5.30225984752178192138671875</LongitudeDegrees>
            </Position>
            <AltitudeMeters>31.799999237060546875</AltitudeMeters>
            <DistanceMeters>NAN</DistanceMeters>
          </Trackpoint>
          <Trackpoint>
            <Time>2022-07-17T11:52:33.000Z</Time>
            <Position>
              <LatitudeDegrees>43.48498030565679073333740234375</LatitudeDegrees>
              <LongitudeDegrees>-5.302752368152141571044921875</LongitudeDegrees>
            </Position>
            <AltitudeMeters>31.200000762939453125</AltitudeMeters>
            <DistanceMeters>NAN</DistanceMeters>
          </Trackpoint>
          <Trackpoint>
            <Time>2022-07-17T11:52:35.000Z</Time>
            <Position>
              <LatitudeDegrees>43.48502037115395069122314453125</LatitudeDegrees>
              <LongitudeDegrees>-5.3028655238449573516845703125</LongitudeDegrees>
            </Position>
            <AltitudeMeters>31</AltitudeMeters>
            <DistanceMeters>NAN</DistanceMeters>
          </Trackpoint>
          <Trackpoint>
            <Time>2022-07-17T11:52:37.000Z</Time>
            <Position>
              <LatitudeDegrees>43.48505255766212940216064453125</LatitudeDegrees>
              <LongitudeDegrees>-5.3029744885861873626708984375</LongitudeDegrees>
            </Position>
            <AltitudeMeters>30.799999237060546875</AltitudeMeters>
            <DistanceMeters>NAN</DistanceMeters>
          </Trackpoint>
          <Trackpoint>
            <Time>2022-07-17T11:52:40.000Z</Time>
            <Position>
              <LatitudeDegrees>43.48509044386446475982666015625</LatitudeDegrees>
              <LongitudeDegrees>-5.3031112812459468841552734375</LongitudeDegrees>
            </Position>
            <AltitudeMeters>30.799999237060546875</AltitudeMeters>
            <DistanceMeters>NAN</DistanceMeters>
          </Trackpoint>
          <Trackpoint>
            <Time>2022-07-17T11:52:41.000Z</Time>
            <Position>
              <LatitudeDegrees>43.485102765262126922607421875</LatitudeDegrees>
              <LongitudeDegrees>-5.30315838754177093505859375</LongitudeDegrees>
            </Position>
            <AltitudeMeters>30.799999237060546875</AltitudeMeters>
            <DistanceMeters>NAN</DistanceMeters>
          </Trackpoint>
          <Trackpoint>
            <Time>2022-07-17T11:52:48.000Z</Time>
            <Position>
              <LatitudeDegrees>43.4851783700287342071533203125</LatitudeDegrees>
              <LongitudeDegrees>-5.30346239916980266571044921875</LongitudeDegrees>
            </Position>
            <AltitudeMeters>31</AltitudeMeters>
            <DistanceMeters>NAN</DistanceMeters>
          </Trackpoint>
          <Trackpoint>
            <Time>2022-07-17T11:52:55.000Z</Time>
            <Position>
              <LatitudeDegrees>43.48525933921337127685546875</LatitudeDegrees>
              <LongitudeDegrees>-5.303760878741741180419921875</LongitudeDegrees>
            </Position>
            <AltitudeMeters>31.200000762939453125</AltitudeMeters>
            <DistanceMeters>NAN</DistanceMeters>
          </Trackpoint>
          <Trackpoint>
            <Time>2022-07-17T11:52:56.000Z</Time>
            <Position>
              <LatitudeDegrees>43.4852752648293972015380859375</LatitudeDegrees>
              <LongitudeDegrees>-5.3038227371871471405029296875</LongitudeDegrees>
            </Position>
            <AltitudeMeters>31.200000762939453125</AltitudeMeters>
            <DistanceMeters>NAN</DistanceMeters>
          </Trackpoint>
          <Trackpoint>
            <Time>2022-07-17T11:53:01.000Z</Time>
            <Position>
              <LatitudeDegrees>43.48533452488481998443603515625</LatitudeDegrees>
              <LongitudeDegrees>-5.304057933390140533447265625</LongitudeDegrees>
            </Position>
            <AltitudeMeters>31.200000762939453125</AltitudeMeters>
            <DistanceMeters>NAN</DistanceMeters>
          </Trackpoint>
          <Trackpoint>
            <Time>2022-07-17T11:53:04.000Z</Time>
            <Position>
              <LatitudeDegrees>43.48536738194525241851806640625</LatitudeDegrees>
              <LongitudeDegrees>-5.30417989008128643035888671875</LongitudeDegrees>
            </Position>
            <AltitudeMeters>31.3999996185302734375</AltitudeMeters>
            <DistanceMeters>NAN</DistanceMeters>
          </Trackpoint>
          <Trackpoint>
            <Time>2022-07-17T11:53:13.000Z</Time>
            <Position>
              <LatitudeDegrees>43.48551624454557895660400390625</LatitudeDegrees>
              <LongitudeDegrees>-5.30455053783953189849853515625</LongitudeDegrees>
            </Position>
            <AltitudeMeters>31.200000762939453125</AltitudeMeters>
            <DistanceMeters>NAN</DistanceMeters>
          </Trackpoint>
          <Trackpoint>
            <Time>2022-07-17T11:53:17.000Z</Time>
            <Position>
              <LatitudeDegrees>43.4855870716273784637451171875</LatitudeDegrees>
              <LongitudeDegrees>-5.30467920005321502685546875</LongitudeDegrees>
            </Position>
            <AltitudeMeters>31.3999996185302734375</AltitudeMeters>
            <DistanceMeters>NAN</DistanceMeters>
          </Trackpoint>
          <Trackpoint>
            <Time>2022-07-17T11:53:20.000Z</Time>
            <Position>
              <LatitudeDegrees>43.48563577048480510711669921875</LatitudeDegrees>
              <LongitudeDegrees>-5.30477031134068965911865234375</LongitudeDegrees>
            </Position>
            <AltitudeMeters>31.6000003814697265625</AltitudeMeters>
            <DistanceMeters>NAN</DistanceMeters>
          </Trackpoint>
          <Trackpoint>
            <Time>2022-07-17T11:53:23.000Z</Time>
            <Position>
              <LatitudeDegrees>43.48567835055291652679443359375</LatitudeDegrees>
              <LongitudeDegrees>-5.30486519448459148406982421875</LongitudeDegrees>
            </Position>
            <AltitudeMeters>31.6000003814697265625</AltitudeMeters>
            <DistanceMeters>NAN</DistanceMeters>
          </Trackpoint>
          <Trackpoint>
            <Time>2022-07-17T11:53:26.000Z</Time>
            <Position>
              <LatitudeDegrees>43.485715650022029876708984375</LatitudeDegrees>
              <LongitudeDegrees>-5.30495949089527130126953125</LongitudeDegrees>
            </Position>
            <AltitudeMeters>31.6000003814697265625</AltitudeMeters>
            <DistanceMeters>NAN</DistanceMeters>
          </Trackpoint>
          <Trackpoint>
            <Time>2022-07-17T11:53:30.000Z</Time>
            <Position>
              <LatitudeDegrees>43.4857644326984882354736328125</LatitudeDegrees>
              <LongitudeDegrees>-5.3050937689840793609619140625</LongitudeDegrees>
            </Position>
            <AltitudeMeters>31.799999237060546875</AltitudeMeters>
            <DistanceMeters>NAN</DistanceMeters>
          </Trackpoint>
          <Trackpoint>
            <Time>2022-07-17T11:53:32.000Z</Time>
            <Position>
              <LatitudeDegrees>43.48579402081668376922607421875</LatitudeDegrees>
              <LongitudeDegrees>-5.30515956692397594451904296875</LongitudeDegrees>
            </Position>
            <AltitudeMeters>31.799999237060546875</AltitudeMeters>
            <DistanceMeters>NAN</DistanceMeters>
          </Trackpoint>
          <Trackpoint>
            <Time>2022-07-17T11:53:37.000Z</Time>
            <Position>
              <LatitudeDegrees>43.4858673624694347381591796875</LatitudeDegrees>
              <LongitudeDegrees>-5.305323936045169830322265625</LongitudeDegrees>
            </Position>
            <AltitudeMeters>32</AltitudeMeters>
            <DistanceMeters>NAN</DistanceMeters>
          </Trackpoint>
          <Trackpoint>
            <Time>2022-07-17T11:53:42.000Z</Time>
            <Position>
              <LatitudeDegrees>43.485946319997310638427734375</LatitudeDegrees>
              <LongitudeDegrees>-5.30547506175935268402099609375</LongitudeDegrees>
            </Position>
            <AltitudeMeters>32</AltitudeMeters>
            <DistanceMeters>NAN</DistanceMeters>
          </Trackpoint>
          <Trackpoint>
            <Time>2022-07-17T11:53:44.000Z</Time>
            <Position>
              <LatitudeDegrees>43.48597339354455471038818359375</LatitudeDegrees>
              <LongitudeDegrees>-5.3055306337773799896240234375</LongitudeDegrees>
            </Position>
            <AltitudeMeters>32.200000762939453125</AltitudeMeters>
            <DistanceMeters>NAN</DistanceMeters>
          </Trackpoint>
          <Trackpoint>
            <Time>2022-07-17T11:53:47.000Z</Time>
            <Position>
              <LatitudeDegrees>43.4860088489949703216552734375</LatitudeDegrees>
              <LongitudeDegrees>-5.30560514889657497406005859375</LongitudeDegrees>
            </Position>
            <AltitudeMeters>32.200000762939453125</AltitudeMeters>
            <DistanceMeters>NAN</DistanceMeters>
          </Trackpoint>
          <Trackpoint>
            <Time>2022-07-17T11:53:56.000Z</Time>
            <Position>
              <LatitudeDegrees>43.486134074628353118896484375</LatitudeDegrees>
              <LongitudeDegrees>-5.305857695639133453369140625</LongitudeDegrees>
            </Position>
            <AltitudeMeters>32.59999847412109375</AltitudeMeters>
            <DistanceMeters>NAN</DistanceMeters>
          </Trackpoint>
          <Trackpoint>
            <Time>2022-07-17T11:54:05.000Z</Time>
            <Position>
              <LatitudeDegrees>43.48626122809946537017822265625</LatitudeDegrees>
              <LongitudeDegrees>-5.30611594207584857940673828125</LongitudeDegrees>
            </Position>
            <AltitudeMeters>32.200000762939453125</AltitudeMeters>
            <DistanceMeters>NAN</DistanceMeters>
          </Trackpoint>
          <Trackpoint>
            <Time>2022-07-17T11:54:12.000Z</Time>
            <Position>
              <LatitudeDegrees>43.4863461367785930633544921875</LatitudeDegrees>
              <LongitudeDegrees>-5.3063088096678256988525390625</LongitudeDegrees>
            </Position>
            <AltitudeMeters>32.40000152587890625</AltitudeMeters>
            <DistanceMeters>NAN</DistanceMeters>
          </Trackpoint>
          <Trackpoint>
            <Time>2022-07-17T11:54:13.000Z</Time>
            <Position>
              <LatitudeDegrees>43.4863608889281749725341796875</LatitudeDegrees>
              <LongitudeDegrees>-5.30633538030087947845458984375</LongitudeDegrees>
            </Position>
            <AltitudeMeters>32.40000152587890625</AltitudeMeters>
            <DistanceMeters>NAN</DistanceMeters>
          </Trackpoint>
          <Trackpoint>
            <Time>2022-07-17T11:54:21.000Z</Time>
            <Position>
              <LatitudeDegrees>43.48648938350379467010498046875</LatitudeDegrees>
              <LongitudeDegrees>-5.30650846660137176513671875</LongitudeDegrees>
            </Position>
            <AltitudeMeters>32.59999847412109375</AltitudeMeters>
            <DistanceMeters>NAN</DistanceMeters>
          </Trackpoint>
          <Trackpoint>
            <Time>2022-07-17T11:54:29.000Z</Time>
            <Position>
              <LatitudeDegrees>43.48658996634185314178466796875</LatitudeDegrees>
              <LongitudeDegrees>-5.30668272636830806732177734375</LongitudeDegrees>
            </Position>
            <AltitudeMeters>32.799999237060546875</AltitudeMeters>
            <DistanceMeters>NAN</DistanceMeters>
          </Trackpoint>
          <Trackpoint>
            <Time>2022-07-17T11:54:30.000Z</Time>
            <Position>
              <LatitudeDegrees>43.4866049699485301971435546875</LatitudeDegrees>
              <LongitudeDegrees>-5.30670586042106151580810546875</LongitudeDegrees>
            </Position>
            <AltitudeMeters>32.799999237060546875</AltitudeMeters>
            <DistanceMeters>NAN</DistanceMeters>
          </Trackpoint>
          <Trackpoint>
            <Time>2022-07-17T11:54:35.000Z</Time>
            <Position>
              <LatitudeDegrees>43.48668619059026241302490234375</LatitudeDegrees>
              <LongitudeDegrees>-5.3068296611309051513671875</LongitudeDegrees>
            </Position>
            <AltitudeMeters>32.799999237060546875</AltitudeMeters>
            <DistanceMeters>NAN</DistanceMeters>
          </Trackpoint>
          <Trackpoint>
            <Time>2022-07-17T11:54:40.000Z</Time>
            <Position>
              <LatitudeDegrees>43.48677453584969043731689453125</LatitudeDegrees>
              <LongitudeDegrees>-5.30693535692989826202392578125</LongitudeDegrees>
            </Position>
            <AltitudeMeters>33.40000152587890625</AltitudeMeters>
            <DistanceMeters>NAN</DistanceMeters>
          </Trackpoint>
          <Trackpoint>
            <Time>2022-07-17T11:54:45.000Z</Time>
            <Position>
              <LatitudeDegrees>43.4868658147752285003662109375</LatitudeDegrees>
              <LongitudeDegrees>-5.30702219344675540924072265625</LongitudeDegrees>
            </Position>
            <AltitudeMeters>33.40000152587890625</AltitudeMeters>
            <DistanceMeters>NAN</DistanceMeters>
          </Trackpoint>
          <Trackpoint>
            <Time>2022-07-17T11:54:47.000Z</Time>
            <Position>
              <LatitudeDegrees>43.48689238540828227996826171875</LatitudeDegrees>
              <LongitudeDegrees>-5.30706846155226230621337890625</LongitudeDegrees>
            </Position>
            <AltitudeMeters>33.40000152587890625</AltitudeMeters>
            <DistanceMeters>NAN</DistanceMeters>
          </Trackpoint>
          <Trackpoint>
            <Time>2022-07-17T11:54:55.000Z</Time>
            <Position>
              <LatitudeDegrees>43.48703554831445217132568359375</LatitudeDegrees>
              <LongitudeDegrees>-5.30725554563105106353759765625</LongitudeDegrees>
            </Position>
            <AltitudeMeters>33.40000152587890625</AltitudeMeters>
            <DistanceMeters>NAN</DistanceMeters>
          </Trackpoint>
          <Trackpoint>
            <Time>2022-07-17T11:55:02.000Z</Time>
            <Position>
              <LatitudeDegrees>43.487190864980220794677734375</LatitudeDegrees>
              <LongitudeDegrees>-5.3074350021779537200927734375</LongitudeDegrees>
            </Position>
            <AltitudeMeters>33.200000762939453125</AltitudeMeters>
            <DistanceMeters>NAN</DistanceMeters>
          </Trackpoint>
          <Trackpoint>
            <Time>2022-07-17T11:55:03.000Z</Time>
            <Position>
              <LatitudeDegrees>43.48721156828105449676513671875</LatitudeDegrees>
              <LongitudeDegrees>-5.307461656630039215087890625</LongitudeDegrees>
            </Position>
            <AltitudeMeters>33.200000762939453125</AltitudeMeters>
            <DistanceMeters>NAN</DistanceMeters>
          </Trackpoint>
          <Trackpoint>
            <Time>2022-07-17T11:55:04.000Z</Time>
            <Position>
              <LatitudeDegrees>43.48723034374415874481201171875</LatitudeDegrees>
              <LongitudeDegrees>-5.30748906545341014862060546875</LongitudeDegrees>
            </Position>
            <AltitudeMeters>33.200000762939453125</AltitudeMeters>
            <DistanceMeters>NAN</DistanceMeters>
          </Trackpoint>
          <Trackpoint>
            <Time>2022-07-17T11:55:07.000Z</Time>
            <Position>
              <LatitudeDegrees>43.4872852452099323272705078125</LatitudeDegrees>
              <LongitudeDegrees>-5.3075553663074970245361328125</LongitudeDegrees>
            </Position>
            <AltitudeMeters>33</AltitudeMeters>
            <DistanceMeters>NAN</DistanceMeters>
          </Trackpoint>
          <Trackpoint>
            <Time>2022-07-17T11:55:08.000Z</Time>
            <Position>
              <LatitudeDegrees>43.4873067028820514678955078125</LatitudeDegrees>
              <LongitudeDegrees>-5.30758629553020000457763671875</LongitudeDegrees>
            </Position>
            <AltitudeMeters>32.799999237060546875</AltitudeMeters>
            <DistanceMeters>NAN</DistanceMeters>
          </Trackpoint>
          <Trackpoint>
            <Time>2022-07-17T11:55:12.000Z</Time>
            <Position>
              <LatitudeDegrees>43.4873677231371402740478515625</LatitudeDegrees>
              <LongitudeDegrees>-5.30765586532652378082275390625</LongitudeDegrees>
            </Position>
            <AltitudeMeters>32.799999237060546875</AltitudeMeters>
            <DistanceMeters>NAN</DistanceMeters>
          </Trackpoint>
          <Trackpoint>
            <Time>2022-07-17T11:55:14.000Z</Time>
            <Position>
              <LatitudeDegrees>43.48739664070308208465576171875</LatitudeDegrees>
              <LongitudeDegrees>-5.30768536962568759918212890625</LongitudeDegrees>
            </Position>
            <AltitudeMeters>33</AltitudeMeters>
            <DistanceMeters>NAN</DistanceMeters>
          </Trackpoint>
          <Trackpoint>
            <Time>2022-07-17T11:55:20.000Z</Time>
            <Position>
              <LatitudeDegrees>43.48750443197786808013916015625</LatitudeDegrees>
              <LongitudeDegrees>-5.30778947286307811737060546875</LongitudeDegrees>
            </Position>
            <AltitudeMeters>33</AltitudeMeters>
            <DistanceMeters>NAN</DistanceMeters>
          </Trackpoint>
          <Trackpoint>
            <Time>2022-07-17T11:55:22.000Z</Time>
            <Position>
              <LatitudeDegrees>43.48753427155315876007080078125</LatitudeDegrees>
              <LongitudeDegrees>-5.30783071182668209075927734375</LongitudeDegrees>
            </Position>
            <AltitudeMeters>33</AltitudeMeters>
            <DistanceMeters>NAN</DistanceMeters>
          </Trackpoint>
          <Trackpoint>
            <Time>2022-07-17T11:55:27.000Z</Time>
            <Position>
              <LatitudeDegrees>43.48762596957385540008544921875</LatitudeDegrees>
              <LongitudeDegrees>-5.307945795357227325439453125</LongitudeDegrees>
            </Position>
            <AltitudeMeters>33.200000762939453125</AltitudeMeters>
            <DistanceMeters>NAN</DistanceMeters>
          </Trackpoint>
          <Trackpoint>
            <Time>2022-07-17T11:55:30.000Z</Time>
            <Position>
              <LatitudeDegrees>43.4876791946589946746826171875</LatitudeDegrees>
              <LongitudeDegrees>-5.308024249970912933349609375</LongitudeDegrees>
            </Position>
            <AltitudeMeters>33.200000762939453125</AltitudeMeters>
            <DistanceMeters>NAN</DistanceMeters>
          </Trackpoint>
          <Trackpoint>
            <Time>2022-07-17T11:55:33.000Z</Time>
            <Position>
              <LatitudeDegrees>43.48771532066166400909423828125</LatitudeDegrees>
              <LongitudeDegrees>-5.30809256248176097869873046875</LongitudeDegrees>
            </Position>
            <AltitudeMeters>33.200000762939453125</AltitudeMeters>
            <DistanceMeters>NAN</DistanceMeters>
          </Trackpoint>
          <Trackpoint>
            <Time>2022-07-17T11:55:37.000Z</Time>
            <Position>
              <LatitudeDegrees>43.48778388462960720062255859375</LatitudeDegrees>
              <LongitudeDegrees>-5.30817772261798381805419921875</LongitudeDegrees>
            </Position>
            <AltitudeMeters>33.59999847412109375</AltitudeMeters>
            <DistanceMeters>NAN</DistanceMeters>
          </Trackpoint>
          <Trackpoint>
            <Time>2022-07-17T11:55:40.000Z</Time>
            <Position>
              <LatitudeDegrees>43.48783317022025585174560546875</LatitudeDegrees>
              <LongitudeDegrees>-5.30822432599961757659912109375</LongitudeDegrees>
            </Position>
            <AltitudeMeters>34</AltitudeMeters>
            <DistanceMeters>NAN</DistanceMeters>
          </Trackpoint>
          <Trackpoint>
            <Time>2022-07-17T11:55:42.000Z</Time>
            <Position>
              <LatitudeDegrees>43.48785630427300930023193359375</LatitudeDegrees>
              <LongitudeDegrees>-5.3082738630473613739013671875</LongitudeDegrees>
            </Position>
            <AltitudeMeters>34</AltitudeMeters>
            <DistanceMeters>NAN</DistanceMeters>
          </Trackpoint>
          <Trackpoint>
            <Time>2022-07-17T11:55:43.000Z</Time>
            <Position>
              <LatitudeDegrees>43.4878713078796863555908203125</LatitudeDegrees>
              <LongitudeDegrees>-5.30829473398625850677490234375</LongitudeDegrees>
            </Position>
            <AltitudeMeters>34.200000762939453125</AltitudeMeters>
            <DistanceMeters>NAN</DistanceMeters>
          </Trackpoint>
          <Trackpoint>
            <Time>2022-07-17T11:55:46.000Z</Time>
            <Position>
              <LatitudeDegrees>43.48792319186031818389892578125</LatitudeDegrees>
              <LongitudeDegrees>-5.30833831988275051116943359375</LongitudeDegrees>
            </Position>
            <AltitudeMeters>34.59999847412109375</AltitudeMeters>
            <DistanceMeters>NAN</DistanceMeters>
          </Trackpoint>
          <Trackpoint>
            <Time>2022-07-17T11:55:48.000Z</Time>
            <Position>
              <LatitudeDegrees>43.48795537836849689483642578125</LatitudeDegrees>
              <LongitudeDegrees>-5.3083610348403453826904296875</LongitudeDegrees>
            </Position>
            <AltitudeMeters>34.799999237060546875</AltitudeMeters>
            <DistanceMeters>NAN</DistanceMeters>
          </Trackpoint>
          <Trackpoint>
            <Time>2022-07-17T11:55:50.000Z</Time>
            <Position>
              <LatitudeDegrees>43.487983457744121551513671875</LatitudeDegrees>
              <LongitudeDegrees>-5.30838173814117908477783203125</LongitudeDegrees>
            </Position>
            <AltitudeMeters>35</AltitudeMeters>
            <DistanceMeters>NAN</DistanceMeters>
          </Trackpoint>
          <Trackpoint>
            <Time>2022-07-17T11:55:59.000Z</Time>
            <Position>
              <LatitudeDegrees>43.48810172639787197113037109375</LatitudeDegrees>
              <LongitudeDegrees>-5.30852674506604671478271484375</LongitudeDegrees>
            </Position>
            <AltitudeMeters>35.59999847412109375</AltitudeMeters>
            <DistanceMeters>NAN</DistanceMeters>
          </Trackpoint>
          <Trackpoint>
            <Time>2022-07-17T11:56:02.000Z</Time>
            <Position>
              <LatitudeDegrees>43.48813910968601703643798828125</LatitudeDegrees>
              <LongitudeDegrees>-5.30858189798891544342041015625</LongitudeDegrees>
            </Position>
            <AltitudeMeters>35.799999237060546875</AltitudeMeters>
            <DistanceMeters>NAN</DistanceMeters>
          </Trackpoint>
          <Trackpoint>
            <Time>2022-07-17T11:56:06.000Z</Time>
            <Position>
              <LatitudeDegrees>43.4881847910583019256591796875</LatitudeDegrees>
              <LongitudeDegrees>-5.3086473606526851654052734375</LongitudeDegrees>
            </Position>
            <AltitudeMeters>36</AltitudeMeters>
            <DistanceMeters>NAN</DistanceMeters>
          </Trackpoint>
          <Trackpoint>
            <Time>2022-07-17T11:56:08.000Z</Time>
            <Position>
              <LatitudeDegrees>43.48820733837783336639404296875</LatitudeDegrees>
              <LongitudeDegrees>-5.308677367866039276123046875</LongitudeDegrees>
            </Position>
            <AltitudeMeters>36.200000762939453125</AltitudeMeters>
            <DistanceMeters>NAN</DistanceMeters>
          </Trackpoint>
          <Trackpoint>
            <Time>2022-07-17T11:56:13.000Z</Time>
            <Position>
              <LatitudeDegrees>43.48826735280454158782958984375</LatitudeDegrees>
              <LongitudeDegrees>-5.30876713804900646209716796875</LongitudeDegrees>
            </Position>
            <AltitudeMeters>36.799999237060546875</AltitudeMeters>
            <DistanceMeters>NAN</DistanceMeters>
          </Trackpoint>
          <Trackpoint>
            <Time>2022-07-17T11:56:20.000Z</Time>
            <Position>
              <LatitudeDegrees>43.4883698634803295135498046875</LatitudeDegrees>
              <LongitudeDegrees>-5.30889286659657955169677734375</LongitudeDegrees>
            </Position>
            <AltitudeMeters>37</AltitudeMeters>
            <DistanceMeters>NAN</DistanceMeters>
          </Trackpoint>
          <Trackpoint>
            <Time>2022-07-17T11:56:23.000Z</Time>
            <Position>
              <LatitudeDegrees>43.4884156286716461181640625</LatitudeDegrees>
              <LongitudeDegrees>-5.3089403919875621795654296875</LongitudeDegrees>
            </Position>
            <AltitudeMeters>37</AltitudeMeters>
            <DistanceMeters>NAN</DistanceMeters>
          </Trackpoint>
          <Trackpoint>
            <Time>2022-07-17T11:56:29.000Z</Time>
            <Position>
              <LatitudeDegrees>43.488504476845264434814453125</LatitudeDegrees>
              <LongitudeDegrees>-5.3090399689972400665283203125</LongitudeDegrees>
            </Position>
            <AltitudeMeters>37.200000762939453125</AltitudeMeters>
            <DistanceMeters>NAN</DistanceMeters>
          </Trackpoint>
          <Trackpoint>
            <Time>2022-07-17T11:56:40.000Z</Time>
            <Position>
              <LatitudeDegrees>43.4886836819350719451904296875</LatitudeDegrees>
              <LongitudeDegrees>-5.30924138613045215606689453125</LongitudeDegrees>
            </Position>
            <AltitudeMeters>37.59999847412109375</AltitudeMeters>
            <DistanceMeters>NAN</DistanceMeters>
          </Trackpoint>
          <Trackpoint>
            <Time>2022-07-17T11:56:47.000Z</Time>
            <Position>
              <LatitudeDegrees>43.48880379460752010345458984375</LatitudeDegrees>
              <LongitudeDegrees>-5.3093799389898777008056640625</LongitudeDegrees>
            </Position>
            <AltitudeMeters>37.799999237060546875</AltitudeMeters>
            <DistanceMeters>NAN</DistanceMeters>
          </Trackpoint>
          <Trackpoint>
            <Time>2022-07-17T11:56:54.000Z</Time>
            <Position>
              <LatitudeDegrees>43.4889324568212032318115234375</LatitudeDegrees>
              <LongitudeDegrees>-5.30954212881624698638916015625</LongitudeDegrees>
            </Position>
            <AltitudeMeters>38</AltitudeMeters>
            <DistanceMeters>NAN</DistanceMeters>
          </Trackpoint>
          <Trackpoint>
            <Time>2022-07-17T11:56:56.000Z</Time>
            <Position>
              <LatitudeDegrees>43.48896590061485767364501953125</LatitudeDegrees>
              <LongitudeDegrees>-5.3095896542072296142578125</LongitudeDegrees>
            </Position>
            <AltitudeMeters>38.200000762939453125</AltitudeMeters>
            <DistanceMeters>NAN</DistanceMeters>
          </Trackpoint>
          <Trackpoint>
            <Time>2022-07-17T11:57:02.000Z</Time>
            <Position>
              <LatitudeDegrees>43.489066399633884429931640625</LatitudeDegrees>
              <LongitudeDegrees>-5.30972418375313282012939453125</LongitudeDegrees>
            </Position>
            <AltitudeMeters>38</AltitudeMeters>
            <DistanceMeters>NAN</DistanceMeters>
          </Trackpoint>
          <Trackpoint>
            <Time>2022-07-17T11:57:05.000Z</Time>
            <Position>
              <LatitudeDegrees>43.4891202114522457122802734375</LatitudeDegrees>
              <LongitudeDegrees>-5.3097963519394397735595703125</LongitudeDegrees>
            </Position>
            <AltitudeMeters>38</AltitudeMeters>
            <DistanceMeters>NAN</DistanceMeters>
          </Trackpoint>
          <Trackpoint>
            <Time>2022-07-17T11:57:09.000Z</Time>
            <Position>
              <LatitudeDegrees>43.48918735049664974212646484375</LatitudeDegrees>
              <LongitudeDegrees>-5.3098925761878490447998046875</LongitudeDegrees>
            </Position>
            <AltitudeMeters>38</AltitudeMeters>
            <DistanceMeters>NAN</DistanceMeters>
          </Trackpoint>
          <Trackpoint>
            <Time>2022-07-17T11:57:13.000Z</Time>
            <Position>
              <LatitudeDegrees>43.48924183286726474761962890625</LatitudeDegrees>
              <LongitudeDegrees>-5.309970863163471221923828125</LongitudeDegrees>
            </Position>
            <AltitudeMeters>38.200000762939453125</AltitudeMeters>
            <DistanceMeters>NAN</DistanceMeters>
          </Trackpoint>
          <Trackpoint>
            <Time>2022-07-17T11:57:14.000Z</Time>
            <Position>
              <LatitudeDegrees>43.4892610274255275726318359375</LatitudeDegrees>
              <LongitudeDegrees>-5.30999424867331981658935546875</LongitudeDegrees>
            </Position>
            <AltitudeMeters>38.40000152587890625</AltitudeMeters>
            <DistanceMeters>NAN</DistanceMeters>
          </Trackpoint>
          <Trackpoint>
            <Time>2022-07-17T11:57:16.000Z</Time>
            <Position>
              <LatitudeDegrees>43.489291705191135406494140625</LatitudeDegrees>
              <LongitudeDegrees>-5.31004303134977817535400390625</LongitudeDegrees>
            </Position>
            <AltitudeMeters>38.40000152587890625</AltitudeMeters>
            <DistanceMeters>NAN</DistanceMeters>
          </Trackpoint>
          <Trackpoint>
            <Time>2022-07-17T11:57:25.000Z</Time>
            <Position>
              <LatitudeDegrees>43.4894430823624134063720703125</LatitudeDegrees>
              <LongitudeDegrees>-5.31022944487631320953369140625</LongitudeDegrees>
            </Position>
            <AltitudeMeters>38.799999237060546875</AltitudeMeters>
            <DistanceMeters>NAN</DistanceMeters>
          </Trackpoint>
          <Trackpoint>
            <Time>2022-07-17T11:57:28.000Z</Time>
            <Position>
              <LatitudeDegrees>43.4894786216318607330322265625</LatitudeDegrees>
              <LongitudeDegrees>-5.310264565050601959228515625</LongitudeDegrees>
            </Position>
            <AltitudeMeters>39</AltitudeMeters>
            <DistanceMeters>NAN</DistanceMeters>
          </Trackpoint>
          <Trackpoint>
            <Time>2022-07-17T11:57:33.000Z</Time>
            <Position>
              <LatitudeDegrees>43.48953033797442913055419921875</LatitudeDegrees>
              <LongitudeDegrees>-5.31034260056912899017333984375</LongitudeDegrees>
            </Position>
            <AltitudeMeters>39.799999237060546875</AltitudeMeters>
            <DistanceMeters>NAN</DistanceMeters>
          </Trackpoint>
          <Trackpoint>
            <Time>2022-07-17T11:57:37.000Z</Time>
            <Position>
              <LatitudeDegrees>43.4895647875964641571044921875</LatitudeDegrees>
              <LongitudeDegrees>-5.3103951551020145416259765625</LongitudeDegrees>
            </Position>
            <AltitudeMeters>40</AltitudeMeters>
            <DistanceMeters>NAN</DistanceMeters>
          </Trackpoint>
          <Trackpoint>
            <Time>2022-07-17T11:57:38.000Z</Time>
            <Position>
              <LatitudeDegrees>43.48957040347158908843994140625</LatitudeDegrees>
              <LongitudeDegrees>-5.31040915288031101226806640625</LongitudeDegrees>
            </Position>
            <AltitudeMeters>40.200000762939453125</AltitudeMeters>
            <DistanceMeters>NAN</DistanceMeters>
          </Trackpoint>
          <Trackpoint>
            <Time>2022-07-17T11:57:40.000Z</Time>
            <Position>
              <LatitudeDegrees>43.48958414979279041290283203125</LatitudeDegrees>
              <LongitudeDegrees>-5.310438238084316253662109375</LongitudeDegrees>
            </Position>
            <AltitudeMeters>40.799999237060546875</AltitudeMeters>
            <DistanceMeters>NAN</DistanceMeters>
          </Trackpoint>
          <Trackpoint>
            <Time>2022-07-17T11:57:43.000Z</Time>
            <Position>
              <LatitudeDegrees>43.4896087087690830230712890625</LatitudeDegrees>
              <LongitudeDegrees>-5.3104705922305583953857421875</LongitudeDegrees>
            </Position>
            <AltitudeMeters>41.40000152587890625</AltitudeMeters>
            <DistanceMeters>NAN</DistanceMeters>
          </Trackpoint>
          <Trackpoint>
            <Time>2022-07-17T11:57:49.000Z</Time>
            <Position>
              <LatitudeDegrees>43.48968364298343658447265625</LatitudeDegrees>
              <LongitudeDegrees>-5.310585089027881622314453125</LongitudeDegrees>
            </Position>
            <AltitudeMeters>41.799999237060546875</AltitudeMeters>
            <DistanceMeters>NAN</DistanceMeters>
          </Trackpoint>
          <Trackpoint>
            <Time>2022-07-17T11:57:52.000Z</Time>
            <Position>
              <LatitudeDegrees>43.48970736376941204071044921875</LatitudeDegrees>
              <LongitudeDegrees>-5.310670249164104461669921875</LongitudeDegrees>
            </Position>
            <AltitudeMeters>42</AltitudeMeters>
            <DistanceMeters>NAN</DistanceMeters>
          </Trackpoint>
          <Trackpoint>
            <Time>2022-07-17T11:57:54.000Z</Time>
            <Position>
              <LatitudeDegrees>43.48971826024353504180908203125</LatitudeDegrees>
              <LongitudeDegrees>-5.31073688529431819915771484375</LongitudeDegrees>
            </Position>
            <AltitudeMeters>42.200000762939453125</AltitudeMeters>
            <DistanceMeters>NAN</DistanceMeters>
          </Trackpoint>
          <Trackpoint>
            <Time>2022-07-17T11:57:56.000Z</Time>
            <Position>
              <LatitudeDegrees>43.48973519168794155120849609375</LatitudeDegrees>
              <LongitudeDegrees>-5.31078868545591831207275390625</LongitudeDegrees>
            </Position>
            <AltitudeMeters>42.40000152587890625</AltitudeMeters>
            <DistanceMeters>NAN</DistanceMeters>
          </Trackpoint>
          <Trackpoint>
            <Time>2022-07-17T11:57:57.000Z</Time>
            <Position>
              <LatitudeDegrees>43.48974541760981082916259765625</LatitudeDegrees>
              <LongitudeDegrees>-5.31082053668797016143798828125</LongitudeDegrees>
            </Position>
            <AltitudeMeters>42.40000152587890625</AltitudeMeters>
            <DistanceMeters>NAN</DistanceMeters>
          </Trackpoint>
          <Trackpoint>
            <Time>2022-07-17T11:58:04.000Z</Time>
            <Position>
              <LatitudeDegrees>43.48979487083852291107177734375</LatitudeDegrees>
              <LongitudeDegrees>-5.3109949640929698944091796875</LongitudeDegrees>
            </Position>
            <AltitudeMeters>43</AltitudeMeters>
            <DistanceMeters>NAN</DistanceMeters>
          </Trackpoint>
          <Trackpoint>
            <Time>2022-07-17T11:58:09.000Z</Time>
            <Position>
              <LatitudeDegrees>43.48983041010797023773193359375</LatitudeDegrees>
              <LongitudeDegrees>-5.31112194992601871490478515625</LongitudeDegrees>
            </Position>
            <AltitudeMeters>43.200000762939453125</AltitudeMeters>
            <DistanceMeters>NAN</DistanceMeters>
          </Trackpoint>
          <Trackpoint>
            <Time>2022-07-17T11:58:10.000Z</Time>
            <Position>
              <LatitudeDegrees>43.48983610980212688446044921875</LatitudeDegrees>
              <LongitudeDegrees>-5.31114139594137668609619140625</LongitudeDegrees>
            </Position>
            <AltitudeMeters>43.40000152587890625</AltitudeMeters>
            <DistanceMeters>NAN</DistanceMeters>
          </Trackpoint>
          <Trackpoint>
            <Time>2022-07-17T11:58:21.000Z</Time>
            <Position>
              <LatitudeDegrees>43.48993233405053615570068359375</LatitudeDegrees>
              <LongitudeDegrees>-5.31140525825321674346923828125</LongitudeDegrees>
            </Position>
            <AltitudeMeters>44.200000762939453125</AltitudeMeters>
            <DistanceMeters>NAN</DistanceMeters>
          </Trackpoint>
          <Trackpoint>
            <Time>2022-07-17T11:58:25.000Z</Time>
            <Position>
              <LatitudeDegrees>43.4899835474789142608642578125</LatitudeDegrees>
              <LongitudeDegrees>-5.3114894963800907135009765625</LongitudeDegrees>
            </Position>
            <AltitudeMeters>44.40000152587890625</AltitudeMeters>
            <DistanceMeters>NAN</DistanceMeters>
          </Trackpoint>
          <Trackpoint>
            <Time>2022-07-17T11:58:32.000Z</Time>
            <Position>
              <LatitudeDegrees>43.49008454941213130950927734375</LatitudeDegrees>
              <LongitudeDegrees>-5.3116252832114696502685546875</LongitudeDegrees>
            </Position>
            <AltitudeMeters>44.799999237060546875</AltitudeMeters>
            <DistanceMeters>NAN</DistanceMeters>
          </Trackpoint>
          <Trackpoint>
            <Time>2022-07-17T11:58:41.000Z</Time>
            <Position>
              <LatitudeDegrees>43.4902360104024410247802734375</LatitudeDegrees>
              <LongitudeDegrees>-5.31177976168692111968994140625</LongitudeDegrees>
            </Position>
            <AltitudeMeters>45.40000152587890625</AltitudeMeters>
            <DistanceMeters>NAN</DistanceMeters>
          </Trackpoint>
          <Trackpoint>
            <Time>2022-07-17T11:58:42.000Z</Time>
            <Position>
              <LatitudeDegrees>43.4902475774288177490234375</LatitudeDegrees>
              <LongitudeDegrees>-5.31179099343717098236083984375</LongitudeDegrees>
            </Position>
            <AltitudeMeters>45.59999847412109375</AltitudeMeters>
            <DistanceMeters>NAN</DistanceMeters>
          </Trackpoint>
          <Trackpoint>
            <Time>2022-07-17T11:58:53.000Z</Time>
            <Position>
              <LatitudeDegrees>43.4904056601226329803466796875</LatitudeDegrees>
              <LongitudeDegrees>-5.31193348579108715057373046875</LongitudeDegrees>
            </Position>
            <AltitudeMeters>46.40000152587890625</AltitudeMeters>
            <DistanceMeters>NAN</DistanceMeters>
          </Trackpoint>
          <Trackpoint>
            <Time>2022-07-17T11:58:57.000Z</Time>
            <Position>
              <LatitudeDegrees>43.49046139977872371673583984375</LatitudeDegrees>
              <LongitudeDegrees>-5.31199760735034942626953125</LongitudeDegrees>
            </Position>
            <AltitudeMeters>46.59999847412109375</AltitudeMeters>
            <DistanceMeters>NAN</DistanceMeters>
          </Trackpoint>
          <Trackpoint>
            <Time>2022-07-17T11:59:03.000Z</Time>
            <Position>
              <LatitudeDegrees>43.49053549580276012420654296875</LatitudeDegrees>
              <LongitudeDegrees>-5.31208737753331661224365234375</LongitudeDegrees>
            </Position>
            <AltitudeMeters>47.200000762939453125</AltitudeMeters>
            <DistanceMeters>NAN</DistanceMeters>
          </Trackpoint>
          <Trackpoint>
            <Time>2022-07-17T11:59:09.000Z</Time>
            <Position>
              <LatitudeDegrees>43.49059115163981914520263671875</LatitudeDegrees>
              <LongitudeDegrees>-5.31219567172229290008544921875</LongitudeDegrees>
            </Position>
            <AltitudeMeters>47.59999847412109375</AltitudeMeters>
            <DistanceMeters>NAN</DistanceMeters>
          </Trackpoint>
          <Trackpoint>
            <Time>2022-07-17T11:59:10.000Z</Time>
            <Position>
              <LatitudeDegrees>43.49059802480041980743408203125</LatitudeDegrees>
              <LongitudeDegrees>-5.3122193925082683563232421875</LongitudeDegrees>
            </Position>
            <AltitudeMeters>47.59999847412109375</AltitudeMeters>
            <DistanceMeters>NAN</DistanceMeters>
          </Trackpoint>
          <Trackpoint>
            <Time>2022-07-17T11:59:13.000Z</Time>
            <Position>
              <LatitudeDegrees>43.4906225837767124176025390625</LatitudeDegrees>
              <LongitudeDegrees>-5.31229105778038501739501953125</LongitudeDegrees>
            </Position>
            <AltitudeMeters>48</AltitudeMeters>
            <DistanceMeters>NAN</DistanceMeters>
          </Trackpoint>
          <Trackpoint>
            <Time>2022-07-17T11:59:22.000Z</Time>
            <Position>
              <LatitudeDegrees>43.49067362956702709197998046875</LatitudeDegrees>
              <LongitudeDegrees>-5.31249775551259517669677734375</LongitudeDegrees>
            </Position>
            <AltitudeMeters>48.40000152587890625</AltitudeMeters>
            <DistanceMeters>NAN</DistanceMeters>
          </Trackpoint>
          <Trackpoint>
            <Time>2022-07-17T11:59:26.000Z</Time>
            <Position>
              <LatitudeDegrees>43.4906929917633533477783203125</LatitudeDegrees>
              <LongitudeDegrees>-5.31260554678738117218017578125</LongitudeDegrees>
            </Position>
            <AltitudeMeters>48.799999237060546875</AltitudeMeters>
            <DistanceMeters>NAN</DistanceMeters>
          </Trackpoint>
          <Trackpoint>
            <Time>2022-07-17T11:59:34.000Z</Time>
            <Position>
              <LatitudeDegrees>43.4907338954508304595947265625</LatitudeDegrees>
              <LongitudeDegrees>-5.3128109872341156005859375</LongitudeDegrees>
            </Position>
            <AltitudeMeters>49.40000152587890625</AltitudeMeters>
            <DistanceMeters>NAN</DistanceMeters>
          </Trackpoint>
          <Trackpoint>
            <Time>2022-07-17T11:59:41.000Z</Time>
            <Position>
              <LatitudeDegrees>43.4907664172351360321044921875</LatitudeDegrees>
              <LongitudeDegrees>-5.31300201080739498138427734375</LongitudeDegrees>
            </Position>
            <AltitudeMeters>49.799999237060546875</AltitudeMeters>
            <DistanceMeters>NAN</DistanceMeters>
          </Trackpoint>
          <Trackpoint>
            <Time>2022-07-17T11:59:47.000Z</Time>
            <Position>
              <LatitudeDegrees>43.49079214967787265777587890625</LatitudeDegrees>
              <LongitudeDegrees>-5.31315757893025875091552734375</LongitudeDegrees>
            </Position>
            <AltitudeMeters>50.200000762939453125</AltitudeMeters>
            <DistanceMeters>NAN</DistanceMeters>
          </Trackpoint>
          <Trackpoint>
            <Time>2022-07-17T11:59:58.000Z</Time>
            <Position>
              <LatitudeDegrees>43.490840010344982147216796875</LatitudeDegrees>
              <LongitudeDegrees>-5.31344826333224773406982421875</LongitudeDegrees>
            </Position>
            <AltitudeMeters>50.799999237060546875</AltitudeMeters>
            <DistanceMeters>NAN</DistanceMeters>
          </Trackpoint>
          <Trackpoint>
            <Time>2022-07-17T12:00:03.000Z</Time>
            <Position>
              <LatitudeDegrees>43.49086641333997249603271484375</LatitudeDegrees>
              <LongitudeDegrees>-5.31358011066913604736328125</LongitudeDegrees>
            </Position>
            <AltitudeMeters>51.200000762939453125</AltitudeMeters>
            <DistanceMeters>NAN</DistanceMeters>
          </Trackpoint>
          <Trackpoint>
            <Time>2022-07-17T12:00:07.000Z</Time>
            <Position>
              <LatitudeDegrees>43.49087999202311038970947265625</LatitudeDegrees>
              <LongitudeDegrees>-5.31368178315460681915283203125</LongitudeDegrees>
            </Position>
            <AltitudeMeters>51.40000152587890625</AltitudeMeters>
            <DistanceMeters>NAN</DistanceMeters>
          </Trackpoint>
          <Trackpoint>
            <Time>2022-07-17T12:00:12.000Z</Time>
            <Position>
              <LatitudeDegrees>43.4909055568277835845947265625</LatitudeDegrees>
              <LongitudeDegrees>-5.31382083892822265625</LongitudeDegrees>
            </Position>
            <AltitudeMeters>51.799999237060546875</AltitudeMeters>
            <DistanceMeters>NAN</DistanceMeters>
          </Trackpoint>
          <Trackpoint>
            <Time>2022-07-17T12:00:15.000Z</Time>
            <Position>
              <LatitudeDegrees>43.4909270144999027252197265625</LatitudeDegrees>
              <LongitudeDegrees>-5.31389300711452960968017578125</LongitudeDegrees>
            </Position>
            <AltitudeMeters>52</AltitudeMeters>
            <DistanceMeters>NAN</DistanceMeters>
          </Trackpoint>
          <Trackpoint>
            <Time>2022-07-17T12:00:20.000Z</Time>
            <Position>
              <LatitudeDegrees>43.4909531660377979278564453125</LatitudeDegrees>
              <LongitudeDegrees>-5.314025022089481353759765625</LongitudeDegrees>
            </Position>
            <AltitudeMeters>52.59999847412109375</AltitudeMeters>
            <DistanceMeters>NAN</DistanceMeters>
          </Trackpoint>
          <Trackpoint>
            <Time>2022-07-17T12:00:23.000Z</Time>
            <Position>
              <LatitudeDegrees>43.49096163176000118255615234375</LatitudeDegrees>
              <LongitudeDegrees>-5.31410339288413524627685546875</LongitudeDegrees>
            </Position>
            <AltitudeMeters>52.799999237060546875</AltitudeMeters>
            <DistanceMeters>NAN</DistanceMeters>
          </Trackpoint>
          <Trackpoint>
            <Time>2022-07-17T12:00:31.000Z</Time>
            <Position>
              <LatitudeDegrees>43.490986190736293792724609375</LatitudeDegrees>
              <LongitudeDegrees>-5.31431176699697971343994140625</LongitudeDegrees>
            </Position>
            <AltitudeMeters>53.59999847412109375</AltitudeMeters>
            <DistanceMeters>NAN</DistanceMeters>
          </Trackpoint>
          <Trackpoint>
            <Time>2022-07-17T12:00:35.000Z</Time>
            <Position>
              <LatitudeDegrees>43.490989208221435546875</LatitudeDegrees>
              <LongitudeDegrees>-5.3144164569675922393798828125</LongitudeDegrees>
            </Position>
            <AltitudeMeters>54</AltitudeMeters>
            <DistanceMeters>NAN</DistanceMeters>
          </Trackpoint>
          <Trackpoint>
            <Time>2022-07-17T12:00:39.000Z</Time>
            <Position>
              <LatitudeDegrees>43.49098795093595981597900390625</LatitudeDegrees>
              <LongitudeDegrees>-5.31452290713787078857421875</LongitudeDegrees>
            </Position>
            <AltitudeMeters>54.40000152587890625</AltitudeMeters>
            <DistanceMeters>NAN</DistanceMeters>
          </Trackpoint>
          <Trackpoint>
            <Time>2022-07-17T12:00:46.000Z</Time>
            <Position>
              <LatitudeDegrees>43.490976803004741668701171875</LatitudeDegrees>
              <LongitudeDegrees>-5.314713679254055023193359375</LongitudeDegrees>
            </Position>
            <AltitudeMeters>54.799999237060546875</AltitudeMeters>
            <DistanceMeters>NAN</DistanceMeters>
          </Trackpoint>
          <Trackpoint>
            <Time>2022-07-17T12:00:47.000Z</Time>
            <Position>
              <LatitudeDegrees>43.49097789265215396881103515625</LatitudeDegrees>
              <LongitudeDegrees>-5.3147373162209987640380859375</LongitudeDegrees>
            </Position>
            <AltitudeMeters>55</AltitudeMeters>
            <DistanceMeters>NAN</DistanceMeters>
          </Trackpoint>
          <Trackpoint>
            <Time>2022-07-17T12:00:58.000Z</Time>
            <Position>
              <LatitudeDegrees>43.4909632243216037750244140625</LatitudeDegrees>
              <LongitudeDegrees>-5.31502892263233661651611328125</LongitudeDegrees>
            </Position>
            <AltitudeMeters>56</AltitudeMeters>
            <DistanceMeters>NAN</DistanceMeters>
          </Trackpoint>
          <Trackpoint>
            <Time>2022-07-17T12:00:59.000Z</Time>
            <Position>
              <LatitudeDegrees>43.49096246995031833648681640625</LatitudeDegrees>
              <LongitudeDegrees>-5.31505574472248554229736328125</LongitudeDegrees>
            </Position>
            <AltitudeMeters>56</AltitudeMeters>
            <DistanceMeters>NAN</DistanceMeters>
          </Trackpoint>
          <Trackpoint>
            <Time>2022-07-17T12:01:07.000Z</Time>
            <Position>
              <LatitudeDegrees>43.49097085185348987579345703125</LatitudeDegrees>
              <LongitudeDegrees>-5.31526227481663227081298828125</LongitudeDegrees>
            </Position>
            <AltitudeMeters>57</AltitudeMeters>
            <DistanceMeters>NAN</DistanceMeters>
          </Trackpoint>
          <Trackpoint>
            <Time>2022-07-17T12:01:15.000Z</Time>
            <Position>
              <LatitudeDegrees>43.49099733866751194000244140625</LatitudeDegrees>
              <LongitudeDegrees>-5.3154601715505123138427734375</LongitudeDegrees>
            </Position>
            <AltitudeMeters>57.59999847412109375</AltitudeMeters>
            <DistanceMeters>NAN</DistanceMeters>
          </Trackpoint>
          <Trackpoint>
            <Time>2022-07-17T12:01:18.000Z</Time>
            <Position>
              <LatitudeDegrees>43.49100991152226924896240234375</LatitudeDegrees>
              <LongitudeDegrees>-5.3155362792313098907470703125</LongitudeDegrees>
            </Position>
            <AltitudeMeters>58</AltitudeMeters>
            <DistanceMeters>NAN</DistanceMeters>
          </Trackpoint>
          <Trackpoint>
            <Time>2022-07-17T12:01:22.000Z</Time>
            <Position>
              <LatitudeDegrees>43.49102432839572429656982421875</LatitudeDegrees>
              <LongitudeDegrees>-5.31563359312713146209716796875</LongitudeDegrees>
            </Position>
            <AltitudeMeters>58.40000152587890625</AltitudeMeters>
            <DistanceMeters>NAN</DistanceMeters>
          </Trackpoint>
          <Trackpoint>
            <Time>2022-07-17T12:01:28.000Z</Time>
            <Position>
              <LatitudeDegrees>43.49106271751224994659423828125</LatitudeDegrees>
              <LongitudeDegrees>-5.315786898136138916015625</LongitudeDegrees>
            </Position>
            <AltitudeMeters>58.799999237060546875</AltitudeMeters>
            <DistanceMeters>NAN</DistanceMeters>
          </Trackpoint>
          <Trackpoint>
            <Time>2022-07-17T12:01:31.000Z</Time>
            <Position>
              <LatitudeDegrees>43.49108601920306682586669921875</LatitudeDegrees>
              <LongitudeDegrees>-5.3158547915518283843994140625</LongitudeDegrees>
            </Position>
            <AltitudeMeters>59</AltitudeMeters>
            <DistanceMeters>NAN</DistanceMeters>
          </Trackpoint>
          <Trackpoint>
            <Time>2022-07-17T12:01:38.000Z</Time>
            <Position>
              <LatitudeDegrees>43.4911506436765193939208984375</LatitudeDegrees>
              <LongitudeDegrees>-5.3160033188760280609130859375</LongitudeDegrees>
            </Position>
            <AltitudeMeters>59.40000152587890625</AltitudeMeters>
            <DistanceMeters>NAN</DistanceMeters>
          </Trackpoint>
          <Trackpoint>
            <Time>2022-07-17T12:01:45.000Z</Time>
            <Position>
              <LatitudeDegrees>43.49123136140406131744384765625</LatitudeDegrees>
              <LongitudeDegrees>-5.31611538492143154144287109375</LongitudeDegrees>
            </Position>
            <AltitudeMeters>60</AltitudeMeters>
            <DistanceMeters>NAN</DistanceMeters>
          </Trackpoint>
          <Trackpoint>
            <Time>2022-07-17T12:01:48.000Z</Time>
            <Position>
              <LatitudeDegrees>43.491272516548633575439453125</LatitudeDegrees>
              <LongitudeDegrees>-5.31615528278052806854248046875</LongitudeDegrees>
            </Position>
            <AltitudeMeters>60.200000762939453125</AltitudeMeters>
            <DistanceMeters>NAN</DistanceMeters>
          </Trackpoint>
          <Trackpoint>
            <Time>2022-07-17T12:01:56.000Z</Time>
            <Position>
              <LatitudeDegrees>43.49137251265347003936767578125</LatitudeDegrees>
              <LongitudeDegrees>-5.31629576347768306732177734375</LongitudeDegrees>
            </Position>
            <AltitudeMeters>60.799999237060546875</AltitudeMeters>
            <DistanceMeters>NAN</DistanceMeters>
          </Trackpoint>
          <Trackpoint>
            <Time>2022-07-17T12:02:01.000Z</Time>
            <Position>
              <LatitudeDegrees>43.49141769111156463623046875</LatitudeDegrees>
              <LongitudeDegrees>-5.31639500521123409271240234375</LongitudeDegrees>
            </Position>
            <AltitudeMeters>61.200000762939453125</AltitudeMeters>
            <DistanceMeters>NAN</DistanceMeters>
          </Trackpoint>
          <Trackpoint>
            <Time>2022-07-17T12:02:04.000Z</Time>
            <Position>
              <LatitudeDegrees>43.4914384782314300537109375</LatitudeDegrees>
              <LongitudeDegrees>-5.316463150084018707275390625</LongitudeDegrees>
            </Position>
            <AltitudeMeters>61.40000152587890625</AltitudeMeters>
            <DistanceMeters>NAN</DistanceMeters>
          </Trackpoint>
          <Trackpoint>
            <Time>2022-07-17T12:02:12.000Z</Time>
            <Position>
              <LatitudeDegrees>43.49148198030889034271240234375</LatitudeDegrees>
              <LongitudeDegrees>-5.3166465461254119873046875</LongitudeDegrees>
            </Position>
            <AltitudeMeters>62</AltitudeMeters>
            <DistanceMeters>NAN</DistanceMeters>
          </Trackpoint>
          <Trackpoint>
            <Time>2022-07-17T12:02:14.000Z</Time>
            <Position>
              <LatitudeDegrees>43.49148784764111042022705078125</LatitudeDegrees>
              <LongitudeDegrees>-5.3166956640779972076416015625</LongitudeDegrees>
            </Position>
            <AltitudeMeters>62.200000762939453125</AltitudeMeters>
            <DistanceMeters>NAN</DistanceMeters>
          </Trackpoint>
          <Trackpoint>
            <Time>2022-07-17T12:02:19.000Z</Time>
            <Position>
              <LatitudeDegrees>43.49149237386882305145263671875</LatitudeDegrees>
              <LongitudeDegrees>-5.31680806539952754974365234375</LongitudeDegrees>
            </Position>
            <AltitudeMeters>62.59999847412109375</AltitudeMeters>
            <DistanceMeters>NAN</DistanceMeters>
          </Trackpoint>
          <Trackpoint>
            <Time>2022-07-17T12:02:25.000Z</Time>
            <Position>
              <LatitudeDegrees>43.49149991758167743682861328125</LatitudeDegrees>
              <LongitudeDegrees>-5.31694921664893627166748046875</LongitudeDegrees>
            </Position>
            <AltitudeMeters>62.799999237060546875</AltitudeMeters>
            <DistanceMeters>NAN</DistanceMeters>
          </Trackpoint>
          <Trackpoint>
            <Time>2022-07-17T12:02:28.000Z</Time>
            <Position>
              <LatitudeDegrees>43.4914979897439479827880859375</LatitudeDegrees>
              <LongitudeDegrees>-5.31701560132205486297607421875</LongitudeDegrees>
            </Position>
            <AltitudeMeters>63</AltitudeMeters>
            <DistanceMeters>NAN</DistanceMeters>
          </Trackpoint>
          <Trackpoint>
            <Time>2022-07-17T12:02:31.000Z</Time>
            <Position>
              <LatitudeDegrees>43.49149882793426513671875</LatitudeDegrees>
              <LongitudeDegrees>-5.31708349473774433135986328125</LongitudeDegrees>
            </Position>
            <AltitudeMeters>63.200000762939453125</AltitudeMeters>
            <DistanceMeters>NAN</DistanceMeters>
          </Trackpoint>
          <Trackpoint>
            <Time>2022-07-17T12:02:33.000Z</Time>
            <Position>
              <LatitudeDegrees>43.49148483015596866607666015625</LatitudeDegrees>
              <LongitudeDegrees>-5.3171258233487606048583984375</LongitudeDegrees>
            </Position>
            <AltitudeMeters>63.40000152587890625</AltitudeMeters>
            <DistanceMeters>NAN</DistanceMeters>
          </Trackpoint>
          <Trackpoint>
            <Time>2022-07-17T12:02:40.000Z</Time>
            <Position>
              <LatitudeDegrees>43.4914480336010456085205078125</LatitudeDegrees>
              <LongitudeDegrees>-5.3172904439270496368408203125</LongitudeDegrees>
            </Position>
            <AltitudeMeters>63.799999237060546875</AltitudeMeters>
            <DistanceMeters>NAN</DistanceMeters>
          </Trackpoint>
          <Trackpoint>
            <Time>2022-07-17T12:02:41.000Z</Time>
            <Position>
              <LatitudeDegrees>43.49144493229687213897705078125</LatitudeDegrees>
              <LongitudeDegrees>-5.3173152543604373931884765625</LongitudeDegrees>
            </Position>
            <AltitudeMeters>64</AltitudeMeters>
            <DistanceMeters>NAN</DistanceMeters>
          </Trackpoint>
          <Trackpoint>
            <Time>2022-07-17T12:02:45.000Z</Time>
            <Position>
              <LatitudeDegrees>43.491412661969661712646484375</LatitudeDegrees>
              <LongitudeDegrees>-5.3173975646495819091796875</LongitudeDegrees>
            </Position>
            <AltitudeMeters>64.40000152587890625</AltitudeMeters>
            <DistanceMeters>NAN</DistanceMeters>
          </Trackpoint>
          <Trackpoint>
            <Time>2022-07-17T12:02:47.000Z</Time>
            <Position>
              <LatitudeDegrees>43.49139128811657428741455078125</LatitudeDegrees>
              <LongitudeDegrees>-5.31743486411869525909423828125</LongitudeDegrees>
            </Position>
            <AltitudeMeters>64.40000152587890625</AltitudeMeters>
            <DistanceMeters>NAN</DistanceMeters>
          </Trackpoint>
          <Trackpoint>
            <Time>2022-07-17T12:02:52.000Z</Time>
            <Position>
              <LatitudeDegrees>43.49135776050388813018798828125</LatitudeDegrees>
              <LongitudeDegrees>-5.3175241313874721527099609375</LongitudeDegrees>
            </Position>
            <AltitudeMeters>64.8000030517578125</AltitudeMeters>
            <DistanceMeters>NAN</DistanceMeters>
          </Trackpoint>
          <Trackpoint>
            <Time>2022-07-17T12:02:53.000Z</Time>
            <Position>
              <LatitudeDegrees>43.4913471154868602752685546875</LatitudeDegrees>
              <LongitudeDegrees>-5.3175385482609272003173828125</LongitudeDegrees>
            </Position>
            <AltitudeMeters>64.8000030517578125</AltitudeMeters>
            <DistanceMeters>NAN</DistanceMeters>
          </Trackpoint>
          <Trackpoint>
            <Time>2022-07-17T12:02:59.000Z</Time>
            <Position>
              <LatitudeDegrees>43.49128081463277339935302734375</LatitudeDegrees>
              <LongitudeDegrees>-5.3176367841660976409912109375</LongitudeDegrees>
            </Position>
            <AltitudeMeters>65</AltitudeMeters>
            <DistanceMeters>NAN</DistanceMeters>
          </Trackpoint>
          <Trackpoint>
            <Time>2022-07-17T12:03:03.000Z</Time>
            <Position>
              <LatitudeDegrees>43.4912359714508056640625</LatitudeDegrees>
              <LongitudeDegrees>-5.31770073808729648590087890625</LongitudeDegrees>
            </Position>
            <AltitudeMeters>65.40000152587890625</AltitudeMeters>
            <DistanceMeters>NAN</DistanceMeters>
          </Trackpoint>
          <Trackpoint>
            <Time>2022-07-17T12:03:07.000Z</Time>
            <Position>
              <LatitudeDegrees>43.4911771304905414581298828125</LatitudeDegrees>
              <LongitudeDegrees>-5.317760668694972991943359375</LongitudeDegrees>
            </Position>
            <AltitudeMeters>65.59999847412109375</AltitudeMeters>
            <DistanceMeters>NAN</DistanceMeters>
          </Trackpoint>
          <Trackpoint>
            <Time>2022-07-17T12:03:16.000Z</Time>
            <Position>
              <LatitudeDegrees>43.4910681657493114471435546875</LatitudeDegrees>
              <LongitudeDegrees>-5.31791212968528270721435546875</LongitudeDegrees>
            </Position>
            <AltitudeMeters>66</AltitudeMeters>
            <DistanceMeters>NAN</DistanceMeters>
          </Trackpoint>
          <Trackpoint>
            <Time>2022-07-17T12:03:23.000Z</Time>
            <Position>
              <LatitudeDegrees>43.49102600477635860443115234375</LatitudeDegrees>
              <LongitudeDegrees>-5.3180776722729206085205078125</LongitudeDegrees>
            </Position>
            <AltitudeMeters>66.40000152587890625</AltitudeMeters>
            <DistanceMeters>NAN</DistanceMeters>
          </Trackpoint>
          <Trackpoint>
            <Time>2022-07-17T12:03:32.000Z</Time>
            <Position>
              <LatitudeDegrees>43.49100655876100063323974609375</LatitudeDegrees>
              <LongitudeDegrees>-5.31829551793634891510009765625</LongitudeDegrees>
            </Position>
            <AltitudeMeters>66.8000030517578125</AltitudeMeters>
            <DistanceMeters>NAN</DistanceMeters>
          </Trackpoint>
          <Trackpoint>
            <Time>2022-07-17T12:03:42.000Z</Time>
            <Position>
              <LatitudeDegrees>43.49103011190891265869140625</LatitudeDegrees>
              <LongitudeDegrees>-5.3185420297086238861083984375</LongitudeDegrees>
            </Position>
            <AltitudeMeters>67.1999969482421875</AltitudeMeters>
            <DistanceMeters>NAN</DistanceMeters>
          </Trackpoint>
          <Trackpoint>
            <Time>2022-07-17T12:03:45.000Z</Time>
            <Position>
              <LatitudeDegrees>43.49103572778403759002685546875</LatitudeDegrees>
              <LongitudeDegrees>-5.31862266361713409423828125</LongitudeDegrees>
            </Position>
            <AltitudeMeters>67.40000152587890625</AltitudeMeters>
            <DistanceMeters>NAN</DistanceMeters>
          </Trackpoint>
          <Trackpoint>
            <Time>2022-07-17T12:03:52.000Z</Time>
            <Position>
              <LatitudeDegrees>43.4910574369132518768310546875</LatitudeDegrees>
              <LongitudeDegrees>-5.31879809685051441192626953125</LongitudeDegrees>
            </Position>
            <AltitudeMeters>67.59999847412109375</AltitudeMeters>
            <DistanceMeters>NAN</DistanceMeters>
          </Trackpoint>
          <Trackpoint>
            <Time>2022-07-17T12:04:00.000Z</Time>
            <Position>
              <LatitudeDegrees>43.49108115769922733306884765625</LatitudeDegrees>
              <LongitudeDegrees>-5.31899993307888507843017578125</LongitudeDegrees>
            </Position>
            <AltitudeMeters>68</AltitudeMeters>
            <DistanceMeters>NAN</DistanceMeters>
          </Trackpoint>
          <Trackpoint>
            <Time>2022-07-17T12:04:08.000Z</Time>
            <Position>
              <LatitudeDegrees>43.49112524650990962982177734375</LatitudeDegrees>
              <LongitudeDegrees>-5.31919539906084537506103515625</LongitudeDegrees>
            </Position>
            <AltitudeMeters>68.1999969482421875</AltitudeMeters>
            <DistanceMeters>NAN</DistanceMeters>
          </Trackpoint>
          <Trackpoint>
            <Time>2022-07-17T12:04:15.000Z</Time>
            <Position>
              <LatitudeDegrees>43.49117696285247802734375</LatitudeDegrees>
              <LongitudeDegrees>-5.31935163773596286773681640625</LongitudeDegrees>
            </Position>
            <AltitudeMeters>68.40000152587890625</AltitudeMeters>
            <DistanceMeters>NAN</DistanceMeters>
          </Trackpoint>
          <Trackpoint>
            <Time>2022-07-17T12:04:17.000Z</Time>
            <Position>
              <LatitudeDegrees>43.4911949001252651214599609375</LatitudeDegrees>
              <LongitudeDegrees>-5.3193919546902179718017578125</LongitudeDegrees>
            </Position>
            <AltitudeMeters>68.59999847412109375</AltitudeMeters>
            <DistanceMeters>NAN</DistanceMeters>
          </Trackpoint>
          <Trackpoint>
            <Time>2022-07-17T12:04:24.000Z</Time>
            <Position>
              <LatitudeDegrees>43.49127419292926788330078125</LatitudeDegrees>
              <LongitudeDegrees>-5.31952128745615482330322265625</LongitudeDegrees>
            </Position>
            <AltitudeMeters>69</AltitudeMeters>
            <DistanceMeters>NAN</DistanceMeters>
          </Trackpoint>
          <Trackpoint>
            <Time>2022-07-17T12:04:27.000Z</Time>
            <Position>
              <LatitudeDegrees>43.49130847491323947906494140625</LatitudeDegrees>
              <LongitudeDegrees>-5.31956235878169536590576171875</LongitudeDegrees>
            </Position>
            <AltitudeMeters>69.40000152587890625</AltitudeMeters>
            <DistanceMeters>NAN</DistanceMeters>
          </Trackpoint>
          <Trackpoint>
            <Time>2022-07-17T12:04:29.000Z</Time>
            <Position>
              <LatitudeDegrees>43.4913310222327709197998046875</LatitudeDegrees>
              <LongitudeDegrees>-5.3195844031870365142822265625</LongitudeDegrees>
            </Position>
            <AltitudeMeters>69.59999847412109375</AltitudeMeters>
            <DistanceMeters>NAN</DistanceMeters>
          </Trackpoint>
          <Trackpoint>
            <Time>2022-07-17T12:04:34.000Z</Time>
            <Position>
              <LatitudeDegrees>43.491395227611064910888671875</LatitudeDegrees>
              <LongitudeDegrees>-5.3196343593299388885498046875</LongitudeDegrees>
            </Position>
            <AltitudeMeters>69.8000030517578125</AltitudeMeters>
            <DistanceMeters>NAN</DistanceMeters>
          </Trackpoint>
          <Trackpoint>
            <Time>2022-07-17T12:04:38.000Z</Time>
            <Position>
              <LatitudeDegrees>43.49144862033426761627197265625</LatitudeDegrees>
              <LongitudeDegrees>-5.319679789245128631591796875</LongitudeDegrees>
            </Position>
            <AltitudeMeters>70.1999969482421875</AltitudeMeters>
            <DistanceMeters>NAN</DistanceMeters>
          </Trackpoint>
          <Trackpoint>
            <Time>2022-07-17T12:04:41.000Z</Time>
            <Position>
              <LatitudeDegrees>43.49149270914494991302490234375</LatitudeDegrees>
              <LongitudeDegrees>-5.31970895826816558837890625</LongitudeDegrees>
            </Position>
            <AltitudeMeters>70.40000152587890625</AltitudeMeters>
            <DistanceMeters>NAN</DistanceMeters>
          </Trackpoint>
          <Trackpoint>
            <Time>2022-07-17T12:04:42.000Z</Time>
            <Position>
              <LatitudeDegrees>43.49150813184678554534912109375</LatitudeDegrees>
              <LongitudeDegrees>-5.3197175078094005584716796875</LongitudeDegrees>
            </Position>
            <AltitudeMeters>70.59999847412109375</AltitudeMeters>
            <DistanceMeters>NAN</DistanceMeters>
          </Trackpoint>
          <Trackpoint>
            <Time>2022-07-17T12:04:44.000Z</Time>
            <Position>
              <LatitudeDegrees>43.49153830669820308685302734375</LatitudeDegrees>
              <LongitudeDegrees>-5.31973712146282196044921875</LongitudeDegrees>
            </Position>
            <AltitudeMeters>70.8000030517578125</AltitudeMeters>
            <DistanceMeters>NAN</DistanceMeters>
          </Trackpoint>
          <Trackpoint>
            <Time>2022-07-17T12:04:55.000Z</Time>
            <Position>
              <LatitudeDegrees>43.49172857590019702911376953125</LatitudeDegrees>
              <LongitudeDegrees>-5.31987802125513553619384765625</LongitudeDegrees>
            </Position>
            <AltitudeMeters>71.59999847412109375</AltitudeMeters>
            <DistanceMeters>NAN</DistanceMeters>
          </Trackpoint>
          <Trackpoint>
            <Time>2022-07-17T12:05:05.000Z</Time>
            <Position>
              <LatitudeDegrees>43.49186503328382968902587890625</LatitudeDegrees>
              <LongitudeDegrees>-5.3201024048030376434326171875</LongitudeDegrees>
            </Position>
            <AltitudeMeters>72.1999969482421875</AltitudeMeters>
            <DistanceMeters>NAN</DistanceMeters>
          </Trackpoint>
          <Trackpoint>
            <Time>2022-07-17T12:05:10.000Z</Time>
            <Position>
              <LatitudeDegrees>43.491914905607700347900390625</LatitudeDegrees>
              <LongitudeDegrees>-5.32023869454860687255859375</LongitudeDegrees>
            </Position>
            <AltitudeMeters>72.59999847412109375</AltitudeMeters>
            <DistanceMeters>NAN</DistanceMeters>
          </Trackpoint>
          <Trackpoint>
            <Time>2022-07-17T12:05:15.000Z</Time>
            <Position>
              <LatitudeDegrees>43.4919418953359127044677734375</LatitudeDegrees>
              <LongitudeDegrees>-5.32039426267147064208984375</LongitudeDegrees>
            </Position>
            <AltitudeMeters>72.59999847412109375</AltitudeMeters>
            <DistanceMeters>NAN</DistanceMeters>
          </Trackpoint>
          <Trackpoint>
            <Time>2022-07-17T12:05:17.000Z</Time>
            <Position>
              <LatitudeDegrees>43.49194952286779880523681640625</LatitudeDegrees>
              <LongitudeDegrees>-5.32045687548816204071044921875</LongitudeDegrees>
            </Position>
            <AltitudeMeters>72.59999847412109375</AltitudeMeters>
            <DistanceMeters>NAN</DistanceMeters>
          </Trackpoint>
          <Trackpoint>
            <Time>2022-07-17T12:05:21.000Z</Time>
            <Position>
              <LatitudeDegrees>43.4919418953359127044677734375</LatitudeDegrees>
              <LongitudeDegrees>-5.32060439698398113250732421875</LongitudeDegrees>
            </Position>
            <AltitudeMeters>72.8000030517578125</AltitudeMeters>
            <DistanceMeters>NAN</DistanceMeters>
          </Trackpoint>
          <Trackpoint>
            <Time>2022-07-17T12:05:22.000Z</Time>
            <Position>
              <LatitudeDegrees>43.49193535745143890380859375</LatitudeDegrees>
              <LongitudeDegrees>-5.32064546830952167510986328125</LongitudeDegrees>
            </Position>
            <AltitudeMeters>72.8000030517578125</AltitudeMeters>
            <DistanceMeters>NAN</DistanceMeters>
          </Trackpoint>
          <Trackpoint>
            <Time>2022-07-17T12:05:30.000Z</Time>
            <Position>
              <LatitudeDegrees>43.491863273084163665771484375</LatitudeDegrees>
              <LongitudeDegrees>-5.32100044190883636474609375</LongitudeDegrees>
            </Position>
            <AltitudeMeters>73</AltitudeMeters>
            <DistanceMeters>NAN</DistanceMeters>
          </Trackpoint>
          <Trackpoint>
            <Time>2022-07-17T12:05:37.000Z</Time>
            <Position>
              <LatitudeDegrees>43.49182538688182830810546875</LatitudeDegrees>
              <LongitudeDegrees>-5.32139682210981845855712890625</LongitudeDegrees>
            </Position>
            <AltitudeMeters>72.8000030517578125</AltitudeMeters>
            <DistanceMeters>NAN</DistanceMeters>
          </Trackpoint>
          <Trackpoint>
            <Time>2022-07-17T12:05:42.000Z</Time>
            <Position>
              <LatitudeDegrees>43.4918917715549468994140625</LatitudeDegrees>
              <LongitudeDegrees>-5.32163880765438079833984375</LongitudeDegrees>
            </Position>
            <AltitudeMeters>72.40000152587890625</AltitudeMeters>
            <DistanceMeters>NAN</DistanceMeters>
          </Trackpoint>
          <Trackpoint>
            <Time>2022-07-17T12:05:43.000Z</Time>
            <Position>
              <LatitudeDegrees>43.49190979264676570892333984375</LatitudeDegrees>
              <LongitudeDegrees>-5.3216805495321750640869140625</LongitudeDegrees>
            </Position>
            <AltitudeMeters>72.40000152587890625</AltitudeMeters>
            <DistanceMeters>NAN</DistanceMeters>
          </Trackpoint>
          <Trackpoint>
            <Time>2022-07-17T12:05:49.000Z</Time>
            <Position>
              <LatitudeDegrees>43.49207156337797641754150390625</LatitudeDegrees>
              <LongitudeDegrees>-5.32190694473683834075927734375</LongitudeDegrees>
            </Position>
            <AltitudeMeters>72.59999847412109375</AltitudeMeters>
            <DistanceMeters>NAN</DistanceMeters>
          </Trackpoint>
          <Trackpoint>
            <Time>2022-07-17T12:05:50.000Z</Time>
            <Position>
              <LatitudeDegrees>43.492098636925220489501953125</LatitudeDegrees>
              <LongitudeDegrees>-5.32193896360695362091064453125</LongitudeDegrees>
            </Position>
            <AltitudeMeters>72.59999847412109375</AltitudeMeters>
            <DistanceMeters>NAN</DistanceMeters>
          </Trackpoint>
          <Trackpoint>
            <Time>2022-07-17T12:05:58.000Z</Time>
            <Position>
              <LatitudeDegrees>43.49228831939399242401123046875</LatitudeDegrees>
              <LongitudeDegrees>-5.32218120060861110687255859375</LongitudeDegrees>
            </Position>
            <AltitudeMeters>73.1999969482421875</AltitudeMeters>
            <DistanceMeters>NAN</DistanceMeters>
          </Trackpoint>
          <Trackpoint>
            <Time>2022-07-17T12:05:59.000Z</Time>
            <Position>
              <LatitudeDegrees>43.4923123754560947418212890625</LatitudeDegrees>
              <LongitudeDegrees>-5.32221204601228237152099609375</LongitudeDegrees>
            </Position>
            <AltitudeMeters>73.40000152587890625</AltitudeMeters>
            <DistanceMeters>NAN</DistanceMeters>
          </Trackpoint>
          <Trackpoint>
            <Time>2022-07-17T12:06:02.000Z</Time>
            <Position>
              <LatitudeDegrees>43.49238462746143341064453125</LatitudeDegrees>
              <LongitudeDegrees>-5.32229536212980747222900390625</LongitudeDegrees>
            </Position>
            <AltitudeMeters>73.8000030517578125</AltitudeMeters>
            <DistanceMeters>NAN</DistanceMeters>
          </Trackpoint>
          <Trackpoint>
            <Time>2022-07-17T12:06:09.000Z</Time>
            <Position>
              <LatitudeDegrees>43.49252401851117610931396484375</LatitudeDegrees>
              <LongitudeDegrees>-5.3224681131541728973388671875</LongitudeDegrees>
            </Position>
            <AltitudeMeters>74.8000030517578125</AltitudeMeters>
            <DistanceMeters>NAN</DistanceMeters>
          </Trackpoint>
          <Trackpoint>
            <Time>2022-07-17T12:06:11.000Z</Time>
            <Position>
              <LatitudeDegrees>43.49256408400833606719970703125</LatitudeDegrees>
              <LongitudeDegrees>-5.3225170634686946868896484375</LongitudeDegrees>
            </Position>
            <AltitudeMeters>75</AltitudeMeters>
            <DistanceMeters>NAN</DistanceMeters>
          </Trackpoint>
          <Trackpoint>
            <Time>2022-07-17T12:06:16.000Z</Time>
            <Position>
              <LatitudeDegrees>43.49265418946743011474609375</LatitudeDegrees>
              <LongitudeDegrees>-5.32262795604765415191650390625</LongitudeDegrees>
            </Position>
            <AltitudeMeters>75.8000030517578125</AltitudeMeters>
            <DistanceMeters>NAN</DistanceMeters>
          </Trackpoint>
          <Trackpoint>
            <Time>2022-07-17T12:06:17.000Z</Time>
            <Position>
              <LatitudeDegrees>43.49266885779798030853271484375</LatitudeDegrees>
              <LongitudeDegrees>-5.32264036126434803009033203125</LongitudeDegrees>
            </Position>
            <AltitudeMeters>75.8000030517578125</AltitudeMeters>
            <DistanceMeters>NAN</DistanceMeters>
          </Trackpoint>
          <Trackpoint>
            <Time>2022-07-17T12:06:21.000Z</Time>
            <Position>
              <LatitudeDegrees>43.4927264414727687835693359375</LatitudeDegrees>
              <LongitudeDegrees>-5.3227229230105876922607421875</LongitudeDegrees>
            </Position>
            <AltitudeMeters>76.40000152587890625</AltitudeMeters>
            <DistanceMeters>NAN</DistanceMeters>
          </Trackpoint>
          <Trackpoint>
            <Time>2022-07-17T12:06:24.000Z</Time>
            <Position>
              <LatitudeDegrees>43.49277514033019542694091796875</LatitudeDegrees>
              <LongitudeDegrees>-5.32277665100991725921630859375</LongitudeDegrees>
            </Position>
            <AltitudeMeters>77</AltitudeMeters>
            <DistanceMeters>NAN</DistanceMeters>
          </Trackpoint>
          <Trackpoint>
            <Time>2022-07-17T12:06:27.000Z</Time>
            <Position>
              <LatitudeDegrees>43.49282224662601947784423828125</LatitudeDegrees>
              <LongitudeDegrees>-5.3228292055428028106689453125</LongitudeDegrees>
            </Position>
            <AltitudeMeters>77.40000152587890625</AltitudeMeters>
            <DistanceMeters>NAN</DistanceMeters>
          </Trackpoint>
          <Trackpoint>
            <Time>2022-07-17T12:06:29.000Z</Time>
            <Position>
              <LatitudeDegrees>43.492850996553897857666015625</LatitudeDegrees>
              <LongitudeDegrees>-5.32286114059388637542724609375</LongitudeDegrees>
            </Position>
            <AltitudeMeters>77.59999847412109375</AltitudeMeters>
            <DistanceMeters>NAN</DistanceMeters>
          </Trackpoint>
          <Trackpoint>
            <Time>2022-07-17T12:06:33.000Z</Time>
            <Position>
              <LatitudeDegrees>43.49290992133319377899169921875</LatitudeDegrees>
              <LongitudeDegrees>-5.32294898293912410736083984375</LongitudeDegrees>
            </Position>
            <AltitudeMeters>78</AltitudeMeters>
            <DistanceMeters>NAN</DistanceMeters>
          </Trackpoint>
          <Trackpoint>
            <Time>2022-07-17T12:06:39.000Z</Time>
            <Position>
              <LatitudeDegrees>43.4929869510233402252197265625</LatitudeDegrees>
              <LongitudeDegrees>-5.32307974062860012054443359375</LongitudeDegrees>
            </Position>
            <AltitudeMeters>78.59999847412109375</AltitudeMeters>
            <DistanceMeters>NAN</DistanceMeters>
          </Trackpoint>
          <Trackpoint>
            <Time>2022-07-17T12:06:40.000Z</Time>
            <Position>
              <LatitudeDegrees>43.49300019443035125732421875</LatitudeDegrees>
              <LongitudeDegrees>-5.32309985719621181488037109375</LongitudeDegrees>
            </Position>
            <AltitudeMeters>78.8000030517578125</AltitudeMeters>
            <DistanceMeters>NAN</DistanceMeters>
          </Trackpoint>
          <Trackpoint>
            <Time>2022-07-17T12:06:45.000Z</Time>
            <Position>
              <LatitudeDegrees>43.49306322634220123291015625</LatitudeDegrees>
              <LongitudeDegrees>-5.32323279418051242828369140625</LongitudeDegrees>
            </Position>
            <AltitudeMeters>79</AltitudeMeters>
            <DistanceMeters>NAN</DistanceMeters>
          </Trackpoint>
          <Trackpoint>
            <Time>2022-07-17T12:06:51.000Z</Time>
            <Position>
              <LatitudeDegrees>43.49313572980463504791259765625</LatitudeDegrees>
              <LongitudeDegrees>-5.32340101897716522216796875</LongitudeDegrees>
            </Position>
            <AltitudeMeters>79.40000152587890625</AltitudeMeters>
            <DistanceMeters>NAN</DistanceMeters>
          </Trackpoint>
          <Trackpoint>
            <Time>2022-07-17T12:06:54.000Z</Time>
            <Position>
              <LatitudeDegrees>43.49317587912082672119140625</LatitudeDegrees>
              <LongitudeDegrees>-5.323490537703037261962890625</LongitudeDegrees>
            </Position>
            <AltitudeMeters>79.59999847412109375</AltitudeMeters>
            <DistanceMeters>NAN</DistanceMeters>
          </Trackpoint>
          <Trackpoint>
            <Time>2022-07-17T12:07:02.000Z</Time>
            <Position>
              <LatitudeDegrees>43.493282832205295562744140625</LatitudeDegrees>
              <LongitudeDegrees>-5.3237478621304035186767578125</LongitudeDegrees>
            </Position>
            <AltitudeMeters>80</AltitudeMeters>
            <DistanceMeters>NAN</DistanceMeters>
          </Trackpoint>
          <Trackpoint>
            <Time>2022-07-17T12:07:03.000Z</Time>
            <Position>
              <LatitudeDegrees>43.49329532124102115631103515625</LatitudeDegrees>
              <LongitudeDegrees>-5.323781557381153106689453125</LongitudeDegrees>
            </Position>
            <AltitudeMeters>80.1999969482421875</AltitudeMeters>
            <DistanceMeters>NAN</DistanceMeters>
          </Trackpoint>
          <Trackpoint>
            <Time>2022-07-17T12:07:09.000Z</Time>
            <Position>
              <LatitudeDegrees>43.49337394349277019500732421875</LatitudeDegrees>
              <LongitudeDegrees>-5.323980040848255157470703125</LongitudeDegrees>
            </Position>
            <AltitudeMeters>80.40000152587890625</AltitudeMeters>
            <DistanceMeters>NAN</DistanceMeters>
          </Trackpoint>
          <Trackpoint>
            <Time>2022-07-17T12:07:17.000Z</Time>
            <Position>
              <LatitudeDegrees>43.493494056165218353271484375</LatitudeDegrees>
              <LongitudeDegrees>-5.32427734695374965667724609375</LongitudeDegrees>
            </Position>
            <AltitudeMeters>80.59999847412109375</AltitudeMeters>
            <DistanceMeters>NAN</DistanceMeters>
          </Trackpoint>
          <Trackpoint>
            <Time>2022-07-17T12:07:27.000Z</Time>
            <Position>
              <LatitudeDegrees>43.49366110749542713165283203125</LatitudeDegrees>
              <LongitudeDegrees>-5.32468185760080814361572265625</LongitudeDegrees>
            </Position>
            <AltitudeMeters>80.8000030517578125</AltitudeMeters>
            <DistanceMeters>NAN</DistanceMeters>
          </Trackpoint>
          <Trackpoint>
            <Time>2022-07-17T12:07:31.000Z</Time>
            <Position>
              <LatitudeDegrees>43.4937356226146221160888671875</LatitudeDegrees>
              <LongitudeDegrees>-5.32484161667525768280029296875</LongitudeDegrees>
            </Position>
            <AltitudeMeters>80.8000030517578125</AltitudeMeters>
            <DistanceMeters>NAN</DistanceMeters>
          </Trackpoint>
          <Trackpoint>
            <Time>2022-07-17T12:07:35.000Z</Time>
            <Position>
              <LatitudeDegrees>43.49381131120026111602783203125</LatitudeDegrees>
              <LongitudeDegrees>-5.32500187866389751434326171875</LongitudeDegrees>
            </Position>
            <AltitudeMeters>81</AltitudeMeters>
            <DistanceMeters>NAN</DistanceMeters>
          </Trackpoint>
          <Trackpoint>
            <Time>2022-07-17T12:07:40.000Z</Time>
            <Position>
              <LatitudeDegrees>43.49389412440359592437744140625</LatitudeDegrees>
              <LongitudeDegrees>-5.32518158666789531707763671875</LongitudeDegrees>
            </Position>
            <AltitudeMeters>81</AltitudeMeters>
            <DistanceMeters>NAN</DistanceMeters>
          </Trackpoint>
          <Trackpoint>
            <Time>2022-07-17T12:07:44.000Z</Time>
            <Position>
              <LatitudeDegrees>43.49394491873681545257568359375</LatitudeDegrees>
              <LongitudeDegrees>-5.32529273070394992828369140625</LongitudeDegrees>
            </Position>
            <AltitudeMeters>81</AltitudeMeters>
            <DistanceMeters>NAN</DistanceMeters>
          </Trackpoint>
          <Trackpoint>
            <Time>2022-07-17T12:07:45.000Z</Time>
            <Position>
              <LatitudeDegrees>43.49395045079290866851806640625</LatitudeDegrees>
              <LongitudeDegrees>-5.3253028728067874908447265625</LongitudeDegrees>
            </Position>
            <AltitudeMeters>81.1999969482421875</AltitudeMeters>
            <DistanceMeters>NAN</DistanceMeters>
          </Trackpoint>
          <Trackpoint>
            <Time>2022-07-17T12:07:46.000Z</Time>
            <Position>
              <LatitudeDegrees>43.49395045079290866851806640625</LatitudeDegrees>
              <LongitudeDegrees>-5.3253028728067874908447265625</LongitudeDegrees>
            </Position>
            <AltitudeMeters>81.1999969482421875</AltitudeMeters>
            <DistanceMeters>NAN</DistanceMeters>
          </Trackpoint>
          <Trackpoint>
            <Time>2022-07-17T12:07:47.000Z</Time>
            <Position>
              <LatitudeDegrees>43.49395045079290866851806640625</LatitudeDegrees>
              <LongitudeDegrees>-5.3253028728067874908447265625</LongitudeDegrees>
            </Position>
            <AltitudeMeters>81.1999969482421875</AltitudeMeters>
            <DistanceMeters>NAN</DistanceMeters>
          </Trackpoint>
          <Trackpoint>
            <Time>2022-07-17T12:08:41.000Z</Time>
            <Position>
              <LatitudeDegrees>43.49396252073347568511962890625</LatitudeDegrees>
              <LongitudeDegrees>-5.3253330476582050323486328125</LongitudeDegrees>
            </Position>
            <AltitudeMeters>82.8000030517578125</AltitudeMeters>
            <DistanceMeters>NAN</DistanceMeters>
          </Trackpoint>
          <Trackpoint>
            <Time>2022-07-17T12:08:42.000Z</Time>
            <Position>
              <LatitudeDegrees>43.493974171578884124755859375</LatitudeDegrees>
              <LongitudeDegrees>-5.32536841928958892822265625</LongitudeDegrees>
            </Position>
            <AltitudeMeters>83</AltitudeMeters>
            <DistanceMeters>NAN</DistanceMeters>
          </Trackpoint>
          <Trackpoint>
            <Time>2022-07-17T12:08:45.000Z</Time>
            <Position>
              <LatitudeDegrees>43.4940249659121036529541015625</LatitudeDegrees>
              <LongitudeDegrees>-5.325494147837162017822265625</LongitudeDegrees>
            </Position>
            <AltitudeMeters>83</AltitudeMeters>
            <DistanceMeters>NAN</DistanceMeters>
          </Trackpoint>
          <Trackpoint>
            <Time>2022-07-17T12:08:46.000Z</Time>
            <Position>
              <LatitudeDegrees>43.49404600448906421661376953125</LatitudeDegrees>
              <LongitudeDegrees>-5.3255353868007659912109375</LongitudeDegrees>
            </Position>
            <AltitudeMeters>83.1999969482421875</AltitudeMeters>
            <DistanceMeters>NAN</DistanceMeters>
          </Trackpoint>
          <Trackpoint>
            <Time>2022-07-17T12:08:53.000Z</Time>
            <Position>
              <LatitudeDegrees>43.4941704757511615753173828125</LatitudeDegrees>
              <LongitudeDegrees>-5.32582037150859832763671875</LongitudeDegrees>
            </Position>
            <AltitudeMeters>83.40000152587890625</AltitudeMeters>
            <DistanceMeters>NAN</DistanceMeters>
          </Trackpoint>
          <Trackpoint>
            <Time>2022-07-17T12:09:02.000Z</Time>
            <Position>
              <LatitudeDegrees>43.494323529303073883056640625</LatitudeDegrees>
              <LongitudeDegrees>-5.32619026489555835723876953125</LongitudeDegrees>
            </Position>
            <AltitudeMeters>83.59999847412109375</AltitudeMeters>
            <DistanceMeters>NAN</DistanceMeters>
          </Trackpoint>
          <Trackpoint>
            <Time>2022-07-17T12:09:07.000Z</Time>
            <Position>
              <LatitudeDegrees>43.49441296420991420745849609375</LatitudeDegrees>
              <LongitudeDegrees>-5.32638405449688434600830078125</LongitudeDegrees>
            </Position>
            <AltitudeMeters>83.8000030517578125</AltitudeMeters>
            <DistanceMeters>NAN</DistanceMeters>
          </Trackpoint>
          <Trackpoint>
            <Time>2022-07-17T12:09:11.000Z</Time>
            <Position>
              <LatitudeDegrees>43.49450357258319854736328125</LatitudeDegrees>
              <LongitudeDegrees>-5.326528809964656829833984375</LongitudeDegrees>
            </Position>
            <AltitudeMeters>84.40000152587890625</AltitudeMeters>
            <DistanceMeters>NAN</DistanceMeters>
          </Trackpoint>
          <Trackpoint>
            <Time>2022-07-17T12:09:19.000Z</Time>
            <Position>
              <LatitudeDegrees>43.49468001164495944976806640625</LatitudeDegrees>
              <LongitudeDegrees>-5.32680951990187168121337890625</LongitudeDegrees>
            </Position>
            <AltitudeMeters>85</AltitudeMeters>
            <DistanceMeters>NAN</DistanceMeters>
          </Trackpoint>
          <Trackpoint>
            <Time>2022-07-17T12:09:22.000Z</Time>
            <Position>
              <LatitudeDegrees>43.49474052898585796356201171875</LatitudeDegrees>
              <LongitudeDegrees>-5.32691177912056446075439453125</LongitudeDegrees>
            </Position>
            <AltitudeMeters>85.1999969482421875</AltitudeMeters>
            <DistanceMeters>NAN</DistanceMeters>
          </Trackpoint>
          <Trackpoint>
            <Time>2022-07-17T12:09:30.000Z</Time>
            <Position>
              <LatitudeDegrees>43.4948735497891902923583984375</LatitudeDegrees>
              <LongitudeDegrees>-5.32712115906178951263427734375</LongitudeDegrees>
            </Position>
            <AltitudeMeters>85.8000030517578125</AltitudeMeters>
            <DistanceMeters>NAN</DistanceMeters>
          </Trackpoint>
          <Trackpoint>
            <Time>2022-07-17T12:09:32.000Z</Time>
            <Position>
              <LatitudeDegrees>43.494901545345783233642578125</LatitudeDegrees>
              <LongitudeDegrees>-5.32716147601604461669921875</LongitudeDegrees>
            </Position>
            <AltitudeMeters>86</AltitudeMeters>
            <DistanceMeters>NAN</DistanceMeters>
          </Trackpoint>
          <Trackpoint>
            <Time>2022-07-17T12:09:37.000Z</Time>
            <Position>
              <LatitudeDegrees>43.49497237242758274078369140625</LatitudeDegrees>
              <LongitudeDegrees>-5.3272680938243865966796875</LongitudeDegrees>
            </Position>
            <AltitudeMeters>86.40000152587890625</AltitudeMeters>
            <DistanceMeters>NAN</DistanceMeters>
          </Trackpoint>
          <Trackpoint>
            <Time>2022-07-17T12:09:41.000Z</Time>
            <Position>
              <LatitudeDegrees>43.495022915303707122802734375</LatitudeDegrees>
              <LongitudeDegrees>-5.32735166139900684356689453125</LongitudeDegrees>
            </Position>
            <AltitudeMeters>86.59999847412109375</AltitudeMeters>
            <DistanceMeters>NAN</DistanceMeters>
          </Trackpoint>
          <Trackpoint>
            <Time>2022-07-17T12:09:43.000Z</Time>
            <Position>
              <LatitudeDegrees>43.495047390460968017578125</LatitudeDegrees>
              <LongitudeDegrees>-5.327393151819705963134765625</LongitudeDegrees>
            </Position>
            <AltitudeMeters>86.8000030517578125</AltitudeMeters>
            <DistanceMeters>NAN</DistanceMeters>
          </Trackpoint>
          <Trackpoint>
            <Time>2022-07-17T12:09:44.000Z</Time>
            <Position>
              <LatitudeDegrees>43.495057784020900726318359375</LatitudeDegrees>
              <LongitudeDegrees>-5.32741569913923740386962890625</LongitudeDegrees>
            </Position>
            <AltitudeMeters>87</AltitudeMeters>
            <DistanceMeters>NAN</DistanceMeters>
          </Trackpoint>
          <Trackpoint>
            <Time>2022-07-17T12:09:45.000Z</Time>
            <Position>
              <LatitudeDegrees>43.49507144652307033538818359375</LatitudeDegrees>
              <LongitudeDegrees>-5.32743531279265880584716796875</LongitudeDegrees>
            </Position>
            <AltitudeMeters>87</AltitudeMeters>
            <DistanceMeters>NAN</DistanceMeters>
          </Trackpoint>
          <Trackpoint>
            <Time>2022-07-17T12:09:47.000Z</Time>
            <Position>
              <LatitudeDegrees>43.49509407766163349151611328125</LatitudeDegrees>
              <LongitudeDegrees>-5.32747537828981876373291015625</LongitudeDegrees>
            </Position>
            <AltitudeMeters>87.1999969482421875</AltitudeMeters>
            <DistanceMeters>NAN</DistanceMeters>
          </Trackpoint>
          <Trackpoint>
            <Time>2022-07-17T12:09:50.000Z</Time>
            <Position>
              <LatitudeDegrees>43.49512911401689052581787109375</LatitudeDegrees>
              <LongitudeDegrees>-5.32753639854490756988525390625</LongitudeDegrees>
            </Position>
            <AltitudeMeters>87.40000152587890625</AltitudeMeters>
            <DistanceMeters>NAN</DistanceMeters>
          </Trackpoint>
          <Trackpoint>
            <Time>2022-07-17T12:09:55.000Z</Time>
            <Position>
              <LatitudeDegrees>43.4951887093484401702880859375</LatitudeDegrees>
              <LongitudeDegrees>-5.32762977294623851776123046875</LongitudeDegrees>
            </Position>
            <AltitudeMeters>87.8000030517578125</AltitudeMeters>
            <DistanceMeters>NAN</DistanceMeters>
          </Trackpoint>
          <Trackpoint>
            <Time>2022-07-17T12:09:58.000Z</Time>
            <Position>
              <LatitudeDegrees>43.49522081203758716583251953125</LatitudeDegrees>
              <LongitudeDegrees>-5.327687524259090423583984375</LongitudeDegrees>
            </Position>
            <AltitudeMeters>88.1999969482421875</AltitudeMeters>
            <DistanceMeters>NAN</DistanceMeters>
          </Trackpoint>
          <Trackpoint>
            <Time>2022-07-17T12:10:03.000Z</Time>
            <Position>
              <LatitudeDegrees>43.495275713503360748291015625</LatitudeDegrees>
              <LongitudeDegrees>-5.32778768800199031829833984375</LongitudeDegrees>
            </Position>
            <AltitudeMeters>88.59999847412109375</AltitudeMeters>
            <DistanceMeters>NAN</DistanceMeters>
          </Trackpoint>
          <Trackpoint>
            <Time>2022-07-17T12:10:07.000Z</Time>
            <Position>
              <LatitudeDegrees>43.49533103406429290771484375</LatitudeDegrees>
              <LongitudeDegrees>-5.3278580121695995330810546875</LongitudeDegrees>
            </Position>
            <AltitudeMeters>89.1999969482421875</AltitudeMeters>
            <DistanceMeters>NAN</DistanceMeters>
          </Trackpoint>
          <Trackpoint>
            <Time>2022-07-17T12:10:12.000Z</Time>
            <Position>
              <LatitudeDegrees>43.4953932277858257293701171875</LatitudeDegrees>
              <LongitudeDegrees>-5.32795079983770847320556640625</LongitudeDegrees>
            </Position>
            <AltitudeMeters>89.59999847412109375</AltitudeMeters>
            <DistanceMeters>NAN</DistanceMeters>
          </Trackpoint>
          <Trackpoint>
            <Time>2022-07-17T12:10:18.000Z</Time>
            <Position>
              <LatitudeDegrees>43.495485596358776092529296875</LatitudeDegrees>
              <LongitudeDegrees>-5.3280632011592388153076171875</LongitudeDegrees>
            </Position>
            <AltitudeMeters>90.1999969482421875</AltitudeMeters>
            <DistanceMeters>NAN</DistanceMeters>
          </Trackpoint>
          <Trackpoint>
            <Time>2022-07-17T12:10:28.000Z</Time>
            <Position>
              <LatitudeDegrees>43.49562917836010456085205078125</LatitudeDegrees>
              <LongitudeDegrees>-5.3282311744987964630126953125</LongitudeDegrees>
            </Position>
            <AltitudeMeters>91.1999969482421875</AltitudeMeters>
            <DistanceMeters>NAN</DistanceMeters>
          </Trackpoint>
          <Trackpoint>
            <Time>2022-07-17T12:10:30.000Z</Time>
            <Position>
              <LatitudeDegrees>43.49565901793539524078369140625</LatitudeDegrees>
              <LongitudeDegrees>-5.328265540301799774169921875</LongitudeDegrees>
            </Position>
            <AltitudeMeters>91.1999969482421875</AltitudeMeters>
            <DistanceMeters>NAN</DistanceMeters>
          </Trackpoint>
          <Trackpoint>
            <Time>2022-07-17T12:10:38.000Z</Time>
            <Position>
              <LatitudeDegrees>43.4957858361303806304931640625</LatitudeDegrees>
              <LongitudeDegrees>-5.328388921916484832763671875</LongitudeDegrees>
            </Position>
            <AltitudeMeters>92</AltitudeMeters>
            <DistanceMeters>NAN</DistanceMeters>
          </Trackpoint>
          <Trackpoint>
            <Time>2022-07-17T12:10:42.000Z</Time>
            <Position>
              <LatitudeDegrees>43.49584467709064483642578125</LatitudeDegrees>
              <LongitudeDegrees>-5.3284531272947788238525390625</LongitudeDegrees>
            </Position>
            <AltitudeMeters>92.40000152587890625</AltitudeMeters>
            <DistanceMeters>NAN</DistanceMeters>
          </Trackpoint>
          <Trackpoint>
            <Time>2022-07-17T12:10:48.000Z</Time>
            <Position>
              <LatitudeDegrees>43.4959417395293712615966796875</LatitudeDegrees>
              <LongitudeDegrees>-5.32854415476322174072265625</LongitudeDegrees>
            </Position>
            <AltitudeMeters>92.8000030517578125</AltitudeMeters>
            <DistanceMeters>NAN</DistanceMeters>
          </Trackpoint>
          <Trackpoint>
            <Time>2022-07-17T12:10:53.000Z</Time>
            <Position>
              <LatitudeDegrees>43.49601876921951770782470703125</LatitudeDegrees>
              <LongitudeDegrees>-5.328617580235004425048828125</LongitudeDegrees>
            </Position>
            <AltitudeMeters>93.40000152587890625</AltitudeMeters>
            <DistanceMeters>NAN</DistanceMeters>
          </Trackpoint>
          <Trackpoint>
            <Time>2022-07-17T12:10:58.000Z</Time>
            <Position>
              <LatitudeDegrees>43.4961030073463916778564453125</LatitudeDegrees>
              <LongitudeDegrees>-5.32867466099560260772705078125</LongitudeDegrees>
            </Position>
            <AltitudeMeters>93.8000030517578125</AltitudeMeters>
            <DistanceMeters>NAN</DistanceMeters>
          </Trackpoint>
          <Trackpoint>
            <Time>2022-07-17T12:11:07.000Z</Time>
            <Position>
              <LatitudeDegrees>43.496261425316333770751953125</LatitudeDegrees>
              <LongitudeDegrees>-5.32874741591513156890869140625</LongitudeDegrees>
            </Position>
            <AltitudeMeters>94.40000152587890625</AltitudeMeters>
            <DistanceMeters>NAN</DistanceMeters>
          </Trackpoint>
          <Trackpoint>
            <Time>2022-07-17T12:11:17.000Z</Time>
            <Position>
              <LatitudeDegrees>43.49643048830330371856689453125</LatitudeDegrees>
              <LongitudeDegrees>-5.32878899015486240386962890625</LongitudeDegrees>
            </Position>
            <AltitudeMeters>95.1999969482421875</AltitudeMeters>
            <DistanceMeters>NAN</DistanceMeters>
          </Trackpoint>
          <Trackpoint>
            <Time>2022-07-17T12:11:19.000Z</Time>
            <Position>
              <LatitudeDegrees>43.49645999260246753692626953125</LatitudeDegrees>
              <LongitudeDegrees>-5.3287954442203044891357421875</LongitudeDegrees>
            </Position>
            <AltitudeMeters>95.59999847412109375</AltitudeMeters>
            <DistanceMeters>NAN</DistanceMeters>
          </Trackpoint>
          <Trackpoint>
            <Time>2022-07-17T12:11:25.000Z</Time>
            <Position>
              <LatitudeDegrees>43.49657013081014156341552734375</LatitudeDegrees>
              <LongitudeDegrees>-5.32884045504033565521240234375</LongitudeDegrees>
            </Position>
            <AltitudeMeters>96</AltitudeMeters>
            <DistanceMeters>NAN</DistanceMeters>
          </Trackpoint>
          <Trackpoint>
            <Time>2022-07-17T12:11:27.000Z</Time>
            <Position>
              <LatitudeDegrees>43.496603406965732574462890625</LatitudeDegrees>
              <LongitudeDegrees>-5.328855626285076141357421875</LongitudeDegrees>
            </Position>
            <AltitudeMeters>96.1999969482421875</AltitudeMeters>
            <DistanceMeters>NAN</DistanceMeters>
          </Trackpoint>
          <Trackpoint>
            <Time>2022-07-17T12:11:31.000Z</Time>
            <Position>
              <LatitudeDegrees>43.4966645948588848114013671875</LatitudeDegrees>
              <LongitudeDegrees>-5.32890683971345424652099609375</LongitudeDegrees>
            </Position>
            <AltitudeMeters>96.59999847412109375</AltitudeMeters>
            <DistanceMeters>NAN</DistanceMeters>
          </Trackpoint>
          <Trackpoint>
            <Time>2022-07-17T12:11:32.000Z</Time>
            <Position>
              <LatitudeDegrees>43.496683873236179351806640625</LatitudeDegrees>
              <LongitudeDegrees>-5.32891832292079925537109375</LongitudeDegrees>
            </Position>
            <AltitudeMeters>96.59999847412109375</AltitudeMeters>
            <DistanceMeters>NAN</DistanceMeters>
          </Trackpoint>
          <Trackpoint>
            <Time>2022-07-17T12:11:41.000Z</Time>
            <Position>
              <LatitudeDegrees>43.49684589542448520660400390625</LatitudeDegrees>
              <LongitudeDegrees>-5.3290418721735477447509765625</LongitudeDegrees>
            </Position>
            <AltitudeMeters>97.59999847412109375</AltitudeMeters>
            <DistanceMeters>NAN</DistanceMeters>
          </Trackpoint>
          <Trackpoint>
            <Time>2022-07-17T12:11:45.000Z</Time>
            <Position>
              <LatitudeDegrees>43.49691621959209442138671875</LatitudeDegrees>
              <LongitudeDegrees>-5.32908336259424686431884765625</LongitudeDegrees>
            </Position>
            <AltitudeMeters>98</AltitudeMeters>
            <DistanceMeters>NAN</DistanceMeters>
          </Trackpoint>
          <Trackpoint>
            <Time>2022-07-17T12:11:53.000Z</Time>
            <Position>
              <LatitudeDegrees>43.49704354070127010345458984375</LatitudeDegrees>
              <LongitudeDegrees>-5.32913818024098873138427734375</LongitudeDegrees>
            </Position>
            <AltitudeMeters>98.59999847412109375</AltitudeMeters>
            <DistanceMeters>NAN</DistanceMeters>
          </Trackpoint>
          <Trackpoint>
            <Time>2022-07-17T12:11:55.000Z</Time>
            <Position>
              <LatitudeDegrees>43.4970764815807342529296875</LatitudeDegrees>
              <LongitudeDegrees>-5.3291548602283000946044921875</LongitudeDegrees>
            </Position>
            <AltitudeMeters>98.8000030517578125</AltitudeMeters>
            <DistanceMeters>NAN</DistanceMeters>
          </Trackpoint>
          <Trackpoint>
            <Time>2022-07-17T12:12:05.000Z</Time>
            <Position>
              <LatitudeDegrees>43.49724344909191131591796875</LatitudeDegrees>
              <LongitudeDegrees>-5.3292448818683624267578125</LongitudeDegrees>
            </Position>
            <AltitudeMeters>99.59999847412109375</AltitudeMeters>
            <DistanceMeters>NAN</DistanceMeters>
          </Trackpoint>
          <Trackpoint>
            <Time>2022-07-17T12:12:07.000Z</Time>
            <Position>
              <LatitudeDegrees>43.49727697670459747314453125</LatitudeDegrees>
              <LongitudeDegrees>-5.32926022075116634368896484375</LongitudeDegrees>
            </Position>
            <AltitudeMeters>99.59999847412109375</AltitudeMeters>
            <DistanceMeters>NAN</DistanceMeters>
          </Trackpoint>
          <Trackpoint>
            <Time>2022-07-17T12:12:14.000Z</Time>
            <Position>
              <LatitudeDegrees>43.49740010686218738555908203125</LatitudeDegrees>
              <LongitudeDegrees>-5.329319648444652557373046875</LongitudeDegrees>
            </Position>
            <AltitudeMeters>100</AltitudeMeters>
            <DistanceMeters>NAN</DistanceMeters>
          </Trackpoint>
          <Trackpoint>
            <Time>2022-07-17T12:12:18.000Z</Time>
            <Position>
              <LatitudeDegrees>43.497469760477542877197265625</LatitudeDegrees>
              <LongitudeDegrees>-5.32935225404798984527587890625</LongitudeDegrees>
            </Position>
            <AltitudeMeters>100.8000030517578125</AltitudeMeters>
            <DistanceMeters>NAN</DistanceMeters>
          </Trackpoint>
          <Trackpoint>
            <Time>2022-07-17T12:12:23.000Z</Time>
            <Position>
              <LatitudeDegrees>43.49755114875733852386474609375</LatitudeDegrees>
              <LongitudeDegrees>-5.32938695512712001800537109375</LongitudeDegrees>
            </Position>
            <AltitudeMeters>101</AltitudeMeters>
            <DistanceMeters>NAN</DistanceMeters>
          </Trackpoint>
          <Trackpoint>
            <Time>2022-07-17T12:12:28.000Z</Time>
            <Position>
              <LatitudeDegrees>43.49763463251292705535888671875</LatitudeDegrees>
              <LongitudeDegrees>-5.32942282967269420623779296875</LongitudeDegrees>
            </Position>
            <AltitudeMeters>101.40000152587890625</AltitudeMeters>
            <DistanceMeters>NAN</DistanceMeters>
          </Trackpoint>
          <Trackpoint>
            <Time>2022-07-17T12:12:32.000Z</Time>
            <Position>
              <LatitudeDegrees>43.4977148473262786865234375</LatitudeDegrees>
              <LongitudeDegrees>-5.32945501618087291717529296875</LongitudeDegrees>
            </Position>
            <AltitudeMeters>101.59999847412109375</AltitudeMeters>
            <DistanceMeters>NAN</DistanceMeters>
          </Trackpoint>
          <Trackpoint>
            <Time>2022-07-17T12:12:34.000Z</Time>
            <Position>
              <LatitudeDegrees>43.4977458603680133819580078125</LatitudeDegrees>
              <LongitudeDegrees>-5.32946809194982051849365234375</LongitudeDegrees>
            </Position>
            <AltitudeMeters>101.8000030517578125</AltitudeMeters>
            <DistanceMeters>NAN</DistanceMeters>
          </Trackpoint>
          <Trackpoint>
            <Time>2022-07-17T12:12:42.000Z</Time>
            <Position>
              <LatitudeDegrees>43.4979000873863697052001953125</LatitudeDegrees>
              <LongitudeDegrees>-5.3295229934155941009521484375</LongitudeDegrees>
            </Position>
            <AltitudeMeters>102.59999847412109375</AltitudeMeters>
            <DistanceMeters>NAN</DistanceMeters>
          </Trackpoint>
          <Trackpoint>
            <Time>2022-07-17T12:12:43.000Z</Time>
            <Position>
              <LatitudeDegrees>43.4979181922972202301025390625</LatitudeDegrees>
              <LongitudeDegrees>-5.329529531300067901611328125</LongitudeDegrees>
            </Position>
            <AltitudeMeters>103</AltitudeMeters>
            <DistanceMeters>NAN</DistanceMeters>
          </Trackpoint>
          <Trackpoint>
            <Time>2022-07-17T12:12:53.000Z</Time>
            <Position>
              <LatitudeDegrees>43.4980962239205837249755859375</LatitudeDegrees>
              <LongitudeDegrees>-5.3295880369842052459716796875</LongitudeDegrees>
            </Position>
            <AltitudeMeters>104</AltitudeMeters>
            <DistanceMeters>NAN</DistanceMeters>
          </Trackpoint>
          <Trackpoint>
            <Time>2022-07-17T12:13:00.000Z</Time>
            <Position>
              <LatitudeDegrees>43.4982246346771717071533203125</LatitudeDegrees>
              <LongitudeDegrees>-5.3296212293207645416259765625</LongitudeDegrees>
            </Position>
            <AltitudeMeters>104.40000152587890625</AltitudeMeters>
            <DistanceMeters>NAN</DistanceMeters>
          </Trackpoint>
          <Trackpoint>
            <Time>2022-07-17T12:13:06.000Z</Time>
            <Position>
              <LatitudeDegrees>43.49831926636397838592529296875</LatitudeDegrees>
              <LongitudeDegrees>-5.329643525183200836181640625</LongitudeDegrees>
            </Position>
            <AltitudeMeters>105</AltitudeMeters>
            <DistanceMeters>NAN</DistanceMeters>
          </Trackpoint>
          <Trackpoint>
            <Time>2022-07-17T12:13:15.000Z</Time>
            <Position>
              <LatitudeDegrees>43.49846544675529003143310546875</LatitudeDegrees>
              <LongitudeDegrees>-5.32969071529805660247802734375</LongitudeDegrees>
            </Position>
            <AltitudeMeters>105.59999847412109375</AltitudeMeters>
            <DistanceMeters>NAN</DistanceMeters>
          </Trackpoint>
          <Trackpoint>
            <Time>2022-07-17T12:13:21.000Z</Time>
            <Position>
              <LatitudeDegrees>43.49856049753725528717041015625</LatitudeDegrees>
              <LongitudeDegrees>-5.32971653155982494354248046875</LongitudeDegrees>
            </Position>
            <AltitudeMeters>106</AltitudeMeters>
            <DistanceMeters>NAN</DistanceMeters>
          </Trackpoint>
          <Trackpoint>
            <Time>2022-07-17T12:13:23.000Z</Time>
            <Position>
              <LatitudeDegrees>43.49858614616096019744873046875</LatitudeDegrees>
              <LongitudeDegrees>-5.32972189597785472869873046875</LongitudeDegrees>
            </Position>
            <AltitudeMeters>106.1999969482421875</AltitudeMeters>
            <DistanceMeters>NAN</DistanceMeters>
          </Trackpoint>
          <Trackpoint>
            <Time>2022-07-17T12:13:32.000Z</Time>
            <Position>
              <LatitudeDegrees>43.49872780032455921173095703125</LatitudeDegrees>
              <LongitudeDegrees>-5.32975173555314540863037109375</LongitudeDegrees>
            </Position>
            <AltitudeMeters>106.8000030517578125</AltitudeMeters>
            <DistanceMeters>NAN</DistanceMeters>
          </Trackpoint>
          <Trackpoint>
            <Time>2022-07-17T12:13:33.000Z</Time>
            <Position>
              <LatitudeDegrees>43.49874221719801425933837890625</LatitudeDegrees>
              <LongitudeDegrees>-5.3297550044953823089599609375</LongitudeDegrees>
            </Position>
            <AltitudeMeters>107</AltitudeMeters>
            <DistanceMeters>NAN</DistanceMeters>
          </Trackpoint>
          <Trackpoint>
            <Time>2022-07-17T12:13:40.000Z</Time>
            <Position>
              <LatitudeDegrees>43.498873896896839141845703125</LatitudeDegrees>
              <LongitudeDegrees>-5.32974888570606708526611328125</LongitudeDegrees>
            </Position>
            <AltitudeMeters>107.59999847412109375</AltitudeMeters>
            <DistanceMeters>NAN</DistanceMeters>
          </Trackpoint>
          <Trackpoint>
            <Time>2022-07-17T12:13:44.000Z</Time>
            <Position>
              <LatitudeDegrees>43.49893650971353054046630859375</LatitudeDegrees>
              <LongitudeDegrees>-5.3297496400773525238037109375</LongitudeDegrees>
            </Position>
            <AltitudeMeters>108</AltitudeMeters>
            <DistanceMeters>NAN</DistanceMeters>
          </Trackpoint>
          <Trackpoint>
            <Time>2022-07-17T12:13:49.000Z</Time>
            <Position>
              <LatitudeDegrees>43.49901613779366016387939453125</LatitudeDegrees>
              <LongitudeDegrees>-5.329760201275348663330078125</LongitudeDegrees>
            </Position>
            <AltitudeMeters>108.40000152587890625</AltitudeMeters>
            <DistanceMeters>NAN</DistanceMeters>
          </Trackpoint>
          <Trackpoint>
            <Time>2022-07-17T12:13:54.000Z</Time>
            <Position>
              <LatitudeDegrees>43.4990926645696163177490234375</LatitudeDegrees>
              <LongitudeDegrees>-5.32977755181491374969482421875</LongitudeDegrees>
            </Position>
            <AltitudeMeters>109</AltitudeMeters>
            <DistanceMeters>NAN</DistanceMeters>
          </Trackpoint>
          <Trackpoint>
            <Time>2022-07-17T12:13:57.000Z</Time>
            <Position>
              <LatitudeDegrees>43.49911806173622608184814453125</LatitudeDegrees>
              <LongitudeDegrees>-5.3297942318022251129150390625</LongitudeDegrees>
            </Position>
            <AltitudeMeters>109.40000152587890625</AltitudeMeters>
            <DistanceMeters>NAN</DistanceMeters>
          </Trackpoint>
          <Trackpoint>
            <Time>2022-07-17T12:14:03.000Z</Time>
            <Position>
              <LatitudeDegrees>43.49919341504573822021484375</LatitudeDegrees>
              <LongitudeDegrees>-5.329860784113407135009765625</LongitudeDegrees>
            </Position>
            <AltitudeMeters>110</AltitudeMeters>
            <DistanceMeters>NAN</DistanceMeters>
          </Trackpoint>
          <Trackpoint>
            <Time>2022-07-17T12:14:06.000Z</Time>
            <Position>
              <LatitudeDegrees>43.4992276132106781005859375</LatitudeDegrees>
              <LongitudeDegrees>-5.32987696118652820587158203125</LongitudeDegrees>
            </Position>
            <AltitudeMeters>110.40000152587890625</AltitudeMeters>
            <DistanceMeters>NAN</DistanceMeters>
          </Trackpoint>
          <Trackpoint>
            <Time>2022-07-17T12:14:14.000Z</Time>
            <Position>
              <LatitudeDegrees>43.4993716143071651458740234375</LatitudeDegrees>
              <LongitudeDegrees>-5.3298834152519702911376953125</LongitudeDegrees>
            </Position>
            <AltitudeMeters>111.1999969482421875</AltitudeMeters>
            <DistanceMeters>NAN</DistanceMeters>
          </Trackpoint>
          <Trackpoint>
            <Time>2022-07-17T12:14:20.000Z</Time>
            <Position>
              <LatitudeDegrees>43.4994556009769439697265625</LatitudeDegrees>
              <LongitudeDegrees>-5.32982264645397663116455078125</LongitudeDegrees>
            </Position>
            <AltitudeMeters>111.8000030517578125</AltitudeMeters>
            <DistanceMeters>NAN</DistanceMeters>
          </Trackpoint>
          <Trackpoint>
            <Time>2022-07-17T12:14:23.000Z</Time>
            <Position>
              <LatitudeDegrees>43.499497510492801666259765625</LatitudeDegrees>
              <LongitudeDegrees>-5.3297908790409564971923828125</LongitudeDegrees>
            </Position>
            <AltitudeMeters>112</AltitudeMeters>
            <DistanceMeters>NAN</DistanceMeters>
          </Trackpoint>
          <Trackpoint>
            <Time>2022-07-17T12:14:25.000Z</Time>
            <Position>
              <LatitudeDegrees>43.49952206946909427642822265625</LatitudeDegrees>
              <LongitudeDegrees>-5.3297633863985538482666015625</LongitudeDegrees>
            </Position>
            <AltitudeMeters>112.1999969482421875</AltitudeMeters>
            <DistanceMeters>NAN</DistanceMeters>
          </Trackpoint>
          <Trackpoint>
            <Time>2022-07-17T12:14:27.000Z</Time>
            <Position>
              <LatitudeDegrees>43.4995389170944690704345703125</LatitudeDegrees>
              <LongitudeDegrees>-5.32973446883261203765869140625</LongitudeDegrees>
            </Position>
            <AltitudeMeters>112.40000152587890625</AltitudeMeters>
            <DistanceMeters>NAN</DistanceMeters>
          </Trackpoint>
          <Trackpoint>
            <Time>2022-07-17T12:14:28.000Z</Time>
            <Position>
              <LatitudeDegrees>43.4995419345796108245849609375</LatitudeDegrees>
              <LongitudeDegrees>-5.3297157771885395050048828125</LongitudeDegrees>
            </Position>
            <AltitudeMeters>112.59999847412109375</AltitudeMeters>
            <DistanceMeters>NAN</DistanceMeters>
          </Trackpoint>
          <Trackpoint>
            <Time>2022-07-17T12:14:31.000Z</Time>
            <Position>
              <LatitudeDegrees>43.49959130398929119110107421875</LatitudeDegrees>
              <LongitudeDegrees>-5.3296550922095775604248046875</LongitudeDegrees>
            </Position>
            <AltitudeMeters>112.8000030517578125</AltitudeMeters>
            <DistanceMeters>NAN</DistanceMeters>
          </Trackpoint>
          <Trackpoint>
            <Time>2022-07-17T12:14:33.000Z</Time>
            <Position>
              <LatitudeDegrees>43.49960790015757083892822265625</LatitudeDegrees>
              <LongitudeDegrees>-5.32959851436316967010498046875</LongitudeDegrees>
            </Position>
            <AltitudeMeters>113</AltitudeMeters>
            <DistanceMeters>NAN</DistanceMeters>
          </Trackpoint>
          <Trackpoint>
            <Time>2022-07-17T12:14:34.000Z</Time>
            <Position>
              <LatitudeDegrees>43.49961527623236179351806640625</LatitudeDegrees>
              <LongitudeDegrees>-5.329553671181201934814453125</LongitudeDegrees>
            </Position>
            <AltitudeMeters>113</AltitudeMeters>
            <DistanceMeters>NAN</DistanceMeters>
          </Trackpoint>
          <Trackpoint>
            <Time>2022-07-17T12:14:37.000Z</Time>
            <Position>
              <LatitudeDegrees>43.4996683336794376373291015625</LatitudeDegrees>
              <LongitudeDegrees>-5.32941520214080810546875</LongitudeDegrees>
            </Position>
            <AltitudeMeters>113.40000152587890625</AltitudeMeters>
            <DistanceMeters>NAN</DistanceMeters>
          </Trackpoint>
          <Trackpoint>
            <Time>2022-07-17T12:14:38.000Z</Time>
            <Position>
              <LatitudeDegrees>43.49968719296157360076904296875</LatitudeDegrees>
              <LongitudeDegrees>-5.32938209362328052520751953125</LongitudeDegrees>
            </Position>
            <AltitudeMeters>113.40000152587890625</AltitudeMeters>
            <DistanceMeters>NAN</DistanceMeters>
          </Trackpoint>
          <Trackpoint>
            <Time>2022-07-17T12:14:40.000Z</Time>
            <Position>
              <LatitudeDegrees>43.49975491873919963836669921875</LatitudeDegrees>
              <LongitudeDegrees>-5.32931864261627197265625</LongitudeDegrees>
            </Position>
            <AltitudeMeters>113.59999847412109375</AltitudeMeters>
            <DistanceMeters>NAN</DistanceMeters>
          </Trackpoint>
          <Trackpoint>
            <Time>2022-07-17T12:14:43.000Z</Time>
            <Position>
              <LatitudeDegrees>43.499753661453723907470703125</LatitudeDegrees>
              <LongitudeDegrees>-5.32927078194916248321533203125</LongitudeDegrees>
            </Position>
            <AltitudeMeters>114</AltitudeMeters>
            <DistanceMeters>NAN</DistanceMeters>
          </Trackpoint>
          <Trackpoint>
            <Time>2022-07-17T12:14:47.000Z</Time>
            <Position>
              <LatitudeDegrees>43.49976464174687862396240234375</LatitudeDegrees>
              <LongitudeDegrees>-5.32924555242061614990234375</LongitudeDegrees>
            </Position>
            <AltitudeMeters>114.1999969482421875</AltitudeMeters>
            <DistanceMeters>NAN</DistanceMeters>
          </Trackpoint>
          <Trackpoint>
            <Time>2022-07-17T12:14:48.000Z</Time>
            <Position>
              <LatitudeDegrees>43.49977101199328899383544921875</LatitudeDegrees>
              <LongitudeDegrees>-5.32922786660492420196533203125</LongitudeDegrees>
            </Position>
            <AltitudeMeters>114.40000152587890625</AltitudeMeters>
            <DistanceMeters>NAN</DistanceMeters>
          </Trackpoint>
          <Trackpoint>
            <Time>2022-07-17T12:14:55.000Z</Time>
            <Position>
              <LatitudeDegrees>43.4998319484293460845947265625</LatitudeDegrees>
              <LongitudeDegrees>-5.32910582609474658966064453125</LongitudeDegrees>
            </Position>
            <AltitudeMeters>115.1999969482421875</AltitudeMeters>
            <DistanceMeters>NAN</DistanceMeters>
          </Trackpoint>
          <Trackpoint>
            <Time>2022-07-17T12:14:57.000Z</Time>
            <Position>
              <LatitudeDegrees>43.49985064007341861724853515625</LatitudeDegrees>
              <LongitudeDegrees>-5.32907749526202678680419921875</LongitudeDegrees>
            </Position>
            <AltitudeMeters>115.40000152587890625</AltitudeMeters>
            <DistanceMeters>NAN</DistanceMeters>
          </Trackpoint>
          <Trackpoint>
            <Time>2022-07-17T12:15:03.000Z</Time>
            <Position>
              <LatitudeDegrees>43.49989757873117923736572265625</LatitudeDegrees>
              <LongitudeDegrees>-5.32898001372814178466796875</LongitudeDegrees>
            </Position>
            <AltitudeMeters>116</AltitudeMeters>
            <DistanceMeters>NAN</DistanceMeters>
          </Trackpoint>
          <Trackpoint>
            <Time>2022-07-17T12:15:05.000Z</Time>
            <Position>
              <LatitudeDegrees>43.499913252890110015869140625</LatitudeDegrees>
              <LongitudeDegrees>-5.328954868018627166748046875</LongitudeDegrees>
            </Position>
            <AltitudeMeters>116</AltitudeMeters>
            <DistanceMeters>NAN</DistanceMeters>
          </Trackpoint>
          <Trackpoint>
            <Time>2022-07-17T12:15:08.000Z</Time>
            <Position>
              <LatitudeDegrees>43.49994166754186153411865234375</LatitudeDegrees>
              <LongitudeDegrees>-5.32891756854951381683349609375</LongitudeDegrees>
            </Position>
            <AltitudeMeters>116.59999847412109375</AltitudeMeters>
            <DistanceMeters>NAN</DistanceMeters>
          </Trackpoint>
          <Trackpoint>
            <Time>2022-07-17T12:15:14.000Z</Time>
            <Position>
              <LatitudeDegrees>43.4999985806643962860107421875</LatitudeDegrees>
              <LongitudeDegrees>-5.32885001040995121002197265625</LongitudeDegrees>
            </Position>
            <AltitudeMeters>117</AltitudeMeters>
            <DistanceMeters>NAN</DistanceMeters>
          </Trackpoint>
          <Trackpoint>
            <Time>2022-07-17T12:15:19.000Z</Time>
            <Position>
              <LatitudeDegrees>43.50003688596189022064208984375</LatitudeDegrees>
              <LongitudeDegrees>-5.3288081847131252288818359375</LongitudeDegrees>
            </Position>
            <AltitudeMeters>117.59999847412109375</AltitudeMeters>
            <DistanceMeters>NAN</DistanceMeters>
          </Trackpoint>
          <Trackpoint>
            <Time>2022-07-17T12:15:20.000Z</Time>
            <Position>
              <LatitudeDegrees>43.50004845298826694488525390625</LatitudeDegrees>
              <LongitudeDegrees>-5.3287998028099536895751953125</LongitudeDegrees>
            </Position>
            <AltitudeMeters>117.59999847412109375</AltitudeMeters>
            <DistanceMeters>NAN</DistanceMeters>
          </Trackpoint>
          <Trackpoint>
            <Time>2022-07-17T12:15:21.000Z</Time>
            <Position>
              <LatitudeDegrees>43.50006580352783203125</LatitudeDegrees>
              <LongitudeDegrees>-5.3287889063358306884765625</LongitudeDegrees>
            </Position>
            <AltitudeMeters>117.8000030517578125</AltitudeMeters>
            <DistanceMeters>NAN</DistanceMeters>
          </Trackpoint>
          <Trackpoint>
            <Time>2022-07-17T12:15:29.000Z</Time>
            <Position>
              <LatitudeDegrees>43.500172756612300872802734375</LatitudeDegrees>
              <LongitudeDegrees>-5.32875076867640018463134765625</LongitudeDegrees>
            </Position>
            <AltitudeMeters>118.59999847412109375</AltitudeMeters>
            <DistanceMeters>NAN</DistanceMeters>
          </Trackpoint>
          <Trackpoint>
            <Time>2022-07-17T12:15:31.000Z</Time>
            <Position>
              <LatitudeDegrees>43.5002052783966064453125</LatitudeDegrees>
              <LongitudeDegrees>-5.32875378616154193878173828125</LongitudeDegrees>
            </Position>
            <AltitudeMeters>118.8000030517578125</AltitudeMeters>
            <DistanceMeters>NAN</DistanceMeters>
          </Trackpoint>
          <Trackpoint>
            <Time>2022-07-17T12:15:42.000Z</Time>
            <Position>
              <LatitudeDegrees>43.50035221315920352935791015625</LatitudeDegrees>
              <LongitudeDegrees>-5.3288427181541919708251953125</LongitudeDegrees>
            </Position>
            <AltitudeMeters>119.1999969482421875</AltitudeMeters>
            <DistanceMeters>NAN</DistanceMeters>
          </Trackpoint>
          <Trackpoint>
            <Time>2022-07-17T12:15:47.000Z</Time>
            <Position>
              <LatitudeDegrees>43.50041876547038555145263671875</LatitudeDegrees>
              <LongitudeDegrees>-5.32890315167605876922607421875</LongitudeDegrees>
            </Position>
            <AltitudeMeters>119.59999847412109375</AltitudeMeters>
            <DistanceMeters>NAN</DistanceMeters>
          </Trackpoint>
          <Trackpoint>
            <Time>2022-07-17T12:15:50.000Z</Time>
            <Position>
              <LatitudeDegrees>43.5004522092640399932861328125</LatitudeDegrees>
              <LongitudeDegrees>-5.328924693167209625244140625</LongitudeDegrees>
            </Position>
            <AltitudeMeters>119.8000030517578125</AltitudeMeters>
            <DistanceMeters>NAN</DistanceMeters>
          </Trackpoint>
          <Trackpoint>
            <Time>2022-07-17T12:15:51.000Z</Time>
            <Position>
              <LatitudeDegrees>43.50046486593782901763916015625</LatitudeDegrees>
              <LongitudeDegrees>-5.328935086727142333984375</LongitudeDegrees>
            </Position>
            <AltitudeMeters>120</AltitudeMeters>
            <DistanceMeters>NAN</DistanceMeters>
          </Trackpoint>
          <Trackpoint>
            <Time>2022-07-17T12:15:56.000Z</Time>
            <Position>
              <LatitudeDegrees>43.50053317844867706298828125</LatitudeDegrees>
              <LongitudeDegrees>-5.32897531986236572265625</LongitudeDegrees>
            </Position>
            <AltitudeMeters>120.59999847412109375</AltitudeMeters>
            <DistanceMeters>NAN</DistanceMeters>
          </Trackpoint>
          <Trackpoint>
            <Time>2022-07-17T12:16:00.000Z</Time>
            <Position>
              <LatitudeDegrees>43.50057835690677165985107421875</LatitudeDegrees>
              <LongitudeDegrees>-5.32901479862630367279052734375</LongitudeDegrees>
            </Position>
            <AltitudeMeters>120.59999847412109375</AltitudeMeters>
            <DistanceMeters>NAN</DistanceMeters>
          </Trackpoint>
          <Trackpoint>
            <Time>2022-07-17T12:16:03.000Z</Time>
            <Position>
              <LatitudeDegrees>43.5006062686443328857421875</LatitudeDegrees>
              <LongitudeDegrees>-5.32903365790843963623046875</LongitudeDegrees>
            </Position>
            <AltitudeMeters>121</AltitudeMeters>
            <DistanceMeters>NAN</DistanceMeters>
          </Trackpoint>
          <Trackpoint>
            <Time>2022-07-17T12:16:06.000Z</Time>
            <Position>
              <LatitudeDegrees>43.500638119876384735107421875</LatitudeDegrees>
              <LongitudeDegrees>-5.329070873558521270751953125</LongitudeDegrees>
            </Position>
            <AltitudeMeters>121.1999969482421875</AltitudeMeters>
            <DistanceMeters>NAN</DistanceMeters>
          </Trackpoint>
          <Trackpoint>
            <Time>2022-07-17T12:16:10.000Z</Time>
            <Position>
              <LatitudeDegrees>43.5006748326122760772705078125</LatitudeDegrees>
              <LongitudeDegrees>-5.3291099332273006439208984375</LongitudeDegrees>
            </Position>
            <AltitudeMeters>121.59999847412109375</AltitudeMeters>
            <DistanceMeters>NAN</DistanceMeters>
          </Trackpoint>
          <Trackpoint>
            <Time>2022-07-17T12:16:11.000Z</Time>
            <Position>
              <LatitudeDegrees>43.50068195722997188568115234375</LatitudeDegrees>
              <LongitudeDegrees>-5.32912359572947025299072265625</LongitudeDegrees>
            </Position>
            <AltitudeMeters>121.8000030517578125</AltitudeMeters>
            <DistanceMeters>NAN</DistanceMeters>
          </Trackpoint>
          <Trackpoint>
            <Time>2022-07-17T12:16:20.000Z</Time>
            <Position>
              <LatitudeDegrees>43.5008022375404834747314453125</LatitudeDegrees>
              <LongitudeDegrees>-5.32920188270509243011474609375</LongitudeDegrees>
            </Position>
            <AltitudeMeters>122.40000152587890625</AltitudeMeters>
            <DistanceMeters>NAN</DistanceMeters>
          </Trackpoint>
          <Trackpoint>
            <Time>2022-07-17T12:16:24.000Z</Time>
            <Position>
              <LatitudeDegrees>43.50086401216685771942138671875</LatitudeDegrees>
              <LongitudeDegrees>-5.32920791767537593841552734375</LongitudeDegrees>
            </Position>
            <AltitudeMeters>122.59999847412109375</AltitudeMeters>
            <DistanceMeters>NAN</DistanceMeters>
          </Trackpoint>
          <Trackpoint>
            <Time>2022-07-17T12:16:27.000Z</Time>
            <Position>
              <LatitudeDegrees>43.50090793333947658538818359375</LatitudeDegrees>
              <LongitudeDegrees>-5.329230464994907379150390625</LongitudeDegrees>
            </Position>
            <AltitudeMeters>122.8000030517578125</AltitudeMeters>
            <DistanceMeters>NAN</DistanceMeters>
          </Trackpoint>
          <Trackpoint>
            <Time>2022-07-17T12:16:35.000Z</Time>
            <Position>
              <LatitudeDegrees>43.50102310068905353546142578125</LatitudeDegrees>
              <LongitudeDegrees>-5.329278074204921722412109375</LongitudeDegrees>
            </Position>
            <AltitudeMeters>123.8000030517578125</AltitudeMeters>
            <DistanceMeters>NAN</DistanceMeters>
          </Trackpoint>
          <Trackpoint>
            <Time>2022-07-17T12:16:45.000Z</Time>
            <Position>
              <LatitudeDegrees>43.50116592831909656524658203125</LatitudeDegrees>
              <LongitudeDegrees>-5.32935376279056072235107421875</LongitudeDegrees>
            </Position>
            <AltitudeMeters>124.59999847412109375</AltitudeMeters>
            <DistanceMeters>NAN</DistanceMeters>
          </Trackpoint>
          <Trackpoint>
            <Time>2022-07-17T12:16:47.000Z</Time>
            <Position>
              <LatitudeDegrees>43.50119425915181636810302734375</LatitudeDegrees>
              <LongitudeDegrees>-5.329367928206920623779296875</LongitudeDegrees>
            </Position>
            <AltitudeMeters>125</AltitudeMeters>
            <DistanceMeters>NAN</DistanceMeters>
          </Trackpoint>
          <Trackpoint>
            <Time>2022-07-17T12:16:52.000Z</Time>
            <Position>
              <LatitudeDegrees>43.501268438994884490966796875</LatitudeDegrees>
              <LongitudeDegrees>-5.32938293181359767913818359375</LongitudeDegrees>
            </Position>
            <AltitudeMeters>125.40000152587890625</AltitudeMeters>
            <DistanceMeters>NAN</DistanceMeters>
          </Trackpoint>
          <Trackpoint>
            <Time>2022-07-17T12:17:01.000Z</Time>
            <Position>
              <LatitudeDegrees>43.50140548311173915863037109375</LatitudeDegrees>
              <LongitudeDegrees>-5.32936532981693744659423828125</LongitudeDegrees>
            </Position>
            <AltitudeMeters>126.1999969482421875</AltitudeMeters>
            <DistanceMeters>NAN</DistanceMeters>
          </Trackpoint>
          <Trackpoint>
            <Time>2022-07-17T12:17:03.000Z</Time>
            <Position>
              <LatitudeDegrees>43.50143305957317352294921875</LatitudeDegrees>
              <LongitudeDegrees>-5.32936214469373226165771484375</LongitudeDegrees>
            </Position>
            <AltitudeMeters>126.40000152587890625</AltitudeMeters>
            <DistanceMeters>NAN</DistanceMeters>
          </Trackpoint>
          <Trackpoint>
            <Time>2022-07-17T12:17:06.000Z</Time>
            <Position>
              <LatitudeDegrees>43.5014788247644901275634765625</LatitudeDegrees>
              <LongitudeDegrees>-5.32936356961727142333984375</LongitudeDegrees>
            </Position>
            <AltitudeMeters>126.8000030517578125</AltitudeMeters>
            <DistanceMeters>NAN</DistanceMeters>
          </Trackpoint>
          <Trackpoint>
            <Time>2022-07-17T12:17:11.000Z</Time>
            <Position>
              <LatitudeDegrees>43.5015532560646533966064453125</LatitudeDegrees>
              <LongitudeDegrees>-5.32935041002929210662841796875</LongitudeDegrees>
            </Position>
            <AltitudeMeters>127.1999969482421875</AltitudeMeters>
            <DistanceMeters>NAN</DistanceMeters>
          </Trackpoint>
          <Trackpoint>
            <Time>2022-07-17T12:17:16.000Z</Time>
            <Position>
              <LatitudeDegrees>43.50162257440388202667236328125</LatitudeDegrees>
              <LongitudeDegrees>-5.32934722490608692169189453125</LongitudeDegrees>
            </Position>
            <AltitudeMeters>127.8000030517578125</AltitudeMeters>
            <DistanceMeters>NAN</DistanceMeters>
          </Trackpoint>
          <Trackpoint>
            <Time>2022-07-17T12:17:20.000Z</Time>
            <Position>
              <LatitudeDegrees>43.50168325938284397125244140625</LatitudeDegrees>
              <LongitudeDegrees>-5.329353176057338714599609375</LongitudeDegrees>
            </Position>
            <AltitudeMeters>128.1999969482421875</AltitudeMeters>
            <DistanceMeters>NAN</DistanceMeters>
          </Trackpoint>
          <Trackpoint>
            <Time>2022-07-17T12:17:24.000Z</Time>
            <Position>
              <LatitudeDegrees>43.50174444727599620819091796875</LatitudeDegrees>
              <LongitudeDegrees>-5.32935711555182933807373046875</LongitudeDegrees>
            </Position>
            <AltitudeMeters>128.600006103515625</AltitudeMeters>
            <DistanceMeters>NAN</DistanceMeters>
          </Trackpoint>
          <Trackpoint>
            <Time>2022-07-17T12:17:30.000Z</Time>
            <Position>
              <LatitudeDegrees>43.50181569345295429229736328125</LatitudeDegrees>
              <LongitudeDegrees>-5.3293691016733646392822265625</LongitudeDegrees>
            </Position>
            <AltitudeMeters>129.1999969482421875</AltitudeMeters>
            <DistanceMeters>NAN</DistanceMeters>
          </Trackpoint>
          <Trackpoint>
            <Time>2022-07-17T12:17:32.000Z</Time>
            <Position>
              <LatitudeDegrees>43.50184218026697635650634765625</LatitudeDegrees>
              <LongitudeDegrees>-5.32938041724264621734619140625</LongitudeDegrees>
            </Position>
            <AltitudeMeters>129.1999969482421875</AltitudeMeters>
            <DistanceMeters>NAN</DistanceMeters>
          </Trackpoint>
          <Trackpoint>
            <Time>2022-07-17T12:17:41.000Z</Time>
            <Position>
              <LatitudeDegrees>43.50197209976613521575927734375</LatitudeDegrees>
              <LongitudeDegrees>-5.32939181663095951080322265625</LongitudeDegrees>
            </Position>
            <AltitudeMeters>130.1999969482421875</AltitudeMeters>
            <DistanceMeters>NAN</DistanceMeters>
          </Trackpoint>
          <Trackpoint>
            <Time>2022-07-17T12:17:42.000Z</Time>
            <Position>
              <LatitudeDegrees>43.5019891150295734405517578125</LatitudeDegrees>
              <LongitudeDegrees>-5.3293962590396404266357421875</LongitudeDegrees>
            </Position>
            <AltitudeMeters>130.399993896484375</AltitudeMeters>
            <DistanceMeters>NAN</DistanceMeters>
          </Trackpoint>
          <Trackpoint>
            <Time>2022-07-17T12:17:50.000Z</Time>
            <Position>
              <LatitudeDegrees>43.502112329006195068359375</LatitudeDegrees>
              <LongitudeDegrees>-5.329423584043979644775390625</LongitudeDegrees>
            </Position>
            <AltitudeMeters>131</AltitudeMeters>
            <DistanceMeters>NAN</DistanceMeters>
          </Trackpoint>
          <Trackpoint>
            <Time>2022-07-17T12:17:53.000Z</Time>
            <Position>
              <LatitudeDegrees>43.502160273492336273193359375</LatitudeDegrees>
              <LongitudeDegrees>-5.32942593097686767578125</LongitudeDegrees>
            </Position>
            <AltitudeMeters>131.399993896484375</AltitudeMeters>
            <DistanceMeters>NAN</DistanceMeters>
          </Trackpoint>
          <Trackpoint>
            <Time>2022-07-17T12:17:58.000Z</Time>
            <Position>
              <LatitudeDegrees>43.5022318549454212188720703125</LatitudeDegrees>
              <LongitudeDegrees>-5.32944529317319393157958984375</LongitudeDegrees>
            </Position>
            <AltitudeMeters>132</AltitudeMeters>
            <DistanceMeters>NAN</DistanceMeters>
          </Trackpoint>
          <Trackpoint>
            <Time>2022-07-17T12:18:06.000Z</Time>
            <Position>
              <LatitudeDegrees>43.502341993153095245361328125</LatitudeDegrees>
              <LongitudeDegrees>-5.32948150299489498138427734375</LongitudeDegrees>
            </Position>
            <AltitudeMeters>132.399993896484375</AltitudeMeters>
            <DistanceMeters>NAN</DistanceMeters>
          </Trackpoint>
          <Trackpoint>
            <Time>2022-07-17T12:18:09.000Z</Time>
            <Position>
              <LatitudeDegrees>43.50238524377346038818359375</LatitudeDegrees>
              <LongitudeDegrees>-5.32949726097285747528076171875</LongitudeDegrees>
            </Position>
            <AltitudeMeters>132.8000030517578125</AltitudeMeters>
            <DistanceMeters>NAN</DistanceMeters>
          </Trackpoint>
          <Trackpoint>
            <Time>2022-07-17T12:18:19.000Z</Time>
            <Position>
              <LatitudeDegrees>43.502526395022869110107421875</LatitudeDegrees>
              <LongitudeDegrees>-5.329550318419933319091796875</LongitudeDegrees>
            </Position>
            <AltitudeMeters>133.600006103515625</AltitudeMeters>
            <DistanceMeters>NAN</DistanceMeters>
          </Trackpoint>
          <Trackpoint>
            <Time>2022-07-17T12:18:29.000Z</Time>
            <Position>
              <LatitudeDegrees>43.502669893205165863037109375</LatitudeDegrees>
              <LongitudeDegrees>-5.3296165354549884796142578125</LongitudeDegrees>
            </Position>
            <AltitudeMeters>134.1999969482421875</AltitudeMeters>
            <DistanceMeters>NAN</DistanceMeters>
          </Trackpoint>
          <Trackpoint>
            <Time>2022-07-17T12:18:33.000Z</Time>
            <Position>
              <LatitudeDegrees>43.50272848270833492279052734375</LatitudeDegrees>
              <LongitudeDegrees>-5.32964117825031280517578125</LongitudeDegrees>
            </Position>
            <AltitudeMeters>134.600006103515625</AltitudeMeters>
            <DistanceMeters>NAN</DistanceMeters>
          </Trackpoint>
          <Trackpoint>
            <Time>2022-07-17T12:18:37.000Z</Time>
            <Position>
              <LatitudeDegrees>43.50279889069497585296630859375</LatitudeDegrees>
              <LongitudeDegrees>-5.32965769059956073760986328125</LongitudeDegrees>
            </Position>
            <AltitudeMeters>135</AltitudeMeters>
            <DistanceMeters>NAN</DistanceMeters>
          </Trackpoint>
          <Trackpoint>
            <Time>2022-07-17T12:18:43.000Z</Time>
            <Position>
              <LatitudeDegrees>43.50290282629430294036865234375</LatitudeDegrees>
              <LongitudeDegrees>-5.32968417741358280181884765625</LongitudeDegrees>
            </Position>
            <AltitudeMeters>135.600006103515625</AltitudeMeters>
            <DistanceMeters>NAN</DistanceMeters>
          </Trackpoint>
          <Trackpoint>
            <Time>2022-07-17T12:18:46.000Z</Time>
            <Position>
              <LatitudeDegrees>43.50294993259012699127197265625</LatitudeDegrees>
              <LongitudeDegrees>-5.32970244996249675750732421875</LongitudeDegrees>
            </Position>
            <AltitudeMeters>136</AltitudeMeters>
            <DistanceMeters>NAN</DistanceMeters>
          </Trackpoint>
          <Trackpoint>
            <Time>2022-07-17T12:18:56.000Z</Time>
            <Position>
              <LatitudeDegrees>43.50311606191098690032958984375</LatitudeDegrees>
              <LongitudeDegrees>-5.3297571837902069091796875</LongitudeDegrees>
            </Position>
            <AltitudeMeters>136.600006103515625</AltitudeMeters>
            <DistanceMeters>NAN</DistanceMeters>
          </Trackpoint>
          <Trackpoint>
            <Time>2022-07-17T12:18:57.000Z</Time>
            <Position>
              <LatitudeDegrees>43.50313223898410797119140625</LatitudeDegrees>
              <LongitudeDegrees>-5.3297623805701732635498046875</LongitudeDegrees>
            </Position>
            <AltitudeMeters>136.600006103515625</AltitudeMeters>
            <DistanceMeters>NAN</DistanceMeters>
          </Trackpoint>
          <Trackpoint>
            <Time>2022-07-17T12:19:06.000Z</Time>
            <Position>
              <LatitudeDegrees>43.50327565334737300872802734375</LatitudeDegrees>
              <LongitudeDegrees>-5.32981594093143939971923828125</LongitudeDegrees>
            </Position>
            <AltitudeMeters>137.399993896484375</AltitudeMeters>
            <DistanceMeters>NAN</DistanceMeters>
          </Trackpoint>
          <Trackpoint>
            <Time>2022-07-17T12:19:09.000Z</Time>
            <Position>
              <LatitudeDegrees>43.50332980044186115264892578125</LatitudeDegrees>
              <LongitudeDegrees>-5.3298371471464633941650390625</LongitudeDegrees>
            </Position>
            <AltitudeMeters>137.8000030517578125</AltitudeMeters>
            <DistanceMeters>NAN</DistanceMeters>
          </Trackpoint>
          <Trackpoint>
            <Time>2022-07-17T12:19:16.000Z</Time>
            <Position>
              <LatitudeDegrees>43.503461144864559173583984375</LatitudeDegrees>
              <LongitudeDegrees>-5.32985843718051910400390625</LongitudeDegrees>
            </Position>
            <AltitudeMeters>138</AltitudeMeters>
            <DistanceMeters>NAN</DistanceMeters>
          </Trackpoint>
          <Trackpoint>
            <Time>2022-07-17T12:19:20.000Z</Time>
            <Position>
              <LatitudeDegrees>43.50354923866689205169677734375</LatitudeDegrees>
              <LongitudeDegrees>-5.32985885627567768096923828125</LongitudeDegrees>
            </Position>
            <AltitudeMeters>138</AltitudeMeters>
            <DistanceMeters>NAN</DistanceMeters>
          </Trackpoint>
          <Trackpoint>
            <Time>2022-07-17T12:19:23.000Z</Time>
            <Position>
              <LatitudeDegrees>43.50361897610127925872802734375</LatitudeDegrees>
              <LongitudeDegrees>-5.32984024845063686370849609375</LongitudeDegrees>
            </Position>
            <AltitudeMeters>138.1999969482421875</AltitudeMeters>
            <DistanceMeters>NAN</DistanceMeters>
          </Trackpoint>
          <Trackpoint>
            <Time>2022-07-17T12:19:30.000Z</Time>
            <Position>
              <LatitudeDegrees>43.50379549898207187652587890625</LatitudeDegrees>
              <LongitudeDegrees>-5.329696834087371826171875</LongitudeDegrees>
            </Position>
            <AltitudeMeters>138</AltitudeMeters>
            <DistanceMeters>NAN</DistanceMeters>
          </Trackpoint>
          <Trackpoint>
            <Time>2022-07-17T12:19:35.000Z</Time>
            <Position>
              <LatitudeDegrees>43.5039538331329822540283203125</LatitudeDegrees>
              <LongitudeDegrees>-5.32962902449071407318115234375</LongitudeDegrees>
            </Position>
            <AltitudeMeters>137.600006103515625</AltitudeMeters>
            <DistanceMeters>NAN</DistanceMeters>
          </Trackpoint>
          <Trackpoint>
            <Time>2022-07-17T12:19:39.000Z</Time>
            <Position>
              <LatitudeDegrees>43.5040785558521747589111328125</LatitudeDegrees>
              <LongitudeDegrees>-5.3297040425240993499755859375</LongitudeDegrees>
            </Position>
            <AltitudeMeters>137.600006103515625</AltitudeMeters>
            <DistanceMeters>NAN</DistanceMeters>
          </Trackpoint>
          <Trackpoint>
            <Time>2022-07-17T12:19:40.000Z</Time>
            <Position>
              <LatitudeDegrees>43.5041003488004207611083984375</LatitudeDegrees>
              <LongitudeDegrees>-5.32973396591842174530029296875</LongitudeDegrees>
            </Position>
            <AltitudeMeters>137.600006103515625</AltitudeMeters>
            <DistanceMeters>NAN</DistanceMeters>
          </Trackpoint>
          <Trackpoint>
            <Time>2022-07-17T12:19:44.000Z</Time>
            <Position>
              <LatitudeDegrees>43.50415625609457492828369140625</LatitudeDegrees>
              <LongitudeDegrees>-5.3298985026776790618896484375</LongitudeDegrees>
            </Position>
            <AltitudeMeters>137.8000030517578125</AltitudeMeters>
            <DistanceMeters>NAN</DistanceMeters>
          </Trackpoint>
          <Trackpoint>
            <Time>2022-07-17T12:19:45.000Z</Time>
            <Position>
              <LatitudeDegrees>43.50416262634098529815673828125</LatitudeDegrees>
              <LongitudeDegrees>-5.329941920936107635498046875</LongitudeDegrees>
            </Position>
            <AltitudeMeters>137.8000030517578125</AltitudeMeters>
            <DistanceMeters>NAN</DistanceMeters>
          </Trackpoint>
          <Trackpoint>
            <Time>2022-07-17T12:19:50.000Z</Time>
            <Position>
              <LatitudeDegrees>43.50412758998572826385498046875</LatitudeDegrees>
              <LongitudeDegrees>-5.3301380574703216552734375</LongitudeDegrees>
            </Position>
            <AltitudeMeters>138.1999969482421875</AltitudeMeters>
            <DistanceMeters>NAN</DistanceMeters>
          </Trackpoint>
          <Trackpoint>
            <Time>2022-07-17T12:19:54.000Z</Time>
            <Position>
              <LatitudeDegrees>43.5040534101426601409912109375</LatitudeDegrees>
              <LongitudeDegrees>-5.3302334435284137725830078125</LongitudeDegrees>
            </Position>
            <AltitudeMeters>138.8000030517578125</AltitudeMeters>
            <DistanceMeters>NAN</DistanceMeters>
          </Trackpoint>
          <Trackpoint>
            <Time>2022-07-17T12:19:57.000Z</Time>
            <Position>
              <LatitudeDegrees>43.50398786365985870361328125</LatitudeDegrees>
              <LongitudeDegrees>-5.33029270358383655548095703125</LongitudeDegrees>
            </Position>
            <AltitudeMeters>139.600006103515625</AltitudeMeters>
            <DistanceMeters>NAN</DistanceMeters>
          </Trackpoint>
          <Trackpoint>
            <Time>2022-07-17T12:20:00.000Z</Time>
            <Position>
              <LatitudeDegrees>43.5039249993860721588134765625</LatitudeDegrees>
              <LongitudeDegrees>-5.3303554840385913848876953125</LongitudeDegrees>
            </Position>
            <AltitudeMeters>140</AltitudeMeters>
            <DistanceMeters>NAN</DistanceMeters>
          </Trackpoint>
          <Trackpoint>
            <Time>2022-07-17T12:20:04.000Z</Time>
            <Position>
              <LatitudeDegrees>43.50384897552430629730224609375</LatitudeDegrees>
              <LongitudeDegrees>-5.33045011572539806365966796875</LongitudeDegrees>
            </Position>
            <AltitudeMeters>140.600006103515625</AltitudeMeters>
            <DistanceMeters>NAN</DistanceMeters>
          </Trackpoint>
          <Trackpoint>
            <Time>2022-07-17T12:20:06.000Z</Time>
            <Position>
              <LatitudeDegrees>43.50381997413933277130126953125</LatitudeDegrees>
              <LongitudeDegrees>-5.3305028378963470458984375</LongitudeDegrees>
            </Position>
            <AltitudeMeters>140.8000030517578125</AltitudeMeters>
            <DistanceMeters>NAN</DistanceMeters>
          </Trackpoint>
          <Trackpoint>
            <Time>2022-07-17T12:20:08.000Z</Time>
            <Position>
              <LatitudeDegrees>43.50379968993365764617919921875</LatitudeDegrees>
              <LongitudeDegrees>-5.33055874519050121307373046875</LongitudeDegrees>
            </Position>
            <AltitudeMeters>141.1999969482421875</AltitudeMeters>
            <DistanceMeters>NAN</DistanceMeters>
          </Trackpoint>
          <Trackpoint>
            <Time>2022-07-17T12:20:15.000Z</Time>
            <Position>
              <LatitudeDegrees>43.503732047975063323974609375</LatitudeDegrees>
              <LongitudeDegrees>-5.33077114261686801910400390625</LongitudeDegrees>
            </Position>
            <AltitudeMeters>141.600006103515625</AltitudeMeters>
            <DistanceMeters>NAN</DistanceMeters>
          </Trackpoint>
          <Trackpoint>
            <Time>2022-07-17T12:20:28.000Z</Time>
            <Position>
              <LatitudeDegrees>43.50363783538341522216796875</LatitudeDegrees>
              <LongitudeDegrees>-5.3311712108552455902099609375</LongitudeDegrees>
            </Position>
            <AltitudeMeters>141.8000030517578125</AltitudeMeters>
            <DistanceMeters>NAN</DistanceMeters>
          </Trackpoint>
          <Trackpoint>
            <Time>2022-07-17T12:20:31.000Z</Time>
            <Position>
              <LatitudeDegrees>43.5036048106849193572998046875</LatitudeDegrees>
              <LongitudeDegrees>-5.33128361217677593231201171875</LongitudeDegrees>
            </Position>
            <AltitudeMeters>142.1999969482421875</AltitudeMeters>
            <DistanceMeters>NAN</DistanceMeters>
          </Trackpoint>
          <Trackpoint>
            <Time>2022-07-17T12:20:39.000Z</Time>
            <Position>
              <LatitudeDegrees>43.50354085676372051239013671875</LatitudeDegrees>
              <LongitudeDegrees>-5.33154412172734737396240234375</LongitudeDegrees>
            </Position>
            <AltitudeMeters>143</AltitudeMeters>
            <DistanceMeters>NAN</DistanceMeters>
          </Trackpoint>
          <Trackpoint>
            <Time>2022-07-17T12:20:41.000Z</Time>
            <Position>
              <LatitudeDegrees>43.5035243444144725799560546875</LatitudeDegrees>
              <LongitudeDegrees>-5.33159826882183551788330078125</LongitudeDegrees>
            </Position>
            <AltitudeMeters>143.399993896484375</AltitudeMeters>
            <DistanceMeters>NAN</DistanceMeters>
          </Trackpoint>
          <Trackpoint>
            <Time>2022-07-17T12:20:46.000Z</Time>
            <Position>
              <LatitudeDegrees>43.50348738022148609161376953125</LatitudeDegrees>
              <LongitudeDegrees>-5.33173053525388240814208984375</LongitudeDegrees>
            </Position>
            <AltitudeMeters>144.1999969482421875</AltitudeMeters>
            <DistanceMeters>NAN</DistanceMeters>
          </Trackpoint>
          <Trackpoint>
            <Time>2022-07-17T12:20:47.000Z</Time>
            <Position>
              <LatitudeDegrees>43.5034763999283313751220703125</LatitudeDegrees>
              <LongitudeDegrees>-5.33175199292600154876708984375</LongitudeDegrees>
            </Position>
            <AltitudeMeters>144.399993896484375</AltitudeMeters>
            <DistanceMeters>NAN</DistanceMeters>
          </Trackpoint>
          <Trackpoint>
            <Time>2022-07-17T12:20:53.000Z</Time>
            <Position>
              <LatitudeDegrees>43.503441028296947479248046875</LatitudeDegrees>
              <LongitudeDegrees>-5.33189046196639537811279296875</LongitudeDegrees>
            </Position>
            <AltitudeMeters>144.8000030517578125</AltitudeMeters>
            <DistanceMeters>NAN</DistanceMeters>
          </Trackpoint>
          <Trackpoint>
            <Time>2022-07-17T12:20:54.000Z</Time>
            <Position>
              <LatitudeDegrees>43.5034351609647274017333984375</LatitudeDegrees>
              <LongitudeDegrees>-5.3319109976291656494140625</LongitudeDegrees>
            </Position>
            <AltitudeMeters>144.8000030517578125</AltitudeMeters>
            <DistanceMeters>NAN</DistanceMeters>
          </Trackpoint>
          <Trackpoint>
            <Time>2022-07-17T12:20:57.000Z</Time>
            <Position>
              <LatitudeDegrees>43.50341856479644775390625</LatitudeDegrees>
              <LongitudeDegrees>-5.33197947777807712554931640625</LongitudeDegrees>
            </Position>
            <AltitudeMeters>145</AltitudeMeters>
            <DistanceMeters>NAN</DistanceMeters>
          </Trackpoint>
          <Trackpoint>
            <Time>2022-07-17T12:21:00.000Z</Time>
            <Position>
              <LatitudeDegrees>43.503426611423492431640625</LatitudeDegrees>
              <LongitudeDegrees>-5.33206413500010967254638671875</LongitudeDegrees>
            </Position>
            <AltitudeMeters>145.399993896484375</AltitudeMeters>
            <DistanceMeters>NAN</DistanceMeters>
          </Trackpoint>
          <Trackpoint>
            <Time>2022-07-17T12:21:01.000Z</Time>
            <Position>
              <LatitudeDegrees>43.503428287804126739501953125</LatitudeDegrees>
              <LongitudeDegrees>-5.3320918790996074676513671875</LongitudeDegrees>
            </Position>
            <AltitudeMeters>145.399993896484375</AltitudeMeters>
            <DistanceMeters>NAN</DistanceMeters>
          </Trackpoint>
          <Trackpoint>
            <Time>2022-07-17T12:21:09.000Z</Time>
            <Position>
              <LatitudeDegrees>43.5034717060625553131103515625</LatitudeDegrees>
              <LongitudeDegrees>-5.33230452798306941986083984375</LongitudeDegrees>
            </Position>
            <AltitudeMeters>146</AltitudeMeters>
            <DistanceMeters>NAN</DistanceMeters>
          </Trackpoint>
          <Trackpoint>
            <Time>2022-07-17T12:21:17.000Z</Time>
            <Position>
              <LatitudeDegrees>43.50344496779143810272216796875</LatitudeDegrees>
              <LongitudeDegrees>-5.3325656242668628692626953125</LongitudeDegrees>
            </Position>
            <AltitudeMeters>146.399993896484375</AltitudeMeters>
            <DistanceMeters>NAN</DistanceMeters>
          </Trackpoint>
          <Trackpoint>
            <Time>2022-07-17T12:21:18.000Z</Time>
            <Position>
              <LatitudeDegrees>43.5034284554421901702880859375</LatitudeDegrees>
              <LongitudeDegrees>-5.33260367810726165771484375</LongitudeDegrees>
            </Position>
            <AltitudeMeters>146.600006103515625</AltitudeMeters>
            <DistanceMeters>NAN</DistanceMeters>
          </Trackpoint>
          <Trackpoint>
            <Time>2022-07-17T12:21:22.000Z</Time>
            <Position>
              <LatitudeDegrees>43.50334958173334598541259765625</LatitudeDegrees>
              <LongitudeDegrees>-5.332683138549327850341796875</LongitudeDegrees>
            </Position>
            <AltitudeMeters>147.399993896484375</AltitudeMeters>
            <DistanceMeters>NAN</DistanceMeters>
          </Trackpoint>
          <Trackpoint>
            <Time>2022-07-17T12:21:26.000Z</Time>
            <Position>
              <LatitudeDegrees>43.50323458202183246612548828125</LatitudeDegrees>
              <LongitudeDegrees>-5.332745499908924102783203125</LongitudeDegrees>
            </Position>
            <AltitudeMeters>147.600006103515625</AltitudeMeters>
            <DistanceMeters>NAN</DistanceMeters>
          </Trackpoint>
          <Trackpoint>
            <Time>2022-07-17T12:21:29.000Z</Time>
            <Position>
              <LatitudeDegrees>43.50314699113368988037109375</LatitudeDegrees>
              <LongitudeDegrees>-5.3327773511409759521484375</LongitudeDegrees>
            </Position>
            <AltitudeMeters>147.8000030517578125</AltitudeMeters>
            <DistanceMeters>NAN</DistanceMeters>
          </Trackpoint>
          <Trackpoint>
            <Time>2022-07-17T12:21:37.000Z</Time>
            <Position>
              <LatitudeDegrees>43.5029451549053192138671875</LatitudeDegrees>
              <LongitudeDegrees>-5.3329713083803653717041015625</LongitudeDegrees>
            </Position>
            <AltitudeMeters>148.1999969482421875</AltitudeMeters>
            <DistanceMeters>NAN</DistanceMeters>
          </Trackpoint>
          <Trackpoint>
            <Time>2022-07-17T12:21:45.000Z</Time>
            <Position>
              <LatitudeDegrees>43.50281263701617717742919921875</LatitudeDegrees>
              <LongitudeDegrees>-5.3332328237593173980712890625</LongitudeDegrees>
            </Position>
            <AltitudeMeters>148.600006103515625</AltitudeMeters>
            <DistanceMeters>NAN</DistanceMeters>
          </Trackpoint>
          <Trackpoint>
            <Time>2022-07-17T12:21:51.000Z</Time>
            <Position>
              <LatitudeDegrees>43.50275999866425991058349609375</LatitudeDegrees>
              <LongitudeDegrees>-5.333402641117572784423828125</LongitudeDegrees>
            </Position>
            <AltitudeMeters>148.8000030517578125</AltitudeMeters>
            <DistanceMeters>NAN</DistanceMeters>
          </Trackpoint>
          <Trackpoint>
            <Time>2022-07-17T12:21:52.000Z</Time>
            <Position>
              <LatitudeDegrees>43.5027565620839595794677734375</LatitudeDegrees>
              <LongitudeDegrees>-5.33343105576932430267333984375</LongitudeDegrees>
            </Position>
            <AltitudeMeters>148.8000030517578125</AltitudeMeters>
            <DistanceMeters>NAN</DistanceMeters>
          </Trackpoint>
          <Trackpoint>
            <Time>2022-07-17T12:21:57.000Z</Time>
            <Position>
              <LatitudeDegrees>43.50275128148496150970458984375</LatitudeDegrees>
              <LongitudeDegrees>-5.333574302494525909423828125</LongitudeDegrees>
            </Position>
            <AltitudeMeters>149.1999969482421875</AltitudeMeters>
            <DistanceMeters>NAN</DistanceMeters>
          </Trackpoint>
          <Trackpoint>
            <Time>2022-07-17T12:22:05.000Z</Time>
            <Position>
              <LatitudeDegrees>43.50278556346893310546875</LatitudeDegrees>
              <LongitudeDegrees>-5.3338011167943477630615234375</LongitudeDegrees>
            </Position>
            <AltitudeMeters>149.8000030517578125</AltitudeMeters>
            <DistanceMeters>NAN</DistanceMeters>
          </Trackpoint>
          <Trackpoint>
            <Time>2022-07-17T12:22:09.000Z</Time>
            <Position>
              <LatitudeDegrees>43.5028061829507350921630859375</LatitudeDegrees>
              <LongitudeDegrees>-5.33392466604709625244140625</LongitudeDegrees>
            </Position>
            <AltitudeMeters>150.1999969482421875</AltitudeMeters>
            <DistanceMeters>NAN</DistanceMeters>
          </Trackpoint>
          <Trackpoint>
            <Time>2022-07-17T12:22:20.000Z</Time>
            <Position>
              <LatitudeDegrees>43.50291238166391849517822265625</LatitudeDegrees>
              <LongitudeDegrees>-5.33420923165977001190185546875</LongitudeDegrees>
            </Position>
            <AltitudeMeters>150.600006103515625</AltitudeMeters>
            <DistanceMeters>NAN</DistanceMeters>
          </Trackpoint>
          <Trackpoint>
            <Time>2022-07-17T12:22:24.000Z</Time>
            <Position>
              <LatitudeDegrees>43.5029734857380390167236328125</LatitudeDegrees>
              <LongitudeDegrees>-5.33427947200834751129150390625</LongitudeDegrees>
            </Position>
            <AltitudeMeters>151</AltitudeMeters>
            <DistanceMeters>NAN</DistanceMeters>
          </Trackpoint>
          <Trackpoint>
            <Time>2022-07-17T12:22:28.000Z</Time>
            <Position>
              <LatitudeDegrees>43.50302604027092456817626953125</LatitudeDegrees>
              <LongitudeDegrees>-5.33433814533054828643798828125</LongitudeDegrees>
            </Position>
            <AltitudeMeters>151.399993896484375</AltitudeMeters>
            <DistanceMeters>NAN</DistanceMeters>
          </Trackpoint>
          <Trackpoint>
            <Time>2022-07-17T12:22:33.000Z</Time>
            <Position>
              <LatitudeDegrees>43.503090329468250274658203125</LatitudeDegrees>
              <LongitudeDegrees>-5.33440888859331607818603515625</LongitudeDegrees>
            </Position>
            <AltitudeMeters>152</AltitudeMeters>
            <DistanceMeters>NAN</DistanceMeters>
          </Trackpoint>
          <Trackpoint>
            <Time>2022-07-17T12:22:36.000Z</Time>
            <Position>
              <LatitudeDegrees>43.5031280480325222015380859375</LatitudeDegrees>
              <LongitudeDegrees>-5.33444593660533428192138671875</LongitudeDegrees>
            </Position>
            <AltitudeMeters>152.1999969482421875</AltitudeMeters>
            <DistanceMeters>NAN</DistanceMeters>
          </Trackpoint>
          <Trackpoint>
            <Time>2022-07-17T12:22:45.000Z</Time>
            <Position>
              <LatitudeDegrees>43.5032839514315128326416015625</LatitudeDegrees>
              <LongitudeDegrees>-5.33458876423537731170654296875</LongitudeDegrees>
            </Position>
            <AltitudeMeters>152.8000030517578125</AltitudeMeters>
            <DistanceMeters>NAN</DistanceMeters>
          </Trackpoint>
          <Trackpoint>
            <Time>2022-07-17T12:22:48.000Z</Time>
            <Position>
              <LatitudeDegrees>43.50333382375538349151611328125</LatitudeDegrees>
              <LongitudeDegrees>-5.33464483916759490966796875</LongitudeDegrees>
            </Position>
            <AltitudeMeters>152.8000030517578125</AltitudeMeters>
            <DistanceMeters>NAN</DistanceMeters>
          </Trackpoint>
          <Trackpoint>
            <Time>2022-07-17T12:22:50.000Z</Time>
            <Position>
              <LatitudeDegrees>43.50336693227291107177734375</LatitudeDegrees>
              <LongitudeDegrees>-5.33468306064605712890625</LongitudeDegrees>
            </Position>
            <AltitudeMeters>153</AltitudeMeters>
            <DistanceMeters>NAN</DistanceMeters>
          </Trackpoint>
          <Trackpoint>
            <Time>2022-07-17T12:22:55.000Z</Time>
            <Position>
              <LatitudeDegrees>43.50345653481781482696533203125</LatitudeDegrees>
              <LongitudeDegrees>-5.3347717411816120147705078125</LongitudeDegrees>
            </Position>
            <AltitudeMeters>153.399993896484375</AltitudeMeters>
            <DistanceMeters>NAN</DistanceMeters>
          </Trackpoint>
          <Trackpoint>
            <Time>2022-07-17T12:23:03.000Z</Time>
            <Position>
              <LatitudeDegrees>43.50359492003917694091796875</LatitudeDegrees>
              <LongitudeDegrees>-5.33489520661532878875732421875</LongitudeDegrees>
            </Position>
            <AltitudeMeters>153.8000030517578125</AltitudeMeters>
            <DistanceMeters>NAN</DistanceMeters>
          </Trackpoint>
          <Trackpoint>
            <Time>2022-07-17T12:23:05.000Z</Time>
            <Position>
              <LatitudeDegrees>43.50363247096538543701171875</LatitudeDegrees>
              <LongitudeDegrees>-5.3349296562373638153076171875</LongitudeDegrees>
            </Position>
            <AltitudeMeters>153.8000030517578125</AltitudeMeters>
            <DistanceMeters>NAN</DistanceMeters>
          </Trackpoint>
          <Trackpoint>
            <Time>2022-07-17T12:23:14.000Z</Time>
            <Position>
              <LatitudeDegrees>43.50379751063883304595947265625</LatitudeDegrees>
              <LongitudeDegrees>-5.3350748308002948760986328125</LongitudeDegrees>
            </Position>
            <AltitudeMeters>154</AltitudeMeters>
            <DistanceMeters>NAN</DistanceMeters>
          </Trackpoint>
          <Trackpoint>
            <Time>2022-07-17T12:23:16.000Z</Time>
            <Position>
              <LatitudeDegrees>43.50383221171796321868896484375</LatitudeDegrees>
              <LongitudeDegrees>-5.3351019881665706634521484375</LongitudeDegrees>
            </Position>
            <AltitudeMeters>154</AltitudeMeters>
            <DistanceMeters>NAN</DistanceMeters>
          </Trackpoint>
          <Trackpoint>
            <Time>2022-07-17T12:23:21.000Z</Time>
            <Position>
              <LatitudeDegrees>43.5039115883409976959228515625</LatitudeDegrees>
              <LongitudeDegrees>-5.33518396317958831787109375</LongitudeDegrees>
            </Position>
            <AltitudeMeters>154.399993896484375</AltitudeMeters>
            <DistanceMeters>NAN</DistanceMeters>
          </Trackpoint>
          <Trackpoint>
            <Time>2022-07-17T12:23:29.000Z</Time>
            <Position>
              <LatitudeDegrees>43.50403974764049053192138671875</LatitudeDegrees>
              <LongitudeDegrees>-5.33531882800161838531494140625</LongitudeDegrees>
            </Position>
            <AltitudeMeters>154.600006103515625</AltitudeMeters>
            <DistanceMeters>NAN</DistanceMeters>
          </Trackpoint>
          <Trackpoint>
            <Time>2022-07-17T12:23:35.000Z</Time>
            <Position>
              <LatitudeDegrees>43.5041320323944091796875</LatitudeDegrees>
              <LongitudeDegrees>-5.33543516881763935089111328125</LongitudeDegrees>
            </Position>
            <AltitudeMeters>155</AltitudeMeters>
            <DistanceMeters>NAN</DistanceMeters>
          </Trackpoint>
          <Trackpoint>
            <Time>2022-07-17T12:23:36.000Z</Time>
            <Position>
              <LatitudeDegrees>43.50414569489657878875732421875</LatitudeDegrees>
              <LongitudeDegrees>-5.3354557044804096221923828125</LongitudeDegrees>
            </Position>
            <AltitudeMeters>155.1999969482421875</AltitudeMeters>
            <DistanceMeters>NAN</DistanceMeters>
          </Trackpoint>
          <Trackpoint>
            <Time>2022-07-17T12:23:45.000Z</Time>
            <Position>
              <LatitudeDegrees>43.5042408294975757598876953125</LatitudeDegrees>
              <LongitudeDegrees>-5.3356813453137874603271484375</LongitudeDegrees>
            </Position>
            <AltitudeMeters>155.8000030517578125</AltitudeMeters>
            <DistanceMeters>NAN</DistanceMeters>
          </Trackpoint>
          <Trackpoint>
            <Time>2022-07-17T12:23:50.000Z</Time>
            <Position>
              <LatitudeDegrees>43.5042696632444858551025390625</LatitudeDegrees>
              <LongitudeDegrees>-5.3358131088316440582275390625</LongitudeDegrees>
            </Position>
            <AltitudeMeters>155.8000030517578125</AltitudeMeters>
            <DistanceMeters>NAN</DistanceMeters>
          </Trackpoint>
          <Trackpoint>
            <Time>2022-07-17T12:23:54.000Z</Time>
            <Position>
              <LatitudeDegrees>43.50428466685116291046142578125</LatitudeDegrees>
              <LongitudeDegrees>-5.3359155356884002685546875</LongitudeDegrees>
            </Position>
            <AltitudeMeters>156.1999969482421875</AltitudeMeters>
            <DistanceMeters>NAN</DistanceMeters>
          </Trackpoint>
          <Trackpoint>
            <Time>2022-07-17T12:23:56.000Z</Time>
            <Position>
              <LatitudeDegrees>43.50429489277303218841552734375</LatitudeDegrees>
              <LongitudeDegrees>-5.3359794057905673980712890625</LongitudeDegrees>
            </Position>
            <AltitudeMeters>156.399993896484375</AltitudeMeters>
            <DistanceMeters>NAN</DistanceMeters>
          </Trackpoint>
          <Trackpoint>
            <Time>2022-07-17T12:24:01.000Z</Time>
            <Position>
              <LatitudeDegrees>43.5043206252157688140869140625</LatitudeDegrees>
              <LongitudeDegrees>-5.3361167013645172119140625</LongitudeDegrees>
            </Position>
            <AltitudeMeters>157.1999969482421875</AltitudeMeters>
            <DistanceMeters>NAN</DistanceMeters>
          </Trackpoint>
          <Trackpoint>
            <Time>2022-07-17T12:24:02.000Z</Time>
            <Position>
              <LatitudeDegrees>43.504320792853832244873046875</LatitudeDegrees>
              <LongitudeDegrees>-5.3361453674733638763427734375</LongitudeDegrees>
            </Position>
            <AltitudeMeters>157.1999969482421875</AltitudeMeters>
            <DistanceMeters>NAN</DistanceMeters>
          </Trackpoint>
          <Trackpoint>
            <Time>2022-07-17T12:24:05.000Z</Time>
            <Position>
              <LatitudeDegrees>43.5043300129473209381103515625</LatitudeDegrees>
              <LongitudeDegrees>-5.336235724389553070068359375</LongitudeDegrees>
            </Position>
            <AltitudeMeters>157.1999969482421875</AltitudeMeters>
            <DistanceMeters>NAN</DistanceMeters>
          </Trackpoint>
          <Trackpoint>
            <Time>2022-07-17T12:24:13.000Z</Time>
            <Position>
              <LatitudeDegrees>43.5043640434741973876953125</LatitudeDegrees>
              <LongitudeDegrees>-5.3364749439060688018798828125</LongitudeDegrees>
            </Position>
            <AltitudeMeters>157.600006103515625</AltitudeMeters>
            <DistanceMeters>NAN</DistanceMeters>
          </Trackpoint>
          <Trackpoint>
            <Time>2022-07-17T12:24:15.000Z</Time>
            <Position>
              <LatitudeDegrees>43.50437200628221035003662109375</LatitudeDegrees>
              <LongitudeDegrees>-5.3365202061831951141357421875</LongitudeDegrees>
            </Position>
            <AltitudeMeters>157.8000030517578125</AltitudeMeters>
            <DistanceMeters>NAN</DistanceMeters>
          </Trackpoint>
          <Trackpoint>
            <Time>2022-07-17T12:24:23.000Z</Time>
            <Position>
              <LatitudeDegrees>43.5044064559042453765869140625</LatitudeDegrees>
              <LongitudeDegrees>-5.33672916702926158905029296875</LongitudeDegrees>
            </Position>
            <AltitudeMeters>158.1999969482421875</AltitudeMeters>
            <DistanceMeters>NAN</DistanceMeters>
          </Trackpoint>
          <Trackpoint>
            <Time>2022-07-17T12:24:24.000Z</Time>
            <Position>
              <LatitudeDegrees>43.50440972484648227691650390625</LatitudeDegrees>
              <LongitudeDegrees>-5.3367535583674907684326171875</LongitudeDegrees>
            </Position>
            <AltitudeMeters>158.1999969482421875</AltitudeMeters>
            <DistanceMeters>NAN</DistanceMeters>
          </Trackpoint>
          <Trackpoint>
            <Time>2022-07-17T12:24:31.000Z</Time>
            <Position>
              <LatitudeDegrees>43.504438139498233795166015625</LatitudeDegrees>
              <LongitudeDegrees>-5.33691306598484516143798828125</LongitudeDegrees>
            </Position>
            <AltitudeMeters>158.600006103515625</AltitudeMeters>
            <DistanceMeters>NAN</DistanceMeters>
          </Trackpoint>
          <Trackpoint>
            <Time>2022-07-17T12:24:39.000Z</Time>
            <Position>
              <LatitudeDegrees>43.50446655414998531341552734375</LatitudeDegrees>
              <LongitudeDegrees>-5.33711188472807407379150390625</LongitudeDegrees>
            </Position>
            <AltitudeMeters>159.1999969482421875</AltitudeMeters>
            <DistanceMeters>NAN</DistanceMeters>
          </Trackpoint>
          <Trackpoint>
            <Time>2022-07-17T12:24:41.000Z</Time>
            <Position>
              <LatitudeDegrees>43.50446999073028564453125</LatitudeDegrees>
              <LongitudeDegrees>-5.3371545486152172088623046875</LongitudeDegrees>
            </Position>
            <AltitudeMeters>159.1999969482421875</AltitudeMeters>
            <DistanceMeters>NAN</DistanceMeters>
          </Trackpoint>
          <Trackpoint>
            <Time>2022-07-17T12:24:49.000Z</Time>
            <Position>
              <LatitudeDegrees>43.5045010037720203399658203125</LatitudeDegrees>
              <LongitudeDegrees>-5.33733450807631015777587890625</LongitudeDegrees>
            </Position>
            <AltitudeMeters>160.1999969482421875</AltitudeMeters>
            <DistanceMeters>NAN</DistanceMeters>
          </Trackpoint>
          <Trackpoint>
            <Time>2022-07-17T12:24:52.000Z</Time>
            <Position>
              <LatitudeDegrees>43.50450578145682811737060546875</LatitudeDegrees>
              <LongitudeDegrees>-5.33739988692104816436767578125</LongitudeDegrees>
            </Position>
            <AltitudeMeters>160.399993896484375</AltitudeMeters>
            <DistanceMeters>NAN</DistanceMeters>
          </Trackpoint>
          <Trackpoint>
            <Time>2022-07-17T12:24:59.000Z</Time>
            <Position>
              <LatitudeDegrees>43.504528664052486419677734375</LatitudeDegrees>
              <LongitudeDegrees>-5.3375597298145294189453125</LongitudeDegrees>
            </Position>
            <AltitudeMeters>161</AltitudeMeters>
            <DistanceMeters>NAN</DistanceMeters>
          </Trackpoint>
          <Trackpoint>
            <Time>2022-07-17T12:25:02.000Z</Time>
            <Position>
              <LatitudeDegrees>43.50454132072627544403076171875</LatitudeDegrees>
              <LongitudeDegrees>-5.33762519247829914093017578125</LongitudeDegrees>
            </Position>
            <AltitudeMeters>161.399993896484375</AltitudeMeters>
            <DistanceMeters>NAN</DistanceMeters>
          </Trackpoint>
          <Trackpoint>
            <Time>2022-07-17T12:25:07.000Z</Time>
            <Position>
              <LatitudeDegrees>43.50455909036099910736083984375</LatitudeDegrees>
              <LongitudeDegrees>-5.33774186857044696807861328125</LongitudeDegrees>
            </Position>
            <AltitudeMeters>161.8000030517578125</AltitudeMeters>
            <DistanceMeters>NAN</DistanceMeters>
          </Trackpoint>
          <Trackpoint>
            <Time>2022-07-17T12:25:12.000Z</Time>
            <Position>
              <LatitudeDegrees>43.50457685999572277069091796875</LatitudeDegrees>
              <LongitudeDegrees>-5.33786055631935596466064453125</LongitudeDegrees>
            </Position>
            <AltitudeMeters>162.399993896484375</AltitudeMeters>
            <DistanceMeters>NAN</DistanceMeters>
          </Trackpoint>
          <Trackpoint>
            <Time>2022-07-17T12:25:15.000Z</Time>
            <Position>
              <LatitudeDegrees>43.50458876229822635650634765625</LatitudeDegrees>
              <LongitudeDegrees>-5.33793163485825061798095703125</LongitudeDegrees>
            </Position>
            <AltitudeMeters>162.600006103515625</AltitudeMeters>
            <DistanceMeters>NAN</DistanceMeters>
          </Trackpoint>
          <Trackpoint>
            <Time>2022-07-17T12:25:20.000Z</Time>
            <Position>
              <LatitudeDegrees>43.50461223162710666656494140625</LatitudeDegrees>
              <LongitudeDegrees>-5.3380680084228515625</LongitudeDegrees>
            </Position>
            <AltitudeMeters>163.1999969482421875</AltitudeMeters>
            <DistanceMeters>NAN</DistanceMeters>
          </Trackpoint>
          <Trackpoint>
            <Time>2022-07-17T12:25:23.000Z</Time>
            <Position>
              <LatitudeDegrees>43.50463553331792354583740234375</LatitudeDegrees>
              <LongitudeDegrees>-5.33814721740782260894775390625</LongitudeDegrees>
            </Position>
            <AltitudeMeters>163.399993896484375</AltitudeMeters>
            <DistanceMeters>NAN</DistanceMeters>
          </Trackpoint>
          <Trackpoint>
            <Time>2022-07-17T12:25:26.000Z</Time>
            <Position>
              <LatitudeDegrees>43.5046555660665035247802734375</LatitudeDegrees>
              <LongitudeDegrees>-5.33822022378444671630859375</LongitudeDegrees>
            </Position>
            <AltitudeMeters>163.600006103515625</AltitudeMeters>
            <DistanceMeters>NAN</DistanceMeters>
          </Trackpoint>
          <Trackpoint>
            <Time>2022-07-17T12:25:34.000Z</Time>
            <Position>
              <LatitudeDegrees>43.50472949445247650146484375</LatitudeDegrees>
              <LongitudeDegrees>-5.33840269781649112701416015625</LongitudeDegrees>
            </Position>
            <AltitudeMeters>164.600006103515625</AltitudeMeters>
            <DistanceMeters>NAN</DistanceMeters>
          </Trackpoint>
          <Trackpoint>
            <Time>2022-07-17T12:25:36.000Z</Time>
            <Position>
              <LatitudeDegrees>43.5047541372478008270263671875</LatitudeDegrees>
              <LongitudeDegrees>-5.33844410441815853118896484375</LongitudeDegrees>
            </Position>
            <AltitudeMeters>164.600006103515625</AltitudeMeters>
            <DistanceMeters>NAN</DistanceMeters>
          </Trackpoint>
          <Trackpoint>
            <Time>2022-07-17T12:25:43.000Z</Time>
            <Position>
              <LatitudeDegrees>43.50482932291924953460693359375</LatitudeDegrees>
              <LongitudeDegrees>-5.3385761193931102752685546875</LongitudeDegrees>
            </Position>
            <AltitudeMeters>165.1999969482421875</AltitudeMeters>
            <DistanceMeters>NAN</DistanceMeters>
          </Trackpoint>
          <Trackpoint>
            <Time>2022-07-17T12:25:45.000Z</Time>
            <Position>
              <LatitudeDegrees>43.50484960712492465972900390625</LatitudeDegrees>
              <LongitudeDegrees>-5.33860939554870128631591796875</LongitudeDegrees>
            </Position>
            <AltitudeMeters>165.399993896484375</AltitudeMeters>
            <DistanceMeters>NAN</DistanceMeters>
          </Trackpoint>
          <Trackpoint>
            <Time>2022-07-17T12:25:47.000Z</Time>
            <Position>
              <LatitudeDegrees>43.50487877614796161651611328125</LatitudeDegrees>
              <LongitudeDegrees>-5.3386445157229900360107421875</LongitudeDegrees>
            </Position>
            <AltitudeMeters>165.600006103515625</AltitudeMeters>
            <DistanceMeters>NAN</DistanceMeters>
          </Trackpoint>
          <Trackpoint>
            <Time>2022-07-17T12:25:55.000Z</Time>
            <Position>
              <LatitudeDegrees>43.50495957769453525543212890625</LatitudeDegrees>
              <LongitudeDegrees>-5.33878625370562076568603515625</LongitudeDegrees>
            </Position>
            <AltitudeMeters>166.1999969482421875</AltitudeMeters>
            <DistanceMeters>NAN</DistanceMeters>
          </Trackpoint>
          <Trackpoint>
            <Time>2022-07-17T12:25:59.000Z</Time>
            <Position>
              <LatitudeDegrees>43.504998721182346343994140625</LatitudeDegrees>
              <LongitudeDegrees>-5.33886739052832126617431640625</LongitudeDegrees>
            </Position>
            <AltitudeMeters>166.8000030517578125</AltitudeMeters>
            <DistanceMeters>NAN</DistanceMeters>
          </Trackpoint>
          <Trackpoint>
            <Time>2022-07-17T12:26:07.000Z</Time>
            <Position>
              <LatitudeDegrees>43.5050719790160655975341796875</LatitudeDegrees>
              <LongitudeDegrees>-5.339027903974056243896484375</LongitudeDegrees>
            </Position>
            <AltitudeMeters>167.399993896484375</AltitudeMeters>
            <DistanceMeters>NAN</DistanceMeters>
          </Trackpoint>
          <Trackpoint>
            <Time>2022-07-17T12:26:16.000Z</Time>
            <Position>
              <LatitudeDegrees>43.5051405429840087890625</LatitudeDegrees>
              <LongitudeDegrees>-5.33920727670192718505859375</LongitudeDegrees>
            </Position>
            <AltitudeMeters>167.8000030517578125</AltitudeMeters>
            <DistanceMeters>NAN</DistanceMeters>
          </Trackpoint>
          <Trackpoint>
            <Time>2022-07-17T12:26:17.000Z</Time>
            <Position>
              <LatitudeDegrees>43.50514833815395832061767578125</LatitudeDegrees>
              <LongitudeDegrees>-5.3392265550792217254638671875</LongitudeDegrees>
            </Position>
            <AltitudeMeters>167.8000030517578125</AltitudeMeters>
            <DistanceMeters>NAN</DistanceMeters>
          </Trackpoint>
          <Trackpoint>
            <Time>2022-07-17T12:26:26.000Z</Time>
            <Position>
              <LatitudeDegrees>43.50521254353225231170654296875</LatitudeDegrees>
              <LongitudeDegrees>-5.33939880318939685821533203125</LongitudeDegrees>
            </Position>
            <AltitudeMeters>168.600006103515625</AltitudeMeters>
            <DistanceMeters>NAN</DistanceMeters>
          </Trackpoint>
          <Trackpoint>
            <Time>2022-07-17T12:26:32.000Z</Time>
            <Position>
              <LatitudeDegrees>43.5052308999001979827880859375</LatitudeDegrees>
              <LongitudeDegrees>-5.33952168188989162445068359375</LongitudeDegrees>
            </Position>
            <AltitudeMeters>168.8000030517578125</AltitudeMeters>
            <DistanceMeters>NAN</DistanceMeters>
          </Trackpoint>
          <Trackpoint>
            <Time>2022-07-17T12:26:38.000Z</Time>
            <Position>
              <LatitudeDegrees>43.50523701868951320648193359375</LatitudeDegrees>
              <LongitudeDegrees>-5.33965059556066989898681640625</LongitudeDegrees>
            </Position>
            <AltitudeMeters>169.1999969482421875</AltitudeMeters>
            <DistanceMeters>NAN</DistanceMeters>
          </Trackpoint>
          <Trackpoint>
            <Time>2022-07-17T12:26:43.000Z</Time>
            <Position>
              <LatitudeDegrees>43.50522696040570735931396484375</LatitudeDegrees>
              <LongitudeDegrees>-5.33977095969021320343017578125</LongitudeDegrees>
            </Position>
            <AltitudeMeters>170</AltitudeMeters>
            <DistanceMeters>NAN</DistanceMeters>
          </Trackpoint>
          <Trackpoint>
            <Time>2022-07-17T12:26:48.000Z</Time>
            <Position>
              <LatitudeDegrees>43.5052101127803325653076171875</LatitudeDegrees>
              <LongitudeDegrees>-5.339878164231777191162109375</LongitudeDegrees>
            </Position>
            <AltitudeMeters>170.1999969482421875</AltitudeMeters>
            <DistanceMeters>NAN</DistanceMeters>
          </Trackpoint>
          <Trackpoint>
            <Time>2022-07-17T12:26:56.000Z</Time>
            <Position>
              <LatitudeDegrees>43.5051257908344268798828125</LatitudeDegrees>
              <LongitudeDegrees>-5.34010288305580615997314453125</LongitudeDegrees>
            </Position>
            <AltitudeMeters>170.600006103515625</AltitudeMeters>
            <DistanceMeters>NAN</DistanceMeters>
          </Trackpoint>
          <Trackpoint>
            <Time>2022-07-17T12:27:05.000Z</Time>
            <Position>
              <LatitudeDegrees>43.5049621760845184326171875</LatitudeDegrees>
              <LongitudeDegrees>-5.34038987942039966583251953125</LongitudeDegrees>
            </Position>
            <AltitudeMeters>171</AltitudeMeters>
            <DistanceMeters>NAN</DistanceMeters>
          </Trackpoint>
          <Trackpoint>
            <Time>2022-07-17T12:27:06.000Z</Time>
            <Position>
              <LatitudeDegrees>43.50494566373527050018310546875</LatitudeDegrees>
              <LongitudeDegrees>-5.34041821025311946868896484375</LongitudeDegrees>
            </Position>
            <AltitudeMeters>171</AltitudeMeters>
            <DistanceMeters>NAN</DistanceMeters>
          </Trackpoint>
          <Trackpoint>
            <Time>2022-07-17T12:27:09.000Z</Time>
            <Position>
              <LatitudeDegrees>43.5048775188624858856201171875</LatitudeDegrees>
              <LongitudeDegrees>-5.340535975992679595947265625</LongitudeDegrees>
            </Position>
            <AltitudeMeters>171</AltitudeMeters>
            <DistanceMeters>NAN</DistanceMeters>
          </Trackpoint>
          <Trackpoint>
            <Time>2022-07-17T12:27:16.000Z</Time>
            <Position>
              <LatitudeDegrees>43.5047316737473011016845703125</LatitudeDegrees>
              <LongitudeDegrees>-5.34079405479133129119873046875</LongitudeDegrees>
            </Position>
            <AltitudeMeters>171.1999969482421875</AltitudeMeters>
            <DistanceMeters>NAN</DistanceMeters>
          </Trackpoint>
          <Trackpoint>
            <Time>2022-07-17T12:27:23.000Z</Time>
            <Position>
              <LatitudeDegrees>43.50460368208587169647216796875</LatitudeDegrees>
              <LongitudeDegrees>-5.341029502451419830322265625</LongitudeDegrees>
            </Position>
            <AltitudeMeters>171</AltitudeMeters>
            <DistanceMeters>NAN</DistanceMeters>
          </Trackpoint>
          <Trackpoint>
            <Time>2022-07-17T12:27:26.000Z</Time>
            <Position>
              <LatitudeDegrees>43.50454970262944698333740234375</LatitudeDegrees>
              <LongitudeDegrees>-5.3411245532333850860595703125</LongitudeDegrees>
            </Position>
            <AltitudeMeters>170.399993896484375</AltitudeMeters>
            <DistanceMeters>NAN</DistanceMeters>
          </Trackpoint>
          <Trackpoint>
            <Time>2022-07-17T12:27:28.000Z</Time>
            <Position>
              <LatitudeDegrees>43.50451902486383914947509765625</LatitudeDegrees>
              <LongitudeDegrees>-5.3411771915853023529052734375</LongitudeDegrees>
            </Position>
            <AltitudeMeters>170.1999969482421875</AltitudeMeters>
            <DistanceMeters>NAN</DistanceMeters>
          </Trackpoint>
          <Trackpoint>
            <Time>2022-07-17T12:27:29.000Z</Time>
            <Position>
              <LatitudeDegrees>43.504499495029449462890625</LatitudeDegrees>
              <LongitudeDegrees>-5.34121222794055938720703125</LongitudeDegrees>
            </Position>
            <AltitudeMeters>170.1999969482421875</AltitudeMeters>
            <DistanceMeters>NAN</DistanceMeters>
          </Trackpoint>
          <Trackpoint>
            <Time>2022-07-17T12:27:30.000Z</Time>
            <Position>
              <LatitudeDegrees>43.504484407603740692138671875</LatitudeDegrees>
              <LongitudeDegrees>-5.3412397205829620361328125</LongitudeDegrees>
            </Position>
            <AltitudeMeters>170.399993896484375</AltitudeMeters>
            <DistanceMeters>NAN</DistanceMeters>
          </Trackpoint>
          <Trackpoint>
            <Time>2022-07-17T12:27:32.000Z</Time>
            <Position>
              <LatitudeDegrees>43.5044544003903865814208984375</LatitudeDegrees>
              <LongitudeDegrees>-5.34129026345908641815185546875</LongitudeDegrees>
            </Position>
            <AltitudeMeters>170.399993896484375</AltitudeMeters>
            <DistanceMeters>NAN</DistanceMeters>
          </Trackpoint>
          <Trackpoint>
            <Time>2022-07-17T12:27:34.000Z</Time>
            <Position>
              <LatitudeDegrees>43.50441643036901950836181640625</LatitudeDegrees>
              <LongitudeDegrees>-5.34135564230382442474365234375</LongitudeDegrees>
            </Position>
            <AltitudeMeters>170.399993896484375</AltitudeMeters>
            <DistanceMeters>NAN</DistanceMeters>
          </Trackpoint>
          <Trackpoint>
            <Time>2022-07-17T12:27:45.000Z</Time>
            <Position>
              <LatitudeDegrees>43.5042083077132701873779296875</LatitudeDegrees>
              <LongitudeDegrees>-5.3417340852320194244384765625</LongitudeDegrees>
            </Position>
            <AltitudeMeters>170.1999969482421875</AltitudeMeters>
            <DistanceMeters>NAN</DistanceMeters>
          </Trackpoint>
          <Trackpoint>
            <Time>2022-07-17T12:27:51.000Z</Time>
            <Position>
              <LatitudeDegrees>43.50408266298472881317138671875</LatitudeDegrees>
              <LongitudeDegrees>-5.3419825248420238494873046875</LongitudeDegrees>
            </Position>
            <AltitudeMeters>170.1999969482421875</AltitudeMeters>
            <DistanceMeters>NAN</DistanceMeters>
          </Trackpoint>
          <Trackpoint>
            <Time>2022-07-17T12:27:52.000Z</Time>
            <Position>
              <LatitudeDegrees>43.504060618579387664794921875</LatitudeDegrees>
              <LongitudeDegrees>-5.34203206188976764678955078125</LongitudeDegrees>
            </Position>
            <AltitudeMeters>170.1999969482421875</AltitudeMeters>
            <DistanceMeters>NAN</DistanceMeters>
          </Trackpoint>
          <Trackpoint>
            <Time>2022-07-17T12:27:53.000Z</Time>
            <Position>
              <LatitudeDegrees>43.50403882563114166259765625</LatitudeDegrees>
              <LongitudeDegrees>-5.34209978766739368438720703125</LongitudeDegrees>
            </Position>
            <AltitudeMeters>170.1999969482421875</AltitudeMeters>
            <DistanceMeters>NAN</DistanceMeters>
          </Trackpoint>
          <Trackpoint>
            <Time>2022-07-17T12:27:54.000Z</Time>
            <Position>
              <LatitudeDegrees>43.50402549840509891510009765625</LatitudeDegrees>
              <LongitudeDegrees>-5.342164076864719390869140625</LongitudeDegrees>
            </Position>
            <AltitudeMeters>170</AltitudeMeters>
            <DistanceMeters>NAN</DistanceMeters>
          </Trackpoint>
          <Trackpoint>
            <Time>2022-07-17T12:27:56.000Z</Time>
            <Position>
              <LatitudeDegrees>43.50401594303548336029052734375</LatitudeDegrees>
              <LongitudeDegrees>-5.342288129031658172607421875</LongitudeDegrees>
            </Position>
            <AltitudeMeters>170</AltitudeMeters>
            <DistanceMeters>NAN</DistanceMeters>
          </Trackpoint>
          <Trackpoint>
            <Time>2022-07-17T12:27:57.000Z</Time>
            <Position>
              <LatitudeDegrees>43.50401359610259532928466796875</LatitudeDegrees>
              <LongitudeDegrees>-5.34236364997923374176025390625</LongitudeDegrees>
            </Position>
            <AltitudeMeters>170</AltitudeMeters>
            <DistanceMeters>NAN</DistanceMeters>
          </Trackpoint>
          <Trackpoint>
            <Time>2022-07-17T12:27:58.000Z</Time>
            <Position>
              <LatitudeDegrees>43.50401225499808788299560546875</LatitudeDegrees>
              <LongitudeDegrees>-5.3424458764493465423583984375</LongitudeDegrees>
            </Position>
            <AltitudeMeters>169.8000030517578125</AltitudeMeters>
            <DistanceMeters>NAN</DistanceMeters>
          </Trackpoint>
          <Trackpoint>
            <Time>2022-07-17T12:27:59.000Z</Time>
            <Position>
              <LatitudeDegrees>43.50401661358773708343505859375</LatitudeDegrees>
              <LongitudeDegrees>-5.3425293602049350738525390625</LongitudeDegrees>
            </Position>
            <AltitudeMeters>169.600006103515625</AltitudeMeters>
            <DistanceMeters>NAN</DistanceMeters>
          </Trackpoint>
          <Trackpoint>
            <Time>2022-07-17T12:28:03.000Z</Time>
            <Position>
              <LatitudeDegrees>43.50402901880443096160888671875</LatitudeDegrees>
              <LongitudeDegrees>-5.342891626060009002685546875</LongitudeDegrees>
            </Position>
            <AltitudeMeters>168.8000030517578125</AltitudeMeters>
            <DistanceMeters>NAN</DistanceMeters>
          </Trackpoint>
          <Trackpoint>
            <Time>2022-07-17T12:28:05.000Z</Time>
            <Position>
              <LatitudeDegrees>43.50399616174399852752685546875</LatitudeDegrees>
              <LongitudeDegrees>-5.34308030270040035247802734375</LongitudeDegrees>
            </Position>
            <AltitudeMeters>168</AltitudeMeters>
            <DistanceMeters>NAN</DistanceMeters>
          </Trackpoint>
          <Trackpoint>
            <Time>2022-07-17T12:28:06.000Z</Time>
            <Position>
              <LatitudeDegrees>43.5039635561406612396240234375</LatitudeDegrees>
              <LongitudeDegrees>-5.34317367710173130035400390625</LongitudeDegrees>
            </Position>
            <AltitudeMeters>167.600006103515625</AltitudeMeters>
            <DistanceMeters>NAN</DistanceMeters>
          </Trackpoint>
          <Trackpoint>
            <Time>2022-07-17T12:28:11.000Z</Time>
            <Position>
              <LatitudeDegrees>43.50372978486120700836181640625</LatitudeDegrees>
              <LongitudeDegrees>-5.34366468898952007293701171875</LongitudeDegrees>
            </Position>
            <AltitudeMeters>166.600006103515625</AltitudeMeters>
            <DistanceMeters>NAN</DistanceMeters>
          </Trackpoint>
          <Trackpoint>
            <Time>2022-07-17T12:28:12.000Z</Time>
            <Position>
              <LatitudeDegrees>43.50368318147957324981689453125</LatitudeDegrees>
              <LongitudeDegrees>-5.3437732346355915069580078125</LongitudeDegrees>
            </Position>
            <AltitudeMeters>165.8000030517578125</AltitudeMeters>
            <DistanceMeters>NAN</DistanceMeters>
          </Trackpoint>
          <Trackpoint>
            <Time>2022-07-17T12:28:13.000Z</Time>
            <Position>
              <LatitudeDegrees>43.50364294834434986114501953125</LatitudeDegrees>
              <LongitudeDegrees>-5.34389150328934192657470703125</LongitudeDegrees>
            </Position>
            <AltitudeMeters>165.399993896484375</AltitudeMeters>
            <DistanceMeters>NAN</DistanceMeters>
          </Trackpoint>
          <Trackpoint>
            <Time>2022-07-17T12:28:14.000Z</Time>
            <Position>
              <LatitudeDegrees>43.5036074928939342498779296875</LatitudeDegrees>
              <LongitudeDegrees>-5.344017483294010162353515625</LongitudeDegrees>
            </Position>
            <AltitudeMeters>164.1999969482421875</AltitudeMeters>
            <DistanceMeters>NAN</DistanceMeters>
          </Trackpoint>
          <Trackpoint>
            <Time>2022-07-17T12:28:15.000Z</Time>
            <Position>
              <LatitudeDegrees>43.50358444266021251678466796875</LatitudeDegrees>
              <LongitudeDegrees>-5.344150923192501068115234375</LongitudeDegrees>
            </Position>
            <AltitudeMeters>164.1999969482421875</AltitudeMeters>
            <DistanceMeters>NAN</DistanceMeters>
          </Trackpoint>
          <Trackpoint>
            <Time>2022-07-17T12:28:16.000Z</Time>
            <Position>
              <LatitudeDegrees>43.50357212126255035400390625</LatitudeDegrees>
              <LongitudeDegrees>-5.34429006278514862060546875</LongitudeDegrees>
            </Position>
            <AltitudeMeters>163.8000030517578125</AltitudeMeters>
            <DistanceMeters>NAN</DistanceMeters>
          </Trackpoint>
          <Trackpoint>
            <Time>2022-07-17T12:28:18.000Z</Time>
            <Position>
              <LatitudeDegrees>43.5035662539303302764892578125</LatitudeDegrees>
              <LongitudeDegrees>-5.34457429312169551849365234375</LongitudeDegrees>
            </Position>
            <AltitudeMeters>163</AltitudeMeters>
            <DistanceMeters>NAN</DistanceMeters>
          </Trackpoint>
          <Trackpoint>
            <Time>2022-07-17T12:28:19.000Z</Time>
            <Position>
              <LatitudeDegrees>43.50356482900679111480712890625</LatitudeDegrees>
              <LongitudeDegrees>-5.34472055733203887939453125</LongitudeDegrees>
            </Position>
            <AltitudeMeters>162.8000030517578125</AltitudeMeters>
            <DistanceMeters>NAN</DistanceMeters>
          </Trackpoint>
          <Trackpoint>
            <Time>2022-07-17T12:28:23.000Z</Time>
            <Position>
              <LatitudeDegrees>43.50354789756238460540771484375</LatitudeDegrees>
              <LongitudeDegrees>-5.3452749364078044891357421875</LongitudeDegrees>
            </Position>
            <AltitudeMeters>162.1999969482421875</AltitudeMeters>
            <DistanceMeters>NAN</DistanceMeters>
          </Trackpoint>
          <Trackpoint>
            <Time>2022-07-17T12:28:24.000Z</Time>
            <Position>
              <LatitudeDegrees>43.5035256855189800262451171875</LatitudeDegrees>
              <LongitudeDegrees>-5.3454078733921051025390625</LongitudeDegrees>
            </Position>
            <AltitudeMeters>161.8000030517578125</AltitudeMeters>
            <DistanceMeters>NAN</DistanceMeters>
          </Trackpoint>
          <Trackpoint>
            <Time>2022-07-17T12:28:27.000Z</Time>
            <Position>
              <LatitudeDegrees>43.50343172438442707061767578125</LatitudeDegrees>
              <LongitudeDegrees>-5.34579721279442310333251953125</LongitudeDegrees>
            </Position>
            <AltitudeMeters>160.600006103515625</AltitudeMeters>
            <DistanceMeters>NAN</DistanceMeters>
          </Trackpoint>
          <Trackpoint>
            <Time>2022-07-17T12:28:30.000Z</Time>
            <Position>
              <LatitudeDegrees>43.5033275373280048370361328125</LatitudeDegrees>
              <LongitudeDegrees>-5.346184037625789642333984375</LongitudeDegrees>
            </Position>
            <AltitudeMeters>160</AltitudeMeters>
            <DistanceMeters>NAN</DistanceMeters>
          </Trackpoint>
          <Trackpoint>
            <Time>2022-07-17T12:28:32.000Z</Time>
            <Position>
              <LatitudeDegrees>43.5032350011169910430908203125</LatitudeDegrees>
              <LongitudeDegrees>-5.3464323095977306365966796875</LongitudeDegrees>
            </Position>
            <AltitudeMeters>159</AltitudeMeters>
            <DistanceMeters>NAN</DistanceMeters>
          </Trackpoint>
          <Trackpoint>
            <Time>2022-07-17T12:28:34.000Z</Time>
            <Position>
              <LatitudeDegrees>43.50312880240380764007568359375</LatitudeDegrees>
              <LongitudeDegrees>-5.346666835248470306396484375</LongitudeDegrees>
            </Position>
            <AltitudeMeters>158.1999969482421875</AltitudeMeters>
            <DistanceMeters>NAN</DistanceMeters>
          </Trackpoint>
          <Trackpoint>
            <Time>2022-07-17T12:28:36.000Z</Time>
            <Position>
              <LatitudeDegrees>43.5030267946422100067138671875</LatitudeDegrees>
              <LongitudeDegrees>-5.3469352237880229949951171875</LongitudeDegrees>
            </Position>
            <AltitudeMeters>157.8000030517578125</AltitudeMeters>
            <DistanceMeters>NAN</DistanceMeters>
          </Trackpoint>
          <Trackpoint>
            <Time>2022-07-17T12:28:38.000Z</Time>
            <Position>
              <LatitudeDegrees>43.5029376111924648284912109375</LatitudeDegrees>
              <LongitudeDegrees>-5.34717343747615814208984375</LongitudeDegrees>
            </Position>
            <AltitudeMeters>157.1999969482421875</AltitudeMeters>
            <DistanceMeters>NAN</DistanceMeters>
          </Trackpoint>
          <Trackpoint>
            <Time>2022-07-17T12:28:40.000Z</Time>
            <Position>
              <LatitudeDegrees>43.50284415297210216522216796875</LatitudeDegrees>
              <LongitudeDegrees>-5.34737451933324337005615234375</LongitudeDegrees>
            </Position>
            <AltitudeMeters>156.8000030517578125</AltitudeMeters>
            <DistanceMeters>NAN</DistanceMeters>
          </Trackpoint>
          <Trackpoint>
            <Time>2022-07-17T12:28:42.000Z</Time>
            <Position>
              <LatitudeDegrees>43.502718508243560791015625</LatitudeDegrees>
              <LongitudeDegrees>-5.3475645370781421661376953125</LongitudeDegrees>
            </Position>
            <AltitudeMeters>155.399993896484375</AltitudeMeters>
            <DistanceMeters>NAN</DistanceMeters>
          </Trackpoint>
          <Trackpoint>
            <Time>2022-07-17T12:28:46.000Z</Time>
            <Position>
              <LatitudeDegrees>43.50245305337011814117431640625</LatitudeDegrees>
              <LongitudeDegrees>-5.34789218567311763763427734375</LongitudeDegrees>
            </Position>
            <AltitudeMeters>154.399993896484375</AltitudeMeters>
            <DistanceMeters>NAN</DistanceMeters>
          </Trackpoint>
          <Trackpoint>
            <Time>2022-07-17T12:28:48.000Z</Time>
            <Position>
              <LatitudeDegrees>43.50231391377747058868408203125</LatitudeDegrees>
              <LongitudeDegrees>-5.34804943017661571502685546875</LongitudeDegrees>
            </Position>
            <AltitudeMeters>153</AltitudeMeters>
            <DistanceMeters>NAN</DistanceMeters>
          </Trackpoint>
          <Trackpoint>
            <Time>2022-07-17T12:28:49.000Z</Time>
            <Position>
              <LatitudeDegrees>43.50224635563790798187255859375</LatitudeDegrees>
              <LongitudeDegrees>-5.3481324948370456695556640625</LongitudeDegrees>
            </Position>
            <AltitudeMeters>152.8000030517578125</AltitudeMeters>
            <DistanceMeters>NAN</DistanceMeters>
          </Trackpoint>
          <Trackpoint>
            <Time>2022-07-17T12:28:53.000Z</Time>
            <Position>
              <LatitudeDegrees>43.5019768774509429931640625</LatitudeDegrees>
              <LongitudeDegrees>-5.3484977781772613525390625</LongitudeDegrees>
            </Position>
            <AltitudeMeters>152.399993896484375</AltitudeMeters>
            <DistanceMeters>NAN</DistanceMeters>
          </Trackpoint>
          <Trackpoint>
            <Time>2022-07-17T12:28:54.000Z</Time>
            <Position>
              <LatitudeDegrees>43.50193639285862445831298828125</LatitudeDegrees>
              <LongitudeDegrees>-5.348602049052715301513671875</LongitudeDegrees>
            </Position>
            <AltitudeMeters>152.1999969482421875</AltitudeMeters>
            <DistanceMeters>NAN</DistanceMeters>
          </Trackpoint>
          <Trackpoint>
            <Time>2022-07-17T12:28:55.000Z</Time>
            <Position>
              <LatitudeDegrees>43.5019317828118801116943359375</LatitudeDegrees>
              <LongitudeDegrees>-5.34869114868342876434326171875</LongitudeDegrees>
            </Position>
            <AltitudeMeters>152.1999969482421875</AltitudeMeters>
            <DistanceMeters>NAN</DistanceMeters>
          </Trackpoint>
          <Trackpoint>
            <Time>2022-07-17T12:28:56.000Z</Time>
            <Position>
              <LatitudeDegrees>43.5019525699317455291748046875</LatitudeDegrees>
              <LongitudeDegrees>-5.34880296327173709869384765625</LongitudeDegrees>
            </Position>
            <AltitudeMeters>152</AltitudeMeters>
            <DistanceMeters>NAN</DistanceMeters>
          </Trackpoint>
          <Trackpoint>
            <Time>2022-07-17T12:28:57.000Z</Time>
            <Position>
              <LatitudeDegrees>43.50199506618082523345947265625</LatitudeDegrees>
              <LongitudeDegrees>-5.34890488721430301666259765625</LongitudeDegrees>
            </Position>
            <AltitudeMeters>151.399993896484375</AltitudeMeters>
            <DistanceMeters>NAN</DistanceMeters>
          </Trackpoint>
          <Trackpoint>
            <Time>2022-07-17T12:28:58.000Z</Time>
            <Position>
              <LatitudeDegrees>43.502057678997516632080078125</LatitudeDegrees>
              <LongitudeDegrees>-5.348992310464382171630859375</LongitudeDegrees>
            </Position>
            <AltitudeMeters>150</AltitudeMeters>
            <DistanceMeters>NAN</DistanceMeters>
          </Trackpoint>
          <Trackpoint>
            <Time>2022-07-17T12:29:00.000Z</Time>
            <Position>
              <LatitudeDegrees>43.50220612250268459320068359375</LatitudeDegrees>
              <LongitudeDegrees>-5.3491443581879138946533203125</LongitudeDegrees>
            </Position>
            <AltitudeMeters>149</AltitudeMeters>
            <DistanceMeters>NAN</DistanceMeters>
          </Trackpoint>
          <Trackpoint>
            <Time>2022-07-17T12:29:02.000Z</Time>
            <Position>
              <LatitudeDegrees>43.50237510167062282562255859375</LatitudeDegrees>
              <LongitudeDegrees>-5.34926648251712322235107421875</LongitudeDegrees>
            </Position>
            <AltitudeMeters>147.600006103515625</AltitudeMeters>
            <DistanceMeters>NAN</DistanceMeters>
          </Trackpoint>
          <Trackpoint>
            <Time>2022-07-17T12:29:06.000Z</Time>
            <Position>
              <LatitudeDegrees>43.50275429897010326385498046875</LatitudeDegrees>
              <LongitudeDegrees>-5.34936874173581600189208984375</LongitudeDegrees>
            </Position>
            <AltitudeMeters>146.600006103515625</AltitudeMeters>
            <DistanceMeters>NAN</DistanceMeters>
          </Trackpoint>
          <Trackpoint>
            <Time>2022-07-17T12:29:07.000Z</Time>
            <Position>
              <LatitudeDegrees>43.50284649990499019622802734375</LatitudeDegrees>
              <LongitudeDegrees>-5.3493988327682018280029296875</LongitudeDegrees>
            </Position>
            <AltitudeMeters>146.600006103515625</AltitudeMeters>
            <DistanceMeters>NAN</DistanceMeters>
          </Trackpoint>
          <Trackpoint>
            <Time>2022-07-17T12:29:08.000Z</Time>
            <Position>
              <LatitudeDegrees>43.5029371082782745361328125</LatitudeDegrees>
              <LongitudeDegrees>-5.34944183193147182464599609375</LongitudeDegrees>
            </Position>
            <AltitudeMeters>146.600006103515625</AltitudeMeters>
            <DistanceMeters>NAN</DistanceMeters>
          </Trackpoint>
          <Trackpoint>
            <Time>2022-07-17T12:29:09.000Z</Time>
            <Position>
              <LatitudeDegrees>43.5030180774629116058349609375</LatitudeDegrees>
              <LongitudeDegrees>-5.3495051153004169464111328125</LongitudeDegrees>
            </Position>
            <AltitudeMeters>146.399993896484375</AltitudeMeters>
            <DistanceMeters>NAN</DistanceMeters>
          </Trackpoint>
          <Trackpoint>
            <Time>2022-07-17T12:29:11.000Z</Time>
            <Position>
              <LatitudeDegrees>43.50314858369529247283935546875</LatitudeDegrees>
              <LongitudeDegrees>-5.349682308733463287353515625</LongitudeDegrees>
            </Position>
            <AltitudeMeters>145.600006103515625</AltitudeMeters>
            <DistanceMeters>NAN</DistanceMeters>
          </Trackpoint>
          <Trackpoint>
            <Time>2022-07-17T12:29:12.000Z</Time>
            <Position>
              <LatitudeDegrees>43.50320071913301944732666015625</LatitudeDegrees>
              <LongitudeDegrees>-5.34979269839823246002197265625</LongitudeDegrees>
            </Position>
            <AltitudeMeters>145.399993896484375</AltitudeMeters>
            <DistanceMeters>NAN</DistanceMeters>
          </Trackpoint>
          <Trackpoint>
            <Time>2022-07-17T12:29:14.000Z</Time>
            <Position>
              <LatitudeDegrees>43.5032857954502105712890625</LatitudeDegrees>
              <LongitudeDegrees>-5.3500506095588207244873046875</LongitudeDegrees>
            </Position>
            <AltitudeMeters>144.600006103515625</AltitudeMeters>
            <DistanceMeters>NAN</DistanceMeters>
          </Trackpoint>
          <Trackpoint>
            <Time>2022-07-17T12:29:15.000Z</Time>
            <Position>
              <LatitudeDegrees>43.5033174790441989898681640625</LatitudeDegrees>
              <LongitudeDegrees>-5.350182540714740753173828125</LongitudeDegrees>
            </Position>
            <AltitudeMeters>144.1999969482421875</AltitudeMeters>
            <DistanceMeters>NAN</DistanceMeters>
          </Trackpoint>
          <Trackpoint>
            <Time>2022-07-17T12:29:16.000Z</Time>
            <Position>
              <LatitudeDegrees>43.50334346294403076171875</LatitudeDegrees>
              <LongitudeDegrees>-5.35031874664127826690673828125</LongitudeDegrees>
            </Position>
            <AltitudeMeters>143.8000030517578125</AltitudeMeters>
            <DistanceMeters>NAN</DistanceMeters>
          </Trackpoint>
          <Trackpoint>
            <Time>2022-07-17T12:29:17.000Z</Time>
            <Position>
              <LatitudeDegrees>43.5033674351871013641357421875</LatitudeDegrees>
              <LongitudeDegrees>-5.3504603169858455657958984375</LongitudeDegrees>
            </Position>
            <AltitudeMeters>143.1999969482421875</AltitudeMeters>
            <DistanceMeters>NAN</DistanceMeters>
          </Trackpoint>
          <Trackpoint>
            <Time>2022-07-17T12:29:19.000Z</Time>
            <Position>
              <LatitudeDegrees>43.50341294892132282257080078125</LatitudeDegrees>
              <LongitudeDegrees>-5.35075418651103973388671875</LongitudeDegrees>
            </Position>
            <AltitudeMeters>142.1999969482421875</AltitudeMeters>
            <DistanceMeters>NAN</DistanceMeters>
          </Trackpoint>
          <Trackpoint>
            <Time>2022-07-17T12:29:21.000Z</Time>
            <Position>
              <LatitudeDegrees>43.5034418664872646331787109375</LatitudeDegrees>
              <LongitudeDegrees>-5.3510648198425769805908203125</LongitudeDegrees>
            </Position>
            <AltitudeMeters>141.600006103515625</AltitudeMeters>
            <DistanceMeters>NAN</DistanceMeters>
          </Trackpoint>
          <Trackpoint>
            <Time>2022-07-17T12:29:23.000Z</Time>
            <Position>
              <LatitudeDegrees>43.503458797931671142578125</LatitudeDegrees>
              <LongitudeDegrees>-5.3513803146779537200927734375</LongitudeDegrees>
            </Position>
            <AltitudeMeters>141</AltitudeMeters>
            <DistanceMeters>NAN</DistanceMeters>
          </Trackpoint>
          <Trackpoint>
            <Time>2022-07-17T12:29:26.000Z</Time>
            <Position>
              <LatitudeDegrees>43.50347514264285564422607421875</LatitudeDegrees>
              <LongitudeDegrees>-5.3518560715019702911376953125</LongitudeDegrees>
            </Position>
            <AltitudeMeters>139.600006103515625</AltitudeMeters>
            <DistanceMeters>NAN</DistanceMeters>
          </Trackpoint>
          <Trackpoint>
            <Time>2022-07-17T12:29:29.000Z</Time>
            <Position>
              <LatitudeDegrees>43.50348922424018383026123046875</LatitudeDegrees>
              <LongitudeDegrees>-5.35233459435403347015380859375</LongitudeDegrees>
            </Position>
            <AltitudeMeters>138.1999969482421875</AltitudeMeters>
            <DistanceMeters>NAN</DistanceMeters>
          </Trackpoint>
          <Trackpoint>
            <Time>2022-07-17T12:29:31.000Z</Time>
            <Position>
              <LatitudeDegrees>43.50348897278308868408203125</LatitudeDegrees>
              <LongitudeDegrees>-5.35265243612229824066162109375</LongitudeDegrees>
            </Position>
            <AltitudeMeters>136.600006103515625</AltitudeMeters>
            <DistanceMeters>NAN</DistanceMeters>
          </Trackpoint>
          <Trackpoint>
            <Time>2022-07-17T12:29:33.000Z</Time>
            <Position>
              <LatitudeDegrees>43.50347581319510936737060546875</LatitudeDegrees>
              <LongitudeDegrees>-5.3529755584895610809326171875</LongitudeDegrees>
            </Position>
            <AltitudeMeters>135.1999969482421875</AltitudeMeters>
            <DistanceMeters>NAN</DistanceMeters>
          </Trackpoint>
          <Trackpoint>
            <Time>2022-07-17T12:29:35.000Z</Time>
            <Position>
              <LatitudeDegrees>43.50345435552299022674560546875</LatitudeDegrees>
              <LongitudeDegrees>-5.353297255933284759521484375</LongitudeDegrees>
            </Position>
            <AltitudeMeters>134.600006103515625</AltitudeMeters>
            <DistanceMeters>NAN</DistanceMeters>
          </Trackpoint>
          <Trackpoint>
            <Time>2022-07-17T12:29:36.000Z</Time>
            <Position>
              <LatitudeDegrees>43.503437340259552001953125</LatitudeDegrees>
              <LongitudeDegrees>-5.353455841541290283203125</LongitudeDegrees>
            </Position>
            <AltitudeMeters>134</AltitudeMeters>
            <DistanceMeters>NAN</DistanceMeters>
          </Trackpoint>
          <Trackpoint>
            <Time>2022-07-17T12:29:39.000Z</Time>
            <Position>
              <LatitudeDegrees>43.503372967243194580078125</LatitudeDegrees>
              <LongitudeDegrees>-5.35392262972891330718994140625</LongitudeDegrees>
            </Position>
            <AltitudeMeters>133</AltitudeMeters>
            <DistanceMeters>NAN</DistanceMeters>
          </Trackpoint>
          <Trackpoint>
            <Time>2022-07-17T12:29:42.000Z</Time>
            <Position>
              <LatitudeDegrees>43.5032911598682403564453125</LatitudeDegrees>
              <LongitudeDegrees>-5.35438464023172855377197265625</LongitudeDegrees>
            </Position>
            <AltitudeMeters>131.399993896484375</AltitudeMeters>
            <DistanceMeters>NAN</DistanceMeters>
          </Trackpoint>
          <Trackpoint>
            <Time>2022-07-17T12:29:44.000Z</Time>
            <Position>
              <LatitudeDegrees>43.5032259486615657806396484375</LatitudeDegrees>
              <LongitudeDegrees>-5.35468555055558681488037109375</LongitudeDegrees>
            </Position>
            <AltitudeMeters>129.8000030517578125</AltitudeMeters>
            <DistanceMeters>NAN</DistanceMeters>
          </Trackpoint>
          <Trackpoint>
            <Time>2022-07-17T12:29:45.000Z</Time>
            <Position>
              <LatitudeDegrees>43.50319216959178447723388671875</LatitudeDegrees>
              <LongitudeDegrees>-5.35483608953654766082763671875</LongitudeDegrees>
            </Position>
            <AltitudeMeters>128.8000030517578125</AltitudeMeters>
            <DistanceMeters>NAN</DistanceMeters>
          </Trackpoint>
          <Trackpoint>
            <Time>2022-07-17T12:29:47.000Z</Time>
            <Position>
              <LatitudeDegrees>43.50310742855072021484375</LatitudeDegrees>
              <LongitudeDegrees>-5.3551394306123256683349609375</LongitudeDegrees>
            </Position>
            <AltitudeMeters>127.59999847412109375</AltitudeMeters>
            <DistanceMeters>NAN</DistanceMeters>
          </Trackpoint>
          <Trackpoint>
            <Time>2022-07-17T12:29:48.000Z</Time>
            <Position>
              <LatitudeDegrees>43.5030499286949634552001953125</LatitudeDegrees>
              <LongitudeDegrees>-5.35527848638594150543212890625</LongitudeDegrees>
            </Position>
            <AltitudeMeters>127.1999969482421875</AltitudeMeters>
            <DistanceMeters>NAN</DistanceMeters>
          </Trackpoint>
          <Trackpoint>
            <Time>2022-07-17T12:29:49.000Z</Time>
            <Position>
              <LatitudeDegrees>43.502974994480609893798828125</LatitudeDegrees>
              <LongitudeDegrees>-5.355403460562229156494140625</LongitudeDegrees>
            </Position>
            <AltitudeMeters>126.59999847412109375</AltitudeMeters>
            <DistanceMeters>NAN</DistanceMeters>
          </Trackpoint>
          <Trackpoint>
            <Time>2022-07-17T12:29:51.000Z</Time>
            <Position>
              <LatitudeDegrees>43.50279319100081920623779296875</LatitudeDegrees>
              <LongitudeDegrees>-5.3556128405034542083740234375</LongitudeDegrees>
            </Position>
            <AltitudeMeters>125.40000152587890625</AltitudeMeters>
            <DistanceMeters>NAN</DistanceMeters>
          </Trackpoint>
          <Trackpoint>
            <Time>2022-07-17T12:29:54.000Z</Time>
            <Position>
              <LatitudeDegrees>43.5024655424058437347412109375</LatitudeDegrees>
              <LongitudeDegrees>-5.3557741083204746246337890625</LongitudeDegrees>
            </Position>
            <AltitudeMeters>124</AltitudeMeters>
            <DistanceMeters>NAN</DistanceMeters>
          </Trackpoint>
          <Trackpoint>
            <Time>2022-07-17T12:29:55.000Z</Time>
            <Position>
              <LatitudeDegrees>43.5023562423884868621826171875</LatitudeDegrees>
              <LongitudeDegrees>-5.355819873511791229248046875</LongitudeDegrees>
            </Position>
            <AltitudeMeters>123.8000030517578125</AltitudeMeters>
            <DistanceMeters>NAN</DistanceMeters>
          </Trackpoint>
          <Trackpoint>
            <Time>2022-07-17T12:29:56.000Z</Time>
            <Position>
              <LatitudeDegrees>43.50226211361587047576904296875</LatitudeDegrees>
              <LongitudeDegrees>-5.35588500089943408966064453125</LongitudeDegrees>
            </Position>
            <AltitudeMeters>122.8000030517578125</AltitudeMeters>
            <DistanceMeters>NAN</DistanceMeters>
          </Trackpoint>
          <Trackpoint>
            <Time>2022-07-17T12:29:57.000Z</Time>
            <Position>
              <LatitudeDegrees>43.5021892748773097991943359375</LatitudeDegrees>
              <LongitudeDegrees>-5.355966724455356597900390625</LongitudeDegrees>
            </Position>
            <AltitudeMeters>122.1999969482421875</AltitudeMeters>
            <DistanceMeters>NAN</DistanceMeters>
          </Trackpoint>
          <Trackpoint>
            <Time>2022-07-17T12:29:58.000Z</Time>
            <Position>
              <LatitudeDegrees>43.50216052494943141937255859375</LatitudeDegrees>
              <LongitudeDegrees>-5.35606705583631992340087890625</LongitudeDegrees>
            </Position>
            <AltitudeMeters>121.59999847412109375</AltitudeMeters>
            <DistanceMeters>NAN</DistanceMeters>
          </Trackpoint>
          <Trackpoint>
            <Time>2022-07-17T12:29:59.000Z</Time>
            <Position>
              <LatitudeDegrees>43.5021647997200489044189453125</LatitudeDegrees>
              <LongitudeDegrees>-5.35618021152913570404052734375</LongitudeDegrees>
            </Position>
            <AltitudeMeters>121</AltitudeMeters>
            <DistanceMeters>NAN</DistanceMeters>
          </Trackpoint>
          <Trackpoint>
            <Time>2022-07-17T12:30:00.000Z</Time>
            <Position>
              <LatitudeDegrees>43.50217913277447223663330078125</LatitudeDegrees>
              <LongitudeDegrees>-5.35629923455417156219482421875</LongitudeDegrees>
            </Position>
            <AltitudeMeters>120.59999847412109375</AltitudeMeters>
            <DistanceMeters>NAN</DistanceMeters>
          </Trackpoint>
          <Trackpoint>
            <Time>2022-07-17T12:30:01.000Z</Time>
            <Position>
              <LatitudeDegrees>43.50219455547630786895751953125</LatitudeDegrees>
              <LongitudeDegrees>-5.35644290037453174591064453125</LongitudeDegrees>
            </Position>
            <AltitudeMeters>119.8000030517578125</AltitudeMeters>
            <DistanceMeters>NAN</DistanceMeters>
          </Trackpoint>
          <Trackpoint>
            <Time>2022-07-17T12:30:02.000Z</Time>
            <Position>
              <LatitudeDegrees>43.5021966509521007537841796875</LatitudeDegrees>
              <LongitudeDegrees>-5.35656427033245563507080078125</LongitudeDegrees>
            </Position>
            <AltitudeMeters>119</AltitudeMeters>
            <DistanceMeters>NAN</DistanceMeters>
          </Trackpoint>
          <Trackpoint>
            <Time>2022-07-17T12:30:03.000Z</Time>
            <Position>
              <LatitudeDegrees>43.5021926276385784149169921875</LatitudeDegrees>
              <LongitudeDegrees>-5.35666175186634063720703125</LongitudeDegrees>
            </Position>
            <AltitudeMeters>118.1999969482421875</AltitudeMeters>
            <DistanceMeters>NAN</DistanceMeters>
          </Trackpoint>
          <Trackpoint>
            <Time>2022-07-17T12:30:05.000Z</Time>
            <Position>
              <LatitudeDegrees>43.50216622464358806610107421875</LatitudeDegrees>
              <LongitudeDegrees>-5.35693692974746227264404296875</LongitudeDegrees>
            </Position>
            <AltitudeMeters>117.1999969482421875</AltitudeMeters>
            <DistanceMeters>NAN</DistanceMeters>
          </Trackpoint>
          <Trackpoint>
            <Time>2022-07-17T12:30:09.000Z</Time>
            <Position>
              <LatitudeDegrees>43.50206865929067134857177734375</LatitudeDegrees>
              <LongitudeDegrees>-5.35744671709835529327392578125</LongitudeDegrees>
            </Position>
            <AltitudeMeters>116</AltitudeMeters>
            <DistanceMeters>NAN</DistanceMeters>
          </Trackpoint>
          <Trackpoint>
            <Time>2022-07-17T12:30:12.000Z</Time>
            <Position>
              <LatitudeDegrees>43.5019411705434322357177734375</LatitudeDegrees>
              <LongitudeDegrees>-5.35780445672571659088134765625</LongitudeDegrees>
            </Position>
            <AltitudeMeters>114.8000030517578125</AltitudeMeters>
            <DistanceMeters>NAN</DistanceMeters>
          </Trackpoint>
          <Trackpoint>
            <Time>2022-07-17T12:30:13.000Z</Time>
            <Position>
              <LatitudeDegrees>43.501888029277324676513671875</LatitudeDegrees>
              <LongitudeDegrees>-5.35791778005659580230712890625</LongitudeDegrees>
            </Position>
            <AltitudeMeters>114.59999847412109375</AltitudeMeters>
            <DistanceMeters>NAN</DistanceMeters>
          </Trackpoint>
          <Trackpoint>
            <Time>2022-07-17T12:30:17.000Z</Time>
            <Position>
              <LatitudeDegrees>43.501706980168819427490234375</LatitudeDegrees>
              <LongitudeDegrees>-5.3583731688559055328369140625</LongitudeDegrees>
            </Position>
            <AltitudeMeters>113.8000030517578125</AltitudeMeters>
            <DistanceMeters>NAN</DistanceMeters>
          </Trackpoint>
          <Trackpoint>
            <Time>2022-07-17T12:30:19.000Z</Time>
            <Position>
              <LatitudeDegrees>43.50162458606064319610595703125</LatitudeDegrees>
              <LongitudeDegrees>-5.35859964787960052490234375</LongitudeDegrees>
            </Position>
            <AltitudeMeters>113.40000152587890625</AltitudeMeters>
            <DistanceMeters>NAN</DistanceMeters>
          </Trackpoint>
          <Trackpoint>
            <Time>2022-07-17T12:30:20.000Z</Time>
            <Position>
              <LatitudeDegrees>43.5015944950282573699951171875</LatitudeDegrees>
              <LongitudeDegrees>-5.35868908278644084930419921875</LongitudeDegrees>
            </Position>
            <AltitudeMeters>113.40000152587890625</AltitudeMeters>
            <DistanceMeters>NAN</DistanceMeters>
          </Trackpoint>
          <Trackpoint>
            <Time>2022-07-17T12:30:24.000Z</Time>
            <Position>
              <LatitudeDegrees>43.501429371535778045654296875</LatitudeDegrees>
              <LongitudeDegrees>-5.3591707907617092132568359375</LongitudeDegrees>
            </Position>
            <AltitudeMeters>112.59999847412109375</AltitudeMeters>
            <DistanceMeters>NAN</DistanceMeters>
          </Trackpoint>
          <Trackpoint>
            <Time>2022-07-17T12:30:25.000Z</Time>
            <Position>
              <LatitudeDegrees>43.5013919882476329803466796875</LatitudeDegrees>
              <LongitudeDegrees>-5.35928486846387386322021484375</LongitudeDegrees>
            </Position>
            <AltitudeMeters>111.40000152587890625</AltitudeMeters>
            <DistanceMeters>NAN</DistanceMeters>
          </Trackpoint>
          <Trackpoint>
            <Time>2022-07-17T12:30:27.000Z</Time>
            <Position>
              <LatitudeDegrees>43.5013182274997234344482421875</LatitudeDegrees>
              <LongitudeDegrees>-5.35951134748756885528564453125</LongitudeDegrees>
            </Position>
            <AltitudeMeters>109.8000030517578125</AltitudeMeters>
            <DistanceMeters>NAN</DistanceMeters>
          </Trackpoint>
          <Trackpoint>
            <Time>2022-07-17T12:30:29.000Z</Time>
            <Position>
              <LatitudeDegrees>43.5012461431324481964111328125</LatitudeDegrees>
              <LongitudeDegrees>-5.35973145626485347747802734375</LongitudeDegrees>
            </Position>
            <AltitudeMeters>108.59999847412109375</AltitudeMeters>
            <DistanceMeters>NAN</DistanceMeters>
          </Trackpoint>
          <Trackpoint>
            <Time>2022-07-17T12:30:31.000Z</Time>
            <Position>
              <LatitudeDegrees>43.50115603767335414886474609375</LatitudeDegrees>
              <LongitudeDegrees>-5.359935723245143890380859375</LongitudeDegrees>
            </Position>
            <AltitudeMeters>107.40000152587890625</AltitudeMeters>
            <DistanceMeters>NAN</DistanceMeters>
          </Trackpoint>
          <Trackpoint>
            <Time>2022-07-17T12:30:33.000Z</Time>
            <Position>
              <LatitudeDegrees>43.50105260498821735382080078125</LatitudeDegrees>
              <LongitudeDegrees>-5.36012389697134494781494140625</LongitudeDegrees>
            </Position>
            <AltitudeMeters>106.59999847412109375</AltitudeMeters>
            <DistanceMeters>NAN</DistanceMeters>
          </Trackpoint>
          <Trackpoint>
            <Time>2022-07-17T12:30:34.000Z</Time>
            <Position>
              <LatitudeDegrees>43.50099175237119197845458984375</LatitudeDegrees>
              <LongitudeDegrees>-5.360208638012409210205078125</LongitudeDegrees>
            </Position>
            <AltitudeMeters>106.40000152587890625</AltitudeMeters>
            <DistanceMeters>NAN</DistanceMeters>
          </Trackpoint>
          <Trackpoint>
            <Time>2022-07-17T12:30:35.000Z</Time>
            <Position>
              <LatitudeDegrees>43.5009281337261199951171875</LatitudeDegrees>
              <LongitudeDegrees>-5.360287092626094818115234375</LongitudeDegrees>
            </Position>
            <AltitudeMeters>106.1999969482421875</AltitudeMeters>
            <DistanceMeters>NAN</DistanceMeters>
          </Trackpoint>
          <Trackpoint>
            <Time>2022-07-17T12:30:37.000Z</Time>
            <Position>
              <LatitudeDegrees>43.50079695694148540496826171875</LatitudeDegrees>
              <LongitudeDegrees>-5.36039848811924457550048828125</LongitudeDegrees>
            </Position>
            <AltitudeMeters>105.1999969482421875</AltitudeMeters>
            <DistanceMeters>NAN</DistanceMeters>
          </Trackpoint>
          <Trackpoint>
            <Time>2022-07-17T12:30:38.000Z</Time>
            <Position>
              <LatitudeDegrees>43.500706516206264495849609375</LatitudeDegrees>
              <LongitudeDegrees>-5.36046135239303112030029296875</LongitudeDegrees>
            </Position>
            <AltitudeMeters>105</AltitudeMeters>
            <DistanceMeters>NAN</DistanceMeters>
          </Trackpoint>
          <Trackpoint>
            <Time>2022-07-17T12:30:41.000Z</Time>
            <Position>
              <LatitudeDegrees>43.5004627704620361328125</LatitudeDegrees>
              <LongitudeDegrees>-5.360574759542942047119140625</LongitudeDegrees>
            </Position>
            <AltitudeMeters>104.1999969482421875</AltitudeMeters>
            <DistanceMeters>NAN</DistanceMeters>
          </Trackpoint>
          <Trackpoint>
            <Time>2022-07-17T12:30:44.000Z</Time>
            <Position>
              <LatitudeDegrees>43.50024509243667125701904296875</LatitudeDegrees>
              <LongitudeDegrees>-5.360677354037761688232421875</LongitudeDegrees>
            </Position>
            <AltitudeMeters>104</AltitudeMeters>
            <DistanceMeters>NAN</DistanceMeters>
          </Trackpoint>
          <Trackpoint>
            <Time>2022-07-17T12:30:45.000Z</Time>
            <Position>
              <LatitudeDegrees>43.50016781128942966461181640625</LatitudeDegrees>
              <LongitudeDegrees>-5.3607204370200634002685546875</LongitudeDegrees>
            </Position>
            <AltitudeMeters>104</AltitudeMeters>
            <DistanceMeters>NAN</DistanceMeters>
          </Trackpoint>
          <Trackpoint>
            <Time>2022-07-17T12:30:48.000Z</Time>
            <Position>
              <LatitudeDegrees>43.499944098293781280517578125</LatitudeDegrees>
              <LongitudeDegrees>-5.36089134402573108673095703125</LongitudeDegrees>
            </Position>
            <AltitudeMeters>104.1999969482421875</AltitudeMeters>
            <DistanceMeters>NAN</DistanceMeters>
          </Trackpoint>
          <Trackpoint>
            <Time>2022-07-17T12:30:52.000Z</Time>
            <Position>
              <LatitudeDegrees>43.49975265562534332275390625</LatitudeDegrees>
              <LongitudeDegrees>-5.3611505962908267974853515625</LongitudeDegrees>
            </Position>
            <AltitudeMeters>104</AltitudeMeters>
            <DistanceMeters>NAN</DistanceMeters>
          </Trackpoint>
          <Trackpoint>
            <Time>2022-07-17T12:30:55.000Z</Time>
            <Position>
              <LatitudeDegrees>43.49965877830982208251953125</LatitudeDegrees>
              <LongitudeDegrees>-5.36137363873422145843505859375</LongitudeDegrees>
            </Position>
            <AltitudeMeters>103</AltitudeMeters>
            <DistanceMeters>NAN</DistanceMeters>
          </Trackpoint>
          <Trackpoint>
            <Time>2022-07-17T12:30:58.000Z</Time>
            <Position>
              <LatitudeDegrees>43.49956892430782318115234375</LatitudeDegrees>
              <LongitudeDegrees>-5.3615914843976497650146484375</LongitudeDegrees>
            </Position>
            <AltitudeMeters>102.1999969482421875</AltitudeMeters>
            <DistanceMeters>NAN</DistanceMeters>
          </Trackpoint>
          <Trackpoint>
            <Time>2022-07-17T12:31:00.000Z</Time>
            <Position>
              <LatitudeDegrees>43.49950849078595638275146484375</LatitudeDegrees>
              <LongitudeDegrees>-5.3617272712290287017822265625</LongitudeDegrees>
            </Position>
            <AltitudeMeters>102</AltitudeMeters>
            <DistanceMeters>NAN</DistanceMeters>
          </Trackpoint>
          <Trackpoint>
            <Time>2022-07-17T12:31:05.000Z</Time>
            <Position>
              <LatitudeDegrees>43.4993429481983184814453125</LatitudeDegrees>
              <LongitudeDegrees>-5.36203597672283649444580078125</LongitudeDegrees>
            </Position>
            <AltitudeMeters>102.1999969482421875</AltitudeMeters>
            <DistanceMeters>NAN</DistanceMeters>
          </Trackpoint>
          <Trackpoint>
            <Time>2022-07-17T12:31:07.000Z</Time>
            <Position>
              <LatitudeDegrees>43.49927723407745361328125</LatitudeDegrees>
              <LongitudeDegrees>-5.362143181264400482177734375</LongitudeDegrees>
            </Position>
            <AltitudeMeters>101.8000030517578125</AltitudeMeters>
            <DistanceMeters>NAN</DistanceMeters>
          </Trackpoint>
          <Trackpoint>
            <Time>2022-07-17T12:31:10.000Z</Time>
            <Position>
              <LatitudeDegrees>43.49915276281535625457763671875</LatitudeDegrees>
              <LongitudeDegrees>-5.3622724302113056182861328125</LongitudeDegrees>
            </Position>
            <AltitudeMeters>101</AltitudeMeters>
            <DistanceMeters>NAN</DistanceMeters>
          </Trackpoint>
          <Trackpoint>
            <Time>2022-07-17T12:31:18.000Z</Time>
            <Position>
              <LatitudeDegrees>43.49876216612756252288818359375</LatitudeDegrees>
              <LongitudeDegrees>-5.36258365027606487274169921875</LongitudeDegrees>
            </Position>
            <AltitudeMeters>100.40000152587890625</AltitudeMeters>
            <DistanceMeters>NAN</DistanceMeters>
          </Trackpoint>
          <Trackpoint>
            <Time>2022-07-17T12:31:21.000Z</Time>
            <Position>
              <LatitudeDegrees>43.4985959529876708984375</LatitudeDegrees>
              <LongitudeDegrees>-5.36269328556954860687255859375</LongitudeDegrees>
            </Position>
            <AltitudeMeters>99.8000030517578125</AltitudeMeters>
            <DistanceMeters>NAN</DistanceMeters>
          </Trackpoint>
          <Trackpoint>
            <Time>2022-07-17T12:31:23.000Z</Time>
            <Position>
              <LatitudeDegrees>43.49848288111388683319091796875</LatitudeDegrees>
              <LongitudeDegrees>-5.3627683036029338836669921875</LongitudeDegrees>
            </Position>
            <AltitudeMeters>99.59999847412109375</AltitudeMeters>
            <DistanceMeters>NAN</DistanceMeters>
          </Trackpoint>
          <Trackpoint>
            <Time>2022-07-17T12:31:26.000Z</Time>
            <Position>
              <LatitudeDegrees>43.49830568768084049224853515625</LatitudeDegrees>
              <LongitudeDegrees>-5.36290216259658336639404296875</LongitudeDegrees>
            </Position>
            <AltitudeMeters>98.8000030517578125</AltitudeMeters>
            <DistanceMeters>NAN</DistanceMeters>
          </Trackpoint>
          <Trackpoint>
            <Time>2022-07-17T12:31:27.000Z</Time>
            <Position>
              <LatitudeDegrees>43.49824936129152774810791015625</LatitudeDegrees>
              <LongitudeDegrees>-5.3629657812416553497314453125</LongitudeDegrees>
            </Position>
            <AltitudeMeters>98.40000152587890625</AltitudeMeters>
            <DistanceMeters>NAN</DistanceMeters>
          </Trackpoint>
          <Trackpoint>
            <Time>2022-07-17T12:31:28.000Z</Time>
            <Position>
              <LatitudeDegrees>43.49819622002542018890380859375</LatitudeDegrees>
              <LongitudeDegrees>-5.3630428947508335113525390625</LongitudeDegrees>
            </Position>
            <AltitudeMeters>98</AltitudeMeters>
            <DistanceMeters>NAN</DistanceMeters>
          </Trackpoint>
          <Trackpoint>
            <Time>2022-07-17T12:31:29.000Z</Time>
            <Position>
              <LatitudeDegrees>43.49815565161406993865966796875</LatitudeDegrees>
              <LongitudeDegrees>-5.363128222525119781494140625</LongitudeDegrees>
            </Position>
            <AltitudeMeters>97.8000030517578125</AltitudeMeters>
            <DistanceMeters>NAN</DistanceMeters>
          </Trackpoint>
          <Trackpoint>
            <Time>2022-07-17T12:31:30.000Z</Time>
            <Position>
              <LatitudeDegrees>43.49813000299036502838134765625</LatitudeDegrees>
              <LongitudeDegrees>-5.36322637461125850677490234375</LongitudeDegrees>
            </Position>
            <AltitudeMeters>97.40000152587890625</AltitudeMeters>
            <DistanceMeters>NAN</DistanceMeters>
          </Trackpoint>
          <Trackpoint>
            <Time>2022-07-17T12:31:32.000Z</Time>
            <Position>
              <LatitudeDegrees>43.49811541847884654998779296875</LatitudeDegrees>
              <LongitudeDegrees>-5.363443382084369659423828125</LongitudeDegrees>
            </Position>
            <AltitudeMeters>96.8000030517578125</AltitudeMeters>
            <DistanceMeters>NAN</DistanceMeters>
          </Trackpoint>
          <Trackpoint>
            <Time>2022-07-17T12:31:35.000Z</Time>
            <Position>
              <LatitudeDegrees>43.4981730021536350250244140625</LatitudeDegrees>
              <LongitudeDegrees>-5.3637828491628170013427734375</LongitudeDegrees>
            </Position>
            <AltitudeMeters>95.59999847412109375</AltitudeMeters>
            <DistanceMeters>NAN</DistanceMeters>
          </Trackpoint>
          <Trackpoint>
            <Time>2022-07-17T12:31:36.000Z</Time>
            <Position>
              <LatitudeDegrees>43.49820929579436779022216796875</LatitudeDegrees>
              <LongitudeDegrees>-5.36389164626598358154296875</LongitudeDegrees>
            </Position>
            <AltitudeMeters>95.1999969482421875</AltitudeMeters>
            <DistanceMeters>NAN</DistanceMeters>
          </Trackpoint>
          <Trackpoint>
            <Time>2022-07-17T12:31:39.000Z</Time>
            <Position>
              <LatitudeDegrees>43.49833100102841854095458984375</LatitudeDegrees>
              <LongitudeDegrees>-5.36420345306396484375</LongitudeDegrees>
            </Position>
            <AltitudeMeters>94.59999847412109375</AltitudeMeters>
            <DistanceMeters>NAN</DistanceMeters>
          </Trackpoint>
          <Trackpoint>
            <Time>2022-07-17T12:31:43.000Z</Time>
            <Position>
              <LatitudeDegrees>43.49851238541305065155029296875</LatitudeDegrees>
              <LongitudeDegrees>-5.36460838280618190765380859375</LongitudeDegrees>
            </Position>
            <AltitudeMeters>93.59999847412109375</AltitudeMeters>
            <DistanceMeters>NAN</DistanceMeters>
          </Trackpoint>
          <Trackpoint>
            <Time>2022-07-17T12:31:44.000Z</Time>
            <Position>
              <LatitudeDegrees>43.49854297935962677001953125</LatitudeDegrees>
              <LongitudeDegrees>-5.36468499340116977691650390625</LongitudeDegrees>
            </Position>
            <AltitudeMeters>93.59999847412109375</AltitudeMeters>
            <DistanceMeters>NAN</DistanceMeters>
          </Trackpoint>
          <Trackpoint>
            <Time>2022-07-17T12:31:48.000Z</Time>
            <Position>
              <LatitudeDegrees>43.4986858069896697998046875</LatitudeDegrees>
              <LongitudeDegrees>-5.3650470077991485595703125</LongitudeDegrees>
            </Position>
            <AltitudeMeters>92.1999969482421875</AltitudeMeters>
            <DistanceMeters>NAN</DistanceMeters>
          </Trackpoint>
          <Trackpoint>
            <Time>2022-07-17T12:31:50.000Z</Time>
            <Position>
              <LatitudeDegrees>43.49876116029918193817138671875</LatitudeDegrees>
              <LongitudeDegrees>-5.365238450467586517333984375</LongitudeDegrees>
            </Position>
            <AltitudeMeters>91.8000030517578125</AltitudeMeters>
            <DistanceMeters>NAN</DistanceMeters>
          </Trackpoint>
          <Trackpoint>
            <Time>2022-07-17T12:31:53.000Z</Time>
            <Position>
              <LatitudeDegrees>43.49884581752121448516845703125</LatitudeDegrees>
              <LongitudeDegrees>-5.36547490395605564117431640625</LongitudeDegrees>
            </Position>
            <AltitudeMeters>91</AltitudeMeters>
            <DistanceMeters>NAN</DistanceMeters>
          </Trackpoint>
          <Trackpoint>
            <Time>2022-07-17T12:31:57.000Z</Time>
            <Position>
              <LatitudeDegrees>43.4989830292761325836181640625</LatitudeDegrees>
              <LongitudeDegrees>-5.36580632440745830535888671875</LongitudeDegrees>
            </Position>
            <AltitudeMeters>90.40000152587890625</AltitudeMeters>
            <DistanceMeters>NAN</DistanceMeters>
          </Trackpoint>
          <Trackpoint>
            <Time>2022-07-17T12:31:59.000Z</Time>
            <Position>
              <LatitudeDegrees>43.49903306923806667327880859375</LatitudeDegrees>
              <LongitudeDegrees>-5.365948565304279327392578125</LongitudeDegrees>
            </Position>
            <AltitudeMeters>90</AltitudeMeters>
            <DistanceMeters>NAN</DistanceMeters>
          </Trackpoint>
          <Trackpoint>
            <Time>2022-07-17T12:32:01.000Z</Time>
            <Position>
              <LatitudeDegrees>43.49909685552120208740234375</LatitudeDegrees>
              <LongitudeDegrees>-5.3661172091960906982421875</LongitudeDegrees>
            </Position>
            <AltitudeMeters>89.8000030517578125</AltitudeMeters>
            <DistanceMeters>NAN</DistanceMeters>
          </Trackpoint>
          <Trackpoint>
            <Time>2022-07-17T12:32:03.000Z</Time>
            <Position>
              <LatitudeDegrees>43.49914840422570705413818359375</LatitudeDegrees>
              <LongitudeDegrees>-5.366252996027469635009765625</LongitudeDegrees>
            </Position>
            <AltitudeMeters>89.1999969482421875</AltitudeMeters>
            <DistanceMeters>NAN</DistanceMeters>
          </Trackpoint>
          <Trackpoint>
            <Time>2022-07-17T12:32:05.000Z</Time>
            <Position>
              <LatitudeDegrees>43.49920657463371753692626953125</LatitudeDegrees>
              <LongitudeDegrees>-5.3664154373109340667724609375</LongitudeDegrees>
            </Position>
            <AltitudeMeters>88.8000030517578125</AltitudeMeters>
            <DistanceMeters>NAN</DistanceMeters>
          </Trackpoint>
          <Trackpoint>
            <Time>2022-07-17T12:32:09.000Z</Time>
            <Position>
              <LatitudeDegrees>43.49931520409882068634033203125</LatitudeDegrees>
              <LongitudeDegrees>-5.36668743006885051727294921875</LongitudeDegrees>
            </Position>
            <AltitudeMeters>88.40000152587890625</AltitudeMeters>
            <DistanceMeters>NAN</DistanceMeters>
          </Trackpoint>
          <Trackpoint>
            <Time>2022-07-17T12:32:11.000Z</Time>
            <Position>
              <LatitudeDegrees>43.4993806667625904083251953125</LatitudeDegrees>
              <LongitudeDegrees>-5.3668449260294437408447265625</LongitudeDegrees>
            </Position>
            <AltitudeMeters>88</AltitudeMeters>
            <DistanceMeters>NAN</DistanceMeters>
          </Trackpoint>
          <Trackpoint>
            <Time>2022-07-17T12:32:13.000Z</Time>
            <Position>
              <LatitudeDegrees>43.49943255074322223663330078125</LatitudeDegrees>
              <LongitudeDegrees>-5.36698062904179096221923828125</LongitudeDegrees>
            </Position>
            <AltitudeMeters>87.59999847412109375</AltitudeMeters>
            <DistanceMeters>NAN</DistanceMeters>
          </Trackpoint>
          <Trackpoint>
            <Time>2022-07-17T12:32:19.000Z</Time>
            <Position>
              <LatitudeDegrees>43.49959700368344783782958984375</LatitudeDegrees>
              <LongitudeDegrees>-5.36742151714861392974853515625</LongitudeDegrees>
            </Position>
            <AltitudeMeters>86.59999847412109375</AltitudeMeters>
            <DistanceMeters>NAN</DistanceMeters>
          </Trackpoint>
          <Trackpoint>
            <Time>2022-07-17T12:32:21.000Z</Time>
            <Position>
              <LatitudeDegrees>43.4996487200260162353515625</LatitudeDegrees>
              <LongitudeDegrees>-5.36756283603608608245849609375</LongitudeDegrees>
            </Position>
            <AltitudeMeters>85.59999847412109375</AltitudeMeters>
            <DistanceMeters>NAN</DistanceMeters>
          </Trackpoint>
          <Trackpoint>
            <Time>2022-07-17T12:32:22.000Z</Time>
            <Position>
              <LatitudeDegrees>43.49967428483068943023681640625</LatitudeDegrees>
              <LongitudeDegrees>-5.367632992565631866455078125</LongitudeDegrees>
            </Position>
            <AltitudeMeters>85.40000152587890625</AltitudeMeters>
            <DistanceMeters>NAN</DistanceMeters>
          </Trackpoint>
          <Trackpoint>
            <Time>2022-07-17T12:32:28.000Z</Time>
            <Position>
              <LatitudeDegrees>43.49989154376089572906494140625</LatitudeDegrees>
              <LongitudeDegrees>-5.36804295144975185394287109375</LongitudeDegrees>
            </Position>
            <AltitudeMeters>85.1999969482421875</AltitudeMeters>
            <DistanceMeters>NAN</DistanceMeters>
          </Trackpoint>
          <Trackpoint>
            <Time>2022-07-17T12:32:36.000Z</Time>
            <Position>
              <LatitudeDegrees>43.50017376244068145751953125</LatitudeDegrees>
              <LongitudeDegrees>-5.3685209713876247406005859375</LongitudeDegrees>
            </Position>
            <AltitudeMeters>84.59999847412109375</AltitudeMeters>
            <DistanceMeters>NAN</DistanceMeters>
          </Trackpoint>
          <Trackpoint>
            <Time>2022-07-17T12:32:41.000Z</Time>
            <Position>
              <LatitudeDegrees>43.50029982626438140869140625</LatitudeDegrees>
              <LongitudeDegrees>-5.36884208209812641143798828125</LongitudeDegrees>
            </Position>
            <AltitudeMeters>84.1999969482421875</AltitudeMeters>
            <DistanceMeters>NAN</DistanceMeters>
          </Trackpoint>
          <Trackpoint>
            <Time>2022-07-17T12:32:43.000Z</Time>
            <Position>
              <LatitudeDegrees>43.50033628754317760467529296875</LatitudeDegrees>
              <LongitudeDegrees>-5.36899278871715068817138671875</LongitudeDegrees>
            </Position>
            <AltitudeMeters>84</AltitudeMeters>
            <DistanceMeters>NAN</DistanceMeters>
          </Trackpoint>
          <Trackpoint>
            <Time>2022-07-17T12:32:48.000Z</Time>
            <Position>
              <LatitudeDegrees>43.50039646960794925689697265625</LatitudeDegrees>
              <LongitudeDegrees>-5.3693477623164653778076171875</LongitudeDegrees>
            </Position>
            <AltitudeMeters>83.59999847412109375</AltitudeMeters>
            <DistanceMeters>NAN</DistanceMeters>
          </Trackpoint>
          <Trackpoint>
            <Time>2022-07-17T12:32:51.000Z</Time>
            <Position>
              <LatitudeDegrees>43.5004520416259765625</LatitudeDegrees>
              <LongitudeDegrees>-5.36957784555852413177490234375</LongitudeDegrees>
            </Position>
            <AltitudeMeters>83.40000152587890625</AltitudeMeters>
            <DistanceMeters>NAN</DistanceMeters>
          </Trackpoint>
          <Trackpoint>
            <Time>2022-07-17T12:32:52.000Z</Time>
            <Position>
              <LatitudeDegrees>43.5004716552793979644775390625</LatitudeDegrees>
              <LongitudeDegrees>-5.36963886581361293792724609375</LongitudeDegrees>
            </Position>
            <AltitudeMeters>83.40000152587890625</AltitudeMeters>
            <DistanceMeters>NAN</DistanceMeters>
          </Trackpoint>
          <Trackpoint>
            <Time>2022-07-17T12:32:53.000Z</Time>
            <Position>
              <LatitudeDegrees>43.5005085356533527374267578125</LatitudeDegrees>
              <LongitudeDegrees>-5.36972603760659694671630859375</LongitudeDegrees>
            </Position>
            <AltitudeMeters>83.1999969482421875</AltitudeMeters>
            <DistanceMeters>NAN</DistanceMeters>
          </Trackpoint>
          <Trackpoint>
            <Time>2022-07-17T12:32:55.000Z</Time>
            <Position>
              <LatitudeDegrees>43.50060618482530117034912109375</LatitudeDegrees>
              <LongitudeDegrees>-5.369821004569530487060546875</LongitudeDegrees>
            </Position>
            <AltitudeMeters>82.59999847412109375</AltitudeMeters>
            <DistanceMeters>NAN</DistanceMeters>
          </Trackpoint>
          <Trackpoint>
            <Time>2022-07-17T12:32:57.000Z</Time>
            <Position>
              <LatitudeDegrees>43.50072151981294155120849609375</LatitudeDegrees>
              <LongitudeDegrees>-5.36988236010074615478515625</LongitudeDegrees>
            </Position>
            <AltitudeMeters>82.1999969482421875</AltitudeMeters>
            <DistanceMeters>NAN</DistanceMeters>
          </Trackpoint>
          <Trackpoint>
            <Time>2022-07-17T12:32:58.000Z</Time>
            <Position>
              <LatitudeDegrees>43.50078354589641094207763671875</LatitudeDegrees>
              <LongitudeDegrees>-5.36990809254348278045654296875</LongitudeDegrees>
            </Position>
            <AltitudeMeters>82</AltitudeMeters>
            <DistanceMeters>NAN</DistanceMeters>
          </Trackpoint>
          <Trackpoint>
            <Time>2022-07-17T12:33:00.000Z</Time>
            <Position>
              <LatitudeDegrees>43.50089418701827526092529296875</LatitudeDegrees>
              <LongitudeDegrees>-5.36995419301092624664306640625</LongitudeDegrees>
            </Position>
            <AltitudeMeters>81.40000152587890625</AltitudeMeters>
            <DistanceMeters>NAN</DistanceMeters>
          </Trackpoint>
          <Trackpoint>
            <Time>2022-07-17T12:33:02.000Z</Time>
            <Position>
              <LatitudeDegrees>43.50101924501359462738037109375</LatitudeDegrees>
              <LongitudeDegrees>-5.37002661265432834625244140625</LongitudeDegrees>
            </Position>
            <AltitudeMeters>80.8000030517578125</AltitudeMeters>
            <DistanceMeters>NAN</DistanceMeters>
          </Trackpoint>
          <Trackpoint>
            <Time>2022-07-17T12:33:06.000Z</Time>
            <Position>
              <LatitudeDegrees>43.50125410594046115875244140625</LatitudeDegrees>
              <LongitudeDegrees>-5.37021302618086338043212890625</LongitudeDegrees>
            </Position>
            <AltitudeMeters>79.8000030517578125</AltitudeMeters>
            <DistanceMeters>NAN</DistanceMeters>
          </Trackpoint>
          <Trackpoint>
            <Time>2022-07-17T12:33:07.000Z</Time>
            <Position>
              <LatitudeDegrees>43.50131562910974025726318359375</LatitudeDegrees>
              <LongitudeDegrees>-5.37028913386166095733642578125</LongitudeDegrees>
            </Position>
            <AltitudeMeters>79.8000030517578125</AltitudeMeters>
            <DistanceMeters>NAN</DistanceMeters>
          </Trackpoint>
          <Trackpoint>
            <Time>2022-07-17T12:33:10.000Z</Time>
            <Position>
              <LatitudeDegrees>43.5014328919351100921630859375</LatitudeDegrees>
              <LongitudeDegrees>-5.37049616686999797821044921875</LongitudeDegrees>
            </Position>
            <AltitudeMeters>79.40000152587890625</AltitudeMeters>
            <DistanceMeters>NAN</DistanceMeters>
          </Trackpoint>
          <Trackpoint>
            <Time>2022-07-17T12:33:13.000Z</Time>
            <Position>
              <LatitudeDegrees>43.50156356580555438995361328125</LatitudeDegrees>
              <LongitudeDegrees>-5.37075349129736423492431640625</LongitudeDegrees>
            </Position>
            <AltitudeMeters>78.59999847412109375</AltitudeMeters>
            <DistanceMeters>NAN</DistanceMeters>
          </Trackpoint>
          <Trackpoint>
            <Time>2022-07-17T12:33:15.000Z</Time>
            <Position>
              <LatitudeDegrees>43.501676805317401885986328125</LatitudeDegrees>
              <LongitudeDegrees>-5.37086966447532176971435546875</LongitudeDegrees>
            </Position>
            <AltitudeMeters>78.1999969482421875</AltitudeMeters>
            <DistanceMeters>NAN</DistanceMeters>
          </Trackpoint>
          <Trackpoint>
            <Time>2022-07-17T12:33:17.000Z</Time>
            <Position>
              <LatitudeDegrees>43.50181502290070056915283203125</LatitudeDegrees>
              <LongitudeDegrees>-5.3709071315824985504150390625</LongitudeDegrees>
            </Position>
            <AltitudeMeters>77.8000030517578125</AltitudeMeters>
            <DistanceMeters>NAN</DistanceMeters>
          </Trackpoint>
          <Trackpoint>
            <Time>2022-07-17T12:33:18.000Z</Time>
            <Position>
              <LatitudeDegrees>43.5018861852586269378662109375</LatitudeDegrees>
              <LongitudeDegrees>-5.37091593258082866668701171875</LongitudeDegrees>
            </Position>
            <AltitudeMeters>77.59999847412109375</AltitudeMeters>
            <DistanceMeters>NAN</DistanceMeters>
          </Trackpoint>
          <Trackpoint>
            <Time>2022-07-17T12:33:19.000Z</Time>
            <Position>
              <LatitudeDegrees>43.5019438527524471282958984375</LatitudeDegrees>
              <LongitudeDegrees>-5.3709237277507781982421875</LongitudeDegrees>
            </Position>
            <AltitudeMeters>77.40000152587890625</AltitudeMeters>
            <DistanceMeters>NAN</DistanceMeters>
          </Trackpoint>
          <Trackpoint>
            <Time>2022-07-17T12:33:21.000Z</Time>
            <Position>
              <LatitudeDegrees>43.502083159983158111572265625</LatitudeDegrees>
              <LongitudeDegrees>-5.3709624521434307098388671875</LongitudeDegrees>
            </Position>
            <AltitudeMeters>77</AltitudeMeters>
            <DistanceMeters>NAN</DistanceMeters>
          </Trackpoint>
          <Trackpoint>
            <Time>2022-07-17T12:33:22.000Z</Time>
            <Position>
              <LatitudeDegrees>43.5021641291677951812744140625</LatitudeDegrees>
              <LongitudeDegrees>-5.37100176326930522918701171875</LongitudeDegrees>
            </Position>
            <AltitudeMeters>76.59999847412109375</AltitudeMeters>
            <DistanceMeters>NAN</DistanceMeters>
          </Trackpoint>
          <Trackpoint>
            <Time>2022-07-17T12:33:23.000Z</Time>
            <Position>
              <LatitudeDegrees>43.5022129118442535400390625</LatitudeDegrees>
              <LongitudeDegrees>-5.37104048766195774078369140625</LongitudeDegrees>
            </Position>
            <AltitudeMeters>76.1999969482421875</AltitudeMeters>
            <DistanceMeters>NAN</DistanceMeters>
          </Trackpoint>
          <Trackpoint>
            <Time>2022-07-17T12:33:25.000Z</Time>
            <Position>
              <LatitudeDegrees>43.5023139975965023040771484375</LatitudeDegrees>
              <LongitudeDegrees>-5.3711404837667942047119140625</LongitudeDegrees>
            </Position>
            <AltitudeMeters>75.8000030517578125</AltitudeMeters>
            <DistanceMeters>NAN</DistanceMeters>
          </Trackpoint>
          <Trackpoint>
            <Time>2022-07-17T12:33:27.000Z</Time>
            <Position>
              <LatitudeDegrees>43.50239639170467853546142578125</LatitudeDegrees>
              <LongitudeDegrees>-5.37121198140084743499755859375</LongitudeDegrees>
            </Position>
            <AltitudeMeters>75.1999969482421875</AltitudeMeters>
            <DistanceMeters>NAN</DistanceMeters>
          </Trackpoint>
          <Trackpoint>
            <Time>2022-07-17T12:33:30.000Z</Time>
            <Position>
              <LatitudeDegrees>43.502458669245243072509765625</LatitudeDegrees>
              <LongitudeDegrees>-5.37120644934475421905517578125</LongitudeDegrees>
            </Position>
            <AltitudeMeters>74.1999969482421875</AltitudeMeters>
            <DistanceMeters>NAN</DistanceMeters>
          </Trackpoint>
          <Trackpoint>
            <Time>2022-07-17T12:33:34.000Z</Time>
            <Position>
              <LatitudeDegrees>43.50247233174741268157958984375</LatitudeDegrees>
              <LongitudeDegrees>-5.3712065331637859344482421875</LongitudeDegrees>
            </Position>
            <AltitudeMeters>74</AltitudeMeters>
            <DistanceMeters>NAN</DistanceMeters>
          </Trackpoint>
          <Trackpoint>
            <Time>2022-07-17T12:35:09.000Z</Time>
            <Position>
              <LatitudeDegrees>43.502486161887645721435546875</LatitudeDegrees>
              <LongitudeDegrees>-5.37115498445928096771240234375</LongitudeDegrees>
            </Position>
            <AltitudeMeters>74</AltitudeMeters>
            <DistanceMeters>NAN</DistanceMeters>
          </Trackpoint>
          <Trackpoint>
            <Time>2022-07-17T12:35:10.000Z</Time>
            <Position>
              <LatitudeDegrees>43.50249546580016613006591796875</LatitudeDegrees>
              <LongitudeDegrees>-5.3711421601474285125732421875</LongitudeDegrees>
            </Position>
            <AltitudeMeters>74</AltitudeMeters>
            <DistanceMeters>NAN</DistanceMeters>
          </Trackpoint>
          <Trackpoint>
            <Time>2022-07-17T12:35:12.000Z</Time>
            <Position>
              <LatitudeDegrees>43.5025154985487461090087890625</LatitudeDegrees>
              <LongitudeDegrees>-5.37111860699951648712158203125</LongitudeDegrees>
            </Position>
            <AltitudeMeters>74.1999969482421875</AltitudeMeters>
            <DistanceMeters>NAN</DistanceMeters>
          </Trackpoint>
          <Trackpoint>
            <Time>2022-07-17T12:35:19.000Z</Time>
            <Position>
              <LatitudeDegrees>43.50254273973405361175537109375</LatitudeDegrees>
              <LongitudeDegrees>-5.37108801305294036865234375</LongitudeDegrees>
            </Position>
            <AltitudeMeters>75</AltitudeMeters>
            <DistanceMeters>NAN</DistanceMeters>
          </Trackpoint>
          <Trackpoint>
            <Time>2022-07-17T12:35:21.000Z</Time>
            <Position>
              <LatitudeDegrees>43.50252740085124969482421875</LatitudeDegrees>
              <LongitudeDegrees>-5.3711012564599514007568359375</LongitudeDegrees>
            </Position>
            <AltitudeMeters>75</AltitudeMeters>
            <DistanceMeters>NAN</DistanceMeters>
          </Trackpoint>
          <Trackpoint>
            <Time>2022-07-17T12:35:25.000Z</Time>
            <Position>
              <LatitudeDegrees>43.502477444708347320556640625</LatitudeDegrees>
              <LongitudeDegrees>-5.37114157341420650482177734375</LongitudeDegrees>
            </Position>
            <AltitudeMeters>75</AltitudeMeters>
            <DistanceMeters>NAN</DistanceMeters>
          </Trackpoint>
          <Trackpoint>
            <Time>2022-07-17T12:35:30.000Z</Time>
            <Position>
              <LatitudeDegrees>43.502466380596160888671875</LatitudeDegrees>
              <LongitudeDegrees>-5.37120594643056392669677734375</LongitudeDegrees>
            </Position>
            <AltitudeMeters>74.59999847412109375</AltitudeMeters>
            <DistanceMeters>NAN</DistanceMeters>
          </Trackpoint>
          <Trackpoint>
            <Time>2022-07-17T12:35:32.000Z</Time>
            <Position>
              <LatitudeDegrees>43.50246914662420749664306640625</LatitudeDegrees>
              <LongitudeDegrees>-5.3712048567831516265869140625</LongitudeDegrees>
            </Position>
            <AltitudeMeters>74.1999969482421875</AltitudeMeters>
            <DistanceMeters>NAN</DistanceMeters>
          </Trackpoint>
          <Trackpoint>
            <Time>2022-07-17T12:36:02.000Z</Time>
            <Position>
              <LatitudeDegrees>43.50249831564724445343017578125</LatitudeDegrees>
              <LongitudeDegrees>-5.37128649652004241943359375</LongitudeDegrees>
            </Position>
            <AltitudeMeters>73.1999969482421875</AltitudeMeters>
            <DistanceMeters>NAN</DistanceMeters>
          </Trackpoint>
          <Trackpoint>
            <Time>2022-07-17T12:36:03.000Z</Time>
            <Position>
              <LatitudeDegrees>43.50251021794974803924560546875</LatitudeDegrees>
              <LongitudeDegrees>-5.3713228739798069000244140625</LongitudeDegrees>
            </Position>
            <AltitudeMeters>73.1999969482421875</AltitudeMeters>
            <DistanceMeters>NAN</DistanceMeters>
          </Trackpoint>
          <Trackpoint>
            <Time>2022-07-17T12:36:04.000Z</Time>
            <Position>
              <LatitudeDegrees>43.5025191865861415863037109375</LatitudeDegrees>
              <LongitudeDegrees>-5.3713382966816425323486328125</LongitudeDegrees>
            </Position>
            <AltitudeMeters>73</AltitudeMeters>
            <DistanceMeters>NAN</DistanceMeters>
          </Trackpoint>
          <Trackpoint>
            <Time>2022-07-17T12:36:06.000Z</Time>
            <Position>
              <LatitudeDegrees>43.50251206196844577789306640625</LatitudeDegrees>
              <LongitudeDegrees>-5.37132748402655124664306640625</LongitudeDegrees>
            </Position>
            <AltitudeMeters>73</AltitudeMeters>
            <DistanceMeters>NAN</DistanceMeters>
          </Trackpoint>
          <Trackpoint>
            <Time>2022-07-17T12:36:10.000Z</Time>
            <Position>
              <LatitudeDegrees>43.50254877470433712005615234375</LatitudeDegrees>
              <LongitudeDegrees>-5.3713743388652801513671875</LongitudeDegrees>
            </Position>
            <AltitudeMeters>73</AltitudeMeters>
            <DistanceMeters>NAN</DistanceMeters>
          </Trackpoint>
          <Trackpoint>
            <Time>2022-07-17T12:36:11.000Z</Time>
            <Position>
              <LatitudeDegrees>43.50255883298814296722412109375</LatitudeDegrees>
              <LongitudeDegrees>-5.37137626670300960540771484375</LongitudeDegrees>
            </Position>
            <AltitudeMeters>73</AltitudeMeters>
            <DistanceMeters>NAN</DistanceMeters>
          </Trackpoint>
          <Trackpoint>
            <Time>2022-07-17T12:36:12.000Z</Time>
            <Position>
              <LatitudeDegrees>43.502537794411182403564453125</LatitudeDegrees>
              <LongitudeDegrees>-5.3713838942348957061767578125</LongitudeDegrees>
            </Position>
            <AltitudeMeters>73</AltitudeMeters>
            <DistanceMeters>NAN</DistanceMeters>
          </Trackpoint>
          <Trackpoint>
            <Time>2022-07-17T12:36:14.000Z</Time>
            <Position>
              <LatitudeDegrees>43.50253720767796039581298828125</LatitudeDegrees>
              <LongitudeDegrees>-5.37137190811336040496826171875</LongitudeDegrees>
            </Position>
            <AltitudeMeters>73.1999969482421875</AltitudeMeters>
            <DistanceMeters>NAN</DistanceMeters>
          </Trackpoint>
          <Trackpoint>
            <Time>2022-07-17T12:36:18.000Z</Time>
            <Position>
              <LatitudeDegrees>43.5025148279964923858642578125</LatitudeDegrees>
              <LongitudeDegrees>-5.37126797251403331756591796875</LongitudeDegrees>
            </Position>
            <AltitudeMeters>73</AltitudeMeters>
            <DistanceMeters>NAN</DistanceMeters>
          </Trackpoint>
          <Trackpoint>
            <Time>2022-07-17T12:36:21.000Z</Time>
            <Position>
              <LatitudeDegrees>43.5025292448699474334716796875</LatitudeDegrees>
              <LongitudeDegrees>-5.371254645287990570068359375</LongitudeDegrees>
            </Position>
            <AltitudeMeters>73.1999969482421875</AltitudeMeters>
            <DistanceMeters>NAN</DistanceMeters>
          </Trackpoint>
          <Trackpoint>
            <Time>2022-07-17T12:36:22.000Z</Time>
            <Position>
              <LatitudeDegrees>43.50254156626760959625244140625</LatitudeDegrees>
              <LongitudeDegrees>-5.37126746959984302520751953125</LongitudeDegrees>
            </Position>
            <AltitudeMeters>73.1999969482421875</AltitudeMeters>
            <DistanceMeters>NAN</DistanceMeters>
          </Trackpoint>
          <Trackpoint>
            <Time>2022-07-17T12:36:27.000Z</Time>
            <Position>
              <LatitudeDegrees>43.50267835892736911773681640625</LatitudeDegrees>
              <LongitudeDegrees>-5.37121684290468692779541015625</LongitudeDegrees>
            </Position>
            <AltitudeMeters>73.1999969482421875</AltitudeMeters>
            <DistanceMeters>NAN</DistanceMeters>
          </Trackpoint>
          <Trackpoint>
            <Time>2022-07-17T12:36:28.000Z</Time>
            <Position>
              <LatitudeDegrees>43.50261457264423370361328125</LatitudeDegrees>
              <LongitudeDegrees>-5.37122053094208240509033203125</LongitudeDegrees>
            </Position>
            <AltitudeMeters>73.1999969482421875</AltitudeMeters>
            <DistanceMeters>NAN</DistanceMeters>
          </Trackpoint>
          <Trackpoint>
            <Time>2022-07-17T12:36:30.000Z</Time>
            <Position>
              <LatitudeDegrees>43.50256956182420253753662109375</LatitudeDegrees>
              <LongitudeDegrees>-5.3712276555597782135009765625</LongitudeDegrees>
            </Position>
            <AltitudeMeters>73.8000030517578125</AltitudeMeters>
            <DistanceMeters>NAN</DistanceMeters>
          </Trackpoint>
          <Trackpoint>
            <Time>2022-07-17T12:36:31.000Z</Time>
            <Position>
              <LatitudeDegrees>43.50255715660750865936279296875</LatitudeDegrees>
              <LongitudeDegrees>-5.371230505406856536865234375</LongitudeDegrees>
            </Position>
            <AltitudeMeters>73.8000030517578125</AltitudeMeters>
            <DistanceMeters>NAN</DistanceMeters>
          </Trackpoint>
          <Trackpoint>
            <Time>2022-07-17T12:36:33.000Z</Time>
            <Position>
              <LatitudeDegrees>43.50254994817078113555908203125</LatitudeDegrees>
              <LongitudeDegrees>-5.3712397255003452301025390625</LongitudeDegrees>
            </Position>
            <AltitudeMeters>74</AltitudeMeters>
            <DistanceMeters>NAN</DistanceMeters>
          </Trackpoint>
          <Trackpoint>
            <Time>2022-07-17T12:36:35.000Z</Time>
            <Position>
              <LatitudeDegrees>43.50255916826426982879638671875</LatitudeDegrees>
              <LongitudeDegrees>-5.3712471015751361846923828125</LongitudeDegrees>
            </Position>
            <AltitudeMeters>73.59999847412109375</AltitudeMeters>
            <DistanceMeters>NAN</DistanceMeters>
          </Trackpoint>
          <Trackpoint>
            <Time>2022-07-17T12:36:36.000Z</Time>
            <Position>
              <LatitudeDegrees>43.50255916826426982879638671875</LatitudeDegrees>
              <LongitudeDegrees>-5.3712471015751361846923828125</LongitudeDegrees>
            </Position>
            <AltitudeMeters>73.40000152587890625</AltitudeMeters>
            <DistanceMeters>NAN</DistanceMeters>
          </Trackpoint>
          <Trackpoint>
            <Time>2022-07-17T12:37:15.000Z</Time>
            <Position>
              <LatitudeDegrees>43.5025349445641040802001953125</LatitudeDegrees>
              <LongitudeDegrees>-5.3712987340986728668212890625</LongitudeDegrees>
            </Position>
            <AltitudeMeters>73</AltitudeMeters>
            <DistanceMeters>NAN</DistanceMeters>
          </Trackpoint>
          <Trackpoint>
            <Time>2022-07-17T12:37:16.000Z</Time>
            <Position>
              <LatitudeDegrees>43.50254525430500507354736328125</LatitudeDegrees>
              <LongitudeDegrees>-5.37135195918381214141845703125</LongitudeDegrees>
            </Position>
            <AltitudeMeters>73</AltitudeMeters>
            <DistanceMeters>NAN</DistanceMeters>
          </Trackpoint>
          <Trackpoint>
            <Time>2022-07-17T12:37:20.000Z</Time>
            <Position>
              <LatitudeDegrees>43.50259789265692234039306640625</LatitudeDegrees>
              <LongitudeDegrees>-5.3716159053146839141845703125</LongitudeDegrees>
            </Position>
            <AltitudeMeters>73</AltitudeMeters>
            <DistanceMeters>NAN</DistanceMeters>
          </Trackpoint>
          <Trackpoint>
            <Time>2022-07-17T12:37:26.000Z</Time>
            <Position>
              <LatitudeDegrees>43.50268171168863773345947265625</LatitudeDegrees>
              <LongitudeDegrees>-5.37207565270364284515380859375</LongitudeDegrees>
            </Position>
            <AltitudeMeters>73.59999847412109375</AltitudeMeters>
            <DistanceMeters>NAN</DistanceMeters>
          </Trackpoint>
          <Trackpoint>
            <Time>2022-07-17T12:37:28.000Z</Time>
            <Position>
              <LatitudeDegrees>43.50270300172269344329833984375</LatitudeDegrees>
              <LongitudeDegrees>-5.372201465070247650146484375</LongitudeDegrees>
            </Position>
            <AltitudeMeters>73.40000152587890625</AltitudeMeters>
            <DistanceMeters>NAN</DistanceMeters>
          </Trackpoint>
          <Trackpoint>
            <Time>2022-07-17T12:37:30.000Z</Time>
            <Position>
              <LatitudeDegrees>43.502687998116016387939453125</LatitudeDegrees>
              <LongitudeDegrees>-5.37224396131932735443115234375</LongitudeDegrees>
            </Position>
            <AltitudeMeters>72</AltitudeMeters>
            <DistanceMeters>NAN</DistanceMeters>
          </Trackpoint>
          <Trackpoint>
            <Time>2022-07-17T12:37:33.000Z</Time>
            <Position>
              <LatitudeDegrees>43.5026569850742816925048828125</LatitudeDegrees>
              <LongitudeDegrees>-5.3721924126148223876953125</LongitudeDegrees>
            </Position>
            <AltitudeMeters>71.1999969482421875</AltitudeMeters>
            <DistanceMeters>NAN</DistanceMeters>
          </Trackpoint>
          <Trackpoint>
            <Time>2022-07-17T12:37:34.000Z</Time>
            <Position>
              <LatitudeDegrees>43.5026429034769535064697265625</LatitudeDegrees>
              <LongitudeDegrees>-5.3721570409834384918212890625</LongitudeDegrees>
            </Position>
            <AltitudeMeters>71.1999969482421875</AltitudeMeters>
            <DistanceMeters>NAN</DistanceMeters>
          </Trackpoint>
          <Trackpoint>
            <Time>2022-07-17T12:37:39.000Z</Time>
            <Position>
              <LatitudeDegrees>43.502598814666271209716796875</LatitudeDegrees>
              <LongitudeDegrees>-5.37191438488662242889404296875</LongitudeDegrees>
            </Position>
            <AltitudeMeters>71.8000030517578125</AltitudeMeters>
            <DistanceMeters>NAN</DistanceMeters>
          </Trackpoint>
          <Trackpoint>
            <Time>2022-07-17T12:37:45.000Z</Time>
            <Position>
              <LatitudeDegrees>43.50253033451735973358154296875</LatitudeDegrees>
              <LongitudeDegrees>-5.371575839817523956298828125</LongitudeDegrees>
            </Position>
            <AltitudeMeters>72.59999847412109375</AltitudeMeters>
            <DistanceMeters>NAN</DistanceMeters>
          </Trackpoint>
          <Trackpoint>
            <Time>2022-07-17T12:37:47.000Z</Time>
            <Position>
              <LatitudeDegrees>43.502502925693988800048828125</LatitudeDegrees>
              <LongitudeDegrees>-5.3714586608111858367919921875</LongitudeDegrees>
            </Position>
            <AltitudeMeters>72.8000030517578125</AltitudeMeters>
            <DistanceMeters>NAN</DistanceMeters>
          </Trackpoint>
          <Trackpoint>
            <Time>2022-07-17T12:37:49.000Z</Time>
            <Position>
              <LatitudeDegrees>43.5024786181747913360595703125</LatitudeDegrees>
              <LongitudeDegrees>-5.37135195918381214141845703125</LongitudeDegrees>
            </Position>
            <AltitudeMeters>73</AltitudeMeters>
            <DistanceMeters>NAN</DistanceMeters>
          </Trackpoint>
          <Trackpoint>
            <Time>2022-07-17T12:37:51.000Z</Time>
            <Position>
              <LatitudeDegrees>43.50247417576611042022705078125</LatitudeDegrees>
              <LongitudeDegrees>-5.37125757895410060882568359375</LongitudeDegrees>
            </Position>
            <AltitudeMeters>73.1999969482421875</AltitudeMeters>
            <DistanceMeters>NAN</DistanceMeters>
          </Trackpoint>
          <Trackpoint>
            <Time>2022-07-17T12:37:52.000Z</Time>
            <Position>
              <LatitudeDegrees>43.50247568450868129730224609375</LatitudeDegrees>
              <LongitudeDegrees>-5.371219776570796966552734375</LongitudeDegrees>
            </Position>
            <AltitudeMeters>73.1999969482421875</AltitudeMeters>
            <DistanceMeters>NAN</DistanceMeters>
          </Trackpoint>
          <Trackpoint>
            <Time>2022-07-17T12:37:53.000Z</Time>
            <Position>
              <LatitudeDegrees>43.5024799592792987823486328125</LatitudeDegrees>
              <LongitudeDegrees>-5.37118993699550628662109375</LongitudeDegrees>
            </Position>
            <AltitudeMeters>73.40000152587890625</AltitudeMeters>
            <DistanceMeters>NAN</DistanceMeters>
          </Trackpoint>
          <Trackpoint>
            <Time>2022-07-17T12:37:55.000Z</Time>
            <Position>
              <LatitudeDegrees>43.50248239003121852874755859375</LatitudeDegrees>
              <LongitudeDegrees>-5.37118214182555675506591796875</LongitudeDegrees>
            </Position>
            <AltitudeMeters>73.59999847412109375</AltitudeMeters>
            <DistanceMeters>NAN</DistanceMeters>
          </Trackpoint>
          <Trackpoint>
            <Time>2022-07-17T12:37:56.000Z</Time>
            <Position>
              <LatitudeDegrees>43.50248071365058422088623046875</LatitudeDegrees>
              <LongitudeDegrees>-5.3711854107677936553955078125</LongitudeDegrees>
            </Position>
            <AltitudeMeters>73.59999847412109375</AltitudeMeters>
            <DistanceMeters>NAN</DistanceMeters>
          </Trackpoint>
          <Trackpoint>
            <Time>2022-07-17T12:37:57.000Z</Time>
            <Position>
              <LatitudeDegrees>43.50248071365058422088623046875</LatitudeDegrees>
              <LongitudeDegrees>-5.3711854107677936553955078125</LongitudeDegrees>
            </Position>
            <AltitudeMeters>73.8000030517578125</AltitudeMeters>
            <DistanceMeters>NAN</DistanceMeters>
          </Trackpoint>
          <Trackpoint>
            <Time>2022-07-17T12:38:14.000Z</Time>
            <Position>
              <LatitudeDegrees>43.5024360381066799163818359375</LatitudeDegrees>
              <LongitudeDegrees>-5.37121399305760860443115234375</LongitudeDegrees>
            </Position>
            <AltitudeMeters>74</AltitudeMeters>
            <DistanceMeters>NAN</DistanceMeters>
          </Trackpoint>
          <Trackpoint>
            <Time>2022-07-17T12:38:15.000Z</Time>
            <Position>
              <LatitudeDegrees>43.50243997760117053985595703125</LatitudeDegrees>
              <LongitudeDegrees>-5.371252633631229400634765625</LongitudeDegrees>
            </Position>
            <AltitudeMeters>74</AltitudeMeters>
            <DistanceMeters>NAN</DistanceMeters>
          </Trackpoint>
          <Trackpoint>
            <Time>2022-07-17T12:38:18.000Z</Time>
            <Position>
              <LatitudeDegrees>43.50249865092337131500244140625</LatitudeDegrees>
              <LongitudeDegrees>-5.371382720768451690673828125</LongitudeDegrees>
            </Position>
            <AltitudeMeters>74.1999969482421875</AltitudeMeters>
            <DistanceMeters>NAN</DistanceMeters>
          </Trackpoint>
          <Trackpoint>
            <Time>2022-07-17T12:38:19.000Z</Time>
            <Position>
              <LatitudeDegrees>43.50251239724457263946533203125</LatitudeDegrees>
              <LongitudeDegrees>-5.3714221157133579254150390625</LongitudeDegrees>
            </Position>
            <AltitudeMeters>74.1999969482421875</AltitudeMeters>
            <DistanceMeters>NAN</DistanceMeters>
          </Trackpoint>
          <Trackpoint>
            <Time>2022-07-17T12:38:21.000Z</Time>
            <Position>
              <LatitudeDegrees>43.5025537200272083282470703125</LatitudeDegrees>
              <LongitudeDegrees>-5.37154977209866046905517578125</LongitudeDegrees>
            </Position>
            <AltitudeMeters>74</AltitudeMeters>
            <DistanceMeters>NAN</DistanceMeters>
          </Trackpoint>
          <Trackpoint>
            <Time>2022-07-17T12:38:23.000Z</Time>
            <Position>
              <LatitudeDegrees>43.5025845654308795928955078125</LatitudeDegrees>
              <LongitudeDegrees>-5.3716658614575862884521484375</LongitudeDegrees>
            </Position>
            <AltitudeMeters>73.8000030517578125</AltitudeMeters>
            <DistanceMeters>NAN</DistanceMeters>
          </Trackpoint>
          <Trackpoint>
            <Time>2022-07-17T12:38:25.000Z</Time>
            <Position>
              <LatitudeDegrees>43.50261993706226348876953125</LatitudeDegrees>
              <LongitudeDegrees>-5.37180684506893157958984375</LongitudeDegrees>
            </Position>
            <AltitudeMeters>73.59999847412109375</AltitudeMeters>
            <DistanceMeters>NAN</DistanceMeters>
          </Trackpoint>
          <Trackpoint>
            <Time>2022-07-17T12:38:29.000Z</Time>
            <Position>
              <LatitudeDegrees>43.50268322043120861053466796875</LatitudeDegrees>
              <LongitudeDegrees>-5.37210348062217235565185546875</LongitudeDegrees>
            </Position>
            <AltitudeMeters>73</AltitudeMeters>
            <DistanceMeters>NAN</DistanceMeters>
          </Trackpoint>
          <Trackpoint>
            <Time>2022-07-17T12:38:30.000Z</Time>
            <Position>
              <LatitudeDegrees>43.502705097198486328125</LatitudeDegrees>
              <LongitudeDegrees>-5.37217833101749420166015625</LongitudeDegrees>
            </Position>
            <AltitudeMeters>72.8000030517578125</AltitudeMeters>
            <DistanceMeters>NAN</DistanceMeters>
          </Trackpoint>
          <Trackpoint>
            <Time>2022-07-17T12:38:33.000Z</Time>
            <Position>
              <LatitudeDegrees>43.50280492566525936126708984375</LatitudeDegrees>
              <LongitudeDegrees>-5.37240304984152317047119140625</LongitudeDegrees>
            </Position>
            <AltitudeMeters>72.1999969482421875</AltitudeMeters>
            <DistanceMeters>NAN</DistanceMeters>
          </Trackpoint>
          <Trackpoint>
            <Time>2022-07-17T12:38:34.000Z</Time>
            <Position>
              <LatitudeDegrees>43.50283979438245296478271484375</LatitudeDegrees>
              <LongitudeDegrees>-5.3724524192512035369873046875</LongitudeDegrees>
            </Position>
            <AltitudeMeters>72</AltitudeMeters>
            <DistanceMeters>NAN</DistanceMeters>
          </Trackpoint>
          <Trackpoint>
            <Time>2022-07-17T12:38:36.000Z</Time>
            <Position>
              <LatitudeDegrees>43.502938449382781982421875</LatitudeDegrees>
              <LongitudeDegrees>-5.37258493714034557342529296875</LongitudeDegrees>
            </Position>
            <AltitudeMeters>71.59999847412109375</AltitudeMeters>
            <DistanceMeters>NAN</DistanceMeters>
          </Trackpoint>
          <Trackpoint>
            <Time>2022-07-17T12:38:38.000Z</Time>
            <Position>
              <LatitudeDegrees>43.50302067585289478302001953125</LatitudeDegrees>
              <LongitudeDegrees>-5.3727273456752300262451171875</LongitudeDegrees>
            </Position>
            <AltitudeMeters>71.1999969482421875</AltitudeMeters>
            <DistanceMeters>NAN</DistanceMeters>
          </Trackpoint>
          <Trackpoint>
            <Time>2022-07-17T12:38:39.000Z</Time>
            <Position>
              <LatitudeDegrees>43.50304649211466312408447265625</LatitudeDegrees>
              <LongitudeDegrees>-5.37278844974935054779052734375</LongitudeDegrees>
            </Position>
            <AltitudeMeters>71</AltitudeMeters>
            <DistanceMeters>NAN</DistanceMeters>
          </Trackpoint>
          <Trackpoint>
            <Time>2022-07-17T12:38:42.000Z</Time>
            <Position>
              <LatitudeDegrees>43.50308706052601337432861328125</LatitudeDegrees>
              <LongitudeDegrees>-5.3730535693466663360595703125</LongitudeDegrees>
            </Position>
            <AltitudeMeters>70.8000030517578125</AltitudeMeters>
            <DistanceMeters>NAN</DistanceMeters>
          </Trackpoint>
          <Trackpoint>
            <Time>2022-07-17T12:38:43.000Z</Time>
            <Position>
              <LatitudeDegrees>43.50308756344020366668701171875</LatitudeDegrees>
              <LongitudeDegrees>-5.37314317189157009124755859375</LongitudeDegrees>
            </Position>
            <AltitudeMeters>70.8000030517578125</AltitudeMeters>
            <DistanceMeters>NAN</DistanceMeters>
          </Trackpoint>
          <Trackpoint>
            <Time>2022-07-17T12:38:47.000Z</Time>
            <Position>
              <LatitudeDegrees>43.50306191481649875640869140625</LatitudeDegrees>
              <LongitudeDegrees>-5.37352345883846282958984375</LongitudeDegrees>
            </Position>
            <AltitudeMeters>70.40000152587890625</AltitudeMeters>
            <DistanceMeters>NAN</DistanceMeters>
          </Trackpoint>
          <Trackpoint>
            <Time>2022-07-17T12:38:49.000Z</Time>
            <Position>
              <LatitudeDegrees>43.50306987762451171875</LatitudeDegrees>
              <LongitudeDegrees>-5.37368196062743663787841796875</LongitudeDegrees>
            </Position>
            <AltitudeMeters>70.1999969482421875</AltitudeMeters>
            <DistanceMeters>NAN</DistanceMeters>
          </Trackpoint>
          <Trackpoint>
            <Time>2022-07-17T12:38:51.000Z</Time>
            <Position>
              <LatitudeDegrees>43.5031153075397014617919921875</LatitudeDegrees>
              <LongitudeDegrees>-5.3738585673272609710693359375</LongitudeDegrees>
            </Position>
            <AltitudeMeters>70</AltitudeMeters>
            <DistanceMeters>NAN</DistanceMeters>
          </Trackpoint>
          <Trackpoint>
            <Time>2022-07-17T12:38:52.000Z</Time>
            <Position>
              <LatitudeDegrees>43.50314942188560962677001953125</LatitudeDegrees>
              <LongitudeDegrees>-5.3739283047616481781005859375</LongitudeDegrees>
            </Position>
            <AltitudeMeters>69.59999847412109375</AltitudeMeters>
            <DistanceMeters>NAN</DistanceMeters>
          </Trackpoint>
          <Trackpoint>
            <Time>2022-07-17T12:38:56.000Z</Time>
            <Position>
              <LatitudeDegrees>43.5033126175403594970703125</LatitudeDegrees>
              <LongitudeDegrees>-5.37417816929519176483154296875</LongitudeDegrees>
            </Position>
            <AltitudeMeters>68.59999847412109375</AltitudeMeters>
            <DistanceMeters>NAN</DistanceMeters>
          </Trackpoint>
          <Trackpoint>
            <Time>2022-07-17T12:39:01.000Z</Time>
            <Position>
              <LatitudeDegrees>43.50350079126656055450439453125</LatitudeDegrees>
              <LongitudeDegrees>-5.3745415247976779937744140625</LongitudeDegrees>
            </Position>
            <AltitudeMeters>67.8000030517578125</AltitudeMeters>
            <DistanceMeters>NAN</DistanceMeters>
          </Trackpoint>
          <Trackpoint>
            <Time>2022-07-17T12:39:04.000Z</Time>
            <Position>
              <LatitudeDegrees>43.5035639069974422454833984375</LatitudeDegrees>
              <LongitudeDegrees>-5.37480245344340801239013671875</LongitudeDegrees>
            </Position>
            <AltitudeMeters>67.8000030517578125</AltitudeMeters>
            <DistanceMeters>NAN</DistanceMeters>
          </Trackpoint>
          <Trackpoint>
            <Time>2022-07-17T12:39:06.000Z</Time>
            <Position>
              <LatitudeDegrees>43.50358913652598857879638671875</LatitudeDegrees>
              <LongitudeDegrees>-5.37498434074223041534423828125</LongitudeDegrees>
            </Position>
            <AltitudeMeters>67.40000152587890625</AltitudeMeters>
            <DistanceMeters>NAN</DistanceMeters>
          </Trackpoint>
          <Trackpoint>
            <Time>2022-07-17T12:39:10.000Z</Time>
            <Position>
              <LatitudeDegrees>43.50361344404518604278564453125</LatitudeDegrees>
              <LongitudeDegrees>-5.37537024356424808502197265625</LongitudeDegrees>
            </Position>
            <AltitudeMeters>66.40000152587890625</AltitudeMeters>
            <DistanceMeters>NAN</DistanceMeters>
          </Trackpoint>
          <Trackpoint>
            <Time>2022-07-17T12:39:12.000Z</Time>
            <Position>
              <LatitudeDegrees>43.5036346502602100372314453125</LatitudeDegrees>
              <LongitudeDegrees>-5.37555213086307048797607421875</LongitudeDegrees>
            </Position>
            <AltitudeMeters>66.1999969482421875</AltitudeMeters>
            <DistanceMeters>NAN</DistanceMeters>
          </Trackpoint>
          <Trackpoint>
            <Time>2022-07-17T12:39:13.000Z</Time>
            <Position>
              <LatitudeDegrees>43.5036591254174709320068359375</LatitudeDegrees>
              <LongitudeDegrees>-5.375622622668743133544921875</LongitudeDegrees>
            </Position>
            <AltitudeMeters>66.1999969482421875</AltitudeMeters>
            <DistanceMeters>NAN</DistanceMeters>
          </Trackpoint>
          <Trackpoint>
            <Time>2022-07-17T12:39:14.000Z</Time>
            <Position>
              <LatitudeDegrees>43.50370623171329498291015625</LatitudeDegrees>
              <LongitudeDegrees>-5.3757019154727458953857421875</LongitudeDegrees>
            </Position>
            <AltitudeMeters>66</AltitudeMeters>
            <DistanceMeters>NAN</DistanceMeters>
          </Trackpoint>
          <Trackpoint>
            <Time>2022-07-17T12:39:16.000Z</Time>
            <Position>
              <LatitudeDegrees>43.50383237935602664947509765625</LatitudeDegrees>
              <LongitudeDegrees>-5.375792272388935089111328125</LongitudeDegrees>
            </Position>
            <AltitudeMeters>65.40000152587890625</AltitudeMeters>
            <DistanceMeters>NAN</DistanceMeters>
          </Trackpoint>
          <Trackpoint>
            <Time>2022-07-17T12:39:18.000Z</Time>
            <Position>
              <LatitudeDegrees>43.50397847592830657958984375</LatitudeDegrees>
              <LongitudeDegrees>-5.3757981397211551666259765625</LongitudeDegrees>
            </Position>
            <AltitudeMeters>64.40000152587890625</AltitudeMeters>
            <DistanceMeters>NAN</DistanceMeters>
          </Trackpoint>
          <Trackpoint>
            <Time>2022-07-17T12:39:19.000Z</Time>
            <Position>
              <LatitudeDegrees>43.50405382923781871795654296875</LatitudeDegrees>
              <LongitudeDegrees>-5.3757850639522075653076171875</LongitudeDegrees>
            </Position>
            <AltitudeMeters>64.1999969482421875</AltitudeMeters>
            <DistanceMeters>NAN</DistanceMeters>
          </Trackpoint>
          <Trackpoint>
            <Time>2022-07-17T12:39:21.000Z</Time>
            <Position>
              <LatitudeDegrees>43.50419984199106693267822265625</LatitudeDegrees>
              <LongitudeDegrees>-5.37575949914753437042236328125</LongitudeDegrees>
            </Position>
            <AltitudeMeters>63.799999237060546875</AltitudeMeters>
            <DistanceMeters>NAN</DistanceMeters>
          </Trackpoint>
          <Trackpoint>
            <Time>2022-07-17T12:39:23.000Z</Time>
            <Position>
              <LatitudeDegrees>43.50434124469757080078125</LatitudeDegrees>
              <LongitudeDegrees>-5.37578724324703216552734375</LongitudeDegrees>
            </Position>
            <AltitudeMeters>62.799999237060546875</AltitudeMeters>
            <DistanceMeters>NAN</DistanceMeters>
          </Trackpoint>
          <Trackpoint>
            <Time>2022-07-17T12:39:25.000Z</Time>
            <Position>
              <LatitudeDegrees>43.50449337624013423919677734375</LatitudeDegrees>
              <LongitudeDegrees>-5.375900231301784515380859375</LongitudeDegrees>
            </Position>
            <AltitudeMeters>62.200000762939453125</AltitudeMeters>
            <DistanceMeters>NAN</DistanceMeters>
          </Trackpoint>
          <Trackpoint>
            <Time>2022-07-17T12:39:27.000Z</Time>
            <Position>
              <LatitudeDegrees>43.50461642257869243621826171875</LatitudeDegrees>
              <LongitudeDegrees>-5.3760328330099582672119140625</LongitudeDegrees>
            </Position>
            <AltitudeMeters>62</AltitudeMeters>
            <DistanceMeters>NAN</DistanceMeters>
          </Trackpoint>
          <Trackpoint>
            <Time>2022-07-17T12:39:28.000Z</Time>
            <Position>
              <LatitudeDegrees>43.50466855801641941070556640625</LatitudeDegrees>
              <LongitudeDegrees>-5.3760884888470172882080078125</LongitudeDegrees>
            </Position>
            <AltitudeMeters>61.40000152587890625</AltitudeMeters>
            <DistanceMeters>NAN</DistanceMeters>
          </Trackpoint>
          <Trackpoint>
            <Time>2022-07-17T12:39:32.000Z</Time>
            <Position>
              <LatitudeDegrees>43.50493040867149829864501953125</LatitudeDegrees>
              <LongitudeDegrees>-5.37638512440025806427001953125</LongitudeDegrees>
            </Position>
            <AltitudeMeters>60.200000762939453125</AltitudeMeters>
            <DistanceMeters>NAN</DistanceMeters>
          </Trackpoint>
          <Trackpoint>
            <Time>2022-07-17T12:39:33.000Z</Time>
            <Position>
              <LatitudeDegrees>43.504965864121913909912109375</LatitudeDegrees>
              <LongitudeDegrees>-5.376458466053009033203125</LongitudeDegrees>
            </Position>
            <AltitudeMeters>60</AltitudeMeters>
            <DistanceMeters>NAN</DistanceMeters>
          </Trackpoint>
          <Trackpoint>
            <Time>2022-07-17T12:39:34.000Z</Time>
            <Position>
              <LatitudeDegrees>43.50499494932591915130615234375</LatitudeDegrees>
              <LongitudeDegrees>-5.3765595518052577972412109375</LongitudeDegrees>
            </Position>
            <AltitudeMeters>59.40000152587890625</AltitudeMeters>
            <DistanceMeters>NAN</DistanceMeters>
          </Trackpoint>
          <Trackpoint>
            <Time>2022-07-17T12:39:35.000Z</Time>
            <Position>
              <LatitudeDegrees>43.50500232540071010589599609375</LatitudeDegrees>
              <LongitudeDegrees>-5.37669525481760501861572265625</LongitudeDegrees>
            </Position>
            <AltitudeMeters>59.200000762939453125</AltitudeMeters>
            <DistanceMeters>NAN</DistanceMeters>
          </Trackpoint>
          <Trackpoint>
            <Time>2022-07-17T12:39:36.000Z</Time>
            <Position>
              <LatitudeDegrees>43.50498430430889129638671875</LatitudeDegrees>
              <LongitudeDegrees>-5.37680740468204021453857421875</LongitudeDegrees>
            </Position>
            <AltitudeMeters>58.799999237060546875</AltitudeMeters>
            <DistanceMeters>NAN</DistanceMeters>
          </Trackpoint>
          <Trackpoint>
            <Time>2022-07-17T12:39:39.000Z</Time>
            <Position>
              <LatitudeDegrees>43.50488397292792797088623046875</LatitudeDegrees>
              <LongitudeDegrees>-5.37710395641624927520751953125</LongitudeDegrees>
            </Position>
            <AltitudeMeters>57.799999237060546875</AltitudeMeters>
            <DistanceMeters>NAN</DistanceMeters>
          </Trackpoint>
          <Trackpoint>
            <Time>2022-07-17T12:39:40.000Z</Time>
            <Position>
              <LatitudeDegrees>43.50483477115631103515625</LatitudeDegrees>
              <LongitudeDegrees>-5.377232618629932403564453125</LongitudeDegrees>
            </Position>
            <AltitudeMeters>57.59999847412109375</AltitudeMeters>
            <DistanceMeters>NAN</DistanceMeters>
          </Trackpoint>
          <Trackpoint>
            <Time>2022-07-17T12:39:42.000Z</Time>
            <Position>
              <LatitudeDegrees>43.504771403968334197998046875</LatitudeDegrees>
              <LongitudeDegrees>-5.3774279169738292694091796875</LongitudeDegrees>
            </Position>
            <AltitudeMeters>57.200000762939453125</AltitudeMeters>
            <DistanceMeters>NAN</DistanceMeters>
          </Trackpoint>
          <Trackpoint>
            <Time>2022-07-17T12:39:43.000Z</Time>
            <Position>
              <LatitudeDegrees>43.50475271232426166534423828125</LatitudeDegrees>
              <LongitudeDegrees>-5.37753528915345668792724609375</LongitudeDegrees>
            </Position>
            <AltitudeMeters>56.799999237060546875</AltitudeMeters>
            <DistanceMeters>NAN</DistanceMeters>
          </Trackpoint>
          <Trackpoint>
            <Time>2022-07-17T12:39:44.000Z</Time>
            <Position>
              <LatitudeDegrees>43.5047507844865322113037109375</LatitudeDegrees>
              <LongitudeDegrees>-5.37764593027532100677490234375</LongitudeDegrees>
            </Position>
            <AltitudeMeters>56.59999847412109375</AltitudeMeters>
            <DistanceMeters>NAN</DistanceMeters>
          </Trackpoint>
          <Trackpoint>
            <Time>2022-07-17T12:39:46.000Z</Time>
            <Position>
              <LatitudeDegrees>43.50480702705681324005126953125</LatitudeDegrees>
              <LongitudeDegrees>-5.3778631053864955902099609375</LongitudeDegrees>
            </Position>
            <AltitudeMeters>55.799999237060546875</AltitudeMeters>
            <DistanceMeters>NAN</DistanceMeters>
          </Trackpoint>
          <Trackpoint>
            <Time>2022-07-17T12:39:47.000Z</Time>
            <Position>
              <LatitudeDegrees>43.50486989133059978485107421875</LatitudeDegrees>
              <LongitudeDegrees>-5.377944409847259521484375</LongitudeDegrees>
            </Position>
            <AltitudeMeters>55.40000152587890625</AltitudeMeters>
            <DistanceMeters>NAN</DistanceMeters>
          </Trackpoint>
          <Trackpoint>
            <Time>2022-07-17T12:39:48.000Z</Time>
            <Position>
              <LatitudeDegrees>43.5049428977072238922119140625</LatitudeDegrees>
              <LongitudeDegrees>-5.37799604237079620361328125</LongitudeDegrees>
            </Position>
            <AltitudeMeters>55.200000762939453125</AltitudeMeters>
            <DistanceMeters>NAN</DistanceMeters>
          </Trackpoint>
          <Trackpoint>
            <Time>2022-07-17T12:39:50.000Z</Time>
            <Position>
              <LatitudeDegrees>43.50508446805179119110107421875</LatitudeDegrees>
              <LongitudeDegrees>-5.3780947811901569366455078125</LongitudeDegrees>
            </Position>
            <AltitudeMeters>54.40000152587890625</AltitudeMeters>
            <DistanceMeters>NAN</DistanceMeters>
          </Trackpoint>
          <Trackpoint>
            <Time>2022-07-17T12:39:51.000Z</Time>
            <Position>
              <LatitudeDegrees>43.505153618752956390380859375</LatitudeDegrees>
              <LongitudeDegrees>-5.37817709147930145263671875</LongitudeDegrees>
            </Position>
            <AltitudeMeters>54.200000762939453125</AltitudeMeters>
            <DistanceMeters>NAN</DistanceMeters>
          </Trackpoint>
          <Trackpoint>
            <Time>2022-07-17T12:39:52.000Z</Time>
            <Position>
              <LatitudeDegrees>43.50518605671823024749755859375</LatitudeDegrees>
              <LongitudeDegrees>-5.378245823085308074951171875</LongitudeDegrees>
            </Position>
            <AltitudeMeters>53.799999237060546875</AltitudeMeters>
            <DistanceMeters>NAN</DistanceMeters>
          </Trackpoint>
          <Trackpoint>
            <Time>2022-07-17T12:39:53.000Z</Time>
            <Position>
              <LatitudeDegrees>43.505208604037761688232421875</LatitudeDegrees>
              <LongitudeDegrees>-5.3783455677330493927001953125</LongitudeDegrees>
            </Position>
            <AltitudeMeters>53.40000152587890625</AltitudeMeters>
            <DistanceMeters>NAN</DistanceMeters>
          </Trackpoint>
          <Trackpoint>
            <Time>2022-07-17T12:39:54.000Z</Time>
            <Position>
              <LatitudeDegrees>43.50520801730453968048095703125</LatitudeDegrees>
              <LongitudeDegrees>-5.37846920080482959747314453125</LongitudeDegrees>
            </Position>
            <AltitudeMeters>53.200000762939453125</AltitudeMeters>
            <DistanceMeters>NAN</DistanceMeters>
          </Trackpoint>
          <Trackpoint>
            <Time>2022-07-17T12:39:57.000Z</Time>
            <Position>
              <LatitudeDegrees>43.505130149424076080322265625</LatitudeDegrees>
              <LongitudeDegrees>-5.3787385113537311553955078125</LongitudeDegrees>
            </Position>
            <AltitudeMeters>52.59999847412109375</AltitudeMeters>
            <DistanceMeters>NAN</DistanceMeters>
          </Trackpoint>
          <Trackpoint>
            <Time>2022-07-17T12:40:00.000Z</Time>
            <Position>
              <LatitudeDegrees>43.50501305423676967620849609375</LatitudeDegrees>
              <LongitudeDegrees>-5.3790392540395259857177734375</LongitudeDegrees>
            </Position>
            <AltitudeMeters>52.40000152587890625</AltitudeMeters>
            <DistanceMeters>NAN</DistanceMeters>
          </Trackpoint>
          <Trackpoint>
            <Time>2022-07-17T12:40:03.000Z</Time>
            <Position>
              <LatitudeDegrees>43.50490191020071506500244140625</LatitudeDegrees>
              <LongitudeDegrees>-5.3793135099112987518310546875</LongitudeDegrees>
            </Position>
            <AltitudeMeters>52</AltitudeMeters>
            <DistanceMeters>NAN</DistanceMeters>
          </Trackpoint>
          <Trackpoint>
            <Time>2022-07-17T12:40:06.000Z</Time>
            <Position>
              <LatitudeDegrees>43.50481272675096988677978515625</LatitudeDegrees>
              <LongitudeDegrees>-5.3796005062758922576904296875</LongitudeDegrees>
            </Position>
            <AltitudeMeters>51.200000762939453125</AltitudeMeters>
            <DistanceMeters>NAN</DistanceMeters>
          </Trackpoint>
          <Trackpoint>
            <Time>2022-07-17T12:40:08.000Z</Time>
            <Position>
              <LatitudeDegrees>43.50478716194629669189453125</LatitudeDegrees>
              <LongitudeDegrees>-5.37979220040142536163330078125</LongitudeDegrees>
            </Position>
            <AltitudeMeters>50.799999237060546875</AltitudeMeters>
            <DistanceMeters>NAN</DistanceMeters>
          </Trackpoint>
          <Trackpoint>
            <Time>2022-07-17T12:40:09.000Z</Time>
            <Position>
              <LatitudeDegrees>43.5047824680805206298828125</LatitudeDegrees>
              <LongitudeDegrees>-5.37989278323948383331298828125</LongitudeDegrees>
            </Position>
            <AltitudeMeters>50.40000152587890625</AltitudeMeters>
            <DistanceMeters>NAN</DistanceMeters>
          </Trackpoint>
          <Trackpoint>
            <Time>2022-07-17T12:40:10.000Z</Time>
            <Position>
              <LatitudeDegrees>43.50478305481374263763427734375</LatitudeDegrees>
              <LongitudeDegrees>-5.38001331500709056854248046875</LongitudeDegrees>
            </Position>
            <AltitudeMeters>50.200000762939453125</AltitudeMeters>
            <DistanceMeters>NAN</DistanceMeters>
          </Trackpoint>
          <Trackpoint>
            <Time>2022-07-17T12:40:13.000Z</Time>
            <Position>
              <LatitudeDegrees>43.50476461462676525115966796875</LatitudeDegrees>
              <LongitudeDegrees>-5.38029628805816173553466796875</LongitudeDegrees>
            </Position>
            <AltitudeMeters>49</AltitudeMeters>
            <DistanceMeters>NAN</DistanceMeters>
          </Trackpoint>
          <Trackpoint>
            <Time>2022-07-17T12:40:18.000Z</Time>
            <Position>
              <LatitudeDegrees>43.5047098807990550994873046875</LatitudeDegrees>
              <LongitudeDegrees>-5.38078780286014080047607421875</LongitudeDegrees>
            </Position>
            <AltitudeMeters>47.59999847412109375</AltitudeMeters>
            <DistanceMeters>NAN</DistanceMeters>
          </Trackpoint>
          <Trackpoint>
            <Time>2022-07-17T12:40:21.000Z</Time>
            <Position>
              <LatitudeDegrees>43.50468096323311328887939453125</LatitudeDegrees>
              <LongitudeDegrees>-5.3810908086597919464111328125</LongitudeDegrees>
            </Position>
            <AltitudeMeters>46.40000152587890625</AltitudeMeters>
            <DistanceMeters>NAN</DistanceMeters>
          </Trackpoint>
          <Trackpoint>
            <Time>2022-07-17T12:40:22.000Z</Time>
            <Position>
              <LatitudeDegrees>43.504672162234783172607421875</LatitudeDegrees>
              <LongitudeDegrees>-5.381192229688167572021484375</LongitudeDegrees>
            </Position>
            <AltitudeMeters>46.200000762939453125</AltitudeMeters>
            <DistanceMeters>NAN</DistanceMeters>
          </Trackpoint>
          <Trackpoint>
            <Time>2022-07-17T12:40:25.000Z</Time>
            <Position>
              <LatitudeDegrees>43.50463201291859149932861328125</LatitudeDegrees>
              <LongitudeDegrees>-5.38152960129082202911376953125</LongitudeDegrees>
            </Position>
            <AltitudeMeters>45.40000152587890625</AltitudeMeters>
            <DistanceMeters>NAN</DistanceMeters>
          </Trackpoint>
          <Trackpoint>
            <Time>2022-07-17T12:40:30.000Z</Time>
            <Position>
              <LatitudeDegrees>43.5045868344604969024658203125</LatitudeDegrees>
              <LongitudeDegrees>-5.382051207125186920166015625</LongitudeDegrees>
            </Position>
            <AltitudeMeters>44.40000152587890625</AltitudeMeters>
            <DistanceMeters>NAN</DistanceMeters>
          </Trackpoint>
          <Trackpoint>
            <Time>2022-07-17T12:40:32.000Z</Time>
            <Position>
              <LatitudeDegrees>43.5046391375362873077392578125</LatitudeDegrees>
              <LongitudeDegrees>-5.38225815631449222564697265625</LongitudeDegrees>
            </Position>
            <AltitudeMeters>44</AltitudeMeters>
            <DistanceMeters>NAN</DistanceMeters>
          </Trackpoint>
          <Trackpoint>
            <Time>2022-07-17T12:40:33.000Z</Time>
            <Position>
              <LatitudeDegrees>43.50470627658069133758544921875</LatitudeDegrees>
              <LongitudeDegrees>-5.3823568113148212432861328125</LongitudeDegrees>
            </Position>
            <AltitudeMeters>44</AltitudeMeters>
            <DistanceMeters>NAN</DistanceMeters>
          </Trackpoint>
          <Trackpoint>
            <Time>2022-07-17T12:40:34.000Z</Time>
            <Position>
              <LatitudeDegrees>43.504775427281856536865234375</LatitudeDegrees>
              <LongitudeDegrees>-5.382407940924167633056640625</LongitudeDegrees>
            </Position>
            <AltitudeMeters>43.40000152587890625</AltitudeMeters>
            <DistanceMeters>NAN</DistanceMeters>
          </Trackpoint>
          <Trackpoint>
            <Time>2022-07-17T12:40:35.000Z</Time>
            <Position>
              <LatitudeDegrees>43.50484994240105152130126953125</LatitudeDegrees>
              <LongitudeDegrees>-5.38243115879595279693603515625</LongitudeDegrees>
            </Position>
            <AltitudeMeters>43.200000762939453125</AltitudeMeters>
            <DistanceMeters>NAN</DistanceMeters>
          </Trackpoint>
          <Trackpoint>
            <Time>2022-07-17T12:40:36.000Z</Time>
            <Position>
              <LatitudeDegrees>43.50491180084645748138427734375</LatitudeDegrees>
              <LongitudeDegrees>-5.38242311216890811920166015625</LongitudeDegrees>
            </Position>
            <AltitudeMeters>43</AltitudeMeters>
            <DistanceMeters>NAN</DistanceMeters>
          </Trackpoint>
          <Trackpoint>
            <Time>2022-07-17T12:40:38.000Z</Time>
            <Position>
              <LatitudeDegrees>43.50504356436431407928466796875</LatitudeDegrees>
              <LongitudeDegrees>-5.38230559788644313812255859375</LongitudeDegrees>
            </Position>
            <AltitudeMeters>42.40000152587890625</AltitudeMeters>
            <DistanceMeters>NAN</DistanceMeters>
          </Trackpoint>
          <Trackpoint>
            <Time>2022-07-17T12:40:40.000Z</Time>
            <Position>
              <LatitudeDegrees>43.5051380284130573272705078125</LatitudeDegrees>
              <LongitudeDegrees>-5.38212932646274566650390625</LongitudeDegrees>
            </Position>
            <AltitudeMeters>42</AltitudeMeters>
            <DistanceMeters>NAN</DistanceMeters>
          </Trackpoint>
          <Trackpoint>
            <Time>2022-07-17T12:40:41.000Z</Time>
            <Position>
              <LatitudeDegrees>43.50518723018467426300048828125</LatitudeDegrees>
              <LongitudeDegrees>-5.3820520453155040740966796875</LongitudeDegrees>
            </Position>
            <AltitudeMeters>41.799999237060546875</AltitudeMeters>
            <DistanceMeters>NAN</DistanceMeters>
          </Trackpoint>
          <Trackpoint>
            <Time>2022-07-17T12:40:42.000Z</Time>
            <Position>
              <LatitudeDegrees>43.5052443109452724456787109375</LatitudeDegrees>
              <LongitudeDegrees>-5.381982810795307159423828125</LongitudeDegrees>
            </Position>
            <AltitudeMeters>41.59999847412109375</AltitudeMeters>
            <DistanceMeters>NAN</DistanceMeters>
          </Trackpoint>
          <Trackpoint>
            <Time>2022-07-17T12:40:43.000Z</Time>
            <Position>
              <LatitudeDegrees>43.50531019270420074462890625</LatitudeDegrees>
              <LongitudeDegrees>-5.38193478249013423919677734375</LongitudeDegrees>
            </Position>
            <AltitudeMeters>41.59999847412109375</AltitudeMeters>
            <DistanceMeters>NAN</DistanceMeters>
          </Trackpoint>
          <Trackpoint>
            <Time>2022-07-17T12:40:45.000Z</Time>
            <Position>
              <LatitudeDegrees>43.505445979535579681396484375</LatitudeDegrees>
              <LongitudeDegrees>-5.38191919215023517608642578125</LongitudeDegrees>
            </Position>
            <AltitudeMeters>41.200000762939453125</AltitudeMeters>
            <DistanceMeters>NAN</DistanceMeters>
          </Trackpoint>
          <Trackpoint>
            <Time>2022-07-17T12:40:47.000Z</Time>
            <Position>
              <LatitudeDegrees>43.50556978024542331695556640625</LatitudeDegrees>
              <LongitudeDegrees>-5.38199521601200103759765625</LongitudeDegrees>
            </Position>
            <AltitudeMeters>41</AltitudeMeters>
            <DistanceMeters>NAN</DistanceMeters>
          </Trackpoint>
          <Trackpoint>
            <Time>2022-07-17T12:40:48.000Z</Time>
            <Position>
              <LatitudeDegrees>43.5056184791028499603271484375</LatitudeDegrees>
              <LongitudeDegrees>-5.38206604309380054473876953125</LongitudeDegrees>
            </Position>
            <AltitudeMeters>40.799999237060546875</AltitudeMeters>
            <DistanceMeters>NAN</DistanceMeters>
          </Trackpoint>
          <Trackpoint>
            <Time>2022-07-17T12:40:52.000Z</Time>
            <Position>
              <LatitudeDegrees>43.50579860620200634002685546875</LatitudeDegrees>
              <LongitudeDegrees>-5.3823950327932834625244140625</LongitudeDegrees>
            </Position>
            <AltitudeMeters>39.799999237060546875</AltitudeMeters>
            <DistanceMeters>NAN</DistanceMeters>
          </Trackpoint>
          <Trackpoint>
            <Time>2022-07-17T12:40:53.000Z</Time>
            <Position>
              <LatitudeDegrees>43.5058701038360595703125</LatitudeDegrees>
              <LongitudeDegrees>-5.38247088901698589324951171875</LongitudeDegrees>
            </Position>
            <AltitudeMeters>39.59999847412109375</AltitudeMeters>
            <DistanceMeters>NAN</DistanceMeters>
          </Trackpoint>
          <Trackpoint>
            <Time>2022-07-17T12:40:54.000Z</Time>
            <Position>
              <LatitudeDegrees>43.505925424396991729736328125</LatitudeDegrees>
              <LongitudeDegrees>-5.382497124373912811279296875</LongitudeDegrees>
            </Position>
            <AltitudeMeters>39.200000762939453125</AltitudeMeters>
            <DistanceMeters>NAN</DistanceMeters>
          </Trackpoint>
          <Trackpoint>
            <Time>2022-07-17T12:40:56.000Z</Time>
            <Position>
              <LatitudeDegrees>43.5060640610754489898681640625</LatitudeDegrees>
              <LongitudeDegrees>-5.38253366947174072265625</LongitudeDegrees>
            </Position>
            <AltitudeMeters>38.799999237060546875</AltitudeMeters>
            <DistanceMeters>NAN</DistanceMeters>
          </Trackpoint>
          <Trackpoint>
            <Time>2022-07-17T12:40:57.000Z</Time>
            <Position>
              <LatitudeDegrees>43.50612449459731578826904296875</LatitudeDegrees>
              <LongitudeDegrees>-5.382554121315479278564453125</LongitudeDegrees>
            </Position>
            <AltitudeMeters>38.799999237060546875</AltitudeMeters>
            <DistanceMeters>NAN</DistanceMeters>
          </Trackpoint>
          <Trackpoint>
            <Time>2022-07-17T12:40:59.000Z</Time>
            <Position>
              <LatitudeDegrees>43.50622348487377166748046875</LatitudeDegrees>
              <LongitudeDegrees>-5.382627546787261962890625</LongitudeDegrees>
            </Position>
            <AltitudeMeters>38.200000762939453125</AltitudeMeters>
            <DistanceMeters>NAN</DistanceMeters>
          </Trackpoint>
          <Trackpoint>
            <Time>2022-07-17T12:41:00.000Z</Time>
            <Position>
              <LatitudeDegrees>43.5062521509826183319091796875</LatitudeDegrees>
              <LongitudeDegrees>-5.382660739123821258544921875</LongitudeDegrees>
            </Position>
            <AltitudeMeters>37.59999847412109375</AltitudeMeters>
            <DistanceMeters>NAN</DistanceMeters>
          </Trackpoint>
          <Trackpoint>
            <Time>2022-07-17T12:41:02.000Z</Time>
            <Position>
              <LatitudeDegrees>43.506278134882450103759765625</LatitudeDegrees>
              <LongitudeDegrees>-5.3827162273228168487548828125</LongitudeDegrees>
            </Position>
            <AltitudeMeters>37</AltitudeMeters>
            <DistanceMeters>NAN</DistanceMeters>
          </Trackpoint>
          <Trackpoint>
            <Time>2022-07-17T12:41:04.000Z</Time>
            <Position>
              <LatitudeDegrees>43.5062903724610805511474609375</LatitudeDegrees>
              <LongitudeDegrees>-5.3827497549355030059814453125</LongitudeDegrees>
            </Position>
            <AltitudeMeters>36.40000152587890625</AltitudeMeters>
            <DistanceMeters>NAN</DistanceMeters>
          </Trackpoint>
          <Trackpoint>
            <Time>2022-07-17T12:41:06.000Z</Time>
            <Position>
              <LatitudeDegrees>43.50629380904138088226318359375</LatitudeDegrees>
              <LongitudeDegrees>-5.38275067694485187530517578125</LongitudeDegrees>
            </Position>
            <AltitudeMeters>36.40000152587890625</AltitudeMeters>
            <DistanceMeters>NAN</DistanceMeters>
          </Trackpoint>
          <Trackpoint>
            <Time>2022-07-17T12:46:01.000Z</Time>
            <Position>
              <LatitudeDegrees>43.50631828419864177703857421875</LatitudeDegrees>
              <LongitudeDegrees>-5.38281236775219440460205078125</LongitudeDegrees>
            </Position>
            <AltitudeMeters>36</AltitudeMeters>
            <DistanceMeters>NAN</DistanceMeters>
          </Trackpoint>
          <Trackpoint>
            <Time>2022-07-17T12:46:03.000Z</Time>
            <Position>
              <LatitudeDegrees>43.50633270107209682464599609375</LatitudeDegrees>
              <LongitudeDegrees>-5.38287573494017124176025390625</LongitudeDegrees>
            </Position>
            <AltitudeMeters>36</AltitudeMeters>
            <DistanceMeters>NAN</DistanceMeters>
          </Trackpoint>
          <Trackpoint>
            <Time>2022-07-17T12:46:04.000Z</Time>
            <Position>
              <LatitudeDegrees>43.5063423402607440948486328125</LatitudeDegrees>
              <LongitudeDegrees>-5.3829056583344936370849609375</LongitudeDegrees>
            </Position>
            <AltitudeMeters>35</AltitudeMeters>
            <DistanceMeters>NAN</DistanceMeters>
          </Trackpoint>
          <Trackpoint>
            <Time>2022-07-17T12:46:07.000Z</Time>
            <Position>
              <LatitudeDegrees>43.50637025199830532073974609375</LatitudeDegrees>
              <LongitudeDegrees>-5.38305343128740787506103515625</LongitudeDegrees>
            </Position>
            <AltitudeMeters>34</AltitudeMeters>
            <DistanceMeters>NAN</DistanceMeters>
          </Trackpoint>
          <Trackpoint>
            <Time>2022-07-17T12:46:09.000Z</Time>
            <Position>
              <LatitudeDegrees>43.50638718344271183013916015625</LatitudeDegrees>
              <LongitudeDegrees>-5.383147895336151123046875</LongitudeDegrees>
            </Position>
            <AltitudeMeters>33.59999847412109375</AltitudeMeters>
            <DistanceMeters>NAN</DistanceMeters>
          </Trackpoint>
          <Trackpoint>
            <Time>2022-07-17T12:46:11.000Z</Time>
            <Position>
              <LatitudeDegrees>43.506417609751224517822265625</LatitudeDegrees>
              <LongitudeDegrees>-5.38326532579958438873291015625</LongitudeDegrees>
            </Position>
            <AltitudeMeters>32.799999237060546875</AltitudeMeters>
            <DistanceMeters>NAN</DistanceMeters>
          </Trackpoint>
          <Trackpoint>
            <Time>2022-07-17T12:46:15.000Z</Time>
            <Position>
              <LatitudeDegrees>43.5065116547048091888427734375</LatitudeDegrees>
              <LongitudeDegrees>-5.383474119007587432861328125</LongitudeDegrees>
            </Position>
            <AltitudeMeters>32.59999847412109375</AltitudeMeters>
            <DistanceMeters>NAN</DistanceMeters>
          </Trackpoint>
          <Trackpoint>
            <Time>2022-07-17T12:46:19.000Z</Time>
            <Position>
              <LatitudeDegrees>43.50664266385138034820556640625</LatitudeDegrees>
              <LongitudeDegrees>-5.3836798109114170074462890625</LongitudeDegrees>
            </Position>
            <AltitudeMeters>32.799999237060546875</AltitudeMeters>
            <DistanceMeters>NAN</DistanceMeters>
          </Trackpoint>
          <Trackpoint>
            <Time>2022-07-17T12:46:22.000Z</Time>
            <Position>
              <LatitudeDegrees>43.50675514899194240570068359375</LatitudeDegrees>
              <LongitudeDegrees>-5.3838144242763519287109375</LongitudeDegrees>
            </Position>
            <AltitudeMeters>32.59999847412109375</AltitudeMeters>
            <DistanceMeters>NAN</DistanceMeters>
          </Trackpoint>
          <Trackpoint>
            <Time>2022-07-17T12:46:28.000Z</Time>
            <Position>
              <LatitudeDegrees>43.5070309974253177642822265625</LatitudeDegrees>
              <LongitudeDegrees>-5.3840754367411136627197265625</LongitudeDegrees>
            </Position>
            <AltitudeMeters>31.799999237060546875</AltitudeMeters>
            <DistanceMeters>NAN</DistanceMeters>
          </Trackpoint>
          <Trackpoint>
            <Time>2022-07-17T12:46:29.000Z</Time>
            <Position>
              <LatitudeDegrees>43.507076092064380645751953125</LatitudeDegrees>
              <LongitudeDegrees>-5.38412413559854030609130859375</LongitudeDegrees>
            </Position>
            <AltitudeMeters>31.6000003814697265625</AltitudeMeters>
            <DistanceMeters>NAN</DistanceMeters>
          </Trackpoint>
          <Trackpoint>
            <Time>2022-07-17T12:46:32.000Z</Time>
            <Position>
              <LatitudeDegrees>43.5072086937725543975830078125</LatitudeDegrees>
              <LongitudeDegrees>-5.38427836261689662933349609375</LongitudeDegrees>
            </Position>
            <AltitudeMeters>30.799999237060546875</AltitudeMeters>
            <DistanceMeters>NAN</DistanceMeters>
          </Trackpoint>
          <Trackpoint>
            <Time>2022-07-17T12:46:33.000Z</Time>
            <Position>
              <LatitudeDegrees>43.50725035183131694793701171875</LatitudeDegrees>
              <LongitudeDegrees>-5.3843369521200656890869140625</LongitudeDegrees>
            </Position>
            <AltitudeMeters>30.200000762939453125</AltitudeMeters>
            <DistanceMeters>NAN</DistanceMeters>
          </Trackpoint>
          <Trackpoint>
            <Time>2022-07-17T12:46:34.000Z</Time>
            <Position>
              <LatitudeDegrees>43.50729963742196559906005859375</LatitudeDegrees>
              <LongitudeDegrees>-5.3844098746776580810546875</LongitudeDegrees>
            </Position>
            <AltitudeMeters>30</AltitudeMeters>
            <DistanceMeters>NAN</DistanceMeters>
          </Trackpoint>
          <Trackpoint>
            <Time>2022-07-17T12:46:35.000Z</Time>
            <Position>
              <LatitudeDegrees>43.5073297284543514251708984375</LatitudeDegrees>
              <LongitudeDegrees>-5.38446544669568538665771484375</LongitudeDegrees>
            </Position>
            <AltitudeMeters>29.3999996185302734375</AltitudeMeters>
            <DistanceMeters>NAN</DistanceMeters>
          </Trackpoint>
          <Trackpoint>
            <Time>2022-07-17T12:46:36.000Z</Time>
            <Position>
              <LatitudeDegrees>43.50736149586737155914306640625</LatitudeDegrees>
              <LongitudeDegrees>-5.384538955986499786376953125</LongitudeDegrees>
            </Position>
            <AltitudeMeters>29</AltitudeMeters>
            <DistanceMeters>NAN</DistanceMeters>
          </Trackpoint>
          <Trackpoint>
            <Time>2022-07-17T12:46:40.000Z</Time>
            <Position>
              <LatitudeDegrees>43.50747817195951938629150390625</LatitudeDegrees>
              <LongitudeDegrees>-5.38488001562654972076416015625</LongitudeDegrees>
            </Position>
            <AltitudeMeters>27.6000003814697265625</AltitudeMeters>
            <DistanceMeters>NAN</DistanceMeters>
          </Trackpoint>
          <Trackpoint>
            <Time>2022-07-17T12:46:44.000Z</Time>
            <Position>
              <LatitudeDegrees>43.5075845383107662200927734375</LatitudeDegrees>
              <LongitudeDegrees>-5.38522384129464626312255859375</LongitudeDegrees>
            </Position>
            <AltitudeMeters>26.6000003814697265625</AltitudeMeters>
            <DistanceMeters>NAN</DistanceMeters>
          </Trackpoint>
          <Trackpoint>
            <Time>2022-07-17T12:46:46.000Z</Time>
            <Position>
              <LatitudeDegrees>43.50763726048171520233154296875</LatitudeDegrees>
              <LongitudeDegrees>-5.38539885543286800384521484375</LongitudeDegrees>
            </Position>
            <AltitudeMeters>26.200000762939453125</AltitudeMeters>
            <DistanceMeters>NAN</DistanceMeters>
          </Trackpoint>
          <Trackpoint>
            <Time>2022-07-17T12:46:48.000Z</Time>
            <Position>
              <LatitudeDegrees>43.507683277130126953125</LatitudeDegrees>
              <LongitudeDegrees>-5.38556163199245929718017578125</LongitudeDegrees>
            </Position>
            <AltitudeMeters>26.200000762939453125</AltitudeMeters>
            <DistanceMeters>NAN</DistanceMeters>
          </Trackpoint>
          <Trackpoint>
            <Time>2022-07-17T12:46:51.000Z</Time>
            <Position>
              <LatitudeDegrees>43.5077624022960662841796875</LatitudeDegrees>
              <LongitudeDegrees>-5.3858510591089725494384765625</LongitudeDegrees>
            </Position>
            <AltitudeMeters>28</AltitudeMeters>
            <DistanceMeters>NAN</DistanceMeters>
          </Trackpoint>
          <Trackpoint>
            <Time>2022-07-17T12:46:53.000Z</Time>
            <Position>
              <LatitudeDegrees>43.50780707783997058868408203125</LatitudeDegrees>
              <LongitudeDegrees>-5.3860062919557094573974609375</LongitudeDegrees>
            </Position>
            <AltitudeMeters>28.3999996185302734375</AltitudeMeters>
            <DistanceMeters>NAN</DistanceMeters>
          </Trackpoint>
          <Trackpoint>
            <Time>2022-07-17T12:46:55.000Z</Time>
            <Position>
              <LatitudeDegrees>43.5078520886600017547607421875</LatitudeDegrees>
              <LongitudeDegrees>-5.38620703853666782379150390625</LongitudeDegrees>
            </Position>
            <AltitudeMeters>28</AltitudeMeters>
            <DistanceMeters>NAN</DistanceMeters>
          </Trackpoint>
          <Trackpoint>
            <Time>2022-07-17T12:46:56.000Z</Time>
            <Position>
              <LatitudeDegrees>43.50786231458187103271484375</LatitudeDegrees>
              <LongitudeDegrees>-5.3863016702234745025634765625</LongitudeDegrees>
            </Position>
            <AltitudeMeters>28</AltitudeMeters>
            <DistanceMeters>NAN</DistanceMeters>
          </Trackpoint>
          <Trackpoint>
            <Time>2022-07-17T12:46:59.000Z</Time>
            <Position>
              <LatitudeDegrees>43.50787061266601085662841796875</LatitudeDegrees>
              <LongitudeDegrees>-5.38657248951494693756103515625</LongitudeDegrees>
            </Position>
            <AltitudeMeters>27.799999237060546875</AltitudeMeters>
            <DistanceMeters>NAN</DistanceMeters>
          </Trackpoint>
          <Trackpoint>
            <Time>2022-07-17T12:47:01.000Z</Time>
            <Position>
              <LatitudeDegrees>43.5078589618206024169921875</LatitudeDegrees>
              <LongitudeDegrees>-5.3867526166141033172607421875</LongitudeDegrees>
            </Position>
            <AltitudeMeters>27.200000762939453125</AltitudeMeters>
            <DistanceMeters>NAN</DistanceMeters>
          </Trackpoint>
          <Trackpoint>
            <Time>2022-07-17T12:47:02.000Z</Time>
            <Position>
              <LatitudeDegrees>43.50784731097519397735595703125</LatitudeDegrees>
              <LongitudeDegrees>-5.3868283890187740325927734375</LongitudeDegrees>
            </Position>
            <AltitudeMeters>27</AltitudeMeters>
            <DistanceMeters>NAN</DistanceMeters>
          </Trackpoint>
          <Trackpoint>
            <Time>2022-07-17T12:47:04.000Z</Time>
            <Position>
              <LatitudeDegrees>43.50780691020190715789794921875</LatitudeDegrees>
              <LongitudeDegrees>-5.3870174847543239593505859375</LongitudeDegrees>
            </Position>
            <AltitudeMeters>26.799999237060546875</AltitudeMeters>
            <DistanceMeters>NAN</DistanceMeters>
          </Trackpoint>
          <Trackpoint>
            <Time>2022-07-17T12:47:06.000Z</Time>
            <Position>
              <LatitudeDegrees>43.5077602230012416839599609375</LatitudeDegrees>
              <LongitudeDegrees>-5.38716651499271392822265625</LongitudeDegrees>
            </Position>
            <AltitudeMeters>26.6000003814697265625</AltitudeMeters>
            <DistanceMeters>NAN</DistanceMeters>
          </Trackpoint>
          <Trackpoint>
            <Time>2022-07-17T12:47:09.000Z</Time>
            <Position>
              <LatitudeDegrees>43.5076757334172725677490234375</LatitudeDegrees>
              <LongitudeDegrees>-5.38742207922041416168212890625</LongitudeDegrees>
            </Position>
            <AltitudeMeters>25.799999237060546875</AltitudeMeters>
            <DistanceMeters>NAN</DistanceMeters>
          </Trackpoint>
          <Trackpoint>
            <Time>2022-07-17T12:47:11.000Z</Time>
            <Position>
              <LatitudeDegrees>43.50764212198555469512939453125</LatitudeDegrees>
              <LongitudeDegrees>-5.38760581053793430328369140625</LongitudeDegrees>
            </Position>
            <AltitudeMeters>25.200000762939453125</AltitudeMeters>
            <DistanceMeters>NAN</DistanceMeters>
          </Trackpoint>
          <Trackpoint>
            <Time>2022-07-17T12:47:12.000Z</Time>
            <Position>
              <LatitudeDegrees>43.507633320987224578857421875</LatitudeDegrees>
              <LongitudeDegrees>-5.387679822742938995361328125</LongitudeDegrees>
            </Position>
            <AltitudeMeters>25</AltitudeMeters>
            <DistanceMeters>NAN</DistanceMeters>
          </Trackpoint>
          <Trackpoint>
            <Time>2022-07-17T12:47:13.000Z</Time>
            <Position>
              <LatitudeDegrees>43.50762569345533847808837890625</LatitudeDegrees>
              <LongitudeDegrees>-5.3877733647823333740234375</LongitudeDegrees>
            </Position>
            <AltitudeMeters>24.6000003814697265625</AltitudeMeters>
            <DistanceMeters>NAN</DistanceMeters>
          </Trackpoint>
          <Trackpoint>
            <Time>2022-07-17T12:47:17.000Z</Time>
            <Position>
              <LatitudeDegrees>43.507625274360179901123046875</LatitudeDegrees>
              <LongitudeDegrees>-5.388161949813365936279296875</LongitudeDegrees>
            </Position>
            <AltitudeMeters>24</AltitudeMeters>
            <DistanceMeters>NAN</DistanceMeters>
          </Trackpoint>
          <Trackpoint>
            <Time>2022-07-17T12:47:18.000Z</Time>
            <Position>
              <LatitudeDegrees>43.5076331533491611480712890625</LatitudeDegrees>
              <LongitudeDegrees>-5.38823814131319522857666015625</LongitudeDegrees>
            </Position>
            <AltitudeMeters>23.799999237060546875</AltitudeMeters>
            <DistanceMeters>NAN</DistanceMeters>
          </Trackpoint>
          <Trackpoint>
            <Time>2022-07-17T12:47:20.000Z</Time>
            <Position>
              <LatitudeDegrees>43.50766190327703952789306640625</LatitudeDegrees>
              <LongitudeDegrees>-5.388440228998661041259765625</LongitudeDegrees>
            </Position>
            <AltitudeMeters>23.3999996185302734375</AltitudeMeters>
            <DistanceMeters>NAN</DistanceMeters>
          </Trackpoint>
          <Trackpoint>
            <Time>2022-07-17T12:47:23.000Z</Time>
            <Position>
              <LatitudeDegrees>43.50772082805633544921875</LatitudeDegrees>
              <LongitudeDegrees>-5.388688333332538604736328125</LongitudeDegrees>
            </Position>
            <AltitudeMeters>23</AltitudeMeters>
            <DistanceMeters>NAN</DistanceMeters>
          </Trackpoint>
          <Trackpoint>
            <Time>2022-07-17T12:47:26.000Z</Time>
            <Position>
              <LatitudeDegrees>43.50778176449239253997802734375</LatitudeDegrees>
              <LongitudeDegrees>-5.388969294726848602294921875</LongitudeDegrees>
            </Position>
            <AltitudeMeters>22.200000762939453125</AltitudeMeters>
            <DistanceMeters>NAN</DistanceMeters>
          </Trackpoint>
          <Trackpoint>
            <Time>2022-07-17T12:47:28.000Z</Time>
            <Position>
              <LatitudeDegrees>43.5077945888042449951171875</LatitudeDegrees>
              <LongitudeDegrees>-5.38912846706807613372802734375</LongitudeDegrees>
            </Position>
            <AltitudeMeters>21.799999237060546875</AltitudeMeters>
            <DistanceMeters>NAN</DistanceMeters>
          </Trackpoint>
          <Trackpoint>
            <Time>2022-07-17T12:47:29.000Z</Time>
            <Position>
              <LatitudeDegrees>43.50779618136584758758544921875</LatitudeDegrees>
              <LongitudeDegrees>-5.38923223502933979034423828125</LongitudeDegrees>
            </Position>
            <AltitudeMeters>21.6000003814697265625</AltitudeMeters>
            <DistanceMeters>NAN</DistanceMeters>
          </Trackpoint>
          <Trackpoint>
            <Time>2022-07-17T12:47:32.000Z</Time>
            <Position>
              <LatitudeDegrees>43.5077675990760326385498046875</LatitudeDegrees>
              <LongitudeDegrees>-5.38947497494518756866455078125</LongitudeDegrees>
            </Position>
            <AltitudeMeters>21.200000762939453125</AltitudeMeters>
            <DistanceMeters>NAN</DistanceMeters>
          </Trackpoint>
          <Trackpoint>
            <Time>2022-07-17T12:47:33.000Z</Time>
            <Position>
              <LatitudeDegrees>43.507747314870357513427734375</LatitudeDegrees>
              <LongitudeDegrees>-5.38957388140261173248291015625</LongitudeDegrees>
            </Position>
            <AltitudeMeters>20.799999237060546875</AltitudeMeters>
            <DistanceMeters>NAN</DistanceMeters>
          </Trackpoint>
          <Trackpoint>
            <Time>2022-07-17T12:47:38.000Z</Time>
            <Position>
              <LatitudeDegrees>43.507642708718776702880859375</LatitudeDegrees>
              <LongitudeDegrees>-5.3899705968797206878662109375</LongitudeDegrees>
            </Position>
            <AltitudeMeters>20.200000762939453125</AltitudeMeters>
            <DistanceMeters>NAN</DistanceMeters>
          </Trackpoint>
          <Trackpoint>
            <Time>2022-07-17T12:47:40.000Z</Time>
            <Position>
              <LatitudeDegrees>43.50762401707470417022705078125</LatitudeDegrees>
              <LongitudeDegrees>-5.3901295177638530731201171875</LongitudeDegrees>
            </Position>
            <AltitudeMeters>20</AltitudeMeters>
            <DistanceMeters>NAN</DistanceMeters>
          </Trackpoint>
          <Trackpoint>
            <Time>2022-07-17T12:47:41.000Z</Time>
            <Position>
              <LatitudeDegrees>43.50760960020124912261962890625</LatitudeDegrees>
              <LongitudeDegrees>-5.390194393694400787353515625</LongitudeDegrees>
            </Position>
            <AltitudeMeters>19.799999237060546875</AltitudeMeters>
            <DistanceMeters>NAN</DistanceMeters>
          </Trackpoint>
          <Trackpoint>
            <Time>2022-07-17T12:47:42.000Z</Time>
            <Position>
              <LatitudeDegrees>43.5075905732810497283935546875</LatitudeDegrees>
              <LongitudeDegrees>-5.39027410559356212615966796875</LongitudeDegrees>
            </Position>
            <AltitudeMeters>19.6000003814697265625</AltitudeMeters>
            <DistanceMeters>NAN</DistanceMeters>
          </Trackpoint>
          <Trackpoint>
            <Time>2022-07-17T12:47:43.000Z</Time>
            <Position>
              <LatitudeDegrees>43.507564924657344818115234375</LatitudeDegrees>
              <LongitudeDegrees>-5.3903692401945590972900390625</LongitudeDegrees>
            </Position>
            <AltitudeMeters>19.6000003814697265625</AltitudeMeters>
            <DistanceMeters>NAN</DistanceMeters>
          </Trackpoint>
          <Trackpoint>
            <Time>2022-07-17T12:47:48.000Z</Time>
            <Position>
              <LatitudeDegrees>43.5074443928897380828857421875</LatitudeDegrees>
              <LongitudeDegrees>-5.39074181579053401947021484375</LongitudeDegrees>
            </Position>
            <AltitudeMeters>19.6000003814697265625</AltitudeMeters>
            <DistanceMeters>NAN</DistanceMeters>
          </Trackpoint>
          <Trackpoint>
            <Time>2022-07-17T12:47:51.000Z</Time>
            <Position>
              <LatitudeDegrees>43.50738613866269588470458984375</LatitudeDegrees>
              <LongitudeDegrees>-5.39091062732040882110595703125</LongitudeDegrees>
            </Position>
            <AltitudeMeters>19.6000003814697265625</AltitudeMeters>
            <DistanceMeters>NAN</DistanceMeters>
          </Trackpoint>
          <Trackpoint>
            <Time>2022-07-17T12:47:53.000Z</Time>
            <Position>
              <LatitudeDegrees>43.5073404572904109954833984375</LatitudeDegrees>
              <LongitudeDegrees>-5.3910429775714874267578125</LongitudeDegrees>
            </Position>
            <AltitudeMeters>19.6000003814697265625</AltitudeMeters>
            <DistanceMeters>NAN</DistanceMeters>
          </Trackpoint>
          <Trackpoint>
            <Time>2022-07-17T12:48:01.000Z</Time>
            <Position>
              <LatitudeDegrees>43.5071872361004352569580078125</LatitudeDegrees>
              <LongitudeDegrees>-5.391511358320713043212890625</LongitudeDegrees>
            </Position>
            <AltitudeMeters>19.6000003814697265625</AltitudeMeters>
            <DistanceMeters>NAN</DistanceMeters>
          </Trackpoint>
          <Trackpoint>
            <Time>2022-07-17T12:48:07.000Z</Time>
            <Position>
              <LatitudeDegrees>43.507082462310791015625</LatitudeDegrees>
              <LongitudeDegrees>-5.39183397777378559112548828125</LongitudeDegrees>
            </Position>
            <AltitudeMeters>19.6000003814697265625</AltitudeMeters>
            <DistanceMeters>NAN</DistanceMeters>
          </Trackpoint>
          <Trackpoint>
            <Time>2022-07-17T12:48:15.000Z</Time>
            <Position>
              <LatitudeDegrees>43.50695841014385223388671875</LatitudeDegrees>
              <LongitudeDegrees>-5.3922082297503948211669921875</LongitudeDegrees>
            </Position>
            <AltitudeMeters>20.200000762939453125</AltitudeMeters>
            <DistanceMeters>NAN</DistanceMeters>
          </Trackpoint>
          <Trackpoint>
            <Time>2022-07-17T12:48:21.000Z</Time>
            <Position>
              <LatitudeDegrees>43.50688104517757892608642578125</LatitudeDegrees>
              <LongitudeDegrees>-5.3924918733537197113037109375</LongitudeDegrees>
            </Position>
            <AltitudeMeters>20.799999237060546875</AltitudeMeters>
            <DistanceMeters>NAN</DistanceMeters>
          </Trackpoint>
          <Trackpoint>
            <Time>2022-07-17T12:48:23.000Z</Time>
            <Position>
              <LatitudeDegrees>43.5068469308316707611083984375</LatitudeDegrees>
              <LongitudeDegrees>-5.39256311953067779541015625</LongitudeDegrees>
            </Position>
            <AltitudeMeters>21</AltitudeMeters>
            <DistanceMeters>NAN</DistanceMeters>
          </Trackpoint>
          <Trackpoint>
            <Time>2022-07-17T12:48:26.000Z</Time>
            <Position>
              <LatitudeDegrees>43.5068056918680667877197265625</LatitudeDegrees>
              <LongitudeDegrees>-5.3926762752234935760498046875</LongitudeDegrees>
            </Position>
            <AltitudeMeters>21.200000762939453125</AltitudeMeters>
            <DistanceMeters>NAN</DistanceMeters>
          </Trackpoint>
          <Trackpoint>
            <Time>2022-07-17T12:48:30.000Z</Time>
            <Position>
              <LatitudeDegrees>43.50671860389411449432373046875</LatitudeDegrees>
              <LongitudeDegrees>-5.39283796213567256927490234375</LongitudeDegrees>
            </Position>
            <AltitudeMeters>21.200000762939453125</AltitudeMeters>
            <DistanceMeters>NAN</DistanceMeters>
          </Trackpoint>
          <Trackpoint>
            <Time>2022-07-17T12:48:39.000Z</Time>
            <Position>
              <LatitudeDegrees>43.50646756589412689208984375</LatitudeDegrees>
              <LongitudeDegrees>-5.39313786663115024566650390625</LongitudeDegrees>
            </Position>
            <AltitudeMeters>21.6000003814697265625</AltitudeMeters>
            <DistanceMeters>NAN</DistanceMeters>
          </Trackpoint>
          <Trackpoint>
            <Time>2022-07-17T12:48:46.000Z</Time>
            <Position>
              <LatitudeDegrees>43.50629867054522037506103515625</LatitudeDegrees>
              <LongitudeDegrees>-5.39333559572696685791015625</LongitudeDegrees>
            </Position>
            <AltitudeMeters>22</AltitudeMeters>
            <DistanceMeters>NAN</DistanceMeters>
          </Trackpoint>
          <Trackpoint>
            <Time>2022-07-17T12:48:47.000Z</Time>
            <Position>
              <LatitudeDegrees>43.50628140382468700408935546875</LatitudeDegrees>
              <LongitudeDegrees>-5.3933565504848957061767578125</LongitudeDegrees>
            </Position>
            <AltitudeMeters>22</AltitudeMeters>
            <DistanceMeters>NAN</DistanceMeters>
          </Trackpoint>
          <Trackpoint>
            <Time>2022-07-17T12:48:55.000Z</Time>
            <Position>
              <LatitudeDegrees>43.50614779628813266754150390625</LatitudeDegrees>
              <LongitudeDegrees>-5.3935456462204456329345703125</LongitudeDegrees>
            </Position>
            <AltitudeMeters>22.799999237060546875</AltitudeMeters>
            <DistanceMeters>NAN</DistanceMeters>
          </Trackpoint>
          <Trackpoint>
            <Time>2022-07-17T12:48:57.000Z</Time>
            <Position>
              <LatitudeDegrees>43.50612214766442775726318359375</LatitudeDegrees>
              <LongitudeDegrees>-5.3935815207660198211669921875</LongitudeDegrees>
            </Position>
            <AltitudeMeters>23</AltitudeMeters>
            <DistanceMeters>NAN</DistanceMeters>
          </Trackpoint>
          <Trackpoint>
            <Time>2022-07-17T12:49:02.000Z</Time>
            <Position>
              <LatitudeDegrees>43.50605157203972339630126953125</LatitudeDegrees>
              <LongitudeDegrees>-5.39368587546050548553466796875</LongitudeDegrees>
            </Position>
            <AltitudeMeters>23.6000003814697265625</AltitudeMeters>
            <DistanceMeters>NAN</DistanceMeters>
          </Trackpoint>
          <Trackpoint>
            <Time>2022-07-17T12:49:07.000Z</Time>
            <Position>
              <LatitudeDegrees>43.505999185144901275634765625</LatitudeDegrees>
              <LongitudeDegrees>-5.3938081674277782440185546875</LongitudeDegrees>
            </Position>
            <AltitudeMeters>24</AltitudeMeters>
            <DistanceMeters>NAN</DistanceMeters>
          </Trackpoint>
          <Trackpoint>
            <Time>2022-07-17T12:49:08.000Z</Time>
            <Position>
              <LatitudeDegrees>43.50598686374723911285400390625</LatitudeDegrees>
              <LongitudeDegrees>-5.3938370011746883392333984375</LongitudeDegrees>
            </Position>
            <AltitudeMeters>24</AltitudeMeters>
            <DistanceMeters>NAN</DistanceMeters>
          </Trackpoint>
          <Trackpoint>
            <Time>2022-07-17T12:49:12.000Z</Time>
            <Position>
              <LatitudeDegrees>43.50594780407845973968505859375</LatitudeDegrees>
              <LongitudeDegrees>-5.39393112994730472564697265625</LongitudeDegrees>
            </Position>
            <AltitudeMeters>24.6000003814697265625</AltitudeMeters>
            <DistanceMeters>NAN</DistanceMeters>
          </Trackpoint>
          <Trackpoint>
            <Time>2022-07-17T12:49:15.000Z</Time>
            <Position>
              <LatitudeDegrees>43.505926765501499176025390625</LatitudeDegrees>
              <LongitudeDegrees>-5.39400673471391201019287109375</LongitudeDegrees>
            </Position>
            <AltitudeMeters>24.799999237060546875</AltitudeMeters>
            <DistanceMeters>NAN</DistanceMeters>
          </Trackpoint>
          <Trackpoint>
            <Time>2022-07-17T12:49:18.000Z</Time>
            <Position>
              <LatitudeDegrees>43.50591092370450496673583984375</LatitudeDegrees>
              <LongitudeDegrees>-5.39407764561474323272705078125</LongitudeDegrees>
            </Position>
            <AltitudeMeters>25.200000762939453125</AltitudeMeters>
            <DistanceMeters>NAN</DistanceMeters>
          </Trackpoint>
          <Trackpoint>
            <Time>2022-07-17T12:49:24.000Z</Time>
            <Position>
              <LatitudeDegrees>43.50589348934590816497802734375</LatitudeDegrees>
              <LongitudeDegrees>-5.394251905381679534912109375</LongitudeDegrees>
            </Position>
            <AltitudeMeters>25.6000003814697265625</AltitudeMeters>
            <DistanceMeters>NAN</DistanceMeters>
          </Trackpoint>
          <Trackpoint>
            <Time>2022-07-17T12:49:25.000Z</Time>
            <Position>
              <LatitudeDegrees>43.50589131005108356475830078125</LatitudeDegrees>
              <LongitudeDegrees>-5.3942762129008769989013671875</LongitudeDegrees>
            </Position>
            <AltitudeMeters>25.799999237060546875</AltitudeMeters>
            <DistanceMeters>NAN</DistanceMeters>
          </Trackpoint>
          <Trackpoint>
            <Time>2022-07-17T12:49:29.000Z</Time>
            <Position>
              <LatitudeDegrees>43.50589399226009845733642578125</LatitudeDegrees>
              <LongitudeDegrees>-5.39439766667783260345458984375</LongitudeDegrees>
            </Position>
            <AltitudeMeters>26</AltitudeMeters>
            <DistanceMeters>NAN</DistanceMeters>
          </Trackpoint>
          <Trackpoint>
            <Time>2022-07-17T12:49:30.000Z</Time>
            <Position>
              <LatitudeDegrees>43.5058907233178615570068359375</LatitudeDegrees>
              <LongitudeDegrees>-5.3944190405309200286865234375</LongitudeDegrees>
            </Position>
            <AltitudeMeters>26.200000762939453125</AltitudeMeters>
            <DistanceMeters>NAN</DistanceMeters>
          </Trackpoint>
          <Trackpoint>
            <Time>2022-07-17T12:49:31.000Z</Time>
            <Position>
              <LatitudeDegrees>43.505886532366275787353515625</LatitudeDegrees>
              <LongitudeDegrees>-5.3944508917629718780517578125</LongitudeDegrees>
            </Position>
            <AltitudeMeters>26.200000762939453125</AltitudeMeters>
            <DistanceMeters>NAN</DistanceMeters>
          </Trackpoint>
          <Trackpoint>
            <Time>2022-07-17T12:49:33.000Z</Time>
            <Position>
              <LatitudeDegrees>43.5058821737766265869140625</LatitudeDegrees>
              <LongitudeDegrees>-5.394503362476825714111328125</LongitudeDegrees>
            </Position>
            <AltitudeMeters>26.200000762939453125</AltitudeMeters>
            <DistanceMeters>NAN</DistanceMeters>
          </Trackpoint>
          <Trackpoint>
            <Time>2022-07-17T12:49:35.000Z</Time>
            <Position>
              <LatitudeDegrees>43.505873791873455047607421875</LatitudeDegrees>
              <LongitudeDegrees>-5.39454719983041286468505859375</LongitudeDegrees>
            </Position>
            <AltitudeMeters>26.3999996185302734375</AltitudeMeters>
            <DistanceMeters>NAN</DistanceMeters>
          </Trackpoint>
          <Trackpoint>
            <Time>2022-07-17T12:49:37.000Z</Time>
            <Position>
              <LatitudeDegrees>43.50586733780801296234130859375</LatitudeDegrees>
              <LongitudeDegrees>-5.394598580896854400634765625</LongitudeDegrees>
            </Position>
            <AltitudeMeters>26.3999996185302734375</AltitudeMeters>
            <DistanceMeters>NAN</DistanceMeters>
          </Trackpoint>
          <Trackpoint>
            <Time>2022-07-17T12:49:39.000Z</Time>
            <Position>
              <LatitudeDegrees>43.50586247630417346954345703125</LatitudeDegrees>
              <LongitudeDegrees>-5.39464593864977359771728515625</LongitudeDegrees>
            </Position>
            <AltitudeMeters>26.799999237060546875</AltitudeMeters>
            <DistanceMeters>NAN</DistanceMeters>
          </Trackpoint>
          <Trackpoint>
            <Time>2022-07-17T12:49:41.000Z</Time>
            <Position>
              <LatitudeDegrees>43.50585912354290485382080078125</LatitudeDegrees>
              <LongitudeDegrees>-5.39470260031521320343017578125</LongitudeDegrees>
            </Position>
            <AltitudeMeters>27</AltitudeMeters>
            <DistanceMeters>NAN</DistanceMeters>
          </Trackpoint>
          <Trackpoint>
            <Time>2022-07-17T12:49:43.000Z</Time>
            <Position>
              <LatitudeDegrees>43.50585375912487506866455078125</LatitudeDegrees>
              <LongitudeDegrees>-5.39475875906646251678466796875</LongitudeDegrees>
            </Position>
            <AltitudeMeters>27.200000762939453125</AltitudeMeters>
            <DistanceMeters>NAN</DistanceMeters>
          </Trackpoint>
          <Trackpoint>
            <Time>2022-07-17T12:49:44.000Z</Time>
            <Position>
              <LatitudeDegrees>43.50585325621068477630615234375</LatitudeDegrees>
              <LongitudeDegrees>-5.3947801329195499420166015625</LongitudeDegrees>
            </Position>
            <AltitudeMeters>27.200000762939453125</AltitudeMeters>
            <DistanceMeters>NAN</DistanceMeters>
          </Trackpoint>
          <Trackpoint>
            <Time>2022-07-17T12:49:50.000Z</Time>
            <Position>
              <LatitudeDegrees>43.50584504194557666778564453125</LatitudeDegrees>
              <LongitudeDegrees>-5.3949460946023464202880859375</LongitudeDegrees>
            </Position>
            <AltitudeMeters>27.6000003814697265625</AltitudeMeters>
            <DistanceMeters>NAN</DistanceMeters>
          </Trackpoint>
          <Trackpoint>
            <Time>2022-07-17T12:49:51.000Z</Time>
            <Position>
              <LatitudeDegrees>43.50584034807980060577392578125</LatitudeDegrees>
              <LongitudeDegrees>-5.39497199468314647674560546875</LongitudeDegrees>
            </Position>
            <AltitudeMeters>27.799999237060546875</AltitudeMeters>
            <DistanceMeters>NAN</DistanceMeters>
          </Trackpoint>
          <Trackpoint>
            <Time>2022-07-17T12:49:59.000Z</Time>
            <Position>
              <LatitudeDegrees>43.50582844577729701995849609375</LatitudeDegrees>
              <LongitudeDegrees>-5.39518673904240131378173828125</LongitudeDegrees>
            </Position>
            <AltitudeMeters>28.200000762939453125</AltitudeMeters>
            <DistanceMeters>NAN</DistanceMeters>
          </Trackpoint>
          <Trackpoint>
            <Time>2022-07-17T12:50:00.000Z</Time>
            <Position>
              <LatitudeDegrees>43.50582475773990154266357421875</LatitudeDegrees>
              <LongitudeDegrees>-5.39522294886410236358642578125</LongitudeDegrees>
            </Position>
            <AltitudeMeters>28.200000762939453125</AltitudeMeters>
            <DistanceMeters>NAN</DistanceMeters>
          </Trackpoint>
          <Trackpoint>
            <Time>2022-07-17T12:50:10.000Z</Time>
            <Position>
              <LatitudeDegrees>43.50579760037362575531005859375</LatitudeDegrees>
              <LongitudeDegrees>-5.3954892419278621673583984375</LongitudeDegrees>
            </Position>
            <AltitudeMeters>29</AltitudeMeters>
            <DistanceMeters>NAN</DistanceMeters>
          </Trackpoint>
          <Trackpoint>
            <Time>2022-07-17T12:50:11.000Z</Time>
            <Position>
              <LatitudeDegrees>43.50579609163105487823486328125</LatitudeDegrees>
              <LongitudeDegrees>-5.395517908036708831787109375</LongitudeDegrees>
            </Position>
            <AltitudeMeters>29</AltitudeMeters>
            <DistanceMeters>NAN</DistanceMeters>
          </Trackpoint>
          <Trackpoint>
            <Time>2022-07-17T12:50:14.000Z</Time>
            <Position>
              <LatitudeDegrees>43.5057842731475830078125</LatitudeDegrees>
              <LongitudeDegrees>-5.39561069570481777191162109375</LongitudeDegrees>
            </Position>
            <AltitudeMeters>29.3999996185302734375</AltitudeMeters>
            <DistanceMeters>NAN</DistanceMeters>
          </Trackpoint>
          <Trackpoint>
            <Time>2022-07-17T12:50:20.000Z</Time>
            <Position>
              <LatitudeDegrees>43.50577379576861858367919921875</LatitudeDegrees>
              <LongitudeDegrees>-5.39578051306307315826416015625</LongitudeDegrees>
            </Position>
            <AltitudeMeters>29.799999237060546875</AltitudeMeters>
            <DistanceMeters>NAN</DistanceMeters>
          </Trackpoint>
          <Trackpoint>
            <Time>2022-07-17T12:50:27.000Z</Time>
            <Position>
              <LatitudeDegrees>43.50576725788414478302001953125</LatitudeDegrees>
              <LongitudeDegrees>-5.39598301984369754791259765625</LongitudeDegrees>
            </Position>
            <AltitudeMeters>30.3999996185302734375</AltitudeMeters>
            <DistanceMeters>NAN</DistanceMeters>
          </Trackpoint>
          <Trackpoint>
            <Time>2022-07-17T12:50:30.000Z</Time>
            <Position>
              <LatitudeDegrees>43.50576356984674930572509765625</LatitudeDegrees>
              <LongitudeDegrees>-5.3960763104259967803955078125</LongitudeDegrees>
            </Position>
            <AltitudeMeters>30.799999237060546875</AltitudeMeters>
            <DistanceMeters>NAN</DistanceMeters>
          </Trackpoint>
          <Trackpoint>
            <Time>2022-07-17T12:50:38.000Z</Time>
            <Position>
              <LatitudeDegrees>43.5057723708450794219970703125</LatitudeDegrees>
              <LongitudeDegrees>-5.396325923502445220947265625</LongitudeDegrees>
            </Position>
            <AltitudeMeters>30.799999237060546875</AltitudeMeters>
            <DistanceMeters>NAN</DistanceMeters>
          </Trackpoint>
          <Trackpoint>
            <Time>2022-07-17T12:50:39.000Z</Time>
            <Position>
              <LatitudeDegrees>43.50577312521636486053466796875</LatitudeDegrees>
              <LongitudeDegrees>-5.3963552601635456085205078125</LongitudeDegrees>
            </Position>
            <AltitudeMeters>31</AltitudeMeters>
            <DistanceMeters>NAN</DistanceMeters>
          </Trackpoint>
          <Trackpoint>
            <Time>2022-07-17T12:50:45.000Z</Time>
            <Position>
              <LatitudeDegrees>43.50579743273556232452392578125</LatitudeDegrees>
              <LongitudeDegrees>-5.39652683772146701812744140625</LongitudeDegrees>
            </Position>
            <AltitudeMeters>31.6000003814697265625</AltitudeMeters>
            <DistanceMeters>NAN</DistanceMeters>
          </Trackpoint>
          <Trackpoint>
            <Time>2022-07-17T12:50:49.000Z</Time>
            <Position>
              <LatitudeDegrees>43.50581654347479343414306640625</LatitudeDegrees>
              <LongitudeDegrees>-5.39664334617555141448974609375</LongitudeDegrees>
            </Position>
            <AltitudeMeters>32</AltitudeMeters>
            <DistanceMeters>NAN</DistanceMeters>
          </Trackpoint>
          <Trackpoint>
            <Time>2022-07-17T12:50:58.000Z</Time>
            <Position>
              <LatitudeDegrees>43.50585778243839740753173828125</LatitudeDegrees>
              <LongitudeDegrees>-5.39690050296485424041748046875</LongitudeDegrees>
            </Position>
            <AltitudeMeters>32.59999847412109375</AltitudeMeters>
            <DistanceMeters>NAN</DistanceMeters>
          </Trackpoint>
          <Trackpoint>
            <Time>2022-07-17T12:50:59.000Z</Time>
            <Position>
              <LatitudeDegrees>43.5058618895709514617919921875</LatitudeDegrees>
              <LongitudeDegrees>-5.39692313410341739654541015625</LongitudeDegrees>
            </Position>
            <AltitudeMeters>32.59999847412109375</AltitudeMeters>
            <DistanceMeters>NAN</DistanceMeters>
          </Trackpoint>
          <Trackpoint>
            <Time>2022-07-17T12:51:05.000Z</Time>
            <Position>
              <LatitudeDegrees>43.5058907233178615570068359375</LatitudeDegrees>
              <LongitudeDegrees>-5.3971042670309543609619140625</LongitudeDegrees>
            </Position>
            <AltitudeMeters>33.200000762939453125</AltitudeMeters>
            <DistanceMeters>NAN</DistanceMeters>
          </Trackpoint>
          <Trackpoint>
            <Time>2022-07-17T12:51:08.000Z</Time>
            <Position>
              <LatitudeDegrees>43.5058987699449062347412109375</LatitudeDegrees>
              <LongitudeDegrees>-5.397203676402568817138671875</LongitudeDegrees>
            </Position>
            <AltitudeMeters>33.40000152587890625</AltitudeMeters>
            <DistanceMeters>NAN</DistanceMeters>
          </Trackpoint>
          <Trackpoint>
            <Time>2022-07-17T12:51:12.000Z</Time>
            <Position>
              <LatitudeDegrees>43.505914025008678436279296875</LatitudeDegrees>
              <LongitudeDegrees>-5.39733669720590114593505859375</LongitudeDegrees>
            </Position>
            <AltitudeMeters>33.40000152587890625</AltitudeMeters>
            <DistanceMeters>NAN</DistanceMeters>
          </Trackpoint>
          <Trackpoint>
            <Time>2022-07-17T12:51:15.000Z</Time>
            <Position>
              <LatitudeDegrees>43.5059255920350551605224609375</LatitudeDegrees>
              <LongitudeDegrees>-5.39743669331073760986328125</LongitudeDegrees>
            </Position>
            <AltitudeMeters>33.59999847412109375</AltitudeMeters>
            <DistanceMeters>NAN</DistanceMeters>
          </Trackpoint>
          <Trackpoint>
            <Time>2022-07-17T12:51:18.000Z</Time>
            <Position>
              <LatitudeDegrees>43.50593305192887783050537109375</LatitudeDegrees>
              <LongitudeDegrees>-5.397525541484355926513671875</LongitudeDegrees>
            </Position>
            <AltitudeMeters>33.799999237060546875</AltitudeMeters>
            <DistanceMeters>NAN</DistanceMeters>
          </Trackpoint>
          <Trackpoint>
            <Time>2022-07-17T12:51:21.000Z</Time>
            <Position>
              <LatitudeDegrees>43.5059490613639354705810546875</LatitudeDegrees>
              <LongitudeDegrees>-5.397626459598541259765625</LongitudeDegrees>
            </Position>
            <AltitudeMeters>34</AltitudeMeters>
            <DistanceMeters>NAN</DistanceMeters>
          </Trackpoint>
          <Trackpoint>
            <Time>2022-07-17T12:51:26.000Z</Time>
            <Position>
              <LatitudeDegrees>43.50594453513622283935546875</LatitudeDegrees>
              <LongitudeDegrees>-5.3977855481207370758056640625</LongitudeDegrees>
            </Position>
            <AltitudeMeters>34.200000762939453125</AltitudeMeters>
            <DistanceMeters>NAN</DistanceMeters>
          </Trackpoint>
          <Trackpoint>
            <Time>2022-07-17T12:51:27.000Z</Time>
            <Position>
              <LatitudeDegrees>43.50594545714557170867919921875</LatitudeDegrees>
              <LongitudeDegrees>-5.397820584475994110107421875</LongitudeDegrees>
            </Position>
            <AltitudeMeters>34.200000762939453125</AltitudeMeters>
            <DistanceMeters>NAN</DistanceMeters>
          </Trackpoint>
          <Trackpoint>
            <Time>2022-07-17T12:51:30.000Z</Time>
            <Position>
              <LatitudeDegrees>43.50593422539532184600830078125</LatitudeDegrees>
              <LongitudeDegrees>-5.3979763202369213104248046875</LongitudeDegrees>
            </Position>
            <AltitudeMeters>34.200000762939453125</AltitudeMeters>
            <DistanceMeters>NAN</DistanceMeters>
          </Trackpoint>
          <Trackpoint>
            <Time>2022-07-17T12:51:32.000Z</Time>
            <Position>
              <LatitudeDegrees>43.5059232451021671295166015625</LatitudeDegrees>
              <LongitudeDegrees>-5.3980971872806549072265625</LongitudeDegrees>
            </Position>
            <AltitudeMeters>34.200000762939453125</AltitudeMeters>
            <DistanceMeters>NAN</DistanceMeters>
          </Trackpoint>
          <Trackpoint>
            <Time>2022-07-17T12:51:34.000Z</Time>
            <Position>
              <LatitudeDegrees>43.5059054754674434661865234375</LatitudeDegrees>
              <LongitudeDegrees>-5.3982334770262241363525390625</LongitudeDegrees>
            </Position>
            <AltitudeMeters>34</AltitudeMeters>
            <DistanceMeters>NAN</DistanceMeters>
          </Trackpoint>
          <Trackpoint>
            <Time>2022-07-17T12:51:39.000Z</Time>
            <Position>
              <LatitudeDegrees>43.50586113519966602325439453125</LatitudeDegrees>
              <LongitudeDegrees>-5.39860622026026248931884765625</LongitudeDegrees>
            </Position>
            <AltitudeMeters>33.799999237060546875</AltitudeMeters>
            <DistanceMeters>NAN</DistanceMeters>
          </Trackpoint>
          <Trackpoint>
            <Time>2022-07-17T12:51:45.000Z</Time>
            <Position>
              <LatitudeDegrees>43.5057971812784671783447265625</LatitudeDegrees>
              <LongitudeDegrees>-5.3991367109119892120361328125</LongitudeDegrees>
            </Position>
            <AltitudeMeters>32.799999237060546875</AltitudeMeters>
            <DistanceMeters>NAN</DistanceMeters>
          </Trackpoint>
          <Trackpoint>
            <Time>2022-07-17T12:51:46.000Z</Time>
            <Position>
              <LatitudeDegrees>43.505785949528217315673828125</LatitudeDegrees>
              <LongitudeDegrees>-5.39922882802784442901611328125</LongitudeDegrees>
            </Position>
            <AltitudeMeters>32.59999847412109375</AltitudeMeters>
            <DistanceMeters>NAN</DistanceMeters>
          </Trackpoint>
          <Trackpoint>
            <Time>2022-07-17T12:51:52.000Z</Time>
            <Position>
              <LatitudeDegrees>43.50572233088314533233642578125</LatitudeDegrees>
              <LongitudeDegrees>-5.3997878171503543853759765625</LongitudeDegrees>
            </Position>
            <AltitudeMeters>31.200000762939453125</AltitudeMeters>
            <DistanceMeters>NAN</DistanceMeters>
          </Trackpoint>
          <Trackpoint>
            <Time>2022-07-17T12:51:53.000Z</Time>
            <Position>
              <LatitudeDegrees>43.50570959039032459259033203125</LatitudeDegrees>
              <LongitudeDegrees>-5.39988948963582515716552734375</LongitudeDegrees>
            </Position>
            <AltitudeMeters>31</AltitudeMeters>
            <DistanceMeters>NAN</DistanceMeters>
          </Trackpoint>
          <Trackpoint>
            <Time>2022-07-17T12:51:57.000Z</Time>
            <Position>
              <LatitudeDegrees>43.5056600533425807952880859375</LatitudeDegrees>
              <LongitudeDegrees>-5.400297604501247406005859375</LongitudeDegrees>
            </Position>
            <AltitudeMeters>30.200000762939453125</AltitudeMeters>
            <DistanceMeters>NAN</DistanceMeters>
          </Trackpoint>
          <Trackpoint>
            <Time>2022-07-17T12:52:01.000Z</Time>
            <Position>
              <LatitudeDegrees>43.505612276494503021240234375</LatitudeDegrees>
              <LongitudeDegrees>-5.40070488117635250091552734375</LongitudeDegrees>
            </Position>
            <AltitudeMeters>29.799999237060546875</AltitudeMeters>
            <DistanceMeters>NAN</DistanceMeters>
          </Trackpoint>
          <Trackpoint>
            <Time>2022-07-17T12:52:07.000Z</Time>
            <Position>
              <LatitudeDegrees>43.50554916076362133026123046875</LatitudeDegrees>
              <LongitudeDegrees>-5.4012523032724857330322265625</LongitudeDegrees>
            </Position>
            <AltitudeMeters>29.200000762939453125</AltitudeMeters>
            <DistanceMeters>NAN</DistanceMeters>
          </Trackpoint>
          <Trackpoint>
            <Time>2022-07-17T12:52:08.000Z</Time>
            <Position>
              <LatitudeDegrees>43.50553960539400577545166015625</LatitudeDegrees>
              <LongitudeDegrees>-5.401340983808040618896484375</LongitudeDegrees>
            </Position>
            <AltitudeMeters>29.200000762939453125</AltitudeMeters>
            <DistanceMeters>NAN</DistanceMeters>
          </Trackpoint>
          <Trackpoint>
            <Time>2022-07-17T12:52:14.000Z</Time>
            <Position>
              <LatitudeDegrees>43.50547607056796550750732421875</LatitudeDegrees>
              <LongitudeDegrees>-5.4018873162567615509033203125</LongitudeDegrees>
            </Position>
            <AltitudeMeters>28</AltitudeMeters>
            <DistanceMeters>NAN</DistanceMeters>
          </Trackpoint>
          <Trackpoint>
            <Time>2022-07-17T12:52:17.000Z</Time>
            <Position>
              <LatitudeDegrees>43.50544656626880168914794921875</LatitudeDegrees>
              <LongitudeDegrees>-5.4021360911428928375244140625</LongitudeDegrees>
            </Position>
            <AltitudeMeters>27.6000003814697265625</AltitudeMeters>
            <DistanceMeters>NAN</DistanceMeters>
          </Trackpoint>
          <Trackpoint>
            <Time>2022-07-17T12:52:20.000Z</Time>
            <Position>
              <LatitudeDegrees>43.50541186518967151641845703125</LatitudeDegrees>
              <LongitudeDegrees>-5.40242518298327922821044921875</LongitudeDegrees>
            </Position>
            <AltitudeMeters>27.3999996185302734375</AltitudeMeters>
            <DistanceMeters>NAN</DistanceMeters>
          </Trackpoint>
          <Trackpoint>
            <Time>2022-07-17T12:52:22.000Z</Time>
            <Position>
              <LatitudeDegrees>43.50539091043174266815185546875</LatitudeDegrees>
              <LongitudeDegrees>-5.402588881552219390869140625</LongitudeDegrees>
            </Position>
            <AltitudeMeters>27.3999996185302734375</AltitudeMeters>
            <DistanceMeters>NAN</DistanceMeters>
          </Trackpoint>
          <Trackpoint>
            <Time>2022-07-17T12:52:23.000Z</Time>
            <Position>
              <LatitudeDegrees>43.5053757391870021820068359375</LatitudeDegrees>
              <LongitudeDegrees>-5.40270245634019374847412109375</LongitudeDegrees>
            </Position>
            <AltitudeMeters>27</AltitudeMeters>
            <DistanceMeters>NAN</DistanceMeters>
          </Trackpoint>
          <Trackpoint>
            <Time>2022-07-17T12:52:25.000Z</Time>
            <Position>
              <LatitudeDegrees>43.505346737802028656005859375</LatitudeDegrees>
              <LongitudeDegrees>-5.40290345437824726104736328125</LongitudeDegrees>
            </Position>
            <AltitudeMeters>26.6000003814697265625</AltitudeMeters>
            <DistanceMeters>NAN</DistanceMeters>
          </Trackpoint>
          <Trackpoint>
            <Time>2022-07-17T12:52:27.000Z</Time>
            <Position>
              <LatitudeDegrees>43.5053224302828311920166015625</LatitudeDegrees>
              <LongitudeDegrees>-5.40308802388608455657958984375</LongitudeDegrees>
            </Position>
            <AltitudeMeters>26.200000762939453125</AltitudeMeters>
            <DistanceMeters>NAN</DistanceMeters>
          </Trackpoint>
          <Trackpoint>
            <Time>2022-07-17T12:52:28.000Z</Time>
            <Position>
              <LatitudeDegrees>43.50530709140002727508544921875</LatitudeDegrees>
              <LongitudeDegrees>-5.4031932167708873748779296875</LongitudeDegrees>
            </Position>
            <AltitudeMeters>26.200000762939453125</AltitudeMeters>
            <DistanceMeters>NAN</DistanceMeters>
          </Trackpoint>
          <Trackpoint>
            <Time>2022-07-17T12:52:32.000Z</Time>
            <Position>
              <LatitudeDegrees>43.50525093264877796173095703125</LatitudeDegrees>
              <LongitudeDegrees>-5.40362312458455562591552734375</LongitudeDegrees>
            </Position>
            <AltitudeMeters>26</AltitudeMeters>
            <DistanceMeters>NAN</DistanceMeters>
          </Trackpoint>
          <Trackpoint>
            <Time>2022-07-17T12:52:34.000Z</Time>
            <Position>
              <LatitudeDegrees>43.50522444583475589752197265625</LatitudeDegrees>
              <LongitudeDegrees>-5.4038102924823760986328125</LongitudeDegrees>
            </Position>
            <AltitudeMeters>25.799999237060546875</AltitudeMeters>
            <DistanceMeters>NAN</DistanceMeters>
          </Trackpoint>
          <Trackpoint>
            <Time>2022-07-17T12:52:39.000Z</Time>
            <Position>
              <LatitudeDegrees>43.505154959857463836669921875</LatitudeDegrees>
              <LongitudeDegrees>-5.4043395258486270904541015625</LongitudeDegrees>
            </Position>
            <AltitudeMeters>24.799999237060546875</AltitudeMeters>
            <DistanceMeters>NAN</DistanceMeters>
          </Trackpoint>
          <Trackpoint>
            <Time>2022-07-17T12:52:43.000Z</Time>
            <Position>
              <LatitudeDegrees>43.50510559044778347015380859375</LatitudeDegrees>
              <LongitudeDegrees>-5.40471863932907581329345703125</LongitudeDegrees>
            </Position>
            <AltitudeMeters>24</AltitudeMeters>
            <DistanceMeters>NAN</DistanceMeters>
          </Trackpoint>
          <Trackpoint>
            <Time>2022-07-17T12:52:46.000Z</Time>
            <Position>
              <LatitudeDegrees>43.5050679557025432586669921875</LatitudeDegrees>
              <LongitudeDegrees>-5.4050033725798130035400390625</LongitudeDegrees>
            </Position>
            <AltitudeMeters>23.6000003814697265625</AltitudeMeters>
            <DistanceMeters>NAN</DistanceMeters>
          </Trackpoint>
          <Trackpoint>
            <Time>2022-07-17T12:52:49.000Z</Time>
            <Position>
              <LatitudeDegrees>43.505035601556301116943359375</LatitudeDegrees>
              <LongitudeDegrees>-5.4052923806011676788330078125</LongitudeDegrees>
            </Position>
            <AltitudeMeters>23.200000762939453125</AltitudeMeters>
            <DistanceMeters>NAN</DistanceMeters>
          </Trackpoint>
          <Trackpoint>
            <Time>2022-07-17T12:52:53.000Z</Time>
            <Position>
              <LatitudeDegrees>43.50499763153493404388427734375</LatitudeDegrees>
              <LongitudeDegrees>-5.40558281354606151580810546875</LongitudeDegrees>
            </Position>
            <AltitudeMeters>23.3999996185302734375</AltitudeMeters>
            <DistanceMeters>NAN</DistanceMeters>
          </Trackpoint>
          <Trackpoint>
            <Time>2022-07-17T12:52:54.000Z</Time>
            <Position>
              <LatitudeDegrees>43.5049903392791748046875</LatitudeDegrees>
              <LongitudeDegrees>-5.4056316800415515899658203125</LongitudeDegrees>
            </Position>
            <AltitudeMeters>23.6000003814697265625</AltitudeMeters>
            <DistanceMeters>NAN</DistanceMeters>
          </Trackpoint>
          <Trackpoint>
            <Time>2022-07-17T12:52:59.000Z</Time>
            <Position>
              <LatitudeDegrees>43.50496024824678897857666015625</LatitudeDegrees>
              <LongitudeDegrees>-5.40587970055639743804931640625</LongitudeDegrees>
            </Position>
            <AltitudeMeters>24.6000003814697265625</AltitudeMeters>
            <DistanceMeters>NAN</DistanceMeters>
          </Trackpoint>
          <Trackpoint>
            <Time>2022-07-17T12:53:02.000Z</Time>
            <Position>
              <LatitudeDegrees>43.50494767539203166961669921875</LatitudeDegrees>
              <LongitudeDegrees>-5.4059833846986293792724609375</LongitudeDegrees>
            </Position>
            <AltitudeMeters>25.3999996185302734375</AltitudeMeters>
            <DistanceMeters>NAN</DistanceMeters>
          </Trackpoint>
          <Trackpoint>
            <Time>2022-07-17T12:53:04.000Z</Time>
            <Position>
              <LatitudeDegrees>43.5049398802220821380615234375</LatitudeDegrees>
              <LongitudeDegrees>-5.406050272285938262939453125</LongitudeDegrees>
            </Position>
            <AltitudeMeters>25.6000003814697265625</AltitudeMeters>
            <DistanceMeters>NAN</DistanceMeters>
          </Trackpoint>
          <Trackpoint>
            <Time>2022-07-17T12:53:05.000Z</Time>
            <Position>
              <LatitudeDegrees>43.50493795238435268402099609375</LatitudeDegrees>
              <LongitudeDegrees>-5.40607600472867488861083984375</LongitudeDegrees>
            </Position>
            <AltitudeMeters>25.799999237060546875</AltitudeMeters>
            <DistanceMeters>NAN</DistanceMeters>
          </Trackpoint>
          <Trackpoint>
            <Time>2022-07-17T12:53:13.000Z</Time>
            <Position>
              <LatitudeDegrees>43.5049060173332691192626953125</LatitudeDegrees>
              <LongitudeDegrees>-5.40630550123751163482666015625</LongitudeDegrees>
            </Position>
            <AltitudeMeters>26.799999237060546875</AltitudeMeters>
            <DistanceMeters>NAN</DistanceMeters>
          </Trackpoint>
          <Trackpoint>
            <Time>2022-07-17T12:53:15.000Z</Time>
            <Position>
              <LatitudeDegrees>43.504901826381683349609375</LatitudeDegrees>
              <LongitudeDegrees>-5.40635512210428714752197265625</LongitudeDegrees>
            </Position>
            <AltitudeMeters>26.799999237060546875</AltitudeMeters>
            <DistanceMeters>NAN</DistanceMeters>
          </Trackpoint>
          <Trackpoint>
            <Time>2022-07-17T12:53:20.000Z</Time>
            <Position>
              <LatitudeDegrees>43.50489520467817783355712890625</LatitudeDegrees>
              <LongitudeDegrees>-5.4064832814037799835205078125</LongitudeDegrees>
            </Position>
            <AltitudeMeters>27.6000003814697265625</AltitudeMeters>
            <DistanceMeters>NAN</DistanceMeters>
          </Trackpoint>
          <Trackpoint>
            <Time>2022-07-17T12:53:22.000Z</Time>
            <Position>
              <LatitudeDegrees>43.50489310920238494873046875</LatitudeDegrees>
              <LongitudeDegrees>-5.40653407573699951171875</LongitudeDegrees>
            </Position>
            <AltitudeMeters>27.799999237060546875</AltitudeMeters>
            <DistanceMeters>NAN</DistanceMeters>
          </Trackpoint>
          <Trackpoint>
            <Time>2022-07-17T12:53:24.000Z</Time>
            <Position>
              <LatitudeDegrees>43.50488162599503993988037109375</LatitudeDegrees>
              <LongitudeDegrees>-5.406584031879901885986328125</LongitudeDegrees>
            </Position>
            <AltitudeMeters>28.200000762939453125</AltitudeMeters>
            <DistanceMeters>NAN</DistanceMeters>
          </Trackpoint>
          <Trackpoint>
            <Time>2022-07-17T12:53:31.000Z</Time>
            <Position>
              <LatitudeDegrees>43.5048486851155757904052734375</LatitudeDegrees>
              <LongitudeDegrees>-5.40676675736904144287109375</LongitudeDegrees>
            </Position>
            <AltitudeMeters>28.799999237060546875</AltitudeMeters>
            <DistanceMeters>NAN</DistanceMeters>
          </Trackpoint>
          <Trackpoint>
            <Time>2022-07-17T12:53:32.000Z</Time>
            <Position>
              <LatitudeDegrees>43.504845164716243743896484375</LatitudeDegrees>
              <LongitudeDegrees>-5.40679248981177806854248046875</LongitudeDegrees>
            </Position>
            <AltitudeMeters>29</AltitudeMeters>
            <DistanceMeters>NAN</DistanceMeters>
          </Trackpoint>
          <Trackpoint>
            <Time>2022-07-17T12:53:40.000Z</Time>
            <Position>
              <LatitudeDegrees>43.50480887107551097869873046875</LatitudeDegrees>
              <LongitudeDegrees>-5.4070208966732025146484375</LongitudeDegrees>
            </Position>
            <AltitudeMeters>29.799999237060546875</AltitudeMeters>
            <DistanceMeters>NAN</DistanceMeters>
          </Trackpoint>
          <Trackpoint>
            <Time>2022-07-17T12:53:42.000Z</Time>
            <Position>
              <LatitudeDegrees>43.5048012435436248779296875</LatitudeDegrees>
              <LongitudeDegrees>-5.40707211010158061981201171875</LongitudeDegrees>
            </Position>
            <AltitudeMeters>30</AltitudeMeters>
            <DistanceMeters>NAN</DistanceMeters>
          </Trackpoint>
          <Trackpoint>
            <Time>2022-07-17T12:53:45.000Z</Time>
            <Position>
              <LatitudeDegrees>43.504793532192707061767578125</LatitudeDegrees>
              <LongitudeDegrees>-5.40714587084949016571044921875</LongitudeDegrees>
            </Position>
            <AltitudeMeters>30.200000762939453125</AltitudeMeters>
            <DistanceMeters>NAN</DistanceMeters>
          </Trackpoint>
          <Trackpoint>
            <Time>2022-07-17T12:53:47.000Z</Time>
            <Position>
              <LatitudeDegrees>43.50478758104145526885986328125</LatitudeDegrees>
              <LongitudeDegrees>-5.40721711702644824981689453125</LongitudeDegrees>
            </Position>
            <AltitudeMeters>30.3999996185302734375</AltitudeMeters>
            <DistanceMeters>NAN</DistanceMeters>
          </Trackpoint>
          <Trackpoint>
            <Time>2022-07-17T12:53:49.000Z</Time>
            <Position>
              <LatitudeDegrees>43.50478406064212322235107421875</LatitudeDegrees>
              <LongitudeDegrees>-5.407271347939968109130859375</LongitudeDegrees>
            </Position>
            <AltitudeMeters>30.6000003814697265625</AltitudeMeters>
            <DistanceMeters>NAN</DistanceMeters>
          </Trackpoint>
          <Trackpoint>
            <Time>2022-07-17T12:53:52.000Z</Time>
            <Position>
              <LatitudeDegrees>43.50477785803377628326416015625</LatitudeDegrees>
              <LongitudeDegrees>-5.40735642425715923309326171875</LongitudeDegrees>
            </Position>
            <AltitudeMeters>30.799999237060546875</AltitudeMeters>
            <DistanceMeters>NAN</DistanceMeters>
          </Trackpoint>
          <Trackpoint>
            <Time>2022-07-17T12:53:53.000Z</Time>
            <Position>
              <LatitudeDegrees>43.5047749243676662445068359375</LatitudeDegrees>
              <LongitudeDegrees>-5.40738240815699100494384765625</LongitudeDegrees>
            </Position>
            <AltitudeMeters>30.799999237060546875</AltitudeMeters>
            <DistanceMeters>NAN</DistanceMeters>
          </Trackpoint>
          <Trackpoint>
            <Time>2022-07-17T12:53:54.000Z</Time>
            <Position>
              <LatitudeDegrees>43.50477266125380992889404296875</LatitudeDegrees>
              <LongitudeDegrees>-5.4074079729616641998291015625</LongitudeDegrees>
            </Position>
            <AltitudeMeters>31</AltitudeMeters>
            <DistanceMeters>NAN</DistanceMeters>
          </Trackpoint>
          <Trackpoint>
            <Time>2022-07-17T12:54:04.000Z</Time>
            <Position>
              <LatitudeDegrees>43.5047413967549800872802734375</LatitudeDegrees>
              <LongitudeDegrees>-5.40766722522675991058349609375</LongitudeDegrees>
            </Position>
            <AltitudeMeters>31.799999237060546875</AltitudeMeters>
            <DistanceMeters>NAN</DistanceMeters>
          </Trackpoint>
          <Trackpoint>
            <Time>2022-07-17T12:54:08.000Z</Time>
            <Position>
              <LatitudeDegrees>43.50472681224346160888671875</LatitudeDegrees>
              <LongitudeDegrees>-5.40776965208351612091064453125</LongitudeDegrees>
            </Position>
            <AltitudeMeters>32</AltitudeMeters>
            <DistanceMeters>NAN</DistanceMeters>
          </Trackpoint>
          <Trackpoint>
            <Time>2022-07-17T12:54:14.000Z</Time>
            <Position>
              <LatitudeDegrees>43.50470879115164279937744140625</LatitudeDegrees>
              <LongitudeDegrees>-5.407931506633758544921875</LongitudeDegrees>
            </Position>
            <AltitudeMeters>32.59999847412109375</AltitudeMeters>
            <DistanceMeters>NAN</DistanceMeters>
          </Trackpoint>
          <Trackpoint>
            <Time>2022-07-17T12:54:22.000Z</Time>
            <Position>
              <LatitudeDegrees>43.50467107258737087249755859375</LatitudeDegrees>
              <LongitudeDegrees>-5.4082062654197216033935546875</LongitudeDegrees>
            </Position>
            <AltitudeMeters>32.799999237060546875</AltitudeMeters>
            <DistanceMeters>NAN</DistanceMeters>
          </Trackpoint>
          <Trackpoint>
            <Time>2022-07-17T12:54:29.000Z</Time>
            <Position>
              <LatitudeDegrees>43.504639305174350738525390625</LatitudeDegrees>
              <LongitudeDegrees>-5.408514551818370819091796875</LongitudeDegrees>
            </Position>
            <AltitudeMeters>32.799999237060546875</AltitudeMeters>
            <DistanceMeters>NAN</DistanceMeters>
          </Trackpoint>
          <Trackpoint>
            <Time>2022-07-17T12:54:34.000Z</Time>
            <Position>
              <LatitudeDegrees>43.504606448113918304443359375</LatitudeDegrees>
              <LongitudeDegrees>-5.40873826481401920318603515625</LongitudeDegrees>
            </Position>
            <AltitudeMeters>33</AltitudeMeters>
            <DistanceMeters>NAN</DistanceMeters>
          </Trackpoint>
          <Trackpoint>
            <Time>2022-07-17T12:54:37.000Z</Time>
            <Position>
              <LatitudeDegrees>43.5045838169753551483154296875</LatitudeDegrees>
              <LongitudeDegrees>-5.40888109244406223297119140625</LongitudeDegrees>
            </Position>
            <AltitudeMeters>33</AltitudeMeters>
            <DistanceMeters>NAN</DistanceMeters>
          </Trackpoint>
          <Trackpoint>
            <Time>2022-07-17T12:54:42.000Z</Time>
            <Position>
              <LatitudeDegrees>43.50454785861074924468994140625</LatitudeDegrees>
              <LongitudeDegrees>-5.409133136272430419921875</LongitudeDegrees>
            </Position>
            <AltitudeMeters>32.59999847412109375</AltitudeMeters>
            <DistanceMeters>NAN</DistanceMeters>
          </Trackpoint>
          <Trackpoint>
            <Time>2022-07-17T12:54:48.000Z</Time>
            <Position>
              <LatitudeDegrees>43.504510559141635894775390625</LatitudeDegrees>
              <LongitudeDegrees>-5.4094833321869373321533203125</LongitudeDegrees>
            </Position>
            <AltitudeMeters>32.200000762939453125</AltitudeMeters>
            <DistanceMeters>NAN</DistanceMeters>
          </Trackpoint>
          <Trackpoint>
            <Time>2022-07-17T12:54:50.000Z</Time>
            <Position>
              <LatitudeDegrees>43.5044922865927219390869140625</LatitudeDegrees>
              <LongitudeDegrees>-5.40962138213217258453369140625</LongitudeDegrees>
            </Position>
            <AltitudeMeters>32.200000762939453125</AltitudeMeters>
            <DistanceMeters>NAN</DistanceMeters>
          </Trackpoint>
          <Trackpoint>
            <Time>2022-07-17T12:54:57.000Z</Time>
            <Position>
              <LatitudeDegrees>43.50441928021609783172607421875</LatitudeDegrees>
              <LongitudeDegrees>-5.41016737930476665496826171875</LongitudeDegrees>
            </Position>
            <AltitudeMeters>31.6000003814697265625</AltitudeMeters>
            <DistanceMeters>NAN</DistanceMeters>
          </Trackpoint>
          <Trackpoint>
            <Time>2022-07-17T12:54:59.000Z</Time>
            <Position>
              <LatitudeDegrees>43.5043933801352977752685546875</LatitudeDegrees>
              <LongitudeDegrees>-5.41030802763998508453369140625</LongitudeDegrees>
            </Position>
            <AltitudeMeters>31.3999996185302734375</AltitudeMeters>
            <DistanceMeters>NAN</DistanceMeters>
          </Trackpoint>
          <Trackpoint>
            <Time>2022-07-17T12:55:01.000Z</Time>
            <Position>
              <LatitudeDegrees>43.50435256026685237884521484375</LatitudeDegrees>
              <LongitudeDegrees>-5.4104807786643505096435546875</LongitudeDegrees>
            </Position>
            <AltitudeMeters>31</AltitudeMeters>
            <DistanceMeters>NAN</DistanceMeters>
          </Trackpoint>
          <Trackpoint>
            <Time>2022-07-17T12:55:03.000Z</Time>
            <Position>
              <LatitudeDegrees>43.50431433878839015960693359375</LatitudeDegrees>
              <LongitudeDegrees>-5.41062436066567897796630859375</LongitudeDegrees>
            </Position>
            <AltitudeMeters>30.6000003814697265625</AltitudeMeters>
            <DistanceMeters>NAN</DistanceMeters>
          </Trackpoint>
          <Trackpoint>
            <Time>2022-07-17T12:55:10.000Z</Time>
            <Position>
              <LatitudeDegrees>43.5041070543229579925537109375</LatitudeDegrees>
              <LongitudeDegrees>-5.41120254434645175933837890625</LongitudeDegrees>
            </Position>
            <AltitudeMeters>30</AltitudeMeters>
            <DistanceMeters>NAN</DistanceMeters>
          </Trackpoint>
          <Trackpoint>
            <Time>2022-07-17T12:55:18.000Z</Time>
            <Position>
              <LatitudeDegrees>43.5038659907877445220947265625</LatitudeDegrees>
              <LongitudeDegrees>-5.411864630877971649169921875</LongitudeDegrees>
            </Position>
            <AltitudeMeters>29</AltitudeMeters>
            <DistanceMeters>NAN</DistanceMeters>
          </Trackpoint>
          <Trackpoint>
            <Time>2022-07-17T12:55:19.000Z</Time>
            <Position>
              <LatitudeDegrees>43.50383774377405643463134765625</LatitudeDegrees>
              <LongitudeDegrees>-5.41194451041519641876220703125</LongitudeDegrees>
            </Position>
            <AltitudeMeters>28.799999237060546875</AltitudeMeters>
            <DistanceMeters>NAN</DistanceMeters>
          </Trackpoint>
          <Trackpoint>
            <Time>2022-07-17T12:55:23.000Z</Time>
            <Position>
              <LatitudeDegrees>43.5037258453667163848876953125</LatitudeDegrees>
              <LongitudeDegrees>-5.41225212626159191131591796875</LongitudeDegrees>
            </Position>
            <AltitudeMeters>28.6000003814697265625</AltitudeMeters>
            <DistanceMeters>NAN</DistanceMeters>
          </Trackpoint>
          <Trackpoint>
            <Time>2022-07-17T12:55:27.000Z</Time>
            <Position>
              <LatitudeDegrees>43.50360740907490253448486328125</LatitudeDegrees>
              <LongitudeDegrees>-5.41257265023887157440185546875</LongitudeDegrees>
            </Position>
            <AltitudeMeters>28.3999996185302734375</AltitudeMeters>
            <DistanceMeters>NAN</DistanceMeters>
          </Trackpoint>
          <Trackpoint>
            <Time>2022-07-17T12:55:30.000Z</Time>
            <Position>
              <LatitudeDegrees>43.50351336412131786346435546875</LatitudeDegrees>
              <LongitudeDegrees>-5.41280466131865978240966796875</LongitudeDegrees>
            </Position>
            <AltitudeMeters>28</AltitudeMeters>
            <DistanceMeters>NAN</DistanceMeters>
          </Trackpoint>
          <Trackpoint>
            <Time>2022-07-17T12:55:31.000Z</Time>
            <Position>
              <LatitudeDegrees>43.50347782485187053680419921875</LatitudeDegrees>
              <LongitudeDegrees>-5.41287708096206188201904296875</LongitudeDegrees>
            </Position>
            <AltitudeMeters>27.799999237060546875</AltitudeMeters>
            <DistanceMeters>NAN</DistanceMeters>
          </Trackpoint>
          <Trackpoint>
            <Time>2022-07-17T12:55:36.000Z</Time>
            <Position>
              <LatitudeDegrees>43.5032624937593936920166015625</LatitudeDegrees>
              <LongitudeDegrees>-5.4132240079343318939208984375</LongitudeDegrees>
            </Position>
            <AltitudeMeters>27.3999996185302734375</AltitudeMeters>
            <DistanceMeters>NAN</DistanceMeters>
          </Trackpoint>
          <Trackpoint>
            <Time>2022-07-17T12:55:45.000Z</Time>
            <Position>
              <LatitudeDegrees>43.50286225788295269012451171875</LatitudeDegrees>
              <LongitudeDegrees>-5.41381292045116424560546875</LongitudeDegrees>
            </Position>
            <AltitudeMeters>26.799999237060546875</AltitudeMeters>
            <DistanceMeters>NAN</DistanceMeters>
          </Trackpoint>
          <Trackpoint>
            <Time>2022-07-17T12:55:47.000Z</Time>
            <Position>
              <LatitudeDegrees>43.5027897544205188751220703125</LatitudeDegrees>
              <LongitudeDegrees>-5.41392263956367969512939453125</LongitudeDegrees>
            </Position>
            <AltitudeMeters>26.3999996185302734375</AltitudeMeters>
            <DistanceMeters>NAN</DistanceMeters>
          </Trackpoint>
          <Trackpoint>
            <Time>2022-07-17T12:55:51.000Z</Time>
            <Position>
              <LatitudeDegrees>43.50262873806059360504150390625</LatitudeDegrees>
              <LongitudeDegrees>-5.414167977869510650634765625</LongitudeDegrees>
            </Position>
            <AltitudeMeters>26</AltitudeMeters>
            <DistanceMeters>NAN</DistanceMeters>
          </Trackpoint>
          <Trackpoint>
            <Time>2022-07-17T12:55:53.000Z</Time>
            <Position>
              <LatitudeDegrees>43.50253880023956298828125</LatitudeDegrees>
              <LongitudeDegrees>-5.41430586017668247222900390625</LongitudeDegrees>
            </Position>
            <AltitudeMeters>25.6000003814697265625</AltitudeMeters>
            <DistanceMeters>NAN</DistanceMeters>
          </Trackpoint>
          <Trackpoint>
            <Time>2022-07-17T12:55:55.000Z</Time>
            <Position>
              <LatitudeDegrees>43.50245506502687931060791015625</LatitudeDegrees>
              <LongitudeDegrees>-5.4144273139536380767822265625</LongitudeDegrees>
            </Position>
            <AltitudeMeters>25.3999996185302734375</AltitudeMeters>
            <DistanceMeters>NAN</DistanceMeters>
          </Trackpoint>
          <Trackpoint>
            <Time>2022-07-17T12:56:04.000Z</Time>
            <Position>
              <LatitudeDegrees>43.50206966511905193328857421875</LatitudeDegrees>
              <LongitudeDegrees>-5.4149763286113739013671875</LongitudeDegrees>
            </Position>
            <AltitudeMeters>24.6000003814697265625</AltitudeMeters>
            <DistanceMeters>NAN</DistanceMeters>
          </Trackpoint>
          <Trackpoint>
            <Time>2022-07-17T12:56:05.000Z</Time>
            <Position>
              <LatitudeDegrees>43.502028174698352813720703125</LatitudeDegrees>
              <LongitudeDegrees>-5.4150388576090335845947265625</LongitudeDegrees>
            </Position>
            <AltitudeMeters>24.6000003814697265625</AltitudeMeters>
            <DistanceMeters>NAN</DistanceMeters>
          </Trackpoint>
          <Trackpoint>
            <Time>2022-07-17T12:56:13.000Z</Time>
            <Position>
              <LatitudeDegrees>43.50169549696147441864013671875</LatitudeDegrees>
              <LongitudeDegrees>-5.41555099189281463623046875</LongitudeDegrees>
            </Position>
            <AltitudeMeters>24</AltitudeMeters>
            <DistanceMeters>NAN</DistanceMeters>
          </Trackpoint>
          <Trackpoint>
            <Time>2022-07-17T12:56:15.000Z</Time>
            <Position>
              <LatitudeDegrees>43.501621149480342864990234375</LatitudeDegrees>
              <LongitudeDegrees>-5.41568468324840068817138671875</LongitudeDegrees>
            </Position>
            <AltitudeMeters>23.6000003814697265625</AltitudeMeters>
            <DistanceMeters>NAN</DistanceMeters>
          </Trackpoint>
          <Trackpoint>
            <Time>2022-07-17T12:56:18.000Z</Time>
            <Position>
              <LatitudeDegrees>43.50150740705430507659912109375</LatitudeDegrees>
              <LongitudeDegrees>-5.4158968292176723480224609375</LongitudeDegrees>
            </Position>
            <AltitudeMeters>23.200000762939453125</AltitudeMeters>
            <DistanceMeters>NAN</DistanceMeters>
          </Trackpoint>
          <Trackpoint>
            <Time>2022-07-17T12:56:20.000Z</Time>
            <Position>
              <LatitudeDegrees>43.50143012590706348419189453125</LatitudeDegrees>
              <LongitudeDegrees>-5.41604124940931797027587890625</LongitudeDegrees>
            </Position>
            <AltitudeMeters>22.799999237060546875</AltitudeMeters>
            <DistanceMeters>NAN</DistanceMeters>
          </Trackpoint>
          <Trackpoint>
            <Time>2022-07-17T12:56:21.000Z</Time>
            <Position>
              <LatitudeDegrees>43.50139173679053783416748046875</LatitudeDegrees>
              <LongitudeDegrees>-5.41611584834754467010498046875</LongitudeDegrees>
            </Position>
            <AltitudeMeters>22.6000003814697265625</AltitudeMeters>
            <DistanceMeters>NAN</DistanceMeters>
          </Trackpoint>
          <Trackpoint>
            <Time>2022-07-17T12:56:22.000Z</Time>
            <Position>
              <LatitudeDegrees>43.50135284475982189178466796875</LatitudeDegrees>
              <LongitudeDegrees>-5.41618709452450275421142578125</LongitudeDegrees>
            </Position>
            <AltitudeMeters>22.6000003814697265625</AltitudeMeters>
            <DistanceMeters>NAN</DistanceMeters>
          </Trackpoint>
          <Trackpoint>
            <Time>2022-07-17T12:56:24.000Z</Time>
            <Position>
              <LatitudeDegrees>43.50127455778419971466064453125</LatitudeDegrees>
              <LongitudeDegrees>-5.4163256473839282989501953125</LongitudeDegrees>
            </Position>
            <AltitudeMeters>22.3999996185302734375</AltitudeMeters>
            <DistanceMeters>NAN</DistanceMeters>
          </Trackpoint>
          <Trackpoint>
            <Time>2022-07-17T12:56:32.000Z</Time>
            <Position>
              <LatitudeDegrees>43.50097364746034145355224609375</LatitudeDegrees>
              <LongitudeDegrees>-5.41684658266603946685791015625</LongitudeDegrees>
            </Position>
            <AltitudeMeters>21.6000003814697265625</AltitudeMeters>
            <DistanceMeters>NAN</DistanceMeters>
          </Trackpoint>
          <Trackpoint>
            <Time>2022-07-17T12:56:36.000Z</Time>
            <Position>
              <LatitudeDegrees>43.50082914344966411590576171875</LatitudeDegrees>
              <LongitudeDegrees>-5.41711279191076755523681640625</LongitudeDegrees>
            </Position>
            <AltitudeMeters>21.200000762939453125</AltitudeMeters>
            <DistanceMeters>NAN</DistanceMeters>
          </Trackpoint>
          <Trackpoint>
            <Time>2022-07-17T12:56:41.000Z</Time>
            <Position>
              <LatitudeDegrees>43.50063082762062549591064453125</LatitudeDegrees>
              <LongitudeDegrees>-5.41744052432477474212646484375</LongitudeDegrees>
            </Position>
            <AltitudeMeters>21.200000762939453125</AltitudeMeters>
            <DistanceMeters>NAN</DistanceMeters>
          </Trackpoint>
          <Trackpoint>
            <Time>2022-07-17T12:56:44.000Z</Time>
            <Position>
              <LatitudeDegrees>43.50048598833382129669189453125</LatitudeDegrees>
              <LongitudeDegrees>-5.41762744076550006866455078125</LongitudeDegrees>
            </Position>
            <AltitudeMeters>20.6000003814697265625</AltitudeMeters>
            <DistanceMeters>NAN</DistanceMeters>
          </Trackpoint>
          <Trackpoint>
            <Time>2022-07-17T12:56:45.000Z</Time>
            <Position>
              <LatitudeDegrees>43.500433601438999176025390625</LatitudeDegrees>
              <LongitudeDegrees>-5.41768812574446201324462890625</LongitudeDegrees>
            </Position>
            <AltitudeMeters>20.3999996185302734375</AltitudeMeters>
            <DistanceMeters>NAN</DistanceMeters>
          </Trackpoint>
          <Trackpoint>
            <Time>2022-07-17T12:56:52.000Z</Time>
            <Position>
              <LatitudeDegrees>43.5000725090503692626953125</LatitudeDegrees>
              <LongitudeDegrees>-5.4181153513491153717041015625</LongitudeDegrees>
            </Position>
            <AltitudeMeters>20</AltitudeMeters>
            <DistanceMeters>NAN</DistanceMeters>
          </Trackpoint>
          <Trackpoint>
            <Time>2022-07-17T12:56:55.000Z</Time>
            <Position>
              <LatitudeDegrees>43.49992456845939159393310546875</LatitudeDegrees>
              <LongitudeDegrees>-5.418291203677654266357421875</LongitudeDegrees>
            </Position>
            <AltitudeMeters>19.799999237060546875</AltitudeMeters>
            <DistanceMeters>NAN</DistanceMeters>
          </Trackpoint>
          <Trackpoint>
            <Time>2022-07-17T12:56:56.000Z</Time>
            <Position>
              <LatitudeDegrees>43.49987327121198177337646484375</LatitudeDegrees>
              <LongitudeDegrees>-5.41834895499050617218017578125</LongitudeDegrees>
            </Position>
            <AltitudeMeters>19.799999237060546875</AltitudeMeters>
            <DistanceMeters>NAN</DistanceMeters>
          </Trackpoint>
          <Trackpoint>
            <Time>2022-07-17T12:56:58.000Z</Time>
            <Position>
              <LatitudeDegrees>43.499778807163238525390625</LatitudeDegrees>
              <LongitudeDegrees>-5.4184657149016857147216796875</LongitudeDegrees>
            </Position>
            <AltitudeMeters>19.799999237060546875</AltitudeMeters>
            <DistanceMeters>NAN</DistanceMeters>
          </Trackpoint>
          <Trackpoint>
            <Time>2022-07-17T12:57:00.000Z</Time>
            <Position>
              <LatitudeDegrees>43.499685265123844146728515625</LatitudeDegrees>
              <LongitudeDegrees>-5.41857761330902576446533203125</LongitudeDegrees>
            </Position>
            <AltitudeMeters>19.6000003814697265625</AltitudeMeters>
            <DistanceMeters>NAN</DistanceMeters>
          </Trackpoint>
          <Trackpoint>
            <Time>2022-07-17T12:57:01.000Z</Time>
            <Position>
              <LatitudeDegrees>43.49964494816958904266357421875</LatitudeDegrees>
              <LongitudeDegrees>-5.4186333529651165008544921875</LongitudeDegrees>
            </Position>
            <AltitudeMeters>19.6000003814697265625</AltitudeMeters>
            <DistanceMeters>NAN</DistanceMeters>
          </Trackpoint>
          <Trackpoint>
            <Time>2022-07-17T12:57:09.000Z</Time>
            <Position>
              <LatitudeDegrees>43.49931436590850353240966796875</LatitudeDegrees>
              <LongitudeDegrees>-5.41903861798346042633056640625</LongitudeDegrees>
            </Position>
            <AltitudeMeters>19.799999237060546875</AltitudeMeters>
            <DistanceMeters>NAN</DistanceMeters>
          </Trackpoint>
          <Trackpoint>
            <Time>2022-07-17T12:57:12.000Z</Time>
            <Position>
              <LatitudeDegrees>43.4991939179599285125732421875</LatitudeDegrees>
              <LongitudeDegrees>-5.41917809285223484039306640625</LongitudeDegrees>
            </Position>
            <AltitudeMeters>19.799999237060546875</AltitudeMeters>
            <DistanceMeters>NAN</DistanceMeters>
          </Trackpoint>
          <Trackpoint>
            <Time>2022-07-17T12:57:17.000Z</Time>
            <Position>
              <LatitudeDegrees>43.49902133457362651824951171875</LatitudeDegrees>
              <LongitudeDegrees>-5.41941429488360881805419921875</LongitudeDegrees>
            </Position>
            <AltitudeMeters>19.6000003814697265625</AltitudeMeters>
            <DistanceMeters>NAN</DistanceMeters>
          </Trackpoint>
          <Trackpoint>
            <Time>2022-07-17T12:57:21.000Z</Time>
            <Position>
              <LatitudeDegrees>43.4989508427679538726806640625</LatitudeDegrees>
              <LongitudeDegrees>-5.4194956831634044647216796875</LongitudeDegrees>
            </Position>
            <AltitudeMeters>19.6000003814697265625</AltitudeMeters>
            <DistanceMeters>NAN</DistanceMeters>
          </Trackpoint>
          <Trackpoint>
            <Time>2022-07-17T12:57:22.000Z</Time>
            <Position>
              <LatitudeDegrees>43.4989508427679538726806640625</LatitudeDegrees>
              <LongitudeDegrees>-5.4194956831634044647216796875</LongitudeDegrees>
            </Position>
            <AltitudeMeters>19.6000003814697265625</AltitudeMeters>
            <DistanceMeters>NAN</DistanceMeters>
          </Trackpoint>
          <Trackpoint>
            <Time>2022-07-17T12:57:41.000Z</Time>
            <Position>
              <LatitudeDegrees>43.4989298880100250244140625</LatitudeDegrees>
              <LongitudeDegrees>-5.41951202787458896636962890625</LongitudeDegrees>
            </Position>
            <AltitudeMeters>19.799999237060546875</AltitudeMeters>
            <DistanceMeters>NAN</DistanceMeters>
          </Trackpoint>
          <Trackpoint>
            <Time>2022-07-17T12:57:43.000Z</Time>
            <Position>
              <LatitudeDegrees>43.4988735616207122802734375</LatitudeDegrees>
              <LongitudeDegrees>-5.4195644147694110870361328125</LongitudeDegrees>
            </Position>
            <AltitudeMeters>19.799999237060546875</AltitudeMeters>
            <DistanceMeters>NAN</DistanceMeters>
          </Trackpoint>
          <Trackpoint>
            <Time>2022-07-17T12:57:49.000Z</Time>
            <Position>
              <LatitudeDegrees>43.49868471734225749969482421875</LatitudeDegrees>
              <LongitudeDegrees>-5.41972157545387744903564453125</LongitudeDegrees>
            </Position>
            <AltitudeMeters>20.3999996185302734375</AltitudeMeters>
            <DistanceMeters>NAN</DistanceMeters>
          </Trackpoint>
          <Trackpoint>
            <Time>2022-07-17T12:57:55.000Z</Time>
            <Position>
              <LatitudeDegrees>43.49853266961872577667236328125</LatitudeDegrees>
              <LongitudeDegrees>-5.4199261777102947235107421875</LongitudeDegrees>
            </Position>
            <AltitudeMeters>21</AltitudeMeters>
            <DistanceMeters>NAN</DistanceMeters>
          </Trackpoint>
          <Trackpoint>
            <Time>2022-07-17T12:57:58.000Z</Time>
            <Position>
              <LatitudeDegrees>43.49842940457165241241455078125</LatitudeDegrees>
              <LongitudeDegrees>-5.420049391686916351318359375</LongitudeDegrees>
            </Position>
            <AltitudeMeters>21</AltitudeMeters>
            <DistanceMeters>NAN</DistanceMeters>
          </Trackpoint>
          <Trackpoint>
            <Time>2022-07-17T12:58:01.000Z</Time>
            <Position>
              <LatitudeDegrees>43.4983604215085506439208984375</LatitudeDegrees>
              <LongitudeDegrees>-5.4201964102685451507568359375</LongitudeDegrees>
            </Position>
            <AltitudeMeters>20.799999237060546875</AltitudeMeters>
            <DistanceMeters>NAN</DistanceMeters>
          </Trackpoint>
          <Trackpoint>
            <Time>2022-07-17T12:58:05.000Z</Time>
            <Position>
              <LatitudeDegrees>43.49831071682274341583251953125</LatitudeDegrees>
              <LongitudeDegrees>-5.4204451851546764373779296875</LongitudeDegrees>
            </Position>
            <AltitudeMeters>20.6000003814697265625</AltitudeMeters>
            <DistanceMeters>NAN</DistanceMeters>
          </Trackpoint>
          <Trackpoint>
            <Time>2022-07-17T12:58:06.000Z</Time>
            <Position>
              <LatitudeDegrees>43.4982913546264171600341796875</LatitudeDegrees>
              <LongitudeDegrees>-5.4205045290291309356689453125</LongitudeDegrees>
            </Position>
            <AltitudeMeters>20.6000003814697265625</AltitudeMeters>
            <DistanceMeters>NAN</DistanceMeters>
          </Trackpoint>
          <Trackpoint>
            <Time>2022-07-17T12:58:08.000Z</Time>
            <Position>
              <LatitudeDegrees>43.49824349395930767059326171875</LatitudeDegrees>
              <LongitudeDegrees>-5.42062430642545223236083984375</LongitudeDegrees>
            </Position>
            <AltitudeMeters>20.6000003814697265625</AltitudeMeters>
            <DistanceMeters>NAN</DistanceMeters>
          </Trackpoint>
          <Trackpoint>
            <Time>2022-07-17T12:58:13.000Z</Time>
            <Position>
              <LatitudeDegrees>43.49812187254428863525390625</LatitudeDegrees>
              <LongitudeDegrees>-5.42091348208487033843994140625</LongitudeDegrees>
            </Position>
            <AltitudeMeters>20.200000762939453125</AltitudeMeters>
            <DistanceMeters>NAN</DistanceMeters>
          </Trackpoint>
          <Trackpoint>
            <Time>2022-07-17T12:58:16.000Z</Time>
            <Position>
              <LatitudeDegrees>43.498049788177013397216796875</LatitudeDegrees>
              <LongitudeDegrees>-5.42108514346182346343994140625</LongitudeDegrees>
            </Position>
            <AltitudeMeters>20.200000762939453125</AltitudeMeters>
            <DistanceMeters>NAN</DistanceMeters>
          </Trackpoint>
          <Trackpoint>
            <Time>2022-07-17T12:58:18.000Z</Time>
            <Position>
              <LatitudeDegrees>43.49800125695765018463134765625</LatitudeDegrees>
              <LongitudeDegrees>-5.42120265774428844451904296875</LongitudeDegrees>
            </Position>
            <AltitudeMeters>20.200000762939453125</AltitudeMeters>
            <DistanceMeters>NAN</DistanceMeters>
          </Trackpoint>
          <Trackpoint>
            <Time>2022-07-17T12:58:21.000Z</Time>
            <Position>
              <LatitudeDegrees>43.4979108162224292755126953125</LatitudeDegrees>
              <LongitudeDegrees>-5.42137247510254383087158203125</LongitudeDegrees>
            </Position>
            <AltitudeMeters>20.3999996185302734375</AltitudeMeters>
            <DistanceMeters>NAN</DistanceMeters>
          </Trackpoint>
          <Trackpoint>
            <Time>2022-07-17T12:58:22.000Z</Time>
            <Position>
              <LatitudeDegrees>43.49787334911525249481201171875</LatitudeDegrees>
              <LongitudeDegrees>-5.42142410762608051300048828125</LongitudeDegrees>
            </Position>
            <AltitudeMeters>20.3999996185302734375</AltitudeMeters>
            <DistanceMeters>NAN</DistanceMeters>
          </Trackpoint>
          <Trackpoint>
            <Time>2022-07-17T12:58:30.000Z</Time>
            <Position>
              <LatitudeDegrees>43.4975879453122615814208984375</LatitudeDegrees>
              <LongitudeDegrees>-5.42177430354058742523193359375</LongitudeDegrees>
            </Position>
            <AltitudeMeters>20</AltitudeMeters>
            <DistanceMeters>NAN</DistanceMeters>
          </Trackpoint>
          <Trackpoint>
            <Time>2022-07-17T12:58:35.000Z</Time>
            <Position>
              <LatitudeDegrees>43.497385270893573760986328125</LatitudeDegrees>
              <LongitudeDegrees>-5.421961806714534759521484375</LongitudeDegrees>
            </Position>
            <AltitudeMeters>19.6000003814697265625</AltitudeMeters>
            <DistanceMeters>NAN</DistanceMeters>
          </Trackpoint>
          <Trackpoint>
            <Time>2022-07-17T12:58:37.000Z</Time>
            <Position>
              <LatitudeDegrees>43.49730790592730045318603515625</LatitudeDegrees>
              <LongitudeDegrees>-5.42202944867312908172607421875</LongitudeDegrees>
            </Position>
            <AltitudeMeters>19.6000003814697265625</AltitudeMeters>
            <DistanceMeters>NAN</DistanceMeters>
          </Trackpoint>
          <Trackpoint>
            <Time>2022-07-17T12:58:44.000Z</Time>
            <Position>
              <LatitudeDegrees>43.49697782658040523529052734375</LatitudeDegrees>
              <LongitudeDegrees>-5.42221938259899616241455078125</LongitudeDegrees>
            </Position>
            <AltitudeMeters>20.3999996185302734375</AltitudeMeters>
            <DistanceMeters>NAN</DistanceMeters>
          </Trackpoint>
          <Trackpoint>
            <Time>2022-07-17T12:58:50.000Z</Time>
            <Position>
              <LatitudeDegrees>43.49670575000345706939697265625</LatitudeDegrees>
              <LongitudeDegrees>-5.422375202178955078125</LongitudeDegrees>
            </Position>
            <AltitudeMeters>20.3999996185302734375</AltitudeMeters>
            <DistanceMeters>NAN</DistanceMeters>
          </Trackpoint>
          <Trackpoint>
            <Time>2022-07-17T12:58:51.000Z</Time>
            <Position>
              <LatitudeDegrees>43.49666836671531200408935546875</LatitudeDegrees>
              <LongitudeDegrees>-5.422392971813678741455078125</LongitudeDegrees>
            </Position>
            <AltitudeMeters>20.3999996185302734375</AltitudeMeters>
            <DistanceMeters>NAN</DistanceMeters>
          </Trackpoint>
          <Trackpoint>
            <Time>2022-07-17T12:58:58.000Z</Time>
            <Position>
              <LatitudeDegrees>43.496306352317333221435546875</LatitudeDegrees>
              <LongitudeDegrees>-5.42253504507243633270263671875</LongitudeDegrees>
            </Position>
            <AltitudeMeters>19.799999237060546875</AltitudeMeters>
            <DistanceMeters>NAN</DistanceMeters>
          </Trackpoint>
          <Trackpoint>
            <Time>2022-07-17T12:58:59.000Z</Time>
            <Position>
              <LatitudeDegrees>43.49625513888895511627197265625</LatitudeDegrees>
              <LongitudeDegrees>-5.42255432344973087310791015625</LongitudeDegrees>
            </Position>
            <AltitudeMeters>19.799999237060546875</AltitudeMeters>
            <DistanceMeters>NAN</DistanceMeters>
          </Trackpoint>
          <Trackpoint>
            <Time>2022-07-17T12:59:07.000Z</Time>
            <Position>
              <LatitudeDegrees>43.49586353637278079986572265625</LatitudeDegrees>
              <LongitudeDegrees>-5.42270042002201080322265625</LongitudeDegrees>
            </Position>
            <AltitudeMeters>19.3999996185302734375</AltitudeMeters>
            <DistanceMeters>NAN</DistanceMeters>
          </Trackpoint>
          <Trackpoint>
            <Time>2022-07-17T12:59:10.000Z</Time>
            <Position>
              <LatitudeDegrees>43.49572255276143550872802734375</LatitudeDegrees>
              <LongitudeDegrees>-5.422756411135196685791015625</LongitudeDegrees>
            </Position>
            <AltitudeMeters>19.200000762939453125</AltitudeMeters>
            <DistanceMeters>NAN</DistanceMeters>
          </Trackpoint>
          <Trackpoint>
            <Time>2022-07-17T12:59:20.000Z</Time>
            <Position>
              <LatitudeDegrees>43.495244197547435760498046875</LatitudeDegrees>
              <LongitudeDegrees>-5.4229371249675750732421875</LongitudeDegrees>
            </Position>
            <AltitudeMeters>19.200000762939453125</AltitudeMeters>
            <DistanceMeters>NAN</DistanceMeters>
          </Trackpoint>
          <Trackpoint>
            <Time>2022-07-17T12:59:21.000Z</Time>
            <Position>
              <LatitudeDegrees>43.495196588337421417236328125</LatitudeDegrees>
              <LongitudeDegrees>-5.42294978164136409759521484375</LongitudeDegrees>
            </Position>
            <AltitudeMeters>19.200000762939453125</AltitudeMeters>
            <DistanceMeters>NAN</DistanceMeters>
          </Trackpoint>
          <Trackpoint>
            <Time>2022-07-17T12:59:26.000Z</Time>
            <Position>
              <LatitudeDegrees>43.49495393224060535430908203125</LatitudeDegrees>
              <LongitudeDegrees>-5.4230435751378536224365234375</LongitudeDegrees>
            </Position>
            <AltitudeMeters>19.200000762939453125</AltitudeMeters>
            <DistanceMeters>NAN</DistanceMeters>
          </Trackpoint>
          <Trackpoint>
            <Time>2022-07-17T12:59:28.000Z</Time>
            <Position>
              <LatitudeDegrees>43.49485267885029315948486328125</LatitudeDegrees>
              <LongitudeDegrees>-5.4230781085789203643798828125</LongitudeDegrees>
            </Position>
            <AltitudeMeters>19.200000762939453125</AltitudeMeters>
            <DistanceMeters>NAN</DistanceMeters>
          </Trackpoint>
          <Trackpoint>
            <Time>2022-07-17T12:59:29.000Z</Time>
            <Position>
              <LatitudeDegrees>43.49480397999286651611328125</LatitudeDegrees>
              <LongitudeDegrees>-5.42309529148042201995849609375</LongitudeDegrees>
            </Position>
            <AltitudeMeters>19.200000762939453125</AltitudeMeters>
            <DistanceMeters>NAN</DistanceMeters>
          </Trackpoint>
          <Trackpoint>
            <Time>2022-07-17T12:59:35.000Z</Time>
            <Position>
              <LatitudeDegrees>43.4945137985050678253173828125</LatitudeDegrees>
              <LongitudeDegrees>-5.42319302447140216827392578125</LongitudeDegrees>
            </Position>
            <AltitudeMeters>19.6000003814697265625</AltitudeMeters>
            <DistanceMeters>NAN</DistanceMeters>
          </Trackpoint>
          <Trackpoint>
            <Time>2022-07-17T12:59:44.000Z</Time>
            <Position>
              <LatitudeDegrees>43.49405623041093349456787109375</LatitudeDegrees>
              <LongitudeDegrees>-5.42336083017289638519287109375</LongitudeDegrees>
            </Position>
            <AltitudeMeters>19.799999237060546875</AltitudeMeters>
            <DistanceMeters>NAN</DistanceMeters>
          </Trackpoint>
          <Trackpoint>
            <Time>2022-07-17T12:59:52.000Z</Time>
            <Position>
              <LatitudeDegrees>43.4936561621725559234619140625</LatitudeDegrees>
              <LongitudeDegrees>-5.4234988801181316375732421875</LongitudeDegrees>
            </Position>
            <AltitudeMeters>19.6000003814697265625</AltitudeMeters>
            <DistanceMeters>NAN</DistanceMeters>
          </Trackpoint>
          <Trackpoint>
            <Time>2022-07-17T12:59:53.000Z</Time>
            <Position>
              <LatitudeDegrees>43.49360679276287555694580078125</LatitudeDegrees>
              <LongitudeDegrees>-5.42351807467639446258544921875</LongitudeDegrees>
            </Position>
            <AltitudeMeters>19.6000003814697265625</AltitudeMeters>
            <DistanceMeters>NAN</DistanceMeters>
          </Trackpoint>
          <Trackpoint>
            <Time>2022-07-17T12:59:55.000Z</Time>
            <Position>
              <LatitudeDegrees>43.4934984147548675537109375</LatitudeDegrees>
              <LongitudeDegrees>-5.42355713434517383575439453125</LongitudeDegrees>
            </Position>
            <AltitudeMeters>19.6000003814697265625</AltitudeMeters>
            <DistanceMeters>NAN</DistanceMeters>
          </Trackpoint>
          <Trackpoint>
            <Time>2022-07-17T12:59:57.000Z</Time>
            <Position>
              <LatitudeDegrees>43.49340981803834438323974609375</LatitudeDegrees>
              <LongitudeDegrees>-5.42358278296887874603271484375</LongitudeDegrees>
            </Position>
            <AltitudeMeters>19.6000003814697265625</AltitudeMeters>
            <DistanceMeters>NAN</DistanceMeters>
          </Trackpoint>
          <Trackpoint>
            <Time>2022-07-17T13:00:01.000Z</Time>
            <Position>
              <LatitudeDegrees>43.4932008571922779083251953125</LatitudeDegrees>
              <LongitudeDegrees>-5.42364665307104587554931640625</LongitudeDegrees>
            </Position>
            <AltitudeMeters>19.3999996185302734375</AltitudeMeters>
            <DistanceMeters>NAN</DistanceMeters>
          </Trackpoint>
          <Trackpoint>
            <Time>2022-07-17T13:00:10.000Z</Time>
            <Position>
              <LatitudeDegrees>43.49275703541934490203857421875</LatitudeDegrees>
              <LongitudeDegrees>-5.42381261475384235382080078125</LongitudeDegrees>
            </Position>
            <AltitudeMeters>19.200000762939453125</AltitudeMeters>
            <DistanceMeters>NAN</DistanceMeters>
          </Trackpoint>
          <Trackpoint>
            <Time>2022-07-17T13:00:11.000Z</Time>
            <Position>
              <LatitudeDegrees>43.49273423664271831512451171875</LatitudeDegrees>
              <LongitudeDegrees>-5.4238329827785491943359375</LongitudeDegrees>
            </Position>
            <AltitudeMeters>19.200000762939453125</AltitudeMeters>
            <DistanceMeters>NAN</DistanceMeters>
          </Trackpoint>
          <Trackpoint>
            <Time>2022-07-17T13:00:12.000Z</Time>
            <Position>
              <LatitudeDegrees>43.492718227207660675048828125</LatitudeDegrees>
              <LongitudeDegrees>-5.42385720647871494293212890625</LongitudeDegrees>
            </Position>
            <AltitudeMeters>19.200000762939453125</AltitudeMeters>
            <DistanceMeters>NAN</DistanceMeters>
          </Trackpoint>
          <Trackpoint>
            <Time>2022-07-17T13:00:14.000Z</Time>
            <Position>
              <LatitudeDegrees>43.492728956043720245361328125</LatitudeDegrees>
              <LongitudeDegrees>-5.42389492504298686981201171875</LongitudeDegrees>
            </Position>
            <AltitudeMeters>19.3999996185302734375</AltitudeMeters>
            <DistanceMeters>NAN</DistanceMeters>
          </Trackpoint>
          <Trackpoint>
            <Time>2022-07-17T13:00:16.000Z</Time>
            <Position>
              <LatitudeDegrees>43.4927676804363727569580078125</LatitudeDegrees>
              <LongitudeDegrees>-5.42388101108372211456298828125</LongitudeDegrees>
            </Position>
            <AltitudeMeters>19.3999996185302734375</AltitudeMeters>
            <DistanceMeters>NAN</DistanceMeters>
          </Trackpoint>
          <Trackpoint>
            <Time>2022-07-17T13:00:18.000Z</Time>
            <Position>
              <LatitudeDegrees>43.4927730448544025421142578125</LatitudeDegrees>
              <LongitudeDegrees>-5.42387849651277065277099609375</LongitudeDegrees>
            </Position>
            <AltitudeMeters>19.3999996185302734375</AltitudeMeters>
            <DistanceMeters>NAN</DistanceMeters>
          </Trackpoint>
          <Trackpoint>
            <Time>2022-07-17T13:00:19.000Z</Time>
            <Position>
              <LatitudeDegrees>43.4927730448544025421142578125</LatitudeDegrees>
              <LongitudeDegrees>-5.42387849651277065277099609375</LongitudeDegrees>
            </Position>
            <AltitudeMeters>19.3999996185302734375</AltitudeMeters>
            <DistanceMeters>NAN</DistanceMeters>
          </Trackpoint>
          <Trackpoint>
            <Time>2022-07-17T13:00:42.000Z</Time>
            <Position>
              <LatitudeDegrees>43.492713868618011474609375</LatitudeDegrees>
              <LongitudeDegrees>-5.42387061752378940582275390625</LongitudeDegrees>
            </Position>
            <AltitudeMeters>19.200000762939453125</AltitudeMeters>
            <DistanceMeters>NAN</DistanceMeters>
          </Trackpoint>
          <Trackpoint>
            <Time>2022-07-17T13:00:44.000Z</Time>
            <Position>
              <LatitudeDegrees>43.492664583027362823486328125</LatitudeDegrees>
              <LongitudeDegrees>-5.42388687841594219207763671875</LongitudeDegrees>
            </Position>
            <AltitudeMeters>19.200000762939453125</AltitudeMeters>
            <DistanceMeters>NAN</DistanceMeters>
          </Trackpoint>
          <Trackpoint>
            <Time>2022-07-17T13:00:49.000Z</Time>
            <Position>
              <LatitudeDegrees>43.49247540347278118133544921875</LatitudeDegrees>
              <LongitudeDegrees>-5.423928536474704742431640625</LongitudeDegrees>
            </Position>
            <AltitudeMeters>19</AltitudeMeters>
            <DistanceMeters>NAN</DistanceMeters>
          </Trackpoint>
          <Trackpoint>
            <Time>2022-07-17T13:00:55.000Z</Time>
            <Position>
              <LatitudeDegrees>43.492204584181308746337890625</LatitudeDegrees>
              <LongitudeDegrees>-5.42401545681059360504150390625</LongitudeDegrees>
            </Position>
            <AltitudeMeters>20.200000762939453125</AltitudeMeters>
            <DistanceMeters>NAN</DistanceMeters>
          </Trackpoint>
          <Trackpoint>
            <Time>2022-07-17T13:01:07.000Z</Time>
            <Position>
              <LatitudeDegrees>43.491670824587345123291015625</LatitudeDegrees>
              <LongitudeDegrees>-5.424218885600566864013671875</LongitudeDegrees>
            </Position>
            <AltitudeMeters>19.6000003814697265625</AltitudeMeters>
            <DistanceMeters>NAN</DistanceMeters>
          </Trackpoint>
          <Trackpoint>
            <Time>2022-07-17T13:01:18.000Z</Time>
            <Position>
              <LatitudeDegrees>43.49115693010389804840087890625</LatitudeDegrees>
              <LongitudeDegrees>-5.42440203018486499786376953125</LongitudeDegrees>
            </Position>
            <AltitudeMeters>20.200000762939453125</AltitudeMeters>
            <DistanceMeters>NAN</DistanceMeters>
          </Trackpoint>
          <Trackpoint>
            <Time>2022-07-17T13:01:21.000Z</Time>
            <Position>
              <LatitudeDegrees>43.49102986045181751251220703125</LatitudeDegrees>
              <LongitudeDegrees>-5.42444653809070587158203125</LongitudeDegrees>
            </Position>
            <AltitudeMeters>20.3999996185302734375</AltitudeMeters>
            <DistanceMeters>NAN</DistanceMeters>
          </Trackpoint>
          <Trackpoint>
            <Time>2022-07-17T13:01:24.000Z</Time>
            <Position>
              <LatitudeDegrees>43.4909189678728580474853515625</LatitudeDegrees>
              <LongitudeDegrees>-5.42448467575013637542724609375</LongitudeDegrees>
            </Position>
            <AltitudeMeters>20.6000003814697265625</AltitudeMeters>
            <DistanceMeters>NAN</DistanceMeters>
          </Trackpoint>
          <Trackpoint>
            <Time>2022-07-17T13:01:32.000Z</Time>
            <Position>
              <LatitudeDegrees>43.49063825793564319610595703125</LatitudeDegrees>
              <LongitudeDegrees>-5.42458458803594112396240234375</LongitudeDegrees>
            </Position>
            <AltitudeMeters>21.3999996185302734375</AltitudeMeters>
            <DistanceMeters>NAN</DistanceMeters>
          </Trackpoint>
          <Trackpoint>
            <Time>2022-07-17T13:01:33.000Z</Time>
            <Position>
              <LatitudeDegrees>43.49060590378940105438232421875</LatitudeDegrees>
              <LongitudeDegrees>-5.42459548451006412506103515625</LongitudeDegrees>
            </Position>
            <AltitudeMeters>21.3999996185302734375</AltitudeMeters>
            <DistanceMeters>NAN</DistanceMeters>
          </Trackpoint>
          <Trackpoint>
            <Time>2022-07-17T13:01:34.000Z</Time>
            <Position>
              <LatitudeDegrees>43.49056935869157314300537109375</LatitudeDegrees>
              <LongitudeDegrees>-5.4246052913367748260498046875</LongitudeDegrees>
            </Position>
            <AltitudeMeters>21.3999996185302734375</AltitudeMeters>
            <DistanceMeters>NAN</DistanceMeters>
          </Trackpoint>
          <Trackpoint>
            <Time>2022-07-17T13:01:35.000Z</Time>
            <Position>
              <LatitudeDegrees>43.490530215203762054443359375</LatitudeDegrees>
              <LongitudeDegrees>-5.424617864191532135009765625</LongitudeDegrees>
            </Position>
            <AltitudeMeters>21.6000003814697265625</AltitudeMeters>
            <DistanceMeters>NAN</DistanceMeters>
          </Trackpoint>
          <Trackpoint>
            <Time>2022-07-17T13:01:37.000Z</Time>
            <Position>
              <LatitudeDegrees>43.49047648720443248748779296875</LatitudeDegrees>
              <LongitudeDegrees>-5.424639321863651275634765625</LongitudeDegrees>
            </Position>
            <AltitudeMeters>21.6000003814697265625</AltitudeMeters>
            <DistanceMeters>NAN</DistanceMeters>
          </Trackpoint>
          <Trackpoint>
            <Time>2022-07-17T13:01:39.000Z</Time>
            <Position>
              <LatitudeDegrees>43.4904167242348194122314453125</LatitudeDegrees>
              <LongitudeDegrees>-5.42466488666832447052001953125</LongitudeDegrees>
            </Position>
            <AltitudeMeters>21.799999237060546875</AltitudeMeters>
            <DistanceMeters>NAN</DistanceMeters>
          </Trackpoint>
          <Trackpoint>
            <Time>2022-07-17T13:01:40.000Z</Time>
            <Position>
              <LatitudeDegrees>43.49038931541144847869873046875</LatitudeDegrees>
              <LongitudeDegrees>-5.42467544786632061004638671875</LongitudeDegrees>
            </Position>
            <AltitudeMeters>22</AltitudeMeters>
            <DistanceMeters>NAN</DistanceMeters>
          </Trackpoint>
          <Trackpoint>
            <Time>2022-07-17T13:01:42.000Z</Time>
            <Position>
              <LatitudeDegrees>43.49033215083181858062744140625</LatitudeDegrees>
              <LongitudeDegrees>-5.4246941395103931427001953125</LongitudeDegrees>
            </Position>
            <AltitudeMeters>22.3999996185302734375</AltitudeMeters>
            <DistanceMeters>NAN</DistanceMeters>
          </Trackpoint>
          <Trackpoint>
            <Time>2022-07-17T13:01:43.000Z</Time>
            <Position>
              <LatitudeDegrees>43.4903012216091156005859375</LatitudeDegrees>
              <LongitudeDegrees>-5.42470277287065982818603515625</LongitudeDegrees>
            </Position>
            <AltitudeMeters>22.3999996185302734375</AltitudeMeters>
            <DistanceMeters>NAN</DistanceMeters>
          </Trackpoint>
          <Trackpoint>
            <Time>2022-07-17T13:01:45.000Z</Time>
            <Position>
              <LatitudeDegrees>43.49023793824017047882080078125</LatitudeDegrees>
              <LongitudeDegrees>-5.42472272180020809173583984375</LongitudeDegrees>
            </Position>
            <AltitudeMeters>22.3999996185302734375</AltitudeMeters>
            <DistanceMeters>NAN</DistanceMeters>
          </Trackpoint>
          <Trackpoint>
            <Time>2022-07-17T13:01:47.000Z</Time>
            <Position>
              <LatitudeDegrees>43.490170128643512725830078125</LatitudeDegrees>
              <LongitudeDegrees>-5.42474803514778614044189453125</LongitudeDegrees>
            </Position>
            <AltitudeMeters>22.6000003814697265625</AltitudeMeters>
            <DistanceMeters>NAN</DistanceMeters>
          </Trackpoint>
          <Trackpoint>
            <Time>2022-07-17T13:01:53.000Z</Time>
            <Position>
              <LatitudeDegrees>43.489985726773738861083984375</LatitudeDegrees>
              <LongitudeDegrees>-5.4248088039457798004150390625</LongitudeDegrees>
            </Position>
            <AltitudeMeters>23</AltitudeMeters>
            <DistanceMeters>NAN</DistanceMeters>
          </Trackpoint>
          <Trackpoint>
            <Time>2022-07-17T13:02:00.000Z</Time>
            <Position>
              <LatitudeDegrees>43.4897907637059688568115234375</LatitudeDegrees>
              <LongitudeDegrees>-5.424894802272319793701171875</LongitudeDegrees>
            </Position>
            <AltitudeMeters>23.3999996185302734375</AltitudeMeters>
            <DistanceMeters>NAN</DistanceMeters>
          </Trackpoint>
          <Trackpoint>
            <Time>2022-07-17T13:02:02.000Z</Time>
            <Position>
              <LatitudeDegrees>43.48972789943218231201171875</LatitudeDegrees>
              <LongitudeDegrees>-5.4249137453734874725341796875</LongitudeDegrees>
            </Position>
            <AltitudeMeters>23.6000003814697265625</AltitudeMeters>
            <DistanceMeters>NAN</DistanceMeters>
          </Trackpoint>
          <Trackpoint>
            <Time>2022-07-17T13:02:03.000Z</Time>
            <Position>
              <LatitudeDegrees>43.4896908514201641082763671875</LatitudeDegrees>
              <LongitudeDegrees>-5.424922294914722442626953125</LongitudeDegrees>
            </Position>
            <AltitudeMeters>23.6000003814697265625</AltitudeMeters>
            <DistanceMeters>NAN</DistanceMeters>
          </Trackpoint>
          <Trackpoint>
            <Time>2022-07-17T13:02:11.000Z</Time>
            <Position>
              <LatitudeDegrees>43.48947116173803806304931640625</LatitudeDegrees>
              <LongitudeDegrees>-5.42498163878917694091796875</LongitudeDegrees>
            </Position>
            <AltitudeMeters>24.200000762939453125</AltitudeMeters>
            <DistanceMeters>NAN</DistanceMeters>
          </Trackpoint>
          <Trackpoint>
            <Time>2022-07-17T13:02:20.000Z</Time>
            <Position>
              <LatitudeDegrees>43.489168994128704071044921875</LatitudeDegrees>
              <LongitudeDegrees>-5.42508934624493122100830078125</LongitudeDegrees>
            </Position>
            <AltitudeMeters>24.3999996185302734375</AltitudeMeters>
            <DistanceMeters>NAN</DistanceMeters>
          </Trackpoint>
          <Trackpoint>
            <Time>2022-07-17T13:02:25.000Z</Time>
            <Position>
              <LatitudeDegrees>43.48899490199983119964599609375</LatitudeDegrees>
              <LongitudeDegrees>-5.42520694434642791748046875</LongitudeDegrees>
            </Position>
            <AltitudeMeters>24.3999996185302734375</AltitudeMeters>
            <DistanceMeters>NAN</DistanceMeters>
          </Trackpoint>
          <Trackpoint>
            <Time>2022-07-17T13:02:27.000Z</Time>
            <Position>
              <LatitudeDegrees>43.4889291040599346160888671875</LatitudeDegrees>
              <LongitudeDegrees>-5.4252651147544384002685546875</LongitudeDegrees>
            </Position>
            <AltitudeMeters>24.3999996185302734375</AltitudeMeters>
            <DistanceMeters>NAN</DistanceMeters>
          </Trackpoint>
          <Trackpoint>
            <Time>2022-07-17T13:02:29.000Z</Time>
            <Position>
              <LatitudeDegrees>43.4888769686222076416015625</LatitudeDegrees>
              <LongitudeDegrees>-5.42533342726528644561767578125</LongitudeDegrees>
            </Position>
            <AltitudeMeters>24.3999996185302734375</AltitudeMeters>
            <DistanceMeters>NAN</DistanceMeters>
          </Trackpoint>
          <Trackpoint>
            <Time>2022-07-17T13:02:30.000Z</Time>
            <Position>
              <LatitudeDegrees>43.48884553648531436920166015625</LatitudeDegrees>
              <LongitudeDegrees>-5.42535756714642047882080078125</LongitudeDegrees>
            </Position>
            <AltitudeMeters>24.3999996185302734375</AltitudeMeters>
            <DistanceMeters>NAN</DistanceMeters>
          </Trackpoint>
          <Trackpoint>
            <Time>2022-07-17T13:02:34.000Z</Time>
            <Position>
              <LatitudeDegrees>43.48875719122588634490966796875</LatitudeDegrees>
              <LongitudeDegrees>-5.425498299300670623779296875</LongitudeDegrees>
            </Position>
            <AltitudeMeters>24.3999996185302734375</AltitudeMeters>
            <DistanceMeters>NAN</DistanceMeters>
          </Trackpoint>
          <Trackpoint>
            <Time>2022-07-17T13:02:36.000Z</Time>
            <Position>
              <LatitudeDegrees>43.48869181238114833831787109375</LatitudeDegrees>
              <LongitudeDegrees>-5.42554557323455810546875</LongitudeDegrees>
            </Position>
            <AltitudeMeters>24.6000003814697265625</AltitudeMeters>
            <DistanceMeters>NAN</DistanceMeters>
          </Trackpoint>
          <Trackpoint>
            <Time>2022-07-17T13:02:38.000Z</Time>
            <Position>
              <LatitudeDegrees>43.48862341605126857757568359375</LatitudeDegrees>
              <LongitudeDegrees>-5.42560332454741001129150390625</LongitudeDegrees>
            </Position>
            <AltitudeMeters>24.6000003814697265625</AltitudeMeters>
            <DistanceMeters>NAN</DistanceMeters>
          </Trackpoint>
          <Trackpoint>
            <Time>2022-07-17T13:02:40.000Z</Time>
            <Position>
              <LatitudeDegrees>43.4885713644325733184814453125</LatitudeDegrees>
              <LongitudeDegrees>-5.425666272640228271484375</LongitudeDegrees>
            </Position>
            <AltitudeMeters>24.799999237060546875</AltitudeMeters>
            <DistanceMeters>NAN</DistanceMeters>
          </Trackpoint>
          <Trackpoint>
            <Time>2022-07-17T13:02:47.000Z</Time>
            <Position>
              <LatitudeDegrees>43.48837547935545444488525390625</LatitudeDegrees>
              <LongitudeDegrees>-5.42583466507494449615478515625</LongitudeDegrees>
            </Position>
            <AltitudeMeters>25.200000762939453125</AltitudeMeters>
            <DistanceMeters>NAN</DistanceMeters>
          </Trackpoint>
          <Trackpoint>
            <Time>2022-07-17T13:02:55.000Z</Time>
            <Position>
              <LatitudeDegrees>43.48813290707767009735107421875</LatitudeDegrees>
              <LongitudeDegrees>-5.4260511696338653564453125</LongitudeDegrees>
            </Position>
            <AltitudeMeters>25.3999996185302734375</AltitudeMeters>
            <DistanceMeters>NAN</DistanceMeters>
          </Trackpoint>
          <Trackpoint>
            <Time>2022-07-17T13:02:57.000Z</Time>
            <Position>
              <LatitudeDegrees>43.488084375858306884765625</LatitudeDegrees>
              <LongitudeDegrees>-5.4261195659637451171875</LongitudeDegrees>
            </Position>
            <AltitudeMeters>25.3999996185302734375</AltitudeMeters>
            <DistanceMeters>NAN</DistanceMeters>
          </Trackpoint>
          <Trackpoint>
            <Time>2022-07-17T13:03:04.000Z</Time>
            <Position>
              <LatitudeDegrees>43.4878907538950443267822265625</LatitudeDegrees>
              <LongitudeDegrees>-5.42633439414203166961669921875</LongitudeDegrees>
            </Position>
            <AltitudeMeters>25.6000003814697265625</AltitudeMeters>
            <DistanceMeters>NAN</DistanceMeters>
          </Trackpoint>
          <Trackpoint>
            <Time>2022-07-17T13:03:12.000Z</Time>
            <Position>
              <LatitudeDegrees>43.4876674599945545196533203125</LatitudeDegrees>
              <LongitudeDegrees>-5.42657352983951568603515625</LongitudeDegrees>
            </Position>
            <AltitudeMeters>26</AltitudeMeters>
            <DistanceMeters>NAN</DistanceMeters>
          </Trackpoint>
          <Trackpoint>
            <Time>2022-07-17T13:03:20.000Z</Time>
            <Position>
              <LatitudeDegrees>43.487479873001575469970703125</LatitudeDegrees>
              <LongitudeDegrees>-5.42680017650127410888671875</LongitudeDegrees>
            </Position>
            <AltitudeMeters>26</AltitudeMeters>
            <DistanceMeters>NAN</DistanceMeters>
          </Trackpoint>
          <Trackpoint>
            <Time>2022-07-17T13:03:28.000Z</Time>
            <Position>
              <LatitudeDegrees>43.4872885979712009429931640625</LatitudeDegrees>
              <LongitudeDegrees>-5.42703696526587009429931640625</LongitudeDegrees>
            </Position>
            <AltitudeMeters>26</AltitudeMeters>
            <DistanceMeters>NAN</DistanceMeters>
          </Trackpoint>
          <Trackpoint>
            <Time>2022-07-17T13:03:30.000Z</Time>
            <Position>
              <LatitudeDegrees>43.4872409887611865997314453125</LatitudeDegrees>
              <LongitudeDegrees>-5.42709052562713623046875</LongitudeDegrees>
            </Position>
            <AltitudeMeters>26</AltitudeMeters>
            <DistanceMeters>NAN</DistanceMeters>
          </Trackpoint>
          <Trackpoint>
            <Time>2022-07-17T13:03:38.000Z</Time>
            <Position>
              <LatitudeDegrees>43.48702247254550457000732421875</LatitudeDegrees>
              <LongitudeDegrees>-5.4273113049566745758056640625</LongitudeDegrees>
            </Position>
            <AltitudeMeters>25.799999237060546875</AltitudeMeters>
            <DistanceMeters>NAN</DistanceMeters>
          </Trackpoint>
          <Trackpoint>
            <Time>2022-07-17T13:03:41.000Z</Time>
            <Position>
              <LatitudeDegrees>43.48693848587572574615478515625</LatitudeDegrees>
              <LongitudeDegrees>-5.4274028353393077850341796875</LongitudeDegrees>
            </Position>
            <AltitudeMeters>25.799999237060546875</AltitudeMeters>
            <DistanceMeters>NAN</DistanceMeters>
          </Trackpoint>
          <Trackpoint>
            <Time>2022-07-17T13:03:43.000Z</Time>
            <Position>
              <LatitudeDegrees>43.4868867695331573486328125</LatitudeDegrees>
              <LongitudeDegrees>-5.4274672083556652069091796875</LongitudeDegrees>
            </Position>
            <AltitudeMeters>25.6000003814697265625</AltitudeMeters>
            <DistanceMeters>NAN</DistanceMeters>
          </Trackpoint>
          <Trackpoint>
            <Time>2022-07-17T13:03:46.000Z</Time>
            <Position>
              <LatitudeDegrees>43.48679968155920505523681640625</LatitudeDegrees>
              <LongitudeDegrees>-5.42755815200507640838623046875</LongitudeDegrees>
            </Position>
            <AltitudeMeters>25.6000003814697265625</AltitudeMeters>
            <DistanceMeters>NAN</DistanceMeters>
          </Trackpoint>
          <Trackpoint>
            <Time>2022-07-17T13:03:47.000Z</Time>
            <Position>
              <LatitudeDegrees>43.48676950670778751373291015625</LatitudeDegrees>
              <LongitudeDegrees>-5.42759017087519168853759765625</LongitudeDegrees>
            </Position>
            <AltitudeMeters>25.3999996185302734375</AltitudeMeters>
            <DistanceMeters>NAN</DistanceMeters>
          </Trackpoint>
          <Trackpoint>
            <Time>2022-07-17T13:03:54.000Z</Time>
            <Position>
              <LatitudeDegrees>43.486522324383258819580078125</LatitudeDegrees>
              <LongitudeDegrees>-5.42785202153027057647705078125</LongitudeDegrees>
            </Position>
            <AltitudeMeters>25.3999996185302734375</AltitudeMeters>
            <DistanceMeters>NAN</DistanceMeters>
          </Trackpoint>
          <Trackpoint>
            <Time>2022-07-17T13:04:02.000Z</Time>
            <Position>
              <LatitudeDegrees>43.4862472303211688995361328125</LatitudeDegrees>
              <LongitudeDegrees>-5.42815863154828548431396484375</LongitudeDegrees>
            </Position>
            <AltitudeMeters>25.3999996185302734375</AltitudeMeters>
            <DistanceMeters>NAN</DistanceMeters>
          </Trackpoint>
          <Trackpoint>
            <Time>2022-07-17T13:04:10.000Z</Time>
            <Position>
              <LatitudeDegrees>43.4859568811953067779541015625</LatitudeDegrees>
              <LongitudeDegrees>-5.428477227687835693359375</LongitudeDegrees>
            </Position>
            <AltitudeMeters>25.3999996185302734375</AltitudeMeters>
            <DistanceMeters>NAN</DistanceMeters>
          </Trackpoint>
          <Trackpoint>
            <Time>2022-07-17T13:04:11.000Z</Time>
            <Position>
              <LatitudeDegrees>43.48592159338295459747314453125</LatitudeDegrees>
              <LongitudeDegrees>-5.42851687408983707427978515625</LongitudeDegrees>
            </Position>
            <AltitudeMeters>25.3999996185302734375</AltitudeMeters>
            <DistanceMeters>NAN</DistanceMeters>
          </Trackpoint>
          <Trackpoint>
            <Time>2022-07-17T13:04:16.000Z</Time>
            <Position>
              <LatitudeDegrees>43.485737107694149017333984375</LatitudeDegrees>
              <LongitudeDegrees>-5.42872223071753978729248046875</LongitudeDegrees>
            </Position>
            <AltitudeMeters>25.3999996185302734375</AltitudeMeters>
            <DistanceMeters>NAN</DistanceMeters>
          </Trackpoint>
          <Trackpoint>
            <Time>2022-07-17T13:04:19.000Z</Time>
            <Position>
              <LatitudeDegrees>43.48562738858163356781005859375</LatitudeDegrees>
              <LongitudeDegrees>-5.4288433492183685302734375</LongitudeDegrees>
            </Position>
            <AltitudeMeters>25.200000762939453125</AltitudeMeters>
            <DistanceMeters>NAN</DistanceMeters>
          </Trackpoint>
          <Trackpoint>
            <Time>2022-07-17T13:04:30.000Z</Time>
            <Position>
              <LatitudeDegrees>43.48523494787514209747314453125</LatitudeDegrees>
              <LongitudeDegrees>-5.42929655872285366058349609375</LongitudeDegrees>
            </Position>
            <AltitudeMeters>25</AltitudeMeters>
            <DistanceMeters>NAN</DistanceMeters>
          </Trackpoint>
          <Trackpoint>
            <Time>2022-07-17T13:04:37.000Z</Time>
            <Position>
              <LatitudeDegrees>43.4850191138684749603271484375</LatitudeDegrees>
              <LongitudeDegrees>-5.4295663721859455108642578125</LongitudeDegrees>
            </Position>
            <AltitudeMeters>24.3999996185302734375</AltitudeMeters>
            <DistanceMeters>NAN</DistanceMeters>
          </Trackpoint>
          <Trackpoint>
            <Time>2022-07-17T13:04:39.000Z</Time>
            <Position>
              <LatitudeDegrees>43.4850030206143856048583984375</LatitudeDegrees>
              <LongitudeDegrees>-5.42961423285305500030517578125</LongitudeDegrees>
            </Position>
            <AltitudeMeters>24.3999996185302734375</AltitudeMeters>
            <DistanceMeters>NAN</DistanceMeters>
          </Trackpoint>
          <Trackpoint>
            <Time>2022-07-17T13:04:41.000Z</Time>
            <Position>
              <LatitudeDegrees>43.48501249216496944427490234375</LatitudeDegrees>
              <LongitudeDegrees>-5.42966569773852825164794921875</LongitudeDegrees>
            </Position>
            <AltitudeMeters>24.200000762939453125</AltitudeMeters>
            <DistanceMeters>NAN</DistanceMeters>
          </Trackpoint>
          <Trackpoint>
            <Time>2022-07-17T13:04:44.000Z</Time>
            <Position>
              <LatitudeDegrees>43.48502791486680507659912109375</LatitudeDegrees>
              <LongitudeDegrees>-5.42970324866473674774169921875</LongitudeDegrees>
            </Position>
            <AltitudeMeters>23.799999237060546875</AltitudeMeters>
            <DistanceMeters>NAN</DistanceMeters>
          </Trackpoint>
          <Trackpoint>
            <Time>2022-07-17T13:04:46.000Z</Time>
            <Position>
              <LatitudeDegrees>43.48502791486680507659912109375</LatitudeDegrees>
              <LongitudeDegrees>-5.42970324866473674774169921875</LongitudeDegrees>
            </Position>
            <AltitudeMeters>23.3999996185302734375</AltitudeMeters>
            <DistanceMeters>NAN</DistanceMeters>
          </Trackpoint>
          <Trackpoint>
            <Time>2022-07-17T13:06:00.000Z</Time>
            <Position>
              <LatitudeDegrees>43.48494728095829486846923828125</LatitudeDegrees>
              <LongitudeDegrees>-5.42966988869011402130126953125</LongitudeDegrees>
            </Position>
            <AltitudeMeters>25</AltitudeMeters>
            <DistanceMeters>NAN</DistanceMeters>
          </Trackpoint>
          <Trackpoint>
            <Time>2022-07-17T13:06:01.000Z</Time>
            <Position>
              <LatitudeDegrees>43.48493319936096668243408203125</LatitudeDegrees>
              <LongitudeDegrees>-5.4296827130019664764404296875</LongitudeDegrees>
            </Position>
            <AltitudeMeters>25</AltitudeMeters>
            <DistanceMeters>NAN</DistanceMeters>
          </Trackpoint>
          <Trackpoint>
            <Time>2022-07-17T13:06:03.000Z</Time>
            <Position>
              <LatitudeDegrees>43.48489581607282161712646484375</LatitudeDegrees>
              <LongitudeDegrees>-5.42972286231815814971923828125</LongitudeDegrees>
            </Position>
            <AltitudeMeters>25.200000762939453125</AltitudeMeters>
            <DistanceMeters>NAN</DistanceMeters>
          </Trackpoint>
          <Trackpoint>
            <Time>2022-07-17T13:06:08.000Z</Time>
            <Position>
              <LatitudeDegrees>43.48477251827716827392578125</LatitudeDegrees>
              <LongitudeDegrees>-5.42986770160496234893798828125</LongitudeDegrees>
            </Position>
            <AltitudeMeters>25.200000762939453125</AltitudeMeters>
            <DistanceMeters>NAN</DistanceMeters>
          </Trackpoint>
          <Trackpoint>
            <Time>2022-07-17T13:06:14.000Z</Time>
            <Position>
              <LatitudeDegrees>43.48460412584245204925537109375</LatitudeDegrees>
              <LongitudeDegrees>-5.43006232939660549163818359375</LongitudeDegrees>
            </Position>
            <AltitudeMeters>25.200000762939453125</AltitudeMeters>
            <DistanceMeters>NAN</DistanceMeters>
          </Trackpoint>
          <Trackpoint>
            <Time>2022-07-17T13:06:16.000Z</Time>
            <Position>
              <LatitudeDegrees>43.48456104286015033721923828125</LatitudeDegrees>
              <LongitudeDegrees>-5.43012619949877262115478515625</LongitudeDegrees>
            </Position>
            <AltitudeMeters>25</AltitudeMeters>
            <DistanceMeters>NAN</DistanceMeters>
          </Trackpoint>
          <Trackpoint>
            <Time>2022-07-17T13:06:21.000Z</Time>
            <Position>
              <LatitudeDegrees>43.48442793823778629302978515625</LatitudeDegrees>
              <LongitudeDegrees>-5.43028193525969982147216796875</LongitudeDegrees>
            </Position>
            <AltitudeMeters>25</AltitudeMeters>
            <DistanceMeters>NAN</DistanceMeters>
          </Trackpoint>
          <Trackpoint>
            <Time>2022-07-17T13:06:23.000Z</Time>
            <Position>
              <LatitudeDegrees>43.484367839992046356201171875</LatitudeDegrees>
              <LongitudeDegrees>-5.43034362606704235076904296875</LongitudeDegrees>
            </Position>
            <AltitudeMeters>25.200000762939453125</AltitudeMeters>
            <DistanceMeters>NAN</DistanceMeters>
          </Trackpoint>
          <Trackpoint>
            <Time>2022-07-17T13:06:24.000Z</Time>
            <Position>
              <LatitudeDegrees>43.48433506675064563751220703125</LatitudeDegrees>
              <LongitudeDegrees>-5.430373884737491607666015625</LongitudeDegrees>
            </Position>
            <AltitudeMeters>25.200000762939453125</AltitudeMeters>
            <DistanceMeters>NAN</DistanceMeters>
          </Trackpoint>
          <Trackpoint>
            <Time>2022-07-17T13:06:26.000Z</Time>
            <Position>
              <LatitudeDegrees>43.48427203483879566192626953125</LatitudeDegrees>
              <LongitudeDegrees>-5.43043599463999271392822265625</LongitudeDegrees>
            </Position>
            <AltitudeMeters>25.3999996185302734375</AltitudeMeters>
            <DistanceMeters>NAN</DistanceMeters>
          </Trackpoint>
          <Trackpoint>
            <Time>2022-07-17T13:06:27.000Z</Time>
            <Position>
              <LatitudeDegrees>43.48423683084547519683837890625</LatitudeDegrees>
              <LongitudeDegrees>-5.4304699413478374481201171875</LongitudeDegrees>
            </Position>
            <AltitudeMeters>25.3999996185302734375</AltitudeMeters>
            <DistanceMeters>NAN</DistanceMeters>
          </Trackpoint>
          <Trackpoint>
            <Time>2022-07-17T13:06:28.000Z</Time>
            <Position>
              <LatitudeDegrees>43.4842047281563282012939453125</LatitudeDegrees>
              <LongitudeDegrees>-5.430502630770206451416015625</LongitudeDegrees>
            </Position>
            <AltitudeMeters>25.3999996185302734375</AltitudeMeters>
            <DistanceMeters>NAN</DistanceMeters>
          </Trackpoint>
          <Trackpoint>
            <Time>2022-07-17T13:06:30.000Z</Time>
            <Position>
              <LatitudeDegrees>43.4841428697109222412109375</LatitudeDegrees>
              <LongitudeDegrees>-5.43057211674749851226806640625</LongitudeDegrees>
            </Position>
            <AltitudeMeters>25.3999996185302734375</AltitudeMeters>
            <DistanceMeters>NAN</DistanceMeters>
          </Trackpoint>
          <Trackpoint>
            <Time>2022-07-17T13:06:39.000Z</Time>
            <Position>
              <LatitudeDegrees>43.4838587231934070587158203125</LatitudeDegrees>
              <LongitudeDegrees>-5.43089532293379306793212890625</LongitudeDegrees>
            </Position>
            <AltitudeMeters>25.200000762939453125</AltitudeMeters>
            <DistanceMeters>NAN</DistanceMeters>
          </Trackpoint>
          <Trackpoint>
            <Time>2022-07-17T13:06:42.000Z</Time>
            <Position>
              <LatitudeDegrees>43.48376275040209293365478515625</LatitudeDegrees>
              <LongitudeDegrees>-5.43100294657051563262939453125</LongitudeDegrees>
            </Position>
            <AltitudeMeters>25</AltitudeMeters>
            <DistanceMeters>NAN</DistanceMeters>
          </Trackpoint>
          <Trackpoint>
            <Time>2022-07-17T13:06:48.000Z</Time>
            <Position>
              <LatitudeDegrees>43.48356418311595916748046875</LatitudeDegrees>
              <LongitudeDegrees>-5.4312296770513057708740234375</LongitudeDegrees>
            </Position>
            <AltitudeMeters>25</AltitudeMeters>
            <DistanceMeters>NAN</DistanceMeters>
          </Trackpoint>
          <Trackpoint>
            <Time>2022-07-17T13:06:51.000Z</Time>
            <Position>
              <LatitudeDegrees>43.4834540449082851409912109375</LatitudeDegrees>
              <LongitudeDegrees>-5.43134844861924648284912109375</LongitudeDegrees>
            </Position>
            <AltitudeMeters>24.799999237060546875</AltitudeMeters>
            <DistanceMeters>NAN</DistanceMeters>
          </Trackpoint>
          <Trackpoint>
            <Time>2022-07-17T13:06:57.000Z</Time>
            <Position>
              <LatitudeDegrees>43.4832230396568775177001953125</LatitudeDegrees>
              <LongitudeDegrees>-5.43161817826330661773681640625</LongitudeDegrees>
            </Position>
            <AltitudeMeters>24.3999996185302734375</AltitudeMeters>
            <DistanceMeters>NAN</DistanceMeters>
          </Trackpoint>
          <Trackpoint>
            <Time>2022-07-17T13:07:02.000Z</Time>
            <Position>
              <LatitudeDegrees>43.48302665166556835174560546875</LatitudeDegrees>
              <LongitudeDegrees>-5.43183191679418087005615234375</LongitudeDegrees>
            </Position>
            <AltitudeMeters>24</AltitudeMeters>
            <DistanceMeters>NAN</DistanceMeters>
          </Trackpoint>
          <Trackpoint>
            <Time>2022-07-17T13:07:04.000Z</Time>
            <Position>
              <LatitudeDegrees>43.48295129835605621337890625</LatitudeDegrees>
              <LongitudeDegrees>-5.43191221542656421661376953125</LongitudeDegrees>
            </Position>
            <AltitudeMeters>23.6000003814697265625</AltitudeMeters>
            <DistanceMeters>NAN</DistanceMeters>
          </Trackpoint>
          <Trackpoint>
            <Time>2022-07-17T13:07:05.000Z</Time>
            <Position>
              <LatitudeDegrees>43.4829155914485454559326171875</LatitudeDegrees>
              <LongitudeDegrees>-5.431958399713039398193359375</LongitudeDegrees>
            </Position>
            <AltitudeMeters>23.6000003814697265625</AltitudeMeters>
            <DistanceMeters>NAN</DistanceMeters>
          </Trackpoint>
          <Trackpoint>
            <Time>2022-07-17T13:07:12.000Z</Time>
            <Position>
              <LatitudeDegrees>43.482659943401813507080078125</LatitudeDegrees>
              <LongitudeDegrees>-5.432257466018199920654296875</LongitudeDegrees>
            </Position>
            <AltitudeMeters>22.799999237060546875</AltitudeMeters>
            <DistanceMeters>NAN</DistanceMeters>
          </Trackpoint>
          <Trackpoint>
            <Time>2022-07-17T13:07:14.000Z</Time>
            <Position>
              <LatitudeDegrees>43.48259381018579006195068359375</LatitudeDegrees>
              <LongitudeDegrees>-5.4323270358145236968994140625</LongitudeDegrees>
            </Position>
            <AltitudeMeters>22.6000003814697265625</AltitudeMeters>
            <DistanceMeters>NAN</DistanceMeters>
          </Trackpoint>
          <Trackpoint>
            <Time>2022-07-17T13:07:19.000Z</Time>
            <Position>
              <LatitudeDegrees>43.48247579298913478851318359375</LatitudeDegrees>
              <LongitudeDegrees>-5.4324088431894779205322265625</LongitudeDegrees>
            </Position>
            <AltitudeMeters>22</AltitudeMeters>
            <DistanceMeters>NAN</DistanceMeters>
          </Trackpoint>
          <Trackpoint>
            <Time>2022-07-17T13:07:23.000Z</Time>
            <Position>
              <LatitudeDegrees>43.4823818318545818328857421875</LatitudeDegrees>
              <LongitudeDegrees>-5.43239082209765911102294921875</LongitudeDegrees>
            </Position>
            <AltitudeMeters>21.799999237060546875</AltitudeMeters>
            <DistanceMeters>NAN</DistanceMeters>
          </Trackpoint>
          <Trackpoint>
            <Time>2022-07-17T13:07:24.000Z</Time>
            <Position>
              <LatitudeDegrees>43.48237453959882259368896484375</LatitudeDegrees>
              <LongitudeDegrees>-5.43238361366093158721923828125</LongitudeDegrees>
            </Position>
            <AltitudeMeters>21.799999237060546875</AltitudeMeters>
            <DistanceMeters>NAN</DistanceMeters>
          </Trackpoint>
          <Trackpoint>
            <Time>2022-07-17T13:07:26.000Z</Time>
            <Position>
              <LatitudeDegrees>43.48235291428864002227783203125</LatitudeDegrees>
              <LongitudeDegrees>-5.43238244019448757171630859375</LongitudeDegrees>
            </Position>
            <AltitudeMeters>21.799999237060546875</AltitudeMeters>
            <DistanceMeters>NAN</DistanceMeters>
          </Trackpoint>
          <Trackpoint>
            <Time>2022-07-17T13:07:29.000Z</Time>
            <Position>
              <LatitudeDegrees>43.4823097474873065948486328125</LatitudeDegrees>
              <LongitudeDegrees>-5.4323736391961574554443359375</LongitudeDegrees>
            </Position>
            <AltitudeMeters>22</AltitudeMeters>
            <DistanceMeters>NAN</DistanceMeters>
          </Trackpoint>
          <Trackpoint>
            <Time>2022-07-17T13:07:34.000Z</Time>
            <Position>
              <LatitudeDegrees>43.48223389126360416412353515625</LatitudeDegrees>
              <LongitudeDegrees>-5.43244413100183010101318359375</LongitudeDegrees>
            </Position>
            <AltitudeMeters>22.200000762939453125</AltitudeMeters>
            <DistanceMeters>NAN</DistanceMeters>
          </Trackpoint>
          <Trackpoint>
            <Time>2022-07-17T13:07:35.000Z</Time>
            <Position>
              <LatitudeDegrees>43.48221628926694393157958984375</LatitudeDegrees>
              <LongitudeDegrees>-5.43247078545391559600830078125</LongitudeDegrees>
            </Position>
            <AltitudeMeters>22.200000762939453125</AltitudeMeters>
            <DistanceMeters>NAN</DistanceMeters>
          </Trackpoint>
          <Trackpoint>
            <Time>2022-07-17T13:07:41.000Z</Time>
            <Position>
              <LatitudeDegrees>43.48206709139049053192138671875</LatitudeDegrees>
              <LongitudeDegrees>-5.432564578950405120849609375</LongitudeDegrees>
            </Position>
            <AltitudeMeters>21.6000003814697265625</AltitudeMeters>
            <DistanceMeters>NAN</DistanceMeters>
          </Trackpoint>
          <Trackpoint>
            <Time>2022-07-17T13:07:50.000Z</Time>
            <Position>
              <LatitudeDegrees>43.48186307586729526519775390625</LatitudeDegrees>
              <LongitudeDegrees>-5.43252191506326198577880859375</LongitudeDegrees>
            </Position>
            <AltitudeMeters>21.6000003814697265625</AltitudeMeters>
            <DistanceMeters>NAN</DistanceMeters>
          </Trackpoint>
          <Trackpoint>
            <Time>2022-07-17T13:07:55.000Z</Time>
            <Position>
              <LatitudeDegrees>43.48174975253641605377197265625</LatitudeDegrees>
              <LongitudeDegrees>-5.4324708692729473114013671875</LongitudeDegrees>
            </Position>
            <AltitudeMeters>21.799999237060546875</AltitudeMeters>
            <DistanceMeters>NAN</DistanceMeters>
          </Trackpoint>
          <Trackpoint>
            <Time>2022-07-17T13:07:56.000Z</Time>
            <Position>
              <LatitudeDegrees>43.48174204118549823760986328125</LatitudeDegrees>
              <LongitudeDegrees>-5.43244563974440097808837890625</LongitudeDegrees>
            </Position>
            <AltitudeMeters>21.799999237060546875</AltitudeMeters>
            <DistanceMeters>NAN</DistanceMeters>
          </Trackpoint>
          <Trackpoint>
            <Time>2022-07-17T13:07:58.000Z</Time>
            <Position>
              <LatitudeDegrees>43.4817538596689701080322265625</LatitudeDegrees>
              <LongitudeDegrees>-5.43238663114607334136962890625</LongitudeDegrees>
            </Position>
            <AltitudeMeters>22</AltitudeMeters>
            <DistanceMeters>NAN</DistanceMeters>
          </Trackpoint>
          <Trackpoint>
            <Time>2022-07-17T13:08:02.000Z</Time>
            <Position>
              <LatitudeDegrees>43.481815047562122344970703125</LatitudeDegrees>
              <LongitudeDegrees>-5.432291328907012939453125</LongitudeDegrees>
            </Position>
            <AltitudeMeters>22.6000003814697265625</AltitudeMeters>
            <DistanceMeters>NAN</DistanceMeters>
          </Trackpoint>
          <Trackpoint>
            <Time>2022-07-17T13:08:04.000Z</Time>
            <Position>
              <LatitudeDegrees>43.48184748552739620208740234375</LatitudeDegrees>
              <LongitudeDegrees>-5.4322697035968303680419921875</LongitudeDegrees>
            </Position>
            <AltitudeMeters>22.799999237060546875</AltitudeMeters>
            <DistanceMeters>NAN</DistanceMeters>
          </Trackpoint>
          <Trackpoint>
            <Time>2022-07-17T13:08:07.000Z</Time>
            <Position>
              <LatitudeDegrees>43.48190867342054843902587890625</LatitudeDegrees>
              <LongitudeDegrees>-5.43226978741586208343505859375</LongitudeDegrees>
            </Position>
            <AltitudeMeters>22.799999237060546875</AltitudeMeters>
            <DistanceMeters>NAN</DistanceMeters>
          </Trackpoint>
          <Trackpoint>
            <Time>2022-07-17T13:08:08.000Z</Time>
            <Position>
              <LatitudeDegrees>43.48192811943590641021728515625</LatitudeDegrees>
              <LongitudeDegrees>-5.4322596453130245208740234375</LongitudeDegrees>
            </Position>
            <AltitudeMeters>22.799999237060546875</AltitudeMeters>
            <DistanceMeters>NAN</DistanceMeters>
          </Trackpoint>
          <Trackpoint>
            <Time>2022-07-17T13:08:09.000Z</Time>
            <Position>
              <LatitudeDegrees>43.481941781938076019287109375</LatitudeDegrees>
              <LongitudeDegrees>-5.43225185014307498931884765625</LongitudeDegrees>
            </Position>
            <AltitudeMeters>23</AltitudeMeters>
            <DistanceMeters>NAN</DistanceMeters>
          </Trackpoint>
          <Trackpoint>
            <Time>2022-07-17T13:08:12.000Z</Time>
            <Position>
              <LatitudeDegrees>43.48194471560418605804443359375</LatitudeDegrees>
              <LongitudeDegrees>-5.43225453235208988189697265625</LongitudeDegrees>
            </Position>
            <AltitudeMeters>22.799999237060546875</AltitudeMeters>
            <DistanceMeters>NAN</DistanceMeters>
          </Trackpoint>
          <Trackpoint>
            <Time>2022-07-17T13:13:59.000Z</Time>
            <Position>
              <LatitudeDegrees>43.48193733952939510345458984375</LatitudeDegrees>
              <LongitudeDegrees>-5.4322700388729572296142578125</LongitudeDegrees>
            </Position>
            <AltitudeMeters>24.799999237060546875</AltitudeMeters>
            <DistanceMeters>NAN</DistanceMeters>
          </Trackpoint>
          <Trackpoint>
            <Time>2022-07-17T13:14:00.000Z</Time>
            <Position>
              <LatitudeDegrees>43.48190783523023128509521484375</LatitudeDegrees>
              <LongitudeDegrees>-5.4322619922459125518798828125</LongitudeDegrees>
            </Position>
            <AltitudeMeters>24.799999237060546875</AltitudeMeters>
            <DistanceMeters>NAN</DistanceMeters>
          </Trackpoint>
          <Trackpoint>
            <Time>2022-07-17T13:14:01.000Z</Time>
            <Position>
              <LatitudeDegrees>43.48187849856913089752197265625</LatitudeDegrees>
              <LongitudeDegrees>-5.43226425535976886749267578125</LongitudeDegrees>
            </Position>
            <AltitudeMeters>24.799999237060546875</AltitudeMeters>
            <DistanceMeters>NAN</DistanceMeters>
          </Trackpoint>
          <Trackpoint>
            <Time>2022-07-17T13:14:03.000Z</Time>
            <Position>
              <LatitudeDegrees>43.48183038644492626190185546875</LatitudeDegrees>
              <LongitudeDegrees>-5.43230113573372364044189453125</LongitudeDegrees>
            </Position>
            <AltitudeMeters>24.799999237060546875</AltitudeMeters>
            <DistanceMeters>NAN</DistanceMeters>
          </Trackpoint>
          <Trackpoint>
            <Time>2022-07-17T13:14:05.000Z</Time>
            <Position>
              <LatitudeDegrees>43.48177707754075527191162109375</LatitudeDegrees>
              <LongitudeDegrees>-5.43235880322754383087158203125</LongitudeDegrees>
            </Position>
            <AltitudeMeters>26.200000762939453125</AltitudeMeters>
            <DistanceMeters>NAN</DistanceMeters>
          </Trackpoint>
          <Trackpoint>
            <Time>2022-07-17T13:14:09.000Z</Time>
            <Position>
              <LatitudeDegrees>43.48171974532306194305419921875</LatitudeDegrees>
              <LongitudeDegrees>-5.43251638300716876983642578125</LongitudeDegrees>
            </Position>
            <AltitudeMeters>26.6000003814697265625</AltitudeMeters>
            <DistanceMeters>NAN</DistanceMeters>
          </Trackpoint>
          <Trackpoint>
            <Time>2022-07-17T13:14:14.000Z</Time>
            <Position>
              <LatitudeDegrees>43.481697700917720794677734375</LatitudeDegrees>
              <LongitudeDegrees>-5.4327541776001453399658203125</LongitudeDegrees>
            </Position>
            <AltitudeMeters>25.799999237060546875</AltitudeMeters>
            <DistanceMeters>NAN</DistanceMeters>
          </Trackpoint>
          <Trackpoint>
            <Time>2022-07-17T13:14:17.000Z</Time>
            <Position>
              <LatitudeDegrees>43.481668867170810699462890625</LatitudeDegrees>
              <LongitudeDegrees>-5.43287646956741809844970703125</LongitudeDegrees>
            </Position>
            <AltitudeMeters>25.3999996185302734375</AltitudeMeters>
            <DistanceMeters>NAN</DistanceMeters>
          </Trackpoint>
          <Trackpoint>
            <Time>2022-07-17T13:14:18.000Z</Time>
            <Position>
              <LatitudeDegrees>43.48166048526763916015625</LatitudeDegrees>
              <LongitudeDegrees>-5.4329298622906208038330078125</LongitudeDegrees>
            </Position>
            <AltitudeMeters>25.3999996185302734375</AltitudeMeters>
            <DistanceMeters>NAN</DistanceMeters>
          </Trackpoint>
          <Trackpoint>
            <Time>2022-07-17T13:14:20.000Z</Time>
            <Position>
              <LatitudeDegrees>43.4816365130245685577392578125</LatitudeDegrees>
              <LongitudeDegrees>-5.43300672434270381927490234375</LongitudeDegrees>
            </Position>
            <AltitudeMeters>25.200000762939453125</AltitudeMeters>
            <DistanceMeters>NAN</DistanceMeters>
          </Trackpoint>
          <Trackpoint>
            <Time>2022-07-17T13:14:21.000Z</Time>
            <Position>
              <LatitudeDegrees>43.48161379806697368621826171875</LatitudeDegrees>
              <LongitudeDegrees>-5.43302021920680999755859375</LongitudeDegrees>
            </Position>
            <AltitudeMeters>25</AltitudeMeters>
            <DistanceMeters>NAN</DistanceMeters>
          </Trackpoint>
          <Trackpoint>
            <Time>2022-07-17T13:14:22.000Z</Time>
            <Position>
              <LatitudeDegrees>43.4815899096429347991943359375</LatitudeDegrees>
              <LongitudeDegrees>-5.43301896192133426666259765625</LongitudeDegrees>
            </Position>
            <AltitudeMeters>24.799999237060546875</AltitudeMeters>
            <DistanceMeters>NAN</DistanceMeters>
          </Trackpoint>
          <Trackpoint>
            <Time>2022-07-17T13:14:24.000Z</Time>
            <Position>
              <LatitudeDegrees>43.48157088272273540496826171875</LatitudeDegrees>
              <LongitudeDegrees>-5.43301845900714397430419921875</LongitudeDegrees>
            </Position>
            <AltitudeMeters>24.799999237060546875</AltitudeMeters>
            <DistanceMeters>NAN</DistanceMeters>
          </Trackpoint>
          <Trackpoint>
            <Time>2022-07-17T13:14:26.000Z</Time>
            <Position>
              <LatitudeDegrees>43.481564931571483612060546875</LatitudeDegrees>
              <LongitudeDegrees>-5.43302952311933040618896484375</LongitudeDegrees>
            </Position>
            <AltitudeMeters>24.6000003814697265625</AltitudeMeters>
            <DistanceMeters>NAN</DistanceMeters>
          </Trackpoint>
          <Trackpoint>
            <Time>2022-07-17T13:14:28.000Z</Time>
            <Position>
              <LatitudeDegrees>43.481564931571483612060546875</LatitudeDegrees>
              <LongitudeDegrees>-5.43302952311933040618896484375</LongitudeDegrees>
            </Position>
            <AltitudeMeters>24.799999237060546875</AltitudeMeters>
            <DistanceMeters>NAN</DistanceMeters>
          </Trackpoint>
          <Trackpoint>
            <Time>2022-07-17T13:14:34.000Z</Time>
            <Position>
              <LatitudeDegrees>43.481607846915721893310546875</LatitudeDegrees>
              <LongitudeDegrees>-5.43302449397742748260498046875</LongitudeDegrees>
            </Position>
            <AltitudeMeters>24.799999237060546875</AltitudeMeters>
            <DistanceMeters>NAN</DistanceMeters>
          </Trackpoint>
          <Trackpoint>
            <Time>2022-07-17T13:14:36.000Z</Time>
            <Position>
              <LatitudeDegrees>43.4816586412489414215087890625</LatitudeDegrees>
              <LongitudeDegrees>-5.4330170340836048126220703125</LongitudeDegrees>
            </Position>
            <AltitudeMeters>24.799999237060546875</AltitudeMeters>
            <DistanceMeters>NAN</DistanceMeters>
          </Trackpoint>
          <Trackpoint>
            <Time>2022-07-17T13:14:40.000Z</Time>
            <Position>
              <LatitudeDegrees>43.48174807615578174591064453125</LatitudeDegrees>
              <LongitudeDegrees>-5.4330270923674106597900390625</LongitudeDegrees>
            </Position>
            <AltitudeMeters>25</AltitudeMeters>
            <DistanceMeters>NAN</DistanceMeters>
          </Trackpoint>
          <Trackpoint>
            <Time>2022-07-17T13:14:41.000Z</Time>
            <Position>
              <LatitudeDegrees>43.4817629121243953704833984375</LatitudeDegrees>
              <LongitudeDegrees>-5.43301711790263652801513671875</LongitudeDegrees>
            </Position>
            <AltitudeMeters>24.799999237060546875</AltitudeMeters>
            <DistanceMeters>NAN</DistanceMeters>
          </Trackpoint>
          <Trackpoint>
            <Time>2022-07-17T13:14:45.000Z</Time>
            <Position>
              <LatitudeDegrees>43.48178093321621417999267578125</LatitudeDegrees>
              <LongitudeDegrees>-5.43299951590597629547119140625</LongitudeDegrees>
            </Position>
            <AltitudeMeters>24.6000003814697265625</AltitudeMeters>
            <DistanceMeters>NAN</DistanceMeters>
          </Trackpoint>
          <Trackpoint>
            <Time>2022-07-17T13:14:47.000Z</Time>
            <Position>
              <LatitudeDegrees>43.4817798435688018798828125</LatitudeDegrees>
              <LongitudeDegrees>-5.43301795609295368194580078125</LongitudeDegrees>
            </Position>
            <AltitudeMeters>24.3999996185302734375</AltitudeMeters>
            <DistanceMeters>NAN</DistanceMeters>
          </Trackpoint>
          <Trackpoint>
            <Time>2022-07-17T13:14:50.000Z</Time>
            <Position>
              <LatitudeDegrees>43.4817555360496044158935546875</LatitudeDegrees>
              <LongitudeDegrees>-5.43306321837007999420166015625</LongitudeDegrees>
            </Position>
            <AltitudeMeters>24.200000762939453125</AltitudeMeters>
            <DistanceMeters>NAN</DistanceMeters>
          </Trackpoint>
          <Trackpoint>
            <Time>2022-07-17T13:14:55.000Z</Time>
            <Position>
              <LatitudeDegrees>43.4816857986152172088623046875</LatitudeDegrees>
              <LongitudeDegrees>-5.43319045566022396087646484375</LongitudeDegrees>
            </Position>
            <AltitudeMeters>24</AltitudeMeters>
            <DistanceMeters>NAN</DistanceMeters>
          </Trackpoint>
          <Trackpoint>
            <Time>2022-07-17T13:15:01.000Z</Time>
            <Position>
              <LatitudeDegrees>43.48157373256981372833251953125</LatitudeDegrees>
              <LongitudeDegrees>-5.43334837071597576141357421875</LongitudeDegrees>
            </Position>
            <AltitudeMeters>23.799999237060546875</AltitudeMeters>
            <DistanceMeters>NAN</DistanceMeters>
          </Trackpoint>
          <Trackpoint>
            <Time>2022-07-17T13:15:06.000Z</Time>
            <Position>
              <LatitudeDegrees>43.48144984804093837738037109375</LatitudeDegrees>
              <LongitudeDegrees>-5.4334431700408458709716796875</LongitudeDegrees>
            </Position>
            <AltitudeMeters>23.799999237060546875</AltitudeMeters>
            <DistanceMeters>NAN</DistanceMeters>
          </Trackpoint>
          <Trackpoint>
            <Time>2022-07-17T13:15:10.000Z</Time>
            <Position>
              <LatitudeDegrees>43.4813753329217433929443359375</LatitudeDegrees>
              <LongitudeDegrees>-5.4335881769657135009765625</LongitudeDegrees>
            </Position>
            <AltitudeMeters>23.799999237060546875</AltitudeMeters>
            <DistanceMeters>NAN</DistanceMeters>
          </Trackpoint>
          <Trackpoint>
            <Time>2022-07-17T13:15:13.000Z</Time>
            <Position>
              <LatitudeDegrees>43.48133769817650318145751953125</LatitudeDegrees>
              <LongitudeDegrees>-5.43372203595936298370361328125</LongitudeDegrees>
            </Position>
            <AltitudeMeters>23.799999237060546875</AltitudeMeters>
            <DistanceMeters>NAN</DistanceMeters>
          </Trackpoint>
          <Trackpoint>
            <Time>2022-07-17T13:15:15.000Z</Time>
            <Position>
              <LatitudeDegrees>43.48131724633276462554931640625</LatitudeDegrees>
              <LongitudeDegrees>-5.433804430067539215087890625</LongitudeDegrees>
            </Position>
            <AltitudeMeters>23.6000003814697265625</AltitudeMeters>
            <DistanceMeters>NAN</DistanceMeters>
          </Trackpoint>
          <Trackpoint>
            <Time>2022-07-17T13:15:17.000Z</Time>
            <Position>
              <LatitudeDegrees>43.48128640092909336090087890625</LatitudeDegrees>
              <LongitudeDegrees>-5.43387123383581638336181640625</LongitudeDegrees>
            </Position>
            <AltitudeMeters>23.3999996185302734375</AltitudeMeters>
            <DistanceMeters>NAN</DistanceMeters>
          </Trackpoint>
          <Trackpoint>
            <Time>2022-07-17T13:15:18.000Z</Time>
            <Position>
              <LatitudeDegrees>43.48127734847366809844970703125</LatitudeDegrees>
              <LongitudeDegrees>-5.43390777893364429473876953125</LongitudeDegrees>
            </Position>
            <AltitudeMeters>23.3999996185302734375</AltitudeMeters>
            <DistanceMeters>NAN</DistanceMeters>
          </Trackpoint>
          <Trackpoint>
            <Time>2022-07-17T13:15:20.000Z</Time>
            <Position>
              <LatitudeDegrees>43.4812593273818492889404296875</LatitudeDegrees>
              <LongitudeDegrees>-5.4339695535600185394287109375</LongitudeDegrees>
            </Position>
            <AltitudeMeters>23.200000762939453125</AltitudeMeters>
            <DistanceMeters>NAN</DistanceMeters>
          </Trackpoint>
          <Trackpoint>
            <Time>2022-07-17T13:15:22.000Z</Time>
            <Position>
              <LatitudeDegrees>43.4812221117317676544189453125</LatitudeDegrees>
              <LongitudeDegrees>-5.4340146481990814208984375</LongitudeDegrees>
            </Position>
            <AltitudeMeters>23.200000762939453125</AltitudeMeters>
            <DistanceMeters>NAN</DistanceMeters>
          </Trackpoint>
          <Trackpoint>
            <Time>2022-07-17T13:15:27.000Z</Time>
            <Position>
              <LatitudeDegrees>43.48105908371508121490478515625</LatitudeDegrees>
              <LongitudeDegrees>-5.43403652496635913848876953125</LongitudeDegrees>
            </Position>
            <AltitudeMeters>23.3999996185302734375</AltitudeMeters>
            <DistanceMeters>NAN</DistanceMeters>
          </Trackpoint>
          <Trackpoint>
            <Time>2022-07-17T13:15:33.000Z</Time>
            <Position>
              <LatitudeDegrees>43.48095565102994441986083984375</LatitudeDegrees>
              <LongitudeDegrees>-5.4340325854718685150146484375</LongitudeDegrees>
            </Position>
            <AltitudeMeters>23.3999996185302734375</AltitudeMeters>
            <DistanceMeters>NAN</DistanceMeters>
          </Trackpoint>
          <Trackpoint>
            <Time>2022-07-17T13:15:35.000Z</Time>
            <Position>
              <LatitudeDegrees>43.48097224719822406768798828125</LatitudeDegrees>
              <LongitudeDegrees>-5.4340359382331371307373046875</LongitudeDegrees>
            </Position>
            <AltitudeMeters>23.3999996185302734375</AltitudeMeters>
            <DistanceMeters>NAN</DistanceMeters>
          </Trackpoint>
          <Trackpoint>
            <Time>2022-07-17T13:15:38.000Z</Time>
            <Position>
              <LatitudeDegrees>43.48101449199020862579345703125</LatitudeDegrees>
              <LongitudeDegrees>-5.43402495793998241424560546875</LongitudeDegrees>
            </Position>
            <AltitudeMeters>23.6000003814697265625</AltitudeMeters>
            <DistanceMeters>NAN</DistanceMeters>
          </Trackpoint>
          <Trackpoint>
            <Time>2022-07-17T13:15:44.000Z</Time>
            <Position>
              <LatitudeDegrees>43.48115916363894939422607421875</LatitudeDegrees>
              <LongitudeDegrees>-5.43400048278272151947021484375</LongitudeDegrees>
            </Position>
            <AltitudeMeters>23.3999996185302734375</AltitudeMeters>
            <DistanceMeters>NAN</DistanceMeters>
          </Trackpoint>
          <Trackpoint>
            <Time>2022-07-17T13:15:49.000Z</Time>
            <Position>
              <LatitudeDegrees>43.48123711533844470977783203125</LatitudeDegrees>
              <LongitudeDegrees>-5.4340158216655254364013671875</LongitudeDegrees>
            </Position>
            <AltitudeMeters>23.200000762939453125</AltitudeMeters>
            <DistanceMeters>NAN</DistanceMeters>
          </Trackpoint>
          <Trackpoint>
            <Time>2022-07-17T13:15:51.000Z</Time>
            <Position>
              <LatitudeDegrees>43.4812532924115657806396484375</LatitudeDegrees>
              <LongitudeDegrees>-5.43405127711594104766845703125</LongitudeDegrees>
            </Position>
            <AltitudeMeters>22.799999237060546875</AltitudeMeters>
            <DistanceMeters>NAN</DistanceMeters>
          </Trackpoint>
          <Trackpoint>
            <Time>2022-07-17T13:15:54.000Z</Time>
            <Position>
              <LatitudeDegrees>43.48125748336315155029296875</LatitudeDegrees>
              <LongitudeDegrees>-5.4341620020568370819091796875</LongitudeDegrees>
            </Position>
            <AltitudeMeters>22.799999237060546875</AltitudeMeters>
            <DistanceMeters>NAN</DistanceMeters>
          </Trackpoint>
          <Trackpoint>
            <Time>2022-07-17T13:15:58.000Z</Time>
            <Position>
              <LatitudeDegrees>43.481241054832935333251953125</LatitudeDegrees>
              <LongitudeDegrees>-5.434333495795726776123046875</LongitudeDegrees>
            </Position>
            <AltitudeMeters>22.6000003814697265625</AltitudeMeters>
            <DistanceMeters>NAN</DistanceMeters>
          </Trackpoint>
          <Trackpoint>
            <Time>2022-07-17T13:15:59.000Z</Time>
            <Position>
              <LatitudeDegrees>43.48124700598418712615966796875</LatitudeDegrees>
              <LongitudeDegrees>-5.4343799315392971038818359375</LongitudeDegrees>
            </Position>
            <AltitudeMeters>22.6000003814697265625</AltitudeMeters>
            <DistanceMeters>NAN</DistanceMeters>
          </Trackpoint>
          <Trackpoint>
            <Time>2022-07-17T13:16:05.000Z</Time>
            <Position>
              <LatitudeDegrees>43.48123610951006412506103515625</LatitudeDegrees>
              <LongitudeDegrees>-5.434613786637783050537109375</LongitudeDegrees>
            </Position>
            <AltitudeMeters>23</AltitudeMeters>
            <DistanceMeters>NAN</DistanceMeters>
          </Trackpoint>
          <Trackpoint>
            <Time>2022-07-17T13:16:10.000Z</Time>
            <Position>
              <LatitudeDegrees>43.48113477230072021484375</LatitudeDegrees>
              <LongitudeDegrees>-5.4347380064427852630615234375</LongitudeDegrees>
            </Position>
            <AltitudeMeters>22.6000003814697265625</AltitudeMeters>
            <DistanceMeters>NAN</DistanceMeters>
          </Trackpoint>
          <Trackpoint>
            <Time>2022-07-17T13:16:13.000Z</Time>
            <Position>
              <LatitudeDegrees>43.4810796193778514862060546875</LatitudeDegrees>
              <LongitudeDegrees>-5.43483716435730457305908203125</LongitudeDegrees>
            </Position>
            <AltitudeMeters>22.6000003814697265625</AltitudeMeters>
            <DistanceMeters>NAN</DistanceMeters>
          </Trackpoint>
          <Trackpoint>
            <Time>2022-07-17T13:16:17.000Z</Time>
            <Position>
              <LatitudeDegrees>43.48101700656116008758544921875</LatitudeDegrees>
              <LongitudeDegrees>-5.4349373281002044677734375</LongitudeDegrees>
            </Position>
            <AltitudeMeters>22.6000003814697265625</AltitudeMeters>
            <DistanceMeters>NAN</DistanceMeters>
          </Trackpoint>
          <Trackpoint>
            <Time>2022-07-17T13:16:19.000Z</Time>
            <Position>
              <LatitudeDegrees>43.48100091330707073211669921875</LatitudeDegrees>
              <LongitudeDegrees>-5.434975884854793548583984375</LongitudeDegrees>
            </Position>
            <AltitudeMeters>22.6000003814697265625</AltitudeMeters>
            <DistanceMeters>NAN</DistanceMeters>
          </Trackpoint>
          <Trackpoint>
            <Time>2022-07-17T13:16:21.000Z</Time>
            <Position>
              <LatitudeDegrees>43.481009043753147125244140625</LatitudeDegrees>
              <LongitudeDegrees>-5.43499977327883243560791015625</LongitudeDegrees>
            </Position>
            <AltitudeMeters>22.6000003814697265625</AltitudeMeters>
            <DistanceMeters>NAN</DistanceMeters>
          </Trackpoint>
          <Trackpoint>
            <Time>2022-07-17T13:16:23.000Z</Time>
            <Position>
              <LatitudeDegrees>43.4810108877718448638916015625</LatitudeDegrees>
              <LongitudeDegrees>-5.4350035451352596282958984375</LongitudeDegrees>
            </Position>
            <AltitudeMeters>22.6000003814697265625</AltitudeMeters>
            <DistanceMeters>NAN</DistanceMeters>
          </Trackpoint>
          <Trackpoint>
            <Time>2022-07-17T13:16:44.000Z</Time>
            <Position>
              <LatitudeDegrees>43.4810749255120754241943359375</LatitudeDegrees>
              <LongitudeDegrees>-5.43505257926881313323974609375</LongitudeDegrees>
            </Position>
            <AltitudeMeters>22.3999996185302734375</AltitudeMeters>
            <DistanceMeters>NAN</DistanceMeters>
          </Trackpoint>
          <Trackpoint>
            <Time>2022-07-17T13:16:45.000Z</Time>
            <Position>
              <LatitudeDegrees>43.4810931980609893798828125</LatitudeDegrees>
              <LongitudeDegrees>-5.43506783433258533477783203125</LongitudeDegrees>
            </Position>
            <AltitudeMeters>22.200000762939453125</AltitudeMeters>
            <DistanceMeters>NAN</DistanceMeters>
          </Trackpoint>
          <Trackpoint>
            <Time>2022-07-17T13:16:48.000Z</Time>
            <Position>
              <LatitudeDegrees>43.4811602532863616943359375</LatitudeDegrees>
              <LongitudeDegrees>-5.4351245798170566558837890625</LongitudeDegrees>
            </Position>
            <AltitudeMeters>22.200000762939453125</AltitudeMeters>
            <DistanceMeters>NAN</DistanceMeters>
          </Trackpoint>
          <Trackpoint>
            <Time>2022-07-17T13:16:50.000Z</Time>
            <Position>
              <LatitudeDegrees>43.48120928741991519927978515625</LatitudeDegrees>
              <LongitudeDegrees>-5.43517210520803928375244140625</LongitudeDegrees>
            </Position>
            <AltitudeMeters>22.200000762939453125</AltitudeMeters>
            <DistanceMeters>NAN</DistanceMeters>
          </Trackpoint>
          <Trackpoint>
            <Time>2022-07-17T13:16:51.000Z</Time>
            <Position>
              <LatitudeDegrees>43.4812278114259243011474609375</LatitudeDegrees>
              <LongitudeDegrees>-5.4351902939379215240478515625</LongitudeDegrees>
            </Position>
            <AltitudeMeters>22.200000762939453125</AltitudeMeters>
            <DistanceMeters>NAN</DistanceMeters>
          </Trackpoint>
          <Trackpoint>
            <Time>2022-07-17T13:16:56.000Z</Time>
            <Position>
              <LatitudeDegrees>43.4813193418085575103759765625</LatitudeDegrees>
              <LongitudeDegrees>-5.4353009350597858428955078125</LongitudeDegrees>
            </Position>
            <AltitudeMeters>22.200000762939453125</AltitudeMeters>
            <DistanceMeters>NAN</DistanceMeters>
          </Trackpoint>
          <Trackpoint>
            <Time>2022-07-17T13:16:58.000Z</Time>
            <Position>
              <LatitudeDegrees>43.481333255767822265625</LatitudeDegrees>
              <LongitudeDegrees>-5.43533571995794773101806640625</LongitudeDegrees>
            </Position>
            <AltitudeMeters>22</AltitudeMeters>
            <DistanceMeters>NAN</DistanceMeters>
          </Trackpoint>
          <Trackpoint>
            <Time>2022-07-17T13:17:00.000Z</Time>
            <Position>
              <LatitudeDegrees>43.48132051527500152587890625</LatitudeDegrees>
              <LongitudeDegrees>-5.435362122952938079833984375</LongitudeDegrees>
            </Position>
            <AltitudeMeters>22</AltitudeMeters>
            <DistanceMeters>NAN</DistanceMeters>
          </Trackpoint>
          <Trackpoint>
            <Time>2022-07-17T13:17:01.000Z</Time>
            <Position>
              <LatitudeDegrees>43.4813079424202442169189453125</LatitudeDegrees>
              <LongitudeDegrees>-5.43539020232856273651123046875</LongitudeDegrees>
            </Position>
            <AltitudeMeters>22</AltitudeMeters>
            <DistanceMeters>NAN</DistanceMeters>
          </Trackpoint>
          <Trackpoint>
            <Time>2022-07-17T13:17:04.000Z</Time>
            <Position>
              <LatitudeDegrees>43.481253795325756072998046875</LatitudeDegrees>
              <LongitudeDegrees>-5.4354964010417461395263671875</LongitudeDegrees>
            </Position>
            <AltitudeMeters>22</AltitudeMeters>
            <DistanceMeters>NAN</DistanceMeters>
          </Trackpoint>
          <Trackpoint>
            <Time>2022-07-17T13:17:07.000Z</Time>
            <Position>
              <LatitudeDegrees>43.4812331758439540863037109375</LatitudeDegrees>
              <LongitudeDegrees>-5.43558935634791851043701171875</LongitudeDegrees>
            </Position>
            <AltitudeMeters>22.200000762939453125</AltitudeMeters>
            <DistanceMeters>NAN</DistanceMeters>
          </Trackpoint>
          <Trackpoint>
            <Time>2022-07-17T13:17:08.000Z</Time>
            <Position>
              <LatitudeDegrees>43.4812388755381107330322265625</LatitudeDegrees>
              <LongitudeDegrees>-5.4356298409402370452880859375</LongitudeDegrees>
            </Position>
            <AltitudeMeters>22.200000762939453125</AltitudeMeters>
            <DistanceMeters>NAN</DistanceMeters>
          </Trackpoint>
          <Trackpoint>
            <Time>2022-07-17T13:17:09.000Z</Time>
            <Position>
              <LatitudeDegrees>43.48123870790004730224609375</LatitudeDegrees>
              <LongitudeDegrees>-5.4356640391051769256591796875</LongitudeDegrees>
            </Position>
            <AltitudeMeters>22.200000762939453125</AltitudeMeters>
            <DistanceMeters>NAN</DistanceMeters>
          </Trackpoint>
          <Trackpoint>
            <Time>2022-07-17T13:17:12.000Z</Time>
            <Position>
              <LatitudeDegrees>43.481263183057308197021484375</LatitudeDegrees>
              <LongitudeDegrees>-5.4357196949422359466552734375</LongitudeDegrees>
            </Position>
            <AltitudeMeters>22.6000003814697265625</AltitudeMeters>
            <DistanceMeters>NAN</DistanceMeters>
          </Trackpoint>
          <Trackpoint>
            <Time>2022-07-17T13:17:14.000Z</Time>
            <Position>
              <LatitudeDegrees>43.48128832876682281494140625</LatitudeDegrees>
              <LongitudeDegrees>-5.43574324809014797210693359375</LongitudeDegrees>
            </Position>
            <AltitudeMeters>22.6000003814697265625</AltitudeMeters>
            <DistanceMeters>NAN</DistanceMeters>
          </Trackpoint>
          <Trackpoint>
            <Time>2022-07-17T13:17:16.000Z</Time>
            <Position>
              <LatitudeDegrees>43.481292016804218292236328125</LatitudeDegrees>
              <LongitudeDegrees>-5.4357371293008327484130859375</LongitudeDegrees>
            </Position>
            <AltitudeMeters>22.3999996185302734375</AltitudeMeters>
            <DistanceMeters>NAN</DistanceMeters>
          </Trackpoint>
          <Trackpoint>
            <Time>2022-07-17T13:17:17.000Z</Time>
            <Position>
              <LatitudeDegrees>43.48129813559353351593017578125</LatitudeDegrees>
              <LongitudeDegrees>-5.43573754839599132537841796875</LongitudeDegrees>
            </Position>
            <AltitudeMeters>22.3999996185302734375</AltitudeMeters>
            <DistanceMeters>NAN</DistanceMeters>
          </Trackpoint>
          <Trackpoint>
            <Time>2022-07-17T13:17:19.000Z</Time>
            <Position>
              <LatitudeDegrees>43.4812915138900279998779296875</LatitudeDegrees>
              <LongitudeDegrees>-5.43577484786510467529296875</LongitudeDegrees>
            </Position>
            <AltitudeMeters>22.200000762939453125</AltitudeMeters>
            <DistanceMeters>NAN</DistanceMeters>
          </Trackpoint>
          <Trackpoint>
            <Time>2022-07-17T13:17:20.000Z</Time>
            <Position>
              <LatitudeDegrees>43.4812864847481250762939453125</LatitudeDegrees>
              <LongitudeDegrees>-5.4357795417308807373046875</LongitudeDegrees>
            </Position>
            <AltitudeMeters>22</AltitudeMeters>
            <DistanceMeters>NAN</DistanceMeters>
          </Trackpoint>
          <Trackpoint>
            <Time>2022-07-17T13:17:23.000Z</Time>
            <Position>
              <LatitudeDegrees>43.48126645199954509735107421875</LatitudeDegrees>
              <LongitudeDegrees>-5.435808710753917694091796875</LongitudeDegrees>
            </Position>
            <AltitudeMeters>21.799999237060546875</AltitudeMeters>
            <DistanceMeters>NAN</DistanceMeters>
          </Trackpoint>
          <Trackpoint>
            <Time>2022-07-17T13:17:26.000Z</Time>
            <Position>
              <LatitudeDegrees>43.48128707148134708404541015625</LatitudeDegrees>
              <LongitudeDegrees>-5.43582580983638763427734375</LongitudeDegrees>
            </Position>
            <AltitudeMeters>21.799999237060546875</AltitudeMeters>
            <DistanceMeters>NAN</DistanceMeters>
          </Trackpoint>
          <Trackpoint>
            <Time>2022-07-17T13:17:27.000Z</Time>
            <Position>
              <LatitudeDegrees>43.4812889993190765380859375</LatitudeDegrees>
              <LongitudeDegrees>-5.43585472740232944488525390625</LongitudeDegrees>
            </Position>
            <AltitudeMeters>21.799999237060546875</AltitudeMeters>
            <DistanceMeters>NAN</DistanceMeters>
          </Trackpoint>
          <Trackpoint>
            <Time>2022-07-17T13:17:29.000Z</Time>
            <Position>
              <LatitudeDegrees>43.48128371872007846832275390625</LatitudeDegrees>
              <LongitudeDegrees>-5.43585539795458316802978515625</LongitudeDegrees>
            </Position>
            <AltitudeMeters>21.799999237060546875</AltitudeMeters>
            <DistanceMeters>NAN</DistanceMeters>
          </Trackpoint>
          <Trackpoint>
            <Time>2022-07-17T13:17:33.000Z</Time>
            <Position>
              <LatitudeDegrees>43.4812273085117340087890625</LatitudeDegrees>
              <LongitudeDegrees>-5.43579890392720699310302734375</LongitudeDegrees>
            </Position>
            <AltitudeMeters>21.799999237060546875</AltitudeMeters>
            <DistanceMeters>NAN</DistanceMeters>
          </Trackpoint>
          <Trackpoint>
            <Time>2022-07-17T13:17:38.000Z</Time>
            <Position>
              <LatitudeDegrees>43.48113820888102054595947265625</LatitudeDegrees>
              <LongitudeDegrees>-5.4356714151799678802490234375</LongitudeDegrees>
            </Position>
            <AltitudeMeters>22</AltitudeMeters>
            <DistanceMeters>NAN</DistanceMeters>
          </Trackpoint>
          <Trackpoint>
            <Time>2022-07-17T13:17:43.000Z</Time>
            <Position>
              <LatitudeDegrees>43.481001667678356170654296875</LatitudeDegrees>
              <LongitudeDegrees>-5.435582064092159271240234375</LongitudeDegrees>
            </Position>
            <AltitudeMeters>22.3999996185302734375</AltitudeMeters>
            <DistanceMeters>NAN</DistanceMeters>
          </Trackpoint>
          <Trackpoint>
            <Time>2022-07-17T13:17:45.000Z</Time>
            <Position>
              <LatitudeDegrees>43.48095380701124668121337890625</LatitudeDegrees>
              <LongitudeDegrees>-5.435543842613697052001953125</LongitudeDegrees>
            </Position>
            <AltitudeMeters>22.3999996185302734375</AltitudeMeters>
            <DistanceMeters>NAN</DistanceMeters>
          </Trackpoint>
          <Trackpoint>
            <Time>2022-07-17T13:17:50.000Z</Time>
            <Position>
              <LatitudeDegrees>43.480820953845977783203125</LatitudeDegrees>
              <LongitudeDegrees>-5.435445941984653472900390625</LongitudeDegrees>
            </Position>
            <AltitudeMeters>22.3999996185302734375</AltitudeMeters>
            <DistanceMeters>NAN</DistanceMeters>
          </Trackpoint>
          <Trackpoint>
            <Time>2022-07-17T13:17:55.000Z</Time>
            <Position>
              <LatitudeDegrees>43.48071207292377948760986328125</LatitudeDegrees>
              <LongitudeDegrees>-5.435365475714206695556640625</LongitudeDegrees>
            </Position>
            <AltitudeMeters>22.3999996185302734375</AltitudeMeters>
            <DistanceMeters>NAN</DistanceMeters>
          </Trackpoint>
          <Trackpoint>
            <Time>2022-07-17T13:17:58.000Z</Time>
            <Position>
              <LatitudeDegrees>43.480679132044315338134765625</LatitudeDegrees>
              <LongitudeDegrees>-5.435313172638416290283203125</LongitudeDegrees>
            </Position>
            <AltitudeMeters>22.3999996185302734375</AltitudeMeters>
            <DistanceMeters>NAN</DistanceMeters>
          </Trackpoint>
          <Trackpoint>
            <Time>2022-07-17T13:18:00.000Z</Time>
            <Position>
              <LatitudeDegrees>43.4806554950773715972900390625</LatitudeDegrees>
              <LongitudeDegrees>-5.43529699556529521942138671875</LongitudeDegrees>
            </Position>
            <AltitudeMeters>22.200000762939453125</AltitudeMeters>
            <DistanceMeters>NAN</DistanceMeters>
          </Trackpoint>
          <Trackpoint>
            <Time>2022-07-17T13:18:04.000Z</Time>
            <Position>
              <LatitudeDegrees>43.480632863938808441162109375</LatitudeDegrees>
              <LongitudeDegrees>-5.435257852077484130859375</LongitudeDegrees>
            </Position>
            <AltitudeMeters>22.200000762939453125</AltitudeMeters>
            <DistanceMeters>NAN</DistanceMeters>
          </Trackpoint>
          <Trackpoint>
            <Time>2022-07-17T13:18:08.000Z</Time>
            <Position>
              <LatitudeDegrees>43.4806196205317974090576171875</LatitudeDegrees>
              <LongitudeDegrees>-5.435249805450439453125</LongitudeDegrees>
            </Position>
            <AltitudeMeters>22.200000762939453125</AltitudeMeters>
            <DistanceMeters>NAN</DistanceMeters>
          </Trackpoint>
          <Trackpoint>
            <Time>2022-07-17T13:18:09.000Z</Time>
            <Position>
              <LatitudeDegrees>43.4806196205317974090576171875</LatitudeDegrees>
              <LongitudeDegrees>-5.435249805450439453125</LongitudeDegrees>
            </Position>
            <AltitudeMeters>22.200000762939453125</AltitudeMeters>
            <DistanceMeters>NAN</DistanceMeters>
          </Trackpoint>
          <Trackpoint>
            <Time>2022-07-17T13:18:13.000Z</Time>
            <Position>
              <LatitudeDegrees>43.48059757612645626068115234375</LatitudeDegrees>
              <LongitudeDegrees>-5.43520814739167690277099609375</LongitudeDegrees>
            </Position>
            <AltitudeMeters>22.3999996185302734375</AltitudeMeters>
            <DistanceMeters>NAN</DistanceMeters>
          </Trackpoint>
          <Trackpoint>
            <Time>2022-07-17T13:18:14.000Z</Time>
            <Position>
              <LatitudeDegrees>43.48058936186134815216064453125</LatitudeDegrees>
              <LongitudeDegrees>-5.43519758619368076324462890625</LongitudeDegrees>
            </Position>
            <AltitudeMeters>22.3999996185302734375</AltitudeMeters>
            <DistanceMeters>NAN</DistanceMeters>
          </Trackpoint>
          <Trackpoint>
            <Time>2022-07-17T13:18:15.000Z</Time>
            <Position>
              <LatitudeDegrees>43.48057745955884456634521484375</LatitudeDegrees>
              <LongitudeDegrees>-5.4351882822811603546142578125</LongitudeDegrees>
            </Position>
            <AltitudeMeters>22.3999996185302734375</AltitudeMeters>
            <DistanceMeters>NAN</DistanceMeters>
          </Trackpoint>
          <Trackpoint>
            <Time>2022-07-17T13:18:19.000Z</Time>
            <Position>
              <LatitudeDegrees>43.48052130080759525299072265625</LatitudeDegrees>
              <LongitudeDegrees>-5.43515936471521854400634765625</LongitudeDegrees>
            </Position>
            <AltitudeMeters>22.3999996185302734375</AltitudeMeters>
            <DistanceMeters>NAN</DistanceMeters>
          </Trackpoint>
          <Trackpoint>
            <Time>2022-07-17T13:18:20.000Z</Time>
            <Position>
              <LatitudeDegrees>43.48050646483898162841796875</LatitudeDegrees>
              <LongitudeDegrees>-5.43514612130820751190185546875</LongitudeDegrees>
            </Position>
            <AltitudeMeters>22.6000003814697265625</AltitudeMeters>
            <DistanceMeters>NAN</DistanceMeters>
          </Trackpoint>
          <Trackpoint>
            <Time>2022-07-17T13:18:27.000Z</Time>
            <Position>
              <LatitudeDegrees>43.48038199357688426971435546875</LatitudeDegrees>
              <LongitudeDegrees>-5.4350608773529529571533203125</LongitudeDegrees>
            </Position>
            <AltitudeMeters>22.6000003814697265625</AltitudeMeters>
            <DistanceMeters>NAN</DistanceMeters>
          </Trackpoint>
          <Trackpoint>
            <Time>2022-07-17T13:18:33.000Z</Time>
            <Position>
              <LatitudeDegrees>43.48024955950677394866943359375</LatitudeDegrees>
              <LongitudeDegrees>-5.4350105859339237213134765625</LongitudeDegrees>
            </Position>
            <AltitudeMeters>22.799999237060546875</AltitudeMeters>
            <DistanceMeters>NAN</DistanceMeters>
          </Trackpoint>
          <Trackpoint>
            <Time>2022-07-17T13:18:38.000Z</Time>
            <Position>
              <LatitudeDegrees>43.480150401592254638671875</LatitudeDegrees>
              <LongitudeDegrees>-5.4349911399185657501220703125</LongitudeDegrees>
            </Position>
            <AltitudeMeters>22.799999237060546875</AltitudeMeters>
            <DistanceMeters>NAN</DistanceMeters>
          </Trackpoint>
          <Trackpoint>
            <Time>2022-07-17T13:18:39.000Z</Time>
            <Position>
              <LatitudeDegrees>43.48013338632881641387939453125</LatitudeDegrees>
              <LongitudeDegrees>-5.43499306775629520416259765625</LongitudeDegrees>
            </Position>
            <AltitudeMeters>22.799999237060546875</AltitudeMeters>
            <DistanceMeters>NAN</DistanceMeters>
          </Trackpoint>
          <Trackpoint>
            <Time>2022-07-17T13:18:45.000Z</Time>
            <Position>
              <LatitudeDegrees>43.48008267581462860107421875</LatitudeDegrees>
              <LongitudeDegrees>-5.4349961690604686737060546875</LongitudeDegrees>
            </Position>
            <AltitudeMeters>23</AltitudeMeters>
            <DistanceMeters>NAN</DistanceMeters>
          </Trackpoint>
          <Trackpoint>
            <Time>2022-07-17T13:19:10.000Z</Time>
            <Position>
              <LatitudeDegrees>43.48004914820194244384765625</LatitudeDegrees>
              <LongitudeDegrees>-5.434999354183673858642578125</LongitudeDegrees>
            </Position>
            <AltitudeMeters>23.200000762939453125</AltitudeMeters>
            <DistanceMeters>NAN</DistanceMeters>
          </Trackpoint>
          <Trackpoint>
            <Time>2022-07-17T13:19:13.000Z</Time>
            <Position>
              <LatitudeDegrees>43.4799921512603759765625</LatitudeDegrees>
              <LongitudeDegrees>-5.435042269527912139892578125</LongitudeDegrees>
            </Position>
            <AltitudeMeters>23.200000762939453125</AltitudeMeters>
            <DistanceMeters>NAN</DistanceMeters>
          </Trackpoint>
          <Trackpoint>
            <Time>2022-07-17T13:19:15.000Z</Time>
            <Position>
              <LatitudeDegrees>43.4799728728830814361572265625</LatitudeDegrees>
              <LongitudeDegrees>-5.4350607097148895263671875</LongitudeDegrees>
            </Position>
            <AltitudeMeters>23.200000762939453125</AltitudeMeters>
            <DistanceMeters>NAN</DistanceMeters>
          </Trackpoint>
          <Trackpoint>
            <Time>2022-07-17T13:19:18.000Z</Time>
            <Position>
              <LatitudeDegrees>43.4799369983375072479248046875</LatitudeDegrees>
              <LongitudeDegrees>-5.4350702650845050811767578125</LongitudeDegrees>
            </Position>
            <AltitudeMeters>23</AltitudeMeters>
            <DistanceMeters>NAN</DistanceMeters>
          </Trackpoint>
          <Trackpoint>
            <Time>2022-07-17T13:19:19.000Z</Time>
            <Position>
              <LatitudeDegrees>43.47992786206305027008056640625</LatitudeDegrees>
              <LongitudeDegrees>-5.435075461864471435546875</LongitudeDegrees>
            </Position>
            <AltitudeMeters>23</AltitudeMeters>
            <DistanceMeters>NAN</DistanceMeters>
          </Trackpoint>
          <Trackpoint>
            <Time>2022-07-17T13:19:22.000Z</Time>
            <Position>
              <LatitudeDegrees>43.4799255989491939544677734375</LatitudeDegrees>
              <LongitudeDegrees>-5.43507923372089862823486328125</LongitudeDegrees>
            </Position>
            <AltitudeMeters>23</AltitudeMeters>
            <DistanceMeters>NAN</DistanceMeters>
          </Trackpoint>
          <Trackpoint>
            <Time>2022-07-17T13:19:23.000Z</Time>
            <Position>
              <LatitudeDegrees>43.4799333103001117706298828125</LatitudeDegrees>
              <LongitudeDegrees>-5.4350595362484455108642578125</LongitudeDegrees>
            </Position>
            <AltitudeMeters>23</AltitudeMeters>
            <DistanceMeters>NAN</DistanceMeters>
          </Trackpoint>
          <Trackpoint>
            <Time>2022-07-17T13:19:27.000Z</Time>
            <Position>
              <LatitudeDegrees>43.4799919836223125457763671875</LatitudeDegrees>
              <LongitudeDegrees>-5.43498284183442592620849609375</LongitudeDegrees>
            </Position>
            <AltitudeMeters>23</AltitudeMeters>
            <DistanceMeters>NAN</DistanceMeters>
          </Trackpoint>
          <Trackpoint>
            <Time>2022-07-17T13:19:32.000Z</Time>
            <Position>
              <LatitudeDegrees>43.4800184704363346099853515625</LatitudeDegrees>
              <LongitudeDegrees>-5.434861890971660614013671875</LongitudeDegrees>
            </Position>
            <AltitudeMeters>23.200000762939453125</AltitudeMeters>
            <DistanceMeters>NAN</DistanceMeters>
          </Trackpoint>
          <Trackpoint>
            <Time>2022-07-17T13:19:33.000Z</Time>
            <Position>
              <LatitudeDegrees>43.48001520149409770965576171875</LatitudeDegrees>
              <LongitudeDegrees>-5.434849150478839874267578125</LongitudeDegrees>
            </Position>
            <AltitudeMeters>23.200000762939453125</AltitudeMeters>
            <DistanceMeters>NAN</DistanceMeters>
          </Trackpoint>
          <Trackpoint>
            <Time>2022-07-17T13:19:36.000Z</Time>
            <Position>
              <LatitudeDegrees>43.47999860532581806182861328125</LatitudeDegrees>
              <LongitudeDegrees>-5.434823334217071533203125</LongitudeDegrees>
            </Position>
            <AltitudeMeters>23.3999996185302734375</AltitudeMeters>
            <DistanceMeters>NAN</DistanceMeters>
          </Trackpoint>
          <Trackpoint>
            <Time>2022-07-17T13:19:37.000Z</Time>
            <Position>
              <LatitudeDegrees>43.47999340854585170745849609375</LatitudeDegrees>
              <LongitudeDegrees>-5.43481252156198024749755859375</LongitudeDegrees>
            </Position>
            <AltitudeMeters>23.3999996185302734375</AltitudeMeters>
            <DistanceMeters>NAN</DistanceMeters>
          </Trackpoint>
          <Trackpoint>
            <Time>2022-07-17T13:19:39.000Z</Time>
            <Position>
              <LatitudeDegrees>43.47996599972248077392578125</LatitudeDegrees>
              <LongitudeDegrees>-5.43479139916598796844482421875</LongitudeDegrees>
            </Position>
            <AltitudeMeters>23.3999996185302734375</AltitudeMeters>
            <DistanceMeters>NAN</DistanceMeters>
          </Trackpoint>
          <Trackpoint>
            <Time>2022-07-17T13:19:41.000Z</Time>
            <Position>
              <LatitudeDegrees>43.479959964752197265625</LatitudeDegrees>
              <LongitudeDegrees>-5.4347752220928668975830078125</LongitudeDegrees>
            </Position>
            <AltitudeMeters>23.3999996185302734375</AltitudeMeters>
            <DistanceMeters>NAN</DistanceMeters>
          </Trackpoint>
          <Trackpoint>
            <Time>2022-07-17T13:19:43.000Z</Time>
            <Position>
              <LatitudeDegrees>43.4799564443528652191162109375</LatitudeDegrees>
              <LongitudeDegrees>-5.434772707521915435791015625</LongitudeDegrees>
            </Position>
            <AltitudeMeters>23.6000003814697265625</AltitudeMeters>
            <DistanceMeters>NAN</DistanceMeters>
          </Trackpoint>
          <Trackpoint>
            <Time>2022-07-17T13:20:12.000Z</Time>
            <Position>
              <LatitudeDegrees>43.4799141995608806610107421875</LatitudeDegrees>
              <LongitudeDegrees>-5.434660054743289947509765625</LongitudeDegrees>
            </Position>
            <AltitudeMeters>23.3999996185302734375</AltitudeMeters>
            <DistanceMeters>NAN</DistanceMeters>
          </Trackpoint>
          <Trackpoint>
            <Time>2022-07-17T13:20:13.000Z</Time>
            <Position>
              <LatitudeDegrees>43.47989223897457122802734375</LatitudeDegrees>
              <LongitudeDegrees>-5.4346310533583164215087890625</LongitudeDegrees>
            </Position>
            <AltitudeMeters>23.6000003814697265625</AltitudeMeters>
            <DistanceMeters>NAN</DistanceMeters>
          </Trackpoint>
          <Trackpoint>
            <Time>2022-07-17T13:20:14.000Z</Time>
            <Position>
              <LatitudeDegrees>43.47986466251313686370849609375</LatitudeDegrees>
              <LongitudeDegrees>-5.43460280634462833404541015625</LongitudeDegrees>
            </Position>
            <AltitudeMeters>23.6000003814697265625</AltitudeMeters>
            <DistanceMeters>NAN</DistanceMeters>
          </Trackpoint>
          <Trackpoint>
            <Time>2022-07-17T13:20:18.000Z</Time>
            <Position>
              <LatitudeDegrees>43.47983767278492450714111328125</LatitudeDegrees>
              <LongitudeDegrees>-5.43453960679471492767333984375</LongitudeDegrees>
            </Position>
            <AltitudeMeters>23.799999237060546875</AltitudeMeters>
            <DistanceMeters>NAN</DistanceMeters>
          </Trackpoint>
          <Trackpoint>
            <Time>2022-07-17T13:20:19.000Z</Time>
            <Position>
              <LatitudeDegrees>43.4798377566039562225341796875</LatitudeDegrees>
              <LongitudeDegrees>-5.43452686630189418792724609375</LongitudeDegrees>
            </Position>
            <AltitudeMeters>23.799999237060546875</AltitudeMeters>
            <DistanceMeters>NAN</DistanceMeters>
          </Trackpoint>
          <Trackpoint>
            <Time>2022-07-17T13:20:20.000Z</Time>
            <Position>
              <LatitudeDegrees>43.47984102554619312286376953125</LatitudeDegrees>
              <LongitudeDegrees>-5.43450926430523395538330078125</LongitudeDegrees>
            </Position>
            <AltitudeMeters>23.799999237060546875</AltitudeMeters>
            <DistanceMeters>NAN</DistanceMeters>
          </Trackpoint>
          <Trackpoint>
            <Time>2022-07-17T13:20:21.000Z</Time>
            <Position>
              <LatitudeDegrees>43.4798427857458591461181640625</LatitudeDegrees>
              <LongitudeDegrees>-5.434490405023097991943359375</LongitudeDegrees>
            </Position>
            <AltitudeMeters>24</AltitudeMeters>
            <DistanceMeters>NAN</DistanceMeters>
          </Trackpoint>
          <Trackpoint>
            <Time>2022-07-17T13:20:23.000Z</Time>
            <Position>
              <LatitudeDegrees>43.4798360802233219146728515625</LatitudeDegrees>
              <LongitudeDegrees>-5.4344697855412960052490234375</LongitudeDegrees>
            </Position>
            <AltitudeMeters>24.200000762939453125</AltitudeMeters>
            <DistanceMeters>NAN</DistanceMeters>
          </Trackpoint>
          <Trackpoint>
            <Time>2022-07-17T13:20:29.000Z</Time>
            <Position>
              <LatitudeDegrees>43.4798209927976131439208984375</LatitudeDegrees>
              <LongitudeDegrees>-5.43440180830657482147216796875</LongitudeDegrees>
            </Position>
            <AltitudeMeters>24.799999237060546875</AltitudeMeters>
            <DistanceMeters>NAN</DistanceMeters>
          </Trackpoint>
          <Trackpoint>
            <Time>2022-07-17T13:20:32.000Z</Time>
            <Position>
              <LatitudeDegrees>43.47978101111948490142822265625</LatitudeDegrees>
              <LongitudeDegrees>-5.434316061437129974365234375</LongitudeDegrees>
            </Position>
            <AltitudeMeters>25</AltitudeMeters>
            <DistanceMeters>NAN</DistanceMeters>
          </Trackpoint>
          <Trackpoint>
            <Time>2022-07-17T13:20:35.000Z</Time>
            <Position>
              <LatitudeDegrees>43.47974379546940326690673828125</LatitudeDegrees>
              <LongitudeDegrees>-5.43422411195933818817138671875</LongitudeDegrees>
            </Position>
            <AltitudeMeters>25.3999996185302734375</AltitudeMeters>
            <DistanceMeters>NAN</DistanceMeters>
          </Trackpoint>
          <Trackpoint>
            <Time>2022-07-17T13:20:36.000Z</Time>
            <Position>
              <LatitudeDegrees>43.47973474301397800445556640625</LatitudeDegrees>
              <LongitudeDegrees>-5.43419125489890575408935546875</LongitudeDegrees>
            </Position>
            <AltitudeMeters>25.6000003814697265625</AltitudeMeters>
            <DistanceMeters>NAN</DistanceMeters>
          </Trackpoint>
          <Trackpoint>
            <Time>2022-07-17T13:20:41.000Z</Time>
            <Position>
              <LatitudeDegrees>43.47967573441565036773681640625</LatitudeDegrees>
              <LongitudeDegrees>-5.43404809199273586273193359375</LongitudeDegrees>
            </Position>
            <AltitudeMeters>26</AltitudeMeters>
            <DistanceMeters>NAN</DistanceMeters>
          </Trackpoint>
          <Trackpoint>
            <Time>2022-07-17T13:20:44.000Z</Time>
            <Position>
              <LatitudeDegrees>43.479645140469074249267578125</LatitudeDegrees>
              <LongitudeDegrees>-5.433970056474208831787109375</LongitudeDegrees>
            </Position>
            <AltitudeMeters>26.6000003814697265625</AltitudeMeters>
            <DistanceMeters>NAN</DistanceMeters>
          </Trackpoint>
          <Trackpoint>
            <Time>2022-07-17T13:20:46.000Z</Time>
            <Position>
              <LatitudeDegrees>43.47960054874420166015625</LatitudeDegrees>
              <LongitudeDegrees>-5.4339155741035938262939453125</LongitudeDegrees>
            </Position>
            <AltitudeMeters>26.799999237060546875</AltitudeMeters>
            <DistanceMeters>NAN</DistanceMeters>
          </Trackpoint>
          <Trackpoint>
            <Time>2022-07-17T13:20:47.000Z</Time>
            <Position>
              <LatitudeDegrees>43.47957967780530452728271484375</LatitudeDegrees>
              <LongitudeDegrees>-5.43387844227254390716552734375</LongitudeDegrees>
            </Position>
            <AltitudeMeters>26.799999237060546875</AltitudeMeters>
            <DistanceMeters>NAN</DistanceMeters>
          </Trackpoint>
          <Trackpoint>
            <Time>2022-07-17T13:20:49.000Z</Time>
            <Position>
              <LatitudeDegrees>43.47955738194286823272705078125</LatitudeDegrees>
              <LongitudeDegrees>-5.4338268935680389404296875</LongitudeDegrees>
            </Position>
            <AltitudeMeters>27</AltitudeMeters>
            <DistanceMeters>NAN</DistanceMeters>
          </Trackpoint>
          <Trackpoint>
            <Time>2022-07-17T13:20:51.000Z</Time>
            <Position>
              <LatitudeDegrees>43.47952737472951412200927734375</LatitudeDegrees>
              <LongitudeDegrees>-5.43381054885685443878173828125</LongitudeDegrees>
            </Position>
            <AltitudeMeters>27</AltitudeMeters>
            <DistanceMeters>NAN</DistanceMeters>
          </Trackpoint>
          <Trackpoint>
            <Time>2022-07-17T13:20:52.000Z</Time>
            <Position>
              <LatitudeDegrees>43.479513041675090789794921875</LatitudeDegrees>
              <LongitudeDegrees>-5.4338035918772220611572265625</LongitudeDegrees>
            </Position>
            <AltitudeMeters>27.200000762939453125</AltitudeMeters>
            <DistanceMeters>NAN</DistanceMeters>
          </Trackpoint>
          <Trackpoint>
            <Time>2022-07-17T13:20:56.000Z</Time>
            <Position>
              <LatitudeDegrees>43.47948965616524219512939453125</LatitudeDegrees>
              <LongitudeDegrees>-5.43379001319408416748046875</LongitudeDegrees>
            </Position>
            <AltitudeMeters>27.3999996185302734375</AltitudeMeters>
            <DistanceMeters>NAN</DistanceMeters>
          </Trackpoint>
          <Trackpoint>
            <Time>2022-07-17T13:20:57.000Z</Time>
            <Position>
              <LatitudeDegrees>43.47948965616524219512939453125</LatitudeDegrees>
              <LongitudeDegrees>-5.43379001319408416748046875</LongitudeDegrees>
            </Position>
            <AltitudeMeters>27.3999996185302734375</AltitudeMeters>
            <DistanceMeters>NAN</DistanceMeters>
          </Trackpoint>
          <Trackpoint>
            <Time>2022-07-17T13:21:38.000Z</Time>
            <Position>
              <LatitudeDegrees>43.47948630340397357940673828125</LatitudeDegrees>
              <LongitudeDegrees>-5.4338287375867366790771484375</LongitudeDegrees>
            </Position>
            <AltitudeMeters>27.200000762939453125</AltitudeMeters>
            <DistanceMeters>NAN</DistanceMeters>
          </Trackpoint>
          <Trackpoint>
            <Time>2022-07-17T13:21:40.000Z</Time>
            <Position>
              <LatitudeDegrees>43.4795386902987957000732421875</LatitudeDegrees>
              <LongitudeDegrees>-5.43383820913732051849365234375</LongitudeDegrees>
            </Position>
            <AltitudeMeters>27.200000762939453125</AltitudeMeters>
            <DistanceMeters>NAN</DistanceMeters>
          </Trackpoint>
          <Trackpoint>
            <Time>2022-07-17T13:21:42.000Z</Time>
            <Position>
              <LatitudeDegrees>43.47954028286039829254150390625</LatitudeDegrees>
              <LongitudeDegrees>-5.43377081863582134246826171875</LongitudeDegrees>
            </Position>
            <AltitudeMeters>27.200000762939453125</AltitudeMeters>
            <DistanceMeters>NAN</DistanceMeters>
          </Trackpoint>
          <Trackpoint>
            <Time>2022-07-17T13:21:44.000Z</Time>
            <Position>
              <LatitudeDegrees>43.47947557456791400909423828125</LatitudeDegrees>
              <LongitudeDegrees>-5.43372170068323612213134765625</LongitudeDegrees>
            </Position>
            <AltitudeMeters>27.200000762939453125</AltitudeMeters>
            <DistanceMeters>NAN</DistanceMeters>
          </Trackpoint>
          <Trackpoint>
            <Time>2022-07-17T13:21:46.000Z</Time>
            <Position>
              <LatitudeDegrees>43.47944925539195537567138671875</LatitudeDegrees>
              <LongitudeDegrees>-5.43376319110393524169921875</LongitudeDegrees>
            </Position>
            <AltitudeMeters>27.3999996185302734375</AltitudeMeters>
            <DistanceMeters>NAN</DistanceMeters>
          </Trackpoint>
          <Trackpoint>
            <Time>2022-07-17T13:21:48.000Z</Time>
            <Position>
              <LatitudeDegrees>43.47947808913886547088623046875</LatitudeDegrees>
              <LongitudeDegrees>-5.433787666261196136474609375</LongitudeDegrees>
            </Position>
            <AltitudeMeters>27.3999996185302734375</AltitudeMeters>
            <DistanceMeters>NAN</DistanceMeters>
          </Trackpoint>
          <Trackpoint>
            <Time>2022-07-17T13:21:52.000Z</Time>
            <Position>
              <LatitudeDegrees>43.4795225970447063446044921875</LatitudeDegrees>
              <LongitudeDegrees>-5.4337388835847377777099609375</LongitudeDegrees>
            </Position>
            <AltitudeMeters>27.799999237060546875</AltitudeMeters>
            <DistanceMeters>NAN</DistanceMeters>
          </Trackpoint>
          <Trackpoint>
            <Time>2022-07-17T13:21:53.000Z</Time>
            <Position>
              <LatitudeDegrees>43.47953860647976398468017578125</LatitudeDegrees>
              <LongitudeDegrees>-5.43373368680477142333984375</LongitudeDegrees>
            </Position>
            <AltitudeMeters>27.799999237060546875</AltitudeMeters>
            <DistanceMeters>NAN</DistanceMeters>
          </Trackpoint>
          <Trackpoint>
            <Time>2022-07-17T13:23:49.000Z</Time>
            <Position>
              <LatitudeDegrees>43.4796701185405254364013671875</LatitudeDegrees>
              <LongitudeDegrees>-5.43359278701245784759521484375</LongitudeDegrees>
            </Position>
            <AltitudeMeters>27.200000762939453125</AltitudeMeters>
            <DistanceMeters>NAN</DistanceMeters>
          </Trackpoint>
          <Trackpoint>
            <Time>2022-07-17T13:23:51.000Z</Time>
            <Position>
              <LatitudeDegrees>43.4796654246747493743896484375</LatitudeDegrees>
              <LongitudeDegrees>-5.43363980948925018310546875</LongitudeDegrees>
            </Position>
            <AltitudeMeters>27.200000762939453125</AltitudeMeters>
            <DistanceMeters>NAN</DistanceMeters>
          </Trackpoint>
          <Trackpoint>
            <Time>2022-07-17T13:23:55.000Z</Time>
            <Position>
              <LatitudeDegrees>43.4796637482941150665283203125</LatitudeDegrees>
              <LongitudeDegrees>-5.43384944088757038116455078125</LongitudeDegrees>
            </Position>
            <AltitudeMeters>28.6000003814697265625</AltitudeMeters>
            <DistanceMeters>NAN</DistanceMeters>
          </Trackpoint>
          <Trackpoint>
            <Time>2022-07-17T13:23:56.000Z</Time>
            <Position>
              <LatitudeDegrees>43.4796701185405254364013671875</LatitudeDegrees>
              <LongitudeDegrees>-5.43390878476202487945556640625</LongitudeDegrees>
            </Position>
            <AltitudeMeters>28.799999237060546875</AltitudeMeters>
            <DistanceMeters>NAN</DistanceMeters>
          </Trackpoint>
          <Trackpoint>
            <Time>2022-07-17T13:24:01.000Z</Time>
            <Position>
              <LatitudeDegrees>43.47975050099194049835205078125</LatitudeDegrees>
              <LongitudeDegrees>-5.43413995765149593353271484375</LongitudeDegrees>
            </Position>
            <AltitudeMeters>28.799999237060546875</AltitudeMeters>
            <DistanceMeters>NAN</DistanceMeters>
          </Trackpoint>
          <Trackpoint>
            <Time>2022-07-17T13:24:06.000Z</Time>
            <Position>
              <LatitudeDegrees>43.4798582084476947784423828125</LatitudeDegrees>
              <LongitudeDegrees>-5.434391833841800689697265625</LongitudeDegrees>
            </Position>
            <AltitudeMeters>28.6000003814697265625</AltitudeMeters>
            <DistanceMeters>NAN</DistanceMeters>
          </Trackpoint>
          <Trackpoint>
            <Time>2022-07-17T13:24:09.000Z</Time>
            <Position>
              <LatitudeDegrees>43.47987170331180095672607421875</LatitudeDegrees>
              <LongitudeDegrees>-5.43453457765281200408935546875</LongitudeDegrees>
            </Position>
            <AltitudeMeters>27.6000003814697265625</AltitudeMeters>
            <DistanceMeters>NAN</DistanceMeters>
          </Trackpoint>
          <Trackpoint>
            <Time>2022-07-17T13:24:11.000Z</Time>
            <Position>
              <LatitudeDegrees>43.479898609220981597900390625</LatitudeDegrees>
              <LongitudeDegrees>-5.4345995374023914337158203125</LongitudeDegrees>
            </Position>
            <AltitudeMeters>27</AltitudeMeters>
            <DistanceMeters>NAN</DistanceMeters>
          </Trackpoint>
          <Trackpoint>
            <Time>2022-07-17T13:24:13.000Z</Time>
            <Position>
              <LatitudeDegrees>43.47991880960762500762939453125</LatitudeDegrees>
              <LongitudeDegrees>-5.43466173112392425537109375</LongitudeDegrees>
            </Position>
            <AltitudeMeters>26.799999237060546875</AltitudeMeters>
            <DistanceMeters>NAN</DistanceMeters>
          </Trackpoint>
          <Trackpoint>
            <Time>2022-07-17T13:24:16.000Z</Time>
            <Position>
              <LatitudeDegrees>43.4799426980316638946533203125</LatitudeDegrees>
              <LongitudeDegrees>-5.43471269309520721435546875</LongitudeDegrees>
            </Position>
            <AltitudeMeters>26.6000003814697265625</AltitudeMeters>
            <DistanceMeters>NAN</DistanceMeters>
          </Trackpoint>
          <Trackpoint>
            <Time>2022-07-17T13:24:18.000Z</Time>
            <Position>
              <LatitudeDegrees>43.4799510799348354339599609375</LatitudeDegrees>
              <LongitudeDegrees>-5.43473071418702602386474609375</LongitudeDegrees>
            </Position>
            <AltitudeMeters>26</AltitudeMeters>
            <DistanceMeters>NAN</DistanceMeters>
          </Trackpoint>
          <Trackpoint>
            <Time>2022-07-17T13:24:22.000Z</Time>
            <Position>
              <LatitudeDegrees>43.47994496114552021026611328125</LatitudeDegrees>
              <LongitudeDegrees>-5.4347393475472927093505859375</LongitudeDegrees>
            </Position>
            <AltitudeMeters>25.6000003814697265625</AltitudeMeters>
            <DistanceMeters>NAN</DistanceMeters>
          </Trackpoint>
          <Trackpoint>
            <Time>2022-07-17T13:24:24.000Z</Time>
            <Position>
              <LatitudeDegrees>43.47994496114552021026611328125</LatitudeDegrees>
              <LongitudeDegrees>-5.4347393475472927093505859375</LongitudeDegrees>
            </Position>
            <AltitudeMeters>25.3999996185302734375</AltitudeMeters>
            <DistanceMeters>NAN</DistanceMeters>
          </Trackpoint>
          <Trackpoint>
            <Time>2022-07-17T13:24:29.000Z</Time>
            <Position>
              <LatitudeDegrees>43.47994185984134674072265625</LatitudeDegrees>
              <LongitudeDegrees>-5.43473456986248493194580078125</LongitudeDegrees>
            </Position>
            <AltitudeMeters>25.6000003814697265625</AltitudeMeters>
            <DistanceMeters>NAN</DistanceMeters>
          </Trackpoint>
          <Trackpoint>
            <Time>2022-07-17T13:24:31.000Z</Time>
            <Position>
              <LatitudeDegrees>43.47994185984134674072265625</LatitudeDegrees>
              <LongitudeDegrees>-5.43473456986248493194580078125</LongitudeDegrees>
            </Position>
            <AltitudeMeters>25.799999237060546875</AltitudeMeters>
            <DistanceMeters>NAN</DistanceMeters>
          </Trackpoint>
          <Trackpoint>
            <Time>2022-07-17T13:24:56.000Z</Time>
            <Position>
              <LatitudeDegrees>43.4799396805465221405029296875</LatitudeDegrees>
              <LongitudeDegrees>-5.434747897088527679443359375</LongitudeDegrees>
            </Position>
            <AltitudeMeters>25.6000003814697265625</AltitudeMeters>
            <DistanceMeters>NAN</DistanceMeters>
          </Trackpoint>
          <Trackpoint>
            <Time>2022-07-17T13:24:58.000Z</Time>
            <Position>
              <LatitudeDegrees>43.4799121879041194915771484375</LatitudeDegrees>
              <LongitudeDegrees>-5.43475854210555553436279296875</LongitudeDegrees>
            </Position>
            <AltitudeMeters>25.6000003814697265625</AltitudeMeters>
            <DistanceMeters>NAN</DistanceMeters>
          </Trackpoint>
          <Trackpoint>
            <Time>2022-07-17T13:26:08.000Z</Time>
            <Position>
              <LatitudeDegrees>43.47976542077958583831787109375</LatitudeDegrees>
              <LongitudeDegrees>-5.43477044440805912017822265625</LongitudeDegrees>
            </Position>
            <AltitudeMeters>25.200000762939453125</AltitudeMeters>
            <DistanceMeters>NAN</DistanceMeters>
          </Trackpoint>
          <Trackpoint>
            <Time>2022-07-17T13:26:24.000Z</Time>
            <Position>
              <LatitudeDegrees>43.4798084199428558349609375</LatitudeDegrees>
              <LongitudeDegrees>-5.434771366417407989501953125</LongitudeDegrees>
            </Position>
            <AltitudeMeters>25.200000762939453125</AltitudeMeters>
            <DistanceMeters>NAN</DistanceMeters>
          </Trackpoint>
          <Trackpoint>
            <Time>2022-07-17T13:26:25.000Z</Time>
            <Position>
              <LatitudeDegrees>43.4798122756183147430419921875</LatitudeDegrees>
              <LongitudeDegrees>-5.4347576200962066650390625</LongitudeDegrees>
            </Position>
            <AltitudeMeters>25.200000762939453125</AltitudeMeters>
            <DistanceMeters>NAN</DistanceMeters>
          </Trackpoint>
          <Trackpoint>
            <Time>2022-07-17T13:26:26.000Z</Time>
            <Position>
              <LatitudeDegrees>43.47981252707540988922119140625</LatitudeDegrees>
              <LongitudeDegrees>-5.4347576200962066650390625</LongitudeDegrees>
            </Position>
            <AltitudeMeters>25.200000762939453125</AltitudeMeters>
            <DistanceMeters>NAN</DistanceMeters>
          </Trackpoint>
          <Trackpoint>
            <Time>2022-07-17T13:26:27.000Z</Time>
            <Position>
              <LatitudeDegrees>43.47979978658258914947509765625</LatitudeDegrees>
              <LongitudeDegrees>-5.43476440943777561187744140625</LongitudeDegrees>
            </Position>
            <AltitudeMeters>25.200000762939453125</AltitudeMeters>
            <DistanceMeters>NAN</DistanceMeters>
          </Trackpoint>
          <Trackpoint>
            <Time>2022-07-17T13:26:32.000Z</Time>
            <Position>
              <LatitudeDegrees>43.479816131293773651123046875</LatitudeDegrees>
              <LongitudeDegrees>-5.43476994149386882781982421875</LongitudeDegrees>
            </Position>
            <AltitudeMeters>25.200000762939453125</AltitudeMeters>
            <DistanceMeters>NAN</DistanceMeters>
          </Trackpoint>
          <Trackpoint>
            <Time>2022-07-17T13:26:36.000Z</Time>
            <Position>
              <LatitudeDegrees>43.4798781573772430419921875</LatitudeDegrees>
              <LongitudeDegrees>-5.43483112938702106475830078125</LongitudeDegrees>
            </Position>
            <AltitudeMeters>25.200000762939453125</AltitudeMeters>
            <DistanceMeters>NAN</DistanceMeters>
          </Trackpoint>
          <Trackpoint>
            <Time>2022-07-17T13:26:37.000Z</Time>
            <Position>
              <LatitudeDegrees>43.47990187816321849822998046875</LatitudeDegrees>
              <LongitudeDegrees>-5.43486692011356353759765625</LongitudeDegrees>
            </Position>
            <AltitudeMeters>25.200000762939453125</AltitudeMeters>
            <DistanceMeters>NAN</DistanceMeters>
          </Trackpoint>
          <Trackpoint>
            <Time>2022-07-17T13:26:38.000Z</Time>
            <Position>
              <LatitudeDegrees>43.479928113520145416259765625</LatitudeDegrees>
              <LongitudeDegrees>-5.43488837778568267822265625</LongitudeDegrees>
            </Position>
            <AltitudeMeters>25.3999996185302734375</AltitudeMeters>
            <DistanceMeters>NAN</DistanceMeters>
          </Trackpoint>
          <Trackpoint>
            <Time>2022-07-17T13:26:41.000Z</Time>
            <Position>
              <LatitudeDegrees>43.47996105439960956573486328125</LatitudeDegrees>
              <LongitudeDegrees>-5.4348540119826793670654296875</LongitudeDegrees>
            </Position>
            <AltitudeMeters>25.6000003814697265625</AltitudeMeters>
            <DistanceMeters>NAN</DistanceMeters>
          </Trackpoint>
          <Trackpoint>
            <Time>2022-07-17T13:26:47.000Z</Time>
            <Position>
              <LatitudeDegrees>43.47986700944602489471435546875</LatitudeDegrees>
              <LongitudeDegrees>-5.43479324318468570709228515625</LongitudeDegrees>
            </Position>
            <AltitudeMeters>26</AltitudeMeters>
            <DistanceMeters>NAN</DistanceMeters>
          </Trackpoint>
          <Trackpoint>
            <Time>2022-07-17T13:26:50.000Z</Time>
            <Position>
              <LatitudeDegrees>43.4798488207161426544189453125</LatitudeDegrees>
              <LongitudeDegrees>-5.43477983213961124420166015625</LongitudeDegrees>
            </Position>
            <AltitudeMeters>26.3999996185302734375</AltitudeMeters>
            <DistanceMeters>NAN</DistanceMeters>
          </Trackpoint>
          <Trackpoint>
            <Time>2022-07-17T13:26:53.000Z</Time>
            <Position>
              <LatitudeDegrees>43.47984069027006626129150390625</LatitudeDegrees>
              <LongitudeDegrees>-5.43479726649820804595947265625</LongitudeDegrees>
            </Position>
            <AltitudeMeters>26.3999996185302734375</AltitudeMeters>
            <DistanceMeters>NAN</DistanceMeters>
          </Trackpoint>
          <Trackpoint>
            <Time>2022-07-17T13:26:58.000Z</Time>
            <Position>
              <LatitudeDegrees>43.47983247600495815277099609375</LatitudeDegrees>
              <LongitudeDegrees>-5.4347718693315982818603515625</LongitudeDegrees>
            </Position>
            <AltitudeMeters>26.200000762939453125</AltitudeMeters>
            <DistanceMeters>NAN</DistanceMeters>
          </Trackpoint>
          <Trackpoint>
            <Time>2022-07-17T13:27:03.000Z</Time>
            <Position>
              <LatitudeDegrees>43.4798084199428558349609375</LatitudeDegrees>
              <LongitudeDegrees>-5.43473104946315288543701171875</LongitudeDegrees>
            </Position>
            <AltitudeMeters>26</AltitudeMeters>
            <DistanceMeters>NAN</DistanceMeters>
          </Trackpoint>
          <Trackpoint>
            <Time>2022-07-17T13:27:07.000Z</Time>
            <Position>
              <LatitudeDegrees>43.479802049696445465087890625</LatitudeDegrees>
              <LongitudeDegrees>-5.43471881188452243804931640625</LongitudeDegrees>
            </Position>
            <AltitudeMeters>26</AltitudeMeters>
            <DistanceMeters>NAN</DistanceMeters>
          </Trackpoint>
          <Trackpoint>
            <Time>2022-07-17T13:27:08.000Z</Time>
            <Position>
              <LatitudeDegrees>43.47980028949677944183349609375</LatitudeDegrees>
              <LongitudeDegrees>-5.43471277691423892974853515625</LongitudeDegrees>
            </Position>
            <AltitudeMeters>26</AltitudeMeters>
            <DistanceMeters>NAN</DistanceMeters>
          </Trackpoint>
          <Trackpoint>
            <Time>2022-07-17T13:27:11.000Z</Time>
            <Position>
              <LatitudeDegrees>43.4798025526106357574462890625</LatitudeDegrees>
              <LongitudeDegrees>-5.43473021127283573150634765625</LongitudeDegrees>
            </Position>
            <AltitudeMeters>26</AltitudeMeters>
            <DistanceMeters>NAN</DistanceMeters>
          </Trackpoint>
          <Trackpoint>
            <Time>2022-07-17T13:27:12.000Z</Time>
            <Position>
              <LatitudeDegrees>43.47980330698192119598388671875</LatitudeDegrees>
              <LongitudeDegrees>-5.4347319714725017547607421875</LongitudeDegrees>
            </Position>
            <AltitudeMeters>26</AltitudeMeters>
            <DistanceMeters>NAN</DistanceMeters>
          </Trackpoint>
          <Trackpoint>
            <Time>2022-07-17T13:27:16.000Z</Time>
            <Position>
              <LatitudeDegrees>43.479795344173908233642578125</LatitudeDegrees>
              <LongitudeDegrees>-5.43471663258969783782958984375</LongitudeDegrees>
            </Position>
            <AltitudeMeters>26</AltitudeMeters>
            <DistanceMeters>NAN</DistanceMeters>
          </Trackpoint>
          <Trackpoint>
            <Time>2022-07-17T13:27:18.000Z</Time>
            <Position>
              <LatitudeDegrees>43.4797797538340091705322265625</LatitudeDegrees>
              <LongitudeDegrees>-5.4347071610391139984130859375</LongitudeDegrees>
            </Position>
            <AltitudeMeters>26</AltitudeMeters>
            <DistanceMeters>NAN</DistanceMeters>
          </Trackpoint>
          <Trackpoint>
            <Time>2022-07-17T13:27:20.000Z</Time>
            <Position>
              <LatitudeDegrees>43.47978687845170497894287109375</LatitudeDegrees>
              <LongitudeDegrees>-5.43469282798469066619873046875</LongitudeDegrees>
            </Position>
            <AltitudeMeters>26.200000762939453125</AltitudeMeters>
            <DistanceMeters>NAN</DistanceMeters>
          </Trackpoint>
          <Trackpoint>
            <Time>2022-07-17T13:27:22.000Z</Time>
            <Position>
              <LatitudeDegrees>43.47982090897858142852783203125</LatitudeDegrees>
              <LongitudeDegrees>-5.43470464646816253662109375</LongitudeDegrees>
            </Position>
            <AltitudeMeters>26.6000003814697265625</AltitudeMeters>
            <DistanceMeters>NAN</DistanceMeters>
          </Trackpoint>
          <Trackpoint>
            <Time>2022-07-17T13:27:23.000Z</Time>
            <Position>
              <LatitudeDegrees>43.47982627339661121368408203125</LatitudeDegrees>
              <LongitudeDegrees>-5.43471193872392177581787109375</LongitudeDegrees>
            </Position>
            <AltitudeMeters>26.6000003814697265625</AltitudeMeters>
            <DistanceMeters>NAN</DistanceMeters>
          </Trackpoint>
          <Trackpoint>
            <Time>2022-07-17T13:27:26.000Z</Time>
            <Position>
              <LatitudeDegrees>43.479905985295772552490234375</LatitudeDegrees>
              <LongitudeDegrees>-5.43471311219036579132080078125</LongitudeDegrees>
            </Position>
            <AltitudeMeters>26.3999996185302734375</AltitudeMeters>
            <DistanceMeters>NAN</DistanceMeters>
          </Trackpoint>
          <Trackpoint>
            <Time>2022-07-17T13:27:28.000Z</Time>
            <Position>
              <LatitudeDegrees>43.4799128584563732147216796875</LatitudeDegrees>
              <LongitudeDegrees>-5.43470808304846286773681640625</LongitudeDegrees>
            </Position>
            <AltitudeMeters>26.200000762939453125</AltitudeMeters>
            <DistanceMeters>NAN</DistanceMeters>
          </Trackpoint>
          <Trackpoint>
            <Time>2022-07-17T13:30:04.000Z</Time>
            <Position>
              <LatitudeDegrees>43.479968346655368804931640625</LatitudeDegrees>
              <LongitudeDegrees>-5.434699617326259613037109375</LongitudeDegrees>
            </Position>
            <AltitudeMeters>25.3999996185302734375</AltitudeMeters>
            <DistanceMeters>NAN</DistanceMeters>
          </Trackpoint>
          <Trackpoint>
            <Time>2022-07-17T13:30:05.000Z</Time>
            <Position>
              <LatitudeDegrees>43.47995233722031116485595703125</LatitudeDegrees>
              <LongitudeDegrees>-5.43474228121340274810791015625</LongitudeDegrees>
            </Position>
            <AltitudeMeters>25.3999996185302734375</AltitudeMeters>
            <DistanceMeters>NAN</DistanceMeters>
          </Trackpoint>
          <Trackpoint>
            <Time>2022-07-17T15:14:44.000Z</Time>
            <Position>
              <LatitudeDegrees>43.47989668138325214385986328125</LatitudeDegrees>
              <LongitudeDegrees>-5.43455620296299457550048828125</LongitudeDegrees>
            </Position>
            <AltitudeMeters>33</AltitudeMeters>
            <DistanceMeters>NAN</DistanceMeters>
          </Trackpoint>
          <Trackpoint>
            <Time>2022-07-17T15:15:26.000Z</Time>
            <Position>
              <LatitudeDegrees>43.47991528920829296112060546875</LatitudeDegrees>
              <LongitudeDegrees>-5.43456173501908779144287109375</LongitudeDegrees>
            </Position>
            <AltitudeMeters>38.200000762939453125</AltitudeMeters>
            <DistanceMeters>NAN</DistanceMeters>
          </Trackpoint>
          <Trackpoint>
            <Time>2022-07-17T15:15:29.000Z</Time>
            <Position>
              <LatitudeDegrees>43.4798857010900974273681640625</LatitudeDegrees>
              <LongitudeDegrees>-5.43453675694763660430908203125</LongitudeDegrees>
            </Position>
            <AltitudeMeters>38.40000152587890625</AltitudeMeters>
            <DistanceMeters>NAN</DistanceMeters>
          </Trackpoint>
          <Trackpoint>
            <Time>2022-07-17T15:18:27.000Z</Time>
            <Position>
              <LatitudeDegrees>43.4800020419061183929443359375</LatitudeDegrees>
              <LongitudeDegrees>-5.43490757234394550323486328125</LongitudeDegrees>
            </Position>
            <AltitudeMeters>36.799999237060546875</AltitudeMeters>
            <DistanceMeters>NAN</DistanceMeters>
          </Trackpoint>
          <Trackpoint>
            <Time>2022-07-17T15:18:28.000Z</Time>
            <Position>
              <LatitudeDegrees>43.480013273656368255615234375</LatitudeDegrees>
              <LongitudeDegrees>-5.43492768891155719757080078125</LongitudeDegrees>
            </Position>
            <AltitudeMeters>36.59999847412109375</AltitudeMeters>
            <DistanceMeters>NAN</DistanceMeters>
          </Trackpoint>
          <Trackpoint>
            <Time>2022-07-17T15:18:30.000Z</Time>
            <Position>
              <LatitudeDegrees>43.4800565242767333984375</LatitudeDegrees>
              <LongitudeDegrees>-5.4349442012608051300048828125</LongitudeDegrees>
            </Position>
            <AltitudeMeters>36.40000152587890625</AltitudeMeters>
            <DistanceMeters>NAN</DistanceMeters>
          </Trackpoint>
          <Trackpoint>
            <Time>2022-07-17T15:18:32.000Z</Time>
            <Position>
              <LatitudeDegrees>43.48010145127773284912109375</LatitudeDegrees>
              <LongitudeDegrees>-5.4349425248801708221435546875</LongitudeDegrees>
            </Position>
            <AltitudeMeters>36.40000152587890625</AltitudeMeters>
            <DistanceMeters>NAN</DistanceMeters>
          </Trackpoint>
          <Trackpoint>
            <Time>2022-07-17T15:18:38.000Z</Time>
            <Position>
              <LatitudeDegrees>43.48019692115485668182373046875</LatitudeDegrees>
              <LongitudeDegrees>-5.4349582828581333160400390625</LongitudeDegrees>
            </Position>
            <AltitudeMeters>36</AltitudeMeters>
            <DistanceMeters>NAN</DistanceMeters>
          </Trackpoint>
          <Trackpoint>
            <Time>2022-07-17T15:18:39.000Z</Time>
            <Position>
              <LatitudeDegrees>43.48019423894584178924560546875</LatitudeDegrees>
              <LongitudeDegrees>-5.43494981713593006134033203125</LongitudeDegrees>
            </Position>
            <AltitudeMeters>36</AltitudeMeters>
            <DistanceMeters>NAN</DistanceMeters>
          </Trackpoint>
          <Trackpoint>
            <Time>2022-07-17T15:18:40.000Z</Time>
            <Position>
              <LatitudeDegrees>43.48019809462130069732666015625</LatitudeDegrees>
              <LongitudeDegrees>-5.434947051107883453369140625</LongitudeDegrees>
            </Position>
            <AltitudeMeters>35.59999847412109375</AltitudeMeters>
            <DistanceMeters>NAN</DistanceMeters>
          </Trackpoint>
          <Trackpoint>
            <Time>2022-07-17T15:18:41.000Z</Time>
            <Position>
              <LatitudeDegrees>43.4802142716944217681884765625</LatitudeDegrees>
              <LongitudeDegrees>-5.4349507391452789306640625</LongitudeDegrees>
            </Position>
            <AltitudeMeters>35.40000152587890625</AltitudeMeters>
            <DistanceMeters>NAN</DistanceMeters>
          </Trackpoint>
          <Trackpoint>
            <Time>2022-07-17T15:18:43.000Z</Time>
            <Position>
              <LatitudeDegrees>43.4802806563675403594970703125</LatitudeDegrees>
              <LongitudeDegrees>-5.43498720042407512664794921875</LongitudeDegrees>
            </Position>
            <AltitudeMeters>35.200000762939453125</AltitudeMeters>
            <DistanceMeters>NAN</DistanceMeters>
          </Trackpoint>
          <Trackpoint>
            <Time>2022-07-17T15:18:45.000Z</Time>
            <Position>
              <LatitudeDegrees>43.48032466135919094085693359375</LatitudeDegrees>
              <LongitudeDegrees>-5.43501175940036773681640625</LongitudeDegrees>
            </Position>
            <AltitudeMeters>35.200000762939453125</AltitudeMeters>
            <DistanceMeters>NAN</DistanceMeters>
          </Trackpoint>
          <Trackpoint>
            <Time>2022-07-17T15:18:49.000Z</Time>
            <Position>
              <LatitudeDegrees>43.48039071075618267059326171875</LatitudeDegrees>
              <LongitudeDegrees>-5.43506347574293613433837890625</LongitudeDegrees>
            </Position>
            <AltitudeMeters>35.40000152587890625</AltitudeMeters>
            <DistanceMeters>NAN</DistanceMeters>
          </Trackpoint>
          <Trackpoint>
            <Time>2022-07-17T15:18:50.000Z</Time>
            <Position>
              <LatitudeDegrees>43.48040361888706684112548828125</LatitudeDegrees>
              <LongitudeDegrees>-5.43507236056029796600341796875</LongitudeDegrees>
            </Position>
            <AltitudeMeters>35.40000152587890625</AltitudeMeters>
            <DistanceMeters>NAN</DistanceMeters>
          </Trackpoint>
          <Trackpoint>
            <Time>2022-07-17T15:18:55.000Z</Time>
            <Position>
              <LatitudeDegrees>43.48049028776586055755615234375</LatitudeDegrees>
              <LongitudeDegrees>-5.4351319558918476104736328125</LongitudeDegrees>
            </Position>
            <AltitudeMeters>35.59999847412109375</AltitudeMeters>
            <DistanceMeters>NAN</DistanceMeters>
          </Trackpoint>
          <Trackpoint>
            <Time>2022-07-17T15:18:57.000Z</Time>
            <Position>
              <LatitudeDegrees>43.4805057942867279052734375</LatitudeDegrees>
              <LongitudeDegrees>-5.43513405136764049530029296875</LongitudeDegrees>
            </Position>
            <AltitudeMeters>35.40000152587890625</AltitudeMeters>
            <DistanceMeters>NAN</DistanceMeters>
          </Trackpoint>
          <Trackpoint>
            <Time>2022-07-17T15:19:00.000Z</Time>
            <Position>
              <LatitudeDegrees>43.4805347956717014312744140625</LatitudeDegrees>
              <LongitudeDegrees>-5.4351540841162204742431640625</LongitudeDegrees>
            </Position>
            <AltitudeMeters>35.40000152587890625</AltitudeMeters>
            <DistanceMeters>NAN</DistanceMeters>
          </Trackpoint>
          <Trackpoint>
            <Time>2022-07-17T15:19:04.000Z</Time>
            <Position>
              <LatitudeDegrees>43.48051853477954864501953125</LatitudeDegrees>
              <LongitudeDegrees>-5.4351631365716457366943359375</LongitudeDegrees>
            </Position>
            <AltitudeMeters>35.200000762939453125</AltitudeMeters>
            <DistanceMeters>NAN</DistanceMeters>
          </Trackpoint>
          <Trackpoint>
            <Time>2022-07-17T15:19:06.000Z</Time>
            <Position>
              <LatitudeDegrees>43.48048391751945018768310546875</LatitudeDegrees>
              <LongitudeDegrees>-5.4351772181689739227294921875</LongitudeDegrees>
            </Position>
            <AltitudeMeters>35.200000762939453125</AltitudeMeters>
            <DistanceMeters>NAN</DistanceMeters>
          </Trackpoint>
          <Trackpoint>
            <Time>2022-07-17T15:19:07.000Z</Time>
            <Position>
              <LatitudeDegrees>43.48046866245567798614501953125</LatitudeDegrees>
              <LongitudeDegrees>-5.43519188649952411651611328125</LongitudeDegrees>
            </Position>
            <AltitudeMeters>35.200000762939453125</AltitudeMeters>
            <DistanceMeters>NAN</DistanceMeters>
          </Trackpoint>
          <Trackpoint>
            <Time>2022-07-17T15:19:08.000Z</Time>
            <Position>
              <LatitudeDegrees>43.48045407794415950775146484375</LatitudeDegrees>
              <LongitudeDegrees>-5.4352714307606220245361328125</LongitudeDegrees>
            </Position>
            <AltitudeMeters>35.200000762939453125</AltitudeMeters>
            <DistanceMeters>NAN</DistanceMeters>
          </Trackpoint>
          <Trackpoint>
            <Time>2022-07-17T15:19:09.000Z</Time>
            <Position>
              <LatitudeDegrees>43.4804486297070980072021484375</LatitudeDegrees>
              <LongitudeDegrees>-5.435350723564624786376953125</LongitudeDegrees>
            </Position>
            <AltitudeMeters>35.200000762939453125</AltitudeMeters>
            <DistanceMeters>NAN</DistanceMeters>
          </Trackpoint>
          <Trackpoint>
            <Time>2022-07-17T15:19:11.000Z</Time>
            <Position>
              <LatitudeDegrees>43.48052415065467357635498046875</LatitudeDegrees>
              <LongitudeDegrees>-5.4353240691125392913818359375</LongitudeDegrees>
            </Position>
            <AltitudeMeters>35</AltitudeMeters>
            <DistanceMeters>NAN</DistanceMeters>
          </Trackpoint>
          <Trackpoint>
            <Time>2022-07-17T15:19:12.000Z</Time>
            <Position>
              <LatitudeDegrees>43.48054192028939723968505859375</LatitudeDegrees>
              <LongitudeDegrees>-5.43532381765544414520263671875</LongitudeDegrees>
            </Position>
            <AltitudeMeters>35</AltitudeMeters>
            <DistanceMeters>NAN</DistanceMeters>
          </Trackpoint>
          <Trackpoint>
            <Time>2022-07-17T15:19:15.000Z</Time>
            <Position>
              <LatitudeDegrees>43.4805326163768768310546875</LatitudeDegrees>
              <LongitudeDegrees>-5.4353207163512706756591796875</LongitudeDegrees>
            </Position>
            <AltitudeMeters>35</AltitudeMeters>
            <DistanceMeters>NAN</DistanceMeters>
          </Trackpoint>
          <Trackpoint>
            <Time>2022-07-17T15:19:46.000Z</Time>
            <Position>
              <LatitudeDegrees>43.48060713149607181549072265625</LatitudeDegrees>
              <LongitudeDegrees>-5.43533370830118656158447265625</LongitudeDegrees>
            </Position>
            <AltitudeMeters>34.59999847412109375</AltitudeMeters>
            <DistanceMeters>NAN</DistanceMeters>
          </Trackpoint>
          <Trackpoint>
            <Time>2022-07-17T15:19:47.000Z</Time>
            <Position>
              <LatitudeDegrees>43.48063051700592041015625</LatitudeDegrees>
              <LongitudeDegrees>-5.43534292839467525482177734375</LongitudeDegrees>
            </Position>
            <AltitudeMeters>34.59999847412109375</AltitudeMeters>
            <DistanceMeters>NAN</DistanceMeters>
          </Trackpoint>
          <Trackpoint>
            <Time>2022-07-17T15:19:48.000Z</Time>
            <Position>
              <LatitudeDegrees>43.4806565009057521820068359375</LatitudeDegrees>
              <LongitudeDegrees>-5.435354076325893402099609375</LongitudeDegrees>
            </Position>
            <AltitudeMeters>34.59999847412109375</AltitudeMeters>
            <DistanceMeters>NAN</DistanceMeters>
          </Trackpoint>
          <Trackpoint>
            <Time>2022-07-17T15:19:50.000Z</Time>
            <Position>
              <LatitudeDegrees>43.480675108730792999267578125</LatitudeDegrees>
              <LongitudeDegrees>-5.43538316152989864349365234375</LongitudeDegrees>
            </Position>
            <AltitudeMeters>34.59999847412109375</AltitudeMeters>
            <DistanceMeters>NAN</DistanceMeters>
          </Trackpoint>
          <Trackpoint>
            <Time>2022-07-17T15:19:52.000Z</Time>
            <Position>
              <LatitudeDegrees>43.4806990809738636016845703125</LatitudeDegrees>
              <LongitudeDegrees>-5.43541811406612396240234375</LongitudeDegrees>
            </Position>
            <AltitudeMeters>34.59999847412109375</AltitudeMeters>
            <DistanceMeters>NAN</DistanceMeters>
          </Trackpoint>
          <Trackpoint>
            <Time>2022-07-17T15:19:57.000Z</Time>
            <Position>
              <LatitudeDegrees>43.48084484227001667022705078125</LatitudeDegrees>
              <LongitudeDegrees>-5.43549162335693836212158203125</LongitudeDegrees>
            </Position>
            <AltitudeMeters>34.59999847412109375</AltitudeMeters>
            <DistanceMeters>NAN</DistanceMeters>
          </Trackpoint>
          <Trackpoint>
            <Time>2022-07-17T15:20:01.000Z</Time>
            <Position>
              <LatitudeDegrees>43.48096788860857486724853515625</LatitudeDegrees>
              <LongitudeDegrees>-5.43556706048548221588134765625</LongitudeDegrees>
            </Position>
            <AltitudeMeters>34.59999847412109375</AltitudeMeters>
            <DistanceMeters>NAN</DistanceMeters>
          </Trackpoint>
          <Trackpoint>
            <Time>2022-07-17T15:20:06.000Z</Time>
            <Position>
              <LatitudeDegrees>43.48109655082225799560546875</LatitudeDegrees>
              <LongitudeDegrees>-5.43567560613155364990234375</LongitudeDegrees>
            </Position>
            <AltitudeMeters>34.40000152587890625</AltitudeMeters>
            <DistanceMeters>NAN</DistanceMeters>
          </Trackpoint>
          <Trackpoint>
            <Time>2022-07-17T15:20:12.000Z</Time>
            <Position>
              <LatitudeDegrees>43.481305427849292755126953125</LatitudeDegrees>
              <LongitudeDegrees>-5.435762442648410797119140625</LongitudeDegrees>
            </Position>
            <AltitudeMeters>34.200000762939453125</AltitudeMeters>
            <DistanceMeters>NAN</DistanceMeters>
          </Trackpoint>
          <Trackpoint>
            <Time>2022-07-17T15:25:10.000Z</Time>
            <Position>
              <LatitudeDegrees>43.4815701283514499664306640625</LatitudeDegrees>
              <LongitudeDegrees>-5.436089672148227691650390625</LongitudeDegrees>
            </Position>
            <AltitudeMeters>33.200000762939453125</AltitudeMeters>
            <DistanceMeters>NAN</DistanceMeters>
          </Trackpoint>
          <Trackpoint>
            <Time>2022-07-17T15:25:11.000Z</Time>
            <Position>
              <LatitudeDegrees>43.48152947612106800079345703125</LatitudeDegrees>
              <LongitudeDegrees>-5.43595497496426105499267578125</LongitudeDegrees>
            </Position>
            <AltitudeMeters>33.200000762939453125</AltitudeMeters>
            <DistanceMeters>NAN</DistanceMeters>
          </Trackpoint>
          <Trackpoint>
            <Time>2022-07-17T15:25:16.000Z</Time>
            <Position>
              <LatitudeDegrees>43.481566607952117919921875</LatitudeDegrees>
              <LongitudeDegrees>-5.435957573354244232177734375</LongitudeDegrees>
            </Position>
            <AltitudeMeters>34.200000762939453125</AltitudeMeters>
            <DistanceMeters>NAN</DistanceMeters>
          </Trackpoint>
          <Trackpoint>
            <Time>2022-07-17T15:25:17.000Z</Time>
            <Position>
              <LatitudeDegrees>43.48155386745929718017578125</LatitudeDegrees>
              <LongitudeDegrees>-5.43595966883003711700439453125</LongitudeDegrees>
            </Position>
            <AltitudeMeters>34.59999847412109375</AltitudeMeters>
            <DistanceMeters>NAN</DistanceMeters>
          </Trackpoint>
          <Trackpoint>
            <Time>2022-07-17T15:25:21.000Z</Time>
            <Position>
              <LatitudeDegrees>43.48159301094710826873779296875</LatitudeDegrees>
              <LongitudeDegrees>-5.43595581315457820892333984375</LongitudeDegrees>
            </Position>
            <AltitudeMeters>35.200000762939453125</AltitudeMeters>
            <DistanceMeters>NAN</DistanceMeters>
          </Trackpoint>
          <Trackpoint>
            <Time>2022-07-17T15:25:22.000Z</Time>
            <Position>
              <LatitudeDegrees>43.48158379085361957550048828125</LatitudeDegrees>
              <LongitudeDegrees>-5.43595715425908565521240234375</LongitudeDegrees>
            </Position>
            <AltitudeMeters>35.40000152587890625</AltitudeMeters>
            <DistanceMeters>NAN</DistanceMeters>
          </Trackpoint>
          <Trackpoint>
            <Time>2022-07-17T15:25:43.000Z</Time>
            <Position>
              <LatitudeDegrees>43.48157356493175029754638671875</LatitudeDegrees>
              <LongitudeDegrees>-5.4360009916126728057861328125</LongitudeDegrees>
            </Position>
            <AltitudeMeters>35.200000762939453125</AltitudeMeters>
            <DistanceMeters>NAN</DistanceMeters>
          </Trackpoint>
          <Trackpoint>
            <Time>2022-07-17T15:25:45.000Z</Time>
            <Position>
              <LatitudeDegrees>43.48160214722156524658203125</LatitudeDegrees>
              <LongitudeDegrees>-5.4360341839492321014404296875</LongitudeDegrees>
            </Position>
            <AltitudeMeters>35.200000762939453125</AltitudeMeters>
            <DistanceMeters>NAN</DistanceMeters>
          </Trackpoint>
          <Trackpoint>
            <Time>2022-07-17T15:25:47.000Z</Time>
            <Position>
              <LatitudeDegrees>43.48163760267198085784912109375</LatitudeDegrees>
              <LongitudeDegrees>-5.43607793748378753662109375</LongitudeDegrees>
            </Position>
            <AltitudeMeters>35.200000762939453125</AltitudeMeters>
            <DistanceMeters>NAN</DistanceMeters>
          </Trackpoint>
          <Trackpoint>
            <Time>2022-07-17T15:25:50.000Z</Time>
            <Position>
              <LatitudeDegrees>43.48169376142323017120361328125</LatitudeDegrees>
              <LongitudeDegrees>-5.4361629299819469451904296875</LongitudeDegrees>
            </Position>
            <AltitudeMeters>35.200000762939453125</AltitudeMeters>
            <DistanceMeters>NAN</DistanceMeters>
          </Trackpoint>
          <Trackpoint>
            <Time>2022-07-17T15:25:55.000Z</Time>
            <Position>
              <LatitudeDegrees>43.4817595593631267547607421875</LatitudeDegrees>
              <LongitudeDegrees>-5.436277091503143310546875</LongitudeDegrees>
            </Position>
            <AltitudeMeters>35</AltitudeMeters>
            <DistanceMeters>NAN</DistanceMeters>
          </Trackpoint>
          <Trackpoint>
            <Time>2022-07-17T15:26:00.000Z</Time>
            <Position>
              <LatitudeDegrees>43.48183407448232173919677734375</LatitudeDegrees>
              <LongitudeDegrees>-5.4363885708153247833251953125</LongitudeDegrees>
            </Position>
            <AltitudeMeters>35</AltitudeMeters>
            <DistanceMeters>NAN</DistanceMeters>
          </Trackpoint>
          <Trackpoint>
            <Time>2022-07-17T15:26:05.000Z</Time>
            <Position>
              <LatitudeDegrees>43.48192133009433746337890625</LatitudeDegrees>
              <LongitudeDegrees>-5.4365028999745845794677734375</LongitudeDegrees>
            </Position>
            <AltitudeMeters>35</AltitudeMeters>
            <DistanceMeters>NAN</DistanceMeters>
          </Trackpoint>
          <Trackpoint>
            <Time>2022-07-17T15:26:09.000Z</Time>
            <Position>
              <LatitudeDegrees>43.4819729626178741455078125</LatitudeDegrees>
              <LongitudeDegrees>-5.43659015558660030364990234375</LongitudeDegrees>
            </Position>
            <AltitudeMeters>34.59999847412109375</AltitudeMeters>
            <DistanceMeters>NAN</DistanceMeters>
          </Trackpoint>
          <Trackpoint>
            <Time>2022-07-17T15:26:12.000Z</Time>
            <Position>
              <LatitudeDegrees>43.48201386630535125732421875</LatitudeDegrees>
              <LongitudeDegrees>-5.43664178811013698577880859375</LongitudeDegrees>
            </Position>
            <AltitudeMeters>34.59999847412109375</AltitudeMeters>
            <DistanceMeters>NAN</DistanceMeters>
          </Trackpoint>
          <Trackpoint>
            <Time>2022-07-17T15:26:18.000Z</Time>
            <Position>
              <LatitudeDegrees>43.4821246750652790069580078125</LatitudeDegrees>
              <LongitudeDegrees>-5.436691157519817352294921875</LongitudeDegrees>
            </Position>
            <AltitudeMeters>34.40000152587890625</AltitudeMeters>
            <DistanceMeters>NAN</DistanceMeters>
          </Trackpoint>
          <Trackpoint>
            <Time>2022-07-17T15:26:24.000Z</Time>
            <Position>
              <LatitudeDegrees>43.48215023986995220184326171875</LatitudeDegrees>
              <LongitudeDegrees>-5.4368750564754009246826171875</LongitudeDegrees>
            </Position>
            <AltitudeMeters>34.40000152587890625</AltitudeMeters>
            <DistanceMeters>NAN</DistanceMeters>
          </Trackpoint>
          <Trackpoint>
            <Time>2022-07-17T15:26:30.000Z</Time>
            <Position>
              <LatitudeDegrees>43.48215526901185512542724609375</LatitudeDegrees>
              <LongitudeDegrees>-5.43705685995519161224365234375</LongitudeDegrees>
            </Position>
            <AltitudeMeters>34.40000152587890625</AltitudeMeters>
            <DistanceMeters>NAN</DistanceMeters>
          </Trackpoint>
          <Trackpoint>
            <Time>2022-07-17T15:26:36.000Z</Time>
            <Position>
              <LatitudeDegrees>43.4820871241390705108642578125</LatitudeDegrees>
              <LongitudeDegrees>-5.437198095023632049560546875</LongitudeDegrees>
            </Position>
            <AltitudeMeters>33.799999237060546875</AltitudeMeters>
            <DistanceMeters>NAN</DistanceMeters>
          </Trackpoint>
          <Trackpoint>
            <Time>2022-07-17T15:26:43.000Z</Time>
            <Position>
              <LatitudeDegrees>43.481952510774135589599609375</LatitudeDegrees>
              <LongitudeDegrees>-5.43726221658289432525634765625</LongitudeDegrees>
            </Position>
            <AltitudeMeters>33.59999847412109375</AltitudeMeters>
            <DistanceMeters>NAN</DistanceMeters>
          </Trackpoint>
          <Trackpoint>
            <Time>2022-07-17T15:26:45.000Z</Time>
            <Position>
              <LatitudeDegrees>43.4819032251834869384765625</LatitudeDegrees>
              <LongitudeDegrees>-5.43726741336286067962646484375</LongitudeDegrees>
            </Position>
            <AltitudeMeters>33.59999847412109375</AltitudeMeters>
            <DistanceMeters>NAN</DistanceMeters>
          </Trackpoint>
          <Trackpoint>
            <Time>2022-07-17T15:26:49.000Z</Time>
            <Position>
              <LatitudeDegrees>43.4817766584455966949462890625</LatitudeDegrees>
              <LongitudeDegrees>-5.43726406060159206390380859375</LongitudeDegrees>
            </Position>
            <AltitudeMeters>33.40000152587890625</AltitudeMeters>
            <DistanceMeters>NAN</DistanceMeters>
          </Trackpoint>
          <Trackpoint>
            <Time>2022-07-17T15:26:57.000Z</Time>
            <Position>
              <LatitudeDegrees>43.481524698436260223388671875</LatitudeDegrees>
              <LongitudeDegrees>-5.4372344724833965301513671875</LongitudeDegrees>
            </Position>
            <AltitudeMeters>33.40000152587890625</AltitudeMeters>
            <DistanceMeters>NAN</DistanceMeters>
          </Trackpoint>
          <Trackpoint>
            <Time>2022-07-17T15:27:01.000Z</Time>
            <Position>
              <LatitudeDegrees>43.4813934378325939178466796875</LatitudeDegrees>
              <LongitudeDegrees>-5.43722064234316349029541015625</LongitudeDegrees>
            </Position>
            <AltitudeMeters>33.40000152587890625</AltitudeMeters>
            <DistanceMeters>NAN</DistanceMeters>
          </Trackpoint>
          <Trackpoint>
            <Time>2022-07-17T15:27:03.000Z</Time>
            <Position>
              <LatitudeDegrees>43.4813290648162364959716796875</LatitudeDegrees>
              <LongitudeDegrees>-5.437226258218288421630859375</LongitudeDegrees>
            </Position>
            <AltitudeMeters>33.40000152587890625</AltitudeMeters>
            <DistanceMeters>NAN</DistanceMeters>
          </Trackpoint>
          <Trackpoint>
            <Time>2022-07-17T15:27:04.000Z</Time>
            <Position>
              <LatitudeDegrees>43.481307439506053924560546875</LatitudeDegrees>
              <LongitudeDegrees>-5.437229610979557037353515625</LongitudeDegrees>
            </Position>
            <AltitudeMeters>33.40000152587890625</AltitudeMeters>
            <DistanceMeters>NAN</DistanceMeters>
          </Trackpoint>
          <Trackpoint>
            <Time>2022-07-17T15:27:10.000Z</Time>
            <Position>
              <LatitudeDegrees>43.4811268933117389678955078125</LatitudeDegrees>
              <LongitudeDegrees>-5.4372237436473369598388671875</LongitudeDegrees>
            </Position>
            <AltitudeMeters>33.200000762939453125</AltitudeMeters>
            <DistanceMeters>NAN</DistanceMeters>
          </Trackpoint>
          <Trackpoint>
            <Time>2022-07-17T15:27:15.000Z</Time>
            <Position>
              <LatitudeDegrees>43.48101281560957431793212890625</LatitudeDegrees>
              <LongitudeDegrees>-5.43721661902964115142822265625</LongitudeDegrees>
            </Position>
            <AltitudeMeters>33</AltitudeMeters>
            <DistanceMeters>NAN</DistanceMeters>
          </Trackpoint>
          <Trackpoint>
            <Time>2022-07-17T15:27:19.000Z</Time>
            <Position>
              <LatitudeDegrees>43.480938635766506195068359375</LatitudeDegrees>
              <LongitudeDegrees>-5.43722718022763729095458984375</LongitudeDegrees>
            </Position>
            <AltitudeMeters>33</AltitudeMeters>
            <DistanceMeters>NAN</DistanceMeters>
          </Trackpoint>
          <Trackpoint>
            <Time>2022-07-17T15:27:20.000Z</Time>
            <Position>
              <LatitudeDegrees>43.48091642372310161590576171875</LatitudeDegrees>
              <LongitudeDegrees>-5.43721863068640232086181640625</LongitudeDegrees>
            </Position>
            <AltitudeMeters>32.799999237060546875</AltitudeMeters>
            <DistanceMeters>NAN</DistanceMeters>
          </Trackpoint>
          <Trackpoint>
            <Time>2022-07-17T15:27:25.000Z</Time>
            <Position>
              <LatitudeDegrees>43.480846770107746124267578125</LatitudeDegrees>
              <LongitudeDegrees>-5.43718434870243072509765625</LongitudeDegrees>
            </Position>
            <AltitudeMeters>33</AltitudeMeters>
            <DistanceMeters>NAN</DistanceMeters>
          </Trackpoint>
          <Trackpoint>
            <Time>2022-07-17T15:27:26.000Z</Time>
            <Position>
              <LatitudeDegrees>43.48083361051976680755615234375</LatitudeDegrees>
              <LongitudeDegrees>-5.4371932335197925567626953125</LongitudeDegrees>
            </Position>
            <AltitudeMeters>33</AltitudeMeters>
            <DistanceMeters>NAN</DistanceMeters>
          </Trackpoint>
          <Trackpoint>
            <Time>2022-07-17T15:27:32.000Z</Time>
            <Position>
              <LatitudeDegrees>43.48074224777519702911376953125</LatitudeDegrees>
              <LongitudeDegrees>-5.43718677945435047149658203125</LongitudeDegrees>
            </Position>
            <AltitudeMeters>33.200000762939453125</AltitudeMeters>
            <DistanceMeters>NAN</DistanceMeters>
          </Trackpoint>
          <Trackpoint>
            <Time>2022-07-17T15:27:36.000Z</Time>
            <Position>
              <LatitudeDegrees>43.4806756116449832916259765625</LatitudeDegrees>
              <LongitudeDegrees>-5.43713196180760860443115234375</LongitudeDegrees>
            </Position>
            <AltitudeMeters>33</AltitudeMeters>
            <DistanceMeters>NAN</DistanceMeters>
          </Trackpoint>
          <Trackpoint>
            <Time>2022-07-17T15:27:37.000Z</Time>
            <Position>
              <LatitudeDegrees>43.48066882230341434478759765625</LatitudeDegrees>
              <LongitudeDegrees>-5.43710614554584026336669921875</LongitudeDegrees>
            </Position>
            <AltitudeMeters>33</AltitudeMeters>
            <DistanceMeters>NAN</DistanceMeters>
          </Trackpoint>
          <Trackpoint>
            <Time>2022-07-17T15:27:39.000Z</Time>
            <Position>
              <LatitudeDegrees>43.48067150451242923736572265625</LatitudeDegrees>
              <LongitudeDegrees>-5.43707932345569133758544921875</LongitudeDegrees>
            </Position>
            <AltitudeMeters>33</AltitudeMeters>
            <DistanceMeters>NAN</DistanceMeters>
          </Trackpoint>
          <Trackpoint>
            <Time>2022-07-17T15:28:00.000Z</Time>
            <Position>
              <LatitudeDegrees>43.4806685708463191986083984375</LatitudeDegrees>
              <LongitudeDegrees>-5.43705694377422332763671875</LongitudeDegrees>
            </Position>
            <AltitudeMeters>32.59999847412109375</AltitudeMeters>
            <DistanceMeters>NAN</DistanceMeters>
          </Trackpoint>
          <Trackpoint>
            <Time>2022-07-17T15:28:01.000Z</Time>
            <Position>
              <LatitudeDegrees>43.4806394018232822418212890625</LatitudeDegrees>
              <LongitudeDegrees>-5.43705417774617671966552734375</LongitudeDegrees>
            </Position>
            <AltitudeMeters>32.799999237060546875</AltitudeMeters>
            <DistanceMeters>NAN</DistanceMeters>
          </Trackpoint>
          <Trackpoint>
            <Time>2022-07-17T15:28:03.000Z</Time>
            <Position>
              <LatitudeDegrees>43.48059497773647308349609375</LatitudeDegrees>
              <LongitudeDegrees>-5.43706364929676055908203125</LongitudeDegrees>
            </Position>
            <AltitudeMeters>32.799999237060546875</AltitudeMeters>
            <DistanceMeters>NAN</DistanceMeters>
          </Trackpoint>
          <Trackpoint>
            <Time>2022-07-17T15:28:04.000Z</Time>
            <Position>
              <LatitudeDegrees>43.4805773757398128509521484375</LatitudeDegrees>
              <LongitudeDegrees>-5.437055937945842742919921875</LongitudeDegrees>
            </Position>
            <AltitudeMeters>32.799999237060546875</AltitudeMeters>
            <DistanceMeters>NAN</DistanceMeters>
          </Trackpoint>
          <Trackpoint>
            <Time>2022-07-17T15:28:07.000Z</Time>
            <Position>
              <LatitudeDegrees>43.48050269298255443572998046875</LatitudeDegrees>
              <LongitudeDegrees>-5.4370276071131229400634765625</LongitudeDegrees>
            </Position>
            <AltitudeMeters>32.59999847412109375</AltitudeMeters>
            <DistanceMeters>NAN</DistanceMeters>
          </Trackpoint>
          <Trackpoint>
            <Time>2022-07-17T15:28:08.000Z</Time>
            <Position>
              <LatitudeDegrees>43.480477631092071533203125</LatitudeDegrees>
              <LongitudeDegrees>-5.43702618218958377838134765625</LongitudeDegrees>
            </Position>
            <AltitudeMeters>32.59999847412109375</AltitudeMeters>
            <DistanceMeters>NAN</DistanceMeters>
          </Trackpoint>
          <Trackpoint>
            <Time>2022-07-17T15:28:12.000Z</Time>
            <Position>
              <LatitudeDegrees>43.48036087118089199066162109375</LatitudeDegrees>
              <LongitudeDegrees>-5.43703741393983364105224609375</LongitudeDegrees>
            </Position>
            <AltitudeMeters>32.799999237060546875</AltitudeMeters>
            <DistanceMeters>NAN</DistanceMeters>
          </Trackpoint>
          <Trackpoint>
            <Time>2022-07-17T15:28:18.000Z</Time>
            <Position>
              <LatitudeDegrees>43.4802273474633693695068359375</LatitudeDegrees>
              <LongitudeDegrees>-5.43708334676921367645263671875</LongitudeDegrees>
            </Position>
            <AltitudeMeters>33.200000762939453125</AltitudeMeters>
            <DistanceMeters>NAN</DistanceMeters>
          </Trackpoint>
          <Trackpoint>
            <Time>2022-07-17T15:28:23.000Z</Time>
            <Position>
              <LatitudeDegrees>43.4801153652369976043701171875</LatitudeDegrees>
              <LongitudeDegrees>-5.437242351472377777099609375</LongitudeDegrees>
            </Position>
            <AltitudeMeters>33</AltitudeMeters>
            <DistanceMeters>NAN</DistanceMeters>
          </Trackpoint>
          <Trackpoint>
            <Time>2022-07-17T15:28:27.000Z</Time>
            <Position>
              <LatitudeDegrees>43.48002844490110874176025390625</LatitudeDegrees>
              <LongitudeDegrees>-5.4373632185161113739013671875</LongitudeDegrees>
            </Position>
            <AltitudeMeters>33.200000762939453125</AltitudeMeters>
            <DistanceMeters>NAN</DistanceMeters>
          </Trackpoint>
          <Trackpoint>
            <Time>2022-07-17T15:28:28.000Z</Time>
            <Position>
              <LatitudeDegrees>43.4800141118466854095458984375</LatitudeDegrees>
              <LongitudeDegrees>-5.4373974166810512542724609375</LongitudeDegrees>
            </Position>
            <AltitudeMeters>33.40000152587890625</AltitudeMeters>
            <DistanceMeters>NAN</DistanceMeters>
          </Trackpoint>
          <Trackpoint>
            <Time>2022-07-17T15:28:30.000Z</Time>
            <Position>
              <LatitudeDegrees>43.47997513599693775177001953125</LatitudeDegrees>
              <LongitudeDegrees>-5.43747947551310062408447265625</LongitudeDegrees>
            </Position>
            <AltitudeMeters>33.59999847412109375</AltitudeMeters>
            <DistanceMeters>NAN</DistanceMeters>
          </Trackpoint>
          <Trackpoint>
            <Time>2022-07-17T15:28:31.000Z</Time>
            <Position>
              <LatitudeDegrees>43.4799658320844173431396484375</LatitudeDegrees>
              <LongitudeDegrees>-5.437517948448657989501953125</LongitudeDegrees>
            </Position>
            <AltitudeMeters>33.59999847412109375</AltitudeMeters>
            <DistanceMeters>NAN</DistanceMeters>
          </Trackpoint>
          <Trackpoint>
            <Time>2022-07-17T15:28:32.000Z</Time>
            <Position>
              <LatitudeDegrees>43.4799586236476898193359375</LatitudeDegrees>
              <LongitudeDegrees>-5.43754233978688716888427734375</LongitudeDegrees>
            </Position>
            <AltitudeMeters>33.799999237060546875</AltitudeMeters>
            <DistanceMeters>NAN</DistanceMeters>
          </Trackpoint>
          <Trackpoint>
            <Time>2022-07-17T15:28:34.000Z</Time>
            <Position>
              <LatitudeDegrees>43.479986451566219329833984375</LatitudeDegrees>
              <LongitudeDegrees>-5.43762900866568088531494140625</LongitudeDegrees>
            </Position>
            <AltitudeMeters>33.799999237060546875</AltitudeMeters>
            <DistanceMeters>NAN</DistanceMeters>
          </Trackpoint>
          <Trackpoint>
            <Time>2022-07-17T15:28:37.000Z</Time>
            <Position>
              <LatitudeDegrees>43.48005987703800201416015625</LatitudeDegrees>
              <LongitudeDegrees>-5.43778340332210063934326171875</LongitudeDegrees>
            </Position>
            <AltitudeMeters>33.799999237060546875</AltitudeMeters>
            <DistanceMeters>NAN</DistanceMeters>
          </Trackpoint>
          <Trackpoint>
            <Time>2022-07-17T15:28:43.000Z</Time>
            <Position>
              <LatitudeDegrees>43.4801897965371608734130859375</LatitudeDegrees>
              <LongitudeDegrees>-5.437943078577518463134765625</LongitudeDegrees>
            </Position>
            <AltitudeMeters>33</AltitudeMeters>
            <DistanceMeters>NAN</DistanceMeters>
          </Trackpoint>
          <Trackpoint>
            <Time>2022-07-17T15:28:50.000Z</Time>
            <Position>
              <LatitudeDegrees>43.48034628666937351226806640625</LatitudeDegrees>
              <LongitudeDegrees>-5.43813728727400302886962890625</LongitudeDegrees>
            </Position>
            <AltitudeMeters>33.40000152587890625</AltitudeMeters>
            <DistanceMeters>NAN</DistanceMeters>
          </Trackpoint>
          <Trackpoint>
            <Time>2022-07-17T15:28:53.000Z</Time>
            <Position>
              <LatitudeDegrees>43.48041099496185779571533203125</LatitudeDegrees>
              <LongitudeDegrees>-5.438220016658306121826171875</LongitudeDegrees>
            </Position>
            <AltitudeMeters>33.40000152587890625</AltitudeMeters>
            <DistanceMeters>NAN</DistanceMeters>
          </Trackpoint>
          <Trackpoint>
            <Time>2022-07-17T15:28:56.000Z</Time>
            <Position>
              <LatitudeDegrees>43.480471931397914886474609375</LatitudeDegrees>
              <LongitudeDegrees>-5.43830106966197490692138671875</LongitudeDegrees>
            </Position>
            <AltitudeMeters>33.40000152587890625</AltitudeMeters>
            <DistanceMeters>NAN</DistanceMeters>
          </Trackpoint>
          <Trackpoint>
            <Time>2022-07-17T15:29:00.000Z</Time>
            <Position>
              <LatitudeDegrees>43.48054912872612476348876953125</LatitudeDegrees>
              <LongitudeDegrees>-5.43839913792908191680908203125</LongitudeDegrees>
            </Position>
            <AltitudeMeters>33.200000762939453125</AltitudeMeters>
            <DistanceMeters>NAN</DistanceMeters>
          </Trackpoint>
          <Trackpoint>
            <Time>2022-07-17T15:29:03.000Z</Time>
            <Position>
              <LatitudeDegrees>43.48061450757086277008056640625</LatitudeDegrees>
              <LongitudeDegrees>-5.43846300803124904632568359375</LongitudeDegrees>
            </Position>
            <AltitudeMeters>33</AltitudeMeters>
            <DistanceMeters>NAN</DistanceMeters>
          </Trackpoint>
          <Trackpoint>
            <Time>2022-07-17T15:29:06.000Z</Time>
            <Position>
              <LatitudeDegrees>43.48069078288972377777099609375</LatitudeDegrees>
              <LongitudeDegrees>-5.4385234415531158447265625</LongitudeDegrees>
            </Position>
            <AltitudeMeters>33</AltitudeMeters>
            <DistanceMeters>NAN</DistanceMeters>
          </Trackpoint>
          <Trackpoint>
            <Time>2022-07-17T15:29:11.000Z</Time>
            <Position>
              <LatitudeDegrees>43.4808197803795337677001953125</LatitudeDegrees>
              <LongitudeDegrees>-5.43862469494342803955078125</LongitudeDegrees>
            </Position>
            <AltitudeMeters>32.799999237060546875</AltitudeMeters>
            <DistanceMeters>NAN</DistanceMeters>
          </Trackpoint>
          <Trackpoint>
            <Time>2022-07-17T15:29:15.000Z</Time>
            <Position>
              <LatitudeDegrees>43.4809069521725177764892578125</LatitudeDegrees>
              <LongitudeDegrees>-5.43868613429367542266845703125</LongitudeDegrees>
            </Position>
            <AltitudeMeters>32.799999237060546875</AltitudeMeters>
            <DistanceMeters>NAN</DistanceMeters>
          </Trackpoint>
          <Trackpoint>
            <Time>2022-07-17T15:29:17.000Z</Time>
            <Position>
              <LatitudeDegrees>43.48095498047769069671630859375</LatitudeDegrees>
              <LongitudeDegrees>-5.4387219250202178955078125</LongitudeDegrees>
            </Position>
            <AltitudeMeters>32.59999847412109375</AltitudeMeters>
            <DistanceMeters>NAN</DistanceMeters>
          </Trackpoint>
          <Trackpoint>
            <Time>2022-07-17T15:29:18.000Z</Time>
            <Position>
              <LatitudeDegrees>43.48098046146333217620849609375</LatitudeDegrees>
              <LongitudeDegrees>-5.4387304745614528656005859375</LongitudeDegrees>
            </Position>
            <AltitudeMeters>32.59999847412109375</AltitudeMeters>
            <DistanceMeters>NAN</DistanceMeters>
          </Trackpoint>
          <Trackpoint>
            <Time>2022-07-17T15:29:21.000Z</Time>
            <Position>
              <LatitudeDegrees>43.48105371929705142974853515625</LatitudeDegrees>
              <LongitudeDegrees>-5.43876148760318756103515625</LongitudeDegrees>
            </Position>
            <AltitudeMeters>32.40000152587890625</AltitudeMeters>
            <DistanceMeters>NAN</DistanceMeters>
          </Trackpoint>
          <Trackpoint>
            <Time>2022-07-17T15:29:28.000Z</Time>
            <Position>
              <LatitudeDegrees>43.4812371991574764251708984375</LatitudeDegrees>
              <LongitudeDegrees>-5.43884740211069583892822265625</LongitudeDegrees>
            </Position>
            <AltitudeMeters>32.40000152587890625</AltitudeMeters>
            <DistanceMeters>NAN</DistanceMeters>
          </Trackpoint>
          <Trackpoint>
            <Time>2022-07-17T15:29:34.000Z</Time>
            <Position>
              <LatitudeDegrees>43.48142621107399463653564453125</LatitudeDegrees>
              <LongitudeDegrees>-5.438914708793163299560546875</LongitudeDegrees>
            </Position>
            <AltitudeMeters>32</AltitudeMeters>
            <DistanceMeters>NAN</DistanceMeters>
          </Trackpoint>
          <Trackpoint>
            <Time>2022-07-17T15:29:36.000Z</Time>
            <Position>
              <LatitudeDegrees>43.48148672841489315032958984375</LatitudeDegrees>
              <LongitudeDegrees>-5.4389235936105251312255859375</LongitudeDegrees>
            </Position>
            <AltitudeMeters>31.799999237060546875</AltitudeMeters>
            <DistanceMeters>NAN</DistanceMeters>
          </Trackpoint>
          <Trackpoint>
            <Time>2022-07-17T15:29:38.000Z</Time>
            <Position>
              <LatitudeDegrees>43.48153500817716121673583984375</LatitudeDegrees>
              <LongitudeDegrees>-5.438905991613864898681640625</LongitudeDegrees>
            </Position>
            <AltitudeMeters>31.799999237060546875</AltitudeMeters>
            <DistanceMeters>NAN</DistanceMeters>
          </Trackpoint>
          <Trackpoint>
            <Time>2022-07-17T15:29:40.000Z</Time>
            <Position>
              <LatitudeDegrees>43.48158043809235095977783203125</LatitudeDegrees>
              <LongitudeDegrees>-5.43889157474040985107421875</LongitudeDegrees>
            </Position>
            <AltitudeMeters>31.6000003814697265625</AltitudeMeters>
            <DistanceMeters>NAN</DistanceMeters>
          </Trackpoint>
          <Trackpoint>
            <Time>2022-07-17T15:29:42.000Z</Time>
            <Position>
              <LatitudeDegrees>43.48163005895912647247314453125</LatitudeDegrees>
              <LongitudeDegrees>-5.43888998217880725860595703125</LongitudeDegrees>
            </Position>
            <AltitudeMeters>31.3999996185302734375</AltitudeMeters>
            <DistanceMeters>NAN</DistanceMeters>
          </Trackpoint>
          <Trackpoint>
            <Time>2022-07-17T15:29:47.000Z</Time>
            <Position>
              <LatitudeDegrees>43.48176199011504650115966796875</LatitudeDegrees>
              <LongitudeDegrees>-5.438881181180477142333984375</LongitudeDegrees>
            </Position>
            <AltitudeMeters>31.6000003814697265625</AltitudeMeters>
            <DistanceMeters>NAN</DistanceMeters>
          </Trackpoint>
          <Trackpoint>
            <Time>2022-07-17T15:29:54.000Z</Time>
            <Position>
              <LatitudeDegrees>43.48195812664926052093505859375</LatitudeDegrees>
              <LongitudeDegrees>-5.438859052956104278564453125</LongitudeDegrees>
            </Position>
            <AltitudeMeters>30.6000003814697265625</AltitudeMeters>
            <DistanceMeters>NAN</DistanceMeters>
          </Trackpoint>
          <Trackpoint>
            <Time>2022-07-17T15:29:56.000Z</Time>
            <Position>
              <LatitudeDegrees>43.48201881162822246551513671875</LatitudeDegrees>
              <LongitudeDegrees>-5.43884589336812496185302734375</LongitudeDegrees>
            </Position>
            <AltitudeMeters>31</AltitudeMeters>
            <DistanceMeters>NAN</DistanceMeters>
          </Trackpoint>
          <Trackpoint>
            <Time>2022-07-17T15:30:02.000Z</Time>
            <Position>
              <LatitudeDegrees>43.4822044707834720611572265625</LatitudeDegrees>
              <LongitudeDegrees>-5.43879903852939605712890625</LongitudeDegrees>
            </Position>
            <AltitudeMeters>31</AltitudeMeters>
            <DistanceMeters>NAN</DistanceMeters>
          </Trackpoint>
          <Trackpoint>
            <Time>2022-07-17T15:30:09.000Z</Time>
            <Position>
              <LatitudeDegrees>43.48238660953938961029052734375</LatitudeDegrees>
              <LongitudeDegrees>-5.43869133107364177703857421875</LongitudeDegrees>
            </Position>
            <AltitudeMeters>30.3999996185302734375</AltitudeMeters>
            <DistanceMeters>NAN</DistanceMeters>
          </Trackpoint>
          <Trackpoint>
            <Time>2022-07-17T15:30:12.000Z</Time>
            <Position>
              <LatitudeDegrees>43.4824723564088344573974609375</LatitudeDegrees>
              <LongitudeDegrees>-5.43864212930202484130859375</LongitudeDegrees>
            </Position>
            <AltitudeMeters>30.200000762939453125</AltitudeMeters>
            <DistanceMeters>NAN</DistanceMeters>
          </Trackpoint>
          <Trackpoint>
            <Time>2022-07-17T15:30:15.000Z</Time>
            <Position>
              <LatitudeDegrees>43.4825451113283634185791015625</LatitudeDegrees>
              <LongitudeDegrees>-5.43862410821020603179931640625</LongitudeDegrees>
            </Position>
            <AltitudeMeters>30.200000762939453125</AltitudeMeters>
            <DistanceMeters>NAN</DistanceMeters>
          </Trackpoint>
          <Trackpoint>
            <Time>2022-07-17T15:30:16.000Z</Time>
            <Position>
              <LatitudeDegrees>43.4825598634779453277587890625</LatitudeDegrees>
              <LongitudeDegrees>-5.43863383121788501739501953125</LongitudeDegrees>
            </Position>
            <AltitudeMeters>30.200000762939453125</AltitudeMeters>
            <DistanceMeters>NAN</DistanceMeters>
          </Trackpoint>
          <Trackpoint>
            <Time>2022-07-17T15:30:20.000Z</Time>
            <Position>
              <LatitudeDegrees>43.482611663639545440673828125</LatitudeDegrees>
              <LongitudeDegrees>-5.4386764951050281524658203125</LongitudeDegrees>
            </Position>
            <AltitudeMeters>30.3999996185302734375</AltitudeMeters>
            <DistanceMeters>NAN</DistanceMeters>
          </Trackpoint>
          <Trackpoint>
            <Time>2022-07-17T15:30:25.000Z</Time>
            <Position>
              <LatitudeDegrees>43.48269506357610225677490234375</LatitudeDegrees>
              <LongitudeDegrees>-5.43883985839784145355224609375</LongitudeDegrees>
            </Position>
            <AltitudeMeters>30.6000003814697265625</AltitudeMeters>
            <DistanceMeters>NAN</DistanceMeters>
          </Trackpoint>
          <Trackpoint>
            <Time>2022-07-17T15:30:32.000Z</Time>
            <Position>
              <LatitudeDegrees>43.4827898629009723663330078125</LatitudeDegrees>
              <LongitudeDegrees>-5.43910103850066661834716796875</LongitudeDegrees>
            </Position>
            <AltitudeMeters>30.3999996185302734375</AltitudeMeters>
            <DistanceMeters>NAN</DistanceMeters>
          </Trackpoint>
          <Trackpoint>
            <Time>2022-07-17T15:30:39.000Z</Time>
            <Position>
              <LatitudeDegrees>43.4829197824001312255859375</LatitudeDegrees>
              <LongitudeDegrees>-5.43931880034506320953369140625</LongitudeDegrees>
            </Position>
            <AltitudeMeters>30.200000762939453125</AltitudeMeters>
            <DistanceMeters>NAN</DistanceMeters>
          </Trackpoint>
          <Trackpoint>
            <Time>2022-07-17T15:30:45.000Z</Time>
            <Position>
              <LatitudeDegrees>43.48308138549327850341796875</LatitudeDegrees>
              <LongitudeDegrees>-5.4394405893981456756591796875</LongitudeDegrees>
            </Position>
            <AltitudeMeters>30.6000003814697265625</AltitudeMeters>
            <DistanceMeters>NAN</DistanceMeters>
          </Trackpoint>
          <Trackpoint>
            <Time>2022-07-17T15:30:50.000Z</Time>
            <Position>
              <LatitudeDegrees>43.4831100516021251678466796875</LatitudeDegrees>
              <LongitudeDegrees>-5.43964301235973834991455078125</LongitudeDegrees>
            </Position>
            <AltitudeMeters>30.200000762939453125</AltitudeMeters>
            <DistanceMeters>NAN</DistanceMeters>
          </Trackpoint>
          <Trackpoint>
            <Time>2022-07-17T15:30:56.000Z</Time>
            <Position>
              <LatitudeDegrees>43.483078368008136749267578125</LatitudeDegrees>
              <LongitudeDegrees>-5.43989581055939197540283203125</LongitudeDegrees>
            </Position>
            <AltitudeMeters>29.799999237060546875</AltitudeMeters>
            <DistanceMeters>NAN</DistanceMeters>
          </Trackpoint>
          <Trackpoint>
            <Time>2022-07-17T15:30:57.000Z</Time>
            <Position>
              <LatitudeDegrees>43.4830902703106403350830078125</LatitudeDegrees>
              <LongitudeDegrees>-5.439931936562061309814453125</LongitudeDegrees>
            </Position>
            <AltitudeMeters>29.799999237060546875</AltitudeMeters>
            <DistanceMeters>NAN</DistanceMeters>
          </Trackpoint>
          <Trackpoint>
            <Time>2022-07-17T15:31:02.000Z</Time>
            <Position>
              <LatitudeDegrees>43.48316294141113758087158203125</LatitudeDegrees>
              <LongitudeDegrees>-5.44013016857206821441650390625</LongitudeDegrees>
            </Position>
            <AltitudeMeters>30</AltitudeMeters>
            <DistanceMeters>NAN</DistanceMeters>
          </Trackpoint>
          <Trackpoint>
            <Time>2022-07-17T15:31:05.000Z</Time>
            <Position>
              <LatitudeDegrees>43.48321256227791309356689453125</LatitudeDegrees>
              <LongitudeDegrees>-5.44023125432431697845458984375</LongitudeDegrees>
            </Position>
            <AltitudeMeters>30</AltitudeMeters>
            <DistanceMeters>NAN</DistanceMeters>
          </Trackpoint>
          <Trackpoint>
            <Time>2022-07-17T15:31:08.000Z</Time>
            <Position>
              <LatitudeDegrees>43.4832455031573772430419921875</LatitudeDegrees>
              <LongitudeDegrees>-5.44032521545886993408203125</LongitudeDegrees>
            </Position>
            <AltitudeMeters>29.799999237060546875</AltitudeMeters>
            <DistanceMeters>NAN</DistanceMeters>
          </Trackpoint>
          <Trackpoint>
            <Time>2022-07-17T15:31:10.000Z</Time>
            <Position>
              <LatitudeDegrees>43.483268134295940399169921875</LatitudeDegrees>
              <LongitudeDegrees>-5.440393947064876556396484375</LongitudeDegrees>
            </Position>
            <AltitudeMeters>29.799999237060546875</AltitudeMeters>
            <DistanceMeters>NAN</DistanceMeters>
          </Trackpoint>
          <Trackpoint>
            <Time>2022-07-17T15:31:14.000Z</Time>
            <Position>
              <LatitudeDegrees>43.483331501483917236328125</LatitudeDegrees>
              <LongitudeDegrees>-5.44053937308490276336669921875</LongitudeDegrees>
            </Position>
            <AltitudeMeters>29.6000003814697265625</AltitudeMeters>
            <DistanceMeters>NAN</DistanceMeters>
          </Trackpoint>
          <Trackpoint>
            <Time>2022-07-17T15:31:20.000Z</Time>
            <Position>
              <LatitudeDegrees>43.4834614209830760955810546875</LatitudeDegrees>
              <LongitudeDegrees>-5.44075277633965015411376953125</LongitudeDegrees>
            </Position>
            <AltitudeMeters>29.3999996185302734375</AltitudeMeters>
            <DistanceMeters>NAN</DistanceMeters>
          </Trackpoint>
          <Trackpoint>
            <Time>2022-07-17T15:31:24.000Z</Time>
            <Position>
              <LatitudeDegrees>43.4835723973810672760009765625</LatitudeDegrees>
              <LongitudeDegrees>-5.44087565504014492034912109375</LongitudeDegrees>
            </Position>
            <AltitudeMeters>29.3999996185302734375</AltitudeMeters>
            <DistanceMeters>NAN</DistanceMeters>
          </Trackpoint>
          <Trackpoint>
            <Time>2022-07-17T15:31:28.000Z</Time>
            <Position>
              <LatitudeDegrees>43.48367591388523578643798828125</LatitudeDegrees>
              <LongitudeDegrees>-5.4409761540591716766357421875</LongitudeDegrees>
            </Position>
            <AltitudeMeters>29.6000003814697265625</AltitudeMeters>
            <DistanceMeters>NAN</DistanceMeters>
          </Trackpoint>
          <Trackpoint>
            <Time>2022-07-17T15:31:36.000Z</Time>
            <Position>
              <LatitudeDegrees>43.48387305624783039093017578125</LatitudeDegrees>
              <LongitudeDegrees>-5.441144295036792755126953125</LongitudeDegrees>
            </Position>
            <AltitudeMeters>29.6000003814697265625</AltitudeMeters>
            <DistanceMeters>NAN</DistanceMeters>
          </Trackpoint>
          <Trackpoint>
            <Time>2022-07-17T15:31:40.000Z</Time>
            <Position>
              <LatitudeDegrees>43.4839790873229503631591796875</LatitudeDegrees>
              <LongitudeDegrees>-5.441226102411746978759765625</LongitudeDegrees>
            </Position>
            <AltitudeMeters>30</AltitudeMeters>
            <DistanceMeters>NAN</DistanceMeters>
          </Trackpoint>
          <Trackpoint>
            <Time>2022-07-17T15:31:48.000Z</Time>
            <Position>
              <LatitudeDegrees>43.4842134453356266021728515625</LatitudeDegrees>
              <LongitudeDegrees>-5.44141595251858234405517578125</LongitudeDegrees>
            </Position>
            <AltitudeMeters>29.799999237060546875</AltitudeMeters>
            <DistanceMeters>NAN</DistanceMeters>
          </Trackpoint>
          <Trackpoint>
            <Time>2022-07-17T15:31:53.000Z</Time>
            <Position>
              <LatitudeDegrees>43.484350405633449554443359375</LatitudeDegrees>
              <LongitudeDegrees>-5.4414673335850238800048828125</LongitudeDegrees>
            </Position>
            <AltitudeMeters>29.6000003814697265625</AltitudeMeters>
            <DistanceMeters>NAN</DistanceMeters>
          </Trackpoint>
          <Trackpoint>
            <Time>2022-07-17T15:31:57.000Z</Time>
            <Position>
              <LatitudeDegrees>43.48446817137300968170166015625</LatitudeDegrees>
              <LongitudeDegrees>-5.44151988811790943145751953125</LongitudeDegrees>
            </Position>
            <AltitudeMeters>29.200000762939453125</AltitudeMeters>
            <DistanceMeters>NAN</DistanceMeters>
          </Trackpoint>
          <Trackpoint>
            <Time>2022-07-17T15:32:03.000Z</Time>
            <Position>
              <LatitudeDegrees>43.484654165804386138916015625</LatitudeDegrees>
              <LongitudeDegrees>-5.4416004382073879241943359375</LongitudeDegrees>
            </Position>
            <AltitudeMeters>29</AltitudeMeters>
            <DistanceMeters>NAN</DistanceMeters>
          </Trackpoint>
          <Trackpoint>
            <Time>2022-07-17T15:32:14.000Z</Time>
            <Position>
              <LatitudeDegrees>43.485020287334918975830078125</LatitudeDegrees>
              <LongitudeDegrees>-5.44177503325045108795166015625</LongitudeDegrees>
            </Position>
            <AltitudeMeters>28.799999237060546875</AltitudeMeters>
            <DistanceMeters>NAN</DistanceMeters>
          </Trackpoint>
          <Trackpoint>
            <Time>2022-07-17T15:32:18.000Z</Time>
            <Position>
              <LatitudeDegrees>43.4851166792213916778564453125</LatitudeDegrees>
              <LongitudeDegrees>-5.4418042860925197601318359375</LongitudeDegrees>
            </Position>
            <AltitudeMeters>28.6000003814697265625</AltitudeMeters>
            <DistanceMeters>NAN</DistanceMeters>
          </Trackpoint>
          <Trackpoint>
            <Time>2022-07-17T15:32:19.000Z</Time>
            <Position>
              <LatitudeDegrees>43.4851186908781528472900390625</LatitudeDegrees>
              <LongitudeDegrees>-5.441797412931919097900390625</LongitudeDegrees>
            </Position>
            <AltitudeMeters>28.6000003814697265625</AltitudeMeters>
            <DistanceMeters>NAN</DistanceMeters>
          </Trackpoint>
          <Trackpoint>
            <Time>2022-07-17T15:32:20.000Z</Time>
            <Position>
              <LatitudeDegrees>43.4851153381168842315673828125</LatitudeDegrees>
              <LongitudeDegrees>-5.44178978540003299713134765625</LongitudeDegrees>
            </Position>
            <AltitudeMeters>28.3999996185302734375</AltitudeMeters>
            <DistanceMeters>NAN</DistanceMeters>
          </Trackpoint>
          <Trackpoint>
            <Time>2022-07-17T15:37:19.000Z</Time>
            <Position>
              <LatitudeDegrees>43.48513319157063961029052734375</LatitudeDegrees>
              <LongitudeDegrees>-5.441826246678829193115234375</LongitudeDegrees>
            </Position>
            <AltitudeMeters>33.200000762939453125</AltitudeMeters>
            <DistanceMeters>NAN</DistanceMeters>
          </Trackpoint>
          <Trackpoint>
            <Time>2022-07-17T15:37:21.000Z</Time>
            <Position>
              <LatitudeDegrees>43.48519018851220607757568359375</LatitudeDegrees>
              <LongitudeDegrees>-5.4418522305786609649658203125</LongitudeDegrees>
            </Position>
            <AltitudeMeters>33.40000152587890625</AltitudeMeters>
            <DistanceMeters>NAN</DistanceMeters>
          </Trackpoint>
          <Trackpoint>
            <Time>2022-07-17T15:37:27.000Z</Time>
            <Position>
              <LatitudeDegrees>43.48540417850017547607421875</LatitudeDegrees>
              <LongitudeDegrees>-5.4419437609612941741943359375</LongitudeDegrees>
            </Position>
            <AltitudeMeters>34</AltitudeMeters>
            <DistanceMeters>NAN</DistanceMeters>
          </Trackpoint>
          <Trackpoint>
            <Time>2022-07-17T15:37:36.000Z</Time>
            <Position>
              <LatitudeDegrees>43.48572310991585254669189453125</LatitudeDegrees>
              <LongitudeDegrees>-5.44209924526512622833251953125</LongitudeDegrees>
            </Position>
            <AltitudeMeters>34.200000762939453125</AltitudeMeters>
            <DistanceMeters>NAN</DistanceMeters>
          </Trackpoint>
          <Trackpoint>
            <Time>2022-07-17T15:37:37.000Z</Time>
            <Position>
              <LatitudeDegrees>43.48575781099498271942138671875</LatitudeDegrees>
              <LongitudeDegrees>-5.44211667962372303009033203125</LongitudeDegrees>
            </Position>
            <AltitudeMeters>34.200000762939453125</AltitudeMeters>
            <DistanceMeters>NAN</DistanceMeters>
          </Trackpoint>
          <Trackpoint>
            <Time>2022-07-17T15:37:40.000Z</Time>
            <Position>
              <LatitudeDegrees>43.48586191423237323760986328125</LatitudeDegrees>
              <LongitudeDegrees>-5.44215850532054901123046875</LongitudeDegrees>
            </Position>
            <AltitudeMeters>34.40000152587890625</AltitudeMeters>
            <DistanceMeters>NAN</DistanceMeters>
          </Trackpoint>
          <Trackpoint>
            <Time>2022-07-17T15:37:42.000Z</Time>
            <Position>
              <LatitudeDegrees>43.485930897295475006103515625</LatitudeDegrees>
              <LongitudeDegrees>-5.44218666851520538330078125</LongitudeDegrees>
            </Position>
            <AltitudeMeters>34.200000762939453125</AltitudeMeters>
            <DistanceMeters>NAN</DistanceMeters>
          </Trackpoint>
          <Trackpoint>
            <Time>2022-07-17T15:37:44.000Z</Time>
            <Position>
              <LatitudeDegrees>43.48599384538829326629638671875</LatitudeDegrees>
              <LongitudeDegrees>-5.44221080839633941650390625</LongitudeDegrees>
            </Position>
            <AltitudeMeters>34.200000762939453125</AltitudeMeters>
            <DistanceMeters>NAN</DistanceMeters>
          </Trackpoint>
          <Trackpoint>
            <Time>2022-07-17T15:37:49.000Z</Time>
            <Position>
              <LatitudeDegrees>43.4861573763191699981689453125</LatitudeDegrees>
              <LongitudeDegrees>-5.44223503209650516510009765625</LongitudeDegrees>
            </Position>
            <AltitudeMeters>34.200000762939453125</AltitudeMeters>
            <DistanceMeters>NAN</DistanceMeters>
          </Trackpoint>
          <Trackpoint>
            <Time>2022-07-17T15:37:51.000Z</Time>
            <Position>
              <LatitudeDegrees>43.48622300662100315093994140625</LatitudeDegrees>
              <LongitudeDegrees>-5.44224022887647151947021484375</LongitudeDegrees>
            </Position>
            <AltitudeMeters>34.200000762939453125</AltitudeMeters>
            <DistanceMeters>NAN</DistanceMeters>
          </Trackpoint>
          <Trackpoint>
            <Time>2022-07-17T15:37:59.000Z</Time>
            <Position>
              <LatitudeDegrees>43.48649206571280956268310546875</LatitudeDegrees>
              <LongitudeDegrees>-5.44223452918231487274169921875</LongitudeDegrees>
            </Position>
            <AltitudeMeters>34.40000152587890625</AltitudeMeters>
            <DistanceMeters>NAN</DistanceMeters>
          </Trackpoint>
          <Trackpoint>
            <Time>2022-07-17T15:38:04.000Z</Time>
            <Position>
              <LatitudeDegrees>43.48669306375086307525634765625</LatitudeDegrees>
              <LongitudeDegrees>-5.44224827550351619720458984375</LongitudeDegrees>
            </Position>
            <AltitudeMeters>34.40000152587890625</AltitudeMeters>
            <DistanceMeters>NAN</DistanceMeters>
          </Trackpoint>
          <Trackpoint>
            <Time>2022-07-17T15:38:07.000Z</Time>
            <Position>
              <LatitudeDegrees>43.4868223965167999267578125</LatitudeDegrees>
              <LongitudeDegrees>-5.442240647971630096435546875</LongitudeDegrees>
            </Position>
            <AltitudeMeters>34.40000152587890625</AltitudeMeters>
            <DistanceMeters>NAN</DistanceMeters>
          </Trackpoint>
          <Trackpoint>
            <Time>2022-07-17T15:38:09.000Z</Time>
            <Position>
              <LatitudeDegrees>43.48688819445669651031494140625</LatitudeDegrees>
              <LongitudeDegrees>-5.442237295210361480712890625</LongitudeDegrees>
            </Position>
            <AltitudeMeters>34.40000152587890625</AltitudeMeters>
            <DistanceMeters>NAN</DistanceMeters>
          </Trackpoint>
          <Trackpoint>
            <Time>2022-07-17T15:38:20.000Z</Time>
            <Position>
              <LatitudeDegrees>43.48724610172212123870849609375</LatitudeDegrees>
              <LongitudeDegrees>-5.4422274045646190643310546875</LongitudeDegrees>
            </Position>
            <AltitudeMeters>34.59999847412109375</AltitudeMeters>
            <DistanceMeters>NAN</DistanceMeters>
          </Trackpoint>
          <Trackpoint>
            <Time>2022-07-17T15:38:26.000Z</Time>
            <Position>
              <LatitudeDegrees>43.48743234761059284210205078125</LatitudeDegrees>
              <LongitudeDegrees>-5.44232103042304515838623046875</LongitudeDegrees>
            </Position>
            <AltitudeMeters>34.59999847412109375</AltitudeMeters>
            <DistanceMeters>NAN</DistanceMeters>
          </Trackpoint>
          <Trackpoint>
            <Time>2022-07-17T15:38:34.000Z</Time>
            <Position>
              <LatitudeDegrees>43.4876382909715175628662109375</LatitudeDegrees>
              <LongitudeDegrees>-5.44257424771785736083984375</LongitudeDegrees>
            </Position>
            <AltitudeMeters>35</AltitudeMeters>
            <DistanceMeters>NAN</DistanceMeters>
          </Trackpoint>
          <Trackpoint>
            <Time>2022-07-17T15:38:38.000Z</Time>
            <Position>
              <LatitudeDegrees>43.48771431483328342437744140625</LatitudeDegrees>
              <LongitudeDegrees>-5.4426994733512401580810546875</LongitudeDegrees>
            </Position>
            <AltitudeMeters>35.200000762939453125</AltitudeMeters>
            <DistanceMeters>NAN</DistanceMeters>
          </Trackpoint>
          <Trackpoint>
            <Time>2022-07-17T15:38:42.000Z</Time>
            <Position>
              <LatitudeDegrees>43.487778604030609130859375</LatitudeDegrees>
              <LongitudeDegrees>-5.44282562099397182464599609375</LongitudeDegrees>
            </Position>
            <AltitudeMeters>35.40000152587890625</AltitudeMeters>
            <DistanceMeters>NAN</DistanceMeters>
          </Trackpoint>
          <Trackpoint>
            <Time>2022-07-17T15:38:49.000Z</Time>
            <Position>
              <LatitudeDegrees>43.48787876777350902557373046875</LatitudeDegrees>
              <LongitudeDegrees>-5.44303835369646549224853515625</LongitudeDegrees>
            </Position>
            <AltitudeMeters>36.200000762939453125</AltitudeMeters>
            <DistanceMeters>NAN</DistanceMeters>
          </Trackpoint>
          <Trackpoint>
            <Time>2022-07-17T15:38:51.000Z</Time>
            <Position>
              <LatitudeDegrees>43.48789670504629611968994140625</LatitudeDegrees>
              <LongitudeDegrees>-5.443093590438365936279296875</LongitudeDegrees>
            </Position>
            <AltitudeMeters>36.200000762939453125</AltitudeMeters>
            <DistanceMeters>NAN</DistanceMeters>
          </Trackpoint>
          <Trackpoint>
            <Time>2022-07-17T15:38:56.000Z</Time>
            <Position>
              <LatitudeDegrees>43.48794599063694477081298828125</LatitudeDegrees>
              <LongitudeDegrees>-5.44323314912617206573486328125</LongitudeDegrees>
            </Position>
            <AltitudeMeters>36.799999237060546875</AltitudeMeters>
            <DistanceMeters>NAN</DistanceMeters>
          </Trackpoint>
          <Trackpoint>
            <Time>2022-07-17T15:39:01.000Z</Time>
            <Position>
              <LatitudeDegrees>43.4879983775317668914794921875</LatitudeDegrees>
              <LongitudeDegrees>-5.44339139945805072784423828125</LongitudeDegrees>
            </Position>
            <AltitudeMeters>37.200000762939453125</AltitudeMeters>
            <DistanceMeters>NAN</DistanceMeters>
          </Trackpoint>
          <Trackpoint>
            <Time>2022-07-17T15:39:04.000Z</Time>
            <Position>
              <LatitudeDegrees>43.488028384745121002197265625</LatitudeDegrees>
              <LongitudeDegrees>-5.4434786550700664520263671875</LongitudeDegrees>
            </Position>
            <AltitudeMeters>37.200000762939453125</AltitudeMeters>
            <DistanceMeters>NAN</DistanceMeters>
          </Trackpoint>
          <Trackpoint>
            <Time>2022-07-17T15:39:05.000Z</Time>
            <Position>
              <LatitudeDegrees>43.48804087378084659576416015625</LatitudeDegrees>
              <LongitudeDegrees>-5.44351167976856231689453125</LongitudeDegrees>
            </Position>
            <AltitudeMeters>37.59999847412109375</AltitudeMeters>
            <DistanceMeters>NAN</DistanceMeters>
          </Trackpoint>
          <Trackpoint>
            <Time>2022-07-17T15:39:15.000Z</Time>
            <Position>
              <LatitudeDegrees>43.48814128898084163665771484375</LatitudeDegrees>
              <LongitudeDegrees>-5.44379465281963348388671875</LongitudeDegrees>
            </Position>
            <AltitudeMeters>38.40000152587890625</AltitudeMeters>
            <DistanceMeters>NAN</DistanceMeters>
          </Trackpoint>
          <Trackpoint>
            <Time>2022-07-17T15:39:17.000Z</Time>
            <Position>
              <LatitudeDegrees>43.48816073499619960784912109375</LatitudeDegrees>
              <LongitudeDegrees>-5.4438476264476776123046875</LongitudeDegrees>
            </Position>
            <AltitudeMeters>38.799999237060546875</AltitudeMeters>
            <DistanceMeters>NAN</DistanceMeters>
          </Trackpoint>
          <Trackpoint>
            <Time>2022-07-17T15:39:22.000Z</Time>
            <Position>
              <LatitudeDegrees>43.48820549435913562774658203125</LatitudeDegrees>
              <LongitudeDegrees>-5.44397293590009212493896484375</LongitudeDegrees>
            </Position>
            <AltitudeMeters>39.200000762939453125</AltitudeMeters>
            <DistanceMeters>NAN</DistanceMeters>
          </Trackpoint>
          <Trackpoint>
            <Time>2022-07-17T15:39:23.000Z</Time>
            <Position>
              <LatitudeDegrees>43.48821488209068775177001953125</LatitudeDegrees>
              <LongitudeDegrees>-5.4439969919621944427490234375</LongitudeDegrees>
            </Position>
            <AltitudeMeters>39.200000762939453125</AltitudeMeters>
            <DistanceMeters>NAN</DistanceMeters>
          </Trackpoint>
          <Trackpoint>
            <Time>2022-07-17T15:39:25.000Z</Time>
            <Position>
              <LatitudeDegrees>43.488224186003208160400390625</LatitudeDegrees>
              <LongitudeDegrees>-5.44404921121895313262939453125</LongitudeDegrees>
            </Position>
            <AltitudeMeters>39.40000152587890625</AltitudeMeters>
            <DistanceMeters>NAN</DistanceMeters>
          </Trackpoint>
          <Trackpoint>
            <Time>2022-07-17T15:39:29.000Z</Time>
            <Position>
              <LatitudeDegrees>43.48826902918517589569091796875</LatitudeDegrees>
              <LongitudeDegrees>-5.4441626183688640594482421875</LongitudeDegrees>
            </Position>
            <AltitudeMeters>40</AltitudeMeters>
            <DistanceMeters>NAN</DistanceMeters>
          </Trackpoint>
          <Trackpoint>
            <Time>2022-07-17T15:39:34.000Z</Time>
            <Position>
              <LatitudeDegrees>43.4883083403110504150390625</LatitudeDegrees>
              <LongitudeDegrees>-5.44429488480091094970703125</LongitudeDegrees>
            </Position>
            <AltitudeMeters>40.200000762939453125</AltitudeMeters>
            <DistanceMeters>NAN</DistanceMeters>
          </Trackpoint>
          <Trackpoint>
            <Time>2022-07-17T15:39:36.000Z</Time>
            <Position>
              <LatitudeDegrees>43.48832803778350353240966796875</LatitudeDegrees>
              <LongitudeDegrees>-5.44434274546802043914794921875</LongitudeDegrees>
            </Position>
            <AltitudeMeters>40.40000152587890625</AltitudeMeters>
            <DistanceMeters>NAN</DistanceMeters>
          </Trackpoint>
          <Trackpoint>
            <Time>2022-07-17T15:39:38.000Z</Time>
            <Position>
              <LatitudeDegrees>43.48834698088467121124267578125</LatitudeDegrees>
              <LongitudeDegrees>-5.44439219869673252105712890625</LongitudeDegrees>
            </Position>
            <AltitudeMeters>40.59999847412109375</AltitudeMeters>
            <DistanceMeters>NAN</DistanceMeters>
          </Trackpoint>
          <Trackpoint>
            <Time>2022-07-17T15:39:47.000Z</Time>
            <Position>
              <LatitudeDegrees>43.4884464740753173828125</LatitudeDegrees>
              <LongitudeDegrees>-5.44464549981057643890380859375</LongitudeDegrees>
            </Position>
            <AltitudeMeters>41.40000152587890625</AltitudeMeters>
            <DistanceMeters>NAN</DistanceMeters>
          </Trackpoint>
          <Trackpoint>
            <Time>2022-07-17T15:39:48.000Z</Time>
            <Position>
              <LatitudeDegrees>43.48845376633107662200927734375</LatitudeDegrees>
              <LongitudeDegrees>-5.44467232190072536468505859375</LongitudeDegrees>
            </Position>
            <AltitudeMeters>41.40000152587890625</AltitudeMeters>
            <DistanceMeters>NAN</DistanceMeters>
          </Trackpoint>
          <Trackpoint>
            <Time>2022-07-17T15:39:51.000Z</Time>
            <Position>
              <LatitudeDegrees>43.488479666411876678466796875</LatitudeDegrees>
              <LongitudeDegrees>-5.444755218923091888427734375</LongitudeDegrees>
            </Position>
            <AltitudeMeters>41.799999237060546875</AltitudeMeters>
            <DistanceMeters>NAN</DistanceMeters>
          </Trackpoint>
          <Trackpoint>
            <Time>2022-07-17T15:39:55.000Z</Time>
            <Position>
              <LatitudeDegrees>43.48850523121654987335205078125</LatitudeDegrees>
              <LongitudeDegrees>-5.44485705904662609100341796875</LongitudeDegrees>
            </Position>
            <AltitudeMeters>42.200000762939453125</AltitudeMeters>
            <DistanceMeters>NAN</DistanceMeters>
          </Trackpoint>
          <Trackpoint>
            <Time>2022-07-17T15:39:58.000Z</Time>
            <Position>
              <LatitudeDegrees>43.48852920345962047576904296875</LatitudeDegrees>
              <LongitudeDegrees>-5.44492629356682300567626953125</LongitudeDegrees>
            </Position>
            <AltitudeMeters>42.59999847412109375</AltitudeMeters>
            <DistanceMeters>NAN</DistanceMeters>
          </Trackpoint>
          <Trackpoint>
            <Time>2022-07-17T15:40:01.000Z</Time>
            <Position>
              <LatitudeDegrees>43.48855351097881793975830078125</LatitudeDegrees>
              <LongitudeDegrees>-5.4449929296970367431640625</LongitudeDegrees>
            </Position>
            <AltitudeMeters>42.799999237060546875</AltitudeMeters>
            <DistanceMeters>NAN</DistanceMeters>
          </Trackpoint>
          <Trackpoint>
            <Time>2022-07-17T15:40:04.000Z</Time>
            <Position>
              <LatitudeDegrees>43.4885649941861629486083984375</LatitudeDegrees>
              <LongitudeDegrees>-5.4450653493404388427734375</LongitudeDegrees>
            </Position>
            <AltitudeMeters>43</AltitudeMeters>
            <DistanceMeters>NAN</DistanceMeters>
          </Trackpoint>
          <Trackpoint>
            <Time>2022-07-17T15:40:05.000Z</Time>
            <Position>
              <LatitudeDegrees>43.48857580684125423431396484375</LatitudeDegrees>
              <LongitudeDegrees>-5.4450930096209049224853515625</LongitudeDegrees>
            </Position>
            <AltitudeMeters>43.200000762939453125</AltitudeMeters>
            <DistanceMeters>NAN</DistanceMeters>
          </Trackpoint>
          <Trackpoint>
            <Time>2022-07-17T15:40:09.000Z</Time>
            <Position>
              <LatitudeDegrees>43.4886179678142070770263671875</LatitudeDegrees>
              <LongitudeDegrees>-5.445215888321399688720703125</LongitudeDegrees>
            </Position>
            <AltitudeMeters>43.59999847412109375</AltitudeMeters>
            <DistanceMeters>NAN</DistanceMeters>
          </Trackpoint>
          <Trackpoint>
            <Time>2022-07-17T15:40:12.000Z</Time>
            <Position>
              <LatitudeDegrees>43.48865057341754436492919921875</LatitudeDegrees>
              <LongitudeDegrees>-5.44530331157147884368896484375</LongitudeDegrees>
            </Position>
            <AltitudeMeters>43.799999237060546875</AltitudeMeters>
            <DistanceMeters>NAN</DistanceMeters>
          </Trackpoint>
          <Trackpoint>
            <Time>2022-07-17T15:40:15.000Z</Time>
            <Position>
              <LatitudeDegrees>43.48867840133607387542724609375</LatitudeDegrees>
              <LongitudeDegrees>-5.4453964345157146453857421875</LongitudeDegrees>
            </Position>
            <AltitudeMeters>44.200000762939453125</AltitudeMeters>
            <DistanceMeters>NAN</DistanceMeters>
          </Trackpoint>
          <Trackpoint>
            <Time>2022-07-17T15:40:18.000Z</Time>
            <Position>
              <LatitudeDegrees>43.488706313073635101318359375</LatitudeDegrees>
              <LongitudeDegrees>-5.445465333759784698486328125</LongitudeDegrees>
            </Position>
            <AltitudeMeters>44.40000152587890625</AltitudeMeters>
            <DistanceMeters>NAN</DistanceMeters>
          </Trackpoint>
          <Trackpoint>
            <Time>2022-07-17T15:40:22.000Z</Time>
            <Position>
              <LatitudeDegrees>43.4887443669140338897705078125</LatitudeDegrees>
              <LongitudeDegrees>-5.44558410532772541046142578125</LongitudeDegrees>
            </Position>
            <AltitudeMeters>44.59999847412109375</AltitudeMeters>
            <DistanceMeters>NAN</DistanceMeters>
          </Trackpoint>
          <Trackpoint>
            <Time>2022-07-17T15:40:23.000Z</Time>
            <Position>
              <LatitudeDegrees>43.48875098861753940582275390625</LatitudeDegrees>
              <LongitudeDegrees>-5.4456125199794769287109375</LongitudeDegrees>
            </Position>
            <AltitudeMeters>44.59999847412109375</AltitudeMeters>
            <DistanceMeters>NAN</DistanceMeters>
          </Trackpoint>
          <Trackpoint>
            <Time>2022-07-17T15:40:26.000Z</Time>
            <Position>
              <LatitudeDegrees>43.4887638129293918609619140625</LatitudeDegrees>
              <LongitudeDegrees>-5.44570648111402988433837890625</LongitudeDegrees>
            </Position>
            <AltitudeMeters>44.799999237060546875</AltitudeMeters>
            <DistanceMeters>NAN</DistanceMeters>
          </Trackpoint>
          <Trackpoint>
            <Time>2022-07-17T15:40:28.000Z</Time>
            <Position>
              <LatitudeDegrees>43.48877395503222942352294921875</LatitudeDegrees>
              <LongitudeDegrees>-5.4457612149417400360107421875</LongitudeDegrees>
            </Position>
            <AltitudeMeters>44.799999237060546875</AltitudeMeters>
            <DistanceMeters>NAN</DistanceMeters>
          </Trackpoint>
          <Trackpoint>
            <Time>2022-07-17T15:40:30.000Z</Time>
            <Position>
              <LatitudeDegrees>43.48878568969666957855224609375</LatitudeDegrees>
              <LongitudeDegrees>-5.44581779278814792633056640625</LongitudeDegrees>
            </Position>
            <AltitudeMeters>45</AltitudeMeters>
            <DistanceMeters>NAN</DistanceMeters>
          </Trackpoint>
          <Trackpoint>
            <Time>2022-07-17T15:40:34.000Z</Time>
            <Position>
              <LatitudeDegrees>43.4888214804232120513916015625</LatitudeDegrees>
              <LongitudeDegrees>-5.44594637118279933929443359375</LongitudeDegrees>
            </Position>
            <AltitudeMeters>45</AltitudeMeters>
            <DistanceMeters>NAN</DistanceMeters>
          </Trackpoint>
          <Trackpoint>
            <Time>2022-07-17T15:40:40.000Z</Time>
            <Position>
              <LatitudeDegrees>43.48892667330801486968994140625</LatitudeDegrees>
              <LongitudeDegrees>-5.4460649751126766204833984375</LongitudeDegrees>
            </Position>
            <AltitudeMeters>45.40000152587890625</AltitudeMeters>
            <DistanceMeters>NAN</DistanceMeters>
          </Trackpoint>
          <Trackpoint>
            <Time>2022-07-17T15:40:44.000Z</Time>
            <Position>
              <LatitudeDegrees>43.48901937715709209442138671875</LatitudeDegrees>
              <LongitudeDegrees>-5.44610512442886829376220703125</LongitudeDegrees>
            </Position>
            <AltitudeMeters>45.59999847412109375</AltitudeMeters>
            <DistanceMeters>NAN</DistanceMeters>
          </Trackpoint>
          <Trackpoint>
            <Time>2022-07-17T15:40:49.000Z</Time>
            <Position>
              <LatitudeDegrees>43.4891399927437305450439453125</LatitudeDegrees>
              <LongitudeDegrees>-5.44614837504923343658447265625</LongitudeDegrees>
            </Position>
            <AltitudeMeters>45.799999237060546875</AltitudeMeters>
            <DistanceMeters>NAN</DistanceMeters>
          </Trackpoint>
          <Trackpoint>
            <Time>2022-07-17T15:40:55.000Z</Time>
            <Position>
              <LatitudeDegrees>43.4892331995069980621337890625</LatitudeDegrees>
              <LongitudeDegrees>-5.44630863703787326812744140625</LongitudeDegrees>
            </Position>
            <AltitudeMeters>45.59999847412109375</AltitudeMeters>
            <DistanceMeters>NAN</DistanceMeters>
          </Trackpoint>
          <Trackpoint>
            <Time>2022-07-17T15:41:04.000Z</Time>
            <Position>
              <LatitudeDegrees>43.48939471878111362457275390625</LatitudeDegrees>
              <LongitudeDegrees>-5.4465915262699127197265625</LongitudeDegrees>
            </Position>
            <AltitudeMeters>45.200000762939453125</AltitudeMeters>
            <DistanceMeters>NAN</DistanceMeters>
          </Trackpoint>
          <Trackpoint>
            <Time>2022-07-17T15:41:09.000Z</Time>
            <Position>
              <LatitudeDegrees>43.48943914286792278289794921875</LatitudeDegrees>
              <LongitudeDegrees>-5.44672320596873760223388671875</LongitudeDegrees>
            </Position>
            <AltitudeMeters>45.59999847412109375</AltitudeMeters>
            <DistanceMeters>NAN</DistanceMeters>
          </Trackpoint>
          <Trackpoint>
            <Time>2022-07-17T15:41:11.000Z</Time>
            <Position>
              <LatitudeDegrees>43.48944358527660369873046875</LatitudeDegrees>
              <LongitudeDegrees>-5.44676343910396099090576171875</LongitudeDegrees>
            </Position>
            <AltitudeMeters>45.799999237060546875</AltitudeMeters>
            <DistanceMeters>NAN</DistanceMeters>
          </Trackpoint>
          <Trackpoint>
            <Time>2022-07-17T15:41:13.000Z</Time>
            <Position>
              <LatitudeDegrees>43.489448614418506622314453125</LatitudeDegrees>
              <LongitudeDegrees>-5.4468076117336750030517578125</LongitudeDegrees>
            </Position>
            <AltitudeMeters>46</AltitudeMeters>
            <DistanceMeters>NAN</DistanceMeters>
          </Trackpoint>
          <Trackpoint>
            <Time>2022-07-17T15:41:18.000Z</Time>
            <Position>
              <LatitudeDegrees>43.48946931771934032440185546875</LatitudeDegrees>
              <LongitudeDegrees>-5.44691766612231731414794921875</LongitudeDegrees>
            </Position>
            <AltitudeMeters>46.59999847412109375</AltitudeMeters>
            <DistanceMeters>NAN</DistanceMeters>
          </Trackpoint>
          <Trackpoint>
            <Time>2022-07-17T15:41:19.000Z</Time>
            <Position>
              <LatitudeDegrees>43.489473424851894378662109375</LatitudeDegrees>
              <LongitudeDegrees>-5.44693677686154842376708984375</LongitudeDegrees>
            </Position>
            <AltitudeMeters>46.799999237060546875</AltitudeMeters>
            <DistanceMeters>NAN</DistanceMeters>
          </Trackpoint>
          <Trackpoint>
            <Time>2022-07-17T15:41:21.000Z</Time>
            <Position>
              <LatitudeDegrees>43.48948658443987369537353515625</LatitudeDegrees>
              <LongitudeDegrees>-5.4469752497971057891845703125</LongitudeDegrees>
            </Position>
            <AltitudeMeters>47</AltitudeMeters>
            <DistanceMeters>NAN</DistanceMeters>
          </Trackpoint>
          <Trackpoint>
            <Time>2022-07-17T15:41:23.000Z</Time>
            <Position>
              <LatitudeDegrees>43.48950167186558246612548828125</LatitudeDegrees>
              <LongitudeDegrees>-5.44700852595269680023193359375</LongitudeDegrees>
            </Position>
            <AltitudeMeters>47.40000152587890625</AltitudeMeters>
            <DistanceMeters>NAN</DistanceMeters>
          </Trackpoint>
          <Trackpoint>
            <Time>2022-07-17T15:41:25.000Z</Time>
            <Position>
              <LatitudeDegrees>43.48951726220548152923583984375</LatitudeDegrees>
              <LongitudeDegrees>-5.44703543186187744140625</LongitudeDegrees>
            </Position>
            <AltitudeMeters>47.799999237060546875</AltitudeMeters>
            <DistanceMeters>NAN</DistanceMeters>
          </Trackpoint>
          <Trackpoint>
            <Time>2022-07-17T15:41:27.000Z</Time>
            <Position>
              <LatitudeDegrees>43.489531092345714569091796875</LatitudeDegrees>
              <LongitudeDegrees>-5.447069294750690460205078125</LongitudeDegrees>
            </Position>
            <AltitudeMeters>48</AltitudeMeters>
            <DistanceMeters>NAN</DistanceMeters>
          </Trackpoint>
          <Trackpoint>
            <Time>2022-07-17T15:41:30.000Z</Time>
            <Position>
              <LatitudeDegrees>43.4895637817680835723876953125</LatitudeDegrees>
              <LongitudeDegrees>-5.4471221007406711578369140625</LongitudeDegrees>
            </Position>
            <AltitudeMeters>48.40000152587890625</AltitudeMeters>
            <DistanceMeters>NAN</DistanceMeters>
          </Trackpoint>
          <Trackpoint>
            <Time>2022-07-17T15:41:34.000Z</Time>
            <Position>
              <LatitudeDegrees>43.48961122334003448486328125</LatitudeDegrees>
              <LongitudeDegrees>-5.44717465527355670928955078125</LongitudeDegrees>
            </Position>
            <AltitudeMeters>48.799999237060546875</AltitudeMeters>
            <DistanceMeters>NAN</DistanceMeters>
          </Trackpoint>
          <Trackpoint>
            <Time>2022-07-17T15:41:35.000Z</Time>
            <Position>
              <LatitudeDegrees>43.48962237127125263214111328125</LatitudeDegrees>
              <LongitudeDegrees>-5.44718823395669460296630859375</LongitudeDegrees>
            </Position>
            <AltitudeMeters>49</AltitudeMeters>
            <DistanceMeters>NAN</DistanceMeters>
          </Trackpoint>
          <Trackpoint>
            <Time>2022-07-17T15:41:41.000Z</Time>
            <Position>
              <LatitudeDegrees>43.4897009097039699554443359375</LatitudeDegrees>
              <LongitudeDegrees>-5.44726467691361904144287109375</LongitudeDegrees>
            </Position>
            <AltitudeMeters>49.799999237060546875</AltitudeMeters>
            <DistanceMeters>NAN</DistanceMeters>
          </Trackpoint>
          <Trackpoint>
            <Time>2022-07-17T15:41:42.000Z</Time>
            <Position>
              <LatitudeDegrees>43.48971289582550525665283203125</LatitudeDegrees>
              <LongitudeDegrees>-5.447275824844837188720703125</LongitudeDegrees>
            </Position>
            <AltitudeMeters>49.799999237060546875</AltitudeMeters>
            <DistanceMeters>NAN</DistanceMeters>
          </Trackpoint>
          <Trackpoint>
            <Time>2022-07-17T15:41:44.000Z</Time>
            <Position>
              <LatitudeDegrees>43.489748351275920867919921875</LatitudeDegrees>
              <LongitudeDegrees>-5.44728881679475307464599609375</LongitudeDegrees>
            </Position>
            <AltitudeMeters>50.200000762939453125</AltitudeMeters>
            <DistanceMeters>NAN</DistanceMeters>
          </Trackpoint>
          <Trackpoint>
            <Time>2022-07-17T15:41:47.000Z</Time>
            <Position>
              <LatitudeDegrees>43.48980174399912357330322265625</LatitudeDegrees>
              <LongitudeDegrees>-5.44731496833264827728271484375</LongitudeDegrees>
            </Position>
            <AltitudeMeters>50.40000152587890625</AltitudeMeters>
            <DistanceMeters>NAN</DistanceMeters>
          </Trackpoint>
          <Trackpoint>
            <Time>2022-07-17T15:41:50.000Z</Time>
            <Position>
              <LatitudeDegrees>43.48985002376139163970947265625</LatitudeDegrees>
              <LongitudeDegrees>-5.44732653535902500152587890625</LongitudeDegrees>
            </Position>
            <AltitudeMeters>51</AltitudeMeters>
            <DistanceMeters>NAN</DistanceMeters>
          </Trackpoint>
          <Trackpoint>
            <Time>2022-07-17T15:41:53.000Z</Time>
            <Position>
              <LatitudeDegrees>43.48990450613200664520263671875</LatitudeDegrees>
              <LongitudeDegrees>-5.44734044931828975677490234375</LongitudeDegrees>
            </Position>
            <AltitudeMeters>51.40000152587890625</AltitudeMeters>
            <DistanceMeters>NAN</DistanceMeters>
          </Trackpoint>
          <Trackpoint>
            <Time>2022-07-17T15:41:55.000Z</Time>
            <Position>
              <LatitudeDegrees>43.48993652500212192535400390625</LatitudeDegrees>
              <LongitudeDegrees>-5.4473417066037654876708984375</LongitudeDegrees>
            </Position>
            <AltitudeMeters>51.59999847412109375</AltitudeMeters>
            <DistanceMeters>NAN</DistanceMeters>
          </Trackpoint>
          <Trackpoint>
            <Time>2022-07-17T15:41:58.000Z</Time>
            <Position>
              <LatitudeDegrees>43.48998581059277057647705078125</LatitudeDegrees>
              <LongitudeDegrees>-5.4473264515399932861328125</LongitudeDegrees>
            </Position>
            <AltitudeMeters>52</AltitudeMeters>
            <DistanceMeters>NAN</DistanceMeters>
          </Trackpoint>
          <Trackpoint>
            <Time>2022-07-17T15:42:04.000Z</Time>
            <Position>
              <LatitudeDegrees>43.49006292410194873809814453125</LatitudeDegrees>
              <LongitudeDegrees>-5.44719594530761241912841796875</LongitudeDegrees>
            </Position>
            <AltitudeMeters>52.59999847412109375</AltitudeMeters>
            <DistanceMeters>NAN</DistanceMeters>
          </Trackpoint>
          <Trackpoint>
            <Time>2022-07-17T15:42:10.000Z</Time>
            <Position>
              <LatitudeDegrees>43.49008999764919281005859375</LatitudeDegrees>
              <LongitudeDegrees>-5.447033755481243133544921875</LongitudeDegrees>
            </Position>
            <AltitudeMeters>53.200000762939453125</AltitudeMeters>
            <DistanceMeters>NAN</DistanceMeters>
          </Trackpoint>
          <Trackpoint>
            <Time>2022-07-17T15:42:13.000Z</Time>
            <Position>
              <LatitudeDegrees>43.49009804427623748779296875</LatitudeDegrees>
              <LongitudeDegrees>-5.44694817624986171722412109375</LongitudeDegrees>
            </Position>
            <AltitudeMeters>53.40000152587890625</AltitudeMeters>
            <DistanceMeters>NAN</DistanceMeters>
          </Trackpoint>
          <Trackpoint>
            <Time>2022-07-17T15:42:21.000Z</Time>
            <Position>
              <LatitudeDegrees>43.49010885693132877349853515625</LatitudeDegrees>
              <LongitudeDegrees>-5.4467328451573848724365234375</LongitudeDegrees>
            </Position>
            <AltitudeMeters>54</AltitudeMeters>
            <DistanceMeters>NAN</DistanceMeters>
          </Trackpoint>
          <Trackpoint>
            <Time>2022-07-17T15:42:22.000Z</Time>
            <Position>
              <LatitudeDegrees>43.49010877311229705810546875</LatitudeDegrees>
              <LongitudeDegrees>-5.4467100463807582855224609375</LongitudeDegrees>
            </Position>
            <AltitudeMeters>54.200000762939453125</AltitudeMeters>
            <DistanceMeters>NAN</DistanceMeters>
          </Trackpoint>
          <Trackpoint>
            <Time>2022-07-17T15:42:30.000Z</Time>
            <Position>
              <LatitudeDegrees>43.49014632403850555419921875</LatitudeDegrees>
              <LongitudeDegrees>-5.44650527648627758026123046875</LongitudeDegrees>
            </Position>
            <AltitudeMeters>54.799999237060546875</AltitudeMeters>
            <DistanceMeters>NAN</DistanceMeters>
          </Trackpoint>
          <Trackpoint>
            <Time>2022-07-17T15:42:35.000Z</Time>
            <Position>
              <LatitudeDegrees>43.49019887857139110565185546875</LatitudeDegrees>
              <LongitudeDegrees>-5.4463948868215084075927734375</LongitudeDegrees>
            </Position>
            <AltitudeMeters>55.200000762939453125</AltitudeMeters>
            <DistanceMeters>NAN</DistanceMeters>
          </Trackpoint>
          <Trackpoint>
            <Time>2022-07-17T15:42:38.000Z</Time>
            <Position>
              <LatitudeDegrees>43.49023978225886821746826171875</LatitudeDegrees>
              <LongitudeDegrees>-5.44634811580181121826171875</LongitudeDegrees>
            </Position>
            <AltitudeMeters>55.59999847412109375</AltitudeMeters>
            <DistanceMeters>NAN</DistanceMeters>
          </Trackpoint>
          <Trackpoint>
            <Time>2022-07-17T15:42:43.000Z</Time>
            <Position>
              <LatitudeDegrees>43.4903064183890819549560546875</LatitudeDegrees>
              <LongitudeDegrees>-5.44631131924688816070556640625</LongitudeDegrees>
            </Position>
            <AltitudeMeters>56</AltitudeMeters>
            <DistanceMeters>NAN</DistanceMeters>
          </Trackpoint>
          <Trackpoint>
            <Time>2022-07-17T15:42:45.000Z</Time>
            <Position>
              <LatitudeDegrees>43.49032997153699398040771484375</LatitudeDegrees>
              <LongitudeDegrees>-5.4463233053684234619140625</LongitudeDegrees>
            </Position>
            <AltitudeMeters>56</AltitudeMeters>
            <DistanceMeters>NAN</DistanceMeters>
          </Trackpoint>
          <Trackpoint>
            <Time>2022-07-17T15:42:49.000Z</Time>
            <Position>
              <LatitudeDegrees>43.49033785052597522735595703125</LatitudeDegrees>
              <LongitudeDegrees>-5.44633730314671993255615234375</LongitudeDegrees>
            </Position>
            <AltitudeMeters>56.200000762939453125</AltitudeMeters>
            <DistanceMeters>NAN</DistanceMeters>
          </Trackpoint>
          <Trackpoint>
            <Time>2022-07-17T15:46:01.000Z</Time>
            <Position>
              <LatitudeDegrees>43.4903761558234691619873046875</LatitudeDegrees>
              <LongitudeDegrees>-5.44647158123552799224853515625</LongitudeDegrees>
            </Position>
            <AltitudeMeters>56.799999237060546875</AltitudeMeters>
            <DistanceMeters>NAN</DistanceMeters>
          </Trackpoint>
          <Trackpoint>
            <Time>2022-07-17T15:46:02.000Z</Time>
            <Position>
              <LatitudeDegrees>43.49039576947689056396484375</LatitudeDegrees>
              <LongitudeDegrees>-5.4464787058532238006591796875</LongitudeDegrees>
            </Position>
            <AltitudeMeters>56.799999237060546875</AltitudeMeters>
            <DistanceMeters>NAN</DistanceMeters>
          </Trackpoint>
          <Trackpoint>
            <Time>2022-07-17T15:46:05.000Z</Time>
            <Position>
              <LatitudeDegrees>43.49044044502079486846923828125</LatitudeDegrees>
              <LongitudeDegrees>-5.44649488292634487152099609375</LongitudeDegrees>
            </Position>
            <AltitudeMeters>57.799999237060546875</AltitudeMeters>
            <DistanceMeters>NAN</DistanceMeters>
          </Trackpoint>
          <Trackpoint>
            <Time>2022-07-17T15:46:08.000Z</Time>
            <Position>
              <LatitudeDegrees>43.4904760681092739105224609375</LatitudeDegrees>
              <LongitudeDegrees>-5.44652053155004978179931640625</LongitudeDegrees>
            </Position>
            <AltitudeMeters>59</AltitudeMeters>
            <DistanceMeters>NAN</DistanceMeters>
          </Trackpoint>
          <Trackpoint>
            <Time>2022-07-17T15:46:09.000Z</Time>
            <Position>
              <LatitudeDegrees>43.49049367010593414306640625</LatitudeDegrees>
              <LongitudeDegrees>-5.446536205708980560302734375</LongitudeDegrees>
            </Position>
            <AltitudeMeters>59</AltitudeMeters>
            <DistanceMeters>NAN</DistanceMeters>
          </Trackpoint>
          <Trackpoint>
            <Time>2022-07-17T15:46:11.000Z</Time>
            <Position>
              <LatitudeDegrees>43.49051646888256072998046875</LatitudeDegrees>
              <LongitudeDegrees>-5.446555651724338531494140625</LongitudeDegrees>
            </Position>
            <AltitudeMeters>59.200000762939453125</AltitudeMeters>
            <DistanceMeters>NAN</DistanceMeters>
          </Trackpoint>
          <Trackpoint>
            <Time>2022-07-17T15:46:16.000Z</Time>
            <Position>
              <LatitudeDegrees>43.49056617356836795806884765625</LatitudeDegrees>
              <LongitudeDegrees>-5.44661633670330047607421875</LongitudeDegrees>
            </Position>
            <AltitudeMeters>59.59999847412109375</AltitudeMeters>
            <DistanceMeters>NAN</DistanceMeters>
          </Trackpoint>
          <Trackpoint>
            <Time>2022-07-17T15:46:20.000Z</Time>
            <Position>
              <LatitudeDegrees>43.4906178899109363555908203125</LatitudeDegrees>
              <LongitudeDegrees>-5.4466543905436992645263671875</LongitudeDegrees>
            </Position>
            <AltitudeMeters>60</AltitudeMeters>
            <DistanceMeters>NAN</DistanceMeters>
          </Trackpoint>
          <Trackpoint>
            <Time>2022-07-17T15:46:23.000Z</Time>
            <Position>
              <LatitudeDegrees>43.490642197430133819580078125</LatitudeDegrees>
              <LongitudeDegrees>-5.44669353403151035308837890625</LongitudeDegrees>
            </Position>
            <AltitudeMeters>60.200000762939453125</AltitudeMeters>
            <DistanceMeters>NAN</DistanceMeters>
          </Trackpoint>
          <Trackpoint>
            <Time>2022-07-17T15:46:25.000Z</Time>
            <Position>
              <LatitudeDegrees>43.49066021852195262908935546875</LatitudeDegrees>
              <LongitudeDegrees>-5.44672035612165927886962890625</LongitudeDegrees>
            </Position>
            <AltitudeMeters>60.59999847412109375</AltitudeMeters>
            <DistanceMeters>NAN</DistanceMeters>
          </Trackpoint>
          <Trackpoint>
            <Time>2022-07-17T15:46:28.000Z</Time>
            <Position>
              <LatitudeDegrees>43.49070900119841098785400390625</LatitudeDegrees>
              <LongitudeDegrees>-5.44678489677608013153076171875</LongitudeDegrees>
            </Position>
            <AltitudeMeters>61</AltitudeMeters>
            <DistanceMeters>NAN</DistanceMeters>
          </Trackpoint>
          <Trackpoint>
            <Time>2022-07-17T15:46:36.000Z</Time>
            <Position>
              <LatitudeDegrees>43.4908180497586727142333984375</LatitudeDegrees>
              <LongitudeDegrees>-5.4469430632889270782470703125</LongitudeDegrees>
            </Position>
            <AltitudeMeters>61.59999847412109375</AltitudeMeters>
            <DistanceMeters>NAN</DistanceMeters>
          </Trackpoint>
          <Trackpoint>
            <Time>2022-07-17T15:46:41.000Z</Time>
            <Position>
              <LatitudeDegrees>43.49088049493730068206787109375</LatitudeDegrees>
              <LongitudeDegrees>-5.44702461920678615570068359375</LongitudeDegrees>
            </Position>
            <AltitudeMeters>62</AltitudeMeters>
            <DistanceMeters>NAN</DistanceMeters>
          </Trackpoint>
          <Trackpoint>
            <Time>2022-07-17T15:46:42.000Z</Time>
            <Position>
              <LatitudeDegrees>43.49089273251593112945556640625</LatitudeDegrees>
              <LongitudeDegrees>-5.4470456577837467193603515625</LongitudeDegrees>
            </Position>
            <AltitudeMeters>62.200000762939453125</AltitudeMeters>
            <DistanceMeters>NAN</DistanceMeters>
          </Trackpoint>
          <Trackpoint>
            <Time>2022-07-17T15:46:44.000Z</Time>
            <Position>
              <LatitudeDegrees>43.49092416465282440185546875</LatitudeDegrees>
              <LongitudeDegrees>-5.4470850527286529541015625</LongitudeDegrees>
            </Position>
            <AltitudeMeters>62.40000152587890625</AltitudeMeters>
            <DistanceMeters>NAN</DistanceMeters>
          </Trackpoint>
          <Trackpoint>
            <Time>2022-07-17T15:46:50.000Z</Time>
            <Position>
              <LatitudeDegrees>43.4909866936504840850830078125</LatitudeDegrees>
              <LongitudeDegrees>-5.4471896588802337646484375</LongitudeDegrees>
            </Position>
            <AltitudeMeters>63</AltitudeMeters>
            <DistanceMeters>NAN</DistanceMeters>
          </Trackpoint>
          <Trackpoint>
            <Time>2022-07-17T15:46:51.000Z</Time>
            <Position>
              <LatitudeDegrees>43.490996249020099639892578125</LatitudeDegrees>
              <LongitudeDegrees>-5.44720952399075031280517578125</LongitudeDegrees>
            </Position>
            <AltitudeMeters>63.200000762939453125</AltitudeMeters>
            <DistanceMeters>NAN</DistanceMeters>
          </Trackpoint>
          <Trackpoint>
            <Time>2022-07-17T15:46:52.000Z</Time>
            <Position>
              <LatitudeDegrees>43.49101292900741100311279296875</LatitudeDegrees>
              <LongitudeDegrees>-5.4472317360341548919677734375</LongitudeDegrees>
            </Position>
            <AltitudeMeters>63.200000762939453125</AltitudeMeters>
            <DistanceMeters>NAN</DistanceMeters>
          </Trackpoint>
          <Trackpoint>
            <Time>2022-07-17T15:46:55.000Z</Time>
            <Position>
              <LatitudeDegrees>43.49106187932193279266357421875</LatitudeDegrees>
              <LongitudeDegrees>-5.44728211127221584320068359375</LongitudeDegrees>
            </Position>
            <AltitudeMeters>63.59999847412109375</AltitudeMeters>
            <DistanceMeters>NAN</DistanceMeters>
          </Trackpoint>
          <Trackpoint>
            <Time>2022-07-17T15:46:59.000Z</Time>
            <Position>
              <LatitudeDegrees>43.4911327064037322998046875</LatitudeDegrees>
              <LongitudeDegrees>-5.447327457368373870849609375</LongitudeDegrees>
            </Position>
            <AltitudeMeters>64.1999969482421875</AltitudeMeters>
            <DistanceMeters>NAN</DistanceMeters>
          </Trackpoint>
          <Trackpoint>
            <Time>2022-07-17T15:47:01.000Z</Time>
            <Position>
              <LatitudeDegrees>43.49116547964513301849365234375</LatitudeDegrees>
              <LongitudeDegrees>-5.4473521001636981964111328125</LongitudeDegrees>
            </Position>
            <AltitudeMeters>64.40000152587890625</AltitudeMeters>
            <DistanceMeters>NAN</DistanceMeters>
          </Trackpoint>
          <Trackpoint>
            <Time>2022-07-17T15:47:03.000Z</Time>
            <Position>
              <LatitudeDegrees>43.4911965765058994293212890625</LatitudeDegrees>
              <LongitudeDegrees>-5.44737162999808788299560546875</LongitudeDegrees>
            </Position>
            <AltitudeMeters>64.59999847412109375</AltitudeMeters>
            <DistanceMeters>NAN</DistanceMeters>
          </Trackpoint>
          <Trackpoint>
            <Time>2022-07-17T15:47:05.000Z</Time>
            <Position>
              <LatitudeDegrees>43.49122616462409496307373046875</LatitudeDegrees>
              <LongitudeDegrees>-5.44738453812897205352783203125</LongitudeDegrees>
            </Position>
            <AltitudeMeters>65</AltitudeMeters>
            <DistanceMeters>NAN</DistanceMeters>
          </Trackpoint>
          <Trackpoint>
            <Time>2022-07-17T15:47:06.000Z</Time>
            <Position>
              <LatitudeDegrees>43.49124602973461151123046875</LatitudeDegrees>
              <LongitudeDegrees>-5.4473950155079364776611328125</LongitudeDegrees>
            </Position>
            <AltitudeMeters>65</AltitudeMeters>
            <DistanceMeters>NAN</DistanceMeters>
          </Trackpoint>
          <Trackpoint>
            <Time>2022-07-17T15:47:07.000Z</Time>
            <Position>
              <LatitudeDegrees>43.49126270972192287445068359375</LatitudeDegrees>
              <LongitudeDegrees>-5.44740247540175914764404296875</LongitudeDegrees>
            </Position>
            <AltitudeMeters>65</AltitudeMeters>
            <DistanceMeters>NAN</DistanceMeters>
          </Trackpoint>
          <Trackpoint>
            <Time>2022-07-17T15:47:10.000Z</Time>
            <Position>
              <LatitudeDegrees>43.49130847491323947906494140625</LatitudeDegrees>
              <LongitudeDegrees>-5.4474176466464996337890625</LongitudeDegrees>
            </Position>
            <AltitudeMeters>65.1999969482421875</AltitudeMeters>
            <DistanceMeters>NAN</DistanceMeters>
          </Trackpoint>
          <Trackpoint>
            <Time>2022-07-17T15:47:15.000Z</Time>
            <Position>
              <LatitudeDegrees>43.491388857364654541015625</LatitudeDegrees>
              <LongitudeDegrees>-5.447470955550670623779296875</LongitudeDegrees>
            </Position>
            <AltitudeMeters>65.1999969482421875</AltitudeMeters>
            <DistanceMeters>NAN</DistanceMeters>
          </Trackpoint>
          <Trackpoint>
            <Time>2022-07-17T15:47:17.000Z</Time>
            <Position>
              <LatitudeDegrees>43.49143110215663909912109375</LatitudeDegrees>
              <LongitudeDegrees>-5.44749316759407520294189453125</LongitudeDegrees>
            </Position>
            <AltitudeMeters>65.59999847412109375</AltitudeMeters>
            <DistanceMeters>NAN</DistanceMeters>
          </Trackpoint>
          <Trackpoint>
            <Time>2022-07-17T15:47:23.000Z</Time>
            <Position>
              <LatitudeDegrees>43.4914983250200748443603515625</LatitudeDegrees>
              <LongitudeDegrees>-5.44758201576769351959228515625</LongitudeDegrees>
            </Position>
            <AltitudeMeters>66.59999847412109375</AltitudeMeters>
            <DistanceMeters>NAN</DistanceMeters>
          </Trackpoint>
          <Trackpoint>
            <Time>2022-07-17T15:47:27.000Z</Time>
            <Position>
              <LatitudeDegrees>43.49154417403042316436767578125</LatitudeDegrees>
              <LongitudeDegrees>-5.447660721838474273681640625</LongitudeDegrees>
            </Position>
            <AltitudeMeters>67</AltitudeMeters>
            <DistanceMeters>NAN</DistanceMeters>
          </Trackpoint>
          <Trackpoint>
            <Time>2022-07-17T15:47:30.000Z</Time>
            <Position>
              <LatitudeDegrees>43.49156060256063938140869140625</LatitudeDegrees>
              <LongitudeDegrees>-5.44771981425583362579345703125</LongitudeDegrees>
            </Position>
            <AltitudeMeters>67.1999969482421875</AltitudeMeters>
            <DistanceMeters>NAN</DistanceMeters>
          </Trackpoint>
          <Trackpoint>
            <Time>2022-07-17T15:47:31.000Z</Time>
            <Position>
              <LatitudeDegrees>43.49156378768384456634521484375</LatitudeDegrees>
              <LongitudeDegrees>-5.4477450437843799591064453125</LongitudeDegrees>
            </Position>
            <AltitudeMeters>67.1999969482421875</AltitudeMeters>
            <DistanceMeters>NAN</DistanceMeters>
          </Trackpoint>
          <Trackpoint>
            <Time>2022-07-17T15:47:33.000Z</Time>
            <Position>
              <LatitudeDegrees>43.4915677271783351898193359375</LatitudeDegrees>
              <LongitudeDegrees>-5.44780564494431018829345703125</LongitudeDegrees>
            </Position>
            <AltitudeMeters>67.40000152587890625</AltitudeMeters>
            <DistanceMeters>NAN</DistanceMeters>
          </Trackpoint>
          <Trackpoint>
            <Time>2022-07-17T15:47:40.000Z</Time>
            <Position>
              <LatitudeDegrees>43.49158725701272487640380859375</LatitudeDegrees>
              <LongitudeDegrees>-5.447986610233783721923828125</LongitudeDegrees>
            </Position>
            <AltitudeMeters>67.59999847412109375</AltitudeMeters>
            <DistanceMeters>NAN</DistanceMeters>
          </Trackpoint>
          <Trackpoint>
            <Time>2022-07-17T15:47:41.000Z</Time>
            <Position>
              <LatitudeDegrees>43.49158843047916889190673828125</LatitudeDegrees>
              <LongitudeDegrees>-5.4480139352381229400634765625</LongitudeDegrees>
            </Position>
            <AltitudeMeters>67.59999847412109375</AltitudeMeters>
            <DistanceMeters>NAN</DistanceMeters>
          </Trackpoint>
          <Trackpoint>
            <Time>2022-07-17T15:47:46.000Z</Time>
            <Position>
              <LatitudeDegrees>43.4916002489626407623291015625</LatitudeDegrees>
              <LongitudeDegrees>-5.44812700711190700531005859375</LongitudeDegrees>
            </Position>
            <AltitudeMeters>67.8000030517578125</AltitudeMeters>
            <DistanceMeters>NAN</DistanceMeters>
          </Trackpoint>
          <Trackpoint>
            <Time>2022-07-17T15:47:52.000Z</Time>
            <Position>
              <LatitudeDegrees>43.4915965609252452850341796875</LatitudeDegrees>
              <LongitudeDegrees>-5.4482667334377765655517578125</LongitudeDegrees>
            </Position>
            <AltitudeMeters>68.1999969482421875</AltitudeMeters>
            <DistanceMeters>NAN</DistanceMeters>
          </Trackpoint>
          <Trackpoint>
            <Time>2022-07-17T15:47:57.000Z</Time>
            <Position>
              <LatitudeDegrees>43.4915972314774990081787109375</LatitudeDegrees>
              <LongitudeDegrees>-5.44838332571089267730712890625</LongitudeDegrees>
            </Position>
            <AltitudeMeters>68.59999847412109375</AltitudeMeters>
            <DistanceMeters>NAN</DistanceMeters>
          </Trackpoint>
          <Trackpoint>
            <Time>2022-07-17T15:48:05.000Z</Time>
            <Position>
              <LatitudeDegrees>43.491615839302539825439453125</LatitudeDegrees>
              <LongitudeDegrees>-5.44858884997665882110595703125</LongitudeDegrees>
            </Position>
            <AltitudeMeters>69.1999969482421875</AltitudeMeters>
            <DistanceMeters>NAN</DistanceMeters>
          </Trackpoint>
          <Trackpoint>
            <Time>2022-07-17T15:48:10.000Z</Time>
            <Position>
              <LatitudeDegrees>43.4916287474334239959716796875</LatitudeDegrees>
              <LongitudeDegrees>-5.44871055521070957183837890625</LongitudeDegrees>
            </Position>
            <AltitudeMeters>69.59999847412109375</AltitudeMeters>
            <DistanceMeters>NAN</DistanceMeters>
          </Trackpoint>
          <Trackpoint>
            <Time>2022-07-17T15:48:14.000Z</Time>
            <Position>
              <LatitudeDegrees>43.4916716627776622772216796875</LatitudeDegrees>
              <LongitudeDegrees>-5.448803342878818511962890625</LongitudeDegrees>
            </Position>
            <AltitudeMeters>70</AltitudeMeters>
            <DistanceMeters>NAN</DistanceMeters>
          </Trackpoint>
          <Trackpoint>
            <Time>2022-07-17T15:48:18.000Z</Time>
            <Position>
              <LatitudeDegrees>43.49171231500804424285888671875</LatitudeDegrees>
              <LongitudeDegrees>-5.4488802887499332427978515625</LongitudeDegrees>
            </Position>
            <AltitudeMeters>70.1999969482421875</AltitudeMeters>
            <DistanceMeters>NAN</DistanceMeters>
          </Trackpoint>
          <Trackpoint>
            <Time>2022-07-17T15:48:23.000Z</Time>
            <Position>
              <LatitudeDegrees>43.491782136261463165283203125</LatitudeDegrees>
              <LongitudeDegrees>-5.448942147195339202880859375</LongitudeDegrees>
            </Position>
            <AltitudeMeters>70.59999847412109375</AltitudeMeters>
            <DistanceMeters>NAN</DistanceMeters>
          </Trackpoint>
          <Trackpoint>
            <Time>2022-07-17T15:48:31.000Z</Time>
            <Position>
              <LatitudeDegrees>43.49188179709017276763916015625</LatitudeDegrees>
              <LongitudeDegrees>-5.44901347719132900238037109375</LongitudeDegrees>
            </Position>
            <AltitudeMeters>71</AltitudeMeters>
            <DistanceMeters>NAN</DistanceMeters>
          </Trackpoint>
          <Trackpoint>
            <Time>2022-07-17T15:48:33.000Z</Time>
            <Position>
              <LatitudeDegrees>43.49190694279968738555908203125</LatitudeDegrees>
              <LongitudeDegrees>-5.4490301571786403656005859375</LongitudeDegrees>
            </Position>
            <AltitudeMeters>71.1999969482421875</AltitudeMeters>
            <DistanceMeters>NAN</DistanceMeters>
          </Trackpoint>
          <Trackpoint>
            <Time>2022-07-17T15:48:43.000Z</Time>
            <Position>
              <LatitudeDegrees>43.49206552840769290924072265625</LatitudeDegrees>
              <LongitudeDegrees>-5.449111461639404296875</LongitudeDegrees>
            </Position>
            <AltitudeMeters>71.59999847412109375</AltitudeMeters>
            <DistanceMeters>NAN</DistanceMeters>
          </Trackpoint>
          <Trackpoint>
            <Time>2022-07-17T15:48:51.000Z</Time>
            <Position>
              <LatitudeDegrees>43.49217281676828861236572265625</LatitudeDegrees>
              <LongitudeDegrees>-5.44917675666511058807373046875</LongitudeDegrees>
            </Position>
            <AltitudeMeters>72.1999969482421875</AltitudeMeters>
            <DistanceMeters>NAN</DistanceMeters>
          </Trackpoint>
          <Trackpoint>
            <Time>2022-07-17T15:49:01.000Z</Time>
            <Position>
              <LatitudeDegrees>43.49232000298798084259033203125</LatitudeDegrees>
              <LongitudeDegrees>-5.449303574860095977783203125</LongitudeDegrees>
            </Position>
            <AltitudeMeters>72.8000030517578125</AltitudeMeters>
            <DistanceMeters>NAN</DistanceMeters>
          </Trackpoint>
          <Trackpoint>
            <Time>2022-07-17T15:49:11.000Z</Time>
            <Position>
              <LatitudeDegrees>43.4924201667308807373046875</LatitudeDegrees>
              <LongitudeDegrees>-5.4494655132293701171875</LongitudeDegrees>
            </Position>
            <AltitudeMeters>73.1999969482421875</AltitudeMeters>
            <DistanceMeters>NAN</DistanceMeters>
          </Trackpoint>
          <Trackpoint>
            <Time>2022-07-17T15:49:18.000Z</Time>
            <Position>
              <LatitudeDegrees>43.4924468211829662322998046875</LatitudeDegrees>
              <LongitudeDegrees>-5.4496349953114986419677734375</LongitudeDegrees>
            </Position>
            <AltitudeMeters>73.8000030517578125</AltitudeMeters>
            <DistanceMeters>NAN</DistanceMeters>
          </Trackpoint>
          <Trackpoint>
            <Time>2022-07-17T15:49:19.000Z</Time>
            <Position>
              <LatitudeDegrees>43.4924491681158542633056640625</LatitudeDegrees>
              <LongitudeDegrees>-5.44965527951717376708984375</LongitudeDegrees>
            </Position>
            <AltitudeMeters>73.8000030517578125</AltitudeMeters>
            <DistanceMeters>NAN</DistanceMeters>
          </Trackpoint>
          <Trackpoint>
            <Time>2022-07-17T15:49:27.000Z</Time>
            <Position>
              <LatitudeDegrees>43.49245780147612094879150390625</LatitudeDegrees>
              <LongitudeDegrees>-5.44983322732150554656982421875</LongitudeDegrees>
            </Position>
            <AltitudeMeters>74.1999969482421875</AltitudeMeters>
            <DistanceMeters>NAN</DistanceMeters>
          </Trackpoint>
          <Trackpoint>
            <Time>2022-07-17T15:49:34.000Z</Time>
            <Position>
              <LatitudeDegrees>43.49247272126376628875732421875</LatitudeDegrees>
              <LongitudeDegrees>-5.44997488148510456085205078125</LongitudeDegrees>
            </Position>
            <AltitudeMeters>74.59999847412109375</AltitudeMeters>
            <DistanceMeters>NAN</DistanceMeters>
          </Trackpoint>
          <Trackpoint>
            <Time>2022-07-17T15:49:35.000Z</Time>
            <Position>
              <LatitudeDegrees>43.49247138015925884246826171875</LatitudeDegrees>
              <LongitudeDegrees>-5.4499913938343524932861328125</LongitudeDegrees>
            </Position>
            <AltitudeMeters>74.8000030517578125</AltitudeMeters>
            <DistanceMeters>NAN</DistanceMeters>
          </Trackpoint>
          <Trackpoint>
            <Time>2022-07-17T15:49:43.000Z</Time>
            <Position>
              <LatitudeDegrees>43.49248847924172878265380859375</LatitudeDegrees>
              <LongitudeDegrees>-5.4501642286777496337890625</LongitudeDegrees>
            </Position>
            <AltitudeMeters>75.40000152587890625</AltitudeMeters>
            <DistanceMeters>NAN</DistanceMeters>
          </Trackpoint>
          <Trackpoint>
            <Time>2022-07-17T15:49:50.000Z</Time>
            <Position>
              <LatitudeDegrees>43.49249283783137798309326171875</LatitudeDegrees>
              <LongitudeDegrees>-5.45032205991446971893310546875</LongitudeDegrees>
            </Position>
            <AltitudeMeters>75.8000030517578125</AltitudeMeters>
            <DistanceMeters>NAN</DistanceMeters>
          </Trackpoint>
          <Trackpoint>
            <Time>2022-07-17T15:49:51.000Z</Time>
            <Position>
              <LatitudeDegrees>43.49249468185007572174072265625</LatitudeDegrees>
              <LongitudeDegrees>-5.4503430984914302825927734375</LongitudeDegrees>
            </Position>
            <AltitudeMeters>75.8000030517578125</AltitudeMeters>
            <DistanceMeters>NAN</DistanceMeters>
          </Trackpoint>
          <Trackpoint>
            <Time>2022-07-17T15:50:00.000Z</Time>
            <Position>
              <LatitudeDegrees>43.49249300546944141387939453125</LatitudeDegrees>
              <LongitudeDegrees>-5.4505318589508533477783203125</LongitudeDegrees>
            </Position>
            <AltitudeMeters>76.59999847412109375</AltitudeMeters>
            <DistanceMeters>NAN</DistanceMeters>
          </Trackpoint>
          <Trackpoint>
            <Time>2022-07-17T15:50:06.000Z</Time>
            <Position>
              <LatitudeDegrees>43.49248386919498443603515625</LatitudeDegrees>
              <LongitudeDegrees>-5.450650714337825775146484375</LongitudeDegrees>
            </Position>
            <AltitudeMeters>76.8000030517578125</AltitudeMeters>
            <DistanceMeters>NAN</DistanceMeters>
          </Trackpoint>
          <Trackpoint>
            <Time>2022-07-17T15:50:10.000Z</Time>
            <Position>
              <LatitudeDegrees>43.4924759902060031890869140625</LatitudeDegrees>
              <LongitudeDegrees>-5.45073243789374828338623046875</LongitudeDegrees>
            </Position>
            <AltitudeMeters>77</AltitudeMeters>
            <DistanceMeters>NAN</DistanceMeters>
          </Trackpoint>
          <Trackpoint>
            <Time>2022-07-17T15:50:16.000Z</Time>
            <Position>
              <LatitudeDegrees>43.49244355224072933197021484375</LatitudeDegrees>
              <LongitudeDegrees>-5.45085431076586246490478515625</LongitudeDegrees>
            </Position>
            <AltitudeMeters>77.40000152587890625</AltitudeMeters>
            <DistanceMeters>NAN</DistanceMeters>
          </Trackpoint>
          <Trackpoint>
            <Time>2022-07-17T15:50:18.000Z</Time>
            <Position>
              <LatitudeDegrees>43.49243349395692348480224609375</LatitudeDegrees>
              <LongitudeDegrees>-5.450899489223957061767578125</LongitudeDegrees>
            </Position>
            <AltitudeMeters>77.40000152587890625</AltitudeMeters>
            <DistanceMeters>NAN</DistanceMeters>
          </Trackpoint>
          <Trackpoint>
            <Time>2022-07-17T15:50:23.000Z</Time>
            <Position>
              <LatitudeDegrees>43.49241689778864383697509765625</LatitudeDegrees>
              <LongitudeDegrees>-5.4509938694536685943603515625</LongitudeDegrees>
            </Position>
            <AltitudeMeters>77.8000030517578125</AltitudeMeters>
            <DistanceMeters>NAN</DistanceMeters>
          </Trackpoint>
          <Trackpoint>
            <Time>2022-07-17T15:50:27.000Z</Time>
            <Position>
              <LatitudeDegrees>43.49239267408847808837890625</LatitudeDegrees>
              <LongitudeDegrees>-5.45108833350241184234619140625</LongitudeDegrees>
            </Position>
            <AltitudeMeters>78.40000152587890625</AltitudeMeters>
            <DistanceMeters>NAN</DistanceMeters>
          </Trackpoint>
          <Trackpoint>
            <Time>2022-07-17T15:50:33.000Z</Time>
            <Position>
              <LatitudeDegrees>43.492362499237060546875</LatitudeDegrees>
              <LongitudeDegrees>-5.4511916823685169219970703125</LongitudeDegrees>
            </Position>
            <AltitudeMeters>78.8000030517578125</AltitudeMeters>
            <DistanceMeters>NAN</DistanceMeters>
          </Trackpoint>
          <Trackpoint>
            <Time>2022-07-17T15:50:36.000Z</Time>
            <Position>
              <LatitudeDegrees>43.49234347231686115264892578125</LatitudeDegrees>
              <LongitudeDegrees>-5.45124943368136882781982421875</LongitudeDegrees>
            </Position>
            <AltitudeMeters>79</AltitudeMeters>
            <DistanceMeters>NAN</DistanceMeters>
          </Trackpoint>
          <Trackpoint>
            <Time>2022-07-17T15:50:43.000Z</Time>
            <Position>
              <LatitudeDegrees>43.49228563718497753143310546875</LatitudeDegrees>
              <LongitudeDegrees>-5.4513636790215969085693359375</LongitudeDegrees>
            </Position>
            <AltitudeMeters>79.8000030517578125</AltitudeMeters>
            <DistanceMeters>NAN</DistanceMeters>
          </Trackpoint>
          <Trackpoint>
            <Time>2022-07-17T15:50:46.000Z</Time>
            <Position>
              <LatitudeDegrees>43.492246158421039581298828125</LatitudeDegrees>
              <LongitudeDegrees>-5.4513911716639995574951171875</LongitudeDegrees>
            </Position>
            <AltitudeMeters>80</AltitudeMeters>
            <DistanceMeters>NAN</DistanceMeters>
          </Trackpoint>
          <Trackpoint>
            <Time>2022-07-17T15:50:51.000Z</Time>
            <Position>
              <LatitudeDegrees>43.492177426815032958984375</LatitudeDegrees>
              <LongitudeDegrees>-5.45143492519855499267578125</LongitudeDegrees>
            </Position>
            <AltitudeMeters>80.40000152587890625</AltitudeMeters>
            <DistanceMeters>NAN</DistanceMeters>
          </Trackpoint>
          <Trackpoint>
            <Time>2022-07-17T15:50:59.000Z</Time>
            <Position>
              <LatitudeDegrees>43.4920513629913330078125</LatitudeDegrees>
              <LongitudeDegrees>-5.45140567235648632049560546875</LongitudeDegrees>
            </Position>
            <AltitudeMeters>80.59999847412109375</AltitudeMeters>
            <DistanceMeters>NAN</DistanceMeters>
          </Trackpoint>
          <Trackpoint>
            <Time>2022-07-17T15:51:01.000Z</Time>
            <Position>
              <LatitudeDegrees>43.492016829550266265869140625</LatitudeDegrees>
              <LongitudeDegrees>-5.45139527879655361175537109375</LongitudeDegrees>
            </Position>
            <AltitudeMeters>81</AltitudeMeters>
            <DistanceMeters>NAN</DistanceMeters>
          </Trackpoint>
          <Trackpoint>
            <Time>2022-07-17T15:51:06.000Z</Time>
            <Position>
              <LatitudeDegrees>43.4919427335262298583984375</LatitudeDegrees>
              <LongitudeDegrees>-5.45135890133678913116455078125</LongitudeDegrees>
            </Position>
            <AltitudeMeters>81.40000152587890625</AltitudeMeters>
            <DistanceMeters>NAN</DistanceMeters>
          </Trackpoint>
          <Trackpoint>
            <Time>2022-07-17T15:51:10.000Z</Time>
            <Position>
              <LatitudeDegrees>43.4918828867375850677490234375</LatitudeDegrees>
              <LongitudeDegrees>-5.45133040286600589752197265625</LongitudeDegrees>
            </Position>
            <AltitudeMeters>81.8000030517578125</AltitudeMeters>
            <DistanceMeters>NAN</DistanceMeters>
          </Trackpoint>
          <Trackpoint>
            <Time>2022-07-17T15:51:12.000Z</Time>
            <Position>
              <LatitudeDegrees>43.49185380153357982635498046875</LatitudeDegrees>
              <LongitudeDegrees>-5.45133945532143115997314453125</LongitudeDegrees>
            </Position>
            <AltitudeMeters>81.8000030517578125</AltitudeMeters>
            <DistanceMeters>NAN</DistanceMeters>
          </Trackpoint>
          <Trackpoint>
            <Time>2022-07-17T15:51:15.000Z</Time>
            <Position>
              <LatitudeDegrees>43.4918165020644664764404296875</LatitudeDegrees>
              <LongitudeDegrees>-5.4513660259544849395751953125</LongitudeDegrees>
            </Position>
            <AltitudeMeters>82.1999969482421875</AltitudeMeters>
            <DistanceMeters>NAN</DistanceMeters>
          </Trackpoint>
          <Trackpoint>
            <Time>2022-07-17T15:51:19.000Z</Time>
            <Position>
              <LatitudeDegrees>43.49175405688583850860595703125</LatitudeDegrees>
              <LongitudeDegrees>-5.45138664543628692626953125</LongitudeDegrees>
            </Position>
            <AltitudeMeters>82.8000030517578125</AltitudeMeters>
            <DistanceMeters>NAN</DistanceMeters>
          </Trackpoint>
          <Trackpoint>
            <Time>2022-07-17T15:51:23.000Z</Time>
            <Position>
              <LatitudeDegrees>43.49170066416263580322265625</LatitudeDegrees>
              <LongitudeDegrees>-5.4514327459037303924560546875</LongitudeDegrees>
            </Position>
            <AltitudeMeters>83.1999969482421875</AltitudeMeters>
            <DistanceMeters>NAN</DistanceMeters>
          </Trackpoint>
          <Trackpoint>
            <Time>2022-07-17T15:51:26.000Z</Time>
            <Position>
              <LatitudeDegrees>43.4916691482067108154296875</LatitudeDegrees>
              <LongitudeDegrees>-5.45148027129471302032470703125</LongitudeDegrees>
            </Position>
            <AltitudeMeters>83.40000152587890625</AltitudeMeters>
            <DistanceMeters>NAN</DistanceMeters>
          </Trackpoint>
          <Trackpoint>
            <Time>2022-07-17T15:51:30.000Z</Time>
            <Position>
              <LatitudeDegrees>43.49163201637566089630126953125</LatitudeDegrees>
              <LongitudeDegrees>-5.451533496379852294921875</LongitudeDegrees>
            </Position>
            <AltitudeMeters>84.1999969482421875</AltitudeMeters>
            <DistanceMeters>NAN</DistanceMeters>
          </Trackpoint>
          <Trackpoint>
            <Time>2022-07-17T15:51:34.000Z</Time>
            <Position>
              <LatitudeDegrees>43.4916086308658123016357421875</LatitudeDegrees>
              <LongitudeDegrees>-5.45160264708101749420166015625</LongitudeDegrees>
            </Position>
            <AltitudeMeters>84.40000152587890625</AltitudeMeters>
            <DistanceMeters>NAN</DistanceMeters>
          </Trackpoint>
          <Trackpoint>
            <Time>2022-07-17T15:51:40.000Z</Time>
            <Position>
              <LatitudeDegrees>43.49156177602708339691162109375</LatitudeDegrees>
              <LongitudeDegrees>-5.45172200538218021392822265625</LongitudeDegrees>
            </Position>
            <AltitudeMeters>85.1999969482421875</AltitudeMeters>
            <DistanceMeters>NAN</DistanceMeters>
          </Trackpoint>
          <Trackpoint>
            <Time>2022-07-17T15:51:41.000Z</Time>
            <Position>
              <LatitudeDegrees>43.4915553219616413116455078125</LatitudeDegrees>
              <LongitudeDegrees>-5.451742373406887054443359375</LongitudeDegrees>
            </Position>
            <AltitudeMeters>85.1999969482421875</AltitudeMeters>
            <DistanceMeters>NAN</DistanceMeters>
          </Trackpoint>
          <Trackpoint>
            <Time>2022-07-17T15:51:47.000Z</Time>
            <Position>
              <LatitudeDegrees>43.49152908660471439361572265625</LatitudeDegrees>
              <LongitudeDegrees>-5.4518649168312549591064453125</LongitudeDegrees>
            </Position>
            <AltitudeMeters>85.8000030517578125</AltitudeMeters>
            <DistanceMeters>NAN</DistanceMeters>
          </Trackpoint>
          <Trackpoint>
            <Time>2022-07-17T15:51:49.000Z</Time>
            <Position>
              <LatitudeDegrees>43.49152590148150920867919921875</LatitudeDegrees>
              <LongitudeDegrees>-5.45191076584160327911376953125</LongitudeDegrees>
            </Position>
            <AltitudeMeters>86.1999969482421875</AltitudeMeters>
            <DistanceMeters>NAN</DistanceMeters>
          </Trackpoint>
          <Trackpoint>
            <Time>2022-07-17T15:51:50.000Z</Time>
            <Position>
              <LatitudeDegrees>43.49152271635830402374267578125</LatitudeDegrees>
              <LongitudeDegrees>-5.45193641446530818939208984375</LongitudeDegrees>
            </Position>
            <AltitudeMeters>86.1999969482421875</AltitudeMeters>
            <DistanceMeters>NAN</DistanceMeters>
          </Trackpoint>
          <Trackpoint>
            <Time>2022-07-17T15:51:58.000Z</Time>
            <Position>
              <LatitudeDegrees>43.49151835776865482330322265625</LatitudeDegrees>
              <LongitudeDegrees>-5.45209164731204509735107421875</LongitudeDegrees>
            </Position>
            <AltitudeMeters>87</AltitudeMeters>
            <DistanceMeters>NAN</DistanceMeters>
          </Trackpoint>
          <Trackpoint>
            <Time>2022-07-17T15:52:00.000Z</Time>
            <Position>
              <LatitudeDegrees>43.491519279778003692626953125</LatitudeDegrees>
              <LongitudeDegrees>-5.45213162899017333984375</LongitudeDegrees>
            </Position>
            <AltitudeMeters>87.40000152587890625</AltitudeMeters>
            <DistanceMeters>NAN</DistanceMeters>
          </Trackpoint>
          <Trackpoint>
            <Time>2022-07-17T15:52:08.000Z</Time>
            <Position>
              <LatitudeDegrees>43.49152841605246067047119140625</LatitudeDegrees>
              <LongitudeDegrees>-5.45227755792438983917236328125</LongitudeDegrees>
            </Position>
            <AltitudeMeters>88</AltitudeMeters>
            <DistanceMeters>NAN</DistanceMeters>
          </Trackpoint>
          <Trackpoint>
            <Time>2022-07-17T15:52:09.000Z</Time>
            <Position>
              <LatitudeDegrees>43.4915281645953655242919921875</LatitudeDegrees>
              <LongitudeDegrees>-5.45229616574943065643310546875</LongitudeDegrees>
            </Position>
            <AltitudeMeters>88.1999969482421875</AltitudeMeters>
            <DistanceMeters>NAN</DistanceMeters>
          </Trackpoint>
          <Trackpoint>
            <Time>2022-07-17T15:52:12.000Z</Time>
            <Position>
              <LatitudeDegrees>43.491529338061809539794921875</LatitudeDegrees>
              <LongitudeDegrees>-5.4523571021854877471923828125</LongitudeDegrees>
            </Position>
            <AltitudeMeters>88.40000152587890625</AltitudeMeters>
            <DistanceMeters>NAN</DistanceMeters>
          </Trackpoint>
          <Trackpoint>
            <Time>2022-07-17T15:52:17.000Z</Time>
            <Position>
              <LatitudeDegrees>43.49153076298534870147705078125</LatitudeDegrees>
              <LongitudeDegrees>-5.45247084461152553558349609375</LongitudeDegrees>
            </Position>
            <AltitudeMeters>88.59999847412109375</AltitudeMeters>
            <DistanceMeters>NAN</DistanceMeters>
          </Trackpoint>
          <Trackpoint>
            <Time>2022-07-17T15:52:24.000Z</Time>
            <Position>
              <LatitudeDegrees>43.49154434166848659515380859375</LatitudeDegrees>
              <LongitudeDegrees>-5.45261551626026630401611328125</LongitudeDegrees>
            </Position>
            <AltitudeMeters>89.1999969482421875</AltitudeMeters>
            <DistanceMeters>NAN</DistanceMeters>
          </Trackpoint>
          <Trackpoint>
            <Time>2022-07-17T15:52:30.000Z</Time>
            <Position>
              <LatitudeDegrees>43.49153847433626651763916015625</LatitudeDegrees>
              <LongitudeDegrees>-5.45274250209331512451171875</LongitudeDegrees>
            </Position>
            <AltitudeMeters>89.40000152587890625</AltitudeMeters>
            <DistanceMeters>NAN</DistanceMeters>
          </Trackpoint>
          <Trackpoint>
            <Time>2022-07-17T15:52:34.000Z</Time>
            <Position>
              <LatitudeDegrees>43.49152439273893833160400390625</LatitudeDegrees>
              <LongitudeDegrees>-5.4528222978115081787109375</LongitudeDegrees>
            </Position>
            <AltitudeMeters>89.8000030517578125</AltitudeMeters>
            <DistanceMeters>NAN</DistanceMeters>
          </Trackpoint>
          <Trackpoint>
            <Time>2022-07-17T15:52:45.000Z</Time>
            <Position>
              <LatitudeDegrees>43.49146731197834014892578125</LatitudeDegrees>
              <LongitudeDegrees>-5.4530249722301959991455078125</LongitudeDegrees>
            </Position>
            <AltitudeMeters>90.40000152587890625</AltitudeMeters>
            <DistanceMeters>NAN</DistanceMeters>
          </Trackpoint>
          <Trackpoint>
            <Time>2022-07-17T15:52:46.000Z</Time>
            <Position>
              <LatitudeDegrees>43.49145985208451747894287109375</LatitudeDegrees>
              <LongitudeDegrees>-5.45304433442652225494384765625</LongitudeDegrees>
            </Position>
            <AltitudeMeters>90.40000152587890625</AltitudeMeters>
            <DistanceMeters>NAN</DistanceMeters>
          </Trackpoint>
          <Trackpoint>
            <Time>2022-07-17T15:52:54.000Z</Time>
            <Position>
              <LatitudeDegrees>43.49140704609453678131103515625</LatitudeDegrees>
              <LongitudeDegrees>-5.45318179763853549957275390625</LongitudeDegrees>
            </Position>
            <AltitudeMeters>91</AltitudeMeters>
            <DistanceMeters>NAN</DistanceMeters>
          </Trackpoint>
          <Trackpoint>
            <Time>2022-07-17T15:53:02.000Z</Time>
            <Position>
              <LatitudeDegrees>43.4913484565913677215576171875</LatitudeDegrees>
              <LongitudeDegrees>-5.453314483165740966796875</LongitudeDegrees>
            </Position>
            <AltitudeMeters>91.40000152587890625</AltitudeMeters>
            <DistanceMeters>NAN</DistanceMeters>
          </Trackpoint>
          <Trackpoint>
            <Time>2022-07-17T15:53:03.000Z</Time>
            <Position>
              <LatitudeDegrees>43.49134032614529132843017578125</LatitudeDegrees>
              <LongitudeDegrees>-5.4533337615430355072021484375</LongitudeDegrees>
            </Position>
            <AltitudeMeters>91.40000152587890625</AltitudeMeters>
            <DistanceMeters>NAN</DistanceMeters>
          </Trackpoint>
          <Trackpoint>
            <Time>2022-07-17T15:53:10.000Z</Time>
            <Position>
              <LatitudeDegrees>43.49127008579671382904052734375</LatitudeDegrees>
              <LongitudeDegrees>-5.4534351825714111328125</LongitudeDegrees>
            </Position>
            <AltitudeMeters>91.40000152587890625</AltitudeMeters>
            <DistanceMeters>NAN</DistanceMeters>
          </Trackpoint>
          <Trackpoint>
            <Time>2022-07-17T15:53:18.000Z</Time>
            <Position>
              <LatitudeDegrees>43.4911541640758514404296875</LatitudeDegrees>
              <LongitudeDegrees>-5.45352428220212459564208984375</LongitudeDegrees>
            </Position>
            <AltitudeMeters>92.1999969482421875</AltitudeMeters>
            <DistanceMeters>NAN</DistanceMeters>
          </Trackpoint>
          <Trackpoint>
            <Time>2022-07-17T15:53:19.000Z</Time>
            <Position>
              <LatitudeDegrees>43.4911385737359523773193359375</LatitudeDegrees>
              <LongitudeDegrees>-5.45353115536272525787353515625</LongitudeDegrees>
            </Position>
            <AltitudeMeters>92.40000152587890625</AltitudeMeters>
            <DistanceMeters>NAN</DistanceMeters>
          </Trackpoint>
          <Trackpoint>
            <Time>2022-07-17T15:53:21.000Z</Time>
            <Position>
              <LatitudeDegrees>43.49111217074096202850341796875</LatitudeDegrees>
              <LongitudeDegrees>-5.4535424709320068359375</LongitudeDegrees>
            </Position>
            <AltitudeMeters>92.59999847412109375</AltitudeMeters>
            <DistanceMeters>NAN</DistanceMeters>
          </Trackpoint>
          <Trackpoint>
            <Time>2022-07-17T15:53:28.000Z</Time>
            <Position>
              <LatitudeDegrees>43.491032458841800689697265625</LatitudeDegrees>
              <LongitudeDegrees>-5.453575663268566131591796875</LongitudeDegrees>
            </Position>
            <AltitudeMeters>93</AltitudeMeters>
            <DistanceMeters>NAN</DistanceMeters>
          </Trackpoint>
          <Trackpoint>
            <Time>2022-07-17T15:53:35.000Z</Time>
            <Position>
              <LatitudeDegrees>43.49092173390090465545654296875</LatitudeDegrees>
              <LongitudeDegrees>-5.45361128635704517364501953125</LongitudeDegrees>
            </Position>
            <AltitudeMeters>93.59999847412109375</AltitudeMeters>
            <DistanceMeters>NAN</DistanceMeters>
          </Trackpoint>
          <Trackpoint>
            <Time>2022-07-17T15:53:36.000Z</Time>
            <Position>
              <LatitudeDegrees>43.4909082390367984771728515625</LatitudeDegrees>
              <LongitudeDegrees>-5.453621260821819305419921875</LongitudeDegrees>
            </Position>
            <AltitudeMeters>93.59999847412109375</AltitudeMeters>
            <DistanceMeters>NAN</DistanceMeters>
          </Trackpoint>
          <Trackpoint>
            <Time>2022-07-17T15:53:45.000Z</Time>
            <Position>
              <LatitudeDegrees>43.49076884798705577850341796875</LatitudeDegrees>
              <LongitudeDegrees>-5.45364028774201869964599609375</LongitudeDegrees>
            </Position>
            <AltitudeMeters>94</AltitudeMeters>
            <DistanceMeters>NAN</DistanceMeters>
          </Trackpoint>
          <Trackpoint>
            <Time>2022-07-17T15:53:49.000Z</Time>
            <Position>
              <LatitudeDegrees>43.4907067380845546722412109375</LatitudeDegrees>
              <LongitudeDegrees>-5.453637354075908660888671875</LongitudeDegrees>
            </Position>
            <AltitudeMeters>94.59999847412109375</AltitudeMeters>
            <DistanceMeters>NAN</DistanceMeters>
          </Trackpoint>
          <Trackpoint>
            <Time>2022-07-17T15:53:54.000Z</Time>
            <Position>
              <LatitudeDegrees>43.49062803201377391815185546875</LatitudeDegrees>
              <LongitudeDegrees>-5.453625284135341644287109375</LongitudeDegrees>
            </Position>
            <AltitudeMeters>95</AltitudeMeters>
            <DistanceMeters>NAN</DistanceMeters>
          </Trackpoint>
          <Trackpoint>
            <Time>2022-07-17T15:53:55.000Z</Time>
            <Position>
              <LatitudeDegrees>43.49061143584549427032470703125</LatitudeDegrees>
              <LongitudeDegrees>-5.45362218283116817474365234375</LongitudeDegrees>
            </Position>
            <AltitudeMeters>95</AltitudeMeters>
            <DistanceMeters>NAN</DistanceMeters>
          </Trackpoint>
          <Trackpoint>
            <Time>2022-07-17T15:53:57.000Z</Time>
            <Position>
              <LatitudeDegrees>43.490575142204761505126953125</LatitudeDegrees>
              <LongitudeDegrees>-5.45361614786088466644287109375</LongitudeDegrees>
            </Position>
            <AltitudeMeters>95.1999969482421875</AltitudeMeters>
            <DistanceMeters>NAN</DistanceMeters>
          </Trackpoint>
          <Trackpoint>
            <Time>2022-07-17T15:54:02.000Z</Time>
            <Position>
              <LatitudeDegrees>43.49049274809658527374267578125</LatitudeDegrees>
              <LongitudeDegrees>-5.45364372432231903076171875</LongitudeDegrees>
            </Position>
            <AltitudeMeters>95.59999847412109375</AltitudeMeters>
            <DistanceMeters>NAN</DistanceMeters>
          </Trackpoint>
          <Trackpoint>
            <Time>2022-07-17T15:54:03.000Z</Time>
            <Position>
              <LatitudeDegrees>43.49047682248055934906005859375</LatitudeDegrees>
              <LongitudeDegrees>-5.45364900492131710052490234375</LongitudeDegrees>
            </Position>
            <AltitudeMeters>95.8000030517578125</AltitudeMeters>
            <DistanceMeters>NAN</DistanceMeters>
          </Trackpoint>
          <Trackpoint>
            <Time>2022-07-17T15:54:10.000Z</Time>
            <Position>
              <LatitudeDegrees>43.4903748147189617156982421875</LatitudeDegrees>
              <LongitudeDegrees>-5.4537461511790752410888671875</LongitudeDegrees>
            </Position>
            <AltitudeMeters>96.59999847412109375</AltitudeMeters>
            <DistanceMeters>NAN</DistanceMeters>
          </Trackpoint>
          <Trackpoint>
            <Time>2022-07-17T15:54:12.000Z</Time>
            <Position>
              <LatitudeDegrees>43.49035444669425487518310546875</LatitudeDegrees>
              <LongitudeDegrees>-5.45378345064818859100341796875</LongitudeDegrees>
            </Position>
            <AltitudeMeters>96.8000030517578125</AltitudeMeters>
            <DistanceMeters>NAN</DistanceMeters>
          </Trackpoint>
          <Trackpoint>
            <Time>2022-07-17T15:54:19.000Z</Time>
            <Position>
              <LatitudeDegrees>43.490314967930316925048828125</LatitudeDegrees>
              <LongitudeDegrees>-5.4539194889366626739501953125</LongitudeDegrees>
            </Position>
            <AltitudeMeters>97</AltitudeMeters>
            <DistanceMeters>NAN</DistanceMeters>
          </Trackpoint>
          <Trackpoint>
            <Time>2022-07-17T15:54:22.000Z</Time>
            <Position>
              <LatitudeDegrees>43.4903141297399997711181640625</LatitudeDegrees>
              <LongitudeDegrees>-5.45397472567856311798095703125</LongitudeDegrees>
            </Position>
            <AltitudeMeters>97.1999969482421875</AltitudeMeters>
            <DistanceMeters>NAN</DistanceMeters>
          </Trackpoint>
          <Trackpoint>
            <Time>2022-07-17T15:54:28.000Z</Time>
            <Position>
              <LatitudeDegrees>43.49028252996504306793212890625</LatitudeDegrees>
              <LongitudeDegrees>-5.4540981911122798919677734375</LongitudeDegrees>
            </Position>
            <AltitudeMeters>97.59999847412109375</AltitudeMeters>
            <DistanceMeters>NAN</DistanceMeters>
          </Trackpoint>
          <Trackpoint>
            <Time>2022-07-17T15:54:33.000Z</Time>
            <Position>
              <LatitudeDegrees>43.49025897681713104248046875</LatitudeDegrees>
              <LongitudeDegrees>-5.4542054794728755950927734375</LongitudeDegrees>
            </Position>
            <AltitudeMeters>97.8000030517578125</AltitudeMeters>
            <DistanceMeters>NAN</DistanceMeters>
          </Trackpoint>
          <Trackpoint>
            <Time>2022-07-17T15:54:35.000Z</Time>
            <Position>
              <LatitudeDegrees>43.49023978225886821746826171875</LatitudeDegrees>
              <LongitudeDegrees>-5.4542420245707035064697265625</LongitudeDegrees>
            </Position>
            <AltitudeMeters>97.8000030517578125</AltitudeMeters>
            <DistanceMeters>NAN</DistanceMeters>
          </Trackpoint>
          <Trackpoint>
            <Time>2022-07-17T15:54:37.000Z</Time>
            <Position>
              <LatitudeDegrees>43.49022503010928630828857421875</LatitudeDegrees>
              <LongitudeDegrees>-5.4542892985045909881591796875</LongitudeDegrees>
            </Position>
            <AltitudeMeters>97.8000030517578125</AltitudeMeters>
            <DistanceMeters>NAN</DistanceMeters>
          </Trackpoint>
          <Trackpoint>
            <Time>2022-07-17T15:54:42.000Z</Time>
            <Position>
              <LatitudeDegrees>43.490212373435497283935546875</LatitudeDegrees>
              <LongitudeDegrees>-5.45440605841577053070068359375</LongitudeDegrees>
            </Position>
            <AltitudeMeters>98</AltitudeMeters>
            <DistanceMeters>NAN</DistanceMeters>
          </Trackpoint>
          <Trackpoint>
            <Time>2022-07-17T15:54:47.000Z</Time>
            <Position>
              <LatitudeDegrees>43.49018865264952182769775390625</LatitudeDegrees>
              <LongitudeDegrees>-5.45453614555299282073974609375</LongitudeDegrees>
            </Position>
            <AltitudeMeters>98.1999969482421875</AltitudeMeters>
            <DistanceMeters>NAN</DistanceMeters>
          </Trackpoint>
          <Trackpoint>
            <Time>2022-07-17T15:54:52.000Z</Time>
            <Position>
              <LatitudeDegrees>43.49016937427222728729248046875</LatitudeDegrees>
              <LongitudeDegrees>-5.45466455630958080291748046875</LongitudeDegrees>
            </Position>
            <AltitudeMeters>98.40000152587890625</AltitudeMeters>
            <DistanceMeters>NAN</DistanceMeters>
          </Trackpoint>
          <Trackpoint>
            <Time>2022-07-17T15:54:58.000Z</Time>
            <Position>
              <LatitudeDegrees>43.49015344865620136260986328125</LatitudeDegrees>
              <LongitudeDegrees>-5.454824902117252349853515625</LongitudeDegrees>
            </Position>
            <AltitudeMeters>98.8000030517578125</AltitudeMeters>
            <DistanceMeters>NAN</DistanceMeters>
          </Trackpoint>
          <Trackpoint>
            <Time>2022-07-17T15:55:02.000Z</Time>
            <Position>
              <LatitudeDegrees>43.49016065709292888641357421875</LatitudeDegrees>
              <LongitudeDegrees>-5.454929172992706298828125</LongitudeDegrees>
            </Position>
            <AltitudeMeters>99.1999969482421875</AltitudeMeters>
            <DistanceMeters>NAN</DistanceMeters>
          </Trackpoint>
          <Trackpoint>
            <Time>2022-07-17T15:55:09.000Z</Time>
            <Position>
              <LatitudeDegrees>43.49021782167255878448486328125</LatitudeDegrees>
              <LongitudeDegrees>-5.4550664685666561126708984375</LongitudeDegrees>
            </Position>
            <AltitudeMeters>99.40000152587890625</AltitudeMeters>
            <DistanceMeters>NAN</DistanceMeters>
          </Trackpoint>
          <Trackpoint>
            <Time>2022-07-17T15:55:17.000Z</Time>
            <Position>
              <LatitudeDegrees>43.4903546981513500213623046875</LatitudeDegrees>
              <LongitudeDegrees>-5.45520820654928684234619140625</LongitudeDegrees>
            </Position>
            <AltitudeMeters>99.8000030517578125</AltitudeMeters>
            <DistanceMeters>NAN</DistanceMeters>
          </Trackpoint>
          <Trackpoint>
            <Time>2022-07-17T15:55:22.000Z</Time>
            <Position>
              <LatitudeDegrees>43.49044740200042724609375</LatitudeDegrees>
              <LongitudeDegrees>-5.455288589000701904296875</LongitudeDegrees>
            </Position>
            <AltitudeMeters>99.8000030517578125</AltitudeMeters>
            <DistanceMeters>NAN</DistanceMeters>
          </Trackpoint>
          <Trackpoint>
            <Time>2022-07-17T15:55:26.000Z</Time>
            <Position>
              <LatitudeDegrees>43.4905129484832286834716796875</LatitudeDegrees>
              <LongitudeDegrees>-5.455348603427410125732421875</LongitudeDegrees>
            </Position>
            <AltitudeMeters>100</AltitudeMeters>
            <DistanceMeters>NAN</DistanceMeters>
          </Trackpoint>
          <Trackpoint>
            <Time>2022-07-17T15:55:32.000Z</Time>
            <Position>
              <LatitudeDegrees>43.49059416912496089935302734375</LatitudeDegrees>
              <LongitudeDegrees>-5.45546938665211200714111328125</LongitudeDegrees>
            </Position>
            <AltitudeMeters>100</AltitudeMeters>
            <DistanceMeters>NAN</DistanceMeters>
          </Trackpoint>
          <Trackpoint>
            <Time>2022-07-17T15:55:34.000Z</Time>
            <Position>
              <LatitudeDegrees>43.49062241613864898681640625</LatitudeDegrees>
              <LongitudeDegrees>-5.455512888729572296142578125</LongitudeDegrees>
            </Position>
            <AltitudeMeters>100</AltitudeMeters>
            <DistanceMeters>NAN</DistanceMeters>
          </Trackpoint>
          <Trackpoint>
            <Time>2022-07-17T15:55:41.000Z</Time>
            <Position>
              <LatitudeDegrees>43.4907328896224498748779296875</LatitudeDegrees>
              <LongitudeDegrees>-5.45565647073090076446533203125</LongitudeDegrees>
            </Position>
            <AltitudeMeters>100.1999969482421875</AltitudeMeters>
            <DistanceMeters>NAN</DistanceMeters>
          </Trackpoint>
          <Trackpoint>
            <Time>2022-07-17T15:55:42.000Z</Time>
            <Position>
              <LatitudeDegrees>43.49074152298271656036376953125</LatitudeDegrees>
              <LongitudeDegrees>-5.45568295754492282867431640625</LongitudeDegrees>
            </Position>
            <AltitudeMeters>100.40000152587890625</AltitudeMeters>
            <DistanceMeters>NAN</DistanceMeters>
          </Trackpoint>
          <Trackpoint>
            <Time>2022-07-17T15:55:43.000Z</Time>
            <Position>
              <LatitudeDegrees>43.4907486476004123687744140625</LatitudeDegrees>
              <LongitudeDegrees>-5.45571095310151576995849609375</LongitudeDegrees>
            </Position>
            <AltitudeMeters>100.59999847412109375</AltitudeMeters>
            <DistanceMeters>NAN</DistanceMeters>
          </Trackpoint>
          <Trackpoint>
            <Time>2022-07-17T15:55:48.000Z</Time>
            <Position>
              <LatitudeDegrees>43.490817882120609283447265625</LatitudeDegrees>
              <LongitudeDegrees>-5.45583668164908885955810546875</LongitudeDegrees>
            </Position>
            <AltitudeMeters>100.8000030517578125</AltitudeMeters>
            <DistanceMeters>NAN</DistanceMeters>
          </Trackpoint>
          <Trackpoint>
            <Time>2022-07-17T15:55:49.000Z</Time>
            <Position>
              <LatitudeDegrees>43.49083028733730316162109375</LatitudeDegrees>
              <LongitudeDegrees>-5.455859564244747161865234375</LongitudeDegrees>
            </Position>
            <AltitudeMeters>101</AltitudeMeters>
            <DistanceMeters>NAN</DistanceMeters>
          </Trackpoint>
          <Trackpoint>
            <Time>2022-07-17T15:55:52.000Z</Time>
            <Position>
              <LatitudeDegrees>43.49086557514965534210205078125</LatitudeDegrees>
              <LongitudeDegrees>-5.45593810267746448516845703125</LongitudeDegrees>
            </Position>
            <AltitudeMeters>101</AltitudeMeters>
            <DistanceMeters>NAN</DistanceMeters>
          </Trackpoint>
          <Trackpoint>
            <Time>2022-07-17T15:56:03.000Z</Time>
            <Position>
              <LatitudeDegrees>43.49104159511625766754150390625</LatitudeDegrees>
              <LongitudeDegrees>-5.45627589337527751922607421875</LongitudeDegrees>
            </Position>
            <AltitudeMeters>101.40000152587890625</AltitudeMeters>
            <DistanceMeters>NAN</DistanceMeters>
          </Trackpoint>
          <Trackpoint>
            <Time>2022-07-17T15:56:11.000Z</Time>
            <Position>
              <LatitudeDegrees>43.49118961952626705169677734375</LatitudeDegrees>
              <LongitudeDegrees>-5.45653405599296092987060546875</LongitudeDegrees>
            </Position>
            <AltitudeMeters>101.1999969482421875</AltitudeMeters>
            <DistanceMeters>NAN</DistanceMeters>
          </Trackpoint>
          <Trackpoint>
            <Time>2022-07-17T15:56:19.000Z</Time>
            <Position>
              <LatitudeDegrees>43.4913028590381145477294921875</LatitudeDegrees>
              <LongitudeDegrees>-5.456815101206302642822265625</LongitudeDegrees>
            </Position>
            <AltitudeMeters>101.40000152587890625</AltitudeMeters>
            <DistanceMeters>NAN</DistanceMeters>
          </Trackpoint>
          <Trackpoint>
            <Time>2022-07-17T15:56:25.000Z</Time>
            <Position>
              <LatitudeDegrees>43.491329848766326904296875</LatitudeDegrees>
              <LongitudeDegrees>-5.4571066237986087799072265625</LongitudeDegrees>
            </Position>
            <AltitudeMeters>101.40000152587890625</AltitudeMeters>
            <DistanceMeters>NAN</DistanceMeters>
          </Trackpoint>
          <Trackpoint>
            <Time>2022-07-17T15:56:27.000Z</Time>
            <Position>
              <LatitudeDegrees>43.491329848766326904296875</LatitudeDegrees>
              <LongitudeDegrees>-5.45720712281763553619384765625</LongitudeDegrees>
            </Position>
            <AltitudeMeters>101.40000152587890625</AltitudeMeters>
            <DistanceMeters>NAN</DistanceMeters>
          </Trackpoint>
          <Trackpoint>
            <Time>2022-07-17T15:56:30.000Z</Time>
            <Position>
              <LatitudeDegrees>43.4913243167102336883544921875</LatitudeDegrees>
              <LongitudeDegrees>-5.45737325213849544525146484375</LongitudeDegrees>
            </Position>
            <AltitudeMeters>101.1999969482421875</AltitudeMeters>
            <DistanceMeters>NAN</DistanceMeters>
          </Trackpoint>
          <Trackpoint>
            <Time>2022-07-17T15:56:34.000Z</Time>
            <Position>
              <LatitudeDegrees>43.49129774607717990875244140625</LatitudeDegrees>
              <LongitudeDegrees>-5.45761205255985260009765625</LongitudeDegrees>
            </Position>
            <AltitudeMeters>101.1999969482421875</AltitudeMeters>
            <DistanceMeters>NAN</DistanceMeters>
          </Trackpoint>
          <Trackpoint>
            <Time>2022-07-17T15:56:35.000Z</Time>
            <Position>
              <LatitudeDegrees>43.49128492176532745361328125</LatitudeDegrees>
              <LongitudeDegrees>-5.45766427181661128997802734375</LongitudeDegrees>
            </Position>
            <AltitudeMeters>101.1999969482421875</AltitudeMeters>
            <DistanceMeters>NAN</DistanceMeters>
          </Trackpoint>
          <Trackpoint>
            <Time>2022-07-17T15:56:38.000Z</Time>
            <Position>
              <LatitudeDegrees>43.4912374801933765411376953125</LatitudeDegrees>
              <LongitudeDegrees>-5.4578130505979061126708984375</LongitudeDegrees>
            </Position>
            <AltitudeMeters>101.1999969482421875</AltitudeMeters>
            <DistanceMeters>NAN</DistanceMeters>
          </Trackpoint>
          <Trackpoint>
            <Time>2022-07-17T15:56:42.000Z</Time>
            <Position>
              <LatitudeDegrees>43.49115089513361454010009765625</LatitudeDegrees>
              <LongitudeDegrees>-5.457961075007915496826171875</LongitudeDegrees>
            </Position>
            <AltitudeMeters>101.40000152587890625</AltitudeMeters>
            <DistanceMeters>NAN</DistanceMeters>
          </Trackpoint>
          <Trackpoint>
            <Time>2022-07-17T15:56:47.000Z</Time>
            <Position>
              <LatitudeDegrees>43.49099867977201938629150390625</LatitudeDegrees>
              <LongitudeDegrees>-5.4580467380583286285400390625</LongitudeDegrees>
            </Position>
            <AltitudeMeters>101.40000152587890625</AltitudeMeters>
            <DistanceMeters>NAN</DistanceMeters>
          </Trackpoint>
          <Trackpoint>
            <Time>2022-07-17T15:56:54.000Z</Time>
            <Position>
              <LatitudeDegrees>43.4907717816531658172607421875</LatitudeDegrees>
              <LongitudeDegrees>-5.45807347632944583892822265625</LongitudeDegrees>
            </Position>
            <AltitudeMeters>101.8000030517578125</AltitudeMeters>
            <DistanceMeters>NAN</DistanceMeters>
          </Trackpoint>
          <Trackpoint>
            <Time>2022-07-17T15:56:57.000Z</Time>
            <Position>
              <LatitudeDegrees>43.4906815923750400543212890625</LatitudeDegrees>
              <LongitudeDegrees>-5.45806962065398693084716796875</LongitudeDegrees>
            </Position>
            <AltitudeMeters>102</AltitudeMeters>
            <DistanceMeters>NAN</DistanceMeters>
          </Trackpoint>
          <Trackpoint>
            <Time>2022-07-17T15:57:05.000Z</Time>
            <Position>
              <LatitudeDegrees>43.49045804701745510101318359375</LatitudeDegrees>
              <LongitudeDegrees>-5.4580366797745227813720703125</LongitudeDegrees>
            </Position>
            <AltitudeMeters>102.40000152587890625</AltitudeMeters>
            <DistanceMeters>NAN</DistanceMeters>
          </Trackpoint>
          <Trackpoint>
            <Time>2022-07-17T15:57:11.000Z</Time>
            <Position>
              <LatitudeDegrees>43.49030591547489166259765625</LatitudeDegrees>
              <LongitudeDegrees>-5.4580138809978961944580078125</LongitudeDegrees>
            </Position>
            <AltitudeMeters>103</AltitudeMeters>
            <DistanceMeters>NAN</DistanceMeters>
          </Trackpoint>
          <Trackpoint>
            <Time>2022-07-17T15:57:14.000Z</Time>
            <Position>
              <LatitudeDegrees>43.4902368485927581787109375</LatitudeDegrees>
              <LongitudeDegrees>-5.45800239779055118560791015625</LongitudeDegrees>
            </Position>
            <AltitudeMeters>103.1999969482421875</AltitudeMeters>
            <DistanceMeters>NAN</DistanceMeters>
          </Trackpoint>
          <Trackpoint>
            <Time>2022-07-17T15:57:19.000Z</Time>
            <Position>
              <LatitudeDegrees>43.49012495018541812896728515625</LatitudeDegrees>
              <LongitudeDegrees>-5.45799183659255504608154296875</LongitudeDegrees>
            </Position>
            <AltitudeMeters>103.8000030517578125</AltitudeMeters>
            <DistanceMeters>NAN</DistanceMeters>
          </Trackpoint>
          <Trackpoint>
            <Time>2022-07-17T15:57:21.000Z</Time>
            <Position>
              <LatitudeDegrees>43.49007901735603809356689453125</LatitudeDegrees>
              <LongitudeDegrees>-5.4579840414226055145263671875</LongitudeDegrees>
            </Position>
            <AltitudeMeters>104.1999969482421875</AltitudeMeters>
            <DistanceMeters>NAN</DistanceMeters>
          </Trackpoint>
          <Trackpoint>
            <Time>2022-07-17T15:57:25.000Z</Time>
            <Position>
              <LatitudeDegrees>43.48998748697340488433837890625</LatitudeDegrees>
              <LongitudeDegrees>-5.45797926373779773712158203125</LongitudeDegrees>
            </Position>
            <AltitudeMeters>104.59999847412109375</AltitudeMeters>
            <DistanceMeters>NAN</DistanceMeters>
          </Trackpoint>
          <Trackpoint>
            <Time>2022-07-17T15:57:30.000Z</Time>
            <Position>
              <LatitudeDegrees>43.4898940287530422210693359375</LatitudeDegrees>
              <LongitudeDegrees>-5.45797021128237247467041015625</LongitudeDegrees>
            </Position>
            <AltitudeMeters>105</AltitudeMeters>
            <DistanceMeters>NAN</DistanceMeters>
          </Trackpoint>
          <Trackpoint>
            <Time>2022-07-17T15:57:31.000Z</Time>
            <Position>
              <LatitudeDegrees>43.4898755885660648345947265625</LatitudeDegrees>
              <LongitudeDegrees>-5.45796719379723072052001953125</LongitudeDegrees>
            </Position>
            <AltitudeMeters>105.1999969482421875</AltitudeMeters>
            <DistanceMeters>NAN</DistanceMeters>
          </Trackpoint>
          <Trackpoint>
            <Time>2022-07-17T15:57:35.000Z</Time>
            <Position>
              <LatitudeDegrees>43.4898004867136478424072265625</LatitudeDegrees>
              <LongitudeDegrees>-5.45797037892043590545654296875</LongitudeDegrees>
            </Position>
            <AltitudeMeters>105.59999847412109375</AltitudeMeters>
            <DistanceMeters>NAN</DistanceMeters>
          </Trackpoint>
          <Trackpoint>
            <Time>2022-07-17T15:57:42.000Z</Time>
            <Position>
              <LatitudeDegrees>43.4896717406809329986572265625</LatitudeDegrees>
              <LongitudeDegrees>-5.45795713551342487335205078125</LongitudeDegrees>
            </Position>
            <AltitudeMeters>106.1999969482421875</AltitudeMeters>
            <DistanceMeters>NAN</DistanceMeters>
          </Trackpoint>
          <Trackpoint>
            <Time>2022-07-17T15:57:45.000Z</Time>
            <Position>
              <LatitudeDegrees>43.48961885087192058563232421875</LatitudeDegrees>
              <LongitudeDegrees>-5.457952357828617095947265625</LongitudeDegrees>
            </Position>
            <AltitudeMeters>106.40000152587890625</AltitudeMeters>
            <DistanceMeters>NAN</DistanceMeters>
          </Trackpoint>
          <Trackpoint>
            <Time>2022-07-17T15:57:53.000Z</Time>
            <Position>
              <LatitudeDegrees>43.48948038183152675628662109375</LatitudeDegrees>
              <LongitudeDegrees>-5.457967780530452728271484375</LongitudeDegrees>
            </Position>
            <AltitudeMeters>107.1999969482421875</AltitudeMeters>
            <DistanceMeters>NAN</DistanceMeters>
          </Trackpoint>
          <Trackpoint>
            <Time>2022-07-17T15:58:02.000Z</Time>
            <Position>
              <LatitudeDegrees>43.48933436907827854156494140625</LatitudeDegrees>
              <LongitudeDegrees>-5.4580249451100826263427734375</LongitudeDegrees>
            </Position>
            <AltitudeMeters>108.1999969482421875</AltitudeMeters>
            <DistanceMeters>NAN</DistanceMeters>
          </Trackpoint>
          <Trackpoint>
            <Time>2022-07-17T15:58:04.000Z</Time>
            <Position>
              <LatitudeDegrees>43.4893059544265270233154296875</LatitudeDegrees>
              <LongitudeDegrees>-5.4580427147448062896728515625</LongitudeDegrees>
            </Position>
            <AltitudeMeters>108.40000152587890625</AltitudeMeters>
            <DistanceMeters>NAN</DistanceMeters>
          </Trackpoint>
          <Trackpoint>
            <Time>2022-07-17T15:58:11.000Z</Time>
            <Position>
              <LatitudeDegrees>43.489194810390472412109375</LatitudeDegrees>
              <LongitudeDegrees>-5.45812209136784076690673828125</LongitudeDegrees>
            </Position>
            <AltitudeMeters>109</AltitudeMeters>
            <DistanceMeters>NAN</DistanceMeters>
          </Trackpoint>
          <Trackpoint>
            <Time>2022-07-17T15:58:14.000Z</Time>
            <Position>
              <LatitudeDegrees>43.48913303576409816741943359375</LatitudeDegrees>
              <LongitudeDegrees>-5.4581510089337825775146484375</LongitudeDegrees>
            </Position>
            <AltitudeMeters>109.40000152587890625</AltitudeMeters>
            <DistanceMeters>NAN</DistanceMeters>
          </Trackpoint>
          <Trackpoint>
            <Time>2022-07-17T15:58:20.000Z</Time>
            <Position>
              <LatitudeDegrees>43.489028848707675933837890625</LatitudeDegrees>
              <LongitudeDegrees>-5.45819685794413089752197265625</LongitudeDegrees>
            </Position>
            <AltitudeMeters>110</AltitudeMeters>
            <DistanceMeters>NAN</DistanceMeters>
          </Trackpoint>
          <Trackpoint>
            <Time>2022-07-17T15:58:25.000Z</Time>
            <Position>
              <LatitudeDegrees>43.488968499004840850830078125</LatitudeDegrees>
              <LongitudeDegrees>-5.458279587328433990478515625</LongitudeDegrees>
            </Position>
            <AltitudeMeters>110.59999847412109375</AltitudeMeters>
            <DistanceMeters>NAN</DistanceMeters>
          </Trackpoint>
          <Trackpoint>
            <Time>2022-07-17T15:58:28.000Z</Time>
            <Position>
              <LatitudeDegrees>43.48893069662153720855712890625</LatitudeDegrees>
              <LongitudeDegrees>-5.458321161568164825439453125</LongitudeDegrees>
            </Position>
            <AltitudeMeters>110.8000030517578125</AltitudeMeters>
            <DistanceMeters>NAN</DistanceMeters>
          </Trackpoint>
          <Trackpoint>
            <Time>2022-07-17T15:58:34.000Z</Time>
            <Position>
              <LatitudeDegrees>43.48883396945893764495849609375</LatitudeDegrees>
              <LongitudeDegrees>-5.45838377438485622406005859375</LongitudeDegrees>
            </Position>
            <AltitudeMeters>111.59999847412109375</AltitudeMeters>
            <DistanceMeters>NAN</DistanceMeters>
          </Trackpoint>
          <Trackpoint>
            <Time>2022-07-17T15:58:37.000Z</Time>
            <Position>
              <LatitudeDegrees>43.488786108791828155517578125</LatitudeDegrees>
              <LongitudeDegrees>-5.458417050540447235107421875</LongitudeDegrees>
            </Position>
            <AltitudeMeters>112</AltitudeMeters>
            <DistanceMeters>NAN</DistanceMeters>
          </Trackpoint>
          <Trackpoint>
            <Time>2022-07-17T15:58:44.000Z</Time>
            <Position>
              <LatitudeDegrees>43.48866264335811138153076171875</LatitudeDegrees>
              <LongitudeDegrees>-5.4584668390452861785888671875</LongitudeDegrees>
            </Position>
            <AltitudeMeters>112.59999847412109375</AltitudeMeters>
            <DistanceMeters>NAN</DistanceMeters>
          </Trackpoint>
          <Trackpoint>
            <Time>2022-07-17T15:58:45.000Z</Time>
            <Position>
              <LatitudeDegrees>43.48863867111504077911376953125</LatitudeDegrees>
              <LongitudeDegrees>-5.45846541412174701690673828125</LongitudeDegrees>
            </Position>
            <AltitudeMeters>112.59999847412109375</AltitudeMeters>
            <DistanceMeters>NAN</DistanceMeters>
          </Trackpoint>
          <Trackpoint>
            <Time>2022-07-17T15:58:54.000Z</Time>
            <Position>
              <LatitudeDegrees>43.488506488502025604248046875</LatitudeDegrees>
              <LongitudeDegrees>-5.45855007134377956390380859375</LongitudeDegrees>
            </Position>
            <AltitudeMeters>113.1999969482421875</AltitudeMeters>
            <DistanceMeters>NAN</DistanceMeters>
          </Trackpoint>
          <Trackpoint>
            <Time>2022-07-17T15:58:58.000Z</Time>
            <Position>
              <LatitudeDegrees>43.48844110965728759765625</LatitudeDegrees>
              <LongitudeDegrees>-5.458550155162811279296875</LongitudeDegrees>
            </Position>
            <AltitudeMeters>113.59999847412109375</AltitudeMeters>
            <DistanceMeters>NAN</DistanceMeters>
          </Trackpoint>
          <Trackpoint>
            <Time>2022-07-17T15:59:00.000Z</Time>
            <Position>
              <LatitudeDegrees>43.48840313963592052459716796875</LatitudeDegrees>
              <LongitudeDegrees>-5.45854068361222743988037109375</LongitudeDegrees>
            </Position>
            <AltitudeMeters>113.59999847412109375</AltitudeMeters>
            <DistanceMeters>NAN</DistanceMeters>
          </Trackpoint>
          <Trackpoint>
            <Time>2022-07-17T15:59:01.000Z</Time>
            <Position>
              <LatitudeDegrees>43.48839073441922664642333984375</LatitudeDegrees>
              <LongitudeDegrees>-5.45853850431740283966064453125</LongitudeDegrees>
            </Position>
            <AltitudeMeters>113.8000030517578125</AltitudeMeters>
            <DistanceMeters>NAN</DistanceMeters>
          </Trackpoint>
          <Trackpoint>
            <Time>2022-07-17T15:59:05.000Z</Time>
            <Position>
              <LatitudeDegrees>43.488325774669647216796875</LatitudeDegrees>
              <LongitudeDegrees>-5.45853230170905590057373046875</LongitudeDegrees>
            </Position>
            <AltitudeMeters>114.1999969482421875</AltitudeMeters>
            <DistanceMeters>NAN</DistanceMeters>
          </Trackpoint>
          <Trackpoint>
            <Time>2022-07-17T15:59:15.000Z</Time>
            <Position>
              <LatitudeDegrees>43.4881232678890228271484375</LatitudeDegrees>
              <LongitudeDegrees>-5.45854185707867145538330078125</LongitudeDegrees>
            </Position>
            <AltitudeMeters>115</AltitudeMeters>
            <DistanceMeters>NAN</DistanceMeters>
          </Trackpoint>
          <Trackpoint>
            <Time>2022-07-17T15:59:24.000Z</Time>
            <Position>
              <LatitudeDegrees>43.48799024708569049835205078125</LatitudeDegrees>
              <LongitudeDegrees>-5.458665154874324798583984375</LongitudeDegrees>
            </Position>
            <AltitudeMeters>115.8000030517578125</AltitudeMeters>
            <DistanceMeters>NAN</DistanceMeters>
          </Trackpoint>
          <Trackpoint>
            <Time>2022-07-17T15:59:26.000Z</Time>
            <Position>
              <LatitudeDegrees>43.487966023385524749755859375</LatitudeDegrees>
              <LongitudeDegrees>-5.45870161615312099456787109375</LongitudeDegrees>
            </Position>
            <AltitudeMeters>116</AltitudeMeters>
            <DistanceMeters>NAN</DistanceMeters>
          </Trackpoint>
          <Trackpoint>
            <Time>2022-07-17T15:59:30.000Z</Time>
            <Position>
              <LatitudeDegrees>43.48793123848736286163330078125</LatitudeDegrees>
              <LongitudeDegrees>-5.458793230354785919189453125</LongitudeDegrees>
            </Position>
            <AltitudeMeters>116.1999969482421875</AltitudeMeters>
            <DistanceMeters>NAN</DistanceMeters>
          </Trackpoint>
          <Trackpoint>
            <Time>2022-07-17T15:59:40.000Z</Time>
            <Position>
              <LatitudeDegrees>43.48791548050940036773681640625</LatitudeDegrees>
              <LongitudeDegrees>-5.45902163721621036529541015625</LongitudeDegrees>
            </Position>
            <AltitudeMeters>117</AltitudeMeters>
            <DistanceMeters>NAN</DistanceMeters>
          </Trackpoint>
          <Trackpoint>
            <Time>2022-07-17T15:59:41.000Z</Time>
            <Position>
              <LatitudeDegrees>43.487913720309734344482421875</LatitudeDegrees>
              <LongitudeDegrees>-5.4590451903641223907470703125</LongitudeDegrees>
            </Position>
            <AltitudeMeters>117</AltitudeMeters>
            <DistanceMeters>NAN</DistanceMeters>
          </Trackpoint>
          <Trackpoint>
            <Time>2022-07-17T15:59:48.000Z</Time>
            <Position>
              <LatitudeDegrees>43.48791279830038547515869140625</LatitudeDegrees>
              <LongitudeDegrees>-5.459200255572795867919921875</LongitudeDegrees>
            </Position>
            <AltitudeMeters>117.59999847412109375</AltitudeMeters>
            <DistanceMeters>NAN</DistanceMeters>
          </Trackpoint>
          <Trackpoint>
            <Time>2022-07-17T15:59:56.000Z</Time>
            <Position>
              <LatitudeDegrees>43.48791229538619518280029296875</LatitudeDegrees>
              <LongitudeDegrees>-5.459405444562435150146484375</LongitudeDegrees>
            </Position>
            <AltitudeMeters>117.8000030517578125</AltitudeMeters>
            <DistanceMeters>NAN</DistanceMeters>
          </Trackpoint>
          <Trackpoint>
            <Time>2022-07-17T16:00:00.000Z</Time>
            <Position>
              <LatitudeDegrees>43.48791263066232204437255859375</LatitudeDegrees>
              <LongitudeDegrees>-5.459506697952747344970703125</LongitudeDegrees>
            </Position>
            <AltitudeMeters>118.1999969482421875</AltitudeMeters>
            <DistanceMeters>NAN</DistanceMeters>
          </Trackpoint>
          <Trackpoint>
            <Time>2022-07-17T16:00:07.000Z</Time>
            <Position>
              <LatitudeDegrees>43.487909026443958282470703125</LatitudeDegrees>
              <LongitudeDegrees>-5.45966771431267261505126953125</LongitudeDegrees>
            </Position>
            <AltitudeMeters>118.40000152587890625</AltitudeMeters>
            <DistanceMeters>NAN</DistanceMeters>
          </Trackpoint>
          <Trackpoint>
            <Time>2022-07-17T16:00:18.000Z</Time>
            <Position>
              <LatitudeDegrees>43.4879252873361110687255859375</LatitudeDegrees>
              <LongitudeDegrees>-5.45992721803486347198486328125</LongitudeDegrees>
            </Position>
            <AltitudeMeters>119</AltitudeMeters>
            <DistanceMeters>NAN</DistanceMeters>
          </Trackpoint>
          <Trackpoint>
            <Time>2022-07-17T16:00:22.000Z</Time>
            <Position>
              <LatitudeDegrees>43.48793375305831432342529296875</LatitudeDegrees>
              <LongitudeDegrees>-5.46001665294170379638671875</LongitudeDegrees>
            </Position>
            <AltitudeMeters>119.1999969482421875</AltitudeMeters>
            <DistanceMeters>NAN</DistanceMeters>
          </Trackpoint>
          <Trackpoint>
            <Time>2022-07-17T16:00:27.000Z</Time>
            <Position>
              <LatitudeDegrees>43.48791615106165409088134765625</LatitudeDegrees>
              <LongitudeDegrees>-5.46012704260647296905517578125</LongitudeDegrees>
            </Position>
            <AltitudeMeters>119.40000152587890625</AltitudeMeters>
            <DistanceMeters>NAN</DistanceMeters>
          </Trackpoint>
          <Trackpoint>
            <Time>2022-07-17T16:00:35.000Z</Time>
            <Position>
              <LatitudeDegrees>43.48788714967668056488037109375</LatitudeDegrees>
              <LongitudeDegrees>-5.46029233373701572418212890625</LongitudeDegrees>
            </Position>
            <AltitudeMeters>120</AltitudeMeters>
            <DistanceMeters>NAN</DistanceMeters>
          </Trackpoint>
          <Trackpoint>
            <Time>2022-07-17T16:00:39.000Z</Time>
            <Position>
              <LatitudeDegrees>43.48784440197050571441650390625</LatitudeDegrees>
              <LongitudeDegrees>-5.4603753983974456787109375</LongitudeDegrees>
            </Position>
            <AltitudeMeters>120.1999969482421875</AltitudeMeters>
            <DistanceMeters>NAN</DistanceMeters>
          </Trackpoint>
          <Trackpoint>
            <Time>2022-07-17T16:00:44.000Z</Time>
            <Position>
              <LatitudeDegrees>43.4877884946763515472412109375</LatitudeDegrees>
              <LongitudeDegrees>-5.4604513384401798248291015625</LongitudeDegrees>
            </Position>
            <AltitudeMeters>120.59999847412109375</AltitudeMeters>
            <DistanceMeters>NAN</DistanceMeters>
          </Trackpoint>
          <Trackpoint>
            <Time>2022-07-17T16:00:51.000Z</Time>
            <Position>
              <LatitudeDegrees>43.48766486160457134246826171875</LatitudeDegrees>
              <LongitudeDegrees>-5.46050255186855792999267578125</LongitudeDegrees>
            </Position>
            <AltitudeMeters>121</AltitudeMeters>
            <DistanceMeters>NAN</DistanceMeters>
          </Trackpoint>
          <Trackpoint>
            <Time>2022-07-17T16:00:54.000Z</Time>
            <Position>
              <LatitudeDegrees>43.48760987631976604461669921875</LatitudeDegrees>
              <LongitudeDegrees>-5.4605120234191417694091796875</LongitudeDegrees>
            </Position>
            <AltitudeMeters>121.1999969482421875</AltitudeMeters>
            <DistanceMeters>NAN</DistanceMeters>
          </Trackpoint>
          <Trackpoint>
            <Time>2022-07-17T16:01:00.000Z</Time>
            <Position>
              <LatitudeDegrees>43.4875021688640117645263671875</LatitudeDegrees>
              <LongitudeDegrees>-5.4605066590011119842529296875</LongitudeDegrees>
            </Position>
            <AltitudeMeters>121.59999847412109375</AltitudeMeters>
            <DistanceMeters>NAN</DistanceMeters>
          </Trackpoint>
          <Trackpoint>
            <Time>2022-07-17T16:01:09.000Z</Time>
            <Position>
              <LatitudeDegrees>43.48733964376151561737060546875</LatitudeDegrees>
              <LongitudeDegrees>-5.4604925774037837982177734375</LongitudeDegrees>
            </Position>
            <AltitudeMeters>122.1999969482421875</AltitudeMeters>
            <DistanceMeters>NAN</DistanceMeters>
          </Trackpoint>
          <Trackpoint>
            <Time>2022-07-17T16:01:10.000Z</Time>
            <Position>
              <LatitudeDegrees>43.4873264841735363006591796875</LatitudeDegrees>
              <LongitudeDegrees>-5.46048880554735660552978515625</LongitudeDegrees>
            </Position>
            <AltitudeMeters>122.40000152587890625</AltitudeMeters>
            <DistanceMeters>NAN</DistanceMeters>
          </Trackpoint>
          <Trackpoint>
            <Time>2022-07-17T16:01:17.000Z</Time>
            <Position>
              <LatitudeDegrees>43.48719589412212371826171875</LatitudeDegrees>
              <LongitudeDegrees>-5.46048377640545368194580078125</LongitudeDegrees>
            </Position>
            <AltitudeMeters>122.8000030517578125</AltitudeMeters>
            <DistanceMeters>NAN</DistanceMeters>
          </Trackpoint>
          <Trackpoint>
            <Time>2022-07-17T16:01:23.000Z</Time>
            <Position>
              <LatitudeDegrees>43.4870830737054347991943359375</LatitudeDegrees>
              <LongitudeDegrees>-5.46052736230194568634033203125</LongitudeDegrees>
            </Position>
            <AltitudeMeters>123.40000152587890625</AltitudeMeters>
            <DistanceMeters>NAN</DistanceMeters>
          </Trackpoint>
          <Trackpoint>
            <Time>2022-07-17T16:01:27.000Z</Time>
            <Position>
              <LatitudeDegrees>43.4870190359652042388916015625</LatitudeDegrees>
              <LongitudeDegrees>-5.460570193827152252197265625</LongitudeDegrees>
            </Position>
            <AltitudeMeters>123.8000030517578125</AltitudeMeters>
            <DistanceMeters>NAN</DistanceMeters>
          </Trackpoint>
          <Trackpoint>
            <Time>2022-07-17T16:01:34.000Z</Time>
            <Position>
              <LatitudeDegrees>43.48696279339492321014404296875</LatitudeDegrees>
              <LongitudeDegrees>-5.4606811702251434326171875</LongitudeDegrees>
            </Position>
            <AltitudeMeters>124.40000152587890625</AltitudeMeters>
            <DistanceMeters>NAN</DistanceMeters>
          </Trackpoint>
          <Trackpoint>
            <Time>2022-07-17T16:01:43.000Z</Time>
            <Position>
              <LatitudeDegrees>43.48692021332681179046630859375</LatitudeDegrees>
              <LongitudeDegrees>-5.460871271789073944091796875</LongitudeDegrees>
            </Position>
            <AltitudeMeters>125</AltitudeMeters>
            <DistanceMeters>NAN</DistanceMeters>
          </Trackpoint>
          <Trackpoint>
            <Time>2022-07-17T16:01:49.000Z</Time>
            <Position>
              <LatitudeDegrees>43.48689657635986804962158203125</LatitudeDegrees>
              <LongitudeDegrees>-5.46100613661110401153564453125</LongitudeDegrees>
            </Position>
            <AltitudeMeters>125.40000152587890625</AltitudeMeters>
            <DistanceMeters>NAN</DistanceMeters>
          </Trackpoint>
          <Trackpoint>
            <Time>2022-07-17T16:01:51.000Z</Time>
            <Position>
              <LatitudeDegrees>43.48688936792314052581787109375</LatitudeDegrees>
              <LongitudeDegrees>-5.46105491928756237030029296875</LongitudeDegrees>
            </Position>
            <AltitudeMeters>125.40000152587890625</AltitudeMeters>
            <DistanceMeters>NAN</DistanceMeters>
          </Trackpoint>
          <Trackpoint>
            <Time>2022-07-17T16:01:58.000Z</Time>
            <Position>
              <LatitudeDegrees>43.4868768788874149322509765625</LatitudeDegrees>
              <LongitudeDegrees>-5.4612174443900585174560546875</LongitudeDegrees>
            </Position>
            <AltitudeMeters>126.1999969482421875</AltitudeMeters>
            <DistanceMeters>NAN</DistanceMeters>
          </Trackpoint>
          <Trackpoint>
            <Time>2022-07-17T16:02:00.000Z</Time>
            <Position>
              <LatitudeDegrees>43.4868644736707210540771484375</LatitudeDegrees>
              <LongitudeDegrees>-5.4612553305923938751220703125</LongitudeDegrees>
            </Position>
            <AltitudeMeters>126.40000152587890625</AltitudeMeters>
            <DistanceMeters>NAN</DistanceMeters>
          </Trackpoint>
          <Trackpoint>
            <Time>2022-07-17T16:02:04.000Z</Time>
            <Position>
              <LatitudeDegrees>43.4868513979017734527587890625</LatitudeDegrees>
              <LongitudeDegrees>-5.46133755706250667572021484375</LongitudeDegrees>
            </Position>
            <AltitudeMeters>126.8000030517578125</AltitudeMeters>
            <DistanceMeters>NAN</DistanceMeters>
          </Trackpoint>
          <Trackpoint>
            <Time>2022-07-17T16:02:05.000Z</Time>
            <Position>
              <LatitudeDegrees>43.48685030825436115264892578125</LatitudeDegrees>
              <LongitudeDegrees>-5.4613619484007358551025390625</LongitudeDegrees>
            </Position>
            <AltitudeMeters>126.8000030517578125</AltitudeMeters>
            <DistanceMeters>NAN</DistanceMeters>
          </Trackpoint>
          <Trackpoint>
            <Time>2022-07-17T16:02:13.000Z</Time>
            <Position>
              <LatitudeDegrees>43.48684108816087245941162109375</LatitudeDegrees>
              <LongitudeDegrees>-5.4615662992000579833984375</LongitudeDegrees>
            </Position>
            <AltitudeMeters>127.40000152587890625</AltitudeMeters>
            <DistanceMeters>NAN</DistanceMeters>
          </Trackpoint>
          <Trackpoint>
            <Time>2022-07-17T16:02:14.000Z</Time>
            <Position>
              <LatitudeDegrees>43.486838825047016143798828125</LatitudeDegrees>
              <LongitudeDegrees>-5.46159018762409687042236328125</LongitudeDegrees>
            </Position>
            <AltitudeMeters>127.40000152587890625</AltitudeMeters>
            <DistanceMeters>NAN</DistanceMeters>
          </Trackpoint>
          <Trackpoint>
            <Time>2022-07-17T16:02:23.000Z</Time>
            <Position>
              <LatitudeDegrees>43.48682113923132419586181640625</LatitudeDegrees>
              <LongitudeDegrees>-5.4618055187165737152099609375</LongitudeDegrees>
            </Position>
            <AltitudeMeters>128.399993896484375</AltitudeMeters>
            <DistanceMeters>NAN</DistanceMeters>
          </Trackpoint>
          <Trackpoint>
            <Time>2022-07-17T16:02:25.000Z</Time>
            <Position>
              <LatitudeDegrees>43.4868165291845798492431640625</LatitudeDegrees>
              <LongitudeDegrees>-5.4618544690310955047607421875</LongitudeDegrees>
            </Position>
            <AltitudeMeters>128.600006103515625</AltitudeMeters>
            <DistanceMeters>NAN</DistanceMeters>
          </Trackpoint>
          <Trackpoint>
            <Time>2022-07-17T16:02:30.000Z</Time>
            <Position>
              <LatitudeDegrees>43.48681124858558177947998046875</LatitudeDegrees>
              <LongitudeDegrees>-5.46198547817766666412353515625</LongitudeDegrees>
            </Position>
            <AltitudeMeters>129</AltitudeMeters>
            <DistanceMeters>NAN</DistanceMeters>
          </Trackpoint>
          <Trackpoint>
            <Time>2022-07-17T16:02:38.000Z</Time>
            <Position>
              <LatitudeDegrees>43.486773781478404998779296875</LatitudeDegrees>
              <LongitudeDegrees>-5.4621662758290767669677734375</LongitudeDegrees>
            </Position>
            <AltitudeMeters>129.600006103515625</AltitudeMeters>
            <DistanceMeters>NAN</DistanceMeters>
          </Trackpoint>
          <Trackpoint>
            <Time>2022-07-17T16:02:39.000Z</Time>
            <Position>
              <LatitudeDegrees>43.4867705963551998138427734375</LatitudeDegrees>
              <LongitudeDegrees>-5.46219385229051113128662109375</LongitudeDegrees>
            </Position>
            <AltitudeMeters>129.600006103515625</AltitudeMeters>
            <DistanceMeters>NAN</DistanceMeters>
          </Trackpoint>
          <Trackpoint>
            <Time>2022-07-17T16:02:46.000Z</Time>
            <Position>
              <LatitudeDegrees>43.48673748783767223358154296875</LatitudeDegrees>
              <LongitudeDegrees>-5.46234590001404285430908203125</LongitudeDegrees>
            </Position>
            <AltitudeMeters>130.1999969482421875</AltitudeMeters>
            <DistanceMeters>NAN</DistanceMeters>
          </Trackpoint>
          <Trackpoint>
            <Time>2022-07-17T16:02:51.000Z</Time>
            <Position>
              <LatitudeDegrees>43.48670848645269870758056640625</LatitudeDegrees>
              <LongitudeDegrees>-5.462428294122219085693359375</LongitudeDegrees>
            </Position>
            <AltitudeMeters>130.600006103515625</AltitudeMeters>
            <DistanceMeters>NAN</DistanceMeters>
          </Trackpoint>
          <Trackpoint>
            <Time>2022-07-17T16:02:52.000Z</Time>
            <Position>
              <LatitudeDegrees>43.48670915700495243072509765625</LatitudeDegrees>
              <LongitudeDegrees>-5.46244665049016475677490234375</LongitudeDegrees>
            </Position>
            <AltitudeMeters>130.600006103515625</AltitudeMeters>
            <DistanceMeters>NAN</DistanceMeters>
          </Trackpoint>
          <Trackpoint>
            <Time>2022-07-17T16:02:53.000Z</Time>
            <Position>
              <LatitudeDegrees>43.48670639097690582275390625</LatitudeDegrees>
              <LongitudeDegrees>-5.4624579660594463348388671875</LongitudeDegrees>
            </Position>
            <AltitudeMeters>130.8000030517578125</AltitudeMeters>
            <DistanceMeters>NAN</DistanceMeters>
          </Trackpoint>
          <Trackpoint>
            <Time>2022-07-17T16:02:56.000Z</Time>
            <Position>
              <LatitudeDegrees>43.486691303551197052001953125</LatitudeDegrees>
              <LongitudeDegrees>-5.462503395974636077880859375</LongitudeDegrees>
            </Position>
            <AltitudeMeters>131</AltitudeMeters>
            <DistanceMeters>NAN</DistanceMeters>
          </Trackpoint>
          <Trackpoint>
            <Time>2022-07-17T16:03:03.000Z</Time>
            <Position>
              <LatitudeDegrees>43.48663506098091602325439453125</LatitudeDegrees>
              <LongitudeDegrees>-5.46264882199466228485107421875</LongitudeDegrees>
            </Position>
            <AltitudeMeters>131.600006103515625</AltitudeMeters>
            <DistanceMeters>NAN</DistanceMeters>
          </Trackpoint>
          <Trackpoint>
            <Time>2022-07-17T16:03:04.000Z</Time>
            <Position>
              <LatitudeDegrees>43.4866167046129703521728515625</LatitudeDegrees>
              <LongitudeDegrees>-5.46265787445008754730224609375</LongitudeDegrees>
            </Position>
            <AltitudeMeters>131.600006103515625</AltitudeMeters>
            <DistanceMeters>NAN</DistanceMeters>
          </Trackpoint>
          <Trackpoint>
            <Time>2022-07-17T16:03:06.000Z</Time>
            <Position>
              <LatitudeDegrees>43.4866093285381793975830078125</LatitudeDegrees>
              <LongitudeDegrees>-5.46269961632788181304931640625</LongitudeDegrees>
            </Position>
            <AltitudeMeters>131.8000030517578125</AltitudeMeters>
            <DistanceMeters>NAN</DistanceMeters>
          </Trackpoint>
          <Trackpoint>
            <Time>2022-07-17T16:03:10.000Z</Time>
            <Position>
              <LatitudeDegrees>43.48658703267574310302734375</LatitudeDegrees>
              <LongitudeDegrees>-5.46276952140033245086669921875</LongitudeDegrees>
            </Position>
            <AltitudeMeters>132.1999969482421875</AltitudeMeters>
            <DistanceMeters>NAN</DistanceMeters>
          </Trackpoint>
          <Trackpoint>
            <Time>2022-07-17T16:03:13.000Z</Time>
            <Position>
              <LatitudeDegrees>43.48659214563667774200439453125</LatitudeDegrees>
              <LongitudeDegrees>-5.4628401808440685272216796875</LongitudeDegrees>
            </Position>
            <AltitudeMeters>132.600006103515625</AltitudeMeters>
            <DistanceMeters>NAN</DistanceMeters>
          </Trackpoint>
          <Trackpoint>
            <Time>2022-07-17T16:03:16.000Z</Time>
            <Position>
              <LatitudeDegrees>43.48657362163066864013671875</LatitudeDegrees>
              <LongitudeDegrees>-5.46291335485875606536865234375</LongitudeDegrees>
            </Position>
            <AltitudeMeters>133</AltitudeMeters>
            <DistanceMeters>NAN</DistanceMeters>
          </Trackpoint>
          <Trackpoint>
            <Time>2022-07-17T16:03:24.000Z</Time>
            <Position>
              <LatitudeDegrees>43.48651402629911899566650390625</LatitudeDegrees>
              <LongitudeDegrees>-5.4630839265882968902587890625</LongitudeDegrees>
            </Position>
            <AltitudeMeters>133.600006103515625</AltitudeMeters>
            <DistanceMeters>NAN</DistanceMeters>
          </Trackpoint>
          <Trackpoint>
            <Time>2022-07-17T16:03:28.000Z</Time>
            <Position>
              <LatitudeDegrees>43.48647840321063995361328125</LatitudeDegrees>
              <LongitudeDegrees>-5.4631358943879604339599609375</LongitudeDegrees>
            </Position>
            <AltitudeMeters>134</AltitudeMeters>
            <DistanceMeters>NAN</DistanceMeters>
          </Trackpoint>
          <Trackpoint>
            <Time>2022-07-17T16:03:30.000Z</Time>
            <Position>
              <LatitudeDegrees>43.48645870573818683624267578125</LatitudeDegrees>
              <LongitudeDegrees>-5.4631677456200122833251953125</LongitudeDegrees>
            </Position>
            <AltitudeMeters>134.1999969482421875</AltitudeMeters>
            <DistanceMeters>NAN</DistanceMeters>
          </Trackpoint>
          <Trackpoint>
            <Time>2022-07-17T16:03:37.000Z</Time>
            <Position>
              <LatitudeDegrees>43.486404307186603546142578125</LatitudeDegrees>
              <LongitudeDegrees>-5.46330009587109088897705078125</LongitudeDegrees>
            </Position>
            <AltitudeMeters>134.8000030517578125</AltitudeMeters>
            <DistanceMeters>NAN</DistanceMeters>
          </Trackpoint>
          <Trackpoint>
            <Time>2022-07-17T16:03:39.000Z</Time>
            <Position>
              <LatitudeDegrees>43.48640707321465015411376953125</LatitudeDegrees>
              <LongitudeDegrees>-5.4633548296988010406494140625</LongitudeDegrees>
            </Position>
            <AltitudeMeters>135</AltitudeMeters>
            <DistanceMeters>NAN</DistanceMeters>
          </Trackpoint>
          <Trackpoint>
            <Time>2022-07-17T16:03:43.000Z</Time>
            <Position>
              <LatitudeDegrees>43.48636013455688953399658203125</LatitudeDegrees>
              <LongitudeDegrees>-5.46340989880263805389404296875</LongitudeDegrees>
            </Position>
            <AltitudeMeters>135.399993896484375</AltitudeMeters>
            <DistanceMeters>NAN</DistanceMeters>
          </Trackpoint>
          <Trackpoint>
            <Time>2022-07-17T16:03:50.000Z</Time>
            <Position>
              <LatitudeDegrees>43.48628285340964794158935546875</LatitudeDegrees>
              <LongitudeDegrees>-5.463487096130847930908203125</LongitudeDegrees>
            </Position>
            <AltitudeMeters>136</AltitudeMeters>
            <DistanceMeters>NAN</DistanceMeters>
          </Trackpoint>
          <Trackpoint>
            <Time>2022-07-17T16:03:54.000Z</Time>
            <Position>
              <LatitudeDegrees>43.48622116260230541229248046875</LatitudeDegrees>
              <LongitudeDegrees>-5.46349950134754180908203125</LongitudeDegrees>
            </Position>
            <AltitudeMeters>136.399993896484375</AltitudeMeters>
            <DistanceMeters>NAN</DistanceMeters>
          </Trackpoint>
          <Trackpoint>
            <Time>2022-07-17T16:04:02.000Z</Time>
            <Position>
              <LatitudeDegrees>43.48610733635723590850830078125</LatitudeDegrees>
              <LongitudeDegrees>-5.46353168785572052001953125</LongitudeDegrees>
            </Position>
            <AltitudeMeters>137.1999969482421875</AltitudeMeters>
            <DistanceMeters>NAN</DistanceMeters>
          </Trackpoint>
          <Trackpoint>
            <Time>2022-07-17T16:04:04.000Z</Time>
            <Position>
              <LatitudeDegrees>43.48607297055423259735107421875</LatitudeDegrees>
              <LongitudeDegrees>-5.46353747136890888214111328125</LongitudeDegrees>
            </Position>
            <AltitudeMeters>137.399993896484375</AltitudeMeters>
            <DistanceMeters>NAN</DistanceMeters>
          </Trackpoint>
          <Trackpoint>
            <Time>2022-07-17T16:04:14.000Z</Time>
            <Position>
              <LatitudeDegrees>43.48590650595724582672119140625</LatitudeDegrees>
              <LongitudeDegrees>-5.46354912221431732177734375</LongitudeDegrees>
            </Position>
            <AltitudeMeters>138.1999969482421875</AltitudeMeters>
            <DistanceMeters>NAN</DistanceMeters>
          </Trackpoint>
          <Trackpoint>
            <Time>2022-07-17T16:04:15.000Z</Time>
            <Position>
              <LatitudeDegrees>43.4858945198357105255126953125</LatitudeDegrees>
              <LongitudeDegrees>-5.46355180442333221435546875</LongitudeDegrees>
            </Position>
            <AltitudeMeters>138.399993896484375</AltitudeMeters>
            <DistanceMeters>NAN</DistanceMeters>
          </Trackpoint>
          <Trackpoint>
            <Time>2022-07-17T16:04:25.000Z</Time>
            <Position>
              <LatitudeDegrees>43.48570534028112888336181640625</LatitudeDegrees>
              <LongitudeDegrees>-5.4635771177709102630615234375</LongitudeDegrees>
            </Position>
            <AltitudeMeters>139.1999969482421875</AltitudeMeters>
            <DistanceMeters>NAN</DistanceMeters>
          </Trackpoint>
          <Trackpoint>
            <Time>2022-07-17T16:04:26.000Z</Time>
            <Position>
              <LatitudeDegrees>43.48568723537027835845947265625</LatitudeDegrees>
              <LongitudeDegrees>-5.46358122490346431732177734375</LongitudeDegrees>
            </Position>
            <AltitudeMeters>139.399993896484375</AltitudeMeters>
            <DistanceMeters>NAN</DistanceMeters>
          </Trackpoint>
          <Trackpoint>
            <Time>2022-07-17T16:04:34.000Z</Time>
            <Position>
              <LatitudeDegrees>43.48555572330951690673828125</LatitudeDegrees>
              <LongitudeDegrees>-5.4636260680854320526123046875</LongitudeDegrees>
            </Position>
            <AltitudeMeters>140.1999969482421875</AltitudeMeters>
            <DistanceMeters>NAN</DistanceMeters>
          </Trackpoint>
          <Trackpoint>
            <Time>2022-07-17T16:04:38.000Z</Time>
            <Position>
              <LatitudeDegrees>43.48549579270184040069580078125</LatitudeDegrees>
              <LongitudeDegrees>-5.46366319991648197174072265625</LongitudeDegrees>
            </Position>
            <AltitudeMeters>140.399993896484375</AltitudeMeters>
            <DistanceMeters>NAN</DistanceMeters>
          </Trackpoint>
          <Trackpoint>
            <Time>2022-07-17T16:04:43.000Z</Time>
            <Position>
              <LatitudeDegrees>43.48541800864040851593017578125</LatitudeDegrees>
              <LongitudeDegrees>-5.46371147967875003814697265625</LongitudeDegrees>
            </Position>
            <AltitudeMeters>141</AltitudeMeters>
            <DistanceMeters>NAN</DistanceMeters>
          </Trackpoint>
          <Trackpoint>
            <Time>2022-07-17T16:04:50.000Z</Time>
            <Position>
              <LatitudeDegrees>43.48532237112522125244140625</LatitudeDegrees>
              <LongitudeDegrees>-5.46381290070712566375732421875</LongitudeDegrees>
            </Position>
            <AltitudeMeters>141.399993896484375</AltitudeMeters>
            <DistanceMeters>NAN</DistanceMeters>
          </Trackpoint>
          <Trackpoint>
            <Time>2022-07-17T16:04:52.000Z</Time>
            <Position>
              <LatitudeDegrees>43.48529714159667491912841796875</LatitudeDegrees>
              <LongitudeDegrees>-5.46385061927139759063720703125</LongitudeDegrees>
            </Position>
            <AltitudeMeters>141.600006103515625</AltitudeMeters>
            <DistanceMeters>NAN</DistanceMeters>
          </Trackpoint>
          <Trackpoint>
            <Time>2022-07-17T16:04:56.000Z</Time>
            <Position>
              <LatitudeDegrees>43.48526948131620883941650390625</LatitudeDegrees>
              <LongitudeDegrees>-5.46393628232181072235107421875</LongitudeDegrees>
            </Position>
            <AltitudeMeters>142</AltitudeMeters>
            <DistanceMeters>NAN</DistanceMeters>
          </Trackpoint>
          <Trackpoint>
            <Time>2022-07-17T16:04:58.000Z</Time>
            <Position>
              <LatitudeDegrees>43.4852558188140392303466796875</LatitudeDegrees>
              <LongitudeDegrees>-5.463977940380573272705078125</LongitudeDegrees>
            </Position>
            <AltitudeMeters>142.1999969482421875</AltitudeMeters>
            <DistanceMeters>NAN</DistanceMeters>
          </Trackpoint>
          <Trackpoint>
            <Time>2022-07-17T16:05:03.000Z</Time>
            <Position>
              <LatitudeDegrees>43.48520628176629543304443359375</LatitudeDegrees>
              <LongitudeDegrees>-5.4640739969909191131591796875</LongitudeDegrees>
            </Position>
            <AltitudeMeters>142.600006103515625</AltitudeMeters>
            <DistanceMeters>NAN</DistanceMeters>
          </Trackpoint>
          <Trackpoint>
            <Time>2022-07-17T16:05:05.000Z</Time>
            <Position>
              <LatitudeDegrees>43.48518750630319118499755859375</LatitudeDegrees>
              <LongitudeDegrees>-5.46411238610744476318359375</LongitudeDegrees>
            </Position>
            <AltitudeMeters>142.600006103515625</AltitudeMeters>
            <DistanceMeters>NAN</DistanceMeters>
          </Trackpoint>
          <Trackpoint>
            <Time>2022-07-17T16:05:11.000Z</Time>
            <Position>
              <LatitudeDegrees>43.48512833006680011749267578125</LatitudeDegrees>
              <LongitudeDegrees>-5.46421003527939319610595703125</LongitudeDegrees>
            </Position>
            <AltitudeMeters>143.1999969482421875</AltitudeMeters>
            <DistanceMeters>NAN</DistanceMeters>
          </Trackpoint>
          <Trackpoint>
            <Time>2022-07-17T16:05:17.000Z</Time>
            <Position>
              <LatitudeDegrees>43.48507602699100971221923828125</LatitudeDegrees>
              <LongitudeDegrees>-5.46432319097220897674560546875</LongitudeDegrees>
            </Position>
            <AltitudeMeters>143.600006103515625</AltitudeMeters>
            <DistanceMeters>NAN</DistanceMeters>
          </Trackpoint>
          <Trackpoint>
            <Time>2022-07-17T16:05:21.000Z</Time>
            <Position>
              <LatitudeDegrees>43.4850365482270717620849609375</LatitudeDegrees>
              <LongitudeDegrees>-5.46440935693681240081787109375</LongitudeDegrees>
            </Position>
            <AltitudeMeters>143.8000030517578125</AltitudeMeters>
            <DistanceMeters>NAN</DistanceMeters>
          </Trackpoint>
          <Trackpoint>
            <Time>2022-07-17T16:05:30.000Z</Time>
            <Position>
              <LatitudeDegrees>43.48495599813759326934814453125</LatitudeDegrees>
              <LongitudeDegrees>-5.4646010510623455047607421875</LongitudeDegrees>
            </Position>
            <AltitudeMeters>144.600006103515625</AltitudeMeters>
            <DistanceMeters>NAN</DistanceMeters>
          </Trackpoint>
          <Trackpoint>
            <Time>2022-07-17T16:05:31.000Z</Time>
            <Position>
              <LatitudeDegrees>43.4849466942250728607177734375</LatitudeDegrees>
              <LongitudeDegrees>-5.464622341096401214599609375</LongitudeDegrees>
            </Position>
            <AltitudeMeters>144.600006103515625</AltitudeMeters>
            <DistanceMeters>NAN</DistanceMeters>
          </Trackpoint>
          <Trackpoint>
            <Time>2022-07-17T16:05:36.000Z</Time>
            <Position>
              <LatitudeDegrees>43.4849019348621368408203125</LatitudeDegrees>
              <LongitudeDegrees>-5.46471328474581241607666015625</LongitudeDegrees>
            </Position>
            <AltitudeMeters>145</AltitudeMeters>
            <DistanceMeters>NAN</DistanceMeters>
          </Trackpoint>
          <Trackpoint>
            <Time>2022-07-17T16:05:45.000Z</Time>
            <Position>
              <LatitudeDegrees>43.4848645515739917755126953125</LatitudeDegrees>
              <LongitudeDegrees>-5.464893914759159088134765625</LongitudeDegrees>
            </Position>
            <AltitudeMeters>145.399993896484375</AltitudeMeters>
            <DistanceMeters>NAN</DistanceMeters>
          </Trackpoint>
          <Trackpoint>
            <Time>2022-07-17T16:05:49.000Z</Time>
            <Position>
              <LatitudeDegrees>43.484852649271488189697265625</LatitudeDegrees>
              <LongitudeDegrees>-5.4649752192199230194091796875</LongitudeDegrees>
            </Position>
            <AltitudeMeters>145.600006103515625</AltitudeMeters>
            <DistanceMeters>NAN</DistanceMeters>
          </Trackpoint>
          <Trackpoint>
            <Time>2022-07-17T16:05:53.000Z</Time>
            <Position>
              <LatitudeDegrees>43.48486094735562801361083984375</LatitudeDegrees>
              <LongitudeDegrees>-5.46508326195180416107177734375</LongitudeDegrees>
            </Position>
            <AltitudeMeters>146</AltitudeMeters>
            <DistanceMeters>NAN</DistanceMeters>
          </Trackpoint>
          <Trackpoint>
            <Time>2022-07-17T16:05:58.000Z</Time>
            <Position>
              <LatitudeDegrees>43.48488039337098598480224609375</LatitudeDegrees>
              <LongitudeDegrees>-5.46521351672708988189697265625</LongitudeDegrees>
            </Position>
            <AltitudeMeters>146</AltitudeMeters>
            <DistanceMeters>NAN</DistanceMeters>
          </Trackpoint>
          <Trackpoint>
            <Time>2022-07-17T16:06:00.000Z</Time>
            <Position>
              <LatitudeDegrees>43.4848799742758274078369140625</LatitudeDegrees>
              <LongitudeDegrees>-5.4652561806142330169677734375</LongitudeDegrees>
            </Position>
            <AltitudeMeters>146</AltitudeMeters>
            <DistanceMeters>NAN</DistanceMeters>
          </Trackpoint>
          <Trackpoint>
            <Time>2022-07-17T16:06:08.000Z</Time>
            <Position>
              <LatitudeDegrees>43.4849775396287441253662109375</LatitudeDegrees>
              <LongitudeDegrees>-5.46542557887732982635498046875</LongitudeDegrees>
            </Position>
            <AltitudeMeters>146.600006103515625</AltitudeMeters>
            <DistanceMeters>NAN</DistanceMeters>
          </Trackpoint>
          <Trackpoint>
            <Time>2022-07-17T16:06:09.000Z</Time>
            <Position>
              <LatitudeDegrees>43.48498919047415256500244140625</LatitudeDegrees>
              <LongitudeDegrees>-5.465441755950450897216796875</LongitudeDegrees>
            </Position>
            <AltitudeMeters>146.8000030517578125</AltitudeMeters>
            <DistanceMeters>NAN</DistanceMeters>
          </Trackpoint>
          <Trackpoint>
            <Time>2022-07-17T16:06:16.000Z</Time>
            <Position>
              <LatitudeDegrees>43.4850804693996906280517578125</LatitudeDegrees>
              <LongitudeDegrees>-5.46557486057281494140625</LongitudeDegrees>
            </Position>
            <AltitudeMeters>147</AltitudeMeters>
            <DistanceMeters>NAN</DistanceMeters>
          </Trackpoint>
          <Trackpoint>
            <Time>2022-07-17T16:06:21.000Z</Time>
            <Position>
              <LatitudeDegrees>43.48516303114593029022216796875</LatitudeDegrees>
              <LongitudeDegrees>-5.465649627149105072021484375</LongitudeDegrees>
            </Position>
            <AltitudeMeters>147.399993896484375</AltitudeMeters>
            <DistanceMeters>NAN</DistanceMeters>
          </Trackpoint>
          <Trackpoint>
            <Time>2022-07-17T16:06:24.000Z</Time>
            <Position>
              <LatitudeDegrees>43.48520167171955108642578125</LatitudeDegrees>
              <LongitudeDegrees>-5.4657007567584514617919921875</LongitudeDegrees>
            </Position>
            <AltitudeMeters>147.399993896484375</AltitudeMeters>
            <DistanceMeters>NAN</DistanceMeters>
          </Trackpoint>
          <Trackpoint>
            <Time>2022-07-17T16:06:28.000Z</Time>
            <Position>
              <LatitudeDegrees>43.4852568246424198150634765625</LatitudeDegrees>
              <LongitudeDegrees>-5.46575280837714672088623046875</LongitudeDegrees>
            </Position>
            <AltitudeMeters>147.8000030517578125</AltitudeMeters>
            <DistanceMeters>NAN</DistanceMeters>
          </Trackpoint>
          <Trackpoint>
            <Time>2022-07-17T16:06:32.000Z</Time>
            <Position>
              <LatitudeDegrees>43.48531164228916168212890625</LatitudeDegrees>
              <LongitudeDegrees>-5.4658137448132038116455078125</LongitudeDegrees>
            </Position>
            <AltitudeMeters>148</AltitudeMeters>
            <DistanceMeters>NAN</DistanceMeters>
          </Trackpoint>
          <Trackpoint>
            <Time>2022-07-17T16:06:39.000Z</Time>
            <Position>
              <LatitudeDegrees>43.48539688624441623687744140625</LatitudeDegrees>
              <LongitudeDegrees>-5.4659233801066875457763671875</LongitudeDegrees>
            </Position>
            <AltitudeMeters>148.1999969482421875</AltitudeMeters>
            <DistanceMeters>NAN</DistanceMeters>
          </Trackpoint>
          <Trackpoint>
            <Time>2022-07-17T16:06:46.000Z</Time>
            <Position>
              <LatitudeDegrees>43.485482297837734222412109375</LatitudeDegrees>
              <LongitudeDegrees>-5.46605774201452732086181640625</LongitudeDegrees>
            </Position>
            <AltitudeMeters>148.600006103515625</AltitudeMeters>
            <DistanceMeters>NAN</DistanceMeters>
          </Trackpoint>
          <Trackpoint>
            <Time>2022-07-17T16:06:47.000Z</Time>
            <Position>
              <LatitudeDegrees>43.48548908717930316925048828125</LatitudeDegrees>
              <LongitudeDegrees>-5.4660766012966632843017578125</LongitudeDegrees>
            </Position>
            <AltitudeMeters>148.8000030517578125</AltitudeMeters>
            <DistanceMeters>NAN</DistanceMeters>
          </Trackpoint>
          <Trackpoint>
            <Time>2022-07-17T16:06:54.000Z</Time>
            <Position>
              <LatitudeDegrees>43.4855344332754611968994140625</LatitudeDegrees>
              <LongitudeDegrees>-5.46621389687061309814453125</LongitudeDegrees>
            </Position>
            <AltitudeMeters>149.1999969482421875</AltitudeMeters>
            <DistanceMeters>NAN</DistanceMeters>
          </Trackpoint>
          <Trackpoint>
            <Time>2022-07-17T16:07:00.000Z</Time>
            <Position>
              <LatitudeDegrees>43.48556251265108585357666015625</LatitudeDegrees>
              <LongitudeDegrees>-5.46634758822619915008544921875</LongitudeDegrees>
            </Position>
            <AltitudeMeters>149.399993896484375</AltitudeMeters>
            <DistanceMeters>NAN</DistanceMeters>
          </Trackpoint>
          <Trackpoint>
            <Time>2022-07-17T16:07:03.000Z</Time>
            <Position>
              <LatitudeDegrees>43.48558313213288784027099609375</LatitudeDegrees>
              <LongitudeDegrees>-5.46641145832836627960205078125</LongitudeDegrees>
            </Position>
            <AltitudeMeters>149.399993896484375</AltitudeMeters>
            <DistanceMeters>NAN</DistanceMeters>
          </Trackpoint>
          <Trackpoint>
            <Time>2022-07-17T16:07:08.000Z</Time>
            <Position>
              <LatitudeDegrees>43.4856155700981616973876953125</LatitudeDegrees>
              <LongitudeDegrees>-5.46654992736876010894775390625</LongitudeDegrees>
            </Position>
            <AltitudeMeters>149.600006103515625</AltitudeMeters>
            <DistanceMeters>NAN</DistanceMeters>
          </Trackpoint>
          <Trackpoint>
            <Time>2022-07-17T16:07:10.000Z</Time>
            <Position>
              <LatitudeDegrees>43.485630489885807037353515625</LatitudeDegrees>
              <LongitudeDegrees>-5.46659518964588642120361328125</LongitudeDegrees>
            </Position>
            <AltitudeMeters>149.8000030517578125</AltitudeMeters>
            <DistanceMeters>NAN</DistanceMeters>
          </Trackpoint>
          <Trackpoint>
            <Time>2022-07-17T16:07:11.000Z</Time>
            <Position>
              <LatitudeDegrees>43.48563660867512226104736328125</LatitudeDegrees>
              <LongitudeDegrees>-5.466620922088623046875</LongitudeDegrees>
            </Position>
            <AltitudeMeters>149.8000030517578125</AltitudeMeters>
            <DistanceMeters>NAN</DistanceMeters>
          </Trackpoint>
          <Trackpoint>
            <Time>2022-07-17T16:07:15.000Z</Time>
            <Position>
              <LatitudeDegrees>43.4856521151959896087646484375</LatitudeDegrees>
              <LongitudeDegrees>-5.46671907417476177215576171875</LongitudeDegrees>
            </Position>
            <AltitudeMeters>149.8000030517578125</AltitudeMeters>
            <DistanceMeters>NAN</DistanceMeters>
          </Trackpoint>
          <Trackpoint>
            <Time>2022-07-17T16:07:21.000Z</Time>
            <Position>
              <LatitudeDegrees>43.48568505607545375823974609375</LatitudeDegrees>
              <LongitudeDegrees>-5.46687279827892780303955078125</LongitudeDegrees>
            </Position>
            <AltitudeMeters>150.1999969482421875</AltitudeMeters>
            <DistanceMeters>NAN</DistanceMeters>
          </Trackpoint>
          <Trackpoint>
            <Time>2022-07-17T16:07:29.000Z</Time>
            <Position>
              <LatitudeDegrees>43.48571640439331531524658203125</LatitudeDegrees>
              <LongitudeDegrees>-5.467060469090938568115234375</LongitudeDegrees>
            </Position>
            <AltitudeMeters>150.600006103515625</AltitudeMeters>
            <DistanceMeters>NAN</DistanceMeters>
          </Trackpoint>
          <Trackpoint>
            <Time>2022-07-17T16:07:37.000Z</Time>
            <Position>
              <LatitudeDegrees>43.485737107694149017333984375</LatitudeDegrees>
              <LongitudeDegrees>-5.46724780462682247161865234375</LongitudeDegrees>
            </Position>
            <AltitudeMeters>150.8000030517578125</AltitudeMeters>
            <DistanceMeters>NAN</DistanceMeters>
          </Trackpoint>
          <Trackpoint>
            <Time>2022-07-17T16:07:38.000Z</Time>
            <Position>
              <LatitudeDegrees>43.4857382811605930328369140625</LatitudeDegrees>
              <LongitudeDegrees>-5.46726926229894161224365234375</LongitudeDegrees>
            </Position>
            <AltitudeMeters>150.8000030517578125</AltitudeMeters>
            <DistanceMeters>NAN</DistanceMeters>
          </Trackpoint>
          <Trackpoint>
            <Time>2022-07-17T16:07:45.000Z</Time>
            <Position>
              <LatitudeDegrees>43.485758565366268157958984375</LatitudeDegrees>
              <LongitudeDegrees>-5.4674130119383335113525390625</LongitudeDegrees>
            </Position>
            <AltitudeMeters>151.1999969482421875</AltitudeMeters>
            <DistanceMeters>NAN</DistanceMeters>
          </Trackpoint>
          <Trackpoint>
            <Time>2022-07-17T16:07:53.000Z</Time>
            <Position>
              <LatitudeDegrees>43.48578245379030704498291015625</LatitudeDegrees>
              <LongitudeDegrees>-5.46760420314967632293701171875</LongitudeDegrees>
            </Position>
            <AltitudeMeters>151.600006103515625</AltitudeMeters>
            <DistanceMeters>NAN</DistanceMeters>
          </Trackpoint>
          <Trackpoint>
            <Time>2022-07-17T16:07:59.000Z</Time>
            <Position>
              <LatitudeDegrees>43.485798127949237823486328125</LatitudeDegrees>
              <LongitudeDegrees>-5.46775482594966888427734375</LongitudeDegrees>
            </Position>
            <AltitudeMeters>151.8000030517578125</AltitudeMeters>
            <DistanceMeters>NAN</DistanceMeters>
          </Trackpoint>
          <Trackpoint>
            <Time>2022-07-17T16:08:02.000Z</Time>
            <Position>
              <LatitudeDegrees>43.48580257035791873931884765625</LatitudeDegrees>
              <LongitudeDegrees>-5.467823557555675506591796875</LongitudeDegrees>
            </Position>
            <AltitudeMeters>152</AltitudeMeters>
            <DistanceMeters>NAN</DistanceMeters>
          </Trackpoint>
          <Trackpoint>
            <Time>2022-07-17T16:08:06.000Z</Time>
            <Position>
              <LatitudeDegrees>43.4857989661395549774169921875</LatitudeDegrees>
              <LongitudeDegrees>-5.46792942099273204803466796875</LongitudeDegrees>
            </Position>
            <AltitudeMeters>152.1999969482421875</AltitudeMeters>
            <DistanceMeters>NAN</DistanceMeters>
          </Trackpoint>
          <Trackpoint>
            <Time>2022-07-17T16:08:10.000Z</Time>
            <Position>
              <LatitudeDegrees>43.4857765026390552520751953125</LatitudeDegrees>
              <LongitudeDegrees>-5.46802296303212642669677734375</LongitudeDegrees>
            </Position>
            <AltitudeMeters>152.600006103515625</AltitudeMeters>
            <DistanceMeters>NAN</DistanceMeters>
          </Trackpoint>
          <Trackpoint>
            <Time>2022-07-17T16:08:17.000Z</Time>
            <Position>
              <LatitudeDegrees>43.4857329167425632476806640625</LatitudeDegrees>
              <LongitudeDegrees>-5.46818557195365428924560546875</LongitudeDegrees>
            </Position>
            <AltitudeMeters>152.8000030517578125</AltitudeMeters>
            <DistanceMeters>NAN</DistanceMeters>
          </Trackpoint>
          <Trackpoint>
            <Time>2022-07-17T16:08:21.000Z</Time>
            <Position>
              <LatitudeDegrees>43.48572361283004283905029296875</LatitudeDegrees>
              <LongitudeDegrees>-5.4682066105306148529052734375</LongitudeDegrees>
            </Position>
            <AltitudeMeters>152.8000030517578125</AltitudeMeters>
            <DistanceMeters>NAN</DistanceMeters>
          </Trackpoint>
          <Trackpoint>
            <Time>2022-07-17T16:08:22.000Z</Time>
            <Position>
              <LatitudeDegrees>43.48572847433388233184814453125</LatitudeDegrees>
              <LongitudeDegrees>-5.46820233575999736785888671875</LongitudeDegrees>
            </Position>
            <AltitudeMeters>152.8000030517578125</AltitudeMeters>
            <DistanceMeters>NAN</DistanceMeters>
          </Trackpoint>
          <Trackpoint>
            <Time>2022-07-17T16:10:46.000Z</Time>
            <Position>
              <LatitudeDegrees>43.4856447391211986541748046875</LatitudeDegrees>
              <LongitudeDegrees>-5.46819311566650867462158203125</LongitudeDegrees>
            </Position>
            <AltitudeMeters>155</AltitudeMeters>
            <DistanceMeters>NAN</DistanceMeters>
          </Trackpoint>
          <Trackpoint>
            <Time>2022-07-17T16:10:48.000Z</Time>
            <Position>
              <LatitudeDegrees>43.48560676909983158111572265625</LatitudeDegrees>
              <LongitudeDegrees>-5.4682012461125850677490234375</LongitudeDegrees>
            </Position>
            <AltitudeMeters>155</AltitudeMeters>
            <DistanceMeters>NAN</DistanceMeters>
          </Trackpoint>
          <Trackpoint>
            <Time>2022-07-17T16:10:54.000Z</Time>
            <Position>
              <LatitudeDegrees>43.48550752736628055572509765625</LatitudeDegrees>
              <LongitudeDegrees>-5.4681779444217681884765625</LongitudeDegrees>
            </Position>
            <AltitudeMeters>155.399993896484375</AltitudeMeters>
            <DistanceMeters>NAN</DistanceMeters>
          </Trackpoint>
          <Trackpoint>
            <Time>2022-07-17T16:10:56.000Z</Time>
            <Position>
              <LatitudeDegrees>43.4854754246771335601806640625</LatitudeDegrees>
              <LongitudeDegrees>-5.468168221414089202880859375</LongitudeDegrees>
            </Position>
            <AltitudeMeters>155.600006103515625</AltitudeMeters>
            <DistanceMeters>NAN</DistanceMeters>
          </Trackpoint>
          <Trackpoint>
            <Time>2022-07-17T16:11:00.000Z</Time>
            <Position>
              <LatitudeDegrees>43.48542421124875545501708984375</LatitudeDegrees>
              <LongitudeDegrees>-5.46813226304948329925537109375</LongitudeDegrees>
            </Position>
            <AltitudeMeters>155.8000030517578125</AltitudeMeters>
            <DistanceMeters>NAN</DistanceMeters>
          </Trackpoint>
          <Trackpoint>
            <Time>2022-07-17T16:11:02.000Z</Time>
            <Position>
              <LatitudeDegrees>43.4854030050337314605712890625</LatitudeDegrees>
              <LongitudeDegrees>-5.46809948980808258056640625</LongitudeDegrees>
            </Position>
            <AltitudeMeters>155.8000030517578125</AltitudeMeters>
            <DistanceMeters>NAN</DistanceMeters>
          </Trackpoint>
          <Trackpoint>
            <Time>2022-07-17T16:11:04.000Z</Time>
            <Position>
              <LatitudeDegrees>43.48537467420101165771484375</LatitudeDegrees>
              <LongitudeDegrees>-5.468068979680538177490234375</LongitudeDegrees>
            </Position>
            <AltitudeMeters>156</AltitudeMeters>
            <DistanceMeters>NAN</DistanceMeters>
          </Trackpoint>
          <Trackpoint>
            <Time>2022-07-17T16:11:06.000Z</Time>
            <Position>
              <LatitudeDegrees>43.48535162396728992462158203125</LatitudeDegrees>
              <LongitudeDegrees>-5.4680386371910572052001953125</LongitudeDegrees>
            </Position>
            <AltitudeMeters>156.1999969482421875</AltitudeMeters>
            <DistanceMeters>NAN</DistanceMeters>
          </Trackpoint>
          <Trackpoint>
            <Time>2022-07-17T16:11:08.000Z</Time>
            <Position>
              <LatitudeDegrees>43.48532077856361865997314453125</LatitudeDegrees>
              <LongitudeDegrees>-5.4679994098842144012451171875</LongitudeDegrees>
            </Position>
            <AltitudeMeters>156.399993896484375</AltitudeMeters>
            <DistanceMeters>NAN</DistanceMeters>
          </Trackpoint>
          <Trackpoint>
            <Time>2022-07-17T16:11:09.000Z</Time>
            <Position>
              <LatitudeDegrees>43.48531457595527172088623046875</LatitudeDegrees>
              <LongitudeDegrees>-5.46797719784080982208251953125</LongitudeDegrees>
            </Position>
            <AltitudeMeters>156.399993896484375</AltitudeMeters>
            <DistanceMeters>NAN</DistanceMeters>
          </Trackpoint>
          <Trackpoint>
            <Time>2022-07-17T16:11:10.000Z</Time>
            <Position>
              <LatitudeDegrees>43.485313318669795989990234375</LatitudeDegrees>
              <LongitudeDegrees>-5.4679766111075878143310546875</LongitudeDegrees>
            </Position>
            <AltitudeMeters>156.600006103515625</AltitudeMeters>
            <DistanceMeters>NAN</DistanceMeters>
          </Trackpoint>
          <Trackpoint>
            <Time>2022-07-17T16:11:13.000Z</Time>
            <Position>
              <LatitudeDegrees>43.48527585156261920928955078125</LatitudeDegrees>
              <LongitudeDegrees>-5.46793797053396701812744140625</LongitudeDegrees>
            </Position>
            <AltitudeMeters>156.8000030517578125</AltitudeMeters>
            <DistanceMeters>NAN</DistanceMeters>
          </Trackpoint>
          <Trackpoint>
            <Time>2022-07-17T16:11:19.000Z</Time>
            <Position>
              <LatitudeDegrees>43.485197313129901885986328125</LatitudeDegrees>
              <LongitudeDegrees>-5.46787879429757595062255859375</LongitudeDegrees>
            </Position>
            <AltitudeMeters>157</AltitudeMeters>
            <DistanceMeters>NAN</DistanceMeters>
          </Trackpoint>
          <Trackpoint>
            <Time>2022-07-17T16:11:27.000Z</Time>
            <Position>
              <LatitudeDegrees>43.48506546579301357269287109375</LatitudeDegrees>
              <LongitudeDegrees>-5.46786035411059856414794921875</LongitudeDegrees>
            </Position>
            <AltitudeMeters>157.600006103515625</AltitudeMeters>
            <DistanceMeters>NAN</DistanceMeters>
          </Trackpoint>
          <Trackpoint>
            <Time>2022-07-17T16:11:34.000Z</Time>
            <Position>
              <LatitudeDegrees>43.4849533997476100921630859375</LatitudeDegrees>
              <LongitudeDegrees>-5.4679370485246181488037109375</LongitudeDegrees>
            </Position>
            <AltitudeMeters>158.1999969482421875</AltitudeMeters>
            <DistanceMeters>NAN</DistanceMeters>
          </Trackpoint>
          <Trackpoint>
            <Time>2022-07-17T16:11:38.000Z</Time>
            <Position>
              <LatitudeDegrees>43.48491006530821323394775390625</LatitudeDegrees>
              <LongitudeDegrees>-5.4680171795189380645751953125</LongitudeDegrees>
            </Position>
            <AltitudeMeters>158.600006103515625</AltitudeMeters>
            <DistanceMeters>NAN</DistanceMeters>
          </Trackpoint>
          <Trackpoint>
            <Time>2022-07-17T16:11:40.000Z</Time>
            <Position>
              <LatitudeDegrees>43.48489682190120220184326171875</LatitudeDegrees>
              <LongitudeDegrees>-5.468060933053493499755859375</LongitudeDegrees>
            </Position>
            <AltitudeMeters>158.8000030517578125</AltitudeMeters>
            <DistanceMeters>NAN</DistanceMeters>
          </Trackpoint>
          <Trackpoint>
            <Time>2022-07-17T16:11:41.000Z</Time>
            <Position>
              <LatitudeDegrees>43.48489011637866497039794921875</LatitudeDegrees>
              <LongitudeDegrees>-5.46808280982077121734619140625</LongitudeDegrees>
            </Position>
            <AltitudeMeters>159</AltitudeMeters>
            <DistanceMeters>NAN</DistanceMeters>
          </Trackpoint>
          <Trackpoint>
            <Time>2022-07-17T16:11:43.000Z</Time>
            <Position>
              <LatitudeDegrees>43.48487854935228824615478515625</LatitudeDegrees>
              <LongitudeDegrees>-5.468129999935626983642578125</LongitudeDegrees>
            </Position>
            <AltitudeMeters>159.1999969482421875</AltitudeMeters>
            <DistanceMeters>NAN</DistanceMeters>
          </Trackpoint>
          <Trackpoint>
            <Time>2022-07-17T16:11:48.000Z</Time>
            <Position>
              <LatitudeDegrees>43.4848645515739917755126953125</LatitudeDegrees>
              <LongitudeDegrees>-5.46824307180941104888916015625</LongitudeDegrees>
            </Position>
            <AltitudeMeters>159.8000030517578125</AltitudeMeters>
            <DistanceMeters>NAN</DistanceMeters>
          </Trackpoint>
          <Trackpoint>
            <Time>2022-07-17T16:11:54.000Z</Time>
            <Position>
              <LatitudeDegrees>43.48485860042273998260498046875</LatitudeDegrees>
              <LongitudeDegrees>-5.46838053502142429351806640625</LongitudeDegrees>
            </Position>
            <AltitudeMeters>160.1999969482421875</AltitudeMeters>
            <DistanceMeters>NAN</DistanceMeters>
          </Trackpoint>
          <Trackpoint>
            <Time>2022-07-17T16:11:55.000Z</Time>
            <Position>
              <LatitudeDegrees>43.4848611988127231597900390625</LatitudeDegrees>
              <LongitudeDegrees>-5.4684064351022243499755859375</LongitudeDegrees>
            </Position>
            <AltitudeMeters>160.399993896484375</AltitudeMeters>
            <DistanceMeters>NAN</DistanceMeters>
          </Trackpoint>
          <Trackpoint>
            <Time>2022-07-17T16:12:03.000Z</Time>
            <Position>
              <LatitudeDegrees>43.48488248884677886962890625</LatitudeDegrees>
              <LongitudeDegrees>-5.4685777612030506134033203125</LongitudeDegrees>
            </Position>
            <AltitudeMeters>161.1999969482421875</AltitudeMeters>
            <DistanceMeters>NAN</DistanceMeters>
          </Trackpoint>
          <Trackpoint>
            <Time>2022-07-17T16:12:04.000Z</Time>
            <Position>
              <LatitudeDegrees>43.48488324321806430816650390625</LatitudeDegrees>
              <LongitudeDegrees>-5.46859142370522022247314453125</LongitudeDegrees>
            </Position>
            <AltitudeMeters>161.1999969482421875</AltitudeMeters>
            <DistanceMeters>NAN</DistanceMeters>
          </Trackpoint>
          <Trackpoint>
            <Time>2022-07-17T16:12:05.000Z</Time>
            <Position>
              <LatitudeDegrees>43.48488525487482547760009765625</LatitudeDegrees>
              <LongitudeDegrees>-5.46861179172992706298828125</LongitudeDegrees>
            </Position>
            <AltitudeMeters>161.399993896484375</AltitudeMeters>
            <DistanceMeters>NAN</DistanceMeters>
          </Trackpoint>
          <Trackpoint>
            <Time>2022-07-17T16:12:10.000Z</Time>
            <Position>
              <LatitudeDegrees>43.48490101285278797149658203125</LatitudeDegrees>
              <LongitudeDegrees>-5.46871061436831951141357421875</LongitudeDegrees>
            </Position>
            <AltitudeMeters>161.8000030517578125</AltitudeMeters>
            <DistanceMeters>NAN</DistanceMeters>
          </Trackpoint>
          <Trackpoint>
            <Time>2022-07-17T16:12:12.000Z</Time>
            <Position>
              <LatitudeDegrees>43.484900258481502532958984375</LatitudeDegrees>
              <LongitudeDegrees>-5.46874263323843479156494140625</LongitudeDegrees>
            </Position>
            <AltitudeMeters>162</AltitudeMeters>
            <DistanceMeters>NAN</DistanceMeters>
          </Trackpoint>
          <Trackpoint>
            <Time>2022-07-17T16:12:16.000Z</Time>
            <Position>
              <LatitudeDegrees>43.484907634556293487548828125</LatitudeDegrees>
              <LongitudeDegrees>-5.4688345827162265777587890625</LongitudeDegrees>
            </Position>
            <AltitudeMeters>162.1999969482421875</AltitudeMeters>
            <DistanceMeters>NAN</DistanceMeters>
          </Trackpoint>
          <Trackpoint>
            <Time>2022-07-17T16:12:17.000Z</Time>
            <Position>
              <LatitudeDegrees>43.48490671254694461822509765625</LatitudeDegrees>
              <LongitudeDegrees>-5.4688493348658084869384765625</LongitudeDegrees>
            </Position>
            <AltitudeMeters>162.399993896484375</AltitudeMeters>
            <DistanceMeters>NAN</DistanceMeters>
          </Trackpoint>
          <Trackpoint>
            <Time>2022-07-17T16:12:19.000Z</Time>
            <Position>
              <LatitudeDegrees>43.484905622899532318115234375</LatitudeDegrees>
              <LongitudeDegrees>-5.46887825243175029754638671875</LongitudeDegrees>
            </Position>
            <AltitudeMeters>162.600006103515625</AltitudeMeters>
            <DistanceMeters>NAN</DistanceMeters>
          </Trackpoint>
          <Trackpoint>
            <Time>2022-07-17T16:12:24.000Z</Time>
            <Position>
              <LatitudeDegrees>43.48491744138300418853759765625</LatitudeDegrees>
              <LongitudeDegrees>-5.46894480474293231964111328125</LongitudeDegrees>
            </Position>
            <AltitudeMeters>163</AltitudeMeters>
            <DistanceMeters>NAN</DistanceMeters>
          </Trackpoint>
          <Trackpoint>
            <Time>2022-07-17T16:12:25.000Z</Time>
            <Position>
              <LatitudeDegrees>43.48492599092423915863037109375</LatitudeDegrees>
              <LongitudeDegrees>-5.46895788051187992095947265625</LongitudeDegrees>
            </Position>
            <AltitudeMeters>163.1999969482421875</AltitudeMeters>
            <DistanceMeters>NAN</DistanceMeters>
          </Trackpoint>
          <Trackpoint>
            <Time>2022-07-17T16:12:28.000Z</Time>
            <Position>
              <LatitudeDegrees>43.48496035672724246978759765625</LatitudeDegrees>
              <LongitudeDegrees>-5.46902879141271114349365234375</LongitudeDegrees>
            </Position>
            <AltitudeMeters>163.399993896484375</AltitudeMeters>
            <DistanceMeters>NAN</DistanceMeters>
          </Trackpoint>
          <Trackpoint>
            <Time>2022-07-17T16:12:30.000Z</Time>
            <Position>
              <LatitudeDegrees>43.4849772043526172637939453125</LatitudeDegrees>
              <LongitudeDegrees>-5.4690712876617908477783203125</LongitudeDegrees>
            </Position>
            <AltitudeMeters>163.600006103515625</AltitudeMeters>
            <DistanceMeters>NAN</DistanceMeters>
          </Trackpoint>
          <Trackpoint>
            <Time>2022-07-17T16:12:31.000Z</Time>
            <Position>
              <LatitudeDegrees>43.48498080857098102569580078125</LatitudeDegrees>
              <LongitudeDegrees>-5.4690957628190517425537109375</LongitudeDegrees>
            </Position>
            <AltitudeMeters>163.600006103515625</AltitudeMeters>
            <DistanceMeters>NAN</DistanceMeters>
          </Trackpoint>
          <Trackpoint>
            <Time>2022-07-17T16:12:36.000Z</Time>
            <Position>
              <LatitudeDegrees>43.485003523528575897216796875</LatitudeDegrees>
              <LongitudeDegrees>-5.46918804757297039031982421875</LongitudeDegrees>
            </Position>
            <AltitudeMeters>164.1999969482421875</AltitudeMeters>
            <DistanceMeters>NAN</DistanceMeters>
          </Trackpoint>
          <Trackpoint>
            <Time>2022-07-17T16:12:38.000Z</Time>
            <Position>
              <LatitudeDegrees>43.48500813357532024383544921875</LatitudeDegrees>
              <LongitudeDegrees>-5.4692265205085277557373046875</LongitudeDegrees>
            </Position>
            <AltitudeMeters>164.1999969482421875</AltitudeMeters>
            <DistanceMeters>NAN</DistanceMeters>
          </Trackpoint>
          <Trackpoint>
            <Time>2022-07-17T16:12:40.000Z</Time>
            <Position>
              <LatitudeDegrees>43.48501986823976039886474609375</LatitudeDegrees>
              <LongitudeDegrees>-5.46926356852054595947265625</LongitudeDegrees>
            </Position>
            <AltitudeMeters>164.399993896484375</AltitudeMeters>
            <DistanceMeters>NAN</DistanceMeters>
          </Trackpoint>
          <Trackpoint>
            <Time>2022-07-17T16:12:45.000Z</Time>
            <Position>
              <LatitudeDegrees>43.485049791634082794189453125</LatitudeDegrees>
              <LongitudeDegrees>-5.46936641447246074676513671875</LongitudeDegrees>
            </Position>
            <AltitudeMeters>164.8000030517578125</AltitudeMeters>
            <DistanceMeters>NAN</DistanceMeters>
          </Trackpoint>
          <Trackpoint>
            <Time>2022-07-17T16:12:50.000Z</Time>
            <Position>
              <LatitudeDegrees>43.485050462186336517333984375</LatitudeDegrees>
              <LongitudeDegrees>-5.4694749601185321807861328125</LongitudeDegrees>
            </Position>
            <AltitudeMeters>165</AltitudeMeters>
            <DistanceMeters>NAN</DistanceMeters>
          </Trackpoint>
          <Trackpoint>
            <Time>2022-07-17T16:12:52.000Z</Time>
            <Position>
              <LatitudeDegrees>43.4850368835031986236572265625</LatitudeDegrees>
              <LongitudeDegrees>-5.46950756572186946868896484375</LongitudeDegrees>
            </Position>
            <AltitudeMeters>165.1999969482421875</AltitudeMeters>
            <DistanceMeters>NAN</DistanceMeters>
          </Trackpoint>
          <Trackpoint>
            <Time>2022-07-17T16:12:55.000Z</Time>
            <Position>
              <LatitudeDegrees>43.485012240707874298095703125</LatitudeDegrees>
              <LongitudeDegrees>-5.4695654846727848052978515625</LongitudeDegrees>
            </Position>
            <AltitudeMeters>165.399993896484375</AltitudeMeters>
            <DistanceMeters>NAN</DistanceMeters>
          </Trackpoint>
          <Trackpoint>
            <Time>2022-07-17T16:12:59.000Z</Time>
            <Position>
              <LatitudeDegrees>43.48497929982841014862060546875</LatitudeDegrees>
              <LongitudeDegrees>-5.4696275107562541961669921875</LongitudeDegrees>
            </Position>
            <AltitudeMeters>165.8000030517578125</AltitudeMeters>
            <DistanceMeters>NAN</DistanceMeters>
          </Trackpoint>
          <Trackpoint>
            <Time>2022-07-17T16:13:06.000Z</Time>
            <Position>
              <LatitudeDegrees>43.48489045165479183197021484375</LatitudeDegrees>
              <LongitudeDegrees>-5.46968325041234493255615234375</LongitudeDegrees>
            </Position>
            <AltitudeMeters>166.1999969482421875</AltitudeMeters>
            <DistanceMeters>NAN</DistanceMeters>
          </Trackpoint>
          <Trackpoint>
            <Time>2022-07-17T16:13:09.000Z</Time>
            <Position>
              <LatitudeDegrees>43.48484636284410953521728515625</LatitudeDegrees>
              <LongitudeDegrees>-5.4696935601532459259033203125</LongitudeDegrees>
            </Position>
            <AltitudeMeters>166.399993896484375</AltitudeMeters>
            <DistanceMeters>NAN</DistanceMeters>
          </Trackpoint>
          <Trackpoint>
            <Time>2022-07-17T16:13:13.000Z</Time>
            <Position>
              <LatitudeDegrees>43.4847814030945301055908203125</LatitudeDegrees>
              <LongitudeDegrees>-5.469688363373279571533203125</LongitudeDegrees>
            </Position>
            <AltitudeMeters>166.8000030517578125</AltitudeMeters>
            <DistanceMeters>NAN</DistanceMeters>
          </Trackpoint>
          <Trackpoint>
            <Time>2022-07-17T16:13:18.000Z</Time>
            <Position>
              <LatitudeDegrees>43.4847088158130645751953125</LatitudeDegrees>
              <LongitudeDegrees>-5.46968224458396434783935546875</LongitudeDegrees>
            </Position>
            <AltitudeMeters>167.1999969482421875</AltitudeMeters>
            <DistanceMeters>NAN</DistanceMeters>
          </Trackpoint>
          <Trackpoint>
            <Time>2022-07-17T16:13:20.000Z</Time>
            <Position>
              <LatitudeDegrees>43.48468157462775707244873046875</LatitudeDegrees>
              <LongitudeDegrees>-5.4696442745625972747802734375</LongitudeDegrees>
            </Position>
            <AltitudeMeters>167.399993896484375</AltitudeMeters>
            <DistanceMeters>NAN</DistanceMeters>
          </Trackpoint>
          <Trackpoint>
            <Time>2022-07-17T16:13:22.000Z</Time>
            <Position>
              <LatitudeDegrees>43.4846590273082256317138671875</LatitudeDegrees>
              <LongitudeDegrees>-5.46963195316493511199951171875</LongitudeDegrees>
            </Position>
            <AltitudeMeters>167.600006103515625</AltitudeMeters>
            <DistanceMeters>NAN</DistanceMeters>
          </Trackpoint>
          <Trackpoint>
            <Time>2022-07-17T16:13:25.000Z</Time>
            <Position>
              <LatitudeDegrees>43.4846379049122333526611328125</LatitudeDegrees>
              <LongitudeDegrees>-5.46964955516159534454345703125</LongitudeDegrees>
            </Position>
            <AltitudeMeters>167.600006103515625</AltitudeMeters>
            <DistanceMeters>NAN</DistanceMeters>
          </Trackpoint>
          <Trackpoint>
            <Time>2022-07-17T16:13:29.000Z</Time>
            <Position>
              <LatitudeDegrees>43.484590463340282440185546875</LatitudeDegrees>
              <LongitudeDegrees>-5.46965206973254680633544921875</LongitudeDegrees>
            </Position>
            <AltitudeMeters>167.8000030517578125</AltitudeMeters>
            <DistanceMeters>NAN</DistanceMeters>
          </Trackpoint>
          <Trackpoint>
            <Time>2022-07-17T16:13:32.000Z</Time>
            <Position>
              <LatitudeDegrees>43.48454176448285579681396484375</LatitudeDegrees>
              <LongitudeDegrees>-5.469646453857421875</LongitudeDegrees>
            </Position>
            <AltitudeMeters>168</AltitudeMeters>
            <DistanceMeters>NAN</DistanceMeters>
          </Trackpoint>
          <Trackpoint>
            <Time>2022-07-17T16:13:36.000Z</Time>
            <Position>
              <LatitudeDegrees>43.48448309116065502166748046875</LatitudeDegrees>
              <LongitudeDegrees>-5.46961569227278232574462890625</LongitudeDegrees>
            </Position>
            <AltitudeMeters>168.399993896484375</AltitudeMeters>
            <DistanceMeters>NAN</DistanceMeters>
          </Trackpoint>
          <Trackpoint>
            <Time>2022-07-17T16:13:38.000Z</Time>
            <Position>
              <LatitudeDegrees>43.48446297459304332733154296875</LatitudeDegrees>
              <LongitudeDegrees>-5.46960663981735706329345703125</LongitudeDegrees>
            </Position>
            <AltitudeMeters>168.399993896484375</AltitudeMeters>
            <DistanceMeters>NAN</DistanceMeters>
          </Trackpoint>
          <Trackpoint>
            <Time>2022-07-17T16:13:40.000Z</Time>
            <Position>
              <LatitudeDegrees>43.48444118164479732513427734375</LatitudeDegrees>
              <LongitudeDegrees>-5.4696048796176910400390625</LongitudeDegrees>
            </Position>
            <AltitudeMeters>168.600006103515625</AltitudeMeters>
            <DistanceMeters>NAN</DistanceMeters>
          </Trackpoint>
          <Trackpoint>
            <Time>2022-07-17T16:13:42.000Z</Time>
            <Position>
              <LatitudeDegrees>43.48442307673394680023193359375</LatitudeDegrees>
              <LongitudeDegrees>-5.469603203237056732177734375</LongitudeDegrees>
            </Position>
            <AltitudeMeters>168.8000030517578125</AltitudeMeters>
            <DistanceMeters>NAN</DistanceMeters>
          </Trackpoint>
          <Trackpoint>
            <Time>2022-07-17T16:13:45.000Z</Time>
            <Position>
              <LatitudeDegrees>43.484379909932613372802734375</LatitudeDegrees>
              <LongitudeDegrees>-5.46959306113421916961669921875</LongitudeDegrees>
            </Position>
            <AltitudeMeters>169</AltitudeMeters>
            <DistanceMeters>NAN</DistanceMeters>
          </Trackpoint>
          <Trackpoint>
            <Time>2022-07-17T16:13:50.000Z</Time>
            <Position>
              <LatitudeDegrees>43.48429885692894458770751953125</LatitudeDegrees>
              <LongitudeDegrees>-5.46956623904407024383544921875</LongitudeDegrees>
            </Position>
            <AltitudeMeters>169.399993896484375</AltitudeMeters>
            <DistanceMeters>NAN</DistanceMeters>
          </Trackpoint>
          <Trackpoint>
            <Time>2022-07-17T16:13:53.000Z</Time>
            <Position>
              <LatitudeDegrees>43.48425979726016521453857421875</LatitudeDegrees>
              <LongitudeDegrees>-5.46957478858530521392822265625</LongitudeDegrees>
            </Position>
            <AltitudeMeters>169.600006103515625</AltitudeMeters>
            <DistanceMeters>NAN</DistanceMeters>
          </Trackpoint>
          <Trackpoint>
            <Time>2022-07-17T16:14:01.000Z</Time>
            <Position>
              <LatitudeDegrees>43.4841500781476497650146484375</LatitudeDegrees>
              <LongitudeDegrees>-5.4695802368223667144775390625</LongitudeDegrees>
            </Position>
            <AltitudeMeters>170</AltitudeMeters>
            <DistanceMeters>NAN</DistanceMeters>
          </Trackpoint>
          <Trackpoint>
            <Time>2022-07-17T16:14:07.000Z</Time>
            <Position>
              <LatitudeDegrees>43.48405368626117706298828125</LatitudeDegrees>
              <LongitudeDegrees>-5.46956037171185016632080078125</LongitudeDegrees>
            </Position>
            <AltitudeMeters>170.600006103515625</AltitudeMeters>
            <DistanceMeters>NAN</DistanceMeters>
          </Trackpoint>
          <Trackpoint>
            <Time>2022-07-17T16:14:09.000Z</Time>
            <Position>
              <LatitudeDegrees>43.48402862437069416046142578125</LatitudeDegrees>
              <LongitudeDegrees>-5.4695641435682773590087890625</LongitudeDegrees>
            </Position>
            <AltitudeMeters>170.8000030517578125</AltitudeMeters>
            <DistanceMeters>NAN</DistanceMeters>
          </Trackpoint>
          <Trackpoint>
            <Time>2022-07-17T16:14:19.000Z</Time>
            <Position>
              <LatitudeDegrees>43.48387666046619415283203125</LatitudeDegrees>
              <LongitudeDegrees>-5.46955634839832782745361328125</LongitudeDegrees>
            </Position>
            <AltitudeMeters>171.600006103515625</AltitudeMeters>
            <DistanceMeters>NAN</DistanceMeters>
          </Trackpoint>
          <Trackpoint>
            <Time>2022-07-17T16:14:20.000Z</Time>
            <Position>
              <LatitudeDegrees>43.4838639199733734130859375</LatitudeDegrees>
              <LongitudeDegrees>-5.46955634839832782745361328125</LongitudeDegrees>
            </Position>
            <AltitudeMeters>171.600006103515625</AltitudeMeters>
            <DistanceMeters>NAN</DistanceMeters>
          </Trackpoint>
          <Trackpoint>
            <Time>2022-07-17T16:14:30.000Z</Time>
            <Position>
              <LatitudeDegrees>43.48371212370693683624267578125</LatitudeDegrees>
              <LongitudeDegrees>-5.4695235751569271087646484375</LongitudeDegrees>
            </Position>
            <AltitudeMeters>172.1999969482421875</AltitudeMeters>
            <DistanceMeters>NAN</DistanceMeters>
          </Trackpoint>
          <Trackpoint>
            <Time>2022-07-17T16:14:34.000Z</Time>
            <Position>
              <LatitudeDegrees>43.4836582280695438385009765625</LatitudeDegrees>
              <LongitudeDegrees>-5.46953120268881320953369140625</LongitudeDegrees>
            </Position>
            <AltitudeMeters>172.600006103515625</AltitudeMeters>
            <DistanceMeters>NAN</DistanceMeters>
          </Trackpoint>
          <Trackpoint>
            <Time>2022-07-17T16:14:41.000Z</Time>
            <Position>
              <LatitudeDegrees>43.48355370573699474334716796875</LatitudeDegrees>
              <LongitudeDegrees>-5.46954863704741001129150390625</LongitudeDegrees>
            </Position>
            <AltitudeMeters>173.1999969482421875</AltitudeMeters>
            <DistanceMeters>NAN</DistanceMeters>
          </Trackpoint>
          <Trackpoint>
            <Time>2022-07-17T16:14:46.000Z</Time>
            <Position>
              <LatitudeDegrees>43.48348765634000301361083984375</LatitudeDegrees>
              <LongitudeDegrees>-5.46957076527178287506103515625</LongitudeDegrees>
            </Position>
            <AltitudeMeters>173.8000030517578125</AltitudeMeters>
            <DistanceMeters>NAN</DistanceMeters>
          </Trackpoint>
          <Trackpoint>
            <Time>2022-07-17T16:14:48.000Z</Time>
            <Position>
              <LatitudeDegrees>43.4834590740501880645751953125</LatitudeDegrees>
              <LongitudeDegrees>-5.4695861041545867919921875</LongitudeDegrees>
            </Position>
            <AltitudeMeters>174</AltitudeMeters>
            <DistanceMeters>NAN</DistanceMeters>
          </Trackpoint>
          <Trackpoint>
            <Time>2022-07-17T16:14:52.000Z</Time>
            <Position>
              <LatitudeDegrees>43.4834034182131290435791015625</LatitudeDegrees>
              <LongitudeDegrees>-5.4696107469499111175537109375</LongitudeDegrees>
            </Position>
            <AltitudeMeters>174.1999969482421875</AltitudeMeters>
            <DistanceMeters>NAN</DistanceMeters>
          </Trackpoint>
          <Trackpoint>
            <Time>2022-07-17T16:14:54.000Z</Time>
            <Position>
              <LatitudeDegrees>43.48337349481880664825439453125</LatitudeDegrees>
              <LongitudeDegrees>-5.4696208052337169647216796875</LongitudeDegrees>
            </Position>
            <AltitudeMeters>174.399993896484375</AltitudeMeters>
            <DistanceMeters>NAN</DistanceMeters>
          </Trackpoint>
          <Trackpoint>
            <Time>2022-07-17T16:15:00.000Z</Time>
            <Position>
              <LatitudeDegrees>43.4833071939647197723388671875</LatitudeDegrees>
              <LongitudeDegrees>-5.46965005807578563690185546875</LongitudeDegrees>
            </Position>
            <AltitudeMeters>174.8000030517578125</AltitudeMeters>
            <DistanceMeters>NAN</DistanceMeters>
          </Trackpoint>
          <Trackpoint>
            <Time>2022-07-17T16:15:02.000Z</Time>
            <Position>
              <LatitudeDegrees>43.48326067440211772918701171875</LatitudeDegrees>
              <LongitudeDegrees>-5.46967922709882259368896484375</LongitudeDegrees>
            </Position>
            <AltitudeMeters>175</AltitudeMeters>
            <DistanceMeters>NAN</DistanceMeters>
          </Trackpoint>
          <Trackpoint>
            <Time>2022-07-17T16:15:06.000Z</Time>
            <Position>
              <LatitudeDegrees>43.48320065997540950775146484375</LatitudeDegrees>
              <LongitudeDegrees>-5.46972532756626605987548828125</LongitudeDegrees>
            </Position>
            <AltitudeMeters>175.1999969482421875</AltitudeMeters>
            <DistanceMeters>NAN</DistanceMeters>
          </Trackpoint>
          <Trackpoint>
            <Time>2022-07-17T16:15:09.000Z</Time>
            <Position>
              <LatitudeDegrees>43.4831620194017887115478515625</LatitudeDegrees>
              <LongitudeDegrees>-5.469750054180622100830078125</LongitudeDegrees>
            </Position>
            <AltitudeMeters>175.399993896484375</AltitudeMeters>
            <DistanceMeters>NAN</DistanceMeters>
          </Trackpoint>
          <Trackpoint>
            <Time>2022-07-17T16:15:14.000Z</Time>
            <Position>
              <LatitudeDegrees>43.483099155128002166748046875</LatitudeDegrees>
              <LongitudeDegrees>-5.46980126760900020599365234375</LongitudeDegrees>
            </Position>
            <AltitudeMeters>175.8000030517578125</AltitudeMeters>
            <DistanceMeters>NAN</DistanceMeters>
          </Trackpoint>
          <Trackpoint>
            <Time>2022-07-17T16:15:18.000Z</Time>
            <Position>
              <LatitudeDegrees>43.4830493666231632232666015625</LatitudeDegrees>
              <LongitudeDegrees>-5.46984200365841388702392578125</LongitudeDegrees>
            </Position>
            <AltitudeMeters>176.1999969482421875</AltitudeMeters>
            <DistanceMeters>NAN</DistanceMeters>
          </Trackpoint>
          <Trackpoint>
            <Time>2022-07-17T16:15:23.000Z</Time>
            <Position>
              <LatitudeDegrees>43.4829994104802608489990234375</LatitudeDegrees>
              <LongitudeDegrees>-5.46991157345473766326904296875</LongitudeDegrees>
            </Position>
            <AltitudeMeters>176.600006103515625</AltitudeMeters>
            <DistanceMeters>NAN</DistanceMeters>
          </Trackpoint>
          <Trackpoint>
            <Time>2022-07-17T16:15:25.000Z</Time>
            <Position>
              <LatitudeDegrees>43.4829806350171566009521484375</LatitudeDegrees>
              <LongitudeDegrees>-5.46993521042168140411376953125</LongitudeDegrees>
            </Position>
            <AltitudeMeters>177</AltitudeMeters>
            <DistanceMeters>NAN</DistanceMeters>
          </Trackpoint>
          <Trackpoint>
            <Time>2022-07-17T16:15:28.000Z</Time>
            <Position>
              <LatitudeDegrees>43.4829531423747539520263671875</LatitudeDegrees>
              <LongitudeDegrees>-5.4699812270700931549072265625</LongitudeDegrees>
            </Position>
            <AltitudeMeters>177</AltitudeMeters>
            <DistanceMeters>NAN</DistanceMeters>
          </Trackpoint>
          <Trackpoint>
            <Time>2022-07-17T16:15:36.000Z</Time>
            <Position>
              <LatitudeDegrees>43.48288482986390590667724609375</LatitudeDegrees>
              <LongitudeDegrees>-5.47012279741466045379638671875</LongitudeDegrees>
            </Position>
            <AltitudeMeters>177.399993896484375</AltitudeMeters>
            <DistanceMeters>NAN</DistanceMeters>
          </Trackpoint>
          <Trackpoint>
            <Time>2022-07-17T16:15:41.000Z</Time>
            <Position>
              <LatitudeDegrees>43.48284409381449222564697265625</LatitudeDegrees>
              <LongitudeDegrees>-5.4702078737318515777587890625</LongitudeDegrees>
            </Position>
            <AltitudeMeters>177.8000030517578125</AltitudeMeters>
            <DistanceMeters>NAN</DistanceMeters>
          </Trackpoint>
          <Trackpoint>
            <Time>2022-07-17T16:15:42.000Z</Time>
            <Position>
              <LatitudeDegrees>43.48283453844487667083740234375</LatitudeDegrees>
              <LongitudeDegrees>-5.47022153623402118682861328125</LongitudeDegrees>
            </Position>
            <AltitudeMeters>178</AltitudeMeters>
            <DistanceMeters>NAN</DistanceMeters>
          </Trackpoint>
          <Trackpoint>
            <Time>2022-07-17T16:15:44.000Z</Time>
            <Position>
              <LatitudeDegrees>43.482825569808483123779296875</LatitudeDegrees>
              <LongitudeDegrees>-5.47025707550346851348876953125</LongitudeDegrees>
            </Position>
            <AltitudeMeters>178</AltitudeMeters>
            <DistanceMeters>NAN</DistanceMeters>
          </Trackpoint>
          <Trackpoint>
            <Time>2022-07-17T16:15:51.000Z</Time>
            <Position>
              <LatitudeDegrees>43.4828046150505542755126953125</LatitudeDegrees>
              <LongitudeDegrees>-5.47039403580129146575927734375</LongitudeDegrees>
            </Position>
            <AltitudeMeters>178.399993896484375</AltitudeMeters>
            <DistanceMeters>NAN</DistanceMeters>
          </Trackpoint>
          <Trackpoint>
            <Time>2022-07-17T16:15:55.000Z</Time>
            <Position>
              <LatitudeDegrees>43.48278642632067203521728515625</LatitudeDegrees>
              <LongitudeDegrees>-5.47047282569110393524169921875</LongitudeDegrees>
            </Position>
            <AltitudeMeters>179</AltitudeMeters>
            <DistanceMeters>NAN</DistanceMeters>
          </Trackpoint>
          <Trackpoint>
            <Time>2022-07-17T16:16:00.000Z</Time>
            <Position>
              <LatitudeDegrees>43.48276262171566486358642578125</LatitudeDegrees>
              <LongitudeDegrees>-5.47058162279427051544189453125</LongitudeDegrees>
            </Position>
            <AltitudeMeters>179.1999969482421875</AltitudeMeters>
            <DistanceMeters>NAN</DistanceMeters>
          </Trackpoint>
          <Trackpoint>
            <Time>2022-07-17T16:16:04.000Z</Time>
            <Position>
              <LatitudeDegrees>43.48274736665189266204833984375</LatitudeDegrees>
              <LongitudeDegrees>-5.47065337188541889190673828125</LongitudeDegrees>
            </Position>
            <AltitudeMeters>179.600006103515625</AltitudeMeters>
            <DistanceMeters>NAN</DistanceMeters>
          </Trackpoint>
          <Trackpoint>
            <Time>2022-07-17T16:16:06.000Z</Time>
            <Position>
              <LatitudeDegrees>43.482741415500640869140625</LatitudeDegrees>
              <LongitudeDegrees>-5.470695532858371734619140625</LongitudeDegrees>
            </Position>
            <AltitudeMeters>179.8000030517578125</AltitudeMeters>
            <DistanceMeters>NAN</DistanceMeters>
          </Trackpoint>
          <Trackpoint>
            <Time>2022-07-17T16:16:08.000Z</Time>
            <Position>
              <LatitudeDegrees>43.4827395714819431304931640625</LatitudeDegrees>
              <LongitudeDegrees>-5.4707433097064495086669921875</LongitudeDegrees>
            </Position>
            <AltitudeMeters>180</AltitudeMeters>
            <DistanceMeters>NAN</DistanceMeters>
          </Trackpoint>
          <Trackpoint>
            <Time>2022-07-17T16:16:12.000Z</Time>
            <Position>
              <LatitudeDegrees>43.48273672163486480712890625</LatitudeDegrees>
              <LongitudeDegrees>-5.4708210937678813934326171875</LongitudeDegrees>
            </Position>
            <AltitudeMeters>180.600006103515625</AltitudeMeters>
            <DistanceMeters>NAN</DistanceMeters>
          </Trackpoint>
          <Trackpoint>
            <Time>2022-07-17T16:16:16.000Z</Time>
            <Position>
              <LatitudeDegrees>43.48272792063653469085693359375</LatitudeDegrees>
              <LongitudeDegrees>-5.47089644707739353179931640625</LongitudeDegrees>
            </Position>
            <AltitudeMeters>180.8000030517578125</AltitudeMeters>
            <DistanceMeters>NAN</DistanceMeters>
          </Trackpoint>
          <Trackpoint>
            <Time>2022-07-17T16:16:20.000Z</Time>
            <Position>
              <LatitudeDegrees>43.482717610895633697509765625</LatitudeDegrees>
              <LongitudeDegrees>-5.47098688781261444091796875</LongitudeDegrees>
            </Position>
            <AltitudeMeters>181.1999969482421875</AltitudeMeters>
            <DistanceMeters>NAN</DistanceMeters>
          </Trackpoint>
          <Trackpoint>
            <Time>2022-07-17T16:16:25.000Z</Time>
            <Position>
              <LatitudeDegrees>43.48271048627793788909912109375</LatitudeDegrees>
              <LongitudeDegrees>-5.471090488135814666748046875</LongitudeDegrees>
            </Position>
            <AltitudeMeters>181.600006103515625</AltitudeMeters>
            <DistanceMeters>NAN</DistanceMeters>
          </Trackpoint>
          <Trackpoint>
            <Time>2022-07-17T16:16:33.000Z</Time>
            <Position>
              <LatitudeDegrees>43.4826906211674213409423828125</LatitudeDegrees>
              <LongitudeDegrees>-5.47124664299190044403076171875</LongitudeDegrees>
            </Position>
            <AltitudeMeters>182</AltitudeMeters>
            <DistanceMeters>NAN</DistanceMeters>
          </Trackpoint>
          <Trackpoint>
            <Time>2022-07-17T16:16:34.000Z</Time>
            <Position>
              <LatitudeDegrees>43.48268886096775531768798828125</LatitudeDegrees>
              <LongitudeDegrees>-5.4712673462927341461181640625</LongitudeDegrees>
            </Position>
            <AltitudeMeters>182.1999969482421875</AltitudeMeters>
            <DistanceMeters>NAN</DistanceMeters>
          </Trackpoint>
          <Trackpoint>
            <Time>2022-07-17T16:16:40.000Z</Time>
            <Position>
              <LatitudeDegrees>43.48269070498645305633544921875</LatitudeDegrees>
              <LongitudeDegrees>-5.47140288166701793670654296875</LongitudeDegrees>
            </Position>
            <AltitudeMeters>182.600006103515625</AltitudeMeters>
            <DistanceMeters>NAN</DistanceMeters>
          </Trackpoint>
          <Trackpoint>
            <Time>2022-07-17T16:16:48.000Z</Time>
            <Position>
              <LatitudeDegrees>43.48266203887760639190673828125</LatitudeDegrees>
              <LongitudeDegrees>-5.4715550132095813751220703125</LongitudeDegrees>
            </Position>
            <AltitudeMeters>183.1999969482421875</AltitudeMeters>
            <DistanceMeters>NAN</DistanceMeters>
          </Trackpoint>
          <Trackpoint>
            <Time>2022-07-17T16:16:50.000Z</Time>
            <Position>
              <LatitudeDegrees>43.48265332169830799102783203125</LatitudeDegrees>
              <LongitudeDegrees>-5.47159482724964618682861328125</LongitudeDegrees>
            </Position>
            <AltitudeMeters>183.399993896484375</AltitudeMeters>
            <DistanceMeters>NAN</DistanceMeters>
          </Trackpoint>
          <Trackpoint>
            <Time>2022-07-17T16:16:57.000Z</Time>
            <Position>
              <LatitudeDegrees>43.482621051371097564697265625</LatitudeDegrees>
              <LongitudeDegrees>-5.47172893770039081573486328125</LongitudeDegrees>
            </Position>
            <AltitudeMeters>184</AltitudeMeters>
            <DistanceMeters>NAN</DistanceMeters>
          </Trackpoint>
          <Trackpoint>
            <Time>2022-07-17T16:16:58.000Z</Time>
            <Position>
              <LatitudeDegrees>43.482614345848560333251953125</LatitudeDegrees>
              <LongitudeDegrees>-5.4717441089451313018798828125</LongitudeDegrees>
            </Position>
            <AltitudeMeters>184</AltitudeMeters>
            <DistanceMeters>NAN</DistanceMeters>
          </Trackpoint>
          <Trackpoint>
            <Time>2022-07-17T16:17:03.000Z</Time>
            <Position>
              <LatitudeDegrees>43.48259431309998035430908203125</LatitudeDegrees>
              <LongitudeDegrees>-5.4718391597270965576171875</LongitudeDegrees>
            </Position>
            <AltitudeMeters>184.1999969482421875</AltitudeMeters>
            <DistanceMeters>NAN</DistanceMeters>
          </Trackpoint>
          <Trackpoint>
            <Time>2022-07-17T16:17:07.000Z</Time>
            <Position>
              <LatitudeDegrees>43.4825658984482288360595703125</LatitudeDegrees>
              <LongitudeDegrees>-5.47190554440021514892578125</LongitudeDegrees>
            </Position>
            <AltitudeMeters>184.600006103515625</AltitudeMeters>
            <DistanceMeters>NAN</DistanceMeters>
          </Trackpoint>
          <Trackpoint>
            <Time>2022-07-17T16:17:11.000Z</Time>
            <Position>
              <LatitudeDegrees>43.48254117183387279510498046875</LatitudeDegrees>
              <LongitudeDegrees>-5.4719694145023822784423828125</LongitudeDegrees>
            </Position>
            <AltitudeMeters>184.8000030517578125</AltitudeMeters>
            <DistanceMeters>NAN</DistanceMeters>
          </Trackpoint>
          <Trackpoint>
            <Time>2022-07-17T16:17:14.000Z</Time>
            <Position>
              <LatitudeDegrees>43.48251812160015106201171875</LatitudeDegrees>
              <LongitudeDegrees>-5.4720109887421131134033203125</LongitudeDegrees>
            </Position>
            <AltitudeMeters>185</AltitudeMeters>
            <DistanceMeters>NAN</DistanceMeters>
          </Trackpoint>
          <Trackpoint>
            <Time>2022-07-17T16:17:18.000Z</Time>
            <Position>
              <LatitudeDegrees>43.48249155096709728240966796875</LatitudeDegrees>
              <LongitudeDegrees>-5.47207661904394626617431640625</LongitudeDegrees>
            </Position>
            <AltitudeMeters>185.1999969482421875</AltitudeMeters>
            <DistanceMeters>NAN</DistanceMeters>
          </Trackpoint>
          <Trackpoint>
            <Time>2022-07-17T16:17:24.000Z</Time>
            <Position>
              <LatitudeDegrees>43.4824584424495697021484375</LatitudeDegrees>
              <LongitudeDegrees>-5.47217787243425846099853515625</LongitudeDegrees>
            </Position>
            <AltitudeMeters>185.600006103515625</AltitudeMeters>
            <DistanceMeters>NAN</DistanceMeters>
          </Trackpoint>
          <Trackpoint>
            <Time>2022-07-17T16:17:25.000Z</Time>
            <Position>
              <LatitudeDegrees>43.48245081491768360137939453125</LatitudeDegrees>
              <LongitudeDegrees>-5.47219396568834781646728515625</LongitudeDegrees>
            </Position>
            <AltitudeMeters>185.600006103515625</AltitudeMeters>
            <DistanceMeters>NAN</DistanceMeters>
          </Trackpoint>
          <Trackpoint>
            <Time>2022-07-17T16:17:30.000Z</Time>
            <Position>
              <LatitudeDegrees>43.482427932322025299072265625</LatitudeDegrees>
              <LongitudeDegrees>-5.47227032482624053955078125</LongitudeDegrees>
            </Position>
            <AltitudeMeters>185.8000030517578125</AltitudeMeters>
            <DistanceMeters>NAN</DistanceMeters>
          </Trackpoint>
          <Trackpoint>
            <Time>2022-07-17T16:17:37.000Z</Time>
            <Position>
              <LatitudeDegrees>43.482387363910675048828125</LatitudeDegrees>
              <LongitudeDegrees>-5.4724103026092052459716796875</LongitudeDegrees>
            </Position>
            <AltitudeMeters>186.1999969482421875</AltitudeMeters>
            <DistanceMeters>NAN</DistanceMeters>
          </Trackpoint>
          <Trackpoint>
            <Time>2022-07-17T16:17:38.000Z</Time>
            <Position>
              <LatitudeDegrees>43.48238090984523296356201171875</LatitudeDegrees>
              <LongitudeDegrees>-5.47242413274943828582763671875</LongitudeDegrees>
            </Position>
            <AltitudeMeters>186.399993896484375</AltitudeMeters>
            <DistanceMeters>NAN</DistanceMeters>
          </Trackpoint>
          <Trackpoint>
            <Time>2022-07-17T16:17:43.000Z</Time>
            <Position>
              <LatitudeDegrees>43.4823566861450672149658203125</LatitudeDegrees>
              <LongitudeDegrees>-5.4725088737905025482177734375</LongitudeDegrees>
            </Position>
            <AltitudeMeters>186.8000030517578125</AltitudeMeters>
            <DistanceMeters>NAN</DistanceMeters>
          </Trackpoint>
          <Trackpoint>
            <Time>2022-07-17T16:17:51.000Z</Time>
            <Position>
              <LatitudeDegrees>43.482303880155086517333984375</LatitudeDegrees>
              <LongitudeDegrees>-5.47264407388865947723388671875</LongitudeDegrees>
            </Position>
            <AltitudeMeters>187.1999969482421875</AltitudeMeters>
            <DistanceMeters>NAN</DistanceMeters>
          </Trackpoint>
          <Trackpoint>
            <Time>2022-07-17T16:17:55.000Z</Time>
            <Position>
              <LatitudeDegrees>43.48228652961552143096923828125</LatitudeDegrees>
              <LongitudeDegrees>-5.47272806055843830108642578125</LongitudeDegrees>
            </Position>
            <AltitudeMeters>187.399993896484375</AltitudeMeters>
            <DistanceMeters>NAN</DistanceMeters>
          </Trackpoint>
          <Trackpoint>
            <Time>2022-07-17T16:17:58.000Z</Time>
            <Position>
              <LatitudeDegrees>43.48227881826460361480712890625</LatitudeDegrees>
              <LongitudeDegrees>-5.47278128564357757568359375</LongitudeDegrees>
            </Position>
            <AltitudeMeters>187.600006103515625</AltitudeMeters>
            <DistanceMeters>NAN</DistanceMeters>
          </Trackpoint>
          <Trackpoint>
            <Time>2022-07-17T16:18:05.000Z</Time>
            <Position>
              <LatitudeDegrees>43.48223975859582424163818359375</LatitudeDegrees>
              <LongitudeDegrees>-5.4729222692549228668212890625</LongitudeDegrees>
            </Position>
            <AltitudeMeters>188</AltitudeMeters>
            <DistanceMeters>NAN</DistanceMeters>
          </Trackpoint>
          <Trackpoint>
            <Time>2022-07-17T16:18:12.000Z</Time>
            <Position>
              <LatitudeDegrees>43.4822128526866436004638671875</LatitudeDegrees>
              <LongitudeDegrees>-5.47305847518146038055419921875</LongitudeDegrees>
            </Position>
            <AltitudeMeters>188.399993896484375</AltitudeMeters>
            <DistanceMeters>NAN</DistanceMeters>
          </Trackpoint>
          <Trackpoint>
            <Time>2022-07-17T16:18:13.000Z</Time>
            <Position>
              <LatitudeDegrees>43.4822044707834720611572265625</LatitudeDegrees>
              <LongitudeDegrees>-5.4730758257210254669189453125</LongitudeDegrees>
            </Position>
            <AltitudeMeters>188.399993896484375</AltitudeMeters>
            <DistanceMeters>NAN</DistanceMeters>
          </Trackpoint>
          <Trackpoint>
            <Time>2022-07-17T16:18:17.000Z</Time>
            <Position>
              <LatitudeDegrees>43.482189215719699859619140625</LatitudeDegrees>
              <LongitudeDegrees>-5.47314883209764957427978515625</LongitudeDegrees>
            </Position>
            <AltitudeMeters>188.600006103515625</AltitudeMeters>
            <DistanceMeters>NAN</DistanceMeters>
          </Trackpoint>
          <Trackpoint>
            <Time>2022-07-17T16:18:20.000Z</Time>
            <Position>
              <LatitudeDegrees>43.4821920655667781829833984375</LatitudeDegrees>
              <LongitudeDegrees>-5.4732226766645908355712890625</LongitudeDegrees>
            </Position>
            <AltitudeMeters>188.8000030517578125</AltitudeMeters>
            <DistanceMeters>NAN</DistanceMeters>
          </Trackpoint>
          <Trackpoint>
            <Time>2022-07-17T16:18:27.000Z</Time>
            <Position>
              <LatitudeDegrees>43.48218477331101894378662109375</LatitudeDegrees>
              <LongitudeDegrees>-5.4733584634959697723388671875</LongitudeDegrees>
            </Position>
            <AltitudeMeters>189.399993896484375</AltitudeMeters>
            <DistanceMeters>NAN</DistanceMeters>
          </Trackpoint>
          <Trackpoint>
            <Time>2022-07-17T16:18:28.000Z</Time>
            <Position>
              <LatitudeDegrees>43.4821846894919872283935546875</LatitudeDegrees>
              <LongitudeDegrees>-5.47338520176708698272705078125</LongitudeDegrees>
            </Position>
            <AltitudeMeters>189.399993896484375</AltitudeMeters>
            <DistanceMeters>NAN</DistanceMeters>
          </Trackpoint>
          <Trackpoint>
            <Time>2022-07-17T16:18:35.000Z</Time>
            <Position>
              <LatitudeDegrees>43.48219265230000019073486328125</LatitudeDegrees>
              <LongitudeDegrees>-5.47351797111332416534423828125</LongitudeDegrees>
            </Position>
            <AltitudeMeters>190</AltitudeMeters>
            <DistanceMeters>NAN</DistanceMeters>
          </Trackpoint>
          <Trackpoint>
            <Time>2022-07-17T16:18:42.000Z</Time>
            <Position>
              <LatitudeDegrees>43.48220690153539180755615234375</LatitudeDegrees>
              <LongitudeDegrees>-5.47367152757942676544189453125</LongitudeDegrees>
            </Position>
            <AltitudeMeters>190.399993896484375</AltitudeMeters>
            <DistanceMeters>NAN</DistanceMeters>
          </Trackpoint>
          <Trackpoint>
            <Time>2022-07-17T16:18:43.000Z</Time>
            <Position>
              <LatitudeDegrees>43.4822108410298824310302734375</LatitudeDegrees>
              <LongitudeDegrees>-5.473688542842864990234375</LongitudeDegrees>
            </Position>
            <AltitudeMeters>190.600006103515625</AltitudeMeters>
            <DistanceMeters>NAN</DistanceMeters>
          </Trackpoint>
          <Trackpoint>
            <Time>2022-07-17T16:18:50.000Z</Time>
            <Position>
              <LatitudeDegrees>43.48222886212170124053955078125</LatitudeDegrees>
              <LongitudeDegrees>-5.4738365672528743743896484375</LongitudeDegrees>
            </Position>
            <AltitudeMeters>190.8000030517578125</AltitudeMeters>
            <DistanceMeters>NAN</DistanceMeters>
          </Trackpoint>
          <Trackpoint>
            <Time>2022-07-17T16:19:00.000Z</Time>
            <Position>
              <LatitudeDegrees>43.48228099755942821502685546875</LatitudeDegrees>
              <LongitudeDegrees>-5.4740410856902599334716796875</LongitudeDegrees>
            </Position>
            <AltitudeMeters>191.600006103515625</AltitudeMeters>
            <DistanceMeters>NAN</DistanceMeters>
          </Trackpoint>
          <Trackpoint>
            <Time>2022-07-17T16:19:01.000Z</Time>
            <Position>
              <LatitudeDegrees>43.4822859428822994232177734375</LatitudeDegrees>
              <LongitudeDegrees>-5.47406631521880626678466796875</LongitudeDegrees>
            </Position>
            <AltitudeMeters>191.600006103515625</AltitudeMeters>
            <DistanceMeters>NAN</DistanceMeters>
          </Trackpoint>
          <Trackpoint>
            <Time>2022-07-17T16:19:10.000Z</Time>
            <Position>
              <LatitudeDegrees>43.482333384454250335693359375</LatitudeDegrees>
              <LongitudeDegrees>-5.47422456555068492889404296875</LongitudeDegrees>
            </Position>
            <AltitudeMeters>192</AltitudeMeters>
            <DistanceMeters>NAN</DistanceMeters>
          </Trackpoint>
          <Trackpoint>
            <Time>2022-07-17T16:19:17.000Z</Time>
            <Position>
              <LatitudeDegrees>43.48238811828196048736572265625</LatitudeDegrees>
              <LongitudeDegrees>-5.474350713193416595458984375</LongitudeDegrees>
            </Position>
            <AltitudeMeters>192.600006103515625</AltitudeMeters>
            <DistanceMeters>NAN</DistanceMeters>
          </Trackpoint>
          <Trackpoint>
            <Time>2022-07-17T16:19:19.000Z</Time>
            <Position>
              <LatitudeDegrees>43.48240303806960582733154296875</LatitudeDegrees>
              <LongitudeDegrees>-5.47438398934900760650634765625</LongitudeDegrees>
            </Position>
            <AltitudeMeters>192.8000030517578125</AltitudeMeters>
            <DistanceMeters>NAN</DistanceMeters>
          </Trackpoint>
          <Trackpoint>
            <Time>2022-07-17T16:19:26.000Z</Time>
            <Position>
              <LatitudeDegrees>43.48245986737310886383056640625</LatitudeDegrees>
              <LongitudeDegrees>-5.47449211589992046356201171875</LongitudeDegrees>
            </Position>
            <AltitudeMeters>193.1999969482421875</AltitudeMeters>
            <DistanceMeters>NAN</DistanceMeters>
          </Trackpoint>
          <Trackpoint>
            <Time>2022-07-17T16:19:34.000Z</Time>
            <Position>
              <LatitudeDegrees>43.48252885043621063232421875</LatitudeDegrees>
              <LongitudeDegrees>-5.47460895963013172149658203125</LongitudeDegrees>
            </Position>
            <AltitudeMeters>193.600006103515625</AltitudeMeters>
            <DistanceMeters>NAN</DistanceMeters>
          </Trackpoint>
          <Trackpoint>
            <Time>2022-07-17T16:19:35.000Z</Time>
            <Position>
              <LatitudeDegrees>43.48253865726292133331298828125</LatitudeDegrees>
              <LongitudeDegrees>-5.4746204428374767303466796875</LongitudeDegrees>
            </Position>
            <AltitudeMeters>193.8000030517578125</AltitudeMeters>
            <DistanceMeters>NAN</DistanceMeters>
          </Trackpoint>
          <Trackpoint>
            <Time>2022-07-17T16:19:45.000Z</Time>
            <Position>
              <LatitudeDegrees>43.48264477215707302093505859375</LatitudeDegrees>
              <LongitudeDegrees>-5.4747837223112583160400390625</LongitudeDegrees>
            </Position>
            <AltitudeMeters>194.399993896484375</AltitudeMeters>
            <DistanceMeters>NAN</DistanceMeters>
          </Trackpoint>
          <Trackpoint>
            <Time>2022-07-17T16:19:51.000Z</Time>
            <Position>
              <LatitudeDegrees>43.4827147610485553741455078125</LatitudeDegrees>
              <LongitudeDegrees>-5.474861003458499908447265625</LongitudeDegrees>
            </Position>
            <AltitudeMeters>194.8000030517578125</AltitudeMeters>
            <DistanceMeters>NAN</DistanceMeters>
          </Trackpoint>
          <Trackpoint>
            <Time>2022-07-17T16:19:53.000Z</Time>
            <Position>
              <LatitudeDegrees>43.4827293455600738525390625</LatitudeDegrees>
              <LongitudeDegrees>-5.47489084303379058837890625</LongitudeDegrees>
            </Position>
            <AltitudeMeters>194.8000030517578125</AltitudeMeters>
            <DistanceMeters>NAN</DistanceMeters>
          </Trackpoint>
          <Trackpoint>
            <Time>2022-07-17T16:20:02.000Z</Time>
            <Position>
              <LatitudeDegrees>43.4828243963420391082763671875</LatitudeDegrees>
              <LongitudeDegrees>-5.47502302564680576324462890625</LongitudeDegrees>
            </Position>
            <AltitudeMeters>195.399993896484375</AltitudeMeters>
            <DistanceMeters>NAN</DistanceMeters>
          </Trackpoint>
          <Trackpoint>
            <Time>2022-07-17T16:20:09.000Z</Time>
            <Position>
              <LatitudeDegrees>43.48288566805422306060791015625</LatitudeDegrees>
              <LongitudeDegrees>-5.47509645111858844757080078125</LongitudeDegrees>
            </Position>
            <AltitudeMeters>195.8000030517578125</AltitudeMeters>
            <DistanceMeters>NAN</DistanceMeters>
          </Trackpoint>
          <Trackpoint>
            <Time>2022-07-17T16:20:10.000Z</Time>
            <Position>
              <LatitudeDegrees>43.4828902781009674072265625</LatitudeDegrees>
              <LongitudeDegrees>-5.4751065932214260101318359375</LongitudeDegrees>
            </Position>
            <AltitudeMeters>195.8000030517578125</AltitudeMeters>
            <DistanceMeters>NAN</DistanceMeters>
          </Trackpoint>
          <Trackpoint>
            <Time>2022-07-17T16:20:18.000Z</Time>
            <Position>
              <LatitudeDegrees>43.482969067990779876708984375</LatitudeDegrees>
              <LongitudeDegrees>-5.4752306453883647918701171875</LongitudeDegrees>
            </Position>
            <AltitudeMeters>196.1999969482421875</AltitudeMeters>
            <DistanceMeters>NAN</DistanceMeters>
          </Trackpoint>
          <Trackpoint>
            <Time>2022-07-17T16:20:25.000Z</Time>
            <Position>
              <LatitudeDegrees>43.483027406036853790283203125</LatitudeDegrees>
              <LongitudeDegrees>-5.475331731140613555908203125</LongitudeDegrees>
            </Position>
            <AltitudeMeters>196.8000030517578125</AltitudeMeters>
            <DistanceMeters>NAN</DistanceMeters>
          </Trackpoint>
          <Trackpoint>
            <Time>2022-07-17T16:20:27.000Z</Time>
            <Position>
              <LatitudeDegrees>43.48305380903184413909912109375</LatitudeDegrees>
              <LongitudeDegrees>-5.4753610678017139434814453125</LongitudeDegrees>
            </Position>
            <AltitudeMeters>197</AltitudeMeters>
            <DistanceMeters>NAN</DistanceMeters>
          </Trackpoint>
          <Trackpoint>
            <Time>2022-07-17T16:20:34.000Z</Time>
            <Position>
              <LatitudeDegrees>43.48312027752399444580078125</LatitudeDegrees>
              <LongitudeDegrees>-5.47545553185045719146728515625</LongitudeDegrees>
            </Position>
            <AltitudeMeters>197.399993896484375</AltitudeMeters>
            <DistanceMeters>NAN</DistanceMeters>
          </Trackpoint>
          <Trackpoint>
            <Time>2022-07-17T16:20:37.000Z</Time>
            <Position>
              <LatitudeDegrees>43.4831531345844268798828125</LatitudeDegrees>
              <LongitudeDegrees>-5.4755018837749958038330078125</LongitudeDegrees>
            </Position>
            <AltitudeMeters>197.600006103515625</AltitudeMeters>
            <DistanceMeters>NAN</DistanceMeters>
          </Trackpoint>
          <Trackpoint>
            <Time>2022-07-17T16:20:41.000Z</Time>
            <Position>
              <LatitudeDegrees>43.4831878356635570526123046875</LatitudeDegrees>
              <LongitudeDegrees>-5.4755572043359279632568359375</LongitudeDegrees>
            </Position>
            <AltitudeMeters>197.8000030517578125</AltitudeMeters>
            <DistanceMeters>NAN</DistanceMeters>
          </Trackpoint>
          <Trackpoint>
            <Time>2022-07-17T16:20:42.000Z</Time>
            <Position>
              <LatitudeDegrees>43.48319278098642826080322265625</LatitudeDegrees>
              <LongitudeDegrees>-5.47556550242006778717041015625</LongitudeDegrees>
            </Position>
            <AltitudeMeters>198</AltitudeMeters>
            <DistanceMeters>NAN</DistanceMeters>
          </Trackpoint>
          <Trackpoint>
            <Time>2022-07-17T16:20:49.000Z</Time>
            <Position>
              <LatitudeDegrees>43.48326645791530609130859375</LatitudeDegrees>
              <LongitudeDegrees>-5.47569525428116321563720703125</LongitudeDegrees>
            </Position>
            <AltitudeMeters>198.600006103515625</AltitudeMeters>
            <DistanceMeters>NAN</DistanceMeters>
          </Trackpoint>
          <Trackpoint>
            <Time>2022-07-17T16:20:51.000Z</Time>
            <Position>
              <LatitudeDegrees>43.48327911458909511566162109375</LatitudeDegrees>
              <LongitudeDegrees>-5.4757338948547840118408203125</LongitudeDegrees>
            </Position>
            <AltitudeMeters>198.8000030517578125</AltitudeMeters>
            <DistanceMeters>NAN</DistanceMeters>
          </Trackpoint>
          <Trackpoint>
            <Time>2022-07-17T16:20:53.000Z</Time>
            <Position>
              <LatitudeDegrees>43.483291603624820709228515625</LatitudeDegrees>
              <LongitudeDegrees>-5.47576784156262874603271484375</LongitudeDegrees>
            </Position>
            <AltitudeMeters>199</AltitudeMeters>
            <DistanceMeters>NAN</DistanceMeters>
          </Trackpoint>
          <Trackpoint>
            <Time>2022-07-17T16:21:00.000Z</Time>
            <Position>
              <LatitudeDegrees>43.48333644680678844451904296875</LatitudeDegrees>
              <LongitudeDegrees>-5.47588854096829891204833984375</LongitudeDegrees>
            </Position>
            <AltitudeMeters>199.600006103515625</AltitudeMeters>
            <DistanceMeters>NAN</DistanceMeters>
          </Trackpoint>
          <Trackpoint>
            <Time>2022-07-17T16:21:04.000Z</Time>
            <Position>
              <LatitudeDegrees>43.483350612223148345947265625</LatitudeDegrees>
              <LongitudeDegrees>-5.4759052209556102752685546875</LongitudeDegrees>
            </Position>
            <AltitudeMeters>199.600006103515625</AltitudeMeters>
            <DistanceMeters>NAN</DistanceMeters>
          </Trackpoint>
          <Trackpoint>
            <Time>2022-07-17T16:21:29.000Z</Time>
            <Position>
              <LatitudeDegrees>43.4833246283233165740966796875</LatitudeDegrees>
              <LongitudeDegrees>-5.47595190815627574920654296875</LongitudeDegrees>
            </Position>
            <AltitudeMeters>200.399993896484375</AltitudeMeters>
            <DistanceMeters>NAN</DistanceMeters>
          </Trackpoint>
          <Trackpoint>
            <Time>2022-07-17T16:21:30.000Z</Time>
            <Position>
              <LatitudeDegrees>43.4833192639052867889404296875</LatitudeDegrees>
              <LongitudeDegrees>-5.4759716056287288665771484375</LongitudeDegrees>
            </Position>
            <AltitudeMeters>200.399993896484375</AltitudeMeters>
            <DistanceMeters>NAN</DistanceMeters>
          </Trackpoint>
          <Trackpoint>
            <Time>2022-07-17T16:21:31.000Z</Time>
            <Position>
              <LatitudeDegrees>43.48331163637340068817138671875</LatitudeDegrees>
              <LongitudeDegrees>-5.475998260080814361572265625</LongitudeDegrees>
            </Position>
            <AltitudeMeters>200.600006103515625</AltitudeMeters>
            <DistanceMeters>NAN</DistanceMeters>
          </Trackpoint>
          <Trackpoint>
            <Time>2022-07-17T16:21:38.000Z</Time>
            <Position>
              <LatitudeDegrees>43.48325799219310283660888671875</LatitudeDegrees>
              <LongitudeDegrees>-5.47612776048481464385986328125</LongitudeDegrees>
            </Position>
            <AltitudeMeters>201.1999969482421875</AltitudeMeters>
            <DistanceMeters>NAN</DistanceMeters>
          </Trackpoint>
          <Trackpoint>
            <Time>2022-07-17T16:21:40.000Z</Time>
            <Position>
              <LatitudeDegrees>43.48322899080812931060791015625</LatitudeDegrees>
              <LongitudeDegrees>-5.476149134337902069091796875</LongitudeDegrees>
            </Position>
            <AltitudeMeters>201.399993896484375</AltitudeMeters>
            <DistanceMeters>NAN</DistanceMeters>
          </Trackpoint>
          <Trackpoint>
            <Time>2022-07-17T16:21:46.000Z</Time>
            <Position>
              <LatitudeDegrees>43.48315472714602947235107421875</LatitudeDegrees>
              <LongitudeDegrees>-5.47621862031519412994384765625</LongitudeDegrees>
            </Position>
            <AltitudeMeters>202</AltitudeMeters>
            <DistanceMeters>NAN</DistanceMeters>
          </Trackpoint>
          <Trackpoint>
            <Time>2022-07-17T16:21:51.000Z</Time>
            <Position>
              <LatitudeDegrees>43.4830875881016254425048828125</LatitudeDegrees>
              <LongitudeDegrees>-5.47625432722270488739013671875</LongitudeDegrees>
            </Position>
            <AltitudeMeters>202.399993896484375</AltitudeMeters>
            <DistanceMeters>NAN</DistanceMeters>
          </Trackpoint>
          <Trackpoint>
            <Time>2022-07-17T16:21:52.000Z</Time>
            <Position>
              <LatitudeDegrees>43.4830691479146480560302734375</LatitudeDegrees>
              <LongitudeDegrees>-5.4762616194784641265869140625</LongitudeDegrees>
            </Position>
            <AltitudeMeters>202.600006103515625</AltitudeMeters>
            <DistanceMeters>NAN</DistanceMeters>
          </Trackpoint>
          <Trackpoint>
            <Time>2022-07-17T16:21:54.000Z</Time>
            <Position>
              <LatitudeDegrees>43.48303805105388164520263671875</LatitudeDegrees>
              <LongitudeDegrees>-5.476279556751251220703125</LongitudeDegrees>
            </Position>
            <AltitudeMeters>202.8000030517578125</AltitudeMeters>
            <DistanceMeters>NAN</DistanceMeters>
          </Trackpoint>
          <Trackpoint>
            <Time>2022-07-17T16:22:02.000Z</Time>
            <Position>
              <LatitudeDegrees>43.482958339154720306396484375</LatitudeDegrees>
              <LongitudeDegrees>-5.4763990826904773712158203125</LongitudeDegrees>
            </Position>
            <AltitudeMeters>203.399993896484375</AltitudeMeters>
            <DistanceMeters>NAN</DistanceMeters>
          </Trackpoint>
          <Trackpoint>
            <Time>2022-07-17T16:22:04.000Z</Time>
            <Position>
              <LatitudeDegrees>43.48294232971966266632080078125</LatitudeDegrees>
              <LongitudeDegrees>-5.47644115984439849853515625</LongitudeDegrees>
            </Position>
            <AltitudeMeters>203.600006103515625</AltitudeMeters>
            <DistanceMeters>NAN</DistanceMeters>
          </Trackpoint>
          <Trackpoint>
            <Time>2022-07-17T16:22:11.000Z</Time>
            <Position>
              <LatitudeDegrees>43.4829048626124858856201171875</LatitudeDegrees>
              <LongitudeDegrees>-5.47658105380833148956298828125</LongitudeDegrees>
            </Position>
            <AltitudeMeters>204.399993896484375</AltitudeMeters>
            <DistanceMeters>NAN</DistanceMeters>
          </Trackpoint>
          <Trackpoint>
            <Time>2022-07-17T16:22:13.000Z</Time>
            <Position>
              <LatitudeDegrees>43.48288835026323795318603515625</LatitudeDegrees>
              <LongitudeDegrees>-5.47662061639130115509033203125</LongitudeDegrees>
            </Position>
            <AltitudeMeters>204.600006103515625</AltitudeMeters>
            <DistanceMeters>NAN</DistanceMeters>
          </Trackpoint>
          <Trackpoint>
            <Time>2022-07-17T16:22:20.000Z</Time>
            <Position>
              <LatitudeDegrees>43.4828233905136585235595703125</LatitudeDegrees>
              <LongitudeDegrees>-5.4767206124961376190185546875</LongitudeDegrees>
            </Position>
            <AltitudeMeters>205.1999969482421875</AltitudeMeters>
            <DistanceMeters>NAN</DistanceMeters>
          </Trackpoint>
          <Trackpoint>
            <Time>2022-07-17T16:22:24.000Z</Time>
            <Position>
              <LatitudeDegrees>43.48280000500380992889404296875</LatitudeDegrees>
              <LongitudeDegrees>-5.476783812046051025390625</LongitudeDegrees>
            </Position>
            <AltitudeMeters>205.399993896484375</AltitudeMeters>
            <DistanceMeters>NAN</DistanceMeters>
          </Trackpoint>
          <Trackpoint>
            <Time>2022-07-17T16:22:25.000Z</Time>
            <Position>
              <LatitudeDegrees>43.4827761165797710418701171875</LatitudeDegrees>
              <LongitudeDegrees>-5.4767839796841144561767578125</LongitudeDegrees>
            </Position>
            <AltitudeMeters>205.600006103515625</AltitudeMeters>
            <DistanceMeters>NAN</DistanceMeters>
          </Trackpoint>
          <Trackpoint>
            <Time>2022-07-17T16:22:27.000Z</Time>
            <Position>
              <LatitudeDegrees>43.48274921067059040069580078125</LatitudeDegrees>
              <LongitudeDegrees>-5.4768051020801067352294921875</LongitudeDegrees>
            </Position>
            <AltitudeMeters>205.600006103515625</AltitudeMeters>
            <DistanceMeters>NAN</DistanceMeters>
          </Trackpoint>
          <Trackpoint>
            <Time>2022-07-17T16:22:28.000Z</Time>
            <Position>
              <LatitudeDegrees>43.4827293455600738525390625</LatitudeDegrees>
              <LongitudeDegrees>-5.47680116258561611175537109375</LongitudeDegrees>
            </Position>
            <AltitudeMeters>205.8000030517578125</AltitudeMeters>
            <DistanceMeters>NAN</DistanceMeters>
          </Trackpoint>
          <Trackpoint>
            <Time>2022-07-17T16:22:29.000Z</Time>
            <Position>
              <LatitudeDegrees>43.4827100671827793121337890625</LatitudeDegrees>
              <LongitudeDegrees>-5.47679009847342967987060546875</LongitudeDegrees>
            </Position>
            <AltitudeMeters>206</AltitudeMeters>
            <DistanceMeters>NAN</DistanceMeters>
          </Trackpoint>
          <Trackpoint>
            <Time>2022-07-17T16:22:32.000Z</Time>
            <Position>
              <LatitudeDegrees>43.4826956503093242645263671875</LatitudeDegrees>
              <LongitudeDegrees>-5.476823039352893829345703125</LongitudeDegrees>
            </Position>
            <AltitudeMeters>206.1999969482421875</AltitudeMeters>
            <DistanceMeters>NAN</DistanceMeters>
          </Trackpoint>
          <Trackpoint>
            <Time>2022-07-17T16:22:34.000Z</Time>
            <Position>
              <LatitudeDegrees>43.4826845861971378326416015625</LatitudeDegrees>
              <LongitudeDegrees>-5.47684491612017154693603515625</LongitudeDegrees>
            </Position>
            <AltitudeMeters>206.399993896484375</AltitudeMeters>
            <DistanceMeters>NAN</DistanceMeters>
          </Trackpoint>
          <Trackpoint>
            <Time>2022-07-17T16:22:37.000Z</Time>
            <Position>
              <LatitudeDegrees>43.4826515614986419677734375</LatitudeDegrees>
              <LongitudeDegrees>-5.47688263468444347381591796875</LongitudeDegrees>
            </Position>
            <AltitudeMeters>206.8000030517578125</AltitudeMeters>
            <DistanceMeters>NAN</DistanceMeters>
          </Trackpoint>
          <Trackpoint>
            <Time>2022-07-17T16:22:40.000Z</Time>
            <Position>
              <LatitudeDegrees>43.4826024435460567474365234375</LatitudeDegrees>
              <LongitudeDegrees>-5.476886741816997528076171875</LongitudeDegrees>
            </Position>
            <AltitudeMeters>206.8000030517578125</AltitudeMeters>
            <DistanceMeters>NAN</DistanceMeters>
          </Trackpoint>
          <Trackpoint>
            <Time>2022-07-17T16:22:42.000Z</Time>
            <Position>
              <LatitudeDegrees>43.4825850091874599456787109375</LatitudeDegrees>
              <LongitudeDegrees>-5.4768951237201690673828125</LongitudeDegrees>
            </Position>
            <AltitudeMeters>207</AltitudeMeters>
            <DistanceMeters>NAN</DistanceMeters>
          </Trackpoint>
          <Trackpoint>
            <Time>2022-07-17T16:22:47.000Z</Time>
            <Position>
              <LatitudeDegrees>43.4825306944549083709716796875</LatitudeDegrees>
              <LongitudeDegrees>-5.4769036732614040374755859375</LongitudeDegrees>
            </Position>
            <AltitudeMeters>207.399993896484375</AltitudeMeters>
            <DistanceMeters>NAN</DistanceMeters>
          </Trackpoint>
          <Trackpoint>
            <Time>2022-07-17T16:22:53.000Z</Time>
            <Position>
              <LatitudeDegrees>43.4824277646839618682861328125</LatitudeDegrees>
              <LongitudeDegrees>-5.47687358222901821136474609375</LongitudeDegrees>
            </Position>
            <AltitudeMeters>207.8000030517578125</AltitudeMeters>
            <DistanceMeters>NAN</DistanceMeters>
          </Trackpoint>
          <Trackpoint>
            <Time>2022-07-17T16:22:54.000Z</Time>
            <Position>
              <LatitudeDegrees>43.482415191829204559326171875</LatitudeDegrees>
              <LongitudeDegrees>-5.47687232494354248046875</LongitudeDegrees>
            </Position>
            <AltitudeMeters>207.8000030517578125</AltitudeMeters>
            <DistanceMeters>NAN</DistanceMeters>
          </Trackpoint>
          <Trackpoint>
            <Time>2022-07-17T16:22:56.000Z</Time>
            <Position>
              <LatitudeDegrees>43.48237973637878894805908203125</LatitudeDegrees>
              <LongitudeDegrees>-5.47685078345239162445068359375</LongitudeDegrees>
            </Position>
            <AltitudeMeters>207.8000030517578125</AltitudeMeters>
            <DistanceMeters>NAN</DistanceMeters>
          </Trackpoint>
          <Trackpoint>
            <Time>2022-07-17T16:23:00.000Z</Time>
            <Position>
              <LatitudeDegrees>43.4823251701891422271728515625</LatitudeDegrees>
              <LongitudeDegrees>-5.476831756532192230224609375</LongitudeDegrees>
            </Position>
            <AltitudeMeters>208.1999969482421875</AltitudeMeters>
            <DistanceMeters>NAN</DistanceMeters>
          </Trackpoint>
          <Trackpoint>
            <Time>2022-07-17T16:23:07.000Z</Time>
            <Position>
              <LatitudeDegrees>43.48221494816243648529052734375</LatitudeDegrees>
              <LongitudeDegrees>-5.4768631048500537872314453125</LongitudeDegrees>
            </Position>
            <AltitudeMeters>208.600006103515625</AltitudeMeters>
            <DistanceMeters>NAN</DistanceMeters>
          </Trackpoint>
          <Trackpoint>
            <Time>2022-07-17T16:23:09.000Z</Time>
            <Position>
              <LatitudeDegrees>43.48218125291168689727783203125</LatitudeDegrees>
              <LongitudeDegrees>-5.47686939127743244171142578125</LongitudeDegrees>
            </Position>
            <AltitudeMeters>208.8000030517578125</AltitudeMeters>
            <DistanceMeters>NAN</DistanceMeters>
          </Trackpoint>
          <Trackpoint>
            <Time>2022-07-17T16:23:12.000Z</Time>
            <Position>
              <LatitudeDegrees>43.482122831046581268310546875</LatitudeDegrees>
              <LongitudeDegrees>-5.4768822155892848968505859375</LongitudeDegrees>
            </Position>
            <AltitudeMeters>209.1999969482421875</AltitudeMeters>
            <DistanceMeters>NAN</DistanceMeters>
          </Trackpoint>
          <Trackpoint>
            <Time>2022-07-17T16:23:14.000Z</Time>
            <Position>
              <LatitudeDegrees>43.4820936620235443115234375</LatitudeDegrees>
              <LongitudeDegrees>-5.47690694220364093780517578125</LongitudeDegrees>
            </Position>
            <AltitudeMeters>209.600006103515625</AltitudeMeters>
            <DistanceMeters>NAN</DistanceMeters>
          </Trackpoint>
          <Trackpoint>
            <Time>2022-07-17T16:23:17.000Z</Time>
            <Position>
              <LatitudeDegrees>43.48206139169633388519287109375</LatitudeDegrees>
              <LongitudeDegrees>-5.47695270739495754241943359375</LongitudeDegrees>
            </Position>
            <AltitudeMeters>209.8000030517578125</AltitudeMeters>
            <DistanceMeters>NAN</DistanceMeters>
          </Trackpoint>
          <Trackpoint>
            <Time>2022-07-17T16:23:22.000Z</Time>
            <Position>
              <LatitudeDegrees>43.4820237569510936737060546875</LatitudeDegrees>
              <LongitudeDegrees>-5.4770238697528839111328125</LongitudeDegrees>
            </Position>
            <AltitudeMeters>210.600006103515625</AltitudeMeters>
            <DistanceMeters>NAN</DistanceMeters>
          </Trackpoint>
          <Trackpoint>
            <Time>2022-07-17T16:23:25.000Z</Time>
            <Position>
              <LatitudeDegrees>43.482004813849925994873046875</LatitudeDegrees>
              <LongitudeDegrees>-5.47710274346172809600830078125</LongitudeDegrees>
            </Position>
            <AltitudeMeters>210.8000030517578125</AltitudeMeters>
            <DistanceMeters>NAN</DistanceMeters>
          </Trackpoint>
          <Trackpoint>
            <Time>2022-07-17T16:23:26.000Z</Time>
            <Position>
              <LatitudeDegrees>43.48199886269867420196533203125</LatitudeDegrees>
              <LongitudeDegrees>-5.477117411792278289794921875</LongitudeDegrees>
            </Position>
            <AltitudeMeters>211</AltitudeMeters>
            <DistanceMeters>NAN</DistanceMeters>
          </Trackpoint>
          <Trackpoint>
            <Time>2022-07-17T16:23:30.000Z</Time>
            <Position>
              <LatitudeDegrees>43.4819649159908294677734375</LatitudeDegrees>
              <LongitudeDegrees>-5.4771718941628932952880859375</LongitudeDegrees>
            </Position>
            <AltitudeMeters>211.1999969482421875</AltitudeMeters>
            <DistanceMeters>NAN</DistanceMeters>
          </Trackpoint>
          <Trackpoint>
            <Time>2022-07-17T16:23:32.000Z</Time>
            <Position>
              <LatitudeDegrees>43.4819355793297290802001953125</LatitudeDegrees>
              <LongitudeDegrees>-5.47719142399728298187255859375</LongitudeDegrees>
            </Position>
            <AltitudeMeters>211.1999969482421875</AltitudeMeters>
            <DistanceMeters>NAN</DistanceMeters>
          </Trackpoint>
          <Trackpoint>
            <Time>2022-07-17T16:23:39.000Z</Time>
            <Position>
              <LatitudeDegrees>43.481863327324390411376953125</LatitudeDegrees>
              <LongitudeDegrees>-5.4772959463298320770263671875</LongitudeDegrees>
            </Position>
            <AltitudeMeters>212</AltitudeMeters>
            <DistanceMeters>NAN</DistanceMeters>
          </Trackpoint>
          <Trackpoint>
            <Time>2022-07-17T16:23:42.000Z</Time>
            <Position>
              <LatitudeDegrees>43.481834828853607177734375</LatitudeDegrees>
              <LongitudeDegrees>-5.4773512668907642364501953125</LongitudeDegrees>
            </Position>
            <AltitudeMeters>212.1999969482421875</AltitudeMeters>
            <DistanceMeters>NAN</DistanceMeters>
          </Trackpoint>
          <Trackpoint>
            <Time>2022-07-17T16:23:46.000Z</Time>
            <Position>
              <LatitudeDegrees>43.481809683144092559814453125</LatitudeDegrees>
              <LongitudeDegrees>-5.47742980532348155975341796875</LongitudeDegrees>
            </Position>
            <AltitudeMeters>212.399993896484375</AltitudeMeters>
            <DistanceMeters>NAN</DistanceMeters>
          </Trackpoint>
          <Trackpoint>
            <Time>2022-07-17T16:23:52.000Z</Time>
            <Position>
              <LatitudeDegrees>43.48176576197147369384765625</LatitudeDegrees>
              <LongitudeDegrees>-5.47753675840795040130615234375</LongitudeDegrees>
            </Position>
            <AltitudeMeters>213</AltitudeMeters>
            <DistanceMeters>NAN</DistanceMeters>
          </Trackpoint>
          <Trackpoint>
            <Time>2022-07-17T16:23:53.000Z</Time>
            <Position>
              <LatitudeDegrees>43.48175947554409503936767578125</LatitudeDegrees>
              <LongitudeDegrees>-5.47755570150911808013916015625</LongitudeDegrees>
            </Position>
            <AltitudeMeters>213</AltitudeMeters>
            <DistanceMeters>NAN</DistanceMeters>
          </Trackpoint>
          <Trackpoint>
            <Time>2022-07-17T16:23:59.000Z</Time>
            <Position>
              <LatitudeDegrees>43.48174522630870342254638671875</LatitudeDegrees>
              <LongitudeDegrees>-5.4776654206216335296630859375</LongitudeDegrees>
            </Position>
            <AltitudeMeters>213.399993896484375</AltitudeMeters>
            <DistanceMeters>NAN</DistanceMeters>
          </Trackpoint>
          <Trackpoint>
            <Time>2022-07-17T16:24:08.000Z</Time>
            <Position>
              <LatitudeDegrees>43.48175645805895328521728515625</LatitudeDegrees>
              <LongitudeDegrees>-5.4778421111404895782470703125</LongitudeDegrees>
            </Position>
            <AltitudeMeters>214</AltitudeMeters>
            <DistanceMeters>NAN</DistanceMeters>
          </Trackpoint>
          <Trackpoint>
            <Time>2022-07-17T16:24:12.000Z</Time>
            <Position>
              <LatitudeDegrees>43.481765426695346832275390625</LatitudeDegrees>
              <LongitudeDegrees>-5.477899946272373199462890625</LongitudeDegrees>
            </Position>
            <AltitudeMeters>214.399993896484375</AltitudeMeters>
            <DistanceMeters>NAN</DistanceMeters>
          </Trackpoint>
          <Trackpoint>
            <Time>2022-07-17T16:24:14.000Z</Time>
            <Position>
              <LatitudeDegrees>43.48177758045494556427001953125</LatitudeDegrees>
              <LongitudeDegrees>-5.47792484052479267120361328125</LongitudeDegrees>
            </Position>
            <AltitudeMeters>214.399993896484375</AltitudeMeters>
            <DistanceMeters>NAN</DistanceMeters>
          </Trackpoint>
          <Trackpoint>
            <Time>2022-07-17T16:24:18.000Z</Time>
            <Position>
              <LatitudeDegrees>43.481786213815212249755859375</LatitudeDegrees>
              <LongitudeDegrees>-5.4779913090169429779052734375</LongitudeDegrees>
            </Position>
            <AltitudeMeters>214.8000030517578125</AltitudeMeters>
            <DistanceMeters>NAN</DistanceMeters>
          </Trackpoint>
          <Trackpoint>
            <Time>2022-07-17T16:24:20.000Z</Time>
            <Position>
              <LatitudeDegrees>43.4817945957183837890625</LatitudeDegrees>
              <LongitudeDegrees>-5.4780268482863903045654296875</LongitudeDegrees>
            </Position>
            <AltitudeMeters>215</AltitudeMeters>
            <DistanceMeters>NAN</DistanceMeters>
          </Trackpoint>
          <Trackpoint>
            <Time>2022-07-17T16:24:26.000Z</Time>
            <Position>
              <LatitudeDegrees>43.48182032816112041473388671875</LatitudeDegrees>
              <LongitudeDegrees>-5.47811561264097690582275390625</LongitudeDegrees>
            </Position>
            <AltitudeMeters>215.1999969482421875</AltitudeMeters>
            <DistanceMeters>NAN</DistanceMeters>
          </Trackpoint>
          <Trackpoint>
            <Time>2022-07-17T16:24:27.000Z</Time>
            <Position>
              <LatitudeDegrees>43.48182133398950099945068359375</LatitudeDegrees>
              <LongitudeDegrees>-5.47812801785767078399658203125</LongitudeDegrees>
            </Position>
            <AltitudeMeters>215.399993896484375</AltitudeMeters>
            <DistanceMeters>NAN</DistanceMeters>
          </Trackpoint>
          <Trackpoint>
            <Time>2022-07-17T16:24:34.000Z</Time>
            <Position>
              <LatitudeDegrees>43.48184497095644474029541015625</LatitudeDegrees>
              <LongitudeDegrees>-5.47824771143496036529541015625</LongitudeDegrees>
            </Position>
            <AltitudeMeters>215.600006103515625</AltitudeMeters>
            <DistanceMeters>NAN</DistanceMeters>
          </Trackpoint>
          <Trackpoint>
            <Time>2022-07-17T16:24:38.000Z</Time>
            <Position>
              <LatitudeDegrees>43.48187380470335483551025390625</LatitudeDegrees>
              <LongitudeDegrees>-5.47834041528403759002685546875</LongitudeDegrees>
            </Position>
            <AltitudeMeters>215.8000030517578125</AltitudeMeters>
            <DistanceMeters>NAN</DistanceMeters>
          </Trackpoint>
          <Trackpoint>
            <Time>2022-07-17T16:24:39.000Z</Time>
            <Position>
              <LatitudeDegrees>43.4818785823881626129150390625</LatitudeDegrees>
              <LongitudeDegrees>-5.47836908139288425445556640625</LongitudeDegrees>
            </Position>
            <AltitudeMeters>215.8000030517578125</AltitudeMeters>
            <DistanceMeters>NAN</DistanceMeters>
          </Trackpoint>
          <Trackpoint>
            <Time>2022-07-17T16:24:43.000Z</Time>
            <Position>
              <LatitudeDegrees>43.48190079443156719207763671875</LatitudeDegrees>
              <LongitudeDegrees>-5.4784784652292728424072265625</LongitudeDegrees>
            </Position>
            <AltitudeMeters>215.8000030517578125</AltitudeMeters>
            <DistanceMeters>NAN</DistanceMeters>
          </Trackpoint>
          <Trackpoint>
            <Time>2022-07-17T16:24:47.000Z</Time>
            <Position>
              <LatitudeDegrees>43.48193298093974590301513671875</LatitudeDegrees>
              <LongitudeDegrees>-5.47855339944362640380859375</LongitudeDegrees>
            </Position>
            <AltitudeMeters>215.8000030517578125</AltitudeMeters>
            <DistanceMeters>NAN</DistanceMeters>
          </Trackpoint>
          <Trackpoint>
            <Time>2022-07-17T16:24:51.000Z</Time>
            <Position>
              <LatitudeDegrees>43.48194991238415241241455078125</LatitudeDegrees>
              <LongitudeDegrees>-5.47862372361123561859130859375</LongitudeDegrees>
            </Position>
            <AltitudeMeters>216.1999969482421875</AltitudeMeters>
            <DistanceMeters>NAN</DistanceMeters>
          </Trackpoint>
          <Trackpoint>
            <Time>2022-07-17T16:24:55.000Z</Time>
            <Position>
              <LatitudeDegrees>43.48197137005627155303955078125</LatitudeDegrees>
              <LongitudeDegrees>-5.47869396395981311798095703125</LongitudeDegrees>
            </Position>
            <AltitudeMeters>216.600006103515625</AltitudeMeters>
            <DistanceMeters>NAN</DistanceMeters>
          </Trackpoint>
          <Trackpoint>
            <Time>2022-07-17T16:24:59.000Z</Time>
            <Position>
              <LatitudeDegrees>43.48199165426194667816162109375</LatitudeDegrees>
              <LongitudeDegrees>-5.4787708260118961334228515625</LongitudeDegrees>
            </Position>
            <AltitudeMeters>216.8000030517578125</AltitudeMeters>
            <DistanceMeters>NAN</DistanceMeters>
          </Trackpoint>
          <Trackpoint>
            <Time>2022-07-17T16:25:04.000Z</Time>
            <Position>
              <LatitudeDegrees>43.482024930417537689208984375</LatitudeDegrees>
              <LongitudeDegrees>-5.47887635417282581329345703125</LongitudeDegrees>
            </Position>
            <AltitudeMeters>217.1999969482421875</AltitudeMeters>
            <DistanceMeters>NAN</DistanceMeters>
          </Trackpoint>
          <Trackpoint>
            <Time>2022-07-17T16:25:13.000Z</Time>
            <Position>
              <LatitudeDegrees>43.482075221836566925048828125</LatitudeDegrees>
              <LongitudeDegrees>-5.4790692217648029327392578125</LongitudeDegrees>
            </Position>
            <AltitudeMeters>217.399993896484375</AltitudeMeters>
            <DistanceMeters>NAN</DistanceMeters>
          </Trackpoint>
          <Trackpoint>
            <Time>2022-07-17T16:25:23.000Z</Time>
            <Position>
              <LatitudeDegrees>43.482130877673625946044921875</LatitudeDegrees>
              <LongitudeDegrees>-5.47926820814609527587890625</LongitudeDegrees>
            </Position>
            <AltitudeMeters>217.8000030517578125</AltitudeMeters>
            <DistanceMeters>NAN</DistanceMeters>
          </Trackpoint>
          <Trackpoint>
            <Time>2022-07-17T16:25:26.000Z</Time>
            <Position>
              <LatitudeDegrees>43.482148982584476470947265625</LatitudeDegrees>
              <LongitudeDegrees>-5.4793280549347400665283203125</LongitudeDegrees>
            </Position>
            <AltitudeMeters>218</AltitudeMeters>
            <DistanceMeters>NAN</DistanceMeters>
          </Trackpoint>
          <Trackpoint>
            <Time>2022-07-17T16:25:29.000Z</Time>
            <Position>
              <LatitudeDegrees>43.48216968588531017303466796875</LatitudeDegrees>
              <LongitudeDegrees>-5.47938899137079715728759765625</LongitudeDegrees>
            </Position>
            <AltitudeMeters>218.1999969482421875</AltitudeMeters>
            <DistanceMeters>NAN</DistanceMeters>
          </Trackpoint>
          <Trackpoint>
            <Time>2022-07-17T16:25:32.000Z</Time>
            <Position>
              <LatitudeDegrees>43.4821813367307186126708984375</LatitudeDegrees>
              <LongitudeDegrees>-5.479443557560443878173828125</LongitudeDegrees>
            </Position>
            <AltitudeMeters>218.399993896484375</AltitudeMeters>
            <DistanceMeters>NAN</DistanceMeters>
          </Trackpoint>
          <Trackpoint>
            <Time>2022-07-17T16:25:41.000Z</Time>
            <Position>
              <LatitudeDegrees>43.48226658068597316741943359375</LatitudeDegrees>
              <LongitudeDegrees>-5.4795976169407367706298828125</LongitudeDegrees>
            </Position>
            <AltitudeMeters>218.8000030517578125</AltitudeMeters>
            <DistanceMeters>NAN</DistanceMeters>
          </Trackpoint>
          <Trackpoint>
            <Time>2022-07-17T16:25:50.000Z</Time>
            <Position>
              <LatitudeDegrees>43.4823754616081714630126953125</LatitudeDegrees>
              <LongitudeDegrees>-5.47973449341952800750732421875</LongitudeDegrees>
            </Position>
            <AltitudeMeters>219.1999969482421875</AltitudeMeters>
            <DistanceMeters>NAN</DistanceMeters>
          </Trackpoint>
          <Trackpoint>
            <Time>2022-07-17T16:25:52.000Z</Time>
            <Position>
              <LatitudeDegrees>43.48240069113671779632568359375</LatitudeDegrees>
              <LongitudeDegrees>-5.47976265661418437957763671875</LongitudeDegrees>
            </Position>
            <AltitudeMeters>219.1999969482421875</AltitudeMeters>
            <DistanceMeters>NAN</DistanceMeters>
          </Trackpoint>
          <Trackpoint>
            <Time>2022-07-17T16:26:00.000Z</Time>
            <Position>
              <LatitudeDegrees>43.4825021959841251373291015625</LatitudeDegrees>
              <LongitudeDegrees>-5.479852594435214996337890625</LongitudeDegrees>
            </Position>
            <AltitudeMeters>219.399993896484375</AltitudeMeters>
            <DistanceMeters>NAN</DistanceMeters>
          </Trackpoint>
          <Trackpoint>
            <Time>2022-07-17T16:26:01.000Z</Time>
            <Position>
              <LatitudeDegrees>43.48251149989664554595947265625</LatitudeDegrees>
              <LongitudeDegrees>-5.47985988669097423553466796875</LongitudeDegrees>
            </Position>
            <AltitudeMeters>219.399993896484375</AltitudeMeters>
            <DistanceMeters>NAN</DistanceMeters>
          </Trackpoint>
          <Trackpoint>
            <Time>2022-07-17T16:26:05.000Z</Time>
            <Position>
              <LatitudeDegrees>43.48256832920014858245849609375</LatitudeDegrees>
              <LongitudeDegrees>-5.47990950755774974822998046875</LongitudeDegrees>
            </Position>
            <AltitudeMeters>219.600006103515625</AltitudeMeters>
            <DistanceMeters>NAN</DistanceMeters>
          </Trackpoint>
          <Trackpoint>
            <Time>2022-07-17T16:26:15.000Z</Time>
            <Position>
              <LatitudeDegrees>43.48268802277743816375732421875</LatitudeDegrees>
              <LongitudeDegrees>-5.480018891394138336181640625</LongitudeDegrees>
            </Position>
            <AltitudeMeters>219.8000030517578125</AltitudeMeters>
            <DistanceMeters>NAN</DistanceMeters>
          </Trackpoint>
          <Trackpoint>
            <Time>2022-07-17T16:26:21.000Z</Time>
            <Position>
              <LatitudeDegrees>43.482751809060573577880859375</LatitudeDegrees>
              <LongitudeDegrees>-5.48009240068495273590087890625</LongitudeDegrees>
            </Position>
            <AltitudeMeters>220.1999969482421875</AltitudeMeters>
            <DistanceMeters>NAN</DistanceMeters>
          </Trackpoint>
          <Trackpoint>
            <Time>2022-07-17T16:26:23.000Z</Time>
            <Position>
              <LatitudeDegrees>43.4827593527734279632568359375</LatitudeDegrees>
              <LongitudeDegrees>-5.4801270179450511932373046875</LongitudeDegrees>
            </Position>
            <AltitudeMeters>220.1999969482421875</AltitudeMeters>
            <DistanceMeters>NAN</DistanceMeters>
          </Trackpoint>
          <Trackpoint>
            <Time>2022-07-17T16:26:33.000Z</Time>
            <Position>
              <LatitudeDegrees>43.48280168138444423675537109375</LatitudeDegrees>
              <LongitudeDegrees>-5.4803167842328548431396484375</LongitudeDegrees>
            </Position>
            <AltitudeMeters>220.600006103515625</AltitudeMeters>
            <DistanceMeters>NAN</DistanceMeters>
          </Trackpoint>
          <Trackpoint>
            <Time>2022-07-17T16:26:40.000Z</Time>
            <Position>
              <LatitudeDegrees>43.482816182076930999755859375</LatitudeDegrees>
              <LongitudeDegrees>-5.48045642673969268798828125</LongitudeDegrees>
            </Position>
            <AltitudeMeters>221.1999969482421875</AltitudeMeters>
            <DistanceMeters>NAN</DistanceMeters>
          </Trackpoint>
          <Trackpoint>
            <Time>2022-07-17T16:26:44.000Z</Time>
            <Position>
              <LatitudeDegrees>43.48282397724688053131103515625</LatitudeDegrees>
              <LongitudeDegrees>-5.48053496517241001129150390625</LongitudeDegrees>
            </Position>
            <AltitudeMeters>221.1999969482421875</AltitudeMeters>
            <DistanceMeters>NAN</DistanceMeters>
          </Trackpoint>
          <Trackpoint>
            <Time>2022-07-17T16:26:49.000Z</Time>
            <Position>
              <LatitudeDegrees>43.482837975025177001953125</LatitudeDegrees>
              <LongitudeDegrees>-5.48062163405120372772216796875</LongitudeDegrees>
            </Position>
            <AltitudeMeters>221.600006103515625</AltitudeMeters>
            <DistanceMeters>NAN</DistanceMeters>
          </Trackpoint>
          <Trackpoint>
            <Time>2022-07-17T16:26:56.000Z</Time>
            <Position>
              <LatitudeDegrees>43.482857756316661834716796875</LatitudeDegrees>
              <LongitudeDegrees>-5.48076697625219821929931640625</LongitudeDegrees>
            </Position>
            <AltitudeMeters>222.1999969482421875</AltitudeMeters>
            <DistanceMeters>NAN</DistanceMeters>
          </Trackpoint>
          <Trackpoint>
            <Time>2022-07-17T16:26:57.000Z</Time>
            <Position>
              <LatitudeDegrees>43.48286236636340618133544921875</LatitudeDegrees>
              <LongitudeDegrees>-5.48079329542815685272216796875</LongitudeDegrees>
            </Position>
            <AltitudeMeters>222.1999969482421875</AltitudeMeters>
            <DistanceMeters>NAN</DistanceMeters>
          </Trackpoint>
          <Trackpoint>
            <Time>2022-07-17T16:26:59.000Z</Time>
            <Position>
              <LatitudeDegrees>43.48286739550530910491943359375</LatitudeDegrees>
              <LongitudeDegrees>-5.4808300919830799102783203125</LongitudeDegrees>
            </Position>
            <AltitudeMeters>222.1999969482421875</AltitudeMeters>
            <DistanceMeters>NAN</DistanceMeters>
          </Trackpoint>
          <Trackpoint>
            <Time>2022-07-17T16:27:03.000Z</Time>
            <Position>
              <LatitudeDegrees>43.48287544213235378265380859375</LatitudeDegrees>
              <LongitudeDegrees>-5.48090091906487941741943359375</LongitudeDegrees>
            </Position>
            <AltitudeMeters>222.399993896484375</AltitudeMeters>
            <DistanceMeters>NAN</DistanceMeters>
          </Trackpoint>
          <Trackpoint>
            <Time>2022-07-17T16:27:10.000Z</Time>
            <Position>
              <LatitudeDegrees>43.482889942824840545654296875</LatitudeDegrees>
              <LongitudeDegrees>-5.481032766401767730712890625</LongitudeDegrees>
            </Position>
            <AltitudeMeters>222.8000030517578125</AltitudeMeters>
            <DistanceMeters>NAN</DistanceMeters>
          </Trackpoint>
          <Trackpoint>
            <Time>2022-07-17T16:27:12.000Z</Time>
            <Position>
              <LatitudeDegrees>43.48289539106190204620361328125</LatitudeDegrees>
              <LongitudeDegrees>-5.481072999536991119384765625</LongitudeDegrees>
            </Position>
            <AltitudeMeters>222.8000030517578125</AltitudeMeters>
            <DistanceMeters>NAN</DistanceMeters>
          </Trackpoint>
          <Trackpoint>
            <Time>2022-07-17T16:27:20.000Z</Time>
            <Position>
              <LatitudeDegrees>43.48292456008493900299072265625</LatitudeDegrees>
              <LongitudeDegrees>-5.4812280647456645965576171875</LongitudeDegrees>
            </Position>
            <AltitudeMeters>223.399993896484375</AltitudeMeters>
            <DistanceMeters>NAN</DistanceMeters>
          </Trackpoint>
          <Trackpoint>
            <Time>2022-07-17T16:27:21.000Z</Time>
            <Position>
              <LatitudeDegrees>43.4829283319413661956787109375</LatitudeDegrees>
              <LongitudeDegrees>-5.48124658875167369842529296875</LongitudeDegrees>
            </Position>
            <AltitudeMeters>223.399993896484375</AltitudeMeters>
            <DistanceMeters>NAN</DistanceMeters>
          </Trackpoint>
          <Trackpoint>
            <Time>2022-07-17T16:27:29.000Z</Time>
            <Position>
              <LatitudeDegrees>43.48296345211565494537353515625</LatitudeDegrees>
              <LongitudeDegrees>-5.481384806334972381591796875</LongitudeDegrees>
            </Position>
            <AltitudeMeters>223.8000030517578125</AltitudeMeters>
            <DistanceMeters>NAN</DistanceMeters>
          </Trackpoint>
          <Trackpoint>
            <Time>2022-07-17T16:27:37.000Z</Time>
            <Position>
              <LatitudeDegrees>43.4830082952976226806640625</LatitudeDegrees>
              <LongitudeDegrees>-5.481520257890224456787109375</LongitudeDegrees>
            </Position>
            <AltitudeMeters>224.1999969482421875</AltitudeMeters>
            <DistanceMeters>NAN</DistanceMeters>
          </Trackpoint>
          <Trackpoint>
            <Time>2022-07-17T16:27:39.000Z</Time>
            <Position>
              <LatitudeDegrees>43.483018688857555389404296875</LatitudeDegrees>
              <LongitudeDegrees>-5.48155185766518115997314453125</LongitudeDegrees>
            </Position>
            <AltitudeMeters>224.399993896484375</AltitudeMeters>
            <DistanceMeters>NAN</DistanceMeters>
          </Trackpoint>
          <Trackpoint>
            <Time>2022-07-17T16:27:46.000Z</Time>
            <Position>
              <LatitudeDegrees>43.48305230028927326202392578125</LatitudeDegrees>
              <LongitudeDegrees>-5.4816739819943904876708984375</LongitudeDegrees>
            </Position>
            <AltitudeMeters>225</AltitudeMeters>
            <DistanceMeters>NAN</DistanceMeters>
          </Trackpoint>
          <Trackpoint>
            <Time>2022-07-17T16:27:52.000Z</Time>
            <Position>
              <LatitudeDegrees>43.4830808825790882110595703125</LatitudeDegrees>
              <LongitudeDegrees>-5.4817722178995609283447265625</LongitudeDegrees>
            </Position>
            <AltitudeMeters>225.399993896484375</AltitudeMeters>
            <DistanceMeters>NAN</DistanceMeters>
          </Trackpoint>
          <Trackpoint>
            <Time>2022-07-17T16:27:53.000Z</Time>
            <Position>
              <LatitudeDegrees>43.48309345543384552001953125</LatitudeDegrees>
              <LongitudeDegrees>-5.48179686069488525390625</LongitudeDegrees>
            </Position>
            <AltitudeMeters>225.600006103515625</AltitudeMeters>
            <DistanceMeters>NAN</DistanceMeters>
          </Trackpoint>
          <Trackpoint>
            <Time>2022-07-17T16:28:03.000Z</Time>
            <Position>
              <LatitudeDegrees>43.483164198696613311767578125</LatitudeDegrees>
              <LongitudeDegrees>-5.4819961823523044586181640625</LongitudeDegrees>
            </Position>
            <AltitudeMeters>226.399993896484375</AltitudeMeters>
            <DistanceMeters>NAN</DistanceMeters>
          </Trackpoint>
          <Trackpoint>
            <Time>2022-07-17T16:28:04.000Z</Time>
            <Position>
              <LatitudeDegrees>43.4831704013049602508544921875</LatitudeDegrees>
              <LongitudeDegrees>-5.48201068304479122161865234375</LongitudeDegrees>
            </Position>
            <AltitudeMeters>226.399993896484375</AltitudeMeters>
            <DistanceMeters>NAN</DistanceMeters>
          </Trackpoint>
          <Trackpoint>
            <Time>2022-07-17T16:28:10.000Z</Time>
            <Position>
              <LatitudeDegrees>43.4831714071333408355712890625</LatitudeDegrees>
              <LongitudeDegrees>-5.48213339410722255706787109375</LongitudeDegrees>
            </Position>
            <AltitudeMeters>227</AltitudeMeters>
            <DistanceMeters>NAN</DistanceMeters>
          </Trackpoint>
          <Trackpoint>
            <Time>2022-07-17T16:28:17.000Z</Time>
            <Position>
              <LatitudeDegrees>43.48312564194202423095703125</LatitudeDegrees>
              <LongitudeDegrees>-5.482265241444110870361328125</LongitudeDegrees>
            </Position>
            <AltitudeMeters>227.399993896484375</AltitudeMeters>
            <DistanceMeters>NAN</DistanceMeters>
          </Trackpoint>
          <Trackpoint>
            <Time>2022-07-17T16:28:19.000Z</Time>
            <Position>
              <LatitudeDegrees>43.48310954868793487548828125</LatitudeDegrees>
              <LongitudeDegrees>-5.48229751177132129669189453125</LongitudeDegrees>
            </Position>
            <AltitudeMeters>227.600006103515625</AltitudeMeters>
            <DistanceMeters>NAN</DistanceMeters>
          </Trackpoint>
          <Trackpoint>
            <Time>2022-07-17T16:28:22.000Z</Time>
            <Position>
              <LatitudeDegrees>43.48307409323751926422119140625</LatitudeDegrees>
              <LongitudeDegrees>-5.48234109766781330108642578125</LongitudeDegrees>
            </Position>
            <AltitudeMeters>227.600006103515625</AltitudeMeters>
            <DistanceMeters>NAN</DistanceMeters>
          </Trackpoint>
          <Trackpoint>
            <Time>2022-07-17T16:28:24.000Z</Time>
            <Position>
              <LatitudeDegrees>43.48304911516606807708740234375</LatitudeDegrees>
              <LongitudeDegrees>-5.482366494834423065185546875</LongitudeDegrees>
            </Position>
            <AltitudeMeters>227.600006103515625</AltitudeMeters>
            <DistanceMeters>NAN</DistanceMeters>
          </Trackpoint>
          <Trackpoint>
            <Time>2022-07-17T16:28:32.000Z</Time>
            <Position>
              <LatitudeDegrees>43.482970409095287322998046875</LatitudeDegrees>
              <LongitudeDegrees>-5.48246900551021099090576171875</LongitudeDegrees>
            </Position>
            <AltitudeMeters>228</AltitudeMeters>
            <DistanceMeters>NAN</DistanceMeters>
          </Trackpoint>
          <Trackpoint>
            <Time>2022-07-17T16:28:39.000Z</Time>
            <Position>
              <LatitudeDegrees>43.482892625033855438232421875</LatitudeDegrees>
              <LongitudeDegrees>-5.48257411457598209381103515625</LongitudeDegrees>
            </Position>
            <AltitudeMeters>228.600006103515625</AltitudeMeters>
            <DistanceMeters>NAN</DistanceMeters>
          </Trackpoint>
          <Trackpoint>
            <Time>2022-07-17T16:28:40.000Z</Time>
            <Position>
              <LatitudeDegrees>43.482883907854557037353515625</LatitudeDegrees>
              <LongitudeDegrees>-5.482597164809703826904296875</LongitudeDegrees>
            </Position>
            <AltitudeMeters>228.600006103515625</AltitudeMeters>
            <DistanceMeters>NAN</DistanceMeters>
          </Trackpoint>
          <Trackpoint>
            <Time>2022-07-17T16:28:45.000Z</Time>
            <Position>
              <LatitudeDegrees>43.48285607993602752685546875</LatitudeDegrees>
              <LongitudeDegrees>-5.4826811514794826507568359375</LongitudeDegrees>
            </Position>
            <AltitudeMeters>229</AltitudeMeters>
            <DistanceMeters>NAN</DistanceMeters>
          </Trackpoint>
          <Trackpoint>
            <Time>2022-07-17T16:28:46.000Z</Time>
            <Position>
              <LatitudeDegrees>43.48284962587058544158935546875</LatitudeDegrees>
              <LongitudeDegrees>-5.48269531689584255218505859375</LongitudeDegrees>
            </Position>
            <AltitudeMeters>229</AltitudeMeters>
            <DistanceMeters>NAN</DistanceMeters>
          </Trackpoint>
          <Trackpoint>
            <Time>2022-07-17T16:28:51.000Z</Time>
            <Position>
              <LatitudeDegrees>43.48285431973636150360107421875</LatitudeDegrees>
              <LongitudeDegrees>-5.4828001745045185089111328125</LongitudeDegrees>
            </Position>
            <AltitudeMeters>229.399993896484375</AltitudeMeters>
            <DistanceMeters>NAN</DistanceMeters>
          </Trackpoint>
          <Trackpoint>
            <Time>2022-07-17T16:28:53.000Z</Time>
            <Position>
              <LatitudeDegrees>43.48286672495305538177490234375</LatitudeDegrees>
              <LongitudeDegrees>-5.48283998854458332061767578125</LongitudeDegrees>
            </Position>
            <AltitudeMeters>229.600006103515625</AltitudeMeters>
            <DistanceMeters>NAN</DistanceMeters>
          </Trackpoint>
          <Trackpoint>
            <Time>2022-07-17T16:28:59.000Z</Time>
            <Position>
              <LatitudeDegrees>43.482879213988780975341796875</LatitudeDegrees>
              <LongitudeDegrees>-5.48294643871486186981201171875</LongitudeDegrees>
            </Position>
            <AltitudeMeters>230</AltitudeMeters>
            <DistanceMeters>NAN</DistanceMeters>
          </Trackpoint>
          <Trackpoint>
            <Time>2022-07-17T16:29:07.000Z</Time>
            <Position>
              <LatitudeDegrees>43.48292740993201732635498046875</LatitudeDegrees>
              <LongitudeDegrees>-5.48308633267879486083984375</LongitudeDegrees>
            </Position>
            <AltitudeMeters>230.8000030517578125</AltitudeMeters>
            <DistanceMeters>NAN</DistanceMeters>
          </Trackpoint>
          <Trackpoint>
            <Time>2022-07-17T16:29:08.000Z</Time>
            <Position>
              <LatitudeDegrees>43.4829331934452056884765625</LatitudeDegrees>
              <LongitudeDegrees>-5.48310049809515476226806640625</LongitudeDegrees>
            </Position>
            <AltitudeMeters>230.8000030517578125</AltitudeMeters>
            <DistanceMeters>NAN</DistanceMeters>
          </Trackpoint>
          <Trackpoint>
            <Time>2022-07-17T16:29:12.000Z</Time>
            <Position>
              <LatitudeDegrees>43.4829588420689105987548828125</LatitudeDegrees>
              <LongitudeDegrees>-5.4831719957292079925537109375</LongitudeDegrees>
            </Position>
            <AltitudeMeters>231</AltitudeMeters>
            <DistanceMeters>NAN</DistanceMeters>
          </Trackpoint>
          <Trackpoint>
            <Time>2022-07-17T16:29:18.000Z</Time>
            <Position>
              <LatitudeDegrees>43.48298055119812488555908203125</LatitudeDegrees>
              <LongitudeDegrees>-5.48329244367778301239013671875</LongitudeDegrees>
            </Position>
            <AltitudeMeters>231.1999969482421875</AltitudeMeters>
            <DistanceMeters>NAN</DistanceMeters>
          </Trackpoint>
          <Trackpoint>
            <Time>2022-07-17T16:29:23.000Z</Time>
            <Position>
              <LatitudeDegrees>43.48301206715404987335205078125</LatitudeDegrees>
              <LongitudeDegrees>-5.4833624325692653656005859375</LongitudeDegrees>
            </Position>
            <AltitudeMeters>231.8000030517578125</AltitudeMeters>
            <DistanceMeters>NAN</DistanceMeters>
          </Trackpoint>
          <Trackpoint>
            <Time>2022-07-17T16:29:24.000Z</Time>
            <Position>
              <LatitudeDegrees>43.48301659338176250457763671875</LatitudeDegrees>
              <LongitudeDegrees>-5.4833738319575786590576171875</LongitudeDegrees>
            </Position>
            <AltitudeMeters>231.8000030517578125</AltitudeMeters>
            <DistanceMeters>NAN</DistanceMeters>
          </Trackpoint>
          <Trackpoint>
            <Time>2022-07-17T16:29:30.000Z</Time>
            <Position>
              <LatitudeDegrees>43.48307090811431407928466796875</LatitudeDegrees>
              <LongitudeDegrees>-5.48348405398428440093994140625</LongitudeDegrees>
            </Position>
            <AltitudeMeters>232</AltitudeMeters>
            <DistanceMeters>NAN</DistanceMeters>
          </Trackpoint>
          <Trackpoint>
            <Time>2022-07-17T16:29:32.000Z</Time>
            <Position>
              <LatitudeDegrees>43.48310510627925395965576171875</LatitudeDegrees>
              <LongitudeDegrees>-5.48351816833019256591796875</LongitudeDegrees>
            </Position>
            <AltitudeMeters>232.1999969482421875</AltitudeMeters>
            <DistanceMeters>NAN</DistanceMeters>
          </Trackpoint>
          <Trackpoint>
            <Time>2022-07-17T16:29:35.000Z</Time>
            <Position>
              <LatitudeDegrees>43.4831288270652294158935546875</LatitudeDegrees>
              <LongitudeDegrees>-5.48357793129980564117431640625</LongitudeDegrees>
            </Position>
            <AltitudeMeters>232.399993896484375</AltitudeMeters>
            <DistanceMeters>NAN</DistanceMeters>
          </Trackpoint>
          <Trackpoint>
            <Time>2022-07-17T16:29:42.000Z</Time>
            <Position>
              <LatitudeDegrees>43.48319227807223796844482421875</LatitudeDegrees>
              <LongitudeDegrees>-5.4837104491889476776123046875</LongitudeDegrees>
            </Position>
            <AltitudeMeters>232.8000030517578125</AltitudeMeters>
            <DistanceMeters>NAN</DistanceMeters>
          </Trackpoint>
          <Trackpoint>
            <Time>2022-07-17T16:29:43.000Z</Time>
            <Position>
              <LatitudeDegrees>43.4832040965557098388671875</LatitudeDegrees>
              <LongitudeDegrees>-5.48373048193752765655517578125</LongitudeDegrees>
            </Position>
            <AltitudeMeters>232.8000030517578125</AltitudeMeters>
            <DistanceMeters>NAN</DistanceMeters>
          </Trackpoint>
          <Trackpoint>
            <Time>2022-07-17T16:29:52.000Z</Time>
            <Position>
              <LatitudeDegrees>43.48329990170896053314208984375</LatitudeDegrees>
              <LongitudeDegrees>-5.48389862291514873504638671875</LongitudeDegrees>
            </Position>
            <AltitudeMeters>233.399993896484375</AltitudeMeters>
            <DistanceMeters>NAN</DistanceMeters>
          </Trackpoint>
          <Trackpoint>
            <Time>2022-07-17T16:29:59.000Z</Time>
            <Position>
              <LatitudeDegrees>43.48334424197673797607421875</LatitudeDegrees>
              <LongitudeDegrees>-5.484006665647029876708984375</LongitudeDegrees>
            </Position>
            <AltitudeMeters>233.8000030517578125</AltitudeMeters>
            <DistanceMeters>NAN</DistanceMeters>
          </Trackpoint>
          <Trackpoint>
            <Time>2022-07-17T16:30:01.000Z</Time>
            <Position>
              <LatitudeDegrees>43.48335723392665386199951171875</LatitudeDegrees>
              <LongitudeDegrees>-5.48403440974652767181396484375</LongitudeDegrees>
            </Position>
            <AltitudeMeters>233.8000030517578125</AltitudeMeters>
            <DistanceMeters>NAN</DistanceMeters>
          </Trackpoint>
          <Trackpoint>
            <Time>2022-07-17T16:30:07.000Z</Time>
            <Position>
              <LatitudeDegrees>43.4834027476608753204345703125</LatitudeDegrees>
              <LongitudeDegrees>-5.48413264565169811248779296875</LongitudeDegrees>
            </Position>
            <AltitudeMeters>234.1999969482421875</AltitudeMeters>
            <DistanceMeters>NAN</DistanceMeters>
          </Trackpoint>
          <Trackpoint>
            <Time>2022-07-17T16:30:09.000Z</Time>
            <Position>
              <LatitudeDegrees>43.4834154881536960601806640625</LatitudeDegrees>
              <LongitudeDegrees>-5.48415963537991046905517578125</LongitudeDegrees>
            </Position>
            <AltitudeMeters>234.399993896484375</AltitudeMeters>
            <DistanceMeters>NAN</DistanceMeters>
          </Trackpoint>
          <Trackpoint>
            <Time>2022-07-17T16:30:16.000Z</Time>
            <Position>
              <LatitudeDegrees>43.48346787504851818084716796875</LatitudeDegrees>
              <LongitudeDegrees>-5.48427111469209194183349609375</LongitudeDegrees>
            </Position>
            <AltitudeMeters>234.8000030517578125</AltitudeMeters>
            <DistanceMeters>NAN</DistanceMeters>
          </Trackpoint>
          <Trackpoint>
            <Time>2022-07-17T16:30:17.000Z</Time>
            <Position>
              <LatitudeDegrees>43.48347323946654796600341796875</LatitudeDegrees>
              <LongitudeDegrees>-5.4842871241271495819091796875</LongitudeDegrees>
            </Position>
            <AltitudeMeters>234.8000030517578125</AltitudeMeters>
            <DistanceMeters>NAN</DistanceMeters>
          </Trackpoint>
          <Trackpoint>
            <Time>2022-07-17T16:30:22.000Z</Time>
            <Position>
              <LatitudeDegrees>43.483527638018131256103515625</LatitudeDegrees>
              <LongitudeDegrees>-5.48438661731779575347900390625</LongitudeDegrees>
            </Position>
            <AltitudeMeters>235.1999969482421875</AltitudeMeters>
            <DistanceMeters>NAN</DistanceMeters>
          </Trackpoint>
          <Trackpoint>
            <Time>2022-07-17T16:30:29.000Z</Time>
            <Position>
              <LatitudeDegrees>43.48356409929692745208740234375</LatitudeDegrees>
              <LongitudeDegrees>-5.48452408052980899810791015625</LongitudeDegrees>
            </Position>
            <AltitudeMeters>235.8000030517578125</AltitudeMeters>
            <DistanceMeters>NAN</DistanceMeters>
          </Trackpoint>
          <Trackpoint>
            <Time>2022-07-17T16:30:36.000Z</Time>
            <Position>
              <LatitudeDegrees>43.483583629131317138671875</LatitudeDegrees>
              <LongitudeDegrees>-5.4846763797104358673095703125</LongitudeDegrees>
            </Position>
            <AltitudeMeters>236.399993896484375</AltitudeMeters>
            <DistanceMeters>NAN</DistanceMeters>
          </Trackpoint>
          <Trackpoint>
            <Time>2022-07-17T16:30:41.000Z</Time>
            <Position>
              <LatitudeDegrees>43.483577929437160491943359375</LatitudeDegrees>
              <LongitudeDegrees>-5.4847742803394794464111328125</LongitudeDegrees>
            </Position>
            <AltitudeMeters>236.8000030517578125</AltitudeMeters>
            <DistanceMeters>NAN</DistanceMeters>
          </Trackpoint>
          <Trackpoint>
            <Time>2022-07-17T16:30:42.000Z</Time>
            <Position>
              <LatitudeDegrees>43.4835715591907501220703125</LatitudeDegrees>
              <LongitudeDegrees>-5.48479381017386913299560546875</LongitudeDegrees>
            </Position>
            <AltitudeMeters>236.8000030517578125</AltitudeMeters>
            <DistanceMeters>NAN</DistanceMeters>
          </Trackpoint>
          <Trackpoint>
            <Time>2022-07-17T16:30:44.000Z</Time>
            <Position>
              <LatitudeDegrees>43.483561836183071136474609375</LatitudeDegrees>
              <LongitudeDegrees>-5.484841503202915191650390625</LongitudeDegrees>
            </Position>
            <AltitudeMeters>236.8000030517578125</AltitudeMeters>
            <DistanceMeters>NAN</DistanceMeters>
          </Trackpoint>
          <Trackpoint>
            <Time>2022-07-17T16:30:50.000Z</Time>
            <Position>
              <LatitudeDegrees>43.4835281409323215484619140625</LatitudeDegrees>
              <LongitudeDegrees>-5.48496647737920284271240234375</LongitudeDegrees>
            </Position>
            <AltitudeMeters>237.600006103515625</AltitudeMeters>
            <DistanceMeters>NAN</DistanceMeters>
          </Trackpoint>
          <Trackpoint>
            <Time>2022-07-17T16:30:54.000Z</Time>
            <Position>
              <LatitudeDegrees>43.483513556420803070068359375</LatitudeDegrees>
              <LongitudeDegrees>-5.48504359088838100433349609375</LongitudeDegrees>
            </Position>
            <AltitudeMeters>238</AltitudeMeters>
            <DistanceMeters>NAN</DistanceMeters>
          </Trackpoint>
          <Trackpoint>
            <Time>2022-07-17T16:30:59.000Z</Time>
            <Position>
              <LatitudeDegrees>43.48349452950060367584228515625</LatitudeDegrees>
              <LongitudeDegrees>-5.48515565693378448486328125</LongitudeDegrees>
            </Position>
            <AltitudeMeters>238.399993896484375</AltitudeMeters>
            <DistanceMeters>NAN</DistanceMeters>
          </Trackpoint>
          <Trackpoint>
            <Time>2022-07-17T16:31:04.000Z</Time>
            <Position>
              <LatitudeDegrees>43.48348430357873439788818359375</LatitudeDegrees>
              <LongitudeDegrees>-5.4852644540369510650634765625</LongitudeDegrees>
            </Position>
            <AltitudeMeters>239</AltitudeMeters>
            <DistanceMeters>NAN</DistanceMeters>
          </Trackpoint>
          <Trackpoint>
            <Time>2022-07-17T16:31:05.000Z</Time>
            <Position>
              <LatitudeDegrees>43.48348313011229038238525390625</LatitudeDegrees>
              <LongitudeDegrees>-5.4852839000523090362548828125</LongitudeDegrees>
            </Position>
            <AltitudeMeters>239</AltitudeMeters>
            <DistanceMeters>NAN</DistanceMeters>
          </Trackpoint>
          <Trackpoint>
            <Time>2022-07-17T16:31:07.000Z</Time>
            <Position>
              <LatitudeDegrees>43.483484052121639251708984375</LatitudeDegrees>
              <LongitudeDegrees>-5.48532329499721527099609375</LongitudeDegrees>
            </Position>
            <AltitudeMeters>239.1999969482421875</AltitudeMeters>
            <DistanceMeters>NAN</DistanceMeters>
          </Trackpoint>
          <Trackpoint>
            <Time>2022-07-17T16:31:16.000Z</Time>
            <Position>
              <LatitudeDegrees>43.4835125505924224853515625</LatitudeDegrees>
              <LongitudeDegrees>-5.48552806489169597625732421875</LongitudeDegrees>
            </Position>
            <AltitudeMeters>240.1999969482421875</AltitudeMeters>
            <DistanceMeters>NAN</DistanceMeters>
          </Trackpoint>
          <Trackpoint>
            <Time>2022-07-17T16:31:20.000Z</Time>
            <Position>
              <LatitudeDegrees>43.4835318289697170257568359375</LatitudeDegrees>
              <LongitudeDegrees>-5.48560232855379581451416015625</LongitudeDegrees>
            </Position>
            <AltitudeMeters>240.399993896484375</AltitudeMeters>
            <DistanceMeters>NAN</DistanceMeters>
          </Trackpoint>
          <Trackpoint>
            <Time>2022-07-17T16:31:22.000Z</Time>
            <Position>
              <LatitudeDegrees>43.4835366904735565185546875</LatitudeDegrees>
              <LongitudeDegrees>-5.4856352694332599639892578125</LongitudeDegrees>
            </Position>
            <AltitudeMeters>240.600006103515625</AltitudeMeters>
            <DistanceMeters>NAN</DistanceMeters>
          </Trackpoint>
          <Trackpoint>
            <Time>2022-07-17T16:31:28.000Z</Time>
            <Position>
              <LatitudeDegrees>43.48355454392731189727783203125</LatitudeDegrees>
              <LongitudeDegrees>-5.48574096523225307464599609375</LongitudeDegrees>
            </Position>
            <AltitudeMeters>241.1999969482421875</AltitudeMeters>
            <DistanceMeters>NAN</DistanceMeters>
          </Trackpoint>
          <Trackpoint>
            <Time>2022-07-17T16:31:31.000Z</Time>
            <Position>
              <LatitudeDegrees>43.48355588503181934356689453125</LatitudeDegrees>
              <LongitudeDegrees>-5.485787652432918548583984375</LongitudeDegrees>
            </Position>
            <AltitudeMeters>241.399993896484375</AltitudeMeters>
            <DistanceMeters>NAN</DistanceMeters>
          </Trackpoint>
          <Trackpoint>
            <Time>2022-07-17T16:31:32.000Z</Time>
            <Position>
              <LatitudeDegrees>43.48355881869792938232421875</LatitudeDegrees>
              <LongitudeDegrees>-5.4858029074966907501220703125</LongitudeDegrees>
            </Position>
            <AltitudeMeters>241.600006103515625</AltitudeMeters>
            <DistanceMeters>NAN</DistanceMeters>
          </Trackpoint>
          <Trackpoint>
            <Time>2022-07-17T16:31:36.000Z</Time>
            <Position>
              <LatitudeDegrees>43.48356426693499088287353515625</LatitudeDegrees>
              <LongitudeDegrees>-5.48587792553007602691650390625</LongitudeDegrees>
            </Position>
            <AltitudeMeters>241.8000030517578125</AltitudeMeters>
            <DistanceMeters>NAN</DistanceMeters>
          </Trackpoint>
          <Trackpoint>
            <Time>2022-07-17T16:31:39.000Z</Time>
            <Position>
              <LatitudeDegrees>43.4835635125637054443359375</LatitudeDegrees>
              <LongitudeDegrees>-5.48595269210636615753173828125</LongitudeDegrees>
            </Position>
            <AltitudeMeters>242</AltitudeMeters>
            <DistanceMeters>NAN</DistanceMeters>
          </Trackpoint>
          <Trackpoint>
            <Time>2022-07-17T16:31:40.000Z</Time>
            <Position>
              <LatitudeDegrees>43.48356418311595916748046875</LatitudeDegrees>
              <LongitudeDegrees>-5.48598538152873516082763671875</LongitudeDegrees>
            </Position>
            <AltitudeMeters>242.1999969482421875</AltitudeMeters>
            <DistanceMeters>NAN</DistanceMeters>
          </Trackpoint>
          <Trackpoint>
            <Time>2022-07-17T16:31:42.000Z</Time>
            <Position>
              <LatitudeDegrees>43.4835527837276458740234375</LatitudeDegrees>
              <LongitudeDegrees>-5.48603181727230548858642578125</LongitudeDegrees>
            </Position>
            <AltitudeMeters>242.1999969482421875</AltitudeMeters>
            <DistanceMeters>NAN</DistanceMeters>
          </Trackpoint>
          <Trackpoint>
            <Time>2022-07-17T16:31:45.000Z</Time>
            <Position>
              <LatitudeDegrees>43.48353710956871509552001953125</LatitudeDegrees>
              <LongitudeDegrees>-5.486087389290332794189453125</LongitudeDegrees>
            </Position>
            <AltitudeMeters>242.399993896484375</AltitudeMeters>
            <DistanceMeters>NAN</DistanceMeters>
          </Trackpoint>
          <Trackpoint>
            <Time>2022-07-17T16:31:50.000Z</Time>
            <Position>
              <LatitudeDegrees>43.483504168689250946044921875</LatitudeDegrees>
              <LongitudeDegrees>-5.48617489635944366455078125</LongitudeDegrees>
            </Position>
            <AltitudeMeters>243</AltitudeMeters>
            <DistanceMeters>NAN</DistanceMeters>
          </Trackpoint>
          <Trackpoint>
            <Time>2022-07-17T16:31:52.000Z</Time>
            <Position>
              <LatitudeDegrees>43.48349084146320819854736328125</LatitudeDegrees>
              <LongitudeDegrees>-5.48620850779116153717041015625</LongitudeDegrees>
            </Position>
            <AltitudeMeters>243</AltitudeMeters>
            <DistanceMeters>NAN</DistanceMeters>
          </Trackpoint>
          <Trackpoint>
            <Time>2022-07-17T16:31:56.000Z</Time>
            <Position>
              <LatitudeDegrees>43.48347240127623081207275390625</LatitudeDegrees>
              <LongitudeDegrees>-5.48628562130033969879150390625</LongitudeDegrees>
            </Position>
            <AltitudeMeters>243.1999969482421875</AltitudeMeters>
            <DistanceMeters>NAN</DistanceMeters>
          </Trackpoint>
          <Trackpoint>
            <Time>2022-07-17T16:31:57.000Z</Time>
            <Position>
              <LatitudeDegrees>43.483468629419803619384765625</LatitudeDegrees>
              <LongitudeDegrees>-5.48630640842020511627197265625</LongitudeDegrees>
            </Position>
            <AltitudeMeters>243.1999969482421875</AltitudeMeters>
            <DistanceMeters>NAN</DistanceMeters>
          </Trackpoint>
          <Trackpoint>
            <Time>2022-07-17T16:32:05.000Z</Time>
            <Position>
              <LatitudeDegrees>43.483442477881908416748046875</LatitudeDegrees>
              <LongitudeDegrees>-5.48647035844624042510986328125</LongitudeDegrees>
            </Position>
            <AltitudeMeters>243.8000030517578125</AltitudeMeters>
            <DistanceMeters>NAN</DistanceMeters>
          </Trackpoint>
          <Trackpoint>
            <Time>2022-07-17T16:32:11.000Z</Time>
            <Position>
              <LatitudeDegrees>43.483426384627819061279296875</LatitudeDegrees>
              <LongitudeDegrees>-5.4865985177457332611083984375</LongitudeDegrees>
            </Position>
            <AltitudeMeters>244.1999969482421875</AltitudeMeters>
            <DistanceMeters>NAN</DistanceMeters>
          </Trackpoint>
          <Trackpoint>
            <Time>2022-07-17T16:32:13.000Z</Time>
            <Position>
              <LatitudeDegrees>43.48342546261847019195556640625</LatitudeDegrees>
              <LongitudeDegrees>-5.48664034344255924224853515625</LongitudeDegrees>
            </Position>
            <AltitudeMeters>244.399993896484375</AltitudeMeters>
            <DistanceMeters>NAN</DistanceMeters>
          </Trackpoint>
          <Trackpoint>
            <Time>2022-07-17T16:32:20.000Z</Time>
            <Position>
              <LatitudeDegrees>43.48345077596604824066162109375</LatitudeDegrees>
              <LongitudeDegrees>-5.48678216524422168731689453125</LongitudeDegrees>
            </Position>
            <AltitudeMeters>245.399993896484375</AltitudeMeters>
            <DistanceMeters>NAN</DistanceMeters>
          </Trackpoint>
          <Trackpoint>
            <Time>2022-07-17T16:32:22.000Z</Time>
            <Position>
              <LatitudeDegrees>43.48345614038407802581787109375</LatitudeDegrees>
              <LongitudeDegrees>-5.48682139255106449127197265625</LongitudeDegrees>
            </Position>
            <AltitudeMeters>245.600006103515625</AltitudeMeters>
            <DistanceMeters>NAN</DistanceMeters>
          </Trackpoint>
          <Trackpoint>
            <Time>2022-07-17T16:32:32.000Z</Time>
            <Position>
              <LatitudeDegrees>43.4835130535066127777099609375</LatitudeDegrees>
              <LongitudeDegrees>-5.4870213009417057037353515625</LongitudeDegrees>
            </Position>
            <AltitudeMeters>246.399993896484375</AltitudeMeters>
            <DistanceMeters>NAN</DistanceMeters>
          </Trackpoint>
          <Trackpoint>
            <Time>2022-07-17T16:32:38.000Z</Time>
            <Position>
              <LatitudeDegrees>43.48355948925018310546875</LatitudeDegrees>
              <LongitudeDegrees>-5.48712414689362049102783203125</LongitudeDegrees>
            </Position>
            <AltitudeMeters>246.8000030517578125</AltitudeMeters>
            <DistanceMeters>NAN</DistanceMeters>
          </Trackpoint>
          <Trackpoint>
            <Time>2022-07-17T16:32:44.000Z</Time>
            <Position>
              <LatitudeDegrees>43.48357130773365497589111328125</LatitudeDegrees>
              <LongitudeDegrees>-5.48724987544119358062744140625</LongitudeDegrees>
            </Position>
            <AltitudeMeters>247.1999969482421875</AltitudeMeters>
            <DistanceMeters>NAN</DistanceMeters>
          </Trackpoint>
          <Trackpoint>
            <Time>2022-07-17T16:32:45.000Z</Time>
            <Position>
              <LatitudeDegrees>43.48357968963682651519775390625</LatitudeDegrees>
              <LongitudeDegrees>-5.48727569170296192169189453125</LongitudeDegrees>
            </Position>
            <AltitudeMeters>247.399993896484375</AltitudeMeters>
            <DistanceMeters>NAN</DistanceMeters>
          </Trackpoint>
          <Trackpoint>
            <Time>2022-07-17T16:32:51.000Z</Time>
            <Position>
              <LatitudeDegrees>43.4836186654865741729736328125</LatitudeDegrees>
              <LongitudeDegrees>-5.48740334808826446533203125</LongitudeDegrees>
            </Position>
            <AltitudeMeters>248.1999969482421875</AltitudeMeters>
            <DistanceMeters>NAN</DistanceMeters>
          </Trackpoint>
          <Trackpoint>
            <Time>2022-07-17T16:32:54.000Z</Time>
            <Position>
              <LatitudeDegrees>43.48363786004483699798583984375</LatitudeDegrees>
              <LongitudeDegrees>-5.4874655418097972869873046875</LongitudeDegrees>
            </Position>
            <AltitudeMeters>248.600006103515625</AltitudeMeters>
            <DistanceMeters>NAN</DistanceMeters>
          </Trackpoint>
          <Trackpoint>
            <Time>2022-07-17T16:33:00.000Z</Time>
            <Position>
              <LatitudeDegrees>43.48368932493031024932861328125</LatitudeDegrees>
              <LongitudeDegrees>-5.48762756399810314178466796875</LongitudeDegrees>
            </Position>
            <AltitudeMeters>249</AltitudeMeters>
            <DistanceMeters>NAN</DistanceMeters>
          </Trackpoint>
          <Trackpoint>
            <Time>2022-07-17T16:33:05.000Z</Time>
            <Position>
              <LatitudeDegrees>43.4837366826832294464111328125</LatitudeDegrees>
              <LongitudeDegrees>-5.48774507828056812286376953125</LongitudeDegrees>
            </Position>
            <AltitudeMeters>249</AltitudeMeters>
            <DistanceMeters>NAN</DistanceMeters>
          </Trackpoint>
          <Trackpoint>
            <Time>2022-07-17T16:33:09.000Z</Time>
            <Position>
              <LatitudeDegrees>43.48377406597137451171875</LatitudeDegrees>
              <LongitudeDegrees>-5.48783426173031330108642578125</LongitudeDegrees>
            </Position>
            <AltitudeMeters>249</AltitudeMeters>
            <DistanceMeters>NAN</DistanceMeters>
          </Trackpoint>
          <Trackpoint>
            <Time>2022-07-17T16:33:10.000Z</Time>
            <Position>
              <LatitudeDegrees>43.483787477016448974609375</LatitudeDegrees>
              <LongitudeDegrees>-5.4878480918705463409423828125</LongitudeDegrees>
            </Position>
            <AltitudeMeters>249</AltitudeMeters>
            <DistanceMeters>NAN</DistanceMeters>
          </Trackpoint>
          <Trackpoint>
            <Time>2022-07-17T16:33:14.000Z</Time>
            <Position>
              <LatitudeDegrees>43.48380424082279205322265625</LatitudeDegrees>
              <LongitudeDegrees>-5.48787700943648815155029296875</LongitudeDegrees>
            </Position>
            <AltitudeMeters>249</AltitudeMeters>
            <DistanceMeters>NAN</DistanceMeters>
          </Trackpoint>
          <Trackpoint>
            <Time>2022-07-17T16:33:15.000Z</Time>
            <Position>
              <LatitudeDegrees>43.48380516283214092254638671875</LatitudeDegrees>
              <LongitudeDegrees>-5.48787717707455158233642578125</LongitudeDegrees>
            </Position>
            <AltitudeMeters>249</AltitudeMeters>
            <DistanceMeters>NAN</DistanceMeters>
          </Trackpoint>
          <Trackpoint>
            <Time>2022-07-17T16:38:24.000Z</Time>
            <Position>
              <LatitudeDegrees>43.48380424082279205322265625</LatitudeDegrees>
              <LongitudeDegrees>-5.48789461143314838409423828125</LongitudeDegrees>
            </Position>
            <AltitudeMeters>248.399993896484375</AltitudeMeters>
            <DistanceMeters>NAN</DistanceMeters>
          </Trackpoint>
          <Trackpoint>
            <Time>2022-07-17T16:38:25.000Z</Time>
            <Position>
              <LatitudeDegrees>43.48379082977771759033203125</LatitudeDegrees>
              <LongitudeDegrees>-5.487913303077220916748046875</LongitudeDegrees>
            </Position>
            <AltitudeMeters>248.399993896484375</AltitudeMeters>
            <DistanceMeters>NAN</DistanceMeters>
          </Trackpoint>
          <Trackpoint>
            <Time>2022-07-17T16:38:26.000Z</Time>
            <Position>
              <LatitudeDegrees>43.48377984948456287384033203125</LatitudeDegrees>
              <LongitudeDegrees>-5.48793652094900608062744140625</LongitudeDegrees>
            </Position>
            <AltitudeMeters>248.399993896484375</AltitudeMeters>
            <DistanceMeters>NAN</DistanceMeters>
          </Trackpoint>
          <Trackpoint>
            <Time>2022-07-17T16:38:33.000Z</Time>
            <Position>
              <LatitudeDegrees>43.4836941026151180267333984375</LatitudeDegrees>
              <LongitudeDegrees>-5.488086305558681488037109375</LongitudeDegrees>
            </Position>
            <AltitudeMeters>249.1999969482421875</AltitudeMeters>
            <DistanceMeters>NAN</DistanceMeters>
          </Trackpoint>
          <Trackpoint>
            <Time>2022-07-17T16:38:35.000Z</Time>
            <Position>
              <LatitudeDegrees>43.483674824237823486328125</LatitudeDegrees>
              <LongitudeDegrees>-5.4881290532648563385009765625</LongitudeDegrees>
            </Position>
            <AltitudeMeters>249.600006103515625</AltitudeMeters>
            <DistanceMeters>NAN</DistanceMeters>
          </Trackpoint>
          <Trackpoint>
            <Time>2022-07-17T16:38:36.000Z</Time>
            <Position>
              <LatitudeDegrees>43.48366744816303253173828125</LatitudeDegrees>
              <LongitudeDegrees>-5.48815176822245121002197265625</LongitudeDegrees>
            </Position>
            <AltitudeMeters>249.8000030517578125</AltitudeMeters>
            <DistanceMeters>NAN</DistanceMeters>
          </Trackpoint>
          <Trackpoint>
            <Time>2022-07-17T16:38:39.000Z</Time>
            <Position>
              <LatitudeDegrees>43.4836377762258052825927734375</LatitudeDegrees>
              <LongitudeDegrees>-5.48821815289556980133056640625</LongitudeDegrees>
            </Position>
            <AltitudeMeters>250.1999969482421875</AltitudeMeters>
            <DistanceMeters>NAN</DistanceMeters>
          </Trackpoint>
          <Trackpoint>
            <Time>2022-07-17T16:38:40.000Z</Time>
            <Position>
              <LatitudeDegrees>43.483626879751682281494140625</LatitudeDegrees>
              <LongitudeDegrees>-5.48823885619640350341796875</LongitudeDegrees>
            </Position>
            <AltitudeMeters>250.1999969482421875</AltitudeMeters>
            <DistanceMeters>NAN</DistanceMeters>
          </Trackpoint>
          <Trackpoint>
            <Time>2022-07-17T16:38:46.000Z</Time>
            <Position>
              <LatitudeDegrees>43.483587317168712615966796875</LatitudeDegrees>
              <LongitudeDegrees>-5.488368608057498931884765625</LongitudeDegrees>
            </Position>
            <AltitudeMeters>250.600006103515625</AltitudeMeters>
            <DistanceMeters>NAN</DistanceMeters>
          </Trackpoint>
          <Trackpoint>
            <Time>2022-07-17T16:38:48.000Z</Time>
            <Position>
              <LatitudeDegrees>43.48357415758073329925537109375</LatitudeDegrees>
              <LongitudeDegrees>-5.4884120263159275054931640625</LongitudeDegrees>
            </Position>
            <AltitudeMeters>251</AltitudeMeters>
            <DistanceMeters>NAN</DistanceMeters>
          </Trackpoint>
          <Trackpoint>
            <Time>2022-07-17T16:38:53.000Z</Time>
            <Position>
              <LatitudeDegrees>43.4835472516715526580810546875</LatitudeDegrees>
              <LongitudeDegrees>-5.4885183088481426239013671875</LongitudeDegrees>
            </Position>
            <AltitudeMeters>251.8000030517578125</AltitudeMeters>
            <DistanceMeters>NAN</DistanceMeters>
          </Trackpoint>
          <Trackpoint>
            <Time>2022-07-17T16:38:55.000Z</Time>
            <Position>
              <LatitudeDegrees>43.4835371933877468109130859375</LatitudeDegrees>
              <LongitudeDegrees>-5.488564409315586090087890625</LongitudeDegrees>
            </Position>
            <AltitudeMeters>252</AltitudeMeters>
            <DistanceMeters>NAN</DistanceMeters>
          </Trackpoint>
          <Trackpoint>
            <Time>2022-07-17T16:38:56.000Z</Time>
            <Position>
              <LatitudeDegrees>43.4835361875593662261962890625</LatitudeDegrees>
              <LongitudeDegrees>-5.4885853640735149383544921875</LongitudeDegrees>
            </Position>
            <AltitudeMeters>252</AltitudeMeters>
            <DistanceMeters>NAN</DistanceMeters>
          </Trackpoint>
          <Trackpoint>
            <Time>2022-07-17T16:39:01.000Z</Time>
            <Position>
              <LatitudeDegrees>43.4835412167012691497802734375</LatitudeDegrees>
              <LongitudeDegrees>-5.4886121861636638641357421875</LongitudeDegrees>
            </Position>
            <AltitudeMeters>252</AltitudeMeters>
            <DistanceMeters>NAN</DistanceMeters>
          </Trackpoint>
          <Trackpoint>
            <Time>2022-07-17T16:40:34.000Z</Time>
            <Position>
              <LatitudeDegrees>43.48349603824317455291748046875</LatitudeDegrees>
              <LongitudeDegrees>-5.4886467196047306060791015625</LongitudeDegrees>
            </Position>
            <AltitudeMeters>253</AltitudeMeters>
            <DistanceMeters>NAN</DistanceMeters>
          </Trackpoint>
          <Trackpoint>
            <Time>2022-07-17T16:40:35.000Z</Time>
            <Position>
              <LatitudeDegrees>43.48348950035870075225830078125</LatitudeDegrees>
              <LongitudeDegrees>-5.48866407014429569244384765625</LongitudeDegrees>
            </Position>
            <AltitudeMeters>253.1999969482421875</AltitudeMeters>
            <DistanceMeters>NAN</DistanceMeters>
          </Trackpoint>
          <Trackpoint>
            <Time>2022-07-17T16:40:37.000Z</Time>
            <Position>
              <LatitudeDegrees>43.483478017151355743408203125</LatitudeDegrees>
              <LongitudeDegrees>-5.48870463855564594268798828125</LongitudeDegrees>
            </Position>
            <AltitudeMeters>253.1999969482421875</AltitudeMeters>
            <DistanceMeters>NAN</DistanceMeters>
          </Trackpoint>
          <Trackpoint>
            <Time>2022-07-17T16:40:46.000Z</Time>
            <Position>
              <LatitudeDegrees>43.483439795672893524169921875</LatitudeDegrees>
              <LongitudeDegrees>-5.48888954333961009979248046875</LongitudeDegrees>
            </Position>
            <AltitudeMeters>254.1999969482421875</AltitudeMeters>
            <DistanceMeters>NAN</DistanceMeters>
          </Trackpoint>
          <Trackpoint>
            <Time>2022-07-17T16:40:49.000Z</Time>
            <Position>
              <LatitudeDegrees>43.48342831246554851531982421875</LatitudeDegrees>
              <LongitudeDegrees>-5.48894318751990795135498046875</LongitudeDegrees>
            </Position>
            <AltitudeMeters>254.399993896484375</AltitudeMeters>
            <DistanceMeters>NAN</DistanceMeters>
          </Trackpoint>
          <Trackpoint>
            <Time>2022-07-17T16:40:52.000Z</Time>
            <Position>
              <LatitudeDegrees>43.483412303030490875244140625</LatitudeDegrees>
              <LongitudeDegrees>-5.48900152556598186492919921875</LongitudeDegrees>
            </Position>
            <AltitudeMeters>254.600006103515625</AltitudeMeters>
            <DistanceMeters>NAN</DistanceMeters>
          </Trackpoint>
          <Trackpoint>
            <Time>2022-07-17T16:40:55.000Z</Time>
            <Position>
              <LatitudeDegrees>43.48340316675603389739990234375</LatitudeDegrees>
              <LongitudeDegrees>-5.48906363546848297119140625</LongitudeDegrees>
            </Position>
            <AltitudeMeters>255</AltitudeMeters>
            <DistanceMeters>NAN</DistanceMeters>
          </Trackpoint>
          <Trackpoint>
            <Time>2022-07-17T16:40:56.000Z</Time>
            <Position>
              <LatitudeDegrees>43.48340056836605072021484375</LatitudeDegrees>
              <LongitudeDegrees>-5.48908534459769725799560546875</LongitudeDegrees>
            </Position>
            <AltitudeMeters>255</AltitudeMeters>
            <DistanceMeters>NAN</DistanceMeters>
          </Trackpoint>
          <Trackpoint>
            <Time>2022-07-17T16:40:58.000Z</Time>
            <Position>
              <LatitudeDegrees>43.48339059390127658843994140625</LatitudeDegrees>
              <LongitudeDegrees>-5.48912859521806240081787109375</LongitudeDegrees>
            </Position>
            <AltitudeMeters>255.399993896484375</AltitudeMeters>
            <DistanceMeters>NAN</DistanceMeters>
          </Trackpoint>
          <Trackpoint>
            <Time>2022-07-17T16:41:08.000Z</Time>
            <Position>
              <LatitudeDegrees>43.4833450801670551300048828125</LatitudeDegrees>
              <LongitudeDegrees>-5.48932238481938838958740234375</LongitudeDegrees>
            </Position>
            <AltitudeMeters>256.399993896484375</AltitudeMeters>
            <DistanceMeters>NAN</DistanceMeters>
          </Trackpoint>
          <Trackpoint>
            <Time>2022-07-17T16:41:09.000Z</Time>
            <Position>
              <LatitudeDegrees>43.4833382070064544677734375</LatitudeDegrees>
              <LongitudeDegrees>-5.48934082500636577606201171875</LongitudeDegrees>
            </Position>
            <AltitudeMeters>256.600006103515625</AltitudeMeters>
            <DistanceMeters>NAN</DistanceMeters>
          </Trackpoint>
          <Trackpoint>
            <Time>2022-07-17T16:41:17.000Z</Time>
            <Position>
              <LatitudeDegrees>43.48330342210829257965087890625</LatitudeDegrees>
              <LongitudeDegrees>-5.4894738458096981048583984375</LongitudeDegrees>
            </Position>
            <AltitudeMeters>257.399993896484375</AltitudeMeters>
            <DistanceMeters>NAN</DistanceMeters>
          </Trackpoint>
          <Trackpoint>
            <Time>2022-07-17T16:41:18.000Z</Time>
            <Position>
              <LatitudeDegrees>43.4832966327667236328125</LatitudeDegrees>
              <LongitudeDegrees>-5.48949002288281917572021484375</LongitudeDegrees>
            </Position>
            <AltitudeMeters>257.399993896484375</AltitudeMeters>
            <DistanceMeters>NAN</DistanceMeters>
          </Trackpoint>
          <Trackpoint>
            <Time>2022-07-17T16:41:19.000Z</Time>
            <Position>
              <LatitudeDegrees>43.48328900523483753204345703125</LatitudeDegrees>
              <LongitudeDegrees>-5.4895056970417499542236328125</LongitudeDegrees>
            </Position>
            <AltitudeMeters>257.600006103515625</AltitudeMeters>
            <DistanceMeters>NAN</DistanceMeters>
          </Trackpoint>
          <Trackpoint>
            <Time>2022-07-17T16:41:28.000Z</Time>
            <Position>
              <LatitudeDegrees>43.48322211764752864837646484375</LatitudeDegrees>
              <LongitudeDegrees>-5.48962580971419811248779296875</LongitudeDegrees>
            </Position>
            <AltitudeMeters>258.20001220703125</AltitudeMeters>
            <DistanceMeters>NAN</DistanceMeters>
          </Trackpoint>
          <Trackpoint>
            <Time>2022-07-17T16:41:31.000Z</Time>
            <Position>
              <LatitudeDegrees>43.48320116288959980010986328125</LatitudeDegrees>
              <LongitudeDegrees>-5.48967258073389530181884765625</LongitudeDegrees>
            </Position>
            <AltitudeMeters>258.600006103515625</AltitudeMeters>
            <DistanceMeters>NAN</DistanceMeters>
          </Trackpoint>
          <Trackpoint>
            <Time>2022-07-17T16:41:35.000Z</Time>
            <Position>
              <LatitudeDegrees>43.4831533022224903106689453125</LatitudeDegrees>
              <LongitudeDegrees>-5.48971767537295818328857421875</LongitudeDegrees>
            </Position>
            <AltitudeMeters>259</AltitudeMeters>
            <DistanceMeters>NAN</DistanceMeters>
          </Trackpoint>
          <Trackpoint>
            <Time>2022-07-17T16:41:43.000Z</Time>
            <Position>
              <LatitudeDegrees>43.48309638909995555877685546875</LatitudeDegrees>
              <LongitudeDegrees>-5.48985346220433712005615234375</LongitudeDegrees>
            </Position>
            <AltitudeMeters>259.600006103515625</AltitudeMeters>
            <DistanceMeters>NAN</DistanceMeters>
          </Trackpoint>
          <Trackpoint>
            <Time>2022-07-17T16:41:51.000Z</Time>
            <Position>
              <LatitudeDegrees>43.48302371799945831298828125</LatitudeDegrees>
              <LongitudeDegrees>-5.489963851869106292724609375</LongitudeDegrees>
            </Position>
            <AltitudeMeters>260.399993896484375</AltitudeMeters>
            <DistanceMeters>NAN</DistanceMeters>
          </Trackpoint>
          <Trackpoint>
            <Time>2022-07-17T16:41:53.000Z</Time>
            <Position>
              <LatitudeDegrees>43.48300226032733917236328125</LatitudeDegrees>
              <LongitudeDegrees>-5.489994026720523834228515625</LongitudeDegrees>
            </Position>
            <AltitudeMeters>260.600006103515625</AltitudeMeters>
            <DistanceMeters>NAN</DistanceMeters>
          </Trackpoint>
          <Trackpoint>
            <Time>2022-07-17T16:41:59.000Z</Time>
            <Position>
              <LatitudeDegrees>43.482950292527675628662109375</LatitudeDegrees>
              <LongitudeDegrees>-5.4900867305696010589599609375</LongitudeDegrees>
            </Position>
            <AltitudeMeters>261.20001220703125</AltitudeMeters>
            <DistanceMeters>NAN</DistanceMeters>
          </Trackpoint>
          <Trackpoint>
            <Time>2022-07-17T16:42:02.000Z</Time>
            <Position>
              <LatitudeDegrees>43.48292640410363674163818359375</LatitudeDegrees>
              <LongitudeDegrees>-5.49013576470315456390380859375</LongitudeDegrees>
            </Position>
            <AltitudeMeters>261.399993896484375</AltitudeMeters>
            <DistanceMeters>NAN</DistanceMeters>
          </Trackpoint>
          <Trackpoint>
            <Time>2022-07-17T16:42:03.000Z</Time>
            <Position>
              <LatitudeDegrees>43.48291869275271892547607421875</LatitudeDegrees>
              <LongitudeDegrees>-5.49015169031918048858642578125</LongitudeDegrees>
            </Position>
            <AltitudeMeters>261.600006103515625</AltitudeMeters>
            <DistanceMeters>NAN</DistanceMeters>
          </Trackpoint>
          <Trackpoint>
            <Time>2022-07-17T16:42:08.000Z</Time>
            <Position>
              <LatitudeDegrees>43.4828642942011356353759765625</LatitudeDegrees>
              <LongitudeDegrees>-5.4902208410203456878662109375</LongitudeDegrees>
            </Position>
            <AltitudeMeters>262.20001220703125</AltitudeMeters>
            <DistanceMeters>NAN</DistanceMeters>
          </Trackpoint>
          <Trackpoint>
            <Time>2022-07-17T16:42:10.000Z</Time>
            <Position>
              <LatitudeDegrees>43.48284409381449222564697265625</LatitudeDegrees>
              <LongitudeDegrees>-5.49025009386241436004638671875</LongitudeDegrees>
            </Position>
            <AltitudeMeters>262.600006103515625</AltitudeMeters>
            <DistanceMeters>NAN</DistanceMeters>
          </Trackpoint>
          <Trackpoint>
            <Time>2022-07-17T16:42:13.000Z</Time>
            <Position>
              <LatitudeDegrees>43.482806794345378875732421875</LatitudeDegrees>
              <LongitudeDegrees>-5.49028714187443256378173828125</LongitudeDegrees>
            </Position>
            <AltitudeMeters>262.79998779296875</AltitudeMeters>
            <DistanceMeters>NAN</DistanceMeters>
          </Trackpoint>
          <Trackpoint>
            <Time>2022-07-17T16:42:16.000Z</Time>
            <Position>
              <LatitudeDegrees>43.48277485929429531097412109375</LatitudeDegrees>
              <LongitudeDegrees>-5.49033441580832004547119140625</LongitudeDegrees>
            </Position>
            <AltitudeMeters>263</AltitudeMeters>
            <DistanceMeters>NAN</DistanceMeters>
          </Trackpoint>
          <Trackpoint>
            <Time>2022-07-17T16:42:19.000Z</Time>
            <Position>
              <LatitudeDegrees>43.482749126851558685302734375</LatitudeDegrees>
              <LongitudeDegrees>-5.4903847910463809967041015625</LongitudeDegrees>
            </Position>
            <AltitudeMeters>263.20001220703125</AltitudeMeters>
            <DistanceMeters>NAN</DistanceMeters>
          </Trackpoint>
          <Trackpoint>
            <Time>2022-07-17T16:42:25.000Z</Time>
            <Position>
              <LatitudeDegrees>43.48267905414104461669921875</LatitudeDegrees>
              <LongitudeDegrees>-5.4904578812420368194580078125</LongitudeDegrees>
            </Position>
            <AltitudeMeters>263.79998779296875</AltitudeMeters>
            <DistanceMeters>NAN</DistanceMeters>
          </Trackpoint>
          <Trackpoint>
            <Time>2022-07-17T16:42:27.000Z</Time>
            <Position>
              <LatitudeDegrees>43.48265265114605426788330078125</LatitudeDegrees>
              <LongitudeDegrees>-5.4904655925929546356201171875</LongitudeDegrees>
            </Position>
            <AltitudeMeters>264</AltitudeMeters>
            <DistanceMeters>NAN</DistanceMeters>
          </Trackpoint>
          <Trackpoint>
            <Time>2022-07-17T16:42:32.000Z</Time>
            <Position>
              <LatitudeDegrees>43.48260185681283473968505859375</LatitudeDegrees>
              <LongitudeDegrees>-5.4904997907578945159912109375</LongitudeDegrees>
            </Position>
            <AltitudeMeters>264.399993896484375</AltitudeMeters>
            <DistanceMeters>NAN</DistanceMeters>
          </Trackpoint>
          <Trackpoint>
            <Time>2022-07-17T16:42:34.000Z</Time>
            <Position>
              <LatitudeDegrees>43.4825657308101654052734375</LatitudeDegrees>
              <LongitudeDegrees>-5.49050590954720973968505859375</LongitudeDegrees>
            </Position>
            <AltitudeMeters>264.600006103515625</AltitudeMeters>
            <DistanceMeters>NAN</DistanceMeters>
          </Trackpoint>
          <Trackpoint>
            <Time>2022-07-17T16:42:37.000Z</Time>
            <Position>
              <LatitudeDegrees>43.48251971416175365447998046875</LatitudeDegrees>
              <LongitudeDegrees>-5.49050825648009777069091796875</LongitudeDegrees>
            </Position>
            <AltitudeMeters>264.79998779296875</AltitudeMeters>
            <DistanceMeters>NAN</DistanceMeters>
          </Trackpoint>
          <Trackpoint>
            <Time>2022-07-17T16:42:41.000Z</Time>
            <Position>
              <LatitudeDegrees>43.4824663214385509490966796875</LatitudeDegrees>
              <LongitudeDegrees>-5.490513034164905548095703125</LongitudeDegrees>
            </Position>
            <AltitudeMeters>265</AltitudeMeters>
            <DistanceMeters>NAN</DistanceMeters>
          </Trackpoint>
          <Trackpoint>
            <Time>2022-07-17T16:42:48.000Z</Time>
            <Position>
              <LatitudeDegrees>43.48243086598813533782958984375</LatitudeDegrees>
              <LongitudeDegrees>-5.4905101843178272247314453125</LongitudeDegrees>
            </Position>
            <AltitudeMeters>265.600006103515625</AltitudeMeters>
            <DistanceMeters>NAN</DistanceMeters>
          </Trackpoint>
          <Trackpoint>
            <Time>2022-07-17T16:42:49.000Z</Time>
            <Position>
              <LatitudeDegrees>43.48241879604756832122802734375</LatitudeDegrees>
              <LongitudeDegrees>-5.49050624482333660125732421875</LongitudeDegrees>
            </Position>
            <AltitudeMeters>265.79998779296875</AltitudeMeters>
            <DistanceMeters>NAN</DistanceMeters>
          </Trackpoint>
          <Trackpoint>
            <Time>2022-07-17T16:42:50.000Z</Time>
            <Position>
              <LatitudeDegrees>43.48241879604756832122802734375</LatitudeDegrees>
              <LongitudeDegrees>-5.49050624482333660125732421875</LongitudeDegrees>
            </Position>
            <AltitudeMeters>265.79998779296875</AltitudeMeters>
            <DistanceMeters>NAN</DistanceMeters>
          </Trackpoint>
          <Trackpoint>
            <Time>2022-07-17T16:42:51.000Z</Time>
            <Position>
              <LatitudeDegrees>43.48238241858780384063720703125</LatitudeDegrees>
              <LongitudeDegrees>-5.49049803055822849273681640625</LongitudeDegrees>
            </Position>
            <AltitudeMeters>266</AltitudeMeters>
            <DistanceMeters>NAN</DistanceMeters>
          </Trackpoint>
          <Trackpoint>
            <Time>2022-07-17T16:42:53.000Z</Time>
            <Position>
              <LatitudeDegrees>43.4823523275554180145263671875</LatitudeDegrees>
              <LongitudeDegrees>-5.49050004221498966217041015625</LongitudeDegrees>
            </Position>
            <AltitudeMeters>266.20001220703125</AltitudeMeters>
            <DistanceMeters>NAN</DistanceMeters>
          </Trackpoint>
          <Trackpoint>
            <Time>2022-07-17T16:42:55.000Z</Time>
            <Position>
              <LatitudeDegrees>43.48232709802687168121337890625</LatitudeDegrees>
              <LongitudeDegrees>-5.49050875939428806304931640625</LongitudeDegrees>
            </Position>
            <AltitudeMeters>266.20001220703125</AltitudeMeters>
            <DistanceMeters>NAN</DistanceMeters>
          </Trackpoint>
          <Trackpoint>
            <Time>2022-07-17T16:43:02.000Z</Time>
            <Position>
              <LatitudeDegrees>43.4822379983961582183837890625</LatitudeDegrees>
              <LongitudeDegrees>-5.4905621521174907684326171875</LongitudeDegrees>
            </Position>
            <AltitudeMeters>267</AltitudeMeters>
            <DistanceMeters>NAN</DistanceMeters>
          </Trackpoint>
          <Trackpoint>
            <Time>2022-07-17T16:43:10.000Z</Time>
            <Position>
              <LatitudeDegrees>43.48213096149265766143798828125</LatitudeDegrees>
              <LongitudeDegrees>-5.4906479828059673309326171875</LongitudeDegrees>
            </Position>
            <AltitudeMeters>267.79998779296875</AltitudeMeters>
            <DistanceMeters>NAN</DistanceMeters>
          </Trackpoint>
          <Trackpoint>
            <Time>2022-07-17T16:43:12.000Z</Time>
            <Position>
              <LatitudeDegrees>43.48210363648831844329833984375</LatitudeDegrees>
              <LongitudeDegrees>-5.49067203886806964874267578125</LongitudeDegrees>
            </Position>
            <AltitudeMeters>268</AltitudeMeters>
            <DistanceMeters>NAN</DistanceMeters>
          </Trackpoint>
          <Trackpoint>
            <Time>2022-07-17T16:43:19.000Z</Time>
            <Position>
              <LatitudeDegrees>43.482020907104015350341796875</LatitudeDegrees>
              <LongitudeDegrees>-5.49077396281063556671142578125</LongitudeDegrees>
            </Position>
            <AltitudeMeters>269</AltitudeMeters>
            <DistanceMeters>NAN</DistanceMeters>
          </Trackpoint>
          <Trackpoint>
            <Time>2022-07-17T16:43:20.000Z</Time>
            <Position>
              <LatitudeDegrees>43.482008837163448333740234375</LatitudeDegrees>
              <LongitudeDegrees>-5.49078770913183689117431640625</LongitudeDegrees>
            </Position>
            <AltitudeMeters>269.20001220703125</AltitudeMeters>
            <DistanceMeters>NAN</DistanceMeters>
          </Trackpoint>
          <Trackpoint>
            <Time>2022-07-17T16:43:28.000Z</Time>
            <Position>
              <LatitudeDegrees>43.4819483198225498199462890625</LatitudeDegrees>
              <LongitudeDegrees>-5.49093305133283138275146484375</LongitudeDegrees>
            </Position>
            <AltitudeMeters>270.20001220703125</AltitudeMeters>
            <DistanceMeters>NAN</DistanceMeters>
          </Trackpoint>
          <Trackpoint>
            <Time>2022-07-17T16:43:34.000Z</Time>
            <Position>
              <LatitudeDegrees>43.48192543722689151763916015625</LatitudeDegrees>
              <LongitudeDegrees>-5.49105961807072162628173828125</LongitudeDegrees>
            </Position>
            <AltitudeMeters>270.79998779296875</AltitudeMeters>
            <DistanceMeters>NAN</DistanceMeters>
          </Trackpoint>
          <Trackpoint>
            <Time>2022-07-17T16:43:36.000Z</Time>
            <Position>
              <LatitudeDegrees>43.481909595429897308349609375</LatitudeDegrees>
              <LongitudeDegrees>-5.4910885356366634368896484375</LongitudeDegrees>
            </Position>
            <AltitudeMeters>271</AltitudeMeters>
            <DistanceMeters>NAN</DistanceMeters>
          </Trackpoint>
          <Trackpoint>
            <Time>2022-07-17T16:43:38.000Z</Time>
            <Position>
              <LatitudeDegrees>43.48190615884959697723388671875</LatitudeDegrees>
              <LongitudeDegrees>-5.491125583648681640625</LongitudeDegrees>
            </Position>
            <AltitudeMeters>271.399993896484375</AltitudeMeters>
            <DistanceMeters>NAN</DistanceMeters>
          </Trackpoint>
          <Trackpoint>
            <Time>2022-07-17T16:43:44.000Z</Time>
            <Position>
              <LatitudeDegrees>43.48189375363290309906005859375</LatitudeDegrees>
              <LongitudeDegrees>-5.491254329681396484375</LongitudeDegrees>
            </Position>
            <AltitudeMeters>272</AltitudeMeters>
            <DistanceMeters>NAN</DistanceMeters>
          </Trackpoint>
          <Trackpoint>
            <Time>2022-07-17T16:43:50.000Z</Time>
            <Position>
              <LatitudeDegrees>43.48187246359884738922119140625</LatitudeDegrees>
              <LongitudeDegrees>-5.49136094748973846435546875</LongitudeDegrees>
            </Position>
            <AltitudeMeters>272.399993896484375</AltitudeMeters>
            <DistanceMeters>NAN</DistanceMeters>
          </Trackpoint>
          <Trackpoint>
            <Time>2022-07-17T16:43:51.000Z</Time>
            <Position>
              <LatitudeDegrees>43.48186223767697811126708984375</LatitudeDegrees>
              <LongitudeDegrees>-5.49137829802930355072021484375</LongitudeDegrees>
            </Position>
            <AltitudeMeters>272.399993896484375</AltitudeMeters>
            <DistanceMeters>NAN</DistanceMeters>
          </Trackpoint>
          <Trackpoint>
            <Time>2022-07-17T16:43:56.000Z</Time>
            <Position>
              <LatitudeDegrees>43.48181714303791522979736328125</LatitudeDegrees>
              <LongitudeDegrees>-5.49145490862429141998291015625</LongitudeDegrees>
            </Position>
            <AltitudeMeters>273</AltitudeMeters>
            <DistanceMeters>NAN</DistanceMeters>
          </Trackpoint>
          <Trackpoint>
            <Time>2022-07-17T16:43:57.000Z</Time>
            <Position>
              <LatitudeDegrees>43.48181798122823238372802734375</LatitudeDegrees>
              <LongitudeDegrees>-5.49147427082061767578125</LongitudeDegrees>
            </Position>
            <AltitudeMeters>273</AltitudeMeters>
            <DistanceMeters>NAN</DistanceMeters>
          </Trackpoint>
          <Trackpoint>
            <Time>2022-07-17T16:43:59.000Z</Time>
            <Position>
              <LatitudeDegrees>43.481824435293674468994140625</LatitudeDegrees>
              <LongitudeDegrees>-5.49150285311043262481689453125</LongitudeDegrees>
            </Position>
            <AltitudeMeters>273.399993896484375</AltitudeMeters>
            <DistanceMeters>NAN</DistanceMeters>
          </Trackpoint>
          <Trackpoint>
            <Time>2022-07-17T16:44:00.000Z</Time>
            <Position>
              <LatitudeDegrees>43.48181345500051975250244140625</LatitudeDegrees>
              <LongitudeDegrees>-5.49150981009006500244140625</LongitudeDegrees>
            </Position>
            <AltitudeMeters>273.600006103515625</AltitudeMeters>
            <DistanceMeters>NAN</DistanceMeters>
          </Trackpoint>
          <Trackpoint>
            <Time>2022-07-17T16:44:02.000Z</Time>
            <Position>
              <LatitudeDegrees>43.48179124295711517333984375</LatitudeDegrees>
              <LongitudeDegrees>-5.4915321059525012969970703125</LongitudeDegrees>
            </Position>
            <AltitudeMeters>273.79998779296875</AltitudeMeters>
            <DistanceMeters>NAN</DistanceMeters>
          </Trackpoint>
          <Trackpoint>
            <Time>2022-07-17T16:44:05.000Z</Time>
            <Position>
              <LatitudeDegrees>43.48176718689501285552978515625</LatitudeDegrees>
              <LongitudeDegrees>-5.49156789667904376983642578125</LongitudeDegrees>
            </Position>
            <AltitudeMeters>274.20001220703125</AltitudeMeters>
            <DistanceMeters>NAN</DistanceMeters>
          </Trackpoint>
          <Trackpoint>
            <Time>2022-07-17T16:44:08.000Z</Time>
            <Position>
              <LatitudeDegrees>43.4817350842058658599853515625</LatitudeDegrees>
              <LongitudeDegrees>-5.4915834031999111175537109375</LongitudeDegrees>
            </Position>
            <AltitudeMeters>274.399993896484375</AltitudeMeters>
            <DistanceMeters>NAN</DistanceMeters>
          </Trackpoint>
          <Trackpoint>
            <Time>2022-07-17T16:44:10.000Z</Time>
            <Position>
              <LatitudeDegrees>43.481713123619556427001953125</LatitudeDegrees>
              <LongitudeDegrees>-5.4915921203792095184326171875</LongitudeDegrees>
            </Position>
            <AltitudeMeters>274.79998779296875</AltitudeMeters>
            <DistanceMeters>NAN</DistanceMeters>
          </Trackpoint>
          <Trackpoint>
            <Time>2022-07-17T16:44:11.000Z</Time>
            <Position>
              <LatitudeDegrees>43.48169644363224506378173828125</LatitudeDegrees>
              <LongitudeDegrees>-5.4915891028940677642822265625</LongitudeDegrees>
            </Position>
            <AltitudeMeters>275</AltitudeMeters>
            <DistanceMeters>NAN</DistanceMeters>
          </Trackpoint>
          <Trackpoint>
            <Time>2022-07-17T16:44:16.000Z</Time>
            <Position>
              <LatitudeDegrees>43.48166828043758869171142578125</LatitudeDegrees>
              <LongitudeDegrees>-5.49156940542161464691162109375</LongitudeDegrees>
            </Position>
            <AltitudeMeters>275.20001220703125</AltitudeMeters>
            <DistanceMeters>NAN</DistanceMeters>
          </Trackpoint>
          <Trackpoint>
            <Time>2022-07-17T16:44:17.000Z</Time>
            <Position>
              <LatitudeDegrees>43.4816680289804935455322265625</LatitudeDegrees>
              <LongitudeDegrees>-5.49156806431710720062255859375</LongitudeDegrees>
            </Position>
            <AltitudeMeters>275.20001220703125</AltitudeMeters>
            <DistanceMeters>NAN</DistanceMeters>
          </Trackpoint>
          <Trackpoint>
            <Time>2022-07-17T16:45:11.000Z</Time>
            <Position>
              <LatitudeDegrees>43.4815986268222332000732421875</LatitudeDegrees>
              <LongitudeDegrees>-5.4915723390877246856689453125</LongitudeDegrees>
            </Position>
            <AltitudeMeters>277</AltitudeMeters>
            <DistanceMeters>NAN</DistanceMeters>
          </Trackpoint>
          <Trackpoint>
            <Time>2022-07-17T16:45:13.000Z</Time>
            <Position>
              <LatitudeDegrees>43.48156468011438846588134765625</LatitudeDegrees>
              <LongitudeDegrees>-5.49158901907503604888916015625</LongitudeDegrees>
            </Position>
            <AltitudeMeters>277.399993896484375</AltitudeMeters>
            <DistanceMeters>NAN</DistanceMeters>
          </Trackpoint>
          <Trackpoint>
            <Time>2022-07-17T16:45:16.000Z</Time>
            <Position>
              <LatitudeDegrees>43.4815292246639728546142578125</LatitudeDegrees>
              <LongitudeDegrees>-5.49161483533680438995361328125</LongitudeDegrees>
            </Position>
            <AltitudeMeters>277.79998779296875</AltitudeMeters>
            <DistanceMeters>NAN</DistanceMeters>
          </Trackpoint>
          <Trackpoint>
            <Time>2022-07-17T16:45:17.000Z</Time>
            <Position>
              <LatitudeDegrees>43.48151723854243755340576171875</LatitudeDegrees>
              <LongitudeDegrees>-5.49162087030708789825439453125</LongitudeDegrees>
            </Position>
            <AltitudeMeters>278</AltitudeMeters>
            <DistanceMeters>NAN</DistanceMeters>
          </Trackpoint>
          <Trackpoint>
            <Time>2022-07-17T16:45:19.000Z</Time>
            <Position>
              <LatitudeDegrees>43.48148454912006855010986328125</LatitudeDegrees>
              <LongitudeDegrees>-5.49161500297486782073974609375</LongitudeDegrees>
            </Position>
            <AltitudeMeters>278.20001220703125</AltitudeMeters>
            <DistanceMeters>NAN</DistanceMeters>
          </Trackpoint>
          <Trackpoint>
            <Time>2022-07-17T16:45:20.000Z</Time>
            <Position>
              <LatitudeDegrees>43.4814695455133914947509765625</LatitudeDegrees>
              <LongitudeDegrees>-5.49161533825099468231201171875</LongitudeDegrees>
            </Position>
            <AltitudeMeters>278.399993896484375</AltitudeMeters>
            <DistanceMeters>NAN</DistanceMeters>
          </Trackpoint>
          <Trackpoint>
            <Time>2022-07-17T16:45:27.000Z</Time>
            <Position>
              <LatitudeDegrees>43.48140500485897064208984375</LatitudeDegrees>
              <LongitudeDegrees>-5.49167183227837085723876953125</LongitudeDegrees>
            </Position>
            <AltitudeMeters>279.399993896484375</AltitudeMeters>
            <DistanceMeters>NAN</DistanceMeters>
          </Trackpoint>
          <Trackpoint>
            <Time>2022-07-17T16:45:28.000Z</Time>
            <Position>
              <LatitudeDegrees>43.48139251582324504852294921875</LatitudeDegrees>
              <LongitudeDegrees>-5.49167987890541553497314453125</LongitudeDegrees>
            </Position>
            <AltitudeMeters>279.600006103515625</AltitudeMeters>
            <DistanceMeters>NAN</DistanceMeters>
          </Trackpoint>
          <Trackpoint>
            <Time>2022-07-17T16:45:33.000Z</Time>
            <Position>
              <LatitudeDegrees>43.48133032210171222686767578125</LatitudeDegrees>
              <LongitudeDegrees>-5.49169496633112430572509765625</LongitudeDegrees>
            </Position>
            <AltitudeMeters>280.20001220703125</AltitudeMeters>
            <DistanceMeters>NAN</DistanceMeters>
          </Trackpoint>
          <Trackpoint>
            <Time>2022-07-17T16:45:34.000Z</Time>
            <Position>
              <LatitudeDegrees>43.4813136421144008636474609375</LatitudeDegrees>
              <LongitudeDegrees>-5.49169966019690036773681640625</LongitudeDegrees>
            </Position>
            <AltitudeMeters>280.20001220703125</AltitudeMeters>
            <DistanceMeters>NAN</DistanceMeters>
          </Trackpoint>
          <Trackpoint>
            <Time>2022-07-17T16:45:36.000Z</Time>
            <Position>
              <LatitudeDegrees>43.48128288052976131439208984375</LatitudeDegrees>
              <LongitudeDegrees>-5.4917057789862155914306640625</LongitudeDegrees>
            </Position>
            <AltitudeMeters>280.399993896484375</AltitudeMeters>
            <DistanceMeters>NAN</DistanceMeters>
          </Trackpoint>
          <Trackpoint>
            <Time>2022-07-17T16:45:40.000Z</Time>
            <Position>
              <LatitudeDegrees>43.481231667101383209228515625</LatitudeDegrees>
              <LongitudeDegrees>-5.49170435406267642974853515625</LongitudeDegrees>
            </Position>
            <AltitudeMeters>280.79998779296875</AltitudeMeters>
            <DistanceMeters>NAN</DistanceMeters>
          </Trackpoint>
          <Trackpoint>
            <Time>2022-07-17T16:45:44.000Z</Time>
            <Position>
              <LatitudeDegrees>43.4811865724623203277587890625</LatitudeDegrees>
              <LongitudeDegrees>-5.49177392385900020599365234375</LongitudeDegrees>
            </Position>
            <AltitudeMeters>281.20001220703125</AltitudeMeters>
            <DistanceMeters>NAN</DistanceMeters>
          </Trackpoint>
          <Trackpoint>
            <Time>2022-07-17T16:45:45.000Z</Time>
            <Position>
              <LatitudeDegrees>43.4811721555888652801513671875</LatitudeDegrees>
              <LongitudeDegrees>-5.49178247340023517608642578125</LongitudeDegrees>
            </Position>
            <AltitudeMeters>281.399993896484375</AltitudeMeters>
            <DistanceMeters>NAN</DistanceMeters>
          </Trackpoint>
          <Trackpoint>
            <Time>2022-07-17T16:45:47.000Z</Time>
            <Position>
              <LatitudeDegrees>43.48113351501524448394775390625</LatitudeDegrees>
              <LongitudeDegrees>-5.49178884364664554595947265625</LongitudeDegrees>
            </Position>
            <AltitudeMeters>281.399993896484375</AltitudeMeters>
            <DistanceMeters>NAN</DistanceMeters>
          </Trackpoint>
          <Trackpoint>
            <Time>2022-07-17T16:45:48.000Z</Time>
            <Position>
              <LatitudeDegrees>43.4811215288937091827392578125</LatitudeDegrees>
              <LongitudeDegrees>-5.4918033443391323089599609375</LongitudeDegrees>
            </Position>
            <AltitudeMeters>281.600006103515625</AltitudeMeters>
            <DistanceMeters>NAN</DistanceMeters>
          </Trackpoint>
          <Trackpoint>
            <Time>2022-07-17T16:45:50.000Z</Time>
            <Position>
              <LatitudeDegrees>43.4811101295053958892822265625</LatitudeDegrees>
              <LongitudeDegrees>-5.49184533767402172088623046875</LongitudeDegrees>
            </Position>
            <AltitudeMeters>281.79998779296875</AltitudeMeters>
            <DistanceMeters>NAN</DistanceMeters>
          </Trackpoint>
          <Trackpoint>
            <Time>2022-07-17T16:45:56.000Z</Time>
            <Position>
              <LatitudeDegrees>43.4810652025043964385986328125</LatitudeDegrees>
              <LongitudeDegrees>-5.49193569459021091461181640625</LongitudeDegrees>
            </Position>
            <AltitudeMeters>282.600006103515625</AltitudeMeters>
            <DistanceMeters>NAN</DistanceMeters>
          </Trackpoint>
          <Trackpoint>
            <Time>2022-07-17T16:45:57.000Z</Time>
            <Position>
              <LatitudeDegrees>43.48105807788670063018798828125</LatitudeDegrees>
              <LongitudeDegrees>-5.4919485189020633697509765625</LongitudeDegrees>
            </Position>
            <AltitudeMeters>282.79998779296875</AltitudeMeters>
            <DistanceMeters>NAN</DistanceMeters>
          </Trackpoint>
          <Trackpoint>
            <Time>2022-07-17T16:46:02.000Z</Time>
            <Position>
              <LatitudeDegrees>43.4810021705925464630126953125</LatitudeDegrees>
              <LongitudeDegrees>-5.49201113171875476837158203125</LongitudeDegrees>
            </Position>
            <AltitudeMeters>283</AltitudeMeters>
            <DistanceMeters>NAN</DistanceMeters>
          </Trackpoint>
          <Trackpoint>
            <Time>2022-07-17T16:46:03.000Z</Time>
            <Position>
              <LatitudeDegrees>43.480994962155818939208984375</LatitudeDegrees>
              <LongitudeDegrees>-5.49202571623027324676513671875</LongitudeDegrees>
            </Position>
            <AltitudeMeters>283.20001220703125</AltitudeMeters>
            <DistanceMeters>NAN</DistanceMeters>
          </Trackpoint>
          <Trackpoint>
            <Time>2022-07-17T16:46:04.000Z</Time>
            <Position>
              <LatitudeDegrees>43.48099286668002605438232421875</LatitudeDegrees>
              <LongitudeDegrees>-5.492043904960155487060546875</LongitudeDegrees>
            </Position>
            <AltitudeMeters>283.399993896484375</AltitudeMeters>
            <DistanceMeters>NAN</DistanceMeters>
          </Trackpoint>
          <Trackpoint>
            <Time>2022-07-17T16:46:07.000Z</Time>
            <Position>
              <LatitudeDegrees>43.48098917864263057708740234375</LatitudeDegrees>
              <LongitudeDegrees>-5.49205966293811798095703125</LongitudeDegrees>
            </Position>
            <AltitudeMeters>283.399993896484375</AltitudeMeters>
            <DistanceMeters>NAN</DistanceMeters>
          </Trackpoint>
          <Trackpoint>
            <Time>2022-07-17T16:46:35.000Z</Time>
            <Position>
              <LatitudeDegrees>43.48090611398220062255859375</LatitudeDegrees>
              <LongitudeDegrees>-5.49204214476048946380615234375</LongitudeDegrees>
            </Position>
            <AltitudeMeters>284.20001220703125</AltitudeMeters>
            <DistanceMeters>NAN</DistanceMeters>
          </Trackpoint>
          <Trackpoint>
            <Time>2022-07-17T16:46:40.000Z</Time>
            <Position>
              <LatitudeDegrees>43.4808533079922199249267578125</LatitudeDegrees>
              <LongitudeDegrees>-5.4921111278235912322998046875</LongitudeDegrees>
            </Position>
            <AltitudeMeters>284.79998779296875</AltitudeMeters>
            <DistanceMeters>NAN</DistanceMeters>
          </Trackpoint>
          <Trackpoint>
            <Time>2022-07-17T16:46:42.000Z</Time>
            <Position>
              <LatitudeDegrees>43.48082925193011760711669921875</LatitudeDegrees>
              <LongitudeDegrees>-5.49212026409804821014404296875</LongitudeDegrees>
            </Position>
            <AltitudeMeters>285</AltitudeMeters>
            <DistanceMeters>NAN</DistanceMeters>
          </Trackpoint>
          <Trackpoint>
            <Time>2022-07-17T16:46:45.000Z</Time>
            <Position>
              <LatitudeDegrees>43.48079790361225605010986328125</LatitudeDegrees>
              <LongitudeDegrees>-5.49215219914913177490234375</LongitudeDegrees>
            </Position>
            <AltitudeMeters>285.399993896484375</AltitudeMeters>
            <DistanceMeters>NAN</DistanceMeters>
          </Trackpoint>
          <Trackpoint>
            <Time>2022-07-17T16:46:49.000Z</Time>
            <Position>
              <LatitudeDegrees>43.4807466901838779449462890625</LatitudeDegrees>
              <LongitudeDegrees>-5.4921959526836872100830078125</LongitudeDegrees>
            </Position>
            <AltitudeMeters>286.20001220703125</AltitudeMeters>
            <DistanceMeters>NAN</DistanceMeters>
          </Trackpoint>
          <Trackpoint>
            <Time>2022-07-17T16:46:51.000Z</Time>
            <Position>
              <LatitudeDegrees>43.4807198680937290191650390625</LatitudeDegrees>
              <LongitudeDegrees>-5.4922170750796794891357421875</LongitudeDegrees>
            </Position>
            <AltitudeMeters>286.399993896484375</AltitudeMeters>
            <DistanceMeters>NAN</DistanceMeters>
          </Trackpoint>
          <Trackpoint>
            <Time>2022-07-17T16:46:54.000Z</Time>
            <Position>
              <LatitudeDegrees>43.48068173043429851531982421875</LatitudeDegrees>
              <LongitudeDegrees>-5.4922428913414478302001953125</LongitudeDegrees>
            </Position>
            <AltitudeMeters>286.79998779296875</AltitudeMeters>
            <DistanceMeters>NAN</DistanceMeters>
          </Trackpoint>
          <Trackpoint>
            <Time>2022-07-17T16:46:56.000Z</Time>
            <Position>
              <LatitudeDegrees>43.48065692000091075897216796875</LatitudeDegrees>
              <LongitudeDegrees>-5.4922546260058879852294921875</LongitudeDegrees>
            </Position>
            <AltitudeMeters>287</AltitudeMeters>
            <DistanceMeters>NAN</DistanceMeters>
          </Trackpoint>
          <Trackpoint>
            <Time>2022-07-17T16:46:58.000Z</Time>
            <Position>
              <LatitudeDegrees>43.48062858916819095611572265625</LatitudeDegrees>
              <LongitudeDegrees>-5.4922683723270893096923828125</LongitudeDegrees>
            </Position>
            <AltitudeMeters>287.399993896484375</AltitudeMeters>
            <DistanceMeters>NAN</DistanceMeters>
          </Trackpoint>
          <Trackpoint>
            <Time>2022-07-17T16:46:59.000Z</Time>
            <Position>
              <LatitudeDegrees>43.48061551339924335479736328125</LatitudeDegrees>
              <LongitudeDegrees>-5.4922740720212459564208984375</LongitudeDegrees>
            </Position>
            <AltitudeMeters>287.399993896484375</AltitudeMeters>
            <DistanceMeters>NAN</DistanceMeters>
          </Trackpoint>
          <Trackpoint>
            <Time>2022-07-17T16:47:02.000Z</Time>
            <Position>
              <LatitudeDegrees>43.48056924529373645782470703125</LatitudeDegrees>
              <LongitudeDegrees>-5.4923049174249172210693359375</LongitudeDegrees>
            </Position>
            <AltitudeMeters>287.600006103515625</AltitudeMeters>
            <DistanceMeters>NAN</DistanceMeters>
          </Trackpoint>
          <Trackpoint>
            <Time>2022-07-17T16:47:04.000Z</Time>
            <Position>
              <LatitudeDegrees>43.48055046983063220977783203125</LatitudeDegrees>
              <LongitudeDegrees>-5.49231237731873989105224609375</LongitudeDegrees>
            </Position>
            <AltitudeMeters>287.79998779296875</AltitudeMeters>
            <DistanceMeters>NAN</DistanceMeters>
          </Trackpoint>
          <Trackpoint>
            <Time>2022-07-17T16:47:08.000Z</Time>
            <Position>
              <LatitudeDegrees>43.4805663116276264190673828125</LatitudeDegrees>
              <LongitudeDegrees>-5.492326878011226654052734375</LongitudeDegrees>
            </Position>
            <AltitudeMeters>288</AltitudeMeters>
            <DistanceMeters>NAN</DistanceMeters>
          </Trackpoint>
          <Trackpoint>
            <Time>2022-07-17T16:49:00.000Z</Time>
            <Position>
              <LatitudeDegrees>43.4805031120777130126953125</LatitudeDegrees>
              <LongitudeDegrees>-5.4923696257174015045166015625</LongitudeDegrees>
            </Position>
            <AltitudeMeters>290.399993896484375</AltitudeMeters>
            <DistanceMeters>NAN</DistanceMeters>
          </Trackpoint>
          <Trackpoint>
            <Time>2022-07-17T16:49:01.000Z</Time>
            <Position>
              <LatitudeDegrees>43.48048425279557704925537109375</LatitudeDegrees>
              <LongitudeDegrees>-5.4923773370683193206787109375</LongitudeDegrees>
            </Position>
            <AltitudeMeters>290.399993896484375</AltitudeMeters>
            <DistanceMeters>NAN</DistanceMeters>
          </Trackpoint>
          <Trackpoint>
            <Time>2022-07-17T16:49:03.000Z</Time>
            <Position>
              <LatitudeDegrees>43.4804436005651950836181640625</LatitudeDegrees>
              <LongitudeDegrees>-5.49239468760788440704345703125</LongitudeDegrees>
            </Position>
            <AltitudeMeters>291</AltitudeMeters>
            <DistanceMeters>NAN</DistanceMeters>
          </Trackpoint>
          <Trackpoint>
            <Time>2022-07-17T16:49:04.000Z</Time>
            <Position>
              <LatitudeDegrees>43.48042608238756656646728515625</LatitudeDegrees>
              <LongitudeDegrees>-5.49240726046264171600341796875</LongitudeDegrees>
            </Position>
            <AltitudeMeters>291</AltitudeMeters>
            <DistanceMeters>NAN</DistanceMeters>
          </Trackpoint>
          <Trackpoint>
            <Time>2022-07-17T16:49:06.000Z</Time>
            <Position>
              <LatitudeDegrees>43.4804038703441619873046875</LatitudeDegrees>
              <LongitudeDegrees>-5.49243651330471038818359375</LongitudeDegrees>
            </Position>
            <AltitudeMeters>291.399993896484375</AltitudeMeters>
            <DistanceMeters>NAN</DistanceMeters>
          </Trackpoint>
          <Trackpoint>
            <Time>2022-07-17T16:49:08.000Z</Time>
            <Position>
              <LatitudeDegrees>43.48038501106202602386474609375</LatitudeDegrees>
              <LongitudeDegrees>-5.49246978946030139923095703125</LongitudeDegrees>
            </Position>
            <AltitudeMeters>291.399993896484375</AltitudeMeters>
            <DistanceMeters>NAN</DistanceMeters>
          </Trackpoint>
          <Trackpoint>
            <Time>2022-07-17T16:49:14.000Z</Time>
            <Position>
              <LatitudeDegrees>43.4803158603608608245849609375</LatitudeDegrees>
              <LongitudeDegrees>-5.49255025573074817657470703125</LongitudeDegrees>
            </Position>
            <AltitudeMeters>292</AltitudeMeters>
            <DistanceMeters>NAN</DistanceMeters>
          </Trackpoint>
          <Trackpoint>
            <Time>2022-07-17T16:49:17.000Z</Time>
            <Position>
              <LatitudeDegrees>43.48028945736587047576904296875</LatitudeDegrees>
              <LongitudeDegrees>-5.49258696846663951873779296875</LongitudeDegrees>
            </Position>
            <AltitudeMeters>292.399993896484375</AltitudeMeters>
            <DistanceMeters>NAN</DistanceMeters>
          </Trackpoint>
          <Trackpoint>
            <Time>2022-07-17T16:49:22.000Z</Time>
            <Position>
              <LatitudeDegrees>43.4802427701652050018310546875</LatitudeDegrees>
              <LongitudeDegrees>-5.492672882974147796630859375</LongitudeDegrees>
            </Position>
            <AltitudeMeters>293</AltitudeMeters>
            <DistanceMeters>NAN</DistanceMeters>
          </Trackpoint>
          <Trackpoint>
            <Time>2022-07-17T16:49:24.000Z</Time>
            <Position>
              <LatitudeDegrees>43.48023128695785999298095703125</LatitudeDegrees>
              <LongitudeDegrees>-5.49271009862422943115234375</LongitudeDegrees>
            </Position>
            <AltitudeMeters>293.20001220703125</AltitudeMeters>
            <DistanceMeters>NAN</DistanceMeters>
          </Trackpoint>
          <Trackpoint>
            <Time>2022-07-17T16:49:27.000Z</Time>
            <Position>
              <LatitudeDegrees>43.48020111210644245147705078125</LatitudeDegrees>
              <LongitudeDegrees>-5.49275225959718227386474609375</LongitudeDegrees>
            </Position>
            <AltitudeMeters>293.399993896484375</AltitudeMeters>
            <DistanceMeters>NAN</DistanceMeters>
          </Trackpoint>
          <Trackpoint>
            <Time>2022-07-17T16:49:28.000Z</Time>
            <Position>
              <LatitudeDegrees>43.48019256256520748138427734375</LatitudeDegrees>
              <LongitudeDegrees>-5.4927595518529415130615234375</LongitudeDegrees>
            </Position>
            <AltitudeMeters>293.600006103515625</AltitudeMeters>
            <DistanceMeters>NAN</DistanceMeters>
          </Trackpoint>
          <Trackpoint>
            <Time>2022-07-17T16:49:32.000Z</Time>
            <Position>
              <LatitudeDegrees>43.48015182651579380035400390625</LatitudeDegrees>
              <LongitudeDegrees>-5.492815040051937103271484375</LongitudeDegrees>
            </Position>
            <AltitudeMeters>294</AltitudeMeters>
            <DistanceMeters>NAN</DistanceMeters>
          </Trackpoint>
          <Trackpoint>
            <Time>2022-07-17T16:49:34.000Z</Time>
            <Position>
              <LatitudeDegrees>43.48012919537723064422607421875</LatitudeDegrees>
              <LongitudeDegrees>-5.492840521037578582763671875</LongitudeDegrees>
            </Position>
            <AltitudeMeters>294.399993896484375</AltitudeMeters>
            <DistanceMeters>NAN</DistanceMeters>
          </Trackpoint>
          <Trackpoint>
            <Time>2022-07-17T16:49:37.000Z</Time>
            <Position>
              <LatitudeDegrees>43.48010958172380924224853515625</LatitudeDegrees>
              <LongitudeDegrees>-5.49289642833173274993896484375</LongitudeDegrees>
            </Position>
            <AltitudeMeters>294.79998779296875</AltitudeMeters>
            <DistanceMeters>NAN</DistanceMeters>
          </Trackpoint>
          <Trackpoint>
            <Time>2022-07-17T16:49:41.000Z</Time>
            <Position>
              <LatitudeDegrees>43.4800744615495204925537109375</LatitudeDegrees>
              <LongitudeDegrees>-5.4929788224399089813232421875</LongitudeDegrees>
            </Position>
            <AltitudeMeters>295.20001220703125</AltitudeMeters>
            <DistanceMeters>NAN</DistanceMeters>
          </Trackpoint>
          <Trackpoint>
            <Time>2022-07-17T16:49:46.000Z</Time>
            <Position>
              <LatitudeDegrees>43.480029366910457611083984375</LatitudeDegrees>
              <LongitudeDegrees>-5.49304998479783535003662109375</LongitudeDegrees>
            </Position>
            <AltitudeMeters>295.79998779296875</AltitudeMeters>
            <DistanceMeters>NAN</DistanceMeters>
          </Trackpoint>
          <Trackpoint>
            <Time>2022-07-17T16:49:49.000Z</Time>
            <Position>
              <LatitudeDegrees>43.47999759949743747711181640625</LatitudeDegrees>
              <LongitudeDegrees>-5.4930851049721240997314453125</LongitudeDegrees>
            </Position>
            <AltitudeMeters>296.399993896484375</AltitudeMeters>
            <DistanceMeters>NAN</DistanceMeters>
          </Trackpoint>
          <Trackpoint>
            <Time>2022-07-17T16:49:54.000Z</Time>
            <Position>
              <LatitudeDegrees>43.4799232520163059234619140625</LatitudeDegrees>
              <LongitudeDegrees>-5.4931441135704517364501953125</LongitudeDegrees>
            </Position>
            <AltitudeMeters>296.79998779296875</AltitudeMeters>
            <DistanceMeters>NAN</DistanceMeters>
          </Trackpoint>
          <Trackpoint>
            <Time>2022-07-17T16:49:57.000Z</Time>
            <Position>
              <LatitudeDegrees>43.47988494671881198883056640625</LatitudeDegrees>
              <LongitudeDegrees>-5.4931846819818019866943359375</LongitudeDegrees>
            </Position>
            <AltitudeMeters>297.20001220703125</AltitudeMeters>
            <DistanceMeters>NAN</DistanceMeters>
          </Trackpoint>
          <Trackpoint>
            <Time>2022-07-17T16:50:02.000Z</Time>
            <Position>
              <LatitudeDegrees>43.47983348183333873748779296875</LatitudeDegrees>
              <LongitudeDegrees>-5.4932493902742862701416015625</LongitudeDegrees>
            </Position>
            <AltitudeMeters>298</AltitudeMeters>
            <DistanceMeters>NAN</DistanceMeters>
          </Trackpoint>
          <Trackpoint>
            <Time>2022-07-17T16:50:04.000Z</Time>
            <Position>
              <LatitudeDegrees>43.4798045642673969268798828125</LatitudeDegrees>
              <LongitudeDegrees>-5.49327277578413486480712890625</LongitudeDegrees>
            </Position>
            <AltitudeMeters>298.20001220703125</AltitudeMeters>
            <DistanceMeters>NAN</DistanceMeters>
          </Trackpoint>
          <Trackpoint>
            <Time>2022-07-17T16:50:08.000Z</Time>
            <Position>
              <LatitudeDegrees>43.47974966280162334442138671875</LatitudeDegrees>
              <LongitudeDegrees>-5.493314266204833984375</LongitudeDegrees>
            </Position>
            <AltitudeMeters>298.600006103515625</AltitudeMeters>
            <DistanceMeters>NAN</DistanceMeters>
          </Trackpoint>
          <Trackpoint>
            <Time>2022-07-17T16:50:10.000Z</Time>
            <Position>
              <LatitudeDegrees>43.47972183488309383392333984375</LatitudeDegrees>
              <LongitudeDegrees>-5.4933493025600910186767578125</LongitudeDegrees>
            </Position>
            <AltitudeMeters>298.79998779296875</AltitudeMeters>
            <DistanceMeters>NAN</DistanceMeters>
          </Trackpoint>
          <Trackpoint>
            <Time>2022-07-17T16:50:11.000Z</Time>
            <Position>
              <LatitudeDegrees>43.479715548455715179443359375</LatitudeDegrees>
              <LongitudeDegrees>-5.49336849711835384368896484375</LongitudeDegrees>
            </Position>
            <AltitudeMeters>299</AltitudeMeters>
            <DistanceMeters>NAN</DistanceMeters>
          </Trackpoint>
          <Trackpoint>
            <Time>2022-07-17T16:50:17.000Z</Time>
            <Position>
              <LatitudeDegrees>43.4796449728310108184814453125</LatitudeDegrees>
              <LongitudeDegrees>-5.4934495501220226287841796875</LongitudeDegrees>
            </Position>
            <AltitudeMeters>300</AltitudeMeters>
            <DistanceMeters>NAN</DistanceMeters>
          </Trackpoint>
          <Trackpoint>
            <Time>2022-07-17T16:50:18.000Z</Time>
            <Position>
              <LatitudeDegrees>43.4796422906219959259033203125</LatitudeDegrees>
              <LongitudeDegrees>-5.49347109161317348480224609375</LongitudeDegrees>
            </Position>
            <AltitudeMeters>300.20001220703125</AltitudeMeters>
            <DistanceMeters>NAN</DistanceMeters>
          </Trackpoint>
          <Trackpoint>
            <Time>2022-07-17T16:50:25.000Z</Time>
            <Position>
              <LatitudeDegrees>43.47961194813251495361328125</LatitudeDegrees>
              <LongitudeDegrees>-5.4935972392559051513671875</LongitudeDegrees>
            </Position>
            <AltitudeMeters>301</AltitudeMeters>
            <DistanceMeters>NAN</DistanceMeters>
          </Trackpoint>
          <Trackpoint>
            <Time>2022-07-17T16:50:26.000Z</Time>
            <Position>
              <LatitudeDegrees>43.47960314713418483734130859375</LatitudeDegrees>
              <LongitudeDegrees>-5.49361106939613819122314453125</LongitudeDegrees>
            </Position>
            <AltitudeMeters>301.20001220703125</AltitudeMeters>
            <DistanceMeters>NAN</DistanceMeters>
          </Trackpoint>
          <Trackpoint>
            <Time>2022-07-17T16:50:33.000Z</Time>
            <Position>
              <LatitudeDegrees>43.4795629978179931640625</LatitudeDegrees>
              <LongitudeDegrees>-5.49372556619346141815185546875</LongitudeDegrees>
            </Position>
            <AltitudeMeters>302</AltitudeMeters>
            <DistanceMeters>NAN</DistanceMeters>
          </Trackpoint>
          <Trackpoint>
            <Time>2022-07-17T16:50:35.000Z</Time>
            <Position>
              <LatitudeDegrees>43.479547910392284393310546875</LatitudeDegrees>
              <LongitudeDegrees>-5.4937603510916233062744140625</LongitudeDegrees>
            </Position>
            <AltitudeMeters>302.20001220703125</AltitudeMeters>
            <DistanceMeters>NAN</DistanceMeters>
          </Trackpoint>
          <Trackpoint>
            <Time>2022-07-17T16:50:39.000Z</Time>
            <Position>
              <LatitudeDegrees>43.4795256145298480987548828125</LatitudeDegrees>
              <LongitudeDegrees>-5.493831932544708251953125</LongitudeDegrees>
            </Position>
            <AltitudeMeters>303</AltitudeMeters>
            <DistanceMeters>NAN</DistanceMeters>
          </Trackpoint>
          <Trackpoint>
            <Time>2022-07-17T16:50:40.000Z</Time>
            <Position>
              <LatitudeDegrees>43.4795168973505496978759765625</LatitudeDegrees>
              <LongitudeDegrees>-5.4938434995710849761962890625</LongitudeDegrees>
            </Position>
            <AltitudeMeters>303</AltitudeMeters>
            <DistanceMeters>NAN</DistanceMeters>
          </Trackpoint>
          <Trackpoint>
            <Time>2022-07-17T16:50:42.000Z</Time>
            <Position>
              <LatitudeDegrees>43.47948814742267131805419921875</LatitudeDegrees>
              <LongitudeDegrees>-5.4938669688999652862548828125</LongitudeDegrees>
            </Position>
            <AltitudeMeters>303.399993896484375</AltitudeMeters>
            <DistanceMeters>NAN</DistanceMeters>
          </Trackpoint>
          <Trackpoint>
            <Time>2022-07-17T16:50:47.000Z</Time>
            <Position>
              <LatitudeDegrees>43.47946199588477611541748046875</LatitudeDegrees>
              <LongitudeDegrees>-5.49396445043385028839111328125</LongitudeDegrees>
            </Position>
            <AltitudeMeters>304.20001220703125</AltitudeMeters>
            <DistanceMeters>NAN</DistanceMeters>
          </Trackpoint>
          <Trackpoint>
            <Time>2022-07-17T16:50:50.000Z</Time>
            <Position>
              <LatitudeDegrees>43.4794441424310207366943359375</LatitudeDegrees>
              <LongitudeDegrees>-5.494015999138355255126953125</LongitudeDegrees>
            </Position>
            <AltitudeMeters>304.600006103515625</AltitudeMeters>
            <DistanceMeters>NAN</DistanceMeters>
          </Trackpoint>
          <Trackpoint>
            <Time>2022-07-17T16:50:55.000Z</Time>
            <Position>
              <LatitudeDegrees>43.47942830063402652740478515625</LatitudeDegrees>
              <LongitudeDegrees>-5.49412035383284091949462890625</LongitudeDegrees>
            </Position>
            <AltitudeMeters>305.399993896484375</AltitudeMeters>
            <DistanceMeters>NAN</DistanceMeters>
          </Trackpoint>
          <Trackpoint>
            <Time>2022-07-17T16:50:58.000Z</Time>
            <Position>
              <LatitudeDegrees>43.47940810024738311767578125</LatitudeDegrees>
              <LongitudeDegrees>-5.49417936243116855621337890625</LongitudeDegrees>
            </Position>
            <AltitudeMeters>305.79998779296875</AltitudeMeters>
            <DistanceMeters>NAN</DistanceMeters>
          </Trackpoint>
          <Trackpoint>
            <Time>2022-07-17T16:51:02.000Z</Time>
            <Position>
              <LatitudeDegrees>43.4793935157358646392822265625</LatitudeDegrees>
              <LongitudeDegrees>-5.494271814823150634765625</LongitudeDegrees>
            </Position>
            <AltitudeMeters>306.20001220703125</AltitudeMeters>
            <DistanceMeters>NAN</DistanceMeters>
          </Trackpoint>
          <Trackpoint>
            <Time>2022-07-17T16:51:03.000Z</Time>
            <Position>
              <LatitudeDegrees>43.47939125262200832366943359375</LatitudeDegrees>
              <LongitudeDegrees>-5.4942961223423480987548828125</LongitudeDegrees>
            </Position>
            <AltitudeMeters>306.399993896484375</AltitudeMeters>
            <DistanceMeters>NAN</DistanceMeters>
          </Trackpoint>
          <Trackpoint>
            <Time>2022-07-17T16:51:05.000Z</Time>
            <Position>
              <LatitudeDegrees>43.47938152961432933807373046875</LatitudeDegrees>
              <LongitudeDegrees>-5.4943393729627132415771484375</LongitudeDegrees>
            </Position>
            <AltitudeMeters>307</AltitudeMeters>
            <DistanceMeters>NAN</DistanceMeters>
          </Trackpoint>
          <Trackpoint>
            <Time>2022-07-17T16:51:11.000Z</Time>
            <Position>
              <LatitudeDegrees>43.47937499172985553741455078125</LatitudeDegrees>
              <LongitudeDegrees>-5.4944597370922565460205078125</LongitudeDegrees>
            </Position>
            <AltitudeMeters>308</AltitudeMeters>
            <DistanceMeters>NAN</DistanceMeters>
          </Trackpoint>
          <Trackpoint>
            <Time>2022-07-17T16:51:12.000Z</Time>
            <Position>
              <LatitudeDegrees>43.479380272328853607177734375</LatitudeDegrees>
              <LongitudeDegrees>-5.494476668536663055419921875</LongitudeDegrees>
            </Position>
            <AltitudeMeters>308</AltitudeMeters>
            <DistanceMeters>NAN</DistanceMeters>
          </Trackpoint>
          <Trackpoint>
            <Time>2022-07-17T16:51:13.000Z</Time>
            <Position>
              <LatitudeDegrees>43.4793847985565662384033203125</LatitudeDegrees>
              <LongitudeDegrees>-5.4944929294288158416748046875</LongitudeDegrees>
            </Position>
            <AltitudeMeters>308.20001220703125</AltitudeMeters>
            <DistanceMeters>NAN</DistanceMeters>
          </Trackpoint>
          <Trackpoint>
            <Time>2022-07-17T16:51:18.000Z</Time>
            <Position>
              <LatitudeDegrees>43.479387648403644561767578125</LatitudeDegrees>
              <LongitudeDegrees>-5.49456752836704254150390625</LongitudeDegrees>
            </Position>
            <AltitudeMeters>308.600006103515625</AltitudeMeters>
            <DistanceMeters>NAN</DistanceMeters>
          </Trackpoint>
          <Trackpoint>
            <Time>2022-07-17T16:51:20.000Z</Time>
            <Position>
              <LatitudeDegrees>43.4793913364410400390625</LatitudeDegrees>
              <LongitudeDegrees>-5.49459376372396945953369140625</LongitudeDegrees>
            </Position>
            <AltitudeMeters>309</AltitudeMeters>
            <DistanceMeters>NAN</DistanceMeters>
          </Trackpoint>
          <Trackpoint>
            <Time>2022-07-17T16:51:23.000Z</Time>
            <Position>
              <LatitudeDegrees>43.47940080799162387847900390625</LatitudeDegrees>
              <LongitudeDegrees>-5.4946438036859035491943359375</LongitudeDegrees>
            </Position>
            <AltitudeMeters>309.399993896484375</AltitudeMeters>
            <DistanceMeters>NAN</DistanceMeters>
          </Trackpoint>
          <Trackpoint>
            <Time>2022-07-17T16:51:25.000Z</Time>
            <Position>
              <LatitudeDegrees>43.47940315492451190948486328125</LatitudeDegrees>
              <LongitudeDegrees>-5.49468160606920719146728515625</LongitudeDegrees>
            </Position>
            <AltitudeMeters>309.79998779296875</AltitudeMeters>
            <DistanceMeters>NAN</DistanceMeters>
          </Trackpoint>
          <Trackpoint>
            <Time>2022-07-17T16:51:27.000Z</Time>
            <Position>
              <LatitudeDegrees>43.47941438667476177215576171875</LatitudeDegrees>
              <LongitudeDegrees>-5.4947222582995891571044921875</LongitudeDegrees>
            </Position>
            <AltitudeMeters>310.20001220703125</AltitudeMeters>
            <DistanceMeters>NAN</DistanceMeters>
          </Trackpoint>
          <Trackpoint>
            <Time>2022-07-17T16:51:34.000Z</Time>
            <Position>
              <LatitudeDegrees>43.4794448129832744598388671875</LatitudeDegrees>
              <LongitudeDegrees>-5.4948654212057590484619140625</LongitudeDegrees>
            </Position>
            <AltitudeMeters>311.20001220703125</AltitudeMeters>
            <DistanceMeters>NAN</DistanceMeters>
          </Trackpoint>
          <Trackpoint>
            <Time>2022-07-17T16:51:36.000Z</Time>
            <Position>
              <LatitudeDegrees>43.47945529036223888397216796875</LatitudeDegrees>
              <LongitudeDegrees>-5.4949080012738704681396484375</LongitudeDegrees>
            </Position>
            <AltitudeMeters>311.399993896484375</AltitudeMeters>
            <DistanceMeters>NAN</DistanceMeters>
          </Trackpoint>
          <Trackpoint>
            <Time>2022-07-17T16:51:39.000Z</Time>
            <Position>
              <LatitudeDegrees>43.47947188653051853179931640625</LatitudeDegrees>
              <LongitudeDegrees>-5.494956113398075103759765625</LongitudeDegrees>
            </Position>
            <AltitudeMeters>312</AltitudeMeters>
            <DistanceMeters>NAN</DistanceMeters>
          </Trackpoint>
          <Trackpoint>
            <Time>2022-07-17T16:51:41.000Z</Time>
            <Position>
              <LatitudeDegrees>43.47948647104203701019287109375</LatitudeDegrees>
              <LongitudeDegrees>-5.4949847795069217681884765625</LongitudeDegrees>
            </Position>
            <AltitudeMeters>312.20001220703125</AltitudeMeters>
            <DistanceMeters>NAN</DistanceMeters>
          </Trackpoint>
          <Trackpoint>
            <Time>2022-07-17T16:51:46.000Z</Time>
            <Position>
              <LatitudeDegrees>43.47952033393085002899169921875</LatitudeDegrees>
              <LongitudeDegrees>-5.4950793273746967315673828125</LongitudeDegrees>
            </Position>
            <AltitudeMeters>312.79998779296875</AltitudeMeters>
            <DistanceMeters>NAN</DistanceMeters>
          </Trackpoint>
          <Trackpoint>
            <Time>2022-07-17T16:51:49.000Z</Time>
            <Position>
              <LatitudeDegrees>43.47954355180263519287109375</LatitudeDegrees>
              <LongitudeDegrees>-5.4951346479356288909912109375</LongitudeDegrees>
            </Position>
            <AltitudeMeters>313.399993896484375</AltitudeMeters>
            <DistanceMeters>NAN</DistanceMeters>
          </Trackpoint>
          <Trackpoint>
            <Time>2022-07-17T16:51:55.000Z</Time>
            <Position>
              <LatitudeDegrees>43.47959208302199840545654296875</LatitudeDegrees>
              <LongitudeDegrees>-5.4952419362962245941162109375</LongitudeDegrees>
            </Position>
            <AltitudeMeters>314.399993896484375</AltitudeMeters>
            <DistanceMeters>NAN</DistanceMeters>
          </Trackpoint>
          <Trackpoint>
            <Time>2022-07-17T16:51:58.000Z</Time>
            <Position>
              <LatitudeDegrees>43.4796147979795932769775390625</LatitudeDegrees>
              <LongitudeDegrees>-5.49529147334396839141845703125</LongitudeDegrees>
            </Position>
            <AltitudeMeters>314.79998779296875</AltitudeMeters>
            <DistanceMeters>NAN</DistanceMeters>
          </Trackpoint>
          <Trackpoint>
            <Time>2022-07-17T16:52:03.000Z</Time>
            <Position>
              <LatitudeDegrees>43.4796422906219959259033203125</LatitudeDegrees>
              <LongitudeDegrees>-5.49538417719304561614990234375</LongitudeDegrees>
            </Position>
            <AltitudeMeters>315.399993896484375</AltitudeMeters>
            <DistanceMeters>NAN</DistanceMeters>
          </Trackpoint>
          <Trackpoint>
            <Time>2022-07-17T16:52:04.000Z</Time>
            <Position>
              <LatitudeDegrees>43.4796523489058017730712890625</LatitudeDegrees>
              <LongitudeDegrees>-5.49539792351424694061279296875</LongitudeDegrees>
            </Position>
            <AltitudeMeters>315.600006103515625</AltitudeMeters>
            <DistanceMeters>NAN</DistanceMeters>
          </Trackpoint>
          <Trackpoint>
            <Time>2022-07-17T16:52:08.000Z</Time>
            <Position>
              <LatitudeDegrees>43.4796808473765850067138671875</LatitudeDegrees>
              <LongitudeDegrees>-5.4954640567302703857421875</LongitudeDegrees>
            </Position>
            <AltitudeMeters>316.399993896484375</AltitudeMeters>
            <DistanceMeters>NAN</DistanceMeters>
          </Trackpoint>
          <Trackpoint>
            <Time>2022-07-17T16:52:13.000Z</Time>
            <Position>
              <LatitudeDegrees>43.47973532974720001220703125</LatitudeDegrees>
              <LongitudeDegrees>-5.4955403320491313934326171875</LongitudeDegrees>
            </Position>
            <AltitudeMeters>317.20001220703125</AltitudeMeters>
            <DistanceMeters>NAN</DistanceMeters>
          </Trackpoint>
          <Trackpoint>
            <Time>2022-07-17T16:52:17.000Z</Time>
            <Position>
              <LatitudeDegrees>43.47976692952215671539306640625</LatitudeDegrees>
              <LongitudeDegrees>-5.495605878531932830810546875</LongitudeDegrees>
            </Position>
            <AltitudeMeters>317.600006103515625</AltitudeMeters>
            <DistanceMeters>NAN</DistanceMeters>
          </Trackpoint>
          <Trackpoint>
            <Time>2022-07-17T16:52:22.000Z</Time>
            <Position>
              <LatitudeDegrees>43.479810766875743865966796875</LatitudeDegrees>
              <LongitudeDegrees>-5.495671592652797698974609375</LongitudeDegrees>
            </Position>
            <AltitudeMeters>318.20001220703125</AltitudeMeters>
            <DistanceMeters>NAN</DistanceMeters>
          </Trackpoint>
          <Trackpoint>
            <Time>2022-07-17T16:52:26.000Z</Time>
            <Position>
              <LatitudeDegrees>43.47984722815454006195068359375</LatitudeDegrees>
              <LongitudeDegrees>-5.49575532786548137664794921875</LongitudeDegrees>
            </Position>
            <AltitudeMeters>318.79998779296875</AltitudeMeters>
            <DistanceMeters>NAN</DistanceMeters>
          </Trackpoint>
          <Trackpoint>
            <Time>2022-07-17T16:52:29.000Z</Time>
            <Position>
              <LatitudeDegrees>43.4798692725598812103271484375</LatitudeDegrees>
              <LongitudeDegrees>-5.49580411054193973541259765625</LongitudeDegrees>
            </Position>
            <AltitudeMeters>319.20001220703125</AltitudeMeters>
            <DistanceMeters>NAN</DistanceMeters>
          </Trackpoint>
          <Trackpoint>
            <Time>2022-07-17T16:52:34.000Z</Time>
            <Position>
              <LatitudeDegrees>43.47990673966705799102783203125</LatitudeDegrees>
              <LongitudeDegrees>-5.495888851583003997802734375</LongitudeDegrees>
            </Position>
            <AltitudeMeters>319.79998779296875</AltitudeMeters>
            <DistanceMeters>NAN</DistanceMeters>
          </Trackpoint>
          <Trackpoint>
            <Time>2022-07-17T16:52:36.000Z</Time>
            <Position>
              <LatitudeDegrees>43.479922749102115631103515625</LatitudeDegrees>
              <LongitudeDegrees>-5.49592061899602413177490234375</LongitudeDegrees>
            </Position>
            <AltitudeMeters>320.20001220703125</AltitudeMeters>
            <DistanceMeters>NAN</DistanceMeters>
          </Trackpoint>
          <Trackpoint>
            <Time>2022-07-17T16:52:41.000Z</Time>
            <Position>
              <LatitudeDegrees>43.47997798584401607513427734375</LatitudeDegrees>
              <LongitudeDegrees>-5.4959924519062042236328125</LongitudeDegrees>
            </Position>
            <AltitudeMeters>321</AltitudeMeters>
            <DistanceMeters>NAN</DistanceMeters>
          </Trackpoint>
          <Trackpoint>
            <Time>2022-07-17T16:52:44.000Z</Time>
            <Position>
              <LatitudeDegrees>43.4800121001899242401123046875</LatitudeDegrees>
              <LongitudeDegrees>-5.4960487782955169677734375</LongitudeDegrees>
            </Position>
            <AltitudeMeters>321.399993896484375</AltitudeMeters>
            <DistanceMeters>NAN</DistanceMeters>
          </Trackpoint>
          <Trackpoint>
            <Time>2022-07-17T16:52:48.000Z</Time>
            <Position>
              <LatitudeDegrees>43.48004110157489776611328125</LatitudeDegrees>
              <LongitudeDegrees>-5.49612429924309253692626953125</LongitudeDegrees>
            </Position>
            <AltitudeMeters>321.79998779296875</AltitudeMeters>
            <DistanceMeters>NAN</DistanceMeters>
          </Trackpoint>
          <Trackpoint>
            <Time>2022-07-17T16:52:50.000Z</Time>
            <Position>
              <LatitudeDegrees>43.48005711100995540618896484375</LatitudeDegrees>
              <LongitudeDegrees>-5.49616117961704730987548828125</LongitudeDegrees>
            </Position>
            <AltitudeMeters>322.20001220703125</AltitudeMeters>
            <DistanceMeters>NAN</DistanceMeters>
          </Trackpoint>
          <Trackpoint>
            <Time>2022-07-17T16:52:52.000Z</Time>
            <Position>
              <LatitudeDegrees>43.48007102496922016143798828125</LatitudeDegrees>
              <LongitudeDegrees>-5.4961961321532726287841796875</LongitudeDegrees>
            </Position>
            <AltitudeMeters>322.20001220703125</AltitudeMeters>
            <DistanceMeters>NAN</DistanceMeters>
          </Trackpoint>
          <Trackpoint>
            <Time>2022-07-17T16:53:01.000Z</Time>
            <Position>
              <LatitudeDegrees>43.48007940687239170074462890625</LatitudeDegrees>
              <LongitudeDegrees>-5.4963706433773040771484375</LongitudeDegrees>
            </Position>
            <AltitudeMeters>322.79998779296875</AltitudeMeters>
            <DistanceMeters>NAN</DistanceMeters>
          </Trackpoint>
          <Trackpoint>
            <Time>2022-07-17T16:53:03.000Z</Time>
            <Position>
              <LatitudeDegrees>43.48008577711880207061767578125</LatitudeDegrees>
              <LongitudeDegrees>-5.4964033327996730804443359375</LongitudeDegrees>
            </Position>
            <AltitudeMeters>323</AltitudeMeters>
            <DistanceMeters>NAN</DistanceMeters>
          </Trackpoint>
          <Trackpoint>
            <Time>2022-07-17T16:53:04.000Z</Time>
            <Position>
              <LatitudeDegrees>43.4800861962139606475830078125</LatitudeDegrees>
              <LongitudeDegrees>-5.49642068333923816680908203125</LongitudeDegrees>
            </Position>
            <AltitudeMeters>323.20001220703125</AltitudeMeters>
            <DistanceMeters>NAN</DistanceMeters>
          </Trackpoint>
          <Trackpoint>
            <Time>2022-07-17T16:53:07.000Z</Time>
            <Position>
              <LatitudeDegrees>43.4800633974373340606689453125</LatitudeDegrees>
              <LongitudeDegrees>-5.49646711908280849456787109375</LongitudeDegrees>
            </Position>
            <AltitudeMeters>323.399993896484375</AltitudeMeters>
            <DistanceMeters>NAN</DistanceMeters>
          </Trackpoint>
          <Trackpoint>
            <Time>2022-07-17T16:53:11.000Z</Time>
            <Position>
              <LatitudeDegrees>43.4800147823989391326904296875</LatitudeDegrees>
              <LongitudeDegrees>-5.49651187844574451446533203125</LongitudeDegrees>
            </Position>
            <AltitudeMeters>324.399993896484375</AltitudeMeters>
            <DistanceMeters>NAN</DistanceMeters>
          </Trackpoint>
          <Trackpoint>
            <Time>2022-07-17T16:53:12.000Z</Time>
            <Position>
              <LatitudeDegrees>43.48000480793416500091552734375</LatitudeDegrees>
              <LongitudeDegrees>-5.49652419984340667724609375</LongitudeDegrees>
            </Position>
            <AltitudeMeters>324.600006103515625</AltitudeMeters>
            <DistanceMeters>NAN</DistanceMeters>
          </Trackpoint>
          <Trackpoint>
            <Time>2022-07-17T16:53:16.000Z</Time>
            <Position>
              <LatitudeDegrees>43.47996390424668788909912109375</LatitudeDegrees>
              <LongitudeDegrees>-5.49656921066343784332275390625</LongitudeDegrees>
            </Position>
            <AltitudeMeters>325.20001220703125</AltitudeMeters>
            <DistanceMeters>NAN</DistanceMeters>
          </Trackpoint>
          <Trackpoint>
            <Time>2022-07-17T16:53:18.000Z</Time>
            <Position>
              <LatitudeDegrees>43.479940854012966156005859375</LatitudeDegrees>
              <LongitudeDegrees>-5.49659267999231815338134765625</LongitudeDegrees>
            </Position>
            <AltitudeMeters>325.399993896484375</AltitudeMeters>
            <DistanceMeters>NAN</DistanceMeters>
          </Trackpoint>
          <Trackpoint>
            <Time>2022-07-17T16:53:22.000Z</Time>
            <Position>
              <LatitudeDegrees>43.47989559173583984375</LatitudeDegrees>
              <LongitudeDegrees>-5.49663173966109752655029296875</LongitudeDegrees>
            </Position>
            <AltitudeMeters>326</AltitudeMeters>
            <DistanceMeters>NAN</DistanceMeters>
          </Trackpoint>
          <Trackpoint>
            <Time>2022-07-17T16:53:26.000Z</Time>
            <Position>
              <LatitudeDegrees>43.47983934916555881500244140625</LatitudeDegrees>
              <LongitudeDegrees>-5.49666543491184711456298828125</LongitudeDegrees>
            </Position>
            <AltitudeMeters>326.600006103515625</AltitudeMeters>
            <DistanceMeters>NAN</DistanceMeters>
          </Trackpoint>
          <Trackpoint>
            <Time>2022-07-17T16:53:33.000Z</Time>
            <Position>
              <LatitudeDegrees>43.47976122982800006866455078125</LatitudeDegrees>
              <LongitudeDegrees>-5.49673701636493206024169921875</LongitudeDegrees>
            </Position>
            <AltitudeMeters>327.600006103515625</AltitudeMeters>
            <DistanceMeters>NAN</DistanceMeters>
          </Trackpoint>
          <Trackpoint>
            <Time>2022-07-17T16:53:36.000Z</Time>
            <Position>
              <LatitudeDegrees>43.47973675467073917388916015625</LatitudeDegrees>
              <LongitudeDegrees>-5.49678445793688297271728515625</LongitudeDegrees>
            </Position>
            <AltitudeMeters>328</AltitudeMeters>
            <DistanceMeters>NAN</DistanceMeters>
          </Trackpoint>
          <Trackpoint>
            <Time>2022-07-17T16:53:42.000Z</Time>
            <Position>
              <LatitudeDegrees>43.47967539913952350616455078125</LatitudeDegrees>
              <LongitudeDegrees>-5.49687850289046764373779296875</LongitudeDegrees>
            </Position>
            <AltitudeMeters>328.600006103515625</AltitudeMeters>
            <DistanceMeters>NAN</DistanceMeters>
          </Trackpoint>
          <Trackpoint>
            <Time>2022-07-17T16:53:45.000Z</Time>
            <Position>
              <LatitudeDegrees>43.4796533547341823577880859375</LatitudeDegrees>
              <LongitudeDegrees>-5.4969339072704315185546875</LongitudeDegrees>
            </Position>
            <AltitudeMeters>329.20001220703125</AltitudeMeters>
            <DistanceMeters>NAN</DistanceMeters>
          </Trackpoint>
          <Trackpoint>
            <Time>2022-07-17T16:53:49.000Z</Time>
            <Position>
              <LatitudeDegrees>43.4796295501291751861572265625</LatitudeDegrees>
              <LongitudeDegrees>-5.49700775183737277984619140625</LongitudeDegrees>
            </Position>
            <AltitudeMeters>329.600006103515625</AltitudeMeters>
            <DistanceMeters>NAN</DistanceMeters>
          </Trackpoint>
          <Trackpoint>
            <Time>2022-07-17T16:53:54.000Z</Time>
            <Position>
              <LatitudeDegrees>43.4796282090246677398681640625</LatitudeDegrees>
              <LongitudeDegrees>-5.49709743820130825042724609375</LongitudeDegrees>
            </Position>
            <AltitudeMeters>330.600006103515625</AltitudeMeters>
            <DistanceMeters>NAN</DistanceMeters>
          </Trackpoint>
          <Trackpoint>
            <Time>2022-07-17T16:53:55.000Z</Time>
            <Position>
              <LatitudeDegrees>43.47962913103401660919189453125</LatitudeDegrees>
              <LongitudeDegrees>-5.49711872823536396026611328125</LongitudeDegrees>
            </Position>
            <AltitudeMeters>330.600006103515625</AltitudeMeters>
            <DistanceMeters>NAN</DistanceMeters>
          </Trackpoint>
          <Trackpoint>
            <Time>2022-07-17T16:54:00.000Z</Time>
            <Position>
              <LatitudeDegrees>43.47965209744870662689208984375</LatitudeDegrees>
              <LongitudeDegrees>-5.49721009097993373870849609375</LongitudeDegrees>
            </Position>
            <AltitudeMeters>331.399993896484375</AltitudeMeters>
            <DistanceMeters>NAN</DistanceMeters>
          </Trackpoint>
          <Trackpoint>
            <Time>2022-07-17T16:54:02.000Z</Time>
            <Position>
              <LatitudeDegrees>43.4796526841819286346435546875</LatitudeDegrees>
              <LongitudeDegrees>-5.49721545539796352386474609375</LongitudeDegrees>
            </Position>
            <AltitudeMeters>331.600006103515625</AltitudeMeters>
            <DistanceMeters>NAN</DistanceMeters>
          </Trackpoint>
          <Trackpoint>
            <Time>2022-07-17T16:54:03.000Z</Time>
            <Position>
              <LatitudeDegrees>43.479650504887104034423828125</LatitudeDegrees>
              <LongitudeDegrees>-5.497217215597629547119140625</LongitudeDegrees>
            </Position>
            <AltitudeMeters>331.600006103515625</AltitudeMeters>
            <DistanceMeters>NAN</DistanceMeters>
          </Trackpoint>
          <Trackpoint>
            <Time>2022-07-17T16:54:33.000Z</Time>
            <Position>
              <LatitudeDegrees>43.47964773885905742645263671875</LatitudeDegrees>
              <LongitudeDegrees>-5.497272200882434844970703125</LongitudeDegrees>
            </Position>
            <AltitudeMeters>331.79998779296875</AltitudeMeters>
            <DistanceMeters>NAN</DistanceMeters>
          </Trackpoint>
          <Trackpoint>
            <Time>2022-07-17T16:54:34.000Z</Time>
            <Position>
              <LatitudeDegrees>43.47965159453451633453369140625</LatitudeDegrees>
              <LongitudeDegrees>-5.49729659222066402435302734375</LongitudeDegrees>
            </Position>
            <AltitudeMeters>332</AltitudeMeters>
            <DistanceMeters>NAN</DistanceMeters>
          </Trackpoint>
          <Trackpoint>
            <Time>2022-07-17T16:54:35.000Z</Time>
            <Position>
              <LatitudeDegrees>43.47965645603835582733154296875</LatitudeDegrees>
              <LongitudeDegrees>-5.49732022918760776519775390625</LongitudeDegrees>
            </Position>
            <AltitudeMeters>332</AltitudeMeters>
            <DistanceMeters>NAN</DistanceMeters>
          </Trackpoint>
          <Trackpoint>
            <Time>2022-07-17T16:54:39.000Z</Time>
            <Position>
              <LatitudeDegrees>43.47969082184135913848876953125</LatitudeDegrees>
              <LongitudeDegrees>-5.49740262329578399658203125</LongitudeDegrees>
            </Position>
            <AltitudeMeters>332.600006103515625</AltitudeMeters>
            <DistanceMeters>NAN</DistanceMeters>
          </Trackpoint>
          <Trackpoint>
            <Time>2022-07-17T16:54:41.000Z</Time>
            <Position>
              <LatitudeDegrees>43.4797090105712413787841796875</LatitudeDegrees>
              <LongitudeDegrees>-5.49744729883968830108642578125</LongitudeDegrees>
            </Position>
            <AltitudeMeters>333</AltitudeMeters>
            <DistanceMeters>NAN</DistanceMeters>
          </Trackpoint>
          <Trackpoint>
            <Time>2022-07-17T16:54:43.000Z</Time>
            <Position>
              <LatitudeDegrees>43.4797279536724090576171875</LatitudeDegrees>
              <LongitudeDegrees>-5.49748887307941913604736328125</LongitudeDegrees>
            </Position>
            <AltitudeMeters>333.20001220703125</AltitudeMeters>
            <DistanceMeters>NAN</DistanceMeters>
          </Trackpoint>
          <Trackpoint>
            <Time>2022-07-17T16:54:49.000Z</Time>
            <Position>
              <LatitudeDegrees>43.479763157665729522705078125</LatitudeDegrees>
              <LongitudeDegrees>-5.49761225469410419464111328125</LongitudeDegrees>
            </Position>
            <AltitudeMeters>333.79998779296875</AltitudeMeters>
            <DistanceMeters>NAN</DistanceMeters>
          </Trackpoint>
          <Trackpoint>
            <Time>2022-07-17T16:54:50.000Z</Time>
            <Position>
              <LatitudeDegrees>43.47976692952215671539306640625</LatitudeDegrees>
              <LongitudeDegrees>-5.49763220362365245819091796875</LongitudeDegrees>
            </Position>
            <AltitudeMeters>334</AltitudeMeters>
            <DistanceMeters>NAN</DistanceMeters>
          </Trackpoint>
          <Trackpoint>
            <Time>2022-07-17T16:54:53.000Z</Time>
            <Position>
              <LatitudeDegrees>43.47978763282299041748046875</LatitudeDegrees>
              <LongitudeDegrees>-5.49768635071814060211181640625</LongitudeDegrees>
            </Position>
            <AltitudeMeters>334.399993896484375</AltitudeMeters>
            <DistanceMeters>NAN</DistanceMeters>
          </Trackpoint>
          <Trackpoint>
            <Time>2022-07-17T16:55:00.000Z</Time>
            <Position>
              <LatitudeDegrees>43.479791320860385894775390625</LatitudeDegrees>
              <LongitudeDegrees>-5.49781861715018749237060546875</LongitudeDegrees>
            </Position>
            <AltitudeMeters>335</AltitudeMeters>
            <DistanceMeters>NAN</DistanceMeters>
          </Trackpoint>
          <Trackpoint>
            <Time>2022-07-17T16:55:01.000Z</Time>
            <Position>
              <LatitudeDegrees>43.4797896444797515869140625</LatitudeDegrees>
              <LongitudeDegrees>-5.4978378117084503173828125</LongitudeDegrees>
            </Position>
            <AltitudeMeters>335.20001220703125</AltitudeMeters>
            <DistanceMeters>NAN</DistanceMeters>
          </Trackpoint>
          <Trackpoint>
            <Time>2022-07-17T16:55:02.000Z</Time>
            <Position>
              <LatitudeDegrees>43.4797861240804195404052734375</LatitudeDegrees>
              <LongitudeDegrees>-5.49785457551479339599609375</LongitudeDegrees>
            </Position>
            <AltitudeMeters>335.20001220703125</AltitudeMeters>
            <DistanceMeters>NAN</DistanceMeters>
          </Trackpoint>
          <Trackpoint>
            <Time>2022-07-17T16:55:07.000Z</Time>
            <Position>
              <LatitudeDegrees>43.479741699993610382080078125</LatitudeDegrees>
              <LongitudeDegrees>-5.49794350750744342803955078125</LongitudeDegrees>
            </Position>
            <AltitudeMeters>335.79998779296875</AltitudeMeters>
            <DistanceMeters>NAN</DistanceMeters>
          </Trackpoint>
          <Trackpoint>
            <Time>2022-07-17T16:55:11.000Z</Time>
            <Position>
              <LatitudeDegrees>43.47969803027808666229248046875</LatitudeDegrees>
              <LongitudeDegrees>-5.49800871871411800384521484375</LongitudeDegrees>
            </Position>
            <AltitudeMeters>336.20001220703125</AltitudeMeters>
            <DistanceMeters>NAN</DistanceMeters>
          </Trackpoint>
          <Trackpoint>
            <Time>2022-07-17T16:55:16.000Z</Time>
            <Position>
              <LatitudeDegrees>43.47963533364236354827880859375</LatitudeDegrees>
              <LongitudeDegrees>-5.4980807192623615264892578125</LongitudeDegrees>
            </Position>
            <AltitudeMeters>336.600006103515625</AltitudeMeters>
            <DistanceMeters>NAN</DistanceMeters>
          </Trackpoint>
          <Trackpoint>
            <Time>2022-07-17T16:55:23.000Z</Time>
            <Position>
              <LatitudeDegrees>43.47951379604637622833251953125</LatitudeDegrees>
              <LongitudeDegrees>-5.49814081750810146331787109375</LongitudeDegrees>
            </Position>
            <AltitudeMeters>337.20001220703125</AltitudeMeters>
            <DistanceMeters>NAN</DistanceMeters>
          </Trackpoint>
          <Trackpoint>
            <Time>2022-07-17T16:55:24.000Z</Time>
            <Position>
              <LatitudeDegrees>43.47949921153485774993896484375</LatitudeDegrees>
              <LongitudeDegrees>-5.49814869649708271026611328125</LongitudeDegrees>
            </Position>
            <AltitudeMeters>337.20001220703125</AltitudeMeters>
            <DistanceMeters>NAN</DistanceMeters>
          </Trackpoint>
          <Trackpoint>
            <Time>2022-07-17T16:55:32.000Z</Time>
            <Position>
              <LatitudeDegrees>43.47939896397292613983154296875</LatitudeDegrees>
              <LongitudeDegrees>-5.49825782887637615203857421875</LongitudeDegrees>
            </Position>
            <AltitudeMeters>338</AltitudeMeters>
            <DistanceMeters>NAN</DistanceMeters>
          </Trackpoint>
          <Trackpoint>
            <Time>2022-07-17T16:55:37.000Z</Time>
            <Position>
              <LatitudeDegrees>43.47934867255389690399169921875</LatitudeDegrees>
              <LongitudeDegrees>-5.49834667704999446868896484375</LongitudeDegrees>
            </Position>
            <AltitudeMeters>338</AltitudeMeters>
            <DistanceMeters>NAN</DistanceMeters>
          </Trackpoint>
          <Trackpoint>
            <Time>2022-07-17T16:55:41.000Z</Time>
            <Position>
              <LatitudeDegrees>43.4793103672564029693603515625</LatitudeDegrees>
              <LongitudeDegrees>-5.49843451939523220062255859375</LongitudeDegrees>
            </Position>
            <AltitudeMeters>338.399993896484375</AltitudeMeters>
            <DistanceMeters>NAN</DistanceMeters>
          </Trackpoint>
          <Trackpoint>
            <Time>2022-07-17T16:55:42.000Z</Time>
            <Position>
              <LatitudeDegrees>43.4793026559054851531982421875</LatitudeDegrees>
              <LongitudeDegrees>-5.498455725610256195068359375</LongitudeDegrees>
            </Position>
            <AltitudeMeters>338.399993896484375</AltitudeMeters>
            <DistanceMeters>NAN</DistanceMeters>
          </Trackpoint>
          <Trackpoint>
            <Time>2022-07-17T16:55:48.000Z</Time>
            <Position>
              <LatitudeDegrees>43.47925747744739055633544921875</LatitudeDegrees>
              <LongitudeDegrees>-5.49860551021993160247802734375</LongitudeDegrees>
            </Position>
            <AltitudeMeters>338.600006103515625</AltitudeMeters>
            <DistanceMeters>NAN</DistanceMeters>
          </Trackpoint>
          <Trackpoint>
            <Time>2022-07-17T16:55:50.000Z</Time>
            <Position>
              <LatitudeDegrees>43.47924557514488697052001953125</LatitudeDegrees>
              <LongitudeDegrees>-5.498655550181865692138671875</LongitudeDegrees>
            </Position>
            <AltitudeMeters>338.79998779296875</AltitudeMeters>
            <DistanceMeters>NAN</DistanceMeters>
          </Trackpoint>
          <Trackpoint>
            <Time>2022-07-17T16:55:54.000Z</Time>
            <Position>
              <LatitudeDegrees>43.47922478802502155303955078125</LatitudeDegrees>
              <LongitudeDegrees>-5.4987720586359500885009765625</LongitudeDegrees>
            </Position>
            <AltitudeMeters>338.79998779296875</AltitudeMeters>
            <DistanceMeters>NAN</DistanceMeters>
          </Trackpoint>
          <Trackpoint>
            <Time>2022-07-17T16:55:59.000Z</Time>
            <Position>
              <LatitudeDegrees>43.479182459414005279541015625</LatitudeDegrees>
              <LongitudeDegrees>-5.49891999922692775726318359375</LongitudeDegrees>
            </Position>
            <AltitudeMeters>339.20001220703125</AltitudeMeters>
            <DistanceMeters>NAN</DistanceMeters>
          </Trackpoint>
          <Trackpoint>
            <Time>2022-07-17T16:56:05.000Z</Time>
            <Position>
              <LatitudeDegrees>43.47906955517828464508056640625</LatitudeDegrees>
              <LongitudeDegrees>-5.4990479908883571624755859375</LongitudeDegrees>
            </Position>
            <AltitudeMeters>339.20001220703125</AltitudeMeters>
            <DistanceMeters>NAN</DistanceMeters>
          </Trackpoint>
          <Trackpoint>
            <Time>2022-07-17T16:56:08.000Z</Time>
            <Position>
              <LatitudeDegrees>43.4790069423615932464599609375</LatitudeDegrees>
              <LongitudeDegrees>-5.4990644194185733795166015625</LongitudeDegrees>
            </Position>
            <AltitudeMeters>339.399993896484375</AltitudeMeters>
            <DistanceMeters>NAN</DistanceMeters>
          </Trackpoint>
          <Trackpoint>
            <Time>2022-07-17T16:56:11.000Z</Time>
            <Position>
              <LatitudeDegrees>43.47894215025007724761962890625</LatitudeDegrees>
              <LongitudeDegrees>-5.49907556734979152679443359375</LongitudeDegrees>
            </Position>
            <AltitudeMeters>339.79998779296875</AltitudeMeters>
            <DistanceMeters>NAN</DistanceMeters>
          </Trackpoint>
          <Trackpoint>
            <Time>2022-07-17T16:56:14.000Z</Time>
            <Position>
              <LatitudeDegrees>43.47888372838497161865234375</LatitudeDegrees>
              <LongitudeDegrees>-5.49909685738384723663330078125</LongitudeDegrees>
            </Position>
            <AltitudeMeters>340.20001220703125</AltitudeMeters>
            <DistanceMeters>NAN</DistanceMeters>
          </Trackpoint>
          <Trackpoint>
            <Time>2022-07-17T16:56:16.000Z</Time>
            <Position>
              <LatitudeDegrees>43.47884642891585826873779296875</LatitudeDegrees>
              <LongitudeDegrees>-5.499119572341442108154296875</LongitudeDegrees>
            </Position>
            <AltitudeMeters>340.600006103515625</AltitudeMeters>
            <DistanceMeters>NAN</DistanceMeters>
          </Trackpoint>
          <Trackpoint>
            <Time>2022-07-17T16:56:21.000Z</Time>
            <Position>
              <LatitudeDegrees>43.4787819720804691314697265625</LatitudeDegrees>
              <LongitudeDegrees>-5.49919090233743190765380859375</LongitudeDegrees>
            </Position>
            <AltitudeMeters>341.20001220703125</AltitudeMeters>
            <DistanceMeters>NAN</DistanceMeters>
          </Trackpoint>
          <Trackpoint>
            <Time>2022-07-17T16:56:22.000Z</Time>
            <Position>
              <LatitudeDegrees>43.47877509891986846923828125</LatitudeDegrees>
              <LongitudeDegrees>-5.4992146231234073638916015625</LongitudeDegrees>
            </Position>
            <AltitudeMeters>341.399993896484375</AltitudeMeters>
            <DistanceMeters>NAN</DistanceMeters>
          </Trackpoint>
          <Trackpoint>
            <Time>2022-07-17T16:56:24.000Z</Time>
            <Position>
              <LatitudeDegrees>43.4787608496844768524169921875</LatitudeDegrees>
              <LongitudeDegrees>-5.4992525093257427215576171875</LongitudeDegrees>
            </Position>
            <AltitudeMeters>341.600006103515625</AltitudeMeters>
            <DistanceMeters>NAN</DistanceMeters>
          </Trackpoint>
          <Trackpoint>
            <Time>2022-07-17T16:56:25.000Z</Time>
            <Position>
              <LatitudeDegrees>43.478755652904510498046875</LatitudeDegrees>
              <LongitudeDegrees>-5.49927338026463985443115234375</LongitudeDegrees>
            </Position>
            <AltitudeMeters>341.79998779296875</AltitudeMeters>
            <DistanceMeters>NAN</DistanceMeters>
          </Trackpoint>
          <Trackpoint>
            <Time>2022-07-17T16:56:31.000Z</Time>
            <Position>
              <LatitudeDegrees>43.4787326864898204803466796875</LatitudeDegrees>
              <LongitudeDegrees>-5.499402545392513275146484375</LongitudeDegrees>
            </Position>
            <AltitudeMeters>342.399993896484375</AltitudeMeters>
            <DistanceMeters>NAN</DistanceMeters>
          </Trackpoint>
          <Trackpoint>
            <Time>2022-07-17T16:56:34.000Z</Time>
            <Position>
              <LatitudeDegrees>43.47872807644307613372802734375</LatitudeDegrees>
              <LongitudeDegrees>-5.49946482293307781219482421875</LongitudeDegrees>
            </Position>
            <AltitudeMeters>342.79998779296875</AltitudeMeters>
            <DistanceMeters>NAN</DistanceMeters>
          </Trackpoint>
          <Trackpoint>
            <Time>2022-07-17T16:56:40.000Z</Time>
            <Position>
              <LatitudeDegrees>43.4787065349519252777099609375</LatitudeDegrees>
              <LongitudeDegrees>-5.49960446543991565704345703125</LongitudeDegrees>
            </Position>
            <AltitudeMeters>343.399993896484375</AltitudeMeters>
            <DistanceMeters>NAN</DistanceMeters>
          </Trackpoint>
          <Trackpoint>
            <Time>2022-07-17T16:56:43.000Z</Time>
            <Position>
              <LatitudeDegrees>43.47870242781937122344970703125</LatitudeDegrees>
              <LongitudeDegrees>-5.49966263584792613983154296875</LongitudeDegrees>
            </Position>
            <AltitudeMeters>343.79998779296875</AltitudeMeters>
            <DistanceMeters>NAN</DistanceMeters>
          </Trackpoint>
          <Trackpoint>
            <Time>2022-07-17T16:56:47.000Z</Time>
            <Position>
              <LatitudeDegrees>43.47869396209716796875</LatitudeDegrees>
              <LongitudeDegrees>-5.49974712543189525604248046875</LongitudeDegrees>
            </Position>
            <AltitudeMeters>344.399993896484375</AltitudeMeters>
            <DistanceMeters>NAN</DistanceMeters>
          </Trackpoint>
          <Trackpoint>
            <Time>2022-07-17T16:56:52.000Z</Time>
            <Position>
              <LatitudeDegrees>43.47867594100534915924072265625</LatitudeDegrees>
              <LongitudeDegrees>-5.4998441040515899658203125</LongitudeDegrees>
            </Position>
            <AltitudeMeters>345</AltitudeMeters>
            <DistanceMeters>NAN</DistanceMeters>
          </Trackpoint>
          <Trackpoint>
            <Time>2022-07-17T16:56:53.000Z</Time>
            <Position>
              <LatitudeDegrees>43.4786679781973361968994140625</LatitudeDegrees>
              <LongitudeDegrees>-5.49985961057245731353759765625</LongitudeDegrees>
            </Position>
            <AltitudeMeters>345.20001220703125</AltitudeMeters>
            <DistanceMeters>NAN</DistanceMeters>
          </Trackpoint>
          <Trackpoint>
            <Time>2022-07-17T16:57:00.000Z</Time>
            <Position>
              <LatitudeDegrees>43.47860477864742279052734375</LatitudeDegrees>
              <LongitudeDegrees>-5.499974191188812255859375</LongitudeDegrees>
            </Position>
            <AltitudeMeters>346</AltitudeMeters>
            <DistanceMeters>NAN</DistanceMeters>
          </Trackpoint>
          <Trackpoint>
            <Time>2022-07-17T16:57:01.000Z</Time>
            <Position>
              <LatitudeDegrees>43.47859203815460205078125</LatitudeDegrees>
              <LongitudeDegrees>-5.49998684786260128021240234375</LongitudeDegrees>
            </Position>
            <AltitudeMeters>346</AltitudeMeters>
            <DistanceMeters>NAN</DistanceMeters>
          </Trackpoint>
          <Trackpoint>
            <Time>2022-07-17T16:57:09.000Z</Time>
            <Position>
              <LatitudeDegrees>43.478467650711536407470703125</LatitudeDegrees>
              <LongitudeDegrees>-5.50007519312202930450439453125</LongitudeDegrees>
            </Position>
            <AltitudeMeters>347</AltitudeMeters>
            <DistanceMeters>NAN</DistanceMeters>
          </Trackpoint>
          <Trackpoint>
            <Time>2022-07-17T16:57:10.000Z</Time>
            <Position>
              <LatitudeDegrees>43.47845616750419139862060546875</LatitudeDegrees>
              <LongitudeDegrees>-5.50008424557745456695556640625</LongitudeDegrees>
            </Position>
            <AltitudeMeters>347.20001220703125</AltitudeMeters>
            <DistanceMeters>NAN</DistanceMeters>
          </Trackpoint>
          <Trackpoint>
            <Time>2022-07-17T16:57:18.000Z</Time>
            <Position>
              <LatitudeDegrees>43.47838995046913623809814453125</LatitudeDegrees>
              <LongitudeDegrees>-5.50017334520816802978515625</LongitudeDegrees>
            </Position>
            <AltitudeMeters>348.20001220703125</AltitudeMeters>
            <DistanceMeters>NAN</DistanceMeters>
          </Trackpoint>
          <Trackpoint>
            <Time>2022-07-17T16:57:25.000Z</Time>
            <Position>
              <LatitudeDegrees>43.47835944034159183502197265625</LatitudeDegrees>
              <LongitudeDegrees>-5.50026395358145236968994140625</LongitudeDegrees>
            </Position>
            <AltitudeMeters>349</AltitudeMeters>
            <DistanceMeters>NAN</DistanceMeters>
          </Trackpoint>
          <Trackpoint>
            <Time>2022-07-17T16:57:27.000Z</Time>
            <Position>
              <LatitudeDegrees>43.47834938205778598785400390625</LatitudeDegrees>
              <LongitudeDegrees>-5.50028893165290355682373046875</LongitudeDegrees>
            </Position>
            <AltitudeMeters>349.20001220703125</AltitudeMeters>
            <DistanceMeters>NAN</DistanceMeters>
          </Trackpoint>
          <Trackpoint>
            <Time>2022-07-17T16:57:33.000Z</Time>
            <Position>
              <LatitudeDegrees>43.47832038067281246185302734375</LatitudeDegrees>
              <LongitudeDegrees>-5.50039521418511867523193359375</LongitudeDegrees>
            </Position>
            <AltitudeMeters>350.20001220703125</AltitudeMeters>
            <DistanceMeters>NAN</DistanceMeters>
          </Trackpoint>
          <Trackpoint>
            <Time>2022-07-17T16:57:34.000Z</Time>
            <Position>
              <LatitudeDegrees>43.4783199615776538848876953125</LatitudeDegrees>
              <LongitudeDegrees>-5.50040946342051029205322265625</LongitudeDegrees>
            </Position>
            <AltitudeMeters>350.399993896484375</AltitudeMeters>
            <DistanceMeters>NAN</DistanceMeters>
          </Trackpoint>
          <Trackpoint>
            <Time>2022-07-17T16:57:39.000Z</Time>
            <Position>
              <LatitudeDegrees>43.478292636573314666748046875</LatitudeDegrees>
              <LongitudeDegrees>-5.50046679563820362091064453125</LongitudeDegrees>
            </Position>
            <AltitudeMeters>350.600006103515625</AltitudeMeters>
            <DistanceMeters>NAN</DistanceMeters>
          </Trackpoint>
          <Trackpoint>
            <Time>2022-07-17T16:57:41.000Z</Time>
            <Position>
              <LatitudeDegrees>43.4782763756811618804931640625</LatitudeDegrees>
              <LongitudeDegrees>-5.50049780867993831634521484375</LongitudeDegrees>
            </Position>
            <AltitudeMeters>351</AltitudeMeters>
            <DistanceMeters>NAN</DistanceMeters>
          </Trackpoint>
          <Trackpoint>
            <Time>2022-07-17T16:57:44.000Z</Time>
            <Position>
              <LatitudeDegrees>43.4782716818153858184814453125</LatitudeDegrees>
              <LongitudeDegrees>-5.5005562305450439453125</LongitudeDegrees>
            </Position>
            <AltitudeMeters>351.600006103515625</AltitudeMeters>
            <DistanceMeters>NAN</DistanceMeters>
          </Trackpoint>
          <Trackpoint>
            <Time>2022-07-17T16:57:45.000Z</Time>
            <Position>
              <LatitudeDegrees>43.47826757468283176422119140625</LatitudeDegrees>
              <LongitudeDegrees>-5.50057207234203815460205078125</LongitudeDegrees>
            </Position>
            <AltitudeMeters>351.600006103515625</AltitudeMeters>
            <DistanceMeters>NAN</DistanceMeters>
          </Trackpoint>
          <Trackpoint>
            <Time>2022-07-17T16:57:48.000Z</Time>
            <Position>
              <LatitudeDegrees>43.4782505594193935394287109375</LatitudeDegrees>
              <LongitudeDegrees>-5.50061817280948162078857421875</LongitudeDegrees>
            </Position>
            <AltitudeMeters>352.20001220703125</AltitudeMeters>
            <DistanceMeters>NAN</DistanceMeters>
          </Trackpoint>
          <Trackpoint>
            <Time>2022-07-17T16:57:52.000Z</Time>
            <Position>
              <LatitudeDegrees>43.47823656164109706878662109375</LatitudeDegrees>
              <LongitudeDegrees>-5.5006782710552215576171875</LongitudeDegrees>
            </Position>
            <AltitudeMeters>352.600006103515625</AltitudeMeters>
            <DistanceMeters>NAN</DistanceMeters>
          </Trackpoint>
          <Trackpoint>
            <Time>2022-07-17T16:57:54.000Z</Time>
            <Position>
              <LatitudeDegrees>43.478230275213718414306640625</LatitudeDegrees>
              <LongitudeDegrees>-5.500703416764736175537109375</LongitudeDegrees>
            </Position>
            <AltitudeMeters>353</AltitudeMeters>
            <DistanceMeters>NAN</DistanceMeters>
          </Trackpoint>
          <Trackpoint>
            <Time>2022-07-17T16:57:59.000Z</Time>
            <Position>
              <LatitudeDegrees>43.4782163612544536590576171875</LatitudeDegrees>
              <LongitudeDegrees>-5.50077550113201141357421875</LongitudeDegrees>
            </Position>
            <AltitudeMeters>353.600006103515625</AltitudeMeters>
            <DistanceMeters>NAN</DistanceMeters>
          </Trackpoint>
          <Trackpoint>
            <Time>2022-07-17T16:58:01.000Z</Time>
            <Position>
              <LatitudeDegrees>43.478202782571315765380859375</LatitudeDegrees>
              <LongitudeDegrees>-5.50080693326890468597412109375</LongitudeDegrees>
            </Position>
            <AltitudeMeters>353.79998779296875</AltitudeMeters>
            <DistanceMeters>NAN</DistanceMeters>
          </Trackpoint>
          <Trackpoint>
            <Time>2022-07-17T16:58:03.000Z</Time>
            <Position>
              <LatitudeDegrees>43.4781925566494464874267578125</LatitudeDegrees>
              <LongitudeDegrees>-5.50084255635738372802734375</LongitudeDegrees>
            </Position>
            <AltitudeMeters>354.20001220703125</AltitudeMeters>
            <DistanceMeters>NAN</DistanceMeters>
          </Trackpoint>
          <Trackpoint>
            <Time>2022-07-17T16:58:06.000Z</Time>
            <Position>
              <LatitudeDegrees>43.47816548310220241546630859375</LatitudeDegrees>
              <LongitudeDegrees>-5.500888824462890625</LongitudeDegrees>
            </Position>
            <AltitudeMeters>354.600006103515625</AltitudeMeters>
            <DistanceMeters>NAN</DistanceMeters>
          </Trackpoint>
          <Trackpoint>
            <Time>2022-07-17T16:58:08.000Z</Time>
            <Position>
              <LatitudeDegrees>43.47815877757966518402099609375</LatitudeDegrees>
              <LongitudeDegrees>-5.5009228549897670745849609375</LongitudeDegrees>
            </Position>
            <AltitudeMeters>354.79998779296875</AltitudeMeters>
            <DistanceMeters>NAN</DistanceMeters>
          </Trackpoint>
          <Trackpoint>
            <Time>2022-07-17T16:58:14.000Z</Time>
            <Position>
              <LatitudeDegrees>43.478121645748615264892578125</LatitudeDegrees>
              <LongitudeDegrees>-5.50101430155336856842041015625</LongitudeDegrees>
            </Position>
            <AltitudeMeters>355.79998779296875</AltitudeMeters>
            <DistanceMeters>NAN</DistanceMeters>
          </Trackpoint>
          <Trackpoint>
            <Time>2022-07-17T16:58:15.000Z</Time>
            <Position>
              <LatitudeDegrees>43.47811795771121978759765625</LatitudeDegrees>
              <LongitudeDegrees>-5.50103391520678997039794921875</LongitudeDegrees>
            </Position>
            <AltitudeMeters>356</AltitudeMeters>
            <DistanceMeters>NAN</DistanceMeters>
          </Trackpoint>
          <Trackpoint>
            <Time>2022-07-17T16:58:21.000Z</Time>
            <Position>
              <LatitudeDegrees>43.4780899621546268463134765625</LatitudeDegrees>
              <LongitudeDegrees>-5.50112594850361347198486328125</LongitudeDegrees>
            </Position>
            <AltitudeMeters>357</AltitudeMeters>
            <DistanceMeters>NAN</DistanceMeters>
          </Trackpoint>
          <Trackpoint>
            <Time>2022-07-17T16:58:29.000Z</Time>
            <Position>
              <LatitudeDegrees>43.478062637150287628173828125</LatitudeDegrees>
              <LongitudeDegrees>-5.50124698318541049957275390625</LongitudeDegrees>
            </Position>
            <AltitudeMeters>357</AltitudeMeters>
            <DistanceMeters>NAN</DistanceMeters>
          </Trackpoint>
          <Trackpoint>
            <Time>2022-07-17T16:58:30.000Z</Time>
            <Position>
              <LatitudeDegrees>43.47806070931255817413330078125</LatitudeDegrees>
              <LongitudeDegrees>-5.50126290880143642425537109375</LongitudeDegrees>
            </Position>
            <AltitudeMeters>357</AltitudeMeters>
            <DistanceMeters>NAN</DistanceMeters>
          </Trackpoint>
          <Trackpoint>
            <Time>2022-07-17T16:58:34.000Z</Time>
            <Position>
              <LatitudeDegrees>43.47805735655128955841064453125</LatitudeDegrees>
              <LongitudeDegrees>-5.5013399384915828704833984375</LongitudeDegrees>
            </Position>
            <AltitudeMeters>358</AltitudeMeters>
            <DistanceMeters>NAN</DistanceMeters>
          </Trackpoint>
          <Trackpoint>
            <Time>2022-07-17T16:58:37.000Z</Time>
            <Position>
              <LatitudeDegrees>43.47805467434227466583251953125</LatitudeDegrees>
              <LongitudeDegrees>-5.50140003673732280731201171875</LongitudeDegrees>
            </Position>
            <AltitudeMeters>358.399993896484375</AltitudeMeters>
            <DistanceMeters>NAN</DistanceMeters>
          </Trackpoint>
          <Trackpoint>
            <Time>2022-07-17T16:58:43.000Z</Time>
            <Position>
              <LatitudeDegrees>43.4780542552471160888671875</LatitudeDegrees>
              <LongitudeDegrees>-5.50149911083281040191650390625</LongitudeDegrees>
            </Position>
            <AltitudeMeters>359.20001220703125</AltitudeMeters>
            <DistanceMeters>NAN</DistanceMeters>
          </Trackpoint>
          <Trackpoint>
            <Time>2022-07-17T16:58:46.000Z</Time>
            <Position>
              <LatitudeDegrees>43.478066660463809967041015625</LatitudeDegrees>
              <LongitudeDegrees>-5.501559711992740631103515625</LongitudeDegrees>
            </Position>
            <AltitudeMeters>359.600006103515625</AltitudeMeters>
            <DistanceMeters>NAN</DistanceMeters>
          </Trackpoint>
          <Trackpoint>
            <Time>2022-07-17T16:58:48.000Z</Time>
            <Position>
              <LatitudeDegrees>43.47808535210788249969482421875</LatitudeDegrees>
              <LongitudeDegrees>-5.50157706253230571746826171875</LongitudeDegrees>
            </Position>
            <AltitudeMeters>359.600006103515625</AltitudeMeters>
            <DistanceMeters>NAN</DistanceMeters>
          </Trackpoint>
          <Trackpoint>
            <Time>2022-07-17T16:58:49.000Z</Time>
            <Position>
              <LatitudeDegrees>43.47808836959302425384521484375</LatitudeDegrees>
              <LongitudeDegrees>-5.501596927642822265625</LongitudeDegrees>
            </Position>
            <AltitudeMeters>359.79998779296875</AltitudeMeters>
            <DistanceMeters>NAN</DistanceMeters>
          </Trackpoint>
          <Trackpoint>
            <Time>2022-07-17T16:58:53.000Z</Time>
            <Position>
              <LatitudeDegrees>43.47810680978000164031982421875</LatitudeDegrees>
              <LongitudeDegrees>-5.50166867673397064208984375</LongitudeDegrees>
            </Position>
            <AltitudeMeters>360.399993896484375</AltitudeMeters>
            <DistanceMeters>NAN</DistanceMeters>
          </Trackpoint>
          <Trackpoint>
            <Time>2022-07-17T16:59:00.000Z</Time>
            <Position>
              <LatitudeDegrees>43.4781266748905181884765625</LatitudeDegrees>
              <LongitudeDegrees>-5.501777641475200653076171875</LongitudeDegrees>
            </Position>
            <AltitudeMeters>361.399993896484375</AltitudeMeters>
            <DistanceMeters>NAN</DistanceMeters>
          </Trackpoint>
          <Trackpoint>
            <Time>2022-07-17T16:59:01.000Z</Time>
            <Position>
              <LatitudeDegrees>43.47813136875629425048828125</LatitudeDegrees>
              <LongitudeDegrees>-5.5017942376434803009033203125</LongitudeDegrees>
            </Position>
            <AltitudeMeters>361.399993896484375</AltitudeMeters>
            <DistanceMeters>NAN</DistanceMeters>
          </Trackpoint>
          <Trackpoint>
            <Time>2022-07-17T16:59:05.000Z</Time>
            <Position>
              <LatitudeDegrees>43.4781412594020366668701171875</LatitudeDegrees>
              <LongitudeDegrees>-5.50185835920274257659912109375</LongitudeDegrees>
            </Position>
            <AltitudeMeters>362</AltitudeMeters>
            <DistanceMeters>NAN</DistanceMeters>
          </Trackpoint>
          <Trackpoint>
            <Time>2022-07-17T16:59:08.000Z</Time>
            <Position>
              <LatitudeDegrees>43.47815207205712795257568359375</LatitudeDegrees>
              <LongitudeDegrees>-5.501910746097564697265625</LongitudeDegrees>
            </Position>
            <AltitudeMeters>362.600006103515625</AltitudeMeters>
            <DistanceMeters>NAN</DistanceMeters>
          </Trackpoint>
          <Trackpoint>
            <Time>2022-07-17T16:59:12.000Z</Time>
            <Position>
              <LatitudeDegrees>43.47816447727382183074951171875</LatitudeDegrees>
              <LongitudeDegrees>-5.50198425538837909698486328125</LongitudeDegrees>
            </Position>
            <AltitudeMeters>362.79998779296875</AltitudeMeters>
            <DistanceMeters>NAN</DistanceMeters>
          </Trackpoint>
          <Trackpoint>
            <Time>2022-07-17T16:59:15.000Z</Time>
            <Position>
              <LatitudeDegrees>43.4781627170741558074951171875</LatitudeDegrees>
              <LongitudeDegrees>-5.50203270278871059417724609375</LongitudeDegrees>
            </Position>
            <AltitudeMeters>363.20001220703125</AltitudeMeters>
            <DistanceMeters>NAN</DistanceMeters>
          </Trackpoint>
          <Trackpoint>
            <Time>2022-07-17T16:59:19.000Z</Time>
            <Position>
              <LatitudeDegrees>43.47817855887115001678466796875</LatitudeDegrees>
              <LongitudeDegrees>-5.5020896159112453460693359375</LongitudeDegrees>
            </Position>
            <AltitudeMeters>363.399993896484375</AltitudeMeters>
            <DistanceMeters>NAN</DistanceMeters>
          </Trackpoint>
          <Trackpoint>
            <Time>2022-07-17T16:59:20.000Z</Time>
            <Position>
              <LatitudeDegrees>43.47818006761372089385986328125</LatitudeDegrees>
              <LongitudeDegrees>-5.50210696645081043243408203125</LongitudeDegrees>
            </Position>
            <AltitudeMeters>363.600006103515625</AltitudeMeters>
            <DistanceMeters>NAN</DistanceMeters>
          </Trackpoint>
          <Trackpoint>
            <Time>2022-07-17T16:59:25.000Z</Time>
            <Position>
              <LatitudeDegrees>43.47819440066814422607421875</LatitudeDegrees>
              <LongitudeDegrees>-5.5021925456821918487548828125</LongitudeDegrees>
            </Position>
            <AltitudeMeters>364.600006103515625</AltitudeMeters>
            <DistanceMeters>NAN</DistanceMeters>
          </Trackpoint>
          <Trackpoint>
            <Time>2022-07-17T16:59:28.000Z</Time>
            <Position>
              <LatitudeDegrees>43.47819649614393711090087890625</LatitudeDegrees>
              <LongitudeDegrees>-5.50224560312926769256591796875</LongitudeDegrees>
            </Position>
            <AltitudeMeters>365</AltitudeMeters>
            <DistanceMeters>NAN</DistanceMeters>
          </Trackpoint>
          <Trackpoint>
            <Time>2022-07-17T16:59:33.000Z</Time>
            <Position>
              <LatitudeDegrees>43.47821242175996303558349609375</LatitudeDegrees>
              <LongitudeDegrees>-5.5023249797523021697998046875</LongitudeDegrees>
            </Position>
            <AltitudeMeters>365.600006103515625</AltitudeMeters>
            <DistanceMeters>NAN</DistanceMeters>
          </Trackpoint>
          <Trackpoint>
            <Time>2022-07-17T16:59:35.000Z</Time>
            <Position>
              <LatitudeDegrees>43.478217534720897674560546875</LatitudeDegrees>
              <LongitudeDegrees>-5.50235641188919544219970703125</LongitudeDegrees>
            </Position>
            <AltitudeMeters>365.79998779296875</AltitudeMeters>
            <DistanceMeters>NAN</DistanceMeters>
          </Trackpoint>
          <Trackpoint>
            <Time>2022-07-17T16:59:42.000Z</Time>
            <Position>
              <LatitudeDegrees>43.47823974676430225372314453125</LatitudeDegrees>
              <LongitudeDegrees>-5.50246520899236202239990234375</LongitudeDegrees>
            </Position>
            <AltitudeMeters>366.79998779296875</AltitudeMeters>
            <DistanceMeters>NAN</DistanceMeters>
          </Trackpoint>
          <Trackpoint>
            <Time>2022-07-17T16:59:51.000Z</Time>
            <Position>
              <LatitudeDegrees>43.4782540798187255859375</LatitudeDegrees>
              <LongitudeDegrees>-5.50262345932424068450927734375</LongitudeDegrees>
            </Position>
            <AltitudeMeters>367.79998779296875</AltitudeMeters>
            <DistanceMeters>NAN</DistanceMeters>
          </Trackpoint>
          <Trackpoint>
            <Time>2022-07-17T16:59:52.000Z</Time>
            <Position>
              <LatitudeDegrees>43.4782565943896770477294921875</LatitudeDegrees>
              <LongitudeDegrees>-5.502635277807712554931640625</LongitudeDegrees>
            </Position>
            <AltitudeMeters>367.79998779296875</AltitudeMeters>
            <DistanceMeters>NAN</DistanceMeters>
          </Trackpoint>
          <Trackpoint>
            <Time>2022-07-17T16:59:53.000Z</Time>
            <Position>
              <LatitudeDegrees>43.47825475037097930908203125</LatitudeDegrees>
              <LongitudeDegrees>-5.50265044905245304107666015625</LongitudeDegrees>
            </Position>
            <AltitudeMeters>368</AltitudeMeters>
            <DistanceMeters>NAN</DistanceMeters>
          </Trackpoint>
          <Trackpoint>
            <Time>2022-07-17T16:59:57.000Z</Time>
            <Position>
              <LatitudeDegrees>43.47826506011188030242919921875</LatitudeDegrees>
              <LongitudeDegrees>-5.50271666608750820159912109375</LongitudeDegrees>
            </Position>
            <AltitudeMeters>368.600006103515625</AltitudeMeters>
            <DistanceMeters>NAN</DistanceMeters>
          </Trackpoint>
          <Trackpoint>
            <Time>2022-07-17T16:59:58.000Z</Time>
            <Position>
              <LatitudeDegrees>43.478269167244434356689453125</LatitudeDegrees>
              <LongitudeDegrees>-5.50273485481739044189453125</LongitudeDegrees>
            </Position>
            <AltitudeMeters>368.79998779296875</AltitudeMeters>
            <DistanceMeters>NAN</DistanceMeters>
          </Trackpoint>
          <Trackpoint>
            <Time>2022-07-17T17:00:03.000Z</Time>
            <Position>
              <LatitudeDegrees>43.478273190557956695556640625</LatitudeDegrees>
              <LongitudeDegrees>-5.50281775183975696563720703125</LongitudeDegrees>
            </Position>
            <AltitudeMeters>369.600006103515625</AltitudeMeters>
            <DistanceMeters>NAN</DistanceMeters>
          </Trackpoint>
          <Trackpoint>
            <Time>2022-07-17T17:00:07.000Z</Time>
            <Position>
              <LatitudeDegrees>43.4782770462334156036376953125</LatitudeDegrees>
              <LongitudeDegrees>-5.50288681872189044952392578125</LongitudeDegrees>
            </Position>
            <AltitudeMeters>370</AltitudeMeters>
            <DistanceMeters>NAN</DistanceMeters>
          </Trackpoint>
          <Trackpoint>
            <Time>2022-07-17T17:00:10.000Z</Time>
            <Position>
              <LatitudeDegrees>43.4782884456217288970947265625</LatitudeDegrees>
              <LongitudeDegrees>-5.50294582732021808624267578125</LongitudeDegrees>
            </Position>
            <AltitudeMeters>370.600006103515625</AltitudeMeters>
            <DistanceMeters>NAN</DistanceMeters>
          </Trackpoint>
          <Trackpoint>
            <Time>2022-07-17T17:00:11.000Z</Time>
            <Position>
              <LatitudeDegrees>43.47829171456396579742431640625</LatitudeDegrees>
              <LongitudeDegrees>-5.50296544097363948822021484375</LongitudeDegrees>
            </Position>
            <AltitudeMeters>370.79998779296875</AltitudeMeters>
            <DistanceMeters>NAN</DistanceMeters>
          </Trackpoint>
          <Trackpoint>
            <Time>2022-07-17T17:00:13.000Z</Time>
            <Position>
              <LatitudeDegrees>43.47829724662005901336669921875</LatitudeDegrees>
              <LongitudeDegrees>-5.50299377180635929107666015625</LongitudeDegrees>
            </Position>
            <AltitudeMeters>371.20001220703125</AltitudeMeters>
            <DistanceMeters>NAN</DistanceMeters>
          </Trackpoint>
          <Trackpoint>
            <Time>2022-07-17T17:00:19.000Z</Time>
            <Position>
              <LatitudeDegrees>43.4783122502267360687255859375</LatitudeDegrees>
              <LongitudeDegrees>-5.5030756630003452301025390625</LongitudeDegrees>
            </Position>
            <AltitudeMeters>372</AltitudeMeters>
            <DistanceMeters>NAN</DistanceMeters>
          </Trackpoint>
          <Trackpoint>
            <Time>2022-07-17T17:00:21.000Z</Time>
            <Position>
              <LatitudeDegrees>43.47831887193024158477783203125</LatitudeDegrees>
              <LongitudeDegrees>-5.5031096935272216796875</LongitudeDegrees>
            </Position>
            <AltitudeMeters>372.399993896484375</AltitudeMeters>
            <DistanceMeters>NAN</DistanceMeters>
          </Trackpoint>
          <Trackpoint>
            <Time>2022-07-17T17:00:28.000Z</Time>
            <Position>
              <LatitudeDegrees>43.4783251583576202392578125</LatitudeDegrees>
              <LongitudeDegrees>-5.50324489362537860870361328125</LongitudeDegrees>
            </Position>
            <AltitudeMeters>372.79998779296875</AltitudeMeters>
            <DistanceMeters>NAN</DistanceMeters>
          </Trackpoint>
          <Trackpoint>
            <Time>2022-07-17T17:00:36.000Z</Time>
            <Position>
              <LatitudeDegrees>43.4783508069813251495361328125</LatitudeDegrees>
              <LongitudeDegrees>-5.50341320224106311798095703125</LongitudeDegrees>
            </Position>
            <AltitudeMeters>373.399993896484375</AltitudeMeters>
            <DistanceMeters>NAN</DistanceMeters>
          </Trackpoint>
          <Trackpoint>
            <Time>2022-07-17T17:00:37.000Z</Time>
            <Position>
              <LatitudeDegrees>43.478353321552276611328125</LatitudeDegrees>
              <LongitudeDegrees>-5.50343767739832401275634765625</LongitudeDegrees>
            </Position>
            <AltitudeMeters>373.399993896484375</AltitudeMeters>
            <DistanceMeters>NAN</DistanceMeters>
          </Trackpoint>
          <Trackpoint>
            <Time>2022-07-17T17:00:46.000Z</Time>
            <Position>
              <LatitudeDegrees>43.47836933098733425140380859375</LatitudeDegrees>
              <LongitudeDegrees>-5.50368242897093296051025390625</LongitudeDegrees>
            </Position>
            <AltitudeMeters>374</AltitudeMeters>
            <DistanceMeters>NAN</DistanceMeters>
          </Trackpoint>
          <Trackpoint>
            <Time>2022-07-17T17:00:51.000Z</Time>
            <Position>
              <LatitudeDegrees>43.47835407592356204986572265625</LatitudeDegrees>
              <LongitudeDegrees>-5.503824166953563690185546875</LongitudeDegrees>
            </Position>
            <AltitudeMeters>374.20001220703125</AltitudeMeters>
            <DistanceMeters>NAN</DistanceMeters>
          </Trackpoint>
          <Trackpoint>
            <Time>2022-07-17T17:00:53.000Z</Time>
            <Position>
              <LatitudeDegrees>43.47834317944943904876708984375</LatitudeDegrees>
              <LongitudeDegrees>-5.503874123096466064453125</LongitudeDegrees>
            </Position>
            <AltitudeMeters>374.20001220703125</AltitudeMeters>
            <DistanceMeters>NAN</DistanceMeters>
          </Trackpoint>
          <Trackpoint>
            <Time>2022-07-17T17:00:54.000Z</Time>
            <Position>
              <LatitudeDegrees>43.47833815030753612518310546875</LatitudeDegrees>
              <LongitudeDegrees>-5.5038915574550628662109375</LongitudeDegrees>
            </Position>
            <AltitudeMeters>374.20001220703125</AltitudeMeters>
            <DistanceMeters>NAN</DistanceMeters>
          </Trackpoint>
          <Trackpoint>
            <Time>2022-07-17T17:00:56.000Z</Time>
            <Position>
              <LatitudeDegrees>43.47831920720636844635009765625</LatitudeDegrees>
              <LongitudeDegrees>-5.50393103621900081634521484375</LongitudeDegrees>
            </Position>
            <AltitudeMeters>374.399993896484375</AltitudeMeters>
            <DistanceMeters>NAN</DistanceMeters>
          </Trackpoint>
          <Trackpoint>
            <Time>2022-07-17T17:01:00.000Z</Time>
            <Position>
              <LatitudeDegrees>43.478272520005702972412109375</LatitudeDegrees>
              <LongitudeDegrees>-5.5039956606924533843994140625</LongitudeDegrees>
            </Position>
            <AltitudeMeters>374.79998779296875</AltitudeMeters>
            <DistanceMeters>NAN</DistanceMeters>
          </Trackpoint>
          <Trackpoint>
            <Time>2022-07-17T17:01:01.000Z</Time>
            <Position>
              <LatitudeDegrees>43.47826137207448482513427734375</LatitudeDegrees>
              <LongitudeDegrees>-5.50400898791849613189697265625</LongitudeDegrees>
            </Position>
            <AltitudeMeters>375</AltitudeMeters>
            <DistanceMeters>NAN</DistanceMeters>
          </Trackpoint>
          <Trackpoint>
            <Time>2022-07-17T17:01:04.000Z</Time>
            <Position>
              <LatitudeDegrees>43.4782076440751552581787109375</LatitudeDegrees>
              <LongitudeDegrees>-5.50403061322867870330810546875</LongitudeDegrees>
            </Position>
            <AltitudeMeters>375</AltitudeMeters>
            <DistanceMeters>NAN</DistanceMeters>
          </Trackpoint>
          <Trackpoint>
            <Time>2022-07-17T17:01:07.000Z</Time>
            <Position>
              <LatitudeDegrees>43.47816464491188526153564453125</LatitudeDegrees>
              <LongitudeDegrees>-5.50406682305037975311279296875</LongitudeDegrees>
            </Position>
            <AltitudeMeters>375.20001220703125</AltitudeMeters>
            <DistanceMeters>NAN</DistanceMeters>
          </Trackpoint>
          <Trackpoint>
            <Time>2022-07-17T17:01:09.000Z</Time>
            <Position>
              <LatitudeDegrees>43.47814117558300495147705078125</LatitudeDegrees>
              <LongitudeDegrees>-5.50408677197992801666259765625</LongitudeDegrees>
            </Position>
            <AltitudeMeters>375.20001220703125</AltitudeMeters>
            <DistanceMeters>NAN</DistanceMeters>
          </Trackpoint>
          <Trackpoint>
            <Time>2022-07-17T17:01:11.000Z</Time>
            <Position>
              <LatitudeDegrees>43.47812332212924957275390625</LatitudeDegrees>
              <LongitudeDegrees>-5.50413840450346469879150390625</LongitudeDegrees>
            </Position>
            <AltitudeMeters>375.399993896484375</AltitudeMeters>
            <DistanceMeters>NAN</DistanceMeters>
          </Trackpoint>
          <Trackpoint>
            <Time>2022-07-17T17:01:13.000Z</Time>
            <Position>
              <LatitudeDegrees>43.4781003557145595550537109375</LatitudeDegrees>
              <LongitudeDegrees>-5.50417721271514892578125</LongitudeDegrees>
            </Position>
            <AltitudeMeters>375.600006103515625</AltitudeMeters>
            <DistanceMeters>NAN</DistanceMeters>
          </Trackpoint>
          <Trackpoint>
            <Time>2022-07-17T17:01:14.000Z</Time>
            <Position>
              <LatitudeDegrees>43.47808686085045337677001953125</LatitudeDegrees>
              <LongitudeDegrees>-5.50420076586306095123291015625</LongitudeDegrees>
            </Position>
            <AltitudeMeters>375.79998779296875</AltitudeMeters>
            <DistanceMeters>NAN</DistanceMeters>
          </Trackpoint>
          <Trackpoint>
            <Time>2022-07-17T17:01:18.000Z</Time>
            <Position>
              <LatitudeDegrees>43.4780255891382694244384765625</LatitudeDegrees>
              <LongitudeDegrees>-5.5042625404894351959228515625</LongitudeDegrees>
            </Position>
            <AltitudeMeters>376.20001220703125</AltitudeMeters>
            <DistanceMeters>NAN</DistanceMeters>
          </Trackpoint>
          <Trackpoint>
            <Time>2022-07-17T17:01:20.000Z</Time>
            <Position>
              <LatitudeDegrees>43.478002287447452545166015625</LatitudeDegrees>
              <LongitudeDegrees>-5.50429849885404109954833984375</LongitudeDegrees>
            </Position>
            <AltitudeMeters>376.399993896484375</AltitudeMeters>
            <DistanceMeters>NAN</DistanceMeters>
          </Trackpoint>
          <Trackpoint>
            <Time>2022-07-17T17:01:21.000Z</Time>
            <Position>
              <LatitudeDegrees>43.47799231298267841339111328125</LatitudeDegrees>
              <LongitudeDegrees>-5.5043207108974456787109375</LongitudeDegrees>
            </Position>
            <AltitudeMeters>376.399993896484375</AltitudeMeters>
            <DistanceMeters>NAN</DistanceMeters>
          </Trackpoint>
          <Trackpoint>
            <Time>2022-07-17T17:01:24.000Z</Time>
            <Position>
              <LatitudeDegrees>43.47795627079904079437255859375</LatitudeDegrees>
              <LongitudeDegrees>-5.50437041558325290679931640625</LongitudeDegrees>
            </Position>
            <AltitudeMeters>376.600006103515625</AltitudeMeters>
            <DistanceMeters>NAN</DistanceMeters>
          </Trackpoint>
          <Trackpoint>
            <Time>2022-07-17T17:01:26.000Z</Time>
            <Position>
              <LatitudeDegrees>43.47793229855597019195556640625</LatitudeDegrees>
              <LongitudeDegrees>-5.50440310500562191009521484375</LongitudeDegrees>
            </Position>
            <AltitudeMeters>376.79998779296875</AltitudeMeters>
            <DistanceMeters>NAN</DistanceMeters>
          </Trackpoint>
          <Trackpoint>
            <Time>2022-07-17T17:01:31.000Z</Time>
            <Position>
              <LatitudeDegrees>43.47786004655063152313232421875</LatitudeDegrees>
              <LongitudeDegrees>-5.50448508001863956451416015625</LongitudeDegrees>
            </Position>
            <AltitudeMeters>377.600006103515625</AltitudeMeters>
            <DistanceMeters>NAN</DistanceMeters>
          </Trackpoint>
          <Trackpoint>
            <Time>2022-07-17T17:01:32.000Z</Time>
            <Position>
              <LatitudeDegrees>43.47785384394228458404541015625</LatitudeDegrees>
              <LongitudeDegrees>-5.504506789147853851318359375</LongitudeDegrees>
            </Position>
            <AltitudeMeters>377.600006103515625</AltitudeMeters>
            <DistanceMeters>NAN</DistanceMeters>
          </Trackpoint>
          <Trackpoint>
            <Time>2022-07-17T17:01:38.000Z</Time>
            <Position>
              <LatitudeDegrees>43.47778444178402423858642578125</LatitudeDegrees>
              <LongitudeDegrees>-5.5046015046536922454833984375</LongitudeDegrees>
            </Position>
            <AltitudeMeters>378.20001220703125</AltitudeMeters>
            <DistanceMeters>NAN</DistanceMeters>
          </Trackpoint>
          <Trackpoint>
            <Time>2022-07-17T17:01:42.000Z</Time>
            <Position>
              <LatitudeDegrees>43.47771369852125644683837890625</LatitudeDegrees>
              <LongitudeDegrees>-5.50465405918657779693603515625</LongitudeDegrees>
            </Position>
            <AltitudeMeters>378.600006103515625</AltitudeMeters>
            <DistanceMeters>NAN</DistanceMeters>
          </Trackpoint>
          <Trackpoint>
            <Time>2022-07-17T17:01:44.000Z</Time>
            <Position>
              <LatitudeDegrees>43.47768075764179229736328125</LatitudeDegrees>
              <LongitudeDegrees>-5.5046685598790645599365234375</LongitudeDegrees>
            </Position>
            <AltitudeMeters>378.79998779296875</AltitudeMeters>
            <DistanceMeters>NAN</DistanceMeters>
          </Trackpoint>
          <Trackpoint>
            <Time>2022-07-17T17:01:46.000Z</Time>
            <Position>
              <LatitudeDegrees>43.47765167243778705596923828125</LatitudeDegrees>
              <LongitudeDegrees>-5.504691861569881439208984375</LongitudeDegrees>
            </Position>
            <AltitudeMeters>379</AltitudeMeters>
            <DistanceMeters>NAN</DistanceMeters>
          </Trackpoint>
          <Trackpoint>
            <Time>2022-07-17T17:01:54.000Z</Time>
            <Position>
              <LatitudeDegrees>43.4775122813880443572998046875</LatitudeDegrees>
              <LongitudeDegrees>-5.5047724954783916473388671875</LongitudeDegrees>
            </Position>
            <AltitudeMeters>379.79998779296875</AltitudeMeters>
            <DistanceMeters>NAN</DistanceMeters>
          </Trackpoint>
          <Trackpoint>
            <Time>2022-07-17T17:01:55.000Z</Time>
            <Position>
              <LatitudeDegrees>43.477496691048145294189453125</LatitudeDegrees>
              <LongitudeDegrees>-5.5047833919525146484375</LongitudeDegrees>
            </Position>
            <AltitudeMeters>379.79998779296875</AltitudeMeters>
            <DistanceMeters>NAN</DistanceMeters>
          </Trackpoint>
          <Trackpoint>
            <Time>2022-07-17T17:02:02.000Z</Time>
            <Position>
              <LatitudeDegrees>43.47739015705883502960205078125</LatitudeDegrees>
              <LongitudeDegrees>-5.50486930646002292633056640625</LongitudeDegrees>
            </Position>
            <AltitudeMeters>380.600006103515625</AltitudeMeters>
            <DistanceMeters>NAN</DistanceMeters>
          </Trackpoint>
          <Trackpoint>
            <Time>2022-07-17T17:02:05.000Z</Time>
            <Position>
              <LatitudeDegrees>43.47731371410191059112548828125</LatitudeDegrees>
              <LongitudeDegrees>-5.50492060370743274688720703125</LongitudeDegrees>
            </Position>
            <AltitudeMeters>380.79998779296875</AltitudeMeters>
            <DistanceMeters>NAN</DistanceMeters>
          </Trackpoint>
          <Trackpoint>
            <Time>2022-07-17T17:02:08.000Z</Time>
            <Position>
              <LatitudeDegrees>43.47728588618338108062744140625</LatitudeDegrees>
              <LongitudeDegrees>-5.504954718053340911865234375</LongitudeDegrees>
            </Position>
            <AltitudeMeters>381.20001220703125</AltitudeMeters>
            <DistanceMeters>NAN</DistanceMeters>
          </Trackpoint>
          <Trackpoint>
            <Time>2022-07-17T17:02:15.000Z</Time>
            <Position>
              <LatitudeDegrees>43.47719854675233364105224609375</LatitudeDegrees>
              <LongitudeDegrees>-5.5050209350883960723876953125</LongitudeDegrees>
            </Position>
            <AltitudeMeters>381.79998779296875</AltitudeMeters>
            <DistanceMeters>NAN</DistanceMeters>
          </Trackpoint>
          <Trackpoint>
            <Time>2022-07-17T17:02:18.000Z</Time>
            <Position>
              <LatitudeDegrees>43.47715462557971477508544921875</LatitudeDegrees>
              <LongitudeDegrees>-5.5050635151565074920654296875</LongitudeDegrees>
            </Position>
            <AltitudeMeters>382</AltitudeMeters>
            <DistanceMeters>NAN</DistanceMeters>
          </Trackpoint>
          <Trackpoint>
            <Time>2022-07-17T17:02:26.000Z</Time>
            <Position>
              <LatitudeDegrees>43.47704532556235790252685546875</LatitudeDegrees>
              <LongitudeDegrees>-5.50516468472778797149658203125</LongitudeDegrees>
            </Position>
            <AltitudeMeters>382.79998779296875</AltitudeMeters>
            <DistanceMeters>NAN</DistanceMeters>
          </Trackpoint>
          <Trackpoint>
            <Time>2022-07-17T17:02:34.000Z</Time>
            <Position>
              <LatitudeDegrees>43.47693376243114471435546875</LatitudeDegrees>
              <LongitudeDegrees>-5.50530306994915008544921875</LongitudeDegrees>
            </Position>
            <AltitudeMeters>383.79998779296875</AltitudeMeters>
            <DistanceMeters>NAN</DistanceMeters>
          </Trackpoint>
          <Trackpoint>
            <Time>2022-07-17T17:02:37.000Z</Time>
            <Position>
              <LatitudeDegrees>43.476917333900928497314453125</LatitudeDegrees>
              <LongitudeDegrees>-5.505360402166843414306640625</LongitudeDegrees>
            </Position>
            <AltitudeMeters>384</AltitudeMeters>
            <DistanceMeters>NAN</DistanceMeters>
          </Trackpoint>
          <Trackpoint>
            <Time>2022-07-17T17:02:38.000Z</Time>
            <Position>
              <LatitudeDegrees>43.4769111312925815582275390625</LatitudeDegrees>
              <LongitudeDegrees>-5.50537624396383762359619140625</LongitudeDegrees>
            </Position>
            <AltitudeMeters>384</AltitudeMeters>
            <DistanceMeters>NAN</DistanceMeters>
          </Trackpoint>
          <Trackpoint>
            <Time>2022-07-17T17:02:41.000Z</Time>
            <Position>
              <LatitudeDegrees>43.47687718458473682403564453125</LatitudeDegrees>
              <LongitudeDegrees>-5.50542569719254970550537109375</LongitudeDegrees>
            </Position>
            <AltitudeMeters>384.20001220703125</AltitudeMeters>
            <DistanceMeters>NAN</DistanceMeters>
          </Trackpoint>
          <Trackpoint>
            <Time>2022-07-17T17:02:44.000Z</Time>
            <Position>
              <LatitudeDegrees>43.47684499807655811309814453125</LatitudeDegrees>
              <LongitudeDegrees>-5.50547070801258087158203125</LongitudeDegrees>
            </Position>
            <AltitudeMeters>384.399993896484375</AltitudeMeters>
            <DistanceMeters>NAN</DistanceMeters>
          </Trackpoint>
          <Trackpoint>
            <Time>2022-07-17T17:02:46.000Z</Time>
            <Position>
              <LatitudeDegrees>43.4768075309693813323974609375</LatitudeDegrees>
              <LongitudeDegrees>-5.505483448505401611328125</LongitudeDegrees>
            </Position>
            <AltitudeMeters>384.399993896484375</AltitudeMeters>
            <DistanceMeters>NAN</DistanceMeters>
          </Trackpoint>
          <Trackpoint>
            <Time>2022-07-17T17:02:49.000Z</Time>
            <Position>
              <LatitudeDegrees>43.47673594951629638671875</LatitudeDegrees>
              <LongitudeDegrees>-5.505495183169841766357421875</LongitudeDegrees>
            </Position>
            <AltitudeMeters>384.399993896484375</AltitudeMeters>
            <DistanceMeters>NAN</DistanceMeters>
          </Trackpoint>
          <Trackpoint>
            <Time>2022-07-17T17:02:51.000Z</Time>
            <Position>
              <LatitudeDegrees>43.47669580020010471343994140625</LatitudeDegrees>
              <LongitudeDegrees>-5.50549727864563465118408203125</LongitudeDegrees>
            </Position>
            <AltitudeMeters>384.399993896484375</AltitudeMeters>
            <DistanceMeters>NAN</DistanceMeters>
          </Trackpoint>
          <Trackpoint>
            <Time>2022-07-17T17:02:55.000Z</Time>
            <Position>
              <LatitudeDegrees>43.4766154177486896514892578125</LatitudeDegrees>
              <LongitudeDegrees>-5.50546995364129543304443359375</LongitudeDegrees>
            </Position>
            <AltitudeMeters>384.399993896484375</AltitudeMeters>
            <DistanceMeters>NAN</DistanceMeters>
          </Trackpoint>
          <Trackpoint>
            <Time>2022-07-17T17:02:57.000Z</Time>
            <Position>
              <LatitudeDegrees>43.4765939600765705108642578125</LatitudeDegrees>
              <LongitudeDegrees>-5.505471713840961456298828125</LongitudeDegrees>
            </Position>
            <AltitudeMeters>384.399993896484375</AltitudeMeters>
            <DistanceMeters>NAN</DistanceMeters>
          </Trackpoint>
          <Trackpoint>
            <Time>2022-07-17T17:03:04.000Z</Time>
            <Position>
              <LatitudeDegrees>43.47640360705554485321044921875</LatitudeDegrees>
              <LongitudeDegrees>-5.5055201612412929534912109375</LongitudeDegrees>
            </Position>
            <AltitudeMeters>384.79998779296875</AltitudeMeters>
            <DistanceMeters>NAN</DistanceMeters>
          </Trackpoint>
          <Trackpoint>
            <Time>2022-07-17T17:03:05.000Z</Time>
            <Position>
              <LatitudeDegrees>43.47638525068759918212890625</LatitudeDegrees>
              <LongitudeDegrees>-5.5055277049541473388671875</LongitudeDegrees>
            </Position>
            <AltitudeMeters>385</AltitudeMeters>
            <DistanceMeters>NAN</DistanceMeters>
          </Trackpoint>
          <Trackpoint>
            <Time>2022-07-17T17:03:11.000Z</Time>
            <Position>
              <LatitudeDegrees>43.4762979112565517425537109375</LatitudeDegrees>
              <LongitudeDegrees>-5.505609177052974700927734375</LongitudeDegrees>
            </Position>
            <AltitudeMeters>385</AltitudeMeters>
            <DistanceMeters>NAN</DistanceMeters>
          </Trackpoint>
          <Trackpoint>
            <Time>2022-07-17T17:03:16.000Z</Time>
            <Position>
              <LatitudeDegrees>43.47619020380079746246337890625</LatitudeDegrees>
              <LongitudeDegrees>-5.5056725442409515380859375</LongitudeDegrees>
            </Position>
            <AltitudeMeters>385.600006103515625</AltitudeMeters>
            <DistanceMeters>NAN</DistanceMeters>
          </Trackpoint>
          <Trackpoint>
            <Time>2022-07-17T17:03:17.000Z</Time>
            <Position>
              <LatitudeDegrees>43.4761701710522174835205078125</LatitudeDegrees>
              <LongitudeDegrees>-5.50568637438118457794189453125</LongitudeDegrees>
            </Position>
            <AltitudeMeters>385.600006103515625</AltitudeMeters>
            <DistanceMeters>NAN</DistanceMeters>
          </Trackpoint>
          <Trackpoint>
            <Time>2022-07-17T17:03:21.000Z</Time>
            <Position>
              <LatitudeDegrees>43.4760910458862781524658203125</LatitudeDegrees>
              <LongitudeDegrees>-5.50574236549437046051025390625</LongitudeDegrees>
            </Position>
            <AltitudeMeters>386</AltitudeMeters>
            <DistanceMeters>NAN</DistanceMeters>
          </Trackpoint>
          <Trackpoint>
            <Time>2022-07-17T17:03:24.000Z</Time>
            <Position>
              <LatitudeDegrees>43.47600580193102359771728515625</LatitudeDegrees>
              <LongitudeDegrees>-5.50578611902892589569091796875</LongitudeDegrees>
            </Position>
            <AltitudeMeters>386.20001220703125</AltitudeMeters>
            <DistanceMeters>NAN</DistanceMeters>
          </Trackpoint>
          <Trackpoint>
            <Time>2022-07-17T17:03:29.000Z</Time>
            <Position>
              <LatitudeDegrees>43.4758871980011463165283203125</LatitudeDegrees>
              <LongitudeDegrees>-5.50585049204528331756591796875</LongitudeDegrees>
            </Position>
            <AltitudeMeters>387</AltitudeMeters>
            <DistanceMeters>NAN</DistanceMeters>
          </Trackpoint>
          <Trackpoint>
            <Time>2022-07-17T17:03:35.000Z</Time>
            <Position>
              <LatitudeDegrees>43.4757695160806179046630859375</LatitudeDegrees>
              <LongitudeDegrees>-5.50587547011673450469970703125</LongitudeDegrees>
            </Position>
            <AltitudeMeters>387.79998779296875</AltitudeMeters>
            <DistanceMeters>NAN</DistanceMeters>
          </Trackpoint>
          <Trackpoint>
            <Time>2022-07-17T17:03:37.000Z</Time>
            <Position>
              <LatitudeDegrees>43.47571603953838348388671875</LatitudeDegrees>
              <LongitudeDegrees>-5.5058869533240795135498046875</LongitudeDegrees>
            </Position>
            <AltitudeMeters>388.20001220703125</AltitudeMeters>
            <DistanceMeters>NAN</DistanceMeters>
          </Trackpoint>
          <Trackpoint>
            <Time>2022-07-17T17:03:42.000Z</Time>
            <Position>
              <LatitudeDegrees>43.47562082111835479736328125</LatitudeDegrees>
              <LongitudeDegrees>-5.5058970116078853607177734375</LongitudeDegrees>
            </Position>
            <AltitudeMeters>388.79998779296875</AltitudeMeters>
            <DistanceMeters>NAN</DistanceMeters>
          </Trackpoint>
          <Trackpoint>
            <Time>2022-07-17T17:03:44.000Z</Time>
            <Position>
              <LatitudeDegrees>43.47559089772403240203857421875</LatitudeDegrees>
              <LongitudeDegrees>-5.505888797342777252197265625</LongitudeDegrees>
            </Position>
            <AltitudeMeters>389.20001220703125</AltitudeMeters>
            <DistanceMeters>NAN</DistanceMeters>
          </Trackpoint>
          <Trackpoint>
            <Time>2022-07-17T17:03:47.000Z</Time>
            <Position>
              <LatitudeDegrees>43.47555686719715595245361328125</LatitudeDegrees>
              <LongitudeDegrees>-5.50587479956448078155517578125</LongitudeDegrees>
            </Position>
            <AltitudeMeters>389.79998779296875</AltitudeMeters>
            <DistanceMeters>NAN</DistanceMeters>
          </Trackpoint>
          <Trackpoint>
            <Time>2022-07-17T17:03:48.000Z</Time>
            <Position>
              <LatitudeDegrees>43.47554731182754039764404296875</LatitudeDegrees>
              <LongitudeDegrees>-5.50587396137416362762451171875</LongitudeDegrees>
            </Position>
            <AltitudeMeters>390</AltitudeMeters>
            <DistanceMeters>NAN</DistanceMeters>
          </Trackpoint>
          <Trackpoint>
            <Time>2022-07-17T17:03:51.000Z</Time>
            <Position>
              <LatitudeDegrees>43.47553373314440250396728515625</LatitudeDegrees>
              <LongitudeDegrees>-5.50586977042257785797119140625</LongitudeDegrees>
            </Position>
            <AltitudeMeters>390.20001220703125</AltitudeMeters>
            <DistanceMeters>NAN</DistanceMeters>
          </Trackpoint>
          <Trackpoint>
            <Time>2022-07-17T17:08:44.000Z</Time>
            <Position>
              <LatitudeDegrees>43.4754050709307193756103515625</LatitudeDegrees>
              <LongitudeDegrees>-5.5057662539184093475341796875</LongitudeDegrees>
            </Position>
            <AltitudeMeters>394.20001220703125</AltitudeMeters>
            <DistanceMeters>NAN</DistanceMeters>
          </Trackpoint>
          <Trackpoint>
            <Time>2022-07-17T17:08:45.000Z</Time>
            <Position>
              <LatitudeDegrees>43.47538939677178859710693359375</LatitudeDegrees>
              <LongitudeDegrees>-5.5057642422616481781005859375</LongitudeDegrees>
            </Position>
            <AltitudeMeters>394.20001220703125</AltitudeMeters>
            <DistanceMeters>NAN</DistanceMeters>
          </Trackpoint>
          <Trackpoint>
            <Time>2022-07-17T17:08:47.000Z</Time>
            <Position>
              <LatitudeDegrees>43.475381098687648773193359375</LatitudeDegrees>
              <LongitudeDegrees>-5.5057759769260883331298828125</LongitudeDegrees>
            </Position>
            <AltitudeMeters>394.399993896484375</AltitudeMeters>
            <DistanceMeters>NAN</DistanceMeters>
          </Trackpoint>
          <Trackpoint>
            <Time>2022-07-17T17:08:50.000Z</Time>
            <Position>
              <LatitudeDegrees>43.4753661789000034332275390625</LatitudeDegrees>
              <LongitudeDegrees>-5.5058152042329311370849609375</LongitudeDegrees>
            </Position>
            <AltitudeMeters>394.600006103515625</AltitudeMeters>
            <DistanceMeters>NAN</DistanceMeters>
          </Trackpoint>
          <Trackpoint>
            <Time>2022-07-17T17:08:56.000Z</Time>
            <Position>
              <LatitudeDegrees>43.47532133571803569793701171875</LatitudeDegrees>
              <LongitudeDegrees>-5.5058745481073856353759765625</LongitudeDegrees>
            </Position>
            <AltitudeMeters>394.79998779296875</AltitudeMeters>
            <DistanceMeters>NAN</DistanceMeters>
          </Trackpoint>
          <Trackpoint>
            <Time>2022-07-17T17:08:57.000Z</Time>
            <Position>
              <LatitudeDegrees>43.47531697712838649749755859375</LatitudeDegrees>
              <LongitudeDegrees>-5.505870021879673004150390625</LongitudeDegrees>
            </Position>
            <AltitudeMeters>394.79998779296875</AltitudeMeters>
            <DistanceMeters>NAN</DistanceMeters>
          </Trackpoint>
          <Trackpoint>
            <Time>2022-07-17T17:09:54.000Z</Time>
            <Position>
              <LatitudeDegrees>43.47519208677113056182861328125</LatitudeDegrees>
              <LongitudeDegrees>-5.50613732077181339263916015625</LongitudeDegrees>
            </Position>
            <AltitudeMeters>395.79998779296875</AltitudeMeters>
            <DistanceMeters>NAN</DistanceMeters>
          </Trackpoint>
          <Trackpoint>
            <Time>2022-07-17T17:09:57.000Z</Time>
            <Position>
              <LatitudeDegrees>43.47519166767597198486328125</LatitudeDegrees>
              <LongitudeDegrees>-5.50620269961655139923095703125</LongitudeDegrees>
            </Position>
            <AltitudeMeters>396</AltitudeMeters>
            <DistanceMeters>NAN</DistanceMeters>
          </Trackpoint>
          <Trackpoint>
            <Time>2022-07-17T17:09:59.000Z</Time>
            <Position>
              <LatitudeDegrees>43.47518621943891048431396484375</LatitudeDegrees>
              <LongitudeDegrees>-5.5062329582870006561279296875</LongitudeDegrees>
            </Position>
            <AltitudeMeters>396.20001220703125</AltitudeMeters>
            <DistanceMeters>NAN</DistanceMeters>
          </Trackpoint>
          <Trackpoint>
            <Time>2022-07-17T17:10:02.000Z</Time>
            <Position>
              <LatitudeDegrees>43.47519074566662311553955078125</LatitudeDegrees>
              <LongitudeDegrees>-5.50628534518182277679443359375</LongitudeDegrees>
            </Position>
            <AltitudeMeters>396.600006103515625</AltitudeMeters>
            <DistanceMeters>NAN</DistanceMeters>
          </Trackpoint>
          <Trackpoint>
            <Time>2022-07-17T17:10:03.000Z</Time>
            <Position>
              <LatitudeDegrees>43.47518621943891048431396484375</LatitudeDegrees>
              <LongitudeDegrees>-5.50630495883524417877197265625</LongitudeDegrees>
            </Position>
            <AltitudeMeters>396.600006103515625</AltitudeMeters>
            <DistanceMeters>NAN</DistanceMeters>
          </Trackpoint>
          <Trackpoint>
            <Time>2022-07-17T17:10:06.000Z</Time>
            <Position>
              <LatitudeDegrees>43.4751821123063564300537109375</LatitudeDegrees>
              <LongitudeDegrees>-5.50635776482522487640380859375</LongitudeDegrees>
            </Position>
            <AltitudeMeters>396.79998779296875</AltitudeMeters>
            <DistanceMeters>NAN</DistanceMeters>
          </Trackpoint>
          <Trackpoint>
            <Time>2022-07-17T17:10:09.000Z</Time>
            <Position>
              <LatitudeDegrees>43.47518135793507099151611328125</LatitudeDegrees>
              <LongitudeDegrees>-5.50641912035644054412841796875</LongitudeDegrees>
            </Position>
            <AltitudeMeters>397.20001220703125</AltitudeMeters>
            <DistanceMeters>NAN</DistanceMeters>
          </Trackpoint>
          <Trackpoint>
            <Time>2022-07-17T17:10:11.000Z</Time>
            <Position>
              <LatitudeDegrees>43.4751787595450878143310546875</LatitudeDegrees>
              <LongitudeDegrees>-5.50644409842789173126220703125</LongitudeDegrees>
            </Position>
            <AltitudeMeters>397.20001220703125</AltitudeMeters>
            <DistanceMeters>NAN</DistanceMeters>
          </Trackpoint>
          <Trackpoint>
            <Time>2022-07-17T17:10:17.000Z</Time>
            <Position>
              <LatitudeDegrees>43.475189320743083953857421875</LatitudeDegrees>
              <LongitudeDegrees>-5.506536550819873809814453125</LongitudeDegrees>
            </Position>
            <AltitudeMeters>397.600006103515625</AltitudeMeters>
            <DistanceMeters>NAN</DistanceMeters>
          </Trackpoint>
          <Trackpoint>
            <Time>2022-07-17T17:10:19.000Z</Time>
            <Position>
              <LatitudeDegrees>43.4751854650676250457763671875</LatitudeDegrees>
              <LongitudeDegrees>-5.5065719224512577056884765625</LongitudeDegrees>
            </Position>
            <AltitudeMeters>397.600006103515625</AltitudeMeters>
            <DistanceMeters>NAN</DistanceMeters>
          </Trackpoint>
          <Trackpoint>
            <Time>2022-07-17T17:10:23.000Z</Time>
            <Position>
              <LatitudeDegrees>43.4751988761126995086669921875</LatitudeDegrees>
              <LongitudeDegrees>-5.50666890107095241546630859375</LongitudeDegrees>
            </Position>
            <AltitudeMeters>397.79998779296875</AltitudeMeters>
            <DistanceMeters>NAN</DistanceMeters>
          </Trackpoint>
          <Trackpoint>
            <Time>2022-07-17T17:10:24.000Z</Time>
            <Position>
              <LatitudeDegrees>43.47520507872104644775390625</LatitudeDegrees>
              <LongitudeDegrees>-5.5066896043717861175537109375</LongitudeDegrees>
            </Position>
            <AltitudeMeters>398</AltitudeMeters>
            <DistanceMeters>NAN</DistanceMeters>
          </Trackpoint>
          <Trackpoint>
            <Time>2022-07-17T17:10:26.000Z</Time>
            <Position>
              <LatitudeDegrees>43.4752084314823150634765625</LatitudeDegrees>
              <LongitudeDegrees>-5.5067147500813007354736328125</LongitudeDegrees>
            </Position>
            <AltitudeMeters>398</AltitudeMeters>
            <DistanceMeters>NAN</DistanceMeters>
          </Trackpoint>
          <Trackpoint>
            <Time>2022-07-17T17:10:28.000Z</Time>
            <Position>
              <LatitudeDegrees>43.4752069227397441864013671875</LatitudeDegrees>
              <LongitudeDegrees>-5.5067459307610988616943359375</LongitudeDegrees>
            </Position>
            <AltitudeMeters>398.20001220703125</AltitudeMeters>
            <DistanceMeters>NAN</DistanceMeters>
          </Trackpoint>
          <Trackpoint>
            <Time>2022-07-17T17:10:33.000Z</Time>
            <Position>
              <LatitudeDegrees>43.47521052695810794830322265625</LatitudeDegrees>
              <LongitudeDegrees>-5.5068458430469036102294921875</LongitudeDegrees>
            </Position>
            <AltitudeMeters>398.600006103515625</AltitudeMeters>
            <DistanceMeters>NAN</DistanceMeters>
          </Trackpoint>
          <Trackpoint>
            <Time>2022-07-17T17:10:36.000Z</Time>
            <Position>
              <LatitudeDegrees>43.47521178424358367919921875</LatitudeDegrees>
              <LongitudeDegrees>-5.5068929493427276611328125</LongitudeDegrees>
            </Position>
            <AltitudeMeters>398.79998779296875</AltitudeMeters>
            <DistanceMeters>NAN</DistanceMeters>
          </Trackpoint>
          <Trackpoint>
            <Time>2022-07-17T17:10:37.000Z</Time>
            <Position>
              <LatitudeDegrees>43.47521178424358367919921875</LatitudeDegrees>
              <LongitudeDegrees>-5.5068929493427276611328125</LongitudeDegrees>
            </Position>
            <AltitudeMeters>399</AltitudeMeters>
            <DistanceMeters>NAN</DistanceMeters>
          </Trackpoint>
          <Trackpoint>
            <Time>2022-07-17T17:10:46.000Z</Time>
            <Position>
              <LatitudeDegrees>43.475220836699008941650390625</LatitudeDegrees>
              <LongitudeDegrees>-5.5070637725293636322021484375</LongitudeDegrees>
            </Position>
            <AltitudeMeters>399.600006103515625</AltitudeMeters>
            <DistanceMeters>NAN</DistanceMeters>
          </Trackpoint>
          <Trackpoint>
            <Time>2022-07-17T17:10:51.000Z</Time>
            <Position>
              <LatitudeDegrees>43.475230224430561065673828125</LatitudeDegrees>
              <LongitudeDegrees>-5.5071653611958026885986328125</LongitudeDegrees>
            </Position>
            <AltitudeMeters>400</AltitudeMeters>
            <DistanceMeters>NAN</DistanceMeters>
          </Trackpoint>
          <Trackpoint>
            <Time>2022-07-17T17:10:55.000Z</Time>
            <Position>
              <LatitudeDegrees>43.4752347506582736968994140625</LatitudeDegrees>
              <LongitudeDegrees>-5.50722353160381317138671875</LongitudeDegrees>
            </Position>
            <AltitudeMeters>400.399993896484375</AltitudeMeters>
            <DistanceMeters>NAN</DistanceMeters>
          </Trackpoint>
          <Trackpoint>
            <Time>2022-07-17T17:10:57.000Z</Time>
            <Position>
              <LatitudeDegrees>43.4752384386956691741943359375</LatitudeDegrees>
              <LongitudeDegrees>-5.50725328736007213592529296875</LongitudeDegrees>
            </Position>
            <AltitudeMeters>400.399993896484375</AltitudeMeters>
            <DistanceMeters>NAN</DistanceMeters>
          </Trackpoint>
          <Trackpoint>
            <Time>2022-07-17T17:11:02.000Z</Time>
            <Position>
              <LatitudeDegrees>43.47524656914174556732177734375</LatitudeDegrees>
              <LongitudeDegrees>-5.5073328316211700439453125</LongitudeDegrees>
            </Position>
            <AltitudeMeters>400.79998779296875</AltitudeMeters>
            <DistanceMeters>NAN</DistanceMeters>
          </Trackpoint>
          <Trackpoint>
            <Time>2022-07-17T17:11:04.000Z</Time>
            <Position>
              <LatitudeDegrees>43.47524824552237987518310546875</LatitudeDegrees>
              <LongitudeDegrees>-5.50736744888126850128173828125</LongitudeDegrees>
            </Position>
            <AltitudeMeters>401.20001220703125</AltitudeMeters>
            <DistanceMeters>NAN</DistanceMeters>
          </Trackpoint>
          <Trackpoint>
            <Time>2022-07-17T17:11:15.000Z</Time>
            <Position>
              <LatitudeDegrees>43.47525897435843944549560546875</LatitudeDegrees>
              <LongitudeDegrees>-5.50752888433635234832763671875</LongitudeDegrees>
            </Position>
            <AltitudeMeters>402.20001220703125</AltitudeMeters>
            <DistanceMeters>NAN</DistanceMeters>
          </Trackpoint>
          <Trackpoint>
            <Time>2022-07-17T17:11:16.000Z</Time>
            <Position>
              <LatitudeDegrees>43.47525746561586856842041015625</LatitudeDegrees>
              <LongitudeDegrees>-5.507547743618488311767578125</LongitudeDegrees>
            </Position>
            <AltitudeMeters>402.399993896484375</AltitudeMeters>
            <DistanceMeters>NAN</DistanceMeters>
          </Trackpoint>
          <Trackpoint>
            <Time>2022-07-17T17:11:25.000Z</Time>
            <Position>
              <LatitudeDegrees>43.4752647578716278076171875</LatitudeDegrees>
              <LongitudeDegrees>-5.5076917447149753570556640625</LongitudeDegrees>
            </Position>
            <AltitudeMeters>402.79998779296875</AltitudeMeters>
            <DistanceMeters>NAN</DistanceMeters>
          </Trackpoint>
          <Trackpoint>
            <Time>2022-07-17T17:11:26.000Z</Time>
            <Position>
              <LatitudeDegrees>43.47526517696678638458251953125</LatitudeDegrees>
              <LongitudeDegrees>-5.50770875997841358184814453125</LongitudeDegrees>
            </Position>
            <AltitudeMeters>403</AltitudeMeters>
            <DistanceMeters>NAN</DistanceMeters>
          </Trackpoint>
          <Trackpoint>
            <Time>2022-07-17T17:11:29.000Z</Time>
            <Position>
              <LatitudeDegrees>43.475268781185150146484375</LatitudeDegrees>
              <LongitudeDegrees>-5.50773524679243564605712890625</LongitudeDegrees>
            </Position>
            <AltitudeMeters>403.399993896484375</AltitudeMeters>
            <DistanceMeters>NAN</DistanceMeters>
          </Trackpoint>
          <Trackpoint>
            <Time>2022-07-17T17:11:31.000Z</Time>
            <Position>
              <LatitudeDegrees>43.475274145603179931640625</LatitudeDegrees>
              <LongitudeDegrees>-5.5077812634408473968505859375</LongitudeDegrees>
            </Position>
            <AltitudeMeters>403.600006103515625</AltitudeMeters>
            <DistanceMeters>NAN</DistanceMeters>
          </Trackpoint>
          <Trackpoint>
            <Time>2022-07-17T17:11:33.000Z</Time>
            <Position>
              <LatitudeDegrees>43.47527422942221164703369140625</LatitudeDegrees>
              <LongitudeDegrees>-5.50781688652932643890380859375</LongitudeDegrees>
            </Position>
            <AltitudeMeters>403.79998779296875</AltitudeMeters>
            <DistanceMeters>NAN</DistanceMeters>
          </Trackpoint>
          <Trackpoint>
            <Time>2022-07-17T17:11:39.000Z</Time>
            <Position>
              <LatitudeDegrees>43.47528998740017414093017578125</LatitudeDegrees>
              <LongitudeDegrees>-5.50791294313967227935791015625</LongitudeDegrees>
            </Position>
            <AltitudeMeters>404.20001220703125</AltitudeMeters>
            <DistanceMeters>NAN</DistanceMeters>
          </Trackpoint>
          <Trackpoint>
            <Time>2022-07-17T17:11:41.000Z</Time>
            <Position>
              <LatitudeDegrees>43.4752934239804744720458984375</LatitudeDegrees>
              <LongitudeDegrees>-5.5079435370862483978271484375</LongitudeDegrees>
            </Position>
            <AltitudeMeters>404.399993896484375</AltitudeMeters>
            <DistanceMeters>NAN</DistanceMeters>
          </Trackpoint>
          <Trackpoint>
            <Time>2022-07-17T17:11:46.000Z</Time>
            <Position>
              <LatitudeDegrees>43.47528680227696895599365234375</LatitudeDegrees>
              <LongitudeDegrees>-5.508013777434825897216796875</LongitudeDegrees>
            </Position>
            <AltitudeMeters>405</AltitudeMeters>
            <DistanceMeters>NAN</DistanceMeters>
          </Trackpoint>
          <Trackpoint>
            <Time>2022-07-17T17:11:47.000Z</Time>
            <Position>
              <LatitudeDegrees>43.47529099322855472564697265625</LatitudeDegrees>
              <LongitudeDegrees>-5.5080263502895832061767578125</LongitudeDegrees>
            </Position>
            <AltitudeMeters>405</AltitudeMeters>
            <DistanceMeters>NAN</DistanceMeters>
          </Trackpoint>
          <Trackpoint>
            <Time>2022-07-17T17:11:51.000Z</Time>
            <Position>
              <LatitudeDegrees>43.4752890653908252716064453125</LatitudeDegrees>
              <LongitudeDegrees>-5.5080897174775600433349609375</LongitudeDegrees>
            </Position>
            <AltitudeMeters>405.399993896484375</AltitudeMeters>
            <DistanceMeters>NAN</DistanceMeters>
          </Trackpoint>
          <Trackpoint>
            <Time>2022-07-17T17:11:53.000Z</Time>
            <Position>
              <LatitudeDegrees>43.47528663463890552520751953125</LatitudeDegrees>
              <LongitudeDegrees>-5.50810907967388629913330078125</LongitudeDegrees>
            </Position>
            <AltitudeMeters>405.600006103515625</AltitudeMeters>
            <DistanceMeters>NAN</DistanceMeters>
          </Trackpoint>
          <Trackpoint>
            <Time>2022-07-17T17:11:55.000Z</Time>
            <Position>
              <LatitudeDegrees>43.4752847068011760711669921875</LatitudeDegrees>
              <LongitudeDegrees>-5.5081208981573581695556640625</LongitudeDegrees>
            </Position>
            <AltitudeMeters>405.79998779296875</AltitudeMeters>
            <DistanceMeters>NAN</DistanceMeters>
          </Trackpoint>
          <Trackpoint>
            <Time>2022-07-17T17:12:04.000Z</Time>
            <Position>
              <LatitudeDegrees>43.47526802681386470794677734375</LatitudeDegrees>
              <LongitudeDegrees>-5.50823246128857135772705078125</LongitudeDegrees>
            </Position>
            <AltitudeMeters>406.399993896484375</AltitudeMeters>
            <DistanceMeters>NAN</DistanceMeters>
          </Trackpoint>
          <Trackpoint>
            <Time>2022-07-17T17:12:05.000Z</Time>
            <Position>
              <LatitudeDegrees>43.47525629214942455291748046875</LatitudeDegrees>
              <LongitudeDegrees>-5.50824101082980632781982421875</LongitudeDegrees>
            </Position>
            <AltitudeMeters>406.399993896484375</AltitudeMeters>
            <DistanceMeters>NAN</DistanceMeters>
          </Trackpoint>
          <Trackpoint>
            <Time>2022-07-17T17:12:06.000Z</Time>
            <Position>
              <LatitudeDegrees>43.47525629214942455291748046875</LatitudeDegrees>
              <LongitudeDegrees>-5.50824101082980632781982421875</LongitudeDegrees>
            </Position>
            <AltitudeMeters>406.399993896484375</AltitudeMeters>
            <DistanceMeters>NAN</DistanceMeters>
          </Trackpoint>
          <Trackpoint>
            <Time>2022-07-17T17:12:07.000Z</Time>
            <Position>
              <LatitudeDegrees>43.4752451442182064056396484375</LatitudeDegrees>
              <LongitudeDegrees>-5.50827973522245883941650390625</LongitudeDegrees>
            </Position>
            <AltitudeMeters>406.399993896484375</AltitudeMeters>
            <DistanceMeters>NAN</DistanceMeters>
          </Trackpoint>
          <Trackpoint>
            <Time>2022-07-17T17:12:11.000Z</Time>
            <Position>
              <LatitudeDegrees>43.4752401150763034820556640625</LatitudeDegrees>
              <LongitudeDegrees>-5.5083252489566802978515625</LongitudeDegrees>
            </Position>
            <AltitudeMeters>406.79998779296875</AltitudeMeters>
            <DistanceMeters>NAN</DistanceMeters>
          </Trackpoint>
          <Trackpoint>
            <Time>2022-07-17T17:12:15.000Z</Time>
            <Position>
              <LatitudeDegrees>43.47521941177546977996826171875</LatitudeDegrees>
              <LongitudeDegrees>-5.50838383845984935760498046875</LongitudeDegrees>
            </Position>
            <AltitudeMeters>407.20001220703125</AltitudeMeters>
            <DistanceMeters>NAN</DistanceMeters>
          </Trackpoint>
          <Trackpoint>
            <Time>2022-07-17T17:12:17.000Z</Time>
            <Position>
              <LatitudeDegrees>43.47520013339817523956298828125</LatitudeDegrees>
              <LongitudeDegrees>-5.50839389674365520477294921875</LongitudeDegrees>
            </Position>
            <AltitudeMeters>407.399993896484375</AltitudeMeters>
            <DistanceMeters>NAN</DistanceMeters>
          </Trackpoint>
          <Trackpoint>
            <Time>2022-07-17T17:12:18.000Z</Time>
            <Position>
              <LatitudeDegrees>43.47520013339817523956298828125</LatitudeDegrees>
              <LongitudeDegrees>-5.50839389674365520477294921875</LongitudeDegrees>
            </Position>
            <AltitudeMeters>407.399993896484375</AltitudeMeters>
            <DistanceMeters>NAN</DistanceMeters>
          </Trackpoint>
          <Trackpoint>
            <Time>2022-07-17T17:12:19.000Z</Time>
            <Position>
              <LatitudeDegrees>43.4751834534108638763427734375</LatitudeDegrees>
              <LongitudeDegrees>-5.50839590840041637420654296875</LongitudeDegrees>
            </Position>
            <AltitudeMeters>407.600006103515625</AltitudeMeters>
            <DistanceMeters>NAN</DistanceMeters>
          </Trackpoint>
          <Trackpoint>
            <Time>2022-07-17T17:12:23.000Z</Time>
            <Position>
              <LatitudeDegrees>43.4751576371490955352783203125</LatitudeDegrees>
              <LongitudeDegrees>-5.50843463279306888580322265625</LongitudeDegrees>
            </Position>
            <AltitudeMeters>408.20001220703125</AltitudeMeters>
            <DistanceMeters>NAN</DistanceMeters>
          </Trackpoint>
          <Trackpoint>
            <Time>2022-07-17T17:12:28.000Z</Time>
            <Position>
              <LatitudeDegrees>43.47512519918382167816162109375</LatitudeDegrees>
              <LongitudeDegrees>-5.50848961807787418365478515625</LongitudeDegrees>
            </Position>
            <AltitudeMeters>408.399993896484375</AltitudeMeters>
            <DistanceMeters>NAN</DistanceMeters>
          </Trackpoint>
          <Trackpoint>
            <Time>2022-07-17T17:12:31.000Z</Time>
            <Position>
              <LatitudeDegrees>43.4750904142856597900390625</LatitudeDegrees>
              <LongitudeDegrees>-5.508548207581043243408203125</LongitudeDegrees>
            </Position>
            <AltitudeMeters>408.600006103515625</AltitudeMeters>
            <DistanceMeters>NAN</DistanceMeters>
          </Trackpoint>
          <Trackpoint>
            <Time>2022-07-17T17:12:33.000Z</Time>
            <Position>
              <LatitudeDegrees>43.475068621337413787841796875</LatitudeDegrees>
              <LongitudeDegrees>-5.50857938826084136962890625</LongitudeDegrees>
            </Position>
            <AltitudeMeters>408.79998779296875</AltitudeMeters>
            <DistanceMeters>NAN</DistanceMeters>
          </Trackpoint>
          <Trackpoint>
            <Time>2022-07-17T17:12:38.000Z</Time>
            <Position>
              <LatitudeDegrees>43.475005924701690673828125</LatitudeDegrees>
              <LongitudeDegrees>-5.50862305797636508941650390625</LongitudeDegrees>
            </Position>
            <AltitudeMeters>409.20001220703125</AltitudeMeters>
            <DistanceMeters>NAN</DistanceMeters>
          </Trackpoint>
          <Trackpoint>
            <Time>2022-07-17T17:12:42.000Z</Time>
            <Position>
              <LatitudeDegrees>43.47496460191905498504638671875</LatitudeDegrees>
              <LongitudeDegrees>-5.50863797776401042938232421875</LongitudeDegrees>
            </Position>
            <AltitudeMeters>409.600006103515625</AltitudeMeters>
            <DistanceMeters>NAN</DistanceMeters>
          </Trackpoint>
          <Trackpoint>
            <Time>2022-07-17T17:12:43.000Z</Time>
            <Position>
              <LatitudeDegrees>43.47494482062757015228271484375</LatitudeDegrees>
              <LongitudeDegrees>-5.50865708850324153900146484375</LongitudeDegrees>
            </Position>
            <AltitudeMeters>409.600006103515625</AltitudeMeters>
            <DistanceMeters>NAN</DistanceMeters>
          </Trackpoint>
          <Trackpoint>
            <Time>2022-07-17T17:12:46.000Z</Time>
            <Position>
              <LatitudeDegrees>43.47491665743291378021240234375</LatitudeDegrees>
              <LongitudeDegrees>-5.50868843682110309600830078125</LongitudeDegrees>
            </Position>
            <AltitudeMeters>410.20001220703125</AltitudeMeters>
            <DistanceMeters>NAN</DistanceMeters>
          </Trackpoint>
          <Trackpoint>
            <Time>2022-07-17T17:12:49.000Z</Time>
            <Position>
              <LatitudeDegrees>43.4748900867998600006103515625</LatitudeDegrees>
              <LongitudeDegrees>-5.50872146151959896087646484375</LongitudeDegrees>
            </Position>
            <AltitudeMeters>410.600006103515625</AltitudeMeters>
            <DistanceMeters>NAN</DistanceMeters>
          </Trackpoint>
          <Trackpoint>
            <Time>2022-07-17T17:12:55.000Z</Time>
            <Position>
              <LatitudeDegrees>43.47483627498149871826171875</LatitudeDegrees>
              <LongitudeDegrees>-5.50876152701675891876220703125</LongitudeDegrees>
            </Position>
            <AltitudeMeters>411.20001220703125</AltitudeMeters>
            <DistanceMeters>NAN</DistanceMeters>
          </Trackpoint>
          <Trackpoint>
            <Time>2022-07-17T17:12:58.000Z</Time>
            <Position>
              <LatitudeDegrees>43.47481842152774333953857421875</LatitudeDegrees>
              <LongitudeDegrees>-5.50878860056400299072265625</LongitudeDegrees>
            </Position>
            <AltitudeMeters>411.20001220703125</AltitudeMeters>
            <DistanceMeters>NAN</DistanceMeters>
          </Trackpoint>
          <Trackpoint>
            <Time>2022-07-17T17:13:03.000Z</Time>
            <Position>
              <LatitudeDegrees>43.47477936185896396636962890625</LatitudeDegrees>
              <LongitudeDegrees>-5.50883285701274871826171875</LongitudeDegrees>
            </Position>
            <AltitudeMeters>411.600006103515625</AltitudeMeters>
            <DistanceMeters>NAN</DistanceMeters>
          </Trackpoint>
          <Trackpoint>
            <Time>2022-07-17T17:13:04.000Z</Time>
            <Position>
              <LatitudeDegrees>43.4747569821774959564208984375</LatitudeDegrees>
              <LongitudeDegrees>-5.5088504590094089508056640625</LongitudeDegrees>
            </Position>
            <AltitudeMeters>411.79998779296875</AltitudeMeters>
            <DistanceMeters>NAN</DistanceMeters>
          </Trackpoint>
          <Trackpoint>
            <Time>2022-07-17T17:13:05.000Z</Time>
            <Position>
              <LatitudeDegrees>43.4747499413788318634033203125</LatitudeDegrees>
              <LongitudeDegrees>-5.508855991065502166748046875</LongitudeDegrees>
            </Position>
            <AltitudeMeters>412</AltitudeMeters>
            <DistanceMeters>NAN</DistanceMeters>
          </Trackpoint>
          <Trackpoint>
            <Time>2022-07-17T17:13:08.000Z</Time>
            <Position>
              <LatitudeDegrees>43.47473057918250560760498046875</LatitudeDegrees>
              <LongitudeDegrees>-5.50886764191091060638427734375</LongitudeDegrees>
            </Position>
            <AltitudeMeters>412.20001220703125</AltitudeMeters>
            <DistanceMeters>NAN</DistanceMeters>
          </Trackpoint>
          <Trackpoint>
            <Time>2022-07-17T17:13:10.000Z</Time>
            <Position>
              <LatitudeDegrees>43.4746855683624744415283203125</LatitudeDegrees>
              <LongitudeDegrees>-5.50890100188553333282470703125</LongitudeDegrees>
            </Position>
            <AltitudeMeters>412.399993896484375</AltitudeMeters>
            <DistanceMeters>NAN</DistanceMeters>
          </Trackpoint>
          <Trackpoint>
            <Time>2022-07-17T17:13:13.000Z</Time>
            <Position>
              <LatitudeDegrees>43.4746706485748291015625</LatitudeDegrees>
              <LongitudeDegrees>-5.50892941653728485107421875</LongitudeDegrees>
            </Position>
            <AltitudeMeters>412.600006103515625</AltitudeMeters>
            <DistanceMeters>NAN</DistanceMeters>
          </Trackpoint>
          <Trackpoint>
            <Time>2022-07-17T17:13:15.000Z</Time>
            <Position>
              <LatitudeDegrees>43.47464038990437984466552734375</LatitudeDegrees>
              <LongitudeDegrees>-5.5089701525866985321044921875</LongitudeDegrees>
            </Position>
            <AltitudeMeters>413</AltitudeMeters>
            <DistanceMeters>NAN</DistanceMeters>
          </Trackpoint>
          <Trackpoint>
            <Time>2022-07-17T17:13:19.000Z</Time>
            <Position>
              <LatitudeDegrees>43.47460283897817134857177734375</LatitudeDegrees>
              <LongitudeDegrees>-5.509004853665828704833984375</LongitudeDegrees>
            </Position>
            <AltitudeMeters>413.399993896484375</AltitudeMeters>
            <DistanceMeters>NAN</DistanceMeters>
          </Trackpoint>
          <Trackpoint>
            <Time>2022-07-17T17:13:23.000Z</Time>
            <Position>
              <LatitudeDegrees>43.4745709039270877838134765625</LatitudeDegrees>
              <LongitudeDegrees>-5.509073920547962188720703125</LongitudeDegrees>
            </Position>
            <AltitudeMeters>413.79998779296875</AltitudeMeters>
            <DistanceMeters>NAN</DistanceMeters>
          </Trackpoint>
          <Trackpoint>
            <Time>2022-07-17T17:13:26.000Z</Time>
            <Position>
              <LatitudeDegrees>43.4745538048446178436279296875</LatitudeDegrees>
              <LongitudeDegrees>-5.50911591388285160064697265625</LongitudeDegrees>
            </Position>
            <AltitudeMeters>414.20001220703125</AltitudeMeters>
            <DistanceMeters>NAN</DistanceMeters>
          </Trackpoint>
          <Trackpoint>
            <Time>2022-07-17T17:13:32.000Z</Time>
            <Position>
              <LatitudeDegrees>43.4745186008512973785400390625</LatitudeDegrees>
              <LongitudeDegrees>-5.5092004872858524322509765625</LongitudeDegrees>
            </Position>
            <AltitudeMeters>415</AltitudeMeters>
            <DistanceMeters>NAN</DistanceMeters>
          </Trackpoint>
          <Trackpoint>
            <Time>2022-07-17T17:13:37.000Z</Time>
            <Position>
              <LatitudeDegrees>43.47449990920722484588623046875</LatitudeDegrees>
              <LongitudeDegrees>-5.50929126329720020294189453125</LongitudeDegrees>
            </Position>
            <AltitudeMeters>415.600006103515625</AltitudeMeters>
            <DistanceMeters>NAN</DistanceMeters>
          </Trackpoint>
          <Trackpoint>
            <Time>2022-07-17T17:13:40.000Z</Time>
            <Position>
              <LatitudeDegrees>43.47447560168802738189697265625</LatitudeDegrees>
              <LongitudeDegrees>-5.50933836959302425384521484375</LongitudeDegrees>
            </Position>
            <AltitudeMeters>416</AltitudeMeters>
            <DistanceMeters>NAN</DistanceMeters>
          </Trackpoint>
          <Trackpoint>
            <Time>2022-07-17T17:13:44.000Z</Time>
            <Position>
              <LatitudeDegrees>43.47444157116115093231201171875</LatitudeDegrees>
              <LongitudeDegrees>-5.50939586944878101348876953125</LongitudeDegrees>
            </Position>
            <AltitudeMeters>416.20001220703125</AltitudeMeters>
            <DistanceMeters>NAN</DistanceMeters>
          </Trackpoint>
          <Trackpoint>
            <Time>2022-07-17T17:13:46.000Z</Time>
            <Position>
              <LatitudeDegrees>43.474426567554473876953125</LatitudeDegrees>
              <LongitudeDegrees>-5.509421266615390777587890625</LongitudeDegrees>
            </Position>
            <AltitudeMeters>416.20001220703125</AltitudeMeters>
            <DistanceMeters>NAN</DistanceMeters>
          </Trackpoint>
          <Trackpoint>
            <Time>2022-07-17T17:13:47.000Z</Time>
            <Position>
              <LatitudeDegrees>43.474424220621585845947265625</LatitudeDegrees>
              <LongitudeDegrees>-5.5094345100224018096923828125</LongitudeDegrees>
            </Position>
            <AltitudeMeters>416.399993896484375</AltitudeMeters>
            <DistanceMeters>NAN</DistanceMeters>
          </Trackpoint>
          <Trackpoint>
            <Time>2022-07-17T17:13:51.000Z</Time>
            <Position>
              <LatitudeDegrees>43.4744113124907016754150390625</LatitudeDegrees>
              <LongitudeDegrees>-5.5094982124865055084228515625</LongitudeDegrees>
            </Position>
            <AltitudeMeters>417.20001220703125</AltitudeMeters>
            <DistanceMeters>NAN</DistanceMeters>
          </Trackpoint>
          <Trackpoint>
            <Time>2022-07-17T17:13:52.000Z</Time>
            <Position>
              <LatitudeDegrees>43.47440318204462528228759765625</LatitudeDegrees>
              <LongitudeDegrees>-5.509509779512882232666015625</LongitudeDegrees>
            </Position>
            <AltitudeMeters>417.399993896484375</AltitudeMeters>
            <DistanceMeters>NAN</DistanceMeters>
          </Trackpoint>
          <Trackpoint>
            <Time>2022-07-17T17:13:55.000Z</Time>
            <Position>
              <LatitudeDegrees>43.47438239492475986480712890625</LatitudeDegrees>
              <LongitudeDegrees>-5.5095531977713108062744140625</LongitudeDegrees>
            </Position>
            <AltitudeMeters>417.79998779296875</AltitudeMeters>
            <DistanceMeters>NAN</DistanceMeters>
          </Trackpoint>
          <Trackpoint>
            <Time>2022-07-17T17:13:57.000Z</Time>
            <Position>
              <LatitudeDegrees>43.4743794612586498260498046875</LatitudeDegrees>
              <LongitudeDegrees>-5.5095699615776538848876953125</LongitudeDegrees>
            </Position>
            <AltitudeMeters>418</AltitudeMeters>
            <DistanceMeters>NAN</DistanceMeters>
          </Trackpoint>
          <Trackpoint>
            <Time>2022-07-17T17:13:59.000Z</Time>
            <Position>
              <LatitudeDegrees>43.4743673913180828094482421875</LatitudeDegrees>
              <LongitudeDegrees>-5.50961740314960479736328125</LongitudeDegrees>
            </Position>
            <AltitudeMeters>418</AltitudeMeters>
            <DistanceMeters>NAN</DistanceMeters>
          </Trackpoint>
          <Trackpoint>
            <Time>2022-07-17T17:14:01.000Z</Time>
            <Position>
              <LatitudeDegrees>43.47435289062559604644775390625</LatitudeDegrees>
              <LongitudeDegrees>-5.50963944755494594573974609375</LongitudeDegrees>
            </Position>
            <AltitudeMeters>418.20001220703125</AltitudeMeters>
            <DistanceMeters>NAN</DistanceMeters>
          </Trackpoint>
          <Trackpoint>
            <Time>2022-07-17T17:14:06.000Z</Time>
            <Position>
              <LatitudeDegrees>43.47431165166199207305908203125</LatitudeDegrees>
              <LongitudeDegrees>-5.50970784388482570648193359375</LongitudeDegrees>
            </Position>
            <AltitudeMeters>418.600006103515625</AltitudeMeters>
            <DistanceMeters>NAN</DistanceMeters>
          </Trackpoint>
          <Trackpoint>
            <Time>2022-07-17T17:14:10.000Z</Time>
            <Position>
              <LatitudeDegrees>43.47429757006466388702392578125</LatitudeDegrees>
              <LongitudeDegrees>-5.5097548663616180419921875</LongitudeDegrees>
            </Position>
            <AltitudeMeters>419</AltitudeMeters>
            <DistanceMeters>NAN</DistanceMeters>
          </Trackpoint>
          <Trackpoint>
            <Time>2022-07-17T17:14:12.000Z</Time>
            <Position>
              <LatitudeDegrees>43.47428415901958942413330078125</LatitudeDegrees>
              <LongitudeDegrees>-5.509797446429729461669921875</LongitudeDegrees>
            </Position>
            <AltitudeMeters>419.20001220703125</AltitudeMeters>
            <DistanceMeters>NAN</DistanceMeters>
          </Trackpoint>
          <Trackpoint>
            <Time>2022-07-17T17:14:13.000Z</Time>
            <Position>
              <LatitudeDegrees>43.47428181208670139312744140625</LatitudeDegrees>
              <LongitudeDegrees>-5.5098113603889942169189453125</LongitudeDegrees>
            </Position>
            <AltitudeMeters>419.399993896484375</AltitudeMeters>
            <DistanceMeters>NAN</DistanceMeters>
          </Trackpoint>
          <Trackpoint>
            <Time>2022-07-17T17:14:16.000Z</Time>
            <Position>
              <LatitudeDegrees>43.47427837550640106201171875</LatitudeDegrees>
              <LongitudeDegrees>-5.5098422057926654815673828125</LongitudeDegrees>
            </Position>
            <AltitudeMeters>419.79998779296875</AltitudeMeters>
            <DistanceMeters>NAN</DistanceMeters>
          </Trackpoint>
          <Trackpoint>
            <Time>2022-07-17T17:14:20.000Z</Time>
            <Position>
              <LatitudeDegrees>43.4742493741214275360107421875</LatitudeDegrees>
              <LongitudeDegrees>-5.50988805480301380157470703125</LongitudeDegrees>
            </Position>
            <AltitudeMeters>420</AltitudeMeters>
            <DistanceMeters>NAN</DistanceMeters>
          </Trackpoint>
          <Trackpoint>
            <Time>2022-07-17T17:14:22.000Z</Time>
            <Position>
              <LatitudeDegrees>43.4742386452853679656982421875</LatitudeDegrees>
              <LongitudeDegrees>-5.50992057658731937408447265625</LongitudeDegrees>
            </Position>
            <AltitudeMeters>420.399993896484375</AltitudeMeters>
            <DistanceMeters>NAN</DistanceMeters>
          </Trackpoint>
          <Trackpoint>
            <Time>2022-07-17T17:14:31.000Z</Time>
            <Position>
              <LatitudeDegrees>43.4741878509521484375</LatitudeDegrees>
              <LongitudeDegrees>-5.51004211418330669403076171875</LongitudeDegrees>
            </Position>
            <AltitudeMeters>421</AltitudeMeters>
            <DistanceMeters>NAN</DistanceMeters>
          </Trackpoint>
          <Trackpoint>
            <Time>2022-07-17T17:14:34.000Z</Time>
            <Position>
              <LatitudeDegrees>43.47417050041258335113525390625</LatitudeDegrees>
              <LongitudeDegrees>-5.510082431137561798095703125</LongitudeDegrees>
            </Position>
            <AltitudeMeters>421.399993896484375</AltitudeMeters>
            <DistanceMeters>NAN</DistanceMeters>
          </Trackpoint>
          <Trackpoint>
            <Time>2022-07-17T17:14:39.000Z</Time>
            <Position>
              <LatitudeDegrees>43.474133200943470001220703125</LatitudeDegrees>
              <LongitudeDegrees>-5.51017840392887592315673828125</LongitudeDegrees>
            </Position>
            <AltitudeMeters>422</AltitudeMeters>
            <DistanceMeters>NAN</DistanceMeters>
          </Trackpoint>
          <Trackpoint>
            <Time>2022-07-17T17:14:41.000Z</Time>
            <Position>
              <LatitudeDegrees>43.474128507077693939208984375</LatitudeDegrees>
              <LongitudeDegrees>-5.51020237617194652557373046875</LongitudeDegrees>
            </Position>
            <AltitudeMeters>422.20001220703125</AltitudeMeters>
            <DistanceMeters>NAN</DistanceMeters>
          </Trackpoint>
          <Trackpoint>
            <Time>2022-07-17T17:14:43.000Z</Time>
            <Position>
              <LatitudeDegrees>43.47413613460958003997802734375</LatitudeDegrees>
              <LongitudeDegrees>-5.51027043722569942474365234375</LongitudeDegrees>
            </Position>
            <AltitudeMeters>422.399993896484375</AltitudeMeters>
            <DistanceMeters>NAN</DistanceMeters>
          </Trackpoint>
          <Trackpoint>
            <Time>2022-07-17T17:14:46.000Z</Time>
            <Position>
              <LatitudeDegrees>43.47413697279989719390869140625</LatitudeDegrees>
              <LongitudeDegrees>-5.51032542251050472259521484375</LongitudeDegrees>
            </Position>
            <AltitudeMeters>422.600006103515625</AltitudeMeters>
            <DistanceMeters>NAN</DistanceMeters>
          </Trackpoint>
          <Trackpoint>
            <Time>2022-07-17T17:14:48.000Z</Time>
            <Position>
              <LatitudeDegrees>43.47413345240056514739990234375</LatitudeDegrees>
              <LongitudeDegrees>-5.51036012358963489532470703125</LongitudeDegrees>
            </Position>
            <AltitudeMeters>422.79998779296875</AltitudeMeters>
            <DistanceMeters>NAN</DistanceMeters>
          </Trackpoint>
          <Trackpoint>
            <Time>2022-07-17T17:14:52.000Z</Time>
            <Position>
              <LatitudeDegrees>43.47412280738353729248046875</LatitudeDegrees>
              <LongitudeDegrees>-5.51042164675891399383544921875</LongitudeDegrees>
            </Position>
            <AltitudeMeters>423.399993896484375</AltitudeMeters>
            <DistanceMeters>NAN</DistanceMeters>
          </Trackpoint>
          <Trackpoint>
            <Time>2022-07-17T17:14:53.000Z</Time>
            <Position>
              <LatitudeDegrees>43.47412414848804473876953125</LatitudeDegrees>
              <LongitudeDegrees>-5.51044075749814510345458984375</LongitudeDegrees>
            </Position>
            <AltitudeMeters>423.399993896484375</AltitudeMeters>
            <DistanceMeters>NAN</DistanceMeters>
          </Trackpoint>
          <Trackpoint>
            <Time>2022-07-17T17:15:01.000Z</Time>
            <Position>
              <LatitudeDegrees>43.47412188537418842315673828125</LatitudeDegrees>
              <LongitudeDegrees>-5.510590374469757080078125</LongitudeDegrees>
            </Position>
            <AltitudeMeters>424.399993896484375</AltitudeMeters>
            <DistanceMeters>NAN</DistanceMeters>
          </Trackpoint>
          <Trackpoint>
            <Time>2022-07-17T17:15:02.000Z</Time>
            <Position>
              <LatitudeDegrees>43.4741166047751903533935546875</LatitudeDegrees>
              <LongitudeDegrees>-5.5106187053024768829345703125</LongitudeDegrees>
            </Position>
            <AltitudeMeters>424.600006103515625</AltitudeMeters>
            <DistanceMeters>NAN</DistanceMeters>
          </Trackpoint>
          <Trackpoint>
            <Time>2022-07-17T17:15:08.000Z</Time>
            <Position>
              <LatitudeDegrees>43.47408852539956569671630859375</LatitudeDegrees>
              <LongitudeDegrees>-5.510678552091121673583984375</LongitudeDegrees>
            </Position>
            <AltitudeMeters>425</AltitudeMeters>
            <DistanceMeters>NAN</DistanceMeters>
          </Trackpoint>
          <Trackpoint>
            <Time>2022-07-17T17:15:09.000Z</Time>
            <Position>
              <LatitudeDegrees>43.474074862897396087646484375</LatitudeDegrees>
              <LongitudeDegrees>-5.51067561842501163482666015625</LongitudeDegrees>
            </Position>
            <AltitudeMeters>425.20001220703125</AltitudeMeters>
            <DistanceMeters>NAN</DistanceMeters>
          </Trackpoint>
          <Trackpoint>
            <Time>2022-07-17T17:15:11.000Z</Time>
            <Position>
              <LatitudeDegrees>43.47407243214547634124755859375</LatitudeDegrees>
              <LongitudeDegrees>-5.51067478023469448089599609375</LongitudeDegrees>
            </Position>
            <AltitudeMeters>425.600006103515625</AltitudeMeters>
            <DistanceMeters>NAN</DistanceMeters>
          </Trackpoint>
          <Trackpoint>
            <Time>2022-07-17T17:15:14.000Z</Time>
            <Position>
              <LatitudeDegrees>43.47406991757452487945556640625</LatitudeDegrees>
              <LongitudeDegrees>-5.51072758622467517852783203125</LongitudeDegrees>
            </Position>
            <AltitudeMeters>426</AltitudeMeters>
            <DistanceMeters>NAN</DistanceMeters>
          </Trackpoint>
          <Trackpoint>
            <Time>2022-07-17T17:15:15.000Z</Time>
            <Position>
              <LatitudeDegrees>43.47406379878520965576171875</LatitudeDegrees>
              <LongitudeDegrees>-5.51074032671749591827392578125</LongitudeDegrees>
            </Position>
            <AltitudeMeters>426</AltitudeMeters>
            <DistanceMeters>NAN</DistanceMeters>
          </Trackpoint>
          <Trackpoint>
            <Time>2022-07-17T17:15:20.000Z</Time>
            <Position>
              <LatitudeDegrees>43.47406472079455852508544921875</LatitudeDegrees>
              <LongitudeDegrees>-5.510788857936859130859375</LongitudeDegrees>
            </Position>
            <AltitudeMeters>426.399993896484375</AltitudeMeters>
            <DistanceMeters>NAN</DistanceMeters>
          </Trackpoint>
          <Trackpoint>
            <Time>2022-07-17T17:15:23.000Z</Time>
            <Position>
              <LatitudeDegrees>43.4740669839084148406982421875</LatitudeDegrees>
              <LongitudeDegrees>-5.510842502117156982421875</LongitudeDegrees>
            </Position>
            <AltitudeMeters>426.600006103515625</AltitudeMeters>
            <DistanceMeters>NAN</DistanceMeters>
          </Trackpoint>
          <Trackpoint>
            <Time>2022-07-17T17:15:25.000Z</Time>
            <Position>
              <LatitudeDegrees>43.47406421788036823272705078125</LatitudeDegrees>
              <LongitudeDegrees>-5.5108916200697422027587890625</LongitudeDegrees>
            </Position>
            <AltitudeMeters>426.79998779296875</AltitudeMeters>
            <DistanceMeters>NAN</DistanceMeters>
          </Trackpoint>
          <Trackpoint>
            <Time>2022-07-17T17:15:26.000Z</Time>
            <Position>
              <LatitudeDegrees>43.47405533306300640106201171875</LatitudeDegrees>
              <LongitudeDegrees>-5.51091081462800502777099609375</LongitudeDegrees>
            </Position>
            <AltitudeMeters>427</AltitudeMeters>
            <DistanceMeters>NAN</DistanceMeters>
          </Trackpoint>
          <Trackpoint>
            <Time>2022-07-17T17:15:30.000Z</Time>
            <Position>
              <LatitudeDegrees>43.4740121662616729736328125</LatitudeDegrees>
              <LongitudeDegrees>-5.5109754391014575958251953125</LongitudeDegrees>
            </Position>
            <AltitudeMeters>427.600006103515625</AltitudeMeters>
            <DistanceMeters>NAN</DistanceMeters>
          </Trackpoint>
          <Trackpoint>
            <Time>2022-07-17T17:15:31.000Z</Time>
            <Position>
              <LatitudeDegrees>43.4739982523024082183837890625</LatitudeDegrees>
              <LongitudeDegrees>-5.51100075244903564453125</LongitudeDegrees>
            </Position>
            <AltitudeMeters>428</AltitudeMeters>
            <DistanceMeters>NAN</DistanceMeters>
          </Trackpoint>
          <Trackpoint>
            <Time>2022-07-17T17:15:36.000Z</Time>
            <Position>
              <LatitudeDegrees>43.4739811532199382781982421875</LatitudeDegrees>
              <LongitudeDegrees>-5.51108230836689472198486328125</LongitudeDegrees>
            </Position>
            <AltitudeMeters>428.79998779296875</AltitudeMeters>
            <DistanceMeters>NAN</DistanceMeters>
          </Trackpoint>
          <Trackpoint>
            <Time>2022-07-17T17:15:38.000Z</Time>
            <Position>
              <LatitudeDegrees>43.47397956065833568572998046875</LatitudeDegrees>
              <LongitudeDegrees>-5.51109538413584232330322265625</LongitudeDegrees>
            </Position>
            <AltitudeMeters>428.79998779296875</AltitudeMeters>
            <DistanceMeters>NAN</DistanceMeters>
          </Trackpoint>
          <Trackpoint>
            <Time>2022-07-17T17:15:39.000Z</Time>
            <Position>
              <LatitudeDegrees>43.47397469915449619293212890625</LatitudeDegrees>
              <LongitudeDegrees>-5.511109046638011932373046875</LongitudeDegrees>
            </Position>
            <AltitudeMeters>429</AltitudeMeters>
            <DistanceMeters>NAN</DistanceMeters>
          </Trackpoint>
          <Trackpoint>
            <Time>2022-07-17T17:15:44.000Z</Time>
            <Position>
              <LatitudeDegrees>43.4739694185554981231689453125</LatitudeDegrees>
              <LongitudeDegrees>-5.5111876688897609710693359375</LongitudeDegrees>
            </Position>
            <AltitudeMeters>429.399993896484375</AltitudeMeters>
            <DistanceMeters>NAN</DistanceMeters>
          </Trackpoint>
          <Trackpoint>
            <Time>2022-07-17T17:15:46.000Z</Time>
            <Position>
              <LatitudeDegrees>43.4739558398723602294921875</LatitudeDegrees>
              <LongitudeDegrees>-5.5112206935882568359375</LongitudeDegrees>
            </Position>
            <AltitudeMeters>429.600006103515625</AltitudeMeters>
            <DistanceMeters>NAN</DistanceMeters>
          </Trackpoint>
          <Trackpoint>
            <Time>2022-07-17T17:15:48.000Z</Time>
            <Position>
              <LatitudeDegrees>43.473949134349822998046875</LatitudeDegrees>
              <LongitudeDegrees>-5.51124357618391513824462890625</LongitudeDegrees>
            </Position>
            <AltitudeMeters>429.79998779296875</AltitudeMeters>
            <DistanceMeters>NAN</DistanceMeters>
          </Trackpoint>
          <Trackpoint>
            <Time>2022-07-17T17:15:50.000Z</Time>
            <Position>
              <LatitudeDegrees>43.4739489667117595672607421875</LatitudeDegrees>
              <LongitudeDegrees>-5.511274002492427825927734375</LongitudeDegrees>
            </Position>
            <AltitudeMeters>430</AltitudeMeters>
            <DistanceMeters>NAN</DistanceMeters>
          </Trackpoint>
          <Trackpoint>
            <Time>2022-07-17T17:15:52.000Z</Time>
            <Position>
              <LatitudeDegrees>43.47394519485533237457275390625</LatitudeDegrees>
              <LongitudeDegrees>-5.511293113231658935546875</LongitudeDegrees>
            </Position>
            <AltitudeMeters>430.399993896484375</AltitudeMeters>
            <DistanceMeters>NAN</DistanceMeters>
          </Trackpoint>
          <Trackpoint>
            <Time>2022-07-17T17:15:55.000Z</Time>
            <Position>
              <LatitudeDegrees>43.47393362782895565032958984375</LatitudeDegrees>
              <LongitudeDegrees>-5.51136544905602931976318359375</LongitudeDegrees>
            </Position>
            <AltitudeMeters>430.600006103515625</AltitudeMeters>
            <DistanceMeters>NAN</DistanceMeters>
          </Trackpoint>
          <Trackpoint>
            <Time>2022-07-17T17:15:58.000Z</Time>
            <Position>
              <LatitudeDegrees>43.473901189863681793212890625</LatitudeDegrees>
              <LongitudeDegrees>-5.5114277265965938568115234375</LongitudeDegrees>
            </Position>
            <AltitudeMeters>430.79998779296875</AltitudeMeters>
            <DistanceMeters>NAN</DistanceMeters>
          </Trackpoint>
          <Trackpoint>
            <Time>2022-07-17T17:16:02.000Z</Time>
            <Position>
              <LatitudeDegrees>43.47387629561126232147216796875</LatitudeDegrees>
              <LongitudeDegrees>-5.51146301440894603729248046875</LongitudeDegrees>
            </Position>
            <AltitudeMeters>431</AltitudeMeters>
            <DistanceMeters>NAN</DistanceMeters>
          </Trackpoint>
          <Trackpoint>
            <Time>2022-07-17T17:16:06.000Z</Time>
            <Position>
              <LatitudeDegrees>43.47386925481259822845458984375</LatitudeDegrees>
              <LongitudeDegrees>-5.51149637438356876373291015625</LongitudeDegrees>
            </Position>
            <AltitudeMeters>431.399993896484375</AltitudeMeters>
            <DistanceMeters>NAN</DistanceMeters>
          </Trackpoint>
          <Trackpoint>
            <Time>2022-07-17T17:16:08.000Z</Time>
            <Position>
              <LatitudeDegrees>43.47385860979557037353515625</LatitudeDegrees>
              <LongitudeDegrees>-5.51151531748473644256591796875</LongitudeDegrees>
            </Position>
            <AltitudeMeters>431.600006103515625</AltitudeMeters>
            <DistanceMeters>NAN</DistanceMeters>
          </Trackpoint>
          <Trackpoint>
            <Time>2022-07-17T17:16:11.000Z</Time>
            <Position>
              <LatitudeDegrees>43.47384109161794185638427734375</LatitudeDegrees>
              <LongitudeDegrees>-5.51155705936253070831298828125</LongitudeDegrees>
            </Position>
            <AltitudeMeters>431.79998779296875</AltitudeMeters>
            <DistanceMeters>NAN</DistanceMeters>
          </Trackpoint>
          <Trackpoint>
            <Time>2022-07-17T17:16:14.000Z</Time>
            <Position>
              <LatitudeDegrees>43.47382231615483760833740234375</LatitudeDegrees>
              <LongitudeDegrees>-5.5115802772343158721923828125</LongitudeDegrees>
            </Position>
            <AltitudeMeters>432.20001220703125</AltitudeMeters>
            <DistanceMeters>NAN</DistanceMeters>
          </Trackpoint>
          <Trackpoint>
            <Time>2022-07-17T17:16:15.000Z</Time>
            <Position>
              <LatitudeDegrees>43.47381770610809326171875</LatitudeDegrees>
              <LongitudeDegrees>-5.511588491499423980712890625</LongitudeDegrees>
            </Position>
            <AltitudeMeters>432.399993896484375</AltitudeMeters>
            <DistanceMeters>NAN</DistanceMeters>
          </Trackpoint>
          <Trackpoint>
            <Time>2022-07-17T17:16:18.000Z</Time>
            <Position>
              <LatitudeDegrees>43.4737967513501644134521484375</LatitudeDegrees>
              <LongitudeDegrees>-5.51163987256586551666259765625</LongitudeDegrees>
            </Position>
            <AltitudeMeters>432.600006103515625</AltitudeMeters>
            <DistanceMeters>NAN</DistanceMeters>
          </Trackpoint>
          <Trackpoint>
            <Time>2022-07-17T17:16:20.000Z</Time>
            <Position>
              <LatitudeDegrees>43.473784513771533966064453125</LatitudeDegrees>
              <LongitudeDegrees>-5.5116765014827251434326171875</LongitudeDegrees>
            </Position>
            <AltitudeMeters>432.79998779296875</AltitudeMeters>
            <DistanceMeters>NAN</DistanceMeters>
          </Trackpoint>
          <Trackpoint>
            <Time>2022-07-17T17:16:21.000Z</Time>
            <Position>
              <LatitudeDegrees>43.4737836755812168121337890625</LatitudeDegrees>
              <LongitudeDegrees>-5.51169184036552906036376953125</LongitudeDegrees>
            </Position>
            <AltitudeMeters>432.79998779296875</AltitudeMeters>
            <DistanceMeters>NAN</DistanceMeters>
          </Trackpoint>
          <Trackpoint>
            <Time>2022-07-17T17:16:28.000Z</Time>
            <Position>
              <LatitudeDegrees>43.4737380780279636383056640625</LatitudeDegrees>
              <LongitudeDegrees>-5.511868111789226531982421875</LongitudeDegrees>
            </Position>
            <AltitudeMeters>433.600006103515625</AltitudeMeters>
            <DistanceMeters>NAN</DistanceMeters>
          </Trackpoint>
          <Trackpoint>
            <Time>2022-07-17T17:16:29.000Z</Time>
            <Position>
              <LatitudeDegrees>43.473731540143489837646484375</LatitudeDegrees>
              <LongitudeDegrees>-5.5118914134800434112548828125</LongitudeDegrees>
            </Position>
            <AltitudeMeters>433.600006103515625</AltitudeMeters>
            <DistanceMeters>NAN</DistanceMeters>
          </Trackpoint>
          <Trackpoint>
            <Time>2022-07-17T17:16:33.000Z</Time>
            <Position>
              <LatitudeDegrees>43.4737045504152774810791015625</LatitudeDegrees>
              <LongitudeDegrees>-5.5119462311267852783203125</LongitudeDegrees>
            </Position>
            <AltitudeMeters>433.79998779296875</AltitudeMeters>
            <DistanceMeters>NAN</DistanceMeters>
          </Trackpoint>
          <Trackpoint>
            <Time>2022-07-17T17:16:34.000Z</Time>
            <Position>
              <LatitudeDegrees>43.4736968390643596649169921875</LatitudeDegrees>
              <LongitudeDegrees>-5.5119611509144306182861328125</LongitudeDegrees>
            </Position>
            <AltitudeMeters>433.79998779296875</AltitudeMeters>
            <DistanceMeters>NAN</DistanceMeters>
          </Trackpoint>
          <Trackpoint>
            <Time>2022-07-17T17:16:35.000Z</Time>
            <Position>
              <LatitudeDegrees>43.47368669696152210235595703125</LatitudeDegrees>
              <LongitudeDegrees>-5.51198386587202548980712890625</LongitudeDegrees>
            </Position>
            <AltitudeMeters>434</AltitudeMeters>
            <DistanceMeters>NAN</DistanceMeters>
          </Trackpoint>
          <Trackpoint>
            <Time>2022-07-17T17:16:37.000Z</Time>
            <Position>
              <LatitudeDegrees>43.47366590984165668487548828125</LatitudeDegrees>
              <LongitudeDegrees>-5.5120121128857135772705078125</LongitudeDegrees>
            </Position>
            <AltitudeMeters>434.20001220703125</AltitudeMeters>
            <DistanceMeters>NAN</DistanceMeters>
          </Trackpoint>
          <Trackpoint>
            <Time>2022-07-17T17:16:40.000Z</Time>
            <Position>
              <LatitudeDegrees>43.47365501336753368377685546875</LatitudeDegrees>
              <LongitudeDegrees>-5.512092746794223785400390625</LongitudeDegrees>
            </Position>
            <AltitudeMeters>434.399993896484375</AltitudeMeters>
            <DistanceMeters>NAN</DistanceMeters>
          </Trackpoint>
          <Trackpoint>
            <Time>2022-07-17T17:16:45.000Z</Time>
            <Position>
              <LatitudeDegrees>43.473637998104095458984375</LatitudeDegrees>
              <LongitudeDegrees>-5.5122055672109127044677734375</LongitudeDegrees>
            </Position>
            <AltitudeMeters>435</AltitudeMeters>
            <DistanceMeters>NAN</DistanceMeters>
          </Trackpoint>
          <Trackpoint>
            <Time>2022-07-17T17:16:47.000Z</Time>
            <Position>
              <LatitudeDegrees>43.47363271750509738922119140625</LatitudeDegrees>
              <LongitudeDegrees>-5.51222694106400012969970703125</LongitudeDegrees>
            </Position>
            <AltitudeMeters>435</AltitudeMeters>
            <DistanceMeters>NAN</DistanceMeters>
          </Trackpoint>
          <Trackpoint>
            <Time>2022-07-17T17:16:49.000Z</Time>
            <Position>
              <LatitudeDegrees>43.47362282685935497283935546875</LatitudeDegrees>
              <LongitudeDegrees>-5.51226072013378143310546875</LongitudeDegrees>
            </Position>
            <AltitudeMeters>435</AltitudeMeters>
            <DistanceMeters>NAN</DistanceMeters>
          </Trackpoint>
          <Trackpoint>
            <Time>2022-07-17T17:16:53.000Z</Time>
            <Position>
              <LatitudeDegrees>43.47360824234783649444580078125</LatitudeDegrees>
              <LongitudeDegrees>-5.512325428426265716552734375</LongitudeDegrees>
            </Position>
            <AltitudeMeters>435.399993896484375</AltitudeMeters>
            <DistanceMeters>NAN</DistanceMeters>
          </Trackpoint>
          <Trackpoint>
            <Time>2022-07-17T17:16:56.000Z</Time>
            <Position>
              <LatitudeDegrees>43.47359315492212772369384765625</LatitudeDegrees>
              <LongitudeDegrees>-5.51239105872809886932373046875</LongitudeDegrees>
            </Position>
            <AltitudeMeters>435.600006103515625</AltitudeMeters>
            <DistanceMeters>NAN</DistanceMeters>
          </Trackpoint>
          <Trackpoint>
            <Time>2022-07-17T17:16:58.000Z</Time>
            <Position>
              <LatitudeDegrees>43.4735942445695400238037109375</LatitudeDegrees>
              <LongitudeDegrees>-5.51242299377918243408203125</LongitudeDegrees>
            </Position>
            <AltitudeMeters>436</AltitudeMeters>
            <DistanceMeters>NAN</DistanceMeters>
          </Trackpoint>
          <Trackpoint>
            <Time>2022-07-17T17:17:00.000Z</Time>
            <Position>
              <LatitudeDegrees>43.47359248436987400054931640625</LatitudeDegrees>
              <LongitudeDegrees>-5.51246683113276958465576171875</LongitudeDegrees>
            </Position>
            <AltitudeMeters>436.20001220703125</AltitudeMeters>
            <DistanceMeters>NAN</DistanceMeters>
          </Trackpoint>
          <Trackpoint>
            <Time>2022-07-17T17:17:07.000Z</Time>
            <Position>
              <LatitudeDegrees>43.47357320599257946014404296875</LatitudeDegrees>
              <LongitudeDegrees>-5.512577556073665618896484375</LongitudeDegrees>
            </Position>
            <AltitudeMeters>436.20001220703125</AltitudeMeters>
            <DistanceMeters>NAN</DistanceMeters>
          </Trackpoint>
          <Trackpoint>
            <Time>2022-07-17T17:17:17.000Z</Time>
            <Position>
              <LatitudeDegrees>43.47355577163398265838623046875</LatitudeDegrees>
              <LongitudeDegrees>-5.51273236982524394989013671875</LongitudeDegrees>
            </Position>
            <AltitudeMeters>437</AltitudeMeters>
            <DistanceMeters>NAN</DistanceMeters>
          </Trackpoint>
          <Trackpoint>
            <Time>2022-07-17T17:17:28.000Z</Time>
            <Position>
              <LatitudeDegrees>43.47354621626436710357666015625</LatitudeDegrees>
              <LongitudeDegrees>-5.51292817108333110809326171875</LongitudeDegrees>
            </Position>
            <AltitudeMeters>438</AltitudeMeters>
            <DistanceMeters>NAN</DistanceMeters>
          </Trackpoint>
          <Trackpoint>
            <Time>2022-07-17T17:17:29.000Z</Time>
            <Position>
              <LatitudeDegrees>43.47354839555919170379638671875</LatitudeDegrees>
              <LongitudeDegrees>-5.51294870674610137939453125</LongitudeDegrees>
            </Position>
            <AltitudeMeters>438</AltitudeMeters>
            <DistanceMeters>NAN</DistanceMeters>
          </Trackpoint>
          <Trackpoint>
            <Time>2022-07-17T17:17:33.000Z</Time>
            <Position>
              <LatitudeDegrees>43.4735416062176227569580078125</LatitudeDegrees>
              <LongitudeDegrees>-5.5130135826766490936279296875</LongitudeDegrees>
            </Position>
            <AltitudeMeters>438.399993896484375</AltitudeMeters>
            <DistanceMeters>NAN</DistanceMeters>
          </Trackpoint>
          <Trackpoint>
            <Time>2022-07-17T17:17:37.000Z</Time>
            <Position>
              <LatitudeDegrees>43.47353330813348293304443359375</LatitudeDegrees>
              <LongitudeDegrees>-5.5131000839173793792724609375</LongitudeDegrees>
            </Position>
            <AltitudeMeters>439</AltitudeMeters>
            <DistanceMeters>NAN</DistanceMeters>
          </Trackpoint>
          <Trackpoint>
            <Time>2022-07-17T17:17:38.000Z</Time>
            <Position>
              <LatitudeDegrees>43.47352643497288227081298828125</LatitudeDegrees>
              <LongitudeDegrees>-5.51312263123691082000732421875</LongitudeDegrees>
            </Position>
            <AltitudeMeters>439.20001220703125</AltitudeMeters>
            <DistanceMeters>NAN</DistanceMeters>
          </Trackpoint>
          <Trackpoint>
            <Time>2022-07-17T17:17:44.000Z</Time>
            <Position>
              <LatitudeDegrees>43.47351704724133014678955078125</LatitudeDegrees>
              <LongitudeDegrees>-5.51323830150067806243896484375</LongitudeDegrees>
            </Position>
            <AltitudeMeters>439.600006103515625</AltitudeMeters>
            <DistanceMeters>NAN</DistanceMeters>
          </Trackpoint>
          <Trackpoint>
            <Time>2022-07-17T17:17:48.000Z</Time>
            <Position>
              <LatitudeDegrees>43.473515622317790985107421875</LatitudeDegrees>
              <LongitudeDegrees>-5.513317175209522247314453125</LongitudeDegrees>
            </Position>
            <AltitudeMeters>440.20001220703125</AltitudeMeters>
            <DistanceMeters>NAN</DistanceMeters>
          </Trackpoint>
          <Trackpoint>
            <Time>2022-07-17T17:17:52.000Z</Time>
            <Position>
              <LatitudeDegrees>43.47351285628974437713623046875</LatitudeDegrees>
              <LongitudeDegrees>-5.5133981443941593170166015625</LongitudeDegrees>
            </Position>
            <AltitudeMeters>440.399993896484375</AltitudeMeters>
            <DistanceMeters>NAN</DistanceMeters>
          </Trackpoint>
          <Trackpoint>
            <Time>2022-07-17T17:18:00.000Z</Time>
            <Position>
              <LatitudeDegrees>43.47350279800593852996826171875</LatitudeDegrees>
              <LongitudeDegrees>-5.51355279050767421722412109375</LongitudeDegrees>
            </Position>
            <AltitudeMeters>441.20001220703125</AltitudeMeters>
            <DistanceMeters>NAN</DistanceMeters>
          </Trackpoint>
          <Trackpoint>
            <Time>2022-07-17T17:18:02.000Z</Time>
            <Position>
              <LatitudeDegrees>43.47350128926336765289306640625</LatitudeDegrees>
              <LongitudeDegrees>-5.51358883269131183624267578125</LongitudeDegrees>
            </Position>
            <AltitudeMeters>441.20001220703125</AltitudeMeters>
            <DistanceMeters>NAN</DistanceMeters>
          </Trackpoint>
          <Trackpoint>
            <Time>2022-07-17T17:18:08.000Z</Time>
            <Position>
              <LatitudeDegrees>43.47349575720727443695068359375</LatitudeDegrees>
              <LongitudeDegrees>-5.51366460509598255157470703125</LongitudeDegrees>
            </Position>
            <AltitudeMeters>442.20001220703125</AltitudeMeters>
            <DistanceMeters>NAN</DistanceMeters>
          </Trackpoint>
          <Trackpoint>
            <Time>2022-07-17T17:18:12.000Z</Time>
            <Position>
              <LatitudeDegrees>43.4734956733882427215576171875</LatitudeDegrees>
              <LongitudeDegrees>-5.51375144161283969879150390625</LongitudeDegrees>
            </Position>
            <AltitudeMeters>442.20001220703125</AltitudeMeters>
            <DistanceMeters>NAN</DistanceMeters>
          </Trackpoint>
          <Trackpoint>
            <Time>2022-07-17T17:18:16.000Z</Time>
            <Position>
              <LatitudeDegrees>43.47348117269575595855712890625</LatitudeDegrees>
              <LongitudeDegrees>-5.513816066086292266845703125</LongitudeDegrees>
            </Position>
            <AltitudeMeters>442.600006103515625</AltitudeMeters>
            <DistanceMeters>NAN</DistanceMeters>
          </Trackpoint>
          <Trackpoint>
            <Time>2022-07-17T17:18:17.000Z</Time>
            <Position>
              <LatitudeDegrees>43.47347899340093135833740234375</LatitudeDegrees>
              <LongitudeDegrees>-5.51383626647293567657470703125</LongitudeDegrees>
            </Position>
            <AltitudeMeters>442.79998779296875</AltitudeMeters>
            <DistanceMeters>NAN</DistanceMeters>
          </Trackpoint>
          <Trackpoint>
            <Time>2022-07-17T17:18:25.000Z</Time>
            <Position>
              <LatitudeDegrees>43.4734540991485118865966796875</LatitudeDegrees>
              <LongitudeDegrees>-5.51395713351666927337646484375</LongitudeDegrees>
            </Position>
            <AltitudeMeters>443.399993896484375</AltitudeMeters>
            <DistanceMeters>NAN</DistanceMeters>
          </Trackpoint>
          <Trackpoint>
            <Time>2022-07-17T17:18:28.000Z</Time>
            <Position>
              <LatitudeDegrees>43.47344647161662578582763671875</LatitudeDegrees>
              <LongitudeDegrees>-5.5140106938779354095458984375</LongitudeDegrees>
            </Position>
            <AltitudeMeters>443.600006103515625</AltitudeMeters>
            <DistanceMeters>NAN</DistanceMeters>
          </Trackpoint>
          <Trackpoint>
            <Time>2022-07-17T17:18:32.000Z</Time>
            <Position>
              <LatitudeDegrees>43.4734443761408329010009765625</LatitudeDegrees>
              <LongitudeDegrees>-5.51404128782451152801513671875</LongitudeDegrees>
            </Position>
            <AltitudeMeters>444</AltitudeMeters>
            <DistanceMeters>NAN</DistanceMeters>
          </Trackpoint>
          <Trackpoint>
            <Time>2022-07-17T17:18:37.000Z</Time>
            <Position>
              <LatitudeDegrees>43.47343959845602512359619140625</LatitudeDegrees>
              <LongitudeDegrees>-5.51416332833468914031982421875</LongitudeDegrees>
            </Position>
            <AltitudeMeters>444.600006103515625</AltitudeMeters>
            <DistanceMeters>NAN</DistanceMeters>
          </Trackpoint>
          <Trackpoint>
            <Time>2022-07-17T17:18:41.000Z</Time>
            <Position>
              <LatitudeDegrees>43.473441191017627716064453125</LatitudeDegrees>
              <LongitudeDegrees>-5.51422921009361743927001953125</LongitudeDegrees>
            </Position>
            <AltitudeMeters>444.79998779296875</AltitudeMeters>
            <DistanceMeters>NAN</DistanceMeters>
          </Trackpoint>
          <Trackpoint>
            <Time>2022-07-17T17:18:46.000Z</Time>
            <Position>
              <LatitudeDegrees>43.4734963439404964447021484375</LatitudeDegrees>
              <LongitudeDegrees>-5.51432794891297817230224609375</LongitudeDegrees>
            </Position>
            <AltitudeMeters>445</AltitudeMeters>
            <DistanceMeters>NAN</DistanceMeters>
          </Trackpoint>
          <Trackpoint>
            <Time>2022-07-17T17:18:48.000Z</Time>
            <Position>
              <LatitudeDegrees>43.4735322184860706329345703125</LatitudeDegrees>
              <LongitudeDegrees>-5.51434068940579891204833984375</LongitudeDegrees>
            </Position>
            <AltitudeMeters>445</AltitudeMeters>
            <DistanceMeters>NAN</DistanceMeters>
          </Trackpoint>
          <Trackpoint>
            <Time>2022-07-17T17:18:55.000Z</Time>
            <Position>
              <LatitudeDegrees>43.47369994036853313446044921875</LatitudeDegrees>
              <LongitudeDegrees>-5.514358542859554290771484375</LongitudeDegrees>
            </Position>
            <AltitudeMeters>444.79998779296875</AltitudeMeters>
            <DistanceMeters>NAN</DistanceMeters>
          </Trackpoint>
          <Trackpoint>
            <Time>2022-07-17T17:18:58.000Z</Time>
            <Position>
              <LatitudeDegrees>43.473793566226959228515625</LatitudeDegrees>
              <LongitudeDegrees>-5.51433716900646686553955078125</LongitudeDegrees>
            </Position>
            <AltitudeMeters>444.20001220703125</AltitudeMeters>
            <DistanceMeters>NAN</DistanceMeters>
          </Trackpoint>
          <Trackpoint>
            <Time>2022-07-17T17:18:59.000Z</Time>
            <Position>
              <LatitudeDegrees>43.47379448823630809783935546875</LatitudeDegrees>
              <LongitudeDegrees>-5.5143419466912746429443359375</LongitudeDegrees>
            </Position>
            <AltitudeMeters>443.79998779296875</AltitudeMeters>
            <DistanceMeters>NAN</DistanceMeters>
          </Trackpoint>
          <Trackpoint>
            <Time>2022-07-17T17:19:00.000Z</Time>
            <Position>
              <LatitudeDegrees>43.47379398532211780548095703125</LatitudeDegrees>
              <LongitudeDegrees>-5.5143442936241626739501953125</LongitudeDegrees>
            </Position>
            <AltitudeMeters>443.600006103515625</AltitudeMeters>
            <DistanceMeters>NAN</DistanceMeters>
          </Trackpoint>
          <Trackpoint>
            <Time>2022-07-17T17:20:44.000Z</Time>
            <Position>
              <LatitudeDegrees>43.473831452429294586181640625</LatitudeDegrees>
              <LongitudeDegrees>-5.51442869938910007476806640625</LongitudeDegrees>
            </Position>
            <AltitudeMeters>445.20001220703125</AltitudeMeters>
            <DistanceMeters>NAN</DistanceMeters>
          </Trackpoint>
          <Trackpoint>
            <Time>2022-07-17T17:20:45.000Z</Time>
            <Position>
              <LatitudeDegrees>43.47385726869106292724609375</LatitudeDegrees>
              <LongitudeDegrees>-5.51441495306789875030517578125</LongitudeDegrees>
            </Position>
            <AltitudeMeters>445.20001220703125</AltitudeMeters>
            <DistanceMeters>NAN</DistanceMeters>
          </Trackpoint>
          <Trackpoint>
            <Time>2022-07-17T17:20:46.000Z</Time>
            <Position>
              <LatitudeDegrees>43.4738879464566707611083984375</LatitudeDegrees>
              <LongitudeDegrees>-5.51440238021314144134521484375</LongitudeDegrees>
            </Position>
            <AltitudeMeters>445.20001220703125</AltitudeMeters>
            <DistanceMeters>NAN</DistanceMeters>
          </Trackpoint>
          <Trackpoint>
            <Time>2022-07-17T17:20:50.000Z</Time>
            <Position>
              <LatitudeDegrees>43.4739818237721920013427734375</LatitudeDegrees>
              <LongitudeDegrees>-5.51435041241347789764404296875</LongitudeDegrees>
            </Position>
            <AltitudeMeters>444.600006103515625</AltitudeMeters>
            <DistanceMeters>NAN</DistanceMeters>
          </Trackpoint>
          <Trackpoint>
            <Time>2022-07-17T17:20:52.000Z</Time>
            <Position>
              <LatitudeDegrees>43.4739811532199382781982421875</LatitudeDegrees>
              <LongitudeDegrees>-5.51434345543384552001953125</LongitudeDegrees>
            </Position>
            <AltitudeMeters>444</AltitudeMeters>
            <DistanceMeters>NAN</DistanceMeters>
          </Trackpoint>
          <Trackpoint>
            <Time>2022-07-17T17:21:24.000Z</Time>
            <Position>
              <LatitudeDegrees>43.4740468673408031463623046875</LatitudeDegrees>
              <LongitudeDegrees>-5.51433666609227657318115234375</LongitudeDegrees>
            </Position>
            <AltitudeMeters>444.20001220703125</AltitudeMeters>
            <DistanceMeters>NAN</DistanceMeters>
          </Trackpoint>
          <Trackpoint>
            <Time>2022-07-17T17:21:25.000Z</Time>
            <Position>
              <LatitudeDegrees>43.4740844182670116424560546875</LatitudeDegrees>
              <LongitudeDegrees>-5.51433381624519824981689453125</LongitudeDegrees>
            </Position>
            <AltitudeMeters>444.20001220703125</AltitudeMeters>
            <DistanceMeters>NAN</DistanceMeters>
          </Trackpoint>
          <Trackpoint>
            <Time>2022-07-17T17:21:30.000Z</Time>
            <Position>
              <LatitudeDegrees>43.47430142574012279510498046875</LatitudeDegrees>
              <LongitudeDegrees>-5.5142869614064693450927734375</LongitudeDegrees>
            </Position>
            <AltitudeMeters>443.20001220703125</AltitudeMeters>
            <DistanceMeters>NAN</DistanceMeters>
          </Trackpoint>
          <Trackpoint>
            <Time>2022-07-17T17:21:32.000Z</Time>
            <Position>
              <LatitudeDegrees>43.47442547790706157684326171875</LatitudeDegrees>
              <LongitudeDegrees>-5.514245890080928802490234375</LongitudeDegrees>
            </Position>
            <AltitudeMeters>442.20001220703125</AltitudeMeters>
            <DistanceMeters>NAN</DistanceMeters>
          </Trackpoint>
          <Trackpoint>
            <Time>2022-07-17T17:21:33.000Z</Time>
            <Position>
              <LatitudeDegrees>43.474499322474002838134765625</LatitudeDegrees>
              <LongitudeDegrees>-5.51421110518276691436767578125</LongitudeDegrees>
            </Position>
            <AltitudeMeters>441.600006103515625</AltitudeMeters>
            <DistanceMeters>NAN</DistanceMeters>
          </Trackpoint>
          <Trackpoint>
            <Time>2022-07-17T17:21:34.000Z</Time>
            <Position>
              <LatitudeDegrees>43.4745960496366024017333984375</LatitudeDegrees>
              <LongitudeDegrees>-5.51416399888694286346435546875</LongitudeDegrees>
            </Position>
            <AltitudeMeters>441.20001220703125</AltitudeMeters>
            <DistanceMeters>NAN</DistanceMeters>
          </Trackpoint>
          <Trackpoint>
            <Time>2022-07-17T17:21:36.000Z</Time>
            <Position>
              <LatitudeDegrees>43.4747633524239063262939453125</LatitudeDegrees>
              <LongitudeDegrees>-5.51406123675405979156494140625</LongitudeDegrees>
            </Position>
            <AltitudeMeters>440.79998779296875</AltitudeMeters>
            <DistanceMeters>NAN</DistanceMeters>
          </Trackpoint>
          <Trackpoint>
            <Time>2022-07-17T17:21:37.000Z</Time>
            <Position>
              <LatitudeDegrees>43.47484256140887737274169921875</LatitudeDegrees>
              <LongitudeDegrees>-5.51399870775640010833740234375</LongitudeDegrees>
            </Position>
            <AltitudeMeters>440</AltitudeMeters>
            <DistanceMeters>NAN</DistanceMeters>
          </Trackpoint>
          <Trackpoint>
            <Time>2022-07-17T17:21:38.000Z</Time>
            <Position>
              <LatitudeDegrees>43.474905677139759063720703125</LatitudeDegrees>
              <LongitudeDegrees>-5.513939447700977325439453125</LongitudeDegrees>
            </Position>
            <AltitudeMeters>439.399993896484375</AltitudeMeters>
            <DistanceMeters>NAN</DistanceMeters>
          </Trackpoint>
          <Trackpoint>
            <Time>2022-07-17T17:21:39.000Z</Time>
            <Position>
              <LatitudeDegrees>43.47500181756913661956787109375</LatitudeDegrees>
              <LongitudeDegrees>-5.51384112797677516937255859375</LongitudeDegrees>
            </Position>
            <AltitudeMeters>439</AltitudeMeters>
            <DistanceMeters>NAN</DistanceMeters>
          </Trackpoint>
          <Trackpoint>
            <Time>2022-07-17T17:21:41.000Z</Time>
            <Position>
              <LatitudeDegrees>43.47517565824091434478759765625</LatitudeDegrees>
              <LongitudeDegrees>-5.51367013715207576751708984375</LongitudeDegrees>
            </Position>
            <AltitudeMeters>437.79998779296875</AltitudeMeters>
            <DistanceMeters>NAN</DistanceMeters>
          </Trackpoint>
          <Trackpoint>
            <Time>2022-07-17T17:21:43.000Z</Time>
            <Position>
              <LatitudeDegrees>43.4753537736833095550537109375</LatitudeDegrees>
              <LongitudeDegrees>-5.5135126411914825439453125</LongitudeDegrees>
            </Position>
            <AltitudeMeters>435.79998779296875</AltitudeMeters>
            <DistanceMeters>NAN</DistanceMeters>
          </Trackpoint>
          <Trackpoint>
            <Time>2022-07-17T17:21:44.000Z</Time>
            <Position>
              <LatitudeDegrees>43.4754335694015026092529296875</LatitudeDegrees>
              <LongitudeDegrees>-5.5134380422532558441162109375</LongitudeDegrees>
            </Position>
            <AltitudeMeters>434.399993896484375</AltitudeMeters>
            <DistanceMeters>NAN</DistanceMeters>
          </Trackpoint>
          <Trackpoint>
            <Time>2022-07-17T17:21:45.000Z</Time>
            <Position>
              <LatitudeDegrees>43.4755088388919830322265625</LatitudeDegrees>
              <LongitudeDegrees>-5.5133552290499210357666015625</LongitudeDegrees>
            </Position>
            <AltitudeMeters>433.399993896484375</AltitudeMeters>
            <DistanceMeters>NAN</DistanceMeters>
          </Trackpoint>
          <Trackpoint>
            <Time>2022-07-17T17:21:46.000Z</Time>
            <Position>
              <LatitudeDegrees>43.47557790577411651611328125</LatitudeDegrees>
              <LongitudeDegrees>-5.51328423433005809783935546875</LongitudeDegrees>
            </Position>
            <AltitudeMeters>432.20001220703125</AltitudeMeters>
            <DistanceMeters>NAN</DistanceMeters>
          </Trackpoint>
          <Trackpoint>
            <Time>2022-07-17T17:21:48.000Z</Time>
            <Position>
              <LatitudeDegrees>43.47570187412202358245849609375</LatitudeDegrees>
              <LongitudeDegrees>-5.513138473033905029296875</LongitudeDegrees>
            </Position>
            <AltitudeMeters>430.399993896484375</AltitudeMeters>
            <DistanceMeters>NAN</DistanceMeters>
          </Trackpoint>
          <Trackpoint>
            <Time>2022-07-17T17:21:49.000Z</Time>
            <Position>
              <LatitudeDegrees>43.47576574422419071197509765625</LatitudeDegrees>
              <LongitudeDegrees>-5.51307342946529388427734375</LongitudeDegrees>
            </Position>
            <AltitudeMeters>429.399993896484375</AltitudeMeters>
            <DistanceMeters>NAN</DistanceMeters>
          </Trackpoint>
          <Trackpoint>
            <Time>2022-07-17T17:21:50.000Z</Time>
            <Position>
              <LatitudeDegrees>43.4758348949253559112548828125</LatitudeDegrees>
              <LongitudeDegrees>-5.51302238367497920989990234375</LongitudeDegrees>
            </Position>
            <AltitudeMeters>428.600006103515625</AltitudeMeters>
            <DistanceMeters>NAN</DistanceMeters>
          </Trackpoint>
          <Trackpoint>
            <Time>2022-07-17T17:21:52.000Z</Time>
            <Position>
              <LatitudeDegrees>43.4759958274662494659423828125</LatitudeDegrees>
              <LongitudeDegrees>-5.5129237286746501922607421875</LongitudeDegrees>
            </Position>
            <AltitudeMeters>427.20001220703125</AltitudeMeters>
            <DistanceMeters>NAN</DistanceMeters>
          </Trackpoint>
          <Trackpoint>
            <Time>2022-07-17T17:21:53.000Z</Time>
            <Position>
              <LatitudeDegrees>43.47605693154036998748779296875</LatitudeDegrees>
              <LongitudeDegrees>-5.5128972418606281280517578125</LongitudeDegrees>
            </Position>
            <AltitudeMeters>426.600006103515625</AltitudeMeters>
            <DistanceMeters>NAN</DistanceMeters>
          </Trackpoint>
          <Trackpoint>
            <Time>2022-07-17T17:21:54.000Z</Time>
            <Position>
              <LatitudeDegrees>43.4761366434395313262939453125</LatitudeDegrees>
              <LongitudeDegrees>-5.51287067122757434844970703125</LongitudeDegrees>
            </Position>
            <AltitudeMeters>426</AltitudeMeters>
            <DistanceMeters>NAN</DistanceMeters>
          </Trackpoint>
          <Trackpoint>
            <Time>2022-07-17T17:21:55.000Z</Time>
            <Position>
              <LatitudeDegrees>43.47623580135405063629150390625</LatitudeDegrees>
              <LongitudeDegrees>-5.5128513090312480926513671875</LongitudeDegrees>
            </Position>
            <AltitudeMeters>425.399993896484375</AltitudeMeters>
            <DistanceMeters>NAN</DistanceMeters>
          </Trackpoint>
          <Trackpoint>
            <Time>2022-07-17T17:21:56.000Z</Time>
            <Position>
              <LatitudeDegrees>43.4763183631002902984619140625</LatitudeDegrees>
              <LongitudeDegrees>-5.51284804008901119232177734375</LongitudeDegrees>
            </Position>
            <AltitudeMeters>424.79998779296875</AltitudeMeters>
            <DistanceMeters>NAN</DistanceMeters>
          </Trackpoint>
          <Trackpoint>
            <Time>2022-07-17T17:21:57.000Z</Time>
            <Position>
              <LatitudeDegrees>43.47640628926455974578857421875</LatitudeDegrees>
              <LongitudeDegrees>-5.5128529854118824005126953125</LongitudeDegrees>
            </Position>
            <AltitudeMeters>423.399993896484375</AltitudeMeters>
            <DistanceMeters>NAN</DistanceMeters>
          </Trackpoint>
          <Trackpoint>
            <Time>2022-07-17T17:22:00.000Z</Time>
            <Position>
              <LatitudeDegrees>43.47668029367923736572265625</LatitudeDegrees>
              <LongitudeDegrees>-5.51288877613842487335205078125</LongitudeDegrees>
            </Position>
            <AltitudeMeters>422</AltitudeMeters>
            <DistanceMeters>NAN</DistanceMeters>
          </Trackpoint>
          <Trackpoint>
            <Time>2022-07-17T17:22:01.000Z</Time>
            <Position>
              <LatitudeDegrees>43.47680610604584217071533203125</LatitudeDegrees>
              <LongitudeDegrees>-5.51291174255311489105224609375</LongitudeDegrees>
            </Position>
            <AltitudeMeters>421</AltitudeMeters>
            <DistanceMeters>NAN</DistanceMeters>
          </Trackpoint>
          <Trackpoint>
            <Time>2022-07-17T17:22:02.000Z</Time>
            <Position>
              <LatitudeDegrees>43.47689277492463588714599609375</LatitudeDegrees>
              <LongitudeDegrees>-5.51293236203491687774658203125</LongitudeDegrees>
            </Position>
            <AltitudeMeters>420.399993896484375</AltitudeMeters>
            <DistanceMeters>NAN</DistanceMeters>
          </Trackpoint>
          <Trackpoint>
            <Time>2022-07-17T17:22:03.000Z</Time>
            <Position>
              <LatitudeDegrees>43.47700140438973903656005859375</LatitudeDegrees>
              <LongitudeDegrees>-5.51296387799084186553955078125</LongitudeDegrees>
            </Position>
            <AltitudeMeters>416</AltitudeMeters>
            <DistanceMeters>NAN</DistanceMeters>
          </Trackpoint>
          <Trackpoint>
            <Time>2022-07-17T17:22:04.000Z</Time>
            <Position>
              <LatitudeDegrees>43.47710751928389072418212890625</LatitudeDegrees>
              <LongitudeDegrees>-5.5130005069077014923095703125</LongitudeDegrees>
            </Position>
            <AltitudeMeters>413.399993896484375</AltitudeMeters>
            <DistanceMeters>NAN</DistanceMeters>
          </Trackpoint>
          <Trackpoint>
            <Time>2022-07-17T17:22:05.000Z</Time>
            <Position>
              <LatitudeDegrees>43.477215059101581573486328125</LatitudeDegrees>
              <LongitudeDegrees>-5.51304669119417667388916015625</LongitudeDegrees>
            </Position>
            <AltitudeMeters>411.79998779296875</AltitudeMeters>
            <DistanceMeters>NAN</DistanceMeters>
          </Trackpoint>
          <Trackpoint>
            <Time>2022-07-17T17:22:06.000Z</Time>
            <Position>
              <LatitudeDegrees>43.47732377238571643829345703125</LatitudeDegrees>
              <LongitudeDegrees>-5.51310083828866481781005859375</LongitudeDegrees>
            </Position>
            <AltitudeMeters>410.399993896484375</AltitudeMeters>
            <DistanceMeters>NAN</DistanceMeters>
          </Trackpoint>
          <Trackpoint>
            <Time>2022-07-17T17:22:07.000Z</Time>
            <Position>
              <LatitudeDegrees>43.4774301387369632720947265625</LatitudeDegrees>
              <LongitudeDegrees>-5.513157583773136138916015625</LongitudeDegrees>
            </Position>
            <AltitudeMeters>408.79998779296875</AltitudeMeters>
            <DistanceMeters>NAN</DistanceMeters>
          </Trackpoint>
          <Trackpoint>
            <Time>2022-07-17T17:22:08.000Z</Time>
            <Position>
              <LatitudeDegrees>43.47755460999906063079833984375</LatitudeDegrees>
              <LongitudeDegrees>-5.51323042251169681549072265625</LongitudeDegrees>
            </Position>
            <AltitudeMeters>407.20001220703125</AltitudeMeters>
            <DistanceMeters>NAN</DistanceMeters>
          </Trackpoint>
          <Trackpoint>
            <Time>2022-07-17T17:22:09.000Z</Time>
            <Position>
              <LatitudeDegrees>43.477639518678188323974609375</LatitudeDegrees>
              <LongitudeDegrees>-5.51328339613974094390869140625</LongitudeDegrees>
            </Position>
            <AltitudeMeters>406</AltitudeMeters>
            <DistanceMeters>NAN</DistanceMeters>
          </Trackpoint>
          <Trackpoint>
            <Time>2022-07-17T17:22:10.000Z</Time>
            <Position>
              <LatitudeDegrees>43.47774152643978595733642578125</LatitudeDegrees>
              <LongitudeDegrees>-5.5133545584976673126220703125</LongitudeDegrees>
            </Position>
            <AltitudeMeters>404.600006103515625</AltitudeMeters>
            <DistanceMeters>NAN</DistanceMeters>
          </Trackpoint>
          <Trackpoint>
            <Time>2022-07-17T17:22:11.000Z</Time>
            <Position>
              <LatitudeDegrees>43.47786172293126583099365234375</LatitudeDegrees>
              <LongitudeDegrees>-5.51345271058380603790283203125</LongitudeDegrees>
            </Position>
            <AltitudeMeters>403.79998779296875</AltitudeMeters>
            <DistanceMeters>NAN</DistanceMeters>
          </Trackpoint>
          <Trackpoint>
            <Time>2022-07-17T17:22:12.000Z</Time>
            <Position>
              <LatitudeDegrees>43.47793900407850742340087890625</LatitudeDegrees>
              <LongitudeDegrees>-5.51353351213037967681884765625</LongitudeDegrees>
            </Position>
            <AltitudeMeters>402.79998779296875</AltitudeMeters>
            <DistanceMeters>NAN</DistanceMeters>
          </Trackpoint>
          <Trackpoint>
            <Time>2022-07-17T17:22:13.000Z</Time>
            <Position>
              <LatitudeDegrees>43.4780329652130603790283203125</LatitudeDegrees>
              <LongitudeDegrees>-5.51364750601351261138916015625</LongitudeDegrees>
            </Position>
            <AltitudeMeters>401.399993896484375</AltitudeMeters>
            <DistanceMeters>NAN</DistanceMeters>
          </Trackpoint>
          <Trackpoint>
            <Time>2022-07-17T17:22:15.000Z</Time>
            <Position>
              <LatitudeDegrees>43.478224910795688629150390625</LatitudeDegrees>
              <LongitudeDegrees>-5.513892509043216705322265625</LongitudeDegrees>
            </Position>
            <AltitudeMeters>399.600006103515625</AltitudeMeters>
            <DistanceMeters>NAN</DistanceMeters>
          </Trackpoint>
          <Trackpoint>
            <Time>2022-07-17T17:22:16.000Z</Time>
            <Position>
              <LatitudeDegrees>43.4783276729285717010498046875</LatitudeDegrees>
              <LongitudeDegrees>-5.51401765085756778717041015625</LongitudeDegrees>
            </Position>
            <AltitudeMeters>399</AltitudeMeters>
            <DistanceMeters>NAN</DistanceMeters>
          </Trackpoint>
          <Trackpoint>
            <Time>2022-07-17T17:22:17.000Z</Time>
            <Position>
              <LatitudeDegrees>43.478436805307865142822265625</LatitudeDegrees>
              <LongitudeDegrees>-5.51413030363619327545166015625</LongitudeDegrees>
            </Position>
            <AltitudeMeters>397.79998779296875</AltitudeMeters>
            <DistanceMeters>NAN</DistanceMeters>
          </Trackpoint>
          <Trackpoint>
            <Time>2022-07-17T17:22:18.000Z</Time>
            <Position>
              <LatitudeDegrees>43.47855155356228351593017578125</LatitudeDegrees>
              <LongitudeDegrees>-5.51424094475805759429931640625</LongitudeDegrees>
            </Position>
            <AltitudeMeters>396.79998779296875</AltitudeMeters>
            <DistanceMeters>NAN</DistanceMeters>
          </Trackpoint>
          <Trackpoint>
            <Time>2022-07-17T17:22:19.000Z</Time>
            <Position>
              <LatitudeDegrees>43.47866236232221126556396484375</LatitudeDegrees>
              <LongitudeDegrees>-5.5143456347286701202392578125</LongitudeDegrees>
            </Position>
            <AltitudeMeters>395.600006103515625</AltitudeMeters>
            <DistanceMeters>NAN</DistanceMeters>
          </Trackpoint>
          <Trackpoint>
            <Time>2022-07-17T17:22:20.000Z</Time>
            <Position>
              <LatitudeDegrees>43.478766046464443206787109375</LatitudeDegrees>
              <LongitudeDegrees>-5.51446625031530857086181640625</LongitudeDegrees>
            </Position>
            <AltitudeMeters>394.79998779296875</AltitudeMeters>
            <DistanceMeters>NAN</DistanceMeters>
          </Trackpoint>
          <Trackpoint>
            <Time>2022-07-17T17:22:21.000Z</Time>
            <Position>
              <LatitudeDegrees>43.478868305683135986328125</LatitudeDegrees>
              <LongitudeDegrees>-5.51459063775837421417236328125</LongitudeDegrees>
            </Position>
            <AltitudeMeters>393.600006103515625</AltitudeMeters>
            <DistanceMeters>NAN</DistanceMeters>
          </Trackpoint>
          <Trackpoint>
            <Time>2022-07-17T17:22:22.000Z</Time>
            <Position>
              <LatitudeDegrees>43.4789610095322132110595703125</LatitudeDegrees>
              <LongitudeDegrees>-5.51472575403749942779541015625</LongitudeDegrees>
            </Position>
            <AltitudeMeters>392.20001220703125</AltitudeMeters>
            <DistanceMeters>NAN</DistanceMeters>
          </Trackpoint>
          <Trackpoint>
            <Time>2022-07-17T17:22:23.000Z</Time>
            <Position>
              <LatitudeDegrees>43.479048348963260650634765625</LatitudeDegrees>
              <LongitudeDegrees>-5.51487210206687450408935546875</LongitudeDegrees>
            </Position>
            <AltitudeMeters>391</AltitudeMeters>
            <DistanceMeters>NAN</DistanceMeters>
          </Trackpoint>
          <Trackpoint>
            <Time>2022-07-17T17:22:24.000Z</Time>
            <Position>
              <LatitudeDegrees>43.47913811914622783660888671875</LatitudeDegrees>
              <LongitudeDegrees>-5.515017025172710418701171875</LongitudeDegrees>
            </Position>
            <AltitudeMeters>390.20001220703125</AltitudeMeters>
            <DistanceMeters>NAN</DistanceMeters>
          </Trackpoint>
          <Trackpoint>
            <Time>2022-07-17T17:22:25.000Z</Time>
            <Position>
              <LatitudeDegrees>43.47922881133854389190673828125</LatitudeDegrees>
              <LongitudeDegrees>-5.51516178064048290252685546875</LongitudeDegrees>
            </Position>
            <AltitudeMeters>388.600006103515625</AltitudeMeters>
            <DistanceMeters>NAN</DistanceMeters>
          </Trackpoint>
          <Trackpoint>
            <Time>2022-07-17T17:22:26.000Z</Time>
            <Position>
              <LatitudeDegrees>43.4793204255402088165283203125</LatitudeDegrees>
              <LongitudeDegrees>-5.51530477590858936309814453125</LongitudeDegrees>
            </Position>
            <AltitudeMeters>387.20001220703125</AltitudeMeters>
            <DistanceMeters>NAN</DistanceMeters>
          </Trackpoint>
          <Trackpoint>
            <Time>2022-07-17T17:22:27.000Z</Time>
            <Position>
              <LatitudeDegrees>43.4794146381318569183349609375</LatitudeDegrees>
              <LongitudeDegrees>-5.5154443345963954925537109375</LongitudeDegrees>
            </Position>
            <AltitudeMeters>385.600006103515625</AltitudeMeters>
            <DistanceMeters>NAN</DistanceMeters>
          </Trackpoint>
          <Trackpoint>
            <Time>2022-07-17T17:22:29.000Z</Time>
            <Position>
              <LatitudeDegrees>43.47960926592350006103515625</LatitudeDegrees>
              <LongitudeDegrees>-5.51576326601207256317138671875</LongitudeDegrees>
            </Position>
            <AltitudeMeters>383.399993896484375</AltitudeMeters>
            <DistanceMeters>NAN</DistanceMeters>
          </Trackpoint>
          <Trackpoint>
            <Time>2022-07-17T17:22:30.000Z</Time>
            <Position>
              <LatitudeDegrees>43.4796654246747493743896484375</LatitudeDegrees>
              <LongitudeDegrees>-5.51589452661573886871337890625</LongitudeDegrees>
            </Position>
            <AltitudeMeters>382.20001220703125</AltitudeMeters>
            <DistanceMeters>NAN</DistanceMeters>
          </Trackpoint>
          <Trackpoint>
            <Time>2022-07-17T17:22:31.000Z</Time>
            <Position>
              <LatitudeDegrees>43.47973876632750034332275390625</LatitudeDegrees>
              <LongitudeDegrees>-5.51606199704110622406005859375</LongitudeDegrees>
            </Position>
            <AltitudeMeters>380.79998779296875</AltitudeMeters>
            <DistanceMeters>NAN</DistanceMeters>
          </Trackpoint>
          <Trackpoint>
            <Time>2022-07-17T17:22:32.000Z</Time>
            <Position>
              <LatitudeDegrees>43.47981638275086879730224609375</LatitudeDegrees>
              <LongitudeDegrees>-5.51623131148517131805419921875</LongitudeDegrees>
            </Position>
            <AltitudeMeters>379.399993896484375</AltitudeMeters>
            <DistanceMeters>NAN</DistanceMeters>
          </Trackpoint>
          <Trackpoint>
            <Time>2022-07-17T17:22:33.000Z</Time>
            <Position>
              <LatitudeDegrees>43.47990372218191623687744140625</LatitudeDegrees>
              <LongitudeDegrees>-5.51638838835060596466064453125</LongitudeDegrees>
            </Position>
            <AltitudeMeters>378.20001220703125</AltitudeMeters>
            <DistanceMeters>NAN</DistanceMeters>
          </Trackpoint>
          <Trackpoint>
            <Time>2022-07-17T17:22:34.000Z</Time>
            <Position>
              <LatitudeDegrees>43.47999860532581806182861328125</LatitudeDegrees>
              <LongitudeDegrees>-5.5165326409041881561279296875</LongitudeDegrees>
            </Position>
            <AltitudeMeters>376.79998779296875</AltitudeMeters>
            <DistanceMeters>NAN</DistanceMeters>
          </Trackpoint>
          <Trackpoint>
            <Time>2022-07-17T17:22:35.000Z</Time>
            <Position>
              <LatitudeDegrees>43.48010153509676456451416015625</LatitudeDegrees>
              <LongitudeDegrees>-5.51666465587913990020751953125</LongitudeDegrees>
            </Position>
            <AltitudeMeters>375.399993896484375</AltitudeMeters>
            <DistanceMeters>NAN</DistanceMeters>
          </Trackpoint>
          <Trackpoint>
            <Time>2022-07-17T17:22:36.000Z</Time>
            <Position>
              <LatitudeDegrees>43.480207063257694244384765625</LatitudeDegrees>
              <LongitudeDegrees>-5.5167817510664463043212890625</LongitudeDegrees>
            </Position>
            <AltitudeMeters>374.20001220703125</AltitudeMeters>
            <DistanceMeters>NAN</DistanceMeters>
          </Trackpoint>
          <Trackpoint>
            <Time>2022-07-17T17:22:37.000Z</Time>
            <Position>
              <LatitudeDegrees>43.48031292669475078582763671875</LatitudeDegrees>
              <LongitudeDegrees>-5.51689155399799346923828125</LongitudeDegrees>
            </Position>
            <AltitudeMeters>373</AltitudeMeters>
            <DistanceMeters>NAN</DistanceMeters>
          </Trackpoint>
          <Trackpoint>
            <Time>2022-07-17T17:22:39.000Z</Time>
            <Position>
              <LatitudeDegrees>43.48052817396819591522216796875</LatitudeDegrees>
              <LongitudeDegrees>-5.51709045656025409698486328125</LongitudeDegrees>
            </Position>
            <AltitudeMeters>370.600006103515625</AltitudeMeters>
            <DistanceMeters>NAN</DistanceMeters>
          </Trackpoint>
          <Trackpoint>
            <Time>2022-07-17T17:22:40.000Z</Time>
            <Position>
              <LatitudeDegrees>43.48063697107136249542236328125</LatitudeDegrees>
              <LongitudeDegrees>-5.5171713419258594512939453125</LongitudeDegrees>
            </Position>
            <AltitudeMeters>369.20001220703125</AltitudeMeters>
            <DistanceMeters>NAN</DistanceMeters>
          </Trackpoint>
          <Trackpoint>
            <Time>2022-07-17T17:22:41.000Z</Time>
            <Position>
              <LatitudeDegrees>43.48074518144130706787109375</LatitudeDegrees>
              <LongitudeDegrees>-5.51724468357861042022705078125</LongitudeDegrees>
            </Position>
            <AltitudeMeters>368.20001220703125</AltitudeMeters>
            <DistanceMeters>NAN</DistanceMeters>
          </Trackpoint>
          <Trackpoint>
            <Time>2022-07-17T17:22:42.000Z</Time>
            <Position>
              <LatitudeDegrees>43.4808526374399662017822265625</LatitudeDegrees>
              <LongitudeDegrees>-5.5173215456306934356689453125</LongitudeDegrees>
            </Position>
            <AltitudeMeters>366.600006103515625</AltitudeMeters>
            <DistanceMeters>NAN</DistanceMeters>
          </Trackpoint>
          <Trackpoint>
            <Time>2022-07-17T17:22:43.000Z</Time>
            <Position>
              <LatitudeDegrees>43.48095850087702274322509765625</LatitudeDegrees>
              <LongitudeDegrees>-5.5174073763191699981689453125</LongitudeDegrees>
            </Position>
            <AltitudeMeters>364.79998779296875</AltitudeMeters>
            <DistanceMeters>NAN</DistanceMeters>
          </Trackpoint>
          <Trackpoint>
            <Time>2022-07-17T17:22:44.000Z</Time>
            <Position>
              <LatitudeDegrees>43.481060005724430084228515625</LatitudeDegrees>
              <LongitudeDegrees>-5.51750351674854755401611328125</LongitudeDegrees>
            </Position>
            <AltitudeMeters>362.79998779296875</AltitudeMeters>
            <DistanceMeters>NAN</DistanceMeters>
          </Trackpoint>
          <Trackpoint>
            <Time>2022-07-17T17:22:45.000Z</Time>
            <Position>
              <LatitudeDegrees>43.48115731962025165557861328125</LatitudeDegrees>
              <LongitudeDegrees>-5.51761063747107982635498046875</LongitudeDegrees>
            </Position>
            <AltitudeMeters>361.79998779296875</AltitudeMeters>
            <DistanceMeters>NAN</DistanceMeters>
          </Trackpoint>
          <Trackpoint>
            <Time>2022-07-17T17:22:47.000Z</Time>
            <Position>
              <LatitudeDegrees>43.48132998682558536529541015625</LatitudeDegrees>
              <LongitudeDegrees>-5.51786259748041629791259765625</LongitudeDegrees>
            </Position>
            <AltitudeMeters>360.399993896484375</AltitudeMeters>
            <DistanceMeters>NAN</DistanceMeters>
          </Trackpoint>
          <Trackpoint>
            <Time>2022-07-17T17:22:48.000Z</Time>
            <Position>
              <LatitudeDegrees>43.48140290938317775726318359375</LatitudeDegrees>
              <LongitudeDegrees>-5.51800726912915706634521484375</LongitudeDegrees>
            </Position>
            <AltitudeMeters>359.600006103515625</AltitudeMeters>
            <DistanceMeters>NAN</DistanceMeters>
          </Trackpoint>
          <Trackpoint>
            <Time>2022-07-17T17:22:49.000Z</Time>
            <Position>
              <LatitudeDegrees>43.48147298209369182586669921875</LatitudeDegrees>
              <LongitudeDegrees>-5.5181582272052764892578125</LongitudeDegrees>
            </Position>
            <AltitudeMeters>358.79998779296875</AltitudeMeters>
            <DistanceMeters>NAN</DistanceMeters>
          </Trackpoint>
          <Trackpoint>
            <Time>2022-07-17T17:22:50.000Z</Time>
            <Position>
              <LatitudeDegrees>43.48154137842357158660888671875</LatitudeDegrees>
              <LongitudeDegrees>-5.51831178367137908935546875</LongitudeDegrees>
            </Position>
            <AltitudeMeters>357.600006103515625</AltitudeMeters>
            <DistanceMeters>NAN</DistanceMeters>
          </Trackpoint>
          <Trackpoint>
            <Time>2022-07-17T17:22:51.000Z</Time>
            <Position>
              <LatitudeDegrees>43.4816056676208972930908203125</LatitudeDegrees>
              <LongitudeDegrees>-5.5184639990329742431640625</LongitudeDegrees>
            </Position>
            <AltitudeMeters>356.399993896484375</AltitudeMeters>
            <DistanceMeters>NAN</DistanceMeters>
          </Trackpoint>
          <Trackpoint>
            <Time>2022-07-17T17:22:53.000Z</Time>
            <Position>
              <LatitudeDegrees>43.4817173145711421966552734375</LatitudeDegrees>
              <LongitudeDegrees>-5.51876666955649852752685546875</LongitudeDegrees>
            </Position>
            <AltitudeMeters>354</AltitudeMeters>
            <DistanceMeters>NAN</DistanceMeters>
          </Trackpoint>
          <Trackpoint>
            <Time>2022-07-17T17:22:54.000Z</Time>
            <Position>
              <LatitudeDegrees>43.48176869563758373260498046875</LatitudeDegrees>
              <LongitudeDegrees>-5.51892290823161602020263671875</LongitudeDegrees>
            </Position>
            <AltitudeMeters>352.600006103515625</AltitudeMeters>
            <DistanceMeters>NAN</DistanceMeters>
          </Trackpoint>
          <Trackpoint>
            <Time>2022-07-17T17:22:55.000Z</Time>
            <Position>
              <LatitudeDegrees>43.4818249382078647613525390625</LatitudeDegrees>
              <LongitudeDegrees>-5.519079230725765228271484375</LongitudeDegrees>
            </Position>
            <AltitudeMeters>351.399993896484375</AltitudeMeters>
            <DistanceMeters>NAN</DistanceMeters>
          </Trackpoint>
          <Trackpoint>
            <Time>2022-07-17T17:22:56.000Z</Time>
            <Position>
              <LatitudeDegrees>43.4818829409778118133544921875</LatitudeDegrees>
              <LongitudeDegrees>-5.5192337930202484130859375</LongitudeDegrees>
            </Position>
            <AltitudeMeters>350.399993896484375</AltitudeMeters>
            <DistanceMeters>NAN</DistanceMeters>
          </Trackpoint>
          <Trackpoint>
            <Time>2022-07-17T17:22:58.000Z</Time>
            <Position>
              <LatitudeDegrees>43.48199651576578617095947265625</LatitudeDegrees>
              <LongitudeDegrees>-5.51954266615211963653564453125</LongitudeDegrees>
            </Position>
            <AltitudeMeters>348.399993896484375</AltitudeMeters>
            <DistanceMeters>NAN</DistanceMeters>
          </Trackpoint>
          <Trackpoint>
            <Time>2022-07-17T17:23:00.000Z</Time>
            <Position>
              <LatitudeDegrees>43.4820829331874847412109375</LatitudeDegrees>
              <LongitudeDegrees>-5.51985966973006725311279296875</LongitudeDegrees>
            </Position>
            <AltitudeMeters>346.399993896484375</AltitudeMeters>
            <DistanceMeters>NAN</DistanceMeters>
          </Trackpoint>
          <Trackpoint>
            <Time>2022-07-17T17:23:02.000Z</Time>
            <Position>
              <LatitudeDegrees>43.48216230981051921844482421875</LatitudeDegrees>
              <LongitudeDegrees>-5.52012101747095584869384765625</LongitudeDegrees>
            </Position>
            <AltitudeMeters>344.20001220703125</AltitudeMeters>
            <DistanceMeters>NAN</DistanceMeters>
          </Trackpoint>
          <Trackpoint>
            <Time>2022-07-17T17:23:03.000Z</Time>
            <Position>
              <LatitudeDegrees>43.48220338113605976104736328125</LatitudeDegrees>
              <LongitudeDegrees>-5.52024054341018199920654296875</LongitudeDegrees>
            </Position>
            <AltitudeMeters>342.600006103515625</AltitudeMeters>
            <DistanceMeters>NAN</DistanceMeters>
          </Trackpoint>
          <Trackpoint>
            <Time>2022-07-17T17:23:04.000Z</Time>
            <Position>
              <LatitudeDegrees>43.48225367255508899688720703125</LatitudeDegrees>
              <LongitudeDegrees>-5.52035068161785602569580078125</LongitudeDegrees>
            </Position>
            <AltitudeMeters>341</AltitudeMeters>
            <DistanceMeters>NAN</DistanceMeters>
          </Trackpoint>
          <Trackpoint>
            <Time>2022-07-17T17:23:06.000Z</Time>
            <Position>
              <LatitudeDegrees>43.48237236030399799346923828125</LatitudeDegrees>
              <LongitudeDegrees>-5.52056483924388885498046875</LongitudeDegrees>
            </Position>
            <AltitudeMeters>339.20001220703125</AltitudeMeters>
            <DistanceMeters>NAN</DistanceMeters>
          </Trackpoint>
          <Trackpoint>
            <Time>2022-07-17T17:23:07.000Z</Time>
            <Position>
              <LatitudeDegrees>43.48242851905524730682373046875</LatitudeDegrees>
              <LongitudeDegrees>-5.52066969685256481170654296875</LongitudeDegrees>
            </Position>
            <AltitudeMeters>338.399993896484375</AltitudeMeters>
            <DistanceMeters>NAN</DistanceMeters>
          </Trackpoint>
          <Trackpoint>
            <Time>2022-07-17T17:23:08.000Z</Time>
            <Position>
              <LatitudeDegrees>43.48247386515140533447265625</LatitudeDegrees>
              <LongitudeDegrees>-5.5207856185734272003173828125</LongitudeDegrees>
            </Position>
            <AltitudeMeters>337.399993896484375</AltitudeMeters>
            <DistanceMeters>NAN</DistanceMeters>
          </Trackpoint>
          <Trackpoint>
            <Time>2022-07-17T17:23:09.000Z</Time>
            <Position>
              <LatitudeDegrees>43.482507057487964630126953125</LatitudeDegrees>
              <LongitudeDegrees>-5.5209133587777614593505859375</LongitudeDegrees>
            </Position>
            <AltitudeMeters>336.20001220703125</AltitudeMeters>
            <DistanceMeters>NAN</DistanceMeters>
          </Trackpoint>
          <Trackpoint>
            <Time>2022-07-17T17:23:10.000Z</Time>
            <Position>
              <LatitudeDegrees>43.48253077827394008636474609375</LatitudeDegrees>
              <LongitudeDegrees>-5.5210511572659015655517578125</LongitudeDegrees>
            </Position>
            <AltitudeMeters>335.20001220703125</AltitudeMeters>
            <DistanceMeters>NAN</DistanceMeters>
          </Trackpoint>
          <Trackpoint>
            <Time>2022-07-17T17:23:12.000Z</Time>
            <Position>
              <LatitudeDegrees>43.48258190788328647613525390625</LatitudeDegrees>
              <LongitudeDegrees>-5.52133387885987758636474609375</LongitudeDegrees>
            </Position>
            <AltitudeMeters>333.79998779296875</AltitudeMeters>
            <DistanceMeters>NAN</DistanceMeters>
          </Trackpoint>
          <Trackpoint>
            <Time>2022-07-17T17:23:14.000Z</Time>
            <Position>
              <LatitudeDegrees>43.482679389417171478271484375</LatitudeDegrees>
              <LongitudeDegrees>-5.52160151302814483642578125</LongitudeDegrees>
            </Position>
            <AltitudeMeters>332</AltitudeMeters>
            <DistanceMeters>NAN</DistanceMeters>
          </Trackpoint>
          <Trackpoint>
            <Time>2022-07-17T17:23:15.000Z</Time>
            <Position>
              <LatitudeDegrees>43.4827405773103237152099609375</LatitudeDegrees>
              <LongitudeDegrees>-5.52173336036503314971923828125</LongitudeDegrees>
            </Position>
            <AltitudeMeters>330.79998779296875</AltitudeMeters>
            <DistanceMeters>NAN</DistanceMeters>
          </Trackpoint>
          <Trackpoint>
            <Time>2022-07-17T17:23:17.000Z</Time>
            <Position>
              <LatitudeDegrees>43.48286320455372333526611328125</LatitudeDegrees>
              <LongitudeDegrees>-5.5220083706080913543701171875</LongitudeDegrees>
            </Position>
            <AltitudeMeters>329</AltitudeMeters>
            <DistanceMeters>NAN</DistanceMeters>
          </Trackpoint>
          <Trackpoint>
            <Time>2022-07-17T17:23:18.000Z</Time>
            <Position>
              <LatitudeDegrees>43.4829239733517169952392578125</LatitudeDegrees>
              <LongitudeDegrees>-5.522148348391056060791015625</LongitudeDegrees>
            </Position>
            <AltitudeMeters>328.20001220703125</AltitudeMeters>
            <DistanceMeters>NAN</DistanceMeters>
          </Trackpoint>
          <Trackpoint>
            <Time>2022-07-17T17:23:19.000Z</Time>
            <Position>
              <LatitudeDegrees>43.48298750817775726318359375</LatitudeDegrees>
              <LongitudeDegrees>-5.52229310385882854461669921875</LongitudeDegrees>
            </Position>
            <AltitudeMeters>327.399993896484375</AltitudeMeters>
            <DistanceMeters>NAN</DistanceMeters>
          </Trackpoint>
          <Trackpoint>
            <Time>2022-07-17T17:23:21.000Z</Time>
            <Position>
              <LatitudeDegrees>43.4831355325877666473388671875</LatitudeDegrees>
              <LongitudeDegrees>-5.52257054485380649566650390625</LongitudeDegrees>
            </Position>
            <AltitudeMeters>325.20001220703125</AltitudeMeters>
            <DistanceMeters>NAN</DistanceMeters>
          </Trackpoint>
          <Trackpoint>
            <Time>2022-07-17T17:23:22.000Z</Time>
            <Position>
              <LatitudeDegrees>43.4832133166491985321044921875</LatitudeDegrees>
              <LongitudeDegrees>-5.5227054096758365631103515625</LongitudeDegrees>
            </Position>
            <AltitudeMeters>324.399993896484375</AltitudeMeters>
            <DistanceMeters>NAN</DistanceMeters>
          </Trackpoint>
          <Trackpoint>
            <Time>2022-07-17T17:23:23.000Z</Time>
            <Position>
              <LatitudeDegrees>43.48329151980578899383544921875</LatitudeDegrees>
              <LongitudeDegrees>-5.52284295670688152313232421875</LongitudeDegrees>
            </Position>
            <AltitudeMeters>323.399993896484375</AltitudeMeters>
            <DistanceMeters>NAN</DistanceMeters>
          </Trackpoint>
          <Trackpoint>
            <Time>2022-07-17T17:23:24.000Z</Time>
            <Position>
              <LatitudeDegrees>43.4833715669810771942138671875</LatitudeDegrees>
              <LongitudeDegrees>-5.52298008464276790618896484375</LongitudeDegrees>
            </Position>
            <AltitudeMeters>322.399993896484375</AltitudeMeters>
            <DistanceMeters>NAN</DistanceMeters>
          </Trackpoint>
          <Trackpoint>
            <Time>2022-07-17T17:23:25.000Z</Time>
            <Position>
              <LatitudeDegrees>43.483451195061206817626953125</LatitudeDegrees>
              <LongitudeDegrees>-5.52311989478766918182373046875</LongitudeDegrees>
            </Position>
            <AltitudeMeters>320.79998779296875</AltitudeMeters>
            <DistanceMeters>NAN</DistanceMeters>
          </Trackpoint>
          <Trackpoint>
            <Time>2022-07-17T17:23:27.000Z</Time>
            <Position>
              <LatitudeDegrees>43.48361246287822723388671875</LatitudeDegrees>
              <LongitudeDegrees>-5.52338023670017719268798828125</LongitudeDegrees>
            </Position>
            <AltitudeMeters>319</AltitudeMeters>
            <DistanceMeters>NAN</DistanceMeters>
          </Trackpoint>
          <Trackpoint>
            <Time>2022-07-17T17:23:28.000Z</Time>
            <Position>
              <LatitudeDegrees>43.4836884029209613800048828125</LatitudeDegrees>
              <LongitudeDegrees>-5.523506216704845428466796875</LongitudeDegrees>
            </Position>
            <AltitudeMeters>317.600006103515625</AltitudeMeters>
            <DistanceMeters>NAN</DistanceMeters>
          </Trackpoint>
          <Trackpoint>
            <Time>2022-07-17T17:23:29.000Z</Time>
            <Position>
              <LatitudeDegrees>43.483757637441158294677734375</LatitudeDegrees>
              <LongitudeDegrees>-5.5236381478607654571533203125</LongitudeDegrees>
            </Position>
            <AltitudeMeters>316.399993896484375</AltitudeMeters>
            <DistanceMeters>NAN</DistanceMeters>
          </Trackpoint>
          <Trackpoint>
            <Time>2022-07-17T17:23:30.000Z</Time>
            <Position>
              <LatitudeDegrees>43.483822010457515716552734375</LatitudeDegrees>
              <LongitudeDegrees>-5.52377267740666866302490234375</LongitudeDegrees>
            </Position>
            <AltitudeMeters>315.20001220703125</AltitudeMeters>
            <DistanceMeters>NAN</DistanceMeters>
          </Trackpoint>
          <Trackpoint>
            <Time>2022-07-17T17:23:31.000Z</Time>
            <Position>
              <LatitudeDegrees>43.48389669321477413177490234375</LatitudeDegrees>
              <LongitudeDegrees>-5.523932017385959625244140625</LongitudeDegrees>
            </Position>
            <AltitudeMeters>313.399993896484375</AltitudeMeters>
            <DistanceMeters>NAN</DistanceMeters>
          </Trackpoint>
          <Trackpoint>
            <Time>2022-07-17T17:23:33.000Z</Time>
            <Position>
              <LatitudeDegrees>43.48399844951927661895751953125</LatitudeDegrees>
              <LongitudeDegrees>-5.5242161639034748077392578125</LongitudeDegrees>
            </Position>
            <AltitudeMeters>311.20001220703125</AltitudeMeters>
            <DistanceMeters>NAN</DistanceMeters>
          </Trackpoint>
          <Trackpoint>
            <Time>2022-07-17T17:23:34.000Z</Time>
            <Position>
              <LatitudeDegrees>43.48403499461710453033447265625</LatitudeDegrees>
              <LongitudeDegrees>-5.5243341811001300811767578125</LongitudeDegrees>
            </Position>
            <AltitudeMeters>310.20001220703125</AltitudeMeters>
            <DistanceMeters>NAN</DistanceMeters>
          </Trackpoint>
          <Trackpoint>
            <Time>2022-07-17T17:23:35.000Z</Time>
            <Position>
              <LatitudeDegrees>43.48407246172428131103515625</LatitudeDegrees>
              <LongitudeDegrees>-5.52448715083301067352294921875</LongitudeDegrees>
            </Position>
            <AltitudeMeters>309.20001220703125</AltitudeMeters>
            <DistanceMeters>NAN</DistanceMeters>
          </Trackpoint>
          <Trackpoint>
            <Time>2022-07-17T17:23:37.000Z</Time>
            <Position>
              <LatitudeDegrees>43.48413540981709957122802734375</LatitudeDegrees>
              <LongitudeDegrees>-5.52480231039226055145263671875</LongitudeDegrees>
            </Position>
            <AltitudeMeters>307.399993896484375</AltitudeMeters>
            <DistanceMeters>NAN</DistanceMeters>
          </Trackpoint>
          <Trackpoint>
            <Time>2022-07-17T17:23:38.000Z</Time>
            <Position>
              <LatitudeDegrees>43.48416960798203945159912109375</LatitudeDegrees>
              <LongitudeDegrees>-5.52495419047772884368896484375</LongitudeDegrees>
            </Position>
            <AltitudeMeters>306</AltitudeMeters>
            <DistanceMeters>NAN</DistanceMeters>
          </Trackpoint>
          <Trackpoint>
            <Time>2022-07-17T17:23:39.000Z</Time>
            <Position>
              <LatitudeDegrees>43.484208919107913970947265625</LatitudeDegrees>
              <LongitudeDegrees>-5.52510104142129421234130859375</LongitudeDegrees>
            </Position>
            <AltitudeMeters>304.79998779296875</AltitudeMeters>
            <DistanceMeters>NAN</DistanceMeters>
          </Trackpoint>
          <Trackpoint>
            <Time>2022-07-17T17:23:40.000Z</Time>
            <Position>
              <LatitudeDegrees>43.48425543867051601409912109375</LatitudeDegrees>
              <LongitudeDegrees>-5.52523582242429256439208984375</LongitudeDegrees>
            </Position>
            <AltitudeMeters>304.20001220703125</AltitudeMeters>
            <DistanceMeters>NAN</DistanceMeters>
          </Trackpoint>
          <Trackpoint>
            <Time>2022-07-17T17:23:41.000Z</Time>
            <Position>
              <LatitudeDegrees>43.484329618513584136962890625</LatitudeDegrees>
              <LongitudeDegrees>-5.52538149990141391754150390625</LongitudeDegrees>
            </Position>
            <AltitudeMeters>303</AltitudeMeters>
            <DistanceMeters>NAN</DistanceMeters>
          </Trackpoint>
          <Trackpoint>
            <Time>2022-07-17T17:23:42.000Z</Time>
            <Position>
              <LatitudeDegrees>43.484406732022762298583984375</LatitudeDegrees>
              <LongitudeDegrees>-5.5254932306706905364990234375</LongitudeDegrees>
            </Position>
            <AltitudeMeters>301.79998779296875</AltitudeMeters>
            <DistanceMeters>NAN</DistanceMeters>
          </Trackpoint>
          <Trackpoint>
            <Time>2022-07-17T17:23:44.000Z</Time>
            <Position>
              <LatitudeDegrees>43.48454696126282215118408203125</LatitudeDegrees>
              <LongitudeDegrees>-5.525707304477691650390625</LongitudeDegrees>
            </Position>
            <AltitudeMeters>299.399993896484375</AltitudeMeters>
            <DistanceMeters>NAN</DistanceMeters>
          </Trackpoint>
          <Trackpoint>
            <Time>2022-07-17T17:23:45.000Z</Time>
            <Position>
              <LatitudeDegrees>43.4846130944788455963134765625</LatitudeDegrees>
              <LongitudeDegrees>-5.5258368887007236480712890625</LongitudeDegrees>
            </Position>
            <AltitudeMeters>298</AltitudeMeters>
            <DistanceMeters>NAN</DistanceMeters>
          </Trackpoint>
          <Trackpoint>
            <Time>2022-07-17T17:23:46.000Z</Time>
            <Position>
              <LatitudeDegrees>43.484664894640445709228515625</LatitudeDegrees>
              <LongitudeDegrees>-5.52597611211240291595458984375</LongitudeDegrees>
            </Position>
            <AltitudeMeters>297.20001220703125</AltitudeMeters>
            <DistanceMeters>NAN</DistanceMeters>
          </Trackpoint>
          <Trackpoint>
            <Time>2022-07-17T17:23:47.000Z</Time>
            <Position>
              <LatitudeDegrees>43.48470211029052734375</LatitudeDegrees>
              <LongitudeDegrees>-5.52612229250371456146240234375</LongitudeDegrees>
            </Position>
            <AltitudeMeters>296.399993896484375</AltitudeMeters>
            <DistanceMeters>NAN</DistanceMeters>
          </Trackpoint>
          <Trackpoint>
            <Time>2022-07-17T17:23:48.000Z</Time>
            <Position>
              <LatitudeDegrees>43.4847200475633144378662109375</LatitudeDegrees>
              <LongitudeDegrees>-5.5262774415314197540283203125</LongitudeDegrees>
            </Position>
            <AltitudeMeters>295.399993896484375</AltitudeMeters>
            <DistanceMeters>NAN</DistanceMeters>
          </Trackpoint>
          <Trackpoint>
            <Time>2022-07-17T17:23:49.000Z</Time>
            <Position>
              <LatitudeDegrees>43.48472516052424907684326171875</LatitudeDegrees>
              <LongitudeDegrees>-5.5264370329678058624267578125</LongitudeDegrees>
            </Position>
            <AltitudeMeters>294.20001220703125</AltitudeMeters>
            <DistanceMeters>NAN</DistanceMeters>
          </Trackpoint>
          <Trackpoint>
            <Time>2022-07-17T17:23:51.000Z</Time>
            <Position>
              <LatitudeDegrees>43.48471753299236297607421875</LatitudeDegrees>
              <LongitudeDegrees>-5.526756383478641510009765625</LongitudeDegrees>
            </Position>
            <AltitudeMeters>292.600006103515625</AltitudeMeters>
            <DistanceMeters>NAN</DistanceMeters>
          </Trackpoint>
          <Trackpoint>
            <Time>2022-07-17T17:23:53.000Z</Time>
            <Position>
              <LatitudeDegrees>43.4846912138164043426513671875</LatitudeDegrees>
              <LongitudeDegrees>-5.52706324495375156402587890625</LongitudeDegrees>
            </Position>
            <AltitudeMeters>290.399993896484375</AltitudeMeters>
            <DistanceMeters>NAN</DistanceMeters>
          </Trackpoint>
          <Trackpoint>
            <Time>2022-07-17T17:23:54.000Z</Time>
            <Position>
              <LatitudeDegrees>43.48465793766081333160400390625</LatitudeDegrees>
              <LongitudeDegrees>-5.527237169444561004638671875</LongitudeDegrees>
            </Position>
            <AltitudeMeters>289.20001220703125</AltitudeMeters>
            <DistanceMeters>NAN</DistanceMeters>
          </Trackpoint>
          <Trackpoint>
            <Time>2022-07-17T17:23:55.000Z</Time>
            <Position>
              <LatitudeDegrees>43.4846322052180767059326171875</LatitudeDegrees>
              <LongitudeDegrees>-5.527350492775440216064453125</LongitudeDegrees>
            </Position>
            <AltitudeMeters>288.20001220703125</AltitudeMeters>
            <DistanceMeters>NAN</DistanceMeters>
          </Trackpoint>
          <Trackpoint>
            <Time>2022-07-17T17:23:56.000Z</Time>
            <Position>
              <LatitudeDegrees>43.48460949026048183441162109375</LatitudeDegrees>
              <LongitudeDegrees>-5.5274847708642482757568359375</LongitudeDegrees>
            </Position>
            <AltitudeMeters>287.20001220703125</AltitudeMeters>
            <DistanceMeters>NAN</DistanceMeters>
          </Trackpoint>
          <Trackpoint>
            <Time>2022-07-17T17:23:57.000Z</Time>
            <Position>
              <LatitudeDegrees>43.48460488021373748779296875</LatitudeDegrees>
              <LongitudeDegrees>-5.52761611528694629669189453125</LongitudeDegrees>
            </Position>
            <AltitudeMeters>286</AltitudeMeters>
            <DistanceMeters>NAN</DistanceMeters>
          </Trackpoint>
          <Trackpoint>
            <Time>2022-07-17T17:23:58.000Z</Time>
            <Position>
              <LatitudeDegrees>43.48462231457233428955078125</LatitudeDegrees>
              <LongitudeDegrees>-5.5277674086391925811767578125</LongitudeDegrees>
            </Position>
            <AltitudeMeters>285</AltitudeMeters>
            <DistanceMeters>NAN</DistanceMeters>
          </Trackpoint>
          <Trackpoint>
            <Time>2022-07-17T17:23:59.000Z</Time>
            <Position>
              <LatitudeDegrees>43.48464922048151493072509765625</LatitudeDegrees>
              <LongitudeDegrees>-5.52785650826990604400634765625</LongitudeDegrees>
            </Position>
            <AltitudeMeters>284</AltitudeMeters>
            <DistanceMeters>NAN</DistanceMeters>
          </Trackpoint>
          <Trackpoint>
            <Time>2022-07-17T17:24:00.000Z</Time>
            <Position>
              <LatitudeDegrees>43.48468844778835773468017578125</LatitudeDegrees>
              <LongitudeDegrees>-5.52795792929828166961669921875</LongitudeDegrees>
            </Position>
            <AltitudeMeters>283.20001220703125</AltitudeMeters>
            <DistanceMeters>NAN</DistanceMeters>
          </Trackpoint>
          <Trackpoint>
            <Time>2022-07-17T17:24:01.000Z</Time>
            <Position>
              <LatitudeDegrees>43.48473094403743743896484375</LatitudeDegrees>
              <LongitudeDegrees>-5.52803923375904560089111328125</LongitudeDegrees>
            </Position>
            <AltitudeMeters>281.79998779296875</AltitudeMeters>
            <DistanceMeters>NAN</DistanceMeters>
          </Trackpoint>
          <Trackpoint>
            <Time>2022-07-17T17:24:02.000Z</Time>
            <Position>
              <LatitudeDegrees>43.48477008752524852752685546875</LatitudeDegrees>
              <LongitudeDegrees>-5.52809522487223148345947265625</LongitudeDegrees>
            </Position>
            <AltitudeMeters>280.600006103515625</AltitudeMeters>
            <DistanceMeters>NAN</DistanceMeters>
          </Trackpoint>
          <Trackpoint>
            <Time>2022-07-17T17:24:03.000Z</Time>
            <Position>
              <LatitudeDegrees>43.48479975946247577667236328125</LatitudeDegrees>
              <LongitudeDegrees>-5.528137721121311187744140625</LongitudeDegrees>
            </Position>
            <AltitudeMeters>279.20001220703125</AltitudeMeters>
            <DistanceMeters>NAN</DistanceMeters>
          </Trackpoint>
          <Trackpoint>
            <Time>2022-07-17T17:24:04.000Z</Time>
            <Position>
              <LatitudeDegrees>43.48482037894427776336669921875</LatitudeDegrees>
              <LongitudeDegrees>-5.528169237077236175537109375</LongitudeDegrees>
            </Position>
            <AltitudeMeters>278</AltitudeMeters>
            <DistanceMeters>NAN</DistanceMeters>
          </Trackpoint>
          <Trackpoint>
            <Time>2022-07-17T17:24:06.000Z</Time>
            <Position>
              <LatitudeDegrees>43.48485290072858333587646484375</LatitudeDegrees>
              <LongitudeDegrees>-5.52819765172898769378662109375</LongitudeDegrees>
            </Position>
            <AltitudeMeters>276.79998779296875</AltitudeMeters>
            <DistanceMeters>NAN</DistanceMeters>
          </Trackpoint>
          <Trackpoint>
            <Time>2022-07-17T17:24:08.000Z</Time>
            <Position>
              <LatitudeDegrees>43.4848595224320888519287109375</LatitudeDegrees>
              <LongitudeDegrees>-5.52820217795670032501220703125</LongitudeDegrees>
            </Position>
            <AltitudeMeters>275.600006103515625</AltitudeMeters>
            <DistanceMeters>NAN</DistanceMeters>
          </Trackpoint>
          <Trackpoint>
            <Time>2022-07-17T17:24:09.000Z</Time>
            <Position>
              <LatitudeDegrees>43.4848595224320888519287109375</LatitudeDegrees>
              <LongitudeDegrees>-5.52820217795670032501220703125</LongitudeDegrees>
            </Position>
            <AltitudeMeters>275.20001220703125</AltitudeMeters>
            <DistanceMeters>NAN</DistanceMeters>
          </Trackpoint>
          <Trackpoint>
            <Time>2022-07-17T17:25:02.000Z</Time>
            <Position>
              <LatitudeDegrees>43.4849399887025356292724609375</LatitudeDegrees>
              <LongitudeDegrees>-5.5281898565590381622314453125</LongitudeDegrees>
            </Position>
            <AltitudeMeters>273</AltitudeMeters>
            <DistanceMeters>NAN</DistanceMeters>
          </Trackpoint>
          <Trackpoint>
            <Time>2022-07-17T17:25:03.000Z</Time>
            <Position>
              <LatitudeDegrees>43.48497443832457065582275390625</LatitudeDegrees>
              <LongitudeDegrees>-5.52818910218775272369384765625</LongitudeDegrees>
            </Position>
            <AltitudeMeters>272.79998779296875</AltitudeMeters>
            <DistanceMeters>NAN</DistanceMeters>
          </Trackpoint>
          <Trackpoint>
            <Time>2022-07-17T17:25:06.000Z</Time>
            <Position>
              <LatitudeDegrees>43.48513185046613216400146484375</LatitudeDegrees>
              <LongitudeDegrees>-5.5282084643840789794921875</LongitudeDegrees>
            </Position>
            <AltitudeMeters>272.399993896484375</AltitudeMeters>
            <DistanceMeters>NAN</DistanceMeters>
          </Trackpoint>
          <Trackpoint>
            <Time>2022-07-17T17:25:07.000Z</Time>
            <Position>
              <LatitudeDegrees>43.4851894341409206390380859375</LatitudeDegrees>
              <LongitudeDegrees>-5.52824400365352630615234375</LongitudeDegrees>
            </Position>
            <AltitudeMeters>272</AltitudeMeters>
            <DistanceMeters>NAN</DistanceMeters>
          </Trackpoint>
          <Trackpoint>
            <Time>2022-07-17T17:25:10.000Z</Time>
            <Position>
              <LatitudeDegrees>43.4853713214397430419921875</LatitudeDegrees>
              <LongitudeDegrees>-5.52840585820376873016357421875</LongitudeDegrees>
            </Position>
            <AltitudeMeters>270.79998779296875</AltitudeMeters>
            <DistanceMeters>NAN</DistanceMeters>
          </Trackpoint>
          <Trackpoint>
            <Time>2022-07-17T17:25:11.000Z</Time>
            <Position>
              <LatitudeDegrees>43.485445082187652587890625</LatitudeDegrees>
              <LongitudeDegrees>-5.52848313935101032257080078125</LongitudeDegrees>
            </Position>
            <AltitudeMeters>270.20001220703125</AltitudeMeters>
            <DistanceMeters>NAN</DistanceMeters>
          </Trackpoint>
          <Trackpoint>
            <Time>2022-07-17T17:25:12.000Z</Time>
            <Position>
              <LatitudeDegrees>43.4855054318904876708984375</LatitudeDegrees>
              <LongitudeDegrees>-5.52855321206152439117431640625</LongitudeDegrees>
            </Position>
            <AltitudeMeters>269.79998779296875</AltitudeMeters>
            <DistanceMeters>NAN</DistanceMeters>
          </Trackpoint>
          <Trackpoint>
            <Time>2022-07-17T17:25:13.000Z</Time>
            <Position>
              <LatitudeDegrees>43.48555932752788066864013671875</LatitudeDegrees>
              <LongitudeDegrees>-5.52863158285617828369140625</LongitudeDegrees>
            </Position>
            <AltitudeMeters>269.20001220703125</AltitudeMeters>
            <DistanceMeters>NAN</DistanceMeters>
          </Trackpoint>
          <Trackpoint>
            <Time>2022-07-17T17:25:14.000Z</Time>
            <Position>
              <LatitudeDegrees>43.4856024943292140960693359375</LatitudeDegrees>
              <LongitudeDegrees>-5.528699643909931182861328125</LongitudeDegrees>
            </Position>
            <AltitudeMeters>268.600006103515625</AltitudeMeters>
            <DistanceMeters>NAN</DistanceMeters>
          </Trackpoint>
          <Trackpoint>
            <Time>2022-07-17T17:25:15.000Z</Time>
            <Position>
              <LatitudeDegrees>43.48564750514924526214599609375</LatitudeDegrees>
              <LongitudeDegrees>-5.52879863418638706207275390625</LongitudeDegrees>
            </Position>
            <AltitudeMeters>268</AltitudeMeters>
            <DistanceMeters>NAN</DistanceMeters>
          </Trackpoint>
          <Trackpoint>
            <Time>2022-07-17T17:25:17.000Z</Time>
            <Position>
              <LatitudeDegrees>43.48573115654289722442626953125</LatitudeDegrees>
              <LongitudeDegrees>-5.5289921723306179046630859375</LongitudeDegrees>
            </Position>
            <AltitudeMeters>266.79998779296875</AltitudeMeters>
            <DistanceMeters>NAN</DistanceMeters>
          </Trackpoint>
          <Trackpoint>
            <Time>2022-07-17T17:25:18.000Z</Time>
            <Position>
              <LatitudeDegrees>43.48577700555324554443359375</LatitudeDegrees>
              <LongitudeDegrees>-5.52909694612026214599609375</LongitudeDegrees>
            </Position>
            <AltitudeMeters>265.79998779296875</AltitudeMeters>
            <DistanceMeters>NAN</DistanceMeters>
          </Trackpoint>
          <Trackpoint>
            <Time>2022-07-17T17:25:20.000Z</Time>
            <Position>
              <LatitudeDegrees>43.4858442284166812896728515625</LatitudeDegrees>
              <LongitudeDegrees>-5.5292456410825252532958984375</LongitudeDegrees>
            </Position>
            <AltitudeMeters>263.600006103515625</AltitudeMeters>
            <DistanceMeters>NAN</DistanceMeters>
          </Trackpoint>
          <Trackpoint>
            <Time>2022-07-17T17:25:22.000Z</Time>
            <Position>
              <LatitudeDegrees>43.4859310649335384368896484375</LatitudeDegrees>
              <LongitudeDegrees>-5.52943289279937744140625</LongitudeDegrees>
            </Position>
            <AltitudeMeters>261.79998779296875</AltitudeMeters>
            <DistanceMeters>NAN</DistanceMeters>
          </Trackpoint>
          <Trackpoint>
            <Time>2022-07-17T17:25:24.000Z</Time>
            <Position>
              <LatitudeDegrees>43.485979847609996795654296875</LatitudeDegrees>
              <LongitudeDegrees>-5.52964470349252223968505859375</LongitudeDegrees>
            </Position>
            <AltitudeMeters>260.399993896484375</AltitudeMeters>
            <DistanceMeters>NAN</DistanceMeters>
          </Trackpoint>
          <Trackpoint>
            <Time>2022-07-17T17:25:26.000Z</Time>
            <Position>
              <LatitudeDegrees>43.48601228557527065277099609375</LatitudeDegrees>
              <LongitudeDegrees>-5.52985944785177707672119140625</LongitudeDegrees>
            </Position>
            <AltitudeMeters>259</AltitudeMeters>
            <DistanceMeters>NAN</DistanceMeters>
          </Trackpoint>
          <Trackpoint>
            <Time>2022-07-17T17:25:27.000Z</Time>
            <Position>
              <LatitudeDegrees>43.4860383532941341400146484375</LatitudeDegrees>
              <LongitudeDegrees>-5.52997947670519351959228515625</LongitudeDegrees>
            </Position>
            <AltitudeMeters>258.600006103515625</AltitudeMeters>
            <DistanceMeters>NAN</DistanceMeters>
          </Trackpoint>
          <Trackpoint>
            <Time>2022-07-17T17:25:28.000Z</Time>
            <Position>
              <LatitudeDegrees>43.48607196472585201263427734375</LatitudeDegrees>
              <LongitudeDegrees>-5.5300940573215484619140625</LongitudeDegrees>
            </Position>
            <AltitudeMeters>258.20001220703125</AltitudeMeters>
            <DistanceMeters>NAN</DistanceMeters>
          </Trackpoint>
          <Trackpoint>
            <Time>2022-07-17T17:25:29.000Z</Time>
            <Position>
              <LatitudeDegrees>43.48612024448812007904052734375</LatitudeDegrees>
              <LongitudeDegrees>-5.53022456355392932891845703125</LongitudeDegrees>
            </Position>
            <AltitudeMeters>257.399993896484375</AltitudeMeters>
            <DistanceMeters>NAN</DistanceMeters>
          </Trackpoint>
          <Trackpoint>
            <Time>2022-07-17T17:25:30.000Z</Time>
            <Position>
              <LatitudeDegrees>43.48615586757659912109375</LatitudeDegrees>
              <LongitudeDegrees>-5.53031525574624538421630859375</LongitudeDegrees>
            </Position>
            <AltitudeMeters>256.20001220703125</AltitudeMeters>
            <DistanceMeters>NAN</DistanceMeters>
          </Trackpoint>
          <Trackpoint>
            <Time>2022-07-17T17:25:32.000Z</Time>
            <Position>
              <LatitudeDegrees>43.4862484037876129150390625</LatitudeDegrees>
              <LongitudeDegrees>-5.530553720891475677490234375</LongitudeDegrees>
            </Position>
            <AltitudeMeters>255</AltitudeMeters>
            <DistanceMeters>NAN</DistanceMeters>
          </Trackpoint>
          <Trackpoint>
            <Time>2022-07-17T17:25:33.000Z</Time>
            <Position>
              <LatitudeDegrees>43.48629274405539035797119140625</LatitudeDegrees>
              <LongitudeDegrees>-5.5306759290397167205810546875</LongitudeDegrees>
            </Position>
            <AltitudeMeters>254.600006103515625</AltitudeMeters>
            <DistanceMeters>NAN</DistanceMeters>
          </Trackpoint>
          <Trackpoint>
            <Time>2022-07-17T17:25:34.000Z</Time>
            <Position>
              <LatitudeDegrees>43.48633892834186553955078125</LatitudeDegrees>
              <LongitudeDegrees>-5.53083107806742191314697265625</LongitudeDegrees>
            </Position>
            <AltitudeMeters>253.8000030517578125</AltitudeMeters>
            <DistanceMeters>NAN</DistanceMeters>
          </Trackpoint>
          <Trackpoint>
            <Time>2022-07-17T17:25:36.000Z</Time>
            <Position>
              <LatitudeDegrees>43.48641679622232913970947265625</LatitudeDegrees>
              <LongitudeDegrees>-5.5310972034931182861328125</LongitudeDegrees>
            </Position>
            <AltitudeMeters>252.399993896484375</AltitudeMeters>
            <DistanceMeters>NAN</DistanceMeters>
          </Trackpoint>
          <Trackpoint>
            <Time>2022-07-17T17:25:38.000Z</Time>
            <Position>
              <LatitudeDegrees>43.48651419393718242645263671875</LatitudeDegrees>
              <LongitudeDegrees>-5.5313585512340068817138671875</LongitudeDegrees>
            </Position>
            <AltitudeMeters>251.1999969482421875</AltitudeMeters>
            <DistanceMeters>NAN</DistanceMeters>
          </Trackpoint>
          <Trackpoint>
            <Time>2022-07-17T17:25:39.000Z</Time>
            <Position>
              <LatitudeDegrees>43.4865690954029560089111328125</LatitudeDegrees>
              <LongitudeDegrees>-5.53149257786571979522705078125</LongitudeDegrees>
            </Position>
            <AltitudeMeters>250</AltitudeMeters>
            <DistanceMeters>NAN</DistanceMeters>
          </Trackpoint>
          <Trackpoint>
            <Time>2022-07-17T17:25:41.000Z</Time>
            <Position>
              <LatitudeDegrees>43.48667680285871028900146484375</LatitudeDegrees>
              <LongitudeDegrees>-5.53173213265836238861083984375</LongitudeDegrees>
            </Position>
            <AltitudeMeters>247.8000030517578125</AltitudeMeters>
            <DistanceMeters>NAN</DistanceMeters>
          </Trackpoint>
          <Trackpoint>
            <Time>2022-07-17T17:25:42.000Z</Time>
            <Position>
              <LatitudeDegrees>43.48675056360661983489990234375</LatitudeDegrees>
              <LongitudeDegrees>-5.5318911373615264892578125</LongitudeDegrees>
            </Position>
            <AltitudeMeters>246.399993896484375</AltitudeMeters>
            <DistanceMeters>NAN</DistanceMeters>
          </Trackpoint>
          <Trackpoint>
            <Time>2022-07-17T17:25:43.000Z</Time>
            <Position>
              <LatitudeDegrees>43.4868088178336620330810546875</LatitudeDegrees>
              <LongitudeDegrees>-5.53203002549707889556884765625</LongitudeDegrees>
            </Position>
            <AltitudeMeters>245.1999969482421875</AltitudeMeters>
            <DistanceMeters>NAN</DistanceMeters>
          </Trackpoint>
          <Trackpoint>
            <Time>2022-07-17T17:25:44.000Z</Time>
            <Position>
              <LatitudeDegrees>43.48686438985168933868408203125</LatitudeDegrees>
              <LongitudeDegrees>-5.53215801715850830078125</LongitudeDegrees>
            </Position>
            <AltitudeMeters>243.8000030517578125</AltitudeMeters>
            <DistanceMeters>NAN</DistanceMeters>
          </Trackpoint>
          <Trackpoint>
            <Time>2022-07-17T17:25:45.000Z</Time>
            <Position>
              <LatitudeDegrees>43.48692071624100208282470703125</LatitudeDegrees>
              <LongitudeDegrees>-5.532264970242977142333984375</LongitudeDegrees>
            </Position>
            <AltitudeMeters>242.600006103515625</AltitudeMeters>
            <DistanceMeters>NAN</DistanceMeters>
          </Trackpoint>
          <Trackpoint>
            <Time>2022-07-17T17:25:46.000Z</Time>
            <Position>
              <LatitudeDegrees>43.48696128465235233306884765625</LatitudeDegrees>
              <LongitudeDegrees>-5.53233596496284008026123046875</LongitudeDegrees>
            </Position>
            <AltitudeMeters>241.600006103515625</AltitudeMeters>
            <DistanceMeters>NAN</DistanceMeters>
          </Trackpoint>
          <Trackpoint>
            <Time>2022-07-17T17:25:47.000Z</Time>
            <Position>
              <LatitudeDegrees>43.4870046190917491912841796875</LatitudeDegrees>
              <LongitudeDegrees>-5.5324143357574939727783203125</LongitudeDegrees>
            </Position>
            <AltitudeMeters>240.1999969482421875</AltitudeMeters>
            <DistanceMeters>NAN</DistanceMeters>
          </Trackpoint>
          <Trackpoint>
            <Time>2022-07-17T17:25:48.000Z</Time>
            <Position>
              <LatitudeDegrees>43.48705013282597064971923828125</LatitudeDegrees>
              <LongitudeDegrees>-5.53249203599989414215087890625</LongitudeDegrees>
            </Position>
            <AltitudeMeters>239</AltitudeMeters>
            <DistanceMeters>NAN</DistanceMeters>
          </Trackpoint>
          <Trackpoint>
            <Time>2022-07-17T17:25:50.000Z</Time>
            <Position>
              <LatitudeDegrees>43.4870991669595241546630859375</LatitudeDegrees>
              <LongitudeDegrees>-5.532572753727436065673828125</LongitudeDegrees>
            </Position>
            <AltitudeMeters>236.8000030517578125</AltitudeMeters>
            <DistanceMeters>NAN</DistanceMeters>
          </Trackpoint>
          <Trackpoint>
            <Time>2022-07-17T17:25:52.000Z</Time>
            <Position>
              <LatitudeDegrees>43.48710897378623485565185546875</LatitudeDegrees>
              <LongitudeDegrees>-5.5325916968286037445068359375</LongitudeDegrees>
            </Position>
            <AltitudeMeters>235.1999969482421875</AltitudeMeters>
            <DistanceMeters>NAN</DistanceMeters>
          </Trackpoint>
          <Trackpoint>
            <Time>2022-07-17T17:25:53.000Z</Time>
            <Position>
              <LatitudeDegrees>43.487106375396251678466796875</LatitudeDegrees>
              <LongitudeDegrees>-5.532606281340122222900390625</LongitudeDegrees>
            </Position>
            <AltitudeMeters>234.8000030517578125</AltitudeMeters>
            <DistanceMeters>NAN</DistanceMeters>
          </Trackpoint>
          <Trackpoint>
            <Time>2022-07-17T17:25:54.000Z</Time>
            <Position>
              <LatitudeDegrees>43.48710830323398113250732421875</LatitudeDegrees>
              <LongitudeDegrees>-5.532623045146465301513671875</LongitudeDegrees>
            </Position>
            <AltitudeMeters>234.600006103515625</AltitudeMeters>
            <DistanceMeters>NAN</DistanceMeters>
          </Trackpoint>
          <Trackpoint>
            <Time>2022-07-17T17:25:56.000Z</Time>
            <Position>
              <LatitudeDegrees>43.48714065738022327423095703125</LatitudeDegrees>
              <LongitudeDegrees>-5.53265296854078769683837890625</LongitudeDegrees>
            </Position>
            <AltitudeMeters>234</AltitudeMeters>
            <DistanceMeters>NAN</DistanceMeters>
          </Trackpoint>
          <Trackpoint>
            <Time>2022-07-17T17:25:57.000Z</Time>
            <Position>
              <LatitudeDegrees>43.48716462962329387664794921875</LatitudeDegrees>
              <LongitudeDegrees>-5.5326641164720058441162109375</LongitudeDegrees>
            </Position>
            <AltitudeMeters>234</AltitudeMeters>
            <DistanceMeters>NAN</DistanceMeters>
          </Trackpoint>
          <Trackpoint>
            <Time>2022-07-17T17:26:00.000Z</Time>
            <Position>
              <LatitudeDegrees>43.48731466569006443023681640625</LatitudeDegrees>
              <LongitudeDegrees>-5.53273938596248626708984375</LongitudeDegrees>
            </Position>
            <AltitudeMeters>233</AltitudeMeters>
            <DistanceMeters>NAN</DistanceMeters>
          </Trackpoint>
          <Trackpoint>
            <Time>2022-07-17T17:26:01.000Z</Time>
            <Position>
              <LatitudeDegrees>43.4873744286596775054931640625</LatitudeDegrees>
              <LongitudeDegrees>-5.53277165628969669342041015625</LongitudeDegrees>
            </Position>
            <AltitudeMeters>232.600006103515625</AltitudeMeters>
            <DistanceMeters>NAN</DistanceMeters>
          </Trackpoint>
          <Trackpoint>
            <Time>2022-07-17T17:26:03.000Z</Time>
            <Position>
              <LatitudeDegrees>43.48749085329473018646240234375</LatitudeDegrees>
              <LongitudeDegrees>-5.53285128436982631683349609375</LongitudeDegrees>
            </Position>
            <AltitudeMeters>231.399993896484375</AltitudeMeters>
            <DistanceMeters>NAN</DistanceMeters>
          </Trackpoint>
          <Trackpoint>
            <Time>2022-07-17T17:26:05.000Z</Time>
            <Position>
              <LatitudeDegrees>43.4876315854489803314208984375</LatitudeDegrees>
              <LongitudeDegrees>-5.5330044217407703399658203125</LongitudeDegrees>
            </Position>
            <AltitudeMeters>230.399993896484375</AltitudeMeters>
            <DistanceMeters>NAN</DistanceMeters>
          </Trackpoint>
          <Trackpoint>
            <Time>2022-07-17T17:26:06.000Z</Time>
            <Position>
              <LatitudeDegrees>43.4876882471144199371337890625</LatitudeDegrees>
              <LongitudeDegrees>-5.533095113933086395263671875</LongitudeDegrees>
            </Position>
            <AltitudeMeters>229.8000030517578125</AltitudeMeters>
            <DistanceMeters>NAN</DistanceMeters>
          </Trackpoint>
          <Trackpoint>
            <Time>2022-07-17T17:26:08.000Z</Time>
            <Position>
              <LatitudeDegrees>43.48778673447668552398681640625</LatitudeDegrees>
              <LongitudeDegrees>-5.5333068408071994781494140625</LongitudeDegrees>
            </Position>
            <AltitudeMeters>228.399993896484375</AltitudeMeters>
            <DistanceMeters>NAN</DistanceMeters>
          </Trackpoint>
          <Trackpoint>
            <Time>2022-07-17T17:26:09.000Z</Time>
            <Position>
              <LatitudeDegrees>43.48783132620155811309814453125</LatitudeDegrees>
              <LongitudeDegrees>-5.5334161408245563507080078125</LongitudeDegrees>
            </Position>
            <AltitudeMeters>227.600006103515625</AltitudeMeters>
            <DistanceMeters>NAN</DistanceMeters>
          </Trackpoint>
          <Trackpoint>
            <Time>2022-07-17T17:26:10.000Z</Time>
            <Position>
              <LatitudeDegrees>43.4878780134022235870361328125</LatitudeDegrees>
              <LongitudeDegrees>-5.5335157178342342376708984375</LongitudeDegrees>
            </Position>
            <AltitudeMeters>226.8000030517578125</AltitudeMeters>
            <DistanceMeters>NAN</DistanceMeters>
          </Trackpoint>
          <Trackpoint>
            <Time>2022-07-17T17:26:11.000Z</Time>
            <Position>
              <LatitudeDegrees>43.48793375305831432342529296875</LatitudeDegrees>
              <LongitudeDegrees>-5.5336102657020092010498046875</LongitudeDegrees>
            </Position>
            <AltitudeMeters>225.600006103515625</AltitudeMeters>
            <DistanceMeters>NAN</DistanceMeters>
          </Trackpoint>
          <Trackpoint>
            <Time>2022-07-17T17:26:12.000Z</Time>
            <Position>
              <LatitudeDegrees>43.488000221550464630126953125</LatitudeDegrees>
              <LongitudeDegrees>-5.5336974374949932098388671875</LongitudeDegrees>
            </Position>
            <AltitudeMeters>224.1999969482421875</AltitudeMeters>
            <DistanceMeters>NAN</DistanceMeters>
          </Trackpoint>
          <Trackpoint>
            <Time>2022-07-17T17:26:13.000Z</Time>
            <Position>
              <LatitudeDegrees>43.4880590625107288360595703125</LatitudeDegrees>
              <LongitudeDegrees>-5.53376491181552410125732421875</LongitudeDegrees>
            </Position>
            <AltitudeMeters>223.1999969482421875</AltitudeMeters>
            <DistanceMeters>NAN</DistanceMeters>
          </Trackpoint>
          <Trackpoint>
            <Time>2022-07-17T17:26:14.000Z</Time>
            <Position>
              <LatitudeDegrees>43.48814698867499828338623046875</LatitudeDegrees>
              <LongitudeDegrees>-5.53386666812002658843994140625</LongitudeDegrees>
            </Position>
            <AltitudeMeters>222.600006103515625</AltitudeMeters>
            <DistanceMeters>NAN</DistanceMeters>
          </Trackpoint>
          <Trackpoint>
            <Time>2022-07-17T17:26:15.000Z</Time>
            <Position>
              <LatitudeDegrees>43.48821890540421009063720703125</LatitudeDegrees>
              <LongitudeDegrees>-5.53394914604723453521728515625</LongitudeDegrees>
            </Position>
            <AltitudeMeters>221.600006103515625</AltitudeMeters>
            <DistanceMeters>NAN</DistanceMeters>
          </Trackpoint>
          <Trackpoint>
            <Time>2022-07-17T17:26:16.000Z</Time>
            <Position>
              <LatitudeDegrees>43.4882800094783306121826171875</LatitudeDegrees>
              <LongitudeDegrees>-5.53404335863888263702392578125</LongitudeDegrees>
            </Position>
            <AltitudeMeters>220.399993896484375</AltitudeMeters>
            <DistanceMeters>NAN</DistanceMeters>
          </Trackpoint>
          <Trackpoint>
            <Time>2022-07-17T17:26:17.000Z</Time>
            <Position>
              <LatitudeDegrees>43.4883232600986957550048828125</LatitudeDegrees>
              <LongitudeDegrees>-5.53415031172335147857666015625</LongitudeDegrees>
            </Position>
            <AltitudeMeters>219.1999969482421875</AltitudeMeters>
            <DistanceMeters>NAN</DistanceMeters>
          </Trackpoint>
          <Trackpoint>
            <Time>2022-07-17T17:26:18.000Z</Time>
            <Position>
              <LatitudeDegrees>43.48833524622023105621337890625</LatitudeDegrees>
              <LongitudeDegrees>-5.53424938581883907318115234375</LongitudeDegrees>
            </Position>
            <AltitudeMeters>218</AltitudeMeters>
            <DistanceMeters>NAN</DistanceMeters>
          </Trackpoint>
          <Trackpoint>
            <Time>2022-07-17T17:26:19.000Z</Time>
            <Position>
              <LatitudeDegrees>43.4883333183825016021728515625</LatitudeDegrees>
              <LongitudeDegrees>-5.53440864197909832000732421875</LongitudeDegrees>
            </Position>
            <AltitudeMeters>216.600006103515625</AltitudeMeters>
            <DistanceMeters>NAN</DistanceMeters>
          </Trackpoint>
          <Trackpoint>
            <Time>2022-07-17T17:26:20.000Z</Time>
            <Position>
              <LatitudeDegrees>43.48831797949969768524169921875</LatitudeDegrees>
              <LongitudeDegrees>-5.53455096669495105743408203125</LongitudeDegrees>
            </Position>
            <AltitudeMeters>215.600006103515625</AltitudeMeters>
            <DistanceMeters>NAN</DistanceMeters>
          </Trackpoint>
          <Trackpoint>
            <Time>2022-07-17T17:26:22.000Z</Time>
            <Position>
              <LatitudeDegrees>43.48828914575278759002685546875</LatitudeDegrees>
              <LongitudeDegrees>-5.534817762672901153564453125</LongitudeDegrees>
            </Position>
            <AltitudeMeters>214.399993896484375</AltitudeMeters>
            <DistanceMeters>NAN</DistanceMeters>
          </Trackpoint>
          <Trackpoint>
            <Time>2022-07-17T17:26:23.000Z</Time>
            <Position>
              <LatitudeDegrees>43.48828487098217010498046875</LatitudeDegrees>
              <LongitudeDegrees>-5.53496771492063999176025390625</LongitudeDegrees>
            </Position>
            <AltitudeMeters>213.8000030517578125</AltitudeMeters>
            <DistanceMeters>NAN</DistanceMeters>
          </Trackpoint>
          <Trackpoint>
            <Time>2022-07-17T17:26:24.000Z</Time>
            <Position>
              <LatitudeDegrees>43.48828361369669437408447265625</LatitudeDegrees>
              <LongitudeDegrees>-5.53511808626353740692138671875</LongitudeDegrees>
            </Position>
            <AltitudeMeters>212.8000030517578125</AltitudeMeters>
            <DistanceMeters>NAN</DistanceMeters>
          </Trackpoint>
          <Trackpoint>
            <Time>2022-07-17T17:26:25.000Z</Time>
            <Position>
              <LatitudeDegrees>43.48828780464828014373779296875</LatitudeDegrees>
              <LongitudeDegrees>-5.535259656608104705810546875</LongitudeDegrees>
            </Position>
            <AltitudeMeters>211.399993896484375</AltitudeMeters>
            <DistanceMeters>NAN</DistanceMeters>
          </Trackpoint>
          <Trackpoint>
            <Time>2022-07-17T17:26:26.000Z</Time>
            <Position>
              <LatitudeDegrees>43.48830138333141803741455078125</LatitudeDegrees>
              <LongitudeDegrees>-5.535421259701251983642578125</LongitudeDegrees>
            </Position>
            <AltitudeMeters>210.1999969482421875</AltitudeMeters>
            <DistanceMeters>NAN</DistanceMeters>
          </Trackpoint>
          <Trackpoint>
            <Time>2022-07-17T17:26:27.000Z</Time>
            <Position>
              <LatitudeDegrees>43.488319404423236846923828125</LatitudeDegrees>
              <LongitudeDegrees>-5.535515807569026947021484375</LongitudeDegrees>
            </Position>
            <AltitudeMeters>209</AltitudeMeters>
            <DistanceMeters>NAN</DistanceMeters>
          </Trackpoint>
          <Trackpoint>
            <Time>2022-07-17T17:26:28.000Z</Time>
            <Position>
              <LatitudeDegrees>43.4883554466068744659423828125</LatitudeDegrees>
              <LongitudeDegrees>-5.535628795623779296875</LongitudeDegrees>
            </Position>
            <AltitudeMeters>207.8000030517578125</AltitudeMeters>
            <DistanceMeters>NAN</DistanceMeters>
          </Trackpoint>
          <Trackpoint>
            <Time>2022-07-17T17:26:29.000Z</Time>
            <Position>
              <LatitudeDegrees>43.4884054027497768402099609375</LatitudeDegrees>
              <LongitudeDegrees>-5.535733737051486968994140625</LongitudeDegrees>
            </Position>
            <AltitudeMeters>206.8000030517578125</AltitudeMeters>
            <DistanceMeters>NAN</DistanceMeters>
          </Trackpoint>
          <Trackpoint>
            <Time>2022-07-17T17:26:30.000Z</Time>
            <Position>
              <LatitudeDegrees>43.48848335444927215576171875</LatitudeDegrees>
              <LongitudeDegrees>-5.5358378402888774871826171875</LongitudeDegrees>
            </Position>
            <AltitudeMeters>205.1999969482421875</AltitudeMeters>
            <DistanceMeters>NAN</DistanceMeters>
          </Trackpoint>
          <Trackpoint>
            <Time>2022-07-17T17:26:31.000Z</Time>
            <Position>
              <LatitudeDegrees>43.4885569475591182708740234375</LatitudeDegrees>
              <LongitudeDegrees>-5.53593314252793788909912109375</LongitudeDegrees>
            </Position>
            <AltitudeMeters>204.1999969482421875</AltitudeMeters>
            <DistanceMeters>NAN</DistanceMeters>
          </Trackpoint>
          <Trackpoint>
            <Time>2022-07-17T17:26:33.000Z</Time>
            <Position>
              <LatitudeDegrees>43.4887017868459224700927734375</LatitudeDegrees>
              <LongitudeDegrees>-5.536131374537944793701171875</LongitudeDegrees>
            </Position>
            <AltitudeMeters>202.600006103515625</AltitudeMeters>
            <DistanceMeters>NAN</DistanceMeters>
          </Trackpoint>
          <Trackpoint>
            <Time>2022-07-17T17:26:35.000Z</Time>
            <Position>
              <LatitudeDegrees>43.4888271801173686981201171875</LatitudeDegrees>
              <LongitudeDegrees>-5.53632977418601512908935546875</LongitudeDegrees>
            </Position>
            <AltitudeMeters>200.8000030517578125</AltitudeMeters>
            <DistanceMeters>NAN</DistanceMeters>
          </Trackpoint>
          <Trackpoint>
            <Time>2022-07-17T17:26:37.000Z</Time>
            <Position>
              <LatitudeDegrees>43.48897025920450687408447265625</LatitudeDegrees>
              <LongitudeDegrees>-5.5365823209285736083984375</LongitudeDegrees>
            </Position>
            <AltitudeMeters>198.600006103515625</AltitudeMeters>
            <DistanceMeters>NAN</DistanceMeters>
          </Trackpoint>
          <Trackpoint>
            <Time>2022-07-17T17:26:39.000Z</Time>
            <Position>
              <LatitudeDegrees>43.48910721950232982635498046875</LatitudeDegrees>
              <LongitudeDegrees>-5.53676160983741283416748046875</LongitudeDegrees>
            </Position>
            <AltitudeMeters>196.8000030517578125</AltitudeMeters>
            <DistanceMeters>NAN</DistanceMeters>
          </Trackpoint>
          <Trackpoint>
            <Time>2022-07-17T17:26:40.000Z</Time>
            <Position>
              <LatitudeDegrees>43.4891882725059986114501953125</LatitudeDegrees>
              <LongitudeDegrees>-5.53684693761169910430908203125</LongitudeDegrees>
            </Position>
            <AltitudeMeters>196</AltitudeMeters>
            <DistanceMeters>NAN</DistanceMeters>
          </Trackpoint>
          <Trackpoint>
            <Time>2022-07-17T17:26:41.000Z</Time>
            <Position>
              <LatitudeDegrees>43.48926949314773082733154296875</LatitudeDegrees>
              <LongitudeDegrees>-5.5369120649993419647216796875</LongitudeDegrees>
            </Position>
            <AltitudeMeters>195.399993896484375</AltitudeMeters>
            <DistanceMeters>NAN</DistanceMeters>
          </Trackpoint>
          <Trackpoint>
            <Time>2022-07-17T17:26:42.000Z</Time>
            <Position>
              <LatitudeDegrees>43.4893562458455562591552734375</LatitudeDegrees>
              <LongitudeDegrees>-5.53696244023740291595458984375</LongitudeDegrees>
            </Position>
            <AltitudeMeters>194</AltitudeMeters>
            <DistanceMeters>NAN</DistanceMeters>
          </Trackpoint>
          <Trackpoint>
            <Time>2022-07-17T17:26:43.000Z</Time>
            <Position>
              <LatitudeDegrees>43.4894531406462192535400390625</LatitudeDegrees>
              <LongitudeDegrees>-5.5369975604116916656494140625</LongitudeDegrees>
            </Position>
            <AltitudeMeters>193</AltitudeMeters>
            <DistanceMeters>NAN</DistanceMeters>
          </Trackpoint>
          <Trackpoint>
            <Time>2022-07-17T17:26:44.000Z</Time>
            <Position>
              <LatitudeDegrees>43.48955900408327579498291015625</LatitudeDegrees>
              <LongitudeDegrees>-5.537017174065113067626953125</LongitudeDegrees>
            </Position>
            <AltitudeMeters>192</AltitudeMeters>
            <DistanceMeters>NAN</DistanceMeters>
          </Trackpoint>
          <Trackpoint>
            <Time>2022-07-17T17:26:46.000Z</Time>
            <Position>
              <LatitudeDegrees>43.489795289933681488037109375</LatitudeDegrees>
              <LongitudeDegrees>-5.53706201724708080291748046875</LongitudeDegrees>
            </Position>
            <AltitudeMeters>190</AltitudeMeters>
            <DistanceMeters>NAN</DistanceMeters>
          </Trackpoint>
          <Trackpoint>
            <Time>2022-07-17T17:26:48.000Z</Time>
            <Position>
              <LatitudeDegrees>43.489992432296276092529296875</LatitudeDegrees>
              <LongitudeDegrees>-5.537111721932888031005859375</LongitudeDegrees>
            </Position>
            <AltitudeMeters>187.8000030517578125</AltitudeMeters>
            <DistanceMeters>NAN</DistanceMeters>
          </Trackpoint>
          <Trackpoint>
            <Time>2022-07-17T17:26:49.000Z</Time>
            <Position>
              <LatitudeDegrees>43.49011086858808994293212890625</LatitudeDegrees>
              <LongitudeDegrees>-5.53713309578597545623779296875</LongitudeDegrees>
            </Position>
            <AltitudeMeters>186.399993896484375</AltitudeMeters>
            <DistanceMeters>NAN</DistanceMeters>
          </Trackpoint>
          <Trackpoint>
            <Time>2022-07-17T17:26:50.000Z</Time>
            <Position>
              <LatitudeDegrees>43.49023106507956981658935546875</LatitudeDegrees>
              <LongitudeDegrees>-5.53716293536126613616943359375</LongitudeDegrees>
            </Position>
            <AltitudeMeters>185</AltitudeMeters>
            <DistanceMeters>NAN</DistanceMeters>
          </Trackpoint>
          <Trackpoint>
            <Time>2022-07-17T17:26:51.000Z</Time>
            <Position>
              <LatitudeDegrees>43.49035344086587429046630859375</LatitudeDegrees>
              <LongitudeDegrees>-5.5371992290019989013671875</LongitudeDegrees>
            </Position>
            <AltitudeMeters>183.600006103515625</AltitudeMeters>
            <DistanceMeters>NAN</DistanceMeters>
          </Trackpoint>
          <Trackpoint>
            <Time>2022-07-17T17:26:53.000Z</Time>
            <Position>
              <LatitudeDegrees>43.4906269423663616180419921875</LatitudeDegrees>
              <LongitudeDegrees>-5.537298135459423065185546875</LongitudeDegrees>
            </Position>
            <AltitudeMeters>182.1999969482421875</AltitudeMeters>
            <DistanceMeters>NAN</DistanceMeters>
          </Trackpoint>
          <Trackpoint>
            <Time>2022-07-17T17:26:54.000Z</Time>
            <Position>
              <LatitudeDegrees>43.490749485790729522705078125</LatitudeDegrees>
              <LongitudeDegrees>-5.5373509414494037628173828125</LongitudeDegrees>
            </Position>
            <AltitudeMeters>181.1999969482421875</AltitudeMeters>
            <DistanceMeters>NAN</DistanceMeters>
          </Trackpoint>
          <Trackpoint>
            <Time>2022-07-17T17:26:56.000Z</Time>
            <Position>
              <LatitudeDegrees>43.49096666090190410614013671875</LatitudeDegrees>
              <LongitudeDegrees>-5.53745278157293796539306640625</LongitudeDegrees>
            </Position>
            <AltitudeMeters>179.600006103515625</AltitudeMeters>
            <DistanceMeters>NAN</DistanceMeters>
          </Trackpoint>
          <Trackpoint>
            <Time>2022-07-17T17:26:57.000Z</Time>
            <Position>
              <LatitudeDegrees>43.491090796887874603271484375</LatitudeDegrees>
              <LongitudeDegrees>-5.53752235136926174163818359375</LongitudeDegrees>
            </Position>
            <AltitudeMeters>178.399993896484375</AltitudeMeters>
            <DistanceMeters>NAN</DistanceMeters>
          </Trackpoint>
          <Trackpoint>
            <Time>2022-07-17T17:26:58.000Z</Time>
            <Position>
              <LatitudeDegrees>43.4912401624023914337158203125</LatitudeDegrees>
              <LongitudeDegrees>-5.53759896196424961090087890625</LongitudeDegrees>
            </Position>
            <AltitudeMeters>177.1999969482421875</AltitudeMeters>
            <DistanceMeters>NAN</DistanceMeters>
          </Trackpoint>
          <Trackpoint>
            <Time>2022-07-17T17:26:59.000Z</Time>
            <Position>
              <LatitudeDegrees>43.4913625381886959075927734375</LatitudeDegrees>
              <LongitudeDegrees>-5.5376795120537281036376953125</LongitudeDegrees>
            </Position>
            <AltitudeMeters>176.399993896484375</AltitudeMeters>
            <DistanceMeters>NAN</DistanceMeters>
          </Trackpoint>
          <Trackpoint>
            <Time>2022-07-17T17:27:00.000Z</Time>
            <Position>
              <LatitudeDegrees>43.49148415960371494293212890625</LatitudeDegrees>
              <LongitudeDegrees>-5.53777179680764675140380859375</LongitudeDegrees>
            </Position>
            <AltitudeMeters>174.8000030517578125</AltitudeMeters>
            <DistanceMeters>NAN</DistanceMeters>
          </Trackpoint>
          <Trackpoint>
            <Time>2022-07-17T17:27:02.000Z</Time>
            <Position>
              <LatitudeDegrees>43.4917048551142215728759765625</LatitudeDegrees>
              <LongitudeDegrees>-5.53794530220329761505126953125</LongitudeDegrees>
            </Position>
            <AltitudeMeters>172.8000030517578125</AltitudeMeters>
            <DistanceMeters>NAN</DistanceMeters>
          </Trackpoint>
          <Trackpoint>
            <Time>2022-07-17T17:27:03.000Z</Time>
            <Position>
              <LatitudeDegrees>43.4918490238487720489501953125</LatitudeDegrees>
              <LongitudeDegrees>-5.53805527277290821075439453125</LongitudeDegrees>
            </Position>
            <AltitudeMeters>171.399993896484375</AltitudeMeters>
            <DistanceMeters>NAN</DistanceMeters>
          </Trackpoint>
          <Trackpoint>
            <Time>2022-07-17T17:27:05.000Z</Time>
            <Position>
              <LatitudeDegrees>43.49208019673824310302734375</LatitudeDegrees>
              <LongitudeDegrees>-5.53820949979126453399658203125</LongitudeDegrees>
            </Position>
            <AltitudeMeters>169.600006103515625</AltitudeMeters>
            <DistanceMeters>NAN</DistanceMeters>
          </Trackpoint>
          <Trackpoint>
            <Time>2022-07-17T17:27:06.000Z</Time>
            <Position>
              <LatitudeDegrees>43.49215932190418243408203125</LatitudeDegrees>
              <LongitudeDegrees>-5.53825392387807369232177734375</LongitudeDegrees>
            </Position>
            <AltitudeMeters>168.399993896484375</AltitudeMeters>
            <DistanceMeters>NAN</DistanceMeters>
          </Trackpoint>
          <Trackpoint>
            <Time>2022-07-17T17:27:07.000Z</Time>
            <Position>
              <LatitudeDegrees>43.49225311540067195892333984375</LatitudeDegrees>
              <LongitudeDegrees>-5.5382927320897579193115234375</LongitudeDegrees>
            </Position>
            <AltitudeMeters>167.600006103515625</AltitudeMeters>
            <DistanceMeters>NAN</DistanceMeters>
          </Trackpoint>
          <Trackpoint>
            <Time>2022-07-17T17:27:08.000Z</Time>
            <Position>
              <LatitudeDegrees>43.4923423826694488525390625</LatitudeDegrees>
              <LongitudeDegrees>-5.53831544704735279083251953125</LongitudeDegrees>
            </Position>
            <AltitudeMeters>166.399993896484375</AltitudeMeters>
            <DistanceMeters>NAN</DistanceMeters>
          </Trackpoint>
          <Trackpoint>
            <Time>2022-07-17T17:27:10.000Z</Time>
            <Position>
              <LatitudeDegrees>43.49244363605976104736328125</LatitudeDegrees>
              <LongitudeDegrees>-5.53831662051379680633544921875</LongitudeDegrees>
            </Position>
            <AltitudeMeters>164.399993896484375</AltitudeMeters>
            <DistanceMeters>NAN</DistanceMeters>
          </Trackpoint>
          <Trackpoint>
            <Time>2022-07-17T17:27:11.000Z</Time>
            <Position>
              <LatitudeDegrees>43.49246216006577014923095703125</LatitudeDegrees>
              <LongitudeDegrees>-5.5383101664483547210693359375</LongitudeDegrees>
            </Position>
            <AltitudeMeters>163.399993896484375</AltitudeMeters>
            <DistanceMeters>NAN</DistanceMeters>
          </Trackpoint>
          <Trackpoint>
            <Time>2022-07-17T17:27:12.000Z</Time>
            <Position>
              <LatitudeDegrees>43.492465429008007049560546875</LatitudeDegrees>
              <LongitudeDegrees>-5.53831108845770359039306640625</LongitudeDegrees>
            </Position>
            <AltitudeMeters>162.399993896484375</AltitudeMeters>
            <DistanceMeters>NAN</DistanceMeters>
          </Trackpoint>
          <Trackpoint>
            <Time>2022-07-17T17:27:14.000Z</Time>
            <Position>
              <LatitudeDegrees>43.492465429008007049560546875</LatitudeDegrees>
              <LongitudeDegrees>-5.53831108845770359039306640625</LongitudeDegrees>
            </Position>
            <AltitudeMeters>161.399993896484375</AltitudeMeters>
            <DistanceMeters>NAN</DistanceMeters>
          </Trackpoint>
          <Trackpoint>
            <Time>2022-07-17T17:27:46.000Z</Time>
            <Position>
              <LatitudeDegrees>43.4924746491014957427978515625</LatitudeDegrees>
              <LongitudeDegrees>-5.5383366532623767852783203125</LongitudeDegrees>
            </Position>
            <AltitudeMeters>160.1999969482421875</AltitudeMeters>
            <DistanceMeters>NAN</DistanceMeters>
          </Trackpoint>
          <Trackpoint>
            <Time>2022-07-17T17:27:48.000Z</Time>
            <Position>
              <LatitudeDegrees>43.49248143844306468963623046875</LatitudeDegrees>
              <LongitudeDegrees>-5.53841016255319118499755859375</LongitudeDegrees>
            </Position>
            <AltitudeMeters>160</AltitudeMeters>
            <DistanceMeters>NAN</DistanceMeters>
          </Trackpoint>
          <Trackpoint>
            <Time>2022-07-17T17:27:49.000Z</Time>
            <Position>
              <LatitudeDegrees>43.4924682788550853729248046875</LatitudeDegrees>
              <LongitudeDegrees>-5.538456849753856658935546875</LongitudeDegrees>
            </Position>
            <AltitudeMeters>160</AltitudeMeters>
            <DistanceMeters>NAN</DistanceMeters>
          </Trackpoint>
          <Trackpoint>
            <Time>2022-07-17T17:27:51.000Z</Time>
            <Position>
              <LatitudeDegrees>43.49240164272487163543701171875</LatitudeDegrees>
              <LongitudeDegrees>-5.5385099910199642181396484375</LongitudeDegrees>
            </Position>
            <AltitudeMeters>159.8000030517578125</AltitudeMeters>
            <DistanceMeters>NAN</DistanceMeters>
          </Trackpoint>
          <Trackpoint>
            <Time>2022-07-17T17:27:52.000Z</Time>
            <Position>
              <LatitudeDegrees>43.49235537461936473846435546875</LatitudeDegrees>
              <LongitudeDegrees>-5.53851149976253509521484375</LongitudeDegrees>
            </Position>
            <AltitudeMeters>159.1999969482421875</AltitudeMeters>
            <DistanceMeters>NAN</DistanceMeters>
          </Trackpoint>
          <Trackpoint>
            <Time>2022-07-17T17:27:53.000Z</Time>
            <Position>
              <LatitudeDegrees>43.49230659194290637969970703125</LatitudeDegrees>
              <LongitudeDegrees>-5.53849850781261920928955078125</LongitudeDegrees>
            </Position>
            <AltitudeMeters>159</AltitudeMeters>
            <DistanceMeters>NAN</DistanceMeters>
          </Trackpoint>
          <Trackpoint>
            <Time>2022-07-17T17:27:54.000Z</Time>
            <Position>
              <LatitudeDegrees>43.492256887257099151611328125</LatitudeDegrees>
              <LongitudeDegrees>-5.5384791456162929534912109375</LongitudeDegrees>
            </Position>
            <AltitudeMeters>158.8000030517578125</AltitudeMeters>
            <DistanceMeters>NAN</DistanceMeters>
          </Trackpoint>
          <Trackpoint>
            <Time>2022-07-17T17:27:59.000Z</Time>
            <Position>
              <LatitudeDegrees>43.49196352064609527587890625</LatitudeDegrees>
              <LongitudeDegrees>-5.53834578953683376312255859375</LongitudeDegrees>
            </Position>
            <AltitudeMeters>158.399993896484375</AltitudeMeters>
            <DistanceMeters>NAN</DistanceMeters>
          </Trackpoint>
          <Trackpoint>
            <Time>2022-07-17T17:28:00.000Z</Time>
            <Position>
              <LatitudeDegrees>43.4918962977826595306396484375</LatitudeDegrees>
              <LongitudeDegrees>-5.5383148603141307830810546875</LongitudeDegrees>
            </Position>
            <AltitudeMeters>158.1999969482421875</AltitudeMeters>
            <DistanceMeters>NAN</DistanceMeters>
          </Trackpoint>
          <Trackpoint>
            <Time>2022-07-17T17:28:03.000Z</Time>
            <Position>
              <LatitudeDegrees>43.49168683402240276336669921875</LatitudeDegrees>
              <LongitudeDegrees>-5.53821855224668979644775390625</LongitudeDegrees>
            </Position>
            <AltitudeMeters>158</AltitudeMeters>
            <DistanceMeters>NAN</DistanceMeters>
          </Trackpoint>
          <Trackpoint>
            <Time>2022-07-17T17:28:04.000Z</Time>
            <Position>
              <LatitudeDegrees>43.49160904996097087860107421875</LatitudeDegrees>
              <LongitudeDegrees>-5.538189969956874847412109375</LongitudeDegrees>
            </Position>
            <AltitudeMeters>157.600006103515625</AltitudeMeters>
            <DistanceMeters>NAN</DistanceMeters>
          </Trackpoint>
          <Trackpoint>
            <Time>2022-07-17T17:28:05.000Z</Time>
            <Position>
              <LatitudeDegrees>43.491530008614063262939453125</LatitudeDegrees>
              <LongitudeDegrees>-5.53816675208508968353271484375</LongitudeDegrees>
            </Position>
            <AltitudeMeters>157.1999969482421875</AltitudeMeters>
            <DistanceMeters>NAN</DistanceMeters>
          </Trackpoint>
          <Trackpoint>
            <Time>2022-07-17T17:28:06.000Z</Time>
            <Position>
              <LatitudeDegrees>43.49144577048718929290771484375</LatitudeDegrees>
              <LongitudeDegrees>-5.5381388403475284576416015625</LongitudeDegrees>
            </Position>
            <AltitudeMeters>156.399993896484375</AltitudeMeters>
            <DistanceMeters>NAN</DistanceMeters>
          </Trackpoint>
          <Trackpoint>
            <Time>2022-07-17T17:28:08.000Z</Time>
            <Position>
              <LatitudeDegrees>43.491253741085529327392578125</LatitudeDegrees>
              <LongitudeDegrees>-5.53809097968041896820068359375</LongitudeDegrees>
            </Position>
            <AltitudeMeters>155.399993896484375</AltitudeMeters>
            <DistanceMeters>NAN</DistanceMeters>
          </Trackpoint>
          <Trackpoint>
            <Time>2022-07-17T17:28:10.000Z</Time>
            <Position>
              <LatitudeDegrees>43.49105919711291790008544921875</LatitudeDegrees>
              <LongitudeDegrees>-5.5380979366600513458251953125</LongitudeDegrees>
            </Position>
            <AltitudeMeters>154.1999969482421875</AltitudeMeters>
            <DistanceMeters>NAN</DistanceMeters>
          </Trackpoint>
          <Trackpoint>
            <Time>2022-07-17T17:28:12.000Z</Time>
            <Position>
              <LatitudeDegrees>43.49085568450391292572021484375</LatitudeDegrees>
              <LongitudeDegrees>-5.5381237529218196868896484375</LongitudeDegrees>
            </Position>
            <AltitudeMeters>152.600006103515625</AltitudeMeters>
            <DistanceMeters>NAN</DistanceMeters>
          </Trackpoint>
          <Trackpoint>
            <Time>2022-07-17T17:28:13.000Z</Time>
            <Position>
              <LatitudeDegrees>43.49075878970324993133544921875</LatitudeDegrees>
              <LongitudeDegrees>-5.5381334759294986724853515625</LongitudeDegrees>
            </Position>
            <AltitudeMeters>151.1999969482421875</AltitudeMeters>
            <DistanceMeters>NAN</DistanceMeters>
          </Trackpoint>
          <Trackpoint>
            <Time>2022-07-17T17:28:14.000Z</Time>
            <Position>
              <LatitudeDegrees>43.49066625349223613739013671875</LatitudeDegrees>
              <LongitudeDegrees>-5.53813959471881389617919921875</LongitudeDegrees>
            </Position>
            <AltitudeMeters>150.1999969482421875</AltitudeMeters>
            <DistanceMeters>NAN</DistanceMeters>
          </Trackpoint>
          <Trackpoint>
            <Time>2022-07-17T17:28:15.000Z</Time>
            <Position>
              <LatitudeDegrees>43.49058394320309162139892578125</LatitudeDegrees>
              <LongitudeDegrees>-5.53815065883100032806396484375</LongitudeDegrees>
            </Position>
            <AltitudeMeters>149.399993896484375</AltitudeMeters>
            <DistanceMeters>NAN</DistanceMeters>
          </Trackpoint>
          <Trackpoint>
            <Time>2022-07-17T17:28:16.000Z</Time>
            <Position>
              <LatitudeDegrees>43.4905089251697063446044921875</LatitudeDegrees>
              <LongitudeDegrees>-5.5381733737885951995849609375</LongitudeDegrees>
            </Position>
            <AltitudeMeters>148.1999969482421875</AltitudeMeters>
            <DistanceMeters>NAN</DistanceMeters>
          </Trackpoint>
          <Trackpoint>
            <Time>2022-07-17T17:28:17.000Z</Time>
            <Position>
              <LatitudeDegrees>43.49044631235301494598388671875</LatitudeDegrees>
              <LongitudeDegrees>-5.53822609595954418182373046875</LongitudeDegrees>
            </Position>
            <AltitudeMeters>147</AltitudeMeters>
            <DistanceMeters>NAN</DistanceMeters>
          </Trackpoint>
          <Trackpoint>
            <Time>2022-07-17T17:28:19.000Z</Time>
            <Position>
              <LatitudeDegrees>43.49038059823215007781982421875</LatitudeDegrees>
              <LongitudeDegrees>-5.53840647451579570770263671875</LongitudeDegrees>
            </Position>
            <AltitudeMeters>145.600006103515625</AltitudeMeters>
            <DistanceMeters>NAN</DistanceMeters>
          </Trackpoint>
          <Trackpoint>
            <Time>2022-07-17T17:28:20.000Z</Time>
            <Position>
              <LatitudeDegrees>43.4903768263757228851318359375</LatitudeDegrees>
              <LongitudeDegrees>-5.53851594217121601104736328125</LongitudeDegrees>
            </Position>
            <AltitudeMeters>145</AltitudeMeters>
            <DistanceMeters>NAN</DistanceMeters>
          </Trackpoint>
          <Trackpoint>
            <Time>2022-07-17T17:28:21.000Z</Time>
            <Position>
              <LatitudeDegrees>43.4903798438608646392822265625</LatitudeDegrees>
              <LongitudeDegrees>-5.5386182852089405059814453125</LongitudeDegrees>
            </Position>
            <AltitudeMeters>144.399993896484375</AltitudeMeters>
            <DistanceMeters>NAN</DistanceMeters>
          </Trackpoint>
          <Trackpoint>
            <Time>2022-07-17T17:28:22.000Z</Time>
            <Position>
              <LatitudeDegrees>43.490374982357025146484375</LatitudeDegrees>
              <LongitudeDegrees>-5.5387131683528423309326171875</LongitudeDegrees>
            </Position>
            <AltitudeMeters>143.600006103515625</AltitudeMeters>
            <DistanceMeters>NAN</DistanceMeters>
          </Trackpoint>
          <Trackpoint>
            <Time>2022-07-17T17:28:23.000Z</Time>
            <Position>
              <LatitudeDegrees>43.49035075865685939788818359375</LatitudeDegrees>
              <LongitudeDegrees>-5.5388020165264606475830078125</LongitudeDegrees>
            </Position>
            <AltitudeMeters>142.600006103515625</AltitudeMeters>
            <DistanceMeters>NAN</DistanceMeters>
          </Trackpoint>
          <Trackpoint>
            <Time>2022-07-17T17:28:24.000Z</Time>
            <Position>
              <LatitudeDegrees>43.49029795266687870025634765625</LatitudeDegrees>
              <LongitudeDegrees>-5.53889262489974498748779296875</LongitudeDegrees>
            </Position>
            <AltitudeMeters>142</AltitudeMeters>
            <DistanceMeters>NAN</DistanceMeters>
          </Trackpoint>
          <Trackpoint>
            <Time>2022-07-17T17:28:25.000Z</Time>
            <Position>
              <LatitudeDegrees>43.49024020135402679443359375</LatitudeDegrees>
              <LongitudeDegrees>-5.53896605037152767181396484375</LongitudeDegrees>
            </Position>
            <AltitudeMeters>141.399993896484375</AltitudeMeters>
            <DistanceMeters>NAN</DistanceMeters>
          </Trackpoint>
          <Trackpoint>
            <Time>2022-07-17T17:28:27.000Z</Time>
            <Position>
              <LatitudeDegrees>43.49010835401713848114013671875</LatitudeDegrees>
              <LongitudeDegrees>-5.53909488022327423095703125</LongitudeDegrees>
            </Position>
            <AltitudeMeters>140.1999969482421875</AltitudeMeters>
            <DistanceMeters>NAN</DistanceMeters>
          </Trackpoint>
          <Trackpoint>
            <Time>2022-07-17T17:28:28.000Z</Time>
            <Position>
              <LatitudeDegrees>43.49002738483250141143798828125</LatitudeDegrees>
              <LongitudeDegrees>-5.539146177470684051513671875</LongitudeDegrees>
            </Position>
            <AltitudeMeters>139.8000030517578125</AltitudeMeters>
            <DistanceMeters>NAN</DistanceMeters>
          </Trackpoint>
          <Trackpoint>
            <Time>2022-07-17T17:28:29.000Z</Time>
            <Position>
              <LatitudeDegrees>43.48993836902081966400146484375</LatitudeDegrees>
              <LongitudeDegrees>-5.53918205201625823974609375</LongitudeDegrees>
            </Position>
            <AltitudeMeters>139.1999969482421875</AltitudeMeters>
            <DistanceMeters>NAN</DistanceMeters>
          </Trackpoint>
          <Trackpoint>
            <Time>2022-07-17T17:28:31.000Z</Time>
            <Position>
              <LatitudeDegrees>43.4897683002054691314697265625</LatitudeDegrees>
              <LongitudeDegrees>-5.539190433919429779052734375</LongitudeDegrees>
            </Position>
            <AltitudeMeters>138.399993896484375</AltitudeMeters>
            <DistanceMeters>NAN</DistanceMeters>
          </Trackpoint>
          <Trackpoint>
            <Time>2022-07-17T17:28:32.000Z</Time>
            <Position>
              <LatitudeDegrees>43.48967433907091617584228515625</LatitudeDegrees>
              <LongitudeDegrees>-5.5391745083034038543701171875</LongitudeDegrees>
            </Position>
            <AltitudeMeters>137.8000030517578125</AltitudeMeters>
            <DistanceMeters>NAN</DistanceMeters>
          </Trackpoint>
          <Trackpoint>
            <Time>2022-07-17T17:28:34.000Z</Time>
            <Position>
              <LatitudeDegrees>43.48946680314838886260986328125</LatitudeDegrees>
              <LongitudeDegrees>-5.53910384885966777801513671875</LongitudeDegrees>
            </Position>
            <AltitudeMeters>136.600006103515625</AltitudeMeters>
            <DistanceMeters>NAN</DistanceMeters>
          </Trackpoint>
          <Trackpoint>
            <Time>2022-07-17T17:28:35.000Z</Time>
            <Position>
              <LatitudeDegrees>43.48937653005123138427734375</LatitudeDegrees>
              <LongitudeDegrees>-5.53907233290374279022216796875</LongitudeDegrees>
            </Position>
            <AltitudeMeters>136.1999969482421875</AltitudeMeters>
            <DistanceMeters>NAN</DistanceMeters>
          </Trackpoint>
          <Trackpoint>
            <Time>2022-07-17T17:28:37.000Z</Time>
            <Position>
              <LatitudeDegrees>43.4892003424465656280517578125</LatitudeDegrees>
              <LongitudeDegrees>-5.5390434153378009796142578125</LongitudeDegrees>
            </Position>
            <AltitudeMeters>135.1999969482421875</AltitudeMeters>
            <DistanceMeters>NAN</DistanceMeters>
          </Trackpoint>
          <Trackpoint>
            <Time>2022-07-17T17:28:39.000Z</Time>
            <Position>
              <LatitudeDegrees>43.48897419869899749755859375</LatitudeDegrees>
              <LongitudeDegrees>-5.5390338599681854248046875</LongitudeDegrees>
            </Position>
            <AltitudeMeters>134.399993896484375</AltitudeMeters>
            <DistanceMeters>NAN</DistanceMeters>
          </Trackpoint>
          <Trackpoint>
            <Time>2022-07-17T17:28:40.000Z</Time>
            <Position>
              <LatitudeDegrees>43.48886447958648204803466796875</LatitudeDegrees>
              <LongitudeDegrees>-5.53904056549072265625</LongitudeDegrees>
            </Position>
            <AltitudeMeters>133.600006103515625</AltitudeMeters>
            <DistanceMeters>NAN</DistanceMeters>
          </Trackpoint>
          <Trackpoint>
            <Time>2022-07-17T17:28:41.000Z</Time>
            <Position>
              <LatitudeDegrees>43.4887562692165374755859375</LatitudeDegrees>
              <LongitudeDegrees>-5.539047606289386749267578125</LongitudeDegrees>
            </Position>
            <AltitudeMeters>132.399993896484375</AltitudeMeters>
            <DistanceMeters>NAN</DistanceMeters>
          </Trackpoint>
          <Trackpoint>
            <Time>2022-07-17T17:28:43.000Z</Time>
            <Position>
              <LatitudeDegrees>43.4885609708726406097412109375</LatitudeDegrees>
              <LongitudeDegrees>-5.53906378336250782012939453125</LongitudeDegrees>
            </Position>
            <AltitudeMeters>130.8000030517578125</AltitudeMeters>
            <DistanceMeters>NAN</DistanceMeters>
          </Trackpoint>
          <Trackpoint>
            <Time>2022-07-17T17:28:45.000Z</Time>
            <Position>
              <LatitudeDegrees>43.4883018024265766143798828125</LatitudeDegrees>
              <LongitudeDegrees>-5.539087168872356414794921875</LongitudeDegrees>
            </Position>
            <AltitudeMeters>128.600006103515625</AltitudeMeters>
            <DistanceMeters>NAN</DistanceMeters>
          </Trackpoint>
          <Trackpoint>
            <Time>2022-07-17T17:28:47.000Z</Time>
            <Position>
              <LatitudeDegrees>43.4880857169628143310546875</LatitudeDegrees>
              <LongitudeDegrees>-5.5391089618206024169921875</LongitudeDegrees>
            </Position>
            <AltitudeMeters>127.1999969482421875</AltitudeMeters>
            <DistanceMeters>NAN</DistanceMeters>
          </Trackpoint>
          <Trackpoint>
            <Time>2022-07-17T17:28:48.000Z</Time>
            <Position>
              <LatitudeDegrees>43.4879524447023868560791015625</LatitudeDegrees>
              <LongitudeDegrees>-5.5391265638172626495361328125</LongitudeDegrees>
            </Position>
            <AltitudeMeters>125.59999847412109375</AltitudeMeters>
            <DistanceMeters>NAN</DistanceMeters>
          </Trackpoint>
          <Trackpoint>
            <Time>2022-07-17T17:28:49.000Z</Time>
            <Position>
              <LatitudeDegrees>43.4878711402416229248046875</LatitudeDegrees>
              <LongitudeDegrees>-5.53914106450974941253662109375</LongitudeDegrees>
            </Position>
            <AltitudeMeters>124.8000030517578125</AltitudeMeters>
            <DistanceMeters>NAN</DistanceMeters>
          </Trackpoint>
          <Trackpoint>
            <Time>2022-07-17T17:28:50.000Z</Time>
            <Position>
              <LatitudeDegrees>43.48776376806199550628662109375</LatitudeDegrees>
              <LongitudeDegrees>-5.53916394710540771484375</LongitudeDegrees>
            </Position>
            <AltitudeMeters>124.1999969482421875</AltitudeMeters>
            <DistanceMeters>NAN</DistanceMeters>
          </Trackpoint>
          <Trackpoint>
            <Time>2022-07-17T17:28:51.000Z</Time>
            <Position>
              <LatitudeDegrees>43.4876902587711811065673828125</LatitudeDegrees>
              <LongitudeDegrees>-5.5391952954232692718505859375</LongitudeDegrees>
            </Position>
            <AltitudeMeters>123</AltitudeMeters>
            <DistanceMeters>NAN</DistanceMeters>
          </Trackpoint>
          <Trackpoint>
            <Time>2022-07-17T17:28:52.000Z</Time>
            <Position>
              <LatitudeDegrees>43.48762907087802886962890625</LatitudeDegrees>
              <LongitudeDegrees>-5.5392459221184253692626953125</LongitudeDegrees>
            </Position>
            <AltitudeMeters>121.8000030517578125</AltitudeMeters>
            <DistanceMeters>NAN</DistanceMeters>
          </Trackpoint>
          <Trackpoint>
            <Time>2022-07-17T17:28:53.000Z</Time>
            <Position>
              <LatitudeDegrees>43.48759009502828121185302734375</LatitudeDegrees>
              <LongitudeDegrees>-5.53930585272610187530517578125</LongitudeDegrees>
            </Position>
            <AltitudeMeters>120.40000152587890625</AltitudeMeters>
            <DistanceMeters>NAN</DistanceMeters>
          </Trackpoint>
          <Trackpoint>
            <Time>2022-07-17T17:28:54.000Z</Time>
            <Position>
              <LatitudeDegrees>43.4875497780740261077880859375</LatitudeDegrees>
              <LongitudeDegrees>-5.53939855657517910003662109375</LongitudeDegrees>
            </Position>
            <AltitudeMeters>119.1999969482421875</AltitudeMeters>
            <DistanceMeters>NAN</DistanceMeters>
          </Trackpoint>
          <Trackpoint>
            <Time>2022-07-17T17:28:56.000Z</Time>
            <Position>
              <LatitudeDegrees>43.487508706748485565185546875</LatitudeDegrees>
              <LongitudeDegrees>-5.5396231077611446380615234375</LongitudeDegrees>
            </Position>
            <AltitudeMeters>118</AltitudeMeters>
            <DistanceMeters>NAN</DistanceMeters>
          </Trackpoint>
          <Trackpoint>
            <Time>2022-07-17T17:28:57.000Z</Time>
            <Position>
              <LatitudeDegrees>43.4875088743865489959716796875</LatitudeDegrees>
              <LongitudeDegrees>-5.53974674083292484283447265625</LongitudeDegrees>
            </Position>
            <AltitudeMeters>117.59999847412109375</AltitudeMeters>
            <DistanceMeters>NAN</DistanceMeters>
          </Trackpoint>
          <Trackpoint>
            <Time>2022-07-17T17:28:58.000Z</Time>
            <Position>
              <LatitudeDegrees>43.4875253029167652130126953125</LatitudeDegrees>
              <LongitudeDegrees>-5.53987766616046428680419921875</LongitudeDegrees>
            </Position>
            <AltitudeMeters>116.8000030517578125</AltitudeMeters>
            <DistanceMeters>NAN</DistanceMeters>
          </Trackpoint>
          <Trackpoint>
            <Time>2022-07-17T17:29:00.000Z</Time>
            <Position>
              <LatitudeDegrees>43.48759193904697895050048828125</LatitudeDegrees>
              <LongitudeDegrees>-5.540129877626895904541015625</LongitudeDegrees>
            </Position>
            <AltitudeMeters>115.40000152587890625</AltitudeMeters>
            <DistanceMeters>NAN</DistanceMeters>
          </Trackpoint>
          <Trackpoint>
            <Time>2022-07-17T17:29:01.000Z</Time>
            <Position>
              <LatitudeDegrees>43.48763267509639263153076171875</LatitudeDegrees>
              <LongitudeDegrees>-5.5402416922152042388916015625</LongitudeDegrees>
            </Position>
            <AltitudeMeters>114.59999847412109375</AltitudeMeters>
            <DistanceMeters>NAN</DistanceMeters>
          </Trackpoint>
          <Trackpoint>
            <Time>2022-07-17T17:29:02.000Z</Time>
            <Position>
              <LatitudeDegrees>43.487676344811916351318359375</LatitudeDegrees>
              <LongitudeDegrees>-5.5403412692248821258544921875</LongitudeDegrees>
            </Position>
            <AltitudeMeters>113</AltitudeMeters>
            <DistanceMeters>NAN</DistanceMeters>
          </Trackpoint>
          <Trackpoint>
            <Time>2022-07-17T17:29:04.000Z</Time>
            <Position>
              <LatitudeDegrees>43.4877502731978893280029296875</LatitudeDegrees>
              <LongitudeDegrees>-5.54052944295108318328857421875</LongitudeDegrees>
            </Position>
            <AltitudeMeters>111.40000152587890625</AltitudeMeters>
            <DistanceMeters>NAN</DistanceMeters>
          </Trackpoint>
          <Trackpoint>
            <Time>2022-07-17T17:29:06.000Z</Time>
            <Position>
              <LatitudeDegrees>43.48779377527534961700439453125</LatitudeDegrees>
              <LongitudeDegrees>-5.54072557948529720306396484375</LongitudeDegrees>
            </Position>
            <AltitudeMeters>109.8000030517578125</AltitudeMeters>
            <DistanceMeters>NAN</DistanceMeters>
          </Trackpoint>
          <Trackpoint>
            <Time>2022-07-17T17:29:07.000Z</Time>
            <Position>
              <LatitudeDegrees>43.48781020380556583404541015625</LatitudeDegrees>
              <LongitudeDegrees>-5.54082951508462429046630859375</LongitudeDegrees>
            </Position>
            <AltitudeMeters>109.1999969482421875</AltitudeMeters>
            <DistanceMeters>NAN</DistanceMeters>
          </Trackpoint>
          <Trackpoint>
            <Time>2022-07-17T17:29:08.000Z</Time>
            <Position>
              <LatitudeDegrees>43.48782462067902088165283203125</LatitudeDegrees>
              <LongitudeDegrees>-5.5409337021410465240478515625</LongitudeDegrees>
            </Position>
            <AltitudeMeters>108.8000030517578125</AltitudeMeters>
            <DistanceMeters>NAN</DistanceMeters>
          </Trackpoint>
          <Trackpoint>
            <Time>2022-07-17T17:29:09.000Z</Time>
            <Position>
              <LatitudeDegrees>43.4878389537334442138671875</LatitudeDegrees>
              <LongitudeDegrees>-5.54104023613035678863525390625</LongitudeDegrees>
            </Position>
            <AltitudeMeters>108.1999969482421875</AltitudeMeters>
            <DistanceMeters>NAN</DistanceMeters>
          </Trackpoint>
          <Trackpoint>
            <Time>2022-07-17T17:29:11.000Z</Time>
            <Position>
              <LatitudeDegrees>43.48786904476583003997802734375</LatitudeDegrees>
              <LongitudeDegrees>-5.54122882895171642303466796875</LongitudeDegrees>
            </Position>
            <AltitudeMeters>106.8000030517578125</AltitudeMeters>
            <DistanceMeters>NAN</DistanceMeters>
          </Trackpoint>
          <Trackpoint>
            <Time>2022-07-17T17:29:12.000Z</Time>
            <Position>
              <LatitudeDegrees>43.48789033479988574981689453125</LatitudeDegrees>
              <LongitudeDegrees>-5.541319437325000762939453125</LongitudeDegrees>
            </Position>
            <AltitudeMeters>105.59999847412109375</AltitudeMeters>
            <DistanceMeters>NAN</DistanceMeters>
          </Trackpoint>
          <Trackpoint>
            <Time>2022-07-17T17:29:14.000Z</Time>
            <Position>
              <LatitudeDegrees>43.4879678674042224884033203125</LatitudeDegrees>
              <LongitudeDegrees>-5.54149143397808074951171875</LongitudeDegrees>
            </Position>
            <AltitudeMeters>104.1999969482421875</AltitudeMeters>
            <DistanceMeters>NAN</DistanceMeters>
          </Trackpoint>
          <Trackpoint>
            <Time>2022-07-17T17:29:16.000Z</Time>
            <Position>
              <LatitudeDegrees>43.48810373805463314056396484375</LatitudeDegrees>
              <LongitudeDegrees>-5.54164825938642024993896484375</LongitudeDegrees>
            </Position>
            <AltitudeMeters>103.59999847412109375</AltitudeMeters>
            <DistanceMeters>NAN</DistanceMeters>
          </Trackpoint>
          <Trackpoint>
            <Time>2022-07-17T17:29:17.000Z</Time>
            <Position>
              <LatitudeDegrees>43.488180600106716156005859375</LatitudeDegrees>
              <LongitudeDegrees>-5.54171003401279449462890625</LongitudeDegrees>
            </Position>
            <AltitudeMeters>103.1999969482421875</AltitudeMeters>
            <DistanceMeters>NAN</DistanceMeters>
          </Trackpoint>
          <Trackpoint>
            <Time>2022-07-17T17:29:18.000Z</Time>
            <Position>
              <LatitudeDegrees>43.48825980909168720245361328125</LatitudeDegrees>
              <LongitudeDegrees>-5.5417611636221408843994140625</LongitudeDegrees>
            </Position>
            <AltitudeMeters>102.59999847412109375</AltitudeMeters>
            <DistanceMeters>NAN</DistanceMeters>
          </Trackpoint>
          <Trackpoint>
            <Time>2022-07-17T17:29:21.000Z</Time>
            <Position>
              <LatitudeDegrees>43.48849584348499774932861328125</LatitudeDegrees>
              <LongitudeDegrees>-5.54189519025385379791259765625</LongitudeDegrees>
            </Position>
            <AltitudeMeters>101.40000152587890625</AltitudeMeters>
            <DistanceMeters>NAN</DistanceMeters>
          </Trackpoint>
          <Trackpoint>
            <Time>2022-07-17T17:29:23.000Z</Time>
            <Position>
              <LatitudeDegrees>43.48864965140819549560546875</LatitudeDegrees>
              <LongitudeDegrees>-5.54198387078940868377685546875</LongitudeDegrees>
            </Position>
            <AltitudeMeters>100.8000030517578125</AltitudeMeters>
            <DistanceMeters>NAN</DistanceMeters>
          </Trackpoint>
          <Trackpoint>
            <Time>2022-07-17T17:29:26.000Z</Time>
            <Position>
              <LatitudeDegrees>43.4888553433120250701904296875</LatitudeDegrees>
              <LongitudeDegrees>-5.54212150163948535919189453125</LongitudeDegrees>
            </Position>
            <AltitudeMeters>100</AltitudeMeters>
            <DistanceMeters>NAN</DistanceMeters>
          </Trackpoint>
          <Trackpoint>
            <Time>2022-07-17T17:29:28.000Z</Time>
            <Position>
              <LatitudeDegrees>43.4889733605086803436279296875</LatitudeDegrees>
              <LongitudeDegrees>-5.54225326515734195709228515625</LongitudeDegrees>
            </Position>
            <AltitudeMeters>99</AltitudeMeters>
            <DistanceMeters>NAN</DistanceMeters>
          </Trackpoint>
          <Trackpoint>
            <Time>2022-07-17T17:29:29.000Z</Time>
            <Position>
              <LatitudeDegrees>43.48901988007128238677978515625</LatitudeDegrees>
              <LongitudeDegrees>-5.5423371680080890655517578125</LongitudeDegrees>
            </Position>
            <AltitudeMeters>98.59999847412109375</AltitudeMeters>
            <DistanceMeters>NAN</DistanceMeters>
          </Trackpoint>
          <Trackpoint>
            <Time>2022-07-17T17:29:31.000Z</Time>
            <Position>
              <LatitudeDegrees>43.4890888631343841552734375</LatitudeDegrees>
              <LongitudeDegrees>-5.54244973696768283843994140625</LongitudeDegrees>
            </Position>
            <AltitudeMeters>97.8000030517578125</AltitudeMeters>
            <DistanceMeters>NAN</DistanceMeters>
          </Trackpoint>
          <Trackpoint>
            <Time>2022-07-17T17:29:32.000Z</Time>
            <Position>
              <LatitudeDegrees>43.48912213928997516632080078125</LatitudeDegrees>
              <LongitudeDegrees>-5.542476475238800048828125</LongitudeDegrees>
            </Position>
            <AltitudeMeters>97.1999969482421875</AltitudeMeters>
            <DistanceMeters>NAN</DistanceMeters>
          </Trackpoint>
          <Trackpoint>
            <Time>2022-07-17T17:29:33.000Z</Time>
            <Position>
              <LatitudeDegrees>43.48915097303688526153564453125</LatitudeDegrees>
              <LongitudeDegrees>-5.54248007945716381072998046875</LongitudeDegrees>
            </Position>
            <AltitudeMeters>96.59999847412109375</AltitudeMeters>
            <DistanceMeters>NAN</DistanceMeters>
          </Trackpoint>
          <Trackpoint>
            <Time>2022-07-17T17:29:34.000Z</Time>
            <Position>
              <LatitudeDegrees>43.48917209543287754058837890625</LatitudeDegrees>
              <LongitudeDegrees>-5.54246700368821620941162109375</LongitudeDegrees>
            </Position>
            <AltitudeMeters>96</AltitudeMeters>
            <DistanceMeters>NAN</DistanceMeters>
          </Trackpoint>
          <Trackpoint>
            <Time>2022-07-17T17:29:35.000Z</Time>
            <Position>
              <LatitudeDegrees>43.48919573239982128143310546875</LatitudeDegrees>
              <LongitudeDegrees>-5.5424447916448116302490234375</LongitudeDegrees>
            </Position>
            <AltitudeMeters>95.40000152587890625</AltitudeMeters>
            <DistanceMeters>NAN</DistanceMeters>
          </Trackpoint>
          <Trackpoint>
            <Time>2022-07-17T17:29:39.000Z</Time>
            <Position>
              <LatitudeDegrees>43.4892590157687664031982421875</LatitudeDegrees>
              <LongitudeDegrees>-5.5423462204635143280029296875</LongitudeDegrees>
            </Position>
            <AltitudeMeters>94.8000030517578125</AltitudeMeters>
            <DistanceMeters>NAN</DistanceMeters>
          </Trackpoint>
          <Trackpoint>
            <Time>2022-07-17T17:29:41.000Z</Time>
            <Position>
              <LatitudeDegrees>43.48928726278245449066162109375</LatitudeDegrees>
              <LongitudeDegrees>-5.54232082329690456390380859375</LongitudeDegrees>
            </Position>
            <AltitudeMeters>94.8000030517578125</AltitudeMeters>
            <DistanceMeters>NAN</DistanceMeters>
          </Trackpoint>
          <Trackpoint>
            <Time>2022-07-17T17:29:45.000Z</Time>
            <Position>
              <LatitudeDegrees>43.48930134437978267669677734375</LatitudeDegrees>
              <LongitudeDegrees>-5.54232769645750522613525390625</LongitudeDegrees>
            </Position>
            <AltitudeMeters>94.40000152587890625</AltitudeMeters>
            <DistanceMeters>NAN</DistanceMeters>
          </Trackpoint>
          <Trackpoint>
            <Time>2022-07-17T17:33:34.000Z</Time>
            <Position>
              <LatitudeDegrees>43.489259518682956695556640625</LatitudeDegrees>
              <LongitudeDegrees>-5.54239843972027301788330078125</LongitudeDegrees>
            </Position>
            <AltitudeMeters>93</AltitudeMeters>
            <DistanceMeters>NAN</DistanceMeters>
          </Trackpoint>
          <Trackpoint>
            <Time>2022-07-17T17:33:35.000Z</Time>
            <Position>
              <LatitudeDegrees>43.48925046622753143310546875</LatitudeDegrees>
              <LongitudeDegrees>-5.54241587407886981964111328125</LongitudeDegrees>
            </Position>
            <AltitudeMeters>93</AltitudeMeters>
            <DistanceMeters>NAN</DistanceMeters>
          </Trackpoint>
          <Trackpoint>
            <Time>2022-07-17T17:33:37.000Z</Time>
            <Position>
              <LatitudeDegrees>43.48923076875507831573486328125</LatitudeDegrees>
              <LongitudeDegrees>-5.54243984632194042205810546875</LongitudeDegrees>
            </Position>
            <AltitudeMeters>93</AltitudeMeters>
            <DistanceMeters>NAN</DistanceMeters>
          </Trackpoint>
          <Trackpoint>
            <Time>2022-07-17T17:33:43.000Z</Time>
            <Position>
              <LatitudeDegrees>43.48917829804122447967529296875</LatitudeDegrees>
              <LongitudeDegrees>-5.54253774695098400115966796875</LongitudeDegrees>
            </Position>
            <AltitudeMeters>93.59999847412109375</AltitudeMeters>
            <DistanceMeters>NAN</DistanceMeters>
          </Trackpoint>
          <Trackpoint>
            <Time>2022-07-17T17:33:44.000Z</Time>
            <Position>
              <LatitudeDegrees>43.48918433301150798797607421875</LatitudeDegrees>
              <LongitudeDegrees>-5.54256708361208438873291015625</LongitudeDegrees>
            </Position>
            <AltitudeMeters>93.59999847412109375</AltitudeMeters>
            <DistanceMeters>NAN</DistanceMeters>
          </Trackpoint>
          <Trackpoint>
            <Time>2022-07-17T17:33:52.000Z</Time>
            <Position>
              <LatitudeDegrees>43.48924250341951847076416015625</LatitudeDegrees>
              <LongitudeDegrees>-5.5428028665482997894287109375</LongitudeDegrees>
            </Position>
            <AltitudeMeters>93.40000152587890625</AltitudeMeters>
            <DistanceMeters>NAN</DistanceMeters>
          </Trackpoint>
          <Trackpoint>
            <Time>2022-07-17T17:33:59.000Z</Time>
            <Position>
              <LatitudeDegrees>43.4893026016652584075927734375</LatitudeDegrees>
              <LongitudeDegrees>-5.5429832451045513153076171875</LongitudeDegrees>
            </Position>
            <AltitudeMeters>93.59999847412109375</AltitudeMeters>
            <DistanceMeters>NAN</DistanceMeters>
          </Trackpoint>
          <Trackpoint>
            <Time>2022-07-17T17:34:04.000Z</Time>
            <Position>
              <LatitudeDegrees>43.4893424995243549346923828125</LatitudeDegrees>
              <LongitudeDegrees>-5.54311945103108882904052734375</LongitudeDegrees>
            </Position>
            <AltitudeMeters>94</AltitudeMeters>
            <DistanceMeters>NAN</DistanceMeters>
          </Trackpoint>
          <Trackpoint>
            <Time>2022-07-17T17:34:05.000Z</Time>
            <Position>
              <LatitudeDegrees>43.4893502108752727508544921875</LatitudeDegrees>
              <LongitudeDegrees>-5.5431441776454448699951171875</LongitudeDegrees>
            </Position>
            <AltitudeMeters>94</AltitudeMeters>
            <DistanceMeters>NAN</DistanceMeters>
          </Trackpoint>
          <Trackpoint>
            <Time>2022-07-17T17:34:07.000Z</Time>
            <Position>
              <LatitudeDegrees>43.48937158472836017608642578125</LatitudeDegrees>
              <LongitudeDegrees>-5.543213076889514923095703125</LongitudeDegrees>
            </Position>
            <AltitudeMeters>93.8000030517578125</AltitudeMeters>
            <DistanceMeters>NAN</DistanceMeters>
          </Trackpoint>
          <Trackpoint>
            <Time>2022-07-17T17:34:13.000Z</Time>
            <Position>
              <LatitudeDegrees>43.4894165955483913421630859375</LatitudeDegrees>
              <LongitudeDegrees>-5.543393455445766448974609375</LongitudeDegrees>
            </Position>
            <AltitudeMeters>93.8000030517578125</AltitudeMeters>
            <DistanceMeters>NAN</DistanceMeters>
          </Trackpoint>
          <Trackpoint>
            <Time>2022-07-17T17:34:15.000Z</Time>
            <Position>
              <LatitudeDegrees>43.4894310124218463897705078125</LatitudeDegrees>
              <LongitudeDegrees>-5.5434514582157135009765625</LongitudeDegrees>
            </Position>
            <AltitudeMeters>93.8000030517578125</AltitudeMeters>
            <DistanceMeters>NAN</DistanceMeters>
          </Trackpoint>
          <Trackpoint>
            <Time>2022-07-17T17:34:21.000Z</Time>
            <Position>
              <LatitudeDegrees>43.48948918282985687255859375</LatitudeDegrees>
              <LongitudeDegrees>-5.543668381869792938232421875</LongitudeDegrees>
            </Position>
            <AltitudeMeters>93.40000152587890625</AltitudeMeters>
            <DistanceMeters>NAN</DistanceMeters>
          </Trackpoint>
          <Trackpoint>
            <Time>2022-07-17T17:34:28.000Z</Time>
            <Position>
              <LatitudeDegrees>43.4896016679704189300537109375</LatitudeDegrees>
              <LongitudeDegrees>-5.5439424701035022735595703125</LongitudeDegrees>
            </Position>
            <AltitudeMeters>93.40000152587890625</AltitudeMeters>
            <DistanceMeters>NAN</DistanceMeters>
          </Trackpoint>
          <Trackpoint>
            <Time>2022-07-17T17:34:35.000Z</Time>
            <Position>
              <LatitudeDegrees>43.4897180087864398956298828125</LatitudeDegrees>
              <LongitudeDegrees>-5.54418445564806461334228515625</LongitudeDegrees>
            </Position>
            <AltitudeMeters>93.1999969482421875</AltitudeMeters>
            <DistanceMeters>NAN</DistanceMeters>
          </Trackpoint>
          <Trackpoint>
            <Time>2022-07-17T17:34:36.000Z</Time>
            <Position>
              <LatitudeDegrees>43.48973502404987812042236328125</LatitudeDegrees>
              <LongitudeDegrees>-5.544220916926860809326171875</LongitudeDegrees>
            </Position>
            <AltitudeMeters>93</AltitudeMeters>
            <DistanceMeters>NAN</DistanceMeters>
          </Trackpoint>
          <Trackpoint>
            <Time>2022-07-17T17:34:42.000Z</Time>
            <Position>
              <LatitudeDegrees>43.4898366965353488922119140625</LatitudeDegrees>
              <LongitudeDegrees>-5.544432811439037322998046875</LongitudeDegrees>
            </Position>
            <AltitudeMeters>92.59999847412109375</AltitudeMeters>
            <DistanceMeters>NAN</DistanceMeters>
          </Trackpoint>
          <Trackpoint>
            <Time>2022-07-17T17:34:51.000Z</Time>
            <Position>
              <LatitudeDegrees>43.48995982669293880462646484375</LatitudeDegrees>
              <LongitudeDegrees>-5.5447283573448657989501953125</LongitudeDegrees>
            </Position>
            <AltitudeMeters>92.59999847412109375</AltitudeMeters>
            <DistanceMeters>NAN</DistanceMeters>
          </Trackpoint>
          <Trackpoint>
            <Time>2022-07-17T17:34:55.000Z</Time>
            <Position>
              <LatitudeDegrees>43.49002788774669170379638671875</LatitudeDegrees>
              <LongitudeDegrees>-5.54484360851347446441650390625</LongitudeDegrees>
            </Position>
            <AltitudeMeters>92.8000030517578125</AltitudeMeters>
            <DistanceMeters>NAN</DistanceMeters>
          </Trackpoint>
          <Trackpoint>
            <Time>2022-07-17T17:34:59.000Z</Time>
            <Position>
              <LatitudeDegrees>43.4901029057800769805908203125</LatitudeDegrees>
              <LongitudeDegrees>-5.54493564181029796600341796875</LongitudeDegrees>
            </Position>
            <AltitudeMeters>93</AltitudeMeters>
            <DistanceMeters>NAN</DistanceMeters>
          </Trackpoint>
          <Trackpoint>
            <Time>2022-07-17T17:35:05.000Z</Time>
            <Position>
              <LatitudeDegrees>43.49017448723316192626953125</LatitudeDegrees>
              <LongitudeDegrees>-5.545075200498104095458984375</LongitudeDegrees>
            </Position>
            <AltitudeMeters>93.1999969482421875</AltitudeMeters>
            <DistanceMeters>NAN</DistanceMeters>
          </Trackpoint>
          <Trackpoint>
            <Time>2022-07-17T17:35:11.000Z</Time>
            <Position>
              <LatitudeDegrees>43.49020960740745067596435546875</LatitudeDegrees>
              <LongitudeDegrees>-5.5451806448400020599365234375</LongitudeDegrees>
            </Position>
            <AltitudeMeters>93.1999969482421875</AltitudeMeters>
            <DistanceMeters>NAN</DistanceMeters>
          </Trackpoint>
          <Trackpoint>
            <Time>2022-07-17T17:35:14.000Z</Time>
            <Position>
              <LatitudeDegrees>43.49020935595035552978515625</LatitudeDegrees>
              <LongitudeDegrees>-5.5451707541942596435546875</LongitudeDegrees>
            </Position>
            <AltitudeMeters>93.1999969482421875</AltitudeMeters>
            <DistanceMeters>NAN</DistanceMeters>
          </Trackpoint>
          <Trackpoint>
            <Time>2022-07-17T17:44:35.000Z</Time>
            <Position>
              <LatitudeDegrees>43.49027330987155437469482421875</LatitudeDegrees>
              <LongitudeDegrees>-5.54530947469174861907958984375</LongitudeDegrees>
            </Position>
            <AltitudeMeters>90.59999847412109375</AltitudeMeters>
            <DistanceMeters>NAN</DistanceMeters>
          </Trackpoint>
          <Trackpoint>
            <Time>2022-07-17T17:44:41.000Z</Time>
            <Position>
              <LatitudeDegrees>43.49035662598907947540283203125</LatitudeDegrees>
              <LongitudeDegrees>-5.54545800201594829559326171875</LongitudeDegrees>
            </Position>
            <AltitudeMeters>91</AltitudeMeters>
            <DistanceMeters>NAN</DistanceMeters>
          </Trackpoint>
          <Trackpoint>
            <Time>2022-07-17T17:44:48.000Z</Time>
            <Position>
              <LatitudeDegrees>43.4904492460191249847412109375</LatitudeDegrees>
              <LongitudeDegrees>-5.5456631071865558624267578125</LongitudeDegrees>
            </Position>
            <AltitudeMeters>91.40000152587890625</AltitudeMeters>
            <DistanceMeters>NAN</DistanceMeters>
          </Trackpoint>
          <Trackpoint>
            <Time>2022-07-17T17:44:51.000Z</Time>
            <Position>
              <LatitudeDegrees>43.49048453383147716522216796875</LatitudeDegrees>
              <LongitudeDegrees>-5.54575807414948940277099609375</LongitudeDegrees>
            </Position>
            <AltitudeMeters>91.59999847412109375</AltitudeMeters>
            <DistanceMeters>NAN</DistanceMeters>
          </Trackpoint>
          <Trackpoint>
            <Time>2022-07-17T17:44:56.000Z</Time>
            <Position>
              <LatitudeDegrees>43.49056449718773365020751953125</LatitudeDegrees>
              <LongitudeDegrees>-5.54589830338954925537109375</LongitudeDegrees>
            </Position>
            <AltitudeMeters>91.8000030517578125</AltitudeMeters>
            <DistanceMeters>NAN</DistanceMeters>
          </Trackpoint>
          <Trackpoint>
            <Time>2022-07-17T17:45:05.000Z</Time>
            <Position>
              <LatitudeDegrees>43.49071570672094821929931640625</LatitudeDegrees>
              <LongitudeDegrees>-5.54616694338619709014892578125</LongitudeDegrees>
            </Position>
            <AltitudeMeters>92</AltitudeMeters>
            <DistanceMeters>NAN</DistanceMeters>
          </Trackpoint>
          <Trackpoint>
            <Time>2022-07-17T17:45:13.000Z</Time>
            <Position>
              <LatitudeDegrees>43.4908054769039154052734375</LatitudeDegrees>
              <LongitudeDegrees>-5.5464117787778377532958984375</LongitudeDegrees>
            </Position>
            <AltitudeMeters>91.8000030517578125</AltitudeMeters>
            <DistanceMeters>NAN</DistanceMeters>
          </Trackpoint>
          <Trackpoint>
            <Time>2022-07-17T17:45:21.000Z</Time>
            <Position>
              <LatitudeDegrees>43.4908810816705226898193359375</LatitudeDegrees>
              <LongitudeDegrees>-5.54664219729602336883544921875</LongitudeDegrees>
            </Position>
            <AltitudeMeters>91.59999847412109375</AltitudeMeters>
            <DistanceMeters>NAN</DistanceMeters>
          </Trackpoint>
          <Trackpoint>
            <Time>2022-07-17T17:45:25.000Z</Time>
            <Position>
              <LatitudeDegrees>43.49089675582945346832275390625</LatitudeDegrees>
              <LongitudeDegrees>-5.54677178151905536651611328125</LongitudeDegrees>
            </Position>
            <AltitudeMeters>91.8000030517578125</AltitudeMeters>
            <DistanceMeters>NAN</DistanceMeters>
          </Trackpoint>
          <Trackpoint>
            <Time>2022-07-17T17:45:27.000Z</Time>
            <Position>
              <LatitudeDegrees>43.49091075360774993896484375</LatitudeDegrees>
              <LongitudeDegrees>-5.5468312092125415802001953125</LongitudeDegrees>
            </Position>
            <AltitudeMeters>91.8000030517578125</AltitudeMeters>
            <DistanceMeters>NAN</DistanceMeters>
          </Trackpoint>
          <Trackpoint>
            <Time>2022-07-17T17:45:32.000Z</Time>
            <Position>
              <LatitudeDegrees>43.490953333675861358642578125</LatitudeDegrees>
              <LongitudeDegrees>-5.54697998799383640289306640625</LongitudeDegrees>
            </Position>
            <AltitudeMeters>92.1999969482421875</AltitudeMeters>
            <DistanceMeters>NAN</DistanceMeters>
          </Trackpoint>
          <Trackpoint>
            <Time>2022-07-17T17:45:34.000Z</Time>
            <Position>
              <LatitudeDegrees>43.49096833728253841400146484375</LatitudeDegrees>
              <LongitudeDegrees>-5.54702491499483585357666015625</LongitudeDegrees>
            </Position>
            <AltitudeMeters>92.1999969482421875</AltitudeMeters>
            <DistanceMeters>NAN</DistanceMeters>
          </Trackpoint>
          <Trackpoint>
            <Time>2022-07-17T17:45:40.000Z</Time>
            <Position>
              <LatitudeDegrees>43.491019047796726226806640625</LatitudeDegrees>
              <LongitudeDegrees>-5.5471443571150302886962890625</LongitudeDegrees>
            </Position>
            <AltitudeMeters>92.59999847412109375</AltitudeMeters>
            <DistanceMeters>NAN</DistanceMeters>
          </Trackpoint>
          <Trackpoint>
            <Time>2022-07-17T17:45:41.000Z</Time>
            <Position>
              <LatitudeDegrees>43.491027094423770904541015625</LatitudeDegrees>
              <LongitudeDegrees>-5.5471624620258808135986328125</LongitudeDegrees>
            </Position>
            <AltitudeMeters>92.59999847412109375</AltitudeMeters>
            <DistanceMeters>NAN</DistanceMeters>
          </Trackpoint>
          <Trackpoint>
            <Time>2022-07-17T17:45:49.000Z</Time>
            <Position>
              <LatitudeDegrees>43.49112323485314846038818359375</LatitudeDegrees>
              <LongitudeDegrees>-5.5473887734115123748779296875</LongitudeDegrees>
            </Position>
            <AltitudeMeters>93</AltitudeMeters>
            <DistanceMeters>NAN</DistanceMeters>
          </Trackpoint>
          <Trackpoint>
            <Time>2022-07-17T17:45:56.000Z</Time>
            <Position>
              <LatitudeDegrees>43.491182662546634674072265625</LatitudeDegrees>
              <LongitudeDegrees>-5.5476569943130016326904296875</LongitudeDegrees>
            </Position>
            <AltitudeMeters>93.1999969482421875</AltitudeMeters>
            <DistanceMeters>NAN</DistanceMeters>
          </Trackpoint>
          <Trackpoint>
            <Time>2022-07-17T17:46:04.000Z</Time>
            <Position>
              <LatitudeDegrees>43.4912026114761829376220703125</LatitudeDegrees>
              <LongitudeDegrees>-5.5479728244245052337646484375</LongitudeDegrees>
            </Position>
            <AltitudeMeters>93.40000152587890625</AltitudeMeters>
            <DistanceMeters>NAN</DistanceMeters>
          </Trackpoint>
          <Trackpoint>
            <Time>2022-07-17T17:46:07.000Z</Time>
            <Position>
              <LatitudeDegrees>43.49121627397835254669189453125</LatitudeDegrees>
              <LongitudeDegrees>-5.5480801127851009368896484375</LongitudeDegrees>
            </Position>
            <AltitudeMeters>93.59999847412109375</AltitudeMeters>
            <DistanceMeters>NAN</DistanceMeters>
          </Trackpoint>
          <Trackpoint>
            <Time>2022-07-17T17:46:13.000Z</Time>
            <Position>
              <LatitudeDegrees>43.49123932421207427978515625</LatitudeDegrees>
              <LongitudeDegrees>-5.54831229150295257568359375</LongitudeDegrees>
            </Position>
            <AltitudeMeters>94</AltitudeMeters>
            <DistanceMeters>NAN</DistanceMeters>
          </Trackpoint>
          <Trackpoint>
            <Time>2022-07-17T17:46:21.000Z</Time>
            <Position>
              <LatitudeDegrees>43.4912777133285999298095703125</LatitudeDegrees>
              <LongitudeDegrees>-5.54867162369191646575927734375</LongitudeDegrees>
            </Position>
            <AltitudeMeters>94.1999969482421875</AltitudeMeters>
            <DistanceMeters>NAN</DistanceMeters>
          </Trackpoint>
          <Trackpoint>
            <Time>2022-07-17T17:46:27.000Z</Time>
            <Position>
              <LatitudeDegrees>43.49140402860939502716064453125</LatitudeDegrees>
              <LongitudeDegrees>-5.548886619508266448974609375</LongitudeDegrees>
            </Position>
            <AltitudeMeters>94.40000152587890625</AltitudeMeters>
            <DistanceMeters>NAN</DistanceMeters>
          </Trackpoint>
          <Trackpoint>
            <Time>2022-07-17T17:46:35.000Z</Time>
            <Position>
              <LatitudeDegrees>43.49159605801105499267578125</LatitudeDegrees>
              <LongitudeDegrees>-5.54904528893530368804931640625</LongitudeDegrees>
            </Position>
            <AltitudeMeters>94.59999847412109375</AltitudeMeters>
            <DistanceMeters>NAN</DistanceMeters>
          </Trackpoint>
          <Trackpoint>
            <Time>2022-07-17T17:46:36.000Z</Time>
            <Position>
              <LatitudeDegrees>43.49161877296864986419677734375</LatitudeDegrees>
              <LongitudeDegrees>-5.5490561015903949737548828125</LongitudeDegrees>
            </Position>
            <AltitudeMeters>94.8000030517578125</AltitudeMeters>
            <DistanceMeters>NAN</DistanceMeters>
          </Trackpoint>
          <Trackpoint>
            <Time>2022-07-17T17:46:41.000Z</Time>
            <Position>
              <LatitudeDegrees>43.49170410074293613433837890625</LatitudeDegrees>
              <LongitudeDegrees>-5.549119971692562103271484375</LongitudeDegrees>
            </Position>
            <AltitudeMeters>95.1999969482421875</AltitudeMeters>
            <DistanceMeters>NAN</DistanceMeters>
          </Trackpoint>
          <Trackpoint>
            <Time>2022-07-17T17:46:47.000Z</Time>
            <Position>
              <LatitudeDegrees>43.4917527996003627777099609375</LatitudeDegrees>
              <LongitudeDegrees>-5.5492700077593326568603515625</LongitudeDegrees>
            </Position>
            <AltitudeMeters>95.59999847412109375</AltitudeMeters>
            <DistanceMeters>NAN</DistanceMeters>
          </Trackpoint>
          <Trackpoint>
            <Time>2022-07-17T17:46:52.000Z</Time>
            <Position>
              <LatitudeDegrees>43.4917628578841686248779296875</LatitudeDegrees>
              <LongitudeDegrees>-5.5494007654488086700439453125</LongitudeDegrees>
            </Position>
            <AltitudeMeters>95.8000030517578125</AltitudeMeters>
            <DistanceMeters>NAN</DistanceMeters>
          </Trackpoint>
          <Trackpoint>
            <Time>2022-07-17T17:46:55.000Z</Time>
            <Position>
              <LatitudeDegrees>43.49177299998700618743896484375</LatitudeDegrees>
              <LongitudeDegrees>-5.54947293363511562347412109375</LongitudeDegrees>
            </Position>
            <AltitudeMeters>96</AltitudeMeters>
            <DistanceMeters>NAN</DistanceMeters>
          </Trackpoint>
          <Trackpoint>
            <Time>2022-07-17T17:46:56.000Z</Time>
            <Position>
              <LatitudeDegrees>43.4917812980711460113525390625</LatitudeDegrees>
              <LongitudeDegrees>-5.5494929663836956024169921875</LongitudeDegrees>
            </Position>
            <AltitudeMeters>96</AltitudeMeters>
            <DistanceMeters>NAN</DistanceMeters>
          </Trackpoint>
          <Trackpoint>
            <Time>2022-07-17T17:47:05.000Z</Time>
            <Position>
              <LatitudeDegrees>43.49189738743007183074951171875</LatitudeDegrees>
              <LongitudeDegrees>-5.54962900467216968536376953125</LongitudeDegrees>
            </Position>
            <AltitudeMeters>96.8000030517578125</AltitudeMeters>
            <DistanceMeters>NAN</DistanceMeters>
          </Trackpoint>
          <Trackpoint>
            <Time>2022-07-17T17:47:06.000Z</Time>
            <Position>
              <LatitudeDegrees>43.4919127263128757476806640625</LatitudeDegrees>
              <LongitudeDegrees>-5.549640320241451263427734375</LongitudeDegrees>
            </Position>
            <AltitudeMeters>96.8000030517578125</AltitudeMeters>
            <DistanceMeters>NAN</DistanceMeters>
          </Trackpoint>
          <Trackpoint>
            <Time>2022-07-17T17:47:13.000Z</Time>
            <Position>
              <LatitudeDegrees>43.492025546729564666748046875</LatitudeDegrees>
              <LongitudeDegrees>-5.549721457064151763916015625</LongitudeDegrees>
            </Position>
            <AltitudeMeters>97.1999969482421875</AltitudeMeters>
            <DistanceMeters>NAN</DistanceMeters>
          </Trackpoint>
          <Trackpoint>
            <Time>2022-07-17T17:47:21.000Z</Time>
            <Position>
              <LatitudeDegrees>43.49215236492455005645751953125</LatitudeDegrees>
              <LongitudeDegrees>-5.54979295469820499420166015625</LongitudeDegrees>
            </Position>
            <AltitudeMeters>97.8000030517578125</AltitudeMeters>
            <DistanceMeters>NAN</DistanceMeters>
          </Trackpoint>
          <Trackpoint>
            <Time>2022-07-17T17:47:23.000Z</Time>
            <Position>
              <LatitudeDegrees>43.49218212068080902099609375</LatitudeDegrees>
              <LongitudeDegrees>-5.54980519227683544158935546875</LongitudeDegrees>
            </Position>
            <AltitudeMeters>98</AltitudeMeters>
            <DistanceMeters>NAN</DistanceMeters>
          </Trackpoint>
          <Trackpoint>
            <Time>2022-07-17T17:47:30.000Z</Time>
            <Position>
              <LatitudeDegrees>43.492264933884143829345703125</LatitudeDegrees>
              <LongitudeDegrees>-5.5498986504971981048583984375</LongitudeDegrees>
            </Position>
            <AltitudeMeters>98.59999847412109375</AltitudeMeters>
            <DistanceMeters>NAN</DistanceMeters>
          </Trackpoint>
          <Trackpoint>
            <Time>2022-07-17T17:47:34.000Z</Time>
            <Position>
              <LatitudeDegrees>43.49228815175592899322509765625</LatitudeDegrees>
              <LongitudeDegrees>-5.54997886531054973602294921875</LongitudeDegrees>
            </Position>
            <AltitudeMeters>98.8000030517578125</AltitudeMeters>
            <DistanceMeters>NAN</DistanceMeters>
          </Trackpoint>
          <Trackpoint>
            <Time>2022-07-17T17:47:40.000Z</Time>
            <Position>
              <LatitudeDegrees>43.4923197515308856964111328125</LatitudeDegrees>
              <LongitudeDegrees>-5.5500791966915130615234375</LongitudeDegrees>
            </Position>
            <AltitudeMeters>99.40000152587890625</AltitudeMeters>
            <DistanceMeters>NAN</DistanceMeters>
          </Trackpoint>
          <Trackpoint>
            <Time>2022-07-17T17:47:43.000Z</Time>
            <Position>
              <LatitudeDegrees>43.49232637323439121246337890625</LatitudeDegrees>
              <LongitudeDegrees>-5.55013325996696949005126953125</LongitudeDegrees>
            </Position>
            <AltitudeMeters>100</AltitudeMeters>
            <DistanceMeters>NAN</DistanceMeters>
          </Trackpoint>
          <Trackpoint>
            <Time>2022-07-17T17:47:50.000Z</Time>
            <Position>
              <LatitudeDegrees>43.492353446781635284423828125</LatitudeDegrees>
              <LongitudeDegrees>-5.55023811757564544677734375</LongitudeDegrees>
            </Position>
            <AltitudeMeters>100.1999969482421875</AltitudeMeters>
            <DistanceMeters>NAN</DistanceMeters>
          </Trackpoint>
          <Trackpoint>
            <Time>2022-07-17T17:47:55.000Z</Time>
            <Position>
              <LatitudeDegrees>43.4923740662634372711181640625</LatitudeDegrees>
              <LongitudeDegrees>-5.55032193660736083984375</LongitudeDegrees>
            </Position>
            <AltitudeMeters>100.8000030517578125</AltitudeMeters>
            <DistanceMeters>NAN</DistanceMeters>
          </Trackpoint>
          <Trackpoint>
            <Time>2022-07-17T17:47:58.000Z</Time>
            <Position>
              <LatitudeDegrees>43.49238806404173374176025390625</LatitudeDegrees>
              <LongitudeDegrees>-5.55036686360836029052734375</LongitudeDegrees>
            </Position>
            <AltitudeMeters>101</AltitudeMeters>
            <DistanceMeters>NAN</DistanceMeters>
          </Trackpoint>
          <Trackpoint>
            <Time>2022-07-17T17:48:01.000Z</Time>
            <Position>
              <LatitudeDegrees>43.49239728413522243499755859375</LatitudeDegrees>
              <LongitudeDegrees>-5.5504198372364044189453125</LongitudeDegrees>
            </Position>
            <AltitudeMeters>101.1999969482421875</AltitudeMeters>
            <DistanceMeters>NAN</DistanceMeters>
          </Trackpoint>
          <Trackpoint>
            <Time>2022-07-17T17:48:07.000Z</Time>
            <Position>
              <LatitudeDegrees>43.49242259748280048370361328125</LatitudeDegrees>
              <LongitudeDegrees>-5.5505138821899890899658203125</LongitudeDegrees>
            </Position>
            <AltitudeMeters>102</AltitudeMeters>
            <DistanceMeters>NAN</DistanceMeters>
          </Trackpoint>
          <Trackpoint>
            <Time>2022-07-17T17:48:10.000Z</Time>
            <Position>
              <LatitudeDegrees>43.49243416450917720794677734375</LatitudeDegrees>
              <LongitudeDegrees>-5.5505635030567646026611328125</LongitudeDegrees>
            </Position>
            <AltitudeMeters>102</AltitudeMeters>
            <DistanceMeters>NAN</DistanceMeters>
          </Trackpoint>
          <Trackpoint>
            <Time>2022-07-17T17:48:12.000Z</Time>
            <Position>
              <LatitudeDegrees>43.49244707264006137847900390625</LatitudeDegrees>
              <LongitudeDegrees>-5.550597198307514190673828125</LongitudeDegrees>
            </Position>
            <AltitudeMeters>102.40000152587890625</AltitudeMeters>
            <DistanceMeters>NAN</DistanceMeters>
          </Trackpoint>
          <Trackpoint>
            <Time>2022-07-17T17:48:15.000Z</Time>
            <Position>
              <LatitudeDegrees>43.49246668629348278045654296875</LatitudeDegrees>
              <LongitudeDegrees>-5.5506332404911518096923828125</LongitudeDegrees>
            </Position>
            <AltitudeMeters>102.59999847412109375</AltitudeMeters>
            <DistanceMeters>NAN</DistanceMeters>
          </Trackpoint>
          <Trackpoint>
            <Time>2022-07-17T17:48:18.000Z</Time>
            <Position>
              <LatitudeDegrees>43.49248965270817279815673828125</LatitudeDegrees>
              <LongitudeDegrees>-5.550678670406341552734375</LongitudeDegrees>
            </Position>
            <AltitudeMeters>103.1999969482421875</AltitudeMeters>
            <DistanceMeters>NAN</DistanceMeters>
          </Trackpoint>
          <Trackpoint>
            <Time>2022-07-17T17:48:20.000Z</Time>
            <Position>
              <LatitudeDegrees>43.49250004626810550689697265625</LatitudeDegrees>
              <LongitudeDegrees>-5.5506919138133525848388671875</LongitudeDegrees>
            </Position>
            <AltitudeMeters>103.1999969482421875</AltitudeMeters>
            <DistanceMeters>NAN</DistanceMeters>
          </Trackpoint>
          <Trackpoint>
            <Time>2022-07-17T17:48:25.000Z</Time>
            <Position>
              <LatitudeDegrees>43.4925355017185211181640625</LatitudeDegrees>
              <LongitudeDegrees>-5.5507569573819637298583984375</LongitudeDegrees>
            </Position>
            <AltitudeMeters>103.59999847412109375</AltitudeMeters>
            <DistanceMeters>NAN</DistanceMeters>
          </Trackpoint>
          <Trackpoint>
            <Time>2022-07-17T17:48:30.000Z</Time>
            <Position>
              <LatitudeDegrees>43.49258453585207462310791015625</LatitudeDegrees>
              <LongitudeDegrees>-5.55081051774322986602783203125</LongitudeDegrees>
            </Position>
            <AltitudeMeters>104</AltitudeMeters>
            <DistanceMeters>NAN</DistanceMeters>
          </Trackpoint>
          <Trackpoint>
            <Time>2022-07-17T17:48:32.000Z</Time>
            <Position>
              <LatitudeDegrees>43.49260649643838405609130859375</LatitudeDegrees>
              <LongitudeDegrees>-5.55083432234823703765869140625</LongitudeDegrees>
            </Position>
            <AltitudeMeters>104.1999969482421875</AltitudeMeters>
            <DistanceMeters>NAN</DistanceMeters>
          </Trackpoint>
          <Trackpoint>
            <Time>2022-07-17T17:48:40.000Z</Time>
            <Position>
              <LatitudeDegrees>43.49266852252185344696044921875</LatitudeDegrees>
              <LongitudeDegrees>-5.55092166177928447723388671875</LongitudeDegrees>
            </Position>
            <AltitudeMeters>105</AltitudeMeters>
            <DistanceMeters>NAN</DistanceMeters>
          </Trackpoint>
          <Trackpoint>
            <Time>2022-07-17T17:48:41.000Z</Time>
            <Position>
              <LatitudeDegrees>43.49267556332051753997802734375</LatitudeDegrees>
              <LongitudeDegrees>-5.55093423463404178619384765625</LongitudeDegrees>
            </Position>
            <AltitudeMeters>105.1999969482421875</AltitudeMeters>
            <DistanceMeters>NAN</DistanceMeters>
          </Trackpoint>
          <Trackpoint>
            <Time>2022-07-17T17:48:49.000Z</Time>
            <Position>
              <LatitudeDegrees>43.49273599684238433837890625</LatitudeDegrees>
              <LongitudeDegrees>-5.551035739481449127197265625</LongitudeDegrees>
            </Position>
            <AltitudeMeters>105.59999847412109375</AltitudeMeters>
            <DistanceMeters>NAN</DistanceMeters>
          </Trackpoint>
          <Trackpoint>
            <Time>2022-07-17T17:48:54.000Z</Time>
            <Position>
              <LatitudeDegrees>43.4927582927048206329345703125</LatitudeDegrees>
              <LongitudeDegrees>-5.55110002867877483367919921875</LongitudeDegrees>
            </Position>
            <AltitudeMeters>106</AltitudeMeters>
            <DistanceMeters>NAN</DistanceMeters>
          </Trackpoint>
          <Trackpoint>
            <Time>2022-07-17T17:48:57.000Z</Time>
            <Position>
              <LatitudeDegrees>43.49277446977794170379638671875</LatitudeDegrees>
              <LongitudeDegrees>-5.55115752853453159332275390625</LongitudeDegrees>
            </Position>
            <AltitudeMeters>106.1999969482421875</AltitudeMeters>
            <DistanceMeters>NAN</DistanceMeters>
          </Trackpoint>
          <Trackpoint>
            <Time>2022-07-17T17:48:58.000Z</Time>
            <Position>
              <LatitudeDegrees>43.49278419278562068939208984375</LatitudeDegrees>
              <LongitudeDegrees>-5.55117018520832061767578125</LongitudeDegrees>
            </Position>
            <AltitudeMeters>106.1999969482421875</AltitudeMeters>
            <DistanceMeters>NAN</DistanceMeters>
          </Trackpoint>
          <Trackpoint>
            <Time>2022-07-17T17:49:05.000Z</Time>
            <Position>
              <LatitudeDegrees>43.492827527225017547607421875</LatitudeDegrees>
              <LongitudeDegrees>-5.5512702651321887969970703125</LongitudeDegrees>
            </Position>
            <AltitudeMeters>107</AltitudeMeters>
            <DistanceMeters>NAN</DistanceMeters>
          </Trackpoint>
          <Trackpoint>
            <Time>2022-07-17T17:49:08.000Z</Time>
            <Position>
              <LatitudeDegrees>43.4928359091281890869140625</LatitudeDegrees>
              <LongitudeDegrees>-5.5513034574687480926513671875</LongitudeDegrees>
            </Position>
            <AltitudeMeters>107.1999969482421875</AltitudeMeters>
            <DistanceMeters>NAN</DistanceMeters>
          </Trackpoint>
          <Trackpoint>
            <Time>2022-07-17T17:49:13.000Z</Time>
            <Position>
              <LatitudeDegrees>43.49286516197025775909423828125</LatitudeDegrees>
              <LongitudeDegrees>-5.5513664893805980682373046875</LongitudeDegrees>
            </Position>
            <AltitudeMeters>107.8000030517578125</AltitudeMeters>
            <DistanceMeters>NAN</DistanceMeters>
          </Trackpoint>
          <Trackpoint>
            <Time>2022-07-17T17:49:18.000Z</Time>
            <Position>
              <LatitudeDegrees>43.49288712255656719207763671875</LatitudeDegrees>
              <LongitudeDegrees>-5.55142759345471858978271484375</LongitudeDegrees>
            </Position>
            <AltitudeMeters>108.1999969482421875</AltitudeMeters>
            <DistanceMeters>NAN</DistanceMeters>
          </Trackpoint>
          <Trackpoint>
            <Time>2022-07-17T17:49:20.000Z</Time>
            <Position>
              <LatitudeDegrees>43.49289265461266040802001953125</LatitudeDegrees>
              <LongitudeDegrees>-5.55144066922366619110107421875</LongitudeDegrees>
            </Position>
            <AltitudeMeters>108.40000152587890625</AltitudeMeters>
            <DistanceMeters>NAN</DistanceMeters>
          </Trackpoint>
          <Trackpoint>
            <Time>2022-07-17T17:49:23.000Z</Time>
            <Position>
              <LatitudeDegrees>43.4929001145064830780029296875</LatitudeDegrees>
              <LongitudeDegrees>-5.551478303968906402587890625</LongitudeDegrees>
            </Position>
            <AltitudeMeters>108.59999847412109375</AltitudeMeters>
            <DistanceMeters>NAN</DistanceMeters>
          </Trackpoint>
          <Trackpoint>
            <Time>2022-07-17T17:49:27.000Z</Time>
            <Position>
              <LatitudeDegrees>43.49291176535189151763916015625</LatitudeDegrees>
              <LongitudeDegrees>-5.55155835114419460296630859375</LongitudeDegrees>
            </Position>
            <AltitudeMeters>109</AltitudeMeters>
            <DistanceMeters>NAN</DistanceMeters>
          </Trackpoint>
          <Trackpoint>
            <Time>2022-07-17T17:49:33.000Z</Time>
            <Position>
              <LatitudeDegrees>43.49292618222534656524658203125</LatitudeDegrees>
              <LongitudeDegrees>-5.55168424732983112335205078125</LongitudeDegrees>
            </Position>
            <AltitudeMeters>109.1999969482421875</AltitudeMeters>
            <DistanceMeters>NAN</DistanceMeters>
          </Trackpoint>
          <Trackpoint>
            <Time>2022-07-17T17:49:34.000Z</Time>
            <Position>
              <LatitudeDegrees>43.49293154664337635040283203125</LatitudeDegrees>
              <LongitudeDegrees>-5.55169916711747646331787109375</LongitudeDegrees>
            </Position>
            <AltitudeMeters>109.40000152587890625</AltitudeMeters>
            <DistanceMeters>NAN</DistanceMeters>
          </Trackpoint>
          <Trackpoint>
            <Time>2022-07-17T17:49:35.000Z</Time>
            <Position>
              <LatitudeDegrees>43.49293506704270839691162109375</LatitudeDegrees>
              <LongitudeDegrees>-5.5517153441905975341796875</LongitudeDegrees>
            </Position>
            <AltitudeMeters>109.59999847412109375</AltitudeMeters>
            <DistanceMeters>NAN</DistanceMeters>
          </Trackpoint>
          <Trackpoint>
            <Time>2022-07-17T17:49:41.000Z</Time>
            <Position>
              <LatitudeDegrees>43.49297362379729747772216796875</LatitudeDegrees>
              <LongitudeDegrees>-5.551814250648021697998046875</LongitudeDegrees>
            </Position>
            <AltitudeMeters>110.59999847412109375</AltitudeMeters>
            <DistanceMeters>NAN</DistanceMeters>
          </Trackpoint>
          <Trackpoint>
            <Time>2022-07-17T17:49:43.000Z</Time>
            <Position>
              <LatitudeDegrees>43.49298217333853244781494140625</LatitudeDegrees>
              <LongitudeDegrees>-5.5518512986600399017333984375</LongitudeDegrees>
            </Position>
            <AltitudeMeters>110.8000030517578125</AltitudeMeters>
            <DistanceMeters>NAN</DistanceMeters>
          </Trackpoint>
          <Trackpoint>
            <Time>2022-07-17T17:49:51.000Z</Time>
            <Position>
              <LatitudeDegrees>43.493021987378597259521484375</LatitudeDegrees>
              <LongitudeDegrees>-5.5519763566553592681884765625</LongitudeDegrees>
            </Position>
            <AltitudeMeters>111.59999847412109375</AltitudeMeters>
            <DistanceMeters>NAN</DistanceMeters>
          </Trackpoint>
          <Trackpoint>
            <Time>2022-07-17T17:49:52.000Z</Time>
            <Position>
              <LatitudeDegrees>43.49303212948143482208251953125</LatitudeDegrees>
              <LongitudeDegrees>-5.55198666639626026153564453125</LongitudeDegrees>
            </Position>
            <AltitudeMeters>111.59999847412109375</AltitudeMeters>
            <DistanceMeters>NAN</DistanceMeters>
          </Trackpoint>
          <Trackpoint>
            <Time>2022-07-17T17:49:57.000Z</Time>
            <Position>
              <LatitudeDegrees>43.4930540062487125396728515625</LatitudeDegrees>
              <LongitudeDegrees>-5.55206914432346820831298828125</LongitudeDegrees>
            </Position>
            <AltitudeMeters>112</AltitudeMeters>
            <DistanceMeters>NAN</DistanceMeters>
          </Trackpoint>
          <Trackpoint>
            <Time>2022-07-17T17:49:59.000Z</Time>
            <Position>
              <LatitudeDegrees>43.4930620528757572174072265625</LatitudeDegrees>
              <LongitudeDegrees>-5.55210627615451812744140625</LongitudeDegrees>
            </Position>
            <AltitudeMeters>112.1999969482421875</AltitudeMeters>
            <DistanceMeters>NAN</DistanceMeters>
          </Trackpoint>
          <Trackpoint>
            <Time>2022-07-17T17:50:03.000Z</Time>
            <Position>
              <LatitudeDegrees>43.49307755939662456512451171875</LatitudeDegrees>
              <LongitudeDegrees>-5.5521610938012599945068359375</LongitudeDegrees>
            </Position>
            <AltitudeMeters>112.59999847412109375</AltitudeMeters>
            <DistanceMeters>NAN</DistanceMeters>
          </Trackpoint>
          <Trackpoint>
            <Time>2022-07-17T17:50:07.000Z</Time>
            <Position>
              <LatitudeDegrees>43.4930838458240032196044921875</LatitudeDegrees>
              <LongitudeDegrees>-5.5522073619067668914794921875</LongitudeDegrees>
            </Position>
            <AltitudeMeters>112.8000030517578125</AltitudeMeters>
            <DistanceMeters>NAN</DistanceMeters>
          </Trackpoint>
          <Trackpoint>
            <Time>2022-07-17T17:50:08.000Z</Time>
            <Position>
              <LatitudeDegrees>43.4930848516523838043212890625</LatitudeDegrees>
              <LongitudeDegrees>-5.552226640284061431884765625</LongitudeDegrees>
            </Position>
            <AltitudeMeters>112.8000030517578125</AltitudeMeters>
            <DistanceMeters>NAN</DistanceMeters>
          </Trackpoint>
          <Trackpoint>
            <Time>2022-07-17T17:50:12.000Z</Time>
            <Position>
              <LatitudeDegrees>43.4930831752717494964599609375</LatitudeDegrees>
              <LongitudeDegrees>-5.55228732526302337646484375</LongitudeDegrees>
            </Position>
            <AltitudeMeters>113.40000152587890625</AltitudeMeters>
            <DistanceMeters>NAN</DistanceMeters>
          </Trackpoint>
          <Trackpoint>
            <Time>2022-07-17T17:50:14.000Z</Time>
            <Position>
              <LatitudeDegrees>43.4930821694433689117431640625</LatitudeDegrees>
              <LongitudeDegrees>-5.55231557227671146392822265625</LongitudeDegrees>
            </Position>
            <AltitudeMeters>113.8000030517578125</AltitudeMeters>
            <DistanceMeters>NAN</DistanceMeters>
          </Trackpoint>
          <Trackpoint>
            <Time>2022-07-17T17:50:15.000Z</Time>
            <Position>
              <LatitudeDegrees>43.49307797849178314208984375</LatitudeDegrees>
              <LongitudeDegrees>-5.55232889950275421142578125</LongitudeDegrees>
            </Position>
            <AltitudeMeters>113.8000030517578125</AltitudeMeters>
            <DistanceMeters>NAN</DistanceMeters>
          </Trackpoint>
          <Trackpoint>
            <Time>2022-07-17T17:50:19.000Z</Time>
            <Position>
              <LatitudeDegrees>43.49307085387408733367919921875</LatitudeDegrees>
              <LongitudeDegrees>-5.55239385925233364105224609375</LongitudeDegrees>
            </Position>
            <AltitudeMeters>114.40000152587890625</AltitudeMeters>
            <DistanceMeters>NAN</DistanceMeters>
          </Trackpoint>
          <Trackpoint>
            <Time>2022-07-17T17:50:25.000Z</Time>
            <Position>
              <LatitudeDegrees>43.49307403899729251861572265625</LatitudeDegrees>
              <LongitudeDegrees>-5.552479438483715057373046875</LongitudeDegrees>
            </Position>
            <AltitudeMeters>114.8000030517578125</AltitudeMeters>
            <DistanceMeters>NAN</DistanceMeters>
          </Trackpoint>
          <Trackpoint>
            <Time>2022-07-17T17:50:27.000Z</Time>
            <Position>
              <LatitudeDegrees>43.49307135678827762603759765625</LatitudeDegrees>
              <LongitudeDegrees>-5.5525050871074199676513671875</LongitudeDegrees>
            </Position>
            <AltitudeMeters>114.8000030517578125</AltitudeMeters>
            <DistanceMeters>NAN</DistanceMeters>
          </Trackpoint>
          <Trackpoint>
            <Time>2022-07-17T17:50:28.000Z</Time>
            <Position>
              <LatitudeDegrees>43.4930711053311824798583984375</LatitudeDegrees>
              <LongitudeDegrees>-5.552512966096401214599609375</LongitudeDegrees>
            </Position>
            <AltitudeMeters>115</AltitudeMeters>
            <DistanceMeters>NAN</DistanceMeters>
          </Trackpoint>
          <Trackpoint>
            <Time>2022-07-17T17:50:31.000Z</Time>
            <Position>
              <LatitudeDegrees>43.493079654872417449951171875</LatitudeDegrees>
              <LongitudeDegrees>-5.552569292485713958740234375</LongitudeDegrees>
            </Position>
            <AltitudeMeters>115.1999969482421875</AltitudeMeters>
            <DistanceMeters>NAN</DistanceMeters>
          </Trackpoint>
          <Trackpoint>
            <Time>2022-07-17T17:50:33.000Z</Time>
            <Position>
              <LatitudeDegrees>43.49308460019528865814208984375</LatitudeDegrees>
              <LongitudeDegrees>-5.55261145345866680145263671875</LongitudeDegrees>
            </Position>
            <AltitudeMeters>115.1999969482421875</AltitudeMeters>
            <DistanceMeters>NAN</DistanceMeters>
          </Trackpoint>
          <Trackpoint>
            <Time>2022-07-17T17:50:34.000Z</Time>
            <Position>
              <LatitudeDegrees>43.49308661185204982757568359375</LatitudeDegrees>
              <LongitudeDegrees>-5.55263056419789791107177734375</LongitudeDegrees>
            </Position>
            <AltitudeMeters>115.40000152587890625</AltitudeMeters>
            <DistanceMeters>NAN</DistanceMeters>
          </Trackpoint>
          <Trackpoint>
            <Time>2022-07-17T17:50:35.000Z</Time>
            <Position>
              <LatitudeDegrees>43.493089042603969573974609375</LatitudeDegrees>
              <LongitudeDegrees>-5.55264648981392383575439453125</LongitudeDegrees>
            </Position>
            <AltitudeMeters>115.59999847412109375</AltitudeMeters>
            <DistanceMeters>NAN</DistanceMeters>
          </Trackpoint>
          <Trackpoint>
            <Time>2022-07-17T17:50:39.000Z</Time>
            <Position>
              <LatitudeDegrees>43.4931140206754207611083984375</LatitudeDegrees>
              <LongitudeDegrees>-5.5527079291641712188720703125</LongitudeDegrees>
            </Position>
            <AltitudeMeters>115.8000030517578125</AltitudeMeters>
            <DistanceMeters>NAN</DistanceMeters>
          </Trackpoint>
          <Trackpoint>
            <Time>2022-07-17T17:50:41.000Z</Time>
            <Position>
              <LatitudeDegrees>43.49312516860663890838623046875</LatitudeDegrees>
              <LongitudeDegrees>-5.55274522863328456878662109375</LongitudeDegrees>
            </Position>
            <AltitudeMeters>116</AltitudeMeters>
            <DistanceMeters>NAN</DistanceMeters>
          </Trackpoint>
          <Trackpoint>
            <Time>2022-07-17T17:50:47.000Z</Time>
            <Position>
              <LatitudeDegrees>43.49316238425672054290771484375</LatitudeDegrees>
              <LongitudeDegrees>-5.5528336577117443084716796875</LongitudeDegrees>
            </Position>
            <AltitudeMeters>116.8000030517578125</AltitudeMeters>
            <DistanceMeters>NAN</DistanceMeters>
          </Trackpoint>
          <Trackpoint>
            <Time>2022-07-17T17:50:49.000Z</Time>
            <Position>
              <LatitudeDegrees>43.4931700117886066436767578125</LatitudeDegrees>
              <LongitudeDegrees>-5.5528591386973857879638671875</LongitudeDegrees>
            </Position>
            <AltitudeMeters>117.1999969482421875</AltitudeMeters>
            <DistanceMeters>NAN</DistanceMeters>
          </Trackpoint>
          <Trackpoint>
            <Time>2022-07-17T17:50:57.000Z</Time>
            <Position>
              <LatitudeDegrees>43.49322549998760223388671875</LatitudeDegrees>
              <LongitudeDegrees>-5.5529550276696681976318359375</LongitudeDegrees>
            </Position>
            <AltitudeMeters>118</AltitudeMeters>
            <DistanceMeters>NAN</DistanceMeters>
          </Trackpoint>
          <Trackpoint>
            <Time>2022-07-17T17:50:58.000Z</Time>
            <Position>
              <LatitudeDegrees>43.4932313673198223114013671875</LatitudeDegrees>
              <LongitudeDegrees>-5.55297103710472583770751953125</LongitudeDegrees>
            </Position>
            <AltitudeMeters>118.1999969482421875</AltitudeMeters>
            <DistanceMeters>NAN</DistanceMeters>
          </Trackpoint>
          <Trackpoint>
            <Time>2022-07-17T17:51:05.000Z</Time>
            <Position>
              <LatitudeDegrees>43.4932692535221576690673828125</LatitudeDegrees>
              <LongitudeDegrees>-5.55308033712208271026611328125</LongitudeDegrees>
            </Position>
            <AltitudeMeters>118.59999847412109375</AltitudeMeters>
            <DistanceMeters>NAN</DistanceMeters>
          </Trackpoint>
          <Trackpoint>
            <Time>2022-07-17T17:51:08.000Z</Time>
            <Position>
              <LatitudeDegrees>43.49327453412115573883056640625</LatitudeDegrees>
              <LongitudeDegrees>-5.55313087999820709228515625</LongitudeDegrees>
            </Position>
            <AltitudeMeters>119</AltitudeMeters>
            <DistanceMeters>NAN</DistanceMeters>
          </Trackpoint>
          <Trackpoint>
            <Time>2022-07-17T17:51:13.000Z</Time>
            <Position>
              <LatitudeDegrees>43.49330085329711437225341796875</LatitudeDegrees>
              <LongitudeDegrees>-5.55319986306130886077880859375</LongitudeDegrees>
            </Position>
            <AltitudeMeters>119.8000030517578125</AltitudeMeters>
            <DistanceMeters>NAN</DistanceMeters>
          </Trackpoint>
          <Trackpoint>
            <Time>2022-07-17T17:51:16.000Z</Time>
            <Position>
              <LatitudeDegrees>43.493323735892772674560546875</LatitudeDegrees>
              <LongitudeDegrees>-5.55322903208434581756591796875</LongitudeDegrees>
            </Position>
            <AltitudeMeters>120.1999969482421875</AltitudeMeters>
            <DistanceMeters>NAN</DistanceMeters>
          </Trackpoint>
          <Trackpoint>
            <Time>2022-07-17T17:51:20.000Z</Time>
            <Position>
              <LatitudeDegrees>43.49334494210779666900634765625</LatitudeDegrees>
              <LongitudeDegrees>-5.55328787304461002349853515625</LongitudeDegrees>
            </Position>
            <AltitudeMeters>120.59999847412109375</AltitudeMeters>
            <DistanceMeters>NAN</DistanceMeters>
          </Trackpoint>
          <Trackpoint>
            <Time>2022-07-17T17:51:25.000Z</Time>
            <Position>
              <LatitudeDegrees>43.493372015655040740966796875</LatitudeDegrees>
              <LongitudeDegrees>-5.55336029268801212310791015625</LongitudeDegrees>
            </Position>
            <AltitudeMeters>121</AltitudeMeters>
            <DistanceMeters>NAN</DistanceMeters>
          </Trackpoint>
          <Trackpoint>
            <Time>2022-07-17T17:51:28.000Z</Time>
            <Position>
              <LatitudeDegrees>43.49339556880295276641845703125</LatitudeDegrees>
              <LongitudeDegrees>-5.553392060101032257080078125</LongitudeDegrees>
            </Position>
            <AltitudeMeters>121.1999969482421875</AltitudeMeters>
            <DistanceMeters>NAN</DistanceMeters>
          </Trackpoint>
          <Trackpoint>
            <Time>2022-07-17T17:51:34.000Z</Time>
            <Position>
              <LatitudeDegrees>43.49345977418124675750732421875</LatitudeDegrees>
              <LongitudeDegrees>-5.5534683354198932647705078125</LongitudeDegrees>
            </Position>
            <AltitudeMeters>121.8000030517578125</AltitudeMeters>
            <DistanceMeters>NAN</DistanceMeters>
          </Trackpoint>
          <Trackpoint>
            <Time>2022-07-17T17:51:37.000Z</Time>
            <Position>
              <LatitudeDegrees>43.493491709232330322265625</LatitudeDegrees>
              <LongitudeDegrees>-5.55350345559418201446533203125</LongitudeDegrees>
            </Position>
            <AltitudeMeters>122.1999969482421875</AltitudeMeters>
            <DistanceMeters>NAN</DistanceMeters>
          </Trackpoint>
          <Trackpoint>
            <Time>2022-07-17T17:51:38.000Z</Time>
            <Position>
              <LatitudeDegrees>43.493500091135501861572265625</LatitudeDegrees>
              <LongitudeDegrees>-5.55350848473608493804931640625</LongitudeDegrees>
            </Position>
            <AltitudeMeters>122.40000152587890625</AltitudeMeters>
            <DistanceMeters>NAN</DistanceMeters>
          </Trackpoint>
          <Trackpoint>
            <Time>2022-07-17T17:51:40.000Z</Time>
            <Position>
              <LatitudeDegrees>43.4935203753411769866943359375</LatitudeDegrees>
              <LongitudeDegrees>-5.55351804010570049285888671875</LongitudeDegrees>
            </Position>
            <AltitudeMeters>122.40000152587890625</AltitudeMeters>
            <DistanceMeters>NAN</DistanceMeters>
          </Trackpoint>
          <Trackpoint>
            <Time>2022-07-17T17:51:43.000Z</Time>
            <Position>
              <LatitudeDegrees>43.4935522265732288360595703125</LatitudeDegrees>
              <LongitudeDegrees>-5.55353195406496524810791015625</LongitudeDegrees>
            </Position>
            <AltitudeMeters>122.8000030517578125</AltitudeMeters>
            <DistanceMeters>NAN</DistanceMeters>
          </Trackpoint>
          <Trackpoint>
            <Time>2022-07-17T17:51:45.000Z</Time>
            <Position>
              <LatitudeDegrees>43.4935748577117919921875</LatitudeDegrees>
              <LongitudeDegrees>-5.55354368872940540313720703125</LongitudeDegrees>
            </Position>
            <AltitudeMeters>123</AltitudeMeters>
            <DistanceMeters>NAN</DistanceMeters>
          </Trackpoint>
          <Trackpoint>
            <Time>2022-07-17T17:51:47.000Z</Time>
            <Position>
              <LatitudeDegrees>43.4936003386974334716796875</LatitudeDegrees>
              <LongitudeDegrees>-5.5535508133471012115478515625</LongitudeDegrees>
            </Position>
            <AltitudeMeters>123.40000152587890625</AltitudeMeters>
            <DistanceMeters>NAN</DistanceMeters>
          </Trackpoint>
          <Trackpoint>
            <Time>2022-07-17T17:51:53.000Z</Time>
            <Position>
              <LatitudeDegrees>43.49366177804768085479736328125</LatitudeDegrees>
              <LongitudeDegrees>-5.5535481311380863189697265625</LongitudeDegrees>
            </Position>
            <AltitudeMeters>123.8000030517578125</AltitudeMeters>
            <DistanceMeters>NAN</DistanceMeters>
          </Trackpoint>
          <Trackpoint>
            <Time>2022-07-17T17:51:59.000Z</Time>
            <Position>
              <LatitudeDegrees>43.49372665397822856903076171875</LatitudeDegrees>
              <LongitudeDegrees>-5.55358056910336017608642578125</LongitudeDegrees>
            </Position>
            <AltitudeMeters>124.1999969482421875</AltitudeMeters>
            <DistanceMeters>NAN</DistanceMeters>
          </Trackpoint>
          <Trackpoint>
            <Time>2022-07-17T17:52:00.000Z</Time>
            <Position>
              <LatitudeDegrees>43.4937399812042713165283203125</LatitudeDegrees>
              <LongitudeDegrees>-5.5535850115120410919189453125</LongitudeDegrees>
            </Position>
            <AltitudeMeters>124.40000152587890625</AltitudeMeters>
            <DistanceMeters>NAN</DistanceMeters>
          </Trackpoint>
          <Trackpoint>
            <Time>2022-07-17T17:52:02.000Z</Time>
            <Position>
              <LatitudeDegrees>43.4937604330480098724365234375</LatitudeDegrees>
              <LongitudeDegrees>-5.5536081455647945404052734375</LongitudeDegrees>
            </Position>
            <AltitudeMeters>124.59999847412109375</AltitudeMeters>
            <DistanceMeters>NAN</DistanceMeters>
          </Trackpoint>
          <Trackpoint>
            <Time>2022-07-17T17:52:08.000Z</Time>
            <Position>
              <LatitudeDegrees>43.493805862963199615478515625</LatitudeDegrees>
              <LongitudeDegrees>-5.55368601344525814056396484375</LongitudeDegrees>
            </Position>
            <AltitudeMeters>125.40000152587890625</AltitudeMeters>
            <DistanceMeters>NAN</DistanceMeters>
          </Trackpoint>
          <Trackpoint>
            <Time>2022-07-17T17:52:10.000Z</Time>
            <Position>
              <LatitudeDegrees>43.49381751380860805511474609375</LatitudeDegrees>
              <LongitudeDegrees>-5.553704537451267242431640625</LongitudeDegrees>
            </Position>
            <AltitudeMeters>125.59999847412109375</AltitudeMeters>
            <DistanceMeters>NAN</DistanceMeters>
          </Trackpoint>
          <Trackpoint>
            <Time>2022-07-17T17:52:18.000Z</Time>
            <Position>
              <LatitudeDegrees>43.49384752102196216583251953125</LatitudeDegrees>
              <LongitudeDegrees>-5.553833954036235809326171875</LongitudeDegrees>
            </Position>
            <AltitudeMeters>126.40000152587890625</AltitudeMeters>
            <DistanceMeters>NAN</DistanceMeters>
          </Trackpoint>
          <Trackpoint>
            <Time>2022-07-17T17:52:27.000Z</Time>
            <Position>
              <LatitudeDegrees>43.49389714188873767852783203125</LatitudeDegrees>
              <LongitudeDegrees>-5.55396261624991893768310546875</LongitudeDegrees>
            </Position>
            <AltitudeMeters>127.40000152587890625</AltitudeMeters>
            <DistanceMeters>NAN</DistanceMeters>
          </Trackpoint>
          <Trackpoint>
            <Time>2022-07-17T17:52:28.000Z</Time>
            <Position>
              <LatitudeDegrees>43.4939019195735454559326171875</LatitudeDegrees>
              <LongitudeDegrees>-5.55397150106728076934814453125</LongitudeDegrees>
            </Position>
            <AltitudeMeters>127.59999847412109375</AltitudeMeters>
            <DistanceMeters>NAN</DistanceMeters>
          </Trackpoint>
          <Trackpoint>
            <Time>2022-07-17T17:52:38.000Z</Time>
            <Position>
              <LatitudeDegrees>43.4939562343060970306396484375</LatitudeDegrees>
              <LongitudeDegrees>-5.5541207827627658843994140625</LongitudeDegrees>
            </Position>
            <AltitudeMeters>128.600006103515625</AltitudeMeters>
            <DistanceMeters>NAN</DistanceMeters>
          </Trackpoint>
          <Trackpoint>
            <Time>2022-07-17T17:52:47.000Z</Time>
            <Position>
              <LatitudeDegrees>43.493998311460018157958984375</LatitudeDegrees>
              <LongitudeDegrees>-5.55427224375307559967041015625</LongitudeDegrees>
            </Position>
            <AltitudeMeters>129.1999969482421875</AltitudeMeters>
            <DistanceMeters>NAN</DistanceMeters>
          </Trackpoint>
          <Trackpoint>
            <Time>2022-07-17T17:52:51.000Z</Time>
            <Position>
              <LatitudeDegrees>43.49403209052979946136474609375</LatitudeDegrees>
              <LongitudeDegrees>-5.55433913134038448333740234375</LongitudeDegrees>
            </Position>
            <AltitudeMeters>129.600006103515625</AltitudeMeters>
            <DistanceMeters>NAN</DistanceMeters>
          </Trackpoint>
          <Trackpoint>
            <Time>2022-07-17T17:52:52.000Z</Time>
            <Position>
              <LatitudeDegrees>43.494040556252002716064453125</LatitudeDegrees>
              <LongitudeDegrees>-5.55435405112802982330322265625</LongitudeDegrees>
            </Position>
            <AltitudeMeters>129.600006103515625</AltitudeMeters>
            <DistanceMeters>NAN</DistanceMeters>
          </Trackpoint>
          <Trackpoint>
            <Time>2022-07-17T17:52:58.000Z</Time>
            <Position>
              <LatitudeDegrees>43.49408640526235103607177734375</LatitudeDegrees>
              <LongitudeDegrees>-5.55444541387259960174560546875</LongitudeDegrees>
            </Position>
            <AltitudeMeters>130</AltitudeMeters>
            <DistanceMeters>NAN</DistanceMeters>
          </Trackpoint>
          <Trackpoint>
            <Time>2022-07-17T17:53:03.000Z</Time>
            <Position>
              <LatitudeDegrees>43.494148515164852142333984375</LatitudeDegrees>
              <LongitudeDegrees>-5.5545080266892910003662109375</LongitudeDegrees>
            </Position>
            <AltitudeMeters>130.1999969482421875</AltitudeMeters>
            <DistanceMeters>NAN</DistanceMeters>
          </Trackpoint>
          <Trackpoint>
            <Time>2022-07-17T17:53:05.000Z</Time>
            <Position>
              <LatitudeDegrees>43.49416905082762241363525390625</LatitudeDegrees>
              <LongitudeDegrees>-5.55453040637075901031494140625</LongitudeDegrees>
            </Position>
            <AltitudeMeters>130.399993896484375</AltitudeMeters>
            <DistanceMeters>NAN</DistanceMeters>
          </Trackpoint>
          <Trackpoint>
            <Time>2022-07-17T17:53:12.000Z</Time>
            <Position>
              <LatitudeDegrees>43.49423912353813648223876953125</LatitudeDegrees>
              <LongitudeDegrees>-5.554619841277599334716796875</LongitudeDegrees>
            </Position>
            <AltitudeMeters>130.600006103515625</AltitudeMeters>
            <DistanceMeters>NAN</DistanceMeters>
          </Trackpoint>
          <Trackpoint>
            <Time>2022-07-17T17:53:14.000Z</Time>
            <Position>
              <LatitudeDegrees>43.4942586533725261688232421875</LatitudeDegrees>
              <LongitudeDegrees>-5.55464339442551136016845703125</LongitudeDegrees>
            </Position>
            <AltitudeMeters>130.600006103515625</AltitudeMeters>
            <DistanceMeters>NAN</DistanceMeters>
          </Trackpoint>
          <Trackpoint>
            <Time>2022-07-17T17:53:18.000Z</Time>
            <Position>
              <LatitudeDegrees>43.4942894987761974334716796875</LatitudeDegrees>
              <LongitudeDegrees>-5.5546904169023036956787109375</LongitudeDegrees>
            </Position>
            <AltitudeMeters>130.600006103515625</AltitudeMeters>
            <DistanceMeters>NAN</DistanceMeters>
          </Trackpoint>
          <Trackpoint>
            <Time>2022-07-17T17:53:22.000Z</Time>
            <Position>
              <LatitudeDegrees>43.49430182017385959625244140625</LatitudeDegrees>
              <LongitudeDegrees>-5.554717741906642913818359375</LongitudeDegrees>
            </Position>
            <AltitudeMeters>130.600006103515625</AltitudeMeters>
            <DistanceMeters>NAN</DistanceMeters>
          </Trackpoint>
          <Trackpoint>
            <Time>2022-07-17T17:53:23.000Z</Time>
            <Position>
              <LatitudeDegrees>43.49430182017385959625244140625</LatitudeDegrees>
              <LongitudeDegrees>-5.554717741906642913818359375</LongitudeDegrees>
            </Position>
            <AltitudeMeters>130.600006103515625</AltitudeMeters>
            <DistanceMeters>NAN</DistanceMeters>
          </Trackpoint>
          <Trackpoint>
            <Time>2022-07-17T17:53:56.000Z</Time>
            <Position>
              <LatitudeDegrees>43.4944403730332851409912109375</LatitudeDegrees>
              <LongitudeDegrees>-5.554800219833850860595703125</LongitudeDegrees>
            </Position>
            <AltitudeMeters>132</AltitudeMeters>
            <DistanceMeters>NAN</DistanceMeters>
          </Trackpoint>
          <Trackpoint>
            <Time>2022-07-17T17:53:57.000Z</Time>
            <Position>
              <LatitudeDegrees>43.49444925785064697265625</LatitudeDegrees>
              <LongitudeDegrees>-5.55481170304119586944580078125</LongitudeDegrees>
            </Position>
            <AltitudeMeters>132</AltitudeMeters>
            <DistanceMeters>NAN</DistanceMeters>
          </Trackpoint>
          <Trackpoint>
            <Time>2022-07-17T17:53:59.000Z</Time>
            <Position>
              <LatitudeDegrees>43.494465686380863189697265625</LatitudeDegrees>
              <LongitudeDegrees>-5.5548305623233318328857421875</LongitudeDegrees>
            </Position>
            <AltitudeMeters>132.1999969482421875</AltitudeMeters>
            <DistanceMeters>NAN</DistanceMeters>
          </Trackpoint>
          <Trackpoint>
            <Time>2022-07-17T17:54:02.000Z</Time>
            <Position>
              <LatitudeDegrees>43.4944879822432994842529296875</LatitudeDegrees>
              <LongitudeDegrees>-5.55486132390797138214111328125</LongitudeDegrees>
            </Position>
            <AltitudeMeters>132.399993896484375</AltitudeMeters>
            <DistanceMeters>NAN</DistanceMeters>
          </Trackpoint>
          <Trackpoint>
            <Time>2022-07-17T17:54:07.000Z</Time>
            <Position>
              <LatitudeDegrees>43.49453366361558437347412109375</LatitudeDegrees>
              <LongitudeDegrees>-5.5549179017543792724609375</LongitudeDegrees>
            </Position>
            <AltitudeMeters>132.600006103515625</AltitudeMeters>
            <DistanceMeters>NAN</DistanceMeters>
          </Trackpoint>
          <Trackpoint>
            <Time>2022-07-17T17:54:11.000Z</Time>
            <Position>
              <LatitudeDegrees>43.494583703577518463134765625</LatitudeDegrees>
              <LongitudeDegrees>-5.55494413711130619049072265625</LongitudeDegrees>
            </Position>
            <AltitudeMeters>133</AltitudeMeters>
            <DistanceMeters>NAN</DistanceMeters>
          </Trackpoint>
          <Trackpoint>
            <Time>2022-07-17T17:54:13.000Z</Time>
            <Position>
              <LatitudeDegrees>43.4945982880890369415283203125</LatitudeDegrees>
              <LongitudeDegrees>-5.55496308021247386932373046875</LongitudeDegrees>
            </Position>
            <AltitudeMeters>133.1999969482421875</AltitudeMeters>
            <DistanceMeters>NAN</DistanceMeters>
          </Trackpoint>
          <Trackpoint>
            <Time>2022-07-17T17:54:14.000Z</Time>
            <Position>
              <LatitudeDegrees>43.4946059994399547576904296875</LatitudeDegrees>
              <LongitudeDegrees>-5.55497749708592891693115234375</LongitudeDegrees>
            </Position>
            <AltitudeMeters>133.1999969482421875</AltitudeMeters>
            <DistanceMeters>NAN</DistanceMeters>
          </Trackpoint>
          <Trackpoint>
            <Time>2022-07-17T17:54:18.000Z</Time>
            <Position>
              <LatitudeDegrees>43.49464480765163898468017578125</LatitudeDegrees>
              <LongitudeDegrees>-5.55501454509794712066650390625</LongitudeDegrees>
            </Position>
            <AltitudeMeters>133.399993896484375</AltitudeMeters>
            <DistanceMeters>NAN</DistanceMeters>
          </Trackpoint>
          <Trackpoint>
            <Time>2022-07-17T17:54:23.000Z</Time>
            <Position>
              <LatitudeDegrees>43.4946656785905361175537109375</LatitudeDegrees>
              <LongitudeDegrees>-5.55509517900645732879638671875</LongitudeDegrees>
            </Position>
            <AltitudeMeters>133.600006103515625</AltitudeMeters>
            <DistanceMeters>NAN</DistanceMeters>
          </Trackpoint>
          <Trackpoint>
            <Time>2022-07-17T17:54:30.000Z</Time>
            <Position>
              <LatitudeDegrees>43.4946351684629917144775390625</LatitudeDegrees>
              <LongitudeDegrees>-5.55520355701446533203125</LongitudeDegrees>
            </Position>
            <AltitudeMeters>133.600006103515625</AltitudeMeters>
            <DistanceMeters>NAN</DistanceMeters>
          </Trackpoint>
          <Trackpoint>
            <Time>2022-07-17T17:54:31.000Z</Time>
            <Position>
              <LatitudeDegrees>43.494627289474010467529296875</LatitudeDegrees>
              <LongitudeDegrees>-5.5552147887647151947021484375</LongitudeDegrees>
            </Position>
            <AltitudeMeters>133.600006103515625</AltitudeMeters>
            <DistanceMeters>NAN</DistanceMeters>
          </Trackpoint>
          <Trackpoint>
            <Time>2022-07-17T17:54:36.000Z</Time>
            <Position>
              <LatitudeDegrees>43.4945825301110744476318359375</LatitudeDegrees>
              <LongitudeDegrees>-5.55529139935970306396484375</LongitudeDegrees>
            </Position>
            <AltitudeMeters>134</AltitudeMeters>
            <DistanceMeters>NAN</DistanceMeters>
          </Trackpoint>
          <Trackpoint>
            <Time>2022-07-17T17:54:37.000Z</Time>
            <Position>
              <LatitudeDegrees>43.49457657895982265472412109375</LatitudeDegrees>
              <LongitudeDegrees>-5.55530271492898464202880859375</LongitudeDegrees>
            </Position>
            <AltitudeMeters>134</AltitudeMeters>
            <DistanceMeters>NAN</DistanceMeters>
          </Trackpoint>
          <Trackpoint>
            <Time>2022-07-17T17:54:45.000Z</Time>
            <Position>
              <LatitudeDegrees>43.494505919516086578369140625</LatitudeDegrees>
              <LongitudeDegrees>-5.55536742322146892547607421875</LongitudeDegrees>
            </Position>
            <AltitudeMeters>134.8000030517578125</AltitudeMeters>
            <DistanceMeters>NAN</DistanceMeters>
          </Trackpoint>
          <Trackpoint>
            <Time>2022-07-17T17:54:46.000Z</Time>
            <Position>
              <LatitudeDegrees>43.49449560977518558502197265625</LatitudeDegrees>
              <LongitudeDegrees>-5.55537588894367218017578125</LongitudeDegrees>
            </Position>
            <AltitudeMeters>134.8000030517578125</AltitudeMeters>
            <DistanceMeters>NAN</DistanceMeters>
          </Trackpoint>
          <Trackpoint>
            <Time>2022-07-17T17:54:48.000Z</Time>
            <Position>
              <LatitudeDegrees>43.49447566084563732147216796875</LatitudeDegrees>
              <LongitudeDegrees>-5.55539893917739391326904296875</LongitudeDegrees>
            </Position>
            <AltitudeMeters>135</AltitudeMeters>
            <DistanceMeters>NAN</DistanceMeters>
          </Trackpoint>
          <Trackpoint>
            <Time>2022-07-17T17:54:50.000Z</Time>
            <Position>
              <LatitudeDegrees>43.49446191452443599700927734375</LatitudeDegrees>
              <LongitudeDegrees>-5.55540782399475574493408203125</LongitudeDegrees>
            </Position>
            <AltitudeMeters>135.1999969482421875</AltitudeMeters>
            <DistanceMeters>NAN</DistanceMeters>
          </Trackpoint>
          <Trackpoint>
            <Time>2022-07-17T17:54:53.000Z</Time>
            <Position>
              <LatitudeDegrees>43.49446191452443599700927734375</LatitudeDegrees>
              <LongitudeDegrees>-5.55540782399475574493408203125</LongitudeDegrees>
            </Position>
            <AltitudeMeters>135.399993896484375</AltitudeMeters>
            <DistanceMeters>NAN</DistanceMeters>
          </Trackpoint>
          <Trackpoint>
            <Time>2022-07-17T17:56:29.000Z</Time>
            <Position>
              <LatitudeDegrees>43.494486473500728607177734375</LatitudeDegrees>
              <LongitudeDegrees>-5.55539122782647609710693359375</LongitudeDegrees>
            </Position>
            <AltitudeMeters>135.1999969482421875</AltitudeMeters>
            <DistanceMeters>NAN</DistanceMeters>
          </Trackpoint>
          <Trackpoint>
            <Time>2022-07-17T17:56:30.000Z</Time>
            <Position>
              <LatitudeDegrees>43.49451488815248012542724609375</LatitudeDegrees>
              <LongitudeDegrees>-5.55537664331495761871337890625</LongitudeDegrees>
            </Position>
            <AltitudeMeters>135.1999969482421875</AltitudeMeters>
            <DistanceMeters>NAN</DistanceMeters>
          </Trackpoint>
          <Trackpoint>
            <Time>2022-07-17T17:56:33.000Z</Time>
            <Position>
              <LatitudeDegrees>43.49461798556149005889892578125</LatitudeDegrees>
              <LongitudeDegrees>-5.55533833801746368408203125</LongitudeDegrees>
            </Position>
            <AltitudeMeters>135</AltitudeMeters>
            <DistanceMeters>NAN</DistanceMeters>
          </Trackpoint>
          <Trackpoint>
            <Time>2022-07-17T17:56:35.000Z</Time>
            <Position>
              <LatitudeDegrees>43.49466224201023578643798828125</LatitudeDegrees>
              <LongitudeDegrees>-5.555311180651187896728515625</LongitudeDegrees>
            </Position>
            <AltitudeMeters>135</AltitudeMeters>
            <DistanceMeters>NAN</DistanceMeters>
          </Trackpoint>
          <Trackpoint>
            <Time>2022-07-17T17:56:44.000Z</Time>
            <Position>
              <LatitudeDegrees>43.4947796724736690521240234375</LatitudeDegrees>
              <LongitudeDegrees>-5.55520833469927310943603515625</LongitudeDegrees>
            </Position>
            <AltitudeMeters>136</AltitudeMeters>
            <DistanceMeters>NAN</DistanceMeters>
          </Trackpoint>
          <Trackpoint>
            <Time>2022-07-17T17:56:45.000Z</Time>
            <Position>
              <LatitudeDegrees>43.4947877191007137298583984375</LatitudeDegrees>
              <LongitudeDegrees>-5.555198192596435546875</LongitudeDegrees>
            </Position>
            <AltitudeMeters>136.1999969482421875</AltitudeMeters>
            <DistanceMeters>NAN</DistanceMeters>
          </Trackpoint>
          <Trackpoint>
            <Time>2022-07-17T17:56:51.000Z</Time>
            <Position>
              <LatitudeDegrees>43.49484060890972614288330078125</LatitudeDegrees>
              <LongitudeDegrees>-5.55510708130896091461181640625</LongitudeDegrees>
            </Position>
            <AltitudeMeters>137</AltitudeMeters>
            <DistanceMeters>NAN</DistanceMeters>
          </Trackpoint>
          <Trackpoint>
            <Time>2022-07-17T17:56:53.000Z</Time>
            <Position>
              <LatitudeDegrees>43.49485586397349834442138671875</LatitudeDegrees>
              <LongitudeDegrees>-5.55507506243884563446044921875</LongitudeDegrees>
            </Position>
            <AltitudeMeters>137.399993896484375</AltitudeMeters>
            <DistanceMeters>NAN</DistanceMeters>
          </Trackpoint>
          <Trackpoint>
            <Time>2022-07-17T17:56:59.000Z</Time>
            <Position>
              <LatitudeDegrees>43.49490347318351268768310546875</LatitudeDegrees>
              <LongitudeDegrees>-5.5549982003867626190185546875</LongitudeDegrees>
            </Position>
            <AltitudeMeters>138.399993896484375</AltitudeMeters>
            <DistanceMeters>NAN</DistanceMeters>
          </Trackpoint>
          <Trackpoint>
            <Time>2022-07-17T17:57:00.000Z</Time>
            <Position>
              <LatitudeDegrees>43.49491017870604991912841796875</LatitudeDegrees>
              <LongitudeDegrees>-5.55499241687357425689697265625</LongitudeDegrees>
            </Position>
            <AltitudeMeters>138.600006103515625</AltitudeMeters>
            <DistanceMeters>NAN</DistanceMeters>
          </Trackpoint>
          <Trackpoint>
            <Time>2022-07-17T17:57:02.000Z</Time>
            <Position>
              <LatitudeDegrees>43.49492861889302730560302734375</LatitudeDegrees>
              <LongitudeDegrees>-5.554972551763057708740234375</LongitudeDegrees>
            </Position>
            <AltitudeMeters>138.8000030517578125</AltitudeMeters>
            <DistanceMeters>NAN</DistanceMeters>
          </Trackpoint>
          <Trackpoint>
            <Time>2022-07-17T17:57:05.000Z</Time>
            <Position>
              <LatitudeDegrees>43.49495359696447849273681640625</LatitudeDegrees>
              <LongitudeDegrees>-5.554946400225162506103515625</LongitudeDegrees>
            </Position>
            <AltitudeMeters>139.600006103515625</AltitudeMeters>
            <DistanceMeters>NAN</DistanceMeters>
          </Trackpoint>
          <Trackpoint>
            <Time>2022-07-17T17:57:10.000Z</Time>
            <Position>
              <LatitudeDegrees>43.494993411004543304443359375</LatitudeDegrees>
              <LongitudeDegrees>-5.55489686317741870880126953125</LongitudeDegrees>
            </Position>
            <AltitudeMeters>140.399993896484375</AltitudeMeters>
            <DistanceMeters>NAN</DistanceMeters>
          </Trackpoint>
          <Trackpoint>
            <Time>2022-07-17T17:57:13.000Z</Time>
            <Position>
              <LatitudeDegrees>43.4950227476656436920166015625</LatitudeDegrees>
              <LongitudeDegrees>-5.5548749864101409912109375</LongitudeDegrees>
            </Position>
            <AltitudeMeters>140.8000030517578125</AltitudeMeters>
            <DistanceMeters>NAN</DistanceMeters>
          </Trackpoint>
          <Trackpoint>
            <Time>2022-07-17T17:57:18.000Z</Time>
            <Position>
              <LatitudeDegrees>43.49507831968367099761962890625</LatitudeDegrees>
              <LongitudeDegrees>-5.55485344491899013519287109375</LongitudeDegrees>
            </Position>
            <AltitudeMeters>141.399993896484375</AltitudeMeters>
            <DistanceMeters>NAN</DistanceMeters>
          </Trackpoint>
          <Trackpoint>
            <Time>2022-07-17T17:57:20.000Z</Time>
            <Position>
              <LatitudeDegrees>43.4950948320329189300537109375</LatitudeDegrees>
              <LongitudeDegrees>-5.554853193461894989013671875</LongitudeDegrees>
            </Position>
            <AltitudeMeters>141.8000030517578125</AltitudeMeters>
            <DistanceMeters>NAN</DistanceMeters>
          </Trackpoint>
          <Trackpoint>
            <Time>2022-07-17T17:57:25.000Z</Time>
            <Position>
              <LatitudeDegrees>43.49514017812907695770263671875</LatitudeDegrees>
              <LongitudeDegrees>-5.5548838712275028228759765625</LongitudeDegrees>
            </Position>
            <AltitudeMeters>142.600006103515625</AltitudeMeters>
            <DistanceMeters>NAN</DistanceMeters>
          </Trackpoint>
          <Trackpoint>
            <Time>2022-07-17T17:57:26.000Z</Time>
            <Position>
              <LatitudeDegrees>43.49514755420386791229248046875</LatitudeDegrees>
              <LongitudeDegrees>-5.55488772690296173095703125</LongitudeDegrees>
            </Position>
            <AltitudeMeters>142.8000030517578125</AltitudeMeters>
            <DistanceMeters>NAN</DistanceMeters>
          </Trackpoint>
          <Trackpoint>
            <Time>2022-07-17T17:57:27.000Z</Time>
            <Position>
              <LatitudeDegrees>43.49515610374510288238525390625</LatitudeDegrees>
              <LongitudeDegrees>-5.55490055121481418609619140625</LongitudeDegrees>
            </Position>
            <AltitudeMeters>142.8000030517578125</AltitudeMeters>
            <DistanceMeters>NAN</DistanceMeters>
          </Trackpoint>
          <Trackpoint>
            <Time>2022-07-17T17:57:30.000Z</Time>
            <Position>
              <LatitudeDegrees>43.4951813332736492156982421875</LatitudeDegrees>
              <LongitudeDegrees>-5.5549428798258304595947265625</LongitudeDegrees>
            </Position>
            <AltitudeMeters>143.1999969482421875</AltitudeMeters>
            <DistanceMeters>NAN</DistanceMeters>
          </Trackpoint>
          <Trackpoint>
            <Time>2022-07-17T17:57:34.000Z</Time>
            <Position>
              <LatitudeDegrees>43.4952259249985218048095703125</LatitudeDegrees>
              <LongitudeDegrees>-5.55496928282082080841064453125</LongitudeDegrees>
            </Position>
            <AltitudeMeters>143.600006103515625</AltitudeMeters>
            <DistanceMeters>NAN</DistanceMeters>
          </Trackpoint>
          <Trackpoint>
            <Time>2022-07-17T17:57:37.000Z</Time>
            <Position>
              <LatitudeDegrees>43.49526523612439632415771484375</LatitudeDegrees>
              <LongitudeDegrees>-5.554969199001789093017578125</LongitudeDegrees>
            </Position>
            <AltitudeMeters>143.600006103515625</AltitudeMeters>
            <DistanceMeters>NAN</DistanceMeters>
          </Trackpoint>
          <Trackpoint>
            <Time>2022-07-17T17:57:41.000Z</Time>
            <Position>
              <LatitudeDegrees>43.49529826082289218902587890625</LatitudeDegrees>
              <LongitudeDegrees>-5.55491195060312747955322265625</LongitudeDegrees>
            </Position>
            <AltitudeMeters>144</AltitudeMeters>
            <DistanceMeters>NAN</DistanceMeters>
          </Trackpoint>
          <Trackpoint>
            <Time>2022-07-17T17:57:42.000Z</Time>
            <Position>
              <LatitudeDegrees>43.4953016974031925201416015625</LatitudeDegrees>
              <LongitudeDegrees>-5.55489501915872097015380859375</LongitudeDegrees>
            </Position>
            <AltitudeMeters>144</AltitudeMeters>
            <DistanceMeters>NAN</DistanceMeters>
          </Trackpoint>
          <Trackpoint>
            <Time>2022-07-17T17:57:43.000Z</Time>
            <Position>
              <LatitudeDegrees>43.49530278705060482025146484375</LatitudeDegrees>
              <LongitudeDegrees>-5.55487674660980701446533203125</LongitudeDegrees>
            </Position>
            <AltitudeMeters>144</AltitudeMeters>
            <DistanceMeters>NAN</DistanceMeters>
          </Trackpoint>
          <Trackpoint>
            <Time>2022-07-17T17:57:50.000Z</Time>
            <Position>
              <LatitudeDegrees>43.49526439793407917022705078125</LatitudeDegrees>
              <LongitudeDegrees>-5.55475990287959575653076171875</LongitudeDegrees>
            </Position>
            <AltitudeMeters>144.600006103515625</AltitudeMeters>
            <DistanceMeters>NAN</DistanceMeters>
          </Trackpoint>
          <Trackpoint>
            <Time>2022-07-17T17:57:55.000Z</Time>
            <Position>
              <LatitudeDegrees>43.49521838128566741943359375</LatitudeDegrees>
              <LongitudeDegrees>-5.55468111298978328704833984375</LongitudeDegrees>
            </Position>
            <AltitudeMeters>145</AltitudeMeters>
            <DistanceMeters>NAN</DistanceMeters>
          </Trackpoint>
          <Trackpoint>
            <Time>2022-07-17T17:57:58.000Z</Time>
            <Position>
              <LatitudeDegrees>43.49519331939518451690673828125</LatitudeDegrees>
              <LongitudeDegrees>-5.55463233031332492828369140625</LongitudeDegrees>
            </Position>
            <AltitudeMeters>145.399993896484375</AltitudeMeters>
            <DistanceMeters>NAN</DistanceMeters>
          </Trackpoint>
          <Trackpoint>
            <Time>2022-07-17T17:58:01.000Z</Time>
            <Position>
              <LatitudeDegrees>43.4951592050492763519287109375</LatitudeDegrees>
              <LongitudeDegrees>-5.55458740331232547760009765625</LongitudeDegrees>
            </Position>
            <AltitudeMeters>145.8000030517578125</AltitudeMeters>
            <DistanceMeters>NAN</DistanceMeters>
          </Trackpoint>
          <Trackpoint>
            <Time>2022-07-17T17:58:03.000Z</Time>
            <Position>
              <LatitudeDegrees>43.49514118395745754241943359375</LatitudeDegrees>
              <LongitudeDegrees>-5.5545586533844470977783203125</LongitudeDegrees>
            </Position>
            <AltitudeMeters>146</AltitudeMeters>
            <DistanceMeters>NAN</DistanceMeters>
          </Trackpoint>
          <Trackpoint>
            <Time>2022-07-17T17:58:05.000Z</Time>
            <Position>
              <LatitudeDegrees>43.49511939100921154022216796875</LatitudeDegrees>
              <LongitudeDegrees>-5.55453342385590076446533203125</LongitudeDegrees>
            </Position>
            <AltitudeMeters>146.399993896484375</AltitudeMeters>
            <DistanceMeters>NAN</DistanceMeters>
          </Trackpoint>
          <Trackpoint>
            <Time>2022-07-17T17:58:11.000Z</Time>
            <Position>
              <LatitudeDegrees>43.4950495697557926177978515625</LatitudeDegrees>
              <LongitudeDegrees>-5.55446184240281581878662109375</LongitudeDegrees>
            </Position>
            <AltitudeMeters>147</AltitudeMeters>
            <DistanceMeters>NAN</DistanceMeters>
          </Trackpoint>
          <Trackpoint>
            <Time>2022-07-17T17:58:16.000Z</Time>
            <Position>
              <LatitudeDegrees>43.4950006194412708282470703125</LatitudeDegrees>
              <LongitudeDegrees>-5.5543987266719341278076171875</LongitudeDegrees>
            </Position>
            <AltitudeMeters>147.399993896484375</AltitudeMeters>
            <DistanceMeters>NAN</DistanceMeters>
          </Trackpoint>
          <Trackpoint>
            <Time>2022-07-17T17:58:22.000Z</Time>
            <Position>
              <LatitudeDegrees>43.494947142899036407470703125</LatitudeDegrees>
              <LongitudeDegrees>-5.55432873778045177459716796875</LongitudeDegrees>
            </Position>
            <AltitudeMeters>148</AltitudeMeters>
            <DistanceMeters>NAN</DistanceMeters>
          </Trackpoint>
          <Trackpoint>
            <Time>2022-07-17T17:58:24.000Z</Time>
            <Position>
              <LatitudeDegrees>43.494937419891357421875</LatitudeDegrees>
              <LongitudeDegrees>-5.55430241860449314117431640625</LongitudeDegrees>
            </Position>
            <AltitudeMeters>148</AltitudeMeters>
            <DistanceMeters>NAN</DistanceMeters>
          </Trackpoint>
          <Trackpoint>
            <Time>2022-07-17T17:58:25.000Z</Time>
            <Position>
              <LatitudeDegrees>43.49493348039686679840087890625</LatitudeDegrees>
              <LongitudeDegrees>-5.55428691208362579345703125</LongitudeDegrees>
            </Position>
            <AltitudeMeters>148.1999969482421875</AltitudeMeters>
            <DistanceMeters>NAN</DistanceMeters>
          </Trackpoint>
          <Trackpoint>
            <Time>2022-07-17T17:58:28.000Z</Time>
            <Position>
              <LatitudeDegrees>43.49491872824728488922119140625</LatitudeDegrees>
              <LongitudeDegrees>-5.5542354471981525421142578125</LongitudeDegrees>
            </Position>
            <AltitudeMeters>148.399993896484375</AltitudeMeters>
            <DistanceMeters>NAN</DistanceMeters>
          </Trackpoint>
          <Trackpoint>
            <Time>2022-07-17T17:58:32.000Z</Time>
            <Position>
              <LatitudeDegrees>43.49489475600421428680419921875</LatitudeDegrees>
              <LongitudeDegrees>-5.5541757680475711822509765625</LongitudeDegrees>
            </Position>
            <AltitudeMeters>148.8000030517578125</AltitudeMeters>
            <DistanceMeters>NAN</DistanceMeters>
          </Trackpoint>
          <Trackpoint>
            <Time>2022-07-17T17:58:35.000Z</Time>
            <Position>
              <LatitudeDegrees>43.4948953427374362945556640625</LatitudeDegrees>
              <LongitudeDegrees>-5.554122962057590484619140625</LongitudeDegrees>
            </Position>
            <AltitudeMeters>149.1999969482421875</AltitudeMeters>
            <DistanceMeters>NAN</DistanceMeters>
          </Trackpoint>
          <Trackpoint>
            <Time>2022-07-17T17:58:43.000Z</Time>
            <Position>
              <LatitudeDegrees>43.494878746569156646728515625</LatitudeDegrees>
              <LongitudeDegrees>-5.553986169397830963134765625</LongitudeDegrees>
            </Position>
            <AltitudeMeters>150.600006103515625</AltitudeMeters>
            <DistanceMeters>NAN</DistanceMeters>
          </Trackpoint>
          <Trackpoint>
            <Time>2022-07-17T17:58:50.000Z</Time>
            <Position>
              <LatitudeDegrees>43.49486776627600193023681640625</LatitudeDegrees>
              <LongitudeDegrees>-5.5538718402385711669921875</LongitudeDegrees>
            </Position>
            <AltitudeMeters>151.8000030517578125</AltitudeMeters>
            <DistanceMeters>NAN</DistanceMeters>
          </Trackpoint>
          <Trackpoint>
            <Time>2022-07-17T17:58:53.000Z</Time>
            <Position>
              <LatitudeDegrees>43.4948628209531307220458984375</LatitudeDegrees>
              <LongitudeDegrees>-5.553809814155101776123046875</LongitudeDegrees>
            </Position>
            <AltitudeMeters>152.1999969482421875</AltitudeMeters>
            <DistanceMeters>NAN</DistanceMeters>
          </Trackpoint>
          <Trackpoint>
            <Time>2022-07-17T17:58:58.000Z</Time>
            <Position>
              <LatitudeDegrees>43.49485854618251323699951171875</LatitudeDegrees>
              <LongitudeDegrees>-5.5537365563213825225830078125</LongitudeDegrees>
            </Position>
            <AltitudeMeters>152.8000030517578125</AltitudeMeters>
            <DistanceMeters>NAN</DistanceMeters>
          </Trackpoint>
          <Trackpoint>
            <Time>2022-07-17T17:59:00.000Z</Time>
            <Position>
              <LatitudeDegrees>43.494859635829925537109375</LatitudeDegrees>
              <LongitudeDegrees>-5.5537083931267261505126953125</LongitudeDegrees>
            </Position>
            <AltitudeMeters>153</AltitudeMeters>
            <DistanceMeters>NAN</DistanceMeters>
          </Trackpoint>
          <Trackpoint>
            <Time>2022-07-17T17:59:06.000Z</Time>
            <Position>
              <LatitudeDegrees>43.494849242269992828369140625</LatitudeDegrees>
              <LongitudeDegrees>-5.5536068044602870941162109375</LongitudeDegrees>
            </Position>
            <AltitudeMeters>154</AltitudeMeters>
            <DistanceMeters>NAN</DistanceMeters>
          </Trackpoint>
          <Trackpoint>
            <Time>2022-07-17T17:59:09.000Z</Time>
            <Position>
              <LatitudeDegrees>43.49485401995480060577392578125</LatitudeDegrees>
              <LongitudeDegrees>-5.55354402400553226470947265625</LongitudeDegrees>
            </Position>
            <AltitudeMeters>154.600006103515625</AltitudeMeters>
            <DistanceMeters>NAN</DistanceMeters>
          </Trackpoint>
          <Trackpoint>
            <Time>2022-07-17T17:59:10.000Z</Time>
            <Position>
              <LatitudeDegrees>43.49485083483159542083740234375</LatitudeDegrees>
              <LongitudeDegrees>-5.5535263381898403167724609375</LongitudeDegrees>
            </Position>
            <AltitudeMeters>154.8000030517578125</AltitudeMeters>
            <DistanceMeters>NAN</DistanceMeters>
          </Trackpoint>
          <Trackpoint>
            <Time>2022-07-17T17:59:12.000Z</Time>
            <Position>
              <LatitudeDegrees>43.494845218956470489501953125</LatitudeDegrees>
              <LongitudeDegrees>-5.5534911341965198516845703125</LongitudeDegrees>
            </Position>
            <AltitudeMeters>155.1999969482421875</AltitudeMeters>
            <DistanceMeters>NAN</DistanceMeters>
          </Trackpoint>
          <Trackpoint>
            <Time>2022-07-17T17:59:15.000Z</Time>
            <Position>
              <LatitudeDegrees>43.49484178237617015838623046875</LatitudeDegrees>
              <LongitudeDegrees>-5.55343841202557086944580078125</LongitudeDegrees>
            </Position>
            <AltitudeMeters>155.8000030517578125</AltitudeMeters>
            <DistanceMeters>NAN</DistanceMeters>
          </Trackpoint>
          <Trackpoint>
            <Time>2022-07-17T17:59:18.000Z</Time>
            <Position>
              <LatitudeDegrees>43.49483574740588665008544921875</LatitudeDegrees>
              <LongitudeDegrees>-5.553386695683002471923828125</LongitudeDegrees>
            </Position>
            <AltitudeMeters>156.1999969482421875</AltitudeMeters>
            <DistanceMeters>NAN</DistanceMeters>
          </Trackpoint>
          <Trackpoint>
            <Time>2022-07-17T17:59:21.000Z</Time>
            <Position>
              <LatitudeDegrees>43.49483038298785686492919921875</LatitudeDegrees>
              <LongitudeDegrees>-5.5533409304916858673095703125</LongitudeDegrees>
            </Position>
            <AltitudeMeters>157</AltitudeMeters>
            <DistanceMeters>NAN</DistanceMeters>
          </Trackpoint>
          <Trackpoint>
            <Time>2022-07-17T17:59:23.000Z</Time>
            <Position>
              <LatitudeDegrees>43.49483013153076171875</LatitudeDegrees>
              <LongitudeDegrees>-5.55331134237349033355712890625</LongitudeDegrees>
            </Position>
            <AltitudeMeters>157.600006103515625</AltitudeMeters>
            <DistanceMeters>NAN</DistanceMeters>
          </Trackpoint>
          <Trackpoint>
            <Time>2022-07-17T17:59:28.000Z</Time>
            <Position>
              <LatitudeDegrees>43.49483524449169635772705078125</LatitudeDegrees>
              <LongitudeDegrees>-5.55323171429336071014404296875</LongitudeDegrees>
            </Position>
            <AltitudeMeters>158.600006103515625</AltitudeMeters>
            <DistanceMeters>NAN</DistanceMeters>
          </Trackpoint>
          <Trackpoint>
            <Time>2022-07-17T17:59:32.000Z</Time>
            <Position>
              <LatitudeDegrees>43.4948279522359371185302734375</LatitudeDegrees>
              <LongitudeDegrees>-5.55317513644695281982421875</LongitudeDegrees>
            </Position>
            <AltitudeMeters>159.600006103515625</AltitudeMeters>
            <DistanceMeters>NAN</DistanceMeters>
          </Trackpoint>
          <Trackpoint>
            <Time>2022-07-17T17:59:37.000Z</Time>
            <Position>
              <LatitudeDegrees>43.4948185645043849945068359375</LatitudeDegrees>
              <LongitudeDegrees>-5.55309198796749114990234375</LongitudeDegrees>
            </Position>
            <AltitudeMeters>160.600006103515625</AltitudeMeters>
            <DistanceMeters>NAN</DistanceMeters>
          </Trackpoint>
          <Trackpoint>
            <Time>2022-07-17T17:59:39.000Z</Time>
            <Position>
              <LatitudeDegrees>43.49481697194278240203857421875</LatitudeDegrees>
              <LongitudeDegrees>-5.55306541733443737030029296875</LongitudeDegrees>
            </Position>
            <AltitudeMeters>161.1999969482421875</AltitudeMeters>
            <DistanceMeters>NAN</DistanceMeters>
          </Trackpoint>
          <Trackpoint>
            <Time>2022-07-17T17:59:41.000Z</Time>
            <Position>
              <LatitudeDegrees>43.49482468329370021820068359375</LatitudeDegrees>
              <LongitudeDegrees>-5.55304295383393764495849609375</LongitudeDegrees>
            </Position>
            <AltitudeMeters>161.399993896484375</AltitudeMeters>
            <DistanceMeters>NAN</DistanceMeters>
          </Trackpoint>
          <Trackpoint>
            <Time>2022-07-17T17:59:44.000Z</Time>
            <Position>
              <LatitudeDegrees>43.49484932608902454376220703125</LatitudeDegrees>
              <LongitudeDegrees>-5.5530108511447906494140625</LongitudeDegrees>
            </Position>
            <AltitudeMeters>161.600006103515625</AltitudeMeters>
            <DistanceMeters>NAN</DistanceMeters>
          </Trackpoint>
          <Trackpoint>
            <Time>2022-07-17T17:59:46.000Z</Time>
            <Position>
              <LatitudeDegrees>43.49487061612308025360107421875</LatitudeDegrees>
              <LongitudeDegrees>-5.553009174764156341552734375</LongitudeDegrees>
            </Position>
            <AltitudeMeters>161.8000030517578125</AltitudeMeters>
            <DistanceMeters>NAN</DistanceMeters>
          </Trackpoint>
          <Trackpoint>
            <Time>2022-07-17T17:59:49.000Z</Time>
            <Position>
              <LatitudeDegrees>43.4948950074613094329833984375</LatitudeDegrees>
              <LongitudeDegrees>-5.55304412730038166046142578125</LongitudeDegrees>
            </Position>
            <AltitudeMeters>162</AltitudeMeters>
            <DistanceMeters>NAN</DistanceMeters>
          </Trackpoint>
          <Trackpoint>
            <Time>2022-07-17T17:59:53.000Z</Time>
            <Position>
              <LatitudeDegrees>43.49491520784795284271240234375</LatitudeDegrees>
              <LongitudeDegrees>-5.5530861206352710723876953125</LongitudeDegrees>
            </Position>
            <AltitudeMeters>162.8000030517578125</AltitudeMeters>
            <DistanceMeters>NAN</DistanceMeters>
          </Trackpoint>
          <Trackpoint>
            <Time>2022-07-17T17:59:55.000Z</Time>
            <Position>
              <LatitudeDegrees>43.49491520784795284271240234375</LatitudeDegrees>
              <LongitudeDegrees>-5.5530861206352710723876953125</LongitudeDegrees>
            </Position>
            <AltitudeMeters>162.8000030517578125</AltitudeMeters>
            <DistanceMeters>NAN</DistanceMeters>
          </Trackpoint>
          <Trackpoint>
            <Time>2022-07-17T18:00:20.000Z</Time>
            <Position>
              <LatitudeDegrees>43.494920991361141204833984375</LatitudeDegrees>
              <LongitudeDegrees>-5.5531387589871883392333984375</LongitudeDegrees>
            </Position>
            <AltitudeMeters>163</AltitudeMeters>
            <DistanceMeters>NAN</DistanceMeters>
          </Trackpoint>
          <Trackpoint>
            <Time>2022-07-17T18:00:25.000Z</Time>
            <Position>
              <LatitudeDegrees>43.49494689144194126129150390625</LatitudeDegrees>
              <LongitudeDegrees>-5.5532504059374332427978515625</LongitudeDegrees>
            </Position>
            <AltitudeMeters>163.8000030517578125</AltitudeMeters>
            <DistanceMeters>NAN</DistanceMeters>
          </Trackpoint>
          <Trackpoint>
            <Time>2022-07-17T18:00:27.000Z</Time>
            <Position>
              <LatitudeDegrees>43.49496600218117237091064453125</LatitudeDegrees>
              <LongitudeDegrees>-5.5532923154532909393310546875</LongitudeDegrees>
            </Position>
            <AltitudeMeters>164</AltitudeMeters>
            <DistanceMeters>NAN</DistanceMeters>
          </Trackpoint>
          <Trackpoint>
            <Time>2022-07-17T18:00:31.000Z</Time>
            <Position>
              <LatitudeDegrees>43.49501243792474269866943359375</LatitudeDegrees>
              <LongitudeDegrees>-5.55333548225462436676025390625</LongitudeDegrees>
            </Position>
            <AltitudeMeters>164.600006103515625</AltitudeMeters>
            <DistanceMeters>NAN</DistanceMeters>
          </Trackpoint>
          <Trackpoint>
            <Time>2022-07-17T18:00:34.000Z</Time>
            <Position>
              <LatitudeDegrees>43.495049066841602325439453125</LatitudeDegrees>
              <LongitudeDegrees>-5.5533568561077117919921875</LongitudeDegrees>
            </Position>
            <AltitudeMeters>164.8000030517578125</AltitudeMeters>
            <DistanceMeters>NAN</DistanceMeters>
          </Trackpoint>
          <Trackpoint>
            <Time>2022-07-17T18:00:36.000Z</Time>
            <Position>
              <LatitudeDegrees>43.4950700215995311737060546875</LatitudeDegrees>
              <LongitudeDegrees>-5.5533798225224018096923828125</LongitudeDegrees>
            </Position>
            <AltitudeMeters>165</AltitudeMeters>
            <DistanceMeters>NAN</DistanceMeters>
          </Trackpoint>
          <Trackpoint>
            <Time>2022-07-17T18:00:38.000Z</Time>
            <Position>
              <LatitudeDegrees>43.495088629424571990966796875</LatitudeDegrees>
              <LongitudeDegrees>-5.55339784361422061920166015625</LongitudeDegrees>
            </Position>
            <AltitudeMeters>165.1999969482421875</AltitudeMeters>
            <DistanceMeters>NAN</DistanceMeters>
          </Trackpoint>
          <Trackpoint>
            <Time>2022-07-17T18:00:42.000Z</Time>
            <Position>
              <LatitudeDegrees>43.49513933993875980377197265625</LatitudeDegrees>
              <LongitudeDegrees>-5.55344327352941036224365234375</LongitudeDegrees>
            </Position>
            <AltitudeMeters>165.8000030517578125</AltitudeMeters>
            <DistanceMeters>NAN</DistanceMeters>
          </Trackpoint>
          <Trackpoint>
            <Time>2022-07-17T18:00:45.000Z</Time>
            <Position>
              <LatitudeDegrees>43.49517487920820713043212890625</LatitudeDegrees>
              <LongitudeDegrees>-5.55346489883959293365478515625</LongitudeDegrees>
            </Position>
            <AltitudeMeters>166</AltitudeMeters>
            <DistanceMeters>NAN</DistanceMeters>
          </Trackpoint>
          <Trackpoint>
            <Time>2022-07-17T18:00:50.000Z</Time>
            <Position>
              <LatitudeDegrees>43.4952276013791561126708984375</LatitudeDegrees>
              <LongitudeDegrees>-5.5535176210105419158935546875</LongitudeDegrees>
            </Position>
            <AltitudeMeters>166.8000030517578125</AltitudeMeters>
            <DistanceMeters>NAN</DistanceMeters>
          </Trackpoint>
          <Trackpoint>
            <Time>2022-07-17T18:00:52.000Z</Time>
            <Position>
              <LatitudeDegrees>43.4952534176409244537353515625</LatitudeDegrees>
              <LongitudeDegrees>-5.553541593253612518310546875</LongitudeDegrees>
            </Position>
            <AltitudeMeters>167</AltitudeMeters>
            <DistanceMeters>NAN</DistanceMeters>
          </Trackpoint>
          <Trackpoint>
            <Time>2022-07-17T18:00:58.000Z</Time>
            <Position>
              <LatitudeDegrees>43.4953171201050281524658203125</LatitudeDegrees>
              <LongitudeDegrees>-5.553591549396514892578125</LongitudeDegrees>
            </Position>
            <AltitudeMeters>167.8000030517578125</AltitudeMeters>
            <DistanceMeters>NAN</DistanceMeters>
          </Trackpoint>
          <Trackpoint>
            <Time>2022-07-17T18:01:00.000Z</Time>
            <Position>
              <LatitudeDegrees>43.495334722101688385009765625</LatitudeDegrees>
              <LongitudeDegrees>-5.5536138452589511871337890625</LongitudeDegrees>
            </Position>
            <AltitudeMeters>168.1999969482421875</AltitudeMeters>
            <DistanceMeters>NAN</DistanceMeters>
          </Trackpoint>
          <Trackpoint>
            <Time>2022-07-17T18:01:03.000Z</Time>
            <Position>
              <LatitudeDegrees>43.4953598678112030029296875</LatitudeDegrees>
              <LongitudeDegrees>-5.55364963598549365997314453125</LongitudeDegrees>
            </Position>
            <AltitudeMeters>168.399993896484375</AltitudeMeters>
            <DistanceMeters>NAN</DistanceMeters>
          </Trackpoint>
          <Trackpoint>
            <Time>2022-07-17T18:01:05.000Z</Time>
            <Position>
              <LatitudeDegrees>43.49537872709333896636962890625</LatitudeDegrees>
              <LongitudeDegrees>-5.5536688305437564849853515625</LongitudeDegrees>
            </Position>
            <AltitudeMeters>168.600006103515625</AltitudeMeters>
            <DistanceMeters>NAN</DistanceMeters>
          </Trackpoint>
          <Trackpoint>
            <Time>2022-07-17T18:01:08.000Z</Time>
            <Position>
              <LatitudeDegrees>43.4954146854579448699951171875</LatitudeDegrees>
              <LongitudeDegrees>-5.55369439534842967987060546875</LongitudeDegrees>
            </Position>
            <AltitudeMeters>169.1999969482421875</AltitudeMeters>
            <DistanceMeters>NAN</DistanceMeters>
          </Trackpoint>
          <Trackpoint>
            <Time>2022-07-17T18:01:13.000Z</Time>
            <Position>
              <LatitudeDegrees>43.49546656943857669830322265625</LatitudeDegrees>
              <LongitudeDegrees>-5.55371233262121677398681640625</LongitudeDegrees>
            </Position>
            <AltitudeMeters>169.600006103515625</AltitudeMeters>
            <DistanceMeters>NAN</DistanceMeters>
          </Trackpoint>
          <Trackpoint>
            <Time>2022-07-17T18:01:14.000Z</Time>
            <Position>
              <LatitudeDegrees>43.49547922611236572265625</LatitudeDegrees>
              <LongitudeDegrees>-5.5537162721157073974609375</LongitudeDegrees>
            </Position>
            <AltitudeMeters>169.600006103515625</AltitudeMeters>
            <DistanceMeters>NAN</DistanceMeters>
          </Trackpoint>
          <Trackpoint>
            <Time>2022-07-17T18:01:17.000Z</Time>
            <Position>
              <LatitudeDegrees>43.49551266990602016448974609375</LatitudeDegrees>
              <LongitudeDegrees>-5.55374083109200000762939453125</LongitudeDegrees>
            </Position>
            <AltitudeMeters>170.1999969482421875</AltitudeMeters>
            <DistanceMeters>NAN</DistanceMeters>
          </Trackpoint>
          <Trackpoint>
            <Time>2022-07-17T18:01:20.000Z</Time>
            <Position>
              <LatitudeDegrees>43.4955424256622791290283203125</LatitudeDegrees>
              <LongitudeDegrees>-5.55374921299517154693603515625</LongitudeDegrees>
            </Position>
            <AltitudeMeters>170.600006103515625</AltitudeMeters>
            <DistanceMeters>NAN</DistanceMeters>
          </Trackpoint>
          <Trackpoint>
            <Time>2022-07-17T18:01:24.000Z</Time>
            <Position>
              <LatitudeDegrees>43.49557804875075817108154296875</LatitudeDegrees>
              <LongitudeDegrees>-5.5537657253444194793701171875</LongitudeDegrees>
            </Position>
            <AltitudeMeters>171</AltitudeMeters>
            <DistanceMeters>NAN</DistanceMeters>
          </Trackpoint>
          <Trackpoint>
            <Time>2022-07-17T18:01:27.000Z</Time>
            <Position>
              <LatitudeDegrees>43.49558643065392971038818359375</LatitudeDegrees>
              <LongitudeDegrees>-5.553772263228893280029296875</LongitudeDegrees>
            </Position>
            <AltitudeMeters>171.1999969482421875</AltitudeMeters>
            <DistanceMeters>NAN</DistanceMeters>
          </Trackpoint>
          <Trackpoint>
            <Time>2022-07-17T18:01:28.000Z</Time>
            <Position>
              <LatitudeDegrees>43.49558643065392971038818359375</LatitudeDegrees>
              <LongitudeDegrees>-5.553772263228893280029296875</LongitudeDegrees>
            </Position>
            <AltitudeMeters>171.1999969482421875</AltitudeMeters>
            <DistanceMeters>NAN</DistanceMeters>
          </Trackpoint>
          <Trackpoint>
            <Time>2022-07-17T18:02:50.000Z</Time>
            <Position>
              <LatitudeDegrees>43.4957103990018367767333984375</LatitudeDegrees>
              <LongitudeDegrees>-5.55385298095643520355224609375</LongitudeDegrees>
            </Position>
            <AltitudeMeters>172.399993896484375</AltitudeMeters>
            <DistanceMeters>NAN</DistanceMeters>
          </Trackpoint>
          <Trackpoint>
            <Time>2022-07-17T18:02:51.000Z</Time>
            <Position>
              <LatitudeDegrees>43.49571685306727886199951171875</LatitudeDegrees>
              <LongitudeDegrees>-5.55386907421052455902099609375</LongitudeDegrees>
            </Position>
            <AltitudeMeters>172.600006103515625</AltitudeMeters>
            <DistanceMeters>NAN</DistanceMeters>
          </Trackpoint>
          <Trackpoint>
            <Time>2022-07-17T18:02:52.000Z</Time>
            <Position>
              <LatitudeDegrees>43.49571869708597660064697265625</LatitudeDegrees>
              <LongitudeDegrees>-5.55388432927429676055908203125</LongitudeDegrees>
            </Position>
            <AltitudeMeters>172.8000030517578125</AltitudeMeters>
            <DistanceMeters>NAN</DistanceMeters>
          </Trackpoint>
          <Trackpoint>
            <Time>2022-07-17T18:02:55.000Z</Time>
            <Position>
              <LatitudeDegrees>43.49575507454574108123779296875</LatitudeDegrees>
              <LongitudeDegrees>-5.55391919799149036407470703125</LongitudeDegrees>
            </Position>
            <AltitudeMeters>173.600006103515625</AltitudeMeters>
            <DistanceMeters>NAN</DistanceMeters>
          </Trackpoint>
          <Trackpoint>
            <Time>2022-07-17T18:02:58.000Z</Time>
            <Position>
              <LatitudeDegrees>43.4957878477871417999267578125</LatitudeDegrees>
              <LongitudeDegrees>-5.553939230740070343017578125</LongitudeDegrees>
            </Position>
            <AltitudeMeters>174</AltitudeMeters>
            <DistanceMeters>NAN</DistanceMeters>
          </Trackpoint>
          <Trackpoint>
            <Time>2022-07-17T18:03:01.000Z</Time>
            <Position>
              <LatitudeDegrees>43.4958131611347198486328125</LatitudeDegrees>
              <LongitudeDegrees>-5.55395272560417652130126953125</LongitudeDegrees>
            </Position>
            <AltitudeMeters>174.1999969482421875</AltitudeMeters>
            <DistanceMeters>NAN</DistanceMeters>
          </Trackpoint>
          <Trackpoint>
            <Time>2022-07-17T18:03:04.000Z</Time>
            <Position>
              <LatitudeDegrees>43.49583235569298267364501953125</LatitudeDegrees>
              <LongitudeDegrees>-5.55398541502654552459716796875</LongitudeDegrees>
            </Position>
            <AltitudeMeters>174.8000030517578125</AltitudeMeters>
            <DistanceMeters>NAN</DistanceMeters>
          </Trackpoint>
          <Trackpoint>
            <Time>2022-07-17T18:03:09.000Z</Time>
            <Position>
              <LatitudeDegrees>43.495883233845233917236328125</LatitudeDegrees>
              <LongitudeDegrees>-5.5540185235440731048583984375</LongitudeDegrees>
            </Position>
            <AltitudeMeters>175.600006103515625</AltitudeMeters>
            <DistanceMeters>NAN</DistanceMeters>
          </Trackpoint>
          <Trackpoint>
            <Time>2022-07-17T18:03:11.000Z</Time>
            <Position>
              <LatitudeDegrees>43.49590309895575046539306640625</LatitudeDegrees>
              <LongitudeDegrees>-5.55401508696377277374267578125</LongitudeDegrees>
            </Position>
            <AltitudeMeters>175.8000030517578125</AltitudeMeters>
            <DistanceMeters>NAN</DistanceMeters>
          </Trackpoint>
          <Trackpoint>
            <Time>2022-07-17T18:03:16.000Z</Time>
            <Position>
              <LatitudeDegrees>43.4959471039474010467529296875</LatitudeDegrees>
              <LongitudeDegrees>-5.5540274083614349365234375</LongitudeDegrees>
            </Position>
            <AltitudeMeters>176.8000030517578125</AltitudeMeters>
            <DistanceMeters>NAN</DistanceMeters>
          </Trackpoint>
          <Trackpoint>
            <Time>2022-07-17T18:03:17.000Z</Time>
            <Position>
              <LatitudeDegrees>43.49596227519214153289794921875</LatitudeDegrees>
              <LongitudeDegrees>-5.55402648635208606719970703125</LongitudeDegrees>
            </Position>
            <AltitudeMeters>177</AltitudeMeters>
            <DistanceMeters>NAN</DistanceMeters>
          </Trackpoint>
          <Trackpoint>
            <Time>2022-07-17T18:03:21.000Z</Time>
            <Position>
              <LatitudeDegrees>43.49602078087627887725830078125</LatitudeDegrees>
              <LongitudeDegrees>-5.55403855629265308380126953125</LongitudeDegrees>
            </Position>
            <AltitudeMeters>177.8000030517578125</AltitudeMeters>
            <DistanceMeters>NAN</DistanceMeters>
          </Trackpoint>
          <Trackpoint>
            <Time>2022-07-17T18:03:22.000Z</Time>
            <Position>
              <LatitudeDegrees>43.49602974951267242431640625</LatitudeDegrees>
              <LongitudeDegrees>-5.554047860205173492431640625</LongitudeDegrees>
            </Position>
            <AltitudeMeters>177.8000030517578125</AltitudeMeters>
            <DistanceMeters>NAN</DistanceMeters>
          </Trackpoint>
          <Trackpoint>
            <Time>2022-07-17T18:03:23.000Z</Time>
            <Position>
              <LatitudeDegrees>43.496038801968097686767578125</LatitudeDegrees>
              <LongitudeDegrees>-5.554061271250247955322265625</LongitudeDegrees>
            </Position>
            <AltitudeMeters>178</AltitudeMeters>
            <DistanceMeters>NAN</DistanceMeters>
          </Trackpoint>
          <Trackpoint>
            <Time>2022-07-17T18:03:24.000Z</Time>
            <Position>
              <LatitudeDegrees>43.4960527159273624420166015625</LatitudeDegrees>
              <LongitudeDegrees>-5.55407577194273471832275390625</LongitudeDegrees>
            </Position>
            <AltitudeMeters>178.399993896484375</AltitudeMeters>
            <DistanceMeters>NAN</DistanceMeters>
          </Trackpoint>
          <Trackpoint>
            <Time>2022-07-17T18:03:27.000Z</Time>
            <Position>
              <LatitudeDegrees>43.4960889257490634918212890625</LatitudeDegrees>
              <LongitudeDegrees>-5.5541077069938182830810546875</LongitudeDegrees>
            </Position>
            <AltitudeMeters>179.399993896484375</AltitudeMeters>
            <DistanceMeters>NAN</DistanceMeters>
          </Trackpoint>
          <Trackpoint>
            <Time>2022-07-17T18:03:28.000Z</Time>
            <Position>
              <LatitudeDegrees>43.49610074423253536224365234375</LatitudeDegrees>
              <LongitudeDegrees>-5.554114244878292083740234375</LongitudeDegrees>
            </Position>
            <AltitudeMeters>179.600006103515625</AltitudeMeters>
            <DistanceMeters>NAN</DistanceMeters>
          </Trackpoint>
          <Trackpoint>
            <Time>2022-07-17T18:03:30.000Z</Time>
            <Position>
              <LatitudeDegrees>43.49612094461917877197265625</LatitudeDegrees>
              <LongitudeDegrees>-5.55412975139915943145751953125</LongitudeDegrees>
            </Position>
            <AltitudeMeters>180.1999969482421875</AltitudeMeters>
            <DistanceMeters>NAN</DistanceMeters>
          </Trackpoint>
          <Trackpoint>
            <Time>2022-07-17T18:03:31.000Z</Time>
            <Position>
              <LatitudeDegrees>43.49612588994204998016357421875</LatitudeDegrees>
              <LongitudeDegrees>-5.5541402287781238555908203125</LongitudeDegrees>
            </Position>
            <AltitudeMeters>180.399993896484375</AltitudeMeters>
            <DistanceMeters>NAN</DistanceMeters>
          </Trackpoint>
          <Trackpoint>
            <Time>2022-07-17T18:03:32.000Z</Time>
            <Position>
              <LatitudeDegrees>43.4961284883320331573486328125</LatitudeDegrees>
              <LongitudeDegrees>-5.5541536398231983184814453125</LongitudeDegrees>
            </Position>
            <AltitudeMeters>180.399993896484375</AltitudeMeters>
            <DistanceMeters>NAN</DistanceMeters>
          </Trackpoint>
          <Trackpoint>
            <Time>2022-07-17T18:03:33.000Z</Time>
            <Position>
              <LatitudeDegrees>43.49613360129296779632568359375</LatitudeDegrees>
              <LongitudeDegrees>-5.5541683919727802276611328125</LongitudeDegrees>
            </Position>
            <AltitudeMeters>180.8000030517578125</AltitudeMeters>
            <DistanceMeters>NAN</DistanceMeters>
          </Trackpoint>
          <Trackpoint>
            <Time>2022-07-17T18:03:37.000Z</Time>
            <Position>
              <LatitudeDegrees>43.49615355022251605987548828125</LatitudeDegrees>
              <LongitudeDegrees>-5.55422044359147548675537109375</LongitudeDegrees>
            </Position>
            <AltitudeMeters>181.399993896484375</AltitudeMeters>
            <DistanceMeters>NAN</DistanceMeters>
          </Trackpoint>
          <Trackpoint>
            <Time>2022-07-17T18:03:38.000Z</Time>
            <Position>
              <LatitudeDegrees>43.49615958519279956817626953125</LatitudeDegrees>
              <LongitudeDegrees>-5.55423201061785221099853515625</LongitudeDegrees>
            </Position>
            <AltitudeMeters>181.600006103515625</AltitudeMeters>
            <DistanceMeters>NAN</DistanceMeters>
          </Trackpoint>
          <Trackpoint>
            <Time>2022-07-17T18:03:45.000Z</Time>
            <Position>
              <LatitudeDegrees>43.4961536340415477752685546875</LatitudeDegrees>
              <LongitudeDegrees>-5.55431650020182132720947265625</LongitudeDegrees>
            </Position>
            <AltitudeMeters>182.399993896484375</AltitudeMeters>
            <DistanceMeters>NAN</DistanceMeters>
          </Trackpoint>
          <Trackpoint>
            <Time>2022-07-17T18:03:50.000Z</Time>
            <Position>
              <LatitudeDegrees>43.4961475990712642669677734375</LatitudeDegrees>
              <LongitudeDegrees>-5.554367043077945709228515625</LongitudeDegrees>
            </Position>
            <AltitudeMeters>182.8000030517578125</AltitudeMeters>
            <DistanceMeters>NAN</DistanceMeters>
          </Trackpoint>
          <Trackpoint>
            <Time>2022-07-17T18:04:46.000Z</Time>
            <Position>
              <LatitudeDegrees>43.49620752967894077301025390625</LatitudeDegrees>
              <LongitudeDegrees>-5.55457332171499729156494140625</LongitudeDegrees>
            </Position>
            <AltitudeMeters>183.399993896484375</AltitudeMeters>
            <DistanceMeters>NAN</DistanceMeters>
          </Trackpoint>
          <Trackpoint>
            <Time>2022-07-17T18:04:49.000Z</Time>
            <Position>
              <LatitudeDegrees>43.49626938812434673309326171875</LatitudeDegrees>
              <LongitudeDegrees>-5.55467491038143634796142578125</LongitudeDegrees>
            </Position>
            <AltitudeMeters>183.399993896484375</AltitudeMeters>
            <DistanceMeters>NAN</DistanceMeters>
          </Trackpoint>
          <Trackpoint>
            <Time>2022-07-17T18:04:51.000Z</Time>
            <Position>
              <LatitudeDegrees>43.4963098727166652679443359375</LatitudeDegrees>
              <LongitudeDegrees>-5.5547113716602325439453125</LongitudeDegrees>
            </Position>
            <AltitudeMeters>183.1999969482421875</AltitudeMeters>
            <DistanceMeters>NAN</DistanceMeters>
          </Trackpoint>
          <Trackpoint>
            <Time>2022-07-17T18:04:56.000Z</Time>
            <Position>
              <LatitudeDegrees>43.496428392827510833740234375</LatitudeDegrees>
              <LongitudeDegrees>-5.55481974966824054718017578125</LongitudeDegrees>
            </Position>
            <AltitudeMeters>183</AltitudeMeters>
            <DistanceMeters>NAN</DistanceMeters>
          </Trackpoint>
          <Trackpoint>
            <Time>2022-07-17T18:05:01.000Z</Time>
            <Position>
              <LatitudeDegrees>43.49649435840547084808349609375</LatitudeDegrees>
              <LongitudeDegrees>-5.55495469830930233001708984375</LongitudeDegrees>
            </Position>
            <AltitudeMeters>183.1999969482421875</AltitudeMeters>
            <DistanceMeters>NAN</DistanceMeters>
          </Trackpoint>
          <Trackpoint>
            <Time>2022-07-17T18:05:05.000Z</Time>
            <Position>
              <LatitudeDegrees>43.4964959509670734405517578125</LatitudeDegrees>
              <LongitudeDegrees>-5.55495620705187320709228515625</LongitudeDegrees>
            </Position>
            <AltitudeMeters>183.399993896484375</AltitudeMeters>
            <DistanceMeters>NAN</DistanceMeters>
          </Trackpoint>
          <Trackpoint>
            <Time>2022-07-17T18:09:02.000Z</Time>
            <Position>
              <LatitudeDegrees>43.49694983102381229400634765625</LatitudeDegrees>
              <LongitudeDegrees>-5.555940158665180206298828125</LongitudeDegrees>
            </Position>
            <AltitudeMeters>203.399993896484375</AltitudeMeters>
            <DistanceMeters>NAN</DistanceMeters>
          </Trackpoint>
          <Trackpoint>
            <Time>2022-07-17T18:09:05.000Z</Time>
            <Position>
              <LatitudeDegrees>43.49695620127022266387939453125</LatitudeDegrees>
              <LongitudeDegrees>-5.55602364242076873779296875</LongitudeDegrees>
            </Position>
            <AltitudeMeters>204.1999969482421875</AltitudeMeters>
            <DistanceMeters>NAN</DistanceMeters>
          </Trackpoint>
          <Trackpoint>
            <Time>2022-07-17T18:09:06.000Z</Time>
            <Position>
              <LatitudeDegrees>43.49695980548858642578125</LatitudeDegrees>
              <LongitudeDegrees>-5.55604510009288787841796875</LongitudeDegrees>
            </Position>
            <AltitudeMeters>204.600006103515625</AltitudeMeters>
            <DistanceMeters>NAN</DistanceMeters>
          </Trackpoint>
          <Trackpoint>
            <Time>2022-07-17T18:09:07.000Z</Time>
            <Position>
              <LatitudeDegrees>43.496967516839504241943359375</LatitudeDegrees>
              <LongitudeDegrees>-5.55606312118470668792724609375</LongitudeDegrees>
            </Position>
            <AltitudeMeters>204.600006103515625</AltitudeMeters>
            <DistanceMeters>NAN</DistanceMeters>
          </Trackpoint>
          <Trackpoint>
            <Time>2022-07-17T18:09:08.000Z</Time>
            <Position>
              <LatitudeDegrees>43.4969807602465152740478515625</LatitudeDegrees>
              <LongitudeDegrees>-5.55607502348721027374267578125</LongitudeDegrees>
            </Position>
            <AltitudeMeters>205</AltitudeMeters>
            <DistanceMeters>NAN</DistanceMeters>
          </Trackpoint>
          <Trackpoint>
            <Time>2022-07-17T18:09:10.000Z</Time>
            <Position>
              <LatitudeDegrees>43.496989645063877105712890625</LatitudeDegrees>
              <LongitudeDegrees>-5.5561002530157566070556640625</LongitudeDegrees>
            </Position>
            <AltitudeMeters>205.600006103515625</AltitudeMeters>
            <DistanceMeters>NAN</DistanceMeters>
          </Trackpoint>
          <Trackpoint>
            <Time>2022-07-17T18:09:14.000Z</Time>
            <Position>
              <LatitudeDegrees>43.496991656720638275146484375</LatitudeDegrees>
              <LongitudeDegrees>-5.5561046116054058074951171875</LongitudeDegrees>
            </Position>
            <AltitudeMeters>206</AltitudeMeters>
            <DistanceMeters>NAN</DistanceMeters>
          </Trackpoint>
          <Trackpoint>
            <Time>2022-07-17T18:09:17.000Z</Time>
            <Position>
              <LatitudeDegrees>43.496991656720638275146484375</LatitudeDegrees>
              <LongitudeDegrees>-5.5561046116054058074951171875</LongitudeDegrees>
            </Position>
            <AltitudeMeters>206</AltitudeMeters>
            <DistanceMeters>NAN</DistanceMeters>
          </Trackpoint>
          <Trackpoint>
            <Time>2022-07-17T18:27:01.000Z</Time>
            <Position>
              <LatitudeDegrees>43.4976389072835445404052734375</LatitudeDegrees>
              <LongitudeDegrees>-5.56046512909233570098876953125</LongitudeDegrees>
            </Position>
            <AltitudeMeters>256.399993896484375</AltitudeMeters>
            <DistanceMeters>NAN</DistanceMeters>
          </Trackpoint>
          <Trackpoint>
            <Time>2022-07-17T18:27:02.000Z</Time>
            <Position>
              <LatitudeDegrees>43.4976462833583354949951171875</LatitudeDegrees>
              <LongitudeDegrees>-5.56048239581286907196044921875</LongitudeDegrees>
            </Position>
            <AltitudeMeters>256.399993896484375</AltitudeMeters>
            <DistanceMeters>NAN</DistanceMeters>
          </Trackpoint>
          <Trackpoint>
            <Time>2022-07-17T18:27:03.000Z</Time>
            <Position>
              <LatitudeDegrees>43.49764502607285976409912109375</LatitudeDegrees>
              <LongitudeDegrees>-5.56049379520118236541748046875</LongitudeDegrees>
            </Position>
            <AltitudeMeters>256.600006103515625</AltitudeMeters>
            <DistanceMeters>NAN</DistanceMeters>
          </Trackpoint>
          <Trackpoint>
            <Time>2022-07-17T18:27:10.000Z</Time>
            <Position>
              <LatitudeDegrees>43.4976724348962306976318359375</LatitudeDegrees>
              <LongitudeDegrees>-5.56061315350234508514404296875</LongitudeDegrees>
            </Position>
            <AltitudeMeters>257</AltitudeMeters>
            <DistanceMeters>NAN</DistanceMeters>
          </Trackpoint>
          <Trackpoint>
            <Time>2022-07-17T18:27:19.000Z</Time>
            <Position>
              <LatitudeDegrees>43.4976925514638423919677734375</LatitudeDegrees>
              <LongitudeDegrees>-5.5607468448579311370849609375</LongitudeDegrees>
            </Position>
            <AltitudeMeters>257.600006103515625</AltitudeMeters>
            <DistanceMeters>NAN</DistanceMeters>
          </Trackpoint>
          <Trackpoint>
            <Time>2022-07-17T18:27:20.000Z</Time>
            <Position>
              <LatitudeDegrees>43.4976960718631744384765625</LatitudeDegrees>
              <LongitudeDegrees>-5.56076117791235446929931640625</LongitudeDegrees>
            </Position>
            <AltitudeMeters>257.79998779296875</AltitudeMeters>
            <DistanceMeters>NAN</DistanceMeters>
          </Trackpoint>
          <Trackpoint>
            <Time>2022-07-17T18:27:21.000Z</Time>
            <Position>
              <LatitudeDegrees>43.4977029450237751007080078125</LatitudeDegrees>
              <LongitudeDegrees>-5.56077919900417327880859375</LongitudeDegrees>
            </Position>
            <AltitudeMeters>258</AltitudeMeters>
            <DistanceMeters>NAN</DistanceMeters>
          </Trackpoint>
          <Trackpoint>
            <Time>2022-07-17T18:27:25.000Z</Time>
            <Position>
              <LatitudeDegrees>43.49773756228387355804443359375</LatitudeDegrees>
              <LongitudeDegrees>-5.56083711795508861541748046875</LongitudeDegrees>
            </Position>
            <AltitudeMeters>258.399993896484375</AltitudeMeters>
            <DistanceMeters>NAN</DistanceMeters>
          </Trackpoint>
          <Trackpoint>
            <Time>2022-07-17T18:27:27.000Z</Time>
            <Position>
              <LatitudeDegrees>43.49774636328220367431640625</LatitudeDegrees>
              <LongitudeDegrees>-5.5608750879764556884765625</LongitudeDegrees>
            </Position>
            <AltitudeMeters>258.600006103515625</AltitudeMeters>
            <DistanceMeters>NAN</DistanceMeters>
          </Trackpoint>
          <Trackpoint>
            <Time>2022-07-17T18:27:32.000Z</Time>
            <Position>
              <LatitudeDegrees>43.4977773763239383697509765625</LatitudeDegrees>
              <LongitudeDegrees>-5.56094138883054256439208984375</LongitudeDegrees>
            </Position>
            <AltitudeMeters>259.399993896484375</AltitudeMeters>
            <DistanceMeters>NAN</DistanceMeters>
          </Trackpoint>
          <Trackpoint>
            <Time>2022-07-17T18:27:33.000Z</Time>
            <Position>
              <LatitudeDegrees>43.4977773763239383697509765625</LatitudeDegrees>
              <LongitudeDegrees>-5.56094138883054256439208984375</LongitudeDegrees>
            </Position>
            <AltitudeMeters>259.79998779296875</AltitudeMeters>
            <DistanceMeters>NAN</DistanceMeters>
          </Trackpoint>
          <Trackpoint>
            <Time>2022-07-17T18:27:36.000Z</Time>
            <Position>
              <LatitudeDegrees>43.4977998398244380950927734375</LatitudeDegrees>
              <LongitudeDegrees>-5.56097106076776981353759765625</LongitudeDegrees>
            </Position>
            <AltitudeMeters>260</AltitudeMeters>
            <DistanceMeters>NAN</DistanceMeters>
          </Trackpoint>
          <Trackpoint>
            <Time>2022-07-17T18:27:39.000Z</Time>
            <Position>
              <LatitudeDegrees>43.49781702272593975067138671875</LatitudeDegrees>
              <LongitudeDegrees>-5.56101716123521327972412109375</LongitudeDegrees>
            </Position>
            <AltitudeMeters>260.399993896484375</AltitudeMeters>
            <DistanceMeters>NAN</DistanceMeters>
          </Trackpoint>
          <Trackpoint>
            <Time>2022-07-17T18:27:40.000Z</Time>
            <Position>
              <LatitudeDegrees>43.49782205186784267425537109375</LatitudeDegrees>
              <LongitudeDegrees>-5.561029650270938873291015625</LongitudeDegrees>
            </Position>
            <AltitudeMeters>260.79998779296875</AltitudeMeters>
            <DistanceMeters>NAN</DistanceMeters>
          </Trackpoint>
          <Trackpoint>
            <Time>2022-07-17T18:27:42.000Z</Time>
            <Position>
              <LatitudeDegrees>43.49782951176166534423828125</LatitudeDegrees>
              <LongitudeDegrees>-5.5610596574842929840087890625</LongitudeDegrees>
            </Position>
            <AltitudeMeters>261</AltitudeMeters>
            <DistanceMeters>NAN</DistanceMeters>
          </Trackpoint>
          <Trackpoint>
            <Time>2022-07-17T18:27:45.000Z</Time>
            <Position>
              <LatitudeDegrees>43.49783345125615596771240234375</LatitudeDegrees>
              <LongitudeDegrees>-5.5611089430749416351318359375</LongitudeDegrees>
            </Position>
            <AltitudeMeters>261.600006103515625</AltitudeMeters>
            <DistanceMeters>NAN</DistanceMeters>
          </Trackpoint>
          <Trackpoint>
            <Time>2022-07-17T18:27:46.000Z</Time>
            <Position>
              <LatitudeDegrees>43.4978353790938854217529296875</LatitudeDegrees>
              <LongitudeDegrees>-5.5611245334148406982421875</LongitudeDegrees>
            </Position>
            <AltitudeMeters>261.79998779296875</AltitudeMeters>
            <DistanceMeters>NAN</DistanceMeters>
          </Trackpoint>
          <Trackpoint>
            <Time>2022-07-17T18:27:52.000Z</Time>
            <Position>
              <LatitudeDegrees>43.497855998575687408447265625</LatitudeDegrees>
              <LongitudeDegrees>-5.5612264573574066162109375</LongitudeDegrees>
            </Position>
            <AltitudeMeters>263</AltitudeMeters>
            <DistanceMeters>NAN</DistanceMeters>
          </Trackpoint>
          <Trackpoint>
            <Time>2022-07-17T18:27:54.000Z</Time>
            <Position>
              <LatitudeDegrees>43.49785759113729000091552734375</LatitudeDegrees>
              <LongitudeDegrees>-5.56124716065824031829833984375</LongitudeDegrees>
            </Position>
            <AltitudeMeters>263.20001220703125</AltitudeMeters>
            <DistanceMeters>NAN</DistanceMeters>
          </Trackpoint>
          <Trackpoint>
            <Time>2022-07-17T18:27:59.000Z</Time>
            <Position>
              <LatitudeDegrees>43.497885502874851226806640625</LatitudeDegrees>
              <LongitudeDegrees>-5.5613235197961330413818359375</LongitudeDegrees>
            </Position>
            <AltitudeMeters>264</AltitudeMeters>
            <DistanceMeters>NAN</DistanceMeters>
          </Trackpoint>
          <Trackpoint>
            <Time>2022-07-17T18:28:01.000Z</Time>
            <Position>
              <LatitudeDegrees>43.49789463914930820465087890625</LatitudeDegrees>
              <LongitudeDegrees>-5.5613525211811065673828125</LongitudeDegrees>
            </Position>
            <AltitudeMeters>264.399993896484375</AltitudeMeters>
            <DistanceMeters>NAN</DistanceMeters>
          </Trackpoint>
          <Trackpoint>
            <Time>2022-07-17T18:28:02.000Z</Time>
            <Position>
              <LatitudeDegrees>43.49790972657501697540283203125</LatitudeDegrees>
              <LongitudeDegrees>-5.561383701860904693603515625</LongitudeDegrees>
            </Position>
            <AltitudeMeters>264.600006103515625</AltitudeMeters>
            <DistanceMeters>NAN</DistanceMeters>
          </Trackpoint>
          <Trackpoint>
            <Time>2022-07-17T18:28:05.000Z</Time>
            <Position>
              <LatitudeDegrees>43.497919030487537384033203125</LatitudeDegrees>
              <LongitudeDegrees>-5.561397783458232879638671875</LongitudeDegrees>
            </Position>
            <AltitudeMeters>265.20001220703125</AltitudeMeters>
            <DistanceMeters>NAN</DistanceMeters>
          </Trackpoint>
          <Trackpoint>
            <Time>2022-07-17T18:28:11.000Z</Time>
            <Position>
              <LatitudeDegrees>43.49793084897100925445556640625</LatitudeDegrees>
              <LongitudeDegrees>-5.56150884367525577545166015625</LongitudeDegrees>
            </Position>
            <AltitudeMeters>266</AltitudeMeters>
            <DistanceMeters>NAN</DistanceMeters>
          </Trackpoint>
          <Trackpoint>
            <Time>2022-07-17T18:28:13.000Z</Time>
            <Position>
              <LatitudeDegrees>43.49793889559805393218994140625</LatitudeDegrees>
              <LongitudeDegrees>-5.56153918616473674774169921875</LongitudeDegrees>
            </Position>
            <AltitudeMeters>266.20001220703125</AltitudeMeters>
            <DistanceMeters>NAN</DistanceMeters>
          </Trackpoint>
          <Trackpoint>
            <Time>2022-07-17T18:28:18.000Z</Time>
            <Position>
              <LatitudeDegrees>43.497965298593044281005859375</LatitudeDegrees>
              <LongitudeDegrees>-5.56159718893468379974365234375</LongitudeDegrees>
            </Position>
            <AltitudeMeters>266.79998779296875</AltitudeMeters>
            <DistanceMeters>NAN</DistanceMeters>
          </Trackpoint>
          <Trackpoint>
            <Time>2022-07-17T18:28:20.000Z</Time>
            <Position>
              <LatitudeDegrees>43.49796622060239315032958984375</LatitudeDegrees>
              <LongitudeDegrees>-5.56161629967391490936279296875</LongitudeDegrees>
            </Position>
            <AltitudeMeters>267</AltitudeMeters>
            <DistanceMeters>NAN</DistanceMeters>
          </Trackpoint>
          <Trackpoint>
            <Time>2022-07-17T18:28:22.000Z</Time>
            <Position>
              <LatitudeDegrees>43.497970998287200927734375</LatitudeDegrees>
              <LongitudeDegrees>-5.56164127774536609649658203125</LongitudeDegrees>
            </Position>
            <AltitudeMeters>267.399993896484375</AltitudeMeters>
            <DistanceMeters>NAN</DistanceMeters>
          </Trackpoint>
          <Trackpoint>
            <Time>2022-07-17T18:28:28.000Z</Time>
            <Position>
              <LatitudeDegrees>43.49799253977835178375244140625</LatitudeDegrees>
              <LongitudeDegrees>-5.56172710843384265899658203125</LongitudeDegrees>
            </Position>
            <AltitudeMeters>268</AltitudeMeters>
            <DistanceMeters>NAN</DistanceMeters>
          </Trackpoint>
          <Trackpoint>
            <Time>2022-07-17T18:28:29.000Z</Time>
            <Position>
              <LatitudeDegrees>43.49799580872058868408203125</LatitudeDegrees>
              <LongitudeDegrees>-5.561736412346363067626953125</LongitudeDegrees>
            </Position>
            <AltitudeMeters>268.20001220703125</AltitudeMeters>
            <DistanceMeters>NAN</DistanceMeters>
          </Trackpoint>
          <Trackpoint>
            <Time>2022-07-17T18:28:30.000Z</Time>
            <Position>
              <LatitudeDegrees>43.4979979880154132843017578125</LatitudeDegrees>
              <LongitudeDegrees>-5.56175862438976764678955078125</LongitudeDegrees>
            </Position>
            <AltitudeMeters>268.600006103515625</AltitudeMeters>
            <DistanceMeters>NAN</DistanceMeters>
          </Trackpoint>
          <Trackpoint>
            <Time>2022-07-17T18:28:35.000Z</Time>
            <Position>
              <LatitudeDegrees>43.49801324307918548583984375</LatitudeDegrees>
              <LongitudeDegrees>-5.561843030154705047607421875</LongitudeDegrees>
            </Position>
            <AltitudeMeters>269.20001220703125</AltitudeMeters>
            <DistanceMeters>NAN</DistanceMeters>
          </Trackpoint>
          <Trackpoint>
            <Time>2022-07-17T18:28:37.000Z</Time>
            <Position>
              <LatitudeDegrees>43.49801802076399326324462890625</LatitudeDegrees>
              <LongitudeDegrees>-5.561868846416473388671875</LongitudeDegrees>
            </Position>
            <AltitudeMeters>269.600006103515625</AltitudeMeters>
            <DistanceMeters>NAN</DistanceMeters>
          </Trackpoint>
          <Trackpoint>
            <Time>2022-07-17T18:28:41.000Z</Time>
            <Position>
              <LatitudeDegrees>43.4980358742177486419677734375</LatitudeDegrees>
              <LongitudeDegrees>-5.56192810647189617156982421875</LongitudeDegrees>
            </Position>
            <AltitudeMeters>270.600006103515625</AltitudeMeters>
            <DistanceMeters>NAN</DistanceMeters>
          </Trackpoint>
          <Trackpoint>
            <Time>2022-07-17T18:28:44.000Z</Time>
            <Position>
              <LatitudeDegrees>43.4980449266731739044189453125</LatitudeDegrees>
              <LongitudeDegrees>-5.56197186000645160675048828125</LongitudeDegrees>
            </Position>
            <AltitudeMeters>271</AltitudeMeters>
            <DistanceMeters>NAN</DistanceMeters>
          </Trackpoint>
          <Trackpoint>
            <Time>2022-07-17T18:28:48.000Z</Time>
            <Position>
              <LatitudeDegrees>43.49805272184312343597412109375</LatitudeDegrees>
              <LongitudeDegrees>-5.5620383284986019134521484375</LongitudeDegrees>
            </Position>
            <AltitudeMeters>271.79998779296875</AltitudeMeters>
            <DistanceMeters>NAN</DistanceMeters>
          </Trackpoint>
          <Trackpoint>
            <Time>2022-07-17T18:28:52.000Z</Time>
            <Position>
              <LatitudeDegrees>43.49804274737834930419921875</LatitudeDegrees>
              <LongitudeDegrees>-5.56209616363048553466796875</LongitudeDegrees>
            </Position>
            <AltitudeMeters>272.600006103515625</AltitudeMeters>
            <DistanceMeters>NAN</DistanceMeters>
          </Trackpoint>
          <Trackpoint>
            <Time>2022-07-17T18:28:53.000Z</Time>
            <Position>
              <LatitudeDegrees>43.49803864024579524993896484375</LatitudeDegrees>
              <LongitudeDegrees>-5.56212726049125194549560546875</LongitudeDegrees>
            </Position>
            <AltitudeMeters>272.79998779296875</AltitudeMeters>
            <DistanceMeters>NAN</DistanceMeters>
          </Trackpoint>
          <Trackpoint>
            <Time>2022-07-17T18:28:56.000Z</Time>
            <Position>
              <LatitudeDegrees>43.49804718978703022003173828125</LatitudeDegrees>
              <LongitudeDegrees>-5.5621741153299808502197265625</LongitudeDegrees>
            </Position>
            <AltitudeMeters>273.600006103515625</AltitudeMeters>
            <DistanceMeters>NAN</DistanceMeters>
          </Trackpoint>
          <Trackpoint>
            <Time>2022-07-17T18:28:57.000Z</Time>
            <Position>
              <LatitudeDegrees>43.49804718978703022003173828125</LatitudeDegrees>
              <LongitudeDegrees>-5.5621741153299808502197265625</LongitudeDegrees>
            </Position>
            <AltitudeMeters>273.79998779296875</AltitudeMeters>
            <DistanceMeters>NAN</DistanceMeters>
          </Trackpoint>
          <Trackpoint>
            <Time>2022-07-17T18:28:59.000Z</Time>
            <Position>
              <LatitudeDegrees>43.49804006516933441162109375</LatitudeDegrees>
              <LongitudeDegrees>-5.562225244939327239990234375</LongitudeDegrees>
            </Position>
            <AltitudeMeters>274.20001220703125</AltitudeMeters>
            <DistanceMeters>NAN</DistanceMeters>
          </Trackpoint>
          <Trackpoint>
            <Time>2022-07-17T18:29:01.000Z</Time>
            <Position>
              <LatitudeDegrees>43.498035706579685211181640625</LatitudeDegrees>
              <LongitudeDegrees>-5.56225734762847423553466796875</LongitudeDegrees>
            </Position>
            <AltitudeMeters>275</AltitudeMeters>
            <DistanceMeters>NAN</DistanceMeters>
          </Trackpoint>
          <Trackpoint>
            <Time>2022-07-17T18:29:02.000Z</Time>
            <Position>
              <LatitudeDegrees>43.498035706579685211181640625</LatitudeDegrees>
              <LongitudeDegrees>-5.56225734762847423553466796875</LongitudeDegrees>
            </Position>
            <AltitudeMeters>275</AltitudeMeters>
            <DistanceMeters>NAN</DistanceMeters>
          </Trackpoint>
          <Trackpoint>
            <Time>2022-07-17T18:29:06.000Z</Time>
            <Position>
              <LatitudeDegrees>43.4980362094938755035400390625</LatitudeDegrees>
              <LongitudeDegrees>-5.562335550785064697265625</LongitudeDegrees>
            </Position>
            <AltitudeMeters>276.20001220703125</AltitudeMeters>
            <DistanceMeters>NAN</DistanceMeters>
          </Trackpoint>
          <Trackpoint>
            <Time>2022-07-17T18:29:11.000Z</Time>
            <Position>
              <LatitudeDegrees>43.4980479441583156585693359375</LatitudeDegrees>
              <LongitudeDegrees>-5.56241677142679691314697265625</LongitudeDegrees>
            </Position>
            <AltitudeMeters>277.600006103515625</AltitudeMeters>
            <DistanceMeters>NAN</DistanceMeters>
          </Trackpoint>
          <Trackpoint>
            <Time>2022-07-17T18:29:14.000Z</Time>
            <Position>
              <LatitudeDegrees>43.498065210878849029541015625</LatitudeDegrees>
              <LongitudeDegrees>-5.56246873922646045684814453125</LongitudeDegrees>
            </Position>
            <AltitudeMeters>278.20001220703125</AltitudeMeters>
            <DistanceMeters>NAN</DistanceMeters>
          </Trackpoint>
          <Trackpoint>
            <Time>2022-07-17T18:29:17.000Z</Time>
            <Position>
              <LatitudeDegrees>43.49808960221707820892333984375</LatitudeDegrees>
              <LongitudeDegrees>-5.56250930763781070709228515625</LongitudeDegrees>
            </Position>
            <AltitudeMeters>278.79998779296875</AltitudeMeters>
            <DistanceMeters>NAN</DistanceMeters>
          </Trackpoint>
          <Trackpoint>
            <Time>2022-07-17T18:29:23.000Z</Time>
            <Position>
              <LatitudeDegrees>43.4981391392648220062255859375</LatitudeDegrees>
              <LongitudeDegrees>-5.56256613694131374359130859375</LongitudeDegrees>
            </Position>
            <AltitudeMeters>279.20001220703125</AltitudeMeters>
            <DistanceMeters>NAN</DistanceMeters>
          </Trackpoint>
          <Trackpoint>
            <Time>2022-07-17T18:29:26.000Z</Time>
            <Position>
              <LatitudeDegrees>43.498171158134937286376953125</LatitudeDegrees>
              <LongitudeDegrees>-5.562593042850494384765625</LongitudeDegrees>
            </Position>
            <AltitudeMeters>279.79998779296875</AltitudeMeters>
            <DistanceMeters>NAN</DistanceMeters>
          </Trackpoint>
          <Trackpoint>
            <Time>2022-07-17T18:29:32.000Z</Time>
            <Position>
              <LatitudeDegrees>43.49822756834328174591064453125</LatitudeDegrees>
              <LongitudeDegrees>-5.56266705505549907684326171875</LongitudeDegrees>
            </Position>
            <AltitudeMeters>280.399993896484375</AltitudeMeters>
            <DistanceMeters>NAN</DistanceMeters>
          </Trackpoint>
          <Trackpoint>
            <Time>2022-07-17T18:29:34.000Z</Time>
            <Position>
              <LatitudeDegrees>43.49824726581573486328125</LatitudeDegrees>
              <LongitudeDegrees>-5.562691949307918548583984375</LongitudeDegrees>
            </Position>
            <AltitudeMeters>280.600006103515625</AltitudeMeters>
            <DistanceMeters>NAN</DistanceMeters>
          </Trackpoint>
          <Trackpoint>
            <Time>2022-07-17T18:29:39.000Z</Time>
            <Position>
              <LatitudeDegrees>43.498297221958637237548828125</LatitudeDegrees>
              <LongitudeDegrees>-5.562734194099903106689453125</LongitudeDegrees>
            </Position>
            <AltitudeMeters>280.79998779296875</AltitudeMeters>
            <DistanceMeters>NAN</DistanceMeters>
          </Trackpoint>
          <Trackpoint>
            <Time>2022-07-17T18:29:40.000Z</Time>
            <Position>
              <LatitudeDegrees>43.4983094595372676849365234375</LatitudeDegrees>
              <LongitudeDegrees>-5.56274584494531154632568359375</LongitudeDegrees>
            </Position>
            <AltitudeMeters>280.79998779296875</AltitudeMeters>
            <DistanceMeters>NAN</DistanceMeters>
          </Trackpoint>
          <Trackpoint>
            <Time>2022-07-17T18:29:43.000Z</Time>
            <Position>
              <LatitudeDegrees>43.49836251698434352874755859375</LatitudeDegrees>
              <LongitudeDegrees>-5.56280552409589290618896484375</LongitudeDegrees>
            </Position>
            <AltitudeMeters>280.79998779296875</AltitudeMeters>
            <DistanceMeters>NAN</DistanceMeters>
          </Trackpoint>
          <Trackpoint>
            <Time>2022-07-17T18:29:48.000Z</Time>
            <Position>
              <LatitudeDegrees>43.49844180978834629058837890625</LatitudeDegrees>
              <LongitudeDegrees>-5.56291499175131320953369140625</LongitudeDegrees>
            </Position>
            <AltitudeMeters>280.79998779296875</AltitudeMeters>
            <DistanceMeters>NAN</DistanceMeters>
          </Trackpoint>
          <Trackpoint>
            <Time>2022-07-17T18:29:50.000Z</Time>
            <Position>
              <LatitudeDegrees>43.49847751669585704803466796875</LatitudeDegrees>
              <LongitudeDegrees>-5.56295656599104404449462890625</LongitudeDegrees>
            </Position>
            <AltitudeMeters>280.600006103515625</AltitudeMeters>
            <DistanceMeters>NAN</DistanceMeters>
          </Trackpoint>
          <Trackpoint>
            <Time>2022-07-17T18:29:55.000Z</Time>
            <Position>
              <LatitudeDegrees>43.498556055128574371337890625</LatitudeDegrees>
              <LongitudeDegrees>-5.5630609206855297088623046875</LongitudeDegrees>
            </Position>
            <AltitudeMeters>279.79998779296875</AltitudeMeters>
            <DistanceMeters>NAN</DistanceMeters>
          </Trackpoint>
          <Trackpoint>
            <Time>2022-07-17T18:29:56.000Z</Time>
            <Position>
              <LatitudeDegrees>43.498565442860126495361328125</LatitudeDegrees>
              <LongitudeDegrees>-5.56307910941541194915771484375</LongitudeDegrees>
            </Position>
            <AltitudeMeters>279.600006103515625</AltitudeMeters>
            <DistanceMeters>NAN</DistanceMeters>
          </Trackpoint>
          <Trackpoint>
            <Time>2022-07-17T18:29:59.000Z</Time>
            <Position>
              <LatitudeDegrees>43.498576171696186065673828125</LatitudeDegrees>
              <LongitudeDegrees>-5.56309520266950130462646484375</LongitudeDegrees>
            </Position>
            <AltitudeMeters>279.399993896484375</AltitudeMeters>
            <DistanceMeters>NAN</DistanceMeters>
          </Trackpoint>
          <Trackpoint>
            <Time>2022-07-17T18:30:01.000Z</Time>
            <Position>
              <LatitudeDegrees>43.498578183352947235107421875</LatitudeDegrees>
              <LongitudeDegrees>-5.56309453211724758148193359375</LongitudeDegrees>
            </Position>
            <AltitudeMeters>279.20001220703125</AltitudeMeters>
            <DistanceMeters>NAN</DistanceMeters>
          </Trackpoint>
          <Trackpoint>
            <Time>2022-07-17T18:32:08.000Z</Time>
            <Position>
              <LatitudeDegrees>43.49858715198934078216552734375</LatitudeDegrees>
              <LongitudeDegrees>-5.56312571279704570770263671875</LongitudeDegrees>
            </Position>
            <AltitudeMeters>279.79998779296875</AltitudeMeters>
            <DistanceMeters>NAN</DistanceMeters>
          </Trackpoint>
          <Trackpoint>
            <Time>2022-07-17T18:32:10.000Z</Time>
            <Position>
              <LatitudeDegrees>43.49862352944910526275634765625</LatitudeDegrees>
              <LongitudeDegrees>-5.5632392875850200653076171875</LongitudeDegrees>
            </Position>
            <AltitudeMeters>279.79998779296875</AltitudeMeters>
            <DistanceMeters>NAN</DistanceMeters>
          </Trackpoint>
          <Trackpoint>
            <Time>2022-07-17T18:32:11.000Z</Time>
            <Position>
              <LatitudeDegrees>43.4986487589776515960693359375</LatitudeDegrees>
              <LongitudeDegrees>-5.56330181658267974853515625</LongitudeDegrees>
            </Position>
            <AltitudeMeters>279.79998779296875</AltitudeMeters>
            <DistanceMeters>NAN</DistanceMeters>
          </Trackpoint>
          <Trackpoint>
            <Time>2022-07-17T18:32:15.000Z</Time>
            <Position>
              <LatitudeDegrees>43.4987701289355754852294921875</LatitudeDegrees>
              <LongitudeDegrees>-5.56352552957832813262939453125</LongitudeDegrees>
            </Position>
            <AltitudeMeters>279.20001220703125</AltitudeMeters>
            <DistanceMeters>NAN</DistanceMeters>
          </Trackpoint>
          <Trackpoint>
            <Time>2022-07-17T18:32:18.000Z</Time>
            <Position>
              <LatitudeDegrees>43.49889426492154598236083984375</LatitudeDegrees>
              <LongitudeDegrees>-5.56375402025878429412841796875</LongitudeDegrees>
            </Position>
            <AltitudeMeters>278.600006103515625</AltitudeMeters>
            <DistanceMeters>NAN</DistanceMeters>
          </Trackpoint>
          <Trackpoint>
            <Time>2022-07-17T18:32:20.000Z</Time>
            <Position>
              <LatitudeDegrees>43.49896651692688465118408203125</LatitudeDegrees>
              <LongitudeDegrees>-5.56390623562037944793701171875</LongitudeDegrees>
            </Position>
            <AltitudeMeters>277.600006103515625</AltitudeMeters>
            <DistanceMeters>NAN</DistanceMeters>
          </Trackpoint>
          <Trackpoint>
            <Time>2022-07-17T18:32:21.000Z</Time>
            <Position>
              <LatitudeDegrees>43.4989957697689533233642578125</LatitudeDegrees>
              <LongitudeDegrees>-5.5639634840190410614013671875</LongitudeDegrees>
            </Position>
            <AltitudeMeters>277</AltitudeMeters>
            <DistanceMeters>NAN</DistanceMeters>
          </Trackpoint>
          <Trackpoint>
            <Time>2022-07-17T18:32:22.000Z</Time>
            <Position>
              <LatitudeDegrees>43.49903583526611328125</LatitudeDegrees>
              <LongitudeDegrees>-5.56404269300401210784912109375</LongitudeDegrees>
            </Position>
            <AltitudeMeters>276.399993896484375</AltitudeMeters>
            <DistanceMeters>NAN</DistanceMeters>
          </Trackpoint>
          <Trackpoint>
            <Time>2022-07-17T18:32:24.000Z</Time>
            <Position>
              <LatitudeDegrees>43.4991203248500823974609375</LatitudeDegrees>
              <LongitudeDegrees>-5.56420647539198398590087890625</LongitudeDegrees>
            </Position>
            <AltitudeMeters>275.20001220703125</AltitudeMeters>
            <DistanceMeters>NAN</DistanceMeters>
          </Trackpoint>
          <Trackpoint>
            <Time>2022-07-17T18:32:26.000Z</Time>
            <Position>
              <LatitudeDegrees>43.49918427877128124237060546875</LatitudeDegrees>
              <LongitudeDegrees>-5.56433153338730335235595703125</LongitudeDegrees>
            </Position>
            <AltitudeMeters>274</AltitudeMeters>
            <DistanceMeters>NAN</DistanceMeters>
          </Trackpoint>
          <Trackpoint>
            <Time>2022-07-17T18:32:28.000Z</Time>
            <Position>
              <LatitudeDegrees>43.49925451911985874176025390625</LatitudeDegrees>
              <LongitudeDegrees>-5.564474277198314666748046875</LongitudeDegrees>
            </Position>
            <AltitudeMeters>272.79998779296875</AltitudeMeters>
            <DistanceMeters>NAN</DistanceMeters>
          </Trackpoint>
          <Trackpoint>
            <Time>2022-07-17T18:32:29.000Z</Time>
            <Position>
              <LatitudeDegrees>43.4992834366858005523681640625</LatitudeDegrees>
              <LongitudeDegrees>-5.56452901102602481842041015625</LongitudeDegrees>
            </Position>
            <AltitudeMeters>272.20001220703125</AltitudeMeters>
            <DistanceMeters>NAN</DistanceMeters>
          </Trackpoint>
          <Trackpoint>
            <Time>2022-07-17T18:32:30.000Z</Time>
            <Position>
              <LatitudeDegrees>43.49930942058563232421875</LatitudeDegrees>
              <LongitudeDegrees>-5.564577542245388031005859375</LongitudeDegrees>
            </Position>
            <AltitudeMeters>271.600006103515625</AltitudeMeters>
            <DistanceMeters>NAN</DistanceMeters>
          </Trackpoint>
          <Trackpoint>
            <Time>2022-07-17T18:32:32.000Z</Time>
            <Position>
              <LatitudeDegrees>43.49935158155858516693115234375</LatitudeDegrees>
              <LongitudeDegrees>-5.56466530077159404754638671875</LongitudeDegrees>
            </Position>
            <AltitudeMeters>270.20001220703125</AltitudeMeters>
            <DistanceMeters>NAN</DistanceMeters>
          </Trackpoint>
          <Trackpoint>
            <Time>2022-07-17T18:32:34.000Z</Time>
            <Position>
              <LatitudeDegrees>43.4994105063378810882568359375</LatitudeDegrees>
              <LongitudeDegrees>-5.56479304097592830657958984375</LongitudeDegrees>
            </Position>
            <AltitudeMeters>269.600006103515625</AltitudeMeters>
            <DistanceMeters>NAN</DistanceMeters>
          </Trackpoint>
          <Trackpoint>
            <Time>2022-07-17T18:32:36.000Z</Time>
            <Position>
              <LatitudeDegrees>43.49946188740432262420654296875</LatitudeDegrees>
              <LongitudeDegrees>-5.564931593835353851318359375</LongitudeDegrees>
            </Position>
            <AltitudeMeters>269</AltitudeMeters>
            <DistanceMeters>NAN</DistanceMeters>
          </Trackpoint>
          <Trackpoint>
            <Time>2022-07-17T18:32:39.000Z</Time>
            <Position>
              <LatitudeDegrees>43.49954704754054546356201171875</LatitudeDegrees>
              <LongitudeDegrees>-5.5651532113552093505859375</LongitudeDegrees>
            </Position>
            <AltitudeMeters>267.79998779296875</AltitudeMeters>
            <DistanceMeters>NAN</DistanceMeters>
          </Trackpoint>
          <Trackpoint>
            <Time>2022-07-17T18:32:40.000Z</Time>
            <Position>
              <LatitudeDegrees>43.49957772530615329742431640625</LatitudeDegrees>
              <LongitudeDegrees>-5.5652321688830852508544921875</LongitudeDegrees>
            </Position>
            <AltitudeMeters>267.20001220703125</AltitudeMeters>
            <DistanceMeters>NAN</DistanceMeters>
          </Trackpoint>
          <Trackpoint>
            <Time>2022-07-17T18:32:41.000Z</Time>
            <Position>
              <LatitudeDegrees>43.49960739724338054656982421875</LatitudeDegrees>
              <LongitudeDegrees>-5.5653087794780731201171875</LongitudeDegrees>
            </Position>
            <AltitudeMeters>266.79998779296875</AltitudeMeters>
            <DistanceMeters>NAN</DistanceMeters>
          </Trackpoint>
          <Trackpoint>
            <Time>2022-07-17T18:32:44.000Z</Time>
            <Position>
              <LatitudeDegrees>43.49969725124537944793701171875</LatitudeDegrees>
              <LongitudeDegrees>-5.56552729569375514984130859375</LongitudeDegrees>
            </Position>
            <AltitudeMeters>265.20001220703125</AltitudeMeters>
            <DistanceMeters>NAN</DistanceMeters>
          </Trackpoint>
          <Trackpoint>
            <Time>2022-07-17T18:32:47.000Z</Time>
            <Position>
              <LatitudeDegrees>43.49978023208677768707275390625</LatitudeDegrees>
              <LongitudeDegrees>-5.56572292931377887725830078125</LongitudeDegrees>
            </Position>
            <AltitudeMeters>264</AltitudeMeters>
            <DistanceMeters>NAN</DistanceMeters>
          </Trackpoint>
          <Trackpoint>
            <Time>2022-07-17T18:32:50.000Z</Time>
            <Position>
              <LatitudeDegrees>43.49986371584236621856689453125</LatitudeDegrees>
              <LongitudeDegrees>-5.565907917916774749755859375</LongitudeDegrees>
            </Position>
            <AltitudeMeters>262.600006103515625</AltitudeMeters>
            <DistanceMeters>NAN</DistanceMeters>
          </Trackpoint>
          <Trackpoint>
            <Time>2022-07-17T18:32:53.000Z</Time>
            <Position>
              <LatitudeDegrees>43.49993580020964145660400390625</LatitudeDegrees>
              <LongitudeDegrees>-5.56608586572110652923583984375</LongitudeDegrees>
            </Position>
            <AltitudeMeters>261.20001220703125</AltitudeMeters>
            <DistanceMeters>NAN</DistanceMeters>
          </Trackpoint>
          <Trackpoint>
            <Time>2022-07-17T18:32:55.000Z</Time>
            <Position>
              <LatitudeDegrees>43.4999791346490383148193359375</LatitudeDegrees>
              <LongitudeDegrees>-5.56621427647769451141357421875</LongitudeDegrees>
            </Position>
            <AltitudeMeters>260</AltitudeMeters>
            <DistanceMeters>NAN</DistanceMeters>
          </Trackpoint>
          <Trackpoint>
            <Time>2022-07-17T18:32:57.000Z</Time>
            <Position>
              <LatitudeDegrees>43.50001676939427852630615234375</LatitudeDegrees>
              <LongitudeDegrees>-5.5663602054119110107421875</LongitudeDegrees>
            </Position>
            <AltitudeMeters>259</AltitudeMeters>
            <DistanceMeters>NAN</DistanceMeters>
          </Trackpoint>
          <Trackpoint>
            <Time>2022-07-17T18:32:58.000Z</Time>
            <Position>
              <LatitudeDegrees>43.500032611191272735595703125</LatitudeDegrees>
              <LongitudeDegrees>-5.56643689982593059539794921875</LongitudeDegrees>
            </Position>
            <AltitudeMeters>258.79998779296875</AltitudeMeters>
            <DistanceMeters>NAN</DistanceMeters>
          </Trackpoint>
          <Trackpoint>
            <Time>2022-07-17T18:33:02.000Z</Time>
            <Position>
              <LatitudeDegrees>43.500070162117481231689453125</LatitudeDegrees>
              <LongitudeDegrees>-5.5667586810886859893798828125</LongitudeDegrees>
            </Position>
            <AltitudeMeters>257.600006103515625</AltitudeMeters>
            <DistanceMeters>NAN</DistanceMeters>
          </Trackpoint>
          <Trackpoint>
            <Time>2022-07-17T18:33:03.000Z</Time>
            <Position>
              <LatitudeDegrees>43.5000736825168132781982421875</LatitudeDegrees>
              <LongitudeDegrees>-5.56684224866330623626708984375</LongitudeDegrees>
            </Position>
            <AltitudeMeters>257</AltitudeMeters>
            <DistanceMeters>NAN</DistanceMeters>
          </Trackpoint>
          <Trackpoint>
            <Time>2022-07-17T18:33:04.000Z</Time>
            <Position>
              <LatitudeDegrees>43.50007695145905017852783203125</LatitudeDegrees>
              <LongitudeDegrees>-5.56692858226597309112548828125</LongitudeDegrees>
            </Position>
            <AltitudeMeters>256.399993896484375</AltitudeMeters>
            <DistanceMeters>NAN</DistanceMeters>
          </Trackpoint>
          <Trackpoint>
            <Time>2022-07-17T18:33:06.000Z</Time>
            <Position>
              <LatitudeDegrees>43.5000907815992832183837890625</LatitudeDegrees>
              <LongitudeDegrees>-5.56711013428866863250732421875</LongitudeDegrees>
            </Position>
            <AltitudeMeters>255.399993896484375</AltitudeMeters>
            <DistanceMeters>NAN</DistanceMeters>
          </Trackpoint>
          <Trackpoint>
            <Time>2022-07-17T18:33:08.000Z</Time>
            <Position>
              <LatitudeDegrees>43.500103019177913665771484375</LatitudeDegrees>
              <LongitudeDegrees>-5.56729855947196483612060546875</LongitudeDegrees>
            </Position>
            <AltitudeMeters>254.1999969482421875</AltitudeMeters>
            <DistanceMeters>NAN</DistanceMeters>
          </Trackpoint>
          <Trackpoint>
            <Time>2022-07-17T18:33:09.000Z</Time>
            <Position>
              <LatitudeDegrees>43.50010947324335575103759765625</LatitudeDegrees>
              <LongitudeDegrees>-5.56739193387329578399658203125</LongitudeDegrees>
            </Position>
            <AltitudeMeters>253.8000030517578125</AltitudeMeters>
            <DistanceMeters>NAN</DistanceMeters>
          </Trackpoint>
          <Trackpoint>
            <Time>2022-07-17T18:33:11.000Z</Time>
            <Position>
              <LatitudeDegrees>43.50011743605136871337890625</LatitudeDegrees>
              <LongitudeDegrees>-5.56757801212370395660400390625</LongitudeDegrees>
            </Position>
            <AltitudeMeters>252.8000030517578125</AltitudeMeters>
            <DistanceMeters>NAN</DistanceMeters>
          </Trackpoint>
          <Trackpoint>
            <Time>2022-07-17T18:33:14.000Z</Time>
            <Position>
              <LatitudeDegrees>43.50013847462832927703857421875</LatitudeDegrees>
              <LongitudeDegrees>-5.5678654275834560394287109375</LongitudeDegrees>
            </Position>
            <AltitudeMeters>251.600006103515625</AltitudeMeters>
            <DistanceMeters>NAN</DistanceMeters>
          </Trackpoint>
          <Trackpoint>
            <Time>2022-07-17T18:33:16.000Z</Time>
            <Position>
              <LatitudeDegrees>43.50015674717724323272705078125</LatitudeDegrees>
              <LongitudeDegrees>-5.56806835345923900604248046875</LongitudeDegrees>
            </Position>
            <AltitudeMeters>250.600006103515625</AltitudeMeters>
            <DistanceMeters>NAN</DistanceMeters>
          </Trackpoint>
          <Trackpoint>
            <Time>2022-07-17T18:33:17.000Z</Time>
            <Position>
              <LatitudeDegrees>43.50018122233450412750244140625</LatitudeDegrees>
              <LongitudeDegrees>-5.568180419504642486572265625</LongitudeDegrees>
            </Position>
            <AltitudeMeters>250</AltitudeMeters>
            <DistanceMeters>NAN</DistanceMeters>
          </Trackpoint>
          <Trackpoint>
            <Time>2022-07-17T18:33:19.000Z</Time>
            <Position>
              <LatitudeDegrees>43.5002560727298259735107421875</LatitudeDegrees>
              <LongitudeDegrees>-5.56838837452232837677001953125</LongitudeDegrees>
            </Position>
            <AltitudeMeters>248.8000030517578125</AltitudeMeters>
            <DistanceMeters>NAN</DistanceMeters>
          </Trackpoint>
          <Trackpoint>
            <Time>2022-07-17T18:33:21.000Z</Time>
            <Position>
              <LatitudeDegrees>43.50035053677856922149658203125</LatitudeDegrees>
              <LongitudeDegrees>-5.56854846887290477752685546875</LongitudeDegrees>
            </Position>
            <AltitudeMeters>247.1999969482421875</AltitudeMeters>
            <DistanceMeters>NAN</DistanceMeters>
          </Trackpoint>
          <Trackpoint>
            <Time>2022-07-17T18:33:23.000Z</Time>
            <Position>
              <LatitudeDegrees>43.50044491700828075408935546875</LatitudeDegrees>
              <LongitudeDegrees>-5.56868140585720539093017578125</LongitudeDegrees>
            </Position>
            <AltitudeMeters>246.1999969482421875</AltitudeMeters>
            <DistanceMeters>NAN</DistanceMeters>
          </Trackpoint>
          <Trackpoint>
            <Time>2022-07-17T18:33:24.000Z</Time>
            <Position>
              <LatitudeDegrees>43.50048079155385494232177734375</LatitudeDegrees>
              <LongitudeDegrees>-5.5687294341623783111572265625</LongitudeDegrees>
            </Position>
            <AltitudeMeters>245.600006103515625</AltitudeMeters>
            <DistanceMeters>NAN</DistanceMeters>
          </Trackpoint>
          <Trackpoint>
            <Time>2022-07-17T18:33:26.000Z</Time>
            <Position>
              <LatitudeDegrees>43.5005759261548519134521484375</LatitudeDegrees>
              <LongitudeDegrees>-5.5688611976802349090576171875</LongitudeDegrees>
            </Position>
            <AltitudeMeters>244.399993896484375</AltitudeMeters>
            <DistanceMeters>NAN</DistanceMeters>
          </Trackpoint>
          <Trackpoint>
            <Time>2022-07-17T18:33:28.000Z</Time>
            <Position>
              <LatitudeDegrees>43.50066670216619968414306640625</LatitudeDegrees>
              <LongitudeDegrees>-5.56898684240877628326416015625</LongitudeDegrees>
            </Position>
            <AltitudeMeters>243</AltitudeMeters>
            <DistanceMeters>NAN</DistanceMeters>
          </Trackpoint>
          <Trackpoint>
            <Time>2022-07-17T18:33:29.000Z</Time>
            <Position>
              <LatitudeDegrees>43.50070358254015445709228515625</LatitudeDegrees>
              <LongitudeDegrees>-5.5690372176468372344970703125</LongitudeDegrees>
            </Position>
            <AltitudeMeters>242.399993896484375</AltitudeMeters>
            <DistanceMeters>NAN</DistanceMeters>
          </Trackpoint>
          <Trackpoint>
            <Time>2022-07-17T18:33:30.000Z</Time>
            <Position>
              <LatitudeDegrees>43.5007556341588497161865234375</LatitudeDegrees>
              <LongitudeDegrees>-5.56909270584583282470703125</LongitudeDegrees>
            </Position>
            <AltitudeMeters>241.8000030517578125</AltitudeMeters>
            <DistanceMeters>NAN</DistanceMeters>
          </Trackpoint>
          <Trackpoint>
            <Time>2022-07-17T18:33:31.000Z</Time>
            <Position>
              <LatitudeDegrees>43.5008208453655242919921875</LatitudeDegrees>
              <LongitudeDegrees>-5.569144003093242645263671875</LongitudeDegrees>
            </Position>
            <AltitudeMeters>241.399993896484375</AltitudeMeters>
            <DistanceMeters>NAN</DistanceMeters>
          </Trackpoint>
          <Trackpoint>
            <Time>2022-07-17T18:33:32.000Z</Time>
            <Position>
              <LatitudeDegrees>43.50087893195450305938720703125</LatitudeDegrees>
              <LongitudeDegrees>-5.5691760219633579254150390625</LongitudeDegrees>
            </Position>
            <AltitudeMeters>240.8000030517578125</AltitudeMeters>
            <DistanceMeters>NAN</DistanceMeters>
          </Trackpoint>
          <Trackpoint>
            <Time>2022-07-17T18:33:33.000Z</Time>
            <Position>
              <LatitudeDegrees>43.500937521457672119140625</LatitudeDegrees>
              <LongitudeDegrees>-5.56920628063380718231201171875</LongitudeDegrees>
            </Position>
            <AltitudeMeters>240.399993896484375</AltitudeMeters>
            <DistanceMeters>NAN</DistanceMeters>
          </Trackpoint>
          <Trackpoint>
            <Time>2022-07-17T18:33:34.000Z</Time>
            <Position>
              <LatitudeDegrees>43.500994183123111724853515625</LatitudeDegrees>
              <LongitudeDegrees>-5.56924416683614253997802734375</LongitudeDegrees>
            </Position>
            <AltitudeMeters>240</AltitudeMeters>
            <DistanceMeters>NAN</DistanceMeters>
          </Trackpoint>
          <Trackpoint>
            <Time>2022-07-17T18:33:35.000Z</Time>
            <Position>
              <LatitudeDegrees>43.50104439072310924530029296875</LatitudeDegrees>
              <LongitudeDegrees>-5.56929697282612323760986328125</LongitudeDegrees>
            </Position>
            <AltitudeMeters>239.399993896484375</AltitudeMeters>
            <DistanceMeters>NAN</DistanceMeters>
          </Trackpoint>
          <Trackpoint>
            <Time>2022-07-17T18:33:38.000Z</Time>
            <Position>
              <LatitudeDegrees>43.50119140930473804473876953125</LatitudeDegrees>
              <LongitudeDegrees>-5.569478608667850494384765625</LongitudeDegrees>
            </Position>
            <AltitudeMeters>238</AltitudeMeters>
            <DistanceMeters>NAN</DistanceMeters>
          </Trackpoint>
          <Trackpoint>
            <Time>2022-07-17T18:33:40.000Z</Time>
            <Position>
              <LatitudeDegrees>43.5012756474316120147705078125</LatitudeDegrees>
              <LongitudeDegrees>-5.569597296416759490966796875</LongitudeDegrees>
            </Position>
            <AltitudeMeters>236.399993896484375</AltitudeMeters>
            <DistanceMeters>NAN</DistanceMeters>
          </Trackpoint>
          <Trackpoint>
            <Time>2022-07-17T18:33:42.000Z</Time>
            <Position>
              <LatitudeDegrees>43.5013755597174167633056640625</LatitudeDegrees>
              <LongitudeDegrees>-5.56973132304847240447998046875</LongitudeDegrees>
            </Position>
            <AltitudeMeters>235.399993896484375</AltitudeMeters>
            <DistanceMeters>NAN</DistanceMeters>
          </Trackpoint>
          <Trackpoint>
            <Time>2022-07-17T18:33:45.000Z</Time>
            <Position>
              <LatitudeDegrees>43.5014955885708332061767578125</LatitudeDegrees>
              <LongitudeDegrees>-5.5699007213115692138671875</LongitudeDegrees>
            </Position>
            <AltitudeMeters>234</AltitudeMeters>
            <DistanceMeters>NAN</DistanceMeters>
          </Trackpoint>
          <Trackpoint>
            <Time>2022-07-17T18:33:46.000Z</Time>
            <Position>
              <LatitudeDegrees>43.5015324689447879791259765625</LatitudeDegrees>
              <LongitudeDegrees>-5.56996098719537258148193359375</LongitudeDegrees>
            </Position>
            <AltitudeMeters>233.399993896484375</AltitudeMeters>
            <DistanceMeters>NAN</DistanceMeters>
          </Trackpoint>
          <Trackpoint>
            <Time>2022-07-17T18:33:48.000Z</Time>
            <Position>
              <LatitudeDegrees>43.5015975125133991241455078125</LatitudeDegrees>
              <LongitudeDegrees>-5.5700804293155670166015625</LongitudeDegrees>
            </Position>
            <AltitudeMeters>232.8000030517578125</AltitudeMeters>
            <DistanceMeters>NAN</DistanceMeters>
          </Trackpoint>
          <Trackpoint>
            <Time>2022-07-17T18:33:50.000Z</Time>
            <Position>
              <LatitudeDegrees>43.5016523301601409912109375</LatitudeDegrees>
              <LongitudeDegrees>-5.5701855383813381195068359375</LongitudeDegrees>
            </Position>
            <AltitudeMeters>231.600006103515625</AltitudeMeters>
            <DistanceMeters>NAN</DistanceMeters>
          </Trackpoint>
          <Trackpoint>
            <Time>2022-07-17T18:33:52.000Z</Time>
            <Position>
              <LatitudeDegrees>43.5016806609928607940673828125</LatitudeDegrees>
              <LongitudeDegrees>-5.5702254362404346466064453125</LongitudeDegrees>
            </Position>
            <AltitudeMeters>230.1999969482421875</AltitudeMeters>
            <DistanceMeters>NAN</DistanceMeters>
          </Trackpoint>
          <Trackpoint>
            <Time>2022-07-17T18:33:54.000Z</Time>
            <Position>
              <LatitudeDegrees>43.5016927309334278106689453125</LatitudeDegrees>
              <LongitudeDegrees>-5.57021797634661197662353515625</LongitudeDegrees>
            </Position>
            <AltitudeMeters>229</AltitudeMeters>
            <DistanceMeters>NAN</DistanceMeters>
          </Trackpoint>
          <Trackpoint>
            <Time>2022-07-17T18:33:56.000Z</Time>
            <Position>
              <LatitudeDegrees>43.50169599987566471099853515625</LatitudeDegrees>
              <LongitudeDegrees>-5.570215545594692230224609375</LongitudeDegrees>
            </Position>
            <AltitudeMeters>228.399993896484375</AltitudeMeters>
            <DistanceMeters>NAN</DistanceMeters>
          </Trackpoint>
          <Trackpoint>
            <Time>2022-07-17T18:33:57.000Z</Time>
            <Position>
              <LatitudeDegrees>43.50169599987566471099853515625</LatitudeDegrees>
              <LongitudeDegrees>-5.570215545594692230224609375</LongitudeDegrees>
            </Position>
            <AltitudeMeters>228.399993896484375</AltitudeMeters>
            <DistanceMeters>NAN</DistanceMeters>
          </Trackpoint>
          <Trackpoint>
            <Time>2022-07-17T18:35:09.000Z</Time>
            <Position>
              <LatitudeDegrees>43.50168292410671710968017578125</LatitudeDegrees>
              <LongitudeDegrees>-5.57019869796931743621826171875</LongitudeDegrees>
            </Position>
            <AltitudeMeters>227.8000030517578125</AltitudeMeters>
            <DistanceMeters>NAN</DistanceMeters>
          </Trackpoint>
          <Trackpoint>
            <Time>2022-07-17T18:35:11.000Z</Time>
            <Position>
              <LatitudeDegrees>43.5016783140599727630615234375</LatitudeDegrees>
              <LongitudeDegrees>-5.570194087922573089599609375</LongitudeDegrees>
            </Position>
            <AltitudeMeters>228</AltitudeMeters>
            <DistanceMeters>NAN</DistanceMeters>
          </Trackpoint>
          <Trackpoint>
            <Time>2022-07-17T18:35:12.000Z</Time>
            <Position>
              <LatitudeDegrees>43.5016783140599727630615234375</LatitudeDegrees>
              <LongitudeDegrees>-5.570194087922573089599609375</LongitudeDegrees>
            </Position>
            <AltitudeMeters>228</AltitudeMeters>
            <DistanceMeters>NAN</DistanceMeters>
          </Trackpoint>
          <Trackpoint>
            <Time>2022-07-17T18:35:20.000Z</Time>
            <Position>
              <LatitudeDegrees>43.50167554803192615509033203125</LatitudeDegrees>
              <LongitudeDegrees>-5.57024647481739521026611328125</LongitudeDegrees>
            </Position>
            <AltitudeMeters>228</AltitudeMeters>
            <DistanceMeters>NAN</DistanceMeters>
          </Trackpoint>
          <Trackpoint>
            <Time>2022-07-17T18:35:22.000Z</Time>
            <Position>
              <LatitudeDegrees>43.5016769729554653167724609375</LatitudeDegrees>
              <LongitudeDegrees>-5.57030296884477138519287109375</LongitudeDegrees>
            </Position>
            <AltitudeMeters>227.8000030517578125</AltitudeMeters>
            <DistanceMeters>NAN</DistanceMeters>
          </Trackpoint>
          <Trackpoint>
            <Time>2022-07-17T18:35:27.000Z</Time>
            <Position>
              <LatitudeDegrees>43.50163330323994159698486328125</LatitudeDegrees>
              <LongitudeDegrees>-5.570542104542255401611328125</LongitudeDegrees>
            </Position>
            <AltitudeMeters>227.1999969482421875</AltitudeMeters>
            <DistanceMeters>NAN</DistanceMeters>
          </Trackpoint>
          <Trackpoint>
            <Time>2022-07-17T18:35:29.000Z</Time>
            <Position>
              <LatitudeDegrees>43.50157462991774082183837890625</LatitudeDegrees>
              <LongitudeDegrees>-5.5706418491899967193603515625</LongitudeDegrees>
            </Position>
            <AltitudeMeters>227</AltitudeMeters>
            <DistanceMeters>NAN</DistanceMeters>
          </Trackpoint>
          <Trackpoint>
            <Time>2022-07-17T18:35:31.000Z</Time>
            <Position>
              <LatitudeDegrees>43.50149382837116718292236328125</LatitudeDegrees>
              <LongitudeDegrees>-5.570723153650760650634765625</LongitudeDegrees>
            </Position>
            <AltitudeMeters>226.8000030517578125</AltitudeMeters>
            <DistanceMeters>NAN</DistanceMeters>
          </Trackpoint>
          <Trackpoint>
            <Time>2022-07-17T18:35:32.000Z</Time>
            <Position>
              <LatitudeDegrees>43.50145242176949977874755859375</LatitudeDegrees>
              <LongitudeDegrees>-5.57075760327279567718505859375</LongitudeDegrees>
            </Position>
            <AltitudeMeters>226.600006103515625</AltitudeMeters>
            <DistanceMeters>NAN</DistanceMeters>
          </Trackpoint>
          <Trackpoint>
            <Time>2022-07-17T18:35:38.000Z</Time>
            <Position>
              <LatitudeDegrees>43.501255698502063751220703125</LatitudeDegrees>
              <LongitudeDegrees>-5.57094753719866275787353515625</LongitudeDegrees>
            </Position>
            <AltitudeMeters>225.600006103515625</AltitudeMeters>
            <DistanceMeters>NAN</DistanceMeters>
          </Trackpoint>
          <Trackpoint>
            <Time>2022-07-17T18:35:39.000Z</Time>
            <Position>
              <LatitudeDegrees>43.50122929550707340240478515625</LatitudeDegrees>
              <LongitudeDegrees>-5.5709818191826343536376953125</LongitudeDegrees>
            </Position>
            <AltitudeMeters>225.600006103515625</AltitudeMeters>
            <DistanceMeters>NAN</DistanceMeters>
          </Trackpoint>
          <Trackpoint>
            <Time>2022-07-17T18:35:44.000Z</Time>
            <Position>
              <LatitudeDegrees>43.50107942707836627960205078125</LatitudeDegrees>
              <LongitudeDegrees>-5.5711427517235279083251953125</LongitudeDegrees>
            </Position>
            <AltitudeMeters>224.600006103515625</AltitudeMeters>
            <DistanceMeters>NAN</DistanceMeters>
          </Trackpoint>
          <Trackpoint>
            <Time>2022-07-17T18:35:46.000Z</Time>
            <Position>
              <LatitudeDegrees>43.5010288842022418975830078125</LatitudeDegrees>
              <LongitudeDegrees>-5.57123436592519283294677734375</LongitudeDegrees>
            </Position>
            <AltitudeMeters>224.399993896484375</AltitudeMeters>
            <DistanceMeters>NAN</DistanceMeters>
          </Trackpoint>
          <Trackpoint>
            <Time>2022-07-17T18:35:48.000Z</Time>
            <Position>
              <LatitudeDegrees>43.5010091029107570648193359375</LatitudeDegrees>
              <LongitudeDegrees>-5.571343414485454559326171875</LongitudeDegrees>
            </Position>
            <AltitudeMeters>223.8000030517578125</AltitudeMeters>
            <DistanceMeters>NAN</DistanceMeters>
          </Trackpoint>
          <Trackpoint>
            <Time>2022-07-17T18:35:50.000Z</Time>
            <Position>
              <LatitudeDegrees>43.5010174848139286041259765625</LatitudeDegrees>
              <LongitudeDegrees>-5.57146268896758556365966796875</LongitudeDegrees>
            </Position>
            <AltitudeMeters>223.399993896484375</AltitudeMeters>
            <DistanceMeters>NAN</DistanceMeters>
          </Trackpoint>
          <Trackpoint>
            <Time>2022-07-17T18:35:52.000Z</Time>
            <Position>
              <LatitudeDegrees>43.50106450729072093963623046875</LatitudeDegrees>
              <LongitudeDegrees>-5.5715548060834407806396484375</LongitudeDegrees>
            </Position>
            <AltitudeMeters>223</AltitudeMeters>
            <DistanceMeters>NAN</DistanceMeters>
          </Trackpoint>
          <Trackpoint>
            <Time>2022-07-17T18:35:53.000Z</Time>
            <Position>
              <LatitudeDegrees>43.50109954364597797393798828125</LatitudeDegrees>
              <LongitudeDegrees>-5.57159042917191982269287109375</LongitudeDegrees>
            </Position>
            <AltitudeMeters>222.8000030517578125</AltitudeMeters>
            <DistanceMeters>NAN</DistanceMeters>
          </Trackpoint>
          <Trackpoint>
            <Time>2022-07-17T18:35:54.000Z</Time>
            <Position>
              <LatitudeDegrees>43.50113759748637676239013671875</LatitudeDegrees>
              <LongitudeDegrees>-5.571616999804973602294921875</LongitudeDegrees>
            </Position>
            <AltitudeMeters>222.600006103515625</AltitudeMeters>
            <DistanceMeters>NAN</DistanceMeters>
          </Trackpoint>
          <Trackpoint>
            <Time>2022-07-17T18:35:55.000Z</Time>
            <Position>
              <LatitudeDegrees>43.501177914440631866455078125</LatitudeDegrees>
              <LongitudeDegrees>-5.57163652963936328887939453125</LongitudeDegrees>
            </Position>
            <AltitudeMeters>222.399993896484375</AltitudeMeters>
            <DistanceMeters>NAN</DistanceMeters>
          </Trackpoint>
          <Trackpoint>
            <Time>2022-07-17T18:35:56.000Z</Time>
            <Position>
              <LatitudeDegrees>43.501214794814586639404296875</LatitudeDegrees>
              <LongitudeDegrees>-5.57164826430380344390869140625</LongitudeDegrees>
            </Position>
            <AltitudeMeters>222.1999969482421875</AltitudeMeters>
            <DistanceMeters>NAN</DistanceMeters>
          </Trackpoint>
          <Trackpoint>
            <Time>2022-07-17T18:35:58.000Z</Time>
            <Position>
              <LatitudeDegrees>43.50128947757184505462646484375</LatitudeDegrees>
              <LongitudeDegrees>-5.5716590769588947296142578125</LongitudeDegrees>
            </Position>
            <AltitudeMeters>222</AltitudeMeters>
            <DistanceMeters>NAN</DistanceMeters>
          </Trackpoint>
          <Trackpoint>
            <Time>2022-07-17T18:36:01.000Z</Time>
            <Position>
              <LatitudeDegrees>43.50140632130205631256103515625</LatitudeDegrees>
              <LongitudeDegrees>-5.57166586630046367645263671875</LongitudeDegrees>
            </Position>
            <AltitudeMeters>221.600006103515625</AltitudeMeters>
            <DistanceMeters>NAN</DistanceMeters>
          </Trackpoint>
          <Trackpoint>
            <Time>2022-07-17T18:36:02.000Z</Time>
            <Position>
              <LatitudeDegrees>43.501442112028598785400390625</LatitudeDegrees>
              <LongitudeDegrees>-5.5716709792613983154296875</LongitudeDegrees>
            </Position>
            <AltitudeMeters>221.399993896484375</AltitudeMeters>
            <DistanceMeters>NAN</DistanceMeters>
          </Trackpoint>
          <Trackpoint>
            <Time>2022-07-17T18:36:05.000Z</Time>
            <Position>
              <LatitudeDegrees>43.50156188942492008209228515625</LatitudeDegrees>
              <LongitudeDegrees>-5.571696795523166656494140625</LongitudeDegrees>
            </Position>
            <AltitudeMeters>220.1999969482421875</AltitudeMeters>
            <DistanceMeters>NAN</DistanceMeters>
          </Trackpoint>
          <Trackpoint>
            <Time>2022-07-17T18:36:06.000Z</Time>
            <Position>
              <LatitudeDegrees>43.5015998594462871551513671875</LatitudeDegrees>
              <LongitudeDegrees>-5.57170861400663852691650390625</LongitudeDegrees>
            </Position>
            <AltitudeMeters>219.600006103515625</AltitudeMeters>
            <DistanceMeters>NAN</DistanceMeters>
          </Trackpoint>
          <Trackpoint>
            <Time>2022-07-17T18:36:08.000Z</Time>
            <Position>
              <LatitudeDegrees>43.50168007425963878631591796875</LatitudeDegrees>
              <LongitudeDegrees>-5.5717314966022968292236328125</LongitudeDegrees>
            </Position>
            <AltitudeMeters>218.8000030517578125</AltitudeMeters>
            <DistanceMeters>NAN</DistanceMeters>
          </Trackpoint>
          <Trackpoint>
            <Time>2022-07-17T18:36:11.000Z</Time>
            <Position>
              <LatitudeDegrees>43.50181334652006626129150390625</LatitudeDegrees>
              <LongitudeDegrees>-5.57176418602466583251953125</LongitudeDegrees>
            </Position>
            <AltitudeMeters>217.8000030517578125</AltitudeMeters>
            <DistanceMeters>NAN</DistanceMeters>
          </Trackpoint>
          <Trackpoint>
            <Time>2022-07-17T18:36:12.000Z</Time>
            <Position>
              <LatitudeDegrees>43.50185659714043140411376953125</LatitudeDegrees>
              <LongitudeDegrees>-5.57176879607141017913818359375</LongitudeDegrees>
            </Position>
            <AltitudeMeters>217.1999969482421875</AltitudeMeters>
            <DistanceMeters>NAN</DistanceMeters>
          </Trackpoint>
          <Trackpoint>
            <Time>2022-07-17T18:36:14.000Z</Time>
            <Position>
              <LatitudeDegrees>43.50195181556046009063720703125</LatitudeDegrees>
              <LongitudeDegrees>-5.57177784852683544158935546875</LongitudeDegrees>
            </Position>
            <AltitudeMeters>216.8000030517578125</AltitudeMeters>
            <DistanceMeters>NAN</DistanceMeters>
          </Trackpoint>
          <Trackpoint>
            <Time>2022-07-17T18:36:16.000Z</Time>
            <Position>
              <LatitudeDegrees>43.5020424239337444305419921875</LatitudeDegrees>
              <LongitudeDegrees>-5.5717968754470348358154296875</LongitudeDegrees>
            </Position>
            <AltitudeMeters>216</AltitudeMeters>
            <DistanceMeters>NAN</DistanceMeters>
          </Trackpoint>
          <Trackpoint>
            <Time>2022-07-17T18:36:17.000Z</Time>
            <Position>
              <LatitudeDegrees>43.50208039395511150360107421875</LatitudeDegrees>
              <LongitudeDegrees>-5.57181204669177532196044921875</LongitudeDegrees>
            </Position>
            <AltitudeMeters>215.600006103515625</AltitudeMeters>
            <DistanceMeters>NAN</DistanceMeters>
          </Trackpoint>
          <Trackpoint>
            <Time>2022-07-17T18:36:18.000Z</Time>
            <Position>
              <LatitudeDegrees>43.5021181963384151458740234375</LatitudeDegrees>
              <LongitudeDegrees>-5.57182210497558116912841796875</LongitudeDegrees>
            </Position>
            <AltitudeMeters>215.399993896484375</AltitudeMeters>
            <DistanceMeters>NAN</DistanceMeters>
          </Trackpoint>
          <Trackpoint>
            <Time>2022-07-17T18:36:21.000Z</Time>
            <Position>
              <LatitudeDegrees>43.50223327986896038055419921875</LatitudeDegrees>
              <LongitudeDegrees>-5.57185479439795017242431640625</LongitudeDegrees>
            </Position>
            <AltitudeMeters>214.399993896484375</AltitudeMeters>
            <DistanceMeters>NAN</DistanceMeters>
          </Trackpoint>
          <Trackpoint>
            <Time>2022-07-17T18:36:23.000Z</Time>
            <Position>
              <LatitudeDegrees>43.5023228824138641357421875</LatitudeDegrees>
              <LongitudeDegrees>-5.57184037752449512481689453125</LongitudeDegrees>
            </Position>
            <AltitudeMeters>214</AltitudeMeters>
            <DistanceMeters>NAN</DistanceMeters>
          </Trackpoint>
          <Trackpoint>
            <Time>2022-07-17T18:36:24.000Z</Time>
            <Position>
              <LatitudeDegrees>43.50236739031970500946044921875</LatitudeDegrees>
              <LongitudeDegrees>-5.5718361027538776397705078125</LongitudeDegrees>
            </Position>
            <AltitudeMeters>213.8000030517578125</AltitudeMeters>
            <DistanceMeters>NAN</DistanceMeters>
          </Trackpoint>
          <Trackpoint>
            <Time>2022-07-17T18:36:25.000Z</Time>
            <Position>
              <LatitudeDegrees>43.5024098865687847137451171875</LatitudeDegrees>
              <LongitudeDegrees>-5.571832247078418731689453125</LongitudeDegrees>
            </Position>
            <AltitudeMeters>213.399993896484375</AltitudeMeters>
            <DistanceMeters>NAN</DistanceMeters>
          </Trackpoint>
          <Trackpoint>
            <Time>2022-07-17T18:36:27.000Z</Time>
            <Position>
              <LatitudeDegrees>43.502492196857929229736328125</LatitudeDegrees>
              <LongitudeDegrees>-5.57183769531548023223876953125</LongitudeDegrees>
            </Position>
            <AltitudeMeters>212.399993896484375</AltitudeMeters>
            <DistanceMeters>NAN</DistanceMeters>
          </Trackpoint>
          <Trackpoint>
            <Time>2022-07-17T18:36:30.000Z</Time>
            <Position>
              <LatitudeDegrees>43.50261901505291461944580078125</LatitudeDegrees>
              <LongitudeDegrees>-5.5718146450817584991455078125</LongitudeDegrees>
            </Position>
            <AltitudeMeters>211.600006103515625</AltitudeMeters>
            <DistanceMeters>NAN</DistanceMeters>
          </Trackpoint>
          <Trackpoint>
            <Time>2022-07-17T18:36:31.000Z</Time>
            <Position>
              <LatitudeDegrees>43.50265681743621826171875</LatitudeDegrees>
              <LongitudeDegrees>-5.571810789406299591064453125</LongitudeDegrees>
            </Position>
            <AltitudeMeters>211</AltitudeMeters>
            <DistanceMeters>NAN</DistanceMeters>
          </Trackpoint>
          <Trackpoint>
            <Time>2022-07-17T18:36:34.000Z</Time>
            <Position>
              <LatitudeDegrees>43.50276167504489421844482421875</LatitudeDegrees>
              <LongitudeDegrees>-5.57183903641998767852783203125</LongitudeDegrees>
            </Position>
            <AltitudeMeters>210</AltitudeMeters>
            <DistanceMeters>NAN</DistanceMeters>
          </Trackpoint>
          <Trackpoint>
            <Time>2022-07-17T18:36:38.000Z</Time>
            <Position>
              <LatitudeDegrees>43.502905927598476409912109375</LatitudeDegrees>
              <LongitudeDegrees>-5.57187759317457675933837890625</LongitudeDegrees>
            </Position>
            <AltitudeMeters>208.600006103515625</AltitudeMeters>
            <DistanceMeters>NAN</DistanceMeters>
          </Trackpoint>
          <Trackpoint>
            <Time>2022-07-17T18:36:41.000Z</Time>
            <Position>
              <LatitudeDegrees>43.50296535529196262359619140625</LatitudeDegrees>
              <LongitudeDegrees>-5.57188899256289005279541015625</LongitudeDegrees>
            </Position>
            <AltitudeMeters>207.600006103515625</AltitudeMeters>
            <DistanceMeters>NAN</DistanceMeters>
          </Trackpoint>
          <Trackpoint>
            <Time>2022-07-17T18:36:42.000Z</Time>
            <Position>
              <LatitudeDegrees>43.50297398865222930908203125</LatitudeDegrees>
              <LongitudeDegrees>-5.57187943719327449798583984375</LongitudeDegrees>
            </Position>
            <AltitudeMeters>207.399993896484375</AltitudeMeters>
            <DistanceMeters>NAN</DistanceMeters>
          </Trackpoint>
          <Trackpoint>
            <Time>2022-07-17T18:36:45.000Z</Time>
            <Position>
              <LatitudeDegrees>43.5029751621186733245849609375</LatitudeDegrees>
              <LongitudeDegrees>-5.57187524624168872833251953125</LongitudeDegrees>
            </Position>
            <AltitudeMeters>207</AltitudeMeters>
            <DistanceMeters>NAN</DistanceMeters>
          </Trackpoint>
          <Trackpoint>
            <Time>2022-07-17T18:36:53.000Z</Time>
            <Position>
              <LatitudeDegrees>43.50294088013470172882080078125</LatitudeDegrees>
              <LongitudeDegrees>-5.571787320077419281005859375</LongitudeDegrees>
            </Position>
            <AltitudeMeters>207</AltitudeMeters>
            <DistanceMeters>NAN</DistanceMeters>
          </Trackpoint>
          <Trackpoint>
            <Time>2022-07-17T18:36:54.000Z</Time>
            <Position>
              <LatitudeDegrees>43.5029325820505619049072265625</LatitudeDegrees>
              <LongitudeDegrees>-5.57176259346306324005126953125</LongitudeDegrees>
            </Position>
            <AltitudeMeters>207</AltitudeMeters>
            <DistanceMeters>NAN</DistanceMeters>
          </Trackpoint>
          <Trackpoint>
            <Time>2022-07-17T18:36:58.000Z</Time>
            <Position>
              <LatitudeDegrees>43.502893857657909393310546875</LatitudeDegrees>
              <LongitudeDegrees>-5.57169989682734012603759765625</LongitudeDegrees>
            </Position>
            <AltitudeMeters>206.8000030517578125</AltitudeMeters>
            <DistanceMeters>NAN</DistanceMeters>
          </Trackpoint>
          <Trackpoint>
            <Time>2022-07-17T18:36:59.000Z</Time>
            <Position>
              <LatitudeDegrees>43.50288673304021358489990234375</LatitudeDegrees>
              <LongitudeDegrees>-5.571687407791614532470703125</LongitudeDegrees>
            </Position>
            <AltitudeMeters>206.8000030517578125</AltitudeMeters>
            <DistanceMeters>NAN</DistanceMeters>
          </Trackpoint>
          <Trackpoint>
            <Time>2022-07-17T18:37:02.000Z</Time>
            <Position>
              <LatitudeDegrees>43.50286359898746013641357421875</LatitudeDegrees>
              <LongitudeDegrees>-5.5716039240360260009765625</LongitudeDegrees>
            </Position>
            <AltitudeMeters>206.8000030517578125</AltitudeMeters>
            <DistanceMeters>NAN</DistanceMeters>
          </Trackpoint>
          <Trackpoint>
            <Time>2022-07-17T18:37:04.000Z</Time>
            <Position>
              <LatitudeDegrees>43.5028601624071598052978515625</LatitudeDegrees>
              <LongitudeDegrees>-5.57153359986841678619384765625</LongitudeDegrees>
            </Position>
            <AltitudeMeters>206.8000030517578125</AltitudeMeters>
            <DistanceMeters>NAN</DistanceMeters>
          </Trackpoint>
          <Trackpoint>
            <Time>2022-07-17T18:37:06.000Z</Time>
            <Position>
              <LatitudeDegrees>43.50285840220749378204345703125</LatitudeDegrees>
              <LongitudeDegrees>-5.57150593958795070648193359375</LongitudeDegrees>
            </Position>
            <AltitudeMeters>206.600006103515625</AltitudeMeters>
            <DistanceMeters>NAN</DistanceMeters>
          </Trackpoint>
          <Trackpoint>
            <Time>2022-07-17T18:37:08.000Z</Time>
            <Position>
              <LatitudeDegrees>43.5028460808098316192626953125</LatitudeDegrees>
              <LongitudeDegrees>-5.5714726634323596954345703125</LongitudeDegrees>
            </Position>
            <AltitudeMeters>206.399993896484375</AltitudeMeters>
            <DistanceMeters>NAN</DistanceMeters>
          </Trackpoint>
          <Trackpoint>
            <Time>2022-07-17T18:37:09.000Z</Time>
            <Position>
              <LatitudeDegrees>43.50284113548696041107177734375</LatitudeDegrees>
              <LongitudeDegrees>-5.57145732454955577850341796875</LongitudeDegrees>
            </Position>
            <AltitudeMeters>206.399993896484375</AltitudeMeters>
            <DistanceMeters>NAN</DistanceMeters>
          </Trackpoint>
          <Trackpoint>
            <Time>2022-07-17T18:37:12.000Z</Time>
            <Position>
              <LatitudeDegrees>43.50282621569931507110595703125</LatitudeDegrees>
              <LongitudeDegrees>-5.57142890989780426025390625</LongitudeDegrees>
            </Position>
            <AltitudeMeters>206.1999969482421875</AltitudeMeters>
            <DistanceMeters>NAN</DistanceMeters>
          </Trackpoint>
          <Trackpoint>
            <Time>2022-07-17T18:37:16.000Z</Time>
            <Position>
              <LatitudeDegrees>43.5027895867824554443359375</LatitudeDegrees>
              <LongitudeDegrees>-5.57130418717861175537109375</LongitudeDegrees>
            </Position>
            <AltitudeMeters>206</AltitudeMeters>
            <DistanceMeters>NAN</DistanceMeters>
          </Trackpoint>
          <Trackpoint>
            <Time>2022-07-17T18:37:19.000Z</Time>
            <Position>
              <LatitudeDegrees>43.50275966338813304901123046875</LatitudeDegrees>
              <LongitudeDegrees>-5.57122296653687953948974609375</LongitudeDegrees>
            </Position>
            <AltitudeMeters>205.8000030517578125</AltitudeMeters>
            <DistanceMeters>NAN</DistanceMeters>
          </Trackpoint>
          <Trackpoint>
            <Time>2022-07-17T18:37:20.000Z</Time>
            <Position>
              <LatitudeDegrees>43.50275128148496150970458984375</LatitudeDegrees>
              <LongitudeDegrees>-5.57119178585708141326904296875</LongitudeDegrees>
            </Position>
            <AltitudeMeters>205.1999969482421875</AltitudeMeters>
            <DistanceMeters>NAN</DistanceMeters>
          </Trackpoint>
          <Trackpoint>
            <Time>2022-07-17T18:37:22.000Z</Time>
            <Position>
              <LatitudeDegrees>43.5027575679123401641845703125</LatitudeDegrees>
              <LongitudeDegrees>-5.57110662572085857391357421875</LongitudeDegrees>
            </Position>
            <AltitudeMeters>204.600006103515625</AltitudeMeters>
            <DistanceMeters>NAN</DistanceMeters>
          </Trackpoint>
          <Trackpoint>
            <Time>2022-07-17T18:37:23.000Z</Time>
            <Position>
              <LatitudeDegrees>43.50275983102619647979736328125</LatitudeDegrees>
              <LongitudeDegrees>-5.57106077671051025390625</LongitudeDegrees>
            </Position>
            <AltitudeMeters>204.399993896484375</AltitudeMeters>
            <DistanceMeters>NAN</DistanceMeters>
          </Trackpoint>
          <Trackpoint>
            <Time>2022-07-17T18:37:25.000Z</Time>
            <Position>
              <LatitudeDegrees>43.5027627646923065185546875</LatitudeDegrees>
              <LongitudeDegrees>-5.57096228934824466705322265625</LongitudeDegrees>
            </Position>
            <AltitudeMeters>203.8000030517578125</AltitudeMeters>
            <DistanceMeters>NAN</DistanceMeters>
          </Trackpoint>
          <Trackpoint>
            <Time>2022-07-17T18:37:26.000Z</Time>
            <Position>
              <LatitudeDegrees>43.50275128148496150970458984375</LatitudeDegrees>
              <LongitudeDegrees>-5.5709452740848064422607421875</LongitudeDegrees>
            </Position>
            <AltitudeMeters>203.8000030517578125</AltitudeMeters>
            <DistanceMeters>NAN</DistanceMeters>
          </Trackpoint>
          <Trackpoint>
            <Time>2022-07-17T18:37:27.000Z</Time>
            <Position>
              <LatitudeDegrees>43.502747677266597747802734375</LatitudeDegrees>
              <LongitudeDegrees>-5.57093999348580837249755859375</LongitudeDegrees>
            </Position>
            <AltitudeMeters>203.600006103515625</AltitudeMeters>
            <DistanceMeters>NAN</DistanceMeters>
          </Trackpoint>
          <Trackpoint>
            <Time>2022-07-17T18:37:32.000Z</Time>
            <Position>
              <LatitudeDegrees>43.502714149653911590576171875</LatitudeDegrees>
              <LongitudeDegrees>-5.57090126909315586090087890625</LongitudeDegrees>
            </Position>
            <AltitudeMeters>202.600006103515625</AltitudeMeters>
            <DistanceMeters>NAN</DistanceMeters>
          </Trackpoint>
          <Trackpoint>
            <Time>2022-07-17T18:37:46.000Z</Time>
            <Position>
              <LatitudeDegrees>43.50273284129798412322998046875</LatitudeDegrees>
              <LongitudeDegrees>-5.5709456093609333038330078125</LongitudeDegrees>
            </Position>
            <AltitudeMeters>203</AltitudeMeters>
            <DistanceMeters>NAN</DistanceMeters>
          </Trackpoint>
          <Trackpoint>
            <Time>2022-07-17T18:37:48.000Z</Time>
            <Position>
              <LatitudeDegrees>43.50273284129798412322998046875</LatitudeDegrees>
              <LongitudeDegrees>-5.5709456093609333038330078125</LongitudeDegrees>
            </Position>
            <AltitudeMeters>203.1999969482421875</AltitudeMeters>
            <DistanceMeters>NAN</DistanceMeters>
          </Trackpoint>
          <Trackpoint>
            <Time>2022-07-17T18:56:55.000Z</Time>
            <Position>
              <LatitudeDegrees>43.502789922058582305908203125</LatitudeDegrees>
              <LongitudeDegrees>-5.5712483637034893035888671875</LongitudeDegrees>
            </Position>
            <AltitudeMeters>203.8000030517578125</AltitudeMeters>
            <DistanceMeters>NAN</DistanceMeters>
          </Trackpoint>
          <Trackpoint>
            <Time>2022-07-17T18:56:56.000Z</Time>
            <Position>
              <LatitudeDegrees>43.50279235281050205230712890625</LatitudeDegrees>
              <LongitudeDegrees>-5.571265630424022674560546875</LongitudeDegrees>
            </Position>
            <AltitudeMeters>203.8000030517578125</AltitudeMeters>
            <DistanceMeters>NAN</DistanceMeters>
          </Trackpoint>
          <Trackpoint>
            <Time>2022-07-17T18:57:03.000Z</Time>
            <Position>
              <LatitudeDegrees>43.50282780826091766357421875</LatitudeDegrees>
              <LongitudeDegrees>-5.57141826488077640533447265625</LongitudeDegrees>
            </Position>
            <AltitudeMeters>204.399993896484375</AltitudeMeters>
            <DistanceMeters>NAN</DistanceMeters>
          </Trackpoint>
          <Trackpoint>
            <Time>2022-07-17T18:57:06.000Z</Time>
            <Position>
              <LatitudeDegrees>43.50283459760248661041259765625</LatitudeDegrees>
              <LongitudeDegrees>-5.571488924324512481689453125</LongitudeDegrees>
            </Position>
            <AltitudeMeters>204.399993896484375</AltitudeMeters>
            <DistanceMeters>NAN</DistanceMeters>
          </Trackpoint>
          <Trackpoint>
            <Time>2022-07-17T18:57:08.000Z</Time>
            <Position>
              <LatitudeDegrees>43.50286125205457210540771484375</LatitudeDegrees>
              <LongitudeDegrees>-5.57152488268911838531494140625</LongitudeDegrees>
            </Position>
            <AltitudeMeters>204.399993896484375</AltitudeMeters>
            <DistanceMeters>NAN</DistanceMeters>
          </Trackpoint>
          <Trackpoint>
            <Time>2022-07-17T18:57:11.000Z</Time>
            <Position>
              <LatitudeDegrees>43.50290064699947834014892578125</LatitudeDegrees>
              <LongitudeDegrees>-5.571591518819332122802734375</LongitudeDegrees>
            </Position>
            <AltitudeMeters>204.399993896484375</AltitudeMeters>
            <DistanceMeters>NAN</DistanceMeters>
          </Trackpoint>
          <Trackpoint>
            <Time>2022-07-17T18:57:14.000Z</Time>
            <Position>
              <LatitudeDegrees>43.50293702445924282073974609375</LatitudeDegrees>
              <LongitudeDegrees>-5.571647174656391143798828125</LongitudeDegrees>
            </Position>
            <AltitudeMeters>204.399993896484375</AltitudeMeters>
            <DistanceMeters>NAN</DistanceMeters>
          </Trackpoint>
          <Trackpoint>
            <Time>2022-07-17T18:57:19.000Z</Time>
            <Position>
              <LatitudeDegrees>43.50299988873302936553955078125</LatitudeDegrees>
              <LongitudeDegrees>-5.5717831291258335113525390625</LongitudeDegrees>
            </Position>
            <AltitudeMeters>204.399993896484375</AltitudeMeters>
            <DistanceMeters>NAN</DistanceMeters>
          </Trackpoint>
          <Trackpoint>
            <Time>2022-07-17T18:57:21.000Z</Time>
            <Position>
              <LatitudeDegrees>43.5030063427984714508056640625</LatitudeDegrees>
              <LongitudeDegrees>-5.571832247078418731689453125</LongitudeDegrees>
            </Position>
            <AltitudeMeters>204.399993896484375</AltitudeMeters>
            <DistanceMeters>NAN</DistanceMeters>
          </Trackpoint>
          <Trackpoint>
            <Time>2022-07-17T18:57:27.000Z</Time>
            <Position>
              <LatitudeDegrees>43.50306711159646511077880859375</LatitudeDegrees>
              <LongitudeDegrees>-5.57198320515453815460205078125</LongitudeDegrees>
            </Position>
            <AltitudeMeters>204.399993896484375</AltitudeMeters>
            <DistanceMeters>NAN</DistanceMeters>
          </Trackpoint>
          <Trackpoint>
            <Time>2022-07-17T18:57:33.000Z</Time>
            <Position>
              <LatitudeDegrees>43.50311907939612865447998046875</LatitudeDegrees>
              <LongitudeDegrees>-5.5721499212086200714111328125</LongitudeDegrees>
            </Position>
            <AltitudeMeters>203.399993896484375</AltitudeMeters>
            <DistanceMeters>NAN</DistanceMeters>
          </Trackpoint>
          <Trackpoint>
            <Time>2022-07-17T18:57:36.000Z</Time>
            <Position>
              <LatitudeDegrees>43.5031758248805999755859375</LatitudeDegrees>
              <LongitudeDegrees>-5.57224052958190441131591796875</LongitudeDegrees>
            </Position>
            <AltitudeMeters>203</AltitudeMeters>
            <DistanceMeters>NAN</DistanceMeters>
          </Trackpoint>
          <Trackpoint>
            <Time>2022-07-17T18:57:37.000Z</Time>
            <Position>
              <LatitudeDegrees>43.50319568999111652374267578125</LatitudeDegrees>
              <LongitudeDegrees>-5.57227221317589282989501953125</LongitudeDegrees>
            </Position>
            <AltitudeMeters>202.8000030517578125</AltitudeMeters>
            <DistanceMeters>NAN</DistanceMeters>
          </Trackpoint>
          <Trackpoint>
            <Time>2022-07-17T18:57:42.000Z</Time>
            <Position>
              <LatitudeDegrees>43.50327079184353351593017578125</LatitudeDegrees>
              <LongitudeDegrees>-5.57237832807004451751708984375</LongitudeDegrees>
            </Position>
            <AltitudeMeters>202</AltitudeMeters>
            <DistanceMeters>NAN</DistanceMeters>
          </Trackpoint>
          <Trackpoint>
            <Time>2022-07-17T18:57:43.000Z</Time>
            <Position>
              <LatitudeDegrees>43.50328453816473484039306640625</LatitudeDegrees>
              <LongitudeDegrees>-5.57239794172346591949462890625</LongitudeDegrees>
            </Position>
            <AltitudeMeters>202</AltitudeMeters>
            <DistanceMeters>NAN</DistanceMeters>
          </Trackpoint>
          <Trackpoint>
            <Time>2022-07-17T18:57:44.000Z</Time>
            <Position>
              <LatitudeDegrees>43.50329761393368244171142578125</LatitudeDegrees>
              <LongitudeDegrees>-5.57242191396653652191162109375</LongitudeDegrees>
            </Position>
            <AltitudeMeters>201.8000030517578125</AltitudeMeters>
            <DistanceMeters>NAN</DistanceMeters>
          </Trackpoint>
          <Trackpoint>
            <Time>2022-07-17T18:57:47.000Z</Time>
            <Position>
              <LatitudeDegrees>43.50335209630429744720458984375</LatitudeDegrees>
              <LongitudeDegrees>-5.5725120194256305694580078125</LongitudeDegrees>
            </Position>
            <AltitudeMeters>201.399993896484375</AltitudeMeters>
            <DistanceMeters>NAN</DistanceMeters>
          </Trackpoint>
          <Trackpoint>
            <Time>2022-07-17T18:57:52.000Z</Time>
            <Position>
              <LatitudeDegrees>43.503462485969066619873046875</LatitudeDegrees>
              <LongitudeDegrees>-5.5726776458323001861572265625</LongitudeDegrees>
            </Position>
            <AltitudeMeters>201.1999969482421875</AltitudeMeters>
            <DistanceMeters>NAN</DistanceMeters>
          </Trackpoint>
          <Trackpoint>
            <Time>2022-07-17T18:58:00.000Z</Time>
            <Position>
              <LatitudeDegrees>43.50357002578675746917724609375</LatitudeDegrees>
              <LongitudeDegrees>-5.57292231358587741851806640625</LongitudeDegrees>
            </Position>
            <AltitudeMeters>201.1999969482421875</AltitudeMeters>
            <DistanceMeters>NAN</DistanceMeters>
          </Trackpoint>
          <Trackpoint>
            <Time>2022-07-17T18:58:04.000Z</Time>
            <Position>
              <LatitudeDegrees>43.50358142517507076263427734375</LatitudeDegrees>
              <LongitudeDegrees>-5.572940669953823089599609375</LongitudeDegrees>
            </Position>
            <AltitudeMeters>201.600006103515625</AltitudeMeters>
            <DistanceMeters>NAN</DistanceMeters>
          </Trackpoint>
          <Trackpoint>
            <Time>2022-07-17T18:58:15.000Z</Time>
            <Position>
              <LatitudeDegrees>43.50358913652598857879638671875</LatitudeDegrees>
              <LongitudeDegrees>-5.57305089198052883148193359375</LongitudeDegrees>
            </Position>
            <AltitudeMeters>202.600006103515625</AltitudeMeters>
            <DistanceMeters>NAN</DistanceMeters>
          </Trackpoint>
          <Trackpoint>
            <Time>2022-07-17T18:58:18.000Z</Time>
            <Position>
              <LatitudeDegrees>43.5035987757146358489990234375</LatitudeDegrees>
              <LongitudeDegrees>-5.57313077151775360107421875</LongitudeDegrees>
            </Position>
            <AltitudeMeters>202.399993896484375</AltitudeMeters>
            <DistanceMeters>NAN</DistanceMeters>
          </Trackpoint>
          <Trackpoint>
            <Time>2022-07-17T18:58:23.000Z</Time>
            <Position>
              <LatitudeDegrees>43.503595925867557525634765625</LatitudeDegrees>
              <LongitudeDegrees>-5.57329698465764522552490234375</LongitudeDegrees>
            </Position>
            <AltitudeMeters>202</AltitudeMeters>
            <DistanceMeters>NAN</DistanceMeters>
          </Trackpoint>
          <Trackpoint>
            <Time>2022-07-17T18:58:24.000Z</Time>
            <Position>
              <LatitudeDegrees>43.50358712486922740936279296875</LatitudeDegrees>
              <LongitudeDegrees>-5.573324896395206451416015625</LongitudeDegrees>
            </Position>
            <AltitudeMeters>201.8000030517578125</AltitudeMeters>
            <DistanceMeters>NAN</DistanceMeters>
          </Trackpoint>
          <Trackpoint>
            <Time>2022-07-17T18:58:29.000Z</Time>
            <Position>
              <LatitudeDegrees>43.50359282456338405609130859375</LatitudeDegrees>
              <LongitudeDegrees>-5.57348591275513172149658203125</LongitudeDegrees>
            </Position>
            <AltitudeMeters>201.399993896484375</AltitudeMeters>
            <DistanceMeters>NAN</DistanceMeters>
          </Trackpoint>
          <Trackpoint>
            <Time>2022-07-17T18:58:34.000Z</Time>
            <Position>
              <LatitudeDegrees>43.50365116260945796966552734375</LatitudeDegrees>
              <LongitudeDegrees>-5.57362153194844722747802734375</LongitudeDegrees>
            </Position>
            <AltitudeMeters>201.399993896484375</AltitudeMeters>
            <DistanceMeters>NAN</DistanceMeters>
          </Trackpoint>
          <Trackpoint>
            <Time>2022-07-17T18:58:40.000Z</Time>
            <Position>
              <LatitudeDegrees>43.5037524998188018798828125</LatitudeDegrees>
              <LongitudeDegrees>-5.5736600048840045928955078125</LongitudeDegrees>
            </Position>
            <AltitudeMeters>201.399993896484375</AltitudeMeters>
            <DistanceMeters>NAN</DistanceMeters>
          </Trackpoint>
          <Trackpoint>
            <Time>2022-07-17T18:58:49.000Z</Time>
            <Position>
              <LatitudeDegrees>43.5038951598107814788818359375</LatitudeDegrees>
              <LongitudeDegrees>-5.57371675036847591400146484375</LongitudeDegrees>
            </Position>
            <AltitudeMeters>201.399993896484375</AltitudeMeters>
            <DistanceMeters>NAN</DistanceMeters>
          </Trackpoint>
          <Trackpoint>
            <Time>2022-07-17T18:58:50.000Z</Time>
            <Position>
              <LatitudeDegrees>43.5038951598107814788818359375</LatitudeDegrees>
              <LongitudeDegrees>-5.57371675036847591400146484375</LongitudeDegrees>
            </Position>
            <AltitudeMeters>201.399993896484375</AltitudeMeters>
            <DistanceMeters>NAN</DistanceMeters>
          </Trackpoint>
          <Trackpoint>
            <Time>2022-07-17T19:00:36.000Z</Time>
            <Position>
              <LatitudeDegrees>43.5038807429373264312744140625</LatitudeDegrees>
              <LongitudeDegrees>-5.57368464767932891845703125</LongitudeDegrees>
            </Position>
            <AltitudeMeters>200.399993896484375</AltitudeMeters>
            <DistanceMeters>NAN</DistanceMeters>
          </Trackpoint>
          <Trackpoint>
            <Time>2022-07-17T19:00:37.000Z</Time>
            <Position>
              <LatitudeDegrees>43.50386892445385456085205078125</LatitudeDegrees>
              <LongitudeDegrees>-5.57367685250937938690185546875</LongitudeDegrees>
            </Position>
            <AltitudeMeters>200.600006103515625</AltitudeMeters>
            <DistanceMeters>NAN</DistanceMeters>
          </Trackpoint>
          <Trackpoint>
            <Time>2022-07-17T19:00:38.000Z</Time>
            <Position>
              <LatitudeDegrees>43.5038529150187969207763671875</LatitudeDegrees>
              <LongitudeDegrees>-5.5736745893955230712890625</LongitudeDegrees>
            </Position>
            <AltitudeMeters>201</AltitudeMeters>
            <DistanceMeters>NAN</DistanceMeters>
          </Trackpoint>
          <Trackpoint>
            <Time>2022-07-17T19:00:41.000Z</Time>
            <Position>
              <LatitudeDegrees>43.50379365496337413787841796875</LatitudeDegrees>
              <LongitudeDegrees>-5.57367199100553989410400390625</LongitudeDegrees>
            </Position>
            <AltitudeMeters>201.600006103515625</AltitudeMeters>
            <DistanceMeters>NAN</DistanceMeters>
          </Trackpoint>
          <Trackpoint>
            <Time>2022-07-17T19:00:44.000Z</Time>
            <Position>
              <LatitudeDegrees>43.5037372447550296783447265625</LatitudeDegrees>
              <LongitudeDegrees>-5.57366863824427127838134765625</LongitudeDegrees>
            </Position>
            <AltitudeMeters>201.8000030517578125</AltitudeMeters>
            <DistanceMeters>NAN</DistanceMeters>
          </Trackpoint>
          <Trackpoint>
            <Time>2022-07-17T19:00:46.000Z</Time>
            <Position>
              <LatitudeDegrees>43.5037003643810749053955078125</LatitudeDegrees>
              <LongitudeDegrees>-5.573697052896022796630859375</LongitudeDegrees>
            </Position>
            <AltitudeMeters>201.8000030517578125</AltitudeMeters>
            <DistanceMeters>NAN</DistanceMeters>
          </Trackpoint>
          <Trackpoint>
            <Time>2022-07-17T19:00:48.000Z</Time>
            <Position>
              <LatitudeDegrees>43.50368209183216094970703125</LatitudeDegrees>
              <LongitudeDegrees>-5.57376268319785594940185546875</LongitudeDegrees>
            </Position>
            <AltitudeMeters>202</AltitudeMeters>
            <DistanceMeters>NAN</DistanceMeters>
          </Trackpoint>
          <Trackpoint>
            <Time>2022-07-17T19:00:52.000Z</Time>
            <Position>
              <LatitudeDegrees>43.5037385858595371246337890625</LatitudeDegrees>
              <LongitudeDegrees>-5.573912300169467926025390625</LongitudeDegrees>
            </Position>
            <AltitudeMeters>201.600006103515625</AltitudeMeters>
            <DistanceMeters>NAN</DistanceMeters>
          </Trackpoint>
          <Trackpoint>
            <Time>2022-07-17T19:00:58.000Z</Time>
            <Position>
              <LatitudeDegrees>43.50384763441979885101318359375</LatitudeDegrees>
              <LongitudeDegrees>-5.57405722327530384063720703125</LongitudeDegrees>
            </Position>
            <AltitudeMeters>200.399993896484375</AltitudeMeters>
            <DistanceMeters>NAN</DistanceMeters>
          </Trackpoint>
          <Trackpoint>
            <Time>2022-07-17T19:01:03.000Z</Time>
            <Position>
              <LatitudeDegrees>43.50386984646320343017578125</LatitudeDegrees>
              <LongitudeDegrees>-5.5740827880799770355224609375</LongitudeDegrees>
            </Position>
            <AltitudeMeters>200.1999969482421875</AltitudeMeters>
            <DistanceMeters>NAN</DistanceMeters>
          </Trackpoint>
          <Trackpoint>
            <Time>2022-07-17T19:01:04.000Z</Time>
            <Position>
              <LatitudeDegrees>43.50388132967054843902587890625</LatitudeDegrees>
              <LongitudeDegrees>-5.574099719524383544921875</LongitudeDegrees>
            </Position>
            <AltitudeMeters>200.1999969482421875</AltitudeMeters>
            <DistanceMeters>NAN</DistanceMeters>
          </Trackpoint>
          <Trackpoint>
            <Time>2022-07-17T19:01:07.000Z</Time>
            <Position>
              <LatitudeDegrees>43.50393380038440227508544921875</LatitudeDegrees>
              <LongitudeDegrees>-5.57413802482187747955322265625</LongitudeDegrees>
            </Position>
            <AltitudeMeters>200</AltitudeMeters>
            <DistanceMeters>NAN</DistanceMeters>
          </Trackpoint>
          <Trackpoint>
            <Time>2022-07-17T19:01:08.000Z</Time>
            <Position>
              <LatitudeDegrees>43.5039394162595272064208984375</LatitudeDegrees>
              <LongitudeDegrees>-5.57413819245994091033935546875</LongitudeDegrees>
            </Position>
            <AltitudeMeters>199.8000030517578125</AltitudeMeters>
            <DistanceMeters>NAN</DistanceMeters>
          </Trackpoint>
          <Trackpoint>
            <Time>2022-07-17T19:01:11.000Z</Time>
            <Position>
              <LatitudeDegrees>43.5039394162595272064208984375</LatitudeDegrees>
              <LongitudeDegrees>-5.57413819245994091033935546875</LongitudeDegrees>
            </Position>
            <AltitudeMeters>199.8000030517578125</AltitudeMeters>
            <DistanceMeters>NAN</DistanceMeters>
          </Trackpoint>
          <Trackpoint>
            <Time>2022-07-17T19:01:26.000Z</Time>
            <Position>
              <LatitudeDegrees>43.5039561800658702850341796875</LatitudeDegrees>
              <LongitudeDegrees>-5.57419049553573131561279296875</LongitudeDegrees>
            </Position>
            <AltitudeMeters>199.8000030517578125</AltitudeMeters>
            <DistanceMeters>NAN</DistanceMeters>
          </Trackpoint>
          <Trackpoint>
            <Time>2022-07-17T19:01:27.000Z</Time>
            <Position>
              <LatitudeDegrees>43.50397185422480106353759765625</LatitudeDegrees>
              <LongitudeDegrees>-5.574219413101673126220703125</LongitudeDegrees>
            </Position>
            <AltitudeMeters>199.600006103515625</AltitudeMeters>
            <DistanceMeters>NAN</DistanceMeters>
          </Trackpoint>
          <Trackpoint>
            <Time>2022-07-17T19:01:29.000Z</Time>
            <Position>
              <LatitudeDegrees>43.50400789640843868255615234375</LatitudeDegrees>
              <LongitudeDegrees>-5.57429091073572635650634765625</LongitudeDegrees>
            </Position>
            <AltitudeMeters>199.1999969482421875</AltitudeMeters>
            <DistanceMeters>NAN</DistanceMeters>
          </Trackpoint>
          <Trackpoint>
            <Time>2022-07-17T19:01:33.000Z</Time>
            <Position>
              <LatitudeDegrees>43.5040711797773838043212890625</LatitudeDegrees>
              <LongitudeDegrees>-5.57441890239715576171875</LongitudeDegrees>
            </Position>
            <AltitudeMeters>198.8000030517578125</AltitudeMeters>
            <DistanceMeters>NAN</DistanceMeters>
          </Trackpoint>
          <Trackpoint>
            <Time>2022-07-17T19:01:36.000Z</Time>
            <Position>
              <LatitudeDegrees>43.5040896199643611907958984375</LatitudeDegrees>
              <LongitudeDegrees>-5.57441999204456806182861328125</LongitudeDegrees>
            </Position>
            <AltitudeMeters>198.600006103515625</AltitudeMeters>
            <DistanceMeters>NAN</DistanceMeters>
          </Trackpoint>
          <Trackpoint>
            <Time>2022-07-17T19:02:15.000Z</Time>
            <Position>
              <LatitudeDegrees>43.50416866131126880645751953125</LatitudeDegrees>
              <LongitudeDegrees>-5.5745649151504039764404296875</LongitudeDegrees>
            </Position>
            <AltitudeMeters>198</AltitudeMeters>
            <DistanceMeters>NAN</DistanceMeters>
          </Trackpoint>
          <Trackpoint>
            <Time>2022-07-17T19:02:17.000Z</Time>
            <Position>
              <LatitudeDegrees>43.50420872680842876434326171875</LatitudeDegrees>
              <LongitudeDegrees>-5.5746401846408843994140625</LongitudeDegrees>
            </Position>
            <AltitudeMeters>197.600006103515625</AltitudeMeters>
            <DistanceMeters>NAN</DistanceMeters>
          </Trackpoint>
          <Trackpoint>
            <Time>2022-07-17T19:02:21.000Z</Time>
            <Position>
              <LatitudeDegrees>43.504302687942981719970703125</LatitudeDegrees>
              <LongitudeDegrees>-5.574829280376434326171875</LongitudeDegrees>
            </Position>
            <AltitudeMeters>197</AltitudeMeters>
            <DistanceMeters>NAN</DistanceMeters>
          </Trackpoint>
          <Trackpoint>
            <Time>2022-07-17T19:02:23.000Z</Time>
            <Position>
              <LatitudeDegrees>43.5043538175523281097412109375</LatitudeDegrees>
              <LongitudeDegrees>-5.57494117878377437591552734375</LongitudeDegrees>
            </Position>
            <AltitudeMeters>196.8000030517578125</AltitudeMeters>
            <DistanceMeters>NAN</DistanceMeters>
          </Trackpoint>
          <Trackpoint>
            <Time>2022-07-17T19:02:32.000Z</Time>
            <Position>
              <LatitudeDegrees>43.5045700706541538238525390625</LatitudeDegrees>
              <LongitudeDegrees>-5.575390197336673736572265625</LongitudeDegrees>
            </Position>
            <AltitudeMeters>196</AltitudeMeters>
            <DistanceMeters>NAN</DistanceMeters>
          </Trackpoint>
          <Trackpoint>
            <Time>2022-07-17T19:02:34.000Z</Time>
            <Position>
              <LatitudeDegrees>43.50462547503411769866943359375</LatitudeDegrees>
              <LongitudeDegrees>-5.57542012073099613189697265625</LongitudeDegrees>
            </Position>
            <AltitudeMeters>195.600006103515625</AltitudeMeters>
            <DistanceMeters>NAN</DistanceMeters>
          </Trackpoint>
          <Trackpoint>
            <Time>2022-07-17T19:02:35.000Z</Time>
            <Position>
              <LatitudeDegrees>43.5046455077826976776123046875</LatitudeDegrees>
              <LongitudeDegrees>-5.57541626505553722381591796875</LongitudeDegrees>
            </Position>
            <AltitudeMeters>195.600006103515625</AltitudeMeters>
            <DistanceMeters>NAN</DistanceMeters>
          </Trackpoint>
          <Trackpoint>
            <Time>2022-07-17T19:02:37.000Z</Time>
            <Position>
              <LatitudeDegrees>43.50467593409121036529541015625</LatitudeDegrees>
              <LongitudeDegrees>-5.5754000879824161529541015625</LongitudeDegrees>
            </Position>
            <AltitudeMeters>195.600006103515625</AltitudeMeters>
            <DistanceMeters>NAN</DistanceMeters>
          </Trackpoint>
          <Trackpoint>
            <Time>2022-07-17T19:02:39.000Z</Time>
            <Position>
              <LatitudeDegrees>43.5046880878508090972900390625</LatitudeDegrees>
              <LongitudeDegrees>-5.57538709603250026702880859375</LongitudeDegrees>
            </Position>
            <AltitudeMeters>195.8000030517578125</AltitudeMeters>
            <DistanceMeters>NAN</DistanceMeters>
          </Trackpoint>
          <Trackpoint>
            <Time>2022-07-17T19:02:41.000Z</Time>
            <Position>
              <LatitudeDegrees>43.5046880878508090972900390625</LatitudeDegrees>
              <LongitudeDegrees>-5.57538709603250026702880859375</LongitudeDegrees>
            </Position>
            <AltitudeMeters>196.600006103515625</AltitudeMeters>
            <DistanceMeters>NAN</DistanceMeters>
          </Trackpoint>
          <Trackpoint>
            <Time>2022-07-17T19:12:58.000Z</Time>
            <Position>
              <LatitudeDegrees>43.5048895888030529022216796875</LatitudeDegrees>
              <LongitudeDegrees>-5.57525030337274074554443359375</LongitudeDegrees>
            </Position>
            <AltitudeMeters>196</AltitudeMeters>
            <DistanceMeters>NAN</DistanceMeters>
          </Trackpoint>
          <Trackpoint>
            <Time>2022-07-17T19:13:00.000Z</Time>
            <Position>
              <LatitudeDegrees>43.5048808716237545013427734375</LatitudeDegrees>
              <LongitudeDegrees>-5.5752247385680675506591796875</LongitudeDegrees>
            </Position>
            <AltitudeMeters>196</AltitudeMeters>
            <DistanceMeters>NAN</DistanceMeters>
          </Trackpoint>
          <Trackpoint>
            <Time>2022-07-17T19:13:02.000Z</Time>
            <Position>
              <LatitudeDegrees>43.50487969815731048583984375</LatitudeDegrees>
              <LongitudeDegrees>-5.575221218168735504150390625</LongitudeDegrees>
            </Position>
            <AltitudeMeters>196</AltitudeMeters>
            <DistanceMeters>NAN</DistanceMeters>
          </Trackpoint>
          <Trackpoint>
            <Time>2022-07-17T19:13:08.000Z</Time>
            <Position>
              <LatitudeDegrees>43.5048805363476276397705078125</LatitudeDegrees>
              <LongitudeDegrees>-5.57526740245521068572998046875</LongitudeDegrees>
            </Position>
            <AltitudeMeters>194.8000030517578125</AltitudeMeters>
            <DistanceMeters>NAN</DistanceMeters>
          </Trackpoint>
          <Trackpoint>
            <Time>2022-07-17T19:13:09.000Z</Time>
            <Position>
              <LatitudeDegrees>43.5048828832805156707763671875</LatitudeDegrees>
              <LongitudeDegrees>-5.575280226767063140869140625</LongitudeDegrees>
            </Position>
            <AltitudeMeters>195</AltitudeMeters>
            <DistanceMeters>NAN</DistanceMeters>
          </Trackpoint>
          <Trackpoint>
            <Time>2022-07-17T19:13:10.000Z</Time>
            <Position>
              <LatitudeDegrees>43.50488732568919658660888671875</LatitudeDegrees>
              <LongitudeDegrees>-5.5752827413380146026611328125</LongitudeDegrees>
            </Position>
            <AltitudeMeters>195</AltitudeMeters>
            <DistanceMeters>NAN</DistanceMeters>
          </Trackpoint>
          <Trackpoint>
            <Time>2022-07-17T19:13:13.000Z</Time>
            <Position>
              <LatitudeDegrees>43.504891097545623779296875</LatitudeDegrees>
              <LongitudeDegrees>-5.57528634555637836456298828125</LongitudeDegrees>
            </Position>
            <AltitudeMeters>195</AltitudeMeters>
            <DistanceMeters>NAN</DistanceMeters>
          </Trackpoint>
          <Trackpoint>
            <Time>2022-07-17T19:14:25.000Z</Time>
            <Position>
              <LatitudeDegrees>43.50477232597768306732177734375</LatitudeDegrees>
              <LongitudeDegrees>-5.575057603418827056884765625</LongitudeDegrees>
            </Position>
            <AltitudeMeters>195.600006103515625</AltitudeMeters>
            <DistanceMeters>NAN</DistanceMeters>
          </Trackpoint>
          <Trackpoint>
            <Time>2022-07-17T19:14:33.000Z</Time>
            <Position>
              <LatitudeDegrees>43.5046780295670032501220703125</LatitudeDegrees>
              <LongitudeDegrees>-5.574939250946044921875</LongitudeDegrees>
            </Position>
            <AltitudeMeters>195.8000030517578125</AltitudeMeters>
            <DistanceMeters>NAN</DistanceMeters>
          </Trackpoint>
          <Trackpoint>
            <Time>2022-07-17T19:14:35.000Z</Time>
            <Position>
              <LatitudeDegrees>43.50466168485581874847412109375</LatitudeDegrees>
              <LongitudeDegrees>-5.57492106221616268157958984375</LongitudeDegrees>
            </Position>
            <AltitudeMeters>195.8000030517578125</AltitudeMeters>
            <DistanceMeters>NAN</DistanceMeters>
          </Trackpoint>
          <Trackpoint>
            <Time>2022-07-17T19:14:40.000Z</Time>
            <Position>
              <LatitudeDegrees>43.50461793132126331329345703125</LatitudeDegrees>
              <LongitudeDegrees>-5.5748857744038105010986328125</LongitudeDegrees>
            </Position>
            <AltitudeMeters>196.1999969482421875</AltitudeMeters>
            <DistanceMeters>NAN</DistanceMeters>
          </Trackpoint>
          <Trackpoint>
            <Time>2022-07-17T19:14:43.000Z</Time>
            <Position>
              <LatitudeDegrees>43.50459144450724124908447265625</LatitudeDegrees>
              <LongitudeDegrees>-5.5748386681079864501953125</LongitudeDegrees>
            </Position>
            <AltitudeMeters>196</AltitudeMeters>
            <DistanceMeters>NAN</DistanceMeters>
          </Trackpoint>
          <Trackpoint>
            <Time>2022-07-17T19:14:48.000Z</Time>
            <Position>
              <LatitudeDegrees>43.50453863851726055145263671875</LatitudeDegrees>
              <LongitudeDegrees>-5.5748103372752666473388671875</LongitudeDegrees>
            </Position>
            <AltitudeMeters>195.600006103515625</AltitudeMeters>
            <DistanceMeters>NAN</DistanceMeters>
          </Trackpoint>
          <Trackpoint>
            <Time>2022-07-17T19:14:56.000Z</Time>
            <Position>
              <LatitudeDegrees>43.50445456802845001220703125</LatitudeDegrees>
              <LongitudeDegrees>-5.574780665338039398193359375</LongitudeDegrees>
            </Position>
            <AltitudeMeters>196</AltitudeMeters>
            <DistanceMeters>NAN</DistanceMeters>
          </Trackpoint>
          <Trackpoint>
            <Time>2022-07-17T19:15:04.000Z</Time>
            <Position>
              <LatitudeDegrees>43.50437468849122524261474609375</LatitudeDegrees>
              <LongitudeDegrees>-5.5747553519904613494873046875</LongitudeDegrees>
            </Position>
            <AltitudeMeters>196.399993896484375</AltitudeMeters>
            <DistanceMeters>NAN</DistanceMeters>
          </Trackpoint>
          <Trackpoint>
            <Time>2022-07-17T19:15:05.000Z</Time>
            <Position>
              <LatitudeDegrees>43.50437200628221035003662109375</LatitudeDegrees>
              <LongitudeDegrees>-5.57474889792501926422119140625</LongitudeDegrees>
            </Position>
            <AltitudeMeters>196.600006103515625</AltitudeMeters>
            <DistanceMeters>NAN</DistanceMeters>
          </Trackpoint>
          <Trackpoint>
            <Time>2022-07-17T19:15:08.000Z</Time>
            <Position>
              <LatitudeDegrees>43.5043372213840484619140625</LatitudeDegrees>
              <LongitudeDegrees>-5.574718974530696868896484375</LongitudeDegrees>
            </Position>
            <AltitudeMeters>196.600006103515625</AltitudeMeters>
            <DistanceMeters>NAN</DistanceMeters>
          </Trackpoint>
          <Trackpoint>
            <Time>2022-07-17T19:15:11.000Z</Time>
            <Position>
              <LatitudeDegrees>43.5043182782828807830810546875</LatitudeDegrees>
              <LongitudeDegrees>-5.5746933259069919586181640625</LongitudeDegrees>
            </Position>
            <AltitudeMeters>196.399993896484375</AltitudeMeters>
            <DistanceMeters>NAN</DistanceMeters>
          </Trackpoint>
          <Trackpoint>
            <Time>2022-07-17T19:15:13.000Z</Time>
            <Position>
              <LatitudeDegrees>43.5043162666261196136474609375</LatitudeDegrees>
              <LongitudeDegrees>-5.5746688507497310638427734375</LongitudeDegrees>
            </Position>
            <AltitudeMeters>196.399993896484375</AltitudeMeters>
            <DistanceMeters>NAN</DistanceMeters>
          </Trackpoint>
          <Trackpoint>
            <Time>2022-07-17T19:15:17.000Z</Time>
            <Position>
              <LatitudeDegrees>43.50429774262011051177978515625</LatitudeDegrees>
              <LongitudeDegrees>-5.57461914606392383575439453125</LongitudeDegrees>
            </Position>
            <AltitudeMeters>196.399993896484375</AltitudeMeters>
            <DistanceMeters>NAN</DistanceMeters>
          </Trackpoint>
          <Trackpoint>
            <Time>2022-07-17T19:15:18.000Z</Time>
            <Position>
              <LatitudeDegrees>43.50429070182144641876220703125</LatitudeDegrees>
              <LongitudeDegrees>-5.57460875250399112701416015625</LongitudeDegrees>
            </Position>
            <AltitudeMeters>196.600006103515625</AltitudeMeters>
            <DistanceMeters>NAN</DistanceMeters>
          </Trackpoint>
          <Trackpoint>
            <Time>2022-07-17T19:15:20.000Z</Time>
            <Position>
              <LatitudeDegrees>43.504272513091564178466796875</LatitudeDegrees>
              <LongitudeDegrees>-5.57458318769931793212890625</LongitudeDegrees>
            </Position>
            <AltitudeMeters>196.600006103515625</AltitudeMeters>
            <DistanceMeters>NAN</DistanceMeters>
          </Trackpoint>
          <Trackpoint>
            <Time>2022-07-17T19:15:24.000Z</Time>
            <Position>
              <LatitudeDegrees>43.5042371414601802825927734375</LatitudeDegrees>
              <LongitudeDegrees>-5.57454697787761688232421875</LongitudeDegrees>
            </Position>
            <AltitudeMeters>196.8000030517578125</AltitudeMeters>
            <DistanceMeters>NAN</DistanceMeters>
          </Trackpoint>
          <Trackpoint>
            <Time>2022-07-17T19:15:27.000Z</Time>
            <Position>
              <LatitudeDegrees>43.50421828217804431915283203125</LatitudeDegrees>
              <LongitudeDegrees>-5.57452325709164142608642578125</LongitudeDegrees>
            </Position>
            <AltitudeMeters>196.8000030517578125</AltitudeMeters>
            <DistanceMeters>NAN</DistanceMeters>
          </Trackpoint>
          <Trackpoint>
            <Time>2022-07-17T19:15:28.000Z</Time>
            <Position>
              <LatitudeDegrees>43.50421157665550708770751953125</LatitudeDegrees>
              <LongitudeDegrees>-5.57451202534139156341552734375</LongitudeDegrees>
            </Position>
            <AltitudeMeters>197</AltitudeMeters>
            <DistanceMeters>NAN</DistanceMeters>
          </Trackpoint>
          <Trackpoint>
            <Time>2022-07-17T19:15:32.000Z</Time>
            <Position>
              <LatitudeDegrees>43.50417830049991607666015625</LatitudeDegrees>
              <LongitudeDegrees>-5.57446223683655261993408203125</LongitudeDegrees>
            </Position>
            <AltitudeMeters>197.8000030517578125</AltitudeMeters>
            <DistanceMeters>NAN</DistanceMeters>
          </Trackpoint>
          <Trackpoint>
            <Time>2022-07-17T19:15:34.000Z</Time>
            <Position>
              <LatitudeDegrees>43.504163213074207305908203125</LatitudeDegrees>
              <LongitudeDegrees>-5.574441365897655487060546875</LongitudeDegrees>
            </Position>
            <AltitudeMeters>197.8000030517578125</AltitudeMeters>
            <DistanceMeters>NAN</DistanceMeters>
          </Trackpoint>
          <Trackpoint>
            <Time>2022-07-17T19:15:37.000Z</Time>
            <Position>
              <LatitudeDegrees>43.50415072403848171234130859375</LatitudeDegrees>
              <LongitudeDegrees>-5.57440943084657192230224609375</LongitudeDegrees>
            </Position>
            <AltitudeMeters>197.8000030517578125</AltitudeMeters>
            <DistanceMeters>NAN</DistanceMeters>
          </Trackpoint>
          <Trackpoint>
            <Time>2022-07-17T19:15:38.000Z</Time>
            <Position>
              <LatitudeDegrees>43.50414871238172054290771484375</LatitudeDegrees>
              <LongitudeDegrees>-5.57440641336143016815185546875</LongitudeDegrees>
            </Position>
            <AltitudeMeters>197.8000030517578125</AltitudeMeters>
            <DistanceMeters>NAN</DistanceMeters>
          </Trackpoint>
          <Trackpoint>
            <Time>2022-07-17T19:15:42.000Z</Time>
            <Position>
              <LatitudeDegrees>43.50414971821010112762451171875</LatitudeDegrees>
              <LongitudeDegrees>-5.574368275701999664306640625</LongitudeDegrees>
            </Position>
            <AltitudeMeters>197.8000030517578125</AltitudeMeters>
            <DistanceMeters>NAN</DistanceMeters>
          </Trackpoint>
          <Trackpoint>
            <Time>2022-07-17T19:15:43.000Z</Time>
            <Position>
              <LatitudeDegrees>43.50415416061878204345703125</LatitudeDegrees>
              <LongitudeDegrees>-5.5743560381233692169189453125</LongitudeDegrees>
            </Position>
            <AltitudeMeters>198</AltitudeMeters>
            <DistanceMeters>NAN</DistanceMeters>
          </Trackpoint>
          <Trackpoint>
            <Time>2022-07-17T19:15:50.000Z</Time>
            <Position>
              <LatitudeDegrees>43.50421308539807796478271484375</LatitudeDegrees>
              <LongitudeDegrees>-5.574281103909015655517578125</LongitudeDegrees>
            </Position>
            <AltitudeMeters>198.399993896484375</AltitudeMeters>
            <DistanceMeters>NAN</DistanceMeters>
          </Trackpoint>
          <Trackpoint>
            <Time>2022-07-17T19:15:57.000Z</Time>
            <Position>
              <LatitudeDegrees>43.5042471997439861297607421875</LatitudeDegrees>
              <LongitudeDegrees>-5.57418663986027240753173828125</LongitudeDegrees>
            </Position>
            <AltitudeMeters>198.600006103515625</AltitudeMeters>
            <DistanceMeters>NAN</DistanceMeters>
          </Trackpoint>
          <Trackpoint>
            <Time>2022-07-17T19:16:00.000Z</Time>
            <Position>
              <LatitudeDegrees>43.50425147451460361480712890625</LatitudeDegrees>
              <LongitudeDegrees>-5.574140958487987518310546875</LongitudeDegrees>
            </Position>
            <AltitudeMeters>198.8000030517578125</AltitudeMeters>
            <DistanceMeters>NAN</DistanceMeters>
          </Trackpoint>
          <Trackpoint>
            <Time>2022-07-17T19:16:01.000Z</Time>
            <Position>
              <LatitudeDegrees>43.5042502172291278839111328125</LatitudeDegrees>
              <LongitudeDegrees>-5.57412981055676937103271484375</LongitudeDegrees>
            </Position>
            <AltitudeMeters>199</AltitudeMeters>
            <DistanceMeters>NAN</DistanceMeters>
          </Trackpoint>
          <Trackpoint>
            <Time>2022-07-17T19:16:02.000Z</Time>
            <Position>
              <LatitudeDegrees>43.50425013341009616851806640625</LatitudeDegrees>
              <LongitudeDegrees>-5.57411623187363147735595703125</LongitudeDegrees>
            </Position>
            <AltitudeMeters>199</AltitudeMeters>
            <DistanceMeters>NAN</DistanceMeters>
          </Trackpoint>
          <Trackpoint>
            <Time>2022-07-17T19:16:04.000Z</Time>
            <Position>
              <LatitudeDegrees>43.5042525641620159149169921875</LatitudeDegrees>
              <LongitudeDegrees>-5.57409100234508514404296875</LongitudeDegrees>
            </Position>
            <AltitudeMeters>199.1999969482421875</AltitudeMeters>
            <DistanceMeters>NAN</DistanceMeters>
          </Trackpoint>
          <Trackpoint>
            <Time>2022-07-17T19:16:10.000Z</Time>
            <Position>
              <LatitudeDegrees>43.5042411647737026214599609375</LatitudeDegrees>
              <LongitudeDegrees>-5.57400693185627460479736328125</LongitudeDegrees>
            </Position>
            <AltitudeMeters>199.1999969482421875</AltitudeMeters>
            <DistanceMeters>NAN</DistanceMeters>
          </Trackpoint>
          <Trackpoint>
            <Time>2022-07-17T19:16:11.000Z</Time>
            <Position>
              <LatitudeDegrees>43.50424024276435375213623046875</LatitudeDegrees>
              <LongitudeDegrees>-5.57399737648665904998779296875</LongitudeDegrees>
            </Position>
            <AltitudeMeters>199.1999969482421875</AltitudeMeters>
            <DistanceMeters>NAN</DistanceMeters>
          </Trackpoint>
          <Trackpoint>
            <Time>2022-07-17T19:16:13.000Z</Time>
            <Position>
              <LatitudeDegrees>43.504242338240146636962890625</LatitudeDegrees>
              <LongitudeDegrees>-5.5739615857601165771484375</LongitudeDegrees>
            </Position>
            <AltitudeMeters>199.1999969482421875</AltitudeMeters>
            <DistanceMeters>NAN</DistanceMeters>
          </Trackpoint>
          <Trackpoint>
            <Time>2022-07-17T19:16:17.000Z</Time>
            <Position>
              <LatitudeDegrees>43.50424778647720813751220703125</LatitudeDegrees>
              <LongitudeDegrees>-5.5739530362188816070556640625</LongitudeDegrees>
            </Position>
            <AltitudeMeters>199.1999969482421875</AltitudeMeters>
            <DistanceMeters>NAN</DistanceMeters>
          </Trackpoint>
          <Trackpoint>
            <Time>2022-07-17T19:16:27.000Z</Time>
            <Position>
              <LatitudeDegrees>43.50424728356301784515380859375</LatitudeDegrees>
              <LongitudeDegrees>-5.573945157229900360107421875</LongitudeDegrees>
            </Position>
            <AltitudeMeters>199.1999969482421875</AltitudeMeters>
            <DistanceMeters>NAN</DistanceMeters>
          </Trackpoint>
        </Track>
      </Lap>
    </Activity>
  </Activities>
</TrainingCenterDatabase>
